<?xml version="1.0" encoding="UTF-8" standalone="no" ?>
<gpx xmlns="http://www.topografix.com/GPX/1/1" xmlns:xsi="http://www.w3.org/2001/XMLSchema-instance" xsi:schemaLocation="http://www.topografix.com/GPX/1/1 http://www.topografix.com/GPX/1/1/gpx.xsd" version="1.1" creator="VisuGPX - https://www.visugpx.com">
  <metadata>
    <name>Royan - Eilat</name>
  </metadata>
  <wpt lat="39.0751" lon="26.88902">
    <ele>7.5</ele>
    <name><![CDATA[Eurovelo 8]]></name>
  </wpt>
  <wpt lat="37.55716" lon="27.83237">
    <ele>113.1</ele>
    <name><![CDATA[Karia Yolu Trail]]></name>
  </wpt>
  <wpt lat="36.5711" lon="29.14047">
    <ele>317.4</ele>
    <name><![CDATA[Lykischer weg Trail]]></name>
  </wpt>
  <trk>
    <name><![CDATA[Royan To Eilat]]></name>
    <extensions>
      <line xmlns="http://www.topografix.com/GPX/gpx_style/0/2">
        <color>0011ff</color>
        <width>7</width>
      </line>
    </extensions>
    <trkseg>
      <trkpt lat="45.61883" lon="-1.03159">
        <ele>5.018</ele>
        <time>2020-11-18T08:47:45Z</time>
      </trkpt>
      <trkpt lat="45.61883" lon="-1.03159">
        <ele>5.018</ele>
        <time>2020-11-18T08:47:45Z</time>
      </trkpt>
      <trkpt lat="45.61883" lon="-1.03159">
        <ele>5.018</ele>
        <time>2020-11-18T08:47:45Z</time>
      </trkpt>
      <trkpt lat="45.61883" lon="-1.03159">
        <ele>5.018</ele>
        <time>2020-11-18T08:47:45Z</time>
      </trkpt>
      <trkpt lat="45.61883" lon="-1.03159">
        <ele>5.018</ele>
        <time>2020-11-18T08:47:45Z</time>
      </trkpt>
      <trkpt lat="45.61883" lon="-1.03159">
        <ele>5.018</ele>
        <time>2020-11-18T08:47:45Z</time>
      </trkpt>
      <trkpt lat="45.61883" lon="-1.03159">
        <ele>5.018</ele>
        <time>2020-11-18T08:47:45Z</time>
      </trkpt>
      <trkpt lat="45.61883" lon="-1.03159">
        <ele>5.018</ele>
        <time>2020-11-18T08:47:45Z</time>
      </trkpt>
      <trkpt lat="45.61883" lon="-1.03159">
        <ele>5.018</ele>
        <time>2020-11-18T08:47:45Z</time>
      </trkpt>
      <trkpt lat="45.61883" lon="-1.03159">
        <ele>5.018</ele>
        <time>2020-11-18T08:47:45Z</time>
      </trkpt>
      <trkpt lat="45.61883" lon="-1.03159">
        <ele>5.018</ele>
        <time>2020-11-18T08:47:45Z</time>
      </trkpt>
      <trkpt lat="45.61883" lon="-1.03159">
        <ele>5.018</ele>
        <time>2020-11-18T08:47:45Z</time>
      </trkpt>
      <trkpt lat="45.61883" lon="-1.03159">
        <ele>5.018</ele>
        <time>2020-11-18T08:47:45Z</time>
      </trkpt>
      <trkpt lat="45.61883" lon="-1.03159">
        <ele>5.018</ele>
        <time>2020-11-18T08:47:45Z</time>
      </trkpt>
      <trkpt lat="45.61883" lon="-1.03159">
        <ele>5.018</ele>
        <time>2020-11-18T08:47:45Z</time>
      </trkpt>
      <trkpt lat="45.61883" lon="-1.03159">
        <ele>5.018</ele>
        <time>2020-11-18T08:47:45Z</time>
      </trkpt>
      <trkpt lat="45.61883" lon="-1.03159">
        <ele>5.018</ele>
        <time>2020-11-18T08:47:45Z</time>
      </trkpt>
      <trkpt lat="45.61883" lon="-1.03159">
        <ele>5.018</ele>
        <time>2020-11-18T08:47:45Z</time>
      </trkpt>
      <trkpt lat="45.61883" lon="-1.03159">
        <ele>5.018</ele>
        <time>2020-11-18T08:47:45Z</time>
      </trkpt>
      <trkpt lat="45.61883" lon="-1.03159">
        <ele>5.018</ele>
        <time>2020-11-18T08:47:45Z</time>
      </trkpt>
      <trkpt lat="45.61883" lon="-1.03159">
        <ele>5.018</ele>
        <time>2020-11-18T08:47:45Z</time>
      </trkpt>
      <trkpt lat="45.61883" lon="-1.03159">
        <ele>5.018</ele>
        <time>2020-11-18T08:47:45Z</time>
      </trkpt>
      <trkpt lat="45.61883" lon="-1.03159">
        <ele>5.018</ele>
        <time>2020-11-18T08:47:45Z</time>
      </trkpt>
      <trkpt lat="45.61883" lon="-1.03159">
        <ele>5.018</ele>
        <time>2020-11-18T08:47:45Z</time>
      </trkpt>
      <trkpt lat="45.61883" lon="-1.03159">
        <ele>5.018</ele>
        <time>2020-11-18T08:47:45Z</time>
      </trkpt>
      <trkpt lat="45.61883" lon="-1.03159">
        <ele>5.018</ele>
        <time>2020-11-18T08:47:45Z</time>
      </trkpt>
      <trkpt lat="45.61883" lon="-1.03159">
        <ele>5.018</ele>
        <time>2020-11-18T08:47:45Z</time>
      </trkpt>
      <trkpt lat="45.61883" lon="-1.03159">
        <ele>5.018</ele>
        <time>2020-11-18T08:47:45Z</time>
      </trkpt>
      <trkpt lat="45.61883" lon="-1.03159">
        <ele>5.018</ele>
        <time>2020-11-18T08:47:45Z</time>
      </trkpt>
      <trkpt lat="45.61883" lon="-1.03159">
        <ele>5.018</ele>
        <time>2020-11-18T08:47:45Z</time>
      </trkpt>
      <trkpt lat="45.61883" lon="-1.03159">
        <ele>5.018</ele>
        <time>2020-11-18T08:47:45Z</time>
      </trkpt>
      <trkpt lat="45.61883" lon="-1.03159">
        <ele>5.018</ele>
        <time>2020-11-18T08:47:45Z</time>
      </trkpt>
      <trkpt lat="45.61883" lon="-1.03159">
        <ele>5.018</ele>
        <time>2020-11-18T08:47:45Z</time>
      </trkpt>
      <trkpt lat="45.61883" lon="-1.03159">
        <ele>5.018</ele>
        <time>2020-11-18T08:47:45Z</time>
      </trkpt>
      <trkpt lat="45.61883" lon="-1.03159">
        <ele>5.018</ele>
        <time>2020-11-18T08:47:45Z</time>
      </trkpt>
      <trkpt lat="45.61883" lon="-1.03159">
        <ele>5.018</ele>
        <time>2020-11-18T08:47:45Z</time>
      </trkpt>
      <trkpt lat="45.61883" lon="-1.03159">
        <ele>5.018</ele>
        <time>2020-11-18T08:47:45Z</time>
      </trkpt>
      <trkpt lat="45.61883" lon="-1.03159">
        <ele>5.018</ele>
        <time>2020-11-18T08:47:45Z</time>
      </trkpt>
      <trkpt lat="45.61883" lon="-1.03159">
        <ele>5.018</ele>
        <time>2020-11-18T08:47:45Z</time>
      </trkpt>
      <trkpt lat="45.61883" lon="-1.03159">
        <ele>5.018</ele>
        <time>2020-11-18T08:47:45Z</time>
      </trkpt>
      <trkpt lat="45.61883" lon="-1.03159">
        <ele>5.018</ele>
        <time>2020-11-18T08:47:45Z</time>
      </trkpt>
      <trkpt lat="45.61883" lon="-1.03159">
        <ele>5.018</ele>
        <time>2020-11-18T08:47:45Z</time>
      </trkpt>
      <trkpt lat="45.61883" lon="-1.03159">
        <ele>5.018</ele>
        <time>2020-11-18T08:47:45Z</time>
      </trkpt>
      <trkpt lat="45.61883" lon="-1.03159">
        <ele>5.018</ele>
        <time>2020-11-18T08:47:45Z</time>
      </trkpt>
      <trkpt lat="45.61883" lon="-1.03159">
        <ele>5.018</ele>
        <time>2020-11-18T08:47:45Z</time>
      </trkpt>
      <trkpt lat="45.61883" lon="-1.03159">
        <ele>5.018</ele>
        <time>2020-11-18T08:47:45Z</time>
      </trkpt>
      <trkpt lat="45.61883" lon="-1.03159">
        <ele>5.018</ele>
        <time>2020-11-18T08:47:45Z</time>
      </trkpt>
      <trkpt lat="45.61883" lon="-1.03159">
        <ele>5.018</ele>
        <time>2020-11-18T08:47:45Z</time>
      </trkpt>
      <trkpt lat="45.61883" lon="-1.03159">
        <ele>5.018</ele>
        <time>2020-11-18T08:47:45Z</time>
      </trkpt>
      <trkpt lat="45.61883" lon="-1.03159">
        <ele>5.018</ele>
        <time>2020-11-18T08:47:45Z</time>
      </trkpt>
      <trkpt lat="45.61883" lon="-1.03159">
        <ele>5.018</ele>
        <time>2020-11-18T08:47:45Z</time>
      </trkpt>
      <trkpt lat="45.61883" lon="-1.03159">
        <ele>5.018</ele>
        <time>2020-11-18T08:47:45Z</time>
      </trkpt>
      <trkpt lat="45.61883" lon="-1.03159">
        <ele>5.018</ele>
        <time>2020-11-18T08:47:45Z</time>
      </trkpt>
      <trkpt lat="45.61883" lon="-1.03159">
        <ele>5.018</ele>
        <time>2020-11-18T08:47:45Z</time>
      </trkpt>
      <trkpt lat="45.61883" lon="-1.03159">
        <ele>5.018</ele>
        <time>2020-11-18T08:47:45Z</time>
      </trkpt>
      <trkpt lat="45.61883" lon="-1.03159">
        <ele>5.018</ele>
        <time>2020-11-18T08:47:45Z</time>
      </trkpt>
      <trkpt lat="45.61883" lon="-1.03159">
        <ele>5.018</ele>
        <time>2020-11-18T08:47:45Z</time>
      </trkpt>
      <trkpt lat="45.61883" lon="-1.03159">
        <ele>5.018</ele>
        <time>2020-11-18T08:47:45Z</time>
      </trkpt>
      <trkpt lat="45.61883" lon="-1.03159">
        <ele>5.018</ele>
        <time>2020-11-18T08:47:45Z</time>
      </trkpt>
      <trkpt lat="45.61883" lon="-1.03159">
        <ele>5.018</ele>
        <time>2020-11-18T08:47:45Z</time>
      </trkpt>
      <trkpt lat="45.61883" lon="-1.03159">
        <ele>5.018</ele>
        <time>2020-11-18T08:47:45Z</time>
      </trkpt>
      <trkpt lat="45.61883" lon="-1.03159">
        <ele>5.018</ele>
        <time>2020-11-18T08:47:45Z</time>
      </trkpt>
      <trkpt lat="45.61883" lon="-1.03159">
        <ele>5.018</ele>
        <time>2020-11-18T08:47:45Z</time>
      </trkpt>
      <trkpt lat="45.61883" lon="-1.03159">
        <ele>5.018</ele>
        <time>2020-11-18T08:47:45Z</time>
      </trkpt>
      <trkpt lat="45.61883" lon="-1.03159">
        <ele>5.018</ele>
        <time>2020-11-18T08:47:45Z</time>
      </trkpt>
      <trkpt lat="45.61883" lon="-1.03159">
        <ele>5.018</ele>
        <time>2020-11-18T08:47:45Z</time>
      </trkpt>
      <trkpt lat="45.61883" lon="-1.03159">
        <ele>5.018</ele>
        <time>2020-11-18T08:47:45Z</time>
      </trkpt>
      <trkpt lat="45.61883" lon="-1.03159">
        <ele>5.018</ele>
        <time>2020-11-18T08:47:45Z</time>
      </trkpt>
      <trkpt lat="45.61883" lon="-1.03159">
        <ele>5.018</ele>
        <time>2020-11-18T08:47:45Z</time>
      </trkpt>
      <trkpt lat="45.61883" lon="-1.03159">
        <ele>5.018</ele>
        <time>2020-11-18T08:47:45Z</time>
      </trkpt>
      <trkpt lat="45.61883" lon="-1.03159">
        <ele>5.018</ele>
        <time>2020-11-18T08:47:45Z</time>
      </trkpt>
      <trkpt lat="45.61883" lon="-1.03159">
        <ele>5.018</ele>
        <time>2020-11-18T08:47:45Z</time>
      </trkpt>
      <trkpt lat="45.61883" lon="-1.03159">
        <ele>5.018</ele>
        <time>2020-11-18T08:47:45Z</time>
      </trkpt>
      <trkpt lat="45.61883" lon="-1.03159">
        <ele>5.018</ele>
        <time>2020-11-18T08:47:45Z</time>
      </trkpt>
      <trkpt lat="45.61883" lon="-1.03159">
        <ele>5.018</ele>
        <time>2020-11-18T08:47:45Z</time>
      </trkpt>
      <trkpt lat="45.61883" lon="-1.03159">
        <ele>5.018</ele>
        <time>2020-11-18T08:47:45Z</time>
      </trkpt>
      <trkpt lat="45.61883" lon="-1.03159">
        <ele>5.018</ele>
        <time>2020-11-18T08:47:45Z</time>
      </trkpt>
      <trkpt lat="45.61883" lon="-1.03159">
        <ele>5.018</ele>
        <time>2020-11-18T08:47:45Z</time>
      </trkpt>
      <trkpt lat="45.62031" lon="-1.03514">
        <ele>19.298</ele>
        <time>2017-03-23T16:48:38Z</time>
      </trkpt>
      <trkpt lat="45.62031" lon="-1.03514">
        <ele>19.217</ele>
        <time>2017-03-23T16:48:38Z</time>
      </trkpt>
      <trkpt lat="45.62009" lon="-1.03547">
        <ele>14.408</ele>
        <time>2017-03-23T16:48:58Z</time>
      </trkpt>
      <trkpt lat="45.61937" lon="-1.03557">
        <ele>8.857</ele>
        <time>2017-03-23T16:49:18Z</time>
      </trkpt>
      <trkpt lat="45.6181" lon="-1.03655">
        <ele>6.971</ele>
        <time>2017-03-23T16:49:38Z</time>
      </trkpt>
      <trkpt lat="45.618" lon="-1.03695">
        <ele>5.838</ele>
        <time>2017-03-23T16:49:58Z</time>
      </trkpt>
      <trkpt lat="45.61808" lon="-1.03786">
        <ele>7.691</ele>
        <time>2017-03-23T16:50:18Z</time>
      </trkpt>
      <trkpt lat="45.61804" lon="-1.03958">
        <ele>4.362</ele>
        <time>2017-03-23T16:50:38Z</time>
      </trkpt>
      <trkpt lat="45.61783" lon="-1.03998">
        <ele>4.835</ele>
        <time>2017-03-23T16:50:58Z</time>
      </trkpt>
      <trkpt lat="45.6179" lon="-1.04045">
        <ele>9.511</ele>
        <time>2017-03-23T16:51:18Z</time>
      </trkpt>
      <trkpt lat="45.61758" lon="-1.04099">
        <ele>8.635</ele>
        <time>2017-03-23T16:51:38Z</time>
      </trkpt>
      <trkpt lat="45.61769" lon="-1.04168">
        <ele>5.435</ele>
        <time>2017-03-23T16:51:58Z</time>
      </trkpt>
      <trkpt lat="45.61799" lon="-1.04244">
        <ele>4.386</ele>
        <time>2017-03-23T16:52:18Z</time>
      </trkpt>
      <trkpt lat="45.6185" lon="-1.04266">
        <ele>4.414</ele>
        <time>2017-03-23T16:52:38Z</time>
      </trkpt>
      <trkpt lat="45.61874" lon="-1.04259">
        <ele>4.608</ele>
        <time>2017-03-23T16:52:58Z</time>
      </trkpt>
      <trkpt lat="45.61895" lon="-1.04211">
        <ele>10.239</ele>
        <time>2017-03-23T16:53:18Z</time>
      </trkpt>
      <trkpt lat="45.61965" lon="-1.04205">
        <ele>11.933</ele>
        <time>2017-03-23T16:53:38Z</time>
      </trkpt>
      <trkpt lat="45.62005" lon="-1.042">
        <ele>11.66</ele>
        <time>2017-03-23T16:53:58Z</time>
      </trkpt>
      <trkpt lat="45.62018" lon="-1.04186">
        <ele>12.013</ele>
        <time>2017-03-23T16:54:18Z</time>
      </trkpt>
      <trkpt lat="45.62068" lon="-1.04238">
        <ele>10.614</ele>
        <time>2017-03-23T16:54:38Z</time>
      </trkpt>
      <trkpt lat="45.62064" lon="-1.04259">
        <ele>10.577</ele>
        <time>2017-03-23T16:54:58Z</time>
      </trkpt>
      <trkpt lat="45.62034" lon="-1.04287">
        <ele>8.793</ele>
        <time>2017-03-23T16:55:18Z</time>
      </trkpt>
      <trkpt lat="45.62032" lon="-1.04313">
        <ele>8.627</ele>
        <time>2017-03-23T16:55:38Z</time>
      </trkpt>
      <trkpt lat="45.62068" lon="-1.04389">
        <ele>9.831</ele>
        <time>2017-03-23T16:55:58Z</time>
      </trkpt>
      <trkpt lat="45.62067" lon="-1.04421">
        <ele>8.261</ele>
        <time>2017-03-23T16:56:18Z</time>
      </trkpt>
      <trkpt lat="45.62043" lon="-1.04467">
        <ele>6.507</ele>
        <time>2017-03-23T16:56:38Z</time>
      </trkpt>
      <trkpt lat="45.62056" lon="-1.0453">
        <ele>8.008</ele>
        <time>2017-03-23T16:56:58Z</time>
      </trkpt>
      <trkpt lat="45.62064" lon="-1.04574">
        <ele>8.689</ele>
        <time>2017-03-23T16:57:18Z</time>
      </trkpt>
      <trkpt lat="45.62076" lon="-1.04591">
        <ele>9.193</ele>
        <time>2017-03-23T16:57:38Z</time>
      </trkpt>
      <trkpt lat="45.6211" lon="-1.04603">
        <ele>12.25</ele>
        <time>2017-03-23T16:57:58Z</time>
      </trkpt>
      <trkpt lat="45.62142" lon="-1.04622">
        <ele>10.953</ele>
        <time>2017-03-23T16:58:18Z</time>
      </trkpt>
      <trkpt lat="45.62177" lon="-1.04614">
        <ele>13.164</ele>
        <time>2017-03-23T16:58:38Z</time>
      </trkpt>
      <trkpt lat="45.62193" lon="-1.04622">
        <ele>13.187</ele>
        <time>2017-03-23T16:58:58Z</time>
      </trkpt>
      <trkpt lat="45.62211" lon="-1.04681">
        <ele>9.943</ele>
        <time>2017-03-23T16:59:18Z</time>
      </trkpt>
      <trkpt lat="45.62208" lon="-1.04708">
        <ele>10.037</ele>
        <time>2017-03-23T16:59:38Z</time>
      </trkpt>
      <trkpt lat="45.62135" lon="-1.04825">
        <ele>10.857</ele>
        <time>2017-03-23T16:59:58Z</time>
      </trkpt>
      <trkpt lat="45.6208" lon="-1.04835">
        <ele>7.8</ele>
        <time>2017-03-23T17:00:18Z</time>
      </trkpt>
      <trkpt lat="45.62064" lon="-1.04864">
        <ele>8.22</ele>
        <time>2017-03-23T17:00:38Z</time>
      </trkpt>
      <trkpt lat="45.62065" lon="-1.04898">
        <ele>7.508</ele>
        <time>2017-03-23T17:00:58Z</time>
      </trkpt>
      <trkpt lat="45.62143" lon="-1.05023">
        <ele>7.641</ele>
        <time>2017-03-23T17:01:18Z</time>
      </trkpt>
      <trkpt lat="45.62179" lon="-1.05101">
        <ele>6.585</ele>
        <time>2017-03-23T17:01:38Z</time>
      </trkpt>
      <trkpt lat="45.62227" lon="-1.05178">
        <ele>5.582</ele>
        <time>2017-03-23T17:01:58Z</time>
      </trkpt>
      <trkpt lat="45.62259" lon="-1.05188">
        <ele>6.545</ele>
        <time>2017-03-23T17:02:18Z</time>
      </trkpt>
      <trkpt lat="45.62284" lon="-1.05174">
        <ele>7.966</ele>
        <time>2017-03-23T17:02:38Z</time>
      </trkpt>
      <trkpt lat="45.62313" lon="-1.05128">
        <ele>7.959</ele>
        <time>2017-03-23T17:02:58Z</time>
      </trkpt>
      <trkpt lat="45.62344" lon="-1.05089">
        <ele>8.165</ele>
        <time>2017-03-23T17:03:18Z</time>
      </trkpt>
      <trkpt lat="45.62458" lon="-1.05031">
        <ele>12.279</ele>
        <time>2017-03-23T17:03:38Z</time>
      </trkpt>
      <trkpt lat="45.62492" lon="-1.05038">
        <ele>11.041</ele>
        <time>2017-03-23T17:03:58Z</time>
      </trkpt>
      <trkpt lat="45.62562" lon="-1.04974">
        <ele>19.581</ele>
        <time>2017-03-23T17:04:18Z</time>
      </trkpt>
      <trkpt lat="45.62721" lon="-1.05171">
        <ele>9.609</ele>
        <time>2017-03-23T17:04:38Z</time>
      </trkpt>
      <trkpt lat="45.62729" lon="-1.0522">
        <ele>7.308</ele>
        <time>2017-03-23T17:04:58Z</time>
      </trkpt>
      <trkpt lat="45.62752" lon="-1.05268">
        <ele>6.42</ele>
        <time>2017-03-23T17:05:18Z</time>
      </trkpt>
      <trkpt lat="45.62784" lon="-1.05295">
        <ele>5.544</ele>
        <time>2017-03-23T17:05:38Z</time>
      </trkpt>
      <trkpt lat="45.62829" lon="-1.05299">
        <ele>8.321</ele>
        <time>2017-03-23T17:05:58Z</time>
      </trkpt>
      <trkpt lat="45.62835" lon="-1.0531">
        <ele>9.184</ele>
        <time>2017-03-23T17:06:18Z</time>
      </trkpt>
      <trkpt lat="45.62704" lon="-1.05485">
        <ele>13.045</ele>
        <time>2017-03-23T17:06:38Z</time>
      </trkpt>
      <trkpt lat="45.62688" lon="-1.05535">
        <ele>12.238</ele>
        <time>2017-03-23T17:06:58Z</time>
      </trkpt>
      <trkpt lat="45.626" lon="-1.05607">
        <ele>7.434</ele>
        <time>2017-03-23T17:07:18Z</time>
      </trkpt>
      <trkpt lat="45.6254" lon="-1.05642">
        <ele>4.968</ele>
        <time>2017-03-23T17:07:38Z</time>
      </trkpt>
      <trkpt lat="45.62524" lon="-1.05676">
        <ele>4.215</ele>
        <time>2017-03-23T17:07:58Z</time>
      </trkpt>
      <trkpt lat="45.62536" lon="-1.05721">
        <ele>5.665</ele>
        <time>2017-03-23T17:08:18Z</time>
      </trkpt>
      <trkpt lat="45.62582" lon="-1.05809">
        <ele>5.011</ele>
        <time>2017-03-23T17:08:38Z</time>
      </trkpt>
      <trkpt lat="45.62621" lon="-1.05824">
        <ele>4.808</ele>
        <time>2017-03-23T17:08:58Z</time>
      </trkpt>
      <trkpt lat="45.62708" lon="-1.05836">
        <ele>7.767</ele>
        <time>2017-03-23T17:09:18Z</time>
      </trkpt>
      <trkpt lat="45.62738" lon="-1.05863">
        <ele>9.731</ele>
        <time>2017-03-23T17:09:38Z</time>
      </trkpt>
      <trkpt lat="45.62737" lon="-1.05884">
        <ele>10.058</ele>
        <time>2017-03-23T17:09:58Z</time>
      </trkpt>
      <trkpt lat="45.62715" lon="-1.05896">
        <ele>7.341</ele>
        <time>2017-03-23T17:10:18Z</time>
      </trkpt>
      <trkpt lat="45.6268" lon="-1.05899">
        <ele>3.212</ele>
        <time>2017-03-23T17:10:38Z</time>
      </trkpt>
      <trkpt lat="45.62661" lon="-1.05938">
        <ele>5.615</ele>
        <time>2017-03-23T17:10:58Z</time>
      </trkpt>
      <trkpt lat="45.627" lon="-1.06111">
        <ele>7.081</ele>
        <time>2017-03-23T17:11:18Z</time>
      </trkpt>
      <trkpt lat="45.62772" lon="-1.06221">
        <ele>5.955</ele>
        <time>2017-03-23T17:11:38Z</time>
      </trkpt>
      <trkpt lat="45.62833" lon="-1.06236">
        <ele>7.528</ele>
        <time>2017-03-23T17:11:58Z</time>
      </trkpt>
      <trkpt lat="45.62864" lon="-1.06258">
        <ele>7.789</ele>
        <time>2017-03-23T17:12:18Z</time>
      </trkpt>
      <trkpt lat="45.629" lon="-1.0631">
        <ele>6.917</ele>
        <time>2017-03-23T17:12:38Z</time>
      </trkpt>
      <trkpt lat="45.62953" lon="-1.06368">
        <ele>5.008</ele>
        <time>2017-03-23T17:12:58Z</time>
      </trkpt>
      <trkpt lat="45.63028" lon="-1.06401">
        <ele>8.788</ele>
        <time>2017-03-23T17:13:18Z</time>
      </trkpt>
      <trkpt lat="45.63067" lon="-1.06433">
        <ele>7.182</ele>
        <time>2017-03-23T17:13:38Z</time>
      </trkpt>
      <trkpt lat="45.63112" lon="-1.06427">
        <ele>9.749</ele>
        <time>2017-03-23T17:13:58Z</time>
      </trkpt>
      <trkpt lat="45.63121" lon="-1.06448">
        <ele>9.992</ele>
        <time>2017-03-23T17:14:18Z</time>
      </trkpt>
      <trkpt lat="45.6309" lon="-1.06512">
        <ele>9.053</ele>
        <time>2017-03-23T17:14:38Z</time>
      </trkpt>
      <trkpt lat="45.63045" lon="-1.06565">
        <ele>4.296</ele>
        <time>2017-03-23T17:14:58Z</time>
      </trkpt>
      <trkpt lat="45.63037" lon="-1.06603">
        <ele>4.382</ele>
        <time>2017-03-23T17:15:18Z</time>
      </trkpt>
      <trkpt lat="45.63064" lon="-1.06698">
        <ele>9.616</ele>
        <time>2017-03-23T17:15:38Z</time>
      </trkpt>
      <trkpt lat="45.63085" lon="-1.06732">
        <ele>8.163</ele>
        <time>2017-03-23T17:15:58Z</time>
      </trkpt>
      <trkpt lat="45.63126" lon="-1.06781">
        <ele>9.344</ele>
        <time>2017-03-23T17:16:18Z</time>
      </trkpt>
      <trkpt lat="45.63136" lon="-1.06803">
        <ele>8.818</ele>
        <time>2017-03-23T17:16:38Z</time>
      </trkpt>
      <trkpt lat="45.63181" lon="-1.0685">
        <ele>6.508</ele>
        <time>2017-03-23T17:16:58Z</time>
      </trkpt>
      <trkpt lat="45.63209" lon="-1.069">
        <ele>4.652</ele>
        <time>2017-03-23T17:17:18Z</time>
      </trkpt>
      <trkpt lat="45.63254" lon="-1.06952">
        <ele>6.766</ele>
        <time>2017-03-23T17:17:38Z</time>
      </trkpt>
      <trkpt lat="45.6326" lon="-1.06977">
        <ele>5.453</ele>
        <time>2017-03-23T17:17:58Z</time>
      </trkpt>
      <trkpt lat="45.63298" lon="-1.06999">
        <ele>5.816</ele>
        <time>2017-03-23T17:18:18Z</time>
      </trkpt>
      <trkpt lat="45.63312" lon="-1.07028">
        <ele>4.297</ele>
        <time>2017-03-23T17:18:38Z</time>
      </trkpt>
      <trkpt lat="45.63322" lon="-1.07035">
        <ele>3.93</ele>
        <time>2017-03-23T17:18:58Z</time>
      </trkpt>
      <trkpt lat="45.63387" lon="-1.07013">
        <ele>5.286</ele>
        <time>2017-03-23T17:19:18Z</time>
      </trkpt>
      <trkpt lat="45.63408" lon="-1.06962">
        <ele>8.34</ele>
        <time>2017-03-23T17:19:38Z</time>
      </trkpt>
      <trkpt lat="45.6343" lon="-1.06943">
        <ele>10.145</ele>
        <time>2017-03-23T17:19:58Z</time>
      </trkpt>
      <trkpt lat="45.63468" lon="-1.06944">
        <ele>9.247</ele>
        <time>2017-03-23T17:20:18Z</time>
      </trkpt>
      <trkpt lat="45.63481" lon="-1.06963">
        <ele>8.211</ele>
        <time>2017-03-23T17:20:38Z</time>
      </trkpt>
      <trkpt lat="45.63456" lon="-1.07097">
        <ele>6.508</ele>
        <time>2017-03-23T17:20:58Z</time>
      </trkpt>
      <trkpt lat="45.63456" lon="-1.07129">
        <ele>6.25</ele>
        <time>2017-03-23T17:21:18Z</time>
      </trkpt>
      <trkpt lat="45.63434" lon="-1.07167">
        <ele>4.514</ele>
        <time>2017-03-23T17:21:38Z</time>
      </trkpt>
      <trkpt lat="45.6344" lon="-1.07192">
        <ele>6.381</ele>
        <time>2017-03-23T17:21:58Z</time>
      </trkpt>
      <trkpt lat="45.6347" lon="-1.0721">
        <ele>8.884</ele>
        <time>2017-03-23T17:22:18Z</time>
      </trkpt>
      <trkpt lat="45.63473" lon="-1.07236">
        <ele>9.645</ele>
        <time>2017-03-23T17:22:38Z</time>
      </trkpt>
      <trkpt lat="45.6346" lon="-1.07257">
        <ele>8.498</ele>
        <time>2017-03-23T17:22:58Z</time>
      </trkpt>
      <trkpt lat="45.63443" lon="-1.07302">
        <ele>7.734</ele>
        <time>2017-03-23T17:23:18Z</time>
      </trkpt>
      <trkpt lat="45.6342" lon="-1.07338">
        <ele>4.688</ele>
        <time>2017-03-23T17:23:38Z</time>
      </trkpt>
      <trkpt lat="45.63421" lon="-1.07379">
        <ele>5.573</ele>
        <time>2017-03-23T17:23:58Z</time>
      </trkpt>
      <trkpt lat="45.63429" lon="-1.07411">
        <ele>6.385</ele>
        <time>2017-03-23T17:24:18Z</time>
      </trkpt>
      <trkpt lat="45.63425" lon="-1.07465">
        <ele>5.913</ele>
        <time>2017-03-23T17:24:38Z</time>
      </trkpt>
      <trkpt lat="45.6345" lon="-1.0755">
        <ele>6.508</ele>
        <time>2017-03-23T17:24:58Z</time>
      </trkpt>
      <trkpt lat="45.63496" lon="-1.07628">
        <ele>9.243</ele>
        <time>2017-03-23T17:25:18Z</time>
      </trkpt>
      <trkpt lat="45.63533" lon="-1.0767">
        <ele>8.737</ele>
        <time>2017-03-23T17:25:38Z</time>
      </trkpt>
      <trkpt lat="45.63551" lon="-1.077">
        <ele>5.384</ele>
        <time>2017-03-23T17:25:58Z</time>
      </trkpt>
      <trkpt lat="45.63594" lon="-1.07701">
        <ele>7.557</ele>
        <time>2017-03-23T17:26:18Z</time>
      </trkpt>
      <trkpt lat="45.63639" lon="-1.07691">
        <ele>8.278</ele>
        <time>2017-03-23T17:26:38Z</time>
      </trkpt>
      <trkpt lat="45.63691" lon="-1.07633">
        <ele>9.971</ele>
        <time>2017-03-23T17:26:58Z</time>
      </trkpt>
      <trkpt lat="45.63749" lon="-1.07598">
        <ele>7.637</ele>
        <time>2017-03-23T17:27:18Z</time>
      </trkpt>
      <trkpt lat="45.63791" lon="-1.07498">
        <ele>10.861</ele>
        <time>2017-03-23T17:27:38Z</time>
      </trkpt>
      <trkpt lat="45.63826" lon="-1.07495">
        <ele>8.184</ele>
        <time>2017-03-23T17:27:58Z</time>
      </trkpt>
      <trkpt lat="45.63866" lon="-1.07539">
        <ele>8.207</ele>
        <time>2017-03-23T17:28:18Z</time>
      </trkpt>
      <trkpt lat="45.63859" lon="-1.07572">
        <ele>8.017</ele>
        <time>2017-03-23T17:28:38Z</time>
      </trkpt>
      <trkpt lat="45.63889" lon="-1.0773">
        <ele>12.308</ele>
        <time>2017-03-23T17:28:58Z</time>
      </trkpt>
      <trkpt lat="45.63896" lon="-1.07731">
        <ele>12.914</ele>
        <time>2017-03-23T17:29:18Z</time>
      </trkpt>
      <trkpt lat="45.63903" lon="-1.07766">
        <ele>12.978</ele>
        <time>2017-03-23T17:29:38Z</time>
      </trkpt>
      <trkpt lat="45.63898" lon="-1.07773">
        <ele>12.555</ele>
        <time>2017-03-23T17:29:58Z</time>
      </trkpt>
      <trkpt lat="45.63903" lon="-1.07816">
        <ele>10.448</ele>
        <time>2017-03-23T17:30:18Z</time>
      </trkpt>
      <trkpt lat="45.63902" lon="-1.07891">
        <ele>6.949</ele>
        <time>2017-03-23T17:30:38Z</time>
      </trkpt>
      <trkpt lat="45.63895" lon="-1.07943">
        <ele>5.032</ele>
        <time>2017-03-23T17:30:58Z</time>
      </trkpt>
      <trkpt lat="45.63875" lon="-1.0797">
        <ele>6.898</ele>
        <time>2017-03-23T17:31:18Z</time>
      </trkpt>
      <trkpt lat="45.63828" lon="-1.07994">
        <ele>11.442</ele>
        <time>2017-03-23T17:31:38Z</time>
      </trkpt>
      <trkpt lat="45.63817" lon="-1.07979">
        <ele>9.729</ele>
        <time>2017-03-23T17:31:58Z</time>
      </trkpt>
      <trkpt lat="45.6378" lon="-1.0797">
        <ele>8.8</ele>
        <time>2017-03-23T17:32:18Z</time>
      </trkpt>
      <trkpt lat="45.63763" lon="-1.07983">
        <ele>8.92</ele>
        <time>2017-03-23T17:32:38Z</time>
      </trkpt>
      <trkpt lat="45.63677" lon="-1.08128">
        <ele>4.708</ele>
        <time>2017-03-23T17:32:58Z</time>
      </trkpt>
      <trkpt lat="45.63688" lon="-1.08194">
        <ele>6.548</ele>
        <time>2017-03-23T17:33:18Z</time>
      </trkpt>
      <trkpt lat="45.6369" lon="-1.08222">
        <ele>6.532</ele>
        <time>2017-03-23T17:33:38Z</time>
      </trkpt>
      <trkpt lat="45.63748" lon="-1.08396">
        <ele>6.529</ele>
        <time>2017-03-23T17:33:58Z</time>
      </trkpt>
      <trkpt lat="45.63886" lon="-1.08726">
        <ele>5.522</ele>
        <time>2017-03-23T17:34:18Z</time>
      </trkpt>
      <trkpt lat="45.64043" lon="-1.08603">
        <ele>10.653</ele>
        <time>2017-03-23T17:34:38Z</time>
      </trkpt>
      <trkpt lat="45.64093" lon="-1.08625">
        <ele>7.376</ele>
        <time>2017-03-23T17:34:58Z</time>
      </trkpt>
      <trkpt lat="45.64146" lon="-1.08673">
        <ele>6.732</ele>
        <time>2017-03-23T17:35:18Z</time>
      </trkpt>
      <trkpt lat="45.64253" lon="-1.08826">
        <ele>8.826</ele>
        <time>2017-03-23T17:35:38Z</time>
      </trkpt>
      <trkpt lat="45.64208" lon="-1.0889">
        <ele>9.024</ele>
        <time>2017-03-23T17:35:58Z</time>
      </trkpt>
      <trkpt lat="45.6415" lon="-1.08962">
        <ele>10.704</ele>
        <time>2017-03-23T17:36:18Z</time>
      </trkpt>
      <trkpt lat="45.64057" lon="-1.0913">
        <ele>13.414</ele>
        <time>2017-03-23T17:36:38Z</time>
      </trkpt>
      <trkpt lat="45.64066" lon="-1.09158">
        <ele>15.108</ele>
        <time>2017-03-23T17:36:58Z</time>
      </trkpt>
      <trkpt lat="45.64004" lon="-1.09213">
        <ele>8.948</ele>
        <time>2017-03-23T17:37:18Z</time>
      </trkpt>
      <trkpt lat="45.64018" lon="-1.09335">
        <ele>9.372</ele>
        <time>2017-03-23T17:37:38Z</time>
      </trkpt>
      <trkpt lat="45.64029" lon="-1.09362">
        <ele>12.259</ele>
        <time>2017-03-23T17:37:58Z</time>
      </trkpt>
      <trkpt lat="45.64017" lon="-1.09435">
        <ele>13.022</ele>
        <time>2017-03-23T17:38:18Z</time>
      </trkpt>
      <trkpt lat="45.64006" lon="-1.09452">
        <ele>12.733</ele>
        <time>2017-03-23T17:38:38Z</time>
      </trkpt>
      <trkpt lat="45.63995" lon="-1.09447">
        <ele>10.316</ele>
        <time>2017-03-23T17:38:58Z</time>
      </trkpt>
      <trkpt lat="45.63995" lon="-1.09474">
        <ele>12.082</ele>
        <time>2017-03-23T17:39:18Z</time>
      </trkpt>
      <trkpt lat="45.64004" lon="-1.0949">
        <ele>14.346</ele>
        <time>2017-03-23T17:39:38Z</time>
      </trkpt>
      <trkpt lat="45.6401" lon="-1.09523">
        <ele>14.698</ele>
        <time>2017-03-23T17:39:58Z</time>
      </trkpt>
      <trkpt lat="45.6404" lon="-1.09584">
        <ele>14.615</ele>
        <time>2017-03-23T17:40:18Z</time>
      </trkpt>
      <trkpt lat="45.64077" lon="-1.09656">
        <ele>15.426</ele>
        <time>2017-03-23T17:40:38Z</time>
      </trkpt>
      <trkpt lat="45.64097" lon="-1.09678">
        <ele>16.508</ele>
        <time>2017-03-23T17:40:58Z</time>
      </trkpt>
      <trkpt lat="45.64095" lon="-1.09708">
        <ele>10.245</ele>
        <time>2017-03-23T17:41:18Z</time>
      </trkpt>
      <trkpt lat="45.64113" lon="-1.09734">
        <ele>7.489</ele>
        <time>2017-03-23T17:41:38Z</time>
      </trkpt>
      <trkpt lat="45.64129" lon="-1.0973">
        <ele>9.076</ele>
        <time>2017-03-23T17:41:58Z</time>
      </trkpt>
      <trkpt lat="45.64154" lon="-1.09712">
        <ele>12.539</ele>
        <time>2017-03-23T17:42:18Z</time>
      </trkpt>
      <trkpt lat="45.64197" lon="-1.09736">
        <ele>9.77</ele>
        <time>2017-03-23T17:42:38Z</time>
      </trkpt>
      <trkpt lat="45.64294" lon="-1.0981">
        <ele>10.643</ele>
        <time>2017-03-23T17:42:58Z</time>
      </trkpt>
      <trkpt lat="45.64439" lon="-1.09956">
        <ele>12.129</ele>
        <time>2017-03-23T17:43:18Z</time>
      </trkpt>
      <trkpt lat="45.64507" lon="-1.10069">
        <ele>12.223</ele>
        <time>2017-03-23T17:43:38Z</time>
      </trkpt>
      <trkpt lat="45.64541" lon="-1.1017">
        <ele>13.545</ele>
        <time>2017-03-23T17:43:58Z</time>
      </trkpt>
      <trkpt lat="45.64558" lon="-1.10325">
        <ele>8.347</ele>
        <time>2017-03-23T17:44:18Z</time>
      </trkpt>
      <trkpt lat="45.64552" lon="-1.10373">
        <ele>10.311</ele>
        <time>2017-03-23T17:44:38Z</time>
      </trkpt>
      <trkpt lat="45.64529" lon="-1.10413">
        <ele>9.908</ele>
        <time>2017-03-23T17:44:58Z</time>
      </trkpt>
      <trkpt lat="45.64498" lon="-1.10431">
        <ele>9.31</ele>
        <time>2017-03-23T17:45:18Z</time>
      </trkpt>
      <trkpt lat="45.64473" lon="-1.10446">
        <ele>6.124</ele>
        <time>2017-03-23T17:45:38Z</time>
      </trkpt>
      <trkpt lat="45.64468" lon="-1.10473">
        <ele>5.781</ele>
        <time>2017-03-23T17:45:58Z</time>
      </trkpt>
      <trkpt lat="45.6448" lon="-1.10603">
        <ele>7.254</ele>
        <time>2017-03-23T17:46:18Z</time>
      </trkpt>
      <trkpt lat="45.6451" lon="-1.10688">
        <ele>7.125</ele>
        <time>2017-03-23T17:46:38Z</time>
      </trkpt>
      <trkpt lat="45.64534" lon="-1.10734">
        <ele>8.788</ele>
        <time>2017-03-23T17:46:58Z</time>
      </trkpt>
      <trkpt lat="45.64554" lon="-1.10815">
        <ele>8.024</ele>
        <time>2017-03-23T17:47:18Z</time>
      </trkpt>
      <trkpt lat="45.64596" lon="-1.10897">
        <ele>11.238</ele>
        <time>2017-03-23T17:47:38Z</time>
      </trkpt>
      <trkpt lat="45.64594" lon="-1.10912">
        <ele>9.187</ele>
        <time>2017-03-23T17:47:58Z</time>
      </trkpt>
      <trkpt lat="45.64621" lon="-1.10943">
        <ele>8.042</ele>
        <time>2017-03-23T17:48:18Z</time>
      </trkpt>
      <trkpt lat="45.64626" lon="-1.10955">
        <ele>6.626</ele>
        <time>2017-03-23T17:48:38Z</time>
      </trkpt>
      <trkpt lat="45.64652" lon="-1.10986">
        <ele>4.508</ele>
        <time>2017-03-23T17:48:58Z</time>
      </trkpt>
      <trkpt lat="45.6467" lon="-1.10974">
        <ele>6.944</ele>
        <time>2017-03-23T17:49:18Z</time>
      </trkpt>
      <trkpt lat="45.64708" lon="-1.10982">
        <ele>8.368</ele>
        <time>2017-03-23T17:49:38Z</time>
      </trkpt>
      <trkpt lat="45.64728" lon="-1.10997">
        <ele>8.645</ele>
        <time>2017-03-23T17:49:58Z</time>
      </trkpt>
      <trkpt lat="45.64743" lon="-1.10998">
        <ele>9.628</ele>
        <time>2017-03-23T17:50:18Z</time>
      </trkpt>
      <trkpt lat="45.64746" lon="-1.11017">
        <ele>9.049</ele>
        <time>2017-03-23T17:50:38Z</time>
      </trkpt>
      <trkpt lat="45.64706" lon="-1.11182">
        <ele>4.622</ele>
        <time>2017-03-23T17:50:58Z</time>
      </trkpt>
      <trkpt lat="45.64701" lon="-1.11255">
        <ele>3.778</ele>
        <time>2017-03-23T17:51:18Z</time>
      </trkpt>
      <trkpt lat="45.64694" lon="-1.11298">
        <ele>3.062</ele>
        <time>2017-03-23T17:51:38Z</time>
      </trkpt>
      <trkpt lat="45.64693" lon="-1.1139">
        <ele>3.997</ele>
        <time>2017-03-23T17:51:58Z</time>
      </trkpt>
      <trkpt lat="45.64671" lon="-1.11451">
        <ele>2.523</ele>
        <time>2017-03-23T17:52:18Z</time>
      </trkpt>
      <trkpt lat="45.64678" lon="-1.11486">
        <ele>4.125</ele>
        <time>2017-03-23T17:52:38Z</time>
      </trkpt>
      <trkpt lat="45.64714" lon="-1.11522">
        <ele>6.408</ele>
        <time>2017-03-23T17:52:58Z</time>
      </trkpt>
      <trkpt lat="45.64745" lon="-1.11525">
        <ele>7.985</ele>
        <time>2017-03-23T17:53:18Z</time>
      </trkpt>
      <trkpt lat="45.64773" lon="-1.11545">
        <ele>8.489</ele>
        <time>2017-03-23T17:53:38Z</time>
      </trkpt>
      <trkpt lat="45.64841" lon="-1.1158">
        <ele>11.436</ele>
        <time>2017-03-23T17:53:58Z</time>
      </trkpt>
      <trkpt lat="45.65086" lon="-1.12126">
        <ele>8.919</ele>
        <time>2017-03-23T17:54:18Z</time>
      </trkpt>
      <trkpt lat="45.65134" lon="-1.12247">
        <ele>7.59</ele>
        <time>2017-03-23T17:54:38Z</time>
      </trkpt>
      <trkpt lat="45.65177" lon="-1.12394">
        <ele>5.743</ele>
        <time>2017-03-23T17:54:58Z</time>
      </trkpt>
      <trkpt lat="45.65198" lon="-1.12415">
        <ele>4.699</ele>
        <time>2017-03-23T17:55:18Z</time>
      </trkpt>
      <trkpt lat="45.65243" lon="-1.12398">
        <ele>9.043</ele>
        <time>2017-03-23T17:55:38Z</time>
      </trkpt>
      <trkpt lat="45.65316" lon="-1.12411">
        <ele>9.445</ele>
        <time>2017-03-23T17:55:58Z</time>
      </trkpt>
      <trkpt lat="45.6551" lon="-1.12735">
        <ele>1.047</ele>
        <time>2017-03-23T17:56:18Z</time>
      </trkpt>
      <trkpt lat="45.6571" lon="-1.13069">
        <ele>0.011</ele>
        <time>2017-03-23T17:56:38Z</time>
      </trkpt>
      <trkpt lat="45.65893" lon="-1.13369">
        <ele>1.508</ele>
        <time>2017-03-23T17:56:58Z</time>
      </trkpt>
      <trkpt lat="45.66047" lon="-1.13636">
        <ele>6.88</ele>
        <time>2017-03-23T17:57:18Z</time>
      </trkpt>
      <trkpt lat="45.66127" lon="-1.13766">
        <ele>4.864</ele>
        <time>2017-03-23T17:57:38Z</time>
      </trkpt>
      <trkpt lat="45.66158" lon="-1.13735">
        <ele>10.051</ele>
        <time>2017-03-23T17:57:58Z</time>
      </trkpt>
      <trkpt lat="45.66196" lon="-1.13677">
        <ele>15.164</ele>
        <time>2017-03-23T17:58:18Z</time>
      </trkpt>
      <trkpt lat="45.66194" lon="-1.13435">
        <ele>12.035</ele>
        <time>2017-03-23T17:58:38Z</time>
      </trkpt>
      <trkpt lat="45.66234" lon="-1.13403">
        <ele>12.628</ele>
        <time>2017-03-23T17:58:58Z</time>
      </trkpt>
      <trkpt lat="45.66253" lon="-1.13401">
        <ele>11.994</ele>
        <time>2017-03-23T17:59:18Z</time>
      </trkpt>
      <trkpt lat="45.66283" lon="-1.13373">
        <ele>11.048</ele>
        <time>2017-03-23T17:59:38Z</time>
      </trkpt>
      <trkpt lat="45.66302" lon="-1.13339">
        <ele>11.142</ele>
        <time>2017-03-23T17:59:58Z</time>
      </trkpt>
      <trkpt lat="45.66277" lon="-1.13289">
        <ele>14.022</ele>
        <time>2017-03-23T18:00:18Z</time>
      </trkpt>
      <trkpt lat="45.66273" lon="-1.13225">
        <ele>14.214</ele>
        <time>2017-03-23T18:00:38Z</time>
      </trkpt>
      <trkpt lat="45.66242" lon="-1.13084">
        <ele>16.408</ele>
        <time>2017-03-23T18:00:58Z</time>
      </trkpt>
      <trkpt lat="45.66243" lon="-1.13053">
        <ele>16.14</ele>
        <time>2017-03-23T18:01:18Z</time>
      </trkpt>
      <trkpt lat="45.66253" lon="-1.13023">
        <ele>17.164</ele>
        <time>2017-03-23T18:01:38Z</time>
      </trkpt>
      <trkpt lat="45.66329" lon="-1.12893">
        <ele>12.011</ele>
        <time>2017-03-23T18:01:58Z</time>
      </trkpt>
      <trkpt lat="45.66349" lon="-1.12848">
        <ele>13.924</ele>
        <time>2017-03-23T18:02:18Z</time>
      </trkpt>
      <trkpt lat="45.66383" lon="-1.12805">
        <ele>14.625</ele>
        <time>2017-03-23T18:02:38Z</time>
      </trkpt>
      <trkpt lat="45.66392" lon="-1.1277">
        <ele>13.758</ele>
        <time>2017-03-23T18:02:58Z</time>
      </trkpt>
      <trkpt lat="45.66449" lon="-1.12639">
        <ele>15.014</ele>
        <time>2017-03-23T18:03:18Z</time>
      </trkpt>
      <trkpt lat="45.66557" lon="-1.12571">
        <ele>20.788</ele>
        <time>2017-03-23T18:03:38Z</time>
      </trkpt>
      <trkpt lat="45.66591" lon="-1.12537">
        <ele>23.351</ele>
        <time>2017-03-23T18:03:58Z</time>
      </trkpt>
      <trkpt lat="45.66619" lon="-1.12453">
        <ele>22.301</ele>
        <time>2017-03-23T18:04:18Z</time>
      </trkpt>
      <trkpt lat="45.66682" lon="-1.12533">
        <ele>19.511</ele>
        <time>2017-03-23T18:04:38Z</time>
      </trkpt>
      <trkpt lat="45.66729" lon="-1.12471">
        <ele>12.608</ele>
        <time>2017-03-23T18:04:58Z</time>
      </trkpt>
      <trkpt lat="45.66762" lon="-1.12495">
        <ele>9.741</ele>
        <time>2017-03-23T18:05:18Z</time>
      </trkpt>
      <trkpt lat="45.66828" lon="-1.12579">
        <ele>8.035</ele>
        <time>2017-03-23T18:05:38Z</time>
      </trkpt>
      <trkpt lat="45.66851" lon="-1.12625">
        <ele>8.022</ele>
        <time>2017-03-23T18:05:58Z</time>
      </trkpt>
      <trkpt lat="45.66965" lon="-1.12706">
        <ele>10.375</ele>
        <time>2017-03-23T18:06:18Z</time>
      </trkpt>
      <trkpt lat="45.67007" lon="-1.12634">
        <ele>12.516</ele>
        <time>2017-03-23T18:06:38Z</time>
      </trkpt>
      <trkpt lat="45.67055" lon="-1.12579">
        <ele>13.039</ele>
        <time>2017-03-23T18:06:58Z</time>
      </trkpt>
      <trkpt lat="45.6708" lon="-1.1239">
        <ele>11.945</ele>
        <time>2020-11-18T10:07:05Z</time>
      </trkpt>
      <trkpt lat="45.67124" lon="-1.12328">
        <ele>12.269</ele>
        <time>2020-11-18T10:07:25Z</time>
      </trkpt>
      <trkpt lat="45.67086" lon="-1.12504">
        <ele>10.932</ele>
        <time>2020-11-18T10:07:45Z</time>
      </trkpt>
      <trkpt lat="45.67113" lon="-1.12584">
        <ele>10.092</ele>
        <time>2017-03-23T18:07:58Z</time>
      </trkpt>
      <trkpt lat="45.67134" lon="-1.12599">
        <ele>10.611</ele>
        <time>2017-03-23T18:08:18Z</time>
      </trkpt>
      <trkpt lat="45.67201" lon="-1.1259">
        <ele>10.308</ele>
        <time>2017-03-23T18:08:38Z</time>
      </trkpt>
      <trkpt lat="45.67239" lon="-1.12618">
        <ele>11.649</ele>
        <time>2017-03-23T18:08:58Z</time>
      </trkpt>
      <trkpt lat="45.67293" lon="-1.12633">
        <ele>9.383</ele>
        <time>2017-03-23T18:09:18Z</time>
      </trkpt>
      <trkpt lat="45.67504" lon="-1.12821">
        <ele>13.02</ele>
        <time>2017-03-23T18:09:38Z</time>
      </trkpt>
      <trkpt lat="45.67644" lon="-1.12955">
        <ele>17.813</ele>
        <time>2017-03-23T18:09:58Z</time>
      </trkpt>
      <trkpt lat="45.67639" lon="-1.12978">
        <ele>17.094</ele>
        <time>2017-03-23T18:10:18Z</time>
      </trkpt>
      <trkpt lat="45.67645" lon="-1.13004">
        <ele>17.267</ele>
        <time>2017-03-23T18:10:38Z</time>
      </trkpt>
      <trkpt lat="45.67637" lon="-1.13042">
        <ele>16.533</ele>
        <time>2017-03-23T18:10:58Z</time>
      </trkpt>
      <trkpt lat="45.67637" lon="-1.13107">
        <ele>15.277</ele>
        <time>2017-03-23T18:11:18Z</time>
      </trkpt>
      <trkpt lat="45.67622" lon="-1.13216">
        <ele>17.458</ele>
        <time>2017-03-23T18:11:38Z</time>
      </trkpt>
      <trkpt lat="45.67626" lon="-1.13254">
        <ele>17.552</ele>
        <time>2017-03-23T18:11:58Z</time>
      </trkpt>
      <trkpt lat="45.67664" lon="-1.13342">
        <ele>17.417</ele>
        <time>2017-03-23T18:12:18Z</time>
      </trkpt>
      <trkpt lat="45.67744" lon="-1.13422">
        <ele>17.208</ele>
        <time>2017-03-23T18:12:38Z</time>
      </trkpt>
      <trkpt lat="45.67877" lon="-1.13432">
        <ele>19.181</ele>
        <time>2017-03-23T18:12:58Z</time>
      </trkpt>
      <trkpt lat="45.67888" lon="-1.13444">
        <ele>19.975</ele>
        <time>2017-03-23T18:13:18Z</time>
      </trkpt>
      <trkpt lat="45.67908" lon="-1.13447">
        <ele>21.422</ele>
        <time>2017-03-23T18:13:38Z</time>
      </trkpt>
      <trkpt lat="45.67928" lon="-1.1347">
        <ele>23.765</ele>
        <time>2017-03-23T18:13:58Z</time>
      </trkpt>
      <trkpt lat="45.67958" lon="-1.13601">
        <ele>16.776</ele>
        <time>2017-03-23T18:14:18Z</time>
      </trkpt>
      <trkpt lat="45.67972" lon="-1.13673">
        <ele>12.019</ele>
        <time>2017-03-23T18:14:38Z</time>
      </trkpt>
      <trkpt lat="45.68004" lon="-1.13795">
        <ele>15.215</ele>
        <time>2017-03-23T18:14:58Z</time>
      </trkpt>
      <trkpt lat="45.68003" lon="-1.13856">
        <ele>18.759</ele>
        <time>2017-03-23T18:15:18Z</time>
      </trkpt>
      <trkpt lat="45.68013" lon="-1.13907">
        <ele>18.595</ele>
        <time>2017-03-23T18:15:38Z</time>
      </trkpt>
      <trkpt lat="45.68018" lon="-1.14103">
        <ele>24.949</ele>
        <time>2017-03-23T18:15:58Z</time>
      </trkpt>
      <trkpt lat="45.68039" lon="-1.14095">
        <ele>24.423</ele>
        <time>2017-03-23T18:16:18Z</time>
      </trkpt>
      <trkpt lat="45.68095" lon="-1.14108">
        <ele>20.808</ele>
        <time>2017-03-23T18:16:38Z</time>
      </trkpt>
      <trkpt lat="45.6814" lon="-1.14105">
        <ele>19.745</ele>
        <time>2017-03-23T18:16:58Z</time>
      </trkpt>
      <trkpt lat="45.68191" lon="-1.14167">
        <ele>21.259</ele>
        <time>2017-03-23T18:17:18Z</time>
      </trkpt>
      <trkpt lat="45.68212" lon="-1.14201">
        <ele>22.136</ele>
        <time>2017-03-23T18:17:38Z</time>
      </trkpt>
      <trkpt lat="45.68235" lon="-1.14223">
        <ele>21.939</ele>
        <time>2017-03-23T18:17:58Z</time>
      </trkpt>
      <trkpt lat="45.68264" lon="-1.14229">
        <ele>22.11</ele>
        <time>2017-03-23T18:18:18Z</time>
      </trkpt>
      <trkpt lat="45.68302" lon="-1.14281">
        <ele>24.033</ele>
        <time>2017-03-23T18:18:38Z</time>
      </trkpt>
      <trkpt lat="45.68348" lon="-1.14325">
        <ele>21.969</ele>
        <time>2017-03-23T18:18:58Z</time>
      </trkpt>
      <trkpt lat="45.6837" lon="-1.1436">
        <ele>20.753</ele>
        <time>2017-03-23T18:19:18Z</time>
      </trkpt>
      <trkpt lat="45.68414" lon="-1.14375">
        <ele>18.266</ele>
        <time>2017-03-23T18:19:38Z</time>
      </trkpt>
      <trkpt lat="45.68456" lon="-1.14417">
        <ele>14.029</ele>
        <time>2017-03-23T18:19:58Z</time>
      </trkpt>
      <trkpt lat="45.6855" lon="-1.14397">
        <ele>14.221</ele>
        <time>2017-03-23T18:20:18Z</time>
      </trkpt>
      <trkpt lat="45.68589" lon="-1.14339">
        <ele>15.408</ele>
        <time>2017-03-23T18:20:38Z</time>
      </trkpt>
      <trkpt lat="45.68607" lon="-1.14325">
        <ele>17.082</ele>
        <time>2017-03-23T18:20:58Z</time>
      </trkpt>
      <trkpt lat="45.68633" lon="-1.14303">
        <ele>18.876</ele>
        <time>2017-03-23T18:21:18Z</time>
      </trkpt>
      <trkpt lat="45.68661" lon="-1.14296">
        <ele>17.953</ele>
        <time>2017-03-23T18:21:38Z</time>
      </trkpt>
      <trkpt lat="45.68683" lon="-1.14298">
        <ele>17.066</ele>
        <time>2017-03-23T18:21:58Z</time>
      </trkpt>
      <trkpt lat="45.68703" lon="-1.14312">
        <ele>17.697</ele>
        <time>2017-03-23T18:22:18Z</time>
      </trkpt>
      <trkpt lat="45.68731" lon="-1.14314">
        <ele>16.42</ele>
        <time>2017-03-23T18:22:38Z</time>
      </trkpt>
      <trkpt lat="45.68765" lon="-1.14359">
        <ele>17.736</ele>
        <time>2017-03-23T18:22:58Z</time>
      </trkpt>
      <trkpt lat="45.68784" lon="-1.14408">
        <ele>21.02</ele>
        <time>2017-03-23T18:23:18Z</time>
      </trkpt>
      <trkpt lat="45.68816" lon="-1.14429">
        <ele>18.172</ele>
        <time>2017-03-23T18:23:38Z</time>
      </trkpt>
      <trkpt lat="45.68864" lon="-1.14454">
        <ele>15.913</ele>
        <time>2017-03-23T18:23:58Z</time>
      </trkpt>
      <trkpt lat="45.68907" lon="-1.14439">
        <ele>14.314</ele>
        <time>2017-03-23T18:24:18Z</time>
      </trkpt>
      <trkpt lat="45.68926" lon="-1.14451">
        <ele>13.208</ele>
        <time>2017-03-23T18:24:38Z</time>
      </trkpt>
      <trkpt lat="45.68948" lon="-1.14484">
        <ele>12.093</ele>
        <time>2017-03-23T18:24:58Z</time>
      </trkpt>
      <trkpt lat="45.68998" lon="-1.14535">
        <ele>14.467</ele>
        <time>2017-03-23T18:25:18Z</time>
      </trkpt>
      <trkpt lat="45.69052" lon="-1.14571">
        <ele>11.464</ele>
        <time>2017-03-23T18:25:38Z</time>
      </trkpt>
      <trkpt lat="45.69067" lon="-1.14599">
        <ele>10.477</ele>
        <time>2017-03-23T18:25:58Z</time>
      </trkpt>
      <trkpt lat="45.69068" lon="-1.14632">
        <ele>11.388</ele>
        <time>2017-03-23T18:26:18Z</time>
      </trkpt>
      <trkpt lat="45.69079" lon="-1.14707">
        <ele>13.641</ele>
        <time>2017-03-23T18:26:38Z</time>
      </trkpt>
      <trkpt lat="45.69123" lon="-1.14752">
        <ele>12.797</ele>
        <time>2017-03-23T18:26:58Z</time>
      </trkpt>
      <trkpt lat="45.69173" lon="-1.14785">
        <ele>12.061</ele>
        <time>2017-03-23T18:27:18Z</time>
      </trkpt>
      <trkpt lat="45.69197" lon="-1.14815">
        <ele>11.268</ele>
        <time>2017-03-23T18:27:38Z</time>
      </trkpt>
      <trkpt lat="45.69209" lon="-1.1485">
        <ele>10.742</ele>
        <time>2017-03-23T18:27:58Z</time>
      </trkpt>
      <trkpt lat="45.69225" lon="-1.14853">
        <ele>10.026</ele>
        <time>2017-03-23T18:28:18Z</time>
      </trkpt>
      <trkpt lat="45.69227" lon="-1.14866">
        <ele>10.008</ele>
        <time>2017-03-23T18:28:38Z</time>
      </trkpt>
      <trkpt lat="45.69258" lon="-1.1494">
        <ele>13.422</ele>
        <time>2017-03-23T18:28:58Z</time>
      </trkpt>
      <trkpt lat="45.6928" lon="-1.14959">
        <ele>14.946</ele>
        <time>2017-03-23T18:29:18Z</time>
      </trkpt>
      <trkpt lat="45.6931" lon="-1.14958">
        <ele>13.723</ele>
        <time>2017-03-23T18:29:38Z</time>
      </trkpt>
      <trkpt lat="45.69342" lon="-1.14954">
        <ele>11.726</ele>
        <time>2017-03-23T18:29:58Z</time>
      </trkpt>
      <trkpt lat="45.69363" lon="-1.14982">
        <ele>10.797</ele>
        <time>2017-03-23T18:30:18Z</time>
      </trkpt>
      <trkpt lat="45.69374" lon="-1.15064">
        <ele>12.25</ele>
        <time>2017-03-23T18:30:38Z</time>
      </trkpt>
      <trkpt lat="45.69393" lon="-1.15104">
        <ele>15.196</ele>
        <time>2017-03-23T18:30:58Z</time>
      </trkpt>
      <trkpt lat="45.69443" lon="-1.14868">
        <ele>18.34</ele>
        <time>2017-03-23T18:31:18Z</time>
      </trkpt>
      <trkpt lat="45.69607" lon="-1.14816">
        <ele>13.071</ele>
        <time>2017-03-23T18:31:38Z</time>
      </trkpt>
      <trkpt lat="45.6971" lon="-1.14789">
        <ele>12.741</ele>
        <time>2017-03-23T18:31:58Z</time>
      </trkpt>
      <trkpt lat="45.69909" lon="-1.14721">
        <ele>11.015</ele>
        <time>2017-03-23T18:32:18Z</time>
      </trkpt>
      <trkpt lat="45.70022" lon="-1.14687">
        <ele>6.108</ele>
        <time>2017-03-23T18:32:38Z</time>
      </trkpt>
      <trkpt lat="45.70004" lon="-1.14524">
        <ele>6.973</ele>
        <time>2017-03-23T18:32:58Z</time>
      </trkpt>
      <trkpt lat="45.7022" lon="-1.14464">
        <ele>10.627</ele>
        <time>2017-03-23T18:33:18Z</time>
      </trkpt>
      <trkpt lat="45.70548" lon="-1.14368">
        <ele>6.514</ele>
        <time>2017-03-23T18:33:38Z</time>
      </trkpt>
      <trkpt lat="45.70561" lon="-1.14345">
        <ele>6.147</ele>
        <time>2017-03-23T18:33:58Z</time>
      </trkpt>
      <trkpt lat="45.7056" lon="-1.14303">
        <ele>6.888</ele>
        <time>2017-03-23T18:34:18Z</time>
      </trkpt>
      <trkpt lat="45.70551" lon="-1.14262">
        <ele>7.721</ele>
        <time>2017-03-23T18:34:38Z</time>
      </trkpt>
      <trkpt lat="45.7057" lon="-1.14256">
        <ele>6.977</ele>
        <time>2017-03-23T18:34:58Z</time>
      </trkpt>
      <trkpt lat="45.70607" lon="-1.14279">
        <ele>4.381</ele>
        <time>2017-03-23T18:35:18Z</time>
      </trkpt>
      <trkpt lat="45.70636" lon="-1.14278">
        <ele>3.131</ele>
        <time>2017-03-23T18:35:38Z</time>
      </trkpt>
      <trkpt lat="45.70637" lon="-1.14506">
        <ele>6.161</ele>
        <time>2017-03-23T18:35:58Z</time>
      </trkpt>
      <trkpt lat="45.70691" lon="-1.14755">
        <ele>8.007</ele>
        <time>2017-03-23T18:36:18Z</time>
      </trkpt>
      <trkpt lat="45.70718" lon="-1.1538">
        <ele>6.208</ele>
        <time>2017-03-23T18:36:38Z</time>
      </trkpt>
      <trkpt lat="45.70805" lon="-1.15514">
        <ele>5.549</ele>
        <time>2017-03-23T18:36:58Z</time>
      </trkpt>
      <trkpt lat="45.70967" lon="-1.1572">
        <ele>7.723</ele>
        <time>2017-03-23T18:37:18Z</time>
      </trkpt>
      <trkpt lat="45.71078" lon="-1.15849">
        <ele>10.95</ele>
        <time>2017-03-23T18:37:38Z</time>
      </trkpt>
      <trkpt lat="45.71106" lon="-1.15904">
        <ele>11.643</ele>
        <time>2017-03-23T18:37:58Z</time>
      </trkpt>
      <trkpt lat="45.71185" lon="-1.16119">
        <ele>13.034</ele>
        <time>2017-03-23T18:38:18Z</time>
      </trkpt>
      <trkpt lat="45.71233" lon="-1.16076">
        <ele>6.137</ele>
        <time>2017-03-23T18:38:38Z</time>
      </trkpt>
      <trkpt lat="45.71307" lon="-1.16194">
        <ele>9.993</ele>
        <time>2017-03-23T18:38:58Z</time>
      </trkpt>
      <trkpt lat="45.71305" lon="-1.1647">
        <ele>11.187</ele>
        <time>2017-03-23T18:39:18Z</time>
      </trkpt>
      <trkpt lat="45.71358" lon="-1.16504">
        <ele>10.172</ele>
        <time>2017-03-23T18:39:38Z</time>
      </trkpt>
      <trkpt lat="45.7138" lon="-1.16511">
        <ele>9.113</ele>
        <time>2017-03-23T18:39:58Z</time>
      </trkpt>
      <trkpt lat="45.7141" lon="-1.16556">
        <ele>8.214</ele>
        <time>2017-03-23T18:40:18Z</time>
      </trkpt>
      <trkpt lat="45.71386" lon="-1.16625">
        <ele>10.508</ele>
        <time>2017-03-23T18:40:38Z</time>
      </trkpt>
      <trkpt lat="45.71373" lon="-1.16698">
        <ele>12.013</ele>
        <time>2017-03-23T18:40:58Z</time>
      </trkpt>
      <trkpt lat="45.71378" lon="-1.16806">
        <ele>14.227</ele>
        <time>2017-03-23T18:41:18Z</time>
      </trkpt>
      <trkpt lat="45.71367" lon="-1.1694">
        <ele>15.154</ele>
        <time>2017-03-23T18:41:38Z</time>
      </trkpt>
      <trkpt lat="45.71331" lon="-1.17022">
        <ele>15.097</ele>
        <time>2017-03-23T18:41:58Z</time>
      </trkpt>
      <trkpt lat="45.71318" lon="-1.17157">
        <ele>16.198</ele>
        <time>2017-03-23T18:42:18Z</time>
      </trkpt>
      <trkpt lat="45.71286" lon="-1.17196">
        <ele>14.311</ele>
        <time>2017-03-23T18:42:38Z</time>
      </trkpt>
      <trkpt lat="45.71213" lon="-1.17599">
        <ele>12.097</ele>
        <time>2017-03-23T18:42:58Z</time>
      </trkpt>
      <trkpt lat="45.71232" lon="-1.17693">
        <ele>14.391</ele>
        <time>2017-03-23T18:43:18Z</time>
      </trkpt>
      <trkpt lat="45.71243" lon="-1.17792">
        <ele>11.537</ele>
        <time>2017-03-23T18:43:38Z</time>
      </trkpt>
      <trkpt lat="45.7126" lon="-1.17838">
        <ele>12.649</ele>
        <time>2017-03-23T18:43:58Z</time>
      </trkpt>
      <trkpt lat="45.71281" lon="-1.17854">
        <ele>13.813</ele>
        <time>2017-03-23T18:44:18Z</time>
      </trkpt>
      <trkpt lat="45.71341" lon="-1.17864">
        <ele>14.208</ele>
        <time>2017-03-23T18:44:38Z</time>
      </trkpt>
      <trkpt lat="45.71395" lon="-1.17912">
        <ele>14.239</ele>
        <time>2017-03-23T18:44:58Z</time>
      </trkpt>
      <trkpt lat="45.714" lon="-1.17967">
        <ele>12.933</ele>
        <time>2017-03-23T18:45:18Z</time>
      </trkpt>
      <trkpt lat="45.71415" lon="-1.18033">
        <ele>13.89</ele>
        <time>2017-03-23T18:45:38Z</time>
      </trkpt>
      <trkpt lat="45.71435" lon="-1.18097">
        <ele>14.343</ele>
        <time>2017-03-23T18:45:58Z</time>
      </trkpt>
      <trkpt lat="45.71468" lon="-1.18148">
        <ele>14.264</ele>
        <time>2017-03-23T18:46:18Z</time>
      </trkpt>
      <trkpt lat="45.71446" lon="-1.18213">
        <ele>16.627</ele>
        <time>2017-03-23T18:46:38Z</time>
      </trkpt>
      <trkpt lat="45.71448" lon="-1.18788">
        <ele>16.533</ele>
        <time>2017-03-23T18:46:58Z</time>
      </trkpt>
      <trkpt lat="45.71538" lon="-1.18828">
        <ele>15.697</ele>
        <time>2017-03-23T18:47:18Z</time>
      </trkpt>
      <trkpt lat="45.71565" lon="-1.19752">
        <ele>16.618</ele>
        <time>2017-03-23T18:47:38Z</time>
      </trkpt>
      <trkpt lat="45.71577" lon="-1.19771">
        <ele>16.898</ele>
        <time>2017-03-23T18:47:58Z</time>
      </trkpt>
      <trkpt lat="45.71633" lon="-1.19816">
        <ele>18.617</ele>
        <time>2017-03-23T18:48:18Z</time>
      </trkpt>
      <trkpt lat="45.71648" lon="-1.19844">
        <ele>20.608</ele>
        <time>2017-03-23T18:48:38Z</time>
      </trkpt>
      <trkpt lat="45.7166" lon="-1.19908">
        <ele>20.637</ele>
        <time>2017-03-23T18:48:58Z</time>
      </trkpt>
      <trkpt lat="45.71687" lon="-1.19974">
        <ele>20.661</ele>
        <time>2017-03-23T18:49:18Z</time>
      </trkpt>
      <trkpt lat="45.71713" lon="-1.19987">
        <ele>23.848</ele>
        <time>2017-03-23T18:49:38Z</time>
      </trkpt>
      <trkpt lat="45.71765" lon="-1.19954">
        <ele>29.051</ele>
        <time>2017-03-23T18:49:58Z</time>
      </trkpt>
      <trkpt lat="45.71839" lon="-1.19938">
        <ele>30.592</ele>
        <time>2017-03-23T18:50:18Z</time>
      </trkpt>
      <trkpt lat="45.71879" lon="-1.19907">
        <ele>32.565</ele>
        <time>2017-03-23T18:50:38Z</time>
      </trkpt>
      <trkpt lat="45.71903" lon="-1.19913">
        <ele>32.561</ele>
        <time>2017-03-23T18:50:58Z</time>
      </trkpt>
      <trkpt lat="45.71925" lon="-1.19941">
        <ele>32.155</ele>
        <time>2017-03-23T18:51:18Z</time>
      </trkpt>
      <trkpt lat="45.71946" lon="-1.19999">
        <ele>32.157</ele>
        <time>2017-03-23T18:51:38Z</time>
      </trkpt>
      <trkpt lat="45.72067" lon="-1.1999">
        <ele>43</ele>
        <time>2017-03-23T18:51:58Z</time>
      </trkpt>
      <trkpt lat="45.72105" lon="-1.2">
        <ele>42.22</ele>
        <time>2017-03-23T18:52:18Z</time>
      </trkpt>
      <trkpt lat="45.72164" lon="-1.19983">
        <ele>34.408</ele>
        <time>2017-03-23T18:52:38Z</time>
      </trkpt>
      <trkpt lat="45.72346" lon="-1.19969">
        <ele>31.321</ele>
        <time>2017-03-23T18:52:58Z</time>
      </trkpt>
      <trkpt lat="45.72456" lon="-1.19961">
        <ele>34.255</ele>
        <time>2017-03-23T18:53:18Z</time>
      </trkpt>
      <trkpt lat="45.72747" lon="-1.19952">
        <ele>36.322</ele>
        <time>2017-03-23T18:53:38Z</time>
      </trkpt>
      <trkpt lat="45.73099" lon="-1.1993">
        <ele>21.935</ele>
        <time>2017-03-23T18:53:58Z</time>
      </trkpt>
      <trkpt lat="45.73131" lon="-1.20037">
        <ele>17.866</ele>
        <time>2017-03-23T18:54:18Z</time>
      </trkpt>
      <trkpt lat="45.73156" lon="-1.20135">
        <ele>14.949</ele>
        <time>2017-03-23T18:54:38Z</time>
      </trkpt>
      <trkpt lat="45.73181" lon="-1.20184">
        <ele>12.515</ele>
        <time>2017-03-23T18:54:58Z</time>
      </trkpt>
      <trkpt lat="45.7321" lon="-1.2023">
        <ele>12.259</ele>
        <time>2017-03-23T18:55:18Z</time>
      </trkpt>
      <trkpt lat="45.73248" lon="-1.20313">
        <ele>13.086</ele>
        <time>2017-03-23T18:55:38Z</time>
      </trkpt>
      <trkpt lat="45.73326" lon="-1.2039">
        <ele>15.36</ele>
        <time>2017-03-23T18:55:58Z</time>
      </trkpt>
      <trkpt lat="45.73346" lon="-1.20392">
        <ele>14.726</ele>
        <time>2017-03-23T18:56:18Z</time>
      </trkpt>
      <trkpt lat="45.73395" lon="-1.20378">
        <ele>15.008</ele>
        <time>2017-03-23T18:56:38Z</time>
      </trkpt>
      <trkpt lat="45.73443" lon="-1.20377">
        <ele>16.074</ele>
        <time>2017-03-23T18:56:58Z</time>
      </trkpt>
      <trkpt lat="45.73482" lon="-1.20359">
        <ele>15.428</ele>
        <time>2017-03-23T18:57:18Z</time>
      </trkpt>
      <trkpt lat="45.73514" lon="-1.20362">
        <ele>16.045</ele>
        <time>2017-03-23T18:57:38Z</time>
      </trkpt>
      <trkpt lat="45.73571" lon="-1.20393">
        <ele>13.918</ele>
        <time>2017-03-23T18:57:58Z</time>
      </trkpt>
      <trkpt lat="45.73624" lon="-1.20405">
        <ele>14.969</ele>
        <time>2017-03-23T18:58:18Z</time>
      </trkpt>
      <trkpt lat="45.73674" lon="-1.20436">
        <ele>14.812</ele>
        <time>2017-03-23T18:58:38Z</time>
      </trkpt>
      <trkpt lat="45.73789" lon="-1.20445">
        <ele>14.488</ele>
        <time>2017-03-23T18:58:58Z</time>
      </trkpt>
      <trkpt lat="45.7383" lon="-1.20457">
        <ele>14.522</ele>
        <time>2017-03-23T18:59:18Z</time>
      </trkpt>
      <trkpt lat="45.73862" lon="-1.20477">
        <ele>14.014</ele>
        <time>2017-03-23T18:59:38Z</time>
      </trkpt>
      <trkpt lat="45.73884" lon="-1.20479">
        <ele>14.054</ele>
        <time>2017-03-23T18:59:58Z</time>
      </trkpt>
      <trkpt lat="45.73903" lon="-1.20468">
        <ele>14.509</ele>
        <time>2017-03-23T19:00:18Z</time>
      </trkpt>
      <trkpt lat="45.73927" lon="-1.20427">
        <ele>15.108</ele>
        <time>2017-03-23T19:00:38Z</time>
      </trkpt>
      <trkpt lat="45.73951" lon="-1.20408">
        <ele>14.767</ele>
        <time>2017-03-23T19:00:58Z</time>
      </trkpt>
      <trkpt lat="45.73998" lon="-1.20407">
        <ele>14.731</ele>
        <time>2017-03-23T19:01:18Z</time>
      </trkpt>
      <trkpt lat="45.74046" lon="-1.20478">
        <ele>15.928</ele>
        <time>2017-03-23T19:01:38Z</time>
      </trkpt>
      <trkpt lat="45.74082" lon="-1.20511">
        <ele>17.481</ele>
        <time>2017-03-23T19:01:58Z</time>
      </trkpt>
      <trkpt lat="45.74219" lon="-1.20503">
        <ele>13.492</ele>
        <time>2017-03-23T19:02:18Z</time>
      </trkpt>
      <trkpt lat="45.74265" lon="-1.20558">
        <ele>16.755</ele>
        <time>2017-03-23T19:02:38Z</time>
      </trkpt>
      <trkpt lat="45.74285" lon="-1.20566">
        <ele>16.481</ele>
        <time>2017-03-23T19:02:58Z</time>
      </trkpt>
      <trkpt lat="45.74308" lon="-1.20566">
        <ele>15.475</ele>
        <time>2017-03-23T19:03:18Z</time>
      </trkpt>
      <trkpt lat="45.74345" lon="-1.20614">
        <ele>16.158</ele>
        <time>2017-03-23T19:03:38Z</time>
      </trkpt>
      <trkpt lat="45.74388" lon="-1.20626">
        <ele>18.052</ele>
        <time>2017-03-23T19:03:58Z</time>
      </trkpt>
      <trkpt lat="45.74473" lon="-1.20625">
        <ele>20.917</ele>
        <time>2017-03-23T19:04:18Z</time>
      </trkpt>
      <trkpt lat="45.74528" lon="-1.20641">
        <ele>16.108</ele>
        <time>2017-03-23T19:04:38Z</time>
      </trkpt>
      <trkpt lat="45.74559" lon="-1.20587">
        <ele>12.141</ele>
        <time>2017-03-23T19:04:58Z</time>
      </trkpt>
      <trkpt lat="45.74604" lon="-1.20537">
        <ele>16.085</ele>
        <time>2017-03-23T19:05:18Z</time>
      </trkpt>
      <trkpt lat="45.74626" lon="-1.20534">
        <ele>17.482</ele>
        <time>2017-03-23T19:05:38Z</time>
      </trkpt>
      <trkpt lat="45.74704" lon="-1.20551">
        <ele>16.595</ele>
        <time>2017-03-23T19:05:58Z</time>
      </trkpt>
      <trkpt lat="45.74735" lon="-1.20573">
        <ele>17.316</ele>
        <time>2017-03-23T19:06:18Z</time>
      </trkpt>
      <trkpt lat="45.74755" lon="-1.20589">
        <ele>18.469</ele>
        <time>2017-03-23T19:06:38Z</time>
      </trkpt>
      <trkpt lat="45.74832" lon="-1.20613">
        <ele>17.135</ele>
        <time>2017-03-23T19:06:58Z</time>
      </trkpt>
      <trkpt lat="45.74873" lon="-1.20596">
        <ele>16.849</ele>
        <time>2017-03-23T19:07:18Z</time>
      </trkpt>
      <trkpt lat="45.74945" lon="-1.20601">
        <ele>18.613</ele>
        <time>2017-03-23T19:07:38Z</time>
      </trkpt>
      <trkpt lat="45.75067" lon="-1.20592">
        <ele>20.443</ele>
        <time>2017-03-23T19:07:58Z</time>
      </trkpt>
      <trkpt lat="45.75117" lon="-1.20604">
        <ele>17.007</ele>
        <time>2017-03-23T19:08:18Z</time>
      </trkpt>
      <trkpt lat="45.7516" lon="-1.20644">
        <ele>16.908</ele>
        <time>2017-03-23T19:08:38Z</time>
      </trkpt>
      <trkpt lat="45.75187" lon="-1.20655">
        <ele>19.417</ele>
        <time>2017-03-23T19:08:58Z</time>
      </trkpt>
      <trkpt lat="45.75198" lon="-1.20672">
        <ele>20.761</ele>
        <time>2017-03-23T19:09:18Z</time>
      </trkpt>
      <trkpt lat="45.75222" lon="-1.20688">
        <ele>23.888</ele>
        <time>2017-03-23T19:09:38Z</time>
      </trkpt>
      <trkpt lat="45.75289" lon="-1.20707">
        <ele>22.551</ele>
        <time>2017-03-23T19:09:58Z</time>
      </trkpt>
      <trkpt lat="45.75338" lon="-1.20733">
        <ele>23.632</ele>
        <time>2017-03-23T19:10:18Z</time>
      </trkpt>
      <trkpt lat="45.75502" lon="-1.20757">
        <ele>21.825</ele>
        <time>2017-03-23T19:10:38Z</time>
      </trkpt>
      <trkpt lat="45.75542" lon="-1.20778">
        <ele>19.061</ele>
        <time>2017-03-23T19:10:58Z</time>
      </trkpt>
      <trkpt lat="45.75626" lon="-1.20799">
        <ele>19.195</ele>
        <time>2017-03-23T19:11:18Z</time>
      </trkpt>
      <trkpt lat="45.75652" lon="-1.20831">
        <ele>20.426</ele>
        <time>2017-03-23T19:11:38Z</time>
      </trkpt>
      <trkpt lat="45.75681" lon="-1.20854">
        <ele>21.747</ele>
        <time>2017-03-23T19:11:58Z</time>
      </trkpt>
      <trkpt lat="45.75864" lon="-1.20817">
        <ele>20.411</ele>
        <time>2017-03-23T19:12:18Z</time>
      </trkpt>
      <trkpt lat="45.75886" lon="-1.20847">
        <ele>22.108</ele>
        <time>2017-03-23T19:12:38Z</time>
      </trkpt>
      <trkpt lat="45.75914" lon="-1.20869">
        <ele>23.218</ele>
        <time>2017-03-23T19:12:58Z</time>
      </trkpt>
      <trkpt lat="45.7596" lon="-1.20971">
        <ele>33.372</ele>
        <time>2017-03-23T19:13:18Z</time>
      </trkpt>
      <trkpt lat="45.75989" lon="-1.21006">
        <ele>33.949</ele>
        <time>2017-03-23T19:13:38Z</time>
      </trkpt>
      <trkpt lat="45.76024" lon="-1.21022">
        <ele>28.522</ele>
        <time>2017-03-23T19:13:58Z</time>
      </trkpt>
      <trkpt lat="45.76043" lon="-1.2104">
        <ele>26.993</ele>
        <time>2017-03-23T19:14:18Z</time>
      </trkpt>
      <trkpt lat="45.76093" lon="-1.21037">
        <ele>21.966</ele>
        <time>2017-03-23T19:14:38Z</time>
      </trkpt>
      <trkpt lat="45.76092" lon="-1.20944">
        <ele>26.022</ele>
        <time>2017-03-23T19:14:58Z</time>
      </trkpt>
      <trkpt lat="45.76129" lon="-1.20958">
        <ele>25.896</ele>
        <time>2017-03-23T19:15:18Z</time>
      </trkpt>
      <trkpt lat="45.76191" lon="-1.2096">
        <ele>27.873</ele>
        <time>2017-03-23T19:15:38Z</time>
      </trkpt>
      <trkpt lat="45.76201" lon="-1.20948">
        <ele>28.085</ele>
        <time>2017-03-23T19:15:58Z</time>
      </trkpt>
      <trkpt lat="45.76211" lon="-1.2095">
        <ele>28.013</ele>
        <time>2017-03-23T19:16:18Z</time>
      </trkpt>
      <trkpt lat="45.76228" lon="-1.2094">
        <ele>28.408</ele>
        <time>2017-03-23T19:16:38Z</time>
      </trkpt>
      <trkpt lat="45.76298" lon="-1.20951">
        <ele>33.933</ele>
        <time>2017-03-23T19:16:58Z</time>
      </trkpt>
      <trkpt lat="45.76324" lon="-1.20962">
        <ele>36.397</ele>
        <time>2017-03-23T19:17:18Z</time>
      </trkpt>
      <trkpt lat="45.76346" lon="-1.20937">
        <ele>33.634</ele>
        <time>2017-03-23T19:17:38Z</time>
      </trkpt>
      <trkpt lat="45.7637" lon="-1.20955">
        <ele>32.157</ele>
        <time>2017-03-23T19:17:58Z</time>
      </trkpt>
      <trkpt lat="45.76446" lon="-1.2094">
        <ele>22.848</ele>
        <time>2017-03-23T19:18:18Z</time>
      </trkpt>
      <trkpt lat="45.7645" lon="-1.20971">
        <ele>21.481</ele>
        <time>2017-03-23T19:18:38Z</time>
      </trkpt>
      <trkpt lat="45.76551" lon="-1.21033">
        <ele>16.347</ele>
        <time>2017-03-23T19:18:58Z</time>
      </trkpt>
      <trkpt lat="45.76573" lon="-1.21041">
        <ele>16.561</ele>
        <time>2017-03-23T19:19:18Z</time>
      </trkpt>
      <trkpt lat="45.76599" lon="-1.2106">
        <ele>16.511</ele>
        <time>2017-03-23T19:19:38Z</time>
      </trkpt>
      <trkpt lat="45.76615" lon="-1.21057">
        <ele>17.321</ele>
        <time>2017-03-23T19:19:58Z</time>
      </trkpt>
      <trkpt lat="45.76639" lon="-1.21071">
        <ele>20.103</ele>
        <time>2017-03-23T19:20:18Z</time>
      </trkpt>
      <trkpt lat="45.76662" lon="-1.21134">
        <ele>27.808</ele>
        <time>2017-03-23T19:20:38Z</time>
      </trkpt>
      <trkpt lat="45.7667" lon="-1.21199">
        <ele>32.727</ele>
        <time>2017-03-23T19:20:58Z</time>
      </trkpt>
      <trkpt lat="45.76702" lon="-1.21212">
        <ele>38.551</ele>
        <time>2017-03-23T19:21:18Z</time>
      </trkpt>
      <trkpt lat="45.76719" lon="-1.21245">
        <ele>40.078</ele>
        <time>2017-03-23T19:21:38Z</time>
      </trkpt>
      <trkpt lat="45.76741" lon="-1.21267">
        <ele>42.881</ele>
        <time>2017-03-23T19:21:58Z</time>
      </trkpt>
      <trkpt lat="45.76749" lon="-1.21254">
        <ele>44.722</ele>
        <time>2017-03-23T19:22:18Z</time>
      </trkpt>
      <trkpt lat="45.76813" lon="-1.21239">
        <ele>56.255</ele>
        <time>2017-03-23T19:22:38Z</time>
      </trkpt>
      <trkpt lat="45.7683" lon="-1.21269">
        <ele>58.611</ele>
        <time>2017-03-23T19:22:58Z</time>
      </trkpt>
      <trkpt lat="45.76881" lon="-1.21284">
        <ele>55.585</ele>
        <time>2017-03-23T19:23:18Z</time>
      </trkpt>
      <trkpt lat="45.76914" lon="-1.21303">
        <ele>51.267</ele>
        <time>2017-03-23T19:23:38Z</time>
      </trkpt>
      <trkpt lat="45.76927" lon="-1.21317">
        <ele>49.181</ele>
        <time>2017-03-23T19:23:58Z</time>
      </trkpt>
      <trkpt lat="45.7696" lon="-1.21327">
        <ele>42.319</ele>
        <time>2017-03-23T19:24:18Z</time>
      </trkpt>
      <trkpt lat="45.77004" lon="-1.21357">
        <ele>38.608</ele>
        <time>2017-03-23T19:24:38Z</time>
      </trkpt>
      <trkpt lat="45.77097" lon="-1.21467">
        <ele>39.752</ele>
        <time>2017-03-23T19:24:58Z</time>
      </trkpt>
      <trkpt lat="45.77183" lon="-1.21488">
        <ele>41.736</ele>
        <time>2017-03-23T19:25:18Z</time>
      </trkpt>
      <trkpt lat="45.77361" lon="-1.21418">
        <ele>49.173</ele>
        <time>2017-03-23T19:25:38Z</time>
      </trkpt>
      <trkpt lat="45.77383" lon="-1.214">
        <ele>50.336</ele>
        <time>2017-03-23T19:25:58Z</time>
      </trkpt>
      <trkpt lat="45.77389" lon="-1.21347">
        <ele>51.597</ele>
        <time>2017-03-23T19:26:18Z</time>
      </trkpt>
      <trkpt lat="45.77316" lon="-1.21225">
        <ele>35.27</ele>
        <time>2017-03-23T19:26:38Z</time>
      </trkpt>
      <trkpt lat="45.77108" lon="-1.2085">
        <ele>26.666</ele>
        <time>2017-03-23T19:26:58Z</time>
      </trkpt>
      <trkpt lat="45.76987" lon="-1.20669">
        <ele>36.41</ele>
        <time>2017-03-23T19:27:18Z</time>
      </trkpt>
      <trkpt lat="45.76859" lon="-1.20475">
        <ele>40.671</ele>
        <time>2017-03-23T19:27:38Z</time>
      </trkpt>
      <trkpt lat="45.76802" lon="-1.20331">
        <ele>17.241</ele>
        <time>2017-03-23T19:27:58Z</time>
      </trkpt>
      <trkpt lat="45.76731" lon="-1.20219">
        <ele>12.315</ele>
        <time>2017-03-23T19:28:18Z</time>
      </trkpt>
      <trkpt lat="45.76717" lon="-1.20162">
        <ele>11.408</ele>
        <time>2017-03-23T19:28:38Z</time>
      </trkpt>
      <trkpt lat="45.76662" lon="-1.19978">
        <ele>14.013</ele>
        <time>2017-03-23T19:28:58Z</time>
      </trkpt>
      <trkpt lat="45.76692" lon="-1.1982">
        <ele>18.637</ele>
        <time>2017-03-23T19:29:18Z</time>
      </trkpt>
      <trkpt lat="45.76736" lon="-1.19489">
        <ele>10.064</ele>
        <time>2017-03-23T19:29:38Z</time>
      </trkpt>
      <trkpt lat="45.7677" lon="-1.19386">
        <ele>11.197</ele>
        <time>2017-03-23T19:29:58Z</time>
      </trkpt>
      <trkpt lat="45.76813" lon="-1.19326">
        <ele>12.278</ele>
        <time>2017-03-23T19:30:18Z</time>
      </trkpt>
      <trkpt lat="45.76896" lon="-1.19171">
        <ele>14.051</ele>
        <time>2017-03-23T19:30:38Z</time>
      </trkpt>
      <trkpt lat="45.76948" lon="-1.19145">
        <ele>15.537</ele>
        <time>2017-03-23T19:30:58Z</time>
      </trkpt>
      <trkpt lat="45.76964" lon="-1.1912">
        <ele>16.461</ele>
        <time>2017-03-23T19:31:18Z</time>
      </trkpt>
      <trkpt lat="45.76979" lon="-1.19082">
        <ele>16.229</ele>
        <time>2017-03-23T19:31:38Z</time>
      </trkpt>
      <trkpt lat="45.77054" lon="-1.18989">
        <ele>12.6</ele>
        <time>2017-03-23T19:31:58Z</time>
      </trkpt>
      <trkpt lat="45.77121" lon="-1.1893">
        <ele>13.32</ele>
        <time>2017-03-23T19:32:18Z</time>
      </trkpt>
      <trkpt lat="45.77161" lon="-1.18907">
        <ele>11.608</ele>
        <time>2017-03-23T19:32:38Z</time>
      </trkpt>
      <trkpt lat="45.77192" lon="-1.18879">
        <ele>12.158</ele>
        <time>2017-03-23T19:32:58Z</time>
      </trkpt>
      <trkpt lat="45.77251" lon="-1.18803">
        <ele>13.272</ele>
        <time>2017-03-23T19:33:18Z</time>
      </trkpt>
      <trkpt lat="45.77288" lon="-1.1878">
        <ele>16.279</ele>
        <time>2017-03-23T19:33:38Z</time>
      </trkpt>
      <trkpt lat="45.77389" lon="-1.18748">
        <ele>17.182</ele>
        <time>2017-03-23T19:33:58Z</time>
      </trkpt>
      <trkpt lat="45.77498" lon="-1.18634">
        <ele>15.123</ele>
        <time>2017-03-23T19:34:18Z</time>
      </trkpt>
      <trkpt lat="45.77519" lon="-1.1854">
        <ele>17.486</ele>
        <time>2017-03-23T19:34:38Z</time>
      </trkpt>
      <trkpt lat="45.77542" lon="-1.18513">
        <ele>19.332</ele>
        <time>2017-03-23T19:34:58Z</time>
      </trkpt>
      <trkpt lat="45.77585" lon="-1.18499">
        <ele>21.166</ele>
        <time>2017-03-23T19:35:18Z</time>
      </trkpt>
      <trkpt lat="45.77627" lon="-1.18445">
        <ele>22.154</ele>
        <time>2017-03-23T19:35:38Z</time>
      </trkpt>
      <trkpt lat="45.7774" lon="-1.18228">
        <ele>20.156</ele>
        <time>2017-03-23T19:35:58Z</time>
      </trkpt>
      <trkpt lat="45.77754" lon="-1.18182">
        <ele>17.311</ele>
        <time>2017-03-23T19:36:18Z</time>
      </trkpt>
      <trkpt lat="45.77763" lon="-1.18133">
        <ele>15.008</ele>
        <time>2017-03-23T19:36:38Z</time>
      </trkpt>
      <trkpt lat="45.7778" lon="-1.18087">
        <ele>13.961</ele>
        <time>2017-03-23T19:36:58Z</time>
      </trkpt>
      <trkpt lat="45.77808" lon="-1.18026">
        <ele>13.995</ele>
        <time>2017-03-23T19:37:18Z</time>
      </trkpt>
      <trkpt lat="45.7777" lon="-1.1792">
        <ele>11.472</ele>
        <time>2017-03-23T19:37:38Z</time>
      </trkpt>
      <trkpt lat="45.77802" lon="-1.17948">
        <ele>11.345</ele>
        <time>2017-03-23T19:37:58Z</time>
      </trkpt>
      <trkpt lat="45.77824" lon="-1.17952">
        <ele>10.646</ele>
        <time>2017-03-23T19:38:18Z</time>
      </trkpt>
      <trkpt lat="45.77853" lon="-1.17948">
        <ele>11.559</ele>
        <time>2017-03-23T19:38:38Z</time>
      </trkpt>
      <trkpt lat="45.77908" lon="-1.17886">
        <ele>11.335</ele>
        <time>2017-03-23T19:38:58Z</time>
      </trkpt>
      <trkpt lat="45.77985" lon="-1.17822">
        <ele>12.969</ele>
        <time>2017-03-23T19:39:18Z</time>
      </trkpt>
      <trkpt lat="45.7803" lon="-1.17802">
        <ele>12.927</ele>
        <time>2017-03-23T19:39:38Z</time>
      </trkpt>
      <trkpt lat="45.78067" lon="-1.1777">
        <ele>14.068</ele>
        <time>2017-03-23T19:39:58Z</time>
      </trkpt>
      <trkpt lat="45.7814" lon="-1.17747">
        <ele>15.014</ele>
        <time>2017-03-23T19:40:18Z</time>
      </trkpt>
      <trkpt lat="45.78171" lon="-1.17727">
        <ele>16.008</ele>
        <time>2017-03-23T19:40:38Z</time>
      </trkpt>
      <trkpt lat="45.78253" lon="-1.17611">
        <ele>9.968</ele>
        <time>2017-03-23T19:40:58Z</time>
      </trkpt>
      <trkpt lat="45.78383" lon="-1.17385">
        <ele>8.332</ele>
        <time>2017-03-23T19:41:18Z</time>
      </trkpt>
      <trkpt lat="45.78396" lon="-1.1735">
        <ele>6.569</ele>
        <time>2017-03-23T19:41:38Z</time>
      </trkpt>
      <trkpt lat="45.78474" lon="-1.17222">
        <ele>8.052</ele>
        <time>2017-03-23T19:41:58Z</time>
      </trkpt>
      <trkpt lat="45.78515" lon="-1.17164">
        <ele>10.233</ele>
        <time>2017-03-23T19:42:18Z</time>
      </trkpt>
      <trkpt lat="45.78535" lon="-1.17164">
        <ele>11.626</ele>
        <time>2017-03-23T19:42:38Z</time>
      </trkpt>
      <trkpt lat="45.78563" lon="-1.17189">
        <ele>13.562</ele>
        <time>2017-03-23T19:42:58Z</time>
      </trkpt>
      <trkpt lat="45.78633" lon="-1.17131">
        <ele>15.976</ele>
        <time>2017-03-23T19:43:18Z</time>
      </trkpt>
      <trkpt lat="45.78647" lon="-1.17136">
        <ele>16.359</ele>
        <time>2017-03-23T19:43:38Z</time>
      </trkpt>
      <trkpt lat="45.78841" lon="-1.17126">
        <ele>17.703</ele>
        <time>2017-03-23T19:43:58Z</time>
      </trkpt>
      <trkpt lat="45.79038" lon="-1.17127">
        <ele>14.023</ele>
        <time>2017-03-23T19:44:18Z</time>
      </trkpt>
      <trkpt lat="45.79108" lon="-1.16926">
        <ele>15.108</ele>
        <time>2017-03-23T19:44:38Z</time>
      </trkpt>
      <trkpt lat="45.79217" lon="-1.16576">
        <ele>18.871</ele>
        <time>2017-03-23T19:44:58Z</time>
      </trkpt>
      <trkpt lat="45.79249" lon="-1.16278">
        <ele>18.085</ele>
        <time>2017-03-23T19:45:18Z</time>
      </trkpt>
      <trkpt lat="45.79252" lon="-1.1616">
        <ele>15.192</ele>
        <time>2017-03-23T19:45:38Z</time>
      </trkpt>
      <trkpt lat="45.79267" lon="-1.16099">
        <ele>10.785</ele>
        <time>2017-03-23T19:45:58Z</time>
      </trkpt>
      <trkpt lat="45.79303" lon="-1.16116">
        <ele>7.226</ele>
        <time>2017-03-23T19:46:18Z</time>
      </trkpt>
      <trkpt lat="45.79325" lon="-1.16045">
        <ele>10.199</ele>
        <time>2017-03-23T19:46:38Z</time>
      </trkpt>
      <trkpt lat="45.79354" lon="-1.15988">
        <ele>11.765</ele>
        <time>2017-03-23T19:46:58Z</time>
      </trkpt>
      <trkpt lat="45.79377" lon="-1.15808">
        <ele>10.739</ele>
        <time>2017-03-23T19:47:18Z</time>
      </trkpt>
      <trkpt lat="45.7939" lon="-1.15776">
        <ele>10.974</ele>
        <time>2017-03-23T19:47:38Z</time>
      </trkpt>
      <trkpt lat="45.79612" lon="-1.15432">
        <ele>7.056</ele>
        <time>2017-03-23T19:47:58Z</time>
      </trkpt>
      <trkpt lat="45.79657" lon="-1.15397">
        <ele>7.921</ele>
        <time>2017-03-23T19:48:18Z</time>
      </trkpt>
      <trkpt lat="45.79712" lon="-1.1538">
        <ele>6.808</ele>
        <time>2017-03-23T19:48:38Z</time>
      </trkpt>
      <trkpt lat="45.79711" lon="-1.15338">
        <ele>6.483</ele>
        <time>2017-03-23T19:48:58Z</time>
      </trkpt>
      <trkpt lat="45.79738" lon="-1.153">
        <ele>6.297</ele>
        <time>2017-03-23T19:49:18Z</time>
      </trkpt>
      <trkpt lat="45.79755" lon="-1.15295">
        <ele>6.434</ele>
        <time>2017-03-23T19:49:38Z</time>
      </trkpt>
      <trkpt lat="45.79763" lon="-1.15274">
        <ele>7.327</ele>
        <time>2017-03-23T19:49:58Z</time>
      </trkpt>
      <trkpt lat="45.79793" lon="-1.15273">
        <ele>7.988</ele>
        <time>2017-03-23T19:50:18Z</time>
      </trkpt>
      <trkpt lat="45.79789" lon="-1.15122">
        <ele>11.091</ele>
        <time>2017-03-23T19:50:38Z</time>
      </trkpt>
      <trkpt lat="45.79774" lon="-1.15007">
        <ele>9.667</ele>
        <time>2017-03-23T19:50:58Z</time>
      </trkpt>
      <trkpt lat="45.79774" lon="-1.14923">
        <ele>6.661</ele>
        <time>2017-03-23T19:51:18Z</time>
      </trkpt>
      <trkpt lat="45.79699" lon="-1.14617">
        <ele>6.148</ele>
        <time>2017-03-23T19:51:38Z</time>
      </trkpt>
      <trkpt lat="45.79694" lon="-1.14555">
        <ele>8.161</ele>
        <time>2017-03-23T19:51:58Z</time>
      </trkpt>
      <trkpt lat="45.79673" lon="-1.14518">
        <ele>9.717</ele>
        <time>2017-03-23T19:52:18Z</time>
      </trkpt>
      <trkpt lat="45.79664" lon="-1.14484">
        <ele>10.008</ele>
        <time>2017-03-23T19:52:38Z</time>
      </trkpt>
      <trkpt lat="45.79635" lon="-1.14444">
        <ele>10.11</ele>
        <time>2017-03-23T19:52:58Z</time>
      </trkpt>
      <trkpt lat="45.79643" lon="-1.14419">
        <ele>10.084</ele>
        <time>2017-03-23T19:53:18Z</time>
      </trkpt>
      <trkpt lat="45.79646" lon="-1.14377">
        <ele>8.931</ele>
        <time>2017-03-23T19:53:38Z</time>
      </trkpt>
      <trkpt lat="45.79674" lon="-1.14323">
        <ele>4.264</ele>
        <time>2017-03-23T19:53:58Z</time>
      </trkpt>
      <trkpt lat="45.79682" lon="-1.14292">
        <ele>2.675</ele>
        <time>2017-03-23T19:54:18Z</time>
      </trkpt>
      <trkpt lat="45.80204" lon="-1.13347">
        <ele>3.598</ele>
        <time>2017-03-23T19:54:38Z</time>
      </trkpt>
      <trkpt lat="45.8027" lon="-1.13268">
        <ele>2.744</ele>
        <time>2017-03-23T19:54:58Z</time>
      </trkpt>
      <trkpt lat="45.80343" lon="-1.13212">
        <ele>2.068</ele>
        <time>2017-03-23T19:55:18Z</time>
      </trkpt>
      <trkpt lat="45.80418" lon="-1.13183">
        <ele>2.643</ele>
        <time>2017-03-23T19:55:38Z</time>
      </trkpt>
      <trkpt lat="45.80497" lon="-1.13176">
        <ele>2.964</ele>
        <time>2017-03-23T19:55:58Z</time>
      </trkpt>
      <trkpt lat="45.81221" lon="-1.13327">
        <ele>3.01</ele>
        <time>2017-03-23T19:56:18Z</time>
      </trkpt>
      <trkpt lat="45.81324" lon="-1.13318">
        <ele>3.308</ele>
        <time>2017-03-23T19:56:38Z</time>
      </trkpt>
      <trkpt lat="45.81369" lon="-1.13338">
        <ele>4.56</ele>
        <time>2017-03-23T19:56:58Z</time>
      </trkpt>
      <trkpt lat="45.81372" lon="-1.13361">
        <ele>5.454</ele>
        <time>2017-03-23T19:57:18Z</time>
      </trkpt>
      <trkpt lat="45.81359" lon="-1.13473">
        <ele>3.951</ele>
        <time>2017-03-23T19:57:38Z</time>
      </trkpt>
      <trkpt lat="45.81369" lon="-1.1349">
        <ele>4.064</ele>
        <time>2017-03-23T19:57:58Z</time>
      </trkpt>
      <trkpt lat="45.81473" lon="-1.13506">
        <ele>3.875</ele>
        <time>2017-03-23T19:58:18Z</time>
      </trkpt>
      <trkpt lat="45.8156" lon="-1.13528">
        <ele>3.258</ele>
        <time>2017-03-23T19:58:38Z</time>
      </trkpt>
      <trkpt lat="45.81822" lon="-1.13621">
        <ele>4.214</ele>
        <time>2017-03-23T19:58:58Z</time>
      </trkpt>
      <trkpt lat="45.81864" lon="-1.13477">
        <ele>6.648</ele>
        <time>2017-03-23T19:59:18Z</time>
      </trkpt>
      <trkpt lat="45.81873" lon="-1.13481">
        <ele>6.049</ele>
        <time>2017-03-23T19:59:38Z</time>
      </trkpt>
      <trkpt lat="45.81881" lon="-1.13528">
        <ele>5.302</ele>
        <time>2017-03-23T19:59:58Z</time>
      </trkpt>
      <trkpt lat="45.81898" lon="-1.13548">
        <ele>5.622</ele>
        <time>2017-03-23T20:00:18Z</time>
      </trkpt>
      <trkpt lat="45.81948" lon="-1.13555">
        <ele>5.208</ele>
        <time>2017-03-23T20:00:38Z</time>
      </trkpt>
      <trkpt lat="45.82026" lon="-1.13594">
        <ele>9.03</ele>
        <time>2017-03-23T20:00:58Z</time>
      </trkpt>
      <trkpt lat="45.82073" lon="-1.13672">
        <ele>6.994</ele>
        <time>2017-03-23T20:01:18Z</time>
      </trkpt>
      <trkpt lat="45.82118" lon="-1.13778">
        <ele>6.051</ele>
        <time>2017-03-23T20:01:38Z</time>
      </trkpt>
      <trkpt lat="45.82113" lon="-1.13807">
        <ele>5.094</ele>
        <time>2017-03-23T20:01:58Z</time>
      </trkpt>
      <trkpt lat="45.82174" lon="-1.13884">
        <ele>4.365</ele>
        <time>2017-03-23T20:02:18Z</time>
      </trkpt>
      <trkpt lat="45.82222" lon="-1.13928">
        <ele>5.078</ele>
        <time>2017-03-23T20:02:38Z</time>
      </trkpt>
      <trkpt lat="45.82264" lon="-1.13956">
        <ele>3.864</ele>
        <time>2017-03-23T20:02:58Z</time>
      </trkpt>
      <trkpt lat="45.82289" lon="-1.13949">
        <ele>4.668</ele>
        <time>2017-03-23T20:03:18Z</time>
      </trkpt>
      <trkpt lat="45.82344" lon="-1.139">
        <ele>7.085</ele>
        <time>2017-03-23T20:03:38Z</time>
      </trkpt>
      <trkpt lat="45.82376" lon="-1.13976">
        <ele>9.289</ele>
        <time>2017-03-23T20:03:58Z</time>
      </trkpt>
      <trkpt lat="45.82435" lon="-1.13998">
        <ele>9.217</ele>
        <time>2017-03-23T20:04:18Z</time>
      </trkpt>
      <trkpt lat="45.82488" lon="-1.14039">
        <ele>5.408</ele>
        <time>2017-03-23T20:04:38Z</time>
      </trkpt>
      <trkpt lat="45.82494" lon="-1.14071">
        <ele>5.144</ele>
        <time>2017-03-23T20:04:58Z</time>
      </trkpt>
      <trkpt lat="45.82539" lon="-1.14115">
        <ele>7.248</ele>
        <time>2017-03-23T20:05:18Z</time>
      </trkpt>
      <trkpt lat="45.82574" lon="-1.14177">
        <ele>5.995</ele>
        <time>2017-03-23T20:05:38Z</time>
      </trkpt>
      <trkpt lat="45.82583" lon="-1.14263">
        <ele>5.188</ele>
        <time>2017-03-23T20:05:58Z</time>
      </trkpt>
      <trkpt lat="45.8262" lon="-1.14246">
        <ele>5.769</ele>
        <time>2017-03-23T20:06:18Z</time>
      </trkpt>
      <trkpt lat="45.82608" lon="-1.14358">
        <ele>2.672</ele>
        <time>2017-03-23T20:06:38Z</time>
      </trkpt>
      <trkpt lat="45.82694" lon="-1.14376">
        <ele>2.518</ele>
        <time>2017-03-23T20:06:58Z</time>
      </trkpt>
      <trkpt lat="45.82826" lon="-1.1438">
        <ele>2.012</ele>
        <time>2017-03-23T20:07:18Z</time>
      </trkpt>
      <trkpt lat="45.8291" lon="-1.14435">
        <ele>2.026</ele>
        <time>2017-03-23T20:07:38Z</time>
      </trkpt>
      <trkpt lat="45.82941" lon="-1.14413">
        <ele>3.847</ele>
        <time>2017-03-23T20:07:58Z</time>
      </trkpt>
      <trkpt lat="45.82957" lon="-1.14439">
        <ele>3.211</ele>
        <time>2017-03-23T20:08:18Z</time>
      </trkpt>
      <trkpt lat="45.83031" lon="-1.14454">
        <ele>3.608</ele>
        <time>2017-03-23T20:08:38Z</time>
      </trkpt>
      <trkpt lat="45.83077" lon="-1.14428">
        <ele>2.548</ele>
        <time>2017-03-23T20:08:58Z</time>
      </trkpt>
      <trkpt lat="45.83088" lon="-1.14405">
        <ele>2.042</ele>
        <time>2017-03-23T20:09:18Z</time>
      </trkpt>
      <trkpt lat="45.83121" lon="-1.14384">
        <ele>2.399</ele>
        <time>2017-03-23T20:09:38Z</time>
      </trkpt>
      <trkpt lat="45.83148" lon="-1.1432">
        <ele>1.722</ele>
        <time>2017-03-23T20:09:58Z</time>
      </trkpt>
      <trkpt lat="45.83222" lon="-1.14263">
        <ele>4.043</ele>
        <time>2017-03-23T20:10:18Z</time>
      </trkpt>
      <trkpt lat="45.83228" lon="-1.1423">
        <ele>3.366</ele>
        <time>2017-03-23T20:10:38Z</time>
      </trkpt>
      <trkpt lat="45.83358" lon="-1.14151">
        <ele>3.412</ele>
        <time>2017-03-23T20:10:58Z</time>
      </trkpt>
      <trkpt lat="45.8339" lon="-1.14088">
        <ele>2.076</ele>
        <time>2017-03-23T20:11:18Z</time>
      </trkpt>
      <trkpt lat="45.83433" lon="-1.13952">
        <ele>3.746</ele>
        <time>2017-03-23T20:11:38Z</time>
      </trkpt>
      <trkpt lat="45.83444" lon="-1.13886">
        <ele>3.188</ele>
        <time>2017-03-23T20:11:58Z</time>
      </trkpt>
      <trkpt lat="45.83467" lon="-1.13811">
        <ele>5.616</ele>
        <time>2020-11-18T12:12:25Z</time>
      </trkpt>
      <trkpt lat="45.83488" lon="-1.13745">
        <ele>5.008</ele>
        <time>2020-11-18T12:12:45Z</time>
      </trkpt>
      <trkpt lat="45.82949" lon="-1.13013">
        <ele>3.67</ele>
        <time>2020-11-18T12:13:05Z</time>
      </trkpt>
      <trkpt lat="45.83319" lon="-1.12685">
        <ele>9.794</ele>
        <time>2020-11-18T12:13:25Z</time>
      </trkpt>
      <trkpt lat="45.83278" lon="-1.12583">
        <ele>13.031</ele>
        <time>2020-11-18T12:13:45Z</time>
      </trkpt>
      <trkpt lat="45.83323" lon="-1.1253">
        <ele>12.994</ele>
        <time>2020-11-18T12:14:05Z</time>
      </trkpt>
      <trkpt lat="45.83339" lon="-1.1253">
        <ele>12.985</ele>
        <time>2020-11-18T12:14:25Z</time>
      </trkpt>
      <trkpt lat="45.83388" lon="-1.12475">
        <ele>12.978</ele>
        <time>2020-11-18T12:14:45Z</time>
      </trkpt>
      <trkpt lat="45.83417" lon="-1.12461">
        <ele>12.014</ele>
        <time>2020-11-18T12:15:05Z</time>
      </trkpt>
      <trkpt lat="45.83422" lon="-1.1239">
        <ele>12.278</ele>
        <time>2020-11-18T12:15:25Z</time>
      </trkpt>
      <trkpt lat="45.83473" lon="-1.12392">
        <ele>13.062</ele>
        <time>2020-11-18T12:15:45Z</time>
      </trkpt>
      <trkpt lat="45.83505" lon="-1.12363">
        <ele>12.483</ele>
        <time>2020-11-18T12:16:05Z</time>
      </trkpt>
      <trkpt lat="45.83542" lon="-1.12298">
        <ele>13.511</ele>
        <time>2020-11-18T12:16:25Z</time>
      </trkpt>
      <trkpt lat="45.8352" lon="-1.12222">
        <ele>12.708</ele>
        <time>2020-11-18T12:16:45Z</time>
      </trkpt>
      <trkpt lat="45.83566" lon="-1.12167">
        <ele>14.012</ele>
        <time>2020-11-18T12:17:05Z</time>
      </trkpt>
      <trkpt lat="45.83606" lon="-1.12098">
        <ele>11.266</ele>
        <time>2020-11-18T12:17:25Z</time>
      </trkpt>
      <trkpt lat="45.8368" lon="-1.11997">
        <ele>13.423</ele>
        <time>2020-11-18T12:17:45Z</time>
      </trkpt>
      <trkpt lat="45.8376" lon="-1.11916">
        <ele>14.036</ele>
        <time>2020-11-18T12:18:05Z</time>
      </trkpt>
      <trkpt lat="45.83839" lon="-1.11808">
        <ele>16.367</ele>
        <time>2020-11-18T12:18:25Z</time>
      </trkpt>
      <trkpt lat="45.83922" lon="-1.11748">
        <ele>17.91</ele>
        <time>2017-03-23T20:19:38Z</time>
      </trkpt>
      <trkpt lat="45.84095" lon="-1.11768">
        <ele>17.456</ele>
        <time>2017-03-23T20:19:58Z</time>
      </trkpt>
      <trkpt lat="45.84112" lon="-1.11808">
        <ele>17.98</ele>
        <time>2017-03-23T20:20:18Z</time>
      </trkpt>
      <trkpt lat="45.843" lon="-1.11747">
        <ele>14.181</ele>
        <time>2017-03-23T20:20:38Z</time>
      </trkpt>
      <trkpt lat="45.84332" lon="-1.11701">
        <ele>15.761</ele>
        <time>2017-03-23T20:20:58Z</time>
      </trkpt>
      <trkpt lat="45.84342" lon="-1.11636">
        <ele>16.217</ele>
        <time>2017-03-23T20:21:18Z</time>
      </trkpt>
      <trkpt lat="45.84377" lon="-1.11653">
        <ele>17.608</ele>
        <time>2017-03-23T20:21:38Z</time>
      </trkpt>
      <trkpt lat="45.84449" lon="-1.11602">
        <ele>16.894</ele>
        <time>2017-03-23T20:21:58Z</time>
      </trkpt>
      <trkpt lat="45.84437" lon="-1.11545">
        <ele>16.738</ele>
        <time>2017-03-23T20:22:18Z</time>
      </trkpt>
      <trkpt lat="45.84483" lon="-1.11486">
        <ele>14.815</ele>
        <time>2017-03-23T20:22:38Z</time>
      </trkpt>
      <trkpt lat="45.84502" lon="-1.11436">
        <ele>16.228</ele>
        <time>2017-03-23T20:22:58Z</time>
      </trkpt>
      <trkpt lat="45.84473" lon="-1.11395">
        <ele>17.049</ele>
        <time>2017-03-23T20:23:18Z</time>
      </trkpt>
      <trkpt lat="45.84451" lon="-1.11156">
        <ele>16.022</ele>
        <time>2017-03-23T20:23:38Z</time>
      </trkpt>
      <trkpt lat="45.84434" lon="-1.11083">
        <ele>17.078</ele>
        <time>2017-03-23T20:23:58Z</time>
      </trkpt>
      <trkpt lat="45.8443" lon="-1.11029">
        <ele>16.582</ele>
        <time>2017-03-23T20:24:18Z</time>
      </trkpt>
      <trkpt lat="45.84421" lon="-1.11005">
        <ele>16.218</ele>
        <time>2017-03-23T20:24:38Z</time>
      </trkpt>
      <trkpt lat="45.8438" lon="-1.10958">
        <ele>14.798</ele>
        <time>2017-03-23T20:24:58Z</time>
      </trkpt>
      <trkpt lat="45.8437" lon="-1.1091">
        <ele>14.317</ele>
        <time>2017-03-23T20:25:18Z</time>
      </trkpt>
      <trkpt lat="45.84347" lon="-1.10842">
        <ele>11.808</ele>
        <time>2017-03-23T20:25:38Z</time>
      </trkpt>
      <trkpt lat="45.84285" lon="-1.10727">
        <ele>10.997</ele>
        <time>2017-03-23T20:25:58Z</time>
      </trkpt>
      <trkpt lat="45.84287" lon="-1.10705">
        <ele>11.061</ele>
        <time>2017-03-23T20:26:18Z</time>
      </trkpt>
      <trkpt lat="45.84348" lon="-1.10635">
        <ele>7.518</ele>
        <time>2017-03-23T20:26:38Z</time>
      </trkpt>
      <trkpt lat="45.84405" lon="-1.106">
        <ele>5.551</ele>
        <time>2017-03-23T20:26:58Z</time>
      </trkpt>
      <trkpt lat="45.84418" lon="-1.10549">
        <ele>3.742</ele>
        <time>2017-03-23T20:27:18Z</time>
      </trkpt>
      <trkpt lat="45.84379" lon="-1.10434">
        <ele>3.085</ele>
        <time>2017-03-23T20:27:38Z</time>
      </trkpt>
      <trkpt lat="45.84385" lon="-1.10388">
        <ele>2.151</ele>
        <time>2017-03-23T20:27:58Z</time>
      </trkpt>
      <trkpt lat="45.84373" lon="-1.10362">
        <ele>1.615</ele>
        <time>2017-03-23T20:28:18Z</time>
      </trkpt>
      <trkpt lat="45.84353" lon="-1.10257">
        <ele>2.888</ele>
        <time>2017-03-23T20:28:38Z</time>
      </trkpt>
      <trkpt lat="45.84338" lon="-1.10152">
        <ele>4.624</ele>
        <time>2017-03-23T20:28:58Z</time>
      </trkpt>
      <trkpt lat="45.84372" lon="-1.10093">
        <ele>3.226</ele>
        <time>2017-03-23T20:29:18Z</time>
      </trkpt>
      <trkpt lat="45.84382" lon="-1.10057">
        <ele>2.508</ele>
        <time>2017-03-23T20:29:38Z</time>
      </trkpt>
      <trkpt lat="45.84397" lon="-1.10031">
        <ele>1.084</ele>
        <time>2017-03-23T20:29:58Z</time>
      </trkpt>
      <trkpt lat="45.84396" lon="-1.10009">
        <ele>1.048</ele>
        <time>2017-03-23T20:30:18Z</time>
      </trkpt>
      <trkpt lat="45.84388" lon="-1.09989">
        <ele>1.065</ele>
        <time>2017-03-23T20:30:38Z</time>
      </trkpt>
      <trkpt lat="45.84333" lon="-1.09834">
        <ele>4.058</ele>
        <time>2017-03-23T20:30:58Z</time>
      </trkpt>
      <trkpt lat="45.84314" lon="-1.09765">
        <ele>1.719</ele>
        <time>2017-03-23T20:31:18Z</time>
      </trkpt>
      <trkpt lat="45.84299" lon="-1.09756">
        <ele>2.332</ele>
        <time>2017-03-23T20:31:38Z</time>
      </trkpt>
      <trkpt lat="45.84245" lon="-1.09787">
        <ele>7.238</ele>
        <time>2017-03-23T20:31:58Z</time>
      </trkpt>
      <trkpt lat="45.84229" lon="-1.09786">
        <ele>6.572</ele>
        <time>2017-03-23T20:32:18Z</time>
      </trkpt>
      <trkpt lat="45.84221" lon="-1.09744">
        <ele>4.865</ele>
        <time>2017-03-23T20:32:38Z</time>
      </trkpt>
      <trkpt lat="45.84191" lon="-1.09665">
        <ele>5.368</ele>
        <time>2017-03-23T20:32:58Z</time>
      </trkpt>
      <trkpt lat="45.84173" lon="-1.09593">
        <ele>2.914</ele>
        <time>2017-03-23T20:33:18Z</time>
      </trkpt>
      <trkpt lat="45.84171" lon="-1.0956">
        <ele>2.008</ele>
        <time>2017-03-23T20:33:38Z</time>
      </trkpt>
      <trkpt lat="45.84186" lon="-1.09509">
        <ele>1.292</ele>
        <time>2017-03-23T20:33:58Z</time>
      </trkpt>
      <trkpt lat="45.84177" lon="-1.09466">
        <ele>1.986</ele>
        <time>2017-03-23T20:34:18Z</time>
      </trkpt>
      <trkpt lat="45.84143" lon="-1.09413">
        <ele>1.083</ele>
        <time>2017-03-23T20:34:38Z</time>
      </trkpt>
      <trkpt lat="45.84102" lon="-1.09385">
        <ele>1.746</ele>
        <time>2017-03-23T20:34:58Z</time>
      </trkpt>
      <trkpt lat="45.84047" lon="-1.09299">
        <ele>3.357</ele>
        <time>2017-03-23T20:35:18Z</time>
      </trkpt>
      <trkpt lat="45.83986" lon="-1.09077">
        <ele>4.12</ele>
        <time>2017-03-23T20:35:38Z</time>
      </trkpt>
      <trkpt lat="45.83768" lon="-1.09208">
        <ele>17.036</ele>
        <time>2017-03-23T20:35:58Z</time>
      </trkpt>
      <trkpt lat="45.83762" lon="-1.09174">
        <ele>16.79</ele>
        <time>2017-03-23T20:36:18Z</time>
      </trkpt>
      <trkpt lat="45.83744" lon="-1.09123">
        <ele>16.362</ele>
        <time>2017-03-23T20:36:38Z</time>
      </trkpt>
      <trkpt lat="45.83701" lon="-1.09043">
        <ele>17.383</ele>
        <time>2017-03-23T20:36:58Z</time>
      </trkpt>
      <trkpt lat="45.83651" lon="-1.08914">
        <ele>14.411</ele>
        <time>2017-03-23T20:37:18Z</time>
      </trkpt>
      <trkpt lat="45.83638" lon="-1.08853">
        <ele>13.908</ele>
        <time>2017-03-23T20:37:38Z</time>
      </trkpt>
      <trkpt lat="45.83654" lon="-1.08819">
        <ele>14.392</ele>
        <time>2017-03-23T20:37:58Z</time>
      </trkpt>
      <trkpt lat="45.83697" lon="-1.08744">
        <ele>13.766</ele>
        <time>2017-03-23T20:38:18Z</time>
      </trkpt>
      <trkpt lat="45.83695" lon="-1.08658">
        <ele>11.613</ele>
        <time>2017-03-23T20:38:38Z</time>
      </trkpt>
      <trkpt lat="45.83677" lon="-1.08604">
        <ele>10.716</ele>
        <time>2017-03-23T20:38:58Z</time>
      </trkpt>
      <trkpt lat="45.83746" lon="-1.08518">
        <ele>5.667</ele>
        <time>2017-03-23T20:39:18Z</time>
      </trkpt>
      <trkpt lat="45.83748" lon="-1.08497">
        <ele>4.75</ele>
        <time>2017-03-23T20:39:38Z</time>
      </trkpt>
      <trkpt lat="45.83723" lon="-1.0842">
        <ele>1.066</ele>
        <time>2017-03-23T20:39:58Z</time>
      </trkpt>
      <trkpt lat="45.83697" lon="-1.08393">
        <ele>1.13</ele>
        <time>2017-03-23T20:40:18Z</time>
      </trkpt>
      <trkpt lat="45.83647" lon="-1.08356">
        <ele>1.595</ele>
        <time>2017-03-23T20:40:38Z</time>
      </trkpt>
      <trkpt lat="45.83583" lon="-1.08299">
        <ele>1.849</ele>
        <time>2017-03-23T20:40:58Z</time>
      </trkpt>
      <trkpt lat="45.8344" lon="-1.08199">
        <ele>1.523</ele>
        <time>2017-03-23T20:41:18Z</time>
      </trkpt>
      <trkpt lat="45.8339" lon="-1.08174">
        <ele>1.308</ele>
        <time>2017-03-23T20:41:38Z</time>
      </trkpt>
      <trkpt lat="45.83334" lon="-1.08122">
        <ele>3.315</ele>
        <time>2017-03-23T20:41:58Z</time>
      </trkpt>
      <trkpt lat="45.83305" lon="-1.0807">
        <ele>4.599</ele>
        <time>2017-03-23T20:42:18Z</time>
      </trkpt>
      <trkpt lat="45.83267" lon="-1.08019">
        <ele>3.316</ele>
        <time>2017-03-23T20:42:38Z</time>
      </trkpt>
      <trkpt lat="45.83252" lon="-1.07981">
        <ele>3.019</ele>
        <time>2017-03-23T20:42:58Z</time>
      </trkpt>
      <trkpt lat="45.83231" lon="-1.07966">
        <ele>3.51</ele>
        <time>2017-03-23T20:43:18Z</time>
      </trkpt>
      <trkpt lat="45.83194" lon="-1.07963">
        <ele>4.713</ele>
        <time>2017-03-23T20:43:38Z</time>
      </trkpt>
      <trkpt lat="45.83162" lon="-1.07946">
        <ele>5.359</ele>
        <time>2017-03-23T20:43:58Z</time>
      </trkpt>
      <trkpt lat="45.83423" lon="-1.07255">
        <ele>2.093</ele>
        <time>2017-03-23T20:44:18Z</time>
      </trkpt>
      <trkpt lat="45.83452" lon="-1.07206">
        <ele>0.567</ele>
        <time>2017-03-23T20:44:38Z</time>
      </trkpt>
      <trkpt lat="45.83969" lon="-1.07033">
        <ele>3.681</ele>
        <time>2017-03-23T20:44:58Z</time>
      </trkpt>
      <trkpt lat="45.84015" lon="-1.07029">
        <ele>5.519</ele>
        <time>2017-03-23T20:45:18Z</time>
      </trkpt>
      <trkpt lat="45.84164" lon="-1.07066">
        <ele>6.608</ele>
        <time>2017-03-23T20:45:38Z</time>
      </trkpt>
      <trkpt lat="45.84154" lon="-1.07085">
        <ele>6.012</ele>
        <time>2017-03-23T20:45:58Z</time>
      </trkpt>
      <trkpt lat="45.84153" lon="-1.07106">
        <ele>5.686</ele>
        <time>2017-03-23T20:46:18Z</time>
      </trkpt>
      <trkpt lat="45.84206" lon="-1.07183">
        <ele>4.293</ele>
        <time>2017-03-23T20:46:38Z</time>
      </trkpt>
      <trkpt lat="45.84319" lon="-1.07464">
        <ele>3.176</ele>
        <time>2017-03-23T20:46:58Z</time>
      </trkpt>
      <trkpt lat="45.84471" lon="-1.07614">
        <ele>0.997</ele>
        <time>2017-03-23T20:47:18Z</time>
      </trkpt>
      <trkpt lat="45.84519" lon="-1.07643">
        <ele>0.99</ele>
        <time>2017-03-23T20:47:38Z</time>
      </trkpt>
      <trkpt lat="45.8456" lon="-1.07651">
        <ele>-0.156</ele>
        <time>2017-03-23T20:47:58Z</time>
      </trkpt>
      <trkpt lat="45.84607" lon="-1.07689">
        <ele>2.05</ele>
        <time>2017-03-23T20:48:18Z</time>
      </trkpt>
      <trkpt lat="45.8465" lon="-1.07711">
        <ele>2.485</ele>
        <time>2017-03-23T20:48:38Z</time>
      </trkpt>
      <trkpt lat="45.84664" lon="-1.07726">
        <ele>3.689</ele>
        <time>2017-03-23T20:48:58Z</time>
      </trkpt>
      <trkpt lat="45.84719" lon="-1.07756">
        <ele>3.917</ele>
        <time>2017-03-23T20:49:18Z</time>
      </trkpt>
      <trkpt lat="45.84745" lon="-1.07758">
        <ele>2.708</ele>
        <time>2017-03-23T20:49:38Z</time>
      </trkpt>
      <trkpt lat="45.84768" lon="-1.0777">
        <ele>1.434</ele>
        <time>2017-03-23T20:49:58Z</time>
      </trkpt>
      <trkpt lat="45.84793" lon="-1.07798">
        <ele>1.928</ele>
        <time>2017-03-23T20:50:18Z</time>
      </trkpt>
      <trkpt lat="45.84822" lon="-1.07812">
        <ele>3.825</ele>
        <time>2017-03-23T20:50:38Z</time>
      </trkpt>
      <trkpt lat="45.8484" lon="-1.07839">
        <ele>4.648</ele>
        <time>2017-03-23T20:50:58Z</time>
      </trkpt>
      <trkpt lat="45.84875" lon="-1.07855">
        <ele>3.149</ele>
        <time>2017-03-23T20:51:18Z</time>
      </trkpt>
      <trkpt lat="45.84921" lon="-1.07888">
        <ele>3.052</ele>
        <time>2017-03-23T20:51:38Z</time>
      </trkpt>
      <trkpt lat="45.8508" lon="-1.07928">
        <ele>2.648</ele>
        <time>2017-03-23T20:51:58Z</time>
      </trkpt>
      <trkpt lat="45.85157" lon="-1.07989">
        <ele>2.072</ele>
        <time>2017-03-23T20:52:18Z</time>
      </trkpt>
      <trkpt lat="45.85175" lon="-1.08025">
        <ele>3.638</ele>
        <time>2017-03-23T20:52:38Z</time>
      </trkpt>
      <trkpt lat="45.85208" lon="-1.08068">
        <ele>3.67</ele>
        <time>2017-03-23T20:52:58Z</time>
      </trkpt>
      <trkpt lat="45.85232" lon="-1.08115">
        <ele>2.217</ele>
        <time>2017-03-23T20:53:18Z</time>
      </trkpt>
      <trkpt lat="45.85318" lon="-1.08248">
        <ele>3.108</ele>
        <time>2017-03-23T20:53:38Z</time>
      </trkpt>
      <trkpt lat="45.85337" lon="-1.08357">
        <ele>1.369</ele>
        <time>2017-03-23T20:53:58Z</time>
      </trkpt>
      <trkpt lat="45.85363" lon="-1.08388">
        <ele>1.023</ele>
        <time>2017-03-23T20:54:18Z</time>
      </trkpt>
      <trkpt lat="45.85465" lon="-1.08459">
        <ele>3.78</ele>
        <time>2017-03-23T20:54:38Z</time>
      </trkpt>
      <trkpt lat="45.85559" lon="-1.08593">
        <ele>0.293</ele>
        <time>2017-03-23T20:54:58Z</time>
      </trkpt>
      <trkpt lat="45.85645" lon="-1.08671">
        <ele>2.274</ele>
        <time>2017-03-23T20:55:18Z</time>
      </trkpt>
      <trkpt lat="45.85672" lon="-1.08687">
        <ele>2.927</ele>
        <time>2017-03-23T20:55:38Z</time>
      </trkpt>
      <trkpt lat="45.85772" lon="-1.08575">
        <ele>4.053</ele>
        <time>2017-03-23T20:55:58Z</time>
      </trkpt>
      <trkpt lat="45.85839" lon="-1.08482">
        <ele>4.477</ele>
        <time>2017-03-23T20:56:18Z</time>
      </trkpt>
      <trkpt lat="45.85905" lon="-1.08397">
        <ele>4.195</ele>
        <time>2017-03-23T20:56:38Z</time>
      </trkpt>
      <trkpt lat="45.8601" lon="-1.08272">
        <ele>2.849</ele>
        <time>2017-03-23T20:56:58Z</time>
      </trkpt>
      <trkpt lat="45.86081" lon="-1.08178">
        <ele>4.723</ele>
        <time>2017-03-23T20:57:18Z</time>
      </trkpt>
      <trkpt lat="45.86157" lon="-1.08039">
        <ele>3.908</ele>
        <time>2017-03-23T20:57:38Z</time>
      </trkpt>
      <trkpt lat="45.86166" lon="-1.08003">
        <ele>3.945</ele>
        <time>2017-03-23T20:57:58Z</time>
      </trkpt>
      <trkpt lat="45.86184" lon="-1.07961">
        <ele>3.489</ele>
        <time>2017-03-23T20:58:18Z</time>
      </trkpt>
      <trkpt lat="45.8622" lon="-1.07905">
        <ele>3.186</ele>
        <time>2017-03-23T20:58:38Z</time>
      </trkpt>
      <trkpt lat="45.86251" lon="-1.07824">
        <ele>3.039</ele>
        <time>2017-03-23T20:58:58Z</time>
      </trkpt>
      <trkpt lat="45.86254" lon="-1.07782">
        <ele>2.12</ele>
        <time>2017-03-23T20:59:18Z</time>
      </trkpt>
      <trkpt lat="45.86278" lon="-1.0773">
        <ele>3.043</ele>
        <time>2017-03-23T20:59:38Z</time>
      </trkpt>
      <trkpt lat="45.86286" lon="-1.07698">
        <ele>2.459</ele>
        <time>2017-03-23T20:59:58Z</time>
      </trkpt>
      <trkpt lat="45.86347" lon="-1.07654">
        <ele>1.363</ele>
        <time>2017-03-23T21:00:18Z</time>
      </trkpt>
      <trkpt lat="45.86373" lon="-1.07624">
        <ele>0.961</ele>
        <time>2017-03-23T21:00:38Z</time>
      </trkpt>
      <trkpt lat="45.86483" lon="-1.07454">
        <ele>1.321</ele>
        <time>2017-03-23T21:00:58Z</time>
      </trkpt>
      <trkpt lat="45.86502" lon="-1.07412">
        <ele>2.313</ele>
        <time>2017-03-23T21:01:18Z</time>
      </trkpt>
      <trkpt lat="45.8652" lon="-1.07293">
        <ele>3.508</ele>
        <time>2017-03-23T21:01:38Z</time>
      </trkpt>
      <trkpt lat="45.86521" lon="-1.07235">
        <ele>4.092</ele>
        <time>2017-03-23T21:01:58Z</time>
      </trkpt>
      <trkpt lat="45.86504" lon="-1.07148">
        <ele>3.486</ele>
        <time>2017-03-23T21:02:18Z</time>
      </trkpt>
      <trkpt lat="45.86511" lon="-1.07114">
        <ele>3.413</ele>
        <time>2017-03-23T21:02:38Z</time>
      </trkpt>
      <trkpt lat="45.86799" lon="-1.06964">
        <ele>5.076</ele>
        <time>2017-03-23T21:02:58Z</time>
      </trkpt>
      <trkpt lat="45.86804" lon="-1.06945">
        <ele>5.067</ele>
        <time>2017-03-23T21:03:18Z</time>
      </trkpt>
      <trkpt lat="45.86821" lon="-1.06931">
        <ele>4.21</ele>
        <time>2017-03-23T21:03:38Z</time>
      </trkpt>
      <trkpt lat="45.86822" lon="-1.0687">
        <ele>3.486</ele>
        <time>2017-03-23T21:03:58Z</time>
      </trkpt>
      <trkpt lat="45.86789" lon="-1.06762">
        <ele>4.43</ele>
        <time>2017-03-23T21:04:18Z</time>
      </trkpt>
      <trkpt lat="45.86796" lon="-1.06735">
        <ele>3.576</ele>
        <time>2017-03-23T21:04:38Z</time>
      </trkpt>
      <trkpt lat="45.86819" lon="-1.0672">
        <ele>3.09</ele>
        <time>2017-03-23T21:04:58Z</time>
      </trkpt>
      <trkpt lat="45.86795" lon="-1.0657">
        <ele>1.919</ele>
        <time>2017-03-23T21:05:18Z</time>
      </trkpt>
      <trkpt lat="45.86772" lon="-1.06543">
        <ele>1.308</ele>
        <time>2017-03-23T21:05:38Z</time>
      </trkpt>
      <trkpt lat="45.86733" lon="-1.06533">
        <ele>0.743</ele>
        <time>2017-03-23T21:05:58Z</time>
      </trkpt>
      <trkpt lat="45.86706" lon="-1.06414">
        <ele>0.247</ele>
        <time>2017-03-23T21:06:18Z</time>
      </trkpt>
      <trkpt lat="45.86619" lon="-1.06102">
        <ele>4.054</ele>
        <time>2017-03-23T21:06:38Z</time>
      </trkpt>
      <trkpt lat="45.86543" lon="-1.05861">
        <ele>1.047</ele>
        <time>2017-03-23T21:06:58Z</time>
      </trkpt>
      <trkpt lat="45.86532" lon="-1.05806">
        <ele>1.098</ele>
        <time>2017-03-23T21:07:18Z</time>
      </trkpt>
      <trkpt lat="45.86464" lon="-1.05635">
        <ele>0.371</ele>
        <time>2017-03-23T21:07:38Z</time>
      </trkpt>
      <trkpt lat="45.8639" lon="-1.05477">
        <ele>1.067</ele>
        <time>2017-03-23T21:07:58Z</time>
      </trkpt>
      <trkpt lat="45.86368" lon="-1.05456">
        <ele>1.071</ele>
        <time>2017-03-23T21:08:18Z</time>
      </trkpt>
      <trkpt lat="45.86355" lon="-1.05436">
        <ele>1.038</ele>
        <time>2017-03-23T21:08:38Z</time>
      </trkpt>
      <trkpt lat="45.86327" lon="-1.05338">
        <ele>-1.17</ele>
        <time>2017-03-23T21:08:58Z</time>
      </trkpt>
      <trkpt lat="45.86308" lon="-1.05251">
        <ele>1.017</ele>
        <time>2017-03-23T21:09:18Z</time>
      </trkpt>
      <trkpt lat="45.863" lon="-1.05151">
        <ele>1.008</ele>
        <time>2017-03-23T21:09:38Z</time>
      </trkpt>
      <trkpt lat="45.86281" lon="-1.0508">
        <ele>1.019</ele>
        <time>2017-03-23T21:09:58Z</time>
      </trkpt>
      <trkpt lat="45.86219" lon="-1.04904">
        <ele>-0.143</ele>
        <time>2017-03-23T21:10:18Z</time>
      </trkpt>
      <trkpt lat="45.86191" lon="-1.04845">
        <ele>0.02</ele>
        <time>2017-03-23T21:10:38Z</time>
      </trkpt>
      <trkpt lat="45.86182" lon="-1.04797">
        <ele>0.263</ele>
        <time>2017-03-23T21:10:58Z</time>
      </trkpt>
      <trkpt lat="45.86132" lon="-1.04646">
        <ele>0.874</ele>
        <time>2017-03-23T21:11:18Z</time>
      </trkpt>
      <trkpt lat="45.86009" lon="-1.04381">
        <ele>0.597</ele>
        <time>2017-03-23T21:11:38Z</time>
      </trkpt>
      <trkpt lat="45.85988" lon="-1.0429">
        <ele>0.063</ele>
        <time>2017-03-23T21:11:58Z</time>
      </trkpt>
      <trkpt lat="45.85914" lon="-1.04071">
        <ele>-0.197</ele>
        <time>2017-03-23T21:12:18Z</time>
      </trkpt>
      <trkpt lat="45.85853" lon="-1.03931">
        <ele>0.591</ele>
        <time>2017-03-23T21:12:38Z</time>
      </trkpt>
      <trkpt lat="45.85785" lon="-1.03792">
        <ele>-0.381</ele>
        <time>2017-03-23T21:12:58Z</time>
      </trkpt>
      <trkpt lat="45.85633" lon="-1.03612">
        <ele>1.219</ele>
        <time>2017-03-23T21:13:18Z</time>
      </trkpt>
      <trkpt lat="45.85668" lon="-1.0356">
        <ele>1.008</ele>
        <time>2020-11-18T13:12:45Z</time>
      </trkpt>
      <trkpt lat="45.85607" lon="-1.03528">
        <ele>1.065</ele>
        <time>2020-11-18T13:13:05Z</time>
      </trkpt>
      <trkpt lat="45.85544" lon="-1.03534">
        <ele>1.489</ele>
        <time>2020-11-18T13:13:25Z</time>
      </trkpt>
      <trkpt lat="45.85477" lon="-1.03502">
        <ele>2.166</ele>
        <time>2020-11-18T13:13:45Z</time>
      </trkpt>
      <trkpt lat="45.85416" lon="-1.03516">
        <ele>0.699</ele>
        <time>2020-11-18T13:14:05Z</time>
      </trkpt>
      <trkpt lat="45.85366" lon="-1.03548">
        <ele>1.99</ele>
        <time>2020-11-18T13:14:25Z</time>
      </trkpt>
      <trkpt lat="45.85337" lon="-1.03555">
        <ele>2.083</ele>
        <time>2020-11-18T13:14:45Z</time>
      </trkpt>
      <trkpt lat="45.85292" lon="-1.03586">
        <ele>1.069</ele>
        <time>2020-11-18T13:15:05Z</time>
      </trkpt>
      <trkpt lat="45.85226" lon="-1.03596">
        <ele>0.953</ele>
        <time>2020-11-18T13:15:25Z</time>
      </trkpt>
      <trkpt lat="45.8518" lon="-1.0362">
        <ele>1.295</ele>
        <time>2020-11-18T13:15:45Z</time>
      </trkpt>
      <trkpt lat="45.85153" lon="-1.03614">
        <ele>1.049</ele>
        <time>2020-11-18T13:16:05Z</time>
      </trkpt>
      <trkpt lat="45.85116" lon="-1.03589">
        <ele>0.323</ele>
        <time>2020-11-18T13:16:25Z</time>
      </trkpt>
      <trkpt lat="45.85102" lon="-1.03587">
        <ele>0.108</ele>
        <time>2020-11-18T13:16:45Z</time>
      </trkpt>
      <trkpt lat="45.85025" lon="-1.03513">
        <ele>0.035</ele>
        <time>2020-11-18T13:17:05Z</time>
      </trkpt>
      <trkpt lat="45.84989" lon="-1.03491">
        <ele>0.029</ele>
        <time>2020-11-18T13:17:25Z</time>
      </trkpt>
      <trkpt lat="45.84957" lon="-1.03458">
        <ele>0.096</ele>
        <time>2020-11-18T13:17:45Z</time>
      </trkpt>
      <trkpt lat="45.84941" lon="-1.03422">
        <ele>0.199</ele>
        <time>2020-11-18T13:18:05Z</time>
      </trkpt>
      <trkpt lat="45.8492" lon="-1.03414">
        <ele>0.93</ele>
        <time>2020-11-18T13:18:25Z</time>
      </trkpt>
      <trkpt lat="45.84894" lon="-1.03417">
        <ele>1.053</ele>
        <time>2020-11-18T13:18:45Z</time>
      </trkpt>
      <trkpt lat="45.84833" lon="-1.03385">
        <ele>1.079</ele>
        <time>2020-11-18T13:19:05Z</time>
      </trkpt>
      <trkpt lat="45.84801" lon="-1.03381">
        <ele>-0.223</ele>
        <time>2020-11-18T13:19:25Z</time>
      </trkpt>
      <trkpt lat="45.84703" lon="-1.03397">
        <ele>1.045</ele>
        <time>2020-11-18T13:19:45Z</time>
      </trkpt>
      <trkpt lat="45.84675" lon="-1.03454">
        <ele>2.047</ele>
        <time>2020-11-18T13:20:05Z</time>
      </trkpt>
      <trkpt lat="45.8465" lon="-1.03449">
        <ele>2.011</ele>
        <time>2020-11-18T13:20:25Z</time>
      </trkpt>
      <trkpt lat="45.84622" lon="-1.03419">
        <ele>1.008</ele>
        <time>2020-11-18T13:20:45Z</time>
      </trkpt>
      <trkpt lat="45.84607" lon="-1.03394">
        <ele>1.08</ele>
        <time>2020-11-18T13:21:05Z</time>
      </trkpt>
      <trkpt lat="45.84602" lon="-1.03366">
        <ele>0.414</ele>
        <time>2020-11-18T13:21:25Z</time>
      </trkpt>
      <trkpt lat="45.8459" lon="-1.03335">
        <ele>0.761</ele>
        <time>2020-11-18T13:21:45Z</time>
      </trkpt>
      <trkpt lat="45.84473" lon="-1.03197">
        <ele>0.144</ele>
        <time>2020-11-18T13:22:05Z</time>
      </trkpt>
      <trkpt lat="45.84438" lon="-1.03179">
        <ele>-1.415</ele>
        <time>2020-11-18T13:22:25Z</time>
      </trkpt>
      <trkpt lat="45.84413" lon="-1.03142">
        <ele>-0.968</ele>
        <time>2020-11-18T13:22:45Z</time>
      </trkpt>
      <trkpt lat="45.84383" lon="-1.03126">
        <ele>-0.474</ele>
        <time>2020-11-18T13:23:05Z</time>
      </trkpt>
      <trkpt lat="45.84373" lon="-1.03089">
        <ele>-0.198</ele>
        <time>2020-11-18T13:23:25Z</time>
      </trkpt>
      <trkpt lat="45.84367" lon="-1.03038">
        <ele>0.961</ele>
        <time>2020-11-18T13:23:45Z</time>
      </trkpt>
      <trkpt lat="45.84353" lon="-1.0301">
        <ele>0.321</ele>
        <time>2020-11-18T13:24:05Z</time>
      </trkpt>
      <trkpt lat="45.84299" lon="-1.02982">
        <ele>1.013</ele>
        <time>2020-11-18T13:24:25Z</time>
      </trkpt>
      <trkpt lat="45.8425" lon="-1.02901">
        <ele>-1.008</ele>
        <time>2020-11-18T13:24:45Z</time>
      </trkpt>
      <trkpt lat="45.84223" lon="-1.02883">
        <ele>-0.242</ele>
        <time>2020-11-18T13:25:05Z</time>
      </trkpt>
      <trkpt lat="45.84168" lon="-1.02839">
        <ele>1.086</ele>
        <time>2020-11-18T13:25:25Z</time>
      </trkpt>
      <trkpt lat="45.84161" lon="-1.02801">
        <ele>0.263</ele>
        <time>2020-11-18T13:25:45Z</time>
      </trkpt>
      <trkpt lat="45.84162" lon="-1.02765">
        <ele>-0.426</ele>
        <time>2020-11-18T13:26:05Z</time>
      </trkpt>
      <trkpt lat="45.84137" lon="-1.02687">
        <ele>0.327</ele>
        <time>2020-11-18T13:26:25Z</time>
      </trkpt>
      <trkpt lat="45.84028" lon="-1.02601">
        <ele>1.42</ele>
        <time>2020-11-18T13:26:45Z</time>
      </trkpt>
      <trkpt lat="45.83997" lon="-1.02564">
        <ele>1.016</ele>
        <time>2020-11-18T13:27:05Z</time>
      </trkpt>
      <trkpt lat="45.83961" lon="-1.0249">
        <ele>-0.27</ele>
        <time>2020-11-18T13:27:25Z</time>
      </trkpt>
      <trkpt lat="45.8394" lon="-1.02464">
        <ele>0.359</ele>
        <time>2020-11-18T13:27:45Z</time>
      </trkpt>
      <trkpt lat="45.84585" lon="-1.01545">
        <ele>0.003</ele>
        <time>2020-11-18T13:28:05Z</time>
      </trkpt>
      <trkpt lat="45.84565" lon="-1.01511">
        <ele>0.623</ele>
        <time>2020-11-18T13:28:25Z</time>
      </trkpt>
      <trkpt lat="45.84575" lon="-1.01489">
        <ele>1.108</ele>
        <time>2020-11-18T13:28:45Z</time>
      </trkpt>
      <trkpt lat="45.85552" lon="-1.00522">
        <ele>2.761</ele>
        <time>2020-11-18T13:29:05Z</time>
      </trkpt>
      <trkpt lat="45.85618" lon="-1.00434">
        <ele>2.015</ele>
        <time>2020-11-18T13:29:25Z</time>
      </trkpt>
      <trkpt lat="45.85703" lon="-1.00261">
        <ele>1.372</ele>
        <time>2020-11-18T13:29:45Z</time>
      </trkpt>
      <trkpt lat="45.8626" lon="-0.99149">
        <ele>2.085</ele>
        <time>2020-11-18T13:30:05Z</time>
      </trkpt>
      <trkpt lat="45.86994" lon="-0.97671">
        <ele>3.286</ele>
        <time>2020-11-18T13:30:25Z</time>
      </trkpt>
      <trkpt lat="45.8742" lon="-0.96799">
        <ele>7.299</ele>
        <time>2020-11-18T13:30:45Z</time>
      </trkpt>
      <trkpt lat="45.87467" lon="-0.96595">
        <ele>5.045</ele>
        <time>2020-11-18T13:31:05Z</time>
      </trkpt>
      <trkpt lat="45.87484" lon="-0.96557">
        <ele>5.029</ele>
        <time>2020-11-18T13:31:25Z</time>
      </trkpt>
      <trkpt lat="45.875" lon="-0.96472">
        <ele>5.081</ele>
        <time>2020-11-18T13:31:45Z</time>
      </trkpt>
      <trkpt lat="45.87517" lon="-0.96303">
        <ele>8.961</ele>
        <time>2020-11-18T13:32:05Z</time>
      </trkpt>
      <trkpt lat="45.87608" lon="-0.95846">
        <ele>5.417</ele>
        <time>2020-11-18T13:32:25Z</time>
      </trkpt>
      <trkpt lat="45.87739" lon="-0.94948">
        <ele>5.108</ele>
        <time>2020-11-18T13:32:45Z</time>
      </trkpt>
      <trkpt lat="45.87772" lon="-0.94825">
        <ele>1.544</ele>
        <time>2020-11-18T13:33:05Z</time>
      </trkpt>
      <trkpt lat="45.87807" lon="-0.94743">
        <ele>2.888</ele>
        <time>2020-11-18T13:33:25Z</time>
      </trkpt>
      <trkpt lat="45.87807" lon="-0.94691">
        <ele>2.295</ele>
        <time>2020-11-18T13:33:45Z</time>
      </trkpt>
      <trkpt lat="45.87811" lon="-0.94664">
        <ele>3.758</ele>
        <time>2017-03-23T21:45:18Z</time>
      </trkpt>
      <trkpt lat="45.87818" lon="-0.94633">
        <ele>4.279</ele>
        <time>2017-03-23T21:45:38Z</time>
      </trkpt>
      <trkpt lat="45.87807" lon="-0.94602">
        <ele>6.542</ele>
        <time>2017-03-23T21:45:58Z</time>
      </trkpt>
      <trkpt lat="45.87782" lon="-0.9458">
        <ele>9.148</ele>
        <time>2017-03-23T21:46:18Z</time>
      </trkpt>
      <trkpt lat="45.87754" lon="-0.94565">
        <ele>10.372</ele>
        <time>2017-03-23T21:46:38Z</time>
      </trkpt>
      <trkpt lat="45.87707" lon="-0.94669">
        <ele>6.591</ele>
        <time>2017-03-23T21:46:58Z</time>
      </trkpt>
      <trkpt lat="45.87697" lon="-0.94673">
        <ele>6.781</ele>
        <time>2017-03-23T21:47:18Z</time>
      </trkpt>
      <trkpt lat="45.87671" lon="-0.94654">
        <ele>8.319</ele>
        <time>2017-03-23T21:47:38Z</time>
      </trkpt>
      <trkpt lat="45.87562" lon="-0.94601">
        <ele>8.008</ele>
        <time>2017-03-23T21:47:58Z</time>
      </trkpt>
      <trkpt lat="45.87495" lon="-0.94501">
        <ele>9.825</ele>
        <time>2017-03-23T21:48:18Z</time>
      </trkpt>
      <trkpt lat="45.87413" lon="-0.94343">
        <ele>10.129</ele>
        <time>2017-03-23T21:48:38Z</time>
      </trkpt>
      <trkpt lat="45.87365" lon="-0.9426">
        <ele>10.236</ele>
        <time>2017-03-23T21:48:58Z</time>
      </trkpt>
      <trkpt lat="45.87307" lon="-0.94322">
        <ele>10.589</ele>
        <time>2017-03-23T21:49:18Z</time>
      </trkpt>
      <trkpt lat="45.87252" lon="-0.9434">
        <ele>9.86</ele>
        <time>2017-03-23T21:49:38Z</time>
      </trkpt>
      <trkpt lat="45.87223" lon="-0.94365">
        <ele>8.973</ele>
        <time>2017-03-23T21:49:58Z</time>
      </trkpt>
      <trkpt lat="45.87148" lon="-0.9446">
        <ele>6.539</ele>
        <time>2017-03-23T21:50:18Z</time>
      </trkpt>
      <trkpt lat="45.87141" lon="-0.94405">
        <ele>6.493</ele>
        <time>2017-03-23T21:50:38Z</time>
      </trkpt>
      <trkpt lat="45.87093" lon="-0.94334">
        <ele>6.667</ele>
        <time>2017-03-23T21:50:58Z</time>
      </trkpt>
      <trkpt lat="45.87065" lon="-0.94254">
        <ele>7.081</ele>
        <time>2017-03-23T21:51:18Z</time>
      </trkpt>
      <trkpt lat="45.86979" lon="-0.94108">
        <ele>9.419</ele>
        <time>2017-03-23T21:51:38Z</time>
      </trkpt>
      <trkpt lat="45.86913" lon="-0.94015">
        <ele>7.508</ele>
        <time>2017-03-23T21:51:58Z</time>
      </trkpt>
      <trkpt lat="45.86764" lon="-0.9387">
        <ele>9.032</ele>
        <time>2017-03-23T21:52:18Z</time>
      </trkpt>
      <trkpt lat="45.86688" lon="-0.93813">
        <ele>8.886</ele>
        <time>2017-03-23T21:52:38Z</time>
      </trkpt>
      <trkpt lat="45.86612" lon="-0.93744">
        <ele>10.093</ele>
        <time>2017-03-23T21:52:58Z</time>
      </trkpt>
      <trkpt lat="45.8656" lon="-0.93641">
        <ele>10.936</ele>
        <time>2017-03-23T21:53:18Z</time>
      </trkpt>
      <trkpt lat="45.86431" lon="-0.93465">
        <ele>12.157</ele>
        <time>2017-03-23T21:53:38Z</time>
      </trkpt>
      <trkpt lat="45.86376" lon="-0.93345">
        <ele>13.09</ele>
        <time>2017-03-23T21:53:58Z</time>
      </trkpt>
      <trkpt lat="45.86348" lon="-0.93324">
        <ele>13.386</ele>
        <time>2017-03-23T21:54:18Z</time>
      </trkpt>
      <trkpt lat="45.86155" lon="-0.93304">
        <ele>15.55</ele>
        <time>2017-03-23T21:54:38Z</time>
      </trkpt>
      <trkpt lat="45.86077" lon="-0.93328">
        <ele>15.238</ele>
        <time>2017-03-23T21:54:58Z</time>
      </trkpt>
      <trkpt lat="45.86003" lon="-0.93333">
        <ele>18.97</ele>
        <time>2017-03-23T21:55:18Z</time>
      </trkpt>
      <trkpt lat="45.85929" lon="-0.9333">
        <ele>19.017</ele>
        <time>2017-03-23T21:55:38Z</time>
      </trkpt>
      <trkpt lat="45.85886" lon="-0.93306">
        <ele>20.108</ele>
        <time>2017-03-23T21:55:58Z</time>
      </trkpt>
      <trkpt lat="45.85748" lon="-0.93379">
        <ele>19.759</ele>
        <time>2017-03-23T21:56:18Z</time>
      </trkpt>
      <trkpt lat="45.85715" lon="-0.93384">
        <ele>19.373</ele>
        <time>2017-03-23T21:56:38Z</time>
      </trkpt>
      <trkpt lat="45.85686" lon="-0.93391">
        <ele>19.25</ele>
        <time>2017-03-23T21:56:58Z</time>
      </trkpt>
      <trkpt lat="45.85613" lon="-0.93422">
        <ele>18.733</ele>
        <time>2017-03-23T21:57:18Z</time>
      </trkpt>
      <trkpt lat="45.8553" lon="-0.93471">
        <ele>20.084</ele>
        <time>2017-03-23T21:57:38Z</time>
      </trkpt>
      <trkpt lat="45.85428" lon="-0.93539">
        <ele>19.697</ele>
        <time>2017-03-23T21:57:58Z</time>
      </trkpt>
      <trkpt lat="45.85358" lon="-0.93557">
        <ele>18.813</ele>
        <time>2017-03-23T21:58:18Z</time>
      </trkpt>
      <trkpt lat="45.85286" lon="-0.9356">
        <ele>16.347</ele>
        <time>2017-03-23T21:58:38Z</time>
      </trkpt>
      <trkpt lat="45.85226" lon="-0.9355">
        <ele>15.755</ele>
        <time>2017-03-23T21:58:58Z</time>
      </trkpt>
      <trkpt lat="45.85146" lon="-0.9355">
        <ele>14.407</ele>
        <time>2017-03-23T21:59:18Z</time>
      </trkpt>
      <trkpt lat="45.85118" lon="-0.93522">
        <ele>15.017</ele>
        <time>2017-03-23T21:59:38Z</time>
      </trkpt>
      <trkpt lat="45.85027" lon="-0.93544">
        <ele>14.008</ele>
        <time>2017-03-23T21:59:58Z</time>
      </trkpt>
      <trkpt lat="45.84863" lon="-0.93543">
        <ele>9.011</ele>
        <time>2017-03-23T22:00:18Z</time>
      </trkpt>
      <trkpt lat="45.84797" lon="-0.93516">
        <ele>7.075</ele>
        <time>2017-03-23T22:00:38Z</time>
      </trkpt>
      <trkpt lat="45.84812" lon="-0.93462">
        <ele>8.012</ele>
        <time>2017-03-23T22:00:58Z</time>
      </trkpt>
      <trkpt lat="45.84811" lon="-0.93384">
        <ele>8.245</ele>
        <time>2017-03-23T22:01:18Z</time>
      </trkpt>
      <trkpt lat="45.84821" lon="-0.93318">
        <ele>8.366</ele>
        <time>2017-03-23T22:01:38Z</time>
      </trkpt>
      <trkpt lat="45.84811" lon="-0.93242">
        <ele>8.639</ele>
        <time>2017-03-23T22:01:58Z</time>
      </trkpt>
      <trkpt lat="45.84812" lon="-0.93199">
        <ele>8.675</ele>
        <time>2017-03-23T22:02:18Z</time>
      </trkpt>
      <trkpt lat="45.84822" lon="-0.93174">
        <ele>8.479</ele>
        <time>2017-03-23T22:02:38Z</time>
      </trkpt>
      <trkpt lat="45.84794" lon="-0.93057">
        <ele>7.921</ele>
        <time>2017-03-23T22:02:58Z</time>
      </trkpt>
      <trkpt lat="45.84746" lon="-0.92954">
        <ele>13.241</ele>
        <time>2017-03-23T22:03:18Z</time>
      </trkpt>
      <trkpt lat="45.84713" lon="-0.92794">
        <ele>13.205</ele>
        <time>2017-03-23T22:03:38Z</time>
      </trkpt>
      <trkpt lat="45.84675" lon="-0.92696">
        <ele>13.308</ele>
        <time>2017-03-23T22:03:58Z</time>
      </trkpt>
      <trkpt lat="45.84621" lon="-0.92582">
        <ele>15.018</ele>
        <time>2017-03-23T22:04:18Z</time>
      </trkpt>
      <trkpt lat="45.84593" lon="-0.92461">
        <ele>17.042</ele>
        <time>2017-03-23T22:04:38Z</time>
      </trkpt>
      <trkpt lat="45.84539" lon="-0.92304">
        <ele>18.019</ele>
        <time>2017-03-23T22:04:58Z</time>
      </trkpt>
      <trkpt lat="45.84474" lon="-0.92132">
        <ele>17.062</ele>
        <time>2017-03-23T22:05:18Z</time>
      </trkpt>
      <trkpt lat="45.84422" lon="-0.92064">
        <ele>18.753</ele>
        <time>2017-03-23T22:05:38Z</time>
      </trkpt>
      <trkpt lat="45.84353" lon="-0.92017">
        <ele>18.026</ele>
        <time>2017-03-23T22:05:58Z</time>
      </trkpt>
      <trkpt lat="45.84294" lon="-0.91996">
        <ele>19.432</ele>
        <time>2017-03-23T22:06:18Z</time>
      </trkpt>
      <trkpt lat="45.84258" lon="-0.91978">
        <ele>20.736</ele>
        <time>2017-03-23T22:06:38Z</time>
      </trkpt>
      <trkpt lat="45.84214" lon="-0.91946">
        <ele>21.657</ele>
        <time>2017-03-23T22:06:58Z</time>
      </trkpt>
      <trkpt lat="45.84189" lon="-0.91916">
        <ele>22.6</ele>
        <time>2017-03-23T22:07:18Z</time>
      </trkpt>
      <trkpt lat="45.84162" lon="-0.91828">
        <ele>22.82</ele>
        <time>2017-03-23T22:07:38Z</time>
      </trkpt>
      <trkpt lat="45.84129" lon="-0.91733">
        <ele>19.908</ele>
        <time>2017-03-23T22:07:58Z</time>
      </trkpt>
      <trkpt lat="45.84102" lon="-0.91614">
        <ele>18.091</ele>
        <time>2017-03-23T22:08:18Z</time>
      </trkpt>
      <trkpt lat="45.84087" lon="-0.91582">
        <ele>18.085</ele>
        <time>2017-03-23T22:08:38Z</time>
      </trkpt>
      <trkpt lat="45.84026" lon="-0.91494">
        <ele>15.952</ele>
        <time>2017-03-23T22:08:58Z</time>
      </trkpt>
      <trkpt lat="45.83999" lon="-0.91444">
        <ele>16.055</ele>
        <time>2017-03-23T22:09:18Z</time>
      </trkpt>
      <trkpt lat="45.83863" lon="-0.91292">
        <ele>13.936</ele>
        <time>2017-03-23T22:09:38Z</time>
      </trkpt>
      <trkpt lat="45.83847" lon="-0.91292">
        <ele>13.879</ele>
        <time>2017-03-23T22:09:58Z</time>
      </trkpt>
      <trkpt lat="45.83777" lon="-0.9119">
        <ele>12.845</ele>
        <time>2017-03-23T22:10:18Z</time>
      </trkpt>
      <trkpt lat="45.83731" lon="-0.91141">
        <ele>11.319</ele>
        <time>2017-03-23T22:10:38Z</time>
      </trkpt>
      <trkpt lat="45.83599" lon="-0.90969">
        <ele>12.849</ele>
        <time>2017-03-23T22:10:58Z</time>
      </trkpt>
      <trkpt lat="45.83579" lon="-0.90931">
        <ele>13.202</ele>
        <time>2017-03-23T22:11:18Z</time>
      </trkpt>
      <trkpt lat="45.83555" lon="-0.90872">
        <ele>13.022</ele>
        <time>2017-03-23T22:11:38Z</time>
      </trkpt>
      <trkpt lat="45.83531" lon="-0.90751">
        <ele>10.108</ele>
        <time>2017-03-23T22:11:58Z</time>
      </trkpt>
      <trkpt lat="45.83466" lon="-0.90668">
        <ele>12.56</ele>
        <time>2017-03-23T22:12:18Z</time>
      </trkpt>
      <trkpt lat="45.83395" lon="-0.90543">
        <ele>13.074</ele>
        <time>2017-03-23T22:12:38Z</time>
      </trkpt>
      <trkpt lat="45.83368" lon="-0.90507">
        <ele>13.881</ele>
        <time>2017-03-23T22:12:58Z</time>
      </trkpt>
      <trkpt lat="45.83301" lon="-0.90454">
        <ele>13.034</ele>
        <time>2017-03-23T22:13:18Z</time>
      </trkpt>
      <trkpt lat="45.83249" lon="-0.90462">
        <ele>8.695</ele>
        <time>2020-11-18T14:02:25Z</time>
      </trkpt>
      <trkpt lat="45.83181" lon="-0.90369">
        <ele>10.048</ele>
        <time>2020-11-18T14:02:45Z</time>
      </trkpt>
      <trkpt lat="45.83139" lon="-0.90413">
        <ele>11.344</ele>
        <time>2020-11-18T14:03:05Z</time>
      </trkpt>
      <trkpt lat="45.83092" lon="-0.90425">
        <ele>11.988</ele>
        <time>2020-11-18T14:03:25Z</time>
      </trkpt>
      <trkpt lat="45.83007" lon="-0.90364">
        <ele>14.871</ele>
        <time>2020-11-18T14:03:45Z</time>
      </trkpt>
      <trkpt lat="45.82967" lon="-0.90314">
        <ele>16.841</ele>
        <time>2020-11-18T14:04:05Z</time>
      </trkpt>
      <trkpt lat="45.82934" lon="-0.902">
        <ele>19.415</ele>
        <time>2020-11-18T14:04:25Z</time>
      </trkpt>
      <trkpt lat="45.829" lon="-0.90009">
        <ele>16.208</ele>
        <time>2020-11-18T14:04:45Z</time>
      </trkpt>
      <trkpt lat="45.82855" lon="-0.89911">
        <ele>16.863</ele>
        <time>2020-11-18T14:05:05Z</time>
      </trkpt>
      <trkpt lat="45.82792" lon="-0.89834">
        <ele>15.527</ele>
        <time>2020-11-18T14:05:25Z</time>
      </trkpt>
      <trkpt lat="45.8273" lon="-0.89826">
        <ele>12.754</ele>
        <time>2020-11-18T14:05:45Z</time>
      </trkpt>
      <trkpt lat="45.82665" lon="-0.89772">
        <ele>14.217</ele>
        <time>2020-11-18T14:06:05Z</time>
      </trkpt>
      <trkpt lat="45.82462" lon="-0.89489">
        <ele>13.068</ele>
        <time>2020-11-18T14:06:25Z</time>
      </trkpt>
      <trkpt lat="45.82386" lon="-0.894">
        <ele>14.491</ele>
        <time>2020-11-18T14:06:45Z</time>
      </trkpt>
      <trkpt lat="45.82096" lon="-0.88923">
        <ele>19.767</ele>
        <time>2020-11-18T14:07:05Z</time>
      </trkpt>
      <trkpt lat="45.8198" lon="-0.8874">
        <ele>19.251</ele>
        <time>2020-11-18T14:07:25Z</time>
      </trkpt>
      <trkpt lat="45.81913" lon="-0.88717">
        <ele>15.857</ele>
        <time>2020-11-18T14:07:45Z</time>
      </trkpt>
      <trkpt lat="45.81827" lon="-0.88743">
        <ele>12.6</ele>
        <time>2020-11-18T14:08:05Z</time>
      </trkpt>
      <trkpt lat="45.8176" lon="-0.88728">
        <ele>12.62</ele>
        <time>2020-11-18T14:08:25Z</time>
      </trkpt>
      <trkpt lat="45.81725" lon="-0.88691">
        <ele>13.108</ele>
        <time>2020-11-18T14:08:45Z</time>
      </trkpt>
      <trkpt lat="45.8169" lon="-0.886">
        <ele>15.291</ele>
        <time>2020-11-18T14:09:05Z</time>
      </trkpt>
      <trkpt lat="45.81718" lon="-0.88543">
        <ele>15.035</ele>
        <time>2020-11-18T14:09:25Z</time>
      </trkpt>
      <trkpt lat="45.81746" lon="-0.88297">
        <ele>15.612</ele>
        <time>2020-11-18T14:09:45Z</time>
      </trkpt>
      <trkpt lat="45.81797" lon="-0.88231">
        <ele>19.975</ele>
        <time>2020-11-18T14:10:05Z</time>
      </trkpt>
      <trkpt lat="45.81943" lon="-0.8821">
        <ele>17.686</ele>
        <time>2020-11-18T14:10:25Z</time>
      </trkpt>
      <trkpt lat="45.82009" lon="-0.88186">
        <ele>15.989</ele>
        <time>2020-11-18T14:10:45Z</time>
      </trkpt>
      <trkpt lat="45.82122" lon="-0.8821">
        <ele>15.395</ele>
        <time>2020-11-18T14:11:05Z</time>
      </trkpt>
      <trkpt lat="45.82158" lon="-0.88189">
        <ele>14.599</ele>
        <time>2020-11-18T14:11:25Z</time>
      </trkpt>
      <trkpt lat="45.822" lon="-0.88147">
        <ele>12.853</ele>
        <time>2020-11-18T14:11:45Z</time>
      </trkpt>
      <trkpt lat="45.82306" lon="-0.88095">
        <ele>14.004</ele>
        <time>2020-11-18T14:12:05Z</time>
      </trkpt>
      <trkpt lat="45.82455" lon="-0.87985">
        <ele>10.014</ele>
        <time>2020-11-18T14:12:25Z</time>
      </trkpt>
      <trkpt lat="45.82464" lon="-0.881">
        <ele>10.308</ele>
        <time>2020-11-18T14:12:45Z</time>
      </trkpt>
      <trkpt lat="45.82484" lon="-0.88139">
        <ele>10.481</ele>
        <time>2020-11-18T14:13:05Z</time>
      </trkpt>
      <trkpt lat="45.8256" lon="-0.88152">
        <ele>11.015</ele>
        <time>2020-11-18T14:13:25Z</time>
      </trkpt>
      <trkpt lat="45.82635" lon="-0.88069">
        <ele>11.012</ele>
        <time>2020-11-18T14:13:45Z</time>
      </trkpt>
      <trkpt lat="45.82761" lon="-0.87872">
        <ele>9.275</ele>
        <time>2020-11-18T14:14:05Z</time>
      </trkpt>
      <trkpt lat="45.8279" lon="-0.87806">
        <ele>9.096</ele>
        <time>2020-11-18T14:14:25Z</time>
      </trkpt>
      <trkpt lat="45.82811" lon="-0.87832">
        <ele>8.159</ele>
        <time>2020-11-18T14:14:45Z</time>
      </trkpt>
      <trkpt lat="45.82839" lon="-0.87807">
        <ele>8.715</ele>
        <time>2020-11-18T14:15:05Z</time>
      </trkpt>
      <trkpt lat="45.82861" lon="-0.87804">
        <ele>8.189</ele>
        <time>2020-11-18T14:15:25Z</time>
      </trkpt>
      <trkpt lat="45.82912" lon="-0.87748">
        <ele>13.043</ele>
        <time>2020-11-18T14:15:45Z</time>
      </trkpt>
      <trkpt lat="45.829" lon="-0.87726">
        <ele>15.164</ele>
        <time>2020-11-18T14:16:05Z</time>
      </trkpt>
      <trkpt lat="45.82931" lon="-0.87692">
        <ele>17.61</ele>
        <time>2020-11-18T14:16:25Z</time>
      </trkpt>
      <trkpt lat="45.82897" lon="-0.87616">
        <ele>21.508</ele>
        <time>2020-11-18T14:16:45Z</time>
      </trkpt>
      <trkpt lat="45.82841" lon="-0.87565">
        <ele>24.02</ele>
        <time>2020-11-18T14:17:05Z</time>
      </trkpt>
      <trkpt lat="45.82853" lon="-0.87536">
        <ele>23.884</ele>
        <time>2020-11-18T14:17:25Z</time>
      </trkpt>
      <trkpt lat="45.82808" lon="-0.87402">
        <ele>20.071</ele>
        <time>2020-11-18T14:17:45Z</time>
      </trkpt>
      <trkpt lat="45.82784" lon="-0.87423">
        <ele>20.074</ele>
        <time>2020-11-18T14:18:05Z</time>
      </trkpt>
      <trkpt lat="45.82771" lon="-0.87394">
        <ele>19.415</ele>
        <time>2020-11-18T14:18:25Z</time>
      </trkpt>
      <trkpt lat="45.82704" lon="-0.874">
        <ele>19.138</ele>
        <time>2020-11-18T14:18:45Z</time>
      </trkpt>
      <trkpt lat="45.82644" lon="-0.87449">
        <ele>16.284</ele>
        <time>2020-11-18T14:19:05Z</time>
      </trkpt>
      <trkpt lat="45.82635" lon="-0.87469">
        <ele>15.848</ele>
        <time>2020-11-18T14:19:25Z</time>
      </trkpt>
      <trkpt lat="45.82598" lon="-0.87492">
        <ele>13.442</ele>
        <time>2020-11-18T14:19:45Z</time>
      </trkpt>
      <trkpt lat="45.82589" lon="-0.87477">
        <ele>12.522</ele>
        <time>2017-03-23T22:36:38Z</time>
      </trkpt>
      <trkpt lat="45.82554" lon="-0.87407">
        <ele>12.014</ele>
        <time>2017-03-23T22:36:58Z</time>
      </trkpt>
      <trkpt lat="45.82512" lon="-0.87347">
        <ele>11.408</ele>
        <time>2017-03-23T22:37:18Z</time>
      </trkpt>
      <trkpt lat="45.82495" lon="-0.87248">
        <ele>12.96</ele>
        <time>2017-03-23T22:37:38Z</time>
      </trkpt>
      <trkpt lat="45.82457" lon="-0.87143">
        <ele>12.964</ele>
        <time>2017-03-23T22:37:58Z</time>
      </trkpt>
      <trkpt lat="45.82432" lon="-0.87096">
        <ele>12.381</ele>
        <time>2017-03-23T22:38:18Z</time>
      </trkpt>
      <trkpt lat="45.82418" lon="-0.87053">
        <ele>12.054</ele>
        <time>2017-03-23T22:38:38Z</time>
      </trkpt>
      <trkpt lat="45.82411" lon="-0.87">
        <ele>11.425</ele>
        <time>2017-03-23T22:38:58Z</time>
      </trkpt>
      <trkpt lat="45.82417" lon="-0.869">
        <ele>12.078</ele>
        <time>2017-03-23T22:39:18Z</time>
      </trkpt>
      <trkpt lat="45.82402" lon="-0.86839">
        <ele>11.844</ele>
        <time>2017-03-23T22:39:38Z</time>
      </trkpt>
      <trkpt lat="45.82408" lon="-0.86683">
        <ele>15.798</ele>
        <time>2017-03-23T22:39:58Z</time>
      </trkpt>
      <trkpt lat="45.82397" lon="-0.86631">
        <ele>14.916</ele>
        <time>2017-03-23T22:40:18Z</time>
      </trkpt>
      <trkpt lat="45.82399" lon="-0.86611">
        <ele>15.176</ele>
        <time>2017-03-23T22:40:38Z</time>
      </trkpt>
      <trkpt lat="45.82399" lon="-0.86535">
        <ele>13.913</ele>
        <time>2017-03-23T22:40:58Z</time>
      </trkpt>
      <trkpt lat="45.82366" lon="-0.86429">
        <ele>13.708</ele>
        <time>2017-03-23T22:41:18Z</time>
      </trkpt>
      <trkpt lat="45.82312" lon="-0.8636">
        <ele>15.557</ele>
        <time>2017-03-23T22:41:38Z</time>
      </trkpt>
      <trkpt lat="45.82245" lon="-0.863">
        <ele>11.641</ele>
        <time>2017-03-23T22:41:58Z</time>
      </trkpt>
      <trkpt lat="45.82163" lon="-0.86197">
        <ele>16.848</ele>
        <time>2017-03-23T22:42:18Z</time>
      </trkpt>
      <trkpt lat="45.82153" lon="-0.86165">
        <ele>16.571</ele>
        <time>2017-03-23T22:42:38Z</time>
      </trkpt>
      <trkpt lat="45.82107" lon="-0.86129">
        <ele>14.422</ele>
        <time>2017-03-23T22:42:58Z</time>
      </trkpt>
      <trkpt lat="45.8207" lon="-0.86095">
        <ele>15.965</ele>
        <time>2017-03-23T22:43:18Z</time>
      </trkpt>
      <trkpt lat="45.82005" lon="-0.85986">
        <ele>17.051</ele>
        <time>2017-03-23T22:43:38Z</time>
      </trkpt>
      <trkpt lat="45.81988" lon="-0.85921">
        <ele>14.895</ele>
        <time>2017-03-23T22:43:58Z</time>
      </trkpt>
      <trkpt lat="45.8196" lon="-0.85852">
        <ele>13.416</ele>
        <time>2017-03-23T22:44:18Z</time>
      </trkpt>
      <trkpt lat="45.81922" lon="-0.85775">
        <ele>13.576</ele>
        <time>2017-03-23T22:44:38Z</time>
      </trkpt>
      <trkpt lat="45.81886" lon="-0.85772">
        <ele>11.113</ele>
        <time>2017-03-23T22:44:58Z</time>
      </trkpt>
      <trkpt lat="45.81861" lon="-0.85737">
        <ele>10.508</ele>
        <time>2017-03-23T22:45:18Z</time>
      </trkpt>
      <trkpt lat="45.81841" lon="-0.85682">
        <ele>12.047</ele>
        <time>2017-03-23T22:45:38Z</time>
      </trkpt>
      <trkpt lat="45.81807" lon="-0.85578">
        <ele>14.331</ele>
        <time>2017-03-23T22:45:58Z</time>
      </trkpt>
      <trkpt lat="45.81775" lon="-0.85493">
        <ele>13.838</ele>
        <time>2017-03-23T22:46:18Z</time>
      </trkpt>
      <trkpt lat="45.81782" lon="-0.85486">
        <ele>14.221</ele>
        <time>2017-03-23T22:46:38Z</time>
      </trkpt>
      <trkpt lat="45.81784" lon="-0.85462">
        <ele>14.292</ele>
        <time>2017-03-23T22:46:58Z</time>
      </trkpt>
      <trkpt lat="45.81776" lon="-0.8543">
        <ele>14.515</ele>
        <time>2017-03-23T22:47:18Z</time>
      </trkpt>
      <trkpt lat="45.81775" lon="-0.85363">
        <ele>17.781</ele>
        <time>2017-03-23T22:47:38Z</time>
      </trkpt>
      <trkpt lat="45.81759" lon="-0.85308">
        <ele>17.375</ele>
        <time>2017-03-23T22:47:58Z</time>
      </trkpt>
      <trkpt lat="45.81736" lon="-0.85262">
        <ele>18.648</ele>
        <time>2017-03-23T22:48:18Z</time>
      </trkpt>
      <trkpt lat="45.81669" lon="-0.85176">
        <ele>18.761</ele>
        <time>2017-03-23T22:48:38Z</time>
      </trkpt>
      <trkpt lat="45.81618" lon="-0.85084">
        <ele>20.217</ele>
        <time>2017-03-23T22:48:58Z</time>
      </trkpt>
      <trkpt lat="45.81585" lon="-0.84974">
        <ele>17.108</ele>
        <time>2017-03-23T22:49:18Z</time>
      </trkpt>
      <trkpt lat="45.81537" lon="-0.84964">
        <ele>15.61</ele>
        <time>2017-03-23T22:49:38Z</time>
      </trkpt>
      <trkpt lat="45.81494" lon="-0.84947">
        <ele>15.094</ele>
        <time>2017-03-23T22:49:58Z</time>
      </trkpt>
      <trkpt lat="45.8146" lon="-0.84955">
        <ele>14.241</ele>
        <time>2017-03-23T22:50:18Z</time>
      </trkpt>
      <trkpt lat="45.81428" lon="-0.84936">
        <ele>14.334</ele>
        <time>2017-03-23T22:50:38Z</time>
      </trkpt>
      <trkpt lat="45.81386" lon="-0.84891">
        <ele>13.895</ele>
        <time>2017-03-23T22:50:58Z</time>
      </trkpt>
      <trkpt lat="45.81325" lon="-0.84809">
        <ele>13.628</ele>
        <time>2017-03-23T22:51:18Z</time>
      </trkpt>
      <trkpt lat="45.81279" lon="-0.84695">
        <ele>14.014</ele>
        <time>2017-03-23T22:51:38Z</time>
      </trkpt>
      <trkpt lat="45.8113" lon="-0.84819">
        <ele>14.588</ele>
        <time>2017-03-23T22:51:58Z</time>
      </trkpt>
      <trkpt lat="45.81005" lon="-0.84724">
        <ele>17.928</ele>
        <time>2017-03-23T22:52:18Z</time>
      </trkpt>
      <trkpt lat="45.80904" lon="-0.84589">
        <ele>17.989</ele>
        <time>2017-03-23T22:52:38Z</time>
      </trkpt>
      <trkpt lat="45.80879" lon="-0.84574">
        <ele>17.417</ele>
        <time>2017-03-23T22:52:58Z</time>
      </trkpt>
      <trkpt lat="45.80831" lon="-0.84575">
        <ele>15.608</ele>
        <time>2017-03-23T22:53:18Z</time>
      </trkpt>
      <trkpt lat="45.80822" lon="-0.84611">
        <ele>13.658</ele>
        <time>2017-03-23T22:53:38Z</time>
      </trkpt>
      <trkpt lat="45.80744" lon="-0.84697">
        <ele>11.942</ele>
        <time>2017-03-23T22:53:58Z</time>
      </trkpt>
      <trkpt lat="45.80536" lon="-0.84834">
        <ele>16.129</ele>
        <time>2017-03-23T22:54:18Z</time>
      </trkpt>
      <trkpt lat="45.80528" lon="-0.84814">
        <ele>17.022</ele>
        <time>2017-03-23T22:54:38Z</time>
      </trkpt>
      <trkpt lat="45.80508" lon="-0.8482">
        <ele>19.853</ele>
        <time>2017-03-23T22:54:58Z</time>
      </trkpt>
      <trkpt lat="45.80486" lon="-0.84839">
        <ele>22.086</ele>
        <time>2017-03-23T22:55:18Z</time>
      </trkpt>
      <trkpt lat="45.80411" lon="-0.84679">
        <ele>22.882</ele>
        <time>2017-03-23T22:55:38Z</time>
      </trkpt>
      <trkpt lat="45.80296" lon="-0.84827">
        <ele>30.076</ele>
        <time>2017-03-23T22:55:58Z</time>
      </trkpt>
      <trkpt lat="45.80246" lon="-0.84783">
        <ele>29.259</ele>
        <time>2017-03-23T22:56:18Z</time>
      </trkpt>
      <trkpt lat="45.80172" lon="-0.84758">
        <ele>28.903</ele>
        <time>2017-03-23T22:56:38Z</time>
      </trkpt>
      <trkpt lat="45.80148" lon="-0.8474">
        <ele>29.023</ele>
        <time>2017-03-23T22:56:58Z</time>
      </trkpt>
      <trkpt lat="45.80107" lon="-0.84682">
        <ele>26.308</ele>
        <time>2017-03-23T22:57:18Z</time>
      </trkpt>
      <trkpt lat="45.8007" lon="-0.8463">
        <ele>22.831</ele>
        <time>2017-03-23T22:57:38Z</time>
      </trkpt>
      <trkpt lat="45.80015" lon="-0.84583">
        <ele>24.935</ele>
        <time>2017-03-23T22:57:58Z</time>
      </trkpt>
      <trkpt lat="45.79972" lon="-0.84552">
        <ele>26.942</ele>
        <time>2017-03-23T22:58:18Z</time>
      </trkpt>
      <trkpt lat="45.79928" lon="-0.84536">
        <ele>26.745</ele>
        <time>2017-03-23T22:58:38Z</time>
      </trkpt>
      <trkpt lat="45.79886" lon="-0.84541">
        <ele>27.156</ele>
        <time>2017-03-23T22:58:58Z</time>
      </trkpt>
      <trkpt lat="45.79844" lon="-0.84539">
        <ele>28.689</ele>
        <time>2017-03-23T22:59:18Z</time>
      </trkpt>
      <trkpt lat="45.79773" lon="-0.84506">
        <ele>31.095</ele>
        <time>2017-03-23T22:59:38Z</time>
      </trkpt>
      <trkpt lat="45.7974" lon="-0.84483">
        <ele>32.079</ele>
        <time>2017-03-23T22:59:58Z</time>
      </trkpt>
      <trkpt lat="45.79681" lon="-0.84494">
        <ele>31.049</ele>
        <time>2017-03-23T23:00:18Z</time>
      </trkpt>
      <trkpt lat="45.79556" lon="-0.84471">
        <ele>31.902</ele>
        <time>2017-03-23T23:00:38Z</time>
      </trkpt>
      <trkpt lat="45.79542" lon="-0.84457">
        <ele>32.222</ele>
        <time>2017-03-23T23:00:58Z</time>
      </trkpt>
      <trkpt lat="45.79716" lon="-0.84136">
        <ele>23.408</ele>
        <time>2017-03-23T23:01:18Z</time>
      </trkpt>
      <trkpt lat="45.79675" lon="-0.84109">
        <ele>25.42</ele>
        <time>2017-03-23T23:01:38Z</time>
      </trkpt>
      <trkpt lat="45.79519" lon="-0.8396">
        <ele>25.334</ele>
        <time>2017-03-23T23:01:58Z</time>
      </trkpt>
      <trkpt lat="45.7949" lon="-0.83921">
        <ele>25.251</ele>
        <time>2017-03-23T23:02:18Z</time>
      </trkpt>
      <trkpt lat="45.79466" lon="-0.83868">
        <ele>25.084</ele>
        <time>2017-03-23T23:02:38Z</time>
      </trkpt>
      <trkpt lat="45.79395" lon="-0.83952">
        <ele>27.815</ele>
        <time>2017-03-23T23:02:58Z</time>
      </trkpt>
      <trkpt lat="45.79298" lon="-0.83846">
        <ele>27.118</ele>
        <time>2017-03-23T23:03:18Z</time>
      </trkpt>
      <trkpt lat="45.7916" lon="-0.84122">
        <ele>30.554</ele>
        <time>2017-03-23T23:03:38Z</time>
      </trkpt>
      <trkpt lat="45.79137" lon="-0.84108">
        <ele>29.918</ele>
        <time>2017-03-23T23:03:58Z</time>
      </trkpt>
      <trkpt lat="45.78895" lon="-0.83821">
        <ele>23.835</ele>
        <time>2017-03-23T23:04:18Z</time>
      </trkpt>
      <trkpt lat="45.78889" lon="-0.83805">
        <ele>23.086</ele>
        <time>2017-03-23T23:04:38Z</time>
      </trkpt>
      <trkpt lat="45.78913" lon="-0.83755">
        <ele>23.714</ele>
        <time>2017-03-23T23:04:58Z</time>
      </trkpt>
      <trkpt lat="45.7893" lon="-0.83681">
        <ele>22.208</ele>
        <time>2017-03-23T23:05:18Z</time>
      </trkpt>
      <trkpt lat="45.78887" lon="-0.83654">
        <ele>20.949</ele>
        <time>2017-03-23T23:05:38Z</time>
      </trkpt>
      <trkpt lat="45.78931" lon="-0.83525">
        <ele>22.173</ele>
        <time>2017-03-23T23:05:58Z</time>
      </trkpt>
      <trkpt lat="45.78986" lon="-0.83455">
        <ele>24.45</ele>
        <time>2017-03-23T23:06:18Z</time>
      </trkpt>
      <trkpt lat="45.79003" lon="-0.83418">
        <ele>23.223</ele>
        <time>2017-03-23T23:06:38Z</time>
      </trkpt>
      <trkpt lat="45.79067" lon="-0.83342">
        <ele>22.054</ele>
        <time>2017-03-23T23:06:58Z</time>
      </trkpt>
      <trkpt lat="45.79121" lon="-0.83259">
        <ele>22.757</ele>
        <time>2017-03-23T23:07:18Z</time>
      </trkpt>
      <trkpt lat="45.79148" lon="-0.83167">
        <ele>21.383</ele>
        <time>2017-03-23T23:07:38Z</time>
      </trkpt>
      <trkpt lat="45.79167" lon="-0.83121">
        <ele>21.037</ele>
        <time>2017-03-23T23:07:58Z</time>
      </trkpt>
      <trkpt lat="45.79154" lon="-0.83083">
        <ele>19.512</ele>
        <time>2017-03-23T23:08:18Z</time>
      </trkpt>
      <trkpt lat="45.79124" lon="-0.8309">
        <ele>18.632</ele>
        <time>2017-03-23T23:08:38Z</time>
      </trkpt>
      <trkpt lat="45.79026" lon="-0.83141">
        <ele>18.905</ele>
        <time>2017-03-23T23:08:58Z</time>
      </trkpt>
      <trkpt lat="45.78981" lon="-0.83152">
        <ele>19.208</ele>
        <time>2017-03-23T23:09:18Z</time>
      </trkpt>
      <trkpt lat="45.7895" lon="-0.83141">
        <ele>20.777</ele>
        <time>2017-03-23T23:09:38Z</time>
      </trkpt>
      <trkpt lat="45.78949" lon="-0.83149">
        <ele>20.251</ele>
        <time>2017-03-23T23:09:58Z</time>
      </trkpt>
      <trkpt lat="45.78928" lon="-0.83159">
        <ele>20.058</ele>
        <time>2017-03-23T23:10:18Z</time>
      </trkpt>
      <trkpt lat="45.78803" lon="-0.83163">
        <ele>22.241</ele>
        <time>2017-03-23T23:10:38Z</time>
      </trkpt>
      <trkpt lat="45.78751" lon="-0.83186">
        <ele>22.632</ele>
        <time>2017-03-23T23:10:58Z</time>
      </trkpt>
      <trkpt lat="45.78702" lon="-0.83222">
        <ele>21.025</ele>
        <time>2017-03-23T23:11:18Z</time>
      </trkpt>
      <trkpt lat="45.78665" lon="-0.83272">
        <ele>21.261</ele>
        <time>2017-03-23T23:11:38Z</time>
      </trkpt>
      <trkpt lat="45.78624" lon="-0.83298">
        <ele>19.585</ele>
        <time>2017-03-23T23:11:58Z</time>
      </trkpt>
      <trkpt lat="45.786" lon="-0.833">
        <ele>20.291</ele>
        <time>2017-03-23T23:12:18Z</time>
      </trkpt>
      <trkpt lat="45.78517" lon="-0.83339">
        <ele>22.081</ele>
        <time>2017-03-23T23:12:38Z</time>
      </trkpt>
      <trkpt lat="45.78434" lon="-0.83344">
        <ele>24.019</ele>
        <time>2017-03-23T23:12:58Z</time>
      </trkpt>
      <trkpt lat="45.78394" lon="-0.83357">
        <ele>24.008</ele>
        <time>2017-03-23T23:13:18Z</time>
      </trkpt>
      <trkpt lat="45.78347" lon="-0.83391">
        <ele>22.825</ele>
        <time>2017-03-23T23:13:38Z</time>
      </trkpt>
      <trkpt lat="45.78305" lon="-0.83402">
        <ele>25.149</ele>
        <time>2017-03-23T23:13:58Z</time>
      </trkpt>
      <trkpt lat="45.78289" lon="-0.83318">
        <ele>29.856</ele>
        <time>2017-03-23T23:14:18Z</time>
      </trkpt>
      <trkpt lat="45.78311" lon="-0.83257">
        <ele>32.049</ele>
        <time>2017-03-23T23:14:38Z</time>
      </trkpt>
      <trkpt lat="45.78311" lon="-0.83238">
        <ele>31.95</ele>
        <time>2017-03-23T23:14:58Z</time>
      </trkpt>
      <trkpt lat="45.78388" lon="-0.83164">
        <ele>29.153</ele>
        <time>2017-03-23T23:15:18Z</time>
      </trkpt>
      <trkpt lat="45.78406" lon="-0.83127">
        <ele>29.499</ele>
        <time>2017-03-23T23:15:38Z</time>
      </trkpt>
      <trkpt lat="45.78273" lon="-0.83015">
        <ele>31.153</ele>
        <time>2017-03-23T23:15:58Z</time>
      </trkpt>
      <trkpt lat="45.78238" lon="-0.82997">
        <ele>31.578</ele>
        <time>2017-03-23T23:16:18Z</time>
      </trkpt>
      <trkpt lat="45.7811" lon="-0.82992">
        <ele>31.033</ele>
        <time>2017-03-23T23:16:38Z</time>
      </trkpt>
      <trkpt lat="45.7805" lon="-0.82982">
        <ele>31.426</ele>
        <time>2017-03-23T23:16:58Z</time>
      </trkpt>
      <trkpt lat="45.77928" lon="-0.83278">
        <ele>31.008</ele>
        <time>2017-03-23T23:17:18Z</time>
      </trkpt>
      <trkpt lat="45.7786" lon="-0.83242">
        <ele>31.373</ele>
        <time>2017-03-23T23:17:38Z</time>
      </trkpt>
      <trkpt lat="45.77745" lon="-0.83191">
        <ele>34.097</ele>
        <time>2017-03-23T23:17:58Z</time>
      </trkpt>
      <trkpt lat="45.77695" lon="-0.83187">
        <ele>33.564</ele>
        <time>2017-03-23T23:18:18Z</time>
      </trkpt>
      <trkpt lat="45.77652" lon="-0.83168">
        <ele>33.997</ele>
        <time>2017-03-23T23:18:38Z</time>
      </trkpt>
      <trkpt lat="45.77609" lon="-0.83168">
        <ele>32.978</ele>
        <time>2017-03-23T23:18:58Z</time>
      </trkpt>
      <trkpt lat="45.77573" lon="-0.83154">
        <ele>32.391</ele>
        <time>2017-03-23T23:19:18Z</time>
      </trkpt>
      <trkpt lat="45.77499" lon="-0.83144">
        <ele>32.447</ele>
        <time>2017-03-23T23:19:38Z</time>
      </trkpt>
      <trkpt lat="45.77433" lon="-0.83117">
        <ele>31.731</ele>
        <time>2017-03-23T23:19:58Z</time>
      </trkpt>
      <trkpt lat="45.77361" lon="-0.83076">
        <ele>32.318</ele>
        <time>2017-03-23T23:20:18Z</time>
      </trkpt>
      <trkpt lat="45.77265" lon="-0.83069">
        <ele>36.598</ele>
        <time>2017-03-23T23:20:38Z</time>
      </trkpt>
      <trkpt lat="45.77198" lon="-0.83052">
        <ele>34.117</ele>
        <time>2017-03-23T23:20:58Z</time>
      </trkpt>
      <trkpt lat="45.77126" lon="-0.82997">
        <ele>34.608</ele>
        <time>2017-03-23T23:21:18Z</time>
      </trkpt>
      <trkpt lat="45.77078" lon="-0.82937">
        <ele>39.227</ele>
        <time>2017-03-23T23:21:38Z</time>
      </trkpt>
      <trkpt lat="45.77009" lon="-0.82893">
        <ele>36.651</ele>
        <time>2017-03-23T23:21:58Z</time>
      </trkpt>
      <trkpt lat="45.76873" lon="-0.82828">
        <ele>35.098</ele>
        <time>2017-03-23T23:22:18Z</time>
      </trkpt>
      <trkpt lat="45.76668" lon="-0.82807">
        <ele>34.171</ele>
        <time>2017-03-23T23:22:38Z</time>
      </trkpt>
      <trkpt lat="45.76633" lon="-0.82794">
        <ele>32.292</ele>
        <time>2017-03-23T23:22:58Z</time>
      </trkpt>
      <trkpt lat="45.766" lon="-0.82767">
        <ele>33.235</ele>
        <time>2017-03-23T23:23:18Z</time>
      </trkpt>
      <trkpt lat="45.76458" lon="-0.82594">
        <ele>37.751</ele>
        <time>2017-03-23T23:23:38Z</time>
      </trkpt>
      <trkpt lat="45.76404" lon="-0.82559">
        <ele>37.555</ele>
        <time>2017-03-23T23:23:58Z</time>
      </trkpt>
      <trkpt lat="45.76351" lon="-0.82514">
        <ele>37.355</ele>
        <time>2017-03-23T23:24:18Z</time>
      </trkpt>
      <trkpt lat="45.76274" lon="-0.82387">
        <ele>38.107</ele>
        <time>2017-03-23T23:24:38Z</time>
      </trkpt>
      <trkpt lat="45.76263" lon="-0.82361">
        <ele>38.017</ele>
        <time>2017-03-23T23:24:58Z</time>
      </trkpt>
      <trkpt lat="45.76244" lon="-0.82337">
        <ele>38.008</ele>
        <time>2017-03-23T23:25:18Z</time>
      </trkpt>
      <trkpt lat="45.76212" lon="-0.82314">
        <ele>37.941</ele>
        <time>2017-03-23T23:25:38Z</time>
      </trkpt>
      <trkpt lat="45.76123" lon="-0.8227">
        <ele>38.085</ele>
        <time>2017-03-23T23:25:58Z</time>
      </trkpt>
      <trkpt lat="45.76019" lon="-0.82237">
        <ele>39.812</ele>
        <time>2017-03-23T23:26:18Z</time>
      </trkpt>
      <trkpt lat="45.75978" lon="-0.822">
        <ele>39.045</ele>
        <time>2017-03-23T23:26:38Z</time>
      </trkpt>
      <trkpt lat="45.75919" lon="-0.82125">
        <ele>39.976</ele>
        <time>2017-03-23T23:26:58Z</time>
      </trkpt>
      <trkpt lat="45.75854" lon="-0.82109">
        <ele>40.939</ele>
        <time>2017-03-23T23:27:18Z</time>
      </trkpt>
      <trkpt lat="45.75797" lon="-0.82087">
        <ele>41.085</ele>
        <time>2017-03-23T23:27:38Z</time>
      </trkpt>
      <trkpt lat="45.75685" lon="-0.82089">
        <ele>38.019</ele>
        <time>2017-03-23T23:27:58Z</time>
      </trkpt>
      <trkpt lat="45.75603" lon="-0.8206">
        <ele>37.099</ele>
        <time>2017-03-23T23:28:18Z</time>
      </trkpt>
      <trkpt lat="45.75559" lon="-0.82006">
        <ele>36.107</ele>
        <time>2017-03-23T23:28:38Z</time>
      </trkpt>
      <trkpt lat="45.75488" lon="-0.81898">
        <ele>32.027</ele>
        <time>2017-03-23T23:28:58Z</time>
      </trkpt>
      <trkpt lat="45.75253" lon="-0.81635">
        <ele>35.108</ele>
        <time>2017-03-23T23:29:18Z</time>
      </trkpt>
      <trkpt lat="45.75205" lon="-0.81609">
        <ele>36.695</ele>
        <time>2017-03-23T23:29:38Z</time>
      </trkpt>
      <trkpt lat="45.75168" lon="-0.81618">
        <ele>36.879</ele>
        <time>2017-03-23T23:29:58Z</time>
      </trkpt>
      <trkpt lat="45.75124" lon="-0.81645">
        <ele>34.946</ele>
        <time>2017-03-23T23:30:18Z</time>
      </trkpt>
      <trkpt lat="45.75067" lon="-0.81659">
        <ele>35.299</ele>
        <time>2017-03-23T23:30:38Z</time>
      </trkpt>
      <trkpt lat="45.75002" lon="-0.81607">
        <ele>38.11</ele>
        <time>2017-03-23T23:30:58Z</time>
      </trkpt>
      <trkpt lat="45.74983" lon="-0.81608">
        <ele>37.053</ele>
        <time>2017-03-23T23:31:18Z</time>
      </trkpt>
      <trkpt lat="45.7494" lon="-0.81655">
        <ele>32.329</ele>
        <time>2017-03-23T23:31:38Z</time>
      </trkpt>
      <trkpt lat="45.74917" lon="-0.8167">
        <ele>31.033</ele>
        <time>2017-03-23T23:31:58Z</time>
      </trkpt>
      <trkpt lat="45.74817" lon="-0.81595">
        <ele>31.218</ele>
        <time>2017-03-23T23:32:18Z</time>
      </trkpt>
      <trkpt lat="45.74712" lon="-0.81338">
        <ele>39.198</ele>
        <time>2017-03-23T23:32:38Z</time>
      </trkpt>
      <trkpt lat="45.74648" lon="-0.81259">
        <ele>38.517</ele>
        <time>2017-03-23T23:32:58Z</time>
      </trkpt>
      <trkpt lat="45.74619" lon="-0.81203">
        <ele>39.008</ele>
        <time>2017-03-23T23:33:18Z</time>
      </trkpt>
      <trkpt lat="45.74583" lon="-0.81173">
        <ele>39.047</ele>
        <time>2017-03-23T23:33:38Z</time>
      </trkpt>
      <trkpt lat="45.74555" lon="-0.81066">
        <ele>35.811</ele>
        <time>2017-03-23T23:33:58Z</time>
      </trkpt>
      <trkpt lat="45.74496" lon="-0.80951">
        <ele>31.138</ele>
        <time>2017-03-23T23:34:18Z</time>
      </trkpt>
      <trkpt lat="45.74528" lon="-0.80906">
        <ele>31.011</ele>
        <time>2017-03-23T23:34:38Z</time>
      </trkpt>
      <trkpt lat="45.74575" lon="-0.80855">
        <ele>34.282</ele>
        <time>2017-03-23T23:34:58Z</time>
      </trkpt>
      <trkpt lat="45.74596" lon="-0.80822">
        <ele>33.435</ele>
        <time>2017-03-23T23:35:18Z</time>
      </trkpt>
      <trkpt lat="45.74614" lon="-0.80758">
        <ele>32.031</ele>
        <time>2017-03-23T23:35:38Z</time>
      </trkpt>
      <trkpt lat="45.74631" lon="-0.80669">
        <ele>29.875</ele>
        <time>2017-03-23T23:35:58Z</time>
      </trkpt>
      <trkpt lat="45.74668" lon="-0.80448">
        <ele>29.033</ele>
        <time>2017-03-23T23:36:18Z</time>
      </trkpt>
      <trkpt lat="45.74695" lon="-0.80367">
        <ele>29.023</ele>
        <time>2017-03-23T23:36:38Z</time>
      </trkpt>
      <trkpt lat="45.74734" lon="-0.80333">
        <ele>29.915</ele>
        <time>2017-03-23T23:36:58Z</time>
      </trkpt>
      <trkpt lat="45.74783" lon="-0.80255">
        <ele>33.008</ele>
        <time>2017-03-23T23:37:18Z</time>
      </trkpt>
      <trkpt lat="45.74862" lon="-0.80193">
        <ele>31.099</ele>
        <time>2017-03-23T23:37:38Z</time>
      </trkpt>
      <trkpt lat="45.75063" lon="-0.79924">
        <ele>32.293</ele>
        <time>2017-03-23T23:37:58Z</time>
      </trkpt>
      <trkpt lat="45.75087" lon="-0.79875">
        <ele>29.35</ele>
        <time>2017-03-23T23:38:18Z</time>
      </trkpt>
      <trkpt lat="45.75068" lon="-0.79754">
        <ele>29.633</ele>
        <time>2017-03-23T23:38:38Z</time>
      </trkpt>
      <trkpt lat="45.75071" lon="-0.79726">
        <ele>29.174</ele>
        <time>2017-03-23T23:38:58Z</time>
      </trkpt>
      <trkpt lat="45.75084" lon="-0.7961">
        <ele>27.047</ele>
        <time>2017-03-23T23:39:18Z</time>
      </trkpt>
      <trkpt lat="45.75084" lon="-0.79524">
        <ele>27.843</ele>
        <time>2017-03-23T23:39:38Z</time>
      </trkpt>
      <trkpt lat="45.75177" lon="-0.79194">
        <ele>28.187</ele>
        <time>2017-03-23T23:39:58Z</time>
      </trkpt>
      <trkpt lat="45.7515" lon="-0.79139">
        <ele>28.689</ele>
        <time>2017-03-23T23:40:18Z</time>
      </trkpt>
      <trkpt lat="45.75124" lon="-0.79099">
        <ele>27.606</ele>
        <time>2017-03-23T23:40:38Z</time>
      </trkpt>
      <trkpt lat="45.75043" lon="-0.79024">
        <ele>28.326</ele>
        <time>2017-03-23T23:40:58Z</time>
      </trkpt>
      <trkpt lat="45.74978" lon="-0.78956">
        <ele>25.008</ele>
        <time>2017-03-23T23:41:18Z</time>
      </trkpt>
      <trkpt lat="45.74972" lon="-0.7892">
        <ele>25.044</ele>
        <time>2017-03-23T23:41:38Z</time>
      </trkpt>
      <trkpt lat="45.7499" lon="-0.78878">
        <ele>26.448</ele>
        <time>2017-03-23T23:41:58Z</time>
      </trkpt>
      <trkpt lat="45.74986" lon="-0.78851">
        <ele>27.495</ele>
        <time>2020-11-18T15:25:45Z</time>
      </trkpt>
      <trkpt lat="45.74812" lon="-0.7865">
        <ele>31.298</ele>
        <time>2020-11-18T15:26:05Z</time>
      </trkpt>
      <trkpt lat="45.74762" lon="-0.78624">
        <ele>29.779</ele>
        <time>2020-11-18T15:26:25Z</time>
      </trkpt>
      <trkpt lat="45.74701" lon="-0.78568">
        <ele>28.222</ele>
        <time>2020-11-18T15:26:45Z</time>
      </trkpt>
      <trkpt lat="45.74589" lon="-0.78483">
        <ele>25.938</ele>
        <time>2020-11-18T15:27:05Z</time>
      </trkpt>
      <trkpt lat="45.74474" lon="-0.7842">
        <ele>25.112</ele>
        <time>2020-11-18T15:27:25Z</time>
      </trkpt>
      <trkpt lat="45.74415" lon="-0.78392">
        <ele>23.248</ele>
        <time>2020-11-18T15:27:45Z</time>
      </trkpt>
      <trkpt lat="45.74322" lon="-0.78333">
        <ele>21.461</ele>
        <time>2020-11-18T15:28:05Z</time>
      </trkpt>
      <trkpt lat="45.74421" lon="-0.78151">
        <ele>23.617</ele>
        <time>2020-11-18T15:28:25Z</time>
      </trkpt>
      <trkpt lat="45.74498" lon="-0.78038">
        <ele>22.608</ele>
        <time>2020-11-18T15:28:45Z</time>
      </trkpt>
      <trkpt lat="45.74506" lon="-0.77998">
        <ele>25.02</ele>
        <time>2020-11-18T15:29:05Z</time>
      </trkpt>
      <trkpt lat="45.74498" lon="-0.77939">
        <ele>25.134</ele>
        <time>2020-11-18T15:29:25Z</time>
      </trkpt>
      <trkpt lat="45.74666" lon="-0.7795">
        <ele>24.881</ele>
        <time>2020-11-18T15:29:45Z</time>
      </trkpt>
      <trkpt lat="45.74754" lon="-0.77899">
        <ele>27.644</ele>
        <time>2020-11-18T15:30:05Z</time>
      </trkpt>
      <trkpt lat="45.74893" lon="-0.7795">
        <ele>25.415</ele>
        <time>2020-11-18T15:30:25Z</time>
      </trkpt>
      <trkpt lat="45.74948" lon="-0.77987">
        <ele>24.698</ele>
        <time>2020-11-18T15:30:45Z</time>
      </trkpt>
      <trkpt lat="45.75045" lon="-0.77981">
        <ele>26.654</ele>
        <time>2020-11-18T15:31:05Z</time>
      </trkpt>
      <trkpt lat="45.75187" lon="-0.7786">
        <ele>25.048</ele>
        <time>2020-11-18T15:31:25Z</time>
      </trkpt>
      <trkpt lat="45.75217" lon="-0.7782">
        <ele>24.638</ele>
        <time>2020-11-18T15:31:45Z</time>
      </trkpt>
      <trkpt lat="45.75266" lon="-0.77817">
        <ele>26.07</ele>
        <time>2020-11-18T15:32:05Z</time>
      </trkpt>
      <trkpt lat="45.7544" lon="-0.7786">
        <ele>28.917</ele>
        <time>2020-11-18T15:32:25Z</time>
      </trkpt>
      <trkpt lat="45.7541" lon="-0.77744">
        <ele>29.408</ele>
        <time>2017-03-23T23:50:58Z</time>
      </trkpt>
      <trkpt lat="45.75385" lon="-0.77681">
        <ele>30.659</ele>
        <time>2017-03-23T23:51:18Z</time>
      </trkpt>
      <trkpt lat="45.75334" lon="-0.77484">
        <ele>27.083</ele>
        <time>2017-03-23T23:51:38Z</time>
      </trkpt>
      <trkpt lat="45.75297" lon="-0.77384">
        <ele>28.71</ele>
        <time>2017-03-23T23:51:58Z</time>
      </trkpt>
      <trkpt lat="45.75247" lon="-0.77269">
        <ele>29.193</ele>
        <time>2017-03-23T23:52:18Z</time>
      </trkpt>
      <trkpt lat="45.75222" lon="-0.77223">
        <ele>30.054</ele>
        <time>2017-03-23T23:52:38Z</time>
      </trkpt>
      <trkpt lat="45.75169" lon="-0.77154">
        <ele>28.587</ele>
        <time>2017-03-23T23:52:58Z</time>
      </trkpt>
      <trkpt lat="45.7515" lon="-0.77116">
        <ele>28.913</ele>
        <time>2017-03-23T23:53:18Z</time>
      </trkpt>
      <trkpt lat="45.75107" lon="-0.76954">
        <ele>28.197</ele>
        <time>2017-03-23T23:53:38Z</time>
      </trkpt>
      <trkpt lat="45.75085" lon="-0.76835">
        <ele>28.982</ele>
        <time>2017-03-23T23:53:58Z</time>
      </trkpt>
      <trkpt lat="45.75133" lon="-0.76821">
        <ele>28.043</ele>
        <time>2017-03-23T23:54:18Z</time>
      </trkpt>
      <trkpt lat="45.75162" lon="-0.76797">
        <ele>29.517</ele>
        <time>2017-03-23T23:54:38Z</time>
      </trkpt>
      <trkpt lat="45.75221" lon="-0.7675">
        <ele>32.008</ele>
        <time>2017-03-23T23:54:58Z</time>
      </trkpt>
      <trkpt lat="45.75266" lon="-0.76739">
        <ele>32.424</ele>
        <time>2017-03-23T23:55:18Z</time>
      </trkpt>
      <trkpt lat="45.75284" lon="-0.76727">
        <ele>32.028</ele>
        <time>2017-03-23T23:55:38Z</time>
      </trkpt>
      <trkpt lat="45.75324" lon="-0.76714">
        <ele>32.755</ele>
        <time>2017-03-23T23:55:58Z</time>
      </trkpt>
      <trkpt lat="45.75331" lon="-0.76699">
        <ele>32.978</ele>
        <time>2017-03-23T23:56:18Z</time>
      </trkpt>
      <trkpt lat="45.75325" lon="-0.76629">
        <ele>32.059</ele>
        <time>2017-03-23T23:56:38Z</time>
      </trkpt>
      <trkpt lat="45.75335" lon="-0.76611">
        <ele>32.122</ele>
        <time>2017-03-23T23:56:58Z</time>
      </trkpt>
      <trkpt lat="45.75403" lon="-0.76588">
        <ele>33.648</ele>
        <time>2017-03-23T23:57:18Z</time>
      </trkpt>
      <trkpt lat="45.75469" lon="-0.76573">
        <ele>33.142</ele>
        <time>2017-03-23T23:57:38Z</time>
      </trkpt>
      <trkpt lat="45.75497" lon="-0.76601">
        <ele>32.192</ele>
        <time>2017-03-23T23:57:58Z</time>
      </trkpt>
      <trkpt lat="45.75549" lon="-0.76563">
        <ele>29.073</ele>
        <time>2017-03-23T23:58:18Z</time>
      </trkpt>
      <trkpt lat="45.75615" lon="-0.76545">
        <ele>27.82</ele>
        <time>2017-03-23T23:58:38Z</time>
      </trkpt>
      <trkpt lat="45.75697" lon="-0.7655">
        <ele>24.808</ele>
        <time>2017-03-23T23:58:58Z</time>
      </trkpt>
      <trkpt lat="45.75726" lon="-0.76547">
        <ele>22.925</ele>
        <time>2017-03-23T23:59:18Z</time>
      </trkpt>
      <trkpt lat="45.75721" lon="-0.76498">
        <ele>24.199</ele>
        <time>2017-03-23T23:59:38Z</time>
      </trkpt>
      <trkpt lat="45.75705" lon="-0.76468">
        <ele>25.826</ele>
        <time>2017-03-23T23:59:58Z</time>
      </trkpt>
      <trkpt lat="45.75707" lon="-0.76411">
        <ele>25.929</ele>
        <time>2017-03-24T00:00:18Z</time>
      </trkpt>
      <trkpt lat="45.75688" lon="-0.76294">
        <ele>29.21</ele>
        <time>2017-03-24T00:00:38Z</time>
      </trkpt>
      <trkpt lat="45.75653" lon="-0.76226">
        <ele>32.993</ele>
        <time>2017-03-24T00:00:58Z</time>
      </trkpt>
      <trkpt lat="45.7562" lon="-0.761">
        <ele>33.929</ele>
        <time>2017-03-24T00:01:18Z</time>
      </trkpt>
      <trkpt lat="45.75579" lon="-0.75899">
        <ele>36.393</ele>
        <time>2017-03-24T00:01:38Z</time>
      </trkpt>
      <trkpt lat="45.75558" lon="-0.75854">
        <ele>37.282</ele>
        <time>2017-03-24T00:01:58Z</time>
      </trkpt>
      <trkpt lat="45.75527" lon="-0.75812">
        <ele>36.543</ele>
        <time>2017-03-24T00:02:18Z</time>
      </trkpt>
      <trkpt lat="45.75512" lon="-0.75777">
        <ele>35.717</ele>
        <time>2017-03-24T00:02:38Z</time>
      </trkpt>
      <trkpt lat="45.75496" lon="-0.75639">
        <ele>28.408</ele>
        <time>2017-03-24T00:02:58Z</time>
      </trkpt>
      <trkpt lat="45.7549" lon="-0.75528">
        <ele>31.754</ele>
        <time>2017-03-24T00:03:18Z</time>
      </trkpt>
      <trkpt lat="45.75524" lon="-0.75495">
        <ele>31.328</ele>
        <time>2017-03-24T00:03:38Z</time>
      </trkpt>
      <trkpt lat="45.75549" lon="-0.75458">
        <ele>31.285</ele>
        <time>2017-03-24T00:03:58Z</time>
      </trkpt>
      <trkpt lat="45.75572" lon="-0.75411">
        <ele>31.278</ele>
        <time>2017-03-24T00:04:18Z</time>
      </trkpt>
      <trkpt lat="45.75582" lon="-0.75364">
        <ele>32.079</ele>
        <time>2017-03-24T00:04:38Z</time>
      </trkpt>
      <trkpt lat="45.75581" lon="-0.75321">
        <ele>33.512</ele>
        <time>2017-03-24T00:04:58Z</time>
      </trkpt>
      <trkpt lat="45.75564" lon="-0.75248">
        <ele>37.838</ele>
        <time>2017-03-24T00:05:18Z</time>
      </trkpt>
      <trkpt lat="45.75572" lon="-0.75105">
        <ele>34.952</ele>
        <time>2017-03-24T00:05:38Z</time>
      </trkpt>
      <trkpt lat="45.75528" lon="-0.75092">
        <ele>36.011</ele>
        <time>2017-03-24T00:05:58Z</time>
      </trkpt>
      <trkpt lat="45.75505" lon="-0.75073">
        <ele>35.921</ele>
        <time>2017-03-24T00:06:18Z</time>
      </trkpt>
      <trkpt lat="45.7547" lon="-0.75024">
        <ele>38.103</ele>
        <time>2017-03-24T00:06:38Z</time>
      </trkpt>
      <trkpt lat="45.75513" lon="-0.74953">
        <ele>34.808</ele>
        <time>2017-03-24T00:06:58Z</time>
      </trkpt>
      <trkpt lat="45.75511" lon="-0.74899">
        <ele>34.467</ele>
        <time>2017-03-24T00:07:18Z</time>
      </trkpt>
      <trkpt lat="45.75519" lon="-0.74868">
        <ele>34.831</ele>
        <time>2017-03-24T00:07:38Z</time>
      </trkpt>
      <trkpt lat="45.75594" lon="-0.74813">
        <ele>35.228</ele>
        <time>2017-03-24T00:07:58Z</time>
      </trkpt>
      <trkpt lat="45.75547" lon="-0.74648">
        <ele>33.851</ele>
        <time>2017-03-24T00:08:18Z</time>
      </trkpt>
      <trkpt lat="45.75627" lon="-0.746">
        <ele>34.572</ele>
        <time>2017-03-24T00:08:38Z</time>
      </trkpt>
      <trkpt lat="45.75675" lon="-0.74557">
        <ele>37.645</ele>
        <time>2017-03-24T00:08:58Z</time>
      </trkpt>
      <trkpt lat="45.7569" lon="-0.74523">
        <ele>40.051</ele>
        <time>2017-03-24T00:09:18Z</time>
      </trkpt>
      <trkpt lat="45.75708" lon="-0.74409">
        <ele>42.615</ele>
        <time>2017-03-24T00:09:38Z</time>
      </trkpt>
      <trkpt lat="45.75728" lon="-0.74324">
        <ele>44.445</ele>
        <time>2017-03-24T00:09:58Z</time>
      </trkpt>
      <trkpt lat="45.75753" lon="-0.74162">
        <ele>43.047</ele>
        <time>2017-03-24T00:10:18Z</time>
      </trkpt>
      <trkpt lat="45.75768" lon="-0.74041">
        <ele>46.811</ele>
        <time>2017-03-24T00:10:38Z</time>
      </trkpt>
      <trkpt lat="45.75768" lon="-0.73927">
        <ele>47.108</ele>
        <time>2017-03-24T00:10:58Z</time>
      </trkpt>
      <trkpt lat="45.75779" lon="-0.73862">
        <ele>45.18</ele>
        <time>2017-03-24T00:11:18Z</time>
      </trkpt>
      <trkpt lat="45.7582" lon="-0.73727">
        <ele>44.614</ele>
        <time>2017-03-24T00:11:38Z</time>
      </trkpt>
      <trkpt lat="45.75889" lon="-0.73609">
        <ele>45.131</ele>
        <time>2017-03-24T00:11:58Z</time>
      </trkpt>
      <trkpt lat="45.75946" lon="-0.73524">
        <ele>44.924</ele>
        <time>2017-03-24T00:12:18Z</time>
      </trkpt>
      <trkpt lat="45.75964" lon="-0.73501">
        <ele>44.395</ele>
        <time>2017-03-24T00:12:38Z</time>
      </trkpt>
      <trkpt lat="45.7593" lon="-0.73368">
        <ele>41.258</ele>
        <time>2017-03-24T00:12:58Z</time>
      </trkpt>
      <trkpt lat="45.75934" lon="-0.73342">
        <ele>40.644</ele>
        <time>2017-03-24T00:13:18Z</time>
      </trkpt>
      <trkpt lat="45.75922" lon="-0.73326">
        <ele>39.388</ele>
        <time>2017-03-24T00:13:38Z</time>
      </trkpt>
      <trkpt lat="45.75898" lon="-0.73194">
        <ele>38.722</ele>
        <time>2017-03-24T00:13:58Z</time>
      </trkpt>
      <trkpt lat="45.75875" lon="-0.73127">
        <ele>40.462</ele>
        <time>2017-03-24T00:14:18Z</time>
      </trkpt>
      <trkpt lat="45.75862" lon="-0.73053">
        <ele>43.908</ele>
        <time>2017-03-24T00:14:38Z</time>
      </trkpt>
      <trkpt lat="45.75882" lon="-0.7302">
        <ele>42.008</ele>
        <time>2017-03-24T00:14:58Z</time>
      </trkpt>
      <trkpt lat="45.75879" lon="-0.72892">
        <ele>41.838</ele>
        <time>2017-03-24T00:15:18Z</time>
      </trkpt>
      <trkpt lat="45.7584" lon="-0.72396">
        <ele>54.812</ele>
        <time>2017-03-24T00:15:38Z</time>
      </trkpt>
      <trkpt lat="45.75818" lon="-0.72244">
        <ele>55.149</ele>
        <time>2017-03-24T00:15:58Z</time>
      </trkpt>
      <trkpt lat="45.75812" lon="-0.72102">
        <ele>55.982</ele>
        <time>2017-03-24T00:16:18Z</time>
      </trkpt>
      <trkpt lat="45.75913" lon="-0.71962">
        <ele>56.443</ele>
        <time>2017-03-24T00:16:38Z</time>
      </trkpt>
      <trkpt lat="45.75946" lon="-0.71937">
        <ele>57.216</ele>
        <time>2017-03-24T00:16:58Z</time>
      </trkpt>
      <trkpt lat="45.76066" lon="-0.71733">
        <ele>61.962</ele>
        <time>2017-03-24T00:17:18Z</time>
      </trkpt>
      <trkpt lat="45.76182" lon="-0.71605">
        <ele>56.446</ele>
        <time>2017-03-24T00:17:38Z</time>
      </trkpt>
      <trkpt lat="45.76204" lon="-0.7158">
        <ele>55.596</ele>
        <time>2017-03-24T00:17:58Z</time>
      </trkpt>
      <trkpt lat="45.76232" lon="-0.71562">
        <ele>55.231</ele>
        <time>2017-03-24T00:18:18Z</time>
      </trkpt>
      <trkpt lat="45.76272" lon="-0.7153">
        <ele>57.124</ele>
        <time>2017-03-24T00:18:38Z</time>
      </trkpt>
      <trkpt lat="45.76293" lon="-0.71501">
        <ele>56.908</ele>
        <time>2017-03-24T00:18:58Z</time>
      </trkpt>
      <trkpt lat="45.76268" lon="-0.71444">
        <ele>60.465</ele>
        <time>2017-03-24T00:19:18Z</time>
      </trkpt>
      <trkpt lat="45.76248" lon="-0.71381">
        <ele>61.469</ele>
        <time>2017-03-24T00:19:38Z</time>
      </trkpt>
      <trkpt lat="45.76278" lon="-0.71362">
        <ele>62.066</ele>
        <time>2017-03-24T00:19:58Z</time>
      </trkpt>
      <trkpt lat="45.7631" lon="-0.71354">
        <ele>60.769</ele>
        <time>2017-03-24T00:20:18Z</time>
      </trkpt>
      <trkpt lat="45.76342" lon="-0.71333">
        <ele>58.79</ele>
        <time>2017-03-24T00:20:38Z</time>
      </trkpt>
      <trkpt lat="45.76382" lon="-0.71334">
        <ele>57.233</ele>
        <time>2017-03-24T00:20:58Z</time>
      </trkpt>
      <trkpt lat="45.76437" lon="-0.71346">
        <ele>53.569</ele>
        <time>2017-03-24T00:21:18Z</time>
      </trkpt>
      <trkpt lat="45.76496" lon="-0.71338">
        <ele>52.093</ele>
        <time>2017-03-24T00:21:38Z</time>
      </trkpt>
      <trkpt lat="45.76556" lon="-0.71338">
        <ele>50.856</ele>
        <time>2017-03-24T00:21:58Z</time>
      </trkpt>
      <trkpt lat="45.76744" lon="-0.71255">
        <ele>53.459</ele>
        <time>2017-03-24T00:22:18Z</time>
      </trkpt>
      <trkpt lat="45.77007" lon="-0.7114">
        <ele>72.314</ele>
        <time>2017-03-24T00:22:38Z</time>
      </trkpt>
      <trkpt lat="45.77007" lon="-0.71098">
        <ele>72.308</ele>
        <time>2017-03-24T00:22:58Z</time>
      </trkpt>
      <trkpt lat="45.77039" lon="-0.71048">
        <ele>72.071</ele>
        <time>2017-03-24T00:23:18Z</time>
      </trkpt>
      <trkpt lat="45.7707" lon="-0.70956">
        <ele>71.025</ele>
        <time>2017-03-24T00:23:38Z</time>
      </trkpt>
      <trkpt lat="45.77075" lon="-0.70921">
        <ele>70.812</ele>
        <time>2017-03-24T00:23:58Z</time>
      </trkpt>
      <trkpt lat="45.77035" lon="-0.70758">
        <ele>71.775</ele>
        <time>2017-03-24T00:24:18Z</time>
      </trkpt>
      <trkpt lat="45.77081" lon="-0.70736">
        <ele>71.086</ele>
        <time>2017-03-24T00:24:38Z</time>
      </trkpt>
      <trkpt lat="45.77189" lon="-0.70654">
        <ele>70.169</ele>
        <time>2017-03-24T00:24:58Z</time>
      </trkpt>
      <trkpt lat="45.77277" lon="-0.70608">
        <ele>64.155</ele>
        <time>2017-03-24T00:25:18Z</time>
      </trkpt>
      <trkpt lat="45.77188" lon="-0.70307">
        <ele>72.269</ele>
        <time>2017-03-24T00:25:38Z</time>
      </trkpt>
      <trkpt lat="45.77097" lon="-0.70071">
        <ele>68.592</ele>
        <time>2017-03-24T00:25:58Z</time>
      </trkpt>
      <trkpt lat="45.76932" lon="-0.69728">
        <ele>65.873</ele>
        <time>2017-03-24T00:26:18Z</time>
      </trkpt>
      <trkpt lat="45.76904" lon="-0.69681">
        <ele>69.92</ele>
        <time>2017-03-24T00:26:38Z</time>
      </trkpt>
      <trkpt lat="45.76851" lon="-0.69621">
        <ele>73.408</ele>
        <time>2017-03-24T00:26:58Z</time>
      </trkpt>
      <trkpt lat="45.76798" lon="-0.69457">
        <ele>70.555</ele>
        <time>2017-03-24T00:27:18Z</time>
      </trkpt>
      <trkpt lat="45.76773" lon="-0.69406">
        <ele>68.059</ele>
        <time>2017-03-24T00:27:38Z</time>
      </trkpt>
      <trkpt lat="45.76736" lon="-0.69275">
        <ele>63.496</ele>
        <time>2017-03-24T00:27:58Z</time>
      </trkpt>
      <trkpt lat="45.76683" lon="-0.6912">
        <ele>67.019</ele>
        <time>2017-03-24T00:28:18Z</time>
      </trkpt>
      <trkpt lat="45.76665" lon="-0.69044">
        <ele>67.06</ele>
        <time>2017-03-24T00:28:38Z</time>
      </trkpt>
      <trkpt lat="45.76648" lon="-0.68984">
        <ele>67.723</ele>
        <time>2017-03-24T00:28:58Z</time>
      </trkpt>
      <trkpt lat="45.76616" lon="-0.68916">
        <ele>67.899</ele>
        <time>2017-03-24T00:29:18Z</time>
      </trkpt>
      <trkpt lat="45.76556" lon="-0.68834">
        <ele>68.053</ele>
        <time>2017-03-24T00:29:38Z</time>
      </trkpt>
      <trkpt lat="45.76511" lon="-0.68862">
        <ele>67.328</ele>
        <time>2017-03-24T00:29:58Z</time>
      </trkpt>
      <trkpt lat="45.76472" lon="-0.68841">
        <ele>67.489</ele>
        <time>2017-03-24T00:30:18Z</time>
      </trkpt>
      <trkpt lat="45.76434" lon="-0.68801">
        <ele>70.317</ele>
        <time>2017-03-24T00:30:38Z</time>
      </trkpt>
      <trkpt lat="45.76421" lon="-0.68759">
        <ele>71.808</ele>
        <time>2017-03-24T00:30:58Z</time>
      </trkpt>
      <trkpt lat="45.76429" lon="-0.6874">
        <ele>72.638</ele>
        <time>2017-03-24T00:31:18Z</time>
      </trkpt>
      <trkpt lat="45.7653" lon="-0.68665">
        <ele>75.022</ele>
        <time>2017-03-24T00:31:38Z</time>
      </trkpt>
      <trkpt lat="45.7662" lon="-0.68573">
        <ele>76.299</ele>
        <time>2017-03-24T00:31:58Z</time>
      </trkpt>
      <trkpt lat="45.76631" lon="-0.6855">
        <ele>77.112</ele>
        <time>2017-03-24T00:32:18Z</time>
      </trkpt>
      <trkpt lat="45.76492" lon="-0.68428">
        <ele>73.063</ele>
        <time>2017-03-24T00:32:38Z</time>
      </trkpt>
      <trkpt lat="45.7646" lon="-0.68379">
        <ele>70.286</ele>
        <time>2017-03-24T00:32:58Z</time>
      </trkpt>
      <trkpt lat="45.764" lon="-0.68219">
        <ele>61.822</ele>
        <time>2017-03-24T00:33:18Z</time>
      </trkpt>
      <trkpt lat="45.76344" lon="-0.68084">
        <ele>59.466</ele>
        <time>2017-03-24T00:33:38Z</time>
      </trkpt>
      <trkpt lat="45.76299" lon="-0.67916">
        <ele>51.017</ele>
        <time>2017-03-24T00:33:58Z</time>
      </trkpt>
      <trkpt lat="45.76277" lon="-0.67861">
        <ele>50.187</ele>
        <time>2017-03-24T00:34:18Z</time>
      </trkpt>
      <trkpt lat="45.76233" lon="-0.67805">
        <ele>53.415</ele>
        <time>2017-03-24T00:34:38Z</time>
      </trkpt>
      <trkpt lat="45.76157" lon="-0.67673">
        <ele>57.908</ele>
        <time>2017-03-24T00:34:58Z</time>
      </trkpt>
      <trkpt lat="45.76114" lon="-0.67577">
        <ele>56.827</ele>
        <time>2017-03-24T00:35:18Z</time>
      </trkpt>
      <trkpt lat="45.76072" lon="-0.67451">
        <ele>52.891</ele>
        <time>2017-03-24T00:35:38Z</time>
      </trkpt>
      <trkpt lat="45.76007" lon="-0.67311">
        <ele>48.548</ele>
        <time>2017-03-24T00:35:58Z</time>
      </trkpt>
      <trkpt lat="45.75989" lon="-0.6725">
        <ele>45.251</ele>
        <time>2017-03-24T00:36:18Z</time>
      </trkpt>
      <trkpt lat="45.75969" lon="-0.67156">
        <ele>44.932</ele>
        <time>2017-03-24T00:36:38Z</time>
      </trkpt>
      <trkpt lat="45.75944" lon="-0.6709">
        <ele>45.785</ele>
        <time>2017-03-24T00:36:58Z</time>
      </trkpt>
      <trkpt lat="45.75901" lon="-0.67033">
        <ele>45.761</ele>
        <time>2017-03-24T00:37:18Z</time>
      </trkpt>
      <trkpt lat="45.75872" lon="-0.66967">
        <ele>44.015</ele>
        <time>2017-03-24T00:37:38Z</time>
      </trkpt>
      <trkpt lat="45.75791" lon="-0.66814">
        <ele>36.322</ele>
        <time>2017-03-24T00:37:58Z</time>
      </trkpt>
      <trkpt lat="45.75724" lon="-0.66719">
        <ele>30.062</ele>
        <time>2017-03-24T00:38:18Z</time>
      </trkpt>
      <trkpt lat="45.75803" lon="-0.66628">
        <ele>31.008</ele>
        <time>2017-03-24T00:38:38Z</time>
      </trkpt>
      <trkpt lat="45.75851" lon="-0.66587">
        <ele>29.508</ele>
        <time>2017-03-24T00:38:58Z</time>
      </trkpt>
      <trkpt lat="45.75889" lon="-0.66545">
        <ele>27.628</ele>
        <time>2017-03-24T00:39:18Z</time>
      </trkpt>
      <trkpt lat="45.75925" lon="-0.66526">
        <ele>28.312</ele>
        <time>2017-03-24T00:39:38Z</time>
      </trkpt>
      <trkpt lat="45.75954" lon="-0.66496">
        <ele>29.119</ele>
        <time>2017-03-24T00:39:58Z</time>
      </trkpt>
      <trkpt lat="45.76004" lon="-0.6647">
        <ele>27.942</ele>
        <time>2017-03-24T00:40:18Z</time>
      </trkpt>
      <trkpt lat="45.76057" lon="-0.6642">
        <ele>27.093</ele>
        <time>2017-03-24T00:40:38Z</time>
      </trkpt>
      <trkpt lat="45.76152" lon="-0.66355">
        <ele>22.046</ele>
        <time>2017-03-24T00:40:58Z</time>
      </trkpt>
      <trkpt lat="45.76196" lon="-0.66301">
        <ele>20.252</ele>
        <time>2017-03-24T00:41:18Z</time>
      </trkpt>
      <trkpt lat="45.76212" lon="-0.66266">
        <ele>22.296</ele>
        <time>2017-03-24T00:41:38Z</time>
      </trkpt>
      <trkpt lat="45.76145" lon="-0.66175">
        <ele>25.992</ele>
        <time>2017-03-24T00:41:58Z</time>
      </trkpt>
      <trkpt lat="45.76111" lon="-0.6614">
        <ele>27.073</ele>
        <time>2017-03-24T00:42:18Z</time>
      </trkpt>
      <trkpt lat="45.76067" lon="-0.66112">
        <ele>29.02</ele>
        <time>2017-03-24T00:42:38Z</time>
      </trkpt>
      <trkpt lat="45.75952" lon="-0.66018">
        <ele>37.708</ele>
        <time>2017-03-24T00:42:58Z</time>
      </trkpt>
      <trkpt lat="45.75907" lon="-0.65961">
        <ele>39.735</ele>
        <time>2017-03-24T00:43:18Z</time>
      </trkpt>
      <trkpt lat="45.75825" lon="-0.65958">
        <ele>39.559</ele>
        <time>2017-03-24T00:43:38Z</time>
      </trkpt>
      <trkpt lat="45.75765" lon="-0.65926">
        <ele>41.766</ele>
        <time>2017-03-24T00:43:58Z</time>
      </trkpt>
      <trkpt lat="45.75663" lon="-0.65791">
        <ele>46.199</ele>
        <time>2017-03-24T00:44:18Z</time>
      </trkpt>
      <trkpt lat="45.75634" lon="-0.65735">
        <ele>48.11</ele>
        <time>2017-03-24T00:44:38Z</time>
      </trkpt>
      <trkpt lat="45.75612" lon="-0.65747">
        <ele>48.163</ele>
        <time>2017-03-24T00:44:58Z</time>
      </trkpt>
      <trkpt lat="45.75558" lon="-0.65686">
        <ele>49.019</ele>
        <time>2017-03-24T00:45:18Z</time>
      </trkpt>
      <trkpt lat="45.75533" lon="-0.65644">
        <ele>48.233</ele>
        <time>2017-03-24T00:45:38Z</time>
      </trkpt>
      <trkpt lat="45.7551" lon="-0.65644">
        <ele>48.863</ele>
        <time>2017-03-24T00:45:58Z</time>
      </trkpt>
      <trkpt lat="45.75436" lon="-0.65532">
        <ele>49.444</ele>
        <time>2017-03-24T00:46:18Z</time>
      </trkpt>
      <trkpt lat="45.75386" lon="-0.65435">
        <ele>47.918</ele>
        <time>2017-03-24T00:46:38Z</time>
      </trkpt>
      <trkpt lat="45.75343" lon="-0.65478">
        <ele>46.608</ele>
        <time>2017-03-24T00:46:58Z</time>
      </trkpt>
      <trkpt lat="45.75312" lon="-0.65527">
        <ele>46.262</ele>
        <time>2017-03-24T00:47:18Z</time>
      </trkpt>
      <trkpt lat="45.75303" lon="-0.65532">
        <ele>46.266</ele>
        <time>2017-03-24T00:47:38Z</time>
      </trkpt>
      <trkpt lat="45.75279" lon="-0.65521">
        <ele>46.763</ele>
        <time>2017-03-24T00:47:58Z</time>
      </trkpt>
      <trkpt lat="45.75269" lon="-0.65509">
        <ele>46.926</ele>
        <time>2017-03-24T00:48:18Z</time>
      </trkpt>
      <trkpt lat="45.75238" lon="-0.65532">
        <ele>49.167</ele>
        <time>2017-03-24T00:48:38Z</time>
      </trkpt>
      <trkpt lat="45.75215" lon="-0.65525">
        <ele>50.28</ele>
        <time>2017-03-24T00:48:58Z</time>
      </trkpt>
      <trkpt lat="45.75189" lon="-0.65587">
        <ele>51.256</ele>
        <time>2017-03-24T00:49:18Z</time>
      </trkpt>
      <trkpt lat="45.75111" lon="-0.65626">
        <ele>52.57</ele>
        <time>2017-03-24T00:49:38Z</time>
      </trkpt>
      <trkpt lat="45.75097" lon="-0.65609">
        <ele>53.017</ele>
        <time>2017-03-24T00:49:58Z</time>
      </trkpt>
      <trkpt lat="45.75035" lon="-0.65631">
        <ele>51.387</ele>
        <time>2017-03-24T00:50:18Z</time>
      </trkpt>
      <trkpt lat="45.75026" lon="-0.65568">
        <ele>50.915</ele>
        <time>2017-03-24T00:50:38Z</time>
      </trkpt>
      <trkpt lat="45.74991" lon="-0.65554">
        <ele>48.708</ele>
        <time>2017-03-24T00:50:58Z</time>
      </trkpt>
      <trkpt lat="45.74975" lon="-0.65586">
        <ele>48.147</ele>
        <time>2017-03-24T00:51:18Z</time>
      </trkpt>
      <trkpt lat="45.74939" lon="-0.65626">
        <ele>46.661</ele>
        <time>2017-03-24T00:51:38Z</time>
      </trkpt>
      <trkpt lat="45.74872" lon="-0.65508">
        <ele>41.548</ele>
        <time>2017-03-24T00:51:58Z</time>
      </trkpt>
      <trkpt lat="45.74839" lon="-0.65495">
        <ele>36.881</ele>
        <time>2017-03-24T00:52:18Z</time>
      </trkpt>
      <trkpt lat="45.74848" lon="-0.65445">
        <ele>37.642</ele>
        <time>2017-03-24T00:52:38Z</time>
      </trkpt>
      <trkpt lat="45.74823" lon="-0.65199">
        <ele>32.545</ele>
        <time>2017-03-24T00:52:58Z</time>
      </trkpt>
      <trkpt lat="45.74808" lon="-0.65083">
        <ele>31.481</ele>
        <time>2017-03-24T00:53:18Z</time>
      </trkpt>
      <trkpt lat="45.74772" lon="-0.64984">
        <ele>30.485</ele>
        <time>2017-03-24T00:53:38Z</time>
      </trkpt>
      <trkpt lat="45.74686" lon="-0.64999">
        <ele>29.853</ele>
        <time>2017-03-24T00:53:58Z</time>
      </trkpt>
      <trkpt lat="45.74668" lon="-0.64953">
        <ele>27.604</ele>
        <time>2017-03-24T00:54:18Z</time>
      </trkpt>
      <trkpt lat="45.74656" lon="-0.64888">
        <ele>29.514</ele>
        <time>2017-03-24T00:54:38Z</time>
      </trkpt>
      <trkpt lat="45.74659" lon="-0.64833">
        <ele>30.108</ele>
        <time>2017-03-24T00:54:58Z</time>
      </trkpt>
      <trkpt lat="45.74659" lon="-0.64779">
        <ele>27.641</ele>
        <time>2017-03-24T00:55:18Z</time>
      </trkpt>
      <trkpt lat="45.74667" lon="-0.64738">
        <ele>25.135</ele>
        <time>2017-03-24T00:55:38Z</time>
      </trkpt>
      <trkpt lat="45.74667" lon="-0.64704">
        <ele>22.082</ele>
        <time>2017-03-24T00:55:58Z</time>
      </trkpt>
      <trkpt lat="45.74642" lon="-0.64664">
        <ele>20.925</ele>
        <time>2017-03-24T00:56:18Z</time>
      </trkpt>
      <trkpt lat="45.74632" lon="-0.64622">
        <ele>22.176</ele>
        <time>2017-03-24T00:56:38Z</time>
      </trkpt>
      <trkpt lat="45.74621" lon="-0.64609">
        <ele>22.659</ele>
        <time>2017-03-24T00:56:58Z</time>
      </trkpt>
      <trkpt lat="45.74614" lon="-0.64584">
        <ele>22.995</ele>
        <time>2017-03-24T00:57:18Z</time>
      </trkpt>
      <trkpt lat="45.7458" lon="-0.64559">
        <ele>24.149</ele>
        <time>2017-03-24T00:57:38Z</time>
      </trkpt>
      <trkpt lat="45.74567" lon="-0.64522">
        <ele>23.915</ele>
        <time>2017-03-24T00:57:58Z</time>
      </trkpt>
      <trkpt lat="45.74558" lon="-0.64511">
        <ele>23.965</ele>
        <time>2017-03-24T00:58:18Z</time>
      </trkpt>
      <trkpt lat="45.7455" lon="-0.64486">
        <ele>23.211</ele>
        <time>2017-03-24T00:58:38Z</time>
      </trkpt>
      <trkpt lat="45.7455" lon="-0.64486">
        <ele>23.208</ele>
        <time>2017-03-24T00:58:58Z</time>
      </trkpt>
      <trkpt lat="45.74534" lon="-0.64487">
        <ele>23.847</ele>
        <time>2017-03-24T00:59:18Z</time>
      </trkpt>
      <trkpt lat="45.74509" lon="-0.64324">
        <ele>18.131</ele>
        <time>2017-03-24T00:59:38Z</time>
      </trkpt>
      <trkpt lat="45.74534" lon="-0.64305">
        <ele>15.018</ele>
        <time>2017-03-24T00:59:58Z</time>
      </trkpt>
      <trkpt lat="45.74492" lon="-0.64221">
        <ele>13.351</ele>
        <time>2017-03-24T01:00:18Z</time>
      </trkpt>
      <trkpt lat="45.74465" lon="-0.64161">
        <ele>13.592</ele>
        <time>2017-03-24T01:00:38Z</time>
      </trkpt>
      <trkpt lat="45.74502" lon="-0.64089">
        <ele>18.075</ele>
        <time>2017-03-24T01:00:58Z</time>
      </trkpt>
      <trkpt lat="45.74504" lon="-0.64047">
        <ele>21.571</ele>
        <time>2017-03-24T01:01:18Z</time>
      </trkpt>
      <trkpt lat="45.7453" lon="-0.64005">
        <ele>30.195</ele>
        <time>2017-03-24T01:01:38Z</time>
      </trkpt>
      <trkpt lat="45.74526" lon="-0.63937">
        <ele>30.871</ele>
        <time>2017-03-24T01:01:58Z</time>
      </trkpt>
      <trkpt lat="45.74564" lon="-0.63902">
        <ele>35.241</ele>
        <time>2017-03-24T01:02:18Z</time>
      </trkpt>
      <trkpt lat="45.74613" lon="-0.6387">
        <ele>36.715</ele>
        <time>2017-03-24T01:02:38Z</time>
      </trkpt>
      <trkpt lat="45.7457" lon="-0.63762">
        <ele>32.808</ele>
        <time>2017-03-24T01:02:58Z</time>
      </trkpt>
      <trkpt lat="45.74549" lon="-0.63594">
        <ele>33.013</ele>
        <time>2017-03-24T01:03:18Z</time>
      </trkpt>
      <trkpt lat="45.74524" lon="-0.63599">
        <ele>34.137</ele>
        <time>2017-03-24T01:03:38Z</time>
      </trkpt>
      <trkpt lat="45.745" lon="-0.636">
        <ele>33.824</ele>
        <time>2017-03-24T01:03:58Z</time>
      </trkpt>
      <trkpt lat="45.74507" lon="-0.6353">
        <ele>21.437</ele>
        <time>2017-03-24T01:04:18Z</time>
      </trkpt>
      <trkpt lat="45.74467" lon="-0.63505">
        <ele>14.438</ele>
        <time>2017-03-24T01:04:38Z</time>
      </trkpt>
      <trkpt lat="45.74456" lon="-0.63479">
        <ele>12.391</ele>
        <time>2017-03-24T01:04:58Z</time>
      </trkpt>
      <trkpt lat="45.7448" lon="-0.63451">
        <ele>11.547</ele>
        <time>2017-03-24T01:05:18Z</time>
      </trkpt>
      <trkpt lat="45.74487" lon="-0.63431">
        <ele>11.391</ele>
        <time>2017-03-24T01:05:38Z</time>
      </trkpt>
      <trkpt lat="45.74479" lon="-0.63384">
        <ele>10.889</ele>
        <time>2017-03-24T01:05:58Z</time>
      </trkpt>
      <trkpt lat="45.74485" lon="-0.63341">
        <ele>11.506</ele>
        <time>2017-03-24T01:06:18Z</time>
      </trkpt>
      <trkpt lat="45.74468" lon="-0.63273">
        <ele>11.726</ele>
        <time>2017-03-24T01:06:38Z</time>
      </trkpt>
      <trkpt lat="45.74495" lon="-0.6326">
        <ele>12.708</ele>
        <time>2017-03-24T01:06:58Z</time>
      </trkpt>
      <trkpt lat="45.74501" lon="-0.63252">
        <ele>13.044</ele>
        <time>2017-03-24T01:07:18Z</time>
      </trkpt>
      <trkpt lat="45.74501" lon="-0.63205">
        <ele>12.198</ele>
        <time>2017-03-24T01:07:38Z</time>
      </trkpt>
      <trkpt lat="45.74473" lon="-0.63049">
        <ele>8.725</ele>
        <time>2017-03-24T01:07:58Z</time>
      </trkpt>
      <trkpt lat="45.74479" lon="-0.63038">
        <ele>8.168</ele>
        <time>2020-02-14T19:38:55Z</time>
      </trkpt>
      <trkpt lat="45.74469" lon="-0.62918">
        <ele>6.089</ele>
        <time>2017-03-23T17:20:21Z</time>
      </trkpt>
      <trkpt lat="45.74469" lon="-0.62918">
        <ele>6.092</ele>
        <time>2017-03-23T17:20:21Z</time>
      </trkpt>
      <trkpt lat="45.74484" lon="-0.62915">
        <ele>5.648</ele>
        <time>2017-03-23T17:20:41Z</time>
      </trkpt>
      <trkpt lat="45.74479" lon="-0.62871">
        <ele>6.082</ele>
        <time>2017-03-23T17:21:01Z</time>
      </trkpt>
      <trkpt lat="45.74497" lon="-0.62865">
        <ele>6.069</ele>
        <time>2017-03-23T17:21:21Z</time>
      </trkpt>
      <trkpt lat="45.74499" lon="-0.62857">
        <ele>6.004</ele>
        <time>2017-03-23T17:21:41Z</time>
      </trkpt>
      <trkpt lat="45.74514" lon="-0.62853">
        <ele>6.024</ele>
        <time>2017-03-23T17:22:01Z</time>
      </trkpt>
      <trkpt lat="45.74524" lon="-0.62861">
        <ele>6.008</ele>
        <time>2017-03-23T17:22:21Z</time>
      </trkpt>
      <trkpt lat="45.74538" lon="-0.62855">
        <ele>6.072</ele>
        <time>2017-03-23T17:22:41Z</time>
      </trkpt>
      <trkpt lat="45.74551" lon="-0.62875">
        <ele>5.956</ele>
        <time>2017-03-23T17:23:01Z</time>
      </trkpt>
      <trkpt lat="45.74662" lon="-0.62879">
        <ele>7.143</ele>
        <time>2017-03-23T17:23:21Z</time>
      </trkpt>
      <trkpt lat="45.74704" lon="-0.62842">
        <ele>8.186</ele>
        <time>2017-03-23T17:23:41Z</time>
      </trkpt>
      <trkpt lat="45.74711" lon="-0.62941">
        <ele>7.127</ele>
        <time>2017-03-23T17:24:01Z</time>
      </trkpt>
      <trkpt lat="45.74724" lon="-0.62943">
        <ele>7.09</ele>
        <time>2017-03-23T17:24:21Z</time>
      </trkpt>
      <trkpt lat="45.74895" lon="-0.6303">
        <ele>4.916</ele>
        <time>2017-03-23T17:24:41Z</time>
      </trkpt>
      <trkpt lat="45.74945" lon="-0.63049">
        <ele>4.04</ele>
        <time>2017-03-23T17:25:01Z</time>
      </trkpt>
      <trkpt lat="45.74995" lon="-0.63059">
        <ele>3.717</ele>
        <time>2017-03-23T17:25:21Z</time>
      </trkpt>
      <trkpt lat="45.75009" lon="-0.63049">
        <ele>5.387</ele>
        <time>2017-03-23T17:25:41Z</time>
      </trkpt>
      <trkpt lat="45.75025" lon="-0.63063">
        <ele>6.915</ele>
        <time>2017-03-23T17:26:01Z</time>
      </trkpt>
      <trkpt lat="45.75048" lon="-0.63066">
        <ele>7.808</ele>
        <time>2017-03-23T17:26:21Z</time>
      </trkpt>
      <trkpt lat="45.7513" lon="-0.63047">
        <ele>6.387</ele>
        <time>2017-03-23T17:26:41Z</time>
      </trkpt>
      <trkpt lat="45.75204" lon="-0.63013">
        <ele>4.481</ele>
        <time>2017-03-23T17:27:01Z</time>
      </trkpt>
      <trkpt lat="45.75271" lon="-0.6297">
        <ele>5.078</ele>
        <time>2017-03-23T17:27:21Z</time>
      </trkpt>
      <trkpt lat="45.75313" lon="-0.62924">
        <ele>5.151</ele>
        <time>2017-03-23T17:27:41Z</time>
      </trkpt>
      <trkpt lat="45.75337" lon="-0.62894">
        <ele>5.062</ele>
        <time>2017-03-23T17:28:01Z</time>
      </trkpt>
      <trkpt lat="45.75354" lon="-0.6286">
        <ele>5.015</ele>
        <time>2017-03-23T17:28:21Z</time>
      </trkpt>
      <trkpt lat="45.75357" lon="-0.62806">
        <ele>6.011</ele>
        <time>2017-03-23T17:28:41Z</time>
      </trkpt>
      <trkpt lat="45.75367" lon="-0.62766">
        <ele>6.565</ele>
        <time>2017-03-23T17:29:01Z</time>
      </trkpt>
      <trkpt lat="45.75372" lon="-0.62711">
        <ele>5.488</ele>
        <time>2017-03-23T17:29:21Z</time>
      </trkpt>
      <trkpt lat="45.75358" lon="-0.62582">
        <ele>3.624</ele>
        <time>2017-03-23T17:29:41Z</time>
      </trkpt>
      <trkpt lat="45.75349" lon="-0.62582">
        <ele>2.626</ele>
        <time>2017-03-23T17:30:01Z</time>
      </trkpt>
      <trkpt lat="45.75345" lon="-0.62566">
        <ele>1.708</ele>
        <time>2017-03-23T17:30:21Z</time>
      </trkpt>
      <trkpt lat="45.75347" lon="-0.62535">
        <ele>1.514</ele>
        <time>2017-03-23T17:30:41Z</time>
      </trkpt>
      <trkpt lat="45.7534" lon="-0.6245">
        <ele>4.088</ele>
        <time>2017-03-23T17:31:01Z</time>
      </trkpt>
      <trkpt lat="45.75341" lon="-0.62419">
        <ele>4.995</ele>
        <time>2017-03-23T17:31:21Z</time>
      </trkpt>
      <trkpt lat="45.75348" lon="-0.62382">
        <ele>6.058</ele>
        <time>2017-03-23T17:31:41Z</time>
      </trkpt>
      <trkpt lat="45.75352" lon="-0.62343">
        <ele>5.659</ele>
        <time>2017-03-23T17:32:01Z</time>
      </trkpt>
      <trkpt lat="45.75363" lon="-0.62294">
        <ele>4.022</ele>
        <time>2017-03-23T17:32:21Z</time>
      </trkpt>
      <trkpt lat="45.7538" lon="-0.62265">
        <ele>4.058</ele>
        <time>2017-03-23T17:32:41Z</time>
      </trkpt>
      <trkpt lat="45.75416" lon="-0.62212">
        <ele>3.062</ele>
        <time>2017-03-23T17:33:01Z</time>
      </trkpt>
      <trkpt lat="45.75425" lon="-0.62177">
        <ele>2.179</ele>
        <time>2017-03-23T17:33:21Z</time>
      </trkpt>
      <trkpt lat="45.75425" lon="-0.62145">
        <ele>2.505</ele>
        <time>2017-03-23T17:33:41Z</time>
      </trkpt>
      <trkpt lat="45.75393" lon="-0.62068">
        <ele>2.125</ele>
        <time>2017-03-23T17:34:01Z</time>
      </trkpt>
      <trkpt lat="45.75381" lon="-0.62015">
        <ele>3.308</ele>
        <time>2017-03-23T17:34:21Z</time>
      </trkpt>
      <trkpt lat="45.75362" lon="-0.61883">
        <ele>8.293</ele>
        <time>2017-03-23T17:34:41Z</time>
      </trkpt>
      <trkpt lat="45.75441" lon="-0.61829">
        <ele>7.247</ele>
        <time>2017-03-23T17:35:01Z</time>
      </trkpt>
      <trkpt lat="45.75543" lon="-0.61796">
        <ele>7.084</ele>
        <time>2017-03-23T17:35:21Z</time>
      </trkpt>
      <trkpt lat="45.75637" lon="-0.61797">
        <ele>10.067</ele>
        <time>2017-03-23T17:35:41Z</time>
      </trkpt>
      <trkpt lat="45.75789" lon="-0.61821">
        <ele>10.248</ele>
        <time>2017-03-23T17:36:01Z</time>
      </trkpt>
      <trkpt lat="45.7583" lon="-0.61818">
        <ele>10.611</ele>
        <time>2017-03-23T17:36:21Z</time>
      </trkpt>
      <trkpt lat="45.75863" lon="-0.61783">
        <ele>11.767</ele>
        <time>2017-03-23T17:36:41Z</time>
      </trkpt>
      <trkpt lat="45.75877" lon="-0.6174">
        <ele>12.611</ele>
        <time>2017-03-23T17:37:01Z</time>
      </trkpt>
      <trkpt lat="45.75884" lon="-0.61676">
        <ele>13.892</ele>
        <time>2017-03-23T17:37:21Z</time>
      </trkpt>
      <trkpt lat="45.75897" lon="-0.61665">
        <ele>14.773</ele>
        <time>2017-03-23T17:37:41Z</time>
      </trkpt>
      <trkpt lat="45.75912" lon="-0.61632">
        <ele>17.32</ele>
        <time>2017-03-23T17:38:01Z</time>
      </trkpt>
      <trkpt lat="45.75985" lon="-0.61565">
        <ele>19.208</ele>
        <time>2017-03-23T17:38:21Z</time>
      </trkpt>
      <trkpt lat="45.76011" lon="-0.61521">
        <ele>20.295</ele>
        <time>2017-03-23T17:38:41Z</time>
      </trkpt>
      <trkpt lat="45.76024" lon="-0.61472">
        <ele>18.459</ele>
        <time>2017-03-23T17:39:01Z</time>
      </trkpt>
      <trkpt lat="45.76007" lon="-0.61274">
        <ele>15.056</ele>
        <time>2017-03-23T17:39:21Z</time>
      </trkpt>
      <trkpt lat="45.75994" lon="-0.61228">
        <ele>15.069</ele>
        <time>2017-03-23T17:39:41Z</time>
      </trkpt>
      <trkpt lat="45.75976" lon="-0.61193">
        <ele>15.55</ele>
        <time>2017-03-23T17:40:01Z</time>
      </trkpt>
      <trkpt lat="45.75768" lon="-0.6094">
        <ele>20.983</ele>
        <time>2017-03-23T17:40:21Z</time>
      </trkpt>
      <trkpt lat="45.75704" lon="-0.60917">
        <ele>22.479</ele>
        <time>2017-03-23T17:40:41Z</time>
      </trkpt>
      <trkpt lat="45.75717" lon="-0.60787">
        <ele>12.773</ele>
        <time>2017-03-23T17:41:01Z</time>
      </trkpt>
      <trkpt lat="45.75739" lon="-0.60779">
        <ele>16.224</ele>
        <time>2017-03-23T17:41:21Z</time>
      </trkpt>
      <trkpt lat="45.75894" lon="-0.60851">
        <ele>27.604</ele>
        <time>2017-03-23T17:41:41Z</time>
      </trkpt>
      <trkpt lat="45.75921" lon="-0.60859">
        <ele>27.714</ele>
        <time>2017-03-23T17:42:01Z</time>
      </trkpt>
      <trkpt lat="45.75957" lon="-0.60906">
        <ele>25.408</ele>
        <time>2017-03-23T17:42:21Z</time>
      </trkpt>
      <trkpt lat="45.75989" lon="-0.60922">
        <ele>29.788</ele>
        <time>2017-03-23T17:42:41Z</time>
      </trkpt>
      <trkpt lat="45.76013" lon="-0.6089">
        <ele>36.852</ele>
        <time>2017-03-23T17:43:01Z</time>
      </trkpt>
      <trkpt lat="45.76137" lon="-0.60849">
        <ele>49.349</ele>
        <time>2017-03-23T17:43:21Z</time>
      </trkpt>
      <trkpt lat="45.76156" lon="-0.60827">
        <ele>51.432</ele>
        <time>2017-03-23T17:43:41Z</time>
      </trkpt>
      <trkpt lat="45.76191" lon="-0.60736">
        <ele>55.683</ele>
        <time>2017-03-23T17:44:01Z</time>
      </trkpt>
      <trkpt lat="45.76231" lon="-0.60652">
        <ele>57.946</ele>
        <time>2017-03-23T17:44:21Z</time>
      </trkpt>
      <trkpt lat="45.76263" lon="-0.6055">
        <ele>56.642</ele>
        <time>2017-03-23T17:44:41Z</time>
      </trkpt>
      <trkpt lat="45.76398" lon="-0.60509">
        <ele>59.756</ele>
        <time>2017-03-23T17:45:01Z</time>
      </trkpt>
      <trkpt lat="45.76466" lon="-0.60441">
        <ele>56.875</ele>
        <time>2017-03-23T17:45:21Z</time>
      </trkpt>
      <trkpt lat="45.76493" lon="-0.60431">
        <ele>55.728</ele>
        <time>2017-03-23T17:45:41Z</time>
      </trkpt>
      <trkpt lat="45.76516" lon="-0.60363">
        <ele>54.82</ele>
        <time>2017-03-23T17:46:01Z</time>
      </trkpt>
      <trkpt lat="45.76516" lon="-0.60363">
        <ele>54.808</ele>
        <time>2017-03-23T17:46:21Z</time>
      </trkpt>
      <trkpt lat="45.76597" lon="-0.60289">
        <ele>54.733</ele>
        <time>2017-03-23T17:46:41Z</time>
      </trkpt>
      <trkpt lat="45.76625" lon="-0.60293">
        <ele>55.047</ele>
        <time>2017-03-23T17:47:01Z</time>
      </trkpt>
      <trkpt lat="45.7665" lon="-0.60275">
        <ele>54.184</ele>
        <time>2017-03-23T17:47:21Z</time>
      </trkpt>
      <trkpt lat="45.76666" lon="-0.60276">
        <ele>53.047</ele>
        <time>2017-03-23T17:47:41Z</time>
      </trkpt>
      <trkpt lat="45.76696" lon="-0.60269">
        <ele>48.838</ele>
        <time>2017-03-23T17:48:01Z</time>
      </trkpt>
      <trkpt lat="45.76721" lon="-0.60256">
        <ele>46.171</ele>
        <time>2017-03-23T17:48:21Z</time>
      </trkpt>
      <trkpt lat="45.76735" lon="-0.60257">
        <ele>43.817</ele>
        <time>2017-03-23T17:48:41Z</time>
      </trkpt>
      <trkpt lat="45.76787" lon="-0.6022">
        <ele>34.621</ele>
        <time>2017-03-23T17:49:01Z</time>
      </trkpt>
      <trkpt lat="45.76802" lon="-0.60221">
        <ele>32.512</ele>
        <time>2017-03-23T17:49:21Z</time>
      </trkpt>
      <trkpt lat="45.76838" lon="-0.60204">
        <ele>32.832</ele>
        <time>2017-03-23T17:49:41Z</time>
      </trkpt>
      <trkpt lat="45.76872" lon="-0.60223">
        <ele>35.205</ele>
        <time>2017-03-23T17:50:01Z</time>
      </trkpt>
      <trkpt lat="45.76916" lon="-0.60278">
        <ele>36.908</ele>
        <time>2017-03-23T17:50:21Z</time>
      </trkpt>
      <trkpt lat="45.76936" lon="-0.60321">
        <ele>36.687</ele>
        <time>2017-03-23T17:50:41Z</time>
      </trkpt>
      <trkpt lat="45.76942" lon="-0.60355">
        <ele>33.411</ele>
        <time>2020-11-18T17:21:25Z</time>
      </trkpt>
      <trkpt lat="45.76991" lon="-0.60302">
        <ele>41.738</ele>
        <time>2020-11-18T17:21:45Z</time>
      </trkpt>
      <trkpt lat="45.76936" lon="-0.60195">
        <ele>44.651</ele>
        <time>2020-11-18T17:22:05Z</time>
      </trkpt>
      <trkpt lat="45.76877" lon="-0.60016">
        <ele>43.012</ele>
        <time>2020-11-18T17:22:25Z</time>
      </trkpt>
      <trkpt lat="45.76837" lon="-0.59913">
        <ele>44.545</ele>
        <time>2020-11-18T17:22:45Z</time>
      </trkpt>
      <trkpt lat="45.76816" lon="-0.59818">
        <ele>44.271</ele>
        <time>2020-11-18T17:23:05Z</time>
      </trkpt>
      <trkpt lat="45.76812" lon="-0.59756">
        <ele>45.135</ele>
        <time>2020-11-18T17:23:25Z</time>
      </trkpt>
      <trkpt lat="45.76822" lon="-0.59719">
        <ele>44.317</ele>
        <time>2020-11-18T17:23:45Z</time>
      </trkpt>
      <trkpt lat="45.76818" lon="-0.59701">
        <ele>44.687</ele>
        <time>2020-11-18T17:24:05Z</time>
      </trkpt>
      <trkpt lat="45.76824" lon="-0.59687">
        <ele>44.115</ele>
        <time>2020-11-18T17:24:25Z</time>
      </trkpt>
      <trkpt lat="45.76862" lon="-0.59697">
        <ele>40.708</ele>
        <time>2020-11-18T17:24:45Z</time>
      </trkpt>
      <trkpt lat="45.76874" lon="-0.59671">
        <ele>38.387</ele>
        <time>2020-11-18T17:25:05Z</time>
      </trkpt>
      <trkpt lat="45.76881" lon="-0.59667">
        <ele>36.681</ele>
        <time>2020-11-18T17:25:25Z</time>
      </trkpt>
      <trkpt lat="45.76919" lon="-0.59591">
        <ele>31.348</ele>
        <time>2020-11-18T17:25:45Z</time>
      </trkpt>
      <trkpt lat="45.76926" lon="-0.59469">
        <ele>38.881</ele>
        <time>2020-11-18T17:26:05Z</time>
      </trkpt>
      <trkpt lat="45.76948" lon="-0.59397">
        <ele>38.482</ele>
        <time>2020-11-18T17:26:25Z</time>
      </trkpt>
      <trkpt lat="45.7697" lon="-0.59362">
        <ele>35.395</ele>
        <time>2020-11-18T17:26:45Z</time>
      </trkpt>
      <trkpt lat="45.76987" lon="-0.59348">
        <ele>34.581</ele>
        <time>2020-11-18T17:27:05Z</time>
      </trkpt>
      <trkpt lat="45.77008" lon="-0.59308">
        <ele>38.755</ele>
        <time>2020-11-18T17:27:25Z</time>
      </trkpt>
      <trkpt lat="45.77039" lon="-0.59231">
        <ele>41.774</ele>
        <time>2020-11-18T17:27:45Z</time>
      </trkpt>
      <trkpt lat="45.77062" lon="-0.59193">
        <ele>44.556</ele>
        <time>2020-11-18T17:28:05Z</time>
      </trkpt>
      <trkpt lat="45.77078" lon="-0.5918">
        <ele>44.221</ele>
        <time>2020-11-18T17:28:25Z</time>
      </trkpt>
      <trkpt lat="45.77083" lon="-0.59165">
        <ele>45.008</ele>
        <time>2020-11-18T17:28:45Z</time>
      </trkpt>
      <trkpt lat="45.7713" lon="-0.59189">
        <ele>39.823</ele>
        <time>2020-11-18T17:29:05Z</time>
      </trkpt>
      <trkpt lat="45.77159" lon="-0.59214">
        <ele>36.987</ele>
        <time>2020-11-18T17:29:25Z</time>
      </trkpt>
      <trkpt lat="45.77212" lon="-0.5921">
        <ele>37.254</ele>
        <time>2020-11-18T17:29:45Z</time>
      </trkpt>
      <trkpt lat="45.77238" lon="-0.59202">
        <ele>37.377</ele>
        <time>2017-03-23T18:07:21Z</time>
      </trkpt>
      <trkpt lat="45.77272" lon="-0.59233">
        <ele>36.128</ele>
        <time>2017-03-23T18:07:41Z</time>
      </trkpt>
      <trkpt lat="45.77298" lon="-0.59238">
        <ele>37.541</ele>
        <time>2017-03-23T18:08:01Z</time>
      </trkpt>
      <trkpt lat="45.77316" lon="-0.59195">
        <ele>38.847</ele>
        <time>2017-03-23T18:08:21Z</time>
      </trkpt>
      <trkpt lat="45.77334" lon="-0.59129">
        <ele>39.021</ele>
        <time>2017-03-23T18:08:41Z</time>
      </trkpt>
      <trkpt lat="45.7735" lon="-0.59125">
        <ele>38.456</ele>
        <time>2017-03-23T18:09:01Z</time>
      </trkpt>
      <trkpt lat="45.7737" lon="-0.59137">
        <ele>39.259</ele>
        <time>2017-03-23T18:09:21Z</time>
      </trkpt>
      <trkpt lat="45.77398" lon="-0.59137">
        <ele>41.114</ele>
        <time>2017-03-23T18:09:41Z</time>
      </trkpt>
      <trkpt lat="45.77429" lon="-0.59127">
        <ele>44.908</ele>
        <time>2017-03-23T18:10:01Z</time>
      </trkpt>
      <trkpt lat="45.77435" lon="-0.59158">
        <ele>50.041</ele>
        <time>2017-03-23T18:10:21Z</time>
      </trkpt>
      <trkpt lat="45.77466" lon="-0.59177">
        <ele>56.415</ele>
        <time>2017-03-23T18:10:41Z</time>
      </trkpt>
      <trkpt lat="45.77514" lon="-0.59211">
        <ele>59.652</ele>
        <time>2017-03-23T18:11:01Z</time>
      </trkpt>
      <trkpt lat="45.77541" lon="-0.59244">
        <ele>60.995</ele>
        <time>2017-03-23T18:11:21Z</time>
      </trkpt>
      <trkpt lat="45.77548" lon="-0.59265">
        <ele>61.066</ele>
        <time>2017-03-23T18:11:41Z</time>
      </trkpt>
      <trkpt lat="45.77611" lon="-0.59349">
        <ele>60.089</ele>
        <time>2017-03-23T18:12:01Z</time>
      </trkpt>
      <trkpt lat="45.77625" lon="-0.59355">
        <ele>59.165</ele>
        <time>2017-03-23T18:12:21Z</time>
      </trkpt>
      <trkpt lat="45.77643" lon="-0.59344">
        <ele>58.539</ele>
        <time>2017-03-23T18:12:41Z</time>
      </trkpt>
      <trkpt lat="45.77674" lon="-0.59312">
        <ele>59.199</ele>
        <time>2017-03-23T18:13:01Z</time>
      </trkpt>
      <trkpt lat="45.77724" lon="-0.59299">
        <ele>60.807</ele>
        <time>2017-03-23T18:13:21Z</time>
      </trkpt>
      <trkpt lat="45.77751" lon="-0.59261">
        <ele>59.427</ele>
        <time>2017-03-23T18:13:41Z</time>
      </trkpt>
      <trkpt lat="45.77839" lon="-0.59196">
        <ele>66.008</ele>
        <time>2017-03-23T18:14:01Z</time>
      </trkpt>
      <trkpt lat="45.77886" lon="-0.59174">
        <ele>66.215</ele>
        <time>2017-03-23T18:14:21Z</time>
      </trkpt>
      <trkpt lat="45.77994" lon="-0.59142">
        <ele>65.819</ele>
        <time>2017-03-23T18:14:41Z</time>
      </trkpt>
      <trkpt lat="45.78021" lon="-0.59146">
        <ele>66.866</ele>
        <time>2017-03-23T18:15:01Z</time>
      </trkpt>
      <trkpt lat="45.78056" lon="-0.5914">
        <ele>67.049</ele>
        <time>2017-03-23T18:15:21Z</time>
      </trkpt>
      <trkpt lat="45.78095" lon="-0.59064">
        <ele>66.66</ele>
        <time>2017-03-23T18:15:41Z</time>
      </trkpt>
      <trkpt lat="45.78144" lon="-0.58992">
        <ele>68.263</ele>
        <time>2017-03-23T18:16:01Z</time>
      </trkpt>
      <trkpt lat="45.78194" lon="-0.58955">
        <ele>69.679</ele>
        <time>2017-03-23T18:16:21Z</time>
      </trkpt>
      <trkpt lat="45.78363" lon="-0.58883">
        <ele>70.053</ele>
        <time>2017-03-23T18:16:41Z</time>
      </trkpt>
      <trkpt lat="45.784" lon="-0.5885">
        <ele>70.452</ele>
        <time>2017-03-23T18:17:01Z</time>
      </trkpt>
      <trkpt lat="45.78486" lon="-0.58731">
        <ele>70.253</ele>
        <time>2017-03-23T18:17:21Z</time>
      </trkpt>
      <trkpt lat="45.78549" lon="-0.58632">
        <ele>71.508</ele>
        <time>2017-03-23T18:17:41Z</time>
      </trkpt>
      <trkpt lat="45.78653" lon="-0.58534">
        <ele>71.808</ele>
        <time>2017-03-23T18:18:01Z</time>
      </trkpt>
      <trkpt lat="45.78727" lon="-0.5845">
        <ele>72.681</ele>
        <time>2017-03-23T18:18:21Z</time>
      </trkpt>
      <trkpt lat="45.7877" lon="-0.58414">
        <ele>73.255</ele>
        <time>2017-03-23T18:18:41Z</time>
      </trkpt>
      <trkpt lat="45.78788" lon="-0.58382">
        <ele>74.942</ele>
        <time>2017-03-23T18:19:01Z</time>
      </trkpt>
      <trkpt lat="45.78807" lon="-0.58397">
        <ele>73.655</ele>
        <time>2017-03-23T18:19:21Z</time>
      </trkpt>
      <trkpt lat="45.78856" lon="-0.58378">
        <ele>71.276</ele>
        <time>2017-03-23T18:19:41Z</time>
      </trkpt>
      <trkpt lat="45.78999" lon="-0.58201">
        <ele>73.039</ele>
        <time>2017-03-23T18:20:01Z</time>
      </trkpt>
      <trkpt lat="45.79287" lon="-0.58001">
        <ele>72.625</ele>
        <time>2017-03-23T18:20:21Z</time>
      </trkpt>
      <trkpt lat="45.79284" lon="-0.57963">
        <ele>72.349</ele>
        <time>2017-03-23T18:20:41Z</time>
      </trkpt>
      <trkpt lat="45.79289" lon="-0.57893">
        <ele>69.298</ele>
        <time>2017-03-23T18:21:01Z</time>
      </trkpt>
      <trkpt lat="45.79306" lon="-0.57775">
        <ele>71.015</ele>
        <time>2017-03-23T18:21:21Z</time>
      </trkpt>
      <trkpt lat="45.79318" lon="-0.57763">
        <ele>70.826</ele>
        <time>2017-03-23T18:21:41Z</time>
      </trkpt>
      <trkpt lat="45.79354" lon="-0.57762">
        <ele>70.408</ele>
        <time>2017-03-23T18:22:01Z</time>
      </trkpt>
      <trkpt lat="45.79357" lon="-0.57746">
        <ele>69.915</ele>
        <time>2017-03-23T18:22:21Z</time>
      </trkpt>
      <trkpt lat="45.79349" lon="-0.57712">
        <ele>68.659</ele>
        <time>2017-03-23T18:22:41Z</time>
      </trkpt>
      <trkpt lat="45.79344" lon="-0.57665">
        <ele>68.036</ele>
        <time>2017-03-23T18:23:01Z</time>
      </trkpt>
      <trkpt lat="45.79359" lon="-0.57591">
        <ele>66.939</ele>
        <time>2017-03-23T18:23:21Z</time>
      </trkpt>
      <trkpt lat="45.79368" lon="-0.57501">
        <ele>68.75</ele>
        <time>2017-03-23T18:23:41Z</time>
      </trkpt>
      <trkpt lat="45.79361" lon="-0.5741">
        <ele>70.823</ele>
        <time>2017-03-23T18:24:01Z</time>
      </trkpt>
      <trkpt lat="45.79323" lon="-0.57324">
        <ele>70.219</ele>
        <time>2017-03-23T18:24:21Z</time>
      </trkpt>
      <trkpt lat="45.79292" lon="-0.57273">
        <ele>71.183</ele>
        <time>2017-03-23T18:24:41Z</time>
      </trkpt>
      <trkpt lat="45.79263" lon="-0.5721">
        <ele>71.044</ele>
        <time>2017-03-23T18:25:01Z</time>
      </trkpt>
      <trkpt lat="45.79241" lon="-0.57109">
        <ele>70.705</ele>
        <time>2017-03-23T18:25:21Z</time>
      </trkpt>
      <trkpt lat="45.79235" lon="-0.5699">
        <ele>74.315</ele>
        <time>2017-03-23T18:25:41Z</time>
      </trkpt>
      <trkpt lat="45.79222" lon="-0.5692">
        <ele>72.108</ele>
        <time>2017-03-23T18:26:01Z</time>
      </trkpt>
      <trkpt lat="45.7916" lon="-0.56921">
        <ele>73.25</ele>
        <time>2017-03-23T18:26:21Z</time>
      </trkpt>
      <trkpt lat="45.7913" lon="-0.56907">
        <ele>74.784</ele>
        <time>2017-03-23T18:26:41Z</time>
      </trkpt>
      <trkpt lat="45.79115" lon="-0.56894">
        <ele>75.781</ele>
        <time>2017-03-23T18:27:01Z</time>
      </trkpt>
      <trkpt lat="45.79116" lon="-0.5688">
        <ele>76.234</ele>
        <time>2017-03-23T18:27:21Z</time>
      </trkpt>
      <trkpt lat="45.79157" lon="-0.56783">
        <ele>78.835</ele>
        <time>2017-03-23T18:27:41Z</time>
      </trkpt>
      <trkpt lat="45.7917" lon="-0.56664">
        <ele>72.978</ele>
        <time>2017-03-23T18:28:01Z</time>
      </trkpt>
      <trkpt lat="45.79247" lon="-0.56566">
        <ele>69.644</ele>
        <time>2017-03-23T18:28:21Z</time>
      </trkpt>
      <trkpt lat="45.79289" lon="-0.56489">
        <ele>60.198</ele>
        <time>2017-03-23T18:28:41Z</time>
      </trkpt>
      <trkpt lat="45.7932" lon="-0.56415">
        <ele>56.599</ele>
        <time>2017-03-23T18:29:01Z</time>
      </trkpt>
      <trkpt lat="45.79336" lon="-0.5639">
        <ele>54.907</ele>
        <time>2017-03-23T18:29:21Z</time>
      </trkpt>
      <trkpt lat="45.79317" lon="-0.56377">
        <ele>56.527</ele>
        <time>2017-03-23T18:29:41Z</time>
      </trkpt>
      <trkpt lat="45.79295" lon="-0.56357">
        <ele>57.608</ele>
        <time>2017-03-23T18:30:01Z</time>
      </trkpt>
      <trkpt lat="45.79281" lon="-0.56326">
        <ele>57.585</ele>
        <time>2017-03-23T18:30:21Z</time>
      </trkpt>
      <trkpt lat="45.79235" lon="-0.56245">
        <ele>60.249</ele>
        <time>2017-03-23T18:30:41Z</time>
      </trkpt>
      <trkpt lat="45.79153" lon="-0.56179">
        <ele>70.996</ele>
        <time>2017-03-23T18:31:01Z</time>
      </trkpt>
      <trkpt lat="45.79057" lon="-0.5624">
        <ele>74.699</ele>
        <time>2017-03-23T18:31:21Z</time>
      </trkpt>
      <trkpt lat="45.78959" lon="-0.5613">
        <ele>74.77</ele>
        <time>2017-03-23T18:31:41Z</time>
      </trkpt>
      <trkpt lat="45.78923" lon="-0.56116">
        <ele>73.423</ele>
        <time>2017-03-23T18:32:01Z</time>
      </trkpt>
      <trkpt lat="45.7884" lon="-0.56136">
        <ele>73.989</ele>
        <time>2017-03-23T18:32:21Z</time>
      </trkpt>
      <trkpt lat="45.78662" lon="-0.5619">
        <ele>80.973</ele>
        <time>2017-03-23T18:32:41Z</time>
      </trkpt>
      <trkpt lat="45.78534" lon="-0.56097">
        <ele>80.174</ele>
        <time>2017-03-23T18:33:01Z</time>
      </trkpt>
      <trkpt lat="45.7842" lon="-0.56002">
        <ele>78.156</ele>
        <time>2017-03-23T18:33:21Z</time>
      </trkpt>
      <trkpt lat="45.78362" lon="-0.55966">
        <ele>77.821</ele>
        <time>2017-03-23T18:33:41Z</time>
      </trkpt>
      <trkpt lat="45.78339" lon="-0.55944">
        <ele>77.008</ele>
        <time>2017-03-23T18:34:01Z</time>
      </trkpt>
      <trkpt lat="45.78266" lon="-0.55898">
        <ele>76.643</ele>
        <time>2017-03-23T18:34:21Z</time>
      </trkpt>
      <trkpt lat="45.78228" lon="-0.5587">
        <ele>74.897</ele>
        <time>2017-03-23T18:34:41Z</time>
      </trkpt>
      <trkpt lat="45.7817" lon="-0.55797">
        <ele>72.964</ele>
        <time>2017-03-23T18:35:01Z</time>
      </trkpt>
      <trkpt lat="45.7807" lon="-0.55707">
        <ele>77.077</ele>
        <time>2017-03-23T18:35:21Z</time>
      </trkpt>
      <trkpt lat="45.77967" lon="-0.55618">
        <ele>75.238</ele>
        <time>2017-03-23T18:35:41Z</time>
      </trkpt>
      <trkpt lat="45.77939" lon="-0.55661">
        <ele>74.241</ele>
        <time>2017-03-23T18:36:01Z</time>
      </trkpt>
      <trkpt lat="45.77803" lon="-0.55754">
        <ele>76.017</ele>
        <time>2017-03-23T18:36:21Z</time>
      </trkpt>
      <trkpt lat="45.77764" lon="-0.55836">
        <ele>75.461</ele>
        <time>2017-03-23T18:36:41Z</time>
      </trkpt>
      <trkpt lat="45.77728" lon="-0.55868">
        <ele>75.017</ele>
        <time>2017-03-23T18:37:01Z</time>
      </trkpt>
      <trkpt lat="45.7767" lon="-0.55869">
        <ele>75.087</ele>
        <time>2017-03-23T18:37:21Z</time>
      </trkpt>
      <trkpt lat="45.77663" lon="-0.55859">
        <ele>74.915</ele>
        <time>2017-03-23T18:37:41Z</time>
      </trkpt>
      <trkpt lat="45.77623" lon="-0.55859">
        <ele>74.008</ele>
        <time>2017-03-23T18:38:01Z</time>
      </trkpt>
      <trkpt lat="45.77582" lon="-0.55922">
        <ele>72.927</ele>
        <time>2017-03-23T18:38:21Z</time>
      </trkpt>
      <trkpt lat="45.77538" lon="-0.55977">
        <ele>71.551</ele>
        <time>2017-03-23T18:38:41Z</time>
      </trkpt>
      <trkpt lat="45.7748" lon="-0.56036">
        <ele>70.648</ele>
        <time>2017-03-23T18:39:01Z</time>
      </trkpt>
      <trkpt lat="45.77451" lon="-0.56081">
        <ele>71.131</ele>
        <time>2017-03-23T18:39:21Z</time>
      </trkpt>
      <trkpt lat="45.77423" lon="-0.56154">
        <ele>68.862</ele>
        <time>2017-03-23T18:39:41Z</time>
      </trkpt>
      <trkpt lat="45.77413" lon="-0.5623">
        <ele>62.845</ele>
        <time>2017-03-23T18:40:01Z</time>
      </trkpt>
      <trkpt lat="45.77422" lon="-0.56278">
        <ele>63.281</ele>
        <time>2017-03-23T18:40:21Z</time>
      </trkpt>
      <trkpt lat="45.77415" lon="-0.56378">
        <ele>63.925</ele>
        <time>2017-03-23T18:40:41Z</time>
      </trkpt>
      <trkpt lat="45.77374" lon="-0.56379">
        <ele>62.848</ele>
        <time>2017-03-23T18:41:01Z</time>
      </trkpt>
      <trkpt lat="45.77312" lon="-0.56347">
        <ele>62.061</ele>
        <time>2017-03-23T18:41:21Z</time>
      </trkpt>
      <trkpt lat="45.77288" lon="-0.56331">
        <ele>62.017</ele>
        <time>2017-03-23T18:41:41Z</time>
      </trkpt>
      <trkpt lat="45.77247" lon="-0.56318">
        <ele>62.908</ele>
        <time>2017-03-23T18:42:01Z</time>
      </trkpt>
      <trkpt lat="45.77078" lon="-0.56214">
        <ele>55.96</ele>
        <time>2017-03-23T18:42:21Z</time>
      </trkpt>
      <trkpt lat="45.77055" lon="-0.56272">
        <ele>56.824</ele>
        <time>2017-03-23T18:42:41Z</time>
      </trkpt>
      <trkpt lat="45.77045" lon="-0.56314">
        <ele>57.031</ele>
        <time>2017-03-23T18:43:01Z</time>
      </trkpt>
      <trkpt lat="45.77033" lon="-0.56333">
        <ele>57.014</ele>
        <time>2017-03-23T18:43:21Z</time>
      </trkpt>
      <trkpt lat="45.77024" lon="-0.56336">
        <ele>56.725</ele>
        <time>2017-03-23T18:43:41Z</time>
      </trkpt>
      <trkpt lat="45.77017" lon="-0.56355">
        <ele>56.238</ele>
        <time>2017-03-23T18:44:01Z</time>
      </trkpt>
      <trkpt lat="45.77039" lon="-0.56397">
        <ele>56.554</ele>
        <time>2017-03-23T18:44:21Z</time>
      </trkpt>
      <trkpt lat="45.7702" lon="-0.56438">
        <ele>56.938</ele>
        <time>2017-03-23T18:44:41Z</time>
      </trkpt>
      <trkpt lat="45.76995" lon="-0.56533">
        <ele>63.328</ele>
        <time>2017-03-23T18:45:01Z</time>
      </trkpt>
      <trkpt lat="45.76988" lon="-0.56616">
        <ele>67.189</ele>
        <time>2017-03-23T18:45:21Z</time>
      </trkpt>
      <trkpt lat="45.76978" lon="-0.56619">
        <ele>67.217</ele>
        <time>2017-03-23T18:45:41Z</time>
      </trkpt>
      <trkpt lat="45.76908" lon="-0.56715">
        <ele>68.708</ele>
        <time>2017-03-23T18:46:01Z</time>
      </trkpt>
      <trkpt lat="45.76843" lon="-0.56788">
        <ele>67.098</ele>
        <time>2017-03-23T18:46:21Z</time>
      </trkpt>
      <trkpt lat="45.76833" lon="-0.56773">
        <ele>66.822</ele>
        <time>2017-03-23T18:46:41Z</time>
      </trkpt>
      <trkpt lat="45.76811" lon="-0.56759">
        <ele>67.149</ele>
        <time>2017-03-23T18:47:01Z</time>
      </trkpt>
      <trkpt lat="45.76757" lon="-0.56704">
        <ele>65.122</ele>
        <time>2017-03-23T18:47:21Z</time>
      </trkpt>
      <trkpt lat="45.76729" lon="-0.56692">
        <ele>64.183</ele>
        <time>2017-03-23T18:47:41Z</time>
      </trkpt>
      <trkpt lat="45.767" lon="-0.56657">
        <ele>62.176</ele>
        <time>2017-03-23T18:48:01Z</time>
      </trkpt>
      <trkpt lat="45.7667" lon="-0.56643">
        <ele>62.122</ele>
        <time>2017-03-23T18:48:21Z</time>
      </trkpt>
      <trkpt lat="45.76617" lon="-0.56635">
        <ele>61.256</ele>
        <time>2017-03-23T18:48:41Z</time>
      </trkpt>
      <trkpt lat="45.76577" lon="-0.56604">
        <ele>59.523</ele>
        <time>2017-03-23T18:49:01Z</time>
      </trkpt>
      <trkpt lat="45.76557" lon="-0.5657">
        <ele>56.683</ele>
        <time>2017-03-23T18:49:21Z</time>
      </trkpt>
      <trkpt lat="45.76483" lon="-0.56556">
        <ele>53.011</ele>
        <time>2017-03-23T18:49:41Z</time>
      </trkpt>
      <trkpt lat="45.7646" lon="-0.56555">
        <ele>53.908</ele>
        <time>2017-03-23T18:50:01Z</time>
      </trkpt>
      <trkpt lat="45.76443" lon="-0.56546">
        <ele>54.888</ele>
        <time>2017-03-23T18:50:21Z</time>
      </trkpt>
      <trkpt lat="45.76386" lon="-0.56482">
        <ele>58.592</ele>
        <time>2017-03-23T18:50:41Z</time>
      </trkpt>
      <trkpt lat="45.76356" lon="-0.56439">
        <ele>57.639</ele>
        <time>2017-03-23T18:51:01Z</time>
      </trkpt>
      <trkpt lat="45.76333" lon="-0.56444">
        <ele>58.932</ele>
        <time>2017-03-23T18:51:21Z</time>
      </trkpt>
      <trkpt lat="45.76312" lon="-0.5647">
        <ele>59.913</ele>
        <time>2017-03-23T18:51:41Z</time>
      </trkpt>
      <trkpt lat="45.76284" lon="-0.56466">
        <ele>60.616</ele>
        <time>2017-03-23T18:52:01Z</time>
      </trkpt>
      <trkpt lat="45.76233" lon="-0.56509">
        <ele>67.072</ele>
        <time>2017-03-23T18:52:21Z</time>
      </trkpt>
      <trkpt lat="45.76211" lon="-0.56495">
        <ele>66.626</ele>
        <time>2017-03-23T18:52:41Z</time>
      </trkpt>
      <trkpt lat="45.76202" lon="-0.56464">
        <ele>65.148</ele>
        <time>2017-03-23T18:53:01Z</time>
      </trkpt>
      <trkpt lat="45.76182" lon="-0.56426">
        <ele>65.061</ele>
        <time>2017-03-23T18:53:21Z</time>
      </trkpt>
      <trkpt lat="45.76146" lon="-0.56398">
        <ele>66.017</ele>
        <time>2017-03-23T18:53:41Z</time>
      </trkpt>
      <trkpt lat="45.76122" lon="-0.56396">
        <ele>66.008</ele>
        <time>2017-03-23T18:54:01Z</time>
      </trkpt>
      <trkpt lat="45.76081" lon="-0.56373">
        <ele>65.02</ele>
        <time>2017-03-23T18:54:21Z</time>
      </trkpt>
      <trkpt lat="45.76053" lon="-0.56342">
        <ele>64.924</ele>
        <time>2017-03-23T18:54:41Z</time>
      </trkpt>
      <trkpt lat="45.76071" lon="-0.56244">
        <ele>66.341</ele>
        <time>2017-03-23T18:55:01Z</time>
      </trkpt>
      <trkpt lat="45.76027" lon="-0.56177">
        <ele>62.774</ele>
        <time>2017-03-23T18:55:21Z</time>
      </trkpt>
      <trkpt lat="45.75991" lon="-0.56112">
        <ele>60.465</ele>
        <time>2017-03-23T18:55:41Z</time>
      </trkpt>
      <trkpt lat="45.75975" lon="-0.56132">
        <ele>62.348</ele>
        <time>2017-03-23T18:56:01Z</time>
      </trkpt>
      <trkpt lat="45.75956" lon="-0.5614">
        <ele>63.074</ele>
        <time>2017-03-23T18:56:21Z</time>
      </trkpt>
      <trkpt lat="45.75931" lon="-0.56147">
        <ele>61.968</ele>
        <time>2017-03-23T18:56:41Z</time>
      </trkpt>
      <trkpt lat="45.75862" lon="-0.56182">
        <ele>58.162</ele>
        <time>2017-03-23T18:57:01Z</time>
      </trkpt>
      <trkpt lat="45.75725" lon="-0.56281">
        <ele>51.083</ele>
        <time>2017-03-23T18:57:21Z</time>
      </trkpt>
      <trkpt lat="45.75684" lon="-0.56293">
        <ele>48.511</ele>
        <time>2017-03-23T18:57:41Z</time>
      </trkpt>
      <trkpt lat="45.75676" lon="-0.56283">
        <ele>49.008</ele>
        <time>2017-03-23T18:58:01Z</time>
      </trkpt>
      <trkpt lat="45.75612" lon="-0.56352">
        <ele>47.772</ele>
        <time>2017-03-23T18:58:21Z</time>
      </trkpt>
      <trkpt lat="45.75604" lon="-0.56341">
        <ele>47.756</ele>
        <time>2017-03-23T18:58:41Z</time>
      </trkpt>
      <trkpt lat="45.75572" lon="-0.56323">
        <ele>50.573</ele>
        <time>2017-03-23T18:59:01Z</time>
      </trkpt>
      <trkpt lat="45.75548" lon="-0.56295">
        <ele>52.946</ele>
        <time>2017-03-23T18:59:21Z</time>
      </trkpt>
      <trkpt lat="45.75466" lon="-0.56105">
        <ele>59.267</ele>
        <time>2017-03-23T18:59:41Z</time>
      </trkpt>
      <trkpt lat="45.75448" lon="-0.56036">
        <ele>60.93</ele>
        <time>2017-03-23T19:00:01Z</time>
      </trkpt>
      <trkpt lat="45.75404" lon="-0.55998">
        <ele>62.446</ele>
        <time>2017-03-23T19:00:21Z</time>
      </trkpt>
      <trkpt lat="45.75356" lon="-0.55978">
        <ele>64.05</ele>
        <time>2017-03-23T19:00:41Z</time>
      </trkpt>
      <trkpt lat="45.75322" lon="-0.55974">
        <ele>64.455</ele>
        <time>2017-03-23T19:01:01Z</time>
      </trkpt>
      <trkpt lat="45.75289" lon="-0.55958">
        <ele>65.707</ele>
        <time>2017-03-23T19:01:21Z</time>
      </trkpt>
      <trkpt lat="45.7518" lon="-0.55879">
        <ele>63.717</ele>
        <time>2017-03-23T19:01:41Z</time>
      </trkpt>
      <trkpt lat="45.75123" lon="-0.55804">
        <ele>66.008</ele>
        <time>2017-03-23T19:02:01Z</time>
      </trkpt>
      <trkpt lat="45.75083" lon="-0.55732">
        <ele>67.021</ele>
        <time>2017-03-23T19:02:21Z</time>
      </trkpt>
      <trkpt lat="45.75083" lon="-0.55732">
        <ele>67.095</ele>
        <time>2017-03-23T19:02:41Z</time>
      </trkpt>
      <trkpt lat="45.75046" lon="-0.55682">
        <ele>66.122</ele>
        <time>2017-03-23T19:03:01Z</time>
      </trkpt>
      <trkpt lat="45.75037" lon="-0.55543">
        <ele>62.425</ele>
        <time>2017-03-23T19:03:21Z</time>
      </trkpt>
      <trkpt lat="45.75365" lon="-0.5521">
        <ele>53.426</ele>
        <time>2017-03-23T19:03:41Z</time>
      </trkpt>
      <trkpt lat="45.75375" lon="-0.55163">
        <ele>49.359</ele>
        <time>2017-03-23T19:04:01Z</time>
      </trkpt>
      <trkpt lat="45.75389" lon="-0.55162">
        <ele>47.725</ele>
        <time>2017-03-23T19:04:21Z</time>
      </trkpt>
      <trkpt lat="45.75405" lon="-0.55171">
        <ele>46.299</ele>
        <time>2017-03-23T19:04:41Z</time>
      </trkpt>
      <trkpt lat="45.75414" lon="-0.55154">
        <ele>43.591</ele>
        <time>2017-03-23T19:05:01Z</time>
      </trkpt>
      <trkpt lat="45.75414" lon="-0.55119">
        <ele>40.981</ele>
        <time>2017-03-23T19:05:21Z</time>
      </trkpt>
      <trkpt lat="45.75408" lon="-0.55073">
        <ele>37.919</ele>
        <time>2017-03-23T19:05:41Z</time>
      </trkpt>
      <trkpt lat="45.75422" lon="-0.55045">
        <ele>35.908</ele>
        <time>2017-03-23T19:06:01Z</time>
      </trkpt>
      <trkpt lat="45.75437" lon="-0.55003">
        <ele>41.445</ele>
        <time>2017-03-23T19:06:21Z</time>
      </trkpt>
      <trkpt lat="45.75439" lon="-0.54975">
        <ele>44.559</ele>
        <time>2017-03-23T19:06:41Z</time>
      </trkpt>
      <trkpt lat="45.75431" lon="-0.54936">
        <ele>45.326</ele>
        <time>2017-03-23T19:07:01Z</time>
      </trkpt>
      <trkpt lat="45.75476" lon="-0.54854">
        <ele>59.839</ele>
        <time>2017-03-23T19:07:21Z</time>
      </trkpt>
      <trkpt lat="45.75504" lon="-0.54828">
        <ele>61.03</ele>
        <time>2017-03-23T19:07:41Z</time>
      </trkpt>
      <trkpt lat="45.75602" lon="-0.54719">
        <ele>62.993</ele>
        <time>2017-03-23T19:08:01Z</time>
      </trkpt>
      <trkpt lat="45.75683" lon="-0.54542">
        <ele>60.119</ele>
        <time>2017-03-23T19:08:21Z</time>
      </trkpt>
      <trkpt lat="45.75723" lon="-0.54487">
        <ele>59.123</ele>
        <time>2017-03-23T19:08:41Z</time>
      </trkpt>
      <trkpt lat="45.758" lon="-0.54406">
        <ele>56.429</ele>
        <time>2017-03-23T19:09:01Z</time>
      </trkpt>
      <trkpt lat="45.75893" lon="-0.54339">
        <ele>49.2</ele>
        <time>2017-03-23T19:09:21Z</time>
      </trkpt>
      <trkpt lat="45.75956" lon="-0.54294">
        <ele>44.62</ele>
        <time>2017-03-23T19:09:41Z</time>
      </trkpt>
      <trkpt lat="45.75956" lon="-0.54278">
        <ele>43.208</ele>
        <time>2017-03-23T19:10:01Z</time>
      </trkpt>
      <trkpt lat="45.75972" lon="-0.54208">
        <ele>40.088</ele>
        <time>2017-03-23T19:10:21Z</time>
      </trkpt>
      <trkpt lat="45.7599" lon="-0.5417">
        <ele>42.182</ele>
        <time>2017-03-23T19:10:41Z</time>
      </trkpt>
      <trkpt lat="45.76017" lon="-0.54144">
        <ele>45.259</ele>
        <time>2017-03-23T19:11:01Z</time>
      </trkpt>
      <trkpt lat="45.76" lon="-0.54073">
        <ele>43.692</ele>
        <time>2017-03-23T19:11:21Z</time>
      </trkpt>
      <trkpt lat="45.75974" lon="-0.54096">
        <ele>40.793</ele>
        <time>2017-03-23T19:11:41Z</time>
      </trkpt>
      <trkpt lat="45.7595" lon="-0.5405">
        <ele>38.286</ele>
        <time>2017-03-23T19:12:01Z</time>
      </trkpt>
      <trkpt lat="45.75945" lon="-0.54026">
        <ele>38.012</ele>
        <time>2017-03-23T19:12:21Z</time>
      </trkpt>
      <trkpt lat="45.75944" lon="-0.54001">
        <ele>38.086</ele>
        <time>2017-03-23T19:12:41Z</time>
      </trkpt>
      <trkpt lat="45.75932" lon="-0.53982">
        <ele>39.117</ele>
        <time>2017-03-23T19:13:01Z</time>
      </trkpt>
      <trkpt lat="45.75913" lon="-0.53966">
        <ele>40.987</ele>
        <time>2017-03-23T19:13:21Z</time>
      </trkpt>
      <trkpt lat="45.75897" lon="-0.53937">
        <ele>44.915</ele>
        <time>2017-03-23T19:13:41Z</time>
      </trkpt>
      <trkpt lat="45.75872" lon="-0.53925">
        <ele>47.808</ele>
        <time>2017-03-23T19:14:01Z</time>
      </trkpt>
      <trkpt lat="45.75851" lon="-0.53903">
        <ele>51.847</ele>
        <time>2017-03-23T19:14:21Z</time>
      </trkpt>
      <trkpt lat="45.75819" lon="-0.53853">
        <ele>57.541</ele>
        <time>2017-03-23T19:14:41Z</time>
      </trkpt>
      <trkpt lat="45.75792" lon="-0.53796">
        <ele>57.018</ele>
        <time>2017-03-23T19:15:01Z</time>
      </trkpt>
      <trkpt lat="45.75757" lon="-0.5377">
        <ele>57.011</ele>
        <time>2017-03-23T19:15:21Z</time>
      </trkpt>
      <trkpt lat="45.75742" lon="-0.53748">
        <ele>56.762</ele>
        <time>2017-03-23T19:15:41Z</time>
      </trkpt>
      <trkpt lat="45.7572" lon="-0.53626">
        <ele>56.095</ele>
        <time>2017-03-23T19:16:01Z</time>
      </trkpt>
      <trkpt lat="45.75675" lon="-0.53543">
        <ele>58.581</ele>
        <time>2017-03-23T19:16:21Z</time>
      </trkpt>
      <trkpt lat="45.75638" lon="-0.53521">
        <ele>53.995</ele>
        <time>2017-03-23T19:16:41Z</time>
      </trkpt>
      <trkpt lat="45.75607" lon="-0.53476">
        <ele>51.618</ele>
        <time>2017-03-23T19:17:01Z</time>
      </trkpt>
      <trkpt lat="45.75569" lon="-0.53427">
        <ele>49.398</ele>
        <time>2017-03-23T19:17:21Z</time>
      </trkpt>
      <trkpt lat="45.75528" lon="-0.53424">
        <ele>45.817</ele>
        <time>2017-03-23T19:17:41Z</time>
      </trkpt>
      <trkpt lat="45.75504" lon="-0.53412">
        <ele>46.208</ele>
        <time>2017-03-23T19:18:01Z</time>
      </trkpt>
      <trkpt lat="45.7548" lon="-0.53381">
        <ele>47.577</ele>
        <time>2017-03-23T19:18:21Z</time>
      </trkpt>
      <trkpt lat="45.75441" lon="-0.53371">
        <ele>48.021</ele>
        <time>2017-03-23T19:18:41Z</time>
      </trkpt>
      <trkpt lat="45.75438" lon="-0.53304">
        <ele>48.688</ele>
        <time>2017-03-23T19:19:01Z</time>
      </trkpt>
      <trkpt lat="45.75449" lon="-0.53178">
        <ele>54.081</ele>
        <time>2017-03-23T19:19:21Z</time>
      </trkpt>
      <trkpt lat="45.75421" lon="-0.53006">
        <ele>51.462</ele>
        <time>2017-03-23T19:19:41Z</time>
      </trkpt>
      <trkpt lat="45.75404" lon="-0.5296">
        <ele>51.875</ele>
        <time>2017-03-23T19:20:01Z</time>
      </trkpt>
      <trkpt lat="45.75353" lon="-0.52876">
        <ele>51.471</ele>
        <time>2017-03-23T19:20:21Z</time>
      </trkpt>
      <trkpt lat="45.75334" lon="-0.52834">
        <ele>53.075</ele>
        <time>2017-03-23T19:20:41Z</time>
      </trkpt>
      <trkpt lat="45.75326" lon="-0.52783">
        <ele>55.695</ele>
        <time>2017-03-23T19:21:01Z</time>
      </trkpt>
      <trkpt lat="45.75327" lon="-0.52728">
        <ele>58.349</ele>
        <time>2017-03-23T19:21:21Z</time>
      </trkpt>
      <trkpt lat="45.7534" lon="-0.52656">
        <ele>59.323</ele>
        <time>2017-03-23T19:21:41Z</time>
      </trkpt>
      <trkpt lat="45.75323" lon="-0.52622">
        <ele>57.408</ele>
        <time>2017-03-23T19:22:01Z</time>
      </trkpt>
      <trkpt lat="45.75307" lon="-0.52621">
        <ele>56.435</ele>
        <time>2017-03-23T19:22:21Z</time>
      </trkpt>
      <trkpt lat="45.75101" lon="-0.52685">
        <ele>63.669</ele>
        <time>2017-03-23T19:22:41Z</time>
      </trkpt>
      <trkpt lat="45.75102" lon="-0.5266">
        <ele>63.786</ele>
        <time>2017-03-23T19:23:01Z</time>
      </trkpt>
      <trkpt lat="45.74973" lon="-0.52485">
        <ele>66.689</ele>
        <time>2017-03-23T19:23:21Z</time>
      </trkpt>
      <trkpt lat="45.74828" lon="-0.5264">
        <ele>65.08</ele>
        <time>2017-03-23T19:23:41Z</time>
      </trkpt>
      <trkpt lat="45.74738" lon="-0.52456">
        <ele>68.413</ele>
        <time>2017-03-23T19:24:01Z</time>
      </trkpt>
      <trkpt lat="45.74651" lon="-0.52253">
        <ele>67.159</ele>
        <time>2017-03-23T19:24:21Z</time>
      </trkpt>
      <trkpt lat="45.74706" lon="-0.52194">
        <ele>63.663</ele>
        <time>2017-03-23T19:24:41Z</time>
      </trkpt>
      <trkpt lat="45.74637" lon="-0.52165">
        <ele>64.955</ele>
        <time>2017-03-23T19:25:01Z</time>
      </trkpt>
      <trkpt lat="45.74534" lon="-0.52104">
        <ele>66.007</ele>
        <time>2017-03-23T19:25:21Z</time>
      </trkpt>
      <trkpt lat="45.74435" lon="-0.52056">
        <ele>66.717</ele>
        <time>2017-03-23T19:25:41Z</time>
      </trkpt>
      <trkpt lat="45.74431" lon="-0.52044">
        <ele>66.108</ele>
        <time>2017-03-23T19:26:01Z</time>
      </trkpt>
      <trkpt lat="45.74344" lon="-0.51911">
        <ele>65.191</ele>
        <time>2017-03-23T19:26:21Z</time>
      </trkpt>
      <trkpt lat="45.74246" lon="-0.51785">
        <ele>65.065</ele>
        <time>2017-03-23T19:26:41Z</time>
      </trkpt>
      <trkpt lat="45.74224" lon="-0.51745">
        <ele>65.372</ele>
        <time>2017-03-23T19:27:01Z</time>
      </trkpt>
      <trkpt lat="45.74181" lon="-0.51687">
        <ele>67.375</ele>
        <time>2017-03-23T19:27:21Z</time>
      </trkpt>
      <trkpt lat="45.74114" lon="-0.51784">
        <ele>64.946</ele>
        <time>2017-03-23T19:27:41Z</time>
      </trkpt>
      <trkpt lat="45.73988" lon="-0.51895">
        <ele>59.049</ele>
        <time>2017-03-23T19:28:01Z</time>
      </trkpt>
      <trkpt lat="45.73925" lon="-0.51886">
        <ele>60.375</ele>
        <time>2017-03-23T19:28:21Z</time>
      </trkpt>
      <trkpt lat="45.73848" lon="-0.51824">
        <ele>62.579</ele>
        <time>2017-03-23T19:28:41Z</time>
      </trkpt>
      <trkpt lat="45.73762" lon="-0.51798">
        <ele>63.375</ele>
        <time>2017-03-23T19:29:01Z</time>
      </trkpt>
      <trkpt lat="45.73733" lon="-0.518">
        <ele>62.428</ele>
        <time>2017-03-23T19:29:21Z</time>
      </trkpt>
      <trkpt lat="45.73713" lon="-0.51819">
        <ele>61.32</ele>
        <time>2017-03-23T19:29:41Z</time>
      </trkpt>
      <trkpt lat="45.73699" lon="-0.5184">
        <ele>60.708</ele>
        <time>2017-03-23T19:30:01Z</time>
      </trkpt>
      <trkpt lat="45.73682" lon="-0.51857">
        <ele>60.113</ele>
        <time>2017-03-23T19:30:21Z</time>
      </trkpt>
      <trkpt lat="45.73674" lon="-0.51784">
        <ele>59.657</ele>
        <time>2017-03-23T19:30:41Z</time>
      </trkpt>
      <trkpt lat="45.73673" lon="-0.51531">
        <ele>53.484</ele>
        <time>2017-03-23T19:31:01Z</time>
      </trkpt>
      <trkpt lat="45.73667" lon="-0.51436">
        <ele>49.737</ele>
        <time>2017-03-23T19:31:21Z</time>
      </trkpt>
      <trkpt lat="45.73621" lon="-0.51279">
        <ele>40.478</ele>
        <time>2017-03-23T19:31:41Z</time>
      </trkpt>
      <trkpt lat="45.73541" lon="-0.51126">
        <ele>35.611</ele>
        <time>2017-03-23T19:32:01Z</time>
      </trkpt>
      <trkpt lat="45.73543" lon="-0.51108">
        <ele>34.277</ele>
        <time>2017-03-23T19:32:21Z</time>
      </trkpt>
      <trkpt lat="45.73525" lon="-0.51061">
        <ele>31.511</ele>
        <time>2017-03-23T19:32:41Z</time>
      </trkpt>
      <trkpt lat="45.73515" lon="-0.50999">
        <ele>27.414</ele>
        <time>2017-03-23T19:33:01Z</time>
      </trkpt>
      <trkpt lat="45.73521" lon="-0.50973">
        <ele>24.854</ele>
        <time>2017-03-23T19:33:21Z</time>
      </trkpt>
      <trkpt lat="45.7357" lon="-0.5093">
        <ele>20.909</ele>
        <time>2017-03-23T19:33:41Z</time>
      </trkpt>
      <trkpt lat="45.73589" lon="-0.50906">
        <ele>20.108</ele>
        <time>2017-03-23T19:34:01Z</time>
      </trkpt>
      <trkpt lat="45.73648" lon="-0.50883">
        <ele>20.697</ele>
        <time>2017-03-23T19:34:21Z</time>
      </trkpt>
      <trkpt lat="45.73727" lon="-0.50875">
        <ele>25.451</ele>
        <time>2017-03-23T19:34:41Z</time>
      </trkpt>
      <trkpt lat="45.73787" lon="-0.50882">
        <ele>30.618</ele>
        <time>2017-03-23T19:35:01Z</time>
      </trkpt>
      <trkpt lat="45.73848" lon="-0.50853">
        <ele>29.371</ele>
        <time>2017-03-23T19:35:21Z</time>
      </trkpt>
      <trkpt lat="45.73884" lon="-0.50815">
        <ele>24.122</ele>
        <time>2017-03-23T19:35:41Z</time>
      </trkpt>
      <trkpt lat="45.73914" lon="-0.50769">
        <ele>23.365</ele>
        <time>2017-03-23T19:36:01Z</time>
      </trkpt>
      <trkpt lat="45.7394" lon="-0.50755">
        <ele>24.211</ele>
        <time>2017-03-23T19:36:21Z</time>
      </trkpt>
      <trkpt lat="45.73918" lon="-0.50731">
        <ele>21.415</ele>
        <time>2017-03-23T19:36:41Z</time>
      </trkpt>
      <trkpt lat="45.73887" lon="-0.50656">
        <ele>21.028</ele>
        <time>2017-03-23T19:37:01Z</time>
      </trkpt>
      <trkpt lat="45.73884" lon="-0.50584">
        <ele>22.089</ele>
        <time>2017-03-23T19:37:21Z</time>
      </trkpt>
      <trkpt lat="45.73888" lon="-0.50535">
        <ele>24.417</ele>
        <time>2017-03-23T19:37:41Z</time>
      </trkpt>
      <trkpt lat="45.73908" lon="-0.5053">
        <ele>25.608</ele>
        <time>2017-03-23T19:38:01Z</time>
      </trkpt>
      <trkpt lat="45.73926" lon="-0.50481">
        <ele>29.818</ele>
        <time>2017-03-23T19:38:21Z</time>
      </trkpt>
      <trkpt lat="45.73955" lon="-0.5047">
        <ele>34.312</ele>
        <time>2017-03-23T19:38:41Z</time>
      </trkpt>
      <trkpt lat="45.73962" lon="-0.50456">
        <ele>36.489</ele>
        <time>2017-03-23T19:39:01Z</time>
      </trkpt>
      <trkpt lat="45.73992" lon="-0.50458">
        <ele>37.972</ele>
        <time>2017-03-23T19:39:21Z</time>
      </trkpt>
      <trkpt lat="45.74006" lon="-0.50444">
        <ele>39.933</ele>
        <time>2017-03-23T19:39:41Z</time>
      </trkpt>
      <trkpt lat="45.74068" lon="-0.50461">
        <ele>33.766</ele>
        <time>2017-03-23T19:40:01Z</time>
      </trkpt>
      <trkpt lat="45.74097" lon="-0.50483">
        <ele>31.072</ele>
        <time>2017-03-23T19:40:21Z</time>
      </trkpt>
      <trkpt lat="45.74112" lon="-0.50516">
        <ele>25.846</ele>
        <time>2017-03-23T19:40:41Z</time>
      </trkpt>
      <trkpt lat="45.74105" lon="-0.50538">
        <ele>23.184</ele>
        <time>2017-03-23T19:41:01Z</time>
      </trkpt>
      <trkpt lat="45.7414" lon="-0.50552">
        <ele>23.507</ele>
        <time>2017-03-23T19:41:21Z</time>
      </trkpt>
      <trkpt lat="45.74166" lon="-0.50551">
        <ele>25.517</ele>
        <time>2017-03-23T19:41:41Z</time>
      </trkpt>
      <trkpt lat="45.74237" lon="-0.50579">
        <ele>27.608</ele>
        <time>2017-03-23T19:42:01Z</time>
      </trkpt>
      <trkpt lat="45.74269" lon="-0.50605">
        <ele>27.084</ele>
        <time>2017-03-23T19:42:21Z</time>
      </trkpt>
      <trkpt lat="45.74302" lon="-0.50619">
        <ele>26.468</ele>
        <time>2017-03-23T19:42:41Z</time>
      </trkpt>
      <trkpt lat="45.74355" lon="-0.50634">
        <ele>25.165</ele>
        <time>2017-03-23T19:43:01Z</time>
      </trkpt>
      <trkpt lat="45.74377" lon="-0.5063">
        <ele>23.558</ele>
        <time>2017-03-23T19:43:21Z</time>
      </trkpt>
      <trkpt lat="45.74403" lon="-0.50583">
        <ele>26.099</ele>
        <time>2017-03-23T19:43:41Z</time>
      </trkpt>
      <trkpt lat="45.74438" lon="-0.50589">
        <ele>27.782</ele>
        <time>2017-03-23T19:44:01Z</time>
      </trkpt>
      <trkpt lat="45.74483" lon="-0.50578">
        <ele>32.518</ele>
        <time>2017-03-23T19:44:21Z</time>
      </trkpt>
      <trkpt lat="45.74502" lon="-0.50569">
        <ele>35.162</ele>
        <time>2017-03-23T19:44:41Z</time>
      </trkpt>
      <trkpt lat="45.74596" lon="-0.50603">
        <ele>29.583</ele>
        <time>2017-03-23T19:45:01Z</time>
      </trkpt>
      <trkpt lat="45.74632" lon="-0.50636">
        <ele>26.925</ele>
        <time>2017-03-23T19:45:21Z</time>
      </trkpt>
      <trkpt lat="45.74683" lon="-0.50682">
        <ele>26.917</ele>
        <time>2017-03-23T19:45:41Z</time>
      </trkpt>
      <trkpt lat="45.74743" lon="-0.50725">
        <ele>28.708</ele>
        <time>2017-03-23T19:46:01Z</time>
      </trkpt>
      <trkpt lat="45.74794" lon="-0.50735">
        <ele>33.434</ele>
        <time>2017-03-23T19:46:21Z</time>
      </trkpt>
      <trkpt lat="45.74854" lon="-0.50726">
        <ele>36.268</ele>
        <time>2017-03-23T19:46:41Z</time>
      </trkpt>
      <trkpt lat="45.74923" lon="-0.50694">
        <ele>33.475</ele>
        <time>2017-03-23T19:47:01Z</time>
      </trkpt>
      <trkpt lat="45.74957" lon="-0.50669">
        <ele>33.538</ele>
        <time>2017-03-23T19:47:21Z</time>
      </trkpt>
      <trkpt lat="45.75015" lon="-0.50629">
        <ele>33.039</ele>
        <time>2017-03-23T19:47:41Z</time>
      </trkpt>
      <trkpt lat="45.75045" lon="-0.50621">
        <ele>30.852</ele>
        <time>2017-03-23T19:48:01Z</time>
      </trkpt>
      <trkpt lat="45.75063" lon="-0.50594">
        <ele>31.678</ele>
        <time>2017-03-23T19:48:21Z</time>
      </trkpt>
      <trkpt lat="45.75077" lon="-0.50602">
        <ele>29.622</ele>
        <time>2017-03-23T19:48:41Z</time>
      </trkpt>
      <trkpt lat="45.75137" lon="-0.50614">
        <ele>30.858</ele>
        <time>2017-03-23T19:49:01Z</time>
      </trkpt>
      <trkpt lat="45.7517" lon="-0.50635">
        <ele>27.152</ele>
        <time>2017-03-23T19:49:21Z</time>
      </trkpt>
      <trkpt lat="45.75196" lon="-0.50667">
        <ele>24.117</ele>
        <time>2017-03-23T19:49:41Z</time>
      </trkpt>
      <trkpt lat="45.75281" lon="-0.5058">
        <ele>25.208</ele>
        <time>2017-03-23T19:50:01Z</time>
      </trkpt>
      <trkpt lat="45.75297" lon="-0.50576">
        <ele>26.381</ele>
        <time>2017-03-23T19:50:21Z</time>
      </trkpt>
      <trkpt lat="45.7531" lon="-0.50593">
        <ele>28.075</ele>
        <time>2017-03-23T19:50:41Z</time>
      </trkpt>
      <trkpt lat="45.75347" lon="-0.50515">
        <ele>27.572</ele>
        <time>2017-03-23T19:51:01Z</time>
      </trkpt>
      <trkpt lat="45.75387" lon="-0.50474">
        <ele>27.995</ele>
        <time>2017-03-23T19:51:21Z</time>
      </trkpt>
      <trkpt lat="45.75435" lon="-0.50398">
        <ele>30.536</ele>
        <time>2017-03-23T19:51:41Z</time>
      </trkpt>
      <trkpt lat="45.75451" lon="-0.5036">
        <ele>30.379</ele>
        <time>2017-03-23T19:52:01Z</time>
      </trkpt>
      <trkpt lat="45.75464" lon="-0.50313">
        <ele>32.585</ele>
        <time>2017-03-23T19:52:21Z</time>
      </trkpt>
      <trkpt lat="45.75481" lon="-0.50282">
        <ele>33.929</ele>
        <time>2017-03-23T19:52:41Z</time>
      </trkpt>
      <trkpt lat="45.7552" lon="-0.50262">
        <ele>32.549</ele>
        <time>2017-03-23T19:53:01Z</time>
      </trkpt>
      <trkpt lat="45.75569" lon="-0.50261">
        <ele>29.702</ele>
        <time>2017-03-23T19:53:21Z</time>
      </trkpt>
      <trkpt lat="45.7564" lon="-0.50284">
        <ele>33.522</ele>
        <time>2017-03-23T19:53:41Z</time>
      </trkpt>
      <trkpt lat="45.75646" lon="-0.50267">
        <ele>32.908</ele>
        <time>2017-03-23T19:54:01Z</time>
      </trkpt>
      <trkpt lat="45.75703" lon="-0.50267">
        <ele>33.86</ele>
        <time>2017-03-23T19:54:21Z</time>
      </trkpt>
      <trkpt lat="45.75724" lon="-0.50247">
        <ele>33.114</ele>
        <time>2017-03-23T19:54:41Z</time>
      </trkpt>
      <trkpt lat="45.75735" lon="-0.50228">
        <ele>33.951</ele>
        <time>2017-03-23T19:55:01Z</time>
      </trkpt>
      <trkpt lat="45.75769" lon="-0.502">
        <ele>38.614</ele>
        <time>2017-03-23T19:55:21Z</time>
      </trkpt>
      <trkpt lat="45.75792" lon="-0.50192">
        <ele>40.045</ele>
        <time>2017-03-23T19:55:41Z</time>
      </trkpt>
      <trkpt lat="45.75878" lon="-0.50134">
        <ele>38.438</ele>
        <time>2017-03-23T19:56:01Z</time>
      </trkpt>
      <trkpt lat="45.75921" lon="-0.50089">
        <ele>36.774</ele>
        <time>2017-03-23T19:56:21Z</time>
      </trkpt>
      <trkpt lat="45.75948" lon="-0.50035">
        <ele>40.088</ele>
        <time>2017-03-23T19:56:41Z</time>
      </trkpt>
      <trkpt lat="45.75953" lon="-0.50015">
        <ele>43.654</ele>
        <time>2017-03-23T19:57:01Z</time>
      </trkpt>
      <trkpt lat="45.75949" lon="-0.49985">
        <ele>50.456</ele>
        <time>2017-03-23T19:57:21Z</time>
      </trkpt>
      <trkpt lat="45.75998" lon="-0.49951">
        <ele>45.611</ele>
        <time>2017-03-23T19:57:41Z</time>
      </trkpt>
      <trkpt lat="45.76046" lon="-0.49883">
        <ele>41.308</ele>
        <time>2017-03-23T19:58:01Z</time>
      </trkpt>
      <trkpt lat="45.76077" lon="-0.4985">
        <ele>38.971</ele>
        <time>2017-03-23T19:58:21Z</time>
      </trkpt>
      <trkpt lat="45.76111" lon="-0.49831">
        <ele>38.375</ele>
        <time>2017-03-23T19:58:41Z</time>
      </trkpt>
      <trkpt lat="45.76112" lon="-0.49772">
        <ele>43.352</ele>
        <time>2017-03-23T19:59:01Z</time>
      </trkpt>
      <trkpt lat="45.76087" lon="-0.4968">
        <ele>55.195</ele>
        <time>2017-03-23T19:59:21Z</time>
      </trkpt>
      <trkpt lat="45.76109" lon="-0.49671">
        <ele>52.946</ele>
        <time>2017-03-23T19:59:41Z</time>
      </trkpt>
      <trkpt lat="45.76131" lon="-0.4967">
        <ele>51.339</ele>
        <time>2017-03-23T20:00:01Z</time>
      </trkpt>
      <trkpt lat="45.76175" lon="-0.49633">
        <ele>52.615</ele>
        <time>2017-03-23T20:00:21Z</time>
      </trkpt>
      <trkpt lat="45.76228" lon="-0.49581">
        <ele>45.459</ele>
        <time>2017-03-23T20:00:41Z</time>
      </trkpt>
      <trkpt lat="45.76246" lon="-0.49551">
        <ele>45.622</ele>
        <time>2017-03-23T20:01:01Z</time>
      </trkpt>
      <trkpt lat="45.76259" lon="-0.49479">
        <ele>41.962</ele>
        <time>2017-03-23T20:01:21Z</time>
      </trkpt>
      <trkpt lat="45.7628" lon="-0.49474">
        <ele>37.908</ele>
        <time>2017-03-23T20:01:41Z</time>
      </trkpt>
      <trkpt lat="45.76328" lon="-0.49494">
        <ele>36.408</ele>
        <time>2017-03-23T20:02:01Z</time>
      </trkpt>
      <trkpt lat="45.76361" lon="-0.49492">
        <ele>39.618</ele>
        <time>2017-03-23T20:02:21Z</time>
      </trkpt>
      <trkpt lat="45.76384" lon="-0.49477">
        <ele>41.622</ele>
        <time>2017-03-23T20:02:41Z</time>
      </trkpt>
      <trkpt lat="45.7641" lon="-0.49444">
        <ele>40.539</ele>
        <time>2017-03-23T20:03:01Z</time>
      </trkpt>
      <trkpt lat="45.76431" lon="-0.49501">
        <ele>39.522</ele>
        <time>2017-03-23T20:03:21Z</time>
      </trkpt>
      <trkpt lat="45.76437" lon="-0.49546">
        <ele>39.523</ele>
        <time>2017-03-23T20:03:41Z</time>
      </trkpt>
      <trkpt lat="45.76437" lon="-0.4958">
        <ele>39.316</ele>
        <time>2017-03-23T20:04:01Z</time>
      </trkpt>
      <trkpt lat="45.76449" lon="-0.49608">
        <ele>40.022</ele>
        <time>2017-03-23T20:04:21Z</time>
      </trkpt>
      <trkpt lat="45.76545" lon="-0.49536">
        <ele>40.476</ele>
        <time>2017-03-23T20:04:41Z</time>
      </trkpt>
      <trkpt lat="45.76663" lon="-0.49304">
        <ele>41.999</ele>
        <time>2017-03-23T20:05:01Z</time>
      </trkpt>
      <trkpt lat="45.76684" lon="-0.49185">
        <ele>41.107</ele>
        <time>2017-03-23T20:05:21Z</time>
      </trkpt>
      <trkpt lat="45.76694" lon="-0.49188">
        <ele>42.027</ele>
        <time>2017-03-23T20:05:41Z</time>
      </trkpt>
      <trkpt lat="45.76717" lon="-0.49206">
        <ele>44.108</ele>
        <time>2017-03-23T20:06:01Z</time>
      </trkpt>
      <trkpt lat="45.76757" lon="-0.49146">
        <ele>52.865</ele>
        <time>2017-03-23T20:06:21Z</time>
      </trkpt>
      <trkpt lat="45.76787" lon="-0.49156">
        <ele>57.569</ele>
        <time>2017-03-23T20:06:41Z</time>
      </trkpt>
      <trkpt lat="45.76805" lon="-0.49082">
        <ele>53.826</ele>
        <time>2017-03-23T20:07:01Z</time>
      </trkpt>
      <trkpt lat="45.76834" lon="-0.49056">
        <ele>54.029</ele>
        <time>2017-03-23T20:07:21Z</time>
      </trkpt>
      <trkpt lat="45.76842" lon="-0.49055">
        <ele>54.93</ele>
        <time>2017-03-23T20:07:41Z</time>
      </trkpt>
      <trkpt lat="45.76861" lon="-0.49042">
        <ele>54.673</ele>
        <time>2017-03-23T20:08:01Z</time>
      </trkpt>
      <trkpt lat="45.76882" lon="-0.49039">
        <ele>53.639</ele>
        <time>2017-03-23T20:08:21Z</time>
      </trkpt>
      <trkpt lat="45.76921" lon="-0.49038">
        <ele>52.283</ele>
        <time>2017-03-23T20:08:41Z</time>
      </trkpt>
      <trkpt lat="45.76896" lon="-0.49013">
        <ele>48.174</ele>
        <time>2017-03-23T20:09:01Z</time>
      </trkpt>
      <trkpt lat="45.76888" lon="-0.48897">
        <ele>50.256</ele>
        <time>2017-03-23T20:09:21Z</time>
      </trkpt>
      <trkpt lat="45.76906" lon="-0.48869">
        <ele>53.321</ele>
        <time>2017-03-23T20:09:41Z</time>
      </trkpt>
      <trkpt lat="45.76943" lon="-0.48857">
        <ele>57.208</ele>
        <time>2017-03-23T20:10:01Z</time>
      </trkpt>
      <trkpt lat="45.76983" lon="-0.48779">
        <ele>63.373</ele>
        <time>2017-03-23T20:10:21Z</time>
      </trkpt>
      <trkpt lat="45.76989" lon="-0.48746">
        <ele>66.117</ele>
        <time>2017-03-23T20:10:41Z</time>
      </trkpt>
      <trkpt lat="45.76984" lon="-0.4869">
        <ele>68.684</ele>
        <time>2017-03-23T20:11:01Z</time>
      </trkpt>
      <trkpt lat="45.77053" lon="-0.48615">
        <ele>70.977</ele>
        <time>2017-03-23T20:11:21Z</time>
      </trkpt>
      <trkpt lat="45.77074" lon="-0.48585">
        <ele>71.958</ele>
        <time>2017-03-23T20:11:41Z</time>
      </trkpt>
      <trkpt lat="45.77072" lon="-0.48525">
        <ele>71.691</ele>
        <time>2017-03-23T20:12:01Z</time>
      </trkpt>
      <trkpt lat="45.7706" lon="-0.48432">
        <ele>69.747</ele>
        <time>2017-03-23T20:12:21Z</time>
      </trkpt>
      <trkpt lat="45.77073" lon="-0.48384">
        <ele>67.561</ele>
        <time>2017-03-23T20:12:41Z</time>
      </trkpt>
      <trkpt lat="45.77116" lon="-0.48327">
        <ele>68.183</ele>
        <time>2017-03-23T20:13:01Z</time>
      </trkpt>
      <trkpt lat="45.77213" lon="-0.48236">
        <ele>71.325</ele>
        <time>2017-03-23T20:13:21Z</time>
      </trkpt>
      <trkpt lat="45.77279" lon="-0.48158">
        <ele>75.017</ele>
        <time>2017-03-23T20:13:41Z</time>
      </trkpt>
      <trkpt lat="45.77289" lon="-0.48128">
        <ele>75.008</ele>
        <time>2017-03-23T20:14:01Z</time>
      </trkpt>
      <trkpt lat="45.77292" lon="-0.48073">
        <ele>75.564</ele>
        <time>2017-03-23T20:14:21Z</time>
      </trkpt>
      <trkpt lat="45.77326" lon="-0.47968">
        <ele>75.088</ele>
        <time>2017-03-23T20:14:41Z</time>
      </trkpt>
      <trkpt lat="45.77339" lon="-0.47945">
        <ele>75.295</ele>
        <time>2017-03-23T20:15:01Z</time>
      </trkpt>
      <trkpt lat="45.77405" lon="-0.47865">
        <ele>76.468</ele>
        <time>2017-03-23T20:15:21Z</time>
      </trkpt>
      <trkpt lat="45.77438" lon="-0.47787">
        <ele>75.069</ele>
        <time>2017-03-23T20:15:41Z</time>
      </trkpt>
      <trkpt lat="45.77453" lon="-0.47684">
        <ele>73.012</ele>
        <time>2017-03-23T20:16:01Z</time>
      </trkpt>
      <trkpt lat="45.77496" lon="-0.47586">
        <ele>67.338</ele>
        <time>2017-03-23T20:16:21Z</time>
      </trkpt>
      <trkpt lat="45.77519" lon="-0.47464">
        <ele>65.492</ele>
        <time>2017-03-23T20:16:41Z</time>
      </trkpt>
      <trkpt lat="45.7759" lon="-0.47342">
        <ele>70.052</ele>
        <time>2017-03-23T20:17:01Z</time>
      </trkpt>
      <trkpt lat="45.77584" lon="-0.47289">
        <ele>71.653</ele>
        <time>2017-03-23T20:17:21Z</time>
      </trkpt>
      <trkpt lat="45.77567" lon="-0.47218">
        <ele>72.708</ele>
        <time>2017-03-23T20:17:41Z</time>
      </trkpt>
      <trkpt lat="45.77526" lon="-0.47096">
        <ele>75.608</ele>
        <time>2017-03-23T20:18:01Z</time>
      </trkpt>
      <trkpt lat="45.77508" lon="-0.47068">
        <ele>76.661</ele>
        <time>2017-03-23T20:18:21Z</time>
      </trkpt>
      <trkpt lat="45.7736" lon="-0.46973">
        <ele>79.155</ele>
        <time>2017-03-23T20:18:41Z</time>
      </trkpt>
      <trkpt lat="45.77301" lon="-0.46943">
        <ele>81.122</ele>
        <time>2017-03-23T20:19:01Z</time>
      </trkpt>
      <trkpt lat="45.77312" lon="-0.469">
        <ele>81.955</ele>
        <time>2017-03-23T20:19:21Z</time>
      </trkpt>
      <trkpt lat="45.77267" lon="-0.46838">
        <ele>81.336</ele>
        <time>2017-03-23T20:19:41Z</time>
      </trkpt>
      <trkpt lat="45.77249" lon="-0.46788">
        <ele>81.099</ele>
        <time>2017-03-23T20:20:01Z</time>
      </trkpt>
      <trkpt lat="45.77245" lon="-0.46769">
        <ele>80.875</ele>
        <time>2017-03-23T20:20:21Z</time>
      </trkpt>
      <trkpt lat="45.77116" lon="-0.46798">
        <ele>75.649</ele>
        <time>2017-03-23T20:20:41Z</time>
      </trkpt>
      <trkpt lat="45.77081" lon="-0.46814">
        <ele>74.539</ele>
        <time>2017-03-23T20:21:01Z</time>
      </trkpt>
      <trkpt lat="45.7705" lon="-0.46842">
        <ele>74.701</ele>
        <time>2017-03-23T20:21:21Z</time>
      </trkpt>
      <trkpt lat="45.77039" lon="-0.46867">
        <ele>73.421</ele>
        <time>2017-03-23T20:21:41Z</time>
      </trkpt>
      <trkpt lat="45.77033" lon="-0.46814">
        <ele>72.308</ele>
        <time>2017-03-23T20:22:01Z</time>
      </trkpt>
      <trkpt lat="45.76973" lon="-0.46653">
        <ele>70.179</ele>
        <time>2017-03-23T20:22:21Z</time>
      </trkpt>
      <trkpt lat="45.76963" lon="-0.46599">
        <ele>71.953</ele>
        <time>2017-03-23T20:22:41Z</time>
      </trkpt>
      <trkpt lat="45.76966" lon="-0.4657">
        <ele>74.34</ele>
        <time>2017-03-23T20:23:01Z</time>
      </trkpt>
      <trkpt lat="45.76983" lon="-0.46499">
        <ele>79.123</ele>
        <time>2017-03-23T20:23:21Z</time>
      </trkpt>
      <trkpt lat="45.77021" lon="-0.46439">
        <ele>79.434</ele>
        <time>2017-03-23T20:23:41Z</time>
      </trkpt>
      <trkpt lat="45.77057" lon="-0.46399">
        <ele>80.057</ele>
        <time>2017-03-23T20:24:01Z</time>
      </trkpt>
      <trkpt lat="45.77083" lon="-0.46347">
        <ele>80.473</ele>
        <time>2017-03-23T20:24:21Z</time>
      </trkpt>
      <trkpt lat="45.77085" lon="-0.46284">
        <ele>79.847</ele>
        <time>2017-03-23T20:24:41Z</time>
      </trkpt>
      <trkpt lat="45.77063" lon="-0.46124">
        <ele>84.134</ele>
        <time>2017-03-23T20:25:01Z</time>
      </trkpt>
      <trkpt lat="45.77063" lon="-0.46067">
        <ele>81.755</ele>
        <time>2017-03-23T20:25:21Z</time>
      </trkpt>
      <trkpt lat="45.77154" lon="-0.45823">
        <ele>82.11</ele>
        <time>2017-03-23T20:25:41Z</time>
      </trkpt>
      <trkpt lat="45.7709" lon="-0.45843">
        <ele>77.808</ele>
        <time>2017-03-23T20:26:01Z</time>
      </trkpt>
      <trkpt lat="45.77038" lon="-0.45887">
        <ele>73.179</ele>
        <time>2017-03-23T20:26:21Z</time>
      </trkpt>
      <trkpt lat="45.76988" lon="-0.45897">
        <ele>69.623</ele>
        <time>2017-03-23T20:26:41Z</time>
      </trkpt>
      <trkpt lat="45.76911" lon="-0.45881">
        <ele>76.83</ele>
        <time>2017-03-23T20:27:01Z</time>
      </trkpt>
      <trkpt lat="45.76864" lon="-0.45886">
        <ele>80.813</ele>
        <time>2017-03-23T20:27:21Z</time>
      </trkpt>
      <trkpt lat="45.76815" lon="-0.45914">
        <ele>80.314</ele>
        <time>2017-03-23T20:27:41Z</time>
      </trkpt>
      <trkpt lat="45.76637" lon="-0.45989">
        <ele>80.097</ele>
        <time>2017-03-23T20:28:01Z</time>
      </trkpt>
      <trkpt lat="45.76622" lon="-0.45999">
        <ele>80.033</ele>
        <time>2017-03-23T20:28:21Z</time>
      </trkpt>
      <trkpt lat="45.76455" lon="-0.46026">
        <ele>74.837</ele>
        <time>2017-03-23T20:28:41Z</time>
      </trkpt>
      <trkpt lat="45.76378" lon="-0.46025">
        <ele>68.583</ele>
        <time>2017-03-23T20:29:01Z</time>
      </trkpt>
      <trkpt lat="45.76357" lon="-0.45968">
        <ele>66.725</ele>
        <time>2017-03-23T20:29:21Z</time>
      </trkpt>
      <trkpt lat="45.76338" lon="-0.45948">
        <ele>65.317</ele>
        <time>2017-03-23T20:29:41Z</time>
      </trkpt>
      <trkpt lat="45.76301" lon="-0.4595">
        <ele>65.008</ele>
        <time>2017-03-23T20:30:01Z</time>
      </trkpt>
      <trkpt lat="45.76222" lon="-0.45834">
        <ele>72.084</ele>
        <time>2017-03-23T20:30:21Z</time>
      </trkpt>
      <trkpt lat="45.76195" lon="-0.45776">
        <ele>74.968</ele>
        <time>2017-03-23T20:30:41Z</time>
      </trkpt>
      <trkpt lat="45.76182" lon="-0.45707">
        <ele>73.685</ele>
        <time>2017-03-23T20:31:01Z</time>
      </trkpt>
      <trkpt lat="45.76164" lon="-0.45668">
        <ele>74.198</ele>
        <time>2017-03-23T20:31:21Z</time>
      </trkpt>
      <trkpt lat="45.76111" lon="-0.45614">
        <ele>74.919</ele>
        <time>2017-03-23T20:31:41Z</time>
      </trkpt>
      <trkpt lat="45.76099" lon="-0.45596">
        <ele>75.232</ele>
        <time>2017-03-23T20:32:01Z</time>
      </trkpt>
      <trkpt lat="45.76061" lon="-0.45561">
        <ele>76.898</ele>
        <time>2017-03-23T20:32:21Z</time>
      </trkpt>
      <trkpt lat="45.75778" lon="-0.45407">
        <ele>83.012</ele>
        <time>2017-03-23T20:32:41Z</time>
      </trkpt>
      <trkpt lat="45.75514" lon="-0.45125">
        <ele>84.868</ele>
        <time>2017-03-23T20:33:01Z</time>
      </trkpt>
      <trkpt lat="45.75397" lon="-0.45021">
        <ele>85.342</ele>
        <time>2017-03-23T20:33:21Z</time>
      </trkpt>
      <trkpt lat="45.75287" lon="-0.44929">
        <ele>83.226</ele>
        <time>2017-03-23T20:33:41Z</time>
      </trkpt>
      <trkpt lat="45.75176" lon="-0.44817">
        <ele>83.008</ele>
        <time>2017-03-23T20:34:01Z</time>
      </trkpt>
      <trkpt lat="45.75061" lon="-0.44705">
        <ele>85.012</ele>
        <time>2017-03-23T20:34:21Z</time>
      </trkpt>
      <trkpt lat="45.74963" lon="-0.44626">
        <ele>85.066</ele>
        <time>2017-03-23T20:34:41Z</time>
      </trkpt>
      <trkpt lat="45.74876" lon="-0.44566">
        <ele>85.083</ele>
        <time>2017-03-23T20:35:01Z</time>
      </trkpt>
      <trkpt lat="45.74843" lon="-0.44535">
        <ele>83.316</ele>
        <time>2017-03-23T20:35:21Z</time>
      </trkpt>
      <trkpt lat="45.74802" lon="-0.44523">
        <ele>84.177</ele>
        <time>2017-03-23T20:35:41Z</time>
      </trkpt>
      <trkpt lat="45.74733" lon="-0.44522">
        <ele>85.87</ele>
        <time>2017-03-23T20:36:01Z</time>
      </trkpt>
      <trkpt lat="45.74577" lon="-0.44467">
        <ele>88.156</ele>
        <time>2017-03-23T20:36:21Z</time>
      </trkpt>
      <trkpt lat="45.74619" lon="-0.44304">
        <ele>84.78</ele>
        <time>2017-03-23T20:36:41Z</time>
      </trkpt>
      <trkpt lat="45.74608" lon="-0.4423">
        <ele>84.098</ele>
        <time>2017-03-23T20:37:01Z</time>
      </trkpt>
      <trkpt lat="45.74509" lon="-0.44164">
        <ele>83.615</ele>
        <time>2017-03-23T20:37:21Z</time>
      </trkpt>
      <trkpt lat="45.74482" lon="-0.44122">
        <ele>83.926</ele>
        <time>2017-03-23T20:37:41Z</time>
      </trkpt>
      <trkpt lat="45.74471" lon="-0.44085">
        <ele>84.008</ele>
        <time>2017-03-23T20:38:01Z</time>
      </trkpt>
      <trkpt lat="45.74466" lon="-0.44012">
        <ele>83.365</ele>
        <time>2017-03-23T20:38:21Z</time>
      </trkpt>
      <trkpt lat="45.74465" lon="-0.43923">
        <ele>83.069</ele>
        <time>2017-03-23T20:38:41Z</time>
      </trkpt>
      <trkpt lat="45.74446" lon="-0.43897">
        <ele>83.056</ele>
        <time>2017-03-23T20:39:01Z</time>
      </trkpt>
      <trkpt lat="45.74418" lon="-0.43794">
        <ele>83.589</ele>
        <time>2017-03-23T20:39:21Z</time>
      </trkpt>
      <trkpt lat="45.7432" lon="-0.43905">
        <ele>80.37</ele>
        <time>2017-03-23T20:39:41Z</time>
      </trkpt>
      <trkpt lat="45.74295" lon="-0.43941">
        <ele>81.433</ele>
        <time>2017-03-23T20:40:01Z</time>
      </trkpt>
      <trkpt lat="45.74241" lon="-0.43983">
        <ele>83.059</ele>
        <time>2017-03-23T20:40:21Z</time>
      </trkpt>
      <trkpt lat="45.74181" lon="-0.44007">
        <ele>85.373</ele>
        <time>2017-03-23T20:40:41Z</time>
      </trkpt>
      <trkpt lat="45.74127" lon="-0.44014">
        <ele>84.149</ele>
        <time>2017-03-23T20:41:01Z</time>
      </trkpt>
      <trkpt lat="45.74069" lon="-0.44002">
        <ele>81.002</ele>
        <time>2017-03-23T20:41:21Z</time>
      </trkpt>
      <trkpt lat="45.74046" lon="-0.44026">
        <ele>80.022</ele>
        <time>2017-03-23T20:41:41Z</time>
      </trkpt>
      <trkpt lat="45.74061" lon="-0.4378">
        <ele>77.708</ele>
        <time>2017-03-23T20:42:01Z</time>
      </trkpt>
      <trkpt lat="45.74063" lon="-0.43639">
        <ele>77.59</ele>
        <time>2017-03-23T20:42:21Z</time>
      </trkpt>
      <trkpt lat="45.74051" lon="-0.43577">
        <ele>76.894</ele>
        <time>2017-03-23T20:42:41Z</time>
      </trkpt>
      <trkpt lat="45.74071" lon="-0.4349">
        <ele>77.751</ele>
        <time>2017-03-23T20:43:01Z</time>
      </trkpt>
      <trkpt lat="45.74079" lon="-0.43431">
        <ele>78.154</ele>
        <time>2017-03-23T20:43:21Z</time>
      </trkpt>
      <trkpt lat="45.74092" lon="-0.42804">
        <ele>79.915</ele>
        <time>2017-03-23T20:43:41Z</time>
      </trkpt>
      <trkpt lat="45.74126" lon="-0.42293">
        <ele>75.068</ele>
        <time>2017-03-23T20:44:01Z</time>
      </trkpt>
      <trkpt lat="45.74149" lon="-0.41872">
        <ele>79.084</ele>
        <time>2017-03-23T20:44:21Z</time>
      </trkpt>
      <trkpt lat="45.74184" lon="-0.41658">
        <ele>68.078</ele>
        <time>2017-03-23T20:44:41Z</time>
      </trkpt>
      <trkpt lat="45.74187" lon="-0.41538">
        <ele>56.075</ele>
        <time>2017-03-23T20:45:01Z</time>
      </trkpt>
      <trkpt lat="45.7417" lon="-0.41509">
        <ele>56.728</ele>
        <time>2017-03-23T20:45:21Z</time>
      </trkpt>
      <trkpt lat="45.74191" lon="-0.41446">
        <ele>61.82</ele>
        <time>2017-03-23T20:45:41Z</time>
      </trkpt>
      <trkpt lat="45.74207" lon="-0.41402">
        <ele>66.408</ele>
        <time>2017-03-23T20:46:01Z</time>
      </trkpt>
      <trkpt lat="45.74211" lon="-0.41352">
        <ele>71.563</ele>
        <time>2017-03-23T20:46:21Z</time>
      </trkpt>
      <trkpt lat="45.74212" lon="-0.41251">
        <ele>78.637</ele>
        <time>2017-03-23T20:46:41Z</time>
      </trkpt>
      <trkpt lat="45.74235" lon="-0.40935">
        <ele>79.154</ele>
        <time>2017-03-23T20:47:01Z</time>
      </trkpt>
      <trkpt lat="45.74229" lon="-0.40874">
        <ele>73.757</ele>
        <time>2017-03-23T20:47:21Z</time>
      </trkpt>
      <trkpt lat="45.74251" lon="-0.40838">
        <ele>69.518</ele>
        <time>2017-03-23T20:47:41Z</time>
      </trkpt>
      <trkpt lat="45.74249" lon="-0.40809">
        <ele>68.261</ele>
        <time>2017-03-23T20:48:01Z</time>
      </trkpt>
      <trkpt lat="45.7423" lon="-0.40785">
        <ele>68.227</ele>
        <time>2017-03-23T20:48:21Z</time>
      </trkpt>
      <trkpt lat="45.74233" lon="-0.40749">
        <ele>68.091</ele>
        <time>2017-03-23T20:48:41Z</time>
      </trkpt>
      <trkpt lat="45.74246" lon="-0.40717">
        <ele>68.818</ele>
        <time>2017-03-23T20:49:01Z</time>
      </trkpt>
      <trkpt lat="45.74256" lon="-0.40519">
        <ele>76.098</ele>
        <time>2017-03-23T20:49:21Z</time>
      </trkpt>
      <trkpt lat="45.74229" lon="-0.40526">
        <ele>75.217</ele>
        <time>2017-03-23T20:49:41Z</time>
      </trkpt>
      <trkpt lat="45.74131" lon="-0.40524">
        <ele>71.508</ele>
        <time>2017-03-23T20:50:01Z</time>
      </trkpt>
      <trkpt lat="45.74041" lon="-0.40531">
        <ele>71.557</ele>
        <time>2017-03-23T20:50:21Z</time>
      </trkpt>
      <trkpt lat="45.73976" lon="-0.40528">
        <ele>70.111</ele>
        <time>2017-03-23T20:50:41Z</time>
      </trkpt>
      <trkpt lat="45.73933" lon="-0.40549">
        <ele>68.728</ele>
        <time>2017-03-23T20:51:01Z</time>
      </trkpt>
      <trkpt lat="45.73848" lon="-0.40634">
        <ele>61.851</ele>
        <time>2017-03-23T20:51:21Z</time>
      </trkpt>
      <trkpt lat="45.73813" lon="-0.40663">
        <ele>54.562</ele>
        <time>2017-03-23T20:51:41Z</time>
      </trkpt>
      <trkpt lat="45.73795" lon="-0.40668">
        <ele>51.955</ele>
        <time>2017-03-23T20:52:01Z</time>
      </trkpt>
      <trkpt lat="45.7378" lon="-0.40716">
        <ele>50.891</ele>
        <time>2017-03-23T20:52:21Z</time>
      </trkpt>
      <trkpt lat="45.73717" lon="-0.40728">
        <ele>50.655</ele>
        <time>2017-03-23T20:52:41Z</time>
      </trkpt>
      <trkpt lat="45.73696" lon="-0.40745">
        <ele>52.058</ele>
        <time>2017-03-23T20:53:01Z</time>
      </trkpt>
      <trkpt lat="45.73612" lon="-0.40842">
        <ele>70.952</ele>
        <time>2017-03-23T20:53:21Z</time>
      </trkpt>
      <trkpt lat="45.73551" lon="-0.40842">
        <ele>74.917</ele>
        <time>2017-03-23T20:53:41Z</time>
      </trkpt>
      <trkpt lat="45.73518" lon="-0.40824">
        <ele>76.608</ele>
        <time>2017-03-23T20:54:01Z</time>
      </trkpt>
      <trkpt lat="45.73507" lon="-0.40929">
        <ele>75.041</ele>
        <time>2017-03-23T20:54:21Z</time>
      </trkpt>
      <trkpt lat="45.7349" lon="-0.41051">
        <ele>78.275</ele>
        <time>2017-03-23T20:54:41Z</time>
      </trkpt>
      <trkpt lat="45.73482" lon="-0.41112">
        <ele>79.632</ele>
        <time>2017-03-23T20:55:01Z</time>
      </trkpt>
      <trkpt lat="45.73452" lon="-0.41215">
        <ele>78.255</ele>
        <time>2017-03-23T20:55:21Z</time>
      </trkpt>
      <trkpt lat="45.73444" lon="-0.41259">
        <ele>76.766</ele>
        <time>2017-03-23T20:55:41Z</time>
      </trkpt>
      <trkpt lat="45.73456" lon="-0.41354">
        <ele>72.819</ele>
        <time>2017-03-23T20:56:01Z</time>
      </trkpt>
      <trkpt lat="45.73452" lon="-0.41396">
        <ele>71.785</ele>
        <time>2017-03-23T20:56:21Z</time>
      </trkpt>
      <trkpt lat="45.73423" lon="-0.41463">
        <ele>73.099</ele>
        <time>2017-03-23T20:56:41Z</time>
      </trkpt>
      <trkpt lat="45.73403" lon="-0.4153">
        <ele>72.549</ele>
        <time>2017-03-23T20:57:01Z</time>
      </trkpt>
      <trkpt lat="45.73371" lon="-0.41661">
        <ele>73.302</ele>
        <time>2017-03-23T20:57:21Z</time>
      </trkpt>
      <trkpt lat="45.7332" lon="-0.41644">
        <ele>74.322</ele>
        <time>2017-03-23T20:57:41Z</time>
      </trkpt>
      <trkpt lat="45.73281" lon="-0.41646">
        <ele>74.908</ele>
        <time>2017-03-23T20:58:01Z</time>
      </trkpt>
      <trkpt lat="45.73252" lon="-0.41619">
        <ele>76.69</ele>
        <time>2017-03-23T20:58:21Z</time>
      </trkpt>
      <trkpt lat="45.73211" lon="-0.41596">
        <ele>77.684</ele>
        <time>2017-03-23T20:58:41Z</time>
      </trkpt>
      <trkpt lat="45.73177" lon="-0.41607">
        <ele>77.691</ele>
        <time>2017-03-23T20:59:01Z</time>
      </trkpt>
      <trkpt lat="45.73106" lon="-0.41675">
        <ele>79.934</ele>
        <time>2017-03-23T20:59:21Z</time>
      </trkpt>
      <trkpt lat="45.72923" lon="-0.41792">
        <ele>79.055</ele>
        <time>2017-03-23T20:59:41Z</time>
      </trkpt>
      <trkpt lat="45.72867" lon="-0.41832">
        <ele>79.078</ele>
        <time>2017-03-23T21:00:01Z</time>
      </trkpt>
      <trkpt lat="45.72822" lon="-0.41853">
        <ele>78.374</ele>
        <time>2017-03-23T21:00:21Z</time>
      </trkpt>
      <trkpt lat="45.72756" lon="-0.41856">
        <ele>74.488</ele>
        <time>2017-03-23T21:00:41Z</time>
      </trkpt>
      <trkpt lat="45.72643" lon="-0.41885">
        <ele>76.789</ele>
        <time>2017-03-23T21:01:01Z</time>
      </trkpt>
      <trkpt lat="45.72586" lon="-0.41892">
        <ele>76.906</ele>
        <time>2017-03-23T21:01:21Z</time>
      </trkpt>
      <trkpt lat="45.7259" lon="-0.41907">
        <ele>76.826</ele>
        <time>2017-03-23T21:01:41Z</time>
      </trkpt>
      <trkpt lat="45.72537" lon="-0.41985">
        <ele>79.808</ele>
        <time>2017-03-23T21:02:01Z</time>
      </trkpt>
      <trkpt lat="45.7245" lon="-0.42065">
        <ele>84.044</ele>
        <time>2017-03-23T21:02:21Z</time>
      </trkpt>
      <trkpt lat="45.72401" lon="-0.42076">
        <ele>83.638</ele>
        <time>2017-03-23T21:02:41Z</time>
      </trkpt>
      <trkpt lat="45.72297" lon="-0.4208">
        <ele>79.745</ele>
        <time>2017-03-23T21:03:01Z</time>
      </trkpt>
      <trkpt lat="45.72209" lon="-0.42144">
        <ele>74.548</ele>
        <time>2017-03-23T21:03:21Z</time>
      </trkpt>
      <trkpt lat="45.7215" lon="-0.42156">
        <ele>73.279</ele>
        <time>2017-03-23T21:03:41Z</time>
      </trkpt>
      <trkpt lat="45.72032" lon="-0.42131">
        <ele>75.342</ele>
        <time>2017-03-23T21:04:01Z</time>
      </trkpt>
      <trkpt lat="45.71874" lon="-0.42152">
        <ele>77.098</ele>
        <time>2017-03-23T21:04:21Z</time>
      </trkpt>
      <trkpt lat="45.71854" lon="-0.42062">
        <ele>77.382</ele>
        <time>2017-03-23T21:04:41Z</time>
      </trkpt>
      <trkpt lat="45.71849" lon="-0.42005">
        <ele>77.059</ele>
        <time>2017-03-23T21:05:01Z</time>
      </trkpt>
      <trkpt lat="45.71824" lon="-0.42001">
        <ele>77.003</ele>
        <time>2017-03-23T21:05:21Z</time>
      </trkpt>
      <trkpt lat="45.71753" lon="-0.42045">
        <ele>77.323</ele>
        <time>2017-03-23T21:05:41Z</time>
      </trkpt>
      <trkpt lat="45.71699" lon="-0.42102">
        <ele>77.008</ele>
        <time>2017-03-23T21:06:01Z</time>
      </trkpt>
      <trkpt lat="45.71616" lon="-0.42127">
        <ele>77.081</ele>
        <time>2017-03-23T21:06:21Z</time>
      </trkpt>
      <trkpt lat="45.71563" lon="-0.42121">
        <ele>77.015</ele>
        <time>2017-03-23T21:06:41Z</time>
      </trkpt>
      <trkpt lat="45.71512" lon="-0.42112">
        <ele>76.092</ele>
        <time>2017-03-23T21:07:01Z</time>
      </trkpt>
      <trkpt lat="45.7146" lon="-0.42138">
        <ele>75.665</ele>
        <time>2017-03-23T21:07:21Z</time>
      </trkpt>
      <trkpt lat="45.7139" lon="-0.42197">
        <ele>74.976</ele>
        <time>2017-03-23T21:07:41Z</time>
      </trkpt>
      <trkpt lat="45.71195" lon="-0.42258">
        <ele>72.019</ele>
        <time>2017-03-23T21:08:01Z</time>
      </trkpt>
      <trkpt lat="45.7114" lon="-0.42288">
        <ele>73.395</ele>
        <time>2017-03-23T21:08:21Z</time>
      </trkpt>
      <trkpt lat="45.70966" lon="-0.42356">
        <ele>73.039</ele>
        <time>2017-03-23T21:08:41Z</time>
      </trkpt>
      <trkpt lat="45.70941" lon="-0.42386">
        <ele>73.012</ele>
        <time>2017-03-23T21:09:01Z</time>
      </trkpt>
      <trkpt lat="45.70822" lon="-0.42691">
        <ele>63.932</ele>
        <time>2017-03-23T21:09:21Z</time>
      </trkpt>
      <trkpt lat="45.7083" lon="-0.42811">
        <ele>55.905</ele>
        <time>2017-03-23T21:09:41Z</time>
      </trkpt>
      <trkpt lat="45.70902" lon="-0.42894">
        <ele>45.408</ele>
        <time>2017-03-23T21:10:01Z</time>
      </trkpt>
      <trkpt lat="45.70948" lon="-0.42887">
        <ele>46.387</ele>
        <time>2017-03-23T21:10:21Z</time>
      </trkpt>
      <trkpt lat="45.70993" lon="-0.42937">
        <ele>45.041</ele>
        <time>2017-03-23T21:10:41Z</time>
      </trkpt>
      <trkpt lat="45.70975" lon="-0.42967">
        <ele>45.128</ele>
        <time>2017-03-23T21:11:01Z</time>
      </trkpt>
      <trkpt lat="45.70969" lon="-0.43081">
        <ele>56.431</ele>
        <time>2017-03-23T21:11:21Z</time>
      </trkpt>
      <trkpt lat="45.7104" lon="-0.43346">
        <ele>69.472</ele>
        <time>2017-03-23T21:11:41Z</time>
      </trkpt>
      <trkpt lat="45.7104" lon="-0.43374">
        <ele>70.545</ele>
        <time>2020-11-18T20:34:45Z</time>
      </trkpt>
      <trkpt lat="45.70973" lon="-0.43354">
        <ele>68.811</ele>
        <time>2020-11-18T20:35:05Z</time>
      </trkpt>
      <trkpt lat="45.70908" lon="-0.43351">
        <ele>66.475</ele>
        <time>2020-11-18T20:35:25Z</time>
      </trkpt>
      <trkpt lat="45.70875" lon="-0.43307">
        <ele>66.575</ele>
        <time>2020-11-18T20:35:45Z</time>
      </trkpt>
      <trkpt lat="45.70763" lon="-0.43305">
        <ele>64.928</ele>
        <time>2020-11-18T20:36:05Z</time>
      </trkpt>
      <trkpt lat="45.70741" lon="-0.43297">
        <ele>62.72</ele>
        <time>2020-11-18T20:36:25Z</time>
      </trkpt>
      <trkpt lat="45.70698" lon="-0.4326">
        <ele>57.508</ele>
        <time>2020-11-18T20:36:45Z</time>
      </trkpt>
      <trkpt lat="45.70558" lon="-0.43278">
        <ele>37.353</ele>
        <time>2020-11-18T20:37:05Z</time>
      </trkpt>
      <trkpt lat="45.7057" lon="-0.43315">
        <ele>38.317</ele>
        <time>2020-11-18T20:37:25Z</time>
      </trkpt>
      <trkpt lat="45.70574" lon="-0.43355">
        <ele>38.964</ele>
        <time>2020-11-18T20:37:45Z</time>
      </trkpt>
      <trkpt lat="45.70623" lon="-0.43415">
        <ele>41.917</ele>
        <time>2020-11-18T20:38:05Z</time>
      </trkpt>
      <trkpt lat="45.70702" lon="-0.43495">
        <ele>48.898</ele>
        <time>2020-11-18T20:38:25Z</time>
      </trkpt>
      <trkpt lat="45.70727" lon="-0.43556">
        <ele>44.861</ele>
        <time>2017-03-23T21:14:21Z</time>
      </trkpt>
      <trkpt lat="45.7068" lon="-0.43575">
        <ele>37.547</ele>
        <time>2017-03-23T21:14:41Z</time>
      </trkpt>
      <trkpt lat="45.70628" lon="-0.43644">
        <ele>44.421</ele>
        <time>2017-03-23T21:15:01Z</time>
      </trkpt>
      <trkpt lat="45.70587" lon="-0.43617">
        <ele>44.171</ele>
        <time>2017-03-23T21:15:21Z</time>
      </trkpt>
      <trkpt lat="45.70516" lon="-0.43661">
        <ele>52.541</ele>
        <time>2017-03-23T21:15:41Z</time>
      </trkpt>
      <trkpt lat="45.70485" lon="-0.43702">
        <ele>56.115</ele>
        <time>2017-03-23T21:16:01Z</time>
      </trkpt>
      <trkpt lat="45.70491" lon="-0.43762">
        <ele>55.708</ele>
        <time>2017-03-23T21:16:21Z</time>
      </trkpt>
      <trkpt lat="45.70468" lon="-0.43823">
        <ele>57.223</ele>
        <time>2017-03-23T21:16:41Z</time>
      </trkpt>
      <trkpt lat="45.7044" lon="-0.43856">
        <ele>58.527</ele>
        <time>2017-03-23T21:17:01Z</time>
      </trkpt>
      <trkpt lat="45.70419" lon="-0.43854">
        <ele>60.874</ele>
        <time>2017-03-23T21:17:21Z</time>
      </trkpt>
      <trkpt lat="45.70369" lon="-0.43719">
        <ele>59.917</ele>
        <time>2017-03-23T21:17:41Z</time>
      </trkpt>
      <trkpt lat="45.7022" lon="-0.43622">
        <ele>58.468</ele>
        <time>2017-03-23T21:18:01Z</time>
      </trkpt>
      <trkpt lat="45.70187" lon="-0.43587">
        <ele>59.011</ele>
        <time>2017-03-23T21:18:21Z</time>
      </trkpt>
      <trkpt lat="45.70155" lon="-0.43498">
        <ele>55.587</ele>
        <time>2017-03-23T21:18:41Z</time>
      </trkpt>
      <trkpt lat="45.70131" lon="-0.43404">
        <ele>57.081</ele>
        <time>2017-03-23T21:19:01Z</time>
      </trkpt>
      <trkpt lat="45.70064" lon="-0.43217">
        <ele>55.954</ele>
        <time>2017-03-23T21:19:21Z</time>
      </trkpt>
      <trkpt lat="45.69909" lon="-0.42944">
        <ele>54.756</ele>
        <time>2017-03-23T21:19:41Z</time>
      </trkpt>
      <trkpt lat="45.69867" lon="-0.42793">
        <ele>56.911</ele>
        <time>2017-03-23T21:20:01Z</time>
      </trkpt>
      <trkpt lat="45.69832" lon="-0.42754">
        <ele>56.608</ele>
        <time>2017-03-23T21:20:21Z</time>
      </trkpt>
      <trkpt lat="45.69814" lon="-0.4271">
        <ele>57.021</ele>
        <time>2017-03-23T21:20:41Z</time>
      </trkpt>
      <trkpt lat="45.6979" lon="-0.42688">
        <ele>57.185</ele>
        <time>2017-03-23T21:21:01Z</time>
      </trkpt>
      <trkpt lat="45.69756" lon="-0.42624">
        <ele>58.352</ele>
        <time>2017-03-23T21:21:21Z</time>
      </trkpt>
      <trkpt lat="45.69702" lon="-0.42572">
        <ele>59.835</ele>
        <time>2017-03-23T21:21:41Z</time>
      </trkpt>
      <trkpt lat="45.69638" lon="-0.42481">
        <ele>63.646</ele>
        <time>2017-03-23T21:22:01Z</time>
      </trkpt>
      <trkpt lat="45.69557" lon="-0.42081">
        <ele>61.149</ele>
        <time>2017-03-23T21:22:21Z</time>
      </trkpt>
      <trkpt lat="45.69487" lon="-0.41967">
        <ele>61.955</ele>
        <time>2017-03-23T21:22:41Z</time>
      </trkpt>
      <trkpt lat="45.69448" lon="-0.4165">
        <ele>59.469</ele>
        <time>2017-03-23T21:23:01Z</time>
      </trkpt>
      <trkpt lat="45.69613" lon="-0.41557">
        <ele>56.077</ele>
        <time>2017-03-23T21:23:21Z</time>
      </trkpt>
      <trkpt lat="45.69591" lon="-0.41444">
        <ele>48.761</ele>
        <time>2017-03-23T21:23:41Z</time>
      </trkpt>
      <trkpt lat="45.69524" lon="-0.41303">
        <ele>44.327</ele>
        <time>2017-03-23T21:24:01Z</time>
      </trkpt>
      <trkpt lat="45.69422" lon="-0.41101">
        <ele>40.108</ele>
        <time>2017-03-23T21:24:21Z</time>
      </trkpt>
      <trkpt lat="45.69509" lon="-0.41068">
        <ele>27.813</ele>
        <time>2017-03-23T21:24:41Z</time>
      </trkpt>
      <trkpt lat="45.69579" lon="-0.41016">
        <ele>17.417</ele>
        <time>2017-03-23T21:25:01Z</time>
      </trkpt>
      <trkpt lat="45.69557" lon="-0.40924">
        <ele>16.524</ele>
        <time>2017-03-23T21:25:21Z</time>
      </trkpt>
      <trkpt lat="45.69613" lon="-0.40878">
        <ele>17.287</ele>
        <time>2017-03-23T21:25:41Z</time>
      </trkpt>
      <trkpt lat="45.69589" lon="-0.40823">
        <ele>14.488</ele>
        <time>2017-03-23T21:26:01Z</time>
      </trkpt>
      <trkpt lat="45.69552" lon="-0.40788">
        <ele>14.871</ele>
        <time>2017-03-23T21:26:21Z</time>
      </trkpt>
      <trkpt lat="45.69581" lon="-0.40693">
        <ele>15.057</ele>
        <time>2017-03-23T21:26:41Z</time>
      </trkpt>
      <trkpt lat="45.69648" lon="-0.40699">
        <ele>18.571</ele>
        <time>2017-03-23T21:27:01Z</time>
      </trkpt>
      <trkpt lat="45.69661" lon="-0.40705">
        <ele>19.276</ele>
        <time>2017-03-23T21:27:21Z</time>
      </trkpt>
      <trkpt lat="45.69737" lon="-0.40507">
        <ele>29.79</ele>
        <time>2017-03-23T21:27:41Z</time>
      </trkpt>
      <trkpt lat="45.6977" lon="-0.40395">
        <ele>43.719</ele>
        <time>2017-03-23T21:28:01Z</time>
      </trkpt>
      <trkpt lat="45.69816" lon="-0.40314">
        <ele>54.108</ele>
        <time>2017-03-23T21:28:21Z</time>
      </trkpt>
      <trkpt lat="45.69843" lon="-0.40318">
        <ele>56.783</ele>
        <time>2017-03-23T21:28:41Z</time>
      </trkpt>
      <trkpt lat="45.70007" lon="-0.40283">
        <ele>57.367</ele>
        <time>2017-03-23T21:29:01Z</time>
      </trkpt>
      <trkpt lat="45.70054" lon="-0.40232">
        <ele>57.974</ele>
        <time>2017-03-23T21:29:21Z</time>
      </trkpt>
      <trkpt lat="45.70155" lon="-0.40074">
        <ele>57.987</ele>
        <time>2017-03-23T21:29:41Z</time>
      </trkpt>
      <trkpt lat="45.70013" lon="-0.399">
        <ele>53.368</ele>
        <time>2017-03-23T21:30:01Z</time>
      </trkpt>
      <trkpt lat="45.70001" lon="-0.39833">
        <ele>51.041</ele>
        <time>2017-03-23T21:30:21Z</time>
      </trkpt>
      <trkpt lat="45.69926" lon="-0.3969">
        <ele>34.987</ele>
        <time>2017-03-23T21:30:41Z</time>
      </trkpt>
      <trkpt lat="45.69901" lon="-0.39695">
        <ele>32.791</ele>
        <time>2017-03-23T21:31:01Z</time>
      </trkpt>
      <trkpt lat="45.69833" lon="-0.39749">
        <ele>30.036</ele>
        <time>2017-03-23T21:31:21Z</time>
      </trkpt>
      <trkpt lat="45.69785" lon="-0.39707">
        <ele>24.817</ele>
        <time>2017-03-23T21:31:41Z</time>
      </trkpt>
      <trkpt lat="45.69721" lon="-0.39616">
        <ele>25.918</ele>
        <time>2017-03-23T21:32:01Z</time>
      </trkpt>
      <trkpt lat="45.69793" lon="-0.39528">
        <ele>30.008</ele>
        <time>2017-03-23T21:32:21Z</time>
      </trkpt>
      <trkpt lat="45.69914" lon="-0.39442">
        <ele>28.039</ele>
        <time>2017-03-23T21:32:41Z</time>
      </trkpt>
      <trkpt lat="45.70009" lon="-0.39353">
        <ele>26.513</ele>
        <time>2017-03-23T21:33:01Z</time>
      </trkpt>
      <trkpt lat="45.70102" lon="-0.39246">
        <ele>29.51</ele>
        <time>2017-03-23T21:33:21Z</time>
      </trkpt>
      <trkpt lat="45.70184" lon="-0.39192">
        <ele>33.513</ele>
        <time>2017-03-23T21:33:41Z</time>
      </trkpt>
      <trkpt lat="45.70278" lon="-0.39166">
        <ele>36.074</ele>
        <time>2017-03-23T21:34:01Z</time>
      </trkpt>
      <trkpt lat="45.70328" lon="-0.39184">
        <ele>36.987</ele>
        <time>2017-03-23T21:34:21Z</time>
      </trkpt>
      <trkpt lat="45.70366" lon="-0.3926">
        <ele>38.553</ele>
        <time>2017-03-23T21:34:41Z</time>
      </trkpt>
      <trkpt lat="45.70419" lon="-0.39367">
        <ele>42.467</ele>
        <time>2017-03-23T21:35:01Z</time>
      </trkpt>
      <trkpt lat="45.70465" lon="-0.3941">
        <ele>44.277</ele>
        <time>2017-03-23T21:35:21Z</time>
      </trkpt>
      <trkpt lat="45.70506" lon="-0.39423">
        <ele>43.461</ele>
        <time>2017-03-23T21:35:41Z</time>
      </trkpt>
      <trkpt lat="45.70541" lon="-0.39451">
        <ele>45.127</ele>
        <time>2017-03-23T21:36:01Z</time>
      </trkpt>
      <trkpt lat="45.70634" lon="-0.3949">
        <ele>46.908</ele>
        <time>2017-03-23T21:36:21Z</time>
      </trkpt>
      <trkpt lat="45.70731" lon="-0.39514">
        <ele>47.273</ele>
        <time>2017-03-23T21:36:41Z</time>
      </trkpt>
      <trkpt lat="45.70745" lon="-0.39538">
        <ele>47.387</ele>
        <time>2017-03-23T21:37:01Z</time>
      </trkpt>
      <trkpt lat="45.70777" lon="-0.39607">
        <ele>53.494</ele>
        <time>2017-03-23T21:37:21Z</time>
      </trkpt>
      <trkpt lat="45.70742" lon="-0.39713">
        <ele>56.767</ele>
        <time>2017-03-23T21:37:41Z</time>
      </trkpt>
      <trkpt lat="45.70713" lon="-0.39798">
        <ele>61.368</ele>
        <time>2017-03-23T21:38:01Z</time>
      </trkpt>
      <trkpt lat="45.70654" lon="-0.39922">
        <ele>65.371</ele>
        <time>2017-03-23T21:38:21Z</time>
      </trkpt>
      <trkpt lat="45.7072" lon="-0.40049">
        <ele>65.977</ele>
        <time>2017-03-23T21:38:41Z</time>
      </trkpt>
      <trkpt lat="45.70772" lon="-0.40087">
        <ele>67.011</ele>
        <time>2017-03-23T21:39:01Z</time>
      </trkpt>
      <trkpt lat="45.70824" lon="-0.40094">
        <ele>69.355</ele>
        <time>2017-03-23T21:39:21Z</time>
      </trkpt>
      <trkpt lat="45.70855" lon="-0.40075">
        <ele>70.907</ele>
        <time>2017-03-23T21:39:41Z</time>
      </trkpt>
      <trkpt lat="45.70927" lon="-0.40305">
        <ele>75.417</ele>
        <time>2017-03-23T21:40:01Z</time>
      </trkpt>
      <trkpt lat="45.70977" lon="-0.40277">
        <ele>76.208</ele>
        <time>2017-03-23T21:40:21Z</time>
      </trkpt>
      <trkpt lat="45.71106" lon="-0.40142">
        <ele>73.171</ele>
        <time>2017-03-23T21:40:41Z</time>
      </trkpt>
      <trkpt lat="45.71149" lon="-0.40044">
        <ele>73.035</ele>
        <time>2017-03-23T21:41:01Z</time>
      </trkpt>
      <trkpt lat="45.71211" lon="-0.39971">
        <ele>73.682</ele>
        <time>2017-03-23T21:41:21Z</time>
      </trkpt>
      <trkpt lat="45.71324" lon="-0.39912">
        <ele>73.275</ele>
        <time>2017-03-23T21:41:41Z</time>
      </trkpt>
      <trkpt lat="45.71346" lon="-0.39887">
        <ele>74.016</ele>
        <time>2017-03-23T21:42:01Z</time>
      </trkpt>
      <trkpt lat="45.71428" lon="-0.39586">
        <ele>68.099</ele>
        <time>2017-03-23T21:42:21Z</time>
      </trkpt>
      <trkpt lat="45.7151" lon="-0.39592">
        <ele>72.285</ele>
        <time>2017-03-23T21:42:41Z</time>
      </trkpt>
      <trkpt lat="45.71598" lon="-0.3958">
        <ele>76.959</ele>
        <time>2017-03-23T21:43:01Z</time>
      </trkpt>
      <trkpt lat="45.71669" lon="-0.395">
        <ele>77.839</ele>
        <time>2017-03-23T21:43:21Z</time>
      </trkpt>
      <trkpt lat="45.71725" lon="-0.39388">
        <ele>74.701</ele>
        <time>2017-03-23T21:43:41Z</time>
      </trkpt>
      <trkpt lat="45.71724" lon="-0.39377">
        <ele>74.121</ele>
        <time>2017-03-23T21:44:01Z</time>
      </trkpt>
      <trkpt lat="45.72012" lon="-0.39313">
        <ele>75.708</ele>
        <time>2017-03-23T21:44:21Z</time>
      </trkpt>
      <trkpt lat="45.72106" lon="-0.39239">
        <ele>73.659</ele>
        <time>2017-03-23T21:44:41Z</time>
      </trkpt>
      <trkpt lat="45.72144" lon="-0.39189">
        <ele>72.613</ele>
        <time>2017-03-23T21:45:01Z</time>
      </trkpt>
      <trkpt lat="45.72283" lon="-0.39074">
        <ele>69.84</ele>
        <time>2017-03-23T21:45:21Z</time>
      </trkpt>
      <trkpt lat="45.72446" lon="-0.38876">
        <ele>66.033</ele>
        <time>2017-03-23T21:45:41Z</time>
      </trkpt>
      <trkpt lat="45.72575" lon="-0.38713">
        <ele>60.964</ele>
        <time>2017-03-23T21:46:01Z</time>
      </trkpt>
      <trkpt lat="45.72592" lon="-0.38673">
        <ele>59.897</ele>
        <time>2017-03-23T21:46:21Z</time>
      </trkpt>
      <trkpt lat="45.72571" lon="-0.38639">
        <ele>56.623</ele>
        <time>2017-03-23T21:46:41Z</time>
      </trkpt>
      <trkpt lat="45.72581" lon="-0.38594">
        <ele>55.687</ele>
        <time>2017-03-23T21:47:01Z</time>
      </trkpt>
      <trkpt lat="45.72605" lon="-0.3857">
        <ele>55.638</ele>
        <time>2017-03-23T21:47:21Z</time>
      </trkpt>
      <trkpt lat="45.72588" lon="-0.38409">
        <ele>48.37</ele>
        <time>2017-03-23T21:47:41Z</time>
      </trkpt>
      <trkpt lat="45.72585" lon="-0.38291">
        <ele>48.017</ele>
        <time>2017-03-23T21:48:01Z</time>
      </trkpt>
      <trkpt lat="45.72595" lon="-0.38258">
        <ele>47.908</ele>
        <time>2017-03-23T21:48:21Z</time>
      </trkpt>
      <trkpt lat="45.72589" lon="-0.38146">
        <ele>46.459</ele>
        <time>2017-03-23T21:48:41Z</time>
      </trkpt>
      <trkpt lat="45.72616" lon="-0.38089">
        <ele>43.993</ele>
        <time>2017-03-23T21:49:01Z</time>
      </trkpt>
      <trkpt lat="45.72674" lon="-0.38038">
        <ele>45.16</ele>
        <time>2017-03-23T21:49:21Z</time>
      </trkpt>
      <trkpt lat="45.72674" lon="-0.38038">
        <ele>45.193</ele>
        <time>2017-03-23T21:49:41Z</time>
      </trkpt>
      <trkpt lat="45.7279" lon="-0.37771">
        <ele>35.794</ele>
        <time>2017-03-23T21:50:01Z</time>
      </trkpt>
      <trkpt lat="45.72838" lon="-0.37632">
        <ele>36.727</ele>
        <time>2017-03-23T21:50:21Z</time>
      </trkpt>
      <trkpt lat="45.72858" lon="-0.37546">
        <ele>38.663</ele>
        <time>2017-03-23T21:50:41Z</time>
      </trkpt>
      <trkpt lat="45.7285" lon="-0.37462">
        <ele>40.487</ele>
        <time>2017-03-23T21:51:01Z</time>
      </trkpt>
      <trkpt lat="45.72836" lon="-0.37378">
        <ele>42.679</ele>
        <time>2017-03-23T21:51:21Z</time>
      </trkpt>
      <trkpt lat="45.72836" lon="-0.37329">
        <ele>39.705</ele>
        <time>2017-03-23T21:51:41Z</time>
      </trkpt>
      <trkpt lat="45.72793" lon="-0.37295">
        <ele>36.825</ele>
        <time>2017-03-23T21:52:01Z</time>
      </trkpt>
      <trkpt lat="45.72742" lon="-0.37225">
        <ele>42.508</ele>
        <time>2017-03-23T21:52:21Z</time>
      </trkpt>
      <trkpt lat="45.72693" lon="-0.37173">
        <ele>46.913</ele>
        <time>2017-03-23T21:52:41Z</time>
      </trkpt>
      <trkpt lat="45.72645" lon="-0.37119">
        <ele>48.367</ele>
        <time>2017-03-23T21:53:01Z</time>
      </trkpt>
      <trkpt lat="45.72596" lon="-0.36971">
        <ele>48.024</ele>
        <time>2017-03-23T21:53:21Z</time>
      </trkpt>
      <trkpt lat="45.72496" lon="-0.36922">
        <ele>47.297</ele>
        <time>2017-03-23T21:53:41Z</time>
      </trkpt>
      <trkpt lat="45.72425" lon="-0.36863">
        <ele>49.788</ele>
        <time>2017-03-23T21:54:01Z</time>
      </trkpt>
      <trkpt lat="45.72335" lon="-0.36744">
        <ele>49.941</ele>
        <time>2017-03-23T21:54:21Z</time>
      </trkpt>
      <trkpt lat="45.72255" lon="-0.36568">
        <ele>44.687</ele>
        <time>2017-03-23T21:54:41Z</time>
      </trkpt>
      <trkpt lat="45.72255" lon="-0.36568">
        <ele>44.641</ele>
        <time>2017-03-23T21:55:01Z</time>
      </trkpt>
      <trkpt lat="45.72185" lon="-0.36501">
        <ele>50.746</ele>
        <time>2017-03-23T21:55:21Z</time>
      </trkpt>
      <trkpt lat="45.72185" lon="-0.36351">
        <ele>47.688</ele>
        <time>2017-03-23T21:55:41Z</time>
      </trkpt>
      <trkpt lat="45.72146" lon="-0.36329">
        <ele>47.816</ele>
        <time>2017-03-23T21:56:01Z</time>
      </trkpt>
      <trkpt lat="45.72094" lon="-0.36314">
        <ele>45.208</ele>
        <time>2017-03-23T21:56:21Z</time>
      </trkpt>
      <trkpt lat="45.72028" lon="-0.36252">
        <ele>41.98</ele>
        <time>2017-03-23T21:56:41Z</time>
      </trkpt>
      <trkpt lat="45.7201" lon="-0.36222">
        <ele>39.454</ele>
        <time>2017-03-23T21:57:01Z</time>
      </trkpt>
      <trkpt lat="45.71896" lon="-0.3611">
        <ele>27.361</ele>
        <time>2017-03-23T21:57:21Z</time>
      </trkpt>
      <trkpt lat="45.71898" lon="-0.36065">
        <ele>28.864</ele>
        <time>2017-03-23T21:57:41Z</time>
      </trkpt>
      <trkpt lat="45.7192" lon="-0.36055">
        <ele>29.895</ele>
        <time>2017-03-23T21:58:01Z</time>
      </trkpt>
      <trkpt lat="45.7193" lon="-0.36021">
        <ele>23.418</ele>
        <time>2017-03-23T21:58:21Z</time>
      </trkpt>
      <trkpt lat="45.71915" lon="-0.3597">
        <ele>19.054</ele>
        <time>2017-03-23T21:58:41Z</time>
      </trkpt>
      <trkpt lat="45.71919" lon="-0.35933">
        <ele>16.448</ele>
        <time>2017-03-23T21:59:01Z</time>
      </trkpt>
      <trkpt lat="45.71957" lon="-0.35952">
        <ele>13.981</ele>
        <time>2017-03-23T21:59:21Z</time>
      </trkpt>
      <trkpt lat="45.71976" lon="-0.35952">
        <ele>12.061</ele>
        <time>2017-03-23T21:59:41Z</time>
      </trkpt>
      <trkpt lat="45.72037" lon="-0.35967">
        <ele>9.717</ele>
        <time>2017-03-23T22:00:01Z</time>
      </trkpt>
      <trkpt lat="45.72049" lon="-0.35942">
        <ele>12.008</ele>
        <time>2017-03-23T22:00:21Z</time>
      </trkpt>
      <trkpt lat="45.72038" lon="-0.35916">
        <ele>13.834</ele>
        <time>2017-03-23T22:00:41Z</time>
      </trkpt>
      <trkpt lat="45.72012" lon="-0.35906">
        <ele>12.468</ele>
        <time>2017-03-23T22:01:01Z</time>
      </trkpt>
      <trkpt lat="45.71924" lon="-0.35775">
        <ele>11.325</ele>
        <time>2017-03-23T22:01:21Z</time>
      </trkpt>
      <trkpt lat="45.71886" lon="-0.35693">
        <ele>10.898</ele>
        <time>2017-03-23T22:01:41Z</time>
      </trkpt>
      <trkpt lat="45.71867" lon="-0.35588">
        <ele>9.529</ele>
        <time>2017-03-23T22:02:01Z</time>
      </trkpt>
      <trkpt lat="45.71877" lon="-0.3546">
        <ele>14.732</ele>
        <time>2017-03-23T22:02:21Z</time>
      </trkpt>
      <trkpt lat="45.71917" lon="-0.35258">
        <ele>13.778</ele>
        <time>2017-03-23T22:02:41Z</time>
      </trkpt>
      <trkpt lat="45.71933" lon="-0.35006">
        <ele>13.842</ele>
        <time>2017-03-23T22:03:01Z</time>
      </trkpt>
      <trkpt lat="45.7193" lon="-0.34928">
        <ele>12.521</ele>
        <time>2017-03-23T22:03:21Z</time>
      </trkpt>
      <trkpt lat="45.7193" lon="-0.34928">
        <ele>12.541</ele>
        <time>2017-03-23T22:03:41Z</time>
      </trkpt>
      <trkpt lat="45.71942" lon="-0.34859">
        <ele>11.805</ele>
        <time>2017-03-23T22:04:01Z</time>
      </trkpt>
      <trkpt lat="45.71969" lon="-0.34832">
        <ele>16.608</ele>
        <time>2017-03-23T22:04:21Z</time>
      </trkpt>
      <trkpt lat="45.71999" lon="-0.34711">
        <ele>24.038</ele>
        <time>2017-03-23T22:04:41Z</time>
      </trkpt>
      <trkpt lat="45.72118" lon="-0.34518">
        <ele>29.212</ele>
        <time>2017-03-23T22:05:01Z</time>
      </trkpt>
      <trkpt lat="45.72053" lon="-0.34435">
        <ele>35.899</ele>
        <time>2017-03-23T22:05:21Z</time>
      </trkpt>
      <trkpt lat="45.7202" lon="-0.34381">
        <ele>42.622</ele>
        <time>2017-03-23T22:05:41Z</time>
      </trkpt>
      <trkpt lat="45.71959" lon="-0.34342">
        <ele>48.073</ele>
        <time>2017-03-23T22:06:01Z</time>
      </trkpt>
      <trkpt lat="45.71929" lon="-0.34319">
        <ele>48.836</ele>
        <time>2017-03-23T22:06:21Z</time>
      </trkpt>
      <trkpt lat="45.71908" lon="-0.34327">
        <ele>49.442</ele>
        <time>2017-03-23T22:06:41Z</time>
      </trkpt>
      <trkpt lat="45.71865" lon="-0.34308">
        <ele>51.996</ele>
        <time>2017-03-23T22:07:01Z</time>
      </trkpt>
      <trkpt lat="45.71808" lon="-0.34314">
        <ele>52.022</ele>
        <time>2017-03-23T22:07:21Z</time>
      </trkpt>
      <trkpt lat="45.71761" lon="-0.34366">
        <ele>49.562</ele>
        <time>2017-03-23T22:07:41Z</time>
      </trkpt>
      <trkpt lat="45.71745" lon="-0.34336">
        <ele>49.208</ele>
        <time>2017-03-23T22:08:01Z</time>
      </trkpt>
      <trkpt lat="45.71722" lon="-0.34336">
        <ele>50.008</ele>
        <time>2017-03-23T22:08:21Z</time>
      </trkpt>
      <trkpt lat="45.71695" lon="-0.34435">
        <ele>48.798</ele>
        <time>2017-03-23T22:08:41Z</time>
      </trkpt>
      <trkpt lat="45.71643" lon="-0.34445">
        <ele>50.072</ele>
        <time>2017-03-23T22:09:01Z</time>
      </trkpt>
      <trkpt lat="45.71626" lon="-0.34559">
        <ele>44.929</ele>
        <time>2017-03-23T22:09:21Z</time>
      </trkpt>
      <trkpt lat="45.71572" lon="-0.34561">
        <ele>45.512</ele>
        <time>2017-03-23T22:09:41Z</time>
      </trkpt>
      <trkpt lat="45.71318" lon="-0.34661">
        <ele>28.213</ele>
        <time>2017-03-23T22:10:01Z</time>
      </trkpt>
      <trkpt lat="45.71227" lon="-0.34665">
        <ele>25.536</ele>
        <time>2017-03-23T22:10:21Z</time>
      </trkpt>
      <trkpt lat="45.71144" lon="-0.34649">
        <ele>25.122</ele>
        <time>2017-03-23T22:10:41Z</time>
      </trkpt>
      <trkpt lat="45.70923" lon="-0.34633">
        <ele>26.016</ele>
        <time>2017-03-23T22:11:01Z</time>
      </trkpt>
      <trkpt lat="45.70824" lon="-0.34628">
        <ele>22.794</ele>
        <time>2017-03-23T22:11:21Z</time>
      </trkpt>
      <trkpt lat="45.70775" lon="-0.34605">
        <ele>26.857</ele>
        <time>2017-03-23T22:11:41Z</time>
      </trkpt>
      <trkpt lat="45.70741" lon="-0.34561">
        <ele>31.122</ele>
        <time>2017-03-23T22:12:01Z</time>
      </trkpt>
      <trkpt lat="45.70677" lon="-0.3451">
        <ele>31.808</ele>
        <time>2017-03-23T22:12:21Z</time>
      </trkpt>
      <trkpt lat="45.70644" lon="-0.34464">
        <ele>35.515</ele>
        <time>2017-03-23T22:12:41Z</time>
      </trkpt>
      <trkpt lat="45.70553" lon="-0.34497">
        <ele>35.919</ele>
        <time>2017-03-23T22:13:01Z</time>
      </trkpt>
      <trkpt lat="45.70467" lon="-0.34474">
        <ele>31.646</ele>
        <time>2017-03-23T22:13:21Z</time>
      </trkpt>
      <trkpt lat="45.70406" lon="-0.34484">
        <ele>29.259</ele>
        <time>2017-03-23T22:13:41Z</time>
      </trkpt>
      <trkpt lat="45.70378" lon="-0.34479">
        <ele>28.96</ele>
        <time>2017-03-23T22:14:01Z</time>
      </trkpt>
      <trkpt lat="45.70371" lon="-0.34459">
        <ele>27.943</ele>
        <time>2017-03-23T22:14:21Z</time>
      </trkpt>
      <trkpt lat="45.70311" lon="-0.34376">
        <ele>27.729</ele>
        <time>2017-03-23T22:14:41Z</time>
      </trkpt>
      <trkpt lat="45.70284" lon="-0.34325">
        <ele>28.173</ele>
        <time>2017-03-23T22:15:01Z</time>
      </trkpt>
      <trkpt lat="45.70218" lon="-0.34229">
        <ele>33.926</ele>
        <time>2017-03-23T22:15:21Z</time>
      </trkpt>
      <trkpt lat="45.70178" lon="-0.34098">
        <ele>39.247</ele>
        <time>2017-03-23T22:15:41Z</time>
      </trkpt>
      <trkpt lat="45.70119" lon="-0.34008">
        <ele>35.611</ele>
        <time>2017-03-23T22:16:01Z</time>
      </trkpt>
      <trkpt lat="45.70081" lon="-0.3398">
        <ele>34.308</ele>
        <time>2017-03-23T22:16:21Z</time>
      </trkpt>
      <trkpt lat="45.7007" lon="-0.33962">
        <ele>33.348</ele>
        <time>2017-03-23T22:16:41Z</time>
      </trkpt>
      <trkpt lat="45.70119" lon="-0.33941">
        <ele>33.072</ele>
        <time>2017-03-23T22:17:01Z</time>
      </trkpt>
      <trkpt lat="45.69855" lon="-0.32872">
        <ele>17.999</ele>
        <time>2017-03-23T22:17:21Z</time>
      </trkpt>
      <trkpt lat="45.70015" lon="-0.32769">
        <ele>21.052</ele>
        <time>2017-03-23T22:17:41Z</time>
      </trkpt>
      <trkpt lat="45.70084" lon="-0.32679">
        <ele>26.163</ele>
        <time>2017-03-23T22:18:01Z</time>
      </trkpt>
      <trkpt lat="45.70159" lon="-0.32591">
        <ele>25.736</ele>
        <time>2017-03-23T22:18:21Z</time>
      </trkpt>
      <trkpt lat="45.70275" lon="-0.32431">
        <ele>27.142</ele>
        <time>2017-03-23T22:18:41Z</time>
      </trkpt>
      <trkpt lat="45.70318" lon="-0.32378">
        <ele>25.416</ele>
        <time>2017-03-23T22:19:01Z</time>
      </trkpt>
      <trkpt lat="45.70464" lon="-0.32408">
        <ele>13.613</ele>
        <time>2017-03-23T22:19:21Z</time>
      </trkpt>
      <trkpt lat="45.70487" lon="-0.32452">
        <ele>13.243</ele>
        <time>2017-03-23T22:19:41Z</time>
      </trkpt>
      <trkpt lat="45.70602" lon="-0.32448">
        <ele>9.307</ele>
        <time>2020-11-18T21:44:25Z</time>
      </trkpt>
      <trkpt lat="45.7073" lon="-0.32429">
        <ele>7.708</ele>
        <time>2020-11-18T21:44:45Z</time>
      </trkpt>
      <trkpt lat="45.70788" lon="-0.32455">
        <ele>8.437</ele>
        <time>2020-11-18T21:45:05Z</time>
      </trkpt>
      <trkpt lat="45.70926" lon="-0.32328">
        <ele>7.941</ele>
        <time>2020-11-18T21:45:25Z</time>
      </trkpt>
      <trkpt lat="45.70976" lon="-0.32123">
        <ele>7.718</ele>
        <time>2020-11-18T21:45:45Z</time>
      </trkpt>
      <trkpt lat="45.70999" lon="-0.31943">
        <ele>5.091</ele>
        <time>2017-03-23T22:21:01Z</time>
      </trkpt>
      <trkpt lat="45.70991" lon="-0.31832">
        <ele>9.782</ele>
        <time>2017-03-23T22:21:21Z</time>
      </trkpt>
      <trkpt lat="45.70976" lon="-0.31791">
        <ele>10.595</ele>
        <time>2017-03-23T22:21:41Z</time>
      </trkpt>
      <trkpt lat="45.70982" lon="-0.31677">
        <ele>9.911</ele>
        <time>2017-03-23T22:22:01Z</time>
      </trkpt>
      <trkpt lat="45.70934" lon="-0.31531">
        <ele>7.895</ele>
        <time>2017-03-23T22:22:21Z</time>
      </trkpt>
      <trkpt lat="45.70828" lon="-0.31394">
        <ele>9.113</ele>
        <time>2017-03-23T22:22:41Z</time>
      </trkpt>
      <trkpt lat="45.70714" lon="-0.31236">
        <ele>10.143</ele>
        <time>2017-03-23T22:23:01Z</time>
      </trkpt>
      <trkpt lat="45.70712" lon="-0.31182">
        <ele>7.607</ele>
        <time>2017-03-23T22:23:21Z</time>
      </trkpt>
      <trkpt lat="45.70692" lon="-0.31116">
        <ele>7.108</ele>
        <time>2017-03-23T22:23:41Z</time>
      </trkpt>
      <trkpt lat="45.70673" lon="-0.31094">
        <ele>7.977</ele>
        <time>2017-03-23T22:24:01Z</time>
      </trkpt>
      <trkpt lat="45.70654" lon="-0.31031">
        <ele>9.971</ele>
        <time>2017-03-23T22:24:21Z</time>
      </trkpt>
      <trkpt lat="45.70622" lon="-0.30982">
        <ele>8.468</ele>
        <time>2017-03-23T22:24:41Z</time>
      </trkpt>
      <trkpt lat="45.70495" lon="-0.30744">
        <ele>13.351</ele>
        <time>2017-03-23T22:25:01Z</time>
      </trkpt>
      <trkpt lat="45.70366" lon="-0.30563">
        <ele>8.182</ele>
        <time>2017-03-23T22:25:21Z</time>
      </trkpt>
      <trkpt lat="45.70222" lon="-0.30507">
        <ele>10.875</ele>
        <time>2017-03-23T22:25:41Z</time>
      </trkpt>
      <trkpt lat="45.7016" lon="-0.30471">
        <ele>9.861</ele>
        <time>2017-03-23T22:26:01Z</time>
      </trkpt>
      <trkpt lat="45.7008" lon="-0.30452">
        <ele>8.185</ele>
        <time>2017-03-23T22:26:21Z</time>
      </trkpt>
      <trkpt lat="45.69997" lon="-0.30386">
        <ele>7.958</ele>
        <time>2017-03-23T22:26:41Z</time>
      </trkpt>
      <trkpt lat="45.69931" lon="-0.30316">
        <ele>7.852</ele>
        <time>2017-03-23T22:27:01Z</time>
      </trkpt>
      <trkpt lat="45.69872" lon="-0.30199">
        <ele>7.817</ele>
        <time>2017-03-23T22:27:21Z</time>
      </trkpt>
      <trkpt lat="45.69746" lon="-0.30045">
        <ele>6.508</ele>
        <time>2017-03-23T22:27:41Z</time>
      </trkpt>
      <trkpt lat="45.69552" lon="-0.29893">
        <ele>8.161</ele>
        <time>2017-03-23T22:28:01Z</time>
      </trkpt>
      <trkpt lat="45.69447" lon="-0.29822">
        <ele>8.745</ele>
        <time>2017-03-23T22:28:21Z</time>
      </trkpt>
      <trkpt lat="45.6936" lon="-0.29739">
        <ele>11.142</ele>
        <time>2017-03-23T22:28:41Z</time>
      </trkpt>
      <trkpt lat="45.69254" lon="-0.29621">
        <ele>16.065</ele>
        <time>2017-03-23T22:29:01Z</time>
      </trkpt>
      <trkpt lat="45.69196" lon="-0.29513">
        <ele>7.536</ele>
        <time>2017-03-23T22:29:21Z</time>
      </trkpt>
      <trkpt lat="45.69099" lon="-0.29374">
        <ele>9.499</ele>
        <time>2017-03-23T22:29:41Z</time>
      </trkpt>
      <trkpt lat="45.69003" lon="-0.29163">
        <ele>9.945</ele>
        <time>2017-03-23T22:30:01Z</time>
      </trkpt>
      <trkpt lat="45.68938" lon="-0.29013">
        <ele>9.089</ele>
        <time>2017-03-23T22:30:21Z</time>
      </trkpt>
      <trkpt lat="45.68824" lon="-0.28687">
        <ele>7.689</ele>
        <time>2017-03-23T22:30:41Z</time>
      </trkpt>
      <trkpt lat="45.6881" lon="-0.28594">
        <ele>12.506</ele>
        <time>2020-11-18T21:56:05Z</time>
      </trkpt>
      <trkpt lat="45.68791" lon="-0.28542">
        <ele>11.326</ele>
        <time>2020-11-18T21:56:25Z</time>
      </trkpt>
      <trkpt lat="45.68749" lon="-0.28585">
        <ele>11.908</ele>
        <time>2020-11-18T21:56:45Z</time>
      </trkpt>
      <trkpt lat="45.68742" lon="-0.28562">
        <ele>10.164</ele>
        <time>2020-11-18T21:57:05Z</time>
      </trkpt>
      <trkpt lat="45.68775" lon="-0.28518">
        <ele>9.618</ele>
        <time>2020-11-18T21:57:25Z</time>
      </trkpt>
      <trkpt lat="45.68758" lon="-0.28453">
        <ele>9.085</ele>
        <time>2020-11-18T21:57:45Z</time>
      </trkpt>
      <trkpt lat="45.68706" lon="-0.28357">
        <ele>8.048</ele>
        <time>2020-11-18T21:58:05Z</time>
      </trkpt>
      <trkpt lat="45.68681" lon="-0.28342">
        <ele>8.399</ele>
        <time>2020-11-18T21:58:25Z</time>
      </trkpt>
      <trkpt lat="45.68652" lon="-0.28345">
        <ele>8.372</ele>
        <time>2020-11-18T21:58:45Z</time>
      </trkpt>
      <trkpt lat="45.68613" lon="-0.28302">
        <ele>7.958</ele>
        <time>2020-11-18T21:59:05Z</time>
      </trkpt>
      <trkpt lat="45.68582" lon="-0.28214">
        <ele>9.042</ele>
        <time>2020-11-18T21:59:25Z</time>
      </trkpt>
      <trkpt lat="45.68581" lon="-0.28167">
        <ele>9.032</ele>
        <time>2020-11-18T21:59:45Z</time>
      </trkpt>
      <trkpt lat="45.68592" lon="-0.28132">
        <ele>9.092</ele>
        <time>2020-11-18T22:00:05Z</time>
      </trkpt>
      <trkpt lat="45.68558" lon="-0.28002">
        <ele>12.011</ele>
        <time>2020-11-18T22:00:25Z</time>
      </trkpt>
      <trkpt lat="45.68549" lon="-0.27924">
        <ele>11.608</ele>
        <time>2020-11-18T22:00:45Z</time>
      </trkpt>
      <trkpt lat="45.68524" lon="-0.27833">
        <ele>8.129</ele>
        <time>2020-11-18T22:01:05Z</time>
      </trkpt>
      <trkpt lat="45.68506" lon="-0.27786">
        <ele>8.293</ele>
        <time>2020-11-18T22:01:25Z</time>
      </trkpt>
      <trkpt lat="45.68483" lon="-0.27765">
        <ele>8.08</ele>
        <time>2020-11-18T22:01:45Z</time>
      </trkpt>
      <trkpt lat="45.68481" lon="-0.27628">
        <ele>8.053</ele>
        <time>2020-11-18T22:02:05Z</time>
      </trkpt>
      <trkpt lat="45.68455" lon="-0.27467">
        <ele>8.744</ele>
        <time>2020-11-18T22:02:25Z</time>
      </trkpt>
      <trkpt lat="45.68455" lon="-0.27406">
        <ele>10.537</ele>
        <time>2020-11-18T22:02:45Z</time>
      </trkpt>
      <trkpt lat="45.68391" lon="-0.26976">
        <ele>9.193</ele>
        <time>2020-11-18T22:03:05Z</time>
      </trkpt>
      <trkpt lat="45.68343" lon="-0.26685">
        <ele>12.017</ele>
        <time>2020-11-18T22:03:25Z</time>
      </trkpt>
      <trkpt lat="45.68301" lon="-0.26519">
        <ele>11.152</ele>
        <time>2020-11-18T22:03:45Z</time>
      </trkpt>
      <trkpt lat="45.68284" lon="-0.26383">
        <ele>9.553</ele>
        <time>2020-11-18T22:04:05Z</time>
      </trkpt>
      <trkpt lat="45.68235" lon="-0.26202">
        <ele>10.508</ele>
        <time>2020-11-18T22:04:25Z</time>
      </trkpt>
      <trkpt lat="45.68197" lon="-0.26124">
        <ele>10.008</ele>
        <time>2020-11-18T22:04:45Z</time>
      </trkpt>
      <trkpt lat="45.68122" lon="-0.26031">
        <ele>9.471</ele>
        <time>2020-11-18T22:05:05Z</time>
      </trkpt>
      <trkpt lat="45.68089" lon="-0.25976">
        <ele>9.815</ele>
        <time>2020-11-18T22:05:25Z</time>
      </trkpt>
      <trkpt lat="45.68056" lon="-0.25892">
        <ele>12.962</ele>
        <time>2020-11-18T22:05:45Z</time>
      </trkpt>
      <trkpt lat="45.68032" lon="-0.2581">
        <ele>15.715</ele>
        <time>2020-11-18T22:06:05Z</time>
      </trkpt>
      <trkpt lat="45.67972" lon="-0.25726">
        <ele>13.246</ele>
        <time>2020-11-18T22:06:25Z</time>
      </trkpt>
      <trkpt lat="45.67909" lon="-0.25657">
        <ele>10.029</ele>
        <time>2020-11-18T22:06:45Z</time>
      </trkpt>
      <trkpt lat="45.67853" lon="-0.25605">
        <ele>11.795</ele>
        <time>2020-11-18T22:07:05Z</time>
      </trkpt>
      <trkpt lat="45.67751" lon="-0.25459">
        <ele>8.549</ele>
        <time>2020-11-18T22:07:25Z</time>
      </trkpt>
      <trkpt lat="45.67702" lon="-0.25402">
        <ele>9.945</ele>
        <time>2020-11-18T22:07:45Z</time>
      </trkpt>
      <trkpt lat="45.67603" lon="-0.25254">
        <ele>12.247</ele>
        <time>2020-11-18T22:08:05Z</time>
      </trkpt>
      <trkpt lat="45.67564" lon="-0.25217">
        <ele>12.811</ele>
        <time>2020-11-18T22:08:25Z</time>
      </trkpt>
      <trkpt lat="45.67469" lon="-0.25131">
        <ele>14.908</ele>
        <time>2020-11-18T22:08:45Z</time>
      </trkpt>
      <trkpt lat="45.6745" lon="-0.25093">
        <ele>14.98</ele>
        <time>2020-11-18T22:09:05Z</time>
      </trkpt>
      <trkpt lat="45.6742" lon="-0.25048">
        <ele>15.544</ele>
        <time>2020-11-18T22:09:25Z</time>
      </trkpt>
      <trkpt lat="45.67354" lon="-0.24927">
        <ele>14.531</ele>
        <time>2020-11-18T22:09:45Z</time>
      </trkpt>
      <trkpt lat="45.67258" lon="-0.24703">
        <ele>14.074</ele>
        <time>2020-11-18T22:10:05Z</time>
      </trkpt>
      <trkpt lat="45.67195" lon="-0.24618">
        <ele>19.535</ele>
        <time>2020-11-18T22:10:25Z</time>
      </trkpt>
      <trkpt lat="45.67177" lon="-0.24462">
        <ele>13.198</ele>
        <time>2020-11-18T22:10:45Z</time>
      </trkpt>
      <trkpt lat="45.67119" lon="-0.2427">
        <ele>12.734</ele>
        <time>2020-11-18T22:11:05Z</time>
      </trkpt>
      <trkpt lat="45.67087" lon="-0.24111">
        <ele>14.588</ele>
        <time>2020-11-18T22:11:25Z</time>
      </trkpt>
      <trkpt lat="45.67075" lon="-0.24">
        <ele>11.066</ele>
        <time>2020-11-18T22:11:45Z</time>
      </trkpt>
      <trkpt lat="45.67054" lon="-0.23898">
        <ele>12.029</ele>
        <time>2020-11-18T22:12:05Z</time>
      </trkpt>
      <trkpt lat="45.67081" lon="-0.23792">
        <ele>9.021</ele>
        <time>2020-11-18T22:12:25Z</time>
      </trkpt>
      <trkpt lat="45.67098" lon="-0.23686">
        <ele>11.908</ele>
        <time>2020-11-18T22:12:45Z</time>
      </trkpt>
      <trkpt lat="45.67155" lon="-0.23534">
        <ele>10.842</ele>
        <time>2020-11-18T22:13:05Z</time>
      </trkpt>
      <trkpt lat="45.67153" lon="-0.23334">
        <ele>11.586</ele>
        <time>2020-11-18T22:13:25Z</time>
      </trkpt>
      <trkpt lat="45.67158" lon="-0.23119">
        <ele>8.713</ele>
        <time>2020-11-18T22:13:45Z</time>
      </trkpt>
      <trkpt lat="45.67216" lon="-0.22865">
        <ele>14.236</ele>
        <time>2020-11-18T22:14:05Z</time>
      </trkpt>
      <trkpt lat="45.67317" lon="-0.22688">
        <ele>17.967</ele>
        <time>2020-11-18T22:14:25Z</time>
      </trkpt>
      <trkpt lat="45.67382" lon="-0.22535">
        <ele>13.22</ele>
        <time>2020-11-18T22:14:45Z</time>
      </trkpt>
      <trkpt lat="45.67394" lon="-0.22478">
        <ele>10.036</ele>
        <time>2020-11-18T22:15:05Z</time>
      </trkpt>
      <trkpt lat="45.67381" lon="-0.22447">
        <ele>10.66</ele>
        <time>2020-11-18T22:15:25Z</time>
      </trkpt>
      <trkpt lat="45.67338" lon="-0.22439">
        <ele>14.532</ele>
        <time>2020-11-18T22:15:45Z</time>
      </trkpt>
      <trkpt lat="45.67349" lon="-0.22366">
        <ele>14.392</ele>
        <time>2020-11-18T22:16:05Z</time>
      </trkpt>
      <trkpt lat="45.67546" lon="-0.22415">
        <ele>12.011</ele>
        <time>2020-11-18T22:16:25Z</time>
      </trkpt>
      <trkpt lat="45.67496" lon="-0.22366">
        <ele>11.708</ele>
        <time>2017-03-23T22:57:01Z</time>
      </trkpt>
      <trkpt lat="45.67535" lon="-0.22095">
        <ele>10.759</ele>
        <time>2017-03-23T22:57:21Z</time>
      </trkpt>
      <trkpt lat="45.67584" lon="-0.21957">
        <ele>9.063</ele>
        <time>2017-03-23T22:57:41Z</time>
      </trkpt>
      <trkpt lat="45.676" lon="-0.21742">
        <ele>11.61</ele>
        <time>2017-03-23T22:58:01Z</time>
      </trkpt>
      <trkpt lat="45.67695" lon="-0.21259">
        <ele>13.083</ele>
        <time>2017-03-23T22:58:21Z</time>
      </trkpt>
      <trkpt lat="45.67719" lon="-0.21157">
        <ele>11.664</ele>
        <time>2017-03-23T22:58:41Z</time>
      </trkpt>
      <trkpt lat="45.67684" lon="-0.20951">
        <ele>11.847</ele>
        <time>2017-03-23T22:59:01Z</time>
      </trkpt>
      <trkpt lat="45.67674" lon="-0.20692">
        <ele>10.213</ele>
        <time>2017-03-23T22:59:21Z</time>
      </trkpt>
      <trkpt lat="45.67654" lon="-0.20539">
        <ele>13.667</ele>
        <time>2017-03-23T22:59:41Z</time>
      </trkpt>
      <trkpt lat="45.67629" lon="-0.20412">
        <ele>11.948</ele>
        <time>2017-03-23T23:00:01Z</time>
      </trkpt>
      <trkpt lat="45.67637" lon="-0.20251">
        <ele>15.861</ele>
        <time>2017-03-23T23:00:21Z</time>
      </trkpt>
      <trkpt lat="45.67673" lon="-0.20042">
        <ele>12.017</ele>
        <time>2017-03-23T23:00:41Z</time>
      </trkpt>
      <trkpt lat="45.67685" lon="-0.19683">
        <ele>14.008</ele>
        <time>2017-03-23T23:01:01Z</time>
      </trkpt>
      <trkpt lat="45.67724" lon="-0.19529">
        <ele>9.98</ele>
        <time>2017-03-23T23:01:21Z</time>
      </trkpt>
      <trkpt lat="45.67818" lon="-0.19356">
        <ele>11.754</ele>
        <time>2017-03-23T23:01:41Z</time>
      </trkpt>
      <trkpt lat="45.67868" lon="-0.1921">
        <ele>14.311</ele>
        <time>2017-03-23T23:02:01Z</time>
      </trkpt>
      <trkpt lat="45.67964" lon="-0.18978">
        <ele>13.874</ele>
        <time>2017-03-23T23:02:21Z</time>
      </trkpt>
      <trkpt lat="45.68039" lon="-0.18896">
        <ele>12.765</ele>
        <time>2017-03-23T23:02:41Z</time>
      </trkpt>
      <trkpt lat="45.68088" lon="-0.1875">
        <ele>12.258</ele>
        <time>2017-03-23T23:03:01Z</time>
      </trkpt>
      <trkpt lat="45.68087" lon="-0.18749">
        <ele>12.154</ele>
        <time>2017-03-23T23:03:21Z</time>
      </trkpt>
      <trkpt lat="45.68086" lon="-0.18631">
        <ele>13.048</ele>
        <time>2017-03-23T23:03:41Z</time>
      </trkpt>
      <trkpt lat="45.68102" lon="-0.18483">
        <ele>13.896</ele>
        <time>2017-03-23T23:04:01Z</time>
      </trkpt>
      <trkpt lat="45.68096" lon="-0.18358">
        <ele>15.031</ele>
        <time>2017-03-23T23:04:21Z</time>
      </trkpt>
      <trkpt lat="45.68061" lon="-0.18181">
        <ele>11.524</ele>
        <time>2017-03-23T23:04:41Z</time>
      </trkpt>
      <trkpt lat="45.67966" lon="-0.17928">
        <ele>14.908</ele>
        <time>2017-03-23T23:05:01Z</time>
      </trkpt>
      <trkpt lat="45.67882" lon="-0.1764">
        <ele>16.025</ele>
        <time>2017-03-23T23:05:21Z</time>
      </trkpt>
      <trkpt lat="45.67846" lon="-0.17435">
        <ele>14.229</ele>
        <time>2017-03-23T23:05:41Z</time>
      </trkpt>
      <trkpt lat="45.67772" lon="-0.17482">
        <ele>14.576</ele>
        <time>2017-03-23T23:06:01Z</time>
      </trkpt>
      <trkpt lat="45.67741" lon="-0.17388">
        <ele>15.089</ele>
        <time>2017-03-23T23:06:21Z</time>
      </trkpt>
      <trkpt lat="45.67701" lon="-0.17335">
        <ele>13.02</ele>
        <time>2017-03-23T23:06:41Z</time>
      </trkpt>
      <trkpt lat="45.67737" lon="-0.1726">
        <ele>13.273</ele>
        <time>2017-03-23T23:07:01Z</time>
      </trkpt>
      <trkpt lat="45.67698" lon="-0.17153">
        <ele>13.419</ele>
        <time>2017-03-23T23:07:21Z</time>
      </trkpt>
      <trkpt lat="45.6772" lon="-0.17132">
        <ele>13.363</ele>
        <time>2017-03-23T23:07:41Z</time>
      </trkpt>
      <trkpt lat="45.67737" lon="-0.17135">
        <ele>13.194</ele>
        <time>2017-03-23T23:08:01Z</time>
      </trkpt>
      <trkpt lat="45.67773" lon="-0.17178">
        <ele>13.857</ele>
        <time>2017-03-23T23:08:21Z</time>
      </trkpt>
      <trkpt lat="45.6781" lon="-0.17166">
        <ele>15.422</ele>
        <time>2017-03-23T23:08:41Z</time>
      </trkpt>
      <trkpt lat="45.67802" lon="-0.17098">
        <ele>14.808</ele>
        <time>2017-03-23T23:09:01Z</time>
      </trkpt>
      <trkpt lat="45.67825" lon="-0.1706">
        <ele>17.395</ele>
        <time>2017-03-23T23:09:21Z</time>
      </trkpt>
      <trkpt lat="45.67826" lon="-0.17045">
        <ele>17.769</ele>
        <time>2017-03-23T23:09:41Z</time>
      </trkpt>
      <trkpt lat="45.67803" lon="-0.16973">
        <ele>17.986</ele>
        <time>2017-03-23T23:10:01Z</time>
      </trkpt>
      <trkpt lat="45.67931" lon="-0.16923">
        <ele>28.429</ele>
        <time>2017-03-23T23:10:21Z</time>
      </trkpt>
      <trkpt lat="45.67895" lon="-0.1682">
        <ele>28.98</ele>
        <time>2017-03-23T23:10:41Z</time>
      </trkpt>
      <trkpt lat="45.67824" lon="-0.16547">
        <ele>26.343</ele>
        <time>2017-03-23T23:11:01Z</time>
      </trkpt>
      <trkpt lat="45.67817" lon="-0.16356">
        <ele>29.539</ele>
        <time>2017-03-23T23:11:21Z</time>
      </trkpt>
      <trkpt lat="45.67776" lon="-0.16125">
        <ele>26.483</ele>
        <time>2017-03-23T23:11:41Z</time>
      </trkpt>
      <trkpt lat="45.67774" lon="-0.15966">
        <ele>26.469</ele>
        <time>2017-03-23T23:12:01Z</time>
      </trkpt>
      <trkpt lat="45.67793" lon="-0.1568">
        <ele>20.004</ele>
        <time>2017-03-23T23:12:21Z</time>
      </trkpt>
      <trkpt lat="45.6782" lon="-0.15501">
        <ele>21.624</ele>
        <time>2017-03-23T23:12:41Z</time>
      </trkpt>
      <trkpt lat="45.67774" lon="-0.15405">
        <ele>14.408</ele>
        <time>2017-03-23T23:13:01Z</time>
      </trkpt>
      <trkpt lat="45.67725" lon="-0.15374">
        <ele>11.622</ele>
        <time>2017-03-23T23:13:21Z</time>
      </trkpt>
      <trkpt lat="45.67713" lon="-0.15325">
        <ele>11.196</ele>
        <time>2017-03-23T23:13:41Z</time>
      </trkpt>
      <trkpt lat="45.67716" lon="-0.15282">
        <ele>12.113</ele>
        <time>2017-03-23T23:14:01Z</time>
      </trkpt>
      <trkpt lat="45.67698" lon="-0.15244">
        <ele>14.046</ele>
        <time>2017-03-23T23:14:21Z</time>
      </trkpt>
      <trkpt lat="45.67678" lon="-0.15253">
        <ele>13.427</ele>
        <time>2017-03-23T23:14:41Z</time>
      </trkpt>
      <trkpt lat="45.67601" lon="-0.15216">
        <ele>15.19</ele>
        <time>2017-03-23T23:15:01Z</time>
      </trkpt>
      <trkpt lat="45.67512" lon="-0.15148">
        <ele>16.926</ele>
        <time>2017-03-23T23:15:21Z</time>
      </trkpt>
      <trkpt lat="45.67589" lon="-0.14584">
        <ele>13.83</ele>
        <time>2017-03-23T23:15:41Z</time>
      </trkpt>
      <trkpt lat="45.67624" lon="-0.14341">
        <ele>12.338</ele>
        <time>2017-03-23T23:16:01Z</time>
      </trkpt>
      <trkpt lat="45.67646" lon="-0.14221">
        <ele>14.87</ele>
        <time>2017-03-23T23:16:21Z</time>
      </trkpt>
      <trkpt lat="45.67672" lon="-0.14156">
        <ele>13.817</ele>
        <time>2017-03-23T23:16:41Z</time>
      </trkpt>
      <trkpt lat="45.67708" lon="-0.14011">
        <ele>14.608</ele>
        <time>2017-03-23T23:17:01Z</time>
      </trkpt>
      <trkpt lat="45.6774" lon="-0.1391">
        <ele>14.819</ele>
        <time>2017-03-23T23:17:21Z</time>
      </trkpt>
      <trkpt lat="45.6774" lon="-0.13751">
        <ele>13.473</ele>
        <time>2017-03-23T23:17:41Z</time>
      </trkpt>
      <trkpt lat="45.67715" lon="-0.13593">
        <ele>13.06</ele>
        <time>2017-03-23T23:18:01Z</time>
      </trkpt>
      <trkpt lat="45.67739" lon="-0.13442">
        <ele>13.093</ele>
        <time>2017-03-23T23:18:21Z</time>
      </trkpt>
      <trkpt lat="45.67764" lon="-0.134">
        <ele>13.594</ele>
        <time>2017-03-23T23:18:41Z</time>
      </trkpt>
      <trkpt lat="45.67761" lon="-0.13345">
        <ele>13.447</ele>
        <time>2017-03-23T23:19:01Z</time>
      </trkpt>
      <trkpt lat="45.67734" lon="-0.13239">
        <ele>13.823</ele>
        <time>2017-03-23T23:19:21Z</time>
      </trkpt>
      <trkpt lat="45.67677" lon="-0.13163">
        <ele>13.667</ele>
        <time>2017-03-23T23:19:41Z</time>
      </trkpt>
      <trkpt lat="45.67666" lon="-0.13109">
        <ele>14.154</ele>
        <time>2017-03-23T23:20:01Z</time>
      </trkpt>
      <trkpt lat="45.67665" lon="-0.1295">
        <ele>14.056</ele>
        <time>2017-03-23T23:20:21Z</time>
      </trkpt>
      <trkpt lat="45.67685" lon="-0.12849">
        <ele>13.211</ele>
        <time>2017-03-23T23:20:41Z</time>
      </trkpt>
      <trkpt lat="45.67674" lon="-0.12765">
        <ele>12.108</ele>
        <time>2017-03-23T23:21:01Z</time>
      </trkpt>
      <trkpt lat="45.67622" lon="-0.12669">
        <ele>11.531</ele>
        <time>2017-03-23T23:21:21Z</time>
      </trkpt>
      <trkpt lat="45.67489" lon="-0.1253">
        <ele>14.025</ele>
        <time>2017-03-23T23:21:41Z</time>
      </trkpt>
      <trkpt lat="45.67428" lon="-0.12481">
        <ele>13.182</ele>
        <time>2017-03-23T23:22:01Z</time>
      </trkpt>
      <trkpt lat="45.67379" lon="-0.1247">
        <ele>13.065</ele>
        <time>2017-03-23T23:22:21Z</time>
      </trkpt>
      <trkpt lat="45.67239" lon="-0.12379">
        <ele>13.676</ele>
        <time>2017-03-23T23:22:41Z</time>
      </trkpt>
      <trkpt lat="45.67135" lon="-0.12287">
        <ele>14.519</ele>
        <time>2017-03-23T23:23:01Z</time>
      </trkpt>
      <trkpt lat="45.67014" lon="-0.12143">
        <ele>14.155</ele>
        <time>2017-03-23T23:23:21Z</time>
      </trkpt>
      <trkpt lat="45.66948" lon="-0.1205">
        <ele>14.919</ele>
        <time>2017-03-23T23:23:41Z</time>
      </trkpt>
      <trkpt lat="45.66886" lon="-0.12007">
        <ele>13.274</ele>
        <time>2017-03-23T23:24:01Z</time>
      </trkpt>
      <trkpt lat="45.6682" lon="-0.11997">
        <ele>12.956</ele>
        <time>2017-03-23T23:24:21Z</time>
      </trkpt>
      <trkpt lat="45.66723" lon="-0.1199">
        <ele>14.021</ele>
        <time>2017-03-23T23:24:41Z</time>
      </trkpt>
      <trkpt lat="45.6672" lon="-0.12135">
        <ele>16.908</ele>
        <time>2017-03-23T23:25:01Z</time>
      </trkpt>
      <trkpt lat="45.66704" lon="-0.12187">
        <ele>16.213</ele>
        <time>2017-03-23T23:25:21Z</time>
      </trkpt>
      <trkpt lat="45.66669" lon="-0.12218">
        <ele>17.387</ele>
        <time>2017-03-23T23:25:41Z</time>
      </trkpt>
      <trkpt lat="45.66579" lon="-0.12234">
        <ele>17.474</ele>
        <time>2017-03-23T23:26:01Z</time>
      </trkpt>
      <trkpt lat="45.66523" lon="-0.12258">
        <ele>16.257</ele>
        <time>2017-03-23T23:26:21Z</time>
      </trkpt>
      <trkpt lat="45.66412" lon="-0.12439">
        <ele>17.018</ele>
        <time>2017-03-23T23:26:41Z</time>
      </trkpt>
      <trkpt lat="45.66242" lon="-0.12577">
        <ele>18.121</ele>
        <time>2017-03-23T23:27:01Z</time>
      </trkpt>
      <trkpt lat="45.66118" lon="-0.12409">
        <ele>17.077</ele>
        <time>2017-03-23T23:27:21Z</time>
      </trkpt>
      <trkpt lat="45.65935" lon="-0.12353">
        <ele>17.271</ele>
        <time>2017-03-23T23:27:41Z</time>
      </trkpt>
      <trkpt lat="45.6589" lon="-0.12373">
        <ele>18.043</ele>
        <time>2017-03-23T23:28:01Z</time>
      </trkpt>
      <trkpt lat="45.65851" lon="-0.12345">
        <ele>17.664</ele>
        <time>2017-03-23T23:28:21Z</time>
      </trkpt>
      <trkpt lat="45.65822" lon="-0.12287">
        <ele>17.51</ele>
        <time>2017-03-23T23:28:41Z</time>
      </trkpt>
      <trkpt lat="45.65719" lon="-0.12363">
        <ele>16.908</ele>
        <time>2017-03-23T23:29:01Z</time>
      </trkpt>
      <trkpt lat="45.65674" lon="-0.12432">
        <ele>19.41</ele>
        <time>2017-03-23T23:29:21Z</time>
      </trkpt>
      <trkpt lat="45.65614" lon="-0.12477">
        <ele>19.144</ele>
        <time>2017-03-23T23:29:41Z</time>
      </trkpt>
      <trkpt lat="45.65466" lon="-0.12603">
        <ele>18.041</ele>
        <time>2017-03-23T23:30:01Z</time>
      </trkpt>
      <trkpt lat="45.65307" lon="-0.12749">
        <ele>22.034</ele>
        <time>2017-03-23T23:30:21Z</time>
      </trkpt>
      <trkpt lat="45.65168" lon="-0.12831">
        <ele>19.025</ele>
        <time>2017-03-23T23:30:41Z</time>
      </trkpt>
      <trkpt lat="45.65096" lon="-0.12898">
        <ele>20.058</ele>
        <time>2017-03-23T23:31:01Z</time>
      </trkpt>
      <trkpt lat="45.65049" lon="-0.12988">
        <ele>20.824</ele>
        <time>2017-03-23T23:31:21Z</time>
      </trkpt>
      <trkpt lat="45.65028" lon="-0.13055">
        <ele>21.068</ele>
        <time>2017-03-23T23:31:41Z</time>
      </trkpt>
      <trkpt lat="45.65" lon="-0.13084">
        <ele>22.085</ele>
        <time>2017-03-23T23:32:01Z</time>
      </trkpt>
      <trkpt lat="45.64941" lon="-0.13115">
        <ele>22.989</ele>
        <time>2017-03-23T23:32:21Z</time>
      </trkpt>
      <trkpt lat="45.6478" lon="-0.13201">
        <ele>25.017</ele>
        <time>2017-03-23T23:32:41Z</time>
      </trkpt>
      <trkpt lat="45.6474" lon="-0.13245">
        <ele>25.908</ele>
        <time>2017-03-23T23:33:01Z</time>
      </trkpt>
      <trkpt lat="45.64672" lon="-0.13301">
        <ele>26.974</ele>
        <time>2017-03-23T23:33:21Z</time>
      </trkpt>
      <trkpt lat="45.64608" lon="-0.13333">
        <ele>32.128</ele>
        <time>2017-03-23T23:33:41Z</time>
      </trkpt>
      <trkpt lat="45.64552" lon="-0.13323">
        <ele>35.285</ele>
        <time>2017-03-23T23:34:01Z</time>
      </trkpt>
      <trkpt lat="45.64551" lon="-0.13293">
        <ele>35.218</ele>
        <time>2017-03-23T23:34:21Z</time>
      </trkpt>
      <trkpt lat="45.64493" lon="-0.13269">
        <ele>37.819</ele>
        <time>2017-03-23T23:34:41Z</time>
      </trkpt>
      <trkpt lat="45.64455" lon="-0.13241">
        <ele>41.232</ele>
        <time>2017-03-23T23:35:01Z</time>
      </trkpt>
      <trkpt lat="45.64291" lon="-0.13257">
        <ele>50.058</ele>
        <time>2017-03-23T23:35:21Z</time>
      </trkpt>
      <trkpt lat="45.64177" lon="-0.13289">
        <ele>57.412</ele>
        <time>2017-03-23T23:35:41Z</time>
      </trkpt>
      <trkpt lat="45.64148" lon="-0.13266">
        <ele>57.665</ele>
        <time>2017-03-23T23:36:01Z</time>
      </trkpt>
      <trkpt lat="45.64098" lon="-0.13267">
        <ele>59.168</ele>
        <time>2017-03-23T23:36:21Z</time>
      </trkpt>
      <trkpt lat="45.64041" lon="-0.13213">
        <ele>58.714</ele>
        <time>2017-03-23T23:36:41Z</time>
      </trkpt>
      <trkpt lat="45.64033" lon="-0.13337">
        <ele>62.808</ele>
        <time>2017-03-23T23:37:01Z</time>
      </trkpt>
      <trkpt lat="45.64014" lon="-0.13361">
        <ele>63.582</ele>
        <time>2017-03-23T23:37:21Z</time>
      </trkpt>
      <trkpt lat="45.63923" lon="-0.13399">
        <ele>66.266</ele>
        <time>2017-03-23T23:37:41Z</time>
      </trkpt>
      <trkpt lat="45.63845" lon="-0.13286">
        <ele>64.443</ele>
        <time>2017-03-23T23:38:01Z</time>
      </trkpt>
      <trkpt lat="45.6379" lon="-0.13272">
        <ele>67.026</ele>
        <time>2017-03-23T23:38:21Z</time>
      </trkpt>
      <trkpt lat="45.63736" lon="-0.13247">
        <ele>69.667</ele>
        <time>2017-03-23T23:38:41Z</time>
      </trkpt>
      <trkpt lat="45.63649" lon="-0.13241">
        <ele>73.03</ele>
        <time>2017-03-23T23:39:01Z</time>
      </trkpt>
      <trkpt lat="45.63559" lon="-0.13247">
        <ele>74.866</ele>
        <time>2017-03-23T23:39:21Z</time>
      </trkpt>
      <trkpt lat="45.63487" lon="-0.13266">
        <ele>75.49</ele>
        <time>2017-03-23T23:39:41Z</time>
      </trkpt>
      <trkpt lat="45.6329" lon="-0.1328">
        <ele>76.285</ele>
        <time>2017-03-23T23:40:01Z</time>
      </trkpt>
      <trkpt lat="45.6317" lon="-0.13308">
        <ele>77.289</ele>
        <time>2017-03-23T23:40:21Z</time>
      </trkpt>
      <trkpt lat="45.63131" lon="-0.13282">
        <ele>74.417</ele>
        <time>2017-03-23T23:40:41Z</time>
      </trkpt>
      <trkpt lat="45.63069" lon="-0.13143">
        <ele>72.408</ele>
        <time>2017-03-23T23:41:01Z</time>
      </trkpt>
      <trkpt lat="45.63016" lon="-0.13039">
        <ele>73.454</ele>
        <time>2017-03-23T23:41:21Z</time>
      </trkpt>
      <trkpt lat="45.62963" lon="-0.12883">
        <ele>77.218</ele>
        <time>2017-03-23T23:41:41Z</time>
      </trkpt>
      <trkpt lat="45.62954" lon="-0.12816">
        <ele>80.335</ele>
        <time>2017-03-23T23:42:01Z</time>
      </trkpt>
      <trkpt lat="45.62932" lon="-0.12793">
        <ele>78.268</ele>
        <time>2017-03-23T23:42:21Z</time>
      </trkpt>
      <trkpt lat="45.6289" lon="-0.12774">
        <ele>75.139</ele>
        <time>2017-03-23T23:42:41Z</time>
      </trkpt>
      <trkpt lat="45.62858" lon="-0.12735">
        <ele>74.142</ele>
        <time>2017-03-23T23:43:01Z</time>
      </trkpt>
      <trkpt lat="45.62793" lon="-0.12672">
        <ele>72.728</ele>
        <time>2017-03-23T23:43:21Z</time>
      </trkpt>
      <trkpt lat="45.62763" lon="-0.12627">
        <ele>71.992</ele>
        <time>2017-03-23T23:43:41Z</time>
      </trkpt>
      <trkpt lat="45.62708" lon="-0.12592">
        <ele>70.827</ele>
        <time>2017-03-23T23:44:01Z</time>
      </trkpt>
      <trkpt lat="45.62627" lon="-0.12555">
        <ele>69.768</ele>
        <time>2017-03-23T23:44:21Z</time>
      </trkpt>
      <trkpt lat="45.62589" lon="-0.12503">
        <ele>66.414</ele>
        <time>2017-03-23T23:44:41Z</time>
      </trkpt>
      <trkpt lat="45.62572" lon="-0.1245">
        <ele>63.808</ele>
        <time>2017-03-23T23:45:01Z</time>
      </trkpt>
      <trkpt lat="45.62536" lon="-0.12365">
        <ele>56.828</ele>
        <time>2017-03-23T23:45:21Z</time>
      </trkpt>
      <trkpt lat="45.62532" lon="-0.12304">
        <ele>52.792</ele>
        <time>2017-03-23T23:45:41Z</time>
      </trkpt>
      <trkpt lat="45.62542" lon="-0.12265">
        <ele>52.669</ele>
        <time>2017-03-23T23:46:01Z</time>
      </trkpt>
      <trkpt lat="45.62559" lon="-0.12238">
        <ele>52.592</ele>
        <time>2017-03-23T23:46:21Z</time>
      </trkpt>
      <trkpt lat="45.62545" lon="-0.12193">
        <ele>51.043</ele>
        <time>2017-03-23T23:46:41Z</time>
      </trkpt>
      <trkpt lat="45.62501" lon="-0.12205">
        <ele>50.366</ele>
        <time>2017-03-23T23:47:01Z</time>
      </trkpt>
      <trkpt lat="45.62488" lon="-0.12229">
        <ele>49.142</ele>
        <time>2017-03-23T23:47:21Z</time>
      </trkpt>
      <trkpt lat="45.62441" lon="-0.1225">
        <ele>48.916</ele>
        <time>2017-03-23T23:47:41Z</time>
      </trkpt>
      <trkpt lat="45.62284" lon="-0.12249">
        <ele>45.099</ele>
        <time>2020-11-18T23:07:45Z</time>
      </trkpt>
      <trkpt lat="45.62248" lon="-0.12262">
        <ele>46.407</ele>
        <time>2020-11-18T23:08:05Z</time>
      </trkpt>
      <trkpt lat="45.62095" lon="-0.12204">
        <ele>54.027</ele>
        <time>2020-11-18T23:08:25Z</time>
      </trkpt>
      <trkpt lat="45.6198" lon="-0.12139">
        <ele>59.708</ele>
        <time>2020-11-18T23:08:45Z</time>
      </trkpt>
      <trkpt lat="45.61899" lon="-0.12058">
        <ele>64.615</ele>
        <time>2020-11-18T23:09:05Z</time>
      </trkpt>
      <trkpt lat="45.61892" lon="-0.12086">
        <ele>63.879</ele>
        <time>2020-11-18T23:09:25Z</time>
      </trkpt>
      <trkpt lat="45.61836" lon="-0.12019">
        <ele>63.476</ele>
        <time>2020-11-18T23:09:45Z</time>
      </trkpt>
      <trkpt lat="45.6176" lon="-0.11847">
        <ele>65.319</ele>
        <time>2020-11-18T23:10:05Z</time>
      </trkpt>
      <trkpt lat="45.61722" lon="-0.1179">
        <ele>65.46</ele>
        <time>2020-11-18T23:10:25Z</time>
      </trkpt>
      <trkpt lat="45.61686" lon="-0.11717">
        <ele>66.363</ele>
        <time>2020-11-18T23:10:45Z</time>
      </trkpt>
      <trkpt lat="45.61653" lon="-0.11661">
        <ele>67.549</ele>
        <time>2020-11-18T23:11:05Z</time>
      </trkpt>
      <trkpt lat="45.61725" lon="-0.11561">
        <ele>60.253</ele>
        <time>2020-11-18T23:11:25Z</time>
      </trkpt>
      <trkpt lat="45.61754" lon="-0.11538">
        <ele>60.226</ele>
        <time>2020-11-18T23:11:45Z</time>
      </trkpt>
      <trkpt lat="45.61787" lon="-0.11526">
        <ele>62.447</ele>
        <time>2020-11-18T23:12:05Z</time>
      </trkpt>
      <trkpt lat="45.618" lon="-0.11498">
        <ele>63.711</ele>
        <time>2020-11-18T23:12:25Z</time>
      </trkpt>
      <trkpt lat="45.6182" lon="-0.11474">
        <ele>66.908</ele>
        <time>2020-11-18T23:12:45Z</time>
      </trkpt>
      <trkpt lat="45.6189" lon="-0.1131">
        <ele>80.068</ele>
        <time>2020-11-18T23:13:05Z</time>
      </trkpt>
      <trkpt lat="45.6197" lon="-0.11207">
        <ele>89.042</ele>
        <time>2020-11-18T23:13:25Z</time>
      </trkpt>
      <trkpt lat="45.62029" lon="-0.11154">
        <ele>91.029</ele>
        <time>2020-11-18T23:13:45Z</time>
      </trkpt>
      <trkpt lat="45.61942" lon="-0.11017">
        <ele>89.892</ele>
        <time>2020-11-18T23:14:05Z</time>
      </trkpt>
      <trkpt lat="45.61891" lon="-0.10957">
        <ele>86.123</ele>
        <time>2020-11-18T23:14:25Z</time>
      </trkpt>
      <trkpt lat="45.61837" lon="-0.10931">
        <ele>86.656</ele>
        <time>2020-11-18T23:14:45Z</time>
      </trkpt>
      <trkpt lat="45.6178" lon="-0.10884">
        <ele>88.972</ele>
        <time>2020-11-18T23:15:05Z</time>
      </trkpt>
      <trkpt lat="45.61666" lon="-0.1085">
        <ele>88.016</ele>
        <time>2020-11-18T23:15:25Z</time>
      </trkpt>
      <trkpt lat="45.61581" lon="-0.10787">
        <ele>84.533</ele>
        <time>2020-11-18T23:15:45Z</time>
      </trkpt>
      <trkpt lat="45.61435" lon="-0.10761">
        <ele>81.723</ele>
        <time>2020-11-18T23:16:05Z</time>
      </trkpt>
      <trkpt lat="45.6135" lon="-0.10781">
        <ele>80.515</ele>
        <time>2020-11-18T23:16:25Z</time>
      </trkpt>
      <trkpt lat="45.61268" lon="-0.10678">
        <ele>81.308</ele>
        <time>2020-11-18T23:16:45Z</time>
      </trkpt>
      <trkpt lat="45.61217" lon="-0.10641">
        <ele>82.999</ele>
        <time>2020-11-18T23:17:05Z</time>
      </trkpt>
      <trkpt lat="45.61186" lon="-0.10662">
        <ele>81.383</ele>
        <time>2020-11-18T23:17:25Z</time>
      </trkpt>
      <trkpt lat="45.61166" lon="-0.10658">
        <ele>81.34</ele>
        <time>2020-11-18T23:17:45Z</time>
      </trkpt>
      <trkpt lat="45.61206" lon="-0.10586">
        <ele>84.933</ele>
        <time>2020-11-18T23:18:05Z</time>
      </trkpt>
      <trkpt lat="45.61259" lon="-0.10526">
        <ele>84.564</ele>
        <time>2020-11-18T23:18:25Z</time>
      </trkpt>
      <trkpt lat="45.61276" lon="-0.10329">
        <ele>90.537</ele>
        <time>2020-11-18T23:18:45Z</time>
      </trkpt>
      <trkpt lat="45.61329" lon="-0.10183">
        <ele>95.863</ele>
        <time>2020-11-18T23:19:05Z</time>
      </trkpt>
      <trkpt lat="45.61354" lon="-0.10099">
        <ele>92.197</ele>
        <time>2020-11-18T23:19:25Z</time>
      </trkpt>
      <trkpt lat="45.61428" lon="-0.09946">
        <ele>89.024</ele>
        <time>2020-11-18T23:19:45Z</time>
      </trkpt>
      <trkpt lat="45.61444" lon="-0.09892">
        <ele>87.104</ele>
        <time>2020-11-18T23:20:05Z</time>
      </trkpt>
      <trkpt lat="45.6144" lon="-0.09819">
        <ele>85.214</ele>
        <time>2020-11-18T23:20:25Z</time>
      </trkpt>
      <trkpt lat="45.61478" lon="-0.09637">
        <ele>80.908</ele>
        <time>2017-03-23T23:59:21Z</time>
      </trkpt>
      <trkpt lat="45.61507" lon="-0.09442">
        <ele>77.028</ele>
        <time>2017-03-23T23:59:41Z</time>
      </trkpt>
      <trkpt lat="45.6149" lon="-0.09386">
        <ele>76.432</ele>
        <time>2017-03-24T00:00:01Z</time>
      </trkpt>
      <trkpt lat="45.61497" lon="-0.09329">
        <ele>75.889</ele>
        <time>2017-03-24T00:00:21Z</time>
      </trkpt>
      <trkpt lat="45.61478" lon="-0.0915">
        <ele>70.672</ele>
        <time>2017-03-24T00:00:41Z</time>
      </trkpt>
      <trkpt lat="45.61449" lon="-0.09106">
        <ele>69.843</ele>
        <time>2017-03-24T00:01:01Z</time>
      </trkpt>
      <trkpt lat="45.61432" lon="-0.09055">
        <ele>68.516</ele>
        <time>2017-03-24T00:01:21Z</time>
      </trkpt>
      <trkpt lat="45.61425" lon="-0.08928">
        <ele>70.982</ele>
        <time>2017-03-24T00:01:41Z</time>
      </trkpt>
      <trkpt lat="45.61421" lon="-0.08781">
        <ele>71.976</ele>
        <time>2017-03-24T00:02:01Z</time>
      </trkpt>
      <trkpt lat="45.61409" lon="-0.087">
        <ele>71.362</ele>
        <time>2017-03-24T00:02:21Z</time>
      </trkpt>
      <trkpt lat="45.61412" lon="-0.0868">
        <ele>71.183</ele>
        <time>2017-03-24T00:02:41Z</time>
      </trkpt>
      <trkpt lat="45.61628" lon="-0.08449">
        <ele>63.411</ele>
        <time>2017-03-24T00:03:01Z</time>
      </trkpt>
      <trkpt lat="45.617" lon="-0.08331">
        <ele>59.008</ele>
        <time>2017-03-24T00:03:21Z</time>
      </trkpt>
      <trkpt lat="45.61802" lon="-0.08107">
        <ele>54.932</ele>
        <time>2017-03-24T00:03:41Z</time>
      </trkpt>
      <trkpt lat="45.6191" lon="-0.07976">
        <ele>53.346</ele>
        <time>2017-03-24T00:04:01Z</time>
      </trkpt>
      <trkpt lat="45.62013" lon="-0.07895">
        <ele>50.473</ele>
        <time>2017-03-24T00:04:21Z</time>
      </trkpt>
      <trkpt lat="45.62182" lon="-0.08019">
        <ele>48.526</ele>
        <time>2017-03-24T00:04:41Z</time>
      </trkpt>
      <trkpt lat="45.6236" lon="-0.08038">
        <ele>48.827</ele>
        <time>2017-03-24T00:05:01Z</time>
      </trkpt>
      <trkpt lat="45.62419" lon="-0.07973">
        <ele>41.99</ele>
        <time>2017-03-24T00:05:21Z</time>
      </trkpt>
      <trkpt lat="45.62457" lon="-0.07869">
        <ele>34.156</ele>
        <time>2017-03-24T00:05:41Z</time>
      </trkpt>
      <trkpt lat="45.62514" lon="-0.07667">
        <ele>25.57</ele>
        <time>2017-03-24T00:06:01Z</time>
      </trkpt>
      <trkpt lat="45.62559" lon="-0.07397">
        <ele>22.065</ele>
        <time>2017-03-24T00:06:21Z</time>
      </trkpt>
      <trkpt lat="45.62584" lon="-0.07158">
        <ele>17.068</ele>
        <time>2017-03-24T00:06:41Z</time>
      </trkpt>
      <trkpt lat="45.62635" lon="-0.06829">
        <ele>18.714</ele>
        <time>2017-03-24T00:07:01Z</time>
      </trkpt>
      <trkpt lat="45.62503" lon="-0.06694">
        <ele>19.008</ele>
        <time>2017-03-24T00:07:21Z</time>
      </trkpt>
      <trkpt lat="45.62442" lon="-0.06709">
        <ele>17.052</ele>
        <time>2017-03-24T00:07:41Z</time>
      </trkpt>
      <trkpt lat="45.62392" lon="-0.0667">
        <ele>17.926</ele>
        <time>2017-03-24T00:08:01Z</time>
      </trkpt>
      <trkpt lat="45.62347" lon="-0.06591">
        <ele>18.413</ele>
        <time>2017-03-24T00:08:21Z</time>
      </trkpt>
      <trkpt lat="45.62303" lon="-0.0668">
        <ele>17.596</ele>
        <time>2017-03-24T00:08:41Z</time>
      </trkpt>
      <trkpt lat="45.62123" lon="-0.06673">
        <ele>18.697</ele>
        <time>2017-03-24T00:09:01Z</time>
      </trkpt>
      <trkpt lat="45.61946" lon="-0.06639">
        <ele>18.06</ele>
        <time>2017-03-24T00:09:21Z</time>
      </trkpt>
      <trkpt lat="45.61861" lon="-0.06593">
        <ele>19.656</ele>
        <time>2017-03-24T00:09:41Z</time>
      </trkpt>
      <trkpt lat="45.61802" lon="-0.06577">
        <ele>20.95</ele>
        <time>2017-03-24T00:10:01Z</time>
      </trkpt>
      <trkpt lat="45.61716" lon="-0.06659">
        <ele>21.738</ele>
        <time>2017-03-24T00:10:21Z</time>
      </trkpt>
      <trkpt lat="45.61612" lon="-0.06576">
        <ele>26.27</ele>
        <time>2017-03-24T00:10:41Z</time>
      </trkpt>
      <trkpt lat="45.61587" lon="-0.06525">
        <ele>29.917</ele>
        <time>2017-03-24T00:11:01Z</time>
      </trkpt>
      <trkpt lat="45.61551" lon="-0.06493">
        <ele>34.408</ele>
        <time>2017-03-24T00:11:21Z</time>
      </trkpt>
      <trkpt lat="45.6152" lon="-0.06478">
        <ele>36.519</ele>
        <time>2017-03-24T00:11:41Z</time>
      </trkpt>
      <trkpt lat="45.61474" lon="-0.06478">
        <ele>40.613</ele>
        <time>2017-03-24T00:12:01Z</time>
      </trkpt>
      <trkpt lat="45.61394" lon="-0.06536">
        <ele>50.81</ele>
        <time>2017-03-24T00:12:21Z</time>
      </trkpt>
      <trkpt lat="45.61335" lon="-0.06553">
        <ele>50.183</ele>
        <time>2017-03-24T00:12:41Z</time>
      </trkpt>
      <trkpt lat="45.61308" lon="-0.06597">
        <ele>49.084</ele>
        <time>2017-03-24T00:13:01Z</time>
      </trkpt>
      <trkpt lat="45.61258" lon="-0.06432">
        <ele>48.797</ele>
        <time>2017-03-24T00:13:21Z</time>
      </trkpt>
      <trkpt lat="45.61005" lon="-0.06157">
        <ele>41.933</ele>
        <time>2017-03-24T00:13:41Z</time>
      </trkpt>
      <trkpt lat="45.60854" lon="-0.06014">
        <ele>40.517</ele>
        <time>2017-03-24T00:14:01Z</time>
      </trkpt>
      <trkpt lat="45.60815" lon="-0.05921">
        <ele>41.529</ele>
        <time>2017-03-24T00:14:21Z</time>
      </trkpt>
      <trkpt lat="45.60765" lon="-0.05943">
        <ele>45</ele>
        <time>2020-11-18T23:36:05Z</time>
      </trkpt>
      <trkpt lat="45.60714" lon="-0.05939">
        <ele>46.22</ele>
        <time>2020-11-18T23:36:25Z</time>
      </trkpt>
      <trkpt lat="45.60642" lon="-0.05905">
        <ele>47.008</ele>
        <time>2020-11-18T23:36:45Z</time>
      </trkpt>
      <trkpt lat="45.60623" lon="-0.05895">
        <ele>45.828</ele>
        <time>2020-11-18T23:37:05Z</time>
      </trkpt>
      <trkpt lat="45.60506" lon="-0.05811">
        <ele>41.292</ele>
        <time>2020-11-18T23:37:25Z</time>
      </trkpt>
      <trkpt lat="45.60319" lon="-0.05671">
        <ele>38.219</ele>
        <time>2020-11-18T23:37:45Z</time>
      </trkpt>
      <trkpt lat="45.60172" lon="-0.05534">
        <ele>36.462</ele>
        <time>2020-11-18T23:38:05Z</time>
      </trkpt>
      <trkpt lat="45.60072" lon="-0.05504">
        <ele>30.123</ele>
        <time>2020-11-18T23:38:25Z</time>
      </trkpt>
      <trkpt lat="45.60012" lon="-0.05432">
        <ele>26.976</ele>
        <time>2020-11-18T23:38:45Z</time>
      </trkpt>
      <trkpt lat="45.60003" lon="-0.05384">
        <ele>25.112</ele>
        <time>2020-11-18T23:39:05Z</time>
      </trkpt>
      <trkpt lat="45.6008" lon="-0.05197">
        <ele>21.136</ele>
        <time>2020-11-18T23:39:25Z</time>
      </trkpt>
      <trkpt lat="45.60103" lon="-0.0516">
        <ele>20.246</ele>
        <time>2017-03-24T00:18:01Z</time>
      </trkpt>
      <trkpt lat="45.60161" lon="-0.05063">
        <ele>20.888</ele>
        <time>2017-03-24T00:18:21Z</time>
      </trkpt>
      <trkpt lat="45.60189" lon="-0.05036">
        <ele>20.816</ele>
        <time>2017-03-24T00:18:41Z</time>
      </trkpt>
      <trkpt lat="45.60466" lon="-0.04941">
        <ele>20.208</ele>
        <time>2017-03-24T00:19:01Z</time>
      </trkpt>
      <trkpt lat="45.60565" lon="-0.04849">
        <ele>22.46</ele>
        <time>2017-03-24T00:19:21Z</time>
      </trkpt>
      <trkpt lat="45.60495" lon="-0.04779">
        <ele>20.214</ele>
        <time>2017-03-24T00:19:41Z</time>
      </trkpt>
      <trkpt lat="45.6038" lon="-0.0443">
        <ele>24.891</ele>
        <time>2017-03-24T00:20:01Z</time>
      </trkpt>
      <trkpt lat="45.60366" lon="-0.04225">
        <ele>26.054</ele>
        <time>2017-03-24T00:20:21Z</time>
      </trkpt>
      <trkpt lat="45.60371" lon="-0.04135">
        <ele>27.735</ele>
        <time>2017-03-24T00:20:41Z</time>
      </trkpt>
      <trkpt lat="45.60415" lon="-0.04129">
        <ele>29.078</ele>
        <time>2017-03-24T00:21:01Z</time>
      </trkpt>
      <trkpt lat="45.60511" lon="-0.04158">
        <ele>29.984</ele>
        <time>2020-11-18T23:43:05Z</time>
      </trkpt>
      <trkpt lat="45.60589" lon="-0.04127">
        <ele>29.348</ele>
        <time>2020-11-18T23:43:25Z</time>
      </trkpt>
      <trkpt lat="45.60661" lon="-0.04139">
        <ele>30.083</ele>
        <time>2020-11-18T23:43:45Z</time>
      </trkpt>
      <trkpt lat="45.60784" lon="-0.04117">
        <ele>32.225</ele>
        <time>2020-11-18T23:44:05Z</time>
      </trkpt>
      <trkpt lat="45.60875" lon="-0.04057">
        <ele>31.017</ele>
        <time>2020-11-18T23:44:25Z</time>
      </trkpt>
      <trkpt lat="45.60909" lon="-0.0402">
        <ele>31.208</ele>
        <time>2020-11-18T23:44:45Z</time>
      </trkpt>
      <trkpt lat="45.60937" lon="-0.04005">
        <ele>31.864</ele>
        <time>2020-11-18T23:45:05Z</time>
      </trkpt>
      <trkpt lat="45.60957" lon="-0.0398">
        <ele>31.628</ele>
        <time>2020-11-18T23:45:25Z</time>
      </trkpt>
      <trkpt lat="45.61011" lon="-0.03952">
        <ele>36.135</ele>
        <time>2020-11-18T23:45:45Z</time>
      </trkpt>
      <trkpt lat="45.61023" lon="-0.03911">
        <ele>38.418</ele>
        <time>2020-11-18T23:46:05Z</time>
      </trkpt>
      <trkpt lat="45.60998" lon="-0.03798">
        <ele>41.839</ele>
        <time>2020-11-18T23:46:25Z</time>
      </trkpt>
      <trkpt lat="45.61015" lon="-0.03757">
        <ele>42.352</ele>
        <time>2020-11-18T23:46:45Z</time>
      </trkpt>
      <trkpt lat="45.61252" lon="-0.03577">
        <ele>45.488</ele>
        <time>2020-11-18T23:47:05Z</time>
      </trkpt>
      <trkpt lat="45.61283" lon="-0.03543">
        <ele>48.682</ele>
        <time>2020-11-18T23:47:25Z</time>
      </trkpt>
      <trkpt lat="45.61313" lon="-0.03495">
        <ele>50.575</ele>
        <time>2020-11-18T23:47:45Z</time>
      </trkpt>
      <trkpt lat="45.6138" lon="-0.03441">
        <ele>49.628</ele>
        <time>2020-11-18T23:48:05Z</time>
      </trkpt>
      <trkpt lat="45.6146" lon="-0.03418">
        <ele>56.72</ele>
        <time>2020-11-18T23:48:25Z</time>
      </trkpt>
      <trkpt lat="45.61452" lon="-0.03457">
        <ele>58.608</ele>
        <time>2020-11-18T23:48:45Z</time>
      </trkpt>
      <trkpt lat="45.61606" lon="-0.03499">
        <ele>66.853</ele>
        <time>2017-03-24T00:28:41Z</time>
      </trkpt>
      <trkpt lat="45.61616" lon="-0.03517">
        <ele>67.847</ele>
        <time>2017-03-24T00:29:01Z</time>
      </trkpt>
      <trkpt lat="45.61684" lon="-0.03487">
        <ele>68.724</ele>
        <time>2017-03-24T00:29:21Z</time>
      </trkpt>
      <trkpt lat="45.6172" lon="-0.0345">
        <ele>66.757</ele>
        <time>2017-03-24T00:29:41Z</time>
      </trkpt>
      <trkpt lat="45.6177" lon="-0.03377">
        <ele>66.868</ele>
        <time>2017-03-24T00:30:01Z</time>
      </trkpt>
      <trkpt lat="45.61865" lon="-0.03309">
        <ele>68.941</ele>
        <time>2017-03-24T00:30:21Z</time>
      </trkpt>
      <trkpt lat="45.61907" lon="-0.03246">
        <ele>65.437</ele>
        <time>2017-03-24T00:30:41Z</time>
      </trkpt>
      <trkpt lat="45.62006" lon="-0.03204">
        <ele>60.171</ele>
        <time>2017-03-24T00:31:01Z</time>
      </trkpt>
      <trkpt lat="45.62048" lon="-0.03208">
        <ele>63.537</ele>
        <time>2017-03-24T00:31:21Z</time>
      </trkpt>
      <trkpt lat="45.62079" lon="-0.03197">
        <ele>61.449</ele>
        <time>2017-03-24T00:31:41Z</time>
      </trkpt>
      <trkpt lat="45.62115" lon="-0.03192">
        <ele>59.913</ele>
        <time>2017-03-24T00:32:01Z</time>
      </trkpt>
      <trkpt lat="45.62123" lon="-0.03148">
        <ele>56.808</ele>
        <time>2017-03-24T00:32:21Z</time>
      </trkpt>
      <trkpt lat="45.62147" lon="-0.03108">
        <ele>54.279</ele>
        <time>2017-03-24T00:32:41Z</time>
      </trkpt>
      <trkpt lat="45.62285" lon="-0.03018">
        <ele>53.563</ele>
        <time>2017-03-24T00:33:01Z</time>
      </trkpt>
      <trkpt lat="45.6237" lon="-0.03032">
        <ele>51.59</ele>
        <time>2017-03-24T00:33:21Z</time>
      </trkpt>
      <trkpt lat="45.62622" lon="-0.02967">
        <ele>45.363</ele>
        <time>2020-11-18T23:54:05Z</time>
      </trkpt>
      <trkpt lat="45.62651" lon="-0.02912">
        <ele>43.744</ele>
        <time>2020-11-18T23:54:25Z</time>
      </trkpt>
      <trkpt lat="45.62659" lon="-0.0285">
        <ele>39.897</ele>
        <time>2020-11-18T23:54:45Z</time>
      </trkpt>
      <trkpt lat="45.62642" lon="-0.02806">
        <ele>33.193</ele>
        <time>2020-11-18T23:55:05Z</time>
      </trkpt>
      <trkpt lat="45.62604" lon="-0.02785">
        <ele>28.227</ele>
        <time>2020-11-18T23:55:25Z</time>
      </trkpt>
      <trkpt lat="45.62562" lon="-0.02782">
        <ele>27.218</ele>
        <time>2020-11-18T23:55:45Z</time>
      </trkpt>
      <trkpt lat="45.62541" lon="-0.02801">
        <ele>27.298</ele>
        <time>2020-11-18T23:56:05Z</time>
      </trkpt>
      <trkpt lat="45.62481" lon="-0.02746">
        <ele>20.717</ele>
        <time>2020-11-18T23:56:25Z</time>
      </trkpt>
      <trkpt lat="45.62452" lon="-0.02744">
        <ele>21.708</ele>
        <time>2020-11-18T23:56:45Z</time>
      </trkpt>
      <trkpt lat="45.62398" lon="-0.02772">
        <ele>22.867</ele>
        <time>2017-03-24T00:36:01Z</time>
      </trkpt>
      <trkpt lat="45.62331" lon="-0.02835">
        <ele>25.391</ele>
        <time>2017-03-24T00:36:21Z</time>
      </trkpt>
      <trkpt lat="45.62238" lon="-0.02717">
        <ele>22.688</ele>
        <time>2017-03-24T00:36:41Z</time>
      </trkpt>
      <trkpt lat="45.62234" lon="-0.02631">
        <ele>22.291</ele>
        <time>2017-03-24T00:37:01Z</time>
      </trkpt>
      <trkpt lat="45.62243" lon="-0.0253">
        <ele>24.522</ele>
        <time>2017-03-24T00:37:21Z</time>
      </trkpt>
      <trkpt lat="45.62289" lon="-0.02363">
        <ele>21.155</ele>
        <time>2017-03-24T00:37:41Z</time>
      </trkpt>
      <trkpt lat="45.62325" lon="-0.02433">
        <ele>23.731</ele>
        <time>2017-03-24T00:38:01Z</time>
      </trkpt>
      <trkpt lat="45.6238" lon="-0.02266">
        <ele>22.735</ele>
        <time>2017-03-24T00:38:21Z</time>
      </trkpt>
      <trkpt lat="45.62422" lon="-0.02247">
        <ele>22.581</ele>
        <time>2017-03-24T00:38:41Z</time>
      </trkpt>
      <trkpt lat="45.6246" lon="-0.02271">
        <ele>20.861</ele>
        <time>2017-03-24T00:39:01Z</time>
      </trkpt>
      <trkpt lat="45.62507" lon="-0.02354">
        <ele>21.517</ele>
        <time>2017-03-24T00:39:21Z</time>
      </trkpt>
      <trkpt lat="45.62529" lon="-0.02366">
        <ele>22.108</ele>
        <time>2017-03-24T00:39:41Z</time>
      </trkpt>
      <trkpt lat="45.62582" lon="-0.02327">
        <ele>20.844</ele>
        <time>2017-03-24T00:40:01Z</time>
      </trkpt>
      <trkpt lat="45.62648" lon="-0.02295">
        <ele>21.578</ele>
        <time>2017-03-24T00:40:21Z</time>
      </trkpt>
      <trkpt lat="45.62725" lon="-0.02157">
        <ele>20.625</ele>
        <time>2017-03-24T00:40:41Z</time>
      </trkpt>
      <trkpt lat="45.6278" lon="-0.01989">
        <ele>20.088</ele>
        <time>2017-03-24T00:41:01Z</time>
      </trkpt>
      <trkpt lat="45.62831" lon="-0.01801">
        <ele>20.839</ele>
        <time>2017-03-24T00:41:21Z</time>
      </trkpt>
      <trkpt lat="45.62884" lon="-0.01673">
        <ele>20.132</ele>
        <time>2017-03-24T00:41:41Z</time>
      </trkpt>
      <trkpt lat="45.62977" lon="-0.0153">
        <ele>22.268</ele>
        <time>2017-03-24T00:42:01Z</time>
      </trkpt>
      <trkpt lat="45.63012" lon="-0.01432">
        <ele>19.882</ele>
        <time>2017-03-24T00:42:21Z</time>
      </trkpt>
      <trkpt lat="45.63018" lon="-0.0128">
        <ele>20.091</ele>
        <time>2017-03-24T00:42:41Z</time>
      </trkpt>
      <trkpt lat="45.63005" lon="-0.01035">
        <ele>22.081</ele>
        <time>2017-03-24T00:43:01Z</time>
      </trkpt>
      <trkpt lat="45.62979" lon="-0.0085">
        <ele>21.519</ele>
        <time>2017-03-24T00:43:21Z</time>
      </trkpt>
      <trkpt lat="45.62939" lon="-0.00683">
        <ele>22.208</ele>
        <time>2017-03-24T00:43:41Z</time>
      </trkpt>
      <trkpt lat="45.62887" lon="-0.00549">
        <ele>27.175</ele>
        <time>2017-03-24T00:44:01Z</time>
      </trkpt>
      <trkpt lat="45.62825" lon="-0.00504">
        <ele>26.179</ele>
        <time>2017-03-24T00:44:21Z</time>
      </trkpt>
      <trkpt lat="45.62653" lon="-0.00649">
        <ele>25.546</ele>
        <time>2017-03-24T00:44:41Z</time>
      </trkpt>
      <trkpt lat="45.62584" lon="-0.00653">
        <ele>24.529</ele>
        <time>2017-03-24T00:45:01Z</time>
      </trkpt>
      <trkpt lat="45.62521" lon="-0.00515">
        <ele>25.01</ele>
        <time>2017-03-24T00:45:21Z</time>
      </trkpt>
      <trkpt lat="45.6245" lon="-0.00339">
        <ele>25.623</ele>
        <time>2017-03-24T00:45:41Z</time>
      </trkpt>
      <trkpt lat="45.62322" lon="-0.00121">
        <ele>25.839</ele>
        <time>2017-03-24T00:46:01Z</time>
      </trkpt>
      <trkpt lat="45.62378" lon="-0.00011">
        <ele>22.663</ele>
        <time>2017-03-24T00:46:21Z</time>
      </trkpt>
      <trkpt lat="45.62343" lon="0.00042">
        <ele>22.585</ele>
        <time>2017-03-24T00:46:41Z</time>
      </trkpt>
      <trkpt lat="45.62355" lon="0.00075">
        <ele>22.489</ele>
        <time>2017-03-24T00:47:01Z</time>
      </trkpt>
      <trkpt lat="45.62372" lon="0.00079">
        <ele>22.117</ele>
        <time>2020-11-19T00:08:25Z</time>
      </trkpt>
      <trkpt lat="45.6241" lon="0.00021">
        <ele>22.208</ele>
        <time>2020-11-19T00:08:45Z</time>
      </trkpt>
      <trkpt lat="45.62417" lon="0.00103">
        <ele>22.054</ele>
        <time>2020-11-19T00:09:05Z</time>
      </trkpt>
      <trkpt lat="45.62387" lon="0.00162">
        <ele>21.168</ele>
        <time>2020-11-19T00:09:25Z</time>
      </trkpt>
      <trkpt lat="45.62333" lon="0.00205">
        <ele>25.025</ele>
        <time>2020-11-19T00:09:45Z</time>
      </trkpt>
      <trkpt lat="45.62289" lon="0.00214">
        <ele>22.578</ele>
        <time>2017-03-24T00:47:21Z</time>
      </trkpt>
      <trkpt lat="45.6223" lon="0.00237">
        <ele>21.379</ele>
        <time>2017-03-24T00:47:41Z</time>
      </trkpt>
      <trkpt lat="45.6217" lon="0.00282">
        <ele>21.982</ele>
        <time>2017-03-24T00:48:01Z</time>
      </trkpt>
      <trkpt lat="45.62148" lon="0.00325">
        <ele>21.828</ele>
        <time>2017-03-24T00:48:21Z</time>
      </trkpt>
      <trkpt lat="45.62109" lon="0.00459">
        <ele>22.562</ele>
        <time>2017-03-24T00:48:41Z</time>
      </trkpt>
      <trkpt lat="45.62072" lon="0.00514">
        <ele>22.468</ele>
        <time>2017-03-24T00:49:01Z</time>
      </trkpt>
      <trkpt lat="45.61954" lon="0.00569">
        <ele>22.842</ele>
        <time>2017-03-24T00:49:21Z</time>
      </trkpt>
      <trkpt lat="45.61797" lon="0.00599">
        <ele>21.626</ele>
        <time>2017-03-24T00:49:41Z</time>
      </trkpt>
      <trkpt lat="45.6158" lon="0.00596">
        <ele>22.308</ele>
        <time>2017-03-24T00:50:01Z</time>
      </trkpt>
      <trkpt lat="45.61484" lon="0.00616">
        <ele>22.092</ele>
        <time>2017-03-24T00:50:21Z</time>
      </trkpt>
      <trkpt lat="45.61434" lon="0.0065">
        <ele>24.436</ele>
        <time>2017-03-24T00:50:41Z</time>
      </trkpt>
      <trkpt lat="45.61396" lon="0.00696">
        <ele>24.483</ele>
        <time>2017-03-24T00:51:01Z</time>
      </trkpt>
      <trkpt lat="45.61141" lon="0.00926">
        <ele>23.356</ele>
        <time>2017-03-24T00:51:21Z</time>
      </trkpt>
      <trkpt lat="45.61093" lon="0.01005">
        <ele>25.487</ele>
        <time>2017-03-24T00:51:41Z</time>
      </trkpt>
      <trkpt lat="45.61072" lon="0.01077">
        <ele>23.68</ele>
        <time>2017-03-24T00:52:01Z</time>
      </trkpt>
      <trkpt lat="45.6102" lon="0.01139">
        <ele>22.076</ele>
        <time>2017-03-24T00:52:21Z</time>
      </trkpt>
      <trkpt lat="45.60938" lon="0.01048">
        <ele>22.26</ele>
        <time>2017-03-24T00:52:41Z</time>
      </trkpt>
      <trkpt lat="45.60833" lon="0.00813">
        <ele>22.323</ele>
        <time>2017-03-24T00:53:01Z</time>
      </trkpt>
      <trkpt lat="45.60815" lon="0.00743">
        <ele>22.683</ele>
        <time>2017-03-24T00:53:21Z</time>
      </trkpt>
      <trkpt lat="45.60797" lon="0.00698">
        <ele>23.311</ele>
        <time>2017-03-24T00:53:41Z</time>
      </trkpt>
      <trkpt lat="45.60785" lon="0.00651">
        <ele>25.808</ele>
        <time>2017-03-24T00:54:01Z</time>
      </trkpt>
      <trkpt lat="45.60769" lon="0.00628">
        <ele>28.598</ele>
        <time>2017-03-24T00:54:21Z</time>
      </trkpt>
      <trkpt lat="45.60765" lon="0.00602">
        <ele>31.142</ele>
        <time>2017-03-24T00:54:41Z</time>
      </trkpt>
      <trkpt lat="45.60737" lon="0.00568">
        <ele>36.119</ele>
        <time>2017-03-24T00:55:01Z</time>
      </trkpt>
      <trkpt lat="45.60684" lon="0.00476">
        <ele>45.262</ele>
        <time>2017-03-24T00:55:21Z</time>
      </trkpt>
      <trkpt lat="45.606" lon="0.003">
        <ele>53.943</ele>
        <time>2017-03-24T00:55:41Z</time>
      </trkpt>
      <trkpt lat="45.60519" lon="0.00181">
        <ele>61.226</ele>
        <time>2017-03-24T00:56:01Z</time>
      </trkpt>
      <trkpt lat="45.60461" lon="0.00064">
        <ele>71.252</ele>
        <time>2020-11-19T00:19:05Z</time>
      </trkpt>
      <trkpt lat="45.6042" lon="0.00025">
        <ele>71.396</ele>
        <time>2020-11-19T00:19:25Z</time>
      </trkpt>
      <trkpt lat="45.60367" lon="-0.0017">
        <ele>65.099</ele>
        <time>2017-03-24T00:57:21Z</time>
      </trkpt>
      <trkpt lat="45.6034" lon="-0.00245">
        <ele>65.807</ele>
        <time>2017-03-24T00:57:41Z</time>
      </trkpt>
      <trkpt lat="45.60302" lon="-0.00311">
        <ele>63.527</ele>
        <time>2017-03-24T00:58:01Z</time>
      </trkpt>
      <trkpt lat="45.60273" lon="-0.00267">
        <ele>62.608</ele>
        <time>2017-03-24T00:58:21Z</time>
      </trkpt>
      <trkpt lat="45.60203" lon="-0.00216">
        <ele>63.435</ele>
        <time>2017-03-24T00:58:41Z</time>
      </trkpt>
      <trkpt lat="45.60123" lon="-0.00122">
        <ele>64.839</ele>
        <time>2017-03-24T00:59:01Z</time>
      </trkpt>
      <trkpt lat="45.60029" lon="-0.00074">
        <ele>65.356</ele>
        <time>2017-03-24T00:59:21Z</time>
      </trkpt>
      <trkpt lat="45.59757" lon="-0.00097">
        <ele>64.239</ele>
        <time>2017-03-24T00:59:41Z</time>
      </trkpt>
      <trkpt lat="45.59723" lon="-0.00084">
        <ele>65.08</ele>
        <time>2017-03-24T01:00:01Z</time>
      </trkpt>
      <trkpt lat="45.59647" lon="0.00039">
        <ele>62.233</ele>
        <time>2017-03-24T01:00:21Z</time>
      </trkpt>
      <trkpt lat="45.59616" lon="0.00182">
        <ele>62.479</ele>
        <time>2017-03-24T01:00:41Z</time>
      </trkpt>
      <trkpt lat="45.59584" lon="0.00243">
        <ele>63.523</ele>
        <time>2017-03-24T01:01:01Z</time>
      </trkpt>
      <trkpt lat="45.59498" lon="0.00344">
        <ele>63.034</ele>
        <time>2017-03-24T01:01:21Z</time>
      </trkpt>
      <trkpt lat="45.59415" lon="0.00614">
        <ele>63.955</ele>
        <time>2017-03-24T01:01:41Z</time>
      </trkpt>
      <trkpt lat="45.59353" lon="0.00864">
        <ele>58.41</ele>
        <time>2017-03-24T01:02:01Z</time>
      </trkpt>
      <trkpt lat="45.59243" lon="0.00853">
        <ele>48.708</ele>
        <time>2017-03-24T01:02:21Z</time>
      </trkpt>
      <trkpt lat="45.59194" lon="0.00829">
        <ele>44.189</ele>
        <time>2017-03-24T01:02:41Z</time>
      </trkpt>
      <trkpt lat="45.59122" lon="0.00848">
        <ele>45.253</ele>
        <time>2017-03-24T01:03:01Z</time>
      </trkpt>
      <trkpt lat="45.5909" lon="0.00682">
        <ele>43.83</ele>
        <time>2017-03-24T01:03:21Z</time>
      </trkpt>
      <trkpt lat="45.59083" lon="0.00575">
        <ele>44.063</ele>
        <time>2017-03-24T01:03:41Z</time>
      </trkpt>
      <trkpt lat="45.59101" lon="0.00473">
        <ele>41.494</ele>
        <time>2017-03-24T01:04:01Z</time>
      </trkpt>
      <trkpt lat="45.59153" lon="0.00266">
        <ele>44.927</ele>
        <time>2017-03-24T01:04:21Z</time>
      </trkpt>
      <trkpt lat="45.59223" lon="0.00148">
        <ele>44.293</ele>
        <time>2017-03-24T01:04:41Z</time>
      </trkpt>
      <trkpt lat="45.5925" lon="0.00135">
        <ele>42.367</ele>
        <time>2017-03-24T01:05:01Z</time>
      </trkpt>
      <trkpt lat="45.59271" lon="0.00057">
        <ele>44.972</ele>
        <time>2017-03-24T01:05:21Z</time>
      </trkpt>
      <trkpt lat="45.59281" lon="-0.00109">
        <ele>44.113</ele>
        <time>2017-03-24T01:05:41Z</time>
      </trkpt>
      <trkpt lat="45.59265" lon="-0.00235">
        <ele>43.614</ele>
        <time>2017-03-24T01:06:01Z</time>
      </trkpt>
      <trkpt lat="45.5924" lon="-0.00279">
        <ele>39.708</ele>
        <time>2017-03-24T01:06:21Z</time>
      </trkpt>
      <trkpt lat="45.59103" lon="-0.00279">
        <ele>43.553</ele>
        <time>2017-03-24T01:06:41Z</time>
      </trkpt>
      <trkpt lat="45.589" lon="-0.00212">
        <ele>46.667</ele>
        <time>2017-03-24T01:07:01Z</time>
      </trkpt>
      <trkpt lat="45.58825" lon="-0.00175">
        <ele>48.834</ele>
        <time>2017-03-24T01:07:21Z</time>
      </trkpt>
      <trkpt lat="45.58754" lon="-0.00096">
        <ele>56.377</ele>
        <time>2017-03-24T01:07:41Z</time>
      </trkpt>
      <trkpt lat="45.58658" lon="0.00176">
        <ele>60.638</ele>
        <time>2017-03-24T01:08:01Z</time>
      </trkpt>
      <trkpt lat="45.58545" lon="0.00134">
        <ele>49.011</ele>
        <time>2017-03-24T01:08:21Z</time>
      </trkpt>
      <trkpt lat="45.58493" lon="0.00147">
        <ele>48.567</ele>
        <time>2017-03-24T01:08:41Z</time>
      </trkpt>
      <trkpt lat="45.58448" lon="0.00069">
        <ele>43.961</ele>
        <time>2017-03-24T01:09:01Z</time>
      </trkpt>
      <trkpt lat="45.58285" lon="0.00068">
        <ele>45.548</ele>
        <time>2017-03-24T01:09:21Z</time>
      </trkpt>
      <trkpt lat="45.58137" lon="0.00029">
        <ele>45.161</ele>
        <time>2017-03-24T01:09:41Z</time>
      </trkpt>
      <trkpt lat="45.58099" lon="0.00052">
        <ele>45.417</ele>
        <time>2017-03-24T01:10:01Z</time>
      </trkpt>
      <trkpt lat="45.58056" lon="0.00121">
        <ele>45.408</ele>
        <time>2017-03-24T01:10:21Z</time>
      </trkpt>
      <trkpt lat="45.57866" lon="0.00122">
        <ele>44.81</ele>
        <time>2017-03-24T01:10:41Z</time>
      </trkpt>
      <trkpt lat="45.5791" lon="0.00707">
        <ele>59.164</ele>
        <time>2017-03-24T01:11:01Z</time>
      </trkpt>
      <trkpt lat="45.57922" lon="0.00747">
        <ele>60.091</ele>
        <time>2017-03-24T01:11:21Z</time>
      </trkpt>
      <trkpt lat="45.58022" lon="0.00963">
        <ele>60.354</ele>
        <time>2017-03-24T01:11:41Z</time>
      </trkpt>
      <trkpt lat="45.58059" lon="0.01123">
        <ele>63.685</ele>
        <time>2017-03-24T01:12:01Z</time>
      </trkpt>
      <trkpt lat="45.58059" lon="0.01166">
        <ele>62.128</ele>
        <time>2017-03-24T01:12:21Z</time>
      </trkpt>
      <trkpt lat="45.58044" lon="0.01233">
        <ele>61.494</ele>
        <time>2017-03-24T01:12:41Z</time>
      </trkpt>
      <trkpt lat="45.58043" lon="0.01259">
        <ele>61.098</ele>
        <time>2017-03-24T01:13:01Z</time>
      </trkpt>
      <trkpt lat="45.57948" lon="0.01374">
        <ele>60.927</ele>
        <time>2017-03-24T01:13:21Z</time>
      </trkpt>
      <trkpt lat="45.57953" lon="0.01454">
        <ele>61.068</ele>
        <time>2017-03-24T01:13:41Z</time>
      </trkpt>
      <trkpt lat="45.57925" lon="0.01543">
        <ele>61.514</ele>
        <time>2017-03-24T01:14:01Z</time>
      </trkpt>
      <trkpt lat="45.57997" lon="0.01575">
        <ele>62.908</ele>
        <time>2017-03-24T01:14:21Z</time>
      </trkpt>
      <trkpt lat="45.57941" lon="0.0184">
        <ele>62.948</ele>
        <time>2017-03-24T01:14:41Z</time>
      </trkpt>
      <trkpt lat="45.57903" lon="0.01984">
        <ele>62.472</ele>
        <time>2017-03-24T01:15:01Z</time>
      </trkpt>
      <trkpt lat="45.57833" lon="0.02174">
        <ele>65.029</ele>
        <time>2017-03-24T01:15:21Z</time>
      </trkpt>
      <trkpt lat="45.57654" lon="0.02065">
        <ele>60.092</ele>
        <time>2017-03-24T01:15:41Z</time>
      </trkpt>
      <trkpt lat="45.57621" lon="0.02239">
        <ele>59.643</ele>
        <time>2017-03-24T01:16:01Z</time>
      </trkpt>
      <trkpt lat="45.57573" lon="0.02461">
        <ele>61.666</ele>
        <time>2017-03-24T01:16:21Z</time>
      </trkpt>
      <trkpt lat="45.57463" lon="0.02652">
        <ele>58.072</ele>
        <time>2017-03-24T01:16:41Z</time>
      </trkpt>
      <trkpt lat="45.5724" lon="0.02976">
        <ele>58.166</ele>
        <time>2017-03-24T01:17:01Z</time>
      </trkpt>
      <trkpt lat="45.57214" lon="0.03004">
        <ele>58.841</ele>
        <time>2017-03-24T01:17:21Z</time>
      </trkpt>
      <trkpt lat="45.57127" lon="0.03132">
        <ele>57.081</ele>
        <time>2017-03-24T01:17:41Z</time>
      </trkpt>
      <trkpt lat="45.57052" lon="0.03266">
        <ele>59.509</ele>
        <time>2017-03-24T01:18:01Z</time>
      </trkpt>
      <trkpt lat="45.56993" lon="0.03403">
        <ele>63.408</ele>
        <time>2017-03-24T01:18:21Z</time>
      </trkpt>
      <trkpt lat="45.56952" lon="0.0346">
        <ele>66.95</ele>
        <time>2017-03-24T01:18:41Z</time>
      </trkpt>
      <trkpt lat="45.56901" lon="0.03647">
        <ele>68.444</ele>
        <time>2017-03-24T01:19:01Z</time>
      </trkpt>
      <trkpt lat="45.56811" lon="0.03697">
        <ele>70.921</ele>
        <time>2017-03-24T01:19:21Z</time>
      </trkpt>
      <trkpt lat="45.56863" lon="0.03829">
        <ele>71.954</ele>
        <time>2017-03-24T01:19:41Z</time>
      </trkpt>
      <trkpt lat="45.5691" lon="0.03994">
        <ele>70.575</ele>
        <time>2017-03-24T01:20:01Z</time>
      </trkpt>
      <trkpt lat="45.56925" lon="0.04108">
        <ele>67.868</ele>
        <time>2017-03-24T01:20:21Z</time>
      </trkpt>
      <trkpt lat="45.56952" lon="0.0416">
        <ele>65.744</ele>
        <time>2017-03-24T01:20:41Z</time>
      </trkpt>
      <trkpt lat="45.5705" lon="0.04284">
        <ele>55.518</ele>
        <time>2017-03-24T01:21:01Z</time>
      </trkpt>
      <trkpt lat="45.57081" lon="0.04459">
        <ele>53.089</ele>
        <time>2017-03-24T01:21:21Z</time>
      </trkpt>
      <trkpt lat="45.57205" lon="0.04794">
        <ele>56.906</ele>
        <time>2017-03-24T01:21:41Z</time>
      </trkpt>
      <trkpt lat="45.57142" lon="0.04806">
        <ele>58.126</ele>
        <time>2017-03-24T01:22:01Z</time>
      </trkpt>
      <trkpt lat="45.57065" lon="0.04848">
        <ele>59.308</ele>
        <time>2017-03-24T01:22:21Z</time>
      </trkpt>
      <trkpt lat="45.56969" lon="0.05007">
        <ele>58.744</ele>
        <time>2017-03-24T01:22:41Z</time>
      </trkpt>
      <trkpt lat="45.56733" lon="0.05022">
        <ele>81.688</ele>
        <time>2017-03-24T01:23:01Z</time>
      </trkpt>
      <trkpt lat="45.56696" lon="0.05012">
        <ele>83.945</ele>
        <time>2017-03-24T01:23:21Z</time>
      </trkpt>
      <trkpt lat="45.56657" lon="0.05016">
        <ele>83.888</ele>
        <time>2017-03-24T01:23:41Z</time>
      </trkpt>
      <trkpt lat="45.56562" lon="0.05003">
        <ele>71.199</ele>
        <time>2017-03-24T01:24:01Z</time>
      </trkpt>
      <trkpt lat="45.56502" lon="0.05041">
        <ele>70.142</ele>
        <time>2017-03-24T01:24:21Z</time>
      </trkpt>
      <trkpt lat="45.56466" lon="0.05046">
        <ele>66.528</ele>
        <time>2017-03-24T01:24:41Z</time>
      </trkpt>
      <trkpt lat="45.56387" lon="0.05035">
        <ele>65.352</ele>
        <time>2017-03-24T01:25:01Z</time>
      </trkpt>
      <trkpt lat="45.56332" lon="0.05185">
        <ele>75.384</ele>
        <time>2017-03-24T01:25:21Z</time>
      </trkpt>
      <trkpt lat="45.56276" lon="0.05191">
        <ele>78.807</ele>
        <time>2017-03-24T01:25:41Z</time>
      </trkpt>
      <trkpt lat="45.56246" lon="0.05154">
        <ele>76.317</ele>
        <time>2017-03-24T01:26:01Z</time>
      </trkpt>
      <trkpt lat="45.56228" lon="0.05156">
        <ele>77.308</ele>
        <time>2017-03-24T01:26:21Z</time>
      </trkpt>
      <trkpt lat="45.56181" lon="0.0519">
        <ele>82.264</ele>
        <time>2017-03-24T01:26:41Z</time>
      </trkpt>
      <trkpt lat="45.56155" lon="0.0518">
        <ele>80.488</ele>
        <time>2017-03-24T01:27:01Z</time>
      </trkpt>
      <trkpt lat="45.56063" lon="0.05198">
        <ele>73.525</ele>
        <time>2017-03-24T01:27:21Z</time>
      </trkpt>
      <trkpt lat="45.55967" lon="0.05349">
        <ele>77.978</ele>
        <time>2017-03-24T01:27:41Z</time>
      </trkpt>
      <trkpt lat="45.55923" lon="0.05367">
        <ele>75.359</ele>
        <time>2017-03-24T01:28:01Z</time>
      </trkpt>
      <trkpt lat="45.5584" lon="0.05434">
        <ele>79.072</ele>
        <time>2017-03-24T01:28:21Z</time>
      </trkpt>
      <trkpt lat="45.55759" lon="0.05482">
        <ele>78.888</ele>
        <time>2017-03-24T01:28:41Z</time>
      </trkpt>
      <trkpt lat="45.55663" lon="0.05503">
        <ele>73.062</ele>
        <time>2017-03-24T01:29:01Z</time>
      </trkpt>
      <trkpt lat="45.55659" lon="0.05543">
        <ele>75.889</ele>
        <time>2017-03-24T01:29:21Z</time>
      </trkpt>
      <trkpt lat="45.55665" lon="0.05613">
        <ele>79.806</ele>
        <time>2017-03-24T01:29:41Z</time>
      </trkpt>
      <trkpt lat="45.55651" lon="0.05754">
        <ele>83.426</ele>
        <time>2017-03-24T01:30:01Z</time>
      </trkpt>
      <trkpt lat="45.55663" lon="0.05806">
        <ele>88.008</ele>
        <time>2017-03-24T01:30:21Z</time>
      </trkpt>
      <trkpt lat="45.5563" lon="0.05856">
        <ele>87.214</ele>
        <time>2017-03-24T01:30:41Z</time>
      </trkpt>
      <trkpt lat="45.55608" lon="0.05854">
        <ele>82.028</ele>
        <time>2017-03-24T01:31:01Z</time>
      </trkpt>
      <trkpt lat="45.55544" lon="0.0577">
        <ele>71.395</ele>
        <time>2017-03-24T01:31:21Z</time>
      </trkpt>
      <trkpt lat="45.55498" lon="0.0571">
        <ele>81.388</ele>
        <time>2017-03-24T01:31:41Z</time>
      </trkpt>
      <trkpt lat="45.55488" lon="0.0571">
        <ele>83.159</ele>
        <time>2017-03-24T01:32:01Z</time>
      </trkpt>
      <trkpt lat="45.55435" lon="0.05757">
        <ele>87.122</ele>
        <time>2017-03-24T01:32:21Z</time>
      </trkpt>
      <trkpt lat="45.554" lon="0.05761">
        <ele>91.688</ele>
        <time>2017-03-24T01:32:41Z</time>
      </trkpt>
      <trkpt lat="45.55371" lon="0.05752">
        <ele>92.782</ele>
        <time>2017-03-24T01:33:01Z</time>
      </trkpt>
      <trkpt lat="45.55383" lon="0.05804">
        <ele>94.068</ele>
        <time>2017-03-24T01:33:21Z</time>
      </trkpt>
      <trkpt lat="45.55366" lon="0.05828">
        <ele>95.142</ele>
        <time>2017-03-24T01:33:41Z</time>
      </trkpt>
      <trkpt lat="45.55324" lon="0.05857">
        <ele>95.226</ele>
        <time>2017-03-24T01:34:01Z</time>
      </trkpt>
      <trkpt lat="45.55312" lon="0.05884">
        <ele>97.208</ele>
        <time>2017-03-24T01:34:21Z</time>
      </trkpt>
      <trkpt lat="45.55269" lon="0.06043">
        <ele>92.892</ele>
        <time>2017-03-24T01:34:41Z</time>
      </trkpt>
      <trkpt lat="45.55215" lon="0.06159">
        <ele>91.746</ele>
        <time>2017-03-24T01:35:01Z</time>
      </trkpt>
      <trkpt lat="45.55172" lon="0.06193">
        <ele>90.843</ele>
        <time>2017-03-24T01:35:21Z</time>
      </trkpt>
      <trkpt lat="45.55114" lon="0.06294">
        <ele>91.776</ele>
        <time>2017-03-24T01:35:41Z</time>
      </trkpt>
      <trkpt lat="45.55072" lon="0.06361">
        <ele>93.077</ele>
        <time>2017-03-24T01:36:01Z</time>
      </trkpt>
      <trkpt lat="45.55041" lon="0.06371">
        <ele>92.41</ele>
        <time>2017-03-24T01:36:21Z</time>
      </trkpt>
      <trkpt lat="45.55008" lon="0.06368">
        <ele>95.126</ele>
        <time>2017-03-24T01:36:41Z</time>
      </trkpt>
      <trkpt lat="45.54948" lon="0.06441">
        <ele>95.72</ele>
        <time>2017-03-24T01:37:01Z</time>
      </trkpt>
      <trkpt lat="45.54896" lon="0.06457">
        <ele>94.737</ele>
        <time>2017-03-24T01:37:21Z</time>
      </trkpt>
      <trkpt lat="45.54867" lon="0.06454">
        <ele>96.349</ele>
        <time>2017-03-24T01:37:41Z</time>
      </trkpt>
      <trkpt lat="45.54816" lon="0.06511">
        <ele>92.013</ele>
        <time>2017-03-24T01:38:01Z</time>
      </trkpt>
      <trkpt lat="45.54813" lon="0.06541">
        <ele>90.808</ele>
        <time>2017-03-24T01:38:21Z</time>
      </trkpt>
      <trkpt lat="45.54796" lon="0.06563">
        <ele>92.469</ele>
        <time>2017-03-24T01:38:41Z</time>
      </trkpt>
      <trkpt lat="45.54709" lon="0.06611">
        <ele>102.073</ele>
        <time>2017-03-24T01:39:01Z</time>
      </trkpt>
      <trkpt lat="45.54712" lon="0.06563">
        <ele>105.05</ele>
        <time>2017-03-24T01:39:21Z</time>
      </trkpt>
      <trkpt lat="45.54701" lon="0.06532">
        <ele>105.833</ele>
        <time>2017-03-24T01:39:41Z</time>
      </trkpt>
      <trkpt lat="45.5468" lon="0.06507">
        <ele>106.574</ele>
        <time>2017-03-24T01:40:01Z</time>
      </trkpt>
      <trkpt lat="45.54635" lon="0.065">
        <ele>108.387</ele>
        <time>2017-03-24T01:40:21Z</time>
      </trkpt>
      <trkpt lat="45.54592" lon="0.06515">
        <ele>111.553</ele>
        <time>2017-03-24T01:40:41Z</time>
      </trkpt>
      <trkpt lat="45.54507" lon="0.065">
        <ele>122.087</ele>
        <time>2017-03-24T01:41:01Z</time>
      </trkpt>
      <trkpt lat="45.54495" lon="0.066">
        <ele>116.316</ele>
        <time>2017-03-24T01:41:21Z</time>
      </trkpt>
      <trkpt lat="45.54493" lon="0.0667">
        <ele>112.076</ele>
        <time>2017-03-24T01:41:41Z</time>
      </trkpt>
      <trkpt lat="45.54507" lon="0.06707">
        <ele>107.713</ele>
        <time>2017-03-24T01:42:01Z</time>
      </trkpt>
      <trkpt lat="45.54508" lon="0.06743">
        <ele>107.408</ele>
        <time>2017-03-24T01:42:21Z</time>
      </trkpt>
      <trkpt lat="45.54501" lon="0.0679">
        <ele>106.037</ele>
        <time>2017-03-24T01:42:41Z</time>
      </trkpt>
      <trkpt lat="45.54483" lon="0.06847">
        <ele>101.341</ele>
        <time>2017-03-24T01:43:01Z</time>
      </trkpt>
      <trkpt lat="45.54516" lon="0.06916">
        <ele>92.068</ele>
        <time>2017-03-24T01:43:21Z</time>
      </trkpt>
      <trkpt lat="45.54537" lon="0.06936">
        <ele>90.241</ele>
        <time>2017-03-24T01:43:41Z</time>
      </trkpt>
      <trkpt lat="45.54565" lon="0.06942">
        <ele>89.172</ele>
        <time>2017-03-24T01:44:01Z</time>
      </trkpt>
      <trkpt lat="45.54576" lon="0.07022">
        <ele>93.035</ele>
        <time>2017-03-24T01:44:21Z</time>
      </trkpt>
      <trkpt lat="45.54551" lon="0.07077">
        <ele>95.371</ele>
        <time>2017-03-24T01:44:41Z</time>
      </trkpt>
      <trkpt lat="45.54526" lon="0.071">
        <ele>97.915</ele>
        <time>2017-03-24T01:45:01Z</time>
      </trkpt>
      <trkpt lat="45.54496" lon="0.07137">
        <ele>106.238</ele>
        <time>2017-03-24T01:45:21Z</time>
      </trkpt>
      <trkpt lat="45.54539" lon="0.07219">
        <ele>120.17</ele>
        <time>2017-03-24T01:45:41Z</time>
      </trkpt>
      <trkpt lat="45.54557" lon="0.07227">
        <ele>121.417</ele>
        <time>2017-03-24T01:46:01Z</time>
      </trkpt>
      <trkpt lat="45.54553" lon="0.07254">
        <ele>123.108</ele>
        <time>2017-03-24T01:46:21Z</time>
      </trkpt>
      <trkpt lat="45.54557" lon="0.0728">
        <ele>124.299</ele>
        <time>2017-03-24T01:46:41Z</time>
      </trkpt>
      <trkpt lat="45.54578" lon="0.07305">
        <ele>127.443</ele>
        <time>2017-03-24T01:47:01Z</time>
      </trkpt>
      <trkpt lat="45.54589" lon="0.07354">
        <ele>129.94</ele>
        <time>2017-03-24T01:47:21Z</time>
      </trkpt>
      <trkpt lat="45.54599" lon="0.07444">
        <ele>132.293</ele>
        <time>2017-03-24T01:47:41Z</time>
      </trkpt>
      <trkpt lat="45.54605" lon="0.07577">
        <ele>132.584</ele>
        <time>2017-03-24T01:48:01Z</time>
      </trkpt>
      <trkpt lat="45.54596" lon="0.07688">
        <ele>136.777</ele>
        <time>2017-03-24T01:48:21Z</time>
      </trkpt>
      <trkpt lat="45.54575" lon="0.07845">
        <ele>140.193</ele>
        <time>2017-03-24T01:48:41Z</time>
      </trkpt>
      <trkpt lat="45.54508" lon="0.08044">
        <ele>132.637</ele>
        <time>2017-03-24T01:49:01Z</time>
      </trkpt>
      <trkpt lat="45.54482" lon="0.08141">
        <ele>133.468</ele>
        <time>2017-03-24T01:49:21Z</time>
      </trkpt>
      <trkpt lat="45.54399" lon="0.0825">
        <ele>128.042</ele>
        <time>2017-03-24T01:49:41Z</time>
      </trkpt>
      <trkpt lat="45.54375" lon="0.0827">
        <ele>125.326</ele>
        <time>2017-03-24T01:50:01Z</time>
      </trkpt>
      <trkpt lat="45.54347" lon="0.08307">
        <ele>122.508</ele>
        <time>2017-03-24T01:50:21Z</time>
      </trkpt>
      <trkpt lat="45.54335" lon="0.08338">
        <ele>121.532</ele>
        <time>2017-03-24T01:50:41Z</time>
      </trkpt>
      <trkpt lat="45.54335" lon="0.08338">
        <ele>121.586</ele>
        <time>2017-03-24T01:51:01Z</time>
      </trkpt>
      <trkpt lat="45.54309" lon="0.0838">
        <ele>120.623</ele>
        <time>2017-03-24T01:51:21Z</time>
      </trkpt>
      <trkpt lat="45.54345" lon="0.08399">
        <ele>125.076</ele>
        <time>2017-03-24T01:51:41Z</time>
      </trkpt>
      <trkpt lat="45.54488" lon="0.0841">
        <ele>139.447</ele>
        <time>2017-03-24T01:52:01Z</time>
      </trkpt>
      <trkpt lat="45.54488" lon="0.0853">
        <ele>142.73</ele>
        <time>2017-03-24T01:52:21Z</time>
      </trkpt>
      <trkpt lat="45.54522" lon="0.08657">
        <ele>144.896</ele>
        <time>2017-03-24T01:52:41Z</time>
      </trkpt>
      <trkpt lat="45.54449" lon="0.08734">
        <ele>141.37</ele>
        <time>2017-03-24T01:53:01Z</time>
      </trkpt>
      <trkpt lat="45.54383" lon="0.08949">
        <ele>140.667</ele>
        <time>2017-03-24T01:53:21Z</time>
      </trkpt>
      <trkpt lat="45.54376" lon="0.08989">
        <ele>141.381</ele>
        <time>2017-03-24T01:53:41Z</time>
      </trkpt>
      <trkpt lat="45.5433" lon="0.09125">
        <ele>141.919</ele>
        <time>2017-03-24T01:54:01Z</time>
      </trkpt>
      <trkpt lat="45.54288" lon="0.09183">
        <ele>141.708</ele>
        <time>2017-03-24T01:54:21Z</time>
      </trkpt>
      <trkpt lat="45.54205" lon="0.09268">
        <ele>141.162</ele>
        <time>2017-03-24T01:54:41Z</time>
      </trkpt>
      <trkpt lat="45.54304" lon="0.09331">
        <ele>143.976</ele>
        <time>2017-03-24T01:55:01Z</time>
      </trkpt>
      <trkpt lat="45.54378" lon="0.09361">
        <ele>147.653</ele>
        <time>2017-03-24T01:55:21Z</time>
      </trkpt>
      <trkpt lat="45.54569" lon="0.09217">
        <ele>145.626</ele>
        <time>2017-03-24T01:55:41Z</time>
      </trkpt>
      <trkpt lat="45.54584" lon="0.09251">
        <ele>146.167</ele>
        <time>2017-03-24T01:56:01Z</time>
      </trkpt>
      <trkpt lat="45.5463" lon="0.09148">
        <ele>147.06</ele>
        <time>2017-03-24T01:56:21Z</time>
      </trkpt>
      <trkpt lat="45.54676" lon="0.09157">
        <ele>147.626</ele>
        <time>2017-03-24T01:56:41Z</time>
      </trkpt>
      <trkpt lat="45.54737" lon="0.09152">
        <ele>147.01</ele>
        <time>2017-03-24T01:57:01Z</time>
      </trkpt>
      <trkpt lat="45.54838" lon="0.09155">
        <ele>144.865</ele>
        <time>2017-03-24T01:57:21Z</time>
      </trkpt>
      <trkpt lat="45.54923" lon="0.0918">
        <ele>142.868</ele>
        <time>2017-03-24T01:57:41Z</time>
      </trkpt>
      <trkpt lat="45.54984" lon="0.09232">
        <ele>140.214</ele>
        <time>2017-03-24T01:58:01Z</time>
      </trkpt>
      <trkpt lat="45.55012" lon="0.09283">
        <ele>136.708</ele>
        <time>2017-03-24T01:58:21Z</time>
      </trkpt>
      <trkpt lat="45.55038" lon="0.09361">
        <ele>132.072</ele>
        <time>2017-03-24T01:58:41Z</time>
      </trkpt>
      <trkpt lat="45.55075" lon="0.09419">
        <ele>128.536</ele>
        <time>2017-03-24T01:59:01Z</time>
      </trkpt>
      <trkpt lat="45.55206" lon="0.09556">
        <ele>119.663</ele>
        <time>2017-03-24T01:59:21Z</time>
      </trkpt>
      <trkpt lat="45.55275" lon="0.09601">
        <ele>116.126</ele>
        <time>2017-03-24T01:59:41Z</time>
      </trkpt>
      <trkpt lat="45.55364" lon="0.0968">
        <ele>114.417</ele>
        <time>2017-03-24T02:00:01Z</time>
      </trkpt>
      <trkpt lat="45.55326" lon="0.09824">
        <ele>117.87</ele>
        <time>2017-03-24T02:00:21Z</time>
      </trkpt>
      <trkpt lat="45.55513" lon="0.09922">
        <ele>113.826</ele>
        <time>2017-03-24T02:00:41Z</time>
      </trkpt>
      <trkpt lat="45.55535" lon="0.09924">
        <ele>113.51</ele>
        <time>2017-03-24T02:01:01Z</time>
      </trkpt>
      <trkpt lat="45.55569" lon="0.09913">
        <ele>114.163</ele>
        <time>2017-03-24T02:01:21Z</time>
      </trkpt>
      <trkpt lat="45.55619" lon="0.09911">
        <ele>111.644</ele>
        <time>2017-03-24T02:01:41Z</time>
      </trkpt>
      <trkpt lat="45.55665" lon="0.09935">
        <ele>109.318</ele>
        <time>2017-03-24T02:02:01Z</time>
      </trkpt>
      <trkpt lat="45.55711" lon="0.09976">
        <ele>107.808</ele>
        <time>2017-03-24T02:02:21Z</time>
      </trkpt>
      <trkpt lat="45.55731" lon="0.10007">
        <ele>105.722</ele>
        <time>2017-03-24T02:02:41Z</time>
      </trkpt>
      <trkpt lat="45.55749" lon="0.10012">
        <ele>105.256</ele>
        <time>2017-03-24T02:03:01Z</time>
      </trkpt>
      <trkpt lat="45.55769" lon="0.10036">
        <ele>103.933</ele>
        <time>2017-03-24T02:03:21Z</time>
      </trkpt>
      <trkpt lat="45.55864" lon="0.10092">
        <ele>92.216</ele>
        <time>2017-03-24T02:03:41Z</time>
      </trkpt>
      <trkpt lat="45.5594" lon="0.1015">
        <ele>82.147</ele>
        <time>2017-03-24T02:04:01Z</time>
      </trkpt>
      <trkpt lat="45.55972" lon="0.10157">
        <ele>80.77</ele>
        <time>2017-03-24T02:04:21Z</time>
      </trkpt>
      <trkpt lat="45.55977" lon="0.10166">
        <ele>79.286</ele>
        <time>2017-03-24T02:04:41Z</time>
      </trkpt>
      <trkpt lat="45.55972" lon="0.10189">
        <ele>78.47</ele>
        <time>2017-03-24T02:05:01Z</time>
      </trkpt>
      <trkpt lat="45.55912" lon="0.10272">
        <ele>67.694</ele>
        <time>2020-11-19T01:27:45Z</time>
      </trkpt>
      <trkpt lat="45.55945" lon="0.10308">
        <ele>66.157</ele>
        <time>2020-11-19T01:28:05Z</time>
      </trkpt>
      <trkpt lat="45.56012" lon="0.10206">
        <ele>71.722</ele>
        <time>2017-03-24T02:05:21Z</time>
      </trkpt>
      <trkpt lat="45.56042" lon="0.10066">
        <ele>74.408</ele>
        <time>2017-03-24T02:05:41Z</time>
      </trkpt>
      <trkpt lat="45.56118" lon="0.10087">
        <ele>64.415</ele>
        <time>2017-03-24T02:06:01Z</time>
      </trkpt>
      <trkpt lat="45.56212" lon="0.10135">
        <ele>63.549</ele>
        <time>2017-03-24T02:06:21Z</time>
      </trkpt>
      <trkpt lat="45.5628" lon="0.10184">
        <ele>62.336</ele>
        <time>2017-03-24T02:06:41Z</time>
      </trkpt>
      <trkpt lat="45.56338" lon="0.10207">
        <ele>61.629</ele>
        <time>2017-03-24T02:07:01Z</time>
      </trkpt>
      <trkpt lat="45.56361" lon="0.10222">
        <ele>62.04</ele>
        <time>2017-03-24T02:07:21Z</time>
      </trkpt>
      <trkpt lat="45.5634" lon="0.10261">
        <ele>61.483</ele>
        <time>2017-03-24T02:07:41Z</time>
      </trkpt>
      <trkpt lat="45.56338" lon="0.103">
        <ele>60.099</ele>
        <time>2017-03-24T02:08:01Z</time>
      </trkpt>
      <trkpt lat="45.56332" lon="0.10328">
        <ele>60.093</ele>
        <time>2017-03-24T02:08:21Z</time>
      </trkpt>
      <trkpt lat="45.56335" lon="0.10366">
        <ele>60.876</ele>
        <time>2017-03-24T02:08:41Z</time>
      </trkpt>
      <trkpt lat="45.56327" lon="0.10512">
        <ele>60.99</ele>
        <time>2017-03-24T02:09:01Z</time>
      </trkpt>
      <trkpt lat="45.56297" lon="0.10724">
        <ele>62.119</ele>
        <time>2017-03-24T02:09:21Z</time>
      </trkpt>
      <trkpt lat="45.56271" lon="0.10838">
        <ele>63.608</ele>
        <time>2017-03-24T02:09:41Z</time>
      </trkpt>
      <trkpt lat="45.56257" lon="0.10931">
        <ele>61.063</ele>
        <time>2017-03-24T02:10:01Z</time>
      </trkpt>
      <trkpt lat="45.56209" lon="0.11171">
        <ele>60.747</ele>
        <time>2017-03-24T02:10:21Z</time>
      </trkpt>
      <trkpt lat="45.56195" lon="0.11286">
        <ele>62.064</ele>
        <time>2017-03-24T02:10:41Z</time>
      </trkpt>
      <trkpt lat="45.56149" lon="0.1153">
        <ele>60.167</ele>
        <time>2017-03-24T02:11:01Z</time>
      </trkpt>
      <trkpt lat="45.56163" lon="0.11611">
        <ele>61.068</ele>
        <time>2017-03-24T02:11:21Z</time>
      </trkpt>
      <trkpt lat="45.56132" lon="0.11679">
        <ele>62.481</ele>
        <time>2017-03-24T02:11:41Z</time>
      </trkpt>
      <trkpt lat="45.56121" lon="0.11692">
        <ele>62.767</ele>
        <time>2017-03-24T02:12:01Z</time>
      </trkpt>
      <trkpt lat="45.56084" lon="0.11809">
        <ele>64.111</ele>
        <time>2017-03-24T02:12:21Z</time>
      </trkpt>
      <trkpt lat="45.56061" lon="0.1191">
        <ele>65.524</ele>
        <time>2017-03-24T02:12:41Z</time>
      </trkpt>
      <trkpt lat="45.56051" lon="0.11933">
        <ele>66.204</ele>
        <time>2017-03-24T02:13:01Z</time>
      </trkpt>
      <trkpt lat="45.55958" lon="0.11984">
        <ele>66.514</ele>
        <time>2017-03-24T02:13:21Z</time>
      </trkpt>
      <trkpt lat="45.55927" lon="0.12068">
        <ele>72.508</ele>
        <time>2017-03-24T02:13:41Z</time>
      </trkpt>
      <trkpt lat="45.55894" lon="0.12103">
        <ele>76.578</ele>
        <time>2017-03-24T02:14:01Z</time>
      </trkpt>
      <trkpt lat="45.55865" lon="0.12106">
        <ele>76.832</ele>
        <time>2017-03-24T02:14:21Z</time>
      </trkpt>
      <trkpt lat="45.55795" lon="0.12056">
        <ele>80.019</ele>
        <time>2017-03-24T02:14:41Z</time>
      </trkpt>
      <trkpt lat="45.55745" lon="0.1204">
        <ele>79.032</ele>
        <time>2017-03-24T02:15:01Z</time>
      </trkpt>
      <trkpt lat="45.55694" lon="0.12047">
        <ele>80.473</ele>
        <time>2017-03-24T02:15:21Z</time>
      </trkpt>
      <trkpt lat="45.55654" lon="0.12066">
        <ele>78.786</ele>
        <time>2017-03-24T02:15:41Z</time>
      </trkpt>
      <trkpt lat="45.55612" lon="0.1212">
        <ele>78.372</ele>
        <time>2017-03-24T02:16:01Z</time>
      </trkpt>
      <trkpt lat="45.55577" lon="0.12194">
        <ele>76.366</ele>
        <time>2017-03-24T02:16:21Z</time>
      </trkpt>
      <trkpt lat="45.55571" lon="0.12263">
        <ele>73.594</ele>
        <time>2017-03-24T02:16:41Z</time>
      </trkpt>
      <trkpt lat="45.5556" lon="0.12279">
        <ele>70.557</ele>
        <time>2017-03-23T18:43:24Z</time>
      </trkpt>
      <trkpt lat="45.5556" lon="0.12279">
        <ele>70.522</ele>
        <time>2017-03-23T18:43:24Z</time>
      </trkpt>
      <trkpt lat="45.55592" lon="0.12515">
        <ele>75.808</ele>
        <time>2017-03-23T18:43:44Z</time>
      </trkpt>
      <trkpt lat="45.55581" lon="0.12628">
        <ele>73.055</ele>
        <time>2017-03-23T18:44:04Z</time>
      </trkpt>
      <trkpt lat="45.5564" lon="0.12684">
        <ele>81.329</ele>
        <time>2017-03-23T18:44:24Z</time>
      </trkpt>
      <trkpt lat="45.55659" lon="0.12714">
        <ele>84.416</ele>
        <time>2017-03-23T18:44:44Z</time>
      </trkpt>
      <trkpt lat="45.55708" lon="0.12672">
        <ele>94.589</ele>
        <time>2017-03-23T18:45:04Z</time>
      </trkpt>
      <trkpt lat="45.55735" lon="0.12661">
        <ele>96.95</ele>
        <time>2017-03-23T18:45:24Z</time>
      </trkpt>
      <trkpt lat="45.55758" lon="0.12683">
        <ele>97.953</ele>
        <time>2017-03-23T18:45:44Z</time>
      </trkpt>
      <trkpt lat="45.5581" lon="0.12724">
        <ele>100.029</ele>
        <time>2017-03-23T18:46:04Z</time>
      </trkpt>
      <trkpt lat="45.5586" lon="0.12799">
        <ele>102.773</ele>
        <time>2017-03-23T18:46:24Z</time>
      </trkpt>
      <trkpt lat="45.55922" lon="0.12773">
        <ele>102.663</ele>
        <time>2017-03-23T18:46:44Z</time>
      </trkpt>
      <trkpt lat="45.56035" lon="0.12735">
        <ele>101.344</ele>
        <time>2017-03-23T18:47:04Z</time>
      </trkpt>
      <trkpt lat="45.56065" lon="0.12812">
        <ele>105.718</ele>
        <time>2017-03-23T18:47:24Z</time>
      </trkpt>
      <trkpt lat="45.56099" lon="0.12833">
        <ele>110.208</ele>
        <time>2017-03-23T18:47:44Z</time>
      </trkpt>
      <trkpt lat="45.56108" lon="0.12779">
        <ele>108.882</ele>
        <time>2017-03-23T18:48:04Z</time>
      </trkpt>
      <trkpt lat="45.56109" lon="0.12705">
        <ele>105.246</ele>
        <time>2017-03-23T18:48:24Z</time>
      </trkpt>
      <trkpt lat="45.56096" lon="0.12493">
        <ele>106.583</ele>
        <time>2017-03-23T18:48:44Z</time>
      </trkpt>
      <trkpt lat="45.56423" lon="0.12596">
        <ele>127.276</ele>
        <time>2017-03-23T18:49:04Z</time>
      </trkpt>
      <trkpt lat="45.56457" lon="0.12526">
        <ele>127.567</ele>
        <time>2017-03-23T18:49:24Z</time>
      </trkpt>
      <trkpt lat="45.56483" lon="0.12441">
        <ele>123.53</ele>
        <time>2017-03-23T18:49:44Z</time>
      </trkpt>
      <trkpt lat="45.56539" lon="0.12369">
        <ele>118.366</ele>
        <time>2017-03-23T18:50:04Z</time>
      </trkpt>
      <trkpt lat="45.56619" lon="0.12227">
        <ele>110.53</ele>
        <time>2017-03-23T18:50:24Z</time>
      </trkpt>
      <trkpt lat="45.56568" lon="0.12166">
        <ele>108.536</ele>
        <time>2017-03-23T18:50:44Z</time>
      </trkpt>
      <trkpt lat="45.56531" lon="0.12151">
        <ele>108.417</ele>
        <time>2017-03-23T18:51:04Z</time>
      </trkpt>
      <trkpt lat="45.56451" lon="0.12146">
        <ele>111.018</ele>
        <time>2017-03-23T18:51:24Z</time>
      </trkpt>
      <trkpt lat="45.56478" lon="0.12107">
        <ele>109.208</ele>
        <time>2017-03-23T18:51:44Z</time>
      </trkpt>
      <trkpt lat="45.56507" lon="0.12083">
        <ele>108.029</ele>
        <time>2017-03-23T18:52:04Z</time>
      </trkpt>
      <trkpt lat="45.56538" lon="0.12047">
        <ele>106.883</ele>
        <time>2017-03-23T18:52:24Z</time>
      </trkpt>
      <trkpt lat="45.56587" lon="0.12014">
        <ele>105.32</ele>
        <time>2017-03-23T18:52:44Z</time>
      </trkpt>
      <trkpt lat="45.56633" lon="0.11972">
        <ele>102.253</ele>
        <time>2017-03-23T18:53:04Z</time>
      </trkpt>
      <trkpt lat="45.56672" lon="0.11951">
        <ele>101.064</ele>
        <time>2017-03-23T18:53:24Z</time>
      </trkpt>
      <trkpt lat="45.56695" lon="0.11929">
        <ele>101.097</ele>
        <time>2017-03-23T18:53:44Z</time>
      </trkpt>
      <trkpt lat="45.56827" lon="0.11906">
        <ele>97.273</ele>
        <time>2017-03-23T18:54:04Z</time>
      </trkpt>
      <trkpt lat="45.56923" lon="0.11845">
        <ele>101.047</ele>
        <time>2017-03-23T18:54:24Z</time>
      </trkpt>
      <trkpt lat="45.56923" lon="0.1181">
        <ele>100.426</ele>
        <time>2017-03-23T18:54:44Z</time>
      </trkpt>
      <trkpt lat="45.56941" lon="0.11729">
        <ele>99.147</ele>
        <time>2017-03-23T18:55:04Z</time>
      </trkpt>
      <trkpt lat="45.56969" lon="0.11698">
        <ele>100.011</ele>
        <time>2017-03-23T18:55:24Z</time>
      </trkpt>
      <trkpt lat="45.57023" lon="0.11692">
        <ele>100.608</ele>
        <time>2017-03-23T18:55:44Z</time>
      </trkpt>
      <trkpt lat="45.57035" lon="0.11623">
        <ele>101.428</ele>
        <time>2017-03-23T18:56:04Z</time>
      </trkpt>
      <trkpt lat="45.57052" lon="0.11579">
        <ele>101.042</ele>
        <time>2017-03-23T18:56:24Z</time>
      </trkpt>
      <trkpt lat="45.5706" lon="0.11542">
        <ele>100.889</ele>
        <time>2017-03-23T18:56:44Z</time>
      </trkpt>
      <trkpt lat="45.57078" lon="0.11546">
        <ele>99.972</ele>
        <time>2017-03-23T18:57:04Z</time>
      </trkpt>
      <trkpt lat="45.57149" lon="0.11589">
        <ele>101.693</ele>
        <time>2017-03-23T18:57:24Z</time>
      </trkpt>
      <trkpt lat="45.5717" lon="0.11614">
        <ele>99.676</ele>
        <time>2017-03-23T18:57:44Z</time>
      </trkpt>
      <trkpt lat="45.57201" lon="0.11668">
        <ele>99.252</ele>
        <time>2017-03-23T18:58:04Z</time>
      </trkpt>
      <trkpt lat="45.57217" lon="0.1172">
        <ele>100.646</ele>
        <time>2017-03-23T18:58:24Z</time>
      </trkpt>
      <trkpt lat="45.57237" lon="0.11751">
        <ele>102.558</ele>
        <time>2017-03-23T18:58:44Z</time>
      </trkpt>
      <trkpt lat="45.57257" lon="0.11805">
        <ele>104.552</ele>
        <time>2017-03-23T18:59:04Z</time>
      </trkpt>
      <trkpt lat="45.57277" lon="0.11832">
        <ele>103.017</ele>
        <time>2017-03-23T18:59:24Z</time>
      </trkpt>
      <trkpt lat="45.57304" lon="0.11848">
        <ele>101.608</ele>
        <time>2017-03-23T18:59:44Z</time>
      </trkpt>
      <trkpt lat="45.57338" lon="0.11841">
        <ele>100.551</ele>
        <time>2017-03-23T19:00:04Z</time>
      </trkpt>
      <trkpt lat="45.57379" lon="0.1186">
        <ele>103.245</ele>
        <time>2017-03-23T19:00:24Z</time>
      </trkpt>
      <trkpt lat="45.57397" lon="0.11879">
        <ele>104.752</ele>
        <time>2017-03-23T19:00:44Z</time>
      </trkpt>
      <trkpt lat="45.57397" lon="0.11879">
        <ele>104.775</ele>
        <time>2017-03-23T19:01:04Z</time>
      </trkpt>
      <trkpt lat="45.5761" lon="0.11873">
        <ele>107.416</ele>
        <time>2017-03-23T19:01:24Z</time>
      </trkpt>
      <trkpt lat="45.57643" lon="0.11852">
        <ele>106.679</ele>
        <time>2017-03-23T19:01:44Z</time>
      </trkpt>
      <trkpt lat="45.57655" lon="0.11833">
        <ele>106.055</ele>
        <time>2017-03-23T19:02:04Z</time>
      </trkpt>
      <trkpt lat="45.5771" lon="0.11783">
        <ele>105.049</ele>
        <time>2017-03-23T19:02:24Z</time>
      </trkpt>
      <trkpt lat="45.5779" lon="0.11749">
        <ele>102.949</ele>
        <time>2017-03-23T19:02:44Z</time>
      </trkpt>
      <trkpt lat="45.57886" lon="0.11695">
        <ele>103.602</ele>
        <time>2017-03-23T19:03:04Z</time>
      </trkpt>
      <trkpt lat="45.57918" lon="0.1167">
        <ele>101.222</ele>
        <time>2017-03-23T19:03:24Z</time>
      </trkpt>
      <trkpt lat="45.57945" lon="0.11663">
        <ele>100.108</ele>
        <time>2017-03-23T19:03:44Z</time>
      </trkpt>
      <trkpt lat="45.57957" lon="0.11723">
        <ele>103.52</ele>
        <time>2017-03-23T19:04:04Z</time>
      </trkpt>
      <trkpt lat="45.57984" lon="0.11794">
        <ele>107.444</ele>
        <time>2017-03-23T19:04:24Z</time>
      </trkpt>
      <trkpt lat="45.58145" lon="0.11784">
        <ele>110.661</ele>
        <time>2017-03-23T19:04:44Z</time>
      </trkpt>
      <trkpt lat="45.5824" lon="0.11741">
        <ele>113.874</ele>
        <time>2017-03-23T19:05:04Z</time>
      </trkpt>
      <trkpt lat="45.58268" lon="0.11718">
        <ele>114.675</ele>
        <time>2017-03-23T19:05:24Z</time>
      </trkpt>
      <trkpt lat="45.58334" lon="0.117">
        <ele>116.068</ele>
        <time>2017-03-23T19:05:44Z</time>
      </trkpt>
      <trkpt lat="45.58413" lon="0.11724">
        <ele>117.814</ele>
        <time>2017-03-23T19:06:04Z</time>
      </trkpt>
      <trkpt lat="45.58567" lon="0.11794">
        <ele>112.658</ele>
        <time>2017-03-23T19:06:24Z</time>
      </trkpt>
      <trkpt lat="45.58672" lon="0.11827">
        <ele>114.449</ele>
        <time>2017-03-23T19:06:44Z</time>
      </trkpt>
      <trkpt lat="45.58728" lon="0.11855">
        <ele>115.202</ele>
        <time>2017-03-23T19:07:04Z</time>
      </trkpt>
      <trkpt lat="45.58793" lon="0.11859">
        <ele>113.122</ele>
        <time>2017-03-23T19:07:24Z</time>
      </trkpt>
      <trkpt lat="45.58893" lon="0.11878">
        <ele>111.508</ele>
        <time>2017-03-23T19:07:44Z</time>
      </trkpt>
      <trkpt lat="45.59041" lon="0.11887">
        <ele>109.62</ele>
        <time>2017-03-23T19:08:04Z</time>
      </trkpt>
      <trkpt lat="45.59084" lon="0.11897">
        <ele>109.044</ele>
        <time>2017-03-23T19:08:24Z</time>
      </trkpt>
      <trkpt lat="45.5913" lon="0.11921">
        <ele>111.751</ele>
        <time>2017-03-23T19:08:44Z</time>
      </trkpt>
      <trkpt lat="45.59165" lon="0.11943">
        <ele>111.124</ele>
        <time>2017-03-23T19:09:04Z</time>
      </trkpt>
      <trkpt lat="45.59239" lon="0.11923">
        <ele>115.075</ele>
        <time>2017-03-23T19:09:24Z</time>
      </trkpt>
      <trkpt lat="45.59265" lon="0.11928">
        <ele>115.858</ele>
        <time>2017-03-23T19:09:44Z</time>
      </trkpt>
      <trkpt lat="45.59533" lon="0.11882">
        <ele>116.064</ele>
        <time>2017-03-23T19:10:04Z</time>
      </trkpt>
      <trkpt lat="45.59657" lon="0.11889">
        <ele>116.718</ele>
        <time>2017-03-23T19:10:24Z</time>
      </trkpt>
      <trkpt lat="45.59699" lon="0.11899">
        <ele>115.516</ele>
        <time>2017-03-23T19:10:44Z</time>
      </trkpt>
      <trkpt lat="45.5981" lon="0.1189">
        <ele>114.976</ele>
        <time>2017-03-23T19:11:04Z</time>
      </trkpt>
      <trkpt lat="45.59894" lon="0.11909">
        <ele>115.413</ele>
        <time>2017-03-23T19:11:24Z</time>
      </trkpt>
      <trkpt lat="45.5997" lon="0.11944">
        <ele>111.108</ele>
        <time>2017-03-23T19:11:44Z</time>
      </trkpt>
      <trkpt lat="45.60013" lon="0.11983">
        <ele>111.247</ele>
        <time>2017-03-23T19:12:04Z</time>
      </trkpt>
      <trkpt lat="45.6003" lon="0.11988">
        <ele>111.061</ele>
        <time>2017-03-23T19:12:24Z</time>
      </trkpt>
      <trkpt lat="45.60098" lon="0.11991">
        <ele>107.318</ele>
        <time>2017-03-23T19:12:44Z</time>
      </trkpt>
      <trkpt lat="45.60092" lon="0.12114">
        <ele>110.471</ele>
        <time>2017-03-23T19:13:04Z</time>
      </trkpt>
      <trkpt lat="45.60102" lon="0.12245">
        <ele>112.462</ele>
        <time>2017-03-23T19:13:24Z</time>
      </trkpt>
      <trkpt lat="45.60095" lon="0.12307">
        <ele>116.285</ele>
        <time>2017-03-23T19:13:44Z</time>
      </trkpt>
      <trkpt lat="45.60062" lon="0.12466">
        <ele>123.431</ele>
        <time>2017-03-23T19:14:04Z</time>
      </trkpt>
      <trkpt lat="45.60085" lon="0.1256">
        <ele>124.225</ele>
        <time>2017-03-23T19:14:24Z</time>
      </trkpt>
      <trkpt lat="45.60115" lon="0.12599">
        <ele>123.334</ele>
        <time>2017-03-23T19:14:44Z</time>
      </trkpt>
      <trkpt lat="45.60068" lon="0.1303">
        <ele>129.355</ele>
        <time>2017-03-23T19:15:04Z</time>
      </trkpt>
      <trkpt lat="45.60051" lon="0.13074">
        <ele>131.81</ele>
        <time>2017-03-23T19:15:24Z</time>
      </trkpt>
      <trkpt lat="45.60048" lon="0.13141">
        <ele>133.308</ele>
        <time>2017-03-23T19:15:44Z</time>
      </trkpt>
      <trkpt lat="45.60066" lon="0.13152">
        <ele>132.479</ele>
        <time>2017-03-23T19:16:04Z</time>
      </trkpt>
      <trkpt lat="45.60043" lon="0.13231">
        <ele>131.643</ele>
        <time>2017-03-23T19:16:24Z</time>
      </trkpt>
      <trkpt lat="45.60029" lon="0.1325">
        <ele>132.93</ele>
        <time>2017-03-23T19:16:44Z</time>
      </trkpt>
      <trkpt lat="45.60032" lon="0.1328">
        <ele>132.923</ele>
        <time>2017-03-23T19:17:04Z</time>
      </trkpt>
      <trkpt lat="45.60047" lon="0.13328">
        <ele>131.514</ele>
        <time>2017-03-23T19:17:24Z</time>
      </trkpt>
      <trkpt lat="45.60126" lon="0.13399">
        <ele>127.937</ele>
        <time>2017-03-23T19:17:44Z</time>
      </trkpt>
      <trkpt lat="45.60184" lon="0.13511">
        <ele>122.213</ele>
        <time>2017-03-23T19:18:04Z</time>
      </trkpt>
      <trkpt lat="45.60172" lon="0.13648">
        <ele>112.897</ele>
        <time>2017-03-23T19:18:24Z</time>
      </trkpt>
      <trkpt lat="45.60184" lon="0.13756">
        <ele>101.319</ele>
        <time>2017-03-23T19:18:44Z</time>
      </trkpt>
      <trkpt lat="45.60209" lon="0.13885">
        <ele>88.209</ele>
        <time>2017-03-23T19:19:04Z</time>
      </trkpt>
      <trkpt lat="45.60221" lon="0.13885">
        <ele>87.019</ele>
        <time>2017-03-23T19:19:24Z</time>
      </trkpt>
      <trkpt lat="45.6023" lon="0.13891">
        <ele>84.808</ele>
        <time>2017-03-23T19:19:44Z</time>
      </trkpt>
      <trkpt lat="45.60237" lon="0.13888">
        <ele>84.737</ele>
        <time>2017-03-23T19:20:04Z</time>
      </trkpt>
      <trkpt lat="45.60265" lon="0.13897">
        <ele>81.351</ele>
        <time>2017-03-23T19:20:24Z</time>
      </trkpt>
      <trkpt lat="45.60301" lon="0.13893">
        <ele>80.398</ele>
        <time>2017-03-23T19:20:44Z</time>
      </trkpt>
      <trkpt lat="45.60331" lon="0.13902">
        <ele>74.671</ele>
        <time>2017-03-23T19:21:04Z</time>
      </trkpt>
      <trkpt lat="45.6035" lon="0.13909">
        <ele>70.952</ele>
        <time>2017-03-23T19:21:24Z</time>
      </trkpt>
      <trkpt lat="45.60518" lon="0.13772">
        <ele>68.735</ele>
        <time>2017-03-23T19:21:44Z</time>
      </trkpt>
      <trkpt lat="45.60592" lon="0.13715">
        <ele>73.261</ele>
        <time>2017-03-23T19:22:04Z</time>
      </trkpt>
      <trkpt lat="45.60677" lon="0.13674">
        <ele>71.325</ele>
        <time>2017-03-23T19:22:24Z</time>
      </trkpt>
      <trkpt lat="45.60837" lon="0.13635">
        <ele>67.349</ele>
        <time>2017-03-23T19:22:44Z</time>
      </trkpt>
      <trkpt lat="45.60909" lon="0.1358">
        <ele>66.202</ele>
        <time>2017-03-23T19:23:04Z</time>
      </trkpt>
      <trkpt lat="45.60954" lon="0.13473">
        <ele>68.422</ele>
        <time>2017-03-23T19:23:24Z</time>
      </trkpt>
      <trkpt lat="45.60936" lon="0.13405">
        <ele>71.508</ele>
        <time>2017-03-23T19:23:44Z</time>
      </trkpt>
      <trkpt lat="45.61203" lon="0.13627">
        <ele>60.84</ele>
        <time>2017-03-23T19:24:04Z</time>
      </trkpt>
      <trkpt lat="45.61182" lon="0.13684">
        <ele>59.864</ele>
        <time>2017-03-23T19:24:24Z</time>
      </trkpt>
      <trkpt lat="45.61054" lon="0.13867">
        <ele>60.581</ele>
        <time>2017-03-23T19:24:44Z</time>
      </trkpt>
      <trkpt lat="45.6106" lon="0.13884">
        <ele>63.524</ele>
        <time>2017-03-23T19:25:04Z</time>
      </trkpt>
      <trkpt lat="45.61048" lon="0.13954">
        <ele>68.775</ele>
        <time>2017-03-23T19:25:24Z</time>
      </trkpt>
      <trkpt lat="45.61048" lon="0.1401">
        <ele>70.518</ele>
        <time>2017-03-23T19:25:44Z</time>
      </trkpt>
      <trkpt lat="45.6106" lon="0.14063">
        <ele>71.354</ele>
        <time>2017-03-23T19:26:04Z</time>
      </trkpt>
      <trkpt lat="45.61076" lon="0.14097">
        <ele>75.428</ele>
        <time>2017-03-23T19:26:24Z</time>
      </trkpt>
      <trkpt lat="45.61093" lon="0.14243">
        <ele>78.442</ele>
        <time>2017-03-23T19:26:44Z</time>
      </trkpt>
      <trkpt lat="45.61055" lon="0.14341">
        <ele>83.022</ele>
        <time>2017-03-23T19:27:04Z</time>
      </trkpt>
      <trkpt lat="45.61019" lon="0.14421">
        <ele>90.014</ele>
        <time>2017-03-23T19:27:24Z</time>
      </trkpt>
      <trkpt lat="45.61024" lon="0.14432">
        <ele>90.008</ele>
        <time>2017-03-23T19:27:44Z</time>
      </trkpt>
      <trkpt lat="45.61019" lon="0.14499">
        <ele>90.73</ele>
        <time>2017-03-23T19:28:04Z</time>
      </trkpt>
      <trkpt lat="45.61028" lon="0.14527">
        <ele>91.064</ele>
        <time>2017-03-23T19:28:24Z</time>
      </trkpt>
      <trkpt lat="45.61058" lon="0.14553">
        <ele>92.281</ele>
        <time>2017-03-23T19:28:44Z</time>
      </trkpt>
      <trkpt lat="45.61226" lon="0.14689">
        <ele>98.834</ele>
        <time>2017-03-23T19:29:04Z</time>
      </trkpt>
      <trkpt lat="45.61256" lon="0.14733">
        <ele>99.985</ele>
        <time>2017-03-23T19:29:24Z</time>
      </trkpt>
      <trkpt lat="45.61239" lon="0.14806">
        <ele>101.448</ele>
        <time>2017-03-23T19:29:44Z</time>
      </trkpt>
      <trkpt lat="45.61233" lon="0.14853">
        <ele>99.264</ele>
        <time>2017-03-23T19:30:04Z</time>
      </trkpt>
      <trkpt lat="45.61219" lon="0.14877">
        <ele>98.598</ele>
        <time>2017-03-23T19:30:24Z</time>
      </trkpt>
      <trkpt lat="45.61218" lon="0.14943">
        <ele>97.296</ele>
        <time>2017-03-23T19:30:44Z</time>
      </trkpt>
      <trkpt lat="45.612" lon="0.14993">
        <ele>97.831</ele>
        <time>2017-03-23T19:31:04Z</time>
      </trkpt>
      <trkpt lat="45.61184" lon="0.15025">
        <ele>98.024</ele>
        <time>2017-03-23T19:31:24Z</time>
      </trkpt>
      <trkpt lat="45.61181" lon="0.15051">
        <ele>98.408</ele>
        <time>2017-03-23T19:31:44Z</time>
      </trkpt>
      <trkpt lat="45.61142" lon="0.1515">
        <ele>100.075</ele>
        <time>2017-03-23T19:32:04Z</time>
      </trkpt>
      <trkpt lat="45.61098" lon="0.15231">
        <ele>100.569</ele>
        <time>2017-03-23T19:32:24Z</time>
      </trkpt>
      <trkpt lat="45.61049" lon="0.15312">
        <ele>101.036</ele>
        <time>2017-03-23T19:32:44Z</time>
      </trkpt>
      <trkpt lat="45.61017" lon="0.15351">
        <ele>100.779</ele>
        <time>2017-03-23T19:33:04Z</time>
      </trkpt>
      <trkpt lat="45.61037" lon="0.15395">
        <ele>100.91</ele>
        <time>2020-11-19T02:30:25Z</time>
      </trkpt>
      <trkpt lat="45.611" lon="0.15427">
        <ele>99.493</ele>
        <time>2020-11-19T02:30:45Z</time>
      </trkpt>
      <trkpt lat="45.61134" lon="0.15472">
        <ele>96.369</ele>
        <time>2020-11-19T02:31:05Z</time>
      </trkpt>
      <trkpt lat="45.61151" lon="0.15551">
        <ele>95.193</ele>
        <time>2017-03-23T19:34:44Z</time>
      </trkpt>
      <trkpt lat="45.61156" lon="0.15623">
        <ele>94.427</ele>
        <time>2017-03-23T19:35:04Z</time>
      </trkpt>
      <trkpt lat="45.61175" lon="0.15678">
        <ele>86.068</ele>
        <time>2017-03-23T19:35:24Z</time>
      </trkpt>
      <trkpt lat="45.61198" lon="0.1568">
        <ele>83.714</ele>
        <time>2017-03-23T19:35:44Z</time>
      </trkpt>
      <trkpt lat="45.61256" lon="0.15669">
        <ele>73.608</ele>
        <time>2017-03-23T19:36:04Z</time>
      </trkpt>
      <trkpt lat="45.61218" lon="0.15713">
        <ele>71.458</ele>
        <time>2020-11-19T02:33:05Z</time>
      </trkpt>
      <trkpt lat="45.61174" lon="0.15728">
        <ele>72.932</ele>
        <time>2020-11-19T02:33:25Z</time>
      </trkpt>
      <trkpt lat="45.6114" lon="0.1572">
        <ele>75.589</ele>
        <time>2020-11-19T02:33:45Z</time>
      </trkpt>
      <trkpt lat="45.61166" lon="0.15745">
        <ele>70.772</ele>
        <time>2020-11-19T02:34:05Z</time>
      </trkpt>
      <trkpt lat="45.61219" lon="0.15748">
        <ele>66.723</ele>
        <time>2020-11-19T02:34:25Z</time>
      </trkpt>
      <trkpt lat="45.6131" lon="0.15669">
        <ele>66.556</ele>
        <time>2017-03-23T19:36:24Z</time>
      </trkpt>
      <trkpt lat="45.61335" lon="0.15659">
        <ele>63.742</ele>
        <time>2017-03-23T19:36:44Z</time>
      </trkpt>
      <trkpt lat="45.6138" lon="0.15671">
        <ele>64.056</ele>
        <time>2017-03-23T19:37:04Z</time>
      </trkpt>
      <trkpt lat="45.61409" lon="0.15691">
        <ele>64.594</ele>
        <time>2017-03-23T19:37:24Z</time>
      </trkpt>
      <trkpt lat="45.6149" lon="0.15789">
        <ele>69.257</ele>
        <time>2017-03-23T19:37:44Z</time>
      </trkpt>
      <trkpt lat="45.61407" lon="0.15964">
        <ele>74.522</ele>
        <time>2017-03-23T19:38:04Z</time>
      </trkpt>
      <trkpt lat="45.61246" lon="0.16281">
        <ele>74.808</ele>
        <time>2017-03-23T19:38:24Z</time>
      </trkpt>
      <trkpt lat="45.61179" lon="0.16403">
        <ele>71.265</ele>
        <time>2017-03-23T19:38:44Z</time>
      </trkpt>
      <trkpt lat="45.61182" lon="0.16452">
        <ele>75.949</ele>
        <time>2017-03-23T19:39:04Z</time>
      </trkpt>
      <trkpt lat="45.61118" lon="0.16644">
        <ele>79.956</ele>
        <time>2017-03-23T19:39:24Z</time>
      </trkpt>
      <trkpt lat="45.61115" lon="0.16683">
        <ele>80.929</ele>
        <time>2017-03-23T19:39:44Z</time>
      </trkpt>
      <trkpt lat="45.61128" lon="0.1672">
        <ele>87.13</ele>
        <time>2017-03-23T19:40:04Z</time>
      </trkpt>
      <trkpt lat="45.61099" lon="0.16724">
        <ele>79.353</ele>
        <time>2017-03-23T19:40:24Z</time>
      </trkpt>
      <trkpt lat="45.61068" lon="0.16752">
        <ele>73.579</ele>
        <time>2017-03-23T19:40:44Z</time>
      </trkpt>
      <trkpt lat="45.6104" lon="0.16799">
        <ele>72.373</ele>
        <time>2017-03-23T19:41:04Z</time>
      </trkpt>
      <trkpt lat="45.61" lon="0.17013">
        <ele>74.912</ele>
        <time>2017-03-23T19:41:24Z</time>
      </trkpt>
      <trkpt lat="45.60994" lon="0.17059">
        <ele>75.732</ele>
        <time>2017-03-23T19:41:44Z</time>
      </trkpt>
      <trkpt lat="45.60985" lon="0.17081">
        <ele>74.505</ele>
        <time>2017-03-23T19:42:04Z</time>
      </trkpt>
      <trkpt lat="45.60982" lon="0.17109">
        <ele>74.208</ele>
        <time>2017-03-23T19:42:24Z</time>
      </trkpt>
      <trkpt lat="45.60987" lon="0.17138">
        <ele>76.357</ele>
        <time>2017-03-23T19:42:44Z</time>
      </trkpt>
      <trkpt lat="45.60985" lon="0.17283">
        <ele>79.581</ele>
        <time>2017-03-23T19:43:04Z</time>
      </trkpt>
      <trkpt lat="45.60977" lon="0.17442">
        <ele>73.388</ele>
        <time>2017-03-23T19:43:24Z</time>
      </trkpt>
      <trkpt lat="45.6097" lon="0.17507">
        <ele>75.041</ele>
        <time>2017-03-23T19:43:44Z</time>
      </trkpt>
      <trkpt lat="45.60951" lon="0.17538">
        <ele>75.012</ele>
        <time>2017-03-23T19:44:04Z</time>
      </trkpt>
      <trkpt lat="45.60923" lon="0.176">
        <ele>79.885</ele>
        <time>2017-03-23T19:44:24Z</time>
      </trkpt>
      <trkpt lat="45.60887" lon="0.17641">
        <ele>81.341</ele>
        <time>2017-03-23T19:44:44Z</time>
      </trkpt>
      <trkpt lat="45.60858" lon="0.17665">
        <ele>82.265</ele>
        <time>2017-03-23T19:45:04Z</time>
      </trkpt>
      <trkpt lat="45.60814" lon="0.17685">
        <ele>77.914</ele>
        <time>2017-03-23T19:45:24Z</time>
      </trkpt>
      <trkpt lat="45.607" lon="0.17816">
        <ele>77.854</ele>
        <time>2017-03-23T19:45:44Z</time>
      </trkpt>
      <trkpt lat="45.60701" lon="0.17859">
        <ele>77.909</ele>
        <time>2017-03-23T19:46:04Z</time>
      </trkpt>
      <trkpt lat="45.6073" lon="0.17895">
        <ele>82.508</ele>
        <time>2017-03-23T19:46:24Z</time>
      </trkpt>
      <trkpt lat="45.6075" lon="0.17935">
        <ele>85.027</ele>
        <time>2017-03-23T19:46:44Z</time>
      </trkpt>
      <trkpt lat="45.60805" lon="0.17966">
        <ele>93.291</ele>
        <time>2017-03-23T19:47:04Z</time>
      </trkpt>
      <trkpt lat="45.60825" lon="0.17986">
        <ele>94.978</ele>
        <time>2017-03-23T19:47:24Z</time>
      </trkpt>
      <trkpt lat="45.6085" lon="0.18032">
        <ele>96.531</ele>
        <time>2017-03-23T19:47:44Z</time>
      </trkpt>
      <trkpt lat="45.60855" lon="0.18051">
        <ele>96.112</ele>
        <time>2017-03-23T19:48:04Z</time>
      </trkpt>
      <trkpt lat="45.60892" lon="0.1808">
        <ele>98.345</ele>
        <time>2017-03-23T19:48:24Z</time>
      </trkpt>
      <trkpt lat="45.61015" lon="0.18091">
        <ele>109.721</ele>
        <time>2017-03-23T19:48:44Z</time>
      </trkpt>
      <trkpt lat="45.6107" lon="0.1805">
        <ele>113.955</ele>
        <time>2017-03-23T19:49:04Z</time>
      </trkpt>
      <trkpt lat="45.61156" lon="0.1808">
        <ele>120.557</ele>
        <time>2017-03-23T19:49:24Z</time>
      </trkpt>
      <trkpt lat="45.61176" lon="0.18081">
        <ele>123.4</ele>
        <time>2017-03-23T19:49:44Z</time>
      </trkpt>
      <trkpt lat="45.61273" lon="0.18143">
        <ele>133.72</ele>
        <time>2017-03-23T19:50:04Z</time>
      </trkpt>
      <trkpt lat="45.61302" lon="0.18173">
        <ele>134.708</ele>
        <time>2017-03-23T19:50:24Z</time>
      </trkpt>
      <trkpt lat="45.61335" lon="0.18119">
        <ele>136.891</ele>
        <time>2017-03-23T19:50:44Z</time>
      </trkpt>
      <trkpt lat="45.61366" lon="0.18091">
        <ele>137.345</ele>
        <time>2017-03-23T19:51:04Z</time>
      </trkpt>
      <trkpt lat="45.61437" lon="0.18066">
        <ele>138.572</ele>
        <time>2017-03-23T19:51:24Z</time>
      </trkpt>
      <trkpt lat="45.61467" lon="0.18014">
        <ele>137.155</ele>
        <time>2017-03-23T19:51:44Z</time>
      </trkpt>
      <trkpt lat="45.61496" lon="0.17952">
        <ele>138.596</ele>
        <time>2017-03-23T19:52:04Z</time>
      </trkpt>
      <trkpt lat="45.61645" lon="0.18039">
        <ele>138.729</ele>
        <time>2017-03-23T19:52:24Z</time>
      </trkpt>
      <trkpt lat="45.61701" lon="0.18015">
        <ele>138.545</ele>
        <time>2017-03-23T19:52:44Z</time>
      </trkpt>
      <trkpt lat="45.61793" lon="0.17952">
        <ele>126.259</ele>
        <time>2017-03-23T19:53:04Z</time>
      </trkpt>
      <trkpt lat="45.61815" lon="0.18004">
        <ele>126.565</ele>
        <time>2017-03-23T19:53:24Z</time>
      </trkpt>
      <trkpt lat="45.61869" lon="0.18054">
        <ele>130.368</ele>
        <time>2017-03-23T19:53:44Z</time>
      </trkpt>
      <trkpt lat="45.6192" lon="0.18028">
        <ele>133.314</ele>
        <time>2017-03-23T19:54:04Z</time>
      </trkpt>
      <trkpt lat="45.61969" lon="0.18014">
        <ele>134.508</ele>
        <time>2017-03-23T19:54:24Z</time>
      </trkpt>
      <trkpt lat="45.61993" lon="0.17975">
        <ele>135.522</ele>
        <time>2017-03-23T19:54:44Z</time>
      </trkpt>
      <trkpt lat="45.62084" lon="0.17905">
        <ele>139.056</ele>
        <time>2017-03-23T19:55:04Z</time>
      </trkpt>
      <trkpt lat="45.62121" lon="0.17849">
        <ele>140.213</ele>
        <time>2017-03-23T19:55:24Z</time>
      </trkpt>
      <trkpt lat="45.62121" lon="0.17849">
        <ele>140.286</ele>
        <time>2017-03-23T19:55:44Z</time>
      </trkpt>
      <trkpt lat="45.62159" lon="0.17815">
        <ele>140.277</ele>
        <time>2017-03-23T19:56:04Z</time>
      </trkpt>
      <trkpt lat="45.62189" lon="0.17731">
        <ele>140.08</ele>
        <time>2017-03-23T19:56:24Z</time>
      </trkpt>
      <trkpt lat="45.62241" lon="0.17751">
        <ele>142.086</ele>
        <time>2017-03-23T19:56:44Z</time>
      </trkpt>
      <trkpt lat="45.62289" lon="0.17781">
        <ele>143.07</ele>
        <time>2017-03-23T19:57:04Z</time>
      </trkpt>
      <trkpt lat="45.62331" lon="0.17796">
        <ele>144.065</ele>
        <time>2017-03-23T19:57:24Z</time>
      </trkpt>
      <trkpt lat="45.6239" lon="0.17828">
        <ele>141.868</ele>
        <time>2017-03-23T19:57:44Z</time>
      </trkpt>
      <trkpt lat="45.62426" lon="0.17862">
        <ele>140.614</ele>
        <time>2017-03-23T19:58:04Z</time>
      </trkpt>
      <trkpt lat="45.6248" lon="0.17884">
        <ele>136.908</ele>
        <time>2017-03-23T19:58:24Z</time>
      </trkpt>
      <trkpt lat="45.62527" lon="0.17892">
        <ele>133.842</ele>
        <time>2017-03-23T19:58:44Z</time>
      </trkpt>
      <trkpt lat="45.62536" lon="0.17933">
        <ele>130.476</ele>
        <time>2017-03-23T19:59:04Z</time>
      </trkpt>
      <trkpt lat="45.62494" lon="0.18234">
        <ele>120.483</ele>
        <time>2017-03-23T19:59:24Z</time>
      </trkpt>
      <trkpt lat="45.62393" lon="0.1877">
        <ele>118.066</ele>
        <time>2017-03-23T19:59:44Z</time>
      </trkpt>
      <trkpt lat="45.62358" lon="0.18907">
        <ele>123.157</ele>
        <time>2017-03-23T20:00:04Z</time>
      </trkpt>
      <trkpt lat="45.62348" lon="0.1898">
        <ele>124.44</ele>
        <time>2017-03-23T20:00:24Z</time>
      </trkpt>
      <trkpt lat="45.62309" lon="0.19039">
        <ele>128.246</ele>
        <time>2017-03-23T20:00:44Z</time>
      </trkpt>
      <trkpt lat="45.62226" lon="0.19116">
        <ele>129.68</ele>
        <time>2017-03-23T20:01:04Z</time>
      </trkpt>
      <trkpt lat="45.62123" lon="0.192">
        <ele>129.573</ele>
        <time>2017-03-23T20:01:24Z</time>
      </trkpt>
      <trkpt lat="45.62074" lon="0.19219">
        <ele>134.185</ele>
        <time>2017-03-23T20:01:44Z</time>
      </trkpt>
      <trkpt lat="45.62047" lon="0.19262">
        <ele>135.713</ele>
        <time>2017-03-23T20:02:04Z</time>
      </trkpt>
      <trkpt lat="45.62007" lon="0.19348">
        <ele>137.408</ele>
        <time>2017-03-23T20:02:24Z</time>
      </trkpt>
      <trkpt lat="45.61974" lon="0.19442">
        <ele>134.913</ele>
        <time>2017-03-23T20:02:44Z</time>
      </trkpt>
      <trkpt lat="45.61887" lon="0.19502">
        <ele>134.987</ele>
        <time>2017-03-23T20:03:04Z</time>
      </trkpt>
      <trkpt lat="45.61842" lon="0.19517">
        <ele>133.144</ele>
        <time>2017-03-23T20:03:24Z</time>
      </trkpt>
      <trkpt lat="45.61805" lon="0.19514">
        <ele>133.097</ele>
        <time>2017-03-23T20:03:44Z</time>
      </trkpt>
      <trkpt lat="45.61782" lon="0.19525">
        <ele>133.048</ele>
        <time>2017-03-23T20:04:04Z</time>
      </trkpt>
      <trkpt lat="45.6173" lon="0.19576">
        <ele>134.031</ele>
        <time>2017-03-23T20:04:24Z</time>
      </trkpt>
      <trkpt lat="45.61697" lon="0.19625">
        <ele>135.757</ele>
        <time>2017-03-23T20:04:44Z</time>
      </trkpt>
      <trkpt lat="45.61655" lon="0.19657">
        <ele>137.481</ele>
        <time>2017-03-23T20:05:04Z</time>
      </trkpt>
      <trkpt lat="45.61591" lon="0.19722">
        <ele>139.536</ele>
        <time>2017-03-23T20:05:24Z</time>
      </trkpt>
      <trkpt lat="45.61535" lon="0.19839">
        <ele>137.817</ele>
        <time>2017-03-23T20:05:44Z</time>
      </trkpt>
      <trkpt lat="45.61475" lon="0.19953">
        <ele>137.118</ele>
        <time>2017-03-23T20:06:04Z</time>
      </trkpt>
      <trkpt lat="45.61464" lon="0.2001">
        <ele>135.208</ele>
        <time>2017-03-23T20:06:24Z</time>
      </trkpt>
      <trkpt lat="45.61423" lon="0.20137">
        <ele>138.579</ele>
        <time>2017-03-23T20:06:44Z</time>
      </trkpt>
      <trkpt lat="45.61322" lon="0.20359">
        <ele>139.893</ele>
        <time>2017-03-23T20:07:04Z</time>
      </trkpt>
      <trkpt lat="45.61223" lon="0.20589">
        <ele>138.83</ele>
        <time>2017-03-23T20:07:24Z</time>
      </trkpt>
      <trkpt lat="45.61179" lon="0.20658">
        <ele>141.783</ele>
        <time>2017-03-23T20:07:44Z</time>
      </trkpt>
      <trkpt lat="45.61111" lon="0.20847">
        <ele>145.524</ele>
        <time>2017-03-23T20:08:04Z</time>
      </trkpt>
      <trkpt lat="45.61051" lon="0.20914">
        <ele>145.057</ele>
        <time>2017-03-23T20:08:24Z</time>
      </trkpt>
      <trkpt lat="45.61382" lon="0.21357">
        <ele>131.793</ele>
        <time>2017-03-23T20:08:44Z</time>
      </trkpt>
      <trkpt lat="45.61586" lon="0.21548">
        <ele>119.517</ele>
        <time>2017-03-23T20:09:04Z</time>
      </trkpt>
      <trkpt lat="45.61513" lon="0.21708">
        <ele>119.841</ele>
        <time>2017-03-23T20:09:24Z</time>
      </trkpt>
      <trkpt lat="45.61424" lon="0.21849">
        <ele>121.281</ele>
        <time>2017-03-23T20:09:44Z</time>
      </trkpt>
      <trkpt lat="45.61313" lon="0.22066">
        <ele>123.909</ele>
        <time>2017-03-23T20:10:04Z</time>
      </trkpt>
      <trkpt lat="45.61318" lon="0.2221">
        <ele>127.408</ele>
        <time>2017-03-23T20:10:24Z</time>
      </trkpt>
      <trkpt lat="45.61397" lon="0.22338">
        <ele>122.09</ele>
        <time>2017-03-23T20:10:44Z</time>
      </trkpt>
      <trkpt lat="45.61487" lon="0.22429">
        <ele>124.524</ele>
        <time>2017-03-23T20:11:04Z</time>
      </trkpt>
      <trkpt lat="45.61492" lon="0.22479">
        <ele>121.741</ele>
        <time>2017-03-23T20:11:24Z</time>
      </trkpt>
      <trkpt lat="45.61453" lon="0.22615">
        <ele>121.494</ele>
        <time>2017-03-23T20:11:44Z</time>
      </trkpt>
      <trkpt lat="45.61419" lon="0.22686">
        <ele>120.885</ele>
        <time>2017-03-23T20:12:04Z</time>
      </trkpt>
      <trkpt lat="45.61362" lon="0.22749">
        <ele>115.298</ele>
        <time>2017-03-23T20:12:24Z</time>
      </trkpt>
      <trkpt lat="45.61362" lon="0.22909">
        <ele>118.664</ele>
        <time>2017-03-23T20:12:44Z</time>
      </trkpt>
      <trkpt lat="45.61274" lon="0.23096">
        <ele>118.948</ele>
        <time>2017-03-23T20:13:04Z</time>
      </trkpt>
      <trkpt lat="45.61241" lon="0.2319">
        <ele>124.818</ele>
        <time>2017-03-23T20:13:24Z</time>
      </trkpt>
      <trkpt lat="45.61203" lon="0.23275">
        <ele>126.998</ele>
        <time>2017-03-23T20:13:44Z</time>
      </trkpt>
      <trkpt lat="45.61183" lon="0.23353">
        <ele>130.417</ele>
        <time>2017-03-23T20:14:04Z</time>
      </trkpt>
      <trkpt lat="45.61159" lon="0.23413">
        <ele>131.608</ele>
        <time>2017-03-23T20:14:24Z</time>
      </trkpt>
      <trkpt lat="45.61061" lon="0.23495">
        <ele>132.397</ele>
        <time>2017-03-23T20:14:44Z</time>
      </trkpt>
      <trkpt lat="45.6103" lon="0.23541">
        <ele>131.041</ele>
        <time>2017-03-23T20:15:04Z</time>
      </trkpt>
      <trkpt lat="45.60978" lon="0.23567">
        <ele>131.928</ele>
        <time>2017-03-23T20:15:24Z</time>
      </trkpt>
      <trkpt lat="45.60852" lon="0.23697">
        <ele>141.261</ele>
        <time>2017-03-23T20:15:44Z</time>
      </trkpt>
      <trkpt lat="45.60771" lon="0.23837">
        <ele>149.852</ele>
        <time>2017-03-23T20:16:04Z</time>
      </trkpt>
      <trkpt lat="45.60867" lon="0.23986">
        <ele>146.025</ele>
        <time>2017-03-23T20:16:24Z</time>
      </trkpt>
      <trkpt lat="45.60876" lon="0.24026">
        <ele>144.971</ele>
        <time>2017-03-23T20:16:44Z</time>
      </trkpt>
      <trkpt lat="45.60846" lon="0.24068">
        <ele>146.965</ele>
        <time>2017-03-23T20:17:04Z</time>
      </trkpt>
      <trkpt lat="45.60856" lon="0.24144">
        <ele>145.238</ele>
        <time>2017-03-23T20:17:24Z</time>
      </trkpt>
      <trkpt lat="45.60901" lon="0.24132">
        <ele>144.87</ele>
        <time>2017-03-23T20:17:44Z</time>
      </trkpt>
      <trkpt lat="45.60957" lon="0.2415">
        <ele>144.817</ele>
        <time>2017-03-23T20:18:04Z</time>
      </trkpt>
      <trkpt lat="45.6103" lon="0.24213">
        <ele>142.708</ele>
        <time>2017-03-23T20:18:24Z</time>
      </trkpt>
      <trkpt lat="45.61084" lon="0.24285">
        <ele>138.469</ele>
        <time>2017-03-23T20:18:44Z</time>
      </trkpt>
      <trkpt lat="45.61154" lon="0.24309">
        <ele>136.653</ele>
        <time>2017-03-23T20:19:04Z</time>
      </trkpt>
      <trkpt lat="45.6124" lon="0.24357">
        <ele>137.64</ele>
        <time>2017-03-23T20:19:24Z</time>
      </trkpt>
      <trkpt lat="45.61279" lon="0.24406">
        <ele>138.723</ele>
        <time>2017-03-23T20:19:44Z</time>
      </trkpt>
      <trkpt lat="45.61276" lon="0.24495">
        <ele>137.974</ele>
        <time>2017-03-23T20:20:04Z</time>
      </trkpt>
      <trkpt lat="45.61223" lon="0.24589">
        <ele>128.947</ele>
        <time>2017-03-23T20:20:24Z</time>
      </trkpt>
      <trkpt lat="45.6121" lon="0.24662">
        <ele>126.773</ele>
        <time>2017-03-23T20:20:44Z</time>
      </trkpt>
      <trkpt lat="45.6123" lon="0.2474">
        <ele>125.277</ele>
        <time>2017-03-23T20:21:04Z</time>
      </trkpt>
      <trkpt lat="45.61228" lon="0.24835">
        <ele>116.819</ele>
        <time>2017-03-23T20:21:24Z</time>
      </trkpt>
      <trkpt lat="45.6131" lon="0.24875">
        <ele>115.009</ele>
        <time>2017-03-23T20:21:44Z</time>
      </trkpt>
      <trkpt lat="45.61406" lon="0.24879">
        <ele>114.319</ele>
        <time>2017-03-23T20:22:04Z</time>
      </trkpt>
      <trkpt lat="45.61478" lon="0.24844">
        <ele>110.208</ele>
        <time>2017-03-23T20:22:24Z</time>
      </trkpt>
      <trkpt lat="45.61564" lon="0.24736">
        <ele>107.757</ele>
        <time>2017-03-23T20:22:44Z</time>
      </trkpt>
      <trkpt lat="45.61638" lon="0.24602">
        <ele>113.391</ele>
        <time>2017-03-23T20:23:04Z</time>
      </trkpt>
      <trkpt lat="45.61658" lon="0.24606">
        <ele>106.988</ele>
        <time>2017-03-23T20:23:24Z</time>
      </trkpt>
      <trkpt lat="45.61676" lon="0.2465">
        <ele>99.731</ele>
        <time>2017-03-23T20:23:44Z</time>
      </trkpt>
      <trkpt lat="45.61744" lon="0.24712">
        <ele>99.672</ele>
        <time>2017-03-23T20:24:04Z</time>
      </trkpt>
      <trkpt lat="45.61773" lon="0.24713">
        <ele>100.555</ele>
        <time>2017-03-23T20:24:24Z</time>
      </trkpt>
      <trkpt lat="45.61818" lon="0.24748">
        <ele>105.011</ele>
        <time>2017-03-23T20:24:44Z</time>
      </trkpt>
      <trkpt lat="45.61831" lon="0.24776">
        <ele>106.855</ele>
        <time>2017-03-23T20:25:04Z</time>
      </trkpt>
      <trkpt lat="45.61845" lon="0.24792">
        <ele>110.257</ele>
        <time>2017-03-23T20:25:24Z</time>
      </trkpt>
      <trkpt lat="45.61897" lon="0.24643">
        <ele>103.2</ele>
        <time>2017-03-23T20:25:44Z</time>
      </trkpt>
      <trkpt lat="45.61896" lon="0.24585">
        <ele>104.52</ele>
        <time>2017-03-23T20:26:04Z</time>
      </trkpt>
      <trkpt lat="45.61911" lon="0.24534">
        <ele>106.908</ele>
        <time>2017-03-23T20:26:24Z</time>
      </trkpt>
      <trkpt lat="45.61934" lon="0.24549">
        <ele>113.041</ele>
        <time>2017-03-23T20:26:44Z</time>
      </trkpt>
      <trkpt lat="45.6197" lon="0.24642">
        <ele>117.435</ele>
        <time>2017-03-23T20:27:04Z</time>
      </trkpt>
      <trkpt lat="45.62082" lon="0.24815">
        <ele>124.622</ele>
        <time>2017-03-23T20:27:24Z</time>
      </trkpt>
      <trkpt lat="45.62127" lon="0.24776">
        <ele>128.295</ele>
        <time>2017-03-23T20:27:44Z</time>
      </trkpt>
      <trkpt lat="45.62195" lon="0.24753">
        <ele>132.926</ele>
        <time>2017-03-23T20:28:04Z</time>
      </trkpt>
      <trkpt lat="45.62239" lon="0.24718">
        <ele>135.849</ele>
        <time>2017-03-23T20:28:24Z</time>
      </trkpt>
      <trkpt lat="45.62235" lon="0.24635">
        <ele>136.985</ele>
        <time>2017-03-23T20:28:44Z</time>
      </trkpt>
      <trkpt lat="45.6233" lon="0.24388">
        <ele>145.629</ele>
        <time>2017-03-23T20:29:04Z</time>
      </trkpt>
      <trkpt lat="45.62378" lon="0.2432">
        <ele>147.596</ele>
        <time>2017-03-23T20:29:24Z</time>
      </trkpt>
      <trkpt lat="45.62411" lon="0.24284">
        <ele>148.531</ele>
        <time>2017-03-23T20:29:44Z</time>
      </trkpt>
      <trkpt lat="45.62464" lon="0.24296">
        <ele>152.124</ele>
        <time>2017-03-23T20:30:04Z</time>
      </trkpt>
      <trkpt lat="45.62541" lon="0.24356">
        <ele>155.408</ele>
        <time>2017-03-23T20:30:24Z</time>
      </trkpt>
      <trkpt lat="45.6256" lon="0.24448">
        <ele>155.055</ele>
        <time>2017-03-23T20:30:44Z</time>
      </trkpt>
      <trkpt lat="45.6259" lon="0.24487">
        <ele>154.079</ele>
        <time>2017-03-23T20:31:04Z</time>
      </trkpt>
      <trkpt lat="45.62678" lon="0.24518">
        <ele>144.786</ele>
        <time>2017-03-23T20:31:24Z</time>
      </trkpt>
      <trkpt lat="45.62761" lon="0.24605">
        <ele>142.229</ele>
        <time>2017-03-23T20:31:44Z</time>
      </trkpt>
      <trkpt lat="45.62797" lon="0.24658">
        <ele>141.15</ele>
        <time>2017-03-23T20:32:04Z</time>
      </trkpt>
      <trkpt lat="45.62848" lon="0.24622">
        <ele>139.513</ele>
        <time>2017-03-23T20:32:24Z</time>
      </trkpt>
      <trkpt lat="45.62914" lon="0.24607">
        <ele>138.179</ele>
        <time>2017-03-23T20:32:44Z</time>
      </trkpt>
      <trkpt lat="45.62989" lon="0.24606">
        <ele>132.823</ele>
        <time>2017-03-23T20:33:04Z</time>
      </trkpt>
      <trkpt lat="45.63071" lon="0.24585">
        <ele>130.712</ele>
        <time>2017-03-23T20:33:24Z</time>
      </trkpt>
      <trkpt lat="45.63138" lon="0.24535">
        <ele>125.532</ele>
        <time>2017-03-23T20:33:44Z</time>
      </trkpt>
      <trkpt lat="45.63157" lon="0.24539">
        <ele>124.505</ele>
        <time>2017-03-23T20:34:04Z</time>
      </trkpt>
      <trkpt lat="45.632" lon="0.24521">
        <ele>121.408</ele>
        <time>2017-03-23T20:34:24Z</time>
      </trkpt>
      <trkpt lat="45.63253" lon="0.24526">
        <ele>117.977</ele>
        <time>2017-03-23T20:34:44Z</time>
      </trkpt>
      <trkpt lat="45.63319" lon="0.2451">
        <ele>116.381</ele>
        <time>2017-03-23T20:35:04Z</time>
      </trkpt>
      <trkpt lat="45.63347" lon="0.24478">
        <ele>116.758</ele>
        <time>2017-03-23T20:35:24Z</time>
      </trkpt>
      <trkpt lat="45.63412" lon="0.24467">
        <ele>119.971</ele>
        <time>2017-03-23T20:35:44Z</time>
      </trkpt>
      <trkpt lat="45.63433" lon="0.24452">
        <ele>123.152</ele>
        <time>2017-03-23T20:36:04Z</time>
      </trkpt>
      <trkpt lat="45.63568" lon="0.24429">
        <ele>128.175</ele>
        <time>2017-03-23T20:36:24Z</time>
      </trkpt>
      <trkpt lat="45.63624" lon="0.24465">
        <ele>128.171</ele>
        <time>2017-03-23T20:36:44Z</time>
      </trkpt>
      <trkpt lat="45.63678" lon="0.24399">
        <ele>133.645</ele>
        <time>2017-03-23T20:37:04Z</time>
      </trkpt>
      <trkpt lat="45.63705" lon="0.24341">
        <ele>133.225</ele>
        <time>2017-03-23T20:37:24Z</time>
      </trkpt>
      <trkpt lat="45.63747" lon="0.24313">
        <ele>133.926</ele>
        <time>2017-03-23T20:37:44Z</time>
      </trkpt>
      <trkpt lat="45.6378" lon="0.24306">
        <ele>135.008</ele>
        <time>2017-03-23T20:38:04Z</time>
      </trkpt>
      <trkpt lat="45.63857" lon="0.24442">
        <ele>134.508</ele>
        <time>2017-03-23T20:38:24Z</time>
      </trkpt>
      <trkpt lat="45.63923" lon="0.24625">
        <ele>123.878</ele>
        <time>2017-03-23T20:38:44Z</time>
      </trkpt>
      <trkpt lat="45.63955" lon="0.2466">
        <ele>120.652</ele>
        <time>2017-03-23T20:39:04Z</time>
      </trkpt>
      <trkpt lat="45.64005" lon="0.24644">
        <ele>118.139</ele>
        <time>2017-03-23T20:39:24Z</time>
      </trkpt>
      <trkpt lat="45.63989" lon="0.24738">
        <ele>109.052</ele>
        <time>2017-03-23T20:39:44Z</time>
      </trkpt>
      <trkpt lat="45.64026" lon="0.24895">
        <ele>89.723</ele>
        <time>2017-03-23T20:40:04Z</time>
      </trkpt>
      <trkpt lat="45.64019" lon="0.24944">
        <ele>85.466</ele>
        <time>2017-03-23T20:40:24Z</time>
      </trkpt>
      <trkpt lat="45.64088" lon="0.24995">
        <ele>82.582</ele>
        <time>2017-03-23T20:40:44Z</time>
      </trkpt>
      <trkpt lat="45.64119" lon="0.24976">
        <ele>86.066</ele>
        <time>2017-03-23T20:41:04Z</time>
      </trkpt>
      <trkpt lat="45.64182" lon="0.2504">
        <ele>86.715</ele>
        <time>2017-03-23T20:41:24Z</time>
      </trkpt>
      <trkpt lat="45.64262" lon="0.25134">
        <ele>85.465</ele>
        <time>2017-03-23T20:41:44Z</time>
      </trkpt>
      <trkpt lat="45.64282" lon="0.25219">
        <ele>83.411</ele>
        <time>2017-03-23T20:42:04Z</time>
      </trkpt>
      <trkpt lat="45.64302" lon="0.25321">
        <ele>79.908</ele>
        <time>2017-03-23T20:42:24Z</time>
      </trkpt>
      <trkpt lat="45.64353" lon="0.25295">
        <ele>83.727</ele>
        <time>2017-03-23T20:42:44Z</time>
      </trkpt>
      <trkpt lat="45.64415" lon="0.25277">
        <ele>87.971</ele>
        <time>2017-03-23T20:43:04Z</time>
      </trkpt>
      <trkpt lat="45.64588" lon="0.25156">
        <ele>89.898</ele>
        <time>2017-03-23T20:43:24Z</time>
      </trkpt>
      <trkpt lat="45.64857" lon="0.25099">
        <ele>96.491</ele>
        <time>2017-03-23T20:43:44Z</time>
      </trkpt>
      <trkpt lat="45.6495" lon="0.25065">
        <ele>92.172</ele>
        <time>2017-03-23T20:44:04Z</time>
      </trkpt>
      <trkpt lat="45.65038" lon="0.25082">
        <ele>92.795</ele>
        <time>2017-03-23T20:44:24Z</time>
      </trkpt>
      <trkpt lat="45.65198" lon="0.25065">
        <ele>85.991</ele>
        <time>2017-03-23T20:44:44Z</time>
      </trkpt>
      <trkpt lat="45.65258" lon="0.25077">
        <ele>82.915</ele>
        <time>2017-03-23T20:45:04Z</time>
      </trkpt>
      <trkpt lat="45.65327" lon="0.25114">
        <ele>77.476</ele>
        <time>2017-03-23T20:45:24Z</time>
      </trkpt>
      <trkpt lat="45.65412" lon="0.25201">
        <ele>67.99</ele>
        <time>2017-03-23T20:45:44Z</time>
      </trkpt>
      <trkpt lat="45.65501" lon="0.25219">
        <ele>59.019</ele>
        <time>2017-03-23T20:46:04Z</time>
      </trkpt>
      <trkpt lat="45.65621" lon="0.2532">
        <ele>55.508</ele>
        <time>2017-03-23T20:46:24Z</time>
      </trkpt>
      <trkpt lat="45.65719" lon="0.25372">
        <ele>53.253</ele>
        <time>2017-03-23T20:46:44Z</time>
      </trkpt>
      <trkpt lat="45.65889" lon="0.25467">
        <ele>46.297</ele>
        <time>2017-03-23T20:47:04Z</time>
      </trkpt>
      <trkpt lat="45.65925" lon="0.25446">
        <ele>47.374</ele>
        <time>2017-03-23T20:47:24Z</time>
      </trkpt>
      <trkpt lat="45.65947" lon="0.25406">
        <ele>48.457</ele>
        <time>2017-03-23T20:47:44Z</time>
      </trkpt>
      <trkpt lat="45.66078" lon="0.25827">
        <ele>54.448</ele>
        <time>2017-03-23T20:48:04Z</time>
      </trkpt>
      <trkpt lat="45.6607" lon="0.25866">
        <ele>56.061</ele>
        <time>2017-03-23T20:48:24Z</time>
      </trkpt>
      <trkpt lat="45.66075" lon="0.25902">
        <ele>58.557</ele>
        <time>2017-03-23T20:48:44Z</time>
      </trkpt>
      <trkpt lat="45.66084" lon="0.25958">
        <ele>61.081</ele>
        <time>2017-03-23T20:49:04Z</time>
      </trkpt>
      <trkpt lat="45.66032" lon="0.26012">
        <ele>60.847</ele>
        <time>2017-03-23T20:49:24Z</time>
      </trkpt>
      <trkpt lat="45.65992" lon="0.26075">
        <ele>60.129</ele>
        <time>2017-03-23T20:49:44Z</time>
      </trkpt>
      <trkpt lat="45.65963" lon="0.26151">
        <ele>58.721</ele>
        <time>2017-03-23T20:50:04Z</time>
      </trkpt>
      <trkpt lat="45.66021" lon="0.262">
        <ele>60.808</ele>
        <time>2017-03-23T20:50:24Z</time>
      </trkpt>
      <trkpt lat="45.66017" lon="0.26233">
        <ele>61.08</ele>
        <time>2017-03-23T20:50:44Z</time>
      </trkpt>
      <trkpt lat="45.65977" lon="0.26259">
        <ele>61.684</ele>
        <time>2017-03-23T20:51:04Z</time>
      </trkpt>
      <trkpt lat="45.65934" lon="0.26331">
        <ele>66.051</ele>
        <time>2017-03-23T20:51:24Z</time>
      </trkpt>
      <trkpt lat="45.65886" lon="0.26538">
        <ele>87.074</ele>
        <time>2017-03-23T20:51:44Z</time>
      </trkpt>
      <trkpt lat="45.65812" lon="0.2675">
        <ele>101.015</ele>
        <time>2017-03-23T20:52:04Z</time>
      </trkpt>
      <trkpt lat="45.65767" lon="0.26968">
        <ele>112.928</ele>
        <time>2017-03-23T20:52:24Z</time>
      </trkpt>
      <trkpt lat="45.65732" lon="0.27115">
        <ele>116.124</ele>
        <time>2017-03-23T20:52:44Z</time>
      </trkpt>
      <trkpt lat="45.65711" lon="0.27301">
        <ele>119.538</ele>
        <time>2017-03-23T20:53:04Z</time>
      </trkpt>
      <trkpt lat="45.65678" lon="0.27452">
        <ele>121.427</ele>
        <time>2017-03-23T20:53:24Z</time>
      </trkpt>
      <trkpt lat="45.65646" lon="0.27588">
        <ele>124.768</ele>
        <time>2017-03-23T20:53:44Z</time>
      </trkpt>
      <trkpt lat="45.65701" lon="0.28093">
        <ele>138.014</ele>
        <time>2017-03-23T20:54:04Z</time>
      </trkpt>
      <trkpt lat="45.65737" lon="0.28476">
        <ele>126.408</ele>
        <time>2017-03-23T20:54:24Z</time>
      </trkpt>
      <trkpt lat="45.65741" lon="0.28758">
        <ele>111.958</ele>
        <time>2017-03-23T20:54:44Z</time>
      </trkpt>
      <trkpt lat="45.65709" lon="0.28848">
        <ele>106.292</ele>
        <time>2017-03-23T20:55:04Z</time>
      </trkpt>
      <trkpt lat="45.65719" lon="0.28871">
        <ele>104.669</ele>
        <time>2017-03-23T20:55:24Z</time>
      </trkpt>
      <trkpt lat="45.6576" lon="0.28909">
        <ele>104.662</ele>
        <time>2017-03-23T20:55:44Z</time>
      </trkpt>
      <trkpt lat="45.65733" lon="0.28938">
        <ele>104.533</ele>
        <time>2017-03-23T20:56:04Z</time>
      </trkpt>
      <trkpt lat="45.65707" lon="0.28976">
        <ele>103.316</ele>
        <time>2017-03-23T20:56:24Z</time>
      </trkpt>
      <trkpt lat="45.65652" lon="0.28954">
        <ele>101.042</ele>
        <time>2017-03-23T20:56:44Z</time>
      </trkpt>
      <trkpt lat="45.65668" lon="0.29076">
        <ele>102.146</ele>
        <time>2017-03-23T20:57:04Z</time>
      </trkpt>
      <trkpt lat="45.65716" lon="0.29218">
        <ele>104.266</ele>
        <time>2017-03-23T20:57:24Z</time>
      </trkpt>
      <trkpt lat="45.65833" lon="0.29375">
        <ele>106.029</ele>
        <time>2017-03-23T20:57:44Z</time>
      </trkpt>
      <trkpt lat="45.65836" lon="0.29432">
        <ele>106.121</ele>
        <time>2017-03-23T20:58:04Z</time>
      </trkpt>
      <trkpt lat="45.65785" lon="0.29569">
        <ele>110.208</ele>
        <time>2017-03-23T20:58:24Z</time>
      </trkpt>
      <trkpt lat="45.65772" lon="0.29658">
        <ele>114.012</ele>
        <time>2017-03-23T20:58:44Z</time>
      </trkpt>
      <trkpt lat="45.65766" lon="0.29728">
        <ele>120.326</ele>
        <time>2017-03-23T20:59:04Z</time>
      </trkpt>
      <trkpt lat="45.65728" lon="0.29766">
        <ele>121.233</ele>
        <time>2017-03-23T20:59:24Z</time>
      </trkpt>
      <trkpt lat="45.65619" lon="0.29844">
        <ele>125.096</ele>
        <time>2017-03-23T20:59:44Z</time>
      </trkpt>
      <trkpt lat="45.65532" lon="0.29995">
        <ele>130.917</ele>
        <time>2017-03-23T21:00:04Z</time>
      </trkpt>
      <trkpt lat="45.6547" lon="0.30118">
        <ele>132.38</ele>
        <time>2017-03-23T21:00:24Z</time>
      </trkpt>
      <trkpt lat="45.65401" lon="0.30174">
        <ele>134.756</ele>
        <time>2017-03-23T21:00:44Z</time>
      </trkpt>
      <trkpt lat="45.65332" lon="0.3018">
        <ele>134.52</ele>
        <time>2017-03-23T21:01:04Z</time>
      </trkpt>
      <trkpt lat="45.65286" lon="0.30197">
        <ele>134.663</ele>
        <time>2017-03-23T21:01:24Z</time>
      </trkpt>
      <trkpt lat="45.6522" lon="0.30229">
        <ele>133.344</ele>
        <time>2017-03-23T21:01:44Z</time>
      </trkpt>
      <trkpt lat="45.65186" lon="0.30349">
        <ele>139.318</ele>
        <time>2017-03-23T21:02:04Z</time>
      </trkpt>
      <trkpt lat="45.65226" lon="0.30355">
        <ele>137.708</ele>
        <time>2017-03-23T21:02:24Z</time>
      </trkpt>
      <trkpt lat="45.65241" lon="0.30722">
        <ele>140.012</ele>
        <time>2017-03-23T21:02:44Z</time>
      </trkpt>
      <trkpt lat="45.65262" lon="0.30873">
        <ele>143.636</ele>
        <time>2017-03-23T21:03:04Z</time>
      </trkpt>
      <trkpt lat="45.65262" lon="0.30873">
        <ele>143.633</ele>
        <time>2017-03-23T21:03:24Z</time>
      </trkpt>
      <trkpt lat="45.6522" lon="0.31057">
        <ele>145.916</ele>
        <time>2017-03-23T21:03:44Z</time>
      </trkpt>
      <trkpt lat="45.65176" lon="0.31145">
        <ele>143.847</ele>
        <time>2017-03-23T21:04:04Z</time>
      </trkpt>
      <trkpt lat="45.65152" lon="0.31273">
        <ele>140.63</ele>
        <time>2017-03-23T21:04:24Z</time>
      </trkpt>
      <trkpt lat="45.65128" lon="0.31327">
        <ele>137.496</ele>
        <time>2017-03-23T21:04:44Z</time>
      </trkpt>
      <trkpt lat="45.65113" lon="0.31432">
        <ele>135.62</ele>
        <time>2017-03-23T21:05:04Z</time>
      </trkpt>
      <trkpt lat="45.65118" lon="0.31518">
        <ele>135.783</ele>
        <time>2017-03-23T21:05:24Z</time>
      </trkpt>
      <trkpt lat="45.65098" lon="0.3161">
        <ele>134.125</ele>
        <time>2017-03-23T21:05:44Z</time>
      </trkpt>
      <trkpt lat="45.65042" lon="0.3171">
        <ele>132.817</ele>
        <time>2017-03-23T21:06:04Z</time>
      </trkpt>
      <trkpt lat="45.65042" lon="0.3171">
        <ele>132.808</ele>
        <time>2017-03-23T21:06:24Z</time>
      </trkpt>
      <trkpt lat="45.64899" lon="0.32046">
        <ele>119.744</ele>
        <time>2017-03-23T21:06:44Z</time>
      </trkpt>
      <trkpt lat="45.64819" lon="0.3219">
        <ele>115.038</ele>
        <time>2017-03-23T21:07:04Z</time>
      </trkpt>
      <trkpt lat="45.64752" lon="0.3225">
        <ele>113.145</ele>
        <time>2017-03-23T21:07:24Z</time>
      </trkpt>
      <trkpt lat="45.64708" lon="0.32318">
        <ele>113.128</ele>
        <time>2017-03-23T21:07:44Z</time>
      </trkpt>
      <trkpt lat="45.64684" lon="0.32376">
        <ele>110.489</ele>
        <time>2017-03-23T21:08:04Z</time>
      </trkpt>
      <trkpt lat="45.64662" lon="0.32462">
        <ele>112.182</ele>
        <time>2017-03-23T21:08:24Z</time>
      </trkpt>
      <trkpt lat="45.64596" lon="0.32541">
        <ele>115.888</ele>
        <time>2017-03-23T21:08:44Z</time>
      </trkpt>
      <trkpt lat="45.64552" lon="0.32614">
        <ele>117.922</ele>
        <time>2017-03-23T21:09:04Z</time>
      </trkpt>
      <trkpt lat="45.64546" lon="0.32702">
        <ele>119.532</ele>
        <time>2017-03-23T21:09:24Z</time>
      </trkpt>
      <trkpt lat="45.64539" lon="0.3276">
        <ele>120.092</ele>
        <time>2017-03-23T21:09:44Z</time>
      </trkpt>
      <trkpt lat="45.6454" lon="0.32799">
        <ele>119.611</ele>
        <time>2017-03-23T21:10:04Z</time>
      </trkpt>
      <trkpt lat="45.64693" lon="0.32846">
        <ele>118.508</ele>
        <time>2017-03-23T21:10:24Z</time>
      </trkpt>
      <trkpt lat="45.64774" lon="0.32857">
        <ele>118.919</ele>
        <time>2017-03-23T21:10:44Z</time>
      </trkpt>
      <trkpt lat="45.64816" lon="0.32885">
        <ele>119.053</ele>
        <time>2017-03-23T21:11:04Z</time>
      </trkpt>
      <trkpt lat="45.64867" lon="0.33007">
        <ele>120.33</ele>
        <time>2017-03-23T21:11:24Z</time>
      </trkpt>
      <trkpt lat="45.649" lon="0.33065">
        <ele>119.953</ele>
        <time>2017-03-23T21:11:44Z</time>
      </trkpt>
      <trkpt lat="45.65034" lon="0.33155">
        <ele>119.594</ele>
        <time>2017-03-23T21:12:04Z</time>
      </trkpt>
      <trkpt lat="45.65063" lon="0.33152">
        <ele>118.857</ele>
        <time>2017-03-23T21:12:24Z</time>
      </trkpt>
      <trkpt lat="45.65104" lon="0.33144">
        <ele>117.953</ele>
        <time>2017-03-23T21:12:44Z</time>
      </trkpt>
      <trkpt lat="45.65196" lon="0.33191">
        <ele>112.157</ele>
        <time>2017-03-23T21:13:04Z</time>
      </trkpt>
      <trkpt lat="45.65243" lon="0.33199">
        <ele>113.217</ele>
        <time>2017-03-23T21:13:24Z</time>
      </trkpt>
      <trkpt lat="45.6524" lon="0.33222">
        <ele>114.087</ele>
        <time>2017-03-23T21:13:44Z</time>
      </trkpt>
      <trkpt lat="45.65255" lon="0.33303">
        <ele>113.915</ele>
        <time>2017-03-23T21:14:04Z</time>
      </trkpt>
      <trkpt lat="45.65252" lon="0.33474">
        <ele>112.908</ele>
        <time>2017-03-23T21:14:24Z</time>
      </trkpt>
      <trkpt lat="45.65275" lon="0.3352">
        <ele>111.577</ele>
        <time>2017-03-23T21:14:44Z</time>
      </trkpt>
      <trkpt lat="45.65219" lon="0.33576">
        <ele>113.661</ele>
        <time>2017-03-23T21:15:04Z</time>
      </trkpt>
      <trkpt lat="45.65243" lon="0.3363">
        <ele>110.198</ele>
        <time>2017-03-23T21:15:24Z</time>
      </trkpt>
      <trkpt lat="45.65257" lon="0.33701">
        <ele>108.941</ele>
        <time>2017-03-23T21:15:44Z</time>
      </trkpt>
      <trkpt lat="45.65309" lon="0.33868">
        <ele>107.982</ele>
        <time>2017-03-23T21:16:04Z</time>
      </trkpt>
      <trkpt lat="45.65345" lon="0.34004">
        <ele>109.425</ele>
        <time>2017-03-23T21:16:24Z</time>
      </trkpt>
      <trkpt lat="45.65513" lon="0.34137">
        <ele>110.691</ele>
        <time>2017-03-23T21:16:44Z</time>
      </trkpt>
      <trkpt lat="45.65508" lon="0.34187">
        <ele>106.795</ele>
        <time>2017-03-23T21:17:04Z</time>
      </trkpt>
      <trkpt lat="45.65608" lon="0.34245">
        <ele>105.137</ele>
        <time>2017-03-23T21:17:24Z</time>
      </trkpt>
      <trkpt lat="45.65755" lon="0.34254">
        <ele>107.849</ele>
        <time>2017-03-23T21:17:44Z</time>
      </trkpt>
      <trkpt lat="45.65954" lon="0.3418">
        <ele>110.413</ele>
        <time>2017-03-23T21:18:04Z</time>
      </trkpt>
      <trkpt lat="45.65967" lon="0.3425">
        <ele>109.808</ele>
        <time>2017-03-23T21:18:24Z</time>
      </trkpt>
      <trkpt lat="45.65987" lon="0.34303">
        <ele>108.679</ele>
        <time>2017-03-23T21:18:44Z</time>
      </trkpt>
      <trkpt lat="45.66008" lon="0.34396">
        <ele>106.653</ele>
        <time>2017-03-23T21:19:04Z</time>
      </trkpt>
      <trkpt lat="45.6604" lon="0.34448">
        <ele>102.49</ele>
        <time>2017-03-23T21:19:24Z</time>
      </trkpt>
      <trkpt lat="45.66196" lon="0.34349">
        <ele>102.433</ele>
        <time>2017-03-23T21:19:44Z</time>
      </trkpt>
      <trkpt lat="45.66214" lon="0.34398">
        <ele>100.584</ele>
        <time>2017-03-23T21:20:04Z</time>
      </trkpt>
      <trkpt lat="45.66204" lon="0.34566">
        <ele>92.767</ele>
        <time>2017-03-23T21:20:24Z</time>
      </trkpt>
      <trkpt lat="45.66211" lon="0.34599">
        <ele>88.793</ele>
        <time>2017-03-23T21:20:44Z</time>
      </trkpt>
      <trkpt lat="45.66238" lon="0.34627">
        <ele>85.977</ele>
        <time>2017-03-23T21:21:04Z</time>
      </trkpt>
      <trkpt lat="45.66224" lon="0.34663">
        <ele>85.124</ele>
        <time>2017-03-23T21:21:24Z</time>
      </trkpt>
      <trkpt lat="45.66224" lon="0.34664">
        <ele>85.004</ele>
        <time>2017-03-23T21:21:44Z</time>
      </trkpt>
      <trkpt lat="45.66343" lon="0.3482">
        <ele>85.814</ele>
        <time>2017-03-23T21:22:04Z</time>
      </trkpt>
      <trkpt lat="45.66377" lon="0.34837">
        <ele>85.408</ele>
        <time>2017-03-23T21:22:24Z</time>
      </trkpt>
      <trkpt lat="45.66402" lon="0.34775">
        <ele>83.128</ele>
        <time>2017-03-23T21:22:44Z</time>
      </trkpt>
      <trkpt lat="45.66493" lon="0.34685">
        <ele>86.232</ele>
        <time>2017-03-23T21:23:04Z</time>
      </trkpt>
      <trkpt lat="45.66605" lon="0.34635">
        <ele>86.439</ele>
        <time>2017-03-23T21:23:24Z</time>
      </trkpt>
      <trkpt lat="45.66673" lon="0.34582">
        <ele>88.872</ele>
        <time>2017-03-23T21:23:44Z</time>
      </trkpt>
      <trkpt lat="45.66784" lon="0.34593">
        <ele>86.593</ele>
        <time>2017-03-23T21:24:04Z</time>
      </trkpt>
      <trkpt lat="45.66843" lon="0.34578">
        <ele>87.136</ele>
        <time>2017-03-23T21:24:24Z</time>
      </trkpt>
      <trkpt lat="45.66874" lon="0.34719">
        <ele>82.072</ele>
        <time>2017-03-23T21:24:44Z</time>
      </trkpt>
      <trkpt lat="45.66889" lon="0.3473">
        <ele>82.346</ele>
        <time>2017-03-23T21:25:04Z</time>
      </trkpt>
      <trkpt lat="45.66975" lon="0.34731">
        <ele>84.941</ele>
        <time>2017-03-23T21:25:24Z</time>
      </trkpt>
      <trkpt lat="45.66984" lon="0.34766">
        <ele>85.381</ele>
        <time>2017-03-23T21:25:44Z</time>
      </trkpt>
      <trkpt lat="45.66981" lon="0.34823">
        <ele>85.409</ele>
        <time>2017-03-23T21:26:04Z</time>
      </trkpt>
      <trkpt lat="45.67003" lon="0.34839">
        <ele>85.208</ele>
        <time>2017-03-23T21:26:24Z</time>
      </trkpt>
      <trkpt lat="45.67027" lon="0.34831">
        <ele>85.02</ele>
        <time>2017-03-23T21:26:44Z</time>
      </trkpt>
      <trkpt lat="45.67027" lon="0.34831">
        <ele>85.034</ele>
        <time>2017-03-23T21:27:04Z</time>
      </trkpt>
      <trkpt lat="45.67045" lon="0.34986">
        <ele>87.611</ele>
        <time>2017-03-23T21:27:24Z</time>
      </trkpt>
      <trkpt lat="45.67019" lon="0.35024">
        <ele>87.934</ele>
        <time>2017-03-23T21:27:44Z</time>
      </trkpt>
      <trkpt lat="45.6692" lon="0.35447">
        <ele>105.285</ele>
        <time>2017-03-23T21:28:04Z</time>
      </trkpt>
      <trkpt lat="45.66971" lon="0.35539">
        <ele>109.318</ele>
        <time>2017-03-23T21:28:24Z</time>
      </trkpt>
      <trkpt lat="45.66985" lon="0.35646">
        <ele>114.674</ele>
        <time>2017-03-23T21:28:44Z</time>
      </trkpt>
      <trkpt lat="45.67019" lon="0.35749">
        <ele>125.328</ele>
        <time>2017-03-23T21:29:04Z</time>
      </trkpt>
      <trkpt lat="45.67052" lon="0.35897">
        <ele>127.887</ele>
        <time>2017-03-23T21:29:24Z</time>
      </trkpt>
      <trkpt lat="45.67075" lon="0.3593">
        <ele>129.542</ele>
        <time>2017-03-23T21:29:44Z</time>
      </trkpt>
      <trkpt lat="45.67087" lon="0.35992">
        <ele>131.026</ele>
        <time>2017-03-23T21:30:04Z</time>
      </trkpt>
      <trkpt lat="45.67085" lon="0.3602">
        <ele>131.708</ele>
        <time>2017-03-23T21:30:24Z</time>
      </trkpt>
      <trkpt lat="45.67105" lon="0.36095">
        <ele>132.674</ele>
        <time>2017-03-23T21:30:44Z</time>
      </trkpt>
      <trkpt lat="45.6713" lon="0.36125">
        <ele>133.398</ele>
        <time>2017-03-23T21:31:04Z</time>
      </trkpt>
      <trkpt lat="45.67218" lon="0.36238">
        <ele>130.625</ele>
        <time>2017-03-23T21:31:24Z</time>
      </trkpt>
      <trkpt lat="45.672" lon="0.36317">
        <ele>129.168</ele>
        <time>2017-03-23T21:31:44Z</time>
      </trkpt>
      <trkpt lat="45.67209" lon="0.36348">
        <ele>126.989</ele>
        <time>2017-03-23T21:32:04Z</time>
      </trkpt>
      <trkpt lat="45.6719" lon="0.36365">
        <ele>127.712</ele>
        <time>2017-03-23T21:32:24Z</time>
      </trkpt>
      <trkpt lat="45.67143" lon="0.36372">
        <ele>128.158</ele>
        <time>2017-03-23T21:32:44Z</time>
      </trkpt>
      <trkpt lat="45.67134" lon="0.3648">
        <ele>122.822</ele>
        <time>2017-03-23T21:33:04Z</time>
      </trkpt>
      <trkpt lat="45.67134" lon="0.36612">
        <ele>121.237</ele>
        <time>2017-03-23T21:33:24Z</time>
      </trkpt>
      <trkpt lat="45.67143" lon="0.36674">
        <ele>119.749</ele>
        <time>2017-03-23T21:33:44Z</time>
      </trkpt>
      <trkpt lat="45.67147" lon="0.3681">
        <ele>120.213</ele>
        <time>2017-03-23T21:34:04Z</time>
      </trkpt>
      <trkpt lat="45.67201" lon="0.36899">
        <ele>121.608</ele>
        <time>2017-03-23T21:34:24Z</time>
      </trkpt>
      <trkpt lat="45.67325" lon="0.36867">
        <ele>115.159</ele>
        <time>2017-03-23T21:34:44Z</time>
      </trkpt>
      <trkpt lat="45.67429" lon="0.36874">
        <ele>112.053</ele>
        <time>2017-03-23T21:35:04Z</time>
      </trkpt>
      <trkpt lat="45.675" lon="0.36919">
        <ele>111.82</ele>
        <time>2017-03-23T21:35:24Z</time>
      </trkpt>
      <trkpt lat="45.67566" lon="0.36945">
        <ele>117.793</ele>
        <time>2017-03-23T21:35:44Z</time>
      </trkpt>
      <trkpt lat="45.67665" lon="0.36912">
        <ele>123.884</ele>
        <time>2017-03-23T21:36:04Z</time>
      </trkpt>
      <trkpt lat="45.67889" lon="0.36931">
        <ele>115.067</ele>
        <time>2017-03-23T21:36:24Z</time>
      </trkpt>
      <trkpt lat="45.67911" lon="0.36951">
        <ele>113.223</ele>
        <time>2017-03-23T21:36:44Z</time>
      </trkpt>
      <trkpt lat="45.6794" lon="0.36965">
        <ele>112.297</ele>
        <time>2017-03-23T21:37:04Z</time>
      </trkpt>
      <trkpt lat="45.68047" lon="0.37054">
        <ele>115.194</ele>
        <time>2017-03-23T21:37:24Z</time>
      </trkpt>
      <trkpt lat="45.68078" lon="0.37065">
        <ele>118.457</ele>
        <time>2017-03-23T21:37:44Z</time>
      </trkpt>
      <trkpt lat="45.68168" lon="0.37061">
        <ele>120.022</ele>
        <time>2017-03-23T21:38:04Z</time>
      </trkpt>
      <trkpt lat="45.68335" lon="0.37181">
        <ele>118.908</ele>
        <time>2017-03-23T21:38:24Z</time>
      </trkpt>
      <trkpt lat="45.68444" lon="0.37254">
        <ele>113.625</ele>
        <time>2017-03-23T21:38:44Z</time>
      </trkpt>
      <trkpt lat="45.68497" lon="0.37263">
        <ele>114.469</ele>
        <time>2017-03-23T21:39:04Z</time>
      </trkpt>
      <trkpt lat="45.68612" lon="0.37296">
        <ele>109.446</ele>
        <time>2017-03-23T21:39:24Z</time>
      </trkpt>
      <trkpt lat="45.68679" lon="0.373">
        <ele>111.499</ele>
        <time>2017-03-23T21:39:44Z</time>
      </trkpt>
      <trkpt lat="45.68785" lon="0.37293">
        <ele>108.73</ele>
        <time>2017-03-23T21:40:04Z</time>
      </trkpt>
      <trkpt lat="45.68825" lon="0.37436">
        <ele>101.713</ele>
        <time>2017-03-23T21:40:24Z</time>
      </trkpt>
      <trkpt lat="45.6893" lon="0.37494">
        <ele>102.869</ele>
        <time>2017-03-23T21:40:44Z</time>
      </trkpt>
      <trkpt lat="45.69004" lon="0.37517">
        <ele>104.093</ele>
        <time>2017-03-23T21:41:04Z</time>
      </trkpt>
      <trkpt lat="45.69038" lon="0.37555">
        <ele>107.075</ele>
        <time>2017-03-23T21:41:24Z</time>
      </trkpt>
      <trkpt lat="45.69083" lon="0.37669">
        <ele>110.028</ele>
        <time>2017-03-23T21:41:44Z</time>
      </trkpt>
      <trkpt lat="45.69133" lon="0.37785">
        <ele>111.72</ele>
        <time>2017-03-23T21:42:04Z</time>
      </trkpt>
      <trkpt lat="45.69214" lon="0.37907">
        <ele>104.908</ele>
        <time>2017-03-23T21:42:24Z</time>
      </trkpt>
      <trkpt lat="45.69284" lon="0.37931">
        <ele>107.033</ele>
        <time>2017-03-23T21:42:44Z</time>
      </trkpt>
      <trkpt lat="45.69351" lon="0.37976">
        <ele>106.257</ele>
        <time>2017-03-23T21:43:04Z</time>
      </trkpt>
      <trkpt lat="45.69422" lon="0.38049">
        <ele>102.154</ele>
        <time>2017-03-23T21:43:24Z</time>
      </trkpt>
      <trkpt lat="45.69418" lon="0.38094">
        <ele>103.397</ele>
        <time>2017-03-23T21:43:44Z</time>
      </trkpt>
      <trkpt lat="45.69442" lon="0.38253">
        <ele>108.218</ele>
        <time>2017-03-23T21:44:04Z</time>
      </trkpt>
      <trkpt lat="45.69426" lon="0.38296">
        <ele>109.921</ele>
        <time>2017-03-23T21:44:24Z</time>
      </trkpt>
      <trkpt lat="45.69438" lon="0.38371">
        <ele>112.337</ele>
        <time>2017-03-23T21:44:44Z</time>
      </trkpt>
      <trkpt lat="45.69471" lon="0.38473">
        <ele>113.021</ele>
        <time>2017-03-23T21:45:04Z</time>
      </trkpt>
      <trkpt lat="45.69526" lon="0.38513">
        <ele>112.063</ele>
        <time>2017-03-23T21:45:24Z</time>
      </trkpt>
      <trkpt lat="45.69527" lon="0.38583">
        <ele>113.044</ele>
        <time>2017-03-23T21:45:44Z</time>
      </trkpt>
      <trkpt lat="45.69554" lon="0.38727">
        <ele>118.118</ele>
        <time>2017-03-23T21:46:04Z</time>
      </trkpt>
      <trkpt lat="45.69546" lon="0.38789">
        <ele>117.308</ele>
        <time>2017-03-23T21:46:24Z</time>
      </trkpt>
      <trkpt lat="45.69498" lon="0.3889">
        <ele>115.042</ele>
        <time>2017-03-23T21:46:44Z</time>
      </trkpt>
      <trkpt lat="45.69498" lon="0.38937">
        <ele>118.336</ele>
        <time>2017-03-23T21:47:04Z</time>
      </trkpt>
      <trkpt lat="45.69484" lon="0.38992">
        <ele>118.733</ele>
        <time>2017-03-23T21:47:24Z</time>
      </trkpt>
      <trkpt lat="45.69483" lon="0.39025">
        <ele>117.866</ele>
        <time>2017-03-23T21:47:44Z</time>
      </trkpt>
      <trkpt lat="45.6946" lon="0.39059">
        <ele>116.697</ele>
        <time>2017-03-23T21:48:04Z</time>
      </trkpt>
      <trkpt lat="45.6945" lon="0.39097">
        <ele>117.13</ele>
        <time>2017-03-23T21:48:24Z</time>
      </trkpt>
      <trkpt lat="45.69453" lon="0.39169">
        <ele>117.916</ele>
        <time>2017-03-23T21:48:44Z</time>
      </trkpt>
      <trkpt lat="45.69444" lon="0.39197">
        <ele>116.82</ele>
        <time>2017-03-23T21:49:04Z</time>
      </trkpt>
      <trkpt lat="45.69414" lon="0.39314">
        <ele>113.367</ele>
        <time>2017-03-23T21:49:24Z</time>
      </trkpt>
      <trkpt lat="45.69259" lon="0.39435">
        <ele>126.081</ele>
        <time>2017-03-23T21:49:44Z</time>
      </trkpt>
      <trkpt lat="45.69211" lon="0.39557">
        <ele>124.819</ele>
        <time>2017-03-23T21:50:04Z</time>
      </trkpt>
      <trkpt lat="45.69176" lon="0.39594">
        <ele>126.708</ele>
        <time>2017-03-23T21:50:24Z</time>
      </trkpt>
      <trkpt lat="45.69152" lon="0.39684">
        <ele>128.632</ele>
        <time>2017-03-23T21:50:44Z</time>
      </trkpt>
      <trkpt lat="45.69092" lon="0.39833">
        <ele>131.756</ele>
        <time>2017-03-23T21:51:04Z</time>
      </trkpt>
      <trkpt lat="45.69049" lon="0.39871">
        <ele>130.833</ele>
        <time>2017-03-23T21:51:24Z</time>
      </trkpt>
      <trkpt lat="45.69034" lon="0.39909">
        <ele>130.286</ele>
        <time>2017-03-23T21:51:44Z</time>
      </trkpt>
      <trkpt lat="45.69023" lon="0.39974">
        <ele>129.897</ele>
        <time>2017-03-23T21:52:04Z</time>
      </trkpt>
      <trkpt lat="45.69085" lon="0.40058">
        <ele>126.97</ele>
        <time>2017-03-23T21:52:24Z</time>
      </trkpt>
      <trkpt lat="45.69106" lon="0.40112">
        <ele>125.926</ele>
        <time>2017-03-23T21:52:44Z</time>
      </trkpt>
      <trkpt lat="45.69095" lon="0.402">
        <ele>124.17</ele>
        <time>2017-03-23T21:53:04Z</time>
      </trkpt>
      <trkpt lat="45.69016" lon="0.40202">
        <ele>125.346</ele>
        <time>2017-03-23T21:53:24Z</time>
      </trkpt>
      <trkpt lat="45.68945" lon="0.40227">
        <ele>122.988</ele>
        <time>2017-03-23T21:53:44Z</time>
      </trkpt>
      <trkpt lat="45.68887" lon="0.40212">
        <ele>125.316</ele>
        <time>2017-03-23T21:54:04Z</time>
      </trkpt>
      <trkpt lat="45.6883" lon="0.40226">
        <ele>124.208</ele>
        <time>2017-03-23T21:54:24Z</time>
      </trkpt>
      <trkpt lat="45.68789" lon="0.40246">
        <ele>124.96</ele>
        <time>2017-03-23T21:54:44Z</time>
      </trkpt>
      <trkpt lat="45.68733" lon="0.40295">
        <ele>124.484</ele>
        <time>2017-03-23T21:55:04Z</time>
      </trkpt>
      <trkpt lat="45.68709" lon="0.40313">
        <ele>125.251</ele>
        <time>2017-03-23T21:55:24Z</time>
      </trkpt>
      <trkpt lat="45.68639" lon="0.40289">
        <ele>121.444</ele>
        <time>2017-03-23T21:55:44Z</time>
      </trkpt>
      <trkpt lat="45.68575" lon="0.40303">
        <ele>120.225</ele>
        <time>2017-03-23T21:56:04Z</time>
      </trkpt>
      <trkpt lat="45.68559" lon="0.40287">
        <ele>118.038</ele>
        <time>2017-03-23T21:56:24Z</time>
      </trkpt>
      <trkpt lat="45.68263" lon="0.40466">
        <ele>122.844</ele>
        <time>2017-03-23T21:56:44Z</time>
      </trkpt>
      <trkpt lat="45.68293" lon="0.40651">
        <ele>122.448</ele>
        <time>2017-03-23T21:57:04Z</time>
      </trkpt>
      <trkpt lat="45.68358" lon="0.40819">
        <ele>124.044</ele>
        <time>2017-03-23T21:57:24Z</time>
      </trkpt>
      <trkpt lat="45.68195" lon="0.40912">
        <ele>127.905</ele>
        <time>2017-03-23T21:57:44Z</time>
      </trkpt>
      <trkpt lat="45.68171" lon="0.40964">
        <ele>130.515</ele>
        <time>2017-03-23T21:58:04Z</time>
      </trkpt>
      <trkpt lat="45.68185" lon="0.41025">
        <ele>132.008</ele>
        <time>2017-03-23T21:58:24Z</time>
      </trkpt>
      <trkpt lat="45.68088" lon="0.41085">
        <ele>130.25</ele>
        <time>2017-03-23T21:58:44Z</time>
      </trkpt>
      <trkpt lat="45.68115" lon="0.41214">
        <ele>132.514</ele>
        <time>2017-03-23T21:59:04Z</time>
      </trkpt>
      <trkpt lat="45.68138" lon="0.41451">
        <ele>129.031</ele>
        <time>2017-03-23T21:59:24Z</time>
      </trkpt>
      <trkpt lat="45.68111" lon="0.41643">
        <ele>114.954</ele>
        <time>2017-03-23T21:59:44Z</time>
      </trkpt>
      <trkpt lat="45.68112" lon="0.41736">
        <ele>113.515</ele>
        <time>2017-03-23T22:00:04Z</time>
      </trkpt>
      <trkpt lat="45.68084" lon="0.41951">
        <ele>100.738</ele>
        <time>2017-03-23T22:00:24Z</time>
      </trkpt>
      <trkpt lat="45.68164" lon="0.41969">
        <ele>98.194</ele>
        <time>2017-03-23T22:00:44Z</time>
      </trkpt>
      <trkpt lat="45.68203" lon="0.42162">
        <ele>92.848</ele>
        <time>2017-03-23T22:01:04Z</time>
      </trkpt>
      <trkpt lat="45.68192" lon="0.42265">
        <ele>93.573</ele>
        <time>2017-03-23T22:01:24Z</time>
      </trkpt>
      <trkpt lat="45.68193" lon="0.42397">
        <ele>93.785</ele>
        <time>2017-03-23T22:01:44Z</time>
      </trkpt>
      <trkpt lat="45.68276" lon="0.42604">
        <ele>90.713</ele>
        <time>2017-03-23T22:02:04Z</time>
      </trkpt>
      <trkpt lat="45.68314" lon="0.42722">
        <ele>94.008</ele>
        <time>2017-03-23T22:02:24Z</time>
      </trkpt>
      <trkpt lat="45.68383" lon="0.42857">
        <ele>94.173</ele>
        <time>2017-03-23T22:02:44Z</time>
      </trkpt>
      <trkpt lat="45.68473" lon="0.43112">
        <ele>98.367</ele>
        <time>2017-03-23T22:03:04Z</time>
      </trkpt>
      <trkpt lat="45.68479" lon="0.43164">
        <ele>104.194</ele>
        <time>2017-03-23T22:03:24Z</time>
      </trkpt>
      <trkpt lat="45.68465" lon="0.43205">
        <ele>106.027</ele>
        <time>2017-03-23T22:03:44Z</time>
      </trkpt>
      <trkpt lat="45.68449" lon="0.43294">
        <ele>114.718</ele>
        <time>2017-03-23T22:04:04Z</time>
      </trkpt>
      <trkpt lat="45.68422" lon="0.43661">
        <ele>121.421</ele>
        <time>2017-03-23T22:04:24Z</time>
      </trkpt>
      <trkpt lat="45.68478" lon="0.43891">
        <ele>127.177</ele>
        <time>2017-03-23T22:04:44Z</time>
      </trkpt>
      <trkpt lat="45.68479" lon="0.43935">
        <ele>128.061</ele>
        <time>2020-11-19T05:03:25Z</time>
      </trkpt>
      <trkpt lat="45.68527" lon="0.43926">
        <ele>128.061</ele>
        <time>2020-11-19T05:03:45Z</time>
      </trkpt>
      <trkpt lat="45.68536" lon="0.43953">
        <ele>128.021</ele>
        <time>2020-11-19T05:04:05Z</time>
      </trkpt>
      <trkpt lat="45.68611" lon="0.43924">
        <ele>126.613</ele>
        <time>2020-11-19T05:04:25Z</time>
      </trkpt>
      <trkpt lat="45.68639" lon="0.43897">
        <ele>122.608</ele>
        <time>2020-11-19T05:04:45Z</time>
      </trkpt>
      <trkpt lat="45.68714" lon="0.43761">
        <ele>115.442</ele>
        <time>2020-11-19T05:05:05Z</time>
      </trkpt>
      <trkpt lat="45.68779" lon="0.43703">
        <ele>118.836</ele>
        <time>2020-11-19T05:05:25Z</time>
      </trkpt>
      <trkpt lat="45.68901" lon="0.43645">
        <ele>123.763</ele>
        <time>2020-11-19T05:05:45Z</time>
      </trkpt>
      <trkpt lat="45.68942" lon="0.438">
        <ele>129.766</ele>
        <time>2020-11-19T05:06:05Z</time>
      </trkpt>
      <trkpt lat="45.69053" lon="0.44028">
        <ele>135.997</ele>
        <time>2020-11-19T05:06:25Z</time>
      </trkpt>
      <trkpt lat="45.69108" lon="0.44187">
        <ele>139.06</ele>
        <time>2020-11-19T05:06:45Z</time>
      </trkpt>
      <trkpt lat="45.69139" lon="0.44423">
        <ele>149.826</ele>
        <time>2020-11-19T05:07:05Z</time>
      </trkpt>
      <trkpt lat="45.69008" lon="0.44445">
        <ele>142.36</ele>
        <time>2020-11-19T05:07:25Z</time>
      </trkpt>
      <trkpt lat="45.69005" lon="0.44503">
        <ele>145.326</ele>
        <time>2020-11-19T05:07:45Z</time>
      </trkpt>
      <trkpt lat="45.68982" lon="0.44525">
        <ele>143.947</ele>
        <time>2020-11-19T05:08:05Z</time>
      </trkpt>
      <trkpt lat="45.68931" lon="0.44647">
        <ele>147.711</ele>
        <time>2020-11-19T05:08:25Z</time>
      </trkpt>
      <trkpt lat="45.68863" lon="0.44736">
        <ele>148.908</ele>
        <time>2020-11-19T05:08:45Z</time>
      </trkpt>
      <trkpt lat="45.68825" lon="0.44714">
        <ele>149.648</ele>
        <time>2020-11-19T05:09:05Z</time>
      </trkpt>
      <trkpt lat="45.68766" lon="0.44759">
        <ele>148.272</ele>
        <time>2020-11-19T05:09:25Z</time>
      </trkpt>
      <trkpt lat="45.68696" lon="0.44882">
        <ele>149.339</ele>
        <time>2020-11-19T05:09:45Z</time>
      </trkpt>
      <trkpt lat="45.68657" lon="0.44983">
        <ele>153.832</ele>
        <time>2020-11-19T05:10:05Z</time>
      </trkpt>
      <trkpt lat="45.68661" lon="0.45192">
        <ele>166.243</ele>
        <time>2020-11-19T05:10:25Z</time>
      </trkpt>
      <trkpt lat="45.68693" lon="0.45181">
        <ele>171.386</ele>
        <time>2020-11-19T05:10:45Z</time>
      </trkpt>
      <trkpt lat="45.68758" lon="0.452">
        <ele>174.052</ele>
        <time>2020-11-19T05:11:05Z</time>
      </trkpt>
      <trkpt lat="45.68765" lon="0.45254">
        <ele>179.146</ele>
        <time>2020-11-19T05:11:25Z</time>
      </trkpt>
      <trkpt lat="45.68949" lon="0.45532">
        <ele>213.651</ele>
        <time>2020-11-19T05:11:45Z</time>
      </trkpt>
      <trkpt lat="45.69219" lon="0.45745">
        <ele>216.901</ele>
        <time>2020-11-19T05:12:05Z</time>
      </trkpt>
      <trkpt lat="45.69197" lon="0.4579">
        <ele>217.911</ele>
        <time>2020-11-19T05:12:25Z</time>
      </trkpt>
      <trkpt lat="45.69043" lon="0.45924">
        <ele>223.508</ele>
        <time>2020-11-19T05:12:45Z</time>
      </trkpt>
      <trkpt lat="45.68979" lon="0.46083">
        <ele>224.871</ele>
        <time>2020-11-19T05:13:05Z</time>
      </trkpt>
      <trkpt lat="45.68838" lon="0.46305">
        <ele>220.565</ele>
        <time>2020-11-19T05:13:25Z</time>
      </trkpt>
      <trkpt lat="45.68741" lon="0.46384">
        <ele>204.682</ele>
        <time>2020-11-19T05:13:45Z</time>
      </trkpt>
      <trkpt lat="45.68693" lon="0.46382">
        <ele>197.025</ele>
        <time>2020-11-19T05:14:05Z</time>
      </trkpt>
      <trkpt lat="45.68657" lon="0.46347">
        <ele>196.226</ele>
        <time>2020-11-19T05:14:25Z</time>
      </trkpt>
      <trkpt lat="45.68564" lon="0.46386">
        <ele>202.629</ele>
        <time>2020-11-19T05:14:45Z</time>
      </trkpt>
      <trkpt lat="45.68479" lon="0.46326">
        <ele>209.795</ele>
        <time>2020-11-19T05:15:05Z</time>
      </trkpt>
      <trkpt lat="45.6835" lon="0.4633">
        <ele>215.399</ele>
        <time>2020-11-19T05:15:25Z</time>
      </trkpt>
      <trkpt lat="45.6828" lon="0.46367">
        <ele>216.526</ele>
        <time>2020-11-19T05:15:45Z</time>
      </trkpt>
      <trkpt lat="45.68257" lon="0.46356">
        <ele>214.247</ele>
        <time>2020-11-19T05:16:05Z</time>
      </trkpt>
      <trkpt lat="45.68166" lon="0.46345">
        <ele>209.311</ele>
        <time>2020-11-19T05:16:25Z</time>
      </trkpt>
      <trkpt lat="45.6812" lon="0.46341">
        <ele>203.108</ele>
        <time>2020-11-19T05:16:45Z</time>
      </trkpt>
      <trkpt lat="45.68104" lon="0.46397">
        <ele>202.238</ele>
        <time>2017-03-23T22:13:24Z</time>
      </trkpt>
      <trkpt lat="45.68068" lon="0.46458">
        <ele>197.552</ele>
        <time>2017-03-23T22:13:44Z</time>
      </trkpt>
      <trkpt lat="45.68086" lon="0.46555">
        <ele>198.639</ele>
        <time>2017-03-23T22:14:04Z</time>
      </trkpt>
      <trkpt lat="45.68143" lon="0.46649">
        <ele>207.582</ele>
        <time>2017-03-23T22:14:24Z</time>
      </trkpt>
      <trkpt lat="45.68197" lon="0.46773">
        <ele>206.473</ele>
        <time>2017-03-23T22:14:44Z</time>
      </trkpt>
      <trkpt lat="45.68232" lon="0.46814">
        <ele>206.836</ele>
        <time>2017-03-23T22:15:04Z</time>
      </trkpt>
      <trkpt lat="45.68245" lon="0.46881">
        <ele>204.422</ele>
        <time>2017-03-23T22:15:24Z</time>
      </trkpt>
      <trkpt lat="45.68317" lon="0.47021">
        <ele>205.626</ele>
        <time>2017-03-23T22:15:44Z</time>
      </trkpt>
      <trkpt lat="45.68371" lon="0.47103">
        <ele>200.765</ele>
        <time>2017-03-23T22:16:04Z</time>
      </trkpt>
      <trkpt lat="45.68408" lon="0.47174">
        <ele>193.368</ele>
        <time>2017-03-23T22:16:24Z</time>
      </trkpt>
      <trkpt lat="45.68395" lon="0.47211">
        <ele>192.314</ele>
        <time>2017-03-23T22:16:44Z</time>
      </trkpt>
      <trkpt lat="45.6839" lon="0.47271">
        <ele>192.208</ele>
        <time>2017-03-23T22:17:04Z</time>
      </trkpt>
      <trkpt lat="45.684" lon="0.473">
        <ele>189.862</ele>
        <time>2017-03-23T22:17:24Z</time>
      </trkpt>
      <trkpt lat="45.68386" lon="0.47355">
        <ele>182.996</ele>
        <time>2017-03-23T22:17:44Z</time>
      </trkpt>
      <trkpt lat="45.68425" lon="0.47346">
        <ele>180.813</ele>
        <time>2017-03-23T22:18:04Z</time>
      </trkpt>
      <trkpt lat="45.68438" lon="0.47364">
        <ele>178.986</ele>
        <time>2017-03-23T22:18:24Z</time>
      </trkpt>
      <trkpt lat="45.6843" lon="0.4747">
        <ele>173.657</ele>
        <time>2017-03-23T22:18:44Z</time>
      </trkpt>
      <trkpt lat="45.68449" lon="0.4757">
        <ele>164.38</ele>
        <time>2017-03-23T22:19:04Z</time>
      </trkpt>
      <trkpt lat="45.68601" lon="0.47838">
        <ele>158.776</ele>
        <time>2017-03-23T22:19:24Z</time>
      </trkpt>
      <trkpt lat="45.68525" lon="0.47938">
        <ele>150.53</ele>
        <time>2017-03-23T22:19:44Z</time>
      </trkpt>
      <trkpt lat="45.68503" lon="0.47918">
        <ele>148.254</ele>
        <time>2017-03-23T22:20:04Z</time>
      </trkpt>
      <trkpt lat="45.68353" lon="0.48007">
        <ele>139.156</ele>
        <time>2017-03-23T22:20:24Z</time>
      </trkpt>
      <trkpt lat="45.68342" lon="0.4793">
        <ele>137.111</ele>
        <time>2017-03-23T22:20:44Z</time>
      </trkpt>
      <trkpt lat="45.68305" lon="0.47861">
        <ele>134.008</ele>
        <time>2017-03-23T22:21:04Z</time>
      </trkpt>
      <trkpt lat="45.68208" lon="0.47759">
        <ele>141.611</ele>
        <time>2017-03-23T22:21:24Z</time>
      </trkpt>
      <trkpt lat="45.68128" lon="0.47752">
        <ele>134.625</ele>
        <time>2017-03-23T22:21:44Z</time>
      </trkpt>
      <trkpt lat="45.68091" lon="0.47824">
        <ele>134.262</ele>
        <time>2017-03-23T22:22:04Z</time>
      </trkpt>
      <trkpt lat="45.68045" lon="0.47862">
        <ele>136.255</ele>
        <time>2017-03-23T22:22:24Z</time>
      </trkpt>
      <trkpt lat="45.68017" lon="0.47993">
        <ele>136.556</ele>
        <time>2017-03-23T22:22:44Z</time>
      </trkpt>
      <trkpt lat="45.68066" lon="0.4802">
        <ele>142.259</ele>
        <time>2017-03-23T22:23:04Z</time>
      </trkpt>
      <trkpt lat="45.68059" lon="0.48061">
        <ele>141.255</ele>
        <time>2017-03-23T22:23:24Z</time>
      </trkpt>
      <trkpt lat="45.68062" lon="0.48123">
        <ele>138.289</ele>
        <time>2017-03-23T22:23:44Z</time>
      </trkpt>
      <trkpt lat="45.68051" lon="0.48237">
        <ele>130.398</ele>
        <time>2017-03-23T22:24:04Z</time>
      </trkpt>
      <trkpt lat="45.68005" lon="0.4827">
        <ele>128.715</ele>
        <time>2017-03-23T22:24:24Z</time>
      </trkpt>
      <trkpt lat="45.6791" lon="0.48285">
        <ele>133.326</ele>
        <time>2017-03-23T22:24:44Z</time>
      </trkpt>
      <trkpt lat="45.67743" lon="0.48353">
        <ele>135.408</ele>
        <time>2017-03-23T22:25:04Z</time>
      </trkpt>
      <trkpt lat="45.67635" lon="0.48433">
        <ele>128.385</ele>
        <time>2017-03-23T22:25:24Z</time>
      </trkpt>
      <trkpt lat="45.67485" lon="0.48504">
        <ele>121.259</ele>
        <time>2017-03-23T22:25:44Z</time>
      </trkpt>
      <trkpt lat="45.67384" lon="0.48588">
        <ele>112.036</ele>
        <time>2017-03-23T22:26:04Z</time>
      </trkpt>
      <trkpt lat="45.67408" lon="0.4866">
        <ele>111.769</ele>
        <time>2017-03-23T22:26:24Z</time>
      </trkpt>
      <trkpt lat="45.67427" lon="0.48796">
        <ele>114.62</ele>
        <time>2017-03-23T22:26:44Z</time>
      </trkpt>
      <trkpt lat="45.67442" lon="0.48899">
        <ele>116.233</ele>
        <time>2017-03-23T22:27:04Z</time>
      </trkpt>
      <trkpt lat="45.67467" lon="0.49023">
        <ele>116.059</ele>
        <time>2017-03-23T22:27:24Z</time>
      </trkpt>
      <trkpt lat="45.67489" lon="0.49205">
        <ele>112.243</ele>
        <time>2017-03-23T22:27:44Z</time>
      </trkpt>
      <trkpt lat="45.67487" lon="0.49301">
        <ele>108.654</ele>
        <time>2017-03-23T22:28:04Z</time>
      </trkpt>
      <trkpt lat="45.67506" lon="0.49384">
        <ele>112.056</ele>
        <time>2017-03-23T22:28:24Z</time>
      </trkpt>
      <trkpt lat="45.67486" lon="0.49434">
        <ele>112.011</ele>
        <time>2017-03-23T22:28:44Z</time>
      </trkpt>
      <trkpt lat="45.67491" lon="0.49562">
        <ele>110.308</ele>
        <time>2017-03-23T22:29:04Z</time>
      </trkpt>
      <trkpt lat="45.67754" lon="0.49814">
        <ele>116.391</ele>
        <time>2017-03-23T22:29:24Z</time>
      </trkpt>
      <trkpt lat="45.67816" lon="0.49847">
        <ele>121.645</ele>
        <time>2017-03-23T22:29:44Z</time>
      </trkpt>
      <trkpt lat="45.67799" lon="0.4995">
        <ele>116.182</ele>
        <time>2017-03-23T22:30:04Z</time>
      </trkpt>
      <trkpt lat="45.67812" lon="0.4999">
        <ele>114.715</ele>
        <time>2017-03-23T22:30:24Z</time>
      </trkpt>
      <trkpt lat="45.67876" lon="0.50069">
        <ele>121.646</ele>
        <time>2017-03-23T22:30:44Z</time>
      </trkpt>
      <trkpt lat="45.67915" lon="0.50183">
        <ele>124.039</ele>
        <time>2017-03-23T22:31:04Z</time>
      </trkpt>
      <trkpt lat="45.67918" lon="0.50255">
        <ele>120.185</ele>
        <time>2017-03-23T22:31:24Z</time>
      </trkpt>
      <trkpt lat="45.68029" lon="0.50331">
        <ele>124.199</ele>
        <time>2017-03-23T22:31:44Z</time>
      </trkpt>
      <trkpt lat="45.6803" lon="0.50387">
        <ele>121.968</ele>
        <time>2017-03-23T22:32:04Z</time>
      </trkpt>
      <trkpt lat="45.67914" lon="0.50508">
        <ele>122.742</ele>
        <time>2017-03-23T22:32:24Z</time>
      </trkpt>
      <trkpt lat="45.67856" lon="0.50657">
        <ele>118.726</ele>
        <time>2017-03-23T22:32:44Z</time>
      </trkpt>
      <trkpt lat="45.6781" lon="0.50812">
        <ele>114.708</ele>
        <time>2017-03-23T22:33:04Z</time>
      </trkpt>
      <trkpt lat="45.67712" lon="0.51236">
        <ele>117.432</ele>
        <time>2017-03-23T22:33:24Z</time>
      </trkpt>
      <trkpt lat="45.67712" lon="0.51236">
        <ele>117.466</ele>
        <time>2017-03-23T22:33:44Z</time>
      </trkpt>
      <trkpt lat="45.67702" lon="0.51323">
        <ele>120.913</ele>
        <time>2017-03-23T22:34:04Z</time>
      </trkpt>
      <trkpt lat="45.67692" lon="0.51313">
        <ele>118.036</ele>
        <time>2017-03-23T22:34:24Z</time>
      </trkpt>
      <trkpt lat="45.67687" lon="0.51285">
        <ele>115.277</ele>
        <time>2017-03-23T22:34:44Z</time>
      </trkpt>
      <trkpt lat="45.67659" lon="0.51265">
        <ele>115.01</ele>
        <time>2017-03-23T22:35:04Z</time>
      </trkpt>
      <trkpt lat="45.67645" lon="0.51182">
        <ele>118.116</ele>
        <time>2017-03-23T22:35:24Z</time>
      </trkpt>
      <trkpt lat="45.67599" lon="0.51158">
        <ele>122.27</ele>
        <time>2017-03-23T22:35:44Z</time>
      </trkpt>
      <trkpt lat="45.67552" lon="0.51105">
        <ele>122.198</ele>
        <time>2017-03-23T22:36:04Z</time>
      </trkpt>
      <trkpt lat="45.67252" lon="0.51051">
        <ele>141.915</ele>
        <time>2017-03-23T22:36:24Z</time>
      </trkpt>
      <trkpt lat="45.67245" lon="0.50939">
        <ele>140.426</ele>
        <time>2017-03-23T22:36:44Z</time>
      </trkpt>
      <trkpt lat="45.67215" lon="0.50866">
        <ele>141.508</ele>
        <time>2017-03-23T22:37:04Z</time>
      </trkpt>
      <trkpt lat="45.67153" lon="0.50789">
        <ele>138.875</ele>
        <time>2017-03-23T22:37:24Z</time>
      </trkpt>
      <trkpt lat="45.67059" lon="0.5068">
        <ele>136.289</ele>
        <time>2017-03-23T22:37:44Z</time>
      </trkpt>
      <trkpt lat="45.67008" lon="0.50476">
        <ele>138.956</ele>
        <time>2017-03-23T22:38:04Z</time>
      </trkpt>
      <trkpt lat="45.67002" lon="0.50347">
        <ele>143.919</ele>
        <time>2017-03-23T22:38:24Z</time>
      </trkpt>
      <trkpt lat="45.66964" lon="0.50323">
        <ele>145.33</ele>
        <time>2017-03-23T22:38:44Z</time>
      </trkpt>
      <trkpt lat="45.66948" lon="0.50349">
        <ele>145.943</ele>
        <time>2017-03-23T22:39:04Z</time>
      </trkpt>
      <trkpt lat="45.66907" lon="0.50364">
        <ele>146.869</ele>
        <time>2017-03-23T22:39:24Z</time>
      </trkpt>
      <trkpt lat="45.66867" lon="0.50491">
        <ele>140.933</ele>
        <time>2017-03-23T22:39:44Z</time>
      </trkpt>
      <trkpt lat="45.66816" lon="0.50534">
        <ele>140.342</ele>
        <time>2017-03-23T22:40:04Z</time>
      </trkpt>
      <trkpt lat="45.6672" lon="0.5057">
        <ele>145.622</ele>
        <time>2017-03-23T22:40:24Z</time>
      </trkpt>
      <trkpt lat="45.66566" lon="0.506">
        <ele>148.414</ele>
        <time>2017-03-23T22:41:04Z</time>
      </trkpt>
      <trkpt lat="45.66587" lon="0.5074">
        <ele>154.808</ele>
        <time>2017-03-23T22:41:24Z</time>
      </trkpt>
      <trkpt lat="45.6657" lon="0.50757">
        <ele>154.81</ele>
        <time>2017-03-23T22:41:44Z</time>
      </trkpt>
      <trkpt lat="45.66543" lon="0.50834">
        <ele>158.084</ele>
        <time>2017-03-23T22:42:44Z</time>
      </trkpt>
      <trkpt lat="45.66456" lon="0.50883">
        <ele>155.881</ele>
        <time>2017-03-23T22:43:04Z</time>
      </trkpt>
      <trkpt lat="45.6647" lon="0.50956">
        <ele>159.244</ele>
        <time>2017-03-23T22:43:24Z</time>
      </trkpt>
      <trkpt lat="45.66398" lon="0.5101">
        <ele>163.185</ele>
        <time>2017-03-23T22:43:44Z</time>
      </trkpt>
      <trkpt lat="45.66345" lon="0.51083">
        <ele>167.658</ele>
        <time>2017-03-23T22:44:04Z</time>
      </trkpt>
      <trkpt lat="45.66309" lon="0.51169">
        <ele>163.694</ele>
        <time>2017-03-23T22:44:24Z</time>
      </trkpt>
      <trkpt lat="45.66264" lon="0.51238">
        <ele>166.288</ele>
        <time>2017-03-23T22:44:44Z</time>
      </trkpt>
      <trkpt lat="45.66177" lon="0.51429">
        <ele>162.592</ele>
        <time>2017-03-23T22:45:04Z</time>
      </trkpt>
      <trkpt lat="45.66187" lon="0.51503">
        <ele>158.573</ele>
        <time>2020-11-19T05:48:05Z</time>
      </trkpt>
      <trkpt lat="45.6618" lon="0.51557">
        <ele>158.02</ele>
        <time>2020-11-19T05:48:25Z</time>
      </trkpt>
      <trkpt lat="45.66056" lon="0.5166">
        <ele>170.008</ele>
        <time>2020-11-19T05:48:45Z</time>
      </trkpt>
      <trkpt lat="45.65913" lon="0.51543">
        <ele>174.175</ele>
        <time>2020-11-19T05:49:05Z</time>
      </trkpt>
      <trkpt lat="45.6588" lon="0.51793">
        <ele>168.799</ele>
        <time>2017-03-23T22:46:44Z</time>
      </trkpt>
      <trkpt lat="45.65933" lon="0.51819">
        <ele>170.896</ele>
        <time>2017-03-23T22:47:04Z</time>
      </trkpt>
      <trkpt lat="45.65946" lon="0.51843">
        <ele>172.069</ele>
        <time>2017-03-23T22:47:24Z</time>
      </trkpt>
      <trkpt lat="45.65943" lon="0.51875">
        <ele>172.57</ele>
        <time>2017-03-23T22:47:44Z</time>
      </trkpt>
      <trkpt lat="45.6599" lon="0.51886">
        <ele>171.163</ele>
        <time>2017-03-23T22:48:04Z</time>
      </trkpt>
      <trkpt lat="45.66071" lon="0.51944">
        <ele>168.349</ele>
        <time>2017-03-23T22:48:24Z</time>
      </trkpt>
      <trkpt lat="45.66108" lon="0.51928">
        <ele>163.543</ele>
        <time>2017-03-23T22:48:44Z</time>
      </trkpt>
      <trkpt lat="45.66146" lon="0.51967">
        <ele>164.133</ele>
        <time>2017-03-23T22:49:04Z</time>
      </trkpt>
      <trkpt lat="45.66314" lon="0.5204">
        <ele>142.323</ele>
        <time>2017-03-23T22:49:24Z</time>
      </trkpt>
      <trkpt lat="45.6636" lon="0.51995">
        <ele>136.915</ele>
        <time>2017-03-23T22:49:44Z</time>
      </trkpt>
      <trkpt lat="45.66402" lon="0.51974">
        <ele>133.108</ele>
        <time>2017-03-23T22:50:04Z</time>
      </trkpt>
      <trkpt lat="45.66497" lon="0.51662">
        <ele>117.129</ele>
        <time>2017-03-23T22:50:24Z</time>
      </trkpt>
      <trkpt lat="45.66599" lon="0.5175">
        <ele>114.943</ele>
        <time>2017-03-23T22:50:44Z</time>
      </trkpt>
      <trkpt lat="45.66641" lon="0.5186">
        <ele>117.82</ele>
        <time>2017-03-23T22:51:04Z</time>
      </trkpt>
      <trkpt lat="45.66686" lon="0.51954">
        <ele>120.073</ele>
        <time>2017-03-23T22:51:24Z</time>
      </trkpt>
      <trkpt lat="45.66708" lon="0.52051">
        <ele>119.954</ele>
        <time>2017-03-23T22:51:44Z</time>
      </trkpt>
      <trkpt lat="45.66704" lon="0.52205">
        <ele>130.017</ele>
        <time>2017-03-23T22:52:04Z</time>
      </trkpt>
      <trkpt lat="45.66686" lon="0.52448">
        <ele>142.733</ele>
        <time>2017-03-23T22:52:24Z</time>
      </trkpt>
      <trkpt lat="45.66692" lon="0.52559">
        <ele>142.047</ele>
        <time>2017-03-23T22:52:44Z</time>
      </trkpt>
      <trkpt lat="45.66669" lon="0.5268">
        <ele>147.163</ele>
        <time>2017-03-23T22:53:04Z</time>
      </trkpt>
      <trkpt lat="45.66671" lon="0.5277">
        <ele>154.444</ele>
        <time>2017-03-23T22:53:24Z</time>
      </trkpt>
      <trkpt lat="45.66684" lon="0.5283">
        <ele>158.818</ele>
        <time>2017-03-23T22:53:44Z</time>
      </trkpt>
      <trkpt lat="45.66702" lon="0.52963">
        <ele>155.508</ele>
        <time>2017-03-23T22:54:04Z</time>
      </trkpt>
      <trkpt lat="45.66684" lon="0.53036">
        <ele>155.112</ele>
        <time>2017-03-23T22:54:24Z</time>
      </trkpt>
      <trkpt lat="45.66672" lon="0.53132">
        <ele>155.196</ele>
        <time>2017-03-23T22:54:44Z</time>
      </trkpt>
      <trkpt lat="45.66707" lon="0.53111">
        <ele>152.053</ele>
        <time>2017-03-23T22:55:04Z</time>
      </trkpt>
      <trkpt lat="45.66753" lon="0.5313">
        <ele>150.446</ele>
        <time>2017-03-23T22:55:24Z</time>
      </trkpt>
      <trkpt lat="45.66796" lon="0.5324">
        <ele>145.237</ele>
        <time>2017-03-23T22:55:44Z</time>
      </trkpt>
      <trkpt lat="45.66843" lon="0.53343">
        <ele>136.55</ele>
        <time>2017-03-23T22:56:04Z</time>
      </trkpt>
      <trkpt lat="45.66882" lon="0.53538">
        <ele>130.236</ele>
        <time>2017-03-23T22:56:24Z</time>
      </trkpt>
      <trkpt lat="45.66901" lon="0.53568">
        <ele>128.12</ele>
        <time>2017-03-23T22:56:44Z</time>
      </trkpt>
      <trkpt lat="45.6694" lon="0.53561">
        <ele>127.018</ele>
        <time>2017-03-23T22:57:04Z</time>
      </trkpt>
      <trkpt lat="45.67068" lon="0.53463">
        <ele>129.298</ele>
        <time>2017-03-23T22:57:24Z</time>
      </trkpt>
      <trkpt lat="45.67075" lon="0.53566">
        <ele>135.517</ele>
        <time>2017-03-23T22:57:44Z</time>
      </trkpt>
      <trkpt lat="45.67096" lon="0.53635">
        <ele>131.508</ele>
        <time>2017-03-23T22:58:04Z</time>
      </trkpt>
      <trkpt lat="45.67098" lon="0.53763">
        <ele>133.617</ele>
        <time>2017-03-23T22:58:24Z</time>
      </trkpt>
      <trkpt lat="45.67121" lon="0.53818">
        <ele>133.581</ele>
        <time>2017-03-23T22:58:44Z</time>
      </trkpt>
      <trkpt lat="45.67107" lon="0.53846">
        <ele>130.118</ele>
        <time>2017-03-23T22:59:04Z</time>
      </trkpt>
      <trkpt lat="45.67079" lon="0.53839">
        <ele>126.861</ele>
        <time>2017-03-23T22:59:24Z</time>
      </trkpt>
      <trkpt lat="45.67061" lon="0.5385">
        <ele>127.472</ele>
        <time>2017-03-23T22:59:44Z</time>
      </trkpt>
      <trkpt lat="45.67023" lon="0.53885">
        <ele>125.165</ele>
        <time>2017-03-23T23:00:04Z</time>
      </trkpt>
      <trkpt lat="45.66946" lon="0.54">
        <ele>135.851</ele>
        <time>2017-03-23T23:00:24Z</time>
      </trkpt>
      <trkpt lat="45.66866" lon="0.54028">
        <ele>131.615</ele>
        <time>2017-03-23T23:00:44Z</time>
      </trkpt>
      <trkpt lat="45.66829" lon="0.54066">
        <ele>132.973</ele>
        <time>2017-03-23T23:01:04Z</time>
      </trkpt>
      <trkpt lat="45.6679" lon="0.54058">
        <ele>129.285</ele>
        <time>2017-03-23T23:01:24Z</time>
      </trkpt>
      <trkpt lat="45.66723" lon="0.54088">
        <ele>133.113</ele>
        <time>2017-03-23T23:01:44Z</time>
      </trkpt>
      <trkpt lat="45.66636" lon="0.54049">
        <ele>135.208</ele>
        <time>2017-03-23T23:02:04Z</time>
      </trkpt>
      <trkpt lat="45.66583" lon="0.53985">
        <ele>129.963</ele>
        <time>2017-03-23T23:02:24Z</time>
      </trkpt>
      <trkpt lat="45.66499" lon="0.53949">
        <ele>130.537</ele>
        <time>2017-03-23T23:02:44Z</time>
      </trkpt>
      <trkpt lat="45.66442" lon="0.53958">
        <ele>133.744</ele>
        <time>2017-03-23T23:03:04Z</time>
      </trkpt>
      <trkpt lat="45.66389" lon="0.53951">
        <ele>136.747</ele>
        <time>2017-03-23T23:03:24Z</time>
      </trkpt>
      <trkpt lat="45.66308" lon="0.53958">
        <ele>143.328</ele>
        <time>2017-03-23T23:03:44Z</time>
      </trkpt>
      <trkpt lat="45.66316" lon="0.54046">
        <ele>147.331</ele>
        <time>2017-03-23T23:04:04Z</time>
      </trkpt>
      <trkpt lat="45.66347" lon="0.54155">
        <ele>158.577</ele>
        <time>2017-03-23T23:04:24Z</time>
      </trkpt>
      <trkpt lat="45.66217" lon="0.53992">
        <ele>139.821</ele>
        <time>2017-03-23T23:04:44Z</time>
      </trkpt>
      <trkpt lat="45.66149" lon="0.53969">
        <ele>134.123</ele>
        <time>2017-03-23T23:05:04Z</time>
      </trkpt>
      <trkpt lat="45.66106" lon="0.54018">
        <ele>132.583</ele>
        <time>2017-03-23T23:05:24Z</time>
      </trkpt>
      <trkpt lat="45.6608" lon="0.54123">
        <ele>130.911</ele>
        <time>2017-03-23T23:05:44Z</time>
      </trkpt>
      <trkpt lat="45.66075" lon="0.54202">
        <ele>132.508</ele>
        <time>2017-03-23T23:06:04Z</time>
      </trkpt>
      <trkpt lat="45.66066" lon="0.54224">
        <ele>129.528</ele>
        <time>2017-03-23T23:06:24Z</time>
      </trkpt>
      <trkpt lat="45.66053" lon="0.54332">
        <ele>130.572</ele>
        <time>2017-03-23T23:06:44Z</time>
      </trkpt>
      <trkpt lat="45.66003" lon="0.54554">
        <ele>130.239</ele>
        <time>2017-03-23T23:07:04Z</time>
      </trkpt>
      <trkpt lat="45.65993" lon="0.54702">
        <ele>131.342</ele>
        <time>2017-03-23T23:07:24Z</time>
      </trkpt>
      <trkpt lat="45.65945" lon="0.54888">
        <ele>133.963</ele>
        <time>2017-03-23T23:07:44Z</time>
      </trkpt>
      <trkpt lat="45.65938" lon="0.55033">
        <ele>131.126</ele>
        <time>2017-03-23T23:08:04Z</time>
      </trkpt>
      <trkpt lat="45.6587" lon="0.55153">
        <ele>125.572</ele>
        <time>2017-03-23T23:08:24Z</time>
      </trkpt>
      <trkpt lat="45.6583" lon="0.55169">
        <ele>124.146</ele>
        <time>2017-03-23T23:08:44Z</time>
      </trkpt>
      <trkpt lat="45.65776" lon="0.55112">
        <ele>127.199</ele>
        <time>2017-03-23T23:09:04Z</time>
      </trkpt>
      <trkpt lat="45.6576" lon="0.55049">
        <ele>134.207</ele>
        <time>2017-03-23T23:09:24Z</time>
      </trkpt>
      <trkpt lat="45.65638" lon="0.5529">
        <ele>134.427</ele>
        <time>2017-03-23T23:09:44Z</time>
      </trkpt>
      <trkpt lat="45.65638" lon="0.55342">
        <ele>136.308</ele>
        <time>2017-03-23T23:10:04Z</time>
      </trkpt>
      <trkpt lat="45.65651" lon="0.55405">
        <ele>135.675</ele>
        <time>2017-03-23T23:10:24Z</time>
      </trkpt>
      <trkpt lat="45.65627" lon="0.55472">
        <ele>137.939</ele>
        <time>2017-03-23T23:10:44Z</time>
      </trkpt>
      <trkpt lat="45.6571" lon="0.55551">
        <ele>137.976</ele>
        <time>2017-03-23T23:11:04Z</time>
      </trkpt>
      <trkpt lat="45.6571" lon="0.55599">
        <ele>142.569</ele>
        <time>2017-03-23T23:11:24Z</time>
      </trkpt>
      <trkpt lat="45.65675" lon="0.55614">
        <ele>142.57</ele>
        <time>2017-03-23T23:11:44Z</time>
      </trkpt>
      <trkpt lat="45.6556" lon="0.55821">
        <ele>151.333</ele>
        <time>2017-03-23T23:12:04Z</time>
      </trkpt>
      <trkpt lat="45.65532" lon="0.5585">
        <ele>154.579</ele>
        <time>2017-03-23T23:12:24Z</time>
      </trkpt>
      <trkpt lat="45.65432" lon="0.55867">
        <ele>159.483</ele>
        <time>2017-03-23T23:12:44Z</time>
      </trkpt>
      <trkpt lat="45.65399" lon="0.55882">
        <ele>161.843</ele>
        <time>2017-03-23T23:13:04Z</time>
      </trkpt>
      <trkpt lat="45.65348" lon="0.55866">
        <ele>165.664</ele>
        <time>2017-03-23T23:13:24Z</time>
      </trkpt>
      <trkpt lat="45.65244" lon="0.55806">
        <ele>170.51</ele>
        <time>2017-03-23T23:13:44Z</time>
      </trkpt>
      <trkpt lat="45.65194" lon="0.55806">
        <ele>169.008</ele>
        <time>2017-03-23T23:14:04Z</time>
      </trkpt>
      <trkpt lat="45.65121" lon="0.55765">
        <ele>170.05</ele>
        <time>2017-03-23T23:14:24Z</time>
      </trkpt>
      <trkpt lat="45.65015" lon="0.55766">
        <ele>171.054</ele>
        <time>2017-03-23T23:14:44Z</time>
      </trkpt>
      <trkpt lat="45.64955" lon="0.55742">
        <ele>176.061</ele>
        <time>2017-03-23T23:15:04Z</time>
      </trkpt>
      <trkpt lat="45.64908" lon="0.55701">
        <ele>171.424</ele>
        <time>2017-03-23T23:15:24Z</time>
      </trkpt>
      <trkpt lat="45.64866" lon="0.5571">
        <ele>170.565</ele>
        <time>2017-03-23T23:15:44Z</time>
      </trkpt>
      <trkpt lat="45.64808" lon="0.55788">
        <ele>172.298</ele>
        <time>2017-03-23T23:16:04Z</time>
      </trkpt>
      <trkpt lat="45.64778" lon="0.55914">
        <ele>177.984</ele>
        <time>2017-03-23T23:16:24Z</time>
      </trkpt>
      <trkpt lat="45.64772" lon="0.56002">
        <ele>186.378</ele>
        <time>2017-03-23T23:16:44Z</time>
      </trkpt>
      <trkpt lat="45.64747" lon="0.56019">
        <ele>183.859</ele>
        <time>2017-03-23T23:17:04Z</time>
      </trkpt>
      <trkpt lat="45.64699" lon="0.55974">
        <ele>176.203</ele>
        <time>2017-03-23T23:17:24Z</time>
      </trkpt>
      <trkpt lat="45.64649" lon="0.56005">
        <ele>180.723</ele>
        <time>2017-03-23T23:17:44Z</time>
      </trkpt>
      <trkpt lat="45.64625" lon="0.55986">
        <ele>181.308</ele>
        <time>2017-03-23T23:18:04Z</time>
      </trkpt>
      <trkpt lat="45.64609" lon="0.55992">
        <ele>181.971</ele>
        <time>2017-03-23T23:18:24Z</time>
      </trkpt>
      <trkpt lat="45.64604" lon="0.56006">
        <ele>182.225</ele>
        <time>2017-03-23T23:18:44Z</time>
      </trkpt>
      <trkpt lat="45.64582" lon="0.56037">
        <ele>183.992</ele>
        <time>2017-03-23T23:19:04Z</time>
      </trkpt>
      <trkpt lat="45.6437" lon="0.56119">
        <ele>197.195</ele>
        <time>2017-03-23T23:19:24Z</time>
      </trkpt>
      <trkpt lat="45.64348" lon="0.56146">
        <ele>201.216</ele>
        <time>2017-03-23T23:19:44Z</time>
      </trkpt>
      <trkpt lat="45.64291" lon="0.56156">
        <ele>204.829</ele>
        <time>2017-03-23T23:20:04Z</time>
      </trkpt>
      <trkpt lat="45.64268" lon="0.56184">
        <ele>208.835</ele>
        <time>2017-03-23T23:20:24Z</time>
      </trkpt>
      <trkpt lat="45.64264" lon="0.56242">
        <ele>215.689</ele>
        <time>2017-03-23T23:20:44Z</time>
      </trkpt>
      <trkpt lat="45.64174" lon="0.5629">
        <ele>215.724</ele>
        <time>2017-03-23T23:21:04Z</time>
      </trkpt>
      <trkpt lat="45.64175" lon="0.56363">
        <ele>220.904</ele>
        <time>2017-03-23T23:21:24Z</time>
      </trkpt>
      <trkpt lat="45.64159" lon="0.56411">
        <ele>222.314</ele>
        <time>2017-03-23T23:21:44Z</time>
      </trkpt>
      <trkpt lat="45.64135" lon="0.56407">
        <ele>221.208</ele>
        <time>2017-03-23T23:22:04Z</time>
      </trkpt>
      <trkpt lat="45.64137" lon="0.56459">
        <ele>225.078</ele>
        <time>2017-03-23T23:22:24Z</time>
      </trkpt>
      <trkpt lat="45.64142" lon="0.56496">
        <ele>226.252</ele>
        <time>2017-03-23T23:22:44Z</time>
      </trkpt>
      <trkpt lat="45.64166" lon="0.56537">
        <ele>228.049</ele>
        <time>2017-03-23T23:23:04Z</time>
      </trkpt>
      <trkpt lat="45.64151" lon="0.56665">
        <ele>226.812</ele>
        <time>2017-03-23T23:23:24Z</time>
      </trkpt>
      <trkpt lat="45.64159" lon="0.56732">
        <ele>225.763</ele>
        <time>2017-03-23T23:23:44Z</time>
      </trkpt>
      <trkpt lat="45.64131" lon="0.56922">
        <ele>238.466</ele>
        <time>2017-03-23T23:24:04Z</time>
      </trkpt>
      <trkpt lat="45.64098" lon="0.57042">
        <ele>247.562</ele>
        <time>2017-03-23T23:24:24Z</time>
      </trkpt>
      <trkpt lat="45.64131" lon="0.57109">
        <ele>246.346</ele>
        <time>2017-03-23T23:24:44Z</time>
      </trkpt>
      <trkpt lat="45.64124" lon="0.57132">
        <ele>247.374</ele>
        <time>2017-03-23T23:25:04Z</time>
      </trkpt>
      <trkpt lat="45.64135" lon="0.57204">
        <ele>247.956</ele>
        <time>2017-03-23T23:25:24Z</time>
      </trkpt>
      <trkpt lat="45.64243" lon="0.57489">
        <ele>247.521</ele>
        <time>2017-03-23T23:25:44Z</time>
      </trkpt>
      <trkpt lat="45.6431" lon="0.57594">
        <ele>254.508</ele>
        <time>2017-03-23T23:26:04Z</time>
      </trkpt>
      <trkpt lat="45.64338" lon="0.57643">
        <ele>259.043</ele>
        <time>2017-03-23T23:26:24Z</time>
      </trkpt>
      <trkpt lat="45.6441" lon="0.57875">
        <ele>263.617</ele>
        <time>2017-03-23T23:26:44Z</time>
      </trkpt>
      <trkpt lat="45.64424" lon="0.57962">
        <ele>258.694</ele>
        <time>2017-03-23T23:27:04Z</time>
      </trkpt>
      <trkpt lat="45.64478" lon="0.58132">
        <ele>255.527</ele>
        <time>2017-03-23T23:27:24Z</time>
      </trkpt>
      <trkpt lat="45.64487" lon="0.58164">
        <ele>259.158</ele>
        <time>2017-03-23T23:27:44Z</time>
      </trkpt>
      <trkpt lat="45.64535" lon="0.58229">
        <ele>257.191</ele>
        <time>2017-03-23T23:28:04Z</time>
      </trkpt>
      <trkpt lat="45.64542" lon="0.58406">
        <ele>255.047</ele>
        <time>2017-03-23T23:28:24Z</time>
      </trkpt>
      <trkpt lat="45.64565" lon="0.58459">
        <ele>254.471</ele>
        <time>2017-03-23T23:28:44Z</time>
      </trkpt>
      <trkpt lat="45.64587" lon="0.58467">
        <ele>251.966</ele>
        <time>2017-03-23T23:29:04Z</time>
      </trkpt>
      <trkpt lat="45.64691" lon="0.58426">
        <ele>237.929</ele>
        <time>2017-03-23T23:29:24Z</time>
      </trkpt>
      <trkpt lat="45.6476" lon="0.58442">
        <ele>234.721</ele>
        <time>2017-03-23T23:29:44Z</time>
      </trkpt>
      <trkpt lat="45.6478" lon="0.58498">
        <ele>233.608</ele>
        <time>2017-03-23T23:30:04Z</time>
      </trkpt>
      <trkpt lat="45.64773" lon="0.58569">
        <ele>233.712</ele>
        <time>2017-03-23T23:30:24Z</time>
      </trkpt>
      <trkpt lat="45.64797" lon="0.58632">
        <ele>230.736</ele>
        <time>2017-03-23T23:30:44Z</time>
      </trkpt>
      <trkpt lat="45.64802" lon="0.58702">
        <ele>226.743</ele>
        <time>2017-03-23T23:31:04Z</time>
      </trkpt>
      <trkpt lat="45.64676" lon="0.58893">
        <ele>217.986</ele>
        <time>2017-03-23T23:31:24Z</time>
      </trkpt>
      <trkpt lat="45.64673" lon="0.58938">
        <ele>213.187</ele>
        <time>2017-03-23T23:31:44Z</time>
      </trkpt>
      <trkpt lat="45.64695" lon="0.58979">
        <ele>205.51</ele>
        <time>2017-03-23T23:32:04Z</time>
      </trkpt>
      <trkpt lat="45.64748" lon="0.59007">
        <ele>200.416</ele>
        <time>2017-03-23T23:32:24Z</time>
      </trkpt>
      <trkpt lat="45.6484" lon="0.59007">
        <ele>195.64</ele>
        <time>2017-03-23T23:32:44Z</time>
      </trkpt>
      <trkpt lat="45.64887" lon="0.59046">
        <ele>189.619</ele>
        <time>2017-03-23T23:33:04Z</time>
      </trkpt>
      <trkpt lat="45.64925" lon="0.5916">
        <ele>187.509</ele>
        <time>2017-03-23T23:33:24Z</time>
      </trkpt>
      <trkpt lat="45.64973" lon="0.592">
        <ele>187.019</ele>
        <time>2017-03-23T23:33:44Z</time>
      </trkpt>
      <trkpt lat="45.65102" lon="0.59264">
        <ele>181.108</ele>
        <time>2017-03-23T23:34:04Z</time>
      </trkpt>
      <trkpt lat="45.65112" lon="0.59302">
        <ele>180.667</ele>
        <time>2017-03-23T23:34:24Z</time>
      </trkpt>
      <trkpt lat="45.65122" lon="0.59402">
        <ele>183.251</ele>
        <time>2017-03-23T23:34:44Z</time>
      </trkpt>
      <trkpt lat="45.6516" lon="0.59512">
        <ele>175.368</ele>
        <time>2017-03-23T23:35:04Z</time>
      </trkpt>
      <trkpt lat="45.65141" lon="0.59614">
        <ele>177.571</ele>
        <time>2017-03-23T23:35:24Z</time>
      </trkpt>
      <trkpt lat="45.65163" lon="0.59646">
        <ele>173.952</ele>
        <time>2017-03-23T23:35:44Z</time>
      </trkpt>
      <trkpt lat="45.65218" lon="0.59665">
        <ele>175.815</ele>
        <time>2017-03-23T23:36:04Z</time>
      </trkpt>
      <trkpt lat="45.65279" lon="0.59715">
        <ele>183.831</ele>
        <time>2017-03-23T23:36:24Z</time>
      </trkpt>
      <trkpt lat="45.6538" lon="0.5975">
        <ele>192.075</ele>
        <time>2017-03-23T23:36:44Z</time>
      </trkpt>
      <trkpt lat="45.65408" lon="0.59819">
        <ele>195.782</ele>
        <time>2017-03-23T23:37:04Z</time>
      </trkpt>
      <trkpt lat="45.65486" lon="0.59867">
        <ele>200.943</ele>
        <time>2017-03-23T23:37:24Z</time>
      </trkpt>
      <trkpt lat="45.65512" lon="0.60032">
        <ele>193.417</ele>
        <time>2017-03-23T23:37:44Z</time>
      </trkpt>
      <trkpt lat="45.65478" lon="0.60153">
        <ele>193.108</ele>
        <time>2017-03-23T23:38:04Z</time>
      </trkpt>
      <trkpt lat="45.65399" lon="0.60319">
        <ele>191.864</ele>
        <time>2017-03-23T23:38:24Z</time>
      </trkpt>
      <trkpt lat="45.65311" lon="0.60465">
        <ele>190.258</ele>
        <time>2017-03-23T23:38:44Z</time>
      </trkpt>
      <trkpt lat="45.65245" lon="0.60419">
        <ele>192.935</ele>
        <time>2017-03-23T23:39:04Z</time>
      </trkpt>
      <trkpt lat="45.6524" lon="0.60474">
        <ele>195.018</ele>
        <time>2017-03-23T23:39:24Z</time>
      </trkpt>
      <trkpt lat="45.65243" lon="0.60548">
        <ele>195.539</ele>
        <time>2017-03-23T23:39:44Z</time>
      </trkpt>
      <trkpt lat="45.65224" lon="0.60615">
        <ele>196.962</ele>
        <time>2017-03-23T23:40:04Z</time>
      </trkpt>
      <trkpt lat="45.65276" lon="0.60742">
        <ele>193.878</ele>
        <time>2017-03-23T23:40:24Z</time>
      </trkpt>
      <trkpt lat="45.65277" lon="0.60788">
        <ele>195.812</ele>
        <time>2017-03-23T23:40:44Z</time>
      </trkpt>
      <trkpt lat="45.65324" lon="0.60911">
        <ele>210.942</ele>
        <time>2017-03-23T23:41:04Z</time>
      </trkpt>
      <trkpt lat="45.65305" lon="0.6097">
        <ele>211.022</ele>
        <time>2017-03-23T23:41:24Z</time>
      </trkpt>
      <trkpt lat="45.65308" lon="0.61065">
        <ele>212.114</ele>
        <time>2017-03-23T23:41:44Z</time>
      </trkpt>
      <trkpt lat="45.65291" lon="0.61191">
        <ele>213.508</ele>
        <time>2017-03-23T23:42:04Z</time>
      </trkpt>
      <trkpt lat="45.65264" lon="0.61257">
        <ele>219.09</ele>
        <time>2017-03-23T23:42:24Z</time>
      </trkpt>
      <trkpt lat="45.65256" lon="0.61319">
        <ele>223.724</ele>
        <time>2017-03-23T23:42:44Z</time>
      </trkpt>
      <trkpt lat="45.65254" lon="0.61385">
        <ele>229.221</ele>
        <time>2017-03-23T23:43:04Z</time>
      </trkpt>
      <trkpt lat="45.65237" lon="0.61455">
        <ele>229.624</ele>
        <time>2017-03-23T23:43:24Z</time>
      </trkpt>
      <trkpt lat="45.65225" lon="0.61565">
        <ele>230.155</ele>
        <time>2017-03-23T23:43:44Z</time>
      </trkpt>
      <trkpt lat="45.65189" lon="0.61754">
        <ele>235.088</ele>
        <time>2017-03-23T23:44:04Z</time>
      </trkpt>
      <trkpt lat="45.65161" lon="0.6179">
        <ele>234.654</ele>
        <time>2017-03-23T23:44:24Z</time>
      </trkpt>
      <trkpt lat="45.65091" lon="0.61785">
        <ele>235.538</ele>
        <time>2017-03-23T23:44:44Z</time>
      </trkpt>
      <trkpt lat="45.65013" lon="0.61846">
        <ele>243.768</ele>
        <time>2017-03-23T23:45:04Z</time>
      </trkpt>
      <trkpt lat="45.64946" lon="0.62012">
        <ele>247.842</ele>
        <time>2017-03-23T23:45:24Z</time>
      </trkpt>
      <trkpt lat="45.64829" lon="0.62225">
        <ele>264.026</ele>
        <time>2020-11-19T06:48:25Z</time>
      </trkpt>
      <trkpt lat="45.65005" lon="0.62381">
        <ele>257.708</ele>
        <time>2020-11-19T06:48:45Z</time>
      </trkpt>
      <trkpt lat="45.64928" lon="0.62623">
        <ele>258.652</ele>
        <time>2017-03-23T23:47:24Z</time>
      </trkpt>
      <trkpt lat="45.64813" lon="0.62841">
        <ele>263.016</ele>
        <time>2020-11-19T06:49:25Z</time>
      </trkpt>
      <trkpt lat="45.64828" lon="0.62942">
        <ele>265.773</ele>
        <time>2020-11-19T06:49:45Z</time>
      </trkpt>
      <trkpt lat="45.64979" lon="0.63022">
        <ele>256.546</ele>
        <time>2017-03-23T23:48:24Z</time>
      </trkpt>
      <trkpt lat="45.65002" lon="0.63051">
        <ele>255.037</ele>
        <time>2017-03-23T23:48:44Z</time>
      </trkpt>
      <trkpt lat="45.65079" lon="0.63102">
        <ele>254.38</ele>
        <time>2017-03-23T23:49:04Z</time>
      </trkpt>
      <trkpt lat="45.65123" lon="0.63154">
        <ele>252.456</ele>
        <time>2017-03-23T23:49:24Z</time>
      </trkpt>
      <trkpt lat="45.65094" lon="0.63285">
        <ele>247.03</ele>
        <time>2017-03-23T23:49:44Z</time>
      </trkpt>
      <trkpt lat="45.65026" lon="0.6339">
        <ele>237.761</ele>
        <time>2017-03-23T23:50:04Z</time>
      </trkpt>
      <trkpt lat="45.65004" lon="0.63411">
        <ele>234.521</ele>
        <time>2017-03-23T23:50:24Z</time>
      </trkpt>
      <trkpt lat="45.65012" lon="0.63487">
        <ele>235.413</ele>
        <time>2017-03-23T23:50:44Z</time>
      </trkpt>
      <trkpt lat="45.65009" lon="0.63607">
        <ele>228.608</ele>
        <time>2017-03-23T23:51:04Z</time>
      </trkpt>
      <trkpt lat="45.65023" lon="0.6366">
        <ele>227.242</ele>
        <time>2017-03-23T23:51:24Z</time>
      </trkpt>
      <trkpt lat="45.65036" lon="0.63839">
        <ele>212.376</ele>
        <time>2017-03-23T23:51:44Z</time>
      </trkpt>
      <trkpt lat="45.65023" lon="0.64082">
        <ele>199.063</ele>
        <time>2017-03-23T23:52:04Z</time>
      </trkpt>
      <trkpt lat="45.64995" lon="0.64148">
        <ele>198.486</ele>
        <time>2017-03-23T23:52:24Z</time>
      </trkpt>
      <trkpt lat="45.65054" lon="0.64222">
        <ele>206.087</ele>
        <time>2017-03-23T23:52:44Z</time>
      </trkpt>
      <trkpt lat="45.65158" lon="0.64221">
        <ele>205.77</ele>
        <time>2017-03-23T23:53:04Z</time>
      </trkpt>
      <trkpt lat="45.65285" lon="0.64331">
        <ele>214.686</ele>
        <time>2017-03-23T23:53:24Z</time>
      </trkpt>
      <trkpt lat="45.65264" lon="0.64345">
        <ele>217.98</ele>
        <time>2017-03-23T23:53:44Z</time>
      </trkpt>
      <trkpt lat="45.65246" lon="0.64373">
        <ele>222.746</ele>
        <time>2017-03-23T23:54:04Z</time>
      </trkpt>
      <trkpt lat="45.65216" lon="0.64441">
        <ele>228.288</ele>
        <time>2017-03-23T23:54:24Z</time>
      </trkpt>
      <trkpt lat="45.65128" lon="0.6449">
        <ele>232.816</ele>
        <time>2017-03-23T23:54:44Z</time>
      </trkpt>
      <trkpt lat="45.65082" lon="0.64498">
        <ele>233.008</ele>
        <time>2017-03-23T23:55:04Z</time>
      </trkpt>
      <trkpt lat="45.65057" lon="0.64605">
        <ele>232.28</ele>
        <time>2017-03-23T23:55:24Z</time>
      </trkpt>
      <trkpt lat="45.64999" lon="0.64617">
        <ele>233.114</ele>
        <time>2017-03-23T23:55:44Z</time>
      </trkpt>
      <trkpt lat="45.65002" lon="0.64667">
        <ele>232.151</ele>
        <time>2017-03-23T23:56:04Z</time>
      </trkpt>
      <trkpt lat="45.6503" lon="0.64728">
        <ele>237.544</ele>
        <time>2017-03-23T23:56:24Z</time>
      </trkpt>
      <trkpt lat="45.64973" lon="0.65016">
        <ele>252.045</ele>
        <time>2017-03-23T23:56:44Z</time>
      </trkpt>
      <trkpt lat="45.65089" lon="0.6511">
        <ele>246.928</ele>
        <time>2017-03-23T23:57:04Z</time>
      </trkpt>
      <trkpt lat="45.65108" lon="0.65148">
        <ele>249.664</ele>
        <time>2017-03-23T23:57:24Z</time>
      </trkpt>
      <trkpt lat="45.65126" lon="0.65234">
        <ele>252.788</ele>
        <time>2017-03-23T23:57:44Z</time>
      </trkpt>
      <trkpt lat="45.65179" lon="0.65337">
        <ele>259.788</ele>
        <time>2017-03-23T23:58:04Z</time>
      </trkpt>
      <trkpt lat="45.65209" lon="0.65367">
        <ele>260.224</ele>
        <time>2017-03-23T23:58:24Z</time>
      </trkpt>
      <trkpt lat="45.65172" lon="0.65466">
        <ele>259.226</ele>
        <time>2017-03-23T23:58:44Z</time>
      </trkpt>
      <trkpt lat="45.65129" lon="0.65709">
        <ele>263.908</ele>
        <time>2017-03-23T23:59:04Z</time>
      </trkpt>
      <trkpt lat="45.65127" lon="0.65767">
        <ele>265.814</ele>
        <time>2017-03-23T23:59:24Z</time>
      </trkpt>
      <trkpt lat="45.65058" lon="0.65873">
        <ele>259.468</ele>
        <time>2017-03-23T23:59:44Z</time>
      </trkpt>
      <trkpt lat="45.65048" lon="0.6592">
        <ele>258.925</ele>
        <time>2017-03-24T00:00:04Z</time>
      </trkpt>
      <trkpt lat="45.65048" lon="0.66039">
        <ele>254.528</ele>
        <time>2017-03-24T00:00:24Z</time>
      </trkpt>
      <trkpt lat="45.6507" lon="0.66125">
        <ele>252.399</ele>
        <time>2017-03-24T00:00:44Z</time>
      </trkpt>
      <trkpt lat="45.65069" lon="0.66235">
        <ele>250.832</ele>
        <time>2017-03-24T00:01:04Z</time>
      </trkpt>
      <trkpt lat="45.6503" lon="0.66246">
        <ele>252.028</ele>
        <time>2017-03-24T00:01:24Z</time>
      </trkpt>
      <trkpt lat="45.65003" lon="0.66291">
        <ele>253.972</ele>
        <time>2017-03-24T00:01:44Z</time>
      </trkpt>
      <trkpt lat="45.64945" lon="0.66464">
        <ele>257.751</ele>
        <time>2017-03-24T00:02:04Z</time>
      </trkpt>
      <trkpt lat="45.64923" lon="0.66554">
        <ele>260.701</ele>
        <time>2017-03-24T00:02:24Z</time>
      </trkpt>
      <trkpt lat="45.64851" lon="0.66698">
        <ele>263.011</ele>
        <time>2017-03-24T00:02:44Z</time>
      </trkpt>
      <trkpt lat="45.64802" lon="0.66815">
        <ele>269.208</ele>
        <time>2017-03-24T00:03:04Z</time>
      </trkpt>
      <trkpt lat="45.64724" lon="0.66972">
        <ele>267.181</ele>
        <time>2017-03-24T00:03:24Z</time>
      </trkpt>
      <trkpt lat="45.64684" lon="0.67072">
        <ele>265.465</ele>
        <time>2017-03-24T00:03:44Z</time>
      </trkpt>
      <trkpt lat="45.64646" lon="0.67109">
        <ele>266.682</ele>
        <time>2017-03-24T00:04:04Z</time>
      </trkpt>
      <trkpt lat="45.64591" lon="0.67101">
        <ele>267.725</ele>
        <time>2017-03-24T00:04:24Z</time>
      </trkpt>
      <trkpt lat="45.64575" lon="0.67112">
        <ele>267.526</ele>
        <time>2017-03-24T00:04:44Z</time>
      </trkpt>
      <trkpt lat="45.64488" lon="0.67133">
        <ele>271.079</ele>
        <time>2017-03-24T00:05:04Z</time>
      </trkpt>
      <trkpt lat="45.64288" lon="0.6711">
        <ele>276.265</ele>
        <time>2017-03-24T00:05:24Z</time>
      </trkpt>
      <trkpt lat="45.64223" lon="0.6713">
        <ele>280.099</ele>
        <time>2017-03-24T00:05:44Z</time>
      </trkpt>
      <trkpt lat="45.64148" lon="0.67097">
        <ele>283.535</ele>
        <time>2017-03-24T00:06:04Z</time>
      </trkpt>
      <trkpt lat="45.63971" lon="0.66916">
        <ele>283.086</ele>
        <time>2017-03-24T00:06:24Z</time>
      </trkpt>
      <trkpt lat="45.63893" lon="0.66858">
        <ele>280.414</ele>
        <time>2017-03-24T00:06:44Z</time>
      </trkpt>
      <trkpt lat="45.63813" lon="0.66865">
        <ele>276.308</ele>
        <time>2017-03-24T00:07:04Z</time>
      </trkpt>
      <trkpt lat="45.63744" lon="0.66895">
        <ele>271.029</ele>
        <time>2017-03-24T00:07:24Z</time>
      </trkpt>
      <trkpt lat="45.63623" lon="0.66983">
        <ele>275.613</ele>
        <time>2017-03-24T00:07:44Z</time>
      </trkpt>
      <trkpt lat="45.63533" lon="0.66979">
        <ele>272.08</ele>
        <time>2017-03-24T00:08:04Z</time>
      </trkpt>
      <trkpt lat="45.63495" lon="0.67002">
        <ele>269.953</ele>
        <time>2017-03-24T00:08:24Z</time>
      </trkpt>
      <trkpt lat="45.63325" lon="0.66953">
        <ele>280.434</ele>
        <time>2020-11-19T07:10:25Z</time>
      </trkpt>
      <trkpt lat="45.63149" lon="0.66865">
        <ele>288.717</ele>
        <time>2020-11-19T07:10:45Z</time>
      </trkpt>
      <trkpt lat="45.63122" lon="0.67089">
        <ele>291.053</ele>
        <time>2020-11-19T07:11:05Z</time>
      </trkpt>
      <trkpt lat="45.63141" lon="0.67242">
        <ele>298.087</ele>
        <time>2020-11-19T07:11:25Z</time>
      </trkpt>
      <trkpt lat="45.63131" lon="0.67329">
        <ele>296.693</ele>
        <time>2017-03-24T00:10:04Z</time>
      </trkpt>
      <trkpt lat="45.63114" lon="0.67358">
        <ele>295.265</ele>
        <time>2017-03-24T00:10:24Z</time>
      </trkpt>
      <trkpt lat="45.63077" lon="0.67373">
        <ele>294.421</ele>
        <time>2017-03-24T00:10:44Z</time>
      </trkpt>
      <trkpt lat="45.62997" lon="0.67376">
        <ele>288.408</ele>
        <time>2017-03-24T00:11:04Z</time>
      </trkpt>
      <trkpt lat="45.62972" lon="0.67363">
        <ele>288.975</ele>
        <time>2017-03-24T00:11:24Z</time>
      </trkpt>
      <trkpt lat="45.62948" lon="0.67455">
        <ele>286.299</ele>
        <time>2017-03-24T00:11:44Z</time>
      </trkpt>
      <trkpt lat="45.62939" lon="0.67549">
        <ele>285.156</ele>
        <time>2017-03-24T00:12:04Z</time>
      </trkpt>
      <trkpt lat="45.62911" lon="0.67558">
        <ele>283.599</ele>
        <time>2017-03-24T00:12:24Z</time>
      </trkpt>
      <trkpt lat="45.62758" lon="0.67683">
        <ele>276.72</ele>
        <time>2017-03-24T00:12:44Z</time>
      </trkpt>
      <trkpt lat="45.62708" lon="0.67758">
        <ele>275.433</ele>
        <time>2017-03-24T00:13:04Z</time>
      </trkpt>
      <trkpt lat="45.62683" lon="0.67809">
        <ele>273.969</ele>
        <time>2017-03-24T00:13:24Z</time>
      </trkpt>
      <trkpt lat="45.62657" lon="0.67841">
        <ele>272.563</ele>
        <time>2017-03-24T00:13:44Z</time>
      </trkpt>
      <trkpt lat="45.62652" lon="0.67873">
        <ele>270.842</ele>
        <time>2017-03-24T00:14:04Z</time>
      </trkpt>
      <trkpt lat="45.62625" lon="0.67898">
        <ele>272.522</ele>
        <time>2017-03-24T00:14:24Z</time>
      </trkpt>
      <trkpt lat="45.62615" lon="0.67967">
        <ele>279.714</ele>
        <time>2017-03-24T00:14:44Z</time>
      </trkpt>
      <trkpt lat="45.62628" lon="0.67999">
        <ele>280.108</ele>
        <time>2017-03-24T00:15:04Z</time>
      </trkpt>
      <trkpt lat="45.62548" lon="0.68218">
        <ele>278.51</ele>
        <time>2017-03-24T00:15:24Z</time>
      </trkpt>
      <trkpt lat="45.62537" lon="0.68255">
        <ele>276.734</ele>
        <time>2017-03-24T00:15:44Z</time>
      </trkpt>
      <trkpt lat="45.62519" lon="0.6827">
        <ele>276.891</ele>
        <time>2017-03-24T00:16:04Z</time>
      </trkpt>
      <trkpt lat="45.62429" lon="0.68385">
        <ele>271.564</ele>
        <time>2017-03-24T00:16:24Z</time>
      </trkpt>
      <trkpt lat="45.62428" lon="0.68499">
        <ele>277.215</ele>
        <time>2017-03-24T00:16:44Z</time>
      </trkpt>
      <trkpt lat="45.62401" lon="0.6857">
        <ele>279.098</ele>
        <time>2017-03-24T00:17:04Z</time>
      </trkpt>
      <trkpt lat="45.62351" lon="0.68625">
        <ele>280.744</ele>
        <time>2017-03-24T00:17:24Z</time>
      </trkpt>
      <trkpt lat="45.62323" lon="0.68674">
        <ele>282.848</ele>
        <time>2017-03-24T00:17:44Z</time>
      </trkpt>
      <trkpt lat="45.62234" lon="0.68732">
        <ele>289.442</ele>
        <time>2017-03-24T00:18:04Z</time>
      </trkpt>
      <trkpt lat="45.62221" lon="0.68728">
        <ele>287.822</ele>
        <time>2017-03-24T00:18:24Z</time>
      </trkpt>
      <trkpt lat="45.6219" lon="0.68822">
        <ele>287.414</ele>
        <time>2017-03-24T00:18:44Z</time>
      </trkpt>
      <trkpt lat="45.62145" lon="0.68842">
        <ele>287.408</ele>
        <time>2017-03-24T00:19:04Z</time>
      </trkpt>
      <trkpt lat="45.62107" lon="0.68844">
        <ele>287.22</ele>
        <time>2017-03-24T00:19:24Z</time>
      </trkpt>
      <trkpt lat="45.62061" lon="0.68811">
        <ele>284.494</ele>
        <time>2017-03-24T00:19:44Z</time>
      </trkpt>
      <trkpt lat="45.61999" lon="0.68737">
        <ele>277.851</ele>
        <time>2017-03-24T00:20:04Z</time>
      </trkpt>
      <trkpt lat="45.61934" lon="0.6869">
        <ele>278.094</ele>
        <time>2017-03-24T00:20:24Z</time>
      </trkpt>
      <trkpt lat="45.61858" lon="0.68659">
        <ele>271.525</ele>
        <time>2017-03-24T00:20:44Z</time>
      </trkpt>
      <trkpt lat="45.61794" lon="0.68534">
        <ele>256.838</ele>
        <time>2017-03-24T00:21:04Z</time>
      </trkpt>
      <trkpt lat="45.61705" lon="0.68421">
        <ele>248.474</ele>
        <time>2017-03-24T00:21:24Z</time>
      </trkpt>
      <trkpt lat="45.61706" lon="0.68318">
        <ele>242.668</ele>
        <time>2017-03-24T00:21:44Z</time>
      </trkpt>
      <trkpt lat="45.61656" lon="0.68212">
        <ele>247.963</ele>
        <time>2017-03-24T00:22:04Z</time>
      </trkpt>
      <trkpt lat="45.61582" lon="0.67922">
        <ele>256.844</ele>
        <time>2017-03-24T00:22:24Z</time>
      </trkpt>
      <trkpt lat="45.61561" lon="0.67811">
        <ele>261.318</ele>
        <time>2017-03-24T00:22:44Z</time>
      </trkpt>
      <trkpt lat="45.61518" lon="0.67806">
        <ele>261.608</ele>
        <time>2017-03-24T00:23:04Z</time>
      </trkpt>
      <trkpt lat="45.61475" lon="0.67791">
        <ele>262.122</ele>
        <time>2017-03-24T00:23:24Z</time>
      </trkpt>
      <trkpt lat="45.61489" lon="0.67969">
        <ele>259.396</ele>
        <time>2017-03-24T00:23:44Z</time>
      </trkpt>
      <trkpt lat="45.61487" lon="0.68088">
        <ele>255.913</ele>
        <time>2017-03-24T00:24:04Z</time>
      </trkpt>
      <trkpt lat="45.61402" lon="0.68113">
        <ele>258.836</ele>
        <time>2017-03-24T00:24:24Z</time>
      </trkpt>
      <trkpt lat="45.61342" lon="0.68124">
        <ele>258.197</ele>
        <time>2017-03-24T00:24:44Z</time>
      </trkpt>
      <trkpt lat="45.61279" lon="0.68207">
        <ele>251.54</ele>
        <time>2017-03-24T00:25:04Z</time>
      </trkpt>
      <trkpt lat="45.61219" lon="0.68248">
        <ele>246.096</ele>
        <time>2017-03-24T00:25:24Z</time>
      </trkpt>
      <trkpt lat="45.61163" lon="0.68136">
        <ele>246.14</ele>
        <time>2017-03-24T00:25:44Z</time>
      </trkpt>
      <trkpt lat="45.61081" lon="0.68054">
        <ele>251.832</ele>
        <time>2017-03-24T00:26:04Z</time>
      </trkpt>
      <trkpt lat="45.60927" lon="0.68027">
        <ele>243.492</ele>
        <time>2017-03-24T00:26:24Z</time>
      </trkpt>
      <trkpt lat="45.6087" lon="0.68077">
        <ele>241.911</ele>
        <time>2017-03-24T00:26:44Z</time>
      </trkpt>
      <trkpt lat="45.60855" lon="0.68138">
        <ele>242.008</ele>
        <time>2017-03-24T00:27:04Z</time>
      </trkpt>
      <trkpt lat="45.60801" lon="0.68154">
        <ele>242.179</ele>
        <time>2017-03-24T00:27:24Z</time>
      </trkpt>
      <trkpt lat="45.60746" lon="0.682">
        <ele>238.813</ele>
        <time>2017-03-24T00:27:44Z</time>
      </trkpt>
      <trkpt lat="45.60686" lon="0.68219">
        <ele>234.78</ele>
        <time>2017-03-24T00:28:04Z</time>
      </trkpt>
      <trkpt lat="45.6062" lon="0.68277">
        <ele>229.693</ele>
        <time>2017-03-24T00:28:24Z</time>
      </trkpt>
      <trkpt lat="45.6058" lon="0.68364">
        <ele>228.094</ele>
        <time>2017-03-24T00:28:44Z</time>
      </trkpt>
      <trkpt lat="45.60546" lon="0.68501">
        <ele>235.627</ele>
        <time>2017-03-24T00:29:04Z</time>
      </trkpt>
      <trkpt lat="45.60491" lon="0.68615">
        <ele>248.263</ele>
        <time>2017-03-24T00:29:24Z</time>
      </trkpt>
      <trkpt lat="45.60482" lon="0.6869">
        <ele>251.437</ele>
        <time>2017-03-24T00:29:44Z</time>
      </trkpt>
      <trkpt lat="45.60542" lon="0.68763">
        <ele>255.029</ele>
        <time>2017-03-24T00:30:04Z</time>
      </trkpt>
      <trkpt lat="45.60553" lon="0.68843">
        <ele>257.8</ele>
        <time>2017-03-24T00:30:24Z</time>
      </trkpt>
      <trkpt lat="45.60513" lon="0.68907">
        <ele>257.52</ele>
        <time>2017-03-24T00:30:44Z</time>
      </trkpt>
      <trkpt lat="45.60418" lon="0.68956">
        <ele>255.608</ele>
        <time>2017-03-24T00:31:04Z</time>
      </trkpt>
      <trkpt lat="45.60345" lon="0.68958">
        <ele>252.518</ele>
        <time>2017-03-24T00:31:24Z</time>
      </trkpt>
      <trkpt lat="45.60329" lon="0.68984">
        <ele>250.542</ele>
        <time>2017-03-24T00:31:44Z</time>
      </trkpt>
      <trkpt lat="45.60342" lon="0.69062">
        <ele>250.359</ele>
        <time>2017-03-24T00:32:04Z</time>
      </trkpt>
      <trkpt lat="45.60341" lon="0.69183">
        <ele>254.732</ele>
        <time>2017-03-24T00:32:24Z</time>
      </trkpt>
      <trkpt lat="45.60353" lon="0.69341">
        <ele>261.523</ele>
        <time>2017-03-24T00:32:44Z</time>
      </trkpt>
      <trkpt lat="45.60307" lon="0.69379">
        <ele>259.526</ele>
        <time>2017-03-24T00:33:04Z</time>
      </trkpt>
      <trkpt lat="45.60229" lon="0.69414">
        <ele>252.962</ele>
        <time>2017-03-24T00:33:24Z</time>
      </trkpt>
      <trkpt lat="45.60154" lon="0.69451">
        <ele>248.696</ele>
        <time>2017-03-24T00:33:44Z</time>
      </trkpt>
      <trkpt lat="45.60038" lon="0.69487">
        <ele>252.033</ele>
        <time>2017-03-24T00:34:04Z</time>
      </trkpt>
      <trkpt lat="45.59949" lon="0.695">
        <ele>260.423</ele>
        <time>2017-03-24T00:34:24Z</time>
      </trkpt>
      <trkpt lat="45.59915" lon="0.69595">
        <ele>264.915</ele>
        <time>2017-03-24T00:34:44Z</time>
      </trkpt>
      <trkpt lat="45.59883" lon="0.69584">
        <ele>268.708</ele>
        <time>2017-03-24T00:35:04Z</time>
      </trkpt>
      <trkpt lat="45.59828" lon="0.69638">
        <ele>272.239</ele>
        <time>2017-03-24T00:35:24Z</time>
      </trkpt>
      <trkpt lat="45.59792" lon="0.69718">
        <ele>270.633</ele>
        <time>2017-03-24T00:35:44Z</time>
      </trkpt>
      <trkpt lat="45.59761" lon="0.69863">
        <ele>272.67</ele>
        <time>2017-03-24T00:36:04Z</time>
      </trkpt>
      <trkpt lat="45.59685" lon="0.69977">
        <ele>276.323</ele>
        <time>2017-03-24T00:36:24Z</time>
      </trkpt>
      <trkpt lat="45.59516" lon="0.70008">
        <ele>279.654</ele>
        <time>2017-03-24T00:36:44Z</time>
      </trkpt>
      <trkpt lat="45.59436" lon="0.70049">
        <ele>280.847</ele>
        <time>2017-03-24T00:37:04Z</time>
      </trkpt>
      <trkpt lat="45.59355" lon="0.70111">
        <ele>284.973</ele>
        <time>2017-03-24T00:37:24Z</time>
      </trkpt>
      <trkpt lat="45.59364" lon="0.70169">
        <ele>285.967</ele>
        <time>2017-03-24T00:37:44Z</time>
      </trkpt>
      <trkpt lat="45.59393" lon="0.70204">
        <ele>285.187</ele>
        <time>2017-03-24T00:38:04Z</time>
      </trkpt>
      <trkpt lat="45.59415" lon="0.70243">
        <ele>285.942</ele>
        <time>2017-03-24T00:38:24Z</time>
      </trkpt>
      <trkpt lat="45.59412" lon="0.70269">
        <ele>286.526</ele>
        <time>2017-03-24T00:38:44Z</time>
      </trkpt>
      <trkpt lat="45.59425" lon="0.70285">
        <ele>287.308</ele>
        <time>2017-03-24T00:39:04Z</time>
      </trkpt>
      <trkpt lat="45.5941" lon="0.70378">
        <ele>285.264</ele>
        <time>2017-03-24T00:39:24Z</time>
      </trkpt>
      <trkpt lat="45.5939" lon="0.70442">
        <ele>284.158</ele>
        <time>2017-03-24T00:39:44Z</time>
      </trkpt>
      <trkpt lat="45.59387" lon="0.70582">
        <ele>288.095</ele>
        <time>2017-03-24T00:40:04Z</time>
      </trkpt>
      <trkpt lat="45.59388" lon="0.70734">
        <ele>288.038</ele>
        <time>2017-03-24T00:40:24Z</time>
      </trkpt>
      <trkpt lat="45.59275" lon="0.70797">
        <ele>290.469</ele>
        <time>2017-03-24T00:40:44Z</time>
      </trkpt>
      <trkpt lat="45.59141" lon="0.70841">
        <ele>285.132</ele>
        <time>2017-03-24T00:41:04Z</time>
      </trkpt>
      <trkpt lat="45.59039" lon="0.70831">
        <ele>288.628</ele>
        <time>2017-03-24T00:41:24Z</time>
      </trkpt>
      <trkpt lat="45.58903" lon="0.70848">
        <ele>293.042</ele>
        <time>2017-03-24T00:41:44Z</time>
      </trkpt>
      <trkpt lat="45.58848" lon="0.70947">
        <ele>286.948</ele>
        <time>2017-03-24T00:42:04Z</time>
      </trkpt>
      <trkpt lat="45.58784" lon="0.71074">
        <ele>277.461</ele>
        <time>2017-03-24T00:42:24Z</time>
      </trkpt>
      <trkpt lat="45.58763" lon="0.71172">
        <ele>276.517</ele>
        <time>2017-03-24T00:42:44Z</time>
      </trkpt>
      <trkpt lat="45.5877" lon="0.71263">
        <ele>277.308</ele>
        <time>2017-03-24T00:43:04Z</time>
      </trkpt>
      <trkpt lat="45.58752" lon="0.71368">
        <ele>269.86</ele>
        <time>2017-03-24T00:43:24Z</time>
      </trkpt>
      <trkpt lat="45.58728" lon="0.7148">
        <ele>264.174</ele>
        <time>2017-03-24T00:43:44Z</time>
      </trkpt>
      <trkpt lat="45.58667" lon="0.71632">
        <ele>257.581</ele>
        <time>2017-03-24T00:44:04Z</time>
      </trkpt>
      <trkpt lat="45.58632" lon="0.71687">
        <ele>252.754</ele>
        <time>2017-03-24T00:44:24Z</time>
      </trkpt>
      <trkpt lat="45.58597" lon="0.71785">
        <ele>249.185</ele>
        <time>2017-03-24T00:44:44Z</time>
      </trkpt>
      <trkpt lat="45.58575" lon="0.71855">
        <ele>247.568</ele>
        <time>2017-03-24T00:45:04Z</time>
      </trkpt>
      <trkpt lat="45.58553" lon="0.71904">
        <ele>246.374</ele>
        <time>2017-03-24T00:45:24Z</time>
      </trkpt>
      <trkpt lat="45.58519" lon="0.71951">
        <ele>243.598</ele>
        <time>2017-03-24T00:45:44Z</time>
      </trkpt>
      <trkpt lat="45.58455" lon="0.72047">
        <ele>239.563</ele>
        <time>2017-03-24T00:46:04Z</time>
      </trkpt>
      <trkpt lat="45.58374" lon="0.72143">
        <ele>237.744</ele>
        <time>2017-03-24T00:46:24Z</time>
      </trkpt>
      <trkpt lat="45.58369" lon="0.72248">
        <ele>245.418</ele>
        <time>2017-03-24T00:46:44Z</time>
      </trkpt>
      <trkpt lat="45.5832" lon="0.7243">
        <ele>248.508</ele>
        <time>2017-03-24T00:47:04Z</time>
      </trkpt>
      <trkpt lat="45.5804" lon="0.72252">
        <ele>253.642</ele>
        <time>2017-03-24T00:47:24Z</time>
      </trkpt>
      <trkpt lat="45.58018" lon="0.72168">
        <ele>260.946</ele>
        <time>2017-03-24T00:47:44Z</time>
      </trkpt>
      <trkpt lat="45.57946" lon="0.72064">
        <ele>261.063</ele>
        <time>2017-03-24T00:48:04Z</time>
      </trkpt>
      <trkpt lat="45.57855" lon="0.71959">
        <ele>261.456</ele>
        <time>2017-03-24T00:48:24Z</time>
      </trkpt>
      <trkpt lat="45.57786" lon="0.71846">
        <ele>262.397</ele>
        <time>2017-03-24T00:48:44Z</time>
      </trkpt>
      <trkpt lat="45.57699" lon="0.71969">
        <ele>269.04</ele>
        <time>2017-03-24T00:49:04Z</time>
      </trkpt>
      <trkpt lat="45.57645" lon="0.72009">
        <ele>262.856</ele>
        <time>2017-03-24T00:49:24Z</time>
      </trkpt>
      <trkpt lat="45.57607" lon="0.72288">
        <ele>250.23</ele>
        <time>2017-03-24T00:49:44Z</time>
      </trkpt>
      <trkpt lat="45.57695" lon="0.72499">
        <ele>237.063</ele>
        <time>2017-03-24T00:50:04Z</time>
      </trkpt>
      <trkpt lat="45.57689" lon="0.72562">
        <ele>231.444</ele>
        <time>2017-03-24T00:50:24Z</time>
      </trkpt>
      <trkpt lat="45.57564" lon="0.72761">
        <ele>223.318</ele>
        <time>2017-03-24T00:50:44Z</time>
      </trkpt>
      <trkpt lat="45.57572" lon="0.7279">
        <ele>223.308</ele>
        <time>2017-03-24T00:51:04Z</time>
      </trkpt>
      <trkpt lat="45.57651" lon="0.72886">
        <ele>211.842</ele>
        <time>2017-03-24T00:51:24Z</time>
      </trkpt>
      <trkpt lat="45.5766" lon="0.72975">
        <ele>203.066</ele>
        <time>2017-03-24T00:51:44Z</time>
      </trkpt>
      <trkpt lat="45.57661" lon="0.73122">
        <ele>201.273</ele>
        <time>2017-03-24T00:52:04Z</time>
      </trkpt>
      <trkpt lat="45.57669" lon="0.73256">
        <ele>196.016</ele>
        <time>2017-03-24T00:52:24Z</time>
      </trkpt>
      <trkpt lat="45.57618" lon="0.73355">
        <ele>197.817</ele>
        <time>2017-03-24T00:52:44Z</time>
      </trkpt>
      <trkpt lat="45.57622" lon="0.7347">
        <ele>205.18</ele>
        <time>2017-03-24T00:53:04Z</time>
      </trkpt>
      <trkpt lat="45.5758" lon="0.73491">
        <ele>208.536</ele>
        <time>2017-03-24T00:53:24Z</time>
      </trkpt>
      <trkpt lat="45.57567" lon="0.73547">
        <ele>209.69</ele>
        <time>2017-03-24T00:53:44Z</time>
      </trkpt>
      <trkpt lat="45.57578" lon="0.73583">
        <ele>209.033</ele>
        <time>2017-03-24T00:54:04Z</time>
      </trkpt>
      <trkpt lat="45.57629" lon="0.73594">
        <ele>206.323</ele>
        <time>2017-03-24T00:54:24Z</time>
      </trkpt>
      <trkpt lat="45.57685" lon="0.73756">
        <ele>207.415</ele>
        <time>2017-03-24T00:54:44Z</time>
      </trkpt>
      <trkpt lat="45.57671" lon="0.739">
        <ele>216.208</ele>
        <time>2017-03-24T00:55:04Z</time>
      </trkpt>
      <trkpt lat="45.5769" lon="0.73935">
        <ele>220.749</ele>
        <time>2017-03-24T00:55:24Z</time>
      </trkpt>
      <trkpt lat="45.57686" lon="0.74022">
        <ele>230.823</ele>
        <time>2017-03-24T00:55:44Z</time>
      </trkpt>
      <trkpt lat="45.57696" lon="0.74074">
        <ele>234.83</ele>
        <time>2017-03-24T00:56:04Z</time>
      </trkpt>
      <trkpt lat="45.57746" lon="0.74157">
        <ele>242.633</ele>
        <time>2017-03-24T00:56:24Z</time>
      </trkpt>
      <trkpt lat="45.57752" lon="0.74319">
        <ele>253.914</ele>
        <time>2017-03-24T00:56:44Z</time>
      </trkpt>
      <trkpt lat="45.57774" lon="0.74428">
        <ele>259.727</ele>
        <time>2017-03-24T00:57:04Z</time>
      </trkpt>
      <trkpt lat="45.57775" lon="0.74512">
        <ele>264.073</ele>
        <time>2017-03-24T00:57:24Z</time>
      </trkpt>
      <trkpt lat="45.57831" lon="0.74751">
        <ele>268.967</ele>
        <time>2017-03-24T00:57:44Z</time>
      </trkpt>
      <trkpt lat="45.57918" lon="0.74718">
        <ele>270.726</ele>
        <time>2017-03-24T00:58:04Z</time>
      </trkpt>
      <trkpt lat="45.58043" lon="0.74921">
        <ele>268.247</ele>
        <time>2017-03-24T00:58:24Z</time>
      </trkpt>
      <trkpt lat="45.58086" lon="0.74895">
        <ele>268.311</ele>
        <time>2017-03-24T00:58:44Z</time>
      </trkpt>
      <trkpt lat="45.58118" lon="0.74958">
        <ele>272.408</ele>
        <time>2017-03-24T00:59:04Z</time>
      </trkpt>
      <trkpt lat="45.58154" lon="0.74963">
        <ele>272.428</ele>
        <time>2017-03-24T00:59:24Z</time>
      </trkpt>
      <trkpt lat="45.5818" lon="0.74942">
        <ele>270.912</ele>
        <time>2017-03-24T00:59:44Z</time>
      </trkpt>
      <trkpt lat="45.58271" lon="0.74946">
        <ele>262.439</ele>
        <time>2017-03-24T01:00:04Z</time>
      </trkpt>
      <trkpt lat="45.58313" lon="0.74966">
        <ele>261.352</ele>
        <time>2017-03-24T01:00:24Z</time>
      </trkpt>
      <trkpt lat="45.58323" lon="0.75016">
        <ele>259.523</ele>
        <time>2017-03-24T01:00:44Z</time>
      </trkpt>
      <trkpt lat="45.58293" lon="0.75225">
        <ele>249.866</ele>
        <time>2017-03-24T01:01:04Z</time>
      </trkpt>
      <trkpt lat="45.58294" lon="0.75288">
        <ele>247.092</ele>
        <time>2017-03-24T01:01:24Z</time>
      </trkpt>
      <trkpt lat="45.58345" lon="0.75463">
        <ele>253.056</ele>
        <time>2017-03-24T01:01:44Z</time>
      </trkpt>
      <trkpt lat="45.58458" lon="0.75613">
        <ele>261.614</ele>
        <time>2017-03-24T01:02:04Z</time>
      </trkpt>
      <trkpt lat="45.58501" lon="0.75638">
        <ele>266.054</ele>
        <time>2017-03-24T01:02:24Z</time>
      </trkpt>
      <trkpt lat="45.58525" lon="0.75676">
        <ele>267.009</ele>
        <time>2017-03-24T01:02:44Z</time>
      </trkpt>
      <trkpt lat="45.58506" lon="0.75726">
        <ele>267.108</ele>
        <time>2017-03-24T01:03:04Z</time>
      </trkpt>
      <trkpt lat="45.58487" lon="0.75765">
        <ele>268.367</ele>
        <time>2017-03-24T01:03:24Z</time>
      </trkpt>
      <trkpt lat="45.58416" lon="0.75844">
        <ele>270.681</ele>
        <time>2017-03-24T01:03:44Z</time>
      </trkpt>
      <trkpt lat="45.58384" lon="0.76029">
        <ele>266.478</ele>
        <time>2017-03-24T01:04:04Z</time>
      </trkpt>
      <trkpt lat="45.5835" lon="0.76124">
        <ele>264.581</ele>
        <time>2017-03-24T01:04:24Z</time>
      </trkpt>
      <trkpt lat="45.5831" lon="0.76344">
        <ele>248.862</ele>
        <time>2017-03-24T01:04:44Z</time>
      </trkpt>
      <trkpt lat="45.58342" lon="0.76335">
        <ele>249.515</ele>
        <time>2017-03-24T01:05:04Z</time>
      </trkpt>
      <trkpt lat="45.58383" lon="0.7634">
        <ele>247.521</ele>
        <time>2017-03-24T01:05:24Z</time>
      </trkpt>
      <trkpt lat="45.58447" lon="0.76333">
        <ele>246.015</ele>
        <time>2017-03-24T01:05:44Z</time>
      </trkpt>
      <trkpt lat="45.58444" lon="0.76426">
        <ele>244.916</ele>
        <time>2017-03-24T01:06:04Z</time>
      </trkpt>
      <trkpt lat="45.58463" lon="0.765">
        <ele>247.076</ele>
        <time>2017-03-24T01:06:24Z</time>
      </trkpt>
      <trkpt lat="45.58512" lon="0.76578">
        <ele>251.513</ele>
        <time>2017-03-24T01:06:44Z</time>
      </trkpt>
      <trkpt lat="45.58565" lon="0.76641">
        <ele>258.908</ele>
        <time>2017-03-24T01:07:04Z</time>
      </trkpt>
      <trkpt lat="45.58596" lon="0.76725">
        <ele>267.287</ele>
        <time>2017-03-24T01:07:24Z</time>
      </trkpt>
      <trkpt lat="45.58612" lon="0.76805">
        <ele>273.081</ele>
        <time>2017-03-24T01:07:44Z</time>
      </trkpt>
      <trkpt lat="45.58638" lon="0.76872">
        <ele>278.318</ele>
        <time>2017-03-24T01:08:04Z</time>
      </trkpt>
      <trkpt lat="45.58686" lon="0.7694">
        <ele>284.761</ele>
        <time>2017-03-24T01:08:24Z</time>
      </trkpt>
      <trkpt lat="45.58726" lon="0.76969">
        <ele>292.132</ele>
        <time>2017-03-24T01:08:44Z</time>
      </trkpt>
      <trkpt lat="45.58846" lon="0.77006">
        <ele>301.965</ele>
        <time>2017-03-24T01:09:04Z</time>
      </trkpt>
      <trkpt lat="45.58914" lon="0.7707">
        <ele>304.721</ele>
        <time>2017-03-24T01:09:24Z</time>
      </trkpt>
      <trkpt lat="45.58992" lon="0.77171">
        <ele>304.735</ele>
        <time>2017-03-24T01:09:44Z</time>
      </trkpt>
      <trkpt lat="45.59031" lon="0.77182">
        <ele>304.534</ele>
        <time>2017-03-24T01:10:04Z</time>
      </trkpt>
      <trkpt lat="45.59099" lon="0.77222">
        <ele>303.555</ele>
        <time>2017-03-24T01:10:24Z</time>
      </trkpt>
      <trkpt lat="45.59153" lon="0.77239">
        <ele>302.31</ele>
        <time>2017-03-24T01:10:44Z</time>
      </trkpt>
      <trkpt lat="45.59181" lon="0.77313">
        <ele>305.108</ele>
        <time>2017-03-24T01:11:04Z</time>
      </trkpt>
      <trkpt lat="45.59229" lon="0.77347">
        <ele>306.159</ele>
        <time>2017-03-24T01:11:24Z</time>
      </trkpt>
      <trkpt lat="45.59265" lon="0.77359">
        <ele>306.613</ele>
        <time>2017-03-24T01:11:44Z</time>
      </trkpt>
      <trkpt lat="45.59333" lon="0.77449">
        <ele>312.04</ele>
        <time>2017-03-24T01:12:04Z</time>
      </trkpt>
      <trkpt lat="45.59222" lon="0.77569">
        <ele>307.553</ele>
        <time>2017-03-24T01:12:24Z</time>
      </trkpt>
      <trkpt lat="45.59178" lon="0.77661">
        <ele>307.664</ele>
        <time>2017-03-24T01:12:44Z</time>
      </trkpt>
      <trkpt lat="45.5912" lon="0.77805">
        <ele>310.417</ele>
        <time>2017-03-24T01:13:04Z</time>
      </trkpt>
      <trkpt lat="45.59008" lon="0.77773">
        <ele>308.363</ele>
        <time>2017-03-24T01:13:24Z</time>
      </trkpt>
      <trkpt lat="45.58833" lon="0.77632">
        <ele>302.837</ele>
        <time>2017-03-24T01:13:44Z</time>
      </trkpt>
      <trkpt lat="45.58786" lon="0.77863">
        <ele>313.422</ele>
        <time>2017-03-24T01:14:04Z</time>
      </trkpt>
      <trkpt lat="45.58804" lon="0.77994">
        <ele>317.962</ele>
        <time>2017-03-24T01:14:24Z</time>
      </trkpt>
      <trkpt lat="45.58795" lon="0.78298">
        <ele>315.108</ele>
        <time>2017-03-24T01:14:44Z</time>
      </trkpt>
      <trkpt lat="45.58781" lon="0.7841">
        <ele>312.908</ele>
        <time>2017-03-24T01:15:04Z</time>
      </trkpt>
      <trkpt lat="45.58793" lon="0.78491">
        <ele>314.288</ele>
        <time>2017-03-24T01:15:24Z</time>
      </trkpt>
      <trkpt lat="45.58809" lon="0.7854">
        <ele>312.652</ele>
        <time>2017-03-24T01:15:44Z</time>
      </trkpt>
      <trkpt lat="45.58796" lon="0.78593">
        <ele>312.159</ele>
        <time>2017-03-24T01:16:04Z</time>
      </trkpt>
      <trkpt lat="45.58773" lon="0.78614">
        <ele>312.892</ele>
        <time>2020-02-14T21:10:43Z</time>
      </trkpt>
      <trkpt lat="45.58855" lon="0.78757">
        <ele>312.233</ele>
        <time>2020-02-14T21:11:03Z</time>
      </trkpt>
      <trkpt lat="45.58852" lon="0.78846">
        <ele>312.546</ele>
        <time>2020-02-14T21:11:23Z</time>
      </trkpt>
      <trkpt lat="45.58835" lon="0.78913">
        <ele>312.162</ele>
        <time>2020-02-14T21:11:43Z</time>
      </trkpt>
      <trkpt lat="45.58872" lon="0.79006">
        <ele>307.456</ele>
        <time>2020-02-14T21:12:03Z</time>
      </trkpt>
      <trkpt lat="45.58856" lon="0.79051">
        <ele>308.027</ele>
        <time>2020-02-14T21:12:23Z</time>
      </trkpt>
      <trkpt lat="45.58876" lon="0.79094">
        <ele>304.868</ele>
        <time>2020-02-14T21:12:43Z</time>
      </trkpt>
      <trkpt lat="45.58909" lon="0.79094">
        <ele>303.314</ele>
        <time>2020-02-14T21:13:03Z</time>
      </trkpt>
      <trkpt lat="45.58944" lon="0.79124">
        <ele>306.908</ele>
        <time>2020-02-14T21:13:23Z</time>
      </trkpt>
      <trkpt lat="45.59033" lon="0.79333">
        <ele>317.668</ele>
        <time>2020-02-14T21:13:43Z</time>
      </trkpt>
      <trkpt lat="45.59093" lon="0.79459">
        <ele>320.912</ele>
        <time>2020-02-14T21:14:03Z</time>
      </trkpt>
      <trkpt lat="45.59126" lon="0.79616">
        <ele>318.919</ele>
        <time>2017-03-24T01:20:04Z</time>
      </trkpt>
      <trkpt lat="45.59062" lon="0.79671">
        <ele>314.462</ele>
        <time>2017-03-24T01:20:24Z</time>
      </trkpt>
      <trkpt lat="45.59044" lon="0.79747">
        <ele>312.953</ele>
        <time>2017-03-24T01:20:44Z</time>
      </trkpt>
      <trkpt lat="45.59047" lon="0.7981">
        <ele>309.116</ele>
        <time>2017-03-24T01:21:04Z</time>
      </trkpt>
      <trkpt lat="45.5906" lon="0.79838">
        <ele>305.242</ele>
        <time>2017-03-24T01:21:24Z</time>
      </trkpt>
      <trkpt lat="45.59055" lon="0.7988">
        <ele>302.756</ele>
        <time>2017-03-24T01:21:44Z</time>
      </trkpt>
      <trkpt lat="45.59089" lon="0.79967">
        <ele>305.637</ele>
        <time>2017-03-24T01:22:04Z</time>
      </trkpt>
      <trkpt lat="45.59154" lon="0.8005">
        <ele>307.449</ele>
        <time>2017-03-24T01:22:24Z</time>
      </trkpt>
      <trkpt lat="45.59168" lon="0.80119">
        <ele>308.213</ele>
        <time>2017-03-24T01:22:44Z</time>
      </trkpt>
      <trkpt lat="45.59172" lon="0.80293">
        <ele>313.208</ele>
        <time>2017-03-24T01:23:04Z</time>
      </trkpt>
      <trkpt lat="45.59428" lon="0.80316">
        <ele>304.049</ele>
        <time>2017-03-24T01:23:24Z</time>
      </trkpt>
      <trkpt lat="45.59621" lon="0.80315">
        <ele>292.723</ele>
        <time>2017-03-24T01:23:44Z</time>
      </trkpt>
      <trkpt lat="45.59684" lon="0.80301">
        <ele>294.18</ele>
        <time>2017-03-24T01:24:04Z</time>
      </trkpt>
      <trkpt lat="45.59723" lon="0.80306">
        <ele>298.173</ele>
        <time>2017-03-24T01:24:24Z</time>
      </trkpt>
      <trkpt lat="45.59755" lon="0.80297">
        <ele>299.724</ele>
        <time>2017-03-24T01:24:44Z</time>
      </trkpt>
      <trkpt lat="45.59808" lon="0.80453">
        <ele>302.087</ele>
        <time>2017-03-24T01:25:04Z</time>
      </trkpt>
      <trkpt lat="45.59799" lon="0.80481">
        <ele>302.833</ele>
        <time>2017-03-24T01:25:24Z</time>
      </trkpt>
      <trkpt lat="45.5977" lon="0.80506">
        <ele>305.627</ele>
        <time>2017-03-24T01:25:44Z</time>
      </trkpt>
      <trkpt lat="45.59766" lon="0.80532">
        <ele>308.363</ele>
        <time>2017-03-24T01:26:04Z</time>
      </trkpt>
      <trkpt lat="45.598" lon="0.80584">
        <ele>309.644</ele>
        <time>2017-03-24T01:26:24Z</time>
      </trkpt>
      <trkpt lat="45.5973" lon="0.80769">
        <ele>317.718</ele>
        <time>2017-03-24T01:26:44Z</time>
      </trkpt>
      <trkpt lat="45.60041" lon="0.81366">
        <ele>333.608</ele>
        <time>2017-03-24T01:27:04Z</time>
      </trkpt>
      <trkpt lat="45.60062" lon="0.81642">
        <ele>339.672</ele>
        <time>2020-02-14T21:21:43Z</time>
      </trkpt>
      <trkpt lat="45.60006" lon="0.8194">
        <ele>340.566</ele>
        <time>2017-03-24T01:28:04Z</time>
      </trkpt>
      <trkpt lat="45.59996" lon="0.82108">
        <ele>338.313</ele>
        <time>2017-03-24T01:28:24Z</time>
      </trkpt>
      <trkpt lat="45.60039" lon="0.82191">
        <ele>343.216</ele>
        <time>2017-03-24T01:28:44Z</time>
      </trkpt>
      <trkpt lat="45.60184" lon="0.82305">
        <ele>341.567</ele>
        <time>2017-03-24T01:29:04Z</time>
      </trkpt>
      <trkpt lat="45.60253" lon="0.824">
        <ele>340.99</ele>
        <time>2017-03-24T01:29:24Z</time>
      </trkpt>
      <trkpt lat="45.60341" lon="0.82431">
        <ele>344.576</ele>
        <time>2020-02-14T21:23:43Z</time>
      </trkpt>
      <trkpt lat="45.60375" lon="0.82426">
        <ele>344.29</ele>
        <time>2017-03-24T01:29:44Z</time>
      </trkpt>
      <trkpt lat="45.60379" lon="0.82465">
        <ele>345.979</ele>
        <time>2017-03-24T01:30:04Z</time>
      </trkpt>
      <trkpt lat="45.60332" lon="0.82591">
        <ele>351.205</ele>
        <time>2017-03-24T01:30:24Z</time>
      </trkpt>
      <trkpt lat="45.60309" lon="0.82665">
        <ele>353.125</ele>
        <time>2017-03-24T01:30:44Z</time>
      </trkpt>
      <trkpt lat="45.60313" lon="0.82726">
        <ele>354.308</ele>
        <time>2017-03-24T01:31:04Z</time>
      </trkpt>
      <trkpt lat="45.60396" lon="0.82869">
        <ele>356.043</ele>
        <time>2017-03-24T01:31:24Z</time>
      </trkpt>
      <trkpt lat="45.60499" lon="0.82994">
        <ele>358.887</ele>
        <time>2017-03-24T01:31:44Z</time>
      </trkpt>
      <trkpt lat="45.60534" lon="0.83019">
        <ele>359.814</ele>
        <time>2017-03-24T01:32:04Z</time>
      </trkpt>
      <trkpt lat="45.60562" lon="0.83062">
        <ele>360.427</ele>
        <time>2017-03-24T01:32:24Z</time>
      </trkpt>
      <trkpt lat="45.60623" lon="0.83123">
        <ele>358.828</ele>
        <time>2017-03-24T01:32:44Z</time>
      </trkpt>
      <trkpt lat="45.60717" lon="0.83159">
        <ele>356.911</ele>
        <time>2017-03-24T01:33:04Z</time>
      </trkpt>
      <trkpt lat="45.60767" lon="0.8319">
        <ele>357.597</ele>
        <time>2017-03-24T01:33:24Z</time>
      </trkpt>
      <trkpt lat="45.60811" lon="0.83232">
        <ele>358.761</ele>
        <time>2017-03-24T01:33:44Z</time>
      </trkpt>
      <trkpt lat="45.60917" lon="0.8333">
        <ele>358.927</ele>
        <time>2017-03-24T01:34:04Z</time>
      </trkpt>
      <trkpt lat="45.60892" lon="0.82941">
        <ele>343.968</ele>
        <time>2017-03-24T01:34:24Z</time>
      </trkpt>
      <trkpt lat="45.60907" lon="0.82864">
        <ele>345.214</ele>
        <time>2017-03-24T01:34:44Z</time>
      </trkpt>
      <trkpt lat="45.60999" lon="0.82649">
        <ele>341.008</ele>
        <time>2017-03-24T01:35:04Z</time>
      </trkpt>
      <trkpt lat="45.61049" lon="0.82568">
        <ele>338.948</ele>
        <time>2017-03-24T01:35:24Z</time>
      </trkpt>
      <trkpt lat="45.61067" lon="0.82591">
        <ele>339.292</ele>
        <time>2017-03-24T01:35:44Z</time>
      </trkpt>
      <trkpt lat="45.61086" lon="0.82632">
        <ele>337.469</ele>
        <time>2017-03-24T01:36:04Z</time>
      </trkpt>
      <trkpt lat="45.61093" lon="0.82747">
        <ele>337.032</ele>
        <time>2017-03-24T01:36:24Z</time>
      </trkpt>
      <trkpt lat="45.61134" lon="0.82785">
        <ele>339.393</ele>
        <time>2017-03-24T01:36:44Z</time>
      </trkpt>
      <trkpt lat="45.6116" lon="0.82799">
        <ele>340.366</ele>
        <time>2017-03-24T01:37:04Z</time>
      </trkpt>
      <trkpt lat="45.6121" lon="0.82805">
        <ele>339.452</ele>
        <time>2017-03-24T01:37:24Z</time>
      </trkpt>
      <trkpt lat="45.61254" lon="0.82794">
        <ele>336.616</ele>
        <time>2017-03-24T01:37:44Z</time>
      </trkpt>
      <trkpt lat="45.61289" lon="0.82803">
        <ele>337.377</ele>
        <time>2017-03-24T01:38:04Z</time>
      </trkpt>
      <trkpt lat="45.6145" lon="0.83018">
        <ele>337.961</ele>
        <time>2017-03-24T01:38:24Z</time>
      </trkpt>
      <trkpt lat="45.61462" lon="0.8306">
        <ele>335.727</ele>
        <time>2017-03-24T01:38:44Z</time>
      </trkpt>
      <trkpt lat="45.61471" lon="0.83135">
        <ele>333.208</ele>
        <time>2017-03-24T01:39:04Z</time>
      </trkpt>
      <trkpt lat="45.61443" lon="0.83174">
        <ele>338.623</ele>
        <time>2020-02-14T21:33:43Z</time>
      </trkpt>
      <trkpt lat="45.61431" lon="0.83209">
        <ele>337.257</ele>
        <time>2020-02-14T21:34:03Z</time>
      </trkpt>
      <trkpt lat="45.61405" lon="0.83214">
        <ele>337.084</ele>
        <time>2020-02-14T21:34:23Z</time>
      </trkpt>
      <trkpt lat="45.61368" lon="0.8329">
        <ele>339.697</ele>
        <time>2020-02-14T21:34:43Z</time>
      </trkpt>
      <trkpt lat="45.61388" lon="0.83303">
        <ele>341.688</ele>
        <time>2020-02-14T21:35:03Z</time>
      </trkpt>
      <trkpt lat="45.61443" lon="0.83376">
        <ele>341.071</ele>
        <time>2020-02-14T21:35:23Z</time>
      </trkpt>
      <trkpt lat="45.6158" lon="0.83483">
        <ele>333.487</ele>
        <time>2020-02-14T21:35:43Z</time>
      </trkpt>
      <trkpt lat="45.61658" lon="0.83618">
        <ele>330.541</ele>
        <time>2017-03-24T01:41:24Z</time>
      </trkpt>
      <trkpt lat="45.61684" lon="0.83637">
        <ele>331.853</ele>
        <time>2017-03-24T01:41:44Z</time>
      </trkpt>
      <trkpt lat="45.61792" lon="0.83648">
        <ele>335.704</ele>
        <time>2017-03-24T01:42:04Z</time>
      </trkpt>
      <trkpt lat="45.61844" lon="0.83658">
        <ele>338.114</ele>
        <time>2017-03-24T01:42:24Z</time>
      </trkpt>
      <trkpt lat="45.61887" lon="0.83682">
        <ele>339.908</ele>
        <time>2017-03-24T01:42:44Z</time>
      </trkpt>
      <trkpt lat="45.61909" lon="0.83674">
        <ele>342.091</ele>
        <time>2017-03-24T01:43:04Z</time>
      </trkpt>
      <trkpt lat="45.6194" lon="0.83676">
        <ele>344.645</ele>
        <time>2017-03-24T01:43:24Z</time>
      </trkpt>
      <trkpt lat="45.61963" lon="0.83689">
        <ele>345.552</ele>
        <time>2017-03-24T01:43:44Z</time>
      </trkpt>
      <trkpt lat="45.61996" lon="0.83728">
        <ele>346.585</ele>
        <time>2017-03-24T01:44:04Z</time>
      </trkpt>
      <trkpt lat="45.62046" lon="0.83762">
        <ele>349.926</ele>
        <time>2017-03-24T01:44:24Z</time>
      </trkpt>
      <trkpt lat="45.62076" lon="0.83793">
        <ele>350.989</ele>
        <time>2017-03-24T01:44:44Z</time>
      </trkpt>
      <trkpt lat="45.62048" lon="0.84031">
        <ele>347.465</ele>
        <time>2017-03-24T01:45:04Z</time>
      </trkpt>
      <trkpt lat="45.62088" lon="0.84033">
        <ele>349.369</ele>
        <time>2017-03-24T01:45:24Z</time>
      </trkpt>
      <trkpt lat="45.62174" lon="0.84004">
        <ele>351.336</ele>
        <time>2017-03-24T01:45:44Z</time>
      </trkpt>
      <trkpt lat="45.62212" lon="0.83975">
        <ele>354.017</ele>
        <time>2017-03-24T01:46:04Z</time>
      </trkpt>
      <trkpt lat="45.62253" lon="0.83957">
        <ele>353.018</ele>
        <time>2017-03-24T01:46:24Z</time>
      </trkpt>
      <trkpt lat="45.62273" lon="0.83962">
        <ele>354.108</ele>
        <time>2017-03-24T01:46:44Z</time>
      </trkpt>
      <trkpt lat="45.62339" lon="0.84008">
        <ele>358.559</ele>
        <time>2017-03-24T01:47:04Z</time>
      </trkpt>
      <trkpt lat="45.62404" lon="0.84061">
        <ele>361.543</ele>
        <time>2017-03-24T01:47:24Z</time>
      </trkpt>
      <trkpt lat="45.62479" lon="0.84084">
        <ele>364.39</ele>
        <time>2017-03-24T01:47:44Z</time>
      </trkpt>
      <trkpt lat="45.62479" lon="0.84092">
        <ele>364.623</ele>
        <time>2017-03-24T01:48:04Z</time>
      </trkpt>
      <trkpt lat="45.62573" lon="0.84096">
        <ele>367.464</ele>
        <time>2017-03-24T01:48:24Z</time>
      </trkpt>
      <trkpt lat="45.62582" lon="0.84271">
        <ele>366.997</ele>
        <time>2017-03-24T01:48:44Z</time>
      </trkpt>
      <trkpt lat="45.62582" lon="0.84684">
        <ele>353.153</ele>
        <time>2017-03-24T01:49:04Z</time>
      </trkpt>
      <trkpt lat="45.62552" lon="0.84824">
        <ele>345.477</ele>
        <time>2020-02-14T21:44:03Z</time>
      </trkpt>
      <trkpt lat="45.62549" lon="0.84949">
        <ele>340.228</ele>
        <time>2020-02-14T21:44:23Z</time>
      </trkpt>
      <trkpt lat="45.62599" lon="0.85132">
        <ele>344.989</ele>
        <time>2020-02-14T21:44:43Z</time>
      </trkpt>
      <trkpt lat="45.62671" lon="0.85183">
        <ele>349.817</ele>
        <time>2020-02-14T21:45:03Z</time>
      </trkpt>
      <trkpt lat="45.6274" lon="0.85328">
        <ele>358.608</ele>
        <time>2020-02-14T21:45:23Z</time>
      </trkpt>
      <trkpt lat="45.62807" lon="0.85512">
        <ele>367.538</ele>
        <time>2020-02-14T21:45:43Z</time>
      </trkpt>
      <trkpt lat="45.62807" lon="0.85546">
        <ele>368.062</ele>
        <time>2020-02-14T21:46:03Z</time>
      </trkpt>
      <trkpt lat="45.62832" lon="0.85622">
        <ele>365.659</ele>
        <time>2017-03-24T01:52:04Z</time>
      </trkpt>
      <trkpt lat="45.6276" lon="0.85683">
        <ele>368.312</ele>
        <time>2020-11-19T08:54:05Z</time>
      </trkpt>
      <trkpt lat="45.62746" lon="0.85795">
        <ele>366.743</ele>
        <time>2020-11-19T08:54:25Z</time>
      </trkpt>
      <trkpt lat="45.62806" lon="0.85797">
        <ele>363.096</ele>
        <time>2020-11-19T08:54:45Z</time>
      </trkpt>
      <trkpt lat="45.62733" lon="0.86025">
        <ele>374.252</ele>
        <time>2020-11-19T08:55:05Z</time>
      </trkpt>
      <trkpt lat="45.62832" lon="0.86103">
        <ele>372.956</ele>
        <time>2020-11-19T08:55:25Z</time>
      </trkpt>
      <trkpt lat="45.62868" lon="0.86161">
        <ele>370.434</ele>
        <time>2020-11-19T08:55:45Z</time>
      </trkpt>
      <trkpt lat="45.62896" lon="0.86264">
        <ele>372.755</ele>
        <time>2020-11-19T08:56:05Z</time>
      </trkpt>
      <trkpt lat="45.62928" lon="0.86301">
        <ele>370.61</ele>
        <time>2020-11-19T08:56:25Z</time>
      </trkpt>
      <trkpt lat="45.62952" lon="0.86316">
        <ele>370.308</ele>
        <time>2020-11-19T08:56:45Z</time>
      </trkpt>
      <trkpt lat="45.63029" lon="0.86503">
        <ele>379.289</ele>
        <time>2020-11-19T08:57:05Z</time>
      </trkpt>
      <trkpt lat="45.63048" lon="0.86609">
        <ele>384.123</ele>
        <time>2020-11-19T08:57:25Z</time>
      </trkpt>
      <trkpt lat="45.63052" lon="0.86699">
        <ele>388.38</ele>
        <time>2020-11-19T08:57:45Z</time>
      </trkpt>
      <trkpt lat="45.6307" lon="0.86779">
        <ele>391.623</ele>
        <time>2020-11-19T08:58:05Z</time>
      </trkpt>
      <trkpt lat="45.63062" lon="0.86901">
        <ele>399.234</ele>
        <time>2020-11-19T08:58:25Z</time>
      </trkpt>
      <trkpt lat="45.63067" lon="0.86934">
        <ele>401.657</ele>
        <time>2020-11-19T08:58:45Z</time>
      </trkpt>
      <trkpt lat="45.6306" lon="0.86968">
        <ele>403.673</ele>
        <time>2020-11-19T08:59:05Z</time>
      </trkpt>
      <trkpt lat="45.63074" lon="0.87101">
        <ele>409.627</ele>
        <time>2020-11-19T08:59:25Z</time>
      </trkpt>
      <trkpt lat="45.63095" lon="0.872">
        <ele>406.437</ele>
        <time>2020-11-19T08:59:45Z</time>
      </trkpt>
      <trkpt lat="45.63122" lon="0.87228">
        <ele>404.849</ele>
        <time>2020-11-19T09:00:05Z</time>
      </trkpt>
      <trkpt lat="45.63173" lon="0.87334">
        <ele>405.013</ele>
        <time>2020-11-19T09:00:25Z</time>
      </trkpt>
      <trkpt lat="45.63269" lon="0.87407">
        <ele>407.708</ele>
        <time>2020-11-19T09:00:45Z</time>
      </trkpt>
      <trkpt lat="45.63264" lon="0.87449">
        <ele>407.699</ele>
        <time>2017-03-24T02:03:24Z</time>
      </trkpt>
      <trkpt lat="45.63271" lon="0.87526">
        <ele>411.973</ele>
        <time>2017-03-24T02:03:44Z</time>
      </trkpt>
      <trkpt lat="45.63265" lon="0.87599">
        <ele>411.97</ele>
        <time>2020-02-14T21:58:23Z</time>
      </trkpt>
      <trkpt lat="45.63331" lon="0.87611">
        <ele>418.883</ele>
        <time>2020-02-14T21:58:43Z</time>
      </trkpt>
      <trkpt lat="45.63334" lon="0.87658">
        <ele>416.634</ele>
        <time>2020-02-14T21:59:03Z</time>
      </trkpt>
      <trkpt lat="45.63378" lon="0.87686">
        <ele>414.987</ele>
        <time>2020-02-14T21:59:23Z</time>
      </trkpt>
      <trkpt lat="45.63417" lon="0.87758">
        <ele>415.753</ele>
        <time>2017-03-24T02:04:44Z</time>
      </trkpt>
      <trkpt lat="45.63441" lon="0.87825">
        <ele>415.557</ele>
        <time>2020-02-14T22:00:03Z</time>
      </trkpt>
      <trkpt lat="45.63524" lon="0.87949">
        <ele>413.686</ele>
        <time>2020-02-14T22:00:23Z</time>
      </trkpt>
      <trkpt lat="45.63497" lon="0.8807">
        <ele>401.86</ele>
        <time>2017-03-24T02:05:04Z</time>
      </trkpt>
      <trkpt lat="45.63493" lon="0.88124">
        <ele>395.626</ele>
        <time>2017-03-24T02:05:24Z</time>
      </trkpt>
      <trkpt lat="45.6351" lon="0.88289">
        <ele>387.508</ele>
        <time>2017-03-24T02:05:44Z</time>
      </trkpt>
      <trkpt lat="45.63494" lon="0.88351">
        <ele>386.374</ele>
        <time>2017-03-24T02:06:04Z</time>
      </trkpt>
      <trkpt lat="45.63465" lon="0.88392">
        <ele>387.778</ele>
        <time>2017-03-24T02:06:24Z</time>
      </trkpt>
      <trkpt lat="45.63424" lon="0.8843">
        <ele>389.845</ele>
        <time>2017-03-24T02:06:44Z</time>
      </trkpt>
      <trkpt lat="45.63366" lon="0.88545">
        <ele>384.268</ele>
        <time>2017-03-24T02:07:04Z</time>
      </trkpt>
      <trkpt lat="45.63328" lon="0.88585">
        <ele>379.529</ele>
        <time>2017-03-24T02:07:24Z</time>
      </trkpt>
      <trkpt lat="45.63284" lon="0.88652">
        <ele>372.942</ele>
        <time>2017-03-24T02:07:44Z</time>
      </trkpt>
      <trkpt lat="45.6325" lon="0.88716">
        <ele>370.298</ele>
        <time>2017-03-24T02:08:04Z</time>
      </trkpt>
      <trkpt lat="45.63234" lon="0.88759">
        <ele>367.052</ele>
        <time>2017-03-24T02:08:24Z</time>
      </trkpt>
      <trkpt lat="45.63236" lon="0.88786">
        <ele>364.322</ele>
        <time>2017-03-24T02:08:44Z</time>
      </trkpt>
      <trkpt lat="45.63118" lon="0.88875">
        <ele>357.562</ele>
        <time>2020-11-19T09:08:05Z</time>
      </trkpt>
      <trkpt lat="45.63084" lon="0.88882">
        <ele>356.808</ele>
        <time>2020-11-19T09:08:25Z</time>
      </trkpt>
      <trkpt lat="45.63049" lon="0.889">
        <ele>354.608</ele>
        <time>2020-11-19T09:08:45Z</time>
      </trkpt>
      <trkpt lat="45.63019" lon="0.88901">
        <ele>352.988</ele>
        <time>2020-11-19T09:09:05Z</time>
      </trkpt>
      <trkpt lat="45.62976" lon="0.88927">
        <ele>350.432</ele>
        <time>2020-11-19T09:09:25Z</time>
      </trkpt>
      <trkpt lat="45.62912" lon="0.89012">
        <ele>345.059</ele>
        <time>2020-11-19T09:09:45Z</time>
      </trkpt>
      <trkpt lat="45.62826" lon="0.89077">
        <ele>342.252</ele>
        <time>2020-11-19T09:10:05Z</time>
      </trkpt>
      <trkpt lat="45.62741" lon="0.89153">
        <ele>339.713</ele>
        <time>2020-11-19T09:10:25Z</time>
      </trkpt>
      <trkpt lat="45.62622" lon="0.89229">
        <ele>333.996</ele>
        <time>2020-11-19T09:10:45Z</time>
      </trkpt>
      <trkpt lat="45.62593" lon="0.89315">
        <ele>336.422</ele>
        <time>2020-11-19T09:11:05Z</time>
      </trkpt>
      <trkpt lat="45.62664" lon="0.89524">
        <ele>329.556</ele>
        <time>2020-11-19T09:11:25Z</time>
      </trkpt>
      <trkpt lat="45.62651" lon="0.89564">
        <ele>328.383</ele>
        <time>2020-11-19T09:11:45Z</time>
      </trkpt>
      <trkpt lat="45.62602" lon="0.89571">
        <ele>329.125</ele>
        <time>2020-11-19T09:12:05Z</time>
      </trkpt>
      <trkpt lat="45.62571" lon="0.89702">
        <ele>327.317</ele>
        <time>2020-11-19T09:12:25Z</time>
      </trkpt>
      <trkpt lat="45.62626" lon="0.89658">
        <ele>325.308</ele>
        <time>2020-11-19T09:12:45Z</time>
      </trkpt>
      <trkpt lat="45.62671" lon="0.89665">
        <ele>326.134</ele>
        <time>2020-11-19T09:13:05Z</time>
      </trkpt>
      <trkpt lat="45.62725" lon="0.89706">
        <ele>330.518</ele>
        <time>2020-11-19T09:13:25Z</time>
      </trkpt>
      <trkpt lat="45.62781" lon="0.89781">
        <ele>336.175</ele>
        <time>2020-11-19T09:13:45Z</time>
      </trkpt>
      <trkpt lat="45.62815" lon="0.89761">
        <ele>332.438</ele>
        <time>2020-11-19T09:14:05Z</time>
      </trkpt>
      <trkpt lat="45.62847" lon="0.89761">
        <ele>333.979</ele>
        <time>2020-11-19T09:14:25Z</time>
      </trkpt>
      <trkpt lat="45.62879" lon="0.89746">
        <ele>333.862</ele>
        <time>2020-11-19T09:14:45Z</time>
      </trkpt>
      <trkpt lat="45.63075" lon="0.89733">
        <ele>337.078</ele>
        <time>2020-11-19T09:15:05Z</time>
      </trkpt>
      <trkpt lat="45.63157" lon="0.8973">
        <ele>339.822</ele>
        <time>2020-11-19T09:15:25Z</time>
      </trkpt>
      <trkpt lat="45.63268" lon="0.89718">
        <ele>344.949</ele>
        <time>2020-11-19T09:15:45Z</time>
      </trkpt>
      <trkpt lat="45.63338" lon="0.89768">
        <ele>350.402</ele>
        <time>2020-11-19T09:16:05Z</time>
      </trkpt>
      <trkpt lat="45.63386" lon="0.89858">
        <ele>356.422</ele>
        <time>2020-11-19T09:16:25Z</time>
      </trkpt>
      <trkpt lat="45.63412" lon="0.89973">
        <ele>354.508</ele>
        <time>2020-11-19T09:16:45Z</time>
      </trkpt>
      <trkpt lat="45.63473" lon="0.89937">
        <ele>350.52</ele>
        <time>2020-11-19T09:17:05Z</time>
      </trkpt>
      <trkpt lat="45.63497" lon="0.89892">
        <ele>348.154</ele>
        <time>2020-11-19T09:17:25Z</time>
      </trkpt>
      <trkpt lat="45.63518" lon="0.89778">
        <ele>344.041</ele>
        <time>2020-11-19T09:17:45Z</time>
      </trkpt>
      <trkpt lat="45.63512" lon="0.89707">
        <ele>345.514</ele>
        <time>2020-11-19T09:18:05Z</time>
      </trkpt>
      <trkpt lat="45.63529" lon="0.89677">
        <ele>346.985</ele>
        <time>2020-11-19T09:18:25Z</time>
      </trkpt>
      <trkpt lat="45.63696" lon="0.89669">
        <ele>347.718</ele>
        <time>2020-11-19T09:18:45Z</time>
      </trkpt>
      <trkpt lat="45.63725" lon="0.89686">
        <ele>342.724</ele>
        <time>2020-11-19T09:19:05Z</time>
      </trkpt>
      <trkpt lat="45.6373" lon="0.89745">
        <ele>341.488</ele>
        <time>2020-11-19T09:19:25Z</time>
      </trkpt>
      <trkpt lat="45.63739" lon="0.89865">
        <ele>339.888</ele>
        <time>2020-11-19T09:19:45Z</time>
      </trkpt>
      <trkpt lat="45.63817" lon="0.90053">
        <ele>353.624</ele>
        <time>2020-11-19T09:20:05Z</time>
      </trkpt>
      <trkpt lat="45.63855" lon="0.9016">
        <ele>362.326</ele>
        <time>2020-11-19T09:20:25Z</time>
      </trkpt>
      <trkpt lat="45.63947" lon="0.90322">
        <ele>370.708</ele>
        <time>2020-11-19T09:20:45Z</time>
      </trkpt>
      <trkpt lat="45.63982" lon="0.90369">
        <ele>375.084</ele>
        <time>2020-11-19T09:21:05Z</time>
      </trkpt>
      <trkpt lat="45.63996" lon="0.90397">
        <ele>376.578</ele>
        <time>2020-11-19T09:21:25Z</time>
      </trkpt>
      <trkpt lat="45.64112" lon="0.90401">
        <ele>390.755</ele>
        <time>2020-11-19T09:21:45Z</time>
      </trkpt>
      <trkpt lat="45.64147" lon="0.90419">
        <ele>393.958</ele>
        <time>2020-11-19T09:22:05Z</time>
      </trkpt>
      <trkpt lat="45.6417" lon="0.90411">
        <ele>393.699</ele>
        <time>2020-11-19T09:22:25Z</time>
      </trkpt>
      <trkpt lat="45.64189" lon="0.90417">
        <ele>393.292</ele>
        <time>2020-11-19T09:22:45Z</time>
      </trkpt>
      <trkpt lat="45.64205" lon="0.90459">
        <ele>396.128</ele>
        <time>2020-11-19T09:23:05Z</time>
      </trkpt>
      <trkpt lat="45.64205" lon="0.9051">
        <ele>397.552</ele>
        <time>2020-11-19T09:23:25Z</time>
      </trkpt>
      <trkpt lat="45.64241" lon="0.9057">
        <ele>398.376</ele>
        <time>2020-11-19T09:23:45Z</time>
      </trkpt>
      <trkpt lat="45.64251" lon="0.90619">
        <ele>398.39</ele>
        <time>2020-11-19T09:24:05Z</time>
      </trkpt>
      <trkpt lat="45.64269" lon="0.90643">
        <ele>399.219</ele>
        <time>2020-11-19T09:24:25Z</time>
      </trkpt>
      <trkpt lat="45.64281" lon="0.90732">
        <ele>403.408</ele>
        <time>2020-11-19T09:24:45Z</time>
      </trkpt>
      <trkpt lat="45.64346" lon="0.90668">
        <ele>403.193</ele>
        <time>2020-11-19T09:25:05Z</time>
      </trkpt>
      <trkpt lat="45.64365" lon="0.90629">
        <ele>400.567</ele>
        <time>2020-11-19T09:25:25Z</time>
      </trkpt>
      <trkpt lat="45.64393" lon="0.90602">
        <ele>401.984</ele>
        <time>2020-11-19T09:25:45Z</time>
      </trkpt>
      <trkpt lat="45.64461" lon="0.90588">
        <ele>401.677</ele>
        <time>2020-11-19T09:26:05Z</time>
      </trkpt>
      <trkpt lat="45.64491" lon="0.9057">
        <ele>402.718</ele>
        <time>2020-11-19T09:26:25Z</time>
      </trkpt>
      <trkpt lat="45.6452" lon="0.9056">
        <ele>404.561</ele>
        <time>2020-11-19T09:26:45Z</time>
      </trkpt>
      <trkpt lat="45.64565" lon="0.90521">
        <ele>408.467</ele>
        <time>2020-11-19T09:27:05Z</time>
      </trkpt>
      <trkpt lat="45.64625" lon="0.90496">
        <ele>406.771</ele>
        <time>2020-11-19T09:27:25Z</time>
      </trkpt>
      <trkpt lat="45.64694" lon="0.90358">
        <ele>390.474</ele>
        <time>2020-11-19T09:27:45Z</time>
      </trkpt>
      <trkpt lat="45.64735" lon="0.90259">
        <ele>387.056</ele>
        <time>2020-11-19T09:28:05Z</time>
      </trkpt>
      <trkpt lat="45.64782" lon="0.90255">
        <ele>385.321</ele>
        <time>2020-11-19T09:28:25Z</time>
      </trkpt>
      <trkpt lat="45.64823" lon="0.90261">
        <ele>388.508</ele>
        <time>2020-11-19T09:28:45Z</time>
      </trkpt>
      <trkpt lat="45.64907" lon="0.90252">
        <ele>390.793</ele>
        <time>2020-11-19T09:29:05Z</time>
      </trkpt>
      <trkpt lat="45.64978" lon="0.90222">
        <ele>389.657</ele>
        <time>2020-11-19T09:29:25Z</time>
      </trkpt>
      <trkpt lat="45.65056" lon="0.902">
        <ele>384.244</ele>
        <time>2020-11-19T09:29:45Z</time>
      </trkpt>
      <trkpt lat="45.65085" lon="0.90215">
        <ele>381.717</ele>
        <time>2020-11-19T09:30:05Z</time>
      </trkpt>
      <trkpt lat="45.65101" lon="0.90234">
        <ele>381.818</ele>
        <time>2020-11-19T09:30:25Z</time>
      </trkpt>
      <trkpt lat="45.6527" lon="0.90088">
        <ele>388.461</ele>
        <time>2020-11-19T09:30:45Z</time>
      </trkpt>
      <trkpt lat="45.65374" lon="0.90051">
        <ele>394.887</ele>
        <time>2020-11-19T09:31:05Z</time>
      </trkpt>
      <trkpt lat="45.65417" lon="0.90038">
        <ele>395.431</ele>
        <time>2020-11-19T09:31:25Z</time>
      </trkpt>
      <trkpt lat="45.65508" lon="0.8998">
        <ele>402.334</ele>
        <time>2020-11-19T09:31:45Z</time>
      </trkpt>
      <trkpt lat="45.65551" lon="0.89937">
        <ele>405.555</ele>
        <time>2020-11-19T09:32:05Z</time>
      </trkpt>
      <trkpt lat="45.65624" lon="0.89899">
        <ele>412.51</ele>
        <time>2020-11-19T09:32:25Z</time>
      </trkpt>
      <trkpt lat="45.65613" lon="0.89761">
        <ele>412.608</ele>
        <time>2020-11-19T09:32:45Z</time>
      </trkpt>
      <trkpt lat="45.65676" lon="0.89754">
        <ele>419.189</ele>
        <time>2020-11-19T09:33:05Z</time>
      </trkpt>
      <trkpt lat="45.65721" lon="0.89696">
        <ele>421.813</ele>
        <time>2020-11-19T09:33:25Z</time>
      </trkpt>
      <trkpt lat="45.65752" lon="0.89621">
        <ele>421.42</ele>
        <time>2020-11-19T09:33:45Z</time>
      </trkpt>
      <trkpt lat="45.65795" lon="0.89554">
        <ele>426.523</ele>
        <time>2020-11-19T09:34:05Z</time>
      </trkpt>
      <trkpt lat="45.65839" lon="0.89455">
        <ele>429.044</ele>
        <time>2020-11-19T09:34:25Z</time>
      </trkpt>
      <trkpt lat="45.65905" lon="0.89348">
        <ele>433.797</ele>
        <time>2020-11-19T09:34:45Z</time>
      </trkpt>
      <trkpt lat="45.65991" lon="0.89239">
        <ele>442.453</ele>
        <time>2020-11-19T09:35:05Z</time>
      </trkpt>
      <trkpt lat="45.66007" lon="0.89183">
        <ele>444.977</ele>
        <time>2020-11-19T09:35:25Z</time>
      </trkpt>
      <trkpt lat="45.66006" lon="0.89113">
        <ele>447.535</ele>
        <time>2020-11-19T09:35:45Z</time>
      </trkpt>
      <trkpt lat="45.66042" lon="0.89019">
        <ele>454.786</ele>
        <time>2020-11-19T09:36:05Z</time>
      </trkpt>
      <trkpt lat="45.6605" lon="0.8894">
        <ele>455.814</ele>
        <time>2020-11-19T09:36:25Z</time>
      </trkpt>
      <trkpt lat="45.6603" lon="0.88854">
        <ele>457.908</ele>
        <time>2020-11-19T09:36:45Z</time>
      </trkpt>
      <trkpt lat="45.65994" lon="0.88754">
        <ele>457.699</ele>
        <time>2020-11-19T09:37:05Z</time>
      </trkpt>
      <trkpt lat="45.65989" lon="0.887">
        <ele>458.513</ele>
        <time>2020-11-19T09:37:25Z</time>
      </trkpt>
      <trkpt lat="45.66004" lon="0.88573">
        <ele>465.49</ele>
        <time>2020-11-19T09:37:45Z</time>
      </trkpt>
      <trkpt lat="45.66021" lon="0.88458">
        <ele>468.823</ele>
        <time>2020-11-19T09:38:05Z</time>
      </trkpt>
      <trkpt lat="45.6599" lon="0.8836">
        <ele>467.244</ele>
        <time>2020-11-19T09:38:25Z</time>
      </trkpt>
      <trkpt lat="45.66073" lon="0.88303">
        <ele>463.037</ele>
        <time>2020-11-19T09:38:45Z</time>
      </trkpt>
      <trkpt lat="45.6615" lon="0.88271">
        <ele>463.053</ele>
        <time>2020-11-19T09:39:05Z</time>
      </trkpt>
      <trkpt lat="45.6622" lon="0.88278">
        <ele>460.287</ele>
        <time>2020-11-19T09:39:25Z</time>
      </trkpt>
      <trkpt lat="45.66305" lon="0.88334">
        <ele>441.087</ele>
        <time>2017-03-24T02:26:24Z</time>
      </trkpt>
      <trkpt lat="45.66388" lon="0.88338">
        <ele>435.942</ele>
        <time>2017-03-24T02:26:44Z</time>
      </trkpt>
      <trkpt lat="45.66429" lon="0.88375">
        <ele>431.526</ele>
        <time>2017-03-24T02:27:04Z</time>
      </trkpt>
      <trkpt lat="45.66458" lon="0.88455">
        <ele>423.708</ele>
        <time>2017-03-24T02:27:24Z</time>
      </trkpt>
      <trkpt lat="45.66556" lon="0.88504">
        <ele>417.714</ele>
        <time>2017-03-24T02:27:44Z</time>
      </trkpt>
      <trkpt lat="45.66646" lon="0.88526">
        <ele>407.998</ele>
        <time>2017-03-24T02:28:04Z</time>
      </trkpt>
      <trkpt lat="45.66731" lon="0.88468">
        <ele>406.585</ele>
        <time>2017-03-24T02:28:24Z</time>
      </trkpt>
      <trkpt lat="45.66809" lon="0.8847">
        <ele>406.638</ele>
        <time>2017-03-24T02:28:44Z</time>
      </trkpt>
      <trkpt lat="45.66891" lon="0.88493">
        <ele>402.279</ele>
        <time>2017-03-24T02:29:04Z</time>
      </trkpt>
      <trkpt lat="45.66966" lon="0.88569">
        <ele>397.342</ele>
        <time>2017-03-24T02:29:24Z</time>
      </trkpt>
      <trkpt lat="45.67078" lon="0.88725">
        <ele>396.118</ele>
        <time>2017-03-24T02:29:44Z</time>
      </trkpt>
      <trkpt lat="45.67426" lon="0.89079">
        <ele>389.252</ele>
        <time>2017-03-24T02:30:04Z</time>
      </trkpt>
      <trkpt lat="45.67447" lon="0.89042">
        <ele>389.563</ele>
        <time>2020-02-14T22:25:43Z</time>
      </trkpt>
      <trkpt lat="45.67507" lon="0.88779">
        <ele>387.544</ele>
        <time>2020-02-14T22:26:03Z</time>
      </trkpt>
      <trkpt lat="45.67604" lon="0.88585">
        <ele>390.418</ele>
        <time>2020-02-14T22:26:23Z</time>
      </trkpt>
      <trkpt lat="45.67758" lon="0.88233">
        <ele>410.508</ele>
        <time>2017-03-24T02:31:24Z</time>
      </trkpt>
      <trkpt lat="45.67814" lon="0.88348">
        <ele>403.382</ele>
        <time>2017-03-24T02:31:44Z</time>
      </trkpt>
      <trkpt lat="45.67865" lon="0.88387">
        <ele>403.776</ele>
        <time>2017-03-24T02:32:04Z</time>
      </trkpt>
      <trkpt lat="45.67914" lon="0.88396">
        <ele>405.743</ele>
        <time>2017-03-24T02:32:24Z</time>
      </trkpt>
      <trkpt lat="45.67943" lon="0.88372">
        <ele>404.776</ele>
        <time>2017-03-24T02:32:44Z</time>
      </trkpt>
      <trkpt lat="45.67996" lon="0.88259">
        <ele>408.697</ele>
        <time>2017-03-24T02:33:04Z</time>
      </trkpt>
      <trkpt lat="45.68033" lon="0.88204">
        <ele>409.26</ele>
        <time>2017-03-24T02:33:24Z</time>
      </trkpt>
      <trkpt lat="45.68081" lon="0.8817">
        <ele>406.246</ele>
        <time>2017-03-24T02:33:44Z</time>
      </trkpt>
      <trkpt lat="45.68144" lon="0.8807">
        <ele>397.68</ele>
        <time>2017-03-24T02:34:04Z</time>
      </trkpt>
      <trkpt lat="45.68234" lon="0.88185">
        <ele>391.819</ele>
        <time>2017-03-24T02:34:24Z</time>
      </trkpt>
      <trkpt lat="45.683" lon="0.88248">
        <ele>390.809</ele>
        <time>2017-03-24T02:34:44Z</time>
      </trkpt>
      <trkpt lat="45.68369" lon="0.88303">
        <ele>395.419</ele>
        <time>2017-03-24T02:35:04Z</time>
      </trkpt>
      <trkpt lat="45.68452" lon="0.88396">
        <ele>385.208</ele>
        <time>2017-03-24T02:35:24Z</time>
      </trkpt>
      <trkpt lat="45.68578" lon="0.88509">
        <ele>372.537</ele>
        <time>2017-03-24T02:35:44Z</time>
      </trkpt>
      <trkpt lat="45.68704" lon="0.88591">
        <ele>372.351</ele>
        <time>2017-03-24T02:36:04Z</time>
      </trkpt>
      <trkpt lat="45.6878" lon="0.88618">
        <ele>370.728</ele>
        <time>2017-03-24T02:36:24Z</time>
      </trkpt>
      <trkpt lat="45.6889" lon="0.88681">
        <ele>371.041</ele>
        <time>2020-02-14T22:32:03Z</time>
      </trkpt>
      <trkpt lat="45.68959" lon="0.88434">
        <ele>370.522</ele>
        <time>2020-02-14T22:32:23Z</time>
      </trkpt>
      <trkpt lat="45.68932" lon="0.88339">
        <ele>370.975</ele>
        <time>2020-02-14T22:32:43Z</time>
      </trkpt>
      <trkpt lat="45.68967" lon="0.8825">
        <ele>364.241</ele>
        <time>2020-02-14T22:33:03Z</time>
      </trkpt>
      <trkpt lat="45.68978" lon="0.88183">
        <ele>361.955</ele>
        <time>2020-02-14T22:33:23Z</time>
      </trkpt>
      <trkpt lat="45.68932" lon="0.88158">
        <ele>357.621</ele>
        <time>2020-02-14T22:33:43Z</time>
      </trkpt>
      <trkpt lat="45.68931" lon="0.88135">
        <ele>356.241</ele>
        <time>2020-02-14T22:34:03Z</time>
      </trkpt>
      <trkpt lat="45.68984" lon="0.88033">
        <ele>351.205</ele>
        <time>2020-02-14T22:34:23Z</time>
      </trkpt>
      <trkpt lat="45.68975" lon="0.87987">
        <ele>350.008</ele>
        <time>2020-02-14T22:34:43Z</time>
      </trkpt>
      <trkpt lat="45.68954" lon="0.87935">
        <ele>350.338</ele>
        <time>2020-02-14T22:35:03Z</time>
      </trkpt>
      <trkpt lat="45.68958" lon="0.87907">
        <ele>350.272</ele>
        <time>2020-02-14T22:35:23Z</time>
      </trkpt>
      <trkpt lat="45.68995" lon="0.87829">
        <ele>353.519</ele>
        <time>2020-02-14T22:35:43Z</time>
      </trkpt>
      <trkpt lat="45.6903" lon="0.87796">
        <ele>355.512</ele>
        <time>2020-02-14T22:36:03Z</time>
      </trkpt>
      <trkpt lat="45.69067" lon="0.87731">
        <ele>357.023</ele>
        <time>2020-02-14T22:36:23Z</time>
      </trkpt>
      <trkpt lat="45.6909" lon="0.87651">
        <ele>360.176</ele>
        <time>2020-02-14T22:36:43Z</time>
      </trkpt>
      <trkpt lat="45.69092" lon="0.87527">
        <ele>362.052</ele>
        <time>2020-02-14T22:37:03Z</time>
      </trkpt>
      <trkpt lat="45.69111" lon="0.87482">
        <ele>363.726</ele>
        <time>2020-02-14T22:37:23Z</time>
      </trkpt>
      <trkpt lat="45.69208" lon="0.8739">
        <ele>367.563</ele>
        <time>2020-02-14T22:37:43Z</time>
      </trkpt>
      <trkpt lat="45.69283" lon="0.87302">
        <ele>366.744</ele>
        <time>2020-02-14T22:38:03Z</time>
      </trkpt>
      <trkpt lat="45.68853" lon="0.86983">
        <ele>386.918</ele>
        <time>2020-02-14T22:38:23Z</time>
      </trkpt>
      <trkpt lat="45.68734" lon="0.86924">
        <ele>392.708</ele>
        <time>2020-02-14T22:38:43Z</time>
      </trkpt>
      <trkpt lat="45.68656" lon="0.86901">
        <ele>395.792</ele>
        <time>2020-02-14T22:39:03Z</time>
      </trkpt>
      <trkpt lat="45.68602" lon="0.869">
        <ele>394.636</ele>
        <time>2020-02-14T22:39:23Z</time>
      </trkpt>
      <trkpt lat="45.68589" lon="0.86858">
        <ele>394.893</ele>
        <time>2020-02-14T22:39:43Z</time>
      </trkpt>
      <trkpt lat="45.68528" lon="0.86797">
        <ele>398.386</ele>
        <time>2020-02-14T22:40:03Z</time>
      </trkpt>
      <trkpt lat="45.68494" lon="0.86745">
        <ele>403.247</ele>
        <time>2020-02-14T22:40:23Z</time>
      </trkpt>
      <trkpt lat="45.6856" lon="0.86645">
        <ele>409.99</ele>
        <time>2020-02-14T22:40:43Z</time>
      </trkpt>
      <trkpt lat="45.68566" lon="0.86591">
        <ele>413.016</ele>
        <time>2020-02-14T22:41:03Z</time>
      </trkpt>
      <trkpt lat="45.68555" lon="0.86546">
        <ele>415.44</ele>
        <time>2020-02-14T22:41:23Z</time>
      </trkpt>
      <trkpt lat="45.68607" lon="0.86468">
        <ele>409.427</ele>
        <time>2020-02-14T22:41:43Z</time>
      </trkpt>
      <trkpt lat="45.68651" lon="0.86426">
        <ele>407.168</ele>
        <time>2020-02-14T22:42:03Z</time>
      </trkpt>
      <trkpt lat="45.68703" lon="0.86346">
        <ele>414.614</ele>
        <time>2020-02-14T22:42:23Z</time>
      </trkpt>
      <trkpt lat="45.68797" lon="0.86232">
        <ele>414.108</ele>
        <time>2020-02-14T22:42:43Z</time>
      </trkpt>
      <trkpt lat="45.68909" lon="0.86143">
        <ele>409.198</ele>
        <time>2020-02-14T22:43:03Z</time>
      </trkpt>
      <trkpt lat="45.68938" lon="0.86088">
        <ele>406.142</ele>
        <time>2020-02-14T22:43:23Z</time>
      </trkpt>
      <trkpt lat="45.69011" lon="0.8604">
        <ele>401.349</ele>
        <time>2020-02-14T22:43:43Z</time>
      </trkpt>
      <trkpt lat="45.69049" lon="0.86">
        <ele>396.532</ele>
        <time>2020-02-14T22:44:03Z</time>
      </trkpt>
      <trkpt lat="45.69071" lon="0.85985">
        <ele>393.833</ele>
        <time>2020-02-14T22:44:23Z</time>
      </trkpt>
      <trkpt lat="45.691" lon="0.85908">
        <ele>389.456</ele>
        <time>2020-02-14T22:44:43Z</time>
      </trkpt>
      <trkpt lat="45.69202" lon="0.85702">
        <ele>389.032</ele>
        <time>2020-02-14T22:45:03Z</time>
      </trkpt>
      <trkpt lat="45.69227" lon="0.85573">
        <ele>384.896</ele>
        <time>2020-02-14T22:45:23Z</time>
      </trkpt>
      <trkpt lat="45.6923" lon="0.85458">
        <ele>381.478</ele>
        <time>2020-02-14T22:45:43Z</time>
      </trkpt>
      <trkpt lat="45.69278" lon="0.85225">
        <ele>376.033</ele>
        <time>2020-02-14T22:46:03Z</time>
      </trkpt>
      <trkpt lat="45.6931" lon="0.85141">
        <ele>375.026</ele>
        <time>2020-02-14T22:46:23Z</time>
      </trkpt>
      <trkpt lat="45.69331" lon="0.8511">
        <ele>374.908</ele>
        <time>2020-02-14T22:46:43Z</time>
      </trkpt>
      <trkpt lat="45.69362" lon="0.85094">
        <ele>375.043</ele>
        <time>2020-02-14T22:47:03Z</time>
      </trkpt>
      <trkpt lat="45.69401" lon="0.85056">
        <ele>375.097</ele>
        <time>2020-02-14T22:47:23Z</time>
      </trkpt>
      <trkpt lat="45.69463" lon="0.84913">
        <ele>371.624</ele>
        <time>2020-02-14T22:47:43Z</time>
      </trkpt>
      <trkpt lat="45.69497" lon="0.84822">
        <ele>371.487</ele>
        <time>2020-02-14T22:48:03Z</time>
      </trkpt>
      <trkpt lat="45.69498" lon="0.84761">
        <ele>375.148</ele>
        <time>2020-02-14T22:48:23Z</time>
      </trkpt>
      <trkpt lat="45.69485" lon="0.84716">
        <ele>376.261</ele>
        <time>2020-02-14T22:48:43Z</time>
      </trkpt>
      <trkpt lat="45.69462" lon="0.84676">
        <ele>374.257</ele>
        <time>2020-02-14T22:49:03Z</time>
      </trkpt>
      <trkpt lat="45.6945" lon="0.84608">
        <ele>374.381</ele>
        <time>2020-02-14T22:49:23Z</time>
      </trkpt>
      <trkpt lat="45.69457" lon="0.8451">
        <ele>374.595</ele>
        <time>2020-02-14T22:49:43Z</time>
      </trkpt>
      <trkpt lat="45.6945" lon="0.84374">
        <ele>372.049</ele>
        <time>2020-02-14T22:50:03Z</time>
      </trkpt>
      <trkpt lat="45.69527" lon="0.84406">
        <ele>373.223</ele>
        <time>2020-02-14T22:50:23Z</time>
      </trkpt>
      <trkpt lat="45.69616" lon="0.84418">
        <ele>368.108</ele>
        <time>2020-02-14T22:50:43Z</time>
      </trkpt>
      <trkpt lat="45.69691" lon="0.8442">
        <ele>366.165</ele>
        <time>2020-02-14T22:51:03Z</time>
      </trkpt>
      <trkpt lat="45.69787" lon="0.84442">
        <ele>365.149</ele>
        <time>2020-02-14T22:51:23Z</time>
      </trkpt>
      <trkpt lat="45.69867" lon="0.84465">
        <ele>363.096</ele>
        <time>2020-02-14T22:51:43Z</time>
      </trkpt>
      <trkpt lat="45.69924" lon="0.84468">
        <ele>360.039</ele>
        <time>2020-02-14T22:52:03Z</time>
      </trkpt>
      <trkpt lat="45.70019" lon="0.8446">
        <ele>345.04</ele>
        <time>2020-02-14T22:52:23Z</time>
      </trkpt>
      <trkpt lat="45.70156" lon="0.84482">
        <ele>336.883</ele>
        <time>2020-02-14T22:52:43Z</time>
      </trkpt>
      <trkpt lat="45.70325" lon="0.84732">
        <ele>333.749</ele>
        <time>2020-02-14T22:53:03Z</time>
      </trkpt>
      <trkpt lat="45.70478" lon="0.84772">
        <ele>343.023</ele>
        <time>2020-02-14T22:53:23Z</time>
      </trkpt>
      <trkpt lat="45.70628" lon="0.84892">
        <ele>347.467</ele>
        <time>2020-02-14T22:53:43Z</time>
      </trkpt>
      <trkpt lat="45.70583" lon="0.85105">
        <ele>350.081</ele>
        <time>2020-02-14T16:51:52Z</time>
      </trkpt>
      <trkpt lat="45.70583" lon="0.85105">
        <ele>350.019</ele>
        <time>2020-02-14T16:51:52Z</time>
      </trkpt>
      <trkpt lat="45.70606" lon="0.85123">
        <ele>350.008</ele>
        <time>2020-02-14T16:52:12Z</time>
      </trkpt>
      <trkpt lat="45.70669" lon="0.85123">
        <ele>345.512</ele>
        <time>2020-02-14T16:52:32Z</time>
      </trkpt>
      <trkpt lat="45.70692" lon="0.85109">
        <ele>345.216</ele>
        <time>2020-02-14T16:52:52Z</time>
      </trkpt>
      <trkpt lat="45.70757" lon="0.85153">
        <ele>338.333</ele>
        <time>2020-02-14T16:53:12Z</time>
      </trkpt>
      <trkpt lat="45.70853" lon="0.85001">
        <ele>335.686</ele>
        <time>2020-02-14T16:53:32Z</time>
      </trkpt>
      <trkpt lat="45.70875" lon="0.84993">
        <ele>334.327</ele>
        <time>2020-02-14T16:53:52Z</time>
      </trkpt>
      <trkpt lat="45.7091" lon="0.85019">
        <ele>332.23</ele>
        <time>2020-02-14T16:54:12Z</time>
      </trkpt>
      <trkpt lat="45.70925" lon="0.85161">
        <ele>319.766</ele>
        <time>2020-02-14T16:54:32Z</time>
      </trkpt>
      <trkpt lat="45.7096" lon="0.85363">
        <ele>311.13</ele>
        <time>2020-02-14T16:54:52Z</time>
      </trkpt>
      <trkpt lat="45.70904" lon="0.85692">
        <ele>305.864</ele>
        <time>2020-02-14T16:55:12Z</time>
      </trkpt>
      <trkpt lat="45.70908" lon="0.85756">
        <ele>307.106</ele>
        <time>2020-02-14T16:55:32Z</time>
      </trkpt>
      <trkpt lat="45.70908" lon="0.85786">
        <ele>308.116</ele>
        <time>2020-02-14T16:55:52Z</time>
      </trkpt>
      <trkpt lat="45.70976" lon="0.85856">
        <ele>308.808</ele>
        <time>2020-02-14T16:56:12Z</time>
      </trkpt>
      <trkpt lat="45.71026" lon="0.8596">
        <ele>305.942</ele>
        <time>2020-02-14T16:56:32Z</time>
      </trkpt>
      <trkpt lat="45.71164" lon="0.86008">
        <ele>300.316</ele>
        <time>2020-02-14T16:56:52Z</time>
      </trkpt>
      <trkpt lat="45.71188" lon="0.85968">
        <ele>293.773</ele>
        <time>2020-02-14T16:57:12Z</time>
      </trkpt>
      <trkpt lat="45.71178" lon="0.85946">
        <ele>294.056</ele>
        <time>2020-02-14T16:57:32Z</time>
      </trkpt>
      <trkpt lat="45.71178" lon="0.85916">
        <ele>295.077</ele>
        <time>2020-02-14T16:57:52Z</time>
      </trkpt>
      <trkpt lat="45.71189" lon="0.8589">
        <ele>296.41</ele>
        <time>2020-02-14T16:58:12Z</time>
      </trkpt>
      <trkpt lat="45.7122" lon="0.85884">
        <ele>290.426</ele>
        <time>2020-02-14T16:58:32Z</time>
      </trkpt>
      <trkpt lat="45.71297" lon="0.85904">
        <ele>273.66</ele>
        <time>2020-02-14T16:58:52Z</time>
      </trkpt>
      <trkpt lat="45.71338" lon="0.8591">
        <ele>281.457</ele>
        <time>2020-02-14T16:59:12Z</time>
      </trkpt>
      <trkpt lat="45.71373" lon="0.85934">
        <ele>285.9</ele>
        <time>2020-02-14T16:59:32Z</time>
      </trkpt>
      <trkpt lat="45.71449" lon="0.85956">
        <ele>286.62</ele>
        <time>2020-02-14T16:59:52Z</time>
      </trkpt>
      <trkpt lat="45.71444" lon="0.85924">
        <ele>287.808</ele>
        <time>2020-02-14T17:00:12Z</time>
      </trkpt>
      <trkpt lat="45.71456" lon="0.8586">
        <ele>294.051</ele>
        <time>2020-02-14T17:00:32Z</time>
      </trkpt>
      <trkpt lat="45.71475" lon="0.85818">
        <ele>293.465</ele>
        <time>2020-02-14T17:00:52Z</time>
      </trkpt>
      <trkpt lat="45.71532" lon="0.85814">
        <ele>292.422</ele>
        <time>2020-02-14T17:01:12Z</time>
      </trkpt>
      <trkpt lat="45.71556" lon="0.85788">
        <ele>292.485</ele>
        <time>2020-02-14T17:01:32Z</time>
      </trkpt>
      <trkpt lat="45.71556" lon="0.8571">
        <ele>291.086</ele>
        <time>2020-02-14T17:01:52Z</time>
      </trkpt>
      <trkpt lat="45.71645" lon="0.85748">
        <ele>293.419</ele>
        <time>2020-02-14T17:02:12Z</time>
      </trkpt>
      <trkpt lat="45.71757" lon="0.85824">
        <ele>303.085</ele>
        <time>2020-02-14T17:02:32Z</time>
      </trkpt>
      <trkpt lat="45.71809" lon="0.85828">
        <ele>302.629</ele>
        <time>2020-02-14T17:02:52Z</time>
      </trkpt>
      <trkpt lat="45.71888" lon="0.85844">
        <ele>314.098</ele>
        <time>2020-02-14T17:03:12Z</time>
      </trkpt>
      <trkpt lat="45.71863" lon="0.85952">
        <ele>309.115</ele>
        <time>2020-02-14T17:03:32Z</time>
      </trkpt>
      <trkpt lat="45.71856" lon="0.86056">
        <ele>310.826</ele>
        <time>2020-02-14T17:03:52Z</time>
      </trkpt>
      <trkpt lat="45.71905" lon="0.86246">
        <ele>306.008</ele>
        <time>2020-02-14T17:04:12Z</time>
      </trkpt>
      <trkpt lat="45.71979" lon="0.86284">
        <ele>313.365</ele>
        <time>2020-02-14T17:04:32Z</time>
      </trkpt>
      <trkpt lat="45.72039" lon="0.86353">
        <ele>310.789</ele>
        <time>2020-02-14T17:04:52Z</time>
      </trkpt>
      <trkpt lat="45.72094" lon="0.86397">
        <ele>311.046</ele>
        <time>2020-02-14T17:05:12Z</time>
      </trkpt>
      <trkpt lat="45.72277" lon="0.86441">
        <ele>306.899</ele>
        <time>2020-02-14T17:05:32Z</time>
      </trkpt>
      <trkpt lat="45.7234" lon="0.86451">
        <ele>313.73</ele>
        <time>2020-02-14T17:05:52Z</time>
      </trkpt>
      <trkpt lat="45.72343" lon="0.86565">
        <ele>311.783</ele>
        <time>2020-02-14T17:06:12Z</time>
      </trkpt>
      <trkpt lat="45.72334" lon="0.86611">
        <ele>309.029</ele>
        <time>2020-02-14T17:06:32Z</time>
      </trkpt>
      <trkpt lat="45.72302" lon="0.86683">
        <ele>309.663</ele>
        <time>2020-02-14T17:06:52Z</time>
      </trkpt>
      <trkpt lat="45.72285" lon="0.86745">
        <ele>312.861</ele>
        <time>2020-02-14T17:07:12Z</time>
      </trkpt>
      <trkpt lat="45.72256" lon="0.86819">
        <ele>314.821</ele>
        <time>2020-02-14T17:07:32Z</time>
      </trkpt>
      <trkpt lat="45.7239" lon="0.86969">
        <ele>323.213</ele>
        <time>2020-02-14T17:07:52Z</time>
      </trkpt>
      <trkpt lat="45.72593" lon="0.87133">
        <ele>338.608</ele>
        <time>2020-02-14T17:08:12Z</time>
      </trkpt>
      <trkpt lat="45.72696" lon="0.87167">
        <ele>345.192</ele>
        <time>2020-02-14T17:08:32Z</time>
      </trkpt>
      <trkpt lat="45.72809" lon="0.87147">
        <ele>353.026</ele>
        <time>2020-02-14T17:08:52Z</time>
      </trkpt>
      <trkpt lat="45.7284" lon="0.87087">
        <ele>353.813</ele>
        <time>2020-02-14T17:09:12Z</time>
      </trkpt>
      <trkpt lat="45.72877" lon="0.87035">
        <ele>353.676</ele>
        <time>2020-02-14T17:09:32Z</time>
      </trkpt>
      <trkpt lat="45.72928" lon="0.86991">
        <ele>355.187</ele>
        <time>2020-02-14T17:09:52Z</time>
      </trkpt>
      <trkpt lat="45.72963" lon="0.86943">
        <ele>354.48</ele>
        <time>2020-02-14T17:10:12Z</time>
      </trkpt>
      <trkpt lat="45.73016" lon="0.87043">
        <ele>360.196</ele>
        <time>2020-02-14T17:10:32Z</time>
      </trkpt>
      <trkpt lat="45.73034" lon="0.87119">
        <ele>361.84</ele>
        <time>2020-02-14T17:10:52Z</time>
      </trkpt>
      <trkpt lat="45.73058" lon="0.8743">
        <ele>364.391</ele>
        <time>2020-02-14T17:11:12Z</time>
      </trkpt>
      <trkpt lat="45.73107" lon="0.87636">
        <ele>358.981</ele>
        <time>2020-02-14T17:11:32Z</time>
      </trkpt>
      <trkpt lat="45.73121" lon="0.8773">
        <ele>359.019</ele>
        <time>2020-02-14T17:11:52Z</time>
      </trkpt>
      <trkpt lat="45.73134" lon="0.8777">
        <ele>359.608</ele>
        <time>2020-02-14T17:12:12Z</time>
      </trkpt>
      <trkpt lat="45.72877" lon="0.881">
        <ele>353.975</ele>
        <time>2020-02-14T17:12:32Z</time>
      </trkpt>
      <trkpt lat="45.72845" lon="0.8813">
        <ele>351.069</ele>
        <time>2020-11-19T10:33:25Z</time>
      </trkpt>
      <trkpt lat="45.72794" lon="0.88147">
        <ele>347.616</ele>
        <time>2020-11-19T10:33:45Z</time>
      </trkpt>
      <trkpt lat="45.72767" lon="0.88212">
        <ele>346.169</ele>
        <time>2020-11-19T10:34:05Z</time>
      </trkpt>
      <trkpt lat="45.72738" lon="0.88223">
        <ele>345.16</ele>
        <time>2020-11-19T10:34:25Z</time>
      </trkpt>
      <trkpt lat="45.72727" lon="0.8821">
        <ele>344.753</ele>
        <time>2020-11-19T10:34:45Z</time>
      </trkpt>
      <trkpt lat="45.72596" lon="0.88442">
        <ele>343.419</ele>
        <time>2020-11-19T10:35:05Z</time>
      </trkpt>
      <trkpt lat="45.72528" lon="0.88653">
        <ele>338.183</ele>
        <time>2020-11-19T10:35:25Z</time>
      </trkpt>
      <trkpt lat="45.7245" lon="0.88745">
        <ele>342.683</ele>
        <time>2020-11-19T10:35:45Z</time>
      </trkpt>
      <trkpt lat="45.72356" lon="0.88797">
        <ele>342.025</ele>
        <time>2020-11-19T10:36:05Z</time>
      </trkpt>
      <trkpt lat="45.72243" lon="0.8884">
        <ele>339.717</ele>
        <time>2020-11-19T10:36:25Z</time>
      </trkpt>
      <trkpt lat="45.72176" lon="0.88903">
        <ele>338.508</ele>
        <time>2020-11-19T10:36:45Z</time>
      </trkpt>
      <trkpt lat="45.72073" lon="0.89098">
        <ele>333.844</ele>
        <time>2020-11-19T10:37:05Z</time>
      </trkpt>
      <trkpt lat="45.72016" lon="0.89309">
        <ele>336.148</ele>
        <time>2020-11-19T10:37:25Z</time>
      </trkpt>
      <trkpt lat="45.71782" lon="0.90385">
        <ele>335.255</ele>
        <time>2020-11-19T10:37:45Z</time>
      </trkpt>
      <trkpt lat="45.71657" lon="0.90661">
        <ele>339.268</ele>
        <time>2020-11-19T10:38:05Z</time>
      </trkpt>
      <trkpt lat="45.71608" lon="0.90904">
        <ele>339.739</ele>
        <time>2020-11-19T10:38:25Z</time>
      </trkpt>
      <trkpt lat="45.71616" lon="0.91227">
        <ele>343.742</ele>
        <time>2020-11-19T10:38:45Z</time>
      </trkpt>
      <trkpt lat="45.71572" lon="0.91434">
        <ele>342.498</ele>
        <time>2020-11-19T10:39:05Z</time>
      </trkpt>
      <trkpt lat="45.71359" lon="0.92096">
        <ele>343.972</ele>
        <time>2020-11-19T10:39:25Z</time>
      </trkpt>
      <trkpt lat="45.71203" lon="0.92398">
        <ele>347.261</ele>
        <time>2020-11-19T10:39:45Z</time>
      </trkpt>
      <trkpt lat="45.71164" lon="0.92677">
        <ele>350.821</ele>
        <time>2020-11-19T10:40:05Z</time>
      </trkpt>
      <trkpt lat="45.71166" lon="0.92806">
        <ele>350.013</ele>
        <time>2020-11-19T10:40:25Z</time>
      </trkpt>
      <trkpt lat="45.71092" lon="0.93035">
        <ele>362.408</ele>
        <time>2020-11-19T10:40:45Z</time>
      </trkpt>
      <trkpt lat="45.71051" lon="0.93101">
        <ele>362.642</ele>
        <time>2020-11-19T10:41:05Z</time>
      </trkpt>
      <trkpt lat="45.71069" lon="0.93198">
        <ele>368.866</ele>
        <time>2020-11-19T10:41:25Z</time>
      </trkpt>
      <trkpt lat="45.71069" lon="0.93312">
        <ele>375.243</ele>
        <time>2020-11-19T10:41:45Z</time>
      </trkpt>
      <trkpt lat="45.71074" lon="0.93446">
        <ele>380.766</ele>
        <time>2020-11-19T10:42:05Z</time>
      </trkpt>
      <trkpt lat="45.71089" lon="0.93553">
        <ele>378.647</ele>
        <time>2020-11-19T10:42:25Z</time>
      </trkpt>
      <trkpt lat="45.71293" lon="0.93241">
        <ele>371.03</ele>
        <time>2020-11-19T10:42:45Z</time>
      </trkpt>
      <trkpt lat="45.71336" lon="0.93269">
        <ele>371.126</ele>
        <time>2020-11-19T10:43:05Z</time>
      </trkpt>
      <trkpt lat="45.71419" lon="0.93286">
        <ele>369.32</ele>
        <time>2020-11-19T10:43:25Z</time>
      </trkpt>
      <trkpt lat="45.71426" lon="0.93334">
        <ele>365.383</ele>
        <time>2020-11-19T10:43:45Z</time>
      </trkpt>
      <trkpt lat="45.7142" lon="0.93377">
        <ele>364.325</ele>
        <time>2020-11-19T10:44:05Z</time>
      </trkpt>
      <trkpt lat="45.71443" lon="0.93401">
        <ele>362.617</ele>
        <time>2020-11-19T10:44:25Z</time>
      </trkpt>
      <trkpt lat="45.71484" lon="0.93377">
        <ele>358.508</ele>
        <time>2020-11-19T10:44:45Z</time>
      </trkpt>
      <trkpt lat="45.71512" lon="0.93401">
        <ele>354.094</ele>
        <time>2020-11-19T10:45:05Z</time>
      </trkpt>
      <trkpt lat="45.71502" lon="0.93487">
        <ele>351.368</ele>
        <time>2020-11-19T10:45:25Z</time>
      </trkpt>
      <trkpt lat="45.71537" lon="0.93568">
        <ele>343.915</ele>
        <time>2020-11-19T10:45:45Z</time>
      </trkpt>
      <trkpt lat="45.71522" lon="0.93633">
        <ele>340.848</ele>
        <time>2020-11-19T10:46:05Z</time>
      </trkpt>
      <trkpt lat="45.71436" lon="0.93734">
        <ele>342.379</ele>
        <time>2020-11-19T10:46:25Z</time>
      </trkpt>
      <trkpt lat="45.71464" lon="0.93812">
        <ele>341.272</ele>
        <time>2020-11-19T10:46:45Z</time>
      </trkpt>
      <trkpt lat="45.71467" lon="0.93876">
        <ele>338.158</ele>
        <time>2020-11-19T10:47:05Z</time>
      </trkpt>
      <trkpt lat="45.71497" lon="0.93893">
        <ele>334.522</ele>
        <time>2020-11-19T10:47:25Z</time>
      </trkpt>
      <trkpt lat="45.71526" lon="0.93885">
        <ele>332.829</ele>
        <time>2020-11-19T10:47:45Z</time>
      </trkpt>
      <trkpt lat="45.71566" lon="0.93954">
        <ele>332.3</ele>
        <time>2020-11-19T10:48:05Z</time>
      </trkpt>
      <trkpt lat="45.71559" lon="0.94003">
        <ele>331.62</ele>
        <time>2020-11-19T10:48:25Z</time>
      </trkpt>
      <trkpt lat="45.71588" lon="0.94063">
        <ele>332.808</ele>
        <time>2020-11-19T10:48:45Z</time>
      </trkpt>
      <trkpt lat="45.71656" lon="0.94098">
        <ele>338.138</ele>
        <time>2020-11-19T10:49:05Z</time>
      </trkpt>
      <trkpt lat="45.7175" lon="0.93977">
        <ele>337.362</ele>
        <time>2020-11-19T10:49:25Z</time>
      </trkpt>
      <trkpt lat="45.71802" lon="0.93949">
        <ele>338.269</ele>
        <time>2020-11-19T10:49:45Z</time>
      </trkpt>
      <trkpt lat="45.71845" lon="0.93966">
        <ele>341.752</ele>
        <time>2020-11-19T10:50:05Z</time>
      </trkpt>
      <trkpt lat="45.71931" lon="0.94087">
        <ele>357.223</ele>
        <time>2020-11-19T10:50:25Z</time>
      </trkpt>
      <trkpt lat="45.72045" lon="0.9416">
        <ele>352.046</ele>
        <time>2020-11-19T10:50:45Z</time>
      </trkpt>
      <trkpt lat="45.72157" lon="0.94197">
        <ele>361.362</ele>
        <time>2020-11-19T10:51:05Z</time>
      </trkpt>
      <trkpt lat="45.72206" lon="0.94248">
        <ele>361.686</ele>
        <time>2020-11-19T10:51:25Z</time>
      </trkpt>
      <trkpt lat="45.7215" lon="0.94304">
        <ele>361.579</ele>
        <time>2020-11-19T10:51:45Z</time>
      </trkpt>
      <trkpt lat="45.72058" lon="0.9444">
        <ele>361.005</ele>
        <time>2020-11-19T10:52:05Z</time>
      </trkpt>
      <trkpt lat="45.71927" lon="0.94573">
        <ele>360.025</ele>
        <time>2020-11-19T10:52:25Z</time>
      </trkpt>
      <trkpt lat="45.72098" lon="0.94569">
        <ele>354.408</ele>
        <time>2020-11-19T10:52:45Z</time>
      </trkpt>
      <trkpt lat="45.72175" lon="0.94603">
        <ele>349.393</ele>
        <time>2020-11-19T10:53:05Z</time>
      </trkpt>
      <trkpt lat="45.72296" lon="0.94582">
        <ele>354.067</ele>
        <time>2020-11-19T10:53:25Z</time>
      </trkpt>
      <trkpt lat="45.72384" lon="0.94601">
        <ele>347.064</ele>
        <time>2020-11-19T10:53:45Z</time>
      </trkpt>
      <trkpt lat="45.72465" lon="0.94659">
        <ele>343.857</ele>
        <time>2020-11-19T10:54:05Z</time>
      </trkpt>
      <trkpt lat="45.72536" lon="0.94681">
        <ele>340.578</ele>
        <time>2020-11-19T10:54:25Z</time>
      </trkpt>
      <trkpt lat="45.72671" lon="0.94687">
        <ele>343.191</ele>
        <time>2020-11-19T10:54:45Z</time>
      </trkpt>
      <trkpt lat="45.72715" lon="0.94677">
        <ele>342.947</ele>
        <time>2020-11-19T10:55:05Z</time>
      </trkpt>
      <trkpt lat="45.72768" lon="0.94687">
        <ele>345.171</ele>
        <time>2020-11-19T10:55:25Z</time>
      </trkpt>
      <trkpt lat="45.73012" lon="0.94599">
        <ele>344.882</ele>
        <time>2020-11-19T10:55:45Z</time>
      </trkpt>
      <trkpt lat="45.7334" lon="0.94461">
        <ele>346.143</ele>
        <time>2017-03-24T09:46:19Z</time>
      </trkpt>
      <trkpt lat="45.7334" lon="0.94461">
        <ele>346.117</ele>
        <time>2017-03-24T09:46:19Z</time>
      </trkpt>
      <trkpt lat="45.73457" lon="0.94427">
        <ele>346.808</ele>
        <time>2017-03-24T09:46:39Z</time>
      </trkpt>
      <trkpt lat="45.7342" lon="0.94678">
        <ele>346.324</ele>
        <time>2017-03-24T09:46:59Z</time>
      </trkpt>
      <trkpt lat="45.73428" lon="0.94801">
        <ele>348.148</ele>
        <time>2017-03-24T09:47:19Z</time>
      </trkpt>
      <trkpt lat="45.73511" lon="0.95031">
        <ele>349.475</ele>
        <time>2017-03-24T09:47:39Z</time>
      </trkpt>
      <trkpt lat="45.73565" lon="0.95505">
        <ele>348.478</ele>
        <time>2017-03-24T09:47:59Z</time>
      </trkpt>
      <trkpt lat="45.73733" lon="0.95583">
        <ele>350.459</ele>
        <time>2017-03-24T09:48:19Z</time>
      </trkpt>
      <trkpt lat="45.73818" lon="0.95605">
        <ele>351.032</ele>
        <time>2017-03-24T09:48:39Z</time>
      </trkpt>
      <trkpt lat="45.73861" lon="0.95629">
        <ele>350.388</ele>
        <time>2017-03-24T09:48:59Z</time>
      </trkpt>
      <trkpt lat="45.73963" lon="0.95727">
        <ele>348.022</ele>
        <time>2017-03-24T09:49:19Z</time>
      </trkpt>
      <trkpt lat="45.74016" lon="0.95597">
        <ele>350.061</ele>
        <time>2017-03-24T09:49:39Z</time>
      </trkpt>
      <trkpt lat="45.74055" lon="0.95524">
        <ele>348.921</ele>
        <time>2017-03-24T09:49:59Z</time>
      </trkpt>
      <trkpt lat="45.74122" lon="0.95458">
        <ele>347.513</ele>
        <time>2017-03-24T09:50:19Z</time>
      </trkpt>
      <trkpt lat="45.74191" lon="0.95423">
        <ele>347.208</ele>
        <time>2017-03-24T09:50:39Z</time>
      </trkpt>
      <trkpt lat="45.74302" lon="0.95359">
        <ele>341.982</ele>
        <time>2017-03-24T09:50:59Z</time>
      </trkpt>
      <trkpt lat="45.74417" lon="0.95501">
        <ele>340.076</ele>
        <time>2017-03-24T09:51:19Z</time>
      </trkpt>
      <trkpt lat="45.74557" lon="0.95638">
        <ele>329.933</ele>
        <time>2017-03-24T09:51:39Z</time>
      </trkpt>
      <trkpt lat="45.74618" lon="0.95743">
        <ele>324.536</ele>
        <time>2017-03-24T09:51:59Z</time>
      </trkpt>
      <trkpt lat="45.74622" lon="0.95796">
        <ele>322.377</ele>
        <time>2017-03-24T09:52:19Z</time>
      </trkpt>
      <trkpt lat="45.74643" lon="0.95857">
        <ele>317.06</ele>
        <time>2017-03-24T09:52:39Z</time>
      </trkpt>
      <trkpt lat="45.74611" lon="0.95993">
        <ele>317.376</ele>
        <time>2017-03-24T09:52:59Z</time>
      </trkpt>
      <trkpt lat="45.74682" lon="0.95993">
        <ele>318.09</ele>
        <time>2017-03-24T09:53:19Z</time>
      </trkpt>
      <trkpt lat="45.74859" lon="0.95969">
        <ele>313.211</ele>
        <time>2017-03-24T09:53:39Z</time>
      </trkpt>
      <trkpt lat="45.74936" lon="0.96018">
        <ele>311.321</ele>
        <time>2017-03-24T09:53:59Z</time>
      </trkpt>
      <trkpt lat="45.75011" lon="0.95981">
        <ele>311.303</ele>
        <time>2017-03-24T09:54:19Z</time>
      </trkpt>
      <trkpt lat="45.75089" lon="0.95978">
        <ele>307.808</ele>
        <time>2017-03-24T09:54:39Z</time>
      </trkpt>
      <trkpt lat="45.75147" lon="0.95955">
        <ele>299.857</ele>
        <time>2017-03-24T09:54:59Z</time>
      </trkpt>
      <trkpt lat="45.75162" lon="0.95925">
        <ele>298.451</ele>
        <time>2017-03-24T09:55:19Z</time>
      </trkpt>
      <trkpt lat="45.75166" lon="0.95829">
        <ele>299.538</ele>
        <time>2017-03-24T09:55:39Z</time>
      </trkpt>
      <trkpt lat="45.75235" lon="0.95693">
        <ele>293.731</ele>
        <time>2017-03-24T09:55:59Z</time>
      </trkpt>
      <trkpt lat="45.753" lon="0.95482">
        <ele>279.542</ele>
        <time>2017-03-24T09:56:19Z</time>
      </trkpt>
      <trkpt lat="45.75306" lon="0.95397">
        <ele>275.555</ele>
        <time>2017-03-24T09:56:39Z</time>
      </trkpt>
      <trkpt lat="45.75334" lon="0.95364">
        <ele>269.371</ele>
        <time>2017-03-24T09:56:59Z</time>
      </trkpt>
      <trkpt lat="45.754" lon="0.95348">
        <ele>260.975</ele>
        <time>2017-03-24T09:57:19Z</time>
      </trkpt>
      <trkpt lat="45.75446" lon="0.95291">
        <ele>266.673</ele>
        <time>2017-03-24T09:57:39Z</time>
      </trkpt>
      <trkpt lat="45.75496" lon="0.9531">
        <ele>270.285</ele>
        <time>2017-03-24T09:57:59Z</time>
      </trkpt>
      <trkpt lat="45.75546" lon="0.95355">
        <ele>269.613</ele>
        <time>2017-03-24T09:58:19Z</time>
      </trkpt>
      <trkpt lat="45.75636" lon="0.9537">
        <ele>274.408</ele>
        <time>2017-03-24T09:58:39Z</time>
      </trkpt>
      <trkpt lat="45.75689" lon="0.95355">
        <ele>275.873</ele>
        <time>2017-03-24T09:58:59Z</time>
      </trkpt>
      <trkpt lat="45.75719" lon="0.9533">
        <ele>275.937</ele>
        <time>2017-03-24T09:59:19Z</time>
      </trkpt>
      <trkpt lat="45.7575" lon="0.95434">
        <ele>266.784</ele>
        <time>2017-03-24T09:59:39Z</time>
      </trkpt>
      <trkpt lat="45.75787" lon="0.95417">
        <ele>265.337</ele>
        <time>2017-03-24T09:59:59Z</time>
      </trkpt>
      <trkpt lat="45.75834" lon="0.95415">
        <ele>264.178</ele>
        <time>2017-03-24T10:00:19Z</time>
      </trkpt>
      <trkpt lat="45.75877" lon="0.95393">
        <ele>264.841</ele>
        <time>2017-03-24T10:00:39Z</time>
      </trkpt>
      <trkpt lat="45.75939" lon="0.95368">
        <ele>265.837</ele>
        <time>2017-03-24T10:00:59Z</time>
      </trkpt>
      <trkpt lat="45.7599" lon="0.95324">
        <ele>267.621</ele>
        <time>2017-03-24T10:01:19Z</time>
      </trkpt>
      <trkpt lat="45.76108" lon="0.95436">
        <ele>265.531</ele>
        <time>2017-03-24T10:01:39Z</time>
      </trkpt>
      <trkpt lat="45.76272" lon="0.95636">
        <ele>255.061</ele>
        <time>2017-03-24T10:01:59Z</time>
      </trkpt>
      <trkpt lat="45.76302" lon="0.957">
        <ele>255.007</ele>
        <time>2017-03-24T10:02:19Z</time>
      </trkpt>
      <trkpt lat="45.76309" lon="0.95768">
        <ele>251.508</ele>
        <time>2017-03-24T10:02:39Z</time>
      </trkpt>
      <trkpt lat="45.76278" lon="0.95805">
        <ele>249.039</ele>
        <time>2017-03-24T10:02:59Z</time>
      </trkpt>
      <trkpt lat="45.76241" lon="0.95794">
        <ele>249.843</ele>
        <time>2017-03-24T10:03:19Z</time>
      </trkpt>
      <trkpt lat="45.76139" lon="0.95889">
        <ele>252.05</ele>
        <time>2017-03-24T10:03:39Z</time>
      </trkpt>
      <trkpt lat="45.76164" lon="0.95906">
        <ele>248.183</ele>
        <time>2017-03-24T10:03:59Z</time>
      </trkpt>
      <trkpt lat="45.76225" lon="0.96016">
        <ele>247.064</ele>
        <time>2017-03-24T10:04:19Z</time>
      </trkpt>
      <trkpt lat="45.76323" lon="0.9601">
        <ele>247.167</ele>
        <time>2017-03-24T10:04:39Z</time>
      </trkpt>
      <trkpt lat="45.76424" lon="0.95959">
        <ele>251.363</ele>
        <time>2017-03-24T10:04:59Z</time>
      </trkpt>
      <trkpt lat="45.76479" lon="0.96129">
        <ele>260.317</ele>
        <time>2017-03-24T10:05:19Z</time>
      </trkpt>
      <trkpt lat="45.76484" lon="0.96199">
        <ele>263.191</ele>
        <time>2017-03-24T10:05:39Z</time>
      </trkpt>
      <trkpt lat="45.76502" lon="0.96236">
        <ele>264.481</ele>
        <time>2017-03-24T10:05:59Z</time>
      </trkpt>
      <trkpt lat="45.76544" lon="0.96375">
        <ele>271.019</ele>
        <time>2017-03-24T10:06:19Z</time>
      </trkpt>
      <trkpt lat="45.7657" lon="0.96635">
        <ele>278.308</ele>
        <time>2017-03-24T10:06:39Z</time>
      </trkpt>
      <trkpt lat="45.76591" lon="0.96781">
        <ele>276.075</ele>
        <time>2017-03-24T10:06:59Z</time>
      </trkpt>
      <trkpt lat="45.76603" lon="0.96981">
        <ele>274.329</ele>
        <time>2017-03-24T10:07:19Z</time>
      </trkpt>
      <trkpt lat="45.76633" lon="0.97058">
        <ele>275.616</ele>
        <time>2017-03-24T10:07:39Z</time>
      </trkpt>
      <trkpt lat="45.76634" lon="0.97185">
        <ele>275.579</ele>
        <time>2017-03-24T10:07:59Z</time>
      </trkpt>
      <trkpt lat="45.76626" lon="0.97249">
        <ele>274.52</ele>
        <time>2017-03-24T10:08:19Z</time>
      </trkpt>
      <trkpt lat="45.76621" lon="0.97337">
        <ele>274.073</ele>
        <time>2017-03-24T10:08:39Z</time>
      </trkpt>
      <trkpt lat="45.76621" lon="0.97404">
        <ele>274.019</ele>
        <time>2017-03-24T10:08:59Z</time>
      </trkpt>
      <trkpt lat="45.76629" lon="0.97428">
        <ele>274.083</ele>
        <time>2017-03-24T10:09:19Z</time>
      </trkpt>
      <trkpt lat="45.76734" lon="0.97421">
        <ele>282.122</ele>
        <time>2017-03-24T10:09:39Z</time>
      </trkpt>
      <trkpt lat="45.76841" lon="0.97329">
        <ele>278.862</ele>
        <time>2017-03-24T10:09:59Z</time>
      </trkpt>
      <trkpt lat="45.76837" lon="0.97472">
        <ele>287.808</ele>
        <time>2017-03-24T10:10:19Z</time>
      </trkpt>
      <trkpt lat="45.76812" lon="0.97659">
        <ele>289.308</ele>
        <time>2020-11-19T11:20:45Z</time>
      </trkpt>
      <trkpt lat="45.7691" lon="0.97665">
        <ele>299.728</ele>
        <time>2020-11-19T11:21:05Z</time>
      </trkpt>
      <trkpt lat="45.76964" lon="0.97704">
        <ele>302.742</ele>
        <time>2020-11-19T11:21:25Z</time>
      </trkpt>
      <trkpt lat="45.76906" lon="0.97863">
        <ele>295.839</ele>
        <time>2020-11-19T11:21:45Z</time>
      </trkpt>
      <trkpt lat="45.77013" lon="0.979">
        <ele>300.212</ele>
        <time>2017-03-24T10:11:39Z</time>
      </trkpt>
      <trkpt lat="45.77037" lon="0.97954">
        <ele>301.833</ele>
        <time>2020-02-14T17:57:32Z</time>
      </trkpt>
      <trkpt lat="45.77049" lon="0.9809">
        <ele>305.076</ele>
        <time>2020-02-14T17:57:52Z</time>
      </trkpt>
      <trkpt lat="45.77056" lon="0.98231">
        <ele>310.372</ele>
        <time>2020-02-14T17:58:12Z</time>
      </trkpt>
      <trkpt lat="45.77096" lon="0.98365">
        <ele>315.026</ele>
        <time>2017-03-24T10:12:59Z</time>
      </trkpt>
      <trkpt lat="45.77184" lon="0.98427">
        <ele>319.462</ele>
        <time>2017-03-24T10:13:19Z</time>
      </trkpt>
      <trkpt lat="45.77261" lon="0.9854">
        <ele>319.083</ele>
        <time>2017-03-24T10:13:39Z</time>
      </trkpt>
      <trkpt lat="45.77331" lon="0.98661">
        <ele>318.111</ele>
        <time>2017-03-24T10:13:59Z</time>
      </trkpt>
      <trkpt lat="45.77492" lon="0.98853">
        <ele>323.608</ele>
        <time>2017-03-24T10:14:19Z</time>
      </trkpt>
      <trkpt lat="45.77599" lon="0.98889">
        <ele>326.512</ele>
        <time>2017-03-24T10:14:39Z</time>
      </trkpt>
      <trkpt lat="45.77633" lon="0.98872">
        <ele>326.256</ele>
        <time>2017-03-24T10:14:59Z</time>
      </trkpt>
      <trkpt lat="45.77653" lon="0.98927">
        <ele>328.773</ele>
        <time>2020-02-14T18:00:52Z</time>
      </trkpt>
      <trkpt lat="45.7771" lon="0.98902">
        <ele>327.416</ele>
        <time>2017-03-24T10:15:39Z</time>
      </trkpt>
      <trkpt lat="45.77729" lon="0.9891">
        <ele>327.357</ele>
        <time>2017-03-24T10:15:59Z</time>
      </trkpt>
      <trkpt lat="45.77741" lon="0.98956">
        <ele>328.93</ele>
        <time>2017-03-24T10:16:19Z</time>
      </trkpt>
      <trkpt lat="45.7789" lon="0.99015">
        <ele>325.996</ele>
        <time>2017-03-24T10:16:39Z</time>
      </trkpt>
      <trkpt lat="45.78061" lon="0.99033">
        <ele>311.06</ele>
        <time>2017-03-24T10:16:59Z</time>
      </trkpt>
      <trkpt lat="45.78067" lon="0.99095">
        <ele>305.397</ele>
        <time>2017-03-24T10:17:19Z</time>
      </trkpt>
      <trkpt lat="45.78051" lon="0.99129">
        <ele>305.523</ele>
        <time>2017-03-24T10:17:39Z</time>
      </trkpt>
      <trkpt lat="45.78057" lon="0.992">
        <ele>302.825</ele>
        <time>2017-03-24T10:17:59Z</time>
      </trkpt>
      <trkpt lat="45.78087" lon="0.99246">
        <ele>300.508</ele>
        <time>2017-03-24T10:18:19Z</time>
      </trkpt>
      <trkpt lat="45.78127" lon="0.99247">
        <ele>295.395</ele>
        <time>2017-03-24T10:18:39Z</time>
      </trkpt>
      <trkpt lat="45.78175" lon="0.99343">
        <ele>289.789</ele>
        <time>2017-03-24T10:18:59Z</time>
      </trkpt>
      <trkpt lat="45.78239" lon="0.99681">
        <ele>288.186</ele>
        <time>2017-03-24T10:19:19Z</time>
      </trkpt>
      <trkpt lat="45.78323" lon="0.99661">
        <ele>282.819</ele>
        <time>2017-03-24T10:19:39Z</time>
      </trkpt>
      <trkpt lat="45.78359" lon="0.996">
        <ele>283.98</ele>
        <time>2017-03-24T10:19:59Z</time>
      </trkpt>
      <trkpt lat="45.78364" lon="0.99501">
        <ele>282.063</ele>
        <time>2017-03-24T10:20:19Z</time>
      </trkpt>
      <trkpt lat="45.78584" lon="0.99551">
        <ele>272.819</ele>
        <time>2017-03-24T10:20:39Z</time>
      </trkpt>
      <trkpt lat="45.78705" lon="0.9951">
        <ele>265.233</ele>
        <time>2017-03-24T10:20:59Z</time>
      </trkpt>
      <trkpt lat="45.78806" lon="0.99545">
        <ele>267.367</ele>
        <time>2017-03-24T10:21:19Z</time>
      </trkpt>
      <trkpt lat="45.78819" lon="0.99573">
        <ele>269.381</ele>
        <time>2017-03-24T10:21:39Z</time>
      </trkpt>
      <trkpt lat="45.78823" lon="0.99608">
        <ele>270.519</ele>
        <time>2017-03-24T10:21:59Z</time>
      </trkpt>
      <trkpt lat="45.78865" lon="0.99624">
        <ele>271.708</ele>
        <time>2017-03-24T10:22:19Z</time>
      </trkpt>
      <trkpt lat="45.78956" lon="0.99594">
        <ele>268.962</ele>
        <time>2017-03-24T10:22:39Z</time>
      </trkpt>
      <trkpt lat="45.78992" lon="0.99643">
        <ele>270.126</ele>
        <time>2017-03-24T10:22:59Z</time>
      </trkpt>
      <trkpt lat="45.79007" lon="0.99861">
        <ele>281.093</ele>
        <time>2017-03-24T10:23:19Z</time>
      </trkpt>
      <trkpt lat="45.7899" lon="0.99903">
        <ele>283.756</ele>
        <time>2017-03-24T10:23:39Z</time>
      </trkpt>
      <trkpt lat="45.78936" lon="0.99953">
        <ele>288.067</ele>
        <time>2017-03-24T10:23:59Z</time>
      </trkpt>
      <trkpt lat="45.79006" lon="0.99969">
        <ele>287.61</ele>
        <time>2017-03-24T10:24:19Z</time>
      </trkpt>
      <trkpt lat="45.78993" lon="1.00154">
        <ele>294.796</ele>
        <time>2017-03-24T10:24:39Z</time>
      </trkpt>
      <trkpt lat="45.7898" lon="1.00385">
        <ele>310.34</ele>
        <time>2017-03-24T10:24:59Z</time>
      </trkpt>
      <trkpt lat="45.78982" lon="1.00531">
        <ele>313.242</ele>
        <time>2017-03-24T10:25:19Z</time>
      </trkpt>
      <trkpt lat="45.78963" lon="1.00629">
        <ele>312.122</ele>
        <time>2017-03-24T10:25:39Z</time>
      </trkpt>
      <trkpt lat="45.79075" lon="1.00708">
        <ele>315.214</ele>
        <time>2017-03-24T10:25:59Z</time>
      </trkpt>
      <trkpt lat="45.79142" lon="1.00862">
        <ele>314.108</ele>
        <time>2017-03-24T10:26:19Z</time>
      </trkpt>
      <trkpt lat="45.79135" lon="1.00936">
        <ele>313.01</ele>
        <time>2017-03-24T10:26:39Z</time>
      </trkpt>
      <trkpt lat="45.79141" lon="1.01014">
        <ele>316.534</ele>
        <time>2017-03-24T10:26:59Z</time>
      </trkpt>
      <trkpt lat="45.79094" lon="1.01065">
        <ele>318.261</ele>
        <time>2017-03-24T10:27:19Z</time>
      </trkpt>
      <trkpt lat="45.79086" lon="1.01129">
        <ele>318.974</ele>
        <time>2017-03-24T10:27:39Z</time>
      </trkpt>
      <trkpt lat="45.79113" lon="1.01342">
        <ele>322.325</ele>
        <time>2017-03-24T10:27:59Z</time>
      </trkpt>
      <trkpt lat="45.79123" lon="1.01507">
        <ele>327.898</ele>
        <time>2017-03-24T10:28:19Z</time>
      </trkpt>
      <trkpt lat="45.79067" lon="1.01777">
        <ele>332.964</ele>
        <time>2017-03-24T10:28:39Z</time>
      </trkpt>
      <trkpt lat="45.79081" lon="1.01802">
        <ele>334.888</ele>
        <time>2017-03-24T10:28:59Z</time>
      </trkpt>
      <trkpt lat="45.79098" lon="1.01812">
        <ele>332.572</ele>
        <time>2017-03-24T10:29:19Z</time>
      </trkpt>
      <trkpt lat="45.791" lon="1.01864">
        <ele>333.013</ele>
        <time>2017-03-24T10:29:39Z</time>
      </trkpt>
      <trkpt lat="45.79085" lon="1.01927">
        <ele>337.714</ele>
        <time>2017-03-24T10:29:59Z</time>
      </trkpt>
      <trkpt lat="45.79126" lon="1.02018">
        <ele>342.708</ele>
        <time>2017-03-24T10:30:19Z</time>
      </trkpt>
      <trkpt lat="45.79162" lon="1.02116">
        <ele>348.773</ele>
        <time>2017-03-24T10:30:39Z</time>
      </trkpt>
      <trkpt lat="45.79216" lon="1.02189">
        <ele>350.487</ele>
        <time>2017-03-24T10:30:59Z</time>
      </trkpt>
      <trkpt lat="45.79246" lon="1.02311">
        <ele>342.954</ele>
        <time>2020-02-14T18:16:52Z</time>
      </trkpt>
      <trkpt lat="45.79386" lon="1.02351">
        <ele>336.117</ele>
        <time>2020-02-14T18:17:12Z</time>
      </trkpt>
      <trkpt lat="45.79464" lon="1.02321">
        <ele>335.938</ele>
        <time>2017-03-24T10:32:39Z</time>
      </trkpt>
      <trkpt lat="45.79478" lon="1.02336">
        <ele>336.131</ele>
        <time>2017-03-24T10:32:59Z</time>
      </trkpt>
      <trkpt lat="45.79486" lon="1.02396">
        <ele>338.277</ele>
        <time>2017-03-24T10:33:19Z</time>
      </trkpt>
      <trkpt lat="45.79569" lon="1.02569">
        <ele>344.511</ele>
        <time>2017-03-24T10:33:39Z</time>
      </trkpt>
      <trkpt lat="45.79602" lon="1.02687">
        <ele>346.746</ele>
        <time>2017-03-24T10:33:59Z</time>
      </trkpt>
      <trkpt lat="45.79599" lon="1.02784">
        <ele>349.188</ele>
        <time>2017-03-24T10:34:19Z</time>
      </trkpt>
      <trkpt lat="45.79629" lon="1.02901">
        <ele>358.116</ele>
        <time>2017-03-24T10:34:39Z</time>
      </trkpt>
      <trkpt lat="45.79655" lon="1.02945">
        <ele>364.208</ele>
        <time>2017-03-24T10:34:59Z</time>
      </trkpt>
      <trkpt lat="45.79748" lon="1.02906">
        <ele>369.57</ele>
        <time>2020-02-14T18:20:12Z</time>
      </trkpt>
      <trkpt lat="45.80039" lon="1.02944">
        <ele>384.014</ele>
        <time>2017-03-24T10:35:59Z</time>
      </trkpt>
      <trkpt lat="45.80119" lon="1.029">
        <ele>381.461</ele>
        <time>2020-02-14T18:20:52Z</time>
      </trkpt>
      <trkpt lat="45.80197" lon="1.02928">
        <ele>385.054</ele>
        <time>2017-03-24T10:36:39Z</time>
      </trkpt>
      <trkpt lat="45.80224" lon="1.0296">
        <ele>385.575</ele>
        <time>2017-03-24T10:36:59Z</time>
      </trkpt>
      <trkpt lat="45.80232" lon="1.03015">
        <ele>387.488</ele>
        <time>2017-03-24T10:37:19Z</time>
      </trkpt>
      <trkpt lat="45.80228" lon="1.0332">
        <ele>387.544</ele>
        <time>2017-03-24T10:37:39Z</time>
      </trkpt>
      <trkpt lat="45.80079" lon="1.03648">
        <ele>397.248</ele>
        <time>2017-03-24T10:37:59Z</time>
      </trkpt>
      <trkpt lat="45.80029" lon="1.03687">
        <ele>398.013</ele>
        <time>2017-03-24T10:38:19Z</time>
      </trkpt>
      <trkpt lat="45.79919" lon="1.03739">
        <ele>397.443</ele>
        <time>2017-03-24T10:38:39Z</time>
      </trkpt>
      <trkpt lat="45.79943" lon="1.03812">
        <ele>395.007</ele>
        <time>2017-03-24T10:38:59Z</time>
      </trkpt>
      <trkpt lat="45.79972" lon="1.04057">
        <ele>400.108</ele>
        <time>2017-03-24T10:39:19Z</time>
      </trkpt>
      <trkpt lat="45.79921" lon="1.04202">
        <ele>408.427</ele>
        <time>2017-03-24T10:39:39Z</time>
      </trkpt>
      <trkpt lat="45.79907" lon="1.04347">
        <ele>406.761</ele>
        <time>2017-03-24T10:39:59Z</time>
      </trkpt>
      <trkpt lat="45.79916" lon="1.04421">
        <ele>404.738</ele>
        <time>2017-03-24T10:40:19Z</time>
      </trkpt>
      <trkpt lat="45.79931" lon="1.04864">
        <ele>394.441</ele>
        <time>2017-03-24T10:40:39Z</time>
      </trkpt>
      <trkpt lat="45.79988" lon="1.04922">
        <ele>392.082</ele>
        <time>2020-02-14T18:25:32Z</time>
      </trkpt>
      <trkpt lat="45.80041" lon="1.05">
        <ele>389.035</ele>
        <time>2020-02-14T18:25:52Z</time>
      </trkpt>
      <trkpt lat="45.80135" lon="1.05058">
        <ele>390.171</ele>
        <time>2020-02-14T18:26:12Z</time>
      </trkpt>
      <trkpt lat="45.80195" lon="1.05256">
        <ele>384.515</ele>
        <time>2020-02-14T18:26:32Z</time>
      </trkpt>
      <trkpt lat="45.80272" lon="1.05428">
        <ele>373.494</ele>
        <time>2020-02-14T18:26:52Z</time>
      </trkpt>
      <trkpt lat="45.80308" lon="1.05472">
        <ele>369.857</ele>
        <time>2020-02-14T18:27:12Z</time>
      </trkpt>
      <trkpt lat="45.80358" lon="1.0551">
        <ele>362.022</ele>
        <time>2020-02-14T18:27:32Z</time>
      </trkpt>
      <trkpt lat="45.80411" lon="1.05512">
        <ele>360.008</ele>
        <time>2020-02-14T18:27:52Z</time>
      </trkpt>
      <trkpt lat="45.80462" lon="1.05478">
        <ele>356.345</ele>
        <time>2020-02-14T18:28:12Z</time>
      </trkpt>
      <trkpt lat="45.80491" lon="1.05478">
        <ele>354.949</ele>
        <time>2020-02-14T18:28:32Z</time>
      </trkpt>
      <trkpt lat="45.80549" lon="1.05544">
        <ele>351.486</ele>
        <time>2020-02-14T18:28:52Z</time>
      </trkpt>
      <trkpt lat="45.80579" lon="1.05721">
        <ele>342.169</ele>
        <time>2020-02-14T18:29:12Z</time>
      </trkpt>
      <trkpt lat="45.80656" lon="1.05779">
        <ele>341.66</ele>
        <time>2020-02-14T18:29:32Z</time>
      </trkpt>
      <trkpt lat="45.80699" lon="1.05791">
        <ele>343.423</ele>
        <time>2020-02-14T18:29:52Z</time>
      </trkpt>
      <trkpt lat="45.80706" lon="1.05833">
        <ele>343.879</ele>
        <time>2020-02-14T18:30:12Z</time>
      </trkpt>
      <trkpt lat="45.80697" lon="1.05951">
        <ele>341.963</ele>
        <time>2020-02-14T18:30:32Z</time>
      </trkpt>
      <trkpt lat="45.80709" lon="1.06097">
        <ele>341.878</ele>
        <time>2020-02-14T18:30:52Z</time>
      </trkpt>
      <trkpt lat="45.80742" lon="1.06233">
        <ele>346.033</ele>
        <time>2020-02-14T18:31:12Z</time>
      </trkpt>
      <trkpt lat="45.80801" lon="1.06303">
        <ele>346.126</ele>
        <time>2020-02-14T18:31:32Z</time>
      </trkpt>
      <trkpt lat="45.80858" lon="1.06341">
        <ele>348.708</ele>
        <time>2020-02-14T18:31:52Z</time>
      </trkpt>
      <trkpt lat="45.80861" lon="1.06385">
        <ele>348.053</ele>
        <time>2020-02-14T18:32:12Z</time>
      </trkpt>
      <trkpt lat="45.80841" lon="1.06467">
        <ele>349.217</ele>
        <time>2020-02-14T18:32:32Z</time>
      </trkpt>
      <trkpt lat="45.80863" lon="1.06537">
        <ele>351.634</ele>
        <time>2020-02-14T18:32:52Z</time>
      </trkpt>
      <trkpt lat="45.80932" lon="1.06603">
        <ele>358.827</ele>
        <time>2020-02-14T18:33:12Z</time>
      </trkpt>
      <trkpt lat="45.81002" lon="1.06723">
        <ele>354.868</ele>
        <time>2020-02-14T18:33:32Z</time>
      </trkpt>
      <trkpt lat="45.81027" lon="1.0679">
        <ele>349.121</ele>
        <time>2020-02-14T18:33:52Z</time>
      </trkpt>
      <trkpt lat="45.81011" lon="1.0682">
        <ele>350.247</ele>
        <time>2020-02-14T18:34:12Z</time>
      </trkpt>
      <trkpt lat="45.81007" lon="1.0692">
        <ele>350.791</ele>
        <time>2020-02-14T18:34:32Z</time>
      </trkpt>
      <trkpt lat="45.81032" lon="1.0696">
        <ele>349.393</ele>
        <time>2020-02-14T18:34:52Z</time>
      </trkpt>
      <trkpt lat="45.80979" lon="1.07098">
        <ele>344.565</ele>
        <time>2020-02-14T18:35:12Z</time>
      </trkpt>
      <trkpt lat="45.80939" lon="1.07124">
        <ele>344.621</ele>
        <time>2020-02-14T18:35:32Z</time>
      </trkpt>
      <trkpt lat="45.80935" lon="1.07146">
        <ele>344.108</ele>
        <time>2020-02-14T18:35:52Z</time>
      </trkpt>
      <trkpt lat="45.80907" lon="1.07176">
        <ele>343.785</ele>
        <time>2020-02-14T18:36:12Z</time>
      </trkpt>
      <trkpt lat="45.80882" lon="1.07246">
        <ele>339.459</ele>
        <time>2020-02-14T18:36:32Z</time>
      </trkpt>
      <trkpt lat="45.80792" lon="1.07348">
        <ele>335.256</ele>
        <time>2020-02-14T18:36:52Z</time>
      </trkpt>
      <trkpt lat="45.8089" lon="1.07476">
        <ele>331.739</ele>
        <time>2020-02-14T18:37:12Z</time>
      </trkpt>
      <trkpt lat="45.80886" lon="1.07548">
        <ele>327.17</ele>
        <time>2020-02-14T18:37:32Z</time>
      </trkpt>
      <trkpt lat="45.80858" lon="1.07629">
        <ele>322.343</ele>
        <time>2020-02-14T18:37:52Z</time>
      </trkpt>
      <trkpt lat="45.80541" lon="1.08223">
        <ele>281.539</ele>
        <time>2020-02-14T18:38:12Z</time>
      </trkpt>
      <trkpt lat="45.80552" lon="1.08377">
        <ele>277.133</ele>
        <time>2020-02-14T18:38:32Z</time>
      </trkpt>
      <trkpt lat="45.80693" lon="1.08704">
        <ele>266.714</ele>
        <time>2020-02-14T18:38:52Z</time>
      </trkpt>
      <trkpt lat="45.80773" lon="1.0878">
        <ele>262.554</ele>
        <time>2020-02-14T18:39:12Z</time>
      </trkpt>
      <trkpt lat="45.80774" lon="1.08812">
        <ele>263.509</ele>
        <time>2020-02-14T18:39:32Z</time>
      </trkpt>
      <trkpt lat="45.80721" lon="1.0888">
        <ele>260.908</ele>
        <time>2020-02-14T18:39:52Z</time>
      </trkpt>
      <trkpt lat="45.80623" lon="1.09026">
        <ele>259.797</ele>
        <time>2020-02-14T18:40:12Z</time>
      </trkpt>
      <trkpt lat="45.80591" lon="1.0912">
        <ele>268.371</ele>
        <time>2020-02-14T18:40:32Z</time>
      </trkpt>
      <trkpt lat="45.80605" lon="1.09156">
        <ele>271.818</ele>
        <time>2020-02-14T18:40:52Z</time>
      </trkpt>
      <trkpt lat="45.80643" lon="1.09194">
        <ele>273.811</ele>
        <time>2020-02-14T18:41:12Z</time>
      </trkpt>
      <trkpt lat="45.80636" lon="1.09206">
        <ele>274.022</ele>
        <time>2020-02-14T18:41:32Z</time>
      </trkpt>
      <trkpt lat="45.80604" lon="1.09218">
        <ele>273.135</ele>
        <time>2020-02-14T18:41:52Z</time>
      </trkpt>
      <trkpt lat="45.80559" lon="1.09286">
        <ele>270.621</ele>
        <time>2020-02-14T18:42:12Z</time>
      </trkpt>
      <trkpt lat="45.80563" lon="1.0932">
        <ele>268.585</ele>
        <time>2020-02-14T18:42:32Z</time>
      </trkpt>
      <trkpt lat="45.80605" lon="1.09398">
        <ele>267.552</ele>
        <time>2020-02-14T18:42:52Z</time>
      </trkpt>
      <trkpt lat="45.80607" lon="1.09533">
        <ele>267.053</ele>
        <time>2020-02-14T18:43:12Z</time>
      </trkpt>
      <trkpt lat="45.80556" lon="1.09645">
        <ele>272.208</ele>
        <time>2020-02-14T18:43:32Z</time>
      </trkpt>
      <trkpt lat="45.80597" lon="1.09831">
        <ele>269.608</ele>
        <time>2020-02-14T18:43:52Z</time>
      </trkpt>
      <trkpt lat="45.80462" lon="1.10003">
        <ele>266.691</ele>
        <time>2020-02-14T18:44:12Z</time>
      </trkpt>
      <trkpt lat="45.80489" lon="1.10099">
        <ele>266.915</ele>
        <time>2020-02-14T18:44:32Z</time>
      </trkpt>
      <trkpt lat="45.80495" lon="1.10161">
        <ele>263.282</ele>
        <time>2020-02-14T18:44:52Z</time>
      </trkpt>
      <trkpt lat="45.80466" lon="1.10239">
        <ele>257.675</ele>
        <time>2020-02-14T18:45:12Z</time>
      </trkpt>
      <trkpt lat="45.80474" lon="1.10271">
        <ele>256.226</ele>
        <time>2020-02-14T18:45:32Z</time>
      </trkpt>
      <trkpt lat="45.80596" lon="1.10495">
        <ele>250.119</ele>
        <time>2020-02-14T18:45:52Z</time>
      </trkpt>
      <trkpt lat="45.80607" lon="1.10668">
        <ele>249.845</ele>
        <time>2020-02-14T18:46:12Z</time>
      </trkpt>
      <trkpt lat="45.80605" lon="1.10711">
        <ele>249.419</ele>
        <time>2020-02-14T18:46:32Z</time>
      </trkpt>
      <trkpt lat="45.80562" lon="1.10902">
        <ele>247.957</ele>
        <time>2020-02-14T18:46:52Z</time>
      </trkpt>
      <trkpt lat="45.80576" lon="1.10929">
        <ele>245.2</ele>
        <time>2020-02-14T18:47:12Z</time>
      </trkpt>
      <trkpt lat="45.80629" lon="1.10966">
        <ele>242.22</ele>
        <time>2020-02-14T18:47:32Z</time>
      </trkpt>
      <trkpt lat="45.807" lon="1.11074">
        <ele>240.908</ele>
        <time>2020-02-14T18:47:52Z</time>
      </trkpt>
      <trkpt lat="45.80729" lon="1.11143">
        <ele>237.781</ele>
        <time>2020-02-14T18:48:12Z</time>
      </trkpt>
      <trkpt lat="45.80786" lon="1.1121">
        <ele>235.465</ele>
        <time>2020-02-14T18:48:32Z</time>
      </trkpt>
      <trkpt lat="45.80803" lon="1.11218">
        <ele>235.242</ele>
        <time>2020-02-14T18:48:52Z</time>
      </trkpt>
      <trkpt lat="45.8069" lon="1.11442">
        <ele>216.955</ele>
        <time>2020-02-14T18:49:12Z</time>
      </trkpt>
      <trkpt lat="45.80681" lon="1.11519">
        <ele>212.326</ele>
        <time>2020-02-14T18:49:32Z</time>
      </trkpt>
      <trkpt lat="45.80692" lon="1.11585">
        <ele>212.899</ele>
        <time>2020-02-14T18:49:52Z</time>
      </trkpt>
      <trkpt lat="45.80739" lon="1.11695">
        <ele>208.775</ele>
        <time>2020-02-14T18:50:12Z</time>
      </trkpt>
      <trkpt lat="45.80623" lon="1.11825">
        <ele>203.649</ele>
        <time>2020-02-14T18:50:32Z</time>
      </trkpt>
      <trkpt lat="45.80644" lon="1.11861">
        <ele>201.077</ele>
        <time>2020-02-14T18:50:52Z</time>
      </trkpt>
      <trkpt lat="45.80633" lon="1.11887">
        <ele>202.761</ele>
        <time>2020-02-14T18:51:12Z</time>
      </trkpt>
      <trkpt lat="45.80569" lon="1.11913">
        <ele>200.727</ele>
        <time>2020-02-14T18:51:32Z</time>
      </trkpt>
      <trkpt lat="45.80535" lon="1.11971">
        <ele>199.808</ele>
        <time>2020-02-14T18:51:52Z</time>
      </trkpt>
      <trkpt lat="45.80505" lon="1.11985">
        <ele>199.963</ele>
        <time>2020-02-14T18:52:12Z</time>
      </trkpt>
      <trkpt lat="45.80475" lon="1.12037">
        <ele>199.887</ele>
        <time>2020-02-14T18:52:32Z</time>
      </trkpt>
      <trkpt lat="45.80424" lon="1.12049">
        <ele>202.364</ele>
        <time>2020-02-14T18:52:52Z</time>
      </trkpt>
      <trkpt lat="45.80354" lon="1.12109">
        <ele>202.157</ele>
        <time>2020-02-14T18:53:12Z</time>
      </trkpt>
      <trkpt lat="45.80315" lon="1.12165">
        <ele>202.488</ele>
        <time>2020-02-14T18:53:32Z</time>
      </trkpt>
      <trkpt lat="45.80258" lon="1.12173">
        <ele>203.471</ele>
        <time>2020-02-14T18:53:52Z</time>
      </trkpt>
      <trkpt lat="45.80212" lon="1.12169">
        <ele>203.687</ele>
        <time>2017-03-24T11:05:59Z</time>
      </trkpt>
      <trkpt lat="45.80158" lon="1.1221">
        <ele>200.921</ele>
        <time>2017-03-24T11:06:19Z</time>
      </trkpt>
      <trkpt lat="45.80131" lon="1.12275">
        <ele>199.772</ele>
        <time>2017-03-24T11:06:39Z</time>
      </trkpt>
      <trkpt lat="45.8008" lon="1.12326">
        <ele>202.413</ele>
        <time>2017-03-24T11:06:59Z</time>
      </trkpt>
      <trkpt lat="45.80023" lon="1.12393">
        <ele>202.214</ele>
        <time>2017-03-24T11:07:19Z</time>
      </trkpt>
      <trkpt lat="45.8001" lon="1.12439">
        <ele>202.408</ele>
        <time>2017-03-24T11:07:39Z</time>
      </trkpt>
      <trkpt lat="45.79947" lon="1.12594">
        <ele>202.023</ele>
        <time>2017-03-24T11:07:59Z</time>
      </trkpt>
      <trkpt lat="45.79884" lon="1.1288">
        <ele>202.657</ele>
        <time>2017-03-24T11:08:19Z</time>
      </trkpt>
      <trkpt lat="45.7985" lon="1.12939">
        <ele>205.394</ele>
        <time>2017-03-24T11:08:39Z</time>
      </trkpt>
      <trkpt lat="45.79835" lon="1.13064">
        <ele>207.417</ele>
        <time>2017-03-24T11:08:59Z</time>
      </trkpt>
      <trkpt lat="45.79838" lon="1.13128">
        <ele>210.628</ele>
        <time>2017-03-24T11:09:19Z</time>
      </trkpt>
      <trkpt lat="45.79905" lon="1.1352">
        <ele>204.781</ele>
        <time>2017-03-24T11:09:39Z</time>
      </trkpt>
      <trkpt lat="45.79865" lon="1.13749">
        <ele>210.657</ele>
        <time>2017-03-24T11:09:59Z</time>
      </trkpt>
      <trkpt lat="45.79824" lon="1.13826">
        <ele>212.561</ele>
        <time>2017-03-24T11:10:19Z</time>
      </trkpt>
      <trkpt lat="45.79807" lon="1.13894">
        <ele>209.663</ele>
        <time>2017-03-24T11:10:39Z</time>
      </trkpt>
      <trkpt lat="45.79884" lon="1.1393">
        <ele>202.244</ele>
        <time>2017-03-24T11:10:59Z</time>
      </trkpt>
      <trkpt lat="45.79886" lon="1.13952">
        <ele>201.118</ele>
        <time>2017-03-24T11:11:19Z</time>
      </trkpt>
      <trkpt lat="45.79841" lon="1.14045">
        <ele>200.008</ele>
        <time>2017-03-24T11:11:39Z</time>
      </trkpt>
      <trkpt lat="45.7974" lon="1.14188">
        <ele>199.892</ele>
        <time>2017-03-24T11:11:59Z</time>
      </trkpt>
      <trkpt lat="45.79711" lon="1.14203">
        <ele>199.136</ele>
        <time>2020-11-19T12:25:25Z</time>
      </trkpt>
      <trkpt lat="45.79684" lon="1.1419">
        <ele>201.633</ele>
        <time>2020-11-19T12:25:45Z</time>
      </trkpt>
      <trkpt lat="45.79663" lon="1.1416">
        <ele>205.276</ele>
        <time>2020-11-19T12:26:05Z</time>
      </trkpt>
      <trkpt lat="45.79667" lon="1.14205">
        <ele>203.497</ele>
        <time>2020-11-19T12:26:25Z</time>
      </trkpt>
      <trkpt lat="45.79776" lon="1.14341">
        <ele>203.51</ele>
        <time>2020-11-19T12:26:45Z</time>
      </trkpt>
      <trkpt lat="45.79709" lon="1.1442">
        <ele>203.056</ele>
        <time>2020-11-19T12:27:05Z</time>
      </trkpt>
      <trkpt lat="45.79732" lon="1.1446">
        <ele>204.57</ele>
        <time>2020-11-19T12:27:25Z</time>
      </trkpt>
      <trkpt lat="45.79682" lon="1.14592">
        <ele>206.149</ele>
        <time>2020-11-19T12:27:45Z</time>
      </trkpt>
      <trkpt lat="45.79685" lon="1.14627">
        <ele>206.702</ele>
        <time>2020-11-19T12:28:05Z</time>
      </trkpt>
      <trkpt lat="45.79462" lon="1.1513">
        <ele>209.922</ele>
        <time>2020-11-19T12:28:25Z</time>
      </trkpt>
      <trkpt lat="45.79493" lon="1.1524">
        <ele>219.308</ele>
        <time>2020-11-19T12:28:45Z</time>
      </trkpt>
      <trkpt lat="45.79496" lon="1.15367">
        <ele>234.03</ele>
        <time>2020-11-19T12:29:05Z</time>
      </trkpt>
      <trkpt lat="45.79527" lon="1.15427">
        <ele>238.874</ele>
        <time>2020-11-19T12:29:25Z</time>
      </trkpt>
      <trkpt lat="45.79573" lon="1.15606">
        <ele>251.191</ele>
        <time>2020-11-19T12:29:45Z</time>
      </trkpt>
      <trkpt lat="45.79578" lon="1.15746">
        <ele>257.744</ele>
        <time>2020-11-19T12:30:05Z</time>
      </trkpt>
      <trkpt lat="45.79594" lon="1.15858">
        <ele>260.945</ele>
        <time>2020-11-19T12:30:25Z</time>
      </trkpt>
      <trkpt lat="45.796" lon="1.15998">
        <ele>263.648</ele>
        <time>2020-11-19T12:30:45Z</time>
      </trkpt>
      <trkpt lat="45.79568" lon="1.16171">
        <ele>256.914</ele>
        <time>2020-11-19T12:31:05Z</time>
      </trkpt>
      <trkpt lat="45.79591" lon="1.16384">
        <ele>255.198</ele>
        <time>2020-11-19T12:31:25Z</time>
      </trkpt>
      <trkpt lat="45.79626" lon="1.1654">
        <ele>257.336</ele>
        <time>2020-11-19T12:31:45Z</time>
      </trkpt>
      <trkpt lat="45.79578" lon="1.16797">
        <ele>257.117</ele>
        <time>2020-11-19T12:32:05Z</time>
      </trkpt>
      <trkpt lat="45.79523" lon="1.16977">
        <ele>255.618</ele>
        <time>2020-11-19T12:32:25Z</time>
      </trkpt>
      <trkpt lat="45.79471" lon="1.17091">
        <ele>257.508</ele>
        <time>2020-11-19T12:32:45Z</time>
      </trkpt>
      <trkpt lat="45.7949" lon="1.17119">
        <ele>260.259</ele>
        <time>2020-11-19T12:33:05Z</time>
      </trkpt>
      <trkpt lat="45.79488" lon="1.17182">
        <ele>265.223</ele>
        <time>2020-11-19T12:33:25Z</time>
      </trkpt>
      <trkpt lat="45.79457" lon="1.17244">
        <ele>270.62</ele>
        <time>2020-11-19T12:33:45Z</time>
      </trkpt>
      <trkpt lat="45.79477" lon="1.17294">
        <ele>271.133</ele>
        <time>2020-11-19T12:34:05Z</time>
      </trkpt>
      <trkpt lat="45.79476" lon="1.17333">
        <ele>273.194</ele>
        <time>2020-11-19T12:34:25Z</time>
      </trkpt>
      <trkpt lat="45.79526" lon="1.17368">
        <ele>275.217</ele>
        <time>2020-11-19T12:34:45Z</time>
      </trkpt>
      <trkpt lat="45.79553" lon="1.17515">
        <ele>279.323</ele>
        <time>2020-11-19T12:35:05Z</time>
      </trkpt>
      <trkpt lat="45.79599" lon="1.17603">
        <ele>282.337</ele>
        <time>2020-11-19T12:35:25Z</time>
      </trkpt>
      <trkpt lat="45.79591" lon="1.17795">
        <ele>286.781</ele>
        <time>2020-11-19T12:35:45Z</time>
      </trkpt>
      <trkpt lat="45.79615" lon="1.18007">
        <ele>286.061</ele>
        <time>2020-11-19T12:36:05Z</time>
      </trkpt>
      <trkpt lat="45.79615" lon="1.18146">
        <ele>289.417</ele>
        <time>2020-11-19T12:36:25Z</time>
      </trkpt>
      <trkpt lat="45.79668" lon="1.18192">
        <ele>292.908</ele>
        <time>2020-11-19T12:36:45Z</time>
      </trkpt>
      <trkpt lat="45.79664" lon="1.18281">
        <ele>301.854</ele>
        <time>2020-11-19T12:37:05Z</time>
      </trkpt>
      <trkpt lat="45.79613" lon="1.18239">
        <ele>295.368</ele>
        <time>2020-11-19T12:37:25Z</time>
      </trkpt>
      <trkpt lat="45.7961" lon="1.18563">
        <ele>292.965</ele>
        <time>2020-11-19T12:37:45Z</time>
      </trkpt>
      <trkpt lat="45.79725" lon="1.18691">
        <ele>291.158</ele>
        <time>2020-11-19T12:38:05Z</time>
      </trkpt>
      <trkpt lat="45.79777" lon="1.19093">
        <ele>286.079</ele>
        <time>2020-11-19T12:38:25Z</time>
      </trkpt>
      <trkpt lat="45.79796" lon="1.19173">
        <ele>289.922</ele>
        <time>2020-11-19T12:38:45Z</time>
      </trkpt>
      <trkpt lat="45.79814" lon="1.19452">
        <ele>292.378</ele>
        <time>2020-11-19T12:39:05Z</time>
      </trkpt>
      <trkpt lat="45.79791" lon="1.19833">
        <ele>294.562</ele>
        <time>2020-11-19T12:39:25Z</time>
      </trkpt>
      <trkpt lat="45.79801" lon="1.19966">
        <ele>293.319</ele>
        <time>2020-11-19T12:39:45Z</time>
      </trkpt>
      <trkpt lat="45.79861" lon="1.2013">
        <ele>298.609</ele>
        <time>2020-11-19T12:40:05Z</time>
      </trkpt>
      <trkpt lat="45.79935" lon="1.20522">
        <ele>315.319</ele>
        <time>2020-11-19T12:40:25Z</time>
      </trkpt>
      <trkpt lat="45.80024" lon="1.20859">
        <ele>321.608</ele>
        <time>2020-11-19T12:40:45Z</time>
      </trkpt>
      <trkpt lat="45.80067" lon="1.21181">
        <ele>324.937</ele>
        <time>2020-11-19T12:41:05Z</time>
      </trkpt>
      <trkpt lat="45.80117" lon="1.21241">
        <ele>326.141</ele>
        <time>2020-11-19T12:41:25Z</time>
      </trkpt>
      <trkpt lat="45.80236" lon="1.21322">
        <ele>314.478</ele>
        <time>2020-11-19T12:41:45Z</time>
      </trkpt>
      <trkpt lat="45.80303" lon="1.21352">
        <ele>306.771</ele>
        <time>2020-11-19T12:42:05Z</time>
      </trkpt>
      <trkpt lat="45.80361" lon="1.21361">
        <ele>304.992</ele>
        <time>2020-11-19T12:42:25Z</time>
      </trkpt>
      <trkpt lat="45.80399" lon="1.2141">
        <ele>307.845</ele>
        <time>2020-11-19T12:42:45Z</time>
      </trkpt>
      <trkpt lat="45.80415" lon="1.21495">
        <ele>304.961</ele>
        <time>2020-11-19T12:43:05Z</time>
      </trkpt>
      <trkpt lat="45.80422" lon="1.2162">
        <ele>303.295</ele>
        <time>2020-11-19T12:43:25Z</time>
      </trkpt>
      <trkpt lat="45.80412" lon="1.21708">
        <ele>299.851</ele>
        <time>2020-11-19T12:43:45Z</time>
      </trkpt>
      <trkpt lat="45.80334" lon="1.21996">
        <ele>284.401</ele>
        <time>2020-11-19T12:44:05Z</time>
      </trkpt>
      <trkpt lat="45.80311" lon="1.22023">
        <ele>282.311</ele>
        <time>2020-11-19T12:44:25Z</time>
      </trkpt>
      <trkpt lat="45.80338" lon="1.22036">
        <ele>282.708</ele>
        <time>2020-11-19T12:44:45Z</time>
      </trkpt>
      <trkpt lat="45.80416" lon="1.22033">
        <ele>280.731</ele>
        <time>2020-11-19T12:45:05Z</time>
      </trkpt>
      <trkpt lat="45.80466" lon="1.22056">
        <ele>277.375</ele>
        <time>2020-11-19T12:45:25Z</time>
      </trkpt>
      <trkpt lat="45.8049" lon="1.22083">
        <ele>276.322</ele>
        <time>2020-11-19T12:45:45Z</time>
      </trkpt>
      <trkpt lat="45.80466" lon="1.22259">
        <ele>273.855</ele>
        <time>2020-11-19T12:46:05Z</time>
      </trkpt>
      <trkpt lat="45.8042" lon="1.2247">
        <ele>278.176</ele>
        <time>2020-11-19T12:46:25Z</time>
      </trkpt>
      <trkpt lat="45.80438" lon="1.22599">
        <ele>273.729</ele>
        <time>2020-11-19T12:46:45Z</time>
      </trkpt>
      <trkpt lat="45.80498" lon="1.2261">
        <ele>277.895</ele>
        <time>2020-11-19T12:47:05Z</time>
      </trkpt>
      <trkpt lat="45.80529" lon="1.22664">
        <ele>278.169</ele>
        <time>2020-11-19T12:47:25Z</time>
      </trkpt>
      <trkpt lat="45.80558" lon="1.22768">
        <ele>277.527</ele>
        <time>2020-11-19T12:47:45Z</time>
      </trkpt>
      <trkpt lat="45.80618" lon="1.22846">
        <ele>277.468</ele>
        <time>2020-11-19T12:48:05Z</time>
      </trkpt>
      <trkpt lat="45.80618" lon="1.2295">
        <ele>274.414</ele>
        <time>2020-11-19T12:48:25Z</time>
      </trkpt>
      <trkpt lat="45.8076" lon="1.23173">
        <ele>265.108</ele>
        <time>2020-11-19T12:48:45Z</time>
      </trkpt>
      <trkpt lat="45.80916" lon="1.23368">
        <ele>265.388</ele>
        <time>2020-11-19T12:49:05Z</time>
      </trkpt>
      <trkpt lat="45.80952" lon="1.23448">
        <ele>273.472</ele>
        <time>2020-11-19T12:49:25Z</time>
      </trkpt>
      <trkpt lat="45.81015" lon="1.23784">
        <ele>279.179</ele>
        <time>2020-11-19T12:49:45Z</time>
      </trkpt>
      <trkpt lat="45.81163" lon="1.23976">
        <ele>268.632</ele>
        <time>2020-11-19T12:50:05Z</time>
      </trkpt>
      <trkpt lat="45.81306" lon="1.2408">
        <ele>257.153</ele>
        <time>2020-11-19T12:50:25Z</time>
      </trkpt>
      <trkpt lat="45.81553" lon="1.24287">
        <ele>264.826</ele>
        <time>2020-11-19T12:50:45Z</time>
      </trkpt>
      <trkpt lat="45.81672" lon="1.24456">
        <ele>279.092</ele>
        <time>2020-11-19T12:51:05Z</time>
      </trkpt>
      <trkpt lat="45.81739" lon="1.24523">
        <ele>281.296</ele>
        <time>2020-11-19T12:51:25Z</time>
      </trkpt>
      <trkpt lat="45.81951" lon="1.24524">
        <ele>267.683</ele>
        <time>2020-11-19T12:51:45Z</time>
      </trkpt>
      <trkpt lat="45.82003" lon="1.2449">
        <ele>265.525</ele>
        <time>2020-11-19T12:52:05Z</time>
      </trkpt>
      <trkpt lat="45.82255" lon="1.24664">
        <ele>253.617</ele>
        <time>2020-11-19T12:52:25Z</time>
      </trkpt>
      <trkpt lat="45.82375" lon="1.24835">
        <ele>261.108</ele>
        <time>2020-11-19T12:52:45Z</time>
      </trkpt>
      <trkpt lat="45.8253" lon="1.24936">
        <ele>270.024</ele>
        <time>2020-11-19T12:53:05Z</time>
      </trkpt>
      <trkpt lat="45.82585" lon="1.25054">
        <ele>275.128</ele>
        <time>2020-11-19T12:53:25Z</time>
      </trkpt>
      <trkpt lat="45.82608" lon="1.24877">
        <ele>275.975</ele>
        <time>2020-11-19T12:53:45Z</time>
      </trkpt>
      <trkpt lat="45.82955" lon="1.24946">
        <ele>299.418</ele>
        <time>2020-11-19T12:54:05Z</time>
      </trkpt>
      <trkpt lat="45.82958" lon="1.25144">
        <ele>301.459</ele>
        <time>2020-11-19T12:54:25Z</time>
      </trkpt>
      <trkpt lat="45.82999" lon="1.25144">
        <ele>302.072</ele>
        <time>2020-11-19T12:54:45Z</time>
      </trkpt>
      <trkpt lat="45.8299" lon="1.25329">
        <ele>303.788</ele>
        <time>2020-11-19T12:55:05Z</time>
      </trkpt>
      <trkpt lat="45.82998" lon="1.25445">
        <ele>299.032</ele>
        <time>2020-11-19T12:55:25Z</time>
      </trkpt>
      <trkpt lat="45.83034" lon="1.25463">
        <ele>298.198</ele>
        <time>2020-11-19T12:55:45Z</time>
      </trkpt>
      <trkpt lat="45.8298" lon="1.25643">
        <ele>291.415</ele>
        <time>2020-11-19T12:56:05Z</time>
      </trkpt>
      <trkpt lat="45.82989" lon="1.25711">
        <ele>292.826</ele>
        <time>2020-11-19T12:56:25Z</time>
      </trkpt>
      <trkpt lat="45.83097" lon="1.25874">
        <ele>284.308</ele>
        <time>2020-11-19T12:56:45Z</time>
      </trkpt>
      <trkpt lat="45.83129" lon="1.2603">
        <ele>270.955</ele>
        <time>2020-11-19T12:57:05Z</time>
      </trkpt>
      <trkpt lat="45.83049" lon="1.26115">
        <ele>272.159</ele>
        <time>2020-11-19T12:57:25Z</time>
      </trkpt>
      <trkpt lat="45.8295" lon="1.26276">
        <ele>263.646</ele>
        <time>2020-11-19T12:57:45Z</time>
      </trkpt>
      <trkpt lat="45.82958" lon="1.26295">
        <ele>263.429</ele>
        <time>2020-11-19T12:58:05Z</time>
      </trkpt>
      <trkpt lat="45.82886" lon="1.26385">
        <ele>256.97</ele>
        <time>2020-11-19T12:58:25Z</time>
      </trkpt>
      <trkpt lat="45.82883" lon="1.26422">
        <ele>257.043</ele>
        <time>2020-11-19T12:58:45Z</time>
      </trkpt>
      <trkpt lat="45.82902" lon="1.26427">
        <ele>258.139</ele>
        <time>2020-11-19T12:59:05Z</time>
      </trkpt>
      <trkpt lat="45.82905" lon="1.26503">
        <ele>259.113</ele>
        <time>2020-11-19T12:59:25Z</time>
      </trkpt>
      <trkpt lat="45.82947" lon="1.26562">
        <ele>259.976</ele>
        <time>2020-11-19T12:59:45Z</time>
      </trkpt>
      <trkpt lat="45.82902" lon="1.26616">
        <ele>258.99</ele>
        <time>2020-11-19T13:00:05Z</time>
      </trkpt>
      <trkpt lat="45.82923" lon="1.26666">
        <ele>257.819</ele>
        <time>2020-11-19T13:00:25Z</time>
      </trkpt>
      <trkpt lat="45.82927" lon="1.2672">
        <ele>257.608</ele>
        <time>2020-11-19T13:00:45Z</time>
      </trkpt>
      <trkpt lat="45.8291" lon="1.2678">
        <ele>251.793</ele>
        <time>2020-11-19T13:01:05Z</time>
      </trkpt>
      <trkpt lat="45.8294" lon="1.26816">
        <ele>244.747</ele>
        <time>2020-11-19T13:01:25Z</time>
      </trkpt>
      <trkpt lat="45.82913" lon="1.26873">
        <ele>239.934</ele>
        <time>2020-11-19T13:01:45Z</time>
      </trkpt>
      <trkpt lat="45.82944" lon="1.26882">
        <ele>237.737</ele>
        <time>2020-11-19T13:02:05Z</time>
      </trkpt>
      <trkpt lat="45.8297" lon="1.26879">
        <ele>238.148</ele>
        <time>2020-11-19T13:02:25Z</time>
      </trkpt>
      <trkpt lat="45.82973" lon="1.2691">
        <ele>235.591</ele>
        <time>2020-11-19T13:02:45Z</time>
      </trkpt>
      <trkpt lat="45.82878" lon="1.2713">
        <ele>218.967</ele>
        <time>2020-11-19T13:03:05Z</time>
      </trkpt>
      <trkpt lat="45.83" lon="1.27312">
        <ele>223.271</ele>
        <time>2020-11-19T13:03:25Z</time>
      </trkpt>
      <trkpt lat="45.82993" lon="1.27386">
        <ele>231.592</ele>
        <time>2020-11-19T13:03:45Z</time>
      </trkpt>
      <trkpt lat="45.8303" lon="1.27525">
        <ele>223.773</ele>
        <time>2020-11-19T13:04:05Z</time>
      </trkpt>
      <trkpt lat="45.83146" lon="1.27728">
        <ele>222.02</ele>
        <time>2020-11-19T13:04:25Z</time>
      </trkpt>
      <trkpt lat="45.83261" lon="1.27871">
        <ele>219.608</ele>
        <time>2020-11-19T13:04:45Z</time>
      </trkpt>
      <trkpt lat="45.83401" lon="1.27993">
        <ele>219.725</ele>
        <time>2020-11-19T13:05:05Z</time>
      </trkpt>
      <trkpt lat="45.83431" lon="1.27982">
        <ele>218.739</ele>
        <time>2020-11-19T13:05:25Z</time>
      </trkpt>
      <trkpt lat="45.83501" lon="1.28039">
        <ele>223.416</ele>
        <time>2020-11-19T13:05:45Z</time>
      </trkpt>
      <trkpt lat="45.83583" lon="1.28143">
        <ele>225.219</ele>
        <time>2020-11-19T13:06:05Z</time>
      </trkpt>
      <trkpt lat="45.83745" lon="1.28422">
        <ele>226.28</ele>
        <time>2020-11-19T13:06:25Z</time>
      </trkpt>
      <trkpt lat="45.83832" lon="1.28583">
        <ele>230.283</ele>
        <time>2020-11-19T13:06:45Z</time>
      </trkpt>
      <trkpt lat="45.83902" lon="1.28683">
        <ele>229.679</ele>
        <time>2020-11-19T13:07:05Z</time>
      </trkpt>
      <trkpt lat="45.84006" lon="1.28889">
        <ele>227.023</ele>
        <time>2020-11-19T13:07:25Z</time>
      </trkpt>
      <trkpt lat="45.8404" lon="1.29029">
        <ele>226.115</ele>
        <time>2020-11-19T13:07:45Z</time>
      </trkpt>
      <trkpt lat="45.84037" lon="1.29079">
        <ele>227.565</ele>
        <time>2020-11-19T13:08:05Z</time>
      </trkpt>
      <trkpt lat="45.84001" lon="1.29159">
        <ele>233.711</ele>
        <time>2020-11-19T13:08:25Z</time>
      </trkpt>
      <trkpt lat="45.84044" lon="1.29227">
        <ele>234.808</ele>
        <time>2020-11-19T13:08:45Z</time>
      </trkpt>
      <trkpt lat="45.84196" lon="1.29557">
        <ele>234.047</ele>
        <time>2020-11-19T13:09:05Z</time>
      </trkpt>
      <trkpt lat="45.84355" lon="1.29429">
        <ele>221.421</ele>
        <time>2020-11-19T13:09:25Z</time>
      </trkpt>
      <trkpt lat="45.84401" lon="1.2946">
        <ele>220.698</ele>
        <time>2020-11-19T13:09:45Z</time>
      </trkpt>
      <trkpt lat="45.84474" lon="1.29621">
        <ele>219.791</ele>
        <time>2020-11-19T13:10:05Z</time>
      </trkpt>
      <trkpt lat="45.84506" lon="1.29751">
        <ele>222.672</ele>
        <time>2020-11-19T13:10:25Z</time>
      </trkpt>
      <trkpt lat="45.84521" lon="1.29863">
        <ele>222.825</ele>
        <time>2020-11-19T13:10:45Z</time>
      </trkpt>
      <trkpt lat="45.8457" lon="1.30014">
        <ele>225.061</ele>
        <time>2020-11-19T13:11:05Z</time>
      </trkpt>
      <trkpt lat="45.84738" lon="1.30336">
        <ele>223.375</ele>
        <time>2020-11-19T13:11:25Z</time>
      </trkpt>
      <trkpt lat="45.84823" lon="1.3051">
        <ele>227.681</ele>
        <time>2020-11-19T13:11:45Z</time>
      </trkpt>
      <trkpt lat="45.84907" lon="1.30653">
        <ele>224.261</ele>
        <time>2020-11-19T13:12:05Z</time>
      </trkpt>
      <trkpt lat="45.84868" lon="1.30722">
        <ele>229.917</ele>
        <time>2020-11-19T13:12:25Z</time>
      </trkpt>
      <trkpt lat="45.84805" lon="1.30759">
        <ele>241.508</ele>
        <time>2020-11-19T13:12:45Z</time>
      </trkpt>
      <trkpt lat="45.8478" lon="1.30818">
        <ele>245.624</ele>
        <time>2020-11-19T13:13:05Z</time>
      </trkpt>
      <trkpt lat="45.84636" lon="1.30868">
        <ele>262.228</ele>
        <time>2020-11-19T13:13:25Z</time>
      </trkpt>
      <trkpt lat="45.84591" lon="1.3092">
        <ele>264.635</ele>
        <time>2020-11-19T13:13:45Z</time>
      </trkpt>
      <trkpt lat="45.84526" lon="1.30897">
        <ele>272.278</ele>
        <time>2020-11-19T13:14:05Z</time>
      </trkpt>
      <trkpt lat="45.84475" lon="1.30904">
        <ele>275.669</ele>
        <time>2020-11-19T13:14:25Z</time>
      </trkpt>
      <trkpt lat="45.84427" lon="1.30956">
        <ele>274.662</ele>
        <time>2020-11-19T13:14:45Z</time>
      </trkpt>
      <trkpt lat="45.84431" lon="1.30935">
        <ele>274.648</ele>
        <time>2020-11-19T13:15:05Z</time>
      </trkpt>
      <trkpt lat="45.84459" lon="1.30876">
        <ele>278.882</ele>
        <time>2020-11-19T13:15:25Z</time>
      </trkpt>
      <trkpt lat="45.84452" lon="1.30823">
        <ele>282.581</ele>
        <time>2020-11-19T13:15:45Z</time>
      </trkpt>
      <trkpt lat="45.84185" lon="1.30904">
        <ele>287.561</ele>
        <time>2020-11-19T13:16:05Z</time>
      </trkpt>
      <trkpt lat="45.84189" lon="1.30949">
        <ele>287.317</ele>
        <time>2020-11-19T13:16:25Z</time>
      </trkpt>
      <trkpt lat="45.8401" lon="1.3106">
        <ele>301.308</ele>
        <time>2020-11-19T13:16:45Z</time>
      </trkpt>
      <trkpt lat="45.83958" lon="1.31047">
        <ele>301.554</ele>
        <time>2020-11-19T13:17:05Z</time>
      </trkpt>
      <trkpt lat="45.83935" lon="1.3108">
        <ele>303.298</ele>
        <time>2020-11-19T13:17:25Z</time>
      </trkpt>
      <trkpt lat="45.8387" lon="1.31109">
        <ele>305.595</ele>
        <time>2020-11-19T13:17:45Z</time>
      </trkpt>
      <trkpt lat="45.83828" lon="1.31172">
        <ele>309.298</ele>
        <time>2020-11-19T13:18:05Z</time>
      </trkpt>
      <trkpt lat="45.8375" lon="1.31312">
        <ele>312.089</ele>
        <time>2020-11-19T13:18:25Z</time>
      </trkpt>
      <trkpt lat="45.83712" lon="1.31434">
        <ele>316.022</ele>
        <time>2020-11-19T13:18:45Z</time>
      </trkpt>
      <trkpt lat="45.83768" lon="1.31455">
        <ele>313.038</ele>
        <time>2020-11-19T13:19:05Z</time>
      </trkpt>
      <trkpt lat="45.83838" lon="1.31519">
        <ele>308.992</ele>
        <time>2020-11-19T13:19:25Z</time>
      </trkpt>
      <trkpt lat="45.83785" lon="1.31642">
        <ele>313.323</ele>
        <time>2020-11-19T13:19:45Z</time>
      </trkpt>
      <trkpt lat="45.83732" lon="1.3172">
        <ele>314.083</ele>
        <time>2020-11-19T13:20:05Z</time>
      </trkpt>
      <trkpt lat="45.83722" lon="1.31764">
        <ele>313.511</ele>
        <time>2020-11-19T13:20:25Z</time>
      </trkpt>
      <trkpt lat="45.83581" lon="1.31811">
        <ele>315.108</ele>
        <time>2020-11-19T13:20:45Z</time>
      </trkpt>
      <trkpt lat="45.8357" lon="1.31891">
        <ele>314.128</ele>
        <time>2020-11-19T13:21:05Z</time>
      </trkpt>
      <trkpt lat="45.83286" lon="1.31925">
        <ele>310.492</ele>
        <time>2020-11-19T13:21:25Z</time>
      </trkpt>
      <trkpt lat="45.83172" lon="1.31901">
        <ele>301.789</ele>
        <time>2020-11-19T13:21:45Z</time>
      </trkpt>
      <trkpt lat="45.83095" lon="1.32019">
        <ele>305.892</ele>
        <time>2020-11-19T13:22:05Z</time>
      </trkpt>
      <trkpt lat="45.83059" lon="1.32182">
        <ele>300.963</ele>
        <time>2020-11-19T13:22:25Z</time>
      </trkpt>
      <trkpt lat="45.83075" lon="1.32219">
        <ele>301.236</ele>
        <time>2020-11-19T13:22:45Z</time>
      </trkpt>
      <trkpt lat="45.83136" lon="1.32278">
        <ele>301.712</ele>
        <time>2020-11-19T13:23:05Z</time>
      </trkpt>
      <trkpt lat="45.83252" lon="1.32327">
        <ele>300.346</ele>
        <time>2020-11-19T13:23:25Z</time>
      </trkpt>
      <trkpt lat="45.8332" lon="1.32345">
        <ele>299.334</ele>
        <time>2020-11-19T13:23:45Z</time>
      </trkpt>
      <trkpt lat="45.83271" lon="1.32447">
        <ele>293.055</ele>
        <time>2020-11-19T13:24:05Z</time>
      </trkpt>
      <trkpt lat="45.83401" lon="1.3255">
        <ele>295.51</ele>
        <time>2020-11-19T13:24:25Z</time>
      </trkpt>
      <trkpt lat="45.83435" lon="1.326">
        <ele>298.808</ele>
        <time>2020-11-19T13:24:45Z</time>
      </trkpt>
      <trkpt lat="45.8351" lon="1.32659">
        <ele>300.149</ele>
        <time>2020-11-19T13:25:05Z</time>
      </trkpt>
      <trkpt lat="45.83491" lon="1.32798">
        <ele>298.683</ele>
        <time>2020-11-19T13:25:25Z</time>
      </trkpt>
      <trkpt lat="45.83462" lon="1.32818">
        <ele>293.57</ele>
        <time>2020-11-19T13:25:45Z</time>
      </trkpt>
      <trkpt lat="45.83427" lon="1.32803">
        <ele>291.463</ele>
        <time>2020-11-19T13:26:05Z</time>
      </trkpt>
      <trkpt lat="45.83436" lon="1.3286">
        <ele>287.844</ele>
        <time>2020-11-19T13:26:25Z</time>
      </trkpt>
      <trkpt lat="45.83287" lon="1.33086">
        <ele>303.987</ele>
        <time>2020-11-19T13:26:45Z</time>
      </trkpt>
      <trkpt lat="45.83126" lon="1.33259">
        <ele>313.233</ele>
        <time>2020-11-19T13:27:05Z</time>
      </trkpt>
      <trkpt lat="45.82955" lon="1.33329">
        <ele>319.757</ele>
        <time>2020-11-19T13:27:25Z</time>
      </trkpt>
      <trkpt lat="45.82863" lon="1.33568">
        <ele>326.666</ele>
        <time>2020-11-19T13:27:45Z</time>
      </trkpt>
      <trkpt lat="45.82836" lon="1.33694">
        <ele>325.729</ele>
        <time>2020-11-19T13:28:05Z</time>
      </trkpt>
      <trkpt lat="45.82755" lon="1.33894">
        <ele>342.821</ele>
        <time>2020-11-19T13:28:25Z</time>
      </trkpt>
      <trkpt lat="45.82762" lon="1.33919">
        <ele>343.608</ele>
        <time>2020-11-19T13:28:45Z</time>
      </trkpt>
      <trkpt lat="45.82659" lon="1.34142">
        <ele>351.862</ele>
        <time>2020-11-19T13:29:05Z</time>
      </trkpt>
      <trkpt lat="45.82929" lon="1.34454">
        <ele>342.956</ele>
        <time>2020-11-19T13:29:25Z</time>
      </trkpt>
      <trkpt lat="45.82995" lon="1.3462">
        <ele>338.233</ele>
        <time>2020-11-19T13:29:45Z</time>
      </trkpt>
      <trkpt lat="45.83089" lon="1.34751">
        <ele>337.066</ele>
        <time>2020-11-19T13:30:05Z</time>
      </trkpt>
      <trkpt lat="45.83099" lon="1.3481">
        <ele>336.527</ele>
        <time>2020-11-19T13:30:25Z</time>
      </trkpt>
      <trkpt lat="45.83142" lon="1.34816">
        <ele>336.29</ele>
        <time>2020-11-19T13:30:45Z</time>
      </trkpt>
      <trkpt lat="45.83256" lon="1.35005">
        <ele>322.086</ele>
        <time>2020-11-19T13:31:05Z</time>
      </trkpt>
      <trkpt lat="45.83272" lon="1.35095">
        <ele>317.26</ele>
        <time>2020-11-19T13:31:25Z</time>
      </trkpt>
      <trkpt lat="45.83325" lon="1.35099">
        <ele>315.748</ele>
        <time>2020-11-19T13:31:45Z</time>
      </trkpt>
      <trkpt lat="45.8347" lon="1.35143">
        <ele>316.161</ele>
        <time>2020-11-19T13:32:05Z</time>
      </trkpt>
      <trkpt lat="45.83482" lon="1.35156">
        <ele>316.517</ele>
        <time>2020-11-19T13:32:25Z</time>
      </trkpt>
      <trkpt lat="45.83551" lon="1.35173">
        <ele>317.608</ele>
        <time>2020-11-19T13:32:45Z</time>
      </trkpt>
      <trkpt lat="45.83643" lon="1.35265">
        <ele>320.09</ele>
        <time>2020-11-19T13:33:05Z</time>
      </trkpt>
      <trkpt lat="45.83682" lon="1.3527">
        <ele>320.354</ele>
        <time>2020-11-19T13:33:25Z</time>
      </trkpt>
      <trkpt lat="45.83714" lon="1.35295">
        <ele>319.791</ele>
        <time>2020-11-19T13:33:45Z</time>
      </trkpt>
      <trkpt lat="45.83725" lon="1.35337">
        <ele>319.554</ele>
        <time>2020-11-19T13:34:05Z</time>
      </trkpt>
      <trkpt lat="45.83712" lon="1.35358">
        <ele>319.885</ele>
        <time>2020-11-19T13:34:25Z</time>
      </trkpt>
      <trkpt lat="45.83746" lon="1.35514">
        <ele>317.688</ele>
        <time>2020-11-19T13:34:45Z</time>
      </trkpt>
      <trkpt lat="45.83836" lon="1.35535">
        <ele>316.184</ele>
        <time>2020-11-19T13:35:05Z</time>
      </trkpt>
      <trkpt lat="45.83847" lon="1.35669">
        <ele>322.018</ele>
        <time>2020-11-19T13:35:25Z</time>
      </trkpt>
      <trkpt lat="45.8384" lon="1.35792">
        <ele>324.985</ele>
        <time>2020-11-19T13:35:45Z</time>
      </trkpt>
      <trkpt lat="45.84284" lon="1.36545">
        <ele>353.989</ele>
        <time>2020-11-19T13:36:05Z</time>
      </trkpt>
      <trkpt lat="45.84335" lon="1.36594">
        <ele>353.117</ele>
        <time>2020-11-19T13:36:25Z</time>
      </trkpt>
      <trkpt lat="45.84651" lon="1.36963">
        <ele>350.308</ele>
        <time>2020-11-19T13:36:45Z</time>
      </trkpt>
      <trkpt lat="45.84454" lon="1.37269">
        <ele>349.944</ele>
        <time>2020-11-19T13:37:05Z</time>
      </trkpt>
      <trkpt lat="45.84317" lon="1.37547">
        <ele>359.658</ele>
        <time>2020-11-19T13:37:25Z</time>
      </trkpt>
      <trkpt lat="45.84183" lon="1.37856">
        <ele>371.075</ele>
        <time>2020-11-19T13:37:45Z</time>
      </trkpt>
      <trkpt lat="45.84145" lon="1.38262">
        <ele>373.548</ele>
        <time>2020-11-19T13:38:05Z</time>
      </trkpt>
      <trkpt lat="45.84336" lon="1.38254">
        <ele>375.899</ele>
        <time>2020-11-19T13:38:25Z</time>
      </trkpt>
      <trkpt lat="45.84551" lon="1.38337">
        <ele>363.072</ele>
        <time>2020-11-19T13:38:45Z</time>
      </trkpt>
      <trkpt lat="45.84609" lon="1.38368">
        <ele>357.258</ele>
        <time>2020-11-19T13:39:05Z</time>
      </trkpt>
      <trkpt lat="45.84948" lon="1.38467">
        <ele>341.262</ele>
        <time>2020-11-19T13:39:25Z</time>
      </trkpt>
      <trkpt lat="45.85183" lon="1.38604">
        <ele>327.082</ele>
        <time>2020-11-19T13:39:45Z</time>
      </trkpt>
      <trkpt lat="45.85192" lon="1.38549">
        <ele>326.043</ele>
        <time>2020-11-19T13:40:05Z</time>
      </trkpt>
      <trkpt lat="45.85179" lon="1.38448">
        <ele>330.417</ele>
        <time>2020-11-19T13:40:25Z</time>
      </trkpt>
      <trkpt lat="45.85265" lon="1.38163">
        <ele>316.008</ele>
        <time>2020-11-19T13:40:45Z</time>
      </trkpt>
      <trkpt lat="45.8531" lon="1.3815">
        <ele>320.844</ele>
        <time>2020-11-19T13:41:05Z</time>
      </trkpt>
      <trkpt lat="45.85461" lon="1.38194">
        <ele>314.718</ele>
        <time>2020-11-19T13:41:25Z</time>
      </trkpt>
      <trkpt lat="45.85568" lon="1.38199">
        <ele>308.475</ele>
        <time>2020-11-19T13:41:45Z</time>
      </trkpt>
      <trkpt lat="45.85668" lon="1.3823">
        <ele>298.488</ele>
        <time>2020-11-19T13:42:05Z</time>
      </trkpt>
      <trkpt lat="45.85722" lon="1.38313">
        <ele>293.399</ele>
        <time>2020-11-19T13:42:25Z</time>
      </trkpt>
      <trkpt lat="45.86158" lon="1.38607">
        <ele>322.582</ele>
        <time>2020-11-19T13:42:45Z</time>
      </trkpt>
      <trkpt lat="45.8618" lon="1.38667">
        <ele>325.518</ele>
        <time>2020-11-19T13:43:05Z</time>
      </trkpt>
      <trkpt lat="45.86182" lon="1.38762">
        <ele>328.222</ele>
        <time>2020-11-19T13:43:25Z</time>
      </trkpt>
      <trkpt lat="45.86231" lon="1.38828">
        <ele>329.632</ele>
        <time>2020-11-19T13:43:45Z</time>
      </trkpt>
      <trkpt lat="45.86246" lon="1.38955">
        <ele>329.392</ele>
        <time>2020-11-19T13:44:05Z</time>
      </trkpt>
      <trkpt lat="45.86294" lon="1.39038">
        <ele>334.811</ele>
        <time>2020-11-19T13:44:25Z</time>
      </trkpt>
      <trkpt lat="45.86301" lon="1.39556">
        <ele>326.508</ele>
        <time>2020-11-19T13:44:45Z</time>
      </trkpt>
      <trkpt lat="45.86272" lon="1.3963">
        <ele>324.679</ele>
        <time>2020-11-19T13:45:05Z</time>
      </trkpt>
      <trkpt lat="45.86182" lon="1.39748">
        <ele>315.713</ele>
        <time>2020-11-19T13:45:25Z</time>
      </trkpt>
      <trkpt lat="45.86131" lon="1.39933">
        <ele>316.71</ele>
        <time>2020-11-19T13:45:45Z</time>
      </trkpt>
      <trkpt lat="45.86141" lon="1.40022">
        <ele>317.283</ele>
        <time>2020-11-19T13:46:05Z</time>
      </trkpt>
      <trkpt lat="45.86109" lon="1.40073">
        <ele>315.924</ele>
        <time>2020-11-19T13:46:25Z</time>
      </trkpt>
      <trkpt lat="45.86134" lon="1.40182">
        <ele>320.067</ele>
        <time>2020-11-19T13:46:45Z</time>
      </trkpt>
      <trkpt lat="45.86126" lon="1.4028">
        <ele>323.013</ele>
        <time>2020-11-19T13:47:05Z</time>
      </trkpt>
      <trkpt lat="45.86098" lon="1.40441">
        <ele>321.997</ele>
        <time>2020-11-19T13:47:25Z</time>
      </trkpt>
      <trkpt lat="45.861" lon="1.40552">
        <ele>324.175</ele>
        <time>2020-11-19T13:47:45Z</time>
      </trkpt>
      <trkpt lat="45.86043" lon="1.40613">
        <ele>326.528</ele>
        <time>2020-11-19T13:48:05Z</time>
      </trkpt>
      <trkpt lat="45.86004" lon="1.40608">
        <ele>326.92</ele>
        <time>2020-11-19T13:48:25Z</time>
      </trkpt>
      <trkpt lat="45.85985" lon="1.40621">
        <ele>327.308</ele>
        <time>2020-11-19T13:48:45Z</time>
      </trkpt>
      <trkpt lat="45.86024" lon="1.40717">
        <ele>329.853</ele>
        <time>2020-11-19T13:49:05Z</time>
      </trkpt>
      <trkpt lat="45.86007" lon="1.40953">
        <ele>335.887</ele>
        <time>2020-11-19T13:49:25Z</time>
      </trkpt>
      <trkpt lat="45.85949" lon="1.4104">
        <ele>337.464</ele>
        <time>2020-11-19T13:49:45Z</time>
      </trkpt>
      <trkpt lat="45.85903" lon="1.4116">
        <ele>340.827</ele>
        <time>2020-11-19T13:50:05Z</time>
      </trkpt>
      <trkpt lat="45.85861" lon="1.41187">
        <ele>340.738</ele>
        <time>2020-11-19T13:50:25Z</time>
      </trkpt>
      <trkpt lat="45.85776" lon="1.41395">
        <ele>343.961</ele>
        <time>2020-11-19T13:50:45Z</time>
      </trkpt>
      <trkpt lat="45.85691" lon="1.41427">
        <ele>341.927</ele>
        <time>2020-11-19T13:51:05Z</time>
      </trkpt>
      <trkpt lat="45.85588" lon="1.4152">
        <ele>340.171</ele>
        <time>2020-11-19T13:51:25Z</time>
      </trkpt>
      <trkpt lat="45.85527" lon="1.41552">
        <ele>343.098</ele>
        <time>2020-11-19T13:51:45Z</time>
      </trkpt>
      <trkpt lat="45.85473" lon="1.41552">
        <ele>343.215</ele>
        <time>2020-11-19T13:52:05Z</time>
      </trkpt>
      <trkpt lat="45.8537" lon="1.41128">
        <ele>337.326</ele>
        <time>2020-11-19T13:52:25Z</time>
      </trkpt>
      <trkpt lat="45.85302" lon="1.40941">
        <ele>332.908</ele>
        <time>2020-11-19T13:52:45Z</time>
      </trkpt>
      <trkpt lat="45.85235" lon="1.4084">
        <ele>332.985</ele>
        <time>2020-11-19T13:53:05Z</time>
      </trkpt>
      <trkpt lat="45.85178" lon="1.40793">
        <ele>333.099</ele>
        <time>2020-11-19T13:53:25Z</time>
      </trkpt>
      <trkpt lat="45.85175" lon="1.40744">
        <ele>333.096</ele>
        <time>2020-11-19T13:53:45Z</time>
      </trkpt>
      <trkpt lat="45.85108" lon="1.40882">
        <ele>336.899</ele>
        <time>2020-11-19T13:54:05Z</time>
      </trkpt>
      <trkpt lat="45.85077" lon="1.41064">
        <ele>337.37</ele>
        <time>2020-11-19T13:54:25Z</time>
      </trkpt>
      <trkpt lat="45.85051" lon="1.41104">
        <ele>339.123</ele>
        <time>2020-11-19T13:54:45Z</time>
      </trkpt>
      <trkpt lat="45.84957" lon="1.41151">
        <ele>343.059</ele>
        <time>2020-11-19T13:55:05Z</time>
      </trkpt>
      <trkpt lat="45.84912" lon="1.41197">
        <ele>346.553</ele>
        <time>2020-11-19T13:55:25Z</time>
      </trkpt>
      <trkpt lat="45.84802" lon="1.41212">
        <ele>356.764</ele>
        <time>2020-11-19T13:55:45Z</time>
      </trkpt>
      <trkpt lat="45.84775" lon="1.41178">
        <ele>356.306</ele>
        <time>2020-11-19T13:56:05Z</time>
      </trkpt>
      <trkpt lat="45.84721" lon="1.41079">
        <ele>354.016</ele>
        <time>2020-11-19T13:56:25Z</time>
      </trkpt>
      <trkpt lat="45.8473" lon="1.41321">
        <ele>357.808</ele>
        <time>2020-11-19T13:56:45Z</time>
      </trkpt>
      <trkpt lat="45.84648" lon="1.41535">
        <ele>361.082</ele>
        <time>2020-11-19T13:57:05Z</time>
      </trkpt>
      <trkpt lat="45.84507" lon="1.41599">
        <ele>364.326</ele>
        <time>2020-11-19T13:57:25Z</time>
      </trkpt>
      <trkpt lat="45.84511" lon="1.41629">
        <ele>364.673</ele>
        <time>2020-02-14T21:30:12Z</time>
      </trkpt>
      <trkpt lat="45.84511" lon="1.41629">
        <ele>364.646</ele>
        <time>2020-02-14T21:30:12Z</time>
      </trkpt>
      <trkpt lat="45.84033" lon="1.42125">
        <ele>383.397</ele>
        <time>2020-02-14T21:30:32Z</time>
      </trkpt>
      <trkpt lat="45.83915" lon="1.4249">
        <ele>387.99</ele>
        <time>2020-02-14T21:30:52Z</time>
      </trkpt>
      <trkpt lat="45.84079" lon="1.42473">
        <ele>380.236</ele>
        <time>2020-02-14T21:31:12Z</time>
      </trkpt>
      <trkpt lat="45.84131" lon="1.42477">
        <ele>378.27</ele>
        <time>2020-02-14T21:31:32Z</time>
      </trkpt>
      <trkpt lat="45.84172" lon="1.42528">
        <ele>375.644</ele>
        <time>2020-02-14T21:31:52Z</time>
      </trkpt>
      <trkpt lat="45.84251" lon="1.42533">
        <ele>371.905</ele>
        <time>2020-02-14T21:32:12Z</time>
      </trkpt>
      <trkpt lat="45.8432" lon="1.42576">
        <ele>374.415</ele>
        <time>2020-02-14T21:32:32Z</time>
      </trkpt>
      <trkpt lat="45.84409" lon="1.42591">
        <ele>376.408</ele>
        <time>2020-02-14T21:32:52Z</time>
      </trkpt>
      <trkpt lat="45.84471" lon="1.42644">
        <ele>374.97</ele>
        <time>2020-02-14T21:33:12Z</time>
      </trkpt>
      <trkpt lat="45.84364" lon="1.42706">
        <ele>370.724</ele>
        <time>2020-02-14T21:33:32Z</time>
      </trkpt>
      <trkpt lat="45.84221" lon="1.42779">
        <ele>354.961</ele>
        <time>2020-02-14T21:33:52Z</time>
      </trkpt>
      <trkpt lat="45.84184" lon="1.42833">
        <ele>353.044</ele>
        <time>2020-02-14T21:34:12Z</time>
      </trkpt>
      <trkpt lat="45.84172" lon="1.42973">
        <ele>348.585</ele>
        <time>2020-02-14T21:34:32Z</time>
      </trkpt>
      <trkpt lat="45.84119" lon="1.42968">
        <ele>347.238</ele>
        <time>2020-02-14T21:34:52Z</time>
      </trkpt>
      <trkpt lat="45.84058" lon="1.4305">
        <ele>346.514</ele>
        <time>2020-02-14T21:35:12Z</time>
      </trkpt>
      <trkpt lat="45.84028" lon="1.43106">
        <ele>352.758</ele>
        <time>2020-02-14T21:35:32Z</time>
      </trkpt>
      <trkpt lat="45.84033" lon="1.43174">
        <ele>352.097</ele>
        <time>2020-02-14T21:35:52Z</time>
      </trkpt>
      <trkpt lat="45.83998" lon="1.43215">
        <ele>349.723</ele>
        <time>2020-02-14T21:36:12Z</time>
      </trkpt>
      <trkpt lat="45.83974" lon="1.43374">
        <ele>338.625</ele>
        <time>2020-02-14T21:36:32Z</time>
      </trkpt>
      <trkpt lat="45.83962" lon="1.43494">
        <ele>328.708</ele>
        <time>2020-02-14T21:36:52Z</time>
      </trkpt>
      <trkpt lat="45.83971" lon="1.43558">
        <ele>326.925</ele>
        <time>2020-02-14T21:37:12Z</time>
      </trkpt>
      <trkpt lat="45.83962" lon="1.43595">
        <ele>325.879</ele>
        <time>2020-02-14T21:37:32Z</time>
      </trkpt>
      <trkpt lat="45.83934" lon="1.43636">
        <ele>326.616</ele>
        <time>2020-02-14T21:37:52Z</time>
      </trkpt>
      <trkpt lat="45.8394" lon="1.43687">
        <ele>325.219</ele>
        <time>2020-02-14T21:38:12Z</time>
      </trkpt>
      <trkpt lat="45.83953" lon="1.43715">
        <ele>323.08</ele>
        <time>2020-02-14T21:38:32Z</time>
      </trkpt>
      <trkpt lat="45.83946" lon="1.43771">
        <ele>321.993</ele>
        <time>2020-02-14T21:38:52Z</time>
      </trkpt>
      <trkpt lat="45.83943" lon="1.4382">
        <ele>323.659</ele>
        <time>2020-02-14T21:39:12Z</time>
      </trkpt>
      <trkpt lat="45.83924" lon="1.43872">
        <ele>326.943</ele>
        <time>2020-02-14T21:39:32Z</time>
      </trkpt>
      <trkpt lat="45.83874" lon="1.43919">
        <ele>331.188</ele>
        <time>2020-02-14T21:39:52Z</time>
      </trkpt>
      <trkpt lat="45.83841" lon="1.43998">
        <ele>333.924</ele>
        <time>2020-02-14T21:40:12Z</time>
      </trkpt>
      <trkpt lat="45.83825" lon="1.44108">
        <ele>344.126</ele>
        <time>2020-02-14T21:40:32Z</time>
      </trkpt>
      <trkpt lat="45.83817" lon="1.44266">
        <ele>354.208</ele>
        <time>2020-02-14T21:40:52Z</time>
      </trkpt>
      <trkpt lat="45.83823" lon="1.44346">
        <ele>360.364</ele>
        <time>2020-02-14T21:41:12Z</time>
      </trkpt>
      <trkpt lat="45.83814" lon="1.44399">
        <ele>362.498</ele>
        <time>2020-02-14T21:41:32Z</time>
      </trkpt>
      <trkpt lat="45.83814" lon="1.44466">
        <ele>360.485</ele>
        <time>2020-02-14T21:41:52Z</time>
      </trkpt>
      <trkpt lat="45.83801" lon="1.44541">
        <ele>367.898</ele>
        <time>2020-02-14T21:42:12Z</time>
      </trkpt>
      <trkpt lat="45.83822" lon="1.44685">
        <ele>374.459</ele>
        <time>2020-02-14T21:42:32Z</time>
      </trkpt>
      <trkpt lat="45.83861" lon="1.44779">
        <ele>373.252</ele>
        <time>2020-02-14T21:42:52Z</time>
      </trkpt>
      <trkpt lat="45.83915" lon="1.4485">
        <ele>371.158</ele>
        <time>2020-02-14T21:43:12Z</time>
      </trkpt>
      <trkpt lat="45.83919" lon="1.44878">
        <ele>372.722</ele>
        <time>2020-02-14T21:43:32Z</time>
      </trkpt>
      <trkpt lat="45.83874" lon="1.44869">
        <ele>376.965</ele>
        <time>2020-02-14T21:43:52Z</time>
      </trkpt>
      <trkpt lat="45.83804" lon="1.4491">
        <ele>382.868</ele>
        <time>2020-02-14T21:44:12Z</time>
      </trkpt>
      <trkpt lat="45.83735" lon="1.44927">
        <ele>387.914</ele>
        <time>2020-02-14T21:44:32Z</time>
      </trkpt>
      <trkpt lat="45.83681" lon="1.45035">
        <ele>396.008</ele>
        <time>2020-02-14T21:44:52Z</time>
      </trkpt>
      <trkpt lat="45.83631" lon="1.45118">
        <ele>394.382</ele>
        <time>2020-02-14T21:45:12Z</time>
      </trkpt>
      <trkpt lat="45.83527" lon="1.45234">
        <ele>383.156</ele>
        <time>2020-02-14T21:45:32Z</time>
      </trkpt>
      <trkpt lat="45.83472" lon="1.45322">
        <ele>370.363</ele>
        <time>2020-02-14T21:45:52Z</time>
      </trkpt>
      <trkpt lat="45.83447" lon="1.45393">
        <ele>370.736</ele>
        <time>2020-02-14T21:46:12Z</time>
      </trkpt>
      <trkpt lat="45.83456" lon="1.45505">
        <ele>372.177</ele>
        <time>2020-02-14T21:46:32Z</time>
      </trkpt>
      <trkpt lat="45.8346" lon="1.45672">
        <ele>371.48</ele>
        <time>2020-02-14T21:46:52Z</time>
      </trkpt>
      <trkpt lat="45.83494" lon="1.45695">
        <ele>371.026</ele>
        <time>2020-02-14T21:47:12Z</time>
      </trkpt>
      <trkpt lat="45.83511" lon="1.45788">
        <ele>368.38</ele>
        <time>2020-02-14T21:47:32Z</time>
      </trkpt>
      <trkpt lat="45.83569" lon="1.45852">
        <ele>361.727</ele>
        <time>2020-02-14T21:47:52Z</time>
      </trkpt>
      <trkpt lat="45.83571" lon="1.45927">
        <ele>360.368</ele>
        <time>2020-02-14T21:48:12Z</time>
      </trkpt>
      <trkpt lat="45.8359" lon="1.45989">
        <ele>354.814</ele>
        <time>2020-02-14T21:48:32Z</time>
      </trkpt>
      <trkpt lat="45.83619" lon="1.46037">
        <ele>345.708</ele>
        <time>2020-02-14T21:48:52Z</time>
      </trkpt>
      <trkpt lat="45.83578" lon="1.46163">
        <ele>344.248</ele>
        <time>2020-02-14T21:49:12Z</time>
      </trkpt>
      <trkpt lat="45.83544" lon="1.46234">
        <ele>333.612</ele>
        <time>2020-02-14T21:49:32Z</time>
      </trkpt>
      <trkpt lat="45.83504" lon="1.46286">
        <ele>332.779</ele>
        <time>2020-02-14T21:49:52Z</time>
      </trkpt>
      <trkpt lat="45.83497" lon="1.46325">
        <ele>334.552</ele>
        <time>2020-02-14T21:50:12Z</time>
      </trkpt>
      <trkpt lat="45.83527" lon="1.46459">
        <ele>332.473</ele>
        <time>2020-02-14T21:50:32Z</time>
      </trkpt>
      <trkpt lat="45.83523" lon="1.46597">
        <ele>320.366</ele>
        <time>2020-02-14T21:50:52Z</time>
      </trkpt>
      <trkpt lat="45.83539" lon="1.46763">
        <ele>302.692</ele>
        <time>2020-02-14T21:51:12Z</time>
      </trkpt>
      <trkpt lat="45.8353" lon="1.46822">
        <ele>294.566</ele>
        <time>2020-02-14T21:51:32Z</time>
      </trkpt>
      <trkpt lat="45.83506" lon="1.46864">
        <ele>288.152</ele>
        <time>2020-02-14T21:51:52Z</time>
      </trkpt>
      <trkpt lat="45.83507" lon="1.46889">
        <ele>287.553</ele>
        <time>2020-02-14T21:52:12Z</time>
      </trkpt>
      <trkpt lat="45.83528" lon="1.46926">
        <ele>282.408</ele>
        <time>2020-02-14T21:52:32Z</time>
      </trkpt>
      <trkpt lat="45.83511" lon="1.46961">
        <ele>281.508</ele>
        <time>2020-02-14T21:52:52Z</time>
      </trkpt>
      <trkpt lat="45.83602" lon="1.47073">
        <ele>263.441</ele>
        <time>2020-02-14T21:53:12Z</time>
      </trkpt>
      <trkpt lat="45.83447" lon="1.47347">
        <ele>265.515</ele>
        <time>2020-02-14T21:53:32Z</time>
      </trkpt>
      <trkpt lat="45.8341" lon="1.47754">
        <ele>261.912</ele>
        <time>2020-02-14T21:53:52Z</time>
      </trkpt>
      <trkpt lat="45.83264" lon="1.47754">
        <ele>275.185</ele>
        <time>2020-02-14T21:54:12Z</time>
      </trkpt>
      <trkpt lat="45.83275" lon="1.47961">
        <ele>269.836</ele>
        <time>2020-02-14T21:54:32Z</time>
      </trkpt>
      <trkpt lat="45.8336" lon="1.48002">
        <ele>272.329</ele>
        <time>2020-02-14T21:54:52Z</time>
      </trkpt>
      <trkpt lat="45.83398" lon="1.48078">
        <ele>279.845</ele>
        <time>2020-02-14T21:55:12Z</time>
      </trkpt>
      <trkpt lat="45.83402" lon="1.48122">
        <ele>281.689</ele>
        <time>2020-02-14T21:55:32Z</time>
      </trkpt>
      <trkpt lat="45.83371" lon="1.48152">
        <ele>286.124</ele>
        <time>2020-02-14T21:55:52Z</time>
      </trkpt>
      <trkpt lat="45.8349" lon="1.48457">
        <ele>292.804</ele>
        <time>2020-02-14T21:56:12Z</time>
      </trkpt>
      <trkpt lat="45.83588" lon="1.48593">
        <ele>318.014</ele>
        <time>2020-02-14T21:56:32Z</time>
      </trkpt>
      <trkpt lat="45.83647" lon="1.4866">
        <ele>329.508</ele>
        <time>2020-02-14T21:56:52Z</time>
      </trkpt>
      <trkpt lat="45.83715" lon="1.48714">
        <ele>335.448</ele>
        <time>2020-11-19T14:25:05Z</time>
      </trkpt>
      <trkpt lat="45.83748" lon="1.48782">
        <ele>343.142</ele>
        <time>2020-11-19T14:25:25Z</time>
      </trkpt>
      <trkpt lat="45.83723" lon="1.48844">
        <ele>348.889</ele>
        <time>2020-11-19T14:25:45Z</time>
      </trkpt>
      <trkpt lat="45.83717" lon="1.48909">
        <ele>352.762</ele>
        <time>2020-11-19T14:26:05Z</time>
      </trkpt>
      <trkpt lat="45.83747" lon="1.48932">
        <ele>354.053</ele>
        <time>2020-11-19T14:26:25Z</time>
      </trkpt>
      <trkpt lat="45.83746" lon="1.48954">
        <ele>354.346</ele>
        <time>2020-11-19T14:26:45Z</time>
      </trkpt>
      <trkpt lat="45.83766" lon="1.48976">
        <ele>356.342</ele>
        <time>2020-11-19T14:27:05Z</time>
      </trkpt>
      <trkpt lat="45.83784" lon="1.49023">
        <ele>358.386</ele>
        <time>2020-11-19T14:27:25Z</time>
      </trkpt>
      <trkpt lat="45.83808" lon="1.49033">
        <ele>358.971</ele>
        <time>2020-11-19T14:27:45Z</time>
      </trkpt>
      <trkpt lat="45.83832" lon="1.48981">
        <ele>357.741</ele>
        <time>2020-11-19T14:28:05Z</time>
      </trkpt>
      <trkpt lat="45.83908" lon="1.48924">
        <ele>350.015</ele>
        <time>2020-11-19T14:28:25Z</time>
      </trkpt>
      <trkpt lat="45.83894" lon="1.4887">
        <ele>344.108</ele>
        <time>2020-11-19T14:28:45Z</time>
      </trkpt>
      <trkpt lat="45.83866" lon="1.48819">
        <ele>342.083</ele>
        <time>2020-11-19T14:29:05Z</time>
      </trkpt>
      <trkpt lat="45.83972" lon="1.4848">
        <ele>321.277</ele>
        <time>2020-02-14T21:58:52Z</time>
      </trkpt>
      <trkpt lat="45.83946" lon="1.48368">
        <ele>318.054</ele>
        <time>2020-02-14T21:59:12Z</time>
      </trkpt>
      <trkpt lat="45.83956" lon="1.48257">
        <ele>323.017</ele>
        <time>2020-02-14T21:59:32Z</time>
      </trkpt>
      <trkpt lat="45.83985" lon="1.48055">
        <ele>340.598</ele>
        <time>2020-02-14T21:59:52Z</time>
      </trkpt>
      <trkpt lat="45.8397" lon="1.47981">
        <ele>343.641</ele>
        <time>2020-02-14T22:00:12Z</time>
      </trkpt>
      <trkpt lat="45.83969" lon="1.47903">
        <ele>344.397</ele>
        <time>2020-02-14T22:00:32Z</time>
      </trkpt>
      <trkpt lat="45.8395" lon="1.47791">
        <ele>345.861</ele>
        <time>2020-02-14T22:00:52Z</time>
      </trkpt>
      <trkpt lat="45.83956" lon="1.47636">
        <ele>333.226</ele>
        <time>2020-02-14T22:01:12Z</time>
      </trkpt>
      <trkpt lat="45.83977" lon="1.47593">
        <ele>332.147</ele>
        <time>2020-02-14T22:01:32Z</time>
      </trkpt>
      <trkpt lat="45.84033" lon="1.47581">
        <ele>329.611</ele>
        <time>2020-02-14T22:01:52Z</time>
      </trkpt>
      <trkpt lat="45.84057" lon="1.47533">
        <ele>324.408</ele>
        <time>2020-02-14T22:02:12Z</time>
      </trkpt>
      <trkpt lat="45.8411" lon="1.47372">
        <ele>318.038</ele>
        <time>2020-02-14T22:02:32Z</time>
      </trkpt>
      <trkpt lat="45.84103" lon="1.4728">
        <ele>312.292</ele>
        <time>2020-02-14T22:02:52Z</time>
      </trkpt>
      <trkpt lat="45.84136" lon="1.47202">
        <ele>312.089</ele>
        <time>2020-02-14T22:03:12Z</time>
      </trkpt>
      <trkpt lat="45.84235" lon="1.47147">
        <ele>304.652</ele>
        <time>2020-02-14T22:03:32Z</time>
      </trkpt>
      <trkpt lat="45.84272" lon="1.47163">
        <ele>302.463</ele>
        <time>2020-02-14T22:03:52Z</time>
      </trkpt>
      <trkpt lat="45.84288" lon="1.47257">
        <ele>306.886</ele>
        <time>2020-02-14T22:04:12Z</time>
      </trkpt>
      <trkpt lat="45.84336" lon="1.47285">
        <ele>306.122</ele>
        <time>2020-02-14T22:04:32Z</time>
      </trkpt>
      <trkpt lat="45.84381" lon="1.47388">
        <ele>317.966</ele>
        <time>2020-02-14T22:04:52Z</time>
      </trkpt>
      <trkpt lat="45.84379" lon="1.47413">
        <ele>319.146</ele>
        <time>2020-02-14T22:05:12Z</time>
      </trkpt>
      <trkpt lat="45.84393" lon="1.47425">
        <ele>321.588</ele>
        <time>2020-02-14T22:05:32Z</time>
      </trkpt>
      <trkpt lat="45.84467" lon="1.47406">
        <ele>324.316</ele>
        <time>2020-02-14T22:05:52Z</time>
      </trkpt>
      <trkpt lat="45.84563" lon="1.47416">
        <ele>327.108</ele>
        <time>2020-02-14T22:06:12Z</time>
      </trkpt>
      <trkpt lat="45.84616" lon="1.47413">
        <ele>325.96</ele>
        <time>2020-02-14T22:06:32Z</time>
      </trkpt>
      <trkpt lat="45.84828" lon="1.47413">
        <ele>319.234</ele>
        <time>2020-02-14T22:06:52Z</time>
      </trkpt>
      <trkpt lat="45.8487" lon="1.47452">
        <ele>318.411</ele>
        <time>2020-02-14T22:07:12Z</time>
      </trkpt>
      <trkpt lat="45.8491" lon="1.47514">
        <ele>324.024</ele>
        <time>2020-02-14T22:07:32Z</time>
      </trkpt>
      <trkpt lat="45.84951" lon="1.47511">
        <ele>323.925</ele>
        <time>2020-02-14T22:07:52Z</time>
      </trkpt>
      <trkpt lat="45.8501" lon="1.4745">
        <ele>316.688</ele>
        <time>2020-02-14T22:08:12Z</time>
      </trkpt>
      <trkpt lat="45.85122" lon="1.47325">
        <ele>306.654</ele>
        <time>2020-02-14T22:08:32Z</time>
      </trkpt>
      <trkpt lat="45.8521" lon="1.47283">
        <ele>304.548</ele>
        <time>2020-02-14T22:08:52Z</time>
      </trkpt>
      <trkpt lat="45.85221" lon="1.47297">
        <ele>304.073</ele>
        <time>2020-02-14T22:09:12Z</time>
      </trkpt>
      <trkpt lat="45.85275" lon="1.47288">
        <ele>302.185</ele>
        <time>2020-02-14T22:09:32Z</time>
      </trkpt>
      <trkpt lat="45.85312" lon="1.47213">
        <ele>298.413</ele>
        <time>2020-02-14T22:09:52Z</time>
      </trkpt>
      <trkpt lat="45.85364" lon="1.47197">
        <ele>295.008</ele>
        <time>2020-02-14T22:10:12Z</time>
      </trkpt>
      <trkpt lat="45.85436" lon="1.47208">
        <ele>294.553</ele>
        <time>2020-02-14T22:10:32Z</time>
      </trkpt>
      <trkpt lat="45.85466" lon="1.47223">
        <ele>292.287</ele>
        <time>2020-02-14T22:10:52Z</time>
      </trkpt>
      <trkpt lat="45.85495" lon="1.47211">
        <ele>289.594</ele>
        <time>2020-02-14T22:11:12Z</time>
      </trkpt>
      <trkpt lat="45.85551" lon="1.47138">
        <ele>283.167</ele>
        <time>2020-02-14T22:11:32Z</time>
      </trkpt>
      <trkpt lat="45.8559" lon="1.47135">
        <ele>275.068</ele>
        <time>2020-02-14T22:11:52Z</time>
      </trkpt>
      <trkpt lat="45.85677" lon="1.47149">
        <ele>273.051</ele>
        <time>2020-02-14T22:12:12Z</time>
      </trkpt>
      <trkpt lat="45.85748" lon="1.47208">
        <ele>274.947</ele>
        <time>2020-02-14T22:12:32Z</time>
      </trkpt>
      <trkpt lat="45.858" lon="1.47312">
        <ele>276.261</ele>
        <time>2020-02-14T22:12:52Z</time>
      </trkpt>
      <trkpt lat="45.85838" lon="1.4735">
        <ele>284.121</ele>
        <time>2020-02-14T22:13:12Z</time>
      </trkpt>
      <trkpt lat="45.85863" lon="1.47335">
        <ele>289.241</ele>
        <time>2020-02-14T22:13:32Z</time>
      </trkpt>
      <trkpt lat="45.85892" lon="1.47304">
        <ele>293.205</ele>
        <time>2020-02-14T22:13:52Z</time>
      </trkpt>
      <trkpt lat="45.8591" lon="1.47319">
        <ele>294.708</ele>
        <time>2020-02-14T22:14:12Z</time>
      </trkpt>
      <trkpt lat="45.86101" lon="1.47275">
        <ele>308.848</ele>
        <time>2020-02-14T22:14:32Z</time>
      </trkpt>
      <trkpt lat="45.86121" lon="1.47193">
        <ele>313.772</ele>
        <time>2020-02-14T22:14:52Z</time>
      </trkpt>
      <trkpt lat="45.86124" lon="1.47107">
        <ele>318.119</ele>
        <time>2020-02-14T22:15:12Z</time>
      </trkpt>
      <trkpt lat="45.8611" lon="1.47034">
        <ele>322.632</ele>
        <time>2020-02-14T22:15:32Z</time>
      </trkpt>
      <trkpt lat="45.86085" lon="1.46958">
        <ele>327.953</ele>
        <time>2020-02-14T22:15:52Z</time>
      </trkpt>
      <trkpt lat="45.86141" lon="1.46951">
        <ele>325.896</ele>
        <time>2020-02-14T22:16:12Z</time>
      </trkpt>
      <trkpt lat="45.86202" lon="1.46954">
        <ele>329.242</ele>
        <time>2020-02-14T22:16:32Z</time>
      </trkpt>
      <trkpt lat="45.86224" lon="1.46923">
        <ele>331.886</ele>
        <time>2020-02-14T22:16:52Z</time>
      </trkpt>
      <trkpt lat="45.86351" lon="1.46943">
        <ele>334.696</ele>
        <time>2020-02-14T22:17:12Z</time>
      </trkpt>
      <trkpt lat="45.86385" lon="1.4692">
        <ele>335.131</ele>
        <time>2020-02-14T22:17:32Z</time>
      </trkpt>
      <trkpt lat="45.86454" lon="1.46845">
        <ele>338.424</ele>
        <time>2020-02-14T22:17:52Z</time>
      </trkpt>
      <trkpt lat="45.86518" lon="1.46728">
        <ele>335.508</ele>
        <time>2020-02-14T22:18:12Z</time>
      </trkpt>
      <trkpt lat="45.8659" lon="1.46693">
        <ele>342.585</ele>
        <time>2020-02-14T22:18:32Z</time>
      </trkpt>
      <trkpt lat="45.86595" lon="1.46654">
        <ele>343.319</ele>
        <time>2020-02-14T22:18:52Z</time>
      </trkpt>
      <trkpt lat="45.86578" lon="1.4654">
        <ele>347.956</ele>
        <time>2020-02-14T22:19:12Z</time>
      </trkpt>
      <trkpt lat="45.86588" lon="1.46476">
        <ele>351.419</ele>
        <time>2020-02-14T22:19:32Z</time>
      </trkpt>
      <trkpt lat="45.86624" lon="1.46374">
        <ele>353.45</ele>
        <time>2020-02-14T22:19:52Z</time>
      </trkpt>
      <trkpt lat="45.86741" lon="1.46556">
        <ele>359.313</ele>
        <time>2020-02-14T22:20:12Z</time>
      </trkpt>
      <trkpt lat="45.86791" lon="1.46658">
        <ele>359.149</ele>
        <time>2020-02-14T22:20:32Z</time>
      </trkpt>
      <trkpt lat="45.86914" lon="1.46971">
        <ele>366.073</ele>
        <time>2020-02-14T22:20:52Z</time>
      </trkpt>
      <trkpt lat="45.86977" lon="1.47089">
        <ele>368.914</ele>
        <time>2020-02-14T22:21:12Z</time>
      </trkpt>
      <trkpt lat="45.87038" lon="1.47216">
        <ele>373.354</ele>
        <time>2020-02-14T22:21:32Z</time>
      </trkpt>
      <trkpt lat="45.87202" lon="1.47354">
        <ele>376.609</ele>
        <time>2020-02-14T22:21:52Z</time>
      </trkpt>
      <trkpt lat="45.87376" lon="1.47462">
        <ele>373.408</ele>
        <time>2020-02-14T22:22:12Z</time>
      </trkpt>
      <trkpt lat="45.87456" lon="1.47499">
        <ele>375.517</ele>
        <time>2020-02-14T22:22:32Z</time>
      </trkpt>
      <trkpt lat="45.87562" lon="1.47528">
        <ele>382.231</ele>
        <time>2020-02-14T22:22:52Z</time>
      </trkpt>
      <trkpt lat="45.87664" lon="1.47527">
        <ele>378.398</ele>
        <time>2020-02-14T22:23:12Z</time>
      </trkpt>
      <trkpt lat="45.87795" lon="1.47603">
        <ele>378.211</ele>
        <time>2020-02-14T22:23:32Z</time>
      </trkpt>
      <trkpt lat="45.87879" lon="1.47598">
        <ele>380.072</ele>
        <time>2020-02-14T22:23:52Z</time>
      </trkpt>
      <trkpt lat="45.87942" lon="1.47541">
        <ele>381.215</ele>
        <time>2020-02-14T22:24:12Z</time>
      </trkpt>
      <trkpt lat="45.88001" lon="1.47486">
        <ele>380.131</ele>
        <time>2020-02-14T22:24:32Z</time>
      </trkpt>
      <trkpt lat="45.88088" lon="1.47452">
        <ele>385.585</ele>
        <time>2020-02-14T22:24:52Z</time>
      </trkpt>
      <trkpt lat="45.88167" lon="1.47448">
        <ele>384.017</ele>
        <time>2020-02-14T22:25:12Z</time>
      </trkpt>
      <trkpt lat="45.88222" lon="1.4747">
        <ele>378.987</ele>
        <time>2020-02-14T22:25:32Z</time>
      </trkpt>
      <trkpt lat="45.88277" lon="1.4751">
        <ele>374.715</ele>
        <time>2020-02-14T22:25:52Z</time>
      </trkpt>
      <trkpt lat="45.8833" lon="1.47574">
        <ele>374.808</ele>
        <time>2020-02-14T22:26:12Z</time>
      </trkpt>
      <trkpt lat="45.88287" lon="1.47682">
        <ele>365.897</ele>
        <time>2020-02-14T22:26:32Z</time>
      </trkpt>
      <trkpt lat="45.88252" lon="1.47795">
        <ele>362.351</ele>
        <time>2020-02-14T22:26:52Z</time>
      </trkpt>
      <trkpt lat="45.88215" lon="1.47885">
        <ele>367.658</ele>
        <time>2020-02-14T22:27:12Z</time>
      </trkpt>
      <trkpt lat="45.88137" lon="1.48028">
        <ele>359.581</ele>
        <time>2020-02-14T22:27:32Z</time>
      </trkpt>
      <trkpt lat="45.88214" lon="1.48018">
        <ele>358.922</ele>
        <time>2020-02-14T22:27:52Z</time>
      </trkpt>
      <trkpt lat="45.88234" lon="1.48042">
        <ele>358.245</ele>
        <time>2020-02-14T22:28:12Z</time>
      </trkpt>
      <trkpt lat="45.88206" lon="1.48177">
        <ele>354.751</ele>
        <time>2020-02-14T22:28:32Z</time>
      </trkpt>
      <trkpt lat="45.88199" lon="1.48302">
        <ele>359.455</ele>
        <time>2020-02-14T22:28:52Z</time>
      </trkpt>
      <trkpt lat="45.88223" lon="1.48446">
        <ele>360.976</ele>
        <time>2020-02-14T22:29:12Z</time>
      </trkpt>
      <trkpt lat="45.88241" lon="1.48465">
        <ele>360.19</ele>
        <time>2020-02-14T22:29:32Z</time>
      </trkpt>
      <trkpt lat="45.88354" lon="1.48467">
        <ele>362.719</ele>
        <time>2020-02-14T22:29:52Z</time>
      </trkpt>
      <trkpt lat="45.88542" lon="1.48351">
        <ele>366.908</ele>
        <time>2020-02-14T22:30:12Z</time>
      </trkpt>
      <trkpt lat="45.88694" lon="1.48348">
        <ele>373.023</ele>
        <time>2020-02-14T22:30:32Z</time>
      </trkpt>
      <trkpt lat="45.88901" lon="1.48215">
        <ele>370.467</ele>
        <time>2020-02-14T22:30:52Z</time>
      </trkpt>
      <trkpt lat="45.8902" lon="1.48265">
        <ele>375.494</ele>
        <time>2020-02-14T22:31:12Z</time>
      </trkpt>
      <trkpt lat="45.89178" lon="1.48203">
        <ele>377.267</ele>
        <time>2020-02-14T22:31:32Z</time>
      </trkpt>
      <trkpt lat="45.89273" lon="1.48192">
        <ele>381.758</ele>
        <time>2020-02-14T22:31:52Z</time>
      </trkpt>
      <trkpt lat="45.89334" lon="1.48167">
        <ele>385.091</ele>
        <time>2020-02-14T22:32:12Z</time>
      </trkpt>
      <trkpt lat="45.89487" lon="1.48167">
        <ele>384.987</ele>
        <time>2020-02-14T22:32:32Z</time>
      </trkpt>
      <trkpt lat="45.89663" lon="1.48067">
        <ele>384.991</ele>
        <time>2020-02-14T22:32:52Z</time>
      </trkpt>
      <trkpt lat="45.89742" lon="1.48044">
        <ele>389.072</ele>
        <time>2020-02-14T22:33:12Z</time>
      </trkpt>
      <trkpt lat="45.89896" lon="1.47927">
        <ele>401.313</ele>
        <time>2020-02-14T22:33:32Z</time>
      </trkpt>
      <trkpt lat="45.89972" lon="1.47906">
        <ele>404.614</ele>
        <time>2020-02-14T22:33:52Z</time>
      </trkpt>
      <trkpt lat="45.90042" lon="1.47937">
        <ele>406.408</ele>
        <time>2020-02-14T22:34:12Z</time>
      </trkpt>
      <trkpt lat="45.90075" lon="1.47963">
        <ele>407.783</ele>
        <time>2020-02-14T22:34:32Z</time>
      </trkpt>
      <trkpt lat="45.90359" lon="1.47598">
        <ele>416.937</ele>
        <time>2020-02-14T22:34:52Z</time>
      </trkpt>
      <trkpt lat="45.90468" lon="1.47709">
        <ele>419.374</ele>
        <time>2020-02-14T22:35:12Z</time>
      </trkpt>
      <trkpt lat="45.90531" lon="1.47811">
        <ele>423.117</ele>
        <time>2020-02-14T22:35:32Z</time>
      </trkpt>
      <trkpt lat="45.90606" lon="1.48029">
        <ele>424.788</ele>
        <time>2020-02-14T22:35:52Z</time>
      </trkpt>
      <trkpt lat="45.90707" lon="1.48348">
        <ele>425.161</ele>
        <time>2020-02-14T22:36:12Z</time>
      </trkpt>
      <trkpt lat="45.90721" lon="1.48455">
        <ele>427.457</ele>
        <time>2020-02-14T22:36:32Z</time>
      </trkpt>
      <trkpt lat="45.90717" lon="1.48707">
        <ele>421.621</ele>
        <time>2020-02-14T22:36:52Z</time>
      </trkpt>
      <trkpt lat="45.90777" lon="1.48837">
        <ele>419.095</ele>
        <time>2020-02-14T22:37:12Z</time>
      </trkpt>
      <trkpt lat="45.90802" lon="1.48937">
        <ele>420.849</ele>
        <time>2020-02-14T22:37:32Z</time>
      </trkpt>
      <trkpt lat="45.90886" lon="1.49366">
        <ele>431.123</ele>
        <time>2020-02-14T22:37:52Z</time>
      </trkpt>
      <trkpt lat="45.9091" lon="1.49537">
        <ele>427.208</ele>
        <time>2020-02-14T22:38:12Z</time>
      </trkpt>
      <trkpt lat="45.90911" lon="1.49782">
        <ele>424.635</ele>
        <time>2020-02-14T22:38:32Z</time>
      </trkpt>
      <trkpt lat="45.90944" lon="1.5013">
        <ele>428.399</ele>
        <time>2020-02-14T22:38:52Z</time>
      </trkpt>
      <trkpt lat="45.90952" lon="1.5036">
        <ele>438.996</ele>
        <time>2020-02-14T22:39:12Z</time>
      </trkpt>
      <trkpt lat="45.90974" lon="1.50608">
        <ele>439.189</ele>
        <time>2020-02-14T22:39:32Z</time>
      </trkpt>
      <trkpt lat="45.90995" lon="1.50722">
        <ele>438.63</ele>
        <time>2020-02-14T22:39:52Z</time>
      </trkpt>
      <trkpt lat="45.91056" lon="1.5073">
        <ele>440.793</ele>
        <time>2020-02-14T22:40:12Z</time>
      </trkpt>
      <trkpt lat="45.91105" lon="1.5076">
        <ele>438.129</ele>
        <time>2020-02-14T22:40:32Z</time>
      </trkpt>
      <trkpt lat="45.91178" lon="1.50773">
        <ele>429.693</ele>
        <time>2020-02-14T22:40:52Z</time>
      </trkpt>
      <trkpt lat="45.91266" lon="1.50761">
        <ele>418.759</ele>
        <time>2020-02-14T22:41:12Z</time>
      </trkpt>
      <trkpt lat="45.91297" lon="1.50782">
        <ele>413.203</ele>
        <time>2020-02-14T22:41:32Z</time>
      </trkpt>
      <trkpt lat="45.91343" lon="1.50841">
        <ele>407.623</ele>
        <time>2020-02-14T22:41:52Z</time>
      </trkpt>
      <trkpt lat="45.91378" lon="1.50857">
        <ele>405.008</ele>
        <time>2020-02-14T22:42:12Z</time>
      </trkpt>
      <trkpt lat="45.91435" lon="1.50839">
        <ele>404.871</ele>
        <time>2020-02-14T22:42:32Z</time>
      </trkpt>
      <trkpt lat="45.91535" lon="1.50747">
        <ele>406.795</ele>
        <time>2020-02-14T22:42:52Z</time>
      </trkpt>
      <trkpt lat="45.91618" lon="1.50693">
        <ele>404.352</ele>
        <time>2020-02-14T22:43:12Z</time>
      </trkpt>
      <trkpt lat="45.91675" lon="1.50711">
        <ele>397.515</ele>
        <time>2020-02-14T22:43:32Z</time>
      </trkpt>
      <trkpt lat="45.9193" lon="1.5086">
        <ele>389.476</ele>
        <time>2020-02-14T22:43:52Z</time>
      </trkpt>
      <trkpt lat="45.91948" lon="1.50742">
        <ele>390.589</ele>
        <time>2020-02-14T22:44:12Z</time>
      </trkpt>
      <trkpt lat="45.91951" lon="1.50699">
        <ele>390.295</ele>
        <time>2020-02-14T22:44:32Z</time>
      </trkpt>
      <trkpt lat="45.91989" lon="1.50563">
        <ele>383.299</ele>
        <time>2020-02-14T22:44:52Z</time>
      </trkpt>
      <trkpt lat="45.91978" lon="1.50433">
        <ele>378.588</ele>
        <time>2020-02-14T22:45:12Z</time>
      </trkpt>
      <trkpt lat="45.92009" lon="1.50426">
        <ele>379.724</ele>
        <time>2020-02-14T22:45:32Z</time>
      </trkpt>
      <trkpt lat="45.92228" lon="1.50564">
        <ele>405.426</ele>
        <time>2020-02-14T22:45:52Z</time>
      </trkpt>
      <trkpt lat="45.92417" lon="1.50509">
        <ele>401.308</ele>
        <time>2020-02-14T22:46:12Z</time>
      </trkpt>
      <trkpt lat="45.92676" lon="1.50517">
        <ele>392.424</ele>
        <time>2020-02-14T22:46:32Z</time>
      </trkpt>
      <trkpt lat="45.93017" lon="1.50547">
        <ele>364.378</ele>
        <time>2020-02-14T22:46:52Z</time>
      </trkpt>
      <trkpt lat="45.93154" lon="1.50612">
        <ele>359.995</ele>
        <time>2020-02-14T22:47:12Z</time>
      </trkpt>
      <trkpt lat="45.93241" lon="1.50628">
        <ele>357.088</ele>
        <time>2020-02-14T22:47:32Z</time>
      </trkpt>
      <trkpt lat="45.93344" lon="1.50597">
        <ele>356.299</ele>
        <time>2020-02-14T22:47:52Z</time>
      </trkpt>
      <trkpt lat="45.93444" lon="1.50618">
        <ele>354.362</ele>
        <time>2020-02-14T22:48:12Z</time>
      </trkpt>
      <trkpt lat="45.93569" lon="1.50579">
        <ele>346.048</ele>
        <time>2020-02-14T22:48:32Z</time>
      </trkpt>
      <trkpt lat="45.9368" lon="1.50568">
        <ele>332.122</ele>
        <time>2020-02-14T22:48:52Z</time>
      </trkpt>
      <trkpt lat="45.93678" lon="1.50608">
        <ele>330.831</ele>
        <time>2020-02-14T22:49:12Z</time>
      </trkpt>
      <trkpt lat="45.93705" lon="1.50584">
        <ele>330.661</ele>
        <time>2020-02-14T22:49:32Z</time>
      </trkpt>
      <trkpt lat="45.93756" lon="1.50591">
        <ele>325.907</ele>
        <time>2020-02-14T22:49:52Z</time>
      </trkpt>
      <trkpt lat="45.93794" lon="1.50652">
        <ele>318.508</ele>
        <time>2020-02-14T22:50:12Z</time>
      </trkpt>
      <trkpt lat="45.93821" lon="1.50669">
        <ele>315.359</ele>
        <time>2020-02-14T22:50:32Z</time>
      </trkpt>
      <trkpt lat="45.93855" lon="1.5067">
        <ele>311.893</ele>
        <time>2020-02-14T22:50:52Z</time>
      </trkpt>
      <trkpt lat="45.93881" lon="1.50678">
        <ele>310.45</ele>
        <time>2020-02-14T22:51:12Z</time>
      </trkpt>
      <trkpt lat="45.93901" lon="1.5067">
        <ele>306.993</ele>
        <time>2020-02-14T22:51:32Z</time>
      </trkpt>
      <trkpt lat="45.93994" lon="1.50712">
        <ele>297.274</ele>
        <time>2020-02-14T22:51:52Z</time>
      </trkpt>
      <trkpt lat="45.94002" lon="1.50675">
        <ele>290.087</ele>
        <time>2020-02-14T22:52:12Z</time>
      </trkpt>
      <trkpt lat="45.9405" lon="1.50706">
        <ele>287.423</ele>
        <time>2020-02-14T22:52:32Z</time>
      </trkpt>
      <trkpt lat="45.94174" lon="1.5074">
        <ele>287.397</ele>
        <time>2020-02-14T22:52:52Z</time>
      </trkpt>
      <trkpt lat="45.94188" lon="1.50761">
        <ele>290.631</ele>
        <time>2020-02-14T22:53:12Z</time>
      </trkpt>
      <trkpt lat="45.94272" lon="1.50641">
        <ele>317.261</ele>
        <time>2020-02-14T22:53:32Z</time>
      </trkpt>
      <trkpt lat="45.94311" lon="1.50563">
        <ele>331.607</ele>
        <time>2020-02-14T22:53:52Z</time>
      </trkpt>
      <trkpt lat="45.94346" lon="1.50543">
        <ele>333.508</ele>
        <time>2020-02-14T22:54:12Z</time>
      </trkpt>
      <trkpt lat="45.94383" lon="1.50551">
        <ele>337.049</ele>
        <time>2020-02-14T22:54:32Z</time>
      </trkpt>
      <trkpt lat="45.94406" lon="1.50594">
        <ele>341.643</ele>
        <time>2020-02-14T22:54:52Z</time>
      </trkpt>
      <trkpt lat="45.94445" lon="1.50551">
        <ele>345.33</ele>
        <time>2020-02-14T22:55:12Z</time>
      </trkpt>
      <trkpt lat="45.94483" lon="1.50418">
        <ele>353.823</ele>
        <time>2020-02-14T22:55:32Z</time>
      </trkpt>
      <trkpt lat="45.94526" lon="1.50223">
        <ele>368.854</ele>
        <time>2020-02-14T22:55:52Z</time>
      </trkpt>
      <trkpt lat="45.94577" lon="1.50119">
        <ele>370.967</ele>
        <time>2020-02-14T22:56:12Z</time>
      </trkpt>
      <trkpt lat="45.94589" lon="1.50069">
        <ele>372.253</ele>
        <time>2020-02-14T22:56:32Z</time>
      </trkpt>
      <trkpt lat="45.94572" lon="1.50008">
        <ele>374.447</ele>
        <time>2020-02-14T22:56:52Z</time>
      </trkpt>
      <trkpt lat="45.94584" lon="1.49935">
        <ele>375.796</ele>
        <time>2020-02-14T22:57:12Z</time>
      </trkpt>
      <trkpt lat="45.9465" lon="1.4996">
        <ele>376.831</ele>
        <time>2020-02-14T22:57:32Z</time>
      </trkpt>
      <trkpt lat="45.94707" lon="1.49948">
        <ele>377.624</ele>
        <time>2020-02-14T22:57:52Z</time>
      </trkpt>
      <trkpt lat="45.94961" lon="1.49799">
        <ele>391.708</ele>
        <time>2020-02-14T22:58:12Z</time>
      </trkpt>
      <trkpt lat="45.95031" lon="1.49792">
        <ele>388.495</ele>
        <time>2020-02-14T22:58:32Z</time>
      </trkpt>
      <trkpt lat="45.95126" lon="1.49929">
        <ele>380.519</ele>
        <time>2020-02-14T22:58:52Z</time>
      </trkpt>
      <trkpt lat="45.95202" lon="1.50075">
        <ele>372.476</ele>
        <time>2020-02-14T22:59:12Z</time>
      </trkpt>
      <trkpt lat="45.95248" lon="1.50112">
        <ele>370.919</ele>
        <time>2020-02-14T22:59:32Z</time>
      </trkpt>
      <trkpt lat="45.95284" lon="1.50176">
        <ele>371.63</ele>
        <time>2017-03-24T14:33:59Z</time>
      </trkpt>
      <trkpt lat="45.95383" lon="1.50267">
        <ele>372.093</ele>
        <time>2017-03-24T14:34:19Z</time>
      </trkpt>
      <trkpt lat="45.95504" lon="1.50568">
        <ele>383.849</ele>
        <time>2020-02-14T23:00:32Z</time>
      </trkpt>
      <trkpt lat="45.95558" lon="1.5062">
        <ele>382.613</ele>
        <time>2020-02-14T23:00:52Z</time>
      </trkpt>
      <trkpt lat="45.95746" lon="1.50696">
        <ele>390.752</ele>
        <time>2020-02-14T23:01:12Z</time>
      </trkpt>
      <trkpt lat="45.95796" lon="1.50667">
        <ele>393.653</ele>
        <time>2017-03-24T14:35:59Z</time>
      </trkpt>
      <trkpt lat="45.95922" lon="1.50578">
        <ele>392.008</ele>
        <time>2017-03-24T14:36:19Z</time>
      </trkpt>
      <trkpt lat="45.96003" lon="1.50551">
        <ele>390.908</ele>
        <time>2017-03-24T14:36:39Z</time>
      </trkpt>
      <trkpt lat="45.96106" lon="1.50543">
        <ele>381.421</ele>
        <time>2017-03-24T14:36:59Z</time>
      </trkpt>
      <trkpt lat="45.96181" lon="1.50587">
        <ele>373.655</ele>
        <time>2020-02-14T23:02:52Z</time>
      </trkpt>
      <trkpt lat="45.96168" lon="1.5062">
        <ele>371.142</ele>
        <time>2020-02-14T23:03:12Z</time>
      </trkpt>
      <trkpt lat="45.96172" lon="1.50685">
        <ele>369.165</ele>
        <time>2020-02-14T23:03:32Z</time>
      </trkpt>
      <trkpt lat="45.9619" lon="1.50786">
        <ele>369.566</ele>
        <time>2020-02-14T23:03:52Z</time>
      </trkpt>
      <trkpt lat="45.96175" lon="1.50859">
        <ele>363.989</ele>
        <time>2020-02-14T23:04:12Z</time>
      </trkpt>
      <trkpt lat="45.9618" lon="1.5093">
        <ele>359.355</ele>
        <time>2020-02-14T23:04:32Z</time>
      </trkpt>
      <trkpt lat="45.96155" lon="1.50982">
        <ele>359.639</ele>
        <time>2020-02-14T23:04:52Z</time>
      </trkpt>
      <trkpt lat="45.96111" lon="1.51039">
        <ele>361.655</ele>
        <time>2020-02-14T23:05:12Z</time>
      </trkpt>
      <trkpt lat="45.96164" lon="1.51096">
        <ele>354.107</ele>
        <time>2020-02-14T23:05:32Z</time>
      </trkpt>
      <trkpt lat="45.96218" lon="1.512">
        <ele>352.017</ele>
        <time>2020-02-14T23:05:52Z</time>
      </trkpt>
      <trkpt lat="45.96237" lon="1.51347">
        <ele>346.308</ele>
        <time>2020-02-14T23:06:12Z</time>
      </trkpt>
      <trkpt lat="45.96252" lon="1.51423">
        <ele>345.981</ele>
        <time>2020-02-14T23:06:32Z</time>
      </trkpt>
      <trkpt lat="45.96242" lon="1.51461">
        <ele>343.055</ele>
        <time>2020-02-14T23:06:52Z</time>
      </trkpt>
      <trkpt lat="45.96249" lon="1.51582">
        <ele>337.012</ele>
        <time>2020-02-14T23:07:12Z</time>
      </trkpt>
      <trkpt lat="45.96268" lon="1.51635">
        <ele>330.945</ele>
        <time>2020-02-14T23:07:32Z</time>
      </trkpt>
      <trkpt lat="45.96333" lon="1.51657">
        <ele>324.146</ele>
        <time>2020-02-14T23:07:52Z</time>
      </trkpt>
      <trkpt lat="45.96336" lon="1.51786">
        <ele>324.189</ele>
        <time>2020-02-14T23:08:12Z</time>
      </trkpt>
      <trkpt lat="45.96317" lon="1.51825">
        <ele>322.165</ele>
        <time>2020-02-14T23:08:32Z</time>
      </trkpt>
      <trkpt lat="45.96311" lon="1.51953">
        <ele>324.629</ele>
        <time>2020-02-14T23:08:52Z</time>
      </trkpt>
      <trkpt lat="45.9632" lon="1.52113">
        <ele>343.015</ele>
        <time>2020-02-14T23:09:12Z</time>
      </trkpt>
      <trkpt lat="45.96382" lon="1.5223">
        <ele>346.065</ele>
        <time>2020-02-14T23:09:32Z</time>
      </trkpt>
      <trkpt lat="45.96528" lon="1.52479">
        <ele>350.211</ele>
        <time>2020-02-14T23:09:52Z</time>
      </trkpt>
      <trkpt lat="45.96536" lon="1.52526">
        <ele>352.508</ele>
        <time>2020-02-14T23:10:12Z</time>
      </trkpt>
      <trkpt lat="45.96528" lon="1.52597">
        <ele>356.017</ele>
        <time>2020-02-14T23:10:32Z</time>
      </trkpt>
      <trkpt lat="45.96554" lon="1.52739">
        <ele>362.541</ele>
        <time>2020-02-14T23:10:52Z</time>
      </trkpt>
      <trkpt lat="45.96512" lon="1.52898">
        <ele>368.838</ele>
        <time>2020-02-14T23:11:12Z</time>
      </trkpt>
      <trkpt lat="45.9652" lon="1.52934">
        <ele>373.211</ele>
        <time>2020-02-14T23:11:32Z</time>
      </trkpt>
      <trkpt lat="45.96546" lon="1.52971">
        <ele>375.652</ele>
        <time>2020-02-14T23:11:52Z</time>
      </trkpt>
      <trkpt lat="45.96544" lon="1.52992">
        <ele>377.715</ele>
        <time>2020-02-14T23:12:12Z</time>
      </trkpt>
      <trkpt lat="45.96584" lon="1.53002">
        <ele>377.381</ele>
        <time>2020-02-14T23:12:32Z</time>
      </trkpt>
      <trkpt lat="45.96594" lon="1.53038">
        <ele>381.015</ele>
        <time>2020-02-14T23:12:52Z</time>
      </trkpt>
      <trkpt lat="45.96585" lon="1.53113">
        <ele>384.953</ele>
        <time>2020-02-14T23:13:12Z</time>
      </trkpt>
      <trkpt lat="45.96667" lon="1.5334">
        <ele>395.004</ele>
        <time>2020-02-14T23:13:32Z</time>
      </trkpt>
      <trkpt lat="45.96786" lon="1.53373">
        <ele>390.414</ele>
        <time>2020-02-14T23:13:52Z</time>
      </trkpt>
      <trkpt lat="45.96832" lon="1.53405">
        <ele>387.108</ele>
        <time>2020-02-14T23:14:12Z</time>
      </trkpt>
      <trkpt lat="45.96921" lon="1.53598">
        <ele>387.451</ele>
        <time>2020-02-14T23:14:32Z</time>
      </trkpt>
      <trkpt lat="45.9699" lon="1.53798">
        <ele>391.655</ele>
        <time>2020-02-14T23:14:52Z</time>
      </trkpt>
      <trkpt lat="45.97014" lon="1.53952">
        <ele>392.032</ele>
        <time>2020-02-14T23:15:12Z</time>
      </trkpt>
      <trkpt lat="45.97011" lon="1.5406">
        <ele>392.145</ele>
        <time>2020-02-14T23:15:32Z</time>
      </trkpt>
      <trkpt lat="45.96994" lon="1.54206">
        <ele>388.766</ele>
        <time>2020-02-14T23:15:52Z</time>
      </trkpt>
      <trkpt lat="45.97003" lon="1.54257">
        <ele>387.539</ele>
        <time>2020-02-14T23:16:12Z</time>
      </trkpt>
      <trkpt lat="45.97047" lon="1.54409">
        <ele>393.925</ele>
        <time>2020-02-14T23:16:32Z</time>
      </trkpt>
      <trkpt lat="45.97056" lon="1.54515">
        <ele>395.049</ele>
        <time>2020-02-14T23:16:52Z</time>
      </trkpt>
      <trkpt lat="45.9715" lon="1.54474">
        <ele>387.063</ele>
        <time>2020-02-14T23:17:12Z</time>
      </trkpt>
      <trkpt lat="45.97226" lon="1.54482">
        <ele>378.244</ele>
        <time>2020-02-14T23:17:32Z</time>
      </trkpt>
      <trkpt lat="45.97287" lon="1.54437">
        <ele>375.218</ele>
        <time>2020-02-14T23:17:52Z</time>
      </trkpt>
      <trkpt lat="45.97299" lon="1.54448">
        <ele>374.908</ele>
        <time>2020-02-14T23:18:12Z</time>
      </trkpt>
      <trkpt lat="45.97329" lon="1.5454">
        <ele>374.152</ele>
        <time>2020-02-14T23:18:32Z</time>
      </trkpt>
      <trkpt lat="45.97321" lon="1.54596">
        <ele>372.786</ele>
        <time>2020-02-14T23:18:52Z</time>
      </trkpt>
      <trkpt lat="45.97336" lon="1.54712">
        <ele>371.673</ele>
        <time>2020-02-14T23:19:12Z</time>
      </trkpt>
      <trkpt lat="45.97312" lon="1.54854">
        <ele>360.276</ele>
        <time>2020-02-14T23:19:32Z</time>
      </trkpt>
      <trkpt lat="45.97327" lon="1.54924">
        <ele>352.737</ele>
        <time>2020-02-14T23:19:52Z</time>
      </trkpt>
      <trkpt lat="45.97385" lon="1.54989">
        <ele>351.54</ele>
        <time>2020-02-14T23:20:12Z</time>
      </trkpt>
      <trkpt lat="45.97384" lon="1.55066">
        <ele>337.616</ele>
        <time>2020-02-14T23:20:32Z</time>
      </trkpt>
      <trkpt lat="45.97396" lon="1.55064">
        <ele>336.55</ele>
        <time>2020-02-14T23:20:52Z</time>
      </trkpt>
      <trkpt lat="45.97451" lon="1.55008">
        <ele>338.714</ele>
        <time>2020-02-14T23:21:12Z</time>
      </trkpt>
      <trkpt lat="45.97469" lon="1.55015">
        <ele>333.654</ele>
        <time>2020-02-14T23:21:32Z</time>
      </trkpt>
      <trkpt lat="45.97454" lon="1.55094">
        <ele>328.709</ele>
        <time>2020-02-14T23:21:52Z</time>
      </trkpt>
      <trkpt lat="45.9743" lon="1.55145">
        <ele>335.008</ele>
        <time>2020-02-14T23:22:12Z</time>
      </trkpt>
      <trkpt lat="45.97476" lon="1.5524">
        <ele>344.837</ele>
        <time>2020-02-14T23:22:32Z</time>
      </trkpt>
      <trkpt lat="45.975" lon="1.55319">
        <ele>346.591</ele>
        <time>2020-02-14T23:22:52Z</time>
      </trkpt>
      <trkpt lat="45.97575" lon="1.5545">
        <ele>359.478</ele>
        <time>2020-02-14T23:23:12Z</time>
      </trkpt>
      <trkpt lat="45.97603" lon="1.55581">
        <ele>371.541</ele>
        <time>2020-02-14T23:23:32Z</time>
      </trkpt>
      <trkpt lat="45.97631" lon="1.55624">
        <ele>378.652</ele>
        <time>2020-02-14T23:23:52Z</time>
      </trkpt>
      <trkpt lat="45.97657" lon="1.55673">
        <ele>383.365</ele>
        <time>2020-02-14T23:24:12Z</time>
      </trkpt>
      <trkpt lat="45.97704" lon="1.5574">
        <ele>384.591</ele>
        <time>2020-02-14T23:24:32Z</time>
      </trkpt>
      <trkpt lat="45.97758" lon="1.55836">
        <ele>386.835</ele>
        <time>2020-02-14T23:24:52Z</time>
      </trkpt>
      <trkpt lat="45.97822" lon="1.55875">
        <ele>384.463</ele>
        <time>2020-02-14T23:25:12Z</time>
      </trkpt>
      <trkpt lat="45.9788" lon="1.55888">
        <ele>384.344</ele>
        <time>2020-02-14T23:25:32Z</time>
      </trkpt>
      <trkpt lat="45.9795" lon="1.55892">
        <ele>385.418</ele>
        <time>2020-02-14T23:25:52Z</time>
      </trkpt>
      <trkpt lat="45.98014" lon="1.55927">
        <ele>380.808</ele>
        <time>2020-02-14T23:26:12Z</time>
      </trkpt>
      <trkpt lat="45.98056" lon="1.5598">
        <ele>380.232</ele>
        <time>2020-02-14T23:26:32Z</time>
      </trkpt>
      <trkpt lat="45.98007" lon="1.56102">
        <ele>385.896</ele>
        <time>2020-02-14T23:26:52Z</time>
      </trkpt>
      <trkpt lat="45.97928" lon="1.5619">
        <ele>391.733</ele>
        <time>2020-02-14T23:27:12Z</time>
      </trkpt>
      <trkpt lat="45.98029" lon="1.56266">
        <ele>390.976</ele>
        <time>2020-02-14T23:27:32Z</time>
      </trkpt>
      <trkpt lat="45.98225" lon="1.56345">
        <ele>391.837</ele>
        <time>2020-02-14T23:27:52Z</time>
      </trkpt>
      <trkpt lat="45.98264" lon="1.56304">
        <ele>391.43</ele>
        <time>2020-02-14T23:28:12Z</time>
      </trkpt>
      <trkpt lat="45.98313" lon="1.56287">
        <ele>394.386</ele>
        <time>2020-02-14T23:28:32Z</time>
      </trkpt>
      <trkpt lat="45.98392" lon="1.56148">
        <ele>391.86</ele>
        <time>2020-02-14T23:28:52Z</time>
      </trkpt>
      <trkpt lat="45.98454" lon="1.56145">
        <ele>389.268</ele>
        <time>2020-02-14T23:29:12Z</time>
      </trkpt>
      <trkpt lat="45.98605" lon="1.56087">
        <ele>397.142</ele>
        <time>2020-02-14T23:29:32Z</time>
      </trkpt>
      <trkpt lat="45.98672" lon="1.56053">
        <ele>400.026</ele>
        <time>2020-02-14T23:29:52Z</time>
      </trkpt>
      <trkpt lat="45.98733" lon="1.55967">
        <ele>403.508</ele>
        <time>2020-02-14T23:30:12Z</time>
      </trkpt>
      <trkpt lat="45.98802" lon="1.55952">
        <ele>407.162</ele>
        <time>2020-02-14T23:30:32Z</time>
      </trkpt>
      <trkpt lat="45.98912" lon="1.55871">
        <ele>420.616</ele>
        <time>2020-02-14T23:30:52Z</time>
      </trkpt>
      <trkpt lat="45.99043" lon="1.55841">
        <ele>421.023</ele>
        <time>2020-02-14T23:31:12Z</time>
      </trkpt>
      <trkpt lat="45.99157" lon="1.55828">
        <ele>427.236</ele>
        <time>2020-02-14T23:31:32Z</time>
      </trkpt>
      <trkpt lat="45.9934" lon="1.55766">
        <ele>431.137</ele>
        <time>2020-02-14T23:31:52Z</time>
      </trkpt>
      <trkpt lat="45.99499" lon="1.55778">
        <ele>436.09</ele>
        <time>2020-02-14T23:32:12Z</time>
      </trkpt>
      <trkpt lat="45.99635" lon="1.55761">
        <ele>444.366</ele>
        <time>2020-02-14T23:32:32Z</time>
      </trkpt>
      <trkpt lat="45.99817" lon="1.55695">
        <ele>449.62</ele>
        <time>2020-02-14T23:32:52Z</time>
      </trkpt>
      <trkpt lat="45.99893" lon="1.55682">
        <ele>444.556</ele>
        <time>2020-02-14T23:33:12Z</time>
      </trkpt>
      <trkpt lat="45.99957" lon="1.55699">
        <ele>439.559</ele>
        <time>2020-02-14T23:33:32Z</time>
      </trkpt>
      <trkpt lat="45.99993" lon="1.55729">
        <ele>438.514</ele>
        <time>2020-02-14T23:33:52Z</time>
      </trkpt>
      <trkpt lat="46.00033" lon="1.55753">
        <ele>438.808</ele>
        <time>2020-02-14T23:34:12Z</time>
      </trkpt>
      <trkpt lat="46.00075" lon="1.55836">
        <ele>438.671</ele>
        <time>2020-02-14T23:34:32Z</time>
      </trkpt>
      <trkpt lat="46.00297" lon="1.55916">
        <ele>439.115</ele>
        <time>2020-02-14T23:34:52Z</time>
      </trkpt>
      <trkpt lat="46.004" lon="1.5612">
        <ele>446.012</ele>
        <time>2020-02-14T23:35:12Z</time>
      </trkpt>
      <trkpt lat="46.00441" lon="1.56169">
        <ele>449.225</ele>
        <time>2020-02-14T23:35:32Z</time>
      </trkpt>
      <trkpt lat="46.00485" lon="1.56289">
        <ele>457.026</ele>
        <time>2020-02-14T23:35:52Z</time>
      </trkpt>
      <trkpt lat="46.00515" lon="1.56296">
        <ele>457.959</ele>
        <time>2020-02-14T23:36:12Z</time>
      </trkpt>
      <trkpt lat="46.00565" lon="1.56263">
        <ele>460.945</ele>
        <time>2020-02-14T23:36:32Z</time>
      </trkpt>
      <trkpt lat="46.00619" lon="1.56248">
        <ele>460.549</ele>
        <time>2020-02-14T23:36:52Z</time>
      </trkpt>
      <trkpt lat="46.00649" lon="1.56255">
        <ele>458.268</ele>
        <time>2020-02-14T23:37:12Z</time>
      </trkpt>
      <trkpt lat="46.00692" lon="1.56242">
        <ele>457.842</ele>
        <time>2020-02-14T23:37:32Z</time>
      </trkpt>
      <trkpt lat="46.0075" lon="1.56283">
        <ele>450.626</ele>
        <time>2020-02-14T23:37:52Z</time>
      </trkpt>
      <trkpt lat="46.00816" lon="1.56248">
        <ele>444.408</ele>
        <time>2020-02-14T23:38:12Z</time>
      </trkpt>
      <trkpt lat="46.00899" lon="1.56244">
        <ele>436.582</ele>
        <time>2020-02-14T23:38:32Z</time>
      </trkpt>
      <trkpt lat="46.00917" lon="1.56278">
        <ele>437.056</ele>
        <time>2020-02-14T23:38:52Z</time>
      </trkpt>
      <trkpt lat="46.00918" lon="1.56343">
        <ele>438.933</ele>
        <time>2020-02-14T23:39:12Z</time>
      </trkpt>
      <trkpt lat="46.00936" lon="1.56366">
        <ele>439.816</ele>
        <time>2020-02-14T23:39:32Z</time>
      </trkpt>
      <trkpt lat="46.00966" lon="1.56326">
        <ele>443.347</ele>
        <time>2020-02-14T23:39:52Z</time>
      </trkpt>
      <trkpt lat="46.0099" lon="1.56328">
        <ele>444.97</ele>
        <time>2020-02-14T23:40:12Z</time>
      </trkpt>
      <trkpt lat="46.01045" lon="1.56375">
        <ele>447.676</ele>
        <time>2020-02-14T23:40:32Z</time>
      </trkpt>
      <trkpt lat="46.01085" lon="1.5639">
        <ele>453.13</ele>
        <time>2020-02-14T23:40:52Z</time>
      </trkpt>
      <trkpt lat="46.01154" lon="1.56487">
        <ele>451.081</ele>
        <time>2020-02-14T23:41:12Z</time>
      </trkpt>
      <trkpt lat="46.01228" lon="1.56497">
        <ele>457.161</ele>
        <time>2020-02-14T23:41:32Z</time>
      </trkpt>
      <trkpt lat="46.01267" lon="1.56476">
        <ele>462.217</ele>
        <time>2020-02-14T23:41:52Z</time>
      </trkpt>
      <trkpt lat="46.013" lon="1.56396">
        <ele>465.608</ele>
        <time>2020-02-14T23:42:12Z</time>
      </trkpt>
      <trkpt lat="46.01319" lon="1.56388">
        <ele>467.564</ele>
        <time>2020-02-14T23:42:32Z</time>
      </trkpt>
      <trkpt lat="46.01346" lon="1.56396">
        <ele>470.438</ele>
        <time>2020-02-14T23:42:52Z</time>
      </trkpt>
      <trkpt lat="46.01382" lon="1.56373">
        <ele>476.935</ele>
        <time>2020-02-14T23:43:12Z</time>
      </trkpt>
      <trkpt lat="46.01451" lon="1.56305">
        <ele>484.138</ele>
        <time>2020-02-14T23:43:32Z</time>
      </trkpt>
      <trkpt lat="46.0152" lon="1.56271">
        <ele>494.019</ele>
        <time>2020-02-14T23:43:52Z</time>
      </trkpt>
      <trkpt lat="46.01555" lon="1.56221">
        <ele>493.822</ele>
        <time>2020-02-14T23:44:12Z</time>
      </trkpt>
      <trkpt lat="46.01615" lon="1.56176">
        <ele>500.248</ele>
        <time>2020-02-14T23:44:32Z</time>
      </trkpt>
      <trkpt lat="46.01655" lon="1.56132">
        <ele>500.242</ele>
        <time>2020-02-14T23:44:52Z</time>
      </trkpt>
      <trkpt lat="46.0176" lon="1.56056">
        <ele>502.163</ele>
        <time>2020-02-14T23:45:12Z</time>
      </trkpt>
      <trkpt lat="46.0183" lon="1.56052">
        <ele>500.744</ele>
        <time>2020-02-14T23:45:32Z</time>
      </trkpt>
      <trkpt lat="46.01911" lon="1.56084">
        <ele>506.918</ele>
        <time>2020-02-14T23:45:52Z</time>
      </trkpt>
      <trkpt lat="46.01979" lon="1.56129">
        <ele>510.108</ele>
        <time>2020-02-14T23:46:12Z</time>
      </trkpt>
      <trkpt lat="46.02069" lon="1.56162">
        <ele>511.942</ele>
        <time>2020-02-14T23:46:32Z</time>
      </trkpt>
      <trkpt lat="46.02097" lon="1.56192">
        <ele>515.786</ele>
        <time>2020-02-14T23:46:52Z</time>
      </trkpt>
      <trkpt lat="46.02121" lon="1.56172">
        <ele>514.423</ele>
        <time>2020-02-14T23:47:12Z</time>
      </trkpt>
      <trkpt lat="46.02138" lon="1.56078">
        <ele>513.236</ele>
        <time>2020-02-14T23:47:32Z</time>
      </trkpt>
      <trkpt lat="46.02161" lon="1.56013">
        <ele>508.927</ele>
        <time>2020-02-14T23:47:52Z</time>
      </trkpt>
      <trkpt lat="46.02186" lon="1.56095">
        <ele>521.71</ele>
        <time>2020-02-14T23:48:12Z</time>
      </trkpt>
      <trkpt lat="46.02219" lon="1.56137">
        <ele>527.526</ele>
        <time>2020-02-14T23:48:32Z</time>
      </trkpt>
      <trkpt lat="46.02266" lon="1.56173">
        <ele>531.65</ele>
        <time>2020-02-14T23:48:52Z</time>
      </trkpt>
      <trkpt lat="46.02255" lon="1.56251">
        <ele>537.055</ele>
        <time>2020-02-14T23:49:12Z</time>
      </trkpt>
      <trkpt lat="46.02172" lon="1.56489">
        <ele>553.407</ele>
        <time>2020-02-14T23:49:32Z</time>
      </trkpt>
      <trkpt lat="46.02277" lon="1.56517">
        <ele>571.217</ele>
        <time>2020-02-14T23:49:52Z</time>
      </trkpt>
      <trkpt lat="46.02398" lon="1.56589">
        <ele>584.108</ele>
        <time>2020-02-14T23:50:12Z</time>
      </trkpt>
      <trkpt lat="46.02489" lon="1.56565">
        <ele>592.171</ele>
        <time>2020-02-14T23:50:32Z</time>
      </trkpt>
      <trkpt lat="46.02607" lon="1.56569">
        <ele>601.825</ele>
        <time>2020-02-14T23:50:52Z</time>
      </trkpt>
      <trkpt lat="46.02753" lon="1.56625">
        <ele>610.622</ele>
        <time>2020-02-14T23:51:12Z</time>
      </trkpt>
      <trkpt lat="46.02845" lon="1.56721">
        <ele>621.375</ele>
        <time>2020-02-14T23:51:32Z</time>
      </trkpt>
      <trkpt lat="46.02896" lon="1.56743">
        <ele>626.896</ele>
        <time>2020-02-14T23:51:52Z</time>
      </trkpt>
      <trkpt lat="46.02947" lon="1.56785">
        <ele>628.189</ele>
        <time>2020-02-14T23:52:12Z</time>
      </trkpt>
      <trkpt lat="46.02999" lon="1.56807">
        <ele>634.885</ele>
        <time>2020-02-14T23:52:32Z</time>
      </trkpt>
      <trkpt lat="46.03014" lon="1.56825">
        <ele>638.649</ele>
        <time>2020-02-14T23:52:52Z</time>
      </trkpt>
      <trkpt lat="46.03141" lon="1.56839">
        <ele>659.052</ele>
        <time>2020-02-14T23:53:12Z</time>
      </trkpt>
      <trkpt lat="46.03262" lon="1.56843">
        <ele>678.253</ele>
        <time>2020-02-14T23:53:32Z</time>
      </trkpt>
      <trkpt lat="46.03287" lon="1.56855">
        <ele>680.908</ele>
        <time>2020-02-14T23:53:52Z</time>
      </trkpt>
      <trkpt lat="46.0347" lon="1.56881">
        <ele>681.808</ele>
        <time>2020-02-14T23:54:12Z</time>
      </trkpt>
      <trkpt lat="46.03574" lon="1.5693">
        <ele>669.471</ele>
        <time>2020-02-14T23:54:32Z</time>
      </trkpt>
      <trkpt lat="46.03738" lon="1.5696">
        <ele>653.125</ele>
        <time>2020-02-14T23:54:52Z</time>
      </trkpt>
      <trkpt lat="46.03799" lon="1.5695">
        <ele>656.262</ele>
        <time>2020-02-14T23:55:12Z</time>
      </trkpt>
      <trkpt lat="46.03837" lon="1.56972">
        <ele>648.275</ele>
        <time>2020-02-14T23:55:32Z</time>
      </trkpt>
      <trkpt lat="46.03866" lon="1.572">
        <ele>643.066</ele>
        <time>2020-02-14T23:55:52Z</time>
      </trkpt>
      <trkpt lat="46.03941" lon="1.57394">
        <ele>647.739</ele>
        <time>2020-02-14T23:56:12Z</time>
      </trkpt>
      <trkpt lat="46.04039" lon="1.57602">
        <ele>660.595</ele>
        <time>2020-02-14T23:56:32Z</time>
      </trkpt>
      <trkpt lat="46.04077" lon="1.57672">
        <ele>663.069</ele>
        <time>2020-02-14T23:56:52Z</time>
      </trkpt>
      <trkpt lat="46.04115" lon="1.57853">
        <ele>666.892</ele>
        <time>2020-02-14T23:57:12Z</time>
      </trkpt>
      <trkpt lat="46.0408" lon="1.57977">
        <ele>670.873</ele>
        <time>2020-02-14T23:57:32Z</time>
      </trkpt>
      <trkpt lat="46.04036" lon="1.58047">
        <ele>668.02</ele>
        <time>2020-02-14T23:57:52Z</time>
      </trkpt>
      <trkpt lat="46.03977" lon="1.58251">
        <ele>672.608</ele>
        <time>2020-02-14T23:58:12Z</time>
      </trkpt>
      <trkpt lat="46.03969" lon="1.58311">
        <ele>670.475</ele>
        <time>2020-02-14T23:58:32Z</time>
      </trkpt>
      <trkpt lat="46.03834" lon="1.58269">
        <ele>663.159</ele>
        <time>2020-02-14T23:58:52Z</time>
      </trkpt>
      <trkpt lat="46.03765" lon="1.58225">
        <ele>651.536</ele>
        <time>2020-02-14T23:59:12Z</time>
      </trkpt>
      <trkpt lat="46.03695" lon="1.58353">
        <ele>642.549</ele>
        <time>2020-02-14T23:59:32Z</time>
      </trkpt>
      <trkpt lat="46.03698" lon="1.58425">
        <ele>637.68</ele>
        <time>2020-02-14T23:59:52Z</time>
      </trkpt>
      <trkpt lat="46.03758" lon="1.58441">
        <ele>631.743</ele>
        <time>2020-02-15T00:00:12Z</time>
      </trkpt>
      <trkpt lat="46.03765" lon="1.58489">
        <ele>627.619</ele>
        <time>2020-02-15T00:00:32Z</time>
      </trkpt>
      <trkpt lat="46.03701" lon="1.58665">
        <ele>616.463</ele>
        <time>2020-02-15T00:00:52Z</time>
      </trkpt>
      <trkpt lat="46.03642" lon="1.58805">
        <ele>616.144</ele>
        <time>2020-02-15T00:01:12Z</time>
      </trkpt>
      <trkpt lat="46.03652" lon="1.5889">
        <ele>611.805</ele>
        <time>2020-02-15T00:01:32Z</time>
      </trkpt>
      <trkpt lat="46.0364" lon="1.5891">
        <ele>607.115</ele>
        <time>2020-02-15T00:01:52Z</time>
      </trkpt>
      <trkpt lat="46.03538" lon="1.58858">
        <ele>594.408</ele>
        <time>2020-02-15T00:02:12Z</time>
      </trkpt>
      <trkpt lat="46.03473" lon="1.5883">
        <ele>585.99</ele>
        <time>2020-02-15T00:02:32Z</time>
      </trkpt>
      <trkpt lat="46.03449" lon="1.5884">
        <ele>584.024</ele>
        <time>2020-02-15T00:02:52Z</time>
      </trkpt>
      <trkpt lat="46.03399" lon="1.58807">
        <ele>573.711</ele>
        <time>2020-02-15T00:03:12Z</time>
      </trkpt>
      <trkpt lat="46.03352" lon="1.5882">
        <ele>564.714</ele>
        <time>2020-02-15T00:03:32Z</time>
      </trkpt>
      <trkpt lat="46.03327" lon="1.58858">
        <ele>559.245</ele>
        <time>2020-02-15T00:03:52Z</time>
      </trkpt>
      <trkpt lat="46.03305" lon="1.58926">
        <ele>553.478</ele>
        <time>2020-02-15T00:04:12Z</time>
      </trkpt>
      <trkpt lat="46.03251" lon="1.59044">
        <ele>535.274</ele>
        <time>2020-02-15T00:04:32Z</time>
      </trkpt>
      <trkpt lat="46.03205" lon="1.5913">
        <ele>531.598</ele>
        <time>2020-02-15T00:04:52Z</time>
      </trkpt>
      <trkpt lat="46.02931" lon="1.59462">
        <ele>524.814</ele>
        <time>2020-02-15T00:05:12Z</time>
      </trkpt>
      <trkpt lat="46.02785" lon="1.59512">
        <ele>507.154</ele>
        <time>2020-02-15T00:05:32Z</time>
      </trkpt>
      <trkpt lat="46.02694" lon="1.5947">
        <ele>504.109</ele>
        <time>2020-02-15T00:05:52Z</time>
      </trkpt>
      <trkpt lat="46.02647" lon="1.59476">
        <ele>503.608</ele>
        <time>2020-02-15T00:06:12Z</time>
      </trkpt>
      <trkpt lat="46.02569" lon="1.59462">
        <ele>497.527</ele>
        <time>2020-02-15T00:06:32Z</time>
      </trkpt>
      <trkpt lat="46.02433" lon="1.59464">
        <ele>486.191</ele>
        <time>2020-02-15T00:06:52Z</time>
      </trkpt>
      <trkpt lat="46.02351" lon="1.59476">
        <ele>478.418</ele>
        <time>2020-02-15T00:07:12Z</time>
      </trkpt>
      <trkpt lat="46.02204" lon="1.59454">
        <ele>480.791</ele>
        <time>2020-02-15T00:07:32Z</time>
      </trkpt>
      <trkpt lat="46.02108" lon="1.59484">
        <ele>486.022</ele>
        <time>2020-02-15T00:07:52Z</time>
      </trkpt>
      <trkpt lat="46.01934" lon="1.59602">
        <ele>494.595</ele>
        <time>2020-02-15T00:08:12Z</time>
      </trkpt>
      <trkpt lat="46.01881" lon="1.59646">
        <ele>497.151</ele>
        <time>2020-02-15T00:08:32Z</time>
      </trkpt>
      <trkpt lat="46.01792" lon="1.5966">
        <ele>499.865</ele>
        <time>2020-02-15T00:08:52Z</time>
      </trkpt>
      <trkpt lat="46.01507" lon="1.59793">
        <ele>506.536</ele>
        <time>2020-02-15T00:09:12Z</time>
      </trkpt>
      <trkpt lat="46.01271" lon="1.59939">
        <ele>503.717</ele>
        <time>2020-02-15T00:09:32Z</time>
      </trkpt>
      <trkpt lat="46.01219" lon="1.59949">
        <ele>504.118</ele>
        <time>2020-02-15T00:09:52Z</time>
      </trkpt>
      <trkpt lat="46.01128" lon="1.59963">
        <ele>503.708</ele>
        <time>2020-02-15T00:10:12Z</time>
      </trkpt>
      <trkpt lat="46.01089" lon="1.59959">
        <ele>498.419</ele>
        <time>2020-02-15T00:10:32Z</time>
      </trkpt>
      <trkpt lat="46.01061" lon="1.60011">
        <ele>491.423</ele>
        <time>2020-02-15T00:10:52Z</time>
      </trkpt>
      <trkpt lat="46.01061" lon="1.60092">
        <ele>490.92</ele>
        <time>2020-11-19T16:41:45Z</time>
      </trkpt>
      <trkpt lat="46.01019" lon="1.60167">
        <ele>485.543</ele>
        <time>2020-11-19T16:42:05Z</time>
      </trkpt>
      <trkpt lat="46.00958" lon="1.60206">
        <ele>481.014</ele>
        <time>2020-11-19T16:42:25Z</time>
      </trkpt>
      <trkpt lat="46.00915" lon="1.60188">
        <ele>476.447</ele>
        <time>2020-11-19T16:42:45Z</time>
      </trkpt>
      <trkpt lat="46.00792" lon="1.60239">
        <ele>470.563</ele>
        <time>2020-11-19T16:43:05Z</time>
      </trkpt>
      <trkpt lat="46.00764" lon="1.60219">
        <ele>468.497</ele>
        <time>2020-11-19T16:43:25Z</time>
      </trkpt>
      <trkpt lat="46.00654" lon="1.60219">
        <ele>466.896</ele>
        <time>2020-11-19T16:43:45Z</time>
      </trkpt>
      <trkpt lat="46.00495" lon="1.60292">
        <ele>461.931</ele>
        <time>2020-11-19T16:44:05Z</time>
      </trkpt>
      <trkpt lat="46.00388" lon="1.60312">
        <ele>460.724</ele>
        <time>2020-11-19T16:44:25Z</time>
      </trkpt>
      <trkpt lat="46.00242" lon="1.60453">
        <ele>450.808</ele>
        <time>2020-11-19T16:44:45Z</time>
      </trkpt>
      <trkpt lat="46.00192" lon="1.60541">
        <ele>446.945</ele>
        <time>2020-11-19T16:45:05Z</time>
      </trkpt>
      <trkpt lat="46.00153" lon="1.60564">
        <ele>439.329</ele>
        <time>2020-11-19T16:45:25Z</time>
      </trkpt>
      <trkpt lat="46.00104" lon="1.60572">
        <ele>432.436</ele>
        <time>2020-11-19T16:45:45Z</time>
      </trkpt>
      <trkpt lat="46.00045" lon="1.60514">
        <ele>428.169</ele>
        <time>2020-11-19T16:46:05Z</time>
      </trkpt>
      <trkpt lat="46.00007" lon="1.6044">
        <ele>421.61</ele>
        <time>2020-11-19T16:46:25Z</time>
      </trkpt>
      <trkpt lat="45.99961" lon="1.60406">
        <ele>411.573</ele>
        <time>2020-11-19T16:46:45Z</time>
      </trkpt>
      <trkpt lat="45.99928" lon="1.60362">
        <ele>407.469</ele>
        <time>2020-11-19T16:47:05Z</time>
      </trkpt>
      <trkpt lat="45.99916" lon="1.60395">
        <ele>406.523</ele>
        <time>2020-11-19T16:47:25Z</time>
      </trkpt>
      <trkpt lat="45.9992" lon="1.60647">
        <ele>395.757</ele>
        <time>2020-11-19T16:47:45Z</time>
      </trkpt>
      <trkpt lat="45.99936" lon="1.60699">
        <ele>392</ele>
        <time>2020-11-19T16:48:05Z</time>
      </trkpt>
      <trkpt lat="45.99918" lon="1.60803">
        <ele>387.02</ele>
        <time>2020-11-19T16:48:25Z</time>
      </trkpt>
      <trkpt lat="45.99934" lon="1.6087">
        <ele>385.308</ele>
        <time>2020-11-19T16:48:45Z</time>
      </trkpt>
      <trkpt lat="46.00031" lon="1.61032">
        <ele>390.771</ele>
        <time>2020-11-19T16:49:05Z</time>
      </trkpt>
      <trkpt lat="46.00042" lon="1.61066">
        <ele>391.465</ele>
        <time>2020-11-19T16:49:25Z</time>
      </trkpt>
      <trkpt lat="46.00073" lon="1.61105">
        <ele>389.172</ele>
        <time>2020-11-19T16:49:45Z</time>
      </trkpt>
      <trkpt lat="46.0007" lon="1.61244">
        <ele>395.255</ele>
        <time>2020-11-19T16:50:05Z</time>
      </trkpt>
      <trkpt lat="46.00088" lon="1.61356">
        <ele>395.466</ele>
        <time>2020-11-19T16:50:25Z</time>
      </trkpt>
      <trkpt lat="46.00165" lon="1.61473">
        <ele>372.929</ele>
        <time>2020-11-19T16:50:45Z</time>
      </trkpt>
      <trkpt lat="46.00158" lon="1.61496">
        <ele>367.895</ele>
        <time>2020-11-19T16:51:05Z</time>
      </trkpt>
      <trkpt lat="46.00082" lon="1.61479">
        <ele>357.619</ele>
        <time>2020-11-19T16:51:25Z</time>
      </trkpt>
      <trkpt lat="46.00031" lon="1.61463">
        <ele>349.038</ele>
        <time>2020-11-19T16:51:45Z</time>
      </trkpt>
      <trkpt lat="45.99911" lon="1.61408">
        <ele>353.17</ele>
        <time>2020-11-19T16:52:05Z</time>
      </trkpt>
      <trkpt lat="45.99861" lon="1.61398">
        <ele>349.917</ele>
        <time>2020-11-19T16:52:25Z</time>
      </trkpt>
      <trkpt lat="45.99838" lon="1.61383">
        <ele>348.908</ele>
        <time>2020-11-19T16:52:45Z</time>
      </trkpt>
      <trkpt lat="45.99794" lon="1.61364">
        <ele>346.559</ele>
        <time>2020-11-19T16:53:05Z</time>
      </trkpt>
      <trkpt lat="45.99735" lon="1.6128">
        <ele>346.983</ele>
        <time>2020-11-19T16:53:25Z</time>
      </trkpt>
      <trkpt lat="45.99703" lon="1.61214">
        <ele>346.24</ele>
        <time>2020-11-19T16:53:45Z</time>
      </trkpt>
      <trkpt lat="45.99693" lon="1.61179">
        <ele>349.083</ele>
        <time>2020-11-19T16:54:05Z</time>
      </trkpt>
      <trkpt lat="45.99665" lon="1.61136">
        <ele>350.324</ele>
        <time>2020-11-19T16:54:25Z</time>
      </trkpt>
      <trkpt lat="45.99581" lon="1.61068">
        <ele>341.897</ele>
        <time>2020-01-15T11:38:20Z</time>
      </trkpt>
      <trkpt lat="45.99567" lon="1.61029">
        <ele>345.143</ele>
        <time>2020-01-15T11:38:40Z</time>
      </trkpt>
      <trkpt lat="45.99535" lon="1.61003">
        <ele>340.637</ele>
        <time>2020-01-15T11:39:00Z</time>
      </trkpt>
      <trkpt lat="45.99492" lon="1.60907">
        <ele>340.963</ele>
        <time>2020-01-15T11:39:20Z</time>
      </trkpt>
      <trkpt lat="45.99461" lon="1.60787">
        <ele>338.844</ele>
        <time>2020-01-15T11:39:40Z</time>
      </trkpt>
      <trkpt lat="45.99404" lon="1.60847">
        <ele>329.418</ele>
        <time>2020-01-15T11:40:00Z</time>
      </trkpt>
      <trkpt lat="45.99377" lon="1.60847">
        <ele>335.708</ele>
        <time>2020-01-15T11:40:20Z</time>
      </trkpt>
      <trkpt lat="45.99359" lon="1.60812">
        <ele>341.242</ele>
        <time>2020-01-15T11:40:40Z</time>
      </trkpt>
      <trkpt lat="45.99362" lon="1.60864">
        <ele>345.186</ele>
        <time>2020-01-15T11:41:00Z</time>
      </trkpt>
      <trkpt lat="45.99389" lon="1.60883">
        <ele>335.743</ele>
        <time>2020-01-15T11:41:20Z</time>
      </trkpt>
      <trkpt lat="45.99403" lon="1.60956">
        <ele>345.876</ele>
        <time>2020-01-15T11:41:40Z</time>
      </trkpt>
      <trkpt lat="45.99398" lon="1.61029">
        <ele>357.277</ele>
        <time>2020-01-15T11:42:00Z</time>
      </trkpt>
      <trkpt lat="45.99422" lon="1.61029">
        <ele>350.19</ele>
        <time>2020-01-15T11:42:20Z</time>
      </trkpt>
      <trkpt lat="45.9944" lon="1.61063">
        <ele>353.256</ele>
        <time>2020-01-15T11:42:40Z</time>
      </trkpt>
      <trkpt lat="45.99504" lon="1.61259">
        <ele>382.21</ele>
        <time>2020-01-15T11:43:00Z</time>
      </trkpt>
      <trkpt lat="45.99508" lon="1.61488">
        <ele>397.011</ele>
        <time>2020-01-15T11:43:20Z</time>
      </trkpt>
      <trkpt lat="45.99488" lon="1.61563">
        <ele>394.621</ele>
        <time>2020-01-15T11:43:40Z</time>
      </trkpt>
      <trkpt lat="45.99471" lon="1.61679">
        <ele>398.703</ele>
        <time>2020-01-15T11:44:00Z</time>
      </trkpt>
      <trkpt lat="45.99468" lon="1.61799">
        <ele>412.508</ele>
        <time>2020-01-15T11:44:20Z</time>
      </trkpt>
      <trkpt lat="45.99555" lon="1.62096">
        <ele>440.777</ele>
        <time>2020-01-15T11:44:40Z</time>
      </trkpt>
      <trkpt lat="45.99616" lon="1.62173">
        <ele>454.421</ele>
        <time>2020-01-15T11:45:00Z</time>
      </trkpt>
      <trkpt lat="45.99675" lon="1.62196">
        <ele>461.428</ele>
        <time>2020-01-15T11:45:20Z</time>
      </trkpt>
      <trkpt lat="45.99713" lon="1.62236">
        <ele>459.541</ele>
        <time>2020-01-15T11:45:40Z</time>
      </trkpt>
      <trkpt lat="45.9969" lon="1.62287">
        <ele>454.312</ele>
        <time>2020-01-15T11:46:00Z</time>
      </trkpt>
      <trkpt lat="45.9972" lon="1.62284">
        <ele>459.825</ele>
        <time>2020-01-15T11:46:20Z</time>
      </trkpt>
      <trkpt lat="45.99826" lon="1.62325">
        <ele>479.311</ele>
        <time>2020-01-15T11:46:40Z</time>
      </trkpt>
      <trkpt lat="45.99971" lon="1.62345">
        <ele>486.235</ele>
        <time>2017-03-24T10:13:26Z</time>
      </trkpt>
      <trkpt lat="46.00005" lon="1.62276">
        <ele>485.159</ele>
        <time>2017-03-24T10:13:46Z</time>
      </trkpt>
      <trkpt lat="46.00015" lon="1.62342">
        <ele>492.303</ele>
        <time>2017-03-24T10:14:06Z</time>
      </trkpt>
      <trkpt lat="45.99982" lon="1.62384">
        <ele>491.823</ele>
        <time>2017-03-24T10:14:26Z</time>
      </trkpt>
      <trkpt lat="45.99959" lon="1.62439">
        <ele>497.308</ele>
        <time>2017-03-24T10:14:46Z</time>
      </trkpt>
      <trkpt lat="45.99943" lon="1.62503">
        <ele>502.891</ele>
        <time>2017-03-24T10:15:06Z</time>
      </trkpt>
      <trkpt lat="45.9987" lon="1.62688">
        <ele>519.865</ele>
        <time>2017-03-24T10:15:26Z</time>
      </trkpt>
      <trkpt lat="45.99844" lon="1.62724">
        <ele>516.252</ele>
        <time>2017-03-24T10:15:46Z</time>
      </trkpt>
      <trkpt lat="45.99865" lon="1.62814">
        <ele>516.435</ele>
        <time>2017-03-24T10:16:06Z</time>
      </trkpt>
      <trkpt lat="45.99891" lon="1.62858">
        <ele>521.426</ele>
        <time>2017-03-24T10:16:26Z</time>
      </trkpt>
      <trkpt lat="45.99907" lon="1.62961">
        <ele>521.459</ele>
        <time>2017-03-24T10:16:46Z</time>
      </trkpt>
      <trkpt lat="45.999" lon="1.63025">
        <ele>512.995</ele>
        <time>2017-03-24T10:17:06Z</time>
      </trkpt>
      <trkpt lat="45.99916" lon="1.63127">
        <ele>505.789</ele>
        <time>2017-03-24T10:17:26Z</time>
      </trkpt>
      <trkpt lat="45.99972" lon="1.63175">
        <ele>511.084</ele>
        <time>2017-03-24T10:17:46Z</time>
      </trkpt>
      <trkpt lat="45.9998" lon="1.63252">
        <ele>506.607</ele>
        <time>2017-03-24T10:18:06Z</time>
      </trkpt>
      <trkpt lat="46.00005" lon="1.63309">
        <ele>515.017</ele>
        <time>2017-03-24T10:18:26Z</time>
      </trkpt>
      <trkpt lat="46.00014" lon="1.63374">
        <ele>517.008</ele>
        <time>2017-03-24T10:18:46Z</time>
      </trkpt>
      <trkpt lat="46.00039" lon="1.63414">
        <ele>521.554</ele>
        <time>2017-03-24T10:19:06Z</time>
      </trkpt>
      <trkpt lat="46.00051" lon="1.63513">
        <ele>527.298</ele>
        <time>2017-03-24T10:19:26Z</time>
      </trkpt>
      <trkpt lat="46.00024" lon="1.63546">
        <ele>526.935</ele>
        <time>2017-03-24T10:19:46Z</time>
      </trkpt>
      <trkpt lat="46.00023" lon="1.63619">
        <ele>532.268</ele>
        <time>2017-03-24T10:20:06Z</time>
      </trkpt>
      <trkpt lat="45.9998" lon="1.63702">
        <ele>537.619</ele>
        <time>2017-03-24T10:20:26Z</time>
      </trkpt>
      <trkpt lat="45.99938" lon="1.63757">
        <ele>539.562</ele>
        <time>2017-03-24T10:20:46Z</time>
      </trkpt>
      <trkpt lat="45.9996" lon="1.63764">
        <ele>540.838</ele>
        <time>2017-03-24T10:21:06Z</time>
      </trkpt>
      <trkpt lat="46.0001" lon="1.63759">
        <ele>550.162</ele>
        <time>2017-03-24T10:21:26Z</time>
      </trkpt>
      <trkpt lat="45.99994" lon="1.63837">
        <ele>556.226</ele>
        <time>2017-03-24T10:21:46Z</time>
      </trkpt>
      <trkpt lat="46.0002" lon="1.63942">
        <ele>566.447</ele>
        <time>2017-03-24T10:22:06Z</time>
      </trkpt>
      <trkpt lat="46.00025" lon="1.64073">
        <ele>579.111</ele>
        <time>2017-03-24T10:22:26Z</time>
      </trkpt>
      <trkpt lat="46.00038" lon="1.64206">
        <ele>588.908</ele>
        <time>2017-03-24T10:22:46Z</time>
      </trkpt>
      <trkpt lat="46.00031" lon="1.6428">
        <ele>590.958</ele>
        <time>2017-03-24T10:23:06Z</time>
      </trkpt>
      <trkpt lat="46" lon="1.64368">
        <ele>597.862</ele>
        <time>2017-03-24T10:23:26Z</time>
      </trkpt>
      <trkpt lat="45.99976" lon="1.64487">
        <ele>612.129</ele>
        <time>2017-03-24T10:23:46Z</time>
      </trkpt>
      <trkpt lat="45.99949" lon="1.64512">
        <ele>613.962</ele>
        <time>2017-03-24T10:24:06Z</time>
      </trkpt>
      <trkpt lat="45.99915" lon="1.64636">
        <ele>617.673</ele>
        <time>2017-03-24T10:24:26Z</time>
      </trkpt>
      <trkpt lat="45.99907" lon="1.6489">
        <ele>598.166</ele>
        <time>2017-03-24T10:24:46Z</time>
      </trkpt>
      <trkpt lat="45.99915" lon="1.64981">
        <ele>587.032</ele>
        <time>2017-03-24T10:25:06Z</time>
      </trkpt>
      <trkpt lat="45.99903" lon="1.65067">
        <ele>573.646</ele>
        <time>2017-03-24T10:25:26Z</time>
      </trkpt>
      <trkpt lat="45.99793" lon="1.65261">
        <ele>562.952</ele>
        <time>2017-03-24T10:25:46Z</time>
      </trkpt>
      <trkpt lat="45.99664" lon="1.65349">
        <ele>554.653</ele>
        <time>2017-03-24T10:26:06Z</time>
      </trkpt>
      <trkpt lat="45.99644" lon="1.65398">
        <ele>547.408</ele>
        <time>2017-03-24T10:26:26Z</time>
      </trkpt>
      <trkpt lat="45.99658" lon="1.65438">
        <ele>547.508</ele>
        <time>2017-03-24T10:26:46Z</time>
      </trkpt>
      <trkpt lat="45.99634" lon="1.65494">
        <ele>541.861</ele>
        <time>2017-03-24T10:27:06Z</time>
      </trkpt>
      <trkpt lat="45.9955" lon="1.65552">
        <ele>535.715</ele>
        <time>2017-03-24T10:27:26Z</time>
      </trkpt>
      <trkpt lat="45.99474" lon="1.65562">
        <ele>535.482</ele>
        <time>2017-03-24T10:27:46Z</time>
      </trkpt>
      <trkpt lat="45.99394" lon="1.65591">
        <ele>538.055</ele>
        <time>2017-03-24T10:28:06Z</time>
      </trkpt>
      <trkpt lat="45.99324" lon="1.65601">
        <ele>537.886</ele>
        <time>2017-03-24T10:28:26Z</time>
      </trkpt>
      <trkpt lat="45.99286" lon="1.65586">
        <ele>539.089</ele>
        <time>2017-03-24T10:28:46Z</time>
      </trkpt>
      <trkpt lat="45.99313" lon="1.65625">
        <ele>542.955</ele>
        <time>2017-03-24T10:29:06Z</time>
      </trkpt>
      <trkpt lat="45.99482" lon="1.65691">
        <ele>557.249</ele>
        <time>2017-03-24T10:29:26Z</time>
      </trkpt>
      <trkpt lat="45.99554" lon="1.65712">
        <ele>561.969</ele>
        <time>2017-03-24T10:29:46Z</time>
      </trkpt>
      <trkpt lat="45.99645" lon="1.65793">
        <ele>570.404</ele>
        <time>2017-03-24T10:30:06Z</time>
      </trkpt>
      <trkpt lat="45.99772" lon="1.65824">
        <ele>579.724</ele>
        <time>2017-03-24T10:30:26Z</time>
      </trkpt>
      <trkpt lat="45.9986" lon="1.65894">
        <ele>581.708</ele>
        <time>2017-03-24T10:30:46Z</time>
      </trkpt>
      <trkpt lat="45.9996" lon="1.65993">
        <ele>583.442</ele>
        <time>2017-03-24T10:31:06Z</time>
      </trkpt>
      <trkpt lat="45.99858" lon="1.65988">
        <ele>593.516</ele>
        <time>2017-03-24T10:31:26Z</time>
      </trkpt>
      <trkpt lat="45.99792" lon="1.66009">
        <ele>593.373</ele>
        <time>2020-01-15T12:05:20Z</time>
      </trkpt>
      <trkpt lat="45.99754" lon="1.66037">
        <ele>593.976</ele>
        <time>2020-01-15T12:05:40Z</time>
      </trkpt>
      <trkpt lat="45.99728" lon="1.66037">
        <ele>592.947</ele>
        <time>2020-01-15T12:06:00Z</time>
      </trkpt>
      <trkpt lat="45.99646" lon="1.66065">
        <ele>595.58</ele>
        <time>2020-01-15T12:06:20Z</time>
      </trkpt>
      <trkpt lat="45.99572" lon="1.66033">
        <ele>600.396</ele>
        <time>2020-01-15T12:06:40Z</time>
      </trkpt>
      <trkpt lat="45.99471" lon="1.66042">
        <ele>616.42</ele>
        <time>2020-01-15T12:07:00Z</time>
      </trkpt>
      <trkpt lat="45.99453" lon="1.66093">
        <ele>620.141</ele>
        <time>2020-01-15T12:07:20Z</time>
      </trkpt>
      <trkpt lat="45.99337" lon="1.6637">
        <ele>624.581</ele>
        <time>2020-01-15T12:07:40Z</time>
      </trkpt>
      <trkpt lat="45.99225" lon="1.66462">
        <ele>635.709</ele>
        <time>2020-01-15T12:08:00Z</time>
      </trkpt>
      <trkpt lat="45.99158" lon="1.66471">
        <ele>634.208</ele>
        <time>2020-01-15T12:08:20Z</time>
      </trkpt>
      <trkpt lat="45.99109" lon="1.66585">
        <ele>637.94</ele>
        <time>2017-03-24T10:34:26Z</time>
      </trkpt>
      <trkpt lat="45.99069" lon="1.66684">
        <ele>636.364</ele>
        <time>2017-03-24T10:34:46Z</time>
      </trkpt>
      <trkpt lat="45.98994" lon="1.66816">
        <ele>625.221</ele>
        <time>2017-03-24T10:35:06Z</time>
      </trkpt>
      <trkpt lat="45.98944" lon="1.66977">
        <ele>624.664</ele>
        <time>2017-03-24T10:35:26Z</time>
      </trkpt>
      <trkpt lat="45.9885" lon="1.67121">
        <ele>602.865</ele>
        <time>2017-03-24T10:35:46Z</time>
      </trkpt>
      <trkpt lat="45.98803" lon="1.67159">
        <ele>594.558</ele>
        <time>2017-03-24T10:36:06Z</time>
      </trkpt>
      <trkpt lat="45.98761" lon="1.67222">
        <ele>594.444</ele>
        <time>2017-03-24T10:36:26Z</time>
      </trkpt>
      <trkpt lat="45.98776" lon="1.67269">
        <ele>593.518</ele>
        <time>2017-03-24T10:36:46Z</time>
      </trkpt>
      <trkpt lat="45.98906" lon="1.67406">
        <ele>575.015</ele>
        <time>2017-03-24T10:37:06Z</time>
      </trkpt>
      <trkpt lat="45.98939" lon="1.67458">
        <ele>573.065</ele>
        <time>2017-03-24T10:37:26Z</time>
      </trkpt>
      <trkpt lat="45.98967" lon="1.6751">
        <ele>572.911</ele>
        <time>2017-03-24T10:37:46Z</time>
      </trkpt>
      <trkpt lat="45.99014" lon="1.67529">
        <ele>571.108</ele>
        <time>2017-03-24T10:38:06Z</time>
      </trkpt>
      <trkpt lat="45.99076" lon="1.67528">
        <ele>568.587</ele>
        <time>2017-03-24T10:38:26Z</time>
      </trkpt>
      <trkpt lat="45.99139" lon="1.67557">
        <ele>566.191</ele>
        <time>2017-03-24T10:38:46Z</time>
      </trkpt>
      <trkpt lat="45.99179" lon="1.67625">
        <ele>564.958</ele>
        <time>2017-03-24T10:39:06Z</time>
      </trkpt>
      <trkpt lat="45.99212" lon="1.67724">
        <ele>560.941</ele>
        <time>2017-03-24T10:39:26Z</time>
      </trkpt>
      <trkpt lat="45.99209" lon="1.67752">
        <ele>558.732</ele>
        <time>2020-01-15T12:14:00Z</time>
      </trkpt>
      <trkpt lat="45.99161" lon="1.67707">
        <ele>563.255</ele>
        <time>2020-01-15T12:14:20Z</time>
      </trkpt>
      <trkpt lat="45.99155" lon="1.67775">
        <ele>552.841</ele>
        <time>2020-01-15T12:14:40Z</time>
      </trkpt>
      <trkpt lat="45.99189" lon="1.6779">
        <ele>551.715</ele>
        <time>2020-01-15T12:15:00Z</time>
      </trkpt>
      <trkpt lat="45.992" lon="1.67827">
        <ele>550.154</ele>
        <time>2020-01-15T12:15:20Z</time>
      </trkpt>
      <trkpt lat="45.99245" lon="1.67892">
        <ele>543.656</ele>
        <time>2017-03-24T10:40:06Z</time>
      </trkpt>
      <trkpt lat="45.99311" lon="1.68037">
        <ele>523.711</ele>
        <time>2017-03-24T10:40:26Z</time>
      </trkpt>
      <trkpt lat="45.99358" lon="1.68103">
        <ele>518.108</ele>
        <time>2017-03-24T10:40:46Z</time>
      </trkpt>
      <trkpt lat="45.99368" lon="1.68177">
        <ele>508.741</ele>
        <time>2017-03-24T10:41:06Z</time>
      </trkpt>
      <trkpt lat="45.99311" lon="1.68278">
        <ele>495.115</ele>
        <time>2017-03-24T10:41:26Z</time>
      </trkpt>
      <trkpt lat="45.99301" lon="1.68366">
        <ele>491.522</ele>
        <time>2017-03-24T10:41:46Z</time>
      </trkpt>
      <trkpt lat="45.99328" lon="1.68454">
        <ele>493.515</ele>
        <time>2017-03-24T10:42:06Z</time>
      </trkpt>
      <trkpt lat="45.99332" lon="1.68524">
        <ele>491.116</ele>
        <time>2017-03-24T10:42:26Z</time>
      </trkpt>
      <trkpt lat="45.99376" lon="1.68634">
        <ele>487.159</ele>
        <time>2017-03-24T10:42:46Z</time>
      </trkpt>
      <trkpt lat="45.994" lon="1.68796">
        <ele>488.695</ele>
        <time>2017-03-24T10:43:06Z</time>
      </trkpt>
      <trkpt lat="45.99405" lon="1.6887">
        <ele>486.249</ele>
        <time>2017-03-24T10:43:26Z</time>
      </trkpt>
      <trkpt lat="45.99432" lon="1.69065">
        <ele>476.849</ele>
        <time>2017-03-24T10:43:46Z</time>
      </trkpt>
      <trkpt lat="45.99409" lon="1.69168">
        <ele>469.502</ele>
        <time>2017-03-24T10:44:06Z</time>
      </trkpt>
      <trkpt lat="45.99364" lon="1.69284">
        <ele>462.022</ele>
        <time>2017-03-24T10:44:26Z</time>
      </trkpt>
      <trkpt lat="45.9934" lon="1.69411">
        <ele>449.508</ele>
        <time>2020-01-15T12:20:20Z</time>
      </trkpt>
      <trkpt lat="45.99315" lon="1.69509">
        <ele>441.61</ele>
        <time>2020-01-15T12:20:40Z</time>
      </trkpt>
      <trkpt lat="45.99321" lon="1.69583">
        <ele>432.474</ele>
        <time>2017-03-24T10:45:26Z</time>
      </trkpt>
      <trkpt lat="45.99385" lon="1.697">
        <ele>421.131</ele>
        <time>2017-03-24T10:45:46Z</time>
      </trkpt>
      <trkpt lat="45.99456" lon="1.69908">
        <ele>415.864</ele>
        <time>2017-03-24T10:46:06Z</time>
      </trkpt>
      <trkpt lat="45.99466" lon="1.70085">
        <ele>402.815</ele>
        <time>2017-03-24T10:46:26Z</time>
      </trkpt>
      <trkpt lat="45.99464" lon="1.70188">
        <ele>398.278</ele>
        <time>2017-03-24T10:46:46Z</time>
      </trkpt>
      <trkpt lat="45.99481" lon="1.70239">
        <ele>394.014</ele>
        <time>2017-03-24T10:47:06Z</time>
      </trkpt>
      <trkpt lat="45.99493" lon="1.70408">
        <ele>381.898</ele>
        <time>2017-03-24T10:47:26Z</time>
      </trkpt>
      <trkpt lat="45.99501" lon="1.70454">
        <ele>379.591</ele>
        <time>2017-03-24T10:47:46Z</time>
      </trkpt>
      <trkpt lat="45.99485" lon="1.7054">
        <ele>380.081</ele>
        <time>2017-03-24T10:48:06Z</time>
      </trkpt>
      <trkpt lat="45.99486" lon="1.70572">
        <ele>382.319</ele>
        <time>2017-03-24T10:48:26Z</time>
      </trkpt>
      <trkpt lat="45.99383" lon="1.70569">
        <ele>383.608</ele>
        <time>2017-03-24T10:48:46Z</time>
      </trkpt>
      <trkpt lat="45.99336" lon="1.7059">
        <ele>385.585</ele>
        <time>2017-03-24T10:49:06Z</time>
      </trkpt>
      <trkpt lat="45.99301" lon="1.70619">
        <ele>387.119</ele>
        <time>2017-03-24T10:49:26Z</time>
      </trkpt>
      <trkpt lat="45.99209" lon="1.70636">
        <ele>392.226</ele>
        <time>2017-03-24T10:49:46Z</time>
      </trkpt>
      <trkpt lat="45.99115" lon="1.70611">
        <ele>386.179</ele>
        <time>2017-03-24T10:50:06Z</time>
      </trkpt>
      <trkpt lat="45.9906" lon="1.70616">
        <ele>387.23</ele>
        <time>2017-03-24T10:50:26Z</time>
      </trkpt>
      <trkpt lat="45.99041" lon="1.70597">
        <ele>386.023</ele>
        <time>2017-03-24T10:50:46Z</time>
      </trkpt>
      <trkpt lat="45.99028" lon="1.7052">
        <ele>383.489</ele>
        <time>2017-03-24T10:51:06Z</time>
      </trkpt>
      <trkpt lat="45.98964" lon="1.70586">
        <ele>382.483</ele>
        <time>2020-11-19T17:43:25Z</time>
      </trkpt>
      <trkpt lat="45.98903" lon="1.70679">
        <ele>382.922</ele>
        <time>2020-11-19T17:43:45Z</time>
      </trkpt>
      <trkpt lat="45.9887" lon="1.70703">
        <ele>383.162</ele>
        <time>2020-11-19T17:44:05Z</time>
      </trkpt>
      <trkpt lat="45.98835" lon="1.70703">
        <ele>385.608</ele>
        <time>2020-11-19T17:44:25Z</time>
      </trkpt>
      <trkpt lat="45.9879" lon="1.70671">
        <ele>385.208</ele>
        <time>2020-11-19T17:44:45Z</time>
      </trkpt>
      <trkpt lat="45.98707" lon="1.7065">
        <ele>387.758</ele>
        <time>2020-11-19T17:45:05Z</time>
      </trkpt>
      <trkpt lat="45.98672" lon="1.70657">
        <ele>386.332</ele>
        <time>2020-01-15T12:28:40Z</time>
      </trkpt>
      <trkpt lat="45.98618" lon="1.70711">
        <ele>387.689</ele>
        <time>2020-01-15T12:29:00Z</time>
      </trkpt>
      <trkpt lat="45.98608" lon="1.70786">
        <ele>390.022</ele>
        <time>2020-01-15T12:29:20Z</time>
      </trkpt>
      <trkpt lat="45.98486" lon="1.71211">
        <ele>405.193</ele>
        <time>2017-03-24T10:54:26Z</time>
      </trkpt>
      <trkpt lat="45.98413" lon="1.7148">
        <ele>415.566</ele>
        <time>2017-03-24T10:54:46Z</time>
      </trkpt>
      <trkpt lat="45.98413" lon="1.71658">
        <ele>423.022</ele>
        <time>2017-03-24T10:55:06Z</time>
      </trkpt>
      <trkpt lat="45.98336" lon="1.71891">
        <ele>426.696</ele>
        <time>2017-03-24T10:55:26Z</time>
      </trkpt>
      <trkpt lat="45.98314" lon="1.7201">
        <ele>431.483</ele>
        <time>2017-03-24T10:55:46Z</time>
      </trkpt>
      <trkpt lat="45.98281" lon="1.72106">
        <ele>437.725</ele>
        <time>2017-03-24T10:56:06Z</time>
      </trkpt>
      <trkpt lat="45.98266" lon="1.72344">
        <ele>443.217</ele>
        <time>2017-03-24T10:56:26Z</time>
      </trkpt>
      <trkpt lat="45.98274" lon="1.72409">
        <ele>446.908</ele>
        <time>2017-03-24T10:56:46Z</time>
      </trkpt>
      <trkpt lat="45.98135" lon="1.72613">
        <ele>446.544</ele>
        <time>2017-03-24T10:57:06Z</time>
      </trkpt>
      <trkpt lat="45.98107" lon="1.72709">
        <ele>445.288</ele>
        <time>2017-03-24T10:57:26Z</time>
      </trkpt>
      <trkpt lat="45.9803" lon="1.72797">
        <ele>433.695</ele>
        <time>2017-03-24T10:57:46Z</time>
      </trkpt>
      <trkpt lat="45.9786" lon="1.73095">
        <ele>434.398</ele>
        <time>2017-03-24T10:58:06Z</time>
      </trkpt>
      <trkpt lat="45.97809" lon="1.73198">
        <ele>431.059</ele>
        <time>2017-03-24T10:58:26Z</time>
      </trkpt>
      <trkpt lat="45.97723" lon="1.73347">
        <ele>434.472</ele>
        <time>2017-03-24T10:58:46Z</time>
      </trkpt>
      <trkpt lat="45.97633" lon="1.73589">
        <ele>441.778</ele>
        <time>2017-03-24T10:59:06Z</time>
      </trkpt>
      <trkpt lat="45.97602" lon="1.73697">
        <ele>443.792</ele>
        <time>2017-03-24T10:59:26Z</time>
      </trkpt>
      <trkpt lat="45.9759" lon="1.73816">
        <ele>445.363</ele>
        <time>2017-03-24T10:59:46Z</time>
      </trkpt>
      <trkpt lat="45.97589" lon="1.7392">
        <ele>443.844</ele>
        <time>2017-03-24T11:00:06Z</time>
      </trkpt>
      <trkpt lat="45.9759" lon="1.73993">
        <ele>442.818</ele>
        <time>2017-03-24T11:00:26Z</time>
      </trkpt>
      <trkpt lat="45.9754" lon="1.73955">
        <ele>443.508</ele>
        <time>2017-03-24T11:00:46Z</time>
      </trkpt>
      <trkpt lat="45.97452" lon="1.73861">
        <ele>444.632</ele>
        <time>2017-03-24T11:01:06Z</time>
      </trkpt>
      <trkpt lat="45.97234" lon="1.73717">
        <ele>437.646</ele>
        <time>2017-03-24T11:01:26Z</time>
      </trkpt>
      <trkpt lat="45.97149" lon="1.73811">
        <ele>433.053</ele>
        <time>2017-03-24T11:01:46Z</time>
      </trkpt>
      <trkpt lat="45.96922" lon="1.73828">
        <ele>428.336</ele>
        <time>2017-03-24T11:02:06Z</time>
      </trkpt>
      <trkpt lat="45.9666" lon="1.74012">
        <ele>421.427</ele>
        <time>2017-03-24T11:02:26Z</time>
      </trkpt>
      <trkpt lat="45.96648" lon="1.74045">
        <ele>419.82</ele>
        <time>2017-03-24T11:02:46Z</time>
      </trkpt>
      <trkpt lat="45.96674" lon="1.74098">
        <ele>420.946</ele>
        <time>2017-03-24T11:03:06Z</time>
      </trkpt>
      <trkpt lat="45.96606" lon="1.74137">
        <ele>410.58</ele>
        <time>2017-03-24T11:03:26Z</time>
      </trkpt>
      <trkpt lat="45.96606" lon="1.74157">
        <ele>408.781</ele>
        <time>2017-03-24T11:03:46Z</time>
      </trkpt>
      <trkpt lat="45.96623" lon="1.74175">
        <ele>410.661</ele>
        <time>2017-03-24T11:04:06Z</time>
      </trkpt>
      <trkpt lat="45.96614" lon="1.74192">
        <ele>406.817</ele>
        <time>2017-03-24T11:04:26Z</time>
      </trkpt>
      <trkpt lat="45.96565" lon="1.74192">
        <ele>395.208</ele>
        <time>2017-03-24T11:04:46Z</time>
      </trkpt>
      <trkpt lat="45.9655" lon="1.74156">
        <ele>394.884</ele>
        <time>2017-03-24T11:05:06Z</time>
      </trkpt>
      <trkpt lat="45.96533" lon="1.74234">
        <ele>387.678</ele>
        <time>2017-03-24T11:05:26Z</time>
      </trkpt>
      <trkpt lat="45.96468" lon="1.74193">
        <ele>388.075</ele>
        <time>2017-03-24T11:05:46Z</time>
      </trkpt>
      <trkpt lat="45.96442" lon="1.74239">
        <ele>389.848</ele>
        <time>2017-03-24T11:06:06Z</time>
      </trkpt>
      <trkpt lat="45.9643" lon="1.74282">
        <ele>391.579</ele>
        <time>2017-03-24T11:06:26Z</time>
      </trkpt>
      <trkpt lat="45.96381" lon="1.7428">
        <ele>394.262</ele>
        <time>2017-03-24T11:06:46Z</time>
      </trkpt>
      <trkpt lat="45.96342" lon="1.74323">
        <ele>397.218</ele>
        <time>2017-03-24T11:07:06Z</time>
      </trkpt>
      <trkpt lat="45.96273" lon="1.74454">
        <ele>407.272</ele>
        <time>2017-03-24T11:07:26Z</time>
      </trkpt>
      <trkpt lat="45.96054" lon="1.74521">
        <ele>418.821</ele>
        <time>2017-03-24T11:07:46Z</time>
      </trkpt>
      <trkpt lat="45.96011" lon="1.74511">
        <ele>420.541</ele>
        <time>2017-03-24T11:08:06Z</time>
      </trkpt>
      <trkpt lat="45.95935" lon="1.74547">
        <ele>431.505</ele>
        <time>2017-03-24T11:08:26Z</time>
      </trkpt>
      <trkpt lat="45.95864" lon="1.74606">
        <ele>435.708</ele>
        <time>2017-03-24T11:08:46Z</time>
      </trkpt>
      <trkpt lat="45.95778" lon="1.74705">
        <ele>441.058</ele>
        <time>2017-03-24T11:09:06Z</time>
      </trkpt>
      <trkpt lat="45.95728" lon="1.74764">
        <ele>442.572</ele>
        <time>2020-01-15T12:44:40Z</time>
      </trkpt>
      <trkpt lat="45.95659" lon="1.74927">
        <ele>447.089</ele>
        <time>2020-11-19T18:01:45Z</time>
      </trkpt>
      <trkpt lat="45.95612" lon="1.74976">
        <ele>446.992</ele>
        <time>2020-11-19T18:02:05Z</time>
      </trkpt>
      <trkpt lat="45.95521" lon="1.75033">
        <ele>450.433</ele>
        <time>2020-11-19T18:02:25Z</time>
      </trkpt>
      <trkpt lat="45.95443" lon="1.75126">
        <ele>453.996</ele>
        <time>2020-11-19T18:02:45Z</time>
      </trkpt>
      <trkpt lat="45.9535" lon="1.75157">
        <ele>445.272</ele>
        <time>2020-11-19T18:03:05Z</time>
      </trkpt>
      <trkpt lat="45.95365" lon="1.755">
        <ele>442.376</ele>
        <time>2017-03-24T11:11:46Z</time>
      </trkpt>
      <trkpt lat="45.95348" lon="1.75709">
        <ele>448.351</ele>
        <time>2017-03-24T11:12:06Z</time>
      </trkpt>
      <trkpt lat="45.95209" lon="1.75695">
        <ele>448.001</ele>
        <time>2020-01-15T12:48:20Z</time>
      </trkpt>
      <trkpt lat="45.95161" lon="1.75774">
        <ele>450.211</ele>
        <time>2020-01-15T12:48:40Z</time>
      </trkpt>
      <trkpt lat="45.95132" lon="1.75858">
        <ele>451.308</ele>
        <time>2020-01-15T12:49:00Z</time>
      </trkpt>
      <trkpt lat="45.95099" lon="1.75836">
        <ele>452.041</ele>
        <time>2020-01-15T12:49:20Z</time>
      </trkpt>
      <trkpt lat="45.9507" lon="1.75835">
        <ele>451.525</ele>
        <time>2020-01-15T12:49:40Z</time>
      </trkpt>
      <trkpt lat="45.95034" lon="1.75858">
        <ele>451.032</ele>
        <time>2020-01-15T12:50:00Z</time>
      </trkpt>
      <trkpt lat="45.95005" lon="1.75899">
        <ele>449.055</ele>
        <time>2020-01-15T12:50:20Z</time>
      </trkpt>
      <trkpt lat="45.94923" lon="1.76152">
        <ele>458.196</ele>
        <time>2020-01-15T12:50:40Z</time>
      </trkpt>
      <trkpt lat="45.94883" lon="1.76247">
        <ele>462.259</ele>
        <time>2020-01-15T12:51:00Z</time>
      </trkpt>
      <trkpt lat="45.94787" lon="1.76312">
        <ele>454.075</ele>
        <time>2020-01-15T12:51:20Z</time>
      </trkpt>
      <trkpt lat="45.94744" lon="1.76381">
        <ele>457.359</ele>
        <time>2020-01-15T12:51:40Z</time>
      </trkpt>
      <trkpt lat="45.9474" lon="1.76424">
        <ele>460.487</ele>
        <time>2017-03-24T11:15:26Z</time>
      </trkpt>
      <trkpt lat="45.94741" lon="1.76539">
        <ele>465.442</ele>
        <time>2017-03-24T11:15:46Z</time>
      </trkpt>
      <trkpt lat="45.94763" lon="1.7657">
        <ele>470.926</ele>
        <time>2020-01-15T12:52:40Z</time>
      </trkpt>
      <trkpt lat="45.94802" lon="1.76664">
        <ele>470.808</ele>
        <time>2020-01-15T12:53:00Z</time>
      </trkpt>
      <trkpt lat="45.94845" lon="1.76784">
        <ele>473.644</ele>
        <time>2020-01-15T12:53:20Z</time>
      </trkpt>
      <trkpt lat="45.94852" lon="1.7683">
        <ele>474.048</ele>
        <time>2020-01-15T12:53:40Z</time>
      </trkpt>
      <trkpt lat="45.94866" lon="1.76808">
        <ele>479.465</ele>
        <time>2017-03-24T11:17:06Z</time>
      </trkpt>
      <trkpt lat="45.9488" lon="1.76839">
        <ele>482.428</ele>
        <time>2020-01-15T12:54:20Z</time>
      </trkpt>
      <trkpt lat="45.94874" lon="1.76757">
        <ele>486.089</ele>
        <time>2020-01-15T12:54:40Z</time>
      </trkpt>
      <trkpt lat="45.94868" lon="1.76735">
        <ele>485.952</ele>
        <time>2020-01-15T12:55:00Z</time>
      </trkpt>
      <trkpt lat="45.94868" lon="1.76689">
        <ele>491.618</ele>
        <time>2020-01-15T12:55:20Z</time>
      </trkpt>
      <trkpt lat="45.94835" lon="1.76614">
        <ele>485.412</ele>
        <time>2017-03-24T11:18:26Z</time>
      </trkpt>
      <trkpt lat="45.94841" lon="1.76566">
        <ele>492.781</ele>
        <time>2017-03-24T11:18:46Z</time>
      </trkpt>
      <trkpt lat="45.94852" lon="1.76588">
        <ele>493.961</ele>
        <time>2017-03-24T11:19:06Z</time>
      </trkpt>
      <trkpt lat="45.94861" lon="1.76574">
        <ele>498.117</ele>
        <time>2017-03-24T11:19:26Z</time>
      </trkpt>
      <trkpt lat="45.94866" lon="1.76609">
        <ele>497.408</ele>
        <time>2020-01-15T12:57:00Z</time>
      </trkpt>
      <trkpt lat="45.94889" lon="1.76627">
        <ele>503.194</ele>
        <time>2020-01-15T12:57:20Z</time>
      </trkpt>
      <trkpt lat="45.94917" lon="1.76711">
        <ele>505.058</ele>
        <time>2020-01-15T12:57:40Z</time>
      </trkpt>
      <trkpt lat="45.9494" lon="1.76797">
        <ele>505.495</ele>
        <time>2020-01-15T12:58:00Z</time>
      </trkpt>
      <trkpt lat="45.94959" lon="1.7682">
        <ele>507.618</ele>
        <time>2020-01-15T12:58:20Z</time>
      </trkpt>
      <trkpt lat="45.95022" lon="1.76849">
        <ele>513.119</ele>
        <time>2020-01-15T12:58:40Z</time>
      </trkpt>
      <trkpt lat="45.95058" lon="1.7688">
        <ele>508.092</ele>
        <time>2020-01-15T12:59:00Z</time>
      </trkpt>
      <trkpt lat="45.95105" lon="1.7695">
        <ele>499.948</ele>
        <time>2020-01-15T12:59:20Z</time>
      </trkpt>
      <trkpt lat="45.95137" lon="1.77013">
        <ele>491.032</ele>
        <time>2020-01-15T12:59:40Z</time>
      </trkpt>
      <trkpt lat="45.95192" lon="1.77064">
        <ele>489.149</ele>
        <time>2020-01-15T13:00:00Z</time>
      </trkpt>
      <trkpt lat="45.95176" lon="1.77117">
        <ele>481.202</ele>
        <time>2020-01-15T13:00:20Z</time>
      </trkpt>
      <trkpt lat="45.95159" lon="1.77116">
        <ele>483.022</ele>
        <time>2020-01-15T13:00:40Z</time>
      </trkpt>
      <trkpt lat="45.9515" lon="1.77109">
        <ele>484.508</ele>
        <time>2020-01-15T13:01:00Z</time>
      </trkpt>
      <trkpt lat="45.9513" lon="1.77109">
        <ele>489.02</ele>
        <time>2020-01-15T13:01:20Z</time>
      </trkpt>
      <trkpt lat="45.95118" lon="1.77118">
        <ele>493.584</ele>
        <time>2020-01-15T13:01:40Z</time>
      </trkpt>
      <trkpt lat="45.95118" lon="1.77143">
        <ele>498.021</ele>
        <time>2020-01-15T13:02:00Z</time>
      </trkpt>
      <trkpt lat="45.95143" lon="1.77204">
        <ele>499.614</ele>
        <time>2020-01-15T13:02:20Z</time>
      </trkpt>
      <trkpt lat="45.95153" lon="1.77235">
        <ele>499.765</ele>
        <time>2017-03-24T11:23:06Z</time>
      </trkpt>
      <trkpt lat="45.95158" lon="1.77348">
        <ele>517.938</ele>
        <time>2017-03-24T11:23:26Z</time>
      </trkpt>
      <trkpt lat="45.95148" lon="1.77404">
        <ele>522.114</ele>
        <time>2020-01-15T13:03:20Z</time>
      </trkpt>
      <trkpt lat="45.95104" lon="1.77469">
        <ele>530.898</ele>
        <time>2020-01-15T13:03:40Z</time>
      </trkpt>
      <trkpt lat="45.95047" lon="1.77506">
        <ele>532.458</ele>
        <time>2020-01-15T13:04:00Z</time>
      </trkpt>
      <trkpt lat="45.95007" lon="1.77506">
        <ele>535.552</ele>
        <time>2020-11-19T18:20:05Z</time>
      </trkpt>
      <trkpt lat="45.94922" lon="1.77538">
        <ele>550.517</ele>
        <time>2020-11-19T18:20:25Z</time>
      </trkpt>
      <trkpt lat="45.94871" lon="1.77575">
        <ele>549.108</ele>
        <time>2020-11-19T18:20:45Z</time>
      </trkpt>
      <trkpt lat="45.94807" lon="1.77594">
        <ele>554.981</ele>
        <time>2020-11-19T18:21:05Z</time>
      </trkpt>
      <trkpt lat="45.94779" lon="1.7766">
        <ele>546.835</ele>
        <time>2020-11-19T18:21:25Z</time>
      </trkpt>
      <trkpt lat="45.94737" lon="1.77708">
        <ele>548.912</ele>
        <time>2020-11-19T18:21:45Z</time>
      </trkpt>
      <trkpt lat="45.94705" lon="1.77732">
        <ele>552.195</ele>
        <time>2020-11-19T18:22:05Z</time>
      </trkpt>
      <trkpt lat="45.94696" lon="1.77752">
        <ele>552.786</ele>
        <time>2020-11-19T18:22:25Z</time>
      </trkpt>
      <trkpt lat="45.94642" lon="1.77715">
        <ele>559.859</ele>
        <time>2020-11-19T18:22:45Z</time>
      </trkpt>
      <trkpt lat="45.94625" lon="1.77661">
        <ele>565.685</ele>
        <time>2020-11-19T18:23:05Z</time>
      </trkpt>
      <trkpt lat="45.94612" lon="1.77665">
        <ele>568.979</ele>
        <time>2020-11-19T18:23:25Z</time>
      </trkpt>
      <trkpt lat="45.94631" lon="1.7784">
        <ele>560.231</ele>
        <time>2017-03-24T11:27:06Z</time>
      </trkpt>
      <trkpt lat="45.94631" lon="1.77876">
        <ele>559.761</ele>
        <time>2020-01-15T13:08:20Z</time>
      </trkpt>
      <trkpt lat="45.94622" lon="1.77901">
        <ele>559.007</ele>
        <time>2020-01-15T13:08:40Z</time>
      </trkpt>
      <trkpt lat="45.94594" lon="1.77934">
        <ele>561.008</ele>
        <time>2020-01-15T13:09:00Z</time>
      </trkpt>
      <trkpt lat="45.94586" lon="1.77964">
        <ele>559.749</ele>
        <time>2017-03-24T11:28:06Z</time>
      </trkpt>
      <trkpt lat="45.94587" lon="1.77986">
        <ele>555.843</ele>
        <time>2020-01-15T13:09:40Z</time>
      </trkpt>
      <trkpt lat="45.94663" lon="1.78163">
        <ele>539.64</ele>
        <time>2020-01-15T13:10:00Z</time>
      </trkpt>
      <trkpt lat="45.94681" lon="1.78215">
        <ele>539.523</ele>
        <time>2020-01-15T13:10:20Z</time>
      </trkpt>
      <trkpt lat="45.94679" lon="1.78324">
        <ele>536.924</ele>
        <time>2017-03-24T11:29:06Z</time>
      </trkpt>
      <trkpt lat="45.9466" lon="1.78355">
        <ele>541.327</ele>
        <time>2020-01-15T13:11:00Z</time>
      </trkpt>
      <trkpt lat="45.9466" lon="1.78373">
        <ele>540.133</ele>
        <time>2020-01-15T13:11:20Z</time>
      </trkpt>
      <trkpt lat="45.94673" lon="1.78363">
        <ele>536.287</ele>
        <time>2017-03-24T11:29:46Z</time>
      </trkpt>
      <trkpt lat="45.9465" lon="1.78446">
        <ele>536.199</ele>
        <time>2020-01-15T13:12:00Z</time>
      </trkpt>
      <trkpt lat="45.94641" lon="1.78541">
        <ele>524.207</ele>
        <time>2020-01-15T13:12:20Z</time>
      </trkpt>
      <trkpt lat="45.94603" lon="1.78652">
        <ele>523.427</ele>
        <time>2017-03-24T11:31:06Z</time>
      </trkpt>
      <trkpt lat="45.94612" lon="1.78702">
        <ele>524.908</ele>
        <time>2020-01-15T13:13:00Z</time>
      </trkpt>
      <trkpt lat="45.94657" lon="1.7872">
        <ele>525.925</ele>
        <time>2020-11-19T18:29:05Z</time>
      </trkpt>
      <trkpt lat="45.94682" lon="1.7875">
        <ele>532.529</ele>
        <time>2020-11-19T18:29:25Z</time>
      </trkpt>
      <trkpt lat="45.94716" lon="1.78851">
        <ele>533.396</ele>
        <time>2020-11-19T18:29:45Z</time>
      </trkpt>
      <trkpt lat="45.94792" lon="1.78966">
        <ele>533.499</ele>
        <time>2017-03-24T11:32:26Z</time>
      </trkpt>
      <trkpt lat="45.94821" lon="1.79048">
        <ele>536.28</ele>
        <time>2020-11-19T18:30:25Z</time>
      </trkpt>
      <trkpt lat="45.94855" lon="1.79154">
        <ele>540.093</ele>
        <time>2017-03-24T11:33:06Z</time>
      </trkpt>
      <trkpt lat="45.94895" lon="1.79188">
        <ele>541.419</ele>
        <time>2020-11-19T18:31:05Z</time>
      </trkpt>
      <trkpt lat="45.94901" lon="1.79226">
        <ele>538.313</ele>
        <time>2017-03-24T11:33:46Z</time>
      </trkpt>
      <trkpt lat="45.94848" lon="1.79293">
        <ele>536.437</ele>
        <time>2017-03-24T11:34:06Z</time>
      </trkpt>
      <trkpt lat="45.94813" lon="1.79292">
        <ele>537.949</ele>
        <time>2020-11-19T18:32:05Z</time>
      </trkpt>
      <trkpt lat="45.94779" lon="1.7932">
        <ele>534.013</ele>
        <time>2017-03-24T11:34:46Z</time>
      </trkpt>
      <trkpt lat="45.94709" lon="1.79337">
        <ele>533.308</ele>
        <time>2017-03-24T11:35:06Z</time>
      </trkpt>
      <trkpt lat="45.9459" lon="1.79427">
        <ele>537.579</ele>
        <time>2017-03-24T11:35:26Z</time>
      </trkpt>
      <trkpt lat="45.94516" lon="1.79508">
        <ele>533.373</ele>
        <time>2017-03-24T11:35:46Z</time>
      </trkpt>
      <trkpt lat="45.94485" lon="1.7957">
        <ele>533.62</ele>
        <time>2017-03-24T11:36:06Z</time>
      </trkpt>
      <trkpt lat="45.94499" lon="1.79632">
        <ele>535.693</ele>
        <time>2017-03-24T11:36:26Z</time>
      </trkpt>
      <trkpt lat="45.94484" lon="1.79648">
        <ele>537.214</ele>
        <time>2017-03-24T11:36:46Z</time>
      </trkpt>
      <trkpt lat="45.94469" lon="1.79713">
        <ele>535.677</ele>
        <time>2017-03-24T11:37:06Z</time>
      </trkpt>
      <trkpt lat="45.94432" lon="1.79808">
        <ele>535.813</ele>
        <time>2017-03-24T11:37:26Z</time>
      </trkpt>
      <trkpt lat="45.94421" lon="1.79874">
        <ele>533.097</ele>
        <time>2017-03-24T11:37:46Z</time>
      </trkpt>
      <trkpt lat="45.94451" lon="1.79953">
        <ele>532.612</ele>
        <time>2017-03-24T11:38:06Z</time>
      </trkpt>
      <trkpt lat="45.94379" lon="1.80026">
        <ele>536.232</ele>
        <time>2017-03-24T11:38:26Z</time>
      </trkpt>
      <trkpt lat="45.94354" lon="1.80065">
        <ele>543.405</ele>
        <time>2017-03-24T11:38:46Z</time>
      </trkpt>
      <trkpt lat="45.94267" lon="1.80156">
        <ele>558.408</ele>
        <time>2017-03-24T11:39:06Z</time>
      </trkpt>
      <trkpt lat="45.94191" lon="1.8028">
        <ele>561.467</ele>
        <time>2017-03-24T11:39:26Z</time>
      </trkpt>
      <trkpt lat="45.94155" lon="1.80464">
        <ele>573.471</ele>
        <time>2017-03-24T11:39:46Z</time>
      </trkpt>
      <trkpt lat="45.94134" lon="1.80609">
        <ele>586.048</ele>
        <time>2017-03-24T11:40:06Z</time>
      </trkpt>
      <trkpt lat="45.94112" lon="1.80695">
        <ele>587.961</ele>
        <time>2017-03-24T11:40:26Z</time>
      </trkpt>
      <trkpt lat="45.94243" lon="1.80866">
        <ele>571.752</ele>
        <time>2017-03-24T11:40:46Z</time>
      </trkpt>
      <trkpt lat="45.94271" lon="1.8096">
        <ele>566.135</ele>
        <time>2017-03-24T11:41:06Z</time>
      </trkpt>
      <trkpt lat="45.94301" lon="1.8103">
        <ele>565.751</ele>
        <time>2017-03-24T11:41:26Z</time>
      </trkpt>
      <trkpt lat="45.94339" lon="1.81075">
        <ele>566.375</ele>
        <time>2017-03-24T11:41:46Z</time>
      </trkpt>
      <trkpt lat="45.94438" lon="1.81136">
        <ele>571.384</ele>
        <time>2017-03-24T11:42:06Z</time>
      </trkpt>
      <trkpt lat="45.94523" lon="1.81223">
        <ele>577.207</ele>
        <time>2017-03-24T11:42:26Z</time>
      </trkpt>
      <trkpt lat="45.946" lon="1.81262">
        <ele>575.617</ele>
        <time>2017-03-24T11:42:46Z</time>
      </trkpt>
      <trkpt lat="45.94734" lon="1.81272">
        <ele>579.708</ele>
        <time>2017-03-24T11:43:06Z</time>
      </trkpt>
      <trkpt lat="45.94708" lon="1.81323">
        <ele>581.114</ele>
        <time>2017-03-24T11:43:26Z</time>
      </trkpt>
      <trkpt lat="45.94654" lon="1.81381">
        <ele>584.998</ele>
        <time>2017-03-24T11:43:46Z</time>
      </trkpt>
      <trkpt lat="45.94623" lon="1.81431">
        <ele>587.795</ele>
        <time>2020-01-15T13:26:00Z</time>
      </trkpt>
      <trkpt lat="45.946" lon="1.81483">
        <ele>589.088</ele>
        <time>2020-01-15T13:26:20Z</time>
      </trkpt>
      <trkpt lat="45.94615" lon="1.81596">
        <ele>595.659</ele>
        <time>2020-01-15T13:26:40Z</time>
      </trkpt>
      <trkpt lat="45.94647" lon="1.8165">
        <ele>597.452</ele>
        <time>2020-01-15T13:27:00Z</time>
      </trkpt>
      <trkpt lat="45.94688" lon="1.81804">
        <ele>603.228</ele>
        <time>2020-01-15T13:27:20Z</time>
      </trkpt>
      <trkpt lat="45.94673" lon="1.81864">
        <ele>613.342</ele>
        <time>2017-03-24T11:45:46Z</time>
      </trkpt>
      <trkpt lat="45.94727" lon="1.81918">
        <ele>621.826</ele>
        <time>2017-03-24T11:46:06Z</time>
      </trkpt>
      <trkpt lat="45.94838" lon="1.82063">
        <ele>631.647</ele>
        <time>2017-03-24T11:46:26Z</time>
      </trkpt>
      <trkpt lat="45.94913" lon="1.82229">
        <ele>649.511</ele>
        <time>2017-03-24T11:46:46Z</time>
      </trkpt>
      <trkpt lat="45.94964" lon="1.82372">
        <ele>656.608</ele>
        <time>2017-03-24T11:47:06Z</time>
      </trkpt>
      <trkpt lat="45.95022" lon="1.82631">
        <ele>669.058</ele>
        <time>2017-03-24T11:47:26Z</time>
      </trkpt>
      <trkpt lat="45.95071" lon="1.82725">
        <ele>677.332</ele>
        <time>2017-03-24T11:47:46Z</time>
      </trkpt>
      <trkpt lat="45.95095" lon="1.8274">
        <ele>679.429</ele>
        <time>2017-03-24T11:48:06Z</time>
      </trkpt>
      <trkpt lat="45.95205" lon="1.82787">
        <ele>680.892</ele>
        <time>2017-03-24T11:48:26Z</time>
      </trkpt>
      <trkpt lat="45.95252" lon="1.82812">
        <ele>681.663</ele>
        <time>2017-03-24T11:48:46Z</time>
      </trkpt>
      <trkpt lat="45.95266" lon="1.82867">
        <ele>678.556</ele>
        <time>2017-03-24T11:49:06Z</time>
      </trkpt>
      <trkpt lat="45.95263" lon="1.82979">
        <ele>675.582</ele>
        <time>2017-03-24T11:49:26Z</time>
      </trkpt>
      <trkpt lat="45.95313" lon="1.83069">
        <ele>668.786</ele>
        <time>2017-03-24T11:49:46Z</time>
      </trkpt>
      <trkpt lat="45.95348" lon="1.83223">
        <ele>669.553</ele>
        <time>2017-03-24T11:50:06Z</time>
      </trkpt>
      <trkpt lat="45.9539" lon="1.8334">
        <ele>671.304</ele>
        <time>2017-03-24T11:50:26Z</time>
      </trkpt>
      <trkpt lat="45.95392" lon="1.83472">
        <ele>676.414</ele>
        <time>2017-03-24T11:50:46Z</time>
      </trkpt>
      <trkpt lat="45.95413" lon="1.8355">
        <ele>675.108</ele>
        <time>2017-03-24T11:51:06Z</time>
      </trkpt>
      <trkpt lat="45.95448" lon="1.83603">
        <ele>681.371</ele>
        <time>2017-03-24T11:51:26Z</time>
      </trkpt>
      <trkpt lat="45.95531" lon="1.83708">
        <ele>681.515</ele>
        <time>2017-03-24T11:51:46Z</time>
      </trkpt>
      <trkpt lat="45.95554" lon="1.83769">
        <ele>676.912</ele>
        <time>2017-03-24T11:52:06Z</time>
      </trkpt>
      <trkpt lat="45.95554" lon="1.83844">
        <ele>678.295</ele>
        <time>2017-03-24T11:52:26Z</time>
      </trkpt>
      <trkpt lat="45.95519" lon="1.84123">
        <ele>667.596</ele>
        <time>2017-03-24T11:52:46Z</time>
      </trkpt>
      <trkpt lat="45.95532" lon="1.84149">
        <ele>664.589</ele>
        <time>2017-03-24T11:53:06Z</time>
      </trkpt>
      <trkpt lat="45.9564" lon="1.84132">
        <ele>659.185</ele>
        <time>2017-03-24T11:53:26Z</time>
      </trkpt>
      <trkpt lat="45.95666" lon="1.84167">
        <ele>657.179</ele>
        <time>2017-03-24T11:53:46Z</time>
      </trkpt>
      <trkpt lat="45.95696" lon="1.84292">
        <ele>656.454</ele>
        <time>2017-03-24T11:54:06Z</time>
      </trkpt>
      <trkpt lat="45.95733" lon="1.84316">
        <ele>655.756</ele>
        <time>2017-03-24T11:54:26Z</time>
      </trkpt>
      <trkpt lat="45.95786" lon="1.8428">
        <ele>657.111</ele>
        <time>2017-03-24T11:54:46Z</time>
      </trkpt>
      <trkpt lat="45.95807" lon="1.84353">
        <ele>659.008</ele>
        <time>2017-03-24T11:55:06Z</time>
      </trkpt>
      <trkpt lat="45.95807" lon="1.84401">
        <ele>659.031</ele>
        <time>2017-03-24T11:55:26Z</time>
      </trkpt>
      <trkpt lat="45.95849" lon="1.84479">
        <ele>662.195</ele>
        <time>2017-03-24T11:55:46Z</time>
      </trkpt>
      <trkpt lat="45.95848" lon="1.84506">
        <ele>662.632</ele>
        <time>2017-03-24T11:56:06Z</time>
      </trkpt>
      <trkpt lat="45.95918" lon="1.84865">
        <ele>678.185</ele>
        <time>2017-03-24T11:56:26Z</time>
      </trkpt>
      <trkpt lat="45.95951" lon="1.84923">
        <ele>680.176</ele>
        <time>2020-11-19T18:54:25Z</time>
      </trkpt>
      <trkpt lat="45.95933" lon="1.84942">
        <ele>680.429</ele>
        <time>2020-11-19T18:54:45Z</time>
      </trkpt>
      <trkpt lat="45.95909" lon="1.84939">
        <ele>681.985</ele>
        <time>2020-11-19T18:55:05Z</time>
      </trkpt>
      <trkpt lat="45.95876" lon="1.84958">
        <ele>685.029</ele>
        <time>2017-03-24T11:57:06Z</time>
      </trkpt>
      <trkpt lat="45.95832" lon="1.84947">
        <ele>684.975</ele>
        <time>2017-03-24T11:57:26Z</time>
      </trkpt>
      <trkpt lat="45.95757" lon="1.8489">
        <ele>690.728</ele>
        <time>2017-03-24T11:57:46Z</time>
      </trkpt>
      <trkpt lat="45.95757" lon="1.8489">
        <ele>690.72</ele>
        <time>2017-03-24T11:58:06Z</time>
      </trkpt>
      <trkpt lat="45.95741" lon="1.84898">
        <ele>694.308</ele>
        <time>2017-03-24T11:58:26Z</time>
      </trkpt>
      <trkpt lat="45.95716" lon="1.84965">
        <ele>701.573</ele>
        <time>2017-03-24T11:58:46Z</time>
      </trkpt>
      <trkpt lat="45.95642" lon="1.85052">
        <ele>706.577</ele>
        <time>2017-03-24T11:59:06Z</time>
      </trkpt>
      <trkpt lat="45.956" lon="1.85041">
        <ele>711.144</ele>
        <time>2017-03-24T11:59:26Z</time>
      </trkpt>
      <trkpt lat="45.95512" lon="1.85042">
        <ele>712.437</ele>
        <time>2017-03-24T11:59:46Z</time>
      </trkpt>
      <trkpt lat="45.95463" lon="1.85071">
        <ele>707.828</ele>
        <time>2017-03-24T12:00:06Z</time>
      </trkpt>
      <trkpt lat="45.95391" lon="1.85069">
        <ele>707.611</ele>
        <time>2017-03-24T12:00:26Z</time>
      </trkpt>
      <trkpt lat="45.95345" lon="1.85033">
        <ele>706.827</ele>
        <time>2017-03-24T12:00:46Z</time>
      </trkpt>
      <trkpt lat="45.95282" lon="1.85018">
        <ele>702.711</ele>
        <time>2017-03-24T12:01:06Z</time>
      </trkpt>
      <trkpt lat="45.95227" lon="1.84966">
        <ele>704.665</ele>
        <time>2017-03-24T12:01:26Z</time>
      </trkpt>
      <trkpt lat="45.95186" lon="1.84952">
        <ele>702.568</ele>
        <time>2017-03-24T12:01:46Z</time>
      </trkpt>
      <trkpt lat="45.95155" lon="1.8498">
        <ele>701.414</ele>
        <time>2017-03-24T12:02:06Z</time>
      </trkpt>
      <trkpt lat="45.95145" lon="1.85052">
        <ele>700.108</ele>
        <time>2017-03-24T12:02:26Z</time>
      </trkpt>
      <trkpt lat="45.95108" lon="1.85115">
        <ele>699.212</ele>
        <time>2017-03-24T12:02:46Z</time>
      </trkpt>
      <trkpt lat="45.95062" lon="1.85189">
        <ele>689.786</ele>
        <time>2020-01-15T13:47:00Z</time>
      </trkpt>
      <trkpt lat="45.95049" lon="1.85243">
        <ele>688.283</ele>
        <time>2020-01-15T13:47:20Z</time>
      </trkpt>
      <trkpt lat="45.95043" lon="1.8535">
        <ele>686.576</ele>
        <time>2017-03-24T12:03:46Z</time>
      </trkpt>
      <trkpt lat="45.95012" lon="1.85398">
        <ele>684.657</ele>
        <time>2017-03-24T12:04:06Z</time>
      </trkpt>
      <trkpt lat="45.95011" lon="1.85438">
        <ele>683.39</ele>
        <time>2017-03-24T12:04:26Z</time>
      </trkpt>
      <trkpt lat="45.95019" lon="1.85476">
        <ele>682.556</ele>
        <time>2017-03-24T12:04:46Z</time>
      </trkpt>
      <trkpt lat="45.9497" lon="1.85538">
        <ele>688.12</ele>
        <time>2017-03-24T12:05:06Z</time>
      </trkpt>
      <trkpt lat="45.94966" lon="1.85619">
        <ele>688.173</ele>
        <time>2017-03-24T12:05:26Z</time>
      </trkpt>
      <trkpt lat="45.94898" lon="1.85712">
        <ele>684.885</ele>
        <time>2017-03-24T12:05:46Z</time>
      </trkpt>
      <trkpt lat="45.94903" lon="1.85774">
        <ele>678.313</ele>
        <time>2017-03-24T12:06:06Z</time>
      </trkpt>
      <trkpt lat="45.94868" lon="1.85861">
        <ele>670.708</ele>
        <time>2017-03-24T12:06:26Z</time>
      </trkpt>
      <trkpt lat="45.94819" lon="1.85941">
        <ele>661.423</ele>
        <time>2017-03-24T12:06:46Z</time>
      </trkpt>
      <trkpt lat="45.94722" lon="1.86082">
        <ele>670.917</ele>
        <time>2017-03-24T12:07:06Z</time>
      </trkpt>
      <trkpt lat="45.94688" lon="1.861">
        <ele>666.844</ele>
        <time>2017-03-24T12:07:26Z</time>
      </trkpt>
      <trkpt lat="45.94444" lon="1.86169">
        <ele>661.147</ele>
        <time>2017-03-24T12:07:46Z</time>
      </trkpt>
      <trkpt lat="45.94366" lon="1.86214">
        <ele>661.838</ele>
        <time>2017-03-24T12:08:06Z</time>
      </trkpt>
      <trkpt lat="45.94301" lon="1.86226">
        <ele>660.141</ele>
        <time>2017-03-24T12:08:26Z</time>
      </trkpt>
      <trkpt lat="45.94231" lon="1.86216">
        <ele>656.777</ele>
        <time>2017-03-24T12:08:46Z</time>
      </trkpt>
      <trkpt lat="45.94188" lon="1.86289">
        <ele>657.471</ele>
        <time>2017-03-24T12:09:06Z</time>
      </trkpt>
      <trkpt lat="45.94107" lon="1.86316">
        <ele>662.594</ele>
        <time>2017-03-24T12:09:26Z</time>
      </trkpt>
      <trkpt lat="45.94061" lon="1.86413">
        <ele>667.157</ele>
        <time>2017-03-24T12:09:46Z</time>
      </trkpt>
      <trkpt lat="45.94044" lon="1.86564">
        <ele>669.322</ele>
        <time>2017-03-24T12:10:06Z</time>
      </trkpt>
      <trkpt lat="45.93937" lon="1.86661">
        <ele>678.508</ele>
        <time>2017-03-24T12:10:26Z</time>
      </trkpt>
      <trkpt lat="45.93882" lon="1.86937">
        <ele>691.475</ele>
        <time>2017-03-24T12:10:46Z</time>
      </trkpt>
      <trkpt lat="45.93923" lon="1.87153">
        <ele>687.919</ele>
        <time>2017-03-24T12:11:06Z</time>
      </trkpt>
      <trkpt lat="45.93892" lon="1.87259">
        <ele>683.966</ele>
        <time>2017-03-24T12:11:26Z</time>
      </trkpt>
      <trkpt lat="45.93807" lon="1.87279">
        <ele>681.989</ele>
        <time>2017-03-24T12:11:46Z</time>
      </trkpt>
      <trkpt lat="45.93686" lon="1.87255">
        <ele>681.51</ele>
        <time>2017-03-24T12:12:06Z</time>
      </trkpt>
      <trkpt lat="45.93653" lon="1.87291">
        <ele>680.333</ele>
        <time>2020-01-15T13:56:20Z</time>
      </trkpt>
      <trkpt lat="45.93672" lon="1.87401">
        <ele>677.759</ele>
        <time>2020-01-15T13:56:40Z</time>
      </trkpt>
      <trkpt lat="45.93696" lon="1.87394">
        <ele>674.863</ele>
        <time>2020-01-15T13:57:00Z</time>
      </trkpt>
      <trkpt lat="45.93761" lon="1.87466">
        <ele>674.669</ele>
        <time>2020-01-15T13:57:20Z</time>
      </trkpt>
      <trkpt lat="45.93792" lon="1.87481">
        <ele>673.904</ele>
        <time>2020-01-15T13:57:40Z</time>
      </trkpt>
      <trkpt lat="45.93825" lon="1.87526">
        <ele>668.224</ele>
        <time>2020-01-15T13:58:00Z</time>
      </trkpt>
      <trkpt lat="45.93874" lon="1.87536">
        <ele>668.308</ele>
        <time>2020-01-15T13:58:20Z</time>
      </trkpt>
      <trkpt lat="45.93877" lon="1.87549">
        <ele>666.172</ele>
        <time>2020-01-15T13:58:40Z</time>
      </trkpt>
      <trkpt lat="45.93921" lon="1.87584">
        <ele>657.746</ele>
        <time>2020-01-15T13:59:00Z</time>
      </trkpt>
      <trkpt lat="45.93973" lon="1.87595">
        <ele>651.773</ele>
        <time>2020-01-15T13:59:20Z</time>
      </trkpt>
      <trkpt lat="45.94006" lon="1.87636">
        <ele>638.666</ele>
        <time>2020-01-15T13:59:40Z</time>
      </trkpt>
      <trkpt lat="45.94056" lon="1.87668">
        <ele>628.977</ele>
        <time>2020-01-15T14:00:00Z</time>
      </trkpt>
      <trkpt lat="45.94077" lon="1.87657">
        <ele>630.53</ele>
        <time>2020-01-15T14:00:20Z</time>
      </trkpt>
      <trkpt lat="45.94104" lon="1.87657">
        <ele>629.486</ele>
        <time>2020-01-15T14:00:40Z</time>
      </trkpt>
      <trkpt lat="45.94139" lon="1.87631">
        <ele>622.48</ele>
        <time>2020-01-15T14:01:00Z</time>
      </trkpt>
      <trkpt lat="45.94152" lon="1.87646">
        <ele>617.319</ele>
        <time>2020-01-15T14:01:20Z</time>
      </trkpt>
      <trkpt lat="45.94164" lon="1.87719">
        <ele>613.009</ele>
        <time>2020-01-15T14:01:40Z</time>
      </trkpt>
      <trkpt lat="45.94191" lon="1.87808">
        <ele>606.619</ele>
        <time>2020-01-15T14:02:00Z</time>
      </trkpt>
      <trkpt lat="45.94181" lon="1.87842">
        <ele>602.208</ele>
        <time>2020-01-15T14:02:20Z</time>
      </trkpt>
      <trkpt lat="45.94173" lon="1.87965">
        <ele>595.367</ele>
        <time>2020-01-15T14:02:40Z</time>
      </trkpt>
      <trkpt lat="45.94184" lon="1.88046">
        <ele>590.381</ele>
        <time>2020-11-19T19:17:25Z</time>
      </trkpt>
      <trkpt lat="45.94209" lon="1.88085">
        <ele>587.918</ele>
        <time>2020-01-15T14:03:20Z</time>
      </trkpt>
      <trkpt lat="45.94217" lon="1.88206">
        <ele>574.781</ele>
        <time>2020-01-15T14:03:40Z</time>
      </trkpt>
      <trkpt lat="45.94264" lon="1.88322">
        <ele>568.132</ele>
        <time>2020-01-15T14:04:00Z</time>
      </trkpt>
      <trkpt lat="45.94259" lon="1.88367">
        <ele>560.215</ele>
        <time>2020-01-15T14:04:20Z</time>
      </trkpt>
      <trkpt lat="45.94251" lon="1.88412">
        <ele>553.791</ele>
        <time>2020-01-15T14:04:40Z</time>
      </trkpt>
      <trkpt lat="45.94259" lon="1.88445">
        <ele>551.525</ele>
        <time>2020-01-15T14:05:00Z</time>
      </trkpt>
      <trkpt lat="45.94304" lon="1.88473">
        <ele>549.814</ele>
        <time>2020-01-15T14:05:20Z</time>
      </trkpt>
      <trkpt lat="45.94319" lon="1.88468">
        <ele>549.554</ele>
        <time>2017-03-24T12:19:06Z</time>
      </trkpt>
      <trkpt lat="45.94345" lon="1.88445">
        <ele>548.709</ele>
        <time>2017-03-24T12:19:26Z</time>
      </trkpt>
      <trkpt lat="45.94366" lon="1.8846">
        <ele>546.708</ele>
        <time>2017-03-24T12:19:46Z</time>
      </trkpt>
      <trkpt lat="45.94427" lon="1.88601">
        <ele>534.347</ele>
        <time>2017-03-24T12:20:06Z</time>
      </trkpt>
      <trkpt lat="45.94432" lon="1.88696">
        <ele>528.911</ele>
        <time>2020-11-19T19:21:25Z</time>
      </trkpt>
      <trkpt lat="45.94502" lon="1.88813">
        <ele>523.388</ele>
        <time>2017-03-24T12:21:26Z</time>
      </trkpt>
      <trkpt lat="45.94514" lon="1.88922">
        <ele>515.471</ele>
        <time>2017-03-24T12:21:46Z</time>
      </trkpt>
      <trkpt lat="45.94553" lon="1.89006">
        <ele>510.572</ele>
        <time>2017-03-24T12:22:06Z</time>
      </trkpt>
      <trkpt lat="45.94573" lon="1.89027">
        <ele>506.955</ele>
        <time>2017-03-24T12:22:26Z</time>
      </trkpt>
      <trkpt lat="45.94601" lon="1.8913">
        <ele>503.041</ele>
        <time>2017-03-24T12:22:46Z</time>
      </trkpt>
      <trkpt lat="45.94601" lon="1.89183">
        <ele>501.115</ele>
        <time>2017-03-24T12:23:06Z</time>
      </trkpt>
      <trkpt lat="45.94505" lon="1.89318">
        <ele>503.344</ele>
        <time>2017-03-24T12:23:26Z</time>
      </trkpt>
      <trkpt lat="45.94423" lon="1.89377">
        <ele>502.605</ele>
        <time>2017-03-24T12:23:46Z</time>
      </trkpt>
      <trkpt lat="45.94377" lon="1.89435">
        <ele>500.515</ele>
        <time>2017-03-24T12:24:06Z</time>
      </trkpt>
      <trkpt lat="45.94325" lon="1.8947">
        <ele>500.408</ele>
        <time>2017-03-24T12:24:26Z</time>
      </trkpt>
      <trkpt lat="45.94346" lon="1.89588">
        <ele>500.95</ele>
        <time>2017-03-24T12:24:46Z</time>
      </trkpt>
      <trkpt lat="45.94259" lon="1.89632">
        <ele>501.444</ele>
        <time>2017-03-24T12:25:06Z</time>
      </trkpt>
      <trkpt lat="45.94209" lon="1.89625">
        <ele>500.531</ele>
        <time>2017-03-24T12:25:26Z</time>
      </trkpt>
      <trkpt lat="45.94137" lon="1.89645">
        <ele>502.254</ele>
        <time>2017-03-24T12:25:46Z</time>
      </trkpt>
      <trkpt lat="45.94057" lon="1.89654">
        <ele>508.075</ele>
        <time>2017-03-24T12:26:06Z</time>
      </trkpt>
      <trkpt lat="45.94022" lon="1.89743">
        <ele>513.258</ele>
        <time>2017-03-24T12:26:26Z</time>
      </trkpt>
      <trkpt lat="45.93987" lon="1.89777">
        <ele>514.954</ele>
        <time>2017-03-24T12:26:46Z</time>
      </trkpt>
      <trkpt lat="45.94001" lon="1.89878">
        <ele>516.518</ele>
        <time>2017-03-24T12:27:06Z</time>
      </trkpt>
      <trkpt lat="45.94036" lon="1.89951">
        <ele>517.887</ele>
        <time>2017-03-24T12:27:26Z</time>
      </trkpt>
      <trkpt lat="45.94089" lon="1.90005">
        <ele>514.142</ele>
        <time>2017-03-24T12:27:46Z</time>
      </trkpt>
      <trkpt lat="45.94137" lon="1.90031">
        <ele>516.126</ele>
        <time>2017-03-24T12:28:06Z</time>
      </trkpt>
      <trkpt lat="45.94151" lon="1.90139">
        <ele>519.908</ele>
        <time>2017-03-24T12:28:26Z</time>
      </trkpt>
      <trkpt lat="45.94137" lon="1.90243">
        <ele>519.714</ele>
        <time>2017-03-24T12:28:46Z</time>
      </trkpt>
      <trkpt lat="45.94136" lon="1.90349">
        <ele>524.328</ele>
        <time>2017-03-24T12:29:06Z</time>
      </trkpt>
      <trkpt lat="45.94113" lon="1.90391">
        <ele>527.145</ele>
        <time>2017-03-24T12:29:26Z</time>
      </trkpt>
      <trkpt lat="45.94133" lon="1.90537">
        <ele>548.918</ele>
        <time>2017-03-24T12:29:46Z</time>
      </trkpt>
      <trkpt lat="45.94208" lon="1.9064">
        <ele>552.089</ele>
        <time>2017-03-24T12:30:06Z</time>
      </trkpt>
      <trkpt lat="45.94278" lon="1.9078">
        <ele>548.142</ele>
        <time>2017-03-24T12:30:26Z</time>
      </trkpt>
      <trkpt lat="45.94382" lon="1.91055">
        <ele>552.258</ele>
        <time>2017-03-24T12:30:46Z</time>
      </trkpt>
      <trkpt lat="45.94413" lon="1.91237">
        <ele>548.142</ele>
        <time>2017-03-24T12:31:06Z</time>
      </trkpt>
      <trkpt lat="45.94471" lon="1.91368">
        <ele>545.148</ele>
        <time>2017-03-24T12:31:26Z</time>
      </trkpt>
      <trkpt lat="45.94584" lon="1.91614">
        <ele>537.061</ele>
        <time>2017-03-24T12:31:46Z</time>
      </trkpt>
      <trkpt lat="45.94618" lon="1.91755">
        <ele>535.317</ele>
        <time>2017-03-24T12:32:06Z</time>
      </trkpt>
      <trkpt lat="45.9466" lon="1.91849">
        <ele>533.308</ele>
        <time>2017-03-24T12:32:26Z</time>
      </trkpt>
      <trkpt lat="45.9469" lon="1.91985">
        <ele>528.66</ele>
        <time>2017-03-24T12:32:46Z</time>
      </trkpt>
      <trkpt lat="45.94783" lon="1.92169">
        <ele>529.384</ele>
        <time>2017-03-24T12:33:06Z</time>
      </trkpt>
      <trkpt lat="45.94784" lon="1.9217">
        <ele>529.381</ele>
        <time>2017-03-24T12:33:26Z</time>
      </trkpt>
      <trkpt lat="45.94784" lon="1.92231">
        <ele>526.914</ele>
        <time>2017-03-24T12:33:46Z</time>
      </trkpt>
      <trkpt lat="45.94773" lon="1.92292">
        <ele>529.015</ele>
        <time>2017-03-24T12:34:06Z</time>
      </trkpt>
      <trkpt lat="45.94746" lon="1.9236">
        <ele>527.498</ele>
        <time>2017-03-24T12:34:26Z</time>
      </trkpt>
      <trkpt lat="45.94715" lon="1.92509">
        <ele>528.284</ele>
        <time>2017-03-24T12:34:46Z</time>
      </trkpt>
      <trkpt lat="45.9467" lon="1.92603">
        <ele>525.978</ele>
        <time>2017-03-24T12:35:06Z</time>
      </trkpt>
      <trkpt lat="45.94645" lon="1.92706">
        <ele>518.492</ele>
        <time>2017-03-24T12:35:26Z</time>
      </trkpt>
      <trkpt lat="45.94652" lon="1.92891">
        <ele>513.873</ele>
        <time>2017-03-24T12:35:46Z</time>
      </trkpt>
      <trkpt lat="45.94593" lon="1.93039">
        <ele>505.52</ele>
        <time>2017-03-24T12:36:06Z</time>
      </trkpt>
      <trkpt lat="45.94572" lon="1.93283">
        <ele>499.308</ele>
        <time>2017-03-24T12:36:26Z</time>
      </trkpt>
      <trkpt lat="45.94618" lon="1.93268">
        <ele>501.925</ele>
        <time>2017-03-24T12:36:46Z</time>
      </trkpt>
      <trkpt lat="45.94585" lon="1.93384">
        <ele>497.039</ele>
        <time>2017-03-24T12:37:06Z</time>
      </trkpt>
      <trkpt lat="45.94573" lon="1.93488">
        <ele>495.616</ele>
        <time>2017-03-24T12:37:26Z</time>
      </trkpt>
      <trkpt lat="45.94528" lon="1.93563">
        <ele>495.389</ele>
        <time>2017-03-24T12:37:46Z</time>
      </trkpt>
      <trkpt lat="45.94468" lon="1.93634">
        <ele>493.53</ele>
        <time>2017-03-24T12:38:06Z</time>
      </trkpt>
      <trkpt lat="45.94456" lon="1.93674">
        <ele>493.383</ele>
        <time>2017-03-24T12:38:26Z</time>
      </trkpt>
      <trkpt lat="45.94483" lon="1.9378">
        <ele>491.319</ele>
        <time>2017-03-24T12:38:46Z</time>
      </trkpt>
      <trkpt lat="45.94467" lon="1.93813">
        <ele>490.883</ele>
        <time>2020-11-19T19:39:25Z</time>
      </trkpt>
      <trkpt lat="45.94392" lon="1.93813">
        <ele>494.244</ele>
        <time>2017-03-24T12:39:06Z</time>
      </trkpt>
      <trkpt lat="45.94336" lon="1.93858">
        <ele>497.805</ele>
        <time>2017-03-24T12:39:26Z</time>
      </trkpt>
      <trkpt lat="45.94259" lon="1.93893">
        <ele>504.715</ele>
        <time>2017-03-24T12:39:46Z</time>
      </trkpt>
      <trkpt lat="45.94202" lon="1.93931">
        <ele>507.908</ele>
        <time>2017-03-24T12:40:06Z</time>
      </trkpt>
      <trkpt lat="45.94063" lon="1.93951">
        <ele>514.67</ele>
        <time>2017-03-24T12:40:26Z</time>
      </trkpt>
      <trkpt lat="45.94017" lon="1.93974">
        <ele>521.044</ele>
        <time>2017-03-24T12:40:46Z</time>
      </trkpt>
      <trkpt lat="45.94017" lon="1.93974">
        <ele>521.011</ele>
        <time>2017-03-24T12:41:06Z</time>
      </trkpt>
      <trkpt lat="45.93993" lon="1.94072">
        <ele>529.244</ele>
        <time>2017-03-24T12:41:26Z</time>
      </trkpt>
      <trkpt lat="45.94011" lon="1.94165">
        <ele>530.985</ele>
        <time>2017-03-24T12:41:46Z</time>
      </trkpt>
      <trkpt lat="45.93955" lon="1.94249">
        <ele>540.498</ele>
        <time>2017-03-24T12:42:06Z</time>
      </trkpt>
      <trkpt lat="45.93934" lon="1.94312">
        <ele>542.114</ele>
        <time>2017-03-24T12:42:46Z</time>
      </trkpt>
      <trkpt lat="45.93923" lon="1.9435">
        <ele>542.138</ele>
        <time>2017-03-24T12:43:06Z</time>
      </trkpt>
      <trkpt lat="45.93893" lon="1.94407">
        <ele>542.948</ele>
        <time>2017-03-24T12:43:26Z</time>
      </trkpt>
      <trkpt lat="45.93821" lon="1.94565">
        <ele>546.761</ele>
        <time>2017-03-24T12:43:46Z</time>
      </trkpt>
      <trkpt lat="45.9379" lon="1.94681">
        <ele>560.517</ele>
        <time>2017-03-24T12:44:06Z</time>
      </trkpt>
      <trkpt lat="45.93741" lon="1.94805">
        <ele>562.008</ele>
        <time>2017-03-24T12:44:26Z</time>
      </trkpt>
      <trkpt lat="45.93693" lon="1.94859">
        <ele>561.81</ele>
        <time>2017-03-24T12:44:46Z</time>
      </trkpt>
      <trkpt lat="45.9367" lon="1.94934">
        <ele>552.824</ele>
        <time>2017-03-24T12:45:06Z</time>
      </trkpt>
      <trkpt lat="45.93643" lon="1.94974">
        <ele>545.061</ele>
        <time>2017-03-24T12:45:26Z</time>
      </trkpt>
      <trkpt lat="45.9365" lon="1.95008">
        <ele>539.084</ele>
        <time>2017-03-24T12:45:46Z</time>
      </trkpt>
      <trkpt lat="45.93681" lon="1.95055">
        <ele>531.095</ele>
        <time>2017-03-24T12:46:06Z</time>
      </trkpt>
      <trkpt lat="45.93689" lon="1.95081">
        <ele>529.378</ele>
        <time>2017-03-24T12:46:26Z</time>
      </trkpt>
      <trkpt lat="45.93721" lon="1.95138">
        <ele>521.074</ele>
        <time>2017-03-24T12:46:46Z</time>
      </trkpt>
      <trkpt lat="45.93733" lon="1.95181">
        <ele>519.798</ele>
        <time>2017-03-24T12:47:06Z</time>
      </trkpt>
      <trkpt lat="45.93765" lon="1.95138">
        <ele>516.266</ele>
        <time>2017-03-24T12:47:26Z</time>
      </trkpt>
      <trkpt lat="45.93774" lon="1.95055">
        <ele>519.829</ele>
        <time>2017-03-24T12:47:46Z</time>
      </trkpt>
      <trkpt lat="45.93796" lon="1.95021">
        <ele>519.321</ele>
        <time>2017-03-24T12:48:06Z</time>
      </trkpt>
      <trkpt lat="45.93845" lon="1.95">
        <ele>514.208</ele>
        <time>2017-03-24T12:48:26Z</time>
      </trkpt>
      <trkpt lat="45.93879" lon="1.94963">
        <ele>516.062</ele>
        <time>2017-03-24T12:48:46Z</time>
      </trkpt>
      <trkpt lat="45.93903" lon="1.94965">
        <ele>515.516</ele>
        <time>2017-03-24T12:49:06Z</time>
      </trkpt>
      <trkpt lat="45.9395" lon="1.94983">
        <ele>512.793</ele>
        <time>2017-03-24T12:49:26Z</time>
      </trkpt>
      <trkpt lat="45.94036" lon="1.94984">
        <ele>506.696</ele>
        <time>2017-03-24T12:49:46Z</time>
      </trkpt>
      <trkpt lat="45.94081" lon="1.94951">
        <ele>504.857</ele>
        <time>2017-03-24T12:50:06Z</time>
      </trkpt>
      <trkpt lat="45.94111" lon="1.94962">
        <ele>499.18</ele>
        <time>2017-03-24T12:50:26Z</time>
      </trkpt>
      <trkpt lat="45.94121" lon="1.95003">
        <ele>494.716</ele>
        <time>2017-03-24T12:50:46Z</time>
      </trkpt>
      <trkpt lat="45.94067" lon="1.95268">
        <ele>487.12</ele>
        <time>2017-03-24T12:51:06Z</time>
      </trkpt>
      <trkpt lat="45.94054" lon="1.95399">
        <ele>489.659</ele>
        <time>2017-03-24T12:51:26Z</time>
      </trkpt>
      <trkpt lat="45.94056" lon="1.95464">
        <ele>483.403</ele>
        <time>2017-03-24T12:51:46Z</time>
      </trkpt>
      <trkpt lat="45.94079" lon="1.95513">
        <ele>478.223</ele>
        <time>2017-03-24T12:52:06Z</time>
      </trkpt>
      <trkpt lat="45.94129" lon="1.95564">
        <ele>481.108</ele>
        <time>2017-03-24T12:52:26Z</time>
      </trkpt>
      <trkpt lat="45.94134" lon="1.95593">
        <ele>485.131</ele>
        <time>2017-03-24T12:52:46Z</time>
      </trkpt>
      <trkpt lat="45.94118" lon="1.95641">
        <ele>489.655</ele>
        <time>2017-03-24T12:53:06Z</time>
      </trkpt>
      <trkpt lat="45.94049" lon="1.95736">
        <ele>487.522</ele>
        <time>2017-03-24T12:53:26Z</time>
      </trkpt>
      <trkpt lat="45.94033" lon="1.95799">
        <ele>490.185</ele>
        <time>2017-03-24T12:53:46Z</time>
      </trkpt>
      <trkpt lat="45.94027" lon="1.95909">
        <ele>492.776</ele>
        <time>2017-03-24T12:54:06Z</time>
      </trkpt>
      <trkpt lat="45.94009" lon="1.95914">
        <ele>492.219</ele>
        <time>2017-03-24T12:54:26Z</time>
      </trkpt>
      <trkpt lat="45.93973" lon="1.95894">
        <ele>489.435</ele>
        <time>2017-03-24T12:54:46Z</time>
      </trkpt>
      <trkpt lat="45.93943" lon="1.95904">
        <ele>486.499</ele>
        <time>2017-03-24T12:55:06Z</time>
      </trkpt>
      <trkpt lat="45.9386" lon="1.96065">
        <ele>484.627</ele>
        <time>2017-03-24T12:55:26Z</time>
      </trkpt>
      <trkpt lat="45.93795" lon="1.96114">
        <ele>481.168</ele>
        <time>2020-01-15T14:42:00Z</time>
      </trkpt>
      <trkpt lat="45.93742" lon="1.96182">
        <ele>480.114</ele>
        <time>2020-01-15T14:42:20Z</time>
      </trkpt>
      <trkpt lat="45.93693" lon="1.96319">
        <ele>485.308</ele>
        <time>2017-03-24T12:56:26Z</time>
      </trkpt>
      <trkpt lat="45.9369" lon="1.96371">
        <ele>488.858</ele>
        <time>2017-03-24T12:56:46Z</time>
      </trkpt>
      <trkpt lat="45.93647" lon="1.96456">
        <ele>486.152</ele>
        <time>2017-03-24T12:57:06Z</time>
      </trkpt>
      <trkpt lat="45.93602" lon="1.96516">
        <ele>483.389</ele>
        <time>2020-11-19T19:57:45Z</time>
      </trkpt>
      <trkpt lat="45.93598" lon="1.96563">
        <ele>485.742</ele>
        <time>2020-11-19T19:58:05Z</time>
      </trkpt>
      <trkpt lat="45.93654" lon="1.96657">
        <ele>490.173</ele>
        <time>2020-01-15T14:44:20Z</time>
      </trkpt>
      <trkpt lat="45.93692" lon="1.96656">
        <ele>493.276</ele>
        <time>2020-11-19T19:58:45Z</time>
      </trkpt>
      <trkpt lat="45.93695" lon="1.96693">
        <ele>494.052</ele>
        <time>2020-01-15T14:45:00Z</time>
      </trkpt>
      <trkpt lat="45.93692" lon="1.9673">
        <ele>494.956</ele>
        <time>2020-11-19T19:59:25Z</time>
      </trkpt>
      <trkpt lat="45.93689" lon="1.96793">
        <ele>496.981</ele>
        <time>2020-11-19T19:59:45Z</time>
      </trkpt>
      <trkpt lat="45.93657" lon="1.96799">
        <ele>490.961</ele>
        <time>2020-11-19T20:00:05Z</time>
      </trkpt>
      <trkpt lat="45.93675" lon="1.96834">
        <ele>492.717</ele>
        <time>2020-11-19T20:00:25Z</time>
      </trkpt>
      <trkpt lat="45.93654" lon="1.96946">
        <ele>493.608</ele>
        <time>2017-03-24T12:59:46Z</time>
      </trkpt>
      <trkpt lat="45.93601" lon="1.97068">
        <ele>492.364</ele>
        <time>2017-03-24T13:00:06Z</time>
      </trkpt>
      <trkpt lat="45.93553" lon="1.97226">
        <ele>494.058</ele>
        <time>2017-03-24T13:00:26Z</time>
      </trkpt>
      <trkpt lat="45.93545" lon="1.97331">
        <ele>496.955</ele>
        <time>2017-03-24T13:00:46Z</time>
      </trkpt>
      <trkpt lat="45.93473" lon="1.97425">
        <ele>496.758</ele>
        <time>2017-03-24T13:01:06Z</time>
      </trkpt>
      <trkpt lat="45.93427" lon="1.97508">
        <ele>491.489</ele>
        <time>2017-03-24T13:01:26Z</time>
      </trkpt>
      <trkpt lat="45.93442" lon="1.97577">
        <ele>492.652</ele>
        <time>2017-03-24T13:01:46Z</time>
      </trkpt>
      <trkpt lat="45.93366" lon="1.97731">
        <ele>493.438</ele>
        <time>2017-03-24T13:02:06Z</time>
      </trkpt>
      <trkpt lat="45.93337" lon="1.97764">
        <ele>495.662</ele>
        <time>2017-03-24T13:02:26Z</time>
      </trkpt>
      <trkpt lat="45.93333" lon="1.97876">
        <ele>491.037</ele>
        <time>2017-03-24T13:02:46Z</time>
      </trkpt>
      <trkpt lat="45.93277" lon="1.9783">
        <ele>498.749</ele>
        <time>2017-03-24T13:03:06Z</time>
      </trkpt>
      <trkpt lat="45.93246" lon="1.97849">
        <ele>498.413</ele>
        <time>2017-03-24T13:03:26Z</time>
      </trkpt>
      <trkpt lat="45.93215" lon="1.97898">
        <ele>499.008</ele>
        <time>2017-03-24T13:03:46Z</time>
      </trkpt>
      <trkpt lat="45.93192" lon="1.9796">
        <ele>502.479</ele>
        <time>2017-03-24T13:04:06Z</time>
      </trkpt>
      <trkpt lat="45.93191" lon="1.9799">
        <ele>501.973</ele>
        <time>2017-03-24T13:04:26Z</time>
      </trkpt>
      <trkpt lat="45.9323" lon="1.97996">
        <ele>497.04</ele>
        <time>2017-03-24T13:04:46Z</time>
      </trkpt>
      <trkpt lat="45.93242" lon="1.98024">
        <ele>496.893</ele>
        <time>2017-03-24T13:05:06Z</time>
      </trkpt>
      <trkpt lat="45.93304" lon="1.9802">
        <ele>499.944</ele>
        <time>2017-03-24T13:05:26Z</time>
      </trkpt>
      <trkpt lat="45.93357" lon="1.98041">
        <ele>500.397</ele>
        <time>2017-03-24T13:05:46Z</time>
      </trkpt>
      <trkpt lat="45.93387" lon="1.98037">
        <ele>503.493</ele>
        <time>2017-03-24T13:06:06Z</time>
      </trkpt>
      <trkpt lat="45.93384" lon="1.98096">
        <ele>505.857</ele>
        <time>2020-01-15T14:53:40Z</time>
      </trkpt>
      <trkpt lat="45.93349" lon="1.98168">
        <ele>504.747</ele>
        <time>2020-01-15T14:54:00Z</time>
      </trkpt>
      <trkpt lat="45.93305" lon="1.98212">
        <ele>509.529</ele>
        <time>2020-01-15T14:54:20Z</time>
      </trkpt>
      <trkpt lat="45.93294" lon="1.98262">
        <ele>515.821</ele>
        <time>2020-01-15T14:54:40Z</time>
      </trkpt>
      <trkpt lat="45.93312" lon="1.9833">
        <ele>520.108</ele>
        <time>2020-01-15T14:55:00Z</time>
      </trkpt>
      <trkpt lat="45.93319" lon="1.9842">
        <ele>526.24</ele>
        <time>2020-01-15T14:55:20Z</time>
      </trkpt>
      <trkpt lat="45.93266" lon="1.9842">
        <ele>528.364</ele>
        <time>2017-03-24T13:07:46Z</time>
      </trkpt>
      <trkpt lat="45.93251" lon="1.98453">
        <ele>533.981</ele>
        <time>2017-03-24T13:08:06Z</time>
      </trkpt>
      <trkpt lat="45.93274" lon="1.98487">
        <ele>534.974</ele>
        <time>2017-03-24T13:08:26Z</time>
      </trkpt>
      <trkpt lat="45.93283" lon="1.98547">
        <ele>538.185</ele>
        <time>2017-03-24T13:08:46Z</time>
      </trkpt>
      <trkpt lat="45.93274" lon="1.98633">
        <ele>539.228</ele>
        <time>2017-03-24T13:09:06Z</time>
      </trkpt>
      <trkpt lat="45.93345" lon="1.98737">
        <ele>534.544</ele>
        <time>2017-03-24T13:09:26Z</time>
      </trkpt>
      <trkpt lat="45.93359" lon="1.98827">
        <ele>532.448</ele>
        <time>2017-03-24T13:09:46Z</time>
      </trkpt>
      <trkpt lat="45.93321" lon="1.98849">
        <ele>534.177</ele>
        <time>2017-03-24T13:10:06Z</time>
      </trkpt>
      <trkpt lat="45.93263" lon="1.98931">
        <ele>532.761</ele>
        <time>2017-03-24T13:10:26Z</time>
      </trkpt>
      <trkpt lat="45.93238" lon="1.99036">
        <ele>535.527</ele>
        <time>2017-03-24T13:10:46Z</time>
      </trkpt>
      <trkpt lat="45.93226" lon="1.99243">
        <ele>536.008</ele>
        <time>2017-03-24T13:11:06Z</time>
      </trkpt>
      <trkpt lat="45.93145" lon="1.99453">
        <ele>537.253</ele>
        <time>2017-03-24T13:11:26Z</time>
      </trkpt>
      <trkpt lat="45.93048" lon="1.99741">
        <ele>526.247</ele>
        <time>2017-03-24T13:11:46Z</time>
      </trkpt>
      <trkpt lat="45.93018" lon="1.99792">
        <ele>521.634</ele>
        <time>2017-03-24T13:12:06Z</time>
      </trkpt>
      <trkpt lat="45.93013" lon="1.99881">
        <ele>519.897</ele>
        <time>2017-03-24T13:12:26Z</time>
      </trkpt>
      <trkpt lat="45.9305" lon="1.99962">
        <ele>515.658</ele>
        <time>2017-03-24T13:12:46Z</time>
      </trkpt>
      <trkpt lat="45.93057" lon="2.00085">
        <ele>508.131</ele>
        <time>2017-03-24T13:13:06Z</time>
      </trkpt>
      <trkpt lat="45.93031" lon="2.00149">
        <ele>515.177</ele>
        <time>2017-03-24T13:13:26Z</time>
      </trkpt>
      <trkpt lat="45.93001" lon="2.00192">
        <ele>522.671</ele>
        <time>2017-03-24T13:13:46Z</time>
      </trkpt>
      <trkpt lat="45.92981" lon="2.00334">
        <ele>536.337</ele>
        <time>2017-03-24T13:14:06Z</time>
      </trkpt>
      <trkpt lat="45.93014" lon="2.00396">
        <ele>542.049</ele>
        <time>2017-03-24T13:14:26Z</time>
      </trkpt>
      <trkpt lat="45.93021" lon="2.00473">
        <ele>544.213</ele>
        <time>2017-03-24T13:14:46Z</time>
      </trkpt>
      <trkpt lat="45.93101" lon="2.00788">
        <ele>562.508</ele>
        <time>2017-03-24T13:15:06Z</time>
      </trkpt>
      <trkpt lat="45.93103" lon="2.00827">
        <ele>563.939</ele>
        <time>2017-03-24T13:15:26Z</time>
      </trkpt>
      <trkpt lat="45.93125" lon="2.00861">
        <ele>567.453</ele>
        <time>2017-03-24T13:15:46Z</time>
      </trkpt>
      <trkpt lat="45.93165" lon="2.0098">
        <ele>572.65</ele>
        <time>2017-03-24T13:16:06Z</time>
      </trkpt>
      <trkpt lat="45.93191" lon="2.01047">
        <ele>576.633</ele>
        <time>2020-01-15T15:04:20Z</time>
      </trkpt>
      <trkpt lat="45.93227" lon="2.01121">
        <ele>579.654</ele>
        <time>2017-03-24T13:16:46Z</time>
      </trkpt>
      <trkpt lat="45.93251" lon="2.01295">
        <ele>580.827</ele>
        <time>2017-03-24T13:17:06Z</time>
      </trkpt>
      <trkpt lat="45.9326" lon="2.01451">
        <ele>580.073</ele>
        <time>2017-03-24T13:17:26Z</time>
      </trkpt>
      <trkpt lat="45.93292" lon="2.015">
        <ele>581.587</ele>
        <time>2020-01-15T15:05:40Z</time>
      </trkpt>
      <trkpt lat="45.93382" lon="2.01536">
        <ele>582.795</ele>
        <time>2017-03-24T13:18:06Z</time>
      </trkpt>
      <trkpt lat="45.9344" lon="2.01584">
        <ele>580.749</ele>
        <time>2020-01-15T15:06:20Z</time>
      </trkpt>
      <trkpt lat="45.93583" lon="2.01669">
        <ele>577.123</ele>
        <time>2017-03-24T13:18:46Z</time>
      </trkpt>
      <trkpt lat="45.9361" lon="2.01722">
        <ele>575.008</ele>
        <time>2020-01-15T15:07:00Z</time>
      </trkpt>
      <trkpt lat="45.93611" lon="2.018">
        <ele>571.015</ele>
        <time>2020-01-15T15:07:20Z</time>
      </trkpt>
      <trkpt lat="45.93639" lon="2.0184">
        <ele>568.929</ele>
        <time>2020-01-15T15:07:40Z</time>
      </trkpt>
      <trkpt lat="45.93717" lon="2.01906">
        <ele>562.346</ele>
        <time>2017-03-24T13:19:46Z</time>
      </trkpt>
      <trkpt lat="45.93757" lon="2.02">
        <ele>568.249</ele>
        <time>2020-01-15T15:08:20Z</time>
      </trkpt>
      <trkpt lat="45.93792" lon="2.02012">
        <ele>565.32</ele>
        <time>2020-01-15T15:08:40Z</time>
      </trkpt>
      <trkpt lat="45.93837" lon="2.02066">
        <ele>564.663</ele>
        <time>2020-01-15T15:09:00Z</time>
      </trkpt>
      <trkpt lat="45.9392" lon="2.0207">
        <ele>566.999</ele>
        <time>2020-01-15T15:09:20Z</time>
      </trkpt>
      <trkpt lat="45.93938" lon="2.02108">
        <ele>566.233</ele>
        <time>2017-03-24T13:21:26Z</time>
      </trkpt>
      <trkpt lat="45.9422" lon="2.02195">
        <ele>593.883</ele>
        <time>2017-03-24T13:21:46Z</time>
      </trkpt>
      <trkpt lat="45.94292" lon="2.02244">
        <ele>592.825</ele>
        <time>2017-03-24T13:22:06Z</time>
      </trkpt>
      <trkpt lat="45.94335" lon="2.02292">
        <ele>592.617</ele>
        <time>2020-01-15T15:10:40Z</time>
      </trkpt>
      <trkpt lat="45.94353" lon="2.02381">
        <ele>592.408</ele>
        <time>2020-01-15T15:11:00Z</time>
      </trkpt>
      <trkpt lat="45.94369" lon="2.02411">
        <ele>593.464</ele>
        <time>2020-01-15T15:11:20Z</time>
      </trkpt>
      <trkpt lat="45.94367" lon="2.0246">
        <ele>593.198</ele>
        <time>2017-03-24T13:23:06Z</time>
      </trkpt>
      <trkpt lat="45.94345" lon="2.02544">
        <ele>596.695</ele>
        <time>2017-03-24T13:23:26Z</time>
      </trkpt>
      <trkpt lat="45.94348" lon="2.02561">
        <ele>597.798</ele>
        <time>2017-03-24T13:23:46Z</time>
      </trkpt>
      <trkpt lat="45.94333" lon="2.02587">
        <ele>598.029</ele>
        <time>2017-03-24T13:24:06Z</time>
      </trkpt>
      <trkpt lat="45.94329" lon="2.02656">
        <ele>597.852</ele>
        <time>2017-03-24T13:24:26Z</time>
      </trkpt>
      <trkpt lat="45.94302" lon="2.02696">
        <ele>599.998</ele>
        <time>2017-03-24T13:24:46Z</time>
      </trkpt>
      <trkpt lat="45.94244" lon="2.02735">
        <ele>603.132</ele>
        <time>2017-03-24T13:25:06Z</time>
      </trkpt>
      <trkpt lat="45.94157" lon="2.02815">
        <ele>611.176</ele>
        <time>2017-03-24T13:25:26Z</time>
      </trkpt>
      <trkpt lat="45.94134" lon="2.02862">
        <ele>613.49</ele>
        <time>2017-03-24T13:25:46Z</time>
      </trkpt>
      <trkpt lat="45.9406" lon="2.03117">
        <ele>619.919</ele>
        <time>2017-03-24T13:26:06Z</time>
      </trkpt>
      <trkpt lat="45.94067" lon="2.03259">
        <ele>619.108</ele>
        <time>2017-03-24T13:26:26Z</time>
      </trkpt>
      <trkpt lat="45.94083" lon="2.03336">
        <ele>620.993</ele>
        <time>2017-03-24T13:26:46Z</time>
      </trkpt>
      <trkpt lat="45.94037" lon="2.03458">
        <ele>609.867</ele>
        <time>2017-03-24T13:27:06Z</time>
      </trkpt>
      <trkpt lat="45.94041" lon="2.03553">
        <ele>613.274</ele>
        <time>2017-03-24T13:27:26Z</time>
      </trkpt>
      <trkpt lat="45.93945" lon="2.03619">
        <ele>612.477</ele>
        <time>2017-03-24T13:27:46Z</time>
      </trkpt>
      <trkpt lat="45.93882" lon="2.03681">
        <ele>615.618</ele>
        <time>2017-03-24T13:28:06Z</time>
      </trkpt>
      <trkpt lat="45.93832" lon="2.03778">
        <ele>613.781</ele>
        <time>2017-03-24T13:28:26Z</time>
      </trkpt>
      <trkpt lat="45.93797" lon="2.03888">
        <ele>614.027</ele>
        <time>2017-03-24T13:28:46Z</time>
      </trkpt>
      <trkpt lat="45.93795" lon="2.03986">
        <ele>620.311</ele>
        <time>2017-03-24T13:29:06Z</time>
      </trkpt>
      <trkpt lat="45.93737" lon="2.04072">
        <ele>617.373</ele>
        <time>2017-03-24T13:29:26Z</time>
      </trkpt>
      <trkpt lat="45.93801" lon="2.04031">
        <ele>626.285</ele>
        <time>2017-03-24T13:29:46Z</time>
      </trkpt>
      <trkpt lat="45.93831" lon="2.03987">
        <ele>630.113</ele>
        <time>2017-03-24T13:30:06Z</time>
      </trkpt>
      <trkpt lat="45.93842" lon="2.03953">
        <ele>630.008</ele>
        <time>2017-03-24T13:30:26Z</time>
      </trkpt>
      <trkpt lat="45.9392" lon="2.03838">
        <ele>640.423</ele>
        <time>2017-03-24T13:30:46Z</time>
      </trkpt>
      <trkpt lat="45.93959" lon="2.03816">
        <ele>639.937</ele>
        <time>2017-03-24T13:31:06Z</time>
      </trkpt>
      <trkpt lat="45.93997" lon="2.03828">
        <ele>641.584</ele>
        <time>2017-03-24T13:31:26Z</time>
      </trkpt>
      <trkpt lat="45.94223" lon="2.04001">
        <ele>650.037</ele>
        <time>2017-03-24T13:31:46Z</time>
      </trkpt>
      <trkpt lat="45.94282" lon="2.04118">
        <ele>651.768</ele>
        <time>2017-03-24T13:32:06Z</time>
      </trkpt>
      <trkpt lat="45.94138" lon="2.04231">
        <ele>661.161</ele>
        <time>2017-03-24T13:32:26Z</time>
      </trkpt>
      <trkpt lat="45.94072" lon="2.04273">
        <ele>671.647</ele>
        <time>2017-03-24T13:32:46Z</time>
      </trkpt>
      <trkpt lat="45.93988" lon="2.045">
        <ele>674.211</ele>
        <time>2017-03-24T13:33:06Z</time>
      </trkpt>
      <trkpt lat="45.93977" lon="2.04614">
        <ele>674.362</ele>
        <time>2017-03-24T13:33:26Z</time>
      </trkpt>
      <trkpt lat="45.93994" lon="2.04704">
        <ele>674.583</ele>
        <time>2017-03-24T13:33:46Z</time>
      </trkpt>
      <trkpt lat="45.93992" lon="2.04753">
        <ele>673.211</ele>
        <time>2017-03-24T13:34:06Z</time>
      </trkpt>
      <trkpt lat="45.93979" lon="2.04803">
        <ele>673.408</ele>
        <time>2017-03-24T13:34:26Z</time>
      </trkpt>
      <trkpt lat="45.93849" lon="2.05028">
        <ele>672.692</ele>
        <time>2017-03-24T13:34:46Z</time>
      </trkpt>
      <trkpt lat="45.93728" lon="2.05201">
        <ele>663.466</ele>
        <time>2017-03-24T13:35:06Z</time>
      </trkpt>
      <trkpt lat="45.93653" lon="2.05283">
        <ele>662.073</ele>
        <time>2017-03-24T13:35:26Z</time>
      </trkpt>
      <trkpt lat="45.93618" lon="2.05363">
        <ele>663.396</ele>
        <time>2017-03-24T13:35:46Z</time>
      </trkpt>
      <trkpt lat="45.93659" lon="2.05451">
        <ele>671.227</ele>
        <time>2017-03-24T13:36:06Z</time>
      </trkpt>
      <trkpt lat="45.938" lon="2.05535">
        <ele>670.22</ele>
        <time>2017-03-24T13:36:26Z</time>
      </trkpt>
      <trkpt lat="45.9382" lon="2.05564">
        <ele>670.646</ele>
        <time>2017-03-24T13:36:46Z</time>
      </trkpt>
      <trkpt lat="45.93881" lon="2.05621">
        <ele>664.97</ele>
        <time>2017-03-24T13:37:06Z</time>
      </trkpt>
      <trkpt lat="45.93955" lon="2.05644">
        <ele>660.524</ele>
        <time>2017-03-24T13:37:26Z</time>
      </trkpt>
      <trkpt lat="45.94035" lon="2.05641">
        <ele>649.104</ele>
        <time>2017-03-24T13:37:46Z</time>
      </trkpt>
      <trkpt lat="45.94139" lon="2.05693">
        <ele>640.114</ele>
        <time>2017-03-24T13:38:06Z</time>
      </trkpt>
      <trkpt lat="45.94255" lon="2.0571">
        <ele>628.108</ele>
        <time>2017-03-24T13:38:26Z</time>
      </trkpt>
      <trkpt lat="45.9426" lon="2.05758">
        <ele>626.218</ele>
        <time>2017-03-24T13:38:46Z</time>
      </trkpt>
      <trkpt lat="45.94299" lon="2.05831">
        <ele>628.222</ele>
        <time>2017-03-24T13:39:06Z</time>
      </trkpt>
      <trkpt lat="45.94323" lon="2.0582">
        <ele>631.179</ele>
        <time>2017-03-24T13:39:26Z</time>
      </trkpt>
      <trkpt lat="45.94358" lon="2.05765">
        <ele>633.732</ele>
        <time>2017-03-24T13:39:46Z</time>
      </trkpt>
      <trkpt lat="45.94402" lon="2.05736">
        <ele>638.193</ele>
        <time>2017-03-24T13:40:06Z</time>
      </trkpt>
      <trkpt lat="45.94445" lon="2.05731">
        <ele>641.216</ele>
        <time>2017-03-24T13:40:26Z</time>
      </trkpt>
      <trkpt lat="45.94621" lon="2.0581">
        <ele>643.812</ele>
        <time>2017-03-24T13:40:46Z</time>
      </trkpt>
      <trkpt lat="45.94758" lon="2.0589">
        <ele>644.386</ele>
        <time>2017-03-24T13:41:06Z</time>
      </trkpt>
      <trkpt lat="45.94806" lon="2.0591">
        <ele>645.259</ele>
        <time>2017-03-24T13:41:26Z</time>
      </trkpt>
      <trkpt lat="45.94658" lon="2.06008">
        <ele>654.803</ele>
        <time>2017-03-24T13:41:46Z</time>
      </trkpt>
      <trkpt lat="45.94593" lon="2.06118">
        <ele>660.723</ele>
        <time>2017-03-24T13:42:06Z</time>
      </trkpt>
      <trkpt lat="45.94539" lon="2.06228">
        <ele>661.508</ele>
        <time>2017-03-24T13:42:26Z</time>
      </trkpt>
      <trkpt lat="45.94482" lon="2.06382">
        <ele>662.441</ele>
        <time>2017-03-24T13:42:46Z</time>
      </trkpt>
      <trkpt lat="45.94502" lon="2.06545">
        <ele>667.665</ele>
        <time>2017-03-24T13:43:06Z</time>
      </trkpt>
      <trkpt lat="45.94527" lon="2.06625">
        <ele>669.072</ele>
        <time>2020-01-15T15:32:00Z</time>
      </trkpt>
      <trkpt lat="45.946" lon="2.06719">
        <ele>672.495</ele>
        <time>2020-01-15T15:32:20Z</time>
      </trkpt>
      <trkpt lat="45.94636" lon="2.06819">
        <ele>674.046</ele>
        <time>2020-01-15T15:32:40Z</time>
      </trkpt>
      <trkpt lat="45.94683" lon="2.06893">
        <ele>675.649</ele>
        <time>2020-01-15T15:33:00Z</time>
      </trkpt>
      <trkpt lat="45.94749" lon="2.06959">
        <ele>675.145</ele>
        <time>2020-01-15T15:33:20Z</time>
      </trkpt>
      <trkpt lat="45.94751" lon="2.06977">
        <ele>674.689</ele>
        <time>2020-01-15T15:33:40Z</time>
      </trkpt>
      <trkpt lat="45.94782" lon="2.06983">
        <ele>670.527</ele>
        <time>2020-01-15T15:34:00Z</time>
      </trkpt>
      <trkpt lat="45.94898" lon="2.07137">
        <ele>663.568</ele>
        <time>2020-01-15T15:34:20Z</time>
      </trkpt>
      <trkpt lat="45.94988" lon="2.07172">
        <ele>656.314</ele>
        <time>2017-03-24T13:45:26Z</time>
      </trkpt>
      <trkpt lat="45.95022" lon="2.07198">
        <ele>652.908</ele>
        <time>2020-01-15T15:35:00Z</time>
      </trkpt>
      <trkpt lat="45.95111" lon="2.07195">
        <ele>657.028</ele>
        <time>2017-03-24T13:45:46Z</time>
      </trkpt>
      <trkpt lat="45.95267" lon="2.07192">
        <ele>654.052</ele>
        <time>2017-03-24T13:46:06Z</time>
      </trkpt>
      <trkpt lat="45.95381" lon="2.07134">
        <ele>650.439</ele>
        <time>2017-03-24T13:46:26Z</time>
      </trkpt>
      <trkpt lat="45.95502" lon="2.07084">
        <ele>644.852</ele>
        <time>2017-03-24T13:46:46Z</time>
      </trkpt>
      <trkpt lat="45.95604" lon="2.0709">
        <ele>630.473</ele>
        <time>2017-03-24T13:47:06Z</time>
      </trkpt>
      <trkpt lat="45.9567" lon="2.0707">
        <ele>623.726</ele>
        <time>2017-03-24T13:47:26Z</time>
      </trkpt>
      <trkpt lat="45.95717" lon="2.07031">
        <ele>621.312</ele>
        <time>2017-03-24T13:47:46Z</time>
      </trkpt>
      <trkpt lat="45.95939" lon="2.06922">
        <ele>614.236</ele>
        <time>2017-03-24T13:48:06Z</time>
      </trkpt>
      <trkpt lat="45.96003" lon="2.06891">
        <ele>615.076</ele>
        <time>2017-03-24T13:48:26Z</time>
      </trkpt>
      <trkpt lat="45.96034" lon="2.0693">
        <ele>615.29</ele>
        <time>2017-03-24T13:48:46Z</time>
      </trkpt>
      <trkpt lat="45.96046" lon="2.07013">
        <ele>614.619</ele>
        <time>2017-03-24T13:49:06Z</time>
      </trkpt>
      <trkpt lat="45.96076" lon="2.07145">
        <ele>607.508</ele>
        <time>2017-03-24T13:49:26Z</time>
      </trkpt>
      <trkpt lat="45.96198" lon="2.07437">
        <ele>590.273</ele>
        <time>2017-03-24T13:49:46Z</time>
      </trkpt>
      <trkpt lat="45.96204" lon="2.0749">
        <ele>588.897</ele>
        <time>2017-03-24T13:50:06Z</time>
      </trkpt>
      <trkpt lat="45.96199" lon="2.0751">
        <ele>587.054</ele>
        <time>2020-01-15T15:40:00Z</time>
      </trkpt>
      <trkpt lat="45.9617" lon="2.07526">
        <ele>580.047</ele>
        <time>2017-03-24T13:50:26Z</time>
      </trkpt>
      <trkpt lat="45.9626" lon="2.07541">
        <ele>575.438</ele>
        <time>2020-01-15T15:40:40Z</time>
      </trkpt>
      <trkpt lat="45.96303" lon="2.07578">
        <ele>570.171</ele>
        <time>2017-03-24T13:51:06Z</time>
      </trkpt>
      <trkpt lat="45.96342" lon="2.07634">
        <ele>564.337</ele>
        <time>2017-03-24T13:51:26Z</time>
      </trkpt>
      <trkpt lat="45.96331" lon="2.07693">
        <ele>562.141</ele>
        <time>2017-03-24T13:51:46Z</time>
      </trkpt>
      <trkpt lat="45.96324" lon="2.07801">
        <ele>558.774</ele>
        <time>2017-03-24T13:52:06Z</time>
      </trkpt>
      <trkpt lat="45.96332" lon="2.07868">
        <ele>558.956</ele>
        <time>2017-03-24T13:52:26Z</time>
      </trkpt>
      <trkpt lat="45.96419" lon="2.08104">
        <ele>568.821</ele>
        <time>2017-03-24T13:52:46Z</time>
      </trkpt>
      <trkpt lat="45.96492" lon="2.08245">
        <ele>577.908</ele>
        <time>2017-03-24T13:53:06Z</time>
      </trkpt>
      <trkpt lat="45.96512" lon="2.08365">
        <ele>586.143</ele>
        <time>2017-03-24T13:53:26Z</time>
      </trkpt>
      <trkpt lat="45.96481" lon="2.08414">
        <ele>589.387</ele>
        <time>2017-03-24T13:53:46Z</time>
      </trkpt>
      <trkpt lat="45.96479" lon="2.08462">
        <ele>589.114</ele>
        <time>2017-03-24T13:54:06Z</time>
      </trkpt>
      <trkpt lat="45.96493" lon="2.0851">
        <ele>587.037</ele>
        <time>2017-03-24T13:54:26Z</time>
      </trkpt>
      <trkpt lat="45.96503" lon="2.08642">
        <ele>581.728</ele>
        <time>2017-03-24T13:54:46Z</time>
      </trkpt>
      <trkpt lat="45.96458" lon="2.08676">
        <ele>581.051</ele>
        <time>2017-03-24T13:55:06Z</time>
      </trkpt>
      <trkpt lat="45.96451" lon="2.08717">
        <ele>579.217</ele>
        <time>2017-03-24T13:55:26Z</time>
      </trkpt>
      <trkpt lat="45.96456" lon="2.08772">
        <ele>577.511</ele>
        <time>2017-03-24T13:55:46Z</time>
      </trkpt>
      <trkpt lat="45.96192" lon="2.08932">
        <ele>571.645</ele>
        <time>2017-03-24T13:56:06Z</time>
      </trkpt>
      <trkpt lat="45.96146" lon="2.08983">
        <ele>571.147</ele>
        <time>2017-03-24T13:56:26Z</time>
      </trkpt>
      <trkpt lat="45.96074" lon="2.09027">
        <ele>581.311</ele>
        <time>2017-03-24T13:56:46Z</time>
      </trkpt>
      <trkpt lat="45.96037" lon="2.09072">
        <ele>589.108</ele>
        <time>2017-03-24T13:57:06Z</time>
      </trkpt>
      <trkpt lat="45.95992" lon="2.09159">
        <ele>587.91</ele>
        <time>2017-03-24T13:57:26Z</time>
      </trkpt>
      <trkpt lat="45.95913" lon="2.0927">
        <ele>588.244</ele>
        <time>2017-03-24T13:57:46Z</time>
      </trkpt>
      <trkpt lat="45.95834" lon="2.09284">
        <ele>587.641</ele>
        <time>2017-03-24T13:58:06Z</time>
      </trkpt>
      <trkpt lat="45.95798" lon="2.09318">
        <ele>583.644</ele>
        <time>2017-03-24T13:58:26Z</time>
      </trkpt>
      <trkpt lat="45.95782" lon="2.09356">
        <ele>581.445</ele>
        <time>2020-01-15T15:48:40Z</time>
      </trkpt>
      <trkpt lat="45.95803" lon="2.09395">
        <ele>579.378</ele>
        <time>2017-03-24T13:59:06Z</time>
      </trkpt>
      <trkpt lat="45.95845" lon="2.09449">
        <ele>584.264</ele>
        <time>2017-03-24T13:59:26Z</time>
      </trkpt>
      <trkpt lat="45.95875" lon="2.09543">
        <ele>590.038</ele>
        <time>2017-03-24T13:59:46Z</time>
      </trkpt>
      <trkpt lat="45.95908" lon="2.09678">
        <ele>593.784</ele>
        <time>2017-03-24T14:00:06Z</time>
      </trkpt>
      <trkpt lat="45.95895" lon="2.09811">
        <ele>593.007</ele>
        <time>2017-03-24T14:00:26Z</time>
      </trkpt>
      <trkpt lat="45.95866" lon="2.09883">
        <ele>594.117</ele>
        <time>2017-03-24T14:00:46Z</time>
      </trkpt>
      <trkpt lat="45.95747" lon="2.09997">
        <ele>609.608</ele>
        <time>2017-03-24T14:01:06Z</time>
      </trkpt>
      <trkpt lat="45.95721" lon="2.10123">
        <ele>613.394</ele>
        <time>2017-03-24T14:01:26Z</time>
      </trkpt>
      <trkpt lat="45.95683" lon="2.10213">
        <ele>615.038</ele>
        <time>2017-03-24T14:01:46Z</time>
      </trkpt>
      <trkpt lat="45.95599" lon="2.10211">
        <ele>607.495</ele>
        <time>2017-03-24T14:02:06Z</time>
      </trkpt>
      <trkpt lat="45.95558" lon="2.10227">
        <ele>608.988</ele>
        <time>2017-03-24T14:02:26Z</time>
      </trkpt>
      <trkpt lat="45.95483" lon="2.10229">
        <ele>607.719</ele>
        <time>2017-03-24T14:02:46Z</time>
      </trkpt>
      <trkpt lat="45.95441" lon="2.10213">
        <ele>608.972</ele>
        <time>2017-03-24T14:03:06Z</time>
      </trkpt>
      <trkpt lat="45.95374" lon="2.10212">
        <ele>613.298</ele>
        <time>2017-03-24T14:03:26Z</time>
      </trkpt>
      <trkpt lat="45.95338" lon="2.1019">
        <ele>613.262</ele>
        <time>2017-03-24T14:03:46Z</time>
      </trkpt>
      <trkpt lat="45.95321" lon="2.10228">
        <ele>617.145</ele>
        <time>2017-03-24T14:04:06Z</time>
      </trkpt>
      <trkpt lat="45.95286" lon="2.10233">
        <ele>619.147</ele>
        <time>2017-03-24T14:04:26Z</time>
      </trkpt>
      <trkpt lat="45.95207" lon="2.10434">
        <ele>631.711</ele>
        <time>2017-03-24T14:04:46Z</time>
      </trkpt>
      <trkpt lat="45.95252" lon="2.10473">
        <ele>630.908</ele>
        <time>2017-03-24T14:05:06Z</time>
      </trkpt>
      <trkpt lat="45.95343" lon="2.10579">
        <ele>625.65</ele>
        <time>2017-03-24T14:05:26Z</time>
      </trkpt>
      <trkpt lat="45.95484" lon="2.10686">
        <ele>624.394</ele>
        <time>2017-03-24T14:05:46Z</time>
      </trkpt>
      <trkpt lat="45.95579" lon="2.10782">
        <ele>627.771</ele>
        <time>2017-03-24T14:06:06Z</time>
      </trkpt>
      <trkpt lat="45.95633" lon="2.10861">
        <ele>632.314</ele>
        <time>2017-03-24T14:06:26Z</time>
      </trkpt>
      <trkpt lat="45.95682" lon="2.10934">
        <ele>630.625</ele>
        <time>2017-03-24T14:06:46Z</time>
      </trkpt>
      <trkpt lat="45.95716" lon="2.11043">
        <ele>621.598</ele>
        <time>2017-03-24T14:07:06Z</time>
      </trkpt>
      <trkpt lat="45.95732" lon="2.11129">
        <ele>621.274</ele>
        <time>2017-03-24T14:07:26Z</time>
      </trkpt>
      <trkpt lat="45.95732" lon="2.11129">
        <ele>621.288</ele>
        <time>2017-03-24T14:07:46Z</time>
      </trkpt>
      <trkpt lat="45.95724" lon="2.11203">
        <ele>621.081</ele>
        <time>2017-03-24T14:08:06Z</time>
      </trkpt>
      <trkpt lat="45.95698" lon="2.11279">
        <ele>620.961</ele>
        <time>2017-03-24T14:08:26Z</time>
      </trkpt>
      <trkpt lat="45.95657" lon="2.11548">
        <ele>610.517</ele>
        <time>2017-03-24T14:08:46Z</time>
      </trkpt>
      <trkpt lat="45.95677" lon="2.1164">
        <ele>613.708</ele>
        <time>2017-03-24T14:09:06Z</time>
      </trkpt>
      <trkpt lat="45.9571" lon="2.11702">
        <ele>610.714</ele>
        <time>2017-03-24T14:09:26Z</time>
      </trkpt>
      <trkpt lat="45.95769" lon="2.1183">
        <ele>607.088</ele>
        <time>2017-03-24T14:09:46Z</time>
      </trkpt>
      <trkpt lat="45.95826" lon="2.11845">
        <ele>609.425</ele>
        <time>2017-03-24T14:10:06Z</time>
      </trkpt>
      <trkpt lat="45.95858" lon="2.11938">
        <ele>607.258</ele>
        <time>2017-03-24T14:10:26Z</time>
      </trkpt>
      <trkpt lat="45.95948" lon="2.12031">
        <ele>597.749</ele>
        <time>2017-03-24T14:10:46Z</time>
      </trkpt>
      <trkpt lat="45.96008" lon="2.1204">
        <ele>597.272</ele>
        <time>2017-03-24T14:11:06Z</time>
      </trkpt>
      <trkpt lat="45.96019" lon="2.12152">
        <ele>591.538</ele>
        <time>2017-03-24T14:11:26Z</time>
      </trkpt>
      <trkpt lat="45.96005" lon="2.12253">
        <ele>590.312</ele>
        <time>2017-03-24T14:11:46Z</time>
      </trkpt>
      <trkpt lat="45.95928" lon="2.12532">
        <ele>582.974</ele>
        <time>2017-03-24T14:12:06Z</time>
      </trkpt>
      <trkpt lat="45.95856" lon="2.12649">
        <ele>572.256</ele>
        <time>2017-03-24T14:12:26Z</time>
      </trkpt>
      <trkpt lat="45.95844" lon="2.12808">
        <ele>567.121</ele>
        <time>2017-03-24T14:12:46Z</time>
      </trkpt>
      <trkpt lat="45.95835" lon="2.12829">
        <ele>565.408</ele>
        <time>2017-03-24T14:13:06Z</time>
      </trkpt>
      <trkpt lat="45.95786" lon="2.12875">
        <ele>563.023</ele>
        <time>2017-03-24T14:13:26Z</time>
      </trkpt>
      <trkpt lat="45.95788" lon="2.12916">
        <ele>563.247</ele>
        <time>2017-03-24T14:13:46Z</time>
      </trkpt>
      <trkpt lat="45.9577" lon="2.12957">
        <ele>564.064</ele>
        <time>2017-03-24T14:14:06Z</time>
      </trkpt>
      <trkpt lat="45.95729" lon="2.13005">
        <ele>565.997</ele>
        <time>2017-03-24T14:14:26Z</time>
      </trkpt>
      <trkpt lat="45.95721" lon="2.13095">
        <ele>556.378</ele>
        <time>2017-03-24T14:14:46Z</time>
      </trkpt>
      <trkpt lat="45.95676" lon="2.13126">
        <ele>560.081</ele>
        <time>2017-03-24T14:15:06Z</time>
      </trkpt>
      <trkpt lat="45.95682" lon="2.13193">
        <ele>558.117</ele>
        <time>2017-03-24T14:15:26Z</time>
      </trkpt>
      <trkpt lat="45.95694" lon="2.1324">
        <ele>558.491</ele>
        <time>2017-03-24T14:15:46Z</time>
      </trkpt>
      <trkpt lat="45.95677" lon="2.13294">
        <ele>563.068</ele>
        <time>2017-03-24T14:16:06Z</time>
      </trkpt>
      <trkpt lat="45.95634" lon="2.1336">
        <ele>569.342</ele>
        <time>2017-03-24T14:16:26Z</time>
      </trkpt>
      <trkpt lat="45.95593" lon="2.13408">
        <ele>570.726</ele>
        <time>2017-03-24T14:16:46Z</time>
      </trkpt>
      <trkpt lat="45.95571" lon="2.13484">
        <ele>568.908</ele>
        <time>2017-03-24T14:17:06Z</time>
      </trkpt>
      <trkpt lat="45.95558" lon="2.13598">
        <ele>575.152</ele>
        <time>2017-03-24T14:17:26Z</time>
      </trkpt>
      <trkpt lat="45.95577" lon="2.1365">
        <ele>580.276</ele>
        <time>2017-03-24T14:17:46Z</time>
      </trkpt>
      <trkpt lat="45.95559" lon="2.13854">
        <ele>575.563</ele>
        <time>2017-03-24T14:18:06Z</time>
      </trkpt>
      <trkpt lat="45.95631" lon="2.1429">
        <ele>571.286</ele>
        <time>2017-03-24T14:18:26Z</time>
      </trkpt>
      <trkpt lat="45.95599" lon="2.14538">
        <ele>559.517</ele>
        <time>2017-03-24T14:18:46Z</time>
      </trkpt>
      <trkpt lat="45.95695" lon="2.146">
        <ele>560.02</ele>
        <time>2017-03-24T14:19:06Z</time>
      </trkpt>
      <trkpt lat="45.9576" lon="2.14623">
        <ele>563.116</ele>
        <time>2017-03-24T14:19:26Z</time>
      </trkpt>
      <trkpt lat="45.95802" lon="2.14587">
        <ele>560.41</ele>
        <time>2017-03-24T14:19:46Z</time>
      </trkpt>
      <trkpt lat="45.95812" lon="2.14447">
        <ele>562.053</ele>
        <time>2017-03-24T14:20:06Z</time>
      </trkpt>
      <trkpt lat="45.95835" lon="2.14373">
        <ele>563.604</ele>
        <time>2017-03-24T14:20:26Z</time>
      </trkpt>
      <trkpt lat="45.95996" lon="2.14215">
        <ele>569.414</ele>
        <time>2017-03-24T14:20:46Z</time>
      </trkpt>
      <trkpt lat="45.9604" lon="2.14198">
        <ele>566.908</ele>
        <time>2017-03-24T14:21:06Z</time>
      </trkpt>
      <trkpt lat="45.9604" lon="2.14198">
        <ele>566.971</ele>
        <time>2017-03-24T14:21:26Z</time>
      </trkpt>
      <trkpt lat="45.96124" lon="2.13997">
        <ele>565.925</ele>
        <time>2020-01-15T16:11:40Z</time>
      </trkpt>
      <trkpt lat="45.96196" lon="2.14015">
        <ele>564.542</ele>
        <time>2020-01-15T16:12:00Z</time>
      </trkpt>
      <trkpt lat="45.96231" lon="2.13987">
        <ele>565.215</ele>
        <time>2020-01-15T16:12:20Z</time>
      </trkpt>
      <trkpt lat="45.96265" lon="2.1398">
        <ele>562.956</ele>
        <time>2020-01-15T16:12:40Z</time>
      </trkpt>
      <trkpt lat="45.96276" lon="2.13962">
        <ele>559.749</ele>
        <time>2020-01-15T16:13:00Z</time>
      </trkpt>
      <trkpt lat="45.96393" lon="2.13994">
        <ele>546.015</ele>
        <time>2020-01-15T16:13:20Z</time>
      </trkpt>
      <trkpt lat="45.96452" lon="2.14056">
        <ele>538.629</ele>
        <time>2020-01-15T16:13:40Z</time>
      </trkpt>
      <trkpt lat="45.96485" lon="2.14075">
        <ele>529.772</ele>
        <time>2020-01-15T16:14:00Z</time>
      </trkpt>
      <trkpt lat="45.96556" lon="2.14162">
        <ele>525.113</ele>
        <time>2020-01-15T16:14:20Z</time>
      </trkpt>
      <trkpt lat="45.96609" lon="2.14254">
        <ele>533.614</ele>
        <time>2020-01-15T16:14:40Z</time>
      </trkpt>
      <trkpt lat="45.96634" lon="2.14309">
        <ele>535.808</ele>
        <time>2020-01-15T16:15:00Z</time>
      </trkpt>
      <trkpt lat="45.96748" lon="2.14318">
        <ele>518.013</ele>
        <time>2020-01-15T16:15:20Z</time>
      </trkpt>
      <trkpt lat="45.96744" lon="2.14256">
        <ele>507.217</ele>
        <time>2020-01-15T16:15:40Z</time>
      </trkpt>
      <trkpt lat="45.96781" lon="2.14261">
        <ele>498.074</ele>
        <time>2020-01-15T16:16:00Z</time>
      </trkpt>
      <trkpt lat="45.96812" lon="2.14272">
        <ele>490.627</ele>
        <time>2020-01-15T16:16:20Z</time>
      </trkpt>
      <trkpt lat="45.96845" lon="2.14364">
        <ele>493.678</ele>
        <time>2020-01-15T16:16:40Z</time>
      </trkpt>
      <trkpt lat="45.96931" lon="2.14401">
        <ele>477.791</ele>
        <time>2020-01-15T16:17:00Z</time>
      </trkpt>
      <trkpt lat="45.96982" lon="2.14478">
        <ele>471.387</ele>
        <time>2017-03-24T14:28:06Z</time>
      </trkpt>
      <trkpt lat="45.97007" lon="2.14549">
        <ele>474.681</ele>
        <time>2017-03-24T14:28:26Z</time>
      </trkpt>
      <trkpt lat="45.97029" lon="2.14638">
        <ele>474.651</ele>
        <time>2017-03-24T14:28:46Z</time>
      </trkpt>
      <trkpt lat="45.97031" lon="2.14693">
        <ele>478.201</ele>
        <time>2017-03-24T14:29:06Z</time>
      </trkpt>
      <trkpt lat="45.97069" lon="2.14793">
        <ele>471.611</ele>
        <time>2017-03-24T14:29:26Z</time>
      </trkpt>
      <trkpt lat="45.97075" lon="2.14852">
        <ele>473.508</ele>
        <time>2017-03-24T14:29:46Z</time>
      </trkpt>
      <trkpt lat="45.97105" lon="2.14893">
        <ele>472.441</ele>
        <time>2017-03-24T14:30:06Z</time>
      </trkpt>
      <trkpt lat="45.97149" lon="2.15003">
        <ele>467.735</ele>
        <time>2017-03-24T14:30:26Z</time>
      </trkpt>
      <trkpt lat="45.97172" lon="2.15097">
        <ele>464.592</ele>
        <time>2017-03-24T14:30:46Z</time>
      </trkpt>
      <trkpt lat="45.97162" lon="2.15163">
        <ele>472.265</ele>
        <time>2017-03-24T14:31:06Z</time>
      </trkpt>
      <trkpt lat="45.97179" lon="2.15275">
        <ele>472.776</ele>
        <time>2020-01-15T16:20:40Z</time>
      </trkpt>
      <trkpt lat="45.97139" lon="2.1533">
        <ele>472.639</ele>
        <time>2020-01-15T16:21:00Z</time>
      </trkpt>
      <trkpt lat="45.97019" lon="2.15298">
        <ele>475.575</ele>
        <time>2020-01-15T16:21:20Z</time>
      </trkpt>
      <trkpt lat="45.96992" lon="2.15312">
        <ele>473.089</ele>
        <time>2020-01-15T16:21:40Z</time>
      </trkpt>
      <trkpt lat="45.96962" lon="2.15344">
        <ele>463.871</ele>
        <time>2020-01-15T16:22:00Z</time>
      </trkpt>
      <trkpt lat="45.96863" lon="2.15337">
        <ele>471.441</ele>
        <time>2020-01-15T16:22:20Z</time>
      </trkpt>
      <trkpt lat="45.96746" lon="2.15406">
        <ele>469.015</ele>
        <time>2020-01-15T16:22:40Z</time>
      </trkpt>
      <trkpt lat="45.96664" lon="2.1548">
        <ele>471.108</ele>
        <time>2020-01-15T16:23:00Z</time>
      </trkpt>
      <trkpt lat="45.96615" lon="2.15556">
        <ele>469.243</ele>
        <time>2020-01-15T16:23:20Z</time>
      </trkpt>
      <trkpt lat="45.96589" lon="2.15611">
        <ele>469.957</ele>
        <time>2020-01-15T16:23:40Z</time>
      </trkpt>
      <trkpt lat="45.96564" lon="2.15629">
        <ele>470.044</ele>
        <time>2020-01-15T16:24:00Z</time>
      </trkpt>
      <trkpt lat="45.96492" lon="2.15597">
        <ele>475.237</ele>
        <time>2020-01-15T16:24:20Z</time>
      </trkpt>
      <trkpt lat="45.96468" lon="2.1562">
        <ele>471.988</ele>
        <time>2020-01-15T16:24:40Z</time>
      </trkpt>
      <trkpt lat="45.96394" lon="2.15632">
        <ele>462.241</ele>
        <time>2020-01-15T16:25:00Z</time>
      </trkpt>
      <trkpt lat="45.9633" lon="2.15662">
        <ele>453.077</ele>
        <time>2020-01-15T16:25:20Z</time>
      </trkpt>
      <trkpt lat="45.96159" lon="2.15673">
        <ele>468.951</ele>
        <time>2020-01-15T16:25:40Z</time>
      </trkpt>
      <trkpt lat="45.96097" lon="2.15705">
        <ele>473.228</ele>
        <time>2020-01-15T16:26:00Z</time>
      </trkpt>
      <trkpt lat="45.96052" lon="2.15705">
        <ele>476.689</ele>
        <time>2020-01-15T16:26:20Z</time>
      </trkpt>
      <trkpt lat="45.95983" lon="2.15648">
        <ele>486.617</ele>
        <time>2020-01-15T16:26:40Z</time>
      </trkpt>
      <trkpt lat="45.95924" lon="2.15632">
        <ele>490.008</ele>
        <time>2020-01-15T16:27:00Z</time>
      </trkpt>
      <trkpt lat="45.95889" lon="2.15611">
        <ele>496.058</ele>
        <time>2020-01-15T16:27:20Z</time>
      </trkpt>
      <trkpt lat="45.95859" lon="2.15604">
        <ele>493.152</ele>
        <time>2020-01-15T16:27:40Z</time>
      </trkpt>
      <trkpt lat="45.95835" lon="2.15553">
        <ele>500.669</ele>
        <time>2020-01-15T16:28:00Z</time>
      </trkpt>
      <trkpt lat="45.95812" lon="2.15549">
        <ele>500.842</ele>
        <time>2020-01-15T16:28:20Z</time>
      </trkpt>
      <trkpt lat="45.95803" lon="2.15632">
        <ele>493.143</ele>
        <time>2020-01-15T16:28:40Z</time>
      </trkpt>
      <trkpt lat="45.95787" lon="2.15668">
        <ele>492.766</ele>
        <time>2020-01-15T16:29:00Z</time>
      </trkpt>
      <trkpt lat="45.9575" lon="2.15673">
        <ele>495.652</ele>
        <time>2020-01-15T16:29:20Z</time>
      </trkpt>
      <trkpt lat="45.95737" lon="2.15696">
        <ele>492.256</ele>
        <time>2020-01-15T16:29:40Z</time>
      </trkpt>
      <trkpt lat="45.95712" lon="2.15917">
        <ele>489.951</ele>
        <time>2020-01-15T16:30:00Z</time>
      </trkpt>
      <trkpt lat="45.957" lon="2.15974">
        <ele>489.401</ele>
        <time>2020-01-15T16:30:20Z</time>
      </trkpt>
      <trkpt lat="45.95678" lon="2.15977">
        <ele>492.211</ele>
        <time>2020-01-15T16:30:40Z</time>
      </trkpt>
      <trkpt lat="45.95677" lon="2.16014">
        <ele>491.308</ele>
        <time>2020-01-15T16:31:00Z</time>
      </trkpt>
      <trkpt lat="45.95594" lon="2.16279">
        <ele>475.091</ele>
        <time>2020-01-15T16:31:20Z</time>
      </trkpt>
      <trkpt lat="45.95603" lon="2.16326">
        <ele>474.245</ele>
        <time>2020-01-15T16:31:40Z</time>
      </trkpt>
      <trkpt lat="45.95609" lon="2.16422">
        <ele>468.222</ele>
        <time>2020-01-15T16:32:00Z</time>
      </trkpt>
      <trkpt lat="45.95601" lon="2.16462">
        <ele>462.675</ele>
        <time>2020-01-15T16:32:20Z</time>
      </trkpt>
      <trkpt lat="45.95575" lon="2.16487">
        <ele>453.816</ele>
        <time>2020-01-15T16:32:40Z</time>
      </trkpt>
      <trkpt lat="45.95574" lon="2.16515">
        <ele>448.089</ele>
        <time>2020-01-15T16:33:00Z</time>
      </trkpt>
      <trkpt lat="45.95627" lon="2.1656">
        <ele>449.665</ele>
        <time>2020-01-15T16:33:20Z</time>
      </trkpt>
      <trkpt lat="45.95661" lon="2.16571">
        <ele>450.879</ele>
        <time>2020-01-15T16:33:40Z</time>
      </trkpt>
      <trkpt lat="45.95698" lon="2.16632">
        <ele>440.689</ele>
        <time>2020-01-15T16:34:00Z</time>
      </trkpt>
      <trkpt lat="45.95711" lon="2.16668">
        <ele>431.906</ele>
        <time>2020-01-15T16:34:20Z</time>
      </trkpt>
      <trkpt lat="45.95734" lon="2.1669">
        <ele>431.626</ele>
        <time>2020-01-15T16:34:40Z</time>
      </trkpt>
      <trkpt lat="45.95724" lon="2.16745">
        <ele>433.708</ele>
        <time>2020-01-15T16:35:00Z</time>
      </trkpt>
      <trkpt lat="45.95663" lon="2.16756">
        <ele>434.684</ele>
        <time>2020-01-15T16:35:20Z</time>
      </trkpt>
      <trkpt lat="45.95624" lon="2.16741">
        <ele>434.788</ele>
        <time>2020-01-15T16:35:40Z</time>
      </trkpt>
      <trkpt lat="45.95472" lon="2.16721">
        <ele>431.015</ele>
        <time>2020-01-15T16:36:00Z</time>
      </trkpt>
      <trkpt lat="45.95476" lon="2.16806">
        <ele>431.868</ele>
        <time>2020-01-15T16:36:20Z</time>
      </trkpt>
      <trkpt lat="45.95452" lon="2.16944">
        <ele>434.749</ele>
        <time>2020-01-15T16:36:40Z</time>
      </trkpt>
      <trkpt lat="45.95456" lon="2.16974">
        <ele>434.132</ele>
        <time>2020-01-15T16:37:00Z</time>
      </trkpt>
      <trkpt lat="45.95511" lon="2.17074">
        <ele>429.888</ele>
        <time>2020-01-15T16:37:20Z</time>
      </trkpt>
      <trkpt lat="45.95513" lon="2.17136">
        <ele>432.732</ele>
        <time>2020-01-15T16:37:40Z</time>
      </trkpt>
      <trkpt lat="45.95495" lon="2.17151">
        <ele>432.731</ele>
        <time>2020-01-15T16:38:00Z</time>
      </trkpt>
      <trkpt lat="45.95551" lon="2.17228">
        <ele>435.761</ele>
        <time>2020-01-15T16:38:20Z</time>
      </trkpt>
      <trkpt lat="45.95522" lon="2.17362">
        <ele>439.907</ele>
        <time>2017-03-24T14:47:06Z</time>
      </trkpt>
      <trkpt lat="45.95473" lon="2.17419">
        <ele>441.308</ele>
        <time>2020-01-15T16:39:00Z</time>
      </trkpt>
      <trkpt lat="45.95419" lon="2.17453">
        <ele>439.879</ele>
        <time>2017-03-24T14:47:26Z</time>
      </trkpt>
      <trkpt lat="45.95322" lon="2.17497">
        <ele>440.213</ele>
        <time>2017-03-24T14:47:46Z</time>
      </trkpt>
      <trkpt lat="45.95223" lon="2.17481">
        <ele>438.66</ele>
        <time>2017-03-24T14:48:06Z</time>
      </trkpt>
      <trkpt lat="45.95146" lon="2.17439">
        <ele>439.443</ele>
        <time>2017-03-24T14:48:26Z</time>
      </trkpt>
      <trkpt lat="45.95088" lon="2.17445">
        <ele>441.884</ele>
        <time>2017-03-24T14:48:46Z</time>
      </trkpt>
      <trkpt lat="45.95043" lon="2.17479">
        <ele>440.497</ele>
        <time>2017-03-24T14:49:06Z</time>
      </trkpt>
      <trkpt lat="45.94934" lon="2.17588">
        <ele>451.223</ele>
        <time>2017-03-24T14:49:26Z</time>
      </trkpt>
      <trkpt lat="45.94776" lon="2.17665">
        <ele>441.597</ele>
        <time>2017-03-24T14:49:46Z</time>
      </trkpt>
      <trkpt lat="45.94745" lon="2.17725">
        <ele>450.659</ele>
        <time>2017-03-24T14:50:06Z</time>
      </trkpt>
      <trkpt lat="45.94686" lon="2.17734">
        <ele>457.103</ele>
        <time>2017-03-24T14:50:26Z</time>
      </trkpt>
      <trkpt lat="45.94617" lon="2.17726">
        <ele>462.223</ele>
        <time>2017-03-24T14:50:46Z</time>
      </trkpt>
      <trkpt lat="45.94481" lon="2.17748">
        <ele>483.708</ele>
        <time>2017-03-24T14:51:06Z</time>
      </trkpt>
      <trkpt lat="45.94373" lon="2.17742">
        <ele>497.381</ele>
        <time>2017-03-24T14:51:26Z</time>
      </trkpt>
      <trkpt lat="45.94301" lon="2.17754">
        <ele>504.715</ele>
        <time>2017-03-24T14:51:46Z</time>
      </trkpt>
      <trkpt lat="45.94246" lon="2.17903">
        <ele>517.652</ele>
        <time>2017-03-24T14:52:06Z</time>
      </trkpt>
      <trkpt lat="45.94192" lon="2.17982">
        <ele>519.475</ele>
        <time>2017-03-24T14:52:26Z</time>
      </trkpt>
      <trkpt lat="45.94182" lon="2.18046">
        <ele>517.486</ele>
        <time>2017-03-24T14:52:46Z</time>
      </trkpt>
      <trkpt lat="45.94225" lon="2.18161">
        <ele>526.439</ele>
        <time>2017-03-24T14:53:06Z</time>
      </trkpt>
      <trkpt lat="45.94218" lon="2.18209">
        <ele>527.185</ele>
        <time>2017-03-24T14:53:26Z</time>
      </trkpt>
      <trkpt lat="45.94192" lon="2.18261">
        <ele>528.649</ele>
        <time>2017-03-24T14:53:46Z</time>
      </trkpt>
      <trkpt lat="45.94157" lon="2.18416">
        <ele>525.073</ele>
        <time>2017-03-24T14:54:06Z</time>
      </trkpt>
      <trkpt lat="45.94155" lon="2.18463">
        <ele>526.585</ele>
        <time>2017-03-24T14:54:26Z</time>
      </trkpt>
      <trkpt lat="45.94134" lon="2.18511">
        <ele>526.713</ele>
        <time>2017-03-24T14:54:46Z</time>
      </trkpt>
      <trkpt lat="45.94128" lon="2.18541">
        <ele>527.108</ele>
        <time>2017-03-24T14:55:06Z</time>
      </trkpt>
      <trkpt lat="45.94103" lon="2.18601">
        <ele>527.863</ele>
        <time>2017-03-24T14:55:26Z</time>
      </trkpt>
      <trkpt lat="45.94093" lon="2.18657">
        <ele>525.867</ele>
        <time>2017-03-24T14:55:46Z</time>
      </trkpt>
      <trkpt lat="45.94076" lon="2.18779">
        <ele>529.034</ele>
        <time>2017-03-24T14:56:06Z</time>
      </trkpt>
      <trkpt lat="45.94033" lon="2.18794">
        <ele>528.217</ele>
        <time>2017-03-24T14:56:26Z</time>
      </trkpt>
      <trkpt lat="45.94013" lon="2.18853">
        <ele>532.168</ele>
        <time>2020-01-15T16:48:40Z</time>
      </trkpt>
      <trkpt lat="45.93999" lon="2.18979">
        <ele>538.381</ele>
        <time>2017-03-24T14:57:06Z</time>
      </trkpt>
      <trkpt lat="45.9397" lon="2.19094">
        <ele>539.867</ele>
        <time>2017-03-24T14:57:26Z</time>
      </trkpt>
      <trkpt lat="45.93923" lon="2.19102">
        <ele>543.021</ele>
        <time>2017-03-24T14:57:46Z</time>
      </trkpt>
      <trkpt lat="45.93923" lon="2.19115">
        <ele>543.348</ele>
        <time>2017-03-24T14:58:06Z</time>
      </trkpt>
      <trkpt lat="45.93864" lon="2.19137">
        <ele>547.061</ele>
        <time>2017-03-24T14:58:26Z</time>
      </trkpt>
      <trkpt lat="45.93801" lon="2.19173">
        <ele>542.617</ele>
        <time>2017-03-24T14:58:46Z</time>
      </trkpt>
      <trkpt lat="45.93728" lon="2.19243">
        <ele>534.408</ele>
        <time>2017-03-24T14:59:06Z</time>
      </trkpt>
      <trkpt lat="45.93729" lon="2.19263">
        <ele>534.41</ele>
        <time>2017-03-24T14:59:26Z</time>
      </trkpt>
      <trkpt lat="45.93665" lon="2.19355">
        <ele>531.124</ele>
        <time>2020-01-15T16:51:40Z</time>
      </trkpt>
      <trkpt lat="45.93656" lon="2.19487">
        <ele>541.891</ele>
        <time>2020-01-15T16:52:00Z</time>
      </trkpt>
      <trkpt lat="45.93648" lon="2.19576">
        <ele>549.974</ele>
        <time>2017-03-24T15:00:26Z</time>
      </trkpt>
      <trkpt lat="45.93617" lon="2.19665">
        <ele>556.865</ele>
        <time>2017-03-24T15:00:46Z</time>
      </trkpt>
      <trkpt lat="45.93584" lon="2.1967">
        <ele>560.698</ele>
        <time>2017-03-24T15:01:06Z</time>
      </trkpt>
      <trkpt lat="45.93507" lon="2.19642">
        <ele>552.394</ele>
        <time>2017-03-24T15:01:46Z</time>
      </trkpt>
      <trkpt lat="45.93451" lon="2.19657">
        <ele>551.478</ele>
        <time>2017-03-24T15:02:06Z</time>
      </trkpt>
      <trkpt lat="45.93422" lon="2.19755">
        <ele>553.456</ele>
        <time>2017-03-24T15:02:26Z</time>
      </trkpt>
      <trkpt lat="45.93374" lon="2.19826">
        <ele>547.159</ele>
        <time>2017-03-24T15:02:46Z</time>
      </trkpt>
      <trkpt lat="45.93381" lon="2.19876">
        <ele>545.614</ele>
        <time>2017-03-24T15:03:06Z</time>
      </trkpt>
      <trkpt lat="45.93375" lon="2.19914">
        <ele>539.408</ele>
        <time>2017-03-24T15:03:26Z</time>
      </trkpt>
      <trkpt lat="45.93376" lon="2.19955">
        <ele>534.121</ele>
        <time>2017-03-24T15:03:46Z</time>
      </trkpt>
      <trkpt lat="45.93354" lon="2.19966">
        <ele>531.525</ele>
        <time>2017-03-24T15:04:06Z</time>
      </trkpt>
      <trkpt lat="45.93371" lon="2.20006">
        <ele>527.362</ele>
        <time>2017-03-24T15:04:26Z</time>
      </trkpt>
      <trkpt lat="45.93373" lon="2.2007">
        <ele>521.225</ele>
        <time>2017-03-24T15:04:46Z</time>
      </trkpt>
      <trkpt lat="45.93423" lon="2.20073">
        <ele>528.136</ele>
        <time>2017-03-24T15:05:06Z</time>
      </trkpt>
      <trkpt lat="45.93434" lon="2.201">
        <ele>528.479</ele>
        <time>2017-03-24T15:05:26Z</time>
      </trkpt>
      <trkpt lat="45.93421" lon="2.20208">
        <ele>527.825</ele>
        <time>2020-01-15T16:57:20Z</time>
      </trkpt>
      <trkpt lat="45.93468" lon="2.20298">
        <ele>533.429</ele>
        <time>2020-01-15T16:57:40Z</time>
      </trkpt>
      <trkpt lat="45.93492" lon="2.20378">
        <ele>532.782</ele>
        <time>2020-01-15T16:58:00Z</time>
      </trkpt>
      <trkpt lat="45.93457" lon="2.20483">
        <ele>535.243</ele>
        <time>2017-03-24T15:06:46Z</time>
      </trkpt>
      <trkpt lat="45.93483" lon="2.20539">
        <ele>537.217</ele>
        <time>2017-03-24T15:07:06Z</time>
      </trkpt>
      <trkpt lat="45.93462" lon="2.20614">
        <ele>552.308</ele>
        <time>2017-03-24T15:07:26Z</time>
      </trkpt>
      <trkpt lat="45.93552" lon="2.20671">
        <ele>544.914</ele>
        <time>2017-03-24T15:07:46Z</time>
      </trkpt>
      <trkpt lat="45.93602" lon="2.20693">
        <ele>547.338</ele>
        <time>2020-01-15T16:59:40Z</time>
      </trkpt>
      <trkpt lat="45.93669" lon="2.2074">
        <ele>555.245</ele>
        <time>2020-01-15T17:00:00Z</time>
      </trkpt>
      <trkpt lat="45.93698" lon="2.2078">
        <ele>563.678</ele>
        <time>2020-01-15T17:00:20Z</time>
      </trkpt>
      <trkpt lat="45.93721" lon="2.20782">
        <ele>565.379</ele>
        <time>2020-01-15T17:00:40Z</time>
      </trkpt>
      <trkpt lat="45.93743" lon="2.20772">
        <ele>563.212</ele>
        <time>2020-01-15T17:01:00Z</time>
      </trkpt>
      <trkpt lat="45.93765" lon="2.20769">
        <ele>562.178</ele>
        <time>2020-01-15T17:01:20Z</time>
      </trkpt>
      <trkpt lat="45.93794" lon="2.20806">
        <ele>564.652</ele>
        <time>2020-01-15T17:01:40Z</time>
      </trkpt>
      <trkpt lat="45.93827" lon="2.20891">
        <ele>564.595</ele>
        <time>2020-01-15T17:02:00Z</time>
      </trkpt>
      <trkpt lat="45.9386" lon="2.20889">
        <ele>564.049</ele>
        <time>2020-01-15T17:02:20Z</time>
      </trkpt>
      <trkpt lat="45.93925" lon="2.21021">
        <ele>569.623</ele>
        <time>2017-03-24T15:10:06Z</time>
      </trkpt>
      <trkpt lat="45.93944" lon="2.21121">
        <ele>572.008</ele>
        <time>2017-03-24T15:10:26Z</time>
      </trkpt>
      <trkpt lat="45.93995" lon="2.21275">
        <ele>563.375</ele>
        <time>2017-03-24T15:10:46Z</time>
      </trkpt>
      <trkpt lat="45.93998" lon="2.21408">
        <ele>562.099</ele>
        <time>2020-01-15T17:03:40Z</time>
      </trkpt>
      <trkpt lat="45.94004" lon="2.21458">
        <ele>563.296</ele>
        <time>2020-01-15T17:04:00Z</time>
      </trkpt>
      <trkpt lat="45.93996" lon="2.21515">
        <ele>568.089</ele>
        <time>2020-01-15T17:04:20Z</time>
      </trkpt>
      <trkpt lat="45.94045" lon="2.21642">
        <ele>576.02</ele>
        <time>2017-03-24T15:11:26Z</time>
      </trkpt>
      <trkpt lat="45.94054" lon="2.21684">
        <ele>579.093</ele>
        <time>2017-03-24T15:11:46Z</time>
      </trkpt>
      <trkpt lat="45.9408" lon="2.21739">
        <ele>579.939</ele>
        <time>2017-03-24T15:12:06Z</time>
      </trkpt>
      <trkpt lat="45.94108" lon="2.21834">
        <ele>581.093</ele>
        <time>2017-03-24T15:12:26Z</time>
      </trkpt>
      <trkpt lat="45.94109" lon="2.21892">
        <ele>590.375</ele>
        <time>2017-03-24T15:12:46Z</time>
      </trkpt>
      <trkpt lat="45.94101" lon="2.21983">
        <ele>591.428</ele>
        <time>2017-03-24T15:13:06Z</time>
      </trkpt>
      <trkpt lat="45.94123" lon="2.22017">
        <ele>593.62</ele>
        <time>2017-03-24T15:13:26Z</time>
      </trkpt>
      <trkpt lat="45.94167" lon="2.22123">
        <ele>590.108</ele>
        <time>2017-03-24T15:13:46Z</time>
      </trkpt>
      <trkpt lat="45.94186" lon="2.22259">
        <ele>572.993</ele>
        <time>2017-03-24T15:14:06Z</time>
      </trkpt>
      <trkpt lat="45.94194" lon="2.22392">
        <ele>570.957</ele>
        <time>2017-03-24T15:14:26Z</time>
      </trkpt>
      <trkpt lat="45.94191" lon="2.22424">
        <ele>569.724</ele>
        <time>2020-01-15T17:08:00Z</time>
      </trkpt>
      <trkpt lat="45.94169" lon="2.22444">
        <ele>569.097</ele>
        <time>2020-01-15T17:08:20Z</time>
      </trkpt>
      <trkpt lat="45.94129" lon="2.22449">
        <ele>568.448</ele>
        <time>2017-03-24T15:15:26Z</time>
      </trkpt>
      <trkpt lat="45.9409" lon="2.2253">
        <ele>569.131</ele>
        <time>2017-03-24T15:15:46Z</time>
      </trkpt>
      <trkpt lat="45.9406" lon="2.22496">
        <ele>569.447</ele>
        <time>2017-03-24T15:16:06Z</time>
      </trkpt>
      <trkpt lat="45.93998" lon="2.225">
        <ele>571.081</ele>
        <time>2017-03-24T15:16:26Z</time>
      </trkpt>
      <trkpt lat="45.94009" lon="2.22609">
        <ele>573.344</ele>
        <time>2017-03-24T15:16:46Z</time>
      </trkpt>
      <trkpt lat="45.94041" lon="2.227">
        <ele>576.205</ele>
        <time>2017-03-24T15:17:06Z</time>
      </trkpt>
      <trkpt lat="45.94064" lon="2.22794">
        <ele>577.715</ele>
        <time>2017-03-24T15:17:26Z</time>
      </trkpt>
      <trkpt lat="45.94143" lon="2.22852">
        <ele>576.808</ele>
        <time>2017-03-24T15:17:46Z</time>
      </trkpt>
      <trkpt lat="45.94109" lon="2.22926">
        <ele>574.14</ele>
        <time>2017-03-24T15:18:06Z</time>
      </trkpt>
      <trkpt lat="45.94061" lon="2.22927">
        <ele>578.424</ele>
        <time>2017-03-24T15:18:26Z</time>
      </trkpt>
      <trkpt lat="45.94043" lon="2.22894">
        <ele>581.731</ele>
        <time>2017-03-24T15:18:46Z</time>
      </trkpt>
      <trkpt lat="45.93862" lon="2.22917">
        <ele>592.974</ele>
        <time>2017-03-24T15:19:06Z</time>
      </trkpt>
      <trkpt lat="45.93739" lon="2.22866">
        <ele>588.445</ele>
        <time>2017-03-24T15:19:26Z</time>
      </trkpt>
      <trkpt lat="45.93472" lon="2.22693">
        <ele>581.928</ele>
        <time>2017-03-24T15:19:46Z</time>
      </trkpt>
      <trkpt lat="45.93436" lon="2.22768">
        <ele>585.584</ele>
        <time>2017-03-24T15:20:06Z</time>
      </trkpt>
      <trkpt lat="45.93416" lon="2.22986">
        <ele>590.588</ele>
        <time>2017-03-24T15:20:26Z</time>
      </trkpt>
      <trkpt lat="45.93355" lon="2.23127">
        <ele>593.486</ele>
        <time>2017-03-24T15:20:46Z</time>
      </trkpt>
      <trkpt lat="45.93274" lon="2.23227">
        <ele>590.66</ele>
        <time>2017-03-24T15:21:06Z</time>
      </trkpt>
      <trkpt lat="45.93195" lon="2.23283">
        <ele>586.426</ele>
        <time>2017-03-24T15:21:26Z</time>
      </trkpt>
      <trkpt lat="45.93195" lon="2.23283">
        <ele>586.408</ele>
        <time>2017-03-24T15:21:46Z</time>
      </trkpt>
      <trkpt lat="45.9321" lon="2.23337">
        <ele>587.074</ele>
        <time>2017-03-24T15:22:06Z</time>
      </trkpt>
      <trkpt lat="45.93219" lon="2.23446">
        <ele>592.248</ele>
        <time>2017-03-24T15:22:26Z</time>
      </trkpt>
      <trkpt lat="45.93195" lon="2.23542">
        <ele>594.935</ele>
        <time>2020-01-15T17:16:00Z</time>
      </trkpt>
      <trkpt lat="45.93156" lon="2.23657">
        <ele>599.118</ele>
        <time>2020-01-15T17:16:20Z</time>
      </trkpt>
      <trkpt lat="45.931" lon="2.23731">
        <ele>599.789</ele>
        <time>2017-03-24T15:23:26Z</time>
      </trkpt>
      <trkpt lat="45.93076" lon="2.23777">
        <ele>600.212</ele>
        <time>2017-03-24T15:23:46Z</time>
      </trkpt>
      <trkpt lat="45.93041" lon="2.23821">
        <ele>601.098</ele>
        <time>2017-03-24T15:24:06Z</time>
      </trkpt>
      <trkpt lat="45.93039" lon="2.23851">
        <ele>602.012</ele>
        <time>2017-03-24T15:24:26Z</time>
      </trkpt>
      <trkpt lat="45.92994" lon="2.23941">
        <ele>604.888</ele>
        <time>2020-01-15T17:18:00Z</time>
      </trkpt>
      <trkpt lat="45.92977" lon="2.24056">
        <ele>604.024</ele>
        <time>2017-03-24T15:25:06Z</time>
      </trkpt>
      <trkpt lat="45.92947" lon="2.24111">
        <ele>598.326</ele>
        <time>2017-03-24T15:25:26Z</time>
      </trkpt>
      <trkpt lat="45.92919" lon="2.24127">
        <ele>596.608</ele>
        <time>2017-03-24T15:25:46Z</time>
      </trkpt>
      <trkpt lat="45.92898" lon="2.24157">
        <ele>594.974</ele>
        <time>2017-03-24T15:26:06Z</time>
      </trkpt>
      <trkpt lat="45.92862" lon="2.24178">
        <ele>591.128</ele>
        <time>2017-03-24T15:26:26Z</time>
      </trkpt>
      <trkpt lat="45.92834" lon="2.24205">
        <ele>589.845</ele>
        <time>2017-03-24T15:26:46Z</time>
      </trkpt>
      <trkpt lat="45.92758" lon="2.24208">
        <ele>584.438</ele>
        <time>2020-01-15T17:20:20Z</time>
      </trkpt>
      <trkpt lat="45.92682" lon="2.24234">
        <ele>581.049</ele>
        <time>2020-01-15T17:20:40Z</time>
      </trkpt>
      <trkpt lat="45.9266" lon="2.24276">
        <ele>581.092</ele>
        <time>2017-03-24T15:27:46Z</time>
      </trkpt>
      <trkpt lat="45.92649" lon="2.24337">
        <ele>580.728</ele>
        <time>2017-03-24T15:28:06Z</time>
      </trkpt>
      <trkpt lat="45.92639" lon="2.24385">
        <ele>579.032</ele>
        <time>2017-03-24T15:28:26Z</time>
      </trkpt>
      <trkpt lat="45.92634" lon="2.24543">
        <ele>580.066</ele>
        <time>2017-03-24T15:28:46Z</time>
      </trkpt>
      <trkpt lat="45.92616" lon="2.24585">
        <ele>582.329</ele>
        <time>2017-03-24T15:29:06Z</time>
      </trkpt>
      <trkpt lat="45.9259" lon="2.24628">
        <ele>584.121</ele>
        <time>2017-03-24T15:29:26Z</time>
      </trkpt>
      <trkpt lat="45.92575" lon="2.24723">
        <ele>587.108</ele>
        <time>2017-03-24T15:29:46Z</time>
      </trkpt>
      <trkpt lat="45.92523" lon="2.24784">
        <ele>582.222</ele>
        <time>2017-03-24T15:30:06Z</time>
      </trkpt>
      <trkpt lat="45.92492" lon="2.24841">
        <ele>581.226</ele>
        <time>2017-03-24T15:30:26Z</time>
      </trkpt>
      <trkpt lat="45.92428" lon="2.24852">
        <ele>580.423</ele>
        <time>2017-03-24T15:30:46Z</time>
      </trkpt>
      <trkpt lat="45.9239" lon="2.24899">
        <ele>585.736</ele>
        <time>2020-01-15T17:24:20Z</time>
      </trkpt>
      <trkpt lat="45.92313" lon="2.24948">
        <ele>585.437</ele>
        <time>2020-01-15T17:24:40Z</time>
      </trkpt>
      <trkpt lat="45.92252" lon="2.25096">
        <ele>593.31</ele>
        <time>2020-01-15T17:25:00Z</time>
      </trkpt>
      <trkpt lat="45.92199" lon="2.25075">
        <ele>598.056</ele>
        <time>2017-03-24T15:32:06Z</time>
      </trkpt>
      <trkpt lat="45.92179" lon="2.25103">
        <ele>600.09</ele>
        <time>2017-03-24T15:32:26Z</time>
      </trkpt>
      <trkpt lat="45.92161" lon="2.2517">
        <ele>600.146</ele>
        <time>2020-01-15T17:26:00Z</time>
      </trkpt>
      <trkpt lat="45.92113" lon="2.25241">
        <ele>604.088</ele>
        <time>2017-03-24T15:33:06Z</time>
      </trkpt>
      <trkpt lat="45.92041" lon="2.25403">
        <ele>602.916</ele>
        <time>2017-03-24T15:33:26Z</time>
      </trkpt>
      <trkpt lat="45.92007" lon="2.25435">
        <ele>601.908</ele>
        <time>2017-03-24T15:33:46Z</time>
      </trkpt>
      <trkpt lat="45.91973" lon="2.25465">
        <ele>599.37</ele>
        <time>2017-03-24T15:34:06Z</time>
      </trkpt>
      <trkpt lat="45.91897" lon="2.25566">
        <ele>604.554</ele>
        <time>2017-03-24T15:34:26Z</time>
      </trkpt>
      <trkpt lat="45.91829" lon="2.25691">
        <ele>606.731</ele>
        <time>2017-03-24T15:34:46Z</time>
      </trkpt>
      <trkpt lat="45.91763" lon="2.25748">
        <ele>598.624</ele>
        <time>2017-03-24T15:35:06Z</time>
      </trkpt>
      <trkpt lat="45.9174" lon="2.25779">
        <ele>595.955</ele>
        <time>2017-03-24T15:35:26Z</time>
      </trkpt>
      <trkpt lat="45.91692" lon="2.25784">
        <ele>590.478</ele>
        <time>2017-03-24T15:35:46Z</time>
      </trkpt>
      <trkpt lat="45.91651" lon="2.25813">
        <ele>587.984</ele>
        <time>2017-03-24T15:36:06Z</time>
      </trkpt>
      <trkpt lat="45.91557" lon="2.25926">
        <ele>588.938</ele>
        <time>2017-03-24T15:36:26Z</time>
      </trkpt>
      <trkpt lat="45.9153" lon="2.26015">
        <ele>591.636</ele>
        <time>2017-03-24T15:36:46Z</time>
      </trkpt>
      <trkpt lat="45.91509" lon="2.26014">
        <ele>589.117</ele>
        <time>2017-03-24T15:37:06Z</time>
      </trkpt>
      <trkpt lat="45.91524" lon="2.26071">
        <ele>591.618</ele>
        <time>2017-03-24T15:37:26Z</time>
      </trkpt>
      <trkpt lat="45.91524" lon="2.26207">
        <ele>589.708</ele>
        <time>2017-03-24T15:37:46Z</time>
      </trkpt>
      <trkpt lat="45.91504" lon="2.26336">
        <ele>585.059</ele>
        <time>2017-03-24T15:38:06Z</time>
      </trkpt>
      <trkpt lat="45.9141" lon="2.2642">
        <ele>590.133</ele>
        <time>2017-03-24T15:38:26Z</time>
      </trkpt>
      <trkpt lat="45.91397" lon="2.26448">
        <ele>589.11</ele>
        <time>2017-03-24T15:38:46Z</time>
      </trkpt>
      <trkpt lat="45.91399" lon="2.26622">
        <ele>596.773</ele>
        <time>2017-03-24T15:39:06Z</time>
      </trkpt>
      <trkpt lat="45.91386" lon="2.26848">
        <ele>609.784</ele>
        <time>2017-03-24T15:39:26Z</time>
      </trkpt>
      <trkpt lat="45.91435" lon="2.26928">
        <ele>619.667</ele>
        <time>2020-11-19T22:46:45Z</time>
      </trkpt>
      <trkpt lat="45.91474" lon="2.272">
        <ele>635.363</ele>
        <time>2020-11-19T22:47:05Z</time>
      </trkpt>
      <trkpt lat="45.91439" lon="2.2723">
        <ele>639.927</ele>
        <time>2020-11-19T22:47:25Z</time>
      </trkpt>
      <trkpt lat="45.91408" lon="2.27144">
        <ele>638.437</ele>
        <time>2020-11-19T22:47:45Z</time>
      </trkpt>
      <trkpt lat="45.91401" lon="2.27056">
        <ele>636.749</ele>
        <time>2020-11-19T22:48:05Z</time>
      </trkpt>
      <trkpt lat="45.91376" lon="2.27004">
        <ele>632.513</ele>
        <time>2020-11-19T22:48:25Z</time>
      </trkpt>
      <trkpt lat="45.91323" lon="2.26994">
        <ele>631.608</ele>
        <time>2020-11-19T22:48:45Z</time>
      </trkpt>
      <trkpt lat="45.91282" lon="2.27214">
        <ele>644.979</ele>
        <time>2017-03-24T15:43:06Z</time>
      </trkpt>
      <trkpt lat="45.91194" lon="2.27445">
        <ele>644.063</ele>
        <time>2017-03-24T15:43:26Z</time>
      </trkpt>
      <trkpt lat="45.91128" lon="2.27537">
        <ele>645.68</ele>
        <time>2017-03-24T15:43:46Z</time>
      </trkpt>
      <trkpt lat="45.91058" lon="2.27589">
        <ele>643.623</ele>
        <time>2020-01-15T17:34:40Z</time>
      </trkpt>
      <trkpt lat="45.90986" lon="2.27639">
        <ele>638.564</ele>
        <time>2020-01-15T17:35:00Z</time>
      </trkpt>
      <trkpt lat="45.90949" lon="2.2769">
        <ele>637.687</ele>
        <time>2017-03-24T15:44:46Z</time>
      </trkpt>
      <trkpt lat="45.90885" lon="2.27741">
        <ele>640.353</ele>
        <time>2017-03-24T15:45:06Z</time>
      </trkpt>
      <trkpt lat="45.90849" lon="2.27795">
        <ele>638.527</ele>
        <time>2017-03-24T15:45:26Z</time>
      </trkpt>
      <trkpt lat="45.9078" lon="2.27853">
        <ele>635.672</ele>
        <time>2017-03-24T15:45:46Z</time>
      </trkpt>
      <trkpt lat="45.90758" lon="2.2791">
        <ele>635.913</ele>
        <time>2017-03-24T15:46:06Z</time>
      </trkpt>
      <trkpt lat="45.90734" lon="2.28">
        <ele>636.614</ele>
        <time>2017-03-24T15:46:26Z</time>
      </trkpt>
      <trkpt lat="45.90704" lon="2.28068">
        <ele>635.208</ele>
        <time>2017-03-24T15:46:46Z</time>
      </trkpt>
      <trkpt lat="45.90589" lon="2.28348">
        <ele>627.033</ele>
        <time>2017-03-24T15:47:06Z</time>
      </trkpt>
      <trkpt lat="45.90588" lon="2.28378">
        <ele>629.857</ele>
        <time>2017-03-24T15:47:26Z</time>
      </trkpt>
      <trkpt lat="45.90665" lon="2.2846">
        <ele>629.614</ele>
        <time>2017-03-24T15:47:46Z</time>
      </trkpt>
      <trkpt lat="45.90665" lon="2.28524">
        <ele>628.537</ele>
        <time>2017-03-24T15:48:06Z</time>
      </trkpt>
      <trkpt lat="45.90637" lon="2.2863">
        <ele>627.568</ele>
        <time>2017-03-24T15:48:26Z</time>
      </trkpt>
      <trkpt lat="45.90657" lon="2.28744">
        <ele>626.681</ele>
        <time>2017-03-24T15:48:46Z</time>
      </trkpt>
      <trkpt lat="45.90641" lon="2.28768">
        <ele>625.587</ele>
        <time>2017-03-24T15:49:06Z</time>
      </trkpt>
      <trkpt lat="45.90591" lon="2.2879">
        <ele>629.921</ele>
        <time>2017-03-24T15:49:26Z</time>
      </trkpt>
      <trkpt lat="45.90541" lon="2.28875">
        <ele>628.673</ele>
        <time>2017-03-24T15:49:46Z</time>
      </trkpt>
      <trkpt lat="45.905" lon="2.28908">
        <ele>628.985</ele>
        <time>2017-03-24T15:50:06Z</time>
      </trkpt>
      <trkpt lat="45.9045" lon="2.28914">
        <ele>630.113</ele>
        <time>2017-03-24T15:50:26Z</time>
      </trkpt>
      <trkpt lat="45.90413" lon="2.28953">
        <ele>626.508</ele>
        <time>2017-03-24T15:50:46Z</time>
      </trkpt>
      <trkpt lat="45.90356" lon="2.28948">
        <ele>624.523</ele>
        <time>2020-01-15T17:41:40Z</time>
      </trkpt>
      <trkpt lat="45.90299" lon="2.29014">
        <ele>614.017</ele>
        <time>2020-01-15T17:42:00Z</time>
      </trkpt>
      <trkpt lat="45.90148" lon="2.29285">
        <ele>625.734</ele>
        <time>2020-01-15T17:42:20Z</time>
      </trkpt>
      <trkpt lat="45.90169" lon="2.29333">
        <ele>624.997</ele>
        <time>2020-01-15T17:42:40Z</time>
      </trkpt>
      <trkpt lat="45.90168" lon="2.29372">
        <ele>620.928</ele>
        <time>2020-01-15T17:43:00Z</time>
      </trkpt>
      <trkpt lat="45.90182" lon="2.29421">
        <ele>617.931</ele>
        <time>2017-03-24T15:53:26Z</time>
      </trkpt>
      <trkpt lat="45.90164" lon="2.29528">
        <ele>622.437</ele>
        <time>2017-03-24T15:53:46Z</time>
      </trkpt>
      <trkpt lat="45.90136" lon="2.29636">
        <ele>631.141</ele>
        <time>2017-03-24T15:54:06Z</time>
      </trkpt>
      <trkpt lat="45.90039" lon="2.29723">
        <ele>629.447</ele>
        <time>2017-03-24T15:54:26Z</time>
      </trkpt>
      <trkpt lat="45.90005" lon="2.29713">
        <ele>629.129</ele>
        <time>2020-01-15T17:44:40Z</time>
      </trkpt>
      <trkpt lat="45.89978" lon="2.29773">
        <ele>626.121</ele>
        <time>2017-03-24T15:55:06Z</time>
      </trkpt>
      <trkpt lat="45.89931" lon="2.29813">
        <ele>619.908</ele>
        <time>2017-03-24T15:55:26Z</time>
      </trkpt>
      <trkpt lat="45.8993" lon="2.29863">
        <ele>615.88</ele>
        <time>2020-01-15T17:45:40Z</time>
      </trkpt>
      <trkpt lat="45.89895" lon="2.29978">
        <ele>604.224</ele>
        <time>2020-01-15T17:46:00Z</time>
      </trkpt>
      <trkpt lat="45.89861" lon="2.3002">
        <ele>600.631</ele>
        <time>2020-01-15T17:46:20Z</time>
      </trkpt>
      <trkpt lat="45.89834" lon="2.30108">
        <ele>604.724</ele>
        <time>2017-03-24T15:56:46Z</time>
      </trkpt>
      <trkpt lat="45.89792" lon="2.3017">
        <ele>610.845</ele>
        <time>2017-03-24T15:57:06Z</time>
      </trkpt>
      <trkpt lat="45.89761" lon="2.30196">
        <ele>614.298</ele>
        <time>2020-01-15T17:47:20Z</time>
      </trkpt>
      <trkpt lat="45.89785" lon="2.30245">
        <ele>620.764</ele>
        <time>2020-01-15T17:47:40Z</time>
      </trkpt>
      <trkpt lat="45.89787" lon="2.30337">
        <ele>623.028</ele>
        <time>2020-01-15T17:48:00Z</time>
      </trkpt>
      <trkpt lat="45.89784" lon="2.304">
        <ele>624.513</ele>
        <time>2020-01-15T17:48:20Z</time>
      </trkpt>
      <trkpt lat="45.89838" lon="2.3048">
        <ele>619.143</ele>
        <time>2020-01-15T17:48:40Z</time>
      </trkpt>
      <trkpt lat="45.89891" lon="2.30583">
        <ele>612.607</ele>
        <time>2020-01-15T17:49:00Z</time>
      </trkpt>
      <trkpt lat="45.89806" lon="2.3051">
        <ele>625.308</ele>
        <time>2020-01-15T17:49:20Z</time>
      </trkpt>
      <trkpt lat="45.89707" lon="2.30437">
        <ele>637.287</ele>
        <time>2020-01-15T17:49:40Z</time>
      </trkpt>
      <trkpt lat="45.89661" lon="2.30419">
        <ele>642.051</ele>
        <time>2020-01-15T17:50:00Z</time>
      </trkpt>
      <trkpt lat="45.89555" lon="2.30453">
        <ele>649.628</ele>
        <time>2017-03-24T16:00:46Z</time>
      </trkpt>
      <trkpt lat="45.89525" lon="2.30499">
        <ele>650.961</ele>
        <time>2020-01-15T17:50:40Z</time>
      </trkpt>
      <trkpt lat="45.89479" lon="2.30599">
        <ele>649.372</ele>
        <time>2020-01-15T17:51:00Z</time>
      </trkpt>
      <trkpt lat="45.89419" lon="2.30674">
        <ele>659.545</ele>
        <time>2020-01-15T17:51:20Z</time>
      </trkpt>
      <trkpt lat="45.89362" lon="2.30733">
        <ele>660.251</ele>
        <time>2017-03-24T16:02:06Z</time>
      </trkpt>
      <trkpt lat="45.89286" lon="2.30763">
        <ele>668.815</ele>
        <time>2020-01-15T17:52:00Z</time>
      </trkpt>
      <trkpt lat="45.89191" lon="2.30764">
        <ele>668.177</ele>
        <time>2020-01-15T17:52:20Z</time>
      </trkpt>
      <trkpt lat="45.89119" lon="2.30849">
        <ele>683.561</ele>
        <time>2017-03-24T16:03:06Z</time>
      </trkpt>
      <trkpt lat="45.89041" lon="2.30939">
        <ele>689.827</ele>
        <time>2020-01-15T17:53:00Z</time>
      </trkpt>
      <trkpt lat="45.88981" lon="2.30968">
        <ele>682.308</ele>
        <time>2017-03-24T16:03:46Z</time>
      </trkpt>
      <trkpt lat="45.88901" lon="2.31026">
        <ele>685.313</ele>
        <time>2017-03-24T16:04:06Z</time>
      </trkpt>
      <trkpt lat="45.88774" lon="2.31007">
        <ele>691.127</ele>
        <time>2020-01-15T17:54:00Z</time>
      </trkpt>
      <trkpt lat="45.88654" lon="2.31026">
        <ele>688.914</ele>
        <time>2020-01-15T17:54:20Z</time>
      </trkpt>
      <trkpt lat="45.88615" lon="2.3105">
        <ele>685.327</ele>
        <time>2020-01-15T17:54:40Z</time>
      </trkpt>
      <trkpt lat="45.88529" lon="2.31129">
        <ele>686.338</ele>
        <time>2020-01-15T17:55:00Z</time>
      </trkpt>
      <trkpt lat="45.88511" lon="2.31211">
        <ele>689.131</ele>
        <time>2020-01-15T17:55:20Z</time>
      </trkpt>
      <trkpt lat="45.88488" lon="2.31266">
        <ele>688.467</ele>
        <time>2017-03-24T16:06:06Z</time>
      </trkpt>
      <trkpt lat="45.88457" lon="2.31294">
        <ele>688.621</ele>
        <time>2017-03-24T16:06:26Z</time>
      </trkpt>
      <trkpt lat="45.88367" lon="2.31347">
        <ele>688.137</ele>
        <time>2017-03-24T16:06:46Z</time>
      </trkpt>
      <trkpt lat="45.88122" lon="2.31461">
        <ele>680.449</ele>
        <time>2017-03-24T16:07:46Z</time>
      </trkpt>
      <trkpt lat="45.8807" lon="2.31459">
        <ele>681.913</ele>
        <time>2017-03-24T16:08:06Z</time>
      </trkpt>
      <trkpt lat="45.88023" lon="2.31498">
        <ele>684.108</ele>
        <time>2017-03-24T16:08:26Z</time>
      </trkpt>
      <trkpt lat="45.87992" lon="2.31497">
        <ele>684.259</ele>
        <time>2017-03-24T16:08:46Z</time>
      </trkpt>
      <trkpt lat="45.87912" lon="2.31538">
        <ele>674.153</ele>
        <time>2017-03-24T16:09:06Z</time>
      </trkpt>
      <trkpt lat="45.87891" lon="2.31567">
        <ele>678.19</ele>
        <time>2017-03-24T16:09:26Z</time>
      </trkpt>
      <trkpt lat="45.87855" lon="2.31661">
        <ele>688.853</ele>
        <time>2017-03-24T16:09:46Z</time>
      </trkpt>
      <trkpt lat="45.87823" lon="2.31723">
        <ele>688.924</ele>
        <time>2017-03-24T16:10:06Z</time>
      </trkpt>
      <trkpt lat="45.878" lon="2.31805">
        <ele>689.827</ele>
        <time>2020-01-15T17:59:20Z</time>
      </trkpt>
      <trkpt lat="45.87801" lon="2.31969">
        <ele>685.643</ele>
        <time>2020-01-15T17:59:40Z</time>
      </trkpt>
      <trkpt lat="45.87779" lon="2.32234">
        <ele>690.367</ele>
        <time>2020-01-15T18:00:00Z</time>
      </trkpt>
      <trkpt lat="45.87853" lon="2.32523">
        <ele>690.498</ele>
        <time>2020-01-15T18:00:20Z</time>
      </trkpt>
      <trkpt lat="45.87869" lon="2.32723">
        <ele>688.615</ele>
        <time>2020-01-15T18:00:40Z</time>
      </trkpt>
      <trkpt lat="45.87863" lon="2.32877">
        <ele>690.126</ele>
        <time>2020-01-15T18:01:00Z</time>
      </trkpt>
      <trkpt lat="45.87763" lon="2.33042">
        <ele>682.408</ele>
        <time>2020-01-15T18:01:20Z</time>
      </trkpt>
      <trkpt lat="45.8783" lon="2.33237">
        <ele>674.725</ele>
        <time>2020-01-15T18:01:40Z</time>
      </trkpt>
      <trkpt lat="45.87703" lon="2.33231">
        <ele>667.559</ele>
        <time>2017-03-24T16:13:26Z</time>
      </trkpt>
      <trkpt lat="45.87676" lon="2.33164">
        <ele>671.596</ele>
        <time>2020-01-15T18:02:20Z</time>
      </trkpt>
      <trkpt lat="45.87626" lon="2.33096">
        <ele>674.699</ele>
        <time>2017-03-24T16:14:26Z</time>
      </trkpt>
      <trkpt lat="45.87606" lon="2.33089">
        <ele>679.72</ele>
        <time>2017-03-24T16:14:46Z</time>
      </trkpt>
      <trkpt lat="45.87498" lon="2.33133">
        <ele>686.063</ele>
        <time>2017-03-24T16:15:06Z</time>
      </trkpt>
      <trkpt lat="45.87476" lon="2.33126">
        <ele>685.249</ele>
        <time>2017-03-24T16:15:26Z</time>
      </trkpt>
      <trkpt lat="45.87378" lon="2.33128">
        <ele>675.783</ele>
        <time>2017-03-24T16:15:46Z</time>
      </trkpt>
      <trkpt lat="45.87327" lon="2.33154">
        <ele>675.958</ele>
        <time>2020-01-15T18:04:20Z</time>
      </trkpt>
      <trkpt lat="45.87312" lon="2.33199">
        <ele>673.552</ele>
        <time>2020-01-15T18:04:40Z</time>
      </trkpt>
      <trkpt lat="45.87308" lon="2.33272">
        <ele>673.617</ele>
        <time>2020-01-15T18:05:00Z</time>
      </trkpt>
      <trkpt lat="45.87109" lon="2.33466">
        <ele>684.308</ele>
        <time>2017-03-24T16:17:06Z</time>
      </trkpt>
      <trkpt lat="45.87069" lon="2.33538">
        <ele>685.961</ele>
        <time>2017-03-24T16:17:26Z</time>
      </trkpt>
      <trkpt lat="45.87019" lon="2.33603">
        <ele>696.125</ele>
        <time>2017-03-24T16:17:46Z</time>
      </trkpt>
      <trkpt lat="45.86993" lon="2.33696">
        <ele>701.092</ele>
        <time>2020-01-15T18:06:20Z</time>
      </trkpt>
      <trkpt lat="45.86955" lon="2.33805">
        <ele>702.515</ele>
        <time>2017-03-24T16:18:26Z</time>
      </trkpt>
      <trkpt lat="45.86912" lon="2.3387">
        <ele>702.496</ele>
        <time>2017-03-24T16:18:46Z</time>
      </trkpt>
      <trkpt lat="45.86879" lon="2.34022">
        <ele>714.869</ele>
        <time>2017-03-24T16:19:06Z</time>
      </trkpt>
      <trkpt lat="45.8684" lon="2.34099">
        <ele>716.775</ele>
        <time>2017-03-24T16:19:26Z</time>
      </trkpt>
      <trkpt lat="45.86805" lon="2.34206">
        <ele>717.179</ele>
        <time>2017-03-24T16:19:46Z</time>
      </trkpt>
      <trkpt lat="45.8675" lon="2.34327">
        <ele>708.582</ele>
        <time>2017-03-24T16:20:06Z</time>
      </trkpt>
      <trkpt lat="45.86731" lon="2.34421">
        <ele>712.743</ele>
        <time>2017-03-24T16:20:26Z</time>
      </trkpt>
      <trkpt lat="45.86697" lon="2.34491">
        <ele>711.617</ele>
        <time>2017-03-24T16:20:46Z</time>
      </trkpt>
      <trkpt lat="45.86712" lon="2.34512">
        <ele>710.008</ele>
        <time>2017-03-24T16:21:06Z</time>
      </trkpt>
      <trkpt lat="45.86712" lon="2.34564">
        <ele>709.744</ele>
        <time>2017-03-24T16:21:26Z</time>
      </trkpt>
      <trkpt lat="45.86704" lon="2.3465">
        <ele>710.398</ele>
        <time>2017-03-24T16:21:46Z</time>
      </trkpt>
      <trkpt lat="45.86713" lon="2.34837">
        <ele>717.555</ele>
        <time>2017-03-24T16:22:06Z</time>
      </trkpt>
      <trkpt lat="45.86725" lon="2.34915">
        <ele>725.298</ele>
        <time>2017-03-24T16:22:26Z</time>
      </trkpt>
      <trkpt lat="45.86709" lon="2.35002">
        <ele>728.639</ele>
        <time>2017-03-24T16:22:46Z</time>
      </trkpt>
      <trkpt lat="45.86723" lon="2.35151">
        <ele>729.422</ele>
        <time>2017-03-24T16:23:06Z</time>
      </trkpt>
      <trkpt lat="45.86825" lon="2.35345">
        <ele>726.448</ele>
        <time>2020-01-15T18:11:40Z</time>
      </trkpt>
      <trkpt lat="45.86844" lon="2.3561">
        <ele>710.922</ele>
        <time>2020-01-15T18:12:00Z</time>
      </trkpt>
      <trkpt lat="45.86834" lon="2.35658">
        <ele>707.347</ele>
        <time>2020-01-15T18:12:20Z</time>
      </trkpt>
      <trkpt lat="45.86779" lon="2.3581">
        <ele>699.229</ele>
        <time>2020-01-15T18:12:40Z</time>
      </trkpt>
      <trkpt lat="45.86742" lon="2.35935">
        <ele>683.621</ele>
        <time>2017-03-24T16:24:46Z</time>
      </trkpt>
      <trkpt lat="45.8672" lon="2.36007">
        <ele>682.908</ele>
        <time>2017-03-24T16:25:06Z</time>
      </trkpt>
      <trkpt lat="45.86688" lon="2.36047">
        <ele>683.99</ele>
        <time>2017-03-24T16:25:26Z</time>
      </trkpt>
      <trkpt lat="45.86721" lon="2.36178">
        <ele>689.144</ele>
        <time>2017-03-24T16:25:46Z</time>
      </trkpt>
      <trkpt lat="45.86755" lon="2.36243">
        <ele>688.821</ele>
        <time>2017-03-24T16:26:06Z</time>
      </trkpt>
      <trkpt lat="45.8675" lon="2.36314">
        <ele>696.074</ele>
        <time>2017-03-24T16:26:26Z</time>
      </trkpt>
      <trkpt lat="45.8672" lon="2.36362">
        <ele>698.285</ele>
        <time>2017-03-24T16:26:46Z</time>
      </trkpt>
      <trkpt lat="45.8667" lon="2.364">
        <ele>695.668</ele>
        <time>2017-03-24T16:27:06Z</time>
      </trkpt>
      <trkpt lat="45.86655" lon="2.36453">
        <ele>693.064</ele>
        <time>2017-03-24T16:27:26Z</time>
      </trkpt>
      <trkpt lat="45.86675" lon="2.36502">
        <ele>699.488</ele>
        <time>2017-03-24T16:27:46Z</time>
      </trkpt>
      <trkpt lat="45.86724" lon="2.36513">
        <ele>703.975</ele>
        <time>2017-03-24T16:28:06Z</time>
      </trkpt>
      <trkpt lat="45.86891" lon="2.36498">
        <ele>709.928</ele>
        <time>2020-01-15T18:16:40Z</time>
      </trkpt>
      <trkpt lat="45.86858" lon="2.3657">
        <ele>719.92</ele>
        <time>2020-01-15T18:17:00Z</time>
      </trkpt>
      <trkpt lat="45.86812" lon="2.366">
        <ele>723.608</ele>
        <time>2020-01-15T18:17:20Z</time>
      </trkpt>
      <trkpt lat="45.86779" lon="2.36683">
        <ele>731.993</ele>
        <time>2020-01-15T18:17:40Z</time>
      </trkpt>
      <trkpt lat="45.86757" lon="2.36908">
        <ele>728.537</ele>
        <time>2017-03-24T16:31:06Z</time>
      </trkpt>
      <trkpt lat="45.86686" lon="2.37016">
        <ele>720.774</ele>
        <time>2020-01-15T18:18:20Z</time>
      </trkpt>
      <trkpt lat="45.86698" lon="2.37129">
        <ele>716.347</ele>
        <time>2020-01-15T18:18:40Z</time>
      </trkpt>
      <trkpt lat="45.8676" lon="2.37271">
        <ele>703.478</ele>
        <time>2020-01-15T18:19:00Z</time>
      </trkpt>
      <trkpt lat="45.86714" lon="2.37401">
        <ele>690.571</ele>
        <time>2017-03-24T16:32:26Z</time>
      </trkpt>
      <trkpt lat="45.86627" lon="2.37445">
        <ele>688.777</ele>
        <time>2017-03-24T16:32:46Z</time>
      </trkpt>
      <trkpt lat="45.8656" lon="2.37499">
        <ele>686.831</ele>
        <time>2017-03-24T16:33:06Z</time>
      </trkpt>
      <trkpt lat="45.86562" lon="2.37562">
        <ele>688.719</ele>
        <time>2017-03-24T16:33:26Z</time>
      </trkpt>
      <trkpt lat="45.86556" lon="2.37662">
        <ele>694.809</ele>
        <time>2017-03-24T16:33:46Z</time>
      </trkpt>
      <trkpt lat="45.86545" lon="2.37695">
        <ele>697.519</ele>
        <time>2017-03-24T16:34:06Z</time>
      </trkpt>
      <trkpt lat="45.86551" lon="2.37769">
        <ele>711.208</ele>
        <time>2020-01-15T18:21:20Z</time>
      </trkpt>
      <trkpt lat="45.86501" lon="2.37881">
        <ele>723.237</ele>
        <time>2020-01-15T18:21:40Z</time>
      </trkpt>
      <trkpt lat="45.8644" lon="2.37957">
        <ele>722.861</ele>
        <time>2020-01-15T18:22:00Z</time>
      </trkpt>
      <trkpt lat="45.86406" lon="2.37987">
        <ele>724.588</ele>
        <time>2020-01-15T18:22:20Z</time>
      </trkpt>
      <trkpt lat="45.86383" lon="2.38057">
        <ele>721.961</ele>
        <time>2020-01-15T18:22:40Z</time>
      </trkpt>
      <trkpt lat="45.86343" lon="2.38113">
        <ele>724.212</ele>
        <time>2017-03-24T16:36:06Z</time>
      </trkpt>
      <trkpt lat="45.86341" lon="2.3819">
        <ele>722.045</ele>
        <time>2017-03-24T16:36:26Z</time>
      </trkpt>
      <trkpt lat="45.8637" lon="2.38268">
        <ele>721.191</ele>
        <time>2020-01-15T18:23:40Z</time>
      </trkpt>
      <trkpt lat="45.8638" lon="2.38339">
        <ele>722.395</ele>
        <time>2020-01-15T18:24:00Z</time>
      </trkpt>
      <trkpt lat="45.86369" lon="2.38456">
        <ele>720.142</ele>
        <time>2020-01-15T18:24:20Z</time>
      </trkpt>
      <trkpt lat="45.86365" lon="2.38557">
        <ele>717.722</ele>
        <time>2020-01-15T18:24:40Z</time>
      </trkpt>
      <trkpt lat="45.86353" lon="2.38621">
        <ele>712.814</ele>
        <time>2020-01-15T18:25:00Z</time>
      </trkpt>
      <trkpt lat="45.86318" lon="2.38667">
        <ele>707.108</ele>
        <time>2020-01-15T18:25:20Z</time>
      </trkpt>
      <trkpt lat="45.86258" lon="2.38691">
        <ele>705.02</ele>
        <time>2020-01-15T18:25:40Z</time>
      </trkpt>
      <trkpt lat="45.86213" lon="2.38696">
        <ele>701.324</ele>
        <time>2020-01-15T18:26:00Z</time>
      </trkpt>
      <trkpt lat="45.86164" lon="2.38722">
        <ele>698.791</ele>
        <time>2020-01-15T18:26:20Z</time>
      </trkpt>
      <trkpt lat="45.86177" lon="2.38782">
        <ele>697.184</ele>
        <time>2020-01-15T18:26:40Z</time>
      </trkpt>
      <trkpt lat="45.86179" lon="2.3882">
        <ele>699.135</ele>
        <time>2020-01-15T18:27:00Z</time>
      </trkpt>
      <trkpt lat="45.8614" lon="2.38865">
        <ele>701.228</ele>
        <time>2017-03-24T16:39:46Z</time>
      </trkpt>
      <trkpt lat="45.86045" lon="2.38959">
        <ele>707.654</ele>
        <time>2017-03-24T16:40:06Z</time>
      </trkpt>
      <trkpt lat="45.85981" lon="2.39044">
        <ele>717.718</ele>
        <time>2017-03-24T16:40:26Z</time>
      </trkpt>
      <trkpt lat="45.85944" lon="2.39143">
        <ele>729.393</ele>
        <time>2017-03-24T16:40:46Z</time>
      </trkpt>
      <trkpt lat="45.85893" lon="2.39231">
        <ele>734.265</ele>
        <time>2017-03-24T16:41:06Z</time>
      </trkpt>
      <trkpt lat="45.85911" lon="2.39344">
        <ele>740.521</ele>
        <time>2017-03-24T16:41:26Z</time>
      </trkpt>
      <trkpt lat="45.85906" lon="2.39478">
        <ele>740.808</ele>
        <time>2020-11-19T23:44:45Z</time>
      </trkpt>
      <trkpt lat="45.85877" lon="2.39521">
        <ele>736.875</ele>
        <time>2017-03-24T16:42:06Z</time>
      </trkpt>
      <trkpt lat="45.85844" lon="2.39531">
        <ele>734.399</ele>
        <time>2017-03-24T16:42:26Z</time>
      </trkpt>
      <trkpt lat="45.85781" lon="2.39508">
        <ele>730.756</ele>
        <time>2017-03-24T16:42:46Z</time>
      </trkpt>
      <trkpt lat="45.85694" lon="2.39562">
        <ele>723.079</ele>
        <time>2020-11-19T23:46:05Z</time>
      </trkpt>
      <trkpt lat="45.85693" lon="2.39649">
        <ele>720.97</ele>
        <time>2020-11-19T23:46:25Z</time>
      </trkpt>
      <trkpt lat="45.85725" lon="2.3968">
        <ele>715.163</ele>
        <time>2017-03-24T16:43:26Z</time>
      </trkpt>
      <trkpt lat="45.85738" lon="2.39714">
        <ele>711.779</ele>
        <time>2017-03-24T16:43:46Z</time>
      </trkpt>
      <trkpt lat="45.8573" lon="2.39742">
        <ele>709.943</ele>
        <time>2017-03-24T16:44:06Z</time>
      </trkpt>
      <trkpt lat="45.85687" lon="2.3975">
        <ele>711.392</ele>
        <time>2017-03-24T16:44:26Z</time>
      </trkpt>
      <trkpt lat="45.85663" lon="2.39828">
        <ele>715.573</ele>
        <time>2020-01-15T18:32:40Z</time>
      </trkpt>
      <trkpt lat="45.85688" lon="2.39897">
        <ele>714.22</ele>
        <time>2020-01-15T18:33:00Z</time>
      </trkpt>
      <trkpt lat="45.8574" lon="2.39963">
        <ele>716.608</ele>
        <time>2020-01-15T18:33:20Z</time>
      </trkpt>
      <trkpt lat="45.85749" lon="2.40006">
        <ele>720.725</ele>
        <time>2020-01-15T18:33:40Z</time>
      </trkpt>
      <trkpt lat="45.85739" lon="2.40087">
        <ele>725.499</ele>
        <time>2017-03-24T16:46:06Z</time>
      </trkpt>
      <trkpt lat="45.85763" lon="2.40114">
        <ele>724.616</ele>
        <time>2017-03-24T16:46:26Z</time>
      </trkpt>
      <trkpt lat="45.85764" lon="2.40152">
        <ele>726.739</ele>
        <time>2017-03-24T16:46:46Z</time>
      </trkpt>
      <trkpt lat="45.85739" lon="2.40178">
        <ele>727.43</ele>
        <time>2020-01-15T18:35:00Z</time>
      </trkpt>
      <trkpt lat="45.85745" lon="2.40252">
        <ele>729.583</ele>
        <time>2020-01-15T18:35:20Z</time>
      </trkpt>
      <trkpt lat="45.85747" lon="2.40368">
        <ele>733.449</ele>
        <time>2017-03-24T16:47:46Z</time>
      </trkpt>
      <trkpt lat="45.85735" lon="2.40394">
        <ele>735.823</ele>
        <time>2017-03-24T16:48:06Z</time>
      </trkpt>
      <trkpt lat="45.8573" lon="2.40491">
        <ele>739.989</ele>
        <time>2020-01-15T18:36:20Z</time>
      </trkpt>
      <trkpt lat="45.85739" lon="2.406">
        <ele>747.006</ele>
        <time>2020-01-15T18:36:40Z</time>
      </trkpt>
      <trkpt lat="45.8576" lon="2.40674">
        <ele>754.226</ele>
        <time>2020-01-15T18:37:00Z</time>
      </trkpt>
      <trkpt lat="45.85788" lon="2.40723">
        <ele>755.508</ele>
        <time>2020-01-15T18:37:20Z</time>
      </trkpt>
      <trkpt lat="45.85782" lon="2.40775">
        <ele>759.254</ele>
        <time>2020-01-15T18:37:40Z</time>
      </trkpt>
      <trkpt lat="45.85734" lon="2.40846">
        <ele>773.248</ele>
        <time>2020-01-15T18:38:00Z</time>
      </trkpt>
      <trkpt lat="45.8567" lon="2.40904">
        <ele>776.425</ele>
        <time>2020-01-15T18:38:20Z</time>
      </trkpt>
      <trkpt lat="45.85673" lon="2.40975">
        <ele>773.618</ele>
        <time>2020-01-15T18:38:40Z</time>
      </trkpt>
      <trkpt lat="45.85658" lon="2.41029">
        <ele>777.999</ele>
        <time>2020-01-15T18:39:00Z</time>
      </trkpt>
      <trkpt lat="45.8572" lon="2.41248">
        <ele>781.042</ele>
        <time>2017-03-24T16:51:06Z</time>
      </trkpt>
      <trkpt lat="45.85659" lon="2.41295">
        <ele>776.948</ele>
        <time>2017-03-24T16:51:26Z</time>
      </trkpt>
      <trkpt lat="45.85621" lon="2.4136">
        <ele>773.012</ele>
        <time>2017-03-24T16:51:46Z</time>
      </trkpt>
      <trkpt lat="45.85544" lon="2.41403">
        <ele>773.662</ele>
        <time>2017-03-24T16:52:06Z</time>
      </trkpt>
      <trkpt lat="45.85476" lon="2.4148">
        <ele>777.583</ele>
        <time>2017-03-24T16:52:26Z</time>
      </trkpt>
      <trkpt lat="45.85393" lon="2.41481">
        <ele>770.111</ele>
        <time>2017-03-24T16:52:46Z</time>
      </trkpt>
      <trkpt lat="45.85341" lon="2.41525">
        <ele>765.808</ele>
        <time>2017-03-24T16:53:06Z</time>
      </trkpt>
      <trkpt lat="45.853" lon="2.41621">
        <ele>761.962</ele>
        <time>2017-03-24T16:53:26Z</time>
      </trkpt>
      <trkpt lat="45.85252" lon="2.41666">
        <ele>758.816</ele>
        <time>2017-03-24T16:53:46Z</time>
      </trkpt>
      <trkpt lat="45.85207" lon="2.41799">
        <ele>764.453</ele>
        <time>2020-01-15T18:42:20Z</time>
      </trkpt>
      <trkpt lat="45.85213" lon="2.41971">
        <ele>765.026</ele>
        <time>2017-03-24T16:54:26Z</time>
      </trkpt>
      <trkpt lat="45.85194" lon="2.4201">
        <ele>763.637</ele>
        <time>2017-03-24T16:54:46Z</time>
      </trkpt>
      <trkpt lat="45.85158" lon="2.42009">
        <ele>762.83</ele>
        <time>2017-03-24T16:55:06Z</time>
      </trkpt>
      <trkpt lat="45.85151" lon="2.42042">
        <ele>762.366</ele>
        <time>2017-03-24T16:55:26Z</time>
      </trkpt>
      <trkpt lat="45.8516" lon="2.42089">
        <ele>761.87</ele>
        <time>2017-03-24T16:55:46Z</time>
      </trkpt>
      <trkpt lat="45.85146" lon="2.42139">
        <ele>763.788</ele>
        <time>2017-03-24T16:56:06Z</time>
      </trkpt>
      <trkpt lat="45.85135" lon="2.42238">
        <ele>759.624</ele>
        <time>2017-03-24T16:56:26Z</time>
      </trkpt>
      <trkpt lat="45.85056" lon="2.42267">
        <ele>760.626</ele>
        <time>2017-03-24T16:56:46Z</time>
      </trkpt>
      <trkpt lat="45.85026" lon="2.42295">
        <ele>759.108</ele>
        <time>2017-03-24T16:57:06Z</time>
      </trkpt>
      <trkpt lat="45.84988" lon="2.4238">
        <ele>752.964</ele>
        <time>2017-03-24T16:57:26Z</time>
      </trkpt>
      <trkpt lat="45.84903" lon="2.42436">
        <ele>753.418</ele>
        <time>2017-03-24T16:57:46Z</time>
      </trkpt>
      <trkpt lat="45.84891" lon="2.42479">
        <ele>753.735</ele>
        <time>2020-01-15T18:46:20Z</time>
      </trkpt>
      <trkpt lat="45.84957" lon="2.42778">
        <ele>759.988</ele>
        <time>2020-01-15T18:46:40Z</time>
      </trkpt>
      <trkpt lat="45.84979" lon="2.42772">
        <ele>762.159</ele>
        <time>2020-01-15T18:47:00Z</time>
      </trkpt>
      <trkpt lat="45.85055" lon="2.42795">
        <ele>768.452</ele>
        <time>2020-01-15T18:47:20Z</time>
      </trkpt>
      <trkpt lat="45.8517" lon="2.4298">
        <ele>761.848</ele>
        <time>2017-03-24T16:59:46Z</time>
      </trkpt>
      <trkpt lat="45.85199" lon="2.42979">
        <ele>758.732</ele>
        <time>2017-03-24T17:00:06Z</time>
      </trkpt>
      <trkpt lat="45.85272" lon="2.42918">
        <ele>755.141</ele>
        <time>2020-01-15T18:48:20Z</time>
      </trkpt>
      <trkpt lat="45.85312" lon="2.42927">
        <ele>755.081</ele>
        <time>2020-01-15T18:48:40Z</time>
      </trkpt>
      <trkpt lat="45.85371" lon="2.43013">
        <ele>753.709</ele>
        <time>2020-01-15T18:49:00Z</time>
      </trkpt>
      <trkpt lat="45.85392" lon="2.43032">
        <ele>751.708</ele>
        <time>2017-03-24T17:01:06Z</time>
      </trkpt>
      <trkpt lat="45.85385" lon="2.43115">
        <ele>755.88</ele>
        <time>2017-03-24T17:01:26Z</time>
      </trkpt>
      <trkpt lat="45.85385" lon="2.43115">
        <ele>755.854</ele>
        <time>2017-03-24T17:01:46Z</time>
      </trkpt>
      <trkpt lat="45.85366" lon="2.43208">
        <ele>760.741</ele>
        <time>2017-03-24T17:02:06Z</time>
      </trkpt>
      <trkpt lat="45.85339" lon="2.43356">
        <ele>767.134</ele>
        <time>2017-03-24T17:02:26Z</time>
      </trkpt>
      <trkpt lat="45.8533" lon="2.43448">
        <ele>766.425</ele>
        <time>2017-03-24T17:02:46Z</time>
      </trkpt>
      <trkpt lat="45.85267" lon="2.43589">
        <ele>775.638</ele>
        <time>2017-03-24T17:03:06Z</time>
      </trkpt>
      <trkpt lat="45.85256" lon="2.43658">
        <ele>771.424</ele>
        <time>2017-03-24T17:03:26Z</time>
      </trkpt>
      <trkpt lat="45.85235" lon="2.43768">
        <ele>767.698</ele>
        <time>2017-03-24T17:03:46Z</time>
      </trkpt>
      <trkpt lat="45.85236" lon="2.43892">
        <ele>767.243</ele>
        <time>2017-03-24T17:04:06Z</time>
      </trkpt>
      <trkpt lat="45.85216" lon="2.43991">
        <ele>765.464</ele>
        <time>2017-03-24T17:04:26Z</time>
      </trkpt>
      <trkpt lat="45.85217" lon="2.4409">
        <ele>762.81</ele>
        <time>2017-03-24T17:04:46Z</time>
      </trkpt>
      <trkpt lat="45.85204" lon="2.44177">
        <ele>760.708</ele>
        <time>2017-03-24T17:05:06Z</time>
      </trkpt>
      <trkpt lat="45.85216" lon="2.44276">
        <ele>761.24</ele>
        <time>2017-03-24T17:05:26Z</time>
      </trkpt>
      <trkpt lat="45.85256" lon="2.44239">
        <ele>759.514</ele>
        <time>2017-03-24T17:05:46Z</time>
      </trkpt>
      <trkpt lat="45.8542" lon="2.44214">
        <ele>752.581</ele>
        <time>2017-03-24T17:06:06Z</time>
      </trkpt>
      <trkpt lat="45.85438" lon="2.44203">
        <ele>750.094</ele>
        <time>2017-03-24T17:06:26Z</time>
      </trkpt>
      <trkpt lat="45.85473" lon="2.44207">
        <ele>747.355</ele>
        <time>2020-01-15T18:55:00Z</time>
      </trkpt>
      <trkpt lat="45.85684" lon="2.44252">
        <ele>736.048</ele>
        <time>2017-03-24T17:07:26Z</time>
      </trkpt>
      <trkpt lat="45.85745" lon="2.44246">
        <ele>736.744</ele>
        <time>2020-01-15T18:55:40Z</time>
      </trkpt>
      <trkpt lat="45.85852" lon="2.44328">
        <ele>743.798</ele>
        <time>2020-01-15T18:56:00Z</time>
      </trkpt>
      <trkpt lat="45.85865" lon="2.44431">
        <ele>749.879</ele>
        <time>2020-01-15T18:56:20Z</time>
      </trkpt>
      <trkpt lat="45.85808" lon="2.44555">
        <ele>747.805</ele>
        <time>2017-03-24T17:08:46Z</time>
      </trkpt>
      <trkpt lat="45.85814" lon="2.44782">
        <ele>752.125</ele>
        <time>2017-03-24T17:09:06Z</time>
      </trkpt>
      <trkpt lat="45.8581" lon="2.44901">
        <ele>743.008</ele>
        <time>2017-03-24T17:09:26Z</time>
      </trkpt>
      <trkpt lat="45.85817" lon="2.44947">
        <ele>742.013</ele>
        <time>2020-01-15T18:57:40Z</time>
      </trkpt>
      <trkpt lat="45.85816" lon="2.45098">
        <ele>741.647</ele>
        <time>2020-01-15T18:58:00Z</time>
      </trkpt>
      <trkpt lat="45.8586" lon="2.45175">
        <ele>744.774</ele>
        <time>2020-01-15T18:58:20Z</time>
      </trkpt>
      <trkpt lat="45.8589" lon="2.45201">
        <ele>744.917</ele>
        <time>2020-01-15T18:58:40Z</time>
      </trkpt>
      <trkpt lat="45.85972" lon="2.45346">
        <ele>746.448</ele>
        <time>2020-01-15T18:59:00Z</time>
      </trkpt>
      <trkpt lat="45.85968" lon="2.45391">
        <ele>744.671</ele>
        <time>2020-01-15T18:59:20Z</time>
      </trkpt>
      <trkpt lat="45.85912" lon="2.45529">
        <ele>739.927</ele>
        <time>2017-03-24T17:11:26Z</time>
      </trkpt>
      <trkpt lat="45.85874" lon="2.4562">
        <ele>737.241</ele>
        <time>2017-03-24T17:11:46Z</time>
      </trkpt>
      <trkpt lat="45.85885" lon="2.45743">
        <ele>729.582</ele>
        <time>2017-03-24T17:12:06Z</time>
      </trkpt>
      <trkpt lat="45.85923" lon="2.45855">
        <ele>724.443</ele>
        <time>2017-03-24T17:12:26Z</time>
      </trkpt>
      <trkpt lat="45.8592" lon="2.45926">
        <ele>726.117</ele>
        <time>2017-03-24T17:12:46Z</time>
      </trkpt>
      <trkpt lat="45.85872" lon="2.46087">
        <ele>727.108</ele>
        <time>2017-03-24T17:13:06Z</time>
      </trkpt>
      <trkpt lat="45.85873" lon="2.46161">
        <ele>728.814</ele>
        <time>2017-03-24T17:13:26Z</time>
      </trkpt>
      <trkpt lat="45.85854" lon="2.46198">
        <ele>727.868</ele>
        <time>2017-03-24T17:13:46Z</time>
      </trkpt>
      <trkpt lat="45.85751" lon="2.4622">
        <ele>727.815</ele>
        <time>2017-03-24T17:14:06Z</time>
      </trkpt>
      <trkpt lat="45.85736" lon="2.46254">
        <ele>731.848</ele>
        <time>2020-01-15T19:02:40Z</time>
      </trkpt>
      <trkpt lat="45.85726" lon="2.46305">
        <ele>737.989</ele>
        <time>2020-01-15T19:03:00Z</time>
      </trkpt>
      <trkpt lat="45.85693" lon="2.46379">
        <ele>745.782</ele>
        <time>2017-03-24T17:14:26Z</time>
      </trkpt>
      <trkpt lat="45.85621" lon="2.46461">
        <ele>755.898</ele>
        <time>2017-03-24T17:14:46Z</time>
      </trkpt>
      <trkpt lat="45.85585" lon="2.46542">
        <ele>750.022</ele>
        <time>2017-03-24T17:15:06Z</time>
      </trkpt>
      <trkpt lat="45.85425" lon="2.46682">
        <ele>734.954</ele>
        <time>2017-03-24T17:15:26Z</time>
      </trkpt>
      <trkpt lat="45.85403" lon="2.46803">
        <ele>729.556</ele>
        <time>2020-01-15T19:04:40Z</time>
      </trkpt>
      <trkpt lat="45.8542" lon="2.46927">
        <ele>727.911</ele>
        <time>2017-03-24T17:16:06Z</time>
      </trkpt>
      <trkpt lat="45.85444" lon="2.4699">
        <ele>721.808</ele>
        <time>2017-03-24T17:16:26Z</time>
      </trkpt>
      <trkpt lat="45.85442" lon="2.47041">
        <ele>719.751</ele>
        <time>2017-03-24T17:16:46Z</time>
      </trkpt>
      <trkpt lat="45.85413" lon="2.47104">
        <ele>716.795</ele>
        <time>2017-03-24T17:17:06Z</time>
      </trkpt>
      <trkpt lat="45.85415" lon="2.47181">
        <ele>715.552</ele>
        <time>2017-03-24T17:17:26Z</time>
      </trkpt>
      <trkpt lat="45.85454" lon="2.47325">
        <ele>716.755</ele>
        <time>2017-03-24T17:17:46Z</time>
      </trkpt>
      <trkpt lat="45.85449" lon="2.47451">
        <ele>714.676</ele>
        <time>2017-03-24T17:18:06Z</time>
      </trkpt>
      <trkpt lat="45.85415" lon="2.47527">
        <ele>722.039</ele>
        <time>2017-03-24T17:18:26Z</time>
      </trkpt>
      <trkpt lat="45.85409" lon="2.47611">
        <ele>718.685</ele>
        <time>2017-03-24T17:18:46Z</time>
      </trkpt>
      <trkpt lat="45.85392" lon="2.47616">
        <ele>719.649</ele>
        <time>2017-03-24T17:19:06Z</time>
      </trkpt>
      <trkpt lat="45.85384" lon="2.4768">
        <ele>716.973</ele>
        <time>2017-03-24T17:19:26Z</time>
      </trkpt>
      <trkpt lat="45.8532" lon="2.47732">
        <ele>716.385</ele>
        <time>2017-03-24T17:19:46Z</time>
      </trkpt>
      <trkpt lat="45.85257" lon="2.47749">
        <ele>719.513</ele>
        <time>2017-03-24T17:20:06Z</time>
      </trkpt>
      <trkpt lat="45.85143" lon="2.48044">
        <ele>727.008</ele>
        <time>2020-11-20T00:24:45Z</time>
      </trkpt>
      <trkpt lat="45.85093" lon="2.4809">
        <ele>734.483</ele>
        <time>2020-11-20T00:25:05Z</time>
      </trkpt>
      <trkpt lat="45.85048" lon="2.48086">
        <ele>732.537</ele>
        <time>2020-11-20T00:25:25Z</time>
      </trkpt>
      <trkpt lat="45.85018" lon="2.48117">
        <ele>731.034</ele>
        <time>2020-11-20T00:25:45Z</time>
      </trkpt>
      <trkpt lat="45.84983" lon="2.48128">
        <ele>734.047</ele>
        <time>2020-11-20T00:26:05Z</time>
      </trkpt>
      <trkpt lat="45.8493" lon="2.4822">
        <ele>737.478</ele>
        <time>2020-11-20T00:26:25Z</time>
      </trkpt>
      <trkpt lat="45.84955" lon="2.48284">
        <ele>741.451</ele>
        <time>2020-11-20T00:26:45Z</time>
      </trkpt>
      <trkpt lat="45.84955" lon="2.48402">
        <ele>740.127</ele>
        <time>2020-11-20T00:27:05Z</time>
      </trkpt>
      <trkpt lat="45.84966" lon="2.48516">
        <ele>740.491</ele>
        <time>2017-03-24T17:24:06Z</time>
      </trkpt>
      <trkpt lat="45.8498" lon="2.4858">
        <ele>740.023</ele>
        <time>2017-03-24T17:24:26Z</time>
      </trkpt>
      <trkpt lat="45.84978" lon="2.48634">
        <ele>741.383</ele>
        <time>2017-03-24T17:24:46Z</time>
      </trkpt>
      <trkpt lat="45.84964" lon="2.48718">
        <ele>744.511</ele>
        <time>2017-03-24T17:25:06Z</time>
      </trkpt>
      <trkpt lat="45.84924" lon="2.48789">
        <ele>740.508</ele>
        <time>2017-03-24T17:25:26Z</time>
      </trkpt>
      <trkpt lat="45.84912" lon="2.48878">
        <ele>733.718</ele>
        <time>2017-03-24T17:25:46Z</time>
      </trkpt>
      <trkpt lat="45.84871" lon="2.48969">
        <ele>730.412</ele>
        <time>2017-03-24T17:26:06Z</time>
      </trkpt>
      <trkpt lat="45.84856" lon="2.49086">
        <ele>729.929</ele>
        <time>2017-03-24T17:26:26Z</time>
      </trkpt>
      <trkpt lat="45.84899" lon="2.49182">
        <ele>732.982</ele>
        <time>2017-03-24T17:26:46Z</time>
      </trkpt>
      <trkpt lat="45.84989" lon="2.49302">
        <ele>721.953</ele>
        <time>2017-03-24T17:27:06Z</time>
      </trkpt>
      <trkpt lat="45.84953" lon="2.49404">
        <ele>723.626</ele>
        <time>2017-03-24T17:27:26Z</time>
      </trkpt>
      <trkpt lat="45.8498" lon="2.49522">
        <ele>715.532</ele>
        <time>2017-03-24T17:27:46Z</time>
      </trkpt>
      <trkpt lat="45.84963" lon="2.49547">
        <ele>714.846</ele>
        <time>2017-03-24T17:28:06Z</time>
      </trkpt>
      <trkpt lat="45.84787" lon="2.49567">
        <ele>718.991</ele>
        <time>2017-03-24T17:28:26Z</time>
      </trkpt>
      <trkpt lat="45.84687" lon="2.49664">
        <ele>705.781</ele>
        <time>2017-03-24T17:28:46Z</time>
      </trkpt>
      <trkpt lat="45.84642" lon="2.49667">
        <ele>711.719</ele>
        <time>2017-03-24T17:29:06Z</time>
      </trkpt>
      <trkpt lat="45.84604" lon="2.49697">
        <ele>709.508</ele>
        <time>2017-03-24T17:29:26Z</time>
      </trkpt>
      <trkpt lat="45.84576" lon="2.497">
        <ele>708.935</ele>
        <time>2017-03-24T17:29:46Z</time>
      </trkpt>
      <trkpt lat="45.84588" lon="2.49774">
        <ele>711.159</ele>
        <time>2017-03-24T17:30:06Z</time>
      </trkpt>
      <trkpt lat="45.84589" lon="2.49842">
        <ele>711.216</ele>
        <time>2017-03-24T17:30:26Z</time>
      </trkpt>
      <trkpt lat="45.84534" lon="2.49975">
        <ele>707.199</ele>
        <time>2017-03-24T17:30:46Z</time>
      </trkpt>
      <trkpt lat="45.84521" lon="2.50068">
        <ele>709.71</ele>
        <time>2017-03-24T17:31:06Z</time>
      </trkpt>
      <trkpt lat="45.84575" lon="2.5015">
        <ele>709.533</ele>
        <time>2017-03-24T17:31:26Z</time>
      </trkpt>
      <trkpt lat="45.84614" lon="2.50262">
        <ele>708.419</ele>
        <time>2017-03-24T17:31:46Z</time>
      </trkpt>
      <trkpt lat="45.84652" lon="2.50306">
        <ele>711.453</ele>
        <time>2017-03-24T17:32:06Z</time>
      </trkpt>
      <trkpt lat="45.84858" lon="2.50351">
        <ele>717.046</ele>
        <time>2017-03-24T17:32:26Z</time>
      </trkpt>
      <trkpt lat="45.84965" lon="2.50405">
        <ele>722.788</ele>
        <time>2017-03-24T17:32:46Z</time>
      </trkpt>
      <trkpt lat="45.85053" lon="2.50553">
        <ele>716.316</ele>
        <time>2017-03-24T17:33:06Z</time>
      </trkpt>
      <trkpt lat="45.85118" lon="2.50635">
        <ele>712.308</ele>
        <time>2017-03-24T17:33:26Z</time>
      </trkpt>
      <trkpt lat="45.85172" lon="2.50761">
        <ele>717.33</ele>
        <time>2017-03-24T17:33:46Z</time>
      </trkpt>
      <trkpt lat="45.85196" lon="2.50784">
        <ele>710.884</ele>
        <time>2017-03-24T17:34:06Z</time>
      </trkpt>
      <trkpt lat="45.85195" lon="2.50848">
        <ele>713.041</ele>
        <time>2017-03-24T17:34:26Z</time>
      </trkpt>
      <trkpt lat="45.85209" lon="2.50899">
        <ele>710.144</ele>
        <time>2017-03-24T17:34:46Z</time>
      </trkpt>
      <trkpt lat="45.8516" lon="2.50958">
        <ele>718.055</ele>
        <time>2017-03-24T17:35:06Z</time>
      </trkpt>
      <trkpt lat="45.85154" lon="2.50994">
        <ele>718.168</ele>
        <time>2017-03-24T17:35:26Z</time>
      </trkpt>
      <trkpt lat="45.85107" lon="2.51063">
        <ele>718.434</ele>
        <time>2017-03-24T17:35:46Z</time>
      </trkpt>
      <trkpt lat="45.85006" lon="2.51144">
        <ele>725.528</ele>
        <time>2017-03-24T17:36:06Z</time>
      </trkpt>
      <trkpt lat="45.84974" lon="2.512">
        <ele>717.985</ele>
        <time>2017-03-24T17:36:26Z</time>
      </trkpt>
      <trkpt lat="45.84931" lon="2.51293">
        <ele>713.789</ele>
        <time>2017-03-24T17:36:46Z</time>
      </trkpt>
      <trkpt lat="45.84862" lon="2.51597">
        <ele>698.517</ele>
        <time>2017-03-24T17:37:06Z</time>
      </trkpt>
      <trkpt lat="45.84798" lon="2.51784">
        <ele>693.808</ele>
        <time>2017-03-24T17:37:26Z</time>
      </trkpt>
      <trkpt lat="45.84783" lon="2.51858">
        <ele>693.774</ele>
        <time>2017-03-24T17:37:46Z</time>
      </trkpt>
      <trkpt lat="45.84777" lon="2.51951">
        <ele>691.878</ele>
        <time>2017-03-24T17:38:06Z</time>
      </trkpt>
      <trkpt lat="45.84733" lon="2.51981">
        <ele>691.565</ele>
        <time>2017-03-24T17:38:26Z</time>
      </trkpt>
      <trkpt lat="45.84669" lon="2.51953">
        <ele>693.628</ele>
        <time>2017-03-24T17:38:46Z</time>
      </trkpt>
      <trkpt lat="45.84598" lon="2.52011">
        <ele>697.099</ele>
        <time>2017-03-24T17:39:06Z</time>
      </trkpt>
      <trkpt lat="45.84554" lon="2.52061">
        <ele>703.042</ele>
        <time>2017-03-24T17:39:26Z</time>
      </trkpt>
      <trkpt lat="45.8459" lon="2.52192">
        <ele>691.548</ele>
        <time>2017-03-24T17:39:46Z</time>
      </trkpt>
      <trkpt lat="45.84613" lon="2.52238">
        <ele>693.112</ele>
        <time>2017-03-24T17:40:06Z</time>
      </trkpt>
      <trkpt lat="45.84649" lon="2.52256">
        <ele>693.715</ele>
        <time>2020-01-15T19:29:20Z</time>
      </trkpt>
      <trkpt lat="45.846" lon="2.5232">
        <ele>698.265</ele>
        <time>2020-01-15T19:29:40Z</time>
      </trkpt>
      <trkpt lat="45.84576" lon="2.52381">
        <ele>700.211</ele>
        <time>2020-01-15T19:30:00Z</time>
      </trkpt>
      <trkpt lat="45.84561" lon="2.5249">
        <ele>703.708</ele>
        <time>2020-01-15T19:30:20Z</time>
      </trkpt>
      <trkpt lat="45.84539" lon="2.52738">
        <ele>718.577</ele>
        <time>2020-01-15T19:30:40Z</time>
      </trkpt>
      <trkpt lat="45.84622" lon="2.53271">
        <ele>751.711</ele>
        <time>2017-03-24T17:41:46Z</time>
      </trkpt>
      <trkpt lat="45.84672" lon="2.53476">
        <ele>737.488</ele>
        <time>2020-01-15T19:31:20Z</time>
      </trkpt>
      <trkpt lat="45.8468" lon="2.53579">
        <ele>735.681</ele>
        <time>2020-01-15T19:31:40Z</time>
      </trkpt>
      <trkpt lat="45.84649" lon="2.53815">
        <ele>723.312</ele>
        <time>2017-03-24T17:42:46Z</time>
      </trkpt>
      <trkpt lat="45.84646" lon="2.53932">
        <ele>706.985</ele>
        <time>2020-01-15T19:32:20Z</time>
      </trkpt>
      <trkpt lat="45.84656" lon="2.53987">
        <ele>703.731</ele>
        <time>2017-03-24T17:43:06Z</time>
      </trkpt>
      <trkpt lat="45.84647" lon="2.54044">
        <ele>705.675</ele>
        <time>2020-01-15T19:33:00Z</time>
      </trkpt>
      <trkpt lat="45.84615" lon="2.54113">
        <ele>707.919</ele>
        <time>2020-01-15T19:33:20Z</time>
      </trkpt>
      <trkpt lat="45.84684" lon="2.54103">
        <ele>704.609</ele>
        <time>2017-03-24T17:43:46Z</time>
      </trkpt>
      <trkpt lat="45.84726" lon="2.54108">
        <ele>702.919</ele>
        <time>2017-03-24T17:44:06Z</time>
      </trkpt>
      <trkpt lat="45.84799" lon="2.54079">
        <ele>702.808</ele>
        <time>2017-03-24T17:44:26Z</time>
      </trkpt>
      <trkpt lat="45.84872" lon="2.54084">
        <ele>705.897</ele>
        <time>2017-03-24T17:44:46Z</time>
      </trkpt>
      <trkpt lat="45.84948" lon="2.54061">
        <ele>710.361</ele>
        <time>2017-03-24T17:45:06Z</time>
      </trkpt>
      <trkpt lat="45.85022" lon="2.54086">
        <ele>709.268</ele>
        <time>2017-03-24T17:45:26Z</time>
      </trkpt>
      <trkpt lat="45.85052" lon="2.54122">
        <ele>708.141</ele>
        <time>2017-03-24T17:45:46Z</time>
      </trkpt>
      <trkpt lat="45.85062" lon="2.54164">
        <ele>705.852</ele>
        <time>2017-03-24T17:46:06Z</time>
      </trkpt>
      <trkpt lat="45.85077" lon="2.54264">
        <ele>709.255</ele>
        <time>2017-03-24T17:46:26Z</time>
      </trkpt>
      <trkpt lat="45.85074" lon="2.5435">
        <ele>712.711</ele>
        <time>2017-03-24T17:46:46Z</time>
      </trkpt>
      <trkpt lat="45.85098" lon="2.54429">
        <ele>704.635</ele>
        <time>2017-03-24T17:47:06Z</time>
      </trkpt>
      <trkpt lat="45.85099" lon="2.54493">
        <ele>699.032</ele>
        <time>2017-03-24T17:47:26Z</time>
      </trkpt>
      <trkpt lat="45.85068" lon="2.54522">
        <ele>701.392</ele>
        <time>2017-03-24T17:47:46Z</time>
      </trkpt>
      <trkpt lat="45.8505" lon="2.54561">
        <ele>700.111</ele>
        <time>2017-03-24T17:48:06Z</time>
      </trkpt>
      <trkpt lat="45.8501" lon="2.54655">
        <ele>703.308</ele>
        <time>2017-03-24T17:48:26Z</time>
      </trkpt>
      <trkpt lat="45.84984" lon="2.54694">
        <ele>700.299</ele>
        <time>2017-03-24T17:48:46Z</time>
      </trkpt>
      <trkpt lat="45.84948" lon="2.54721">
        <ele>700.943</ele>
        <time>2017-03-24T17:49:06Z</time>
      </trkpt>
      <trkpt lat="45.84952" lon="2.54735">
        <ele>699.81</ele>
        <time>2017-03-24T17:49:26Z</time>
      </trkpt>
      <trkpt lat="45.85027" lon="2.54758">
        <ele>698.063</ele>
        <time>2017-03-24T17:49:46Z</time>
      </trkpt>
      <trkpt lat="45.85059" lon="2.54813">
        <ele>694.534</ele>
        <time>2017-03-24T17:50:06Z</time>
      </trkpt>
      <trkpt lat="45.85125" lon="2.54867">
        <ele>688.797</ele>
        <time>2017-03-24T17:50:26Z</time>
      </trkpt>
      <trkpt lat="45.85166" lon="2.54988">
        <ele>686.883</ele>
        <time>2017-03-24T17:50:46Z</time>
      </trkpt>
      <trkpt lat="45.85204" lon="2.55006">
        <ele>680.057</ele>
        <time>2017-03-24T17:51:06Z</time>
      </trkpt>
      <trkpt lat="45.85248" lon="2.5498">
        <ele>679.491</ele>
        <time>2017-03-24T17:51:26Z</time>
      </trkpt>
      <trkpt lat="45.85289" lon="2.54943">
        <ele>677.481</ele>
        <time>2017-03-24T17:51:46Z</time>
      </trkpt>
      <trkpt lat="45.85406" lon="2.5501">
        <ele>677.819</ele>
        <time>2020-01-15T19:42:00Z</time>
      </trkpt>
      <trkpt lat="45.85337" lon="2.55271">
        <ele>670.208</ele>
        <time>2020-01-15T19:42:20Z</time>
      </trkpt>
      <trkpt lat="45.85402" lon="2.56237">
        <ele>668.585</ele>
        <time>2020-01-15T19:42:40Z</time>
      </trkpt>
      <trkpt lat="45.85239" lon="2.56276">
        <ele>673.459</ele>
        <time>2020-01-15T19:43:00Z</time>
      </trkpt>
      <trkpt lat="45.85239" lon="2.56362">
        <ele>669.566</ele>
        <time>2017-03-24T12:36:15Z</time>
      </trkpt>
      <trkpt lat="45.85239" lon="2.56362">
        <ele>669.529</ele>
        <time>2017-03-24T12:36:15Z</time>
      </trkpt>
      <trkpt lat="45.8525" lon="2.56499">
        <ele>666.06</ele>
        <time>2017-03-24T12:36:35Z</time>
      </trkpt>
      <trkpt lat="45.85262" lon="2.5658">
        <ele>669.073</ele>
        <time>2017-03-24T12:36:55Z</time>
      </trkpt>
      <trkpt lat="45.85212" lon="2.56663">
        <ele>668.919</ele>
        <time>2017-03-24T12:37:15Z</time>
      </trkpt>
      <trkpt lat="45.85161" lon="2.56867">
        <ele>675.183</ele>
        <time>2017-03-24T12:37:35Z</time>
      </trkpt>
      <trkpt lat="45.85139" lon="2.56984">
        <ele>682.432</ele>
        <time>2017-03-24T12:37:55Z</time>
      </trkpt>
      <trkpt lat="45.85121" lon="2.57038">
        <ele>681.692</ele>
        <time>2017-03-24T12:38:15Z</time>
      </trkpt>
      <trkpt lat="45.85083" lon="2.57116">
        <ele>681.011</ele>
        <time>2017-03-24T12:38:35Z</time>
      </trkpt>
      <trkpt lat="45.85046" lon="2.57241">
        <ele>679.108</ele>
        <time>2017-03-24T12:38:55Z</time>
      </trkpt>
      <trkpt lat="45.85045" lon="2.57289">
        <ele>683.959</ele>
        <time>2017-03-24T12:39:15Z</time>
      </trkpt>
      <trkpt lat="45.84997" lon="2.57392">
        <ele>686.063</ele>
        <time>2017-03-24T12:39:35Z</time>
      </trkpt>
      <trkpt lat="45.84973" lon="2.57465">
        <ele>683.97</ele>
        <time>2017-03-24T12:39:55Z</time>
      </trkpt>
      <trkpt lat="45.84974" lon="2.57524">
        <ele>685.753</ele>
        <time>2017-03-24T12:40:15Z</time>
      </trkpt>
      <trkpt lat="45.8495" lon="2.57639">
        <ele>683.774</ele>
        <time>2017-03-24T12:40:35Z</time>
      </trkpt>
      <trkpt lat="45.84929" lon="2.57678">
        <ele>684.437</ele>
        <time>2017-03-24T12:40:55Z</time>
      </trkpt>
      <trkpt lat="45.84901" lon="2.57821">
        <ele>684.943</ele>
        <time>2017-03-24T12:41:15Z</time>
      </trkpt>
      <trkpt lat="45.84887" lon="2.57871">
        <ele>685.567</ele>
        <time>2017-03-24T12:41:35Z</time>
      </trkpt>
      <trkpt lat="45.84861" lon="2.57997">
        <ele>678.086</ele>
        <time>2017-03-24T12:41:55Z</time>
      </trkpt>
      <trkpt lat="45.84867" lon="2.58026">
        <ele>678.46</ele>
        <time>2017-03-24T12:42:15Z</time>
      </trkpt>
      <trkpt lat="45.84899" lon="2.58058">
        <ele>676.926</ele>
        <time>2017-03-24T12:42:35Z</time>
      </trkpt>
      <trkpt lat="45.84849" lon="2.58141">
        <ele>661.908</ele>
        <time>2017-03-24T12:42:55Z</time>
      </trkpt>
      <trkpt lat="45.84841" lon="2.58191">
        <ele>660.384</ele>
        <time>2017-03-24T12:43:15Z</time>
      </trkpt>
      <trkpt lat="45.84824" lon="2.58238">
        <ele>659.338</ele>
        <time>2017-03-24T12:43:35Z</time>
      </trkpt>
      <trkpt lat="45.84825" lon="2.58278">
        <ele>661.865</ele>
        <time>2017-03-24T12:43:55Z</time>
      </trkpt>
      <trkpt lat="45.84802" lon="2.58338">
        <ele>660.358</ele>
        <time>2017-03-24T12:44:15Z</time>
      </trkpt>
      <trkpt lat="45.84803" lon="2.58378">
        <ele>658.689</ele>
        <time>2017-03-24T12:44:35Z</time>
      </trkpt>
      <trkpt lat="45.84813" lon="2.58439">
        <ele>656.542</ele>
        <time>2017-03-24T12:44:55Z</time>
      </trkpt>
      <trkpt lat="45.84778" lon="2.58552">
        <ele>661.318</ele>
        <time>2017-03-24T12:45:15Z</time>
      </trkpt>
      <trkpt lat="45.84749" lon="2.58584">
        <ele>661.942</ele>
        <time>2017-03-24T12:45:35Z</time>
      </trkpt>
      <trkpt lat="45.84743" lon="2.58607">
        <ele>663.544</ele>
        <time>2017-03-24T12:45:55Z</time>
      </trkpt>
      <trkpt lat="45.84743" lon="2.58668">
        <ele>672.205</ele>
        <time>2017-03-24T12:46:15Z</time>
      </trkpt>
      <trkpt lat="45.84711" lon="2.58775">
        <ele>673.215</ele>
        <time>2017-03-24T12:46:35Z</time>
      </trkpt>
      <trkpt lat="45.84712" lon="2.58797">
        <ele>674.208</ele>
        <time>2017-03-24T12:46:55Z</time>
      </trkpt>
      <trkpt lat="45.84727" lon="2.58809">
        <ele>676.22</ele>
        <time>2017-03-24T12:47:15Z</time>
      </trkpt>
      <trkpt lat="45.84731" lon="2.58846">
        <ele>675.844</ele>
        <time>2017-03-24T12:47:35Z</time>
      </trkpt>
      <trkpt lat="45.84715" lon="2.58949">
        <ele>675.721</ele>
        <time>2017-03-24T12:47:55Z</time>
      </trkpt>
      <trkpt lat="45.84726" lon="2.59021">
        <ele>672.694</ele>
        <time>2017-03-24T12:48:15Z</time>
      </trkpt>
      <trkpt lat="45.84706" lon="2.59118">
        <ele>663.715</ele>
        <time>2017-03-24T12:48:35Z</time>
      </trkpt>
      <trkpt lat="45.84681" lon="2.59185">
        <ele>657.048</ele>
        <time>2017-03-24T12:48:55Z</time>
      </trkpt>
      <trkpt lat="45.84655" lon="2.59221">
        <ele>656.124</ele>
        <time>2017-03-24T12:49:15Z</time>
      </trkpt>
      <trkpt lat="45.84644" lon="2.59272">
        <ele>654.628</ele>
        <time>2017-03-24T12:49:35Z</time>
      </trkpt>
      <trkpt lat="45.84647" lon="2.59322">
        <ele>653.923</ele>
        <time>2017-03-24T12:49:55Z</time>
      </trkpt>
      <trkpt lat="45.84642" lon="2.59337">
        <ele>653.283</ele>
        <time>2017-03-24T12:50:15Z</time>
      </trkpt>
      <trkpt lat="45.84607" lon="2.59366">
        <ele>652.911</ele>
        <time>2017-03-24T12:50:35Z</time>
      </trkpt>
      <trkpt lat="45.84594" lon="2.59391">
        <ele>656.708</ele>
        <time>2017-03-24T12:50:55Z</time>
      </trkpt>
      <trkpt lat="45.84585" lon="2.59437">
        <ele>661.268</ele>
        <time>2017-03-24T12:51:15Z</time>
      </trkpt>
      <trkpt lat="45.84584" lon="2.59496">
        <ele>662.172</ele>
        <time>2017-03-24T12:51:35Z</time>
      </trkpt>
      <trkpt lat="45.84572" lon="2.59521">
        <ele>662.719</ele>
        <time>2017-03-24T12:51:55Z</time>
      </trkpt>
      <trkpt lat="45.84541" lon="2.59537">
        <ele>664.582</ele>
        <time>2017-03-24T12:52:15Z</time>
      </trkpt>
      <trkpt lat="45.84537" lon="2.59577">
        <ele>664.123</ele>
        <time>2017-03-24T12:52:35Z</time>
      </trkpt>
      <trkpt lat="45.84542" lon="2.59601">
        <ele>663.786</ele>
        <time>2017-03-24T12:52:55Z</time>
      </trkpt>
      <trkpt lat="45.84528" lon="2.59635">
        <ele>662.212</ele>
        <time>2017-03-24T12:53:15Z</time>
      </trkpt>
      <trkpt lat="45.84519" lon="2.59708">
        <ele>659.786</ele>
        <time>2017-03-24T12:53:35Z</time>
      </trkpt>
      <trkpt lat="45.84517" lon="2.59777">
        <ele>657.778</ele>
        <time>2017-03-24T12:53:55Z</time>
      </trkpt>
      <trkpt lat="45.84502" lon="2.59822">
        <ele>657.433</ele>
        <time>2017-03-24T12:54:15Z</time>
      </trkpt>
      <trkpt lat="45.84442" lon="2.59848">
        <ele>653.226</ele>
        <time>2017-03-24T12:54:35Z</time>
      </trkpt>
      <trkpt lat="45.84397" lon="2.59895">
        <ele>650.408</ele>
        <time>2017-03-24T12:54:55Z</time>
      </trkpt>
      <trkpt lat="45.84343" lon="2.59909">
        <ele>649.113</ele>
        <time>2017-03-24T12:55:15Z</time>
      </trkpt>
      <trkpt lat="45.84317" lon="2.59924">
        <ele>650.887</ele>
        <time>2017-03-24T12:55:35Z</time>
      </trkpt>
      <trkpt lat="45.8425" lon="2.60031">
        <ele>648.054</ele>
        <time>2017-03-24T12:55:55Z</time>
      </trkpt>
      <trkpt lat="45.84227" lon="2.60103">
        <ele>649.597</ele>
        <time>2017-03-24T12:56:15Z</time>
      </trkpt>
      <trkpt lat="45.84171" lon="2.60195">
        <ele>651.748</ele>
        <time>2017-03-24T12:56:35Z</time>
      </trkpt>
      <trkpt lat="45.84148" lon="2.60224">
        <ele>650.081</ele>
        <time>2017-03-24T12:56:55Z</time>
      </trkpt>
      <trkpt lat="45.84143" lon="2.60245">
        <ele>650.457</ele>
        <time>2017-03-24T12:57:15Z</time>
      </trkpt>
      <trkpt lat="45.84191" lon="2.60367">
        <ele>666.141</ele>
        <time>2017-03-24T12:57:35Z</time>
      </trkpt>
      <trkpt lat="45.84185" lon="2.60409">
        <ele>669.336</ele>
        <time>2017-03-24T12:57:55Z</time>
      </trkpt>
      <trkpt lat="45.84192" lon="2.60441">
        <ele>673.517</ele>
        <time>2017-03-24T12:58:15Z</time>
      </trkpt>
      <trkpt lat="45.84187" lon="2.60489">
        <ele>676.118</ele>
        <time>2017-03-24T12:58:35Z</time>
      </trkpt>
      <trkpt lat="45.84188" lon="2.6055">
        <ele>678.908</ele>
        <time>2017-03-24T12:58:55Z</time>
      </trkpt>
      <trkpt lat="45.84184" lon="2.60593">
        <ele>678.979</ele>
        <time>2017-03-24T12:59:15Z</time>
      </trkpt>
      <trkpt lat="45.84199" lon="2.60631">
        <ele>680.363</ele>
        <time>2017-03-24T12:59:35Z</time>
      </trkpt>
      <trkpt lat="45.8426" lon="2.60725">
        <ele>682.17</ele>
        <time>2017-03-24T12:59:55Z</time>
      </trkpt>
      <trkpt lat="45.84287" lon="2.60781">
        <ele>682.223</ele>
        <time>2017-03-24T13:00:15Z</time>
      </trkpt>
      <trkpt lat="45.84336" lon="2.60848">
        <ele>680.934</ele>
        <time>2017-03-24T13:00:35Z</time>
      </trkpt>
      <trkpt lat="45.84562" lon="2.61028">
        <ele>676.437</ele>
        <time>2017-03-24T13:00:55Z</time>
      </trkpt>
      <trkpt lat="45.84602" lon="2.61068">
        <ele>674.053</ele>
        <time>2017-03-24T13:01:15Z</time>
      </trkpt>
      <trkpt lat="45.84636" lon="2.61092">
        <ele>673.217</ele>
        <time>2017-03-24T13:01:35Z</time>
      </trkpt>
      <trkpt lat="45.84686" lon="2.61159">
        <ele>670.385</ele>
        <time>2017-03-24T13:01:55Z</time>
      </trkpt>
      <trkpt lat="45.84735" lon="2.61201">
        <ele>671.289</ele>
        <time>2017-03-24T13:02:15Z</time>
      </trkpt>
      <trkpt lat="45.84777" lon="2.61219">
        <ele>671.417</ele>
        <time>2017-03-24T13:02:35Z</time>
      </trkpt>
      <trkpt lat="45.84822" lon="2.61223">
        <ele>671.208</ele>
        <time>2017-03-24T13:02:55Z</time>
      </trkpt>
      <trkpt lat="45.84862" lon="2.61212">
        <ele>670.474</ele>
        <time>2017-03-24T13:03:15Z</time>
      </trkpt>
      <trkpt lat="45.84883" lon="2.61218">
        <ele>667.218</ele>
        <time>2017-03-24T13:03:35Z</time>
      </trkpt>
      <trkpt lat="45.8491" lon="2.61243">
        <ele>666.625</ele>
        <time>2017-03-24T13:03:55Z</time>
      </trkpt>
      <trkpt lat="45.84917" lon="2.61268">
        <ele>667.778</ele>
        <time>2017-03-24T13:04:15Z</time>
      </trkpt>
      <trkpt lat="45.84913" lon="2.61287">
        <ele>668.739</ele>
        <time>2017-03-24T13:04:35Z</time>
      </trkpt>
      <trkpt lat="45.84837" lon="2.6139">
        <ele>671.652</ele>
        <time>2017-03-24T13:04:55Z</time>
      </trkpt>
      <trkpt lat="45.8483" lon="2.61409">
        <ele>672.718</ele>
        <time>2017-03-24T13:05:15Z</time>
      </trkpt>
      <trkpt lat="45.84851" lon="2.61497">
        <ele>681.472</ele>
        <time>2017-03-24T13:05:35Z</time>
      </trkpt>
      <trkpt lat="45.84858" lon="2.61525">
        <ele>682.913</ele>
        <time>2017-03-24T13:05:55Z</time>
      </trkpt>
      <trkpt lat="45.84857" lon="2.61559">
        <ele>684.043</ele>
        <time>2017-03-24T13:06:15Z</time>
      </trkpt>
      <trkpt lat="45.84835" lon="2.616">
        <ele>683.907</ele>
        <time>2017-03-24T13:06:35Z</time>
      </trkpt>
      <trkpt lat="45.84825" lon="2.61632">
        <ele>684.708</ele>
        <time>2017-03-24T13:06:55Z</time>
      </trkpt>
      <trkpt lat="45.84816" lon="2.61649">
        <ele>685.467</ele>
        <time>2017-03-24T13:07:15Z</time>
      </trkpt>
      <trkpt lat="45.84813" lon="2.61677">
        <ele>686.241</ele>
        <time>2017-03-24T13:07:35Z</time>
      </trkpt>
      <trkpt lat="45.8484" lon="2.61713">
        <ele>688.288</ele>
        <time>2017-03-24T13:07:55Z</time>
      </trkpt>
      <trkpt lat="45.84852" lon="2.61739">
        <ele>688.181</ele>
        <time>2017-03-24T13:08:15Z</time>
      </trkpt>
      <trkpt lat="45.84924" lon="2.6183">
        <ele>699.212</ele>
        <time>2017-03-24T13:08:35Z</time>
      </trkpt>
      <trkpt lat="45.84922" lon="2.61872">
        <ele>703.865</ele>
        <time>2017-03-24T13:08:55Z</time>
      </trkpt>
      <trkpt lat="45.84965" lon="2.61912">
        <ele>709.171</ele>
        <time>2017-03-24T13:09:15Z</time>
      </trkpt>
      <trkpt lat="45.85012" lon="2.61884">
        <ele>707.935</ele>
        <time>2017-03-24T13:09:35Z</time>
      </trkpt>
      <trkpt lat="45.85066" lon="2.61842">
        <ele>711.052</ele>
        <time>2017-03-24T13:09:55Z</time>
      </trkpt>
      <trkpt lat="45.85099" lon="2.61834">
        <ele>713.153</ele>
        <time>2017-03-24T13:10:15Z</time>
      </trkpt>
      <trkpt lat="45.8513" lon="2.61838">
        <ele>713.308</ele>
        <time>2017-03-24T13:10:35Z</time>
      </trkpt>
      <trkpt lat="45.85186" lon="2.61834">
        <ele>716.308</ele>
        <time>2017-03-24T13:10:55Z</time>
      </trkpt>
      <trkpt lat="45.85214" lon="2.61817">
        <ele>717.251</ele>
        <time>2017-03-24T13:11:15Z</time>
      </trkpt>
      <trkpt lat="45.85218" lon="2.6179">
        <ele>716.645</ele>
        <time>2017-03-24T13:11:35Z</time>
      </trkpt>
      <trkpt lat="45.8525" lon="2.61825">
        <ele>715.732</ele>
        <time>2017-03-24T13:11:55Z</time>
      </trkpt>
      <trkpt lat="45.85379" lon="2.62033">
        <ele>727.445</ele>
        <time>2017-03-24T13:12:15Z</time>
      </trkpt>
      <trkpt lat="45.85442" lon="2.6215">
        <ele>722.566</ele>
        <time>2017-03-24T13:12:35Z</time>
      </trkpt>
      <trkpt lat="45.85479" lon="2.62265">
        <ele>712.119</ele>
        <time>2017-03-24T13:12:55Z</time>
      </trkpt>
      <trkpt lat="45.8551" lon="2.624">
        <ele>712.695</ele>
        <time>2017-03-24T13:13:15Z</time>
      </trkpt>
      <trkpt lat="45.8558" lon="2.62566">
        <ele>705.289</ele>
        <time>2017-03-24T13:13:35Z</time>
      </trkpt>
      <trkpt lat="45.85612" lon="2.62596">
        <ele>702.443</ele>
        <time>2017-03-24T13:13:55Z</time>
      </trkpt>
      <trkpt lat="45.85771" lon="2.62871">
        <ele>686.664</ele>
        <time>2017-03-24T13:14:15Z</time>
      </trkpt>
      <trkpt lat="45.85851" lon="2.62861">
        <ele>685.81</ele>
        <time>2017-03-24T13:14:35Z</time>
      </trkpt>
      <trkpt lat="45.8592" lon="2.6289">
        <ele>688.208</ele>
        <time>2017-03-24T13:14:55Z</time>
      </trkpt>
      <trkpt lat="45.85949" lon="2.62919">
        <ele>690.36</ele>
        <time>2017-03-24T13:15:15Z</time>
      </trkpt>
      <trkpt lat="45.86015" lon="2.63131">
        <ele>700.414</ele>
        <time>2017-03-24T13:15:35Z</time>
      </trkpt>
      <trkpt lat="45.86023" lon="2.63647">
        <ele>689.521</ele>
        <time>2020-11-20T01:37:45Z</time>
      </trkpt>
      <trkpt lat="45.86046" lon="2.63911">
        <ele>674.474</ele>
        <time>2020-11-20T01:38:05Z</time>
      </trkpt>
      <trkpt lat="45.86084" lon="2.63993">
        <ele>669.385</ele>
        <time>2020-11-20T01:38:25Z</time>
      </trkpt>
      <trkpt lat="45.86139" lon="2.6401">
        <ele>670.038</ele>
        <time>2020-11-20T01:38:45Z</time>
      </trkpt>
      <trkpt lat="45.86106" lon="2.64117">
        <ele>669.654</ele>
        <time>2020-11-20T01:39:05Z</time>
      </trkpt>
      <trkpt lat="45.86066" lon="2.64531">
        <ele>651.888</ele>
        <time>2020-11-20T01:39:25Z</time>
      </trkpt>
      <trkpt lat="45.86094" lon="2.6463">
        <ele>643.647</ele>
        <time>2020-11-20T01:39:45Z</time>
      </trkpt>
      <trkpt lat="45.861" lon="2.64786">
        <ele>629.429</ele>
        <time>2020-11-20T01:40:05Z</time>
      </trkpt>
      <trkpt lat="45.86242" lon="2.64834">
        <ele>629.321</ele>
        <time>2020-11-20T01:40:25Z</time>
      </trkpt>
      <trkpt lat="45.86401" lon="2.64811">
        <ele>622.308</ele>
        <time>2020-11-20T01:40:45Z</time>
      </trkpt>
      <trkpt lat="45.86476" lon="2.64822">
        <ele>614.54</ele>
        <time>2020-11-20T01:41:05Z</time>
      </trkpt>
      <trkpt lat="45.86413" lon="2.65038">
        <ele>613.114</ele>
        <time>2020-11-20T01:41:25Z</time>
      </trkpt>
      <trkpt lat="45.86311" lon="2.65219">
        <ele>607.841</ele>
        <time>2020-11-20T01:41:45Z</time>
      </trkpt>
      <trkpt lat="45.86334" lon="2.65454">
        <ele>612.034</ele>
        <time>2020-11-20T01:42:05Z</time>
      </trkpt>
      <trkpt lat="45.86315" lon="2.65533">
        <ele>613.185</ele>
        <time>2020-11-20T01:42:25Z</time>
      </trkpt>
      <trkpt lat="45.86368" lon="2.65632">
        <ele>610.658</ele>
        <time>2020-11-20T01:42:45Z</time>
      </trkpt>
      <trkpt lat="45.86354" lon="2.65799">
        <ele>605.524</ele>
        <time>2020-11-20T01:43:05Z</time>
      </trkpt>
      <trkpt lat="45.86336" lon="2.65754">
        <ele>606.198</ele>
        <time>2020-11-20T01:43:25Z</time>
      </trkpt>
      <trkpt lat="45.86267" lon="2.65757">
        <ele>601.474</ele>
        <time>2020-11-20T01:43:45Z</time>
      </trkpt>
      <trkpt lat="45.86253" lon="2.65744">
        <ele>601.356</ele>
        <time>2020-11-20T01:44:05Z</time>
      </trkpt>
      <trkpt lat="45.86258" lon="2.65773">
        <ele>600.521</ele>
        <time>2020-11-20T01:44:25Z</time>
      </trkpt>
      <trkpt lat="45.86256" lon="2.65807">
        <ele>599.208</ele>
        <time>2020-11-20T01:44:45Z</time>
      </trkpt>
      <trkpt lat="45.86264" lon="2.65858">
        <ele>595.843</ele>
        <time>2020-11-20T01:45:05Z</time>
      </trkpt>
      <trkpt lat="45.86256" lon="2.65915">
        <ele>590.937</ele>
        <time>2020-11-20T01:45:25Z</time>
      </trkpt>
      <trkpt lat="45.86233" lon="2.65997">
        <ele>581.574</ele>
        <time>2020-11-20T01:45:45Z</time>
      </trkpt>
      <trkpt lat="45.86239" lon="2.66038">
        <ele>581.077</ele>
        <time>2020-11-20T01:46:05Z</time>
      </trkpt>
      <trkpt lat="45.8623" lon="2.66051">
        <ele>578.778</ele>
        <time>2020-11-20T01:46:25Z</time>
      </trkpt>
      <trkpt lat="45.86197" lon="2.66057">
        <ele>571.421</ele>
        <time>2020-11-20T01:46:45Z</time>
      </trkpt>
      <trkpt lat="45.86171" lon="2.66101">
        <ele>562.457</ele>
        <time>2020-11-20T01:47:05Z</time>
      </trkpt>
      <trkpt lat="45.86172" lon="2.66175">
        <ele>556.611</ele>
        <time>2020-11-20T01:47:25Z</time>
      </trkpt>
      <trkpt lat="45.86187" lon="2.66278">
        <ele>557.042</ele>
        <time>2020-11-20T01:47:45Z</time>
      </trkpt>
      <trkpt lat="45.86182" lon="2.66315">
        <ele>557.522</ele>
        <time>2020-11-20T01:48:05Z</time>
      </trkpt>
      <trkpt lat="45.86136" lon="2.66413">
        <ele>550.214</ele>
        <time>2020-11-20T01:48:25Z</time>
      </trkpt>
      <trkpt lat="45.86132" lon="2.6655">
        <ele>549.508</ele>
        <time>2020-11-20T01:48:45Z</time>
      </trkpt>
      <trkpt lat="45.86142" lon="2.66639">
        <ele>550.91</ele>
        <time>2020-11-20T01:49:05Z</time>
      </trkpt>
      <trkpt lat="45.86158" lon="2.66694">
        <ele>551.114</ele>
        <time>2020-11-20T01:49:25Z</time>
      </trkpt>
      <trkpt lat="45.86222" lon="2.66793">
        <ele>546.351</ele>
        <time>2020-11-20T01:49:45Z</time>
      </trkpt>
      <trkpt lat="45.86284" lon="2.66854">
        <ele>549.914</ele>
        <time>2020-11-20T01:50:05Z</time>
      </trkpt>
      <trkpt lat="45.86336" lon="2.66883">
        <ele>549.245</ele>
        <time>2020-11-20T01:50:25Z</time>
      </trkpt>
      <trkpt lat="45.86403" lon="2.66937">
        <ele>545.948</ele>
        <time>2020-11-20T01:50:45Z</time>
      </trkpt>
      <trkpt lat="45.86413" lon="2.66933">
        <ele>546.964</ele>
        <time>2020-11-20T01:51:05Z</time>
      </trkpt>
      <trkpt lat="45.8654" lon="2.66955">
        <ele>560.368</ele>
        <time>2020-11-20T01:51:25Z</time>
      </trkpt>
      <trkpt lat="45.86585" lon="2.66977">
        <ele>560.961</ele>
        <time>2020-11-20T01:51:45Z</time>
      </trkpt>
      <trkpt lat="45.86678" lon="2.67051">
        <ele>556.721</ele>
        <time>2020-11-20T01:52:05Z</time>
      </trkpt>
      <trkpt lat="45.86701" lon="2.67081">
        <ele>554.013</ele>
        <time>2020-11-20T01:52:25Z</time>
      </trkpt>
      <trkpt lat="45.86628" lon="2.67251">
        <ele>534.008</ele>
        <time>2020-11-20T01:52:45Z</time>
      </trkpt>
      <trkpt lat="45.86724" lon="2.67328">
        <ele>535.812</ele>
        <time>2020-11-20T01:53:05Z</time>
      </trkpt>
      <trkpt lat="45.86734" lon="2.67358">
        <ele>535.626</ele>
        <time>2020-11-20T01:53:25Z</time>
      </trkpt>
      <trkpt lat="45.86723" lon="2.67375">
        <ele>535.063</ele>
        <time>2020-11-20T01:53:45Z</time>
      </trkpt>
      <trkpt lat="45.86764" lon="2.67435">
        <ele>533.066</ele>
        <time>2020-11-20T01:54:05Z</time>
      </trkpt>
      <trkpt lat="45.86781" lon="2.67509">
        <ele>536.397</ele>
        <time>2020-11-20T01:54:25Z</time>
      </trkpt>
      <trkpt lat="45.86785" lon="2.67552">
        <ele>535.99</ele>
        <time>2020-11-20T01:54:45Z</time>
      </trkpt>
      <trkpt lat="45.86814" lon="2.67533">
        <ele>535.376</ele>
        <time>2020-11-20T01:55:05Z</time>
      </trkpt>
      <trkpt lat="45.86834" lon="2.67482">
        <ele>535.05</ele>
        <time>2020-11-20T01:55:25Z</time>
      </trkpt>
      <trkpt lat="45.86872" lon="2.67289">
        <ele>539.838</ele>
        <time>2020-11-20T01:55:45Z</time>
      </trkpt>
      <trkpt lat="45.86897" lon="2.67294">
        <ele>538.57</ele>
        <time>2020-11-20T01:56:05Z</time>
      </trkpt>
      <trkpt lat="45.86968" lon="2.6733">
        <ele>533.017</ele>
        <time>2020-11-20T01:56:25Z</time>
      </trkpt>
      <trkpt lat="45.87051" lon="2.67381">
        <ele>534.808</ele>
        <time>2020-11-20T01:56:45Z</time>
      </trkpt>
      <trkpt lat="45.87097" lon="2.67393">
        <ele>538.639</ele>
        <time>2020-11-20T01:57:05Z</time>
      </trkpt>
      <trkpt lat="45.87121" lon="2.67425">
        <ele>542.443</ele>
        <time>2020-11-20T01:57:25Z</time>
      </trkpt>
      <trkpt lat="45.87157" lon="2.67493">
        <ele>543.91</ele>
        <time>2020-11-20T01:57:45Z</time>
      </trkpt>
      <trkpt lat="45.87153" lon="2.67515">
        <ele>541.833</ele>
        <time>2020-11-20T01:58:05Z</time>
      </trkpt>
      <trkpt lat="45.87184" lon="2.6758">
        <ele>545.124</ele>
        <time>2020-11-20T01:58:25Z</time>
      </trkpt>
      <trkpt lat="45.87178" lon="2.67604">
        <ele>542.917</ele>
        <time>2020-11-20T01:58:45Z</time>
      </trkpt>
      <trkpt lat="45.87056" lon="2.6773">
        <ele>538.853</ele>
        <time>2020-11-20T01:59:05Z</time>
      </trkpt>
      <trkpt lat="45.87038" lon="2.67817">
        <ele>540.937</ele>
        <time>2020-11-20T01:59:25Z</time>
      </trkpt>
      <trkpt lat="45.87078" lon="2.67795">
        <ele>548.835</ele>
        <time>2020-11-20T01:59:45Z</time>
      </trkpt>
      <trkpt lat="45.87127" lon="2.6776">
        <ele>549.686</ele>
        <time>2020-11-20T02:00:05Z</time>
      </trkpt>
      <trkpt lat="45.87175" lon="2.67751">
        <ele>555.214</ele>
        <time>2020-11-20T02:00:25Z</time>
      </trkpt>
      <trkpt lat="45.87264" lon="2.67776">
        <ele>561.108</ele>
        <time>2020-11-20T02:00:45Z</time>
      </trkpt>
      <trkpt lat="45.87316" lon="2.67815">
        <ele>567.189</ele>
        <time>2020-11-20T02:01:05Z</time>
      </trkpt>
      <trkpt lat="45.87351" lon="2.6787">
        <ele>570.743</ele>
        <time>2020-11-20T02:01:25Z</time>
      </trkpt>
      <trkpt lat="45.87392" lon="2.67892">
        <ele>571.69</ele>
        <time>2020-11-20T02:01:45Z</time>
      </trkpt>
      <trkpt lat="45.87445" lon="2.67943">
        <ele>579.713</ele>
        <time>2020-11-20T02:02:05Z</time>
      </trkpt>
      <trkpt lat="45.87498" lon="2.68027">
        <ele>593.914</ele>
        <time>2020-11-20T02:02:25Z</time>
      </trkpt>
      <trkpt lat="45.87576" lon="2.6807">
        <ele>597.497</ele>
        <time>2020-11-20T02:02:45Z</time>
      </trkpt>
      <trkpt lat="45.8762" lon="2.68082">
        <ele>601.013</ele>
        <time>2020-11-20T02:03:05Z</time>
      </trkpt>
      <trkpt lat="45.87657" lon="2.68108">
        <ele>602.597</ele>
        <time>2020-11-20T02:03:25Z</time>
      </trkpt>
      <trkpt lat="45.87725" lon="2.68226">
        <ele>612.148</ele>
        <time>2020-11-20T02:03:45Z</time>
      </trkpt>
      <trkpt lat="45.87748" lon="2.68282">
        <ele>619.961</ele>
        <time>2020-11-20T02:04:05Z</time>
      </trkpt>
      <trkpt lat="45.87849" lon="2.68379">
        <ele>617.917</ele>
        <time>2020-11-20T02:04:25Z</time>
      </trkpt>
      <trkpt lat="45.87921" lon="2.68493">
        <ele>621.108</ele>
        <time>2020-11-20T02:04:45Z</time>
      </trkpt>
      <trkpt lat="45.87967" lon="2.68545">
        <ele>620.94</ele>
        <time>2020-11-20T02:05:05Z</time>
      </trkpt>
      <trkpt lat="45.87999" lon="2.68537">
        <ele>617.144</ele>
        <time>2020-11-20T02:05:25Z</time>
      </trkpt>
      <trkpt lat="45.88036" lon="2.68517">
        <ele>612.541</ele>
        <time>2020-11-20T02:05:45Z</time>
      </trkpt>
      <trkpt lat="45.88062" lon="2.68528">
        <ele>612.694</ele>
        <time>2020-11-20T02:06:05Z</time>
      </trkpt>
      <trkpt lat="45.88069" lon="2.68539">
        <ele>612.885</ele>
        <time>2020-11-20T02:06:25Z</time>
      </trkpt>
      <trkpt lat="45.88017" lon="2.68638">
        <ele>620.768</ele>
        <time>2020-11-20T02:06:45Z</time>
      </trkpt>
      <trkpt lat="45.88044" lon="2.6868">
        <ele>621.954</ele>
        <time>2020-11-20T02:07:05Z</time>
      </trkpt>
      <trkpt lat="45.88075" lon="2.68722">
        <ele>623.088</ele>
        <time>2020-11-20T02:07:25Z</time>
      </trkpt>
      <trkpt lat="45.88087" lon="2.6875">
        <ele>624.024</ele>
        <time>2020-11-20T02:07:45Z</time>
      </trkpt>
      <trkpt lat="45.88141" lon="2.68954">
        <ele>620.404</ele>
        <time>2020-11-20T02:08:05Z</time>
      </trkpt>
      <trkpt lat="45.8814" lon="2.69021">
        <ele>619.314</ele>
        <time>2020-11-20T02:08:25Z</time>
      </trkpt>
      <trkpt lat="45.88165" lon="2.69154">
        <ele>618.808</ele>
        <time>2020-11-20T02:08:45Z</time>
      </trkpt>
      <trkpt lat="45.88183" lon="2.69191">
        <ele>617.488</ele>
        <time>2020-11-20T02:09:05Z</time>
      </trkpt>
      <trkpt lat="45.88217" lon="2.69236">
        <ele>616.992</ele>
        <time>2020-11-20T02:09:25Z</time>
      </trkpt>
      <trkpt lat="45.88233" lon="2.6929">
        <ele>616.549</ele>
        <time>2020-11-20T02:09:45Z</time>
      </trkpt>
      <trkpt lat="45.88244" lon="2.69361">
        <ele>617.852</ele>
        <time>2020-11-20T02:10:05Z</time>
      </trkpt>
      <trkpt lat="45.88188" lon="2.69419">
        <ele>616.543</ele>
        <time>2020-11-20T02:10:25Z</time>
      </trkpt>
      <trkpt lat="45.88139" lon="2.69422">
        <ele>614.086</ele>
        <time>2020-11-20T02:10:45Z</time>
      </trkpt>
      <trkpt lat="45.88103" lon="2.69407">
        <ele>613.122</ele>
        <time>2020-11-20T02:11:05Z</time>
      </trkpt>
      <trkpt lat="45.88077" lon="2.6938">
        <ele>611.076</ele>
        <time>2020-11-20T02:11:25Z</time>
      </trkpt>
      <trkpt lat="45.8802" lon="2.69367">
        <ele>609.319</ele>
        <time>2020-11-20T02:11:45Z</time>
      </trkpt>
      <trkpt lat="45.87922" lon="2.69357">
        <ele>609.409</ele>
        <time>2020-11-20T02:12:05Z</time>
      </trkpt>
      <trkpt lat="45.87884" lon="2.69371">
        <ele>600.919</ele>
        <time>2020-11-20T02:12:25Z</time>
      </trkpt>
      <trkpt lat="45.87867" lon="2.69394">
        <ele>596.308</ele>
        <time>2020-11-20T02:12:45Z</time>
      </trkpt>
      <trkpt lat="45.8785" lon="2.69434">
        <ele>591.467</ele>
        <time>2020-11-20T02:13:05Z</time>
      </trkpt>
      <trkpt lat="45.87837" lon="2.69461">
        <ele>586.051</ele>
        <time>2020-11-20T02:13:25Z</time>
      </trkpt>
      <trkpt lat="45.87839" lon="2.69494">
        <ele>586.698</ele>
        <time>2020-11-20T02:13:45Z</time>
      </trkpt>
      <trkpt lat="45.87885" lon="2.69561">
        <ele>587.411</ele>
        <time>2020-11-20T02:14:05Z</time>
      </trkpt>
      <trkpt lat="45.8791" lon="2.6962">
        <ele>578.542</ele>
        <time>2020-11-20T02:14:25Z</time>
      </trkpt>
      <trkpt lat="45.87968" lon="2.69688">
        <ele>569.145</ele>
        <time>2020-11-20T02:14:45Z</time>
      </trkpt>
      <trkpt lat="45.88022" lon="2.69733">
        <ele>564.661</ele>
        <time>2020-11-20T02:15:05Z</time>
      </trkpt>
      <trkpt lat="45.88019" lon="2.69748">
        <ele>560.595</ele>
        <time>2020-11-20T02:15:25Z</time>
      </trkpt>
      <trkpt lat="45.87999" lon="2.69741">
        <ele>558.165</ele>
        <time>2020-11-20T02:15:45Z</time>
      </trkpt>
      <trkpt lat="45.87982" lon="2.69754">
        <ele>553.968</ele>
        <time>2020-11-20T02:16:05Z</time>
      </trkpt>
      <trkpt lat="45.87971" lon="2.69793">
        <ele>545.714</ele>
        <time>2020-11-20T02:16:25Z</time>
      </trkpt>
      <trkpt lat="45.87967" lon="2.69835">
        <ele>539.708</ele>
        <time>2020-11-20T02:16:45Z</time>
      </trkpt>
      <trkpt lat="45.87945" lon="2.69861">
        <ele>537.072</ele>
        <time>2020-11-20T02:17:05Z</time>
      </trkpt>
      <trkpt lat="45.87917" lon="2.6986">
        <ele>533.286</ele>
        <time>2020-11-20T02:17:25Z</time>
      </trkpt>
      <trkpt lat="45.87914" lon="2.69885">
        <ele>530.993</ele>
        <time>2020-11-20T02:17:45Z</time>
      </trkpt>
      <trkpt lat="45.87943" lon="2.69932">
        <ele>528.776</ele>
        <time>2020-11-20T02:18:05Z</time>
      </trkpt>
      <trkpt lat="45.87949" lon="2.69972">
        <ele>523.387</ele>
        <time>2020-11-20T02:18:25Z</time>
      </trkpt>
      <trkpt lat="45.87941" lon="2.7">
        <ele>523.01</ele>
        <time>2020-11-20T02:18:45Z</time>
      </trkpt>
      <trkpt lat="45.87923" lon="2.70013">
        <ele>523.936</ele>
        <time>2020-11-20T02:19:05Z</time>
      </trkpt>
      <trkpt lat="45.87893" lon="2.70047">
        <ele>526.77</ele>
        <time>2020-11-20T02:19:25Z</time>
      </trkpt>
      <trkpt lat="45.87872" lon="2.70104">
        <ele>541.625</ele>
        <time>2020-11-20T02:19:45Z</time>
      </trkpt>
      <trkpt lat="45.8789" lon="2.70139">
        <ele>543.826</ele>
        <time>2020-11-20T02:20:05Z</time>
      </trkpt>
      <trkpt lat="45.87893" lon="2.70165">
        <ele>546.108</ele>
        <time>2020-11-20T02:20:25Z</time>
      </trkpt>
      <trkpt lat="45.87886" lon="2.70204">
        <ele>552.408</ele>
        <time>2020-11-20T02:20:45Z</time>
      </trkpt>
      <trkpt lat="45.87889" lon="2.70211">
        <ele>552.718</ele>
        <time>2020-11-20T02:21:05Z</time>
      </trkpt>
      <trkpt lat="45.87903" lon="2.70198">
        <ele>548.972</ele>
        <time>2020-11-20T02:21:25Z</time>
      </trkpt>
      <trkpt lat="45.87902" lon="2.70217">
        <ele>551.589</ele>
        <time>2020-11-20T02:21:45Z</time>
      </trkpt>
      <trkpt lat="45.87877" lon="2.70279">
        <ele>559.352</ele>
        <time>2020-11-20T02:22:05Z</time>
      </trkpt>
      <trkpt lat="45.8785" lon="2.70306">
        <ele>561.633</ele>
        <time>2020-11-20T02:22:25Z</time>
      </trkpt>
      <trkpt lat="45.87822" lon="2.70301">
        <ele>566.316</ele>
        <time>2020-11-20T02:22:45Z</time>
      </trkpt>
      <trkpt lat="45.87837" lon="2.70322">
        <ele>563.572</ele>
        <time>2020-11-20T02:23:05Z</time>
      </trkpt>
      <trkpt lat="45.87898" lon="2.70318">
        <ele>558.336</ele>
        <time>2020-11-20T02:23:25Z</time>
      </trkpt>
      <trkpt lat="45.87986" lon="2.70257">
        <ele>551.916</ele>
        <time>2020-11-20T02:23:45Z</time>
      </trkpt>
      <trkpt lat="45.88043" lon="2.70198">
        <ele>551.576</ele>
        <time>2020-11-20T02:24:05Z</time>
      </trkpt>
      <trkpt lat="45.88063" lon="2.70191">
        <ele>551.013</ele>
        <time>2020-11-20T02:24:25Z</time>
      </trkpt>
      <trkpt lat="45.88071" lon="2.70164">
        <ele>547.608</ele>
        <time>2020-11-20T02:24:45Z</time>
      </trkpt>
      <trkpt lat="45.88082" lon="2.70152">
        <ele>546.357</ele>
        <time>2020-11-20T02:25:05Z</time>
      </trkpt>
      <trkpt lat="45.88106" lon="2.70141">
        <ele>547.561</ele>
        <time>2020-11-20T02:25:25Z</time>
      </trkpt>
      <trkpt lat="45.88169" lon="2.70087">
        <ele>538.568</ele>
        <time>2020-11-20T02:25:45Z</time>
      </trkpt>
      <trkpt lat="45.88211" lon="2.70065">
        <ele>535.941</ele>
        <time>2020-11-20T02:26:05Z</time>
      </trkpt>
      <trkpt lat="45.88245" lon="2.70066">
        <ele>533.032</ele>
        <time>2020-11-20T02:26:25Z</time>
      </trkpt>
      <trkpt lat="45.88291" lon="2.7008">
        <ele>527.755</ele>
        <time>2020-11-20T02:26:45Z</time>
      </trkpt>
      <trkpt lat="45.88336" lon="2.70079">
        <ele>524.591</ele>
        <time>2020-11-20T02:27:05Z</time>
      </trkpt>
      <trkpt lat="45.88376" lon="2.70109">
        <ele>523.445</ele>
        <time>2020-11-20T02:27:25Z</time>
      </trkpt>
      <trkpt lat="45.88402" lon="2.70158">
        <ele>520.446</ele>
        <time>2020-11-20T02:27:45Z</time>
      </trkpt>
      <trkpt lat="45.88441" lon="2.70267">
        <ele>523.488</ele>
        <time>2020-11-20T02:28:05Z</time>
      </trkpt>
      <trkpt lat="45.88452" lon="2.70274">
        <ele>522.916</ele>
        <time>2020-11-20T02:28:25Z</time>
      </trkpt>
      <trkpt lat="45.88484" lon="2.70318">
        <ele>521.608</ele>
        <time>2020-11-20T02:28:45Z</time>
      </trkpt>
      <trkpt lat="45.88518" lon="2.70339">
        <ele>520.26</ele>
        <time>2020-11-20T02:29:05Z</time>
      </trkpt>
      <trkpt lat="45.88543" lon="2.70342">
        <ele>519.964</ele>
        <time>2020-11-20T02:29:25Z</time>
      </trkpt>
      <trkpt lat="45.88575" lon="2.70333">
        <ele>520.771</ele>
        <time>2020-11-20T02:29:45Z</time>
      </trkpt>
      <trkpt lat="45.88588" lon="2.70367">
        <ele>521.394</ele>
        <time>2020-11-20T02:30:05Z</time>
      </trkpt>
      <trkpt lat="45.8859" lon="2.70523">
        <ele>522.695</ele>
        <time>2020-11-20T02:30:25Z</time>
      </trkpt>
      <trkpt lat="45.88588" lon="2.70588">
        <ele>528.368</ele>
        <time>2020-11-20T02:30:45Z</time>
      </trkpt>
      <trkpt lat="45.88607" lon="2.70618">
        <ele>530.334</ele>
        <time>2020-11-20T02:31:05Z</time>
      </trkpt>
      <trkpt lat="45.88623" lon="2.70665">
        <ele>538.098</ele>
        <time>2020-11-20T02:31:25Z</time>
      </trkpt>
      <trkpt lat="45.88673" lon="2.70708">
        <ele>535.256</ele>
        <time>2020-11-20T02:31:45Z</time>
      </trkpt>
      <trkpt lat="45.88839" lon="2.70749">
        <ele>529.259</ele>
        <time>2020-11-20T02:32:05Z</time>
      </trkpt>
      <trkpt lat="45.88896" lon="2.70823">
        <ele>528.414</ele>
        <time>2020-11-20T02:32:25Z</time>
      </trkpt>
      <trkpt lat="45.88915" lon="2.70875">
        <ele>528.108</ele>
        <time>2020-11-20T02:32:45Z</time>
      </trkpt>
      <trkpt lat="45.88908" lon="2.70924">
        <ele>537.451</ele>
        <time>2020-11-20T02:33:05Z</time>
      </trkpt>
      <trkpt lat="45.88871" lon="2.71077">
        <ele>538.355</ele>
        <time>2020-11-20T02:33:25Z</time>
      </trkpt>
      <trkpt lat="45.88831" lon="2.71182">
        <ele>529.492</ele>
        <time>2020-11-20T02:33:45Z</time>
      </trkpt>
      <trkpt lat="45.88809" lon="2.71202">
        <ele>531.135</ele>
        <time>2020-11-20T02:34:05Z</time>
      </trkpt>
      <trkpt lat="45.88778" lon="2.71221">
        <ele>533.396</ele>
        <time>2020-11-20T02:34:25Z</time>
      </trkpt>
      <trkpt lat="45.8875" lon="2.71256">
        <ele>525.049</ele>
        <time>2020-11-20T02:34:45Z</time>
      </trkpt>
      <trkpt lat="45.88719" lon="2.71233">
        <ele>531.815</ele>
        <time>2020-11-20T02:35:05Z</time>
      </trkpt>
      <trkpt lat="45.88633" lon="2.71232">
        <ele>528.689</ele>
        <time>2020-11-20T02:35:25Z</time>
      </trkpt>
      <trkpt lat="45.88618" lon="2.71218">
        <ele>532.488</ele>
        <time>2020-11-20T02:35:45Z</time>
      </trkpt>
      <trkpt lat="45.88579" lon="2.71106">
        <ele>540.624</ele>
        <time>2020-11-20T02:36:05Z</time>
      </trkpt>
      <trkpt lat="45.88507" lon="2.71057">
        <ele>547.426</ele>
        <time>2020-11-20T02:36:25Z</time>
      </trkpt>
      <trkpt lat="45.88488" lon="2.7106">
        <ele>549.308</ele>
        <time>2020-11-20T02:36:45Z</time>
      </trkpt>
      <trkpt lat="45.88446" lon="2.71139">
        <ele>556.164</ele>
        <time>2020-11-20T02:37:05Z</time>
      </trkpt>
      <trkpt lat="45.88437" lon="2.71247">
        <ele>558.958</ele>
        <time>2020-11-20T02:37:25Z</time>
      </trkpt>
      <trkpt lat="45.88458" lon="2.71395">
        <ele>541.445</ele>
        <time>2020-11-20T02:37:45Z</time>
      </trkpt>
      <trkpt lat="45.88427" lon="2.71524">
        <ele>552.798</ele>
        <time>2020-11-20T02:38:05Z</time>
      </trkpt>
      <trkpt lat="45.88437" lon="2.71535">
        <ele>551.079</ele>
        <time>2020-11-20T02:38:25Z</time>
      </trkpt>
      <trkpt lat="45.88516" lon="2.71524">
        <ele>533.732</ele>
        <time>2020-11-20T02:38:45Z</time>
      </trkpt>
      <trkpt lat="45.88537" lon="2.71551">
        <ele>534.588</ele>
        <time>2020-11-20T02:39:05Z</time>
      </trkpt>
      <trkpt lat="45.88614" lon="2.71585">
        <ele>526.012</ele>
        <time>2020-11-20T02:39:25Z</time>
      </trkpt>
      <trkpt lat="45.88653" lon="2.71642">
        <ele>532.735</ele>
        <time>2020-11-20T02:39:45Z</time>
      </trkpt>
      <trkpt lat="45.88677" lon="2.71655">
        <ele>530.186</ele>
        <time>2020-11-20T02:40:05Z</time>
      </trkpt>
      <trkpt lat="45.88699" lon="2.71651">
        <ele>524.314</ele>
        <time>2020-11-20T02:40:25Z</time>
      </trkpt>
      <trkpt lat="45.88733" lon="2.7168">
        <ele>529.408</ele>
        <time>2020-11-20T02:40:45Z</time>
      </trkpt>
      <trkpt lat="45.88851" lon="2.7167">
        <ele>522.349</ele>
        <time>2020-11-20T02:41:05Z</time>
      </trkpt>
      <trkpt lat="45.89035" lon="2.71652">
        <ele>526.493</ele>
        <time>2020-11-20T02:41:25Z</time>
      </trkpt>
      <trkpt lat="45.89211" lon="2.7155">
        <ele>518.13</ele>
        <time>2020-11-20T02:41:45Z</time>
      </trkpt>
      <trkpt lat="45.89262" lon="2.71572">
        <ele>522.143</ele>
        <time>2020-11-20T02:42:05Z</time>
      </trkpt>
      <trkpt lat="45.89295" lon="2.71561">
        <ele>523.064</ele>
        <time>2020-11-20T02:42:25Z</time>
      </trkpt>
      <trkpt lat="45.89344" lon="2.71529">
        <ele>517.567</ele>
        <time>2020-11-20T02:42:45Z</time>
      </trkpt>
      <trkpt lat="45.89456" lon="2.71555">
        <ele>515.283</ele>
        <time>2020-11-20T02:43:05Z</time>
      </trkpt>
      <trkpt lat="45.89487" lon="2.71581">
        <ele>516.257</ele>
        <time>2020-11-20T02:43:25Z</time>
      </trkpt>
      <trkpt lat="45.89534" lon="2.7164">
        <ele>512.979</ele>
        <time>2020-11-20T02:43:45Z</time>
      </trkpt>
      <trkpt lat="45.89569" lon="2.71782">
        <ele>512.505</ele>
        <time>2020-11-20T02:44:05Z</time>
      </trkpt>
      <trkpt lat="45.89655" lon="2.71775">
        <ele>511.525</ele>
        <time>2020-11-20T02:44:25Z</time>
      </trkpt>
      <trkpt lat="45.89692" lon="2.71761">
        <ele>519.208</ele>
        <time>2020-11-20T02:44:45Z</time>
      </trkpt>
      <trkpt lat="45.89685" lon="2.71694">
        <ele>526.983</ele>
        <time>2020-11-20T02:45:05Z</time>
      </trkpt>
      <trkpt lat="45.8969" lon="2.71696">
        <ele>528.337</ele>
        <time>2020-11-20T02:45:25Z</time>
      </trkpt>
      <trkpt lat="45.89732" lon="2.71768">
        <ele>528.144</ele>
        <time>2020-11-20T02:45:45Z</time>
      </trkpt>
      <trkpt lat="45.89756" lon="2.71762">
        <ele>531.447</ele>
        <time>2020-11-20T02:46:05Z</time>
      </trkpt>
      <trkpt lat="45.89777" lon="2.71775">
        <ele>530.988</ele>
        <time>2020-11-20T02:46:25Z</time>
      </trkpt>
      <trkpt lat="45.89816" lon="2.71845">
        <ele>529.361</ele>
        <time>2020-11-20T02:46:45Z</time>
      </trkpt>
      <trkpt lat="45.89799" lon="2.71765">
        <ele>522.617</ele>
        <time>2020-11-20T02:47:05Z</time>
      </trkpt>
      <trkpt lat="45.89806" lon="2.71765">
        <ele>520.011</ele>
        <time>2020-11-20T02:47:25Z</time>
      </trkpt>
      <trkpt lat="45.89823" lon="2.71788">
        <ele>515.364</ele>
        <time>2020-11-20T02:47:45Z</time>
      </trkpt>
      <trkpt lat="45.89853" lon="2.71744">
        <ele>508.806</ele>
        <time>2020-11-20T02:48:05Z</time>
      </trkpt>
      <trkpt lat="45.89856" lon="2.71773">
        <ele>508.516</ele>
        <time>2020-11-20T02:48:25Z</time>
      </trkpt>
      <trkpt lat="45.89877" lon="2.71841">
        <ele>509.908</ele>
        <time>2020-11-20T02:48:45Z</time>
      </trkpt>
      <trkpt lat="45.8991" lon="2.71858">
        <ele>511.752</ele>
        <time>2020-11-20T02:49:05Z</time>
      </trkpt>
      <trkpt lat="45.89963" lon="2.71874">
        <ele>515.446</ele>
        <time>2020-11-20T02:49:25Z</time>
      </trkpt>
      <trkpt lat="45.89982" lon="2.71893">
        <ele>512.683</ele>
        <time>2017-03-24T14:12:15Z</time>
      </trkpt>
      <trkpt lat="45.90049" lon="2.72">
        <ele>510.576</ele>
        <time>2017-03-24T14:12:35Z</time>
      </trkpt>
      <trkpt lat="45.90074" lon="2.72016">
        <ele>513.797</ele>
        <time>2017-03-24T14:12:55Z</time>
      </trkpt>
      <trkpt lat="45.90117" lon="2.72024">
        <ele>515.17</ele>
        <time>2017-03-24T14:13:15Z</time>
      </trkpt>
      <trkpt lat="45.90173" lon="2.72068">
        <ele>520.496</ele>
        <time>2017-03-24T14:13:35Z</time>
      </trkpt>
      <trkpt lat="45.90224" lon="2.72139">
        <ele>523.52</ele>
        <time>2017-03-24T14:13:55Z</time>
      </trkpt>
      <trkpt lat="45.90277" lon="2.72232">
        <ele>530.641</ele>
        <time>2017-03-24T14:14:15Z</time>
      </trkpt>
      <trkpt lat="45.90301" lon="2.72299">
        <ele>531.781</ele>
        <time>2017-03-24T14:14:35Z</time>
      </trkpt>
      <trkpt lat="45.90307" lon="2.72355">
        <ele>530.809</ele>
        <time>2017-03-24T14:14:55Z</time>
      </trkpt>
      <trkpt lat="45.90297" lon="2.72409">
        <ele>527.808</ele>
        <time>2017-03-24T14:15:15Z</time>
      </trkpt>
      <trkpt lat="45.90272" lon="2.72437">
        <ele>526.57</ele>
        <time>2017-03-24T14:15:35Z</time>
      </trkpt>
      <trkpt lat="45.90238" lon="2.72444">
        <ele>526.194</ele>
        <time>2017-03-24T14:15:55Z</time>
      </trkpt>
      <trkpt lat="45.90138" lon="2.72447">
        <ele>528.751</ele>
        <time>2017-03-24T14:16:15Z</time>
      </trkpt>
      <trkpt lat="45.90097" lon="2.72468">
        <ele>523.794</ele>
        <time>2017-03-24T14:16:35Z</time>
      </trkpt>
      <trkpt lat="45.90077" lon="2.72495">
        <ele>517.895</ele>
        <time>2017-03-24T14:16:55Z</time>
      </trkpt>
      <trkpt lat="45.9006" lon="2.72604">
        <ele>515.748</ele>
        <time>2017-03-24T14:17:15Z</time>
      </trkpt>
      <trkpt lat="45.90042" lon="2.72626">
        <ele>521.184</ele>
        <time>2017-03-24T14:17:35Z</time>
      </trkpt>
      <trkpt lat="45.89983" lon="2.72611">
        <ele>523.878</ele>
        <time>2017-03-24T14:17:55Z</time>
      </trkpt>
      <trkpt lat="45.89967" lon="2.72625">
        <ele>525.358</ele>
        <time>2017-03-24T14:18:15Z</time>
      </trkpt>
      <trkpt lat="45.89949" lon="2.72728">
        <ele>535.452</ele>
        <time>2017-03-24T14:18:35Z</time>
      </trkpt>
      <trkpt lat="45.89928" lon="2.72785">
        <ele>544.717</ele>
        <time>2017-03-24T14:18:55Z</time>
      </trkpt>
      <trkpt lat="45.89905" lon="2.72809">
        <ele>547.708</ele>
        <time>2017-03-24T14:19:15Z</time>
      </trkpt>
      <trkpt lat="45.89851" lon="2.72833">
        <ele>546.831</ele>
        <time>2017-03-24T14:19:35Z</time>
      </trkpt>
      <trkpt lat="45.89882" lon="2.72851">
        <ele>555.535</ele>
        <time>2017-03-24T14:19:55Z</time>
      </trkpt>
      <trkpt lat="45.89943" lon="2.72857">
        <ele>567.712</ele>
        <time>2017-03-24T14:20:15Z</time>
      </trkpt>
      <trkpt lat="45.89976" lon="2.72881">
        <ele>580.515</ele>
        <time>2017-03-24T14:20:35Z</time>
      </trkpt>
      <trkpt lat="45.89997" lon="2.72879">
        <ele>584.246</ele>
        <time>2017-03-24T14:20:55Z</time>
      </trkpt>
      <trkpt lat="45.90035" lon="2.72839">
        <ele>585.549</ele>
        <time>2017-03-24T14:21:15Z</time>
      </trkpt>
      <trkpt lat="45.90051" lon="2.72811">
        <ele>580.955</ele>
        <time>2017-03-24T14:21:35Z</time>
      </trkpt>
      <trkpt lat="45.90066" lon="2.7281">
        <ele>580.459</ele>
        <time>2017-03-24T14:21:55Z</time>
      </trkpt>
      <trkpt lat="45.90148" lon="2.72912">
        <ele>610.233</ele>
        <time>2017-03-24T14:22:15Z</time>
      </trkpt>
      <trkpt lat="45.90208" lon="2.72946">
        <ele>610.223</ele>
        <time>2017-03-24T14:22:35Z</time>
      </trkpt>
      <trkpt lat="45.90243" lon="2.73023">
        <ele>621.815</ele>
        <time>2017-03-24T14:22:55Z</time>
      </trkpt>
      <trkpt lat="45.90242" lon="2.7315">
        <ele>629.508</ele>
        <time>2017-03-24T14:23:15Z</time>
      </trkpt>
      <trkpt lat="45.90255" lon="2.73233">
        <ele>631.169</ele>
        <time>2017-03-24T14:23:35Z</time>
      </trkpt>
      <trkpt lat="45.9027" lon="2.73256">
        <ele>631.743</ele>
        <time>2017-03-24T14:23:55Z</time>
      </trkpt>
      <trkpt lat="45.90257" lon="2.73295">
        <ele>637.35</ele>
        <time>2017-03-24T14:24:15Z</time>
      </trkpt>
      <trkpt lat="45.90257" lon="2.73401">
        <ele>645.953</ele>
        <time>2017-03-24T14:24:35Z</time>
      </trkpt>
      <trkpt lat="45.9026" lon="2.73444">
        <ele>647.624</ele>
        <time>2017-03-24T14:24:55Z</time>
      </trkpt>
      <trkpt lat="45.90268" lon="2.73472">
        <ele>647.477</ele>
        <time>2017-03-24T14:25:15Z</time>
      </trkpt>
      <trkpt lat="45.90302" lon="2.73523">
        <ele>646.233</ele>
        <time>2017-03-24T14:25:35Z</time>
      </trkpt>
      <trkpt lat="45.90294" lon="2.73591">
        <ele>643.467</ele>
        <time>2017-03-24T14:25:55Z</time>
      </trkpt>
      <trkpt lat="45.90245" lon="2.73642">
        <ele>639.834</ele>
        <time>2017-03-24T14:26:15Z</time>
      </trkpt>
      <trkpt lat="45.90194" lon="2.73674">
        <ele>638.155</ele>
        <time>2017-03-24T14:26:35Z</time>
      </trkpt>
      <trkpt lat="45.90142" lon="2.73685">
        <ele>637.11</ele>
        <time>2017-03-24T14:26:55Z</time>
      </trkpt>
      <trkpt lat="45.90093" lon="2.73675">
        <ele>638.408</ele>
        <time>2017-03-24T14:27:15Z</time>
      </trkpt>
      <trkpt lat="45.90056" lon="2.73683">
        <ele>637.579</ele>
        <time>2017-03-24T14:27:35Z</time>
      </trkpt>
      <trkpt lat="45.89997" lon="2.73704">
        <ele>634.743</ele>
        <time>2017-03-24T14:27:55Z</time>
      </trkpt>
      <trkpt lat="45.89846" lon="2.73846">
        <ele>609.65</ele>
        <time>2017-03-24T14:28:15Z</time>
      </trkpt>
      <trkpt lat="45.89855" lon="2.73861">
        <ele>608.763</ele>
        <time>2017-03-24T14:28:35Z</time>
      </trkpt>
      <trkpt lat="45.89893" lon="2.73889">
        <ele>604.774</ele>
        <time>2017-03-24T14:28:55Z</time>
      </trkpt>
      <trkpt lat="45.89905" lon="2.73917">
        <ele>600.887</ele>
        <time>2017-03-24T14:29:15Z</time>
      </trkpt>
      <trkpt lat="45.89916" lon="2.73969">
        <ele>598.013</ele>
        <time>2017-03-24T14:29:35Z</time>
      </trkpt>
      <trkpt lat="45.89939" lon="2.74034">
        <ele>591.067</ele>
        <time>2017-03-24T14:29:55Z</time>
      </trkpt>
      <trkpt lat="45.89945" lon="2.74075">
        <ele>584.986</ele>
        <time>2017-03-24T14:30:15Z</time>
      </trkpt>
      <trkpt lat="45.89938" lon="2.74174">
        <ele>581.46</ele>
        <time>2017-03-24T14:30:35Z</time>
      </trkpt>
      <trkpt lat="45.89925" lon="2.74189">
        <ele>582.726</ele>
        <time>2017-03-24T14:30:55Z</time>
      </trkpt>
      <trkpt lat="45.89913" lon="2.74223">
        <ele>583.008</ele>
        <time>2017-03-24T14:31:15Z</time>
      </trkpt>
      <trkpt lat="45.89862" lon="2.74256">
        <ele>592.894</ele>
        <time>2017-03-24T14:31:35Z</time>
      </trkpt>
      <trkpt lat="45.89849" lon="2.74284">
        <ele>592.948</ele>
        <time>2017-03-24T14:31:55Z</time>
      </trkpt>
      <trkpt lat="45.89841" lon="2.74338">
        <ele>591.255</ele>
        <time>2017-03-24T14:32:15Z</time>
      </trkpt>
      <trkpt lat="45.89797" lon="2.74496">
        <ele>593.238</ele>
        <time>2017-03-24T14:32:35Z</time>
      </trkpt>
      <trkpt lat="45.89827" lon="2.74601">
        <ele>591.629</ele>
        <time>2017-03-24T14:32:55Z</time>
      </trkpt>
      <trkpt lat="45.89851" lon="2.74606">
        <ele>586.722</ele>
        <time>2017-03-24T14:33:15Z</time>
      </trkpt>
      <trkpt lat="45.89885" lon="2.74634">
        <ele>580.638</ele>
        <time>2017-03-24T14:33:35Z</time>
      </trkpt>
      <trkpt lat="45.89923" lon="2.74682">
        <ele>575.912</ele>
        <time>2017-03-24T14:33:55Z</time>
      </trkpt>
      <trkpt lat="45.89927" lon="2.74711">
        <ele>575.187</ele>
        <time>2017-03-24T14:34:15Z</time>
      </trkpt>
      <trkpt lat="45.89916" lon="2.74743">
        <ele>577.142</ele>
        <time>2017-03-24T14:34:35Z</time>
      </trkpt>
      <trkpt lat="45.89922" lon="2.74778">
        <ele>581.326</ele>
        <time>2017-03-24T14:34:55Z</time>
      </trkpt>
      <trkpt lat="45.89935" lon="2.74785">
        <ele>581.108</ele>
        <time>2017-03-24T14:35:15Z</time>
      </trkpt>
      <trkpt lat="45.90007" lon="2.74774">
        <ele>572.254</ele>
        <time>2017-03-24T14:35:35Z</time>
      </trkpt>
      <trkpt lat="45.90089" lon="2.74737">
        <ele>555.648</ele>
        <time>2017-03-24T14:35:55Z</time>
      </trkpt>
      <trkpt lat="45.90154" lon="2.74715">
        <ele>551.985</ele>
        <time>2017-03-24T14:36:15Z</time>
      </trkpt>
      <trkpt lat="45.902" lon="2.74687">
        <ele>547.468</ele>
        <time>2017-03-24T14:36:35Z</time>
      </trkpt>
      <trkpt lat="45.90273" lon="2.74688">
        <ele>541.999</ele>
        <time>2017-03-24T14:36:55Z</time>
      </trkpt>
      <trkpt lat="45.90335" lon="2.74718">
        <ele>537.522</ele>
        <time>2017-03-24T14:37:15Z</time>
      </trkpt>
      <trkpt lat="45.90365" lon="2.74717">
        <ele>533.238</ele>
        <time>2017-03-24T14:37:35Z</time>
      </trkpt>
      <trkpt lat="45.90391" lon="2.747">
        <ele>525.782</ele>
        <time>2017-03-24T14:37:55Z</time>
      </trkpt>
      <trkpt lat="45.90487" lon="2.74671">
        <ele>512.548</ele>
        <time>2017-03-24T14:38:15Z</time>
      </trkpt>
      <trkpt lat="45.90539" lon="2.74742">
        <ele>523.061</ele>
        <time>2017-03-24T14:38:35Z</time>
      </trkpt>
      <trkpt lat="45.90584" lon="2.74792">
        <ele>522.417</ele>
        <time>2017-03-24T14:38:55Z</time>
      </trkpt>
      <trkpt lat="45.90696" lon="2.74875">
        <ele>531.508</ele>
        <time>2017-03-24T14:39:15Z</time>
      </trkpt>
      <trkpt lat="45.90766" lon="2.74939">
        <ele>530.65</ele>
        <time>2017-03-24T14:39:35Z</time>
      </trkpt>
      <trkpt lat="45.90806" lon="2.75001">
        <ele>532.264</ele>
        <time>2017-03-24T14:39:55Z</time>
      </trkpt>
      <trkpt lat="45.90812" lon="2.75033">
        <ele>534.251</ele>
        <time>2017-03-24T14:40:15Z</time>
      </trkpt>
      <trkpt lat="45.90759" lon="2.75105">
        <ele>547.884</ele>
        <time>2017-03-24T14:40:35Z</time>
      </trkpt>
      <trkpt lat="45.90742" lon="2.75217">
        <ele>545.715</ele>
        <time>2017-03-24T14:40:55Z</time>
      </trkpt>
      <trkpt lat="45.90751" lon="2.75235">
        <ele>540.358</ele>
        <time>2017-03-24T14:41:15Z</time>
      </trkpt>
      <trkpt lat="45.90741" lon="2.75313">
        <ele>535.354</ele>
        <time>2017-03-24T14:41:35Z</time>
      </trkpt>
      <trkpt lat="45.90725" lon="2.7536">
        <ele>532.228</ele>
        <time>2017-03-24T14:41:55Z</time>
      </trkpt>
      <trkpt lat="45.90626" lon="2.75514">
        <ele>524.818</ele>
        <time>2017-03-24T14:42:15Z</time>
      </trkpt>
      <trkpt lat="45.9062" lon="2.75542">
        <ele>522.898</ele>
        <time>2017-03-24T14:42:35Z</time>
      </trkpt>
      <trkpt lat="45.90636" lon="2.7561">
        <ele>516.517</ele>
        <time>2017-03-24T14:42:55Z</time>
      </trkpt>
      <trkpt lat="45.90629" lon="2.75637">
        <ele>515.908</ele>
        <time>2017-03-24T14:43:15Z</time>
      </trkpt>
      <trkpt lat="45.90558" lon="2.75699">
        <ele>523.577</ele>
        <time>2017-03-24T14:43:35Z</time>
      </trkpt>
      <trkpt lat="45.90547" lon="2.75729">
        <ele>521.551</ele>
        <time>2017-03-24T14:43:55Z</time>
      </trkpt>
      <trkpt lat="45.9053" lon="2.75754">
        <ele>520.658</ele>
        <time>2017-03-24T14:44:15Z</time>
      </trkpt>
      <trkpt lat="45.90443" lon="2.75826">
        <ele>527.151</ele>
        <time>2017-03-24T14:44:35Z</time>
      </trkpt>
      <trkpt lat="45.90478" lon="2.75839">
        <ele>531.612</ele>
        <time>2017-03-24T14:44:55Z</time>
      </trkpt>
      <trkpt lat="45.90598" lon="2.75805">
        <ele>537.145</ele>
        <time>2017-03-24T14:45:15Z</time>
      </trkpt>
      <trkpt lat="45.90469" lon="2.75908">
        <ele>562.021</ele>
        <time>2017-03-24T14:45:35Z</time>
      </trkpt>
      <trkpt lat="45.90424" lon="2.75963">
        <ele>569.285</ele>
        <time>2017-03-24T14:45:55Z</time>
      </trkpt>
      <trkpt lat="45.90409" lon="2.76028">
        <ele>583.247</ele>
        <time>2017-03-24T14:46:15Z</time>
      </trkpt>
      <trkpt lat="45.90407" lon="2.76055">
        <ele>590.829</ele>
        <time>2017-03-24T14:46:35Z</time>
      </trkpt>
      <trkpt lat="45.90373" lon="2.76051">
        <ele>578.321</ele>
        <time>2017-03-24T14:46:55Z</time>
      </trkpt>
      <trkpt lat="45.9032" lon="2.7613">
        <ele>592.008</ele>
        <time>2017-03-24T14:47:15Z</time>
      </trkpt>
      <trkpt lat="45.90296" lon="2.76228">
        <ele>611.91</ele>
        <time>2017-03-24T14:47:35Z</time>
      </trkpt>
      <trkpt lat="45.90267" lon="2.76248">
        <ele>609.354</ele>
        <time>2017-03-24T14:47:55Z</time>
      </trkpt>
      <trkpt lat="45.9024" lon="2.76294">
        <ele>612.341</ele>
        <time>2017-03-24T14:48:15Z</time>
      </trkpt>
      <trkpt lat="45.90184" lon="2.76468">
        <ele>626.934</ele>
        <time>2017-03-24T14:48:35Z</time>
      </trkpt>
      <trkpt lat="45.90181" lon="2.76512">
        <ele>635.095</ele>
        <time>2017-03-24T14:48:55Z</time>
      </trkpt>
      <trkpt lat="45.90188" lon="2.76551">
        <ele>641.718</ele>
        <time>2017-03-24T14:49:15Z</time>
      </trkpt>
      <trkpt lat="45.90201" lon="2.76605">
        <ele>646.464</ele>
        <time>2017-03-24T14:49:35Z</time>
      </trkpt>
      <trkpt lat="45.90226" lon="2.76659">
        <ele>650.838</ele>
        <time>2017-03-24T14:49:55Z</time>
      </trkpt>
      <trkpt lat="45.90214" lon="2.7671">
        <ele>650.112</ele>
        <time>2017-03-24T14:50:15Z</time>
      </trkpt>
      <trkpt lat="45.90228" lon="2.76781">
        <ele>655.932</ele>
        <time>2017-03-24T14:50:35Z</time>
      </trkpt>
      <trkpt lat="45.90177" lon="2.76817">
        <ele>648.405</ele>
        <time>2017-03-24T14:50:55Z</time>
      </trkpt>
      <trkpt lat="45.90262" lon="2.76963">
        <ele>667.708</ele>
        <time>2017-03-24T14:51:15Z</time>
      </trkpt>
      <trkpt lat="45.9042" lon="2.7692">
        <ele>676.257</ele>
        <time>2017-03-24T14:51:35Z</time>
      </trkpt>
      <trkpt lat="45.90449" lon="2.76928">
        <ele>678.451</ele>
        <time>2017-03-24T14:51:55Z</time>
      </trkpt>
      <trkpt lat="45.90461" lon="2.76969">
        <ele>678.398</ele>
        <time>2017-03-24T14:52:15Z</time>
      </trkpt>
      <trkpt lat="45.90421" lon="2.77162">
        <ele>677.511</ele>
        <time>2017-03-24T14:52:35Z</time>
      </trkpt>
      <trkpt lat="45.9043" lon="2.77406">
        <ele>683.042</ele>
        <time>2017-03-24T14:52:55Z</time>
      </trkpt>
      <trkpt lat="45.90398" lon="2.77485">
        <ele>684.135</ele>
        <time>2017-03-24T14:53:15Z</time>
      </trkpt>
      <trkpt lat="45.90334" lon="2.77558">
        <ele>687.231</ele>
        <time>2017-03-24T14:53:35Z</time>
      </trkpt>
      <trkpt lat="45.9027" lon="2.77586">
        <ele>686.075</ele>
        <time>2017-03-24T14:53:55Z</time>
      </trkpt>
      <trkpt lat="45.90225" lon="2.77606">
        <ele>685.292</ele>
        <time>2017-03-24T14:54:15Z</time>
      </trkpt>
      <trkpt lat="45.90236" lon="2.77652">
        <ele>685.273</ele>
        <time>2017-03-24T14:54:35Z</time>
      </trkpt>
      <trkpt lat="45.90218" lon="2.77684">
        <ele>685.02</ele>
        <time>2017-03-24T14:54:55Z</time>
      </trkpt>
      <trkpt lat="45.90223" lon="2.77712">
        <ele>685.608</ele>
        <time>2017-03-24T14:55:15Z</time>
      </trkpt>
      <trkpt lat="45.90185" lon="2.77845">
        <ele>680.955</ele>
        <time>2017-03-24T14:55:35Z</time>
      </trkpt>
      <trkpt lat="45.90155" lon="2.78009">
        <ele>676.779</ele>
        <time>2017-03-24T14:55:55Z</time>
      </trkpt>
      <trkpt lat="45.90136" lon="2.78037">
        <ele>676.196</ele>
        <time>2017-03-24T14:56:15Z</time>
      </trkpt>
      <trkpt lat="45.90098" lon="2.78051">
        <ele>677.689</ele>
        <time>2017-03-24T14:56:35Z</time>
      </trkpt>
      <trkpt lat="45.90085" lon="2.78077">
        <ele>677.18</ele>
        <time>2017-03-24T14:56:55Z</time>
      </trkpt>
      <trkpt lat="45.90099" lon="2.78165">
        <ele>670.543</ele>
        <time>2017-03-24T14:57:15Z</time>
      </trkpt>
      <trkpt lat="45.90116" lon="2.7824">
        <ele>664.619</ele>
        <time>2017-03-24T14:57:35Z</time>
      </trkpt>
      <trkpt lat="45.90107" lon="2.78273">
        <ele>663.073</ele>
        <time>2017-03-24T14:57:55Z</time>
      </trkpt>
      <trkpt lat="45.90118" lon="2.78354">
        <ele>662.726</ele>
        <time>2017-03-24T14:58:15Z</time>
      </trkpt>
      <trkpt lat="45.90136" lon="2.78565">
        <ele>662.547</ele>
        <time>2017-03-24T14:58:35Z</time>
      </trkpt>
      <trkpt lat="45.90134" lon="2.78609">
        <ele>662.311</ele>
        <time>2017-03-24T14:58:55Z</time>
      </trkpt>
      <trkpt lat="45.90143" lon="2.78679">
        <ele>663.008</ele>
        <time>2017-03-24T14:59:15Z</time>
      </trkpt>
      <trkpt lat="45.90225" lon="2.78939">
        <ele>662.288</ele>
        <time>2017-03-24T14:59:35Z</time>
      </trkpt>
      <trkpt lat="45.90221" lon="2.7896">
        <ele>660.892</ele>
        <time>2017-03-24T14:59:55Z</time>
      </trkpt>
      <trkpt lat="45.90161" lon="2.79017">
        <ele>655.779</ele>
        <time>2017-03-24T15:00:15Z</time>
      </trkpt>
      <trkpt lat="45.90133" lon="2.79034">
        <ele>652.472</ele>
        <time>2017-03-24T15:00:35Z</time>
      </trkpt>
      <trkpt lat="45.90125" lon="2.79068">
        <ele>646.693</ele>
        <time>2017-03-24T15:00:55Z</time>
      </trkpt>
      <trkpt lat="45.90127" lon="2.79103">
        <ele>640.716</ele>
        <time>2017-03-24T15:01:15Z</time>
      </trkpt>
      <trkpt lat="45.90153" lon="2.79223">
        <ele>627.782</ele>
        <time>2017-03-24T15:01:35Z</time>
      </trkpt>
      <trkpt lat="45.90185" lon="2.79338">
        <ele>616.446</ele>
        <time>2017-03-24T15:01:55Z</time>
      </trkpt>
      <trkpt lat="45.90225" lon="2.79375">
        <ele>616.264</ele>
        <time>2017-03-24T15:02:15Z</time>
      </trkpt>
      <trkpt lat="45.90273" lon="2.79404">
        <ele>614.506</ele>
        <time>2017-03-24T15:02:35Z</time>
      </trkpt>
      <trkpt lat="45.90283" lon="2.79443">
        <ele>606.816</ele>
        <time>2017-03-24T15:02:55Z</time>
      </trkpt>
      <trkpt lat="45.90274" lon="2.79503">
        <ele>594.308</ele>
        <time>2017-03-24T15:03:15Z</time>
      </trkpt>
      <trkpt lat="45.90254" lon="2.79516">
        <ele>591.222</ele>
        <time>2017-03-24T15:03:35Z</time>
      </trkpt>
      <trkpt lat="45.90246" lon="2.79543">
        <ele>588.586</ele>
        <time>2017-03-24T15:03:55Z</time>
      </trkpt>
      <trkpt lat="45.9025" lon="2.79566">
        <ele>586.283</ele>
        <time>2017-03-24T15:04:15Z</time>
      </trkpt>
      <trkpt lat="45.90265" lon="2.7958">
        <ele>585.156</ele>
        <time>2017-03-24T15:04:35Z</time>
      </trkpt>
      <trkpt lat="45.90307" lon="2.79647">
        <ele>574.587</ele>
        <time>2017-03-24T15:04:55Z</time>
      </trkpt>
      <trkpt lat="45.90344" lon="2.79698">
        <ele>566.01</ele>
        <time>2017-03-24T15:05:15Z</time>
      </trkpt>
      <trkpt lat="45.90437" lon="2.79751">
        <ele>559.756</ele>
        <time>2017-03-24T15:05:35Z</time>
      </trkpt>
      <trkpt lat="45.90453" lon="2.79776">
        <ele>550.78</ele>
        <time>2017-03-24T15:05:55Z</time>
      </trkpt>
      <trkpt lat="45.90499" lon="2.79778">
        <ele>539.533</ele>
        <time>2017-03-24T15:06:15Z</time>
      </trkpt>
      <trkpt lat="45.90521" lon="2.79769">
        <ele>534.923</ele>
        <time>2017-03-24T15:06:35Z</time>
      </trkpt>
      <trkpt lat="45.9056" lon="2.79841">
        <ele>523.315</ele>
        <time>2017-03-24T15:06:55Z</time>
      </trkpt>
      <trkpt lat="45.90626" lon="2.79898">
        <ele>538.108</ele>
        <time>2017-03-24T15:07:15Z</time>
      </trkpt>
      <trkpt lat="45.90618" lon="2.79903">
        <ele>540.819</ele>
        <time>2017-03-24T15:07:35Z</time>
      </trkpt>
      <trkpt lat="45.90591" lon="2.79891">
        <ele>540.893</ele>
        <time>2017-03-24T15:07:55Z</time>
      </trkpt>
      <trkpt lat="45.90542" lon="2.79906">
        <ele>539.33</ele>
        <time>2017-03-24T15:08:15Z</time>
      </trkpt>
      <trkpt lat="45.90508" lon="2.79942">
        <ele>540.133</ele>
        <time>2017-03-24T15:08:35Z</time>
      </trkpt>
      <trkpt lat="45.90493" lon="2.79988">
        <ele>549.234</ele>
        <time>2017-03-24T15:08:55Z</time>
      </trkpt>
      <trkpt lat="45.90407" lon="2.80095">
        <ele>557.797</ele>
        <time>2017-03-24T15:09:15Z</time>
      </trkpt>
      <trkpt lat="45.9034" lon="2.80117">
        <ele>560.793</ele>
        <time>2017-03-24T15:09:35Z</time>
      </trkpt>
      <trkpt lat="45.90289" lon="2.80105">
        <ele>551.727</ele>
        <time>2017-03-24T15:09:55Z</time>
      </trkpt>
      <trkpt lat="45.90227" lon="2.80069">
        <ele>549.154</ele>
        <time>2017-03-24T15:10:15Z</time>
      </trkpt>
      <trkpt lat="45.9018" lon="2.80009">
        <ele>536.956</ele>
        <time>2017-03-24T15:10:35Z</time>
      </trkpt>
      <trkpt lat="45.90148" lon="2.7999">
        <ele>535.611</ele>
        <time>2017-03-24T15:10:55Z</time>
      </trkpt>
      <trkpt lat="45.90091" lon="2.79942">
        <ele>538.308</ele>
        <time>2017-03-24T15:11:15Z</time>
      </trkpt>
      <trkpt lat="45.90047" lon="2.79934">
        <ele>539.331</ele>
        <time>2017-03-24T15:11:35Z</time>
      </trkpt>
      <trkpt lat="45.89999" lon="2.79899">
        <ele>537.355</ele>
        <time>2017-03-24T15:11:55Z</time>
      </trkpt>
      <trkpt lat="45.89976" lon="2.79861">
        <ele>532.552</ele>
        <time>2017-03-24T15:12:15Z</time>
      </trkpt>
      <trkpt lat="45.89954" lon="2.79845">
        <ele>533.535</ele>
        <time>2017-03-24T15:12:35Z</time>
      </trkpt>
      <trkpt lat="45.89928" lon="2.79831">
        <ele>535.086</ele>
        <time>2017-03-24T15:12:55Z</time>
      </trkpt>
      <trkpt lat="45.89903" lon="2.79806">
        <ele>533.169</ele>
        <time>2017-03-24T15:13:15Z</time>
      </trkpt>
      <trkpt lat="45.8984" lon="2.79801">
        <ele>534.375</ele>
        <time>2017-03-24T15:13:35Z</time>
      </trkpt>
      <trkpt lat="45.89754" lon="2.79841">
        <ele>534.439</ele>
        <time>2017-03-24T15:13:55Z</time>
      </trkpt>
      <trkpt lat="45.89672" lon="2.79904">
        <ele>535.823</ele>
        <time>2017-03-24T15:14:15Z</time>
      </trkpt>
      <trkpt lat="45.89635" lon="2.79969">
        <ele>540.983</ele>
        <time>2017-03-24T15:14:35Z</time>
      </trkpt>
      <trkpt lat="45.89588" lon="2.80036">
        <ele>541.411</ele>
        <time>2017-03-24T15:14:55Z</time>
      </trkpt>
      <trkpt lat="45.89536" lon="2.80184">
        <ele>540.308</ele>
        <time>2017-03-24T15:15:15Z</time>
      </trkpt>
      <trkpt lat="45.89534" lon="2.80305">
        <ele>544.378</ele>
        <time>2017-03-24T15:15:35Z</time>
      </trkpt>
      <trkpt lat="45.89541" lon="2.80448">
        <ele>555.022</ele>
        <time>2017-03-24T15:15:55Z</time>
      </trkpt>
      <trkpt lat="45.89527" lon="2.80481">
        <ele>558.439</ele>
        <time>2017-03-24T15:16:15Z</time>
      </trkpt>
      <trkpt lat="45.89496" lon="2.80526">
        <ele>564.542</ele>
        <time>2017-03-24T15:16:35Z</time>
      </trkpt>
      <trkpt lat="45.89441" lon="2.80557">
        <ele>566.993</ele>
        <time>2017-03-24T15:16:55Z</time>
      </trkpt>
      <trkpt lat="45.89383" lon="2.8054">
        <ele>559.356</ele>
        <time>2017-03-24T15:17:15Z</time>
      </trkpt>
      <trkpt lat="45.89306" lon="2.80459">
        <ele>542.162</ele>
        <time>2017-03-24T15:17:35Z</time>
      </trkpt>
      <trkpt lat="45.8915" lon="2.80266">
        <ele>547.216</ele>
        <time>2017-03-24T15:17:55Z</time>
      </trkpt>
      <trkpt lat="45.88976" lon="2.80114">
        <ele>549.138</ele>
        <time>2017-03-24T15:18:15Z</time>
      </trkpt>
      <trkpt lat="45.88864" lon="2.80033">
        <ele>545.97</ele>
        <time>2017-03-24T15:18:35Z</time>
      </trkpt>
      <trkpt lat="45.88852" lon="2.80041">
        <ele>545.517</ele>
        <time>2017-03-24T15:18:55Z</time>
      </trkpt>
      <trkpt lat="45.88868" lon="2.80075">
        <ele>547.608</ele>
        <time>2017-03-24T15:19:15Z</time>
      </trkpt>
      <trkpt lat="45.88871" lon="2.80145">
        <ele>549.429</ele>
        <time>2017-03-24T15:19:35Z</time>
      </trkpt>
      <trkpt lat="45.88891" lon="2.80237">
        <ele>547.763</ele>
        <time>2017-03-24T15:19:55Z</time>
      </trkpt>
      <trkpt lat="45.88914" lon="2.80292">
        <ele>556.75</ele>
        <time>2017-03-24T15:20:15Z</time>
      </trkpt>
      <trkpt lat="45.88946" lon="2.80375">
        <ele>564.963</ele>
        <time>2017-03-24T15:20:35Z</time>
      </trkpt>
      <trkpt lat="45.88938" lon="2.80463">
        <ele>557.044</ele>
        <time>2017-03-24T15:20:55Z</time>
      </trkpt>
      <trkpt lat="45.88892" lon="2.80561">
        <ele>565.957</ele>
        <time>2017-03-24T15:21:15Z</time>
      </trkpt>
      <trkpt lat="45.88833" lon="2.80603">
        <ele>568.293</ele>
        <time>2017-03-24T15:21:35Z</time>
      </trkpt>
      <trkpt lat="45.88734" lon="2.80593">
        <ele>562.347</ele>
        <time>2017-03-24T15:21:55Z</time>
      </trkpt>
      <trkpt lat="45.8861" lon="2.80545">
        <ele>563.636</ele>
        <time>2017-03-24T15:22:15Z</time>
      </trkpt>
      <trkpt lat="45.88565" lon="2.80474">
        <ele>561.617</ele>
        <time>2017-03-24T15:22:35Z</time>
      </trkpt>
      <trkpt lat="45.88533" lon="2.80431">
        <ele>558.418</ele>
        <time>2017-03-24T15:22:55Z</time>
      </trkpt>
      <trkpt lat="45.88391" lon="2.80302">
        <ele>552.908</ele>
        <time>2017-03-24T15:23:15Z</time>
      </trkpt>
      <trkpt lat="45.88371" lon="2.80309">
        <ele>551.929</ele>
        <time>2017-03-24T15:23:35Z</time>
      </trkpt>
      <trkpt lat="45.8836" lon="2.80324">
        <ele>552.513</ele>
        <time>2017-03-24T15:23:55Z</time>
      </trkpt>
      <trkpt lat="45.88373" lon="2.80375">
        <ele>555.52</ele>
        <time>2017-03-24T15:24:15Z</time>
      </trkpt>
      <trkpt lat="45.88424" lon="2.80431">
        <ele>560.893</ele>
        <time>2017-03-24T15:24:35Z</time>
      </trkpt>
      <trkpt lat="45.88438" lon="2.8047">
        <ele>563.844</ele>
        <time>2017-03-24T15:24:55Z</time>
      </trkpt>
      <trkpt lat="45.88436" lon="2.80501">
        <ele>562.817</ele>
        <time>2017-03-24T15:25:15Z</time>
      </trkpt>
      <trkpt lat="45.88425" lon="2.80541">
        <ele>561.443</ele>
        <time>2017-03-24T15:25:35Z</time>
      </trkpt>
      <trkpt lat="45.88374" lon="2.80632">
        <ele>559.887</ele>
        <time>2017-03-24T15:25:55Z</time>
      </trkpt>
      <trkpt lat="45.88298" lon="2.80718">
        <ele>555.921</ele>
        <time>2017-03-24T15:26:15Z</time>
      </trkpt>
      <trkpt lat="45.88302" lon="2.80773">
        <ele>554.941</ele>
        <time>2017-03-24T15:26:35Z</time>
      </trkpt>
      <trkpt lat="45.88314" lon="2.80792">
        <ele>555.905</ele>
        <time>2020-11-20T04:04:25Z</time>
      </trkpt>
      <trkpt lat="45.88272" lon="2.80842">
        <ele>553.108</ele>
        <time>2020-11-20T04:04:45Z</time>
      </trkpt>
      <trkpt lat="45.88251" lon="2.80825">
        <ele>554.688</ele>
        <time>2020-11-20T04:05:05Z</time>
      </trkpt>
      <trkpt lat="45.88219" lon="2.80741">
        <ele>559.742</ele>
        <time>2020-11-20T04:05:25Z</time>
      </trkpt>
      <trkpt lat="45.88134" lon="2.807">
        <ele>572.989</ele>
        <time>2020-11-20T04:05:45Z</time>
      </trkpt>
      <trkpt lat="45.88087" lon="2.8073">
        <ele>563.872</ele>
        <time>2020-11-20T04:06:05Z</time>
      </trkpt>
      <trkpt lat="45.88041" lon="2.80749">
        <ele>566.883</ele>
        <time>2020-11-20T04:06:25Z</time>
      </trkpt>
      <trkpt lat="45.88034" lon="2.80792">
        <ele>565.486</ele>
        <time>2020-11-20T04:06:45Z</time>
      </trkpt>
      <trkpt lat="45.88004" lon="2.8084">
        <ele>565.082</ele>
        <time>2020-11-20T04:07:05Z</time>
      </trkpt>
      <trkpt lat="45.88028" lon="2.80902">
        <ele>560.496</ele>
        <time>2020-11-20T04:07:25Z</time>
      </trkpt>
      <trkpt lat="45.88008" lon="2.8097">
        <ele>565.039</ele>
        <time>2020-11-20T04:07:45Z</time>
      </trkpt>
      <trkpt lat="45.88007" lon="2.80982">
        <ele>566.301</ele>
        <time>2020-11-20T04:08:05Z</time>
      </trkpt>
      <trkpt lat="45.8799" lon="2.81009">
        <ele>566.021</ele>
        <time>2020-11-20T04:08:25Z</time>
      </trkpt>
      <trkpt lat="45.87981" lon="2.81047">
        <ele>568.908</ele>
        <time>2020-11-20T04:08:45Z</time>
      </trkpt>
      <trkpt lat="45.87956" lon="2.81055">
        <ele>564.499</ele>
        <time>2020-11-20T04:09:05Z</time>
      </trkpt>
      <trkpt lat="45.8794" lon="2.81109">
        <ele>565.163</ele>
        <time>2020-11-20T04:09:25Z</time>
      </trkpt>
      <trkpt lat="45.87941" lon="2.8117">
        <ele>566.97</ele>
        <time>2020-11-20T04:09:45Z</time>
      </trkpt>
      <trkpt lat="45.87963" lon="2.81237">
        <ele>569.043</ele>
        <time>2020-11-20T04:10:05Z</time>
      </trkpt>
      <trkpt lat="45.88014" lon="2.81321">
        <ele>571.824</ele>
        <time>2020-11-20T04:10:25Z</time>
      </trkpt>
      <trkpt lat="45.88038" lon="2.81394">
        <ele>569.277</ele>
        <time>2020-11-20T04:10:45Z</time>
      </trkpt>
      <trkpt lat="45.88049" lon="2.8148">
        <ele>569.973</ele>
        <time>2020-11-20T04:11:05Z</time>
      </trkpt>
      <trkpt lat="45.88043" lon="2.81646">
        <ele>584.757</ele>
        <time>2020-11-20T04:11:25Z</time>
      </trkpt>
      <trkpt lat="45.87928" lon="2.81905">
        <ele>575.014</ele>
        <time>2017-03-24T15:31:55Z</time>
      </trkpt>
      <trkpt lat="45.87905" lon="2.81974">
        <ele>581.354</ele>
        <time>2017-03-24T15:32:15Z</time>
      </trkpt>
      <trkpt lat="45.87854" lon="2.82043">
        <ele>575.009</ele>
        <time>2017-03-24T15:32:35Z</time>
      </trkpt>
      <trkpt lat="45.8783" lon="2.82096">
        <ele>573.908</ele>
        <time>2017-03-24T15:32:55Z</time>
      </trkpt>
      <trkpt lat="45.87796" lon="2.82107">
        <ele>569.997</ele>
        <time>2017-03-24T15:33:15Z</time>
      </trkpt>
      <trkpt lat="45.87756" lon="2.82146">
        <ele>580.871</ele>
        <time>2017-03-24T15:33:35Z</time>
      </trkpt>
      <trkpt lat="45.87759" lon="2.82227">
        <ele>597.848</ele>
        <time>2017-03-24T15:33:55Z</time>
      </trkpt>
      <trkpt lat="45.87771" lon="2.82294">
        <ele>599.541</ele>
        <time>2017-03-24T15:34:15Z</time>
      </trkpt>
      <trkpt lat="45.87751" lon="2.82304">
        <ele>614.072</ele>
        <time>2017-03-24T15:34:35Z</time>
      </trkpt>
      <trkpt lat="45.87714" lon="2.82216">
        <ele>611.765</ele>
        <time>2017-03-24T15:34:55Z</time>
      </trkpt>
      <trkpt lat="45.87715" lon="2.82384">
        <ele>646.651</ele>
        <time>2017-03-24T15:35:15Z</time>
      </trkpt>
      <trkpt lat="45.87689" lon="2.82375">
        <ele>656.975</ele>
        <time>2017-03-24T15:35:35Z</time>
      </trkpt>
      <trkpt lat="45.87627" lon="2.82298">
        <ele>660.166</ele>
        <time>2017-03-24T15:35:55Z</time>
      </trkpt>
      <trkpt lat="45.87587" lon="2.82289">
        <ele>662.629</ele>
        <time>2017-03-24T15:36:15Z</time>
      </trkpt>
      <trkpt lat="45.87596" lon="2.82341">
        <ele>674.621</ele>
        <time>2017-03-24T15:36:35Z</time>
      </trkpt>
      <trkpt lat="45.87538" lon="2.8241">
        <ele>679.008</ele>
        <time>2017-03-24T15:36:55Z</time>
      </trkpt>
      <trkpt lat="45.87487" lon="2.82504">
        <ele>680.822</ele>
        <time>2017-03-24T15:37:15Z</time>
      </trkpt>
      <trkpt lat="45.87458" lon="2.82656">
        <ele>686.266</ele>
        <time>2017-03-24T15:37:35Z</time>
      </trkpt>
      <trkpt lat="45.87451" lon="2.82727">
        <ele>688.513</ele>
        <time>2017-03-24T15:37:55Z</time>
      </trkpt>
      <trkpt lat="45.87458" lon="2.8277">
        <ele>692.926</ele>
        <time>2017-03-24T15:38:15Z</time>
      </trkpt>
      <trkpt lat="45.87402" lon="2.82871">
        <ele>696.287</ele>
        <time>2017-03-24T15:38:35Z</time>
      </trkpt>
      <trkpt lat="45.87403" lon="2.82946">
        <ele>699.18</ele>
        <time>2017-03-24T15:38:55Z</time>
      </trkpt>
      <trkpt lat="45.87382" lon="2.83008">
        <ele>701.846</ele>
        <time>2017-03-24T15:39:15Z</time>
      </trkpt>
      <trkpt lat="45.87337" lon="2.83197">
        <ele>706.28</ele>
        <time>2017-03-24T15:39:35Z</time>
      </trkpt>
      <trkpt lat="45.87349" lon="2.83261">
        <ele>709.428</ele>
        <time>2017-03-24T15:39:55Z</time>
      </trkpt>
      <trkpt lat="45.87417" lon="2.83281">
        <ele>710.189</ele>
        <time>2017-03-24T15:40:15Z</time>
      </trkpt>
      <trkpt lat="45.87532" lon="2.83337">
        <ele>705.517</ele>
        <time>2017-03-24T15:40:35Z</time>
      </trkpt>
      <trkpt lat="45.8759" lon="2.83403">
        <ele>718.008</ele>
        <time>2017-03-24T15:40:55Z</time>
      </trkpt>
      <trkpt lat="45.87644" lon="2.83414">
        <ele>719.588</ele>
        <time>2017-03-24T15:41:15Z</time>
      </trkpt>
      <trkpt lat="45.877" lon="2.83495">
        <ele>722.462</ele>
        <time>2017-03-24T15:41:35Z</time>
      </trkpt>
      <trkpt lat="45.87775" lon="2.8356">
        <ele>724.429</ele>
        <time>2017-03-24T15:41:55Z</time>
      </trkpt>
      <trkpt lat="45.88038" lon="2.83693">
        <ele>722.482</ele>
        <time>2017-03-24T15:42:15Z</time>
      </trkpt>
      <trkpt lat="45.88017" lon="2.83718">
        <ele>718.123</ele>
        <time>2017-03-24T15:42:35Z</time>
      </trkpt>
      <trkpt lat="45.88066" lon="2.83834">
        <ele>717.186</ele>
        <time>2017-03-24T15:42:55Z</time>
      </trkpt>
      <trkpt lat="45.88075" lon="2.83894">
        <ele>713.042</ele>
        <time>2017-03-24T15:43:15Z</time>
      </trkpt>
      <trkpt lat="45.88072" lon="2.83997">
        <ele>706.596</ele>
        <time>2017-03-24T15:43:35Z</time>
      </trkpt>
      <trkpt lat="45.88062" lon="2.84068">
        <ele>694.643</ele>
        <time>2017-03-24T15:43:55Z</time>
      </trkpt>
      <trkpt lat="45.88074" lon="2.84135">
        <ele>687.364</ele>
        <time>2017-03-24T15:44:15Z</time>
      </trkpt>
      <trkpt lat="45.88114" lon="2.84186">
        <ele>685.01</ele>
        <time>2017-03-24T15:44:35Z</time>
      </trkpt>
      <trkpt lat="45.88144" lon="2.84173">
        <ele>695.708</ele>
        <time>2017-03-24T15:44:55Z</time>
      </trkpt>
      <trkpt lat="45.8815" lon="2.84184">
        <ele>693.15</ele>
        <time>2017-03-24T15:45:15Z</time>
      </trkpt>
      <trkpt lat="45.88095" lon="2.84283">
        <ele>686.674</ele>
        <time>2017-03-24T15:45:35Z</time>
      </trkpt>
      <trkpt lat="45.88123" lon="2.84311">
        <ele>686.511</ele>
        <time>2017-03-24T15:45:55Z</time>
      </trkpt>
      <trkpt lat="45.88144" lon="2.84304">
        <ele>682.354</ele>
        <time>2017-03-24T15:46:15Z</time>
      </trkpt>
      <trkpt lat="45.88144" lon="2.84328">
        <ele>683.775</ele>
        <time>2017-03-24T15:46:35Z</time>
      </trkpt>
      <trkpt lat="45.88116" lon="2.84383">
        <ele>695.868</ele>
        <time>2017-03-24T15:46:55Z</time>
      </trkpt>
      <trkpt lat="45.88112" lon="2.84416">
        <ele>704.614</ele>
        <time>2017-03-24T15:47:15Z</time>
      </trkpt>
      <trkpt lat="45.88123" lon="2.84475">
        <ele>712.198</ele>
        <time>2017-03-24T15:47:35Z</time>
      </trkpt>
      <trkpt lat="45.8812" lon="2.84512">
        <ele>716.738</ele>
        <time>2017-03-24T15:47:55Z</time>
      </trkpt>
      <trkpt lat="45.88105" lon="2.84544">
        <ele>718.87</ele>
        <time>2017-03-24T15:48:15Z</time>
      </trkpt>
      <trkpt lat="45.88081" lon="2.84548">
        <ele>723.617</ele>
        <time>2017-03-24T15:48:35Z</time>
      </trkpt>
      <trkpt lat="45.8806" lon="2.84533">
        <ele>729.708</ele>
        <time>2017-03-24T15:48:55Z</time>
      </trkpt>
      <trkpt lat="45.88011" lon="2.84465">
        <ele>735.859</ele>
        <time>2017-03-24T15:49:15Z</time>
      </trkpt>
      <trkpt lat="45.87984" lon="2.84443">
        <ele>737.663</ele>
        <time>2017-03-24T15:49:35Z</time>
      </trkpt>
      <trkpt lat="45.87925" lon="2.84458">
        <ele>742.31</ele>
        <time>2017-03-24T15:49:55Z</time>
      </trkpt>
      <trkpt lat="45.87881" lon="2.84457">
        <ele>751.533</ele>
        <time>2017-03-24T15:50:15Z</time>
      </trkpt>
      <trkpt lat="45.87833" lon="2.84473">
        <ele>758.044</ele>
        <time>2017-03-24T15:50:35Z</time>
      </trkpt>
      <trkpt lat="45.87718" lon="2.8456">
        <ele>765.817</ele>
        <time>2017-03-24T15:50:55Z</time>
      </trkpt>
      <trkpt lat="45.87677" lon="2.84626">
        <ele>765.393</ele>
        <time>2017-03-24T15:51:15Z</time>
      </trkpt>
      <trkpt lat="45.87632" lon="2.84618">
        <ele>762.237</ele>
        <time>2017-03-24T15:51:35Z</time>
      </trkpt>
      <trkpt lat="45.87584" lon="2.84624">
        <ele>759.014</ele>
        <time>2017-03-24T15:51:55Z</time>
      </trkpt>
      <trkpt lat="45.8757" lon="2.84611">
        <ele>756.054</ele>
        <time>2017-03-24T15:52:15Z</time>
      </trkpt>
      <trkpt lat="45.87544" lon="2.84618">
        <ele>753.109</ele>
        <time>2017-03-24T15:52:35Z</time>
      </trkpt>
      <trkpt lat="45.87515" lon="2.84659">
        <ele>752.208</ele>
        <time>2017-03-24T15:52:55Z</time>
      </trkpt>
      <trkpt lat="45.87489" lon="2.84686">
        <ele>750.647</ele>
        <time>2017-03-24T15:53:15Z</time>
      </trkpt>
      <trkpt lat="45.87436" lon="2.84699">
        <ele>745.611</ele>
        <time>2017-03-24T15:53:35Z</time>
      </trkpt>
      <trkpt lat="45.8739" lon="2.84676">
        <ele>737.818</ele>
        <time>2017-03-24T15:53:55Z</time>
      </trkpt>
      <trkpt lat="45.87343" lon="2.84671">
        <ele>733.591</ele>
        <time>2017-03-24T15:54:15Z</time>
      </trkpt>
      <trkpt lat="45.8731" lon="2.84645">
        <ele>728.452</ele>
        <time>2017-03-24T15:54:35Z</time>
      </trkpt>
      <trkpt lat="45.87282" lon="2.84595">
        <ele>724.335</ele>
        <time>2017-03-24T15:54:55Z</time>
      </trkpt>
      <trkpt lat="45.87225" lon="2.84586">
        <ele>715.221</ele>
        <time>2017-03-24T15:55:15Z</time>
      </trkpt>
      <trkpt lat="45.87169" lon="2.8459">
        <ele>698.955</ele>
        <time>2017-03-24T15:55:35Z</time>
      </trkpt>
      <trkpt lat="45.8711" lon="2.84554">
        <ele>688.129</ele>
        <time>2017-03-24T15:55:55Z</time>
      </trkpt>
      <trkpt lat="45.87059" lon="2.84513">
        <ele>676</ele>
        <time>2017-03-24T15:56:15Z</time>
      </trkpt>
      <trkpt lat="45.87028" lon="2.84464">
        <ele>668.52</ele>
        <time>2017-03-24T15:56:35Z</time>
      </trkpt>
      <trkpt lat="45.87024" lon="2.84443">
        <ele>668.208</ele>
        <time>2017-03-24T15:56:55Z</time>
      </trkpt>
      <trkpt lat="45.8703" lon="2.84405">
        <ele>664.648</ele>
        <time>2017-03-24T15:57:15Z</time>
      </trkpt>
      <trkpt lat="45.87062" lon="2.84303">
        <ele>653.642</ele>
        <time>2017-03-24T15:57:35Z</time>
      </trkpt>
      <trkpt lat="45.87083" lon="2.84261">
        <ele>647.289</ele>
        <time>2017-03-24T15:57:55Z</time>
      </trkpt>
      <trkpt lat="45.87072" lon="2.84236">
        <ele>643.262</ele>
        <time>2017-03-24T15:58:15Z</time>
      </trkpt>
      <trkpt lat="45.86982" lon="2.84223">
        <ele>628.743</ele>
        <time>2017-03-24T15:58:35Z</time>
      </trkpt>
      <trkpt lat="45.86989" lon="2.84248">
        <ele>631.556</ele>
        <time>2017-03-24T15:58:55Z</time>
      </trkpt>
      <trkpt lat="45.86925" lon="2.84296">
        <ele>623.192</ele>
        <time>2017-03-24T15:59:15Z</time>
      </trkpt>
      <trkpt lat="45.86866" lon="2.84296">
        <ele>609.096</ele>
        <time>2017-03-24T15:59:35Z</time>
      </trkpt>
      <trkpt lat="45.86857" lon="2.84341">
        <ele>608.381</ele>
        <time>2017-03-24T15:59:55Z</time>
      </trkpt>
      <trkpt lat="45.86856" lon="2.84394">
        <ele>608.861</ele>
        <time>2017-03-24T16:00:15Z</time>
      </trkpt>
      <trkpt lat="45.86872" lon="2.84444">
        <ele>611.817</ele>
        <time>2017-03-24T16:00:35Z</time>
      </trkpt>
      <trkpt lat="45.86928" lon="2.8453">
        <ele>622.308</ele>
        <time>2017-03-24T16:00:55Z</time>
      </trkpt>
      <trkpt lat="45.86926" lon="2.84549">
        <ele>622.564</ele>
        <time>2017-03-24T16:01:15Z</time>
      </trkpt>
      <trkpt lat="45.86917" lon="2.84562">
        <ele>622.218</ele>
        <time>2017-03-24T16:01:35Z</time>
      </trkpt>
      <trkpt lat="45.86893" lon="2.84557">
        <ele>620.325</ele>
        <time>2017-03-24T16:01:55Z</time>
      </trkpt>
      <trkpt lat="45.86868" lon="2.84537">
        <ele>616.578</ele>
        <time>2017-03-24T16:02:15Z</time>
      </trkpt>
      <trkpt lat="45.86853" lon="2.84541">
        <ele>615.279</ele>
        <time>2017-03-24T16:02:35Z</time>
      </trkpt>
      <trkpt lat="45.86848" lon="2.8455">
        <ele>615.532</ele>
        <time>2017-03-24T16:02:55Z</time>
      </trkpt>
      <trkpt lat="45.86854" lon="2.84572">
        <ele>618.748</ele>
        <time>2017-03-24T16:03:15Z</time>
      </trkpt>
      <trkpt lat="45.8688" lon="2.84578">
        <ele>622.352</ele>
        <time>2017-03-24T16:03:35Z</time>
      </trkpt>
      <trkpt lat="45.86882" lon="2.84608">
        <ele>627.733</ele>
        <time>2017-03-24T16:03:55Z</time>
      </trkpt>
      <trkpt lat="45.86922" lon="2.84644">
        <ele>642.223</ele>
        <time>2017-03-24T16:04:15Z</time>
      </trkpt>
      <trkpt lat="45.86938" lon="2.84677">
        <ele>647.615</ele>
        <time>2017-03-24T16:04:35Z</time>
      </trkpt>
      <trkpt lat="45.86941" lon="2.8475">
        <ele>661.308</ele>
        <time>2017-03-24T16:04:55Z</time>
      </trkpt>
      <trkpt lat="45.8696" lon="2.84831">
        <ele>673.849</ele>
        <time>2017-03-24T16:05:15Z</time>
      </trkpt>
      <trkpt lat="45.86934" lon="2.84957">
        <ele>684.233</ele>
        <time>2017-03-24T16:05:35Z</time>
      </trkpt>
      <trkpt lat="45.86941" lon="2.85009">
        <ele>692.67</ele>
        <time>2017-03-24T16:05:55Z</time>
      </trkpt>
      <trkpt lat="45.86924" lon="2.85021">
        <ele>695.983</ele>
        <time>2017-03-24T16:06:15Z</time>
      </trkpt>
      <trkpt lat="45.86874" lon="2.84957">
        <ele>686.244</ele>
        <time>2017-03-24T16:06:35Z</time>
      </trkpt>
      <trkpt lat="45.86853" lon="2.84948">
        <ele>682.587</ele>
        <time>2017-03-24T16:06:55Z</time>
      </trkpt>
      <trkpt lat="45.86839" lon="2.84964">
        <ele>680.363</ele>
        <time>2020-11-20T04:47:05Z</time>
      </trkpt>
      <trkpt lat="45.86843" lon="2.84979">
        <ele>682.357</ele>
        <time>2020-11-20T04:47:25Z</time>
      </trkpt>
      <trkpt lat="45.86857" lon="2.85002">
        <ele>688.689</ele>
        <time>2020-11-20T04:47:45Z</time>
      </trkpt>
      <trkpt lat="45.86873" lon="2.85076">
        <ele>696.206</ele>
        <time>2020-11-20T04:48:05Z</time>
      </trkpt>
      <trkpt lat="45.86896" lon="2.85099">
        <ele>703.326</ele>
        <time>2020-11-20T04:48:25Z</time>
      </trkpt>
      <trkpt lat="45.86907" lon="2.85138">
        <ele>706.208</ele>
        <time>2020-11-20T04:48:45Z</time>
      </trkpt>
      <trkpt lat="45.8695" lon="2.85185">
        <ele>719.374</ele>
        <time>2020-11-20T04:49:05Z</time>
      </trkpt>
      <trkpt lat="45.86961" lon="2.85216">
        <ele>725.888</ele>
        <time>2020-11-20T04:49:25Z</time>
      </trkpt>
      <trkpt lat="45.86983" lon="2.85241">
        <ele>734.135</ele>
        <time>2020-11-20T04:49:45Z</time>
      </trkpt>
      <trkpt lat="45.86994" lon="2.85273">
        <ele>738.728</ele>
        <time>2020-11-20T04:50:05Z</time>
      </trkpt>
      <trkpt lat="45.8705" lon="2.85332">
        <ele>749.259</ele>
        <time>2020-11-20T04:50:25Z</time>
      </trkpt>
      <trkpt lat="45.87067" lon="2.85392">
        <ele>756.232</ele>
        <time>2020-11-20T04:50:45Z</time>
      </trkpt>
      <trkpt lat="45.87053" lon="2.85523">
        <ele>762.268</ele>
        <time>2020-11-20T04:51:05Z</time>
      </trkpt>
      <trkpt lat="45.87067" lon="2.85572">
        <ele>766.732</ele>
        <time>2020-11-20T04:51:25Z</time>
      </trkpt>
      <trkpt lat="45.87054" lon="2.85645">
        <ele>766.341</ele>
        <time>2020-11-20T04:51:45Z</time>
      </trkpt>
      <trkpt lat="45.87" lon="2.85752">
        <ele>769.181</ele>
        <time>2020-11-20T04:52:05Z</time>
      </trkpt>
      <trkpt lat="45.8696" lon="2.85785">
        <ele>762.409</ele>
        <time>2020-11-20T04:52:25Z</time>
      </trkpt>
      <trkpt lat="45.86918" lon="2.85786">
        <ele>760.208</ele>
        <time>2020-11-20T04:52:45Z</time>
      </trkpt>
      <trkpt lat="45.86877" lon="2.85761">
        <ele>761.59</ele>
        <time>2020-11-20T04:53:05Z</time>
      </trkpt>
      <trkpt lat="45.86834" lon="2.8576">
        <ele>765.654</ele>
        <time>2020-11-20T04:53:25Z</time>
      </trkpt>
      <trkpt lat="45.86809" lon="2.85745">
        <ele>767.671</ele>
        <time>2020-11-20T04:53:45Z</time>
      </trkpt>
      <trkpt lat="45.86803" lon="2.85758">
        <ele>768.574</ele>
        <time>2017-03-24T16:12:15Z</time>
      </trkpt>
      <trkpt lat="45.8682" lon="2.85851">
        <ele>772.775</ele>
        <time>2017-03-24T16:12:35Z</time>
      </trkpt>
      <trkpt lat="45.86847" lon="2.85946">
        <ele>774.098</ele>
        <time>2017-03-24T16:12:55Z</time>
      </trkpt>
      <trkpt lat="45.86866" lon="2.85967">
        <ele>774.384</ele>
        <time>2017-03-24T16:13:15Z</time>
      </trkpt>
      <trkpt lat="45.86951" lon="2.85994">
        <ele>781.868</ele>
        <time>2017-03-24T16:13:35Z</time>
      </trkpt>
      <trkpt lat="45.86973" lon="2.86027">
        <ele>784.022</ele>
        <time>2017-03-24T16:13:55Z</time>
      </trkpt>
      <trkpt lat="45.86979" lon="2.8609">
        <ele>788.562</ele>
        <time>2017-03-24T16:14:15Z</time>
      </trkpt>
      <trkpt lat="45.86996" lon="2.86135">
        <ele>788.908</ele>
        <time>2017-03-24T16:14:35Z</time>
      </trkpt>
      <trkpt lat="45.87019" lon="2.86165">
        <ele>790.408</ele>
        <time>2017-03-24T16:14:55Z</time>
      </trkpt>
      <trkpt lat="45.87027" lon="2.86207">
        <ele>790.418</ele>
        <time>2017-03-24T16:15:15Z</time>
      </trkpt>
      <trkpt lat="45.87025" lon="2.86268">
        <ele>787.222</ele>
        <time>2017-03-24T16:15:35Z</time>
      </trkpt>
      <trkpt lat="45.87005" lon="2.86327">
        <ele>785.819</ele>
        <time>2017-03-24T16:15:55Z</time>
      </trkpt>
      <trkpt lat="45.86928" lon="2.8643">
        <ele>784.292</ele>
        <time>2017-03-24T16:16:15Z</time>
      </trkpt>
      <trkpt lat="45.86913" lon="2.86459">
        <ele>787.043</ele>
        <time>2017-03-24T16:16:35Z</time>
      </trkpt>
      <trkpt lat="45.86899" lon="2.86477">
        <ele>788.246</ele>
        <time>2017-03-24T16:16:55Z</time>
      </trkpt>
      <trkpt lat="45.8688" lon="2.86574">
        <ele>791.692</ele>
        <time>2017-03-24T16:17:15Z</time>
      </trkpt>
      <trkpt lat="45.86882" lon="2.8663">
        <ele>789.496</ele>
        <time>2017-03-24T16:17:35Z</time>
      </trkpt>
      <trkpt lat="45.86898" lon="2.86688">
        <ele>789.271</ele>
        <time>2017-03-24T16:17:55Z</time>
      </trkpt>
      <trkpt lat="45.86906" lon="2.86747">
        <ele>791.241</ele>
        <time>2017-03-24T16:18:15Z</time>
      </trkpt>
      <trkpt lat="45.86893" lon="2.86803">
        <ele>792.315</ele>
        <time>2017-03-24T16:18:35Z</time>
      </trkpt>
      <trkpt lat="45.86887" lon="2.8687">
        <ele>792.808</ele>
        <time>2017-03-24T16:18:55Z</time>
      </trkpt>
      <trkpt lat="45.86886" lon="2.86985">
        <ele>793.523</ele>
        <time>2017-03-24T16:19:15Z</time>
      </trkpt>
      <trkpt lat="45.86879" lon="2.87033">
        <ele>793.247</ele>
        <time>2017-03-24T16:19:35Z</time>
      </trkpt>
      <trkpt lat="45.86877" lon="2.87103">
        <ele>795.584</ele>
        <time>2017-03-24T16:19:55Z</time>
      </trkpt>
      <trkpt lat="45.86852" lon="2.87158">
        <ele>796.297</ele>
        <time>2017-03-24T16:20:15Z</time>
      </trkpt>
      <trkpt lat="45.86831" lon="2.8718">
        <ele>797.628</ele>
        <time>2017-03-24T16:20:35Z</time>
      </trkpt>
      <trkpt lat="45.8678" lon="2.87155">
        <ele>799.551</ele>
        <time>2017-03-24T16:20:55Z</time>
      </trkpt>
      <trkpt lat="45.86663" lon="2.87165">
        <ele>803.987</ele>
        <time>2017-03-24T16:21:15Z</time>
      </trkpt>
      <trkpt lat="45.86645" lon="2.87182">
        <ele>805.961</ele>
        <time>2017-03-24T16:21:35Z</time>
      </trkpt>
      <trkpt lat="45.86642" lon="2.87231">
        <ele>808.447</ele>
        <time>2017-03-24T16:21:55Z</time>
      </trkpt>
      <trkpt lat="45.86659" lon="2.87435">
        <ele>817.629</ele>
        <time>2017-03-24T16:22:15Z</time>
      </trkpt>
      <trkpt lat="45.86689" lon="2.8759">
        <ele>821.721</ele>
        <time>2017-03-24T16:22:35Z</time>
      </trkpt>
      <trkpt lat="45.86697" lon="2.87794">
        <ele>819.808</ele>
        <time>2017-03-24T16:22:55Z</time>
      </trkpt>
      <trkpt lat="45.86694" lon="2.87873">
        <ele>819.95</ele>
        <time>2017-03-24T16:23:15Z</time>
      </trkpt>
      <trkpt lat="45.86674" lon="2.87986">
        <ele>823.294</ele>
        <time>2017-03-24T16:23:35Z</time>
      </trkpt>
      <trkpt lat="45.86655" lon="2.88034">
        <ele>823.521</ele>
        <time>2017-03-24T16:23:55Z</time>
      </trkpt>
      <trkpt lat="45.86654" lon="2.8812">
        <ele>821.844</ele>
        <time>2017-03-24T16:24:15Z</time>
      </trkpt>
      <trkpt lat="45.86647" lon="2.88171">
        <ele>819.285</ele>
        <time>2017-03-24T16:24:35Z</time>
      </trkpt>
      <trkpt lat="45.86629" lon="2.88205">
        <ele>816.688</ele>
        <time>2017-03-24T16:24:55Z</time>
      </trkpt>
      <trkpt lat="45.86573" lon="2.88226">
        <ele>809.674</ele>
        <time>2017-03-24T16:25:15Z</time>
      </trkpt>
      <trkpt lat="45.86538" lon="2.88194">
        <ele>807.568</ele>
        <time>2017-03-24T16:25:35Z</time>
      </trkpt>
      <trkpt lat="45.86534" lon="2.88237">
        <ele>804.763</ele>
        <time>2017-03-24T16:25:55Z</time>
      </trkpt>
      <trkpt lat="45.8654" lon="2.88271">
        <ele>803.144</ele>
        <time>2017-03-24T16:26:15Z</time>
      </trkpt>
      <trkpt lat="45.86571" lon="2.88337">
        <ele>802.518</ele>
        <time>2017-03-24T16:26:35Z</time>
      </trkpt>
      <trkpt lat="45.86578" lon="2.88381">
        <ele>801.808</ele>
        <time>2017-03-24T16:26:55Z</time>
      </trkpt>
      <trkpt lat="45.8658" lon="2.88431">
        <ele>801.772</ele>
        <time>2017-03-24T16:27:15Z</time>
      </trkpt>
      <trkpt lat="45.86568" lon="2.88501">
        <ele>797.856</ele>
        <time>2017-03-24T16:27:35Z</time>
      </trkpt>
      <trkpt lat="45.86548" lon="2.88532">
        <ele>796.343</ele>
        <time>2017-03-24T16:27:55Z</time>
      </trkpt>
      <trkpt lat="45.86522" lon="2.88551">
        <ele>794.246</ele>
        <time>2017-03-24T16:28:15Z</time>
      </trkpt>
      <trkpt lat="45.86416" lon="2.88623">
        <ele>785.057</ele>
        <time>2017-03-24T16:28:35Z</time>
      </trkpt>
      <trkpt lat="45.86393" lon="2.8866">
        <ele>781.64</ele>
        <time>2017-03-24T16:28:55Z</time>
      </trkpt>
      <trkpt lat="45.86365" lon="2.88681">
        <ele>781.036</ele>
        <time>2017-03-24T16:29:15Z</time>
      </trkpt>
      <trkpt lat="45.86199" lon="2.88869">
        <ele>760.94</ele>
        <time>2020-11-20T05:11:25Z</time>
      </trkpt>
      <trkpt lat="45.86144" lon="2.88945">
        <ele>752.617</ele>
        <time>2020-11-20T05:11:45Z</time>
      </trkpt>
      <trkpt lat="45.86105" lon="2.88949">
        <ele>752.987</ele>
        <time>2020-11-20T05:12:05Z</time>
      </trkpt>
      <trkpt lat="45.86052" lon="2.88923">
        <ele>755.715</ele>
        <time>2020-11-20T05:12:25Z</time>
      </trkpt>
      <trkpt lat="45.85934" lon="2.88932">
        <ele>767.508</ele>
        <time>2020-11-20T05:12:45Z</time>
      </trkpt>
      <trkpt lat="45.85879" lon="2.88966">
        <ele>769.147</ele>
        <time>2020-11-20T05:13:05Z</time>
      </trkpt>
      <trkpt lat="45.85835" lon="2.89028">
        <ele>772.961</ele>
        <time>2020-11-20T05:13:25Z</time>
      </trkpt>
      <trkpt lat="45.85764" lon="2.89033">
        <ele>782.718</ele>
        <time>2020-11-20T05:13:45Z</time>
      </trkpt>
      <trkpt lat="45.85663" lon="2.8908">
        <ele>791.231</ele>
        <time>2020-11-20T05:14:05Z</time>
      </trkpt>
      <trkpt lat="45.85564" lon="2.89155">
        <ele>791.712</ele>
        <time>2020-11-20T05:14:25Z</time>
      </trkpt>
      <trkpt lat="45.85481" lon="2.89185">
        <ele>798.035</ele>
        <time>2020-11-20T05:14:45Z</time>
      </trkpt>
      <trkpt lat="45.85383" lon="2.89246">
        <ele>798.311</ele>
        <time>2020-11-20T05:15:05Z</time>
      </trkpt>
      <trkpt lat="45.85236" lon="2.89226">
        <ele>806.855</ele>
        <time>2020-11-20T05:15:25Z</time>
      </trkpt>
      <trkpt lat="45.85128" lon="2.89265">
        <ele>811.631</ele>
        <time>2020-11-20T05:15:45Z</time>
      </trkpt>
      <trkpt lat="45.85053" lon="2.89345">
        <ele>813.761</ele>
        <time>2020-11-20T05:16:05Z</time>
      </trkpt>
      <trkpt lat="45.85041" lon="2.89321">
        <ele>814.507</ele>
        <time>2020-11-20T05:16:25Z</time>
      </trkpt>
      <trkpt lat="45.84888" lon="2.89381">
        <ele>817.308</ele>
        <time>2020-11-20T05:16:45Z</time>
      </trkpt>
      <trkpt lat="45.84885" lon="2.89427">
        <ele>816.589</ele>
        <time>2020-11-20T05:17:05Z</time>
      </trkpt>
      <trkpt lat="45.84821" lon="2.89646">
        <ele>809.143</ele>
        <time>2020-11-20T05:17:25Z</time>
      </trkpt>
      <trkpt lat="45.84849" lon="2.89853">
        <ele>815.66</ele>
        <time>2020-11-20T05:17:45Z</time>
      </trkpt>
      <trkpt lat="45.84789" lon="2.89902">
        <ele>818.033</ele>
        <time>2020-11-20T05:18:05Z</time>
      </trkpt>
      <trkpt lat="45.84731" lon="2.90023">
        <ele>820.334</ele>
        <time>2020-11-20T05:18:25Z</time>
      </trkpt>
      <trkpt lat="45.8456" lon="2.9015">
        <ele>828.227</ele>
        <time>2020-11-20T05:18:45Z</time>
      </trkpt>
      <trkpt lat="45.84629" lon="2.90358">
        <ele>837.023</ele>
        <time>2020-11-20T05:19:05Z</time>
      </trkpt>
      <trkpt lat="45.84638" lon="2.90505">
        <ele>842.257</ele>
        <time>2020-11-20T05:19:25Z</time>
      </trkpt>
      <trkpt lat="45.84613" lon="2.90621">
        <ele>848.372</ele>
        <time>2020-11-20T05:19:45Z</time>
      </trkpt>
      <trkpt lat="45.84627" lon="2.90694">
        <ele>852.013</ele>
        <time>2020-11-20T05:20:05Z</time>
      </trkpt>
      <trkpt lat="45.84618" lon="2.90776">
        <ele>853.214</ele>
        <time>2020-11-20T05:20:25Z</time>
      </trkpt>
      <trkpt lat="45.84647" lon="2.90901">
        <ele>857.608</ele>
        <time>2020-11-20T05:20:45Z</time>
      </trkpt>
      <trkpt lat="45.84633" lon="2.91056">
        <ele>857.873</ele>
        <time>2020-11-20T05:21:05Z</time>
      </trkpt>
      <trkpt lat="45.84591" lon="2.91228">
        <ele>861.517</ele>
        <time>2020-11-20T05:21:25Z</time>
      </trkpt>
      <trkpt lat="45.8458" lon="2.91331">
        <ele>864.944</ele>
        <time>2020-11-20T05:21:45Z</time>
      </trkpt>
      <trkpt lat="45.84518" lon="2.91391">
        <ele>869.457</ele>
        <time>2020-11-20T05:22:05Z</time>
      </trkpt>
      <trkpt lat="45.84431" lon="2.91652">
        <ele>873.038</ele>
        <time>2020-11-20T05:22:25Z</time>
      </trkpt>
      <trkpt lat="45.84388" lon="2.91841">
        <ele>866.251</ele>
        <time>2020-11-20T05:22:45Z</time>
      </trkpt>
      <trkpt lat="45.84336" lon="2.92119">
        <ele>873.317</ele>
        <time>2020-11-20T05:23:05Z</time>
      </trkpt>
      <trkpt lat="45.84325" lon="2.92228">
        <ele>875.281</ele>
        <time>2020-11-20T05:23:25Z</time>
      </trkpt>
      <trkpt lat="45.84301" lon="2.92409">
        <ele>878.845</ele>
        <time>2020-11-20T05:23:45Z</time>
      </trkpt>
      <trkpt lat="45.84302" lon="2.92515">
        <ele>877.147</ele>
        <time>2020-11-20T05:24:05Z</time>
      </trkpt>
      <trkpt lat="45.84163" lon="2.92752">
        <ele>881.511</ele>
        <time>2020-11-20T05:24:25Z</time>
      </trkpt>
      <trkpt lat="45.84113" lon="2.92773">
        <ele>883.908</ele>
        <time>2020-11-20T05:24:45Z</time>
      </trkpt>
      <trkpt lat="45.84104" lon="2.92866">
        <ele>886.62</ele>
        <time>2020-11-20T05:25:05Z</time>
      </trkpt>
      <trkpt lat="45.8413" lon="2.92969">
        <ele>892.824</ele>
        <time>2020-11-20T05:25:25Z</time>
      </trkpt>
      <trkpt lat="45.84094" lon="2.92979">
        <ele>894.681</ele>
        <time>2017-03-24T17:04:15Z</time>
      </trkpt>
      <trkpt lat="45.84045" lon="2.93003">
        <ele>899.044</ele>
        <time>2017-03-24T17:04:35Z</time>
      </trkpt>
      <trkpt lat="45.83959" lon="2.93025">
        <ele>901.895</ele>
        <time>2017-03-24T17:04:55Z</time>
      </trkpt>
      <trkpt lat="45.83865" lon="2.93065">
        <ele>906.568</ele>
        <time>2017-03-24T17:05:15Z</time>
      </trkpt>
      <trkpt lat="45.83817" lon="2.93096">
        <ele>910.884</ele>
        <time>2017-03-24T17:05:35Z</time>
      </trkpt>
      <trkpt lat="45.83786" lon="2.93168">
        <ele>908.658</ele>
        <time>2017-03-24T17:05:55Z</time>
      </trkpt>
      <trkpt lat="45.83771" lon="2.93268">
        <ele>908.494</ele>
        <time>2017-03-24T17:06:15Z</time>
      </trkpt>
      <trkpt lat="45.8375" lon="2.93322">
        <ele>909.257</ele>
        <time>2017-03-24T17:06:35Z</time>
      </trkpt>
      <trkpt lat="45.83712" lon="2.9337">
        <ele>912.622</ele>
        <time>2017-03-24T17:06:55Z</time>
      </trkpt>
      <trkpt lat="45.83693" lon="2.93425">
        <ele>921.608</ele>
        <time>2017-03-24T17:07:15Z</time>
      </trkpt>
      <trkpt lat="45.8363" lon="2.93488">
        <ele>922.675</ele>
        <time>2017-03-24T17:07:35Z</time>
      </trkpt>
      <trkpt lat="45.83592" lon="2.93557">
        <ele>926.719</ele>
        <time>2017-03-24T17:07:55Z</time>
      </trkpt>
      <trkpt lat="45.83551" lon="2.93679">
        <ele>933.066</ele>
        <time>2017-03-24T17:08:15Z</time>
      </trkpt>
      <trkpt lat="45.83523" lon="2.93742">
        <ele>935.039</ele>
        <time>2017-03-24T17:08:35Z</time>
      </trkpt>
      <trkpt lat="45.83488" lon="2.93809">
        <ele>935.09</ele>
        <time>2017-03-24T17:08:55Z</time>
      </trkpt>
      <trkpt lat="45.83469" lon="2.9386">
        <ele>938.143</ele>
        <time>2017-03-24T17:09:15Z</time>
      </trkpt>
      <trkpt lat="45.83432" lon="2.93908">
        <ele>939.469</ele>
        <time>2017-03-24T17:09:35Z</time>
      </trkpt>
      <trkpt lat="45.834" lon="2.93924">
        <ele>941.563</ele>
        <time>2017-03-24T17:09:55Z</time>
      </trkpt>
      <trkpt lat="45.83345" lon="2.93917">
        <ele>944.656</ele>
        <time>2017-03-24T17:10:15Z</time>
      </trkpt>
      <trkpt lat="45.83345" lon="2.93917">
        <ele>944.659</ele>
        <time>2017-03-24T17:10:35Z</time>
      </trkpt>
      <trkpt lat="45.83224" lon="2.94035">
        <ele>951.914</ele>
        <time>2017-03-24T17:10:55Z</time>
      </trkpt>
      <trkpt lat="45.83148" lon="2.94132">
        <ele>955.808</ele>
        <time>2017-03-24T17:11:15Z</time>
      </trkpt>
      <trkpt lat="45.83051" lon="2.94263">
        <ele>961.591</ele>
        <time>2017-03-24T17:11:35Z</time>
      </trkpt>
      <trkpt lat="45.82945" lon="2.94344">
        <ele>968.495</ele>
        <time>2017-03-24T17:11:55Z</time>
      </trkpt>
      <trkpt lat="45.82878" lon="2.94385">
        <ele>972.242</ele>
        <time>2017-03-24T17:12:15Z</time>
      </trkpt>
      <trkpt lat="45.82819" lon="2.94387">
        <ele>978.925</ele>
        <time>2017-03-24T17:12:35Z</time>
      </trkpt>
      <trkpt lat="45.8271" lon="2.94445">
        <ele>983.046</ele>
        <time>2017-03-24T17:12:55Z</time>
      </trkpt>
      <trkpt lat="45.82646" lon="2.94443">
        <ele>982.679</ele>
        <time>2017-03-24T17:13:15Z</time>
      </trkpt>
      <trkpt lat="45.82468" lon="2.94479">
        <ele>989.555</ele>
        <time>2020-11-20T05:35:05Z</time>
      </trkpt>
      <trkpt lat="45.82303" lon="2.94564">
        <ele>992.289</ele>
        <time>2020-11-20T05:35:25Z</time>
      </trkpt>
      <trkpt lat="45.82134" lon="2.94704">
        <ele>985.883</ele>
        <time>2020-11-20T05:35:45Z</time>
      </trkpt>
      <trkpt lat="45.82056" lon="2.94795">
        <ele>981.625</ele>
        <time>2020-11-20T05:36:05Z</time>
      </trkpt>
      <trkpt lat="45.81946" lon="2.94986">
        <ele>972.617</ele>
        <time>2020-11-20T05:36:25Z</time>
      </trkpt>
      <trkpt lat="45.81705" lon="2.95126">
        <ele>961.708</ele>
        <time>2020-11-20T05:36:45Z</time>
      </trkpt>
      <trkpt lat="45.81464" lon="2.95341">
        <ele>953.574</ele>
        <time>2020-11-20T05:37:05Z</time>
      </trkpt>
      <trkpt lat="45.81435" lon="2.95317">
        <ele>958.718</ele>
        <time>2020-11-20T05:37:25Z</time>
      </trkpt>
      <trkpt lat="45.81395" lon="2.95311">
        <ele>959.335</ele>
        <time>2020-11-20T05:37:45Z</time>
      </trkpt>
      <trkpt lat="45.81388" lon="2.95254">
        <ele>958.048</ele>
        <time>2017-03-24T17:36:35Z</time>
      </trkpt>
      <trkpt lat="45.81333" lon="2.95248">
        <ele>962.759</ele>
        <time>2017-03-24T17:36:55Z</time>
      </trkpt>
      <trkpt lat="45.8131" lon="2.95185">
        <ele>956.482</ele>
        <time>2017-03-24T17:37:15Z</time>
      </trkpt>
      <trkpt lat="45.8127" lon="2.95185">
        <ele>962.588</ele>
        <time>2017-03-24T17:37:35Z</time>
      </trkpt>
      <trkpt lat="45.81227" lon="2.95125">
        <ele>965.222</ele>
        <time>2017-03-24T17:37:55Z</time>
      </trkpt>
      <trkpt lat="45.81158" lon="2.9508">
        <ele>968.092</ele>
        <time>2017-03-24T17:38:15Z</time>
      </trkpt>
      <trkpt lat="45.81076" lon="2.95082">
        <ele>960.773</ele>
        <time>2017-03-24T17:38:35Z</time>
      </trkpt>
      <trkpt lat="45.80975" lon="2.95108">
        <ele>964.72</ele>
        <time>2017-03-24T17:38:55Z</time>
      </trkpt>
      <trkpt lat="45.80913" lon="2.95104">
        <ele>966.608</ele>
        <time>2017-03-24T17:39:15Z</time>
      </trkpt>
      <trkpt lat="45.80611" lon="2.95015">
        <ele>953.685</ele>
        <time>2017-03-24T17:39:35Z</time>
      </trkpt>
      <trkpt lat="45.80578" lon="2.95014">
        <ele>955.599</ele>
        <time>2017-03-24T17:39:55Z</time>
      </trkpt>
      <trkpt lat="45.80533" lon="2.94994">
        <ele>954.296</ele>
        <time>2017-03-24T17:40:15Z</time>
      </trkpt>
      <trkpt lat="45.80506" lon="2.95001">
        <ele>956.729</ele>
        <time>2017-03-24T17:40:35Z</time>
      </trkpt>
      <trkpt lat="45.80479" lon="2.95019">
        <ele>957.86</ele>
        <time>2017-03-24T17:40:55Z</time>
      </trkpt>
      <trkpt lat="45.80408" lon="2.95044">
        <ele>959.533</ele>
        <time>2017-03-24T17:41:15Z</time>
      </trkpt>
      <trkpt lat="45.80368" lon="2.95071">
        <ele>968.419</ele>
        <time>2017-03-24T17:41:35Z</time>
      </trkpt>
      <trkpt lat="45.80318" lon="2.95119">
        <ele>978.093</ele>
        <time>2017-03-24T17:41:55Z</time>
      </trkpt>
      <trkpt lat="45.8028" lon="2.95128">
        <ele>980.342</ele>
        <time>2017-03-24T17:42:15Z</time>
      </trkpt>
      <trkpt lat="45.80251" lon="2.95146">
        <ele>981.422</ele>
        <time>2017-03-24T17:42:35Z</time>
      </trkpt>
      <trkpt lat="45.80158" lon="2.95134">
        <ele>993.714</ele>
        <time>2017-03-24T17:42:55Z</time>
      </trkpt>
      <trkpt lat="45.80113" lon="2.95115">
        <ele>996.908</ele>
        <time>2017-03-24T17:43:15Z</time>
      </trkpt>
      <trkpt lat="45.80091" lon="2.95126">
        <ele>997.74</ele>
        <time>2017-03-24T17:43:35Z</time>
      </trkpt>
      <trkpt lat="45.80069" lon="2.951">
        <ele>998.534</ele>
        <time>2017-03-24T17:43:55Z</time>
      </trkpt>
      <trkpt lat="45.80036" lon="2.95088">
        <ele>999.071</ele>
        <time>2017-03-24T17:44:15Z</time>
      </trkpt>
      <trkpt lat="45.79975" lon="2.95081">
        <ele>1007.754</ele>
        <time>2017-03-24T17:44:35Z</time>
      </trkpt>
      <trkpt lat="45.79906" lon="2.95009">
        <ele>1015.735</ele>
        <time>2017-03-24T17:44:55Z</time>
      </trkpt>
      <trkpt lat="45.799" lon="2.94982">
        <ele>1019.748</ele>
        <time>2017-03-24T17:45:15Z</time>
      </trkpt>
      <trkpt lat="45.79845" lon="2.94996">
        <ele>1019.924</ele>
        <time>2017-03-24T17:45:35Z</time>
      </trkpt>
      <trkpt lat="45.7982" lon="2.95025">
        <ele>1014.698</ele>
        <time>2017-03-24T17:45:55Z</time>
      </trkpt>
      <trkpt lat="45.79788" lon="2.95017">
        <ele>1015.623</ele>
        <time>2017-03-24T17:46:15Z</time>
      </trkpt>
      <trkpt lat="45.79654" lon="2.95038">
        <ele>1012.783</ele>
        <time>2017-03-24T17:46:35Z</time>
      </trkpt>
      <trkpt lat="45.79618" lon="2.95052">
        <ele>1012.111</ele>
        <time>2017-03-24T17:46:55Z</time>
      </trkpt>
      <trkpt lat="45.79585" lon="2.95055">
        <ele>1014.808</ele>
        <time>2017-03-24T17:47:15Z</time>
      </trkpt>
      <trkpt lat="45.7956" lon="2.95032">
        <ele>1017.748</ele>
        <time>2017-03-24T17:47:35Z</time>
      </trkpt>
      <trkpt lat="45.79543" lon="2.94972">
        <ele>1016.072</ele>
        <time>2017-03-24T17:47:55Z</time>
      </trkpt>
      <trkpt lat="45.79521" lon="2.94931">
        <ele>1018.979</ele>
        <time>2017-03-24T17:48:15Z</time>
      </trkpt>
      <trkpt lat="45.79475" lon="2.94884">
        <ele>1024.072</ele>
        <time>2017-03-24T17:48:35Z</time>
      </trkpt>
      <trkpt lat="45.79317" lon="2.94669">
        <ele>1031.543</ele>
        <time>2017-03-24T17:48:55Z</time>
      </trkpt>
      <trkpt lat="45.79284" lon="2.94607">
        <ele>1031.646</ele>
        <time>2017-03-24T17:49:15Z</time>
      </trkpt>
      <trkpt lat="45.79211" lon="2.94504">
        <ele>1032.552</ele>
        <time>2017-03-24T17:49:35Z</time>
      </trkpt>
      <trkpt lat="45.79166" lon="2.94456">
        <ele>1036.156</ele>
        <time>2017-03-24T17:49:55Z</time>
      </trkpt>
      <trkpt lat="45.7912" lon="2.94428">
        <ele>1038.874</ele>
        <time>2017-03-24T17:50:15Z</time>
      </trkpt>
      <trkpt lat="45.79083" lon="2.94428">
        <ele>1041.256</ele>
        <time>2017-03-24T17:50:35Z</time>
      </trkpt>
      <trkpt lat="45.79032" lon="2.94408">
        <ele>1044.721</ele>
        <time>2017-03-24T17:50:55Z</time>
      </trkpt>
      <trkpt lat="45.78886" lon="2.94399">
        <ele>1049.008</ele>
        <time>2017-03-24T17:51:15Z</time>
      </trkpt>
      <trkpt lat="45.78828" lon="2.94434">
        <ele>1044.923</ele>
        <time>2017-03-24T17:51:35Z</time>
      </trkpt>
      <trkpt lat="45.78778" lon="2.94452">
        <ele>1043.747</ele>
        <time>2017-03-24T17:51:55Z</time>
      </trkpt>
      <trkpt lat="45.78709" lon="2.94444">
        <ele>1036.684</ele>
        <time>2017-03-24T17:52:15Z</time>
      </trkpt>
      <trkpt lat="45.78649" lon="2.94517">
        <ele>1041.277</ele>
        <time>2017-03-24T17:52:35Z</time>
      </trkpt>
      <trkpt lat="45.78616" lon="2.94587">
        <ele>1044.468</ele>
        <time>2017-03-24T17:52:55Z</time>
      </trkpt>
      <trkpt lat="45.78604" lon="2.94644">
        <ele>1047.261</ele>
        <time>2017-03-24T17:53:15Z</time>
      </trkpt>
      <trkpt lat="45.7862" lon="2.94795">
        <ele>1050.997</ele>
        <time>2017-03-24T17:53:35Z</time>
      </trkpt>
      <trkpt lat="45.78633" lon="2.94841">
        <ele>1052.221</ele>
        <time>2017-03-24T17:53:55Z</time>
      </trkpt>
      <trkpt lat="45.78649" lon="2.94937">
        <ele>1056.632</ele>
        <time>2017-03-24T17:54:15Z</time>
      </trkpt>
      <trkpt lat="45.78623" lon="2.95036">
        <ele>1062.192</ele>
        <time>2017-03-24T17:54:35Z</time>
      </trkpt>
      <trkpt lat="45.7863" lon="2.9511">
        <ele>1065.911</ele>
        <time>2017-03-24T17:54:55Z</time>
      </trkpt>
      <trkpt lat="45.78626" lon="2.95188">
        <ele>1070.208</ele>
        <time>2017-03-24T17:55:15Z</time>
      </trkpt>
      <trkpt lat="45.78607" lon="2.95355">
        <ele>1066.959</ele>
        <time>2017-03-24T17:55:35Z</time>
      </trkpt>
      <trkpt lat="45.7861" lon="2.95406">
        <ele>1067.983</ele>
        <time>2017-03-24T17:55:55Z</time>
      </trkpt>
      <trkpt lat="45.78595" lon="2.95493">
        <ele>1066.57</ele>
        <time>2017-03-24T17:56:15Z</time>
      </trkpt>
      <trkpt lat="45.78584" lon="2.95645">
        <ele>1066.073</ele>
        <time>2017-03-24T17:56:35Z</time>
      </trkpt>
      <trkpt lat="45.78582" lon="2.95853">
        <ele>1072.794</ele>
        <time>2020-11-20T05:58:25Z</time>
      </trkpt>
      <trkpt lat="45.78623" lon="2.96003">
        <ele>1083.537</ele>
        <time>2020-11-20T05:58:45Z</time>
      </trkpt>
      <trkpt lat="45.78508" lon="2.96158">
        <ele>1096.183</ele>
        <time>2020-11-20T05:59:05Z</time>
      </trkpt>
      <trkpt lat="45.7848" lon="2.96208">
        <ele>1105.147</ele>
        <time>2020-11-20T05:59:25Z</time>
      </trkpt>
      <trkpt lat="45.78425" lon="2.96218">
        <ele>1104.468</ele>
        <time>2020-11-20T05:59:45Z</time>
      </trkpt>
      <trkpt lat="45.78377" lon="2.96317">
        <ele>1115.342</ele>
        <time>2020-11-20T06:00:05Z</time>
      </trkpt>
      <trkpt lat="45.78373" lon="2.96432">
        <ele>1119.926</ele>
        <time>2020-11-20T06:00:25Z</time>
      </trkpt>
      <trkpt lat="45.78396" lon="2.96595">
        <ele>1124.208</ele>
        <time>2020-11-20T06:00:45Z</time>
      </trkpt>
      <trkpt lat="45.78328" lon="2.96546">
        <ele>1126.922</ele>
        <time>2020-11-20T06:01:05Z</time>
      </trkpt>
      <trkpt lat="45.78199" lon="2.96569">
        <ele>1150.646</ele>
        <time>2020-11-20T06:01:25Z</time>
      </trkpt>
      <trkpt lat="45.78128" lon="2.96516">
        <ele>1171.953</ele>
        <time>2020-11-20T06:01:45Z</time>
      </trkpt>
      <trkpt lat="45.78042" lon="2.96503">
        <ele>1187.096</ele>
        <time>2020-11-20T06:02:05Z</time>
      </trkpt>
      <trkpt lat="45.77991" lon="2.96468">
        <ele>1193.647</ele>
        <time>2020-11-20T06:02:25Z</time>
      </trkpt>
      <trkpt lat="45.77948" lon="2.96412">
        <ele>1207.59</ele>
        <time>2020-11-20T06:02:45Z</time>
      </trkpt>
      <trkpt lat="45.77747" lon="2.96432">
        <ele>1222.096</ele>
        <time>2020-11-20T06:03:05Z</time>
      </trkpt>
      <trkpt lat="45.77639" lon="2.96479">
        <ele>1244.42</ele>
        <time>2020-11-20T06:03:25Z</time>
      </trkpt>
      <trkpt lat="45.77624" lon="2.9644">
        <ele>1250.598</ele>
        <time>2020-11-20T06:03:45Z</time>
      </trkpt>
      <trkpt lat="45.77568" lon="2.96498">
        <ele>1264.115</ele>
        <time>2020-11-20T06:04:05Z</time>
      </trkpt>
      <trkpt lat="45.77542" lon="2.96455">
        <ele>1275.026</ele>
        <time>2020-11-20T06:04:25Z</time>
      </trkpt>
      <trkpt lat="45.77446" lon="2.96599">
        <ele>1301.908</ele>
        <time>2020-11-20T06:04:45Z</time>
      </trkpt>
      <trkpt lat="45.77362" lon="2.96643">
        <ele>1335.285</ele>
        <time>2020-11-20T06:05:05Z</time>
      </trkpt>
      <trkpt lat="45.7735" lon="2.96629">
        <ele>1345.119</ele>
        <time>2020-11-20T06:05:25Z</time>
      </trkpt>
      <trkpt lat="45.77297" lon="2.96638">
        <ele>1358.556</ele>
        <time>2020-11-20T06:05:45Z</time>
      </trkpt>
      <trkpt lat="45.77242" lon="2.96686">
        <ele>1357.319</ele>
        <time>2020-11-20T06:06:05Z</time>
      </trkpt>
      <trkpt lat="45.77181" lon="2.96677">
        <ele>1367.64</ele>
        <time>2020-11-20T06:06:25Z</time>
      </trkpt>
      <trkpt lat="45.77087" lon="2.96612">
        <ele>1374.933</ele>
        <time>2020-11-20T06:06:45Z</time>
      </trkpt>
      <trkpt lat="45.77057" lon="2.96494">
        <ele>1389.369</ele>
        <time>2020-11-20T06:07:05Z</time>
      </trkpt>
      <trkpt lat="45.7708" lon="2.96317">
        <ele>1413.633</ele>
        <time>2020-11-20T06:07:25Z</time>
      </trkpt>
      <trkpt lat="45.77073" lon="2.96291">
        <ele>1414.352</ele>
        <time>2020-11-20T06:07:45Z</time>
      </trkpt>
      <trkpt lat="45.77084" lon="2.96226">
        <ele>1411.653</ele>
        <time>2020-11-20T06:08:05Z</time>
      </trkpt>
      <trkpt lat="45.77078" lon="2.96203">
        <ele>1410.308</ele>
        <time>2020-11-20T06:08:25Z</time>
      </trkpt>
      <trkpt lat="45.77025" lon="2.9613">
        <ele>1399.908</ele>
        <time>2020-11-20T06:08:45Z</time>
      </trkpt>
      <trkpt lat="45.77005" lon="2.96081">
        <ele>1386.911</ele>
        <time>2020-11-20T06:09:05Z</time>
      </trkpt>
      <trkpt lat="45.7699" lon="2.96086">
        <ele>1381.785</ele>
        <time>2020-11-20T06:09:25Z</time>
      </trkpt>
      <trkpt lat="45.76966" lon="2.96108">
        <ele>1376.572</ele>
        <time>2020-11-20T06:09:45Z</time>
      </trkpt>
      <trkpt lat="45.76934" lon="2.96118">
        <ele>1361.525</ele>
        <time>2020-11-20T06:10:05Z</time>
      </trkpt>
      <trkpt lat="45.76926" lon="2.96101">
        <ele>1354.596</ele>
        <time>2020-11-20T06:10:25Z</time>
      </trkpt>
      <trkpt lat="45.76932" lon="2.96084">
        <ele>1356.719</ele>
        <time>2020-11-20T06:10:45Z</time>
      </trkpt>
      <trkpt lat="45.76971" lon="2.96043">
        <ele>1360.095</ele>
        <time>2020-11-20T06:11:05Z</time>
      </trkpt>
      <trkpt lat="45.76979" lon="2.95997">
        <ele>1344.299</ele>
        <time>2020-11-20T06:11:25Z</time>
      </trkpt>
      <trkpt lat="45.76957" lon="2.96022">
        <ele>1344.132</ele>
        <time>2020-11-20T06:11:45Z</time>
      </trkpt>
      <trkpt lat="45.76942" lon="2.96028">
        <ele>1340.992</ele>
        <time>2020-11-20T06:12:05Z</time>
      </trkpt>
      <trkpt lat="45.76938" lon="2.96022">
        <ele>1335.511</ele>
        <time>2020-11-20T06:12:25Z</time>
      </trkpt>
      <trkpt lat="45.76955" lon="2.9599">
        <ele>1326.308</ele>
        <time>2020-11-20T06:12:45Z</time>
      </trkpt>
      <trkpt lat="45.76944" lon="2.95988">
        <ele>1318.829</ele>
        <time>2020-11-20T06:13:05Z</time>
      </trkpt>
      <trkpt lat="45.76926" lon="2.96009">
        <ele>1322.273</ele>
        <time>2020-11-20T06:13:25Z</time>
      </trkpt>
      <trkpt lat="45.76921" lon="2.96001">
        <ele>1315.53</ele>
        <time>2020-11-20T06:13:45Z</time>
      </trkpt>
      <trkpt lat="45.76956" lon="2.95939">
        <ele>1304.843</ele>
        <time>2020-11-20T06:14:05Z</time>
      </trkpt>
      <trkpt lat="45.76938" lon="2.95941">
        <ele>1295.094</ele>
        <time>2020-11-20T06:14:25Z</time>
      </trkpt>
      <trkpt lat="45.76891" lon="2.95979">
        <ele>1292.667</ele>
        <time>2020-11-20T06:14:45Z</time>
      </trkpt>
      <trkpt lat="45.76869" lon="2.95984">
        <ele>1282.763</ele>
        <time>2020-11-20T06:15:05Z</time>
      </trkpt>
      <trkpt lat="45.76867" lon="2.95973">
        <ele>1278.447</ele>
        <time>2020-11-20T06:15:25Z</time>
      </trkpt>
      <trkpt lat="45.76888" lon="2.9596">
        <ele>1284.673</ele>
        <time>2020-11-20T06:15:45Z</time>
      </trkpt>
      <trkpt lat="45.76895" lon="2.95938">
        <ele>1278.485</ele>
        <time>2020-11-20T06:16:05Z</time>
      </trkpt>
      <trkpt lat="45.76858" lon="2.95943">
        <ele>1264.013</ele>
        <time>2020-11-20T06:16:25Z</time>
      </trkpt>
      <trkpt lat="45.76805" lon="2.95998">
        <ele>1253.108</ele>
        <time>2020-11-20T06:16:45Z</time>
      </trkpt>
      <trkpt lat="45.76787" lon="2.96027">
        <ele>1254.673</ele>
        <time>2020-11-20T06:17:05Z</time>
      </trkpt>
      <trkpt lat="45.76774" lon="2.9606">
        <ele>1254.757</ele>
        <time>2020-11-20T06:17:25Z</time>
      </trkpt>
      <trkpt lat="45.76767" lon="2.96055">
        <ele>1247.764</ele>
        <time>2020-11-20T06:17:45Z</time>
      </trkpt>
      <trkpt lat="45.76776" lon="2.96001">
        <ele>1235.677</ele>
        <time>2020-11-20T06:18:05Z</time>
      </trkpt>
      <trkpt lat="45.76793" lon="2.9595">
        <ele>1227.248</ele>
        <time>2020-11-20T06:18:25Z</time>
      </trkpt>
      <trkpt lat="45.76781" lon="2.95949">
        <ele>1219.031</ele>
        <time>2020-11-20T06:18:45Z</time>
      </trkpt>
      <trkpt lat="45.76759" lon="2.95988">
        <ele>1216.517</ele>
        <time>2020-11-20T06:19:05Z</time>
      </trkpt>
      <trkpt lat="45.76747" lon="2.96016">
        <ele>1217.951</ele>
        <time>2020-11-20T06:19:25Z</time>
      </trkpt>
      <trkpt lat="45.76725" lon="2.96041">
        <ele>1206.292</ele>
        <time>2020-11-20T06:19:45Z</time>
      </trkpt>
      <trkpt lat="45.76722" lon="2.96034">
        <ele>1201.673</ele>
        <time>2020-11-20T06:20:05Z</time>
      </trkpt>
      <trkpt lat="45.76737" lon="2.95973">
        <ele>1194.72</ele>
        <time>2020-11-20T06:20:25Z</time>
      </trkpt>
      <trkpt lat="45.76734" lon="2.95929">
        <ele>1185.008</ele>
        <time>2020-11-20T06:20:45Z</time>
      </trkpt>
      <trkpt lat="45.7676" lon="2.95867">
        <ele>1185.215</ele>
        <time>2020-11-20T06:21:05Z</time>
      </trkpt>
      <trkpt lat="45.76776" lon="2.95789">
        <ele>1174.979</ele>
        <time>2020-11-20T06:21:25Z</time>
      </trkpt>
      <trkpt lat="45.76766" lon="2.9579">
        <ele>1172.316</ele>
        <time>2020-11-20T06:21:45Z</time>
      </trkpt>
      <trkpt lat="45.76743" lon="2.95811">
        <ele>1168.449</ele>
        <time>2020-11-20T06:22:05Z</time>
      </trkpt>
      <trkpt lat="45.76722" lon="2.95808">
        <ele>1160.29</ele>
        <time>2020-11-20T06:22:25Z</time>
      </trkpt>
      <trkpt lat="45.767" lon="2.95748">
        <ele>1148.863</ele>
        <time>2020-11-20T06:22:45Z</time>
      </trkpt>
      <trkpt lat="45.76653" lon="2.95746">
        <ele>1142.669</ele>
        <time>2020-11-20T06:23:05Z</time>
      </trkpt>
      <trkpt lat="45.76642" lon="2.95766">
        <ele>1141.693</ele>
        <time>2020-11-20T06:23:25Z</time>
      </trkpt>
      <trkpt lat="45.76646" lon="2.95796">
        <ele>1141.675</ele>
        <time>2020-11-20T06:23:45Z</time>
      </trkpt>
      <trkpt lat="45.76628" lon="2.95852">
        <ele>1136.128</ele>
        <time>2020-11-20T06:24:05Z</time>
      </trkpt>
      <trkpt lat="45.76618" lon="2.95853">
        <ele>1133.12</ele>
        <time>2020-11-20T06:24:25Z</time>
      </trkpt>
      <trkpt lat="45.76584" lon="2.95805">
        <ele>1127.208</ele>
        <time>2020-11-20T06:24:45Z</time>
      </trkpt>
      <trkpt lat="45.76532" lon="2.95788">
        <ele>1119.043</ele>
        <time>2020-11-20T06:25:05Z</time>
      </trkpt>
      <trkpt lat="45.7651" lon="2.95759">
        <ele>1114.317</ele>
        <time>2020-11-20T06:25:25Z</time>
      </trkpt>
      <trkpt lat="45.76498" lon="2.95709">
        <ele>1107.054</ele>
        <time>2020-11-20T06:25:45Z</time>
      </trkpt>
      <trkpt lat="45.76496" lon="2.9564">
        <ele>1099.097</ele>
        <time>2020-11-20T06:26:05Z</time>
      </trkpt>
      <trkpt lat="45.76498" lon="2.95606">
        <ele>1095.648</ele>
        <time>2020-11-20T06:26:25Z</time>
      </trkpt>
      <trkpt lat="45.76475" lon="2.9558">
        <ele>1088.091</ele>
        <time>2020-11-20T06:26:45Z</time>
      </trkpt>
      <trkpt lat="45.76444" lon="2.95557">
        <ele>1082.027</ele>
        <time>2020-11-20T06:27:05Z</time>
      </trkpt>
      <trkpt lat="45.76439" lon="2.95535">
        <ele>1080.521</ele>
        <time>2020-11-20T06:27:25Z</time>
      </trkpt>
      <trkpt lat="45.76393" lon="2.95553">
        <ele>1081.159</ele>
        <time>2020-11-20T06:27:45Z</time>
      </trkpt>
      <trkpt lat="45.76384" lon="2.9562">
        <ele>1076.203</ele>
        <time>2020-11-20T06:28:05Z</time>
      </trkpt>
      <trkpt lat="45.76312" lon="2.95671">
        <ele>1068.823</ele>
        <time>2020-11-20T06:28:25Z</time>
      </trkpt>
      <trkpt lat="45.76284" lon="2.95711">
        <ele>1064.008</ele>
        <time>2020-11-20T06:28:45Z</time>
      </trkpt>
      <trkpt lat="45.76226" lon="2.95761">
        <ele>1061.981</ele>
        <time>2020-11-20T06:29:05Z</time>
      </trkpt>
      <trkpt lat="45.76202" lon="2.95762">
        <ele>1062.195</ele>
        <time>2020-11-20T06:29:25Z</time>
      </trkpt>
      <trkpt lat="45.76182" lon="2.95746">
        <ele>1065.482</ele>
        <time>2020-11-20T06:29:45Z</time>
      </trkpt>
      <trkpt lat="45.7613" lon="2.95758">
        <ele>1067.235</ele>
        <time>2020-11-20T06:30:05Z</time>
      </trkpt>
      <trkpt lat="45.7611" lon="2.95776">
        <ele>1065.366</ele>
        <time>2020-11-20T06:30:25Z</time>
      </trkpt>
      <trkpt lat="45.76035" lon="2.95769">
        <ele>1071.459</ele>
        <time>2020-11-20T06:30:45Z</time>
      </trkpt>
      <trkpt lat="45.75995" lon="2.95773">
        <ele>1071.955</ele>
        <time>2020-11-20T06:31:05Z</time>
      </trkpt>
      <trkpt lat="45.76007" lon="2.95832">
        <ele>1062.919</ele>
        <time>2020-11-20T06:31:25Z</time>
      </trkpt>
      <trkpt lat="45.75993" lon="2.95874">
        <ele>1055.139</ele>
        <time>2020-11-20T06:31:45Z</time>
      </trkpt>
      <trkpt lat="45.75916" lon="2.95885">
        <ele>1048.901</ele>
        <time>2020-11-20T06:32:05Z</time>
      </trkpt>
      <trkpt lat="45.75662" lon="2.95691">
        <ele>1044.421</ele>
        <time>2020-11-20T06:32:25Z</time>
      </trkpt>
      <trkpt lat="45.75673" lon="2.95762">
        <ele>1033.708</ele>
        <time>2020-11-20T06:32:45Z</time>
      </trkpt>
      <trkpt lat="45.75654" lon="2.95817">
        <ele>1023.239</ele>
        <time>2020-11-20T06:33:05Z</time>
      </trkpt>
      <trkpt lat="45.75561" lon="2.95925">
        <ele>1001.023</ele>
        <time>2020-11-20T06:33:25Z</time>
      </trkpt>
      <trkpt lat="45.75516" lon="2.95945">
        <ele>997.16</ele>
        <time>2020-11-20T06:33:45Z</time>
      </trkpt>
      <trkpt lat="45.75441" lon="2.96015">
        <ele>988.383</ele>
        <time>2020-11-20T06:34:05Z</time>
      </trkpt>
      <trkpt lat="45.75416" lon="2.96135">
        <ele>983.134</ele>
        <time>2020-11-20T06:34:25Z</time>
      </trkpt>
      <trkpt lat="45.75386" lon="2.96177">
        <ele>976.797</ele>
        <time>2020-11-20T06:34:45Z</time>
      </trkpt>
      <trkpt lat="45.75339" lon="2.96209">
        <ele>974.433</ele>
        <time>2020-11-20T06:35:05Z</time>
      </trkpt>
      <trkpt lat="45.75298" lon="2.96227">
        <ele>973.847</ele>
        <time>2020-11-20T06:35:25Z</time>
      </trkpt>
      <trkpt lat="45.75287" lon="2.96347">
        <ele>972.599</ele>
        <time>2020-11-20T06:35:45Z</time>
      </trkpt>
      <trkpt lat="45.75278" lon="2.967">
        <ele>956.607</ele>
        <time>2020-11-20T06:36:05Z</time>
      </trkpt>
      <trkpt lat="45.75278" lon="2.96732">
        <ele>955.427</ele>
        <time>2020-11-20T06:36:25Z</time>
      </trkpt>
      <trkpt lat="45.75287" lon="2.96756">
        <ele>957.408</ele>
        <time>2020-11-20T06:36:45Z</time>
      </trkpt>
      <trkpt lat="45.75281" lon="2.96792">
        <ele>959.675</ele>
        <time>2020-11-20T06:37:05Z</time>
      </trkpt>
      <trkpt lat="45.75238" lon="2.96787">
        <ele>958.759</ele>
        <time>2020-11-20T06:37:25Z</time>
      </trkpt>
      <trkpt lat="45.75155" lon="2.96803">
        <ele>958.096</ele>
        <time>2017-03-24T18:16:55Z</time>
      </trkpt>
      <trkpt lat="45.74945" lon="2.96859">
        <ele>949.139</ele>
        <time>2017-03-24T18:17:15Z</time>
      </trkpt>
      <trkpt lat="45.74852" lon="2.96888">
        <ele>946.78</ele>
        <time>2017-03-24T18:17:35Z</time>
      </trkpt>
      <trkpt lat="45.74614" lon="2.97006">
        <ele>951.533</ele>
        <time>2017-03-24T18:17:55Z</time>
      </trkpt>
      <trkpt lat="45.74606" lon="2.97025">
        <ele>950.669</ele>
        <time>2017-03-24T18:18:15Z</time>
      </trkpt>
      <trkpt lat="45.74507" lon="2.96987">
        <ele>957.093</ele>
        <time>2017-03-24T18:18:35Z</time>
      </trkpt>
      <trkpt lat="45.74386" lon="2.96928">
        <ele>965.348</ele>
        <time>2017-03-24T18:18:55Z</time>
      </trkpt>
      <trkpt lat="45.74298" lon="2.96896">
        <ele>962.561</ele>
        <time>2017-03-24T18:19:15Z</time>
      </trkpt>
      <trkpt lat="45.74278" lon="2.96874">
        <ele>962.617</ele>
        <time>2017-03-24T18:19:35Z</time>
      </trkpt>
      <trkpt lat="45.74168" lon="2.96782">
        <ele>967.708</ele>
        <time>2017-03-24T18:19:55Z</time>
      </trkpt>
      <trkpt lat="45.74141" lon="2.96775">
        <ele>967.31</ele>
        <time>2017-03-24T18:20:15Z</time>
      </trkpt>
      <trkpt lat="45.74093" lon="2.9667">
        <ele>973.434</ele>
        <time>2017-03-24T18:20:35Z</time>
      </trkpt>
      <trkpt lat="45.74072" lon="2.96678">
        <ele>973.571</ele>
        <time>2017-03-24T18:20:55Z</time>
      </trkpt>
      <trkpt lat="45.74035" lon="2.9665">
        <ele>976.434</ele>
        <time>2017-03-24T18:21:15Z</time>
      </trkpt>
      <trkpt lat="45.74025" lon="2.96627">
        <ele>977.835</ele>
        <time>2017-03-24T18:21:35Z</time>
      </trkpt>
      <trkpt lat="45.73984" lon="2.96611">
        <ele>983.578</ele>
        <time>2017-03-24T18:21:55Z</time>
      </trkpt>
      <trkpt lat="45.73979" lon="2.9662">
        <ele>984.474</ele>
        <time>2017-03-24T18:22:15Z</time>
      </trkpt>
      <trkpt lat="45.73951" lon="2.96603">
        <ele>989.148</ele>
        <time>2017-03-24T18:22:35Z</time>
      </trkpt>
      <trkpt lat="45.73852" lon="2.96583">
        <ele>992.082</ele>
        <time>2017-03-24T18:22:55Z</time>
      </trkpt>
      <trkpt lat="45.73811" lon="2.96563">
        <ele>992.043</ele>
        <time>2017-03-24T18:23:15Z</time>
      </trkpt>
      <trkpt lat="45.73693" lon="2.96476">
        <ele>996.817</ele>
        <time>2017-03-24T18:23:35Z</time>
      </trkpt>
      <trkpt lat="45.73521" lon="2.9637">
        <ele>1000.408</ele>
        <time>2017-03-24T18:23:55Z</time>
      </trkpt>
      <trkpt lat="45.73368" lon="2.96309">
        <ele>1004.884</ele>
        <time>2017-03-24T18:24:15Z</time>
      </trkpt>
      <trkpt lat="45.73291" lon="2.96271">
        <ele>1005.498</ele>
        <time>2017-03-24T18:24:35Z</time>
      </trkpt>
      <trkpt lat="45.73134" lon="2.96165">
        <ele>1018.375</ele>
        <time>2017-03-24T18:24:55Z</time>
      </trkpt>
      <trkpt lat="45.73098" lon="2.96159">
        <ele>1019.878</ele>
        <time>2017-03-24T18:25:15Z</time>
      </trkpt>
      <trkpt lat="45.73067" lon="2.96135">
        <ele>1024.759</ele>
        <time>2017-03-24T18:25:35Z</time>
      </trkpt>
      <trkpt lat="45.73008" lon="2.96078">
        <ele>1032.092</ele>
        <time>2017-03-24T18:25:55Z</time>
      </trkpt>
      <trkpt lat="45.72994" lon="2.96033">
        <ele>1036.668</ele>
        <time>2017-03-24T18:26:15Z</time>
      </trkpt>
      <trkpt lat="45.72975" lon="2.95997">
        <ele>1039.232</ele>
        <time>2017-03-24T18:26:35Z</time>
      </trkpt>
      <trkpt lat="45.72944" lon="2.95961">
        <ele>1044.211</ele>
        <time>2017-03-24T18:26:55Z</time>
      </trkpt>
      <trkpt lat="45.72874" lon="2.95898">
        <ele>1051.921</ele>
        <time>2017-03-24T18:27:15Z</time>
      </trkpt>
      <trkpt lat="45.72845" lon="2.95849">
        <ele>1054.403</ele>
        <time>2017-03-24T18:27:35Z</time>
      </trkpt>
      <trkpt lat="45.72833" lon="2.9581">
        <ele>1056.708</ele>
        <time>2017-03-24T18:27:55Z</time>
      </trkpt>
      <trkpt lat="45.72726" lon="2.95653">
        <ele>1065.067</ele>
        <time>2017-03-24T18:28:15Z</time>
      </trkpt>
      <trkpt lat="45.72589" lon="2.95642">
        <ele>1069.861</ele>
        <time>2017-03-24T18:28:35Z</time>
      </trkpt>
      <trkpt lat="45.72469" lon="2.95522">
        <ele>1080.168</ele>
        <time>2017-03-24T18:28:55Z</time>
      </trkpt>
      <trkpt lat="45.72432" lon="2.95492">
        <ele>1078.541</ele>
        <time>2017-03-24T18:29:15Z</time>
      </trkpt>
      <trkpt lat="45.72414" lon="2.95458">
        <ele>1080.812</ele>
        <time>2017-03-24T18:29:35Z</time>
      </trkpt>
      <trkpt lat="45.72344" lon="2.95364">
        <ele>1088.985</ele>
        <time>2017-03-24T18:29:55Z</time>
      </trkpt>
      <trkpt lat="45.72247" lon="2.95255">
        <ele>1096.711</ele>
        <time>2017-03-24T18:30:15Z</time>
      </trkpt>
      <trkpt lat="45.72224" lon="2.95238">
        <ele>1096.195</ele>
        <time>2017-03-24T18:30:35Z</time>
      </trkpt>
      <trkpt lat="45.72217" lon="2.95211">
        <ele>1096.748</ele>
        <time>2017-03-24T18:30:55Z</time>
      </trkpt>
      <trkpt lat="45.72187" lon="2.95213">
        <ele>1096.461</ele>
        <time>2017-03-24T18:31:15Z</time>
      </trkpt>
      <trkpt lat="45.71887" lon="2.9504">
        <ele>1079.917</ele>
        <time>2017-03-24T18:31:35Z</time>
      </trkpt>
      <trkpt lat="45.71784" lon="2.94947">
        <ele>1080.308</ele>
        <time>2017-03-24T18:31:55Z</time>
      </trkpt>
      <trkpt lat="45.71722" lon="2.94911">
        <ele>1077.63</ele>
        <time>2017-03-24T18:32:15Z</time>
      </trkpt>
      <trkpt lat="45.71553" lon="2.94843">
        <ele>1069.774</ele>
        <time>2017-03-24T18:32:35Z</time>
      </trkpt>
      <trkpt lat="45.71442" lon="2.94804">
        <ele>1061.771</ele>
        <time>2017-03-24T18:32:55Z</time>
      </trkpt>
      <trkpt lat="45.71369" lon="2.94728">
        <ele>1054.314</ele>
        <time>2017-03-24T18:33:15Z</time>
      </trkpt>
      <trkpt lat="45.71319" lon="2.94706">
        <ele>1054.745</ele>
        <time>2017-03-24T18:33:35Z</time>
      </trkpt>
      <trkpt lat="45.71216" lon="2.94629">
        <ele>1052.338</ele>
        <time>2017-03-24T18:33:55Z</time>
      </trkpt>
      <trkpt lat="45.71109" lon="2.94452">
        <ele>1049.644</ele>
        <time>2017-03-24T18:34:15Z</time>
      </trkpt>
      <trkpt lat="45.71092" lon="2.94418">
        <ele>1049.618</ele>
        <time>2017-03-24T18:34:35Z</time>
      </trkpt>
      <trkpt lat="45.71081" lon="2.9437">
        <ele>1048.036</ele>
        <time>2017-03-24T18:34:55Z</time>
      </trkpt>
      <trkpt lat="45.71046" lon="2.94304">
        <ele>1043.717</ele>
        <time>2017-03-24T18:35:15Z</time>
      </trkpt>
      <trkpt lat="45.71036" lon="2.94333">
        <ele>1043.618</ele>
        <time>2017-03-24T18:35:35Z</time>
      </trkpt>
      <trkpt lat="45.71008" lon="2.94365">
        <ele>1046.308</ele>
        <time>2017-03-24T18:35:55Z</time>
      </trkpt>
      <trkpt lat="45.71" lon="2.94412">
        <ele>1048.069</ele>
        <time>2017-03-24T18:36:15Z</time>
      </trkpt>
      <trkpt lat="45.70984" lon="2.94464">
        <ele>1048.763</ele>
        <time>2017-03-24T18:36:35Z</time>
      </trkpt>
      <trkpt lat="45.70864" lon="2.94673">
        <ele>1050.01</ele>
        <time>2017-03-24T18:36:55Z</time>
      </trkpt>
      <trkpt lat="45.70732" lon="2.94853">
        <ele>1048.083</ele>
        <time>2017-03-24T18:37:15Z</time>
      </trkpt>
      <trkpt lat="45.70711" lon="2.94913">
        <ele>1046.794</ele>
        <time>2017-03-24T18:37:35Z</time>
      </trkpt>
      <trkpt lat="45.70675" lon="2.95006">
        <ele>1041.857</ele>
        <time>2017-03-24T18:37:55Z</time>
      </trkpt>
      <trkpt lat="45.70672" lon="2.95133">
        <ele>1042.263</ele>
        <time>2017-03-24T18:38:15Z</time>
      </trkpt>
      <trkpt lat="45.70643" lon="2.95231">
        <ele>1037.167</ele>
        <time>2017-03-24T18:38:35Z</time>
      </trkpt>
      <trkpt lat="45.70601" lon="2.95297">
        <ele>1029.988</ele>
        <time>2017-03-24T18:38:55Z</time>
      </trkpt>
      <trkpt lat="45.70558" lon="2.95337">
        <ele>1022.824</ele>
        <time>2017-03-24T18:39:15Z</time>
      </trkpt>
      <trkpt lat="45.70486" lon="2.95424">
        <ele>1010.326</ele>
        <time>2017-03-24T18:39:35Z</time>
      </trkpt>
      <trkpt lat="45.70471" lon="2.95468">
        <ele>1007.208</ele>
        <time>2017-03-24T18:39:55Z</time>
      </trkpt>
      <trkpt lat="45.70463" lon="2.95536">
        <ele>1003.694</ele>
        <time>2017-03-24T18:40:15Z</time>
      </trkpt>
      <trkpt lat="45.70442" lon="2.95597">
        <ele>997.928</ele>
        <time>2017-03-24T18:40:35Z</time>
      </trkpt>
      <trkpt lat="45.70423" lon="2.95623">
        <ele>995.965</ele>
        <time>2017-03-24T18:40:55Z</time>
      </trkpt>
      <trkpt lat="45.704" lon="2.95644">
        <ele>995.558</ele>
        <time>2017-03-24T18:41:15Z</time>
      </trkpt>
      <trkpt lat="45.70372" lon="2.95695">
        <ele>992.499</ele>
        <time>2017-03-24T18:41:35Z</time>
      </trkpt>
      <trkpt lat="45.70364" lon="2.95741">
        <ele>993.872</ele>
        <time>2017-03-24T18:41:55Z</time>
      </trkpt>
      <trkpt lat="45.70329" lon="2.95817">
        <ele>994.948</ele>
        <time>2017-03-24T18:42:15Z</time>
      </trkpt>
      <trkpt lat="45.70291" lon="2.95875">
        <ele>993.772</ele>
        <time>2017-03-24T18:42:35Z</time>
      </trkpt>
      <trkpt lat="45.70251" lon="2.95958">
        <ele>995.964</ele>
        <time>2017-03-24T18:42:55Z</time>
      </trkpt>
      <trkpt lat="45.70235" lon="2.9596">
        <ele>995.206</ele>
        <time>2017-03-24T18:43:15Z</time>
      </trkpt>
      <trkpt lat="45.70163" lon="2.96092">
        <ele>996.716</ele>
        <time>2017-03-24T18:43:35Z</time>
      </trkpt>
      <trkpt lat="45.70127" lon="2.96151">
        <ele>998.208</ele>
        <time>2017-03-24T18:43:55Z</time>
      </trkpt>
      <trkpt lat="45.70098" lon="2.9621">
        <ele>999.952</ele>
        <time>2017-03-24T18:44:15Z</time>
      </trkpt>
      <trkpt lat="45.7008" lon="2.96262">
        <ele>1000.866</ele>
        <time>2017-03-24T18:44:35Z</time>
      </trkpt>
      <trkpt lat="45.70066" lon="2.96319">
        <ele>1006.153</ele>
        <time>2017-03-24T18:44:55Z</time>
      </trkpt>
      <trkpt lat="45.7007" lon="2.96389">
        <ele>1004.096</ele>
        <time>2017-03-24T18:45:15Z</time>
      </trkpt>
      <trkpt lat="45.70063" lon="2.96476">
        <ele>997.227</ele>
        <time>2017-03-24T18:45:35Z</time>
      </trkpt>
      <trkpt lat="45.70081" lon="2.96538">
        <ele>992.69</ele>
        <time>2017-03-24T18:45:55Z</time>
      </trkpt>
      <trkpt lat="45.7012" lon="2.96609">
        <ele>987.426</ele>
        <time>2017-03-24T18:46:15Z</time>
      </trkpt>
      <trkpt lat="45.70129" lon="2.9667">
        <ele>984.92</ele>
        <time>2017-03-24T18:46:35Z</time>
      </trkpt>
      <trkpt lat="45.70135" lon="2.96717">
        <ele>984.461</ele>
        <time>2017-03-24T18:46:55Z</time>
      </trkpt>
      <trkpt lat="45.70143" lon="2.96737">
        <ele>984.721</ele>
        <time>2017-03-24T18:47:15Z</time>
      </trkpt>
      <trkpt lat="45.70113" lon="2.96834">
        <ele>981.213</ele>
        <time>2017-03-24T18:47:35Z</time>
      </trkpt>
      <trkpt lat="45.70089" lon="2.96889">
        <ele>981.608</ele>
        <time>2017-03-24T18:47:55Z</time>
      </trkpt>
      <trkpt lat="45.70046" lon="2.97018">
        <ele>982.072</ele>
        <time>2020-11-20T07:09:05Z</time>
      </trkpt>
      <trkpt lat="45.6997" lon="2.972">
        <ele>984.946</ele>
        <time>2020-11-20T07:09:25Z</time>
      </trkpt>
      <trkpt lat="45.69954" lon="2.97281">
        <ele>984.183</ele>
        <time>2020-11-20T07:09:45Z</time>
      </trkpt>
      <trkpt lat="45.69932" lon="2.97373">
        <ele>980.956</ele>
        <time>2020-11-20T07:10:05Z</time>
      </trkpt>
      <trkpt lat="45.69843" lon="2.97623">
        <ele>968.077</ele>
        <time>2020-11-20T07:10:25Z</time>
      </trkpt>
      <trkpt lat="45.69814" lon="2.97766">
        <ele>960.22</ele>
        <time>2020-11-20T07:10:45Z</time>
      </trkpt>
      <trkpt lat="45.69737" lon="2.97931">
        <ele>951.216</ele>
        <time>2020-11-20T07:11:05Z</time>
      </trkpt>
      <trkpt lat="45.69707" lon="2.98074">
        <ele>948.81</ele>
        <time>2020-11-20T07:11:25Z</time>
      </trkpt>
      <trkpt lat="45.69708" lon="2.98134">
        <ele>948.916</ele>
        <time>2020-11-20T07:11:45Z</time>
      </trkpt>
      <trkpt lat="45.69699" lon="2.98253">
        <ele>950.076</ele>
        <time>2020-11-20T07:12:05Z</time>
      </trkpt>
      <trkpt lat="45.69647" lon="2.9846">
        <ele>943.513</ele>
        <time>2020-11-20T07:12:25Z</time>
      </trkpt>
      <trkpt lat="45.69636" lon="2.98529">
        <ele>939.808</ele>
        <time>2020-11-20T07:12:45Z</time>
      </trkpt>
      <trkpt lat="45.69562" lon="2.98858">
        <ele>932.337</ele>
        <time>2020-11-20T07:13:05Z</time>
      </trkpt>
      <trkpt lat="45.69517" lon="2.98946">
        <ele>931.481</ele>
        <time>2020-11-20T07:13:25Z</time>
      </trkpt>
      <trkpt lat="45.69569" lon="2.9912">
        <ele>926.148</ele>
        <time>2020-11-20T07:13:45Z</time>
      </trkpt>
      <trkpt lat="45.69538" lon="2.99208">
        <ele>927.371</ele>
        <time>2020-11-20T07:14:05Z</time>
      </trkpt>
      <trkpt lat="45.69519" lon="2.99302">
        <ele>923.182</ele>
        <time>2020-11-20T07:14:25Z</time>
      </trkpt>
      <trkpt lat="45.69477" lon="2.99376">
        <ele>924.515</ele>
        <time>2020-11-20T07:14:45Z</time>
      </trkpt>
      <trkpt lat="45.6942" lon="2.99442">
        <ele>923.231</ele>
        <time>2020-11-20T07:15:05Z</time>
      </trkpt>
      <trkpt lat="45.69415" lon="2.9956">
        <ele>912.165</ele>
        <time>2020-11-20T07:15:25Z</time>
      </trkpt>
      <trkpt lat="45.6939" lon="2.9956">
        <ele>912.877</ele>
        <time>2020-11-20T07:15:45Z</time>
      </trkpt>
      <trkpt lat="45.69356" lon="2.99484">
        <ele>914.561</ele>
        <time>2020-11-20T07:16:05Z</time>
      </trkpt>
      <trkpt lat="45.6931" lon="2.99452">
        <ele>915.127</ele>
        <time>2020-11-20T07:16:25Z</time>
      </trkpt>
      <trkpt lat="45.69264" lon="2.99389">
        <ele>915.908</ele>
        <time>2020-11-20T07:16:45Z</time>
      </trkpt>
      <trkpt lat="45.692" lon="2.99229">
        <ele>915.843</ele>
        <time>2020-11-20T07:17:05Z</time>
      </trkpt>
      <trkpt lat="45.69193" lon="2.991">
        <ele>916.227</ele>
        <time>2020-11-20T07:17:25Z</time>
      </trkpt>
      <trkpt lat="45.69103" lon="2.9895">
        <ele>915.344</ele>
        <time>2020-11-20T07:17:45Z</time>
      </trkpt>
      <trkpt lat="45.69103" lon="2.98849">
        <ele>917.417</ele>
        <time>2020-11-20T07:18:05Z</time>
      </trkpt>
      <trkpt lat="45.6913" lon="2.98776">
        <ele>915.428</ele>
        <time>2020-11-20T07:18:25Z</time>
      </trkpt>
      <trkpt lat="45.69049" lon="2.98755">
        <ele>919.841</ele>
        <time>2020-11-20T07:18:45Z</time>
      </trkpt>
      <trkpt lat="45.69025" lon="2.98811">
        <ele>915.737</ele>
        <time>2020-11-20T07:19:05Z</time>
      </trkpt>
      <trkpt lat="45.69006" lon="2.98745">
        <ele>919.011</ele>
        <time>2020-11-20T07:19:25Z</time>
      </trkpt>
      <trkpt lat="45.6895" lon="2.98699">
        <ele>918.928</ele>
        <time>2020-11-20T07:19:45Z</time>
      </trkpt>
      <trkpt lat="45.68935" lon="2.98671">
        <ele>920.989</ele>
        <time>2020-11-20T07:20:05Z</time>
      </trkpt>
      <trkpt lat="45.68901" lon="2.98689">
        <ele>919.117</ele>
        <time>2020-11-20T07:20:25Z</time>
      </trkpt>
      <trkpt lat="45.68842" lon="2.98675">
        <ele>916.708</ele>
        <time>2020-11-20T07:20:45Z</time>
      </trkpt>
      <trkpt lat="45.68767" lon="2.98567">
        <ele>911.098</ele>
        <time>2020-11-20T07:21:05Z</time>
      </trkpt>
      <trkpt lat="45.68755" lon="2.98483">
        <ele>912.752</ele>
        <time>2020-11-20T07:21:25Z</time>
      </trkpt>
      <trkpt lat="45.68682" lon="2.98413">
        <ele>912.199</ele>
        <time>2020-11-20T07:21:45Z</time>
      </trkpt>
      <trkpt lat="45.68689" lon="2.98284">
        <ele>914.652</ele>
        <time>2020-11-20T07:22:05Z</time>
      </trkpt>
      <trkpt lat="45.68626" lon="2.98183">
        <ele>917.693</ele>
        <time>2020-11-20T07:22:25Z</time>
      </trkpt>
      <trkpt lat="45.68599" lon="2.98075">
        <ele>921.256</ele>
        <time>2020-11-20T07:22:45Z</time>
      </trkpt>
      <trkpt lat="45.68521" lon="2.98061">
        <ele>922.812</ele>
        <time>2020-11-20T07:23:05Z</time>
      </trkpt>
      <trkpt lat="45.68465" lon="2.97974">
        <ele>924.486</ele>
        <time>2020-11-20T07:23:25Z</time>
      </trkpt>
      <trkpt lat="45.68392" lon="2.97995">
        <ele>918.333</ele>
        <time>2020-11-20T07:23:45Z</time>
      </trkpt>
      <trkpt lat="45.68341" lon="2.97957">
        <ele>914.123</ele>
        <time>2020-11-20T07:24:05Z</time>
      </trkpt>
      <trkpt lat="45.68168" lon="2.97932">
        <ele>907.615</ele>
        <time>2020-11-20T07:24:25Z</time>
      </trkpt>
      <trkpt lat="45.68117" lon="2.97856">
        <ele>903.808</ele>
        <time>2020-11-20T07:24:45Z</time>
      </trkpt>
      <trkpt lat="45.6809" lon="2.97765">
        <ele>904.399</ele>
        <time>2020-11-20T07:25:05Z</time>
      </trkpt>
      <trkpt lat="45.68039" lon="2.97654">
        <ele>906.383</ele>
        <time>2020-11-20T07:25:25Z</time>
      </trkpt>
      <trkpt lat="45.67919" lon="2.97559">
        <ele>912.09</ele>
        <time>2020-11-20T07:25:45Z</time>
      </trkpt>
      <trkpt lat="45.67827" lon="2.97392">
        <ele>912.973</ele>
        <time>2020-11-20T07:26:05Z</time>
      </trkpt>
      <trkpt lat="45.67776" lon="2.97267">
        <ele>914.414</ele>
        <time>2020-11-20T07:26:25Z</time>
      </trkpt>
      <trkpt lat="45.67708" lon="2.97179">
        <ele>916.927</ele>
        <time>2020-11-20T07:26:45Z</time>
      </trkpt>
      <trkpt lat="45.67613" lon="2.97124">
        <ele>926.343</ele>
        <time>2020-11-20T07:27:05Z</time>
      </trkpt>
      <trkpt lat="45.67574" lon="2.97068">
        <ele>928.787</ele>
        <time>2020-11-20T07:27:25Z</time>
      </trkpt>
      <trkpt lat="45.67432" lon="2.96754">
        <ele>946.825</ele>
        <time>2020-11-20T07:27:45Z</time>
      </trkpt>
      <trkpt lat="45.67371" lon="2.96744">
        <ele>943.426</ele>
        <time>2020-11-20T07:28:05Z</time>
      </trkpt>
      <trkpt lat="45.67096" lon="2.96799">
        <ele>944.408</ele>
        <time>2020-11-20T07:28:25Z</time>
      </trkpt>
      <trkpt lat="45.67058" lon="2.96783">
        <ele>943.908</ele>
        <time>2020-11-20T07:28:45Z</time>
      </trkpt>
      <trkpt lat="45.67072" lon="2.96709">
        <ele>945.948</ele>
        <time>2020-11-20T07:29:05Z</time>
      </trkpt>
      <trkpt lat="45.67058" lon="2.96596">
        <ele>952.092</ele>
        <time>2020-11-20T07:29:25Z</time>
      </trkpt>
      <trkpt lat="45.6701" lon="2.96384">
        <ele>968.089</ele>
        <time>2020-11-20T07:29:45Z</time>
      </trkpt>
      <trkpt lat="45.67037" lon="2.9626">
        <ele>968.532</ele>
        <time>2020-11-20T07:30:05Z</time>
      </trkpt>
      <trkpt lat="45.66889" lon="2.96201">
        <ele>956.713</ele>
        <time>2020-11-20T07:30:25Z</time>
      </trkpt>
      <trkpt lat="45.67082" lon="2.95831">
        <ele>968.196</ele>
        <time>2020-11-20T07:30:45Z</time>
      </trkpt>
      <trkpt lat="45.67149" lon="2.95656">
        <ele>974.962</ele>
        <time>2017-03-24T19:13:35Z</time>
      </trkpt>
      <trkpt lat="45.67233" lon="2.95503">
        <ele>978.126</ele>
        <time>2017-03-24T19:13:55Z</time>
      </trkpt>
      <trkpt lat="45.67293" lon="2.95358">
        <ele>978.926</ele>
        <time>2017-03-24T19:14:15Z</time>
      </trkpt>
      <trkpt lat="45.67309" lon="2.95335">
        <ele>978.147</ele>
        <time>2017-03-24T19:14:35Z</time>
      </trkpt>
      <trkpt lat="45.67311" lon="2.95318">
        <ele>978.011</ele>
        <time>2017-03-24T19:14:55Z</time>
      </trkpt>
      <trkpt lat="45.67088" lon="2.95149">
        <ele>994.608</ele>
        <time>2017-03-24T19:15:15Z</time>
      </trkpt>
      <trkpt lat="45.67053" lon="2.95114">
        <ele>1001.158</ele>
        <time>2017-03-24T19:15:35Z</time>
      </trkpt>
      <trkpt lat="45.67034" lon="2.95115">
        <ele>1003.722</ele>
        <time>2017-03-24T19:15:55Z</time>
      </trkpt>
      <trkpt lat="45.66995" lon="2.95148">
        <ele>1005.479</ele>
        <time>2017-03-24T19:16:15Z</time>
      </trkpt>
      <trkpt lat="45.66926" lon="2.95224">
        <ele>1010.392</ele>
        <time>2017-03-24T19:16:35Z</time>
      </trkpt>
      <trkpt lat="45.66858" lon="2.95283">
        <ele>1014.963</ele>
        <time>2017-03-24T19:16:55Z</time>
      </trkpt>
      <trkpt lat="45.66817" lon="2.95305">
        <ele>1018.426</ele>
        <time>2017-03-24T19:17:15Z</time>
      </trkpt>
      <trkpt lat="45.6677" lon="2.95336">
        <ele>1024.342</ele>
        <time>2017-03-24T19:17:35Z</time>
      </trkpt>
      <trkpt lat="45.66728" lon="2.95343">
        <ele>1030.216</ele>
        <time>2017-03-24T19:17:55Z</time>
      </trkpt>
      <trkpt lat="45.66669" lon="2.95327">
        <ele>1035.167</ele>
        <time>2017-03-24T19:18:15Z</time>
      </trkpt>
      <trkpt lat="45.66591" lon="2.95281">
        <ele>1037.181</ele>
        <time>2017-03-24T19:18:35Z</time>
      </trkpt>
      <trkpt lat="45.66479" lon="2.95164">
        <ele>1036.419</ele>
        <time>2017-03-24T19:18:55Z</time>
      </trkpt>
      <trkpt lat="45.66446" lon="2.95113">
        <ele>1034.108</ele>
        <time>2017-03-24T19:19:15Z</time>
      </trkpt>
      <trkpt lat="45.664" lon="2.95059">
        <ele>1031.732</ele>
        <time>2017-03-24T19:19:35Z</time>
      </trkpt>
      <trkpt lat="45.66335" lon="2.94989">
        <ele>1028.416</ele>
        <time>2017-03-24T19:19:55Z</time>
      </trkpt>
      <trkpt lat="45.66293" lon="2.94958">
        <ele>1028.033</ele>
        <time>2017-03-24T19:20:15Z</time>
      </trkpt>
      <trkpt lat="45.66299" lon="2.94935">
        <ele>1028.856</ele>
        <time>2017-03-24T19:20:35Z</time>
      </trkpt>
      <trkpt lat="45.6638" lon="2.94813">
        <ele>1032.177</ele>
        <time>2017-03-24T19:20:55Z</time>
      </trkpt>
      <trkpt lat="45.66342" lon="2.94719">
        <ele>1035.03</ele>
        <time>2017-03-24T19:21:15Z</time>
      </trkpt>
      <trkpt lat="45.66291" lon="2.94632">
        <ele>1035.366</ele>
        <time>2017-03-24T19:21:35Z</time>
      </trkpt>
      <trkpt lat="45.66171" lon="2.94382">
        <ele>1032.33</ele>
        <time>2017-03-24T19:21:55Z</time>
      </trkpt>
      <trkpt lat="45.66129" lon="2.94241">
        <ele>1029.369</ele>
        <time>2017-03-24T19:22:15Z</time>
      </trkpt>
      <trkpt lat="45.66065" lon="2.94073">
        <ele>1027.404</ele>
        <time>2017-03-24T19:22:35Z</time>
      </trkpt>
      <trkpt lat="45.66006" lon="2.93949">
        <ele>1023.324</ele>
        <time>2017-03-24T19:22:55Z</time>
      </trkpt>
      <trkpt lat="45.65989" lon="2.93936">
        <ele>1022.808</ele>
        <time>2017-03-24T19:23:15Z</time>
      </trkpt>
      <trkpt lat="45.65995" lon="2.93892">
        <ele>1022.092</ele>
        <time>2017-03-24T19:23:35Z</time>
      </trkpt>
      <trkpt lat="45.65953" lon="2.93885">
        <ele>1022.716</ele>
        <time>2017-03-24T19:23:55Z</time>
      </trkpt>
      <trkpt lat="45.65887" lon="2.93856">
        <ele>1025.243</ele>
        <time>2017-03-24T19:24:15Z</time>
      </trkpt>
      <trkpt lat="45.65832" lon="2.93842">
        <ele>1024.026</ele>
        <time>2017-03-24T19:24:35Z</time>
      </trkpt>
      <trkpt lat="45.65702" lon="2.93745">
        <ele>1023.147</ele>
        <time>2017-03-24T19:24:55Z</time>
      </trkpt>
      <trkpt lat="45.65539" lon="2.93539">
        <ele>1021.71</ele>
        <time>2017-03-24T19:25:15Z</time>
      </trkpt>
      <trkpt lat="45.65433" lon="2.93453">
        <ele>1016.746</ele>
        <time>2017-03-24T19:25:35Z</time>
      </trkpt>
      <trkpt lat="45.65389" lon="2.93399">
        <ele>1012.81</ele>
        <time>2017-03-24T19:25:55Z</time>
      </trkpt>
      <trkpt lat="45.65266" lon="2.93178">
        <ele>997.922</ele>
        <time>2017-03-24T19:26:15Z</time>
      </trkpt>
      <trkpt lat="45.65189" lon="2.92898">
        <ele>988.362</ele>
        <time>2017-03-24T19:26:35Z</time>
      </trkpt>
      <trkpt lat="45.65151" lon="2.92882">
        <ele>988.908</ele>
        <time>2017-03-24T19:26:55Z</time>
      </trkpt>
      <trkpt lat="45.65131" lon="2.92884">
        <ele>990.708</ele>
        <time>2017-03-24T19:27:15Z</time>
      </trkpt>
      <trkpt lat="45.65093" lon="2.92923">
        <ele>994.888</ele>
        <time>2017-03-24T19:27:35Z</time>
      </trkpt>
      <trkpt lat="45.6503" lon="2.92946">
        <ele>1000.832</ele>
        <time>2017-03-24T19:27:55Z</time>
      </trkpt>
      <trkpt lat="45.64946" lon="2.9296">
        <ele>1011.929</ele>
        <time>2017-03-24T19:28:15Z</time>
      </trkpt>
      <trkpt lat="45.64898" lon="2.9298">
        <ele>1011.482</ele>
        <time>2017-03-24T19:28:35Z</time>
      </trkpt>
      <trkpt lat="45.6488" lon="2.92968">
        <ele>1010.973</ele>
        <time>2017-03-24T19:28:55Z</time>
      </trkpt>
      <trkpt lat="45.64836" lon="2.92901">
        <ele>1013.976</ele>
        <time>2017-03-24T19:29:15Z</time>
      </trkpt>
      <trkpt lat="45.64735" lon="2.92781">
        <ele>1013.192</ele>
        <time>2017-03-24T19:29:35Z</time>
      </trkpt>
      <trkpt lat="45.64692" lon="2.92681">
        <ele>1017.916</ele>
        <time>2017-03-24T19:29:55Z</time>
      </trkpt>
      <trkpt lat="45.64618" lon="2.92605">
        <ele>1026.041</ele>
        <time>2017-03-24T19:30:15Z</time>
      </trkpt>
      <trkpt lat="45.64587" lon="2.92583">
        <ele>1025.681</ele>
        <time>2017-03-24T19:30:35Z</time>
      </trkpt>
      <trkpt lat="45.64564" lon="2.92544">
        <ele>1026.309</ele>
        <time>2017-03-24T19:30:55Z</time>
      </trkpt>
      <trkpt lat="45.64525" lon="2.92425">
        <ele>1030.608</ele>
        <time>2017-03-24T19:31:15Z</time>
      </trkpt>
      <trkpt lat="45.64462" lon="2.92301">
        <ele>1029.98</ele>
        <time>2017-03-24T19:31:35Z</time>
      </trkpt>
      <trkpt lat="45.64447" lon="2.92227">
        <ele>1029.354</ele>
        <time>2017-03-24T19:31:55Z</time>
      </trkpt>
      <trkpt lat="45.64436" lon="2.9219">
        <ele>1028.731</ele>
        <time>2017-03-24T19:32:15Z</time>
      </trkpt>
      <trkpt lat="45.64402" lon="2.92116">
        <ele>1025.284</ele>
        <time>2017-03-24T19:32:35Z</time>
      </trkpt>
      <trkpt lat="45.6437" lon="2.92072">
        <ele>1025.785</ele>
        <time>2017-03-24T19:32:55Z</time>
      </trkpt>
      <trkpt lat="45.64342" lon="2.92015">
        <ele>1026.428</ele>
        <time>2017-03-24T19:33:15Z</time>
      </trkpt>
      <trkpt lat="45.64332" lon="2.91975">
        <ele>1027.644</ele>
        <time>2017-03-24T19:33:35Z</time>
      </trkpt>
      <trkpt lat="45.64329" lon="2.91926">
        <ele>1030.898</ele>
        <time>2017-03-24T19:33:55Z</time>
      </trkpt>
      <trkpt lat="45.64319" lon="2.91905">
        <ele>1031.742</ele>
        <time>2017-03-24T19:34:15Z</time>
      </trkpt>
      <trkpt lat="45.64264" lon="2.91881">
        <ele>1030.722</ele>
        <time>2017-03-24T19:34:35Z</time>
      </trkpt>
      <trkpt lat="45.64218" lon="2.91841">
        <ele>1034.814</ele>
        <time>2017-03-24T19:34:55Z</time>
      </trkpt>
      <trkpt lat="45.64185" lon="2.91834">
        <ele>1035.008</ele>
        <time>2017-03-24T19:35:15Z</time>
      </trkpt>
      <trkpt lat="45.64141" lon="2.91852">
        <ele>1032.71</ele>
        <time>2017-03-24T19:35:35Z</time>
      </trkpt>
      <trkpt lat="45.64115" lon="2.91844">
        <ele>1031.074</ele>
        <time>2017-03-24T19:35:55Z</time>
      </trkpt>
      <trkpt lat="45.64103" lon="2.91846">
        <ele>1030.451</ele>
        <time>2017-03-24T19:36:15Z</time>
      </trkpt>
      <trkpt lat="45.64025" lon="2.91933">
        <ele>1036.394</ele>
        <time>2017-03-24T19:36:35Z</time>
      </trkpt>
      <trkpt lat="45.6401" lon="2.91996">
        <ele>1037.965</ele>
        <time>2017-03-24T19:36:55Z</time>
      </trkpt>
      <trkpt lat="45.63982" lon="2.92026">
        <ele>1041.028</ele>
        <time>2020-11-20T07:54:45Z</time>
      </trkpt>
      <trkpt lat="45.639" lon="2.9206">
        <ele>1038.224</ele>
        <time>2020-11-20T07:55:05Z</time>
      </trkpt>
      <trkpt lat="45.63833" lon="2.91989">
        <ele>1037.668</ele>
        <time>2020-11-20T07:55:25Z</time>
      </trkpt>
      <trkpt lat="45.63722" lon="2.92">
        <ele>1035.849</ele>
        <time>2020-11-20T07:55:45Z</time>
      </trkpt>
      <trkpt lat="45.63651" lon="2.91929">
        <ele>1030.302</ele>
        <time>2020-11-20T07:56:05Z</time>
      </trkpt>
      <trkpt lat="45.63521" lon="2.91823">
        <ele>1021.222</ele>
        <time>2020-11-20T07:56:25Z</time>
      </trkpt>
      <trkpt lat="45.63495" lon="2.9166">
        <ele>1024.008</ele>
        <time>2020-11-20T07:56:45Z</time>
      </trkpt>
      <trkpt lat="45.63456" lon="2.91642">
        <ele>1023.61</ele>
        <time>2020-11-20T07:57:05Z</time>
      </trkpt>
      <trkpt lat="45.634" lon="2.91458">
        <ele>1027.964</ele>
        <time>2020-11-20T07:57:25Z</time>
      </trkpt>
      <trkpt lat="45.63386" lon="2.91366">
        <ele>1028.221</ele>
        <time>2020-11-20T07:57:45Z</time>
      </trkpt>
      <trkpt lat="45.63342" lon="2.91165">
        <ele>1031.774</ele>
        <time>2020-11-20T07:58:05Z</time>
      </trkpt>
      <trkpt lat="45.63325" lon="2.90968">
        <ele>1035.055</ele>
        <time>2020-11-20T07:58:25Z</time>
      </trkpt>
      <trkpt lat="45.63267" lon="2.90903">
        <ele>1036.818</ele>
        <time>2020-11-20T07:58:45Z</time>
      </trkpt>
      <trkpt lat="45.63259" lon="2.90814">
        <ele>1038.644</ele>
        <time>2020-11-20T07:59:05Z</time>
      </trkpt>
      <trkpt lat="45.63218" lon="2.90747">
        <ele>1039.358</ele>
        <time>2020-11-20T07:59:25Z</time>
      </trkpt>
      <trkpt lat="45.63111" lon="2.9065">
        <ele>1052.938</ele>
        <time>2020-11-20T07:59:45Z</time>
      </trkpt>
      <trkpt lat="45.63085" lon="2.90584">
        <ele>1054.67</ele>
        <time>2020-11-20T08:00:05Z</time>
      </trkpt>
      <trkpt lat="45.6305" lon="2.90425">
        <ele>1056.217</ele>
        <time>2020-11-20T08:00:25Z</time>
      </trkpt>
      <trkpt lat="45.63029" lon="2.9037">
        <ele>1057.908</ele>
        <time>2020-11-20T08:00:45Z</time>
      </trkpt>
      <trkpt lat="45.63013" lon="2.90236">
        <ele>1057.249</ele>
        <time>2020-11-20T08:01:05Z</time>
      </trkpt>
      <trkpt lat="45.63104" lon="2.90142">
        <ele>1061.363</ele>
        <time>2020-11-20T08:01:25Z</time>
      </trkpt>
      <trkpt lat="45.63141" lon="2.90075">
        <ele>1073.36</ele>
        <time>2020-11-20T08:01:45Z</time>
      </trkpt>
      <trkpt lat="45.63132" lon="2.90036">
        <ele>1072.743</ele>
        <time>2020-11-20T08:02:05Z</time>
      </trkpt>
      <trkpt lat="45.63138" lon="2.89958">
        <ele>1076.324</ele>
        <time>2020-11-20T08:02:25Z</time>
      </trkpt>
      <trkpt lat="45.63178" lon="2.89894">
        <ele>1081.667</ele>
        <time>2020-11-20T08:02:45Z</time>
      </trkpt>
      <trkpt lat="45.63201" lon="2.89827">
        <ele>1085.633</ele>
        <time>2020-11-20T08:03:05Z</time>
      </trkpt>
      <trkpt lat="45.63246" lon="2.89747">
        <ele>1095.267</ele>
        <time>2020-11-20T08:03:25Z</time>
      </trkpt>
      <trkpt lat="45.63299" lon="2.89705">
        <ele>1104.099</ele>
        <time>2020-11-20T08:03:45Z</time>
      </trkpt>
      <trkpt lat="45.63389" lon="2.89542">
        <ele>1121.007</ele>
        <time>2020-11-20T08:04:05Z</time>
      </trkpt>
      <trkpt lat="45.63469" lon="2.89513">
        <ele>1129.327</ele>
        <time>2017-03-24T19:38:35Z</time>
      </trkpt>
      <trkpt lat="45.63619" lon="2.89393">
        <ele>1144.208</ele>
        <time>2017-03-24T19:38:55Z</time>
      </trkpt>
      <trkpt lat="45.63511" lon="2.89243">
        <ele>1154.685</ele>
        <time>2017-03-24T19:39:15Z</time>
      </trkpt>
      <trkpt lat="45.63442" lon="2.89142">
        <ele>1161.519</ele>
        <time>2017-03-24T19:39:35Z</time>
      </trkpt>
      <trkpt lat="45.63456" lon="2.89063">
        <ele>1165.486</ele>
        <time>2017-03-24T19:39:55Z</time>
      </trkpt>
      <trkpt lat="45.63459" lon="2.89019">
        <ele>1171.629</ele>
        <time>2017-03-24T19:40:15Z</time>
      </trkpt>
      <trkpt lat="45.63485" lon="2.89005">
        <ele>1174.47</ele>
        <time>2017-03-24T19:40:35Z</time>
      </trkpt>
      <trkpt lat="45.63504" lon="2.88985">
        <ele>1175.793</ele>
        <time>2017-03-24T19:40:55Z</time>
      </trkpt>
      <trkpt lat="45.6352" lon="2.8898">
        <ele>1174.599</ele>
        <time>2017-03-24T19:41:15Z</time>
      </trkpt>
      <trkpt lat="45.63524" lon="2.88962">
        <ele>1174.743</ele>
        <time>2017-03-24T19:41:35Z</time>
      </trkpt>
      <trkpt lat="45.63512" lon="2.88936">
        <ele>1176.283</ele>
        <time>2017-03-24T19:41:55Z</time>
      </trkpt>
      <trkpt lat="45.63484" lon="2.88861">
        <ele>1178.725</ele>
        <time>2017-03-24T19:42:15Z</time>
      </trkpt>
      <trkpt lat="45.63479" lon="2.88822">
        <ele>1179.317</ele>
        <time>2017-03-24T19:42:35Z</time>
      </trkpt>
      <trkpt lat="45.63469" lon="2.88809">
        <ele>1180.308</ele>
        <time>2017-03-24T19:42:55Z</time>
      </trkpt>
      <trkpt lat="45.63421" lon="2.88814">
        <ele>1183.864</ele>
        <time>2017-03-24T19:43:15Z</time>
      </trkpt>
      <trkpt lat="45.63387" lon="2.88809">
        <ele>1183.748</ele>
        <time>2017-03-24T19:43:35Z</time>
      </trkpt>
      <trkpt lat="45.63357" lon="2.88782">
        <ele>1184.215</ele>
        <time>2017-03-24T19:43:55Z</time>
      </trkpt>
      <trkpt lat="45.63329" lon="2.88719">
        <ele>1187.198</ele>
        <time>2017-03-24T19:44:15Z</time>
      </trkpt>
      <trkpt lat="45.63299" lon="2.88595">
        <ele>1193.799</ele>
        <time>2017-03-24T19:44:35Z</time>
      </trkpt>
      <trkpt lat="45.6328" lon="2.88574">
        <ele>1195.652</ele>
        <time>2017-03-24T19:44:55Z</time>
      </trkpt>
      <trkpt lat="45.63162" lon="2.88538">
        <ele>1202.598</ele>
        <time>2017-03-24T19:45:15Z</time>
      </trkpt>
      <trkpt lat="45.63126" lon="2.88548">
        <ele>1204.962</ele>
        <time>2017-03-24T19:45:35Z</time>
      </trkpt>
      <trkpt lat="45.63097" lon="2.88528">
        <ele>1206.978</ele>
        <time>2017-03-24T19:45:55Z</time>
      </trkpt>
      <trkpt lat="45.63027" lon="2.88405">
        <ele>1212.833</ele>
        <time>2017-03-24T19:46:15Z</time>
      </trkpt>
      <trkpt lat="45.62907" lon="2.88115">
        <ele>1221.826</ele>
        <time>2017-03-24T19:46:35Z</time>
      </trkpt>
      <trkpt lat="45.62868" lon="2.88003">
        <ele>1227.508</ele>
        <time>2017-03-24T19:46:55Z</time>
      </trkpt>
      <trkpt lat="45.62828" lon="2.87961">
        <ele>1224.713</ele>
        <time>2017-03-24T19:47:15Z</time>
      </trkpt>
      <trkpt lat="45.62803" lon="2.87911">
        <ele>1231.427</ele>
        <time>2017-03-24T19:47:35Z</time>
      </trkpt>
      <trkpt lat="45.62791" lon="2.8786">
        <ele>1239.374</ele>
        <time>2017-03-24T19:47:55Z</time>
      </trkpt>
      <trkpt lat="45.62791" lon="2.87816">
        <ele>1243.227</ele>
        <time>2017-03-24T19:48:15Z</time>
      </trkpt>
      <trkpt lat="45.62737" lon="2.87587">
        <ele>1256.138</ele>
        <time>2017-03-24T19:48:35Z</time>
      </trkpt>
      <trkpt lat="45.6271" lon="2.87508">
        <ele>1262.111</ele>
        <time>2017-03-24T19:48:55Z</time>
      </trkpt>
      <trkpt lat="45.62681" lon="2.87447">
        <ele>1266.057</ele>
        <time>2017-03-24T19:49:15Z</time>
      </trkpt>
      <trkpt lat="45.62648" lon="2.87414">
        <ele>1268.331</ele>
        <time>2017-03-24T19:49:35Z</time>
      </trkpt>
      <trkpt lat="45.62624" lon="2.87403">
        <ele>1268.986</ele>
        <time>2017-03-24T19:49:55Z</time>
      </trkpt>
      <trkpt lat="45.62613" lon="2.87418">
        <ele>1271.06</ele>
        <time>2017-03-24T19:50:15Z</time>
      </trkpt>
      <trkpt lat="45.62655" lon="2.87592">
        <ele>1279.626</ele>
        <time>2017-03-24T19:50:35Z</time>
      </trkpt>
      <trkpt lat="45.62651" lon="2.8772">
        <ele>1285.008</ele>
        <time>2017-03-24T19:50:55Z</time>
      </trkpt>
      <trkpt lat="45.62621" lon="2.87834">
        <ele>1292.294</ele>
        <time>2017-03-24T19:51:15Z</time>
      </trkpt>
      <trkpt lat="45.6259" lon="2.87915">
        <ele>1295.858</ele>
        <time>2017-03-24T19:51:35Z</time>
      </trkpt>
      <trkpt lat="45.62563" lon="2.87962">
        <ele>1299.345</ele>
        <time>2017-03-24T19:51:55Z</time>
      </trkpt>
      <trkpt lat="45.62537" lon="2.87979">
        <ele>1300.728</ele>
        <time>2017-03-24T19:52:15Z</time>
      </trkpt>
      <trkpt lat="45.62507" lon="2.87978">
        <ele>1300.529</ele>
        <time>2017-03-24T19:52:35Z</time>
      </trkpt>
      <trkpt lat="45.62449" lon="2.87945">
        <ele>1308.822</ele>
        <time>2017-03-24T19:52:55Z</time>
      </trkpt>
      <trkpt lat="45.62449" lon="2.87924">
        <ele>1309.738</ele>
        <time>2017-03-24T19:53:15Z</time>
      </trkpt>
      <trkpt lat="45.62471" lon="2.87902">
        <ele>1312.042</ele>
        <time>2017-03-24T19:53:35Z</time>
      </trkpt>
      <trkpt lat="45.62506" lon="2.87835">
        <ele>1320.796</ele>
        <time>2017-03-24T19:53:55Z</time>
      </trkpt>
      <trkpt lat="45.62532" lon="2.87757">
        <ele>1320.931</ele>
        <time>2017-03-24T19:54:15Z</time>
      </trkpt>
      <trkpt lat="45.62539" lon="2.87691">
        <ele>1320.724</ele>
        <time>2017-03-24T19:54:35Z</time>
      </trkpt>
      <trkpt lat="45.62526" lon="2.87609">
        <ele>1322.308</ele>
        <time>2017-03-24T19:54:55Z</time>
      </trkpt>
      <trkpt lat="45.62516" lon="2.87571">
        <ele>1325.065</ele>
        <time>2017-03-24T19:55:15Z</time>
      </trkpt>
      <trkpt lat="45.62495" lon="2.87539">
        <ele>1327.849</ele>
        <time>2017-03-24T19:55:35Z</time>
      </trkpt>
      <trkpt lat="45.62306" lon="2.87316">
        <ele>1338.346</ele>
        <time>2017-03-24T19:55:55Z</time>
      </trkpt>
      <trkpt lat="45.62122" lon="2.87083">
        <ele>1347.699</ele>
        <time>2017-03-24T19:56:15Z</time>
      </trkpt>
      <trkpt lat="45.62042" lon="2.86992">
        <ele>1361.18</ele>
        <time>2017-03-24T19:56:35Z</time>
      </trkpt>
      <trkpt lat="45.62021" lon="2.86906">
        <ele>1371.273</ele>
        <time>2017-03-24T19:56:55Z</time>
      </trkpt>
      <trkpt lat="45.62005" lon="2.86891">
        <ele>1375.239</ele>
        <time>2017-03-24T19:57:15Z</time>
      </trkpt>
      <trkpt lat="45.6192" lon="2.86889">
        <ele>1379.953</ele>
        <time>2017-03-24T19:57:35Z</time>
      </trkpt>
      <trkpt lat="45.61912" lon="2.86878">
        <ele>1380.696</ele>
        <time>2017-03-24T19:57:55Z</time>
      </trkpt>
      <trkpt lat="45.619" lon="2.86752">
        <ele>1391.131</ele>
        <time>2017-03-24T19:58:15Z</time>
      </trkpt>
      <trkpt lat="45.61878" lon="2.86617">
        <ele>1396.924</ele>
        <time>2017-03-24T19:58:35Z</time>
      </trkpt>
      <trkpt lat="45.61859" lon="2.86577">
        <ele>1397.908</ele>
        <time>2017-03-24T19:58:55Z</time>
      </trkpt>
      <trkpt lat="45.61791" lon="2.86503">
        <ele>1405.475</ele>
        <time>2017-03-24T19:59:15Z</time>
      </trkpt>
      <trkpt lat="45.61723" lon="2.86348">
        <ele>1410.839</ele>
        <time>2017-03-24T19:59:35Z</time>
      </trkpt>
      <trkpt lat="45.61699" lon="2.86316">
        <ele>1412.936</ele>
        <time>2017-03-24T19:59:55Z</time>
      </trkpt>
      <trkpt lat="45.61648" lon="2.86282">
        <ele>1414.259</ele>
        <time>2017-03-24T20:00:15Z</time>
      </trkpt>
      <trkpt lat="45.61585" lon="2.86232">
        <ele>1415.62</ele>
        <time>2017-03-24T20:00:35Z</time>
      </trkpt>
      <trkpt lat="45.6152" lon="2.86169">
        <ele>1425.233</ele>
        <time>2017-03-24T20:00:55Z</time>
      </trkpt>
      <trkpt lat="45.61351" lon="2.85944">
        <ele>1419.059</ele>
        <time>2017-03-24T20:01:15Z</time>
      </trkpt>
      <trkpt lat="45.61291" lon="2.85845">
        <ele>1413.493</ele>
        <time>2017-03-24T20:01:35Z</time>
      </trkpt>
      <trkpt lat="45.61198" lon="2.85724">
        <ele>1417.419</ele>
        <time>2017-03-24T20:01:55Z</time>
      </trkpt>
      <trkpt lat="45.61145" lon="2.85678">
        <ele>1411.009</ele>
        <time>2017-03-24T20:02:15Z</time>
      </trkpt>
      <trkpt lat="45.61102" lon="2.8565">
        <ele>1409.019</ele>
        <time>2017-03-24T20:02:35Z</time>
      </trkpt>
      <trkpt lat="45.61012" lon="2.85545">
        <ele>1410.608</ele>
        <time>2017-03-24T20:02:55Z</time>
      </trkpt>
      <trkpt lat="45.60937" lon="2.85466">
        <ele>1405.637</ele>
        <time>2017-03-24T20:03:15Z</time>
      </trkpt>
      <trkpt lat="45.60881" lon="2.85432">
        <ele>1402.391</ele>
        <time>2017-03-24T20:03:35Z</time>
      </trkpt>
      <trkpt lat="45.60835" lon="2.85417">
        <ele>1401.078</ele>
        <time>2017-03-24T20:03:55Z</time>
      </trkpt>
      <trkpt lat="45.60678" lon="2.85409">
        <ele>1395.651</ele>
        <time>2017-03-24T20:04:15Z</time>
      </trkpt>
      <trkpt lat="45.60599" lon="2.8539">
        <ele>1389.132</ele>
        <time>2017-03-24T20:04:35Z</time>
      </trkpt>
      <trkpt lat="45.60566" lon="2.85392">
        <ele>1389.225</ele>
        <time>2017-03-24T20:04:55Z</time>
      </trkpt>
      <trkpt lat="45.60547" lon="2.85367">
        <ele>1387.971</ele>
        <time>2017-03-24T20:05:15Z</time>
      </trkpt>
      <trkpt lat="45.60531" lon="2.85325">
        <ele>1386.265</ele>
        <time>2017-03-24T20:05:35Z</time>
      </trkpt>
      <trkpt lat="45.60477" lon="2.85255">
        <ele>1383.214</ele>
        <time>2017-03-24T20:05:55Z</time>
      </trkpt>
      <trkpt lat="45.6044" lon="2.85184">
        <ele>1382.054</ele>
        <time>2017-03-24T20:06:15Z</time>
      </trkpt>
      <trkpt lat="45.60423" lon="2.85132">
        <ele>1381.309</ele>
        <time>2017-03-24T20:06:35Z</time>
      </trkpt>
      <trkpt lat="45.60255" lon="2.85">
        <ele>1375.508</ele>
        <time>2017-03-24T20:06:55Z</time>
      </trkpt>
      <trkpt lat="45.59986" lon="2.84663">
        <ele>1361.437</ele>
        <time>2017-03-24T20:07:15Z</time>
      </trkpt>
      <trkpt lat="45.59977" lon="2.84643">
        <ele>1361.791</ele>
        <time>2017-03-24T20:07:35Z</time>
      </trkpt>
      <trkpt lat="45.59966" lon="2.84568">
        <ele>1360.598</ele>
        <time>2017-03-24T20:07:55Z</time>
      </trkpt>
      <trkpt lat="45.59955" lon="2.84543">
        <ele>1361.711</ele>
        <time>2017-03-24T20:08:15Z</time>
      </trkpt>
      <trkpt lat="45.59954" lon="2.8451">
        <ele>1362.712</ele>
        <time>2017-03-24T20:08:35Z</time>
      </trkpt>
      <trkpt lat="45.59943" lon="2.84492">
        <ele>1364.445</ele>
        <time>2017-03-24T20:08:55Z</time>
      </trkpt>
      <trkpt lat="45.59739" lon="2.85005">
        <ele>1395.111</ele>
        <time>2017-03-24T20:09:15Z</time>
      </trkpt>
      <trkpt lat="45.59675" lon="2.85028">
        <ele>1398.765</ele>
        <time>2017-03-24T20:09:35Z</time>
      </trkpt>
      <trkpt lat="45.59645" lon="2.84989">
        <ele>1399.674</ele>
        <time>2017-03-24T20:09:55Z</time>
      </trkpt>
      <trkpt lat="45.5963" lon="2.84961">
        <ele>1400.956</ele>
        <time>2017-03-24T20:10:15Z</time>
      </trkpt>
      <trkpt lat="45.59583" lon="2.84909">
        <ele>1410.521</ele>
        <time>2017-03-24T20:10:35Z</time>
      </trkpt>
      <trkpt lat="45.59576" lon="2.84887">
        <ele>1415.208</ele>
        <time>2017-03-24T20:10:55Z</time>
      </trkpt>
      <trkpt lat="45.59559" lon="2.84852">
        <ele>1421.983</ele>
        <time>2017-03-24T20:11:15Z</time>
      </trkpt>
      <trkpt lat="45.59544" lon="2.84803">
        <ele>1429.247</ele>
        <time>2017-03-24T20:11:35Z</time>
      </trkpt>
      <trkpt lat="45.59521" lon="2.84749">
        <ele>1440.124</ele>
        <time>2017-03-24T20:11:55Z</time>
      </trkpt>
      <trkpt lat="45.5951" lon="2.84693">
        <ele>1447.857</ele>
        <time>2017-03-24T20:12:15Z</time>
      </trkpt>
      <trkpt lat="45.59453" lon="2.8473">
        <ele>1469.438</ele>
        <time>2017-03-24T20:12:35Z</time>
      </trkpt>
      <trkpt lat="45.59455" lon="2.8466">
        <ele>1475.241</ele>
        <time>2017-03-24T20:12:55Z</time>
      </trkpt>
      <trkpt lat="45.59449" lon="2.84638">
        <ele>1479.647</ele>
        <time>2017-03-24T20:13:15Z</time>
      </trkpt>
      <trkpt lat="45.59452" lon="2.84573">
        <ele>1482.771</ele>
        <time>2017-03-24T20:13:35Z</time>
      </trkpt>
      <trkpt lat="45.59459" lon="2.84555">
        <ele>1481.926</ele>
        <time>2017-03-24T20:13:55Z</time>
      </trkpt>
      <trkpt lat="45.59455" lon="2.84493">
        <ele>1494.547</ele>
        <time>2017-03-24T20:14:15Z</time>
      </trkpt>
      <trkpt lat="45.59454" lon="2.84369">
        <ele>1511.311</ele>
        <time>2017-03-24T20:14:35Z</time>
      </trkpt>
      <trkpt lat="45.59385" lon="2.84496">
        <ele>1531.508</ele>
        <time>2017-03-24T20:14:55Z</time>
      </trkpt>
      <trkpt lat="45.59389" lon="2.84394">
        <ele>1541.238</ele>
        <time>2017-03-24T20:15:15Z</time>
      </trkpt>
      <trkpt lat="45.59386" lon="2.84336">
        <ele>1549.842</ele>
        <time>2017-03-24T20:15:35Z</time>
      </trkpt>
      <trkpt lat="45.59376" lon="2.84279">
        <ele>1551.549</ele>
        <time>2017-03-24T20:15:55Z</time>
      </trkpt>
      <trkpt lat="45.59352" lon="2.84263">
        <ele>1556.052</ele>
        <time>2017-03-24T20:16:15Z</time>
      </trkpt>
      <trkpt lat="45.59292" lon="2.84373">
        <ele>1587.263</ele>
        <time>2017-03-24T20:16:35Z</time>
      </trkpt>
      <trkpt lat="45.59261" lon="2.84445">
        <ele>1608.196</ele>
        <time>2017-03-24T20:16:55Z</time>
      </trkpt>
      <trkpt lat="45.59221" lon="2.84511">
        <ele>1612.612</ele>
        <time>2017-03-24T20:17:15Z</time>
      </trkpt>
      <trkpt lat="45.5917" lon="2.84574">
        <ele>1609.176</ele>
        <time>2017-03-24T20:17:35Z</time>
      </trkpt>
      <trkpt lat="45.59106" lon="2.84597">
        <ele>1599.115</ele>
        <time>2017-03-24T20:17:55Z</time>
      </trkpt>
      <trkpt lat="45.59058" lon="2.84601">
        <ele>1596.665</ele>
        <time>2017-03-24T20:18:15Z</time>
      </trkpt>
      <trkpt lat="45.59037" lon="2.84589">
        <ele>1598.311</ele>
        <time>2017-03-24T20:18:35Z</time>
      </trkpt>
      <trkpt lat="45.5894" lon="2.84467">
        <ele>1585.908</ele>
        <time>2017-03-24T20:18:55Z</time>
      </trkpt>
      <trkpt lat="45.5891" lon="2.84474">
        <ele>1581.657</ele>
        <time>2017-03-24T20:19:15Z</time>
      </trkpt>
      <trkpt lat="45.58821" lon="2.84486">
        <ele>1562.751</ele>
        <time>2017-03-24T20:19:35Z</time>
      </trkpt>
      <trkpt lat="45.58712" lon="2.84522">
        <ele>1559.888</ele>
        <time>2017-03-24T20:19:55Z</time>
      </trkpt>
      <trkpt lat="45.58652" lon="2.84518">
        <ele>1572.921</ele>
        <time>2017-03-24T20:20:15Z</time>
      </trkpt>
      <trkpt lat="45.58597" lon="2.84488">
        <ele>1582.872</ele>
        <time>2017-03-24T20:20:35Z</time>
      </trkpt>
      <trkpt lat="45.58533" lon="2.84475">
        <ele>1598.075</ele>
        <time>2017-03-24T20:20:55Z</time>
      </trkpt>
      <trkpt lat="45.58549" lon="2.84534">
        <ele>1606.031</ele>
        <time>2017-03-24T20:21:15Z</time>
      </trkpt>
      <trkpt lat="45.58524" lon="2.8453">
        <ele>1613.595</ele>
        <time>2017-03-24T20:21:35Z</time>
      </trkpt>
      <trkpt lat="45.58527" lon="2.84574">
        <ele>1617.767</ele>
        <time>2017-03-24T20:21:55Z</time>
      </trkpt>
      <trkpt lat="45.58486" lon="2.84576">
        <ele>1632.781</ele>
        <time>2017-03-24T20:22:15Z</time>
      </trkpt>
      <trkpt lat="45.58437" lon="2.84556">
        <ele>1636.119</ele>
        <time>2017-03-24T20:22:35Z</time>
      </trkpt>
      <trkpt lat="45.58371" lon="2.84577">
        <ele>1644.308</ele>
        <time>2017-03-24T20:22:55Z</time>
      </trkpt>
      <trkpt lat="45.58233" lon="2.84465">
        <ele>1658.022</ele>
        <time>2017-03-24T20:23:15Z</time>
      </trkpt>
      <trkpt lat="45.58141" lon="2.84412">
        <ele>1652.766</ele>
        <time>2017-03-24T20:23:35Z</time>
      </trkpt>
      <trkpt lat="45.58094" lon="2.84318">
        <ele>1636.773</ele>
        <time>2017-03-24T20:23:55Z</time>
      </trkpt>
      <trkpt lat="45.58068" lon="2.84231">
        <ele>1638.556</ele>
        <time>2017-03-24T20:24:15Z</time>
      </trkpt>
      <trkpt lat="45.5804" lon="2.84168">
        <ele>1646.157</ele>
        <time>2017-03-24T20:24:35Z</time>
      </trkpt>
      <trkpt lat="45.58008" lon="2.84124">
        <ele>1654.18</ele>
        <time>2017-03-24T20:24:55Z</time>
      </trkpt>
      <trkpt lat="45.57955" lon="2.841">
        <ele>1663.816</ele>
        <time>2017-03-24T20:25:15Z</time>
      </trkpt>
      <trkpt lat="45.57836" lon="2.83992">
        <ele>1691.32</ele>
        <time>2017-03-24T20:25:35Z</time>
      </trkpt>
      <trkpt lat="45.57771" lon="2.83906">
        <ele>1688.747</ele>
        <time>2017-03-24T20:25:55Z</time>
      </trkpt>
      <trkpt lat="45.57739" lon="2.83907">
        <ele>1686.529</ele>
        <time>2017-03-24T20:26:15Z</time>
      </trkpt>
      <trkpt lat="45.57565" lon="2.83964">
        <ele>1674.921</ele>
        <time>2017-03-24T20:26:35Z</time>
      </trkpt>
      <trkpt lat="45.57297" lon="2.83994">
        <ele>1726.408</ele>
        <time>2017-03-24T20:26:55Z</time>
      </trkpt>
      <trkpt lat="45.57253" lon="2.83898">
        <ele>1716.25</ele>
        <time>2017-03-24T20:27:15Z</time>
      </trkpt>
      <trkpt lat="45.57228" lon="2.83782">
        <ele>1698.014</ele>
        <time>2017-03-24T20:27:35Z</time>
      </trkpt>
      <trkpt lat="45.57186" lon="2.83877">
        <ele>1688.481</ele>
        <time>2017-03-24T20:27:55Z</time>
      </trkpt>
      <trkpt lat="45.57156" lon="2.83797">
        <ele>1669.024</ele>
        <time>2017-03-24T20:28:15Z</time>
      </trkpt>
      <trkpt lat="45.57151" lon="2.83667">
        <ele>1645.695</ele>
        <time>2017-03-24T20:28:35Z</time>
      </trkpt>
      <trkpt lat="45.57165" lon="2.83622">
        <ele>1633.068</ele>
        <time>2017-03-24T20:28:55Z</time>
      </trkpt>
      <trkpt lat="45.57218" lon="2.83592">
        <ele>1622.824</ele>
        <time>2017-03-24T20:29:15Z</time>
      </trkpt>
      <trkpt lat="45.57112" lon="2.83508">
        <ele>1594.738</ele>
        <time>2017-03-24T20:29:35Z</time>
      </trkpt>
      <trkpt lat="45.57068" lon="2.83496">
        <ele>1585.727</ele>
        <time>2017-03-24T20:29:55Z</time>
      </trkpt>
      <trkpt lat="45.5702" lon="2.83414">
        <ele>1561.368</ele>
        <time>2017-03-24T20:30:15Z</time>
      </trkpt>
      <trkpt lat="45.5699" lon="2.83384">
        <ele>1550.714</ele>
        <time>2017-03-24T20:30:35Z</time>
      </trkpt>
      <trkpt lat="45.56977" lon="2.83353">
        <ele>1542.808</ele>
        <time>2017-03-24T20:30:55Z</time>
      </trkpt>
      <trkpt lat="45.56958" lon="2.83283">
        <ele>1532.858</ele>
        <time>2017-03-24T20:31:15Z</time>
      </trkpt>
      <trkpt lat="45.56948" lon="2.83242">
        <ele>1531.542</ele>
        <time>2017-03-24T20:31:35Z</time>
      </trkpt>
      <trkpt lat="45.5692" lon="2.83244">
        <ele>1528.179</ele>
        <time>2017-03-24T20:31:55Z</time>
      </trkpt>
      <trkpt lat="45.56879" lon="2.83267">
        <ele>1515.642</ele>
        <time>2017-03-24T20:32:15Z</time>
      </trkpt>
      <trkpt lat="45.56848" lon="2.83312">
        <ele>1509.353</ele>
        <time>2017-03-24T20:32:35Z</time>
      </trkpt>
      <trkpt lat="45.5681" lon="2.83345">
        <ele>1498.536</ele>
        <time>2017-03-24T20:32:55Z</time>
      </trkpt>
      <trkpt lat="45.56777" lon="2.83354">
        <ele>1492.312</ele>
        <time>2017-03-24T20:33:15Z</time>
      </trkpt>
      <trkpt lat="45.56704" lon="2.83283">
        <ele>1469.126</ele>
        <time>2017-03-24T20:33:35Z</time>
      </trkpt>
      <trkpt lat="45.566" lon="2.83217">
        <ele>1456.333</ele>
        <time>2017-03-24T20:33:55Z</time>
      </trkpt>
      <trkpt lat="45.56426" lon="2.83116">
        <ele>1437.423</ele>
        <time>2017-03-24T20:34:15Z</time>
      </trkpt>
      <trkpt lat="45.56398" lon="2.83082">
        <ele>1437.515</ele>
        <time>2017-03-24T20:34:35Z</time>
      </trkpt>
      <trkpt lat="45.56375" lon="2.83082">
        <ele>1437.408</ele>
        <time>2017-03-24T20:34:55Z</time>
      </trkpt>
      <trkpt lat="45.56354" lon="2.83099">
        <ele>1437.819</ele>
        <time>2017-03-24T20:35:15Z</time>
      </trkpt>
      <trkpt lat="45.56305" lon="2.83108">
        <ele>1438.233</ele>
        <time>2017-03-24T20:35:35Z</time>
      </trkpt>
      <trkpt lat="45.56179" lon="2.83141">
        <ele>1447.66</ele>
        <time>2017-03-24T20:35:55Z</time>
      </trkpt>
      <trkpt lat="45.56106" lon="2.83152">
        <ele>1455.223</ele>
        <time>2017-03-24T20:36:15Z</time>
      </trkpt>
      <trkpt lat="45.56065" lon="2.83186">
        <ele>1459.264</ele>
        <time>2017-03-24T20:36:35Z</time>
      </trkpt>
      <trkpt lat="45.56026" lon="2.83179">
        <ele>1462.097</ele>
        <time>2017-03-24T20:36:55Z</time>
      </trkpt>
      <trkpt lat="45.56006" lon="2.83167">
        <ele>1463.343</ele>
        <time>2017-03-24T20:37:15Z</time>
      </trkpt>
      <trkpt lat="45.5597" lon="2.83075">
        <ele>1463.587</ele>
        <time>2017-03-24T20:37:35Z</time>
      </trkpt>
      <trkpt lat="45.55926" lon="2.83016">
        <ele>1463.488</ele>
        <time>2017-03-24T20:37:55Z</time>
      </trkpt>
      <trkpt lat="45.55913" lon="2.82975">
        <ele>1462.724</ele>
        <time>2017-03-24T20:38:15Z</time>
      </trkpt>
      <trkpt lat="45.55883" lon="2.8294">
        <ele>1467.026</ele>
        <time>2017-03-24T20:38:35Z</time>
      </trkpt>
      <trkpt lat="45.55816" lon="2.82947">
        <ele>1471.808</ele>
        <time>2017-03-24T20:38:55Z</time>
      </trkpt>
      <trkpt lat="45.55792" lon="2.82955">
        <ele>1473.824</ele>
        <time>2017-03-24T20:39:15Z</time>
      </trkpt>
      <trkpt lat="45.55786" lon="2.8294">
        <ele>1474.658</ele>
        <time>2017-03-24T20:39:35Z</time>
      </trkpt>
      <trkpt lat="45.55793" lon="2.82915">
        <ele>1475.095</ele>
        <time>2017-03-24T20:39:55Z</time>
      </trkpt>
      <trkpt lat="45.55784" lon="2.82822">
        <ele>1476.438</ele>
        <time>2017-03-24T20:40:15Z</time>
      </trkpt>
      <trkpt lat="45.55697" lon="2.82687">
        <ele>1485.649</ele>
        <time>2017-03-24T20:40:35Z</time>
      </trkpt>
      <trkpt lat="45.55669" lon="2.82633">
        <ele>1493.552</ele>
        <time>2017-03-24T20:40:55Z</time>
      </trkpt>
      <trkpt lat="45.55613" lon="2.82546">
        <ele>1506.988</ele>
        <time>2017-03-24T20:41:15Z</time>
      </trkpt>
      <trkpt lat="45.5559" lon="2.82521">
        <ele>1512.912</ele>
        <time>2017-03-24T20:41:35Z</time>
      </trkpt>
      <trkpt lat="45.55542" lon="2.82506">
        <ele>1522.267</ele>
        <time>2017-03-24T20:41:55Z</time>
      </trkpt>
      <trkpt lat="45.55463" lon="2.82498">
        <ele>1529.081</ele>
        <time>2017-03-24T20:42:15Z</time>
      </trkpt>
      <trkpt lat="45.55438" lon="2.82505">
        <ele>1528.219</ele>
        <time>2017-03-24T20:42:35Z</time>
      </trkpt>
      <trkpt lat="45.55372" lon="2.82553">
        <ele>1551.608</ele>
        <time>2017-03-24T20:42:55Z</time>
      </trkpt>
      <trkpt lat="45.55332" lon="2.8256">
        <ele>1553.272</ele>
        <time>2017-03-24T20:43:15Z</time>
      </trkpt>
      <trkpt lat="45.55297" lon="2.82574">
        <ele>1560.116</ele>
        <time>2017-03-24T20:43:35Z</time>
      </trkpt>
      <trkpt lat="45.55214" lon="2.82631">
        <ele>1594.473</ele>
        <time>2017-03-24T20:43:55Z</time>
      </trkpt>
      <trkpt lat="45.55203" lon="2.82748">
        <ele>1609.886</ele>
        <time>2017-03-24T20:44:15Z</time>
      </trkpt>
      <trkpt lat="45.55192" lon="2.82776">
        <ele>1613.357</ele>
        <time>2017-03-24T20:44:35Z</time>
      </trkpt>
      <trkpt lat="45.55179" lon="2.82875">
        <ele>1614.62</ele>
        <time>2017-03-24T20:44:55Z</time>
      </trkpt>
      <trkpt lat="45.55158" lon="2.82935">
        <ele>1626.936</ele>
        <time>2017-03-24T20:45:15Z</time>
      </trkpt>
      <trkpt lat="45.55139" lon="2.83004">
        <ele>1640.84</ele>
        <time>2017-03-24T20:45:35Z</time>
      </trkpt>
      <trkpt lat="45.55132" lon="2.83069">
        <ele>1636.888</ele>
        <time>2017-03-24T20:45:55Z</time>
      </trkpt>
      <trkpt lat="45.55106" lon="2.83124">
        <ele>1643.824</ele>
        <time>2017-03-24T20:46:15Z</time>
      </trkpt>
      <trkpt lat="45.55112" lon="2.83151">
        <ele>1641.626</ele>
        <time>2017-03-24T20:46:35Z</time>
      </trkpt>
      <trkpt lat="45.55102" lon="2.83226">
        <ele>1648.308</ele>
        <time>2017-03-24T20:46:55Z</time>
      </trkpt>
      <trkpt lat="45.55099" lon="2.83274">
        <ele>1646.074</ele>
        <time>2017-03-24T20:47:15Z</time>
      </trkpt>
      <trkpt lat="45.55082" lon="2.83309">
        <ele>1643.748</ele>
        <time>2017-03-24T20:47:35Z</time>
      </trkpt>
      <trkpt lat="45.55064" lon="2.83278">
        <ele>1648.915</ele>
        <time>2017-03-24T20:47:55Z</time>
      </trkpt>
      <trkpt lat="45.5505" lon="2.8326">
        <ele>1653.028</ele>
        <time>2017-03-24T20:48:15Z</time>
      </trkpt>
      <trkpt lat="45.55052" lon="2.83215">
        <ele>1662.669</ele>
        <time>2017-03-24T20:48:35Z</time>
      </trkpt>
      <trkpt lat="45.55053" lon="2.83157">
        <ele>1673.852</ele>
        <time>2017-03-24T20:48:55Z</time>
      </trkpt>
      <trkpt lat="45.55046" lon="2.83076">
        <ele>1676.138</ele>
        <time>2017-03-24T20:49:15Z</time>
      </trkpt>
      <trkpt lat="45.55027" lon="2.83052">
        <ele>1685.822</ele>
        <time>2017-03-24T20:49:35Z</time>
      </trkpt>
      <trkpt lat="45.55013" lon="2.83104">
        <ele>1694.368</ele>
        <time>2017-03-24T20:49:55Z</time>
      </trkpt>
      <trkpt lat="45.5499" lon="2.83141">
        <ele>1699.142</ele>
        <time>2017-03-24T20:50:15Z</time>
      </trkpt>
      <trkpt lat="45.54967" lon="2.83156">
        <ele>1700.826</ele>
        <time>2017-03-24T20:50:35Z</time>
      </trkpt>
      <trkpt lat="45.54942" lon="2.83148">
        <ele>1706.008</ele>
        <time>2017-03-24T20:50:55Z</time>
      </trkpt>
      <trkpt lat="45.54916" lon="2.83149">
        <ele>1704.662</ele>
        <time>2017-03-24T20:51:15Z</time>
      </trkpt>
      <trkpt lat="45.54916" lon="2.83125">
        <ele>1709.646</ele>
        <time>2017-03-24T20:51:35Z</time>
      </trkpt>
      <trkpt lat="45.54939" lon="2.831">
        <ele>1714.893</ele>
        <time>2017-03-24T20:51:55Z</time>
      </trkpt>
      <trkpt lat="45.54948" lon="2.83023">
        <ele>1720.236</ele>
        <time>2017-03-24T20:52:15Z</time>
      </trkpt>
      <trkpt lat="45.54933" lon="2.83073">
        <ele>1717.547</ele>
        <time>2017-03-24T20:52:35Z</time>
      </trkpt>
      <trkpt lat="45.54918" lon="2.83098">
        <ele>1712.72</ele>
        <time>2017-03-24T20:52:55Z</time>
      </trkpt>
      <trkpt lat="45.54886" lon="2.83119">
        <ele>1707.736</ele>
        <time>2017-03-24T20:53:15Z</time>
      </trkpt>
      <trkpt lat="45.5482" lon="2.83146">
        <ele>1696.16</ele>
        <time>2017-03-24T20:53:35Z</time>
      </trkpt>
      <trkpt lat="45.5477" lon="2.83184">
        <ele>1690.356</ele>
        <time>2017-03-24T20:53:55Z</time>
      </trkpt>
      <trkpt lat="45.54665" lon="2.83199">
        <ele>1657.459</ele>
        <time>2017-03-24T20:54:15Z</time>
      </trkpt>
      <trkpt lat="45.5463" lon="2.83244">
        <ele>1653.114</ele>
        <time>2017-03-24T20:54:35Z</time>
      </trkpt>
      <trkpt lat="45.54591" lon="2.8328">
        <ele>1646.008</ele>
        <time>2017-03-24T20:54:55Z</time>
      </trkpt>
      <trkpt lat="45.5458" lon="2.8328">
        <ele>1646.051</ele>
        <time>2017-03-24T20:55:15Z</time>
      </trkpt>
      <trkpt lat="45.54552" lon="2.83291">
        <ele>1649.915</ele>
        <time>2017-03-24T20:55:35Z</time>
      </trkpt>
      <trkpt lat="45.54517" lon="2.8335">
        <ele>1659.082</ele>
        <time>2017-03-24T20:55:55Z</time>
      </trkpt>
      <trkpt lat="45.54453" lon="2.8335">
        <ele>1675.955</ele>
        <time>2017-03-24T20:56:15Z</time>
      </trkpt>
      <trkpt lat="45.5446" lon="2.83302">
        <ele>1684.376</ele>
        <time>2017-03-24T20:56:35Z</time>
      </trkpt>
      <trkpt lat="45.54433" lon="2.833">
        <ele>1693.269</ele>
        <time>2017-03-24T20:56:55Z</time>
      </trkpt>
      <trkpt lat="45.54419" lon="2.83261">
        <ele>1696.675</ele>
        <time>2017-03-24T20:57:15Z</time>
      </trkpt>
      <trkpt lat="45.54379" lon="2.83263">
        <ele>1695.449</ele>
        <time>2017-03-24T20:57:35Z</time>
      </trkpt>
      <trkpt lat="45.54326" lon="2.83249">
        <ele>1693.428</ele>
        <time>2017-03-24T20:57:55Z</time>
      </trkpt>
      <trkpt lat="45.54258" lon="2.8322">
        <ele>1701.789</ele>
        <time>2017-03-24T20:58:15Z</time>
      </trkpt>
      <trkpt lat="45.54224" lon="2.83229">
        <ele>1704.117</ele>
        <time>2017-03-24T20:58:35Z</time>
      </trkpt>
      <trkpt lat="45.54131" lon="2.83214">
        <ele>1721.108</ele>
        <time>2017-03-24T20:58:55Z</time>
      </trkpt>
      <trkpt lat="45.54059" lon="2.83191">
        <ele>1752.768</ele>
        <time>2017-03-24T20:59:15Z</time>
      </trkpt>
      <trkpt lat="45.53988" lon="2.83153">
        <ele>1744.382</ele>
        <time>2017-03-24T20:59:35Z</time>
      </trkpt>
      <trkpt lat="45.53939" lon="2.8314">
        <ele>1735.129</ele>
        <time>2017-03-24T20:59:55Z</time>
      </trkpt>
      <trkpt lat="45.5386" lon="2.83082">
        <ele>1726.142</ele>
        <time>2017-03-24T21:00:15Z</time>
      </trkpt>
      <trkpt lat="45.53841" lon="2.83044">
        <ele>1727.693</ele>
        <time>2017-03-24T21:00:35Z</time>
      </trkpt>
      <trkpt lat="45.53808" lon="2.83019">
        <ele>1729.556</ele>
        <time>2017-03-24T21:00:55Z</time>
      </trkpt>
      <trkpt lat="45.53784" lon="2.82981">
        <ele>1732.012</ele>
        <time>2017-03-24T21:01:15Z</time>
      </trkpt>
      <trkpt lat="45.53751" lon="2.8288">
        <ele>1745.486</ele>
        <time>2017-03-24T21:01:35Z</time>
      </trkpt>
      <trkpt lat="45.53713" lon="2.82804">
        <ele>1750.794</ele>
        <time>2017-03-24T21:01:55Z</time>
      </trkpt>
      <trkpt lat="45.53663" lon="2.82757">
        <ele>1741.657</ele>
        <time>2017-03-24T21:02:15Z</time>
      </trkpt>
      <trkpt lat="45.53617" lon="2.82754">
        <ele>1737.322</ele>
        <time>2017-03-24T21:02:35Z</time>
      </trkpt>
      <trkpt lat="45.53594" lon="2.82758">
        <ele>1736.108</ele>
        <time>2017-03-24T21:02:55Z</time>
      </trkpt>
      <trkpt lat="45.53557" lon="2.82754">
        <ele>1730.185</ele>
        <time>2017-03-24T21:03:15Z</time>
      </trkpt>
      <trkpt lat="45.53523" lon="2.82756">
        <ele>1719.969</ele>
        <time>2017-03-24T21:03:35Z</time>
      </trkpt>
      <trkpt lat="45.5349" lon="2.82767">
        <ele>1710.226</ele>
        <time>2017-03-24T21:03:55Z</time>
      </trkpt>
      <trkpt lat="45.53438" lon="2.82758">
        <ele>1703.729</ele>
        <time>2017-03-24T21:04:15Z</time>
      </trkpt>
      <trkpt lat="45.53398" lon="2.82726">
        <ele>1701.78</ele>
        <time>2017-03-24T21:04:35Z</time>
      </trkpt>
      <trkpt lat="45.53374" lon="2.82684">
        <ele>1708.423</ele>
        <time>2017-03-24T21:04:55Z</time>
      </trkpt>
      <trkpt lat="45.53367" lon="2.82645">
        <ele>1711.039</ele>
        <time>2017-03-24T21:05:15Z</time>
      </trkpt>
      <trkpt lat="45.53349" lon="2.82623">
        <ele>1711.063</ele>
        <time>2017-03-24T21:05:35Z</time>
      </trkpt>
      <trkpt lat="45.53308" lon="2.82618">
        <ele>1714.086</ele>
        <time>2017-03-24T21:05:55Z</time>
      </trkpt>
      <trkpt lat="45.53262" lon="2.82593">
        <ele>1707.56</ele>
        <time>2017-03-24T21:06:15Z</time>
      </trkpt>
      <trkpt lat="45.53207" lon="2.82545">
        <ele>1706.626</ele>
        <time>2017-03-24T21:06:35Z</time>
      </trkpt>
      <trkpt lat="45.53155" lon="2.82508">
        <ele>1707.608</ele>
        <time>2017-03-24T21:06:55Z</time>
      </trkpt>
      <trkpt lat="45.53112" lon="2.82512">
        <ele>1713.554</ele>
        <time>2017-03-24T21:07:15Z</time>
      </trkpt>
      <trkpt lat="45.53042" lon="2.82532">
        <ele>1713.678</ele>
        <time>2017-03-24T21:07:35Z</time>
      </trkpt>
      <trkpt lat="45.53025" lon="2.82496">
        <ele>1719.295</ele>
        <time>2017-03-24T21:07:55Z</time>
      </trkpt>
      <trkpt lat="45.53014" lon="2.82451">
        <ele>1726.928</ele>
        <time>2017-03-24T21:08:15Z</time>
      </trkpt>
      <trkpt lat="45.5297" lon="2.82413">
        <ele>1726.379</ele>
        <time>2017-03-24T21:08:35Z</time>
      </trkpt>
      <trkpt lat="45.52916" lon="2.82409">
        <ele>1719.672</ele>
        <time>2017-03-24T21:08:55Z</time>
      </trkpt>
      <trkpt lat="45.52888" lon="2.82324">
        <ele>1722.748</ele>
        <time>2017-03-24T21:09:15Z</time>
      </trkpt>
      <trkpt lat="45.52855" lon="2.82254">
        <ele>1725.292</ele>
        <time>2017-03-24T21:09:35Z</time>
      </trkpt>
      <trkpt lat="45.52854" lon="2.82175">
        <ele>1726.343</ele>
        <time>2017-03-24T21:09:55Z</time>
      </trkpt>
      <trkpt lat="45.52847" lon="2.8215">
        <ele>1724.264</ele>
        <time>2017-03-24T21:10:15Z</time>
      </trkpt>
      <trkpt lat="45.52837" lon="2.82147">
        <ele>1724.61</ele>
        <time>2017-03-24T21:10:35Z</time>
      </trkpt>
      <trkpt lat="45.52817" lon="2.82116">
        <ele>1726.008</ele>
        <time>2017-03-24T21:10:55Z</time>
      </trkpt>
      <trkpt lat="45.52805" lon="2.82098">
        <ele>1728.46</ele>
        <time>2017-03-24T21:11:15Z</time>
      </trkpt>
      <trkpt lat="45.52792" lon="2.82024">
        <ele>1737.814</ele>
        <time>2017-03-24T21:11:35Z</time>
      </trkpt>
      <trkpt lat="45.52781" lon="2.81975">
        <ele>1748.441</ele>
        <time>2017-03-24T21:11:55Z</time>
      </trkpt>
      <trkpt lat="45.52779" lon="2.8193">
        <ele>1756.154</ele>
        <time>2017-03-24T21:12:15Z</time>
      </trkpt>
      <trkpt lat="45.52771" lon="2.81926">
        <ele>1758.585</ele>
        <time>2017-03-24T21:12:35Z</time>
      </trkpt>
      <trkpt lat="45.52746" lon="2.81957">
        <ele>1759.278</ele>
        <time>2017-03-24T21:12:55Z</time>
      </trkpt>
      <trkpt lat="45.52739" lon="2.8195">
        <ele>1763.654</ele>
        <time>2017-03-24T21:13:15Z</time>
      </trkpt>
      <trkpt lat="45.52747" lon="2.81896">
        <ele>1770.348</ele>
        <time>2017-03-24T21:13:35Z</time>
      </trkpt>
      <trkpt lat="45.52741" lon="2.81843">
        <ele>1776.182</ele>
        <time>2017-03-24T21:13:55Z</time>
      </trkpt>
      <trkpt lat="45.52739" lon="2.81779">
        <ele>1776.743</ele>
        <time>2017-03-24T21:14:15Z</time>
      </trkpt>
      <trkpt lat="45.52726" lon="2.81773">
        <ele>1775.317</ele>
        <time>2017-03-24T21:14:35Z</time>
      </trkpt>
      <trkpt lat="45.52688" lon="2.81828">
        <ele>1768.608</ele>
        <time>2017-03-24T21:14:55Z</time>
      </trkpt>
      <trkpt lat="45.52646" lon="2.8186">
        <ele>1766.144</ele>
        <time>2017-03-24T21:15:15Z</time>
      </trkpt>
      <trkpt lat="45.52599" lon="2.81868">
        <ele>1765.248</ele>
        <time>2017-03-24T21:15:35Z</time>
      </trkpt>
      <trkpt lat="45.52551" lon="2.81868">
        <ele>1765.185</ele>
        <time>2017-03-24T21:15:55Z</time>
      </trkpt>
      <trkpt lat="45.52493" lon="2.81848">
        <ele>1758.718</ele>
        <time>2017-03-24T21:16:15Z</time>
      </trkpt>
      <trkpt lat="45.52449" lon="2.81857">
        <ele>1761.189</ele>
        <time>2017-03-24T21:16:35Z</time>
      </trkpt>
      <trkpt lat="45.52406" lon="2.81857">
        <ele>1754.182</ele>
        <time>2017-03-24T21:16:55Z</time>
      </trkpt>
      <trkpt lat="45.52369" lon="2.81874">
        <ele>1757.678</ele>
        <time>2017-03-24T21:17:15Z</time>
      </trkpt>
      <trkpt lat="45.52311" lon="2.81917">
        <ele>1756.072</ele>
        <time>2017-03-24T21:17:35Z</time>
      </trkpt>
      <trkpt lat="45.52299" lon="2.82035">
        <ele>1757.898</ele>
        <time>2017-03-24T21:17:55Z</time>
      </trkpt>
      <trkpt lat="45.52297" lon="2.82136">
        <ele>1750.915</ele>
        <time>2017-03-24T21:18:15Z</time>
      </trkpt>
      <trkpt lat="45.52288" lon="2.82213">
        <ele>1750.526</ele>
        <time>2017-03-24T21:18:35Z</time>
      </trkpt>
      <trkpt lat="45.52277" lon="2.82242">
        <ele>1747.008</ele>
        <time>2017-03-24T21:18:55Z</time>
      </trkpt>
      <trkpt lat="45.52257" lon="2.82251">
        <ele>1741.545</ele>
        <time>2017-03-24T21:19:15Z</time>
      </trkpt>
      <trkpt lat="45.5224" lon="2.82276">
        <ele>1744.219</ele>
        <time>2017-03-24T21:19:35Z</time>
      </trkpt>
      <trkpt lat="45.52195" lon="2.82283">
        <ele>1742.646</ele>
        <time>2017-03-24T21:19:55Z</time>
      </trkpt>
      <trkpt lat="45.52118" lon="2.82275">
        <ele>1743.999</ele>
        <time>2017-03-24T21:20:15Z</time>
      </trkpt>
      <trkpt lat="45.52098" lon="2.82283">
        <ele>1745.26</ele>
        <time>2017-03-24T21:20:35Z</time>
      </trkpt>
      <trkpt lat="45.52064" lon="2.82329">
        <ele>1743.563</ele>
        <time>2017-03-24T21:20:55Z</time>
      </trkpt>
      <trkpt lat="45.52044" lon="2.82377">
        <ele>1741.079</ele>
        <time>2017-03-24T21:21:15Z</time>
      </trkpt>
      <trkpt lat="45.52041" lon="2.82429">
        <ele>1742.623</ele>
        <time>2017-03-24T21:21:35Z</time>
      </trkpt>
      <trkpt lat="45.52031" lon="2.82477">
        <ele>1735.556</ele>
        <time>2017-03-24T21:21:55Z</time>
      </trkpt>
      <trkpt lat="45.52031" lon="2.82507">
        <ele>1731.359</ele>
        <time>2017-03-24T21:22:15Z</time>
      </trkpt>
      <trkpt lat="45.52008" lon="2.82575">
        <ele>1722.114</ele>
        <time>2017-03-24T21:22:35Z</time>
      </trkpt>
      <trkpt lat="45.52009" lon="2.82613">
        <ele>1723.708</ele>
        <time>2017-03-24T21:22:55Z</time>
      </trkpt>
      <trkpt lat="45.51999" lon="2.82634">
        <ele>1721.691</ele>
        <time>2017-03-24T21:23:15Z</time>
      </trkpt>
      <trkpt lat="45.51997" lon="2.82663">
        <ele>1722.055</ele>
        <time>2017-03-24T21:23:35Z</time>
      </trkpt>
      <trkpt lat="45.5197" lon="2.82697">
        <ele>1715.692</ele>
        <time>2017-03-24T21:23:55Z</time>
      </trkpt>
      <trkpt lat="45.51961" lon="2.82749">
        <ele>1718.325</ele>
        <time>2017-03-24T21:24:15Z</time>
      </trkpt>
      <trkpt lat="45.51918" lon="2.8276">
        <ele>1714.046</ele>
        <time>2017-03-24T21:24:35Z</time>
      </trkpt>
      <trkpt lat="45.51853" lon="2.82807">
        <ele>1708.539</ele>
        <time>2017-03-24T21:24:55Z</time>
      </trkpt>
      <trkpt lat="45.51804" lon="2.82866">
        <ele>1704.385</ele>
        <time>2017-03-24T21:25:15Z</time>
      </trkpt>
      <trkpt lat="45.51737" lon="2.82916">
        <ele>1696.029</ele>
        <time>2017-03-24T21:25:35Z</time>
      </trkpt>
      <trkpt lat="45.5168" lon="2.82986">
        <ele>1683.776</ele>
        <time>2017-03-24T21:25:55Z</time>
      </trkpt>
      <trkpt lat="45.51671" lon="2.83032">
        <ele>1678.99</ele>
        <time>2017-03-24T21:26:15Z</time>
      </trkpt>
      <trkpt lat="45.51671" lon="2.83032">
        <ele>1678.919</ele>
        <time>2017-03-24T21:26:35Z</time>
      </trkpt>
      <trkpt lat="45.51679" lon="2.83081">
        <ele>1674.808</ele>
        <time>2017-03-24T21:26:55Z</time>
      </trkpt>
      <trkpt lat="45.51691" lon="2.83128">
        <ele>1673.233</ele>
        <time>2017-03-24T21:27:15Z</time>
      </trkpt>
      <trkpt lat="45.51652" lon="2.8315">
        <ele>1661.837</ele>
        <time>2017-03-24T21:27:35Z</time>
      </trkpt>
      <trkpt lat="45.51673" lon="2.83221">
        <ele>1658.514</ele>
        <time>2017-03-24T21:27:55Z</time>
      </trkpt>
      <trkpt lat="45.5165" lon="2.83285">
        <ele>1648.467</ele>
        <time>2017-03-24T21:28:15Z</time>
      </trkpt>
      <trkpt lat="45.51658" lon="2.83362">
        <ele>1647.388</ele>
        <time>2017-03-24T21:28:35Z</time>
      </trkpt>
      <trkpt lat="45.51712" lon="2.8348">
        <ele>1642.741</ele>
        <time>2017-03-24T21:28:55Z</time>
      </trkpt>
      <trkpt lat="45.51691" lon="2.83545">
        <ele>1634.337</ele>
        <time>2017-03-24T21:29:15Z</time>
      </trkpt>
      <trkpt lat="45.51667" lon="2.83646">
        <ele>1624.371</ele>
        <time>2017-03-24T21:29:35Z</time>
      </trkpt>
      <trkpt lat="45.51629" lon="2.83712">
        <ele>1609.359</ele>
        <time>2017-03-24T21:29:55Z</time>
      </trkpt>
      <trkpt lat="45.51625" lon="2.83764">
        <ele>1601.003</ele>
        <time>2017-03-24T21:30:15Z</time>
      </trkpt>
      <trkpt lat="45.51644" lon="2.83817">
        <ele>1596.923</ele>
        <time>2017-03-24T21:30:35Z</time>
      </trkpt>
      <trkpt lat="45.51635" lon="2.83873">
        <ele>1591.308</ele>
        <time>2017-03-24T21:30:55Z</time>
      </trkpt>
      <trkpt lat="45.51644" lon="2.83924">
        <ele>1579.681</ele>
        <time>2017-03-24T21:31:15Z</time>
      </trkpt>
      <trkpt lat="45.51641" lon="2.83987">
        <ele>1566.885</ele>
        <time>2017-03-24T21:31:35Z</time>
      </trkpt>
      <trkpt lat="45.51617" lon="2.84034">
        <ele>1566.232</ele>
        <time>2017-03-24T21:31:55Z</time>
      </trkpt>
      <trkpt lat="45.51611" lon="2.84083">
        <ele>1555.085</ele>
        <time>2017-03-24T21:32:15Z</time>
      </trkpt>
      <trkpt lat="45.51569" lon="2.84124">
        <ele>1550.476</ele>
        <time>2017-03-24T21:32:35Z</time>
      </trkpt>
      <trkpt lat="45.51533" lon="2.84167">
        <ele>1538.119</ele>
        <time>2017-03-24T21:32:55Z</time>
      </trkpt>
      <trkpt lat="45.51464" lon="2.84176">
        <ele>1527.095</ele>
        <time>2017-03-24T21:33:15Z</time>
      </trkpt>
      <trkpt lat="45.51416" lon="2.84193">
        <ele>1521.389</ele>
        <time>2017-03-24T21:33:35Z</time>
      </trkpt>
      <trkpt lat="45.51384" lon="2.84152">
        <ele>1526.735</ele>
        <time>2017-03-24T21:33:55Z</time>
      </trkpt>
      <trkpt lat="45.51341" lon="2.84212">
        <ele>1517.586</ele>
        <time>2017-03-24T21:34:15Z</time>
      </trkpt>
      <trkpt lat="45.51252" lon="2.84236">
        <ele>1499.914</ele>
        <time>2017-03-24T21:34:35Z</time>
      </trkpt>
      <trkpt lat="45.51207" lon="2.84324">
        <ele>1473.608</ele>
        <time>2017-03-24T21:34:55Z</time>
      </trkpt>
      <trkpt lat="45.51208" lon="2.84367">
        <ele>1467.569</ele>
        <time>2017-03-24T21:35:15Z</time>
      </trkpt>
      <trkpt lat="45.51171" lon="2.84433">
        <ele>1464.643</ele>
        <time>2017-03-24T21:35:35Z</time>
      </trkpt>
      <trkpt lat="45.51217" lon="2.84414">
        <ele>1459.19</ele>
        <time>2017-03-24T21:35:55Z</time>
      </trkpt>
      <trkpt lat="45.51222" lon="2.84439">
        <ele>1448.913</ele>
        <time>2017-03-24T21:36:15Z</time>
      </trkpt>
      <trkpt lat="45.51213" lon="2.84508">
        <ele>1431.224</ele>
        <time>2017-03-24T21:36:35Z</time>
      </trkpt>
      <trkpt lat="45.51192" lon="2.8457">
        <ele>1423.227</ele>
        <time>2017-03-24T21:36:55Z</time>
      </trkpt>
      <trkpt lat="45.51193" lon="2.84605">
        <ele>1412.573</ele>
        <time>2017-03-24T21:37:15Z</time>
      </trkpt>
      <trkpt lat="45.51267" lon="2.84673">
        <ele>1387.887</ele>
        <time>2017-03-24T21:37:35Z</time>
      </trkpt>
      <trkpt lat="45.51303" lon="2.84641">
        <ele>1386.438</ele>
        <time>2017-03-24T21:37:55Z</time>
      </trkpt>
      <trkpt lat="45.51356" lon="2.84607">
        <ele>1390.77</ele>
        <time>2017-03-24T21:38:15Z</time>
      </trkpt>
      <trkpt lat="45.51357" lon="2.84678">
        <ele>1394.017</ele>
        <time>2017-03-24T21:38:35Z</time>
      </trkpt>
      <trkpt lat="45.51377" lon="2.8474">
        <ele>1392.008</ele>
        <time>2017-03-24T21:38:55Z</time>
      </trkpt>
      <trkpt lat="45.51411" lon="2.84738">
        <ele>1397.429</ele>
        <time>2017-03-24T21:39:15Z</time>
      </trkpt>
      <trkpt lat="45.51408" lon="2.84776">
        <ele>1392.383</ele>
        <time>2017-03-24T21:39:35Z</time>
      </trkpt>
      <trkpt lat="45.51384" lon="2.84854">
        <ele>1373.36</ele>
        <time>2017-03-24T21:39:55Z</time>
      </trkpt>
      <trkpt lat="45.51399" lon="2.84888">
        <ele>1371.173</ele>
        <time>2017-03-24T21:40:15Z</time>
      </trkpt>
      <trkpt lat="45.51365" lon="2.84967">
        <ele>1345.994</ele>
        <time>2017-03-24T21:40:35Z</time>
      </trkpt>
      <trkpt lat="45.51309" lon="2.85064">
        <ele>1325.857</ele>
        <time>2017-03-24T21:40:55Z</time>
      </trkpt>
      <trkpt lat="45.51309" lon="2.85109">
        <ele>1324.873</ele>
        <time>2017-03-24T21:41:15Z</time>
      </trkpt>
      <trkpt lat="45.51303" lon="2.85148">
        <ele>1323.067</ele>
        <time>2017-03-24T21:41:35Z</time>
      </trkpt>
      <trkpt lat="45.51317" lon="2.85182">
        <ele>1323.348</ele>
        <time>2017-03-24T21:41:55Z</time>
      </trkpt>
      <trkpt lat="45.51273" lon="2.85259">
        <ele>1310.461</ele>
        <time>2017-03-24T21:42:15Z</time>
      </trkpt>
      <trkpt lat="45.51223" lon="2.85263">
        <ele>1308.617</ele>
        <time>2017-03-24T21:42:35Z</time>
      </trkpt>
      <trkpt lat="45.51204" lon="2.85324">
        <ele>1304.008</ele>
        <time>2017-03-24T21:42:55Z</time>
      </trkpt>
      <trkpt lat="45.51208" lon="2.85381">
        <ele>1305.07</ele>
        <time>2017-03-24T21:43:15Z</time>
      </trkpt>
      <trkpt lat="45.51153" lon="2.85467">
        <ele>1302.224</ele>
        <time>2017-03-24T21:43:35Z</time>
      </trkpt>
      <trkpt lat="45.51138" lon="2.85392">
        <ele>1296.951</ele>
        <time>2017-03-24T21:43:55Z</time>
      </trkpt>
      <trkpt lat="45.51064" lon="2.85444">
        <ele>1289.914</ele>
        <time>2017-03-24T21:44:15Z</time>
      </trkpt>
      <trkpt lat="45.50996" lon="2.85439">
        <ele>1289.035</ele>
        <time>2017-03-24T21:44:35Z</time>
      </trkpt>
      <trkpt lat="45.50825" lon="2.85384">
        <ele>1285.238</ele>
        <time>2017-03-24T21:44:55Z</time>
      </trkpt>
      <trkpt lat="45.50395" lon="2.85291">
        <ele>1283.114</ele>
        <time>2017-03-24T21:45:15Z</time>
      </trkpt>
      <trkpt lat="45.50345" lon="2.85304">
        <ele>1285.278</ele>
        <time>2017-03-24T21:45:35Z</time>
      </trkpt>
      <trkpt lat="45.50256" lon="2.85268">
        <ele>1288.358</ele>
        <time>2017-03-24T21:45:55Z</time>
      </trkpt>
      <trkpt lat="45.50226" lon="2.85227">
        <ele>1289.752</ele>
        <time>2017-03-24T21:46:15Z</time>
      </trkpt>
      <trkpt lat="45.50168" lon="2.85165">
        <ele>1289.917</ele>
        <time>2017-03-24T21:46:35Z</time>
      </trkpt>
      <trkpt lat="45.50145" lon="2.85103">
        <ele>1287.908</ele>
        <time>2017-03-24T21:46:55Z</time>
      </trkpt>
      <trkpt lat="45.50153" lon="2.85075">
        <ele>1285.551</ele>
        <time>2017-03-24T21:47:15Z</time>
      </trkpt>
      <trkpt lat="45.50016" lon="2.84693">
        <ele>1284.025</ele>
        <time>2017-03-24T21:47:35Z</time>
      </trkpt>
      <trkpt lat="45.49965" lon="2.84678">
        <ele>1277.492</ele>
        <time>2017-03-24T21:47:55Z</time>
      </trkpt>
      <trkpt lat="45.49927" lon="2.84669">
        <ele>1274.685</ele>
        <time>2017-03-24T21:48:15Z</time>
      </trkpt>
      <trkpt lat="45.49886" lon="2.84611">
        <ele>1272.636</ele>
        <time>2017-03-24T21:48:35Z</time>
      </trkpt>
      <trkpt lat="45.49861" lon="2.84607">
        <ele>1269.079</ele>
        <time>2017-03-24T21:48:55Z</time>
      </trkpt>
      <trkpt lat="45.49826" lon="2.84568">
        <ele>1265.375</ele>
        <time>2017-03-24T21:49:15Z</time>
      </trkpt>
      <trkpt lat="45.49676" lon="2.84725">
        <ele>1270.969</ele>
        <time>2017-03-24T21:49:35Z</time>
      </trkpt>
      <trkpt lat="45.4955" lon="2.84819">
        <ele>1284.652</ele>
        <time>2017-03-24T21:49:55Z</time>
      </trkpt>
      <trkpt lat="45.49522" lon="2.84875">
        <ele>1290.453</ele>
        <time>2017-03-24T21:50:15Z</time>
      </trkpt>
      <trkpt lat="45.49498" lon="2.84875">
        <ele>1287.808</ele>
        <time>2017-03-24T21:50:35Z</time>
      </trkpt>
      <trkpt lat="45.49465" lon="2.84916">
        <ele>1286.908</ele>
        <time>2017-03-24T21:50:55Z</time>
      </trkpt>
      <trkpt lat="45.49404" lon="2.84926">
        <ele>1280.021</ele>
        <time>2017-03-24T21:51:15Z</time>
      </trkpt>
      <trkpt lat="45.49266" lon="2.84996">
        <ele>1270.655</ele>
        <time>2017-03-24T21:51:35Z</time>
      </trkpt>
      <trkpt lat="45.49205" lon="2.85024">
        <ele>1264.122</ele>
        <time>2017-03-24T21:51:55Z</time>
      </trkpt>
      <trkpt lat="45.49169" lon="2.85078">
        <ele>1263.185</ele>
        <time>2017-03-24T21:52:15Z</time>
      </trkpt>
      <trkpt lat="45.49115" lon="2.85152">
        <ele>1260.426</ele>
        <time>2017-03-24T21:52:35Z</time>
      </trkpt>
      <trkpt lat="45.49101" lon="2.85218">
        <ele>1254.769</ele>
        <time>2017-03-24T21:52:55Z</time>
      </trkpt>
      <trkpt lat="45.49106" lon="2.85261">
        <ele>1250.815</ele>
        <time>2017-03-24T21:53:15Z</time>
      </trkpt>
      <trkpt lat="45.49069" lon="2.85258">
        <ele>1252.139</ele>
        <time>2017-03-24T21:53:35Z</time>
      </trkpt>
      <trkpt lat="45.49028" lon="2.85232">
        <ele>1255.633</ele>
        <time>2017-03-24T21:53:55Z</time>
      </trkpt>
      <trkpt lat="45.49006" lon="2.85207">
        <ele>1254.523</ele>
        <time>2017-03-24T21:54:15Z</time>
      </trkpt>
      <trkpt lat="45.48988" lon="2.85139">
        <ele>1251.215</ele>
        <time>2017-03-24T21:54:35Z</time>
      </trkpt>
      <trkpt lat="45.48983" lon="2.85079">
        <ele>1248.108</ele>
        <time>2017-03-24T21:54:55Z</time>
      </trkpt>
      <trkpt lat="45.48951" lon="2.85083">
        <ele>1246.259</ele>
        <time>2017-03-24T21:55:15Z</time>
      </trkpt>
      <trkpt lat="45.48892" lon="2.8505">
        <ele>1251.193</ele>
        <time>2017-03-24T21:55:35Z</time>
      </trkpt>
      <trkpt lat="45.48813" lon="2.84994">
        <ele>1252.71</ele>
        <time>2017-03-24T21:55:55Z</time>
      </trkpt>
      <trkpt lat="45.48692" lon="2.84904">
        <ele>1245.773</ele>
        <time>2017-03-24T21:56:15Z</time>
      </trkpt>
      <trkpt lat="45.48638" lon="2.84875">
        <ele>1245.574</ele>
        <time>2017-03-24T21:56:35Z</time>
      </trkpt>
      <trkpt lat="45.48487" lon="2.84795">
        <ele>1233.227</ele>
        <time>2017-03-24T21:56:55Z</time>
      </trkpt>
      <trkpt lat="45.48448" lon="2.84788">
        <ele>1228.193</ele>
        <time>2017-03-24T21:57:15Z</time>
      </trkpt>
      <trkpt lat="45.48419" lon="2.84785">
        <ele>1222.227</ele>
        <time>2017-03-24T21:57:35Z</time>
      </trkpt>
      <trkpt lat="45.48437" lon="2.84696">
        <ele>1212.769</ele>
        <time>2017-03-24T21:57:55Z</time>
      </trkpt>
      <trkpt lat="45.48431" lon="2.84666">
        <ele>1206.904</ele>
        <time>2017-03-24T21:58:15Z</time>
      </trkpt>
      <trkpt lat="45.48396" lon="2.8463">
        <ele>1200.924</ele>
        <time>2017-03-24T21:58:35Z</time>
      </trkpt>
      <trkpt lat="45.48346" lon="2.846">
        <ele>1198.808</ele>
        <time>2017-03-24T21:58:55Z</time>
      </trkpt>
      <trkpt lat="45.4829" lon="2.8455">
        <ele>1196.582</ele>
        <time>2017-03-24T21:59:15Z</time>
      </trkpt>
      <trkpt lat="45.48262" lon="2.84532">
        <ele>1194.516</ele>
        <time>2017-03-24T21:59:35Z</time>
      </trkpt>
      <trkpt lat="45.48241" lon="2.84526">
        <ele>1195.193</ele>
        <time>2017-03-24T21:59:55Z</time>
      </trkpt>
      <trkpt lat="45.48226" lon="2.84511">
        <ele>1195.646</ele>
        <time>2017-03-24T22:00:15Z</time>
      </trkpt>
      <trkpt lat="45.48189" lon="2.84486">
        <ele>1195.577</ele>
        <time>2017-03-24T22:00:35Z</time>
      </trkpt>
      <trkpt lat="45.48155" lon="2.84448">
        <ele>1192.69</ele>
        <time>2017-03-24T22:00:55Z</time>
      </trkpt>
      <trkpt lat="45.4812" lon="2.8442">
        <ele>1192.546</ele>
        <time>2017-03-24T22:01:15Z</time>
      </trkpt>
      <trkpt lat="45.48073" lon="2.8435">
        <ele>1192.34</ele>
        <time>2017-03-24T22:01:35Z</time>
      </trkpt>
      <trkpt lat="45.48058" lon="2.84344">
        <ele>1192.324</ele>
        <time>2017-03-24T22:01:55Z</time>
      </trkpt>
      <trkpt lat="45.4804" lon="2.84287">
        <ele>1190.204</ele>
        <time>2017-03-24T22:02:15Z</time>
      </trkpt>
      <trkpt lat="45.48021" lon="2.84233">
        <ele>1187.414</ele>
        <time>2017-03-24T22:02:35Z</time>
      </trkpt>
      <trkpt lat="45.47981" lon="2.84201">
        <ele>1186.308</ele>
        <time>2017-03-24T22:02:55Z</time>
      </trkpt>
      <trkpt lat="45.47961" lon="2.84194">
        <ele>1185.648</ele>
        <time>2017-03-24T22:03:15Z</time>
      </trkpt>
      <trkpt lat="45.47867" lon="2.84147">
        <ele>1188.072</ele>
        <time>2017-03-24T22:03:35Z</time>
      </trkpt>
      <trkpt lat="45.47838" lon="2.84147">
        <ele>1187.239</ele>
        <time>2017-03-24T22:03:55Z</time>
      </trkpt>
      <trkpt lat="45.47757" lon="2.84198">
        <ele>1186.922</ele>
        <time>2017-03-24T22:04:15Z</time>
      </trkpt>
      <trkpt lat="45.47673" lon="2.84307">
        <ele>1186.033</ele>
        <time>2017-03-24T22:04:35Z</time>
      </trkpt>
      <trkpt lat="45.47526" lon="2.84414">
        <ele>1190.066</ele>
        <time>2017-03-24T22:04:55Z</time>
      </trkpt>
      <trkpt lat="45.47472" lon="2.84314">
        <ele>1190.022</ele>
        <time>2017-03-24T22:05:15Z</time>
      </trkpt>
      <trkpt lat="45.47421" lon="2.84259">
        <ele>1189.836</ele>
        <time>2017-03-24T22:05:35Z</time>
      </trkpt>
      <trkpt lat="45.47387" lon="2.84244">
        <ele>1190.217</ele>
        <time>2017-03-24T22:05:55Z</time>
      </trkpt>
      <trkpt lat="45.47313" lon="2.84244">
        <ele>1191.887</ele>
        <time>2017-03-24T22:06:15Z</time>
      </trkpt>
      <trkpt lat="45.47281" lon="2.84233">
        <ele>1190.115</ele>
        <time>2017-03-24T22:06:35Z</time>
      </trkpt>
      <trkpt lat="45.47203" lon="2.8417">
        <ele>1188.408</ele>
        <time>2017-03-24T22:06:55Z</time>
      </trkpt>
      <trkpt lat="45.47175" lon="2.84152">
        <ele>1187.847</ele>
        <time>2017-03-24T22:07:15Z</time>
      </trkpt>
      <trkpt lat="45.47168" lon="2.84166">
        <ele>1188.021</ele>
        <time>2017-03-24T22:07:35Z</time>
      </trkpt>
      <trkpt lat="45.47134" lon="2.84195">
        <ele>1189.028</ele>
        <time>2017-03-24T22:07:55Z</time>
      </trkpt>
      <trkpt lat="45.47114" lon="2.84239">
        <ele>1185.731</ele>
        <time>2017-03-24T22:08:15Z</time>
      </trkpt>
      <trkpt lat="45.47017" lon="2.84138">
        <ele>1186.662</ele>
        <time>2017-03-24T22:08:35Z</time>
      </trkpt>
      <trkpt lat="45.46937" lon="2.84017">
        <ele>1188.075</ele>
        <time>2017-03-24T22:08:55Z</time>
      </trkpt>
      <trkpt lat="45.46888" lon="2.83933">
        <ele>1186.611</ele>
        <time>2017-03-24T22:09:15Z</time>
      </trkpt>
      <trkpt lat="45.4685" lon="2.83817">
        <ele>1184.625</ele>
        <time>2017-03-24T22:09:35Z</time>
      </trkpt>
      <trkpt lat="45.46819" lon="2.83655">
        <ele>1188.277</ele>
        <time>2017-03-24T22:09:55Z</time>
      </trkpt>
      <trkpt lat="45.46717" lon="2.83047">
        <ele>1180.161</ele>
        <time>2017-03-24T22:10:15Z</time>
      </trkpt>
      <trkpt lat="45.46689" lon="2.8297">
        <ele>1176.727</ele>
        <time>2017-03-24T22:10:35Z</time>
      </trkpt>
      <trkpt lat="45.46598" lon="2.82826">
        <ele>1169.508</ele>
        <time>2017-03-24T22:10:55Z</time>
      </trkpt>
      <trkpt lat="45.46484" lon="2.82557">
        <ele>1169.123</ele>
        <time>2017-03-24T22:11:15Z</time>
      </trkpt>
      <trkpt lat="45.46484" lon="2.82557">
        <ele>1169.197</ele>
        <time>2017-03-24T22:11:35Z</time>
      </trkpt>
      <trkpt lat="45.46479" lon="2.825">
        <ele>1163.544</ele>
        <time>2017-03-24T22:11:55Z</time>
      </trkpt>
      <trkpt lat="45.46458" lon="2.82472">
        <ele>1160.987</ele>
        <time>2017-03-24T22:12:15Z</time>
      </trkpt>
      <trkpt lat="45.46426" lon="2.82468">
        <ele>1158.558</ele>
        <time>2017-03-24T22:12:35Z</time>
      </trkpt>
      <trkpt lat="45.46387" lon="2.82521">
        <ele>1162.211</ele>
        <time>2017-03-24T22:12:55Z</time>
      </trkpt>
      <trkpt lat="45.46313" lon="2.8256">
        <ele>1161.497</ele>
        <time>2017-03-24T22:13:15Z</time>
      </trkpt>
      <trkpt lat="45.46255" lon="2.82564">
        <ele>1162.351</ele>
        <time>2017-03-24T22:13:35Z</time>
      </trkpt>
      <trkpt lat="45.46227" lon="2.8259">
        <ele>1167.071</ele>
        <time>2017-03-24T22:13:55Z</time>
      </trkpt>
      <trkpt lat="45.46188" lon="2.82573">
        <ele>1172.141</ele>
        <time>2017-03-24T22:14:15Z</time>
      </trkpt>
      <trkpt lat="45.46157" lon="2.82513">
        <ele>1173.515</ele>
        <time>2017-03-24T22:14:35Z</time>
      </trkpt>
      <trkpt lat="45.4611" lon="2.82472">
        <ele>1178.208</ele>
        <time>2017-03-24T22:14:55Z</time>
      </trkpt>
      <trkpt lat="45.46035" lon="2.82459">
        <ele>1186.193</ele>
        <time>2017-03-24T22:15:15Z</time>
      </trkpt>
      <trkpt lat="45.4597" lon="2.82487">
        <ele>1187.017</ele>
        <time>2017-03-24T22:15:35Z</time>
      </trkpt>
      <trkpt lat="45.45926" lon="2.82498">
        <ele>1187.384</ele>
        <time>2017-03-24T22:15:55Z</time>
      </trkpt>
      <trkpt lat="45.45865" lon="2.8253">
        <ele>1183.447</ele>
        <time>2017-03-24T22:16:15Z</time>
      </trkpt>
      <trkpt lat="45.45838" lon="2.82558">
        <ele>1182.628</ele>
        <time>2017-03-24T22:16:35Z</time>
      </trkpt>
      <trkpt lat="45.45776" lon="2.82571">
        <ele>1189.521</ele>
        <time>2017-03-24T22:16:55Z</time>
      </trkpt>
      <trkpt lat="45.45707" lon="2.82603">
        <ele>1193.917</ele>
        <time>2017-03-24T22:17:15Z</time>
      </trkpt>
      <trkpt lat="45.4565" lon="2.82684">
        <ele>1194.161</ele>
        <time>2017-03-24T22:17:35Z</time>
      </trkpt>
      <trkpt lat="45.45582" lon="2.82751">
        <ele>1195.187</ele>
        <time>2017-03-24T22:17:55Z</time>
      </trkpt>
      <trkpt lat="45.4555" lon="2.82766">
        <ele>1197.942</ele>
        <time>2017-03-24T22:18:15Z</time>
      </trkpt>
      <trkpt lat="45.45553" lon="2.82798">
        <ele>1196.426</ele>
        <time>2017-03-24T22:18:35Z</time>
      </trkpt>
      <trkpt lat="45.45522" lon="2.82862">
        <ele>1202.708</ele>
        <time>2017-03-24T22:18:55Z</time>
      </trkpt>
      <trkpt lat="45.45511" lon="2.82927">
        <ele>1199.594</ele>
        <time>2017-03-24T22:19:15Z</time>
      </trkpt>
      <trkpt lat="45.45487" lon="2.82993">
        <ele>1203.058</ele>
        <time>2017-03-24T22:19:35Z</time>
      </trkpt>
      <trkpt lat="45.4549" lon="2.83133">
        <ele>1203.445</ele>
        <time>2017-03-24T22:19:55Z</time>
      </trkpt>
      <trkpt lat="45.45484" lon="2.83182">
        <ele>1205.788</ele>
        <time>2017-03-24T22:20:15Z</time>
      </trkpt>
      <trkpt lat="45.45475" lon="2.83375">
        <ele>1202.359</ele>
        <time>2017-03-24T22:20:35Z</time>
      </trkpt>
      <trkpt lat="45.45493" lon="2.83482">
        <ele>1194.422</ele>
        <time>2017-03-24T22:20:55Z</time>
      </trkpt>
      <trkpt lat="45.45475" lon="2.83534">
        <ele>1195.088</ele>
        <time>2017-03-24T22:21:15Z</time>
      </trkpt>
      <trkpt lat="45.45415" lon="2.83543">
        <ele>1202.772</ele>
        <time>2017-03-24T22:21:35Z</time>
      </trkpt>
      <trkpt lat="45.45347" lon="2.83598">
        <ele>1196.289</ele>
        <time>2017-03-24T22:21:55Z</time>
      </trkpt>
      <trkpt lat="45.45303" lon="2.83607">
        <ele>1199.906</ele>
        <time>2017-03-24T22:22:15Z</time>
      </trkpt>
      <trkpt lat="45.45177" lon="2.83555">
        <ele>1195.426</ele>
        <time>2017-03-24T22:22:35Z</time>
      </trkpt>
      <trkpt lat="45.45156" lon="2.83508">
        <ele>1195.808</ele>
        <time>2017-03-24T22:22:55Z</time>
      </trkpt>
      <trkpt lat="45.45099" lon="2.8349">
        <ele>1191.834</ele>
        <time>2017-03-24T22:23:15Z</time>
      </trkpt>
      <trkpt lat="45.45036" lon="2.83448">
        <ele>1188.728</ele>
        <time>2017-03-24T22:23:35Z</time>
      </trkpt>
      <trkpt lat="45.4501" lon="2.83441">
        <ele>1188.155</ele>
        <time>2017-03-24T22:23:55Z</time>
      </trkpt>
      <trkpt lat="45.44951" lon="2.83397">
        <ele>1185.738</ele>
        <time>2017-03-24T22:24:15Z</time>
      </trkpt>
      <trkpt lat="45.44914" lon="2.83363">
        <ele>1185.169</ele>
        <time>2017-03-24T22:24:35Z</time>
      </trkpt>
      <trkpt lat="45.44882" lon="2.83351">
        <ele>1186.432</ele>
        <time>2017-03-24T22:24:55Z</time>
      </trkpt>
      <trkpt lat="45.44808" lon="2.8336">
        <ele>1185.318</ele>
        <time>2017-03-24T22:25:15Z</time>
      </trkpt>
      <trkpt lat="45.44764" lon="2.83353">
        <ele>1183.142</ele>
        <time>2017-03-24T22:25:35Z</time>
      </trkpt>
      <trkpt lat="45.44746" lon="2.83342">
        <ele>1183.114</ele>
        <time>2017-03-24T22:25:55Z</time>
      </trkpt>
      <trkpt lat="45.44673" lon="2.83342">
        <ele>1184.754</ele>
        <time>2017-03-24T22:26:15Z</time>
      </trkpt>
      <trkpt lat="45.4459" lon="2.8333">
        <ele>1183.509</ele>
        <time>2017-03-24T22:26:35Z</time>
      </trkpt>
      <trkpt lat="45.44529" lon="2.83329">
        <ele>1180.708</ele>
        <time>2017-03-24T22:26:55Z</time>
      </trkpt>
      <trkpt lat="45.44488" lon="2.8334">
        <ele>1181.397</ele>
        <time>2017-03-24T22:27:15Z</time>
      </trkpt>
      <trkpt lat="45.44401" lon="2.83314">
        <ele>1179.151</ele>
        <time>2017-03-24T22:27:35Z</time>
      </trkpt>
      <trkpt lat="45.44367" lon="2.8332">
        <ele>1173.688</ele>
        <time>2017-03-24T22:27:55Z</time>
      </trkpt>
      <trkpt lat="45.44341" lon="2.83313">
        <ele>1168.291</ele>
        <time>2017-03-24T22:28:15Z</time>
      </trkpt>
      <trkpt lat="45.44287" lon="2.83316">
        <ele>1158.592</ele>
        <time>2017-03-24T22:28:35Z</time>
      </trkpt>
      <trkpt lat="45.44267" lon="2.83309">
        <ele>1156.985</ele>
        <time>2017-03-24T22:28:55Z</time>
      </trkpt>
      <trkpt lat="45.44222" lon="2.83334">
        <ele>1155.911</ele>
        <time>2017-03-24T22:29:15Z</time>
      </trkpt>
      <trkpt lat="45.4419" lon="2.83335">
        <ele>1153.085</ele>
        <time>2017-03-24T22:29:35Z</time>
      </trkpt>
      <trkpt lat="45.44174" lon="2.83342">
        <ele>1149.511</ele>
        <time>2017-03-24T22:29:55Z</time>
      </trkpt>
      <trkpt lat="45.44143" lon="2.83329">
        <ele>1148.021</ele>
        <time>2017-03-24T22:30:15Z</time>
      </trkpt>
      <trkpt lat="45.44126" lon="2.83318">
        <ele>1147.403</ele>
        <time>2017-03-24T22:30:35Z</time>
      </trkpt>
      <trkpt lat="45.44073" lon="2.8334">
        <ele>1145.508</ele>
        <time>2017-03-24T22:30:55Z</time>
      </trkpt>
      <trkpt lat="45.44022" lon="2.83377">
        <ele>1138.067</ele>
        <time>2017-03-24T22:31:15Z</time>
      </trkpt>
      <trkpt lat="45.43954" lon="2.83389">
        <ele>1124.871</ele>
        <time>2017-03-24T22:31:35Z</time>
      </trkpt>
      <trkpt lat="45.4393" lon="2.83322">
        <ele>1122.638</ele>
        <time>2017-03-24T22:31:55Z</time>
      </trkpt>
      <trkpt lat="45.43914" lon="2.83297">
        <ele>1122.571</ele>
        <time>2017-03-24T22:32:15Z</time>
      </trkpt>
      <trkpt lat="45.43866" lon="2.83268">
        <ele>1124.252</ele>
        <time>2017-03-24T22:32:35Z</time>
      </trkpt>
      <trkpt lat="45.43824" lon="2.83262">
        <ele>1126.265</ele>
        <time>2017-03-24T22:32:55Z</time>
      </trkpt>
      <trkpt lat="45.43786" lon="2.83275">
        <ele>1125.491</ele>
        <time>2017-03-24T22:33:15Z</time>
      </trkpt>
      <trkpt lat="45.43752" lon="2.83278">
        <ele>1125.075</ele>
        <time>2017-03-24T22:33:35Z</time>
      </trkpt>
      <trkpt lat="45.4371" lon="2.83242">
        <ele>1128.455</ele>
        <time>2017-03-24T22:33:55Z</time>
      </trkpt>
      <trkpt lat="45.43623" lon="2.83188">
        <ele>1126.707</ele>
        <time>2017-03-24T22:34:15Z</time>
      </trkpt>
      <trkpt lat="45.43513" lon="2.83132">
        <ele>1128.717</ele>
        <time>2017-03-24T22:34:35Z</time>
      </trkpt>
      <trkpt lat="45.43479" lon="2.83037">
        <ele>1127.108</ele>
        <time>2017-03-24T22:34:55Z</time>
      </trkpt>
      <trkpt lat="45.43453" lon="2.83015">
        <ele>1123.941</ele>
        <time>2017-03-24T22:35:15Z</time>
      </trkpt>
      <trkpt lat="45.43345" lon="2.82981">
        <ele>1114.245</ele>
        <time>2017-03-24T22:35:35Z</time>
      </trkpt>
      <trkpt lat="45.43324" lon="2.82968">
        <ele>1112.552</ele>
        <time>2017-03-24T22:35:55Z</time>
      </trkpt>
      <trkpt lat="45.43269" lon="2.82961">
        <ele>1108.045</ele>
        <time>2017-03-24T22:36:15Z</time>
      </trkpt>
      <trkpt lat="45.432" lon="2.82866">
        <ele>1102.366</ele>
        <time>2017-03-24T22:36:35Z</time>
      </trkpt>
      <trkpt lat="45.43177" lon="2.82854">
        <ele>1101.759</ele>
        <time>2017-03-24T22:36:55Z</time>
      </trkpt>
      <trkpt lat="45.43143" lon="2.82808">
        <ele>1102.115</ele>
        <time>2017-03-24T22:37:15Z</time>
      </trkpt>
      <trkpt lat="45.43097" lon="2.82764">
        <ele>1103.099</ele>
        <time>2017-03-24T22:37:35Z</time>
      </trkpt>
      <trkpt lat="45.42982" lon="2.82765">
        <ele>1094.961</ele>
        <time>2017-03-24T22:37:55Z</time>
      </trkpt>
      <trkpt lat="45.42893" lon="2.82788">
        <ele>1090.221</ele>
        <time>2017-03-24T22:38:15Z</time>
      </trkpt>
      <trkpt lat="45.42847" lon="2.82781">
        <ele>1088.513</ele>
        <time>2017-03-24T22:38:35Z</time>
      </trkpt>
      <trkpt lat="45.42796" lon="2.82786">
        <ele>1087.208</ele>
        <time>2017-03-24T22:38:55Z</time>
      </trkpt>
      <trkpt lat="45.42771" lon="2.82753">
        <ele>1087.052</ele>
        <time>2017-03-24T22:39:15Z</time>
      </trkpt>
      <trkpt lat="45.427" lon="2.82706">
        <ele>1084.626</ele>
        <time>2017-03-24T22:39:35Z</time>
      </trkpt>
      <trkpt lat="45.4259" lon="2.82658">
        <ele>1080.273</ele>
        <time>2017-03-24T22:39:55Z</time>
      </trkpt>
      <trkpt lat="45.42566" lon="2.82634">
        <ele>1081.956</ele>
        <time>2017-03-24T22:40:15Z</time>
      </trkpt>
      <trkpt lat="45.42479" lon="2.82601">
        <ele>1079.767</ele>
        <time>2017-03-24T22:40:35Z</time>
      </trkpt>
      <trkpt lat="45.42428" lon="2.82551">
        <ele>1077.56</ele>
        <time>2017-03-24T22:40:55Z</time>
      </trkpt>
      <trkpt lat="45.42361" lon="2.82504">
        <ele>1077.716</ele>
        <time>2017-03-24T22:41:15Z</time>
      </trkpt>
      <trkpt lat="45.42332" lon="2.82458">
        <ele>1076.44</ele>
        <time>2017-03-24T22:41:35Z</time>
      </trkpt>
      <trkpt lat="45.42312" lon="2.82389">
        <ele>1077.081</ele>
        <time>2017-03-24T22:41:55Z</time>
      </trkpt>
      <trkpt lat="45.42297" lon="2.82364">
        <ele>1077.361</ele>
        <time>2017-03-24T22:42:15Z</time>
      </trkpt>
      <trkpt lat="45.42223" lon="2.82337">
        <ele>1078.117</ele>
        <time>2017-03-24T22:42:35Z</time>
      </trkpt>
      <trkpt lat="45.42173" lon="2.82326">
        <ele>1076.908</ele>
        <time>2017-03-24T22:42:55Z</time>
      </trkpt>
      <trkpt lat="45.42081" lon="2.823">
        <ele>1075.984</ele>
        <time>2017-03-24T22:43:15Z</time>
      </trkpt>
      <trkpt lat="45.42021" lon="2.82296">
        <ele>1073.858</ele>
        <time>2017-03-24T22:43:35Z</time>
      </trkpt>
      <trkpt lat="45.41968" lon="2.82279">
        <ele>1074.065</ele>
        <time>2017-03-24T22:43:55Z</time>
      </trkpt>
      <trkpt lat="45.41928" lon="2.82281">
        <ele>1073.428</ele>
        <time>2017-03-24T22:44:15Z</time>
      </trkpt>
      <trkpt lat="45.41895" lon="2.8227">
        <ele>1071.299</ele>
        <time>2017-03-24T22:44:35Z</time>
      </trkpt>
      <trkpt lat="45.41855" lon="2.82241">
        <ele>1070.012</ele>
        <time>2017-03-24T22:44:55Z</time>
      </trkpt>
      <trkpt lat="45.41789" lon="2.82219">
        <ele>1070.158</ele>
        <time>2017-03-24T22:45:15Z</time>
      </trkpt>
      <trkpt lat="45.41789" lon="2.82219">
        <ele>1070.152</ele>
        <time>2017-03-24T22:45:35Z</time>
      </trkpt>
      <trkpt lat="45.41711" lon="2.82221">
        <ele>1072.192</ele>
        <time>2017-03-24T22:45:55Z</time>
      </trkpt>
      <trkpt lat="45.41673" lon="2.82197">
        <ele>1071.473</ele>
        <time>2017-03-24T22:46:15Z</time>
      </trkpt>
      <trkpt lat="45.41637" lon="2.82197">
        <ele>1070.82</ele>
        <time>2017-03-24T22:46:35Z</time>
      </trkpt>
      <trkpt lat="45.41628" lon="2.82229">
        <ele>1069.208</ele>
        <time>2017-03-24T22:46:55Z</time>
      </trkpt>
      <trkpt lat="45.41577" lon="2.82277">
        <ele>1062.625</ele>
        <time>2017-03-24T22:47:15Z</time>
      </trkpt>
      <trkpt lat="45.4154" lon="2.82326">
        <ele>1058.679</ele>
        <time>2017-03-24T22:47:35Z</time>
      </trkpt>
      <trkpt lat="45.41483" lon="2.82382">
        <ele>1058.086</ele>
        <time>2017-03-24T22:47:55Z</time>
      </trkpt>
      <trkpt lat="45.41458" lon="2.82384">
        <ele>1058.029</ele>
        <time>2017-03-24T22:48:15Z</time>
      </trkpt>
      <trkpt lat="45.41418" lon="2.8233">
        <ele>1055.05</ele>
        <time>2017-03-24T22:48:35Z</time>
      </trkpt>
      <trkpt lat="45.4128" lon="2.82354">
        <ele>1049.533</ele>
        <time>2017-03-24T22:48:55Z</time>
      </trkpt>
      <trkpt lat="45.41223" lon="2.82345">
        <ele>1044.789</ele>
        <time>2017-03-24T22:49:15Z</time>
      </trkpt>
      <trkpt lat="45.41123" lon="2.82307">
        <ele>1026.963</ele>
        <time>2017-03-24T22:49:35Z</time>
      </trkpt>
      <trkpt lat="45.41069" lon="2.82334">
        <ele>1019.035</ele>
        <time>2017-03-24T22:49:55Z</time>
      </trkpt>
      <trkpt lat="45.41051" lon="2.82377">
        <ele>1015.886</ele>
        <time>2017-03-24T22:50:15Z</time>
      </trkpt>
      <trkpt lat="45.41048" lon="2.82502">
        <ele>1010.814</ele>
        <time>2017-03-24T22:50:35Z</time>
      </trkpt>
      <trkpt lat="45.41039" lon="2.82581">
        <ele>1000.708</ele>
        <time>2017-03-24T22:50:55Z</time>
      </trkpt>
      <trkpt lat="45.4101" lon="2.82646">
        <ele>986.919</ele>
        <time>2017-03-24T22:51:15Z</time>
      </trkpt>
      <trkpt lat="45.40951" lon="2.82571">
        <ele>975.393</ele>
        <time>2017-03-24T22:51:35Z</time>
      </trkpt>
      <trkpt lat="45.40948" lon="2.82493">
        <ele>975.88</ele>
        <time>2017-03-24T22:51:55Z</time>
      </trkpt>
      <trkpt lat="45.40935" lon="2.82472">
        <ele>973.623</ele>
        <time>2017-03-24T22:52:15Z</time>
      </trkpt>
      <trkpt lat="45.40905" lon="2.82465">
        <ele>967.764</ele>
        <time>2017-03-24T22:52:35Z</time>
      </trkpt>
      <trkpt lat="45.4089" lon="2.82502">
        <ele>964.067</ele>
        <time>2017-03-24T22:52:55Z</time>
      </trkpt>
      <trkpt lat="45.40908" lon="2.82605">
        <ele>962.533</ele>
        <time>2017-03-24T22:53:15Z</time>
      </trkpt>
      <trkpt lat="45.40777" lon="2.82738">
        <ele>956.097</ele>
        <time>2017-03-24T22:53:35Z</time>
      </trkpt>
      <trkpt lat="45.40752" lon="2.82694">
        <ele>956.965</ele>
        <time>2020-02-19T19:19:13Z</time>
      </trkpt>
      <trkpt lat="45.40773" lon="2.82656">
        <ele>956.068</ele>
        <time>2020-02-19T19:19:33Z</time>
      </trkpt>
      <trkpt lat="45.40788" lon="2.82602">
        <ele>955.614</ele>
        <time>2017-03-24T14:34:45Z</time>
      </trkpt>
      <trkpt lat="45.40788" lon="2.82602">
        <ele>955.608</ele>
        <time>2017-03-24T14:34:45Z</time>
      </trkpt>
      <trkpt lat="45.40794" lon="2.82556">
        <ele>955.452</ele>
        <time>2017-03-24T14:35:05Z</time>
      </trkpt>
      <trkpt lat="45.40788" lon="2.82488">
        <ele>953.386</ele>
        <time>2017-03-24T14:35:25Z</time>
      </trkpt>
      <trkpt lat="45.40754" lon="2.8238">
        <ele>950.513</ele>
        <time>2017-03-24T14:35:45Z</time>
      </trkpt>
      <trkpt lat="45.40767" lon="2.82312">
        <ele>956.346</ele>
        <time>2017-03-24T14:36:05Z</time>
      </trkpt>
      <trkpt lat="45.40738" lon="2.82226">
        <ele>961.857</ele>
        <time>2017-03-24T14:36:25Z</time>
      </trkpt>
      <trkpt lat="45.40719" lon="2.82128">
        <ele>965.62</ele>
        <time>2017-03-24T14:36:45Z</time>
      </trkpt>
      <trkpt lat="45.40687" lon="2.82083">
        <ele>968.856</ele>
        <time>2017-03-24T14:37:05Z</time>
      </trkpt>
      <trkpt lat="45.40674" lon="2.81987">
        <ele>977.41</ele>
        <time>2017-03-24T14:37:25Z</time>
      </trkpt>
      <trkpt lat="45.40638" lon="2.81864">
        <ele>989.978</ele>
        <time>2017-03-24T14:37:45Z</time>
      </trkpt>
      <trkpt lat="45.40599" lon="2.81795">
        <ele>992.533</ele>
        <time>2017-03-24T14:38:05Z</time>
      </trkpt>
      <trkpt lat="45.40585" lon="2.81721">
        <ele>998.026</ele>
        <time>2017-03-24T14:38:25Z</time>
      </trkpt>
      <trkpt lat="45.40588" lon="2.81668">
        <ele>999.208</ele>
        <time>2017-03-24T14:38:45Z</time>
      </trkpt>
      <trkpt lat="45.40574" lon="2.81643">
        <ele>998.763</ele>
        <time>2017-03-24T14:39:05Z</time>
      </trkpt>
      <trkpt lat="45.40532" lon="2.8166">
        <ele>997.367</ele>
        <time>2017-03-24T14:39:25Z</time>
      </trkpt>
      <trkpt lat="45.40461" lon="2.81656">
        <ele>999.564</ele>
        <time>2017-03-24T14:39:45Z</time>
      </trkpt>
      <trkpt lat="45.40416" lon="2.81666">
        <ele>1007.147</ele>
        <time>2017-03-24T14:40:05Z</time>
      </trkpt>
      <trkpt lat="45.40337" lon="2.81732">
        <ele>1010.768</ele>
        <time>2017-03-24T14:40:25Z</time>
      </trkpt>
      <trkpt lat="45.40254" lon="2.81541">
        <ele>1018.041</ele>
        <time>2017-03-24T14:40:45Z</time>
      </trkpt>
      <trkpt lat="45.40161" lon="2.81412">
        <ele>1016.687</ele>
        <time>2017-03-24T14:41:05Z</time>
      </trkpt>
      <trkpt lat="45.40092" lon="2.81223">
        <ele>1016.691</ele>
        <time>2017-03-24T14:41:25Z</time>
      </trkpt>
      <trkpt lat="45.40061" lon="2.81175">
        <ele>1023.225</ele>
        <time>2017-03-24T14:41:45Z</time>
      </trkpt>
      <trkpt lat="45.40017" lon="2.81092">
        <ele>1033.326</ele>
        <time>2017-03-24T14:42:05Z</time>
      </trkpt>
      <trkpt lat="45.39952" lon="2.80944">
        <ele>1043.208</ele>
        <time>2017-03-24T14:42:25Z</time>
      </trkpt>
      <trkpt lat="45.39915" lon="2.809">
        <ele>1053.608</ele>
        <time>2017-03-24T14:42:45Z</time>
      </trkpt>
      <trkpt lat="45.39879" lon="2.80801">
        <ele>1058.638</ele>
        <time>2017-03-24T14:43:05Z</time>
      </trkpt>
      <trkpt lat="45.39829" lon="2.80621">
        <ele>1058.832</ele>
        <time>2017-03-24T14:43:25Z</time>
      </trkpt>
      <trkpt lat="45.39796" lon="2.80522">
        <ele>1055.959</ele>
        <time>2017-03-24T14:43:45Z</time>
      </trkpt>
      <trkpt lat="45.39779" lon="2.80334">
        <ele>1054.822</ele>
        <time>2017-03-24T14:44:05Z</time>
      </trkpt>
      <trkpt lat="45.39774" lon="2.80123">
        <ele>1051.393</ele>
        <time>2017-03-24T14:44:25Z</time>
      </trkpt>
      <trkpt lat="45.39765" lon="2.8005">
        <ele>1052.296</ele>
        <time>2017-03-24T14:44:45Z</time>
      </trkpt>
      <trkpt lat="45.39771" lon="2.79974">
        <ele>1051.542</ele>
        <time>2017-03-24T14:45:05Z</time>
      </trkpt>
      <trkpt lat="45.39764" lon="2.79903">
        <ele>1048.026</ele>
        <time>2017-03-24T14:45:25Z</time>
      </trkpt>
      <trkpt lat="45.39747" lon="2.79801">
        <ele>1043.614</ele>
        <time>2020-02-15T15:58:16Z</time>
      </trkpt>
      <trkpt lat="45.3973" lon="2.79751">
        <ele>1048.254</ele>
        <time>2020-02-15T15:58:36Z</time>
      </trkpt>
      <trkpt lat="45.39708" lon="2.79724">
        <ele>1048.009</ele>
        <time>2020-02-15T15:58:56Z</time>
      </trkpt>
      <trkpt lat="45.39695" lon="2.79699">
        <ele>1048.008</ele>
        <time>2020-02-15T15:59:16Z</time>
      </trkpt>
      <trkpt lat="45.39655" lon="2.79673">
        <ele>1050.187</ele>
        <time>2020-02-15T15:59:36Z</time>
      </trkpt>
      <trkpt lat="45.39543" lon="2.79667">
        <ele>1052.481</ele>
        <time>2020-02-15T15:59:56Z</time>
      </trkpt>
      <trkpt lat="45.39509" lon="2.79631">
        <ele>1053.238</ele>
        <time>2020-02-15T16:00:16Z</time>
      </trkpt>
      <trkpt lat="45.39436" lon="2.79658">
        <ele>1050.781</ele>
        <time>2020-02-15T16:00:36Z</time>
      </trkpt>
      <trkpt lat="45.39393" lon="2.79698">
        <ele>1051.082</ele>
        <time>2020-02-15T16:00:56Z</time>
      </trkpt>
      <trkpt lat="45.3937" lon="2.79678">
        <ele>1052.965</ele>
        <time>2017-03-24T14:47:45Z</time>
      </trkpt>
      <trkpt lat="45.39347" lon="2.7963">
        <ele>1056.331</ele>
        <time>2017-03-24T14:48:05Z</time>
      </trkpt>
      <trkpt lat="45.39288" lon="2.79551">
        <ele>1061.915</ele>
        <time>2017-03-24T14:48:25Z</time>
      </trkpt>
      <trkpt lat="45.39128" lon="2.79204">
        <ele>1059.036</ele>
        <time>2017-03-24T14:48:45Z</time>
      </trkpt>
      <trkpt lat="45.39069" lon="2.79049">
        <ele>1058.017</ele>
        <time>2017-03-24T14:49:05Z</time>
      </trkpt>
      <trkpt lat="45.38968" lon="2.78573">
        <ele>1055.818</ele>
        <time>2017-03-24T14:49:25Z</time>
      </trkpt>
      <trkpt lat="45.3894" lon="2.78524">
        <ele>1061.408</ele>
        <time>2017-03-24T14:49:45Z</time>
      </trkpt>
      <trkpt lat="45.38885" lon="2.78281">
        <ele>1059.799</ele>
        <time>2017-03-24T14:50:05Z</time>
      </trkpt>
      <trkpt lat="45.3886" lon="2.78248">
        <ele>1061.293</ele>
        <time>2017-03-24T14:50:25Z</time>
      </trkpt>
      <trkpt lat="45.38814" lon="2.78162">
        <ele>1069.89</ele>
        <time>2017-03-24T14:50:45Z</time>
      </trkpt>
      <trkpt lat="45.38797" lon="2.78132">
        <ele>1072.523</ele>
        <time>2017-03-24T14:51:05Z</time>
      </trkpt>
      <trkpt lat="45.38758" lon="2.78098">
        <ele>1075.314</ele>
        <time>2017-03-24T14:51:25Z</time>
      </trkpt>
      <trkpt lat="45.38691" lon="2.78066">
        <ele>1079.987</ele>
        <time>2017-03-24T14:51:45Z</time>
      </trkpt>
      <trkpt lat="45.38662" lon="2.78041">
        <ele>1081.683</ele>
        <time>2017-03-24T14:52:05Z</time>
      </trkpt>
      <trkpt lat="45.38634" lon="2.78037">
        <ele>1082.587</ele>
        <time>2017-03-24T14:52:25Z</time>
      </trkpt>
      <trkpt lat="45.3863" lon="2.77975">
        <ele>1084.381</ele>
        <time>2017-03-24T14:52:45Z</time>
      </trkpt>
      <trkpt lat="45.38634" lon="2.77858">
        <ele>1080.661</ele>
        <time>2017-03-24T14:53:05Z</time>
      </trkpt>
      <trkpt lat="45.38627" lon="2.77804">
        <ele>1082.117</ele>
        <time>2017-03-24T14:53:25Z</time>
      </trkpt>
      <trkpt lat="45.38581" lon="2.77837">
        <ele>1089.108</ele>
        <time>2017-03-24T14:53:45Z</time>
      </trkpt>
      <trkpt lat="45.38548" lon="2.77837">
        <ele>1091.884</ele>
        <time>2017-03-24T14:54:05Z</time>
      </trkpt>
      <trkpt lat="45.3852" lon="2.77838">
        <ele>1092.238</ele>
        <time>2017-03-24T14:54:25Z</time>
      </trkpt>
      <trkpt lat="45.38481" lon="2.77844">
        <ele>1094.975</ele>
        <time>2017-03-24T14:54:45Z</time>
      </trkpt>
      <trkpt lat="45.38424" lon="2.77864">
        <ele>1094.998</ele>
        <time>2017-03-24T14:55:05Z</time>
      </trkpt>
      <trkpt lat="45.38386" lon="2.77864">
        <ele>1094.929</ele>
        <time>2017-03-24T14:55:25Z</time>
      </trkpt>
      <trkpt lat="45.38272" lon="2.77828">
        <ele>1098.352</ele>
        <time>2017-03-24T14:55:45Z</time>
      </trkpt>
      <trkpt lat="45.38266" lon="2.77802">
        <ele>1100.178</ele>
        <time>2017-03-24T14:56:05Z</time>
      </trkpt>
      <trkpt lat="45.38234" lon="2.7776">
        <ele>1103.292</ele>
        <time>2017-03-24T14:56:25Z</time>
      </trkpt>
      <trkpt lat="45.38223" lon="2.77736">
        <ele>1106.527</ele>
        <time>2017-03-24T14:56:45Z</time>
      </trkpt>
      <trkpt lat="45.38209" lon="2.77721">
        <ele>1108.168</ele>
        <time>2017-03-24T14:57:05Z</time>
      </trkpt>
      <trkpt lat="45.38195" lon="2.77737">
        <ele>1106.914</ele>
        <time>2017-03-24T14:57:25Z</time>
      </trkpt>
      <trkpt lat="45.38182" lon="2.77757">
        <ele>1104.708</ele>
        <time>2017-03-24T14:57:45Z</time>
      </trkpt>
      <trkpt lat="45.38171" lon="2.77801">
        <ele>1098.038</ele>
        <time>2017-03-24T14:58:05Z</time>
      </trkpt>
      <trkpt lat="45.3798" lon="2.77773">
        <ele>1091.742</ele>
        <time>2017-03-24T14:58:25Z</time>
      </trkpt>
      <trkpt lat="45.37955" lon="2.77812">
        <ele>1088.569</ele>
        <time>2017-03-24T14:58:45Z</time>
      </trkpt>
      <trkpt lat="45.37917" lon="2.77847">
        <ele>1083.532</ele>
        <time>2017-03-24T14:59:05Z</time>
      </trkpt>
      <trkpt lat="45.37871" lon="2.77912">
        <ele>1086.263</ele>
        <time>2017-03-24T14:59:25Z</time>
      </trkpt>
      <trkpt lat="45.37792" lon="2.7792">
        <ele>1078.216</ele>
        <time>2017-03-24T14:59:45Z</time>
      </trkpt>
      <trkpt lat="45.3776" lon="2.77938">
        <ele>1076.562</ele>
        <time>2017-03-24T15:00:05Z</time>
      </trkpt>
      <trkpt lat="45.37719" lon="2.77903">
        <ele>1071.556</ele>
        <time>2017-03-24T15:00:25Z</time>
      </trkpt>
      <trkpt lat="45.3767" lon="2.77886">
        <ele>1070.094</ele>
        <time>2017-03-24T15:00:45Z</time>
      </trkpt>
      <trkpt lat="45.37632" lon="2.77803">
        <ele>1066.757</ele>
        <time>2017-03-24T15:01:05Z</time>
      </trkpt>
      <trkpt lat="45.37619" lon="2.77728">
        <ele>1065.222</ele>
        <time>2017-03-24T15:01:25Z</time>
      </trkpt>
      <trkpt lat="45.37587" lon="2.77648">
        <ele>1063.408</ele>
        <time>2017-03-24T15:01:45Z</time>
      </trkpt>
      <trkpt lat="45.37523" lon="2.77527">
        <ele>1064.115</ele>
        <time>2017-03-24T15:02:05Z</time>
      </trkpt>
      <trkpt lat="45.37429" lon="2.77408">
        <ele>1057.669</ele>
        <time>2017-03-24T15:02:25Z</time>
      </trkpt>
      <trkpt lat="45.37403" lon="2.77414">
        <ele>1056.016</ele>
        <time>2017-03-24T15:02:45Z</time>
      </trkpt>
      <trkpt lat="45.37392" lon="2.77405">
        <ele>1055.249</ele>
        <time>2017-03-24T15:03:05Z</time>
      </trkpt>
      <trkpt lat="45.37364" lon="2.77473">
        <ele>1052.39</ele>
        <time>2017-03-24T15:03:25Z</time>
      </trkpt>
      <trkpt lat="45.37372" lon="2.776">
        <ele>1056.343</ele>
        <time>2017-03-24T15:03:45Z</time>
      </trkpt>
      <trkpt lat="45.37318" lon="2.77638">
        <ele>1051.819</ele>
        <time>2017-03-24T15:04:05Z</time>
      </trkpt>
      <trkpt lat="45.37212" lon="2.77663">
        <ele>1045.033</ele>
        <time>2017-03-24T15:04:25Z</time>
      </trkpt>
      <trkpt lat="45.37181" lon="2.7779">
        <ele>1046.879</ele>
        <time>2020-02-15T16:18:16Z</time>
      </trkpt>
      <trkpt lat="45.37136" lon="2.77937">
        <ele>1035.005</ele>
        <time>2020-02-15T16:18:36Z</time>
      </trkpt>
      <trkpt lat="45.37145" lon="2.78096">
        <ele>1031.125</ele>
        <time>2017-03-24T15:05:25Z</time>
      </trkpt>
      <trkpt lat="45.37061" lon="2.78127">
        <ele>1026.008</ele>
        <time>2017-03-24T15:05:45Z</time>
      </trkpt>
      <trkpt lat="45.36896" lon="2.78123">
        <ele>1020.683</ele>
        <time>2017-03-24T15:06:05Z</time>
      </trkpt>
      <trkpt lat="45.36772" lon="2.78138">
        <ele>1023.857</ele>
        <time>2017-03-24T15:06:25Z</time>
      </trkpt>
      <trkpt lat="45.36696" lon="2.78099">
        <ele>1025.914</ele>
        <time>2017-03-24T15:06:45Z</time>
      </trkpt>
      <trkpt lat="45.36649" lon="2.78104">
        <ele>1027.367</ele>
        <time>2017-03-24T15:07:05Z</time>
      </trkpt>
      <trkpt lat="45.36585" lon="2.78126">
        <ele>1028.458</ele>
        <time>2017-03-24T15:07:25Z</time>
      </trkpt>
      <trkpt lat="45.36522" lon="2.78107">
        <ele>1030.111</ele>
        <time>2017-03-24T15:07:45Z</time>
      </trkpt>
      <trkpt lat="45.36513" lon="2.78072">
        <ele>1032.817</ele>
        <time>2017-03-24T15:08:05Z</time>
      </trkpt>
      <trkpt lat="45.36524" lon="2.77977">
        <ele>1038.491</ele>
        <time>2017-03-24T15:08:25Z</time>
      </trkpt>
      <trkpt lat="45.36516" lon="2.77829">
        <ele>1042.349</ele>
        <time>2017-03-24T15:08:45Z</time>
      </trkpt>
      <trkpt lat="45.36471" lon="2.77706">
        <ele>1046.202</ele>
        <time>2017-03-24T15:09:05Z</time>
      </trkpt>
      <trkpt lat="45.36459" lon="2.77611">
        <ele>1049.022</ele>
        <time>2017-03-24T15:09:25Z</time>
      </trkpt>
      <trkpt lat="45.36413" lon="2.77548">
        <ele>1053.008</ele>
        <time>2017-03-24T15:09:45Z</time>
      </trkpt>
      <trkpt lat="45.36367" lon="2.77458">
        <ele>1050.24</ele>
        <time>2017-03-24T15:10:05Z</time>
      </trkpt>
      <trkpt lat="45.36372" lon="2.77428">
        <ele>1051.864</ele>
        <time>2017-03-24T15:10:25Z</time>
      </trkpt>
      <trkpt lat="45.36436" lon="2.7736">
        <ele>1055.481</ele>
        <time>2017-03-24T15:10:45Z</time>
      </trkpt>
      <trkpt lat="45.36463" lon="2.7732">
        <ele>1055.044</ele>
        <time>2017-03-24T15:11:05Z</time>
      </trkpt>
      <trkpt lat="45.36516" lon="2.77272">
        <ele>1053.075</ele>
        <time>2017-03-24T15:11:25Z</time>
      </trkpt>
      <trkpt lat="45.36523" lon="2.77238">
        <ele>1052.728</ele>
        <time>2017-03-24T15:11:45Z</time>
      </trkpt>
      <trkpt lat="45.36498" lon="2.77099">
        <ele>1055.564</ele>
        <time>2017-03-24T15:12:05Z</time>
      </trkpt>
      <trkpt lat="45.36453" lon="2.7694">
        <ele>1055.438</ele>
        <time>2017-03-24T15:12:25Z</time>
      </trkpt>
      <trkpt lat="45.36454" lon="2.76882">
        <ele>1055.331</ele>
        <time>2017-03-24T15:12:45Z</time>
      </trkpt>
      <trkpt lat="45.3643" lon="2.76794">
        <ele>1054.461</ele>
        <time>2017-03-24T15:13:05Z</time>
      </trkpt>
      <trkpt lat="45.36432" lon="2.76705">
        <ele>1051.207</ele>
        <time>2017-03-24T15:13:25Z</time>
      </trkpt>
      <trkpt lat="45.36467" lon="2.76602">
        <ele>1050.008</ele>
        <time>2017-03-24T15:13:45Z</time>
      </trkpt>
      <trkpt lat="45.36527" lon="2.76524">
        <ele>1047.859</ele>
        <time>2017-03-24T15:14:05Z</time>
      </trkpt>
      <trkpt lat="45.36597" lon="2.7646">
        <ele>1048.363</ele>
        <time>2017-03-24T15:14:25Z</time>
      </trkpt>
      <trkpt lat="45.36633" lon="2.76223">
        <ele>1038.09</ele>
        <time>2017-03-24T15:14:45Z</time>
      </trkpt>
      <trkpt lat="45.36626" lon="2.76175">
        <ele>1038.143</ele>
        <time>2017-03-24T15:15:05Z</time>
      </trkpt>
      <trkpt lat="45.36631" lon="2.76009">
        <ele>1035.714</ele>
        <time>2017-03-24T15:15:25Z</time>
      </trkpt>
      <trkpt lat="45.3662" lon="2.75874">
        <ele>1030.397</ele>
        <time>2017-03-24T15:15:45Z</time>
      </trkpt>
      <trkpt lat="45.36609" lon="2.75813">
        <ele>1029.523</ele>
        <time>2017-03-24T15:16:05Z</time>
      </trkpt>
      <trkpt lat="45.36611" lon="2.75703">
        <ele>1029.347</ele>
        <time>2017-03-24T15:16:25Z</time>
      </trkpt>
      <trkpt lat="45.36559" lon="2.75688">
        <ele>1030.243</ele>
        <time>2017-03-24T15:16:45Z</time>
      </trkpt>
      <trkpt lat="45.36449" lon="2.75635">
        <ele>1033.064</ele>
        <time>2017-03-24T15:17:05Z</time>
      </trkpt>
      <trkpt lat="45.36346" lon="2.75601">
        <ele>1027.11</ele>
        <time>2017-03-24T15:17:25Z</time>
      </trkpt>
      <trkpt lat="45.36305" lon="2.7561">
        <ele>1027.008</ele>
        <time>2017-03-24T15:17:45Z</time>
      </trkpt>
      <trkpt lat="45.36182" lon="2.75561">
        <ele>1023.74</ele>
        <time>2017-03-24T15:18:05Z</time>
      </trkpt>
      <trkpt lat="45.35966" lon="2.75414">
        <ele>1018.734</ele>
        <time>2017-03-24T15:18:25Z</time>
      </trkpt>
      <trkpt lat="45.35907" lon="2.75399">
        <ele>1016.391</ele>
        <time>2017-03-24T15:18:45Z</time>
      </trkpt>
      <trkpt lat="45.35883" lon="2.75378">
        <ele>1016.164</ele>
        <time>2017-03-24T15:19:05Z</time>
      </trkpt>
      <trkpt lat="45.35865" lon="2.75308">
        <ele>1016.075</ele>
        <time>2017-03-24T15:19:25Z</time>
      </trkpt>
      <trkpt lat="45.35864" lon="2.75282">
        <ele>1015.238</ele>
        <time>2017-03-24T15:19:45Z</time>
      </trkpt>
      <trkpt lat="45.35809" lon="2.75297">
        <ele>1017.184</ele>
        <time>2017-03-24T15:20:05Z</time>
      </trkpt>
      <trkpt lat="45.3572" lon="2.75193">
        <ele>1016.978</ele>
        <time>2017-03-24T15:20:25Z</time>
      </trkpt>
      <trkpt lat="45.35645" lon="2.75121">
        <ele>1013.378</ele>
        <time>2017-03-24T15:20:45Z</time>
      </trkpt>
      <trkpt lat="45.3563" lon="2.75084">
        <ele>1009.733</ele>
        <time>2017-03-24T15:21:05Z</time>
      </trkpt>
      <trkpt lat="45.35536" lon="2.75005">
        <ele>1009.926</ele>
        <time>2017-03-24T15:21:25Z</time>
      </trkpt>
      <trkpt lat="45.35433" lon="2.74904">
        <ele>997.908</ele>
        <time>2017-03-24T15:21:45Z</time>
      </trkpt>
      <trkpt lat="45.35377" lon="2.74825">
        <ele>995.393</ele>
        <time>2017-03-24T15:22:05Z</time>
      </trkpt>
      <trkpt lat="45.35277" lon="2.74811">
        <ele>992.247</ele>
        <time>2017-03-24T15:22:25Z</time>
      </trkpt>
      <trkpt lat="45.35236" lon="2.74842">
        <ele>993.514</ele>
        <time>2017-03-24T15:22:45Z</time>
      </trkpt>
      <trkpt lat="45.35202" lon="2.74847">
        <ele>994.457</ele>
        <time>2017-03-24T15:23:05Z</time>
      </trkpt>
      <trkpt lat="45.35156" lon="2.74844">
        <ele>994.268</ele>
        <time>2017-03-24T15:23:25Z</time>
      </trkpt>
      <trkpt lat="45.35136" lon="2.74815">
        <ele>992.651</ele>
        <time>2017-03-24T15:23:45Z</time>
      </trkpt>
      <trkpt lat="45.35115" lon="2.74753">
        <ele>989.117</ele>
        <time>2017-03-24T15:24:05Z</time>
      </trkpt>
      <trkpt lat="45.35073" lon="2.74704">
        <ele>985.841</ele>
        <time>2017-03-24T15:24:25Z</time>
      </trkpt>
      <trkpt lat="45.34839" lon="2.74885">
        <ele>959.824</ele>
        <time>2017-03-24T15:24:45Z</time>
      </trkpt>
      <trkpt lat="45.34785" lon="2.74953">
        <ele>955.904</ele>
        <time>2017-03-24T15:25:05Z</time>
      </trkpt>
      <trkpt lat="45.34789" lon="2.7505">
        <ele>954.414</ele>
        <time>2017-03-24T15:25:25Z</time>
      </trkpt>
      <trkpt lat="45.3477" lon="2.75136">
        <ele>939.008</ele>
        <time>2017-03-24T15:25:45Z</time>
      </trkpt>
      <trkpt lat="45.34765" lon="2.75196">
        <ele>929.078</ele>
        <time>2020-02-15T16:39:36Z</time>
      </trkpt>
      <trkpt lat="45.34806" lon="2.7525">
        <ele>932.222</ele>
        <time>2020-02-15T16:39:56Z</time>
      </trkpt>
      <trkpt lat="45.34806" lon="2.75288">
        <ele>926.189</ele>
        <time>2020-02-15T16:40:16Z</time>
      </trkpt>
      <trkpt lat="45.34793" lon="2.75352">
        <ele>911.912</ele>
        <time>2020-02-15T16:40:36Z</time>
      </trkpt>
      <trkpt lat="45.34811" lon="2.75431">
        <ele>897.683</ele>
        <time>2020-02-15T16:40:56Z</time>
      </trkpt>
      <trkpt lat="45.34853" lon="2.75474">
        <ele>888.546</ele>
        <time>2020-02-15T16:41:16Z</time>
      </trkpt>
      <trkpt lat="45.34782" lon="2.75511">
        <ele>870.532</ele>
        <time>2020-02-15T16:41:36Z</time>
      </trkpt>
      <trkpt lat="45.34751" lon="2.75515">
        <ele>864.556</ele>
        <time>2020-02-15T16:41:56Z</time>
      </trkpt>
      <trkpt lat="45.3471" lon="2.75532">
        <ele>855.169</ele>
        <time>2020-02-15T16:42:16Z</time>
      </trkpt>
      <trkpt lat="45.3464" lon="2.75541">
        <ele>839.904</ele>
        <time>2017-03-24T15:27:25Z</time>
      </trkpt>
      <trkpt lat="45.34605" lon="2.75525">
        <ele>835.324</ele>
        <time>2017-03-24T15:27:45Z</time>
      </trkpt>
      <trkpt lat="45.34545" lon="2.7546">
        <ele>830.408</ele>
        <time>2017-03-24T15:28:05Z</time>
      </trkpt>
      <trkpt lat="45.34474" lon="2.7536">
        <ele>819.752</ele>
        <time>2017-03-24T15:28:25Z</time>
      </trkpt>
      <trkpt lat="45.34424" lon="2.75391">
        <ele>804.246</ele>
        <time>2017-03-24T15:28:45Z</time>
      </trkpt>
      <trkpt lat="45.3437" lon="2.75394">
        <ele>793.053</ele>
        <time>2017-03-24T15:29:05Z</time>
      </trkpt>
      <trkpt lat="45.34352" lon="2.75445">
        <ele>785.646</ele>
        <time>2017-03-24T15:29:25Z</time>
      </trkpt>
      <trkpt lat="45.34356" lon="2.75497">
        <ele>778.077</ele>
        <time>2017-03-24T15:29:45Z</time>
      </trkpt>
      <trkpt lat="45.34393" lon="2.75568">
        <ele>776.53</ele>
        <time>2017-03-24T15:30:05Z</time>
      </trkpt>
      <trkpt lat="45.34262" lon="2.75557">
        <ele>749.136</ele>
        <time>2017-03-24T15:30:25Z</time>
      </trkpt>
      <trkpt lat="45.34207" lon="2.75517">
        <ele>744.85</ele>
        <time>2017-03-24T15:30:45Z</time>
      </trkpt>
      <trkpt lat="45.34152" lon="2.75507">
        <ele>734.515</ele>
        <time>2017-03-24T15:31:05Z</time>
      </trkpt>
      <trkpt lat="45.34152" lon="2.75537">
        <ele>732.165</ele>
        <time>2017-03-24T15:31:25Z</time>
      </trkpt>
      <trkpt lat="45.34171" lon="2.75598">
        <ele>726.811</ele>
        <time>2017-03-24T15:31:45Z</time>
      </trkpt>
      <trkpt lat="45.3418" lon="2.75651">
        <ele>725.508</ele>
        <time>2017-03-24T15:32:05Z</time>
      </trkpt>
      <trkpt lat="45.34113" lon="2.75715">
        <ele>728.527</ele>
        <time>2017-03-24T15:32:25Z</time>
      </trkpt>
      <trkpt lat="45.34055" lon="2.7574">
        <ele>722.361</ele>
        <time>2017-03-24T15:32:45Z</time>
      </trkpt>
      <trkpt lat="45.33951" lon="2.76025">
        <ele>710.098</ele>
        <time>2020-02-15T16:48:16Z</time>
      </trkpt>
      <trkpt lat="45.33864" lon="2.76187">
        <ele>707.171</ele>
        <time>2020-02-15T16:48:36Z</time>
      </trkpt>
      <trkpt lat="45.33809" lon="2.7625">
        <ele>703.042</ele>
        <time>2017-03-24T15:33:25Z</time>
      </trkpt>
      <trkpt lat="45.33726" lon="2.76073">
        <ele>701.825</ele>
        <time>2017-03-24T15:33:45Z</time>
      </trkpt>
      <trkpt lat="45.33664" lon="2.75995">
        <ele>700.161</ele>
        <time>2017-03-24T15:34:05Z</time>
      </trkpt>
      <trkpt lat="45.33567" lon="2.7597">
        <ele>710.815</ele>
        <time>2017-03-24T15:34:25Z</time>
      </trkpt>
      <trkpt lat="45.33479" lon="2.7602">
        <ele>714.711</ele>
        <time>2017-03-24T15:34:45Z</time>
      </trkpt>
      <trkpt lat="45.3341" lon="2.76022">
        <ele>716.121</ele>
        <time>2017-03-24T15:35:05Z</time>
      </trkpt>
      <trkpt lat="45.33354" lon="2.75968">
        <ele>717.603</ele>
        <time>2017-03-24T15:35:25Z</time>
      </trkpt>
      <trkpt lat="45.3335" lon="2.76005">
        <ele>718.108</ele>
        <time>2017-03-24T15:35:45Z</time>
      </trkpt>
      <trkpt lat="45.33332" lon="2.76003">
        <ele>720.197</ele>
        <time>2017-03-24T15:36:05Z</time>
      </trkpt>
      <trkpt lat="45.33318" lon="2.75956">
        <ele>722.131</ele>
        <time>2017-03-24T15:36:25Z</time>
      </trkpt>
      <trkpt lat="45.33295" lon="2.75945">
        <ele>725.718</ele>
        <time>2017-03-24T15:36:45Z</time>
      </trkpt>
      <trkpt lat="45.33243" lon="2.75976">
        <ele>739.181</ele>
        <time>2017-03-24T15:37:05Z</time>
      </trkpt>
      <trkpt lat="45.33228" lon="2.76044">
        <ele>745.352</ele>
        <time>2017-03-24T15:37:25Z</time>
      </trkpt>
      <trkpt lat="45.33104" lon="2.76137">
        <ele>763.815</ele>
        <time>2017-03-24T15:37:45Z</time>
      </trkpt>
      <trkpt lat="45.33009" lon="2.76173">
        <ele>780.591</ele>
        <time>2017-03-24T15:38:05Z</time>
      </trkpt>
      <trkpt lat="45.32991" lon="2.76206">
        <ele>784.195</ele>
        <time>2017-03-24T15:38:25Z</time>
      </trkpt>
      <trkpt lat="45.32995" lon="2.76247">
        <ele>785.449</ele>
        <time>2017-03-24T15:38:45Z</time>
      </trkpt>
      <trkpt lat="45.32917" lon="2.76202">
        <ele>794.902</ele>
        <time>2017-03-24T15:39:05Z</time>
      </trkpt>
      <trkpt lat="45.32878" lon="2.76151">
        <ele>795.022</ele>
        <time>2017-03-24T15:39:25Z</time>
      </trkpt>
      <trkpt lat="45.32827" lon="2.76129">
        <ele>792.308</ele>
        <time>2017-03-24T15:39:45Z</time>
      </trkpt>
      <trkpt lat="45.32792" lon="2.76154">
        <ele>795.23</ele>
        <time>2017-03-24T15:40:05Z</time>
      </trkpt>
      <trkpt lat="45.32711" lon="2.76279">
        <ele>798.154</ele>
        <time>2017-03-24T15:40:25Z</time>
      </trkpt>
      <trkpt lat="45.32536" lon="2.76477">
        <ele>797.221</ele>
        <time>2017-03-24T15:40:45Z</time>
      </trkpt>
      <trkpt lat="45.32447" lon="2.76548">
        <ele>801.264</ele>
        <time>2020-02-15T16:56:36Z</time>
      </trkpt>
      <trkpt lat="45.32408" lon="2.76594">
        <ele>801.575</ele>
        <time>2020-02-15T16:56:56Z</time>
      </trkpt>
      <trkpt lat="45.32347" lon="2.76746">
        <ele>804.788</ele>
        <time>2020-02-15T16:57:16Z</time>
      </trkpt>
      <trkpt lat="45.32326" lon="2.7682">
        <ele>805.914</ele>
        <time>2020-02-15T16:57:36Z</time>
      </trkpt>
      <trkpt lat="45.32299" lon="2.76856">
        <ele>806.378</ele>
        <time>2020-02-15T16:57:56Z</time>
      </trkpt>
      <trkpt lat="45.32221" lon="2.76912">
        <ele>807.458</ele>
        <time>2020-02-15T16:58:16Z</time>
      </trkpt>
      <trkpt lat="45.32204" lon="2.76973">
        <ele>807.352</ele>
        <time>2020-02-15T16:58:36Z</time>
      </trkpt>
      <trkpt lat="45.32149" lon="2.76904">
        <ele>805.817</ele>
        <time>2020-02-15T16:58:56Z</time>
      </trkpt>
      <trkpt lat="45.32088" lon="2.76891">
        <ele>803.308</ele>
        <time>2020-02-15T16:59:16Z</time>
      </trkpt>
      <trkpt lat="45.31929" lon="2.76873">
        <ele>798.711</ele>
        <time>2020-02-15T16:59:36Z</time>
      </trkpt>
      <trkpt lat="45.31878" lon="2.7683">
        <ele>794.835</ele>
        <time>2020-02-15T16:59:56Z</time>
      </trkpt>
      <trkpt lat="45.31841" lon="2.76828">
        <ele>795.822</ele>
        <time>2020-02-15T17:00:16Z</time>
      </trkpt>
      <trkpt lat="45.31778" lon="2.76863">
        <ele>804.575</ele>
        <time>2020-02-15T17:00:36Z</time>
      </trkpt>
      <trkpt lat="45.31743" lon="2.76858">
        <ele>803.526</ele>
        <time>2020-02-15T17:00:56Z</time>
      </trkpt>
      <trkpt lat="45.31706" lon="2.76818">
        <ele>788.979</ele>
        <time>2020-02-15T17:01:16Z</time>
      </trkpt>
      <trkpt lat="45.31629" lon="2.76775">
        <ele>790.925</ele>
        <time>2020-02-15T17:01:36Z</time>
      </trkpt>
      <trkpt lat="45.31558" lon="2.76755">
        <ele>784.769</ele>
        <time>2020-02-15T17:01:56Z</time>
      </trkpt>
      <trkpt lat="45.31499" lon="2.76845">
        <ele>791.445</ele>
        <time>2020-02-15T17:02:16Z</time>
      </trkpt>
      <trkpt lat="45.31483" lon="2.76813">
        <ele>783.447</ele>
        <time>2020-02-15T17:02:36Z</time>
      </trkpt>
      <trkpt lat="45.31424" lon="2.76753">
        <ele>786.511</ele>
        <time>2020-02-15T17:02:56Z</time>
      </trkpt>
      <trkpt lat="45.31401" lon="2.76718">
        <ele>791.608</ele>
        <time>2020-02-15T17:03:16Z</time>
      </trkpt>
      <trkpt lat="45.31353" lon="2.76703">
        <ele>792.03</ele>
        <time>2020-02-15T17:03:36Z</time>
      </trkpt>
      <trkpt lat="45.31365" lon="2.76684">
        <ele>797.754</ele>
        <time>2020-02-15T17:03:56Z</time>
      </trkpt>
      <trkpt lat="45.31383" lon="2.76688">
        <ele>798.291</ele>
        <time>2020-02-15T17:04:16Z</time>
      </trkpt>
      <trkpt lat="45.31391" lon="2.76667">
        <ele>804.174</ele>
        <time>2020-02-15T17:04:36Z</time>
      </trkpt>
      <trkpt lat="45.31433" lon="2.76643">
        <ele>813.665</ele>
        <time>2020-02-15T17:04:56Z</time>
      </trkpt>
      <trkpt lat="45.3143" lon="2.76591">
        <ele>827.328</ele>
        <time>2020-02-15T17:05:16Z</time>
      </trkpt>
      <trkpt lat="45.31478" lon="2.76568">
        <ele>833.344</ele>
        <time>2020-02-15T17:05:36Z</time>
      </trkpt>
      <trkpt lat="45.31508" lon="2.76523">
        <ele>846.948</ele>
        <time>2020-02-15T17:05:56Z</time>
      </trkpt>
      <trkpt lat="45.31567" lon="2.76499">
        <ele>851.043</ele>
        <time>2020-02-15T17:06:16Z</time>
      </trkpt>
      <trkpt lat="45.31574" lon="2.76475">
        <ele>855.064</ele>
        <time>2020-02-15T17:06:36Z</time>
      </trkpt>
      <trkpt lat="45.31562" lon="2.76419">
        <ele>864.81</ele>
        <time>2020-02-15T17:06:56Z</time>
      </trkpt>
      <trkpt lat="45.31631" lon="2.76308">
        <ele>877.708</ele>
        <time>2020-02-15T17:07:16Z</time>
      </trkpt>
      <trkpt lat="45.3165" lon="2.76252">
        <ele>889.11</ele>
        <time>2020-02-15T17:07:36Z</time>
      </trkpt>
      <trkpt lat="45.31693" lon="2.76282">
        <ele>885.914</ele>
        <time>2020-02-15T17:07:56Z</time>
      </trkpt>
      <trkpt lat="45.31726" lon="2.76209">
        <ele>908.821</ele>
        <time>2020-02-15T17:08:16Z</time>
      </trkpt>
      <trkpt lat="45.31774" lon="2.76209">
        <ele>913.784</ele>
        <time>2020-02-15T17:08:36Z</time>
      </trkpt>
      <trkpt lat="45.31843" lon="2.76081">
        <ele>929.625</ele>
        <time>2020-02-15T17:08:56Z</time>
      </trkpt>
      <trkpt lat="45.31849" lon="2.75996">
        <ele>952.058</ele>
        <time>2020-02-15T17:09:16Z</time>
      </trkpt>
      <trkpt lat="45.31761" lon="2.75995">
        <ele>964.214</ele>
        <time>2020-02-15T17:09:36Z</time>
      </trkpt>
      <trkpt lat="45.31756" lon="2.75897">
        <ele>985.248</ele>
        <time>2020-02-15T17:09:56Z</time>
      </trkpt>
      <trkpt lat="45.31729" lon="2.75877">
        <ele>990.532</ele>
        <time>2020-02-15T17:10:16Z</time>
      </trkpt>
      <trkpt lat="45.3173" lon="2.75849">
        <ele>997.892</ele>
        <time>2020-02-15T17:10:36Z</time>
      </trkpt>
      <trkpt lat="45.31809" lon="2.75808">
        <ele>1005.611</ele>
        <time>2020-02-15T17:10:56Z</time>
      </trkpt>
      <trkpt lat="45.31809" lon="2.7578">
        <ele>1011.008</ele>
        <time>2020-02-15T17:11:16Z</time>
      </trkpt>
      <trkpt lat="45.31768" lon="2.75722">
        <ele>1021.839</ele>
        <time>2020-02-15T17:11:36Z</time>
      </trkpt>
      <trkpt lat="45.31746" lon="2.75662">
        <ele>1029.383</ele>
        <time>2020-02-15T17:11:56Z</time>
      </trkpt>
      <trkpt lat="45.31711" lon="2.75608">
        <ele>1038.18</ele>
        <time>2020-02-15T17:12:16Z</time>
      </trkpt>
      <trkpt lat="45.31684" lon="2.75546">
        <ele>1041.313</ele>
        <time>2020-02-15T17:12:36Z</time>
      </trkpt>
      <trkpt lat="45.31686" lon="2.75498">
        <ele>1039.724</ele>
        <time>2020-02-15T17:12:56Z</time>
      </trkpt>
      <trkpt lat="45.31672" lon="2.75453">
        <ele>1038.587</ele>
        <time>2020-02-15T17:13:16Z</time>
      </trkpt>
      <trkpt lat="45.31642" lon="2.75449">
        <ele>1041.243</ele>
        <time>2020-02-15T17:13:36Z</time>
      </trkpt>
      <trkpt lat="45.31601" lon="2.75414">
        <ele>1039.967</ele>
        <time>2020-02-15T17:13:56Z</time>
      </trkpt>
      <trkpt lat="45.31556" lon="2.75399">
        <ele>1043.654</ele>
        <time>2020-02-15T17:14:16Z</time>
      </trkpt>
      <trkpt lat="45.31505" lon="2.75408">
        <ele>1042.056</ele>
        <time>2020-02-15T17:14:36Z</time>
      </trkpt>
      <trkpt lat="45.31429" lon="2.75333">
        <ele>1051.411</ele>
        <time>2020-02-15T17:14:56Z</time>
      </trkpt>
      <trkpt lat="45.31375" lon="2.75186">
        <ele>1049.508</ele>
        <time>2020-02-15T17:15:16Z</time>
      </trkpt>
      <trkpt lat="45.31308" lon="2.75135">
        <ele>1050.071</ele>
        <time>2020-02-15T17:15:36Z</time>
      </trkpt>
      <trkpt lat="45.31319" lon="2.7514">
        <ele>1050.085</ele>
        <time>2017-03-24T15:58:05Z</time>
      </trkpt>
      <trkpt lat="45.31261" lon="2.75079">
        <ele>1049.152</ele>
        <time>2017-03-24T15:58:25Z</time>
      </trkpt>
      <trkpt lat="45.31186" lon="2.75005">
        <ele>1053.855</ele>
        <time>2017-03-24T15:58:45Z</time>
      </trkpt>
      <trkpt lat="45.31043" lon="2.74938">
        <ele>1057.176</ele>
        <time>2017-03-24T15:59:05Z</time>
      </trkpt>
      <trkpt lat="45.31" lon="2.74892">
        <ele>1054.869</ele>
        <time>2017-03-24T15:59:25Z</time>
      </trkpt>
      <trkpt lat="45.30931" lon="2.74751">
        <ele>1051.575</ele>
        <time>2017-03-24T15:59:45Z</time>
      </trkpt>
      <trkpt lat="45.30901" lon="2.7473">
        <ele>1050.459</ele>
        <time>2017-03-24T16:00:05Z</time>
      </trkpt>
      <trkpt lat="45.30751" lon="2.74717">
        <ele>1050.261</ele>
        <time>2017-03-24T16:00:25Z</time>
      </trkpt>
      <trkpt lat="45.30699" lon="2.74737">
        <ele>1051.821</ele>
        <time>2017-03-24T16:00:45Z</time>
      </trkpt>
      <trkpt lat="45.30659" lon="2.74733">
        <ele>1053.613</ele>
        <time>2017-03-24T16:01:05Z</time>
      </trkpt>
      <trkpt lat="45.30592" lon="2.74775">
        <ele>1054.508</ele>
        <time>2017-03-24T16:01:25Z</time>
      </trkpt>
      <trkpt lat="45.30561" lon="2.74838">
        <ele>1055.542</ele>
        <time>2017-03-24T16:01:45Z</time>
      </trkpt>
      <trkpt lat="45.30321" lon="2.74983">
        <ele>1066.826</ele>
        <time>2017-03-24T16:02:05Z</time>
      </trkpt>
      <trkpt lat="45.30229" lon="2.75116">
        <ele>1071.243</ele>
        <time>2017-03-24T16:02:25Z</time>
      </trkpt>
      <trkpt lat="45.30187" lon="2.75224">
        <ele>1070.376</ele>
        <time>2017-03-24T16:02:45Z</time>
      </trkpt>
      <trkpt lat="45.30159" lon="2.75359">
        <ele>1072.027</ele>
        <time>2017-03-24T16:03:05Z</time>
      </trkpt>
      <trkpt lat="45.30125" lon="2.75439">
        <ele>1068.83</ele>
        <time>2017-03-24T16:03:25Z</time>
      </trkpt>
      <trkpt lat="45.30069" lon="2.75513">
        <ele>1062.026</ele>
        <time>2017-03-24T16:03:45Z</time>
      </trkpt>
      <trkpt lat="45.29878" lon="2.75629">
        <ele>1057.73</ele>
        <time>2017-03-24T16:04:05Z</time>
      </trkpt>
      <trkpt lat="45.2983" lon="2.75639">
        <ele>1056.127</ele>
        <time>2017-03-24T16:04:25Z</time>
      </trkpt>
      <trkpt lat="45.29722" lon="2.75639">
        <ele>1054.068</ele>
        <time>2017-03-24T16:04:45Z</time>
      </trkpt>
      <trkpt lat="45.29675" lon="2.75647">
        <ele>1050.314</ele>
        <time>2017-03-24T16:05:05Z</time>
      </trkpt>
      <trkpt lat="45.29615" lon="2.75623">
        <ele>1045.908</ele>
        <time>2017-03-24T16:05:25Z</time>
      </trkpt>
      <trkpt lat="45.29525" lon="2.75678">
        <ele>1041.618</ele>
        <time>2017-03-24T16:05:45Z</time>
      </trkpt>
      <trkpt lat="45.29417" lon="2.75702">
        <ele>1039.382</ele>
        <time>2017-03-24T16:06:05Z</time>
      </trkpt>
      <trkpt lat="45.29342" lon="2.75746">
        <ele>1037.669</ele>
        <time>2017-03-24T16:06:25Z</time>
      </trkpt>
      <trkpt lat="45.29306" lon="2.75758">
        <ele>1037.012</ele>
        <time>2017-03-24T16:06:45Z</time>
      </trkpt>
      <trkpt lat="45.29289" lon="2.75749">
        <ele>1035.733</ele>
        <time>2017-03-24T16:07:05Z</time>
      </trkpt>
      <trkpt lat="45.29242" lon="2.75802">
        <ele>1034.076</ele>
        <time>2017-03-24T16:07:25Z</time>
      </trkpt>
      <trkpt lat="45.29204" lon="2.75822">
        <ele>1034.022</ele>
        <time>2017-03-24T16:07:45Z</time>
      </trkpt>
      <trkpt lat="45.29137" lon="2.75873">
        <ele>1035.856</ele>
        <time>2017-03-24T16:08:05Z</time>
      </trkpt>
      <trkpt lat="45.29092" lon="2.75892">
        <ele>1032.091</ele>
        <time>2017-03-24T16:08:25Z</time>
      </trkpt>
      <trkpt lat="45.29041" lon="2.75943">
        <ele>1026.481</ele>
        <time>2017-03-24T16:08:45Z</time>
      </trkpt>
      <trkpt lat="45.29036" lon="2.75975">
        <ele>1025.119</ele>
        <time>2017-03-24T16:09:05Z</time>
      </trkpt>
      <trkpt lat="45.29069" lon="2.76064">
        <ele>1023.508</ele>
        <time>2017-03-24T16:09:25Z</time>
      </trkpt>
      <trkpt lat="45.29107" lon="2.76184">
        <ele>1012.335</ele>
        <time>2017-03-24T16:09:45Z</time>
      </trkpt>
      <trkpt lat="45.2914" lon="2.76186">
        <ele>1014.259</ele>
        <time>2017-03-24T16:10:05Z</time>
      </trkpt>
      <trkpt lat="45.29166" lon="2.76199">
        <ele>1013.216</ele>
        <time>2017-03-24T16:10:25Z</time>
      </trkpt>
      <trkpt lat="45.2917" lon="2.76234">
        <ele>1008.369</ele>
        <time>2017-03-24T16:10:45Z</time>
      </trkpt>
      <trkpt lat="45.29081" lon="2.76307">
        <ele>997.99</ele>
        <time>2017-03-24T16:11:05Z</time>
      </trkpt>
      <trkpt lat="45.29027" lon="2.76306">
        <ele>996.953</ele>
        <time>2017-03-24T16:11:25Z</time>
      </trkpt>
      <trkpt lat="45.28997" lon="2.76349">
        <ele>992.099</ele>
        <time>2017-03-24T16:11:45Z</time>
      </trkpt>
      <trkpt lat="45.2894" lon="2.76336">
        <ele>997.813</ele>
        <time>2020-02-15T17:29:56Z</time>
      </trkpt>
      <trkpt lat="45.28848" lon="2.7618">
        <ele>1007.891</ele>
        <time>2017-03-24T16:12:45Z</time>
      </trkpt>
      <trkpt lat="45.28805" lon="2.76217">
        <ele>1013.881</ele>
        <time>2017-03-24T16:13:05Z</time>
      </trkpt>
      <trkpt lat="45.28814" lon="2.76351">
        <ele>1020.019</ele>
        <time>2017-03-24T16:13:25Z</time>
      </trkpt>
      <trkpt lat="45.28771" lon="2.76389">
        <ele>1031.408</ele>
        <time>2017-03-24T16:13:45Z</time>
      </trkpt>
      <trkpt lat="45.28751" lon="2.76386">
        <ele>1035.885</ele>
        <time>2017-03-24T16:14:05Z</time>
      </trkpt>
      <trkpt lat="45.28746" lon="2.76365">
        <ele>1036.539</ele>
        <time>2017-03-24T16:14:25Z</time>
      </trkpt>
      <trkpt lat="45.28651" lon="2.7638">
        <ele>1046.136</ele>
        <time>2017-03-24T16:14:45Z</time>
      </trkpt>
      <trkpt lat="45.28629" lon="2.76361">
        <ele>1043.029</ele>
        <time>2017-03-24T16:15:05Z</time>
      </trkpt>
      <trkpt lat="45.28589" lon="2.76368">
        <ele>1042.98</ele>
        <time>2017-03-24T16:15:25Z</time>
      </trkpt>
      <trkpt lat="45.28545" lon="2.7639">
        <ele>1042.723</ele>
        <time>2017-03-24T16:15:45Z</time>
      </trkpt>
      <trkpt lat="45.28484" lon="2.76403">
        <ele>1034.039</ele>
        <time>2017-03-24T16:16:05Z</time>
      </trkpt>
      <trkpt lat="45.28417" lon="2.764">
        <ele>1026.883</ele>
        <time>2017-03-24T16:16:25Z</time>
      </trkpt>
      <trkpt lat="45.28344" lon="2.7637">
        <ele>1025.226</ele>
        <time>2017-03-24T16:16:45Z</time>
      </trkpt>
      <trkpt lat="45.28328" lon="2.76331">
        <ele>1023.147</ele>
        <time>2017-03-24T16:17:05Z</time>
      </trkpt>
      <trkpt lat="45.28255" lon="2.76285">
        <ele>1015.211</ele>
        <time>2017-03-24T16:17:25Z</time>
      </trkpt>
      <trkpt lat="45.28217" lon="2.76319">
        <ele>1014.708</ele>
        <time>2017-03-24T16:17:45Z</time>
      </trkpt>
      <trkpt lat="45.28192" lon="2.76312">
        <ele>1015.948</ele>
        <time>2017-03-24T16:18:05Z</time>
      </trkpt>
      <trkpt lat="45.28162" lon="2.76244">
        <ele>1014.332</ele>
        <time>2017-03-24T16:18:25Z</time>
      </trkpt>
      <trkpt lat="45.28122" lon="2.76216">
        <ele>1014.629</ele>
        <time>2017-03-24T16:18:45Z</time>
      </trkpt>
      <trkpt lat="45.28106" lon="2.76184">
        <ele>1014.762</ele>
        <time>2017-03-24T16:19:05Z</time>
      </trkpt>
      <trkpt lat="45.28059" lon="2.76151">
        <ele>1014.413</ele>
        <time>2017-03-24T16:19:25Z</time>
      </trkpt>
      <trkpt lat="45.28025" lon="2.7616">
        <ele>1013.636</ele>
        <time>2017-03-24T16:19:45Z</time>
      </trkpt>
      <trkpt lat="45.27939" lon="2.76234">
        <ele>1015.752</ele>
        <time>2017-03-24T16:20:05Z</time>
      </trkpt>
      <trkpt lat="45.27915" lon="2.76436">
        <ele>1029.456</ele>
        <time>2017-03-24T16:20:25Z</time>
      </trkpt>
      <trkpt lat="45.27868" lon="2.7649">
        <ele>1037.121</ele>
        <time>2017-03-24T16:20:45Z</time>
      </trkpt>
      <trkpt lat="45.27797" lon="2.76535">
        <ele>1039.541</ele>
        <time>2017-03-24T16:21:05Z</time>
      </trkpt>
      <trkpt lat="45.27702" lon="2.76771">
        <ele>1047.005</ele>
        <time>2017-03-24T16:21:25Z</time>
      </trkpt>
      <trkpt lat="45.27668" lon="2.77049">
        <ele>1057.808</ele>
        <time>2017-03-24T16:21:45Z</time>
      </trkpt>
      <trkpt lat="45.27597" lon="2.77114">
        <ele>1060.558</ele>
        <time>2017-03-24T16:22:05Z</time>
      </trkpt>
      <trkpt lat="45.27423" lon="2.77241">
        <ele>1060.742</ele>
        <time>2017-03-24T16:22:25Z</time>
      </trkpt>
      <trkpt lat="45.27338" lon="2.77266">
        <ele>1059.239</ele>
        <time>2017-03-24T16:22:45Z</time>
      </trkpt>
      <trkpt lat="45.27372" lon="2.7731">
        <ele>1061.712</ele>
        <time>2017-03-24T16:23:05Z</time>
      </trkpt>
      <trkpt lat="45.27388" lon="2.7736">
        <ele>1063.993</ele>
        <time>2017-03-24T16:23:25Z</time>
      </trkpt>
      <trkpt lat="45.27372" lon="2.77406">
        <ele>1064.676</ele>
        <time>2017-03-24T16:23:45Z</time>
      </trkpt>
      <trkpt lat="45.27319" lon="2.77504">
        <ele>1071.592</ele>
        <time>2017-03-24T16:24:05Z</time>
      </trkpt>
      <trkpt lat="45.27356" lon="2.77695">
        <ele>1078.766</ele>
        <time>2017-03-24T16:24:25Z</time>
      </trkpt>
      <trkpt lat="45.27334" lon="2.77773">
        <ele>1078.028</ele>
        <time>2017-03-24T16:24:45Z</time>
      </trkpt>
      <trkpt lat="45.2738" lon="2.77831">
        <ele>1079.089</ele>
        <time>2017-03-24T16:25:05Z</time>
      </trkpt>
      <trkpt lat="45.27483" lon="2.77845">
        <ele>1075.217</ele>
        <time>2017-03-24T16:25:25Z</time>
      </trkpt>
      <trkpt lat="45.2751" lon="2.77786">
        <ele>1075.408</ele>
        <time>2017-03-24T16:25:45Z</time>
      </trkpt>
      <trkpt lat="45.2755" lon="2.77764">
        <ele>1066.528</ele>
        <time>2017-03-24T16:26:05Z</time>
      </trkpt>
      <trkpt lat="45.2756" lon="2.77799">
        <ele>1059.862</ele>
        <time>2017-03-24T16:26:25Z</time>
      </trkpt>
      <trkpt lat="45.27516" lon="2.77916">
        <ele>1059.819</ele>
        <time>2017-03-24T16:26:45Z</time>
      </trkpt>
      <trkpt lat="45.27513" lon="2.77943">
        <ele>1056.392</ele>
        <time>2017-03-24T16:27:05Z</time>
      </trkpt>
      <trkpt lat="45.27463" lon="2.77983">
        <ele>1053.193</ele>
        <time>2017-03-24T16:27:25Z</time>
      </trkpt>
      <trkpt lat="45.27245" lon="2.7801">
        <ele>1048.846</ele>
        <time>2017-03-24T16:27:45Z</time>
      </trkpt>
      <trkpt lat="45.27184" lon="2.78031">
        <ele>1050.792</ele>
        <time>2017-03-24T16:28:05Z</time>
      </trkpt>
      <trkpt lat="45.2707" lon="2.78111">
        <ele>1048.956</ele>
        <time>2017-03-24T16:28:45Z</time>
      </trkpt>
      <trkpt lat="45.27032" lon="2.78143">
        <ele>1049.062</ele>
        <time>2017-03-24T16:29:05Z</time>
      </trkpt>
      <trkpt lat="45.26978" lon="2.78145">
        <ele>1055.183</ele>
        <time>2017-03-24T16:29:25Z</time>
      </trkpt>
      <trkpt lat="45.26914" lon="2.78183">
        <ele>1055.711</ele>
        <time>2017-03-24T16:29:45Z</time>
      </trkpt>
      <trkpt lat="45.26854" lon="2.78198">
        <ele>1055.308</ele>
        <time>2017-03-24T16:30:05Z</time>
      </trkpt>
      <trkpt lat="45.26801" lon="2.78211">
        <ele>1056.262</ele>
        <time>2017-03-24T16:30:25Z</time>
      </trkpt>
      <trkpt lat="45.26741" lon="2.78203">
        <ele>1061.416</ele>
        <time>2017-03-24T16:30:45Z</time>
      </trkpt>
      <trkpt lat="45.26661" lon="2.78238">
        <ele>1060.693</ele>
        <time>2017-03-24T16:31:05Z</time>
      </trkpt>
      <trkpt lat="45.26564" lon="2.7835">
        <ele>1056.976</ele>
        <time>2017-03-24T16:31:25Z</time>
      </trkpt>
      <trkpt lat="45.26524" lon="2.78471">
        <ele>1057.527</ele>
        <time>2017-03-24T16:31:45Z</time>
      </trkpt>
      <trkpt lat="45.26515" lon="2.7854">
        <ele>1055.04</ele>
        <time>2017-03-24T16:32:05Z</time>
      </trkpt>
      <trkpt lat="45.26484" lon="2.78658">
        <ele>1049.766</ele>
        <time>2020-02-15T17:49:36Z</time>
      </trkpt>
      <trkpt lat="45.26451" lon="2.78692">
        <ele>1048.58</ele>
        <time>2020-02-15T17:49:56Z</time>
      </trkpt>
      <trkpt lat="45.26376" lon="2.7872">
        <ele>1049.393</ele>
        <time>2020-02-15T17:50:16Z</time>
      </trkpt>
      <trkpt lat="45.26294" lon="2.78763">
        <ele>1046.665</ele>
        <time>2020-02-15T17:50:36Z</time>
      </trkpt>
      <trkpt lat="45.26252" lon="2.78823">
        <ele>1044.821</ele>
        <time>2017-03-24T16:33:45Z</time>
      </trkpt>
      <trkpt lat="45.2617" lon="2.78903">
        <ele>1034.708</ele>
        <time>2017-03-24T16:34:05Z</time>
      </trkpt>
      <trkpt lat="45.26139" lon="2.78977">
        <ele>1027.655</ele>
        <time>2017-03-24T16:34:25Z</time>
      </trkpt>
      <trkpt lat="45.26133" lon="2.79071">
        <ele>1020.219</ele>
        <time>2017-03-24T16:34:45Z</time>
      </trkpt>
      <trkpt lat="45.26121" lon="2.79115">
        <ele>1017.576</ele>
        <time>2017-03-24T16:35:05Z</time>
      </trkpt>
      <trkpt lat="45.26096" lon="2.79188">
        <ele>1012.779</ele>
        <time>2017-03-24T16:35:25Z</time>
      </trkpt>
      <trkpt lat="45.26096" lon="2.79257">
        <ele>999.36</ele>
        <time>2017-03-24T16:35:45Z</time>
      </trkpt>
      <trkpt lat="45.26071" lon="2.79336">
        <ele>995.973</ele>
        <time>2017-03-24T16:36:05Z</time>
      </trkpt>
      <trkpt lat="45.26071" lon="2.79435">
        <ele>983.299</ele>
        <time>2017-03-24T16:36:25Z</time>
      </trkpt>
      <trkpt lat="45.26054" lon="2.79457">
        <ele>982.863</ele>
        <time>2017-03-24T16:36:45Z</time>
      </trkpt>
      <trkpt lat="45.26047" lon="2.79486">
        <ele>981.025</ele>
        <time>2017-03-24T16:37:05Z</time>
      </trkpt>
      <trkpt lat="45.26034" lon="2.79519">
        <ele>977.826</ele>
        <time>2017-03-24T16:37:25Z</time>
      </trkpt>
      <trkpt lat="45.25941" lon="2.79544">
        <ele>975.008</ele>
        <time>2017-03-24T16:37:45Z</time>
      </trkpt>
      <trkpt lat="45.25841" lon="2.79525">
        <ele>958.708</ele>
        <time>2017-03-24T16:38:05Z</time>
      </trkpt>
      <trkpt lat="45.25819" lon="2.79489">
        <ele>959.178</ele>
        <time>2017-03-24T16:38:25Z</time>
      </trkpt>
      <trkpt lat="45.25768" lon="2.79456">
        <ele>954.972</ele>
        <time>2017-03-24T16:38:45Z</time>
      </trkpt>
      <trkpt lat="45.25709" lon="2.79406">
        <ele>951.699</ele>
        <time>2017-03-24T16:39:05Z</time>
      </trkpt>
      <trkpt lat="45.25655" lon="2.79395">
        <ele>949.182</ele>
        <time>2017-03-24T16:39:25Z</time>
      </trkpt>
      <trkpt lat="45.25564" lon="2.79455">
        <ele>948.333</ele>
        <time>2017-03-24T16:39:45Z</time>
      </trkpt>
      <trkpt lat="45.25537" lon="2.79441">
        <ele>949.296</ele>
        <time>2017-03-24T16:40:05Z</time>
      </trkpt>
      <trkpt lat="45.25509" lon="2.79388">
        <ele>953.132</ele>
        <time>2017-03-24T16:40:25Z</time>
      </trkpt>
      <trkpt lat="45.25489" lon="2.79388">
        <ele>953.556</ele>
        <time>2017-03-24T16:40:45Z</time>
      </trkpt>
      <trkpt lat="45.25452" lon="2.79342">
        <ele>959.544</ele>
        <time>2017-03-24T16:41:05Z</time>
      </trkpt>
      <trkpt lat="45.25485" lon="2.79329">
        <ele>961.405</ele>
        <time>2017-03-24T16:41:25Z</time>
      </trkpt>
      <trkpt lat="45.25497" lon="2.7927">
        <ele>969.615</ele>
        <time>2017-03-24T16:41:45Z</time>
      </trkpt>
      <trkpt lat="45.25477" lon="2.79256">
        <ele>970.608</ele>
        <time>2017-03-24T16:42:05Z</time>
      </trkpt>
      <trkpt lat="45.25454" lon="2.79253">
        <ele>970.83</ele>
        <time>2017-03-24T16:42:25Z</time>
      </trkpt>
      <trkpt lat="45.25426" lon="2.79219">
        <ele>971.644</ele>
        <time>2017-03-24T16:42:45Z</time>
      </trkpt>
      <trkpt lat="45.25394" lon="2.79133">
        <ele>977.211</ele>
        <time>2017-03-24T16:43:05Z</time>
      </trkpt>
      <trkpt lat="45.25327" lon="2.7907">
        <ele>970.854</ele>
        <time>2017-03-24T16:43:25Z</time>
      </trkpt>
      <trkpt lat="45.25229" lon="2.78944">
        <ele>978.835</ele>
        <time>2020-02-15T18:00:56Z</time>
      </trkpt>
      <trkpt lat="45.25209" lon="2.78871">
        <ele>982.388</ele>
        <time>2017-03-24T16:44:25Z</time>
      </trkpt>
      <trkpt lat="45.25166" lon="2.7886">
        <ele>982.274</ele>
        <time>2017-03-24T16:44:45Z</time>
      </trkpt>
      <trkpt lat="45.25135" lon="2.7879">
        <ele>993.198</ele>
        <time>2017-03-24T16:45:05Z</time>
      </trkpt>
      <trkpt lat="45.25098" lon="2.78776">
        <ele>998.242</ele>
        <time>2017-03-24T16:45:25Z</time>
      </trkpt>
      <trkpt lat="45.25101" lon="2.78752">
        <ele>1000.822</ele>
        <time>2017-03-24T16:45:45Z</time>
      </trkpt>
      <trkpt lat="45.25077" lon="2.78736">
        <ele>1003.714</ele>
        <time>2017-03-24T16:46:05Z</time>
      </trkpt>
      <trkpt lat="45.2503" lon="2.78575">
        <ele>1013.508</ele>
        <time>2017-03-24T16:46:25Z</time>
      </trkpt>
      <trkpt lat="45.25007" lon="2.78421">
        <ele>1023.07</ele>
        <time>2017-03-24T16:46:45Z</time>
      </trkpt>
      <trkpt lat="45.24917" lon="2.78367">
        <ele>1026.994</ele>
        <time>2017-03-24T16:47:05Z</time>
      </trkpt>
      <trkpt lat="45.24851" lon="2.78331">
        <ele>1031.041</ele>
        <time>2017-03-24T16:47:25Z</time>
      </trkpt>
      <trkpt lat="45.24791" lon="2.78271">
        <ele>1031.034</ele>
        <time>2017-03-24T16:47:45Z</time>
      </trkpt>
      <trkpt lat="45.24788" lon="2.78206">
        <ele>1031.735</ele>
        <time>2017-03-24T16:48:05Z</time>
      </trkpt>
      <trkpt lat="45.24759" lon="2.78134">
        <ele>1038.918</ele>
        <time>2017-03-24T16:48:25Z</time>
      </trkpt>
      <trkpt lat="45.24785" lon="2.78051">
        <ele>1044.254</ele>
        <time>2020-02-15T18:05:36Z</time>
      </trkpt>
      <trkpt lat="45.24822" lon="2.77961">
        <ele>1059.738</ele>
        <time>2017-03-24T16:48:45Z</time>
      </trkpt>
      <trkpt lat="45.24807" lon="2.7794">
        <ele>1061.672</ele>
        <time>2017-03-24T16:49:05Z</time>
      </trkpt>
      <trkpt lat="45.24752" lon="2.77936">
        <ele>1063.813</ele>
        <time>2017-03-24T16:49:25Z</time>
      </trkpt>
      <trkpt lat="45.24676" lon="2.77895">
        <ele>1072.914</ele>
        <time>2017-03-24T16:49:45Z</time>
      </trkpt>
      <trkpt lat="45.24608" lon="2.77926">
        <ele>1078.608</ele>
        <time>2017-03-24T16:50:05Z</time>
      </trkpt>
      <trkpt lat="45.24575" lon="2.77873">
        <ele>1085.663</ele>
        <time>2017-03-24T16:50:25Z</time>
      </trkpt>
      <trkpt lat="45.24559" lon="2.77779">
        <ele>1096.067</ele>
        <time>2017-03-24T16:50:45Z</time>
      </trkpt>
      <trkpt lat="45.24476" lon="2.77548">
        <ele>1123.114</ele>
        <time>2017-03-24T16:51:05Z</time>
      </trkpt>
      <trkpt lat="45.24411" lon="2.77458">
        <ele>1125.647</ele>
        <time>2017-03-24T16:51:25Z</time>
      </trkpt>
      <trkpt lat="45.24376" lon="2.77424">
        <ele>1124.528</ele>
        <time>2017-03-24T16:51:45Z</time>
      </trkpt>
      <trkpt lat="45.24364" lon="2.77375">
        <ele>1131.751</ele>
        <time>2017-03-24T16:52:05Z</time>
      </trkpt>
      <trkpt lat="45.24335" lon="2.77344">
        <ele>1133.027</ele>
        <time>2017-03-24T16:52:25Z</time>
      </trkpt>
      <trkpt lat="45.24297" lon="2.77323">
        <ele>1132.441</ele>
        <time>2017-03-24T16:52:45Z</time>
      </trkpt>
      <trkpt lat="45.24268" lon="2.7716">
        <ele>1142.192</ele>
        <time>2017-03-24T16:53:05Z</time>
      </trkpt>
      <trkpt lat="45.24227" lon="2.7686">
        <ele>1155.373</ele>
        <time>2017-03-24T16:53:25Z</time>
      </trkpt>
      <trkpt lat="45.24085" lon="2.76799">
        <ele>1159.72</ele>
        <time>2017-03-24T16:53:45Z</time>
      </trkpt>
      <trkpt lat="45.23885" lon="2.76682">
        <ele>1159.308</ele>
        <time>2017-03-24T16:54:05Z</time>
      </trkpt>
      <trkpt lat="45.23795" lon="2.76668">
        <ele>1160.945</ele>
        <time>2017-03-24T16:54:25Z</time>
      </trkpt>
      <trkpt lat="45.23719" lon="2.7663">
        <ele>1162.899</ele>
        <time>2017-03-24T16:54:45Z</time>
      </trkpt>
      <trkpt lat="45.23651" lon="2.76619">
        <ele>1161.646</ele>
        <time>2017-03-24T16:55:05Z</time>
      </trkpt>
      <trkpt lat="45.23407" lon="2.76614">
        <ele>1157.749</ele>
        <time>2017-03-24T16:55:25Z</time>
      </trkpt>
      <trkpt lat="45.23336" lon="2.76636">
        <ele>1162.86</ele>
        <time>2017-03-24T16:55:45Z</time>
      </trkpt>
      <trkpt lat="45.23163" lon="2.76606">
        <ele>1163.083</ele>
        <time>2017-03-24T16:56:05Z</time>
      </trkpt>
      <trkpt lat="45.2313" lon="2.76553">
        <ele>1162.689</ele>
        <time>2017-03-24T16:56:25Z</time>
      </trkpt>
      <trkpt lat="45.2299" lon="2.76475">
        <ele>1160.733</ele>
        <time>2017-03-24T16:56:45Z</time>
      </trkpt>
      <trkpt lat="45.22898" lon="2.76449">
        <ele>1163.586</ele>
        <time>2017-03-24T16:57:05Z</time>
      </trkpt>
      <trkpt lat="45.22795" lon="2.76464">
        <ele>1168.06</ele>
        <time>2017-03-24T16:57:25Z</time>
      </trkpt>
      <trkpt lat="45.22725" lon="2.76435">
        <ele>1168.826</ele>
        <time>2017-03-24T16:57:45Z</time>
      </trkpt>
      <trkpt lat="45.22394" lon="2.76174">
        <ele>1174.608</ele>
        <time>2017-03-24T16:58:05Z</time>
      </trkpt>
      <trkpt lat="45.22294" lon="2.76129">
        <ele>1177.044</ele>
        <time>2017-03-24T16:58:25Z</time>
      </trkpt>
      <trkpt lat="45.22141" lon="2.76081">
        <ele>1179.978</ele>
        <time>2017-03-24T16:58:45Z</time>
      </trkpt>
      <trkpt lat="45.21946" lon="2.76091">
        <ele>1189.195</ele>
        <time>2017-03-24T16:59:05Z</time>
      </trkpt>
      <trkpt lat="45.21801" lon="2.76058">
        <ele>1192.998</ele>
        <time>2020-02-15T18:16:36Z</time>
      </trkpt>
      <trkpt lat="45.21591" lon="2.76064">
        <ele>1194.949</ele>
        <time>2020-02-15T18:16:56Z</time>
      </trkpt>
      <trkpt lat="45.21518" lon="2.76084">
        <ele>1197.972</ele>
        <time>2020-02-15T18:17:16Z</time>
      </trkpt>
      <trkpt lat="45.21404" lon="2.76103">
        <ele>1202.138</ele>
        <time>2020-02-15T18:17:36Z</time>
      </trkpt>
      <trkpt lat="45.21334" lon="2.7612">
        <ele>1208.112</ele>
        <time>2017-03-24T17:00:45Z</time>
      </trkpt>
      <trkpt lat="45.21126" lon="2.75993">
        <ele>1223.423</ele>
        <time>2017-03-24T17:01:05Z</time>
      </trkpt>
      <trkpt lat="45.20932" lon="2.75853">
        <ele>1227.883</ele>
        <time>2017-03-24T17:01:25Z</time>
      </trkpt>
      <trkpt lat="45.20855" lon="2.7587">
        <ele>1227.811</ele>
        <time>2017-03-24T17:01:45Z</time>
      </trkpt>
      <trkpt lat="45.2077" lon="2.75924">
        <ele>1236.508</ele>
        <time>2020-02-15T18:19:16Z</time>
      </trkpt>
      <trkpt lat="45.20639" lon="2.75968">
        <ele>1245.128</ele>
        <time>2020-02-15T18:19:36Z</time>
      </trkpt>
      <trkpt lat="45.20584" lon="2.76013">
        <ele>1247.472</ele>
        <time>2020-02-15T18:19:56Z</time>
      </trkpt>
      <trkpt lat="45.20518" lon="2.76043">
        <ele>1251.939</ele>
        <time>2020-02-15T18:20:16Z</time>
      </trkpt>
      <trkpt lat="45.20458" lon="2.76041">
        <ele>1253.862</ele>
        <time>2020-02-15T18:20:36Z</time>
      </trkpt>
      <trkpt lat="45.20387" lon="2.76011">
        <ele>1254.643</ele>
        <time>2020-02-15T18:20:56Z</time>
      </trkpt>
      <trkpt lat="45.20331" lon="2.76006">
        <ele>1253.746</ele>
        <time>2020-02-15T18:21:16Z</time>
      </trkpt>
      <trkpt lat="45.20229" lon="2.7595">
        <ele>1249.452</ele>
        <time>2020-02-15T18:21:36Z</time>
      </trkpt>
      <trkpt lat="45.19991" lon="2.75895">
        <ele>1245.186</ele>
        <time>2017-03-24T17:04:45Z</time>
      </trkpt>
      <trkpt lat="45.19875" lon="2.75862">
        <ele>1247.086</ele>
        <time>2020-02-15T18:22:16Z</time>
      </trkpt>
      <trkpt lat="45.19809" lon="2.7586">
        <ele>1249.26</ele>
        <time>2017-03-24T17:05:25Z</time>
      </trkpt>
      <trkpt lat="45.19687" lon="2.75879">
        <ele>1258.626</ele>
        <time>2017-03-24T17:05:45Z</time>
      </trkpt>
      <trkpt lat="45.19601" lon="2.75916">
        <ele>1266.808</ele>
        <time>2017-03-24T17:06:05Z</time>
      </trkpt>
      <trkpt lat="45.19529" lon="2.75971">
        <ele>1273.064</ele>
        <time>2017-03-24T17:06:25Z</time>
      </trkpt>
      <trkpt lat="45.19422" lon="2.7598">
        <ele>1278.198</ele>
        <time>2017-03-24T17:06:45Z</time>
      </trkpt>
      <trkpt lat="45.19178" lon="2.75832">
        <ele>1285.295</ele>
        <time>2020-02-15T18:24:16Z</time>
      </trkpt>
      <trkpt lat="45.18995" lon="2.75813">
        <ele>1301.028</ele>
        <time>2020-02-15T18:24:36Z</time>
      </trkpt>
      <trkpt lat="45.18933" lon="2.75886">
        <ele>1305.469</ele>
        <time>2020-02-15T18:24:56Z</time>
      </trkpt>
      <trkpt lat="45.18816" lon="2.76247">
        <ele>1308.422</ele>
        <time>2017-03-24T17:08:45Z</time>
      </trkpt>
      <trkpt lat="45.18753" lon="2.76458">
        <ele>1306.958</ele>
        <time>2020-02-15T18:25:36Z</time>
      </trkpt>
      <trkpt lat="45.18706" lon="2.76587">
        <ele>1305.672</ele>
        <time>2020-02-15T18:25:56Z</time>
      </trkpt>
      <trkpt lat="45.18571" lon="2.76874">
        <ele>1304.724</ele>
        <time>2020-02-15T18:26:16Z</time>
      </trkpt>
      <trkpt lat="45.18546" lon="2.76888">
        <ele>1304.404</ele>
        <time>2020-02-15T18:26:36Z</time>
      </trkpt>
      <trkpt lat="45.18473" lon="2.76822">
        <ele>1309.414</ele>
        <time>2020-02-15T18:26:56Z</time>
      </trkpt>
      <trkpt lat="45.18408" lon="2.76805">
        <ele>1311.608</ele>
        <time>2020-02-15T18:27:16Z</time>
      </trkpt>
      <trkpt lat="45.18296" lon="2.76805">
        <ele>1315.038</ele>
        <time>2020-02-15T18:27:36Z</time>
      </trkpt>
      <trkpt lat="45.18179" lon="2.76826">
        <ele>1319.282</ele>
        <time>2020-02-15T18:27:56Z</time>
      </trkpt>
      <trkpt lat="45.18088" lon="2.76863">
        <ele>1327.479</ele>
        <time>2020-02-15T18:28:16Z</time>
      </trkpt>
      <trkpt lat="45.18018" lon="2.76925">
        <ele>1334.772</ele>
        <time>2020-02-15T18:28:36Z</time>
      </trkpt>
      <trkpt lat="45.17931" lon="2.76936">
        <ele>1336.163</ele>
        <time>2020-02-15T18:28:56Z</time>
      </trkpt>
      <trkpt lat="45.17922" lon="2.76963">
        <ele>1333.876</ele>
        <time>2020-02-15T18:29:16Z</time>
      </trkpt>
      <trkpt lat="45.17922" lon="2.77031">
        <ele>1326.442</ele>
        <time>2020-02-15T18:29:36Z</time>
      </trkpt>
      <trkpt lat="45.17665" lon="2.77227">
        <ele>1326.636</ele>
        <time>2020-02-15T18:29:56Z</time>
      </trkpt>
      <trkpt lat="45.17534" lon="2.77364">
        <ele>1318.675</ele>
        <time>2020-02-15T18:30:16Z</time>
      </trkpt>
      <trkpt lat="45.17531" lon="2.77394">
        <ele>1316.928</ele>
        <time>2020-02-15T18:30:36Z</time>
      </trkpt>
      <trkpt lat="45.17486" lon="2.77438">
        <ele>1312.82</ele>
        <time>2020-02-15T18:30:56Z</time>
      </trkpt>
      <trkpt lat="45.17433" lon="2.77418">
        <ele>1309.208</ele>
        <time>2020-02-15T18:31:16Z</time>
      </trkpt>
      <trkpt lat="45.17418" lon="2.77446">
        <ele>1309.833</ele>
        <time>2020-02-15T18:31:36Z</time>
      </trkpt>
      <trkpt lat="45.17378" lon="2.77436">
        <ele>1315.367</ele>
        <time>2020-02-15T18:31:56Z</time>
      </trkpt>
      <trkpt lat="45.1736" lon="2.77458">
        <ele>1314.574</ele>
        <time>2020-02-15T18:32:16Z</time>
      </trkpt>
      <trkpt lat="45.17337" lon="2.77549">
        <ele>1314.617</ele>
        <time>2020-02-15T18:32:36Z</time>
      </trkpt>
      <trkpt lat="45.17326" lon="2.77645">
        <ele>1316.768</ele>
        <time>2020-02-15T18:32:56Z</time>
      </trkpt>
      <trkpt lat="45.17286" lon="2.77786">
        <ele>1322.431</ele>
        <time>2020-02-15T18:33:16Z</time>
      </trkpt>
      <trkpt lat="45.17256" lon="2.77889">
        <ele>1324.627</ele>
        <time>2020-02-15T18:33:36Z</time>
      </trkpt>
      <trkpt lat="45.17197" lon="2.77858">
        <ele>1332.591</ele>
        <time>2020-02-15T18:33:56Z</time>
      </trkpt>
      <trkpt lat="45.17142" lon="2.77863">
        <ele>1337.989</ele>
        <time>2020-02-15T18:34:16Z</time>
      </trkpt>
      <trkpt lat="45.17117" lon="2.77872">
        <ele>1339.206</ele>
        <time>2020-02-15T18:34:36Z</time>
      </trkpt>
      <trkpt lat="45.17036" lon="2.77828">
        <ele>1339.326</ele>
        <time>2020-02-15T18:34:56Z</time>
      </trkpt>
      <trkpt lat="45.17004" lon="2.77828">
        <ele>1342.808</ele>
        <time>2020-02-15T18:35:16Z</time>
      </trkpt>
      <trkpt lat="45.16972" lon="2.77814">
        <ele>1348.454</ele>
        <time>2020-02-15T18:35:36Z</time>
      </trkpt>
      <trkpt lat="45.16917" lon="2.77755">
        <ele>1351.878</ele>
        <time>2020-02-15T18:35:56Z</time>
      </trkpt>
      <trkpt lat="45.16902" lon="2.77744">
        <ele>1353.785</ele>
        <time>2020-02-15T18:36:16Z</time>
      </trkpt>
      <trkpt lat="45.16846" lon="2.77657">
        <ele>1362.638</ele>
        <time>2020-02-15T18:36:36Z</time>
      </trkpt>
      <trkpt lat="45.16846" lon="2.77594">
        <ele>1357.169</ele>
        <time>2020-02-15T18:36:56Z</time>
      </trkpt>
      <trkpt lat="45.16831" lon="2.77558">
        <ele>1355.722</ele>
        <time>2020-02-15T18:37:16Z</time>
      </trkpt>
      <trkpt lat="45.16752" lon="2.77335">
        <ele>1362.898</ele>
        <time>2020-02-15T18:37:36Z</time>
      </trkpt>
      <trkpt lat="45.16736" lon="2.77302">
        <ele>1363.412</ele>
        <time>2020-02-15T18:37:56Z</time>
      </trkpt>
      <trkpt lat="45.16753" lon="2.77244">
        <ele>1358.596</ele>
        <time>2020-02-15T18:38:16Z</time>
      </trkpt>
      <trkpt lat="45.16722" lon="2.7715">
        <ele>1364.631</ele>
        <time>2020-02-15T18:38:36Z</time>
      </trkpt>
      <trkpt lat="45.16694" lon="2.77103">
        <ele>1367.324</ele>
        <time>2020-02-15T18:38:56Z</time>
      </trkpt>
      <trkpt lat="45.1668" lon="2.76983">
        <ele>1372.408</ele>
        <time>2020-02-15T18:39:16Z</time>
      </trkpt>
      <trkpt lat="45.16654" lon="2.76915">
        <ele>1374.115</ele>
        <time>2020-02-15T18:39:36Z</time>
      </trkpt>
      <trkpt lat="45.16703" lon="2.76753">
        <ele>1378.769</ele>
        <time>2020-02-15T18:39:56Z</time>
      </trkpt>
      <trkpt lat="45.16728" lon="2.76638">
        <ele>1379.086</ele>
        <time>2020-02-15T18:40:16Z</time>
      </trkpt>
      <trkpt lat="45.16728" lon="2.76557">
        <ele>1378.789</ele>
        <time>2020-02-15T18:40:36Z</time>
      </trkpt>
      <trkpt lat="45.16723" lon="2.76517">
        <ele>1378.46</ele>
        <time>2020-02-15T18:40:56Z</time>
      </trkpt>
      <trkpt lat="45.16739" lon="2.76453">
        <ele>1381.583</ele>
        <time>2020-02-15T18:41:16Z</time>
      </trkpt>
      <trkpt lat="45.16765" lon="2.76421">
        <ele>1381.829</ele>
        <time>2020-02-15T18:41:36Z</time>
      </trkpt>
      <trkpt lat="45.16777" lon="2.76352">
        <ele>1384.083</ele>
        <time>2020-02-15T18:41:56Z</time>
      </trkpt>
      <trkpt lat="45.16769" lon="2.76291">
        <ele>1385.897</ele>
        <time>2020-02-15T18:42:16Z</time>
      </trkpt>
      <trkpt lat="45.16809" lon="2.7624">
        <ele>1387.023</ele>
        <time>2020-02-15T18:42:36Z</time>
      </trkpt>
      <trkpt lat="45.16868" lon="2.76129">
        <ele>1393.125</ele>
        <time>2020-02-15T18:42:56Z</time>
      </trkpt>
      <trkpt lat="45.16889" lon="2.76111">
        <ele>1393.008</ele>
        <time>2020-02-15T18:43:16Z</time>
      </trkpt>
      <trkpt lat="45.16897" lon="2.76054">
        <ele>1396.545</ele>
        <time>2020-02-15T18:43:36Z</time>
      </trkpt>
      <trkpt lat="45.16913" lon="2.76019">
        <ele>1401.169</ele>
        <time>2020-02-15T18:43:56Z</time>
      </trkpt>
      <trkpt lat="45.16917" lon="2.75979">
        <ele>1406.386</ele>
        <time>2020-02-15T18:44:16Z</time>
      </trkpt>
      <trkpt lat="45.16935" lon="2.75951">
        <ele>1410.639</ele>
        <time>2020-02-15T18:44:36Z</time>
      </trkpt>
      <trkpt lat="45.17032" lon="2.75919">
        <ele>1413.19</ele>
        <time>2020-02-15T18:44:56Z</time>
      </trkpt>
      <trkpt lat="45.17074" lon="2.75843">
        <ele>1415.613</ele>
        <time>2020-02-15T18:45:16Z</time>
      </trkpt>
      <trkpt lat="45.17165" lon="2.75721">
        <ele>1426.129</ele>
        <time>2020-02-15T18:45:36Z</time>
      </trkpt>
      <trkpt lat="45.17203" lon="2.75613">
        <ele>1425.473</ele>
        <time>2020-02-15T18:45:56Z</time>
      </trkpt>
      <trkpt lat="45.17224" lon="2.75489">
        <ele>1424.247</ele>
        <time>2020-02-15T18:46:16Z</time>
      </trkpt>
      <trkpt lat="45.17238" lon="2.75419">
        <ele>1425.629</ele>
        <time>2020-02-15T18:46:36Z</time>
      </trkpt>
      <trkpt lat="45.17235" lon="2.75397">
        <ele>1426.921</ele>
        <time>2020-02-15T18:46:56Z</time>
      </trkpt>
      <trkpt lat="45.17219" lon="2.7537">
        <ele>1430.108</ele>
        <time>2020-02-15T18:47:16Z</time>
      </trkpt>
      <trkpt lat="45.17223" lon="2.75342">
        <ele>1429.18</ele>
        <time>2020-02-15T18:47:36Z</time>
      </trkpt>
      <trkpt lat="45.17226" lon="2.75165">
        <ele>1427.884</ele>
        <time>2017-03-24T17:13:05Z</time>
      </trkpt>
      <trkpt lat="45.16955" lon="2.75083">
        <ele>1467.821</ele>
        <time>2020-02-15T18:48:16Z</time>
      </trkpt>
      <trkpt lat="45.16716" lon="2.74951">
        <ele>1467.864</ele>
        <time>2020-02-15T18:48:36Z</time>
      </trkpt>
      <trkpt lat="45.16522" lon="2.74833">
        <ele>1494.775</ele>
        <time>2020-02-15T18:48:56Z</time>
      </trkpt>
      <trkpt lat="45.1643" lon="2.74791">
        <ele>1501.568</ele>
        <time>2020-02-15T18:49:16Z</time>
      </trkpt>
      <trkpt lat="45.16412" lon="2.74802">
        <ele>1501.174</ele>
        <time>2020-02-15T18:49:36Z</time>
      </trkpt>
      <trkpt lat="45.16368" lon="2.74782">
        <ele>1500.088</ele>
        <time>2020-02-15T18:49:56Z</time>
      </trkpt>
      <trkpt lat="45.1633" lon="2.74711">
        <ele>1501.755</ele>
        <time>2020-02-15T18:50:16Z</time>
      </trkpt>
      <trkpt lat="45.16275" lon="2.74642">
        <ele>1499.907</ele>
        <time>2020-02-15T18:50:36Z</time>
      </trkpt>
      <trkpt lat="45.16261" lon="2.74598">
        <ele>1498.817</ele>
        <time>2020-02-15T18:50:56Z</time>
      </trkpt>
      <trkpt lat="45.16171" lon="2.74473">
        <ele>1509.808</ele>
        <time>2020-02-15T18:51:16Z</time>
      </trkpt>
      <trkpt lat="45.16057" lon="2.74406">
        <ele>1522.371</ele>
        <time>2017-03-24T17:15:25Z</time>
      </trkpt>
      <trkpt lat="45.15803" lon="2.74266">
        <ele>1543.885</ele>
        <time>2020-02-15T18:51:56Z</time>
      </trkpt>
      <trkpt lat="45.15541" lon="2.74204">
        <ele>1519.942</ele>
        <time>2017-03-24T17:16:45Z</time>
      </trkpt>
      <trkpt lat="45.15429" lon="2.74081">
        <ele>1518.545</ele>
        <time>2017-03-24T17:17:05Z</time>
      </trkpt>
      <trkpt lat="45.1527" lon="2.73963">
        <ele>1527.346</ele>
        <time>2017-03-24T17:17:25Z</time>
      </trkpt>
      <trkpt lat="45.15138" lon="2.73833">
        <ele>1551.179</ele>
        <time>2017-03-24T17:17:45Z</time>
      </trkpt>
      <trkpt lat="45.1509" lon="2.73805">
        <ele>1555.315</ele>
        <time>2017-03-24T17:18:05Z</time>
      </trkpt>
      <trkpt lat="45.14974" lon="2.73696">
        <ele>1571.869</ele>
        <time>2017-03-24T17:18:25Z</time>
      </trkpt>
      <trkpt lat="45.149" lon="2.73595">
        <ele>1575.849</ele>
        <time>2020-02-15T18:54:16Z</time>
      </trkpt>
      <trkpt lat="45.1485" lon="2.73466">
        <ele>1586.102</ele>
        <time>2017-03-24T17:19:05Z</time>
      </trkpt>
      <trkpt lat="45.14796" lon="2.73448">
        <ele>1579.622</ele>
        <time>2017-03-24T17:19:25Z</time>
      </trkpt>
      <trkpt lat="45.1478" lon="2.7332">
        <ele>1600.008</ele>
        <time>2017-03-24T17:19:45Z</time>
      </trkpt>
      <trkpt lat="45.14791" lon="2.73255">
        <ele>1605.26</ele>
        <time>2017-03-24T17:20:05Z</time>
      </trkpt>
      <trkpt lat="45.14726" lon="2.73225">
        <ele>1598.374</ele>
        <time>2020-02-15T18:55:56Z</time>
      </trkpt>
      <trkpt lat="45.14697" lon="2.73182">
        <ele>1584.741</ele>
        <time>2020-02-15T18:56:16Z</time>
      </trkpt>
      <trkpt lat="45.14666" lon="2.73163">
        <ele>1579.454</ele>
        <time>2020-02-15T18:56:36Z</time>
      </trkpt>
      <trkpt lat="45.14635" lon="2.73156">
        <ele>1576.375</ele>
        <time>2020-02-15T18:56:56Z</time>
      </trkpt>
      <trkpt lat="45.14606" lon="2.73116">
        <ele>1564.018</ele>
        <time>2020-02-15T18:57:16Z</time>
      </trkpt>
      <trkpt lat="45.14587" lon="2.73077">
        <ele>1554.334</ele>
        <time>2020-02-15T18:57:36Z</time>
      </trkpt>
      <trkpt lat="45.1449" lon="2.72948">
        <ele>1530.068</ele>
        <time>2017-03-24T17:21:45Z</time>
      </trkpt>
      <trkpt lat="45.14413" lon="2.72816">
        <ele>1511.337</ele>
        <time>2020-02-15T18:58:16Z</time>
      </trkpt>
      <trkpt lat="45.14391" lon="2.72733">
        <ele>1510.449</ele>
        <time>2020-02-15T18:58:36Z</time>
      </trkpt>
      <trkpt lat="45.14362" lon="2.72675">
        <ele>1513.513</ele>
        <time>2020-02-15T18:58:56Z</time>
      </trkpt>
      <trkpt lat="45.14355" lon="2.72611">
        <ele>1522.008</ele>
        <time>2020-02-15T18:59:16Z</time>
      </trkpt>
      <trkpt lat="45.14337" lon="2.72561">
        <ele>1524.049</ele>
        <time>2020-02-15T18:59:36Z</time>
      </trkpt>
      <trkpt lat="45.14298" lon="2.72509">
        <ele>1516.263</ele>
        <time>2020-02-15T18:59:56Z</time>
      </trkpt>
      <trkpt lat="45.14193" lon="2.72478">
        <ele>1499.93</ele>
        <time>2017-03-24T17:23:25Z</time>
      </trkpt>
      <trkpt lat="45.14109" lon="2.72306">
        <ele>1479.963</ele>
        <time>2017-03-24T17:23:45Z</time>
      </trkpt>
      <trkpt lat="45.14085" lon="2.72155">
        <ele>1470.394</ele>
        <time>2017-03-24T17:24:05Z</time>
      </trkpt>
      <trkpt lat="45.14048" lon="2.72051">
        <ele>1462.637</ele>
        <time>2017-03-24T17:24:25Z</time>
      </trkpt>
      <trkpt lat="45.14027" lon="2.71969">
        <ele>1470.253</ele>
        <time>2017-03-24T17:24:45Z</time>
      </trkpt>
      <trkpt lat="45.14019" lon="2.71893">
        <ele>1472.597</ele>
        <time>2017-03-24T17:25:05Z</time>
      </trkpt>
      <trkpt lat="45.13974" lon="2.71768">
        <ele>1477.139</ele>
        <time>2017-03-24T17:25:25Z</time>
      </trkpt>
      <trkpt lat="45.13963" lon="2.71716">
        <ele>1476.101</ele>
        <time>2017-03-24T17:25:45Z</time>
      </trkpt>
      <trkpt lat="45.13935" lon="2.71664">
        <ele>1479.221</ele>
        <time>2017-03-24T17:26:05Z</time>
      </trkpt>
      <trkpt lat="45.13884" lon="2.71634">
        <ele>1481.408</ele>
        <time>2020-02-15T19:03:16Z</time>
      </trkpt>
      <trkpt lat="45.13829" lon="2.7159">
        <ele>1478.069</ele>
        <time>2020-02-15T19:03:36Z</time>
      </trkpt>
      <trkpt lat="45.13774" lon="2.71574">
        <ele>1473.643</ele>
        <time>2020-02-15T19:03:56Z</time>
      </trkpt>
      <trkpt lat="45.13707" lon="2.71455">
        <ele>1462.88</ele>
        <time>2020-02-15T19:04:16Z</time>
      </trkpt>
      <trkpt lat="45.13666" lon="2.71415">
        <ele>1465.693</ele>
        <time>2020-02-15T19:04:36Z</time>
      </trkpt>
      <trkpt lat="45.13641" lon="2.71402">
        <ele>1459.124</ele>
        <time>2020-02-15T19:04:56Z</time>
      </trkpt>
      <trkpt lat="45.1362" lon="2.71325">
        <ele>1454.427</ele>
        <time>2020-02-15T19:05:16Z</time>
      </trkpt>
      <trkpt lat="45.13618" lon="2.71252">
        <ele>1449.743</ele>
        <time>2020-02-15T19:05:36Z</time>
      </trkpt>
      <trkpt lat="45.13566" lon="2.71208">
        <ele>1439.257</ele>
        <time>2020-02-15T19:05:56Z</time>
      </trkpt>
      <trkpt lat="45.13556" lon="2.71161">
        <ele>1433.222</ele>
        <time>2020-02-15T19:06:16Z</time>
      </trkpt>
      <trkpt lat="45.13533" lon="2.71115">
        <ele>1426.762</ele>
        <time>2020-02-15T19:06:36Z</time>
      </trkpt>
      <trkpt lat="45.13516" lon="2.71117">
        <ele>1423.708</ele>
        <time>2020-02-15T19:06:56Z</time>
      </trkpt>
      <trkpt lat="45.13509" lon="2.7106">
        <ele>1421.508</ele>
        <time>2020-02-15T19:07:16Z</time>
      </trkpt>
      <trkpt lat="45.13478" lon="2.71049">
        <ele>1409.418</ele>
        <time>2020-02-15T19:07:36Z</time>
      </trkpt>
      <trkpt lat="45.13453" lon="2.70963">
        <ele>1403.592</ele>
        <time>2020-02-15T19:07:56Z</time>
      </trkpt>
      <trkpt lat="45.13408" lon="2.70902">
        <ele>1390.789</ele>
        <time>2020-02-15T19:08:16Z</time>
      </trkpt>
      <trkpt lat="45.13376" lon="2.70828">
        <ele>1383.192</ele>
        <time>2020-02-15T19:08:36Z</time>
      </trkpt>
      <trkpt lat="45.13312" lon="2.70748">
        <ele>1365.793</ele>
        <time>2020-02-15T19:08:56Z</time>
      </trkpt>
      <trkpt lat="45.13288" lon="2.70678">
        <ele>1356.836</ele>
        <time>2020-02-15T19:09:16Z</time>
      </trkpt>
      <trkpt lat="45.13268" lon="2.70623">
        <ele>1349.022</ele>
        <time>2020-02-15T19:09:36Z</time>
      </trkpt>
      <trkpt lat="45.13228" lon="2.70561">
        <ele>1341.426</ele>
        <time>2020-02-15T19:09:56Z</time>
      </trkpt>
      <trkpt lat="45.13133" lon="2.70384">
        <ele>1325.076</ele>
        <time>2020-02-15T19:10:16Z</time>
      </trkpt>
      <trkpt lat="45.13071" lon="2.7032">
        <ele>1328.39</ele>
        <time>2020-02-15T19:10:36Z</time>
      </trkpt>
      <trkpt lat="45.13045" lon="2.70263">
        <ele>1328.819</ele>
        <time>2020-02-15T19:10:56Z</time>
      </trkpt>
      <trkpt lat="45.13048" lon="2.70237">
        <ele>1328.908</ele>
        <time>2020-02-15T19:11:16Z</time>
      </trkpt>
      <trkpt lat="45.12999" lon="2.70134">
        <ele>1337.883</ele>
        <time>2020-02-15T19:11:56Z</time>
      </trkpt>
      <trkpt lat="45.12919" lon="2.70115">
        <ele>1348.687</ele>
        <time>2020-02-15T19:12:16Z</time>
      </trkpt>
      <trkpt lat="45.12807" lon="2.70041">
        <ele>1356.934</ele>
        <time>2020-02-15T19:12:36Z</time>
      </trkpt>
      <trkpt lat="45.12754" lon="2.69985">
        <ele>1361.647</ele>
        <time>2020-02-15T19:12:56Z</time>
      </trkpt>
      <trkpt lat="45.12712" lon="2.69922">
        <ele>1361.448</ele>
        <time>2020-02-15T19:13:16Z</time>
      </trkpt>
      <trkpt lat="45.12659" lon="2.6986">
        <ele>1357.621</ele>
        <time>2020-02-15T19:13:36Z</time>
      </trkpt>
      <trkpt lat="45.1251" lon="2.69662">
        <ele>1376.047</ele>
        <time>2020-02-15T19:13:56Z</time>
      </trkpt>
      <trkpt lat="45.12458" lon="2.69631">
        <ele>1383.551</ele>
        <time>2020-02-15T19:14:16Z</time>
      </trkpt>
      <trkpt lat="45.12424" lon="2.69582">
        <ele>1391.177</ele>
        <time>2020-02-15T19:14:36Z</time>
      </trkpt>
      <trkpt lat="45.12208" lon="2.69502">
        <ele>1393.061</ele>
        <time>2020-02-15T19:14:56Z</time>
      </trkpt>
      <trkpt lat="45.1218" lon="2.69462">
        <ele>1392.927</ele>
        <time>2020-02-15T19:15:16Z</time>
      </trkpt>
      <trkpt lat="45.12113" lon="2.69419">
        <ele>1391.108</ele>
        <time>2020-02-15T19:15:36Z</time>
      </trkpt>
      <trkpt lat="45.12068" lon="2.69406">
        <ele>1388.193</ele>
        <time>2020-02-15T19:15:56Z</time>
      </trkpt>
      <trkpt lat="45.1204" lon="2.69369">
        <ele>1381.127</ele>
        <time>2020-02-15T19:16:16Z</time>
      </trkpt>
      <trkpt lat="45.11989" lon="2.69357">
        <ele>1373.684</ele>
        <time>2020-02-15T19:16:36Z</time>
      </trkpt>
      <trkpt lat="45.11927" lon="2.69336">
        <ele>1369.697</ele>
        <time>2020-11-20T14:50:05Z</time>
      </trkpt>
      <trkpt lat="45.11784" lon="2.69247">
        <ele>1377.488</ele>
        <time>2020-11-20T14:50:25Z</time>
      </trkpt>
      <trkpt lat="45.11752" lon="2.69211">
        <ele>1378.331</ele>
        <time>2020-11-20T14:50:45Z</time>
      </trkpt>
      <trkpt lat="45.1171" lon="2.69203">
        <ele>1379.097</ele>
        <time>2020-11-20T14:51:05Z</time>
      </trkpt>
      <trkpt lat="45.11631" lon="2.69145">
        <ele>1379.341</ele>
        <time>2020-11-20T14:51:25Z</time>
      </trkpt>
      <trkpt lat="45.11584" lon="2.69087">
        <ele>1380.981</ele>
        <time>2020-11-20T14:51:45Z</time>
      </trkpt>
      <trkpt lat="45.1153" lon="2.69048">
        <ele>1380.161</ele>
        <time>2020-11-20T14:52:05Z</time>
      </trkpt>
      <trkpt lat="45.11453" lon="2.68946">
        <ele>1381.817</ele>
        <time>2020-11-20T14:52:25Z</time>
      </trkpt>
      <trkpt lat="45.11437" lon="2.68907">
        <ele>1384.808</ele>
        <time>2020-11-20T14:52:45Z</time>
      </trkpt>
      <trkpt lat="45.11413" lon="2.68886">
        <ele>1388.854</ele>
        <time>2020-02-15T19:20:56Z</time>
      </trkpt>
      <trkpt lat="45.1141" lon="2.68842">
        <ele>1388.848</ele>
        <time>2020-11-20T14:53:25Z</time>
      </trkpt>
      <trkpt lat="45.11398" lon="2.68779">
        <ele>1392.745</ele>
        <time>2020-11-20T14:53:45Z</time>
      </trkpt>
      <trkpt lat="45.11405" lon="2.68728">
        <ele>1390.068</ele>
        <time>2020-11-20T14:54:05Z</time>
      </trkpt>
      <trkpt lat="45.11391" lon="2.68699">
        <ele>1394.519</ele>
        <time>2020-11-20T14:54:25Z</time>
      </trkpt>
      <trkpt lat="45.11397" lon="2.68657">
        <ele>1394.932</ele>
        <time>2020-02-15T19:22:36Z</time>
      </trkpt>
      <trkpt lat="45.11383" lon="2.68626">
        <ele>1399.858</ele>
        <time>2020-02-15T19:22:56Z</time>
      </trkpt>
      <trkpt lat="45.11344" lon="2.68614">
        <ele>1406.932</ele>
        <time>2020-11-20T14:55:25Z</time>
      </trkpt>
      <trkpt lat="45.11327" lon="2.68595">
        <ele>1409.284</ele>
        <time>2020-02-15T19:23:16Z</time>
      </trkpt>
      <trkpt lat="45.11288" lon="2.68639">
        <ele>1415.007</ele>
        <time>2020-02-15T19:23:36Z</time>
      </trkpt>
      <trkpt lat="45.11226" lon="2.68626">
        <ele>1421.117</ele>
        <time>2020-02-15T19:23:56Z</time>
      </trkpt>
      <trkpt lat="45.11104" lon="2.68549">
        <ele>1431.008</ele>
        <time>2020-02-15T19:24:16Z</time>
      </trkpt>
      <trkpt lat="45.11087" lon="2.68515">
        <ele>1435.484</ele>
        <time>2020-02-15T19:24:36Z</time>
      </trkpt>
      <trkpt lat="45.11084" lon="2.68476">
        <ele>1451.148</ele>
        <time>2020-02-15T19:24:56Z</time>
      </trkpt>
      <trkpt lat="45.11026" lon="2.68414">
        <ele>1467.915</ele>
        <time>2020-02-15T19:25:16Z</time>
      </trkpt>
      <trkpt lat="45.10996" lon="2.68335">
        <ele>1489.168</ele>
        <time>2020-02-15T19:25:36Z</time>
      </trkpt>
      <trkpt lat="45.1096" lon="2.6832">
        <ele>1484.919</ele>
        <time>2020-02-15T19:25:56Z</time>
      </trkpt>
      <trkpt lat="45.10964" lon="2.68306">
        <ele>1494.222</ele>
        <time>2020-02-15T19:26:16Z</time>
      </trkpt>
      <trkpt lat="45.10995" lon="2.68299">
        <ele>1510.048</ele>
        <time>2020-02-15T19:26:36Z</time>
      </trkpt>
      <trkpt lat="45.11028" lon="2.6832">
        <ele>1504.712</ele>
        <time>2020-02-15T19:26:56Z</time>
      </trkpt>
      <trkpt lat="45.11049" lon="2.68356">
        <ele>1491.515</ele>
        <time>2020-02-15T19:27:16Z</time>
      </trkpt>
      <trkpt lat="45.11079" lon="2.68363">
        <ele>1495.565</ele>
        <time>2020-02-15T19:27:36Z</time>
      </trkpt>
      <trkpt lat="45.11096" lon="2.68352">
        <ele>1499.211</ele>
        <time>2020-02-15T19:27:56Z</time>
      </trkpt>
      <trkpt lat="45.11058" lon="2.68312">
        <ele>1512.308</ele>
        <time>2020-02-15T19:28:16Z</time>
      </trkpt>
      <trkpt lat="45.1107" lon="2.68309">
        <ele>1515.627</ele>
        <time>2020-02-15T19:28:36Z</time>
      </trkpt>
      <trkpt lat="45.11077" lon="2.68294">
        <ele>1522.541</ele>
        <time>2020-02-15T19:28:56Z</time>
      </trkpt>
      <trkpt lat="45.11095" lon="2.68292">
        <ele>1521.228</ele>
        <time>2020-02-15T19:29:16Z</time>
      </trkpt>
      <trkpt lat="45.11115" lon="2.68279">
        <ele>1518.541</ele>
        <time>2020-02-15T19:29:36Z</time>
      </trkpt>
      <trkpt lat="45.11118" lon="2.68205">
        <ele>1525.532</ele>
        <time>2020-02-15T19:29:56Z</time>
      </trkpt>
      <trkpt lat="45.11149" lon="2.68183">
        <ele>1520.735</ele>
        <time>2020-02-15T19:30:16Z</time>
      </trkpt>
      <trkpt lat="45.11169" lon="2.68152">
        <ele>1520.721</ele>
        <time>2020-02-15T19:30:36Z</time>
      </trkpt>
      <trkpt lat="45.11169" lon="2.68126">
        <ele>1526.275</ele>
        <time>2020-02-15T19:30:56Z</time>
      </trkpt>
      <trkpt lat="45.11166" lon="2.68089">
        <ele>1534.366</ele>
        <time>2020-02-15T19:31:16Z</time>
      </trkpt>
      <trkpt lat="45.11179" lon="2.6806">
        <ele>1533.229</ele>
        <time>2020-02-15T19:31:36Z</time>
      </trkpt>
      <trkpt lat="45.11195" lon="2.68003">
        <ele>1531.221</ele>
        <time>2020-02-15T19:31:56Z</time>
      </trkpt>
      <trkpt lat="45.11147" lon="2.68019">
        <ele>1548.408</ele>
        <time>2020-02-15T19:32:16Z</time>
      </trkpt>
      <trkpt lat="45.11136" lon="2.68008">
        <ele>1553.192</ele>
        <time>2020-02-15T19:32:36Z</time>
      </trkpt>
      <trkpt lat="45.11115" lon="2.68002">
        <ele>1560.586</ele>
        <time>2020-11-20T15:05:25Z</time>
      </trkpt>
      <trkpt lat="45.11133" lon="2.67976">
        <ele>1558.863</ele>
        <time>2020-11-20T15:05:45Z</time>
      </trkpt>
      <trkpt lat="45.11143" lon="2.67932">
        <ele>1552.996</ele>
        <time>2020-11-20T15:06:05Z</time>
      </trkpt>
      <trkpt lat="45.11138" lon="2.67881">
        <ele>1552.097</ele>
        <time>2020-11-20T15:06:25Z</time>
      </trkpt>
      <trkpt lat="45.11156" lon="2.67862">
        <ele>1545.81</ele>
        <time>2020-11-20T15:06:45Z</time>
      </trkpt>
      <trkpt lat="45.11156" lon="2.67823">
        <ele>1549.136</ele>
        <time>2020-11-20T15:07:05Z</time>
      </trkpt>
      <trkpt lat="45.11165" lon="2.67799">
        <ele>1547.66</ele>
        <time>2020-11-20T15:07:25Z</time>
      </trkpt>
      <trkpt lat="45.11176" lon="2.67697">
        <ele>1553.037</ele>
        <time>2020-11-20T15:07:45Z</time>
      </trkpt>
      <trkpt lat="45.11203" lon="2.676">
        <ele>1560.649</ele>
        <time>2020-11-20T15:08:05Z</time>
      </trkpt>
      <trkpt lat="45.11234" lon="2.67554">
        <ele>1559.613</ele>
        <time>2020-11-20T15:08:25Z</time>
      </trkpt>
      <trkpt lat="45.11272" lon="2.67437">
        <ele>1574.408</ele>
        <time>2020-11-20T15:08:45Z</time>
      </trkpt>
      <trkpt lat="45.11302" lon="2.67371">
        <ele>1575.679</ele>
        <time>2020-11-20T15:09:05Z</time>
      </trkpt>
      <trkpt lat="45.11345" lon="2.67264">
        <ele>1584.453</ele>
        <time>2020-11-20T15:09:25Z</time>
      </trkpt>
      <trkpt lat="45.1139" lon="2.67219">
        <ele>1586.87</ele>
        <time>2020-11-20T15:09:45Z</time>
      </trkpt>
      <trkpt lat="45.11413" lon="2.67181">
        <ele>1584.093</ele>
        <time>2020-11-20T15:10:05Z</time>
      </trkpt>
      <trkpt lat="45.11377" lon="2.67196">
        <ele>1585.844</ele>
        <time>2020-11-20T15:10:25Z</time>
      </trkpt>
      <trkpt lat="45.11314" lon="2.67241">
        <ele>1592.127</ele>
        <time>2020-11-20T15:10:45Z</time>
      </trkpt>
      <trkpt lat="45.11287" lon="2.6725">
        <ele>1601.233</ele>
        <time>2020-11-20T15:11:05Z</time>
      </trkpt>
      <trkpt lat="45.1125" lon="2.6731">
        <ele>1610.577</ele>
        <time>2020-11-20T15:11:25Z</time>
      </trkpt>
      <trkpt lat="45.11234" lon="2.67305">
        <ele>1614.943</ele>
        <time>2020-11-20T15:11:45Z</time>
      </trkpt>
      <trkpt lat="45.1121" lon="2.67326">
        <ele>1622.164</ele>
        <time>2020-11-20T15:12:05Z</time>
      </trkpt>
      <trkpt lat="45.11163" lon="2.6733">
        <ele>1640.01</ele>
        <time>2020-11-20T15:12:25Z</time>
      </trkpt>
      <trkpt lat="45.1114" lon="2.67364">
        <ele>1650.308</ele>
        <time>2020-11-20T15:12:45Z</time>
      </trkpt>
      <trkpt lat="45.11111" lon="2.67382">
        <ele>1658.31</ele>
        <time>2020-11-20T15:13:05Z</time>
      </trkpt>
      <trkpt lat="45.11086" lon="2.67414">
        <ele>1674.974</ele>
        <time>2020-11-20T15:13:25Z</time>
      </trkpt>
      <trkpt lat="45.11064" lon="2.67431">
        <ele>1684.871</ele>
        <time>2020-11-20T15:13:45Z</time>
      </trkpt>
      <trkpt lat="45.11062" lon="2.67454">
        <ele>1685.814</ele>
        <time>2020-11-20T15:14:05Z</time>
      </trkpt>
      <trkpt lat="45.11039" lon="2.6745">
        <ele>1691.415</ele>
        <time>2020-11-20T15:14:25Z</time>
      </trkpt>
      <trkpt lat="45.10995" lon="2.67479">
        <ele>1701.888</ele>
        <time>2020-11-20T15:14:45Z</time>
      </trkpt>
      <trkpt lat="45.10987" lon="2.67496">
        <ele>1714.834</ele>
        <time>2020-11-20T15:15:05Z</time>
      </trkpt>
      <trkpt lat="45.1094" lon="2.67515">
        <ele>1735.398</ele>
        <time>2020-11-20T15:15:25Z</time>
      </trkpt>
      <trkpt lat="45.10954" lon="2.67536">
        <ele>1742.548</ele>
        <time>2020-11-20T15:15:45Z</time>
      </trkpt>
      <trkpt lat="45.10931" lon="2.67604">
        <ele>1765.561</ele>
        <time>2020-11-20T15:16:05Z</time>
      </trkpt>
      <trkpt lat="45.10936" lon="2.67633">
        <ele>1767.217</ele>
        <time>2020-11-20T15:16:25Z</time>
      </trkpt>
      <trkpt lat="45.10926" lon="2.67649">
        <ele>1766.508</ele>
        <time>2020-11-20T15:16:45Z</time>
      </trkpt>
      <trkpt lat="45.10918" lon="2.67717">
        <ele>1751.93</ele>
        <time>2020-11-20T15:17:05Z</time>
      </trkpt>
      <trkpt lat="45.1091" lon="2.67722">
        <ele>1747.124</ele>
        <time>2020-11-20T15:17:25Z</time>
      </trkpt>
      <trkpt lat="45.10909" lon="2.67742">
        <ele>1740.261</ele>
        <time>2020-11-20T15:17:45Z</time>
      </trkpt>
      <trkpt lat="45.10899" lon="2.67745">
        <ele>1734.484</ele>
        <time>2020-11-20T15:18:05Z</time>
      </trkpt>
      <trkpt lat="45.10889" lon="2.67774">
        <ele>1720.445</ele>
        <time>2020-11-20T15:18:25Z</time>
      </trkpt>
      <trkpt lat="45.10864" lon="2.67795">
        <ele>1703.748</ele>
        <time>2020-11-20T15:18:45Z</time>
      </trkpt>
      <trkpt lat="45.1083" lon="2.67814">
        <ele>1686.474</ele>
        <time>2020-11-20T15:19:05Z</time>
      </trkpt>
      <trkpt lat="45.10831" lon="2.67825">
        <ele>1684.848</ele>
        <time>2020-11-20T15:19:25Z</time>
      </trkpt>
      <trkpt lat="45.10789" lon="2.67862">
        <ele>1664.712</ele>
        <time>2020-11-20T15:19:45Z</time>
      </trkpt>
      <trkpt lat="45.1078" lon="2.67883">
        <ele>1657.632</ele>
        <time>2020-11-20T15:20:05Z</time>
      </trkpt>
      <trkpt lat="45.10757" lon="2.67901">
        <ele>1652.505</ele>
        <time>2020-11-20T15:20:25Z</time>
      </trkpt>
      <trkpt lat="45.10674" lon="2.68033">
        <ele>1607.608</ele>
        <time>2020-11-20T15:20:45Z</time>
      </trkpt>
      <trkpt lat="45.10661" lon="2.6809">
        <ele>1599.257</ele>
        <time>2020-11-20T15:21:05Z</time>
      </trkpt>
      <trkpt lat="45.10635" lon="2.68149">
        <ele>1587.491</ele>
        <time>2020-02-15T19:36:16Z</time>
      </trkpt>
      <trkpt lat="45.10564" lon="2.68227">
        <ele>1582.228</ele>
        <time>2020-02-15T19:36:36Z</time>
      </trkpt>
      <trkpt lat="45.10536" lon="2.68262">
        <ele>1588.521</ele>
        <time>2020-02-15T19:36:56Z</time>
      </trkpt>
      <trkpt lat="45.10504" lon="2.68293">
        <ele>1596.442</ele>
        <time>2020-02-15T19:37:16Z</time>
      </trkpt>
      <trkpt lat="45.10427" lon="2.68416">
        <ele>1618.485</ele>
        <time>2020-02-15T19:37:36Z</time>
      </trkpt>
      <trkpt lat="45.10406" lon="2.68468">
        <ele>1623.191</ele>
        <time>2020-02-15T19:37:56Z</time>
      </trkpt>
      <trkpt lat="45.10395" lon="2.6852">
        <ele>1622.875</ele>
        <time>2020-02-15T19:38:16Z</time>
      </trkpt>
      <trkpt lat="45.10373" lon="2.68556">
        <ele>1619.867</ele>
        <time>2020-02-15T19:38:36Z</time>
      </trkpt>
      <trkpt lat="45.10374" lon="2.68602">
        <ele>1622.281</ele>
        <time>2020-02-15T19:38:56Z</time>
      </trkpt>
      <trkpt lat="45.10372" lon="2.68627">
        <ele>1625.119</ele>
        <time>2020-02-15T19:39:16Z</time>
      </trkpt>
      <trkpt lat="45.10375" lon="2.68647">
        <ele>1628.408</ele>
        <time>2020-02-15T19:39:36Z</time>
      </trkpt>
      <trkpt lat="45.10373" lon="2.68658">
        <ele>1630.462</ele>
        <time>2020-02-15T19:39:56Z</time>
      </trkpt>
      <trkpt lat="45.10377" lon="2.68673">
        <ele>1633.666</ele>
        <time>2020-02-15T19:40:16Z</time>
      </trkpt>
      <trkpt lat="45.10368" lon="2.68699">
        <ele>1639.873</ele>
        <time>2020-02-15T19:40:36Z</time>
      </trkpt>
      <trkpt lat="45.10361" lon="2.68767">
        <ele>1646.786</ele>
        <time>2020-02-15T19:40:56Z</time>
      </trkpt>
      <trkpt lat="45.10364" lon="2.68809">
        <ele>1651.317</ele>
        <time>2020-02-15T19:41:16Z</time>
      </trkpt>
      <trkpt lat="45.1037" lon="2.68836">
        <ele>1655.33</ele>
        <time>2020-02-15T19:41:36Z</time>
      </trkpt>
      <trkpt lat="45.10357" lon="2.68905">
        <ele>1656.726</ele>
        <time>2020-02-15T19:41:56Z</time>
      </trkpt>
      <trkpt lat="45.1032" lon="2.6896">
        <ele>1647.21</ele>
        <time>2020-02-15T19:42:16Z</time>
      </trkpt>
      <trkpt lat="45.10318" lon="2.69043">
        <ele>1646.427</ele>
        <time>2020-02-15T19:42:36Z</time>
      </trkpt>
      <trkpt lat="45.10294" lon="2.691">
        <ele>1655.868</ele>
        <time>2020-02-15T19:42:56Z</time>
      </trkpt>
      <trkpt lat="45.10241" lon="2.69291">
        <ele>1652.614</ele>
        <time>2020-02-15T19:43:16Z</time>
      </trkpt>
      <trkpt lat="45.10236" lon="2.69367">
        <ele>1654.108</ele>
        <time>2020-02-15T19:43:36Z</time>
      </trkpt>
      <trkpt lat="45.10262" lon="2.69433">
        <ele>1654.238</ele>
        <time>2020-02-15T19:43:56Z</time>
      </trkpt>
      <trkpt lat="45.10267" lon="2.69459">
        <ele>1652.262</ele>
        <time>2020-02-15T19:44:16Z</time>
      </trkpt>
      <trkpt lat="45.1034" lon="2.69538">
        <ele>1626.519</ele>
        <time>2020-02-15T19:44:36Z</time>
      </trkpt>
      <trkpt lat="45.10348" lon="2.69617">
        <ele>1627.862</ele>
        <time>2020-02-15T19:44:56Z</time>
      </trkpt>
      <trkpt lat="45.10375" lon="2.6971">
        <ele>1628.233</ele>
        <time>2020-02-15T19:45:16Z</time>
      </trkpt>
      <trkpt lat="45.10392" lon="2.69789">
        <ele>1625.236</ele>
        <time>2020-02-15T19:45:36Z</time>
      </trkpt>
      <trkpt lat="45.10414" lon="2.69856">
        <ele>1633.272</ele>
        <time>2020-02-15T19:45:56Z</time>
      </trkpt>
      <trkpt lat="45.10431" lon="2.6991">
        <ele>1638.496</ele>
        <time>2020-02-15T19:46:16Z</time>
      </trkpt>
      <trkpt lat="45.10462" lon="2.69941">
        <ele>1636.038</ele>
        <time>2020-02-15T19:46:36Z</time>
      </trkpt>
      <trkpt lat="45.10486" lon="2.69973">
        <ele>1632.67</ele>
        <time>2020-02-15T19:46:56Z</time>
      </trkpt>
      <trkpt lat="45.10515" lon="2.70003">
        <ele>1630.817</ele>
        <time>2020-02-15T19:47:16Z</time>
      </trkpt>
      <trkpt lat="45.10534" lon="2.70036">
        <ele>1629.608</ele>
        <time>2020-02-15T19:47:36Z</time>
      </trkpt>
      <trkpt lat="45.10555" lon="2.70128">
        <ele>1629.669</ele>
        <time>2020-02-15T19:47:56Z</time>
      </trkpt>
      <trkpt lat="45.10554" lon="2.70195">
        <ele>1628.893</ele>
        <time>2020-02-15T19:48:16Z</time>
      </trkpt>
      <trkpt lat="45.10538" lon="2.7033">
        <ele>1612.68</ele>
        <time>2020-02-15T19:48:36Z</time>
      </trkpt>
      <trkpt lat="45.10569" lon="2.70388">
        <ele>1624.933</ele>
        <time>2020-02-15T19:48:56Z</time>
      </trkpt>
      <trkpt lat="45.10587" lon="2.70446">
        <ele>1627.684</ele>
        <time>2020-02-15T19:49:16Z</time>
      </trkpt>
      <trkpt lat="45.10587" lon="2.70515">
        <ele>1615.877</ele>
        <time>2020-02-15T19:49:36Z</time>
      </trkpt>
      <trkpt lat="45.10585" lon="2.70573">
        <ele>1604.813</ele>
        <time>2020-02-15T19:49:56Z</time>
      </trkpt>
      <trkpt lat="45.10606" lon="2.70608">
        <ele>1604.077</ele>
        <time>2020-02-15T19:50:16Z</time>
      </trkpt>
      <trkpt lat="45.10615" lon="2.70637">
        <ele>1592.061</ele>
        <time>2020-02-15T19:50:36Z</time>
      </trkpt>
      <trkpt lat="45.10666" lon="2.70679">
        <ele>1600.721</ele>
        <time>2020-02-15T19:50:56Z</time>
      </trkpt>
      <trkpt lat="45.10687" lon="2.70732">
        <ele>1601.113</ele>
        <time>2020-02-15T19:51:16Z</time>
      </trkpt>
      <trkpt lat="45.10693" lon="2.70802">
        <ele>1597.908</ele>
        <time>2020-02-15T19:51:36Z</time>
      </trkpt>
      <trkpt lat="45.1069" lon="2.70829">
        <ele>1592.962</ele>
        <time>2020-02-15T19:51:56Z</time>
      </trkpt>
      <trkpt lat="45.10699" lon="2.70856">
        <ele>1598.866</ele>
        <time>2020-02-15T19:52:16Z</time>
      </trkpt>
      <trkpt lat="45.10667" lon="2.70934">
        <ele>1577.973</ele>
        <time>2020-02-15T19:52:36Z</time>
      </trkpt>
      <trkpt lat="45.10687" lon="2.70968">
        <ele>1589.826</ele>
        <time>2020-02-15T19:52:56Z</time>
      </trkpt>
      <trkpt lat="45.10692" lon="2.71022">
        <ele>1591.527</ele>
        <time>2020-02-15T19:53:16Z</time>
      </trkpt>
      <trkpt lat="45.10676" lon="2.71064">
        <ele>1587.95</ele>
        <time>2020-02-15T19:53:36Z</time>
      </trkpt>
      <trkpt lat="45.1063" lon="2.7111">
        <ele>1580.556</ele>
        <time>2020-02-15T19:53:56Z</time>
      </trkpt>
      <trkpt lat="45.10598" lon="2.7113">
        <ele>1573.46</ele>
        <time>2020-02-15T19:54:16Z</time>
      </trkpt>
      <trkpt lat="45.10586" lon="2.71152">
        <ele>1573.319</ele>
        <time>2020-02-15T19:54:36Z</time>
      </trkpt>
      <trkpt lat="45.10579" lon="2.71186">
        <ele>1577.909</ele>
        <time>2020-02-15T19:54:56Z</time>
      </trkpt>
      <trkpt lat="45.1056" lon="2.71209">
        <ele>1572.319</ele>
        <time>2020-02-15T19:55:16Z</time>
      </trkpt>
      <trkpt lat="45.10546" lon="2.7122">
        <ele>1565.308</ele>
        <time>2020-02-15T19:55:36Z</time>
      </trkpt>
      <trkpt lat="45.10522" lon="2.7128">
        <ele>1564.067</ele>
        <time>2020-02-15T19:55:56Z</time>
      </trkpt>
      <trkpt lat="45.1049" lon="2.71318">
        <ele>1559.091</ele>
        <time>2020-02-15T19:56:16Z</time>
      </trkpt>
      <trkpt lat="45.10439" lon="2.71333">
        <ele>1538.378</ele>
        <time>2020-02-15T19:56:36Z</time>
      </trkpt>
      <trkpt lat="45.10431" lon="2.71372">
        <ele>1539.531</ele>
        <time>2020-02-15T19:56:56Z</time>
      </trkpt>
      <trkpt lat="45.10442" lon="2.71464">
        <ele>1541.252</ele>
        <time>2020-02-15T19:57:16Z</time>
      </trkpt>
      <trkpt lat="45.10417" lon="2.71547">
        <ele>1531.695</ele>
        <time>2020-02-15T19:57:36Z</time>
      </trkpt>
      <trkpt lat="45.10389" lon="2.71601">
        <ele>1525.411</ele>
        <time>2020-02-15T19:57:56Z</time>
      </trkpt>
      <trkpt lat="45.10308" lon="2.71645">
        <ele>1526.795</ele>
        <time>2020-02-15T19:58:16Z</time>
      </trkpt>
      <trkpt lat="45.10291" lon="2.71649">
        <ele>1529.918</ele>
        <time>2020-02-15T19:58:36Z</time>
      </trkpt>
      <trkpt lat="45.10175" lon="2.71628">
        <ele>1524.198</ele>
        <time>2020-02-15T19:58:56Z</time>
      </trkpt>
      <trkpt lat="45.10087" lon="2.71668">
        <ele>1533.717</ele>
        <time>2020-02-15T19:59:16Z</time>
      </trkpt>
      <trkpt lat="45.0998" lon="2.71644">
        <ele>1533.008</ele>
        <time>2020-02-15T19:59:36Z</time>
      </trkpt>
      <trkpt lat="45.0989" lon="2.71659">
        <ele>1537.457</ele>
        <time>2020-02-15T19:59:56Z</time>
      </trkpt>
      <trkpt lat="45.09809" lon="2.7169">
        <ele>1548.831</ele>
        <time>2020-02-15T20:00:16Z</time>
      </trkpt>
      <trkpt lat="45.09736" lon="2.71709">
        <ele>1545.078</ele>
        <time>2020-02-15T20:00:36Z</time>
      </trkpt>
      <trkpt lat="45.09669" lon="2.71748">
        <ele>1546.061</ele>
        <time>2020-02-15T20:00:56Z</time>
      </trkpt>
      <trkpt lat="45.09627" lon="2.71761">
        <ele>1542.162</ele>
        <time>2020-02-15T20:01:16Z</time>
      </trkpt>
      <trkpt lat="45.09492" lon="2.71767">
        <ele>1541.535</ele>
        <time>2020-02-15T20:01:36Z</time>
      </trkpt>
      <trkpt lat="45.09398" lon="2.71736">
        <ele>1539.991</ele>
        <time>2020-02-15T20:01:56Z</time>
      </trkpt>
      <trkpt lat="45.09374" lon="2.71722">
        <ele>1538.585</ele>
        <time>2020-02-15T20:02:16Z</time>
      </trkpt>
      <trkpt lat="45.0934" lon="2.71712">
        <ele>1539.734</ele>
        <time>2020-02-15T20:02:36Z</time>
      </trkpt>
      <trkpt lat="45.09298" lon="2.7168">
        <ele>1535.555</ele>
        <time>2020-02-15T20:02:56Z</time>
      </trkpt>
      <trkpt lat="45.09278" lon="2.71683">
        <ele>1534.61</ele>
        <time>2020-02-15T20:03:16Z</time>
      </trkpt>
      <trkpt lat="45.09239" lon="2.71674">
        <ele>1529.808</ele>
        <time>2020-02-15T20:03:36Z</time>
      </trkpt>
      <trkpt lat="45.09142" lon="2.71707">
        <ele>1526.649</ele>
        <time>2020-02-15T20:03:56Z</time>
      </trkpt>
      <trkpt lat="45.09101" lon="2.71706">
        <ele>1520.933</ele>
        <time>2020-02-15T20:04:16Z</time>
      </trkpt>
      <trkpt lat="45.09079" lon="2.71722">
        <ele>1516.31</ele>
        <time>2020-02-15T20:04:36Z</time>
      </trkpt>
      <trkpt lat="45.09036" lon="2.71802">
        <ele>1499.393</ele>
        <time>2020-02-15T20:04:56Z</time>
      </trkpt>
      <trkpt lat="45.09022" lon="2.7186">
        <ele>1498.684</ele>
        <time>2020-02-15T20:05:16Z</time>
      </trkpt>
      <trkpt lat="45.09029" lon="2.71905">
        <ele>1491.177</ele>
        <time>2020-02-15T20:05:36Z</time>
      </trkpt>
      <trkpt lat="45.09002" lon="2.71971">
        <ele>1483.013</ele>
        <time>2020-02-15T20:05:56Z</time>
      </trkpt>
      <trkpt lat="45.08968" lon="2.72015">
        <ele>1483.537</ele>
        <time>2020-02-15T20:06:16Z</time>
      </trkpt>
      <trkpt lat="45.08944" lon="2.72095">
        <ele>1475.519</ele>
        <time>2020-02-15T20:06:36Z</time>
      </trkpt>
      <trkpt lat="45.08936" lon="2.72241">
        <ele>1461.709</ele>
        <time>2020-02-15T20:06:56Z</time>
      </trkpt>
      <trkpt lat="45.08913" lon="2.72261">
        <ele>1457.019</ele>
        <time>2020-02-15T20:07:16Z</time>
      </trkpt>
      <trkpt lat="45.08878" lon="2.72279">
        <ele>1456.608</ele>
        <time>2020-02-15T20:07:36Z</time>
      </trkpt>
      <trkpt lat="45.08835" lon="2.72349">
        <ele>1444.397</ele>
        <time>2020-02-15T20:07:56Z</time>
      </trkpt>
      <trkpt lat="45.08794" lon="2.72397">
        <ele>1435.871</ele>
        <time>2020-02-15T20:08:16Z</time>
      </trkpt>
      <trkpt lat="45.08767" lon="2.72469">
        <ele>1426.038</ele>
        <time>2020-02-15T20:08:36Z</time>
      </trkpt>
      <trkpt lat="45.08756" lon="2.72549">
        <ele>1412.041</ele>
        <time>2020-02-15T20:08:56Z</time>
      </trkpt>
      <trkpt lat="45.08738" lon="2.72583">
        <ele>1406.072</ele>
        <time>2020-02-15T20:09:16Z</time>
      </trkpt>
      <trkpt lat="45.08708" lon="2.72617">
        <ele>1399.095</ele>
        <time>2020-02-15T20:09:36Z</time>
      </trkpt>
      <trkpt lat="45.08687" lon="2.72683">
        <ele>1390.441</ele>
        <time>2020-02-15T20:09:56Z</time>
      </trkpt>
      <trkpt lat="45.08688" lon="2.72787">
        <ele>1377.295</ele>
        <time>2020-02-15T20:10:16Z</time>
      </trkpt>
      <trkpt lat="45.08702" lon="2.72837">
        <ele>1371.022</ele>
        <time>2020-02-15T20:10:36Z</time>
      </trkpt>
      <trkpt lat="45.08704" lon="2.7298">
        <ele>1353.362</ele>
        <time>2020-02-15T20:10:56Z</time>
      </trkpt>
      <trkpt lat="45.08687" lon="2.7306">
        <ele>1349.108</ele>
        <time>2020-02-15T20:11:16Z</time>
      </trkpt>
      <trkpt lat="45.08666" lon="2.73102">
        <ele>1345.308</ele>
        <time>2020-02-15T20:11:36Z</time>
      </trkpt>
      <trkpt lat="45.08653" lon="2.73138">
        <ele>1341.568</ele>
        <time>2020-02-15T20:11:56Z</time>
      </trkpt>
      <trkpt lat="45.08603" lon="2.73212">
        <ele>1317.172</ele>
        <time>2020-02-15T20:12:16Z</time>
      </trkpt>
      <trkpt lat="45.08602" lon="2.73294">
        <ele>1318.429</ele>
        <time>2020-02-15T20:12:36Z</time>
      </trkpt>
      <trkpt lat="45.08538" lon="2.73448">
        <ele>1292.162</ele>
        <time>2020-02-15T20:12:56Z</time>
      </trkpt>
      <trkpt lat="45.08534" lon="2.73522">
        <ele>1290.123</ele>
        <time>2020-02-15T20:13:16Z</time>
      </trkpt>
      <trkpt lat="45.08509" lon="2.73604">
        <ele>1291.476</ele>
        <time>2020-02-15T20:13:36Z</time>
      </trkpt>
      <trkpt lat="45.08537" lon="2.7369">
        <ele>1286.022</ele>
        <time>2020-02-15T20:13:56Z</time>
      </trkpt>
      <trkpt lat="45.08544" lon="2.73808">
        <ele>1284.046</ele>
        <time>2020-02-15T20:14:16Z</time>
      </trkpt>
      <trkpt lat="45.08571" lon="2.73877">
        <ele>1276.385</ele>
        <time>2020-02-15T20:14:36Z</time>
      </trkpt>
      <trkpt lat="45.08569" lon="2.73975">
        <ele>1273.989</ele>
        <time>2020-02-15T20:14:56Z</time>
      </trkpt>
      <trkpt lat="45.08561" lon="2.74067">
        <ele>1274.717</ele>
        <time>2020-02-15T20:15:16Z</time>
      </trkpt>
      <trkpt lat="45.08547" lon="2.74125">
        <ele>1276.408</ele>
        <time>2020-02-15T20:15:36Z</time>
      </trkpt>
      <trkpt lat="45.08543" lon="2.74223">
        <ele>1274.174</ele>
        <time>2020-02-15T20:15:56Z</time>
      </trkpt>
      <trkpt lat="45.08506" lon="2.74381">
        <ele>1273.658</ele>
        <time>2020-02-15T20:16:16Z</time>
      </trkpt>
      <trkpt lat="45.085" lon="2.74449">
        <ele>1278.115</ele>
        <time>2020-11-20T16:01:45Z</time>
      </trkpt>
      <trkpt lat="45.085" lon="2.74537">
        <ele>1276.298</ele>
        <time>2020-11-20T16:02:05Z</time>
      </trkpt>
      <trkpt lat="45.08509" lon="2.74576">
        <ele>1274.569</ele>
        <time>2020-11-20T16:02:25Z</time>
      </trkpt>
      <trkpt lat="45.08498" lon="2.74617">
        <ele>1277.012</ele>
        <time>2020-11-20T16:02:45Z</time>
      </trkpt>
      <trkpt lat="45.08473" lon="2.74648">
        <ele>1277.398</ele>
        <time>2020-11-20T16:03:05Z</time>
      </trkpt>
      <trkpt lat="45.08437" lon="2.74584">
        <ele>1290.942</ele>
        <time>2020-11-20T16:03:25Z</time>
      </trkpt>
      <trkpt lat="45.08381" lon="2.74611">
        <ele>1282.096</ele>
        <time>2020-02-15T20:17:36Z</time>
      </trkpt>
      <trkpt lat="45.08322" lon="2.74663">
        <ele>1271.831</ele>
        <time>2020-02-15T20:17:56Z</time>
      </trkpt>
      <trkpt lat="45.08257" lon="2.74687">
        <ele>1260.524</ele>
        <time>2020-02-15T20:18:16Z</time>
      </trkpt>
      <trkpt lat="45.08223" lon="2.74736">
        <ele>1250.608</ele>
        <time>2020-11-20T16:04:45Z</time>
      </trkpt>
      <trkpt lat="45.08216" lon="2.74784">
        <ele>1244.925</ele>
        <time>2020-11-20T16:05:05Z</time>
      </trkpt>
      <trkpt lat="45.08227" lon="2.7488">
        <ele>1242.019</ele>
        <time>2020-02-15T20:18:56Z</time>
      </trkpt>
      <trkpt lat="45.08213" lon="2.74911">
        <ele>1240.776</ele>
        <time>2020-11-20T16:05:45Z</time>
      </trkpt>
      <trkpt lat="45.08198" lon="2.74993">
        <ele>1241.679</ele>
        <time>2020-11-20T16:06:05Z</time>
      </trkpt>
      <trkpt lat="45.08212" lon="2.74979">
        <ele>1241.18</ele>
        <time>2020-11-20T16:06:25Z</time>
      </trkpt>
      <trkpt lat="45.08233" lon="2.74972">
        <ele>1241.833</ele>
        <time>2020-11-20T16:06:45Z</time>
      </trkpt>
      <trkpt lat="45.08228" lon="2.7499">
        <ele>1241.429</ele>
        <time>2020-11-20T16:07:05Z</time>
      </trkpt>
      <trkpt lat="45.08232" lon="2.7501">
        <ele>1242.783</ele>
        <time>2020-11-20T16:07:25Z</time>
      </trkpt>
      <trkpt lat="45.08248" lon="2.75027">
        <ele>1244.913</ele>
        <time>2020-11-20T16:07:45Z</time>
      </trkpt>
      <trkpt lat="45.08261" lon="2.75065">
        <ele>1246.743</ele>
        <time>2020-11-20T16:08:05Z</time>
      </trkpt>
      <trkpt lat="45.08246" lon="2.75081">
        <ele>1248.907</ele>
        <time>2020-11-20T16:08:25Z</time>
      </trkpt>
      <trkpt lat="45.08246" lon="2.75152">
        <ele>1258.308</ele>
        <time>2020-11-20T16:08:45Z</time>
      </trkpt>
      <trkpt lat="45.08205" lon="2.75211">
        <ele>1262.857</ele>
        <time>2020-11-20T16:09:05Z</time>
      </trkpt>
      <trkpt lat="45.0825" lon="2.75332">
        <ele>1280.841</ele>
        <time>2020-02-15T20:20:36Z</time>
      </trkpt>
      <trkpt lat="45.08219" lon="2.75616">
        <ele>1320.348</ele>
        <time>2020-02-15T20:20:56Z</time>
      </trkpt>
      <trkpt lat="45.08217" lon="2.7568">
        <ele>1329.761</ele>
        <time>2020-02-15T20:21:16Z</time>
      </trkpt>
      <trkpt lat="45.082" lon="2.7572">
        <ele>1333.992</ele>
        <time>2020-02-15T20:21:36Z</time>
      </trkpt>
      <trkpt lat="45.08102" lon="2.75789">
        <ele>1349.625</ele>
        <time>2020-02-15T20:21:56Z</time>
      </trkpt>
      <trkpt lat="45.08065" lon="2.75855">
        <ele>1364.671</ele>
        <time>2020-02-15T20:22:16Z</time>
      </trkpt>
      <trkpt lat="45.08172" lon="2.75849">
        <ele>1369.095</ele>
        <time>2020-02-15T20:22:36Z</time>
      </trkpt>
      <trkpt lat="45.08261" lon="2.75857">
        <ele>1380.453</ele>
        <time>2020-02-15T20:22:56Z</time>
      </trkpt>
      <trkpt lat="45.08223" lon="2.75889">
        <ele>1385.004</ele>
        <time>2020-02-15T20:23:16Z</time>
      </trkpt>
      <trkpt lat="45.08191" lon="2.75891">
        <ele>1384.214</ele>
        <time>2020-02-15T20:23:36Z</time>
      </trkpt>
      <trkpt lat="45.08135" lon="2.75927">
        <ele>1393.108</ele>
        <time>2020-02-15T20:23:56Z</time>
      </trkpt>
      <trkpt lat="45.08189" lon="2.75943">
        <ele>1399.751</ele>
        <time>2020-02-15T20:24:16Z</time>
      </trkpt>
      <trkpt lat="45.08244" lon="2.75971">
        <ele>1413.725</ele>
        <time>2020-02-15T20:24:36Z</time>
      </trkpt>
      <trkpt lat="45.08311" lon="2.75959">
        <ele>1425.642</ele>
        <time>2020-02-15T20:24:56Z</time>
      </trkpt>
      <trkpt lat="45.08374" lon="2.75917">
        <ele>1436.875</ele>
        <time>2020-02-15T20:25:16Z</time>
      </trkpt>
      <trkpt lat="45.08445" lon="2.75849">
        <ele>1443.966</ele>
        <time>2020-02-15T20:25:36Z</time>
      </trkpt>
      <trkpt lat="45.0853" lon="2.75837">
        <ele>1445.089</ele>
        <time>2020-02-15T20:25:56Z</time>
      </trkpt>
      <trkpt lat="45.08565" lon="2.75801">
        <ele>1438.285</ele>
        <time>2020-02-15T20:26:16Z</time>
      </trkpt>
      <trkpt lat="45.08584" lon="2.75807">
        <ele>1442.199</ele>
        <time>2020-11-20T16:15:25Z</time>
      </trkpt>
      <trkpt lat="45.08586" lon="2.75841">
        <ele>1449.375</ele>
        <time>2020-11-20T16:15:45Z</time>
      </trkpt>
      <trkpt lat="45.08547" lon="2.75893">
        <ele>1456.628</ele>
        <time>2020-11-20T16:16:05Z</time>
      </trkpt>
      <trkpt lat="45.08473" lon="2.75899">
        <ele>1456.42</ele>
        <time>2020-02-15T20:27:16Z</time>
      </trkpt>
      <trkpt lat="45.08435" lon="2.75929">
        <ele>1452.008</ele>
        <time>2020-02-15T20:27:36Z</time>
      </trkpt>
      <trkpt lat="45.08409" lon="2.7595">
        <ele>1448.873</ele>
        <time>2020-02-15T20:27:56Z</time>
      </trkpt>
      <trkpt lat="45.08397" lon="2.75983">
        <ele>1450.027</ele>
        <time>2020-02-15T20:28:16Z</time>
      </trkpt>
      <trkpt lat="45.08383" lon="2.75996">
        <ele>1449.284</ele>
        <time>2020-02-15T20:28:36Z</time>
      </trkpt>
      <trkpt lat="45.08368" lon="2.76023">
        <ele>1446.157</ele>
        <time>2020-02-15T20:28:56Z</time>
      </trkpt>
      <trkpt lat="45.08349" lon="2.76034">
        <ele>1443.388</ele>
        <time>2020-02-15T20:29:16Z</time>
      </trkpt>
      <trkpt lat="45.08296" lon="2.76053">
        <ele>1441.961</ele>
        <time>2020-02-15T20:29:36Z</time>
      </trkpt>
      <trkpt lat="45.08241" lon="2.76102">
        <ele>1455.237</ele>
        <time>2020-02-15T20:29:56Z</time>
      </trkpt>
      <trkpt lat="45.0823" lon="2.76133">
        <ele>1461.591</ele>
        <time>2020-02-15T20:30:16Z</time>
      </trkpt>
      <trkpt lat="45.08186" lon="2.76162">
        <ele>1469.664</ele>
        <time>2020-02-15T20:30:36Z</time>
      </trkpt>
      <trkpt lat="45.08155" lon="2.76215">
        <ele>1471.406</ele>
        <time>2020-02-15T20:30:56Z</time>
      </trkpt>
      <trkpt lat="45.08152" lon="2.76252">
        <ele>1471.216</ele>
        <time>2020-02-15T20:31:16Z</time>
      </trkpt>
      <trkpt lat="45.08133" lon="2.76276">
        <ele>1470.708</ele>
        <time>2020-02-15T20:31:36Z</time>
      </trkpt>
      <trkpt lat="45.08111" lon="2.76289">
        <ele>1472.532</ele>
        <time>2020-02-15T20:31:56Z</time>
      </trkpt>
      <trkpt lat="45.08087" lon="2.76321">
        <ele>1472.436</ele>
        <time>2020-02-15T20:32:16Z</time>
      </trkpt>
      <trkpt lat="45.0805" lon="2.76341">
        <ele>1477.553</ele>
        <time>2020-02-15T20:32:36Z</time>
      </trkpt>
      <trkpt lat="45.08027" lon="2.76366">
        <ele>1482.536</ele>
        <time>2020-02-15T20:32:56Z</time>
      </trkpt>
      <trkpt lat="45.07996" lon="2.76383">
        <ele>1493.967</ele>
        <time>2020-02-15T20:33:16Z</time>
      </trkpt>
      <trkpt lat="45.07967" lon="2.76417">
        <ele>1502.75</ele>
        <time>2020-02-15T20:33:36Z</time>
      </trkpt>
      <trkpt lat="45.07921" lon="2.76481">
        <ele>1510.236</ele>
        <time>2020-02-15T20:33:56Z</time>
      </trkpt>
      <trkpt lat="45.07909" lon="2.76518">
        <ele>1516.82</ele>
        <time>2020-02-15T20:34:16Z</time>
      </trkpt>
      <trkpt lat="45.07894" lon="2.76521">
        <ele>1522.423</ele>
        <time>2020-02-15T20:34:36Z</time>
      </trkpt>
      <trkpt lat="45.07852" lon="2.76566">
        <ele>1544.183</ele>
        <time>2020-02-15T20:34:56Z</time>
      </trkpt>
      <trkpt lat="45.07807" lon="2.76578">
        <ele>1553.511</ele>
        <time>2020-02-15T20:35:16Z</time>
      </trkpt>
      <trkpt lat="45.07818" lon="2.76599">
        <ele>1553.608</ele>
        <time>2020-02-15T20:35:36Z</time>
      </trkpt>
      <trkpt lat="45.07816" lon="2.76613">
        <ele>1555.168</ele>
        <time>2020-02-15T20:35:56Z</time>
      </trkpt>
      <trkpt lat="45.07787" lon="2.76607">
        <ele>1567.432</ele>
        <time>2020-02-15T20:36:16Z</time>
      </trkpt>
      <trkpt lat="45.07788" lon="2.76641">
        <ele>1572.839</ele>
        <time>2020-02-15T20:36:36Z</time>
      </trkpt>
      <trkpt lat="45.07763" lon="2.76628">
        <ele>1582.732</ele>
        <time>2020-02-15T20:36:56Z</time>
      </trkpt>
      <trkpt lat="45.07739" lon="2.76632">
        <ele>1591.153</ele>
        <time>2020-02-15T20:37:16Z</time>
      </trkpt>
      <trkpt lat="45.0775" lon="2.7666">
        <ele>1593.896</ele>
        <time>2020-02-15T20:37:36Z</time>
      </trkpt>
      <trkpt lat="45.07704" lon="2.76686">
        <ele>1612.732</ele>
        <time>2020-02-15T20:37:56Z</time>
      </trkpt>
      <trkpt lat="45.07701" lon="2.7672">
        <ele>1623.586</ele>
        <time>2020-02-15T20:38:16Z</time>
      </trkpt>
      <trkpt lat="45.07684" lon="2.76719">
        <ele>1630.054</ele>
        <time>2020-02-15T20:38:36Z</time>
      </trkpt>
      <trkpt lat="45.07684" lon="2.76761">
        <ele>1640.056</ele>
        <time>2020-02-15T20:38:56Z</time>
      </trkpt>
      <trkpt lat="45.0766" lon="2.76743">
        <ele>1641.011</ele>
        <time>2020-02-15T20:39:16Z</time>
      </trkpt>
      <trkpt lat="45.07656" lon="2.76781">
        <ele>1654.108</ele>
        <time>2020-02-15T20:39:36Z</time>
      </trkpt>
      <trkpt lat="45.07668" lon="2.76839">
        <ele>1662.071</ele>
        <time>2020-02-15T20:39:56Z</time>
      </trkpt>
      <trkpt lat="45.07689" lon="2.76885">
        <ele>1659.525</ele>
        <time>2020-02-15T20:40:16Z</time>
      </trkpt>
      <trkpt lat="45.07689" lon="2.76912">
        <ele>1664.842</ele>
        <time>2020-02-15T20:40:36Z</time>
      </trkpt>
      <trkpt lat="45.07738" lon="2.76986">
        <ele>1658.625</ele>
        <time>2020-02-15T20:40:56Z</time>
      </trkpt>
      <trkpt lat="45.07751" lon="2.77078">
        <ele>1663.186</ele>
        <time>2020-02-15T20:41:16Z</time>
      </trkpt>
      <trkpt lat="45.07723" lon="2.77027">
        <ele>1670.859</ele>
        <time>2020-02-15T20:41:36Z</time>
      </trkpt>
      <trkpt lat="45.07652" lon="2.7703">
        <ele>1692.025</ele>
        <time>2020-02-15T20:41:56Z</time>
      </trkpt>
      <trkpt lat="45.07638" lon="2.77012">
        <ele>1696.349</ele>
        <time>2020-02-15T20:42:16Z</time>
      </trkpt>
      <trkpt lat="45.0762" lon="2.77005">
        <ele>1698.913</ele>
        <time>2020-02-15T20:42:36Z</time>
      </trkpt>
      <trkpt lat="45.07577" lon="2.76944">
        <ele>1710.643</ele>
        <time>2020-02-15T20:42:56Z</time>
      </trkpt>
      <trkpt lat="45.07546" lon="2.76938">
        <ele>1712.207</ele>
        <time>2020-02-15T20:43:16Z</time>
      </trkpt>
      <trkpt lat="45.07525" lon="2.76952">
        <ele>1714.108</ele>
        <time>2020-02-15T20:43:36Z</time>
      </trkpt>
      <trkpt lat="45.07505" lon="2.76941">
        <ele>1714.617</ele>
        <time>2020-02-15T20:43:56Z</time>
      </trkpt>
      <trkpt lat="45.07446" lon="2.76911">
        <ele>1719.031</ele>
        <time>2020-02-15T20:44:16Z</time>
      </trkpt>
      <trkpt lat="45.07424" lon="2.76908">
        <ele>1724.598</ele>
        <time>2020-02-15T20:44:36Z</time>
      </trkpt>
      <trkpt lat="45.07377" lon="2.76868">
        <ele>1730.641</ele>
        <time>2020-02-15T20:44:56Z</time>
      </trkpt>
      <trkpt lat="45.07339" lon="2.76877">
        <ele>1741.162</ele>
        <time>2020-02-15T20:45:16Z</time>
      </trkpt>
      <trkpt lat="45.07301" lon="2.76835">
        <ele>1758.375</ele>
        <time>2020-02-15T20:45:36Z</time>
      </trkpt>
      <trkpt lat="45.07283" lon="2.76867">
        <ele>1766.371</ele>
        <time>2020-02-15T20:45:56Z</time>
      </trkpt>
      <trkpt lat="45.07228" lon="2.76812">
        <ele>1785.035</ele>
        <time>2020-02-15T20:46:16Z</time>
      </trkpt>
      <trkpt lat="45.07218" lon="2.7682">
        <ele>1786.844</ele>
        <time>2020-02-15T20:46:36Z</time>
      </trkpt>
      <trkpt lat="45.07193" lon="2.76804">
        <ele>1787.705</ele>
        <time>2020-02-15T20:46:56Z</time>
      </trkpt>
      <trkpt lat="45.07073" lon="2.76873">
        <ele>1795.715</ele>
        <time>2020-02-15T20:47:16Z</time>
      </trkpt>
      <trkpt lat="45.07058" lon="2.76891">
        <ele>1800.608</ele>
        <time>2020-02-15T20:47:36Z</time>
      </trkpt>
      <trkpt lat="45.07024" lon="2.76891">
        <ele>1800.98</ele>
        <time>2020-02-15T20:47:56Z</time>
      </trkpt>
      <trkpt lat="45.06972" lon="2.76938">
        <ele>1799.734</ele>
        <time>2020-02-15T20:48:16Z</time>
      </trkpt>
      <trkpt lat="45.06957" lon="2.76947">
        <ele>1798.561</ele>
        <time>2020-02-15T20:48:36Z</time>
      </trkpt>
      <trkpt lat="45.06935" lon="2.76921">
        <ele>1798.884</ele>
        <time>2020-02-15T20:48:56Z</time>
      </trkpt>
      <trkpt lat="45.06777" lon="2.76801">
        <ele>1765.975</ele>
        <time>2020-02-15T20:49:16Z</time>
      </trkpt>
      <trkpt lat="45.0675" lon="2.76766">
        <ele>1761.668</ele>
        <time>2020-11-20T16:38:45Z</time>
      </trkpt>
      <trkpt lat="45.06717" lon="2.76757">
        <ele>1759.714</ele>
        <time>2020-02-15T20:49:56Z</time>
      </trkpt>
      <trkpt lat="45.06692" lon="2.7673">
        <ele>1758.948</ele>
        <time>2020-02-15T20:50:16Z</time>
      </trkpt>
      <trkpt lat="45.06679" lon="2.76676">
        <ele>1752.159</ele>
        <time>2020-11-20T16:39:45Z</time>
      </trkpt>
      <trkpt lat="45.06668" lon="2.76618">
        <ele>1753.503</ele>
        <time>2020-11-20T16:40:05Z</time>
      </trkpt>
      <trkpt lat="45.06635" lon="2.76548">
        <ele>1760.623</ele>
        <time>2020-02-15T20:51:36Z</time>
      </trkpt>
      <trkpt lat="45.06598" lon="2.76465">
        <ele>1767.608</ele>
        <time>2020-11-20T16:40:45Z</time>
      </trkpt>
      <trkpt lat="45.06523" lon="2.76323">
        <ele>1772.031</ele>
        <time>2020-02-15T20:51:56Z</time>
      </trkpt>
      <trkpt lat="45.06466" lon="2.76272">
        <ele>1774.425</ele>
        <time>2020-02-15T20:52:16Z</time>
      </trkpt>
      <trkpt lat="45.06412" lon="2.76238">
        <ele>1776.372</ele>
        <time>2020-02-15T20:52:36Z</time>
      </trkpt>
      <trkpt lat="45.0639" lon="2.76233">
        <ele>1779.475</ele>
        <time>2020-02-15T20:52:56Z</time>
      </trkpt>
      <trkpt lat="45.06367" lon="2.76189">
        <ele>1786.616</ele>
        <time>2020-02-15T20:53:16Z</time>
      </trkpt>
      <trkpt lat="45.06359" lon="2.76153">
        <ele>1790.619</ele>
        <time>2020-02-15T20:53:36Z</time>
      </trkpt>
      <trkpt lat="45.06328" lon="2.76109">
        <ele>1796.595</ele>
        <time>2020-02-15T20:53:56Z</time>
      </trkpt>
      <trkpt lat="45.06297" lon="2.76116">
        <ele>1797.569</ele>
        <time>2020-02-15T20:54:16Z</time>
      </trkpt>
      <trkpt lat="45.06295" lon="2.76038">
        <ele>1798.097</ele>
        <time>2020-02-15T20:54:36Z</time>
      </trkpt>
      <trkpt lat="45.06265" lon="2.76038">
        <ele>1798.423</ele>
        <time>2020-02-15T20:54:56Z</time>
      </trkpt>
      <trkpt lat="45.06175" lon="2.76077">
        <ele>1801.725</ele>
        <time>2020-02-15T20:55:16Z</time>
      </trkpt>
      <trkpt lat="45.06055" lon="2.76107">
        <ele>1811.208</ele>
        <time>2020-02-15T20:55:36Z</time>
      </trkpt>
      <trkpt lat="45.05992" lon="2.76102">
        <ele>1814.895</ele>
        <time>2020-02-15T20:55:56Z</time>
      </trkpt>
      <trkpt lat="45.05919" lon="2.7607">
        <ele>1810.949</ele>
        <time>2020-02-15T20:56:16Z</time>
      </trkpt>
      <trkpt lat="45.05849" lon="2.7609">
        <ele>1820.246</ele>
        <time>2020-02-15T20:56:36Z</time>
      </trkpt>
      <trkpt lat="45.05805" lon="2.76135">
        <ele>1821.719</ele>
        <time>2020-11-20T16:46:05Z</time>
      </trkpt>
      <trkpt lat="45.05804" lon="2.76166">
        <ele>1825.27</ele>
        <time>2020-02-15T20:57:16Z</time>
      </trkpt>
      <trkpt lat="45.05736" lon="2.76231">
        <ele>1802.563</ele>
        <time>2020-02-15T20:57:36Z</time>
      </trkpt>
      <trkpt lat="45.05714" lon="2.76277">
        <ele>1793.799</ele>
        <time>2020-02-15T20:57:56Z</time>
      </trkpt>
      <trkpt lat="45.05696" lon="2.76298">
        <ele>1792.533</ele>
        <time>2020-02-15T20:58:16Z</time>
      </trkpt>
      <trkpt lat="45.05655" lon="2.76387">
        <ele>1774.453</ele>
        <time>2020-02-15T20:58:36Z</time>
      </trkpt>
      <trkpt lat="45.05633" lon="2.7648">
        <ele>1755.504</ele>
        <time>2020-02-15T20:58:56Z</time>
      </trkpt>
      <trkpt lat="45.05636" lon="2.76525">
        <ele>1743.514</ele>
        <time>2020-02-15T20:59:16Z</time>
      </trkpt>
      <trkpt lat="45.05602" lon="2.76621">
        <ele>1730.408</ele>
        <time>2020-02-15T20:59:36Z</time>
      </trkpt>
      <trkpt lat="45.05599" lon="2.76676">
        <ele>1724.351</ele>
        <time>2020-02-15T20:59:56Z</time>
      </trkpt>
      <trkpt lat="45.05568" lon="2.76802">
        <ele>1700.785</ele>
        <time>2020-02-15T21:00:16Z</time>
      </trkpt>
      <trkpt lat="45.0553" lon="2.76879">
        <ele>1683.862</ele>
        <time>2020-02-15T21:00:36Z</time>
      </trkpt>
      <trkpt lat="45.05522" lon="2.76915">
        <ele>1675.335</ele>
        <time>2020-02-15T21:00:56Z</time>
      </trkpt>
      <trkpt lat="45.05504" lon="2.76943">
        <ele>1671.236</ele>
        <time>2020-02-15T21:01:16Z</time>
      </trkpt>
      <trkpt lat="45.05445" lon="2.77134">
        <ele>1647.729</ele>
        <time>2020-02-15T21:01:36Z</time>
      </trkpt>
      <trkpt lat="45.05423" lon="2.77185">
        <ele>1635.065</ele>
        <time>2020-02-15T21:01:56Z</time>
      </trkpt>
      <trkpt lat="45.05399" lon="2.77276">
        <ele>1619.649</ele>
        <time>2020-02-15T21:02:16Z</time>
      </trkpt>
      <trkpt lat="45.05348" lon="2.77379">
        <ele>1606.462</ele>
        <time>2020-02-15T21:02:36Z</time>
      </trkpt>
      <trkpt lat="45.05344" lon="2.77408">
        <ele>1602.083</ele>
        <time>2020-02-15T21:02:56Z</time>
      </trkpt>
      <trkpt lat="45.05312" lon="2.77474">
        <ele>1591.811</ele>
        <time>2020-02-15T21:03:16Z</time>
      </trkpt>
      <trkpt lat="45.05303" lon="2.77525">
        <ele>1581.708</ele>
        <time>2020-02-15T21:03:36Z</time>
      </trkpt>
      <trkpt lat="45.05259" lon="2.77636">
        <ele>1574.412</ele>
        <time>2020-02-15T21:03:56Z</time>
      </trkpt>
      <trkpt lat="45.05234" lon="2.77741">
        <ele>1555.236</ele>
        <time>2020-02-15T21:04:16Z</time>
      </trkpt>
      <trkpt lat="45.05231" lon="2.77788">
        <ele>1545.923</ele>
        <time>2020-02-15T21:04:36Z</time>
      </trkpt>
      <trkpt lat="45.05212" lon="2.77835">
        <ele>1542.196</ele>
        <time>2020-02-15T21:04:56Z</time>
      </trkpt>
      <trkpt lat="45.05224" lon="2.77894">
        <ele>1524.587</ele>
        <time>2020-02-15T21:05:16Z</time>
      </trkpt>
      <trkpt lat="45.05276" lon="2.77992">
        <ele>1505.37</ele>
        <time>2020-02-15T21:05:36Z</time>
      </trkpt>
      <trkpt lat="45.05253" lon="2.78134">
        <ele>1487.376</ele>
        <time>2020-02-15T21:05:56Z</time>
      </trkpt>
      <trkpt lat="45.05238" lon="2.78199">
        <ele>1476.42</ele>
        <time>2020-02-15T21:06:16Z</time>
      </trkpt>
      <trkpt lat="45.05237" lon="2.78352">
        <ele>1444.098</ele>
        <time>2020-02-15T21:06:36Z</time>
      </trkpt>
      <trkpt lat="45.05255" lon="2.78452">
        <ele>1423.215</ele>
        <time>2020-02-15T21:06:56Z</time>
      </trkpt>
      <trkpt lat="45.05278" lon="2.78643">
        <ele>1407.826</ele>
        <time>2020-02-15T21:07:16Z</time>
      </trkpt>
      <trkpt lat="45.05276" lon="2.7873">
        <ele>1407.108</ele>
        <time>2020-02-15T21:07:36Z</time>
      </trkpt>
      <trkpt lat="45.05287" lon="2.78737">
        <ele>1406.225</ele>
        <time>2020-02-15T21:07:56Z</time>
      </trkpt>
      <trkpt lat="45.05299" lon="2.78825">
        <ele>1400.199</ele>
        <time>2020-02-15T21:08:16Z</time>
      </trkpt>
      <trkpt lat="45.05329" lon="2.78895">
        <ele>1396.946</ele>
        <time>2020-02-15T21:08:36Z</time>
      </trkpt>
      <trkpt lat="45.05302" lon="2.79026">
        <ele>1394.589</ele>
        <time>2020-02-15T21:08:56Z</time>
      </trkpt>
      <trkpt lat="45.05287" lon="2.79091">
        <ele>1392.83</ele>
        <time>2020-02-15T21:09:16Z</time>
      </trkpt>
      <trkpt lat="45.053" lon="2.7925">
        <ele>1390.193</ele>
        <time>2020-02-15T21:09:36Z</time>
      </trkpt>
      <trkpt lat="45.05316" lon="2.79306">
        <ele>1385.299</ele>
        <time>2020-02-15T21:09:56Z</time>
      </trkpt>
      <trkpt lat="45.05314" lon="2.79357">
        <ele>1384.543</ele>
        <time>2020-11-20T16:59:25Z</time>
      </trkpt>
      <trkpt lat="45.05269" lon="2.79381">
        <ele>1388.758</ele>
        <time>2020-11-20T16:59:45Z</time>
      </trkpt>
      <trkpt lat="45.05302" lon="2.79526">
        <ele>1394.552</ele>
        <time>2020-11-20T17:00:05Z</time>
      </trkpt>
      <trkpt lat="45.05297" lon="2.79598">
        <ele>1399.417</ele>
        <time>2020-11-20T17:00:25Z</time>
      </trkpt>
      <trkpt lat="45.05243" lon="2.79666">
        <ele>1401.708</ele>
        <time>2020-11-20T17:00:45Z</time>
      </trkpt>
      <trkpt lat="45.05239" lon="2.79698">
        <ele>1405.951</ele>
        <time>2020-11-20T17:01:05Z</time>
      </trkpt>
      <trkpt lat="45.05286" lon="2.79756">
        <ele>1415.265</ele>
        <time>2020-11-20T17:01:25Z</time>
      </trkpt>
      <trkpt lat="45.05349" lon="2.79754">
        <ele>1417.472</ele>
        <time>2020-11-20T17:01:45Z</time>
      </trkpt>
      <trkpt lat="45.05377" lon="2.7987">
        <ele>1426.515</ele>
        <time>2020-11-20T17:02:05Z</time>
      </trkpt>
      <trkpt lat="45.05358" lon="2.79915">
        <ele>1434.916</ele>
        <time>2020-11-20T17:02:25Z</time>
      </trkpt>
      <trkpt lat="45.05288" lon="2.79886">
        <ele>1439.829</ele>
        <time>2020-11-20T17:02:45Z</time>
      </trkpt>
      <trkpt lat="45.05256" lon="2.79891">
        <ele>1442.455</ele>
        <time>2020-11-20T17:03:05Z</time>
      </trkpt>
      <trkpt lat="45.05112" lon="2.80203">
        <ele>1453.199</ele>
        <time>2020-11-20T17:03:25Z</time>
      </trkpt>
      <trkpt lat="45.05069" lon="2.80388">
        <ele>1464.764</ele>
        <time>2020-11-20T17:03:45Z</time>
      </trkpt>
      <trkpt lat="45.05021" lon="2.80459">
        <ele>1465.206</ele>
        <time>2020-11-20T17:04:05Z</time>
      </trkpt>
      <trkpt lat="45.04989" lon="2.80588">
        <ele>1469.916</ele>
        <time>2020-11-20T17:04:25Z</time>
      </trkpt>
      <trkpt lat="45.04981" lon="2.80697">
        <ele>1470.308</ele>
        <time>2020-11-20T17:04:45Z</time>
      </trkpt>
      <trkpt lat="45.04996" lon="2.80739">
        <ele>1476.392</ele>
        <time>2020-11-20T17:05:05Z</time>
      </trkpt>
      <trkpt lat="45.04972" lon="2.80924">
        <ele>1478.066</ele>
        <time>2020-11-20T17:05:25Z</time>
      </trkpt>
      <trkpt lat="45.04987" lon="2.81191">
        <ele>1477.753</ele>
        <time>2020-11-20T17:05:45Z</time>
      </trkpt>
      <trkpt lat="45.04981" lon="2.81262">
        <ele>1477.116</ele>
        <time>2020-11-20T17:06:05Z</time>
      </trkpt>
      <trkpt lat="45.04985" lon="2.81394">
        <ele>1477.367</ele>
        <time>2020-11-20T17:06:25Z</time>
      </trkpt>
      <trkpt lat="45.0495" lon="2.81592">
        <ele>1471.17</ele>
        <time>2020-11-20T17:06:45Z</time>
      </trkpt>
      <trkpt lat="45.04976" lon="2.81996">
        <ele>1453.066</ele>
        <time>2020-11-20T17:07:05Z</time>
      </trkpt>
      <trkpt lat="45.04974" lon="2.82234">
        <ele>1450.49</ele>
        <time>2020-11-20T17:07:25Z</time>
      </trkpt>
      <trkpt lat="45.04939" lon="2.82263">
        <ele>1451.387</ele>
        <time>2020-11-20T17:07:45Z</time>
      </trkpt>
      <trkpt lat="45.04827" lon="2.82942">
        <ele>1480.142</ele>
        <time>2020-11-20T17:08:05Z</time>
      </trkpt>
      <trkpt lat="45.04813" lon="2.83217">
        <ele>1485.726</ele>
        <time>2020-11-20T17:08:25Z</time>
      </trkpt>
      <trkpt lat="45.04825" lon="2.83629">
        <ele>1463.508</ele>
        <time>2020-11-20T17:08:45Z</time>
      </trkpt>
      <trkpt lat="45.04813" lon="2.83986">
        <ele>1453.474</ele>
        <time>2020-11-20T17:09:05Z</time>
      </trkpt>
      <trkpt lat="45.04782" lon="2.84281">
        <ele>1431.658</ele>
        <time>2020-11-20T17:09:25Z</time>
      </trkpt>
      <trkpt lat="45.04739" lon="2.84382">
        <ele>1423.975</ele>
        <time>2020-11-20T17:09:45Z</time>
      </trkpt>
      <trkpt lat="45.04718" lon="2.84485">
        <ele>1410.388</ele>
        <time>2020-11-20T17:10:05Z</time>
      </trkpt>
      <trkpt lat="45.04687" lon="2.84828">
        <ele>1382.939</ele>
        <time>2020-11-20T17:10:25Z</time>
      </trkpt>
      <trkpt lat="45.04664" lon="2.85188">
        <ele>1364.042</ele>
        <time>2020-11-20T17:10:45Z</time>
      </trkpt>
      <trkpt lat="45.04701" lon="2.85777">
        <ele>1318.068</ele>
        <time>2020-11-20T17:11:05Z</time>
      </trkpt>
      <trkpt lat="45.04688" lon="2.86506">
        <ele>1282.022</ele>
        <time>2020-11-20T17:11:25Z</time>
      </trkpt>
      <trkpt lat="45.0466" lon="2.86543">
        <ele>1281.653</ele>
        <time>2020-11-20T17:11:45Z</time>
      </trkpt>
      <trkpt lat="45.04976" lon="2.86672">
        <ele>1272.704</ele>
        <time>2020-11-20T17:12:05Z</time>
      </trkpt>
      <trkpt lat="45.05151" lon="2.87026">
        <ele>1257.614</ele>
        <time>2020-11-20T17:12:25Z</time>
      </trkpt>
      <trkpt lat="45.05215" lon="2.87185">
        <ele>1253.108</ele>
        <time>2020-11-20T17:12:45Z</time>
      </trkpt>
      <trkpt lat="45.05213" lon="2.87309">
        <ele>1249.231</ele>
        <time>2020-11-20T17:13:05Z</time>
      </trkpt>
      <trkpt lat="45.05224" lon="2.87383">
        <ele>1244.825</ele>
        <time>2020-11-20T17:13:25Z</time>
      </trkpt>
      <trkpt lat="45.05263" lon="2.87473">
        <ele>1240.972</ele>
        <time>2020-11-20T17:13:45Z</time>
      </trkpt>
      <trkpt lat="45.05291" lon="2.87589">
        <ele>1232.715</ele>
        <time>2020-11-20T17:14:05Z</time>
      </trkpt>
      <trkpt lat="45.05316" lon="2.87808">
        <ele>1224.336</ele>
        <time>2020-11-20T17:14:25Z</time>
      </trkpt>
      <trkpt lat="45.0533" lon="2.87882">
        <ele>1224.199</ele>
        <time>2020-11-20T17:14:45Z</time>
      </trkpt>
      <trkpt lat="45.05325" lon="2.8798">
        <ele>1223.495</ele>
        <time>2020-11-20T17:15:05Z</time>
      </trkpt>
      <trkpt lat="45.05357" lon="2.88278">
        <ele>1215.839</ele>
        <time>2020-11-20T17:15:25Z</time>
      </trkpt>
      <trkpt lat="45.05381" lon="2.88389">
        <ele>1210.113</ele>
        <time>2020-11-20T17:15:45Z</time>
      </trkpt>
      <trkpt lat="45.05362" lon="2.88432">
        <ele>1205.043</ele>
        <time>2020-11-20T17:16:05Z</time>
      </trkpt>
      <trkpt lat="45.05372" lon="2.88469">
        <ele>1203.807</ele>
        <time>2020-11-20T17:16:25Z</time>
      </trkpt>
      <trkpt lat="45.05342" lon="2.88481">
        <ele>1202.608</ele>
        <time>2020-02-15T22:05:36Z</time>
      </trkpt>
      <trkpt lat="45.05162" lon="2.88636">
        <ele>1191.757</ele>
        <time>2020-02-15T22:05:56Z</time>
      </trkpt>
      <trkpt lat="45.05171" lon="2.88681">
        <ele>1191.241</ele>
        <time>2020-02-15T22:06:16Z</time>
      </trkpt>
      <trkpt lat="45.05164" lon="2.88737">
        <ele>1188.798</ele>
        <time>2020-02-15T22:06:36Z</time>
      </trkpt>
      <trkpt lat="45.05141" lon="2.88771">
        <ele>1184.691</ele>
        <time>2020-02-15T22:06:56Z</time>
      </trkpt>
      <trkpt lat="45.05109" lon="2.88767">
        <ele>1182.452</ele>
        <time>2020-02-15T22:07:16Z</time>
      </trkpt>
      <trkpt lat="45.05074" lon="2.88782">
        <ele>1182.385</ele>
        <time>2020-02-15T22:07:36Z</time>
      </trkpt>
      <trkpt lat="45.05039" lon="2.88895">
        <ele>1184.571</ele>
        <time>2020-02-15T22:07:56Z</time>
      </trkpt>
      <trkpt lat="45.04892" lon="2.89164">
        <ele>1187.885</ele>
        <time>2020-02-15T22:08:16Z</time>
      </trkpt>
      <trkpt lat="45.04736" lon="2.89361">
        <ele>1178.514</ele>
        <time>2020-02-15T22:08:36Z</time>
      </trkpt>
      <trkpt lat="45.04695" lon="2.89367">
        <ele>1177.054</ele>
        <time>2020-02-15T22:08:56Z</time>
      </trkpt>
      <trkpt lat="45.04731" lon="2.89464">
        <ele>1175.809</ele>
        <time>2020-02-15T22:09:16Z</time>
      </trkpt>
      <trkpt lat="45.04794" lon="2.89543">
        <ele>1176.408</ele>
        <time>2020-02-15T22:09:36Z</time>
      </trkpt>
      <trkpt lat="45.04865" lon="2.89698">
        <ele>1176.167</ele>
        <time>2020-02-15T22:09:56Z</time>
      </trkpt>
      <trkpt lat="45.04915" lon="2.89844">
        <ele>1178.311</ele>
        <time>2020-02-15T22:10:16Z</time>
      </trkpt>
      <trkpt lat="45.05051" lon="2.90155">
        <ele>1171.468</ele>
        <time>2020-02-15T22:10:36Z</time>
      </trkpt>
      <trkpt lat="45.05068" lon="2.90241">
        <ele>1169.691</ele>
        <time>2020-02-15T22:10:56Z</time>
      </trkpt>
      <trkpt lat="45.0506" lon="2.90324">
        <ele>1167.382</ele>
        <time>2020-02-15T22:11:16Z</time>
      </trkpt>
      <trkpt lat="45.05065" lon="2.90588">
        <ele>1152.585</ele>
        <time>2020-02-15T22:11:36Z</time>
      </trkpt>
      <trkpt lat="45.05089" lon="2.90741">
        <ele>1144.271</ele>
        <time>2020-02-15T22:11:56Z</time>
      </trkpt>
      <trkpt lat="45.05091" lon="2.90996">
        <ele>1139.055</ele>
        <time>2020-02-15T22:12:16Z</time>
      </trkpt>
      <trkpt lat="45.05104" lon="2.91095">
        <ele>1136.345</ele>
        <time>2020-02-15T22:12:36Z</time>
      </trkpt>
      <trkpt lat="45.05124" lon="2.91189">
        <ele>1133.547</ele>
        <time>2020-02-15T22:12:56Z</time>
      </trkpt>
      <trkpt lat="45.05133" lon="2.91374">
        <ele>1126.011</ele>
        <time>2020-02-15T22:13:16Z</time>
      </trkpt>
      <trkpt lat="45.0512" lon="2.91518">
        <ele>1123.408</ele>
        <time>2020-02-15T22:13:36Z</time>
      </trkpt>
      <trkpt lat="45.05079" lon="2.91621">
        <ele>1121.15</ele>
        <time>2020-02-15T22:13:56Z</time>
      </trkpt>
      <trkpt lat="45.05088" lon="2.91749">
        <ele>1114.994</ele>
        <time>2020-02-15T22:14:16Z</time>
      </trkpt>
      <trkpt lat="45.0503" lon="2.92033">
        <ele>1103.751</ele>
        <time>2020-02-15T22:14:36Z</time>
      </trkpt>
      <trkpt lat="45.05004" lon="2.92045">
        <ele>1103.384</ele>
        <time>2020-02-15T22:14:56Z</time>
      </trkpt>
      <trkpt lat="45.04872" lon="2.9202">
        <ele>1102.245</ele>
        <time>2020-02-15T22:15:16Z</time>
      </trkpt>
      <trkpt lat="45.04862" lon="2.9196">
        <ele>1101.548</ele>
        <time>2020-02-15T22:15:36Z</time>
      </trkpt>
      <trkpt lat="45.0481" lon="2.91987">
        <ele>1099.274</ele>
        <time>2020-02-15T22:15:56Z</time>
      </trkpt>
      <trkpt lat="45.04759" lon="2.92082">
        <ele>1095.788</ele>
        <time>2020-02-15T22:16:16Z</time>
      </trkpt>
      <trkpt lat="45.04813" lon="2.92118">
        <ele>1099.085</ele>
        <time>2020-02-15T22:16:36Z</time>
      </trkpt>
      <trkpt lat="45.04982" lon="2.92449">
        <ele>1087.589</ele>
        <time>2020-02-15T22:16:56Z</time>
      </trkpt>
      <trkpt lat="45.05026" lon="2.92586">
        <ele>1080.017</ele>
        <time>2020-02-15T22:17:16Z</time>
      </trkpt>
      <trkpt lat="45.05203" lon="2.92773">
        <ele>1072.508</ele>
        <time>2020-02-15T22:17:36Z</time>
      </trkpt>
      <trkpt lat="45.05301" lon="2.92962">
        <ele>1067.674</ele>
        <time>2020-02-15T22:17:56Z</time>
      </trkpt>
      <trkpt lat="45.05264" lon="2.93086">
        <ele>1068.688</ele>
        <time>2020-02-15T22:18:16Z</time>
      </trkpt>
      <trkpt lat="45.05244" lon="2.93238">
        <ele>1066.125</ele>
        <time>2020-02-15T22:18:36Z</time>
      </trkpt>
      <trkpt lat="45.05241" lon="2.93363">
        <ele>1066.388</ele>
        <time>2020-02-15T22:18:56Z</time>
      </trkpt>
      <trkpt lat="45.0512" lon="2.93365">
        <ele>1066.929</ele>
        <time>2020-02-15T22:19:16Z</time>
      </trkpt>
      <trkpt lat="45.05112" lon="2.93391">
        <ele>1065.962</ele>
        <time>2020-02-15T22:19:36Z</time>
      </trkpt>
      <trkpt lat="45.0506" lon="2.93421">
        <ele>1063.958</ele>
        <time>2020-02-15T22:19:56Z</time>
      </trkpt>
      <trkpt lat="45.05035" lon="2.93496">
        <ele>1060.972</ele>
        <time>2020-02-15T22:20:16Z</time>
      </trkpt>
      <trkpt lat="45.05092" lon="2.93818">
        <ele>1048.877</ele>
        <time>2020-02-15T22:20:36Z</time>
      </trkpt>
      <trkpt lat="45.05124" lon="2.93831">
        <ele>1047.761</ele>
        <time>2020-02-15T22:20:56Z</time>
      </trkpt>
      <trkpt lat="45.05065" lon="2.93955">
        <ele>1042.827</ele>
        <time>2020-02-15T22:21:16Z</time>
      </trkpt>
      <trkpt lat="45.04989" lon="2.94243">
        <ele>1037.708</ele>
        <time>2020-02-15T22:21:36Z</time>
      </trkpt>
      <trkpt lat="45.04974" lon="2.94444">
        <ele>1035.133</ele>
        <time>2020-02-15T22:21:56Z</time>
      </trkpt>
      <trkpt lat="45.04979" lon="2.94502">
        <ele>1035.297</ele>
        <time>2020-02-15T22:22:16Z</time>
      </trkpt>
      <trkpt lat="45.04965" lon="2.94622">
        <ele>1032.374</ele>
        <time>2020-02-15T22:22:36Z</time>
      </trkpt>
      <trkpt lat="45.04965" lon="2.94736">
        <ele>1028.827</ele>
        <time>2020-02-15T22:22:56Z</time>
      </trkpt>
      <trkpt lat="45.05004" lon="2.94953">
        <ele>1020.718</ele>
        <time>2020-02-15T22:23:16Z</time>
      </trkpt>
      <trkpt lat="45.05003" lon="2.95028">
        <ele>1019.991</ele>
        <time>2020-02-15T22:23:36Z</time>
      </trkpt>
      <trkpt lat="45.04968" lon="2.95125">
        <ele>1013.817</ele>
        <time>2020-02-15T22:23:56Z</time>
      </trkpt>
      <trkpt lat="45.04971" lon="2.9517">
        <ele>1013.731</ele>
        <time>2020-02-15T22:24:16Z</time>
      </trkpt>
      <trkpt lat="45.05009" lon="2.95228">
        <ele>1013.381</ele>
        <time>2020-02-15T22:24:36Z</time>
      </trkpt>
      <trkpt lat="45.05053" lon="2.95393">
        <ele>1007.061</ele>
        <time>2020-02-15T22:24:56Z</time>
      </trkpt>
      <trkpt lat="45.05097" lon="2.95434">
        <ele>1005.417</ele>
        <time>2020-02-15T22:25:16Z</time>
      </trkpt>
      <trkpt lat="45.05185" lon="2.95537">
        <ele>1005.008</ele>
        <time>2020-02-15T22:25:36Z</time>
      </trkpt>
      <trkpt lat="45.05171" lon="2.95635">
        <ele>997.334</ele>
        <time>2020-02-15T22:25:56Z</time>
      </trkpt>
      <trkpt lat="45.05177" lon="2.95732">
        <ele>994.918</ele>
        <time>2020-02-15T22:26:16Z</time>
      </trkpt>
      <trkpt lat="45.05223" lon="2.95946">
        <ele>988.995</ele>
        <time>2020-02-15T22:26:36Z</time>
      </trkpt>
      <trkpt lat="45.05285" lon="2.96331">
        <ele>986.688</ele>
        <time>2020-02-15T22:26:56Z</time>
      </trkpt>
      <trkpt lat="45.05306" lon="2.96418">
        <ele>984.049</ele>
        <time>2020-02-15T22:27:16Z</time>
      </trkpt>
      <trkpt lat="45.05294" lon="2.965">
        <ele>984.732</ele>
        <time>2020-02-15T22:27:36Z</time>
      </trkpt>
      <trkpt lat="45.05241" lon="2.96586">
        <ele>980.328</ele>
        <time>2020-02-15T22:27:56Z</time>
      </trkpt>
      <trkpt lat="45.05223" lon="2.96732">
        <ele>978.332</ele>
        <time>2020-02-15T22:28:16Z</time>
      </trkpt>
      <trkpt lat="45.05173" lon="2.96803">
        <ele>976.446</ele>
        <time>2020-02-15T22:28:36Z</time>
      </trkpt>
      <trkpt lat="45.05086" lon="2.96901">
        <ele>976.588</ele>
        <time>2020-02-15T22:28:56Z</time>
      </trkpt>
      <trkpt lat="45.0505" lon="2.96931">
        <ele>976.816</ele>
        <time>2020-02-15T22:29:16Z</time>
      </trkpt>
      <trkpt lat="45.04938" lon="2.97185">
        <ele>977.908</ele>
        <time>2020-02-15T22:29:36Z</time>
      </trkpt>
      <trkpt lat="45.04862" lon="2.97483">
        <ele>976.09</ele>
        <time>2020-02-15T22:29:56Z</time>
      </trkpt>
      <trkpt lat="45.04847" lon="2.97597">
        <ele>974.344</ele>
        <time>2020-02-15T22:30:16Z</time>
      </trkpt>
      <trkpt lat="45.04847" lon="2.9782">
        <ele>973.551</ele>
        <time>2020-02-15T22:30:36Z</time>
      </trkpt>
      <trkpt lat="45.0486" lon="2.98047">
        <ele>973.054</ele>
        <time>2020-02-15T22:30:56Z</time>
      </trkpt>
      <trkpt lat="45.04857" lon="2.9838">
        <ele>971.575</ele>
        <time>2020-02-15T22:31:16Z</time>
      </trkpt>
      <trkpt lat="45.04865" lon="2.98515">
        <ele>969.428</ele>
        <time>2020-02-15T22:31:36Z</time>
      </trkpt>
      <trkpt lat="45.04845" lon="2.98727">
        <ele>970.414</ele>
        <time>2020-02-15T22:31:56Z</time>
      </trkpt>
      <trkpt lat="45.04898" lon="2.99403">
        <ele>969.528</ele>
        <time>2020-02-15T22:32:16Z</time>
      </trkpt>
      <trkpt lat="45.04903" lon="2.99491">
        <ele>968.539</ele>
        <time>2020-02-15T22:32:36Z</time>
      </trkpt>
      <trkpt lat="45.04889" lon="2.9956">
        <ele>966.201</ele>
        <time>2020-02-15T22:32:56Z</time>
      </trkpt>
      <trkpt lat="45.04848" lon="2.99635">
        <ele>963.121</ele>
        <time>2020-02-15T22:33:16Z</time>
      </trkpt>
      <trkpt lat="45.04847" lon="2.99691">
        <ele>960.508</ele>
        <time>2020-02-15T22:33:36Z</time>
      </trkpt>
      <trkpt lat="45.04866" lon="2.99774">
        <ele>956.379</ele>
        <time>2020-02-15T22:33:56Z</time>
      </trkpt>
      <trkpt lat="45.04819" lon="2.99779">
        <ele>953.083</ele>
        <time>2020-02-15T22:34:16Z</time>
      </trkpt>
      <trkpt lat="45.04804" lon="2.99828">
        <ele>953.46</ele>
        <time>2020-02-15T22:34:36Z</time>
      </trkpt>
      <trkpt lat="45.04821" lon="2.9994">
        <ele>955.243</ele>
        <time>2020-02-15T22:34:56Z</time>
      </trkpt>
      <trkpt lat="45.04859" lon="3.00017">
        <ele>949.294</ele>
        <time>2020-02-15T22:35:16Z</time>
      </trkpt>
      <trkpt lat="45.04888" lon="3.00109">
        <ele>949.377</ele>
        <time>2020-02-15T22:35:36Z</time>
      </trkpt>
      <trkpt lat="45.04915" lon="3.00126">
        <ele>945.953</ele>
        <time>2020-02-15T22:35:56Z</time>
      </trkpt>
      <trkpt lat="45.04948" lon="3.00285">
        <ele>948.057</ele>
        <time>2020-02-15T22:36:16Z</time>
      </trkpt>
      <trkpt lat="45.04933" lon="3.00354">
        <ele>952.538</ele>
        <time>2020-02-15T22:36:36Z</time>
      </trkpt>
      <trkpt lat="45.04923" lon="3.00431">
        <ele>947.97</ele>
        <time>2020-02-15T22:36:56Z</time>
      </trkpt>
      <trkpt lat="45.04885" lon="3.00465">
        <ele>953.617</ele>
        <time>2020-02-15T22:37:16Z</time>
      </trkpt>
      <trkpt lat="45.04871" lon="3.00543">
        <ele>951.008</ele>
        <time>2020-02-15T22:37:36Z</time>
      </trkpt>
      <trkpt lat="45.0488" lon="3.00618">
        <ele>945.679</ele>
        <time>2020-02-15T22:37:56Z</time>
      </trkpt>
      <trkpt lat="45.04909" lon="3.0065">
        <ele>941.453</ele>
        <time>2020-02-15T22:38:16Z</time>
      </trkpt>
      <trkpt lat="45.04909" lon="3.00779">
        <ele>931.29</ele>
        <time>2020-02-15T22:38:36Z</time>
      </trkpt>
      <trkpt lat="45.04892" lon="3.00865">
        <ele>922.953</ele>
        <time>2020-02-15T22:38:56Z</time>
      </trkpt>
      <trkpt lat="45.04923" lon="3.00914">
        <ele>911.614</ele>
        <time>2020-02-15T22:39:16Z</time>
      </trkpt>
      <trkpt lat="45.04951" lon="3.00865">
        <ele>913.547</ele>
        <time>2020-02-15T22:39:36Z</time>
      </trkpt>
      <trkpt lat="45.0502" lon="3.00796">
        <ele>904.213</ele>
        <time>2020-02-15T22:39:56Z</time>
      </trkpt>
      <trkpt lat="45.05048" lon="3.00787">
        <ele>901.867</ele>
        <time>2020-02-15T22:40:16Z</time>
      </trkpt>
      <trkpt lat="45.05067" lon="3.00759">
        <ele>905.675</ele>
        <time>2020-02-15T22:40:36Z</time>
      </trkpt>
      <trkpt lat="45.05109" lon="3.00802">
        <ele>909.928</ele>
        <time>2020-02-15T22:40:56Z</time>
      </trkpt>
      <trkpt lat="45.05124" lon="3.00845">
        <ele>905.52</ele>
        <time>2020-02-15T22:41:16Z</time>
      </trkpt>
      <trkpt lat="45.05239" lon="3.00933">
        <ele>899.108</ele>
        <time>2020-02-15T22:41:36Z</time>
      </trkpt>
      <trkpt lat="45.05248" lon="3.01013">
        <ele>887.253</ele>
        <time>2020-02-15T22:41:56Z</time>
      </trkpt>
      <trkpt lat="45.05229" lon="3.01137">
        <ele>883.037</ele>
        <time>2020-02-15T22:42:16Z</time>
      </trkpt>
      <trkpt lat="45.05254" lon="3.01191">
        <ele>884.634</ele>
        <time>2020-02-15T22:42:36Z</time>
      </trkpt>
      <trkpt lat="45.05253" lon="3.01238">
        <ele>888.477</ele>
        <time>2020-02-15T22:42:56Z</time>
      </trkpt>
      <trkpt lat="45.05203" lon="3.01322">
        <ele>892.198</ele>
        <time>2020-02-15T22:43:16Z</time>
      </trkpt>
      <trkpt lat="45.05174" lon="3.01429">
        <ele>894.531</ele>
        <time>2020-02-15T22:43:36Z</time>
      </trkpt>
      <trkpt lat="45.05224" lon="3.01341">
        <ele>899.977</ele>
        <time>2020-02-15T22:43:56Z</time>
      </trkpt>
      <trkpt lat="45.05294" lon="3.01307">
        <ele>913.931</ele>
        <time>2020-02-15T22:44:16Z</time>
      </trkpt>
      <trkpt lat="45.05438" lon="3.01214">
        <ele>943.755</ele>
        <time>2020-02-15T22:44:36Z</time>
      </trkpt>
      <trkpt lat="45.05521" lon="3.01059">
        <ele>951.707</ele>
        <time>2020-02-15T22:44:56Z</time>
      </trkpt>
      <trkpt lat="45.05581" lon="3.00974">
        <ele>956.617</ele>
        <time>2020-11-20T17:56:25Z</time>
      </trkpt>
      <trkpt lat="45.05604" lon="3.00982">
        <ele>961.408</ele>
        <time>2020-11-20T17:56:45Z</time>
      </trkpt>
      <trkpt lat="45.05636" lon="3.01042">
        <ele>967.881</ele>
        <time>2020-11-20T17:57:05Z</time>
      </trkpt>
      <trkpt lat="45.05648" lon="3.01085">
        <ele>969.415</ele>
        <time>2020-11-20T17:57:25Z</time>
      </trkpt>
      <trkpt lat="45.05671" lon="3.01066">
        <ele>969.872</ele>
        <time>2020-11-20T17:57:45Z</time>
      </trkpt>
      <trkpt lat="45.05692" lon="3.01023">
        <ele>970.735</ele>
        <time>2020-11-20T17:58:05Z</time>
      </trkpt>
      <trkpt lat="45.05741" lon="3.01081">
        <ele>977.336</ele>
        <time>2020-02-15T22:47:56Z</time>
      </trkpt>
      <trkpt lat="45.05914" lon="3.01146">
        <ele>976.459</ele>
        <time>2020-02-15T22:48:16Z</time>
      </trkpt>
      <trkpt lat="45.05923" lon="3.01373">
        <ele>980.395</ele>
        <time>2020-02-15T22:48:36Z</time>
      </trkpt>
      <trkpt lat="45.05882" lon="3.01562">
        <ele>975.039</ele>
        <time>2020-02-15T22:48:56Z</time>
      </trkpt>
      <trkpt lat="45.05906" lon="3.01742">
        <ele>972.487</ele>
        <time>2020-02-15T22:49:16Z</time>
      </trkpt>
      <trkpt lat="45.05912" lon="3.02006">
        <ele>964.242</ele>
        <time>2020-02-15T22:49:36Z</time>
      </trkpt>
      <trkpt lat="45.059" lon="3.02058">
        <ele>965.726</ele>
        <time>2020-02-15T22:49:56Z</time>
      </trkpt>
      <trkpt lat="45.05881" lon="3.02279">
        <ele>963.308</ele>
        <time>2020-02-15T22:50:16Z</time>
      </trkpt>
      <trkpt lat="45.05841" lon="3.02362">
        <ele>960.354</ele>
        <time>2020-02-15T22:50:36Z</time>
      </trkpt>
      <trkpt lat="45.05824" lon="3.02446">
        <ele>962.078</ele>
        <time>2020-02-15T22:50:56Z</time>
      </trkpt>
      <trkpt lat="45.05793" lon="3.0254">
        <ele>961.015</ele>
        <time>2020-02-15T22:51:16Z</time>
      </trkpt>
      <trkpt lat="45.05788" lon="3.02637">
        <ele>960.078</ele>
        <time>2020-02-15T22:51:36Z</time>
      </trkpt>
      <trkpt lat="45.05746" lon="3.0271">
        <ele>959.239</ele>
        <time>2020-02-15T22:51:56Z</time>
      </trkpt>
      <trkpt lat="45.05718" lon="3.02817">
        <ele>961.942</ele>
        <time>2020-02-15T22:52:16Z</time>
      </trkpt>
      <trkpt lat="45.0573" lon="3.02879">
        <ele>961.858</ele>
        <time>2020-02-15T22:52:36Z</time>
      </trkpt>
      <trkpt lat="45.05753" lon="3.03182">
        <ele>960.392</ele>
        <time>2020-02-15T22:52:56Z</time>
      </trkpt>
      <trkpt lat="45.05723" lon="3.03281">
        <ele>953.542</ele>
        <time>2020-02-15T22:53:16Z</time>
      </trkpt>
      <trkpt lat="45.05652" lon="3.03298">
        <ele>939.622</ele>
        <time>2020-02-15T22:53:36Z</time>
      </trkpt>
      <trkpt lat="45.05647" lon="3.03358">
        <ele>932.914</ele>
        <time>2020-02-15T22:53:56Z</time>
      </trkpt>
      <trkpt lat="45.05709" lon="3.03459">
        <ele>929.108</ele>
        <time>2020-02-15T22:54:16Z</time>
      </trkpt>
      <trkpt lat="45.05741" lon="3.03542">
        <ele>923.41</ele>
        <time>2020-02-15T22:54:36Z</time>
      </trkpt>
      <trkpt lat="45.05747" lon="3.03753">
        <ele>907.574</ele>
        <time>2020-02-15T22:54:56Z</time>
      </trkpt>
      <trkpt lat="45.05799" lon="3.03716">
        <ele>909.961</ele>
        <time>2020-02-15T22:55:16Z</time>
      </trkpt>
      <trkpt lat="45.05947" lon="3.03433">
        <ele>922.484</ele>
        <time>2020-02-15T22:55:36Z</time>
      </trkpt>
      <trkpt lat="45.05976" lon="3.03334">
        <ele>924.035</ele>
        <time>2020-02-15T22:55:56Z</time>
      </trkpt>
      <trkpt lat="45.06161" lon="3.03401">
        <ele>922.228</ele>
        <time>2020-02-15T22:56:16Z</time>
      </trkpt>
      <trkpt lat="45.06243" lon="3.03489">
        <ele>922.584</ele>
        <time>2020-02-15T22:56:36Z</time>
      </trkpt>
      <trkpt lat="45.06534" lon="3.03706">
        <ele>897.958</ele>
        <time>2020-02-15T22:56:56Z</time>
      </trkpt>
      <trkpt lat="45.06652" lon="3.03862">
        <ele>869.518</ele>
        <time>2020-02-15T22:57:16Z</time>
      </trkpt>
      <trkpt lat="45.06676" lon="3.03911">
        <ele>862.098</ele>
        <time>2020-02-15T22:57:36Z</time>
      </trkpt>
      <trkpt lat="45.06766" lon="3.03997">
        <ele>845.317</ele>
        <time>2020-02-15T22:57:56Z</time>
      </trkpt>
      <trkpt lat="45.06794" lon="3.04064">
        <ele>836.408</ele>
        <time>2020-02-15T22:58:16Z</time>
      </trkpt>
      <trkpt lat="45.0672" lon="3.04053">
        <ele>827.947</ele>
        <time>2020-02-15T22:58:36Z</time>
      </trkpt>
      <trkpt lat="45.06693" lon="3.04102">
        <ele>821.061</ele>
        <time>2020-02-15T22:58:56Z</time>
      </trkpt>
      <trkpt lat="45.0659" lon="3.04171">
        <ele>826.618</ele>
        <time>2020-02-15T22:59:16Z</time>
      </trkpt>
      <trkpt lat="45.06443" lon="3.04536">
        <ele>825.011</ele>
        <time>2020-02-15T22:59:36Z</time>
      </trkpt>
      <trkpt lat="45.06396" lon="3.04622">
        <ele>821.732</ele>
        <time>2020-02-15T22:59:56Z</time>
      </trkpt>
      <trkpt lat="45.0635" lon="3.04723">
        <ele>821.225</ele>
        <time>2020-02-15T23:00:16Z</time>
      </trkpt>
      <trkpt lat="45.06322" lon="3.0477">
        <ele>821.361</ele>
        <time>2020-02-15T23:00:36Z</time>
      </trkpt>
      <trkpt lat="45.06255" lon="3.0483">
        <ele>820.455</ele>
        <time>2020-02-15T23:00:56Z</time>
      </trkpt>
      <trkpt lat="45.06212" lon="3.0492">
        <ele>824.534</ele>
        <time>2020-02-15T23:01:16Z</time>
      </trkpt>
      <trkpt lat="45.06169" lon="3.05184">
        <ele>837.355</ele>
        <time>2020-02-15T23:01:36Z</time>
      </trkpt>
      <trkpt lat="45.06147" lon="3.05255">
        <ele>844.21</ele>
        <time>2020-02-15T23:01:56Z</time>
      </trkpt>
      <trkpt lat="45.06128" lon="3.05341">
        <ele>848.108</ele>
        <time>2020-02-15T23:02:16Z</time>
      </trkpt>
      <trkpt lat="45.06094" lon="3.05437">
        <ele>849.259</ele>
        <time>2020-02-15T23:02:36Z</time>
      </trkpt>
      <trkpt lat="45.06087" lon="3.05581">
        <ele>849.453</ele>
        <time>2020-02-15T23:02:56Z</time>
      </trkpt>
      <trkpt lat="45.06061" lon="3.05716">
        <ele>852.89</ele>
        <time>2020-02-15T23:03:16Z</time>
      </trkpt>
      <trkpt lat="45.06064" lon="3.05765">
        <ele>856.763</ele>
        <time>2020-02-15T23:03:36Z</time>
      </trkpt>
      <trkpt lat="45.06018" lon="3.05873">
        <ele>852.094</ele>
        <time>2020-02-15T23:03:56Z</time>
      </trkpt>
      <trkpt lat="45.06093" lon="3.06089">
        <ele>863.877</ele>
        <time>2020-02-15T23:04:16Z</time>
      </trkpt>
      <trkpt lat="45.06086" lon="3.06121">
        <ele>865.123</ele>
        <time>2020-02-15T23:04:36Z</time>
      </trkpt>
      <trkpt lat="45.06039" lon="3.06196">
        <ele>862.897</ele>
        <time>2020-02-15T23:04:56Z</time>
      </trkpt>
      <trkpt lat="45.06035" lon="3.06228">
        <ele>862.341</ele>
        <time>2020-02-15T23:05:16Z</time>
      </trkpt>
      <trkpt lat="45.06003" lon="3.06231">
        <ele>858.581</ele>
        <time>2020-02-15T23:05:36Z</time>
      </trkpt>
      <trkpt lat="45.05982" lon="3.06225">
        <ele>852.909</ele>
        <time>2020-02-15T23:05:56Z</time>
      </trkpt>
      <trkpt lat="45.05991" lon="3.06474">
        <ele>850.508</ele>
        <time>2020-02-15T23:06:16Z</time>
      </trkpt>
      <trkpt lat="45.05937" lon="3.0669">
        <ele>838.49</ele>
        <time>2020-02-15T23:06:36Z</time>
      </trkpt>
      <trkpt lat="45.05938" lon="3.06765">
        <ele>839.774</ele>
        <time>2020-02-15T23:06:56Z</time>
      </trkpt>
      <trkpt lat="45.05871" lon="3.06909">
        <ele>825.481</ele>
        <time>2020-02-15T23:07:16Z</time>
      </trkpt>
      <trkpt lat="45.05859" lon="3.06995">
        <ele>822.514</ele>
        <time>2020-02-15T23:07:36Z</time>
      </trkpt>
      <trkpt lat="45.05826" lon="3.07083">
        <ele>816.735</ele>
        <time>2020-02-15T23:07:56Z</time>
      </trkpt>
      <trkpt lat="45.05812" lon="3.07141">
        <ele>813.488</ele>
        <time>2020-02-15T23:08:16Z</time>
      </trkpt>
      <trkpt lat="45.05784" lon="3.07184">
        <ele>811.724</ele>
        <time>2020-02-15T23:08:36Z</time>
      </trkpt>
      <trkpt lat="45.05784" lon="3.07362">
        <ele>828.378</ele>
        <time>2020-02-15T23:08:56Z</time>
      </trkpt>
      <trkpt lat="45.05755" lon="3.07409">
        <ele>832.213</ele>
        <time>2020-02-15T23:09:16Z</time>
      </trkpt>
      <trkpt lat="45.05764" lon="3.07491">
        <ele>834.843</ele>
        <time>2020-02-15T23:09:36Z</time>
      </trkpt>
      <trkpt lat="45.05699" lon="3.07529">
        <ele>835.007</ele>
        <time>2020-02-15T23:09:56Z</time>
      </trkpt>
      <trkpt lat="45.05583" lon="3.07568">
        <ele>835.008</ele>
        <time>2020-02-15T23:10:16Z</time>
      </trkpt>
      <trkpt lat="45.05395" lon="3.07587">
        <ele>831.877</ele>
        <time>2020-02-15T23:10:36Z</time>
      </trkpt>
      <trkpt lat="45.05344" lon="3.07622">
        <ele>825.061</ele>
        <time>2020-02-15T23:10:56Z</time>
      </trkpt>
      <trkpt lat="45.05305" lon="3.0763">
        <ele>822.378</ele>
        <time>2020-02-15T23:11:16Z</time>
      </trkpt>
      <trkpt lat="45.05203" lon="3.07692">
        <ele>820.271</ele>
        <time>2020-02-15T23:11:36Z</time>
      </trkpt>
      <trkpt lat="45.05162" lon="3.0774">
        <ele>820.282</ele>
        <time>2020-02-15T23:11:56Z</time>
      </trkpt>
      <trkpt lat="45.05101" lon="3.07855">
        <ele>816.335</ele>
        <time>2020-02-15T23:12:16Z</time>
      </trkpt>
      <trkpt lat="45.05091" lon="3.07905">
        <ele>809.741</ele>
        <time>2020-02-15T23:12:36Z</time>
      </trkpt>
      <trkpt lat="45.05012" lon="3.07909">
        <ele>808.055</ele>
        <time>2020-02-15T23:12:56Z</time>
      </trkpt>
      <trkpt lat="45.04976" lon="3.07926">
        <ele>807.312</ele>
        <time>2020-02-15T23:13:16Z</time>
      </trkpt>
      <trkpt lat="45.04903" lon="3.08008">
        <ele>797.932</ele>
        <time>2020-02-15T23:13:36Z</time>
      </trkpt>
      <trkpt lat="45.04871" lon="3.08061">
        <ele>795.405</ele>
        <time>2020-02-15T23:13:56Z</time>
      </trkpt>
      <trkpt lat="45.04891" lon="3.08089">
        <ele>795.108</ele>
        <time>2020-02-15T23:14:16Z</time>
      </trkpt>
      <trkpt lat="45.04956" lon="3.08192">
        <ele>801.657</ele>
        <time>2020-02-15T23:14:36Z</time>
      </trkpt>
      <trkpt lat="45.04968" lon="3.08242">
        <ele>802.871</ele>
        <time>2020-02-15T23:14:56Z</time>
      </trkpt>
      <trkpt lat="45.04963" lon="3.08304">
        <ele>800.578</ele>
        <time>2020-02-15T23:15:16Z</time>
      </trkpt>
      <trkpt lat="45.04976" lon="3.08379">
        <ele>800.991</ele>
        <time>2020-02-15T23:15:36Z</time>
      </trkpt>
      <trkpt lat="45.0496" lon="3.08501">
        <ele>801.752</ele>
        <time>2020-02-15T23:15:56Z</time>
      </trkpt>
      <trkpt lat="45.04926" lon="3.08585">
        <ele>803.095</ele>
        <time>2020-02-15T23:16:16Z</time>
      </trkpt>
      <trkpt lat="45.04894" lon="3.08604">
        <ele>803.161</ele>
        <time>2020-02-15T23:16:36Z</time>
      </trkpt>
      <trkpt lat="45.04863" lon="3.08656">
        <ele>811.865</ele>
        <time>2020-02-15T23:16:56Z</time>
      </trkpt>
      <trkpt lat="45.04756" lon="3.08671">
        <ele>800.712</ele>
        <time>2020-02-15T23:17:16Z</time>
      </trkpt>
      <trkpt lat="45.04677" lon="3.08705">
        <ele>801.932</ele>
        <time>2020-02-15T23:17:36Z</time>
      </trkpt>
      <trkpt lat="45.04618" lon="3.08707">
        <ele>796.705</ele>
        <time>2020-02-15T23:17:56Z</time>
      </trkpt>
      <trkpt lat="45.04513" lon="3.08744">
        <ele>797.208</ele>
        <time>2020-02-15T23:18:16Z</time>
      </trkpt>
      <trkpt lat="45.04448" lon="3.08782">
        <ele>793.367</ele>
        <time>2020-02-15T23:18:36Z</time>
      </trkpt>
      <trkpt lat="45.04345" lon="3.08875">
        <ele>792.581</ele>
        <time>2020-02-15T23:18:56Z</time>
      </trkpt>
      <trkpt lat="45.04295" lon="3.0883">
        <ele>799.968</ele>
        <time>2020-02-15T23:19:16Z</time>
      </trkpt>
      <trkpt lat="45.04205" lon="3.09038">
        <ele>799.591</ele>
        <time>2020-02-15T23:19:36Z</time>
      </trkpt>
      <trkpt lat="45.04166" lon="3.09055">
        <ele>805.262</ele>
        <time>2020-02-15T23:19:56Z</time>
      </trkpt>
      <trkpt lat="45.04166" lon="3.09091">
        <ele>802.955</ele>
        <time>2020-02-15T23:20:16Z</time>
      </trkpt>
      <trkpt lat="45.04136" lon="3.09214">
        <ele>806.431</ele>
        <time>2020-02-15T23:20:36Z</time>
      </trkpt>
      <trkpt lat="45.04109" lon="3.09231">
        <ele>811.375</ele>
        <time>2020-02-15T23:20:56Z</time>
      </trkpt>
      <trkpt lat="45.04076" lon="3.0919">
        <ele>818.637</ele>
        <time>2020-02-15T23:21:16Z</time>
      </trkpt>
      <trkpt lat="45.04048" lon="3.09187">
        <ele>820.149</ele>
        <time>2020-02-15T23:21:36Z</time>
      </trkpt>
      <trkpt lat="45.04015" lon="3.09149">
        <ele>820.713</ele>
        <time>2020-02-15T23:21:56Z</time>
      </trkpt>
      <trkpt lat="45.03987" lon="3.09086">
        <ele>825.108</ele>
        <time>2020-02-15T23:22:16Z</time>
      </trkpt>
      <trkpt lat="45.03989" lon="3.09064">
        <ele>827.359</ele>
        <time>2020-02-15T23:22:36Z</time>
      </trkpt>
      <trkpt lat="45.03947" lon="3.09081">
        <ele>828.133</ele>
        <time>2020-02-15T23:22:56Z</time>
      </trkpt>
      <trkpt lat="45.03891" lon="3.09095">
        <ele>824.21</ele>
        <time>2020-02-15T23:23:16Z</time>
      </trkpt>
      <trkpt lat="45.0386" lon="3.09133">
        <ele>823.193</ele>
        <time>2020-02-15T23:23:36Z</time>
      </trkpt>
      <trkpt lat="45.03757" lon="3.09125">
        <ele>828.534</ele>
        <time>2020-02-15T23:23:56Z</time>
      </trkpt>
      <trkpt lat="45.03725" lon="3.09083">
        <ele>834.127</ele>
        <time>2020-02-15T23:24:16Z</time>
      </trkpt>
      <trkpt lat="45.03644" lon="3.09021">
        <ele>845.363</ele>
        <time>2020-02-15T23:24:36Z</time>
      </trkpt>
      <trkpt lat="45.03618" lon="3.09023">
        <ele>847.027</ele>
        <time>2020-02-15T23:24:56Z</time>
      </trkpt>
      <trkpt lat="45.036" lon="3.09061">
        <ele>847.077</ele>
        <time>2020-02-15T23:25:16Z</time>
      </trkpt>
      <trkpt lat="45.03617" lon="3.09237">
        <ele>840.261</ele>
        <time>2020-02-15T23:25:36Z</time>
      </trkpt>
      <trkpt lat="45.03603" lon="3.09337">
        <ele>833.027</ele>
        <time>2020-02-15T23:25:56Z</time>
      </trkpt>
      <trkpt lat="45.03525" lon="3.09433">
        <ele>843.808</ele>
        <time>2020-02-15T23:26:16Z</time>
      </trkpt>
      <trkpt lat="45.03556" lon="3.09329">
        <ele>851.143</ele>
        <time>2020-02-15T23:26:36Z</time>
      </trkpt>
      <trkpt lat="45.03542" lon="3.09203">
        <ele>859.087</ele>
        <time>2020-02-15T23:26:56Z</time>
      </trkpt>
      <trkpt lat="45.03505" lon="3.09039">
        <ele>872.374</ele>
        <time>2020-02-15T23:27:16Z</time>
      </trkpt>
      <trkpt lat="45.03498" lon="3.09133">
        <ele>875.587</ele>
        <time>2020-02-15T23:27:36Z</time>
      </trkpt>
      <trkpt lat="45.03467" lon="3.09053">
        <ele>880.558</ele>
        <time>2020-02-15T23:27:56Z</time>
      </trkpt>
      <trkpt lat="45.03432" lon="3.09047">
        <ele>882.661</ele>
        <time>2020-02-15T23:28:16Z</time>
      </trkpt>
      <trkpt lat="45.03396" lon="3.09261">
        <ele>886.487</ele>
        <time>2020-02-15T23:28:36Z</time>
      </trkpt>
      <trkpt lat="45.03387" lon="3.09322">
        <ele>887.141</ele>
        <time>2020-02-20T03:01:53Z</time>
      </trkpt>
      <trkpt lat="45.03369" lon="3.09463">
        <ele>888.381</ele>
        <time>2020-02-20T03:02:13Z</time>
      </trkpt>
      <trkpt lat="45.03351" lon="3.09467">
        <ele>888.361</ele>
        <time>2020-02-20T03:02:33Z</time>
      </trkpt>
      <trkpt lat="45.0336" lon="3.09524">
        <ele>886.117</ele>
        <time>2020-02-20T03:02:53Z</time>
      </trkpt>
      <trkpt lat="45.03357" lon="3.09576">
        <ele>883.808</ele>
        <time>2020-02-20T03:03:13Z</time>
      </trkpt>
      <trkpt lat="45.03339" lon="3.09616">
        <ele>874.294</ele>
        <time>2020-02-20T03:03:33Z</time>
      </trkpt>
      <trkpt lat="45.03314" lon="3.09598">
        <ele>874.668</ele>
        <time>2020-02-20T03:03:53Z</time>
      </trkpt>
      <trkpt lat="45.03297" lon="3.09565">
        <ele>874.385</ele>
        <time>2020-02-20T03:04:13Z</time>
      </trkpt>
      <trkpt lat="45.03252" lon="3.09505">
        <ele>861.018</ele>
        <time>2020-02-20T03:04:33Z</time>
      </trkpt>
      <trkpt lat="45.03253" lon="3.0955">
        <ele>854.359</ele>
        <time>2020-02-20T03:04:53Z</time>
      </trkpt>
      <trkpt lat="45.033" lon="3.09707">
        <ele>826.522</ele>
        <time>2020-02-20T03:05:13Z</time>
      </trkpt>
      <trkpt lat="45.03326" lon="3.09739">
        <ele>816.288</ele>
        <time>2020-02-20T03:05:33Z</time>
      </trkpt>
      <trkpt lat="45.03308" lon="3.09772">
        <ele>808.352</ele>
        <time>2020-02-20T03:05:53Z</time>
      </trkpt>
      <trkpt lat="45.03302" lon="3.0981">
        <ele>793.042</ele>
        <time>2020-02-20T03:06:13Z</time>
      </trkpt>
      <trkpt lat="45.03292" lon="3.0982">
        <ele>791.022</ele>
        <time>2020-02-20T03:06:33Z</time>
      </trkpt>
      <trkpt lat="45.03292" lon="3.0984">
        <ele>787.714</ele>
        <time>2020-02-20T03:06:53Z</time>
      </trkpt>
      <trkpt lat="45.03306" lon="3.09844">
        <ele>786.908</ele>
        <time>2020-02-20T03:07:13Z</time>
      </trkpt>
      <trkpt lat="45.03309" lon="3.09853">
        <ele>785.81</ele>
        <time>2020-02-20T03:07:33Z</time>
      </trkpt>
      <trkpt lat="45.03283" lon="3.09874">
        <ele>783.524</ele>
        <time>2020-02-20T03:07:53Z</time>
      </trkpt>
      <trkpt lat="45.03278" lon="3.09895">
        <ele>781.621</ele>
        <time>2020-02-20T03:08:13Z</time>
      </trkpt>
      <trkpt lat="45.03291" lon="3.09901">
        <ele>780.734</ele>
        <time>2020-02-20T03:08:33Z</time>
      </trkpt>
      <trkpt lat="45.03333" lon="3.09975">
        <ele>776.185</ele>
        <time>2020-02-20T03:08:53Z</time>
      </trkpt>
      <trkpt lat="45.03306" lon="3.10043">
        <ele>777.458</ele>
        <time>2015-07-26T16:32:50Z</time>
      </trkpt>
      <trkpt lat="45.03306" lon="3.10043">
        <ele>777.464</ele>
        <time>2015-07-26T16:32:50Z</time>
      </trkpt>
      <trkpt lat="45.03229" lon="3.10354">
        <ele>775.318</ele>
        <time>2015-07-26T16:33:10Z</time>
      </trkpt>
      <trkpt lat="45.03272" lon="3.10589">
        <ele>773.064</ele>
        <time>2015-07-26T16:33:30Z</time>
      </trkpt>
      <trkpt lat="45.03258" lon="3.1083">
        <ele>771.106</ele>
        <time>2015-07-26T16:33:50Z</time>
      </trkpt>
      <trkpt lat="45.03269" lon="3.10877">
        <ele>771.916</ele>
        <time>2015-07-26T16:34:10Z</time>
      </trkpt>
      <trkpt lat="45.03313" lon="3.10891">
        <ele>770.008</ele>
        <time>2015-07-26T16:34:30Z</time>
      </trkpt>
      <trkpt lat="45.0335" lon="3.10977">
        <ele>768.912</ele>
        <time>2015-07-26T16:34:50Z</time>
      </trkpt>
      <trkpt lat="45.03391" lon="3.10978">
        <ele>773.316</ele>
        <time>2015-07-26T16:35:10Z</time>
      </trkpt>
      <trkpt lat="45.03383" lon="3.11062">
        <ele>778.743</ele>
        <time>2015-07-26T16:35:30Z</time>
      </trkpt>
      <trkpt lat="45.03368" lon="3.11085">
        <ele>778.686</ele>
        <time>2015-07-26T16:35:50Z</time>
      </trkpt>
      <trkpt lat="45.03295" lon="3.11125">
        <ele>776.467</ele>
        <time>2015-07-26T16:36:10Z</time>
      </trkpt>
      <trkpt lat="45.03262" lon="3.11159">
        <ele>777.17</ele>
        <time>2015-07-26T16:36:30Z</time>
      </trkpt>
      <trkpt lat="45.0322" lon="3.11248">
        <ele>777.596</ele>
        <time>2015-07-26T16:36:50Z</time>
      </trkpt>
      <trkpt lat="45.03119" lon="3.11391">
        <ele>772.33</ele>
        <time>2015-07-26T16:37:10Z</time>
      </trkpt>
      <trkpt lat="45.03108" lon="3.11423">
        <ele>772.642</ele>
        <time>2015-07-26T16:37:30Z</time>
      </trkpt>
      <trkpt lat="45.03091" lon="3.11436">
        <ele>770.322</ele>
        <time>2015-07-26T16:37:50Z</time>
      </trkpt>
      <trkpt lat="45.03062" lon="3.11526">
        <ele>767.414</ele>
        <time>2015-07-26T16:38:10Z</time>
      </trkpt>
      <trkpt lat="45.03012" lon="3.11585">
        <ele>775.508</ele>
        <time>2015-07-26T16:38:30Z</time>
      </trkpt>
      <trkpt lat="45.02964" lon="3.11585">
        <ele>778.98</ele>
        <time>2015-07-26T16:38:50Z</time>
      </trkpt>
      <trkpt lat="45.0292" lon="3.11563">
        <ele>775.864</ele>
        <time>2015-07-26T16:39:10Z</time>
      </trkpt>
      <trkpt lat="45.02772" lon="3.11447">
        <ele>773.311</ele>
        <time>2015-07-26T16:39:30Z</time>
      </trkpt>
      <trkpt lat="45.02703" lon="3.11334">
        <ele>768.964</ele>
        <time>2015-07-26T16:39:50Z</time>
      </trkpt>
      <trkpt lat="45.02655" lon="3.11332">
        <ele>768.535</ele>
        <time>2015-07-26T16:40:10Z</time>
      </trkpt>
      <trkpt lat="45.02541" lon="3.1143">
        <ele>770.468</ele>
        <time>2015-07-26T16:40:30Z</time>
      </trkpt>
      <trkpt lat="45.02488" lon="3.11554">
        <ele>768.774</ele>
        <time>2015-07-26T16:40:50Z</time>
      </trkpt>
      <trkpt lat="45.02478" lon="3.11769">
        <ele>765.768</ele>
        <time>2015-07-26T16:41:10Z</time>
      </trkpt>
      <trkpt lat="45.02462" lon="3.11819">
        <ele>764.228</ele>
        <time>2015-07-26T16:41:30Z</time>
      </trkpt>
      <trkpt lat="45.02457" lon="3.11939">
        <ele>773.189</ele>
        <time>2015-07-26T16:41:50Z</time>
      </trkpt>
      <trkpt lat="45.02469" lon="3.11999">
        <ele>782.717</ele>
        <time>2015-07-26T16:42:10Z</time>
      </trkpt>
      <trkpt lat="45.02449" lon="3.12082">
        <ele>786.608</ele>
        <time>2015-07-26T16:42:30Z</time>
      </trkpt>
      <trkpt lat="45.02442" lon="3.12126">
        <ele>794.928</ele>
        <time>2015-07-26T16:42:50Z</time>
      </trkpt>
      <trkpt lat="45.02398" lon="3.12155">
        <ele>795.852</ele>
        <time>2015-07-26T16:43:10Z</time>
      </trkpt>
      <trkpt lat="45.02417" lon="3.12224">
        <ele>802.059</ele>
        <time>2015-07-26T16:43:30Z</time>
      </trkpt>
      <trkpt lat="45.02447" lon="3.12259">
        <ele>808.462</ele>
        <time>2015-07-26T16:43:50Z</time>
      </trkpt>
      <trkpt lat="45.02468" lon="3.12351">
        <ele>810.913</ele>
        <time>2015-07-26T16:44:10Z</time>
      </trkpt>
      <trkpt lat="45.02462" lon="3.12437">
        <ele>814.296</ele>
        <time>2015-07-26T16:44:30Z</time>
      </trkpt>
      <trkpt lat="45.02428" lon="3.12458">
        <ele>815.422</ele>
        <time>2015-07-26T16:44:50Z</time>
      </trkpt>
      <trkpt lat="45.02378" lon="3.12357">
        <ele>816.486</ele>
        <time>2015-07-26T16:45:10Z</time>
      </trkpt>
      <trkpt lat="45.02321" lon="3.12342">
        <ele>819.013</ele>
        <time>2015-07-26T16:45:30Z</time>
      </trkpt>
      <trkpt lat="45.02285" lon="3.12352">
        <ele>819.943</ele>
        <time>2015-07-26T16:45:50Z</time>
      </trkpt>
      <trkpt lat="45.02201" lon="3.12493">
        <ele>813.407</ele>
        <time>2015-07-26T16:46:10Z</time>
      </trkpt>
      <trkpt lat="45.02155" lon="3.12547">
        <ele>811.708</ele>
        <time>2015-07-26T16:46:30Z</time>
      </trkpt>
      <trkpt lat="45.02109" lon="3.12598">
        <ele>810.747</ele>
        <time>2015-07-26T16:46:50Z</time>
      </trkpt>
      <trkpt lat="45.02102" lon="3.12653">
        <ele>815.081</ele>
        <time>2015-07-26T16:47:10Z</time>
      </trkpt>
      <trkpt lat="45.02119" lon="3.12697">
        <ele>819.828</ele>
        <time>2015-07-26T16:47:30Z</time>
      </trkpt>
      <trkpt lat="45.02064" lon="3.12757">
        <ele>823.511</ele>
        <time>2015-07-26T16:47:50Z</time>
      </trkpt>
      <trkpt lat="45.02007" lon="3.12773">
        <ele>824.992</ele>
        <time>2015-07-26T16:48:10Z</time>
      </trkpt>
      <trkpt lat="45.01979" lon="3.12803">
        <ele>826.125</ele>
        <time>2015-07-26T16:48:30Z</time>
      </trkpt>
      <trkpt lat="45.01928" lon="3.12798">
        <ele>823.241</ele>
        <time>2015-07-26T16:48:50Z</time>
      </trkpt>
      <trkpt lat="45.01868" lon="3.12762">
        <ele>820.145</ele>
        <time>2015-07-26T16:49:10Z</time>
      </trkpt>
      <trkpt lat="45.01854" lon="3.12783">
        <ele>821.153</ele>
        <time>2015-07-26T16:49:30Z</time>
      </trkpt>
      <trkpt lat="45.01853" lon="3.12817">
        <ele>819.504</ele>
        <time>2015-07-26T16:49:50Z</time>
      </trkpt>
      <trkpt lat="45.01817" lon="3.12867">
        <ele>800.114</ele>
        <time>2015-07-26T16:50:10Z</time>
      </trkpt>
      <trkpt lat="45.01798" lon="3.12867">
        <ele>792.708</ele>
        <time>2015-07-26T16:50:30Z</time>
      </trkpt>
      <trkpt lat="45.01781" lon="3.12884">
        <ele>784.651</ele>
        <time>2015-07-26T16:50:50Z</time>
      </trkpt>
      <trkpt lat="45.01776" lon="3.12907">
        <ele>780.115</ele>
        <time>2015-07-26T16:51:10Z</time>
      </trkpt>
      <trkpt lat="45.01762" lon="3.12904">
        <ele>776.922</ele>
        <time>2015-07-26T16:51:30Z</time>
      </trkpt>
      <trkpt lat="45.01735" lon="3.12875">
        <ele>773.655</ele>
        <time>2015-07-26T16:51:50Z</time>
      </trkpt>
      <trkpt lat="45.01731" lon="3.12802">
        <ele>773.446</ele>
        <time>2015-07-26T16:52:10Z</time>
      </trkpt>
      <trkpt lat="45.01709" lon="3.12792">
        <ele>770.389</ele>
        <time>2015-07-26T16:52:30Z</time>
      </trkpt>
      <trkpt lat="45.0166" lon="3.1285">
        <ele>779.375</ele>
        <time>2015-07-26T16:52:50Z</time>
      </trkpt>
      <trkpt lat="45.01675" lon="3.1287">
        <ele>781.319</ele>
        <time>2015-07-26T16:53:10Z</time>
      </trkpt>
      <trkpt lat="45.01641" lon="3.12989">
        <ele>814.287</ele>
        <time>2015-07-26T16:53:30Z</time>
      </trkpt>
      <trkpt lat="45.01615" lon="3.13">
        <ele>821.342</ele>
        <time>2015-07-26T16:53:50Z</time>
      </trkpt>
      <trkpt lat="45.01595" lon="3.13062">
        <ele>834.426</ele>
        <time>2015-07-26T16:54:10Z</time>
      </trkpt>
      <trkpt lat="45.01581" lon="3.13156">
        <ele>847.608</ele>
        <time>2015-07-26T16:54:30Z</time>
      </trkpt>
      <trkpt lat="45.01556" lon="3.13157">
        <ele>848.394</ele>
        <time>2015-07-26T16:54:50Z</time>
      </trkpt>
      <trkpt lat="45.01546" lon="3.13086">
        <ele>844.448</ele>
        <time>2015-07-26T16:55:10Z</time>
      </trkpt>
      <trkpt lat="45.01515" lon="3.13091">
        <ele>844.745</ele>
        <time>2015-07-26T16:55:30Z</time>
      </trkpt>
      <trkpt lat="45.01438" lon="3.13173">
        <ele>841.368</ele>
        <time>2015-07-26T16:55:50Z</time>
      </trkpt>
      <trkpt lat="45.01395" lon="3.13311">
        <ele>832.179</ele>
        <time>2015-07-26T16:56:10Z</time>
      </trkpt>
      <trkpt lat="45.01357" lon="3.13367">
        <ele>823.272</ele>
        <time>2015-07-26T16:56:30Z</time>
      </trkpt>
      <trkpt lat="45.01338" lon="3.13496">
        <ele>819.648</ele>
        <time>2015-07-26T16:56:50Z</time>
      </trkpt>
      <trkpt lat="45.01317" lon="3.13599">
        <ele>812.972</ele>
        <time>2015-07-26T16:57:10Z</time>
      </trkpt>
      <trkpt lat="45.01323" lon="3.13693">
        <ele>810.923</ele>
        <time>2015-07-26T16:57:30Z</time>
      </trkpt>
      <trkpt lat="45.01354" lon="3.13759">
        <ele>810.383</ele>
        <time>2015-07-26T16:57:50Z</time>
      </trkpt>
      <trkpt lat="45.01423" lon="3.13827">
        <ele>817.711</ele>
        <time>2015-07-26T16:58:10Z</time>
      </trkpt>
      <trkpt lat="45.01405" lon="3.13903">
        <ele>820.708</ele>
        <time>2015-07-26T16:58:30Z</time>
      </trkpt>
      <trkpt lat="45.01418" lon="3.13957">
        <ele>827.548</ele>
        <time>2015-07-26T16:58:50Z</time>
      </trkpt>
      <trkpt lat="45.01482" lon="3.14126">
        <ele>843.732</ele>
        <time>2015-07-26T16:59:10Z</time>
      </trkpt>
      <trkpt lat="45.01533" lon="3.14195">
        <ele>850.849</ele>
        <time>2015-07-26T16:59:30Z</time>
      </trkpt>
      <trkpt lat="45.01536" lon="3.14236">
        <ele>850.552</ele>
        <time>2015-07-26T16:59:50Z</time>
      </trkpt>
      <trkpt lat="45.01521" lon="3.14286">
        <ele>847.763</ele>
        <time>2015-07-26T17:00:10Z</time>
      </trkpt>
      <trkpt lat="45.01545" lon="3.14345">
        <ele>854.576</ele>
        <time>2015-07-26T17:00:30Z</time>
      </trkpt>
      <trkpt lat="45.01527" lon="3.14401">
        <ele>853.942</ele>
        <time>2015-07-26T17:00:50Z</time>
      </trkpt>
      <trkpt lat="45.01556" lon="3.14521">
        <ele>857.076</ele>
        <time>2015-07-26T17:01:10Z</time>
      </trkpt>
      <trkpt lat="45.01378" lon="3.14837">
        <ele>864.424</ele>
        <time>2015-07-26T17:01:30Z</time>
      </trkpt>
      <trkpt lat="45.01355" lon="3.14918">
        <ele>867.804</ele>
        <time>2015-07-26T17:01:50Z</time>
      </trkpt>
      <trkpt lat="45.01285" lon="3.15081">
        <ele>875.914</ele>
        <time>2015-07-26T17:02:10Z</time>
      </trkpt>
      <trkpt lat="45.01244" lon="3.15285">
        <ele>878.508</ele>
        <time>2015-07-26T17:02:30Z</time>
      </trkpt>
      <trkpt lat="45.01166" lon="3.15565">
        <ele>883.648</ele>
        <time>2015-07-26T17:02:50Z</time>
      </trkpt>
      <trkpt lat="45.01208" lon="3.15686">
        <ele>880.522</ele>
        <time>2015-07-26T17:03:10Z</time>
      </trkpt>
      <trkpt lat="45.0122" lon="3.16314">
        <ele>883.219</ele>
        <time>2015-07-26T17:03:30Z</time>
      </trkpt>
      <trkpt lat="45.01266" lon="3.16662">
        <ele>879.482</ele>
        <time>2015-07-26T17:03:50Z</time>
      </trkpt>
      <trkpt lat="45.01266" lon="3.16761">
        <ele>878.083</ele>
        <time>2015-07-26T17:04:10Z</time>
      </trkpt>
      <trkpt lat="45.01196" lon="3.1703">
        <ele>874.036</ele>
        <time>2015-07-26T17:04:30Z</time>
      </trkpt>
      <trkpt lat="45.01084" lon="3.16954">
        <ele>869.422</ele>
        <time>2015-07-26T17:04:50Z</time>
      </trkpt>
      <trkpt lat="45.00997" lon="3.16925">
        <ele>870.666</ele>
        <time>2015-07-26T17:05:10Z</time>
      </trkpt>
      <trkpt lat="45.0097" lon="3.16929">
        <ele>869.544</ele>
        <time>2015-07-26T17:05:30Z</time>
      </trkpt>
      <trkpt lat="45.00928" lon="3.16983">
        <ele>869.505</ele>
        <time>2015-07-26T17:05:50Z</time>
      </trkpt>
      <trkpt lat="45.00859" lon="3.1701">
        <ele>870.115</ele>
        <time>2015-07-26T17:06:10Z</time>
      </trkpt>
      <trkpt lat="45.00727" lon="3.17128">
        <ele>875.408</ele>
        <time>2015-07-26T17:06:30Z</time>
      </trkpt>
      <trkpt lat="45.00702" lon="3.17186">
        <ele>874.46</ele>
        <time>2015-07-26T17:06:50Z</time>
      </trkpt>
      <trkpt lat="45.00684" lon="3.17281">
        <ele>872.324</ele>
        <time>2015-07-26T17:07:10Z</time>
      </trkpt>
      <trkpt lat="45.00614" lon="3.17372">
        <ele>879.191</ele>
        <time>2015-07-26T17:07:30Z</time>
      </trkpt>
      <trkpt lat="45.00577" lon="3.17404">
        <ele>881.554</ele>
        <time>2015-07-26T17:07:50Z</time>
      </trkpt>
      <trkpt lat="45.00521" lon="3.17507">
        <ele>886.865</ele>
        <time>2015-07-26T17:08:10Z</time>
      </trkpt>
      <trkpt lat="45.005" lon="3.17592">
        <ele>880.448</ele>
        <time>2015-07-26T17:08:30Z</time>
      </trkpt>
      <trkpt lat="45.0047" lon="3.17643">
        <ele>879.224</ele>
        <time>2015-07-26T17:08:50Z</time>
      </trkpt>
      <trkpt lat="45.00422" lon="3.17693">
        <ele>877.688</ele>
        <time>2015-07-26T17:09:10Z</time>
      </trkpt>
      <trkpt lat="45.0041" lon="3.17727">
        <ele>877.942</ele>
        <time>2015-07-26T17:09:30Z</time>
      </trkpt>
      <trkpt lat="45.00302" lon="3.1789">
        <ele>872.222</ele>
        <time>2015-07-26T17:09:50Z</time>
      </trkpt>
      <trkpt lat="45.0019" lon="3.18029">
        <ele>869.014</ele>
        <time>2015-07-26T17:10:10Z</time>
      </trkpt>
      <trkpt lat="45.00075" lon="3.18346">
        <ele>853.008</ele>
        <time>2015-07-26T17:10:30Z</time>
      </trkpt>
      <trkpt lat="45.00044" lon="3.1845">
        <ele>848.56</ele>
        <time>2015-07-26T17:10:50Z</time>
      </trkpt>
      <trkpt lat="44.99983" lon="3.18571">
        <ele>845.464</ele>
        <time>2015-07-26T17:11:10Z</time>
      </trkpt>
      <trkpt lat="44.99924" lon="3.18723">
        <ele>842.351</ele>
        <time>2015-07-26T17:11:30Z</time>
      </trkpt>
      <trkpt lat="44.99835" lon="3.18799">
        <ele>840.874</ele>
        <time>2015-07-26T17:11:50Z</time>
      </trkpt>
      <trkpt lat="44.99815" lon="3.18784">
        <ele>838.845</ele>
        <time>2015-07-26T17:12:10Z</time>
      </trkpt>
      <trkpt lat="44.99759" lon="3.18815">
        <ele>836.768</ele>
        <time>2015-07-26T17:12:30Z</time>
      </trkpt>
      <trkpt lat="44.99664" lon="3.18832">
        <ele>829.784</ele>
        <time>2015-07-26T17:12:50Z</time>
      </trkpt>
      <trkpt lat="44.99611" lon="3.1886">
        <ele>826.938</ele>
        <time>2015-07-26T17:13:10Z</time>
      </trkpt>
      <trkpt lat="44.9958" lon="3.18931">
        <ele>831.013</ele>
        <time>2015-07-26T17:13:30Z</time>
      </trkpt>
      <trkpt lat="44.99575" lon="3.18989">
        <ele>830.443</ele>
        <time>2015-07-26T17:13:50Z</time>
      </trkpt>
      <trkpt lat="44.99538" lon="3.19062">
        <ele>823.807</ele>
        <time>2015-07-26T17:14:10Z</time>
      </trkpt>
      <trkpt lat="44.99488" lon="3.19133">
        <ele>811.608</ele>
        <time>2015-07-26T17:14:30Z</time>
      </trkpt>
      <trkpt lat="44.99476" lon="3.19171">
        <ele>808.827</ele>
        <time>2015-07-26T17:14:50Z</time>
      </trkpt>
      <trkpt lat="44.9946" lon="3.19179">
        <ele>807.131</ele>
        <time>2015-07-26T17:15:10Z</time>
      </trkpt>
      <trkpt lat="44.99406" lon="3.19262">
        <ele>815.518</ele>
        <time>2015-07-26T17:15:30Z</time>
      </trkpt>
      <trkpt lat="44.99483" lon="3.193">
        <ele>817.461</ele>
        <time>2015-07-26T17:15:50Z</time>
      </trkpt>
      <trkpt lat="44.9953" lon="3.19303">
        <ele>813.732</ele>
        <time>2015-07-26T17:16:10Z</time>
      </trkpt>
      <trkpt lat="44.99592" lon="3.19296">
        <ele>814.825</ele>
        <time>2015-07-26T17:16:30Z</time>
      </trkpt>
      <trkpt lat="44.99621" lon="3.19319">
        <ele>819.311</ele>
        <time>2015-07-26T17:16:50Z</time>
      </trkpt>
      <trkpt lat="44.99644" lon="3.19334">
        <ele>821.415</ele>
        <time>2015-07-26T17:17:10Z</time>
      </trkpt>
      <trkpt lat="44.99684" lon="3.19405">
        <ele>822.329</ele>
        <time>2015-07-26T17:17:30Z</time>
      </trkpt>
      <trkpt lat="44.99711" lon="3.19488">
        <ele>823.3</ele>
        <time>2015-07-26T17:17:50Z</time>
      </trkpt>
      <trkpt lat="44.99712" lon="3.19519">
        <ele>823.32</ele>
        <time>2015-07-26T17:18:10Z</time>
      </trkpt>
      <trkpt lat="44.99728" lon="3.1957">
        <ele>823.608</ele>
        <time>2015-07-26T17:18:30Z</time>
      </trkpt>
      <trkpt lat="44.99726" lon="3.19593">
        <ele>824.718</ele>
        <time>2015-07-26T17:18:50Z</time>
      </trkpt>
      <trkpt lat="44.99734" lon="3.19647">
        <ele>828.552</ele>
        <time>2015-07-26T17:19:10Z</time>
      </trkpt>
      <trkpt lat="44.99708" lon="3.19653">
        <ele>828.329</ele>
        <time>2015-07-26T17:19:30Z</time>
      </trkpt>
      <trkpt lat="44.99691" lon="3.19725">
        <ele>828.862</ele>
        <time>2015-07-26T17:19:50Z</time>
      </trkpt>
      <trkpt lat="44.99607" lon="3.19694">
        <ele>826.053</ele>
        <time>2015-07-26T17:20:10Z</time>
      </trkpt>
      <trkpt lat="44.99547" lon="3.19679">
        <ele>826.126</ele>
        <time>2015-07-26T17:20:30Z</time>
      </trkpt>
      <trkpt lat="44.99466" lon="3.19677">
        <ele>827.642</ele>
        <time>2015-07-26T17:20:50Z</time>
      </trkpt>
      <trkpt lat="44.99146" lon="3.19627">
        <ele>830.796</ele>
        <time>2015-07-26T17:21:10Z</time>
      </trkpt>
      <trkpt lat="44.99019" lon="3.19584">
        <ele>832.068</ele>
        <time>2015-07-26T17:21:30Z</time>
      </trkpt>
      <trkpt lat="44.98867" lon="3.1955">
        <ele>832.242</ele>
        <time>2015-07-26T17:21:50Z</time>
      </trkpt>
      <trkpt lat="44.98839" lon="3.19768">
        <ele>828.026</ele>
        <time>2015-07-26T17:22:10Z</time>
      </trkpt>
      <trkpt lat="44.98834" lon="3.19968">
        <ele>825.008</ele>
        <time>2015-07-26T17:22:30Z</time>
      </trkpt>
      <trkpt lat="44.98815" lon="3.20125">
        <ele>817.322</ele>
        <time>2015-07-26T17:22:50Z</time>
      </trkpt>
      <trkpt lat="44.98773" lon="3.20283">
        <ele>812.326</ele>
        <time>2015-07-26T17:23:10Z</time>
      </trkpt>
      <trkpt lat="44.98724" lon="3.20397">
        <ele>811.053</ele>
        <time>2015-07-26T17:23:30Z</time>
      </trkpt>
      <trkpt lat="44.98708" lon="3.20403">
        <ele>810.026</ele>
        <time>2015-07-26T17:23:50Z</time>
      </trkpt>
      <trkpt lat="44.98668" lon="3.2038">
        <ele>803.897</ele>
        <time>2015-07-26T17:24:10Z</time>
      </trkpt>
      <trkpt lat="44.98585" lon="3.20369">
        <ele>805.48</ele>
        <time>2015-07-26T17:24:30Z</time>
      </trkpt>
      <trkpt lat="44.98555" lon="3.20381">
        <ele>805.326</ele>
        <time>2015-07-26T17:24:50Z</time>
      </trkpt>
      <trkpt lat="44.985" lon="3.20345">
        <ele>807.48</ele>
        <time>2015-07-26T17:25:10Z</time>
      </trkpt>
      <trkpt lat="44.98431" lon="3.20308">
        <ele>807.271</ele>
        <time>2015-07-26T17:25:30Z</time>
      </trkpt>
      <trkpt lat="44.98419" lon="3.2032">
        <ele>808.141</ele>
        <time>2015-07-26T17:25:50Z</time>
      </trkpt>
      <trkpt lat="44.98392" lon="3.20446">
        <ele>814.115</ele>
        <time>2020-11-20T19:40:25Z</time>
      </trkpt>
      <trkpt lat="44.98333" lon="3.20583">
        <ele>810.008</ele>
        <time>2020-11-20T19:40:45Z</time>
      </trkpt>
      <trkpt lat="44.9812" lon="3.20844">
        <ele>803.613</ele>
        <time>2020-11-20T19:41:05Z</time>
      </trkpt>
      <trkpt lat="44.9809" lon="3.2089">
        <ele>789.827</ele>
        <time>2020-11-20T19:41:25Z</time>
      </trkpt>
      <trkpt lat="44.98048" lon="3.20879">
        <ele>789.434</ele>
        <time>2020-11-20T19:41:45Z</time>
      </trkpt>
      <trkpt lat="44.97999" lon="3.2089">
        <ele>778.927</ele>
        <time>2020-11-20T19:42:05Z</time>
      </trkpt>
      <trkpt lat="44.97959" lon="3.2095">
        <ele>771.768</ele>
        <time>2020-11-20T19:42:25Z</time>
      </trkpt>
      <trkpt lat="44.97943" lon="3.20953">
        <ele>770.941</ele>
        <time>2020-11-20T19:42:45Z</time>
      </trkpt>
      <trkpt lat="44.97937" lon="3.20934">
        <ele>770.677</ele>
        <time>2020-11-20T19:43:05Z</time>
      </trkpt>
      <trkpt lat="44.97962" lon="3.20852">
        <ele>777.551</ele>
        <time>2015-07-26T17:28:50Z</time>
      </trkpt>
      <trkpt lat="44.97932" lon="3.20836">
        <ele>780.855</ele>
        <time>2015-07-26T17:29:10Z</time>
      </trkpt>
      <trkpt lat="44.97879" lon="3.20905">
        <ele>768.107</ele>
        <time>2015-07-26T17:29:30Z</time>
      </trkpt>
      <trkpt lat="44.97797" lon="3.20928">
        <ele>767.917</ele>
        <time>2015-07-26T17:29:50Z</time>
      </trkpt>
      <trkpt lat="44.97735" lon="3.20929">
        <ele>770.108</ele>
        <time>2015-07-26T17:30:10Z</time>
      </trkpt>
      <trkpt lat="44.97709" lon="3.20948">
        <ele>760.921</ele>
        <time>2015-07-26T17:30:30Z</time>
      </trkpt>
      <trkpt lat="44.97678" lon="3.21037">
        <ele>761.845</ele>
        <time>2015-07-26T17:30:50Z</time>
      </trkpt>
      <trkpt lat="44.97603" lon="3.21044">
        <ele>763.582</ele>
        <time>2015-07-26T17:31:10Z</time>
      </trkpt>
      <trkpt lat="44.97564" lon="3.21073">
        <ele>763.695</ele>
        <time>2015-07-26T17:31:30Z</time>
      </trkpt>
      <trkpt lat="44.97532" lon="3.21158">
        <ele>767.096</ele>
        <time>2015-07-26T17:31:50Z</time>
      </trkpt>
      <trkpt lat="44.97502" lon="3.21259">
        <ele>774.169</ele>
        <time>2015-07-26T17:32:10Z</time>
      </trkpt>
      <trkpt lat="44.97501" lon="3.21319">
        <ele>780.315</ele>
        <time>2020-02-15T20:42:09Z</time>
      </trkpt>
      <trkpt lat="44.97535" lon="3.21402">
        <ele>789.039</ele>
        <time>2020-02-15T20:42:29Z</time>
      </trkpt>
      <trkpt lat="44.97573" lon="3.21455">
        <ele>792.318</ele>
        <time>2015-07-26T17:33:30Z</time>
      </trkpt>
      <trkpt lat="44.97581" lon="3.2152">
        <ele>793.098</ele>
        <time>2015-07-26T17:33:50Z</time>
      </trkpt>
      <trkpt lat="44.97562" lon="3.21648">
        <ele>799.117</ele>
        <time>2015-07-26T17:34:10Z</time>
      </trkpt>
      <trkpt lat="44.97516" lon="3.21755">
        <ele>798.408</ele>
        <time>2015-07-26T17:34:30Z</time>
      </trkpt>
      <trkpt lat="44.97509" lon="3.21829">
        <ele>797.887</ele>
        <time>2015-07-26T17:34:50Z</time>
      </trkpt>
      <trkpt lat="44.97468" lon="3.21928">
        <ele>796.181</ele>
        <time>2015-07-26T17:35:10Z</time>
      </trkpt>
      <trkpt lat="44.97403" lon="3.22001">
        <ele>792.068</ele>
        <time>2015-07-26T17:35:30Z</time>
      </trkpt>
      <trkpt lat="44.97351" lon="3.22078">
        <ele>787.191</ele>
        <time>2015-07-26T17:35:50Z</time>
      </trkpt>
      <trkpt lat="44.97338" lon="3.2214">
        <ele>783.252</ele>
        <time>2015-07-26T17:36:10Z</time>
      </trkpt>
      <trkpt lat="44.97351" lon="3.22194">
        <ele>785.335</ele>
        <time>2015-07-26T17:36:30Z</time>
      </trkpt>
      <trkpt lat="44.97339" lon="3.22218">
        <ele>784.681</ele>
        <time>2015-07-26T17:36:50Z</time>
      </trkpt>
      <trkpt lat="44.97259" lon="3.22271">
        <ele>779.995</ele>
        <time>2015-07-26T17:37:10Z</time>
      </trkpt>
      <trkpt lat="44.97166" lon="3.22276">
        <ele>785.158</ele>
        <time>2015-07-26T17:37:30Z</time>
      </trkpt>
      <trkpt lat="44.97076" lon="3.22458">
        <ele>786.452</ele>
        <time>2015-07-26T17:37:50Z</time>
      </trkpt>
      <trkpt lat="44.96919" lon="3.22728">
        <ele>801.117</ele>
        <time>2015-07-26T17:38:10Z</time>
      </trkpt>
      <trkpt lat="44.96892" lon="3.22789">
        <ele>803.408</ele>
        <time>2015-07-26T17:38:30Z</time>
      </trkpt>
      <trkpt lat="44.96785" lon="3.22938">
        <ele>811.611</ele>
        <time>2015-07-26T17:38:50Z</time>
      </trkpt>
      <trkpt lat="44.96695" lon="3.23042">
        <ele>819.415</ele>
        <time>2015-07-26T17:39:10Z</time>
      </trkpt>
      <trkpt lat="44.96559" lon="3.23312">
        <ele>831.582</ele>
        <time>2015-07-26T17:39:30Z</time>
      </trkpt>
      <trkpt lat="44.96498" lon="3.23425">
        <ele>828.255</ele>
        <time>2015-07-26T17:39:50Z</time>
      </trkpt>
      <trkpt lat="44.96453" lon="3.2363">
        <ele>816.126</ele>
        <time>2015-07-26T17:40:10Z</time>
      </trkpt>
      <trkpt lat="44.96424" lon="3.23777">
        <ele>807.279</ele>
        <time>2015-07-26T17:40:30Z</time>
      </trkpt>
      <trkpt lat="44.96303" lon="3.23887">
        <ele>809.775</ele>
        <time>2015-07-26T17:40:50Z</time>
      </trkpt>
      <trkpt lat="44.96191" lon="3.2404">
        <ele>809.129</ele>
        <time>2015-07-26T17:41:10Z</time>
      </trkpt>
      <trkpt lat="44.96189" lon="3.24153">
        <ele>813.746</ele>
        <time>2015-07-26T17:41:30Z</time>
      </trkpt>
      <trkpt lat="44.96164" lon="3.24287">
        <ele>802.088</ele>
        <time>2015-07-26T17:41:50Z</time>
      </trkpt>
      <trkpt lat="44.96174" lon="3.2443">
        <ele>795.016</ele>
        <time>2015-07-26T17:42:10Z</time>
      </trkpt>
      <trkpt lat="44.96119" lon="3.24533">
        <ele>792.908</ele>
        <time>2015-07-26T17:42:30Z</time>
      </trkpt>
      <trkpt lat="44.96118" lon="3.2466">
        <ele>807.22</ele>
        <time>2015-07-26T17:42:50Z</time>
      </trkpt>
      <trkpt lat="44.96031" lon="3.24636">
        <ele>810.064</ele>
        <time>2015-07-26T17:43:10Z</time>
      </trkpt>
      <trkpt lat="44.95968" lon="3.2458">
        <ele>812.741</ele>
        <time>2020-02-15T20:52:49Z</time>
      </trkpt>
      <trkpt lat="44.95906" lon="3.24583">
        <ele>814.624</ele>
        <time>2020-02-15T20:53:09Z</time>
      </trkpt>
      <trkpt lat="44.95864" lon="3.24618">
        <ele>810.335</ele>
        <time>2020-02-15T20:53:29Z</time>
      </trkpt>
      <trkpt lat="44.95832" lon="3.24692">
        <ele>810.718</ele>
        <time>2015-07-26T17:44:30Z</time>
      </trkpt>
      <trkpt lat="44.9571" lon="3.24679">
        <ele>795.744</ele>
        <time>2015-07-26T17:44:50Z</time>
      </trkpt>
      <trkpt lat="44.95697" lon="3.24699">
        <ele>794.498</ele>
        <time>2015-07-26T17:45:10Z</time>
      </trkpt>
      <trkpt lat="44.95514" lon="3.24635">
        <ele>791.177</ele>
        <time>2015-07-26T17:45:30Z</time>
      </trkpt>
      <trkpt lat="44.9549" lon="3.24602">
        <ele>798.461</ele>
        <time>2020-02-15T20:55:09Z</time>
      </trkpt>
      <trkpt lat="44.95428" lon="3.24632">
        <ele>802.427</ele>
        <time>2015-07-26T17:46:10Z</time>
      </trkpt>
      <trkpt lat="44.95139" lon="3.24657">
        <ele>822.708</ele>
        <time>2015-07-26T17:46:30Z</time>
      </trkpt>
      <trkpt lat="44.94981" lon="3.24698">
        <ele>831.033</ele>
        <time>2015-07-26T17:46:50Z</time>
      </trkpt>
      <trkpt lat="44.94916" lon="3.24702">
        <ele>836.327</ele>
        <time>2020-02-15T20:56:29Z</time>
      </trkpt>
      <trkpt lat="44.94769" lon="3.24758">
        <ele>845.564</ele>
        <time>2015-07-26T17:47:30Z</time>
      </trkpt>
      <trkpt lat="44.94764" lon="3.24925">
        <ele>842.877</ele>
        <time>2015-07-26T17:47:50Z</time>
      </trkpt>
      <trkpt lat="44.94727" lon="3.24867">
        <ele>844.778</ele>
        <time>2015-07-26T17:48:10Z</time>
      </trkpt>
      <trkpt lat="44.94678" lon="3.24913">
        <ele>842.791</ele>
        <time>2015-07-26T17:48:30Z</time>
      </trkpt>
      <trkpt lat="44.94666" lon="3.25025">
        <ele>840.937</ele>
        <time>2015-07-26T17:48:50Z</time>
      </trkpt>
      <trkpt lat="44.94646" lon="3.25043">
        <ele>838.091</ele>
        <time>2015-07-26T17:49:10Z</time>
      </trkpt>
      <trkpt lat="44.94566" lon="3.25082">
        <ele>829.452</ele>
        <time>2015-07-26T17:49:30Z</time>
      </trkpt>
      <trkpt lat="44.9449" lon="3.25067">
        <ele>824.153</ele>
        <time>2015-07-26T17:49:50Z</time>
      </trkpt>
      <trkpt lat="44.94377" lon="3.25056">
        <ele>817.108</ele>
        <time>2015-07-26T17:50:10Z</time>
      </trkpt>
      <trkpt lat="44.94338" lon="3.25025">
        <ele>807.708</ele>
        <time>2015-07-26T17:50:30Z</time>
      </trkpt>
      <trkpt lat="44.94311" lon="3.2499">
        <ele>800.821</ele>
        <time>2015-07-26T17:50:50Z</time>
      </trkpt>
      <trkpt lat="44.9426" lon="3.24977">
        <ele>796.945</ele>
        <time>2015-07-26T17:51:10Z</time>
      </trkpt>
      <trkpt lat="44.94154" lon="3.25">
        <ele>787.272</ele>
        <time>2015-07-26T17:51:30Z</time>
      </trkpt>
      <trkpt lat="44.94098" lon="3.24997">
        <ele>770.825</ele>
        <time>2015-07-26T17:51:50Z</time>
      </trkpt>
      <trkpt lat="44.9405" lon="3.25017">
        <ele>760.476</ele>
        <time>2015-07-26T17:52:10Z</time>
      </trkpt>
      <trkpt lat="44.94002" lon="3.2502">
        <ele>752.789</ele>
        <time>2015-07-26T17:52:30Z</time>
      </trkpt>
      <trkpt lat="44.9397" lon="3.25071">
        <ele>756.115</ele>
        <time>2015-07-26T17:52:50Z</time>
      </trkpt>
      <trkpt lat="44.93946" lon="3.25085">
        <ele>756.469</ele>
        <time>2015-07-26T17:53:10Z</time>
      </trkpt>
      <trkpt lat="44.9394" lon="3.25111">
        <ele>758.773</ele>
        <time>2015-07-26T17:53:30Z</time>
      </trkpt>
      <trkpt lat="44.93968" lon="3.25123">
        <ele>764.785</ele>
        <time>2015-07-26T17:53:50Z</time>
      </trkpt>
      <trkpt lat="44.93916" lon="3.25202">
        <ele>784.613</ele>
        <time>2015-07-26T17:54:10Z</time>
      </trkpt>
      <trkpt lat="44.93979" lon="3.2523">
        <ele>799.208</ele>
        <time>2015-07-26T17:54:30Z</time>
      </trkpt>
      <trkpt lat="44.93731" lon="3.25369">
        <ele>849.343</ele>
        <time>2015-07-26T17:54:50Z</time>
      </trkpt>
      <trkpt lat="44.93648" lon="3.25438">
        <ele>878.327</ele>
        <time>2015-07-26T17:55:10Z</time>
      </trkpt>
      <trkpt lat="44.93624" lon="3.25398">
        <ele>874.654</ele>
        <time>2015-07-26T17:55:30Z</time>
      </trkpt>
      <trkpt lat="44.93549" lon="3.25409">
        <ele>883.627</ele>
        <time>2015-07-26T17:55:50Z</time>
      </trkpt>
      <trkpt lat="44.93505" lon="3.25383">
        <ele>886.818</ele>
        <time>2015-07-26T17:56:10Z</time>
      </trkpt>
      <trkpt lat="44.93465" lon="3.25395">
        <ele>893.961</ele>
        <time>2015-07-26T17:56:30Z</time>
      </trkpt>
      <trkpt lat="44.93444" lon="3.25387">
        <ele>896.467</ele>
        <time>2015-07-26T17:56:50Z</time>
      </trkpt>
      <trkpt lat="44.93403" lon="3.25411">
        <ele>900.761</ele>
        <time>2015-07-26T17:57:10Z</time>
      </trkpt>
      <trkpt lat="44.93411" lon="3.25475">
        <ele>899.741</ele>
        <time>2015-07-26T17:57:30Z</time>
      </trkpt>
      <trkpt lat="44.93372" lon="3.25397">
        <ele>898.481</ele>
        <time>2015-07-26T17:57:50Z</time>
      </trkpt>
      <trkpt lat="44.93242" lon="3.25516">
        <ele>888.709</ele>
        <time>2015-07-26T17:58:10Z</time>
      </trkpt>
      <trkpt lat="44.93195" lon="3.25634">
        <ele>887.908</ele>
        <time>2015-07-26T17:58:30Z</time>
      </trkpt>
      <trkpt lat="44.93137" lon="3.25699">
        <ele>886.52</ele>
        <time>2020-02-15T21:08:09Z</time>
      </trkpt>
      <trkpt lat="44.92945" lon="3.2586">
        <ele>892.914</ele>
        <time>2015-07-26T17:58:50Z</time>
      </trkpt>
      <trkpt lat="44.92907" lon="3.25858">
        <ele>896.591</ele>
        <time>2015-07-26T17:59:10Z</time>
      </trkpt>
      <trkpt lat="44.92826" lon="3.25815">
        <ele>895.714</ele>
        <time>2015-07-26T17:59:30Z</time>
      </trkpt>
      <trkpt lat="44.92657" lon="3.25807">
        <ele>883.115</ele>
        <time>2015-07-26T17:59:50Z</time>
      </trkpt>
      <trkpt lat="44.92581" lon="3.25869">
        <ele>878.828</ele>
        <time>2015-07-26T18:00:10Z</time>
      </trkpt>
      <trkpt lat="44.92556" lon="3.25919">
        <ele>880.214</ele>
        <time>2015-07-26T18:00:30Z</time>
      </trkpt>
      <trkpt lat="44.92489" lon="3.25947">
        <ele>876.928</ele>
        <time>2015-07-26T18:00:50Z</time>
      </trkpt>
      <trkpt lat="44.92449" lon="3.25935">
        <ele>881.114</ele>
        <time>2015-07-26T18:01:10Z</time>
      </trkpt>
      <trkpt lat="44.92411" lon="3.25954">
        <ele>885.354</ele>
        <time>2015-07-26T18:01:30Z</time>
      </trkpt>
      <trkpt lat="44.92337" lon="3.25964">
        <ele>886.709</ele>
        <time>2015-07-26T18:01:50Z</time>
      </trkpt>
      <trkpt lat="44.92188" lon="3.25874">
        <ele>901.808</ele>
        <time>2015-07-26T18:02:10Z</time>
      </trkpt>
      <trkpt lat="44.92114" lon="3.25884">
        <ele>905.887</ele>
        <time>2015-07-26T18:02:30Z</time>
      </trkpt>
      <trkpt lat="44.92079" lon="3.2592">
        <ele>906.361</ele>
        <time>2015-07-26T18:02:50Z</time>
      </trkpt>
      <trkpt lat="44.92064" lon="3.2596">
        <ele>905.528</ele>
        <time>2015-07-26T18:03:10Z</time>
      </trkpt>
      <trkpt lat="44.92057" lon="3.26041">
        <ele>905.961</ele>
        <time>2015-07-26T18:03:30Z</time>
      </trkpt>
      <trkpt lat="44.92067" lon="3.26109">
        <ele>905.572</ele>
        <time>2015-07-26T18:03:50Z</time>
      </trkpt>
      <trkpt lat="44.92" lon="3.26178">
        <ele>912.235</ele>
        <time>2015-07-26T18:04:10Z</time>
      </trkpt>
      <trkpt lat="44.92017" lon="3.26236">
        <ele>919.711</ele>
        <time>2015-07-26T18:04:30Z</time>
      </trkpt>
      <trkpt lat="44.92017" lon="3.26301">
        <ele>927.625</ele>
        <time>2015-07-26T18:04:50Z</time>
      </trkpt>
      <trkpt lat="44.91997" lon="3.26376">
        <ele>934.736</ele>
        <time>2015-07-26T18:05:10Z</time>
      </trkpt>
      <trkpt lat="44.91942" lon="3.26461">
        <ele>946.717</ele>
        <time>2015-07-26T18:05:30Z</time>
      </trkpt>
      <trkpt lat="44.91937" lon="3.26504">
        <ele>953.718</ele>
        <time>2015-07-26T18:05:50Z</time>
      </trkpt>
      <trkpt lat="44.919" lon="3.26565">
        <ele>967.908</ele>
        <time>2015-07-26T18:06:10Z</time>
      </trkpt>
      <trkpt lat="44.91836" lon="3.26624">
        <ele>973.729</ele>
        <time>2015-07-26T18:06:30Z</time>
      </trkpt>
      <trkpt lat="44.91813" lon="3.26708">
        <ele>981.873</ele>
        <time>2015-07-26T18:06:50Z</time>
      </trkpt>
      <trkpt lat="44.91785" lon="3.26762">
        <ele>986.13</ele>
        <time>2015-07-26T18:07:10Z</time>
      </trkpt>
      <trkpt lat="44.91794" lon="3.26828">
        <ele>990.613</ele>
        <time>2015-07-26T18:07:30Z</time>
      </trkpt>
      <trkpt lat="44.91745" lon="3.2694">
        <ele>996.534</ele>
        <time>2015-07-26T18:07:50Z</time>
      </trkpt>
      <trkpt lat="44.91734" lon="3.26981">
        <ele>997.097</ele>
        <time>2015-07-26T18:08:10Z</time>
      </trkpt>
      <trkpt lat="44.91711" lon="3.26995">
        <ele>994.373</ele>
        <time>2020-02-15T21:18:09Z</time>
      </trkpt>
      <trkpt lat="44.91656" lon="3.27088">
        <ele>998.217</ele>
        <time>2020-02-15T21:18:29Z</time>
      </trkpt>
      <trkpt lat="44.91635" lon="3.27145">
        <ele>998.942</ele>
        <time>2015-07-26T18:08:50Z</time>
      </trkpt>
      <trkpt lat="44.91572" lon="3.27232">
        <ele>1003.722</ele>
        <time>2015-07-26T18:09:10Z</time>
      </trkpt>
      <trkpt lat="44.91502" lon="3.27396">
        <ele>1011.214</ele>
        <time>2015-07-26T18:09:30Z</time>
      </trkpt>
      <trkpt lat="44.91449" lon="3.27467">
        <ele>1011.108</ele>
        <time>2015-07-26T18:09:50Z</time>
      </trkpt>
      <trkpt lat="44.91393" lon="3.27583">
        <ele>1012.08</ele>
        <time>2015-07-26T18:10:10Z</time>
      </trkpt>
      <trkpt lat="44.91366" lon="3.27675">
        <ele>1014.324</ele>
        <time>2020-02-15T21:20:29Z</time>
      </trkpt>
      <trkpt lat="44.91357" lon="3.2778">
        <ele>1013.041</ele>
        <time>2020-02-15T21:20:49Z</time>
      </trkpt>
      <trkpt lat="44.91316" lon="3.27895">
        <ele>1011.644</ele>
        <time>2020-02-15T21:21:09Z</time>
      </trkpt>
      <trkpt lat="44.9127" lon="3.27977">
        <ele>1012.085</ele>
        <time>2020-02-15T21:21:29Z</time>
      </trkpt>
      <trkpt lat="44.91226" lon="3.28083">
        <ele>1010.278</ele>
        <time>2015-07-26T18:11:10Z</time>
      </trkpt>
      <trkpt lat="44.91152" lon="3.2819">
        <ele>1007.884</ele>
        <time>2015-07-26T18:11:30Z</time>
      </trkpt>
      <trkpt lat="44.91085" lon="3.28239">
        <ele>1010.058</ele>
        <time>2015-07-26T18:11:50Z</time>
      </trkpt>
      <trkpt lat="44.90929" lon="3.28462">
        <ele>1009.089</ele>
        <time>2015-07-26T18:12:10Z</time>
      </trkpt>
      <trkpt lat="44.9094" lon="3.28581">
        <ele>1010.806</ele>
        <time>2015-07-26T18:12:30Z</time>
      </trkpt>
      <trkpt lat="44.90814" lon="3.28592">
        <ele>1009.626</ele>
        <time>2015-07-26T18:12:50Z</time>
      </trkpt>
      <trkpt lat="44.90715" lon="3.2863">
        <ele>1007.808</ele>
        <time>2015-07-26T18:13:10Z</time>
      </trkpt>
      <trkpt lat="44.90599" lon="3.28791">
        <ele>1006.484</ele>
        <time>2015-07-26T18:13:30Z</time>
      </trkpt>
      <trkpt lat="44.90416" lon="3.28986">
        <ele>1004.558</ele>
        <time>2015-07-26T18:13:50Z</time>
      </trkpt>
      <trkpt lat="44.90218" lon="3.29157">
        <ele>997.645</ele>
        <time>2015-07-26T18:14:10Z</time>
      </trkpt>
      <trkpt lat="44.90171" lon="3.29207">
        <ele>990.678</ele>
        <time>2015-07-26T18:14:30Z</time>
      </trkpt>
      <trkpt lat="44.90099" lon="3.2926">
        <ele>983.319</ele>
        <time>2015-07-26T18:14:50Z</time>
      </trkpt>
      <trkpt lat="44.9008" lon="3.2929">
        <ele>975.682</ele>
        <time>2015-07-26T18:15:10Z</time>
      </trkpt>
      <trkpt lat="44.90053" lon="3.29306">
        <ele>972.668</ele>
        <time>2015-07-26T18:15:30Z</time>
      </trkpt>
      <trkpt lat="44.90046" lon="3.29332">
        <ele>966.292</ele>
        <time>2015-07-26T18:15:50Z</time>
      </trkpt>
      <trkpt lat="44.89966" lon="3.29352">
        <ele>958.088</ele>
        <time>2015-07-26T18:16:10Z</time>
      </trkpt>
      <trkpt lat="44.89934" lon="3.2939">
        <ele>950.124</ele>
        <time>2015-07-26T18:16:30Z</time>
      </trkpt>
      <trkpt lat="44.89925" lon="3.29428">
        <ele>944.726</ele>
        <time>2015-07-26T18:16:50Z</time>
      </trkpt>
      <trkpt lat="44.89934" lon="3.29477">
        <ele>938.708</ele>
        <time>2015-07-26T18:17:10Z</time>
      </trkpt>
      <trkpt lat="44.89918" lon="3.29621">
        <ele>924.314</ele>
        <time>2015-07-26T18:17:30Z</time>
      </trkpt>
      <trkpt lat="44.8988" lon="3.29685">
        <ele>918.388</ele>
        <time>2015-07-26T18:17:50Z</time>
      </trkpt>
      <trkpt lat="44.89863" lon="3.29761">
        <ele>909.935</ele>
        <time>2015-07-26T18:18:10Z</time>
      </trkpt>
      <trkpt lat="44.8988" lon="3.29799">
        <ele>902.328</ele>
        <time>2015-07-26T18:18:30Z</time>
      </trkpt>
      <trkpt lat="44.89868" lon="3.2989">
        <ele>889.419</ele>
        <time>2015-07-26T18:18:50Z</time>
      </trkpt>
      <trkpt lat="44.8987" lon="3.30002">
        <ele>879.752</ele>
        <time>2015-07-26T18:19:10Z</time>
      </trkpt>
      <trkpt lat="44.89806" lon="3.30222">
        <ele>873.098</ele>
        <time>2015-07-26T18:19:30Z</time>
      </trkpt>
      <trkpt lat="44.8965" lon="3.30471">
        <ele>880.312</ele>
        <time>2015-07-26T18:19:50Z</time>
      </trkpt>
      <trkpt lat="44.89586" lon="3.30595">
        <ele>871.266</ele>
        <time>2015-07-26T18:20:10Z</time>
      </trkpt>
      <trkpt lat="44.89555" lon="3.30609">
        <ele>867.929</ele>
        <time>2015-07-26T18:20:30Z</time>
      </trkpt>
      <trkpt lat="44.8954" lon="3.3063">
        <ele>869.521</ele>
        <time>2015-07-26T18:20:50Z</time>
      </trkpt>
      <trkpt lat="44.89458" lon="3.30659">
        <ele>866.308</ele>
        <time>2020-02-15T21:31:49Z</time>
      </trkpt>
      <trkpt lat="44.89317" lon="3.30654">
        <ele>851.712</ele>
        <time>2015-07-26T18:21:30Z</time>
      </trkpt>
      <trkpt lat="44.89245" lon="3.3071">
        <ele>848.596</ele>
        <time>2015-07-26T18:21:50Z</time>
      </trkpt>
      <trkpt lat="44.89215" lon="3.30788">
        <ele>844.393</ele>
        <time>2015-07-26T18:22:10Z</time>
      </trkpt>
      <trkpt lat="44.89131" lon="3.30777">
        <ele>836.266</ele>
        <time>2015-07-26T18:22:30Z</time>
      </trkpt>
      <trkpt lat="44.89056" lon="3.30881">
        <ele>831.087</ele>
        <time>2015-07-26T18:22:50Z</time>
      </trkpt>
      <trkpt lat="44.88826" lon="3.31013">
        <ele>837.09</ele>
        <time>2015-07-26T18:23:10Z</time>
      </trkpt>
      <trkpt lat="44.88792" lon="3.31009">
        <ele>833.516</ele>
        <time>2015-07-26T18:23:30Z</time>
      </trkpt>
      <trkpt lat="44.88755" lon="3.30961">
        <ele>832.52</ele>
        <time>2015-07-26T18:23:50Z</time>
      </trkpt>
      <trkpt lat="44.88724" lon="3.30947">
        <ele>833.823</ele>
        <time>2015-07-26T18:24:10Z</time>
      </trkpt>
      <trkpt lat="44.88689" lon="3.30956">
        <ele>836.383</ele>
        <time>2015-07-26T18:24:30Z</time>
      </trkpt>
      <trkpt lat="44.88649" lon="3.30982">
        <ele>836.911</ele>
        <time>2015-07-26T18:24:50Z</time>
      </trkpt>
      <trkpt lat="44.88581" lon="3.30948">
        <ele>833.508</ele>
        <time>2015-07-26T18:25:10Z</time>
      </trkpt>
      <trkpt lat="44.88522" lon="3.3102">
        <ele>835.458</ele>
        <time>2020-02-15T21:36:09Z</time>
      </trkpt>
      <trkpt lat="44.88464" lon="3.31068">
        <ele>839.832</ele>
        <time>2015-07-26T18:25:30Z</time>
      </trkpt>
      <trkpt lat="44.8847" lon="3.31119">
        <ele>836.749</ele>
        <time>2015-07-26T18:25:50Z</time>
      </trkpt>
      <trkpt lat="44.88459" lon="3.31139">
        <ele>835.592</ele>
        <time>2015-07-26T18:26:10Z</time>
      </trkpt>
      <trkpt lat="44.88391" lon="3.31186">
        <ele>834.133</ele>
        <time>2015-07-26T18:26:30Z</time>
      </trkpt>
      <trkpt lat="44.88307" lon="3.31199">
        <ele>834.786</ele>
        <time>2020-02-15T21:37:49Z</time>
      </trkpt>
      <trkpt lat="44.88255" lon="3.31184">
        <ele>832.482</ele>
        <time>2015-07-26T18:27:10Z</time>
      </trkpt>
      <trkpt lat="44.88217" lon="3.31138">
        <ele>833.126</ele>
        <time>2015-07-26T18:27:30Z</time>
      </trkpt>
      <trkpt lat="44.88191" lon="3.31075">
        <ele>837.311</ele>
        <time>2015-07-26T18:27:50Z</time>
      </trkpt>
      <trkpt lat="44.88178" lon="3.31005">
        <ele>842.821</ele>
        <time>2015-07-26T18:28:10Z</time>
      </trkpt>
      <trkpt lat="44.88159" lon="3.30987">
        <ele>844.503</ele>
        <time>2015-07-26T18:28:30Z</time>
      </trkpt>
      <trkpt lat="44.88115" lon="3.30978">
        <ele>849.408</ele>
        <time>2015-07-26T18:28:50Z</time>
      </trkpt>
      <trkpt lat="44.88066" lon="3.30923">
        <ele>864.477</ele>
        <time>2015-07-26T18:29:10Z</time>
      </trkpt>
      <trkpt lat="44.88023" lon="3.30819">
        <ele>885.991</ele>
        <time>2015-07-26T18:29:30Z</time>
      </trkpt>
      <trkpt lat="44.88004" lon="3.30719">
        <ele>890.558</ele>
        <time>2015-07-26T18:29:50Z</time>
      </trkpt>
      <trkpt lat="44.87923" lon="3.30671">
        <ele>903.761</ele>
        <time>2015-07-26T18:30:10Z</time>
      </trkpt>
      <trkpt lat="44.87888" lon="3.307">
        <ele>908.362</ele>
        <time>2015-07-26T18:30:30Z</time>
      </trkpt>
      <trkpt lat="44.87863" lon="3.30745">
        <ele>910.975</ele>
        <time>2015-07-26T18:30:50Z</time>
      </trkpt>
      <trkpt lat="44.87833" lon="3.30756">
        <ele>911.651</ele>
        <time>2015-07-26T18:31:10Z</time>
      </trkpt>
      <trkpt lat="44.87775" lon="3.30734">
        <ele>911.235</ele>
        <time>2015-07-26T18:31:30Z</time>
      </trkpt>
      <trkpt lat="44.87716" lon="3.30811">
        <ele>910.642</ele>
        <time>2015-07-26T18:31:50Z</time>
      </trkpt>
      <trkpt lat="44.87666" lon="3.30834">
        <ele>908.922</ele>
        <time>2015-07-26T18:32:10Z</time>
      </trkpt>
      <trkpt lat="44.87617" lon="3.30825">
        <ele>914.814</ele>
        <time>2015-07-26T18:32:30Z</time>
      </trkpt>
      <trkpt lat="44.87595" lon="3.30856">
        <ele>910.608</ele>
        <time>2015-07-26T18:32:50Z</time>
      </trkpt>
      <trkpt lat="44.87582" lon="3.30934">
        <ele>910.29</ele>
        <time>2015-07-26T18:33:10Z</time>
      </trkpt>
      <trkpt lat="44.87482" lon="3.30963">
        <ele>909.974</ele>
        <time>2015-07-26T18:33:30Z</time>
      </trkpt>
      <trkpt lat="44.87376" lon="3.30921">
        <ele>919.621</ele>
        <time>2015-07-26T18:33:50Z</time>
      </trkpt>
      <trkpt lat="44.87326" lon="3.30923">
        <ele>916.524</ele>
        <time>2015-07-26T18:34:10Z</time>
      </trkpt>
      <trkpt lat="44.87265" lon="3.30895">
        <ele>916.875</ele>
        <time>2015-07-26T18:34:30Z</time>
      </trkpt>
      <trkpt lat="44.87161" lon="3.30899">
        <ele>911.578</ele>
        <time>2015-07-26T18:34:50Z</time>
      </trkpt>
      <trkpt lat="44.87136" lon="3.30921">
        <ele>912.034</ele>
        <time>2015-07-26T18:35:10Z</time>
      </trkpt>
      <trkpt lat="44.87103" lon="3.30986">
        <ele>907.658</ele>
        <time>2015-07-26T18:35:30Z</time>
      </trkpt>
      <trkpt lat="44.87077" lon="3.30988">
        <ele>905.929</ele>
        <time>2015-07-26T18:35:50Z</time>
      </trkpt>
      <trkpt lat="44.87033" lon="3.30973">
        <ele>906.1</ele>
        <time>2015-07-26T18:36:10Z</time>
      </trkpt>
      <trkpt lat="44.87012" lon="3.31084">
        <ele>904.52</ele>
        <time>2015-07-26T18:36:30Z</time>
      </trkpt>
      <trkpt lat="44.87012" lon="3.31138">
        <ele>902.308</ele>
        <time>2015-07-26T18:36:50Z</time>
      </trkpt>
      <trkpt lat="44.86966" lon="3.31144">
        <ele>908.168</ele>
        <time>2015-07-26T18:37:10Z</time>
      </trkpt>
      <trkpt lat="44.86923" lon="3.31185">
        <ele>904.682</ele>
        <time>2015-07-26T18:37:30Z</time>
      </trkpt>
      <trkpt lat="44.86833" lon="3.31211">
        <ele>908.789</ele>
        <time>2015-07-26T18:37:50Z</time>
      </trkpt>
      <trkpt lat="44.86807" lon="3.31268">
        <ele>904.252</ele>
        <time>2015-07-26T18:38:10Z</time>
      </trkpt>
      <trkpt lat="44.86782" lon="3.31275">
        <ele>901.033</ele>
        <time>2015-07-26T18:38:30Z</time>
      </trkpt>
      <trkpt lat="44.86767" lon="3.31246">
        <ele>906.586</ele>
        <time>2015-07-26T18:38:50Z</time>
      </trkpt>
      <trkpt lat="44.86729" lon="3.31243">
        <ele>910.282</ele>
        <time>2015-07-26T18:39:10Z</time>
      </trkpt>
      <trkpt lat="44.86707" lon="3.31296">
        <ele>902.556</ele>
        <time>2015-07-26T18:39:30Z</time>
      </trkpt>
      <trkpt lat="44.86642" lon="3.31326">
        <ele>901.624</ele>
        <time>2015-07-26T18:39:50Z</time>
      </trkpt>
      <trkpt lat="44.86623" lon="3.31343">
        <ele>898.504</ele>
        <time>2015-07-26T18:40:10Z</time>
      </trkpt>
      <trkpt lat="44.86557" lon="3.31367">
        <ele>896.314</ele>
        <time>2015-07-26T18:40:30Z</time>
      </trkpt>
      <trkpt lat="44.86517" lon="3.31394">
        <ele>890.908</ele>
        <time>2015-07-26T18:40:50Z</time>
      </trkpt>
      <trkpt lat="44.86495" lon="3.31393">
        <ele>893.238</ele>
        <time>2020-02-15T21:52:09Z</time>
      </trkpt>
      <trkpt lat="44.86474" lon="3.31401">
        <ele>893.212</ele>
        <time>2020-02-15T21:52:29Z</time>
      </trkpt>
      <trkpt lat="44.86466" lon="3.31459">
        <ele>880.519</ele>
        <time>2020-02-15T21:52:49Z</time>
      </trkpt>
      <trkpt lat="44.86421" lon="3.31497">
        <ele>881.272</ele>
        <time>2020-02-15T21:53:09Z</time>
      </trkpt>
      <trkpt lat="44.86383" lon="3.3151">
        <ele>882.983</ele>
        <time>2020-02-15T21:53:29Z</time>
      </trkpt>
      <trkpt lat="44.86364" lon="3.31502">
        <ele>885.456</ele>
        <time>2020-02-15T21:53:49Z</time>
      </trkpt>
      <trkpt lat="44.86359" lon="3.31532">
        <ele>882.722</ele>
        <time>2020-02-15T21:54:09Z</time>
      </trkpt>
      <trkpt lat="44.8633" lon="3.31527">
        <ele>885.456</ele>
        <time>2020-02-15T21:54:29Z</time>
      </trkpt>
      <trkpt lat="44.86299" lon="3.31566">
        <ele>893.138</ele>
        <time>2020-02-15T21:54:49Z</time>
      </trkpt>
      <trkpt lat="44.86255" lon="3.31587">
        <ele>900.77</ele>
        <time>2020-02-15T21:55:09Z</time>
      </trkpt>
      <trkpt lat="44.86241" lon="3.31599">
        <ele>905.917</ele>
        <time>2020-02-15T21:55:29Z</time>
      </trkpt>
      <trkpt lat="44.86225" lon="3.31598">
        <ele>907.308</ele>
        <time>2020-02-15T21:55:49Z</time>
      </trkpt>
      <trkpt lat="44.86203" lon="3.31608">
        <ele>910.989</ele>
        <time>2020-02-15T21:56:09Z</time>
      </trkpt>
      <trkpt lat="44.86171" lon="3.31638">
        <ele>917.823</ele>
        <time>2015-07-26T18:42:50Z</time>
      </trkpt>
      <trkpt lat="44.8612" lon="3.31651">
        <ele>920.16</ele>
        <time>2015-07-26T18:43:10Z</time>
      </trkpt>
      <trkpt lat="44.86074" lon="3.31676">
        <ele>923.973</ele>
        <time>2015-07-26T18:43:30Z</time>
      </trkpt>
      <trkpt lat="44.86065" lon="3.31701">
        <ele>928.514</ele>
        <time>2020-02-15T21:57:29Z</time>
      </trkpt>
      <trkpt lat="44.86077" lon="3.31733">
        <ele>933.277</ele>
        <time>2015-07-26T18:44:10Z</time>
      </trkpt>
      <trkpt lat="44.8612" lon="3.31769">
        <ele>936.943</ele>
        <time>2015-07-26T18:44:30Z</time>
      </trkpt>
      <trkpt lat="44.86125" lon="3.31794">
        <ele>939.147</ele>
        <time>2015-07-26T18:44:50Z</time>
      </trkpt>
      <trkpt lat="44.8611" lon="3.31824">
        <ele>938.984</ele>
        <time>2015-07-26T18:45:10Z</time>
      </trkpt>
      <trkpt lat="44.86009" lon="3.31867">
        <ele>947.307</ele>
        <time>2015-07-26T18:45:30Z</time>
      </trkpt>
      <trkpt lat="44.85901" lon="3.31896">
        <ele>946.417</ele>
        <time>2015-07-26T18:45:50Z</time>
      </trkpt>
      <trkpt lat="44.85814" lon="3.31947">
        <ele>941.908</ele>
        <time>2015-07-26T18:46:10Z</time>
      </trkpt>
      <trkpt lat="44.85809" lon="3.32003">
        <ele>942.224</ele>
        <time>2015-07-26T18:46:30Z</time>
      </trkpt>
      <trkpt lat="44.85767" lon="3.32167">
        <ele>936.678</ele>
        <time>2015-07-26T18:46:50Z</time>
      </trkpt>
      <trkpt lat="44.8571" lon="3.32263">
        <ele>932.955</ele>
        <time>2015-07-26T18:47:10Z</time>
      </trkpt>
      <trkpt lat="44.85602" lon="3.32317">
        <ele>927.378</ele>
        <time>2015-07-26T18:47:30Z</time>
      </trkpt>
      <trkpt lat="44.85525" lon="3.32326">
        <ele>925.899</ele>
        <time>2015-07-26T18:47:50Z</time>
      </trkpt>
      <trkpt lat="44.85488" lon="3.3241">
        <ele>915.952</ele>
        <time>2015-07-26T18:48:10Z</time>
      </trkpt>
      <trkpt lat="44.85429" lon="3.32469">
        <ele>912.958</ele>
        <time>2015-07-26T18:48:30Z</time>
      </trkpt>
      <trkpt lat="44.85388" lon="3.32477">
        <ele>915.812</ele>
        <time>2015-07-26T18:48:50Z</time>
      </trkpt>
      <trkpt lat="44.85356" lon="3.32523">
        <ele>910.565</ele>
        <time>2015-07-26T18:49:10Z</time>
      </trkpt>
      <trkpt lat="44.85351" lon="3.32574">
        <ele>903.168</ele>
        <time>2015-07-26T18:49:30Z</time>
      </trkpt>
      <trkpt lat="44.85364" lon="3.3259">
        <ele>895.714</ele>
        <time>2015-07-26T18:49:50Z</time>
      </trkpt>
      <trkpt lat="44.85366" lon="3.32619">
        <ele>889.308</ele>
        <time>2015-07-26T18:50:10Z</time>
      </trkpt>
      <trkpt lat="44.85393" lon="3.32604">
        <ele>882.552</ele>
        <time>2015-07-26T18:50:30Z</time>
      </trkpt>
      <trkpt lat="44.85364" lon="3.32672">
        <ele>878.376</ele>
        <time>2020-02-15T22:04:29Z</time>
      </trkpt>
      <trkpt lat="44.85426" lon="3.32701">
        <ele>858.643</ele>
        <time>2015-07-26T18:51:10Z</time>
      </trkpt>
      <trkpt lat="44.85444" lon="3.32736">
        <ele>859.056</ele>
        <time>2015-07-26T18:51:30Z</time>
      </trkpt>
      <trkpt lat="44.85456" lon="3.32817">
        <ele>858.657</ele>
        <time>2015-07-26T18:51:50Z</time>
      </trkpt>
      <trkpt lat="44.85447" lon="3.32868">
        <ele>859.14</ele>
        <time>2015-07-26T18:52:10Z</time>
      </trkpt>
      <trkpt lat="44.85457" lon="3.33042">
        <ele>862.216</ele>
        <time>2015-07-26T18:52:30Z</time>
      </trkpt>
      <trkpt lat="44.85489" lon="3.33114">
        <ele>863.56</ele>
        <time>2015-07-26T18:52:50Z</time>
      </trkpt>
      <trkpt lat="44.8555" lon="3.33209">
        <ele>867.085</ele>
        <time>2015-07-26T18:53:10Z</time>
      </trkpt>
      <trkpt lat="44.85572" lon="3.33223">
        <ele>868.189</ele>
        <time>2015-07-26T18:53:30Z</time>
      </trkpt>
      <trkpt lat="44.85621" lon="3.33383">
        <ele>866.817</ele>
        <time>2015-07-26T18:53:50Z</time>
      </trkpt>
      <trkpt lat="44.85633" lon="3.33457">
        <ele>866.908</ele>
        <time>2015-07-26T18:54:10Z</time>
      </trkpt>
      <trkpt lat="44.85672" lon="3.33504">
        <ele>872.554</ele>
        <time>2015-07-26T18:54:30Z</time>
      </trkpt>
      <trkpt lat="44.85707" lon="3.33613">
        <ele>876.658</ele>
        <time>2015-07-26T18:54:50Z</time>
      </trkpt>
      <trkpt lat="44.85774" lon="3.33783">
        <ele>885.325</ele>
        <time>2015-07-26T18:55:10Z</time>
      </trkpt>
      <trkpt lat="44.85805" lon="3.33823">
        <ele>889.268</ele>
        <time>2015-07-26T18:55:30Z</time>
      </trkpt>
      <trkpt lat="44.85841" lon="3.33991">
        <ele>899.329</ele>
        <time>2015-07-26T18:55:50Z</time>
      </trkpt>
      <trkpt lat="44.8586" lon="3.34171">
        <ele>917.742</ele>
        <time>2015-07-26T18:56:10Z</time>
      </trkpt>
      <trkpt lat="44.85894" lon="3.34246">
        <ele>924.338</ele>
        <time>2015-07-26T18:56:30Z</time>
      </trkpt>
      <trkpt lat="44.86031" lon="3.3447">
        <ele>938.762</ele>
        <time>2015-07-26T18:56:50Z</time>
      </trkpt>
      <trkpt lat="44.86073" lon="3.34509">
        <ele>940.889</ele>
        <time>2015-07-26T18:57:10Z</time>
      </trkpt>
      <trkpt lat="44.86139" lon="3.34606">
        <ele>943.406</ele>
        <time>2015-07-26T18:57:30Z</time>
      </trkpt>
      <trkpt lat="44.86284" lon="3.34686">
        <ele>939.026</ele>
        <time>2015-07-26T18:57:50Z</time>
      </trkpt>
      <trkpt lat="44.86405" lon="3.34794">
        <ele>940.508</ele>
        <time>2015-07-26T18:58:10Z</time>
      </trkpt>
      <trkpt lat="44.86625" lon="3.3514">
        <ele>939.544</ele>
        <time>2015-07-26T18:58:30Z</time>
      </trkpt>
      <trkpt lat="44.86815" lon="3.35354">
        <ele>950.668</ele>
        <time>2015-07-26T18:58:50Z</time>
      </trkpt>
      <trkpt lat="44.86839" lon="3.35354">
        <ele>954.135</ele>
        <time>2015-07-26T18:59:10Z</time>
      </trkpt>
      <trkpt lat="44.86899" lon="3.35316">
        <ele>958.398</ele>
        <time>2015-07-26T18:59:30Z</time>
      </trkpt>
      <trkpt lat="44.87" lon="3.35333">
        <ele>969.029</ele>
        <time>2015-07-26T18:59:50Z</time>
      </trkpt>
      <trkpt lat="44.87056" lon="3.35502">
        <ele>994.182</ele>
        <time>2015-07-26T19:00:10Z</time>
      </trkpt>
      <trkpt lat="44.87113" lon="3.35584">
        <ele>1004.098</ele>
        <time>2015-07-26T19:00:30Z</time>
      </trkpt>
      <trkpt lat="44.8713" lon="3.35584">
        <ele>1004.192</ele>
        <time>2015-07-26T19:00:50Z</time>
      </trkpt>
      <trkpt lat="44.87152" lon="3.35621">
        <ele>1008.564</ele>
        <time>2015-07-26T19:01:10Z</time>
      </trkpt>
      <trkpt lat="44.87135" lon="3.35695">
        <ele>1015.606</ele>
        <time>2015-07-26T19:01:30Z</time>
      </trkpt>
      <trkpt lat="44.87171" lon="3.35829">
        <ele>1026.316</ele>
        <time>2015-07-26T19:01:50Z</time>
      </trkpt>
      <trkpt lat="44.87203" lon="3.35876">
        <ele>1031.408</ele>
        <time>2015-07-26T19:02:10Z</time>
      </trkpt>
      <trkpt lat="44.87208" lon="3.35962">
        <ele>1038.442</ele>
        <time>2015-07-26T19:02:30Z</time>
      </trkpt>
      <trkpt lat="44.87181" lon="3.36028">
        <ele>1041.116</ele>
        <time>2015-07-26T19:02:50Z</time>
      </trkpt>
      <trkpt lat="44.87165" lon="3.36176">
        <ele>1051.393</ele>
        <time>2015-07-26T19:03:10Z</time>
      </trkpt>
      <trkpt lat="44.87165" lon="3.36264">
        <ele>1065.646</ele>
        <time>2015-07-26T19:03:30Z</time>
      </trkpt>
      <trkpt lat="44.87148" lon="3.36369">
        <ele>1077.337</ele>
        <time>2015-07-26T19:03:50Z</time>
      </trkpt>
      <trkpt lat="44.87087" lon="3.36411">
        <ele>1089.92</ele>
        <time>2015-07-26T19:04:10Z</time>
      </trkpt>
      <trkpt lat="44.87072" lon="3.36529">
        <ele>1097.966</ele>
        <time>2015-07-26T19:04:30Z</time>
      </trkpt>
      <trkpt lat="44.87023" lon="3.36807">
        <ele>1110.12</ele>
        <time>2015-07-26T19:04:50Z</time>
      </trkpt>
      <trkpt lat="44.87018" lon="3.36956">
        <ele>1116.356</ele>
        <time>2015-07-26T19:05:10Z</time>
      </trkpt>
      <trkpt lat="44.8701" lon="3.3709">
        <ele>1129.159</ele>
        <time>2015-07-26T19:05:30Z</time>
      </trkpt>
      <trkpt lat="44.87025" lon="3.37168">
        <ele>1130.714</ele>
        <time>2015-07-26T19:05:50Z</time>
      </trkpt>
      <trkpt lat="44.8706" lon="3.37271">
        <ele>1125.808</ele>
        <time>2015-07-26T19:06:10Z</time>
      </trkpt>
      <trkpt lat="44.87074" lon="3.37321">
        <ele>1126.691</ele>
        <time>2015-07-26T19:06:30Z</time>
      </trkpt>
      <trkpt lat="44.871" lon="3.37373">
        <ele>1129.785</ele>
        <time>2020-02-15T22:20:29Z</time>
      </trkpt>
      <trkpt lat="44.87116" lon="3.3752">
        <ele>1141.212</ele>
        <time>2015-07-26T19:07:10Z</time>
      </trkpt>
      <trkpt lat="44.87142" lon="3.37601">
        <ele>1150.735</ele>
        <time>2020-02-15T22:21:09Z</time>
      </trkpt>
      <trkpt lat="44.87108" lon="3.37817">
        <ele>1171.666</ele>
        <time>2015-07-26T19:07:50Z</time>
      </trkpt>
      <trkpt lat="44.87117" lon="3.379">
        <ele>1174.639</ele>
        <time>2015-07-26T19:08:10Z</time>
      </trkpt>
      <trkpt lat="44.87099" lon="3.37999">
        <ele>1179.195</ele>
        <time>2015-07-26T19:08:30Z</time>
      </trkpt>
      <trkpt lat="44.87092" lon="3.38222">
        <ele>1189.459</ele>
        <time>2015-07-26T19:08:50Z</time>
      </trkpt>
      <trkpt lat="44.87034" lon="3.38414">
        <ele>1191.214</ele>
        <time>2015-07-26T19:09:10Z</time>
      </trkpt>
      <trkpt lat="44.87" lon="3.38468">
        <ele>1193.954</ele>
        <time>2015-07-26T19:09:30Z</time>
      </trkpt>
      <trkpt lat="44.8698" lon="3.38634">
        <ele>1188.209</ele>
        <time>2015-07-26T19:09:50Z</time>
      </trkpt>
      <trkpt lat="44.86932" lon="3.38636">
        <ele>1194.908</ele>
        <time>2015-07-26T19:10:10Z</time>
      </trkpt>
      <trkpt lat="44.86879" lon="3.38704">
        <ele>1198.727</ele>
        <time>2015-07-26T19:10:30Z</time>
      </trkpt>
      <trkpt lat="44.86743" lon="3.38691">
        <ele>1199.531</ele>
        <time>2015-07-26T19:10:50Z</time>
      </trkpt>
      <trkpt lat="44.86639" lon="3.38656">
        <ele>1187.988</ele>
        <time>2015-07-26T19:11:10Z</time>
      </trkpt>
      <trkpt lat="44.86615" lon="3.3864">
        <ele>1184.521</ele>
        <time>2020-02-15T22:25:09Z</time>
      </trkpt>
      <trkpt lat="44.86619" lon="3.38692">
        <ele>1181.552</ele>
        <time>2020-02-15T22:25:29Z</time>
      </trkpt>
      <trkpt lat="44.86653" lon="3.38744">
        <ele>1187.445</ele>
        <time>2020-02-15T22:25:49Z</time>
      </trkpt>
      <trkpt lat="44.86651" lon="3.38769">
        <ele>1188.321</ele>
        <time>2020-02-15T22:26:09Z</time>
      </trkpt>
      <trkpt lat="44.86621" lon="3.38799">
        <ele>1189.455</ele>
        <time>2020-02-15T22:26:29Z</time>
      </trkpt>
      <trkpt lat="44.86582" lon="3.38814">
        <ele>1187.863</ele>
        <time>2020-02-15T22:26:49Z</time>
      </trkpt>
      <trkpt lat="44.86557" lon="3.38857">
        <ele>1185.044</ele>
        <time>2020-02-15T22:27:09Z</time>
      </trkpt>
      <trkpt lat="44.86525" lon="3.38856">
        <ele>1183.518</ele>
        <time>2020-02-15T22:27:29Z</time>
      </trkpt>
      <trkpt lat="44.86502" lon="3.3887">
        <ele>1183.708</ele>
        <time>2020-02-15T22:27:49Z</time>
      </trkpt>
      <trkpt lat="44.86487" lon="3.38853">
        <ele>1182.292</ele>
        <time>2020-02-15T22:28:09Z</time>
      </trkpt>
      <trkpt lat="44.86424" lon="3.38908">
        <ele>1184.686</ele>
        <time>2020-02-15T22:28:29Z</time>
      </trkpt>
      <trkpt lat="44.86375" lon="3.38921">
        <ele>1186.513</ele>
        <time>2020-02-15T22:28:49Z</time>
      </trkpt>
      <trkpt lat="44.86318" lon="3.38967">
        <ele>1193.546</ele>
        <time>2020-02-15T22:29:09Z</time>
      </trkpt>
      <trkpt lat="44.86247" lon="3.38973">
        <ele>1189.847</ele>
        <time>2020-02-15T22:29:29Z</time>
      </trkpt>
      <trkpt lat="44.86149" lon="3.39004">
        <ele>1188.85</ele>
        <time>2020-02-15T22:29:49Z</time>
      </trkpt>
      <trkpt lat="44.86057" lon="3.39071">
        <ele>1193.756</ele>
        <time>2020-02-15T22:30:09Z</time>
      </trkpt>
      <trkpt lat="44.85921" lon="3.39113">
        <ele>1186.66</ele>
        <time>2015-07-26T19:15:10Z</time>
      </trkpt>
      <trkpt lat="44.85899" lon="3.39117">
        <ele>1187.546</ele>
        <time>2015-07-26T19:15:30Z</time>
      </trkpt>
      <trkpt lat="44.85785" lon="3.39194">
        <ele>1194.088</ele>
        <time>2015-07-26T19:15:50Z</time>
      </trkpt>
      <trkpt lat="44.85674" lon="3.39166">
        <ele>1190.216</ele>
        <time>2015-07-26T19:16:10Z</time>
      </trkpt>
      <trkpt lat="44.85569" lon="3.39176">
        <ele>1185.908</ele>
        <time>2015-07-26T19:16:30Z</time>
      </trkpt>
      <trkpt lat="44.85509" lon="3.39163">
        <ele>1181.01</ele>
        <time>2015-07-26T19:16:50Z</time>
      </trkpt>
      <trkpt lat="44.85487" lon="3.39126">
        <ele>1180.794</ele>
        <time>2015-07-26T19:17:10Z</time>
      </trkpt>
      <trkpt lat="44.8547" lon="3.3915">
        <ele>1180.581</ele>
        <time>2015-07-26T19:17:30Z</time>
      </trkpt>
      <trkpt lat="44.85442" lon="3.39141">
        <ele>1182.254</ele>
        <time>2015-07-26T19:17:50Z</time>
      </trkpt>
      <trkpt lat="44.8542" lon="3.39143">
        <ele>1183.825</ele>
        <time>2015-07-26T19:18:10Z</time>
      </trkpt>
      <trkpt lat="44.85333" lon="3.39187">
        <ele>1188.148</ele>
        <time>2015-07-26T19:18:30Z</time>
      </trkpt>
      <trkpt lat="44.85276" lon="3.39244">
        <ele>1181.244</ele>
        <time>2015-07-26T19:18:50Z</time>
      </trkpt>
      <trkpt lat="44.85258" lon="3.39249">
        <ele>1182.338</ele>
        <time>2015-07-26T19:19:10Z</time>
      </trkpt>
      <trkpt lat="44.85157" lon="3.3939">
        <ele>1172.618</ele>
        <time>2015-07-26T19:19:30Z</time>
      </trkpt>
      <trkpt lat="44.85125" lon="3.39436">
        <ele>1165.098</ele>
        <time>2020-02-15T22:35:09Z</time>
      </trkpt>
      <trkpt lat="44.85054" lon="3.39498">
        <ele>1150.017</ele>
        <time>2015-07-26T19:19:50Z</time>
      </trkpt>
      <trkpt lat="44.85003" lon="3.3956">
        <ele>1135.208</ele>
        <time>2015-07-26T19:20:10Z</time>
      </trkpt>
      <trkpt lat="44.84864" lon="3.39552">
        <ele>1121.067</ele>
        <time>2015-07-26T19:20:30Z</time>
      </trkpt>
      <trkpt lat="44.84839" lon="3.39587">
        <ele>1116.231</ele>
        <time>2015-07-26T19:20:50Z</time>
      </trkpt>
      <trkpt lat="44.84839" lon="3.39647">
        <ele>1113.138</ele>
        <time>2015-07-26T19:21:10Z</time>
      </trkpt>
      <trkpt lat="44.84798" lon="3.39724">
        <ele>1111.111</ele>
        <time>2015-07-26T19:21:30Z</time>
      </trkpt>
      <trkpt lat="44.8473" lon="3.39689">
        <ele>1104.292</ele>
        <time>2015-07-26T19:21:50Z</time>
      </trkpt>
      <trkpt lat="44.84701" lon="3.39691">
        <ele>1100.715</ele>
        <time>2015-07-26T19:22:10Z</time>
      </trkpt>
      <trkpt lat="44.84683" lon="3.39659">
        <ele>1099.331</ele>
        <time>2015-07-26T19:22:30Z</time>
      </trkpt>
      <trkpt lat="44.84641" lon="3.397">
        <ele>1093.825</ele>
        <time>2015-07-26T19:22:50Z</time>
      </trkpt>
      <trkpt lat="44.84622" lon="3.39759">
        <ele>1090.839</ele>
        <time>2015-07-26T19:23:10Z</time>
      </trkpt>
      <trkpt lat="44.8463" lon="3.39801">
        <ele>1091.901</ele>
        <time>2015-07-26T19:23:30Z</time>
      </trkpt>
      <trkpt lat="44.84645" lon="3.39851">
        <ele>1091.821</ele>
        <time>2015-07-26T19:23:50Z</time>
      </trkpt>
      <trkpt lat="44.8463" lon="3.39939">
        <ele>1101.908</ele>
        <time>2015-07-26T19:24:10Z</time>
      </trkpt>
      <trkpt lat="44.84665" lon="3.40037">
        <ele>1100.879</ele>
        <time>2015-07-26T19:24:30Z</time>
      </trkpt>
      <trkpt lat="44.84633" lon="3.40043">
        <ele>1104.163</ele>
        <time>2020-02-15T22:40:29Z</time>
      </trkpt>
      <trkpt lat="44.84598" lon="3.40037">
        <ele>1107.46</ele>
        <time>2015-07-26T19:24:50Z</time>
      </trkpt>
      <trkpt lat="44.84556" lon="3.40076">
        <ele>1110.773</ele>
        <time>2015-07-26T19:25:10Z</time>
      </trkpt>
      <trkpt lat="44.84488" lon="3.40126">
        <ele>1120.444</ele>
        <time>2015-07-26T19:25:30Z</time>
      </trkpt>
      <trkpt lat="44.84448" lon="3.40222">
        <ele>1131.997</ele>
        <time>2015-07-26T19:25:50Z</time>
      </trkpt>
      <trkpt lat="44.8444" lon="3.40272">
        <ele>1139.053</ele>
        <time>2015-07-26T19:26:10Z</time>
      </trkpt>
      <trkpt lat="44.84394" lon="3.40308">
        <ele>1144.067</ele>
        <time>2015-07-26T19:26:30Z</time>
      </trkpt>
      <trkpt lat="44.8437" lon="3.40354">
        <ele>1149.225</ele>
        <time>2015-07-26T19:26:50Z</time>
      </trkpt>
      <trkpt lat="44.84369" lon="3.40354">
        <ele>1149.226</ele>
        <time>2015-07-26T19:27:10Z</time>
      </trkpt>
      <trkpt lat="44.8433" lon="3.40394">
        <ele>1152.308</ele>
        <time>2015-07-26T19:27:30Z</time>
      </trkpt>
      <trkpt lat="44.84338" lon="3.40454">
        <ele>1160.308</ele>
        <time>2015-07-26T19:27:50Z</time>
      </trkpt>
      <trkpt lat="44.84324" lon="3.40504">
        <ele>1163.518</ele>
        <time>2015-07-26T19:28:10Z</time>
      </trkpt>
      <trkpt lat="44.84305" lon="3.40544">
        <ele>1164.162</ele>
        <time>2015-07-26T19:28:30Z</time>
      </trkpt>
      <trkpt lat="44.8432" lon="3.40592">
        <ele>1169.289</ele>
        <time>2015-07-26T19:28:50Z</time>
      </trkpt>
      <trkpt lat="44.84339" lon="3.40606">
        <ele>1171.272</ele>
        <time>2015-07-26T19:29:10Z</time>
      </trkpt>
      <trkpt lat="44.84345" lon="3.40641">
        <ele>1175.563</ele>
        <time>2015-07-26T19:29:30Z</time>
      </trkpt>
      <trkpt lat="44.84346" lon="3.40721">
        <ele>1183.836</ele>
        <time>2015-07-26T19:29:50Z</time>
      </trkpt>
      <trkpt lat="44.84376" lon="3.40769">
        <ele>1190.282</ele>
        <time>2015-07-26T19:30:10Z</time>
      </trkpt>
      <trkpt lat="44.84375" lon="3.40799">
        <ele>1192.276</ele>
        <time>2015-07-26T19:30:30Z</time>
      </trkpt>
      <trkpt lat="44.84353" lon="3.40883">
        <ele>1196.774</ele>
        <time>2015-07-26T19:30:50Z</time>
      </trkpt>
      <trkpt lat="44.84311" lon="3.40905">
        <ele>1198.856</ele>
        <time>2020-02-15T22:47:09Z</time>
      </trkpt>
      <trkpt lat="44.84266" lon="3.41047">
        <ele>1211.021</ele>
        <time>2020-02-15T22:47:29Z</time>
      </trkpt>
      <trkpt lat="44.84228" lon="3.41141">
        <ele>1220.608</ele>
        <time>2020-02-15T22:47:49Z</time>
      </trkpt>
      <trkpt lat="44.84202" lon="3.41277">
        <ele>1228.333</ele>
        <time>2020-02-15T22:48:09Z</time>
      </trkpt>
      <trkpt lat="44.84157" lon="3.41376">
        <ele>1222.917</ele>
        <time>2020-02-15T22:48:29Z</time>
      </trkpt>
      <trkpt lat="44.84144" lon="3.41425">
        <ele>1224.574</ele>
        <time>2020-02-15T22:48:49Z</time>
      </trkpt>
      <trkpt lat="44.84138" lon="3.41479">
        <ele>1223.797</ele>
        <time>2020-02-15T22:49:09Z</time>
      </trkpt>
      <trkpt lat="44.84085" lon="3.41639">
        <ele>1226.958</ele>
        <time>2020-02-15T22:49:29Z</time>
      </trkpt>
      <trkpt lat="44.84047" lon="3.41693">
        <ele>1231.671</ele>
        <time>2020-02-15T22:49:49Z</time>
      </trkpt>
      <trkpt lat="44.84003" lon="3.41791">
        <ele>1231.017</ele>
        <time>2020-02-15T22:50:09Z</time>
      </trkpt>
      <trkpt lat="44.83963" lon="3.41878">
        <ele>1226.411</ele>
        <time>2020-02-15T22:50:29Z</time>
      </trkpt>
      <trkpt lat="44.8395" lon="3.41972">
        <ele>1222.681</ele>
        <time>2020-02-15T22:50:49Z</time>
      </trkpt>
      <trkpt lat="44.83947" lon="3.42047">
        <ele>1221.261</ele>
        <time>2020-02-15T22:51:09Z</time>
      </trkpt>
      <trkpt lat="44.8396" lon="3.42103">
        <ele>1220.517</ele>
        <time>2020-02-15T22:51:29Z</time>
      </trkpt>
      <trkpt lat="44.83944" lon="3.42169">
        <ele>1222.108</ele>
        <time>2020-02-15T22:51:49Z</time>
      </trkpt>
      <trkpt lat="44.83866" lon="3.42338">
        <ele>1223.574</ele>
        <time>2020-02-15T22:52:09Z</time>
      </trkpt>
      <trkpt lat="44.83852" lon="3.4242">
        <ele>1223.858</ele>
        <time>2020-02-15T22:52:29Z</time>
      </trkpt>
      <trkpt lat="44.83756" lon="3.42565">
        <ele>1230.675</ele>
        <time>2020-02-15T22:52:49Z</time>
      </trkpt>
      <trkpt lat="44.8375" lon="3.42627">
        <ele>1235.728</ele>
        <time>2020-02-15T22:53:09Z</time>
      </trkpt>
      <trkpt lat="44.83722" lon="3.42673">
        <ele>1236.559</ele>
        <time>2020-02-15T22:53:29Z</time>
      </trkpt>
      <trkpt lat="44.83627" lon="3.42742">
        <ele>1229.572</ele>
        <time>2020-02-15T22:53:49Z</time>
      </trkpt>
      <trkpt lat="44.83561" lon="3.42809">
        <ele>1226.858</ele>
        <time>2020-02-15T22:54:09Z</time>
      </trkpt>
      <trkpt lat="44.83494" lon="3.42817">
        <ele>1223.172</ele>
        <time>2020-02-15T22:54:29Z</time>
      </trkpt>
      <trkpt lat="44.83457" lon="3.42756">
        <ele>1219.612</ele>
        <time>2020-02-15T22:54:49Z</time>
      </trkpt>
      <trkpt lat="44.8338" lon="3.42661">
        <ele>1215.832</ele>
        <time>2020-02-15T22:55:09Z</time>
      </trkpt>
      <trkpt lat="44.8331" lon="3.42558">
        <ele>1214.305</ele>
        <time>2020-02-15T22:55:29Z</time>
      </trkpt>
      <trkpt lat="44.83282" lon="3.42495">
        <ele>1211.008</ele>
        <time>2020-02-15T22:55:49Z</time>
      </trkpt>
      <trkpt lat="44.83245" lon="3.42444">
        <ele>1208.737</ele>
        <time>2020-02-15T22:56:09Z</time>
      </trkpt>
      <trkpt lat="44.83212" lon="3.4242">
        <ele>1205.741</ele>
        <time>2020-02-15T22:56:29Z</time>
      </trkpt>
      <trkpt lat="44.83149" lon="3.42338">
        <ele>1199.198</ele>
        <time>2020-02-15T22:56:49Z</time>
      </trkpt>
      <trkpt lat="44.83072" lon="3.42275">
        <ele>1193.361</ele>
        <time>2020-02-15T22:57:09Z</time>
      </trkpt>
      <trkpt lat="44.83029" lon="3.42207">
        <ele>1192.432</ele>
        <time>2020-02-15T22:57:29Z</time>
      </trkpt>
      <trkpt lat="44.82975" lon="3.42148">
        <ele>1184.595</ele>
        <time>2020-02-15T22:57:49Z</time>
      </trkpt>
      <trkpt lat="44.82954" lon="3.42089">
        <ele>1184.031</ele>
        <time>2020-02-15T22:58:09Z</time>
      </trkpt>
      <trkpt lat="44.82883" lon="3.42038">
        <ele>1188.565</ele>
        <time>2020-02-15T22:58:29Z</time>
      </trkpt>
      <trkpt lat="44.82771" lon="3.4203">
        <ele>1193.566</ele>
        <time>2020-02-15T22:58:49Z</time>
      </trkpt>
      <trkpt lat="44.82711" lon="3.42003">
        <ele>1199.929</ele>
        <time>2020-02-15T22:59:09Z</time>
      </trkpt>
      <trkpt lat="44.82658" lon="3.42005">
        <ele>1202.421</ele>
        <time>2020-02-15T22:59:29Z</time>
      </trkpt>
      <trkpt lat="44.82594" lon="3.41969">
        <ele>1205.808</ele>
        <time>2020-02-15T22:59:49Z</time>
      </trkpt>
      <trkpt lat="44.82544" lon="3.41909">
        <ele>1210.052</ele>
        <time>2020-02-15T23:00:09Z</time>
      </trkpt>
      <trkpt lat="44.82501" lon="3.41876">
        <ele>1214.386</ele>
        <time>2020-02-15T23:00:29Z</time>
      </trkpt>
      <trkpt lat="44.8246" lon="3.41862">
        <ele>1214.773</ele>
        <time>2020-02-15T23:00:49Z</time>
      </trkpt>
      <trkpt lat="44.82431" lon="3.41829">
        <ele>1213.736</ele>
        <time>2020-02-15T23:01:09Z</time>
      </trkpt>
      <trkpt lat="44.82383" lon="3.41848">
        <ele>1211.087</ele>
        <time>2015-07-26T19:40:50Z</time>
      </trkpt>
      <trkpt lat="44.82217" lon="3.41877">
        <ele>1214.83</ele>
        <time>2015-07-26T19:41:10Z</time>
      </trkpt>
      <trkpt lat="44.82034" lon="3.41919">
        <ele>1216.046</ele>
        <time>2015-07-26T19:41:30Z</time>
      </trkpt>
      <trkpt lat="44.81922" lon="3.41919">
        <ele>1214.42</ele>
        <time>2015-07-26T19:41:50Z</time>
      </trkpt>
      <trkpt lat="44.81841" lon="3.41922">
        <ele>1211.921</ele>
        <time>2015-07-26T19:42:10Z</time>
      </trkpt>
      <trkpt lat="44.81759" lon="3.41945">
        <ele>1212.041</ele>
        <time>2015-07-26T19:42:30Z</time>
      </trkpt>
      <trkpt lat="44.81583" lon="3.41899">
        <ele>1207.005</ele>
        <time>2015-07-26T19:42:50Z</time>
      </trkpt>
      <trkpt lat="44.81528" lon="3.41926">
        <ele>1203.008</ele>
        <time>2015-07-26T19:43:10Z</time>
      </trkpt>
      <trkpt lat="44.81489" lon="3.41914">
        <ele>1199.858</ele>
        <time>2015-07-26T19:43:30Z</time>
      </trkpt>
      <trkpt lat="44.81306" lon="3.41889">
        <ele>1201.042</ele>
        <time>2015-07-26T19:43:50Z</time>
      </trkpt>
      <trkpt lat="44.81218" lon="3.41912">
        <ele>1206.899</ele>
        <time>2015-07-26T19:44:10Z</time>
      </trkpt>
      <trkpt lat="44.81058" lon="3.41829">
        <ele>1204.522</ele>
        <time>2015-07-26T19:44:30Z</time>
      </trkpt>
      <trkpt lat="44.81017" lon="3.41821">
        <ele>1201.473</ele>
        <time>2015-07-26T19:44:50Z</time>
      </trkpt>
      <trkpt lat="44.81083" lon="3.41894">
        <ele>1204.726</ele>
        <time>2015-07-26T19:45:10Z</time>
      </trkpt>
      <trkpt lat="44.8115" lon="3.42036">
        <ele>1204.352</ele>
        <time>2015-07-26T19:45:30Z</time>
      </trkpt>
      <trkpt lat="44.81191" lon="3.42128">
        <ele>1198.226</ele>
        <time>2015-07-26T19:45:50Z</time>
      </trkpt>
      <trkpt lat="44.81216" lon="3.42149">
        <ele>1195.442</ele>
        <time>2015-07-26T19:46:10Z</time>
      </trkpt>
      <trkpt lat="44.81281" lon="3.42183">
        <ele>1190.522</ele>
        <time>2015-07-26T19:46:30Z</time>
      </trkpt>
      <trkpt lat="44.8136" lon="3.42246">
        <ele>1186.114</ele>
        <time>2015-07-26T19:46:50Z</time>
      </trkpt>
      <trkpt lat="44.81447" lon="3.42375">
        <ele>1184.008</ele>
        <time>2015-07-26T19:47:10Z</time>
      </trkpt>
      <trkpt lat="44.81627" lon="3.42778">
        <ele>1166.96</ele>
        <time>2015-07-26T19:47:30Z</time>
      </trkpt>
      <trkpt lat="44.81695" lon="3.42856">
        <ele>1164.234</ele>
        <time>2015-07-26T19:47:50Z</time>
      </trkpt>
      <trkpt lat="44.8173" lon="3.42916">
        <ele>1158.431</ele>
        <time>2015-07-26T19:48:10Z</time>
      </trkpt>
      <trkpt lat="44.81755" lon="3.43036">
        <ele>1159.324</ele>
        <time>2015-07-26T19:48:30Z</time>
      </trkpt>
      <trkpt lat="44.81745" lon="3.43178">
        <ele>1166.825</ele>
        <time>2015-07-26T19:48:50Z</time>
      </trkpt>
      <trkpt lat="44.81711" lon="3.43251">
        <ele>1171.258</ele>
        <time>2015-07-26T19:49:10Z</time>
      </trkpt>
      <trkpt lat="44.81686" lon="3.43339">
        <ele>1172.864</ele>
        <time>2015-07-26T19:49:30Z</time>
      </trkpt>
      <trkpt lat="44.81644" lon="3.43384">
        <ele>1173.538</ele>
        <time>2015-07-26T19:49:50Z</time>
      </trkpt>
      <trkpt lat="44.81573" lon="3.43611">
        <ele>1180.323</ele>
        <time>2015-07-26T19:50:10Z</time>
      </trkpt>
      <trkpt lat="44.81511" lon="3.43796">
        <ele>1183.183</ele>
        <time>2015-07-26T19:50:30Z</time>
      </trkpt>
      <trkpt lat="44.8147" lon="3.43875">
        <ele>1183.811</ele>
        <time>2015-07-26T19:50:50Z</time>
      </trkpt>
      <trkpt lat="44.81478" lon="3.43954">
        <ele>1182.808</ele>
        <time>2015-07-26T19:51:10Z</time>
      </trkpt>
      <trkpt lat="44.81498" lon="3.44032">
        <ele>1178.768</ele>
        <time>2015-07-26T19:51:30Z</time>
      </trkpt>
      <trkpt lat="44.815" lon="3.44081">
        <ele>1177.192</ele>
        <time>2015-07-26T19:51:50Z</time>
      </trkpt>
      <trkpt lat="44.81466" lon="3.44233">
        <ele>1171.249</ele>
        <time>2020-02-15T23:12:49Z</time>
      </trkpt>
      <trkpt lat="44.81434" lon="3.44295">
        <ele>1167.712</ele>
        <time>2015-07-26T19:52:30Z</time>
      </trkpt>
      <trkpt lat="44.81399" lon="3.44331">
        <ele>1165.683</ele>
        <time>2015-07-26T19:52:50Z</time>
      </trkpt>
      <trkpt lat="44.81401" lon="3.44362">
        <ele>1166.386</ele>
        <time>2015-07-26T19:53:10Z</time>
      </trkpt>
      <trkpt lat="44.81397" lon="3.44428">
        <ele>1166.632</ele>
        <time>2015-07-26T19:53:30Z</time>
      </trkpt>
      <trkpt lat="44.81385" lon="3.44458">
        <ele>1164.566</ele>
        <time>2015-07-26T19:53:50Z</time>
      </trkpt>
      <trkpt lat="44.81362" lon="3.44464">
        <ele>1164.318</ele>
        <time>2015-07-26T19:54:10Z</time>
      </trkpt>
      <trkpt lat="44.81316" lon="3.44534">
        <ele>1169.198</ele>
        <time>2015-07-26T19:54:30Z</time>
      </trkpt>
      <trkpt lat="44.81284" lon="3.44554">
        <ele>1173.317</ele>
        <time>2015-07-26T19:54:50Z</time>
      </trkpt>
      <trkpt lat="44.81199" lon="3.44688">
        <ele>1187.208</ele>
        <time>2020-02-15T23:15:49Z</time>
      </trkpt>
      <trkpt lat="44.81096" lon="3.44765">
        <ele>1193.597</ele>
        <time>2015-07-26T19:55:30Z</time>
      </trkpt>
      <trkpt lat="44.81038" lon="3.44831">
        <ele>1200.131</ele>
        <time>2015-07-26T19:55:50Z</time>
      </trkpt>
      <trkpt lat="44.80961" lon="3.44878">
        <ele>1202.338</ele>
        <time>2015-07-26T19:56:10Z</time>
      </trkpt>
      <trkpt lat="44.80895" lon="3.44933">
        <ele>1208.551</ele>
        <time>2015-07-26T19:56:30Z</time>
      </trkpt>
      <trkpt lat="44.80829" lon="3.44954">
        <ele>1207.192</ele>
        <time>2015-07-26T19:56:50Z</time>
      </trkpt>
      <trkpt lat="44.80755" lon="3.4503">
        <ele>1210.615</ele>
        <time>2015-07-26T19:57:10Z</time>
      </trkpt>
      <trkpt lat="44.80701" lon="3.45143">
        <ele>1220.061</ele>
        <time>2015-07-26T19:57:30Z</time>
      </trkpt>
      <trkpt lat="44.80643" lon="3.45199">
        <ele>1217.865</ele>
        <time>2015-07-26T19:57:50Z</time>
      </trkpt>
      <trkpt lat="44.80594" lon="3.45215">
        <ele>1224.068</ele>
        <time>2015-07-26T19:58:10Z</time>
      </trkpt>
      <trkpt lat="44.80397" lon="3.45387">
        <ele>1241.342</ele>
        <time>2015-07-26T19:58:30Z</time>
      </trkpt>
      <trkpt lat="44.80347" lon="3.45508">
        <ele>1244.326</ele>
        <time>2015-07-26T19:58:50Z</time>
      </trkpt>
      <trkpt lat="44.80224" lon="3.45624">
        <ele>1257.408</ele>
        <time>2015-07-26T19:59:10Z</time>
      </trkpt>
      <trkpt lat="44.80169" lon="3.45622">
        <ele>1260.812</ele>
        <time>2015-07-26T19:59:30Z</time>
      </trkpt>
      <trkpt lat="44.8012" lon="3.45665">
        <ele>1265.796</ele>
        <time>2015-07-26T19:59:50Z</time>
      </trkpt>
      <trkpt lat="44.80064" lon="3.45755">
        <ele>1274.633</ele>
        <time>2015-07-26T20:00:10Z</time>
      </trkpt>
      <trkpt lat="44.79951" lon="3.45796">
        <ele>1283.136</ele>
        <time>2015-07-26T20:00:30Z</time>
      </trkpt>
      <trkpt lat="44.79895" lon="3.45849">
        <ele>1287.527</ele>
        <time>2015-07-26T20:00:50Z</time>
      </trkpt>
      <trkpt lat="44.79839" lon="3.45892">
        <ele>1292.67</ele>
        <time>2015-07-26T20:01:10Z</time>
      </trkpt>
      <trkpt lat="44.79819" lon="3.45877">
        <ele>1291.916</ele>
        <time>2015-07-26T20:01:30Z</time>
      </trkpt>
      <trkpt lat="44.7977" lon="3.45919">
        <ele>1288.51</ele>
        <time>2015-07-26T20:01:50Z</time>
      </trkpt>
      <trkpt lat="44.79681" lon="3.46026">
        <ele>1278.171</ele>
        <time>2015-07-26T20:02:10Z</time>
      </trkpt>
      <trkpt lat="44.79627" lon="3.46083">
        <ele>1272.341</ele>
        <time>2015-07-26T20:02:30Z</time>
      </trkpt>
      <trkpt lat="44.79612" lon="3.46118">
        <ele>1269.115</ele>
        <time>2015-07-26T20:02:50Z</time>
      </trkpt>
      <trkpt lat="44.79373" lon="3.46297">
        <ele>1256.108</ele>
        <time>2015-07-26T20:03:10Z</time>
      </trkpt>
      <trkpt lat="44.79313" lon="3.46375">
        <ele>1250.513</ele>
        <time>2015-07-26T20:03:30Z</time>
      </trkpt>
      <trkpt lat="44.79274" lon="3.46398">
        <ele>1252.187</ele>
        <time>2015-07-26T20:03:50Z</time>
      </trkpt>
      <trkpt lat="44.79192" lon="3.46481">
        <ele>1255.914</ele>
        <time>2015-07-26T20:04:10Z</time>
      </trkpt>
      <trkpt lat="44.79078" lon="3.46628">
        <ele>1248.137</ele>
        <time>2015-07-26T20:04:30Z</time>
      </trkpt>
      <trkpt lat="44.79098" lon="3.46755">
        <ele>1253.318</ele>
        <time>2020-02-15T23:25:29Z</time>
      </trkpt>
      <trkpt lat="44.79126" lon="3.46814">
        <ele>1255.761</ele>
        <time>2015-07-26T20:05:10Z</time>
      </trkpt>
      <trkpt lat="44.79227" lon="3.46835">
        <ele>1260.677</ele>
        <time>2015-07-26T20:05:30Z</time>
      </trkpt>
      <trkpt lat="44.79249" lon="3.4686">
        <ele>1262.041</ele>
        <time>2015-07-26T20:05:50Z</time>
      </trkpt>
      <trkpt lat="44.79295" lon="3.47196">
        <ele>1272.242</ele>
        <time>2015-07-26T20:06:10Z</time>
      </trkpt>
      <trkpt lat="44.79168" lon="3.47525">
        <ele>1287.922</ele>
        <time>2015-07-26T20:06:30Z</time>
      </trkpt>
      <trkpt lat="44.79158" lon="3.47638">
        <ele>1289.414</ele>
        <time>2015-07-26T20:06:50Z</time>
      </trkpt>
      <trkpt lat="44.79125" lon="3.47756">
        <ele>1280.108</ele>
        <time>2015-07-26T20:07:10Z</time>
      </trkpt>
      <trkpt lat="44.79152" lon="3.47778">
        <ele>1278.91</ele>
        <time>2015-07-26T20:07:30Z</time>
      </trkpt>
      <trkpt lat="44.79274" lon="3.47798">
        <ele>1278.444</ele>
        <time>2015-07-26T20:07:50Z</time>
      </trkpt>
      <trkpt lat="44.79324" lon="3.47857">
        <ele>1277.881</ele>
        <time>2015-07-26T20:08:10Z</time>
      </trkpt>
      <trkpt lat="44.79322" lon="3.47978">
        <ele>1280.464</ele>
        <time>2015-07-26T20:08:30Z</time>
      </trkpt>
      <trkpt lat="44.79356" lon="3.4811">
        <ele>1297.535</ele>
        <time>2015-07-26T20:08:50Z</time>
      </trkpt>
      <trkpt lat="44.79372" lon="3.48259">
        <ele>1307.958</ele>
        <time>2020-02-15T23:29:49Z</time>
      </trkpt>
      <trkpt lat="44.79375" lon="3.48583">
        <ele>1322.064</ele>
        <time>2015-07-26T20:09:30Z</time>
      </trkpt>
      <trkpt lat="44.79388" lon="3.48864">
        <ele>1345.288</ele>
        <time>2015-07-26T20:09:50Z</time>
      </trkpt>
      <trkpt lat="44.79414" lon="3.48952">
        <ele>1352.241</ele>
        <time>2015-07-26T20:10:10Z</time>
      </trkpt>
      <trkpt lat="44.79441" lon="3.49117">
        <ele>1368.281</ele>
        <time>2015-07-26T20:10:30Z</time>
      </trkpt>
      <trkpt lat="44.79488" lon="3.49298">
        <ele>1386.009</ele>
        <time>2015-07-26T20:10:50Z</time>
      </trkpt>
      <trkpt lat="44.7951" lon="3.49458">
        <ele>1407.008</ele>
        <time>2015-07-26T20:11:10Z</time>
      </trkpt>
      <trkpt lat="44.7954" lon="3.49484">
        <ele>1411.03</ele>
        <time>2020-02-15T23:32:09Z</time>
      </trkpt>
      <trkpt lat="44.79585" lon="3.49615">
        <ele>1418.254</ele>
        <time>2015-07-26T20:11:50Z</time>
      </trkpt>
      <trkpt lat="44.7959" lon="3.4967">
        <ele>1420.961</ele>
        <time>2015-07-26T20:12:10Z</time>
      </trkpt>
      <trkpt lat="44.79637" lon="3.49808">
        <ele>1419.864</ele>
        <time>2015-07-26T20:12:30Z</time>
      </trkpt>
      <trkpt lat="44.7963" lon="3.4992">
        <ele>1419.675</ele>
        <time>2015-07-26T20:12:50Z</time>
      </trkpt>
      <trkpt lat="44.79614" lon="3.49949">
        <ele>1419.098</ele>
        <time>2015-07-26T20:13:10Z</time>
      </trkpt>
      <trkpt lat="44.79654" lon="3.49952">
        <ele>1417.564</ele>
        <time>2015-07-26T20:13:30Z</time>
      </trkpt>
      <trkpt lat="44.79719" lon="3.50005">
        <ele>1409.788</ele>
        <time>2015-07-26T20:13:50Z</time>
      </trkpt>
      <trkpt lat="44.79737" lon="3.5004">
        <ele>1410.861</ele>
        <time>2015-07-26T20:14:10Z</time>
      </trkpt>
      <trkpt lat="44.79699" lon="3.50244">
        <ele>1407.721</ele>
        <time>2015-07-26T20:14:30Z</time>
      </trkpt>
      <trkpt lat="44.79671" lon="3.50339">
        <ele>1406.013</ele>
        <time>2015-07-26T20:14:50Z</time>
      </trkpt>
      <trkpt lat="44.79628" lon="3.50557">
        <ele>1396.308</ele>
        <time>2015-07-26T20:15:10Z</time>
      </trkpt>
      <trkpt lat="44.79631" lon="3.50674">
        <ele>1394.242</ele>
        <time>2015-07-26T20:15:30Z</time>
      </trkpt>
      <trkpt lat="44.79647" lon="3.50748">
        <ele>1391.796</ele>
        <time>2015-07-26T20:15:50Z</time>
      </trkpt>
      <trkpt lat="44.79649" lon="3.50801">
        <ele>1385.663</ele>
        <time>2015-07-26T20:16:10Z</time>
      </trkpt>
      <trkpt lat="44.79666" lon="3.50844">
        <ele>1385.586</ele>
        <time>2015-07-26T20:16:30Z</time>
      </trkpt>
      <trkpt lat="44.79691" lon="3.51026">
        <ele>1379.567</ele>
        <time>2015-07-26T20:16:50Z</time>
      </trkpt>
      <trkpt lat="44.79673" lon="3.51143">
        <ele>1380.19</ele>
        <time>2015-07-26T20:17:10Z</time>
      </trkpt>
      <trkpt lat="44.79682" lon="3.51191">
        <ele>1380.486</ele>
        <time>2015-07-26T20:17:30Z</time>
      </trkpt>
      <trkpt lat="44.79662" lon="3.51518">
        <ele>1363.63</ele>
        <time>2015-07-26T20:17:50Z</time>
      </trkpt>
      <trkpt lat="44.79628" lon="3.51698">
        <ele>1361.118</ele>
        <time>2015-07-26T20:18:10Z</time>
      </trkpt>
      <trkpt lat="44.79604" lon="3.51795">
        <ele>1355.498</ele>
        <time>2015-07-26T20:18:30Z</time>
      </trkpt>
      <trkpt lat="44.79572" lon="3.51857">
        <ele>1351.717</ele>
        <time>2015-07-26T20:18:50Z</time>
      </trkpt>
      <trkpt lat="44.79616" lon="3.51972">
        <ele>1344.208</ele>
        <time>2015-07-26T20:19:10Z</time>
      </trkpt>
      <trkpt lat="44.79609" lon="3.52011">
        <ele>1342.667</ele>
        <time>2015-07-26T20:19:30Z</time>
      </trkpt>
      <trkpt lat="44.79615" lon="3.52064">
        <ele>1346.171</ele>
        <time>2015-07-26T20:19:50Z</time>
      </trkpt>
      <trkpt lat="44.7964" lon="3.52105">
        <ele>1348.538</ele>
        <time>2015-07-26T20:20:10Z</time>
      </trkpt>
      <trkpt lat="44.79659" lon="3.52178">
        <ele>1353.081</ele>
        <time>2015-07-26T20:20:30Z</time>
      </trkpt>
      <trkpt lat="44.79664" lon="3.52273">
        <ele>1361.852</ele>
        <time>2015-07-26T20:20:50Z</time>
      </trkpt>
      <trkpt lat="44.79638" lon="3.52354">
        <ele>1368.675</ele>
        <time>2015-07-26T20:21:10Z</time>
      </trkpt>
      <trkpt lat="44.79603" lon="3.52411">
        <ele>1374.141</ele>
        <time>2015-07-26T20:21:30Z</time>
      </trkpt>
      <trkpt lat="44.79633" lon="3.52446">
        <ele>1372.265</ele>
        <time>2015-07-26T20:21:50Z</time>
      </trkpt>
      <trkpt lat="44.7969" lon="3.52488">
        <ele>1368.889</ele>
        <time>2015-07-26T20:22:10Z</time>
      </trkpt>
      <trkpt lat="44.79722" lon="3.52563">
        <ele>1362.706</ele>
        <time>2015-07-26T20:22:30Z</time>
      </trkpt>
      <trkpt lat="44.7979" lon="3.52669">
        <ele>1358.026</ele>
        <time>2015-07-26T20:22:50Z</time>
      </trkpt>
      <trkpt lat="44.79851" lon="3.52668">
        <ele>1354.708</ele>
        <time>2015-07-26T20:23:10Z</time>
      </trkpt>
      <trkpt lat="44.79924" lon="3.52598">
        <ele>1348.984</ele>
        <time>2015-07-26T20:23:30Z</time>
      </trkpt>
      <trkpt lat="44.80002" lon="3.52544">
        <ele>1340.028</ele>
        <time>2015-07-26T20:23:50Z</time>
      </trkpt>
      <trkpt lat="44.80031" lon="3.52562">
        <ele>1336.665</ele>
        <time>2015-07-26T20:24:10Z</time>
      </trkpt>
      <trkpt lat="44.80055" lon="3.52597">
        <ele>1333.718</ele>
        <time>2015-07-26T20:24:30Z</time>
      </trkpt>
      <trkpt lat="44.80073" lon="3.5268">
        <ele>1330.589</ele>
        <time>2015-07-26T20:24:50Z</time>
      </trkpt>
      <trkpt lat="44.80068" lon="3.52743">
        <ele>1331.542</ele>
        <time>2015-07-26T20:25:10Z</time>
      </trkpt>
      <trkpt lat="44.80038" lon="3.52822">
        <ele>1328.348</ele>
        <time>2015-07-26T20:25:30Z</time>
      </trkpt>
      <trkpt lat="44.80018" lon="3.52921">
        <ele>1320.762</ele>
        <time>2015-07-26T20:25:50Z</time>
      </trkpt>
      <trkpt lat="44.79968" lon="3.53001">
        <ele>1319.864</ele>
        <time>2015-07-26T20:26:10Z</time>
      </trkpt>
      <trkpt lat="44.79836" lon="3.53091">
        <ele>1310.406</ele>
        <time>2015-07-26T20:26:30Z</time>
      </trkpt>
      <trkpt lat="44.79781" lon="3.53105">
        <ele>1308.316</ele>
        <time>2015-07-26T20:26:50Z</time>
      </trkpt>
      <trkpt lat="44.79673" lon="3.53082">
        <ele>1300.208</ele>
        <time>2015-07-26T20:27:10Z</time>
      </trkpt>
      <trkpt lat="44.79602" lon="3.53087">
        <ele>1292.482</ele>
        <time>2015-07-26T20:27:30Z</time>
      </trkpt>
      <trkpt lat="44.79531" lon="3.53115">
        <ele>1289.636</ele>
        <time>2015-07-26T20:27:50Z</time>
      </trkpt>
      <trkpt lat="44.7945" lon="3.53172">
        <ele>1282.613</ele>
        <time>2015-07-26T20:28:10Z</time>
      </trkpt>
      <trkpt lat="44.79411" lon="3.53227">
        <ele>1277.886</ele>
        <time>2015-07-26T20:28:30Z</time>
      </trkpt>
      <trkpt lat="44.79391" lon="3.53285">
        <ele>1278.477</ele>
        <time>2015-07-26T20:28:50Z</time>
      </trkpt>
      <trkpt lat="44.7943" lon="3.53493">
        <ele>1276.51</ele>
        <time>2015-07-26T20:29:10Z</time>
      </trkpt>
      <trkpt lat="44.79431" lon="3.53555">
        <ele>1276.386</ele>
        <time>2015-07-26T20:29:30Z</time>
      </trkpt>
      <trkpt lat="44.79409" lon="3.53627">
        <ele>1273.08</ele>
        <time>2015-07-26T20:29:50Z</time>
      </trkpt>
      <trkpt lat="44.7934" lon="3.53707">
        <ele>1276.619</ele>
        <time>2015-07-26T20:30:10Z</time>
      </trkpt>
      <trkpt lat="44.79321" lon="3.53752">
        <ele>1277.709</ele>
        <time>2015-07-26T20:30:30Z</time>
      </trkpt>
      <trkpt lat="44.79314" lon="3.53893">
        <ele>1276.519</ele>
        <time>2015-07-26T20:30:50Z</time>
      </trkpt>
      <trkpt lat="44.79231" lon="3.54216">
        <ele>1270.808</ele>
        <time>2015-07-26T20:31:10Z</time>
      </trkpt>
      <trkpt lat="44.79209" lon="3.5425">
        <ele>1265.127</ele>
        <time>2015-07-26T20:31:30Z</time>
      </trkpt>
      <trkpt lat="44.79133" lon="3.54302">
        <ele>1257.791</ele>
        <time>2015-07-26T20:31:50Z</time>
      </trkpt>
      <trkpt lat="44.79093" lon="3.54387">
        <ele>1249.828</ele>
        <time>2015-07-26T20:32:10Z</time>
      </trkpt>
      <trkpt lat="44.79078" lon="3.54471">
        <ele>1246.831</ele>
        <time>2015-07-26T20:32:30Z</time>
      </trkpt>
      <trkpt lat="44.79108" lon="3.54474">
        <ele>1248.992</ele>
        <time>2020-11-20T22:58:25Z</time>
      </trkpt>
      <trkpt lat="44.79107" lon="3.54566">
        <ele>1252.755</ele>
        <time>2020-11-20T22:58:45Z</time>
      </trkpt>
      <trkpt lat="44.79073" lon="3.54603">
        <ele>1249.511</ele>
        <time>2020-11-20T22:59:05Z</time>
      </trkpt>
      <trkpt lat="44.78998" lon="3.54595">
        <ele>1240.855</ele>
        <time>2020-11-20T22:59:25Z</time>
      </trkpt>
      <trkpt lat="44.78968" lon="3.54572">
        <ele>1237.959</ele>
        <time>2020-11-20T22:59:45Z</time>
      </trkpt>
      <trkpt lat="44.78941" lon="3.54568">
        <ele>1237.803</ele>
        <time>2015-07-26T20:33:30Z</time>
      </trkpt>
      <trkpt lat="44.78919" lon="3.54595">
        <ele>1238.423</ele>
        <time>2015-07-26T20:33:50Z</time>
      </trkpt>
      <trkpt lat="44.78913" lon="3.54721">
        <ele>1237.808</ele>
        <time>2015-07-26T20:34:10Z</time>
      </trkpt>
      <trkpt lat="44.7889" lon="3.54807">
        <ele>1234.931</ele>
        <time>2015-07-26T20:34:30Z</time>
      </trkpt>
      <trkpt lat="44.78885" lon="3.54854">
        <ele>1235.245</ele>
        <time>2015-07-26T20:34:50Z</time>
      </trkpt>
      <trkpt lat="44.78898" lon="3.54909">
        <ele>1233.012</ele>
        <time>2015-07-26T20:35:10Z</time>
      </trkpt>
      <trkpt lat="44.78943" lon="3.54966">
        <ele>1232.675</ele>
        <time>2015-07-26T20:35:30Z</time>
      </trkpt>
      <trkpt lat="44.78997" lon="3.55068">
        <ele>1239.026</ele>
        <time>2015-07-26T20:35:50Z</time>
      </trkpt>
      <trkpt lat="44.79078" lon="3.55267">
        <ele>1241.349</ele>
        <time>2015-07-26T20:36:10Z</time>
      </trkpt>
      <trkpt lat="44.79087" lon="3.55358">
        <ele>1234.145</ele>
        <time>2015-07-26T20:36:30Z</time>
      </trkpt>
      <trkpt lat="44.79119" lon="3.55501">
        <ele>1222.259</ele>
        <time>2015-07-26T20:36:50Z</time>
      </trkpt>
      <trkpt lat="44.79141" lon="3.55646">
        <ele>1210.625</ele>
        <time>2015-07-26T20:37:10Z</time>
      </trkpt>
      <trkpt lat="44.79184" lon="3.55774">
        <ele>1198.126</ele>
        <time>2015-07-26T20:37:30Z</time>
      </trkpt>
      <trkpt lat="44.79186" lon="3.55874">
        <ele>1189.708</ele>
        <time>2015-07-26T20:37:50Z</time>
      </trkpt>
      <trkpt lat="44.79157" lon="3.55938">
        <ele>1185.708</ele>
        <time>2015-07-26T20:38:10Z</time>
      </trkpt>
      <trkpt lat="44.79161" lon="3.5602">
        <ele>1178.728</ele>
        <time>2015-07-26T20:38:30Z</time>
      </trkpt>
      <trkpt lat="44.79151" lon="3.56133">
        <ele>1182.442</ele>
        <time>2015-07-26T20:38:50Z</time>
      </trkpt>
      <trkpt lat="44.79077" lon="3.56116">
        <ele>1188.049</ele>
        <time>2015-07-26T20:39:10Z</time>
      </trkpt>
      <trkpt lat="44.79017" lon="3.56114">
        <ele>1196.372</ele>
        <time>2020-02-16T00:00:29Z</time>
      </trkpt>
      <trkpt lat="44.79068" lon="3.5616">
        <ele>1195.183</ele>
        <time>2015-07-26T20:39:50Z</time>
      </trkpt>
      <trkpt lat="44.79136" lon="3.56269">
        <ele>1207.826</ele>
        <time>2015-07-26T20:40:10Z</time>
      </trkpt>
      <trkpt lat="44.79171" lon="3.56347">
        <ele>1215.472</ele>
        <time>2015-07-26T20:40:30Z</time>
      </trkpt>
      <trkpt lat="44.79171" lon="3.56389">
        <ele>1218.286</ele>
        <time>2015-07-26T20:40:50Z</time>
      </trkpt>
      <trkpt lat="44.79112" lon="3.56553">
        <ele>1236.674</ele>
        <time>2015-07-26T20:41:10Z</time>
      </trkpt>
      <trkpt lat="44.79114" lon="3.56587">
        <ele>1238.456</ele>
        <time>2015-07-26T20:41:30Z</time>
      </trkpt>
      <trkpt lat="44.79121" lon="3.56607">
        <ele>1237.821</ele>
        <time>2015-07-26T20:41:50Z</time>
      </trkpt>
      <trkpt lat="44.79182" lon="3.56628">
        <ele>1235.808</ele>
        <time>2015-07-26T20:42:10Z</time>
      </trkpt>
      <trkpt lat="44.79223" lon="3.56708">
        <ele>1244.563</ele>
        <time>2015-07-26T20:42:30Z</time>
      </trkpt>
      <trkpt lat="44.79224" lon="3.56745">
        <ele>1247.877</ele>
        <time>2015-07-26T20:42:50Z</time>
      </trkpt>
      <trkpt lat="44.79202" lon="3.56815">
        <ele>1255.824</ele>
        <time>2015-07-26T20:43:10Z</time>
      </trkpt>
      <trkpt lat="44.79211" lon="3.56887">
        <ele>1264.017</ele>
        <time>2015-07-26T20:43:30Z</time>
      </trkpt>
      <trkpt lat="44.79166" lon="3.56941">
        <ele>1266.958</ele>
        <time>2015-07-26T20:43:50Z</time>
      </trkpt>
      <trkpt lat="44.79129" lon="3.56983">
        <ele>1273.471</ele>
        <time>2015-07-26T20:44:10Z</time>
      </trkpt>
      <trkpt lat="44.79129" lon="3.57212">
        <ele>1283.387</ele>
        <time>2015-07-26T20:44:30Z</time>
      </trkpt>
      <trkpt lat="44.79144" lon="3.57243">
        <ele>1287.141</ele>
        <time>2015-07-26T20:44:50Z</time>
      </trkpt>
      <trkpt lat="44.79137" lon="3.57299">
        <ele>1289.297</ele>
        <time>2015-07-26T20:45:10Z</time>
      </trkpt>
      <trkpt lat="44.79234" lon="3.57277">
        <ele>1297.823</ele>
        <time>2015-07-26T20:45:30Z</time>
      </trkpt>
      <trkpt lat="44.79291" lon="3.5735">
        <ele>1299.725</ele>
        <time>2015-07-26T20:45:50Z</time>
      </trkpt>
      <trkpt lat="44.7938" lon="3.57412">
        <ele>1293.708</ele>
        <time>2015-07-26T20:46:10Z</time>
      </trkpt>
      <trkpt lat="44.79487" lon="3.57457">
        <ele>1286.145</ele>
        <time>2015-07-26T20:46:30Z</time>
      </trkpt>
      <trkpt lat="44.79593" lon="3.57449">
        <ele>1282.559</ele>
        <time>2015-07-26T20:46:50Z</time>
      </trkpt>
      <trkpt lat="44.79607" lon="3.57439">
        <ele>1282.076</ele>
        <time>2015-07-26T20:47:10Z</time>
      </trkpt>
      <trkpt lat="44.79701" lon="3.5744">
        <ele>1282.539</ele>
        <time>2015-07-26T20:47:30Z</time>
      </trkpt>
      <trkpt lat="44.79756" lon="3.5746">
        <ele>1283.52</ele>
        <time>2015-07-26T20:47:50Z</time>
      </trkpt>
      <trkpt lat="44.79813" lon="3.57463">
        <ele>1283.513</ele>
        <time>2015-07-26T20:48:10Z</time>
      </trkpt>
      <trkpt lat="44.7992" lon="3.57501">
        <ele>1281.819</ele>
        <time>2015-07-26T20:48:30Z</time>
      </trkpt>
      <trkpt lat="44.79993" lon="3.57553">
        <ele>1276.753</ele>
        <time>2015-07-26T20:48:50Z</time>
      </trkpt>
      <trkpt lat="44.80121" lon="3.57667">
        <ele>1277.073</ele>
        <time>2015-07-26T20:49:10Z</time>
      </trkpt>
      <trkpt lat="44.80127" lon="3.57817">
        <ele>1276.385</ele>
        <time>2015-07-26T20:49:30Z</time>
      </trkpt>
      <trkpt lat="44.80084" lon="3.58019">
        <ele>1273.013</ele>
        <time>2015-07-26T20:49:50Z</time>
      </trkpt>
      <trkpt lat="44.80014" lon="3.58158">
        <ele>1270.708</ele>
        <time>2015-07-26T20:50:10Z</time>
      </trkpt>
      <trkpt lat="44.79996" lon="3.5821">
        <ele>1269.513</ele>
        <time>2015-07-26T20:50:30Z</time>
      </trkpt>
      <trkpt lat="44.79861" lon="3.58307">
        <ele>1268.117</ele>
        <time>2015-07-26T20:50:50Z</time>
      </trkpt>
      <trkpt lat="44.79686" lon="3.58462">
        <ele>1265.434</ele>
        <time>2015-07-26T20:51:10Z</time>
      </trkpt>
      <trkpt lat="44.79592" lon="3.5859">
        <ele>1259.837</ele>
        <time>2015-07-26T20:51:30Z</time>
      </trkpt>
      <trkpt lat="44.79483" lon="3.5887">
        <ele>1254.548</ele>
        <time>2015-07-26T20:51:50Z</time>
      </trkpt>
      <trkpt lat="44.79433" lon="3.59037">
        <ele>1251.121</ele>
        <time>2015-07-26T20:52:10Z</time>
      </trkpt>
      <trkpt lat="44.7943" lon="3.59131">
        <ele>1253.377</ele>
        <time>2015-07-26T20:52:30Z</time>
      </trkpt>
      <trkpt lat="44.79447" lon="3.59284">
        <ele>1257.991</ele>
        <time>2015-07-26T20:52:50Z</time>
      </trkpt>
      <trkpt lat="44.79475" lon="3.59406">
        <ele>1262.896</ele>
        <time>2015-07-26T20:53:10Z</time>
      </trkpt>
      <trkpt lat="44.79484" lon="3.59473">
        <ele>1261.731</ele>
        <time>2015-07-26T20:53:30Z</time>
      </trkpt>
      <trkpt lat="44.79487" lon="3.59601">
        <ele>1257.724</ele>
        <time>2015-07-26T20:53:50Z</time>
      </trkpt>
      <trkpt lat="44.79479" lon="3.59749">
        <ele>1251.108</ele>
        <time>2015-07-26T20:54:10Z</time>
      </trkpt>
      <trkpt lat="44.79503" lon="3.59933">
        <ele>1238.045</ele>
        <time>2015-07-26T20:54:30Z</time>
      </trkpt>
      <trkpt lat="44.79456" lon="3.60234">
        <ele>1230.999</ele>
        <time>2015-07-26T20:54:50Z</time>
      </trkpt>
      <trkpt lat="44.79442" lon="3.60563">
        <ele>1222.476</ele>
        <time>2015-07-26T20:55:10Z</time>
      </trkpt>
      <trkpt lat="44.79471" lon="3.60672">
        <ele>1221.059</ele>
        <time>2015-07-26T20:55:30Z</time>
      </trkpt>
      <trkpt lat="44.79453" lon="3.61049">
        <ele>1215.14</ele>
        <time>2015-07-26T20:55:50Z</time>
      </trkpt>
      <trkpt lat="44.79436" lon="3.61179">
        <ele>1211.513</ele>
        <time>2015-07-26T20:56:10Z</time>
      </trkpt>
      <trkpt lat="44.79388" lon="3.6131">
        <ele>1210.899</ele>
        <time>2015-07-26T20:56:30Z</time>
      </trkpt>
      <trkpt lat="44.79422" lon="3.61444">
        <ele>1208.093</ele>
        <time>2015-07-26T20:56:50Z</time>
      </trkpt>
      <trkpt lat="44.79361" lon="3.61555">
        <ele>1203.027</ele>
        <time>2015-07-26T20:57:10Z</time>
      </trkpt>
      <trkpt lat="44.79348" lon="3.6163">
        <ele>1196.768</ele>
        <time>2015-07-26T20:57:30Z</time>
      </trkpt>
      <trkpt lat="44.79278" lon="3.61693">
        <ele>1199.114</ele>
        <time>2015-07-26T20:57:50Z</time>
      </trkpt>
      <trkpt lat="44.79229" lon="3.61699">
        <ele>1200.208</ele>
        <time>2015-07-26T20:58:10Z</time>
      </trkpt>
      <trkpt lat="44.79036" lon="3.61906">
        <ele>1198.388</ele>
        <time>2015-07-26T20:58:30Z</time>
      </trkpt>
      <trkpt lat="44.78957" lon="3.62004">
        <ele>1193.112</ele>
        <time>2015-07-26T20:58:50Z</time>
      </trkpt>
      <trkpt lat="44.78878" lon="3.62055">
        <ele>1182.699</ele>
        <time>2015-07-26T20:59:10Z</time>
      </trkpt>
      <trkpt lat="44.78846" lon="3.62114">
        <ele>1177.222</ele>
        <time>2015-07-26T20:59:30Z</time>
      </trkpt>
      <trkpt lat="44.78762" lon="3.62138">
        <ele>1168.383</ele>
        <time>2015-07-26T20:59:50Z</time>
      </trkpt>
      <trkpt lat="44.78749" lon="3.62163">
        <ele>1166.076</ele>
        <time>2015-07-26T21:00:10Z</time>
      </trkpt>
      <trkpt lat="44.78745" lon="3.62235">
        <ele>1162.312</ele>
        <time>2015-07-26T21:00:30Z</time>
      </trkpt>
      <trkpt lat="44.78752" lon="3.62262">
        <ele>1160.476</ele>
        <time>2015-07-26T21:00:50Z</time>
      </trkpt>
      <trkpt lat="44.78745" lon="3.62311">
        <ele>1156.386</ele>
        <time>2015-07-26T21:01:10Z</time>
      </trkpt>
      <trkpt lat="44.78733" lon="3.62336">
        <ele>1154.66</ele>
        <time>2015-07-26T21:01:30Z</time>
      </trkpt>
      <trkpt lat="44.78724" lon="3.62402">
        <ele>1154.326</ele>
        <time>2015-07-26T21:01:50Z</time>
      </trkpt>
      <trkpt lat="44.78723" lon="3.62479">
        <ele>1153.308</ele>
        <time>2015-07-26T21:02:10Z</time>
      </trkpt>
      <trkpt lat="44.78695" lon="3.62533">
        <ele>1151.074</ele>
        <time>2015-07-26T21:02:30Z</time>
      </trkpt>
      <trkpt lat="44.78674" lon="3.62588">
        <ele>1150.828</ele>
        <time>2015-07-26T21:02:50Z</time>
      </trkpt>
      <trkpt lat="44.78656" lon="3.62619">
        <ele>1151.075</ele>
        <time>2015-07-26T21:03:10Z</time>
      </trkpt>
      <trkpt lat="44.78603" lon="3.6265">
        <ele>1146.488</ele>
        <time>2015-07-26T21:03:30Z</time>
      </trkpt>
      <trkpt lat="44.78555" lon="3.62742">
        <ele>1141.929</ele>
        <time>2015-07-26T21:03:50Z</time>
      </trkpt>
      <trkpt lat="44.7854" lon="3.62818">
        <ele>1139.422</ele>
        <time>2015-07-26T21:04:10Z</time>
      </trkpt>
      <trkpt lat="44.7855" lon="3.62879">
        <ele>1140.058</ele>
        <time>2015-07-26T21:04:30Z</time>
      </trkpt>
      <trkpt lat="44.78531" lon="3.62898">
        <ele>1137.112</ele>
        <time>2015-07-26T21:04:50Z</time>
      </trkpt>
      <trkpt lat="44.78524" lon="3.62943">
        <ele>1141.073</ele>
        <time>2020-02-16T00:26:09Z</time>
      </trkpt>
      <trkpt lat="44.7854" lon="3.63125">
        <ele>1147.585</ele>
        <time>2015-07-26T21:05:30Z</time>
      </trkpt>
      <trkpt lat="44.78618" lon="3.63263">
        <ele>1144.413</ele>
        <time>2015-07-26T21:05:50Z</time>
      </trkpt>
      <trkpt lat="44.78628" lon="3.63296">
        <ele>1147.108</ele>
        <time>2015-07-26T21:06:10Z</time>
      </trkpt>
      <trkpt lat="44.78666" lon="3.63344">
        <ele>1142.123</ele>
        <time>2015-07-26T21:06:30Z</time>
      </trkpt>
      <trkpt lat="44.78666" lon="3.63385">
        <ele>1139.637</ele>
        <time>2015-07-26T21:06:50Z</time>
      </trkpt>
      <trkpt lat="44.78614" lon="3.63403">
        <ele>1141.554</ele>
        <time>2015-07-26T21:07:10Z</time>
      </trkpt>
      <trkpt lat="44.78555" lon="3.63448">
        <ele>1138.387</ele>
        <time>2015-07-26T21:07:30Z</time>
      </trkpt>
      <trkpt lat="44.78534" lon="3.6351">
        <ele>1128.928</ele>
        <time>2015-07-26T21:07:50Z</time>
      </trkpt>
      <trkpt lat="44.78566" lon="3.63569">
        <ele>1121.471</ele>
        <time>2015-07-26T21:08:10Z</time>
      </trkpt>
      <trkpt lat="44.78639" lon="3.63596">
        <ele>1128.827</ele>
        <time>2015-07-26T21:08:30Z</time>
      </trkpt>
      <trkpt lat="44.78704" lon="3.63619">
        <ele>1132.851</ele>
        <time>2015-07-26T21:08:50Z</time>
      </trkpt>
      <trkpt lat="44.78755" lon="3.63661">
        <ele>1136.529</ele>
        <time>2015-07-26T21:09:10Z</time>
      </trkpt>
      <trkpt lat="44.78764" lon="3.63683">
        <ele>1139.4</ele>
        <time>2015-07-26T21:09:30Z</time>
      </trkpt>
      <trkpt lat="44.78695" lon="3.63697">
        <ele>1145.42</ele>
        <time>2015-07-26T21:09:50Z</time>
      </trkpt>
      <trkpt lat="44.78632" lon="3.63722">
        <ele>1152.108</ele>
        <time>2015-07-26T21:10:10Z</time>
      </trkpt>
      <trkpt lat="44.78592" lon="3.63756">
        <ele>1158.218</ele>
        <time>2015-07-26T21:10:30Z</time>
      </trkpt>
      <trkpt lat="44.78573" lon="3.63758">
        <ele>1156.562</ele>
        <time>2015-07-26T21:10:50Z</time>
      </trkpt>
      <trkpt lat="44.78565" lon="3.63823">
        <ele>1170.249</ele>
        <time>2015-07-26T21:11:10Z</time>
      </trkpt>
      <trkpt lat="44.78529" lon="3.63902">
        <ele>1178.432</ele>
        <time>2015-07-26T21:11:30Z</time>
      </trkpt>
      <trkpt lat="44.78456" lon="3.63959">
        <ele>1187.343</ele>
        <time>2015-07-26T21:11:50Z</time>
      </trkpt>
      <trkpt lat="44.7841" lon="3.64007">
        <ele>1191.816</ele>
        <time>2015-07-26T21:12:10Z</time>
      </trkpt>
      <trkpt lat="44.78363" lon="3.64041">
        <ele>1194.542</ele>
        <time>2015-07-26T21:12:30Z</time>
      </trkpt>
      <trkpt lat="44.7832" lon="3.64117">
        <ele>1201.976</ele>
        <time>2015-07-26T21:12:50Z</time>
      </trkpt>
      <trkpt lat="44.78278" lon="3.6417">
        <ele>1209.211</ele>
        <time>2015-07-26T21:13:10Z</time>
      </trkpt>
      <trkpt lat="44.78225" lon="3.64189">
        <ele>1212.621</ele>
        <time>2015-07-26T21:13:30Z</time>
      </trkpt>
      <trkpt lat="44.78182" lon="3.64239">
        <ele>1215.603</ele>
        <time>2015-07-26T21:13:50Z</time>
      </trkpt>
      <trkpt lat="44.78129" lon="3.64294">
        <ele>1216.408</ele>
        <time>2015-07-26T21:14:10Z</time>
      </trkpt>
      <trkpt lat="44.78092" lon="3.64359">
        <ele>1213.397</ele>
        <time>2015-07-26T21:14:30Z</time>
      </trkpt>
      <trkpt lat="44.78075" lon="3.64372">
        <ele>1212.791</ele>
        <time>2015-07-26T21:14:50Z</time>
      </trkpt>
      <trkpt lat="44.78079" lon="3.64411">
        <ele>1212.238</ele>
        <time>2015-07-26T21:15:10Z</time>
      </trkpt>
      <trkpt lat="44.78078" lon="3.64558">
        <ele>1201.221</ele>
        <time>2015-07-26T21:15:30Z</time>
      </trkpt>
      <trkpt lat="44.78063" lon="3.64587">
        <ele>1196.212</ele>
        <time>2015-07-26T21:15:50Z</time>
      </trkpt>
      <trkpt lat="44.78081" lon="3.64614">
        <ele>1194.715</ele>
        <time>2015-07-26T21:16:10Z</time>
      </trkpt>
      <trkpt lat="44.78074" lon="3.64662">
        <ele>1190.781</ele>
        <time>2015-07-26T21:16:30Z</time>
      </trkpt>
      <trkpt lat="44.78014" lon="3.64676">
        <ele>1187.645</ele>
        <time>2015-07-26T21:16:50Z</time>
      </trkpt>
      <trkpt lat="44.77982" lon="3.6466">
        <ele>1188.529</ele>
        <time>2015-07-26T21:17:10Z</time>
      </trkpt>
      <trkpt lat="44.77912" lon="3.64661">
        <ele>1182.4</ele>
        <time>2015-07-26T21:17:30Z</time>
      </trkpt>
      <trkpt lat="44.77824" lon="3.64616">
        <ele>1179.52</ele>
        <time>2015-07-26T21:17:50Z</time>
      </trkpt>
      <trkpt lat="44.7776" lon="3.64562">
        <ele>1183.108</ele>
        <time>2015-07-26T21:18:10Z</time>
      </trkpt>
      <trkpt lat="44.77748" lon="3.64529">
        <ele>1185.498</ele>
        <time>2015-07-26T21:18:30Z</time>
      </trkpt>
      <trkpt lat="44.77664" lon="3.64601">
        <ele>1171.562</ele>
        <time>2015-07-26T21:18:50Z</time>
      </trkpt>
      <trkpt lat="44.7761" lon="3.64708">
        <ele>1163.559</ele>
        <time>2015-07-26T21:19:10Z</time>
      </trkpt>
      <trkpt lat="44.77551" lon="3.64754">
        <ele>1167.182</ele>
        <time>2015-07-26T21:19:30Z</time>
      </trkpt>
      <trkpt lat="44.77517" lon="3.64729">
        <ele>1173.283</ele>
        <time>2015-07-26T21:19:50Z</time>
      </trkpt>
      <trkpt lat="44.77495" lon="3.64799">
        <ele>1175.996</ele>
        <time>2015-07-26T21:20:10Z</time>
      </trkpt>
      <trkpt lat="44.77457" lon="3.64849">
        <ele>1181.942</ele>
        <time>2015-07-26T21:20:30Z</time>
      </trkpt>
      <trkpt lat="44.77398" lon="3.64925">
        <ele>1187.246</ele>
        <time>2015-07-26T21:20:50Z</time>
      </trkpt>
      <trkpt lat="44.77319" lon="3.64983">
        <ele>1192.941</ele>
        <time>2015-07-26T21:21:10Z</time>
      </trkpt>
      <trkpt lat="44.7731" lon="3.65022">
        <ele>1194.581</ele>
        <time>2015-07-26T21:21:30Z</time>
      </trkpt>
      <trkpt lat="44.77262" lon="3.6498">
        <ele>1198.309</ele>
        <time>2020-11-20T23:48:25Z</time>
      </trkpt>
      <trkpt lat="44.77243" lon="3.65035">
        <ele>1198.708</ele>
        <time>2020-11-20T23:48:45Z</time>
      </trkpt>
      <trkpt lat="44.77243" lon="3.65064">
        <ele>1199.22</ele>
        <time>2020-11-20T23:49:05Z</time>
      </trkpt>
      <trkpt lat="44.77287" lon="3.65191">
        <ele>1203.194</ele>
        <time>2020-11-20T23:49:25Z</time>
      </trkpt>
      <trkpt lat="44.77265" lon="3.65194">
        <ele>1204.891</ele>
        <time>2015-07-26T21:22:50Z</time>
      </trkpt>
      <trkpt lat="44.77234" lon="3.65243">
        <ele>1209.644</ele>
        <time>2015-07-26T21:23:10Z</time>
      </trkpt>
      <trkpt lat="44.77169" lon="3.65253">
        <ele>1214.015</ele>
        <time>2015-07-26T21:23:30Z</time>
      </trkpt>
      <trkpt lat="44.77142" lon="3.65244">
        <ele>1212.768</ele>
        <time>2015-07-26T21:23:50Z</time>
      </trkpt>
      <trkpt lat="44.7709" lon="3.65193">
        <ele>1213.124</ele>
        <time>2015-07-26T21:24:10Z</time>
      </trkpt>
      <trkpt lat="44.77065" lon="3.65132">
        <ele>1219.398</ele>
        <time>2015-07-26T21:24:30Z</time>
      </trkpt>
      <trkpt lat="44.76976" lon="3.65112">
        <ele>1230.728</ele>
        <time>2015-07-26T21:24:50Z</time>
      </trkpt>
      <trkpt lat="44.76891" lon="3.65076">
        <ele>1236.789</ele>
        <time>2015-07-26T21:25:10Z</time>
      </trkpt>
      <trkpt lat="44.76828" lon="3.65076">
        <ele>1238.517</ele>
        <time>2015-07-26T21:25:30Z</time>
      </trkpt>
      <trkpt lat="44.76775" lon="3.65059">
        <ele>1238.508</ele>
        <time>2015-07-26T21:25:50Z</time>
      </trkpt>
      <trkpt lat="44.76714" lon="3.65072">
        <ele>1240.548</ele>
        <time>2015-07-26T21:26:10Z</time>
      </trkpt>
      <trkpt lat="44.76587" lon="3.65065">
        <ele>1246.222</ele>
        <time>2015-07-26T21:26:30Z</time>
      </trkpt>
      <trkpt lat="44.76299" lon="3.65095">
        <ele>1241.049</ele>
        <time>2015-07-26T21:26:50Z</time>
      </trkpt>
      <trkpt lat="44.76189" lon="3.65112">
        <ele>1240.242</ele>
        <time>2015-07-26T21:27:10Z</time>
      </trkpt>
      <trkpt lat="44.76157" lon="3.65299">
        <ele>1240.823</ele>
        <time>2015-07-26T21:27:30Z</time>
      </trkpt>
      <trkpt lat="44.76094" lon="3.65376">
        <ele>1242.426</ele>
        <time>2015-07-26T21:27:50Z</time>
      </trkpt>
      <trkpt lat="44.761" lon="3.6549">
        <ele>1242.452</ele>
        <time>2015-07-26T21:28:10Z</time>
      </trkpt>
      <trkpt lat="44.76083" lon="3.6557">
        <ele>1243.536</ele>
        <time>2015-07-26T21:28:30Z</time>
      </trkpt>
      <trkpt lat="44.76029" lon="3.657">
        <ele>1241.023</ele>
        <time>2015-07-26T21:28:50Z</time>
      </trkpt>
      <trkpt lat="44.76" lon="3.65795">
        <ele>1239.483</ele>
        <time>2015-07-26T21:29:10Z</time>
      </trkpt>
      <trkpt lat="44.75991" lon="3.65852">
        <ele>1239.111</ele>
        <time>2015-07-26T21:29:30Z</time>
      </trkpt>
      <trkpt lat="44.75949" lon="3.65905">
        <ele>1236.108</ele>
        <time>2015-07-26T21:29:50Z</time>
      </trkpt>
      <trkpt lat="44.75876" lon="3.6595">
        <ele>1224.628</ele>
        <time>2015-07-26T21:30:10Z</time>
      </trkpt>
      <trkpt lat="44.75826" lon="3.65957">
        <ele>1222.562</ele>
        <time>2015-07-26T21:30:30Z</time>
      </trkpt>
      <trkpt lat="44.75758" lon="3.66025">
        <ele>1218.889</ele>
        <time>2015-07-26T21:30:50Z</time>
      </trkpt>
      <trkpt lat="44.75695" lon="3.66044">
        <ele>1214.382</ele>
        <time>2015-07-26T21:31:10Z</time>
      </trkpt>
      <trkpt lat="44.75684" lon="3.66078">
        <ele>1210.563</ele>
        <time>2015-07-26T21:31:30Z</time>
      </trkpt>
      <trkpt lat="44.75648" lon="3.66115">
        <ele>1207.736</ele>
        <time>2015-07-26T21:31:50Z</time>
      </trkpt>
      <trkpt lat="44.75623" lon="3.66235">
        <ele>1206.772</ele>
        <time>2015-07-26T21:32:10Z</time>
      </trkpt>
      <trkpt lat="44.75633" lon="3.66309">
        <ele>1205.716</ele>
        <time>2015-07-26T21:32:30Z</time>
      </trkpt>
      <trkpt lat="44.75606" lon="3.66365">
        <ele>1205.967</ele>
        <time>2015-07-26T21:32:50Z</time>
      </trkpt>
      <trkpt lat="44.75409" lon="3.66579">
        <ele>1215.481</ele>
        <time>2015-07-26T21:33:10Z</time>
      </trkpt>
      <trkpt lat="44.75312" lon="3.66704">
        <ele>1210.719</ele>
        <time>2015-07-26T21:33:30Z</time>
      </trkpt>
      <trkpt lat="44.75255" lon="3.66823">
        <ele>1204.408</ele>
        <time>2015-07-26T21:33:50Z</time>
      </trkpt>
      <trkpt lat="44.75237" lon="3.66877">
        <ele>1201.592</ele>
        <time>2015-07-26T21:34:10Z</time>
      </trkpt>
      <trkpt lat="44.75159" lon="3.66998">
        <ele>1196.516</ele>
        <time>2015-07-26T21:34:30Z</time>
      </trkpt>
      <trkpt lat="44.75117" lon="3.67087">
        <ele>1190.153</ele>
        <time>2015-07-26T21:34:50Z</time>
      </trkpt>
      <trkpt lat="44.7509" lon="3.67088">
        <ele>1188.946</ele>
        <time>2015-07-26T21:35:10Z</time>
      </trkpt>
      <trkpt lat="44.75073" lon="3.67061">
        <ele>1189.437</ele>
        <time>2015-07-26T21:35:30Z</time>
      </trkpt>
      <trkpt lat="44.75037" lon="3.6707">
        <ele>1188.21</ele>
        <time>2015-07-26T21:35:50Z</time>
      </trkpt>
      <trkpt lat="44.74994" lon="3.67099">
        <ele>1187.896</ele>
        <time>2015-07-26T21:36:10Z</time>
      </trkpt>
      <trkpt lat="44.7495" lon="3.67088">
        <ele>1187.12</ele>
        <time>2015-07-26T21:36:30Z</time>
      </trkpt>
      <trkpt lat="44.74893" lon="3.67154">
        <ele>1201.234</ele>
        <time>2015-07-26T21:36:50Z</time>
      </trkpt>
      <trkpt lat="44.74885" lon="3.67197">
        <ele>1206.355</ele>
        <time>2015-07-26T21:37:10Z</time>
      </trkpt>
      <trkpt lat="44.74887" lon="3.67259">
        <ele>1210.81</ele>
        <time>2015-07-26T21:37:30Z</time>
      </trkpt>
      <trkpt lat="44.74827" lon="3.67368">
        <ele>1221.508</ele>
        <time>2015-07-26T21:37:50Z</time>
      </trkpt>
      <trkpt lat="44.74699" lon="3.67461">
        <ele>1235.499</ele>
        <time>2015-07-26T21:38:10Z</time>
      </trkpt>
      <trkpt lat="44.74612" lon="3.67515">
        <ele>1238.053</ele>
        <time>2015-07-26T21:38:30Z</time>
      </trkpt>
      <trkpt lat="44.74492" lon="3.67553">
        <ele>1240.25</ele>
        <time>2015-07-26T21:38:50Z</time>
      </trkpt>
      <trkpt lat="44.74446" lon="3.67601">
        <ele>1243.933</ele>
        <time>2015-07-26T21:39:10Z</time>
      </trkpt>
      <trkpt lat="44.74404" lon="3.67632">
        <ele>1244.744</ele>
        <time>2015-07-26T21:39:30Z</time>
      </trkpt>
      <trkpt lat="44.74347" lon="3.67711">
        <ele>1247.017</ele>
        <time>2015-07-26T21:39:50Z</time>
      </trkpt>
      <trkpt lat="44.74441" lon="3.67807">
        <ele>1243.023</ele>
        <time>2015-07-26T21:40:10Z</time>
      </trkpt>
      <trkpt lat="44.74457" lon="3.67833">
        <ele>1240.257</ele>
        <time>2015-07-26T21:40:30Z</time>
      </trkpt>
      <trkpt lat="44.74526" lon="3.67901">
        <ele>1234.284</ele>
        <time>2015-07-26T21:40:50Z</time>
      </trkpt>
      <trkpt lat="44.7452" lon="3.68004">
        <ele>1227.907</ele>
        <time>2015-07-26T21:41:10Z</time>
      </trkpt>
      <trkpt lat="44.74499" lon="3.68105">
        <ele>1226.217</ele>
        <time>2015-07-26T21:41:30Z</time>
      </trkpt>
      <trkpt lat="44.74462" lon="3.68162">
        <ele>1223.608</ele>
        <time>2015-07-26T21:41:50Z</time>
      </trkpt>
      <trkpt lat="44.74427" lon="3.68226">
        <ele>1221.344</ele>
        <time>2015-07-26T21:42:10Z</time>
      </trkpt>
      <trkpt lat="44.74474" lon="3.68325">
        <ele>1210.468</ele>
        <time>2015-07-26T21:42:30Z</time>
      </trkpt>
      <trkpt lat="44.74484" lon="3.68388">
        <ele>1208.755</ele>
        <time>2015-07-26T21:42:50Z</time>
      </trkpt>
      <trkpt lat="44.7448" lon="3.68438">
        <ele>1206.138</ele>
        <time>2015-07-26T21:43:10Z</time>
      </trkpt>
      <trkpt lat="44.74488" lon="3.68518">
        <ele>1202.069</ele>
        <time>2015-07-26T21:43:30Z</time>
      </trkpt>
      <trkpt lat="44.74516" lon="3.68624">
        <ele>1210.052</ele>
        <time>2015-07-26T21:43:50Z</time>
      </trkpt>
      <trkpt lat="44.74536" lon="3.68747">
        <ele>1214.028</ele>
        <time>2015-07-26T21:44:10Z</time>
      </trkpt>
      <trkpt lat="44.74586" lon="3.6898">
        <ele>1212.882</ele>
        <time>2015-07-26T21:44:30Z</time>
      </trkpt>
      <trkpt lat="44.74593" lon="3.69108">
        <ele>1209.876</ele>
        <time>2015-07-26T21:44:50Z</time>
      </trkpt>
      <trkpt lat="44.74612" lon="3.6929">
        <ele>1202.79</ele>
        <time>2015-07-26T21:45:10Z</time>
      </trkpt>
      <trkpt lat="44.74645" lon="3.69404">
        <ele>1198.319</ele>
        <time>2015-07-26T21:45:30Z</time>
      </trkpt>
      <trkpt lat="44.74661" lon="3.69523">
        <ele>1195.208</ele>
        <time>2015-07-26T21:45:50Z</time>
      </trkpt>
      <trkpt lat="44.74753" lon="3.69729">
        <ele>1191.163</ele>
        <time>2015-07-26T21:46:10Z</time>
      </trkpt>
      <trkpt lat="44.74787" lon="3.69779">
        <ele>1188.257</ele>
        <time>2015-07-26T21:46:30Z</time>
      </trkpt>
      <trkpt lat="44.74832" lon="3.69869">
        <ele>1182.124</ele>
        <time>2015-07-26T21:46:50Z</time>
      </trkpt>
      <trkpt lat="44.74842" lon="3.69902">
        <ele>1182.047</ele>
        <time>2015-07-26T21:47:10Z</time>
      </trkpt>
      <trkpt lat="44.75039" lon="3.70011">
        <ele>1176.738</ele>
        <time>2015-07-26T21:47:30Z</time>
      </trkpt>
      <trkpt lat="44.75109" lon="3.70083">
        <ele>1166.551</ele>
        <time>2020-02-16T01:09:09Z</time>
      </trkpt>
      <trkpt lat="44.75158" lon="3.70143">
        <ele>1160.957</ele>
        <time>2015-07-26T21:47:50Z</time>
      </trkpt>
      <trkpt lat="44.75232" lon="3.70333">
        <ele>1163.961</ele>
        <time>2015-07-26T21:48:10Z</time>
      </trkpt>
      <trkpt lat="44.75261" lon="3.70381">
        <ele>1159.144</ele>
        <time>2015-07-26T21:48:30Z</time>
      </trkpt>
      <trkpt lat="44.75308" lon="3.70549">
        <ele>1149.605</ele>
        <time>2015-07-26T21:48:50Z</time>
      </trkpt>
      <trkpt lat="44.75335" lon="3.70701">
        <ele>1141.715</ele>
        <time>2015-07-26T21:49:10Z</time>
      </trkpt>
      <trkpt lat="44.75362" lon="3.70782">
        <ele>1138.008</ele>
        <time>2015-07-26T21:49:30Z</time>
      </trkpt>
      <trkpt lat="44.7539" lon="3.70821">
        <ele>1132.24</ele>
        <time>2015-07-26T21:49:50Z</time>
      </trkpt>
      <trkpt lat="44.75417" lon="3.70897">
        <ele>1123.324</ele>
        <time>2015-07-26T21:50:10Z</time>
      </trkpt>
      <trkpt lat="44.75443" lon="3.71085">
        <ele>1113.391</ele>
        <time>2015-07-26T21:50:30Z</time>
      </trkpt>
      <trkpt lat="44.75445" lon="3.71154">
        <ele>1109.474</ele>
        <time>2020-02-16T01:12:29Z</time>
      </trkpt>
      <trkpt lat="44.75438" lon="3.71257">
        <ele>1102.045</ele>
        <time>2015-07-26T21:50:50Z</time>
      </trkpt>
      <trkpt lat="44.75436" lon="3.7133">
        <ele>1089.788</ele>
        <time>2020-02-16T01:13:09Z</time>
      </trkpt>
      <trkpt lat="44.75403" lon="3.71404">
        <ele>1080.824</ele>
        <time>2015-07-26T21:51:50Z</time>
      </trkpt>
      <trkpt lat="44.75367" lon="3.71457">
        <ele>1071.588</ele>
        <time>2015-07-26T21:52:10Z</time>
      </trkpt>
      <trkpt lat="44.75366" lon="3.71485">
        <ele>1066.364</ele>
        <time>2015-07-26T21:52:30Z</time>
      </trkpt>
      <trkpt lat="44.75319" lon="3.71529">
        <ele>1065.106</ele>
        <time>2015-07-26T21:52:50Z</time>
      </trkpt>
      <trkpt lat="44.75301" lon="3.71577">
        <ele>1063.116</ele>
        <time>2015-07-26T21:53:10Z</time>
      </trkpt>
      <trkpt lat="44.75249" lon="3.71644">
        <ele>1066.408</ele>
        <time>2015-07-26T21:53:30Z</time>
      </trkpt>
      <trkpt lat="44.75239" lon="3.71693">
        <ele>1058.892</ele>
        <time>2015-07-26T21:53:50Z</time>
      </trkpt>
      <trkpt lat="44.75243" lon="3.71747">
        <ele>1048.296</ele>
        <time>2015-07-26T21:54:10Z</time>
      </trkpt>
      <trkpt lat="44.75241" lon="3.7186">
        <ele>1041.653</ele>
        <time>2015-07-26T21:54:30Z</time>
      </trkpt>
      <trkpt lat="44.75282" lon="3.71886">
        <ele>1035.666</ele>
        <time>2015-07-26T21:54:50Z</time>
      </trkpt>
      <trkpt lat="44.75304" lon="3.71958">
        <ele>1033.577</ele>
        <time>2015-07-26T21:55:10Z</time>
      </trkpt>
      <trkpt lat="44.75332" lon="3.72019">
        <ele>1030.25</ele>
        <time>2015-07-26T21:55:30Z</time>
      </trkpt>
      <trkpt lat="44.75326" lon="3.72089">
        <ele>1030.246</ele>
        <time>2015-07-26T21:55:50Z</time>
      </trkpt>
      <trkpt lat="44.7531" lon="3.72119">
        <ele>1029.04</ele>
        <time>2020-02-16T01:17:49Z</time>
      </trkpt>
      <trkpt lat="44.75311" lon="3.72173">
        <ele>1017.911</ele>
        <time>2020-02-16T01:18:09Z</time>
      </trkpt>
      <trkpt lat="44.7523" lon="3.72258">
        <ele>1005.121</ele>
        <time>2015-07-26T21:57:10Z</time>
      </trkpt>
      <trkpt lat="44.75177" lon="3.72336">
        <ele>1000.003</ele>
        <time>2015-07-26T21:57:30Z</time>
      </trkpt>
      <trkpt lat="44.75165" lon="3.72377">
        <ele>996.708</ele>
        <time>2020-11-21T00:24:45Z</time>
      </trkpt>
      <trkpt lat="44.75143" lon="3.72456">
        <ele>995.437</ele>
        <time>2020-11-21T00:25:05Z</time>
      </trkpt>
      <trkpt lat="44.75133" lon="3.7255">
        <ele>999.171</ele>
        <time>2020-11-21T00:25:25Z</time>
      </trkpt>
      <trkpt lat="44.75119" lon="3.72582">
        <ele>1003.688</ele>
        <time>2020-11-21T00:25:45Z</time>
      </trkpt>
      <trkpt lat="44.75111" lon="3.72622">
        <ele>1001.551</ele>
        <time>2020-11-21T00:26:05Z</time>
      </trkpt>
      <trkpt lat="44.75107" lon="3.72715">
        <ele>998.672</ele>
        <time>2020-11-21T00:26:25Z</time>
      </trkpt>
      <trkpt lat="44.75093" lon="3.72774">
        <ele>996.455</ele>
        <time>2020-11-21T00:26:45Z</time>
      </trkpt>
      <trkpt lat="44.75078" lon="3.72809">
        <ele>992.281</ele>
        <time>2020-11-21T00:27:05Z</time>
      </trkpt>
      <trkpt lat="44.75027" lon="3.7284">
        <ele>987.595</ele>
        <time>2020-11-21T00:27:25Z</time>
      </trkpt>
      <trkpt lat="44.75023" lon="3.72886">
        <ele>989.046</ele>
        <time>2020-11-21T00:27:45Z</time>
      </trkpt>
      <trkpt lat="44.7506" lon="3.72897">
        <ele>991.088</ele>
        <time>2020-11-21T00:28:05Z</time>
      </trkpt>
      <trkpt lat="44.75092" lon="3.72892">
        <ele>992.516</ele>
        <time>2020-11-21T00:28:25Z</time>
      </trkpt>
      <trkpt lat="44.75142" lon="3.72866">
        <ele>994.408</ele>
        <time>2020-11-21T00:28:45Z</time>
      </trkpt>
      <trkpt lat="44.75157" lon="3.72848">
        <ele>994.04</ele>
        <time>2020-11-21T00:29:05Z</time>
      </trkpt>
      <trkpt lat="44.75251" lon="3.72828">
        <ele>1003.124</ele>
        <time>2020-11-21T00:29:25Z</time>
      </trkpt>
      <trkpt lat="44.75226" lon="3.72855">
        <ele>1007.241</ele>
        <time>2020-11-21T00:29:45Z</time>
      </trkpt>
      <trkpt lat="44.75197" lon="3.7291">
        <ele>1015.964</ele>
        <time>2020-11-21T00:30:05Z</time>
      </trkpt>
      <trkpt lat="44.75188" lon="3.72937">
        <ele>1019.455</ele>
        <time>2015-07-26T22:01:30Z</time>
      </trkpt>
      <trkpt lat="44.7518" lon="3.73029">
        <ele>1027.158</ele>
        <time>2015-07-26T22:01:50Z</time>
      </trkpt>
      <trkpt lat="44.75171" lon="3.73086">
        <ele>1030.484</ele>
        <time>2015-07-26T22:02:10Z</time>
      </trkpt>
      <trkpt lat="44.75172" lon="3.73139">
        <ele>1032.418</ele>
        <time>2015-07-26T22:02:30Z</time>
      </trkpt>
      <trkpt lat="44.75164" lon="3.73184">
        <ele>1034.276</ele>
        <time>2015-07-26T22:02:50Z</time>
      </trkpt>
      <trkpt lat="44.75163" lon="3.73315">
        <ele>1039.59</ele>
        <time>2015-07-26T22:03:10Z</time>
      </trkpt>
      <trkpt lat="44.75112" lon="3.73362">
        <ele>1044.019</ele>
        <time>2015-07-26T22:03:30Z</time>
      </trkpt>
      <trkpt lat="44.75103" lon="3.7342">
        <ele>1048.608</ele>
        <time>2015-07-26T22:03:50Z</time>
      </trkpt>
      <trkpt lat="44.75077" lon="3.73497">
        <ele>1058.313</ele>
        <time>2015-07-26T22:04:10Z</time>
      </trkpt>
      <trkpt lat="44.75068" lon="3.73549">
        <ele>1060.157</ele>
        <time>2015-07-26T22:04:30Z</time>
      </trkpt>
      <trkpt lat="44.75042" lon="3.73629">
        <ele>1064.514</ele>
        <time>2015-07-26T22:04:50Z</time>
      </trkpt>
      <trkpt lat="44.75037" lon="3.73587">
        <ele>1063.847</ele>
        <time>2015-07-26T22:05:10Z</time>
      </trkpt>
      <trkpt lat="44.75017" lon="3.7355">
        <ele>1062.318</ele>
        <time>2015-07-26T22:05:30Z</time>
      </trkpt>
      <trkpt lat="44.74962" lon="3.73615">
        <ele>1064.531</ele>
        <time>2015-07-26T22:05:50Z</time>
      </trkpt>
      <trkpt lat="44.74889" lon="3.73744">
        <ele>1069.857</ele>
        <time>2015-07-26T22:06:10Z</time>
      </trkpt>
      <trkpt lat="44.74731" lon="3.73942">
        <ele>1081.251</ele>
        <time>2015-07-26T22:06:30Z</time>
      </trkpt>
      <trkpt lat="44.7467" lon="3.73975">
        <ele>1081.977</ele>
        <time>2015-07-26T22:06:50Z</time>
      </trkpt>
      <trkpt lat="44.74642" lon="3.74012">
        <ele>1082.661</ele>
        <time>2015-07-26T22:07:10Z</time>
      </trkpt>
      <trkpt lat="44.74557" lon="3.74085">
        <ele>1083.027</ele>
        <time>2020-02-16T01:28:49Z</time>
      </trkpt>
      <trkpt lat="44.74501" lon="3.74211">
        <ele>1079.008</ele>
        <time>2015-07-26T22:07:50Z</time>
      </trkpt>
      <trkpt lat="44.74456" lon="3.74284">
        <ele>1082.243</ele>
        <time>2015-07-26T22:08:10Z</time>
      </trkpt>
      <trkpt lat="44.7434" lon="3.7442">
        <ele>1082.167</ele>
        <time>2015-07-26T22:08:30Z</time>
      </trkpt>
      <trkpt lat="44.74209" lon="3.74518">
        <ele>1079.354</ele>
        <time>2015-07-26T22:08:50Z</time>
      </trkpt>
      <trkpt lat="44.74149" lon="3.74611">
        <ele>1077.927</ele>
        <time>2015-07-26T22:09:10Z</time>
      </trkpt>
      <trkpt lat="44.74053" lon="3.7471">
        <ele>1082.068</ele>
        <time>2015-07-26T22:09:30Z</time>
      </trkpt>
      <trkpt lat="44.73894" lon="3.74816">
        <ele>1081.151</ele>
        <time>2015-07-26T22:09:50Z</time>
      </trkpt>
      <trkpt lat="44.73854" lon="3.74902">
        <ele>1078.027</ele>
        <time>2015-07-26T22:10:10Z</time>
      </trkpt>
      <trkpt lat="44.7383" lon="3.74962">
        <ele>1079.641</ele>
        <time>2015-07-26T22:10:30Z</time>
      </trkpt>
      <trkpt lat="44.7378" lon="3.74989">
        <ele>1081.079</ele>
        <time>2015-07-26T22:10:50Z</time>
      </trkpt>
      <trkpt lat="44.73726" lon="3.75045">
        <ele>1082.105</ele>
        <time>2015-07-26T22:11:10Z</time>
      </trkpt>
      <trkpt lat="44.73641" lon="3.75121">
        <ele>1084.425</ele>
        <time>2015-07-26T22:11:30Z</time>
      </trkpt>
      <trkpt lat="44.7359" lon="3.75146">
        <ele>1082.508</ele>
        <time>2015-07-26T22:11:50Z</time>
      </trkpt>
      <trkpt lat="44.73504" lon="3.75216">
        <ele>1081.053</ele>
        <time>2015-07-26T22:12:10Z</time>
      </trkpt>
      <trkpt lat="44.734" lon="3.75279">
        <ele>1079.487</ele>
        <time>2015-07-26T22:12:30Z</time>
      </trkpt>
      <trkpt lat="44.73284" lon="3.75385">
        <ele>1081.014</ele>
        <time>2015-07-26T22:12:50Z</time>
      </trkpt>
      <trkpt lat="44.73252" lon="3.7547">
        <ele>1079.187</ele>
        <time>2015-07-26T22:13:10Z</time>
      </trkpt>
      <trkpt lat="44.73237" lon="3.75495">
        <ele>1079.568</ele>
        <time>2015-07-26T22:13:30Z</time>
      </trkpt>
      <trkpt lat="44.73222" lon="3.75579">
        <ele>1078.291</ele>
        <time>2015-07-26T22:13:50Z</time>
      </trkpt>
      <trkpt lat="44.7323" lon="3.75629">
        <ele>1074.837</ele>
        <time>2015-07-26T22:14:10Z</time>
      </trkpt>
      <trkpt lat="44.73222" lon="3.7565">
        <ele>1073.281</ele>
        <time>2015-07-26T22:14:30Z</time>
      </trkpt>
      <trkpt lat="44.73231" lon="3.75711">
        <ele>1069.365</ele>
        <time>2015-07-26T22:14:50Z</time>
      </trkpt>
      <trkpt lat="44.73238" lon="3.75756">
        <ele>1069.968</ele>
        <time>2015-07-26T22:15:10Z</time>
      </trkpt>
      <trkpt lat="44.73251" lon="3.75786">
        <ele>1071.214</ele>
        <time>2020-02-16T01:36:49Z</time>
      </trkpt>
      <trkpt lat="44.73266" lon="3.75847">
        <ele>1069.408</ele>
        <time>2020-02-16T01:37:09Z</time>
      </trkpt>
      <trkpt lat="44.73325" lon="3.75872">
        <ele>1057.332</ele>
        <time>2020-02-16T01:37:29Z</time>
      </trkpt>
      <trkpt lat="44.73376" lon="3.76016">
        <ele>1039.686</ele>
        <time>2020-02-16T01:37:49Z</time>
      </trkpt>
      <trkpt lat="44.73454" lon="3.76211">
        <ele>1030.943</ele>
        <time>2015-07-26T22:16:30Z</time>
      </trkpt>
      <trkpt lat="44.73523" lon="3.76347">
        <ele>1016.666</ele>
        <time>2015-07-26T22:16:50Z</time>
      </trkpt>
      <trkpt lat="44.73607" lon="3.76465">
        <ele>1004.777</ele>
        <time>2015-07-26T22:17:10Z</time>
      </trkpt>
      <trkpt lat="44.73642" lon="3.766">
        <ele>1005.86</ele>
        <time>2015-07-26T22:17:30Z</time>
      </trkpt>
      <trkpt lat="44.73763" lon="3.7679">
        <ele>1020.776</ele>
        <time>2015-07-26T22:17:50Z</time>
      </trkpt>
      <trkpt lat="44.73776" lon="3.76873">
        <ele>1029.34</ele>
        <time>2015-07-26T22:18:10Z</time>
      </trkpt>
      <trkpt lat="44.738" lon="3.7692">
        <ele>1031.219</ele>
        <time>2015-07-26T22:18:30Z</time>
      </trkpt>
      <trkpt lat="44.73779" lon="3.76959">
        <ele>1031.009</ele>
        <time>2015-07-26T22:18:50Z</time>
      </trkpt>
      <trkpt lat="44.73686" lon="3.7704">
        <ele>1032.519</ele>
        <time>2015-07-26T22:19:10Z</time>
      </trkpt>
      <trkpt lat="44.73584" lon="3.77115">
        <ele>1034.008</ele>
        <time>2015-07-26T22:19:30Z</time>
      </trkpt>
      <trkpt lat="44.73494" lon="3.77242">
        <ele>1038.867</ele>
        <time>2015-07-26T22:19:50Z</time>
      </trkpt>
      <trkpt lat="44.73433" lon="3.77368">
        <ele>1039.911</ele>
        <time>2015-07-26T22:20:10Z</time>
      </trkpt>
      <trkpt lat="44.73417" lon="3.77437">
        <ele>1043.558</ele>
        <time>2015-07-26T22:20:30Z</time>
      </trkpt>
      <trkpt lat="44.7336" lon="3.7761">
        <ele>1049.051</ele>
        <time>2015-07-26T22:20:50Z</time>
      </trkpt>
      <trkpt lat="44.73277" lon="3.77843">
        <ele>1052.082</ele>
        <time>2015-07-26T22:21:10Z</time>
      </trkpt>
      <trkpt lat="44.73251" lon="3.78016">
        <ele>1049.415</ele>
        <time>2015-07-26T22:21:30Z</time>
      </trkpt>
      <trkpt lat="44.73206" lon="3.7815">
        <ele>1044.481</ele>
        <time>2015-07-26T22:21:50Z</time>
      </trkpt>
      <trkpt lat="44.73203" lon="3.78255">
        <ele>1042.555</ele>
        <time>2015-07-26T22:22:10Z</time>
      </trkpt>
      <trkpt lat="44.7318" lon="3.7833">
        <ele>1040.727</ele>
        <time>2015-07-26T22:22:30Z</time>
      </trkpt>
      <trkpt lat="44.73177" lon="3.78427">
        <ele>1042.268</ele>
        <time>2015-07-26T22:22:50Z</time>
      </trkpt>
      <trkpt lat="44.73186" lon="3.78462">
        <ele>1042.314</ele>
        <time>2015-07-26T22:23:10Z</time>
      </trkpt>
      <trkpt lat="44.73177" lon="3.78551">
        <ele>1043.508</ele>
        <time>2015-07-26T22:23:30Z</time>
      </trkpt>
      <trkpt lat="44.73151" lon="3.78694">
        <ele>1043.778</ele>
        <time>2015-07-26T22:23:50Z</time>
      </trkpt>
      <trkpt lat="44.73126" lon="3.78762">
        <ele>1041.352</ele>
        <time>2015-07-26T22:24:10Z</time>
      </trkpt>
      <trkpt lat="44.73124" lon="3.78825">
        <ele>1036.059</ele>
        <time>2015-07-26T22:24:30Z</time>
      </trkpt>
      <trkpt lat="44.73105" lon="3.78862">
        <ele>1034.282</ele>
        <time>2015-07-26T22:24:50Z</time>
      </trkpt>
      <trkpt lat="44.73103" lon="3.78932">
        <ele>1033.023</ele>
        <time>2015-07-26T22:25:10Z</time>
      </trkpt>
      <trkpt lat="44.7312" lon="3.79007">
        <ele>1034.516</ele>
        <time>2015-07-26T22:25:30Z</time>
      </trkpt>
      <trkpt lat="44.73114" lon="3.79064">
        <ele>1039.312</ele>
        <time>2015-07-26T22:25:50Z</time>
      </trkpt>
      <trkpt lat="44.73118" lon="3.79114">
        <ele>1034.346</ele>
        <time>2015-07-26T22:26:10Z</time>
      </trkpt>
      <trkpt lat="44.73114" lon="3.79184">
        <ele>1027.528</ele>
        <time>2015-07-26T22:26:30Z</time>
      </trkpt>
      <trkpt lat="44.73065" lon="3.79386">
        <ele>1023.589</ele>
        <time>2015-07-26T22:26:50Z</time>
      </trkpt>
      <trkpt lat="44.73071" lon="3.79437">
        <ele>1022.817</ele>
        <time>2015-07-26T22:27:10Z</time>
      </trkpt>
      <trkpt lat="44.73087" lon="3.79456">
        <ele>1024.608</ele>
        <time>2015-07-26T22:27:30Z</time>
      </trkpt>
      <trkpt lat="44.73086" lon="3.79507">
        <ele>1019.848</ele>
        <time>2015-07-26T22:27:50Z</time>
      </trkpt>
      <trkpt lat="44.73095" lon="3.79583">
        <ele>1019.772</ele>
        <time>2015-07-26T22:28:10Z</time>
      </trkpt>
      <trkpt lat="44.73099" lon="3.7964">
        <ele>1021.239</ele>
        <time>2015-07-26T22:28:30Z</time>
      </trkpt>
      <trkpt lat="44.7311" lon="3.79686">
        <ele>1020.532</ele>
        <time>2015-07-26T22:28:50Z</time>
      </trkpt>
      <trkpt lat="44.73107" lon="3.7977">
        <ele>1013.323</ele>
        <time>2015-07-26T22:29:10Z</time>
      </trkpt>
      <trkpt lat="44.73127" lon="3.79856">
        <ele>1012.476</ele>
        <time>2015-07-26T22:29:30Z</time>
      </trkpt>
      <trkpt lat="44.73108" lon="3.79897">
        <ele>1010.192</ele>
        <time>2015-07-26T22:29:50Z</time>
      </trkpt>
      <trkpt lat="44.73118" lon="3.7999">
        <ele>1006.196</ele>
        <time>2015-07-26T22:30:10Z</time>
      </trkpt>
      <trkpt lat="44.73133" lon="3.8005">
        <ele>1003.839</ele>
        <time>2015-07-26T22:30:30Z</time>
      </trkpt>
      <trkpt lat="44.73125" lon="3.80091">
        <ele>1002.401</ele>
        <time>2015-07-26T22:30:50Z</time>
      </trkpt>
      <trkpt lat="44.73158" lon="3.80205">
        <ele>991.421</ele>
        <time>2015-07-26T22:31:10Z</time>
      </trkpt>
      <trkpt lat="44.73159" lon="3.80329">
        <ele>981.108</ele>
        <time>2015-07-26T22:31:30Z</time>
      </trkpt>
      <trkpt lat="44.73174" lon="3.8039">
        <ele>974.259</ele>
        <time>2015-07-26T22:31:50Z</time>
      </trkpt>
      <trkpt lat="44.73183" lon="3.80472">
        <ele>965.843</ele>
        <time>2015-07-26T22:32:10Z</time>
      </trkpt>
      <trkpt lat="44.7322" lon="3.80606">
        <ele>955.73</ele>
        <time>2015-07-26T22:32:30Z</time>
      </trkpt>
      <trkpt lat="44.73218" lon="3.80654">
        <ele>950.983</ele>
        <time>2015-07-26T22:32:50Z</time>
      </trkpt>
      <trkpt lat="44.7323" lon="3.80715">
        <ele>946.754</ele>
        <time>2015-07-26T22:33:10Z</time>
      </trkpt>
      <trkpt lat="44.73208" lon="3.80714">
        <ele>945.897</ele>
        <time>2015-07-26T22:33:30Z</time>
      </trkpt>
      <trkpt lat="44.73187" lon="3.80671">
        <ele>950.253</ele>
        <time>2015-07-26T22:33:50Z</time>
      </trkpt>
      <trkpt lat="44.7316" lon="3.8066">
        <ele>956.897</ele>
        <time>2015-07-26T22:34:10Z</time>
      </trkpt>
      <trkpt lat="44.73136" lon="3.80627">
        <ele>956.438</ele>
        <time>2015-07-26T22:34:30Z</time>
      </trkpt>
      <trkpt lat="44.73114" lon="3.80621">
        <ele>954.07</ele>
        <time>2015-07-26T22:34:50Z</time>
      </trkpt>
      <trkpt lat="44.73075" lon="3.80587">
        <ele>948.917</ele>
        <time>2015-07-26T22:35:10Z</time>
      </trkpt>
      <trkpt lat="44.73065" lon="3.80554">
        <ele>951.408</ele>
        <time>2015-07-26T22:35:30Z</time>
      </trkpt>
      <trkpt lat="44.72999" lon="3.8049">
        <ele>952.419</ele>
        <time>2015-07-26T22:35:50Z</time>
      </trkpt>
      <trkpt lat="44.72974" lon="3.80413">
        <ele>956.763</ele>
        <time>2015-07-26T22:36:10Z</time>
      </trkpt>
      <trkpt lat="44.72912" lon="3.80379">
        <ele>955.28</ele>
        <time>2015-07-26T22:36:30Z</time>
      </trkpt>
      <trkpt lat="44.72883" lon="3.80372">
        <ele>956.323</ele>
        <time>2015-07-26T22:36:50Z</time>
      </trkpt>
      <trkpt lat="44.72881" lon="3.80422">
        <ele>957.384</ele>
        <time>2015-07-26T22:37:10Z</time>
      </trkpt>
      <trkpt lat="44.72888" lon="3.80485">
        <ele>958.747</ele>
        <time>2015-07-26T22:37:30Z</time>
      </trkpt>
      <trkpt lat="44.72915" lon="3.80561">
        <ele>957.023</ele>
        <time>2015-07-26T22:37:50Z</time>
      </trkpt>
      <trkpt lat="44.7295" lon="3.80601">
        <ele>951.067</ele>
        <time>2015-07-26T22:38:10Z</time>
      </trkpt>
      <trkpt lat="44.72949" lon="3.80633">
        <ele>949.939</ele>
        <time>2015-07-26T22:38:30Z</time>
      </trkpt>
      <trkpt lat="44.72882" lon="3.80653">
        <ele>952.401</ele>
        <time>2015-07-26T22:38:50Z</time>
      </trkpt>
      <trkpt lat="44.72871" lon="3.80697">
        <ele>952.821</ele>
        <time>2015-07-26T22:39:10Z</time>
      </trkpt>
      <trkpt lat="44.7302" lon="3.80779">
        <ele>943.708</ele>
        <time>2015-07-26T22:39:30Z</time>
      </trkpt>
      <trkpt lat="44.73006" lon="3.80815">
        <ele>948.299</ele>
        <time>2015-07-26T22:39:50Z</time>
      </trkpt>
      <trkpt lat="44.72974" lon="3.80842">
        <ele>955.483</ele>
        <time>2015-07-26T22:40:10Z</time>
      </trkpt>
      <trkpt lat="44.72894" lon="3.80875">
        <ele>952.73</ele>
        <time>2015-07-26T22:40:30Z</time>
      </trkpt>
      <trkpt lat="44.72693" lon="3.81022">
        <ele>957.463</ele>
        <time>2015-07-26T22:40:50Z</time>
      </trkpt>
      <trkpt lat="44.72606" lon="3.8103">
        <ele>953.554</ele>
        <time>2015-07-26T22:41:10Z</time>
      </trkpt>
      <trkpt lat="44.7252" lon="3.81063">
        <ele>956.247</ele>
        <time>2015-07-26T22:41:30Z</time>
      </trkpt>
      <trkpt lat="44.72481" lon="3.81031">
        <ele>962.833</ele>
        <time>2020-02-16T02:03:29Z</time>
      </trkpt>
      <trkpt lat="44.72482" lon="3.81055">
        <ele>958.417</ele>
        <time>2020-02-16T02:03:49Z</time>
      </trkpt>
      <trkpt lat="44.72564" lon="3.8116">
        <ele>958.112</ele>
        <time>2020-02-16T02:04:09Z</time>
      </trkpt>
      <trkpt lat="44.72647" lon="3.81151">
        <ele>950.332</ele>
        <time>2020-02-16T02:04:29Z</time>
      </trkpt>
      <trkpt lat="44.72702" lon="3.8121">
        <ele>955.905</ele>
        <time>2015-07-26T22:42:50Z</time>
      </trkpt>
      <trkpt lat="44.72774" lon="3.81222">
        <ele>951.408</ele>
        <time>2015-07-26T22:43:10Z</time>
      </trkpt>
      <trkpt lat="44.72802" lon="3.81214">
        <ele>951.087</ele>
        <time>2015-07-26T22:43:30Z</time>
      </trkpt>
      <trkpt lat="44.72907" lon="3.81216">
        <ele>942.041</ele>
        <time>2015-07-26T22:43:50Z</time>
      </trkpt>
      <trkpt lat="44.72899" lon="3.81247">
        <ele>942.668</ele>
        <time>2015-07-26T22:44:10Z</time>
      </trkpt>
      <trkpt lat="44.72794" lon="3.81372">
        <ele>946.611</ele>
        <time>2015-07-26T22:44:30Z</time>
      </trkpt>
      <trkpt lat="44.72764" lon="3.81394">
        <ele>946.872</ele>
        <time>2015-07-26T22:44:50Z</time>
      </trkpt>
      <trkpt lat="44.72748" lon="3.81388">
        <ele>948.525</ele>
        <time>2015-07-26T22:45:10Z</time>
      </trkpt>
      <trkpt lat="44.72746" lon="3.81411">
        <ele>947.931</ele>
        <time>2015-07-26T22:45:30Z</time>
      </trkpt>
      <trkpt lat="44.72756" lon="3.81466">
        <ele>949.325</ele>
        <time>2015-07-26T22:45:50Z</time>
      </trkpt>
      <trkpt lat="44.72754" lon="3.81512">
        <ele>950.932</ele>
        <time>2015-07-26T22:46:10Z</time>
      </trkpt>
      <trkpt lat="44.72789" lon="3.81548">
        <ele>945.392</ele>
        <time>2015-07-26T22:46:30Z</time>
      </trkpt>
      <trkpt lat="44.72774" lon="3.8165">
        <ele>949.911</ele>
        <time>2015-07-26T22:46:50Z</time>
      </trkpt>
      <trkpt lat="44.72715" lon="3.81722">
        <ele>951.008</ele>
        <time>2015-07-26T22:47:10Z</time>
      </trkpt>
      <trkpt lat="44.72681" lon="3.81735">
        <ele>949.369</ele>
        <time>2015-07-26T22:47:30Z</time>
      </trkpt>
      <trkpt lat="44.72639" lon="3.81712">
        <ele>951.863</ele>
        <time>2015-07-26T22:47:50Z</time>
      </trkpt>
      <trkpt lat="44.72606" lon="3.81678">
        <ele>955.01</ele>
        <time>2015-07-26T22:48:10Z</time>
      </trkpt>
      <trkpt lat="44.72586" lon="3.81687">
        <ele>953.643</ele>
        <time>2015-07-26T22:48:30Z</time>
      </trkpt>
      <trkpt lat="44.72586" lon="3.81735">
        <ele>952.344</ele>
        <time>2015-07-26T22:48:50Z</time>
      </trkpt>
      <trkpt lat="44.72602" lon="3.81796">
        <ele>950.457</ele>
        <time>2015-07-26T22:49:10Z</time>
      </trkpt>
      <trkpt lat="44.72616" lon="3.81838">
        <ele>946.363</ele>
        <time>2015-07-26T22:49:30Z</time>
      </trkpt>
      <trkpt lat="44.72601" lon="3.81882">
        <ele>946.497</ele>
        <time>2015-07-26T22:49:50Z</time>
      </trkpt>
      <trkpt lat="44.72537" lon="3.81927">
        <ele>952.363</ele>
        <time>2015-07-26T22:50:10Z</time>
      </trkpt>
      <trkpt lat="44.72549" lon="3.82035">
        <ele>956.544</ele>
        <time>2015-07-26T22:50:30Z</time>
      </trkpt>
      <trkpt lat="44.72525" lon="3.82374">
        <ele>958.418</ele>
        <time>2015-07-26T22:50:50Z</time>
      </trkpt>
      <trkpt lat="44.72477" lon="3.82368">
        <ele>957.008</ele>
        <time>2015-07-26T22:51:10Z</time>
      </trkpt>
      <trkpt lat="44.72422" lon="3.82407">
        <ele>962.642</ele>
        <time>2015-07-26T22:51:30Z</time>
      </trkpt>
      <trkpt lat="44.72405" lon="3.82441">
        <ele>962.936</ele>
        <time>2015-07-26T22:51:50Z</time>
      </trkpt>
      <trkpt lat="44.72364" lon="3.82426">
        <ele>971.513</ele>
        <time>2015-07-26T22:52:10Z</time>
      </trkpt>
      <trkpt lat="44.72199" lon="3.82452">
        <ele>970.946</ele>
        <time>2015-07-26T22:52:30Z</time>
      </trkpt>
      <trkpt lat="44.721" lon="3.8244">
        <ele>977.247</ele>
        <time>2015-07-26T22:52:50Z</time>
      </trkpt>
      <trkpt lat="44.72075" lon="3.8239">
        <ele>982.51</ele>
        <time>2015-07-26T22:53:10Z</time>
      </trkpt>
      <trkpt lat="44.72043" lon="3.82351">
        <ele>985.826</ele>
        <time>2015-07-26T22:53:30Z</time>
      </trkpt>
      <trkpt lat="44.72031" lon="3.82304">
        <ele>987.89</ele>
        <time>2015-07-26T22:53:50Z</time>
      </trkpt>
      <trkpt lat="44.72012" lon="3.82301">
        <ele>989.937</ele>
        <time>2015-07-26T22:54:10Z</time>
      </trkpt>
      <trkpt lat="44.71998" lon="3.82319">
        <ele>990.349</ele>
        <time>2015-07-26T22:54:30Z</time>
      </trkpt>
      <trkpt lat="44.71969" lon="3.8236">
        <ele>990.513</ele>
        <time>2015-07-26T22:54:50Z</time>
      </trkpt>
      <trkpt lat="44.7192" lon="3.82389">
        <ele>994.608</ele>
        <time>2015-07-26T22:55:10Z</time>
      </trkpt>
      <trkpt lat="44.71855" lon="3.8241">
        <ele>1002.619</ele>
        <time>2015-07-26T22:55:30Z</time>
      </trkpt>
      <trkpt lat="44.71801" lon="3.82448">
        <ele>1004.813</ele>
        <time>2015-07-26T22:55:50Z</time>
      </trkpt>
      <trkpt lat="44.71715" lon="3.82512">
        <ele>1002.87</ele>
        <time>2015-07-26T22:56:10Z</time>
      </trkpt>
      <trkpt lat="44.71667" lon="3.82481">
        <ele>1005.093</ele>
        <time>2015-07-26T22:56:30Z</time>
      </trkpt>
      <trkpt lat="44.71626" lon="3.82485">
        <ele>1006.584</ele>
        <time>2015-07-26T22:56:50Z</time>
      </trkpt>
      <trkpt lat="44.7159" lon="3.825">
        <ele>1006.747</ele>
        <time>2015-07-26T22:57:10Z</time>
      </trkpt>
      <trkpt lat="44.7149" lon="3.82512">
        <ele>1004.673</ele>
        <time>2015-07-26T22:57:30Z</time>
      </trkpt>
      <trkpt lat="44.71449" lon="3.82481">
        <ele>1005.547</ele>
        <time>2015-07-26T22:57:50Z</time>
      </trkpt>
      <trkpt lat="44.71406" lon="3.82521">
        <ele>1003.765</ele>
        <time>2015-07-26T22:58:10Z</time>
      </trkpt>
      <trkpt lat="44.71394" lon="3.82555">
        <ele>1002.868</ele>
        <time>2015-07-26T22:58:30Z</time>
      </trkpt>
      <trkpt lat="44.7137" lon="3.82567">
        <ele>1003.614</ele>
        <time>2015-07-26T22:58:50Z</time>
      </trkpt>
      <trkpt lat="44.71378" lon="3.8275">
        <ele>1000.208</ele>
        <time>2015-07-26T22:59:10Z</time>
      </trkpt>
      <trkpt lat="44.7133" lon="3.82936">
        <ele>999.932</ele>
        <time>2015-07-26T22:59:30Z</time>
      </trkpt>
      <trkpt lat="44.71435" lon="3.83045">
        <ele>996.446</ele>
        <time>2015-07-26T22:59:50Z</time>
      </trkpt>
      <trkpt lat="44.71558" lon="3.83317">
        <ele>989.043</ele>
        <time>2015-07-26T23:00:10Z</time>
      </trkpt>
      <trkpt lat="44.71637" lon="3.83455">
        <ele>981.316</ele>
        <time>2015-07-26T23:00:30Z</time>
      </trkpt>
      <trkpt lat="44.71675" lon="3.83482">
        <ele>979.357</ele>
        <time>2015-07-26T23:00:50Z</time>
      </trkpt>
      <trkpt lat="44.71727" lon="3.83509">
        <ele>977.77</ele>
        <time>2015-07-26T23:01:10Z</time>
      </trkpt>
      <trkpt lat="44.71862" lon="3.83674">
        <ele>974.666</ele>
        <time>2015-07-26T23:01:30Z</time>
      </trkpt>
      <trkpt lat="44.71956" lon="3.83775">
        <ele>978.53</ele>
        <time>2015-07-26T23:01:50Z</time>
      </trkpt>
      <trkpt lat="44.72013" lon="3.83853">
        <ele>976.264</ele>
        <time>2015-07-26T23:02:10Z</time>
      </trkpt>
      <trkpt lat="44.7226" lon="3.84066">
        <ele>966.306</ele>
        <time>2015-07-26T23:02:30Z</time>
      </trkpt>
      <trkpt lat="44.72298" lon="3.84086">
        <ele>965.716</ele>
        <time>2015-07-26T23:02:50Z</time>
      </trkpt>
      <trkpt lat="44.72348" lon="3.84195">
        <ele>961.908</ele>
        <time>2015-07-26T23:03:10Z</time>
      </trkpt>
      <trkpt lat="44.72363" lon="3.84261">
        <ele>959.052</ele>
        <time>2015-07-26T23:03:30Z</time>
      </trkpt>
      <trkpt lat="44.72359" lon="3.84307">
        <ele>958.076</ele>
        <time>2015-07-26T23:03:50Z</time>
      </trkpt>
      <trkpt lat="44.72457" lon="3.84219">
        <ele>959.623</ele>
        <time>2015-07-26T23:04:10Z</time>
      </trkpt>
      <trkpt lat="44.7249" lon="3.84378">
        <ele>957.626</ele>
        <time>2015-07-26T23:04:30Z</time>
      </trkpt>
      <trkpt lat="44.72489" lon="3.84494">
        <ele>961.787</ele>
        <time>2015-07-26T23:04:50Z</time>
      </trkpt>
      <trkpt lat="44.72469" lon="3.84651">
        <ele>963.71</ele>
        <time>2015-07-26T23:05:10Z</time>
      </trkpt>
      <trkpt lat="44.72483" lon="3.84719">
        <ele>958.166</ele>
        <time>2015-07-26T23:05:30Z</time>
      </trkpt>
      <trkpt lat="44.72486" lon="3.84797">
        <ele>950.46</ele>
        <time>2015-07-26T23:05:50Z</time>
      </trkpt>
      <trkpt lat="44.72552" lon="3.84846">
        <ele>948.741</ele>
        <time>2015-07-26T23:06:10Z</time>
      </trkpt>
      <trkpt lat="44.7257" lon="3.84873">
        <ele>946.281</ele>
        <time>2015-07-26T23:06:30Z</time>
      </trkpt>
      <trkpt lat="44.72599" lon="3.84935">
        <ele>942.009</ele>
        <time>2020-11-21T01:36:25Z</time>
      </trkpt>
      <trkpt lat="44.72631" lon="3.84986">
        <ele>940.908</ele>
        <time>2020-11-21T01:36:45Z</time>
      </trkpt>
      <trkpt lat="44.72647" lon="3.85031">
        <ele>943.44</ele>
        <time>2020-11-21T01:37:05Z</time>
      </trkpt>
      <trkpt lat="44.72637" lon="3.85046">
        <ele>943.424</ele>
        <time>2020-11-21T01:37:25Z</time>
      </trkpt>
      <trkpt lat="44.7263" lon="3.85086">
        <ele>941.781</ele>
        <time>2015-07-26T23:07:30Z</time>
      </trkpt>
      <trkpt lat="44.7262" lon="3.85196">
        <ele>937.974</ele>
        <time>2015-07-26T23:07:50Z</time>
      </trkpt>
      <trkpt lat="44.72628" lon="3.85235">
        <ele>936.555</ele>
        <time>2015-07-26T23:08:10Z</time>
      </trkpt>
      <trkpt lat="44.7263" lon="3.85292">
        <ele>934.078</ele>
        <time>2015-07-26T23:08:30Z</time>
      </trkpt>
      <trkpt lat="44.72643" lon="3.85336">
        <ele>931.794</ele>
        <time>2020-11-21T01:39:05Z</time>
      </trkpt>
      <trkpt lat="44.72679" lon="3.85386">
        <ele>927.648</ele>
        <time>2020-11-21T01:39:25Z</time>
      </trkpt>
      <trkpt lat="44.72689" lon="3.85439">
        <ele>924.342</ele>
        <time>2020-11-21T01:39:45Z</time>
      </trkpt>
      <trkpt lat="44.72687" lon="3.85463">
        <ele>920.822</ele>
        <time>2020-11-21T01:40:05Z</time>
      </trkpt>
      <trkpt lat="44.72662" lon="3.8547">
        <ele>920.814</ele>
        <time>2020-11-21T01:40:25Z</time>
      </trkpt>
      <trkpt lat="44.72613" lon="3.85518">
        <ele>914.408</ele>
        <time>2020-11-21T01:40:45Z</time>
      </trkpt>
      <trkpt lat="44.72627" lon="3.85564">
        <ele>912.74</ele>
        <time>2020-02-16T02:31:49Z</time>
      </trkpt>
      <trkpt lat="44.72572" lon="3.85627">
        <ele>910.314</ele>
        <time>2020-02-16T02:32:09Z</time>
      </trkpt>
      <trkpt lat="44.72531" lon="3.85651">
        <ele>910.021</ele>
        <time>2020-02-16T02:32:29Z</time>
      </trkpt>
      <trkpt lat="44.72597" lon="3.85724">
        <ele>909.664</ele>
        <time>2020-02-16T02:32:49Z</time>
      </trkpt>
      <trkpt lat="44.72693" lon="3.85767">
        <ele>912.655</ele>
        <time>2020-11-21T01:42:25Z</time>
      </trkpt>
      <trkpt lat="44.72759" lon="3.85776">
        <ele>913.478</ele>
        <time>2020-11-21T01:42:45Z</time>
      </trkpt>
      <trkpt lat="44.72782" lon="3.85806">
        <ele>916.934</ele>
        <time>2020-11-21T01:43:05Z</time>
      </trkpt>
      <trkpt lat="44.72871" lon="3.85862">
        <ele>919.178</ele>
        <time>2020-11-21T01:43:25Z</time>
      </trkpt>
      <trkpt lat="44.72883" lon="3.85903">
        <ele>923.824</ele>
        <time>2020-11-21T01:43:45Z</time>
      </trkpt>
      <trkpt lat="44.72907" lon="3.85952">
        <ele>923.304</ele>
        <time>2020-11-21T01:44:05Z</time>
      </trkpt>
      <trkpt lat="44.72917" lon="3.86003">
        <ele>922.914</ele>
        <time>2020-11-21T01:44:25Z</time>
      </trkpt>
      <trkpt lat="44.72919" lon="3.86095">
        <ele>922.508</ele>
        <time>2020-11-21T01:44:45Z</time>
      </trkpt>
      <trkpt lat="44.72909" lon="3.86125">
        <ele>922.968</ele>
        <time>2020-11-21T01:45:05Z</time>
      </trkpt>
      <trkpt lat="44.72902" lon="3.86186">
        <ele>921.042</ele>
        <time>2020-11-21T01:45:25Z</time>
      </trkpt>
      <trkpt lat="44.72875" lon="3.86221">
        <ele>922.099</ele>
        <time>2020-11-21T01:45:45Z</time>
      </trkpt>
      <trkpt lat="44.72854" lon="3.86305">
        <ele>921.022</ele>
        <time>2020-11-21T01:46:05Z</time>
      </trkpt>
      <trkpt lat="44.72819" lon="3.86391">
        <ele>920.453</ele>
        <time>2020-11-21T01:46:25Z</time>
      </trkpt>
      <trkpt lat="44.72726" lon="3.86433">
        <ele>919.426</ele>
        <time>2020-11-21T01:46:45Z</time>
      </trkpt>
      <trkpt lat="44.72672" lon="3.86437">
        <ele>918.522</ele>
        <time>2020-11-21T01:47:05Z</time>
      </trkpt>
      <trkpt lat="44.72666" lon="3.86487">
        <ele>914.496</ele>
        <time>2020-02-16T02:34:29Z</time>
      </trkpt>
      <trkpt lat="44.72598" lon="3.86481">
        <ele>914.062</ele>
        <time>2015-07-26T23:17:10Z</time>
      </trkpt>
      <trkpt lat="44.72577" lon="3.86493">
        <ele>909.683</ele>
        <time>2015-07-26T23:17:30Z</time>
      </trkpt>
      <trkpt lat="44.72528" lon="3.86608">
        <ele>903.011</ele>
        <time>2015-07-26T23:17:50Z</time>
      </trkpt>
      <trkpt lat="44.72426" lon="3.86624">
        <ele>908.808</ele>
        <time>2015-07-26T23:18:10Z</time>
      </trkpt>
      <trkpt lat="44.72509" lon="3.86705">
        <ele>907.932</ele>
        <time>2015-07-26T23:18:30Z</time>
      </trkpt>
      <trkpt lat="44.72552" lon="3.86761">
        <ele>911.016</ele>
        <time>2015-07-26T23:18:50Z</time>
      </trkpt>
      <trkpt lat="44.72562" lon="3.86811">
        <ele>909.963</ele>
        <time>2015-07-26T23:19:10Z</time>
      </trkpt>
      <trkpt lat="44.72514" lon="3.8692">
        <ele>919.266</ele>
        <time>2020-02-16T02:37:09Z</time>
      </trkpt>
      <trkpt lat="44.72407" lon="3.87106">
        <ele>938.937</ele>
        <time>2020-11-21T01:50:25Z</time>
      </trkpt>
      <trkpt lat="44.72396" lon="3.8719">
        <ele>942.61</ele>
        <time>2020-11-21T01:50:45Z</time>
      </trkpt>
      <trkpt lat="44.72332" lon="3.87248">
        <ele>944.196</ele>
        <time>2015-07-26T23:21:30Z</time>
      </trkpt>
      <trkpt lat="44.72316" lon="3.87291">
        <ele>944.87</ele>
        <time>2015-07-26T23:21:50Z</time>
      </trkpt>
      <trkpt lat="44.72318" lon="3.8733">
        <ele>946.096</ele>
        <time>2015-07-26T23:22:10Z</time>
      </trkpt>
      <trkpt lat="44.72345" lon="3.87424">
        <ele>946.131</ele>
        <time>2015-07-26T23:22:30Z</time>
      </trkpt>
      <trkpt lat="44.7231" lon="3.87458">
        <ele>951.224</ele>
        <time>2015-07-26T23:22:50Z</time>
      </trkpt>
      <trkpt lat="44.72229" lon="3.87507">
        <ele>954.008</ele>
        <time>2015-07-26T23:23:10Z</time>
      </trkpt>
      <trkpt lat="44.72162" lon="3.8752">
        <ele>953.035</ele>
        <time>2015-07-26T23:23:30Z</time>
      </trkpt>
      <trkpt lat="44.72135" lon="3.8755">
        <ele>953.099</ele>
        <time>2015-07-26T23:23:50Z</time>
      </trkpt>
      <trkpt lat="44.72126" lon="3.87581">
        <ele>952.626</ele>
        <time>2015-07-26T23:24:10Z</time>
      </trkpt>
      <trkpt lat="44.721" lon="3.87594">
        <ele>952.089</ele>
        <time>2015-07-26T23:24:30Z</time>
      </trkpt>
      <trkpt lat="44.72042" lon="3.87594">
        <ele>955.36</ele>
        <time>2015-07-26T23:24:50Z</time>
      </trkpt>
      <trkpt lat="44.71999" lon="3.87673">
        <ele>953.833</ele>
        <time>2015-07-26T23:25:10Z</time>
      </trkpt>
      <trkpt lat="44.71971" lon="3.87703">
        <ele>952.919</ele>
        <time>2015-07-26T23:25:30Z</time>
      </trkpt>
      <trkpt lat="44.71895" lon="3.87769">
        <ele>952.693</ele>
        <time>2015-07-26T23:25:50Z</time>
      </trkpt>
      <trkpt lat="44.71879" lon="3.87816">
        <ele>953.716</ele>
        <time>2015-07-26T23:26:10Z</time>
      </trkpt>
      <trkpt lat="44.71869" lon="3.87844">
        <ele>953.476</ele>
        <time>2015-07-26T23:26:30Z</time>
      </trkpt>
      <trkpt lat="44.71867" lon="3.87878">
        <ele>954.013</ele>
        <time>2015-07-26T23:26:50Z</time>
      </trkpt>
      <trkpt lat="44.7182" lon="3.87909">
        <ele>954.708</ele>
        <time>2015-07-26T23:27:10Z</time>
      </trkpt>
      <trkpt lat="44.71789" lon="3.87953">
        <ele>954.977</ele>
        <time>2015-07-26T23:27:30Z</time>
      </trkpt>
      <trkpt lat="44.71769" lon="3.87971">
        <ele>956.221</ele>
        <time>2015-07-26T23:27:50Z</time>
      </trkpt>
      <trkpt lat="44.71716" lon="3.88035">
        <ele>958.128</ele>
        <time>2020-02-16T02:45:29Z</time>
      </trkpt>
      <trkpt lat="44.71686" lon="3.88111">
        <ele>962.231</ele>
        <time>2015-07-26T23:28:10Z</time>
      </trkpt>
      <trkpt lat="44.71681" lon="3.88172">
        <ele>961.052</ele>
        <time>2015-07-26T23:28:30Z</time>
      </trkpt>
      <trkpt lat="44.71705" lon="3.88211">
        <ele>964.015</ele>
        <time>2015-07-26T23:28:50Z</time>
      </trkpt>
      <trkpt lat="44.71582" lon="3.88406">
        <ele>978.621</ele>
        <time>2015-07-26T23:29:10Z</time>
      </trkpt>
      <trkpt lat="44.71587" lon="3.88452">
        <ele>981.875</ele>
        <time>2015-07-26T23:29:30Z</time>
      </trkpt>
      <trkpt lat="44.7155" lon="3.88538">
        <ele>983.732</ele>
        <time>2015-07-26T23:29:50Z</time>
      </trkpt>
      <trkpt lat="44.71529" lon="3.88627">
        <ele>993.592</ele>
        <time>2015-07-26T23:30:10Z</time>
      </trkpt>
      <trkpt lat="44.71487" lon="3.88712">
        <ele>998.411</ele>
        <time>2015-07-26T23:30:30Z</time>
      </trkpt>
      <trkpt lat="44.71425" lon="3.88896">
        <ele>1007.808</ele>
        <time>2015-07-26T23:30:50Z</time>
      </trkpt>
      <trkpt lat="44.71423" lon="3.88959">
        <ele>1014.439</ele>
        <time>2015-07-26T23:31:10Z</time>
      </trkpt>
      <trkpt lat="44.71359" lon="3.89174">
        <ele>1025.313</ele>
        <time>2015-07-26T23:31:30Z</time>
      </trkpt>
      <trkpt lat="44.71333" lon="3.89185">
        <ele>1023.74</ele>
        <time>2015-07-26T23:31:50Z</time>
      </trkpt>
      <trkpt lat="44.71297" lon="3.89141">
        <ele>1015.913</ele>
        <time>2015-07-26T23:32:10Z</time>
      </trkpt>
      <trkpt lat="44.71277" lon="3.89244">
        <ele>1026.694</ele>
        <time>2015-07-26T23:32:30Z</time>
      </trkpt>
      <trkpt lat="44.71262" lon="3.89274">
        <ele>1028.617</ele>
        <time>2015-07-26T23:32:50Z</time>
      </trkpt>
      <trkpt lat="44.71242" lon="3.89392">
        <ele>1031.093</ele>
        <time>2015-07-26T23:33:10Z</time>
      </trkpt>
      <trkpt lat="44.7121" lon="3.89518">
        <ele>1032.557</ele>
        <time>2015-07-26T23:33:30Z</time>
      </trkpt>
      <trkpt lat="44.71181" lon="3.89567">
        <ele>1030.387</ele>
        <time>2015-07-26T23:33:50Z</time>
      </trkpt>
      <trkpt lat="44.71204" lon="3.8966">
        <ele>1022.942</ele>
        <time>2015-07-26T23:34:10Z</time>
      </trkpt>
      <trkpt lat="44.71264" lon="3.89665">
        <ele>1021.826</ele>
        <time>2015-07-26T23:34:30Z</time>
      </trkpt>
      <trkpt lat="44.71367" lon="3.89709">
        <ele>1006.208</ele>
        <time>2015-07-26T23:34:50Z</time>
      </trkpt>
      <trkpt lat="44.71413" lon="3.89767">
        <ele>995.654</ele>
        <time>2015-07-26T23:35:10Z</time>
      </trkpt>
      <trkpt lat="44.71437" lon="3.89825">
        <ele>988.258</ele>
        <time>2015-07-26T23:35:30Z</time>
      </trkpt>
      <trkpt lat="44.71502" lon="3.89898">
        <ele>995.275</ele>
        <time>2015-07-26T23:35:50Z</time>
      </trkpt>
      <trkpt lat="44.71491" lon="3.89913">
        <ele>990.048</ele>
        <time>2015-07-26T23:36:10Z</time>
      </trkpt>
      <trkpt lat="44.71446" lon="3.89875">
        <ele>982.949</ele>
        <time>2015-07-26T23:36:30Z</time>
      </trkpt>
      <trkpt lat="44.71424" lon="3.89921">
        <ele>980.172</ele>
        <time>2015-07-26T23:36:50Z</time>
      </trkpt>
      <trkpt lat="44.714" lon="3.90016">
        <ele>983.558</ele>
        <time>2015-07-26T23:37:10Z</time>
      </trkpt>
      <trkpt lat="44.71315" lon="3.90055">
        <ele>990.362</ele>
        <time>2015-07-26T23:37:30Z</time>
      </trkpt>
      <trkpt lat="44.7132" lon="3.90081">
        <ele>998.286</ele>
        <time>2015-07-26T23:37:50Z</time>
      </trkpt>
      <trkpt lat="44.71286" lon="3.90156">
        <ele>1006.16</ele>
        <time>2015-07-26T23:38:10Z</time>
      </trkpt>
      <trkpt lat="44.71271" lon="3.90239">
        <ele>1023.526</ele>
        <time>2015-07-26T23:38:30Z</time>
      </trkpt>
      <trkpt lat="44.71225" lon="3.90316">
        <ele>1030.408</ele>
        <time>2015-07-26T23:38:50Z</time>
      </trkpt>
      <trkpt lat="44.71208" lon="3.90377">
        <ele>1036.744</ele>
        <time>2015-07-26T23:39:10Z</time>
      </trkpt>
      <trkpt lat="44.71219" lon="3.90441">
        <ele>1043.258</ele>
        <time>2015-07-26T23:39:30Z</time>
      </trkpt>
      <trkpt lat="44.71208" lon="3.90474">
        <ele>1045.155</ele>
        <time>2015-07-26T23:39:50Z</time>
      </trkpt>
      <trkpt lat="44.71131" lon="3.90531">
        <ele>1050.938</ele>
        <time>2015-07-26T23:40:10Z</time>
      </trkpt>
      <trkpt lat="44.71072" lon="3.90522">
        <ele>1050.859</ele>
        <time>2015-07-26T23:40:30Z</time>
      </trkpt>
      <trkpt lat="44.71018" lon="3.90532">
        <ele>1053.842</ele>
        <time>2015-07-26T23:40:50Z</time>
      </trkpt>
      <trkpt lat="44.7099" lon="3.90562">
        <ele>1060.748</ele>
        <time>2015-07-26T23:41:10Z</time>
      </trkpt>
      <trkpt lat="44.70923" lon="3.90586">
        <ele>1066.682</ele>
        <time>2015-07-26T23:41:30Z</time>
      </trkpt>
      <trkpt lat="44.70887" lon="3.90619">
        <ele>1066.195</ele>
        <time>2015-07-26T23:41:50Z</time>
      </trkpt>
      <trkpt lat="44.70841" lon="3.90737">
        <ele>1073.549</ele>
        <time>2015-07-26T23:42:10Z</time>
      </trkpt>
      <trkpt lat="44.70666" lon="3.90947">
        <ele>1076.123</ele>
        <time>2015-07-26T23:42:30Z</time>
      </trkpt>
      <trkpt lat="44.70648" lon="3.91022">
        <ele>1077.308</ele>
        <time>2015-07-26T23:42:50Z</time>
      </trkpt>
      <trkpt lat="44.70699" lon="3.9124">
        <ele>1088.385</ele>
        <time>2015-07-26T23:43:10Z</time>
      </trkpt>
      <trkpt lat="44.70756" lon="3.91298">
        <ele>1093.379</ele>
        <time>2015-07-26T23:43:30Z</time>
      </trkpt>
      <trkpt lat="44.70754" lon="3.91333">
        <ele>1092.496</ele>
        <time>2015-07-26T23:43:50Z</time>
      </trkpt>
      <trkpt lat="44.70736" lon="3.91362">
        <ele>1092.219</ele>
        <time>2015-07-26T23:44:10Z</time>
      </trkpt>
      <trkpt lat="44.70748" lon="3.91415">
        <ele>1100.36</ele>
        <time>2015-07-26T23:44:30Z</time>
      </trkpt>
      <trkpt lat="44.70782" lon="3.91413">
        <ele>1105.783</ele>
        <time>2015-07-26T23:44:50Z</time>
      </trkpt>
      <trkpt lat="44.70783" lon="3.91559">
        <ele>1113.919</ele>
        <time>2015-07-26T23:45:10Z</time>
      </trkpt>
      <trkpt lat="44.70755" lon="3.91652">
        <ele>1117.463</ele>
        <time>2015-07-26T23:45:30Z</time>
      </trkpt>
      <trkpt lat="44.70712" lon="3.91745">
        <ele>1122.684</ele>
        <time>2015-07-26T23:45:50Z</time>
      </trkpt>
      <trkpt lat="44.70699" lon="3.91828">
        <ele>1118.507</ele>
        <time>2015-07-26T23:46:10Z</time>
      </trkpt>
      <trkpt lat="44.70704" lon="3.91946">
        <ele>1117.117</ele>
        <time>2015-07-26T23:46:30Z</time>
      </trkpt>
      <trkpt lat="44.70659" lon="3.92026">
        <ele>1117.708</ele>
        <time>2015-07-26T23:46:50Z</time>
      </trkpt>
      <trkpt lat="44.70588" lon="3.92062">
        <ele>1116.094</ele>
        <time>2015-07-26T23:47:10Z</time>
      </trkpt>
      <trkpt lat="44.70558" lon="3.92103">
        <ele>1111.778</ele>
        <time>2015-07-26T23:47:30Z</time>
      </trkpt>
      <trkpt lat="44.70543" lon="3.9223">
        <ele>1112.125</ele>
        <time>2015-07-26T23:47:50Z</time>
      </trkpt>
      <trkpt lat="44.70488" lon="3.92328">
        <ele>1104.038</ele>
        <time>2015-07-26T23:48:10Z</time>
      </trkpt>
      <trkpt lat="44.70473" lon="3.9243">
        <ele>1103.629</ele>
        <time>2015-07-26T23:48:30Z</time>
      </trkpt>
      <trkpt lat="44.70478" lon="3.92493">
        <ele>1104.882</ele>
        <time>2015-07-26T23:48:50Z</time>
      </trkpt>
      <trkpt lat="44.70507" lon="3.92496">
        <ele>1110.838</ele>
        <time>2015-07-26T23:49:10Z</time>
      </trkpt>
      <trkpt lat="44.70498" lon="3.92604">
        <ele>1125.472</ele>
        <time>2015-07-26T23:49:30Z</time>
      </trkpt>
      <trkpt lat="44.704" lon="3.92907">
        <ele>1146.299</ele>
        <time>2015-07-26T23:49:50Z</time>
      </trkpt>
      <trkpt lat="44.70402" lon="3.93108">
        <ele>1156.607</ele>
        <time>2015-07-26T23:50:10Z</time>
      </trkpt>
      <trkpt lat="44.70469" lon="3.93257">
        <ele>1167.127</ele>
        <time>2015-07-26T23:50:30Z</time>
      </trkpt>
      <trkpt lat="44.70417" lon="3.93337">
        <ele>1169.008</ele>
        <time>2015-07-26T23:50:50Z</time>
      </trkpt>
      <trkpt lat="44.70312" lon="3.93462">
        <ele>1168.275</ele>
        <time>2015-07-26T23:51:10Z</time>
      </trkpt>
      <trkpt lat="44.70196" lon="3.93626">
        <ele>1167.629</ele>
        <time>2015-07-26T23:51:30Z</time>
      </trkpt>
      <trkpt lat="44.70093" lon="3.93791">
        <ele>1164.756</ele>
        <time>2015-07-26T23:51:50Z</time>
      </trkpt>
      <trkpt lat="44.70023" lon="3.93923">
        <ele>1162.019</ele>
        <time>2015-07-26T23:52:10Z</time>
      </trkpt>
      <trkpt lat="44.69912" lon="3.94261">
        <ele>1156.28</ele>
        <time>2020-02-16T03:10:09Z</time>
      </trkpt>
      <trkpt lat="44.69782" lon="3.94553">
        <ele>1157.463</ele>
        <time>2015-07-26T23:52:50Z</time>
      </trkpt>
      <trkpt lat="44.69761" lon="3.9459">
        <ele>1159.059</ele>
        <time>2015-07-26T23:53:10Z</time>
      </trkpt>
      <trkpt lat="44.69718" lon="3.94603">
        <ele>1162.823</ele>
        <time>2015-07-26T23:53:30Z</time>
      </trkpt>
      <trkpt lat="44.69649" lon="3.94828">
        <ele>1185.735</ele>
        <time>2015-07-26T23:53:50Z</time>
      </trkpt>
      <trkpt lat="44.6959" lon="3.94912">
        <ele>1201.886</ele>
        <time>2015-07-26T23:54:10Z</time>
      </trkpt>
      <trkpt lat="44.6956" lon="3.94939">
        <ele>1207.214</ele>
        <time>2015-07-26T23:54:30Z</time>
      </trkpt>
      <trkpt lat="44.69505" lon="3.95018">
        <ele>1216.708</ele>
        <time>2015-07-26T23:54:50Z</time>
      </trkpt>
      <trkpt lat="44.69502" lon="3.95045">
        <ele>1219.049</ele>
        <time>2015-07-26T23:55:10Z</time>
      </trkpt>
      <trkpt lat="44.69441" lon="3.95123">
        <ele>1227.373</ele>
        <time>2015-07-26T23:55:30Z</time>
      </trkpt>
      <trkpt lat="44.6937" lon="3.95309">
        <ele>1235.07</ele>
        <time>2015-07-26T23:55:50Z</time>
      </trkpt>
      <trkpt lat="44.6937" lon="3.95335">
        <ele>1234.223</ele>
        <time>2020-02-16T03:13:49Z</time>
      </trkpt>
      <trkpt lat="44.69394" lon="3.95316">
        <ele>1229.594</ele>
        <time>2020-02-16T03:14:09Z</time>
      </trkpt>
      <trkpt lat="44.69362" lon="3.95383">
        <ele>1235.787</ele>
        <time>2020-02-16T03:14:29Z</time>
      </trkpt>
      <trkpt lat="44.69351" lon="3.95435">
        <ele>1235.593</ele>
        <time>2020-02-16T03:14:49Z</time>
      </trkpt>
      <trkpt lat="44.69344" lon="3.95509">
        <ele>1239.477</ele>
        <time>2015-07-26T23:56:50Z</time>
      </trkpt>
      <trkpt lat="44.69319" lon="3.95607">
        <ele>1247.335</ele>
        <time>2015-07-26T23:57:10Z</time>
      </trkpt>
      <trkpt lat="44.69322" lon="3.95637">
        <ele>1248.386</ele>
        <time>2015-07-26T23:57:30Z</time>
      </trkpt>
      <trkpt lat="44.69285" lon="3.95717">
        <ele>1251.114</ele>
        <time>2015-07-26T23:57:50Z</time>
      </trkpt>
      <trkpt lat="44.69324" lon="3.958">
        <ele>1256.308</ele>
        <time>2015-07-26T23:58:10Z</time>
      </trkpt>
      <trkpt lat="44.69334" lon="3.95918">
        <ele>1256.239</ele>
        <time>2015-07-26T23:58:30Z</time>
      </trkpt>
      <trkpt lat="44.69311" lon="3.9616">
        <ele>1259.083</ele>
        <time>2015-07-26T23:58:50Z</time>
      </trkpt>
      <trkpt lat="44.69317" lon="3.96191">
        <ele>1263.72</ele>
        <time>2020-02-16T03:17:29Z</time>
      </trkpt>
      <trkpt lat="44.6926" lon="3.96227">
        <ele>1247.483</ele>
        <time>2020-02-16T03:17:49Z</time>
      </trkpt>
      <trkpt lat="44.69218" lon="3.96289">
        <ele>1244.694</ele>
        <time>2020-02-16T03:18:09Z</time>
      </trkpt>
      <trkpt lat="44.69197" lon="3.96349">
        <ele>1247.317</ele>
        <time>2020-02-16T03:18:29Z</time>
      </trkpt>
      <trkpt lat="44.69126" lon="3.96448">
        <ele>1245.263</ele>
        <time>2015-07-27T00:00:10Z</time>
      </trkpt>
      <trkpt lat="44.6908" lon="3.96542">
        <ele>1243.487</ele>
        <time>2015-07-27T00:00:30Z</time>
      </trkpt>
      <trkpt lat="44.69032" lon="3.96715">
        <ele>1250.071</ele>
        <time>2015-07-27T00:00:50Z</time>
      </trkpt>
      <trkpt lat="44.69036" lon="3.96747">
        <ele>1253.841</ele>
        <time>2015-07-27T00:01:10Z</time>
      </trkpt>
      <trkpt lat="44.69014" lon="3.96814">
        <ele>1249.515</ele>
        <time>2015-07-27T00:01:30Z</time>
      </trkpt>
      <trkpt lat="44.69007" lon="3.96927">
        <ele>1248.508</ele>
        <time>2015-07-27T00:01:50Z</time>
      </trkpt>
      <trkpt lat="44.69021" lon="3.96977">
        <ele>1252.323</ele>
        <time>2015-07-27T00:02:10Z</time>
      </trkpt>
      <trkpt lat="44.6903" lon="3.97066">
        <ele>1261.667</ele>
        <time>2015-07-27T00:02:30Z</time>
      </trkpt>
      <trkpt lat="44.69044" lon="3.97106">
        <ele>1268.644</ele>
        <time>2015-07-27T00:02:50Z</time>
      </trkpt>
      <trkpt lat="44.69052" lon="3.97227">
        <ele>1287.567</ele>
        <time>2015-07-27T00:03:10Z</time>
      </trkpt>
      <trkpt lat="44.69045" lon="3.97388">
        <ele>1307.758</ele>
        <time>2015-07-27T00:03:30Z</time>
      </trkpt>
      <trkpt lat="44.69053" lon="3.97544">
        <ele>1336.421</ele>
        <time>2015-07-27T00:03:50Z</time>
      </trkpt>
      <trkpt lat="44.69041" lon="3.97644">
        <ele>1351.347</ele>
        <time>2015-07-27T00:04:10Z</time>
      </trkpt>
      <trkpt lat="44.69047" lon="3.97914">
        <ele>1386.761</ele>
        <time>2015-07-27T00:04:30Z</time>
      </trkpt>
      <trkpt lat="44.69067" lon="3.98034">
        <ele>1411.072</ele>
        <time>2015-07-27T00:04:50Z</time>
      </trkpt>
      <trkpt lat="44.69077" lon="3.98052">
        <ele>1414.913</ele>
        <time>2015-07-27T00:05:10Z</time>
      </trkpt>
      <trkpt lat="44.69089" lon="3.98105">
        <ele>1421.314</ele>
        <time>2015-07-27T00:05:30Z</time>
      </trkpt>
      <trkpt lat="44.69027" lon="3.98214">
        <ele>1428.108</ele>
        <time>2015-07-27T00:05:50Z</time>
      </trkpt>
      <trkpt lat="44.6895" lon="3.98215">
        <ele>1438.083</ele>
        <time>2015-07-27T00:06:10Z</time>
      </trkpt>
      <trkpt lat="44.68882" lon="3.98257">
        <ele>1447.187</ele>
        <time>2015-07-27T00:06:30Z</time>
      </trkpt>
      <trkpt lat="44.68807" lon="3.98252">
        <ele>1454.874</ele>
        <time>2015-07-27T00:06:50Z</time>
      </trkpt>
      <trkpt lat="44.68727" lon="3.9822">
        <ele>1460.067</ele>
        <time>2015-07-27T00:07:10Z</time>
      </trkpt>
      <trkpt lat="44.68689" lon="3.98174">
        <ele>1458.318</ele>
        <time>2015-07-27T00:07:30Z</time>
      </trkpt>
      <trkpt lat="44.68622" lon="3.98125">
        <ele>1455.891</ele>
        <time>2015-07-27T00:07:50Z</time>
      </trkpt>
      <trkpt lat="44.68533" lon="3.9811">
        <ele>1452.217</ele>
        <time>2015-07-27T00:08:10Z</time>
      </trkpt>
      <trkpt lat="44.6846" lon="3.98117">
        <ele>1447.311</ele>
        <time>2015-07-27T00:08:30Z</time>
      </trkpt>
      <trkpt lat="44.68229" lon="3.98225">
        <ele>1437.537</ele>
        <time>2015-07-27T00:08:50Z</time>
      </trkpt>
      <trkpt lat="44.68145" lon="3.98305">
        <ele>1432.249</ele>
        <time>2015-07-27T00:09:10Z</time>
      </trkpt>
      <trkpt lat="44.68058" lon="3.98416">
        <ele>1432.013</ele>
        <time>2015-07-27T00:09:30Z</time>
      </trkpt>
      <trkpt lat="44.67925" lon="3.98618">
        <ele>1420.808</ele>
        <time>2015-07-27T00:09:50Z</time>
      </trkpt>
      <trkpt lat="44.67839" lon="3.98723">
        <ele>1425.769</ele>
        <time>2015-07-27T00:10:10Z</time>
      </trkpt>
      <trkpt lat="44.67803" lon="3.98801">
        <ele>1435.873</ele>
        <time>2015-07-27T00:10:30Z</time>
      </trkpt>
      <trkpt lat="44.67772" lon="3.98865">
        <ele>1438.18</ele>
        <time>2015-07-27T00:10:50Z</time>
      </trkpt>
      <trkpt lat="44.67756" lon="3.98921">
        <ele>1442.693</ele>
        <time>2015-07-27T00:11:10Z</time>
      </trkpt>
      <trkpt lat="44.67723" lon="3.98992">
        <ele>1442.474</ele>
        <time>2015-07-27T00:11:30Z</time>
      </trkpt>
      <trkpt lat="44.67694" lon="3.99111">
        <ele>1446.047</ele>
        <time>2015-07-27T00:11:50Z</time>
      </trkpt>
      <trkpt lat="44.67663" lon="3.9919">
        <ele>1450.073</ele>
        <time>2015-07-27T00:12:10Z</time>
      </trkpt>
      <trkpt lat="44.67616" lon="3.99228">
        <ele>1457.067</ele>
        <time>2015-07-27T00:12:30Z</time>
      </trkpt>
      <trkpt lat="44.67532" lon="3.99281">
        <ele>1453.568</ele>
        <time>2015-07-27T00:12:50Z</time>
      </trkpt>
      <trkpt lat="44.67426" lon="3.99364">
        <ele>1451.342</ele>
        <time>2015-07-27T00:13:10Z</time>
      </trkpt>
      <trkpt lat="44.67262" lon="3.99508">
        <ele>1450.526</ele>
        <time>2015-07-27T00:13:30Z</time>
      </trkpt>
      <trkpt lat="44.67217" lon="3.99582">
        <ele>1448.708</ele>
        <time>2015-07-27T00:13:50Z</time>
      </trkpt>
      <trkpt lat="44.67138" lon="3.99768">
        <ele>1443.452</ele>
        <time>2015-07-27T00:14:10Z</time>
      </trkpt>
      <trkpt lat="44.67023" lon="3.99966">
        <ele>1438.116</ele>
        <time>2015-07-27T00:14:30Z</time>
      </trkpt>
      <trkpt lat="44.66982" lon="4.0001">
        <ele>1435.953</ele>
        <time>2015-07-27T00:14:50Z</time>
      </trkpt>
      <trkpt lat="44.66987" lon="4.00061">
        <ele>1434.126</ele>
        <time>2015-07-27T00:15:10Z</time>
      </trkpt>
      <trkpt lat="44.66929" lon="4.00247">
        <ele>1433.987</ele>
        <time>2015-07-27T00:15:30Z</time>
      </trkpt>
      <trkpt lat="44.66901" lon="4.00296">
        <ele>1437.81</ele>
        <time>2015-07-27T00:15:50Z</time>
      </trkpt>
      <trkpt lat="44.6682" lon="4.00526">
        <ele>1442.936</ele>
        <time>2015-07-27T00:16:10Z</time>
      </trkpt>
      <trkpt lat="44.66756" lon="4.00639">
        <ele>1444.22</ele>
        <time>2015-07-27T00:16:30Z</time>
      </trkpt>
      <trkpt lat="44.66719" lon="4.00748">
        <ele>1452.332</ele>
        <time>2015-07-27T00:16:50Z</time>
      </trkpt>
      <trkpt lat="44.66695" lon="4.00853">
        <ele>1453.192</ele>
        <time>2015-07-27T00:17:10Z</time>
      </trkpt>
      <trkpt lat="44.667" lon="4.00981">
        <ele>1456.611</ele>
        <time>2015-07-27T00:17:30Z</time>
      </trkpt>
      <trkpt lat="44.66647" lon="4.01341">
        <ele>1465.508</ele>
        <time>2015-07-27T00:17:50Z</time>
      </trkpt>
      <trkpt lat="44.66597" lon="4.01562">
        <ele>1463.019</ele>
        <time>2015-07-27T00:18:10Z</time>
      </trkpt>
      <trkpt lat="44.66528" lon="4.01752">
        <ele>1453.853</ele>
        <time>2015-07-27T00:18:30Z</time>
      </trkpt>
      <trkpt lat="44.66526" lon="4.01808">
        <ele>1447.99</ele>
        <time>2015-07-27T00:18:50Z</time>
      </trkpt>
      <trkpt lat="44.66538" lon="4.01855">
        <ele>1444.543</ele>
        <time>2015-07-27T00:19:10Z</time>
      </trkpt>
      <trkpt lat="44.66513" lon="4.01984">
        <ele>1444.074</ele>
        <time>2015-07-27T00:19:30Z</time>
      </trkpt>
      <trkpt lat="44.66479" lon="4.02085">
        <ele>1442.027</ele>
        <time>2015-07-27T00:19:50Z</time>
      </trkpt>
      <trkpt lat="44.66419" lon="4.02133">
        <ele>1437.213</ele>
        <time>2015-07-27T00:20:10Z</time>
      </trkpt>
      <trkpt lat="44.66359" lon="4.02137">
        <ele>1427.747</ele>
        <time>2015-07-27T00:20:30Z</time>
      </trkpt>
      <trkpt lat="44.6623" lon="4.0222">
        <ele>1412.181</ele>
        <time>2015-07-27T00:20:50Z</time>
      </trkpt>
      <trkpt lat="44.66191" lon="4.02266">
        <ele>1404.761</ele>
        <time>2015-07-27T00:21:10Z</time>
      </trkpt>
      <trkpt lat="44.66165" lon="4.02309">
        <ele>1400.717</ele>
        <time>2015-07-27T00:21:30Z</time>
      </trkpt>
      <trkpt lat="44.6613" lon="4.02393">
        <ele>1397.308</ele>
        <time>2015-07-27T00:21:50Z</time>
      </trkpt>
      <trkpt lat="44.66095" lon="4.02446">
        <ele>1391.894</ele>
        <time>2015-07-27T00:22:10Z</time>
      </trkpt>
      <trkpt lat="44.66079" lon="4.02467">
        <ele>1385.618</ele>
        <time>2015-07-27T00:22:30Z</time>
      </trkpt>
      <trkpt lat="44.66039" lon="4.02528">
        <ele>1378.495</ele>
        <time>2015-07-27T00:22:50Z</time>
      </trkpt>
      <trkpt lat="44.65989" lon="4.02585">
        <ele>1373.998</ele>
        <time>2015-07-27T00:23:10Z</time>
      </trkpt>
      <trkpt lat="44.65957" lon="4.02604">
        <ele>1371.779</ele>
        <time>2015-07-27T00:23:30Z</time>
      </trkpt>
      <trkpt lat="44.65912" lon="4.02658">
        <ele>1375.562</ele>
        <time>2015-07-27T00:23:50Z</time>
      </trkpt>
      <trkpt lat="44.65867" lon="4.02753">
        <ele>1385.818</ele>
        <time>2015-07-27T00:24:10Z</time>
      </trkpt>
      <trkpt lat="44.65827" lon="4.02802">
        <ele>1392.232</ele>
        <time>2015-07-27T00:24:30Z</time>
      </trkpt>
      <trkpt lat="44.65799" lon="4.02822">
        <ele>1394.765</ele>
        <time>2015-07-27T00:24:50Z</time>
      </trkpt>
      <trkpt lat="44.65695" lon="4.0287">
        <ele>1391.768</ele>
        <time>2015-07-27T00:25:10Z</time>
      </trkpt>
      <trkpt lat="44.65603" lon="4.02889">
        <ele>1390.314</ele>
        <time>2015-07-27T00:25:30Z</time>
      </trkpt>
      <trkpt lat="44.65538" lon="4.02921">
        <ele>1390.708</ele>
        <time>2015-07-27T00:25:50Z</time>
      </trkpt>
      <trkpt lat="44.6546" lon="4.02926">
        <ele>1390.922</ele>
        <time>2015-07-27T00:26:10Z</time>
      </trkpt>
      <trkpt lat="44.65321" lon="4.02992">
        <ele>1404.256</ele>
        <time>2015-07-27T00:26:30Z</time>
      </trkpt>
      <trkpt lat="44.65195" lon="4.03049">
        <ele>1400.913</ele>
        <time>2015-07-27T00:26:50Z</time>
      </trkpt>
      <trkpt lat="44.65168" lon="4.0317">
        <ele>1402.536</ele>
        <time>2015-07-27T00:27:10Z</time>
      </trkpt>
      <trkpt lat="44.6517" lon="4.03293">
        <ele>1412.987</ele>
        <time>2015-07-27T00:27:30Z</time>
      </trkpt>
      <trkpt lat="44.65178" lon="4.03394">
        <ele>1411.89</ele>
        <time>2015-07-27T00:27:50Z</time>
      </trkpt>
      <trkpt lat="44.65161" lon="4.03588">
        <ele>1414.496</ele>
        <time>2015-07-27T00:28:10Z</time>
      </trkpt>
      <trkpt lat="44.65167" lon="4.03693">
        <ele>1416.03</ele>
        <time>2015-07-27T00:28:30Z</time>
      </trkpt>
      <trkpt lat="44.6516" lon="4.03837">
        <ele>1420.829</ele>
        <time>2015-07-27T00:28:50Z</time>
      </trkpt>
      <trkpt lat="44.65109" lon="4.04036">
        <ele>1426.7</ele>
        <time>2015-07-27T00:29:10Z</time>
      </trkpt>
      <trkpt lat="44.64959" lon="4.04399">
        <ele>1429.42</ele>
        <time>2015-07-27T00:29:30Z</time>
      </trkpt>
      <trkpt lat="44.64777" lon="4.04545">
        <ele>1405.808</ele>
        <time>2015-07-27T00:29:50Z</time>
      </trkpt>
      <trkpt lat="44.64755" lon="4.04538">
        <ele>1397.268</ele>
        <time>2015-07-27T00:30:10Z</time>
      </trkpt>
      <trkpt lat="44.64697" lon="4.04577">
        <ele>1392.332</ele>
        <time>2015-07-27T00:30:30Z</time>
      </trkpt>
      <trkpt lat="44.64642" lon="4.04523">
        <ele>1371.579</ele>
        <time>2015-07-27T00:30:50Z</time>
      </trkpt>
      <trkpt lat="44.64589" lon="4.04432">
        <ele>1351.362</ele>
        <time>2015-07-27T00:31:10Z</time>
      </trkpt>
      <trkpt lat="44.64582" lon="4.04402">
        <ele>1345.613</ele>
        <time>2015-07-27T00:31:30Z</time>
      </trkpt>
      <trkpt lat="44.64594" lon="4.04369">
        <ele>1342.166</ele>
        <time>2015-07-27T00:31:50Z</time>
      </trkpt>
      <trkpt lat="44.64571" lon="4.0423">
        <ele>1328.712</ele>
        <time>2015-07-27T00:32:10Z</time>
      </trkpt>
      <trkpt lat="44.64537" lon="4.0415">
        <ele>1318.996</ele>
        <time>2015-07-27T00:32:30Z</time>
      </trkpt>
      <trkpt lat="44.64515" lon="4.0413">
        <ele>1313.431</ele>
        <time>2015-07-27T00:32:50Z</time>
      </trkpt>
      <trkpt lat="44.64482" lon="4.04178">
        <ele>1306.261</ele>
        <time>2015-07-27T00:33:10Z</time>
      </trkpt>
      <trkpt lat="44.64432" lon="4.04315">
        <ele>1293.207</ele>
        <time>2015-07-27T00:33:30Z</time>
      </trkpt>
      <trkpt lat="44.64396" lon="4.04463">
        <ele>1299.308</ele>
        <time>2015-07-27T00:33:50Z</time>
      </trkpt>
      <trkpt lat="44.64385" lon="4.04496">
        <ele>1296.789</ele>
        <time>2015-07-27T00:34:10Z</time>
      </trkpt>
      <trkpt lat="44.64374" lon="4.04567">
        <ele>1295.283</ele>
        <time>2015-07-27T00:34:30Z</time>
      </trkpt>
      <trkpt lat="44.64335" lon="4.04614">
        <ele>1293.68</ele>
        <time>2015-07-27T00:34:50Z</time>
      </trkpt>
      <trkpt lat="44.64276" lon="4.04642">
        <ele>1288.383</ele>
        <time>2015-07-27T00:35:10Z</time>
      </trkpt>
      <trkpt lat="44.64229" lon="4.04678">
        <ele>1289.634</ele>
        <time>2015-07-27T00:35:30Z</time>
      </trkpt>
      <trkpt lat="44.64204" lon="4.0474">
        <ele>1288.647</ele>
        <time>2015-07-27T00:35:50Z</time>
      </trkpt>
      <trkpt lat="44.64142" lon="4.04817">
        <ele>1273.943</ele>
        <time>2015-07-27T00:36:10Z</time>
      </trkpt>
      <trkpt lat="44.6413" lon="4.04857">
        <ele>1272.767</ele>
        <time>2015-07-27T00:36:30Z</time>
      </trkpt>
      <trkpt lat="44.64116" lon="4.04878">
        <ele>1271.985</ele>
        <time>2015-07-27T00:36:50Z</time>
      </trkpt>
      <trkpt lat="44.64106" lon="4.04927">
        <ele>1272.989</ele>
        <time>2015-07-27T00:37:10Z</time>
      </trkpt>
      <trkpt lat="44.64088" lon="4.04954">
        <ele>1269.617</ele>
        <time>2015-07-27T00:37:30Z</time>
      </trkpt>
      <trkpt lat="44.64068" lon="4.05014">
        <ele>1271.208</ele>
        <time>2015-07-27T00:37:50Z</time>
      </trkpt>
      <trkpt lat="44.64022" lon="4.05063">
        <ele>1264.644</ele>
        <time>2015-07-27T00:38:10Z</time>
      </trkpt>
      <trkpt lat="44.63992" lon="4.05074">
        <ele>1255.638</ele>
        <time>2015-07-27T00:38:30Z</time>
      </trkpt>
      <trkpt lat="44.63967" lon="4.05103">
        <ele>1248.655</ele>
        <time>2015-07-27T00:38:50Z</time>
      </trkpt>
      <trkpt lat="44.63882" lon="4.05073">
        <ele>1233.598</ele>
        <time>2015-07-27T00:39:10Z</time>
      </trkpt>
      <trkpt lat="44.63851" lon="4.05078">
        <ele>1230.269</ele>
        <time>2015-07-27T00:39:30Z</time>
      </trkpt>
      <trkpt lat="44.63841" lon="4.05052">
        <ele>1229.122</ele>
        <time>2015-07-27T00:39:50Z</time>
      </trkpt>
      <trkpt lat="44.63821" lon="4.05057">
        <ele>1229.988</ele>
        <time>2015-07-27T00:40:10Z</time>
      </trkpt>
      <trkpt lat="44.63726" lon="4.05137">
        <ele>1230.092</ele>
        <time>2015-07-27T00:40:30Z</time>
      </trkpt>
      <trkpt lat="44.63672" lon="4.05229">
        <ele>1224.086</ele>
        <time>2015-07-27T00:40:50Z</time>
      </trkpt>
      <trkpt lat="44.63608" lon="4.05263">
        <ele>1222.56</ele>
        <time>2015-07-27T00:41:10Z</time>
      </trkpt>
      <trkpt lat="44.63561" lon="4.05291">
        <ele>1220.526</ele>
        <time>2015-07-27T00:41:30Z</time>
      </trkpt>
      <trkpt lat="44.63531" lon="4.05295">
        <ele>1218.808</ele>
        <time>2015-07-27T00:41:50Z</time>
      </trkpt>
      <trkpt lat="44.63491" lon="4.05262">
        <ele>1214.364</ele>
        <time>2015-07-27T00:42:10Z</time>
      </trkpt>
      <trkpt lat="44.63461" lon="4.0519">
        <ele>1214.558</ele>
        <time>2015-07-27T00:42:30Z</time>
      </trkpt>
      <trkpt lat="44.63454" lon="4.05126">
        <ele>1215.195</ele>
        <time>2015-07-27T00:42:50Z</time>
      </trkpt>
      <trkpt lat="44.63439" lon="4.05082">
        <ele>1213.668</ele>
        <time>2015-07-27T00:43:10Z</time>
      </trkpt>
      <trkpt lat="44.63425" lon="4.05032">
        <ele>1213.639</ele>
        <time>2015-07-27T00:43:30Z</time>
      </trkpt>
      <trkpt lat="44.63387" lon="4.05004">
        <ele>1212.512</ele>
        <time>2015-07-27T00:43:50Z</time>
      </trkpt>
      <trkpt lat="44.63386" lon="4.05055">
        <ele>1210.888</ele>
        <time>2015-07-27T00:44:10Z</time>
      </trkpt>
      <trkpt lat="44.63321" lon="4.05181">
        <ele>1201.292</ele>
        <time>2015-07-27T00:44:30Z</time>
      </trkpt>
      <trkpt lat="44.63279" lon="4.05198">
        <ele>1195.223</ele>
        <time>2015-07-27T00:44:50Z</time>
      </trkpt>
      <trkpt lat="44.63237" lon="4.05194">
        <ele>1191.283</ele>
        <time>2015-07-27T00:45:10Z</time>
      </trkpt>
      <trkpt lat="44.63139" lon="4.05224">
        <ele>1168.811</ele>
        <time>2015-07-27T00:45:30Z</time>
      </trkpt>
      <trkpt lat="44.63098" lon="4.05215">
        <ele>1166.908</ele>
        <time>2020-02-16T04:04:29Z</time>
      </trkpt>
      <trkpt lat="44.63054" lon="4.05291">
        <ele>1157.428</ele>
        <time>2015-07-27T00:46:10Z</time>
      </trkpt>
      <trkpt lat="44.6297" lon="4.05324">
        <ele>1162.282</ele>
        <time>2015-07-27T00:46:30Z</time>
      </trkpt>
      <trkpt lat="44.62911" lon="4.0531">
        <ele>1161.069</ele>
        <time>2015-07-27T00:46:50Z</time>
      </trkpt>
      <trkpt lat="44.62886" lon="4.05297">
        <ele>1161.122</ele>
        <time>2015-07-27T00:47:10Z</time>
      </trkpt>
      <trkpt lat="44.6275" lon="4.05287">
        <ele>1163.753</ele>
        <time>2015-07-27T00:47:30Z</time>
      </trkpt>
      <trkpt lat="44.62701" lon="4.05265">
        <ele>1160.416</ele>
        <time>2015-07-27T00:47:50Z</time>
      </trkpt>
      <trkpt lat="44.62615" lon="4.05211">
        <ele>1161.832</ele>
        <time>2015-07-27T00:48:10Z</time>
      </trkpt>
      <trkpt lat="44.62563" lon="4.05228">
        <ele>1169.666</ele>
        <time>2015-07-27T00:48:30Z</time>
      </trkpt>
      <trkpt lat="44.62492" lon="4.05291">
        <ele>1173.149</ele>
        <time>2015-07-27T00:48:50Z</time>
      </trkpt>
      <trkpt lat="44.62442" lon="4.05309">
        <ele>1173.202</ele>
        <time>2015-07-27T00:49:10Z</time>
      </trkpt>
      <trkpt lat="44.62398" lon="4.05301">
        <ele>1172.222</ele>
        <time>2015-07-27T00:49:30Z</time>
      </trkpt>
      <trkpt lat="44.62366" lon="4.05307">
        <ele>1177.108</ele>
        <time>2015-07-27T00:49:50Z</time>
      </trkpt>
      <trkpt lat="44.62317" lon="4.05296">
        <ele>1176.45</ele>
        <time>2015-07-27T00:50:10Z</time>
      </trkpt>
      <trkpt lat="44.62246" lon="4.0531">
        <ele>1179.034</ele>
        <time>2015-07-27T00:50:30Z</time>
      </trkpt>
      <trkpt lat="44.62219" lon="4.05338">
        <ele>1174.531</ele>
        <time>2015-07-27T00:50:50Z</time>
      </trkpt>
      <trkpt lat="44.62215" lon="4.05395">
        <ele>1175.684</ele>
        <time>2015-07-27T00:51:10Z</time>
      </trkpt>
      <trkpt lat="44.62187" lon="4.05514">
        <ele>1180.795</ele>
        <time>2015-07-27T00:51:30Z</time>
      </trkpt>
      <trkpt lat="44.62143" lon="4.05596">
        <ele>1174.268</ele>
        <time>2015-07-27T00:51:50Z</time>
      </trkpt>
      <trkpt lat="44.62102" lon="4.05645">
        <ele>1169.384</ele>
        <time>2020-11-21T03:23:05Z</time>
      </trkpt>
      <trkpt lat="44.6209" lon="4.057">
        <ele>1175.778</ele>
        <time>2015-07-27T00:52:30Z</time>
      </trkpt>
      <trkpt lat="44.62061" lon="4.05701">
        <ele>1172.247</ele>
        <time>2015-07-27T00:52:50Z</time>
      </trkpt>
      <trkpt lat="44.62023" lon="4.05682">
        <ele>1186.329</ele>
        <time>2020-11-21T03:24:05Z</time>
      </trkpt>
      <trkpt lat="44.62029" lon="4.05595">
        <ele>1196.421</ele>
        <time>2020-11-21T03:24:25Z</time>
      </trkpt>
      <trkpt lat="44.62022" lon="4.05515">
        <ele>1205.308</ele>
        <time>2020-11-21T03:24:45Z</time>
      </trkpt>
      <trkpt lat="44.62007" lon="4.0549">
        <ele>1213.96</ele>
        <time>2020-11-21T03:25:05Z</time>
      </trkpt>
      <trkpt lat="44.61977" lon="4.05508">
        <ele>1226.564</ele>
        <time>2020-11-21T03:25:25Z</time>
      </trkpt>
      <trkpt lat="44.61911" lon="4.05659">
        <ele>1249.421</ele>
        <time>2020-11-21T03:25:45Z</time>
      </trkpt>
      <trkpt lat="44.61802" lon="4.05768">
        <ele>1265.794</ele>
        <time>2020-11-21T03:26:05Z</time>
      </trkpt>
      <trkpt lat="44.61749" lon="4.05783">
        <ele>1276.265</ele>
        <time>2015-07-27T00:54:50Z</time>
      </trkpt>
      <trkpt lat="44.61708" lon="4.05819">
        <ele>1282.248</ele>
        <time>2015-07-27T00:55:10Z</time>
      </trkpt>
      <trkpt lat="44.61649" lon="4.05847">
        <ele>1291.974</ele>
        <time>2015-07-27T00:55:30Z</time>
      </trkpt>
      <trkpt lat="44.61544" lon="4.05902">
        <ele>1301.218</ele>
        <time>2015-07-27T00:55:50Z</time>
      </trkpt>
      <trkpt lat="44.61397" lon="4.05893">
        <ele>1314.575</ele>
        <time>2015-07-27T00:56:10Z</time>
      </trkpt>
      <trkpt lat="44.61342" lon="4.0583">
        <ele>1326.428</ele>
        <time>2015-07-27T00:56:30Z</time>
      </trkpt>
      <trkpt lat="44.6132" lon="4.0577">
        <ele>1337.12</ele>
        <time>2015-07-27T00:56:50Z</time>
      </trkpt>
      <trkpt lat="44.61287" lon="4.05759">
        <ele>1332.408</ele>
        <time>2015-07-27T00:57:10Z</time>
      </trkpt>
      <trkpt lat="44.61268" lon="4.05737">
        <ele>1336.763</ele>
        <time>2015-07-27T00:57:30Z</time>
      </trkpt>
      <trkpt lat="44.61232" lon="4.05697">
        <ele>1342.927</ele>
        <time>2015-07-27T00:57:50Z</time>
      </trkpt>
      <trkpt lat="44.61185" lon="4.05604">
        <ele>1349.914</ele>
        <time>2015-07-27T00:58:10Z</time>
      </trkpt>
      <trkpt lat="44.6115" lon="4.05573">
        <ele>1351.567</ele>
        <time>2015-07-27T00:58:30Z</time>
      </trkpt>
      <trkpt lat="44.61136" lon="4.05588">
        <ele>1350.038</ele>
        <time>2015-07-27T00:58:50Z</time>
      </trkpt>
      <trkpt lat="44.6106" lon="4.05757">
        <ele>1358.981</ele>
        <time>2015-07-27T00:59:10Z</time>
      </trkpt>
      <trkpt lat="44.6099" lon="4.05809">
        <ele>1364.137</ele>
        <time>2015-07-27T00:59:30Z</time>
      </trkpt>
      <trkpt lat="44.60932" lon="4.05817">
        <ele>1371.341</ele>
        <time>2015-07-27T00:59:50Z</time>
      </trkpt>
      <trkpt lat="44.6088" lon="4.05803">
        <ele>1369.015</ele>
        <time>2015-07-27T01:00:10Z</time>
      </trkpt>
      <trkpt lat="44.60825" lon="4.05744">
        <ele>1362.265</ele>
        <time>2015-07-27T01:00:30Z</time>
      </trkpt>
      <trkpt lat="44.60772" lon="4.05659">
        <ele>1357.511</ele>
        <time>2015-07-27T01:00:50Z</time>
      </trkpt>
      <trkpt lat="44.60737" lon="4.05591">
        <ele>1355.408</ele>
        <time>2015-07-27T01:01:10Z</time>
      </trkpt>
      <trkpt lat="44.60675" lon="4.05524">
        <ele>1347.037</ele>
        <time>2015-07-27T01:01:30Z</time>
      </trkpt>
      <trkpt lat="44.60611" lon="4.0552">
        <ele>1339.081</ele>
        <time>2015-07-27T01:01:50Z</time>
      </trkpt>
      <trkpt lat="44.60517" lon="4.05524">
        <ele>1322.078</ele>
        <time>2015-07-27T01:02:10Z</time>
      </trkpt>
      <trkpt lat="44.60452" lon="4.05445">
        <ele>1306.841</ele>
        <time>2015-07-27T01:02:30Z</time>
      </trkpt>
      <trkpt lat="44.60417" lon="4.05378">
        <ele>1289.832</ele>
        <time>2015-07-27T01:02:50Z</time>
      </trkpt>
      <trkpt lat="44.60412" lon="4.05331">
        <ele>1287.145</ele>
        <time>2015-07-27T01:03:10Z</time>
      </trkpt>
      <trkpt lat="44.60416" lon="4.05284">
        <ele>1290.741</ele>
        <time>2015-07-27T01:03:30Z</time>
      </trkpt>
      <trkpt lat="44.60329" lon="4.05213">
        <ele>1269.195</ele>
        <time>2015-07-27T01:03:50Z</time>
      </trkpt>
      <trkpt lat="44.60275" lon="4.05196">
        <ele>1255.971</ele>
        <time>2015-07-27T01:04:10Z</time>
      </trkpt>
      <trkpt lat="44.6022" lon="4.05197">
        <ele>1243.341</ele>
        <time>2015-07-27T01:04:30Z</time>
      </trkpt>
      <trkpt lat="44.60134" lon="4.05108">
        <ele>1226.115</ele>
        <time>2015-07-27T01:04:50Z</time>
      </trkpt>
      <trkpt lat="44.6009" lon="4.05108">
        <ele>1219.208</ele>
        <time>2015-07-27T01:05:10Z</time>
      </trkpt>
      <trkpt lat="44.6005" lon="4.05068">
        <ele>1216.593</ele>
        <time>2015-07-27T01:05:30Z</time>
      </trkpt>
      <trkpt lat="44.60022" lon="4.05054">
        <ele>1212.517</ele>
        <time>2015-07-27T01:05:50Z</time>
      </trkpt>
      <trkpt lat="44.60016" lon="4.05036">
        <ele>1210.434</ele>
        <time>2015-07-27T01:06:10Z</time>
      </trkpt>
      <trkpt lat="44.60023" lon="4.05027">
        <ele>1210.487</ele>
        <time>2020-02-20T11:52:13Z</time>
      </trkpt>
      <trkpt lat="44.60014" lon="4.05001">
        <ele>1207.618</ele>
        <time>2020-02-20T11:52:33Z</time>
      </trkpt>
      <trkpt lat="44.6" lon="4.0499">
        <ele>1204.311</ele>
        <time>2015-07-28T16:12:06Z</time>
      </trkpt>
      <trkpt lat="44.6" lon="4.0499">
        <ele>1204.377</ele>
        <time>2015-07-28T16:12:06Z</time>
      </trkpt>
      <trkpt lat="44.59969" lon="4.05002">
        <ele>1198.711</ele>
        <time>2015-07-28T16:12:26Z</time>
      </trkpt>
      <trkpt lat="44.5995" lon="4.04999">
        <ele>1194.912</ele>
        <time>2015-07-28T16:12:46Z</time>
      </trkpt>
      <trkpt lat="44.59868" lon="4.05018">
        <ele>1191.232</ele>
        <time>2015-07-28T16:13:06Z</time>
      </trkpt>
      <trkpt lat="44.59841" lon="4.05007">
        <ele>1188.105</ele>
        <time>2020-11-21T03:40:25Z</time>
      </trkpt>
      <trkpt lat="44.5984" lon="4.05018">
        <ele>1187.008</ele>
        <time>2020-11-21T03:40:45Z</time>
      </trkpt>
      <trkpt lat="44.59829" lon="4.05042">
        <ele>1182.627</ele>
        <time>2020-11-21T03:41:05Z</time>
      </trkpt>
      <trkpt lat="44.59791" lon="4.05076">
        <ele>1177.791</ele>
        <time>2020-11-21T03:41:25Z</time>
      </trkpt>
      <trkpt lat="44.59766" lon="4.05074">
        <ele>1175.198</ele>
        <time>2020-11-21T03:41:45Z</time>
      </trkpt>
      <trkpt lat="44.59747" lon="4.05127">
        <ele>1170.851</ele>
        <time>2020-11-21T03:42:05Z</time>
      </trkpt>
      <trkpt lat="44.59738" lon="4.05179">
        <ele>1160.872</ele>
        <time>2020-11-21T03:42:25Z</time>
      </trkpt>
      <trkpt lat="44.59718" lon="4.05222">
        <ele>1153.775</ele>
        <time>2020-11-21T03:42:45Z</time>
      </trkpt>
      <trkpt lat="44.59702" lon="4.05238">
        <ele>1154.781</ele>
        <time>2015-07-28T16:14:46Z</time>
      </trkpt>
      <trkpt lat="44.59672" lon="4.05252">
        <ele>1154.295</ele>
        <time>2015-07-28T16:15:06Z</time>
      </trkpt>
      <trkpt lat="44.59626" lon="4.0531">
        <ele>1145.196</ele>
        <time>2015-07-28T16:15:26Z</time>
      </trkpt>
      <trkpt lat="44.59614" lon="4.05336">
        <ele>1142.731</ele>
        <time>2015-07-28T16:15:46Z</time>
      </trkpt>
      <trkpt lat="44.59586" lon="4.05379">
        <ele>1139.524</ele>
        <time>2015-07-28T16:16:06Z</time>
      </trkpt>
      <trkpt lat="44.5954" lon="4.05482">
        <ele>1134.608</ele>
        <time>2015-07-28T16:16:26Z</time>
      </trkpt>
      <trkpt lat="44.59473" lon="4.05551">
        <ele>1125.685</ele>
        <time>2015-07-28T16:16:46Z</time>
      </trkpt>
      <trkpt lat="44.59422" lon="4.05582">
        <ele>1119.829</ele>
        <time>2015-07-28T16:17:06Z</time>
      </trkpt>
      <trkpt lat="44.5938" lon="4.05635">
        <ele>1118.796</ele>
        <time>2015-07-28T16:17:26Z</time>
      </trkpt>
      <trkpt lat="44.59286" lon="4.05666">
        <ele>1107.589</ele>
        <time>2015-07-28T16:17:46Z</time>
      </trkpt>
      <trkpt lat="44.59227" lon="4.05688">
        <ele>1110.13</ele>
        <time>2015-07-28T16:18:06Z</time>
      </trkpt>
      <trkpt lat="44.5919" lon="4.05715">
        <ele>1123.393</ele>
        <time>2015-07-28T16:18:26Z</time>
      </trkpt>
      <trkpt lat="44.59168" lon="4.05672">
        <ele>1115.769</ele>
        <time>2015-07-28T16:18:46Z</time>
      </trkpt>
      <trkpt lat="44.5913" lon="4.0564">
        <ele>1113.383</ele>
        <time>2015-07-28T16:19:06Z</time>
      </trkpt>
      <trkpt lat="44.59096" lon="4.05625">
        <ele>1121.061</ele>
        <time>2015-07-28T16:19:26Z</time>
      </trkpt>
      <trkpt lat="44.5911" lon="4.0566">
        <ele>1126.421</ele>
        <time>2015-07-28T16:19:46Z</time>
      </trkpt>
      <trkpt lat="44.59024" lon="4.05552">
        <ele>1127.813</ele>
        <time>2015-07-28T16:20:06Z</time>
      </trkpt>
      <trkpt lat="44.58984" lon="4.05538">
        <ele>1130.708</ele>
        <time>2015-07-28T16:20:26Z</time>
      </trkpt>
      <trkpt lat="44.5886" lon="4.05581">
        <ele>1144.222</ele>
        <time>2015-07-28T16:20:46Z</time>
      </trkpt>
      <trkpt lat="44.58815" lon="4.05581">
        <ele>1143.166</ele>
        <time>2015-07-28T16:21:06Z</time>
      </trkpt>
      <trkpt lat="44.5876" lon="4.05567">
        <ele>1143.953</ele>
        <time>2015-07-28T16:21:26Z</time>
      </trkpt>
      <trkpt lat="44.58674" lon="4.05555">
        <ele>1142.556</ele>
        <time>2015-07-28T16:21:46Z</time>
      </trkpt>
      <trkpt lat="44.58653" lon="4.05577">
        <ele>1141.587</ele>
        <time>2015-07-28T16:22:06Z</time>
      </trkpt>
      <trkpt lat="44.58627" lon="4.05636">
        <ele>1135.07</ele>
        <time>2015-07-28T16:22:26Z</time>
      </trkpt>
      <trkpt lat="44.58531" lon="4.05644">
        <ele>1118.156</ele>
        <time>2015-07-28T16:22:46Z</time>
      </trkpt>
      <trkpt lat="44.58436" lon="4.05643">
        <ele>1110.41</ele>
        <time>2015-07-28T16:23:06Z</time>
      </trkpt>
      <trkpt lat="44.58387" lon="4.05653">
        <ele>1109.484</ele>
        <time>2015-07-28T16:23:26Z</time>
      </trkpt>
      <trkpt lat="44.58311" lon="4.05643">
        <ele>1102.307</ele>
        <time>2015-07-28T16:23:46Z</time>
      </trkpt>
      <trkpt lat="44.58235" lon="4.05677">
        <ele>1096.317</ele>
        <time>2015-07-28T16:24:06Z</time>
      </trkpt>
      <trkpt lat="44.58157" lon="4.05718">
        <ele>1083.408</ele>
        <time>2015-07-28T16:24:26Z</time>
      </trkpt>
      <trkpt lat="44.5813" lon="4.05715">
        <ele>1080.774</ele>
        <time>2015-07-28T16:24:46Z</time>
      </trkpt>
      <trkpt lat="44.58105" lon="4.05698">
        <ele>1079.968</ele>
        <time>2015-07-28T16:25:06Z</time>
      </trkpt>
      <trkpt lat="44.58116" lon="4.05682">
        <ele>1079.795</ele>
        <time>2015-07-28T16:25:26Z</time>
      </trkpt>
      <trkpt lat="44.58128" lon="4.0568">
        <ele>1079.468</ele>
        <time>2015-07-28T16:25:46Z</time>
      </trkpt>
      <trkpt lat="44.58183" lon="4.05591">
        <ele>1084.399</ele>
        <time>2015-07-28T16:26:06Z</time>
      </trkpt>
      <trkpt lat="44.58198" lon="4.05551">
        <ele>1092.882</ele>
        <time>2015-07-28T16:26:26Z</time>
      </trkpt>
      <trkpt lat="44.58221" lon="4.0551">
        <ele>1100.028</ele>
        <time>2015-07-28T16:26:46Z</time>
      </trkpt>
      <trkpt lat="44.58233" lon="4.05478">
        <ele>1108.582</ele>
        <time>2015-07-28T16:27:06Z</time>
      </trkpt>
      <trkpt lat="44.58261" lon="4.05451">
        <ele>1108.867</ele>
        <time>2015-07-28T16:27:26Z</time>
      </trkpt>
      <trkpt lat="44.5827" lon="4.05427">
        <ele>1110.281</ele>
        <time>2015-07-28T16:27:46Z</time>
      </trkpt>
      <trkpt lat="44.58258" lon="4.05396">
        <ele>1115.319</ele>
        <time>2015-07-28T16:28:06Z</time>
      </trkpt>
      <trkpt lat="44.58251" lon="4.05368">
        <ele>1117.508</ele>
        <time>2015-07-28T16:28:26Z</time>
      </trkpt>
      <trkpt lat="44.58239" lon="4.05337">
        <ele>1119.432</ele>
        <time>2015-07-28T16:28:46Z</time>
      </trkpt>
      <trkpt lat="44.58198" lon="4.054">
        <ele>1126.526</ele>
        <time>2015-07-28T16:29:06Z</time>
      </trkpt>
      <trkpt lat="44.5814" lon="4.05417">
        <ele>1135.993</ele>
        <time>2015-07-28T16:29:26Z</time>
      </trkpt>
      <trkpt lat="44.58073" lon="4.05474">
        <ele>1141.736</ele>
        <time>2015-07-28T16:29:46Z</time>
      </trkpt>
      <trkpt lat="44.58026" lon="4.05484">
        <ele>1145.677</ele>
        <time>2015-07-28T16:30:06Z</time>
      </trkpt>
      <trkpt lat="44.57925" lon="4.05467">
        <ele>1159.32</ele>
        <time>2015-07-28T16:30:26Z</time>
      </trkpt>
      <trkpt lat="44.57952" lon="4.05459">
        <ele>1158.036</ele>
        <time>2015-07-28T16:30:46Z</time>
      </trkpt>
      <trkpt lat="44.57971" lon="4.05435">
        <ele>1159.21</ele>
        <time>2015-07-28T16:31:06Z</time>
      </trkpt>
      <trkpt lat="44.57975" lon="4.05398">
        <ele>1161.351</ele>
        <time>2015-07-28T16:31:26Z</time>
      </trkpt>
      <trkpt lat="44.57967" lon="4.05379">
        <ele>1162.201</ele>
        <time>2015-07-28T16:31:46Z</time>
      </trkpt>
      <trkpt lat="44.5793" lon="4.05366">
        <ele>1167.611</ele>
        <time>2015-07-28T16:32:06Z</time>
      </trkpt>
      <trkpt lat="44.57803" lon="4.05296">
        <ele>1177.808</ele>
        <time>2015-07-28T16:32:26Z</time>
      </trkpt>
      <trkpt lat="44.57701" lon="4.05214">
        <ele>1173.641</ele>
        <time>2015-07-28T16:32:46Z</time>
      </trkpt>
      <trkpt lat="44.57671" lon="4.05197">
        <ele>1178.165</ele>
        <time>2015-07-28T16:33:06Z</time>
      </trkpt>
      <trkpt lat="44.57615" lon="4.05111">
        <ele>1185.412</ele>
        <time>2015-07-28T16:33:26Z</time>
      </trkpt>
      <trkpt lat="44.57566" lon="4.05006">
        <ele>1188.075</ele>
        <time>2015-07-28T16:33:46Z</time>
      </trkpt>
      <trkpt lat="44.57536" lon="4.04954">
        <ele>1187.646</ele>
        <time>2015-07-28T16:34:06Z</time>
      </trkpt>
      <trkpt lat="44.57512" lon="4.04948">
        <ele>1183.389</ele>
        <time>2015-07-28T16:34:26Z</time>
      </trkpt>
      <trkpt lat="44.57513" lon="4.04902">
        <ele>1184.125</ele>
        <time>2015-07-28T16:34:46Z</time>
      </trkpt>
      <trkpt lat="44.57497" lon="4.04787">
        <ele>1183.279</ele>
        <time>2015-07-28T16:35:06Z</time>
      </trkpt>
      <trkpt lat="44.57504" lon="4.04611">
        <ele>1185.412</ele>
        <time>2015-07-28T16:35:26Z</time>
      </trkpt>
      <trkpt lat="44.57531" lon="4.04396">
        <ele>1185.432</ele>
        <time>2015-07-28T16:35:46Z</time>
      </trkpt>
      <trkpt lat="44.57557" lon="4.04311">
        <ele>1187.005</ele>
        <time>2015-07-28T16:36:06Z</time>
      </trkpt>
      <trkpt lat="44.57546" lon="4.04249">
        <ele>1188.808</ele>
        <time>2015-07-28T16:36:26Z</time>
      </trkpt>
      <trkpt lat="44.57523" lon="4.04188">
        <ele>1192.157</ele>
        <time>2015-07-28T16:36:46Z</time>
      </trkpt>
      <trkpt lat="44.57523" lon="4.04155">
        <ele>1193.191</ele>
        <time>2015-07-28T16:37:06Z</time>
      </trkpt>
      <trkpt lat="44.5755" lon="4.04069">
        <ele>1197.338</ele>
        <time>2015-07-28T16:37:26Z</time>
      </trkpt>
      <trkpt lat="44.57582" lon="4.03991">
        <ele>1194.591</ele>
        <time>2015-07-28T16:37:46Z</time>
      </trkpt>
      <trkpt lat="44.57572" lon="4.03857">
        <ele>1189.912</ele>
        <time>2015-07-28T16:38:06Z</time>
      </trkpt>
      <trkpt lat="44.57579" lon="4.03737">
        <ele>1189.915</ele>
        <time>2015-07-28T16:38:26Z</time>
      </trkpt>
      <trkpt lat="44.57484" lon="4.03645">
        <ele>1188.331</ele>
        <time>2015-07-28T16:38:46Z</time>
      </trkpt>
      <trkpt lat="44.57317" lon="4.03545">
        <ele>1187.715</ele>
        <time>2015-07-28T16:39:06Z</time>
      </trkpt>
      <trkpt lat="44.57285" lon="4.03502">
        <ele>1187.951</ele>
        <time>2015-07-28T16:39:26Z</time>
      </trkpt>
      <trkpt lat="44.57202" lon="4.03375">
        <ele>1188.301</ele>
        <time>2015-07-28T16:39:46Z</time>
      </trkpt>
      <trkpt lat="44.57157" lon="4.03333">
        <ele>1187.611</ele>
        <time>2015-07-28T16:40:06Z</time>
      </trkpt>
      <trkpt lat="44.57098" lon="4.03261">
        <ele>1183.408</ele>
        <time>2015-07-28T16:40:26Z</time>
      </trkpt>
      <trkpt lat="44.57071" lon="4.03256">
        <ele>1184.021</ele>
        <time>2015-07-28T16:40:46Z</time>
      </trkpt>
      <trkpt lat="44.57016" lon="4.03215">
        <ele>1182.745</ele>
        <time>2015-07-28T16:41:06Z</time>
      </trkpt>
      <trkpt lat="44.56912" lon="4.03235">
        <ele>1178.862</ele>
        <time>2015-07-28T16:41:26Z</time>
      </trkpt>
      <trkpt lat="44.56831" lon="4.0323">
        <ele>1171.135</ele>
        <time>2015-07-28T16:41:46Z</time>
      </trkpt>
      <trkpt lat="44.56779" lon="4.0319">
        <ele>1164.866</ele>
        <time>2015-07-28T16:42:06Z</time>
      </trkpt>
      <trkpt lat="44.56643" lon="4.03107">
        <ele>1144.039</ele>
        <time>2015-07-28T16:42:26Z</time>
      </trkpt>
      <trkpt lat="44.56614" lon="4.03074">
        <ele>1141.795</ele>
        <time>2015-07-28T16:42:46Z</time>
      </trkpt>
      <trkpt lat="44.56582" lon="4.03054">
        <ele>1140.029</ele>
        <time>2015-07-28T16:43:06Z</time>
      </trkpt>
      <trkpt lat="44.5644" lon="4.02871">
        <ele>1122.226</ele>
        <time>2015-07-28T16:43:26Z</time>
      </trkpt>
      <trkpt lat="44.56381" lon="4.0284">
        <ele>1120.147</ele>
        <time>2015-07-28T16:43:46Z</time>
      </trkpt>
      <trkpt lat="44.56339" lon="4.02782">
        <ele>1122.311</ele>
        <time>2015-07-28T16:44:06Z</time>
      </trkpt>
      <trkpt lat="44.56314" lon="4.0277">
        <ele>1122.308</ele>
        <time>2015-07-28T16:44:26Z</time>
      </trkpt>
      <trkpt lat="44.56292" lon="4.02733">
        <ele>1122.158</ele>
        <time>2015-07-28T16:44:46Z</time>
      </trkpt>
      <trkpt lat="44.56208" lon="4.02663">
        <ele>1119.412</ele>
        <time>2015-07-28T16:45:06Z</time>
      </trkpt>
      <trkpt lat="44.56177" lon="4.02626">
        <ele>1121.659</ele>
        <time>2015-07-28T16:45:26Z</time>
      </trkpt>
      <trkpt lat="44.5617" lon="4.02602">
        <ele>1123.312</ele>
        <time>2015-07-28T16:45:46Z</time>
      </trkpt>
      <trkpt lat="44.5617" lon="4.02544">
        <ele>1124.453</ele>
        <time>2015-07-28T16:46:06Z</time>
      </trkpt>
      <trkpt lat="44.56129" lon="4.02494">
        <ele>1127.866</ele>
        <time>2015-07-28T16:46:26Z</time>
      </trkpt>
      <trkpt lat="44.56087" lon="4.02428">
        <ele>1128.082</ele>
        <time>2015-07-28T16:46:46Z</time>
      </trkpt>
      <trkpt lat="44.56051" lon="4.02326">
        <ele>1121.946</ele>
        <time>2015-07-28T16:47:06Z</time>
      </trkpt>
      <trkpt lat="44.56038" lon="4.02299">
        <ele>1117.234</ele>
        <time>2015-07-28T16:47:26Z</time>
      </trkpt>
      <trkpt lat="44.56018" lon="4.02234">
        <ele>1109.155</ele>
        <time>2015-07-28T16:47:46Z</time>
      </trkpt>
      <trkpt lat="44.56004" lon="4.02216">
        <ele>1105.41</ele>
        <time>2015-07-28T16:48:06Z</time>
      </trkpt>
      <trkpt lat="44.56002" lon="4.02181">
        <ele>1104.308</ele>
        <time>2015-07-28T16:48:26Z</time>
      </trkpt>
      <trkpt lat="44.55996" lon="4.02158">
        <ele>1106.599</ele>
        <time>2015-07-28T16:48:46Z</time>
      </trkpt>
      <trkpt lat="44.55956" lon="4.02157">
        <ele>1105.213</ele>
        <time>2015-07-28T16:49:06Z</time>
      </trkpt>
      <trkpt lat="44.55902" lon="4.02133">
        <ele>1111.96</ele>
        <time>2015-07-28T16:49:26Z</time>
      </trkpt>
      <trkpt lat="44.5581" lon="4.01964">
        <ele>1136.813</ele>
        <time>2015-07-28T16:49:46Z</time>
      </trkpt>
      <trkpt lat="44.55768" lon="4.01935">
        <ele>1137.314</ele>
        <time>2015-07-28T16:50:06Z</time>
      </trkpt>
      <trkpt lat="44.55739" lon="4.01909">
        <ele>1138.557</ele>
        <time>2015-07-28T16:50:26Z</time>
      </trkpt>
      <trkpt lat="44.55643" lon="4.01734">
        <ele>1142.943</ele>
        <time>2015-07-28T16:50:46Z</time>
      </trkpt>
      <trkpt lat="44.55627" lon="4.01712">
        <ele>1142.777</ele>
        <time>2015-07-28T16:51:06Z</time>
      </trkpt>
      <trkpt lat="44.55604" lon="4.01731">
        <ele>1141.141</ele>
        <time>2015-07-28T16:51:26Z</time>
      </trkpt>
      <trkpt lat="44.55529" lon="4.01772">
        <ele>1136.681</ele>
        <time>2015-07-28T16:51:46Z</time>
      </trkpt>
      <trkpt lat="44.55502" lon="4.01779">
        <ele>1135.909</ele>
        <time>2015-07-28T16:52:06Z</time>
      </trkpt>
      <trkpt lat="44.5546" lon="4.01804">
        <ele>1134.708</ele>
        <time>2015-07-28T16:52:26Z</time>
      </trkpt>
      <trkpt lat="44.55427" lon="4.01852">
        <ele>1133.06</ele>
        <time>2015-07-28T16:52:46Z</time>
      </trkpt>
      <trkpt lat="44.55353" lon="4.01861">
        <ele>1131.094</ele>
        <time>2015-07-28T16:53:06Z</time>
      </trkpt>
      <trkpt lat="44.55275" lon="4.01885">
        <ele>1127.911</ele>
        <time>2015-07-28T16:53:26Z</time>
      </trkpt>
      <trkpt lat="44.55234" lon="4.01883">
        <ele>1127.284</ele>
        <time>2015-07-28T16:53:46Z</time>
      </trkpt>
      <trkpt lat="44.55194" lon="4.01874">
        <ele>1127.055</ele>
        <time>2015-07-28T16:54:06Z</time>
      </trkpt>
      <trkpt lat="44.55161" lon="4.01849">
        <ele>1126.618</ele>
        <time>2015-07-28T16:54:26Z</time>
      </trkpt>
      <trkpt lat="44.55109" lon="4.01837">
        <ele>1127.084</ele>
        <time>2015-07-28T16:54:46Z</time>
      </trkpt>
      <trkpt lat="44.55064" lon="4.01823">
        <ele>1126.978</ele>
        <time>2015-07-28T16:55:06Z</time>
      </trkpt>
      <trkpt lat="44.54998" lon="4.01835">
        <ele>1124.736</ele>
        <time>2015-07-28T16:55:26Z</time>
      </trkpt>
      <trkpt lat="44.54965" lon="4.01808">
        <ele>1122.517</ele>
        <time>2015-07-28T16:55:46Z</time>
      </trkpt>
      <trkpt lat="44.54941" lon="4.01814">
        <ele>1120.818</ele>
        <time>2015-07-28T16:56:06Z</time>
      </trkpt>
      <trkpt lat="44.54922" lon="4.01798">
        <ele>1119.908</ele>
        <time>2015-07-28T16:56:26Z</time>
      </trkpt>
      <trkpt lat="44.54849" lon="4.01763">
        <ele>1116.249</ele>
        <time>2015-07-28T16:56:46Z</time>
      </trkpt>
      <trkpt lat="44.54804" lon="4.01763">
        <ele>1112.433</ele>
        <time>2015-07-28T16:57:06Z</time>
      </trkpt>
      <trkpt lat="44.54743" lon="4.01756">
        <ele>1113.14</ele>
        <time>2015-07-28T16:57:26Z</time>
      </trkpt>
      <trkpt lat="44.54711" lon="4.01761">
        <ele>1112.883</ele>
        <time>2015-07-28T16:57:46Z</time>
      </trkpt>
      <trkpt lat="44.54606" lon="4.01842">
        <ele>1116.374</ele>
        <time>2015-07-28T16:58:06Z</time>
      </trkpt>
      <trkpt lat="44.54554" lon="4.01874">
        <ele>1112.157</ele>
        <time>2015-07-28T16:58:26Z</time>
      </trkpt>
      <trkpt lat="44.545" lon="4.01914">
        <ele>1105.513</ele>
        <time>2015-07-28T16:58:46Z</time>
      </trkpt>
      <trkpt lat="44.5444" lon="4.01916">
        <ele>1098.397</ele>
        <time>2015-07-28T16:59:06Z</time>
      </trkpt>
      <trkpt lat="44.5438" lon="4.01897">
        <ele>1091.922</ele>
        <time>2015-07-28T16:59:26Z</time>
      </trkpt>
      <trkpt lat="44.54307" lon="4.01926">
        <ele>1085.762</ele>
        <time>2015-07-28T16:59:46Z</time>
      </trkpt>
      <trkpt lat="44.54276" lon="4.01911">
        <ele>1084.608</ele>
        <time>2015-07-28T17:00:06Z</time>
      </trkpt>
      <trkpt lat="44.5424" lon="4.01913">
        <ele>1080.108</ele>
        <time>2015-07-28T17:00:26Z</time>
      </trkpt>
      <trkpt lat="44.542" lon="4.01967">
        <ele>1075.028</ele>
        <time>2015-07-28T17:00:46Z</time>
      </trkpt>
      <trkpt lat="44.54166" lon="4.01989">
        <ele>1069.892</ele>
        <time>2015-07-28T17:01:06Z</time>
      </trkpt>
      <trkpt lat="44.54149" lon="4.01986">
        <ele>1068.319</ele>
        <time>2015-07-28T17:01:26Z</time>
      </trkpt>
      <trkpt lat="44.54143" lon="4.01971">
        <ele>1069.622</ele>
        <time>2015-07-28T17:01:46Z</time>
      </trkpt>
      <trkpt lat="44.54128" lon="4.01981">
        <ele>1066.773</ele>
        <time>2015-07-28T17:02:06Z</time>
      </trkpt>
      <trkpt lat="44.5411" lon="4.01966">
        <ele>1066.396</ele>
        <time>2015-07-28T17:02:26Z</time>
      </trkpt>
      <trkpt lat="44.54091" lon="4.01958">
        <ele>1064.412</ele>
        <time>2015-07-28T17:02:46Z</time>
      </trkpt>
      <trkpt lat="44.54072" lon="4.01936">
        <ele>1062.066</ele>
        <time>2015-07-28T17:03:06Z</time>
      </trkpt>
      <trkpt lat="44.5404" lon="4.01938">
        <ele>1057.245</ele>
        <time>2015-07-28T17:03:26Z</time>
      </trkpt>
      <trkpt lat="44.54001" lon="4.01944">
        <ele>1054.147</ele>
        <time>2015-07-28T17:03:46Z</time>
      </trkpt>
      <trkpt lat="44.53982" lon="4.01926">
        <ele>1054.711</ele>
        <time>2015-07-28T17:04:06Z</time>
      </trkpt>
      <trkpt lat="44.53973" lon="4.01903">
        <ele>1055.508</ele>
        <time>2015-07-28T17:04:26Z</time>
      </trkpt>
      <trkpt lat="44.53958" lon="4.0189">
        <ele>1053.49</ele>
        <time>2015-07-28T17:04:46Z</time>
      </trkpt>
      <trkpt lat="44.53879" lon="4.01917">
        <ele>1034.784</ele>
        <time>2015-07-28T17:05:06Z</time>
      </trkpt>
      <trkpt lat="44.5382" lon="4.01987">
        <ele>1010.741</ele>
        <time>2015-07-28T17:05:26Z</time>
      </trkpt>
      <trkpt lat="44.53798" lon="4.01992">
        <ele>1008.724</ele>
        <time>2015-07-28T17:05:46Z</time>
      </trkpt>
      <trkpt lat="44.53766" lon="4.01956">
        <ele>1005.685</ele>
        <time>2015-07-28T17:06:06Z</time>
      </trkpt>
      <trkpt lat="44.53718" lon="4.01963">
        <ele>999.958</ele>
        <time>2015-07-28T17:06:26Z</time>
      </trkpt>
      <trkpt lat="44.53632" lon="4.02136">
        <ele>991.994</ele>
        <time>2015-07-28T17:06:46Z</time>
      </trkpt>
      <trkpt lat="44.53598" lon="4.0217">
        <ele>996.448</ele>
        <time>2015-07-28T17:07:06Z</time>
      </trkpt>
      <trkpt lat="44.53559" lon="4.02131">
        <ele>997.514</ele>
        <time>2015-07-28T17:07:26Z</time>
      </trkpt>
      <trkpt lat="44.53544" lon="4.02209">
        <ele>1008.154</ele>
        <time>2015-07-28T17:07:46Z</time>
      </trkpt>
      <trkpt lat="44.53519" lon="4.02211">
        <ele>1011.209</ele>
        <time>2015-07-28T17:08:06Z</time>
      </trkpt>
      <trkpt lat="44.53485" lon="4.02247">
        <ele>1020.108</ele>
        <time>2015-07-28T17:08:26Z</time>
      </trkpt>
      <trkpt lat="44.53454" lon="4.02299">
        <ele>1026.797</ele>
        <time>2015-07-28T17:08:46Z</time>
      </trkpt>
      <trkpt lat="44.53423" lon="4.02332">
        <ele>1035.541</ele>
        <time>2015-07-28T17:09:06Z</time>
      </trkpt>
      <trkpt lat="44.5339" lon="4.02344">
        <ele>1039.188</ele>
        <time>2015-07-28T17:09:26Z</time>
      </trkpt>
      <trkpt lat="44.53374" lon="4.02364">
        <ele>1038.491</ele>
        <time>2015-07-28T17:09:46Z</time>
      </trkpt>
      <trkpt lat="44.5331" lon="4.02351">
        <ele>1044.172</ele>
        <time>2015-07-28T17:10:06Z</time>
      </trkpt>
      <trkpt lat="44.53182" lon="4.02445">
        <ele>1050.345</ele>
        <time>2015-07-28T17:10:26Z</time>
      </trkpt>
      <trkpt lat="44.53129" lon="4.02463">
        <ele>1054.651</ele>
        <time>2015-07-28T17:10:46Z</time>
      </trkpt>
      <trkpt lat="44.53055" lon="4.02503">
        <ele>1051.785</ele>
        <time>2015-07-28T17:11:06Z</time>
      </trkpt>
      <trkpt lat="44.52926" lon="4.02625">
        <ele>1054.784</ele>
        <time>2015-07-28T17:11:26Z</time>
      </trkpt>
      <trkpt lat="44.52785" lon="4.02682">
        <ele>1050.507</ele>
        <time>2015-07-28T17:11:46Z</time>
      </trkpt>
      <trkpt lat="44.52649" lon="4.02745">
        <ele>1050.417</ele>
        <time>2015-07-28T17:12:06Z</time>
      </trkpt>
      <trkpt lat="44.52437" lon="4.02916">
        <ele>1052.908</ele>
        <time>2015-07-28T17:12:26Z</time>
      </trkpt>
      <trkpt lat="44.52335" lon="4.03044">
        <ele>1053.864</ele>
        <time>2015-07-28T17:12:46Z</time>
      </trkpt>
      <trkpt lat="44.52314" lon="4.03059">
        <ele>1054.598</ele>
        <time>2015-07-28T17:13:06Z</time>
      </trkpt>
      <trkpt lat="44.52174" lon="4.03199">
        <ele>1048.555</ele>
        <time>2015-07-28T17:13:26Z</time>
      </trkpt>
      <trkpt lat="44.52011" lon="4.0337">
        <ele>1029.948</ele>
        <time>2015-07-28T17:13:46Z</time>
      </trkpt>
      <trkpt lat="44.51956" lon="4.0345">
        <ele>1029.839</ele>
        <time>2015-07-28T17:14:06Z</time>
      </trkpt>
      <trkpt lat="44.51854" lon="4.03583">
        <ele>1024.512</ele>
        <time>2015-07-28T17:14:26Z</time>
      </trkpt>
      <trkpt lat="44.51789" lon="4.03655">
        <ele>1021.948</ele>
        <time>2015-07-28T17:14:46Z</time>
      </trkpt>
      <trkpt lat="44.51695" lon="4.03748">
        <ele>1013.232</ele>
        <time>2015-07-28T17:15:06Z</time>
      </trkpt>
      <trkpt lat="44.51619" lon="4.03854">
        <ele>1002.729</ele>
        <time>2015-07-28T17:15:26Z</time>
      </trkpt>
      <trkpt lat="44.51599" lon="4.03866">
        <ele>999.9</ele>
        <time>2015-07-28T17:15:46Z</time>
      </trkpt>
      <trkpt lat="44.51563" lon="4.03853">
        <ele>994.12</ele>
        <time>2015-07-28T17:16:06Z</time>
      </trkpt>
      <trkpt lat="44.51537" lon="4.03799">
        <ele>992.808</ele>
        <time>2015-07-28T17:16:26Z</time>
      </trkpt>
      <trkpt lat="44.51517" lon="4.03785">
        <ele>990.848</ele>
        <time>2015-07-28T17:16:46Z</time>
      </trkpt>
      <trkpt lat="44.51489" lon="4.03789">
        <ele>987.192</ele>
        <time>2015-07-28T17:17:06Z</time>
      </trkpt>
      <trkpt lat="44.51426" lon="4.03873">
        <ele>983.649</ele>
        <time>2015-07-28T17:17:26Z</time>
      </trkpt>
      <trkpt lat="44.51377" lon="4.03913">
        <ele>981.032</ele>
        <time>2015-07-28T17:17:46Z</time>
      </trkpt>
      <trkpt lat="44.5136" lon="4.03948">
        <ele>981.853</ele>
        <time>2015-07-28T17:18:06Z</time>
      </trkpt>
      <trkpt lat="44.51346" lon="4.04006">
        <ele>979.946</ele>
        <time>2015-07-28T17:18:26Z</time>
      </trkpt>
      <trkpt lat="44.51323" lon="4.04035">
        <ele>978.142</ele>
        <time>2015-07-28T17:18:46Z</time>
      </trkpt>
      <trkpt lat="44.51302" lon="4.04051">
        <ele>976.736</ele>
        <time>2015-07-28T17:19:06Z</time>
      </trkpt>
      <trkpt lat="44.51261" lon="4.04106">
        <ele>974.413</ele>
        <time>2015-07-28T17:19:26Z</time>
      </trkpt>
      <trkpt lat="44.51242" lon="4.04144">
        <ele>974.043</ele>
        <time>2015-07-28T17:19:46Z</time>
      </trkpt>
      <trkpt lat="44.51242" lon="4.04164">
        <ele>974.307</ele>
        <time>2015-07-28T17:20:06Z</time>
      </trkpt>
      <trkpt lat="44.51256" lon="4.04203">
        <ele>975.508</ele>
        <time>2015-07-28T17:20:26Z</time>
      </trkpt>
      <trkpt lat="44.51268" lon="4.04268">
        <ele>977.327</ele>
        <time>2015-07-28T17:20:46Z</time>
      </trkpt>
      <trkpt lat="44.51281" lon="4.04389">
        <ele>976.721</ele>
        <time>2015-07-28T17:21:06Z</time>
      </trkpt>
      <trkpt lat="44.51234" lon="4.045">
        <ele>968.458</ele>
        <time>2015-07-28T17:21:26Z</time>
      </trkpt>
      <trkpt lat="44.51196" lon="4.04538">
        <ele>963.961</ele>
        <time>2015-07-28T17:21:46Z</time>
      </trkpt>
      <trkpt lat="44.51164" lon="4.04575">
        <ele>957.212</ele>
        <time>2015-07-28T17:22:06Z</time>
      </trkpt>
      <trkpt lat="44.5109" lon="4.0461">
        <ele>949.195</ele>
        <time>2015-07-28T17:22:26Z</time>
      </trkpt>
      <trkpt lat="44.51066" lon="4.04626">
        <ele>944.771</ele>
        <time>2015-07-28T17:22:46Z</time>
      </trkpt>
      <trkpt lat="44.51049" lon="4.04649">
        <ele>937.845</ele>
        <time>2015-07-28T17:23:06Z</time>
      </trkpt>
      <trkpt lat="44.51044" lon="4.04688">
        <ele>932.978</ele>
        <time>2015-07-28T17:23:26Z</time>
      </trkpt>
      <trkpt lat="44.51044" lon="4.04758">
        <ele>930.633</ele>
        <time>2015-07-28T17:23:46Z</time>
      </trkpt>
      <trkpt lat="44.51051" lon="4.04809">
        <ele>930.626</ele>
        <time>2015-07-28T17:24:06Z</time>
      </trkpt>
      <trkpt lat="44.51079" lon="4.04825">
        <ele>932.208</ele>
        <time>2015-07-28T17:24:26Z</time>
      </trkpt>
      <trkpt lat="44.51101" lon="4.04848">
        <ele>932.473</ele>
        <time>2015-07-28T17:24:46Z</time>
      </trkpt>
      <trkpt lat="44.51129" lon="4.04903">
        <ele>927.997</ele>
        <time>2015-07-28T17:25:06Z</time>
      </trkpt>
      <trkpt lat="44.5115" lon="4.04959">
        <ele>924.714</ele>
        <time>2015-07-28T17:25:26Z</time>
      </trkpt>
      <trkpt lat="44.51154" lon="4.04992">
        <ele>923.387</ele>
        <time>2015-07-28T17:25:46Z</time>
      </trkpt>
      <trkpt lat="44.51149" lon="4.05025">
        <ele>920.838</ele>
        <time>2015-07-28T17:26:06Z</time>
      </trkpt>
      <trkpt lat="44.51119" lon="4.05102">
        <ele>912.131</ele>
        <time>2015-07-28T17:26:26Z</time>
      </trkpt>
      <trkpt lat="44.51126" lon="4.05118">
        <ele>911.627</ele>
        <time>2015-07-28T17:26:46Z</time>
      </trkpt>
      <trkpt lat="44.51119" lon="4.05145">
        <ele>910.811</ele>
        <time>2015-07-28T17:27:06Z</time>
      </trkpt>
      <trkpt lat="44.5105" lon="4.05335">
        <ele>900.886</ele>
        <time>2015-07-28T17:27:26Z</time>
      </trkpt>
      <trkpt lat="44.51055" lon="4.05365">
        <ele>901.66</ele>
        <time>2015-07-28T17:27:46Z</time>
      </trkpt>
      <trkpt lat="44.51076" lon="4.05374">
        <ele>902.026</ele>
        <time>2015-07-28T17:28:06Z</time>
      </trkpt>
      <trkpt lat="44.51141" lon="4.05349">
        <ele>900.708</ele>
        <time>2015-07-28T17:28:26Z</time>
      </trkpt>
      <trkpt lat="44.51092" lon="4.05419">
        <ele>891.444</ele>
        <time>2015-07-28T17:28:46Z</time>
      </trkpt>
      <trkpt lat="44.51066" lon="4.05471">
        <ele>883.688</ele>
        <time>2015-07-28T17:29:06Z</time>
      </trkpt>
      <trkpt lat="44.51043" lon="4.05479">
        <ele>880.195</ele>
        <time>2015-07-28T17:29:26Z</time>
      </trkpt>
      <trkpt lat="44.51014" lon="4.05473">
        <ele>876.378</ele>
        <time>2015-07-28T17:29:46Z</time>
      </trkpt>
      <trkpt lat="44.50969" lon="4.0542">
        <ele>873.219</ele>
        <time>2015-07-28T17:30:06Z</time>
      </trkpt>
      <trkpt lat="44.5093" lon="4.05385">
        <ele>863.232</ele>
        <time>2015-07-28T17:30:26Z</time>
      </trkpt>
      <trkpt lat="44.50911" lon="4.0538">
        <ele>858.158</ele>
        <time>2015-07-28T17:30:46Z</time>
      </trkpt>
      <trkpt lat="44.50885" lon="4.05407">
        <ele>853.582</ele>
        <time>2015-07-28T17:31:06Z</time>
      </trkpt>
      <trkpt lat="44.50855" lon="4.05464">
        <ele>847.697</ele>
        <time>2015-07-28T17:31:26Z</time>
      </trkpt>
      <trkpt lat="44.50832" lon="4.05531">
        <ele>840.723</ele>
        <time>2015-07-28T17:31:46Z</time>
      </trkpt>
      <trkpt lat="44.50783" lon="4.05559">
        <ele>838.325</ele>
        <time>2015-07-28T17:32:06Z</time>
      </trkpt>
      <trkpt lat="44.50713" lon="4.05574">
        <ele>833.308</ele>
        <time>2015-07-28T17:32:26Z</time>
      </trkpt>
      <trkpt lat="44.5066" lon="4.05599">
        <ele>828.585</ele>
        <time>2015-07-28T17:32:46Z</time>
      </trkpt>
      <trkpt lat="44.50655" lon="4.05622">
        <ele>829.869</ele>
        <time>2015-07-28T17:33:06Z</time>
      </trkpt>
      <trkpt lat="44.50674" lon="4.05715">
        <ele>827.846</ele>
        <time>2015-07-28T17:33:26Z</time>
      </trkpt>
      <trkpt lat="44.50671" lon="4.0575">
        <ele>826.699</ele>
        <time>2015-07-28T17:33:46Z</time>
      </trkpt>
      <trkpt lat="44.50647" lon="4.05795">
        <ele>824.56</ele>
        <time>2015-07-28T17:34:06Z</time>
      </trkpt>
      <trkpt lat="44.50619" lon="4.05825">
        <ele>818.123</ele>
        <time>2015-07-28T17:34:26Z</time>
      </trkpt>
      <trkpt lat="44.50629" lon="4.05784">
        <ele>815.819</ele>
        <time>2015-07-28T17:34:46Z</time>
      </trkpt>
      <trkpt lat="44.50621" lon="4.05777">
        <ele>810.853</ele>
        <time>2015-07-28T17:35:06Z</time>
      </trkpt>
      <trkpt lat="44.50604" lon="4.05799">
        <ele>806.398</ele>
        <time>2015-07-28T17:35:26Z</time>
      </trkpt>
      <trkpt lat="44.50585" lon="4.05853">
        <ele>813.415</ele>
        <time>2015-07-28T17:35:46Z</time>
      </trkpt>
      <trkpt lat="44.50532" lon="4.05841">
        <ele>794.126</ele>
        <time>2015-07-28T17:36:06Z</time>
      </trkpt>
      <trkpt lat="44.50505" lon="4.05877">
        <ele>800.708</ele>
        <time>2015-07-28T17:36:26Z</time>
      </trkpt>
      <trkpt lat="44.50487" lon="4.05885">
        <ele>801.955</ele>
        <time>2015-07-28T17:36:46Z</time>
      </trkpt>
      <trkpt lat="44.50469" lon="4.05866">
        <ele>794.369</ele>
        <time>2015-07-28T17:37:06Z</time>
      </trkpt>
      <trkpt lat="44.50445" lon="4.05855">
        <ele>792.466</ele>
        <time>2015-07-28T17:37:26Z</time>
      </trkpt>
      <trkpt lat="44.50427" lon="4.05828">
        <ele>784.799</ele>
        <time>2015-07-28T17:37:46Z</time>
      </trkpt>
      <trkpt lat="44.50375" lon="4.05767">
        <ele>769.98</ele>
        <time>2015-07-28T17:38:06Z</time>
      </trkpt>
      <trkpt lat="44.5036" lon="4.0577">
        <ele>770.593</ele>
        <time>2015-07-28T17:38:26Z</time>
      </trkpt>
      <trkpt lat="44.50329" lon="4.05826">
        <ele>780.629</ele>
        <time>2015-07-28T17:38:46Z</time>
      </trkpt>
      <trkpt lat="44.50297" lon="4.05826">
        <ele>772.153</ele>
        <time>2015-07-28T17:39:06Z</time>
      </trkpt>
      <trkpt lat="44.50276" lon="4.05839">
        <ele>772.661</ele>
        <time>2015-07-28T17:39:26Z</time>
      </trkpt>
      <trkpt lat="44.50248" lon="4.05824">
        <ele>763.621</ele>
        <time>2015-07-28T17:39:46Z</time>
      </trkpt>
      <trkpt lat="44.50213" lon="4.05821">
        <ele>763.313</ele>
        <time>2015-07-28T17:40:06Z</time>
      </trkpt>
      <trkpt lat="44.50171" lon="4.05763">
        <ele>747.708</ele>
        <time>2015-07-28T17:40:26Z</time>
      </trkpt>
      <trkpt lat="44.50116" lon="4.05757">
        <ele>746.062</ele>
        <time>2015-07-28T17:40:46Z</time>
      </trkpt>
      <trkpt lat="44.50083" lon="4.05709">
        <ele>734.346</ele>
        <time>2015-07-28T17:41:06Z</time>
      </trkpt>
      <trkpt lat="44.50033" lon="4.05654">
        <ele>728.333</ele>
        <time>2015-07-28T17:41:26Z</time>
      </trkpt>
      <trkpt lat="44.50006" lon="4.05569">
        <ele>716.946</ele>
        <time>2015-07-28T17:41:46Z</time>
      </trkpt>
      <trkpt lat="44.49952" lon="4.05515">
        <ele>706.097</ele>
        <time>2015-07-28T17:42:06Z</time>
      </trkpt>
      <trkpt lat="44.4995" lon="4.05487">
        <ele>700.91</ele>
        <time>2015-07-28T17:42:26Z</time>
      </trkpt>
      <trkpt lat="44.4991" lon="4.05484">
        <ele>693.116</ele>
        <time>2015-07-28T17:42:46Z</time>
      </trkpt>
      <trkpt lat="44.49901" lon="4.05465">
        <ele>690.32</ele>
        <time>2015-07-28T17:43:06Z</time>
      </trkpt>
      <trkpt lat="44.49915" lon="4.05422">
        <ele>688.843</ele>
        <time>2015-07-28T17:43:26Z</time>
      </trkpt>
      <trkpt lat="44.49889" lon="4.0542">
        <ele>685.364</ele>
        <time>2015-07-28T17:43:46Z</time>
      </trkpt>
      <trkpt lat="44.49852" lon="4.05426">
        <ele>678.11</ele>
        <time>2015-07-28T17:44:06Z</time>
      </trkpt>
      <trkpt lat="44.49836" lon="4.05417">
        <ele>673.808</ele>
        <time>2015-07-28T17:44:26Z</time>
      </trkpt>
      <trkpt lat="44.49832" lon="4.05377">
        <ele>668.02</ele>
        <time>2015-07-28T17:44:46Z</time>
      </trkpt>
      <trkpt lat="44.4979" lon="4.05402">
        <ele>661.294</ele>
        <time>2015-07-28T17:45:06Z</time>
      </trkpt>
      <trkpt lat="44.49793" lon="4.0537">
        <ele>660.181</ele>
        <time>2015-07-28T17:45:26Z</time>
      </trkpt>
      <trkpt lat="44.49763" lon="4.0538">
        <ele>655.164</ele>
        <time>2015-07-28T17:45:46Z</time>
      </trkpt>
      <trkpt lat="44.49744" lon="4.05376">
        <ele>650.185</ele>
        <time>2015-07-28T17:46:06Z</time>
      </trkpt>
      <trkpt lat="44.49738" lon="4.05355">
        <ele>648.118</ele>
        <time>2015-07-28T17:46:26Z</time>
      </trkpt>
      <trkpt lat="44.49754" lon="4.05327">
        <ele>646.514</ele>
        <time>2015-07-28T17:46:46Z</time>
      </trkpt>
      <trkpt lat="44.49803" lon="4.05311">
        <ele>646.548</ele>
        <time>2015-07-28T17:47:06Z</time>
      </trkpt>
      <trkpt lat="44.49747" lon="4.05272">
        <ele>635.488</ele>
        <time>2015-07-28T17:47:26Z</time>
      </trkpt>
      <trkpt lat="44.49713" lon="4.05267">
        <ele>630.224</ele>
        <time>2015-07-28T17:47:46Z</time>
      </trkpt>
      <trkpt lat="44.49744" lon="4.05239">
        <ele>626.726</ele>
        <time>2015-07-28T17:48:06Z</time>
      </trkpt>
      <trkpt lat="44.49802" lon="4.05242">
        <ele>627.708</ele>
        <time>2015-07-28T17:48:26Z</time>
      </trkpt>
      <trkpt lat="44.49826" lon="4.05225">
        <ele>624.384</ele>
        <time>2015-07-28T17:48:46Z</time>
      </trkpt>
      <trkpt lat="44.49831" lon="4.05209">
        <ele>619.998</ele>
        <time>2015-07-28T17:49:06Z</time>
      </trkpt>
      <trkpt lat="44.49803" lon="4.05195">
        <ele>614.085</ele>
        <time>2015-07-28T17:49:26Z</time>
      </trkpt>
      <trkpt lat="44.49778" lon="4.05151">
        <ele>600.238</ele>
        <time>2015-07-28T17:49:46Z</time>
      </trkpt>
      <trkpt lat="44.49759" lon="4.05101">
        <ele>590.589</ele>
        <time>2015-07-28T17:50:06Z</time>
      </trkpt>
      <trkpt lat="44.4974" lon="4.0508">
        <ele>585.152</ele>
        <time>2015-07-28T17:50:26Z</time>
      </trkpt>
      <trkpt lat="44.49699" lon="4.05078">
        <ele>579.548</ele>
        <time>2015-07-28T17:50:46Z</time>
      </trkpt>
      <trkpt lat="44.49622" lon="4.05149">
        <ele>575.132</ele>
        <time>2015-07-28T17:51:06Z</time>
      </trkpt>
      <trkpt lat="44.49534" lon="4.05183">
        <ele>561.359</ele>
        <time>2015-07-28T17:51:26Z</time>
      </trkpt>
      <trkpt lat="44.49488" lon="4.05187">
        <ele>550.703</ele>
        <time>2015-07-28T17:51:46Z</time>
      </trkpt>
      <trkpt lat="44.49463" lon="4.0517">
        <ele>542.623</ele>
        <time>2015-07-28T17:52:06Z</time>
      </trkpt>
      <trkpt lat="44.49384" lon="4.05166">
        <ele>531.408</ele>
        <time>2015-07-28T17:52:26Z</time>
      </trkpt>
      <trkpt lat="44.4933" lon="4.05137">
        <ele>532.051</ele>
        <time>2015-07-28T17:52:46Z</time>
      </trkpt>
      <trkpt lat="44.49374" lon="4.05205">
        <ele>519.375</ele>
        <time>2015-07-28T17:53:06Z</time>
      </trkpt>
      <trkpt lat="44.49424" lon="4.0526">
        <ele>518.062</ele>
        <time>2015-07-28T17:53:26Z</time>
      </trkpt>
      <trkpt lat="44.49433" lon="4.05341">
        <ele>521.925</ele>
        <time>2015-07-28T17:53:46Z</time>
      </trkpt>
      <trkpt lat="44.49419" lon="4.05352">
        <ele>517.916</ele>
        <time>2015-07-28T17:54:06Z</time>
      </trkpt>
      <trkpt lat="44.49399" lon="4.05301">
        <ele>507.319</ele>
        <time>2015-07-28T17:54:26Z</time>
      </trkpt>
      <trkpt lat="44.49375" lon="4.05319">
        <ele>504.225</ele>
        <time>2015-07-28T17:54:46Z</time>
      </trkpt>
      <trkpt lat="44.49333" lon="4.05328">
        <ele>496.619</ele>
        <time>2015-07-28T17:55:06Z</time>
      </trkpt>
      <trkpt lat="44.49265" lon="4.05317">
        <ele>487.973</ele>
        <time>2015-07-28T17:55:26Z</time>
      </trkpt>
      <trkpt lat="44.49236" lon="4.05319">
        <ele>489.785</ele>
        <time>2015-07-28T17:55:46Z</time>
      </trkpt>
      <trkpt lat="44.49175" lon="4.05381">
        <ele>500.513</ele>
        <time>2015-07-28T17:56:06Z</time>
      </trkpt>
      <trkpt lat="44.49149" lon="4.05394">
        <ele>498.608</ele>
        <time>2015-07-28T17:56:26Z</time>
      </trkpt>
      <trkpt lat="44.49104" lon="4.05438">
        <ele>496.823</ele>
        <time>2015-07-28T17:56:46Z</time>
      </trkpt>
      <trkpt lat="44.49086" lon="4.055">
        <ele>506.597</ele>
        <time>2015-07-28T17:57:06Z</time>
      </trkpt>
      <trkpt lat="44.48976" lon="4.05547">
        <ele>493.394</ele>
        <time>2015-07-28T17:57:26Z</time>
      </trkpt>
      <trkpt lat="44.48969" lon="4.05576">
        <ele>494.587</ele>
        <time>2015-07-28T17:57:46Z</time>
      </trkpt>
      <trkpt lat="44.49026" lon="4.05697">
        <ele>503.588</ele>
        <time>2015-07-28T17:58:06Z</time>
      </trkpt>
      <trkpt lat="44.49086" lon="4.05757">
        <ele>506.181</ele>
        <time>2015-07-28T17:58:26Z</time>
      </trkpt>
      <trkpt lat="44.49106" lon="4.05812">
        <ele>495.277</ele>
        <time>2015-07-28T17:58:46Z</time>
      </trkpt>
      <trkpt lat="44.49124" lon="4.05833">
        <ele>493.751</ele>
        <time>2015-07-28T17:59:06Z</time>
      </trkpt>
      <trkpt lat="44.49157" lon="4.05843">
        <ele>496.787</ele>
        <time>2015-07-28T17:59:26Z</time>
      </trkpt>
      <trkpt lat="44.49192" lon="4.05837">
        <ele>503.742</ele>
        <time>2015-07-28T17:59:46Z</time>
      </trkpt>
      <trkpt lat="44.49225" lon="4.05849">
        <ele>505.426</ele>
        <time>2015-07-28T18:00:06Z</time>
      </trkpt>
      <trkpt lat="44.4923" lon="4.05866">
        <ele>502.308</ele>
        <time>2020-11-21T05:28:45Z</time>
      </trkpt>
      <trkpt lat="44.49221" lon="4.05874">
        <ele>499.584</ele>
        <time>2020-11-21T05:29:05Z</time>
      </trkpt>
      <trkpt lat="44.49205" lon="4.05881">
        <ele>497.458</ele>
        <time>2020-11-21T05:29:25Z</time>
      </trkpt>
      <trkpt lat="44.49189" lon="4.05905">
        <ele>497.925</ele>
        <time>2020-11-21T05:29:45Z</time>
      </trkpt>
      <trkpt lat="44.49168" lon="4.05916">
        <ele>495.388</ele>
        <time>2020-11-21T05:30:05Z</time>
      </trkpt>
      <trkpt lat="44.49104" lon="4.05967">
        <ele>504.189</ele>
        <time>2020-11-21T05:30:25Z</time>
      </trkpt>
      <trkpt lat="44.49098" lon="4.05985">
        <ele>511.882</ele>
        <time>2020-11-21T05:30:45Z</time>
      </trkpt>
      <trkpt lat="44.49078" lon="4.06004">
        <ele>520.688</ele>
        <time>2015-07-28T18:03:06Z</time>
      </trkpt>
      <trkpt lat="44.49051" lon="4.05983">
        <ele>516.812</ele>
        <time>2015-07-28T18:03:26Z</time>
      </trkpt>
      <trkpt lat="44.49027" lon="4.05982">
        <ele>522.574</ele>
        <time>2015-07-28T18:03:46Z</time>
      </trkpt>
      <trkpt lat="44.49015" lon="4.05988">
        <ele>526.256</ele>
        <time>2015-07-28T18:04:06Z</time>
      </trkpt>
      <trkpt lat="44.49051" lon="4.0602">
        <ele>531.921</ele>
        <time>2015-07-28T18:04:26Z</time>
      </trkpt>
      <trkpt lat="44.49069" lon="4.06053">
        <ele>545.508</ele>
        <time>2015-07-28T18:04:46Z</time>
      </trkpt>
      <trkpt lat="44.49035" lon="4.0604">
        <ele>545.083</ele>
        <time>2015-07-28T18:05:06Z</time>
      </trkpt>
      <trkpt lat="44.48997" lon="4.0605">
        <ele>554.337</ele>
        <time>2015-07-28T18:05:26Z</time>
      </trkpt>
      <trkpt lat="44.48958" lon="4.06076">
        <ele>570.434</ele>
        <time>2015-07-28T18:05:46Z</time>
      </trkpt>
      <trkpt lat="44.48885" lon="4.06057">
        <ele>568.717</ele>
        <time>2015-07-28T18:06:06Z</time>
      </trkpt>
      <trkpt lat="44.48864" lon="4.06058">
        <ele>575.168</ele>
        <time>2015-07-28T18:06:26Z</time>
      </trkpt>
      <trkpt lat="44.48841" lon="4.06052">
        <ele>581.571</ele>
        <time>2015-07-28T18:06:46Z</time>
      </trkpt>
      <trkpt lat="44.48782" lon="4.06046">
        <ele>602.067</ele>
        <time>2015-07-28T18:07:06Z</time>
      </trkpt>
      <trkpt lat="44.48717" lon="4.06001">
        <ele>599.211</ele>
        <time>2015-07-28T18:07:26Z</time>
      </trkpt>
      <trkpt lat="44.48676" lon="4.05996">
        <ele>603.864</ele>
        <time>2015-07-28T18:07:46Z</time>
      </trkpt>
      <trkpt lat="44.48678" lon="4.06022">
        <ele>614.606</ele>
        <time>2015-07-28T18:08:06Z</time>
      </trkpt>
      <trkpt lat="44.48672" lon="4.06039">
        <ele>621.316</ele>
        <time>2015-07-28T18:08:26Z</time>
      </trkpt>
      <trkpt lat="44.48676" lon="4.06093">
        <ele>631.808</ele>
        <time>2015-07-28T18:08:46Z</time>
      </trkpt>
      <trkpt lat="44.4869" lon="4.0612">
        <ele>637.442</ele>
        <time>2015-07-28T18:09:06Z</time>
      </trkpt>
      <trkpt lat="44.48682" lon="4.06148">
        <ele>644.096</ele>
        <time>2015-07-28T18:09:26Z</time>
      </trkpt>
      <trkpt lat="44.48683" lon="4.06212">
        <ele>650.573</ele>
        <time>2015-07-28T18:09:46Z</time>
      </trkpt>
      <trkpt lat="44.48698" lon="4.06262">
        <ele>652.536</ele>
        <time>2015-07-28T18:10:06Z</time>
      </trkpt>
      <trkpt lat="44.48749" lon="4.06311">
        <ele>667.837</ele>
        <time>2015-07-28T18:10:26Z</time>
      </trkpt>
      <trkpt lat="44.48756" lon="4.06339">
        <ele>668.15</ele>
        <time>2015-07-28T18:10:46Z</time>
      </trkpt>
      <trkpt lat="44.48756" lon="4.0639">
        <ele>665.136</ele>
        <time>2015-07-28T18:11:06Z</time>
      </trkpt>
      <trkpt lat="44.48771" lon="4.06461">
        <ele>675.24</ele>
        <time>2015-07-28T18:11:26Z</time>
      </trkpt>
      <trkpt lat="44.48766" lon="4.06537">
        <ele>676.023</ele>
        <time>2015-07-28T18:11:46Z</time>
      </trkpt>
      <trkpt lat="44.48774" lon="4.0658">
        <ele>684.683</ele>
        <time>2015-07-28T18:12:06Z</time>
      </trkpt>
      <trkpt lat="44.48738" lon="4.06623">
        <ele>684.811</ele>
        <time>2015-07-28T18:12:26Z</time>
      </trkpt>
      <trkpt lat="44.48715" lon="4.06613">
        <ele>678.008</ele>
        <time>2015-07-28T18:12:46Z</time>
      </trkpt>
      <trkpt lat="44.48689" lon="4.06591">
        <ele>670.368</ele>
        <time>2015-07-28T18:13:06Z</time>
      </trkpt>
      <trkpt lat="44.48682" lon="4.06644">
        <ele>679.032</ele>
        <time>2015-07-28T18:13:26Z</time>
      </trkpt>
      <trkpt lat="44.4871" lon="4.06775">
        <ele>693.119</ele>
        <time>2015-07-28T18:13:46Z</time>
      </trkpt>
      <trkpt lat="44.48729" lon="4.06839">
        <ele>692.642</ele>
        <time>2015-07-28T18:14:06Z</time>
      </trkpt>
      <trkpt lat="44.48747" lon="4.06933">
        <ele>691.053</ele>
        <time>2015-07-28T18:14:26Z</time>
      </trkpt>
      <trkpt lat="44.48738" lon="4.07027">
        <ele>693.546</ele>
        <time>2015-07-28T18:14:46Z</time>
      </trkpt>
      <trkpt lat="44.48793" lon="4.07113">
        <ele>706.162</ele>
        <time>2015-07-28T18:15:06Z</time>
      </trkpt>
      <trkpt lat="44.48798" lon="4.07138">
        <ele>705.216</ele>
        <time>2015-07-28T18:15:26Z</time>
      </trkpt>
      <trkpt lat="44.48829" lon="4.07193">
        <ele>710.717</ele>
        <time>2015-07-28T18:15:46Z</time>
      </trkpt>
      <trkpt lat="44.48858" lon="4.07212">
        <ele>715.387</ele>
        <time>2015-07-28T18:16:06Z</time>
      </trkpt>
      <trkpt lat="44.48885" lon="4.07286">
        <ele>720.615</ele>
        <time>2015-07-28T18:16:26Z</time>
      </trkpt>
      <trkpt lat="44.48912" lon="4.0732">
        <ele>726.308</ele>
        <time>2015-07-28T18:16:46Z</time>
      </trkpt>
      <trkpt lat="44.48889" lon="4.07328">
        <ele>733.937</ele>
        <time>2015-07-28T18:17:06Z</time>
      </trkpt>
      <trkpt lat="44.48791" lon="4.07291">
        <ele>740.731</ele>
        <time>2015-07-28T18:17:26Z</time>
      </trkpt>
      <trkpt lat="44.48736" lon="4.07301">
        <ele>748.268</ele>
        <time>2015-07-28T18:17:46Z</time>
      </trkpt>
      <trkpt lat="44.48715" lon="4.07314">
        <ele>749.041</ele>
        <time>2015-07-28T18:18:06Z</time>
      </trkpt>
      <trkpt lat="44.4866" lon="4.07433">
        <ele>764.412</ele>
        <time>2015-07-28T18:18:26Z</time>
      </trkpt>
      <trkpt lat="44.48597" lon="4.07371">
        <ele>762.585</ele>
        <time>2015-07-28T18:18:46Z</time>
      </trkpt>
      <trkpt lat="44.48595" lon="4.07405">
        <ele>764.961</ele>
        <time>2015-07-28T18:19:06Z</time>
      </trkpt>
      <trkpt lat="44.48493" lon="4.07427">
        <ele>770.125</ele>
        <time>2015-07-28T18:19:26Z</time>
      </trkpt>
      <trkpt lat="44.48374" lon="4.07331">
        <ele>774.318</ele>
        <time>2015-07-28T18:19:46Z</time>
      </trkpt>
      <trkpt lat="44.4829" lon="4.0733">
        <ele>781.098</ele>
        <time>2015-07-28T18:20:06Z</time>
      </trkpt>
      <trkpt lat="44.48217" lon="4.0732">
        <ele>776.017</ele>
        <time>2015-07-28T18:20:26Z</time>
      </trkpt>
      <trkpt lat="44.48183" lon="4.07324">
        <ele>773.408</ele>
        <time>2015-07-28T18:20:46Z</time>
      </trkpt>
      <trkpt lat="44.48054" lon="4.07314">
        <ele>771.027</ele>
        <time>2015-07-28T18:21:06Z</time>
      </trkpt>
      <trkpt lat="44.47953" lon="4.07288">
        <ele>769.611</ele>
        <time>2015-07-28T18:21:26Z</time>
      </trkpt>
      <trkpt lat="44.47906" lon="4.07261">
        <ele>768.938</ele>
        <time>2015-07-28T18:21:46Z</time>
      </trkpt>
      <trkpt lat="44.47875" lon="4.0726">
        <ele>768.181</ele>
        <time>2015-07-28T18:22:06Z</time>
      </trkpt>
      <trkpt lat="44.47825" lon="4.0728">
        <ele>763.222</ele>
        <time>2015-07-28T18:22:26Z</time>
      </trkpt>
      <trkpt lat="44.4778" lon="4.07314">
        <ele>759.795</ele>
        <time>2015-07-28T18:22:46Z</time>
      </trkpt>
      <trkpt lat="44.47727" lon="4.07326">
        <ele>755.351</ele>
        <time>2015-07-28T18:23:06Z</time>
      </trkpt>
      <trkpt lat="44.47728" lon="4.07306">
        <ele>754.755</ele>
        <time>2015-07-28T18:23:26Z</time>
      </trkpt>
      <trkpt lat="44.4769" lon="4.07305">
        <ele>750.524</ele>
        <time>2015-07-28T18:23:46Z</time>
      </trkpt>
      <trkpt lat="44.47641" lon="4.07333">
        <ele>746.304</ele>
        <time>2015-07-28T18:24:06Z</time>
      </trkpt>
      <trkpt lat="44.47547" lon="4.07349">
        <ele>736.114</ele>
        <time>2015-07-28T18:24:26Z</time>
      </trkpt>
      <trkpt lat="44.4737" lon="4.07395">
        <ele>711.908</ele>
        <time>2015-07-28T18:24:46Z</time>
      </trkpt>
      <trkpt lat="44.47301" lon="4.0743">
        <ele>697.448</ele>
        <time>2015-07-28T18:25:06Z</time>
      </trkpt>
      <trkpt lat="44.47231" lon="4.07454">
        <ele>686.622</ele>
        <time>2015-07-28T18:25:26Z</time>
      </trkpt>
      <trkpt lat="44.47132" lon="4.0751">
        <ele>670.229</ele>
        <time>2015-07-28T18:25:46Z</time>
      </trkpt>
      <trkpt lat="44.47093" lon="4.07508">
        <ele>668.912</ele>
        <time>2015-07-28T18:26:06Z</time>
      </trkpt>
      <trkpt lat="44.47052" lon="4.07498">
        <ele>666.473</ele>
        <time>2015-07-28T18:26:26Z</time>
      </trkpt>
      <trkpt lat="44.47005" lon="4.07493">
        <ele>662.276</ele>
        <time>2015-07-28T18:26:46Z</time>
      </trkpt>
      <trkpt lat="44.46909" lon="4.07472">
        <ele>670.222</ele>
        <time>2015-07-28T18:27:06Z</time>
      </trkpt>
      <trkpt lat="44.46742" lon="4.07313">
        <ele>668.666</ele>
        <time>2015-07-28T18:27:26Z</time>
      </trkpt>
      <trkpt lat="44.46721" lon="4.07299">
        <ele>669.788</ele>
        <time>2015-07-28T18:27:46Z</time>
      </trkpt>
      <trkpt lat="44.46707" lon="4.07273">
        <ele>670.024</ele>
        <time>2015-07-28T18:28:06Z</time>
      </trkpt>
      <trkpt lat="44.46683" lon="4.07252">
        <ele>672.226</ele>
        <time>2015-07-28T18:28:26Z</time>
      </trkpt>
      <trkpt lat="44.46626" lon="4.07138">
        <ele>680.008</ele>
        <time>2015-07-28T18:28:46Z</time>
      </trkpt>
      <trkpt lat="44.46596" lon="4.07092">
        <ele>685.114</ele>
        <time>2015-07-28T18:29:06Z</time>
      </trkpt>
      <trkpt lat="44.46528" lon="4.07056">
        <ele>683.978</ele>
        <time>2015-07-28T18:29:26Z</time>
      </trkpt>
      <trkpt lat="44.46472" lon="4.0704">
        <ele>681.175</ele>
        <time>2015-07-28T18:29:46Z</time>
      </trkpt>
      <trkpt lat="44.46448" lon="4.07057">
        <ele>678.138</ele>
        <time>2015-07-28T18:30:06Z</time>
      </trkpt>
      <trkpt lat="44.46419" lon="4.07054">
        <ele>679.999</ele>
        <time>2015-07-28T18:30:26Z</time>
      </trkpt>
      <trkpt lat="44.46338" lon="4.06958">
        <ele>670.832</ele>
        <time>2015-07-28T18:30:46Z</time>
      </trkpt>
      <trkpt lat="44.46312" lon="4.06912">
        <ele>669.218</ele>
        <time>2015-07-28T18:31:06Z</time>
      </trkpt>
      <trkpt lat="44.4617" lon="4.06797">
        <ele>673.932</ele>
        <time>2015-07-28T18:31:26Z</time>
      </trkpt>
      <trkpt lat="44.46088" lon="4.06813">
        <ele>688.742</ele>
        <time>2015-07-28T18:31:46Z</time>
      </trkpt>
      <trkpt lat="44.46048" lon="4.06849">
        <ele>686.222</ele>
        <time>2015-07-28T18:32:06Z</time>
      </trkpt>
      <trkpt lat="44.45926" lon="4.06848">
        <ele>676.714</ele>
        <time>2015-07-28T18:32:26Z</time>
      </trkpt>
      <trkpt lat="44.45867" lon="4.069">
        <ele>669.508</ele>
        <time>2015-07-28T18:32:46Z</time>
      </trkpt>
      <trkpt lat="44.45832" lon="4.06916">
        <ele>666.08</ele>
        <time>2015-07-28T18:33:06Z</time>
      </trkpt>
      <trkpt lat="44.45778" lon="4.0691">
        <ele>661.714</ele>
        <time>2015-07-28T18:33:26Z</time>
      </trkpt>
      <trkpt lat="44.45745" lon="4.06893">
        <ele>657.881</ele>
        <time>2015-07-28T18:33:46Z</time>
      </trkpt>
      <trkpt lat="44.45707" lon="4.06884">
        <ele>655.914</ele>
        <time>2015-07-28T18:34:06Z</time>
      </trkpt>
      <trkpt lat="44.45702" lon="4.06867">
        <ele>655.515</ele>
        <time>2015-07-28T18:34:26Z</time>
      </trkpt>
      <trkpt lat="44.45674" lon="4.06847">
        <ele>653.188</ele>
        <time>2015-07-28T18:34:46Z</time>
      </trkpt>
      <trkpt lat="44.45627" lon="4.06792">
        <ele>646.054</ele>
        <time>2015-07-28T18:35:06Z</time>
      </trkpt>
      <trkpt lat="44.45557" lon="4.06773">
        <ele>638.398</ele>
        <time>2015-07-28T18:35:26Z</time>
      </trkpt>
      <trkpt lat="44.45513" lon="4.0677">
        <ele>632.768</ele>
        <time>2015-07-28T18:35:46Z</time>
      </trkpt>
      <trkpt lat="44.4546" lon="4.06786">
        <ele>627.042</ele>
        <time>2015-07-28T18:36:06Z</time>
      </trkpt>
      <trkpt lat="44.45409" lon="4.06791">
        <ele>619.426</ele>
        <time>2015-07-28T18:36:26Z</time>
      </trkpt>
      <trkpt lat="44.45381" lon="4.06813">
        <ele>619.308</ele>
        <time>2015-07-28T18:36:46Z</time>
      </trkpt>
      <trkpt lat="44.45311" lon="4.06867">
        <ele>610.292</ele>
        <time>2015-07-28T18:37:06Z</time>
      </trkpt>
      <trkpt lat="44.45275" lon="4.0691">
        <ele>601.746</ele>
        <time>2015-07-28T18:37:26Z</time>
      </trkpt>
      <trkpt lat="44.45254" lon="4.06894">
        <ele>594.663</ele>
        <time>2015-07-28T18:37:46Z</time>
      </trkpt>
      <trkpt lat="44.45252" lon="4.0684">
        <ele>589.626</ele>
        <time>2015-07-28T18:38:06Z</time>
      </trkpt>
      <trkpt lat="44.45237" lon="4.06851">
        <ele>586.967</ele>
        <time>2015-07-28T18:38:26Z</time>
      </trkpt>
      <trkpt lat="44.45216" lon="4.06885">
        <ele>584.98</ele>
        <time>2015-07-28T18:38:46Z</time>
      </trkpt>
      <trkpt lat="44.4521" lon="4.06932">
        <ele>584.436</ele>
        <time>2015-07-28T18:39:06Z</time>
      </trkpt>
      <trkpt lat="44.45192" lon="4.06879">
        <ele>576.48</ele>
        <time>2015-07-28T18:39:26Z</time>
      </trkpt>
      <trkpt lat="44.45181" lon="4.06906">
        <ele>573.313</ele>
        <time>2015-07-28T18:39:46Z</time>
      </trkpt>
      <trkpt lat="44.45179" lon="4.06942">
        <ele>571.343</ele>
        <time>2015-07-28T18:40:06Z</time>
      </trkpt>
      <trkpt lat="44.45166" lon="4.06919">
        <ele>566.607</ele>
        <time>2015-07-28T18:40:26Z</time>
      </trkpt>
      <trkpt lat="44.45164" lon="4.06863">
        <ele>561.608</ele>
        <time>2015-07-28T18:40:46Z</time>
      </trkpt>
      <trkpt lat="44.45136" lon="4.06916">
        <ele>556.887</ele>
        <time>2015-07-28T18:41:06Z</time>
      </trkpt>
      <trkpt lat="44.45129" lon="4.06954">
        <ele>554.271</ele>
        <time>2015-07-28T18:41:26Z</time>
      </trkpt>
      <trkpt lat="44.45116" lon="4.06929">
        <ele>549.628</ele>
        <time>2015-07-28T18:41:46Z</time>
      </trkpt>
      <trkpt lat="44.45117" lon="4.06861">
        <ele>544.311</ele>
        <time>2015-07-28T18:42:06Z</time>
      </trkpt>
      <trkpt lat="44.45087" lon="4.06899">
        <ele>538.142</ele>
        <time>2015-07-28T18:42:26Z</time>
      </trkpt>
      <trkpt lat="44.45082" lon="4.06916">
        <ele>537.775</ele>
        <time>2015-07-28T18:42:46Z</time>
      </trkpt>
      <trkpt lat="44.45061" lon="4.06942">
        <ele>534.391</ele>
        <time>2015-07-28T18:43:06Z</time>
      </trkpt>
      <trkpt lat="44.4505" lon="4.06997">
        <ele>531.025</ele>
        <time>2015-07-28T18:43:26Z</time>
      </trkpt>
      <trkpt lat="44.45014" lon="4.07005">
        <ele>522.195</ele>
        <time>2015-07-28T18:43:46Z</time>
      </trkpt>
      <trkpt lat="44.45004" lon="4.06971">
        <ele>518.149</ele>
        <time>2015-07-28T18:44:06Z</time>
      </trkpt>
      <trkpt lat="44.45011" lon="4.06917">
        <ele>515.423</ele>
        <time>2015-07-28T18:44:26Z</time>
      </trkpt>
      <trkpt lat="44.44944" lon="4.06972">
        <ele>496.508</ele>
        <time>2015-07-28T18:44:46Z</time>
      </trkpt>
      <trkpt lat="44.44907" lon="4.07117">
        <ele>482.835</ele>
        <time>2015-07-28T18:45:06Z</time>
      </trkpt>
      <trkpt lat="44.44909" lon="4.07189">
        <ele>476.929</ele>
        <time>2015-07-28T18:45:26Z</time>
      </trkpt>
      <trkpt lat="44.44916" lon="4.07214">
        <ele>472.926</ele>
        <time>2015-07-28T18:45:46Z</time>
      </trkpt>
      <trkpt lat="44.44877" lon="4.07286">
        <ele>455.979</ele>
        <time>2015-07-28T18:46:06Z</time>
      </trkpt>
      <trkpt lat="44.4487" lon="4.07352">
        <ele>444.82</ele>
        <time>2015-07-28T18:46:26Z</time>
      </trkpt>
      <trkpt lat="44.44846" lon="4.07362">
        <ele>439.293</ele>
        <time>2015-07-28T18:46:46Z</time>
      </trkpt>
      <trkpt lat="44.44843" lon="4.07403">
        <ele>432.319</ele>
        <time>2015-07-28T18:47:06Z</time>
      </trkpt>
      <trkpt lat="44.44834" lon="4.07435">
        <ele>426.783</ele>
        <time>2015-07-28T18:47:26Z</time>
      </trkpt>
      <trkpt lat="44.44861" lon="4.07436">
        <ele>425.256</ele>
        <time>2015-07-28T18:47:46Z</time>
      </trkpt>
      <trkpt lat="44.44891" lon="4.07428">
        <ele>421.459</ele>
        <time>2015-07-28T18:48:06Z</time>
      </trkpt>
      <trkpt lat="44.44862" lon="4.07451">
        <ele>421.114</ele>
        <time>2015-07-28T18:48:26Z</time>
      </trkpt>
      <trkpt lat="44.4484" lon="4.07507">
        <ele>412.308</ele>
        <time>2015-07-28T18:48:46Z</time>
      </trkpt>
      <trkpt lat="44.44809" lon="4.07609">
        <ele>396.091</ele>
        <time>2015-07-28T18:49:06Z</time>
      </trkpt>
      <trkpt lat="44.44766" lon="4.07695">
        <ele>389.335</ele>
        <time>2015-07-28T18:49:26Z</time>
      </trkpt>
      <trkpt lat="44.44746" lon="4.0769">
        <ele>389.212</ele>
        <time>2015-07-28T18:49:46Z</time>
      </trkpt>
      <trkpt lat="44.44708" lon="4.07649">
        <ele>391.235</ele>
        <time>2015-07-28T18:50:06Z</time>
      </trkpt>
      <trkpt lat="44.44653" lon="4.07612">
        <ele>382.556</ele>
        <time>2015-07-28T18:50:26Z</time>
      </trkpt>
      <trkpt lat="44.44625" lon="4.0758">
        <ele>372.439</ele>
        <time>2015-07-28T18:50:46Z</time>
      </trkpt>
      <trkpt lat="44.44622" lon="4.07609">
        <ele>371.465</ele>
        <time>2015-07-28T18:51:06Z</time>
      </trkpt>
      <trkpt lat="44.44658" lon="4.07671">
        <ele>371.549</ele>
        <time>2015-07-28T18:51:26Z</time>
      </trkpt>
      <trkpt lat="44.44685" lon="4.07709">
        <ele>373.444</ele>
        <time>2015-07-28T18:51:46Z</time>
      </trkpt>
      <trkpt lat="44.44725" lon="4.07792">
        <ele>358.605</ele>
        <time>2015-07-28T18:52:06Z</time>
      </trkpt>
      <trkpt lat="44.44734" lon="4.07823">
        <ele>350.315</ele>
        <time>2015-07-28T18:52:26Z</time>
      </trkpt>
      <trkpt lat="44.44684" lon="4.0787">
        <ele>323.608</ele>
        <time>2015-07-28T18:52:46Z</time>
      </trkpt>
      <trkpt lat="44.44695" lon="4.07898">
        <ele>318.47</ele>
        <time>2015-07-28T18:53:06Z</time>
      </trkpt>
      <trkpt lat="44.44758" lon="4.07944">
        <ele>315.024</ele>
        <time>2015-07-28T18:53:26Z</time>
      </trkpt>
      <trkpt lat="44.44779" lon="4.07952">
        <ele>311.191</ele>
        <time>2015-07-28T18:53:46Z</time>
      </trkpt>
      <trkpt lat="44.44816" lon="4.07975">
        <ele>296.444</ele>
        <time>2015-07-28T18:54:06Z</time>
      </trkpt>
      <trkpt lat="44.44773" lon="4.07977">
        <ele>303.365</ele>
        <time>2015-07-28T18:54:26Z</time>
      </trkpt>
      <trkpt lat="44.44798" lon="4.08005">
        <ele>291.718</ele>
        <time>2015-07-28T18:54:46Z</time>
      </trkpt>
      <trkpt lat="44.44815" lon="4.08049">
        <ele>280.014</ele>
        <time>2015-07-28T18:55:06Z</time>
      </trkpt>
      <trkpt lat="44.44819" lon="4.08071">
        <ele>271.538</ele>
        <time>2015-07-28T18:55:26Z</time>
      </trkpt>
      <trkpt lat="44.44796" lon="4.0804">
        <ele>281.989</ele>
        <time>2015-07-28T18:55:46Z</time>
      </trkpt>
      <trkpt lat="44.44781" lon="4.08035">
        <ele>282.706</ele>
        <time>2015-07-28T18:56:06Z</time>
      </trkpt>
      <trkpt lat="44.44771" lon="4.08017">
        <ele>289.126</ele>
        <time>2015-07-28T18:56:26Z</time>
      </trkpt>
      <trkpt lat="44.44751" lon="4.08017">
        <ele>287.508</ele>
        <time>2015-07-28T18:56:46Z</time>
      </trkpt>
      <trkpt lat="44.44727" lon="4.08039">
        <ele>271.174</ele>
        <time>2015-07-28T18:57:06Z</time>
      </trkpt>
      <trkpt lat="44.44693" lon="4.08036">
        <ele>265.648</ele>
        <time>2015-07-28T18:57:26Z</time>
      </trkpt>
      <trkpt lat="44.44666" lon="4.08041">
        <ele>262.125</ele>
        <time>2015-07-28T18:57:46Z</time>
      </trkpt>
      <trkpt lat="44.44667" lon="4.08051">
        <ele>259.498</ele>
        <time>2015-07-28T18:58:06Z</time>
      </trkpt>
      <trkpt lat="44.44712" lon="4.08067">
        <ele>260.289</ele>
        <time>2015-07-28T18:58:26Z</time>
      </trkpt>
      <trkpt lat="44.44712" lon="4.08095">
        <ele>261.142</ele>
        <time>2015-07-28T18:58:46Z</time>
      </trkpt>
      <trkpt lat="44.4466" lon="4.0811">
        <ele>257.478</ele>
        <time>2015-07-28T18:59:06Z</time>
      </trkpt>
      <trkpt lat="44.44713" lon="4.08123">
        <ele>265.512</ele>
        <time>2015-07-28T18:59:26Z</time>
      </trkpt>
      <trkpt lat="44.44684" lon="4.08137">
        <ele>266.975</ele>
        <time>2015-07-28T18:59:46Z</time>
      </trkpt>
      <trkpt lat="44.44731" lon="4.08131">
        <ele>268.428</ele>
        <time>2015-07-28T19:00:06Z</time>
      </trkpt>
      <trkpt lat="44.44715" lon="4.08147">
        <ele>273.22</ele>
        <time>2015-07-28T19:00:26Z</time>
      </trkpt>
      <trkpt lat="44.44672" lon="4.0816">
        <ele>277.608</ele>
        <time>2015-07-28T19:00:46Z</time>
      </trkpt>
      <trkpt lat="44.44645" lon="4.08181">
        <ele>284.383</ele>
        <time>2015-07-28T19:01:06Z</time>
      </trkpt>
      <trkpt lat="44.44691" lon="4.08177">
        <ele>287.897</ele>
        <time>2015-07-28T19:01:26Z</time>
      </trkpt>
      <trkpt lat="44.44648" lon="4.08212">
        <ele>299.164</ele>
        <time>2015-07-28T19:01:46Z</time>
      </trkpt>
      <trkpt lat="44.44722" lon="4.08215">
        <ele>305.177</ele>
        <time>2015-07-28T19:02:06Z</time>
      </trkpt>
      <trkpt lat="44.44667" lon="4.08251">
        <ele>317.428</ele>
        <time>2015-07-28T19:02:26Z</time>
      </trkpt>
      <trkpt lat="44.44657" lon="4.08267">
        <ele>318.071</ele>
        <time>2015-07-28T19:02:46Z</time>
      </trkpt>
      <trkpt lat="44.44652" lon="4.0834">
        <ele>333.517</ele>
        <time>2015-07-28T19:03:06Z</time>
      </trkpt>
      <trkpt lat="44.44644" lon="4.08389">
        <ele>337.051</ele>
        <time>2015-07-28T19:03:26Z</time>
      </trkpt>
      <trkpt lat="44.44662" lon="4.08479">
        <ele>356.457</ele>
        <time>2015-07-28T19:03:46Z</time>
      </trkpt>
      <trkpt lat="44.44655" lon="4.08519">
        <ele>360.7</ele>
        <time>2015-07-28T19:04:06Z</time>
      </trkpt>
      <trkpt lat="44.44654" lon="4.08556">
        <ele>369.32</ele>
        <time>2015-07-28T19:04:26Z</time>
      </trkpt>
      <trkpt lat="44.44642" lon="4.08553">
        <ele>367.508</ele>
        <time>2015-07-28T19:04:46Z</time>
      </trkpt>
      <trkpt lat="44.44628" lon="4.0854">
        <ele>366.171</ele>
        <time>2015-07-28T19:05:06Z</time>
      </trkpt>
      <trkpt lat="44.4461" lon="4.08528">
        <ele>364.585</ele>
        <time>2015-07-28T19:05:26Z</time>
      </trkpt>
      <trkpt lat="44.44563" lon="4.08453">
        <ele>361.922</ele>
        <time>2015-07-28T19:05:46Z</time>
      </trkpt>
      <trkpt lat="44.44528" lon="4.08444">
        <ele>383.455</ele>
        <time>2015-07-28T19:06:06Z</time>
      </trkpt>
      <trkpt lat="44.44494" lon="4.08394">
        <ele>380.216</ele>
        <time>2015-07-28T19:06:26Z</time>
      </trkpt>
      <trkpt lat="44.44479" lon="4.08397">
        <ele>379.749</ele>
        <time>2015-07-28T19:06:46Z</time>
      </trkpt>
      <trkpt lat="44.44447" lon="4.08439">
        <ele>383.595</ele>
        <time>2015-07-28T19:07:06Z</time>
      </trkpt>
      <trkpt lat="44.44429" lon="4.08616">
        <ele>407.859</ele>
        <time>2015-07-28T19:07:26Z</time>
      </trkpt>
      <trkpt lat="44.44418" lon="4.08642">
        <ele>409.747</ele>
        <time>2015-07-28T19:07:46Z</time>
      </trkpt>
      <trkpt lat="44.44403" lon="4.08644">
        <ele>406.029</ele>
        <time>2015-07-28T19:08:06Z</time>
      </trkpt>
      <trkpt lat="44.44388" lon="4.08671">
        <ele>407.221</ele>
        <time>2015-07-28T19:08:26Z</time>
      </trkpt>
      <trkpt lat="44.44357" lon="4.08688">
        <ele>404.708</ele>
        <time>2015-07-28T19:08:46Z</time>
      </trkpt>
      <trkpt lat="44.4433" lon="4.08725">
        <ele>405.02</ele>
        <time>2015-07-28T19:09:06Z</time>
      </trkpt>
      <trkpt lat="44.44318" lon="4.08767">
        <ele>405.494</ele>
        <time>2015-07-28T19:09:26Z</time>
      </trkpt>
      <trkpt lat="44.4432" lon="4.08819">
        <ele>402.081</ele>
        <time>2015-07-28T19:09:46Z</time>
      </trkpt>
      <trkpt lat="44.44334" lon="4.08887">
        <ele>401.344</ele>
        <time>2015-07-28T19:10:06Z</time>
      </trkpt>
      <trkpt lat="44.44339" lon="4.08973">
        <ele>395.435</ele>
        <time>2015-07-28T19:10:26Z</time>
      </trkpt>
      <trkpt lat="44.4435" lon="4.08991">
        <ele>398.228</ele>
        <time>2015-07-28T19:10:46Z</time>
      </trkpt>
      <trkpt lat="44.44344" lon="4.09027">
        <ele>397.684</ele>
        <time>2015-07-28T19:11:06Z</time>
      </trkpt>
      <trkpt lat="44.44296" lon="4.09109">
        <ele>391.278</ele>
        <time>2015-07-28T19:11:26Z</time>
      </trkpt>
      <trkpt lat="44.44284" lon="4.09172">
        <ele>386.456</ele>
        <time>2015-07-28T19:11:46Z</time>
      </trkpt>
      <trkpt lat="44.4428" lon="4.09268">
        <ele>384.159</ele>
        <time>2015-07-28T19:12:06Z</time>
      </trkpt>
      <trkpt lat="44.44221" lon="4.09253">
        <ele>377.814</ele>
        <time>2015-07-28T19:12:26Z</time>
      </trkpt>
      <trkpt lat="44.4418" lon="4.09297">
        <ele>374.708</ele>
        <time>2015-07-28T19:12:46Z</time>
      </trkpt>
      <trkpt lat="44.44177" lon="4.0929">
        <ele>374.261</ele>
        <time>2015-07-28T19:13:06Z</time>
      </trkpt>
      <trkpt lat="44.4414" lon="4.09293">
        <ele>372.115</ele>
        <time>2015-07-28T19:13:26Z</time>
      </trkpt>
      <trkpt lat="44.44117" lon="4.09284">
        <ele>371.432</ele>
        <time>2015-07-28T19:13:46Z</time>
      </trkpt>
      <trkpt lat="44.44057" lon="4.09277">
        <ele>370.015</ele>
        <time>2015-07-28T19:14:06Z</time>
      </trkpt>
      <trkpt lat="44.43984" lon="4.09276">
        <ele>369.196</ele>
        <time>2015-07-28T19:14:26Z</time>
      </trkpt>
      <trkpt lat="44.43936" lon="4.09284">
        <ele>364.729</ele>
        <time>2015-07-28T19:14:46Z</time>
      </trkpt>
      <trkpt lat="44.43916" lon="4.09275">
        <ele>362.355</ele>
        <time>2015-07-28T19:15:06Z</time>
      </trkpt>
      <trkpt lat="44.43897" lon="4.09237">
        <ele>361.439</ele>
        <time>2015-07-28T19:15:26Z</time>
      </trkpt>
      <trkpt lat="44.43872" lon="4.09212">
        <ele>355.965</ele>
        <time>2015-07-28T19:15:46Z</time>
      </trkpt>
      <trkpt lat="44.4385" lon="4.09259">
        <ele>351.968</ele>
        <time>2015-07-28T19:16:06Z</time>
      </trkpt>
      <trkpt lat="44.43785" lon="4.09234">
        <ele>343.314</ele>
        <time>2015-07-28T19:16:26Z</time>
      </trkpt>
      <trkpt lat="44.43749" lon="4.09195">
        <ele>340.008</ele>
        <time>2015-07-28T19:16:46Z</time>
      </trkpt>
      <trkpt lat="44.43757" lon="4.09218">
        <ele>341.082</ele>
        <time>2015-07-28T19:17:06Z</time>
      </trkpt>
      <trkpt lat="44.43743" lon="4.09219">
        <ele>340.476</ele>
        <time>2015-07-28T19:17:26Z</time>
      </trkpt>
      <trkpt lat="44.43689" lon="4.09239">
        <ele>336.343</ele>
        <time>2015-07-28T19:17:46Z</time>
      </trkpt>
      <trkpt lat="44.43654" lon="4.0926">
        <ele>331.676</ele>
        <time>2015-07-28T19:18:06Z</time>
      </trkpt>
      <trkpt lat="44.43639" lon="4.09279">
        <ele>328.967</ele>
        <time>2015-07-28T19:18:26Z</time>
      </trkpt>
      <trkpt lat="44.43619" lon="4.09284">
        <ele>327.28</ele>
        <time>2015-07-28T19:18:46Z</time>
      </trkpt>
      <trkpt lat="44.43588" lon="4.09301">
        <ele>321.256</ele>
        <time>2015-07-28T19:19:06Z</time>
      </trkpt>
      <trkpt lat="44.43565" lon="4.09296">
        <ele>317.15</ele>
        <time>2015-07-28T19:19:26Z</time>
      </trkpt>
      <trkpt lat="44.43418" lon="4.09333">
        <ele>296.061</ele>
        <time>2015-07-28T19:19:46Z</time>
      </trkpt>
      <trkpt lat="44.4334" lon="4.09282">
        <ele>289.821</ele>
        <time>2015-07-28T19:20:06Z</time>
      </trkpt>
      <trkpt lat="44.4333" lon="4.09352">
        <ele>294.013</ele>
        <time>2015-07-28T19:20:26Z</time>
      </trkpt>
      <trkpt lat="44.43255" lon="4.09446">
        <ele>287.108</ele>
        <time>2015-07-28T19:20:46Z</time>
      </trkpt>
      <trkpt lat="44.43242" lon="4.09494">
        <ele>285.722</ele>
        <time>2015-07-28T19:21:06Z</time>
      </trkpt>
      <trkpt lat="44.43237" lon="4.0954">
        <ele>286.676</ele>
        <time>2015-07-28T19:21:26Z</time>
      </trkpt>
      <trkpt lat="44.43258" lon="4.09609">
        <ele>293.323</ele>
        <time>2015-07-28T19:21:46Z</time>
      </trkpt>
      <trkpt lat="44.43247" lon="4.09667">
        <ele>286.156</ele>
        <time>2015-07-28T19:22:06Z</time>
      </trkpt>
      <trkpt lat="44.43253" lon="4.09719">
        <ele>288.857</ele>
        <time>2015-07-28T19:22:26Z</time>
      </trkpt>
      <trkpt lat="44.43247" lon="4.09752">
        <ele>286.93</ele>
        <time>2015-07-28T19:22:46Z</time>
      </trkpt>
      <trkpt lat="44.43246" lon="4.09783">
        <ele>287.386</ele>
        <time>2015-07-28T19:23:06Z</time>
      </trkpt>
      <trkpt lat="44.43226" lon="4.09827">
        <ele>287.16</ele>
        <time>2015-07-28T19:23:26Z</time>
      </trkpt>
      <trkpt lat="44.43146" lon="4.09863">
        <ele>272.629</ele>
        <time>2015-07-28T19:23:46Z</time>
      </trkpt>
      <trkpt lat="44.43125" lon="4.09905">
        <ele>269.2</ele>
        <time>2015-07-28T19:24:06Z</time>
      </trkpt>
      <trkpt lat="44.43133" lon="4.0996">
        <ele>270.52</ele>
        <time>2015-07-28T19:24:26Z</time>
      </trkpt>
      <trkpt lat="44.43125" lon="4.09996">
        <ele>266.608</ele>
        <time>2015-07-28T19:24:46Z</time>
      </trkpt>
      <trkpt lat="44.43087" lon="4.10027">
        <ele>257.748</ele>
        <time>2015-07-28T19:25:06Z</time>
      </trkpt>
      <trkpt lat="44.4305" lon="4.10027">
        <ele>254.922</ele>
        <time>2015-07-28T19:25:26Z</time>
      </trkpt>
      <trkpt lat="44.43011" lon="4.09985">
        <ele>250.149</ele>
        <time>2015-07-28T19:25:46Z</time>
      </trkpt>
      <trkpt lat="44.42989" lon="4.09971">
        <ele>249.322</ele>
        <time>2015-07-28T19:26:06Z</time>
      </trkpt>
      <trkpt lat="44.42917" lon="4.09893">
        <ele>241.773</ele>
        <time>2015-07-28T19:26:26Z</time>
      </trkpt>
      <trkpt lat="44.42882" lon="4.09883">
        <ele>240.976</ele>
        <time>2015-07-28T19:26:46Z</time>
      </trkpt>
      <trkpt lat="44.42835" lon="4.09874">
        <ele>239.072</ele>
        <time>2015-07-28T19:27:06Z</time>
      </trkpt>
      <trkpt lat="44.42763" lon="4.09897">
        <ele>234.886</ele>
        <time>2015-07-28T19:27:26Z</time>
      </trkpt>
      <trkpt lat="44.42728" lon="4.09842">
        <ele>233.125</ele>
        <time>2015-07-28T19:27:46Z</time>
      </trkpt>
      <trkpt lat="44.42667" lon="4.09787">
        <ele>229.126</ele>
        <time>2015-07-28T19:28:06Z</time>
      </trkpt>
      <trkpt lat="44.42599" lon="4.0977">
        <ele>223.608</ele>
        <time>2015-07-28T19:28:26Z</time>
      </trkpt>
      <trkpt lat="44.42594" lon="4.09744">
        <ele>223.508</ele>
        <time>2015-07-28T19:28:46Z</time>
      </trkpt>
      <trkpt lat="44.42609" lon="4.09717">
        <ele>224.588</ele>
        <time>2020-11-21T06:57:05Z</time>
      </trkpt>
      <trkpt lat="44.42602" lon="4.09709">
        <ele>221.372</ele>
        <time>2020-11-21T06:57:25Z</time>
      </trkpt>
      <trkpt lat="44.42554" lon="4.09759">
        <ele>215.699</ele>
        <time>2020-11-21T06:57:45Z</time>
      </trkpt>
      <trkpt lat="44.42548" lon="4.09795">
        <ele>214.262</ele>
        <time>2020-11-21T06:58:05Z</time>
      </trkpt>
      <trkpt lat="44.42583" lon="4.09828">
        <ele>217.383</ele>
        <time>2020-11-21T06:58:25Z</time>
      </trkpt>
      <trkpt lat="44.42579" lon="4.09855">
        <ele>214.496</ele>
        <time>2020-11-21T06:58:45Z</time>
      </trkpt>
      <trkpt lat="44.42528" lon="4.09921">
        <ele>209.392</ele>
        <time>2020-11-21T06:59:05Z</time>
      </trkpt>
      <trkpt lat="44.42506" lon="4.09936">
        <ele>209.656</ele>
        <time>2020-11-21T06:59:25Z</time>
      </trkpt>
      <trkpt lat="44.42466" lon="4.09911">
        <ele>205.775</ele>
        <time>2020-11-21T06:59:45Z</time>
      </trkpt>
      <trkpt lat="44.4241" lon="4.0991">
        <ele>197.128</ele>
        <time>2020-11-21T07:00:05Z</time>
      </trkpt>
      <trkpt lat="44.42377" lon="4.09948">
        <ele>193.52</ele>
        <time>2020-11-21T07:00:25Z</time>
      </trkpt>
      <trkpt lat="44.4237" lon="4.0998">
        <ele>197.808</ele>
        <time>2020-11-21T07:00:45Z</time>
      </trkpt>
      <trkpt lat="44.42336" lon="4.09966">
        <ele>186.283</ele>
        <time>2020-11-21T07:01:05Z</time>
      </trkpt>
      <trkpt lat="44.42264" lon="4.10019">
        <ele>177.867</ele>
        <time>2020-11-21T07:01:25Z</time>
      </trkpt>
      <trkpt lat="44.42206" lon="4.10072">
        <ele>170.384</ele>
        <time>2015-07-28T19:32:26Z</time>
      </trkpt>
      <trkpt lat="44.4216" lon="4.10122">
        <ele>167.717</ele>
        <time>2015-07-28T19:32:46Z</time>
      </trkpt>
      <trkpt lat="44.42144" lon="4.10162">
        <ele>172.958</ele>
        <time>2015-07-28T19:33:06Z</time>
      </trkpt>
      <trkpt lat="44.42128" lon="4.10221">
        <ele>186.341</ele>
        <time>2015-07-28T19:33:26Z</time>
      </trkpt>
      <trkpt lat="44.42099" lon="4.10266">
        <ele>194.177</ele>
        <time>2015-07-28T19:33:46Z</time>
      </trkpt>
      <trkpt lat="44.41982" lon="4.10351">
        <ele>192.211</ele>
        <time>2015-07-28T19:34:06Z</time>
      </trkpt>
      <trkpt lat="44.41942" lon="4.10375">
        <ele>189.691</ele>
        <time>2015-07-28T19:34:26Z</time>
      </trkpt>
      <trkpt lat="44.41903" lon="4.10395">
        <ele>191.381</ele>
        <time>2015-07-28T19:34:46Z</time>
      </trkpt>
      <trkpt lat="44.41933" lon="4.10418">
        <ele>199.819</ele>
        <time>2015-07-28T19:35:06Z</time>
      </trkpt>
      <trkpt lat="44.41952" lon="4.10442">
        <ele>205.508</ele>
        <time>2015-07-28T19:35:26Z</time>
      </trkpt>
      <trkpt lat="44.41988" lon="4.10456">
        <ele>212.545</ele>
        <time>2015-07-28T19:35:46Z</time>
      </trkpt>
      <trkpt lat="44.42067" lon="4.1042">
        <ele>216.689</ele>
        <time>2015-07-28T19:36:06Z</time>
      </trkpt>
      <trkpt lat="44.42135" lon="4.10412">
        <ele>218.446</ele>
        <time>2015-07-28T19:36:26Z</time>
      </trkpt>
      <trkpt lat="44.42156" lon="4.1043">
        <ele>211.439</ele>
        <time>2015-07-28T19:36:46Z</time>
      </trkpt>
      <trkpt lat="44.4211" lon="4.10444">
        <ele>206.24</ele>
        <time>2015-07-28T19:37:06Z</time>
      </trkpt>
      <trkpt lat="44.42051" lon="4.10473">
        <ele>198.653</ele>
        <time>2015-07-28T19:37:26Z</time>
      </trkpt>
      <trkpt lat="44.41999" lon="4.10527">
        <ele>182.559</ele>
        <time>2015-07-28T19:37:46Z</time>
      </trkpt>
      <trkpt lat="44.42002" lon="4.10538">
        <ele>180.283</ele>
        <time>2015-07-28T19:38:06Z</time>
      </trkpt>
      <trkpt lat="44.42043" lon="4.10537">
        <ele>176.171</ele>
        <time>2015-07-28T19:38:26Z</time>
      </trkpt>
      <trkpt lat="44.42035" lon="4.10571">
        <ele>172.141</ele>
        <time>2015-07-28T19:38:46Z</time>
      </trkpt>
      <trkpt lat="44.42059" lon="4.10681">
        <ele>160.815</ele>
        <time>2015-07-28T19:39:06Z</time>
      </trkpt>
      <trkpt lat="44.42086" lon="4.10681">
        <ele>163.608</ele>
        <time>2015-07-28T19:39:26Z</time>
      </trkpt>
      <trkpt lat="44.4215" lon="4.10693">
        <ele>161.713</ele>
        <time>2015-07-28T19:39:46Z</time>
      </trkpt>
      <trkpt lat="44.42203" lon="4.10725">
        <ele>159.347</ele>
        <time>2015-07-28T19:40:06Z</time>
      </trkpt>
      <trkpt lat="44.42242" lon="4.10733">
        <ele>156.964</ele>
        <time>2015-07-28T19:40:26Z</time>
      </trkpt>
      <trkpt lat="44.42261" lon="4.10758">
        <ele>156.117</ele>
        <time>2015-07-28T19:40:46Z</time>
      </trkpt>
      <trkpt lat="44.42277" lon="4.10833">
        <ele>155.198</ele>
        <time>2015-07-28T19:41:06Z</time>
      </trkpt>
      <trkpt lat="44.42334" lon="4.10906">
        <ele>152.061</ele>
        <time>2015-07-28T19:41:26Z</time>
      </trkpt>
      <trkpt lat="44.42358" lon="4.10975">
        <ele>155.127</ele>
        <time>2015-07-28T19:41:46Z</time>
      </trkpt>
      <trkpt lat="44.42344" lon="4.10996">
        <ele>156.931</ele>
        <time>2015-07-28T19:42:06Z</time>
      </trkpt>
      <trkpt lat="44.42351" lon="4.11003">
        <ele>158.156</ele>
        <time>2015-07-28T19:42:26Z</time>
      </trkpt>
      <trkpt lat="44.42377" lon="4.10972">
        <ele>156.759</ele>
        <time>2015-07-28T19:42:46Z</time>
      </trkpt>
      <trkpt lat="44.42415" lon="4.10967">
        <ele>159.314</ele>
        <time>2015-07-28T19:43:06Z</time>
      </trkpt>
      <trkpt lat="44.42386" lon="4.10983">
        <ele>158.508</ele>
        <time>2015-07-28T19:43:26Z</time>
      </trkpt>
      <trkpt lat="44.4235" lon="4.11017">
        <ele>160.141</ele>
        <time>2015-07-28T19:43:46Z</time>
      </trkpt>
      <trkpt lat="44.4231" lon="4.11043">
        <ele>162.925</ele>
        <time>2015-07-28T19:44:06Z</time>
      </trkpt>
      <trkpt lat="44.42276" lon="4.11045">
        <ele>164.212</ele>
        <time>2015-07-28T19:44:26Z</time>
      </trkpt>
      <trkpt lat="44.42219" lon="4.11024">
        <ele>164.215</ele>
        <time>2015-07-28T19:44:46Z</time>
      </trkpt>
      <trkpt lat="44.42173" lon="4.11021">
        <ele>164.636</ele>
        <time>2015-07-28T19:45:06Z</time>
      </trkpt>
      <trkpt lat="44.42182" lon="4.11052">
        <ele>174.949</ele>
        <time>2015-07-28T19:45:26Z</time>
      </trkpt>
      <trkpt lat="44.42251" lon="4.11086">
        <ele>175.515</ele>
        <time>2015-07-28T19:45:46Z</time>
      </trkpt>
      <trkpt lat="44.42283" lon="4.11199">
        <ele>177.579</ele>
        <time>2015-07-28T19:46:06Z</time>
      </trkpt>
      <trkpt lat="44.42249" lon="4.11265">
        <ele>180.479</ele>
        <time>2015-07-28T19:46:26Z</time>
      </trkpt>
      <trkpt lat="44.42197" lon="4.11325">
        <ele>186.605</ele>
        <time>2015-07-28T19:46:46Z</time>
      </trkpt>
      <trkpt lat="44.42159" lon="4.11347">
        <ele>192.725</ele>
        <time>2015-07-28T19:47:06Z</time>
      </trkpt>
      <trkpt lat="44.42113" lon="4.11396">
        <ele>192.208</ele>
        <time>2020-11-21T07:16:45Z</time>
      </trkpt>
      <trkpt lat="44.42049" lon="4.11412">
        <ele>195.373</ele>
        <time>2015-07-28T19:47:46Z</time>
      </trkpt>
      <trkpt lat="44.41951" lon="4.11405">
        <ele>210.047</ele>
        <time>2015-07-28T19:48:06Z</time>
      </trkpt>
      <trkpt lat="44.41886" lon="4.11434">
        <ele>212.794</ele>
        <time>2015-07-28T19:48:26Z</time>
      </trkpt>
      <trkpt lat="44.41853" lon="4.11463">
        <ele>209.827</ele>
        <time>2020-11-21T07:18:05Z</time>
      </trkpt>
      <trkpt lat="44.41751" lon="4.11493">
        <ele>219.048</ele>
        <time>2020-11-21T07:18:25Z</time>
      </trkpt>
      <trkpt lat="44.41682" lon="4.11524">
        <ele>225.241</ele>
        <time>2020-11-21T07:18:45Z</time>
      </trkpt>
      <trkpt lat="44.41624" lon="4.11535">
        <ele>235.417</ele>
        <time>2020-11-21T07:19:05Z</time>
      </trkpt>
      <trkpt lat="44.41603" lon="4.11521">
        <ele>239.371</ele>
        <time>2015-07-28T19:52:26Z</time>
      </trkpt>
      <trkpt lat="44.41609" lon="4.11482">
        <ele>242.948</ele>
        <time>2015-07-28T19:52:46Z</time>
      </trkpt>
      <trkpt lat="44.416" lon="4.1146">
        <ele>244.061</ele>
        <time>2015-07-28T19:53:06Z</time>
      </trkpt>
      <trkpt lat="44.41567" lon="4.11448">
        <ele>245.117</ele>
        <time>2015-07-28T19:53:26Z</time>
      </trkpt>
      <trkpt lat="44.41516" lon="4.11449">
        <ele>250.508</ele>
        <time>2015-07-28T19:53:46Z</time>
      </trkpt>
      <trkpt lat="44.41514" lon="4.11484">
        <ele>249.21</ele>
        <time>2015-07-28T19:54:06Z</time>
      </trkpt>
      <trkpt lat="44.41502" lon="4.11498">
        <ele>251.624</ele>
        <time>2015-07-28T19:54:26Z</time>
      </trkpt>
      <trkpt lat="44.41507" lon="4.11535">
        <ele>251.841</ele>
        <time>2015-07-28T19:54:46Z</time>
      </trkpt>
      <trkpt lat="44.41494" lon="4.11557">
        <ele>255.154</ele>
        <time>2015-07-28T19:55:06Z</time>
      </trkpt>
      <trkpt lat="44.41487" lon="4.11588">
        <ele>257.545</ele>
        <time>2015-07-28T19:55:26Z</time>
      </trkpt>
      <trkpt lat="44.41458" lon="4.11601">
        <ele>265.158</ele>
        <time>2015-07-28T19:55:46Z</time>
      </trkpt>
      <trkpt lat="44.4144" lon="4.1162">
        <ele>272.514</ele>
        <time>2015-07-28T19:56:06Z</time>
      </trkpt>
      <trkpt lat="44.41424" lon="4.11692">
        <ele>277.938</ele>
        <time>2015-07-28T19:56:26Z</time>
      </trkpt>
      <trkpt lat="44.41401" lon="4.1176">
        <ele>273.259</ele>
        <time>2015-07-28T19:56:46Z</time>
      </trkpt>
      <trkpt lat="44.4136" lon="4.11814">
        <ele>277.503</ele>
        <time>2015-07-28T19:57:06Z</time>
      </trkpt>
      <trkpt lat="44.41336" lon="4.11865">
        <ele>276.823</ele>
        <time>2015-07-28T19:57:26Z</time>
      </trkpt>
      <trkpt lat="44.41319" lon="4.11926">
        <ele>273.508</ele>
        <time>2015-07-28T19:57:46Z</time>
      </trkpt>
      <trkpt lat="44.41307" lon="4.11946">
        <ele>275.331</ele>
        <time>2015-07-28T19:58:06Z</time>
      </trkpt>
      <trkpt lat="44.4127" lon="4.12055">
        <ele>271.235</ele>
        <time>2015-07-28T19:58:26Z</time>
      </trkpt>
      <trkpt lat="44.41251" lon="4.12134">
        <ele>268.132</ele>
        <time>2015-07-28T19:58:46Z</time>
      </trkpt>
      <trkpt lat="44.41239" lon="4.12216">
        <ele>261.835</ele>
        <time>2015-07-28T19:59:06Z</time>
      </trkpt>
      <trkpt lat="44.41239" lon="4.12234">
        <ele>260.176</ele>
        <time>2015-07-28T19:59:26Z</time>
      </trkpt>
      <trkpt lat="44.41228" lon="4.1225">
        <ele>260.969</ele>
        <time>2015-07-28T19:59:46Z</time>
      </trkpt>
      <trkpt lat="44.41229" lon="4.12276">
        <ele>259.585</ele>
        <time>2015-07-28T20:00:06Z</time>
      </trkpt>
      <trkpt lat="44.41208" lon="4.12296">
        <ele>260.949</ele>
        <time>2015-07-28T20:00:26Z</time>
      </trkpt>
      <trkpt lat="44.41133" lon="4.12503">
        <ele>251.598</ele>
        <time>2015-07-28T20:00:46Z</time>
      </trkpt>
      <trkpt lat="44.41056" lon="4.12623">
        <ele>237.815</ele>
        <time>2015-07-28T20:01:06Z</time>
      </trkpt>
      <trkpt lat="44.41021" lon="4.12646">
        <ele>232.826</ele>
        <time>2015-07-28T20:01:26Z</time>
      </trkpt>
      <trkpt lat="44.40968" lon="4.12694">
        <ele>223.208</ele>
        <time>2015-07-28T20:01:46Z</time>
      </trkpt>
      <trkpt lat="44.40941" lon="4.12707">
        <ele>218.265</ele>
        <time>2015-07-28T20:02:06Z</time>
      </trkpt>
      <trkpt lat="44.40925" lon="4.127">
        <ele>216.739</ele>
        <time>2015-07-28T20:02:26Z</time>
      </trkpt>
      <trkpt lat="44.40892" lon="4.12706">
        <ele>215.226</ele>
        <time>2015-07-28T20:02:46Z</time>
      </trkpt>
      <trkpt lat="44.40879" lon="4.12706">
        <ele>214.489</ele>
        <time>2015-07-28T20:03:06Z</time>
      </trkpt>
      <trkpt lat="44.40865" lon="4.12742">
        <ele>210.19</ele>
        <time>2015-07-28T20:03:26Z</time>
      </trkpt>
      <trkpt lat="44.40779" lon="4.12862">
        <ele>197.953</ele>
        <time>2015-07-28T20:03:46Z</time>
      </trkpt>
      <trkpt lat="44.40826" lon="4.12926">
        <ele>195.899</ele>
        <time>2015-07-28T20:04:06Z</time>
      </trkpt>
      <trkpt lat="44.40846" lon="4.1299">
        <ele>193.853</ele>
        <time>2015-07-28T20:04:26Z</time>
      </trkpt>
      <trkpt lat="44.4088" lon="4.13019">
        <ele>194.312</ele>
        <time>2015-07-28T20:04:46Z</time>
      </trkpt>
      <trkpt lat="44.40891" lon="4.13071">
        <ele>191.432</ele>
        <time>2015-07-28T20:05:06Z</time>
      </trkpt>
      <trkpt lat="44.40908" lon="4.13085">
        <ele>191.305</ele>
        <time>2015-07-28T20:05:26Z</time>
      </trkpt>
      <trkpt lat="44.40942" lon="4.13162">
        <ele>190.008</ele>
        <time>2015-07-28T20:05:46Z</time>
      </trkpt>
      <trkpt lat="44.40959" lon="4.13183">
        <ele>190.977</ele>
        <time>2015-07-28T20:06:06Z</time>
      </trkpt>
      <trkpt lat="44.40963" lon="4.13206">
        <ele>191.751</ele>
        <time>2015-07-28T20:06:26Z</time>
      </trkpt>
      <trkpt lat="44.40881" lon="4.13232">
        <ele>187.688</ele>
        <time>2015-07-28T20:06:46Z</time>
      </trkpt>
      <trkpt lat="44.40807" lon="4.13229">
        <ele>181.811</ele>
        <time>2015-07-28T20:07:06Z</time>
      </trkpt>
      <trkpt lat="44.40688" lon="4.13268">
        <ele>174.382</ele>
        <time>2015-07-28T20:07:26Z</time>
      </trkpt>
      <trkpt lat="44.40625" lon="4.13266">
        <ele>172.215</ele>
        <time>2015-07-28T20:07:46Z</time>
      </trkpt>
      <trkpt lat="44.40603" lon="4.13246">
        <ele>173.911</ele>
        <time>2015-07-28T20:08:06Z</time>
      </trkpt>
      <trkpt lat="44.40569" lon="4.13275">
        <ele>175.235</ele>
        <time>2015-07-28T20:08:26Z</time>
      </trkpt>
      <trkpt lat="44.40542" lon="4.13279">
        <ele>176.047</ele>
        <time>2015-07-28T20:08:46Z</time>
      </trkpt>
      <trkpt lat="44.40535" lon="4.13294">
        <ele>175.729</ele>
        <time>2015-07-28T20:09:06Z</time>
      </trkpt>
      <trkpt lat="44.4053" lon="4.13337">
        <ele>174.721</ele>
        <time>2015-07-28T20:09:26Z</time>
      </trkpt>
      <trkpt lat="44.40543" lon="4.1337">
        <ele>172.008</ele>
        <time>2015-07-28T20:09:46Z</time>
      </trkpt>
      <trkpt lat="44.40537" lon="4.13407">
        <ele>172.04</ele>
        <time>2015-07-28T20:10:06Z</time>
      </trkpt>
      <trkpt lat="44.40538" lon="4.13446">
        <ele>171.534</ele>
        <time>2015-07-28T20:10:26Z</time>
      </trkpt>
      <trkpt lat="44.4051" lon="4.13448">
        <ele>172.911</ele>
        <time>2015-07-28T20:10:46Z</time>
      </trkpt>
      <trkpt lat="44.40515" lon="4.13503">
        <ele>170.864</ele>
        <time>2015-07-28T20:11:06Z</time>
      </trkpt>
      <trkpt lat="44.4051" lon="4.13582">
        <ele>170.385</ele>
        <time>2015-07-28T20:11:26Z</time>
      </trkpt>
      <trkpt lat="44.40476" lon="4.13691">
        <ele>173.838</ele>
        <time>2015-07-28T20:11:46Z</time>
      </trkpt>
      <trkpt lat="44.40487" lon="4.13706">
        <ele>173.724</ele>
        <time>2015-07-28T20:12:06Z</time>
      </trkpt>
      <trkpt lat="44.40468" lon="4.1374">
        <ele>175.458</ele>
        <time>2015-07-28T20:12:26Z</time>
      </trkpt>
      <trkpt lat="44.40448" lon="4.13803">
        <ele>179.489</ele>
        <time>2015-07-28T20:12:46Z</time>
      </trkpt>
      <trkpt lat="44.40433" lon="4.13819">
        <ele>183.106</ele>
        <time>2015-07-28T20:13:06Z</time>
      </trkpt>
      <trkpt lat="44.40426" lon="4.13891">
        <ele>185.426</ele>
        <time>2015-07-28T20:13:26Z</time>
      </trkpt>
      <trkpt lat="44.40375" lon="4.14076">
        <ele>181.308</ele>
        <time>2020-11-21T07:40:45Z</time>
      </trkpt>
      <trkpt lat="44.40373" lon="4.14114">
        <ele>181.294</ele>
        <time>2020-11-21T07:41:05Z</time>
      </trkpt>
      <trkpt lat="44.40365" lon="4.14122">
        <ele>181.838</ele>
        <time>2020-11-21T07:41:25Z</time>
      </trkpt>
      <trkpt lat="44.40375" lon="4.14147">
        <ele>181.975</ele>
        <time>2020-11-21T07:41:45Z</time>
      </trkpt>
      <trkpt lat="44.40396" lon="4.14159">
        <ele>183.938</ele>
        <time>2020-11-21T07:42:05Z</time>
      </trkpt>
      <trkpt lat="44.4038" lon="4.14201">
        <ele>184.769</ele>
        <time>2020-11-21T07:42:25Z</time>
      </trkpt>
      <trkpt lat="44.40389" lon="4.14228">
        <ele>186.242</ele>
        <time>2020-11-21T07:42:45Z</time>
      </trkpt>
      <trkpt lat="44.40381" lon="4.14304">
        <ele>193.318</ele>
        <time>2020-11-21T07:43:05Z</time>
      </trkpt>
      <trkpt lat="44.40358" lon="4.14386">
        <ele>195.282</ele>
        <time>2020-11-21T07:43:25Z</time>
      </trkpt>
      <trkpt lat="44.40362" lon="4.14436">
        <ele>199.547</ele>
        <time>2020-11-21T07:43:45Z</time>
      </trkpt>
      <trkpt lat="44.40341" lon="4.1448">
        <ele>201.529</ele>
        <time>2020-11-21T07:44:05Z</time>
      </trkpt>
      <trkpt lat="44.40379" lon="4.14508">
        <ele>212.121</ele>
        <time>2020-11-21T07:44:25Z</time>
      </trkpt>
      <trkpt lat="44.40376" lon="4.14552">
        <ele>218.108</ele>
        <time>2020-11-21T07:44:45Z</time>
      </trkpt>
      <trkpt lat="44.40381" lon="4.14574">
        <ele>223.17</ele>
        <time>2020-11-21T07:45:05Z</time>
      </trkpt>
      <trkpt lat="44.4038" lon="4.14614">
        <ele>228.144</ele>
        <time>2020-11-21T07:45:25Z</time>
      </trkpt>
      <trkpt lat="44.40383" lon="4.14677">
        <ele>240.571</ele>
        <time>2020-11-21T07:45:45Z</time>
      </trkpt>
      <trkpt lat="44.40331" lon="4.14743">
        <ele>244.224</ele>
        <time>2020-11-21T07:46:05Z</time>
      </trkpt>
      <trkpt lat="44.40316" lon="4.14754">
        <ele>244.895</ele>
        <time>2020-11-21T07:46:25Z</time>
      </trkpt>
      <trkpt lat="44.40266" lon="4.14745">
        <ele>239.918</ele>
        <time>2020-11-21T07:46:45Z</time>
      </trkpt>
      <trkpt lat="44.40221" lon="4.14758">
        <ele>236.934</ele>
        <time>2020-11-21T07:47:05Z</time>
      </trkpt>
      <trkpt lat="44.40179" lon="4.14811">
        <ele>249.498</ele>
        <time>2020-11-21T07:47:25Z</time>
      </trkpt>
      <trkpt lat="44.40165" lon="4.14811">
        <ele>249.894</ele>
        <time>2020-11-21T07:47:45Z</time>
      </trkpt>
      <trkpt lat="44.40136" lon="4.14754">
        <ele>242.357</ele>
        <time>2020-11-21T07:48:05Z</time>
      </trkpt>
      <trkpt lat="44.40117" lon="4.1475">
        <ele>244.922</ele>
        <time>2020-11-21T07:48:25Z</time>
      </trkpt>
      <trkpt lat="44.40115" lon="4.14764">
        <ele>247.908</ele>
        <time>2015-07-28T20:18:26Z</time>
      </trkpt>
      <trkpt lat="44.40129" lon="4.14778">
        <ele>247.955</ele>
        <time>2015-07-28T20:18:46Z</time>
      </trkpt>
      <trkpt lat="44.40172" lon="4.14883">
        <ele>257.619</ele>
        <time>2015-07-28T20:19:06Z</time>
      </trkpt>
      <trkpt lat="44.40148" lon="4.1491">
        <ele>258.026</ele>
        <time>2015-07-28T20:19:26Z</time>
      </trkpt>
      <trkpt lat="44.40119" lon="4.15042">
        <ele>257.889</ele>
        <time>2015-07-28T20:19:46Z</time>
      </trkpt>
      <trkpt lat="44.40113" lon="4.15127">
        <ele>255.22</ele>
        <time>2015-07-28T20:20:06Z</time>
      </trkpt>
      <trkpt lat="44.40084" lon="4.15285">
        <ele>252.353</ele>
        <time>2015-07-28T20:20:26Z</time>
      </trkpt>
      <trkpt lat="44.40076" lon="4.15492">
        <ele>250.689</ele>
        <time>2015-07-28T20:20:46Z</time>
      </trkpt>
      <trkpt lat="44.40057" lon="4.156">
        <ele>249.773</ele>
        <time>2015-07-28T20:21:06Z</time>
      </trkpt>
      <trkpt lat="44.40074" lon="4.15674">
        <ele>251.761</ele>
        <time>2015-07-28T20:21:26Z</time>
      </trkpt>
      <trkpt lat="44.40092" lon="4.1579">
        <ele>251.821</ele>
        <time>2015-07-28T20:21:46Z</time>
      </trkpt>
      <trkpt lat="44.40116" lon="4.15862">
        <ele>250.713</ele>
        <time>2015-07-28T20:22:06Z</time>
      </trkpt>
      <trkpt lat="44.4017" lon="4.16071">
        <ele>250.108</ele>
        <time>2015-07-28T20:22:26Z</time>
      </trkpt>
      <trkpt lat="44.40137" lon="4.16165">
        <ele>248.082</ele>
        <time>2015-07-28T20:22:46Z</time>
      </trkpt>
      <trkpt lat="44.40114" lon="4.1628">
        <ele>245.936</ele>
        <time>2015-07-28T20:23:06Z</time>
      </trkpt>
      <trkpt lat="44.40129" lon="4.16362">
        <ele>245.023</ele>
        <time>2015-07-28T20:23:26Z</time>
      </trkpt>
      <trkpt lat="44.4012" lon="4.16531">
        <ele>244.576</ele>
        <time>2015-07-28T20:23:46Z</time>
      </trkpt>
      <trkpt lat="44.40156" lon="4.16601">
        <ele>245.077</ele>
        <time>2015-07-28T20:24:06Z</time>
      </trkpt>
      <trkpt lat="44.40174" lon="4.16656">
        <ele>244.32</ele>
        <time>2015-07-28T20:24:26Z</time>
      </trkpt>
      <trkpt lat="44.40181" lon="4.16733">
        <ele>244.516</ele>
        <time>2015-07-28T20:24:46Z</time>
      </trkpt>
      <trkpt lat="44.40188" lon="4.16759">
        <ele>244.34</ele>
        <time>2015-07-28T20:25:06Z</time>
      </trkpt>
      <trkpt lat="44.40195" lon="4.16829">
        <ele>243.826</ele>
        <time>2015-07-28T20:25:26Z</time>
      </trkpt>
      <trkpt lat="44.40202" lon="4.16865">
        <ele>243.447</ele>
        <time>2015-07-28T20:25:46Z</time>
      </trkpt>
      <trkpt lat="44.4018" lon="4.17016">
        <ele>228.911</ele>
        <time>2015-07-28T20:26:06Z</time>
      </trkpt>
      <trkpt lat="44.40169" lon="4.17056">
        <ele>227.308</ele>
        <time>2015-07-28T20:26:26Z</time>
      </trkpt>
      <trkpt lat="44.40141" lon="4.17092">
        <ele>227.278</ele>
        <time>2015-07-28T20:26:46Z</time>
      </trkpt>
      <trkpt lat="44.40131" lon="4.17109">
        <ele>224.832</ele>
        <time>2015-07-28T20:27:06Z</time>
      </trkpt>
      <trkpt lat="44.4011" lon="4.17132">
        <ele>223.869</ele>
        <time>2015-07-28T20:27:26Z</time>
      </trkpt>
      <trkpt lat="44.40109" lon="4.17143">
        <ele>222.922</ele>
        <time>2015-07-28T20:27:46Z</time>
      </trkpt>
      <trkpt lat="44.40117" lon="4.17167">
        <ele>219.583</ele>
        <time>2015-07-28T20:28:06Z</time>
      </trkpt>
      <trkpt lat="44.40141" lon="4.17307">
        <ele>225.936</ele>
        <time>2015-07-28T20:28:26Z</time>
      </trkpt>
      <trkpt lat="44.4013" lon="4.17363">
        <ele>231.262</ele>
        <time>2015-07-28T20:28:46Z</time>
      </trkpt>
      <trkpt lat="44.40124" lon="4.17428">
        <ele>234.226</ele>
        <time>2015-07-28T20:29:06Z</time>
      </trkpt>
      <trkpt lat="44.40089" lon="4.17447">
        <ele>235.078</ele>
        <time>2015-07-28T20:29:26Z</time>
      </trkpt>
      <trkpt lat="44.39986" lon="4.17472">
        <ele>233.033</ele>
        <time>2015-07-28T20:29:46Z</time>
      </trkpt>
      <trkpt lat="44.39956" lon="4.17496">
        <ele>234.526</ele>
        <time>2015-07-28T20:30:06Z</time>
      </trkpt>
      <trkpt lat="44.39879" lon="4.175">
        <ele>233.308</ele>
        <time>2015-07-28T20:30:26Z</time>
      </trkpt>
      <trkpt lat="44.39854" lon="4.17524">
        <ele>231.523</ele>
        <time>2015-07-28T20:30:46Z</time>
      </trkpt>
      <trkpt lat="44.39841" lon="4.1756">
        <ele>230.797</ele>
        <time>2015-07-28T20:31:06Z</time>
      </trkpt>
      <trkpt lat="44.39845" lon="4.1759">
        <ele>230.854</ele>
        <time>2015-07-28T20:31:26Z</time>
      </trkpt>
      <trkpt lat="44.39832" lon="4.17606">
        <ele>228.037</ele>
        <time>2015-07-28T20:31:46Z</time>
      </trkpt>
      <trkpt lat="44.39839" lon="4.17635">
        <ele>227.988</ele>
        <time>2015-07-28T20:32:06Z</time>
      </trkpt>
      <trkpt lat="44.39787" lon="4.17718">
        <ele>225.771</ele>
        <time>2015-07-28T20:32:26Z</time>
      </trkpt>
      <trkpt lat="44.39774" lon="4.17721">
        <ele>224.947</ele>
        <time>2015-07-28T20:32:46Z</time>
      </trkpt>
      <trkpt lat="44.39768" lon="4.17748">
        <ele>223.741</ele>
        <time>2015-07-28T20:33:06Z</time>
      </trkpt>
      <trkpt lat="44.3974" lon="4.1775">
        <ele>223.024</ele>
        <time>2015-07-28T20:33:26Z</time>
      </trkpt>
      <trkpt lat="44.39724" lon="4.17808">
        <ele>219.204</ele>
        <time>2015-07-28T20:33:46Z</time>
      </trkpt>
      <trkpt lat="44.39671" lon="4.17883">
        <ele>213.114</ele>
        <time>2015-07-28T20:34:06Z</time>
      </trkpt>
      <trkpt lat="44.39665" lon="4.17915">
        <ele>211.008</ele>
        <time>2015-07-28T20:34:26Z</time>
      </trkpt>
      <trkpt lat="44.39676" lon="4.1799">
        <ele>212.638</ele>
        <time>2015-07-28T20:34:46Z</time>
      </trkpt>
      <trkpt lat="44.39691" lon="4.1802">
        <ele>215.332</ele>
        <time>2015-07-28T20:35:06Z</time>
      </trkpt>
      <trkpt lat="44.39695" lon="4.18055">
        <ele>216.089</ele>
        <time>2015-07-28T20:35:26Z</time>
      </trkpt>
      <trkpt lat="44.39717" lon="4.18091">
        <ele>217.352</ele>
        <time>2015-07-28T20:35:46Z</time>
      </trkpt>
      <trkpt lat="44.39758" lon="4.18093">
        <ele>218.533</ele>
        <time>2015-07-28T20:36:06Z</time>
      </trkpt>
      <trkpt lat="44.39806" lon="4.1812">
        <ele>217.026</ele>
        <time>2015-07-28T20:36:26Z</time>
      </trkpt>
      <trkpt lat="44.39851" lon="4.18127">
        <ele>218.322</ele>
        <time>2015-07-28T20:36:46Z</time>
      </trkpt>
      <trkpt lat="44.39876" lon="4.18155">
        <ele>219.116</ele>
        <time>2015-07-28T20:37:06Z</time>
      </trkpt>
      <trkpt lat="44.39885" lon="4.18183">
        <ele>220.577</ele>
        <time>2015-07-28T20:37:26Z</time>
      </trkpt>
      <trkpt lat="44.39971" lon="4.18335">
        <ele>231.161</ele>
        <time>2015-07-28T20:37:46Z</time>
      </trkpt>
      <trkpt lat="44.39989" lon="4.18346">
        <ele>230.727</ele>
        <time>2015-07-28T20:38:06Z</time>
      </trkpt>
      <trkpt lat="44.40018" lon="4.18419">
        <ele>230.008</ele>
        <time>2015-07-28T20:38:26Z</time>
      </trkpt>
      <trkpt lat="44.39995" lon="4.18535">
        <ele>228.443</ele>
        <time>2015-07-28T20:38:46Z</time>
      </trkpt>
      <trkpt lat="44.39998" lon="4.18578">
        <ele>226.777</ele>
        <time>2015-07-28T20:39:06Z</time>
      </trkpt>
      <trkpt lat="44.4001" lon="4.18599">
        <ele>225.234</ele>
        <time>2015-07-28T20:39:26Z</time>
      </trkpt>
      <trkpt lat="44.40026" lon="4.18607">
        <ele>223.367</ele>
        <time>2015-07-28T20:39:46Z</time>
      </trkpt>
      <trkpt lat="44.40044" lon="4.18585">
        <ele>223.018</ele>
        <time>2015-07-28T20:40:06Z</time>
      </trkpt>
      <trkpt lat="44.40068" lon="4.18586">
        <ele>224.881</ele>
        <time>2015-07-28T20:40:26Z</time>
      </trkpt>
      <trkpt lat="44.40082" lon="4.18601">
        <ele>226.267</ele>
        <time>2015-07-28T20:40:46Z</time>
      </trkpt>
      <trkpt lat="44.40118" lon="4.18692">
        <ele>226.361</ele>
        <time>2015-07-28T20:41:06Z</time>
      </trkpt>
      <trkpt lat="44.40193" lon="4.18729">
        <ele>234.534</ele>
        <time>2015-07-28T20:41:26Z</time>
      </trkpt>
      <trkpt lat="44.40225" lon="4.18749">
        <ele>236.355</ele>
        <time>2015-07-28T20:41:46Z</time>
      </trkpt>
      <trkpt lat="44.40208" lon="4.18783">
        <ele>230.91</ele>
        <time>2015-07-28T20:42:06Z</time>
      </trkpt>
      <trkpt lat="44.40217" lon="4.18885">
        <ele>223.308</ele>
        <time>2015-07-28T20:42:26Z</time>
      </trkpt>
      <trkpt lat="44.40228" lon="4.18901">
        <ele>222.749</ele>
        <time>2015-07-28T20:42:46Z</time>
      </trkpt>
      <trkpt lat="44.40246" lon="4.1891">
        <ele>221.953</ele>
        <time>2015-07-28T20:43:06Z</time>
      </trkpt>
      <trkpt lat="44.40239" lon="4.18957">
        <ele>224.14</ele>
        <time>2015-07-28T20:43:26Z</time>
      </trkpt>
      <trkpt lat="44.40215" lon="4.18958">
        <ele>225.123</ele>
        <time>2015-07-28T20:43:46Z</time>
      </trkpt>
      <trkpt lat="44.40204" lon="4.1897">
        <ele>226.324</ele>
        <time>2015-07-28T20:44:06Z</time>
      </trkpt>
      <trkpt lat="44.40193" lon="4.19015">
        <ele>226.287</ele>
        <time>2015-07-28T20:44:26Z</time>
      </trkpt>
      <trkpt lat="44.40133" lon="4.19062">
        <ele>233.083</ele>
        <time>2015-07-28T20:44:46Z</time>
      </trkpt>
      <trkpt lat="44.40115" lon="4.19061">
        <ele>233.147</ele>
        <time>2015-07-28T20:45:06Z</time>
      </trkpt>
      <trkpt lat="44.40059" lon="4.19116">
        <ele>231.013</ele>
        <time>2015-07-28T20:45:26Z</time>
      </trkpt>
      <trkpt lat="44.39974" lon="4.19124">
        <ele>221.643</ele>
        <time>2015-07-28T20:45:46Z</time>
      </trkpt>
      <trkpt lat="44.39825" lon="4.19187">
        <ele>193.207</ele>
        <time>2015-07-28T20:46:06Z</time>
      </trkpt>
      <trkpt lat="44.39801" lon="4.19203">
        <ele>191.308</ele>
        <time>2015-07-28T20:46:26Z</time>
      </trkpt>
      <trkpt lat="44.39758" lon="4.19195">
        <ele>192.527</ele>
        <time>2015-07-28T20:46:46Z</time>
      </trkpt>
      <trkpt lat="44.39723" lon="4.1917">
        <ele>191.481</ele>
        <time>2015-07-28T20:47:06Z</time>
      </trkpt>
      <trkpt lat="44.39688" lon="4.19131">
        <ele>193.538</ele>
        <time>2015-07-28T20:47:26Z</time>
      </trkpt>
      <trkpt lat="44.39631" lon="4.19182">
        <ele>183.931</ele>
        <time>2015-07-28T20:47:46Z</time>
      </trkpt>
      <trkpt lat="44.39532" lon="4.1931">
        <ele>164.882</ele>
        <time>2015-07-28T20:48:06Z</time>
      </trkpt>
      <trkpt lat="44.39473" lon="4.19349">
        <ele>169.895</ele>
        <time>2015-07-28T20:48:26Z</time>
      </trkpt>
      <trkpt lat="44.39436" lon="4.19411">
        <ele>171.981</ele>
        <time>2015-07-28T20:48:46Z</time>
      </trkpt>
      <trkpt lat="44.39418" lon="4.19513">
        <ele>171.825</ele>
        <time>2015-07-28T20:49:06Z</time>
      </trkpt>
      <trkpt lat="44.39398" lon="4.19542">
        <ele>170.222</ele>
        <time>2015-07-28T20:49:26Z</time>
      </trkpt>
      <trkpt lat="44.39365" lon="4.19555">
        <ele>169.062</ele>
        <time>2015-07-28T20:49:46Z</time>
      </trkpt>
      <trkpt lat="44.39331" lon="4.1958">
        <ele>168.308</ele>
        <time>2015-07-28T20:50:06Z</time>
      </trkpt>
      <trkpt lat="44.39275" lon="4.19598">
        <ele>167.608</ele>
        <time>2015-07-28T20:50:26Z</time>
      </trkpt>
      <trkpt lat="44.39245" lon="4.19573">
        <ele>169.038</ele>
        <time>2015-07-28T20:50:46Z</time>
      </trkpt>
      <trkpt lat="44.39222" lon="4.19537">
        <ele>171.072</ele>
        <time>2015-07-28T20:51:06Z</time>
      </trkpt>
      <trkpt lat="44.39208" lon="4.19489">
        <ele>175.039</ele>
        <time>2015-07-28T20:51:26Z</time>
      </trkpt>
      <trkpt lat="44.39185" lon="4.19461">
        <ele>177.382</ele>
        <time>2015-07-28T20:51:46Z</time>
      </trkpt>
      <trkpt lat="44.39165" lon="4.19456">
        <ele>179.023</ele>
        <time>2015-07-28T20:52:06Z</time>
      </trkpt>
      <trkpt lat="44.39162" lon="4.19439">
        <ele>179.446</ele>
        <time>2015-07-28T20:52:26Z</time>
      </trkpt>
      <trkpt lat="44.3913" lon="4.19478">
        <ele>179.342</ele>
        <time>2015-07-28T20:52:46Z</time>
      </trkpt>
      <trkpt lat="44.39101" lon="4.19578">
        <ele>179.516</ele>
        <time>2015-07-28T20:53:06Z</time>
      </trkpt>
      <trkpt lat="44.39083" lon="4.1961">
        <ele>180.927</ele>
        <time>2015-07-28T20:53:26Z</time>
      </trkpt>
      <trkpt lat="44.39066" lon="4.19679">
        <ele>185.068</ele>
        <time>2015-07-28T20:53:46Z</time>
      </trkpt>
      <trkpt lat="44.39059" lon="4.19739">
        <ele>184.414</ele>
        <time>2015-07-28T20:54:06Z</time>
      </trkpt>
      <trkpt lat="44.39019" lon="4.19796">
        <ele>180.708</ele>
        <time>2015-07-28T20:54:26Z</time>
      </trkpt>
      <trkpt lat="44.38972" lon="4.19853">
        <ele>177.338</ele>
        <time>2015-07-28T20:54:46Z</time>
      </trkpt>
      <trkpt lat="44.38959" lon="4.1989">
        <ele>176.582</ele>
        <time>2015-07-28T20:55:06Z</time>
      </trkpt>
      <trkpt lat="44.38848" lon="4.20011">
        <ele>167.559</ele>
        <time>2015-07-28T20:55:26Z</time>
      </trkpt>
      <trkpt lat="44.38809" lon="4.20059">
        <ele>162.442</ele>
        <time>2015-07-28T20:55:46Z</time>
      </trkpt>
      <trkpt lat="44.38713" lon="4.20087">
        <ele>158.783</ele>
        <time>2015-07-28T20:56:06Z</time>
      </trkpt>
      <trkpt lat="44.38635" lon="4.20086">
        <ele>157.326</ele>
        <time>2015-07-28T20:56:26Z</time>
      </trkpt>
      <trkpt lat="44.38577" lon="4.20064">
        <ele>154.412</ele>
        <time>2015-07-28T20:56:46Z</time>
      </trkpt>
      <trkpt lat="44.38447" lon="4.20051">
        <ele>150.146</ele>
        <time>2015-07-28T20:57:06Z</time>
      </trkpt>
      <trkpt lat="44.38417" lon="4.20042">
        <ele>149.061</ele>
        <time>2015-07-28T20:57:26Z</time>
      </trkpt>
      <trkpt lat="44.38385" lon="4.20049">
        <ele>148.721</ele>
        <time>2015-07-28T20:57:46Z</time>
      </trkpt>
      <trkpt lat="44.38331" lon="4.20043">
        <ele>146.413</ele>
        <time>2015-07-28T20:58:06Z</time>
      </trkpt>
      <trkpt lat="44.38311" lon="4.20052">
        <ele>145.408</ele>
        <time>2015-07-28T20:58:26Z</time>
      </trkpt>
      <trkpt lat="44.38227" lon="4.20038">
        <ele>148.212</ele>
        <time>2015-07-28T20:58:46Z</time>
      </trkpt>
      <trkpt lat="44.38212" lon="4.20007">
        <ele>149.076</ele>
        <time>2015-07-28T20:59:06Z</time>
      </trkpt>
      <trkpt lat="44.38141" lon="4.19945">
        <ele>146.173</ele>
        <time>2015-07-28T20:59:26Z</time>
      </trkpt>
      <trkpt lat="44.38067" lon="4.19949">
        <ele>143.076</ele>
        <time>2015-07-28T20:59:46Z</time>
      </trkpt>
      <trkpt lat="44.38033" lon="4.19969">
        <ele>141.357</ele>
        <time>2015-07-28T21:00:06Z</time>
      </trkpt>
      <trkpt lat="44.3797" lon="4.19994">
        <ele>137.19</ele>
        <time>2015-07-28T21:00:26Z</time>
      </trkpt>
      <trkpt lat="44.37869" lon="4.20007">
        <ele>134.046</ele>
        <time>2015-07-28T21:00:46Z</time>
      </trkpt>
      <trkpt lat="44.37756" lon="4.20004">
        <ele>132.17</ele>
        <time>2015-07-28T21:01:06Z</time>
      </trkpt>
      <trkpt lat="44.37715" lon="4.20017">
        <ele>135.349</ele>
        <time>2015-07-28T21:01:26Z</time>
      </trkpt>
      <trkpt lat="44.37695" lon="4.20008">
        <ele>136.002</ele>
        <time>2015-07-28T21:01:46Z</time>
      </trkpt>
      <trkpt lat="44.37571" lon="4.20043">
        <ele>132.922</ele>
        <time>2015-07-28T21:02:06Z</time>
      </trkpt>
      <trkpt lat="44.37542" lon="4.20078">
        <ele>132.708</ele>
        <time>2015-07-28T21:02:26Z</time>
      </trkpt>
      <trkpt lat="44.37506" lon="4.20094">
        <ele>131.79</ele>
        <time>2015-07-28T21:02:46Z</time>
      </trkpt>
      <trkpt lat="44.37481" lon="4.20091">
        <ele>131.774</ele>
        <time>2015-07-28T21:03:06Z</time>
      </trkpt>
      <trkpt lat="44.37469" lon="4.20146">
        <ele>129.861</ele>
        <time>2015-07-28T21:03:26Z</time>
      </trkpt>
      <trkpt lat="44.37465" lon="4.20289">
        <ele>126.434</ele>
        <time>2015-07-28T21:03:46Z</time>
      </trkpt>
      <trkpt lat="44.37481" lon="4.20409">
        <ele>125.445</ele>
        <time>2015-07-28T21:04:06Z</time>
      </trkpt>
      <trkpt lat="44.37483" lon="4.20585">
        <ele>126.878</ele>
        <time>2015-07-28T21:04:26Z</time>
      </trkpt>
      <trkpt lat="44.37473" lon="4.20745">
        <ele>124.234</ele>
        <time>2015-07-28T21:04:46Z</time>
      </trkpt>
      <trkpt lat="44.37479" lon="4.20805">
        <ele>123.398</ele>
        <time>2015-07-28T21:05:06Z</time>
      </trkpt>
      <trkpt lat="44.37474" lon="4.20904">
        <ele>125.427</ele>
        <time>2015-07-28T21:05:26Z</time>
      </trkpt>
      <trkpt lat="44.37549" lon="4.21032">
        <ele>121.168</ele>
        <time>2015-07-28T21:05:46Z</time>
      </trkpt>
      <trkpt lat="44.37592" lon="4.21091">
        <ele>124.714</ele>
        <time>2015-07-28T21:06:06Z</time>
      </trkpt>
      <trkpt lat="44.37643" lon="4.21119">
        <ele>122.108</ele>
        <time>2015-07-28T21:06:26Z</time>
      </trkpt>
      <trkpt lat="44.37695" lon="4.21195">
        <ele>122.028</ele>
        <time>2015-07-28T21:06:46Z</time>
      </trkpt>
      <trkpt lat="44.37726" lon="4.21257">
        <ele>123.112</ele>
        <time>2015-07-28T21:07:06Z</time>
      </trkpt>
      <trkpt lat="44.37764" lon="4.21377">
        <ele>123.489</ele>
        <time>2015-07-28T21:07:26Z</time>
      </trkpt>
      <trkpt lat="44.3779" lon="4.21392">
        <ele>122.542</ele>
        <time>2015-07-28T21:07:46Z</time>
      </trkpt>
      <trkpt lat="44.37789" lon="4.21501">
        <ele>122.023</ele>
        <time>2015-07-28T21:08:06Z</time>
      </trkpt>
      <trkpt lat="44.37772" lon="4.21539">
        <ele>121.816</ele>
        <time>2015-07-28T21:08:26Z</time>
      </trkpt>
      <trkpt lat="44.37821" lon="4.21581">
        <ele>121.142</ele>
        <time>2015-07-28T21:08:46Z</time>
      </trkpt>
      <trkpt lat="44.37917" lon="4.21579">
        <ele>119.046</ele>
        <time>2015-07-28T21:09:06Z</time>
      </trkpt>
      <trkpt lat="44.37931" lon="4.21591">
        <ele>118.797</ele>
        <time>2015-07-28T21:09:26Z</time>
      </trkpt>
      <trkpt lat="44.37954" lon="4.21684">
        <ele>118.423</ele>
        <time>2015-07-28T21:09:46Z</time>
      </trkpt>
      <trkpt lat="44.38036" lon="4.21821">
        <ele>117.825</ele>
        <time>2015-07-28T21:10:06Z</time>
      </trkpt>
      <trkpt lat="44.3809" lon="4.21867">
        <ele>118.408</ele>
        <time>2015-07-28T21:10:26Z</time>
      </trkpt>
      <trkpt lat="44.38111" lon="4.21958">
        <ele>121.045</ele>
        <time>2015-07-28T21:10:46Z</time>
      </trkpt>
      <trkpt lat="44.38128" lon="4.21987">
        <ele>121.139</ele>
        <time>2015-07-28T21:11:06Z</time>
      </trkpt>
      <trkpt lat="44.38215" lon="4.22091">
        <ele>125.986</ele>
        <time>2015-07-28T21:11:26Z</time>
      </trkpt>
      <trkpt lat="44.38238" lon="4.22146">
        <ele>127.599</ele>
        <time>2015-07-28T21:11:46Z</time>
      </trkpt>
      <trkpt lat="44.38277" lon="4.2218">
        <ele>125.68</ele>
        <time>2015-07-28T21:12:06Z</time>
      </trkpt>
      <trkpt lat="44.38318" lon="4.22251">
        <ele>119.163</ele>
        <time>2015-07-28T21:12:26Z</time>
      </trkpt>
      <trkpt lat="44.38356" lon="4.22294">
        <ele>118.569</ele>
        <time>2015-07-28T21:12:46Z</time>
      </trkpt>
      <trkpt lat="44.3843" lon="4.22331">
        <ele>120.343</ele>
        <time>2015-07-28T21:13:06Z</time>
      </trkpt>
      <trkpt lat="44.38476" lon="4.2239">
        <ele>117.819</ele>
        <time>2015-07-28T21:13:26Z</time>
      </trkpt>
      <trkpt lat="44.38504" lon="4.22416">
        <ele>115.709</ele>
        <time>2015-07-28T21:13:46Z</time>
      </trkpt>
      <trkpt lat="44.38543" lon="4.22417">
        <ele>114.019</ele>
        <time>2015-07-28T21:14:06Z</time>
      </trkpt>
      <trkpt lat="44.38567" lon="4.22503">
        <ele>114.008</ele>
        <time>2015-07-28T21:14:26Z</time>
      </trkpt>
      <trkpt lat="44.38568" lon="4.22683">
        <ele>114.927</ele>
        <time>2015-07-28T21:14:46Z</time>
      </trkpt>
      <trkpt lat="44.38592" lon="4.22795">
        <ele>112.971</ele>
        <time>2015-07-28T21:15:06Z</time>
      </trkpt>
      <trkpt lat="44.38599" lon="4.22954">
        <ele>115.088</ele>
        <time>2015-07-28T21:15:26Z</time>
      </trkpt>
      <trkpt lat="44.38599" lon="4.2309">
        <ele>113.671</ele>
        <time>2015-07-28T21:15:46Z</time>
      </trkpt>
      <trkpt lat="44.38605" lon="4.23125">
        <ele>113.822</ele>
        <time>2015-07-28T21:16:06Z</time>
      </trkpt>
      <trkpt lat="44.38629" lon="4.23175">
        <ele>113.895</ele>
        <time>2015-07-28T21:16:26Z</time>
      </trkpt>
      <trkpt lat="44.38747" lon="4.23329">
        <ele>114.011</ele>
        <time>2015-07-28T21:16:46Z</time>
      </trkpt>
      <trkpt lat="44.38856" lon="4.23347">
        <ele>113.585</ele>
        <time>2015-07-28T21:17:06Z</time>
      </trkpt>
      <trkpt lat="44.38966" lon="4.23362">
        <ele>117.765</ele>
        <time>2015-07-28T21:17:26Z</time>
      </trkpt>
      <trkpt lat="44.38965" lon="4.23375">
        <ele>117.468</ele>
        <time>2015-07-28T21:17:46Z</time>
      </trkpt>
      <trkpt lat="44.39003" lon="4.23384">
        <ele>117.214</ele>
        <time>2015-07-28T21:18:06Z</time>
      </trkpt>
      <trkpt lat="44.38984" lon="4.23517">
        <ele>118.008</ele>
        <time>2015-07-28T21:18:26Z</time>
      </trkpt>
      <trkpt lat="44.39013" lon="4.23528">
        <ele>118.062</ele>
        <time>2015-07-28T21:18:46Z</time>
      </trkpt>
      <trkpt lat="44.39042" lon="4.2352">
        <ele>118.046</ele>
        <time>2015-07-28T21:19:06Z</time>
      </trkpt>
      <trkpt lat="44.39056" lon="4.23545">
        <ele>118.033</ele>
        <time>2015-07-28T21:19:26Z</time>
      </trkpt>
      <trkpt lat="44.39021" lon="4.23593">
        <ele>118.576</ele>
        <time>2015-07-28T21:19:46Z</time>
      </trkpt>
      <trkpt lat="44.38968" lon="4.23628">
        <ele>119.457</ele>
        <time>2015-07-28T21:20:06Z</time>
      </trkpt>
      <trkpt lat="44.38899" lon="4.23725">
        <ele>116.25</ele>
        <time>2015-07-28T21:20:26Z</time>
      </trkpt>
      <trkpt lat="44.38847" lon="4.23763">
        <ele>114.036</ele>
        <time>2015-07-28T21:20:46Z</time>
      </trkpt>
      <trkpt lat="44.38823" lon="4.23797">
        <ele>114.43</ele>
        <time>2015-07-28T21:21:06Z</time>
      </trkpt>
      <trkpt lat="44.388" lon="4.23846">
        <ele>114.454</ele>
        <time>2015-07-28T21:21:26Z</time>
      </trkpt>
      <trkpt lat="44.38777" lon="4.23877">
        <ele>113.456</ele>
        <time>2015-07-28T21:21:46Z</time>
      </trkpt>
      <trkpt lat="44.3876" lon="4.23942">
        <ele>113.611</ele>
        <time>2015-07-28T21:22:06Z</time>
      </trkpt>
      <trkpt lat="44.38712" lon="4.23917">
        <ele>114.408</ele>
        <time>2015-07-28T21:22:26Z</time>
      </trkpt>
      <trkpt lat="44.38609" lon="4.24048">
        <ele>113.071</ele>
        <time>2015-07-28T21:22:46Z</time>
      </trkpt>
      <trkpt lat="44.38711" lon="4.24211">
        <ele>113.695</ele>
        <time>2015-07-28T21:23:06Z</time>
      </trkpt>
      <trkpt lat="44.38781" lon="4.24314">
        <ele>111.082</ele>
        <time>2015-07-28T21:23:26Z</time>
      </trkpt>
      <trkpt lat="44.38835" lon="4.24448">
        <ele>113.045</ele>
        <time>2015-07-28T21:23:46Z</time>
      </trkpt>
      <trkpt lat="44.38864" lon="4.24583">
        <ele>111.166</ele>
        <time>2015-07-28T21:24:06Z</time>
      </trkpt>
      <trkpt lat="44.38885" lon="4.24715">
        <ele>112.139</ele>
        <time>2015-07-28T21:24:26Z</time>
      </trkpt>
      <trkpt lat="44.38886" lon="4.24779">
        <ele>111.295</ele>
        <time>2015-07-28T21:24:46Z</time>
      </trkpt>
      <trkpt lat="44.3892" lon="4.25064">
        <ele>113.599</ele>
        <time>2015-07-28T21:25:06Z</time>
      </trkpt>
      <trkpt lat="44.38955" lon="4.25274">
        <ele>111.112</ele>
        <time>2015-07-28T21:25:26Z</time>
      </trkpt>
      <trkpt lat="44.38973" lon="4.25486">
        <ele>111.032</ele>
        <time>2015-07-28T21:25:46Z</time>
      </trkpt>
      <trkpt lat="44.38962" lon="4.2556">
        <ele>113.405</ele>
        <time>2015-07-28T21:26:06Z</time>
      </trkpt>
      <trkpt lat="44.38968" lon="4.25587">
        <ele>114.308</ele>
        <time>2015-07-28T21:26:26Z</time>
      </trkpt>
      <trkpt lat="44.38941" lon="4.25605">
        <ele>117.117</ele>
        <time>2015-07-28T21:26:46Z</time>
      </trkpt>
      <trkpt lat="44.38931" lon="4.25629">
        <ele>117.321</ele>
        <time>2015-07-28T21:27:06Z</time>
      </trkpt>
      <trkpt lat="44.38961" lon="4.2569">
        <ele>114.678</ele>
        <time>2015-07-28T21:27:26Z</time>
      </trkpt>
      <trkpt lat="44.38973" lon="4.25748">
        <ele>115.041</ele>
        <time>2015-07-28T21:27:46Z</time>
      </trkpt>
      <trkpt lat="44.38977" lon="4.25853">
        <ele>115.062</ele>
        <time>2015-07-28T21:28:06Z</time>
      </trkpt>
      <trkpt lat="44.38963" lon="4.25964">
        <ele>118.225</ele>
        <time>2015-07-28T21:28:26Z</time>
      </trkpt>
      <trkpt lat="44.38965" lon="4.26094">
        <ele>125.881</ele>
        <time>2015-07-28T21:28:46Z</time>
      </trkpt>
      <trkpt lat="44.38937" lon="4.26212">
        <ele>135.075</ele>
        <time>2015-07-28T21:29:06Z</time>
      </trkpt>
      <trkpt lat="44.38965" lon="4.26207">
        <ele>138.711</ele>
        <time>2015-07-28T21:29:26Z</time>
      </trkpt>
      <trkpt lat="44.38969" lon="4.26231">
        <ele>140.821</ele>
        <time>2015-07-28T21:29:46Z</time>
      </trkpt>
      <trkpt lat="44.38981" lon="4.26245">
        <ele>142.203</ele>
        <time>2015-07-28T21:30:06Z</time>
      </trkpt>
      <trkpt lat="44.38987" lon="4.26282">
        <ele>142.508</ele>
        <time>2015-07-28T21:30:26Z</time>
      </trkpt>
      <trkpt lat="44.39005" lon="4.26287">
        <ele>142.827</ele>
        <time>2015-07-28T21:30:46Z</time>
      </trkpt>
      <trkpt lat="44.39019" lon="4.26308">
        <ele>142.331</ele>
        <time>2015-07-28T21:31:06Z</time>
      </trkpt>
      <trkpt lat="44.39021" lon="4.26388">
        <ele>142.098</ele>
        <time>2015-07-28T21:31:26Z</time>
      </trkpt>
      <trkpt lat="44.39001" lon="4.26466">
        <ele>139.011</ele>
        <time>2015-07-28T21:31:46Z</time>
      </trkpt>
      <trkpt lat="44.38927" lon="4.26695">
        <ele>138.072</ele>
        <time>2015-07-28T21:32:06Z</time>
      </trkpt>
      <trkpt lat="44.38906" lon="4.26698">
        <ele>137.685</ele>
        <time>2015-07-28T21:32:26Z</time>
      </trkpt>
      <trkpt lat="44.38889" lon="4.26737">
        <ele>136.531</ele>
        <time>2015-07-28T21:32:46Z</time>
      </trkpt>
      <trkpt lat="44.38824" lon="4.27028">
        <ele>142.085</ele>
        <time>2015-07-28T21:33:06Z</time>
      </trkpt>
      <trkpt lat="44.38749" lon="4.27093">
        <ele>145.464</ele>
        <time>2015-07-28T21:33:26Z</time>
      </trkpt>
      <trkpt lat="44.38722" lon="4.27154">
        <ele>148.506</ele>
        <time>2015-07-28T21:33:46Z</time>
      </trkpt>
      <trkpt lat="44.38704" lon="4.27274">
        <ele>149.516</ele>
        <time>2015-07-28T21:34:06Z</time>
      </trkpt>
      <trkpt lat="44.38687" lon="4.27348">
        <ele>154.508</ele>
        <time>2015-07-28T21:34:26Z</time>
      </trkpt>
      <trkpt lat="44.38638" lon="4.27416">
        <ele>153.962</ele>
        <time>2015-07-28T21:34:46Z</time>
      </trkpt>
      <trkpt lat="44.38589" lon="4.27497">
        <ele>156.146</ele>
        <time>2015-07-28T21:35:06Z</time>
      </trkpt>
      <trkpt lat="44.38594" lon="4.27535">
        <ele>158.463</ele>
        <time>2015-07-28T21:35:26Z</time>
      </trkpt>
      <trkpt lat="44.38567" lon="4.27604">
        <ele>162.096</ele>
        <time>2015-07-28T21:35:46Z</time>
      </trkpt>
      <trkpt lat="44.38516" lon="4.27672">
        <ele>162.297</ele>
        <time>2015-07-28T21:36:06Z</time>
      </trkpt>
      <trkpt lat="44.38474" lon="4.27716">
        <ele>166.69</ele>
        <time>2015-07-28T21:36:26Z</time>
      </trkpt>
      <trkpt lat="44.38439" lon="4.27773">
        <ele>169.446</ele>
        <time>2015-07-28T21:36:46Z</time>
      </trkpt>
      <trkpt lat="44.38416" lon="4.27854">
        <ele>171.07</ele>
        <time>2015-07-28T21:37:06Z</time>
      </trkpt>
      <trkpt lat="44.38391" lon="4.27901">
        <ele>175.315</ele>
        <time>2015-07-28T21:37:26Z</time>
      </trkpt>
      <trkpt lat="44.38379" lon="4.27942">
        <ele>178.565</ele>
        <time>2015-07-28T21:37:46Z</time>
      </trkpt>
      <trkpt lat="44.38434" lon="4.28009">
        <ele>175.411</ele>
        <time>2015-07-28T21:38:06Z</time>
      </trkpt>
      <trkpt lat="44.38527" lon="4.28053">
        <ele>173.408</ele>
        <time>2015-07-28T21:38:26Z</time>
      </trkpt>
      <trkpt lat="44.38573" lon="4.28091">
        <ele>165.717</ele>
        <time>2015-07-28T21:38:46Z</time>
      </trkpt>
      <trkpt lat="44.38682" lon="4.28123">
        <ele>152.331</ele>
        <time>2015-07-28T21:39:06Z</time>
      </trkpt>
      <trkpt lat="44.38709" lon="4.281">
        <ele>149.178</ele>
        <time>2015-07-28T21:39:26Z</time>
      </trkpt>
      <trkpt lat="44.38739" lon="4.28056">
        <ele>144.941</ele>
        <time>2015-07-28T21:39:46Z</time>
      </trkpt>
      <trkpt lat="44.38778" lon="4.28075">
        <ele>141.762</ele>
        <time>2015-07-28T21:40:06Z</time>
      </trkpt>
      <trkpt lat="44.38788" lon="4.28114">
        <ele>142.415</ele>
        <time>2015-07-28T21:40:26Z</time>
      </trkpt>
      <trkpt lat="44.38803" lon="4.28132">
        <ele>143.041</ele>
        <time>2015-07-28T21:40:46Z</time>
      </trkpt>
      <trkpt lat="44.38841" lon="4.28146">
        <ele>145.725</ele>
        <time>2015-07-28T21:41:06Z</time>
      </trkpt>
      <trkpt lat="44.38878" lon="4.28145">
        <ele>147.797</ele>
        <time>2015-07-28T21:41:26Z</time>
      </trkpt>
      <trkpt lat="44.38904" lon="4.28166">
        <ele>150.123</ele>
        <time>2015-07-28T21:41:46Z</time>
      </trkpt>
      <trkpt lat="44.38886" lon="4.28178">
        <ele>149.225</ele>
        <time>2015-07-28T21:42:06Z</time>
      </trkpt>
      <trkpt lat="44.38845" lon="4.28269">
        <ele>147.108</ele>
        <time>2015-07-28T21:42:26Z</time>
      </trkpt>
      <trkpt lat="44.38841" lon="4.28311">
        <ele>146.825</ele>
        <time>2015-07-28T21:42:46Z</time>
      </trkpt>
      <trkpt lat="44.3881" lon="4.28369">
        <ele>153.679</ele>
        <time>2015-07-28T21:43:06Z</time>
      </trkpt>
      <trkpt lat="44.3875" lon="4.28422">
        <ele>157.456</ele>
        <time>2015-07-28T21:43:26Z</time>
      </trkpt>
      <trkpt lat="44.38709" lon="4.28482">
        <ele>161.519</ele>
        <time>2015-07-28T21:43:46Z</time>
      </trkpt>
      <trkpt lat="44.38671" lon="4.28511">
        <ele>158.67</ele>
        <time>2015-07-28T21:44:06Z</time>
      </trkpt>
      <trkpt lat="44.38644" lon="4.2854">
        <ele>156.913</ele>
        <time>2015-07-28T21:44:26Z</time>
      </trkpt>
      <trkpt lat="44.38653" lon="4.28565">
        <ele>160.339</ele>
        <time>2015-07-28T21:44:46Z</time>
      </trkpt>
      <trkpt lat="44.3868" lon="4.28546">
        <ele>164.183</ele>
        <time>2015-07-28T21:45:06Z</time>
      </trkpt>
      <trkpt lat="44.38703" lon="4.28543">
        <ele>169.483</ele>
        <time>2015-07-28T21:45:26Z</time>
      </trkpt>
      <trkpt lat="44.38735" lon="4.28531">
        <ele>175.625</ele>
        <time>2015-07-28T21:45:46Z</time>
      </trkpt>
      <trkpt lat="44.38763" lon="4.28534">
        <ele>179.617</ele>
        <time>2015-07-28T21:46:06Z</time>
      </trkpt>
      <trkpt lat="44.38784" lon="4.28544">
        <ele>181.708</ele>
        <time>2015-07-28T21:46:26Z</time>
      </trkpt>
      <trkpt lat="44.38831" lon="4.28641">
        <ele>192.834</ele>
        <time>2015-07-28T21:46:46Z</time>
      </trkpt>
      <trkpt lat="44.38842" lon="4.28656">
        <ele>192.578</ele>
        <time>2015-07-28T21:47:06Z</time>
      </trkpt>
      <trkpt lat="44.38877" lon="4.28749">
        <ele>196.385</ele>
        <time>2015-07-28T21:47:26Z</time>
      </trkpt>
      <trkpt lat="44.38867" lon="4.28795">
        <ele>196.828</ele>
        <time>2015-07-28T21:47:46Z</time>
      </trkpt>
      <trkpt lat="44.3885" lon="4.28824">
        <ele>196.899</ele>
        <time>2015-07-28T21:48:06Z</time>
      </trkpt>
      <trkpt lat="44.38818" lon="4.28853">
        <ele>200.662</ele>
        <time>2015-07-28T21:48:26Z</time>
      </trkpt>
      <trkpt lat="44.38781" lon="4.28854">
        <ele>205.668</ele>
        <time>2015-07-28T21:48:46Z</time>
      </trkpt>
      <trkpt lat="44.38716" lon="4.28831">
        <ele>211.212</ele>
        <time>2015-07-28T21:49:06Z</time>
      </trkpt>
      <trkpt lat="44.38651" lon="4.28854">
        <ele>219.967</ele>
        <time>2015-07-28T21:49:26Z</time>
      </trkpt>
      <trkpt lat="44.38652" lon="4.28864">
        <ele>223.681</ele>
        <time>2015-07-28T21:49:46Z</time>
      </trkpt>
      <trkpt lat="44.38691" lon="4.28873">
        <ele>224.919</ele>
        <time>2015-07-28T21:50:06Z</time>
      </trkpt>
      <trkpt lat="44.38714" lon="4.28909">
        <ele>229.408</ele>
        <time>2015-07-28T21:50:26Z</time>
      </trkpt>
      <trkpt lat="44.3871" lon="4.28944">
        <ele>236.142</ele>
        <time>2015-07-28T21:50:46Z</time>
      </trkpt>
      <trkpt lat="44.38693" lon="4.28991">
        <ele>246.736</ele>
        <time>2015-07-28T21:51:06Z</time>
      </trkpt>
      <trkpt lat="44.38664" lon="4.2903">
        <ele>254.183</ele>
        <time>2015-07-28T21:51:26Z</time>
      </trkpt>
      <trkpt lat="44.386" lon="4.29085">
        <ele>263.636</ele>
        <time>2015-07-28T21:51:46Z</time>
      </trkpt>
      <trkpt lat="44.38541" lon="4.29106">
        <ele>274.867</ele>
        <time>2015-07-28T21:52:06Z</time>
      </trkpt>
      <trkpt lat="44.38523" lon="4.29136">
        <ele>280.36</ele>
        <time>2015-07-28T21:52:26Z</time>
      </trkpt>
      <trkpt lat="44.38527" lon="4.29189">
        <ele>284.946</ele>
        <time>2015-07-28T21:52:46Z</time>
      </trkpt>
      <trkpt lat="44.38514" lon="4.2926">
        <ele>288.71</ele>
        <time>2015-07-28T21:53:06Z</time>
      </trkpt>
      <trkpt lat="44.38446" lon="4.29413">
        <ele>308.676</ele>
        <time>2015-07-28T21:53:26Z</time>
      </trkpt>
      <trkpt lat="44.38348" lon="4.29508">
        <ele>311.19</ele>
        <time>2015-07-28T21:53:46Z</time>
      </trkpt>
      <trkpt lat="44.38271" lon="4.29559">
        <ele>315.719</ele>
        <time>2015-07-28T21:54:06Z</time>
      </trkpt>
      <trkpt lat="44.38234" lon="4.29675">
        <ele>317.208</ele>
        <time>2015-07-28T21:54:26Z</time>
      </trkpt>
      <trkpt lat="44.3823" lon="4.29744">
        <ele>320.013</ele>
        <time>2015-07-28T21:54:46Z</time>
      </trkpt>
      <trkpt lat="44.38258" lon="4.29797">
        <ele>323.447</ele>
        <time>2015-07-28T21:55:06Z</time>
      </trkpt>
      <trkpt lat="44.38298" lon="4.2981">
        <ele>322.724</ele>
        <time>2015-07-28T21:55:26Z</time>
      </trkpt>
      <trkpt lat="44.38365" lon="4.29922">
        <ele>325.897</ele>
        <time>2015-07-28T21:55:46Z</time>
      </trkpt>
      <trkpt lat="44.38385" lon="4.29977">
        <ele>326.158</ele>
        <time>2015-07-28T21:56:06Z</time>
      </trkpt>
      <trkpt lat="44.38442" lon="4.30101">
        <ele>329.461</ele>
        <time>2015-07-28T21:56:26Z</time>
      </trkpt>
      <trkpt lat="44.38479" lon="4.30162">
        <ele>328.677</ele>
        <time>2015-07-28T21:56:46Z</time>
      </trkpt>
      <trkpt lat="44.38539" lon="4.30321">
        <ele>334.861</ele>
        <time>2015-07-28T21:57:06Z</time>
      </trkpt>
      <trkpt lat="44.38543" lon="4.30396">
        <ele>338.052</ele>
        <time>2015-07-28T21:57:26Z</time>
      </trkpt>
      <trkpt lat="44.38538" lon="4.30444">
        <ele>337.453</ele>
        <time>2015-07-28T21:57:46Z</time>
      </trkpt>
      <trkpt lat="44.3855" lon="4.3055">
        <ele>337.908</ele>
        <time>2015-07-28T21:58:06Z</time>
      </trkpt>
      <trkpt lat="44.3856" lon="4.30591">
        <ele>341.108</ele>
        <time>2015-07-28T21:58:26Z</time>
      </trkpt>
      <trkpt lat="44.38576" lon="4.30689">
        <ele>345.231</ele>
        <time>2015-07-28T21:58:46Z</time>
      </trkpt>
      <trkpt lat="44.38568" lon="4.30725">
        <ele>348.465</ele>
        <time>2015-07-28T21:59:06Z</time>
      </trkpt>
      <trkpt lat="44.38575" lon="4.30766">
        <ele>349.892</ele>
        <time>2015-07-28T21:59:26Z</time>
      </trkpt>
      <trkpt lat="44.38606" lon="4.30868">
        <ele>353.025</ele>
        <time>2015-07-28T21:59:46Z</time>
      </trkpt>
      <trkpt lat="44.3859" lon="4.3094">
        <ele>362.386</ele>
        <time>2015-07-28T22:00:06Z</time>
      </trkpt>
      <trkpt lat="44.38642" lon="4.30954">
        <ele>360.969</ele>
        <time>2015-07-28T22:00:26Z</time>
      </trkpt>
      <trkpt lat="44.38675" lon="4.31001">
        <ele>361.955</ele>
        <time>2015-07-28T22:00:46Z</time>
      </trkpt>
      <trkpt lat="44.38665" lon="4.31049">
        <ele>364.999</ele>
        <time>2015-07-28T22:01:06Z</time>
      </trkpt>
      <trkpt lat="44.38709" lon="4.31098">
        <ele>362.351</ele>
        <time>2015-07-28T22:01:26Z</time>
      </trkpt>
      <trkpt lat="44.3874" lon="4.31163">
        <ele>364.401</ele>
        <time>2015-07-28T22:01:46Z</time>
      </trkpt>
      <trkpt lat="44.38844" lon="4.31289">
        <ele>365.411</ele>
        <time>2015-07-28T22:02:06Z</time>
      </trkpt>
      <trkpt lat="44.38849" lon="4.31238">
        <ele>359.808</ele>
        <time>2015-07-28T22:02:26Z</time>
      </trkpt>
      <trkpt lat="44.38873" lon="4.31202">
        <ele>357.671</ele>
        <time>2015-07-28T22:02:46Z</time>
      </trkpt>
      <trkpt lat="44.3894" lon="4.3122">
        <ele>359.085</ele>
        <time>2015-07-28T22:03:06Z</time>
      </trkpt>
      <trkpt lat="44.39035" lon="4.31274">
        <ele>358.112</ele>
        <time>2015-07-28T22:03:26Z</time>
      </trkpt>
      <trkpt lat="44.39075" lon="4.31278">
        <ele>357.045</ele>
        <time>2015-07-28T22:03:46Z</time>
      </trkpt>
      <trkpt lat="44.39122" lon="4.31301">
        <ele>358.696</ele>
        <time>2015-07-28T22:04:06Z</time>
      </trkpt>
      <trkpt lat="44.39185" lon="4.31295">
        <ele>358.159</ele>
        <time>2015-07-28T22:04:26Z</time>
      </trkpt>
      <trkpt lat="44.39225" lon="4.313">
        <ele>356.355</ele>
        <time>2015-07-28T22:04:46Z</time>
      </trkpt>
      <trkpt lat="44.39277" lon="4.31287">
        <ele>354.729</ele>
        <time>2015-07-28T22:05:06Z</time>
      </trkpt>
      <trkpt lat="44.39325" lon="4.31284">
        <ele>354.871</ele>
        <time>2015-07-28T22:05:26Z</time>
      </trkpt>
      <trkpt lat="44.39424" lon="4.31323">
        <ele>348.341</ele>
        <time>2015-07-28T22:05:46Z</time>
      </trkpt>
      <trkpt lat="44.39466" lon="4.31334">
        <ele>347.215</ele>
        <time>2015-07-28T22:06:06Z</time>
      </trkpt>
      <trkpt lat="44.39492" lon="4.31353">
        <ele>347.008</ele>
        <time>2015-07-28T22:06:26Z</time>
      </trkpt>
      <trkpt lat="44.3956" lon="4.31348">
        <ele>344.373</ele>
        <time>2015-07-28T22:06:46Z</time>
      </trkpt>
      <trkpt lat="44.39617" lon="4.31344">
        <ele>341.217</ele>
        <time>2015-07-28T22:07:06Z</time>
      </trkpt>
      <trkpt lat="44.39657" lon="4.31348">
        <ele>340.254</ele>
        <time>2015-07-28T22:07:26Z</time>
      </trkpt>
      <trkpt lat="44.3965" lon="4.31423">
        <ele>338.297</ele>
        <time>2015-07-28T22:07:46Z</time>
      </trkpt>
      <trkpt lat="44.39663" lon="4.31449">
        <ele>336.088</ele>
        <time>2015-07-28T22:08:06Z</time>
      </trkpt>
      <trkpt lat="44.39673" lon="4.315">
        <ele>334.021</ele>
        <time>2015-07-28T22:08:26Z</time>
      </trkpt>
      <trkpt lat="44.39685" lon="4.31529">
        <ele>334.037</ele>
        <time>2015-07-28T22:08:46Z</time>
      </trkpt>
      <trkpt lat="44.39695" lon="4.31595">
        <ele>333.571</ele>
        <time>2015-07-28T22:09:06Z</time>
      </trkpt>
      <trkpt lat="44.39709" lon="4.31618">
        <ele>332.296</ele>
        <time>2015-07-28T22:09:26Z</time>
      </trkpt>
      <trkpt lat="44.39752" lon="4.3164">
        <ele>328.931</ele>
        <time>2015-07-28T22:09:46Z</time>
      </trkpt>
      <trkpt lat="44.39769" lon="4.31656">
        <ele>327.324</ele>
        <time>2015-07-28T22:10:06Z</time>
      </trkpt>
      <trkpt lat="44.39796" lon="4.31669">
        <ele>325.308</ele>
        <time>2015-07-28T22:10:26Z</time>
      </trkpt>
      <trkpt lat="44.39824" lon="4.31673">
        <ele>325.435</ele>
        <time>2015-07-28T22:10:46Z</time>
      </trkpt>
      <trkpt lat="44.39876" lon="4.31753">
        <ele>324.989</ele>
        <time>2015-07-28T22:11:06Z</time>
      </trkpt>
      <trkpt lat="44.3989" lon="4.318">
        <ele>321.526</ele>
        <time>2015-07-28T22:11:26Z</time>
      </trkpt>
      <trkpt lat="44.39913" lon="4.31856">
        <ele>321.249</ele>
        <time>2015-07-28T22:11:46Z</time>
      </trkpt>
      <trkpt lat="44.399" lon="4.31932">
        <ele>320.91</ele>
        <time>2015-07-28T22:12:06Z</time>
      </trkpt>
      <trkpt lat="44.39946" lon="4.31993">
        <ele>318.383</ele>
        <time>2015-07-28T22:12:26Z</time>
      </trkpt>
      <trkpt lat="44.39956" lon="4.32037">
        <ele>316.949</ele>
        <time>2015-07-28T22:12:46Z</time>
      </trkpt>
      <trkpt lat="44.39936" lon="4.32119">
        <ele>314.993</ele>
        <time>2015-07-28T22:13:06Z</time>
      </trkpt>
      <trkpt lat="44.39951" lon="4.32146">
        <ele>314.077</ele>
        <time>2015-07-28T22:13:26Z</time>
      </trkpt>
      <trkpt lat="44.39992" lon="4.32158">
        <ele>314.661</ele>
        <time>2015-07-28T22:13:46Z</time>
      </trkpt>
      <trkpt lat="44.40024" lon="4.32192">
        <ele>314.227</ele>
        <time>2015-07-28T22:14:06Z</time>
      </trkpt>
      <trkpt lat="44.40039" lon="4.3225">
        <ele>311.808</ele>
        <time>2015-07-28T22:14:26Z</time>
      </trkpt>
      <trkpt lat="44.40066" lon="4.32271">
        <ele>308.983</ele>
        <time>2015-07-28T22:14:46Z</time>
      </trkpt>
      <trkpt lat="44.40127" lon="4.32275">
        <ele>306.147</ele>
        <time>2015-07-28T22:15:06Z</time>
      </trkpt>
      <trkpt lat="44.40136" lon="4.32301">
        <ele>306.884</ele>
        <time>2015-07-28T22:15:26Z</time>
      </trkpt>
      <trkpt lat="44.40164" lon="4.32335">
        <ele>310.267</ele>
        <time>2015-07-28T22:15:46Z</time>
      </trkpt>
      <trkpt lat="44.40173" lon="4.32368">
        <ele>315.788</ele>
        <time>2015-07-28T22:16:06Z</time>
      </trkpt>
      <trkpt lat="44.40158" lon="4.32432">
        <ele>321.391</ele>
        <time>2015-07-28T22:16:26Z</time>
      </trkpt>
      <trkpt lat="44.40168" lon="4.32494">
        <ele>323.827</ele>
        <time>2015-07-28T22:16:46Z</time>
      </trkpt>
      <trkpt lat="44.40204" lon="4.32625">
        <ele>327.061</ele>
        <time>2015-07-28T22:17:06Z</time>
      </trkpt>
      <trkpt lat="44.40192" lon="4.32641">
        <ele>328.015</ele>
        <time>2015-07-28T22:17:26Z</time>
      </trkpt>
      <trkpt lat="44.40175" lon="4.32713">
        <ele>330.265</ele>
        <time>2015-07-28T22:17:46Z</time>
      </trkpt>
      <trkpt lat="44.4009" lon="4.32868">
        <ele>341.111</ele>
        <time>2015-07-28T22:18:06Z</time>
      </trkpt>
      <trkpt lat="44.40051" lon="4.32953">
        <ele>346.308</ele>
        <time>2015-07-28T22:18:26Z</time>
      </trkpt>
      <trkpt lat="44.40016" lon="4.33016">
        <ele>353.127</ele>
        <time>2015-07-28T22:18:46Z</time>
      </trkpt>
      <trkpt lat="44.40015" lon="4.33051">
        <ele>349.981</ele>
        <time>2015-07-28T22:19:06Z</time>
      </trkpt>
      <trkpt lat="44.39964" lon="4.33098">
        <ele>347.888</ele>
        <time>2015-07-28T22:19:26Z</time>
      </trkpt>
      <trkpt lat="44.39923" lon="4.33111">
        <ele>347.771</ele>
        <time>2015-07-28T22:19:46Z</time>
      </trkpt>
      <trkpt lat="44.39828" lon="4.33088">
        <ele>347.962</ele>
        <time>2015-07-28T22:20:06Z</time>
      </trkpt>
      <trkpt lat="44.3974" lon="4.33087">
        <ele>353.675</ele>
        <time>2015-07-28T22:20:26Z</time>
      </trkpt>
      <trkpt lat="44.39681" lon="4.33117">
        <ele>353.251</ele>
        <time>2015-07-28T22:20:46Z</time>
      </trkpt>
      <trkpt lat="44.39638" lon="4.33154">
        <ele>347.745</ele>
        <time>2015-07-28T22:21:06Z</time>
      </trkpt>
      <trkpt lat="44.39609" lon="4.33158">
        <ele>345.774</ele>
        <time>2015-07-28T22:21:26Z</time>
      </trkpt>
      <trkpt lat="44.39582" lon="4.33149">
        <ele>348.656</ele>
        <time>2015-07-28T22:21:46Z</time>
      </trkpt>
      <trkpt lat="44.39582" lon="4.33166">
        <ele>347.421</ele>
        <time>2015-07-28T22:22:06Z</time>
      </trkpt>
      <trkpt lat="44.39648" lon="4.33206">
        <ele>347.008</ele>
        <time>2015-07-28T22:22:26Z</time>
      </trkpt>
      <trkpt lat="44.39739" lon="4.33178">
        <ele>341.323</ele>
        <time>2015-07-28T22:22:46Z</time>
      </trkpt>
      <trkpt lat="44.39776" lon="4.33197">
        <ele>338.557</ele>
        <time>2015-07-28T22:23:06Z</time>
      </trkpt>
      <trkpt lat="44.39861" lon="4.33267">
        <ele>335.074</ele>
        <time>2015-07-28T22:23:26Z</time>
      </trkpt>
      <trkpt lat="44.39909" lon="4.33288">
        <ele>329.837</ele>
        <time>2015-07-28T22:23:46Z</time>
      </trkpt>
      <trkpt lat="44.39938" lon="4.33338">
        <ele>331.848</ele>
        <time>2015-07-28T22:24:06Z</time>
      </trkpt>
      <trkpt lat="44.39936" lon="4.33377">
        <ele>337.011</ele>
        <time>2015-07-28T22:24:26Z</time>
      </trkpt>
      <trkpt lat="44.39949" lon="4.33385">
        <ele>337.117</ele>
        <time>2015-07-28T22:24:46Z</time>
      </trkpt>
      <trkpt lat="44.39982" lon="4.3335">
        <ele>334.581</ele>
        <time>2015-07-28T22:25:06Z</time>
      </trkpt>
      <trkpt lat="44.40017" lon="4.33301">
        <ele>328.393</ele>
        <time>2015-07-28T22:25:26Z</time>
      </trkpt>
      <trkpt lat="44.40044" lon="4.33297">
        <ele>328.565</ele>
        <time>2015-07-28T22:25:46Z</time>
      </trkpt>
      <trkpt lat="44.4008" lon="4.33327">
        <ele>336.021</ele>
        <time>2015-07-28T22:26:06Z</time>
      </trkpt>
      <trkpt lat="44.40092" lon="4.33275">
        <ele>329.808</ele>
        <time>2015-07-28T22:26:26Z</time>
      </trkpt>
      <trkpt lat="44.40119" lon="4.33253">
        <ele>331.675</ele>
        <time>2015-07-28T22:26:46Z</time>
      </trkpt>
      <trkpt lat="44.4017" lon="4.33238">
        <ele>335.459</ele>
        <time>2015-07-28T22:27:06Z</time>
      </trkpt>
      <trkpt lat="44.40217" lon="4.33219">
        <ele>337.016</ele>
        <time>2015-07-28T22:27:26Z</time>
      </trkpt>
      <trkpt lat="44.40236" lon="4.3323">
        <ele>337.229</ele>
        <time>2015-07-28T22:27:46Z</time>
      </trkpt>
      <trkpt lat="44.40231" lon="4.33315">
        <ele>341.74</ele>
        <time>2015-07-28T22:28:06Z</time>
      </trkpt>
      <trkpt lat="44.40255" lon="4.33375">
        <ele>332.673</ele>
        <time>2015-07-28T22:28:26Z</time>
      </trkpt>
      <trkpt lat="44.40224" lon="4.3343">
        <ele>336.359</ele>
        <time>2015-07-28T22:28:46Z</time>
      </trkpt>
      <trkpt lat="44.40215" lon="4.33485">
        <ele>335.433</ele>
        <time>2015-07-28T22:29:06Z</time>
      </trkpt>
      <trkpt lat="44.40244" lon="4.33545">
        <ele>323.328</ele>
        <time>2015-07-28T22:29:26Z</time>
      </trkpt>
      <trkpt lat="44.40228" lon="4.33604">
        <ele>331.889</ele>
        <time>2015-07-28T22:29:46Z</time>
      </trkpt>
      <trkpt lat="44.40232" lon="4.33626">
        <ele>331.617</ele>
        <time>2015-07-28T22:30:06Z</time>
      </trkpt>
      <trkpt lat="44.40291" lon="4.33656">
        <ele>316.208</ele>
        <time>2015-07-28T22:30:26Z</time>
      </trkpt>
      <trkpt lat="44.40303" lon="4.33682">
        <ele>319.268</ele>
        <time>2015-07-28T22:30:46Z</time>
      </trkpt>
      <trkpt lat="44.40306" lon="4.33716">
        <ele>324.722</ele>
        <time>2015-07-28T22:31:06Z</time>
      </trkpt>
      <trkpt lat="44.40387" lon="4.33726">
        <ele>317.559</ele>
        <time>2015-07-28T22:31:26Z</time>
      </trkpt>
      <trkpt lat="44.40404" lon="4.33812">
        <ele>323.292</ele>
        <time>2015-07-28T22:31:46Z</time>
      </trkpt>
      <trkpt lat="44.404" lon="4.33928">
        <ele>328.653</ele>
        <time>2015-07-28T22:32:06Z</time>
      </trkpt>
      <trkpt lat="44.40432" lon="4.33929">
        <ele>321.926</ele>
        <time>2015-07-28T22:32:26Z</time>
      </trkpt>
      <trkpt lat="44.40483" lon="4.33945">
        <ele>321.732</ele>
        <time>2015-07-28T22:32:46Z</time>
      </trkpt>
      <trkpt lat="44.40558" lon="4.33941">
        <ele>321.196</ele>
        <time>2015-07-28T22:33:06Z</time>
      </trkpt>
      <trkpt lat="44.40532" lon="4.34038">
        <ele>324.575</ele>
        <time>2015-07-28T22:33:26Z</time>
      </trkpt>
      <trkpt lat="44.40542" lon="4.34071">
        <ele>325.028</ele>
        <time>2015-07-28T22:33:46Z</time>
      </trkpt>
      <trkpt lat="44.40577" lon="4.34096">
        <ele>318.02</ele>
        <time>2015-07-28T22:34:06Z</time>
      </trkpt>
      <trkpt lat="44.40633" lon="4.34112">
        <ele>305.608</ele>
        <time>2015-07-28T22:34:26Z</time>
      </trkpt>
      <trkpt lat="44.40694" lon="4.34103">
        <ele>293.493</ele>
        <time>2015-07-28T22:34:46Z</time>
      </trkpt>
      <trkpt lat="44.40731" lon="4.34101">
        <ele>291.187</ele>
        <time>2015-07-28T22:35:06Z</time>
      </trkpt>
      <trkpt lat="44.40751" lon="4.34108">
        <ele>290.884</ele>
        <time>2015-07-28T22:35:26Z</time>
      </trkpt>
      <trkpt lat="44.40695" lon="4.34126">
        <ele>290.127</ele>
        <time>2015-07-28T22:35:46Z</time>
      </trkpt>
      <trkpt lat="44.40628" lon="4.34195">
        <ele>289.128</ele>
        <time>2015-07-28T22:36:06Z</time>
      </trkpt>
      <trkpt lat="44.40545" lon="4.34205">
        <ele>303.041</ele>
        <time>2015-07-28T22:36:26Z</time>
      </trkpt>
      <trkpt lat="44.40502" lon="4.34271">
        <ele>304.037</ele>
        <time>2015-07-28T22:36:46Z</time>
      </trkpt>
      <trkpt lat="44.40491" lon="4.34309">
        <ele>302.711</ele>
        <time>2015-07-28T22:37:06Z</time>
      </trkpt>
      <trkpt lat="44.40479" lon="4.34386">
        <ele>300.199</ele>
        <time>2015-07-28T22:37:26Z</time>
      </trkpt>
      <trkpt lat="44.40468" lon="4.34396">
        <ele>300.307</ele>
        <time>2015-07-28T22:37:46Z</time>
      </trkpt>
      <trkpt lat="44.40429" lon="4.3434">
        <ele>299.227</ele>
        <time>2015-07-28T22:38:06Z</time>
      </trkpt>
      <trkpt lat="44.40376" lon="4.34287">
        <ele>298.008</ele>
        <time>2015-07-28T22:38:26Z</time>
      </trkpt>
      <trkpt lat="44.4037" lon="4.34266">
        <ele>303.125</ele>
        <time>2015-07-28T22:38:46Z</time>
      </trkpt>
      <trkpt lat="44.40358" lon="4.34253">
        <ele>306.159</ele>
        <time>2015-07-28T22:39:06Z</time>
      </trkpt>
      <trkpt lat="44.40345" lon="4.34264">
        <ele>303.666</ele>
        <time>2015-07-28T22:39:26Z</time>
      </trkpt>
      <trkpt lat="44.40341" lon="4.34299">
        <ele>291.849</ele>
        <time>2015-07-28T22:39:46Z</time>
      </trkpt>
      <trkpt lat="44.40276" lon="4.34414">
        <ele>280.27</ele>
        <time>2015-07-28T22:40:06Z</time>
      </trkpt>
      <trkpt lat="44.40237" lon="4.34521">
        <ele>268.333</ele>
        <time>2015-07-28T22:40:26Z</time>
      </trkpt>
      <trkpt lat="44.40209" lon="4.3468">
        <ele>243.169</ele>
        <time>2015-07-28T22:40:46Z</time>
      </trkpt>
      <trkpt lat="44.40189" lon="4.34707">
        <ele>245.573</ele>
        <time>2015-07-28T22:41:06Z</time>
      </trkpt>
      <trkpt lat="44.4018" lon="4.34739">
        <ele>243.293</ele>
        <time>2015-07-28T22:41:26Z</time>
      </trkpt>
      <trkpt lat="44.40145" lon="4.34795">
        <ele>238.065</ele>
        <time>2015-07-28T22:41:46Z</time>
      </trkpt>
      <trkpt lat="44.40022" lon="4.34853">
        <ele>219.821</ele>
        <time>2015-07-28T22:42:06Z</time>
      </trkpt>
      <trkpt lat="44.39998" lon="4.34849">
        <ele>218.808</ele>
        <time>2015-07-28T22:42:26Z</time>
      </trkpt>
      <trkpt lat="44.39982" lon="4.34838">
        <ele>219.355</ele>
        <time>2015-07-28T22:42:46Z</time>
      </trkpt>
      <trkpt lat="44.39959" lon="4.34842">
        <ele>215.189</ele>
        <time>2015-07-28T22:43:06Z</time>
      </trkpt>
      <trkpt lat="44.39907" lon="4.34823">
        <ele>208.656</ele>
        <time>2015-07-28T22:43:26Z</time>
      </trkpt>
      <trkpt lat="44.39888" lon="4.34808">
        <ele>207.319</ele>
        <time>2015-07-28T22:43:46Z</time>
      </trkpt>
      <trkpt lat="44.39844" lon="4.34793">
        <ele>206.29</ele>
        <time>2015-07-28T22:44:06Z</time>
      </trkpt>
      <trkpt lat="44.39778" lon="4.34937">
        <ele>197.583</ele>
        <time>2015-07-28T22:44:26Z</time>
      </trkpt>
      <trkpt lat="44.39776" lon="4.34978">
        <ele>193.539</ele>
        <time>2015-07-28T22:44:46Z</time>
      </trkpt>
      <trkpt lat="44.39784" lon="4.35074">
        <ele>184.393</ele>
        <time>2015-07-28T22:45:06Z</time>
      </trkpt>
      <trkpt lat="44.39795" lon="4.35114">
        <ele>182.423</ele>
        <time>2015-07-28T22:45:26Z</time>
      </trkpt>
      <trkpt lat="44.39772" lon="4.35123">
        <ele>179.883</ele>
        <time>2015-07-28T22:45:46Z</time>
      </trkpt>
      <trkpt lat="44.39763" lon="4.35145">
        <ele>178.911</ele>
        <time>2015-07-28T22:46:06Z</time>
      </trkpt>
      <trkpt lat="44.39816" lon="4.35192">
        <ele>182.508</ele>
        <time>2015-07-28T22:46:26Z</time>
      </trkpt>
      <trkpt lat="44.39847" lon="4.35244">
        <ele>174.618</ele>
        <time>2015-07-28T22:46:46Z</time>
      </trkpt>
      <trkpt lat="44.39817" lon="4.35278">
        <ele>174.012</ele>
        <time>2015-07-28T22:47:06Z</time>
      </trkpt>
      <trkpt lat="44.39801" lon="4.35362">
        <ele>173.769</ele>
        <time>2015-07-28T22:47:26Z</time>
      </trkpt>
      <trkpt lat="44.39753" lon="4.35394">
        <ele>169.382</ele>
        <time>2015-07-28T22:47:46Z</time>
      </trkpt>
      <trkpt lat="44.39753" lon="4.35443">
        <ele>170.163</ele>
        <time>2015-07-28T22:48:06Z</time>
      </trkpt>
      <trkpt lat="44.39747" lon="4.35502">
        <ele>169.146</ele>
        <time>2015-07-28T22:48:26Z</time>
      </trkpt>
      <trkpt lat="44.39766" lon="4.35536">
        <ele>168.462</ele>
        <time>2015-07-28T22:48:46Z</time>
      </trkpt>
      <trkpt lat="44.39772" lon="4.35584">
        <ele>166.386</ele>
        <time>2015-07-28T22:49:06Z</time>
      </trkpt>
      <trkpt lat="44.39792" lon="4.35627">
        <ele>166.361</ele>
        <time>2015-07-28T22:49:26Z</time>
      </trkpt>
      <trkpt lat="44.39824" lon="4.35784">
        <ele>168.921</ele>
        <time>2015-07-28T22:49:46Z</time>
      </trkpt>
      <trkpt lat="44.39818" lon="4.35869">
        <ele>167.013</ele>
        <time>2015-07-28T22:50:06Z</time>
      </trkpt>
      <trkpt lat="44.39825" lon="4.35952">
        <ele>169.008</ele>
        <time>2015-07-28T22:50:26Z</time>
      </trkpt>
      <trkpt lat="44.3978" lon="4.36038">
        <ele>163.392</ele>
        <time>2015-07-28T22:50:46Z</time>
      </trkpt>
      <trkpt lat="44.39793" lon="4.36163">
        <ele>157.926</ele>
        <time>2015-07-28T22:51:06Z</time>
      </trkpt>
      <trkpt lat="44.3978" lon="4.36238">
        <ele>152.283</ele>
        <time>2015-07-28T22:51:26Z</time>
      </trkpt>
      <trkpt lat="44.39786" lon="4.36296">
        <ele>148.436</ele>
        <time>2015-07-28T22:51:46Z</time>
      </trkpt>
      <trkpt lat="44.39815" lon="4.36376">
        <ele>145.557</ele>
        <time>2015-07-28T22:52:06Z</time>
      </trkpt>
      <trkpt lat="44.39831" lon="4.3645">
        <ele>140.63</ele>
        <time>2015-07-28T22:52:26Z</time>
      </trkpt>
      <trkpt lat="44.39884" lon="4.36614">
        <ele>134.756</ele>
        <time>2015-07-28T22:52:46Z</time>
      </trkpt>
      <trkpt lat="44.39898" lon="4.36694">
        <ele>126.86</ele>
        <time>2015-07-28T22:53:06Z</time>
      </trkpt>
      <trkpt lat="44.39896" lon="4.36788">
        <ele>121.773</ele>
        <time>2015-07-28T22:53:26Z</time>
      </trkpt>
      <trkpt lat="44.39885" lon="4.36858">
        <ele>118.285</ele>
        <time>2015-07-28T22:53:46Z</time>
      </trkpt>
      <trkpt lat="44.39817" lon="4.36949">
        <ele>94.613</ele>
        <time>2015-07-28T22:54:06Z</time>
      </trkpt>
      <trkpt lat="44.39779" lon="4.36962">
        <ele>99.208</ele>
        <time>2015-07-28T22:54:26Z</time>
      </trkpt>
      <trkpt lat="44.39772" lon="4.36995">
        <ele>106.283</ele>
        <time>2015-07-28T22:54:46Z</time>
      </trkpt>
      <trkpt lat="44.39828" lon="4.37068">
        <ele>103.077</ele>
        <time>2015-07-28T22:55:06Z</time>
      </trkpt>
      <trkpt lat="44.39836" lon="4.37308">
        <ele>116.244</ele>
        <time>2015-07-28T22:55:26Z</time>
      </trkpt>
      <trkpt lat="44.3982" lon="4.37423">
        <ele>112.477</ele>
        <time>2015-07-28T22:55:46Z</time>
      </trkpt>
      <trkpt lat="44.39801" lon="4.37501">
        <ele>109.118</ele>
        <time>2015-07-28T22:56:06Z</time>
      </trkpt>
      <trkpt lat="44.39823" lon="4.37568">
        <ele>98.691</ele>
        <time>2015-07-28T22:56:26Z</time>
      </trkpt>
      <trkpt lat="44.39819" lon="4.37738">
        <ele>91.577</ele>
        <time>2015-07-28T22:56:46Z</time>
      </trkpt>
      <trkpt lat="44.39807" lon="4.37785">
        <ele>90.791</ele>
        <time>2015-07-28T22:57:06Z</time>
      </trkpt>
      <trkpt lat="44.39518" lon="4.37885">
        <ele>100.063</ele>
        <time>2015-07-28T22:57:26Z</time>
      </trkpt>
      <trkpt lat="44.39482" lon="4.37862">
        <ele>99.444</ele>
        <time>2015-07-28T22:57:46Z</time>
      </trkpt>
      <trkpt lat="44.3936" lon="4.37892">
        <ele>99.218</ele>
        <time>2015-07-28T22:58:06Z</time>
      </trkpt>
      <trkpt lat="44.39369" lon="4.37912">
        <ele>100.108</ele>
        <time>2015-07-28T22:58:26Z</time>
      </trkpt>
      <trkpt lat="44.39383" lon="4.37925">
        <ele>100.132</ele>
        <time>2015-07-28T22:58:46Z</time>
      </trkpt>
      <trkpt lat="44.39324" lon="4.38068">
        <ele>106.846</ele>
        <time>2015-07-28T22:59:06Z</time>
      </trkpt>
      <trkpt lat="44.39289" lon="4.38057">
        <ele>110.363</ele>
        <time>2015-07-28T22:59:26Z</time>
      </trkpt>
      <trkpt lat="44.3928" lon="4.38019">
        <ele>109.726</ele>
        <time>2015-07-28T22:59:46Z</time>
      </trkpt>
      <trkpt lat="44.39239" lon="4.38008">
        <ele>116.827</ele>
        <time>2015-07-28T23:00:06Z</time>
      </trkpt>
      <trkpt lat="44.39219" lon="4.3798">
        <ele>120.62</ele>
        <time>2015-07-28T23:00:26Z</time>
      </trkpt>
      <trkpt lat="44.39189" lon="4.37965">
        <ele>126.146</ele>
        <time>2015-07-28T23:00:46Z</time>
      </trkpt>
      <trkpt lat="44.39186" lon="4.37949">
        <ele>127.32</ele>
        <time>2015-07-28T23:01:06Z</time>
      </trkpt>
      <trkpt lat="44.39113" lon="4.37911">
        <ele>134.387</ele>
        <time>2015-07-28T23:01:26Z</time>
      </trkpt>
      <trkpt lat="44.39116" lon="4.37984">
        <ele>139.442</ele>
        <time>2015-07-28T23:01:46Z</time>
      </trkpt>
      <trkpt lat="44.39137" lon="4.38029">
        <ele>135.526</ele>
        <time>2015-07-28T23:02:06Z</time>
      </trkpt>
      <trkpt lat="44.39128" lon="4.38051">
        <ele>138.508</ele>
        <time>2015-07-28T23:02:26Z</time>
      </trkpt>
      <trkpt lat="44.39139" lon="4.3814">
        <ele>143.064</ele>
        <time>2015-07-28T23:02:46Z</time>
      </trkpt>
      <trkpt lat="44.39064" lon="4.38169">
        <ele>158.888</ele>
        <time>2015-07-28T23:03:06Z</time>
      </trkpt>
      <trkpt lat="44.38999" lon="4.38127">
        <ele>164.175</ele>
        <time>2015-07-28T23:03:26Z</time>
      </trkpt>
      <trkpt lat="44.38947" lon="4.38102">
        <ele>168.738</ele>
        <time>2015-07-28T23:03:46Z</time>
      </trkpt>
      <trkpt lat="44.38891" lon="4.38114">
        <ele>168.099</ele>
        <time>2015-07-28T23:04:06Z</time>
      </trkpt>
      <trkpt lat="44.38866" lon="4.38097">
        <ele>166.892</ele>
        <time>2015-07-28T23:04:26Z</time>
      </trkpt>
      <trkpt lat="44.38762" lon="4.38071">
        <ele>163.538</ele>
        <time>2015-07-28T23:04:46Z</time>
      </trkpt>
      <trkpt lat="44.38668" lon="4.38019">
        <ele>164.772</ele>
        <time>2015-07-28T23:05:06Z</time>
      </trkpt>
      <trkpt lat="44.38587" lon="4.37937">
        <ele>168.618</ele>
        <time>2015-07-28T23:05:26Z</time>
      </trkpt>
      <trkpt lat="44.38531" lon="4.37845">
        <ele>167.698</ele>
        <time>2015-07-28T23:05:46Z</time>
      </trkpt>
      <trkpt lat="44.3851" lon="4.37797">
        <ele>167.617</ele>
        <time>2015-07-28T23:06:06Z</time>
      </trkpt>
      <trkpt lat="44.38326" lon="4.3765">
        <ele>158.208</ele>
        <time>2015-07-28T23:06:26Z</time>
      </trkpt>
      <trkpt lat="44.38316" lon="4.37613">
        <ele>155.787</ele>
        <time>2015-07-28T23:06:46Z</time>
      </trkpt>
      <trkpt lat="44.38277" lon="4.37529">
        <ele>159.051</ele>
        <time>2015-07-28T23:07:06Z</time>
      </trkpt>
      <trkpt lat="44.38253" lon="4.37528">
        <ele>159.948</ele>
        <time>2015-07-28T23:07:26Z</time>
      </trkpt>
      <trkpt lat="44.38172" lon="4.37459">
        <ele>163.671</ele>
        <time>2015-07-28T23:07:46Z</time>
      </trkpt>
      <trkpt lat="44.38136" lon="4.37513">
        <ele>162.362</ele>
        <time>2015-07-28T23:08:06Z</time>
      </trkpt>
      <trkpt lat="44.38072" lon="4.37482">
        <ele>159.575</ele>
        <time>2015-07-28T23:08:26Z</time>
      </trkpt>
      <trkpt lat="44.38032" lon="4.37437">
        <ele>162.281</ele>
        <time>2015-07-28T23:08:46Z</time>
      </trkpt>
      <trkpt lat="44.3801" lon="4.37428">
        <ele>161.175</ele>
        <time>2015-07-28T23:09:06Z</time>
      </trkpt>
      <trkpt lat="44.37977" lon="4.37488">
        <ele>156.223</ele>
        <time>2015-07-28T23:09:26Z</time>
      </trkpt>
      <trkpt lat="44.37978" lon="4.37526">
        <ele>156.283</ele>
        <time>2015-07-28T23:09:46Z</time>
      </trkpt>
      <trkpt lat="44.37921" lon="4.37564">
        <ele>163.811</ele>
        <time>2015-07-28T23:10:06Z</time>
      </trkpt>
      <trkpt lat="44.37903" lon="4.37616">
        <ele>164.908</ele>
        <time>2015-07-28T23:10:26Z</time>
      </trkpt>
      <trkpt lat="44.37877" lon="4.3761">
        <ele>165.618</ele>
        <time>2015-07-28T23:10:46Z</time>
      </trkpt>
      <trkpt lat="44.37841" lon="4.37587">
        <ele>165.082</ele>
        <time>2015-07-28T23:11:06Z</time>
      </trkpt>
      <trkpt lat="44.37819" lon="4.37565">
        <ele>166.639</ele>
        <time>2015-07-28T23:11:26Z</time>
      </trkpt>
      <trkpt lat="44.37806" lon="4.37535">
        <ele>168.082</ele>
        <time>2015-07-28T23:11:46Z</time>
      </trkpt>
      <trkpt lat="44.37669" lon="4.37477">
        <ele>171.033</ele>
        <time>2015-07-28T23:12:06Z</time>
      </trkpt>
      <trkpt lat="44.37657" lon="4.37486">
        <ele>172.186</ele>
        <time>2015-07-28T23:12:26Z</time>
      </trkpt>
      <trkpt lat="44.37618" lon="4.37489">
        <ele>176.532</ele>
        <time>2015-07-28T23:12:46Z</time>
      </trkpt>
      <trkpt lat="44.37566" lon="4.37476">
        <ele>181.276</ele>
        <time>2015-07-28T23:13:06Z</time>
      </trkpt>
      <trkpt lat="44.37487" lon="4.3745">
        <ele>188.021</ele>
        <time>2015-07-28T23:13:26Z</time>
      </trkpt>
      <trkpt lat="44.37425" lon="4.37558">
        <ele>200.741</ele>
        <time>2015-07-28T23:13:46Z</time>
      </trkpt>
      <trkpt lat="44.37368" lon="4.37606">
        <ele>203.205</ele>
        <time>2015-07-28T23:14:06Z</time>
      </trkpt>
      <trkpt lat="44.37362" lon="4.37623">
        <ele>203.908</ele>
        <time>2015-07-28T23:14:26Z</time>
      </trkpt>
      <trkpt lat="44.37342" lon="4.37658">
        <ele>203.418</ele>
        <time>2015-07-28T23:14:46Z</time>
      </trkpt>
      <trkpt lat="44.37306" lon="4.37702">
        <ele>200.052</ele>
        <time>2015-07-28T23:15:06Z</time>
      </trkpt>
      <trkpt lat="44.37266" lon="4.37766">
        <ele>198.139</ele>
        <time>2015-07-28T23:15:26Z</time>
      </trkpt>
      <trkpt lat="44.37235" lon="4.3785">
        <ele>204.542</ele>
        <time>2015-07-28T23:15:46Z</time>
      </trkpt>
      <trkpt lat="44.37208" lon="4.37899">
        <ele>208.233</ele>
        <time>2015-07-28T23:16:06Z</time>
      </trkpt>
      <trkpt lat="44.37174" lon="4.3792">
        <ele>213.626</ele>
        <time>2015-07-28T23:16:26Z</time>
      </trkpt>
      <trkpt lat="44.37164" lon="4.37984">
        <ele>221.292</ele>
        <time>2015-07-28T23:16:46Z</time>
      </trkpt>
      <trkpt lat="44.3714" lon="4.38031">
        <ele>229.276</ele>
        <time>2015-07-28T23:17:06Z</time>
      </trkpt>
      <trkpt lat="44.37107" lon="4.38059">
        <ele>233.735</ele>
        <time>2015-07-28T23:17:26Z</time>
      </trkpt>
      <trkpt lat="44.3708" lon="4.38072">
        <ele>236.686</ele>
        <time>2015-07-28T23:17:46Z</time>
      </trkpt>
      <trkpt lat="44.37081" lon="4.38144">
        <ele>241.014</ele>
        <time>2015-07-28T23:18:06Z</time>
      </trkpt>
      <trkpt lat="44.37066" lon="4.38205">
        <ele>241.008</ele>
        <time>2015-07-28T23:18:26Z</time>
      </trkpt>
      <trkpt lat="44.3704" lon="4.38247">
        <ele>242.939</ele>
        <time>2015-07-28T23:18:46Z</time>
      </trkpt>
      <trkpt lat="44.37008" lon="4.38318">
        <ele>245.853</ele>
        <time>2015-07-28T23:19:06Z</time>
      </trkpt>
      <trkpt lat="44.36963" lon="4.3844">
        <ele>247.87</ele>
        <time>2015-07-28T23:19:26Z</time>
      </trkpt>
      <trkpt lat="44.36934" lon="4.3847">
        <ele>246.393</ele>
        <time>2015-07-28T23:19:46Z</time>
      </trkpt>
      <trkpt lat="44.36905" lon="4.38515">
        <ele>243.224</ele>
        <time>2015-07-28T23:20:06Z</time>
      </trkpt>
      <trkpt lat="44.36871" lon="4.38488">
        <ele>237.887</ele>
        <time>2015-07-28T23:20:26Z</time>
      </trkpt>
      <trkpt lat="44.36831" lon="4.38469">
        <ele>232.133</ele>
        <time>2015-07-28T23:20:46Z</time>
      </trkpt>
      <trkpt lat="44.3673" lon="4.38438">
        <ele>223.537</ele>
        <time>2015-07-28T23:21:06Z</time>
      </trkpt>
      <trkpt lat="44.36684" lon="4.38454">
        <ele>214.449</ele>
        <time>2015-07-28T23:21:26Z</time>
      </trkpt>
      <trkpt lat="44.36616" lon="4.38445">
        <ele>211.302</ele>
        <time>2015-07-28T23:21:46Z</time>
      </trkpt>
      <trkpt lat="44.36602" lon="4.3845">
        <ele>209.722</ele>
        <time>2015-07-28T23:22:06Z</time>
      </trkpt>
      <trkpt lat="44.36556" lon="4.38528">
        <ele>206.108</ele>
        <time>2015-07-28T23:22:26Z</time>
      </trkpt>
      <trkpt lat="44.36522" lon="4.38536">
        <ele>207.54</ele>
        <time>2015-07-28T23:22:46Z</time>
      </trkpt>
      <trkpt lat="44.36459" lon="4.38568">
        <ele>215.384</ele>
        <time>2015-07-28T23:23:06Z</time>
      </trkpt>
      <trkpt lat="44.36417" lon="4.38563">
        <ele>215.581</ele>
        <time>2015-07-28T23:23:26Z</time>
      </trkpt>
      <trkpt lat="44.36339" lon="4.38588">
        <ele>222.834</ele>
        <time>2015-07-28T23:23:46Z</time>
      </trkpt>
      <trkpt lat="44.36322" lon="4.38555">
        <ele>221.785</ele>
        <time>2015-07-28T23:24:06Z</time>
      </trkpt>
      <trkpt lat="44.36288" lon="4.38527">
        <ele>223.568</ele>
        <time>2015-07-28T23:24:26Z</time>
      </trkpt>
      <trkpt lat="44.36244" lon="4.38506">
        <ele>225.274</ele>
        <time>2015-07-28T23:24:46Z</time>
      </trkpt>
      <trkpt lat="44.36168" lon="4.38515">
        <ele>229.218</ele>
        <time>2015-07-28T23:25:06Z</time>
      </trkpt>
      <trkpt lat="44.36067" lon="4.3851">
        <ele>234.231</ele>
        <time>2015-07-28T23:25:26Z</time>
      </trkpt>
      <trkpt lat="44.36033" lon="4.38481">
        <ele>234.061</ele>
        <time>2015-07-28T23:25:46Z</time>
      </trkpt>
      <trkpt lat="44.36008" lon="4.38484">
        <ele>235.507</ele>
        <time>2015-07-28T23:26:06Z</time>
      </trkpt>
      <trkpt lat="44.35995" lon="4.38523">
        <ele>238.508</ele>
        <time>2015-07-28T23:26:26Z</time>
      </trkpt>
      <trkpt lat="44.36019" lon="4.38589">
        <ele>244.889</ele>
        <time>2015-07-28T23:26:46Z</time>
      </trkpt>
      <trkpt lat="44.36018" lon="4.38645">
        <ele>247.733</ele>
        <time>2015-07-28T23:27:06Z</time>
      </trkpt>
      <trkpt lat="44.35989" lon="4.38761">
        <ele>244.95</ele>
        <time>2015-07-28T23:27:26Z</time>
      </trkpt>
      <trkpt lat="44.35991" lon="4.3881">
        <ele>242.513</ele>
        <time>2015-07-28T23:27:46Z</time>
      </trkpt>
      <trkpt lat="44.36031" lon="4.38846">
        <ele>247.424</ele>
        <time>2015-07-28T23:28:06Z</time>
      </trkpt>
      <trkpt lat="44.36033" lon="4.38946">
        <ele>240.137</ele>
        <time>2015-07-28T23:28:26Z</time>
      </trkpt>
      <trkpt lat="44.36009" lon="4.39017">
        <ele>234.493</ele>
        <time>2015-07-28T23:28:46Z</time>
      </trkpt>
      <trkpt lat="44.35993" lon="4.39079">
        <ele>231.217</ele>
        <time>2015-07-28T23:29:06Z</time>
      </trkpt>
      <trkpt lat="44.35997" lon="4.39147">
        <ele>230.594</ele>
        <time>2015-07-28T23:29:26Z</time>
      </trkpt>
      <trkpt lat="44.35976" lon="4.39174">
        <ele>228.057</ele>
        <time>2015-07-28T23:29:46Z</time>
      </trkpt>
      <trkpt lat="44.35938" lon="4.39176">
        <ele>226.222</ele>
        <time>2015-07-28T23:30:06Z</time>
      </trkpt>
      <trkpt lat="44.35909" lon="4.39217">
        <ele>229.708</ele>
        <time>2015-07-28T23:30:26Z</time>
      </trkpt>
      <trkpt lat="44.35905" lon="4.39279">
        <ele>229.235</ele>
        <time>2015-07-28T23:30:46Z</time>
      </trkpt>
      <trkpt lat="44.35866" lon="4.39386">
        <ele>224.969</ele>
        <time>2015-07-28T23:31:06Z</time>
      </trkpt>
      <trkpt lat="44.35814" lon="4.39425">
        <ele>223.946</ele>
        <time>2015-07-28T23:31:26Z</time>
      </trkpt>
      <trkpt lat="44.35676" lon="4.39578">
        <ele>229.399</ele>
        <time>2015-07-28T23:31:46Z</time>
      </trkpt>
      <trkpt lat="44.35572" lon="4.39626">
        <ele>223.26</ele>
        <time>2015-07-28T23:32:06Z</time>
      </trkpt>
      <trkpt lat="44.3554" lon="4.3968">
        <ele>225.693</ele>
        <time>2015-07-28T23:32:26Z</time>
      </trkpt>
      <trkpt lat="44.35485" lon="4.39717">
        <ele>223.279</ele>
        <time>2015-07-28T23:32:46Z</time>
      </trkpt>
      <trkpt lat="44.35466" lon="4.3978">
        <ele>229.973</ele>
        <time>2015-07-28T23:33:06Z</time>
      </trkpt>
      <trkpt lat="44.35438" lon="4.39842">
        <ele>228.424</ele>
        <time>2015-07-28T23:33:26Z</time>
      </trkpt>
      <trkpt lat="44.3542" lon="4.39918">
        <ele>227.704</ele>
        <time>2015-07-28T23:33:46Z</time>
      </trkpt>
      <trkpt lat="44.35407" lon="4.39927">
        <ele>227.414</ele>
        <time>2015-07-28T23:34:06Z</time>
      </trkpt>
      <trkpt lat="44.35341" lon="4.39918">
        <ele>229.408</ele>
        <time>2015-07-28T23:34:26Z</time>
      </trkpt>
      <trkpt lat="44.35261" lon="4.39953">
        <ele>240.918</ele>
        <time>2015-07-28T23:34:46Z</time>
      </trkpt>
      <trkpt lat="44.35218" lon="4.4">
        <ele>242.032</ele>
        <time>2015-07-28T23:35:06Z</time>
      </trkpt>
      <trkpt lat="44.35206" lon="4.40044">
        <ele>245.479</ele>
        <time>2015-07-28T23:35:26Z</time>
      </trkpt>
      <trkpt lat="44.35158" lon="4.40066">
        <ele>248.742</ele>
        <time>2015-07-28T23:35:46Z</time>
      </trkpt>
      <trkpt lat="44.35142" lon="4.40117">
        <ele>254.273</ele>
        <time>2015-07-28T23:36:06Z</time>
      </trkpt>
      <trkpt lat="44.35136" lon="4.40157">
        <ele>257.916</ele>
        <time>2015-07-28T23:36:26Z</time>
      </trkpt>
      <trkpt lat="44.3509" lon="4.40236">
        <ele>257.672</ele>
        <time>2015-07-28T23:36:46Z</time>
      </trkpt>
      <trkpt lat="44.35101" lon="4.4033">
        <ele>251.076</ele>
        <time>2015-07-28T23:37:06Z</time>
      </trkpt>
      <trkpt lat="44.35122" lon="4.40388">
        <ele>246.962</ele>
        <time>2015-07-28T23:37:26Z</time>
      </trkpt>
      <trkpt lat="44.35154" lon="4.40422">
        <ele>240.883</ele>
        <time>2015-07-28T23:37:46Z</time>
      </trkpt>
      <trkpt lat="44.35166" lon="4.40476">
        <ele>241.411</ele>
        <time>2015-07-28T23:38:06Z</time>
      </trkpt>
      <trkpt lat="44.35191" lon="4.4051">
        <ele>239.808</ele>
        <time>2015-07-28T23:38:26Z</time>
      </trkpt>
      <trkpt lat="44.35245" lon="4.40524">
        <ele>240.752</ele>
        <time>2015-07-28T23:38:46Z</time>
      </trkpt>
      <trkpt lat="44.3526" lon="4.406">
        <ele>241.716</ele>
        <time>2015-07-28T23:39:06Z</time>
      </trkpt>
      <trkpt lat="44.35275" lon="4.40725">
        <ele>244.983</ele>
        <time>2015-07-28T23:39:26Z</time>
      </trkpt>
      <trkpt lat="44.35323" lon="4.40751">
        <ele>246.076</ele>
        <time>2015-07-28T23:39:46Z</time>
      </trkpt>
      <trkpt lat="44.35381" lon="4.40757">
        <ele>244.117</ele>
        <time>2015-07-28T23:40:06Z</time>
      </trkpt>
      <trkpt lat="44.35426" lon="4.4078">
        <ele>250.71</ele>
        <time>2015-07-28T23:40:26Z</time>
      </trkpt>
      <trkpt lat="44.35463" lon="4.40818">
        <ele>254.856</ele>
        <time>2015-07-28T23:40:46Z</time>
      </trkpt>
      <trkpt lat="44.35507" lon="4.40836">
        <ele>260.03</ele>
        <time>2015-07-28T23:41:06Z</time>
      </trkpt>
      <trkpt lat="44.35507" lon="4.40881">
        <ele>260.133</ele>
        <time>2015-07-28T23:41:26Z</time>
      </trkpt>
      <trkpt lat="44.3552" lon="4.40914">
        <ele>262.123</ele>
        <time>2015-07-28T23:41:46Z</time>
      </trkpt>
      <trkpt lat="44.35539" lon="4.40936">
        <ele>268.015</ele>
        <time>2015-07-28T23:42:06Z</time>
      </trkpt>
      <trkpt lat="44.35533" lon="4.40973">
        <ele>274.408</ele>
        <time>2015-07-28T23:42:26Z</time>
      </trkpt>
      <trkpt lat="44.35479" lon="4.40995">
        <ele>276.939</ele>
        <time>2015-07-28T23:42:46Z</time>
      </trkpt>
      <trkpt lat="44.35447" lon="4.41012">
        <ele>280.163</ele>
        <time>2015-07-28T23:43:06Z</time>
      </trkpt>
      <trkpt lat="44.3544" lon="4.41225">
        <ele>281.01</ele>
        <time>2015-07-28T23:43:26Z</time>
      </trkpt>
      <trkpt lat="44.35444" lon="4.41259">
        <ele>281.033</ele>
        <time>2015-07-28T23:43:46Z</time>
      </trkpt>
      <trkpt lat="44.35435" lon="4.41298">
        <ele>280.764</ele>
        <time>2015-07-28T23:44:06Z</time>
      </trkpt>
      <trkpt lat="44.35426" lon="4.41415">
        <ele>276.427</ele>
        <time>2015-07-28T23:44:26Z</time>
      </trkpt>
      <trkpt lat="44.35427" lon="4.41457">
        <ele>276.663</ele>
        <time>2015-07-28T23:44:46Z</time>
      </trkpt>
      <trkpt lat="44.35454" lon="4.41498">
        <ele>279.397</ele>
        <time>2015-07-28T23:45:06Z</time>
      </trkpt>
      <trkpt lat="44.35437" lon="4.4153">
        <ele>279.853</ele>
        <time>2015-07-28T23:45:26Z</time>
      </trkpt>
      <trkpt lat="44.35443" lon="4.41575">
        <ele>280.904</ele>
        <time>2015-07-28T23:45:46Z</time>
      </trkpt>
      <trkpt lat="44.35441" lon="4.4163">
        <ele>279.214</ele>
        <time>2015-07-28T23:46:06Z</time>
      </trkpt>
      <trkpt lat="44.3542" lon="4.41676">
        <ele>277.708</ele>
        <time>2015-07-28T23:46:26Z</time>
      </trkpt>
      <trkpt lat="44.35391" lon="4.41717">
        <ele>275.231</ele>
        <time>2015-07-28T23:46:46Z</time>
      </trkpt>
      <trkpt lat="44.35386" lon="4.41923">
        <ele>271.625</ele>
        <time>2015-07-28T23:47:06Z</time>
      </trkpt>
      <trkpt lat="44.35378" lon="4.42071">
        <ele>273.022</ele>
        <time>2015-07-28T23:47:26Z</time>
      </trkpt>
      <trkpt lat="44.3534" lon="4.42204">
        <ele>275.615</ele>
        <time>2015-07-28T23:47:46Z</time>
      </trkpt>
      <trkpt lat="44.35338" lon="4.42237">
        <ele>275.496</ele>
        <time>2015-07-28T23:48:06Z</time>
      </trkpt>
      <trkpt lat="44.35352" lon="4.42398">
        <ele>270.949</ele>
        <time>2015-07-28T23:48:26Z</time>
      </trkpt>
      <trkpt lat="44.3535" lon="4.4248">
        <ele>265.535</ele>
        <time>2015-07-28T23:48:46Z</time>
      </trkpt>
      <trkpt lat="44.35351" lon="4.42575">
        <ele>257.839</ele>
        <time>2015-07-28T23:49:06Z</time>
      </trkpt>
      <trkpt lat="44.35363" lon="4.42696">
        <ele>257.981</ele>
        <time>2015-07-28T23:49:26Z</time>
      </trkpt>
      <trkpt lat="44.35376" lon="4.42708">
        <ele>257.361</ele>
        <time>2015-07-28T23:49:46Z</time>
      </trkpt>
      <trkpt lat="44.35383" lon="4.42779">
        <ele>261.217</ele>
        <time>2015-07-28T23:50:06Z</time>
      </trkpt>
      <trkpt lat="44.35395" lon="4.42851">
        <ele>262.408</ele>
        <time>2015-07-28T23:50:26Z</time>
      </trkpt>
      <trkpt lat="44.35448" lon="4.42877">
        <ele>266.774</ele>
        <time>2015-07-28T23:50:46Z</time>
      </trkpt>
      <trkpt lat="44.35464" lon="4.4291">
        <ele>269.368</ele>
        <time>2015-07-28T23:51:06Z</time>
      </trkpt>
      <trkpt lat="44.35492" lon="4.42992">
        <ele>274.155</ele>
        <time>2015-07-28T23:51:26Z</time>
      </trkpt>
      <trkpt lat="44.35499" lon="4.43047">
        <ele>274.928</ele>
        <time>2015-07-28T23:51:46Z</time>
      </trkpt>
      <trkpt lat="44.35546" lon="4.4315">
        <ele>272.119</ele>
        <time>2015-07-28T23:52:06Z</time>
      </trkpt>
      <trkpt lat="44.35566" lon="4.43219">
        <ele>270.642</ele>
        <time>2015-07-28T23:52:26Z</time>
      </trkpt>
      <trkpt lat="44.35599" lon="4.43291">
        <ele>266.248</ele>
        <time>2015-07-28T23:52:46Z</time>
      </trkpt>
      <trkpt lat="44.35587" lon="4.43299">
        <ele>264.652</ele>
        <time>2015-07-28T23:53:06Z</time>
      </trkpt>
      <trkpt lat="44.35603" lon="4.4335">
        <ele>265.137</ele>
        <time>2015-07-28T23:53:26Z</time>
      </trkpt>
      <trkpt lat="44.35607" lon="4.43382">
        <ele>265.049</ele>
        <time>2015-07-28T23:53:46Z</time>
      </trkpt>
      <trkpt lat="44.35593" lon="4.43401">
        <ele>264.113</ele>
        <time>2015-07-28T23:54:06Z</time>
      </trkpt>
      <trkpt lat="44.35599" lon="4.43426">
        <ele>264.308</ele>
        <time>2015-07-28T23:54:26Z</time>
      </trkpt>
      <trkpt lat="44.35602" lon="4.43476">
        <ele>266.139</ele>
        <time>2015-07-28T23:54:46Z</time>
      </trkpt>
      <trkpt lat="44.3561" lon="4.43503">
        <ele>267.023</ele>
        <time>2015-07-28T23:55:06Z</time>
      </trkpt>
      <trkpt lat="44.35626" lon="4.43631">
        <ele>265.89</ele>
        <time>2015-07-28T23:55:26Z</time>
      </trkpt>
      <trkpt lat="44.35618" lon="4.43665">
        <ele>265.153</ele>
        <time>2015-07-28T23:55:46Z</time>
      </trkpt>
      <trkpt lat="44.356" lon="4.43688">
        <ele>263.564</ele>
        <time>2015-07-28T23:56:06Z</time>
      </trkpt>
      <trkpt lat="44.35592" lon="4.43704">
        <ele>263.727</ele>
        <time>2015-07-28T23:56:26Z</time>
      </trkpt>
      <trkpt lat="44.35573" lon="4.4371">
        <ele>263.533</ele>
        <time>2015-07-28T23:56:46Z</time>
      </trkpt>
      <trkpt lat="44.35556" lon="4.43703">
        <ele>262.697</ele>
        <time>2015-07-28T23:57:06Z</time>
      </trkpt>
      <trkpt lat="44.35511" lon="4.43709">
        <ele>263.239</ele>
        <time>2015-07-28T23:57:26Z</time>
      </trkpt>
      <trkpt lat="44.35467" lon="4.43751">
        <ele>265.301</ele>
        <time>2015-07-28T23:57:46Z</time>
      </trkpt>
      <trkpt lat="44.35433" lon="4.43803">
        <ele>267.121</ele>
        <time>2015-07-28T23:58:06Z</time>
      </trkpt>
      <trkpt lat="44.35419" lon="4.43924">
        <ele>269.408</ele>
        <time>2015-07-28T23:58:26Z</time>
      </trkpt>
      <trkpt lat="44.35417" lon="4.44078">
        <ele>272.079</ele>
        <time>2015-07-28T23:58:46Z</time>
      </trkpt>
      <trkpt lat="44.3543" lon="4.44202">
        <ele>268.963</ele>
        <time>2015-07-28T23:59:06Z</time>
      </trkpt>
      <trkpt lat="44.35414" lon="4.44237">
        <ele>267.48</ele>
        <time>2015-07-28T23:59:26Z</time>
      </trkpt>
      <trkpt lat="44.35407" lon="4.44291">
        <ele>267.813</ele>
        <time>2015-07-28T23:59:46Z</time>
      </trkpt>
      <trkpt lat="44.35396" lon="4.44324">
        <ele>266.784</ele>
        <time>2015-07-29T00:00:06Z</time>
      </trkpt>
      <trkpt lat="44.35387" lon="4.44366">
        <ele>264.277</ele>
        <time>2015-07-29T00:00:26Z</time>
      </trkpt>
      <trkpt lat="44.3537" lon="4.44395">
        <ele>260.413</ele>
        <time>2015-07-29T00:00:46Z</time>
      </trkpt>
      <trkpt lat="44.35323" lon="4.44524">
        <ele>256.197</ele>
        <time>2015-07-29T00:01:06Z</time>
      </trkpt>
      <trkpt lat="44.35317" lon="4.44549">
        <ele>256.098</ele>
        <time>2015-07-29T00:01:26Z</time>
      </trkpt>
      <trkpt lat="44.35288" lon="4.44584">
        <ele>257.415</ele>
        <time>2015-07-29T00:01:46Z</time>
      </trkpt>
      <trkpt lat="44.35273" lon="4.44612">
        <ele>259.526</ele>
        <time>2015-07-29T00:02:06Z</time>
      </trkpt>
      <trkpt lat="44.3529" lon="4.44734">
        <ele>260.308</ele>
        <time>2015-07-29T00:02:26Z</time>
      </trkpt>
      <trkpt lat="44.35287" lon="4.44869">
        <ele>262.635</ele>
        <time>2015-07-29T00:02:46Z</time>
      </trkpt>
      <trkpt lat="44.3526" lon="4.44935">
        <ele>262.649</ele>
        <time>2015-07-29T00:03:06Z</time>
      </trkpt>
      <trkpt lat="44.35249" lon="4.45012">
        <ele>259.026</ele>
        <time>2015-07-29T00:03:26Z</time>
      </trkpt>
      <trkpt lat="44.35208" lon="4.45093">
        <ele>256.029</ele>
        <time>2015-07-29T00:03:46Z</time>
      </trkpt>
      <trkpt lat="44.35173" lon="4.45135">
        <ele>252.89</ele>
        <time>2015-07-29T00:04:06Z</time>
      </trkpt>
      <trkpt lat="44.35148" lon="4.45215">
        <ele>257.463</ele>
        <time>2015-07-29T00:04:26Z</time>
      </trkpt>
      <trkpt lat="44.3512" lon="4.45244">
        <ele>257.379</ele>
        <time>2015-07-29T00:04:46Z</time>
      </trkpt>
      <trkpt lat="44.35097" lon="4.45325">
        <ele>255.713</ele>
        <time>2015-07-29T00:05:06Z</time>
      </trkpt>
      <trkpt lat="44.35074" lon="4.45315">
        <ele>255.411</ele>
        <time>2015-07-29T00:05:26Z</time>
      </trkpt>
      <trkpt lat="44.35045" lon="4.45277">
        <ele>257.021</ele>
        <time>2015-07-29T00:05:46Z</time>
      </trkpt>
      <trkpt lat="44.3498" lon="4.45214">
        <ele>256.803</ele>
        <time>2015-07-29T00:06:06Z</time>
      </trkpt>
      <trkpt lat="44.34913" lon="4.45171">
        <ele>261.108</ele>
        <time>2015-07-29T00:06:26Z</time>
      </trkpt>
      <trkpt lat="44.34884" lon="4.45182">
        <ele>261.427</ele>
        <time>2015-07-29T00:06:46Z</time>
      </trkpt>
      <trkpt lat="44.34832" lon="4.45234">
        <ele>262.281</ele>
        <time>2015-07-29T00:07:06Z</time>
      </trkpt>
      <trkpt lat="44.34794" lon="4.45223">
        <ele>261.748</ele>
        <time>2015-07-29T00:07:26Z</time>
      </trkpt>
      <trkpt lat="44.34764" lon="4.45201">
        <ele>258.241</ele>
        <time>2015-07-29T00:07:46Z</time>
      </trkpt>
      <trkpt lat="44.34735" lon="4.45156">
        <ele>251.222</ele>
        <time>2015-07-29T00:08:06Z</time>
      </trkpt>
      <trkpt lat="44.3472" lon="4.45111">
        <ele>246.365</ele>
        <time>2015-07-29T00:08:26Z</time>
      </trkpt>
      <trkpt lat="44.34719" lon="4.45057">
        <ele>241.821</ele>
        <time>2015-07-29T00:08:46Z</time>
      </trkpt>
      <trkpt lat="44.34731" lon="4.4504">
        <ele>242.055</ele>
        <time>2015-07-29T00:09:06Z</time>
      </trkpt>
      <trkpt lat="44.34815" lon="4.45008">
        <ele>242.511</ele>
        <time>2015-07-29T00:09:26Z</time>
      </trkpt>
      <trkpt lat="44.34824" lon="4.44984">
        <ele>242.721</ele>
        <time>2015-07-29T00:09:46Z</time>
      </trkpt>
      <trkpt lat="44.34825" lon="4.44951">
        <ele>241.003</ele>
        <time>2015-07-29T00:10:06Z</time>
      </trkpt>
      <trkpt lat="44.34807" lon="4.44849">
        <ele>229.508</ele>
        <time>2015-07-29T00:10:26Z</time>
      </trkpt>
      <trkpt lat="44.34788" lon="4.44764">
        <ele>223.267</ele>
        <time>2015-07-29T00:10:46Z</time>
      </trkpt>
      <trkpt lat="44.34841" lon="4.44749">
        <ele>223.671</ele>
        <time>2015-07-29T00:11:06Z</time>
      </trkpt>
      <trkpt lat="44.34877" lon="4.4475">
        <ele>223.628</ele>
        <time>2015-07-29T00:11:26Z</time>
      </trkpt>
      <trkpt lat="44.34879" lon="4.44687">
        <ele>223.671</ele>
        <time>2015-07-29T00:11:46Z</time>
      </trkpt>
      <trkpt lat="44.3487" lon="4.44645">
        <ele>223.832</ele>
        <time>2015-07-29T00:12:06Z</time>
      </trkpt>
      <trkpt lat="44.34869" lon="4.4459">
        <ele>225.415</ele>
        <time>2015-07-29T00:12:26Z</time>
      </trkpt>
      <trkpt lat="44.34861" lon="4.4459">
        <ele>225.071</ele>
        <time>2015-07-29T00:12:46Z</time>
      </trkpt>
      <trkpt lat="44.34851" lon="4.44596">
        <ele>224.075</ele>
        <time>2015-07-29T00:13:06Z</time>
      </trkpt>
      <trkpt lat="44.34844" lon="4.44596">
        <ele>223.282</ele>
        <time>2015-07-29T00:13:26Z</time>
      </trkpt>
      <trkpt lat="44.34835" lon="4.4456">
        <ele>223.043</ele>
        <time>2015-07-29T00:13:46Z</time>
      </trkpt>
      <trkpt lat="44.34817" lon="4.4454">
        <ele>222.917</ele>
        <time>2015-07-29T00:14:06Z</time>
      </trkpt>
      <trkpt lat="44.34802" lon="4.4456">
        <ele>219.908</ele>
        <time>2015-07-29T00:14:26Z</time>
      </trkpt>
      <trkpt lat="44.34785" lon="4.44548">
        <ele>220.254</ele>
        <time>2015-07-29T00:14:46Z</time>
      </trkpt>
      <trkpt lat="44.34765" lon="4.44545">
        <ele>222.068</ele>
        <time>2015-07-29T00:15:06Z</time>
      </trkpt>
      <trkpt lat="44.34748" lon="4.44539">
        <ele>224.755</ele>
        <time>2015-07-29T00:15:26Z</time>
      </trkpt>
      <trkpt lat="44.34732" lon="4.44541">
        <ele>227.648</ele>
        <time>2015-07-29T00:15:46Z</time>
      </trkpt>
      <trkpt lat="44.34716" lon="4.44522">
        <ele>232.569</ele>
        <time>2015-07-29T00:16:06Z</time>
      </trkpt>
      <trkpt lat="44.34662" lon="4.44525">
        <ele>238.792</ele>
        <time>2015-07-29T00:16:26Z</time>
      </trkpt>
      <trkpt lat="44.34647" lon="4.44508">
        <ele>241.868</ele>
        <time>2015-07-29T00:16:46Z</time>
      </trkpt>
      <trkpt lat="44.34632" lon="4.44468">
        <ele>249.222</ele>
        <time>2015-07-29T00:17:06Z</time>
      </trkpt>
      <trkpt lat="44.34618" lon="4.44467">
        <ele>253.179</ele>
        <time>2015-07-29T00:17:26Z</time>
      </trkpt>
      <trkpt lat="44.34592" lon="4.4444">
        <ele>259.805</ele>
        <time>2015-07-29T00:17:46Z</time>
      </trkpt>
      <trkpt lat="44.34548" lon="4.44414">
        <ele>264.825</ele>
        <time>2015-07-29T00:18:06Z</time>
      </trkpt>
      <trkpt lat="44.34469" lon="4.44421">
        <ele>275.508</ele>
        <time>2015-07-29T00:18:26Z</time>
      </trkpt>
      <trkpt lat="44.34443" lon="4.44385">
        <ele>278.093</ele>
        <time>2015-07-29T00:18:46Z</time>
      </trkpt>
      <trkpt lat="44.34417" lon="4.44379">
        <ele>282.557</ele>
        <time>2015-07-29T00:19:06Z</time>
      </trkpt>
      <trkpt lat="44.34392" lon="4.44339">
        <ele>285.664</ele>
        <time>2015-07-29T00:19:26Z</time>
      </trkpt>
      <trkpt lat="44.3438" lon="4.44334">
        <ele>287.067</ele>
        <time>2015-07-29T00:19:46Z</time>
      </trkpt>
      <trkpt lat="44.34356" lon="4.44397">
        <ele>292.938</ele>
        <time>2015-07-29T00:20:06Z</time>
      </trkpt>
      <trkpt lat="44.34352" lon="4.44458">
        <ele>298.571</ele>
        <time>2015-07-29T00:20:26Z</time>
      </trkpt>
      <trkpt lat="44.34353" lon="4.44479">
        <ele>300.477</ele>
        <time>2015-07-29T00:20:46Z</time>
      </trkpt>
      <trkpt lat="44.3434" lon="4.44506">
        <ele>303.051</ele>
        <time>2015-07-29T00:21:06Z</time>
      </trkpt>
      <trkpt lat="44.34305" lon="4.44502">
        <ele>307.812</ele>
        <time>2015-07-29T00:21:26Z</time>
      </trkpt>
      <trkpt lat="44.34296" lon="4.44493">
        <ele>310.732</ele>
        <time>2015-07-29T00:21:46Z</time>
      </trkpt>
      <trkpt lat="44.34286" lon="4.44438">
        <ele>314.405</ele>
        <time>2015-07-29T00:22:06Z</time>
      </trkpt>
      <trkpt lat="44.3426" lon="4.44402">
        <ele>318.508</ele>
        <time>2015-07-29T00:22:26Z</time>
      </trkpt>
      <trkpt lat="44.34246" lon="4.44401">
        <ele>321.987</ele>
        <time>2015-07-29T00:22:46Z</time>
      </trkpt>
      <trkpt lat="44.3423" lon="4.44453">
        <ele>327.721</ele>
        <time>2015-07-29T00:23:06Z</time>
      </trkpt>
      <trkpt lat="44.34219" lon="4.44467">
        <ele>328.348</ele>
        <time>2015-07-29T00:23:26Z</time>
      </trkpt>
      <trkpt lat="44.34144" lon="4.44443">
        <ele>336.411</ele>
        <time>2015-07-29T00:23:46Z</time>
      </trkpt>
      <trkpt lat="44.34136" lon="4.44433">
        <ele>338.332</ele>
        <time>2015-07-29T00:24:06Z</time>
      </trkpt>
      <trkpt lat="44.34108" lon="4.44417">
        <ele>344.265</ele>
        <time>2015-07-29T00:24:26Z</time>
      </trkpt>
      <trkpt lat="44.34082" lon="4.44451">
        <ele>346.081</ele>
        <time>2015-07-29T00:24:46Z</time>
      </trkpt>
      <trkpt lat="44.34072" lon="4.4445">
        <ele>348.685</ele>
        <time>2015-07-29T00:25:06Z</time>
      </trkpt>
      <trkpt lat="44.34053" lon="4.44425">
        <ele>354.278</ele>
        <time>2015-07-29T00:25:26Z</time>
      </trkpt>
      <trkpt lat="44.34039" lon="4.44432">
        <ele>356.433</ele>
        <time>2015-07-29T00:25:46Z</time>
      </trkpt>
      <trkpt lat="44.34004" lon="4.44432">
        <ele>361.026</ele>
        <time>2015-07-29T00:26:06Z</time>
      </trkpt>
      <trkpt lat="44.33993" lon="4.44422">
        <ele>363.108</ele>
        <time>2015-07-29T00:26:26Z</time>
      </trkpt>
      <trkpt lat="44.33947" lon="4.44431">
        <ele>370.023</ele>
        <time>2015-07-29T00:26:46Z</time>
      </trkpt>
      <trkpt lat="44.33928" lon="4.44414">
        <ele>373.447</ele>
        <time>2015-07-29T00:27:06Z</time>
      </trkpt>
      <trkpt lat="44.33906" lon="4.44412">
        <ele>376.544</ele>
        <time>2015-07-29T00:27:26Z</time>
      </trkpt>
      <trkpt lat="44.33888" lon="4.44389">
        <ele>378.177</ele>
        <time>2015-07-29T00:27:46Z</time>
      </trkpt>
      <trkpt lat="44.33871" lon="4.44381">
        <ele>380.268</ele>
        <time>2015-07-29T00:28:06Z</time>
      </trkpt>
      <trkpt lat="44.33859" lon="4.44365">
        <ele>380.431</ele>
        <time>2015-07-29T00:28:26Z</time>
      </trkpt>
      <trkpt lat="44.33849" lon="4.44362">
        <ele>380.557</ele>
        <time>2015-07-29T00:28:46Z</time>
      </trkpt>
      <trkpt lat="44.33836" lon="4.44353">
        <ele>380.491</ele>
        <time>2015-07-29T00:29:06Z</time>
      </trkpt>
      <trkpt lat="44.33821" lon="4.44347">
        <ele>380.071</ele>
        <time>2015-07-29T00:29:26Z</time>
      </trkpt>
      <trkpt lat="44.33772" lon="4.44468">
        <ele>387.241</ele>
        <time>2015-07-29T00:29:46Z</time>
      </trkpt>
      <trkpt lat="44.33743" lon="4.44501">
        <ele>388.015</ele>
        <time>2015-07-29T00:30:06Z</time>
      </trkpt>
      <trkpt lat="44.33715" lon="4.44588">
        <ele>388.308</ele>
        <time>2015-07-29T00:30:26Z</time>
      </trkpt>
      <trkpt lat="44.33676" lon="4.44639">
        <ele>390.323</ele>
        <time>2015-07-29T00:30:46Z</time>
      </trkpt>
      <trkpt lat="44.33638" lon="4.44722">
        <ele>394.057</ele>
        <time>2015-07-29T00:31:06Z</time>
      </trkpt>
      <trkpt lat="44.33514" lon="4.44924">
        <ele>389.074</ele>
        <time>2015-07-29T00:31:26Z</time>
      </trkpt>
      <trkpt lat="44.33474" lon="4.44935">
        <ele>388.157</ele>
        <time>2015-07-29T00:31:46Z</time>
      </trkpt>
      <trkpt lat="44.33418" lon="4.45046">
        <ele>389.028</ele>
        <time>2015-07-29T00:32:06Z</time>
      </trkpt>
      <trkpt lat="44.33415" lon="4.45093">
        <ele>391.171</ele>
        <time>2015-07-29T00:32:26Z</time>
      </trkpt>
      <trkpt lat="44.33391" lon="4.45217">
        <ele>394.947</ele>
        <time>2015-07-29T00:32:46Z</time>
      </trkpt>
      <trkpt lat="44.33381" lon="4.45296">
        <ele>395.721</ele>
        <time>2015-07-29T00:33:06Z</time>
      </trkpt>
      <trkpt lat="44.33353" lon="4.45362">
        <ele>395.045</ele>
        <time>2015-07-29T00:33:26Z</time>
      </trkpt>
      <trkpt lat="44.33328" lon="4.45447">
        <ele>390.947</ele>
        <time>2015-07-29T00:33:46Z</time>
      </trkpt>
      <trkpt lat="44.33242" lon="4.45549">
        <ele>393.411</ele>
        <time>2015-07-29T00:34:06Z</time>
      </trkpt>
      <trkpt lat="44.33217" lon="4.4557">
        <ele>393.708</ele>
        <time>2015-07-29T00:34:26Z</time>
      </trkpt>
      <trkpt lat="44.33212" lon="4.4559">
        <ele>393.28</ele>
        <time>2015-07-29T00:34:46Z</time>
      </trkpt>
      <trkpt lat="44.33167" lon="4.45656">
        <ele>393.884</ele>
        <time>2015-07-29T00:35:06Z</time>
      </trkpt>
      <trkpt lat="44.33054" lon="4.45775">
        <ele>394.281</ele>
        <time>2015-07-29T00:35:26Z</time>
      </trkpt>
      <trkpt lat="44.32989" lon="4.45822">
        <ele>396.054</ele>
        <time>2015-07-29T00:35:46Z</time>
      </trkpt>
      <trkpt lat="44.32945" lon="4.45834">
        <ele>397.055</ele>
        <time>2015-07-29T00:36:06Z</time>
      </trkpt>
      <trkpt lat="44.32863" lon="4.45887">
        <ele>401.988</ele>
        <time>2015-07-29T00:36:26Z</time>
      </trkpt>
      <trkpt lat="44.32822" lon="4.45952">
        <ele>403.444</ele>
        <time>2015-07-29T00:36:46Z</time>
      </trkpt>
      <trkpt lat="44.32796" lon="4.46038">
        <ele>403.048</ele>
        <time>2015-07-29T00:37:06Z</time>
      </trkpt>
      <trkpt lat="44.32779" lon="4.46165">
        <ele>401.161</ele>
        <time>2015-07-29T00:37:26Z</time>
      </trkpt>
      <trkpt lat="44.32768" lon="4.46411">
        <ele>400.821</ele>
        <time>2015-07-29T00:37:46Z</time>
      </trkpt>
      <trkpt lat="44.3277" lon="4.46477">
        <ele>399.113</ele>
        <time>2015-07-29T00:38:06Z</time>
      </trkpt>
      <trkpt lat="44.32827" lon="4.46687">
        <ele>390.408</ele>
        <time>2015-07-29T00:38:26Z</time>
      </trkpt>
      <trkpt lat="44.32831" lon="4.46764">
        <ele>388.412</ele>
        <time>2015-07-29T00:38:46Z</time>
      </trkpt>
      <trkpt lat="44.32813" lon="4.46834">
        <ele>387.336</ele>
        <time>2015-07-29T00:39:06Z</time>
      </trkpt>
      <trkpt lat="44.32819" lon="4.4692">
        <ele>388.553</ele>
        <time>2015-07-29T00:39:26Z</time>
      </trkpt>
      <trkpt lat="44.32816" lon="4.4707">
        <ele>391.786</ele>
        <time>2015-07-29T00:39:46Z</time>
      </trkpt>
      <trkpt lat="44.32794" lon="4.47172">
        <ele>389.097</ele>
        <time>2015-07-29T00:40:06Z</time>
      </trkpt>
      <trkpt lat="44.32803" lon="4.47285">
        <ele>392.13</ele>
        <time>2015-07-29T00:40:26Z</time>
      </trkpt>
      <trkpt lat="44.32771" lon="4.47313">
        <ele>391.836</ele>
        <time>2015-07-29T00:40:46Z</time>
      </trkpt>
      <trkpt lat="44.327" lon="4.47395">
        <ele>393.29</ele>
        <time>2015-07-29T00:41:06Z</time>
      </trkpt>
      <trkpt lat="44.32607" lon="4.47602">
        <ele>390.412</ele>
        <time>2015-07-29T00:41:26Z</time>
      </trkpt>
      <trkpt lat="44.32589" lon="4.47656">
        <ele>389.232</ele>
        <time>2015-07-29T00:41:46Z</time>
      </trkpt>
      <trkpt lat="44.32565" lon="4.4768">
        <ele>389.305</ele>
        <time>2015-07-29T00:42:06Z</time>
      </trkpt>
      <trkpt lat="44.32543" lon="4.47805">
        <ele>391.008</ele>
        <time>2015-07-29T00:42:26Z</time>
      </trkpt>
      <trkpt lat="44.32533" lon="4.47892">
        <ele>385.897</ele>
        <time>2015-07-29T00:42:46Z</time>
      </trkpt>
      <trkpt lat="44.3251" lon="4.4795">
        <ele>380.571</ele>
        <time>2015-07-29T00:43:06Z</time>
      </trkpt>
      <trkpt lat="44.32446" lon="4.48039">
        <ele>377.288</ele>
        <time>2015-07-29T00:43:26Z</time>
      </trkpt>
      <trkpt lat="44.32426" lon="4.48092">
        <ele>372.731</ele>
        <time>2015-07-29T00:43:46Z</time>
      </trkpt>
      <trkpt lat="44.32372" lon="4.48148">
        <ele>367.632</ele>
        <time>2015-07-29T00:44:06Z</time>
      </trkpt>
      <trkpt lat="44.32346" lon="4.48159">
        <ele>365.825</ele>
        <time>2015-07-29T00:44:26Z</time>
      </trkpt>
      <trkpt lat="44.32321" lon="4.48214">
        <ele>364.941</ele>
        <time>2015-07-29T00:44:46Z</time>
      </trkpt>
      <trkpt lat="44.32293" lon="4.48329">
        <ele>360.935</ele>
        <time>2015-07-29T00:45:06Z</time>
      </trkpt>
      <trkpt lat="44.32242" lon="4.48357">
        <ele>358.347</ele>
        <time>2015-07-29T00:45:26Z</time>
      </trkpt>
      <trkpt lat="44.32211" lon="4.48478">
        <ele>359.429</ele>
        <time>2015-07-29T00:45:46Z</time>
      </trkpt>
      <trkpt lat="44.32174" lon="4.48553">
        <ele>359.721</ele>
        <time>2015-07-29T00:46:06Z</time>
      </trkpt>
      <trkpt lat="44.32122" lon="4.48597">
        <ele>359.508</ele>
        <time>2015-07-29T00:46:26Z</time>
      </trkpt>
      <trkpt lat="44.32095" lon="4.48709">
        <ele>355.09</ele>
        <time>2015-07-29T00:46:46Z</time>
      </trkpt>
      <trkpt lat="44.32039" lon="4.48812">
        <ele>355.844</ele>
        <time>2015-07-29T00:47:06Z</time>
      </trkpt>
      <trkpt lat="44.32014" lon="4.48884">
        <ele>358.481</ele>
        <time>2015-07-29T00:47:26Z</time>
      </trkpt>
      <trkpt lat="44.32033" lon="4.48988">
        <ele>359.654</ele>
        <time>2015-07-29T00:47:46Z</time>
      </trkpt>
      <trkpt lat="44.31988" lon="4.49096">
        <ele>359.815</ele>
        <time>2015-07-29T00:48:06Z</time>
      </trkpt>
      <trkpt lat="44.3197" lon="4.4912">
        <ele>358.868</ele>
        <time>2015-07-29T00:48:26Z</time>
      </trkpt>
      <trkpt lat="44.31948" lon="4.49191">
        <ele>355.324</ele>
        <time>2015-07-29T00:48:46Z</time>
      </trkpt>
      <trkpt lat="44.31948" lon="4.49252">
        <ele>352.938</ele>
        <time>2015-07-29T00:49:06Z</time>
      </trkpt>
      <trkpt lat="44.31929" lon="4.49343">
        <ele>349.984</ele>
        <time>2015-07-29T00:49:26Z</time>
      </trkpt>
      <trkpt lat="44.31944" lon="4.49427">
        <ele>347.407</ele>
        <time>2015-07-29T00:49:46Z</time>
      </trkpt>
      <trkpt lat="44.3199" lon="4.49532">
        <ele>345.317</ele>
        <time>2015-07-29T00:50:06Z</time>
      </trkpt>
      <trkpt lat="44.31994" lon="4.49591">
        <ele>346.408</ele>
        <time>2015-07-29T00:50:26Z</time>
      </trkpt>
      <trkpt lat="44.31978" lon="4.49665">
        <ele>345.364</ele>
        <time>2015-07-29T00:50:46Z</time>
      </trkpt>
      <trkpt lat="44.31985" lon="4.49698">
        <ele>342.218</ele>
        <time>2015-07-29T00:51:06Z</time>
      </trkpt>
      <trkpt lat="44.31998" lon="4.49719">
        <ele>342.175</ele>
        <time>2015-07-29T00:51:26Z</time>
      </trkpt>
      <trkpt lat="44.32056" lon="4.49741">
        <ele>338.768</ele>
        <time>2015-07-29T00:51:46Z</time>
      </trkpt>
      <trkpt lat="44.32072" lon="4.49756">
        <ele>337.759</ele>
        <time>2015-07-29T00:52:06Z</time>
      </trkpt>
      <trkpt lat="44.321" lon="4.49814">
        <ele>333.592</ele>
        <time>2015-07-29T00:52:26Z</time>
      </trkpt>
      <trkpt lat="44.32122" lon="4.49841">
        <ele>334.558</ele>
        <time>2015-07-29T00:52:46Z</time>
      </trkpt>
      <trkpt lat="44.32099" lon="4.4989">
        <ele>333.882</ele>
        <time>2015-07-29T00:53:06Z</time>
      </trkpt>
      <trkpt lat="44.32049" lon="4.49922">
        <ele>332.695</ele>
        <time>2015-07-29T00:53:26Z</time>
      </trkpt>
      <trkpt lat="44.31997" lon="4.49926">
        <ele>328.849</ele>
        <time>2015-07-29T00:53:46Z</time>
      </trkpt>
      <trkpt lat="44.31903" lon="4.49956">
        <ele>325.523</ele>
        <time>2015-07-29T00:54:06Z</time>
      </trkpt>
      <trkpt lat="44.31863" lon="4.49945">
        <ele>321.208</ele>
        <time>2015-07-29T00:54:26Z</time>
      </trkpt>
      <trkpt lat="44.31785" lon="4.49944">
        <ele>319.265</ele>
        <time>2015-07-29T00:54:46Z</time>
      </trkpt>
      <trkpt lat="44.31719" lon="4.49976">
        <ele>319.119</ele>
        <time>2015-07-29T00:55:06Z</time>
      </trkpt>
      <trkpt lat="44.31697" lon="4.49999">
        <ele>318.376</ele>
        <time>2015-07-29T00:55:26Z</time>
      </trkpt>
      <trkpt lat="44.31694" lon="4.50082">
        <ele>322.849</ele>
        <time>2015-07-29T00:55:46Z</time>
      </trkpt>
      <trkpt lat="44.31684" lon="4.50079">
        <ele>321.83</ele>
        <time>2015-07-29T00:56:06Z</time>
      </trkpt>
      <trkpt lat="44.31645" lon="4.50045">
        <ele>314.813</ele>
        <time>2015-07-29T00:56:26Z</time>
      </trkpt>
      <trkpt lat="44.31616" lon="4.50044">
        <ele>313.229</ele>
        <time>2015-07-29T00:56:46Z</time>
      </trkpt>
      <trkpt lat="44.31583" lon="4.50068">
        <ele>313.683</ele>
        <time>2015-07-29T00:57:06Z</time>
      </trkpt>
      <trkpt lat="44.31531" lon="4.50088">
        <ele>314.821</ele>
        <time>2015-07-29T00:57:26Z</time>
      </trkpt>
      <trkpt lat="44.31469" lon="4.50087">
        <ele>311.441</ele>
        <time>2015-07-29T00:57:46Z</time>
      </trkpt>
      <trkpt lat="44.31428" lon="4.50119">
        <ele>315.205</ele>
        <time>2015-07-29T00:58:06Z</time>
      </trkpt>
      <trkpt lat="44.31411" lon="4.5017">
        <ele>316.708</ele>
        <time>2015-07-29T00:58:26Z</time>
      </trkpt>
      <trkpt lat="44.31376" lon="4.50224">
        <ele>315.098</ele>
        <time>2015-07-29T00:58:46Z</time>
      </trkpt>
      <trkpt lat="44.31383" lon="4.50348">
        <ele>312.852</ele>
        <time>2015-07-29T00:59:06Z</time>
      </trkpt>
      <trkpt lat="44.31349" lon="4.50392">
        <ele>310.579</ele>
        <time>2015-07-29T00:59:26Z</time>
      </trkpt>
      <trkpt lat="44.31336" lon="4.50438">
        <ele>312.352</ele>
        <time>2015-07-29T00:59:46Z</time>
      </trkpt>
      <trkpt lat="44.31347" lon="4.50513">
        <ele>315.523</ele>
        <time>2015-07-29T01:00:06Z</time>
      </trkpt>
      <trkpt lat="44.31313" lon="4.5055">
        <ele>313.956</ele>
        <time>2015-07-29T01:00:26Z</time>
      </trkpt>
      <trkpt lat="44.31286" lon="4.50671">
        <ele>313.492</ele>
        <time>2015-07-29T01:00:46Z</time>
      </trkpt>
      <trkpt lat="44.31289" lon="4.50837">
        <ele>309.456</ele>
        <time>2015-07-29T01:01:06Z</time>
      </trkpt>
      <trkpt lat="44.31225" lon="4.50986">
        <ele>303.628</ele>
        <time>2015-07-29T01:01:26Z</time>
      </trkpt>
      <trkpt lat="44.31212" lon="4.51045">
        <ele>302.489</ele>
        <time>2015-07-29T01:01:46Z</time>
      </trkpt>
      <trkpt lat="44.31164" lon="4.51069">
        <ele>299.917</ele>
        <time>2015-07-29T01:02:06Z</time>
      </trkpt>
      <trkpt lat="44.3113" lon="4.51113">
        <ele>299.408</ele>
        <time>2015-07-29T01:02:26Z</time>
      </trkpt>
      <trkpt lat="44.31101" lon="4.51137">
        <ele>297.638</ele>
        <time>2015-07-29T01:02:46Z</time>
      </trkpt>
      <trkpt lat="44.31087" lon="4.51175">
        <ele>296.972</ele>
        <time>2015-07-29T01:03:06Z</time>
      </trkpt>
      <trkpt lat="44.31061" lon="4.51209">
        <ele>294.569</ele>
        <time>2015-07-29T01:03:26Z</time>
      </trkpt>
      <trkpt lat="44.31041" lon="4.51271">
        <ele>294.072</ele>
        <time>2015-07-29T01:03:46Z</time>
      </trkpt>
      <trkpt lat="44.31051" lon="4.51316">
        <ele>293.083</ele>
        <time>2015-07-29T01:04:06Z</time>
      </trkpt>
      <trkpt lat="44.31098" lon="4.51356">
        <ele>291.066</ele>
        <time>2015-07-29T01:04:26Z</time>
      </trkpt>
      <trkpt lat="44.31096" lon="4.51437">
        <ele>290.292</ele>
        <time>2015-07-29T01:04:46Z</time>
      </trkpt>
      <trkpt lat="44.31111" lon="4.51512">
        <ele>292.476</ele>
        <time>2015-07-29T01:05:06Z</time>
      </trkpt>
      <trkpt lat="44.31244" lon="4.51665">
        <ele>295.933</ele>
        <time>2015-07-29T01:05:26Z</time>
      </trkpt>
      <trkpt lat="44.31242" lon="4.51858">
        <ele>297.723</ele>
        <time>2015-07-29T01:05:46Z</time>
      </trkpt>
      <trkpt lat="44.31249" lon="4.51926">
        <ele>295.015</ele>
        <time>2015-07-29T01:06:06Z</time>
      </trkpt>
      <trkpt lat="44.31278" lon="4.52006">
        <ele>294.608</ele>
        <time>2015-07-29T01:06:26Z</time>
      </trkpt>
      <trkpt lat="44.31319" lon="4.52066">
        <ele>291.539</ele>
        <time>2015-07-29T01:06:46Z</time>
      </trkpt>
      <trkpt lat="44.31389" lon="4.52144">
        <ele>290.043</ele>
        <time>2015-07-29T01:07:06Z</time>
      </trkpt>
      <trkpt lat="44.31398" lon="4.52179">
        <ele>289.94</ele>
        <time>2015-07-29T01:07:26Z</time>
      </trkpt>
      <trkpt lat="44.31372" lon="4.52286">
        <ele>289.723</ele>
        <time>2015-07-29T01:07:46Z</time>
      </trkpt>
      <trkpt lat="44.31412" lon="4.52373">
        <ele>286.444</ele>
        <time>2015-07-29T01:08:06Z</time>
      </trkpt>
      <trkpt lat="44.3143" lon="4.52438">
        <ele>286.537</ele>
        <time>2015-07-29T01:08:26Z</time>
      </trkpt>
      <trkpt lat="44.31506" lon="4.52645">
        <ele>283.213</ele>
        <time>2015-07-29T01:08:46Z</time>
      </trkpt>
      <trkpt lat="44.31515" lon="4.52762">
        <ele>281.147</ele>
        <time>2015-07-29T01:09:06Z</time>
      </trkpt>
      <trkpt lat="44.31532" lon="4.52882">
        <ele>274.422</ele>
        <time>2015-07-29T01:09:26Z</time>
      </trkpt>
      <trkpt lat="44.31522" lon="4.5294">
        <ele>273.662</ele>
        <time>2015-07-29T01:09:46Z</time>
      </trkpt>
      <trkpt lat="44.31478" lon="4.53061">
        <ele>269.708</ele>
        <time>2015-07-29T01:10:06Z</time>
      </trkpt>
      <trkpt lat="44.31491" lon="4.53061">
        <ele>270.308</ele>
        <time>2015-07-29T01:10:26Z</time>
      </trkpt>
      <trkpt lat="44.31478" lon="4.53095">
        <ele>266.238</ele>
        <time>2015-07-29T01:10:46Z</time>
      </trkpt>
      <trkpt lat="44.31458" lon="4.53127">
        <ele>262.952</ele>
        <time>2015-07-29T01:11:06Z</time>
      </trkpt>
      <trkpt lat="44.31441" lon="4.53174">
        <ele>261.629</ele>
        <time>2015-07-29T01:11:26Z</time>
      </trkpt>
      <trkpt lat="44.31432" lon="4.53219">
        <ele>259.232</ele>
        <time>2015-07-29T01:11:46Z</time>
      </trkpt>
      <trkpt lat="44.31393" lon="4.5333">
        <ele>257.183</ele>
        <time>2015-07-29T01:12:06Z</time>
      </trkpt>
      <trkpt lat="44.31384" lon="4.53464">
        <ele>255.386</ele>
        <time>2015-07-29T01:12:26Z</time>
      </trkpt>
      <trkpt lat="44.31365" lon="4.53502">
        <ele>250.432</ele>
        <time>2015-07-29T01:12:46Z</time>
      </trkpt>
      <trkpt lat="44.31352" lon="4.53521">
        <ele>248.116</ele>
        <time>2015-07-29T01:13:06Z</time>
      </trkpt>
      <trkpt lat="44.31352" lon="4.53564">
        <ele>246.885</ele>
        <time>2015-07-29T01:13:26Z</time>
      </trkpt>
      <trkpt lat="44.31342" lon="4.53624">
        <ele>242.489</ele>
        <time>2015-07-29T01:13:46Z</time>
      </trkpt>
      <trkpt lat="44.31348" lon="4.5368">
        <ele>239.817</ele>
        <time>2015-07-29T01:14:06Z</time>
      </trkpt>
      <trkpt lat="44.31392" lon="4.53782">
        <ele>241.208</ele>
        <time>2015-07-29T01:14:26Z</time>
      </trkpt>
      <trkpt lat="44.31447" lon="4.53844">
        <ele>242.464</ele>
        <time>2015-07-29T01:14:46Z</time>
      </trkpt>
      <trkpt lat="44.31484" lon="4.5387">
        <ele>244.138</ele>
        <time>2015-07-29T01:15:06Z</time>
      </trkpt>
      <trkpt lat="44.31513" lon="4.53929">
        <ele>248.215</ele>
        <time>2015-07-29T01:15:26Z</time>
      </trkpt>
      <trkpt lat="44.31519" lon="4.53955">
        <ele>248.698</ele>
        <time>2015-07-29T01:15:46Z</time>
      </trkpt>
      <trkpt lat="44.31491" lon="4.54129">
        <ele>254.799</ele>
        <time>2015-07-29T01:16:06Z</time>
      </trkpt>
      <trkpt lat="44.31493" lon="4.54215">
        <ele>253.852</ele>
        <time>2015-07-29T01:16:26Z</time>
      </trkpt>
      <trkpt lat="44.31433" lon="4.54245">
        <ele>244.178</ele>
        <time>2015-07-29T01:16:46Z</time>
      </trkpt>
      <trkpt lat="44.31377" lon="4.54317">
        <ele>241.332</ele>
        <time>2015-07-29T01:17:06Z</time>
      </trkpt>
      <trkpt lat="44.31342" lon="4.54361">
        <ele>245.364</ele>
        <time>2015-07-29T01:17:26Z</time>
      </trkpt>
      <trkpt lat="44.31293" lon="4.54387">
        <ele>246.406</ele>
        <time>2015-07-29T01:17:46Z</time>
      </trkpt>
      <trkpt lat="44.31243" lon="4.54472">
        <ele>240.516</ele>
        <time>2015-07-29T01:18:06Z</time>
      </trkpt>
      <trkpt lat="44.31196" lon="4.54521">
        <ele>236.508</ele>
        <time>2015-07-29T01:18:26Z</time>
      </trkpt>
      <trkpt lat="44.31147" lon="4.54595">
        <ele>223.862</ele>
        <time>2015-07-29T01:18:46Z</time>
      </trkpt>
      <trkpt lat="44.31068" lon="4.54661">
        <ele>209.876</ele>
        <time>2015-07-29T01:19:06Z</time>
      </trkpt>
      <trkpt lat="44.31048" lon="4.54702">
        <ele>202.093</ele>
        <time>2015-07-29T01:19:26Z</time>
      </trkpt>
      <trkpt lat="44.31041" lon="4.54729">
        <ele>199.136</ele>
        <time>2015-07-29T01:19:46Z</time>
      </trkpt>
      <trkpt lat="44.31024" lon="4.54758">
        <ele>197.557</ele>
        <time>2015-07-29T01:20:06Z</time>
      </trkpt>
      <trkpt lat="44.31001" lon="4.54849">
        <ele>187.66</ele>
        <time>2015-07-29T01:20:26Z</time>
      </trkpt>
      <trkpt lat="44.30985" lon="4.54884">
        <ele>184.356</ele>
        <time>2015-07-29T01:20:46Z</time>
      </trkpt>
      <trkpt lat="44.30946" lon="4.54939">
        <ele>177.07</ele>
        <time>2015-07-29T01:21:06Z</time>
      </trkpt>
      <trkpt lat="44.30907" lon="4.54972">
        <ele>171.731</ele>
        <time>2015-07-29T01:21:26Z</time>
      </trkpt>
      <trkpt lat="44.30872" lon="4.54991">
        <ele>166.561</ele>
        <time>2015-07-29T01:23:26Z</time>
      </trkpt>
      <trkpt lat="44.30849" lon="4.55016">
        <ele>162.507</ele>
        <time>2015-07-29T01:23:46Z</time>
      </trkpt>
      <trkpt lat="44.30852" lon="4.55083">
        <ele>160.008</ele>
        <time>2015-07-29T01:24:06Z</time>
      </trkpt>
      <trkpt lat="44.30836" lon="4.55086">
        <ele>159.979</ele>
        <time>2015-07-29T01:24:26Z</time>
      </trkpt>
      <trkpt lat="44.30842" lon="4.55125">
        <ele>157.733</ele>
        <time>2015-07-29T01:24:46Z</time>
      </trkpt>
      <trkpt lat="44.30834" lon="4.55175">
        <ele>151.18</ele>
        <time>2015-07-29T01:25:06Z</time>
      </trkpt>
      <trkpt lat="44.30763" lon="4.55257">
        <ele>140.843</ele>
        <time>2015-07-29T01:25:26Z</time>
      </trkpt>
      <trkpt lat="44.30735" lon="4.55267">
        <ele>142.684</ele>
        <time>2015-07-29T01:25:46Z</time>
      </trkpt>
      <trkpt lat="44.30723" lon="4.55285">
        <ele>139.297</ele>
        <time>2015-07-29T01:26:06Z</time>
      </trkpt>
      <trkpt lat="44.30693" lon="4.55318">
        <ele>133.063</ele>
        <time>2015-07-29T01:26:26Z</time>
      </trkpt>
      <trkpt lat="44.30687" lon="4.55331">
        <ele>129.947</ele>
        <time>2015-07-29T01:26:46Z</time>
      </trkpt>
      <trkpt lat="44.30679" lon="4.55331">
        <ele>131.323</ele>
        <time>2015-07-29T01:27:06Z</time>
      </trkpt>
      <trkpt lat="44.30649" lon="4.55358">
        <ele>124.083</ele>
        <time>2015-07-29T01:27:26Z</time>
      </trkpt>
      <trkpt lat="44.30637" lon="4.55391">
        <ele>114.411</ele>
        <time>2015-07-29T01:27:46Z</time>
      </trkpt>
      <trkpt lat="44.30621" lon="4.55391">
        <ele>116.508</ele>
        <time>2015-07-29T01:28:06Z</time>
      </trkpt>
      <trkpt lat="44.30613" lon="4.55421">
        <ele>110.758</ele>
        <time>2015-07-29T01:28:26Z</time>
      </trkpt>
      <trkpt lat="44.30595" lon="4.55416">
        <ele>113.772</ele>
        <time>2015-07-29T01:28:46Z</time>
      </trkpt>
      <trkpt lat="44.30575" lon="4.55422">
        <ele>111.199</ele>
        <time>2015-07-29T01:29:06Z</time>
      </trkpt>
      <trkpt lat="44.30561" lon="4.55449">
        <ele>104.452</ele>
        <time>2015-07-29T01:29:26Z</time>
      </trkpt>
      <trkpt lat="44.30525" lon="4.55466">
        <ele>98.643</ele>
        <time>2015-07-29T01:29:46Z</time>
      </trkpt>
      <trkpt lat="44.30518" lon="4.55482">
        <ele>95.336</ele>
        <time>2015-07-29T01:30:06Z</time>
      </trkpt>
      <trkpt lat="44.30473" lon="4.55511">
        <ele>93.292</ele>
        <time>2015-07-29T01:30:26Z</time>
      </trkpt>
      <trkpt lat="44.30462" lon="4.55535">
        <ele>92.016</ele>
        <time>2015-07-29T01:30:46Z</time>
      </trkpt>
      <trkpt lat="44.30428" lon="4.55524">
        <ele>95.152</ele>
        <time>2015-07-29T01:31:06Z</time>
      </trkpt>
      <trkpt lat="44.30415" lon="4.55573">
        <ele>92.953</ele>
        <time>2015-07-29T01:31:26Z</time>
      </trkpt>
      <trkpt lat="44.30392" lon="4.55573">
        <ele>94.208</ele>
        <time>2015-07-29T01:31:46Z</time>
      </trkpt>
      <trkpt lat="44.30402" lon="4.55615">
        <ele>87.608</ele>
        <time>2015-07-29T01:32:06Z</time>
      </trkpt>
      <trkpt lat="44.3035" lon="4.5566">
        <ele>90.121</ele>
        <time>2015-07-29T01:32:26Z</time>
      </trkpt>
      <trkpt lat="44.30303" lon="4.5568">
        <ele>90.215</ele>
        <time>2015-07-29T01:32:46Z</time>
      </trkpt>
      <trkpt lat="44.30295" lon="4.55656">
        <ele>93.632</ele>
        <time>2015-07-29T01:33:46Z</time>
      </trkpt>
      <trkpt lat="44.30276" lon="4.55678">
        <ele>91.385</ele>
        <time>2015-07-29T01:34:06Z</time>
      </trkpt>
      <trkpt lat="44.30269" lon="4.55669">
        <ele>92.486</ele>
        <time>2015-07-29T01:34:26Z</time>
      </trkpt>
      <trkpt lat="44.30258" lon="4.55676">
        <ele>91.449</ele>
        <time>2015-07-29T01:34:46Z</time>
      </trkpt>
      <trkpt lat="44.30228" lon="4.55719">
        <ele>86.255</ele>
        <time>2015-07-29T01:35:06Z</time>
      </trkpt>
      <trkpt lat="44.30225" lon="4.55748">
        <ele>82.369</ele>
        <time>2015-07-29T01:35:26Z</time>
      </trkpt>
      <trkpt lat="44.30203" lon="4.55788">
        <ele>83.613</ele>
        <time>2015-07-29T01:35:46Z</time>
      </trkpt>
      <trkpt lat="44.30191" lon="4.55796">
        <ele>87.043</ele>
        <time>2015-07-29T01:36:06Z</time>
      </trkpt>
      <trkpt lat="44.30141" lon="4.55881">
        <ele>95.707</ele>
        <time>2015-07-29T01:36:26Z</time>
      </trkpt>
      <trkpt lat="44.30037" lon="4.56155">
        <ele>81.608</ele>
        <time>2015-07-29T01:36:46Z</time>
      </trkpt>
      <trkpt lat="44.30019" lon="4.56316">
        <ele>74.597</ele>
        <time>2015-07-29T01:37:06Z</time>
      </trkpt>
      <trkpt lat="44.29951" lon="4.56572">
        <ele>58.471</ele>
        <time>2015-07-29T01:37:26Z</time>
      </trkpt>
      <trkpt lat="44.29931" lon="4.56625">
        <ele>59.558</ele>
        <time>2015-07-29T01:37:46Z</time>
      </trkpt>
      <trkpt lat="44.29911" lon="4.56648">
        <ele>57.691</ele>
        <time>2015-07-29T01:38:06Z</time>
      </trkpt>
      <trkpt lat="44.29898" lon="4.56639">
        <ele>56.382</ele>
        <time>2015-07-29T01:38:26Z</time>
      </trkpt>
      <trkpt lat="44.29913" lon="4.56651">
        <ele>56.6</ele>
      </trkpt>
      <trkpt lat="44.29913" lon="4.56651">
        <ele>56.6</ele>
      </trkpt>
      <trkpt lat="44.29928" lon="4.56659">
        <ele>55.3</ele>
      </trkpt>
      <trkpt lat="44.29943" lon="4.56667">
        <ele>53.4</ele>
      </trkpt>
      <trkpt lat="44.30028" lon="4.56707">
        <ele>49.7</ele>
      </trkpt>
      <trkpt lat="44.30091" lon="4.56738">
        <ele>54.7</ele>
      </trkpt>
      <trkpt lat="44.30096" lon="4.5675">
        <ele>55.3</ele>
      </trkpt>
      <trkpt lat="44.30071" lon="4.56838">
        <ele>53.1</ele>
      </trkpt>
      <trkpt lat="44.30056" lon="4.56904">
        <ele>51.5</ele>
      </trkpt>
      <trkpt lat="44.30048" lon="4.56952">
        <ele>50.8</ele>
      </trkpt>
      <trkpt lat="44.30046" lon="4.56961">
        <ele>50.7</ele>
      </trkpt>
      <trkpt lat="44.30044" lon="4.56967">
        <ele>50.6</ele>
      </trkpt>
      <trkpt lat="44.30041" lon="4.56981">
        <ele>50.5</ele>
      </trkpt>
      <trkpt lat="44.30031" lon="4.57032">
        <ele>51.8</ele>
      </trkpt>
      <trkpt lat="44.3003" lon="4.57051">
        <ele>52.7</ele>
      </trkpt>
      <trkpt lat="44.30031" lon="4.57071">
        <ele>53.7</ele>
      </trkpt>
      <trkpt lat="44.30036" lon="4.57086">
        <ele>54.4</ele>
      </trkpt>
      <trkpt lat="44.30051" lon="4.57128">
        <ele>55.1</ele>
      </trkpt>
      <trkpt lat="44.30053" lon="4.57132">
        <ele>55.2</ele>
      </trkpt>
      <trkpt lat="44.30086" lon="4.57243">
        <ele>57.4</ele>
      </trkpt>
      <trkpt lat="44.30091" lon="4.57255">
        <ele>57.8</ele>
      </trkpt>
      <trkpt lat="44.30091" lon="4.57259">
        <ele>57.6</ele>
      </trkpt>
      <trkpt lat="44.30098" lon="4.57269">
        <ele>57.9</ele>
      </trkpt>
      <trkpt lat="44.30104" lon="4.57278">
        <ele>58.2</ele>
      </trkpt>
      <trkpt lat="44.3011" lon="4.5728">
        <ele>58.8</ele>
      </trkpt>
      <trkpt lat="44.30119" lon="4.57278">
        <ele>59.8</ele>
      </trkpt>
      <trkpt lat="44.30124" lon="4.57275">
        <ele>60.7</ele>
      </trkpt>
      <trkpt lat="44.30127" lon="4.57264">
        <ele>61.9</ele>
      </trkpt>
      <trkpt lat="44.30132" lon="4.57285">
        <ele>61</ele>
      </trkpt>
      <trkpt lat="44.30155" lon="4.57374">
        <ele>58.5</ele>
      </trkpt>
      <trkpt lat="44.30165" lon="4.57415">
        <ele>58</ele>
      </trkpt>
      <trkpt lat="44.30171" lon="4.57437">
        <ele>57.9</ele>
      </trkpt>
      <trkpt lat="44.30172" lon="4.57446">
        <ele>57.7</ele>
      </trkpt>
      <trkpt lat="44.30193" lon="4.57526">
        <ele>56.9</ele>
      </trkpt>
      <trkpt lat="44.3021" lon="4.57586">
        <ele>56.9</ele>
      </trkpt>
      <trkpt lat="44.30213" lon="4.57603">
        <ele>58.3</ele>
      </trkpt>
      <trkpt lat="44.30214" lon="4.57617">
        <ele>59.3</ele>
      </trkpt>
      <trkpt lat="44.30212" lon="4.57636">
        <ele>60.2</ele>
      </trkpt>
      <trkpt lat="44.30207" lon="4.5765">
        <ele>60.3</ele>
      </trkpt>
      <trkpt lat="44.3018" lon="4.57716">
        <ele>58.3</ele>
      </trkpt>
      <trkpt lat="44.30172" lon="4.57744">
        <ele>57.9</ele>
      </trkpt>
      <trkpt lat="44.30167" lon="4.57768">
        <ele>57.8</ele>
      </trkpt>
      <trkpt lat="44.30167" lon="4.57795">
        <ele>58.6</ele>
      </trkpt>
      <trkpt lat="44.30168" lon="4.57822">
        <ele>59.9</ele>
      </trkpt>
      <trkpt lat="44.30171" lon="4.57851">
        <ele>60.8</ele>
      </trkpt>
      <trkpt lat="44.30176" lon="4.5785">
        <ele>61.6</ele>
      </trkpt>
      <trkpt lat="44.30186" lon="4.57848">
        <ele>63.6</ele>
      </trkpt>
      <trkpt lat="44.3019" lon="4.57845">
        <ele>64.3</ele>
      </trkpt>
      <trkpt lat="44.30197" lon="4.57837">
        <ele>65.7</ele>
      </trkpt>
      <trkpt lat="44.30204" lon="4.57825">
        <ele>67</ele>
      </trkpt>
      <trkpt lat="44.30219" lon="4.57784">
        <ele>69.5</ele>
      </trkpt>
      <trkpt lat="44.30228" lon="4.57754">
        <ele>71</ele>
      </trkpt>
      <trkpt lat="44.30241" lon="4.57712">
        <ele>71.2</ele>
      </trkpt>
      <trkpt lat="44.30268" lon="4.57668">
        <ele>72.6</ele>
      </trkpt>
      <trkpt lat="44.30286" lon="4.57653">
        <ele>73.9</ele>
      </trkpt>
      <trkpt lat="44.30297" lon="4.57648">
        <ele>75.1</ele>
      </trkpt>
      <trkpt lat="44.30307" lon="4.57645">
        <ele>76.4</ele>
      </trkpt>
      <trkpt lat="44.30324" lon="4.57637">
        <ele>78.3</ele>
      </trkpt>
      <trkpt lat="44.30334" lon="4.57629">
        <ele>79.3</ele>
      </trkpt>
      <trkpt lat="44.30345" lon="4.57623">
        <ele>79.9</ele>
      </trkpt>
      <trkpt lat="44.30359" lon="4.57625">
        <ele>81.1</ele>
      </trkpt>
      <trkpt lat="44.30376" lon="4.57634">
        <ele>82.9</ele>
      </trkpt>
      <trkpt lat="44.30385" lon="4.57641">
        <ele>83.8</ele>
      </trkpt>
      <trkpt lat="44.30394" lon="4.57656">
        <ele>84.7</ele>
      </trkpt>
      <trkpt lat="44.30403" lon="4.57682">
        <ele>86.6</ele>
      </trkpt>
      <trkpt lat="44.30408" lon="4.5769">
        <ele>87.4</ele>
      </trkpt>
      <trkpt lat="44.30416" lon="4.57695">
        <ele>88.4</ele>
      </trkpt>
      <trkpt lat="44.30437" lon="4.57703">
        <ele>89.8</ele>
      </trkpt>
      <trkpt lat="44.30445" lon="4.57709">
        <ele>90.8</ele>
      </trkpt>
      <trkpt lat="44.30449" lon="4.57717">
        <ele>91.7</ele>
      </trkpt>
      <trkpt lat="44.30448" lon="4.57724">
        <ele>92.4</ele>
      </trkpt>
      <trkpt lat="44.30443" lon="4.57744">
        <ele>94</ele>
      </trkpt>
      <trkpt lat="44.30441" lon="4.57765">
        <ele>95.2</ele>
      </trkpt>
      <trkpt lat="44.30442" lon="4.57779">
        <ele>95.9</ele>
      </trkpt>
      <trkpt lat="44.30445" lon="4.57784">
        <ele>96.3</ele>
      </trkpt>
      <trkpt lat="44.30449" lon="4.5779">
        <ele>96.8</ele>
      </trkpt>
      <trkpt lat="44.30475" lon="4.57824">
        <ele>100.1</ele>
      </trkpt>
      <trkpt lat="44.30493" lon="4.57839">
        <ele>101.4</ele>
      </trkpt>
      <trkpt lat="44.30518" lon="4.57848">
        <ele>102.5</ele>
      </trkpt>
      <trkpt lat="44.30546" lon="4.57863">
        <ele>103.7</ele>
      </trkpt>
      <trkpt lat="44.30729" lon="4.57882">
        <ele>109.2</ele>
      </trkpt>
      <trkpt lat="44.3077" lon="4.57889">
        <ele>110</ele>
      </trkpt>
      <trkpt lat="44.30785" lon="4.57894">
        <ele>110.3</ele>
      </trkpt>
      <trkpt lat="44.30798" lon="4.57905">
        <ele>110.8</ele>
      </trkpt>
      <trkpt lat="44.30867" lon="4.5798">
        <ele>117.3</ele>
      </trkpt>
      <trkpt lat="44.30885" lon="4.57989">
        <ele>119.1</ele>
      </trkpt>
      <trkpt lat="44.3091" lon="4.57987">
        <ele>120.8</ele>
      </trkpt>
      <trkpt lat="44.3093" lon="4.57992">
        <ele>122.3</ele>
      </trkpt>
      <trkpt lat="44.30973" lon="4.5801">
        <ele>125.7</ele>
      </trkpt>
      <trkpt lat="44.31014" lon="4.58036">
        <ele>129.9</ele>
      </trkpt>
      <trkpt lat="44.31036" lon="4.58048">
        <ele>132.5</ele>
      </trkpt>
      <trkpt lat="44.31089" lon="4.58064">
        <ele>138.6</ele>
      </trkpt>
      <trkpt lat="44.31091" lon="4.58068">
        <ele>139.2</ele>
      </trkpt>
      <trkpt lat="44.31092" lon="4.58074">
        <ele>139.9</ele>
      </trkpt>
      <trkpt lat="44.31091" lon="4.58098">
        <ele>139.9</ele>
      </trkpt>
      <trkpt lat="44.31093" lon="4.58104">
        <ele>139.8</ele>
      </trkpt>
      <trkpt lat="44.31097" lon="4.58107">
        <ele>140</ele>
      </trkpt>
      <trkpt lat="44.31116" lon="4.58111">
        <ele>141.3</ele>
      </trkpt>
      <trkpt lat="44.31121" lon="4.58111">
        <ele>141.7</ele>
      </trkpt>
      <trkpt lat="44.31125" lon="4.58108">
        <ele>142.2</ele>
      </trkpt>
      <trkpt lat="44.31129" lon="4.58104">
        <ele>142.7</ele>
      </trkpt>
      <trkpt lat="44.31134" lon="4.58091">
        <ele>143.8</ele>
      </trkpt>
      <trkpt lat="44.31148" lon="4.58067">
        <ele>144</ele>
      </trkpt>
      <trkpt lat="44.31163" lon="4.58045">
        <ele>143.4</ele>
      </trkpt>
      <trkpt lat="44.3117" lon="4.5804">
        <ele>143.7</ele>
      </trkpt>
      <trkpt lat="44.31178" lon="4.58037">
        <ele>144.3</ele>
      </trkpt>
      <trkpt lat="44.31245" lon="4.58033">
        <ele>150.8</ele>
      </trkpt>
      <trkpt lat="44.31275" lon="4.58033">
        <ele>154.6</ele>
      </trkpt>
      <trkpt lat="44.31294" lon="4.58077">
        <ele>160.4</ele>
      </trkpt>
      <trkpt lat="44.31302" lon="4.58077">
        <ele>161.5</ele>
      </trkpt>
      <trkpt lat="44.31305" lon="4.58136">
        <ele>158.2</ele>
      </trkpt>
      <trkpt lat="44.31344" lon="4.58211">
        <ele>154.7</ele>
      </trkpt>
      <trkpt lat="44.31373" lon="4.58286">
        <ele>151.1</ele>
      </trkpt>
      <trkpt lat="44.31391" lon="4.5835">
        <ele>149.1</ele>
      </trkpt>
      <trkpt lat="44.31433" lon="4.58437">
        <ele>144.7</ele>
      </trkpt>
      <trkpt lat="44.31439" lon="4.58455">
        <ele>142.5</ele>
      </trkpt>
      <trkpt lat="44.31444" lon="4.58469">
        <ele>140.7</ele>
      </trkpt>
      <trkpt lat="44.31473" lon="4.58498">
        <ele>137</ele>
      </trkpt>
      <trkpt lat="44.31488" lon="4.58532">
        <ele>133</ele>
      </trkpt>
      <trkpt lat="44.31509" lon="4.58574">
        <ele>128.5</ele>
      </trkpt>
      <trkpt lat="44.31525" lon="4.58612">
        <ele>126.3</ele>
      </trkpt>
      <trkpt lat="44.31533" lon="4.58624">
        <ele>125.6</ele>
      </trkpt>
      <trkpt lat="44.31564" lon="4.58644">
        <ele>124.4</ele>
      </trkpt>
      <trkpt lat="44.31606" lon="4.5865">
        <ele>124.6</ele>
      </trkpt>
      <trkpt lat="44.31624" lon="4.58653">
        <ele>124.9</ele>
      </trkpt>
      <trkpt lat="44.31634" lon="4.58666">
        <ele>123.9</ele>
      </trkpt>
      <trkpt lat="44.31647" lon="4.58704">
        <ele>119.3</ele>
      </trkpt>
      <trkpt lat="44.31672" lon="4.58736">
        <ele>115.2</ele>
      </trkpt>
      <trkpt lat="44.31687" lon="4.58777">
        <ele>111.2</ele>
      </trkpt>
      <trkpt lat="44.31703" lon="4.58819">
        <ele>108.7</ele>
      </trkpt>
      <trkpt lat="44.31726" lon="4.58841">
        <ele>109.1</ele>
      </trkpt>
      <trkpt lat="44.31735" lon="4.58858">
        <ele>109.6</ele>
      </trkpt>
      <trkpt lat="44.31738" lon="4.58879">
        <ele>109.7</ele>
      </trkpt>
      <trkpt lat="44.31731" lon="4.58916">
        <ele>108.3</ele>
      </trkpt>
      <trkpt lat="44.3173" lon="4.58937">
        <ele>109.3</ele>
      </trkpt>
      <trkpt lat="44.3172" lon="4.58955">
        <ele>109</ele>
      </trkpt>
      <trkpt lat="44.31707" lon="4.58973">
        <ele>108.6</ele>
      </trkpt>
      <trkpt lat="44.31697" lon="4.58997">
        <ele>109</ele>
      </trkpt>
      <trkpt lat="44.31698" lon="4.59016">
        <ele>109.9</ele>
      </trkpt>
      <trkpt lat="44.31718" lon="4.59063">
        <ele>112.5</ele>
      </trkpt>
      <trkpt lat="44.31724" lon="4.59078">
        <ele>113</ele>
      </trkpt>
      <trkpt lat="44.31733" lon="4.59146">
        <ele>109</ele>
      </trkpt>
      <trkpt lat="44.31753" lon="4.59239">
        <ele>102</ele>
      </trkpt>
      <trkpt lat="44.31756" lon="4.59312">
        <ele>97.5</ele>
      </trkpt>
      <trkpt lat="44.31757" lon="4.59402">
        <ele>93.6</ele>
      </trkpt>
      <trkpt lat="44.31759" lon="4.59469">
        <ele>90.3</ele>
      </trkpt>
      <trkpt lat="44.31764" lon="4.59496">
        <ele>88.8</ele>
      </trkpt>
      <trkpt lat="44.31782" lon="4.59535">
        <ele>87.4</ele>
      </trkpt>
      <trkpt lat="44.31809" lon="4.59606">
        <ele>89.7</ele>
      </trkpt>
      <trkpt lat="44.3183" lon="4.59663">
        <ele>96.5</ele>
      </trkpt>
      <trkpt lat="44.31842" lon="4.59693">
        <ele>99.2</ele>
      </trkpt>
      <trkpt lat="44.31846" lon="4.59714">
        <ele>100.9</ele>
      </trkpt>
      <trkpt lat="44.31844" lon="4.59736">
        <ele>103.1</ele>
      </trkpt>
      <trkpt lat="44.3183" lon="4.59755">
        <ele>105.7</ele>
      </trkpt>
      <trkpt lat="44.31807" lon="4.59789">
        <ele>110.3</ele>
      </trkpt>
      <trkpt lat="44.31808" lon="4.59803">
        <ele>111.6</ele>
      </trkpt>
      <trkpt lat="44.3182" lon="4.59818">
        <ele>112.3</ele>
      </trkpt>
      <trkpt lat="44.31842" lon="4.59824">
        <ele>111.9</ele>
      </trkpt>
      <trkpt lat="44.31865" lon="4.59835">
        <ele>112.5</ele>
      </trkpt>
      <trkpt lat="44.31953" lon="4.59894">
        <ele>114.7</ele>
      </trkpt>
      <trkpt lat="44.31969" lon="4.59906">
        <ele>114.9</ele>
      </trkpt>
      <trkpt lat="44.31974" lon="4.59919">
        <ele>116.2</ele>
      </trkpt>
      <trkpt lat="44.3197" lon="4.59943">
        <ele>120.3</ele>
      </trkpt>
      <trkpt lat="44.31971" lon="4.59958">
        <ele>122.5</ele>
      </trkpt>
      <trkpt lat="44.31978" lon="4.59972">
        <ele>124.1</ele>
      </trkpt>
      <trkpt lat="44.31999" lon="4.60005">
        <ele>127.1</ele>
      </trkpt>
      <trkpt lat="44.32024" lon="4.60057">
        <ele>132.3</ele>
      </trkpt>
      <trkpt lat="44.32034" lon="4.60094">
        <ele>136.5</ele>
      </trkpt>
      <trkpt lat="44.3205" lon="4.60139">
        <ele>141</ele>
      </trkpt>
      <trkpt lat="44.32055" lon="4.60169">
        <ele>145</ele>
      </trkpt>
      <trkpt lat="44.32063" lon="4.60186">
        <ele>145.9</ele>
      </trkpt>
      <trkpt lat="44.32154" lon="4.60311">
        <ele>154.8</ele>
      </trkpt>
      <trkpt lat="44.32163" lon="4.60364">
        <ele>160.4</ele>
      </trkpt>
      <trkpt lat="44.32196" lon="4.60385">
        <ele>158.2</ele>
      </trkpt>
      <trkpt lat="44.32217" lon="4.60415">
        <ele>159.5</ele>
      </trkpt>
      <trkpt lat="44.32227" lon="4.60434">
        <ele>160.6</ele>
      </trkpt>
      <trkpt lat="44.3226" lon="4.60468">
        <ele>162.3</ele>
      </trkpt>
      <trkpt lat="44.32286" lon="4.60488">
        <ele>162.8</ele>
      </trkpt>
      <trkpt lat="44.3231" lon="4.60518">
        <ele>163.6</ele>
      </trkpt>
      <trkpt lat="44.32348" lon="4.60563">
        <ele>164.5</ele>
      </trkpt>
      <trkpt lat="44.32373" lon="4.60575">
        <ele>164.2</ele>
      </trkpt>
      <trkpt lat="44.32403" lon="4.60588">
        <ele>163.7</ele>
      </trkpt>
      <trkpt lat="44.32438" lon="4.60608">
        <ele>162.1</ele>
      </trkpt>
      <trkpt lat="44.32496" lon="4.60629">
        <ele>159.5</ele>
      </trkpt>
      <trkpt lat="44.3254" lon="4.6064">
        <ele>159.1</ele>
      </trkpt>
      <trkpt lat="44.32581" lon="4.60651">
        <ele>160.2</ele>
      </trkpt>
      <trkpt lat="44.32593" lon="4.60665">
        <ele>162.2</ele>
      </trkpt>
      <trkpt lat="44.32596" lon="4.60663">
        <ele>161.7</ele>
      </trkpt>
      <trkpt lat="44.32602" lon="4.60664">
        <ele>161.6</ele>
      </trkpt>
      <trkpt lat="44.32631" lon="4.60677">
        <ele>160.8</ele>
      </trkpt>
      <trkpt lat="44.32688" lon="4.60705">
        <ele>160.2</ele>
      </trkpt>
      <trkpt lat="44.32702" lon="4.60709">
        <ele>160.3</ele>
      </trkpt>
      <trkpt lat="44.3272" lon="4.60715">
        <ele>160.7</ele>
      </trkpt>
      <trkpt lat="44.32777" lon="4.60725">
        <ele>162.4</ele>
      </trkpt>
      <trkpt lat="44.32791" lon="4.60721">
        <ele>162.6</ele>
      </trkpt>
      <trkpt lat="44.32807" lon="4.60714">
        <ele>162.3</ele>
      </trkpt>
      <trkpt lat="44.32818" lon="4.60715">
        <ele>162.7</ele>
      </trkpt>
      <trkpt lat="44.32836" lon="4.60717">
        <ele>163.2</ele>
      </trkpt>
      <trkpt lat="44.32855" lon="4.60715">
        <ele>162.1</ele>
      </trkpt>
      <trkpt lat="44.32874" lon="4.60717">
        <ele>161.4</ele>
      </trkpt>
      <trkpt lat="44.32891" lon="4.60726">
        <ele>161.7</ele>
      </trkpt>
      <trkpt lat="44.32902" lon="4.60738">
        <ele>162.9</ele>
      </trkpt>
      <trkpt lat="44.32916" lon="4.60768">
        <ele>164.7</ele>
      </trkpt>
      <trkpt lat="44.3293" lon="4.60798">
        <ele>164.2</ele>
      </trkpt>
      <trkpt lat="44.32939" lon="4.60808">
        <ele>163.9</ele>
      </trkpt>
      <trkpt lat="44.32948" lon="4.6081">
        <ele>163.3</ele>
      </trkpt>
      <trkpt lat="44.32969" lon="4.60809">
        <ele>161.2</ele>
      </trkpt>
      <trkpt lat="44.32984" lon="4.60811">
        <ele>159.9</ele>
      </trkpt>
      <trkpt lat="44.32998" lon="4.6082">
        <ele>160.1</ele>
      </trkpt>
      <trkpt lat="44.33018" lon="4.60837">
        <ele>161</ele>
      </trkpt>
      <trkpt lat="44.33035" lon="4.60864">
        <ele>162.2</ele>
      </trkpt>
      <trkpt lat="44.33049" lon="4.60888">
        <ele>164.1</ele>
      </trkpt>
      <trkpt lat="44.33049" lon="4.6088">
        <ele>163.2</ele>
      </trkpt>
      <trkpt lat="44.33066" lon="4.60875">
        <ele>162.2</ele>
      </trkpt>
      <trkpt lat="44.33097" lon="4.60891">
        <ele>163.2</ele>
      </trkpt>
      <trkpt lat="44.33105" lon="4.60894">
        <ele>163.3</ele>
      </trkpt>
      <trkpt lat="44.33154" lon="4.60891">
        <ele>161.1</ele>
      </trkpt>
      <trkpt lat="44.33186" lon="4.6091">
        <ele>161.9</ele>
      </trkpt>
      <trkpt lat="44.33194" lon="4.60929">
        <ele>163.5</ele>
      </trkpt>
      <trkpt lat="44.33202" lon="4.60946">
        <ele>165</ele>
      </trkpt>
      <trkpt lat="44.33212" lon="4.60939">
        <ele>163.9</ele>
      </trkpt>
      <trkpt lat="44.33229" lon="4.60937">
        <ele>162.9</ele>
      </trkpt>
      <trkpt lat="44.33247" lon="4.60931">
        <ele>161.4</ele>
      </trkpt>
      <trkpt lat="44.33254" lon="4.60924">
        <ele>160.2</ele>
      </trkpt>
      <trkpt lat="44.3326" lon="4.60914">
        <ele>158.7</ele>
      </trkpt>
      <trkpt lat="44.33267" lon="4.60893">
        <ele>155.4</ele>
      </trkpt>
      <trkpt lat="44.33278" lon="4.60877">
        <ele>153.2</ele>
      </trkpt>
      <trkpt lat="44.33301" lon="4.60859">
        <ele>150.6</ele>
      </trkpt>
      <trkpt lat="44.33325" lon="4.6085">
        <ele>149.5</ele>
      </trkpt>
      <trkpt lat="44.33343" lon="4.60843">
        <ele>147.9</ele>
      </trkpt>
      <trkpt lat="44.33353" lon="4.60835">
        <ele>146.1</ele>
      </trkpt>
      <trkpt lat="44.33361" lon="4.60823">
        <ele>144.4</ele>
      </trkpt>
      <trkpt lat="44.33373" lon="4.60817">
        <ele>143.3</ele>
      </trkpt>
      <trkpt lat="44.33389" lon="4.60809">
        <ele>142</ele>
      </trkpt>
      <trkpt lat="44.33396" lon="4.60798">
        <ele>141</ele>
      </trkpt>
      <trkpt lat="44.33417" lon="4.60757">
        <ele>138.3</ele>
      </trkpt>
      <trkpt lat="44.33432" lon="4.60735">
        <ele>138.1</ele>
      </trkpt>
      <trkpt lat="44.3346" lon="4.6071">
        <ele>138.3</ele>
      </trkpt>
      <trkpt lat="44.33472" lon="4.60697">
        <ele>138.3</ele>
      </trkpt>
      <trkpt lat="44.33482" lon="4.60675">
        <ele>137.9</ele>
      </trkpt>
      <trkpt lat="44.33499" lon="4.60646">
        <ele>137.7</ele>
      </trkpt>
      <trkpt lat="44.33519" lon="4.60664">
        <ele>138</ele>
      </trkpt>
      <trkpt lat="44.33583" lon="4.60698">
        <ele>138.4</ele>
      </trkpt>
      <trkpt lat="44.336" lon="4.60708">
        <ele>139</ele>
      </trkpt>
      <trkpt lat="44.33622" lon="4.60715">
        <ele>139.7</ele>
      </trkpt>
      <trkpt lat="44.33658" lon="4.60745">
        <ele>140.8</ele>
      </trkpt>
      <trkpt lat="44.33808" lon="4.60844">
        <ele>153</ele>
      </trkpt>
      <trkpt lat="44.33835" lon="4.60853">
        <ele>154.7</ele>
      </trkpt>
      <trkpt lat="44.33883" lon="4.60881">
        <ele>155.7</ele>
      </trkpt>
      <trkpt lat="44.33887" lon="4.60874">
        <ele>155.9</ele>
      </trkpt>
      <trkpt lat="44.33915" lon="4.6084">
        <ele>157.6</ele>
      </trkpt>
      <trkpt lat="44.33927" lon="4.60838">
        <ele>156.9</ele>
      </trkpt>
      <trkpt lat="44.33936" lon="4.60833">
        <ele>156.4</ele>
      </trkpt>
      <trkpt lat="44.33959" lon="4.60826">
        <ele>154.8</ele>
      </trkpt>
      <trkpt lat="44.34007" lon="4.60827">
        <ele>151.2</ele>
      </trkpt>
      <trkpt lat="44.3404" lon="4.60825">
        <ele>150.2</ele>
      </trkpt>
      <trkpt lat="44.34139" lon="4.60804">
        <ele>148.1</ele>
      </trkpt>
      <trkpt lat="44.34195" lon="4.60795">
        <ele>146.5</ele>
      </trkpt>
      <trkpt lat="44.34293" lon="4.60794">
        <ele>143.9</ele>
      </trkpt>
      <trkpt lat="44.34348" lon="4.60794">
        <ele>142.9</ele>
      </trkpt>
      <trkpt lat="44.34374" lon="4.60789">
        <ele>142.8</ele>
      </trkpt>
      <trkpt lat="44.34412" lon="4.60791">
        <ele>142.5</ele>
      </trkpt>
      <trkpt lat="44.34472" lon="4.60786">
        <ele>141.5</ele>
      </trkpt>
      <trkpt lat="44.34484" lon="4.6079">
        <ele>141.3</ele>
      </trkpt>
      <trkpt lat="44.34499" lon="4.60798">
        <ele>141</ele>
      </trkpt>
      <trkpt lat="44.34551" lon="4.6084">
        <ele>139.7</ele>
      </trkpt>
      <trkpt lat="44.34563" lon="4.60844">
        <ele>139.4</ele>
      </trkpt>
      <trkpt lat="44.34574" lon="4.60851">
        <ele>139</ele>
      </trkpt>
      <trkpt lat="44.34599" lon="4.60874">
        <ele>138.5</ele>
      </trkpt>
      <trkpt lat="44.34677" lon="4.60918">
        <ele>137.7</ele>
      </trkpt>
      <trkpt lat="44.34682" lon="4.60921">
        <ele>137.7</ele>
      </trkpt>
      <trkpt lat="44.34747" lon="4.60936">
        <ele>136.5</ele>
      </trkpt>
      <trkpt lat="44.34801" lon="4.6094">
        <ele>133.8</ele>
      </trkpt>
      <trkpt lat="44.34834" lon="4.60926">
        <ele>132</ele>
      </trkpt>
      <trkpt lat="44.34839" lon="4.60912">
        <ele>131.7</ele>
      </trkpt>
      <trkpt lat="44.34855" lon="4.60916">
        <ele>131.2</ele>
      </trkpt>
      <trkpt lat="44.34861" lon="4.6091">
        <ele>131</ele>
      </trkpt>
      <trkpt lat="44.34854" lon="4.60876">
        <ele>131</ele>
      </trkpt>
      <trkpt lat="44.34862" lon="4.60845">
        <ele>131</ele>
      </trkpt>
      <trkpt lat="44.34867" lon="4.60829">
        <ele>131.2</ele>
      </trkpt>
      <trkpt lat="44.34904" lon="4.60777">
        <ele>132.6</ele>
      </trkpt>
      <trkpt lat="44.34961" lon="4.60724">
        <ele>137.6</ele>
      </trkpt>
      <trkpt lat="44.34975" lon="4.60706">
        <ele>138.8</ele>
      </trkpt>
      <trkpt lat="44.35" lon="4.60682">
        <ele>140</ele>
      </trkpt>
      <trkpt lat="44.35015" lon="4.60664">
        <ele>140.6</ele>
      </trkpt>
      <trkpt lat="44.35036" lon="4.60664">
        <ele>141.3</ele>
      </trkpt>
      <trkpt lat="44.35064" lon="4.60669">
        <ele>142.3</ele>
      </trkpt>
      <trkpt lat="44.3507" lon="4.60661">
        <ele>142.5</ele>
      </trkpt>
      <trkpt lat="44.35077" lon="4.60642">
        <ele>142.5</ele>
      </trkpt>
      <trkpt lat="44.35085" lon="4.60621">
        <ele>142.6</ele>
      </trkpt>
      <trkpt lat="44.35093" lon="4.60609">
        <ele>143.2</ele>
      </trkpt>
      <trkpt lat="44.35103" lon="4.60602">
        <ele>144.1</ele>
      </trkpt>
      <trkpt lat="44.35118" lon="4.60593">
        <ele>145.4</ele>
      </trkpt>
      <trkpt lat="44.35141" lon="4.60579">
        <ele>147.5</ele>
      </trkpt>
      <trkpt lat="44.3517" lon="4.60556">
        <ele>149.3</ele>
      </trkpt>
      <trkpt lat="44.35208" lon="4.60538">
        <ele>151</ele>
      </trkpt>
      <trkpt lat="44.35245" lon="4.60537">
        <ele>153.2</ele>
      </trkpt>
      <trkpt lat="44.35303" lon="4.60538">
        <ele>157.5</ele>
      </trkpt>
      <trkpt lat="44.35369" lon="4.60531">
        <ele>160.8</ele>
      </trkpt>
      <trkpt lat="44.35389" lon="4.60534">
        <ele>161.8</ele>
      </trkpt>
      <trkpt lat="44.35453" lon="4.60535">
        <ele>164.4</ele>
      </trkpt>
      <trkpt lat="44.35487" lon="4.60528">
        <ele>165.2</ele>
      </trkpt>
      <trkpt lat="44.35502" lon="4.60531">
        <ele>166</ele>
      </trkpt>
      <trkpt lat="44.35515" lon="4.60539">
        <ele>167.5</ele>
      </trkpt>
      <trkpt lat="44.35543" lon="4.60542">
        <ele>169.8</ele>
      </trkpt>
      <trkpt lat="44.35565" lon="4.60542">
        <ele>171.6</ele>
      </trkpt>
      <trkpt lat="44.35574" lon="4.60544">
        <ele>172.4</ele>
      </trkpt>
      <trkpt lat="44.35582" lon="4.60551">
        <ele>173.3</ele>
      </trkpt>
      <trkpt lat="44.35589" lon="4.60559">
        <ele>174.3</ele>
      </trkpt>
      <trkpt lat="44.35602" lon="4.60566">
        <ele>175.8</ele>
      </trkpt>
      <trkpt lat="44.35618" lon="4.60568">
        <ele>177.2</ele>
      </trkpt>
      <trkpt lat="44.35696" lon="4.60575">
        <ele>183.1</ele>
      </trkpt>
      <trkpt lat="44.35743" lon="4.60559">
        <ele>185.3</ele>
      </trkpt>
      <trkpt lat="44.35781" lon="4.60538">
        <ele>187.8</ele>
      </trkpt>
      <trkpt lat="44.35852" lon="4.60478">
        <ele>190.9</ele>
      </trkpt>
      <trkpt lat="44.35881" lon="4.60462">
        <ele>192.6</ele>
      </trkpt>
      <trkpt lat="44.35931" lon="4.60431">
        <ele>197.9</ele>
      </trkpt>
      <trkpt lat="44.3594" lon="4.60459">
        <ele>196.8</ele>
      </trkpt>
      <trkpt lat="44.35963" lon="4.60493">
        <ele>195.5</ele>
      </trkpt>
      <trkpt lat="44.35998" lon="4.60536">
        <ele>194.8</ele>
      </trkpt>
      <trkpt lat="44.3604" lon="4.60474">
        <ele>200.1</ele>
      </trkpt>
      <trkpt lat="44.36147" lon="4.60363">
        <ele>203.7</ele>
      </trkpt>
      <trkpt lat="44.36203" lon="4.60249">
        <ele>208.2</ele>
      </trkpt>
      <trkpt lat="44.36269" lon="4.60189">
        <ele>211.8</ele>
      </trkpt>
      <trkpt lat="44.36289" lon="4.60162">
        <ele>212.5</ele>
      </trkpt>
      <trkpt lat="44.36327" lon="4.60147">
        <ele>214.3</ele>
      </trkpt>
      <trkpt lat="44.36367" lon="4.60132">
        <ele>217.5</ele>
      </trkpt>
      <trkpt lat="44.36396" lon="4.60136">
        <ele>219.9</ele>
      </trkpt>
      <trkpt lat="44.36416" lon="4.60133">
        <ele>221.5</ele>
      </trkpt>
      <trkpt lat="44.36427" lon="4.60133">
        <ele>222.6</ele>
      </trkpt>
      <trkpt lat="44.36472" lon="4.60152">
        <ele>227.6</ele>
      </trkpt>
      <trkpt lat="44.365" lon="4.60149">
        <ele>230.3</ele>
      </trkpt>
      <trkpt lat="44.36526" lon="4.60133">
        <ele>232.2</ele>
      </trkpt>
      <trkpt lat="44.36547" lon="4.60126">
        <ele>233.7</ele>
      </trkpt>
      <trkpt lat="44.36561" lon="4.60131">
        <ele>235.2</ele>
      </trkpt>
      <trkpt lat="44.36579" lon="4.60152">
        <ele>237.9</ele>
      </trkpt>
      <trkpt lat="44.3659" lon="4.60159">
        <ele>239.2</ele>
      </trkpt>
      <trkpt lat="44.36605" lon="4.60165">
        <ele>241</ele>
      </trkpt>
      <trkpt lat="44.36619" lon="4.60167">
        <ele>242.4</ele>
      </trkpt>
      <trkpt lat="44.36643" lon="4.6018">
        <ele>244.7</ele>
      </trkpt>
      <trkpt lat="44.36701" lon="4.60216">
        <ele>249.2</ele>
      </trkpt>
      <trkpt lat="44.36734" lon="4.60224">
        <ele>251.3</ele>
      </trkpt>
      <trkpt lat="44.36751" lon="4.60231">
        <ele>252.2</ele>
      </trkpt>
      <trkpt lat="44.36762" lon="4.60232">
        <ele>252.1</ele>
      </trkpt>
      <trkpt lat="44.36791" lon="4.60222">
        <ele>252.2</ele>
      </trkpt>
      <trkpt lat="44.36809" lon="4.60212">
        <ele>252.4</ele>
      </trkpt>
      <trkpt lat="44.36851" lon="4.60181">
        <ele>254</ele>
      </trkpt>
      <trkpt lat="44.36891" lon="4.60201">
        <ele>254.7</ele>
      </trkpt>
      <trkpt lat="44.3695" lon="4.60254">
        <ele>256.5</ele>
      </trkpt>
      <trkpt lat="44.36962" lon="4.603">
        <ele>256.3</ele>
      </trkpt>
      <trkpt lat="44.37015" lon="4.60341">
        <ele>258.8</ele>
      </trkpt>
      <trkpt lat="44.37074" lon="4.60358">
        <ele>262.1</ele>
      </trkpt>
      <trkpt lat="44.37104" lon="4.60322">
        <ele>264.9</ele>
      </trkpt>
      <trkpt lat="44.37162" lon="4.60312">
        <ele>269.5</ele>
      </trkpt>
      <trkpt lat="44.37206" lon="4.60252">
        <ele>274.3</ele>
      </trkpt>
      <trkpt lat="44.3729" lon="4.60268">
        <ele>278.7</ele>
      </trkpt>
      <trkpt lat="44.37368" lon="4.60126">
        <ele>285.3</ele>
      </trkpt>
      <trkpt lat="44.37418" lon="4.60111">
        <ele>290.8</ele>
      </trkpt>
      <trkpt lat="44.37451" lon="4.60063">
        <ele>294</ele>
      </trkpt>
      <trkpt lat="44.37496" lon="4.60048">
        <ele>297.8</ele>
      </trkpt>
      <trkpt lat="44.37513" lon="4.60014">
        <ele>298.7</ele>
      </trkpt>
      <trkpt lat="44.37569" lon="4.60005">
        <ele>304.3</ele>
      </trkpt>
      <trkpt lat="44.37614" lon="4.60012">
        <ele>308.1</ele>
      </trkpt>
      <trkpt lat="44.37683" lon="4.59966">
        <ele>314.2</ele>
      </trkpt>
      <trkpt lat="44.37818" lon="4.59923">
        <ele>326.4</ele>
      </trkpt>
      <trkpt lat="44.37922" lon="4.59811">
        <ele>339.3</ele>
      </trkpt>
      <trkpt lat="44.37932" lon="4.59763">
        <ele>342.1</ele>
      </trkpt>
      <trkpt lat="44.37975" lon="4.59714">
        <ele>350.2</ele>
      </trkpt>
      <trkpt lat="44.37982" lon="4.59608">
        <ele>356.1</ele>
      </trkpt>
      <trkpt lat="44.38037" lon="4.59594">
        <ele>362.7</ele>
      </trkpt>
      <trkpt lat="44.38285" lon="4.59347">
        <ele>377.8</ele>
      </trkpt>
      <trkpt lat="44.38482" lon="4.5916">
        <ele>388.6</ele>
      </trkpt>
      <trkpt lat="44.38499" lon="4.59037">
        <ele>391</ele>
      </trkpt>
      <trkpt lat="44.38501" lon="4.58827">
        <ele>389.4</ele>
      </trkpt>
      <trkpt lat="44.3853" lon="4.58708">
        <ele>393.6</ele>
      </trkpt>
      <trkpt lat="44.38558" lon="4.58686">
        <ele>394.4</ele>
      </trkpt>
      <trkpt lat="44.38605" lon="4.58657">
        <ele>396.4</ele>
      </trkpt>
      <trkpt lat="44.38646" lon="4.58626">
        <ele>399.3</ele>
      </trkpt>
      <trkpt lat="44.3864" lon="4.58599">
        <ele>398.5</ele>
      </trkpt>
      <trkpt lat="44.38638" lon="4.58542">
        <ele>396.8</ele>
      </trkpt>
      <trkpt lat="44.38655" lon="4.58491">
        <ele>396.1</ele>
      </trkpt>
      <trkpt lat="44.38736" lon="4.58424">
        <ele>395.4</ele>
      </trkpt>
      <trkpt lat="44.38768" lon="4.58456">
        <ele>398.1</ele>
      </trkpt>
      <trkpt lat="44.38786" lon="4.58459">
        <ele>398.4</ele>
      </trkpt>
      <trkpt lat="44.38858" lon="4.5852">
        <ele>400.2</ele>
      </trkpt>
      <trkpt lat="44.38952" lon="4.58581">
        <ele>402</ele>
      </trkpt>
      <trkpt lat="44.38998" lon="4.58626">
        <ele>403.6</ele>
      </trkpt>
      <trkpt lat="44.39054" lon="4.58677">
        <ele>402.5</ele>
      </trkpt>
      <trkpt lat="44.39137" lon="4.58789">
        <ele>401.6</ele>
      </trkpt>
      <trkpt lat="44.39183" lon="4.58866">
        <ele>400.4</ele>
      </trkpt>
      <trkpt lat="44.39244" lon="4.58962">
        <ele>395.6</ele>
      </trkpt>
      <trkpt lat="44.39379" lon="4.5903">
        <ele>394.9</ele>
      </trkpt>
      <trkpt lat="44.39441" lon="4.59103">
        <ele>394.4</ele>
      </trkpt>
      <trkpt lat="44.39464" lon="4.59117">
        <ele>394.3</ele>
      </trkpt>
      <trkpt lat="44.3954" lon="4.59127">
        <ele>392.9</ele>
      </trkpt>
      <trkpt lat="44.3956" lon="4.59139">
        <ele>392.5</ele>
      </trkpt>
      <trkpt lat="44.39565" lon="4.59139">
        <ele>392.3</ele>
      </trkpt>
      <trkpt lat="44.3957" lon="4.59151">
        <ele>392.7</ele>
      </trkpt>
      <trkpt lat="44.39579" lon="4.59166">
        <ele>393.1</ele>
      </trkpt>
      <trkpt lat="44.39602" lon="4.59195">
        <ele>393.2</ele>
      </trkpt>
      <trkpt lat="44.3962" lon="4.59215">
        <ele>393.2</ele>
      </trkpt>
      <trkpt lat="44.39637" lon="4.59219">
        <ele>392.7</ele>
      </trkpt>
      <trkpt lat="44.39761" lon="4.5929">
        <ele>395</ele>
      </trkpt>
      <trkpt lat="44.39954" lon="4.59343">
        <ele>394.7</ele>
      </trkpt>
      <trkpt lat="44.39967" lon="4.5934">
        <ele>394.1</ele>
      </trkpt>
      <trkpt lat="44.40039" lon="4.59356">
        <ele>391</ele>
      </trkpt>
      <trkpt lat="44.40071" lon="4.59357">
        <ele>389.9</ele>
      </trkpt>
      <trkpt lat="44.4008" lon="4.59353">
        <ele>389.6</ele>
      </trkpt>
      <trkpt lat="44.40102" lon="4.5933">
        <ele>389.5</ele>
      </trkpt>
      <trkpt lat="44.4012" lon="4.59319">
        <ele>388.9</ele>
      </trkpt>
      <trkpt lat="44.40131" lon="4.59317">
        <ele>388.6</ele>
      </trkpt>
      <trkpt lat="44.40147" lon="4.59324">
        <ele>388.3</ele>
      </trkpt>
      <trkpt lat="44.40168" lon="4.59339">
        <ele>387.9</ele>
      </trkpt>
      <trkpt lat="44.40179" lon="4.59343">
        <ele>387.5</ele>
      </trkpt>
      <trkpt lat="44.40227" lon="4.5935">
        <ele>385.9</ele>
      </trkpt>
      <trkpt lat="44.4026" lon="4.59351">
        <ele>385</ele>
      </trkpt>
      <trkpt lat="44.403" lon="4.59363">
        <ele>384.1</ele>
      </trkpt>
      <trkpt lat="44.40356" lon="4.59373">
        <ele>382.3</ele>
      </trkpt>
      <trkpt lat="44.4038" lon="4.59373">
        <ele>381.6</ele>
      </trkpt>
      <trkpt lat="44.40394" lon="4.59374">
        <ele>381.2</ele>
      </trkpt>
      <trkpt lat="44.40418" lon="4.59384">
        <ele>380.6</ele>
      </trkpt>
      <trkpt lat="44.40468" lon="4.59379">
        <ele>378.1</ele>
      </trkpt>
      <trkpt lat="44.40493" lon="4.59387">
        <ele>377</ele>
      </trkpt>
      <trkpt lat="44.40507" lon="4.59401">
        <ele>376.4</ele>
      </trkpt>
      <trkpt lat="44.40526" lon="4.59416">
        <ele>375.5</ele>
      </trkpt>
      <trkpt lat="44.40536" lon="4.59423">
        <ele>374.4</ele>
      </trkpt>
      <trkpt lat="44.40623" lon="4.59443">
        <ele>369.9</ele>
      </trkpt>
      <trkpt lat="44.40767" lon="4.59503">
        <ele>371.4</ele>
      </trkpt>
      <trkpt lat="44.40794" lon="4.5952">
        <ele>370</ele>
      </trkpt>
      <trkpt lat="44.40823" lon="4.59545">
        <ele>368.9</ele>
      </trkpt>
      <trkpt lat="44.40854" lon="4.59562">
        <ele>368.3</ele>
      </trkpt>
      <trkpt lat="44.4091" lon="4.59587">
        <ele>368.6</ele>
      </trkpt>
      <trkpt lat="44.40957" lon="4.59596">
        <ele>368.7</ele>
      </trkpt>
      <trkpt lat="44.40988" lon="4.59593">
        <ele>369.4</ele>
      </trkpt>
      <trkpt lat="44.41023" lon="4.59596">
        <ele>370</ele>
      </trkpt>
      <trkpt lat="44.41088" lon="4.59578">
        <ele>370.1</ele>
      </trkpt>
      <trkpt lat="44.41109" lon="4.59571">
        <ele>368.5</ele>
      </trkpt>
      <trkpt lat="44.41129" lon="4.59568">
        <ele>367.5</ele>
      </trkpt>
      <trkpt lat="44.41146" lon="4.59569">
        <ele>366.9</ele>
      </trkpt>
      <trkpt lat="44.41169" lon="4.59572">
        <ele>366.3</ele>
      </trkpt>
      <trkpt lat="44.41192" lon="4.59576">
        <ele>366.2</ele>
      </trkpt>
      <trkpt lat="44.41285" lon="4.59592">
        <ele>366</ele>
      </trkpt>
      <trkpt lat="44.41347" lon="4.59588">
        <ele>365.9</ele>
      </trkpt>
      <trkpt lat="44.41347" lon="4.59607">
        <ele>365.6</ele>
      </trkpt>
      <trkpt lat="44.41353" lon="4.5963">
        <ele>365.1</ele>
      </trkpt>
      <trkpt lat="44.41353" lon="4.59642">
        <ele>364.8</ele>
      </trkpt>
      <trkpt lat="44.41349" lon="4.59657">
        <ele>364.6</ele>
      </trkpt>
      <trkpt lat="44.4134" lon="4.59679">
        <ele>364</ele>
      </trkpt>
      <trkpt lat="44.41329" lon="4.59738">
        <ele>360.8</ele>
      </trkpt>
      <trkpt lat="44.4131" lon="4.59834">
        <ele>352.7</ele>
      </trkpt>
      <trkpt lat="44.41308" lon="4.59859">
        <ele>349.7</ele>
      </trkpt>
      <trkpt lat="44.41309" lon="4.59878">
        <ele>347.7</ele>
      </trkpt>
      <trkpt lat="44.41314" lon="4.59896">
        <ele>346.2</ele>
      </trkpt>
      <trkpt lat="44.41325" lon="4.5991">
        <ele>346.3</ele>
      </trkpt>
      <trkpt lat="44.4134" lon="4.59944">
        <ele>344.9</ele>
      </trkpt>
      <trkpt lat="44.41372" lon="4.60024">
        <ele>340.8</ele>
      </trkpt>
      <trkpt lat="44.41443" lon="4.60111">
        <ele>344.2</ele>
      </trkpt>
      <trkpt lat="44.41508" lon="4.60166">
        <ele>347.3</ele>
      </trkpt>
      <trkpt lat="44.41561" lon="4.60214">
        <ele>343.1</ele>
      </trkpt>
      <trkpt lat="44.41574" lon="4.6023">
        <ele>343.2</ele>
      </trkpt>
      <trkpt lat="44.41597" lon="4.60272">
        <ele>342.6</ele>
      </trkpt>
      <trkpt lat="44.41652" lon="4.60322">
        <ele>341</ele>
      </trkpt>
      <trkpt lat="44.41662" lon="4.60335">
        <ele>340.5</ele>
      </trkpt>
      <trkpt lat="44.41678" lon="4.60351">
        <ele>338</ele>
      </trkpt>
      <trkpt lat="44.41692" lon="4.6037">
        <ele>334.9</ele>
      </trkpt>
      <trkpt lat="44.41733" lon="4.60401">
        <ele>330.6</ele>
      </trkpt>
      <trkpt lat="44.41767" lon="4.6043">
        <ele>323.7</ele>
      </trkpt>
      <trkpt lat="44.4179" lon="4.60454">
        <ele>316.4</ele>
      </trkpt>
      <trkpt lat="44.4181" lon="4.60464">
        <ele>313.1</ele>
      </trkpt>
      <trkpt lat="44.4183" lon="4.60476">
        <ele>309.9</ele>
      </trkpt>
      <trkpt lat="44.41846" lon="4.6049">
        <ele>306.2</ele>
      </trkpt>
      <trkpt lat="44.41859" lon="4.605">
        <ele>303.2</ele>
      </trkpt>
      <trkpt lat="44.41875" lon="4.60514">
        <ele>299.1</ele>
      </trkpt>
      <trkpt lat="44.41889" lon="4.6053">
        <ele>295.6</ele>
      </trkpt>
      <trkpt lat="44.41909" lon="4.60544">
        <ele>293.4</ele>
      </trkpt>
      <trkpt lat="44.41922" lon="4.60556">
        <ele>291.9</ele>
      </trkpt>
      <trkpt lat="44.41931" lon="4.60571">
        <ele>290.1</ele>
      </trkpt>
      <trkpt lat="44.41938" lon="4.60586">
        <ele>288.4</ele>
      </trkpt>
      <trkpt lat="44.41947" lon="4.60598">
        <ele>286</ele>
      </trkpt>
      <trkpt lat="44.41966" lon="4.60617">
        <ele>283.7</ele>
      </trkpt>
      <trkpt lat="44.41981" lon="4.60631">
        <ele>283.3</ele>
      </trkpt>
      <trkpt lat="44.41993" lon="4.60645">
        <ele>283.6</ele>
      </trkpt>
      <trkpt lat="44.41999" lon="4.60658">
        <ele>284</ele>
      </trkpt>
      <trkpt lat="44.42004" lon="4.60679">
        <ele>281.1</ele>
      </trkpt>
      <trkpt lat="44.42013" lon="4.60703">
        <ele>275.9</ele>
      </trkpt>
      <trkpt lat="44.42044" lon="4.60747">
        <ele>270.1</ele>
      </trkpt>
      <trkpt lat="44.42062" lon="4.60765">
        <ele>268.5</ele>
      </trkpt>
      <trkpt lat="44.42071" lon="4.60767">
        <ele>269.4</ele>
      </trkpt>
      <trkpt lat="44.42076" lon="4.60763">
        <ele>270.7</ele>
      </trkpt>
      <trkpt lat="44.42095" lon="4.60736">
        <ele>273.2</ele>
      </trkpt>
      <trkpt lat="44.42112" lon="4.60707">
        <ele>272</ele>
      </trkpt>
      <trkpt lat="44.42114" lon="4.60708">
        <ele>271.6</ele>
      </trkpt>
      <trkpt lat="44.42116" lon="4.60712">
        <ele>271.2</ele>
      </trkpt>
      <trkpt lat="44.42114" lon="4.60724">
        <ele>271.1</ele>
      </trkpt>
      <trkpt lat="44.42114" lon="4.60735">
        <ele>270.8</ele>
      </trkpt>
      <trkpt lat="44.42119" lon="4.60758">
        <ele>268.9</ele>
      </trkpt>
      <trkpt lat="44.42144" lon="4.60789">
        <ele>264.3</ele>
      </trkpt>
      <trkpt lat="44.42159" lon="4.60798">
        <ele>263.2</ele>
      </trkpt>
      <trkpt lat="44.42166" lon="4.60803">
        <ele>262.8</ele>
      </trkpt>
      <trkpt lat="44.4217" lon="4.60808">
        <ele>262.4</ele>
      </trkpt>
      <trkpt lat="44.42172" lon="4.60817">
        <ele>262</ele>
      </trkpt>
      <trkpt lat="44.42173" lon="4.60834">
        <ele>261.5</ele>
      </trkpt>
      <trkpt lat="44.42176" lon="4.60846">
        <ele>259.5</ele>
      </trkpt>
      <trkpt lat="44.42182" lon="4.60855">
        <ele>257.7</ele>
      </trkpt>
      <trkpt lat="44.42264" lon="4.60933">
        <ele>244.1</ele>
      </trkpt>
      <trkpt lat="44.42317" lon="4.60998">
        <ele>230.6</ele>
      </trkpt>
      <trkpt lat="44.42358" lon="4.61034">
        <ele>222.4</ele>
      </trkpt>
      <trkpt lat="44.42378" lon="4.61037">
        <ele>219.2</ele>
      </trkpt>
      <trkpt lat="44.42391" lon="4.61046">
        <ele>216.2</ele>
      </trkpt>
      <trkpt lat="44.42392" lon="4.61059">
        <ele>214.3</ele>
      </trkpt>
      <trkpt lat="44.42399" lon="4.61066">
        <ele>212.3</ele>
      </trkpt>
      <trkpt lat="44.4241" lon="4.61067">
        <ele>210.4</ele>
      </trkpt>
      <trkpt lat="44.42419" lon="4.61063">
        <ele>209.4</ele>
      </trkpt>
      <trkpt lat="44.42423" lon="4.61057">
        <ele>209.4</ele>
      </trkpt>
      <trkpt lat="44.42427" lon="4.61054">
        <ele>209</ele>
      </trkpt>
      <trkpt lat="44.42432" lon="4.61056">
        <ele>207.7</ele>
      </trkpt>
      <trkpt lat="44.42442" lon="4.6107">
        <ele>203.4</ele>
      </trkpt>
      <trkpt lat="44.42444" lon="4.61076">
        <ele>201.9</ele>
      </trkpt>
      <trkpt lat="44.42444" lon="4.61081">
        <ele>201.2</ele>
      </trkpt>
      <trkpt lat="44.42442" lon="4.61094">
        <ele>199.9</ele>
      </trkpt>
      <trkpt lat="44.42433" lon="4.61115">
        <ele>199.1</ele>
      </trkpt>
      <trkpt lat="44.42422" lon="4.61141">
        <ele>197.8</ele>
      </trkpt>
      <trkpt lat="44.42404" lon="4.61166">
        <ele>196.6</ele>
      </trkpt>
      <trkpt lat="44.42402" lon="4.61174">
        <ele>195.2</ele>
      </trkpt>
      <trkpt lat="44.42402" lon="4.61181">
        <ele>193.6</ele>
      </trkpt>
      <trkpt lat="44.42403" lon="4.61187">
        <ele>192.3</ele>
      </trkpt>
      <trkpt lat="44.42405" lon="4.61192">
        <ele>190.7</ele>
      </trkpt>
      <trkpt lat="44.4241" lon="4.61197">
        <ele>189.4</ele>
      </trkpt>
      <trkpt lat="44.42421" lon="4.61201">
        <ele>187.4</ele>
      </trkpt>
      <trkpt lat="44.42455" lon="4.61225">
        <ele>180.6</ele>
      </trkpt>
      <trkpt lat="44.42462" lon="4.61228">
        <ele>179.6</ele>
      </trkpt>
      <trkpt lat="44.42467" lon="4.61229">
        <ele>179.2</ele>
      </trkpt>
      <trkpt lat="44.42472" lon="4.61224">
        <ele>179.5</ele>
      </trkpt>
      <trkpt lat="44.42491" lon="4.61215">
        <ele>178.9</ele>
      </trkpt>
      <trkpt lat="44.42501" lon="4.61212">
        <ele>178.2</ele>
      </trkpt>
      <trkpt lat="44.42508" lon="4.61217">
        <ele>177</ele>
      </trkpt>
      <trkpt lat="44.42523" lon="4.61209">
        <ele>175.5</ele>
      </trkpt>
      <trkpt lat="44.42531" lon="4.61213">
        <ele>174.5</ele>
      </trkpt>
      <trkpt lat="44.42579" lon="4.61196">
        <ele>168.6</ele>
      </trkpt>
      <trkpt lat="44.42608" lon="4.61194">
        <ele>164.7</ele>
      </trkpt>
      <trkpt lat="44.42623" lon="4.61188">
        <ele>162.9</ele>
      </trkpt>
      <trkpt lat="44.4264" lon="4.61181">
        <ele>160.8</ele>
      </trkpt>
      <trkpt lat="44.42652" lon="4.61181">
        <ele>159.4</ele>
      </trkpt>
      <trkpt lat="44.42658" lon="4.61184">
        <ele>158.5</ele>
      </trkpt>
      <trkpt lat="44.4266" lon="4.6119">
        <ele>158</ele>
      </trkpt>
      <trkpt lat="44.42665" lon="4.61201">
        <ele>157.1</ele>
      </trkpt>
      <trkpt lat="44.42667" lon="4.61208">
        <ele>156.5</ele>
      </trkpt>
      <trkpt lat="44.42668" lon="4.61224">
        <ele>155.6</ele>
      </trkpt>
      <trkpt lat="44.42671" lon="4.61247">
        <ele>154.3</ele>
      </trkpt>
      <trkpt lat="44.42673" lon="4.61254">
        <ele>153.5</ele>
      </trkpt>
      <trkpt lat="44.42676" lon="4.61262">
        <ele>152.3</ele>
      </trkpt>
      <trkpt lat="44.42678" lon="4.61275">
        <ele>150.8</ele>
      </trkpt>
      <trkpt lat="44.42684" lon="4.6129">
        <ele>148.6</ele>
      </trkpt>
      <trkpt lat="44.42691" lon="4.61301">
        <ele>146.5</ele>
      </trkpt>
      <trkpt lat="44.42701" lon="4.61305">
        <ele>144.3</ele>
      </trkpt>
      <trkpt lat="44.42715" lon="4.61304">
        <ele>142</ele>
      </trkpt>
      <trkpt lat="44.42724" lon="4.61308">
        <ele>140</ele>
      </trkpt>
      <trkpt lat="44.42728" lon="4.61312">
        <ele>139.1</ele>
      </trkpt>
      <trkpt lat="44.42729" lon="4.61317">
        <ele>138.6</ele>
      </trkpt>
      <trkpt lat="44.4273" lon="4.61336">
        <ele>137.2</ele>
      </trkpt>
      <trkpt lat="44.42731" lon="4.6137">
        <ele>134.7</ele>
      </trkpt>
      <trkpt lat="44.4273" lon="4.61386">
        <ele>133.7</ele>
      </trkpt>
      <trkpt lat="44.42734" lon="4.61404">
        <ele>132.2</ele>
      </trkpt>
      <trkpt lat="44.42754" lon="4.61426">
        <ele>129</ele>
      </trkpt>
      <trkpt lat="44.42786" lon="4.6144">
        <ele>126.5</ele>
      </trkpt>
      <trkpt lat="44.42827" lon="4.61449">
        <ele>124.6</ele>
      </trkpt>
      <trkpt lat="44.42863" lon="4.61469">
        <ele>121.7</ele>
      </trkpt>
      <trkpt lat="44.42895" lon="4.61494">
        <ele>119.8</ele>
      </trkpt>
      <trkpt lat="44.42935" lon="4.6151">
        <ele>116.2</ele>
      </trkpt>
      <trkpt lat="44.42946" lon="4.61519">
        <ele>114.4</ele>
      </trkpt>
      <trkpt lat="44.4296" lon="4.61564">
        <ele>110.6</ele>
      </trkpt>
      <trkpt lat="44.42978" lon="4.61607">
        <ele>108</ele>
      </trkpt>
      <trkpt lat="44.42988" lon="4.61621">
        <ele>107.5</ele>
      </trkpt>
      <trkpt lat="44.43001" lon="4.6165">
        <ele>107.9</ele>
      </trkpt>
      <trkpt lat="44.43008" lon="4.61675">
        <ele>107.3</ele>
      </trkpt>
      <trkpt lat="44.43011" lon="4.61684">
        <ele>106.4</ele>
      </trkpt>
      <trkpt lat="44.43017" lon="4.61691">
        <ele>105.4</ele>
      </trkpt>
      <trkpt lat="44.43059" lon="4.61723">
        <ele>99.3</ele>
      </trkpt>
      <trkpt lat="44.43118" lon="4.61797">
        <ele>95.8</ele>
      </trkpt>
      <trkpt lat="44.43134" lon="4.61751">
        <ele>94.6</ele>
      </trkpt>
      <trkpt lat="44.43143" lon="4.61717">
        <ele>94.5</ele>
      </trkpt>
      <trkpt lat="44.43148" lon="4.61696">
        <ele>94.6</ele>
      </trkpt>
      <trkpt lat="44.43153" lon="4.6168">
        <ele>94.8</ele>
      </trkpt>
      <trkpt lat="44.43157" lon="4.61662">
        <ele>95.3</ele>
      </trkpt>
      <trkpt lat="44.43159" lon="4.61644">
        <ele>96.2</ele>
      </trkpt>
      <trkpt lat="44.43161" lon="4.61564">
        <ele>100.7</ele>
      </trkpt>
      <trkpt lat="44.43177" lon="4.61494">
        <ele>107.9</ele>
      </trkpt>
      <trkpt lat="44.43174" lon="4.61448">
        <ele>108.7</ele>
      </trkpt>
      <trkpt lat="44.43169" lon="4.61393">
        <ele>107.9</ele>
      </trkpt>
      <trkpt lat="44.43186" lon="4.61353">
        <ele>111.1</ele>
      </trkpt>
      <trkpt lat="44.43236" lon="4.61329">
        <ele>122.4</ele>
      </trkpt>
      <trkpt lat="44.43272" lon="4.61308">
        <ele>127.3</ele>
      </trkpt>
      <trkpt lat="44.43295" lon="4.6125">
        <ele>123.5</ele>
      </trkpt>
      <trkpt lat="44.43304" lon="4.6122">
        <ele>125</ele>
      </trkpt>
      <trkpt lat="44.43318" lon="4.61198">
        <ele>125.8</ele>
      </trkpt>
      <trkpt lat="44.43337" lon="4.61179">
        <ele>126</ele>
      </trkpt>
      <trkpt lat="44.43349" lon="4.61154">
        <ele>128.8</ele>
      </trkpt>
      <trkpt lat="44.43398" lon="4.61047">
        <ele>139</ele>
      </trkpt>
      <trkpt lat="44.43402" lon="4.61046">
        <ele>139.3</ele>
      </trkpt>
      <trkpt lat="44.43405" lon="4.61051">
        <ele>139.6</ele>
      </trkpt>
      <trkpt lat="44.4339" lon="4.61098">
        <ele>138.2</ele>
      </trkpt>
      <trkpt lat="44.43388" lon="4.61133">
        <ele>136.4</ele>
      </trkpt>
      <trkpt lat="44.4343" lon="4.61186">
        <ele>141.2</ele>
      </trkpt>
      <trkpt lat="44.43439" lon="4.61199">
        <ele>142.1</ele>
      </trkpt>
      <trkpt lat="44.43439" lon="4.61206">
        <ele>142.3</ele>
      </trkpt>
      <trkpt lat="44.43439" lon="4.61214">
        <ele>142.4</ele>
      </trkpt>
      <trkpt lat="44.4343" lon="4.61233">
        <ele>141.6</ele>
      </trkpt>
      <trkpt lat="44.43411" lon="4.61267">
        <ele>142.2</ele>
      </trkpt>
      <trkpt lat="44.43394" lon="4.61287">
        <ele>143.2</ele>
      </trkpt>
      <trkpt lat="44.43382" lon="4.61301">
        <ele>144</ele>
      </trkpt>
      <trkpt lat="44.43372" lon="4.61316">
        <ele>145</ele>
      </trkpt>
      <trkpt lat="44.43361" lon="4.61331">
        <ele>145.8</ele>
      </trkpt>
      <trkpt lat="44.43354" lon="4.61339">
        <ele>145.9</ele>
      </trkpt>
      <trkpt lat="44.43344" lon="4.61359">
        <ele>146.6</ele>
      </trkpt>
      <trkpt lat="44.43344" lon="4.61369">
        <ele>147.8</ele>
      </trkpt>
      <trkpt lat="44.43338" lon="4.61415">
        <ele>151.8</ele>
      </trkpt>
      <trkpt lat="44.43331" lon="4.61468">
        <ele>151</ele>
      </trkpt>
      <trkpt lat="44.43325" lon="4.61527">
        <ele>147.7</ele>
      </trkpt>
      <trkpt lat="44.4333" lon="4.61554">
        <ele>148</ele>
      </trkpt>
      <trkpt lat="44.43336" lon="4.61575">
        <ele>149.1</ele>
      </trkpt>
      <trkpt lat="44.43347" lon="4.61598">
        <ele>149.9</ele>
      </trkpt>
      <trkpt lat="44.43354" lon="4.61616">
        <ele>150.2</ele>
      </trkpt>
      <trkpt lat="44.43361" lon="4.61636">
        <ele>150.4</ele>
      </trkpt>
      <trkpt lat="44.43368" lon="4.61663">
        <ele>150</ele>
      </trkpt>
      <trkpt lat="44.43373" lon="4.61698">
        <ele>148.9</ele>
      </trkpt>
      <trkpt lat="44.43374" lon="4.6171">
        <ele>148.7</ele>
      </trkpt>
      <trkpt lat="44.43385" lon="4.61743">
        <ele>150.1</ele>
      </trkpt>
      <trkpt lat="44.43393" lon="4.61759">
        <ele>152</ele>
      </trkpt>
      <trkpt lat="44.434" lon="4.61771">
        <ele>153.4</ele>
      </trkpt>
      <trkpt lat="44.43406" lon="4.61778">
        <ele>154.6</ele>
      </trkpt>
      <trkpt lat="44.4341" lon="4.61782">
        <ele>155.7</ele>
      </trkpt>
      <trkpt lat="44.43417" lon="4.61785">
        <ele>157.8</ele>
      </trkpt>
      <trkpt lat="44.43424" lon="4.61787">
        <ele>158.1</ele>
      </trkpt>
      <trkpt lat="44.43449" lon="4.61793">
        <ele>159</ele>
      </trkpt>
      <trkpt lat="44.43477" lon="4.61805">
        <ele>159.7</ele>
      </trkpt>
      <trkpt lat="44.43485" lon="4.61808">
        <ele>160.1</ele>
      </trkpt>
      <trkpt lat="44.43492" lon="4.61809">
        <ele>160.5</ele>
      </trkpt>
      <trkpt lat="44.43513" lon="4.61806">
        <ele>161.7</ele>
      </trkpt>
      <trkpt lat="44.43519" lon="4.61805">
        <ele>162</ele>
      </trkpt>
      <trkpt lat="44.43526" lon="4.61806">
        <ele>162.2</ele>
      </trkpt>
      <trkpt lat="44.43534" lon="4.61807">
        <ele>162.3</ele>
      </trkpt>
      <trkpt lat="44.43544" lon="4.61813">
        <ele>162.2</ele>
      </trkpt>
      <trkpt lat="44.4359" lon="4.61846">
        <ele>162.6</ele>
      </trkpt>
      <trkpt lat="44.43598" lon="4.61853">
        <ele>163.1</ele>
      </trkpt>
      <trkpt lat="44.43605" lon="4.61859">
        <ele>163.3</ele>
      </trkpt>
      <trkpt lat="44.43607" lon="4.61863">
        <ele>163.4</ele>
      </trkpt>
      <trkpt lat="44.43609" lon="4.61865">
        <ele>163.5</ele>
      </trkpt>
      <trkpt lat="44.43614" lon="4.61869">
        <ele>163.6</ele>
      </trkpt>
      <trkpt lat="44.43619" lon="4.61873">
        <ele>163.7</ele>
      </trkpt>
      <trkpt lat="44.43624" lon="4.61877">
        <ele>163.7</ele>
      </trkpt>
      <trkpt lat="44.4365" lon="4.61893">
        <ele>163.4</ele>
      </trkpt>
      <trkpt lat="44.43671" lon="4.61907">
        <ele>162.5</ele>
      </trkpt>
      <trkpt lat="44.43695" lon="4.61925">
        <ele>161.7</ele>
      </trkpt>
      <trkpt lat="44.437" lon="4.61928">
        <ele>161.7</ele>
      </trkpt>
      <trkpt lat="44.43705" lon="4.61929">
        <ele>161.5</ele>
      </trkpt>
      <trkpt lat="44.43708" lon="4.61929">
        <ele>161.3</ele>
      </trkpt>
      <trkpt lat="44.43724" lon="4.61923">
        <ele>160.2</ele>
      </trkpt>
      <trkpt lat="44.43727" lon="4.61922">
        <ele>160</ele>
      </trkpt>
      <trkpt lat="44.43742" lon="4.61916">
        <ele>159.3</ele>
      </trkpt>
      <trkpt lat="44.43748" lon="4.61914">
        <ele>159.3</ele>
      </trkpt>
      <trkpt lat="44.43751" lon="4.61914">
        <ele>159.3</ele>
      </trkpt>
      <trkpt lat="44.43753" lon="4.61913">
        <ele>159.1</ele>
      </trkpt>
      <trkpt lat="44.4378" lon="4.61922">
        <ele>156.4</ele>
      </trkpt>
      <trkpt lat="44.43787" lon="4.61924">
        <ele>155.7</ele>
      </trkpt>
      <trkpt lat="44.43792" lon="4.61924">
        <ele>155.3</ele>
      </trkpt>
      <trkpt lat="44.43798" lon="4.61923">
        <ele>154.8</ele>
      </trkpt>
      <trkpt lat="44.43803" lon="4.6192">
        <ele>154.4</ele>
      </trkpt>
      <trkpt lat="44.43829" lon="4.61892">
        <ele>153.4</ele>
      </trkpt>
      <trkpt lat="44.43837" lon="4.61886">
        <ele>153.3</ele>
      </trkpt>
      <trkpt lat="44.43841" lon="4.61883">
        <ele>153.9</ele>
      </trkpt>
      <trkpt lat="44.43845" lon="4.61882">
        <ele>154.1</ele>
      </trkpt>
      <trkpt lat="44.4385" lon="4.61883">
        <ele>154.5</ele>
      </trkpt>
      <trkpt lat="44.43854" lon="4.61885">
        <ele>154.7</ele>
      </trkpt>
      <trkpt lat="44.43858" lon="4.61888">
        <ele>154.7</ele>
      </trkpt>
      <trkpt lat="44.43863" lon="4.61892">
        <ele>154.7</ele>
      </trkpt>
      <trkpt lat="44.43867" lon="4.61898">
        <ele>154.5</ele>
      </trkpt>
      <trkpt lat="44.43871" lon="4.61905">
        <ele>154</ele>
      </trkpt>
      <trkpt lat="44.43875" lon="4.61914">
        <ele>153.3</ele>
      </trkpt>
      <trkpt lat="44.43891" lon="4.61944">
        <ele>150.5</ele>
      </trkpt>
      <trkpt lat="44.43897" lon="4.61958">
        <ele>148.9</ele>
      </trkpt>
      <trkpt lat="44.43908" lon="4.61981">
        <ele>145.8</ele>
      </trkpt>
      <trkpt lat="44.43919" lon="4.61992">
        <ele>144.4</ele>
      </trkpt>
      <trkpt lat="44.43931" lon="4.62006">
        <ele>144.6</ele>
      </trkpt>
      <trkpt lat="44.43939" lon="4.62014">
        <ele>144.6</ele>
      </trkpt>
      <trkpt lat="44.43943" lon="4.62024">
        <ele>143.9</ele>
      </trkpt>
      <trkpt lat="44.43944" lon="4.62034">
        <ele>142.7</ele>
      </trkpt>
      <trkpt lat="44.43942" lon="4.62044">
        <ele>141.1</ele>
      </trkpt>
      <trkpt lat="44.4394" lon="4.62061">
        <ele>138.9</ele>
      </trkpt>
      <trkpt lat="44.43939" lon="4.62077">
        <ele>136.8</ele>
      </trkpt>
      <trkpt lat="44.43939" lon="4.62082">
        <ele>136.2</ele>
      </trkpt>
      <trkpt lat="44.4394" lon="4.62088">
        <ele>136</ele>
      </trkpt>
      <trkpt lat="44.43942" lon="4.62105">
        <ele>136</ele>
      </trkpt>
      <trkpt lat="44.43951" lon="4.62124">
        <ele>135.2</ele>
      </trkpt>
      <trkpt lat="44.4396" lon="4.62137">
        <ele>133.8</ele>
      </trkpt>
      <trkpt lat="44.43972" lon="4.62145">
        <ele>131.9</ele>
      </trkpt>
      <trkpt lat="44.43978" lon="4.62146">
        <ele>131</ele>
      </trkpt>
      <trkpt lat="44.43983" lon="4.62146">
        <ele>130.2</ele>
      </trkpt>
      <trkpt lat="44.43989" lon="4.62145">
        <ele>129.4</ele>
      </trkpt>
      <trkpt lat="44.43992" lon="4.62146">
        <ele>128.9</ele>
      </trkpt>
      <trkpt lat="44.43995" lon="4.62147">
        <ele>128.3</ele>
      </trkpt>
      <trkpt lat="44.44" lon="4.62153">
        <ele>126.8</ele>
      </trkpt>
      <trkpt lat="44.44006" lon="4.62163">
        <ele>125.4</ele>
      </trkpt>
      <trkpt lat="44.44012" lon="4.62174">
        <ele>124.5</ele>
      </trkpt>
      <trkpt lat="44.44014" lon="4.62183">
        <ele>124</ele>
      </trkpt>
      <trkpt lat="44.44016" lon="4.6219">
        <ele>123.7</ele>
      </trkpt>
      <trkpt lat="44.44023" lon="4.62215">
        <ele>122.7</ele>
      </trkpt>
      <trkpt lat="44.44027" lon="4.62227">
        <ele>122.3</ele>
      </trkpt>
      <trkpt lat="44.44031" lon="4.62235">
        <ele>122.1</ele>
      </trkpt>
      <trkpt lat="44.44034" lon="4.62237">
        <ele>122.1</ele>
      </trkpt>
      <trkpt lat="44.44042" lon="4.62255">
        <ele>121.8</ele>
      </trkpt>
      <trkpt lat="44.44032" lon="4.62274">
        <ele>120.4</ele>
      </trkpt>
      <trkpt lat="44.44032" lon="4.62269">
        <ele>120.6</ele>
      </trkpt>
      <trkpt lat="44.44034" lon="4.62266">
        <ele>120.9</ele>
      </trkpt>
      <trkpt lat="44.44042" lon="4.62255">
        <ele>121.8</ele>
      </trkpt>
      <trkpt lat="44.4406" lon="4.62225">
        <ele>123.3</ele>
      </trkpt>
      <trkpt lat="44.44078" lon="4.62202">
        <ele>123.9</ele>
      </trkpt>
      <trkpt lat="44.44081" lon="4.62198">
        <ele>124</ele>
      </trkpt>
      <trkpt lat="44.441" lon="4.62161">
        <ele>128.8</ele>
      </trkpt>
      <trkpt lat="44.44103" lon="4.62153">
        <ele>130.2</ele>
      </trkpt>
      <trkpt lat="44.44105" lon="4.62144">
        <ele>131.4</ele>
      </trkpt>
      <trkpt lat="44.44105" lon="4.62142">
        <ele>131.8</ele>
      </trkpt>
      <trkpt lat="44.44109" lon="4.62127">
        <ele>133.7</ele>
      </trkpt>
      <trkpt lat="44.44111" lon="4.62119">
        <ele>134.8</ele>
      </trkpt>
      <trkpt lat="44.44113" lon="4.62113">
        <ele>135.6</ele>
      </trkpt>
      <trkpt lat="44.44032" lon="4.62274">
        <ele>120.4</ele>
      </trkpt>
      <trkpt lat="44.44031" lon="4.62283">
        <ele>119.9</ele>
      </trkpt>
      <trkpt lat="44.44029" lon="4.62301">
        <ele>118.9</ele>
      </trkpt>
      <trkpt lat="44.44025" lon="4.6232">
        <ele>117.9</ele>
      </trkpt>
      <trkpt lat="44.44025" lon="4.62327">
        <ele>117.5</ele>
      </trkpt>
      <trkpt lat="44.44025" lon="4.62329">
        <ele>117.4</ele>
      </trkpt>
      <trkpt lat="44.44025" lon="4.62332">
        <ele>117.3</ele>
      </trkpt>
      <trkpt lat="44.44026" lon="4.62336">
        <ele>117.2</ele>
      </trkpt>
      <trkpt lat="44.44028" lon="4.62345">
        <ele>117</ele>
      </trkpt>
      <trkpt lat="44.44032" lon="4.62364">
        <ele>116.5</ele>
      </trkpt>
      <trkpt lat="44.44037" lon="4.62381">
        <ele>116.1</ele>
      </trkpt>
      <trkpt lat="44.4404" lon="4.62389">
        <ele>115.9</ele>
      </trkpt>
      <trkpt lat="44.44043" lon="4.62395">
        <ele>115.8</ele>
      </trkpt>
      <trkpt lat="44.44047" lon="4.62409">
        <ele>115.4</ele>
      </trkpt>
      <trkpt lat="44.4405" lon="4.62418">
        <ele>115.3</ele>
      </trkpt>
      <trkpt lat="44.44059" lon="4.62407">
        <ele>115.8</ele>
      </trkpt>
      <trkpt lat="44.44066" lon="4.62397">
        <ele>116.4</ele>
      </trkpt>
      <trkpt lat="44.44068" lon="4.62395">
        <ele>116.6</ele>
      </trkpt>
      <trkpt lat="44.44073" lon="4.62392">
        <ele>116.9</ele>
      </trkpt>
      <trkpt lat="44.44081" lon="4.62396">
        <ele>116.9</ele>
      </trkpt>
      <trkpt lat="44.44082" lon="4.62397">
        <ele>116.9</ele>
      </trkpt>
      <trkpt lat="44.44088" lon="4.62404">
        <ele>117.1</ele>
      </trkpt>
      <trkpt lat="44.44093" lon="4.62409">
        <ele>117.3</ele>
      </trkpt>
      <trkpt lat="44.44097" lon="4.62413">
        <ele>117.6</ele>
      </trkpt>
      <trkpt lat="44.4411" lon="4.62418">
        <ele>119</ele>
      </trkpt>
      <trkpt lat="44.44121" lon="4.62419">
        <ele>120.2</ele>
      </trkpt>
      <trkpt lat="44.44139" lon="4.62431">
        <ele>122.6</ele>
      </trkpt>
      <trkpt lat="44.44144" lon="4.62436">
        <ele>123.4</ele>
      </trkpt>
      <trkpt lat="44.44149" lon="4.62441">
        <ele>124</ele>
      </trkpt>
      <trkpt lat="44.44157" lon="4.62452">
        <ele>125.1</ele>
      </trkpt>
      <trkpt lat="44.44163" lon="4.62459">
        <ele>125.7</ele>
      </trkpt>
      <trkpt lat="44.44169" lon="4.62462">
        <ele>126.5</ele>
      </trkpt>
      <trkpt lat="44.44178" lon="4.62473">
        <ele>128.4</ele>
      </trkpt>
      <trkpt lat="44.44187" lon="4.62488">
        <ele>130.9</ele>
      </trkpt>
      <trkpt lat="44.44201" lon="4.62514">
        <ele>136.1</ele>
      </trkpt>
      <trkpt lat="44.44203" lon="4.62521">
        <ele>137.4</ele>
      </trkpt>
      <trkpt lat="44.44214" lon="4.62536">
        <ele>141.1</ele>
      </trkpt>
      <trkpt lat="44.44214" lon="4.62541">
        <ele>141.6</ele>
      </trkpt>
      <trkpt lat="44.44225" lon="4.62556">
        <ele>144.9</ele>
      </trkpt>
      <trkpt lat="44.44223" lon="4.62546">
        <ele>143.8</ele>
      </trkpt>
      <trkpt lat="44.44225" lon="4.62541">
        <ele>143.7</ele>
      </trkpt>
      <trkpt lat="44.44234" lon="4.62533">
        <ele>144.8</ele>
      </trkpt>
      <trkpt lat="44.44236" lon="4.62534">
        <ele>145.3</ele>
      </trkpt>
      <trkpt lat="44.44236" lon="4.62535">
        <ele>145.3</ele>
      </trkpt>
      <trkpt lat="44.44239" lon="4.62535">
        <ele>146</ele>
      </trkpt>
      <trkpt lat="44.44245" lon="4.62537">
        <ele>147.1</ele>
      </trkpt>
      <trkpt lat="44.44253" lon="4.62539">
        <ele>148.8</ele>
      </trkpt>
      <trkpt lat="44.44258" lon="4.62544">
        <ele>150</ele>
      </trkpt>
      <trkpt lat="44.44262" lon="4.62547">
        <ele>151</ele>
      </trkpt>
      <trkpt lat="44.4427" lon="4.62553">
        <ele>152.9</ele>
      </trkpt>
      <trkpt lat="44.44278" lon="4.62559">
        <ele>155</ele>
      </trkpt>
      <trkpt lat="44.44292" lon="4.62571">
        <ele>158.8</ele>
      </trkpt>
      <trkpt lat="44.44297" lon="4.62573">
        <ele>160</ele>
      </trkpt>
      <trkpt lat="44.44303" lon="4.62577">
        <ele>161.7</ele>
      </trkpt>
      <trkpt lat="44.44307" lon="4.6258">
        <ele>162.8</ele>
      </trkpt>
      <trkpt lat="44.4431" lon="4.62585">
        <ele>164</ele>
      </trkpt>
      <trkpt lat="44.44315" lon="4.6259">
        <ele>165.5</ele>
      </trkpt>
      <trkpt lat="44.44313" lon="4.62594">
        <ele>165.6</ele>
      </trkpt>
      <trkpt lat="44.44325" lon="4.62602">
        <ele>168.7</ele>
      </trkpt>
      <trkpt lat="44.44338" lon="4.62606">
        <ele>170.4</ele>
      </trkpt>
      <trkpt lat="44.44342" lon="4.62609">
        <ele>170.6</ele>
      </trkpt>
      <trkpt lat="44.44346" lon="4.62613">
        <ele>170.8</ele>
      </trkpt>
      <trkpt lat="44.44353" lon="4.62613">
        <ele>170.6</ele>
      </trkpt>
      <trkpt lat="44.44357" lon="4.62616">
        <ele>170.9</ele>
      </trkpt>
      <trkpt lat="44.44366" lon="4.62624">
        <ele>171.6</ele>
      </trkpt>
      <trkpt lat="44.44376" lon="4.62635">
        <ele>173.2</ele>
      </trkpt>
      <trkpt lat="44.44383" lon="4.62641">
        <ele>174.1</ele>
      </trkpt>
      <trkpt lat="44.44389" lon="4.62646">
        <ele>175</ele>
      </trkpt>
      <trkpt lat="44.44393" lon="4.62651">
        <ele>176</ele>
      </trkpt>
      <trkpt lat="44.44395" lon="4.62657">
        <ele>177</ele>
      </trkpt>
      <trkpt lat="44.44396" lon="4.62665">
        <ele>178.6</ele>
      </trkpt>
      <trkpt lat="44.44399" lon="4.62674">
        <ele>181</ele>
      </trkpt>
      <trkpt lat="44.44404" lon="4.6268">
        <ele>182.9</ele>
      </trkpt>
      <trkpt lat="44.44408" lon="4.6269">
        <ele>186</ele>
      </trkpt>
      <trkpt lat="44.44414" lon="4.62696">
        <ele>188.2</ele>
      </trkpt>
      <trkpt lat="44.4442" lon="4.62699">
        <ele>189.3</ele>
      </trkpt>
      <trkpt lat="44.44429" lon="4.62705">
        <ele>190.8</ele>
      </trkpt>
      <trkpt lat="44.44435" lon="4.62711">
        <ele>192.2</ele>
      </trkpt>
      <trkpt lat="44.44442" lon="4.6271">
        <ele>192</ele>
      </trkpt>
      <trkpt lat="44.44448" lon="4.62712">
        <ele>192.3</ele>
      </trkpt>
      <trkpt lat="44.44452" lon="4.62713">
        <ele>192.6</ele>
      </trkpt>
      <trkpt lat="44.4446" lon="4.62716">
        <ele>193.5</ele>
      </trkpt>
      <trkpt lat="44.44467" lon="4.62723">
        <ele>195.6</ele>
      </trkpt>
      <trkpt lat="44.44476" lon="4.6273">
        <ele>198</ele>
      </trkpt>
      <trkpt lat="44.44483" lon="4.62735">
        <ele>199.5</ele>
      </trkpt>
      <trkpt lat="44.44494" lon="4.62736">
        <ele>200.1</ele>
      </trkpt>
      <trkpt lat="44.44498" lon="4.62738">
        <ele>200.8</ele>
      </trkpt>
      <trkpt lat="44.445" lon="4.62744">
        <ele>202.7</ele>
      </trkpt>
      <trkpt lat="44.44505" lon="4.62745">
        <ele>202.7</ele>
      </trkpt>
      <trkpt lat="44.44511" lon="4.6275">
        <ele>203.4</ele>
      </trkpt>
      <trkpt lat="44.44519" lon="4.62753">
        <ele>203.6</ele>
      </trkpt>
      <trkpt lat="44.44524" lon="4.62755">
        <ele>203.7</ele>
      </trkpt>
      <trkpt lat="44.44533" lon="4.62756">
        <ele>203</ele>
      </trkpt>
      <trkpt lat="44.44541" lon="4.62759">
        <ele>202.6</ele>
      </trkpt>
      <trkpt lat="44.44545" lon="4.62758">
        <ele>202.2</ele>
      </trkpt>
      <trkpt lat="44.44548" lon="4.62757">
        <ele>201.2</ele>
      </trkpt>
      <trkpt lat="44.44552" lon="4.62757">
        <ele>200.6</ele>
      </trkpt>
      <trkpt lat="44.44554" lon="4.62761">
        <ele>201.8</ele>
      </trkpt>
      <trkpt lat="44.44559" lon="4.62763">
        <ele>201.9</ele>
      </trkpt>
      <trkpt lat="44.44563" lon="4.62761">
        <ele>200.8</ele>
      </trkpt>
      <trkpt lat="44.44566" lon="4.62761">
        <ele>200.6</ele>
      </trkpt>
      <trkpt lat="44.44573" lon="4.62765">
        <ele>201.1</ele>
      </trkpt>
      <trkpt lat="44.44576" lon="4.62767">
        <ele>201.3</ele>
      </trkpt>
      <trkpt lat="44.44579" lon="4.6277">
        <ele>202.3</ele>
      </trkpt>
      <trkpt lat="44.44586" lon="4.62774">
        <ele>203</ele>
      </trkpt>
      <trkpt lat="44.44592" lon="4.62776">
        <ele>203</ele>
      </trkpt>
      <trkpt lat="44.44599" lon="4.62779">
        <ele>203.2</ele>
      </trkpt>
      <trkpt lat="44.44602" lon="4.62781">
        <ele>203.8</ele>
      </trkpt>
      <trkpt lat="44.44608" lon="4.62784">
        <ele>204.1</ele>
      </trkpt>
      <trkpt lat="44.44622" lon="4.62797">
        <ele>206.8</ele>
      </trkpt>
      <trkpt lat="44.44625" lon="4.62801">
        <ele>207.7</ele>
      </trkpt>
      <trkpt lat="44.44628" lon="4.62807">
        <ele>209</ele>
      </trkpt>
      <trkpt lat="44.44631" lon="4.62809">
        <ele>209.1</ele>
      </trkpt>
      <trkpt lat="44.44643" lon="4.62819">
        <ele>210.4</ele>
      </trkpt>
      <trkpt lat="44.44654" lon="4.62828">
        <ele>211</ele>
      </trkpt>
      <trkpt lat="44.44666" lon="4.62836">
        <ele>210.8</ele>
      </trkpt>
      <trkpt lat="44.44678" lon="4.62843">
        <ele>212.3</ele>
      </trkpt>
      <trkpt lat="44.44685" lon="4.62848">
        <ele>213.3</ele>
      </trkpt>
      <trkpt lat="44.44691" lon="4.6285">
        <ele>213.4</ele>
      </trkpt>
      <trkpt lat="44.44696" lon="4.6285">
        <ele>213</ele>
      </trkpt>
      <trkpt lat="44.44701" lon="4.62854">
        <ele>213.9</ele>
      </trkpt>
      <trkpt lat="44.44711" lon="4.62858">
        <ele>214</ele>
      </trkpt>
      <trkpt lat="44.44716" lon="4.62859">
        <ele>213.9</ele>
      </trkpt>
      <trkpt lat="44.44723" lon="4.62862">
        <ele>214</ele>
      </trkpt>
      <trkpt lat="44.44729" lon="4.62864">
        <ele>214.2</ele>
      </trkpt>
      <trkpt lat="44.44737" lon="4.62869">
        <ele>214.7</ele>
      </trkpt>
      <trkpt lat="44.44743" lon="4.62873">
        <ele>215</ele>
      </trkpt>
      <trkpt lat="44.44753" lon="4.62876">
        <ele>215</ele>
      </trkpt>
      <trkpt lat="44.44758" lon="4.62882">
        <ele>216.3</ele>
      </trkpt>
      <trkpt lat="44.44764" lon="4.62886">
        <ele>217.2</ele>
      </trkpt>
      <trkpt lat="44.44768" lon="4.62887">
        <ele>216.8</ele>
      </trkpt>
      <trkpt lat="44.44771" lon="4.62889">
        <ele>217.2</ele>
      </trkpt>
      <trkpt lat="44.4478" lon="4.62892">
        <ele>217.4</ele>
      </trkpt>
      <trkpt lat="44.44793" lon="4.62898">
        <ele>217.7</ele>
      </trkpt>
      <trkpt lat="44.44805" lon="4.629">
        <ele>217</ele>
      </trkpt>
      <trkpt lat="44.44808" lon="4.62904">
        <ele>217.7</ele>
      </trkpt>
      <trkpt lat="44.4482" lon="4.62912">
        <ele>218.3</ele>
      </trkpt>
      <trkpt lat="44.44834" lon="4.62918">
        <ele>218.3</ele>
      </trkpt>
      <trkpt lat="44.44849" lon="4.62923">
        <ele>217.7</ele>
      </trkpt>
      <trkpt lat="44.44851" lon="4.62926">
        <ele>218.1</ele>
      </trkpt>
      <trkpt lat="44.44854" lon="4.62934">
        <ele>219.7</ele>
      </trkpt>
      <trkpt lat="44.44859" lon="4.6294">
        <ele>220.6</ele>
      </trkpt>
      <trkpt lat="44.44862" lon="4.62951">
        <ele>222.8</ele>
      </trkpt>
      <trkpt lat="44.44863" lon="4.62955">
        <ele>223.6</ele>
      </trkpt>
      <trkpt lat="44.44864" lon="4.62961">
        <ele>224.9</ele>
      </trkpt>
      <trkpt lat="44.4487" lon="4.62969">
        <ele>225.8</ele>
      </trkpt>
      <trkpt lat="44.44879" lon="4.62982">
        <ele>227.1</ele>
      </trkpt>
      <trkpt lat="44.44888" lon="4.62994">
        <ele>228.1</ele>
      </trkpt>
      <trkpt lat="44.44904" lon="4.63011">
        <ele>230.3</ele>
      </trkpt>
      <trkpt lat="44.44917" lon="4.63018">
        <ele>230.6</ele>
      </trkpt>
      <trkpt lat="44.44937" lon="4.63026">
        <ele>232.1</ele>
      </trkpt>
      <trkpt lat="44.44946" lon="4.6303">
        <ele>232.7</ele>
      </trkpt>
      <trkpt lat="44.44959" lon="4.63036">
        <ele>233.6</ele>
      </trkpt>
      <trkpt lat="44.4497" lon="4.6304">
        <ele>233.9</ele>
      </trkpt>
      <trkpt lat="44.44987" lon="4.63043">
        <ele>233.5</ele>
      </trkpt>
      <trkpt lat="44.44993" lon="4.63041">
        <ele>232.4</ele>
      </trkpt>
      <trkpt lat="44.45" lon="4.63041">
        <ele>231.8</ele>
      </trkpt>
      <trkpt lat="44.45011" lon="4.63036">
        <ele>230.6</ele>
      </trkpt>
      <trkpt lat="44.45019" lon="4.63035">
        <ele>230.2</ele>
      </trkpt>
      <trkpt lat="44.45029" lon="4.63037">
        <ele>230.9</ele>
      </trkpt>
      <trkpt lat="44.45037" lon="4.63038">
        <ele>231.2</ele>
      </trkpt>
      <trkpt lat="44.4505" lon="4.63041">
        <ele>231.9</ele>
      </trkpt>
      <trkpt lat="44.45054" lon="4.6304">
        <ele>231.6</ele>
      </trkpt>
      <trkpt lat="44.45057" lon="4.63037">
        <ele>231</ele>
      </trkpt>
      <trkpt lat="44.45062" lon="4.63034">
        <ele>230.3</ele>
      </trkpt>
      <trkpt lat="44.45067" lon="4.63033">
        <ele>230.2</ele>
      </trkpt>
      <trkpt lat="44.45073" lon="4.63038">
        <ele>231.2</ele>
      </trkpt>
      <trkpt lat="44.45083" lon="4.63041">
        <ele>231.9</ele>
      </trkpt>
      <trkpt lat="44.45088" lon="4.63044">
        <ele>232.5</ele>
      </trkpt>
      <trkpt lat="44.45092" lon="4.63045">
        <ele>232.6</ele>
      </trkpt>
      <trkpt lat="44.45099" lon="4.63054">
        <ele>234.5</ele>
      </trkpt>
      <trkpt lat="44.45108" lon="4.63066">
        <ele>236.8</ele>
      </trkpt>
      <trkpt lat="44.45122" lon="4.63079">
        <ele>239.3</ele>
      </trkpt>
      <trkpt lat="44.45124" lon="4.63081">
        <ele>239.6</ele>
      </trkpt>
      <trkpt lat="44.45126" lon="4.63083">
        <ele>239.9</ele>
      </trkpt>
      <trkpt lat="44.45128" lon="4.63093">
        <ele>242.1</ele>
      </trkpt>
      <trkpt lat="44.45135" lon="4.63104">
        <ele>244.5</ele>
      </trkpt>
      <trkpt lat="44.45138" lon="4.63109">
        <ele>245.6</ele>
      </trkpt>
      <trkpt lat="44.45142" lon="4.63115">
        <ele>246.6</ele>
      </trkpt>
      <trkpt lat="44.45152" lon="4.63132">
        <ele>249.7</ele>
      </trkpt>
      <trkpt lat="44.45166" lon="4.63142">
        <ele>250.5</ele>
      </trkpt>
      <trkpt lat="44.45179" lon="4.6315">
        <ele>251.2</ele>
      </trkpt>
      <trkpt lat="44.4519" lon="4.63157">
        <ele>251.8</ele>
      </trkpt>
      <trkpt lat="44.45195" lon="4.63162">
        <ele>252.5</ele>
      </trkpt>
      <trkpt lat="44.45208" lon="4.63173">
        <ele>254.2</ele>
      </trkpt>
      <trkpt lat="44.45224" lon="4.63189">
        <ele>257.4</ele>
      </trkpt>
      <trkpt lat="44.45229" lon="4.63191">
        <ele>257.4</ele>
      </trkpt>
      <trkpt lat="44.45238" lon="4.63202">
        <ele>259.3</ele>
      </trkpt>
      <trkpt lat="44.45248" lon="4.6321">
        <ele>260.2</ele>
      </trkpt>
      <trkpt lat="44.45266" lon="4.63224">
        <ele>261.4</ele>
      </trkpt>
      <trkpt lat="44.45277" lon="4.63233">
        <ele>262.2</ele>
      </trkpt>
      <trkpt lat="44.45286" lon="4.63246">
        <ele>264</ele>
      </trkpt>
      <trkpt lat="44.4529" lon="4.63251">
        <ele>264.6</ele>
      </trkpt>
      <trkpt lat="44.45299" lon="4.63256">
        <ele>265.2</ele>
      </trkpt>
      <trkpt lat="44.45307" lon="4.63263">
        <ele>266.5</ele>
      </trkpt>
      <trkpt lat="44.45317" lon="4.63268">
        <ele>266.7</ele>
      </trkpt>
      <trkpt lat="44.45327" lon="4.63281">
        <ele>269.1</ele>
      </trkpt>
      <trkpt lat="44.45339" lon="4.63289">
        <ele>270.3</ele>
      </trkpt>
      <trkpt lat="44.45345" lon="4.63294">
        <ele>271.4</ele>
      </trkpt>
      <trkpt lat="44.45353" lon="4.63306">
        <ele>274.3</ele>
      </trkpt>
      <trkpt lat="44.4536" lon="4.63308">
        <ele>274.4</ele>
      </trkpt>
      <trkpt lat="44.45372" lon="4.63314">
        <ele>275.2</ele>
      </trkpt>
      <trkpt lat="44.45385" lon="4.63325">
        <ele>277</ele>
      </trkpt>
      <trkpt lat="44.4539" lon="4.63333">
        <ele>278.4</ele>
      </trkpt>
      <trkpt lat="44.45405" lon="4.63342">
        <ele>279.4</ele>
      </trkpt>
      <trkpt lat="44.45417" lon="4.63351">
        <ele>280.3</ele>
      </trkpt>
      <trkpt lat="44.45428" lon="4.6336">
        <ele>283.4</ele>
      </trkpt>
      <trkpt lat="44.4544" lon="4.6337">
        <ele>286.9</ele>
      </trkpt>
      <trkpt lat="44.45444" lon="4.63369">
        <ele>287.1</ele>
      </trkpt>
      <trkpt lat="44.45448" lon="4.63372">
        <ele>288.2</ele>
      </trkpt>
      <trkpt lat="44.45456" lon="4.63378">
        <ele>290.2</ele>
      </trkpt>
      <trkpt lat="44.4547" lon="4.6338">
        <ele>291.8</ele>
      </trkpt>
      <trkpt lat="44.45478" lon="4.63377">
        <ele>291.9</ele>
      </trkpt>
      <trkpt lat="44.45484" lon="4.63377">
        <ele>292.3</ele>
      </trkpt>
      <trkpt lat="44.45488" lon="4.63373">
        <ele>292</ele>
      </trkpt>
      <trkpt lat="44.45491" lon="4.6337">
        <ele>291.7</ele>
      </trkpt>
      <trkpt lat="44.45498" lon="4.6336">
        <ele>290.7</ele>
      </trkpt>
      <trkpt lat="44.45503" lon="4.63363">
        <ele>291.3</ele>
      </trkpt>
      <trkpt lat="44.45507" lon="4.63367">
        <ele>291.9</ele>
      </trkpt>
      <trkpt lat="44.45511" lon="4.63368">
        <ele>292</ele>
      </trkpt>
      <trkpt lat="44.45523" lon="4.63369">
        <ele>291.9</ele>
      </trkpt>
      <trkpt lat="44.45532" lon="4.63375">
        <ele>292.7</ele>
      </trkpt>
      <trkpt lat="44.45543" lon="4.63381">
        <ele>293.5</ele>
      </trkpt>
      <trkpt lat="44.45548" lon="4.63386">
        <ele>294.1</ele>
      </trkpt>
      <trkpt lat="44.45552" lon="4.63393">
        <ele>295.2</ele>
      </trkpt>
      <trkpt lat="44.45562" lon="4.63399">
        <ele>295.9</ele>
      </trkpt>
      <trkpt lat="44.45572" lon="4.63403">
        <ele>296.2</ele>
      </trkpt>
      <trkpt lat="44.45586" lon="4.63411">
        <ele>296.9</ele>
      </trkpt>
      <trkpt lat="44.45602" lon="4.6342">
        <ele>296.8</ele>
      </trkpt>
      <trkpt lat="44.45618" lon="4.63432">
        <ele>297.6</ele>
      </trkpt>
      <trkpt lat="44.45629" lon="4.63438">
        <ele>297.6</ele>
      </trkpt>
      <trkpt lat="44.45641" lon="4.6345">
        <ele>298.6</ele>
      </trkpt>
      <trkpt lat="44.45648" lon="4.63458">
        <ele>299</ele>
      </trkpt>
      <trkpt lat="44.45661" lon="4.63466">
        <ele>298.8</ele>
      </trkpt>
      <trkpt lat="44.45675" lon="4.63476">
        <ele>298.8</ele>
      </trkpt>
      <trkpt lat="44.45679" lon="4.63479">
        <ele>299</ele>
      </trkpt>
      <trkpt lat="44.45682" lon="4.63485">
        <ele>299.6</ele>
      </trkpt>
      <trkpt lat="44.45711" lon="4.63498">
        <ele>297.9</ele>
      </trkpt>
      <trkpt lat="44.45734" lon="4.63523">
        <ele>299.5</ele>
      </trkpt>
      <trkpt lat="44.45739" lon="4.63532">
        <ele>300.3</ele>
      </trkpt>
      <trkpt lat="44.45751" lon="4.6355">
        <ele>301.4</ele>
      </trkpt>
      <trkpt lat="44.45758" lon="4.63551">
        <ele>301.2</ele>
      </trkpt>
      <trkpt lat="44.45767" lon="4.63552">
        <ele>300.9</ele>
      </trkpt>
      <trkpt lat="44.45773" lon="4.63551">
        <ele>300.3</ele>
      </trkpt>
      <trkpt lat="44.45792" lon="4.63553">
        <ele>299.7</ele>
      </trkpt>
      <trkpt lat="44.45806" lon="4.6355">
        <ele>298.5</ele>
      </trkpt>
      <trkpt lat="44.45818" lon="4.63544">
        <ele>297.1</ele>
      </trkpt>
      <trkpt lat="44.45833" lon="4.63538">
        <ele>295.6</ele>
      </trkpt>
      <trkpt lat="44.45843" lon="4.6353">
        <ele>294.2</ele>
      </trkpt>
      <trkpt lat="44.45849" lon="4.63527">
        <ele>293.6</ele>
      </trkpt>
      <trkpt lat="44.45863" lon="4.63523">
        <ele>292.6</ele>
      </trkpt>
      <trkpt lat="44.45871" lon="4.63521">
        <ele>292.1</ele>
      </trkpt>
      <trkpt lat="44.45882" lon="4.63517">
        <ele>291.2</ele>
      </trkpt>
      <trkpt lat="44.45902" lon="4.63518">
        <ele>290.4</ele>
      </trkpt>
      <trkpt lat="44.45911" lon="4.63519">
        <ele>290.2</ele>
      </trkpt>
      <trkpt lat="44.45919" lon="4.63512">
        <ele>289.4</ele>
      </trkpt>
      <trkpt lat="44.45927" lon="4.63505">
        <ele>288.8</ele>
      </trkpt>
      <trkpt lat="44.45934" lon="4.63496">
        <ele>288.5</ele>
      </trkpt>
      <trkpt lat="44.4594" lon="4.63488">
        <ele>288.5</ele>
      </trkpt>
      <trkpt lat="44.45944" lon="4.63485">
        <ele>288.5</ele>
      </trkpt>
      <trkpt lat="44.45949" lon="4.63484">
        <ele>288.6</ele>
      </trkpt>
      <trkpt lat="44.45954" lon="4.63484">
        <ele>288.9</ele>
      </trkpt>
      <trkpt lat="44.45958" lon="4.63484">
        <ele>289</ele>
      </trkpt>
      <trkpt lat="44.45961" lon="4.63481">
        <ele>289</ele>
      </trkpt>
      <trkpt lat="44.45978" lon="4.63457">
        <ele>289</ele>
      </trkpt>
      <trkpt lat="44.45988" lon="4.63443">
        <ele>289.1</ele>
      </trkpt>
      <trkpt lat="44.45992" lon="4.63442">
        <ele>289.2</ele>
      </trkpt>
      <trkpt lat="44.45996" lon="4.63443">
        <ele>289.5</ele>
      </trkpt>
      <trkpt lat="44.46006" lon="4.63444">
        <ele>289.3</ele>
      </trkpt>
      <trkpt lat="44.46036" lon="4.63444">
        <ele>287.8</ele>
      </trkpt>
      <trkpt lat="44.46061" lon="4.63443">
        <ele>286.4</ele>
      </trkpt>
      <trkpt lat="44.46085" lon="4.63438">
        <ele>284.9</ele>
      </trkpt>
      <trkpt lat="44.46104" lon="4.63433">
        <ele>285.9</ele>
      </trkpt>
      <trkpt lat="44.46118" lon="4.63433">
        <ele>286.9</ele>
      </trkpt>
      <trkpt lat="44.46126" lon="4.63437">
        <ele>287.7</ele>
      </trkpt>
      <trkpt lat="44.46139" lon="4.63447">
        <ele>288.7</ele>
      </trkpt>
      <trkpt lat="44.46145" lon="4.63449">
        <ele>289</ele>
      </trkpt>
      <trkpt lat="44.46149" lon="4.63449">
        <ele>289.2</ele>
      </trkpt>
      <trkpt lat="44.46152" lon="4.63449">
        <ele>289.5</ele>
      </trkpt>
      <trkpt lat="44.4616" lon="4.63446">
        <ele>289.9</ele>
      </trkpt>
      <trkpt lat="44.4618" lon="4.63437">
        <ele>291.9</ele>
      </trkpt>
      <trkpt lat="44.46193" lon="4.63437">
        <ele>293.3</ele>
      </trkpt>
      <trkpt lat="44.46206" lon="4.63438">
        <ele>294.6</ele>
      </trkpt>
      <trkpt lat="44.4622" lon="4.63438">
        <ele>296.1</ele>
      </trkpt>
      <trkpt lat="44.4623" lon="4.6344">
        <ele>297</ele>
      </trkpt>
      <trkpt lat="44.46237" lon="4.63442">
        <ele>297.5</ele>
      </trkpt>
      <trkpt lat="44.46241" lon="4.63446">
        <ele>297.7</ele>
      </trkpt>
      <trkpt lat="44.46246" lon="4.63452">
        <ele>297.6</ele>
      </trkpt>
      <trkpt lat="44.46257" lon="4.63477">
        <ele>296.3</ele>
      </trkpt>
      <trkpt lat="44.46263" lon="4.63488">
        <ele>295.5</ele>
      </trkpt>
      <trkpt lat="44.46266" lon="4.63494">
        <ele>295</ele>
      </trkpt>
      <trkpt lat="44.4627" lon="4.63501">
        <ele>294.5</ele>
      </trkpt>
      <trkpt lat="44.46272" lon="4.63512">
        <ele>294.4</ele>
      </trkpt>
      <trkpt lat="44.46272" lon="4.63527">
        <ele>294.2</ele>
      </trkpt>
      <trkpt lat="44.4627" lon="4.63551">
        <ele>294.1</ele>
      </trkpt>
      <trkpt lat="44.4627" lon="4.6356">
        <ele>294</ele>
      </trkpt>
      <trkpt lat="44.4627" lon="4.63571">
        <ele>293.9</ele>
      </trkpt>
      <trkpt lat="44.46272" lon="4.6358">
        <ele>293.7</ele>
      </trkpt>
      <trkpt lat="44.46275" lon="4.63587">
        <ele>293.1</ele>
      </trkpt>
      <trkpt lat="44.46278" lon="4.63592">
        <ele>292.4</ele>
      </trkpt>
      <trkpt lat="44.46284" lon="4.63598">
        <ele>291.4</ele>
      </trkpt>
      <trkpt lat="44.46301" lon="4.63612">
        <ele>288.9</ele>
      </trkpt>
      <trkpt lat="44.46308" lon="4.63618">
        <ele>287.8</ele>
      </trkpt>
      <trkpt lat="44.46313" lon="4.63622">
        <ele>287</ele>
      </trkpt>
      <trkpt lat="44.46316" lon="4.63626">
        <ele>286.4</ele>
      </trkpt>
      <trkpt lat="44.46319" lon="4.63632">
        <ele>285.6</ele>
      </trkpt>
      <trkpt lat="44.46324" lon="4.63645">
        <ele>284</ele>
      </trkpt>
      <trkpt lat="44.46328" lon="4.63657">
        <ele>282.3</ele>
      </trkpt>
      <trkpt lat="44.46332" lon="4.63667">
        <ele>281</ele>
      </trkpt>
      <trkpt lat="44.46355" lon="4.63704">
        <ele>281.6</ele>
      </trkpt>
      <trkpt lat="44.46368" lon="4.63728">
        <ele>281.7</ele>
      </trkpt>
      <trkpt lat="44.46372" lon="4.63738">
        <ele>281.2</ele>
      </trkpt>
      <trkpt lat="44.46375" lon="4.63749">
        <ele>280.6</ele>
      </trkpt>
      <trkpt lat="44.46378" lon="4.63763">
        <ele>279.6</ele>
      </trkpt>
      <trkpt lat="44.46382" lon="4.63772">
        <ele>279.1</ele>
      </trkpt>
      <trkpt lat="44.46418" lon="4.63837">
        <ele>275.8</ele>
      </trkpt>
      <trkpt lat="44.46425" lon="4.63849">
        <ele>276.1</ele>
      </trkpt>
      <trkpt lat="44.46457" lon="4.63899">
        <ele>276.7</ele>
      </trkpt>
      <trkpt lat="44.46473" lon="4.63925">
        <ele>276.1</ele>
      </trkpt>
      <trkpt lat="44.46482" lon="4.63943">
        <ele>275.4</ele>
      </trkpt>
      <trkpt lat="44.46488" lon="4.63951">
        <ele>275.3</ele>
      </trkpt>
      <trkpt lat="44.46492" lon="4.63956">
        <ele>275.3</ele>
      </trkpt>
      <trkpt lat="44.46499" lon="4.6396">
        <ele>275.6</ele>
      </trkpt>
      <trkpt lat="44.46506" lon="4.63965">
        <ele>275</ele>
      </trkpt>
      <trkpt lat="44.46517" lon="4.6397">
        <ele>274</ele>
      </trkpt>
      <trkpt lat="44.46546" lon="4.63983">
        <ele>271</ele>
      </trkpt>
      <trkpt lat="44.46598" lon="4.6401">
        <ele>265.3</ele>
      </trkpt>
      <trkpt lat="44.46618" lon="4.6402">
        <ele>264.6</ele>
      </trkpt>
      <trkpt lat="44.46627" lon="4.64025">
        <ele>264.3</ele>
      </trkpt>
      <trkpt lat="44.46634" lon="4.64029">
        <ele>264</ele>
      </trkpt>
      <trkpt lat="44.4664" lon="4.64035">
        <ele>263.5</ele>
      </trkpt>
      <trkpt lat="44.46664" lon="4.64063">
        <ele>261</ele>
      </trkpt>
      <trkpt lat="44.46678" lon="4.64082">
        <ele>259.8</ele>
      </trkpt>
      <trkpt lat="44.46686" lon="4.64095">
        <ele>259.4</ele>
      </trkpt>
      <trkpt lat="44.46708" lon="4.64147">
        <ele>257.3</ele>
      </trkpt>
      <trkpt lat="44.46713" lon="4.64156">
        <ele>256.9</ele>
      </trkpt>
      <trkpt lat="44.46717" lon="4.64163">
        <ele>256.6</ele>
      </trkpt>
      <trkpt lat="44.46726" lon="4.64174">
        <ele>256.2</ele>
      </trkpt>
      <trkpt lat="44.46739" lon="4.64188">
        <ele>255.5</ele>
      </trkpt>
      <trkpt lat="44.46748" lon="4.64199">
        <ele>254.8</ele>
      </trkpt>
      <trkpt lat="44.46756" lon="4.64211">
        <ele>254.1</ele>
      </trkpt>
      <trkpt lat="44.46776" lon="4.64248">
        <ele>250.8</ele>
      </trkpt>
      <trkpt lat="44.46784" lon="4.64261">
        <ele>250.2</ele>
      </trkpt>
      <trkpt lat="44.46793" lon="4.64271">
        <ele>249.8</ele>
      </trkpt>
      <trkpt lat="44.46804" lon="4.64281">
        <ele>249.5</ele>
      </trkpt>
      <trkpt lat="44.46815" lon="4.64291">
        <ele>249.4</ele>
      </trkpt>
      <trkpt lat="44.46827" lon="4.64298">
        <ele>249.4</ele>
      </trkpt>
      <trkpt lat="44.46875" lon="4.64315">
        <ele>243</ele>
      </trkpt>
      <trkpt lat="44.46902" lon="4.64328">
        <ele>238.4</ele>
      </trkpt>
      <trkpt lat="44.46918" lon="4.64338">
        <ele>236.1</ele>
      </trkpt>
      <trkpt lat="44.46944" lon="4.64361">
        <ele>234.9</ele>
      </trkpt>
      <trkpt lat="44.46966" lon="4.64394">
        <ele>231.9</ele>
      </trkpt>
      <trkpt lat="44.46972" lon="4.64399">
        <ele>231</ele>
      </trkpt>
      <trkpt lat="44.46994" lon="4.6447">
        <ele>227.4</ele>
      </trkpt>
      <trkpt lat="44.47032" lon="4.64551">
        <ele>225.5</ele>
      </trkpt>
      <trkpt lat="44.47036" lon="4.64585">
        <ele>224</ele>
      </trkpt>
      <trkpt lat="44.47067" lon="4.64675">
        <ele>213.4</ele>
      </trkpt>
      <trkpt lat="44.47084" lon="4.64753">
        <ele>204.4</ele>
      </trkpt>
      <trkpt lat="44.47101" lon="4.6481">
        <ele>208.3</ele>
      </trkpt>
      <trkpt lat="44.47112" lon="4.64828">
        <ele>208.8</ele>
      </trkpt>
      <trkpt lat="44.47124" lon="4.64849">
        <ele>208.6</ele>
      </trkpt>
      <trkpt lat="44.47131" lon="4.64858">
        <ele>208.2</ele>
      </trkpt>
      <trkpt lat="44.47135" lon="4.64871">
        <ele>207.4</ele>
      </trkpt>
      <trkpt lat="44.47141" lon="4.6488">
        <ele>206.4</ele>
      </trkpt>
      <trkpt lat="44.47168" lon="4.64907">
        <ele>200.5</ele>
      </trkpt>
      <trkpt lat="44.47225" lon="4.64957">
        <ele>207.7</ele>
      </trkpt>
      <trkpt lat="44.47247" lon="4.6498">
        <ele>209.1</ele>
      </trkpt>
      <trkpt lat="44.47257" lon="4.64994">
        <ele>209.5</ele>
      </trkpt>
      <trkpt lat="44.47287" lon="4.65036">
        <ele>211.1</ele>
      </trkpt>
      <trkpt lat="44.47311" lon="4.65069">
        <ele>206.7</ele>
      </trkpt>
      <trkpt lat="44.47316" lon="4.65102">
        <ele>201.1</ele>
      </trkpt>
      <trkpt lat="44.4735" lon="4.65179">
        <ele>185.2</ele>
      </trkpt>
      <trkpt lat="44.4736" lon="4.65156">
        <ele>189.1</ele>
      </trkpt>
      <trkpt lat="44.47376" lon="4.65197">
        <ele>181.3</ele>
      </trkpt>
      <trkpt lat="44.47383" lon="4.65255">
        <ele>170.9</ele>
      </trkpt>
      <trkpt lat="44.47406" lon="4.65234">
        <ele>170.5</ele>
      </trkpt>
      <trkpt lat="44.47419" lon="4.65235">
        <ele>169.8</ele>
      </trkpt>
      <trkpt lat="44.47433" lon="4.65246">
        <ele>172.1</ele>
      </trkpt>
      <trkpt lat="44.47449" lon="4.65294">
        <ele>173.9</ele>
      </trkpt>
      <trkpt lat="44.47465" lon="4.65354">
        <ele>173.3</ele>
      </trkpt>
      <trkpt lat="44.47487" lon="4.65439">
        <ele>168.5</ele>
      </trkpt>
      <trkpt lat="44.47543" lon="4.65596">
        <ele>166</ele>
      </trkpt>
      <trkpt lat="44.47583" lon="4.65706">
        <ele>154.8</ele>
      </trkpt>
      <trkpt lat="44.47658" lon="4.65893">
        <ele>148.8</ele>
      </trkpt>
      <trkpt lat="44.47691" lon="4.65941">
        <ele>143.6</ele>
      </trkpt>
      <trkpt lat="44.47721" lon="4.65939">
        <ele>141.8</ele>
      </trkpt>
      <trkpt lat="44.4777" lon="4.65911">
        <ele>143.1</ele>
      </trkpt>
      <trkpt lat="44.47801" lon="4.65905">
        <ele>142.3</ele>
      </trkpt>
      <trkpt lat="44.47804" lon="4.6591">
        <ele>141.2</ele>
      </trkpt>
      <trkpt lat="44.47811" lon="4.65914">
        <ele>139.8</ele>
      </trkpt>
      <trkpt lat="44.47814" lon="4.65867">
        <ele>149.1</ele>
      </trkpt>
      <trkpt lat="44.47826" lon="4.65844">
        <ele>152.6</ele>
      </trkpt>
      <trkpt lat="44.47823" lon="4.65839">
        <ele>153.8</ele>
      </trkpt>
      <trkpt lat="44.47798" lon="4.6582">
        <ele>159.7</ele>
      </trkpt>
      <trkpt lat="44.47797" lon="4.65808">
        <ele>161.7</ele>
      </trkpt>
      <trkpt lat="44.47818" lon="4.65779">
        <ele>163.3</ele>
      </trkpt>
      <trkpt lat="44.47831" lon="4.65774">
        <ele>161.5</ele>
      </trkpt>
      <trkpt lat="44.47843" lon="4.65776">
        <ele>160.8</ele>
      </trkpt>
      <trkpt lat="44.47885" lon="4.65812">
        <ele>157.2</ele>
      </trkpt>
      <trkpt lat="44.479" lon="4.65821">
        <ele>156.6</ele>
      </trkpt>
      <trkpt lat="44.47957" lon="4.65842">
        <ele>155</ele>
      </trkpt>
      <trkpt lat="44.47976" lon="4.6586">
        <ele>153.6</ele>
      </trkpt>
      <trkpt lat="44.47991" lon="4.65877">
        <ele>153.2</ele>
      </trkpt>
      <trkpt lat="44.47993" lon="4.65883">
        <ele>153.1</ele>
      </trkpt>
      <trkpt lat="44.48005" lon="4.6591">
        <ele>151.8</ele>
      </trkpt>
      <trkpt lat="44.48022" lon="4.65941">
        <ele>147</ele>
      </trkpt>
      <trkpt lat="44.48042" lon="4.65978">
        <ele>143.2</ele>
      </trkpt>
      <trkpt lat="44.48064" lon="4.66024">
        <ele>141.3</ele>
      </trkpt>
      <trkpt lat="44.48099" lon="4.66084">
        <ele>139.3</ele>
      </trkpt>
      <trkpt lat="44.48106" lon="4.66095">
        <ele>138.4</ele>
      </trkpt>
      <trkpt lat="44.48123" lon="4.66109">
        <ele>138.3</ele>
      </trkpt>
      <trkpt lat="44.48129" lon="4.66119">
        <ele>138.3</ele>
      </trkpt>
      <trkpt lat="44.48134" lon="4.66136">
        <ele>138</ele>
      </trkpt>
      <trkpt lat="44.48141" lon="4.66161">
        <ele>138.2</ele>
      </trkpt>
      <trkpt lat="44.48147" lon="4.66176">
        <ele>138.1</ele>
      </trkpt>
      <trkpt lat="44.48152" lon="4.66186">
        <ele>137.9</ele>
      </trkpt>
      <trkpt lat="44.48166" lon="4.66209">
        <ele>137.8</ele>
      </trkpt>
      <trkpt lat="44.48185" lon="4.66235">
        <ele>136.1</ele>
      </trkpt>
      <trkpt lat="44.48199" lon="4.66259">
        <ele>135.5</ele>
      </trkpt>
      <trkpt lat="44.48211" lon="4.66287">
        <ele>136.1</ele>
      </trkpt>
      <trkpt lat="44.4822" lon="4.66298">
        <ele>136.9</ele>
      </trkpt>
      <trkpt lat="44.48229" lon="4.66305">
        <ele>137.7</ele>
      </trkpt>
      <trkpt lat="44.48244" lon="4.66314">
        <ele>139.3</ele>
      </trkpt>
      <trkpt lat="44.48267" lon="4.66328">
        <ele>136.4</ele>
      </trkpt>
      <trkpt lat="44.48294" lon="4.66344">
        <ele>132.3</ele>
      </trkpt>
      <trkpt lat="44.48318" lon="4.66359">
        <ele>129.7</ele>
      </trkpt>
      <trkpt lat="44.48341" lon="4.66375">
        <ele>127.5</ele>
      </trkpt>
      <trkpt lat="44.48369" lon="4.66395">
        <ele>124.7</ele>
      </trkpt>
      <trkpt lat="44.48392" lon="4.66419">
        <ele>121.5</ele>
      </trkpt>
      <trkpt lat="44.48416" lon="4.66442">
        <ele>118.4</ele>
      </trkpt>
      <trkpt lat="44.48434" lon="4.66464">
        <ele>117.4</ele>
      </trkpt>
      <trkpt lat="44.48461" lon="4.66504">
        <ele>115.5</ele>
      </trkpt>
      <trkpt lat="44.48484" lon="4.66538">
        <ele>114.4</ele>
      </trkpt>
      <trkpt lat="44.48519" lon="4.66586">
        <ele>111</ele>
      </trkpt>
      <trkpt lat="44.48535" lon="4.66618">
        <ele>110</ele>
      </trkpt>
      <trkpt lat="44.48572" lon="4.66682">
        <ele>104.7</ele>
      </trkpt>
      <trkpt lat="44.48582" lon="4.66694">
        <ele>103.1</ele>
      </trkpt>
      <trkpt lat="44.48587" lon="4.66702">
        <ele>102.7</ele>
      </trkpt>
      <trkpt lat="44.48598" lon="4.66711">
        <ele>101.3</ele>
      </trkpt>
      <trkpt lat="44.48608" lon="4.66724">
        <ele>100</ele>
      </trkpt>
      <trkpt lat="44.48616" lon="4.66743">
        <ele>99.4</ele>
      </trkpt>
      <trkpt lat="44.48625" lon="4.66771">
        <ele>98.4</ele>
      </trkpt>
      <trkpt lat="44.4863" lon="4.66785">
        <ele>97.7</ele>
      </trkpt>
      <trkpt lat="44.48649" lon="4.66833">
        <ele>95.1</ele>
      </trkpt>
      <trkpt lat="44.48664" lon="4.66866">
        <ele>91</ele>
      </trkpt>
      <trkpt lat="44.48683" lon="4.66901">
        <ele>87.5</ele>
      </trkpt>
      <trkpt lat="44.48693" lon="4.66916">
        <ele>85.9</ele>
      </trkpt>
      <trkpt lat="44.487" lon="4.6693">
        <ele>84.9</ele>
      </trkpt>
      <trkpt lat="44.4871" lon="4.66955">
        <ele>83.5</ele>
      </trkpt>
      <trkpt lat="44.48714" lon="4.66963">
        <ele>82.8</ele>
      </trkpt>
      <trkpt lat="44.48726" lon="4.66979">
        <ele>81</ele>
      </trkpt>
      <trkpt lat="44.48728" lon="4.66986">
        <ele>80.6</ele>
      </trkpt>
      <trkpt lat="44.48728" lon="4.66992">
        <ele>80.6</ele>
      </trkpt>
      <trkpt lat="44.48728" lon="4.67002">
        <ele>80.8</ele>
      </trkpt>
      <trkpt lat="44.48729" lon="4.67007">
        <ele>81.1</ele>
      </trkpt>
      <trkpt lat="44.4873" lon="4.67012">
        <ele>81.1</ele>
      </trkpt>
      <trkpt lat="44.48734" lon="4.67017">
        <ele>80.9</ele>
      </trkpt>
      <trkpt lat="44.48743" lon="4.67023">
        <ele>79.8</ele>
      </trkpt>
      <trkpt lat="44.48752" lon="4.67031">
        <ele>79.1</ele>
      </trkpt>
      <trkpt lat="44.48763" lon="4.67042">
        <ele>78.8</ele>
      </trkpt>
      <trkpt lat="44.48771" lon="4.67057">
        <ele>78.7</ele>
      </trkpt>
      <trkpt lat="44.48786" lon="4.67083">
        <ele>78.2</ele>
      </trkpt>
      <trkpt lat="44.48791" lon="4.67092">
        <ele>77.4</ele>
      </trkpt>
      <trkpt lat="44.48799" lon="4.67107">
        <ele>76.4</ele>
      </trkpt>
      <trkpt lat="44.48804" lon="4.67125">
        <ele>75.7</ele>
      </trkpt>
      <trkpt lat="44.48809" lon="4.67157">
        <ele>75.1</ele>
      </trkpt>
      <trkpt lat="44.48809" lon="4.6717">
        <ele>74.9</ele>
      </trkpt>
      <trkpt lat="44.4881" lon="4.67184">
        <ele>74.6</ele>
      </trkpt>
      <trkpt lat="44.48808" lon="4.67228">
        <ele>73.7</ele>
      </trkpt>
      <trkpt lat="44.48805" lon="4.67262">
        <ele>73.1</ele>
      </trkpt>
      <trkpt lat="44.48803" lon="4.67276">
        <ele>72.8</ele>
      </trkpt>
      <trkpt lat="44.48797" lon="4.67297">
        <ele>72.6</ele>
      </trkpt>
      <trkpt lat="44.48792" lon="4.67309">
        <ele>72.6</ele>
      </trkpt>
      <trkpt lat="44.48772" lon="4.67363">
        <ele>72.8</ele>
      </trkpt>
      <trkpt lat="44.48763" lon="4.67388">
        <ele>73.2</ele>
      </trkpt>
      <trkpt lat="44.48755" lon="4.67412">
        <ele>73.7</ele>
      </trkpt>
      <trkpt lat="44.48744" lon="4.67426">
        <ele>74</ele>
      </trkpt>
      <trkpt lat="44.4874" lon="4.67433">
        <ele>74</ele>
      </trkpt>
      <trkpt lat="44.48739" lon="4.67439">
        <ele>73.9</ele>
      </trkpt>
      <trkpt lat="44.48742" lon="4.67447">
        <ele>73.4</ele>
      </trkpt>
      <trkpt lat="44.48738" lon="4.67453">
        <ele>73.4</ele>
      </trkpt>
      <trkpt lat="44.48735" lon="4.67459">
        <ele>73.4</ele>
      </trkpt>
      <trkpt lat="44.48726" lon="4.67474">
        <ele>73.4</ele>
      </trkpt>
      <trkpt lat="44.48703" lon="4.6752">
        <ele>73</ele>
      </trkpt>
      <trkpt lat="44.48698" lon="4.6753">
        <ele>72.8</ele>
      </trkpt>
      <trkpt lat="44.4867" lon="4.67587">
        <ele>71.9</ele>
      </trkpt>
      <trkpt lat="44.48615" lon="4.67692">
        <ele>73.2</ele>
      </trkpt>
      <trkpt lat="44.48582" lon="4.67756">
        <ele>73</ele>
      </trkpt>
      <trkpt lat="44.48578" lon="4.67764">
        <ele>73</ele>
      </trkpt>
      <trkpt lat="44.48569" lon="4.67782">
        <ele>73.2</ele>
      </trkpt>
      <trkpt lat="44.48552" lon="4.67815">
        <ele>73.9</ele>
      </trkpt>
      <trkpt lat="44.48545" lon="4.67836">
        <ele>74.2</ele>
      </trkpt>
      <trkpt lat="44.48541" lon="4.67853">
        <ele>74.2</ele>
      </trkpt>
      <trkpt lat="44.48539" lon="4.67877">
        <ele>74</ele>
      </trkpt>
      <trkpt lat="44.48538" lon="4.67892">
        <ele>73.8</ele>
      </trkpt>
      <trkpt lat="44.48539" lon="4.67916">
        <ele>73.3</ele>
      </trkpt>
      <trkpt lat="44.4854" lon="4.67928">
        <ele>73.5</ele>
      </trkpt>
      <trkpt lat="44.48545" lon="4.67998">
        <ele>74.6</ele>
      </trkpt>
      <trkpt lat="44.48546" lon="4.68026">
        <ele>75</ele>
      </trkpt>
      <trkpt lat="44.48546" lon="4.68034">
        <ele>75.1</ele>
      </trkpt>
      <trkpt lat="44.48548" lon="4.68072">
        <ele>75.6</ele>
      </trkpt>
      <trkpt lat="44.48548" lon="4.681">
        <ele>75.6</ele>
      </trkpt>
      <trkpt lat="44.48546" lon="4.68126">
        <ele>75.3</ele>
      </trkpt>
      <trkpt lat="44.48541" lon="4.68231">
        <ele>75.5</ele>
      </trkpt>
      <trkpt lat="44.48536" lon="4.68328">
        <ele>75.3</ele>
      </trkpt>
      <trkpt lat="44.48535" lon="4.68339">
        <ele>75.2</ele>
      </trkpt>
      <trkpt lat="44.48537" lon="4.68339">
        <ele>74.9</ele>
      </trkpt>
      <trkpt lat="44.48539" lon="4.68335">
        <ele>74.8</ele>
      </trkpt>
      <trkpt lat="44.48547" lon="4.68323">
        <ele>74</ele>
      </trkpt>
      <trkpt lat="44.4856" lon="4.683">
        <ele>72.9</ele>
      </trkpt>
      <trkpt lat="44.48569" lon="4.68288">
        <ele>72.2</ele>
      </trkpt>
      <trkpt lat="44.48575" lon="4.68282">
        <ele>71.7</ele>
      </trkpt>
      <trkpt lat="44.48582" lon="4.68281">
        <ele>71</ele>
      </trkpt>
      <trkpt lat="44.4859" lon="4.68281">
        <ele>70.7</ele>
      </trkpt>
      <trkpt lat="44.48596" lon="4.68283">
        <ele>70.4</ele>
      </trkpt>
      <trkpt lat="44.486" lon="4.68284">
        <ele>70.3</ele>
      </trkpt>
      <trkpt lat="44.48607" lon="4.6829">
        <ele>69.8</ele>
      </trkpt>
      <trkpt lat="44.4861" lon="4.68296">
        <ele>69.6</ele>
      </trkpt>
      <trkpt lat="44.48611" lon="4.68303">
        <ele>69.3</ele>
      </trkpt>
      <trkpt lat="44.48611" lon="4.68312">
        <ele>69</ele>
      </trkpt>
      <trkpt lat="44.48611" lon="4.68319">
        <ele>68.8</ele>
      </trkpt>
      <trkpt lat="44.48617" lon="4.68325">
        <ele>68.5</ele>
      </trkpt>
      <trkpt lat="44.48619" lon="4.68328">
        <ele>68.3</ele>
      </trkpt>
      <trkpt lat="44.48621" lon="4.68331">
        <ele>68.2</ele>
      </trkpt>
      <trkpt lat="44.48622" lon="4.68338">
        <ele>67.9</ele>
      </trkpt>
      <trkpt lat="44.48621" lon="4.68356">
        <ele>67.4</ele>
      </trkpt>
      <trkpt lat="44.48619" lon="4.68378">
        <ele>66.8</ele>
      </trkpt>
      <trkpt lat="44.48617" lon="4.6841">
        <ele>66</ele>
      </trkpt>
      <trkpt lat="44.48616" lon="4.68433">
        <ele>65.7</ele>
      </trkpt>
      <trkpt lat="44.48615" lon="4.68461">
        <ele>65.4</ele>
      </trkpt>
      <trkpt lat="44.48614" lon="4.6847">
        <ele>65.3</ele>
      </trkpt>
      <trkpt lat="44.48614" lon="4.68475">
        <ele>65.3</ele>
      </trkpt>
      <trkpt lat="44.48611" lon="4.68536">
        <ele>64.6</ele>
      </trkpt>
      <trkpt lat="44.48609" lon="4.6857">
        <ele>64.2</ele>
      </trkpt>
      <trkpt lat="44.48608" lon="4.68589">
        <ele>64</ele>
      </trkpt>
      <trkpt lat="44.48608" lon="4.68598">
        <ele>64.1</ele>
      </trkpt>
      <trkpt lat="44.48606" lon="4.68603">
        <ele>64.2</ele>
      </trkpt>
      <trkpt lat="44.48604" lon="4.68607">
        <ele>64.2</ele>
      </trkpt>
      <trkpt lat="44.48601" lon="4.68609">
        <ele>64.2</ele>
      </trkpt>
      <trkpt lat="44.48583" lon="4.68611">
        <ele>64.3</ele>
      </trkpt>
      <trkpt lat="44.48574" lon="4.68613">
        <ele>64.9</ele>
      </trkpt>
      <trkpt lat="44.48534" lon="4.68619">
        <ele>67.1</ele>
      </trkpt>
      <trkpt lat="44.48522" lon="4.68621">
        <ele>67.8</ele>
      </trkpt>
      <trkpt lat="44.48494" lon="4.68628">
        <ele>69.5</ele>
      </trkpt>
      <trkpt lat="44.48488" lon="4.68628">
        <ele>70.1</ele>
      </trkpt>
      <trkpt lat="44.48502" lon="4.68817">
        <ele>66.7</ele>
      </trkpt>
      <trkpt lat="44.48501" lon="4.68831">
        <ele>66.9</ele>
      </trkpt>
      <trkpt lat="44.48497" lon="4.68837">
        <ele>67.1</ele>
      </trkpt>
      <trkpt lat="44.48493" lon="4.68846">
        <ele>67.1</ele>
      </trkpt>
      <trkpt lat="44.48492" lon="4.68848">
        <ele>67.2</ele>
      </trkpt>
      <trkpt lat="44.48487" lon="4.68851">
        <ele>67.4</ele>
      </trkpt>
      <trkpt lat="44.48464" lon="4.68864">
        <ele>68.4</ele>
      </trkpt>
      <trkpt lat="44.48462" lon="4.68865">
        <ele>68.5</ele>
      </trkpt>
      <trkpt lat="44.48457" lon="4.68868">
        <ele>68.8</ele>
      </trkpt>
      <trkpt lat="44.48454" lon="4.68871">
        <ele>68.9</ele>
      </trkpt>
      <trkpt lat="44.48444" lon="4.68877">
        <ele>69.3</ele>
      </trkpt>
      <trkpt lat="44.48432" lon="4.68881">
        <ele>69.9</ele>
      </trkpt>
      <trkpt lat="44.48439" lon="4.68894">
        <ele>69.2</ele>
      </trkpt>
      <trkpt lat="44.48442" lon="4.68903">
        <ele>68.8</ele>
      </trkpt>
      <trkpt lat="44.48443" lon="4.68931">
        <ele>67.8</ele>
      </trkpt>
      <trkpt lat="44.48444" lon="4.68944">
        <ele>67.3</ele>
      </trkpt>
      <trkpt lat="44.48444" lon="4.68967">
        <ele>66.3</ele>
      </trkpt>
      <trkpt lat="44.48443" lon="4.68975">
        <ele>66.1</ele>
      </trkpt>
      <trkpt lat="44.48439" lon="4.68982">
        <ele>65.9</ele>
      </trkpt>
      <trkpt lat="44.48443" lon="4.68991">
        <ele>65.4</ele>
      </trkpt>
      <trkpt lat="44.48446" lon="4.68993">
        <ele>65.2</ele>
      </trkpt>
      <trkpt lat="44.4845" lon="4.68991">
        <ele>65.2</ele>
      </trkpt>
      <trkpt lat="44.48452" lon="4.68994">
        <ele>64.9</ele>
      </trkpt>
      <trkpt lat="44.48456" lon="4.68997">
        <ele>64.7</ele>
      </trkpt>
      <trkpt lat="44.4846" lon="4.68999">
        <ele>64.5</ele>
      </trkpt>
      <trkpt lat="44.4847" lon="4.69002">
        <ele>64.1</ele>
      </trkpt>
      <trkpt lat="44.48481" lon="4.69007">
        <ele>63.6</ele>
      </trkpt>
      <trkpt lat="44.48506" lon="4.69028">
        <ele>62.6</ele>
      </trkpt>
      <trkpt lat="44.48554" lon="4.69064">
        <ele>61.9</ele>
      </trkpt>
      <trkpt lat="44.48591" lon="4.69093">
        <ele>62.2</ele>
      </trkpt>
      <trkpt lat="44.48699" lon="4.69178">
        <ele>65</ele>
      </trkpt>
      <trkpt lat="44.48724" lon="4.69199">
        <ele>65.3</ele>
      </trkpt>
      <trkpt lat="44.4869" lon="4.69253">
        <ele>64</ele>
      </trkpt>
      <trkpt lat="44.4866" lon="4.69275">
        <ele>64.1</ele>
      </trkpt>
      <trkpt lat="44.48652" lon="4.69278">
        <ele>64.2</ele>
      </trkpt>
      <trkpt lat="44.48633" lon="4.69285">
        <ele>64.6</ele>
      </trkpt>
      <trkpt lat="44.4861" lon="4.69309">
        <ele>65.2</ele>
      </trkpt>
      <trkpt lat="44.48587" lon="4.69319">
        <ele>65.7</ele>
      </trkpt>
      <trkpt lat="44.48548" lon="4.69358">
        <ele>64.9</ele>
      </trkpt>
      <trkpt lat="44.48439" lon="4.69472">
        <ele>65.2</ele>
      </trkpt>
      <trkpt lat="44.48415" lon="4.69491">
        <ele>65.7</ele>
      </trkpt>
      <trkpt lat="44.4839" lon="4.69511">
        <ele>64.8</ele>
      </trkpt>
      <trkpt lat="44.48211" lon="4.69646">
        <ele>65.1</ele>
      </trkpt>
      <trkpt lat="44.48188" lon="4.69658">
        <ele>66</ele>
      </trkpt>
      <trkpt lat="44.48179" lon="4.69663">
        <ele>66.4</ele>
      </trkpt>
      <trkpt lat="44.48172" lon="4.69666">
        <ele>66.8</ele>
      </trkpt>
      <trkpt lat="44.48137" lon="4.6967">
        <ele>66.2</ele>
      </trkpt>
      <trkpt lat="44.48138" lon="4.69688">
        <ele>65.7</ele>
      </trkpt>
      <trkpt lat="44.4814" lon="4.69705">
        <ele>65.3</ele>
      </trkpt>
      <trkpt lat="44.48176" lon="4.70123">
        <ele>64.1</ele>
      </trkpt>
      <trkpt lat="44.4818" lon="4.70155">
        <ele>64.3</ele>
      </trkpt>
      <trkpt lat="44.48182" lon="4.70177">
        <ele>64.2</ele>
      </trkpt>
      <trkpt lat="44.4819" lon="4.70285">
        <ele>63.5</ele>
      </trkpt>
      <trkpt lat="44.48201" lon="4.70425">
        <ele>65.9</ele>
      </trkpt>
      <trkpt lat="44.48207" lon="4.70489">
        <ele>66.4</ele>
      </trkpt>
      <trkpt lat="44.48208" lon="4.705">
        <ele>66.5</ele>
      </trkpt>
      <trkpt lat="44.4821" lon="4.70511">
        <ele>67.1</ele>
      </trkpt>
      <trkpt lat="44.48214" lon="4.70525">
        <ele>67.7</ele>
      </trkpt>
      <trkpt lat="44.48218" lon="4.70534">
        <ele>68</ele>
      </trkpt>
      <trkpt lat="44.48223" lon="4.70545">
        <ele>68.3</ele>
      </trkpt>
      <trkpt lat="44.48212" lon="4.70553">
        <ele>69.2</ele>
      </trkpt>
      <trkpt lat="44.48201" lon="4.70551">
        <ele>69.7</ele>
      </trkpt>
      <trkpt lat="44.48167" lon="4.70515">
        <ele>67.6</ele>
      </trkpt>
      <trkpt lat="44.48107" lon="4.70437">
        <ele>68.1</ele>
      </trkpt>
      <trkpt lat="44.48092" lon="4.7042">
        <ele>67.1</ele>
      </trkpt>
      <trkpt lat="44.48083" lon="4.70423">
        <ele>67.8</ele>
      </trkpt>
      <trkpt lat="44.48079" lon="4.70428">
        <ele>68.8</ele>
      </trkpt>
      <trkpt lat="44.48071" lon="4.7044">
        <ele>72</ele>
      </trkpt>
      <trkpt lat="44.48062" lon="4.70451">
        <ele>75.4</ele>
      </trkpt>
      <trkpt lat="44.4807" lon="4.70468">
        <ele>76</ele>
      </trkpt>
      <trkpt lat="44.48201" lon="4.70628">
        <ele>79</ele>
      </trkpt>
      <trkpt lat="44.48227" lon="4.70664">
        <ele>79</ele>
      </trkpt>
      <trkpt lat="44.48314" lon="4.70799">
        <ele>80</ele>
      </trkpt>
      <trkpt lat="44.48329" lon="4.70816">
        <ele>76.4</ele>
      </trkpt>
      <trkpt lat="44.48338" lon="4.70827">
        <ele>75.3</ele>
      </trkpt>
      <trkpt lat="44.48373" lon="4.70907">
        <ele>79</ele>
      </trkpt>
      <trkpt lat="44.48408" lon="4.70981">
        <ele>78.1</ele>
      </trkpt>
      <trkpt lat="44.48405" lon="4.70984">
        <ele>78.6</ele>
      </trkpt>
      <trkpt lat="44.4838" lon="4.70981">
        <ele>81.6</ele>
      </trkpt>
      <trkpt lat="44.48375" lon="4.70983">
        <ele>82.3</ele>
      </trkpt>
      <trkpt lat="44.48376" lon="4.71019">
        <ele>84.9</ele>
      </trkpt>
      <trkpt lat="44.48363" lon="4.71064">
        <ele>90.8</ele>
      </trkpt>
      <trkpt lat="44.48361" lon="4.71075">
        <ele>92.1</ele>
      </trkpt>
      <trkpt lat="44.48369" lon="4.71081">
        <ele>91.9</ele>
      </trkpt>
      <trkpt lat="44.48362" lon="4.71117">
        <ele>97.7</ele>
      </trkpt>
      <trkpt lat="44.48358" lon="4.71155">
        <ele>103.1</ele>
      </trkpt>
      <trkpt lat="44.48364" lon="4.71186">
        <ele>106.3</ele>
      </trkpt>
      <trkpt lat="44.48368" lon="4.71193">
        <ele>106.9</ele>
      </trkpt>
      <trkpt lat="44.48369" lon="4.712">
        <ele>107.6</ele>
      </trkpt>
      <trkpt lat="44.48384" lon="4.7121">
        <ele>108.8</ele>
      </trkpt>
      <trkpt lat="44.48393" lon="4.71227">
        <ele>111</ele>
      </trkpt>
      <trkpt lat="44.484" lon="4.71236">
        <ele>112.3</ele>
      </trkpt>
      <trkpt lat="44.48404" lon="4.71252">
        <ele>114.5</ele>
      </trkpt>
      <trkpt lat="44.48406" lon="4.71261">
        <ele>115.6</ele>
      </trkpt>
      <trkpt lat="44.48401" lon="4.71287">
        <ele>118.5</ele>
      </trkpt>
      <trkpt lat="44.48391" lon="4.7131">
        <ele>121</ele>
      </trkpt>
      <trkpt lat="44.4839" lon="4.7132">
        <ele>122.3</ele>
      </trkpt>
      <trkpt lat="44.48378" lon="4.71342">
        <ele>125.5</ele>
      </trkpt>
      <trkpt lat="44.48367" lon="4.7136">
        <ele>129.2</ele>
      </trkpt>
      <trkpt lat="44.48359" lon="4.71378">
        <ele>133.7</ele>
      </trkpt>
      <trkpt lat="44.48338" lon="4.71383">
        <ele>137.2</ele>
      </trkpt>
      <trkpt lat="44.4833" lon="4.71388">
        <ele>139.4</ele>
      </trkpt>
      <trkpt lat="44.48319" lon="4.71388">
        <ele>140.1</ele>
      </trkpt>
      <trkpt lat="44.48302" lon="4.7141">
        <ele>147.4</ele>
      </trkpt>
      <trkpt lat="44.48291" lon="4.7142">
        <ele>149.4</ele>
      </trkpt>
      <trkpt lat="44.48273" lon="4.71432">
        <ele>148.6</ele>
      </trkpt>
      <trkpt lat="44.48243" lon="4.71434">
        <ele>150.4</ele>
      </trkpt>
      <trkpt lat="44.48222" lon="4.71434">
        <ele>152.7</ele>
      </trkpt>
      <trkpt lat="44.48178" lon="4.7142">
        <ele>160.1</ele>
      </trkpt>
      <trkpt lat="44.4815" lon="4.71422">
        <ele>161.9</ele>
      </trkpt>
      <trkpt lat="44.48114" lon="4.71437">
        <ele>162.2</ele>
      </trkpt>
      <trkpt lat="44.48102" lon="4.71467">
        <ele>160.4</ele>
      </trkpt>
      <trkpt lat="44.48077" lon="4.71495">
        <ele>161.4</ele>
      </trkpt>
      <trkpt lat="44.48059" lon="4.7151">
        <ele>160.2</ele>
      </trkpt>
      <trkpt lat="44.48004" lon="4.71532">
        <ele>160.8</ele>
      </trkpt>
      <trkpt lat="44.47974" lon="4.71546">
        <ele>158.5</ele>
      </trkpt>
      <trkpt lat="44.47953" lon="4.71533">
        <ele>158</ele>
      </trkpt>
      <trkpt lat="44.47932" lon="4.71531">
        <ele>156.7</ele>
      </trkpt>
      <trkpt lat="44.47901" lon="4.71533">
        <ele>155.4</ele>
      </trkpt>
      <trkpt lat="44.47877" lon="4.71505">
        <ele>156.7</ele>
      </trkpt>
      <trkpt lat="44.47849" lon="4.71494">
        <ele>156.4</ele>
      </trkpt>
      <trkpt lat="44.47824" lon="4.71474">
        <ele>156.2</ele>
      </trkpt>
      <trkpt lat="44.47793" lon="4.71453">
        <ele>156.3</ele>
      </trkpt>
      <trkpt lat="44.47763" lon="4.71438">
        <ele>156.5</ele>
      </trkpt>
      <trkpt lat="44.47752" lon="4.71451">
        <ele>156.2</ele>
      </trkpt>
      <trkpt lat="44.47731" lon="4.71463">
        <ele>156.6</ele>
      </trkpt>
      <trkpt lat="44.4772" lon="4.71456">
        <ele>157.1</ele>
      </trkpt>
      <trkpt lat="44.47687" lon="4.7144">
        <ele>158.4</ele>
      </trkpt>
      <trkpt lat="44.47678" lon="4.71431">
        <ele>158.7</ele>
      </trkpt>
      <trkpt lat="44.47672" lon="4.71427">
        <ele>158.9</ele>
      </trkpt>
      <trkpt lat="44.47666" lon="4.71427">
        <ele>159</ele>
      </trkpt>
      <trkpt lat="44.47662" lon="4.7143">
        <ele>159</ele>
      </trkpt>
      <trkpt lat="44.47658" lon="4.7144">
        <ele>159</ele>
      </trkpt>
      <trkpt lat="44.47646" lon="4.71477">
        <ele>159.6</ele>
      </trkpt>
      <trkpt lat="44.47638" lon="4.71488">
        <ele>160.1</ele>
      </trkpt>
      <trkpt lat="44.47619" lon="4.71534">
        <ele>164</ele>
      </trkpt>
      <trkpt lat="44.47602" lon="4.71604">
        <ele>170.7</ele>
      </trkpt>
      <trkpt lat="44.47601" lon="4.71614">
        <ele>171.4</ele>
      </trkpt>
      <trkpt lat="44.47604" lon="4.71623">
        <ele>171.6</ele>
      </trkpt>
      <trkpt lat="44.47605" lon="4.71634">
        <ele>172</ele>
      </trkpt>
      <trkpt lat="44.47605" lon="4.71644">
        <ele>172.7</ele>
      </trkpt>
      <trkpt lat="44.47603" lon="4.71657">
        <ele>173.7</ele>
      </trkpt>
      <trkpt lat="44.476" lon="4.71669">
        <ele>174.6</ele>
      </trkpt>
      <trkpt lat="44.47596" lon="4.71682">
        <ele>174.7</ele>
      </trkpt>
      <trkpt lat="44.47589" lon="4.71695">
        <ele>175.1</ele>
      </trkpt>
      <trkpt lat="44.47579" lon="4.71712">
        <ele>175.8</ele>
      </trkpt>
      <trkpt lat="44.47571" lon="4.71724">
        <ele>176.3</ele>
      </trkpt>
      <trkpt lat="44.47564" lon="4.71732">
        <ele>176.7</ele>
      </trkpt>
      <trkpt lat="44.47561" lon="4.71738">
        <ele>176.9</ele>
      </trkpt>
      <trkpt lat="44.47557" lon="4.71745">
        <ele>177.1</ele>
      </trkpt>
      <trkpt lat="44.47553" lon="4.71753">
        <ele>177.4</ele>
      </trkpt>
      <trkpt lat="44.4755" lon="4.71764">
        <ele>178.4</ele>
      </trkpt>
      <trkpt lat="44.47548" lon="4.71777">
        <ele>179.3</ele>
      </trkpt>
      <trkpt lat="44.4755" lon="4.71791">
        <ele>180</ele>
      </trkpt>
      <trkpt lat="44.47551" lon="4.71802">
        <ele>180.5</ele>
      </trkpt>
      <trkpt lat="44.47555" lon="4.71813">
        <ele>180.9</ele>
      </trkpt>
      <trkpt lat="44.47559" lon="4.71822">
        <ele>181.1</ele>
      </trkpt>
      <trkpt lat="44.47565" lon="4.71829">
        <ele>181.1</ele>
      </trkpt>
      <trkpt lat="44.47572" lon="4.71834">
        <ele>180.9</ele>
      </trkpt>
      <trkpt lat="44.47601" lon="4.71851">
        <ele>179.1</ele>
      </trkpt>
      <trkpt lat="44.47613" lon="4.71858">
        <ele>178.1</ele>
      </trkpt>
      <trkpt lat="44.47638" lon="4.71877">
        <ele>176.4</ele>
      </trkpt>
      <trkpt lat="44.47645" lon="4.71886">
        <ele>176.4</ele>
      </trkpt>
      <trkpt lat="44.47651" lon="4.71897">
        <ele>176.8</ele>
      </trkpt>
      <trkpt lat="44.47656" lon="4.71908">
        <ele>177.3</ele>
      </trkpt>
      <trkpt lat="44.4766" lon="4.71914">
        <ele>177.5</ele>
      </trkpt>
      <trkpt lat="44.47666" lon="4.71921">
        <ele>177.4</ele>
      </trkpt>
      <trkpt lat="44.47684" lon="4.71937">
        <ele>177.9</ele>
      </trkpt>
      <trkpt lat="44.47692" lon="4.71946">
        <ele>178.4</ele>
      </trkpt>
      <trkpt lat="44.47698" lon="4.71955">
        <ele>179</ele>
      </trkpt>
      <trkpt lat="44.47702" lon="4.71964">
        <ele>179.7</ele>
      </trkpt>
      <trkpt lat="44.47706" lon="4.71977">
        <ele>180.6</ele>
      </trkpt>
      <trkpt lat="44.4771" lon="4.71986">
        <ele>181.3</ele>
      </trkpt>
      <trkpt lat="44.47715" lon="4.71992">
        <ele>181.7</ele>
      </trkpt>
      <trkpt lat="44.47721" lon="4.71995">
        <ele>181.9</ele>
      </trkpt>
      <trkpt lat="44.47728" lon="4.71996">
        <ele>181.9</ele>
      </trkpt>
      <trkpt lat="44.47736" lon="4.71996">
        <ele>181.8</ele>
      </trkpt>
      <trkpt lat="44.47741" lon="4.71996">
        <ele>181.8</ele>
      </trkpt>
      <trkpt lat="44.47745" lon="4.71999">
        <ele>181.9</ele>
      </trkpt>
      <trkpt lat="44.4775" lon="4.72003">
        <ele>182.4</ele>
      </trkpt>
      <trkpt lat="44.4775" lon="4.72016">
        <ele>184.3</ele>
      </trkpt>
      <trkpt lat="44.47757" lon="4.72035">
        <ele>186.7</ele>
      </trkpt>
      <trkpt lat="44.47754" lon="4.72079">
        <ele>193</ele>
      </trkpt>
      <trkpt lat="44.47749" lon="4.72105">
        <ele>196.6</ele>
      </trkpt>
      <trkpt lat="44.4775" lon="4.7213">
        <ele>199.5</ele>
      </trkpt>
      <trkpt lat="44.47762" lon="4.72148">
        <ele>200.5</ele>
      </trkpt>
      <trkpt lat="44.47768" lon="4.72173">
        <ele>202.6</ele>
      </trkpt>
      <trkpt lat="44.47772" lon="4.72196">
        <ele>204</ele>
      </trkpt>
      <trkpt lat="44.47761" lon="4.7221">
        <ele>206.4</ele>
      </trkpt>
      <trkpt lat="44.47745" lon="4.72234">
        <ele>209.9</ele>
      </trkpt>
      <trkpt lat="44.47724" lon="4.72243">
        <ele>211.6</ele>
      </trkpt>
      <trkpt lat="44.47666" lon="4.72314">
        <ele>221.2</ele>
      </trkpt>
      <trkpt lat="44.47661" lon="4.72358">
        <ele>226.8</ele>
      </trkpt>
      <trkpt lat="44.47635" lon="4.724">
        <ele>238.3</ele>
      </trkpt>
      <trkpt lat="44.47604" lon="4.72391">
        <ele>245.8</ele>
      </trkpt>
      <trkpt lat="44.47576" lon="4.72379">
        <ele>251.4</ele>
      </trkpt>
      <trkpt lat="44.47564" lon="4.7238">
        <ele>253.6</ele>
      </trkpt>
      <trkpt lat="44.47569" lon="4.72418">
        <ele>257.8</ele>
      </trkpt>
      <trkpt lat="44.4756" lon="4.72486">
        <ele>264</ele>
      </trkpt>
      <trkpt lat="44.47544" lon="4.72545">
        <ele>270.1</ele>
      </trkpt>
      <trkpt lat="44.47545" lon="4.72597">
        <ele>268.3</ele>
      </trkpt>
      <trkpt lat="44.47554" lon="4.72615">
        <ele>263.7</ele>
      </trkpt>
      <trkpt lat="44.47552" lon="4.72643">
        <ele>261.4</ele>
      </trkpt>
      <trkpt lat="44.47576" lon="4.7268">
        <ele>253</ele>
      </trkpt>
      <trkpt lat="44.47605" lon="4.72672">
        <ele>249.5</ele>
      </trkpt>
      <trkpt lat="44.47637" lon="4.7268">
        <ele>244.7</ele>
      </trkpt>
      <trkpt lat="44.47669" lon="4.72689">
        <ele>240.6</ele>
      </trkpt>
      <trkpt lat="44.47695" lon="4.72713">
        <ele>238.6</ele>
      </trkpt>
      <trkpt lat="44.47703" lon="4.72756">
        <ele>238.1</ele>
      </trkpt>
      <trkpt lat="44.47694" lon="4.72796">
        <ele>236.8</ele>
      </trkpt>
      <trkpt lat="44.47675" lon="4.7284">
        <ele>235</ele>
      </trkpt>
      <trkpt lat="44.4764" lon="4.72885">
        <ele>230.6</ele>
      </trkpt>
      <trkpt lat="44.47623" lon="4.72888">
        <ele>230.7</ele>
      </trkpt>
      <trkpt lat="44.47614" lon="4.72898">
        <ele>229.6</ele>
      </trkpt>
      <trkpt lat="44.47616" lon="4.72907">
        <ele>228.4</ele>
      </trkpt>
      <trkpt lat="44.47616" lon="4.72923">
        <ele>226.9</ele>
      </trkpt>
      <trkpt lat="44.47611" lon="4.73009">
        <ele>221.8</ele>
      </trkpt>
      <trkpt lat="44.47613" lon="4.73026">
        <ele>220.8</ele>
      </trkpt>
      <trkpt lat="44.47687" lon="4.73008">
        <ele>220.3</ele>
      </trkpt>
      <trkpt lat="44.47686" lon="4.73021">
        <ele>220</ele>
      </trkpt>
      <trkpt lat="44.47692" lon="4.73108">
        <ele>218.1</ele>
      </trkpt>
      <trkpt lat="44.47692" lon="4.73128">
        <ele>217.7</ele>
      </trkpt>
      <trkpt lat="44.47675" lon="4.73172">
        <ele>216.3</ele>
      </trkpt>
      <trkpt lat="44.47651" lon="4.7324">
        <ele>215.4</ele>
      </trkpt>
      <trkpt lat="44.4759" lon="4.73324">
        <ele>215.8</ele>
      </trkpt>
      <trkpt lat="44.47541" lon="4.73392">
        <ele>214.5</ele>
      </trkpt>
      <trkpt lat="44.47532" lon="4.73434">
        <ele>215.9</ele>
      </trkpt>
      <trkpt lat="44.47527" lon="4.73469">
        <ele>218.1</ele>
      </trkpt>
      <trkpt lat="44.47493" lon="4.73488">
        <ele>214.4</ele>
      </trkpt>
      <trkpt lat="44.47383" lon="4.7361">
        <ele>209.3</ele>
      </trkpt>
      <trkpt lat="44.47336" lon="4.73634">
        <ele>207.5</ele>
      </trkpt>
      <trkpt lat="44.47312" lon="4.73663">
        <ele>209.1</ele>
      </trkpt>
      <trkpt lat="44.47291" lon="4.73706">
        <ele>208.7</ele>
      </trkpt>
      <trkpt lat="44.4728" lon="4.73737">
        <ele>207.4</ele>
      </trkpt>
      <trkpt lat="44.47258" lon="4.73781">
        <ele>204.9</ele>
      </trkpt>
      <trkpt lat="44.47244" lon="4.73859">
        <ele>198.9</ele>
      </trkpt>
      <trkpt lat="44.47243" lon="4.73924">
        <ele>196</ele>
      </trkpt>
      <trkpt lat="44.47244" lon="4.73961">
        <ele>193.7</ele>
      </trkpt>
      <trkpt lat="44.47232" lon="4.74012">
        <ele>188.5</ele>
      </trkpt>
      <trkpt lat="44.47235" lon="4.74064">
        <ele>182.9</ele>
      </trkpt>
      <trkpt lat="44.47254" lon="4.74099">
        <ele>180.4</ele>
      </trkpt>
      <trkpt lat="44.47252" lon="4.74103">
        <ele>179.9</ele>
      </trkpt>
      <trkpt lat="44.47234" lon="4.74122">
        <ele>176.6</ele>
      </trkpt>
      <trkpt lat="44.47217" lon="4.74156">
        <ele>172.4</ele>
      </trkpt>
      <trkpt lat="44.47197" lon="4.74178">
        <ele>170.5</ele>
      </trkpt>
      <trkpt lat="44.47186" lon="4.74213">
        <ele>170.4</ele>
      </trkpt>
      <trkpt lat="44.47173" lon="4.74214">
        <ele>169.8</ele>
      </trkpt>
      <trkpt lat="44.47118" lon="4.74201">
        <ele>167.2</ele>
      </trkpt>
      <trkpt lat="44.47037" lon="4.7417">
        <ele>162.7</ele>
      </trkpt>
      <trkpt lat="44.47035" lon="4.74176">
        <ele>162.6</ele>
      </trkpt>
      <trkpt lat="44.47022" lon="4.74211">
        <ele>162.2</ele>
      </trkpt>
      <trkpt lat="44.46978" lon="4.74321">
        <ele>161.1</ele>
      </trkpt>
      <trkpt lat="44.46966" lon="4.7434">
        <ele>160.7</ele>
      </trkpt>
      <trkpt lat="44.46954" lon="4.74363">
        <ele>160.1</ele>
      </trkpt>
      <trkpt lat="44.46943" lon="4.74369">
        <ele>159.6</ele>
      </trkpt>
      <trkpt lat="44.46943" lon="4.74403">
        <ele>159.4</ele>
      </trkpt>
      <trkpt lat="44.46945" lon="4.74483">
        <ele>159.1</ele>
      </trkpt>
      <trkpt lat="44.46945" lon="4.7452">
        <ele>159</ele>
      </trkpt>
      <trkpt lat="44.4695" lon="4.74567">
        <ele>159.3</ele>
      </trkpt>
      <trkpt lat="44.46952" lon="4.74586">
        <ele>159.4</ele>
      </trkpt>
      <trkpt lat="44.46953" lon="4.74603">
        <ele>159.3</ele>
      </trkpt>
      <trkpt lat="44.4695" lon="4.74625">
        <ele>158.6</ele>
      </trkpt>
      <trkpt lat="44.46944" lon="4.74661">
        <ele>157.7</ele>
      </trkpt>
      <trkpt lat="44.46941" lon="4.74667">
        <ele>157.3</ele>
      </trkpt>
      <trkpt lat="44.46942" lon="4.74689">
        <ele>156.7</ele>
      </trkpt>
      <trkpt lat="44.46949" lon="4.74727">
        <ele>156</ele>
      </trkpt>
      <trkpt lat="44.46954" lon="4.74749">
        <ele>155.6</ele>
      </trkpt>
      <trkpt lat="44.4695" lon="4.74773">
        <ele>155</ele>
      </trkpt>
      <trkpt lat="44.46935" lon="4.74824">
        <ele>153.4</ele>
      </trkpt>
      <trkpt lat="44.46905" lon="4.74919">
        <ele>153.8</ele>
      </trkpt>
      <trkpt lat="44.46901" lon="4.74924">
        <ele>154</ele>
      </trkpt>
      <trkpt lat="44.46891" lon="4.74937">
        <ele>154.2</ele>
      </trkpt>
      <trkpt lat="44.46861" lon="4.74963">
        <ele>154.1</ele>
      </trkpt>
      <trkpt lat="44.46848" lon="4.74984">
        <ele>154.3</ele>
      </trkpt>
      <trkpt lat="44.46827" lon="4.75029">
        <ele>156.1</ele>
      </trkpt>
      <trkpt lat="44.46813" lon="4.75046">
        <ele>157.1</ele>
      </trkpt>
      <trkpt lat="44.46784" lon="4.7506">
        <ele>157.6</ele>
      </trkpt>
      <trkpt lat="44.46759" lon="4.75071">
        <ele>157.7</ele>
      </trkpt>
      <trkpt lat="44.46748" lon="4.75082">
        <ele>158.1</ele>
      </trkpt>
      <trkpt lat="44.46735" lon="4.75106">
        <ele>161.2</ele>
      </trkpt>
      <trkpt lat="44.46723" lon="4.75131">
        <ele>163.9</ele>
      </trkpt>
      <trkpt lat="44.4671" lon="4.75154">
        <ele>166.1</ele>
      </trkpt>
      <trkpt lat="44.46694" lon="4.75175">
        <ele>167.3</ele>
      </trkpt>
      <trkpt lat="44.46688" lon="4.75167">
        <ele>167.5</ele>
      </trkpt>
      <trkpt lat="44.46682" lon="4.75165">
        <ele>167.5</ele>
      </trkpt>
      <trkpt lat="44.46677" lon="4.75164">
        <ele>167.6</ele>
      </trkpt>
      <trkpt lat="44.46673" lon="4.75164">
        <ele>167.7</ele>
      </trkpt>
      <trkpt lat="44.4667" lon="4.75172">
        <ele>167.7</ele>
      </trkpt>
      <trkpt lat="44.4666" lon="4.75204">
        <ele>167.4</ele>
      </trkpt>
      <trkpt lat="44.46655" lon="4.75217">
        <ele>167.2</ele>
      </trkpt>
      <trkpt lat="44.4665" lon="4.75251">
        <ele>165.7</ele>
      </trkpt>
      <trkpt lat="44.46646" lon="4.75277">
        <ele>163.8</ele>
      </trkpt>
      <trkpt lat="44.46637" lon="4.75303">
        <ele>161.7</ele>
      </trkpt>
      <trkpt lat="44.46615" lon="4.75353">
        <ele>157.2</ele>
      </trkpt>
      <trkpt lat="44.46585" lon="4.75433">
        <ele>152.5</ele>
      </trkpt>
      <trkpt lat="44.46583" lon="4.75438">
        <ele>152.5</ele>
      </trkpt>
      <trkpt lat="44.46573" lon="4.75474">
        <ele>152.4</ele>
      </trkpt>
      <trkpt lat="44.46567" lon="4.75492">
        <ele>152.3</ele>
      </trkpt>
      <trkpt lat="44.46554" lon="4.75555">
        <ele>151.1</ele>
      </trkpt>
      <trkpt lat="44.46551" lon="4.75572">
        <ele>150.7</ele>
      </trkpt>
      <trkpt lat="44.4655" lon="4.7558">
        <ele>150.5</ele>
      </trkpt>
      <trkpt lat="44.4655" lon="4.7561">
        <ele>150.2</ele>
      </trkpt>
      <trkpt lat="44.46555" lon="4.75623">
        <ele>150.5</ele>
      </trkpt>
      <trkpt lat="44.46551" lon="4.75663">
        <ele>149.3</ele>
      </trkpt>
      <trkpt lat="44.4655" lon="4.75706">
        <ele>148.6</ele>
      </trkpt>
      <trkpt lat="44.46538" lon="4.7576">
        <ele>147.4</ele>
      </trkpt>
      <trkpt lat="44.46509" lon="4.75849">
        <ele>147.1</ele>
      </trkpt>
      <trkpt lat="44.46496" lon="4.75878">
        <ele>148.1</ele>
      </trkpt>
      <trkpt lat="44.46415" lon="4.75778">
        <ele>143.6</ele>
      </trkpt>
      <trkpt lat="44.46343" lon="4.75693">
        <ele>140.8</ele>
      </trkpt>
      <trkpt lat="44.46335" lon="4.7569">
        <ele>140.6</ele>
      </trkpt>
      <trkpt lat="44.46322" lon="4.75688">
        <ele>140.6</ele>
      </trkpt>
      <trkpt lat="44.46316" lon="4.7571">
        <ele>141.2</ele>
      </trkpt>
      <trkpt lat="44.46291" lon="4.75757">
        <ele>142.6</ele>
      </trkpt>
      <trkpt lat="44.46265" lon="4.75792">
        <ele>143.1</ele>
      </trkpt>
      <trkpt lat="44.46248" lon="4.7581">
        <ele>143</ele>
      </trkpt>
      <trkpt lat="44.46223" lon="4.75799">
        <ele>143.1</ele>
      </trkpt>
      <trkpt lat="44.46215" lon="4.75803">
        <ele>143.1</ele>
      </trkpt>
      <trkpt lat="44.46207" lon="4.75811">
        <ele>143.2</ele>
      </trkpt>
      <trkpt lat="44.46203" lon="4.75817">
        <ele>143.3</ele>
      </trkpt>
      <trkpt lat="44.462" lon="4.75826">
        <ele>143.5</ele>
      </trkpt>
      <trkpt lat="44.46198" lon="4.75837">
        <ele>143.7</ele>
      </trkpt>
      <trkpt lat="44.46199" lon="4.75848">
        <ele>144.1</ele>
      </trkpt>
      <trkpt lat="44.462" lon="4.75855">
        <ele>144.3</ele>
      </trkpt>
      <trkpt lat="44.46202" lon="4.75862">
        <ele>144.6</ele>
      </trkpt>
      <trkpt lat="44.46205" lon="4.75868">
        <ele>144.8</ele>
      </trkpt>
      <trkpt lat="44.46208" lon="4.75872">
        <ele>144.9</ele>
      </trkpt>
      <trkpt lat="44.46212" lon="4.75876">
        <ele>145</ele>
      </trkpt>
      <trkpt lat="44.46217" lon="4.75879">
        <ele>145.2</ele>
      </trkpt>
      <trkpt lat="44.46222" lon="4.75882">
        <ele>145.3</ele>
      </trkpt>
      <trkpt lat="44.46228" lon="4.75882">
        <ele>145.3</ele>
      </trkpt>
      <trkpt lat="44.46232" lon="4.75882">
        <ele>145.3</ele>
      </trkpt>
      <trkpt lat="44.46238" lon="4.7588">
        <ele>145.2</ele>
      </trkpt>
      <trkpt lat="44.46243" lon="4.75877">
        <ele>145.1</ele>
      </trkpt>
      <trkpt lat="44.46248" lon="4.75872">
        <ele>144.9</ele>
      </trkpt>
      <trkpt lat="44.46253" lon="4.75863">
        <ele>144.5</ele>
      </trkpt>
      <trkpt lat="44.46256" lon="4.75855">
        <ele>144.2</ele>
      </trkpt>
      <trkpt lat="44.46258" lon="4.75846">
        <ele>143.8</ele>
      </trkpt>
      <trkpt lat="44.46258" lon="4.7584">
        <ele>143.5</ele>
      </trkpt>
      <trkpt lat="44.46258" lon="4.75835">
        <ele>143.2</ele>
      </trkpt>
      <trkpt lat="44.46257" lon="4.75831">
        <ele>143.2</ele>
      </trkpt>
      <trkpt lat="44.46256" lon="4.75827">
        <ele>143.1</ele>
      </trkpt>
      <trkpt lat="44.46255" lon="4.75822">
        <ele>143.1</ele>
      </trkpt>
      <trkpt lat="44.46253" lon="4.75818">
        <ele>143.1</ele>
      </trkpt>
      <trkpt lat="44.46251" lon="4.75814">
        <ele>143</ele>
      </trkpt>
      <trkpt lat="44.46248" lon="4.7581">
        <ele>143</ele>
      </trkpt>
      <trkpt lat="44.4624" lon="4.75802">
        <ele>143</ele>
      </trkpt>
      <trkpt lat="44.46232" lon="4.75799">
        <ele>143</ele>
      </trkpt>
      <trkpt lat="44.46223" lon="4.75799">
        <ele>143.1</ele>
      </trkpt>
      <trkpt lat="44.46217" lon="4.75879">
        <ele>145.2</ele>
      </trkpt>
      <trkpt lat="44.46208" lon="4.75884">
        <ele>145.3</ele>
      </trkpt>
      <trkpt lat="44.46204" lon="4.75887">
        <ele>145.4</ele>
      </trkpt>
      <trkpt lat="44.46199" lon="4.75892">
        <ele>145.6</ele>
      </trkpt>
      <trkpt lat="44.46193" lon="4.75898">
        <ele>145.7</ele>
      </trkpt>
      <trkpt lat="44.46175" lon="4.75914">
        <ele>146</ele>
      </trkpt>
      <trkpt lat="44.46146" lon="4.75946">
        <ele>146.2</ele>
      </trkpt>
      <trkpt lat="44.461" lon="4.75998">
        <ele>146.4</ele>
      </trkpt>
      <trkpt lat="44.46087" lon="4.76014">
        <ele>146.9</ele>
      </trkpt>
      <trkpt lat="44.46068" lon="4.76041">
        <ele>148.7</ele>
      </trkpt>
      <trkpt lat="44.46062" lon="4.76056">
        <ele>149.7</ele>
      </trkpt>
      <trkpt lat="44.46056" lon="4.7607">
        <ele>150.6</ele>
      </trkpt>
      <trkpt lat="44.46048" lon="4.76101">
        <ele>152.3</ele>
      </trkpt>
      <trkpt lat="44.46044" lon="4.76136">
        <ele>154</ele>
      </trkpt>
      <trkpt lat="44.46047" lon="4.76175">
        <ele>155.9</ele>
      </trkpt>
      <trkpt lat="44.46051" lon="4.76204">
        <ele>157.1</ele>
      </trkpt>
      <trkpt lat="44.46047" lon="4.762">
        <ele>157.1</ele>
      </trkpt>
      <trkpt lat="44.46042" lon="4.76198">
        <ele>157.2</ele>
      </trkpt>
      <trkpt lat="44.46036" lon="4.76199">
        <ele>157.4</ele>
      </trkpt>
      <trkpt lat="44.46029" lon="4.76203">
        <ele>157.9</ele>
      </trkpt>
      <trkpt lat="44.46026" lon="4.76207">
        <ele>158.3</ele>
      </trkpt>
      <trkpt lat="44.46023" lon="4.76214">
        <ele>158.9</ele>
      </trkpt>
      <trkpt lat="44.46022" lon="4.76226">
        <ele>159.7</ele>
      </trkpt>
      <trkpt lat="44.46024" lon="4.76234">
        <ele>160.2</ele>
      </trkpt>
      <trkpt lat="44.46027" lon="4.76241">
        <ele>160.4</ele>
      </trkpt>
      <trkpt lat="44.46033" lon="4.76246">
        <ele>160.4</ele>
      </trkpt>
      <trkpt lat="44.46039" lon="4.76248">
        <ele>160</ele>
      </trkpt>
      <trkpt lat="44.46046" lon="4.76246">
        <ele>159.5</ele>
      </trkpt>
      <trkpt lat="44.46051" lon="4.76242">
        <ele>159</ele>
      </trkpt>
      <trkpt lat="44.46054" lon="4.76237">
        <ele>158.5</ele>
      </trkpt>
      <trkpt lat="44.46057" lon="4.7623">
        <ele>158.1</ele>
      </trkpt>
      <trkpt lat="44.46057" lon="4.76219">
        <ele>157.5</ele>
      </trkpt>
      <trkpt lat="44.46055" lon="4.76211">
        <ele>157.3</ele>
      </trkpt>
      <trkpt lat="44.46051" lon="4.76204">
        <ele>157.1</ele>
      </trkpt>
      <trkpt lat="44.46047" lon="4.762">
        <ele>157.1</ele>
      </trkpt>
      <trkpt lat="44.46057" lon="4.7623">
        <ele>158.1</ele>
      </trkpt>
      <trkpt lat="44.4608" lon="4.76239">
        <ele>157</ele>
      </trkpt>
      <trkpt lat="44.46082" lon="4.76256">
        <ele>157.8</ele>
      </trkpt>
      <trkpt lat="44.46058" lon="4.76272">
        <ele>161.5</ele>
      </trkpt>
      <trkpt lat="44.46052" lon="4.76262">
        <ele>160.8</ele>
      </trkpt>
      <trkpt lat="44.46046" lon="4.76276">
        <ele>163.1</ele>
      </trkpt>
      <trkpt lat="44.46022" lon="4.76278">
        <ele>165.3</ele>
      </trkpt>
      <trkpt lat="44.46038" lon="4.76325">
        <ele>170.3</ele>
      </trkpt>
      <trkpt lat="44.46155" lon="4.76568">
        <ele>181.2</ele>
      </trkpt>
      <trkpt lat="44.4617" lon="4.7659">
        <ele>179.8</ele>
      </trkpt>
      <trkpt lat="44.4617" lon="4.76614">
        <ele>179.8</ele>
      </trkpt>
      <trkpt lat="44.46139" lon="4.76653">
        <ele>183.4</ele>
      </trkpt>
      <trkpt lat="44.46107" lon="4.76654">
        <ele>187.3</ele>
      </trkpt>
      <trkpt lat="44.46096" lon="4.76695">
        <ele>187.1</ele>
      </trkpt>
      <trkpt lat="44.46095" lon="4.76716">
        <ele>186.8</ele>
      </trkpt>
      <trkpt lat="44.46088" lon="4.76749">
        <ele>186.7</ele>
      </trkpt>
      <trkpt lat="44.46087" lon="4.76807">
        <ele>189.6</ele>
      </trkpt>
      <trkpt lat="44.46078" lon="4.76822">
        <ele>192</ele>
      </trkpt>
      <trkpt lat="44.4607" lon="4.76847">
        <ele>195</ele>
      </trkpt>
      <trkpt lat="44.4605" lon="4.76895">
        <ele>200.5</ele>
      </trkpt>
      <trkpt lat="44.46006" lon="4.76973">
        <ele>208.2</ele>
      </trkpt>
      <trkpt lat="44.45972" lon="4.77022">
        <ele>214.6</ele>
      </trkpt>
      <trkpt lat="44.45952" lon="4.77044">
        <ele>218.5</ele>
      </trkpt>
      <trkpt lat="44.45939" lon="4.77055">
        <ele>220.5</ele>
      </trkpt>
      <trkpt lat="44.45856" lon="4.77075">
        <ele>240</ele>
      </trkpt>
      <trkpt lat="44.45848" lon="4.77074">
        <ele>242.5</ele>
      </trkpt>
      <trkpt lat="44.45846" lon="4.77064">
        <ele>244.7</ele>
      </trkpt>
      <trkpt lat="44.45887" lon="4.77018">
        <ele>240.1</ele>
      </trkpt>
      <trkpt lat="44.45893" lon="4.77009">
        <ele>239.4</ele>
      </trkpt>
      <trkpt lat="44.45891" lon="4.77004">
        <ele>240.8</ele>
      </trkpt>
      <trkpt lat="44.45865" lon="4.77011">
        <ele>248</ele>
      </trkpt>
      <trkpt lat="44.45818" lon="4.77032">
        <ele>260.2</ele>
      </trkpt>
      <trkpt lat="44.45788" lon="4.77055">
        <ele>266.6</ele>
      </trkpt>
      <trkpt lat="44.45776" lon="4.77054">
        <ele>271.3</ele>
      </trkpt>
      <trkpt lat="44.45735" lon="4.77081">
        <ele>280.6</ele>
      </trkpt>
      <trkpt lat="44.45715" lon="4.77106">
        <ele>288.5</ele>
      </trkpt>
      <trkpt lat="44.45708" lon="4.77121">
        <ele>290.2</ele>
      </trkpt>
      <trkpt lat="44.45703" lon="4.77161">
        <ele>289.5</ele>
      </trkpt>
      <trkpt lat="44.45695" lon="4.7717">
        <ele>291.2</ele>
      </trkpt>
      <trkpt lat="44.45639" lon="4.77243">
        <ele>300.6</ele>
      </trkpt>
      <trkpt lat="44.45615" lon="4.77249">
        <ele>301.5</ele>
      </trkpt>
      <trkpt lat="44.45593" lon="4.77283">
        <ele>301.7</ele>
      </trkpt>
      <trkpt lat="44.45594" lon="4.77299">
        <ele>301.3</ele>
      </trkpt>
      <trkpt lat="44.45598" lon="4.77311">
        <ele>301.1</ele>
      </trkpt>
      <trkpt lat="44.45597" lon="4.77341">
        <ele>301.5</ele>
      </trkpt>
      <trkpt lat="44.45576" lon="4.77354">
        <ele>301.8</ele>
      </trkpt>
      <trkpt lat="44.4555" lon="4.77362">
        <ele>301.1</ele>
      </trkpt>
      <trkpt lat="44.45528" lon="4.77381">
        <ele>300.4</ele>
      </trkpt>
      <trkpt lat="44.45513" lon="4.77403">
        <ele>299.5</ele>
      </trkpt>
      <trkpt lat="44.455" lon="4.77416">
        <ele>298</ele>
      </trkpt>
      <trkpt lat="44.45421" lon="4.77452">
        <ele>299.6</ele>
      </trkpt>
      <trkpt lat="44.4539" lon="4.77458">
        <ele>299.7</ele>
      </trkpt>
      <trkpt lat="44.45365" lon="4.77468">
        <ele>300.3</ele>
      </trkpt>
      <trkpt lat="44.45351" lon="4.77481">
        <ele>301.4</ele>
      </trkpt>
      <trkpt lat="44.45337" lon="4.77513">
        <ele>304</ele>
      </trkpt>
      <trkpt lat="44.45327" lon="4.776">
        <ele>310.4</ele>
      </trkpt>
      <trkpt lat="44.45375" lon="4.77631">
        <ele>314.6</ele>
      </trkpt>
      <trkpt lat="44.45386" lon="4.77634">
        <ele>315.3</ele>
      </trkpt>
      <trkpt lat="44.45419" lon="4.77642">
        <ele>317</ele>
      </trkpt>
      <trkpt lat="44.45451" lon="4.77661">
        <ele>321</ele>
      </trkpt>
      <trkpt lat="44.45518" lon="4.77686">
        <ele>329.6</ele>
      </trkpt>
      <trkpt lat="44.45558" lon="4.77706">
        <ele>336</ele>
      </trkpt>
      <trkpt lat="44.45603" lon="4.77735">
        <ele>341.9</ele>
      </trkpt>
      <trkpt lat="44.45633" lon="4.7778">
        <ele>345</ele>
      </trkpt>
      <trkpt lat="44.45653" lon="4.77829">
        <ele>346.9</ele>
      </trkpt>
      <trkpt lat="44.4566" lon="4.77845">
        <ele>346.8</ele>
      </trkpt>
      <trkpt lat="44.45683" lon="4.77863">
        <ele>346.8</ele>
      </trkpt>
      <trkpt lat="44.45687" lon="4.77871">
        <ele>346.6</ele>
      </trkpt>
      <trkpt lat="44.457" lon="4.77848">
        <ele>347.6</ele>
      </trkpt>
      <trkpt lat="44.45726" lon="4.77816">
        <ele>348.9</ele>
      </trkpt>
      <trkpt lat="44.45757" lon="4.77741">
        <ele>348.5</ele>
      </trkpt>
      <trkpt lat="44.45777" lon="4.7769">
        <ele>345.8</ele>
      </trkpt>
      <trkpt lat="44.45795" lon="4.77698">
        <ele>346.6</ele>
      </trkpt>
      <trkpt lat="44.45817" lon="4.77688">
        <ele>346.5</ele>
      </trkpt>
      <trkpt lat="44.45837" lon="4.77674">
        <ele>346.4</ele>
      </trkpt>
      <trkpt lat="44.45858" lon="4.77667">
        <ele>346.9</ele>
      </trkpt>
      <trkpt lat="44.45864" lon="4.77683">
        <ele>347.5</ele>
      </trkpt>
      <trkpt lat="44.45868" lon="4.77708">
        <ele>348.1</ele>
      </trkpt>
      <trkpt lat="44.45887" lon="4.77709">
        <ele>348.5</ele>
      </trkpt>
      <trkpt lat="44.45903" lon="4.77725">
        <ele>348.9</ele>
      </trkpt>
      <trkpt lat="44.45913" lon="4.77761">
        <ele>347.8</ele>
      </trkpt>
      <trkpt lat="44.4592" lon="4.77786">
        <ele>344.1</ele>
      </trkpt>
      <trkpt lat="44.45926" lon="4.77813">
        <ele>339.7</ele>
      </trkpt>
      <trkpt lat="44.45939" lon="4.77837">
        <ele>334.9</ele>
      </trkpt>
      <trkpt lat="44.45946" lon="4.77867">
        <ele>332.7</ele>
      </trkpt>
      <trkpt lat="44.45941" lon="4.77883">
        <ele>332.4</ele>
      </trkpt>
      <trkpt lat="44.45936" lon="4.77898">
        <ele>331.8</ele>
      </trkpt>
      <trkpt lat="44.45936" lon="4.77908">
        <ele>331.2</ele>
      </trkpt>
      <trkpt lat="44.45949" lon="4.77913">
        <ele>331.3</ele>
      </trkpt>
      <trkpt lat="44.45959" lon="4.77916">
        <ele>331.5</ele>
      </trkpt>
      <trkpt lat="44.45974" lon="4.77912">
        <ele>331.9</ele>
      </trkpt>
      <trkpt lat="44.45981" lon="4.77915">
        <ele>332.2</ele>
      </trkpt>
      <trkpt lat="44.45994" lon="4.77933">
        <ele>335.3</ele>
      </trkpt>
      <trkpt lat="44.46006" lon="4.7793">
        <ele>335.8</ele>
      </trkpt>
      <trkpt lat="44.46022" lon="4.7793">
        <ele>337.5</ele>
      </trkpt>
      <trkpt lat="44.46032" lon="4.77939">
        <ele>339.9</ele>
      </trkpt>
      <trkpt lat="44.46045" lon="4.7796">
        <ele>344.4</ele>
      </trkpt>
      <trkpt lat="44.46048" lon="4.7798">
        <ele>347.4</ele>
      </trkpt>
      <trkpt lat="44.46043" lon="4.77996">
        <ele>349.1</ele>
      </trkpt>
      <trkpt lat="44.46031" lon="4.78022">
        <ele>350</ele>
      </trkpt>
      <trkpt lat="44.46026" lon="4.78035">
        <ele>350.4</ele>
      </trkpt>
      <trkpt lat="44.46015" lon="4.78053">
        <ele>350.5</ele>
      </trkpt>
      <trkpt lat="44.46011" lon="4.78064">
        <ele>350.9</ele>
      </trkpt>
      <trkpt lat="44.46005" lon="4.78076">
        <ele>351</ele>
      </trkpt>
      <trkpt lat="44.46002" lon="4.78095">
        <ele>351.6</ele>
      </trkpt>
      <trkpt lat="44.46003" lon="4.78111">
        <ele>352.3</ele>
      </trkpt>
      <trkpt lat="44.46013" lon="4.78119">
        <ele>353.5</ele>
      </trkpt>
      <trkpt lat="44.46027" lon="4.78121">
        <ele>354.8</ele>
      </trkpt>
      <trkpt lat="44.46041" lon="4.78125">
        <ele>356.2</ele>
      </trkpt>
      <trkpt lat="44.46053" lon="4.78139">
        <ele>357.7</ele>
      </trkpt>
      <trkpt lat="44.46062" lon="4.78157">
        <ele>358.9</ele>
      </trkpt>
      <trkpt lat="44.46068" lon="4.7818">
        <ele>359.7</ele>
      </trkpt>
      <trkpt lat="44.46077" lon="4.78197">
        <ele>360.4</ele>
      </trkpt>
      <trkpt lat="44.46083" lon="4.78212">
        <ele>360.9</ele>
      </trkpt>
      <trkpt lat="44.46089" lon="4.78226">
        <ele>361.2</ele>
      </trkpt>
      <trkpt lat="44.46094" lon="4.78235">
        <ele>361.5</ele>
      </trkpt>
      <trkpt lat="44.46108" lon="4.78272">
        <ele>361.1</ele>
      </trkpt>
      <trkpt lat="44.46126" lon="4.78315">
        <ele>359.8</ele>
      </trkpt>
      <trkpt lat="44.46129" lon="4.78344">
        <ele>358.6</ele>
      </trkpt>
      <trkpt lat="44.46138" lon="4.78383">
        <ele>356.9</ele>
      </trkpt>
      <trkpt lat="44.4615" lon="4.78392">
        <ele>356.1</ele>
      </trkpt>
      <trkpt lat="44.46163" lon="4.78392">
        <ele>355.6</ele>
      </trkpt>
      <trkpt lat="44.46177" lon="4.784">
        <ele>354.3</ele>
      </trkpt>
      <trkpt lat="44.46186" lon="4.78409">
        <ele>353</ele>
      </trkpt>
      <trkpt lat="44.46193" lon="4.78427">
        <ele>352</ele>
      </trkpt>
      <trkpt lat="44.46198" lon="4.78444">
        <ele>351.7</ele>
      </trkpt>
      <trkpt lat="44.462" lon="4.78464">
        <ele>351.5</ele>
      </trkpt>
      <trkpt lat="44.46199" lon="4.78477">
        <ele>351.5</ele>
      </trkpt>
      <trkpt lat="44.46203" lon="4.78485">
        <ele>351.3</ele>
      </trkpt>
      <trkpt lat="44.46207" lon="4.78491">
        <ele>351.1</ele>
      </trkpt>
      <trkpt lat="44.46214" lon="4.785">
        <ele>350.7</ele>
      </trkpt>
      <trkpt lat="44.46224" lon="4.78513">
        <ele>350.7</ele>
      </trkpt>
      <trkpt lat="44.46233" lon="4.78525">
        <ele>350.7</ele>
      </trkpt>
      <trkpt lat="44.46245" lon="4.78535">
        <ele>350.5</ele>
      </trkpt>
      <trkpt lat="44.46248" lon="4.78544">
        <ele>350.7</ele>
      </trkpt>
      <trkpt lat="44.46251" lon="4.7856">
        <ele>351.1</ele>
      </trkpt>
      <trkpt lat="44.46252" lon="4.78584">
        <ele>351.8</ele>
      </trkpt>
      <trkpt lat="44.46255" lon="4.78601">
        <ele>353.5</ele>
      </trkpt>
      <trkpt lat="44.46255" lon="4.78621">
        <ele>355.9</ele>
      </trkpt>
      <trkpt lat="44.46251" lon="4.78629">
        <ele>357.3</ele>
      </trkpt>
      <trkpt lat="44.46246" lon="4.78634">
        <ele>358.2</ele>
      </trkpt>
      <trkpt lat="44.46237" lon="4.7864">
        <ele>359</ele>
      </trkpt>
      <trkpt lat="44.46228" lon="4.7865">
        <ele>360.2</ele>
      </trkpt>
      <trkpt lat="44.46221" lon="4.78666">
        <ele>361.9</ele>
      </trkpt>
      <trkpt lat="44.46209" lon="4.78683">
        <ele>363.8</ele>
      </trkpt>
      <trkpt lat="44.46199" lon="4.78696">
        <ele>365.4</ele>
      </trkpt>
      <trkpt lat="44.46212" lon="4.78702">
        <ele>366</ele>
      </trkpt>
      <trkpt lat="44.46225" lon="4.78708">
        <ele>366.6</ele>
      </trkpt>
      <trkpt lat="44.46231" lon="4.78724">
        <ele>368.4</ele>
      </trkpt>
      <trkpt lat="44.46225" lon="4.78737">
        <ele>369.8</ele>
      </trkpt>
      <trkpt lat="44.46219" lon="4.78756">
        <ele>371.7</ele>
      </trkpt>
      <trkpt lat="44.46213" lon="4.78777">
        <ele>372.8</ele>
      </trkpt>
      <trkpt lat="44.46207" lon="4.78795">
        <ele>374</ele>
      </trkpt>
      <trkpt lat="44.46205" lon="4.78815">
        <ele>375.2</ele>
      </trkpt>
      <trkpt lat="44.46205" lon="4.78833">
        <ele>376.1</ele>
      </trkpt>
      <trkpt lat="44.46207" lon="4.78854">
        <ele>375.3</ele>
      </trkpt>
      <trkpt lat="44.46211" lon="4.78888">
        <ele>374</ele>
      </trkpt>
      <trkpt lat="44.46214" lon="4.78912">
        <ele>373.2</ele>
      </trkpt>
      <trkpt lat="44.46219" lon="4.78934">
        <ele>372.5</ele>
      </trkpt>
      <trkpt lat="44.46222" lon="4.78961">
        <ele>371.7</ele>
      </trkpt>
      <trkpt lat="44.46224" lon="4.78977">
        <ele>371.3</ele>
      </trkpt>
      <trkpt lat="44.4623" lon="4.79">
        <ele>370.8</ele>
      </trkpt>
      <trkpt lat="44.46235" lon="4.79018">
        <ele>370.7</ele>
      </trkpt>
      <trkpt lat="44.46243" lon="4.7905">
        <ele>370.7</ele>
      </trkpt>
      <trkpt lat="44.46248" lon="4.79072">
        <ele>370.9</ele>
      </trkpt>
      <trkpt lat="44.46254" lon="4.79101">
        <ele>369.9</ele>
      </trkpt>
      <trkpt lat="44.46265" lon="4.7912">
        <ele>367.9</ele>
      </trkpt>
      <trkpt lat="44.46289" lon="4.79153">
        <ele>365</ele>
      </trkpt>
      <trkpt lat="44.46328" lon="4.79202">
        <ele>361.8</ele>
      </trkpt>
      <trkpt lat="44.46365" lon="4.79251">
        <ele>358.6</ele>
      </trkpt>
      <trkpt lat="44.46391" lon="4.79279">
        <ele>356.6</ele>
      </trkpt>
      <trkpt lat="44.4642" lon="4.79311">
        <ele>356.3</ele>
      </trkpt>
      <trkpt lat="44.46452" lon="4.79349">
        <ele>354.6</ele>
      </trkpt>
      <trkpt lat="44.46482" lon="4.79351">
        <ele>352.1</ele>
      </trkpt>
      <trkpt lat="44.46499" lon="4.79355">
        <ele>350.9</ele>
      </trkpt>
      <trkpt lat="44.46524" lon="4.79376">
        <ele>347.6</ele>
      </trkpt>
      <trkpt lat="44.46547" lon="4.79396">
        <ele>345.4</ele>
      </trkpt>
      <trkpt lat="44.46561" lon="4.79418">
        <ele>345.8</ele>
      </trkpt>
      <trkpt lat="44.46572" lon="4.79439">
        <ele>345.7</ele>
      </trkpt>
      <trkpt lat="44.46569" lon="4.79467">
        <ele>348.2</ele>
      </trkpt>
      <trkpt lat="44.46564" lon="4.79496">
        <ele>350.6</ele>
      </trkpt>
      <trkpt lat="44.46559" lon="4.79526">
        <ele>351.6</ele>
      </trkpt>
      <trkpt lat="44.46556" lon="4.79552">
        <ele>352</ele>
      </trkpt>
      <trkpt lat="44.46544" lon="4.79572">
        <ele>352</ele>
      </trkpt>
      <trkpt lat="44.4653" lon="4.79594">
        <ele>351.7</ele>
      </trkpt>
      <trkpt lat="44.46518" lon="4.79617">
        <ele>351.2</ele>
      </trkpt>
      <trkpt lat="44.465" lon="4.79637">
        <ele>350.3</ele>
      </trkpt>
      <trkpt lat="44.46492" lon="4.79655">
        <ele>349.3</ele>
      </trkpt>
      <trkpt lat="44.46488" lon="4.79688">
        <ele>348.1</ele>
      </trkpt>
      <trkpt lat="44.46485" lon="4.7971">
        <ele>347.2</ele>
      </trkpt>
      <trkpt lat="44.46485" lon="4.79744">
        <ele>346.2</ele>
      </trkpt>
      <trkpt lat="44.46488" lon="4.79766">
        <ele>346</ele>
      </trkpt>
      <trkpt lat="44.46501" lon="4.79826">
        <ele>345.2</ele>
      </trkpt>
      <trkpt lat="44.46486" lon="4.79836">
        <ele>344.6</ele>
      </trkpt>
      <trkpt lat="44.46468" lon="4.79833">
        <ele>344.2</ele>
      </trkpt>
      <trkpt lat="44.4645" lon="4.79829">
        <ele>343.8</ele>
      </trkpt>
      <trkpt lat="44.46432" lon="4.7982">
        <ele>343.3</ele>
      </trkpt>
      <trkpt lat="44.46412" lon="4.79809">
        <ele>342.6</ele>
      </trkpt>
      <trkpt lat="44.46394" lon="4.79797">
        <ele>341.8</ele>
      </trkpt>
      <trkpt lat="44.46376" lon="4.79786">
        <ele>340.9</ele>
      </trkpt>
      <trkpt lat="44.46356" lon="4.79776">
        <ele>339.9</ele>
      </trkpt>
      <trkpt lat="44.46332" lon="4.79764">
        <ele>338.5</ele>
      </trkpt>
      <trkpt lat="44.46316" lon="4.7976">
        <ele>337.7</ele>
      </trkpt>
      <trkpt lat="44.46303" lon="4.79766">
        <ele>337.4</ele>
      </trkpt>
      <trkpt lat="44.46279" lon="4.79792">
        <ele>337.2</ele>
      </trkpt>
      <trkpt lat="44.46265" lon="4.79815">
        <ele>337.2</ele>
      </trkpt>
      <trkpt lat="44.46244" lon="4.79839">
        <ele>336.4</ele>
      </trkpt>
      <trkpt lat="44.46226" lon="4.79857">
        <ele>334.7</ele>
      </trkpt>
      <trkpt lat="44.46203" lon="4.79893">
        <ele>332.1</ele>
      </trkpt>
      <trkpt lat="44.4618" lon="4.79934">
        <ele>328.9</ele>
      </trkpt>
      <trkpt lat="44.46157" lon="4.79967">
        <ele>325.6</ele>
      </trkpt>
      <trkpt lat="44.46137" lon="4.7999">
        <ele>323.8</ele>
      </trkpt>
      <trkpt lat="44.46125" lon="4.80026">
        <ele>321.6</ele>
      </trkpt>
      <trkpt lat="44.46105" lon="4.80044">
        <ele>320</ele>
      </trkpt>
      <trkpt lat="44.46084" lon="4.80076">
        <ele>317.5</ele>
      </trkpt>
      <trkpt lat="44.4607" lon="4.80078">
        <ele>317.3</ele>
      </trkpt>
      <trkpt lat="44.46057" lon="4.80072">
        <ele>317.6</ele>
      </trkpt>
      <trkpt lat="44.46041" lon="4.80054">
        <ele>318.4</ele>
      </trkpt>
      <trkpt lat="44.46025" lon="4.80039">
        <ele>318.9</ele>
      </trkpt>
      <trkpt lat="44.46014" lon="4.80024">
        <ele>319.4</ele>
      </trkpt>
      <trkpt lat="44.45997" lon="4.80005">
        <ele>319.7</ele>
      </trkpt>
      <trkpt lat="44.45981" lon="4.79981">
        <ele>319.3</ele>
      </trkpt>
      <trkpt lat="44.45971" lon="4.79958">
        <ele>319.3</ele>
      </trkpt>
      <trkpt lat="44.45961" lon="4.79937">
        <ele>319.5</ele>
      </trkpt>
      <trkpt lat="44.45955" lon="4.79907">
        <ele>320.3</ele>
      </trkpt>
      <trkpt lat="44.45955" lon="4.79885">
        <ele>321.3</ele>
      </trkpt>
      <trkpt lat="44.45948" lon="4.79881">
        <ele>321.4</ele>
      </trkpt>
      <trkpt lat="44.45935" lon="4.79903">
        <ele>320.2</ele>
      </trkpt>
      <trkpt lat="44.45926" lon="4.79921">
        <ele>319</ele>
      </trkpt>
      <trkpt lat="44.45906" lon="4.79939">
        <ele>318</ele>
      </trkpt>
      <trkpt lat="44.45893" lon="4.79969">
        <ele>316.3</ele>
      </trkpt>
      <trkpt lat="44.45878" lon="4.80005">
        <ele>313.6</ele>
      </trkpt>
      <trkpt lat="44.45848" lon="4.8005">
        <ele>307.1</ele>
      </trkpt>
      <trkpt lat="44.45837" lon="4.80064">
        <ele>304.1</ele>
      </trkpt>
      <trkpt lat="44.45834" lon="4.8008">
        <ele>301.5</ele>
      </trkpt>
      <trkpt lat="44.45808" lon="4.80103">
        <ele>296.9</ele>
      </trkpt>
      <trkpt lat="44.45789" lon="4.80125">
        <ele>291.1</ele>
      </trkpt>
      <trkpt lat="44.45772" lon="4.80158">
        <ele>281.5</ele>
      </trkpt>
      <trkpt lat="44.45753" lon="4.8019">
        <ele>272.7</ele>
      </trkpt>
      <trkpt lat="44.45764" lon="4.80199">
        <ele>272.1</ele>
      </trkpt>
      <trkpt lat="44.45775" lon="4.80211">
        <ele>271.2</ele>
      </trkpt>
      <trkpt lat="44.45773" lon="4.80232">
        <ele>266.9</ele>
      </trkpt>
      <trkpt lat="44.45768" lon="4.80241">
        <ele>264.6</ele>
      </trkpt>
      <trkpt lat="44.45768" lon="4.80273">
        <ele>260.9</ele>
      </trkpt>
      <trkpt lat="44.45744" lon="4.80313">
        <ele>254.6</ele>
      </trkpt>
      <trkpt lat="44.45723" lon="4.80343">
        <ele>251.2</ele>
      </trkpt>
      <trkpt lat="44.45716" lon="4.80361">
        <ele>248.8</ele>
      </trkpt>
      <trkpt lat="44.45695" lon="4.80367">
        <ele>247.7</ele>
      </trkpt>
      <trkpt lat="44.45694" lon="4.80379">
        <ele>246.1</ele>
      </trkpt>
      <trkpt lat="44.45699" lon="4.80405">
        <ele>243.1</ele>
      </trkpt>
      <trkpt lat="44.45706" lon="4.80412">
        <ele>242.5</ele>
      </trkpt>
      <trkpt lat="44.45703" lon="4.80435">
        <ele>239.9</ele>
      </trkpt>
      <trkpt lat="44.45715" lon="4.8049">
        <ele>234.9</ele>
      </trkpt>
      <trkpt lat="44.45709" lon="4.80521">
        <ele>232.1</ele>
      </trkpt>
      <trkpt lat="44.45709" lon="4.80555">
        <ele>229.6</ele>
      </trkpt>
      <trkpt lat="44.45698" lon="4.80592">
        <ele>225.7</ele>
      </trkpt>
      <trkpt lat="44.45699" lon="4.80606">
        <ele>224.8</ele>
      </trkpt>
      <trkpt lat="44.45708" lon="4.80646">
        <ele>223</ele>
      </trkpt>
      <trkpt lat="44.45709" lon="4.80659">
        <ele>222.2</ele>
      </trkpt>
      <trkpt lat="44.45708" lon="4.80671">
        <ele>221.1</ele>
      </trkpt>
      <trkpt lat="44.45703" lon="4.80687">
        <ele>219.2</ele>
      </trkpt>
      <trkpt lat="44.45696" lon="4.8071">
        <ele>216.4</ele>
      </trkpt>
      <trkpt lat="44.45692" lon="4.80734">
        <ele>213.9</ele>
      </trkpt>
      <trkpt lat="44.45676" lon="4.80809">
        <ele>207.5</ele>
      </trkpt>
      <trkpt lat="44.45675" lon="4.80826">
        <ele>206.6</ele>
      </trkpt>
      <trkpt lat="44.45679" lon="4.80872">
        <ele>205.1</ele>
      </trkpt>
      <trkpt lat="44.45684" lon="4.80874">
        <ele>205.7</ele>
      </trkpt>
      <trkpt lat="44.45691" lon="4.80872">
        <ele>206.9</ele>
      </trkpt>
      <trkpt lat="44.457" lon="4.80851">
        <ele>209.1</ele>
      </trkpt>
      <trkpt lat="44.45705" lon="4.80849">
        <ele>209.9</ele>
      </trkpt>
      <trkpt lat="44.45711" lon="4.80855">
        <ele>210.6</ele>
      </trkpt>
      <trkpt lat="44.45711" lon="4.80867">
        <ele>210.2</ele>
      </trkpt>
      <trkpt lat="44.45709" lon="4.8089">
        <ele>209</ele>
      </trkpt>
      <trkpt lat="44.45704" lon="4.80922">
        <ele>207.1</ele>
      </trkpt>
      <trkpt lat="44.457" lon="4.80949">
        <ele>205.7</ele>
      </trkpt>
      <trkpt lat="44.457" lon="4.80958">
        <ele>205.4</ele>
      </trkpt>
      <trkpt lat="44.45695" lon="4.80969">
        <ele>204.4</ele>
      </trkpt>
      <trkpt lat="44.45694" lon="4.80983">
        <ele>203.7</ele>
      </trkpt>
      <trkpt lat="44.45695" lon="4.81002">
        <ele>203.3</ele>
      </trkpt>
      <trkpt lat="44.45701" lon="4.81023">
        <ele>202.2</ele>
      </trkpt>
      <trkpt lat="44.45711" lon="4.81038">
        <ele>202.2</ele>
      </trkpt>
      <trkpt lat="44.45742" lon="4.81081">
        <ele>200.6</ele>
      </trkpt>
      <trkpt lat="44.45749" lon="4.81091">
        <ele>200.3</ele>
      </trkpt>
      <trkpt lat="44.45749" lon="4.811">
        <ele>199.7</ele>
      </trkpt>
      <trkpt lat="44.45763" lon="4.81106">
        <ele>199.9</ele>
      </trkpt>
      <trkpt lat="44.45788" lon="4.81117">
        <ele>200.6</ele>
      </trkpt>
      <trkpt lat="44.45798" lon="4.8113">
        <ele>200.7</ele>
      </trkpt>
      <trkpt lat="44.45791" lon="4.81174">
        <ele>199.7</ele>
      </trkpt>
      <trkpt lat="44.45755" lon="4.8124">
        <ele>201.8</ele>
      </trkpt>
      <trkpt lat="44.45701" lon="4.81262">
        <ele>202.7</ele>
      </trkpt>
      <trkpt lat="44.4566" lon="4.81266">
        <ele>201.4</ele>
      </trkpt>
      <trkpt lat="44.45622" lon="4.81289">
        <ele>201</ele>
      </trkpt>
      <trkpt lat="44.45565" lon="4.81365">
        <ele>197.8</ele>
      </trkpt>
      <trkpt lat="44.45545" lon="4.814">
        <ele>196.8</ele>
      </trkpt>
      <trkpt lat="44.45526" lon="4.81415">
        <ele>195.5</ele>
      </trkpt>
      <trkpt lat="44.45499" lon="4.81437">
        <ele>191.5</ele>
      </trkpt>
      <trkpt lat="44.45457" lon="4.81462">
        <ele>187.9</ele>
      </trkpt>
      <trkpt lat="44.45461" lon="4.81488">
        <ele>186.4</ele>
      </trkpt>
      <trkpt lat="44.45482" lon="4.81521">
        <ele>184.9</ele>
      </trkpt>
      <trkpt lat="44.455" lon="4.81555">
        <ele>182.4</ele>
      </trkpt>
      <trkpt lat="44.45526" lon="4.816">
        <ele>182.2</ele>
      </trkpt>
      <trkpt lat="44.45535" lon="4.81627">
        <ele>183.4</ele>
      </trkpt>
      <trkpt lat="44.45539" lon="4.81639">
        <ele>183.8</ele>
      </trkpt>
      <trkpt lat="44.45538" lon="4.81656">
        <ele>184.2</ele>
      </trkpt>
      <trkpt lat="44.45532" lon="4.81672">
        <ele>185.1</ele>
      </trkpt>
      <trkpt lat="44.4552" lon="4.81681">
        <ele>186.5</ele>
      </trkpt>
      <trkpt lat="44.45505" lon="4.81686">
        <ele>187.4</ele>
      </trkpt>
      <trkpt lat="44.45485" lon="4.81679">
        <ele>188</ele>
      </trkpt>
      <trkpt lat="44.45479" lon="4.81675">
        <ele>187.9</ele>
      </trkpt>
      <trkpt lat="44.45457" lon="4.81658">
        <ele>187.8</ele>
      </trkpt>
      <trkpt lat="44.45441" lon="4.81656">
        <ele>188.9</ele>
      </trkpt>
      <trkpt lat="44.45428" lon="4.81656">
        <ele>190</ele>
      </trkpt>
      <trkpt lat="44.45419" lon="4.81656">
        <ele>190.6</ele>
      </trkpt>
      <trkpt lat="44.45401" lon="4.81643">
        <ele>191.7</ele>
      </trkpt>
      <trkpt lat="44.45381" lon="4.8162">
        <ele>191.6</ele>
      </trkpt>
      <trkpt lat="44.45361" lon="4.81588">
        <ele>189.7</ele>
      </trkpt>
      <trkpt lat="44.45344" lon="4.81555">
        <ele>188.8</ele>
      </trkpt>
      <trkpt lat="44.45328" lon="4.81531">
        <ele>188.2</ele>
      </trkpt>
      <trkpt lat="44.45314" lon="4.81505">
        <ele>187.3</ele>
      </trkpt>
      <trkpt lat="44.45297" lon="4.81487">
        <ele>187.5</ele>
      </trkpt>
      <trkpt lat="44.45272" lon="4.81473">
        <ele>187.9</ele>
      </trkpt>
      <trkpt lat="44.45247" lon="4.81472">
        <ele>189.1</ele>
      </trkpt>
      <trkpt lat="44.45228" lon="4.81477">
        <ele>190.2</ele>
      </trkpt>
      <trkpt lat="44.45205" lon="4.81464">
        <ele>189.1</ele>
      </trkpt>
      <trkpt lat="44.45205" lon="4.81498">
        <ele>193.8</ele>
      </trkpt>
      <trkpt lat="44.45264" lon="4.8155">
        <ele>196.9</ele>
      </trkpt>
      <trkpt lat="44.45271" lon="4.81564">
        <ele>197.4</ele>
      </trkpt>
      <trkpt lat="44.4527" lon="4.81582">
        <ele>199.5</ele>
      </trkpt>
      <trkpt lat="44.45258" lon="4.8159">
        <ele>202</ele>
      </trkpt>
      <trkpt lat="44.4522" lon="4.81591">
        <ele>204</ele>
      </trkpt>
      <trkpt lat="44.45187" lon="4.81599">
        <ele>206.2</ele>
      </trkpt>
      <trkpt lat="44.45185" lon="4.81611">
        <ele>208.4</ele>
      </trkpt>
      <trkpt lat="44.452" lon="4.8163">
        <ele>211.1</ele>
      </trkpt>
      <trkpt lat="44.45231" lon="4.81643">
        <ele>212.1</ele>
      </trkpt>
      <trkpt lat="44.45236" lon="4.8166">
        <ele>214.7</ele>
      </trkpt>
      <trkpt lat="44.45239" lon="4.81666">
        <ele>215.4</ele>
      </trkpt>
      <trkpt lat="44.4525" lon="4.81685">
        <ele>218.1</ele>
      </trkpt>
      <trkpt lat="44.4536" lon="4.81785">
        <ele>220.9</ele>
      </trkpt>
      <trkpt lat="44.45405" lon="4.81817">
        <ele>222</ele>
      </trkpt>
      <trkpt lat="44.45529" lon="4.81896">
        <ele>220.5</ele>
      </trkpt>
      <trkpt lat="44.45612" lon="4.81957">
        <ele>221.8</ele>
      </trkpt>
      <trkpt lat="44.457" lon="4.81999">
        <ele>221.4</ele>
      </trkpt>
      <trkpt lat="44.45755" lon="4.82029">
        <ele>220.1</ele>
      </trkpt>
      <trkpt lat="44.45782" lon="4.82063">
        <ele>223.9</ele>
      </trkpt>
      <trkpt lat="44.45808" lon="4.82102">
        <ele>228</ele>
      </trkpt>
      <trkpt lat="44.45836" lon="4.82153">
        <ele>232.7</ele>
      </trkpt>
      <trkpt lat="44.45844" lon="4.82171">
        <ele>234.2</ele>
      </trkpt>
      <trkpt lat="44.45848" lon="4.82191">
        <ele>235.7</ele>
      </trkpt>
      <trkpt lat="44.45859" lon="4.82238">
        <ele>239.2</ele>
      </trkpt>
      <trkpt lat="44.4586" lon="4.82254">
        <ele>240.7</ele>
      </trkpt>
      <trkpt lat="44.45855" lon="4.82267">
        <ele>242.1</ele>
      </trkpt>
      <trkpt lat="44.45843" lon="4.82284">
        <ele>243.8</ele>
      </trkpt>
      <trkpt lat="44.45842" lon="4.823">
        <ele>244.6</ele>
      </trkpt>
      <trkpt lat="44.45844" lon="4.82309">
        <ele>245.1</ele>
      </trkpt>
      <trkpt lat="44.45851" lon="4.82313">
        <ele>245.3</ele>
      </trkpt>
      <trkpt lat="44.4584" lon="4.82372">
        <ele>247</ele>
      </trkpt>
      <trkpt lat="44.4584" lon="4.8238">
        <ele>247.2</ele>
      </trkpt>
      <trkpt lat="44.45839" lon="4.82401">
        <ele>247.6</ele>
      </trkpt>
      <trkpt lat="44.45836" lon="4.82408">
        <ele>247.3</ele>
      </trkpt>
      <trkpt lat="44.45814" lon="4.82457">
        <ele>245.3</ele>
      </trkpt>
      <trkpt lat="44.45812" lon="4.82477">
        <ele>245.3</ele>
      </trkpt>
      <trkpt lat="44.45821" lon="4.82539">
        <ele>245</ele>
      </trkpt>
      <trkpt lat="44.45832" lon="4.82582">
        <ele>244.8</ele>
      </trkpt>
      <trkpt lat="44.45872" lon="4.82705">
        <ele>236</ele>
      </trkpt>
      <trkpt lat="44.45932" lon="4.82807">
        <ele>232</ele>
      </trkpt>
      <trkpt lat="44.45923" lon="4.82858">
        <ele>226.4</ele>
      </trkpt>
      <trkpt lat="44.45911" lon="4.82885">
        <ele>222.3</ele>
      </trkpt>
      <trkpt lat="44.45891" lon="4.82895">
        <ele>219.3</ele>
      </trkpt>
      <trkpt lat="44.45851" lon="4.829">
        <ele>215.3</ele>
      </trkpt>
      <trkpt lat="44.45834" lon="4.82907">
        <ele>213.1</ele>
      </trkpt>
      <trkpt lat="44.45832" lon="4.82921">
        <ele>211.4</ele>
      </trkpt>
      <trkpt lat="44.45835" lon="4.8293">
        <ele>211.1</ele>
      </trkpt>
      <trkpt lat="44.45861" lon="4.82953">
        <ele>211.2</ele>
      </trkpt>
      <trkpt lat="44.45875" lon="4.82985">
        <ele>209.4</ele>
      </trkpt>
      <trkpt lat="44.45894" lon="4.82996">
        <ele>209.3</ele>
      </trkpt>
      <trkpt lat="44.45905" lon="4.83023">
        <ele>209.6</ele>
      </trkpt>
      <trkpt lat="44.45915" lon="4.83031">
        <ele>210.2</ele>
      </trkpt>
      <trkpt lat="44.45921" lon="4.8304">
        <ele>210.9</ele>
      </trkpt>
      <trkpt lat="44.45927" lon="4.83054">
        <ele>211.9</ele>
      </trkpt>
      <trkpt lat="44.45928" lon="4.83065">
        <ele>212.4</ele>
      </trkpt>
      <trkpt lat="44.45946" lon="4.83047">
        <ele>213.9</ele>
      </trkpt>
      <trkpt lat="44.45953" lon="4.83045">
        <ele>214.7</ele>
      </trkpt>
      <trkpt lat="44.45982" lon="4.83058">
        <ele>219.3</ele>
      </trkpt>
      <trkpt lat="44.45993" lon="4.83056">
        <ele>220.5</ele>
      </trkpt>
      <trkpt lat="44.46002" lon="4.83069">
        <ele>223.3</ele>
      </trkpt>
      <trkpt lat="44.46029" lon="4.83059">
        <ele>225.4</ele>
      </trkpt>
      <trkpt lat="44.46109" lon="4.8301">
        <ele>226.9</ele>
      </trkpt>
      <trkpt lat="44.46137" lon="4.82994">
        <ele>228.5</ele>
      </trkpt>
      <trkpt lat="44.4618" lon="4.82984">
        <ele>233.2</ele>
      </trkpt>
      <trkpt lat="44.46231" lon="4.82978">
        <ele>238.2</ele>
      </trkpt>
      <trkpt lat="44.46261" lon="4.82978">
        <ele>240.6</ele>
      </trkpt>
      <trkpt lat="44.46284" lon="4.82997">
        <ele>242.7</ele>
      </trkpt>
      <trkpt lat="44.46287" lon="4.83015">
        <ele>246.1</ele>
      </trkpt>
      <trkpt lat="44.46277" lon="4.83032">
        <ele>249.2</ele>
      </trkpt>
      <trkpt lat="44.46249" lon="4.83044">
        <ele>250.8</ele>
      </trkpt>
      <trkpt lat="44.46224" lon="4.83055">
        <ele>250.3</ele>
      </trkpt>
      <trkpt lat="44.46189" lon="4.83085">
        <ele>252.6</ele>
      </trkpt>
      <trkpt lat="44.46173" lon="4.83102">
        <ele>253.1</ele>
      </trkpt>
      <trkpt lat="44.46165" lon="4.8313">
        <ele>255.9</ele>
      </trkpt>
      <trkpt lat="44.46143" lon="4.83169">
        <ele>259</ele>
      </trkpt>
      <trkpt lat="44.46128" lon="4.83185">
        <ele>259.4</ele>
      </trkpt>
      <trkpt lat="44.46081" lon="4.83261">
        <ele>262.1</ele>
      </trkpt>
      <trkpt lat="44.46076" lon="4.8328">
        <ele>262</ele>
      </trkpt>
      <trkpt lat="44.46077" lon="4.83302">
        <ele>262.8</ele>
      </trkpt>
      <trkpt lat="44.46064" lon="4.83349">
        <ele>261.5</ele>
      </trkpt>
      <trkpt lat="44.46061" lon="4.83383">
        <ele>261.1</ele>
      </trkpt>
      <trkpt lat="44.46063" lon="4.83414">
        <ele>261.5</ele>
      </trkpt>
      <trkpt lat="44.4607" lon="4.83445">
        <ele>261.9</ele>
      </trkpt>
      <trkpt lat="44.46097" lon="4.83519">
        <ele>261.7</ele>
      </trkpt>
      <trkpt lat="44.461" lon="4.83564">
        <ele>258.1</ele>
      </trkpt>
      <trkpt lat="44.46116" lon="4.83632">
        <ele>253.4</ele>
      </trkpt>
      <trkpt lat="44.46123" lon="4.83657">
        <ele>252</ele>
      </trkpt>
      <trkpt lat="44.46141" lon="4.83727">
        <ele>247.6</ele>
      </trkpt>
      <trkpt lat="44.46159" lon="4.83763">
        <ele>247.1</ele>
      </trkpt>
      <trkpt lat="44.46163" lon="4.83782">
        <ele>246.9</ele>
      </trkpt>
      <trkpt lat="44.46163" lon="4.838">
        <ele>245.8</ele>
      </trkpt>
      <trkpt lat="44.46148" lon="4.83839">
        <ele>240</ele>
      </trkpt>
      <trkpt lat="44.4615" lon="4.83865">
        <ele>237.2</ele>
      </trkpt>
      <trkpt lat="44.46161" lon="4.8391">
        <ele>233.6</ele>
      </trkpt>
      <trkpt lat="44.4617" lon="4.83942">
        <ele>230.1</ele>
      </trkpt>
      <trkpt lat="44.4617" lon="4.83954">
        <ele>228.2</ele>
      </trkpt>
      <trkpt lat="44.46172" lon="4.83967">
        <ele>226.3</ele>
      </trkpt>
      <trkpt lat="44.46182" lon="4.83996">
        <ele>223.1</ele>
      </trkpt>
      <trkpt lat="44.46185" lon="4.84024">
        <ele>220.3</ele>
      </trkpt>
      <trkpt lat="44.46192" lon="4.84035">
        <ele>220.3</ele>
      </trkpt>
      <trkpt lat="44.46213" lon="4.84065">
        <ele>220.2</ele>
      </trkpt>
      <trkpt lat="44.46229" lon="4.84088">
        <ele>220.1</ele>
      </trkpt>
      <trkpt lat="44.46237" lon="4.841">
        <ele>221.2</ele>
      </trkpt>
      <trkpt lat="44.46238" lon="4.84117">
        <ele>221.3</ele>
      </trkpt>
      <trkpt lat="44.46256" lon="4.84113">
        <ele>223.8</ele>
      </trkpt>
      <trkpt lat="44.46292" lon="4.84098">
        <ele>229.5</ele>
      </trkpt>
      <trkpt lat="44.46309" lon="4.84091">
        <ele>232.1</ele>
      </trkpt>
      <trkpt lat="44.46335" lon="4.84092">
        <ele>236</ele>
      </trkpt>
      <trkpt lat="44.46358" lon="4.84101">
        <ele>238</ele>
      </trkpt>
      <trkpt lat="44.46372" lon="4.84099">
        <ele>239.1</ele>
      </trkpt>
      <trkpt lat="44.46388" lon="4.84115">
        <ele>241</ele>
      </trkpt>
      <trkpt lat="44.46402" lon="4.84118">
        <ele>242.6</ele>
      </trkpt>
      <trkpt lat="44.46413" lon="4.84121">
        <ele>243.8</ele>
      </trkpt>
      <trkpt lat="44.46421" lon="4.84129">
        <ele>245.3</ele>
      </trkpt>
      <trkpt lat="44.46423" lon="4.84131">
        <ele>245.5</ele>
      </trkpt>
      <trkpt lat="44.4644" lon="4.84159">
        <ele>249.3</ele>
      </trkpt>
      <trkpt lat="44.46448" lon="4.84174">
        <ele>250.5</ele>
      </trkpt>
      <trkpt lat="44.4645" lon="4.8418">
        <ele>250.5</ele>
      </trkpt>
      <trkpt lat="44.46452" lon="4.84181">
        <ele>250.7</ele>
      </trkpt>
      <trkpt lat="44.46454" lon="4.84185">
        <ele>250.8</ele>
      </trkpt>
      <trkpt lat="44.46458" lon="4.84187">
        <ele>251.2</ele>
      </trkpt>
      <trkpt lat="44.46483" lon="4.84291">
        <ele>247</ele>
      </trkpt>
      <trkpt lat="44.46482" lon="4.84295">
        <ele>246.4</ele>
      </trkpt>
      <trkpt lat="44.46473" lon="4.84294">
        <ele>245.7</ele>
      </trkpt>
      <trkpt lat="44.46399" lon="4.84287">
        <ele>238.8</ele>
      </trkpt>
      <trkpt lat="44.46378" lon="4.84285">
        <ele>236.1</ele>
      </trkpt>
      <trkpt lat="44.46375" lon="4.84287">
        <ele>235.5</ele>
      </trkpt>
      <trkpt lat="44.46372" lon="4.84291">
        <ele>234.8</ele>
      </trkpt>
      <trkpt lat="44.46368" lon="4.84302">
        <ele>233.8</ele>
      </trkpt>
      <trkpt lat="44.46366" lon="4.84332">
        <ele>232</ele>
      </trkpt>
      <trkpt lat="44.46366" lon="4.84347">
        <ele>234.1</ele>
      </trkpt>
      <trkpt lat="44.46362" lon="4.8436">
        <ele>235.7</ele>
      </trkpt>
      <trkpt lat="44.46351" lon="4.84377">
        <ele>237.8</ele>
      </trkpt>
      <trkpt lat="44.46332" lon="4.84409">
        <ele>242.5</ele>
      </trkpt>
      <trkpt lat="44.46328" lon="4.84415">
        <ele>243.3</ele>
      </trkpt>
      <trkpt lat="44.46311" lon="4.84422">
        <ele>243.5</ele>
      </trkpt>
      <trkpt lat="44.46256" lon="4.84441">
        <ele>243.8</ele>
      </trkpt>
      <trkpt lat="44.46247" lon="4.84468">
        <ele>247.4</ele>
      </trkpt>
      <trkpt lat="44.46236" lon="4.84499">
        <ele>250.1</ele>
      </trkpt>
      <trkpt lat="44.4624" lon="4.8451">
        <ele>252.1</ele>
      </trkpt>
      <trkpt lat="44.46255" lon="4.84487">
        <ele>252</ele>
      </trkpt>
      <trkpt lat="44.4627" lon="4.84466">
        <ele>249</ele>
      </trkpt>
      <trkpt lat="44.46296" lon="4.84474">
        <ele>252.2</ele>
      </trkpt>
      <trkpt lat="44.46317" lon="4.84489">
        <ele>256</ele>
      </trkpt>
      <trkpt lat="44.46322" lon="4.84522">
        <ele>259.8</ele>
      </trkpt>
      <trkpt lat="44.46328" lon="4.84554">
        <ele>262.5</ele>
      </trkpt>
      <trkpt lat="44.46326" lon="4.84584">
        <ele>264.4</ele>
      </trkpt>
      <trkpt lat="44.46336" lon="4.84606">
        <ele>266.2</ele>
      </trkpt>
      <trkpt lat="44.46351" lon="4.84633">
        <ele>268.7</ele>
      </trkpt>
      <trkpt lat="44.46352" lon="4.84644">
        <ele>269.4</ele>
      </trkpt>
      <trkpt lat="44.46339" lon="4.84668">
        <ele>269.6</ele>
      </trkpt>
      <trkpt lat="44.46316" lon="4.84702">
        <ele>269.4</ele>
      </trkpt>
      <trkpt lat="44.46298" lon="4.84735">
        <ele>269.4</ele>
      </trkpt>
      <trkpt lat="44.46287" lon="4.84759">
        <ele>269.2</ele>
      </trkpt>
      <trkpt lat="44.46273" lon="4.84786">
        <ele>268.3</ele>
      </trkpt>
      <trkpt lat="44.46261" lon="4.84822">
        <ele>268.1</ele>
      </trkpt>
      <trkpt lat="44.46248" lon="4.84898">
        <ele>265.9</ele>
      </trkpt>
      <trkpt lat="44.46249" lon="4.84957">
        <ele>265.3</ele>
      </trkpt>
      <trkpt lat="44.4624" lon="4.84969">
        <ele>263.4</ele>
      </trkpt>
      <trkpt lat="44.46242" lon="4.85025">
        <ele>262.7</ele>
      </trkpt>
      <trkpt lat="44.46242" lon="4.85056">
        <ele>261.8</ele>
      </trkpt>
      <trkpt lat="44.46242" lon="4.85098">
        <ele>260.2</ele>
      </trkpt>
      <trkpt lat="44.46252" lon="4.85107">
        <ele>260.6</ele>
      </trkpt>
      <trkpt lat="44.46292" lon="4.85144">
        <ele>263.2</ele>
      </trkpt>
      <trkpt lat="44.46313" lon="4.85159">
        <ele>264.9</ele>
      </trkpt>
      <trkpt lat="44.46326" lon="4.85173">
        <ele>265.4</ele>
      </trkpt>
      <trkpt lat="44.46339" lon="4.85198">
        <ele>265</ele>
      </trkpt>
      <trkpt lat="44.46351" lon="4.85222">
        <ele>264.6</ele>
      </trkpt>
      <trkpt lat="44.46373" lon="4.85266">
        <ele>265.6</ele>
      </trkpt>
      <trkpt lat="44.46437" lon="4.85352">
        <ele>272.2</ele>
      </trkpt>
      <trkpt lat="44.46439" lon="4.85441">
        <ele>271.4</ele>
      </trkpt>
      <trkpt lat="44.46411" lon="4.85479">
        <ele>268.7</ele>
      </trkpt>
      <trkpt lat="44.46404" lon="4.85549">
        <ele>272.1</ele>
      </trkpt>
      <trkpt lat="44.46459" lon="4.85703">
        <ele>282.1</ele>
      </trkpt>
      <trkpt lat="44.4648" lon="4.85878">
        <ele>284.7</ele>
      </trkpt>
      <trkpt lat="44.46477" lon="4.86039">
        <ele>284.1</ele>
      </trkpt>
      <trkpt lat="44.46483" lon="4.8608">
        <ele>284.2</ele>
      </trkpt>
      <trkpt lat="44.46493" lon="4.86116">
        <ele>285</ele>
      </trkpt>
      <trkpt lat="44.4648" lon="4.86206">
        <ele>296</ele>
      </trkpt>
      <trkpt lat="44.46478" lon="4.86221">
        <ele>298.2</ele>
      </trkpt>
      <trkpt lat="44.46543" lon="4.8646">
        <ele>317.2</ele>
      </trkpt>
      <trkpt lat="44.46573" lon="4.86485">
        <ele>313.8</ele>
      </trkpt>
      <trkpt lat="44.46641" lon="4.86595">
        <ele>319.5</ele>
      </trkpt>
      <trkpt lat="44.46705" lon="4.86737">
        <ele>329.8</ele>
      </trkpt>
      <trkpt lat="44.46764" lon="4.86822">
        <ele>333.4</ele>
      </trkpt>
      <trkpt lat="44.46785" lon="4.86927">
        <ele>341.9</ele>
      </trkpt>
      <trkpt lat="44.46776" lon="4.8704">
        <ele>349.3</ele>
      </trkpt>
      <trkpt lat="44.46753" lon="4.87057">
        <ele>353</ele>
      </trkpt>
      <trkpt lat="44.46746" lon="4.87119">
        <ele>356.4</ele>
      </trkpt>
      <trkpt lat="44.46727" lon="4.87165">
        <ele>360.3</ele>
      </trkpt>
      <trkpt lat="44.46684" lon="4.87206">
        <ele>365.2</ele>
      </trkpt>
      <trkpt lat="44.46651" lon="4.87218">
        <ele>368.3</ele>
      </trkpt>
      <trkpt lat="44.46626" lon="4.872">
        <ele>370.3</ele>
      </trkpt>
      <trkpt lat="44.46585" lon="4.87211">
        <ele>373</ele>
      </trkpt>
      <trkpt lat="44.46587" lon="4.87224">
        <ele>373.1</ele>
      </trkpt>
      <trkpt lat="44.46614" lon="4.87247">
        <ele>371</ele>
      </trkpt>
      <trkpt lat="44.4666" lon="4.8729">
        <ele>366.2</ele>
      </trkpt>
      <trkpt lat="44.46704" lon="4.87387">
        <ele>358.7</ele>
      </trkpt>
      <trkpt lat="44.46727" lon="4.87404">
        <ele>354.8</ele>
      </trkpt>
      <trkpt lat="44.46732" lon="4.87433">
        <ele>354.4</ele>
      </trkpt>
      <trkpt lat="44.46746" lon="4.87482">
        <ele>354.6</ele>
      </trkpt>
      <trkpt lat="44.46766" lon="4.87482">
        <ele>354.8</ele>
      </trkpt>
      <trkpt lat="44.46771" lon="4.87482">
        <ele>355</ele>
      </trkpt>
      <trkpt lat="44.46786" lon="4.87511">
        <ele>357.5</ele>
      </trkpt>
      <trkpt lat="44.46829" lon="4.87644">
        <ele>369.7</ele>
      </trkpt>
      <trkpt lat="44.46833" lon="4.87677">
        <ele>372.4</ele>
      </trkpt>
      <trkpt lat="44.46836" lon="4.87689">
        <ele>372.9</ele>
      </trkpt>
      <trkpt lat="44.46845" lon="4.87697">
        <ele>373.6</ele>
      </trkpt>
      <trkpt lat="44.46857" lon="4.87694">
        <ele>374</ele>
      </trkpt>
      <trkpt lat="44.46863" lon="4.87696">
        <ele>374.4</ele>
      </trkpt>
      <trkpt lat="44.46876" lon="4.87713">
        <ele>375.8</ele>
      </trkpt>
      <trkpt lat="44.46881" lon="4.87731">
        <ele>376.9</ele>
      </trkpt>
      <trkpt lat="44.46884" lon="4.87747">
        <ele>377.9</ele>
      </trkpt>
      <trkpt lat="44.46888" lon="4.87763">
        <ele>378.3</ele>
      </trkpt>
      <trkpt lat="44.46895" lon="4.87792">
        <ele>378.7</ele>
      </trkpt>
      <trkpt lat="44.46903" lon="4.87809">
        <ele>379.2</ele>
      </trkpt>
      <trkpt lat="44.46915" lon="4.87827">
        <ele>379.9</ele>
      </trkpt>
      <trkpt lat="44.46921" lon="4.87845">
        <ele>380.2</ele>
      </trkpt>
      <trkpt lat="44.46928" lon="4.87869">
        <ele>380.7</ele>
      </trkpt>
      <trkpt lat="44.46937" lon="4.87891">
        <ele>381.4</ele>
      </trkpt>
      <trkpt lat="44.46941" lon="4.87912">
        <ele>382</ele>
      </trkpt>
      <trkpt lat="44.4695" lon="4.87981">
        <ele>382.1</ele>
      </trkpt>
      <trkpt lat="44.46962" lon="4.88009">
        <ele>382.7</ele>
      </trkpt>
      <trkpt lat="44.46979" lon="4.88031">
        <ele>383.8</ele>
      </trkpt>
      <trkpt lat="44.46992" lon="4.8805">
        <ele>384.3</ele>
      </trkpt>
      <trkpt lat="44.46998" lon="4.88064">
        <ele>384.3</ele>
      </trkpt>
      <trkpt lat="44.47009" lon="4.88101">
        <ele>385</ele>
      </trkpt>
      <trkpt lat="44.47023" lon="4.88142">
        <ele>386.5</ele>
      </trkpt>
      <trkpt lat="44.47028" lon="4.88157">
        <ele>387</ele>
      </trkpt>
      <trkpt lat="44.47035" lon="4.88166">
        <ele>387.5</ele>
      </trkpt>
      <trkpt lat="44.47058" lon="4.88181">
        <ele>389.5</ele>
      </trkpt>
      <trkpt lat="44.47117" lon="4.88217">
        <ele>391.9</ele>
      </trkpt>
      <trkpt lat="44.47131" lon="4.88237">
        <ele>392.7</ele>
      </trkpt>
      <trkpt lat="44.47161" lon="4.88289">
        <ele>394.8</ele>
      </trkpt>
      <trkpt lat="44.47172" lon="4.88304">
        <ele>395.1</ele>
      </trkpt>
      <trkpt lat="44.47278" lon="4.88428">
        <ele>399.9</ele>
      </trkpt>
      <trkpt lat="44.47307" lon="4.88464">
        <ele>402.1</ele>
      </trkpt>
      <trkpt lat="44.47326" lon="4.88481">
        <ele>403.7</ele>
      </trkpt>
      <trkpt lat="44.47329" lon="4.88482">
        <ele>403.9</ele>
      </trkpt>
      <trkpt lat="44.47347" lon="4.88491">
        <ele>404.7</ele>
      </trkpt>
      <trkpt lat="44.4737" lon="4.88504">
        <ele>405.6</ele>
      </trkpt>
      <trkpt lat="44.47379" lon="4.88515">
        <ele>406.4</ele>
      </trkpt>
      <trkpt lat="44.47393" lon="4.88538">
        <ele>408.1</ele>
      </trkpt>
      <trkpt lat="44.47412" lon="4.88575">
        <ele>411.2</ele>
      </trkpt>
      <trkpt lat="44.47456" lon="4.88625">
        <ele>412.3</ele>
      </trkpt>
      <trkpt lat="44.47483" lon="4.88671">
        <ele>413.4</ele>
      </trkpt>
      <trkpt lat="44.47498" lon="4.88716">
        <ele>415.9</ele>
      </trkpt>
      <trkpt lat="44.47507" lon="4.88789">
        <ele>418.6</ele>
      </trkpt>
      <trkpt lat="44.47519" lon="4.88836">
        <ele>419.4</ele>
      </trkpt>
      <trkpt lat="44.47528" lon="4.88872">
        <ele>419.9</ele>
      </trkpt>
      <trkpt lat="44.47532" lon="4.88892">
        <ele>420.4</ele>
      </trkpt>
      <trkpt lat="44.47532" lon="4.88934">
        <ele>421.7</ele>
      </trkpt>
      <trkpt lat="44.4752" lon="4.88992">
        <ele>423.4</ele>
      </trkpt>
      <trkpt lat="44.4752" lon="4.89002">
        <ele>423.8</ele>
      </trkpt>
      <trkpt lat="44.47519" lon="4.89022">
        <ele>424.2</ele>
      </trkpt>
      <trkpt lat="44.47513" lon="4.89046">
        <ele>424.3</ele>
      </trkpt>
      <trkpt lat="44.47505" lon="4.89096">
        <ele>424.9</ele>
      </trkpt>
      <trkpt lat="44.47499" lon="4.89161">
        <ele>426.8</ele>
      </trkpt>
      <trkpt lat="44.47494" lon="4.89237">
        <ele>428.5</ele>
      </trkpt>
      <trkpt lat="44.47495" lon="4.89302">
        <ele>429.4</ele>
      </trkpt>
      <trkpt lat="44.47503" lon="4.89381">
        <ele>430.3</ele>
      </trkpt>
      <trkpt lat="44.47501" lon="4.8943">
        <ele>429.7</ele>
      </trkpt>
      <trkpt lat="44.47491" lon="4.89483">
        <ele>427.9</ele>
      </trkpt>
      <trkpt lat="44.47478" lon="4.89532">
        <ele>425.5</ele>
      </trkpt>
      <trkpt lat="44.4748" lon="4.89556">
        <ele>424.8</ele>
      </trkpt>
      <trkpt lat="44.47476" lon="4.89606">
        <ele>422.4</ele>
      </trkpt>
      <trkpt lat="44.47474" lon="4.89652">
        <ele>420.2</ele>
      </trkpt>
      <trkpt lat="44.47476" lon="4.89752">
        <ele>417.1</ele>
      </trkpt>
      <trkpt lat="44.47476" lon="4.89757">
        <ele>417</ele>
      </trkpt>
      <trkpt lat="44.4748" lon="4.89769">
        <ele>416.9</ele>
      </trkpt>
      <trkpt lat="44.47486" lon="4.8979">
        <ele>416.5</ele>
      </trkpt>
      <trkpt lat="44.4749" lon="4.89796">
        <ele>416.4</ele>
      </trkpt>
      <trkpt lat="44.47496" lon="4.89799">
        <ele>416.3</ele>
      </trkpt>
      <trkpt lat="44.47509" lon="4.89806">
        <ele>416</ele>
      </trkpt>
      <trkpt lat="44.47512" lon="4.89808">
        <ele>416</ele>
      </trkpt>
      <trkpt lat="44.47537" lon="4.89809">
        <ele>415.9</ele>
      </trkpt>
      <trkpt lat="44.4757" lon="4.89805">
        <ele>416.4</ele>
      </trkpt>
      <trkpt lat="44.47599" lon="4.89807">
        <ele>417.7</ele>
      </trkpt>
      <trkpt lat="44.47647" lon="4.89825">
        <ele>420.7</ele>
      </trkpt>
      <trkpt lat="44.47678" lon="4.89842">
        <ele>421.3</ele>
      </trkpt>
      <trkpt lat="44.47702" lon="4.89867">
        <ele>419.3</ele>
      </trkpt>
      <trkpt lat="44.47728" lon="4.8989">
        <ele>418.6</ele>
      </trkpt>
      <trkpt lat="44.47773" lon="4.89915">
        <ele>418.7</ele>
      </trkpt>
      <trkpt lat="44.47791" lon="4.89927">
        <ele>418.2</ele>
      </trkpt>
      <trkpt lat="44.47876" lon="4.90038">
        <ele>417.1</ele>
      </trkpt>
      <trkpt lat="44.4796" lon="4.90066">
        <ele>423</ele>
      </trkpt>
      <trkpt lat="44.47973" lon="4.90091">
        <ele>424</ele>
      </trkpt>
      <trkpt lat="44.47977" lon="4.90098">
        <ele>424.2</ele>
      </trkpt>
      <trkpt lat="44.47993" lon="4.90113">
        <ele>425.2</ele>
      </trkpt>
      <trkpt lat="44.48001" lon="4.90129">
        <ele>425.5</ele>
      </trkpt>
      <trkpt lat="44.4807" lon="4.90325">
        <ele>433.6</ele>
      </trkpt>
      <trkpt lat="44.4807" lon="4.9034">
        <ele>433.6</ele>
      </trkpt>
      <trkpt lat="44.4807" lon="4.90371">
        <ele>432.6</ele>
      </trkpt>
      <trkpt lat="44.48069" lon="4.90379">
        <ele>432.3</ele>
      </trkpt>
      <trkpt lat="44.48071" lon="4.90385">
        <ele>432.1</ele>
      </trkpt>
      <trkpt lat="44.48075" lon="4.90389">
        <ele>432</ele>
      </trkpt>
      <trkpt lat="44.48072" lon="4.90414">
        <ele>431.1</ele>
      </trkpt>
      <trkpt lat="44.48054" lon="4.90515">
        <ele>431.6</ele>
      </trkpt>
      <trkpt lat="44.48052" lon="4.90527">
        <ele>432.1</ele>
      </trkpt>
      <trkpt lat="44.48047" lon="4.90563">
        <ele>433.3</ele>
      </trkpt>
      <trkpt lat="44.48048" lon="4.90594">
        <ele>434.2</ele>
      </trkpt>
      <trkpt lat="44.48035" lon="4.90653">
        <ele>434.9</ele>
      </trkpt>
      <trkpt lat="44.48016" lon="4.90669">
        <ele>435.7</ele>
      </trkpt>
      <trkpt lat="44.47999" lon="4.90676">
        <ele>436.4</ele>
      </trkpt>
      <trkpt lat="44.47815" lon="4.90703">
        <ele>448.5</ele>
      </trkpt>
      <trkpt lat="44.47795" lon="4.90723">
        <ele>450.3</ele>
      </trkpt>
      <trkpt lat="44.47791" lon="4.90732">
        <ele>450.9</ele>
      </trkpt>
      <trkpt lat="44.47805" lon="4.90786">
        <ele>453.4</ele>
      </trkpt>
      <trkpt lat="44.47844" lon="4.90889">
        <ele>457.2</ele>
      </trkpt>
      <trkpt lat="44.47873" lon="4.90965">
        <ele>458.4</ele>
      </trkpt>
      <trkpt lat="44.47893" lon="4.91013">
        <ele>460.8</ele>
      </trkpt>
      <trkpt lat="44.47924" lon="4.91073">
        <ele>463.6</ele>
      </trkpt>
      <trkpt lat="44.47951" lon="4.91135">
        <ele>462.2</ele>
      </trkpt>
      <trkpt lat="44.47978" lon="4.91175">
        <ele>463.2</ele>
      </trkpt>
      <trkpt lat="44.48018" lon="4.91244">
        <ele>464.5</ele>
      </trkpt>
      <trkpt lat="44.48047" lon="4.91295">
        <ele>464.3</ele>
      </trkpt>
      <trkpt lat="44.48122" lon="4.91433">
        <ele>469.2</ele>
      </trkpt>
      <trkpt lat="44.48146" lon="4.91467">
        <ele>469.8</ele>
      </trkpt>
      <trkpt lat="44.48157" lon="4.91486">
        <ele>470.3</ele>
      </trkpt>
      <trkpt lat="44.48175" lon="4.91523">
        <ele>470.4</ele>
      </trkpt>
      <trkpt lat="44.48188" lon="4.91553">
        <ele>469.7</ele>
      </trkpt>
      <trkpt lat="44.48205" lon="4.91592">
        <ele>468.9</ele>
      </trkpt>
      <trkpt lat="44.48209" lon="4.91618">
        <ele>467.9</ele>
      </trkpt>
      <trkpt lat="44.48219" lon="4.91663">
        <ele>466.7</ele>
      </trkpt>
      <trkpt lat="44.48216" lon="4.91818">
        <ele>467.4</ele>
      </trkpt>
      <trkpt lat="44.48216" lon="4.91851">
        <ele>468.1</ele>
      </trkpt>
      <trkpt lat="44.48222" lon="4.91877">
        <ele>469.3</ele>
      </trkpt>
      <trkpt lat="44.4825" lon="4.91937">
        <ele>472</ele>
      </trkpt>
      <trkpt lat="44.48258" lon="4.91965">
        <ele>471</ele>
      </trkpt>
      <trkpt lat="44.48288" lon="4.92083">
        <ele>471.2</ele>
      </trkpt>
      <trkpt lat="44.48301" lon="4.92123">
        <ele>471.8</ele>
      </trkpt>
      <trkpt lat="44.48324" lon="4.92227">
        <ele>472</ele>
      </trkpt>
      <trkpt lat="44.48338" lon="4.92257">
        <ele>471.8</ele>
      </trkpt>
      <trkpt lat="44.48381" lon="4.92326">
        <ele>470.9</ele>
      </trkpt>
      <trkpt lat="44.48402" lon="4.92379">
        <ele>471.3</ele>
      </trkpt>
      <trkpt lat="44.48417" lon="4.92482">
        <ele>470.3</ele>
      </trkpt>
      <trkpt lat="44.48423" lon="4.92524">
        <ele>468.6</ele>
      </trkpt>
      <trkpt lat="44.48434" lon="4.92567">
        <ele>467</ele>
      </trkpt>
      <trkpt lat="44.48437" lon="4.92579">
        <ele>466.8</ele>
      </trkpt>
      <trkpt lat="44.4844" lon="4.92588">
        <ele>466.5</ele>
      </trkpt>
      <trkpt lat="44.48465" lon="4.92666">
        <ele>465.6</ele>
      </trkpt>
      <trkpt lat="44.48484" lon="4.92793">
        <ele>464.9</ele>
      </trkpt>
      <trkpt lat="44.485" lon="4.92825">
        <ele>465.2</ele>
      </trkpt>
      <trkpt lat="44.48532" lon="4.92868">
        <ele>464.6</ele>
      </trkpt>
      <trkpt lat="44.48543" lon="4.92948">
        <ele>465.4</ele>
      </trkpt>
      <trkpt lat="44.48556" lon="4.92986">
        <ele>466</ele>
      </trkpt>
      <trkpt lat="44.48565" lon="4.93">
        <ele>466.7</ele>
      </trkpt>
      <trkpt lat="44.48579" lon="4.93041">
        <ele>467.2</ele>
      </trkpt>
      <trkpt lat="44.48591" lon="4.93101">
        <ele>466.3</ele>
      </trkpt>
      <trkpt lat="44.48613" lon="4.93209">
        <ele>465.7</ele>
      </trkpt>
      <trkpt lat="44.48645" lon="4.93297">
        <ele>467.3</ele>
      </trkpt>
      <trkpt lat="44.48664" lon="4.9337">
        <ele>470.7</ele>
      </trkpt>
      <trkpt lat="44.48681" lon="4.93438">
        <ele>472.7</ele>
      </trkpt>
      <trkpt lat="44.48703" lon="4.9348">
        <ele>473.9</ele>
      </trkpt>
      <trkpt lat="44.48729" lon="4.93517">
        <ele>475.8</ele>
      </trkpt>
      <trkpt lat="44.48739" lon="4.93548">
        <ele>477.6</ele>
      </trkpt>
      <trkpt lat="44.48756" lon="4.93587">
        <ele>479.9</ele>
      </trkpt>
      <trkpt lat="44.48778" lon="4.93622">
        <ele>481.8</ele>
      </trkpt>
      <trkpt lat="44.48802" lon="4.9366">
        <ele>485.7</ele>
      </trkpt>
      <trkpt lat="44.48829" lon="4.93692">
        <ele>489</ele>
      </trkpt>
      <trkpt lat="44.48848" lon="4.93734">
        <ele>491.5</ele>
      </trkpt>
      <trkpt lat="44.48871" lon="4.93764">
        <ele>493.4</ele>
      </trkpt>
      <trkpt lat="44.48894" lon="4.93787">
        <ele>495.1</ele>
      </trkpt>
      <trkpt lat="44.48912" lon="4.93834">
        <ele>498.4</ele>
      </trkpt>
      <trkpt lat="44.48923" lon="4.93852">
        <ele>498.1</ele>
      </trkpt>
      <trkpt lat="44.48949" lon="4.9387">
        <ele>497.4</ele>
      </trkpt>
      <trkpt lat="44.4897" lon="4.93892">
        <ele>498.4</ele>
      </trkpt>
      <trkpt lat="44.48984" lon="4.9392">
        <ele>500.9</ele>
      </trkpt>
      <trkpt lat="44.49004" lon="4.9396">
        <ele>502.7</ele>
      </trkpt>
      <trkpt lat="44.49007" lon="4.93973">
        <ele>502.8</ele>
      </trkpt>
      <trkpt lat="44.49015" lon="4.94">
        <ele>503.3</ele>
      </trkpt>
      <trkpt lat="44.49018" lon="4.9404">
        <ele>502.3</ele>
      </trkpt>
      <trkpt lat="44.49022" lon="4.94067">
        <ele>501.8</ele>
      </trkpt>
      <trkpt lat="44.49028" lon="4.94076">
        <ele>501.8</ele>
      </trkpt>
      <trkpt lat="44.49033" lon="4.94083">
        <ele>501.8</ele>
      </trkpt>
      <trkpt lat="44.49062" lon="4.94103">
        <ele>500.6</ele>
      </trkpt>
      <trkpt lat="44.49092" lon="4.94115">
        <ele>499.7</ele>
      </trkpt>
      <trkpt lat="44.49134" lon="4.94111">
        <ele>497.1</ele>
      </trkpt>
      <trkpt lat="44.49184" lon="4.9409">
        <ele>493.2</ele>
      </trkpt>
      <trkpt lat="44.49209" lon="4.94073">
        <ele>490.4</ele>
      </trkpt>
      <trkpt lat="44.49224" lon="4.94067">
        <ele>488.7</ele>
      </trkpt>
      <trkpt lat="44.49246" lon="4.94065">
        <ele>486.7</ele>
      </trkpt>
      <trkpt lat="44.49265" lon="4.94046">
        <ele>485.4</ele>
      </trkpt>
      <trkpt lat="44.49277" lon="4.94037">
        <ele>485.1</ele>
      </trkpt>
      <trkpt lat="44.49284" lon="4.94021">
        <ele>484.8</ele>
      </trkpt>
      <trkpt lat="44.49284" lon="4.94006">
        <ele>484.5</ele>
      </trkpt>
      <trkpt lat="44.49287" lon="4.93987">
        <ele>482.9</ele>
      </trkpt>
      <trkpt lat="44.49294" lon="4.93984">
        <ele>482.6</ele>
      </trkpt>
      <trkpt lat="44.49309" lon="4.93983">
        <ele>482.8</ele>
      </trkpt>
      <trkpt lat="44.49326" lon="4.9398">
        <ele>482.9</ele>
      </trkpt>
      <trkpt lat="44.49337" lon="4.93975">
        <ele>482.9</ele>
      </trkpt>
      <trkpt lat="44.49322" lon="4.94012">
        <ele>484.8</ele>
      </trkpt>
      <trkpt lat="44.49273" lon="4.94195">
        <ele>478</ele>
      </trkpt>
      <trkpt lat="44.49266" lon="4.9422">
        <ele>476.5</ele>
      </trkpt>
      <trkpt lat="44.49249" lon="4.94281">
        <ele>472.8</ele>
      </trkpt>
      <trkpt lat="44.49225" lon="4.94334">
        <ele>469.3</ele>
      </trkpt>
      <trkpt lat="44.49282" lon="4.94353">
        <ele>462.1</ele>
      </trkpt>
      <trkpt lat="44.49296" lon="4.94397">
        <ele>458</ele>
      </trkpt>
      <trkpt lat="44.49311" lon="4.94433">
        <ele>456.8</ele>
      </trkpt>
      <trkpt lat="44.49317" lon="4.94429">
        <ele>456.9</ele>
      </trkpt>
      <trkpt lat="44.49324" lon="4.94433">
        <ele>457.1</ele>
      </trkpt>
      <trkpt lat="44.49329" lon="4.94439">
        <ele>457.4</ele>
      </trkpt>
      <trkpt lat="44.49334" lon="4.94457">
        <ele>458</ele>
      </trkpt>
      <trkpt lat="44.49337" lon="4.94463">
        <ele>458.6</ele>
      </trkpt>
      <trkpt lat="44.49346" lon="4.94469">
        <ele>459.9</ele>
      </trkpt>
      <trkpt lat="44.49356" lon="4.94472">
        <ele>461.3</ele>
      </trkpt>
      <trkpt lat="44.49367" lon="4.94472">
        <ele>462.8</ele>
      </trkpt>
      <trkpt lat="44.49389" lon="4.94474">
        <ele>465.7</ele>
      </trkpt>
      <trkpt lat="44.49419" lon="4.94472">
        <ele>469.5</ele>
      </trkpt>
      <trkpt lat="44.49436" lon="4.94472">
        <ele>471.5</ele>
      </trkpt>
      <trkpt lat="44.49485" lon="4.94458">
        <ele>477.2</ele>
      </trkpt>
      <trkpt lat="44.49506" lon="4.94443">
        <ele>480.1</ele>
      </trkpt>
      <trkpt lat="44.49524" lon="4.94417">
        <ele>483.1</ele>
      </trkpt>
      <trkpt lat="44.49536" lon="4.94405">
        <ele>484.8</ele>
      </trkpt>
      <trkpt lat="44.49555" lon="4.9441">
        <ele>487.3</ele>
      </trkpt>
      <trkpt lat="44.49581" lon="4.94424">
        <ele>490.4</ele>
      </trkpt>
      <trkpt lat="44.496" lon="4.94425">
        <ele>491.1</ele>
      </trkpt>
      <trkpt lat="44.49631" lon="4.94428">
        <ele>492</ele>
      </trkpt>
      <trkpt lat="44.4965" lon="4.94564">
        <ele>491.2</ele>
      </trkpt>
      <trkpt lat="44.49651" lon="4.94573">
        <ele>491.1</ele>
      </trkpt>
      <trkpt lat="44.49653" lon="4.94587">
        <ele>491.2</ele>
      </trkpt>
      <trkpt lat="44.49654" lon="4.94644">
        <ele>491.7</ele>
      </trkpt>
      <trkpt lat="44.4965" lon="4.94669">
        <ele>491.4</ele>
      </trkpt>
      <trkpt lat="44.49651" lon="4.94685">
        <ele>491.6</ele>
      </trkpt>
      <trkpt lat="44.49648" lon="4.9471">
        <ele>491.6</ele>
      </trkpt>
      <trkpt lat="44.4964" lon="4.94756">
        <ele>491.8</ele>
      </trkpt>
      <trkpt lat="44.49626" lon="4.94781">
        <ele>491.6</ele>
      </trkpt>
      <trkpt lat="44.49603" lon="4.94823">
        <ele>493.9</ele>
      </trkpt>
      <trkpt lat="44.49599" lon="4.9489">
        <ele>498.9</ele>
      </trkpt>
      <trkpt lat="44.495" lon="4.95052">
        <ele>512.7</ele>
      </trkpt>
      <trkpt lat="44.49478" lon="4.95133">
        <ele>514.5</ele>
      </trkpt>
      <trkpt lat="44.4947" lon="4.95212">
        <ele>516.1</ele>
      </trkpt>
      <trkpt lat="44.49464" lon="4.95235">
        <ele>516.2</ele>
      </trkpt>
      <trkpt lat="44.49456" lon="4.9525">
        <ele>515.8</ele>
      </trkpt>
      <trkpt lat="44.4943" lon="4.953">
        <ele>517.5</ele>
      </trkpt>
      <trkpt lat="44.49443" lon="4.95359">
        <ele>521.6</ele>
      </trkpt>
      <trkpt lat="44.49533" lon="4.95502">
        <ele>532.1</ele>
      </trkpt>
      <trkpt lat="44.4958" lon="4.95604">
        <ele>539.1</ele>
      </trkpt>
      <trkpt lat="44.49607" lon="4.95649">
        <ele>542.2</ele>
      </trkpt>
      <trkpt lat="44.49633" lon="4.9568">
        <ele>544.4</ele>
      </trkpt>
      <trkpt lat="44.49649" lon="4.95724">
        <ele>547.5</ele>
      </trkpt>
      <trkpt lat="44.4966" lon="4.95741">
        <ele>549.1</ele>
      </trkpt>
      <trkpt lat="44.49668" lon="4.95768">
        <ele>550.9</ele>
      </trkpt>
      <trkpt lat="44.49673" lon="4.95783">
        <ele>551.6</ele>
      </trkpt>
      <trkpt lat="44.4969" lon="4.95887">
        <ele>552.4</ele>
      </trkpt>
      <trkpt lat="44.49686" lon="4.95931">
        <ele>552.5</ele>
      </trkpt>
      <trkpt lat="44.49712" lon="4.96006">
        <ele>550.8</ele>
      </trkpt>
      <trkpt lat="44.49733" lon="4.96085">
        <ele>551.7</ele>
      </trkpt>
      <trkpt lat="44.49746" lon="4.96107">
        <ele>552.7</ele>
      </trkpt>
      <trkpt lat="44.4975" lon="4.96122">
        <ele>553</ele>
      </trkpt>
      <trkpt lat="44.49755" lon="4.96147">
        <ele>552.2</ele>
      </trkpt>
      <trkpt lat="44.49758" lon="4.96161">
        <ele>551.9</ele>
      </trkpt>
      <trkpt lat="44.49757" lon="4.96185">
        <ele>552.5</ele>
      </trkpt>
      <trkpt lat="44.49753" lon="4.96236">
        <ele>553.6</ele>
      </trkpt>
      <trkpt lat="44.49761" lon="4.96296">
        <ele>555</ele>
      </trkpt>
      <trkpt lat="44.49781" lon="4.96352">
        <ele>556.4</ele>
      </trkpt>
      <trkpt lat="44.49793" lon="4.96385">
        <ele>556.8</ele>
      </trkpt>
      <trkpt lat="44.49802" lon="4.96421">
        <ele>557.6</ele>
      </trkpt>
      <trkpt lat="44.49829" lon="4.96523">
        <ele>562.2</ele>
      </trkpt>
      <trkpt lat="44.49811" lon="4.96588">
        <ele>565.3</ele>
      </trkpt>
      <trkpt lat="44.49793" lon="4.9665">
        <ele>564</ele>
      </trkpt>
      <trkpt lat="44.49775" lon="4.96698">
        <ele>562.5</ele>
      </trkpt>
      <trkpt lat="44.4976" lon="4.96736">
        <ele>562.6</ele>
      </trkpt>
      <trkpt lat="44.49746" lon="4.96772">
        <ele>565</ele>
      </trkpt>
      <trkpt lat="44.4974" lon="4.96822">
        <ele>567.2</ele>
      </trkpt>
      <trkpt lat="44.49713" lon="4.96887">
        <ele>574</ele>
      </trkpt>
      <trkpt lat="44.49706" lon="4.96908">
        <ele>575.9</ele>
      </trkpt>
      <trkpt lat="44.49708" lon="4.96924">
        <ele>577.1</ele>
      </trkpt>
      <trkpt lat="44.49728" lon="4.96984">
        <ele>582.7</ele>
      </trkpt>
      <trkpt lat="44.49754" lon="4.97061">
        <ele>590.6</ele>
      </trkpt>
      <trkpt lat="44.49766" lon="4.97097">
        <ele>592.2</ele>
      </trkpt>
      <trkpt lat="44.49777" lon="4.97222">
        <ele>603.2</ele>
      </trkpt>
      <trkpt lat="44.4983" lon="4.97272">
        <ele>609</ele>
      </trkpt>
      <trkpt lat="44.49889" lon="4.97307">
        <ele>614.9</ele>
      </trkpt>
      <trkpt lat="44.49909" lon="4.97328">
        <ele>620</ele>
      </trkpt>
      <trkpt lat="44.49937" lon="4.97348">
        <ele>623.7</ele>
      </trkpt>
      <trkpt lat="44.4998" lon="4.9739">
        <ele>630.2</ele>
      </trkpt>
      <trkpt lat="44.49998" lon="4.97424">
        <ele>635.3</ele>
      </trkpt>
      <trkpt lat="44.50027" lon="4.97577">
        <ele>643.2</ele>
      </trkpt>
      <trkpt lat="44.50012" lon="4.97588">
        <ele>642.5</ele>
      </trkpt>
      <trkpt lat="44.49977" lon="4.97679">
        <ele>635.2</ele>
      </trkpt>
      <trkpt lat="44.49973" lon="4.97705">
        <ele>631.2</ele>
      </trkpt>
      <trkpt lat="44.49992" lon="4.9771">
        <ele>628.2</ele>
      </trkpt>
      <trkpt lat="44.5002" lon="4.97708">
        <ele>625.4</ele>
      </trkpt>
      <trkpt lat="44.50078" lon="4.9766">
        <ele>627.9</ele>
      </trkpt>
      <trkpt lat="44.50081" lon="4.97689">
        <ele>622.2</ele>
      </trkpt>
      <trkpt lat="44.50075" lon="4.97746">
        <ele>612.5</ele>
      </trkpt>
      <trkpt lat="44.50079" lon="4.97833">
        <ele>606</ele>
      </trkpt>
      <trkpt lat="44.50053" lon="4.97875">
        <ele>604.6</ele>
      </trkpt>
      <trkpt lat="44.50006" lon="4.97928">
        <ele>596.7</ele>
      </trkpt>
      <trkpt lat="44.49937" lon="4.98104">
        <ele>576.9</ele>
      </trkpt>
      <trkpt lat="44.499" lon="4.98165">
        <ele>572.1</ele>
      </trkpt>
      <trkpt lat="44.4982" lon="4.98203">
        <ele>574.8</ele>
      </trkpt>
      <trkpt lat="44.49751" lon="4.98251">
        <ele>584</ele>
      </trkpt>
      <trkpt lat="44.49701" lon="4.98314">
        <ele>585</ele>
      </trkpt>
      <trkpt lat="44.4964" lon="4.98381">
        <ele>584.1</ele>
      </trkpt>
      <trkpt lat="44.49581" lon="4.98538">
        <ele>583.8</ele>
      </trkpt>
      <trkpt lat="44.49574" lon="4.98598">
        <ele>584.6</ele>
      </trkpt>
      <trkpt lat="44.49548" lon="4.98674">
        <ele>585.4</ele>
      </trkpt>
      <trkpt lat="44.49545" lon="4.98715">
        <ele>586.6</ele>
      </trkpt>
      <trkpt lat="44.4952" lon="4.98779">
        <ele>590.8</ele>
      </trkpt>
      <trkpt lat="44.49492" lon="4.98806">
        <ele>594.1</ele>
      </trkpt>
      <trkpt lat="44.49486" lon="4.98823">
        <ele>594.7</ele>
      </trkpt>
      <trkpt lat="44.4945" lon="4.98864">
        <ele>597.9</ele>
      </trkpt>
      <trkpt lat="44.49425" lon="4.9894">
        <ele>601.2</ele>
      </trkpt>
      <trkpt lat="44.49435" lon="4.99001">
        <ele>602.6</ele>
      </trkpt>
      <trkpt lat="44.49427" lon="4.99034">
        <ele>605.1</ele>
      </trkpt>
      <trkpt lat="44.49402" lon="4.99069">
        <ele>609.4</ele>
      </trkpt>
      <trkpt lat="44.49355" lon="4.99001">
        <ele>608.3</ele>
      </trkpt>
      <trkpt lat="44.49239" lon="4.98917">
        <ele>613.6</ele>
      </trkpt>
      <trkpt lat="44.49212" lon="4.98933">
        <ele>616.4</ele>
      </trkpt>
      <trkpt lat="44.49192" lon="4.98959">
        <ele>619.8</ele>
      </trkpt>
      <trkpt lat="44.49186" lon="4.98966">
        <ele>620.8</ele>
      </trkpt>
      <trkpt lat="44.49184" lon="4.98982">
        <ele>622.4</ele>
      </trkpt>
      <trkpt lat="44.49187" lon="4.98997">
        <ele>623.7</ele>
      </trkpt>
      <trkpt lat="44.492" lon="4.99048">
        <ele>625.1</ele>
      </trkpt>
      <trkpt lat="44.49203" lon="4.99068">
        <ele>625.8</ele>
      </trkpt>
      <trkpt lat="44.49204" lon="4.99078">
        <ele>626.2</ele>
      </trkpt>
      <trkpt lat="44.49204" lon="4.99122">
        <ele>628.8</ele>
      </trkpt>
      <trkpt lat="44.49208" lon="4.99141">
        <ele>630</ele>
      </trkpt>
      <trkpt lat="44.49208" lon="4.99158">
        <ele>631</ele>
      </trkpt>
      <trkpt lat="44.49222" lon="4.99284">
        <ele>637.3</ele>
      </trkpt>
      <trkpt lat="44.49173" lon="4.99441">
        <ele>647.4</ele>
      </trkpt>
      <trkpt lat="44.49181" lon="4.9949">
        <ele>649.1</ele>
      </trkpt>
      <trkpt lat="44.49195" lon="4.99548">
        <ele>652.5</ele>
      </trkpt>
      <trkpt lat="44.49243" lon="4.99642">
        <ele>663.6</ele>
      </trkpt>
      <trkpt lat="44.49252" lon="4.99642">
        <ele>665.3</ele>
      </trkpt>
      <trkpt lat="44.49262" lon="4.99647">
        <ele>667.2</ele>
      </trkpt>
      <trkpt lat="44.49273" lon="4.99662">
        <ele>670</ele>
      </trkpt>
      <trkpt lat="44.49281" lon="4.99678">
        <ele>671.8</ele>
      </trkpt>
      <trkpt lat="44.49291" lon="4.99688">
        <ele>674</ele>
      </trkpt>
      <trkpt lat="44.49299" lon="4.99693">
        <ele>676.2</ele>
      </trkpt>
      <trkpt lat="44.49308" lon="4.99705">
        <ele>678.9</ele>
      </trkpt>
      <trkpt lat="44.49316" lon="4.99713">
        <ele>681.4</ele>
      </trkpt>
      <trkpt lat="44.49324" lon="4.99719">
        <ele>684.4</ele>
      </trkpt>
      <trkpt lat="44.49334" lon="4.99726">
        <ele>687.7</ele>
      </trkpt>
      <trkpt lat="44.49343" lon="4.99734">
        <ele>690.8</ele>
      </trkpt>
      <trkpt lat="44.49353" lon="4.99738">
        <ele>693.8</ele>
      </trkpt>
      <trkpt lat="44.49367" lon="4.99738">
        <ele>697.3</ele>
      </trkpt>
      <trkpt lat="44.49377" lon="4.99736">
        <ele>699.4</ele>
      </trkpt>
      <trkpt lat="44.49383" lon="4.99743">
        <ele>702</ele>
      </trkpt>
      <trkpt lat="44.49389" lon="4.99758">
        <ele>704.3</ele>
      </trkpt>
      <trkpt lat="44.49399" lon="4.99767">
        <ele>706.6</ele>
      </trkpt>
      <trkpt lat="44.49412" lon="4.99776">
        <ele>710.3</ele>
      </trkpt>
      <trkpt lat="44.49427" lon="4.99786">
        <ele>714.5</ele>
      </trkpt>
      <trkpt lat="44.49441" lon="4.99795">
        <ele>718.7</ele>
      </trkpt>
      <trkpt lat="44.4946" lon="4.99805">
        <ele>725.3</ele>
      </trkpt>
      <trkpt lat="44.49477" lon="4.99815">
        <ele>731.5</ele>
      </trkpt>
      <trkpt lat="44.49491" lon="4.99825">
        <ele>737.1</ele>
      </trkpt>
      <trkpt lat="44.49508" lon="4.99834">
        <ele>742</ele>
      </trkpt>
      <trkpt lat="44.49521" lon="4.9984">
        <ele>741.8</ele>
      </trkpt>
      <trkpt lat="44.49535" lon="4.99842">
        <ele>743.1</ele>
      </trkpt>
      <trkpt lat="44.49548" lon="4.99847">
        <ele>743.3</ele>
      </trkpt>
      <trkpt lat="44.4956" lon="4.99843">
        <ele>746.4</ele>
      </trkpt>
      <trkpt lat="44.49569" lon="4.99839">
        <ele>748.8</ele>
      </trkpt>
      <trkpt lat="44.4958" lon="4.9984">
        <ele>750.2</ele>
      </trkpt>
      <trkpt lat="44.49595" lon="4.9984">
        <ele>751</ele>
      </trkpt>
      <trkpt lat="44.49611" lon="4.99837">
        <ele>752.5</ele>
      </trkpt>
      <trkpt lat="44.49626" lon="4.99832">
        <ele>754.3</ele>
      </trkpt>
      <trkpt lat="44.49641" lon="4.99826">
        <ele>754</ele>
      </trkpt>
      <trkpt lat="44.49658" lon="4.99819">
        <ele>753.6</ele>
      </trkpt>
      <trkpt lat="44.49678" lon="4.99815">
        <ele>755.2</ele>
      </trkpt>
      <trkpt lat="44.49699" lon="4.99816">
        <ele>759.1</ele>
      </trkpt>
      <trkpt lat="44.49717" lon="4.99823">
        <ele>762.8</ele>
      </trkpt>
      <trkpt lat="44.49733" lon="4.99824">
        <ele>765.7</ele>
      </trkpt>
      <trkpt lat="44.49751" lon="4.99821">
        <ele>768.5</ele>
      </trkpt>
      <trkpt lat="44.49771" lon="4.99819">
        <ele>773.6</ele>
      </trkpt>
      <trkpt lat="44.49789" lon="4.99818">
        <ele>778.4</ele>
      </trkpt>
      <trkpt lat="44.49815" lon="4.99814">
        <ele>785.2</ele>
      </trkpt>
      <trkpt lat="44.4984" lon="4.99812">
        <ele>791.6</ele>
      </trkpt>
      <trkpt lat="44.4986" lon="4.99807">
        <ele>796.5</ele>
      </trkpt>
      <trkpt lat="44.4988" lon="4.99805">
        <ele>801.3</ele>
      </trkpt>
      <trkpt lat="44.49888" lon="4.99802">
        <ele>802.8</ele>
      </trkpt>
      <trkpt lat="44.49896" lon="4.99796">
        <ele>804</ele>
      </trkpt>
      <trkpt lat="44.49907" lon="4.99801">
        <ele>807.1</ele>
      </trkpt>
      <trkpt lat="44.49922" lon="4.99813">
        <ele>811.4</ele>
      </trkpt>
      <trkpt lat="44.49938" lon="4.99822">
        <ele>814</ele>
      </trkpt>
      <trkpt lat="44.4996" lon="4.99832">
        <ele>817.9</ele>
      </trkpt>
      <trkpt lat="44.49984" lon="4.99847">
        <ele>817.9</ele>
      </trkpt>
      <trkpt lat="44.50002" lon="4.99855">
        <ele>820</ele>
      </trkpt>
      <trkpt lat="44.50018" lon="4.99863">
        <ele>824.2</ele>
      </trkpt>
      <trkpt lat="44.50032" lon="4.99874">
        <ele>828.8</ele>
      </trkpt>
      <trkpt lat="44.50048" lon="4.99886">
        <ele>835.2</ele>
      </trkpt>
      <trkpt lat="44.50062" lon="4.99901">
        <ele>843</ele>
      </trkpt>
      <trkpt lat="44.5008" lon="4.99928">
        <ele>852.9</ele>
      </trkpt>
      <trkpt lat="44.50093" lon="4.99946">
        <ele>853.5</ele>
      </trkpt>
      <trkpt lat="44.50105" lon="4.99966">
        <ele>854.5</ele>
      </trkpt>
      <trkpt lat="44.50117" lon="4.99984">
        <ele>858.4</ele>
      </trkpt>
      <trkpt lat="44.50129" lon="4.99997">
        <ele>864.4</ele>
      </trkpt>
      <trkpt lat="44.50141" lon="5.00015">
        <ele>868.8</ele>
      </trkpt>
      <trkpt lat="44.50155" lon="5.00028">
        <ele>875</ele>
      </trkpt>
      <trkpt lat="44.50165" lon="5.00039">
        <ele>879.8</ele>
      </trkpt>
      <trkpt lat="44.50168" lon="5.00045">
        <ele>880</ele>
      </trkpt>
      <trkpt lat="44.50171" lon="5.00049">
        <ele>879.3</ele>
      </trkpt>
      <trkpt lat="44.50176" lon="5.00067">
        <ele>877.4</ele>
      </trkpt>
      <trkpt lat="44.50181" lon="5.00092">
        <ele>874</ele>
      </trkpt>
      <trkpt lat="44.50185" lon="5.00117">
        <ele>868.9</ele>
      </trkpt>
      <trkpt lat="44.50188" lon="5.00144">
        <ele>864.1</ele>
      </trkpt>
      <trkpt lat="44.50192" lon="5.0018">
        <ele>858.5</ele>
      </trkpt>
      <trkpt lat="44.50191" lon="5.00201">
        <ele>855.1</ele>
      </trkpt>
      <trkpt lat="44.50188" lon="5.00225">
        <ele>850.9</ele>
      </trkpt>
      <trkpt lat="44.5018" lon="5.00242">
        <ele>847.1</ele>
      </trkpt>
      <trkpt lat="44.5017" lon="5.00266">
        <ele>843.4</ele>
      </trkpt>
      <trkpt lat="44.50162" lon="5.00291">
        <ele>838.8</ele>
      </trkpt>
      <trkpt lat="44.50156" lon="5.00313">
        <ele>833.9</ele>
      </trkpt>
      <trkpt lat="44.50147" lon="5.00345">
        <ele>829.8</ele>
      </trkpt>
      <trkpt lat="44.50142" lon="5.00379">
        <ele>829.5</ele>
      </trkpt>
      <trkpt lat="44.50137" lon="5.00414">
        <ele>830.3</ele>
      </trkpt>
      <trkpt lat="44.50135" lon="5.00448">
        <ele>831.2</ele>
      </trkpt>
      <trkpt lat="44.50132" lon="5.0047">
        <ele>831.7</ele>
      </trkpt>
      <trkpt lat="44.50129" lon="5.00493">
        <ele>832.3</ele>
      </trkpt>
      <trkpt lat="44.50123" lon="5.00512">
        <ele>831.6</ele>
      </trkpt>
      <trkpt lat="44.50117" lon="5.00533">
        <ele>830.8</ele>
      </trkpt>
      <trkpt lat="44.5011" lon="5.00558">
        <ele>830.3</ele>
      </trkpt>
      <trkpt lat="44.50104" lon="5.00587">
        <ele>830.2</ele>
      </trkpt>
      <trkpt lat="44.50102" lon="5.00613">
        <ele>828.2</ele>
      </trkpt>
      <trkpt lat="44.50102" lon="5.00644">
        <ele>826.1</ele>
      </trkpt>
      <trkpt lat="44.50105" lon="5.00666">
        <ele>824.6</ele>
      </trkpt>
      <trkpt lat="44.50108" lon="5.00683">
        <ele>820.7</ele>
      </trkpt>
      <trkpt lat="44.50121" lon="5.00719">
        <ele>813.2</ele>
      </trkpt>
      <trkpt lat="44.50126" lon="5.00754">
        <ele>806.5</ele>
      </trkpt>
      <trkpt lat="44.50129" lon="5.0078">
        <ele>803.6</ele>
      </trkpt>
      <trkpt lat="44.50131" lon="5.00808">
        <ele>800.3</ele>
      </trkpt>
      <trkpt lat="44.50134" lon="5.00834">
        <ele>797.7</ele>
      </trkpt>
      <trkpt lat="44.50143" lon="5.00859">
        <ele>797.4</ele>
      </trkpt>
      <trkpt lat="44.50155" lon="5.00886">
        <ele>798.8</ele>
      </trkpt>
      <trkpt lat="44.5017" lon="5.00917">
        <ele>799.8</ele>
      </trkpt>
      <trkpt lat="44.50179" lon="5.00936">
        <ele>796.9</ele>
      </trkpt>
      <trkpt lat="44.50192" lon="5.0095">
        <ele>795.7</ele>
      </trkpt>
      <trkpt lat="44.50209" lon="5.00964">
        <ele>796.3</ele>
      </trkpt>
      <trkpt lat="44.50226" lon="5.00976">
        <ele>798.3</ele>
      </trkpt>
      <trkpt lat="44.50224" lon="5.00982">
        <ele>798.1</ele>
      </trkpt>
      <trkpt lat="44.50226" lon="5.00992">
        <ele>798.4</ele>
      </trkpt>
      <trkpt lat="44.50232" lon="5.01003">
        <ele>799.4</ele>
      </trkpt>
      <trkpt lat="44.50238" lon="5.01013">
        <ele>799.4</ele>
      </trkpt>
      <trkpt lat="44.50239" lon="5.01024">
        <ele>798.5</ele>
      </trkpt>
      <trkpt lat="44.50238" lon="5.01033">
        <ele>796.7</ele>
      </trkpt>
      <trkpt lat="44.50233" lon="5.01043">
        <ele>793.7</ele>
      </trkpt>
      <trkpt lat="44.50228" lon="5.01064">
        <ele>789.2</ele>
      </trkpt>
      <trkpt lat="44.50227" lon="5.01088">
        <ele>784.4</ele>
      </trkpt>
      <trkpt lat="44.50226" lon="5.01113">
        <ele>777.4</ele>
      </trkpt>
      <trkpt lat="44.50229" lon="5.01138">
        <ele>771.9</ele>
      </trkpt>
      <trkpt lat="44.50228" lon="5.01153">
        <ele>767.5</ele>
      </trkpt>
      <trkpt lat="44.50224" lon="5.01163">
        <ele>763.2</ele>
      </trkpt>
      <trkpt lat="44.50217" lon="5.01173">
        <ele>757.2</ele>
      </trkpt>
      <trkpt lat="44.50219" lon="5.01183">
        <ele>755.2</ele>
      </trkpt>
      <trkpt lat="44.50218" lon="5.012">
        <ele>750</ele>
      </trkpt>
      <trkpt lat="44.50221" lon="5.01222">
        <ele>745.3</ele>
      </trkpt>
      <trkpt lat="44.50224" lon="5.01231">
        <ele>743.9</ele>
      </trkpt>
      <trkpt lat="44.50231" lon="5.01235">
        <ele>746</ele>
      </trkpt>
      <trkpt lat="44.50238" lon="5.01232">
        <ele>750</ele>
      </trkpt>
      <trkpt lat="44.50247" lon="5.01232">
        <ele>753.7</ele>
      </trkpt>
      <trkpt lat="44.50255" lon="5.01235">
        <ele>755.3</ele>
      </trkpt>
      <trkpt lat="44.50263" lon="5.01239">
        <ele>756</ele>
      </trkpt>
      <trkpt lat="44.50268" lon="5.01248">
        <ele>754.2</ele>
      </trkpt>
      <trkpt lat="44.50268" lon="5.01264">
        <ele>750</ele>
      </trkpt>
      <trkpt lat="44.5027" lon="5.01285">
        <ele>744.6</ele>
      </trkpt>
      <trkpt lat="44.50271" lon="5.01301">
        <ele>740.3</ele>
      </trkpt>
      <trkpt lat="44.50272" lon="5.01319">
        <ele>735.6</ele>
      </trkpt>
      <trkpt lat="44.50269" lon="5.01333">
        <ele>731.5</ele>
      </trkpt>
      <trkpt lat="44.50267" lon="5.01347">
        <ele>728.1</ele>
      </trkpt>
      <trkpt lat="44.50264" lon="5.01358">
        <ele>725.3</ele>
      </trkpt>
      <trkpt lat="44.50256" lon="5.0138">
        <ele>720.5</ele>
      </trkpt>
      <trkpt lat="44.50246" lon="5.01395">
        <ele>716.2</ele>
      </trkpt>
      <trkpt lat="44.50238" lon="5.01406">
        <ele>711.3</ele>
      </trkpt>
      <trkpt lat="44.5023" lon="5.01419">
        <ele>706.6</ele>
      </trkpt>
      <trkpt lat="44.50229" lon="5.01424">
        <ele>705.9</ele>
      </trkpt>
      <trkpt lat="44.50228" lon="5.0143">
        <ele>705</ele>
      </trkpt>
      <trkpt lat="44.50229" lon="5.01454">
        <ele>703.3</ele>
      </trkpt>
      <trkpt lat="44.50229" lon="5.01477">
        <ele>701.5</ele>
      </trkpt>
      <trkpt lat="44.50227" lon="5.01496">
        <ele>699.5</ele>
      </trkpt>
      <trkpt lat="44.50227" lon="5.01516">
        <ele>698.9</ele>
      </trkpt>
      <trkpt lat="44.50229" lon="5.01534">
        <ele>698.9</ele>
      </trkpt>
      <trkpt lat="44.50232" lon="5.01546">
        <ele>699.5</ele>
      </trkpt>
      <trkpt lat="44.5024" lon="5.01561">
        <ele>701.5</ele>
      </trkpt>
      <trkpt lat="44.50247" lon="5.01569">
        <ele>703.5</ele>
      </trkpt>
      <trkpt lat="44.50258" lon="5.01584">
        <ele>703.4</ele>
      </trkpt>
      <trkpt lat="44.50267" lon="5.01594">
        <ele>702.6</ele>
      </trkpt>
      <trkpt lat="44.50279" lon="5.01604">
        <ele>702</ele>
      </trkpt>
      <trkpt lat="44.50291" lon="5.01616">
        <ele>702.6</ele>
      </trkpt>
      <trkpt lat="44.50303" lon="5.0163">
        <ele>704.8</ele>
      </trkpt>
      <trkpt lat="44.50315" lon="5.01649">
        <ele>709.5</ele>
      </trkpt>
      <trkpt lat="44.50334" lon="5.01681">
        <ele>719.3</ele>
      </trkpt>
      <trkpt lat="44.50348" lon="5.01711">
        <ele>720.5</ele>
      </trkpt>
      <trkpt lat="44.50359" lon="5.01734">
        <ele>721.6</ele>
      </trkpt>
      <trkpt lat="44.50371" lon="5.01762">
        <ele>722.4</ele>
      </trkpt>
      <trkpt lat="44.50379" lon="5.01783">
        <ele>722</ele>
      </trkpt>
      <trkpt lat="44.50385" lon="5.01803">
        <ele>722.2</ele>
      </trkpt>
      <trkpt lat="44.50388" lon="5.0182">
        <ele>723.4</ele>
      </trkpt>
      <trkpt lat="44.50387" lon="5.01837">
        <ele>725.7</ele>
      </trkpt>
      <trkpt lat="44.50384" lon="5.01853">
        <ele>727.4</ele>
      </trkpt>
      <trkpt lat="44.5038" lon="5.01863">
        <ele>729.6</ele>
      </trkpt>
      <trkpt lat="44.50372" lon="5.01878">
        <ele>733.3</ele>
      </trkpt>
      <trkpt lat="44.50368" lon="5.01899">
        <ele>735.9</ele>
      </trkpt>
      <trkpt lat="44.50366" lon="5.01914">
        <ele>737.2</ele>
      </trkpt>
      <trkpt lat="44.50365" lon="5.01934">
        <ele>739.7</ele>
      </trkpt>
      <trkpt lat="44.50363" lon="5.01951">
        <ele>742</ele>
      </trkpt>
      <trkpt lat="44.50365" lon="5.01969">
        <ele>743.2</ele>
      </trkpt>
      <trkpt lat="44.50367" lon="5.01987">
        <ele>744</ele>
      </trkpt>
      <trkpt lat="44.50374" lon="5.02012">
        <ele>744.4</ele>
      </trkpt>
      <trkpt lat="44.50384" lon="5.02037">
        <ele>745.5</ele>
      </trkpt>
      <trkpt lat="44.50393" lon="5.02057">
        <ele>746</ele>
      </trkpt>
      <trkpt lat="44.50403" lon="5.02074">
        <ele>746.6</ele>
      </trkpt>
      <trkpt lat="44.50413" lon="5.02088">
        <ele>745.9</ele>
      </trkpt>
      <trkpt lat="44.5042" lon="5.02102">
        <ele>742.6</ele>
      </trkpt>
      <trkpt lat="44.50425" lon="5.0211">
        <ele>740.4</ele>
      </trkpt>
      <trkpt lat="44.50415" lon="5.02128">
        <ele>742.9</ele>
      </trkpt>
      <trkpt lat="44.504" lon="5.02149">
        <ele>745.7</ele>
      </trkpt>
      <trkpt lat="44.50379" lon="5.02184">
        <ele>745.8</ele>
      </trkpt>
      <trkpt lat="44.50365" lon="5.0221">
        <ele>744.2</ele>
      </trkpt>
      <trkpt lat="44.50355" lon="5.02227">
        <ele>744.1</ele>
      </trkpt>
      <trkpt lat="44.50348" lon="5.02243">
        <ele>743.5</ele>
      </trkpt>
      <trkpt lat="44.50342" lon="5.02265">
        <ele>741.6</ele>
      </trkpt>
      <trkpt lat="44.5034" lon="5.02292">
        <ele>737.3</ele>
      </trkpt>
      <trkpt lat="44.50339" lon="5.02318">
        <ele>732.8</ele>
      </trkpt>
      <trkpt lat="44.50341" lon="5.02341">
        <ele>729.5</ele>
      </trkpt>
      <trkpt lat="44.50344" lon="5.02365">
        <ele>730</ele>
      </trkpt>
      <trkpt lat="44.5035" lon="5.02383">
        <ele>729</ele>
      </trkpt>
      <trkpt lat="44.50361" lon="5.02401">
        <ele>725.4</ele>
      </trkpt>
      <trkpt lat="44.50374" lon="5.0242">
        <ele>721.3</ele>
      </trkpt>
      <trkpt lat="44.50386" lon="5.02431">
        <ele>718.4</ele>
      </trkpt>
      <trkpt lat="44.50396" lon="5.02445">
        <ele>717.3</ele>
      </trkpt>
      <trkpt lat="44.50404" lon="5.02462">
        <ele>717.3</ele>
      </trkpt>
      <trkpt lat="44.50413" lon="5.02479">
        <ele>718</ele>
      </trkpt>
      <trkpt lat="44.50423" lon="5.02491">
        <ele>716.9</ele>
      </trkpt>
      <trkpt lat="44.5043" lon="5.02494">
        <ele>715</ele>
      </trkpt>
      <trkpt lat="44.50445" lon="5.02497">
        <ele>710.3</ele>
      </trkpt>
      <trkpt lat="44.50458" lon="5.025">
        <ele>706.8</ele>
      </trkpt>
      <trkpt lat="44.50473" lon="5.025">
        <ele>701.5</ele>
      </trkpt>
      <trkpt lat="44.50485" lon="5.02499">
        <ele>696.7</ele>
      </trkpt>
      <trkpt lat="44.50498" lon="5.02499">
        <ele>692.5</ele>
      </trkpt>
      <trkpt lat="44.50511" lon="5.02505">
        <ele>689.2</ele>
      </trkpt>
      <trkpt lat="44.50534" lon="5.02518">
        <ele>682.9</ele>
      </trkpt>
      <trkpt lat="44.50552" lon="5.02525">
        <ele>677.5</ele>
      </trkpt>
      <trkpt lat="44.50566" lon="5.02532">
        <ele>673.1</ele>
      </trkpt>
      <trkpt lat="44.50579" lon="5.02542">
        <ele>669.8</ele>
      </trkpt>
      <trkpt lat="44.50591" lon="5.02557">
        <ele>667.6</ele>
      </trkpt>
      <trkpt lat="44.50601" lon="5.02576">
        <ele>666.8</ele>
      </trkpt>
      <trkpt lat="44.50614" lon="5.02604">
        <ele>664.2</ele>
      </trkpt>
      <trkpt lat="44.50621" lon="5.02633">
        <ele>662.9</ele>
      </trkpt>
      <trkpt lat="44.50626" lon="5.02654">
        <ele>661.6</ele>
      </trkpt>
      <trkpt lat="44.50635" lon="5.02679">
        <ele>657.6</ele>
      </trkpt>
      <trkpt lat="44.50646" lon="5.02705">
        <ele>652</ele>
      </trkpt>
      <trkpt lat="44.50654" lon="5.02725">
        <ele>648.2</ele>
      </trkpt>
      <trkpt lat="44.5066" lon="5.0274">
        <ele>645.5</ele>
      </trkpt>
      <trkpt lat="44.50664" lon="5.02756">
        <ele>642.7</ele>
      </trkpt>
      <trkpt lat="44.50665" lon="5.02773">
        <ele>639.6</ele>
      </trkpt>
      <trkpt lat="44.50664" lon="5.02797">
        <ele>636.1</ele>
      </trkpt>
      <trkpt lat="44.50659" lon="5.02818">
        <ele>634.1</ele>
      </trkpt>
      <trkpt lat="44.50655" lon="5.02838">
        <ele>631.8</ele>
      </trkpt>
      <trkpt lat="44.5065" lon="5.02861">
        <ele>627.5</ele>
      </trkpt>
      <trkpt lat="44.50643" lon="5.02887">
        <ele>623</ele>
      </trkpt>
      <trkpt lat="44.50639" lon="5.02915">
        <ele>617.2</ele>
      </trkpt>
      <trkpt lat="44.50635" lon="5.02942">
        <ele>613.8</ele>
      </trkpt>
      <trkpt lat="44.50632" lon="5.02967">
        <ele>610.7</ele>
      </trkpt>
      <trkpt lat="44.50631" lon="5.02994">
        <ele>606.8</ele>
      </trkpt>
      <trkpt lat="44.50632" lon="5.03027">
        <ele>602.6</ele>
      </trkpt>
      <trkpt lat="44.50632" lon="5.03058">
        <ele>599.1</ele>
      </trkpt>
      <trkpt lat="44.50635" lon="5.03081">
        <ele>596.7</ele>
      </trkpt>
      <trkpt lat="44.50639" lon="5.03095">
        <ele>596.7</ele>
      </trkpt>
      <trkpt lat="44.50643" lon="5.03109">
        <ele>597.1</ele>
      </trkpt>
      <trkpt lat="44.50644" lon="5.0312">
        <ele>597.3</ele>
      </trkpt>
      <trkpt lat="44.50643" lon="5.03132">
        <ele>597.3</ele>
      </trkpt>
      <trkpt lat="44.50642" lon="5.0315">
        <ele>597.3</ele>
      </trkpt>
      <trkpt lat="44.5064" lon="5.03172">
        <ele>597.4</ele>
      </trkpt>
      <trkpt lat="44.50639" lon="5.03198">
        <ele>598.5</ele>
      </trkpt>
      <trkpt lat="44.50639" lon="5.03222">
        <ele>599.5</ele>
      </trkpt>
      <trkpt lat="44.5064" lon="5.03245">
        <ele>600.7</ele>
      </trkpt>
      <trkpt lat="44.50642" lon="5.03265">
        <ele>601.6</ele>
      </trkpt>
      <trkpt lat="44.50644" lon="5.03285">
        <ele>602.6</ele>
      </trkpt>
      <trkpt lat="44.50649" lon="5.033">
        <ele>604.6</ele>
      </trkpt>
      <trkpt lat="44.50655" lon="5.03312">
        <ele>607.3</ele>
      </trkpt>
      <trkpt lat="44.50662" lon="5.03327">
        <ele>610.6</ele>
      </trkpt>
      <trkpt lat="44.50669" lon="5.03343">
        <ele>612.6</ele>
      </trkpt>
      <trkpt lat="44.5068" lon="5.03355">
        <ele>612.6</ele>
      </trkpt>
      <trkpt lat="44.50692" lon="5.03363">
        <ele>613.1</ele>
      </trkpt>
      <trkpt lat="44.50699" lon="5.0337">
        <ele>613.4</ele>
      </trkpt>
      <trkpt lat="44.50705" lon="5.0338">
        <ele>613.7</ele>
      </trkpt>
      <trkpt lat="44.50709" lon="5.03393">
        <ele>614</ele>
      </trkpt>
      <trkpt lat="44.5071" lon="5.03411">
        <ele>614.2</ele>
      </trkpt>
      <trkpt lat="44.50713" lon="5.03439">
        <ele>613.8</ele>
      </trkpt>
      <trkpt lat="44.50713" lon="5.03461">
        <ele>613.2</ele>
      </trkpt>
      <trkpt lat="44.50709" lon="5.03486">
        <ele>612</ele>
      </trkpt>
      <trkpt lat="44.50706" lon="5.03511">
        <ele>611.2</ele>
      </trkpt>
      <trkpt lat="44.50704" lon="5.03531">
        <ele>610.7</ele>
      </trkpt>
      <trkpt lat="44.50706" lon="5.0355">
        <ele>610.7</ele>
      </trkpt>
      <trkpt lat="44.50704" lon="5.03566">
        <ele>610.4</ele>
      </trkpt>
      <trkpt lat="44.50701" lon="5.03598">
        <ele>609.7</ele>
      </trkpt>
      <trkpt lat="44.50702" lon="5.03632">
        <ele>608.7</ele>
      </trkpt>
      <trkpt lat="44.50701" lon="5.03678">
        <ele>606.1</ele>
      </trkpt>
      <trkpt lat="44.50698" lon="5.03719">
        <ele>600.1</ele>
      </trkpt>
      <trkpt lat="44.50697" lon="5.03752">
        <ele>595.6</ele>
      </trkpt>
      <trkpt lat="44.50697" lon="5.03786">
        <ele>592.4</ele>
      </trkpt>
      <trkpt lat="44.50697" lon="5.03813">
        <ele>590</ele>
      </trkpt>
      <trkpt lat="44.50699" lon="5.03831">
        <ele>588.1</ele>
      </trkpt>
      <trkpt lat="44.507" lon="5.03847">
        <ele>587.3</ele>
      </trkpt>
      <trkpt lat="44.50698" lon="5.03868">
        <ele>586.7</ele>
      </trkpt>
      <trkpt lat="44.50694" lon="5.03887">
        <ele>586.5</ele>
      </trkpt>
      <trkpt lat="44.50691" lon="5.03914">
        <ele>586.1</ele>
      </trkpt>
      <trkpt lat="44.50685" lon="5.03956">
        <ele>585.9</ele>
      </trkpt>
      <trkpt lat="44.50683" lon="5.03977">
        <ele>585.7</ele>
      </trkpt>
      <trkpt lat="44.50679" lon="5.03996">
        <ele>586.6</ele>
      </trkpt>
      <trkpt lat="44.50674" lon="5.04003">
        <ele>588.1</ele>
      </trkpt>
      <trkpt lat="44.50672" lon="5.04012">
        <ele>589.6</ele>
      </trkpt>
      <trkpt lat="44.50671" lon="5.04027">
        <ele>591.2</ele>
      </trkpt>
      <trkpt lat="44.50673" lon="5.04049">
        <ele>592.6</ele>
      </trkpt>
      <trkpt lat="44.50676" lon="5.04073">
        <ele>593.3</ele>
      </trkpt>
      <trkpt lat="44.5068" lon="5.04094">
        <ele>593.9</ele>
      </trkpt>
      <trkpt lat="44.50684" lon="5.04113">
        <ele>595.3</ele>
      </trkpt>
      <trkpt lat="44.50687" lon="5.04133">
        <ele>597.6</ele>
      </trkpt>
      <trkpt lat="44.50688" lon="5.04152">
        <ele>600.3</ele>
      </trkpt>
      <trkpt lat="44.50691" lon="5.04167">
        <ele>601.3</ele>
      </trkpt>
      <trkpt lat="44.50699" lon="5.04179">
        <ele>599.9</ele>
      </trkpt>
      <trkpt lat="44.50709" lon="5.04192">
        <ele>597.6</ele>
      </trkpt>
      <trkpt lat="44.50723" lon="5.04205">
        <ele>594.8</ele>
      </trkpt>
      <trkpt lat="44.50745" lon="5.04228">
        <ele>591.4</ele>
      </trkpt>
      <trkpt lat="44.50757" lon="5.0424">
        <ele>590.4</ele>
      </trkpt>
      <trkpt lat="44.50765" lon="5.0425">
        <ele>590</ele>
      </trkpt>
      <trkpt lat="44.50769" lon="5.04259">
        <ele>588.9</ele>
      </trkpt>
      <trkpt lat="44.5077" lon="5.04273">
        <ele>588.5</ele>
      </trkpt>
      <trkpt lat="44.5077" lon="5.04283">
        <ele>588.5</ele>
      </trkpt>
      <trkpt lat="44.50769" lon="5.04299">
        <ele>588.7</ele>
      </trkpt>
      <trkpt lat="44.50767" lon="5.04321">
        <ele>589.1</ele>
      </trkpt>
      <trkpt lat="44.50765" lon="5.04341">
        <ele>588.5</ele>
      </trkpt>
      <trkpt lat="44.50761" lon="5.04357">
        <ele>587</ele>
      </trkpt>
      <trkpt lat="44.50758" lon="5.04366">
        <ele>586.2</ele>
      </trkpt>
      <trkpt lat="44.50752" lon="5.04379">
        <ele>585.8</ele>
      </trkpt>
      <trkpt lat="44.50746" lon="5.0439">
        <ele>585.5</ele>
      </trkpt>
      <trkpt lat="44.5074" lon="5.04403">
        <ele>584.6</ele>
      </trkpt>
      <trkpt lat="44.50732" lon="5.04414">
        <ele>584.6</ele>
      </trkpt>
      <trkpt lat="44.50721" lon="5.04421">
        <ele>586.1</ele>
      </trkpt>
      <trkpt lat="44.5071" lon="5.04427">
        <ele>588</ele>
      </trkpt>
      <trkpt lat="44.50699" lon="5.04432">
        <ele>590</ele>
      </trkpt>
      <trkpt lat="44.50694" lon="5.04436">
        <ele>590.8</ele>
      </trkpt>
      <trkpt lat="44.50692" lon="5.04441">
        <ele>590.9</ele>
      </trkpt>
      <trkpt lat="44.50694" lon="5.04448">
        <ele>589.8</ele>
      </trkpt>
      <trkpt lat="44.507" lon="5.04454">
        <ele>587.5</ele>
      </trkpt>
      <trkpt lat="44.50707" lon="5.04457">
        <ele>585.2</ele>
      </trkpt>
      <trkpt lat="44.50716" lon="5.04469">
        <ele>581.4</ele>
      </trkpt>
      <trkpt lat="44.50724" lon="5.0448">
        <ele>577.5</ele>
      </trkpt>
      <trkpt lat="44.5073" lon="5.04493">
        <ele>573.7</ele>
      </trkpt>
      <trkpt lat="44.50735" lon="5.04509">
        <ele>571.6</ele>
      </trkpt>
      <trkpt lat="44.50739" lon="5.04529">
        <ele>571.2</ele>
      </trkpt>
      <trkpt lat="44.5074" lon="5.04549">
        <ele>571.7</ele>
      </trkpt>
      <trkpt lat="44.5074" lon="5.0457">
        <ele>572.7</ele>
      </trkpt>
      <trkpt lat="44.50739" lon="5.04588">
        <ele>573.9</ele>
      </trkpt>
      <trkpt lat="44.50737" lon="5.0461">
        <ele>575.3</ele>
      </trkpt>
      <trkpt lat="44.50734" lon="5.04631">
        <ele>576.9</ele>
      </trkpt>
      <trkpt lat="44.5073" lon="5.04654">
        <ele>578.6</ele>
      </trkpt>
      <trkpt lat="44.50727" lon="5.04678">
        <ele>579.6</ele>
      </trkpt>
      <trkpt lat="44.50724" lon="5.04706">
        <ele>579.8</ele>
      </trkpt>
      <trkpt lat="44.50722" lon="5.04732">
        <ele>579.7</ele>
      </trkpt>
      <trkpt lat="44.50721" lon="5.04755">
        <ele>579.6</ele>
      </trkpt>
      <trkpt lat="44.5072" lon="5.04768">
        <ele>580</ele>
      </trkpt>
      <trkpt lat="44.50716" lon="5.0479">
        <ele>580.6</ele>
      </trkpt>
      <trkpt lat="44.50712" lon="5.04806">
        <ele>580.9</ele>
      </trkpt>
      <trkpt lat="44.50709" lon="5.04823">
        <ele>581</ele>
      </trkpt>
      <trkpt lat="44.50725" lon="5.04844">
        <ele>581.7</ele>
      </trkpt>
      <trkpt lat="44.5074" lon="5.04866">
        <ele>582.3</ele>
      </trkpt>
      <trkpt lat="44.50759" lon="5.04923">
        <ele>580.6</ele>
      </trkpt>
      <trkpt lat="44.50808" lon="5.04942">
        <ele>567.3</ele>
      </trkpt>
      <trkpt lat="44.50865" lon="5.04994">
        <ele>554.4</ele>
      </trkpt>
      <trkpt lat="44.50897" lon="5.04988">
        <ele>544.6</ele>
      </trkpt>
      <trkpt lat="44.50996" lon="5.05031">
        <ele>525.6</ele>
      </trkpt>
      <trkpt lat="44.51022" lon="5.05096">
        <ele>524.7</ele>
      </trkpt>
      <trkpt lat="44.51033" lon="5.05176">
        <ele>519.7</ele>
      </trkpt>
      <trkpt lat="44.50959" lon="5.05328">
        <ele>524.6</ele>
      </trkpt>
      <trkpt lat="44.51001" lon="5.05351">
        <ele>513.6</ele>
      </trkpt>
      <trkpt lat="44.5104" lon="5.0538">
        <ele>506.5</ele>
      </trkpt>
      <trkpt lat="44.5104" lon="5.05454">
        <ele>513.1</ele>
      </trkpt>
      <trkpt lat="44.51108" lon="5.05491">
        <ele>498.3</ele>
      </trkpt>
      <trkpt lat="44.5114" lon="5.05534">
        <ele>493</ele>
      </trkpt>
      <trkpt lat="44.51199" lon="5.0555">
        <ele>484.1</ele>
      </trkpt>
      <trkpt lat="44.5127" lon="5.05542">
        <ele>475.4</ele>
      </trkpt>
      <trkpt lat="44.51277" lon="5.05554">
        <ele>475.3</ele>
      </trkpt>
      <trkpt lat="44.51266" lon="5.05581">
        <ele>478.4</ele>
      </trkpt>
      <trkpt lat="44.51271" lon="5.05588">
        <ele>476.4</ele>
      </trkpt>
      <trkpt lat="44.51325" lon="5.05536">
        <ele>470.9</ele>
      </trkpt>
      <trkpt lat="44.51347" lon="5.055">
        <ele>470.2</ele>
      </trkpt>
      <trkpt lat="44.51353" lon="5.05509">
        <ele>468.9</ele>
      </trkpt>
      <trkpt lat="44.51317" lon="5.0559">
        <ele>469</ele>
      </trkpt>
      <trkpt lat="44.51324" lon="5.056">
        <ele>465.3</ele>
      </trkpt>
      <trkpt lat="44.51443" lon="5.05479">
        <ele>453.5</ele>
      </trkpt>
      <trkpt lat="44.5145" lon="5.05398">
        <ele>446.2</ele>
      </trkpt>
      <trkpt lat="44.51456" lon="5.05362">
        <ele>440.3</ele>
      </trkpt>
      <trkpt lat="44.51493" lon="5.0552">
        <ele>441.6</ele>
      </trkpt>
      <trkpt lat="44.51494" lon="5.05627">
        <ele>432</ele>
      </trkpt>
      <trkpt lat="44.5149" lon="5.05642">
        <ele>430.2</ele>
      </trkpt>
      <trkpt lat="44.51395" lon="5.05669">
        <ele>434.8</ele>
      </trkpt>
      <trkpt lat="44.5135" lon="5.05705">
        <ele>435.6</ele>
      </trkpt>
      <trkpt lat="44.51306" lon="5.05791">
        <ele>433.4</ele>
      </trkpt>
      <trkpt lat="44.51314" lon="5.05807">
        <ele>431.6</ele>
      </trkpt>
      <trkpt lat="44.514" lon="5.05819">
        <ele>421.1</ele>
      </trkpt>
      <trkpt lat="44.51462" lon="5.05833">
        <ele>414.5</ele>
      </trkpt>
      <trkpt lat="44.51535" lon="5.05837">
        <ele>406.1</ele>
      </trkpt>
      <trkpt lat="44.51605" lon="5.05844">
        <ele>399.4</ele>
      </trkpt>
      <trkpt lat="44.51683" lon="5.05892">
        <ele>395</ele>
      </trkpt>
      <trkpt lat="44.51794" lon="5.05842">
        <ele>384.9</ele>
      </trkpt>
      <trkpt lat="44.51834" lon="5.05823">
        <ele>382</ele>
      </trkpt>
      <trkpt lat="44.51849" lon="5.05827">
        <ele>380.5</ele>
      </trkpt>
      <trkpt lat="44.51854" lon="5.05834">
        <ele>380</ele>
      </trkpt>
      <trkpt lat="44.51862" lon="5.05845">
        <ele>379.7</ele>
      </trkpt>
      <trkpt lat="44.51874" lon="5.05876">
        <ele>379.4</ele>
      </trkpt>
      <trkpt lat="44.51883" lon="5.05907">
        <ele>379.1</ele>
      </trkpt>
      <trkpt lat="44.51903" lon="5.05936">
        <ele>377.8</ele>
      </trkpt>
      <trkpt lat="44.51925" lon="5.05971">
        <ele>376.5</ele>
      </trkpt>
      <trkpt lat="44.51954" lon="5.06019">
        <ele>374.6</ele>
      </trkpt>
      <trkpt lat="44.51977" lon="5.0608">
        <ele>373.7</ele>
      </trkpt>
      <trkpt lat="44.51993" lon="5.06195">
        <ele>373.6</ele>
      </trkpt>
      <trkpt lat="44.52001" lon="5.06231">
        <ele>374</ele>
      </trkpt>
      <trkpt lat="44.52012" lon="5.06277">
        <ele>374.3</ele>
      </trkpt>
      <trkpt lat="44.52024" lon="5.06305">
        <ele>373.5</ele>
      </trkpt>
      <trkpt lat="44.52058" lon="5.06315">
        <ele>370.7</ele>
      </trkpt>
      <trkpt lat="44.52165" lon="5.06353">
        <ele>377.5</ele>
      </trkpt>
      <trkpt lat="44.52174" lon="5.06354">
        <ele>377.9</ele>
      </trkpt>
      <trkpt lat="44.5218" lon="5.06356">
        <ele>378</ele>
      </trkpt>
      <trkpt lat="44.52186" lon="5.06362">
        <ele>378.3</ele>
      </trkpt>
      <trkpt lat="44.52189" lon="5.0637">
        <ele>378.7</ele>
      </trkpt>
      <trkpt lat="44.52201" lon="5.06391">
        <ele>379.8</ele>
      </trkpt>
      <trkpt lat="44.52226" lon="5.0643">
        <ele>381.7</ele>
      </trkpt>
      <trkpt lat="44.5224" lon="5.06453">
        <ele>382.9</ele>
      </trkpt>
      <trkpt lat="44.52262" lon="5.06486">
        <ele>384.3</ele>
      </trkpt>
      <trkpt lat="44.52271" lon="5.06499">
        <ele>384.9</ele>
      </trkpt>
      <trkpt lat="44.52272" lon="5.065">
        <ele>385</ele>
      </trkpt>
      <trkpt lat="44.52288" lon="5.06517">
        <ele>386.4</ele>
      </trkpt>
      <trkpt lat="44.52297" lon="5.06524">
        <ele>387.1</ele>
      </trkpt>
      <trkpt lat="44.52302" lon="5.06529">
        <ele>387.5</ele>
      </trkpt>
      <trkpt lat="44.52311" lon="5.06537">
        <ele>388.3</ele>
      </trkpt>
      <trkpt lat="44.52325" lon="5.06551">
        <ele>389.8</ele>
      </trkpt>
      <trkpt lat="44.52326" lon="5.06551">
        <ele>389.8</ele>
      </trkpt>
      <trkpt lat="44.52331" lon="5.06549">
        <ele>389.6</ele>
      </trkpt>
      <trkpt lat="44.52336" lon="5.06546">
        <ele>389.6</ele>
      </trkpt>
      <trkpt lat="44.52368" lon="5.06533">
        <ele>389.5</ele>
      </trkpt>
      <trkpt lat="44.52373" lon="5.06532">
        <ele>389.5</ele>
      </trkpt>
      <trkpt lat="44.52383" lon="5.06529">
        <ele>389.5</ele>
      </trkpt>
      <trkpt lat="44.52395" lon="5.06529">
        <ele>389.9</ele>
      </trkpt>
      <trkpt lat="44.52403" lon="5.0653">
        <ele>390.2</ele>
      </trkpt>
      <trkpt lat="44.52412" lon="5.0653">
        <ele>390.6</ele>
      </trkpt>
      <trkpt lat="44.52425" lon="5.0653">
        <ele>390.8</ele>
      </trkpt>
      <trkpt lat="44.52449" lon="5.06531">
        <ele>390.8</ele>
      </trkpt>
      <trkpt lat="44.52454" lon="5.06531">
        <ele>390.8</ele>
      </trkpt>
      <trkpt lat="44.52486" lon="5.06537">
        <ele>391.3</ele>
      </trkpt>
      <trkpt lat="44.52506" lon="5.06545">
        <ele>391.6</ele>
      </trkpt>
      <trkpt lat="44.52517" lon="5.0655">
        <ele>391.8</ele>
      </trkpt>
      <trkpt lat="44.52564" lon="5.06577">
        <ele>394.2</ele>
      </trkpt>
      <trkpt lat="44.52566" lon="5.06578">
        <ele>394.4</ele>
      </trkpt>
      <trkpt lat="44.52576" lon="5.06584">
        <ele>395.1</ele>
      </trkpt>
      <trkpt lat="44.52593" lon="5.06593">
        <ele>395.1</ele>
      </trkpt>
      <trkpt lat="44.52612" lon="5.06605">
        <ele>394.6</ele>
      </trkpt>
      <trkpt lat="44.52634" lon="5.06618">
        <ele>394.1</ele>
      </trkpt>
      <trkpt lat="44.52639" lon="5.06621">
        <ele>393.9</ele>
      </trkpt>
      <trkpt lat="44.52669" lon="5.06639">
        <ele>393.2</ele>
      </trkpt>
      <trkpt lat="44.5268" lon="5.06645">
        <ele>393</ele>
      </trkpt>
      <trkpt lat="44.52691" lon="5.06652">
        <ele>392.8</ele>
      </trkpt>
      <trkpt lat="44.52701" lon="5.06658">
        <ele>392.5</ele>
      </trkpt>
      <trkpt lat="44.52749" lon="5.06685">
        <ele>390.2</ele>
      </trkpt>
      <trkpt lat="44.5274" lon="5.0672">
        <ele>393.1</ele>
      </trkpt>
      <trkpt lat="44.52737" lon="5.06726">
        <ele>393.7</ele>
      </trkpt>
      <trkpt lat="44.52735" lon="5.06738">
        <ele>394.7</ele>
      </trkpt>
      <trkpt lat="44.52735" lon="5.06743">
        <ele>395</ele>
      </trkpt>
      <trkpt lat="44.52742" lon="5.06777">
        <ele>395.9</ele>
      </trkpt>
      <trkpt lat="44.52756" lon="5.06777">
        <ele>395.7</ele>
      </trkpt>
      <trkpt lat="44.5277" lon="5.06776">
        <ele>396.6</ele>
      </trkpt>
      <trkpt lat="44.52796" lon="5.06795">
        <ele>400.2</ele>
      </trkpt>
      <trkpt lat="44.52829" lon="5.06825">
        <ele>407.2</ele>
      </trkpt>
      <trkpt lat="44.52852" lon="5.0685">
        <ele>410.1</ele>
      </trkpt>
      <trkpt lat="44.52874" lon="5.06893">
        <ele>415</ele>
      </trkpt>
      <trkpt lat="44.5288" lon="5.0693">
        <ele>419.6</ele>
      </trkpt>
      <trkpt lat="44.52896" lon="5.06962">
        <ele>423.5</ele>
      </trkpt>
      <trkpt lat="44.52919" lon="5.06996">
        <ele>427.2</ele>
      </trkpt>
      <trkpt lat="44.52938" lon="5.07038">
        <ele>427.2</ele>
      </trkpt>
      <trkpt lat="44.52946" lon="5.07077">
        <ele>428.8</ele>
      </trkpt>
      <trkpt lat="44.52949" lon="5.0709">
        <ele>429.2</ele>
      </trkpt>
      <trkpt lat="44.52961" lon="5.07161">
        <ele>431.6</ele>
      </trkpt>
      <trkpt lat="44.52961" lon="5.0723">
        <ele>437.1</ele>
      </trkpt>
      <trkpt lat="44.52962" lon="5.07264">
        <ele>438.7</ele>
      </trkpt>
      <trkpt lat="44.52951" lon="5.07302">
        <ele>441.3</ele>
      </trkpt>
      <trkpt lat="44.52929" lon="5.07396">
        <ele>451.4</ele>
      </trkpt>
      <trkpt lat="44.52922" lon="5.07528">
        <ele>461.4</ele>
      </trkpt>
      <trkpt lat="44.52913" lon="5.07639">
        <ele>465.6</ele>
      </trkpt>
      <trkpt lat="44.52885" lon="5.07703">
        <ele>467.5</ele>
      </trkpt>
      <trkpt lat="44.52874" lon="5.07763">
        <ele>471</ele>
      </trkpt>
      <trkpt lat="44.52868" lon="5.0781">
        <ele>475.9</ele>
      </trkpt>
      <trkpt lat="44.52868" lon="5.07839">
        <ele>479.2</ele>
      </trkpt>
      <trkpt lat="44.52885" lon="5.07872">
        <ele>484.6</ele>
      </trkpt>
      <trkpt lat="44.52889" lon="5.07901">
        <ele>488.7</ele>
      </trkpt>
      <trkpt lat="44.52892" lon="5.0797">
        <ele>497.1</ele>
      </trkpt>
      <trkpt lat="44.52893" lon="5.08012">
        <ele>502.1</ele>
      </trkpt>
      <trkpt lat="44.52888" lon="5.08044">
        <ele>505.1</ele>
      </trkpt>
      <trkpt lat="44.52875" lon="5.08085">
        <ele>507.6</ele>
      </trkpt>
      <trkpt lat="44.52899" lon="5.08102">
        <ele>512.5</ele>
      </trkpt>
      <trkpt lat="44.52921" lon="5.08121">
        <ele>516.6</ele>
      </trkpt>
      <trkpt lat="44.52929" lon="5.08127">
        <ele>517.3</ele>
      </trkpt>
      <trkpt lat="44.529" lon="5.08217">
        <ele>519.1</ele>
      </trkpt>
      <trkpt lat="44.52912" lon="5.08254">
        <ele>521.8</ele>
      </trkpt>
      <trkpt lat="44.52922" lon="5.08287">
        <ele>525.2</ele>
      </trkpt>
      <trkpt lat="44.52942" lon="5.08319">
        <ele>529.8</ele>
      </trkpt>
      <trkpt lat="44.52947" lon="5.08348">
        <ele>532.4</ele>
      </trkpt>
      <trkpt lat="44.52951" lon="5.08373">
        <ele>534.3</ele>
      </trkpt>
      <trkpt lat="44.52958" lon="5.08414">
        <ele>537.4</ele>
      </trkpt>
      <trkpt lat="44.52961" lon="5.08461">
        <ele>539.1</ele>
      </trkpt>
      <trkpt lat="44.5296" lon="5.08487">
        <ele>539.7</ele>
      </trkpt>
      <trkpt lat="44.5297" lon="5.08564">
        <ele>540.3</ele>
      </trkpt>
      <trkpt lat="44.52992" lon="5.08638">
        <ele>546</ele>
      </trkpt>
      <trkpt lat="44.53015" lon="5.08678">
        <ele>549.7</ele>
      </trkpt>
      <trkpt lat="44.53008" lon="5.08686">
        <ele>551.2</ele>
      </trkpt>
      <trkpt lat="44.53" lon="5.08711">
        <ele>554.9</ele>
      </trkpt>
      <trkpt lat="44.52953" lon="5.08804">
        <ele>557.3</ele>
      </trkpt>
      <trkpt lat="44.52953" lon="5.08815">
        <ele>558</ele>
      </trkpt>
      <trkpt lat="44.52955" lon="5.08834">
        <ele>559.8</ele>
      </trkpt>
      <trkpt lat="44.5297" lon="5.08845">
        <ele>562.1</ele>
      </trkpt>
      <trkpt lat="44.5298" lon="5.08856">
        <ele>563.7</ele>
      </trkpt>
      <trkpt lat="44.52989" lon="5.08875">
        <ele>565.3</ele>
      </trkpt>
      <trkpt lat="44.53011" lon="5.08955">
        <ele>561.5</ele>
      </trkpt>
      <trkpt lat="44.53025" lon="5.08963">
        <ele>561.8</ele>
      </trkpt>
      <trkpt lat="44.5304" lon="5.08973">
        <ele>562.2</ele>
      </trkpt>
      <trkpt lat="44.53054" lon="5.08981">
        <ele>562.8</ele>
      </trkpt>
      <trkpt lat="44.53063" lon="5.08982">
        <ele>563.8</ele>
      </trkpt>
      <trkpt lat="44.53079" lon="5.08982">
        <ele>566</ele>
      </trkpt>
      <trkpt lat="44.53084" lon="5.08985">
        <ele>566.2</ele>
      </trkpt>
      <trkpt lat="44.5309" lon="5.08991">
        <ele>564.9</ele>
      </trkpt>
      <trkpt lat="44.53107" lon="5.09001">
        <ele>563.4</ele>
      </trkpt>
      <trkpt lat="44.53112" lon="5.09005">
        <ele>563.5</ele>
      </trkpt>
      <trkpt lat="44.53113" lon="5.09016">
        <ele>563.8</ele>
      </trkpt>
      <trkpt lat="44.53114" lon="5.09028">
        <ele>564.3</ele>
      </trkpt>
      <trkpt lat="44.53114" lon="5.09044">
        <ele>564.9</ele>
      </trkpt>
      <trkpt lat="44.53122" lon="5.09093">
        <ele>570.5</ele>
      </trkpt>
      <trkpt lat="44.53124" lon="5.09108">
        <ele>573.3</ele>
      </trkpt>
      <trkpt lat="44.53125" lon="5.09118">
        <ele>574.8</ele>
      </trkpt>
      <trkpt lat="44.53124" lon="5.09125">
        <ele>575.5</ele>
      </trkpt>
      <trkpt lat="44.53123" lon="5.09132">
        <ele>576.2</ele>
      </trkpt>
      <trkpt lat="44.53123" lon="5.09145">
        <ele>577.9</ele>
      </trkpt>
      <trkpt lat="44.53124" lon="5.09157">
        <ele>580.1</ele>
      </trkpt>
      <trkpt lat="44.53125" lon="5.09172">
        <ele>582.9</ele>
      </trkpt>
      <trkpt lat="44.53126" lon="5.09183">
        <ele>585.5</ele>
      </trkpt>
      <trkpt lat="44.53126" lon="5.09197">
        <ele>588.4</ele>
      </trkpt>
      <trkpt lat="44.53128" lon="5.09226">
        <ele>594.8</ele>
      </trkpt>
      <trkpt lat="44.53127" lon="5.09238">
        <ele>596.9</ele>
      </trkpt>
      <trkpt lat="44.53126" lon="5.09264">
        <ele>600.9</ele>
      </trkpt>
      <trkpt lat="44.53125" lon="5.09278">
        <ele>602.9</ele>
      </trkpt>
      <trkpt lat="44.53122" lon="5.09302">
        <ele>606</ele>
      </trkpt>
      <trkpt lat="44.53121" lon="5.09308">
        <ele>606.8</ele>
      </trkpt>
      <trkpt lat="44.53118" lon="5.09324">
        <ele>608.2</ele>
      </trkpt>
      <trkpt lat="44.53116" lon="5.09334">
        <ele>609.1</ele>
      </trkpt>
      <trkpt lat="44.53115" lon="5.09342">
        <ele>610.1</ele>
      </trkpt>
      <trkpt lat="44.53114" lon="5.09354">
        <ele>612</ele>
      </trkpt>
      <trkpt lat="44.53114" lon="5.09361">
        <ele>613.4</ele>
      </trkpt>
      <trkpt lat="44.53115" lon="5.09371">
        <ele>615.4</ele>
      </trkpt>
      <trkpt lat="44.53115" lon="5.09379">
        <ele>616.7</ele>
      </trkpt>
      <trkpt lat="44.53113" lon="5.09388">
        <ele>617.5</ele>
      </trkpt>
      <trkpt lat="44.53109" lon="5.09403">
        <ele>618.7</ele>
      </trkpt>
      <trkpt lat="44.53102" lon="5.09427">
        <ele>618.3</ele>
      </trkpt>
      <trkpt lat="44.5309" lon="5.09463">
        <ele>614.6</ele>
      </trkpt>
      <trkpt lat="44.53086" lon="5.09479">
        <ele>613.3</ele>
      </trkpt>
      <trkpt lat="44.53086" lon="5.09484">
        <ele>613.4</ele>
      </trkpt>
      <trkpt lat="44.53088" lon="5.09498">
        <ele>615.7</ele>
      </trkpt>
      <trkpt lat="44.53114" lon="5.09572">
        <ele>619.4</ele>
      </trkpt>
      <trkpt lat="44.53127" lon="5.09608">
        <ele>620.2</ele>
      </trkpt>
      <trkpt lat="44.53133" lon="5.09622">
        <ele>621.4</ele>
      </trkpt>
      <trkpt lat="44.53164" lon="5.09685">
        <ele>628.8</ele>
      </trkpt>
      <trkpt lat="44.53168" lon="5.09696">
        <ele>630.7</ele>
      </trkpt>
      <trkpt lat="44.53172" lon="5.097">
        <ele>632.9</ele>
      </trkpt>
      <trkpt lat="44.53178" lon="5.09706">
        <ele>636.5</ele>
      </trkpt>
      <trkpt lat="44.53183" lon="5.0971">
        <ele>639.2</ele>
      </trkpt>
      <trkpt lat="44.53188" lon="5.09716">
        <ele>642.1</ele>
      </trkpt>
      <trkpt lat="44.53189" lon="5.09721">
        <ele>642.3</ele>
      </trkpt>
      <trkpt lat="44.5319" lon="5.09732">
        <ele>641.9</ele>
      </trkpt>
      <trkpt lat="44.5319" lon="5.09745">
        <ele>640.7</ele>
      </trkpt>
      <trkpt lat="44.5319" lon="5.09771">
        <ele>636.5</ele>
      </trkpt>
      <trkpt lat="44.5319" lon="5.09776">
        <ele>635.6</ele>
      </trkpt>
      <trkpt lat="44.53187" lon="5.09785">
        <ele>631.7</ele>
      </trkpt>
      <trkpt lat="44.53185" lon="5.09801">
        <ele>627.8</ele>
      </trkpt>
      <trkpt lat="44.53187" lon="5.09821">
        <ele>625.4</ele>
      </trkpt>
      <trkpt lat="44.53191" lon="5.09832">
        <ele>626.4</ele>
      </trkpt>
      <trkpt lat="44.53202" lon="5.09844">
        <ele>630.6</ele>
      </trkpt>
      <trkpt lat="44.53211" lon="5.0985">
        <ele>635.1</ele>
      </trkpt>
      <trkpt lat="44.53222" lon="5.09853">
        <ele>641.3</ele>
      </trkpt>
      <trkpt lat="44.53229" lon="5.09869">
        <ele>641.9</ele>
      </trkpt>
      <trkpt lat="44.53236" lon="5.09885">
        <ele>641.8</ele>
      </trkpt>
      <trkpt lat="44.53243" lon="5.09902">
        <ele>641.8</ele>
      </trkpt>
      <trkpt lat="44.53244" lon="5.09918">
        <ele>637.7</ele>
      </trkpt>
      <trkpt lat="44.53244" lon="5.09935">
        <ele>632.4</ele>
      </trkpt>
      <trkpt lat="44.53249" lon="5.0995">
        <ele>630.5</ele>
      </trkpt>
      <trkpt lat="44.53252" lon="5.09963">
        <ele>628.1</ele>
      </trkpt>
      <trkpt lat="44.53259" lon="5.09976">
        <ele>627.3</ele>
      </trkpt>
      <trkpt lat="44.53268" lon="5.09988">
        <ele>628.2</ele>
      </trkpt>
      <trkpt lat="44.53279" lon="5.09997">
        <ele>630.3</ele>
      </trkpt>
      <trkpt lat="44.53292" lon="5.10007">
        <ele>633.7</ele>
      </trkpt>
      <trkpt lat="44.53304" lon="5.10019">
        <ele>637.1</ele>
      </trkpt>
      <trkpt lat="44.53327" lon="5.1003">
        <ele>645.3</ele>
      </trkpt>
      <trkpt lat="44.53347" lon="5.10042">
        <ele>651.8</ele>
      </trkpt>
      <trkpt lat="44.53351" lon="5.10047">
        <ele>652.6</ele>
      </trkpt>
      <trkpt lat="44.53353" lon="5.10052">
        <ele>652.3</ele>
      </trkpt>
      <trkpt lat="44.53354" lon="5.10057">
        <ele>651.4</ele>
      </trkpt>
      <trkpt lat="44.53353" lon="5.10063">
        <ele>649.6</ele>
      </trkpt>
      <trkpt lat="44.53349" lon="5.10073">
        <ele>644.9</ele>
      </trkpt>
      <trkpt lat="44.53337" lon="5.10098">
        <ele>635.4</ele>
      </trkpt>
      <trkpt lat="44.53326" lon="5.10124">
        <ele>627.6</ele>
      </trkpt>
      <trkpt lat="44.53325" lon="5.10129">
        <ele>626.9</ele>
      </trkpt>
      <trkpt lat="44.53326" lon="5.10134">
        <ele>626.7</ele>
      </trkpt>
      <trkpt lat="44.53328" lon="5.10139">
        <ele>627.6</ele>
      </trkpt>
      <trkpt lat="44.53332" lon="5.10142">
        <ele>629.2</ele>
      </trkpt>
      <trkpt lat="44.53338" lon="5.10147">
        <ele>632.2</ele>
      </trkpt>
      <trkpt lat="44.53347" lon="5.1015">
        <ele>636.4</ele>
      </trkpt>
      <trkpt lat="44.53356" lon="5.10157">
        <ele>640.9</ele>
      </trkpt>
      <trkpt lat="44.53367" lon="5.10167">
        <ele>645.8</ele>
      </trkpt>
      <trkpt lat="44.53376" lon="5.10177">
        <ele>646.9</ele>
      </trkpt>
      <trkpt lat="44.53383" lon="5.10192">
        <ele>644.6</ele>
      </trkpt>
      <trkpt lat="44.53392" lon="5.10205">
        <ele>643.9</ele>
      </trkpt>
      <trkpt lat="44.53402" lon="5.10209">
        <ele>646.9</ele>
      </trkpt>
      <trkpt lat="44.53411" lon="5.10209">
        <ele>651.3</ele>
      </trkpt>
      <trkpt lat="44.53418" lon="5.10214">
        <ele>652</ele>
      </trkpt>
      <trkpt lat="44.53426" lon="5.10225">
        <ele>649.1</ele>
      </trkpt>
      <trkpt lat="44.53436" lon="5.10235">
        <ele>647.4</ele>
      </trkpt>
      <trkpt lat="44.53447" lon="5.10243">
        <ele>646</ele>
      </trkpt>
      <trkpt lat="44.5346" lon="5.10248">
        <ele>647</ele>
      </trkpt>
      <trkpt lat="44.5347" lon="5.10258">
        <ele>644.5</ele>
      </trkpt>
      <trkpt lat="44.53476" lon="5.10265">
        <ele>642.2</ele>
      </trkpt>
      <trkpt lat="44.53487" lon="5.10273">
        <ele>640.8</ele>
      </trkpt>
      <trkpt lat="44.53502" lon="5.10281">
        <ele>639.5</ele>
      </trkpt>
      <trkpt lat="44.53513" lon="5.10284">
        <ele>637.5</ele>
      </trkpt>
      <trkpt lat="44.53526" lon="5.10287">
        <ele>635.1</ele>
      </trkpt>
      <trkpt lat="44.53541" lon="5.10286">
        <ele>634.6</ele>
      </trkpt>
      <trkpt lat="44.53549" lon="5.10284">
        <ele>635.2</ele>
      </trkpt>
      <trkpt lat="44.5356" lon="5.10277">
        <ele>637.4</ele>
      </trkpt>
      <trkpt lat="44.53566" lon="5.10269">
        <ele>640.3</ele>
      </trkpt>
      <trkpt lat="44.53577" lon="5.10258">
        <ele>643.5</ele>
      </trkpt>
      <trkpt lat="44.53584" lon="5.1025">
        <ele>646.1</ele>
      </trkpt>
      <trkpt lat="44.53593" lon="5.10238">
        <ele>652.1</ele>
      </trkpt>
      <trkpt lat="44.53595" lon="5.10237">
        <ele>652.2</ele>
      </trkpt>
      <trkpt lat="44.53598" lon="5.10236">
        <ele>652.8</ele>
      </trkpt>
      <trkpt lat="44.53601" lon="5.10229">
        <ele>656.1</ele>
      </trkpt>
      <trkpt lat="44.53607" lon="5.10222">
        <ele>658.8</ele>
      </trkpt>
      <trkpt lat="44.53616" lon="5.10216">
        <ele>661.1</ele>
      </trkpt>
      <trkpt lat="44.5362" lon="5.10216">
        <ele>660.7</ele>
      </trkpt>
      <trkpt lat="44.53623" lon="5.10219">
        <ele>658.7</ele>
      </trkpt>
      <trkpt lat="44.53627" lon="5.10225">
        <ele>655.4</ele>
      </trkpt>
      <trkpt lat="44.53631" lon="5.10225">
        <ele>655.1</ele>
      </trkpt>
      <trkpt lat="44.53634" lon="5.10222">
        <ele>656.1</ele>
      </trkpt>
      <trkpt lat="44.53637" lon="5.10219">
        <ele>657.3</ele>
      </trkpt>
      <trkpt lat="44.53643" lon="5.10216">
        <ele>657.9</ele>
      </trkpt>
      <trkpt lat="44.53646" lon="5.10214">
        <ele>658.4</ele>
      </trkpt>
      <trkpt lat="44.53649" lon="5.1021">
        <ele>660</ele>
      </trkpt>
      <trkpt lat="44.53653" lon="5.1021">
        <ele>659.5</ele>
      </trkpt>
      <trkpt lat="44.53656" lon="5.10213">
        <ele>657.7</ele>
      </trkpt>
      <trkpt lat="44.53662" lon="5.10222">
        <ele>653.3</ele>
      </trkpt>
      <trkpt lat="44.53667" lon="5.10227">
        <ele>650.7</ele>
      </trkpt>
      <trkpt lat="44.53673" lon="5.10224">
        <ele>652</ele>
      </trkpt>
      <trkpt lat="44.53677" lon="5.10219">
        <ele>654.5</ele>
      </trkpt>
      <trkpt lat="44.53681" lon="5.10214">
        <ele>656.5</ele>
      </trkpt>
      <trkpt lat="44.53685" lon="5.10213">
        <ele>657</ele>
      </trkpt>
      <trkpt lat="44.53691" lon="5.10216">
        <ele>656.1</ele>
      </trkpt>
      <trkpt lat="44.53696" lon="5.10219">
        <ele>655.1</ele>
      </trkpt>
      <trkpt lat="44.537" lon="5.10215">
        <ele>656.6</ele>
      </trkpt>
      <trkpt lat="44.53704" lon="5.10206">
        <ele>660.4</ele>
      </trkpt>
      <trkpt lat="44.53708" lon="5.10198">
        <ele>664.1</ele>
      </trkpt>
      <trkpt lat="44.53715" lon="5.10194">
        <ele>665.7</ele>
      </trkpt>
      <trkpt lat="44.53718" lon="5.10199">
        <ele>664</ele>
      </trkpt>
      <trkpt lat="44.53723" lon="5.10206">
        <ele>661</ele>
      </trkpt>
      <trkpt lat="44.53732" lon="5.10208">
        <ele>660.6</ele>
      </trkpt>
      <trkpt lat="44.53755" lon="5.10201">
        <ele>663.9</ele>
      </trkpt>
      <trkpt lat="44.53783" lon="5.10198">
        <ele>664.2</ele>
      </trkpt>
      <trkpt lat="44.5381" lon="5.10199">
        <ele>663.3</ele>
      </trkpt>
      <trkpt lat="44.53814" lon="5.10198">
        <ele>663.4</ele>
      </trkpt>
      <trkpt lat="44.53821" lon="5.10193">
        <ele>665</ele>
      </trkpt>
      <trkpt lat="44.53842" lon="5.1019">
        <ele>664.8</ele>
      </trkpt>
      <trkpt lat="44.53852" lon="5.10183">
        <ele>666.1</ele>
      </trkpt>
      <trkpt lat="44.53856" lon="5.10174">
        <ele>668.2</ele>
      </trkpt>
      <trkpt lat="44.53867" lon="5.10174">
        <ele>667.1</ele>
      </trkpt>
      <trkpt lat="44.53874" lon="5.10179">
        <ele>665</ele>
      </trkpt>
      <trkpt lat="44.53883" lon="5.10195">
        <ele>660.1</ele>
      </trkpt>
      <trkpt lat="44.53893" lon="5.10206">
        <ele>656.9</ele>
      </trkpt>
      <trkpt lat="44.53909" lon="5.10211">
        <ele>654.9</ele>
      </trkpt>
      <trkpt lat="44.53915" lon="5.10213">
        <ele>654.1</ele>
      </trkpt>
      <trkpt lat="44.53951" lon="5.10229">
        <ele>647.8</ele>
      </trkpt>
      <trkpt lat="44.53959" lon="5.10234">
        <ele>646.2</ele>
      </trkpt>
      <trkpt lat="44.53981" lon="5.10236">
        <ele>643.9</ele>
      </trkpt>
      <trkpt lat="44.54002" lon="5.10247">
        <ele>640.5</ele>
      </trkpt>
      <trkpt lat="44.5401" lon="5.10239">
        <ele>642.4</ele>
      </trkpt>
      <trkpt lat="44.5402" lon="5.10213">
        <ele>647.1</ele>
      </trkpt>
      <trkpt lat="44.54022" lon="5.10199">
        <ele>649.6</ele>
      </trkpt>
      <trkpt lat="44.54032" lon="5.10193">
        <ele>651.3</ele>
      </trkpt>
      <trkpt lat="44.5404" lon="5.102">
        <ele>650.8</ele>
      </trkpt>
      <trkpt lat="44.54046" lon="5.10228">
        <ele>646.4</ele>
      </trkpt>
      <trkpt lat="44.54055" lon="5.10243">
        <ele>644.5</ele>
      </trkpt>
      <trkpt lat="44.54061" lon="5.10249">
        <ele>643.9</ele>
      </trkpt>
      <trkpt lat="44.54063" lon="5.10259">
        <ele>642.5</ele>
      </trkpt>
      <trkpt lat="44.54064" lon="5.10271">
        <ele>641</ele>
      </trkpt>
      <trkpt lat="44.54067" lon="5.10292">
        <ele>638.5</ele>
      </trkpt>
      <trkpt lat="44.54067" lon="5.10302">
        <ele>637</ele>
      </trkpt>
      <trkpt lat="44.54063" lon="5.10321">
        <ele>634</ele>
      </trkpt>
      <trkpt lat="44.54061" lon="5.10333">
        <ele>632.1</ele>
      </trkpt>
      <trkpt lat="44.54057" lon="5.10347">
        <ele>630</ele>
      </trkpt>
      <trkpt lat="44.54054" lon="5.10359">
        <ele>628.5</ele>
      </trkpt>
      <trkpt lat="44.54056" lon="5.10372">
        <ele>627.2</ele>
      </trkpt>
      <trkpt lat="44.54066" lon="5.10385">
        <ele>627.4</ele>
      </trkpt>
      <trkpt lat="44.54102" lon="5.10435">
        <ele>627.6</ele>
      </trkpt>
      <trkpt lat="44.54122" lon="5.10462">
        <ele>627.9</ele>
      </trkpt>
      <trkpt lat="44.54153" lon="5.10507">
        <ele>628.9</ele>
      </trkpt>
      <trkpt lat="44.54181" lon="5.10534">
        <ele>629.1</ele>
      </trkpt>
      <trkpt lat="44.54214" lon="5.10558">
        <ele>628.4</ele>
      </trkpt>
      <trkpt lat="44.5425" lon="5.10574">
        <ele>629.3</ele>
      </trkpt>
      <trkpt lat="44.54275" lon="5.10595">
        <ele>628.9</ele>
      </trkpt>
      <trkpt lat="44.54284" lon="5.10601">
        <ele>629.2</ele>
      </trkpt>
      <trkpt lat="44.54285" lon="5.10607">
        <ele>629.4</ele>
      </trkpt>
      <trkpt lat="44.54286" lon="5.1061">
        <ele>629.5</ele>
      </trkpt>
      <trkpt lat="44.5429" lon="5.10622">
        <ele>630.1</ele>
      </trkpt>
      <trkpt lat="44.54298" lon="5.1064">
        <ele>631.3</ele>
      </trkpt>
      <trkpt lat="44.54315" lon="5.10672">
        <ele>634.7</ele>
      </trkpt>
      <trkpt lat="44.54333" lon="5.10703">
        <ele>639</ele>
      </trkpt>
      <trkpt lat="44.54342" lon="5.10716">
        <ele>641</ele>
      </trkpt>
      <trkpt lat="44.54353" lon="5.10728">
        <ele>643.1</ele>
      </trkpt>
      <trkpt lat="44.5436" lon="5.10737">
        <ele>644.6</ele>
      </trkpt>
      <trkpt lat="44.54395" lon="5.10768">
        <ele>648.8</ele>
      </trkpt>
      <trkpt lat="44.544" lon="5.10773">
        <ele>649.1</ele>
      </trkpt>
      <trkpt lat="44.54404" lon="5.10779">
        <ele>649.3</ele>
      </trkpt>
      <trkpt lat="44.54405" lon="5.10788">
        <ele>649.2</ele>
      </trkpt>
      <trkpt lat="44.54404" lon="5.10799">
        <ele>648.9</ele>
      </trkpt>
      <trkpt lat="44.54387" lon="5.10851">
        <ele>648.8</ele>
      </trkpt>
      <trkpt lat="44.54378" lon="5.10858">
        <ele>649.2</ele>
      </trkpt>
      <trkpt lat="44.54304" lon="5.11016">
        <ele>649.6</ele>
      </trkpt>
      <trkpt lat="44.54298" lon="5.11029">
        <ele>649.4</ele>
      </trkpt>
      <trkpt lat="44.54287" lon="5.11068">
        <ele>649.3</ele>
      </trkpt>
      <trkpt lat="44.54284" lon="5.11091">
        <ele>650</ele>
      </trkpt>
      <trkpt lat="44.54279" lon="5.11135">
        <ele>653.5</ele>
      </trkpt>
      <trkpt lat="44.54272" lon="5.1115">
        <ele>654.4</ele>
      </trkpt>
      <trkpt lat="44.54302" lon="5.11201">
        <ele>663</ele>
      </trkpt>
      <trkpt lat="44.54352" lon="5.11239">
        <ele>672</ele>
      </trkpt>
      <trkpt lat="44.5441" lon="5.11236">
        <ele>674.6</ele>
      </trkpt>
      <trkpt lat="44.54436" lon="5.1127">
        <ele>684.8</ele>
      </trkpt>
      <trkpt lat="44.54443" lon="5.11317">
        <ele>694.7</ele>
      </trkpt>
      <trkpt lat="44.54475" lon="5.11357">
        <ele>703.1</ele>
      </trkpt>
      <trkpt lat="44.54486" lon="5.11392">
        <ele>706.6</ele>
      </trkpt>
      <trkpt lat="44.54507" lon="5.11426">
        <ele>708.9</ele>
      </trkpt>
      <trkpt lat="44.54497" lon="5.11471">
        <ele>711</ele>
      </trkpt>
      <trkpt lat="44.54467" lon="5.11533">
        <ele>713.5</ele>
      </trkpt>
      <trkpt lat="44.54433" lon="5.11571">
        <ele>716.2</ele>
      </trkpt>
      <trkpt lat="44.54373" lon="5.11693">
        <ele>720.1</ele>
      </trkpt>
      <trkpt lat="44.54347" lon="5.11729">
        <ele>721.2</ele>
      </trkpt>
      <trkpt lat="44.54315" lon="5.1178">
        <ele>722</ele>
      </trkpt>
      <trkpt lat="44.54291" lon="5.11848">
        <ele>727.1</ele>
      </trkpt>
      <trkpt lat="44.54274" lon="5.11865">
        <ele>728.5</ele>
      </trkpt>
      <trkpt lat="44.54259" lon="5.11872">
        <ele>728.6</ele>
      </trkpt>
      <trkpt lat="44.54241" lon="5.11877">
        <ele>727.8</ele>
      </trkpt>
      <trkpt lat="44.54215" lon="5.11866">
        <ele>722.6</ele>
      </trkpt>
      <trkpt lat="44.54194" lon="5.11873">
        <ele>721.1</ele>
      </trkpt>
      <trkpt lat="44.54194" lon="5.11882">
        <ele>722.6</ele>
      </trkpt>
      <trkpt lat="44.54195" lon="5.1189">
        <ele>724.1</ele>
      </trkpt>
      <trkpt lat="44.5421" lon="5.11909">
        <ele>729.4</ele>
      </trkpt>
      <trkpt lat="44.54218" lon="5.1192">
        <ele>732.6</ele>
      </trkpt>
      <trkpt lat="44.54234" lon="5.11957">
        <ele>741.1</ele>
      </trkpt>
      <trkpt lat="44.54249" lon="5.11989">
        <ele>748.2</ele>
      </trkpt>
      <trkpt lat="44.54257" lon="5.1202">
        <ele>754.3</ele>
      </trkpt>
      <trkpt lat="44.54262" lon="5.12046">
        <ele>759.8</ele>
      </trkpt>
      <trkpt lat="44.54266" lon="5.12056">
        <ele>762.1</ele>
      </trkpt>
      <trkpt lat="44.54266" lon="5.12072">
        <ele>765</ele>
      </trkpt>
      <trkpt lat="44.5427" lon="5.12088">
        <ele>768.3</ele>
      </trkpt>
      <trkpt lat="44.54272" lon="5.12106">
        <ele>770.6</ele>
      </trkpt>
      <trkpt lat="44.54273" lon="5.1212">
        <ele>772.5</ele>
      </trkpt>
      <trkpt lat="44.54274" lon="5.12136">
        <ele>774.6</ele>
      </trkpt>
      <trkpt lat="44.54275" lon="5.12153">
        <ele>776.7</ele>
      </trkpt>
      <trkpt lat="44.54276" lon="5.1217">
        <ele>778.6</ele>
      </trkpt>
      <trkpt lat="44.54276" lon="5.12181">
        <ele>779.3</ele>
      </trkpt>
      <trkpt lat="44.54276" lon="5.12193">
        <ele>779.8</ele>
      </trkpt>
      <trkpt lat="44.54275" lon="5.12203">
        <ele>780.3</ele>
      </trkpt>
      <trkpt lat="44.54274" lon="5.12208">
        <ele>780.5</ele>
      </trkpt>
      <trkpt lat="44.54272" lon="5.12214">
        <ele>780.7</ele>
      </trkpt>
      <trkpt lat="44.54271" lon="5.1222">
        <ele>780.9</ele>
      </trkpt>
      <trkpt lat="44.54272" lon="5.12229">
        <ele>781.4</ele>
      </trkpt>
      <trkpt lat="44.54273" lon="5.12237">
        <ele>782</ele>
      </trkpt>
      <trkpt lat="44.54275" lon="5.12248">
        <ele>782.7</ele>
      </trkpt>
      <trkpt lat="44.54276" lon="5.12255">
        <ele>782.8</ele>
      </trkpt>
      <trkpt lat="44.54276" lon="5.12264">
        <ele>782.5</ele>
      </trkpt>
      <trkpt lat="44.54274" lon="5.12273">
        <ele>782.1</ele>
      </trkpt>
      <trkpt lat="44.54272" lon="5.12286">
        <ele>781.6</ele>
      </trkpt>
      <trkpt lat="44.54272" lon="5.12292">
        <ele>781.4</ele>
      </trkpt>
      <trkpt lat="44.54267" lon="5.12309">
        <ele>780.7</ele>
      </trkpt>
      <trkpt lat="44.54283" lon="5.12306">
        <ele>781.7</ele>
      </trkpt>
      <trkpt lat="44.54303" lon="5.12296">
        <ele>783.4</ele>
      </trkpt>
      <trkpt lat="44.54333" lon="5.1229">
        <ele>785.5</ele>
      </trkpt>
      <trkpt lat="44.54357" lon="5.12293">
        <ele>786.3</ele>
      </trkpt>
      <trkpt lat="44.54381" lon="5.12303">
        <ele>786.8</ele>
      </trkpt>
      <trkpt lat="44.54396" lon="5.12307">
        <ele>787.2</ele>
      </trkpt>
      <trkpt lat="44.54443" lon="5.12305">
        <ele>787.9</ele>
      </trkpt>
      <trkpt lat="44.5447" lon="5.12302">
        <ele>788.1</ele>
      </trkpt>
      <trkpt lat="44.54538" lon="5.1228">
        <ele>789.6</ele>
      </trkpt>
      <trkpt lat="44.54577" lon="5.12272">
        <ele>790.3</ele>
      </trkpt>
      <trkpt lat="44.54593" lon="5.12271">
        <ele>790.7</ele>
      </trkpt>
      <trkpt lat="44.54653" lon="5.1228">
        <ele>790.7</ele>
      </trkpt>
      <trkpt lat="44.54672" lon="5.12277">
        <ele>791.7</ele>
      </trkpt>
      <trkpt lat="44.5469" lon="5.12273">
        <ele>793.2</ele>
      </trkpt>
      <trkpt lat="44.54707" lon="5.12276">
        <ele>794</ele>
      </trkpt>
      <trkpt lat="44.54733" lon="5.12282">
        <ele>794.9</ele>
      </trkpt>
      <trkpt lat="44.54748" lon="5.12285">
        <ele>795.5</ele>
      </trkpt>
      <trkpt lat="44.54783" lon="5.12288">
        <ele>796.3</ele>
      </trkpt>
      <trkpt lat="44.54804" lon="5.12292">
        <ele>796.6</ele>
      </trkpt>
      <trkpt lat="44.54821" lon="5.12292">
        <ele>797.1</ele>
      </trkpt>
      <trkpt lat="44.54868" lon="5.12282">
        <ele>799.9</ele>
      </trkpt>
      <trkpt lat="44.54891" lon="5.12275">
        <ele>801.5</ele>
      </trkpt>
      <trkpt lat="44.54911" lon="5.12274">
        <ele>802.7</ele>
      </trkpt>
      <trkpt lat="44.54942" lon="5.12284">
        <ele>799.6</ele>
      </trkpt>
      <trkpt lat="44.54976" lon="5.12297">
        <ele>796.2</ele>
      </trkpt>
      <trkpt lat="44.54997" lon="5.12312">
        <ele>795.1</ele>
      </trkpt>
      <trkpt lat="44.55026" lon="5.12324">
        <ele>791.5</ele>
      </trkpt>
      <trkpt lat="44.55034" lon="5.12328">
        <ele>790.5</ele>
      </trkpt>
      <trkpt lat="44.55049" lon="5.12336">
        <ele>788.9</ele>
      </trkpt>
      <trkpt lat="44.55068" lon="5.1237">
        <ele>786.4</ele>
      </trkpt>
      <trkpt lat="44.5508" lon="5.12382">
        <ele>786.4</ele>
      </trkpt>
      <trkpt lat="44.55092" lon="5.12387">
        <ele>786.5</ele>
      </trkpt>
      <trkpt lat="44.55106" lon="5.12384">
        <ele>786</ele>
      </trkpt>
      <trkpt lat="44.55133" lon="5.12382">
        <ele>785.4</ele>
      </trkpt>
      <trkpt lat="44.55142" lon="5.12381">
        <ele>785.1</ele>
      </trkpt>
      <trkpt lat="44.55163" lon="5.12382">
        <ele>784.8</ele>
      </trkpt>
      <trkpt lat="44.55185" lon="5.1239">
        <ele>786.4</ele>
      </trkpt>
      <trkpt lat="44.55196" lon="5.1239">
        <ele>786.7</ele>
      </trkpt>
      <trkpt lat="44.55204" lon="5.12382">
        <ele>785.5</ele>
      </trkpt>
      <trkpt lat="44.55208" lon="5.12371">
        <ele>783.8</ele>
      </trkpt>
      <trkpt lat="44.55219" lon="5.12296">
        <ele>774.2</ele>
      </trkpt>
      <trkpt lat="44.55224" lon="5.12283">
        <ele>772.9</ele>
      </trkpt>
      <trkpt lat="44.55232" lon="5.12276">
        <ele>772.4</ele>
      </trkpt>
      <trkpt lat="44.55267" lon="5.12267">
        <ele>771.8</ele>
      </trkpt>
      <trkpt lat="44.5529" lon="5.12251">
        <ele>769.7</ele>
      </trkpt>
      <trkpt lat="44.55313" lon="5.1224">
        <ele>768.2</ele>
      </trkpt>
      <trkpt lat="44.55325" lon="5.12242">
        <ele>768.2</ele>
      </trkpt>
      <trkpt lat="44.55344" lon="5.12258">
        <ele>768.8</ele>
      </trkpt>
      <trkpt lat="44.55357" lon="5.12262">
        <ele>768</ele>
      </trkpt>
      <trkpt lat="44.55464" lon="5.12239">
        <ele>756.4</ele>
      </trkpt>
      <trkpt lat="44.55503" lon="5.12214">
        <ele>751.7</ele>
      </trkpt>
      <trkpt lat="44.55517" lon="5.12209">
        <ele>750.7</ele>
      </trkpt>
      <trkpt lat="44.55535" lon="5.1221">
        <ele>749.9</ele>
      </trkpt>
      <trkpt lat="44.55602" lon="5.12246">
        <ele>747.3</ele>
      </trkpt>
      <trkpt lat="44.55654" lon="5.12311">
        <ele>743.6</ele>
      </trkpt>
      <trkpt lat="44.55713" lon="5.12365">
        <ele>737.9</ele>
      </trkpt>
      <trkpt lat="44.55725" lon="5.12367">
        <ele>736.3</ele>
      </trkpt>
      <trkpt lat="44.55733" lon="5.1236">
        <ele>735.5</ele>
      </trkpt>
      <trkpt lat="44.55736" lon="5.12369">
        <ele>735</ele>
      </trkpt>
      <trkpt lat="44.55742" lon="5.12374">
        <ele>734.1</ele>
      </trkpt>
      <trkpt lat="44.55766" lon="5.12342">
        <ele>728.7</ele>
      </trkpt>
      <trkpt lat="44.55777" lon="5.12344">
        <ele>725.2</ele>
      </trkpt>
      <trkpt lat="44.55782" lon="5.12369">
        <ele>721.7</ele>
      </trkpt>
      <trkpt lat="44.55768" lon="5.12409">
        <ele>724.4</ele>
      </trkpt>
      <trkpt lat="44.55745" lon="5.12435">
        <ele>726.8</ele>
      </trkpt>
      <trkpt lat="44.55696" lon="5.12467">
        <ele>727.2</ele>
      </trkpt>
      <trkpt lat="44.55671" lon="5.12514">
        <ele>721.9</ele>
      </trkpt>
      <trkpt lat="44.55653" lon="5.12546">
        <ele>717.3</ele>
      </trkpt>
      <trkpt lat="44.55683" lon="5.12528">
        <ele>715.1</ele>
      </trkpt>
      <trkpt lat="44.55716" lon="5.12511">
        <ele>710.8</ele>
      </trkpt>
      <trkpt lat="44.55748" lon="5.12501">
        <ele>704.3</ele>
      </trkpt>
      <trkpt lat="44.55767" lon="5.1248">
        <ele>705.4</ele>
      </trkpt>
      <trkpt lat="44.55803" lon="5.12415">
        <ele>708.8</ele>
      </trkpt>
      <trkpt lat="44.55836" lon="5.1236">
        <ele>703.6</ele>
      </trkpt>
      <trkpt lat="44.55886" lon="5.12275">
        <ele>695.3</ele>
      </trkpt>
      <trkpt lat="44.55904" lon="5.12261">
        <ele>688.7</ele>
      </trkpt>
      <trkpt lat="44.5592" lon="5.12262">
        <ele>682.9</ele>
      </trkpt>
      <trkpt lat="44.55973" lon="5.12312">
        <ele>668.6</ele>
      </trkpt>
      <trkpt lat="44.55993" lon="5.12283">
        <ele>665.6</ele>
      </trkpt>
      <trkpt lat="44.56024" lon="5.12199">
        <ele>664.5</ele>
      </trkpt>
      <trkpt lat="44.56031" lon="5.12154">
        <ele>666.6</ele>
      </trkpt>
      <trkpt lat="44.56078" lon="5.12101">
        <ele>663.6</ele>
      </trkpt>
      <trkpt lat="44.56114" lon="5.12027">
        <ele>665.9</ele>
      </trkpt>
      <trkpt lat="44.56129" lon="5.12021">
        <ele>665</ele>
      </trkpt>
      <trkpt lat="44.56148" lon="5.12044">
        <ele>658.6</ele>
      </trkpt>
      <trkpt lat="44.56173" lon="5.12032">
        <ele>658.8</ele>
      </trkpt>
      <trkpt lat="44.56199" lon="5.12036">
        <ele>659.8</ele>
      </trkpt>
      <trkpt lat="44.56222" lon="5.12048">
        <ele>659.4</ele>
      </trkpt>
      <trkpt lat="44.56272" lon="5.12103">
        <ele>655.8</ele>
      </trkpt>
      <trkpt lat="44.56289" lon="5.12107">
        <ele>656.6</ele>
      </trkpt>
      <trkpt lat="44.56287" lon="5.12113">
        <ele>655.3</ele>
      </trkpt>
      <trkpt lat="44.56277" lon="5.12113">
        <ele>654.4</ele>
      </trkpt>
      <trkpt lat="44.56273" lon="5.12122">
        <ele>652.6</ele>
      </trkpt>
      <trkpt lat="44.56277" lon="5.12132">
        <ele>651.2</ele>
      </trkpt>
      <trkpt lat="44.56288" lon="5.12143">
        <ele>650.1</ele>
      </trkpt>
      <trkpt lat="44.56311" lon="5.12148">
        <ele>650.6</ele>
      </trkpt>
      <trkpt lat="44.56316" lon="5.12155">
        <ele>649.5</ele>
      </trkpt>
      <trkpt lat="44.56312" lon="5.12167">
        <ele>647</ele>
      </trkpt>
      <trkpt lat="44.56293" lon="5.12178">
        <ele>643.2</ele>
      </trkpt>
      <trkpt lat="44.56267" lon="5.1218">
        <ele>641.7</ele>
      </trkpt>
      <trkpt lat="44.56242" lon="5.1217">
        <ele>642.8</ele>
      </trkpt>
      <trkpt lat="44.56236" lon="5.12173">
        <ele>642</ele>
      </trkpt>
      <trkpt lat="44.56234" lon="5.12182">
        <ele>640</ele>
      </trkpt>
      <trkpt lat="44.56277" lon="5.12216">
        <ele>633.6</ele>
      </trkpt>
      <trkpt lat="44.56302" lon="5.12221">
        <ele>632.7</ele>
      </trkpt>
      <trkpt lat="44.56332" lon="5.12219">
        <ele>633.6</ele>
      </trkpt>
      <trkpt lat="44.56356" lon="5.12211">
        <ele>633.7</ele>
      </trkpt>
      <trkpt lat="44.56372" lon="5.1221">
        <ele>632.6</ele>
      </trkpt>
      <trkpt lat="44.5638" lon="5.12216">
        <ele>629.5</ele>
      </trkpt>
      <trkpt lat="44.56378" lon="5.12227">
        <ele>626</ele>
      </trkpt>
      <trkpt lat="44.56374" lon="5.12242">
        <ele>621.6</ele>
      </trkpt>
      <trkpt lat="44.56358" lon="5.12258">
        <ele>619.7</ele>
      </trkpt>
      <trkpt lat="44.56355" lon="5.12287">
        <ele>615.2</ele>
      </trkpt>
      <trkpt lat="44.56357" lon="5.12316">
        <ele>609.5</ele>
      </trkpt>
      <trkpt lat="44.56386" lon="5.12329">
        <ele>603.1</ele>
      </trkpt>
      <trkpt lat="44.56402" lon="5.12343">
        <ele>599.7</ele>
      </trkpt>
      <trkpt lat="44.56413" lon="5.12406">
        <ele>595.8</ele>
      </trkpt>
      <trkpt lat="44.5642" lon="5.12451">
        <ele>590.4</ele>
      </trkpt>
      <trkpt lat="44.56439" lon="5.12558">
        <ele>576.2</ele>
      </trkpt>
      <trkpt lat="44.56431" lon="5.12617">
        <ele>569</ele>
      </trkpt>
      <trkpt lat="44.56439" lon="5.12637">
        <ele>566.9</ele>
      </trkpt>
      <trkpt lat="44.56453" lon="5.12636">
        <ele>567.1</ele>
      </trkpt>
      <trkpt lat="44.56463" lon="5.12624">
        <ele>568.7</ele>
      </trkpt>
      <trkpt lat="44.56473" lon="5.12633">
        <ele>567.6</ele>
      </trkpt>
      <trkpt lat="44.56496" lon="5.1268">
        <ele>559.4</ele>
      </trkpt>
      <trkpt lat="44.56522" lon="5.12682">
        <ele>560.5</ele>
      </trkpt>
      <trkpt lat="44.5653" lon="5.12693">
        <ele>558.5</ele>
      </trkpt>
      <trkpt lat="44.56585" lon="5.1272">
        <ele>558.6</ele>
      </trkpt>
      <trkpt lat="44.56605" lon="5.12716">
        <ele>553.2</ele>
      </trkpt>
      <trkpt lat="44.56625" lon="5.12639">
        <ele>556.5</ele>
      </trkpt>
      <trkpt lat="44.56673" lon="5.12588">
        <ele>549.1</ele>
      </trkpt>
      <trkpt lat="44.56681" lon="5.12571">
        <ele>550.9</ele>
      </trkpt>
      <trkpt lat="44.56699" lon="5.1256">
        <ele>551.9</ele>
      </trkpt>
      <trkpt lat="44.56755" lon="5.12622">
        <ele>539.7</ele>
      </trkpt>
      <trkpt lat="44.56806" lon="5.12616">
        <ele>538.5</ele>
      </trkpt>
      <trkpt lat="44.56848" lon="5.12583">
        <ele>540.6</ele>
      </trkpt>
      <trkpt lat="44.5686" lon="5.12566">
        <ele>542.8</ele>
      </trkpt>
      <trkpt lat="44.56882" lon="5.12562">
        <ele>541.5</ele>
      </trkpt>
      <trkpt lat="44.5691" lon="5.12534">
        <ele>544.2</ele>
      </trkpt>
      <trkpt lat="44.5695" lon="5.1255">
        <ele>539.7</ele>
      </trkpt>
      <trkpt lat="44.56971" lon="5.12537">
        <ele>541.5</ele>
      </trkpt>
      <trkpt lat="44.56999" lon="5.12537">
        <ele>540.8</ele>
      </trkpt>
      <trkpt lat="44.5701" lon="5.12527">
        <ele>542.6</ele>
      </trkpt>
      <trkpt lat="44.57033" lon="5.12544">
        <ele>540.1</ele>
      </trkpt>
      <trkpt lat="44.57062" lon="5.12542">
        <ele>541.1</ele>
      </trkpt>
      <trkpt lat="44.57161" lon="5.12507">
        <ele>545.8</ele>
      </trkpt>
      <trkpt lat="44.57212" lon="5.12516">
        <ele>539.3</ele>
      </trkpt>
      <trkpt lat="44.5722" lon="5.12491">
        <ele>543.6</ele>
      </trkpt>
      <trkpt lat="44.57285" lon="5.12395">
        <ele>561.3</ele>
      </trkpt>
      <trkpt lat="44.57301" lon="5.12385">
        <ele>562.4</ele>
      </trkpt>
      <trkpt lat="44.57366" lon="5.12425">
        <ele>555.3</ele>
      </trkpt>
      <trkpt lat="44.57376" lon="5.12443">
        <ele>554.7</ele>
      </trkpt>
      <trkpt lat="44.57396" lon="5.12486">
        <ele>553</ele>
      </trkpt>
      <trkpt lat="44.57426" lon="5.12486">
        <ele>556.2</ele>
      </trkpt>
      <trkpt lat="44.57437" lon="5.12471">
        <ele>557.9</ele>
      </trkpt>
      <trkpt lat="44.57446" lon="5.12484">
        <ele>556.3</ele>
      </trkpt>
      <trkpt lat="44.57452" lon="5.12499">
        <ele>554.3</ele>
      </trkpt>
      <trkpt lat="44.57461" lon="5.12515">
        <ele>552.2</ele>
      </trkpt>
      <trkpt lat="44.57473" lon="5.1255">
        <ele>547.9</ele>
      </trkpt>
      <trkpt lat="44.57477" lon="5.12581">
        <ele>544.1</ele>
      </trkpt>
      <trkpt lat="44.57485" lon="5.12605">
        <ele>541.2</ele>
      </trkpt>
      <trkpt lat="44.57507" lon="5.12632">
        <ele>536.6</ele>
      </trkpt>
      <trkpt lat="44.57514" lon="5.12651">
        <ele>533.4</ele>
      </trkpt>
      <trkpt lat="44.57516" lon="5.1266">
        <ele>532.1</ele>
      </trkpt>
      <trkpt lat="44.5752" lon="5.12663">
        <ele>531.3</ele>
      </trkpt>
      <trkpt lat="44.57522" lon="5.12662">
        <ele>531</ele>
      </trkpt>
      <trkpt lat="44.57523" lon="5.12657">
        <ele>531.3</ele>
      </trkpt>
      <trkpt lat="44.57524" lon="5.12646">
        <ele>532.4</ele>
      </trkpt>
      <trkpt lat="44.57525" lon="5.1264">
        <ele>532.7</ele>
      </trkpt>
      <trkpt lat="44.57546" lon="5.12621">
        <ele>530.9</ele>
      </trkpt>
      <trkpt lat="44.57546" lon="5.12608">
        <ele>532</ele>
      </trkpt>
      <trkpt lat="44.57551" lon="5.1259">
        <ele>532.7</ele>
      </trkpt>
      <trkpt lat="44.57549" lon="5.12576">
        <ele>534.6</ele>
      </trkpt>
      <trkpt lat="44.57561" lon="5.12555">
        <ele>534.6</ele>
      </trkpt>
      <trkpt lat="44.57573" lon="5.12543">
        <ele>533.8</ele>
      </trkpt>
      <trkpt lat="44.57582" lon="5.12541">
        <ele>532.4</ele>
      </trkpt>
      <trkpt lat="44.57605" lon="5.12549">
        <ele>528.5</ele>
      </trkpt>
      <trkpt lat="44.57631" lon="5.12578">
        <ele>520.1</ele>
      </trkpt>
      <trkpt lat="44.57652" lon="5.12577">
        <ele>516.9</ele>
      </trkpt>
      <trkpt lat="44.57669" lon="5.12579">
        <ele>513.8</ele>
      </trkpt>
      <trkpt lat="44.57682" lon="5.12577">
        <ele>514.1</ele>
      </trkpt>
      <trkpt lat="44.57707" lon="5.12552">
        <ele>520.6</ele>
      </trkpt>
      <trkpt lat="44.57714" lon="5.1254">
        <ele>524.2</ele>
      </trkpt>
      <trkpt lat="44.57719" lon="5.12539">
        <ele>524.5</ele>
      </trkpt>
      <trkpt lat="44.57735" lon="5.12558">
        <ele>519.2</ele>
      </trkpt>
      <trkpt lat="44.57757" lon="5.12589">
        <ele>511</ele>
      </trkpt>
      <trkpt lat="44.57772" lon="5.12618">
        <ele>507.1</ele>
      </trkpt>
      <trkpt lat="44.57784" lon="5.12649">
        <ele>501.9</ele>
      </trkpt>
      <trkpt lat="44.5779" lon="5.12682">
        <ele>496.5</ele>
      </trkpt>
      <trkpt lat="44.57797" lon="5.12698">
        <ele>495.1</ele>
      </trkpt>
      <trkpt lat="44.57807" lon="5.12716">
        <ele>493.5</ele>
      </trkpt>
      <trkpt lat="44.57828" lon="5.12764">
        <ele>490.5</ele>
      </trkpt>
      <trkpt lat="44.57839" lon="5.12763">
        <ele>490.6</ele>
      </trkpt>
      <trkpt lat="44.57844" lon="5.12767">
        <ele>490.3</ele>
      </trkpt>
      <trkpt lat="44.57852" lon="5.12769">
        <ele>489.9</ele>
      </trkpt>
      <trkpt lat="44.57862" lon="5.12763">
        <ele>489.7</ele>
      </trkpt>
      <trkpt lat="44.57883" lon="5.12751">
        <ele>489.8</ele>
      </trkpt>
      <trkpt lat="44.57896" lon="5.12749">
        <ele>489.6</ele>
      </trkpt>
      <trkpt lat="44.57912" lon="5.12755">
        <ele>488.5</ele>
      </trkpt>
      <trkpt lat="44.5793" lon="5.12764">
        <ele>485.8</ele>
      </trkpt>
      <trkpt lat="44.57941" lon="5.12764">
        <ele>484.5</ele>
      </trkpt>
      <trkpt lat="44.57953" lon="5.12758">
        <ele>483.8</ele>
      </trkpt>
      <trkpt lat="44.57961" lon="5.12747">
        <ele>484.1</ele>
      </trkpt>
      <trkpt lat="44.57975" lon="5.1272">
        <ele>485.7</ele>
      </trkpt>
      <trkpt lat="44.57987" lon="5.12709">
        <ele>485.3</ele>
      </trkpt>
      <trkpt lat="44.58001" lon="5.12703">
        <ele>484</ele>
      </trkpt>
      <trkpt lat="44.58014" lon="5.12705">
        <ele>483.8</ele>
      </trkpt>
      <trkpt lat="44.58024" lon="5.12712">
        <ele>482.9</ele>
      </trkpt>
      <trkpt lat="44.58036" lon="5.12732">
        <ele>480.7</ele>
      </trkpt>
      <trkpt lat="44.58046" lon="5.12751">
        <ele>478.4</ele>
      </trkpt>
      <trkpt lat="44.58049" lon="5.1277">
        <ele>477.7</ele>
      </trkpt>
      <trkpt lat="44.58048" lon="5.12793">
        <ele>476.9</ele>
      </trkpt>
      <trkpt lat="44.58041" lon="5.12821">
        <ele>475.4</ele>
      </trkpt>
      <trkpt lat="44.58035" lon="5.12842">
        <ele>473.9</ele>
      </trkpt>
      <trkpt lat="44.58043" lon="5.1286">
        <ele>473.5</ele>
      </trkpt>
      <trkpt lat="44.58045" lon="5.12903">
        <ele>471.3</ele>
      </trkpt>
      <trkpt lat="44.5805" lon="5.12944">
        <ele>468.2</ele>
      </trkpt>
      <trkpt lat="44.58064" lon="5.1296">
        <ele>468.6</ele>
      </trkpt>
      <trkpt lat="44.58097" lon="5.13004">
        <ele>468.3</ele>
      </trkpt>
      <trkpt lat="44.58109" lon="5.13025">
        <ele>466</ele>
      </trkpt>
      <trkpt lat="44.58118" lon="5.13041">
        <ele>464.2</ele>
      </trkpt>
      <trkpt lat="44.58137" lon="5.13047">
        <ele>465.7</ele>
      </trkpt>
      <trkpt lat="44.58158" lon="5.13058">
        <ele>466.2</ele>
      </trkpt>
      <trkpt lat="44.58187" lon="5.13067">
        <ele>465.6</ele>
      </trkpt>
      <trkpt lat="44.58216" lon="5.13087">
        <ele>462.3</ele>
      </trkpt>
      <trkpt lat="44.58246" lon="5.13118">
        <ele>461.1</ele>
      </trkpt>
      <trkpt lat="44.58249" lon="5.13135">
        <ele>460.4</ele>
      </trkpt>
      <trkpt lat="44.58249" lon="5.13156">
        <ele>459.3</ele>
      </trkpt>
      <trkpt lat="44.58241" lon="5.13188">
        <ele>458.8</ele>
      </trkpt>
      <trkpt lat="44.58221" lon="5.13255">
        <ele>455.2</ele>
      </trkpt>
      <trkpt lat="44.58216" lon="5.13292">
        <ele>449</ele>
      </trkpt>
      <trkpt lat="44.58215" lon="5.13307">
        <ele>446.8</ele>
      </trkpt>
      <trkpt lat="44.58218" lon="5.13315">
        <ele>446.3</ele>
      </trkpt>
      <trkpt lat="44.58253" lon="5.13323">
        <ele>451.3</ele>
      </trkpt>
      <trkpt lat="44.58269" lon="5.13329">
        <ele>448.1</ele>
      </trkpt>
      <trkpt lat="44.58278" lon="5.13345">
        <ele>443.3</ele>
      </trkpt>
      <trkpt lat="44.58286" lon="5.13347">
        <ele>442</ele>
      </trkpt>
      <trkpt lat="44.58365" lon="5.13321">
        <ele>436.4</ele>
      </trkpt>
      <trkpt lat="44.58376" lon="5.13318">
        <ele>435.3</ele>
      </trkpt>
      <trkpt lat="44.5839" lon="5.13308">
        <ele>435.6</ele>
      </trkpt>
      <trkpt lat="44.58408" lon="5.13302">
        <ele>434.3</ele>
      </trkpt>
      <trkpt lat="44.58421" lon="5.13296">
        <ele>433.9</ele>
      </trkpt>
      <trkpt lat="44.58421" lon="5.133">
        <ele>432.6</ele>
      </trkpt>
      <trkpt lat="44.58419" lon="5.13309">
        <ele>430.4</ele>
      </trkpt>
      <trkpt lat="44.58416" lon="5.13315">
        <ele>429</ele>
      </trkpt>
      <trkpt lat="44.58432" lon="5.13316">
        <ele>426.8</ele>
      </trkpt>
      <trkpt lat="44.5844" lon="5.13316">
        <ele>425.8</ele>
      </trkpt>
      <trkpt lat="44.58443" lon="5.13321">
        <ele>424.1</ele>
      </trkpt>
      <trkpt lat="44.58451" lon="5.13326">
        <ele>422</ele>
      </trkpt>
      <trkpt lat="44.58462" lon="5.13324">
        <ele>421.1</ele>
      </trkpt>
      <trkpt lat="44.58474" lon="5.13321">
        <ele>420.1</ele>
      </trkpt>
      <trkpt lat="44.58476" lon="5.1333">
        <ele>417.7</ele>
      </trkpt>
      <trkpt lat="44.58487" lon="5.1333">
        <ele>416.3</ele>
      </trkpt>
      <trkpt lat="44.58494" lon="5.1333">
        <ele>415.5</ele>
      </trkpt>
      <trkpt lat="44.58495" lon="5.1333">
        <ele>415.4</ele>
      </trkpt>
      <trkpt lat="44.58503" lon="5.13323">
        <ele>416</ele>
      </trkpt>
      <trkpt lat="44.58527" lon="5.13381">
        <ele>409.8</ele>
      </trkpt>
      <trkpt lat="44.58531" lon="5.13381">
        <ele>409.4</ele>
      </trkpt>
      <trkpt lat="44.58535" lon="5.13382">
        <ele>409.1</ele>
      </trkpt>
      <trkpt lat="44.58558" lon="5.13388">
        <ele>407.4</ele>
      </trkpt>
      <trkpt lat="44.58566" lon="5.1339">
        <ele>406.9</ele>
      </trkpt>
      <trkpt lat="44.58568" lon="5.1339">
        <ele>406.7</ele>
      </trkpt>
      <trkpt lat="44.58593" lon="5.13398">
        <ele>405.9</ele>
      </trkpt>
      <trkpt lat="44.58594" lon="5.13398">
        <ele>405.9</ele>
      </trkpt>
      <trkpt lat="44.5862" lon="5.13403">
        <ele>406.3</ele>
      </trkpt>
      <trkpt lat="44.58638" lon="5.13407">
        <ele>406.5</ele>
      </trkpt>
      <trkpt lat="44.58642" lon="5.13405">
        <ele>406.6</ele>
      </trkpt>
      <trkpt lat="44.58654" lon="5.13396">
        <ele>406.6</ele>
      </trkpt>
      <trkpt lat="44.58664" lon="5.13385">
        <ele>406.6</ele>
      </trkpt>
      <trkpt lat="44.58689" lon="5.13363">
        <ele>405.9</ele>
      </trkpt>
      <trkpt lat="44.58692" lon="5.13361">
        <ele>405.8</ele>
      </trkpt>
      <trkpt lat="44.58695" lon="5.13363">
        <ele>405.8</ele>
      </trkpt>
      <trkpt lat="44.58698" lon="5.13367">
        <ele>405.8</ele>
      </trkpt>
      <trkpt lat="44.58726" lon="5.1343">
        <ele>406.1</ele>
      </trkpt>
      <trkpt lat="44.58728" lon="5.13434">
        <ele>406</ele>
      </trkpt>
      <trkpt lat="44.5875" lon="5.13421">
        <ele>405.9</ele>
      </trkpt>
      <trkpt lat="44.58797" lon="5.13392">
        <ele>404.8</ele>
      </trkpt>
      <trkpt lat="44.58806" lon="5.13387">
        <ele>404.7</ele>
      </trkpt>
      <trkpt lat="44.58811" lon="5.13383">
        <ele>404.6</ele>
      </trkpt>
      <trkpt lat="44.5887" lon="5.13344">
        <ele>405.4</ele>
      </trkpt>
      <trkpt lat="44.58895" lon="5.13328">
        <ele>405.5</ele>
      </trkpt>
      <trkpt lat="44.58975" lon="5.13274">
        <ele>404.9</ele>
      </trkpt>
      <trkpt lat="44.58989" lon="5.13265">
        <ele>404.9</ele>
      </trkpt>
      <trkpt lat="44.59003" lon="5.13255">
        <ele>405.1</ele>
      </trkpt>
      <trkpt lat="44.59087" lon="5.132">
        <ele>406.1</ele>
      </trkpt>
      <trkpt lat="44.59109" lon="5.13191">
        <ele>407.2</ele>
      </trkpt>
      <trkpt lat="44.5911" lon="5.13195">
        <ele>407.2</ele>
      </trkpt>
      <trkpt lat="44.59127" lon="5.13308">
        <ele>406.9</ele>
      </trkpt>
      <trkpt lat="44.59144" lon="5.13412">
        <ele>407.7</ele>
      </trkpt>
      <trkpt lat="44.59148" lon="5.13452">
        <ele>408</ele>
      </trkpt>
      <trkpt lat="44.59152" lon="5.13499">
        <ele>408.2</ele>
      </trkpt>
      <trkpt lat="44.59159" lon="5.13531">
        <ele>409</ele>
      </trkpt>
      <trkpt lat="44.59183" lon="5.13577">
        <ele>410.5</ele>
      </trkpt>
      <trkpt lat="44.59203" lon="5.13626">
        <ele>412.6</ele>
      </trkpt>
      <trkpt lat="44.59216" lon="5.1367">
        <ele>414.2</ele>
      </trkpt>
      <trkpt lat="44.59227" lon="5.13698">
        <ele>414.4</ele>
      </trkpt>
      <trkpt lat="44.59246" lon="5.13726">
        <ele>414.3</ele>
      </trkpt>
      <trkpt lat="44.59275" lon="5.13749">
        <ele>414.9</ele>
      </trkpt>
      <trkpt lat="44.59294" lon="5.13765">
        <ele>416.2</ele>
      </trkpt>
      <trkpt lat="44.59299" lon="5.13776">
        <ele>416.8</ele>
      </trkpt>
      <trkpt lat="44.59313" lon="5.13772">
        <ele>417</ele>
      </trkpt>
      <trkpt lat="44.59345" lon="5.13761">
        <ele>417.5</ele>
      </trkpt>
      <trkpt lat="44.59354" lon="5.13761">
        <ele>417.8</ele>
      </trkpt>
      <trkpt lat="44.59415" lon="5.13787">
        <ele>419.8</ele>
      </trkpt>
      <trkpt lat="44.59469" lon="5.13802">
        <ele>423.8</ele>
      </trkpt>
      <trkpt lat="44.59484" lon="5.13807">
        <ele>424.9</ele>
      </trkpt>
      <trkpt lat="44.59519" lon="5.13814">
        <ele>427.6</ele>
      </trkpt>
      <trkpt lat="44.59575" lon="5.13816">
        <ele>432.3</ele>
      </trkpt>
      <trkpt lat="44.59593" lon="5.13825">
        <ele>433.6</ele>
      </trkpt>
      <trkpt lat="44.596" lon="5.13845">
        <ele>433.6</ele>
      </trkpt>
      <trkpt lat="44.59608" lon="5.13871">
        <ele>433.3</ele>
      </trkpt>
      <trkpt lat="44.59618" lon="5.13882">
        <ele>433.9</ele>
      </trkpt>
      <trkpt lat="44.59746" lon="5.1389">
        <ele>449.8</ele>
      </trkpt>
      <trkpt lat="44.59772" lon="5.13906">
        <ele>453.9</ele>
      </trkpt>
      <trkpt lat="44.59795" lon="5.13944">
        <ele>458.5</ele>
      </trkpt>
      <trkpt lat="44.59809" lon="5.13977">
        <ele>462.2</ele>
      </trkpt>
      <trkpt lat="44.59815" lon="5.14033">
        <ele>465.2</ele>
      </trkpt>
      <trkpt lat="44.59819" lon="5.14044">
        <ele>466.1</ele>
      </trkpt>
      <trkpt lat="44.59825" lon="5.14046">
        <ele>467.1</ele>
      </trkpt>
      <trkpt lat="44.5983" lon="5.14041">
        <ele>467.9</ele>
      </trkpt>
      <trkpt lat="44.59844" lon="5.14012">
        <ele>469.3</ele>
      </trkpt>
      <trkpt lat="44.59852" lon="5.1401">
        <ele>470.2</ele>
      </trkpt>
      <trkpt lat="44.59863" lon="5.14011">
        <ele>471.4</ele>
      </trkpt>
      <trkpt lat="44.59875" lon="5.13985">
        <ele>471.5</ele>
      </trkpt>
      <trkpt lat="44.59884" lon="5.13971">
        <ele>471.3</ele>
      </trkpt>
      <trkpt lat="44.59896" lon="5.13957">
        <ele>471.7</ele>
      </trkpt>
      <trkpt lat="44.59914" lon="5.13949">
        <ele>473.1</ele>
      </trkpt>
      <trkpt lat="44.59937" lon="5.13951">
        <ele>475.5</ele>
      </trkpt>
      <trkpt lat="44.59949" lon="5.13961">
        <ele>477.5</ele>
      </trkpt>
      <trkpt lat="44.59969" lon="5.13979">
        <ele>481</ele>
      </trkpt>
      <trkpt lat="44.60037" lon="5.14058">
        <ele>497.1</ele>
      </trkpt>
      <trkpt lat="44.60077" lon="5.14083">
        <ele>507.7</ele>
      </trkpt>
      <trkpt lat="44.60109" lon="5.14085">
        <ele>513.5</ele>
      </trkpt>
      <trkpt lat="44.60132" lon="5.14081">
        <ele>516.9</ele>
      </trkpt>
      <trkpt lat="44.60138" lon="5.14088">
        <ele>518.6</ele>
      </trkpt>
      <trkpt lat="44.60138" lon="5.14101">
        <ele>519.8</ele>
      </trkpt>
      <trkpt lat="44.60119" lon="5.14166">
        <ele>523.6</ele>
      </trkpt>
      <trkpt lat="44.60123" lon="5.1418">
        <ele>524.8</ele>
      </trkpt>
      <trkpt lat="44.60252" lon="5.14281">
        <ele>544.3</ele>
      </trkpt>
      <trkpt lat="44.6027" lon="5.14295">
        <ele>546.9</ele>
      </trkpt>
      <trkpt lat="44.60279" lon="5.14296">
        <ele>548</ele>
      </trkpt>
      <trkpt lat="44.60283" lon="5.14291">
        <ele>548.2</ele>
      </trkpt>
      <trkpt lat="44.60292" lon="5.14274">
        <ele>548.5</ele>
      </trkpt>
      <trkpt lat="44.60367" lon="5.14168">
        <ele>547.5</ele>
      </trkpt>
      <trkpt lat="44.60383" lon="5.14147">
        <ele>547.6</ele>
      </trkpt>
      <trkpt lat="44.604" lon="5.14128">
        <ele>547.7</ele>
      </trkpt>
      <trkpt lat="44.60417" lon="5.14116">
        <ele>548</ele>
      </trkpt>
      <trkpt lat="44.60436" lon="5.14107">
        <ele>548.4</ele>
      </trkpt>
      <trkpt lat="44.60462" lon="5.14099">
        <ele>548.9</ele>
      </trkpt>
      <trkpt lat="44.60485" lon="5.14093">
        <ele>549.4</ele>
      </trkpt>
      <trkpt lat="44.60508" lon="5.14084">
        <ele>550.3</ele>
      </trkpt>
      <trkpt lat="44.6057" lon="5.14061">
        <ele>557.5</ele>
      </trkpt>
      <trkpt lat="44.60583" lon="5.1405">
        <ele>558.3</ele>
      </trkpt>
      <trkpt lat="44.60607" lon="5.14016">
        <ele>559.6</ele>
      </trkpt>
      <trkpt lat="44.60618" lon="5.14003">
        <ele>560.6</ele>
      </trkpt>
      <trkpt lat="44.60626" lon="5.13985">
        <ele>561.2</ele>
      </trkpt>
      <trkpt lat="44.60629" lon="5.13978">
        <ele>561.4</ele>
      </trkpt>
      <trkpt lat="44.60633" lon="5.13977">
        <ele>562.1</ele>
      </trkpt>
      <trkpt lat="44.60634" lon="5.13988">
        <ele>563</ele>
      </trkpt>
      <trkpt lat="44.60632" lon="5.14006">
        <ele>563.8</ele>
      </trkpt>
      <trkpt lat="44.60633" lon="5.14016">
        <ele>564.9</ele>
      </trkpt>
      <trkpt lat="44.60637" lon="5.1402">
        <ele>565.9</ele>
      </trkpt>
      <trkpt lat="44.60641" lon="5.14018">
        <ele>566.6</ele>
      </trkpt>
      <trkpt lat="44.60654" lon="5.14003">
        <ele>568.5</ele>
      </trkpt>
      <trkpt lat="44.60658" lon="5.14003">
        <ele>569.3</ele>
      </trkpt>
      <trkpt lat="44.60661" lon="5.14005">
        <ele>570.1</ele>
      </trkpt>
      <trkpt lat="44.60665" lon="5.14023">
        <ele>571.7</ele>
      </trkpt>
      <trkpt lat="44.60668" lon="5.14035">
        <ele>573.1</ele>
      </trkpt>
      <trkpt lat="44.60675" lon="5.14044">
        <ele>575.2</ele>
      </trkpt>
      <trkpt lat="44.60694" lon="5.14055">
        <ele>580.4</ele>
      </trkpt>
      <trkpt lat="44.60705" lon="5.14063">
        <ele>583.4</ele>
      </trkpt>
      <trkpt lat="44.60728" lon="5.14065">
        <ele>588.7</ele>
      </trkpt>
      <trkpt lat="44.60736" lon="5.14069">
        <ele>590.5</ele>
      </trkpt>
      <trkpt lat="44.60746" lon="5.14074">
        <ele>592.7</ele>
      </trkpt>
      <trkpt lat="44.60759" lon="5.14083">
        <ele>595.4</ele>
      </trkpt>
      <trkpt lat="44.60767" lon="5.1409">
        <ele>597.8</ele>
      </trkpt>
      <trkpt lat="44.60777" lon="5.14101">
        <ele>600.7</ele>
      </trkpt>
      <trkpt lat="44.60782" lon="5.14102">
        <ele>602</ele>
      </trkpt>
      <trkpt lat="44.60785" lon="5.141">
        <ele>602.6</ele>
      </trkpt>
      <trkpt lat="44.60787" lon="5.14099">
        <ele>602.8</ele>
      </trkpt>
      <trkpt lat="44.60787" lon="5.14092">
        <ele>602.6</ele>
      </trkpt>
      <trkpt lat="44.60777" lon="5.14076">
        <ele>600.3</ele>
      </trkpt>
      <trkpt lat="44.60767" lon="5.14064">
        <ele>598.6</ele>
      </trkpt>
      <trkpt lat="44.60757" lon="5.14055">
        <ele>596.6</ele>
      </trkpt>
      <trkpt lat="44.60752" lon="5.14047">
        <ele>595.7</ele>
      </trkpt>
      <trkpt lat="44.60753" lon="5.14042">
        <ele>596.3</ele>
      </trkpt>
      <trkpt lat="44.60756" lon="5.1404">
        <ele>597.3</ele>
      </trkpt>
      <trkpt lat="44.60761" lon="5.14043">
        <ele>598.4</ele>
      </trkpt>
      <trkpt lat="44.60779" lon="5.14061">
        <ele>602.2</ele>
      </trkpt>
      <trkpt lat="44.60795" lon="5.14069">
        <ele>605.6</ele>
      </trkpt>
      <trkpt lat="44.60808" lon="5.14077">
        <ele>608.2</ele>
      </trkpt>
      <trkpt lat="44.60817" lon="5.14081">
        <ele>610.2</ele>
      </trkpt>
      <trkpt lat="44.60826" lon="5.1408">
        <ele>612.6</ele>
      </trkpt>
      <trkpt lat="44.60838" lon="5.14072">
        <ele>615.4</ele>
      </trkpt>
      <trkpt lat="44.6085" lon="5.14063">
        <ele>615.9</ele>
      </trkpt>
      <trkpt lat="44.60857" lon="5.1406">
        <ele>615.8</ele>
      </trkpt>
      <trkpt lat="44.60859" lon="5.14063">
        <ele>615.7</ele>
      </trkpt>
      <trkpt lat="44.60863" lon="5.14068">
        <ele>615.4</ele>
      </trkpt>
      <trkpt lat="44.60882" lon="5.14076">
        <ele>615.4</ele>
      </trkpt>
      <trkpt lat="44.60894" lon="5.14083">
        <ele>616.1</ele>
      </trkpt>
      <trkpt lat="44.60902" lon="5.1409">
        <ele>617.3</ele>
      </trkpt>
      <trkpt lat="44.60905" lon="5.14099">
        <ele>618.7</ele>
      </trkpt>
      <trkpt lat="44.60906" lon="5.14115">
        <ele>621</ele>
      </trkpt>
      <trkpt lat="44.60905" lon="5.14126">
        <ele>622.4</ele>
      </trkpt>
      <trkpt lat="44.60909" lon="5.14137">
        <ele>624.8</ele>
      </trkpt>
      <trkpt lat="44.60927" lon="5.14167">
        <ele>630.9</ele>
      </trkpt>
      <trkpt lat="44.60933" lon="5.14182">
        <ele>632.5</ele>
      </trkpt>
      <trkpt lat="44.60957" lon="5.14199">
        <ele>634.5</ele>
      </trkpt>
      <trkpt lat="44.60967" lon="5.14208">
        <ele>635.8</ele>
      </trkpt>
      <trkpt lat="44.60969" lon="5.14223">
        <ele>637.9</ele>
      </trkpt>
      <trkpt lat="44.60968" lon="5.14258">
        <ele>642.7</ele>
      </trkpt>
      <trkpt lat="44.60965" lon="5.14282">
        <ele>646.2</ele>
      </trkpt>
      <trkpt lat="44.60965" lon="5.14311">
        <ele>650.5</ele>
      </trkpt>
      <trkpt lat="44.60967" lon="5.14335">
        <ele>654.4</ele>
      </trkpt>
      <trkpt lat="44.60961" lon="5.14354">
        <ele>657.6</ele>
      </trkpt>
      <trkpt lat="44.60956" lon="5.14366">
        <ele>659.3</ele>
      </trkpt>
      <trkpt lat="44.60957" lon="5.14373">
        <ele>660.8</ele>
      </trkpt>
      <trkpt lat="44.60965" lon="5.1438">
        <ele>663.7</ele>
      </trkpt>
      <trkpt lat="44.60969" lon="5.14386">
        <ele>665.9</ele>
      </trkpt>
      <trkpt lat="44.60971" lon="5.14397">
        <ele>668.7</ele>
      </trkpt>
      <trkpt lat="44.60982" lon="5.14435">
        <ele>680.3</ele>
      </trkpt>
      <trkpt lat="44.60987" lon="5.14451">
        <ele>685.6</ele>
      </trkpt>
      <trkpt lat="44.60988" lon="5.14456">
        <ele>687.3</ele>
      </trkpt>
      <trkpt lat="44.6101" lon="5.14479">
        <ele>700.3</ele>
      </trkpt>
      <trkpt lat="44.61018" lon="5.14491">
        <ele>706</ele>
      </trkpt>
      <trkpt lat="44.6102" lon="5.14509">
        <ele>711.5</ele>
      </trkpt>
      <trkpt lat="44.61014" lon="5.14581">
        <ele>723.9</ele>
      </trkpt>
      <trkpt lat="44.61017" lon="5.14599">
        <ele>726.8</ele>
      </trkpt>
      <trkpt lat="44.6102" lon="5.14611">
        <ele>729.4</ele>
      </trkpt>
      <trkpt lat="44.61025" lon="5.14618">
        <ele>732</ele>
      </trkpt>
      <trkpt lat="44.61032" lon="5.1462">
        <ele>734.7</ele>
      </trkpt>
      <trkpt lat="44.61069" lon="5.14588">
        <ele>745.2</ele>
      </trkpt>
      <trkpt lat="44.61079" lon="5.14579">
        <ele>747.5</ele>
      </trkpt>
      <trkpt lat="44.61086" lon="5.14579">
        <ele>749.5</ele>
      </trkpt>
      <trkpt lat="44.61089" lon="5.14586">
        <ele>751.5</ele>
      </trkpt>
      <trkpt lat="44.61087" lon="5.14617">
        <ele>754.3</ele>
      </trkpt>
      <trkpt lat="44.6109" lon="5.1463">
        <ele>756.5</ele>
      </trkpt>
      <trkpt lat="44.61097" lon="5.14641">
        <ele>759.4</ele>
      </trkpt>
      <trkpt lat="44.61103" lon="5.14652">
        <ele>762.3</ele>
      </trkpt>
      <trkpt lat="44.61111" lon="5.14673">
        <ele>766.4</ele>
      </trkpt>
      <trkpt lat="44.61119" lon="5.14695">
        <ele>770.1</ele>
      </trkpt>
      <trkpt lat="44.61121" lon="5.14704">
        <ele>771.4</ele>
      </trkpt>
      <trkpt lat="44.61122" lon="5.14714">
        <ele>772.5</ele>
      </trkpt>
      <trkpt lat="44.61121" lon="5.14732">
        <ele>773.6</ele>
      </trkpt>
      <trkpt lat="44.61124" lon="5.14751">
        <ele>775.9</ele>
      </trkpt>
      <trkpt lat="44.61134" lon="5.14798">
        <ele>785.3</ele>
      </trkpt>
      <trkpt lat="44.61138" lon="5.14843">
        <ele>792</ele>
      </trkpt>
      <trkpt lat="44.61139" lon="5.14857">
        <ele>792.4</ele>
      </trkpt>
      <trkpt lat="44.61137" lon="5.1487">
        <ele>792.3</ele>
      </trkpt>
      <trkpt lat="44.61138" lon="5.14878">
        <ele>792.6</ele>
      </trkpt>
      <trkpt lat="44.6114" lon="5.14885">
        <ele>793.3</ele>
      </trkpt>
      <trkpt lat="44.61145" lon="5.14889">
        <ele>794.4</ele>
      </trkpt>
      <trkpt lat="44.6115" lon="5.1489">
        <ele>795.6</ele>
      </trkpt>
      <trkpt lat="44.61157" lon="5.14889">
        <ele>797.2</ele>
      </trkpt>
      <trkpt lat="44.61162" lon="5.14888">
        <ele>798.3</ele>
      </trkpt>
      <trkpt lat="44.61182" lon="5.14873">
        <ele>802.8</ele>
      </trkpt>
      <trkpt lat="44.6119" lon="5.14869">
        <ele>804.8</ele>
      </trkpt>
      <trkpt lat="44.61201" lon="5.14867">
        <ele>807.1</ele>
      </trkpt>
      <trkpt lat="44.61212" lon="5.14867">
        <ele>809.6</ele>
      </trkpt>
      <trkpt lat="44.61223" lon="5.14868">
        <ele>812.1</ele>
      </trkpt>
      <trkpt lat="44.61233" lon="5.14872">
        <ele>814.2</ele>
      </trkpt>
      <trkpt lat="44.61242" lon="5.14878">
        <ele>816.1</ele>
      </trkpt>
      <trkpt lat="44.61245" lon="5.14882">
        <ele>816.8</ele>
      </trkpt>
      <trkpt lat="44.61248" lon="5.14889">
        <ele>817.1</ele>
      </trkpt>
      <trkpt lat="44.61249" lon="5.14902">
        <ele>817.1</ele>
      </trkpt>
      <trkpt lat="44.61251" lon="5.1491">
        <ele>817.3</ele>
      </trkpt>
      <trkpt lat="44.61266" lon="5.14933">
        <ele>813.7</ele>
      </trkpt>
      <trkpt lat="44.61292" lon="5.1494">
        <ele>816</ele>
      </trkpt>
      <trkpt lat="44.61298" lon="5.1494">
        <ele>817</ele>
      </trkpt>
      <trkpt lat="44.6131" lon="5.14943">
        <ele>817.9</ele>
      </trkpt>
      <trkpt lat="44.61317" lon="5.14946">
        <ele>818.1</ele>
      </trkpt>
      <trkpt lat="44.61324" lon="5.14946">
        <ele>819.3</ele>
      </trkpt>
      <trkpt lat="44.61334" lon="5.14948">
        <ele>820.5</ele>
      </trkpt>
      <trkpt lat="44.61341" lon="5.14951">
        <ele>820.2</ele>
      </trkpt>
      <trkpt lat="44.61355" lon="5.14958">
        <ele>819.7</ele>
      </trkpt>
      <trkpt lat="44.61364" lon="5.14962">
        <ele>819.8</ele>
      </trkpt>
      <trkpt lat="44.61374" lon="5.14963">
        <ele>820.9</ele>
      </trkpt>
      <trkpt lat="44.61382" lon="5.14964">
        <ele>822.1</ele>
      </trkpt>
      <trkpt lat="44.61392" lon="5.14968">
        <ele>822.1</ele>
      </trkpt>
      <trkpt lat="44.61421" lon="5.14981">
        <ele>821.8</ele>
      </trkpt>
      <trkpt lat="44.6143" lon="5.14986">
        <ele>821.6</ele>
      </trkpt>
      <trkpt lat="44.61436" lon="5.14987">
        <ele>822.1</ele>
      </trkpt>
      <trkpt lat="44.6145" lon="5.14988">
        <ele>824.3</ele>
      </trkpt>
      <trkpt lat="44.61465" lon="5.14988">
        <ele>826.8</ele>
      </trkpt>
      <trkpt lat="44.61477" lon="5.14988">
        <ele>828.8</ele>
      </trkpt>
      <trkpt lat="44.61484" lon="5.14989">
        <ele>829.6</ele>
      </trkpt>
      <trkpt lat="44.61495" lon="5.14993">
        <ele>830.3</ele>
      </trkpt>
      <trkpt lat="44.61508" lon="5.14995">
        <ele>830.9</ele>
      </trkpt>
      <trkpt lat="44.6152" lon="5.14996">
        <ele>831.7</ele>
      </trkpt>
      <trkpt lat="44.61547" lon="5.15">
        <ele>833</ele>
      </trkpt>
      <trkpt lat="44.61562" lon="5.15">
        <ele>834.3</ele>
      </trkpt>
      <trkpt lat="44.61568" lon="5.15">
        <ele>834.8</ele>
      </trkpt>
      <trkpt lat="44.61581" lon="5.15003">
        <ele>835.6</ele>
      </trkpt>
      <trkpt lat="44.61591" lon="5.15007">
        <ele>836.2</ele>
      </trkpt>
      <trkpt lat="44.61601" lon="5.15013">
        <ele>837</ele>
      </trkpt>
      <trkpt lat="44.61605" lon="5.15018">
        <ele>837.3</ele>
      </trkpt>
      <trkpt lat="44.61611" lon="5.1503">
        <ele>837.6</ele>
      </trkpt>
      <trkpt lat="44.61615" lon="5.15048">
        <ele>837.8</ele>
      </trkpt>
      <trkpt lat="44.61622" lon="5.15067">
        <ele>838.5</ele>
      </trkpt>
      <trkpt lat="44.61632" lon="5.15099">
        <ele>839.4</ele>
      </trkpt>
      <trkpt lat="44.61637" lon="5.15114">
        <ele>839.4</ele>
      </trkpt>
      <trkpt lat="44.61639" lon="5.15125">
        <ele>839.2</ele>
      </trkpt>
      <trkpt lat="44.61646" lon="5.1514">
        <ele>839.6</ele>
      </trkpt>
      <trkpt lat="44.61652" lon="5.1515">
        <ele>840.2</ele>
      </trkpt>
      <trkpt lat="44.61659" lon="5.15157">
        <ele>841</ele>
      </trkpt>
      <trkpt lat="44.6167" lon="5.15166">
        <ele>842.5</ele>
      </trkpt>
      <trkpt lat="44.61678" lon="5.15174">
        <ele>842.1</ele>
      </trkpt>
      <trkpt lat="44.61682" lon="5.15182">
        <ele>840.8</ele>
      </trkpt>
      <trkpt lat="44.61685" lon="5.15191">
        <ele>839.1</ele>
      </trkpt>
      <trkpt lat="44.61692" lon="5.15205">
        <ele>837.2</ele>
      </trkpt>
      <trkpt lat="44.61703" lon="5.15219">
        <ele>836.2</ele>
      </trkpt>
      <trkpt lat="44.61713" lon="5.15229">
        <ele>835.9</ele>
      </trkpt>
      <trkpt lat="44.61723" lon="5.15239">
        <ele>835.8</ele>
      </trkpt>
      <trkpt lat="44.61732" lon="5.15249">
        <ele>835.7</ele>
      </trkpt>
      <trkpt lat="44.61748" lon="5.1526">
        <ele>835.5</ele>
      </trkpt>
      <trkpt lat="44.61755" lon="5.15264">
        <ele>835.5</ele>
      </trkpt>
      <trkpt lat="44.6177" lon="5.15277">
        <ele>834.4</ele>
      </trkpt>
      <trkpt lat="44.6178" lon="5.15287">
        <ele>833.3</ele>
      </trkpt>
      <trkpt lat="44.6179" lon="5.15294">
        <ele>833.2</ele>
      </trkpt>
      <trkpt lat="44.61816" lon="5.15318">
        <ele>831.8</ele>
      </trkpt>
      <trkpt lat="44.6183" lon="5.15331">
        <ele>831.1</ele>
      </trkpt>
      <trkpt lat="44.61838" lon="5.15341">
        <ele>831.9</ele>
      </trkpt>
      <trkpt lat="44.61842" lon="5.15348">
        <ele>832.9</ele>
      </trkpt>
      <trkpt lat="44.61849" lon="5.15356">
        <ele>834.4</ele>
      </trkpt>
      <trkpt lat="44.6186" lon="5.15359">
        <ele>837.5</ele>
      </trkpt>
      <trkpt lat="44.61867" lon="5.15366">
        <ele>839</ele>
      </trkpt>
      <trkpt lat="44.61872" lon="5.15368">
        <ele>840.3</ele>
      </trkpt>
      <trkpt lat="44.61876" lon="5.15374">
        <ele>840.9</ele>
      </trkpt>
      <trkpt lat="44.61879" lon="5.15381">
        <ele>841.1</ele>
      </trkpt>
      <trkpt lat="44.61879" lon="5.15389">
        <ele>840.6</ele>
      </trkpt>
      <trkpt lat="44.61878" lon="5.15401">
        <ele>839.3</ele>
      </trkpt>
      <trkpt lat="44.61873" lon="5.15413">
        <ele>837.3</ele>
      </trkpt>
      <trkpt lat="44.61876" lon="5.15429">
        <ele>838.7</ele>
      </trkpt>
      <trkpt lat="44.61883" lon="5.15448">
        <ele>842</ele>
      </trkpt>
      <trkpt lat="44.61894" lon="5.15466">
        <ele>845.7</ele>
      </trkpt>
      <trkpt lat="44.61908" lon="5.15489">
        <ele>849.8</ele>
      </trkpt>
      <trkpt lat="44.61918" lon="5.15508">
        <ele>852</ele>
      </trkpt>
      <trkpt lat="44.61925" lon="5.15516">
        <ele>852.6</ele>
      </trkpt>
      <trkpt lat="44.61947" lon="5.15552">
        <ele>850.1</ele>
      </trkpt>
      <trkpt lat="44.61948" lon="5.15555">
        <ele>849.7</ele>
      </trkpt>
      <trkpt lat="44.61951" lon="5.15557">
        <ele>849.3</ele>
      </trkpt>
      <trkpt lat="44.61961" lon="5.15557">
        <ele>849.4</ele>
      </trkpt>
      <trkpt lat="44.6197" lon="5.15556">
        <ele>849.7</ele>
      </trkpt>
      <trkpt lat="44.61982" lon="5.15555">
        <ele>850.1</ele>
      </trkpt>
      <trkpt lat="44.61992" lon="5.15554">
        <ele>850.6</ele>
      </trkpt>
      <trkpt lat="44.62002" lon="5.15554">
        <ele>850.7</ele>
      </trkpt>
      <trkpt lat="44.62016" lon="5.15551">
        <ele>852.3</ele>
      </trkpt>
      <trkpt lat="44.62035" lon="5.15546">
        <ele>854.6</ele>
      </trkpt>
      <trkpt lat="44.62048" lon="5.15544">
        <ele>856.3</ele>
      </trkpt>
      <trkpt lat="44.62059" lon="5.15544">
        <ele>856.7</ele>
      </trkpt>
      <trkpt lat="44.6207" lon="5.15543">
        <ele>857.9</ele>
      </trkpt>
      <trkpt lat="44.62081" lon="5.15543">
        <ele>858.2</ele>
      </trkpt>
      <trkpt lat="44.62092" lon="5.15544">
        <ele>858.5</ele>
      </trkpt>
      <trkpt lat="44.62107" lon="5.15543">
        <ele>860.5</ele>
      </trkpt>
      <trkpt lat="44.62113" lon="5.15545">
        <ele>860.4</ele>
      </trkpt>
      <trkpt lat="44.62119" lon="5.15548">
        <ele>859</ele>
      </trkpt>
      <trkpt lat="44.62124" lon="5.15549">
        <ele>859.1</ele>
      </trkpt>
      <trkpt lat="44.62146" lon="5.15552">
        <ele>859</ele>
      </trkpt>
      <trkpt lat="44.62152" lon="5.15553">
        <ele>859.1</ele>
      </trkpt>
      <trkpt lat="44.62159" lon="5.15556">
        <ele>858.2</ele>
      </trkpt>
      <trkpt lat="44.62164" lon="5.15557">
        <ele>857.8</ele>
      </trkpt>
      <trkpt lat="44.6217" lon="5.15557">
        <ele>857.8</ele>
      </trkpt>
      <trkpt lat="44.62178" lon="5.15561">
        <ele>855.4</ele>
      </trkpt>
      <trkpt lat="44.62182" lon="5.1556">
        <ele>855.4</ele>
      </trkpt>
      <trkpt lat="44.62187" lon="5.15559">
        <ele>855.9</ele>
      </trkpt>
      <trkpt lat="44.62192" lon="5.1556">
        <ele>855.3</ele>
      </trkpt>
      <trkpt lat="44.62197" lon="5.15561">
        <ele>854.4</ele>
      </trkpt>
      <trkpt lat="44.6221" lon="5.15559">
        <ele>855</ele>
      </trkpt>
      <trkpt lat="44.62218" lon="5.15554">
        <ele>857.5</ele>
      </trkpt>
      <trkpt lat="44.62225" lon="5.15555">
        <ele>856.6</ele>
      </trkpt>
      <trkpt lat="44.62232" lon="5.15555">
        <ele>856.3</ele>
      </trkpt>
      <trkpt lat="44.62251" lon="5.15553">
        <ele>856.9</ele>
      </trkpt>
      <trkpt lat="44.62261" lon="5.15554">
        <ele>856.8</ele>
      </trkpt>
      <trkpt lat="44.62295" lon="5.15555">
        <ele>858.3</ele>
      </trkpt>
      <trkpt lat="44.62309" lon="5.15558">
        <ele>857.7</ele>
      </trkpt>
      <trkpt lat="44.62319" lon="5.15558">
        <ele>858.3</ele>
      </trkpt>
      <trkpt lat="44.6233" lon="5.15561">
        <ele>857.1</ele>
      </trkpt>
      <trkpt lat="44.62339" lon="5.15563">
        <ele>857.1</ele>
      </trkpt>
      <trkpt lat="44.62363" lon="5.15571">
        <ele>857</ele>
      </trkpt>
      <trkpt lat="44.62383" lon="5.15577">
        <ele>856.9</ele>
      </trkpt>
      <trkpt lat="44.62395" lon="5.15581">
        <ele>856.9</ele>
      </trkpt>
      <trkpt lat="44.62397" lon="5.15583">
        <ele>856</ele>
      </trkpt>
      <trkpt lat="44.62409" lon="5.15585">
        <ele>857.1</ele>
      </trkpt>
      <trkpt lat="44.62417" lon="5.15587">
        <ele>857.4</ele>
      </trkpt>
      <trkpt lat="44.62421" lon="5.1559">
        <ele>856.2</ele>
      </trkpt>
      <trkpt lat="44.62435" lon="5.15598">
        <ele>854</ele>
      </trkpt>
      <trkpt lat="44.62445" lon="5.15601">
        <ele>853.9</ele>
      </trkpt>
      <trkpt lat="44.62458" lon="5.15606">
        <ele>853.2</ele>
      </trkpt>
      <trkpt lat="44.62476" lon="5.15613">
        <ele>852.6</ele>
      </trkpt>
      <trkpt lat="44.62492" lon="5.15618">
        <ele>852.4</ele>
      </trkpt>
      <trkpt lat="44.625" lon="5.15621">
        <ele>852.4</ele>
      </trkpt>
      <trkpt lat="44.62511" lon="5.15623">
        <ele>852.8</ele>
      </trkpt>
      <trkpt lat="44.6253" lon="5.15627">
        <ele>853.4</ele>
      </trkpt>
      <trkpt lat="44.62563" lon="5.15641">
        <ele>850.8</ele>
      </trkpt>
      <trkpt lat="44.62583" lon="5.15651">
        <ele>849</ele>
      </trkpt>
      <trkpt lat="44.62591" lon="5.15656">
        <ele>848.3</ele>
      </trkpt>
      <trkpt lat="44.62609" lon="5.15664">
        <ele>848.5</ele>
      </trkpt>
      <trkpt lat="44.62615" lon="5.15668">
        <ele>848.2</ele>
      </trkpt>
      <trkpt lat="44.62622" lon="5.15669">
        <ele>849.2</ele>
      </trkpt>
      <trkpt lat="44.62631" lon="5.15676">
        <ele>848.7</ele>
      </trkpt>
      <trkpt lat="44.62638" lon="5.15675">
        <ele>850.4</ele>
      </trkpt>
      <trkpt lat="44.62651" lon="5.15687">
        <ele>848.8</ele>
      </trkpt>
      <trkpt lat="44.62658" lon="5.15698">
        <ele>846.6</ele>
      </trkpt>
      <trkpt lat="44.62666" lon="5.15709">
        <ele>844.7</ele>
      </trkpt>
      <trkpt lat="44.62673" lon="5.15719">
        <ele>843</ele>
      </trkpt>
      <trkpt lat="44.62678" lon="5.15724">
        <ele>843.1</ele>
      </trkpt>
      <trkpt lat="44.62688" lon="5.15735">
        <ele>842.4</ele>
      </trkpt>
      <trkpt lat="44.62699" lon="5.1575">
        <ele>841.3</ele>
      </trkpt>
      <trkpt lat="44.62708" lon="5.15762">
        <ele>841.9</ele>
      </trkpt>
      <trkpt lat="44.62713" lon="5.15773">
        <ele>841.2</ele>
      </trkpt>
      <trkpt lat="44.62721" lon="5.15798">
        <ele>838.5</ele>
      </trkpt>
      <trkpt lat="44.62724" lon="5.15812">
        <ele>836.7</ele>
      </trkpt>
      <trkpt lat="44.62729" lon="5.15821">
        <ele>836.4</ele>
      </trkpt>
      <trkpt lat="44.6274" lon="5.15836">
        <ele>837.4</ele>
      </trkpt>
      <trkpt lat="44.62747" lon="5.15846">
        <ele>838.6</ele>
      </trkpt>
      <trkpt lat="44.62753" lon="5.15849">
        <ele>839.5</ele>
      </trkpt>
      <trkpt lat="44.62759" lon="5.15851">
        <ele>839.9</ele>
      </trkpt>
      <trkpt lat="44.62765" lon="5.1585">
        <ele>840.5</ele>
      </trkpt>
      <trkpt lat="44.62771" lon="5.15847">
        <ele>841.6</ele>
      </trkpt>
      <trkpt lat="44.62777" lon="5.15845">
        <ele>842.6</ele>
      </trkpt>
      <trkpt lat="44.62808" lon="5.15837">
        <ele>846.5</ele>
      </trkpt>
      <trkpt lat="44.62817" lon="5.15839">
        <ele>847.1</ele>
      </trkpt>
      <trkpt lat="44.62836" lon="5.1585">
        <ele>847.7</ele>
      </trkpt>
      <trkpt lat="44.62848" lon="5.15861">
        <ele>847.5</ele>
      </trkpt>
      <trkpt lat="44.62859" lon="5.15869">
        <ele>848</ele>
      </trkpt>
      <trkpt lat="44.62866" lon="5.15859">
        <ele>848.5</ele>
      </trkpt>
      <trkpt lat="44.6287" lon="5.1586">
        <ele>848.7</ele>
      </trkpt>
      <trkpt lat="44.62869" lon="5.15869">
        <ele>848.7</ele>
      </trkpt>
      <trkpt lat="44.62871" lon="5.15876">
        <ele>848.9</ele>
      </trkpt>
      <trkpt lat="44.62877" lon="5.15881">
        <ele>849.5</ele>
      </trkpt>
      <trkpt lat="44.62885" lon="5.15883">
        <ele>850.4</ele>
      </trkpt>
      <trkpt lat="44.62894" lon="5.15884">
        <ele>851.5</ele>
      </trkpt>
      <trkpt lat="44.62901" lon="5.15888">
        <ele>852.7</ele>
      </trkpt>
      <trkpt lat="44.62913" lon="5.15897">
        <ele>855.1</ele>
      </trkpt>
      <trkpt lat="44.62922" lon="5.15906">
        <ele>855.8</ele>
      </trkpt>
      <trkpt lat="44.62927" lon="5.15913">
        <ele>855.7</ele>
      </trkpt>
      <trkpt lat="44.62936" lon="5.15927">
        <ele>855.4</ele>
      </trkpt>
      <trkpt lat="44.62951" lon="5.15957">
        <ele>855.9</ele>
      </trkpt>
      <trkpt lat="44.62959" lon="5.15974">
        <ele>856.7</ele>
      </trkpt>
      <trkpt lat="44.62966" lon="5.15995">
        <ele>858.1</ele>
      </trkpt>
      <trkpt lat="44.62981" lon="5.16051">
        <ele>864.9</ele>
      </trkpt>
      <trkpt lat="44.62994" lon="5.16072">
        <ele>868.7</ele>
      </trkpt>
      <trkpt lat="44.63011" lon="5.16085">
        <ele>870.8</ele>
      </trkpt>
      <trkpt lat="44.63034" lon="5.16099">
        <ele>872.9</ele>
      </trkpt>
      <trkpt lat="44.63044" lon="5.16107">
        <ele>873.7</ele>
      </trkpt>
      <trkpt lat="44.63053" lon="5.16109">
        <ele>873.4</ele>
      </trkpt>
      <trkpt lat="44.6307" lon="5.1611">
        <ele>872.2</ele>
      </trkpt>
      <trkpt lat="44.6308" lon="5.16113">
        <ele>871.9</ele>
      </trkpt>
      <trkpt lat="44.63086" lon="5.16117">
        <ele>872.3</ele>
      </trkpt>
      <trkpt lat="44.63105" lon="5.16136">
        <ele>875</ele>
      </trkpt>
      <trkpt lat="44.63114" lon="5.1614">
        <ele>875.3</ele>
      </trkpt>
      <trkpt lat="44.63126" lon="5.16143">
        <ele>875.4</ele>
      </trkpt>
      <trkpt lat="44.63141" lon="5.16151">
        <ele>876.4</ele>
      </trkpt>
      <trkpt lat="44.63148" lon="5.16153">
        <ele>876.5</ele>
      </trkpt>
      <trkpt lat="44.63171" lon="5.16152">
        <ele>876.4</ele>
      </trkpt>
      <trkpt lat="44.63195" lon="5.16157">
        <ele>881.8</ele>
      </trkpt>
      <trkpt lat="44.63207" lon="5.16157">
        <ele>884.2</ele>
      </trkpt>
      <trkpt lat="44.63221" lon="5.16156">
        <ele>886.2</ele>
      </trkpt>
      <trkpt lat="44.63234" lon="5.16157">
        <ele>888.8</ele>
      </trkpt>
      <trkpt lat="44.63242" lon="5.16154">
        <ele>889.5</ele>
      </trkpt>
      <trkpt lat="44.63252" lon="5.16151">
        <ele>890.4</ele>
      </trkpt>
      <trkpt lat="44.63257" lon="5.16152">
        <ele>892</ele>
      </trkpt>
      <trkpt lat="44.63261" lon="5.16147">
        <ele>891.7</ele>
      </trkpt>
      <trkpt lat="44.63276" lon="5.16143">
        <ele>894</ele>
      </trkpt>
      <trkpt lat="44.63287" lon="5.16137">
        <ele>895</ele>
      </trkpt>
      <trkpt lat="44.63294" lon="5.16135">
        <ele>896.3</ele>
      </trkpt>
      <trkpt lat="44.63309" lon="5.16137">
        <ele>900.7</ele>
      </trkpt>
      <trkpt lat="44.63321" lon="5.16141">
        <ele>905.1</ele>
      </trkpt>
      <trkpt lat="44.63331" lon="5.16137">
        <ele>906.7</ele>
      </trkpt>
      <trkpt lat="44.63344" lon="5.16127">
        <ele>908</ele>
      </trkpt>
      <trkpt lat="44.63365" lon="5.1611">
        <ele>910.8</ele>
      </trkpt>
      <trkpt lat="44.63383" lon="5.1611">
        <ele>918</ele>
      </trkpt>
      <trkpt lat="44.63406" lon="5.16088">
        <ele>919.3</ele>
      </trkpt>
      <trkpt lat="44.63421" lon="5.16071">
        <ele>919.5</ele>
      </trkpt>
      <trkpt lat="44.63449" lon="5.16073">
        <ele>931.9</ele>
      </trkpt>
      <trkpt lat="44.63461" lon="5.16072">
        <ele>936.8</ele>
      </trkpt>
      <trkpt lat="44.63467" lon="5.16069">
        <ele>938.4</ele>
      </trkpt>
      <trkpt lat="44.63468" lon="5.16063">
        <ele>937.6</ele>
      </trkpt>
      <trkpt lat="44.63468" lon="5.16057">
        <ele>935.5</ele>
      </trkpt>
      <trkpt lat="44.63469" lon="5.16038">
        <ele>931.7</ele>
      </trkpt>
      <trkpt lat="44.63473" lon="5.16032">
        <ele>932.2</ele>
      </trkpt>
      <trkpt lat="44.63484" lon="5.16022">
        <ele>935.6</ele>
      </trkpt>
      <trkpt lat="44.63492" lon="5.16028">
        <ele>941.2</ele>
      </trkpt>
      <trkpt lat="44.635" lon="5.16028">
        <ele>945</ele>
      </trkpt>
      <trkpt lat="44.63498" lon="5.16047">
        <ele>947.4</ele>
      </trkpt>
      <trkpt lat="44.63501" lon="5.16053">
        <ele>950.3</ele>
      </trkpt>
      <trkpt lat="44.63508" lon="5.16042">
        <ele>952.6</ele>
      </trkpt>
      <trkpt lat="44.63512" lon="5.16041">
        <ele>955.2</ele>
      </trkpt>
      <trkpt lat="44.63509" lon="5.1606">
        <ele>956.7</ele>
      </trkpt>
      <trkpt lat="44.63515" lon="5.16054">
        <ele>959.8</ele>
      </trkpt>
      <trkpt lat="44.6352" lon="5.16055">
        <ele>963</ele>
      </trkpt>
      <trkpt lat="44.6352" lon="5.16069">
        <ele>965.1</ele>
      </trkpt>
      <trkpt lat="44.63518" lon="5.16076">
        <ele>965.4</ele>
      </trkpt>
      <trkpt lat="44.63518" lon="5.16095">
        <ele>971.3</ele>
      </trkpt>
      <trkpt lat="44.6353" lon="5.16088">
        <ele>976</ele>
      </trkpt>
      <trkpt lat="44.63534" lon="5.16084">
        <ele>977.5</ele>
      </trkpt>
      <trkpt lat="44.63549" lon="5.16059">
        <ele>982.9</ele>
      </trkpt>
      <trkpt lat="44.63564" lon="5.16048">
        <ele>990.5</ele>
      </trkpt>
      <trkpt lat="44.63565" lon="5.16056">
        <ele>992.6</ele>
      </trkpt>
      <trkpt lat="44.63564" lon="5.16074">
        <ele>994.8</ele>
      </trkpt>
      <trkpt lat="44.63565" lon="5.16081">
        <ele>996.9</ele>
      </trkpt>
      <trkpt lat="44.63571" lon="5.16085">
        <ele>1001.4</ele>
      </trkpt>
      <trkpt lat="44.63567" lon="5.16099">
        <ele>1002</ele>
      </trkpt>
      <trkpt lat="44.6357" lon="5.16106">
        <ele>1005.9</ele>
      </trkpt>
      <trkpt lat="44.63579" lon="5.16103">
        <ele>1010.8</ele>
      </trkpt>
      <trkpt lat="44.63578" lon="5.16131">
        <ele>1016.6</ele>
      </trkpt>
      <trkpt lat="44.6358" lon="5.16137">
        <ele>1018.9</ele>
      </trkpt>
      <trkpt lat="44.63585" lon="5.16135">
        <ele>1021.1</ele>
      </trkpt>
      <trkpt lat="44.63588" lon="5.1613">
        <ele>1021.3</ele>
      </trkpt>
      <trkpt lat="44.63596" lon="5.16114">
        <ele>1021.6</ele>
      </trkpt>
      <trkpt lat="44.63599" lon="5.16112">
        <ele>1022.7</ele>
      </trkpt>
      <trkpt lat="44.63606" lon="5.16103">
        <ele>1024.3</ele>
      </trkpt>
      <trkpt lat="44.6361" lon="5.16102">
        <ele>1025.9</ele>
      </trkpt>
      <trkpt lat="44.63613" lon="5.16114">
        <ele>1029.8</ele>
      </trkpt>
      <trkpt lat="44.63622" lon="5.1611">
        <ele>1033.4</ele>
      </trkpt>
      <trkpt lat="44.63627" lon="5.16102">
        <ele>1034.2</ele>
      </trkpt>
      <trkpt lat="44.6363" lon="5.16095">
        <ele>1034.4</ele>
      </trkpt>
      <trkpt lat="44.63636" lon="5.16105">
        <ele>1039.2</ele>
      </trkpt>
      <trkpt lat="44.63643" lon="5.16099">
        <ele>1041.7</ele>
      </trkpt>
      <trkpt lat="44.63648" lon="5.16105">
        <ele>1045.1</ele>
      </trkpt>
      <trkpt lat="44.63652" lon="5.16112">
        <ele>1047.8</ele>
      </trkpt>
      <trkpt lat="44.63661" lon="5.16118">
        <ele>1053.1</ele>
      </trkpt>
      <trkpt lat="44.63664" lon="5.16133">
        <ele>1056.7</ele>
      </trkpt>
      <trkpt lat="44.63674" lon="5.16155">
        <ele>1059.5</ele>
      </trkpt>
      <trkpt lat="44.63697" lon="5.16228">
        <ele>1066.2</ele>
      </trkpt>
      <trkpt lat="44.63713" lon="5.1629">
        <ele>1076.5</ele>
      </trkpt>
      <trkpt lat="44.63756" lon="5.16348">
        <ele>1082.4</ele>
      </trkpt>
      <trkpt lat="44.63797" lon="5.16379">
        <ele>1082.1</ele>
      </trkpt>
      <trkpt lat="44.63812" lon="5.16438">
        <ele>1092.8</ele>
      </trkpt>
      <trkpt lat="44.63816" lon="5.16522">
        <ele>1105.2</ele>
      </trkpt>
      <trkpt lat="44.63826" lon="5.1658">
        <ele>1109.3</ele>
      </trkpt>
      <trkpt lat="44.63849" lon="5.16639">
        <ele>1115</ele>
      </trkpt>
      <trkpt lat="44.63868" lon="5.16657">
        <ele>1114.6</ele>
      </trkpt>
      <trkpt lat="44.63917" lon="5.16704">
        <ele>1113.8</ele>
      </trkpt>
      <trkpt lat="44.63945" lon="5.16775">
        <ele>1118</ele>
      </trkpt>
      <trkpt lat="44.63949" lon="5.16992">
        <ele>1135.9</ele>
      </trkpt>
      <trkpt lat="44.63954" lon="5.17066">
        <ele>1145.4</ele>
      </trkpt>
      <trkpt lat="44.63986" lon="5.17111">
        <ele>1137.9</ele>
      </trkpt>
      <trkpt lat="44.64012" lon="5.17165">
        <ele>1138.5</ele>
      </trkpt>
      <trkpt lat="44.64033" lon="5.17222">
        <ele>1131.4</ele>
      </trkpt>
      <trkpt lat="44.64027" lon="5.17266">
        <ele>1136</ele>
      </trkpt>
      <trkpt lat="44.63997" lon="5.17312">
        <ele>1149.2</ele>
      </trkpt>
      <trkpt lat="44.63976" lon="5.17415">
        <ele>1145.8</ele>
      </trkpt>
      <trkpt lat="44.63911" lon="5.17542">
        <ele>1149.4</ele>
      </trkpt>
      <trkpt lat="44.63833" lon="5.17627">
        <ele>1155.5</ele>
      </trkpt>
      <trkpt lat="44.63711" lon="5.17705">
        <ele>1169.5</ele>
      </trkpt>
      <trkpt lat="44.63644" lon="5.17768">
        <ele>1169.7</ele>
      </trkpt>
      <trkpt lat="44.63578" lon="5.17794">
        <ele>1179.2</ele>
      </trkpt>
      <trkpt lat="44.63556" lon="5.1782">
        <ele>1181.1</ele>
      </trkpt>
      <trkpt lat="44.63553" lon="5.17832">
        <ele>1179.8</ele>
      </trkpt>
      <trkpt lat="44.63555" lon="5.17839">
        <ele>1179.7</ele>
      </trkpt>
      <trkpt lat="44.63559" lon="5.17844">
        <ele>1179.3</ele>
      </trkpt>
      <trkpt lat="44.63564" lon="5.17851">
        <ele>1178.7</ele>
      </trkpt>
      <trkpt lat="44.63573" lon="5.17858">
        <ele>1176.9</ele>
      </trkpt>
      <trkpt lat="44.63585" lon="5.17868">
        <ele>1174.9</ele>
      </trkpt>
      <trkpt lat="44.63595" lon="5.17874">
        <ele>1173.6</ele>
      </trkpt>
      <trkpt lat="44.63602" lon="5.17883">
        <ele>1173.2</ele>
      </trkpt>
      <trkpt lat="44.63607" lon="5.17894">
        <ele>1173.6</ele>
      </trkpt>
      <trkpt lat="44.63615" lon="5.17908">
        <ele>1173.7</ele>
      </trkpt>
      <trkpt lat="44.63629" lon="5.17941">
        <ele>1179.8</ele>
      </trkpt>
      <trkpt lat="44.63637" lon="5.1795">
        <ele>1181.3</ele>
      </trkpt>
      <trkpt lat="44.63646" lon="5.17953">
        <ele>1180.7</ele>
      </trkpt>
      <trkpt lat="44.63653" lon="5.17953">
        <ele>1179.5</ele>
      </trkpt>
      <trkpt lat="44.63661" lon="5.17953">
        <ele>1177.7</ele>
      </trkpt>
      <trkpt lat="44.63672" lon="5.1795">
        <ele>1175.5</ele>
      </trkpt>
      <trkpt lat="44.63682" lon="5.17949">
        <ele>1174.3</ele>
      </trkpt>
      <trkpt lat="44.63691" lon="5.17948">
        <ele>1173.7</ele>
      </trkpt>
      <trkpt lat="44.63702" lon="5.1795">
        <ele>1173.9</ele>
      </trkpt>
      <trkpt lat="44.63719" lon="5.17955">
        <ele>1175</ele>
      </trkpt>
      <trkpt lat="44.63735" lon="5.17961">
        <ele>1176.9</ele>
      </trkpt>
      <trkpt lat="44.63754" lon="5.17971">
        <ele>1179.2</ele>
      </trkpt>
      <trkpt lat="44.63781" lon="5.17988">
        <ele>1180</ele>
      </trkpt>
      <trkpt lat="44.63797" lon="5.17999">
        <ele>1180</ele>
      </trkpt>
      <trkpt lat="44.63803" lon="5.18004">
        <ele>1179</ele>
      </trkpt>
      <trkpt lat="44.63805" lon="5.18019">
        <ele>1178.9</ele>
      </trkpt>
      <trkpt lat="44.63803" lon="5.18035">
        <ele>1179.9</ele>
      </trkpt>
      <trkpt lat="44.63796" lon="5.18061">
        <ele>1183.7</ele>
      </trkpt>
      <trkpt lat="44.63764" lon="5.18155">
        <ele>1200.9</ele>
      </trkpt>
      <trkpt lat="44.6375" lon="5.18263">
        <ele>1210.5</ele>
      </trkpt>
      <trkpt lat="44.63743" lon="5.18296">
        <ele>1210.6</ele>
      </trkpt>
      <trkpt lat="44.6373" lon="5.18346">
        <ele>1210.4</ele>
      </trkpt>
      <trkpt lat="44.63692" lon="5.18433">
        <ele>1213</ele>
      </trkpt>
      <trkpt lat="44.63667" lon="5.18497">
        <ele>1212.6</ele>
      </trkpt>
      <trkpt lat="44.63655" lon="5.18527">
        <ele>1211.9</ele>
      </trkpt>
      <trkpt lat="44.63646" lon="5.18545">
        <ele>1213.5</ele>
      </trkpt>
      <trkpt lat="44.63632" lon="5.18553">
        <ele>1219.6</ele>
      </trkpt>
      <trkpt lat="44.63624" lon="5.18566">
        <ele>1221.8</ele>
      </trkpt>
      <trkpt lat="44.63622" lon="5.18583">
        <ele>1219.6</ele>
      </trkpt>
      <trkpt lat="44.63625" lon="5.18605">
        <ele>1216.6</ele>
      </trkpt>
      <trkpt lat="44.6363" lon="5.18647">
        <ele>1211.8</ele>
      </trkpt>
      <trkpt lat="44.63631" lon="5.18685">
        <ele>1211.4</ele>
      </trkpt>
      <trkpt lat="44.6363" lon="5.18749">
        <ele>1216.9</ele>
      </trkpt>
      <trkpt lat="44.63627" lon="5.18807">
        <ele>1221.4</ele>
      </trkpt>
      <trkpt lat="44.63623" lon="5.18844">
        <ele>1225.2</ele>
      </trkpt>
      <trkpt lat="44.63618" lon="5.18885">
        <ele>1228.7</ele>
      </trkpt>
      <trkpt lat="44.63617" lon="5.18913">
        <ele>1229.9</ele>
      </trkpt>
      <trkpt lat="44.63617" lon="5.18929">
        <ele>1231.5</ele>
      </trkpt>
      <trkpt lat="44.6362" lon="5.18944">
        <ele>1233</ele>
      </trkpt>
      <trkpt lat="44.63622" lon="5.18953">
        <ele>1234</ele>
      </trkpt>
      <trkpt lat="44.63628" lon="5.18959">
        <ele>1233.9</ele>
      </trkpt>
      <trkpt lat="44.63632" lon="5.18961">
        <ele>1233.6</ele>
      </trkpt>
      <trkpt lat="44.63638" lon="5.1896">
        <ele>1232.5</ele>
      </trkpt>
      <trkpt lat="44.63647" lon="5.18953">
        <ele>1229.7</ele>
      </trkpt>
      <trkpt lat="44.63656" lon="5.18941">
        <ele>1225.5</ele>
      </trkpt>
      <trkpt lat="44.63665" lon="5.18924">
        <ele>1220.1</ele>
      </trkpt>
      <trkpt lat="44.63676" lon="5.189">
        <ele>1219</ele>
      </trkpt>
      <trkpt lat="44.63688" lon="5.18886">
        <ele>1221</ele>
      </trkpt>
      <trkpt lat="44.63701" lon="5.18876">
        <ele>1223.5</ele>
      </trkpt>
      <trkpt lat="44.63714" lon="5.1886">
        <ele>1224.4</ele>
      </trkpt>
      <trkpt lat="44.63728" lon="5.18843">
        <ele>1224.3</ele>
      </trkpt>
      <trkpt lat="44.6374" lon="5.18821">
        <ele>1221.6</ele>
      </trkpt>
      <trkpt lat="44.63751" lon="5.188">
        <ele>1218.5</ele>
      </trkpt>
      <trkpt lat="44.63779" lon="5.18744">
        <ele>1215.3</ele>
      </trkpt>
      <trkpt lat="44.63797" lon="5.18709">
        <ele>1212.1</ele>
      </trkpt>
      <trkpt lat="44.63807" lon="5.18692">
        <ele>1210.2</ele>
      </trkpt>
      <trkpt lat="44.63819" lon="5.18677">
        <ele>1209.7</ele>
      </trkpt>
      <trkpt lat="44.63836" lon="5.18664">
        <ele>1210.3</ele>
      </trkpt>
      <trkpt lat="44.63848" lon="5.18657">
        <ele>1208</ele>
      </trkpt>
      <trkpt lat="44.6386" lon="5.18656">
        <ele>1208.5</ele>
      </trkpt>
      <trkpt lat="44.63871" lon="5.18659">
        <ele>1210.9</ele>
      </trkpt>
      <trkpt lat="44.63882" lon="5.18664">
        <ele>1214.7</ele>
      </trkpt>
      <trkpt lat="44.6391" lon="5.18681">
        <ele>1226</ele>
      </trkpt>
      <trkpt lat="44.63927" lon="5.1869">
        <ele>1229.1</ele>
      </trkpt>
      <trkpt lat="44.63934" lon="5.18693">
        <ele>1229.1</ele>
      </trkpt>
      <trkpt lat="44.63944" lon="5.18694">
        <ele>1227.2</ele>
      </trkpt>
      <trkpt lat="44.63956" lon="5.18694">
        <ele>1225.1</ele>
      </trkpt>
      <trkpt lat="44.63974" lon="5.18695">
        <ele>1221.5</ele>
      </trkpt>
      <trkpt lat="44.6399" lon="5.18699">
        <ele>1219.4</ele>
      </trkpt>
      <trkpt lat="44.64002" lon="5.18708">
        <ele>1219.5</ele>
      </trkpt>
      <trkpt lat="44.64013" lon="5.18719">
        <ele>1219.1</ele>
      </trkpt>
      <trkpt lat="44.64024" lon="5.18745">
        <ele>1222.5</ele>
      </trkpt>
      <trkpt lat="44.64027" lon="5.18754">
        <ele>1224.2</ele>
      </trkpt>
      <trkpt lat="44.64033" lon="5.1878">
        <ele>1229.1</ele>
      </trkpt>
      <trkpt lat="44.64037" lon="5.18789">
        <ele>1229.7</ele>
      </trkpt>
      <trkpt lat="44.64069" lon="5.18837">
        <ele>1225.3</ele>
      </trkpt>
      <trkpt lat="44.64078" lon="5.18853">
        <ele>1223.5</ele>
      </trkpt>
      <trkpt lat="44.64081" lon="5.1887">
        <ele>1225.1</ele>
      </trkpt>
      <trkpt lat="44.64084" lon="5.18901">
        <ele>1229.4</ele>
      </trkpt>
      <trkpt lat="44.64085" lon="5.18922">
        <ele>1233.9</ele>
      </trkpt>
      <trkpt lat="44.64085" lon="5.18946">
        <ele>1240</ele>
      </trkpt>
      <trkpt lat="44.64088" lon="5.1895">
        <ele>1242</ele>
      </trkpt>
      <trkpt lat="44.64093" lon="5.18957">
        <ele>1245.3</ele>
      </trkpt>
      <trkpt lat="44.64096" lon="5.18962">
        <ele>1247.7</ele>
      </trkpt>
      <trkpt lat="44.641" lon="5.18954">
        <ele>1247.3</ele>
      </trkpt>
      <trkpt lat="44.6411" lon="5.18929">
        <ele>1243.9</ele>
      </trkpt>
      <trkpt lat="44.64121" lon="5.18907">
        <ele>1241.7</ele>
      </trkpt>
      <trkpt lat="44.6413" lon="5.18885">
        <ele>1240.7</ele>
      </trkpt>
      <trkpt lat="44.64139" lon="5.18856">
        <ele>1238.1</ele>
      </trkpt>
      <trkpt lat="44.64142" lon="5.18834">
        <ele>1234.7</ele>
      </trkpt>
      <trkpt lat="44.64142" lon="5.18811">
        <ele>1231.8</ele>
      </trkpt>
      <trkpt lat="44.6414" lon="5.18786">
        <ele>1228.2</ele>
      </trkpt>
      <trkpt lat="44.64138" lon="5.18769">
        <ele>1225.4</ele>
      </trkpt>
      <trkpt lat="44.64138" lon="5.18752">
        <ele>1223.3</ele>
      </trkpt>
      <trkpt lat="44.6414" lon="5.18731">
        <ele>1220.6</ele>
      </trkpt>
      <trkpt lat="44.64143" lon="5.18715">
        <ele>1219.1</ele>
      </trkpt>
      <trkpt lat="44.64148" lon="5.18693">
        <ele>1218.1</ele>
      </trkpt>
      <trkpt lat="44.64154" lon="5.18671">
        <ele>1217</ele>
      </trkpt>
      <trkpt lat="44.64161" lon="5.1864">
        <ele>1216.2</ele>
      </trkpt>
      <trkpt lat="44.64165" lon="5.1862">
        <ele>1215.5</ele>
      </trkpt>
      <trkpt lat="44.64168" lon="5.18601">
        <ele>1214.5</ele>
      </trkpt>
      <trkpt lat="44.64169" lon="5.18585">
        <ele>1212.5</ele>
      </trkpt>
      <trkpt lat="44.64167" lon="5.18564">
        <ele>1210.3</ele>
      </trkpt>
      <trkpt lat="44.64164" lon="5.18542">
        <ele>1207.6</ele>
      </trkpt>
      <trkpt lat="44.64162" lon="5.18527">
        <ele>1205.7</ele>
      </trkpt>
      <trkpt lat="44.64158" lon="5.18517">
        <ele>1203.2</ele>
      </trkpt>
      <trkpt lat="44.64154" lon="5.18506">
        <ele>1201.2</ele>
      </trkpt>
      <trkpt lat="44.64152" lon="5.18495">
        <ele>1199.8</ele>
      </trkpt>
      <trkpt lat="44.64152" lon="5.18487">
        <ele>1199.4</ele>
      </trkpt>
      <trkpt lat="44.64154" lon="5.18481">
        <ele>1199.8</ele>
      </trkpt>
      <trkpt lat="44.64157" lon="5.18479">
        <ele>1200.6</ele>
      </trkpt>
      <trkpt lat="44.64162" lon="5.18481">
        <ele>1202.2</ele>
      </trkpt>
      <trkpt lat="44.64168" lon="5.18486">
        <ele>1203.6</ele>
      </trkpt>
      <trkpt lat="44.64177" lon="5.18499">
        <ele>1203.8</ele>
      </trkpt>
      <trkpt lat="44.64188" lon="5.18515">
        <ele>1205.1</ele>
      </trkpt>
      <trkpt lat="44.64206" lon="5.1853">
        <ele>1207.2</ele>
      </trkpt>
      <trkpt lat="44.64267" lon="5.18578">
        <ele>1219.2</ele>
      </trkpt>
      <trkpt lat="44.6429" lon="5.18594">
        <ele>1218.6</ele>
      </trkpt>
      <trkpt lat="44.64323" lon="5.18611">
        <ele>1215.2</ele>
      </trkpt>
      <trkpt lat="44.64342" lon="5.18618">
        <ele>1211</ele>
      </trkpt>
      <trkpt lat="44.6436" lon="5.18632">
        <ele>1207.9</ele>
      </trkpt>
      <trkpt lat="44.64388" lon="5.18676">
        <ele>1209.4</ele>
      </trkpt>
      <trkpt lat="44.64413" lon="5.18718">
        <ele>1209.2</ele>
      </trkpt>
      <trkpt lat="44.64438" lon="5.18746">
        <ele>1210.9</ele>
      </trkpt>
      <trkpt lat="44.64464" lon="5.18774">
        <ele>1212.4</ele>
      </trkpt>
      <trkpt lat="44.64465" lon="5.18789">
        <ele>1216.6</ele>
      </trkpt>
      <trkpt lat="44.64477" lon="5.18813">
        <ele>1218.5</ele>
      </trkpt>
      <trkpt lat="44.64492" lon="5.18829">
        <ele>1216.4</ele>
      </trkpt>
      <trkpt lat="44.64499" lon="5.18857">
        <ele>1221.1</ele>
      </trkpt>
      <trkpt lat="44.64512" lon="5.18894">
        <ele>1232.1</ele>
      </trkpt>
      <trkpt lat="44.64514" lon="5.18921">
        <ele>1239.4</ele>
      </trkpt>
      <trkpt lat="44.64518" lon="5.18952">
        <ele>1247.9</ele>
      </trkpt>
      <trkpt lat="44.64536" lon="5.18988">
        <ele>1258.1</ele>
      </trkpt>
      <trkpt lat="44.64549" lon="5.18986">
        <ele>1257.6</ele>
      </trkpt>
      <trkpt lat="44.64564" lon="5.18974">
        <ele>1254.6</ele>
      </trkpt>
      <trkpt lat="44.64579" lon="5.18946">
        <ele>1247</ele>
      </trkpt>
      <trkpt lat="44.64614" lon="5.18923">
        <ele>1250.7</ele>
      </trkpt>
      <trkpt lat="44.64636" lon="5.18914">
        <ele>1256.1</ele>
      </trkpt>
      <trkpt lat="44.64652" lon="5.1891">
        <ele>1261.4</ele>
      </trkpt>
      <trkpt lat="44.64666" lon="5.18891">
        <ele>1267.4</ele>
      </trkpt>
      <trkpt lat="44.64686" lon="5.18881">
        <ele>1275.7</ele>
      </trkpt>
      <trkpt lat="44.6471" lon="5.18889">
        <ele>1283.7</ele>
      </trkpt>
      <trkpt lat="44.64727" lon="5.18892">
        <ele>1289.8</ele>
      </trkpt>
      <trkpt lat="44.64759" lon="5.189">
        <ele>1299.4</ele>
      </trkpt>
      <trkpt lat="44.64768" lon="5.18911">
        <ele>1300</ele>
      </trkpt>
      <trkpt lat="44.6478" lon="5.1893">
        <ele>1303.7</ele>
      </trkpt>
      <trkpt lat="44.6481" lon="5.18938">
        <ele>1310.8</ele>
      </trkpt>
      <trkpt lat="44.64823" lon="5.18935">
        <ele>1313.5</ele>
      </trkpt>
      <trkpt lat="44.64832" lon="5.18945">
        <ele>1315.1</ele>
      </trkpt>
      <trkpt lat="44.64876" lon="5.18995">
        <ele>1318.7</ele>
      </trkpt>
      <trkpt lat="44.6491" lon="5.19021">
        <ele>1324.3</ele>
      </trkpt>
      <trkpt lat="44.64928" lon="5.19048">
        <ele>1328.9</ele>
      </trkpt>
      <trkpt lat="44.64934" lon="5.19081">
        <ele>1331.4</ele>
      </trkpt>
      <trkpt lat="44.64944" lon="5.19079">
        <ele>1333.5</ele>
      </trkpt>
      <trkpt lat="44.64957" lon="5.19064">
        <ele>1335.9</ele>
      </trkpt>
      <trkpt lat="44.6498" lon="5.19066">
        <ele>1340.8</ele>
      </trkpt>
      <trkpt lat="44.65011" lon="5.19088">
        <ele>1347.9</ele>
      </trkpt>
      <trkpt lat="44.65052" lon="5.19115">
        <ele>1359.3</ele>
      </trkpt>
      <trkpt lat="44.65092" lon="5.19092">
        <ele>1363.8</ele>
      </trkpt>
      <trkpt lat="44.65135" lon="5.19089">
        <ele>1364.2</ele>
      </trkpt>
      <trkpt lat="44.65157" lon="5.19079">
        <ele>1364.3</ele>
      </trkpt>
      <trkpt lat="44.65163" lon="5.19045">
        <ele>1360.1</ele>
      </trkpt>
      <trkpt lat="44.65154" lon="5.19036">
        <ele>1359.3</ele>
      </trkpt>
      <trkpt lat="44.65121" lon="5.19007">
        <ele>1358.8</ele>
      </trkpt>
      <trkpt lat="44.6509" lon="5.1898">
        <ele>1362.1</ele>
      </trkpt>
      <trkpt lat="44.65072" lon="5.18951">
        <ele>1362.7</ele>
      </trkpt>
      <trkpt lat="44.65069" lon="5.18934">
        <ele>1363.2</ele>
      </trkpt>
      <trkpt lat="44.65078" lon="5.18916">
        <ele>1365.4</ele>
      </trkpt>
      <trkpt lat="44.6509" lon="5.18894">
        <ele>1366.5</ele>
      </trkpt>
      <trkpt lat="44.65104" lon="5.18855">
        <ele>1367</ele>
      </trkpt>
      <trkpt lat="44.65109" lon="5.18831">
        <ele>1367.8</ele>
      </trkpt>
      <trkpt lat="44.6513" lon="5.18809">
        <ele>1361.6</ele>
      </trkpt>
      <trkpt lat="44.6514" lon="5.1879">
        <ele>1358.7</ele>
      </trkpt>
      <trkpt lat="44.65149" lon="5.18776">
        <ele>1356.8</ele>
      </trkpt>
      <trkpt lat="44.6516" lon="5.18758">
        <ele>1354.8</ele>
      </trkpt>
      <trkpt lat="44.65161" lon="5.18741">
        <ele>1352.1</ele>
      </trkpt>
      <trkpt lat="44.65159" lon="5.18732">
        <ele>1350</ele>
      </trkpt>
      <trkpt lat="44.65157" lon="5.18718">
        <ele>1346.6</ele>
      </trkpt>
      <trkpt lat="44.65161" lon="5.18704">
        <ele>1342.3</ele>
      </trkpt>
      <trkpt lat="44.65163" lon="5.18687">
        <ele>1337.7</ele>
      </trkpt>
      <trkpt lat="44.65176" lon="5.18673">
        <ele>1329.6</ele>
      </trkpt>
      <trkpt lat="44.65177" lon="5.1864">
        <ele>1321.4</ele>
      </trkpt>
      <trkpt lat="44.65178" lon="5.18617">
        <ele>1316.1</ele>
      </trkpt>
      <trkpt lat="44.65189" lon="5.18599">
        <ele>1307</ele>
      </trkpt>
      <trkpt lat="44.6519" lon="5.18591">
        <ele>1304.7</ele>
      </trkpt>
      <trkpt lat="44.65192" lon="5.18579">
        <ele>1301</ele>
      </trkpt>
      <trkpt lat="44.65196" lon="5.18573">
        <ele>1298.1</ele>
      </trkpt>
      <trkpt lat="44.65218" lon="5.18551">
        <ele>1284</ele>
      </trkpt>
      <trkpt lat="44.65229" lon="5.18542">
        <ele>1277.9</ele>
      </trkpt>
      <trkpt lat="44.65232" lon="5.18527">
        <ele>1273.7</ele>
      </trkpt>
      <trkpt lat="44.65245" lon="5.18515">
        <ele>1266.4</ele>
      </trkpt>
      <trkpt lat="44.65258" lon="5.18503">
        <ele>1257</ele>
      </trkpt>
      <trkpt lat="44.6527" lon="5.18479">
        <ele>1247.2</ele>
      </trkpt>
      <trkpt lat="44.65274" lon="5.18457">
        <ele>1245.3</ele>
      </trkpt>
      <trkpt lat="44.65282" lon="5.18432">
        <ele>1243.4</ele>
      </trkpt>
      <trkpt lat="44.65279" lon="5.18421">
        <ele>1244.8</ele>
      </trkpt>
      <trkpt lat="44.65286" lon="5.18397">
        <ele>1246.5</ele>
      </trkpt>
      <trkpt lat="44.65304" lon="5.18394">
        <ele>1245.5</ele>
      </trkpt>
      <trkpt lat="44.65328" lon="5.18388">
        <ele>1246.1</ele>
      </trkpt>
      <trkpt lat="44.65334" lon="5.18368">
        <ele>1254.5</ele>
      </trkpt>
      <trkpt lat="44.65351" lon="5.18348">
        <ele>1261.1</ele>
      </trkpt>
      <trkpt lat="44.6537" lon="5.18341">
        <ele>1262.5</ele>
      </trkpt>
      <trkpt lat="44.65378" lon="5.18332">
        <ele>1265.4</ele>
      </trkpt>
      <trkpt lat="44.65379" lon="5.18324">
        <ele>1266.3</ele>
      </trkpt>
      <trkpt lat="44.65374" lon="5.18304">
        <ele>1269.8</ele>
      </trkpt>
      <trkpt lat="44.65379" lon="5.18295">
        <ele>1270.1</ele>
      </trkpt>
      <trkpt lat="44.65375" lon="5.1828">
        <ele>1272.8</ele>
      </trkpt>
      <trkpt lat="44.65374" lon="5.18226">
        <ele>1279.6</ele>
      </trkpt>
      <trkpt lat="44.65368" lon="5.18197">
        <ele>1284.4</ele>
      </trkpt>
      <trkpt lat="44.65361" lon="5.18167">
        <ele>1291.3</ele>
      </trkpt>
      <trkpt lat="44.65356" lon="5.18129">
        <ele>1295.8</ele>
      </trkpt>
      <trkpt lat="44.65349" lon="5.18098">
        <ele>1301.7</ele>
      </trkpt>
      <trkpt lat="44.65352" lon="5.18079">
        <ele>1300.6</ele>
      </trkpt>
      <trkpt lat="44.65368" lon="5.18053">
        <ele>1290.8</ele>
      </trkpt>
      <trkpt lat="44.65386" lon="5.18032">
        <ele>1283.1</ele>
      </trkpt>
      <trkpt lat="44.65389" lon="5.18015">
        <ele>1282.6</ele>
      </trkpt>
      <trkpt lat="44.65393" lon="5.17981">
        <ele>1279.7</ele>
      </trkpt>
      <trkpt lat="44.65402" lon="5.17941">
        <ele>1274.1</ele>
      </trkpt>
      <trkpt lat="44.6543" lon="5.17885">
        <ele>1256.5</ele>
      </trkpt>
      <trkpt lat="44.65458" lon="5.17807">
        <ele>1234.5</ele>
      </trkpt>
      <trkpt lat="44.65475" lon="5.17735">
        <ele>1231.7</ele>
      </trkpt>
      <trkpt lat="44.6549" lon="5.17679">
        <ele>1233.9</ele>
      </trkpt>
      <trkpt lat="44.65495" lon="5.17637">
        <ele>1234.6</ele>
      </trkpt>
      <trkpt lat="44.65501" lon="5.17592">
        <ele>1234.2</ele>
      </trkpt>
      <trkpt lat="44.65514" lon="5.17551">
        <ele>1225.6</ele>
      </trkpt>
      <trkpt lat="44.65517" lon="5.17517">
        <ele>1225.1</ele>
      </trkpt>
      <trkpt lat="44.65513" lon="5.17479">
        <ele>1225.8</ele>
      </trkpt>
      <trkpt lat="44.65516" lon="5.17459">
        <ele>1221.8</ele>
      </trkpt>
      <trkpt lat="44.65523" lon="5.17396">
        <ele>1207.8</ele>
      </trkpt>
      <trkpt lat="44.65518" lon="5.17345">
        <ele>1196.1</ele>
      </trkpt>
      <trkpt lat="44.6552" lon="5.17325">
        <ele>1190.6</ele>
      </trkpt>
      <trkpt lat="44.65525" lon="5.17255">
        <ele>1176</ele>
      </trkpt>
      <trkpt lat="44.65544" lon="5.17222">
        <ele>1166.8</ele>
      </trkpt>
      <trkpt lat="44.65568" lon="5.17178">
        <ele>1160.3</ele>
      </trkpt>
      <trkpt lat="44.65588" lon="5.17134">
        <ele>1154</ele>
      </trkpt>
      <trkpt lat="44.65629" lon="5.17067">
        <ele>1138.7</ele>
      </trkpt>
      <trkpt lat="44.65655" lon="5.16962">
        <ele>1144.1</ele>
      </trkpt>
      <trkpt lat="44.65656" lon="5.1691">
        <ele>1147.6</ele>
      </trkpt>
      <trkpt lat="44.65656" lon="5.16885">
        <ele>1152.5</ele>
      </trkpt>
      <trkpt lat="44.65663" lon="5.16863">
        <ele>1159.2</ele>
      </trkpt>
      <trkpt lat="44.6567" lon="5.16843">
        <ele>1165.2</ele>
      </trkpt>
      <trkpt lat="44.65674" lon="5.1683">
        <ele>1168</ele>
      </trkpt>
      <trkpt lat="44.65681" lon="5.16845">
        <ele>1165.5</ele>
      </trkpt>
      <trkpt lat="44.65686" lon="5.16854">
        <ele>1163.2</ele>
      </trkpt>
      <trkpt lat="44.65684" lon="5.16868">
        <ele>1159</ele>
      </trkpt>
      <trkpt lat="44.65693" lon="5.1687">
        <ele>1158.3</ele>
      </trkpt>
      <trkpt lat="44.65703" lon="5.16869">
        <ele>1158.4</ele>
      </trkpt>
      <trkpt lat="44.65706" lon="5.16875">
        <ele>1155.9</ele>
      </trkpt>
      <trkpt lat="44.65714" lon="5.16882">
        <ele>1152.7</ele>
      </trkpt>
      <trkpt lat="44.65712" lon="5.16891">
        <ele>1149.3</ele>
      </trkpt>
      <trkpt lat="44.65704" lon="5.16901">
        <ele>1146.4</ele>
      </trkpt>
      <trkpt lat="44.657" lon="5.16909">
        <ele>1144.1</ele>
      </trkpt>
      <trkpt lat="44.65698" lon="5.16922">
        <ele>1140.4</ele>
      </trkpt>
      <trkpt lat="44.6571" lon="5.16922">
        <ele>1137.3</ele>
      </trkpt>
      <trkpt lat="44.65716" lon="5.16926">
        <ele>1134.6</ele>
      </trkpt>
      <trkpt lat="44.65712" lon="5.16938">
        <ele>1131.5</ele>
      </trkpt>
      <trkpt lat="44.65712" lon="5.16953">
        <ele>1126.7</ele>
      </trkpt>
      <trkpt lat="44.65717" lon="5.1697">
        <ele>1118.4</ele>
      </trkpt>
      <trkpt lat="44.65717" lon="5.16978">
        <ele>1115.9</ele>
      </trkpt>
      <trkpt lat="44.65709" lon="5.16994">
        <ele>1115.3</ele>
      </trkpt>
      <trkpt lat="44.65705" lon="5.17012">
        <ele>1113.1</ele>
      </trkpt>
      <trkpt lat="44.65707" lon="5.17034">
        <ele>1104.8</ele>
      </trkpt>
      <trkpt lat="44.65713" lon="5.17057">
        <ele>1091.5</ele>
      </trkpt>
      <trkpt lat="44.65712" lon="5.17079">
        <ele>1085.6</ele>
      </trkpt>
      <trkpt lat="44.65704" lon="5.17098">
        <ele>1088.7</ele>
      </trkpt>
      <trkpt lat="44.65694" lon="5.17109">
        <ele>1095.5</ele>
      </trkpt>
      <trkpt lat="44.65689" lon="5.17149">
        <ele>1090.8</ele>
      </trkpt>
      <trkpt lat="44.6569" lon="5.17173">
        <ele>1084</ele>
      </trkpt>
      <trkpt lat="44.65697" lon="5.17221">
        <ele>1067.2</ele>
      </trkpt>
      <trkpt lat="44.65714" lon="5.1728">
        <ele>1043.3</ele>
      </trkpt>
      <trkpt lat="44.65728" lon="5.17308">
        <ele>1029.2</ele>
      </trkpt>
      <trkpt lat="44.65749" lon="5.17276">
        <ele>1013.6</ele>
      </trkpt>
      <trkpt lat="44.65753" lon="5.17294">
        <ele>1009</ele>
      </trkpt>
      <trkpt lat="44.65757" lon="5.17317">
        <ele>1003.7</ele>
      </trkpt>
      <trkpt lat="44.65765" lon="5.17339">
        <ele>996</ele>
      </trkpt>
      <trkpt lat="44.65773" lon="5.17365">
        <ele>988.3</ele>
      </trkpt>
      <trkpt lat="44.65775" lon="5.1738">
        <ele>986.6</ele>
      </trkpt>
      <trkpt lat="44.65776" lon="5.17387">
        <ele>985.4</ele>
      </trkpt>
      <trkpt lat="44.65779" lon="5.17401">
        <ele>983</ele>
      </trkpt>
      <trkpt lat="44.65781" lon="5.17411">
        <ele>981.2</ele>
      </trkpt>
      <trkpt lat="44.6578" lon="5.17418">
        <ele>981.2</ele>
      </trkpt>
      <trkpt lat="44.65782" lon="5.17432">
        <ele>978.8</ele>
      </trkpt>
      <trkpt lat="44.65784" lon="5.1744">
        <ele>977.1</ele>
      </trkpt>
      <trkpt lat="44.65786" lon="5.17454">
        <ele>975</ele>
      </trkpt>
      <trkpt lat="44.6579" lon="5.17473">
        <ele>970.9</ele>
      </trkpt>
      <trkpt lat="44.65797" lon="5.17507">
        <ele>964.5</ele>
      </trkpt>
      <trkpt lat="44.65807" lon="5.17527">
        <ele>956.8</ele>
      </trkpt>
      <trkpt lat="44.65815" lon="5.17526">
        <ele>951</ele>
      </trkpt>
      <trkpt lat="44.65824" lon="5.17517">
        <ele>944.6</ele>
      </trkpt>
      <trkpt lat="44.6584" lon="5.17496">
        <ele>936.1</ele>
      </trkpt>
      <trkpt lat="44.65867" lon="5.17472">
        <ele>924.2</ele>
      </trkpt>
      <trkpt lat="44.65875" lon="5.17473">
        <ele>920.8</ele>
      </trkpt>
      <trkpt lat="44.65878" lon="5.17486">
        <ele>919</ele>
      </trkpt>
      <trkpt lat="44.65877" lon="5.1752">
        <ele>916.9</ele>
      </trkpt>
      <trkpt lat="44.65875" lon="5.17553">
        <ele>913.7</ele>
      </trkpt>
      <trkpt lat="44.65882" lon="5.17585">
        <ele>905.7</ele>
      </trkpt>
      <trkpt lat="44.65885" lon="5.17616">
        <ele>900.5</ele>
      </trkpt>
      <trkpt lat="44.65889" lon="5.17653">
        <ele>894.3</ele>
      </trkpt>
      <trkpt lat="44.65905" lon="5.17672">
        <ele>882.2</ele>
      </trkpt>
      <trkpt lat="44.6591" lon="5.17696">
        <ele>876.3</ele>
      </trkpt>
      <trkpt lat="44.65916" lon="5.17718">
        <ele>870.2</ele>
      </trkpt>
      <trkpt lat="44.65931" lon="5.17715">
        <ele>863.9</ele>
      </trkpt>
      <trkpt lat="44.65938" lon="5.17733">
        <ele>859.1</ele>
      </trkpt>
      <trkpt lat="44.65947" lon="5.17754">
        <ele>853.4</ele>
      </trkpt>
      <trkpt lat="44.6594" lon="5.17764">
        <ele>855.2</ele>
      </trkpt>
      <trkpt lat="44.65933" lon="5.17785">
        <ele>855.9</ele>
      </trkpt>
      <trkpt lat="44.6593" lon="5.17805">
        <ele>855.3</ele>
      </trkpt>
      <trkpt lat="44.65933" lon="5.17851">
        <ele>850.5</ele>
      </trkpt>
      <trkpt lat="44.65935" lon="5.17871">
        <ele>848.7</ele>
      </trkpt>
      <trkpt lat="44.65939" lon="5.17882">
        <ele>846.6</ele>
      </trkpt>
      <trkpt lat="44.6595" lon="5.17896">
        <ele>841.6</ele>
      </trkpt>
      <trkpt lat="44.65954" lon="5.1791">
        <ele>839.3</ele>
      </trkpt>
      <trkpt lat="44.65958" lon="5.17924">
        <ele>836.8</ele>
      </trkpt>
      <trkpt lat="44.65965" lon="5.17931">
        <ele>833.5</ele>
      </trkpt>
      <trkpt lat="44.65966" lon="5.17939">
        <ele>832.4</ele>
      </trkpt>
      <trkpt lat="44.65964" lon="5.17954">
        <ele>831.3</ele>
      </trkpt>
      <trkpt lat="44.65958" lon="5.17974">
        <ele>832.2</ele>
      </trkpt>
      <trkpt lat="44.65954" lon="5.1799">
        <ele>832.4</ele>
      </trkpt>
      <trkpt lat="44.65953" lon="5.18009">
        <ele>831.7</ele>
      </trkpt>
      <trkpt lat="44.65951" lon="5.18023">
        <ele>832.1</ele>
      </trkpt>
      <trkpt lat="44.6595" lon="5.18033">
        <ele>832.1</ele>
      </trkpt>
      <trkpt lat="44.65953" lon="5.18041">
        <ele>830.3</ele>
      </trkpt>
      <trkpt lat="44.65954" lon="5.18047">
        <ele>829.7</ele>
      </trkpt>
      <trkpt lat="44.65955" lon="5.18052">
        <ele>829</ele>
      </trkpt>
      <trkpt lat="44.65957" lon="5.18058">
        <ele>827.5</ele>
      </trkpt>
      <trkpt lat="44.65965" lon="5.18072">
        <ele>823.6</ele>
      </trkpt>
      <trkpt lat="44.65973" lon="5.18078">
        <ele>819.6</ele>
      </trkpt>
      <trkpt lat="44.65985" lon="5.18086">
        <ele>813.9</ele>
      </trkpt>
      <trkpt lat="44.65998" lon="5.18098">
        <ele>808.8</ele>
      </trkpt>
      <trkpt lat="44.66003" lon="5.18106">
        <ele>807.3</ele>
      </trkpt>
      <trkpt lat="44.66009" lon="5.18111">
        <ele>805.3</ele>
      </trkpt>
      <trkpt lat="44.66014" lon="5.18115">
        <ele>803.5</ele>
      </trkpt>
      <trkpt lat="44.66028" lon="5.18117">
        <ele>797.9</ele>
      </trkpt>
      <trkpt lat="44.66039" lon="5.18119">
        <ele>793.5</ele>
      </trkpt>
      <trkpt lat="44.66047" lon="5.18121">
        <ele>790.9</ele>
      </trkpt>
      <trkpt lat="44.66053" lon="5.18127">
        <ele>789</ele>
      </trkpt>
      <trkpt lat="44.66057" lon="5.18132">
        <ele>787.8</ele>
      </trkpt>
      <trkpt lat="44.66068" lon="5.1814">
        <ele>784.8</ele>
      </trkpt>
      <trkpt lat="44.66078" lon="5.18148">
        <ele>782.3</ele>
      </trkpt>
      <trkpt lat="44.66088" lon="5.18154">
        <ele>778.8</ele>
      </trkpt>
      <trkpt lat="44.66095" lon="5.18158">
        <ele>776.3</ele>
      </trkpt>
      <trkpt lat="44.66102" lon="5.18164">
        <ele>774.2</ele>
      </trkpt>
      <trkpt lat="44.66109" lon="5.18171">
        <ele>771.7</ele>
      </trkpt>
      <trkpt lat="44.66117" lon="5.18179">
        <ele>768.8</ele>
      </trkpt>
      <trkpt lat="44.66124" lon="5.1819">
        <ele>766.2</ele>
      </trkpt>
      <trkpt lat="44.66126" lon="5.18198">
        <ele>765.8</ele>
      </trkpt>
      <trkpt lat="44.66139" lon="5.18225">
        <ele>761.9</ele>
      </trkpt>
      <trkpt lat="44.66149" lon="5.1824">
        <ele>758.9</ele>
      </trkpt>
      <trkpt lat="44.66159" lon="5.18257">
        <ele>755.3</ele>
      </trkpt>
      <trkpt lat="44.66174" lon="5.1827">
        <ele>749.5</ele>
      </trkpt>
      <trkpt lat="44.66196" lon="5.18285">
        <ele>741.1</ele>
      </trkpt>
      <trkpt lat="44.66211" lon="5.1829">
        <ele>734.8</ele>
      </trkpt>
      <trkpt lat="44.66229" lon="5.18294">
        <ele>727.7</ele>
      </trkpt>
      <trkpt lat="44.66248" lon="5.18309">
        <ele>720.3</ele>
      </trkpt>
      <trkpt lat="44.66268" lon="5.18317">
        <ele>715.9</ele>
      </trkpt>
      <trkpt lat="44.66304" lon="5.18318">
        <ele>707.4</ele>
      </trkpt>
      <trkpt lat="44.66344" lon="5.18313">
        <ele>698.8</ele>
      </trkpt>
      <trkpt lat="44.66357" lon="5.18328">
        <ele>697.9</ele>
      </trkpt>
      <trkpt lat="44.66356" lon="5.18352">
        <ele>695.5</ele>
      </trkpt>
      <trkpt lat="44.66365" lon="5.18354">
        <ele>694.4</ele>
      </trkpt>
      <trkpt lat="44.66376" lon="5.18354">
        <ele>693.5</ele>
      </trkpt>
      <trkpt lat="44.66387" lon="5.1835">
        <ele>692.9</ele>
      </trkpt>
      <trkpt lat="44.66393" lon="5.18351">
        <ele>692.2</ele>
      </trkpt>
      <trkpt lat="44.66406" lon="5.18349">
        <ele>691</ele>
      </trkpt>
      <trkpt lat="44.66415" lon="5.18349">
        <ele>690.2</ele>
      </trkpt>
      <trkpt lat="44.66425" lon="5.18356">
        <ele>688.6</ele>
      </trkpt>
      <trkpt lat="44.66437" lon="5.18362">
        <ele>687</ele>
      </trkpt>
      <trkpt lat="44.66449" lon="5.18372">
        <ele>686.1</ele>
      </trkpt>
      <trkpt lat="44.66461" lon="5.1838">
        <ele>685.6</ele>
      </trkpt>
      <trkpt lat="44.66469" lon="5.18386">
        <ele>685.7</ele>
      </trkpt>
      <trkpt lat="44.66489" lon="5.18396">
        <ele>686.4</ele>
      </trkpt>
      <trkpt lat="44.66507" lon="5.18402">
        <ele>684.5</ele>
      </trkpt>
      <trkpt lat="44.6652" lon="5.18404">
        <ele>678.6</ele>
      </trkpt>
      <trkpt lat="44.66533" lon="5.1841">
        <ele>673.8</ele>
      </trkpt>
      <trkpt lat="44.66543" lon="5.18423">
        <ele>672.3</ele>
      </trkpt>
      <trkpt lat="44.66549" lon="5.18436">
        <ele>672.3</ele>
      </trkpt>
      <trkpt lat="44.66556" lon="5.18448">
        <ele>671.7</ele>
      </trkpt>
      <trkpt lat="44.66565" lon="5.1846">
        <ele>671.1</ele>
      </trkpt>
      <trkpt lat="44.66578" lon="5.18473">
        <ele>669.6</ele>
      </trkpt>
      <trkpt lat="44.66587" lon="5.18482">
        <ele>668.3</ele>
      </trkpt>
      <trkpt lat="44.66604" lon="5.18492">
        <ele>663</ele>
      </trkpt>
      <trkpt lat="44.66615" lon="5.18499">
        <ele>659.7</ele>
      </trkpt>
      <trkpt lat="44.6663" lon="5.18506">
        <ele>652.7</ele>
      </trkpt>
      <trkpt lat="44.66642" lon="5.18509">
        <ele>647.3</ele>
      </trkpt>
      <trkpt lat="44.66653" lon="5.18519">
        <ele>642.8</ele>
      </trkpt>
      <trkpt lat="44.66664" lon="5.1853">
        <ele>638.2</ele>
      </trkpt>
      <trkpt lat="44.66674" lon="5.18543">
        <ele>635.6</ele>
      </trkpt>
      <trkpt lat="44.66682" lon="5.18556">
        <ele>634.4</ele>
      </trkpt>
      <trkpt lat="44.66691" lon="5.18567">
        <ele>633</ele>
      </trkpt>
      <trkpt lat="44.667" lon="5.18574">
        <ele>631.5</ele>
      </trkpt>
      <trkpt lat="44.66712" lon="5.18579">
        <ele>629.3</ele>
      </trkpt>
      <trkpt lat="44.66726" lon="5.18584">
        <ele>626.3</ele>
      </trkpt>
      <trkpt lat="44.66744" lon="5.18588">
        <ele>621.6</ele>
      </trkpt>
      <trkpt lat="44.66757" lon="5.18591">
        <ele>618.2</ele>
      </trkpt>
      <trkpt lat="44.66772" lon="5.18596">
        <ele>614.6</ele>
      </trkpt>
      <trkpt lat="44.66784" lon="5.18599">
        <ele>611.7</ele>
      </trkpt>
      <trkpt lat="44.66797" lon="5.186">
        <ele>609.1</ele>
      </trkpt>
      <trkpt lat="44.66815" lon="5.18598">
        <ele>606.1</ele>
      </trkpt>
      <trkpt lat="44.66827" lon="5.18598">
        <ele>603.9</ele>
      </trkpt>
      <trkpt lat="44.66843" lon="5.18595">
        <ele>600.2</ele>
      </trkpt>
      <trkpt lat="44.6686" lon="5.1859">
        <ele>595.7</ele>
      </trkpt>
      <trkpt lat="44.66873" lon="5.18586">
        <ele>592.1</ele>
      </trkpt>
      <trkpt lat="44.66883" lon="5.18583">
        <ele>589.3</ele>
      </trkpt>
      <trkpt lat="44.66893" lon="5.1858">
        <ele>585.2</ele>
      </trkpt>
      <trkpt lat="44.669" lon="5.18579">
        <ele>582.8</ele>
      </trkpt>
      <trkpt lat="44.66906" lon="5.18582">
        <ele>581.4</ele>
      </trkpt>
      <trkpt lat="44.66906" lon="5.18589">
        <ele>580.7</ele>
      </trkpt>
      <trkpt lat="44.66906" lon="5.18598">
        <ele>579.4</ele>
      </trkpt>
      <trkpt lat="44.6691" lon="5.18603">
        <ele>577.5</ele>
      </trkpt>
      <trkpt lat="44.66916" lon="5.18606">
        <ele>575</ele>
      </trkpt>
      <trkpt lat="44.66923" lon="5.18605">
        <ele>573.7</ele>
      </trkpt>
      <trkpt lat="44.66933" lon="5.18599">
        <ele>572.4</ele>
      </trkpt>
      <trkpt lat="44.66941" lon="5.18592">
        <ele>571.9</ele>
      </trkpt>
      <trkpt lat="44.66949" lon="5.18587">
        <ele>571.1</ele>
      </trkpt>
      <trkpt lat="44.66958" lon="5.18588">
        <ele>569.3</ele>
      </trkpt>
      <trkpt lat="44.66968" lon="5.18594">
        <ele>566.3</ele>
      </trkpt>
      <trkpt lat="44.66976" lon="5.18594">
        <ele>564.6</ele>
      </trkpt>
      <trkpt lat="44.66985" lon="5.18594">
        <ele>562.9</ele>
      </trkpt>
      <trkpt lat="44.66995" lon="5.18599">
        <ele>559.9</ele>
      </trkpt>
      <trkpt lat="44.67008" lon="5.18604">
        <ele>555.6</ele>
      </trkpt>
      <trkpt lat="44.67017" lon="5.18609">
        <ele>552</ele>
      </trkpt>
      <trkpt lat="44.67026" lon="5.18612">
        <ele>548.9</ele>
      </trkpt>
      <trkpt lat="44.67036" lon="5.18615">
        <ele>545.8</ele>
      </trkpt>
      <trkpt lat="44.67046" lon="5.18615">
        <ele>542.8</ele>
      </trkpt>
      <trkpt lat="44.6706" lon="5.18609">
        <ele>540.1</ele>
      </trkpt>
      <trkpt lat="44.67073" lon="5.18601">
        <ele>538</ele>
      </trkpt>
      <trkpt lat="44.67081" lon="5.18597">
        <ele>536.4</ele>
      </trkpt>
      <trkpt lat="44.67095" lon="5.18599">
        <ele>533.8</ele>
      </trkpt>
      <trkpt lat="44.67118" lon="5.18602">
        <ele>530.1</ele>
      </trkpt>
      <trkpt lat="44.67128" lon="5.18604">
        <ele>528.4</ele>
      </trkpt>
      <trkpt lat="44.67142" lon="5.18604">
        <ele>526.5</ele>
      </trkpt>
      <trkpt lat="44.67153" lon="5.18608">
        <ele>524.2</ele>
      </trkpt>
      <trkpt lat="44.67166" lon="5.18615">
        <ele>521.1</ele>
      </trkpt>
      <trkpt lat="44.67174" lon="5.18619">
        <ele>519.4</ele>
      </trkpt>
      <trkpt lat="44.67185" lon="5.18618">
        <ele>518.4</ele>
      </trkpt>
      <trkpt lat="44.67203" lon="5.18617">
        <ele>516.6</ele>
      </trkpt>
      <trkpt lat="44.67216" lon="5.18612">
        <ele>515.7</ele>
      </trkpt>
      <trkpt lat="44.67233" lon="5.18614">
        <ele>513.7</ele>
      </trkpt>
      <trkpt lat="44.67248" lon="5.18617">
        <ele>511.8</ele>
      </trkpt>
      <trkpt lat="44.67262" lon="5.1862">
        <ele>511.7</ele>
      </trkpt>
      <trkpt lat="44.67274" lon="5.1863">
        <ele>511.7</ele>
      </trkpt>
      <trkpt lat="44.6728" lon="5.18649">
        <ele>511.8</ele>
      </trkpt>
      <trkpt lat="44.67282" lon="5.18672">
        <ele>510.7</ele>
      </trkpt>
      <trkpt lat="44.67288" lon="5.18704">
        <ele>505.2</ele>
      </trkpt>
      <trkpt lat="44.6731" lon="5.18726">
        <ele>502.4</ele>
      </trkpt>
      <trkpt lat="44.67332" lon="5.18736">
        <ele>501.4</ele>
      </trkpt>
      <trkpt lat="44.67341" lon="5.18738">
        <ele>500.8</ele>
      </trkpt>
      <trkpt lat="44.67406" lon="5.18754">
        <ele>496.3</ele>
      </trkpt>
      <trkpt lat="44.67434" lon="5.18765">
        <ele>491.2</ele>
      </trkpt>
      <trkpt lat="44.67456" lon="5.18773">
        <ele>487.1</ele>
      </trkpt>
      <trkpt lat="44.67479" lon="5.18773">
        <ele>485.9</ele>
      </trkpt>
      <trkpt lat="44.67505" lon="5.18758">
        <ele>491.2</ele>
      </trkpt>
      <trkpt lat="44.6753" lon="5.18754">
        <ele>489.5</ele>
      </trkpt>
      <trkpt lat="44.67554" lon="5.18756">
        <ele>484.7</ele>
      </trkpt>
      <trkpt lat="44.6758" lon="5.18754">
        <ele>481.6</ele>
      </trkpt>
      <trkpt lat="44.67614" lon="5.18754">
        <ele>479</ele>
      </trkpt>
      <trkpt lat="44.67708" lon="5.1875">
        <ele>476.4</ele>
      </trkpt>
      <trkpt lat="44.67734" lon="5.18755">
        <ele>473.7</ele>
      </trkpt>
      <trkpt lat="44.67759" lon="5.18777">
        <ele>466.2</ele>
      </trkpt>
      <trkpt lat="44.67784" lon="5.18786">
        <ele>463.5</ele>
      </trkpt>
      <trkpt lat="44.67802" lon="5.18785">
        <ele>464.2</ele>
      </trkpt>
      <trkpt lat="44.67845" lon="5.18766">
        <ele>469.5</ele>
      </trkpt>
      <trkpt lat="44.67859" lon="5.18768">
        <ele>469.4</ele>
      </trkpt>
      <trkpt lat="44.67873" lon="5.18791">
        <ele>464.9</ele>
      </trkpt>
      <trkpt lat="44.67878" lon="5.18788">
        <ele>465.6</ele>
      </trkpt>
      <trkpt lat="44.67882" lon="5.18789">
        <ele>465.7</ele>
      </trkpt>
      <trkpt lat="44.67884" lon="5.1879">
        <ele>465.4</ele>
      </trkpt>
      <trkpt lat="44.67895" lon="5.18805">
        <ele>462.9</ele>
      </trkpt>
      <trkpt lat="44.67909" lon="5.1882">
        <ele>460.9</ele>
      </trkpt>
      <trkpt lat="44.67924" lon="5.18834">
        <ele>459.1</ele>
      </trkpt>
      <trkpt lat="44.67932" lon="5.1884">
        <ele>458</ele>
      </trkpt>
      <trkpt lat="44.67941" lon="5.18846">
        <ele>457.1</ele>
      </trkpt>
      <trkpt lat="44.67952" lon="5.18852">
        <ele>456.3</ele>
      </trkpt>
      <trkpt lat="44.67971" lon="5.18867">
        <ele>454.3</ele>
      </trkpt>
      <trkpt lat="44.67978" lon="5.18869">
        <ele>454.1</ele>
      </trkpt>
      <trkpt lat="44.67986" lon="5.18871">
        <ele>454.1</ele>
      </trkpt>
      <trkpt lat="44.67992" lon="5.18872">
        <ele>454.3</ele>
      </trkpt>
      <trkpt lat="44.67999" lon="5.18871">
        <ele>454.6</ele>
      </trkpt>
      <trkpt lat="44.68006" lon="5.18869">
        <ele>454.4</ele>
      </trkpt>
      <trkpt lat="44.68012" lon="5.18869">
        <ele>453.9</ele>
      </trkpt>
      <trkpt lat="44.68018" lon="5.18869">
        <ele>453.3</ele>
      </trkpt>
      <trkpt lat="44.68027" lon="5.1887">
        <ele>452.4</ele>
      </trkpt>
      <trkpt lat="44.68036" lon="5.1887">
        <ele>451.6</ele>
      </trkpt>
      <trkpt lat="44.6805" lon="5.18869">
        <ele>450.2</ele>
      </trkpt>
      <trkpt lat="44.68058" lon="5.18869">
        <ele>449.5</ele>
      </trkpt>
      <trkpt lat="44.68067" lon="5.1887">
        <ele>448.7</ele>
      </trkpt>
      <trkpt lat="44.68072" lon="5.18872">
        <ele>448.3</ele>
      </trkpt>
      <trkpt lat="44.68077" lon="5.18874">
        <ele>447.9</ele>
      </trkpt>
      <trkpt lat="44.68088" lon="5.1888">
        <ele>447.5</ele>
      </trkpt>
      <trkpt lat="44.68095" lon="5.18882">
        <ele>447.3</ele>
      </trkpt>
      <trkpt lat="44.68102" lon="5.18883">
        <ele>447.1</ele>
      </trkpt>
      <trkpt lat="44.68108" lon="5.18885">
        <ele>447.1</ele>
      </trkpt>
      <trkpt lat="44.68114" lon="5.18888">
        <ele>447.1</ele>
      </trkpt>
      <trkpt lat="44.68131" lon="5.18899">
        <ele>448.1</ele>
      </trkpt>
      <trkpt lat="44.68151" lon="5.18912">
        <ele>450</ele>
      </trkpt>
      <trkpt lat="44.68154" lon="5.18912">
        <ele>450</ele>
      </trkpt>
      <trkpt lat="44.68156" lon="5.1891">
        <ele>449.7</ele>
      </trkpt>
      <trkpt lat="44.68162" lon="5.18894">
        <ele>446.5</ele>
      </trkpt>
      <trkpt lat="44.68164" lon="5.18891">
        <ele>445.8</ele>
      </trkpt>
      <trkpt lat="44.68171" lon="5.18885">
        <ele>444.5</ele>
      </trkpt>
      <trkpt lat="44.68175" lon="5.18881">
        <ele>443.7</ele>
      </trkpt>
      <trkpt lat="44.68178" lon="5.1888">
        <ele>443.4</ele>
      </trkpt>
      <trkpt lat="44.68182" lon="5.1888">
        <ele>443.3</ele>
      </trkpt>
      <trkpt lat="44.68197" lon="5.18885">
        <ele>443.9</ele>
      </trkpt>
      <trkpt lat="44.68206" lon="5.18888">
        <ele>444.1</ele>
      </trkpt>
      <trkpt lat="44.68224" lon="5.18888">
        <ele>443.6</ele>
      </trkpt>
      <trkpt lat="44.68233" lon="5.18887">
        <ele>443.4</ele>
      </trkpt>
      <trkpt lat="44.68247" lon="5.18893">
        <ele>443.2</ele>
      </trkpt>
      <trkpt lat="44.6826" lon="5.18895">
        <ele>444.3</ele>
      </trkpt>
      <trkpt lat="44.68269" lon="5.18898">
        <ele>445.3</ele>
      </trkpt>
      <trkpt lat="44.68301" lon="5.18904">
        <ele>447.8</ele>
      </trkpt>
      <trkpt lat="44.68305" lon="5.18908">
        <ele>447.7</ele>
      </trkpt>
      <trkpt lat="44.68309" lon="5.18912">
        <ele>447.5</ele>
      </trkpt>
      <trkpt lat="44.68316" lon="5.18921">
        <ele>446.5</ele>
      </trkpt>
      <trkpt lat="44.68318" lon="5.18925">
        <ele>446</ele>
      </trkpt>
      <trkpt lat="44.68321" lon="5.18932">
        <ele>445</ele>
      </trkpt>
      <trkpt lat="44.68334" lon="5.18949">
        <ele>442.1</ele>
      </trkpt>
      <trkpt lat="44.68338" lon="5.18953">
        <ele>441</ele>
      </trkpt>
      <trkpt lat="44.68342" lon="5.18956">
        <ele>440.2</ele>
      </trkpt>
      <trkpt lat="44.6835" lon="5.18959">
        <ele>439</ele>
      </trkpt>
      <trkpt lat="44.68365" lon="5.18964">
        <ele>437.1</ele>
      </trkpt>
      <trkpt lat="44.68373" lon="5.18967">
        <ele>436.1</ele>
      </trkpt>
      <trkpt lat="44.6838" lon="5.1897">
        <ele>435.1</ele>
      </trkpt>
      <trkpt lat="44.68384" lon="5.18973">
        <ele>434.5</ele>
      </trkpt>
      <trkpt lat="44.68386" lon="5.18977">
        <ele>433.7</ele>
      </trkpt>
      <trkpt lat="44.6839" lon="5.18986">
        <ele>432.3</ele>
      </trkpt>
      <trkpt lat="44.68392" lon="5.18991">
        <ele>431.5</ele>
      </trkpt>
      <trkpt lat="44.68392" lon="5.18995">
        <ele>430.9</ele>
      </trkpt>
      <trkpt lat="44.68392" lon="5.19">
        <ele>430.3</ele>
      </trkpt>
      <trkpt lat="44.6839" lon="5.19008">
        <ele>429.7</ele>
      </trkpt>
      <trkpt lat="44.68389" lon="5.19013">
        <ele>429.2</ele>
      </trkpt>
      <trkpt lat="44.68389" lon="5.19019">
        <ele>428.8</ele>
      </trkpt>
      <trkpt lat="44.68389" lon="5.19025">
        <ele>428.3</ele>
      </trkpt>
      <trkpt lat="44.68391" lon="5.19032">
        <ele>427.6</ele>
      </trkpt>
      <trkpt lat="44.68393" lon="5.19038">
        <ele>427.1</ele>
      </trkpt>
      <trkpt lat="44.68398" lon="5.19049">
        <ele>426.4</ele>
      </trkpt>
      <trkpt lat="44.68403" lon="5.19059">
        <ele>425.8</ele>
      </trkpt>
      <trkpt lat="44.68405" lon="5.19064">
        <ele>425.5</ele>
      </trkpt>
      <trkpt lat="44.68406" lon="5.1907">
        <ele>425.2</ele>
      </trkpt>
      <trkpt lat="44.68408" lon="5.19073">
        <ele>425.1</ele>
      </trkpt>
      <trkpt lat="44.68425" lon="5.19093">
        <ele>423</ele>
      </trkpt>
      <trkpt lat="44.68432" lon="5.191">
        <ele>421.4</ele>
      </trkpt>
      <trkpt lat="44.68448" lon="5.19118">
        <ele>417.8</ele>
      </trkpt>
      <trkpt lat="44.68453" lon="5.19122">
        <ele>417</ele>
      </trkpt>
      <trkpt lat="44.68458" lon="5.19125">
        <ele>416.1</ele>
      </trkpt>
      <trkpt lat="44.68462" lon="5.19127">
        <ele>415.4</ele>
      </trkpt>
      <trkpt lat="44.68466" lon="5.19127">
        <ele>414.9</ele>
      </trkpt>
      <trkpt lat="44.68471" lon="5.19127">
        <ele>414.2</ele>
      </trkpt>
      <trkpt lat="44.68477" lon="5.19126">
        <ele>413.5</ele>
      </trkpt>
      <trkpt lat="44.68482" lon="5.19123">
        <ele>413</ele>
      </trkpt>
      <trkpt lat="44.68499" lon="5.19106">
        <ele>411.3</ele>
      </trkpt>
      <trkpt lat="44.68504" lon="5.19102">
        <ele>410.9</ele>
      </trkpt>
      <trkpt lat="44.68523" lon="5.19096">
        <ele>408.9</ele>
      </trkpt>
      <trkpt lat="44.68528" lon="5.19095">
        <ele>408.4</ele>
      </trkpt>
      <trkpt lat="44.68537" lon="5.19096">
        <ele>407.2</ele>
      </trkpt>
      <trkpt lat="44.68545" lon="5.19095">
        <ele>406.3</ele>
      </trkpt>
      <trkpt lat="44.68552" lon="5.19092">
        <ele>405.6</ele>
      </trkpt>
      <trkpt lat="44.68557" lon="5.19089">
        <ele>405</ele>
      </trkpt>
      <trkpt lat="44.68561" lon="5.19088">
        <ele>404.6</ele>
      </trkpt>
      <trkpt lat="44.68564" lon="5.19089">
        <ele>404.3</ele>
      </trkpt>
      <trkpt lat="44.68568" lon="5.19092">
        <ele>403.7</ele>
      </trkpt>
      <trkpt lat="44.68574" lon="5.19099">
        <ele>402.9</ele>
      </trkpt>
      <trkpt lat="44.68578" lon="5.19109">
        <ele>402.3</ele>
      </trkpt>
      <trkpt lat="44.68583" lon="5.19121">
        <ele>401.6</ele>
      </trkpt>
      <trkpt lat="44.6859" lon="5.19142">
        <ele>401.2</ele>
      </trkpt>
      <trkpt lat="44.68596" lon="5.19155">
        <ele>401</ele>
      </trkpt>
      <trkpt lat="44.68602" lon="5.19167">
        <ele>400.7</ele>
      </trkpt>
      <trkpt lat="44.68607" lon="5.19174">
        <ele>399.8</ele>
      </trkpt>
      <trkpt lat="44.68609" lon="5.19178">
        <ele>399.2</ele>
      </trkpt>
      <trkpt lat="44.6861" lon="5.19181">
        <ele>398.9</ele>
      </trkpt>
      <trkpt lat="44.68611" lon="5.19184">
        <ele>398.5</ele>
      </trkpt>
      <trkpt lat="44.68611" lon="5.19187">
        <ele>398.1</ele>
      </trkpt>
      <trkpt lat="44.6861" lon="5.1919">
        <ele>397.8</ele>
      </trkpt>
      <trkpt lat="44.68609" lon="5.19196">
        <ele>396.9</ele>
      </trkpt>
      <trkpt lat="44.68607" lon="5.1921">
        <ele>395.2</ele>
      </trkpt>
      <trkpt lat="44.68607" lon="5.19219">
        <ele>394</ele>
      </trkpt>
      <trkpt lat="44.68608" lon="5.19227">
        <ele>393</ele>
      </trkpt>
      <trkpt lat="44.68611" lon="5.19233">
        <ele>392.2</ele>
      </trkpt>
      <trkpt lat="44.68613" lon="5.19236">
        <ele>391.8</ele>
      </trkpt>
      <trkpt lat="44.68616" lon="5.19238">
        <ele>391.6</ele>
      </trkpt>
      <trkpt lat="44.68619" lon="5.19237">
        <ele>391.7</ele>
      </trkpt>
      <trkpt lat="44.68624" lon="5.19234">
        <ele>392.1</ele>
      </trkpt>
      <trkpt lat="44.68631" lon="5.19232">
        <ele>392.3</ele>
      </trkpt>
      <trkpt lat="44.68638" lon="5.19232">
        <ele>392.3</ele>
      </trkpt>
      <trkpt lat="44.68663" lon="5.1923">
        <ele>392.4</ele>
      </trkpt>
      <trkpt lat="44.68681" lon="5.19237">
        <ele>390.4</ele>
      </trkpt>
      <trkpt lat="44.68698" lon="5.19243">
        <ele>388.1</ele>
      </trkpt>
      <trkpt lat="44.68711" lon="5.19247">
        <ele>386.6</ele>
      </trkpt>
      <trkpt lat="44.68717" lon="5.19247">
        <ele>386.1</ele>
      </trkpt>
      <trkpt lat="44.68725" lon="5.19246">
        <ele>385.6</ele>
      </trkpt>
      <trkpt lat="44.68731" lon="5.19246">
        <ele>385</ele>
      </trkpt>
      <trkpt lat="44.68737" lon="5.1925">
        <ele>384.1</ele>
      </trkpt>
      <trkpt lat="44.68767" lon="5.19282">
        <ele>376.3</ele>
      </trkpt>
      <trkpt lat="44.68781" lon="5.19298">
        <ele>373.2</ele>
      </trkpt>
      <trkpt lat="44.68791" lon="5.19307">
        <ele>371.4</ele>
      </trkpt>
      <trkpt lat="44.68802" lon="5.19314">
        <ele>369.9</ele>
      </trkpt>
      <trkpt lat="44.68813" lon="5.1932">
        <ele>368.8</ele>
      </trkpt>
      <trkpt lat="44.68825" lon="5.19325">
        <ele>367.9</ele>
      </trkpt>
      <trkpt lat="44.68842" lon="5.19333">
        <ele>365.6</ele>
      </trkpt>
      <trkpt lat="44.6888" lon="5.19356">
        <ele>360.3</ele>
      </trkpt>
      <trkpt lat="44.68903" lon="5.19375">
        <ele>356.5</ele>
      </trkpt>
      <trkpt lat="44.68913" lon="5.19387">
        <ele>354.4</ele>
      </trkpt>
      <trkpt lat="44.68919" lon="5.19395">
        <ele>353</ele>
      </trkpt>
      <trkpt lat="44.68923" lon="5.19402">
        <ele>352</ele>
      </trkpt>
      <trkpt lat="44.6892" lon="5.19402">
        <ele>352</ele>
      </trkpt>
      <trkpt lat="44.68919" lon="5.19403">
        <ele>351.9</ele>
      </trkpt>
      <trkpt lat="44.68917" lon="5.19405">
        <ele>351.6</ele>
      </trkpt>
      <trkpt lat="44.68917" lon="5.19408">
        <ele>351.2</ele>
      </trkpt>
      <trkpt lat="44.68918" lon="5.19412">
        <ele>350.7</ele>
      </trkpt>
      <trkpt lat="44.68919" lon="5.19415">
        <ele>350.2</ele>
      </trkpt>
      <trkpt lat="44.68921" lon="5.19417">
        <ele>349.9</ele>
      </trkpt>
      <trkpt lat="44.68931" lon="5.19424">
        <ele>349.1</ele>
      </trkpt>
      <trkpt lat="44.68936" lon="5.19427">
        <ele>348.6</ele>
      </trkpt>
      <trkpt lat="44.68939" lon="5.19431">
        <ele>348</ele>
      </trkpt>
      <trkpt lat="44.68942" lon="5.19436">
        <ele>347.4</ele>
      </trkpt>
      <trkpt lat="44.68944" lon="5.19442">
        <ele>346.6</ele>
      </trkpt>
      <trkpt lat="44.68947" lon="5.19454">
        <ele>344.9</ele>
      </trkpt>
      <trkpt lat="44.68946" lon="5.19458">
        <ele>344.5</ele>
      </trkpt>
      <trkpt lat="44.6898" lon="5.19494">
        <ele>336.9</ele>
      </trkpt>
      <trkpt lat="44.68986" lon="5.19501">
        <ele>335.4</ele>
      </trkpt>
      <trkpt lat="44.6899" lon="5.19503">
        <ele>334.9</ele>
      </trkpt>
      <trkpt lat="44.68995" lon="5.19505">
        <ele>334.3</ele>
      </trkpt>
      <trkpt lat="44.69001" lon="5.19505">
        <ele>333.7</ele>
      </trkpt>
      <trkpt lat="44.69006" lon="5.19505">
        <ele>332.6</ele>
      </trkpt>
      <trkpt lat="44.6901" lon="5.19503">
        <ele>331.8</ele>
      </trkpt>
      <trkpt lat="44.69012" lon="5.19502">
        <ele>331.3</ele>
      </trkpt>
      <trkpt lat="44.69013" lon="5.19506">
        <ele>331</ele>
      </trkpt>
      <trkpt lat="44.6901" lon="5.19511">
        <ele>331.5</ele>
      </trkpt>
      <trkpt lat="44.69006" lon="5.19515">
        <ele>332.2</ele>
      </trkpt>
      <trkpt lat="44.69002" lon="5.19518">
        <ele>332.9</ele>
      </trkpt>
      <trkpt lat="44.68997" lon="5.19522">
        <ele>333.5</ele>
      </trkpt>
      <trkpt lat="44.68991" lon="5.19524">
        <ele>334</ele>
      </trkpt>
      <trkpt lat="44.69012" lon="5.19552">
        <ele>330</ele>
      </trkpt>
      <trkpt lat="44.69038" lon="5.1957">
        <ele>325.5</ele>
      </trkpt>
      <trkpt lat="44.69057" lon="5.19566">
        <ele>322.5</ele>
      </trkpt>
      <trkpt lat="44.69065" lon="5.19579">
        <ele>321.5</ele>
      </trkpt>
      <trkpt lat="44.69138" lon="5.19627">
        <ele>311.9</ele>
      </trkpt>
      <trkpt lat="44.69161" lon="5.19652">
        <ele>308</ele>
      </trkpt>
      <trkpt lat="44.69166" lon="5.19678">
        <ele>307</ele>
      </trkpt>
      <trkpt lat="44.69165" lon="5.1969">
        <ele>306.7</ele>
      </trkpt>
      <trkpt lat="44.69173" lon="5.19664">
        <ele>306.3</ele>
      </trkpt>
      <trkpt lat="44.69178" lon="5.19647">
        <ele>305.3</ele>
      </trkpt>
      <trkpt lat="44.69187" lon="5.19638">
        <ele>304.2</ele>
      </trkpt>
      <trkpt lat="44.69216" lon="5.19627">
        <ele>301.1</ele>
      </trkpt>
      <trkpt lat="44.69228" lon="5.19623">
        <ele>299.7</ele>
      </trkpt>
      <trkpt lat="44.69329" lon="5.19625">
        <ele>293.7</ele>
      </trkpt>
      <trkpt lat="44.69361" lon="5.19625">
        <ele>291.2</ele>
      </trkpt>
      <trkpt lat="44.69388" lon="5.19626">
        <ele>288.9</ele>
      </trkpt>
      <trkpt lat="44.69406" lon="5.19625">
        <ele>287.4</ele>
      </trkpt>
      <trkpt lat="44.69414" lon="5.19629">
        <ele>286.8</ele>
      </trkpt>
      <trkpt lat="44.69422" lon="5.19641">
        <ele>285.4</ele>
      </trkpt>
      <trkpt lat="44.69437" lon="5.19675">
        <ele>282.6</ele>
      </trkpt>
      <trkpt lat="44.69449" lon="5.19698">
        <ele>280</ele>
      </trkpt>
      <trkpt lat="44.69477" lon="5.19833">
        <ele>278.1</ele>
      </trkpt>
      <trkpt lat="44.69482" lon="5.19878">
        <ele>275</ele>
      </trkpt>
      <trkpt lat="44.69481" lon="5.19895">
        <ele>274.4</ele>
      </trkpt>
      <trkpt lat="44.69478" lon="5.19903">
        <ele>274.6</ele>
      </trkpt>
      <trkpt lat="44.69466" lon="5.19908">
        <ele>276</ele>
      </trkpt>
      <trkpt lat="44.69469" lon="5.19921">
        <ele>275.1</ele>
      </trkpt>
      <trkpt lat="44.69471" lon="5.19938">
        <ele>274.8</ele>
      </trkpt>
      <trkpt lat="44.69471" lon="5.19954">
        <ele>274.8</ele>
      </trkpt>
      <trkpt lat="44.69473" lon="5.19968">
        <ele>274.6</ele>
      </trkpt>
      <trkpt lat="44.69478" lon="5.19981">
        <ele>274.2</ele>
      </trkpt>
      <trkpt lat="44.69501" lon="5.20018">
        <ele>273.5</ele>
      </trkpt>
      <trkpt lat="44.69504" lon="5.20027">
        <ele>273.3</ele>
      </trkpt>
      <trkpt lat="44.69506" lon="5.20037">
        <ele>273.4</ele>
      </trkpt>
      <trkpt lat="44.69511" lon="5.20033">
        <ele>272.5</ele>
      </trkpt>
      <trkpt lat="44.69507" lon="5.20019">
        <ele>272.6</ele>
      </trkpt>
      <trkpt lat="44.69497" lon="5.19991">
        <ele>273</ele>
      </trkpt>
      <trkpt lat="44.69503" lon="5.19946">
        <ele>271.4</ele>
      </trkpt>
      <trkpt lat="44.69506" lon="5.19895">
        <ele>270.8</ele>
      </trkpt>
      <trkpt lat="44.69505" lon="5.19828">
        <ele>272.1</ele>
      </trkpt>
      <trkpt lat="44.69504" lon="5.19792">
        <ele>270.1</ele>
      </trkpt>
      <trkpt lat="44.69506" lon="5.19755">
        <ele>267.8</ele>
      </trkpt>
      <trkpt lat="44.69507" lon="5.19745">
        <ele>267.4</ele>
      </trkpt>
      <trkpt lat="44.6951" lon="5.19731">
        <ele>267.2</ele>
      </trkpt>
      <trkpt lat="44.69521" lon="5.19714">
        <ele>266.3</ele>
      </trkpt>
      <trkpt lat="44.69524" lon="5.19716">
        <ele>266</ele>
      </trkpt>
      <trkpt lat="44.69566" lon="5.1972">
        <ele>262.4</ele>
      </trkpt>
      <trkpt lat="44.69577" lon="5.1972">
        <ele>261.5</ele>
      </trkpt>
      <trkpt lat="44.69575" lon="5.19709">
        <ele>261.7</ele>
      </trkpt>
      <trkpt lat="44.6958" lon="5.19513">
        <ele>260.2</ele>
      </trkpt>
      <trkpt lat="44.69583" lon="5.19511">
        <ele>260</ele>
      </trkpt>
      <trkpt lat="44.69607" lon="5.19522">
        <ele>260.6</ele>
      </trkpt>
      <trkpt lat="44.69614" lon="5.19525">
        <ele>260.9</ele>
      </trkpt>
      <trkpt lat="44.69631" lon="5.19546">
        <ele>261.5</ele>
      </trkpt>
      <trkpt lat="44.69632" lon="5.19554">
        <ele>261.6</ele>
      </trkpt>
      <trkpt lat="44.69638" lon="5.19558">
        <ele>261.8</ele>
      </trkpt>
      <trkpt lat="44.69656" lon="5.19574">
        <ele>262.5</ele>
      </trkpt>
      <trkpt lat="44.69657" lon="5.19568">
        <ele>262.5</ele>
      </trkpt>
      <trkpt lat="44.69663" lon="5.19534">
        <ele>262.3</ele>
      </trkpt>
      <trkpt lat="44.69666" lon="5.19518">
        <ele>262.2</ele>
      </trkpt>
      <trkpt lat="44.69669" lon="5.19497">
        <ele>262.1</ele>
      </trkpt>
      <trkpt lat="44.69675" lon="5.19439">
        <ele>263.6</ele>
      </trkpt>
      <trkpt lat="44.69677" lon="5.19405">
        <ele>264.4</ele>
      </trkpt>
      <trkpt lat="44.69684" lon="5.19378">
        <ele>265</ele>
      </trkpt>
      <trkpt lat="44.6969" lon="5.19344">
        <ele>265.7</ele>
      </trkpt>
      <trkpt lat="44.69694" lon="5.19311">
        <ele>266.2</ele>
      </trkpt>
      <trkpt lat="44.69702" lon="5.19246">
        <ele>267.1</ele>
      </trkpt>
      <trkpt lat="44.69704" lon="5.19216">
        <ele>267.3</ele>
      </trkpt>
      <trkpt lat="44.69705" lon="5.19177">
        <ele>267.4</ele>
      </trkpt>
      <trkpt lat="44.69704" lon="5.19149">
        <ele>268</ele>
      </trkpt>
      <trkpt lat="44.69701" lon="5.19123">
        <ele>268.7</ele>
      </trkpt>
      <trkpt lat="44.69692" lon="5.19047">
        <ele>271.3</ele>
      </trkpt>
      <trkpt lat="44.69676" lon="5.18931">
        <ele>274.8</ele>
      </trkpt>
      <trkpt lat="44.69673" lon="5.18909">
        <ele>274.8</ele>
      </trkpt>
      <trkpt lat="44.69676" lon="5.1889">
        <ele>275.8</ele>
      </trkpt>
      <trkpt lat="44.69679" lon="5.18861">
        <ele>277.5</ele>
      </trkpt>
      <trkpt lat="44.69683" lon="5.18829">
        <ele>279.1</ele>
      </trkpt>
      <trkpt lat="44.69689" lon="5.18777">
        <ele>278.4</ele>
      </trkpt>
      <trkpt lat="44.69698" lon="5.18742">
        <ele>278.7</ele>
      </trkpt>
      <trkpt lat="44.69708" lon="5.18709">
        <ele>278.3</ele>
      </trkpt>
      <trkpt lat="44.69727" lon="5.18659">
        <ele>276.9</ele>
      </trkpt>
      <trkpt lat="44.69744" lon="5.18628">
        <ele>277</ele>
      </trkpt>
      <trkpt lat="44.6976" lon="5.18615">
        <ele>277.9</ele>
      </trkpt>
      <trkpt lat="44.69763" lon="5.1859">
        <ele>276.3</ele>
      </trkpt>
      <trkpt lat="44.69765" lon="5.18564">
        <ele>276.8</ele>
      </trkpt>
      <trkpt lat="44.69768" lon="5.18513">
        <ele>279.7</ele>
      </trkpt>
      <trkpt lat="44.69773" lon="5.18481">
        <ele>281.5</ele>
      </trkpt>
      <trkpt lat="44.69782" lon="5.184">
        <ele>283.8</ele>
      </trkpt>
      <trkpt lat="44.69786" lon="5.18375">
        <ele>283.8</ele>
      </trkpt>
      <trkpt lat="44.69788" lon="5.18363">
        <ele>283.9</ele>
      </trkpt>
      <trkpt lat="44.6979" lon="5.18353">
        <ele>283.9</ele>
      </trkpt>
      <trkpt lat="44.69793" lon="5.18337">
        <ele>283.9</ele>
      </trkpt>
      <trkpt lat="44.69821" lon="5.18278">
        <ele>285.2</ele>
      </trkpt>
      <trkpt lat="44.69829" lon="5.18267">
        <ele>285.8</ele>
      </trkpt>
      <trkpt lat="44.69839" lon="5.18263">
        <ele>286.6</ele>
      </trkpt>
      <trkpt lat="44.6985" lon="5.18265">
        <ele>287.5</ele>
      </trkpt>
      <trkpt lat="44.69906" lon="5.18295">
        <ele>295.2</ele>
      </trkpt>
      <trkpt lat="44.69919" lon="5.183">
        <ele>296.7</ele>
      </trkpt>
      <trkpt lat="44.69934" lon="5.18297">
        <ele>297</ele>
      </trkpt>
      <trkpt lat="44.69961" lon="5.18283">
        <ele>296.2</ele>
      </trkpt>
      <trkpt lat="44.69988" lon="5.18274">
        <ele>295.9</ele>
      </trkpt>
      <trkpt lat="44.70009" lon="5.18271">
        <ele>297.1</ele>
      </trkpt>
      <trkpt lat="44.70051" lon="5.18287">
        <ele>303.5</ele>
      </trkpt>
      <trkpt lat="44.70073" lon="5.18302">
        <ele>306.4</ele>
      </trkpt>
      <trkpt lat="44.70091" lon="5.18317">
        <ele>308.6</ele>
      </trkpt>
      <trkpt lat="44.70118" lon="5.18327">
        <ele>311.8</ele>
      </trkpt>
      <trkpt lat="44.70174" lon="5.18337">
        <ele>318.3</ele>
      </trkpt>
      <trkpt lat="44.70234" lon="5.18362">
        <ele>327.6</ele>
      </trkpt>
      <trkpt lat="44.70242" lon="5.18368">
        <ele>328.9</ele>
      </trkpt>
      <trkpt lat="44.70247" lon="5.18382">
        <ele>329.8</ele>
      </trkpt>
      <trkpt lat="44.70249" lon="5.18403">
        <ele>330.6</ele>
      </trkpt>
      <trkpt lat="44.70248" lon="5.18438">
        <ele>331.6</ele>
      </trkpt>
      <trkpt lat="44.70231" lon="5.18589">
        <ele>332.2</ele>
      </trkpt>
      <trkpt lat="44.70232" lon="5.18602">
        <ele>331.4</ele>
      </trkpt>
      <trkpt lat="44.70237" lon="5.18608">
        <ele>331.3</ele>
      </trkpt>
      <trkpt lat="44.70276" lon="5.18584">
        <ele>335.4</ele>
      </trkpt>
      <trkpt lat="44.70292" lon="5.18579">
        <ele>336.6</ele>
      </trkpt>
      <trkpt lat="44.70316" lon="5.18562">
        <ele>339</ele>
      </trkpt>
      <trkpt lat="44.70343" lon="5.18538">
        <ele>342.2</ele>
      </trkpt>
      <trkpt lat="44.70376" lon="5.18491">
        <ele>347.2</ele>
      </trkpt>
      <trkpt lat="44.70431" lon="5.18429">
        <ele>355.1</ele>
      </trkpt>
      <trkpt lat="44.70454" lon="5.18417">
        <ele>356.5</ele>
      </trkpt>
      <trkpt lat="44.70469" lon="5.18403">
        <ele>358.2</ele>
      </trkpt>
      <trkpt lat="44.70507" lon="5.18345">
        <ele>369.3</ele>
      </trkpt>
      <trkpt lat="44.7055" lon="5.18253">
        <ele>381.6</ele>
      </trkpt>
      <trkpt lat="44.70556" lon="5.18228">
        <ele>383.3</ele>
      </trkpt>
      <trkpt lat="44.70611" lon="5.18139">
        <ele>388.8</ele>
      </trkpt>
      <trkpt lat="44.70626" lon="5.18128">
        <ele>389.3</ele>
      </trkpt>
      <trkpt lat="44.70644" lon="5.18121">
        <ele>391.2</ele>
      </trkpt>
      <trkpt lat="44.70686" lon="5.18091">
        <ele>397.9</ele>
      </trkpt>
      <trkpt lat="44.70725" lon="5.18055">
        <ele>404.3</ele>
      </trkpt>
      <trkpt lat="44.70768" lon="5.18018">
        <ele>415.2</ele>
      </trkpt>
      <trkpt lat="44.70782" lon="5.18017">
        <ele>418.7</ele>
      </trkpt>
      <trkpt lat="44.7081" lon="5.18028">
        <ele>424.4</ele>
      </trkpt>
      <trkpt lat="44.70816" lon="5.18031">
        <ele>425.5</ele>
      </trkpt>
      <trkpt lat="44.70822" lon="5.18025">
        <ele>427.7</ele>
      </trkpt>
      <trkpt lat="44.7082" lon="5.18017">
        <ele>428.5</ele>
      </trkpt>
      <trkpt lat="44.70814" lon="5.18007">
        <ele>428.5</ele>
      </trkpt>
      <trkpt lat="44.70813" lon="5.17993">
        <ele>428.7</ele>
      </trkpt>
      <trkpt lat="44.70816" lon="5.17981">
        <ele>429.1</ele>
      </trkpt>
      <trkpt lat="44.70824" lon="5.17965">
        <ele>431.3</ele>
      </trkpt>
      <trkpt lat="44.70831" lon="5.17962">
        <ele>433.2</ele>
      </trkpt>
      <trkpt lat="44.70834" lon="5.17967">
        <ele>434.2</ele>
      </trkpt>
      <trkpt lat="44.70834" lon="5.17976">
        <ele>434.4</ele>
      </trkpt>
      <trkpt lat="44.70838" lon="5.17982">
        <ele>434.7</ele>
      </trkpt>
      <trkpt lat="44.70847" lon="5.17978">
        <ele>434.8</ele>
      </trkpt>
      <trkpt lat="44.70865" lon="5.17954">
        <ele>436.5</ele>
      </trkpt>
      <trkpt lat="44.70883" lon="5.1792">
        <ele>441.1</ele>
      </trkpt>
      <trkpt lat="44.70891" lon="5.17907">
        <ele>442.9</ele>
      </trkpt>
      <trkpt lat="44.70922" lon="5.17873">
        <ele>449.3</ele>
      </trkpt>
      <trkpt lat="44.70937" lon="5.17853">
        <ele>450.4</ele>
      </trkpt>
      <trkpt lat="44.70956" lon="5.17834">
        <ele>452.5</ele>
      </trkpt>
      <trkpt lat="44.70967" lon="5.17819">
        <ele>453.8</ele>
      </trkpt>
      <trkpt lat="44.70987" lon="5.17778">
        <ele>458.7</ele>
      </trkpt>
      <trkpt lat="44.70996" lon="5.17749">
        <ele>462.7</ele>
      </trkpt>
      <trkpt lat="44.71021" lon="5.17714">
        <ele>473.7</ele>
      </trkpt>
      <trkpt lat="44.71029" lon="5.17705">
        <ele>476.6</ele>
      </trkpt>
      <trkpt lat="44.71035" lon="5.17698">
        <ele>478.4</ele>
      </trkpt>
      <trkpt lat="44.71041" lon="5.17701">
        <ele>477.6</ele>
      </trkpt>
      <trkpt lat="44.71059" lon="5.17716">
        <ele>474.1</ele>
      </trkpt>
      <trkpt lat="44.71061" lon="5.17725">
        <ele>471.7</ele>
      </trkpt>
      <trkpt lat="44.71061" lon="5.17745">
        <ele>466.5</ele>
      </trkpt>
      <trkpt lat="44.71072" lon="5.17783">
        <ele>459.3</ele>
      </trkpt>
      <trkpt lat="44.71077" lon="5.17791">
        <ele>457.7</ele>
      </trkpt>
      <trkpt lat="44.71087" lon="5.17789">
        <ele>457.9</ele>
      </trkpt>
      <trkpt lat="44.71132" lon="5.17737">
        <ele>467.5</ele>
      </trkpt>
      <trkpt lat="44.7114" lon="5.17708">
        <ele>475</ele>
      </trkpt>
      <trkpt lat="44.71166" lon="5.17705">
        <ele>475</ele>
      </trkpt>
      <trkpt lat="44.71177" lon="5.17695">
        <ele>479.2</ele>
      </trkpt>
      <trkpt lat="44.71185" lon="5.17692">
        <ele>481.2</ele>
      </trkpt>
      <trkpt lat="44.7119" lon="5.17691">
        <ele>482.3</ele>
      </trkpt>
      <trkpt lat="44.71196" lon="5.17694">
        <ele>482.7</ele>
      </trkpt>
      <trkpt lat="44.71203" lon="5.17696">
        <ele>483.3</ele>
      </trkpt>
      <trkpt lat="44.71219" lon="5.17696">
        <ele>485.9</ele>
      </trkpt>
      <trkpt lat="44.71236" lon="5.17711">
        <ele>486.1</ele>
      </trkpt>
      <trkpt lat="44.71242" lon="5.17728">
        <ele>484.1</ele>
      </trkpt>
      <trkpt lat="44.71251" lon="5.1776">
        <ele>481.3</ele>
      </trkpt>
      <trkpt lat="44.71262" lon="5.17778">
        <ele>480.8</ele>
      </trkpt>
      <trkpt lat="44.71275" lon="5.17805">
        <ele>479.5</ele>
      </trkpt>
      <trkpt lat="44.71281" lon="5.1783">
        <ele>477.5</ele>
      </trkpt>
      <trkpt lat="44.7129" lon="5.17847">
        <ele>476.9</ele>
      </trkpt>
      <trkpt lat="44.71295" lon="5.1784">
        <ele>477.7</ele>
      </trkpt>
      <trkpt lat="44.71303" lon="5.17827">
        <ele>479.5</ele>
      </trkpt>
      <trkpt lat="44.71307" lon="5.17812">
        <ele>481.5</ele>
      </trkpt>
      <trkpt lat="44.71311" lon="5.17795">
        <ele>483.6</ele>
      </trkpt>
      <trkpt lat="44.71336" lon="5.17727">
        <ele>493.5</ele>
      </trkpt>
      <trkpt lat="44.71349" lon="5.17681">
        <ele>498.6</ele>
      </trkpt>
      <trkpt lat="44.7135" lon="5.17663">
        <ele>501.5</ele>
      </trkpt>
      <trkpt lat="44.7137" lon="5.17653">
        <ele>503.8</ele>
      </trkpt>
      <trkpt lat="44.714" lon="5.17649">
        <ele>504.2</ele>
      </trkpt>
      <trkpt lat="44.71452" lon="5.17661">
        <ele>501.9</ele>
      </trkpt>
      <trkpt lat="44.71469" lon="5.17671">
        <ele>499.9</ele>
      </trkpt>
      <trkpt lat="44.7148" lon="5.17679">
        <ele>498.8</ele>
      </trkpt>
      <trkpt lat="44.71486" lon="5.17668">
        <ele>501.2</ele>
      </trkpt>
      <trkpt lat="44.71472" lon="5.17621">
        <ele>513.8</ele>
      </trkpt>
      <trkpt lat="44.71488" lon="5.17596">
        <ele>521.3</ele>
      </trkpt>
      <trkpt lat="44.71487" lon="5.17571">
        <ele>529.7</ele>
      </trkpt>
      <trkpt lat="44.71494" lon="5.1756">
        <ele>534</ele>
      </trkpt>
      <trkpt lat="44.71501" lon="5.17565">
        <ele>532.2</ele>
      </trkpt>
      <trkpt lat="44.71504" lon="5.17559">
        <ele>534.4</ele>
      </trkpt>
      <trkpt lat="44.71524" lon="5.17558">
        <ele>533.2</ele>
      </trkpt>
      <trkpt lat="44.71528" lon="5.17553">
        <ele>534.6</ele>
      </trkpt>
      <trkpt lat="44.71529" lon="5.17547">
        <ele>536.8</ele>
      </trkpt>
      <trkpt lat="44.71533" lon="5.17547">
        <ele>536.6</ele>
      </trkpt>
      <trkpt lat="44.71539" lon="5.17552">
        <ele>534.1</ele>
      </trkpt>
      <trkpt lat="44.71561" lon="5.17543">
        <ele>535.7</ele>
      </trkpt>
      <trkpt lat="44.71577" lon="5.17518">
        <ele>542.6</ele>
      </trkpt>
      <trkpt lat="44.71605" lon="5.1751">
        <ele>544.6</ele>
      </trkpt>
      <trkpt lat="44.71645" lon="5.17517">
        <ele>541.9</ele>
      </trkpt>
      <trkpt lat="44.71677" lon="5.17529">
        <ele>537.6</ele>
      </trkpt>
      <trkpt lat="44.71684" lon="5.1752">
        <ele>539.6</ele>
      </trkpt>
      <trkpt lat="44.71695" lon="5.17516">
        <ele>540.1</ele>
      </trkpt>
      <trkpt lat="44.71704" lon="5.17507">
        <ele>542</ele>
      </trkpt>
      <trkpt lat="44.71711" lon="5.17497">
        <ele>544.8</ele>
      </trkpt>
      <trkpt lat="44.7173" lon="5.17489">
        <ele>546.8</ele>
      </trkpt>
      <trkpt lat="44.71768" lon="5.17468">
        <ele>553.1</ele>
      </trkpt>
      <trkpt lat="44.71795" lon="5.17463">
        <ele>554.3</ele>
      </trkpt>
      <trkpt lat="44.71821" lon="5.1746">
        <ele>554.8</ele>
      </trkpt>
      <trkpt lat="44.71841" lon="5.17455">
        <ele>556.1</ele>
      </trkpt>
      <trkpt lat="44.71847" lon="5.17449">
        <ele>558.1</ele>
      </trkpt>
      <trkpt lat="44.71858" lon="5.17447">
        <ele>558.1</ele>
      </trkpt>
      <trkpt lat="44.71871" lon="5.17437">
        <ele>561.3</ele>
      </trkpt>
      <trkpt lat="44.71869" lon="5.17433">
        <ele>562.9</ele>
      </trkpt>
      <trkpt lat="44.71858" lon="5.17435">
        <ele>562.6</ele>
      </trkpt>
      <trkpt lat="44.71845" lon="5.1743">
        <ele>565.2</ele>
      </trkpt>
      <trkpt lat="44.71876" lon="5.17411">
        <ele>571.2</ele>
      </trkpt>
      <trkpt lat="44.71909" lon="5.17396">
        <ele>576.2</ele>
      </trkpt>
      <trkpt lat="44.72002" lon="5.17363">
        <ele>587.6</ele>
      </trkpt>
      <trkpt lat="44.72053" lon="5.17338">
        <ele>599.7</ele>
      </trkpt>
      <trkpt lat="44.7207" lon="5.17334">
        <ele>602.1</ele>
      </trkpt>
      <trkpt lat="44.72087" lon="5.17331">
        <ele>603.2</ele>
      </trkpt>
      <trkpt lat="44.72083" lon="5.17326">
        <ele>602</ele>
      </trkpt>
      <trkpt lat="44.72075" lon="5.17315">
        <ele>600.1</ele>
      </trkpt>
      <trkpt lat="44.72074" lon="5.17313">
        <ele>599.8</ele>
      </trkpt>
      <trkpt lat="44.72109" lon="5.1731">
        <ele>603.5</ele>
      </trkpt>
      <trkpt lat="44.72132" lon="5.17294">
        <ele>604.3</ele>
      </trkpt>
      <trkpt lat="44.72165" lon="5.17269">
        <ele>604.3</ele>
      </trkpt>
      <trkpt lat="44.72198" lon="5.1725">
        <ele>601.7</ele>
      </trkpt>
      <trkpt lat="44.72222" lon="5.17244">
        <ele>602.5</ele>
      </trkpt>
      <trkpt lat="44.7224" lon="5.17252">
        <ele>602.7</ele>
      </trkpt>
      <trkpt lat="44.72249" lon="5.17242">
        <ele>604</ele>
      </trkpt>
      <trkpt lat="44.72252" lon="5.17226">
        <ele>606.2</ele>
      </trkpt>
      <trkpt lat="44.72252" lon="5.17194">
        <ele>610.6</ele>
      </trkpt>
      <trkpt lat="44.72258" lon="5.17173">
        <ele>614.6</ele>
      </trkpt>
      <trkpt lat="44.72259" lon="5.17134">
        <ele>617.1</ele>
      </trkpt>
      <trkpt lat="44.72264" lon="5.17125">
        <ele>619.2</ele>
      </trkpt>
      <trkpt lat="44.72277" lon="5.17063">
        <ele>630.3</ele>
      </trkpt>
      <trkpt lat="44.72289" lon="5.17015">
        <ele>639.8</ele>
      </trkpt>
      <trkpt lat="44.7231" lon="5.16954">
        <ele>652.3</ele>
      </trkpt>
      <trkpt lat="44.72314" lon="5.1691">
        <ele>652.9</ele>
      </trkpt>
      <trkpt lat="44.72312" lon="5.1687">
        <ele>649.1</ele>
      </trkpt>
      <trkpt lat="44.72309" lon="5.16843">
        <ele>646.5</ele>
      </trkpt>
      <trkpt lat="44.72313" lon="5.1683">
        <ele>647.3</ele>
      </trkpt>
      <trkpt lat="44.72322" lon="5.16823">
        <ele>650.4</ele>
      </trkpt>
      <trkpt lat="44.72341" lon="5.16812">
        <ele>652.9</ele>
      </trkpt>
      <trkpt lat="44.72375" lon="5.16811">
        <ele>651.3</ele>
      </trkpt>
      <trkpt lat="44.72421" lon="5.16812">
        <ele>649.4</ele>
      </trkpt>
      <trkpt lat="44.72447" lon="5.16819">
        <ele>648.4</ele>
      </trkpt>
      <trkpt lat="44.72508" lon="5.16861">
        <ele>650.9</ele>
      </trkpt>
      <trkpt lat="44.72569" lon="5.16881">
        <ele>650.4</ele>
      </trkpt>
      <trkpt lat="44.72615" lon="5.16915">
        <ele>653.8</ele>
      </trkpt>
      <trkpt lat="44.72672" lon="5.16934">
        <ele>650</ele>
      </trkpt>
      <trkpt lat="44.72705" lon="5.16939">
        <ele>645.7</ele>
      </trkpt>
      <trkpt lat="44.72731" lon="5.1692">
        <ele>643.8</ele>
      </trkpt>
      <trkpt lat="44.7277" lon="5.16876">
        <ele>635</ele>
      </trkpt>
      <trkpt lat="44.72813" lon="5.16815">
        <ele>632.6</ele>
      </trkpt>
      <trkpt lat="44.72836" lon="5.16794">
        <ele>632.3</ele>
      </trkpt>
      <trkpt lat="44.72873" lon="5.16741">
        <ele>626.4</ele>
      </trkpt>
      <trkpt lat="44.72891" lon="5.16712">
        <ele>622.7</ele>
      </trkpt>
      <trkpt lat="44.72916" lon="5.16678">
        <ele>622.9</ele>
      </trkpt>
      <trkpt lat="44.72929" lon="5.16672">
        <ele>620.8</ele>
      </trkpt>
      <trkpt lat="44.7293" lon="5.1669">
        <ele>619.9</ele>
      </trkpt>
      <trkpt lat="44.72922" lon="5.16717">
        <ele>621.4</ele>
      </trkpt>
      <trkpt lat="44.72912" lon="5.16744">
        <ele>623.4</ele>
      </trkpt>
      <trkpt lat="44.72896" lon="5.16768">
        <ele>621.5</ele>
      </trkpt>
      <trkpt lat="44.72873" lon="5.16814">
        <ele>620.1</ele>
      </trkpt>
      <trkpt lat="44.72845" lon="5.16882">
        <ele>616.8</ele>
      </trkpt>
      <trkpt lat="44.72818" lon="5.16925">
        <ele>616.2</ele>
      </trkpt>
      <trkpt lat="44.72776" lon="5.16982">
        <ele>618.7</ele>
      </trkpt>
      <trkpt lat="44.72763" lon="5.1702">
        <ele>618.1</ele>
      </trkpt>
      <trkpt lat="44.72757" lon="5.17044">
        <ele>618.2</ele>
      </trkpt>
      <trkpt lat="44.72757" lon="5.17064">
        <ele>615.8</ele>
      </trkpt>
      <trkpt lat="44.72765" lon="5.17081">
        <ele>609.1</ele>
      </trkpt>
      <trkpt lat="44.72773" lon="5.17101">
        <ele>604</ele>
      </trkpt>
      <trkpt lat="44.7277" lon="5.17126">
        <ele>603.9</ele>
      </trkpt>
      <trkpt lat="44.72759" lon="5.17157">
        <ele>607.4</ele>
      </trkpt>
      <trkpt lat="44.72756" lon="5.17185">
        <ele>605.3</ele>
      </trkpt>
      <trkpt lat="44.72754" lon="5.17223">
        <ele>600</ele>
      </trkpt>
      <trkpt lat="44.72751" lon="5.17268">
        <ele>594.8</ele>
      </trkpt>
      <trkpt lat="44.72745" lon="5.17297">
        <ele>592.3</ele>
      </trkpt>
      <trkpt lat="44.7275" lon="5.1732">
        <ele>589.4</ele>
      </trkpt>
      <trkpt lat="44.72768" lon="5.1736">
        <ele>582.3</ele>
      </trkpt>
      <trkpt lat="44.72773" lon="5.17383">
        <ele>580.3</ele>
      </trkpt>
      <trkpt lat="44.72784" lon="5.17413">
        <ele>577.9</ele>
      </trkpt>
      <trkpt lat="44.72799" lon="5.17445">
        <ele>573.1</ele>
      </trkpt>
      <trkpt lat="44.72811" lon="5.17461">
        <ele>570.9</ele>
      </trkpt>
      <trkpt lat="44.72846" lon="5.17477">
        <ele>570.6</ele>
      </trkpt>
      <trkpt lat="44.72866" lon="5.17491">
        <ele>572.6</ele>
      </trkpt>
      <trkpt lat="44.7289" lon="5.17506">
        <ele>575.4</ele>
      </trkpt>
      <trkpt lat="44.72917" lon="5.17516">
        <ele>578.9</ele>
      </trkpt>
      <trkpt lat="44.72929" lon="5.17525">
        <ele>581.5</ele>
      </trkpt>
      <trkpt lat="44.72945" lon="5.17541">
        <ele>585.2</ele>
      </trkpt>
      <trkpt lat="44.72957" lon="5.17558">
        <ele>588.5</ele>
      </trkpt>
      <trkpt lat="44.7297" lon="5.17587">
        <ele>591.3</ele>
      </trkpt>
      <trkpt lat="44.72996" lon="5.17638">
        <ele>593.1</ele>
      </trkpt>
      <trkpt lat="44.73007" lon="5.17686">
        <ele>590.2</ele>
      </trkpt>
      <trkpt lat="44.73006" lon="5.1773">
        <ele>585</ele>
      </trkpt>
      <trkpt lat="44.73011" lon="5.17742">
        <ele>583.6</ele>
      </trkpt>
      <trkpt lat="44.73027" lon="5.17733">
        <ele>584.9</ele>
      </trkpt>
      <trkpt lat="44.73063" lon="5.17703">
        <ele>593.4</ele>
      </trkpt>
      <trkpt lat="44.73094" lon="5.1769">
        <ele>599.8</ele>
      </trkpt>
      <trkpt lat="44.73138" lon="5.17695">
        <ele>600</ele>
      </trkpt>
      <trkpt lat="44.73171" lon="5.17723">
        <ele>596.4</ele>
      </trkpt>
      <trkpt lat="44.73217" lon="5.17793">
        <ele>594.5</ele>
      </trkpt>
      <trkpt lat="44.73238" lon="5.17828">
        <ele>591.5</ele>
      </trkpt>
      <trkpt lat="44.73249" lon="5.17835">
        <ele>592.3</ele>
      </trkpt>
      <trkpt lat="44.73265" lon="5.17829">
        <ele>591.2</ele>
      </trkpt>
      <trkpt lat="44.73318" lon="5.17801">
        <ele>591.5</ele>
      </trkpt>
      <trkpt lat="44.73371" lon="5.17786">
        <ele>594.1</ele>
      </trkpt>
      <trkpt lat="44.73399" lon="5.1779">
        <ele>592.1</ele>
      </trkpt>
      <trkpt lat="44.73449" lon="5.17844">
        <ele>574.1</ele>
      </trkpt>
      <trkpt lat="44.73465" lon="5.17855">
        <ele>572.2</ele>
      </trkpt>
      <trkpt lat="44.73495" lon="5.17864">
        <ele>570.5</ele>
      </trkpt>
      <trkpt lat="44.73513" lon="5.17872">
        <ele>568.7</ele>
      </trkpt>
      <trkpt lat="44.73531" lon="5.17896">
        <ele>566.3</ele>
      </trkpt>
      <trkpt lat="44.73542" lon="5.1793">
        <ele>563.6</ele>
      </trkpt>
      <trkpt lat="44.7356" lon="5.17938">
        <ele>562.3</ele>
      </trkpt>
      <trkpt lat="44.73618" lon="5.17958">
        <ele>557.9</ele>
      </trkpt>
      <trkpt lat="44.7366" lon="5.17979">
        <ele>554.4</ele>
      </trkpt>
      <trkpt lat="44.73677" lon="5.18011">
        <ele>550.9</ele>
      </trkpt>
      <trkpt lat="44.73697" lon="5.18036">
        <ele>548</ele>
      </trkpt>
      <trkpt lat="44.73706" lon="5.18058">
        <ele>547.1</ele>
      </trkpt>
      <trkpt lat="44.73711" lon="5.18071">
        <ele>546.9</ele>
      </trkpt>
      <trkpt lat="44.73717" lon="5.18084">
        <ele>547</ele>
      </trkpt>
      <trkpt lat="44.7372" lon="5.18087">
        <ele>547.2</ele>
      </trkpt>
      <trkpt lat="44.73734" lon="5.18104">
        <ele>548.8</ele>
      </trkpt>
      <trkpt lat="44.73732" lon="5.18129">
        <ele>549.3</ele>
      </trkpt>
      <trkpt lat="44.73732" lon="5.18142">
        <ele>549.6</ele>
      </trkpt>
      <trkpt lat="44.7373" lon="5.18168">
        <ele>549.8</ele>
      </trkpt>
      <trkpt lat="44.73731" lon="5.18173">
        <ele>549.8</ele>
      </trkpt>
      <trkpt lat="44.73731" lon="5.18188">
        <ele>548.9</ele>
      </trkpt>
      <trkpt lat="44.73735" lon="5.18196">
        <ele>549.2</ele>
      </trkpt>
      <trkpt lat="44.7374" lon="5.182">
        <ele>549.7</ele>
      </trkpt>
      <trkpt lat="44.7375" lon="5.182">
        <ele>551.6</ele>
      </trkpt>
      <trkpt lat="44.73762" lon="5.18196">
        <ele>552</ele>
      </trkpt>
      <trkpt lat="44.73773" lon="5.18192">
        <ele>552.3</ele>
      </trkpt>
      <trkpt lat="44.73786" lon="5.1819">
        <ele>552.6</ele>
      </trkpt>
      <trkpt lat="44.738" lon="5.18189">
        <ele>552.7</ele>
      </trkpt>
      <trkpt lat="44.7382" lon="5.18187">
        <ele>553</ele>
      </trkpt>
      <trkpt lat="44.73842" lon="5.18195">
        <ele>554.1</ele>
      </trkpt>
      <trkpt lat="44.73867" lon="5.18199">
        <ele>558.7</ele>
      </trkpt>
      <trkpt lat="44.73927" lon="5.18206">
        <ele>571.1</ele>
      </trkpt>
      <trkpt lat="44.73931" lon="5.18206">
        <ele>572.3</ele>
      </trkpt>
      <trkpt lat="44.73937" lon="5.18203">
        <ele>573.3</ele>
      </trkpt>
      <trkpt lat="44.7398" lon="5.18173">
        <ele>577.4</ele>
      </trkpt>
      <trkpt lat="44.74001" lon="5.18162">
        <ele>579.2</ele>
      </trkpt>
      <trkpt lat="44.74024" lon="5.18155">
        <ele>581.2</ele>
      </trkpt>
      <trkpt lat="44.74034" lon="5.18155">
        <ele>582.7</ele>
      </trkpt>
      <trkpt lat="44.74045" lon="5.18158">
        <ele>584.5</ele>
      </trkpt>
      <trkpt lat="44.74056" lon="5.18163">
        <ele>586.4</ele>
      </trkpt>
      <trkpt lat="44.74061" lon="5.1816">
        <ele>586.8</ele>
      </trkpt>
      <trkpt lat="44.74064" lon="5.18149">
        <ele>586.5</ele>
      </trkpt>
      <trkpt lat="44.74064" lon="5.1813">
        <ele>585.4</ele>
      </trkpt>
      <trkpt lat="44.74077" lon="5.18062">
        <ele>586.8</ele>
      </trkpt>
      <trkpt lat="44.74076" lon="5.18014">
        <ele>588.3</ele>
      </trkpt>
      <trkpt lat="44.74078" lon="5.17997">
        <ele>589.5</ele>
      </trkpt>
      <trkpt lat="44.74088" lon="5.17957">
        <ele>592.6</ele>
      </trkpt>
      <trkpt lat="44.74094" lon="5.17942">
        <ele>594.9</ele>
      </trkpt>
      <trkpt lat="44.7414" lon="5.17854">
        <ele>601.8</ele>
      </trkpt>
      <trkpt lat="44.74185" lon="5.17776">
        <ele>601.1</ele>
      </trkpt>
      <trkpt lat="44.74228" lon="5.17697">
        <ele>594.5</ele>
      </trkpt>
      <trkpt lat="44.74256" lon="5.17652">
        <ele>591.6</ele>
      </trkpt>
      <trkpt lat="44.74264" lon="5.17644">
        <ele>588.7</ele>
      </trkpt>
      <trkpt lat="44.74272" lon="5.17638">
        <ele>586.8</ele>
      </trkpt>
      <trkpt lat="44.74277" lon="5.17641">
        <ele>587.3</ele>
      </trkpt>
      <trkpt lat="44.74284" lon="5.17647">
        <ele>588.2</ele>
      </trkpt>
      <trkpt lat="44.74299" lon="5.17664">
        <ele>590.7</ele>
      </trkpt>
      <trkpt lat="44.74313" lon="5.17684">
        <ele>592.6</ele>
      </trkpt>
      <trkpt lat="44.74324" lon="5.17707">
        <ele>594.8</ele>
      </trkpt>
      <trkpt lat="44.74332" lon="5.1773">
        <ele>597.3</ele>
      </trkpt>
      <trkpt lat="44.74337" lon="5.17739">
        <ele>597.7</ele>
      </trkpt>
      <trkpt lat="44.74344" lon="5.17743">
        <ele>597.1</ele>
      </trkpt>
      <trkpt lat="44.74378" lon="5.17748">
        <ele>592.2</ele>
      </trkpt>
      <trkpt lat="44.74402" lon="5.17739">
        <ele>586.7</ele>
      </trkpt>
      <trkpt lat="44.74411" lon="5.17744">
        <ele>585.9</ele>
      </trkpt>
      <trkpt lat="44.74442" lon="5.1779">
        <ele>585.9</ele>
      </trkpt>
      <trkpt lat="44.74474" lon="5.17862">
        <ele>583.1</ele>
      </trkpt>
      <trkpt lat="44.74497" lon="5.17946">
        <ele>578.7</ele>
      </trkpt>
      <trkpt lat="44.74489" lon="5.1799">
        <ele>583.8</ele>
      </trkpt>
      <trkpt lat="44.74523" lon="5.18042">
        <ele>584.1</ele>
      </trkpt>
      <trkpt lat="44.74563" lon="5.18063">
        <ele>580.5</ele>
      </trkpt>
      <trkpt lat="44.74618" lon="5.18056">
        <ele>569</ele>
      </trkpt>
      <trkpt lat="44.74672" lon="5.18034">
        <ele>558.3</ele>
      </trkpt>
      <trkpt lat="44.74701" lon="5.18011">
        <ele>555.1</ele>
      </trkpt>
      <trkpt lat="44.74738" lon="5.17993">
        <ele>552.5</ele>
      </trkpt>
      <trkpt lat="44.74757" lon="5.17962">
        <ele>546</ele>
      </trkpt>
      <trkpt lat="44.74771" lon="5.17966">
        <ele>543.1</ele>
      </trkpt>
      <trkpt lat="44.74783" lon="5.17947">
        <ele>539.3</ele>
      </trkpt>
      <trkpt lat="44.74788" lon="5.17961">
        <ele>538.8</ele>
      </trkpt>
      <trkpt lat="44.74805" lon="5.17911">
        <ele>534.5</ele>
      </trkpt>
      <trkpt lat="44.74811" lon="5.17921">
        <ele>535</ele>
      </trkpt>
      <trkpt lat="44.74816" lon="5.17977">
        <ele>531.9</ele>
      </trkpt>
      <trkpt lat="44.7483" lon="5.17916">
        <ele>533.3</ele>
      </trkpt>
      <trkpt lat="44.74849" lon="5.17925">
        <ele>527.5</ele>
      </trkpt>
      <trkpt lat="44.74858" lon="5.17944">
        <ele>523.4</ele>
      </trkpt>
      <trkpt lat="44.74858" lon="5.17953">
        <ele>522.4</ele>
      </trkpt>
      <trkpt lat="44.74856" lon="5.17988">
        <ele>520.2</ele>
      </trkpt>
      <trkpt lat="44.7485" lon="5.18005">
        <ele>519.7</ele>
      </trkpt>
      <trkpt lat="44.74841" lon="5.18017">
        <ele>519.8</ele>
      </trkpt>
      <trkpt lat="44.74841" lon="5.18021">
        <ele>518.7</ele>
      </trkpt>
      <trkpt lat="44.74904" lon="5.17973">
        <ele>508.1</ele>
      </trkpt>
      <trkpt lat="44.74923" lon="5.17938">
        <ele>505</ele>
      </trkpt>
      <trkpt lat="44.7493" lon="5.17913">
        <ele>503.6</ele>
      </trkpt>
      <trkpt lat="44.7493" lon="5.17897">
        <ele>502.6</ele>
      </trkpt>
      <trkpt lat="44.74931" lon="5.17893">
        <ele>502</ele>
      </trkpt>
      <trkpt lat="44.74933" lon="5.17893">
        <ele>501.4</ele>
      </trkpt>
      <trkpt lat="44.7494" lon="5.17914">
        <ele>500.9</ele>
      </trkpt>
      <trkpt lat="44.74946" lon="5.17933">
        <ele>499</ele>
      </trkpt>
      <trkpt lat="44.74946" lon="5.17954">
        <ele>498.4</ele>
      </trkpt>
      <trkpt lat="44.74942" lon="5.1797">
        <ele>498.9</ele>
      </trkpt>
      <trkpt lat="44.74947" lon="5.18001">
        <ele>497.2</ele>
      </trkpt>
      <trkpt lat="44.74934" lon="5.18034">
        <ele>496.5</ele>
      </trkpt>
      <trkpt lat="44.74899" lon="5.18095">
        <ele>495.7</ele>
      </trkpt>
      <trkpt lat="44.749" lon="5.181">
        <ele>496</ele>
      </trkpt>
      <trkpt lat="44.74901" lon="5.18103">
        <ele>496.1</ele>
      </trkpt>
      <trkpt lat="44.74907" lon="5.18102">
        <ele>495.2</ele>
      </trkpt>
      <trkpt lat="44.74933" lon="5.18096">
        <ele>493.7</ele>
      </trkpt>
      <trkpt lat="44.74968" lon="5.18077">
        <ele>493.4</ele>
      </trkpt>
      <trkpt lat="44.75039" lon="5.17983">
        <ele>488.3</ele>
      </trkpt>
      <trkpt lat="44.75051" lon="5.17978">
        <ele>488.9</ele>
      </trkpt>
      <trkpt lat="44.75072" lon="5.17985">
        <ele>490.2</ele>
      </trkpt>
      <trkpt lat="44.75088" lon="5.17973">
        <ele>491.4</ele>
      </trkpt>
      <trkpt lat="44.75099" lon="5.17957">
        <ele>492.9</ele>
      </trkpt>
      <trkpt lat="44.75099" lon="5.17942">
        <ele>493</ele>
      </trkpt>
      <trkpt lat="44.75065" lon="5.17895">
        <ele>489.2</ele>
      </trkpt>
      <trkpt lat="44.75057" lon="5.17871">
        <ele>488.9</ele>
      </trkpt>
      <trkpt lat="44.75059" lon="5.17829">
        <ele>490.3</ele>
      </trkpt>
      <trkpt lat="44.75062" lon="5.17742">
        <ele>494.7</ele>
      </trkpt>
      <trkpt lat="44.7505" lon="5.17675">
        <ele>494.2</ele>
      </trkpt>
      <trkpt lat="44.75053" lon="5.17651">
        <ele>496.7</ele>
      </trkpt>
      <trkpt lat="44.75051" lon="5.1764">
        <ele>497.4</ele>
      </trkpt>
      <trkpt lat="44.75045" lon="5.17634">
        <ele>496.4</ele>
      </trkpt>
      <trkpt lat="44.75028" lon="5.1764">
        <ele>491.6</ele>
      </trkpt>
      <trkpt lat="44.75016" lon="5.17639">
        <ele>488.8</ele>
      </trkpt>
      <trkpt lat="44.75008" lon="5.17629">
        <ele>487.7</ele>
      </trkpt>
      <trkpt lat="44.75003" lon="5.17611">
        <ele>488.1</ele>
      </trkpt>
      <trkpt lat="44.75005" lon="5.17587">
        <ele>491</ele>
      </trkpt>
      <trkpt lat="44.75026" lon="5.1753">
        <ele>501</ele>
      </trkpt>
      <trkpt lat="44.75025" lon="5.17523">
        <ele>501.5</ele>
      </trkpt>
      <trkpt lat="44.75018" lon="5.17515">
        <ele>500.2</ele>
      </trkpt>
      <trkpt lat="44.74988" lon="5.17505">
        <ele>492.8</ele>
      </trkpt>
      <trkpt lat="44.74981" lon="5.17496">
        <ele>491.7</ele>
      </trkpt>
      <trkpt lat="44.74982" lon="5.17485">
        <ele>492.1</ele>
      </trkpt>
      <trkpt lat="44.75018" lon="5.17403">
        <ele>506.5</ele>
      </trkpt>
      <trkpt lat="44.75019" lon="5.17391">
        <ele>508.5</ele>
      </trkpt>
      <trkpt lat="44.75015" lon="5.17382">
        <ele>508.4</ele>
      </trkpt>
      <trkpt lat="44.75008" lon="5.17378">
        <ele>506.9</ele>
      </trkpt>
      <trkpt lat="44.75001" lon="5.17379">
        <ele>504.6</ele>
      </trkpt>
      <trkpt lat="44.74992" lon="5.17387">
        <ele>501.5</ele>
      </trkpt>
      <trkpt lat="44.74981" lon="5.1739">
        <ele>498.7</ele>
      </trkpt>
      <trkpt lat="44.74966" lon="5.17385">
        <ele>496.3</ele>
      </trkpt>
      <trkpt lat="44.74952" lon="5.17374">
        <ele>495.6</ele>
      </trkpt>
      <trkpt lat="44.74937" lon="5.1737">
        <ele>493.6</ele>
      </trkpt>
      <trkpt lat="44.74928" lon="5.17363">
        <ele>493.4</ele>
      </trkpt>
      <trkpt lat="44.74922" lon="5.17351">
        <ele>494.9</ele>
      </trkpt>
      <trkpt lat="44.74913" lon="5.17323">
        <ele>497.9</ele>
      </trkpt>
      <trkpt lat="44.74888" lon="5.17273">
        <ele>494.4</ele>
      </trkpt>
      <trkpt lat="44.74887" lon="5.17258">
        <ele>495.3</ele>
      </trkpt>
      <trkpt lat="44.74894" lon="5.17239">
        <ele>498.8</ele>
      </trkpt>
      <trkpt lat="44.74903" lon="5.17212">
        <ele>501.5</ele>
      </trkpt>
      <trkpt lat="44.74913" lon="5.17201">
        <ele>504.7</ele>
      </trkpt>
      <trkpt lat="44.74941" lon="5.17176">
        <ele>512.5</ele>
      </trkpt>
      <trkpt lat="44.74945" lon="5.17163">
        <ele>513.4</ele>
      </trkpt>
      <trkpt lat="44.7494" lon="5.17151">
        <ele>512.2</ele>
      </trkpt>
      <trkpt lat="44.74897" lon="5.17118">
        <ele>498.6</ele>
      </trkpt>
      <trkpt lat="44.74893" lon="5.17109">
        <ele>497</ele>
      </trkpt>
      <trkpt lat="44.74894" lon="5.171">
        <ele>497.5</ele>
      </trkpt>
      <trkpt lat="44.74903" lon="5.17049">
        <ele>500.3</ele>
      </trkpt>
      <trkpt lat="44.74896" lon="5.1701">
        <ele>496.9</ele>
      </trkpt>
      <trkpt lat="44.74894" lon="5.16994">
        <ele>495.3</ele>
      </trkpt>
      <trkpt lat="44.74899" lon="5.16984">
        <ele>495.8</ele>
      </trkpt>
      <trkpt lat="44.74939" lon="5.16927">
        <ele>497.1</ele>
      </trkpt>
      <trkpt lat="44.74952" lon="5.16913">
        <ele>496</ele>
      </trkpt>
      <trkpt lat="44.74965" lon="5.16909">
        <ele>496.2</ele>
      </trkpt>
      <trkpt lat="44.74971" lon="5.1691">
        <ele>496.8</ele>
      </trkpt>
      <trkpt lat="44.7499" lon="5.16923">
        <ele>500.6</ele>
      </trkpt>
      <trkpt lat="44.75002" lon="5.16923">
        <ele>501.6</ele>
      </trkpt>
      <trkpt lat="44.75009" lon="5.16918">
        <ele>501.4</ele>
      </trkpt>
      <trkpt lat="44.75013" lon="5.16896">
        <ele>498.4</ele>
      </trkpt>
      <trkpt lat="44.7502" lon="5.16885">
        <ele>497.5</ele>
      </trkpt>
      <trkpt lat="44.75031" lon="5.16878">
        <ele>497.9</ele>
      </trkpt>
      <trkpt lat="44.75058" lon="5.16882">
        <ele>502.4</ele>
      </trkpt>
      <trkpt lat="44.7508" lon="5.1688">
        <ele>505.3</ele>
      </trkpt>
      <trkpt lat="44.75105" lon="5.16865">
        <ele>508.2</ele>
      </trkpt>
      <trkpt lat="44.7512" lon="5.16846">
        <ele>508.3</ele>
      </trkpt>
      <trkpt lat="44.75137" lon="5.16803">
        <ele>507.5</ele>
      </trkpt>
      <trkpt lat="44.75149" lon="5.16766">
        <ele>506.8</ele>
      </trkpt>
      <trkpt lat="44.75154" lon="5.16768">
        <ele>507.7</ele>
      </trkpt>
      <trkpt lat="44.75165" lon="5.16771">
        <ele>509.7</ele>
      </trkpt>
      <trkpt lat="44.75171" lon="5.16774">
        <ele>510.1</ele>
      </trkpt>
      <trkpt lat="44.75176" lon="5.16773">
        <ele>509.8</ele>
      </trkpt>
      <trkpt lat="44.7518" lon="5.16767">
        <ele>508.9</ele>
      </trkpt>
      <trkpt lat="44.75201" lon="5.16708">
        <ele>505.2</ele>
      </trkpt>
      <trkpt lat="44.75222" lon="5.16669">
        <ele>499.8</ele>
      </trkpt>
      <trkpt lat="44.75234" lon="5.16656">
        <ele>498.5</ele>
      </trkpt>
      <trkpt lat="44.75264" lon="5.1664">
        <ele>494.2</ele>
      </trkpt>
      <trkpt lat="44.7529" lon="5.16639">
        <ele>489.1</ele>
      </trkpt>
      <trkpt lat="44.75299" lon="5.16636">
        <ele>487.4</ele>
      </trkpt>
      <trkpt lat="44.7532" lon="5.16605">
        <ele>484.9</ele>
      </trkpt>
      <trkpt lat="44.75335" lon="5.16584">
        <ele>481.7</ele>
      </trkpt>
      <trkpt lat="44.75367" lon="5.1657">
        <ele>478.6</ele>
      </trkpt>
      <trkpt lat="44.75439" lon="5.16527">
        <ele>471.3</ele>
      </trkpt>
      <trkpt lat="44.75473" lon="5.16518">
        <ele>464.1</ele>
      </trkpt>
      <trkpt lat="44.75506" lon="5.16496">
        <ele>456.3</ele>
      </trkpt>
      <trkpt lat="44.75571" lon="5.16454">
        <ele>451</ele>
      </trkpt>
      <trkpt lat="44.75608" lon="5.16432">
        <ele>444</ele>
      </trkpt>
      <trkpt lat="44.75624" lon="5.1641">
        <ele>440.5</ele>
      </trkpt>
      <trkpt lat="44.75636" lon="5.164">
        <ele>438.5</ele>
      </trkpt>
      <trkpt lat="44.75671" lon="5.16363">
        <ele>434.3</ele>
      </trkpt>
      <trkpt lat="44.75693" lon="5.16328">
        <ele>432.2</ele>
      </trkpt>
      <trkpt lat="44.75708" lon="5.16288">
        <ele>426.1</ele>
      </trkpt>
      <trkpt lat="44.75717" lon="5.16251">
        <ele>420.5</ele>
      </trkpt>
      <trkpt lat="44.7572" lon="5.16208">
        <ele>415.5</ele>
      </trkpt>
      <trkpt lat="44.75719" lon="5.16178">
        <ele>413.5</ele>
      </trkpt>
      <trkpt lat="44.75714" lon="5.16134">
        <ele>412.6</ele>
      </trkpt>
      <trkpt lat="44.75712" lon="5.16119">
        <ele>412.7</ele>
      </trkpt>
      <trkpt lat="44.75718" lon="5.16106">
        <ele>410.3</ele>
      </trkpt>
      <trkpt lat="44.75734" lon="5.16092">
        <ele>405.1</ele>
      </trkpt>
      <trkpt lat="44.75746" lon="5.16079">
        <ele>401.6</ele>
      </trkpt>
      <trkpt lat="44.7576" lon="5.16024">
        <ele>401.7</ele>
      </trkpt>
      <trkpt lat="44.75783" lon="5.1596">
        <ele>397.1</ele>
      </trkpt>
      <trkpt lat="44.75785" lon="5.15943">
        <ele>396.3</ele>
      </trkpt>
      <trkpt lat="44.75779" lon="5.15917">
        <ele>397.8</ele>
      </trkpt>
      <trkpt lat="44.75778" lon="5.15905">
        <ele>399</ele>
      </trkpt>
      <trkpt lat="44.75782" lon="5.1589">
        <ele>399.1</ele>
      </trkpt>
      <trkpt lat="44.75792" lon="5.15878">
        <ele>397.1</ele>
      </trkpt>
      <trkpt lat="44.75809" lon="5.15851">
        <ele>393.9</ele>
      </trkpt>
      <trkpt lat="44.75831" lon="5.15803">
        <ele>390.3</ele>
      </trkpt>
      <trkpt lat="44.75839" lon="5.15777">
        <ele>390.6</ele>
      </trkpt>
      <trkpt lat="44.75854" lon="5.15692">
        <ele>389.5</ele>
      </trkpt>
      <trkpt lat="44.75855" lon="5.15655">
        <ele>391.6</ele>
      </trkpt>
      <trkpt lat="44.75859" lon="5.15641">
        <ele>393</ele>
      </trkpt>
      <trkpt lat="44.75866" lon="5.15634">
        <ele>392.7</ele>
      </trkpt>
      <trkpt lat="44.75887" lon="5.1563">
        <ele>388.9</ele>
      </trkpt>
      <trkpt lat="44.75907" lon="5.15616">
        <ele>387.5</ele>
      </trkpt>
      <trkpt lat="44.75933" lon="5.15598">
        <ele>384.7</ele>
      </trkpt>
      <trkpt lat="44.75964" lon="5.15565">
        <ele>378.9</ele>
      </trkpt>
      <trkpt lat="44.75973" lon="5.15555">
        <ele>377</ele>
      </trkpt>
      <trkpt lat="44.75987" lon="5.15502">
        <ele>377.1</ele>
      </trkpt>
      <trkpt lat="44.75991" lon="5.15477">
        <ele>374.8</ele>
      </trkpt>
      <trkpt lat="44.75994" lon="5.1535">
        <ele>366.4</ele>
      </trkpt>
      <trkpt lat="44.75996" lon="5.15314">
        <ele>361.9</ele>
      </trkpt>
      <trkpt lat="44.75989" lon="5.15281">
        <ele>361.4</ele>
      </trkpt>
      <trkpt lat="44.75989" lon="5.15271">
        <ele>360.3</ele>
      </trkpt>
      <trkpt lat="44.75991" lon="5.15268">
        <ele>358.9</ele>
      </trkpt>
      <trkpt lat="44.75994" lon="5.15268">
        <ele>358</ele>
      </trkpt>
      <trkpt lat="44.75997" lon="5.1527">
        <ele>357.1</ele>
      </trkpt>
      <trkpt lat="44.7602" lon="5.15304">
        <ele>355.8</ele>
      </trkpt>
      <trkpt lat="44.76044" lon="5.15336">
        <ele>353.2</ele>
      </trkpt>
      <trkpt lat="44.76053" lon="5.1535">
        <ele>352.1</ele>
      </trkpt>
      <trkpt lat="44.76059" lon="5.15353">
        <ele>351</ele>
      </trkpt>
      <trkpt lat="44.76063" lon="5.15351">
        <ele>350</ele>
      </trkpt>
      <trkpt lat="44.76069" lon="5.1535">
        <ele>348.6</ele>
      </trkpt>
      <trkpt lat="44.76121" lon="5.15343">
        <ele>350.5</ele>
      </trkpt>
      <trkpt lat="44.76124" lon="5.1534">
        <ele>350.9</ele>
      </trkpt>
      <trkpt lat="44.76142" lon="5.15334">
        <ele>353.4</ele>
      </trkpt>
      <trkpt lat="44.76148" lon="5.15338">
        <ele>354.3</ele>
      </trkpt>
      <trkpt lat="44.76154" lon="5.15342">
        <ele>355.1</ele>
      </trkpt>
      <trkpt lat="44.76159" lon="5.15358">
        <ele>355.4</ele>
      </trkpt>
      <trkpt lat="44.76168" lon="5.15358">
        <ele>357.1</ele>
      </trkpt>
      <trkpt lat="44.76175" lon="5.15367">
        <ele>359.5</ele>
      </trkpt>
      <trkpt lat="44.7618" lon="5.15402">
        <ele>361.2</ele>
      </trkpt>
      <trkpt lat="44.76184" lon="5.15422">
        <ele>362.7</ele>
      </trkpt>
      <trkpt lat="44.76187" lon="5.15417">
        <ele>363.9</ele>
      </trkpt>
      <trkpt lat="44.76187" lon="5.154">
        <ele>364.5</ele>
      </trkpt>
      <trkpt lat="44.76191" lon="5.15394">
        <ele>365.9</ele>
      </trkpt>
      <trkpt lat="44.76197" lon="5.15385">
        <ele>368.6</ele>
      </trkpt>
      <trkpt lat="44.76201" lon="5.15376">
        <ele>370.7</ele>
      </trkpt>
      <trkpt lat="44.7621" lon="5.15369">
        <ele>374.6</ele>
      </trkpt>
      <trkpt lat="44.76214" lon="5.15355">
        <ele>376.3</ele>
      </trkpt>
      <trkpt lat="44.76221" lon="5.15345">
        <ele>379.1</ele>
      </trkpt>
      <trkpt lat="44.76226" lon="5.15336">
        <ele>381.2</ele>
      </trkpt>
      <trkpt lat="44.76231" lon="5.15329">
        <ele>383.4</ele>
      </trkpt>
      <trkpt lat="44.76238" lon="5.15324">
        <ele>386.4</ele>
      </trkpt>
      <trkpt lat="44.76241" lon="5.15316">
        <ele>388.1</ele>
      </trkpt>
      <trkpt lat="44.76246" lon="5.15313">
        <ele>390.5</ele>
      </trkpt>
      <trkpt lat="44.7625" lon="5.15297">
        <ele>392.8</ele>
      </trkpt>
      <trkpt lat="44.76251" lon="5.15282">
        <ele>394</ele>
      </trkpt>
      <trkpt lat="44.76259" lon="5.15257">
        <ele>399.1</ele>
      </trkpt>
      <trkpt lat="44.76261" lon="5.15242">
        <ele>401.7</ele>
      </trkpt>
      <trkpt lat="44.76262" lon="5.15227">
        <ele>404.3</ele>
      </trkpt>
      <trkpt lat="44.7626" lon="5.15214">
        <ele>405.6</ele>
      </trkpt>
      <trkpt lat="44.7626" lon="5.15207">
        <ele>407</ele>
      </trkpt>
      <trkpt lat="44.76261" lon="5.15194">
        <ele>409.4</ele>
      </trkpt>
      <trkpt lat="44.76264" lon="5.15189">
        <ele>411.1</ele>
      </trkpt>
      <trkpt lat="44.76268" lon="5.15188">
        <ele>413.3</ele>
      </trkpt>
      <trkpt lat="44.76272" lon="5.15191">
        <ele>414.6</ele>
      </trkpt>
      <trkpt lat="44.76273" lon="5.15196">
        <ele>414.2</ele>
      </trkpt>
      <trkpt lat="44.7628" lon="5.15199">
        <ele>416.7</ele>
      </trkpt>
      <trkpt lat="44.76284" lon="5.15202">
        <ele>418.4</ele>
      </trkpt>
      <trkpt lat="44.76288" lon="5.15206">
        <ele>419.4</ele>
      </trkpt>
      <trkpt lat="44.76293" lon="5.15206">
        <ele>421.5</ele>
      </trkpt>
      <trkpt lat="44.76302" lon="5.15211">
        <ele>424.9</ele>
      </trkpt>
      <trkpt lat="44.76313" lon="5.15224">
        <ele>428.5</ele>
      </trkpt>
      <trkpt lat="44.76332" lon="5.15242">
        <ele>435.3</ele>
      </trkpt>
      <trkpt lat="44.76338" lon="5.1524">
        <ele>437.1</ele>
      </trkpt>
      <trkpt lat="44.76339" lon="5.15223">
        <ele>439</ele>
      </trkpt>
      <trkpt lat="44.76343" lon="5.15228">
        <ele>439.4</ele>
      </trkpt>
      <trkpt lat="44.76349" lon="5.15226">
        <ele>440.8</ele>
      </trkpt>
      <trkpt lat="44.76363" lon="5.15211">
        <ele>444.1</ele>
      </trkpt>
      <trkpt lat="44.76392" lon="5.15184">
        <ele>447.1</ele>
      </trkpt>
      <trkpt lat="44.76419" lon="5.15153">
        <ele>444.9</ele>
      </trkpt>
      <trkpt lat="44.76443" lon="5.15133">
        <ele>440.2</ele>
      </trkpt>
      <trkpt lat="44.76466" lon="5.15116">
        <ele>435.5</ele>
      </trkpt>
      <trkpt lat="44.76494" lon="5.15111">
        <ele>432.2</ele>
      </trkpt>
      <trkpt lat="44.76527" lon="5.15121">
        <ele>425.8</ele>
      </trkpt>
      <trkpt lat="44.76558" lon="5.15141">
        <ele>421.2</ele>
      </trkpt>
      <trkpt lat="44.76579" lon="5.15167">
        <ele>420.3</ele>
      </trkpt>
      <trkpt lat="44.76599" lon="5.15186">
        <ele>417.7</ele>
      </trkpt>
      <trkpt lat="44.76609" lon="5.15213">
        <ele>418.2</ele>
      </trkpt>
      <trkpt lat="44.76626" lon="5.15235">
        <ele>415.8</ele>
      </trkpt>
      <trkpt lat="44.76654" lon="5.15278">
        <ele>413.2</ele>
      </trkpt>
      <trkpt lat="44.7667" lon="5.15304">
        <ele>413.2</ele>
      </trkpt>
      <trkpt lat="44.76687" lon="5.15324">
        <ele>413.7</ele>
      </trkpt>
      <trkpt lat="44.76695" lon="5.15339">
        <ele>413.8</ele>
      </trkpt>
      <trkpt lat="44.76698" lon="5.15349">
        <ele>414.1</ele>
      </trkpt>
      <trkpt lat="44.76701" lon="5.1539">
        <ele>417.1</ele>
      </trkpt>
      <trkpt lat="44.76701" lon="5.15428">
        <ele>420.3</ele>
      </trkpt>
      <trkpt lat="44.76703" lon="5.15436">
        <ele>420.7</ele>
      </trkpt>
      <trkpt lat="44.76709" lon="5.1544">
        <ele>419.8</ele>
      </trkpt>
      <trkpt lat="44.76742" lon="5.15451">
        <ele>414.8</ele>
      </trkpt>
      <trkpt lat="44.7676" lon="5.15453">
        <ele>413.6</ele>
      </trkpt>
      <trkpt lat="44.76776" lon="5.15459">
        <ele>414.3</ele>
      </trkpt>
      <trkpt lat="44.7679" lon="5.15467">
        <ele>414.9</ele>
      </trkpt>
      <trkpt lat="44.76798" lon="5.15465">
        <ele>414.5</ele>
      </trkpt>
      <trkpt lat="44.76804" lon="5.1546">
        <ele>414</ele>
      </trkpt>
      <trkpt lat="44.7681" lon="5.15448">
        <ele>413.1</ele>
      </trkpt>
      <trkpt lat="44.76821" lon="5.15425">
        <ele>411.8</ele>
      </trkpt>
      <trkpt lat="44.76853" lon="5.15382">
        <ele>413.4</ele>
      </trkpt>
      <trkpt lat="44.76886" lon="5.15344">
        <ele>414.5</ele>
      </trkpt>
      <trkpt lat="44.76943" lon="5.15285">
        <ele>412.7</ele>
      </trkpt>
      <trkpt lat="44.76962" lon="5.15249">
        <ele>409.6</ele>
      </trkpt>
      <trkpt lat="44.76982" lon="5.1521">
        <ele>407.7</ele>
      </trkpt>
      <trkpt lat="44.77005" lon="5.15167">
        <ele>405.9</ele>
      </trkpt>
      <trkpt lat="44.77028" lon="5.15128">
        <ele>405.4</ele>
      </trkpt>
      <trkpt lat="44.77056" lon="5.15093">
        <ele>405</ele>
      </trkpt>
      <trkpt lat="44.77083" lon="5.15069">
        <ele>404.5</ele>
      </trkpt>
      <trkpt lat="44.77107" lon="5.15045">
        <ele>402.3</ele>
      </trkpt>
      <trkpt lat="44.77119" lon="5.15049">
        <ele>401.9</ele>
      </trkpt>
      <trkpt lat="44.77156" lon="5.15082">
        <ele>401.5</ele>
      </trkpt>
      <trkpt lat="44.77167" lon="5.15089">
        <ele>401.2</ele>
      </trkpt>
      <trkpt lat="44.77186" lon="5.15091">
        <ele>399.4</ele>
      </trkpt>
      <trkpt lat="44.77212" lon="5.15099">
        <ele>397.4</ele>
      </trkpt>
      <trkpt lat="44.77199" lon="5.15136">
        <ele>400.3</ele>
      </trkpt>
      <trkpt lat="44.77199" lon="5.15147">
        <ele>400.8</ele>
      </trkpt>
      <trkpt lat="44.77209" lon="5.15152">
        <ele>400.2</ele>
      </trkpt>
      <trkpt lat="44.77223" lon="5.1516">
        <ele>399.6</ele>
      </trkpt>
      <trkpt lat="44.77248" lon="5.15204">
        <ele>402</ele>
      </trkpt>
      <trkpt lat="44.77261" lon="5.15226">
        <ele>404.1</ele>
      </trkpt>
      <trkpt lat="44.77284" lon="5.15246">
        <ele>405.4</ele>
      </trkpt>
      <trkpt lat="44.77296" lon="5.1525">
        <ele>405.3</ele>
      </trkpt>
      <trkpt lat="44.77302" lon="5.15224">
        <ele>402.5</ele>
      </trkpt>
      <trkpt lat="44.77301" lon="5.1519">
        <ele>399.1</ele>
      </trkpt>
      <trkpt lat="44.77313" lon="5.1516">
        <ele>396.2</ele>
      </trkpt>
      <trkpt lat="44.77336" lon="5.15148">
        <ele>395</ele>
      </trkpt>
      <trkpt lat="44.77361" lon="5.15148">
        <ele>392.6</ele>
      </trkpt>
      <trkpt lat="44.77381" lon="5.1514">
        <ele>390.3</ele>
      </trkpt>
      <trkpt lat="44.77399" lon="5.15101">
        <ele>386.7</ele>
      </trkpt>
      <trkpt lat="44.77427" lon="5.15045">
        <ele>383.8</ele>
      </trkpt>
      <trkpt lat="44.77442" lon="5.15008">
        <ele>382.2</ele>
      </trkpt>
      <trkpt lat="44.77452" lon="5.14971">
        <ele>379.4</ele>
      </trkpt>
      <trkpt lat="44.77463" lon="5.14938">
        <ele>375.9</ele>
      </trkpt>
      <trkpt lat="44.7746" lon="5.14902">
        <ele>374.5</ele>
      </trkpt>
      <trkpt lat="44.7746" lon="5.14846">
        <ele>371.7</ele>
      </trkpt>
      <trkpt lat="44.77466" lon="5.14821">
        <ele>369.2</ele>
      </trkpt>
      <trkpt lat="44.77477" lon="5.14794">
        <ele>365.1</ele>
      </trkpt>
      <trkpt lat="44.77515" lon="5.14729">
        <ele>354.2</ele>
      </trkpt>
      <trkpt lat="44.77535" lon="5.14709">
        <ele>351.4</ele>
      </trkpt>
      <trkpt lat="44.77557" lon="5.14685">
        <ele>347.9</ele>
      </trkpt>
      <trkpt lat="44.77578" lon="5.14642">
        <ele>341.4</ele>
      </trkpt>
      <trkpt lat="44.77582" lon="5.14633">
        <ele>340.2</ele>
      </trkpt>
      <trkpt lat="44.77589" lon="5.14624">
        <ele>339.2</ele>
      </trkpt>
      <trkpt lat="44.77597" lon="5.14609">
        <ele>337.5</ele>
      </trkpt>
      <trkpt lat="44.77606" lon="5.14594">
        <ele>335.7</ele>
      </trkpt>
      <trkpt lat="44.77617" lon="5.14586">
        <ele>335</ele>
      </trkpt>
      <trkpt lat="44.77637" lon="5.14582">
        <ele>335.5</ele>
      </trkpt>
      <trkpt lat="44.77639" lon="5.14573">
        <ele>334.9</ele>
      </trkpt>
      <trkpt lat="44.7764" lon="5.1455">
        <ele>333.3</ele>
      </trkpt>
      <trkpt lat="44.77642" lon="5.14543">
        <ele>332.8</ele>
      </trkpt>
      <trkpt lat="44.77653" lon="5.14521">
        <ele>331.5</ele>
      </trkpt>
      <trkpt lat="44.77661" lon="5.14498">
        <ele>330.4</ele>
      </trkpt>
      <trkpt lat="44.77667" lon="5.14473">
        <ele>336.2</ele>
      </trkpt>
      <trkpt lat="44.77671" lon="5.14453">
        <ele>340.5</ele>
      </trkpt>
      <trkpt lat="44.77674" lon="5.14423">
        <ele>346.8</ele>
      </trkpt>
      <trkpt lat="44.77678" lon="5.14413">
        <ele>348.7</ele>
      </trkpt>
      <trkpt lat="44.77684" lon="5.14402">
        <ele>350.8</ele>
      </trkpt>
      <trkpt lat="44.77694" lon="5.14386">
        <ele>354</ele>
      </trkpt>
      <trkpt lat="44.77708" lon="5.1437">
        <ele>357.3</ele>
      </trkpt>
      <trkpt lat="44.77736" lon="5.14356">
        <ele>359.8</ele>
      </trkpt>
      <trkpt lat="44.77742" lon="5.14352">
        <ele>360.8</ele>
      </trkpt>
      <trkpt lat="44.77754" lon="5.1434">
        <ele>363.9</ele>
      </trkpt>
      <trkpt lat="44.77762" lon="5.1433">
        <ele>366.3</ele>
      </trkpt>
      <trkpt lat="44.77768" lon="5.14321">
        <ele>367.1</ele>
      </trkpt>
      <trkpt lat="44.77771" lon="5.14316">
        <ele>367.6</ele>
      </trkpt>
      <trkpt lat="44.77775" lon="5.14313">
        <ele>367.9</ele>
      </trkpt>
      <trkpt lat="44.77778" lon="5.14312">
        <ele>368.1</ele>
      </trkpt>
      <trkpt lat="44.77779" lon="5.1431">
        <ele>368.2</ele>
      </trkpt>
      <trkpt lat="44.7778" lon="5.14309">
        <ele>368.4</ele>
      </trkpt>
      <trkpt lat="44.77782" lon="5.14304">
        <ele>368.9</ele>
      </trkpt>
      <trkpt lat="44.77795" lon="5.14307">
        <ele>368.8</ele>
      </trkpt>
      <trkpt lat="44.77806" lon="5.1431">
        <ele>368.5</ele>
      </trkpt>
      <trkpt lat="44.77826" lon="5.14321">
        <ele>367.5</ele>
      </trkpt>
      <trkpt lat="44.77843" lon="5.14333">
        <ele>366.6</ele>
      </trkpt>
      <trkpt lat="44.77875" lon="5.14363">
        <ele>362.6</ele>
      </trkpt>
      <trkpt lat="44.77885" lon="5.14371">
        <ele>362.1</ele>
      </trkpt>
      <trkpt lat="44.77906" lon="5.14392">
        <ele>361.2</ele>
      </trkpt>
      <trkpt lat="44.77916" lon="5.14402">
        <ele>361</ele>
      </trkpt>
      <trkpt lat="44.77924" lon="5.14411">
        <ele>360.8</ele>
      </trkpt>
      <trkpt lat="44.77931" lon="5.14421">
        <ele>360.5</ele>
      </trkpt>
      <trkpt lat="44.77936" lon="5.14431">
        <ele>359.8</ele>
      </trkpt>
      <trkpt lat="44.77907" lon="5.14412">
        <ele>358.1</ele>
      </trkpt>
      <trkpt lat="44.7791" lon="5.14418">
        <ele>357.7</ele>
      </trkpt>
      <trkpt lat="44.77914" lon="5.14432">
        <ele>356.6</ele>
      </trkpt>
      <trkpt lat="44.77924" lon="5.14486">
        <ele>350.9</ele>
      </trkpt>
      <trkpt lat="44.77933" lon="5.14524">
        <ele>347</ele>
      </trkpt>
      <trkpt lat="44.77939" lon="5.14536">
        <ele>346.4</ele>
      </trkpt>
      <trkpt lat="44.77968" lon="5.14564">
        <ele>348.5</ele>
      </trkpt>
      <trkpt lat="44.77946" lon="5.14565">
        <ele>344.2</ele>
      </trkpt>
      <trkpt lat="44.77928" lon="5.14562">
        <ele>341.3</ele>
      </trkpt>
      <trkpt lat="44.77917" lon="5.14558">
        <ele>339.7</ele>
      </trkpt>
      <trkpt lat="44.77909" lon="5.14566">
        <ele>338.6</ele>
      </trkpt>
      <trkpt lat="44.77968" lon="5.14564">
        <ele>348.5</ele>
      </trkpt>
      <trkpt lat="44.77975" lon="5.14569">
        <ele>349.2</ele>
      </trkpt>
      <trkpt lat="44.77989" lon="5.14589">
        <ele>350.3</ele>
      </trkpt>
      <trkpt lat="44.77996" lon="5.14612">
        <ele>350</ele>
      </trkpt>
      <trkpt lat="44.78003" lon="5.14637">
        <ele>349.3</ele>
      </trkpt>
      <trkpt lat="44.78005" lon="5.14641">
        <ele>349.6</ele>
      </trkpt>
      <trkpt lat="44.78008" lon="5.14643">
        <ele>350.2</ele>
      </trkpt>
      <trkpt lat="44.78011" lon="5.14643">
        <ele>351</ele>
      </trkpt>
      <trkpt lat="44.78016" lon="5.1465">
        <ele>351.6</ele>
      </trkpt>
      <trkpt lat="44.78022" lon="5.14659">
        <ele>352.5</ele>
      </trkpt>
      <trkpt lat="44.78037" lon="5.14677">
        <ele>354.9</ele>
      </trkpt>
      <trkpt lat="44.78095" lon="5.14738">
        <ele>357</ele>
      </trkpt>
      <trkpt lat="44.78105" lon="5.14748">
        <ele>356.4</ele>
      </trkpt>
      <trkpt lat="44.78116" lon="5.14755">
        <ele>356.4</ele>
      </trkpt>
      <trkpt lat="44.78129" lon="5.14762">
        <ele>356.7</ele>
      </trkpt>
      <trkpt lat="44.78258" lon="5.14801">
        <ele>355.6</ele>
      </trkpt>
      <trkpt lat="44.78268" lon="5.14802">
        <ele>355</ele>
      </trkpt>
      <trkpt lat="44.78278" lon="5.14802">
        <ele>354.7</ele>
      </trkpt>
      <trkpt lat="44.78287" lon="5.148">
        <ele>354.8</ele>
      </trkpt>
      <trkpt lat="44.78299" lon="5.14797">
        <ele>355.3</ele>
      </trkpt>
      <trkpt lat="44.78314" lon="5.14791">
        <ele>356.3</ele>
      </trkpt>
      <trkpt lat="44.78328" lon="5.14786">
        <ele>357.1</ele>
      </trkpt>
      <trkpt lat="44.7834" lon="5.14783">
        <ele>357.6</ele>
      </trkpt>
      <trkpt lat="44.78351" lon="5.14781">
        <ele>357.6</ele>
      </trkpt>
      <trkpt lat="44.78363" lon="5.14782">
        <ele>357</ele>
      </trkpt>
      <trkpt lat="44.78381" lon="5.14784">
        <ele>356</ele>
      </trkpt>
      <trkpt lat="44.78392" lon="5.14786">
        <ele>355.3</ele>
      </trkpt>
      <trkpt lat="44.78399" lon="5.14788">
        <ele>354.7</ele>
      </trkpt>
      <trkpt lat="44.78406" lon="5.14791">
        <ele>354</ele>
      </trkpt>
      <trkpt lat="44.78422" lon="5.1478">
        <ele>355.3</ele>
      </trkpt>
      <trkpt lat="44.78448" lon="5.1477">
        <ele>355.4</ele>
      </trkpt>
      <trkpt lat="44.78465" lon="5.1476">
        <ele>355.4</ele>
      </trkpt>
      <trkpt lat="44.78472" lon="5.14761">
        <ele>354.7</ele>
      </trkpt>
      <trkpt lat="44.78476" lon="5.14766">
        <ele>354.1</ele>
      </trkpt>
      <trkpt lat="44.78479" lon="5.14767">
        <ele>353.8</ele>
      </trkpt>
      <trkpt lat="44.78489" lon="5.14754">
        <ele>353.8</ele>
      </trkpt>
      <trkpt lat="44.78503" lon="5.14739">
        <ele>355.6</ele>
      </trkpt>
      <trkpt lat="44.78517" lon="5.14731">
        <ele>357.6</ele>
      </trkpt>
      <trkpt lat="44.78524" lon="5.14728">
        <ele>358.3</ele>
      </trkpt>
      <trkpt lat="44.78531" lon="5.14728">
        <ele>358.4</ele>
      </trkpt>
      <trkpt lat="44.78534" lon="5.14732">
        <ele>357.7</ele>
      </trkpt>
      <trkpt lat="44.78539" lon="5.14739">
        <ele>356.9</ele>
      </trkpt>
      <trkpt lat="44.78545" lon="5.14744">
        <ele>356.5</ele>
      </trkpt>
      <trkpt lat="44.78548" lon="5.14747">
        <ele>356.2</ele>
      </trkpt>
      <trkpt lat="44.78554" lon="5.14761">
        <ele>356.8</ele>
      </trkpt>
      <trkpt lat="44.78558" lon="5.14773">
        <ele>358</ele>
      </trkpt>
      <trkpt lat="44.78564" lon="5.14778">
        <ele>358.9</ele>
      </trkpt>
      <trkpt lat="44.78592" lon="5.14776">
        <ele>361.7</ele>
      </trkpt>
      <trkpt lat="44.78632" lon="5.14772">
        <ele>365.4</ele>
      </trkpt>
      <trkpt lat="44.7869" lon="5.14801">
        <ele>375</ele>
      </trkpt>
      <trkpt lat="44.78726" lon="5.14827">
        <ele>380.2</ele>
      </trkpt>
      <trkpt lat="44.78748" lon="5.14812">
        <ele>380.1</ele>
      </trkpt>
      <trkpt lat="44.78782" lon="5.14808">
        <ele>384</ele>
      </trkpt>
      <trkpt lat="44.7881" lon="5.148">
        <ele>386.4</ele>
      </trkpt>
      <trkpt lat="44.7884" lon="5.14838">
        <ele>395.9</ele>
      </trkpt>
      <trkpt lat="44.78852" lon="5.14861">
        <ele>401.7</ele>
      </trkpt>
      <trkpt lat="44.78856" lon="5.14885">
        <ele>406.2</ele>
      </trkpt>
      <trkpt lat="44.78876" lon="5.14888">
        <ele>410.2</ele>
      </trkpt>
      <trkpt lat="44.78902" lon="5.14885">
        <ele>414.3</ele>
      </trkpt>
      <trkpt lat="44.78928" lon="5.1487">
        <ele>415.8</ele>
      </trkpt>
      <trkpt lat="44.79015" lon="5.14868">
        <ele>423.6</ele>
      </trkpt>
      <trkpt lat="44.79028" lon="5.1487">
        <ele>424.4</ele>
      </trkpt>
      <trkpt lat="44.7906" lon="5.1489">
        <ele>427.5</ele>
      </trkpt>
      <trkpt lat="44.79101" lon="5.14917">
        <ele>431.8</ele>
      </trkpt>
      <trkpt lat="44.7913" lon="5.14968">
        <ele>438.8</ele>
      </trkpt>
      <trkpt lat="44.79159" lon="5.15061">
        <ele>449.4</ele>
      </trkpt>
      <trkpt lat="44.79185" lon="5.15125">
        <ele>459</ele>
      </trkpt>
      <trkpt lat="44.79204" lon="5.15154">
        <ele>464.3</ele>
      </trkpt>
      <trkpt lat="44.79216" lon="5.15178">
        <ele>467.8</ele>
      </trkpt>
      <trkpt lat="44.79236" lon="5.1519">
        <ele>470.7</ele>
      </trkpt>
      <trkpt lat="44.79258" lon="5.15209">
        <ele>474.2</ele>
      </trkpt>
      <trkpt lat="44.79269" lon="5.15229">
        <ele>477</ele>
      </trkpt>
      <trkpt lat="44.79287" lon="5.15269">
        <ele>482.2</ele>
      </trkpt>
      <trkpt lat="44.793" lon="5.15287">
        <ele>485.1</ele>
      </trkpt>
      <trkpt lat="44.79322" lon="5.15314">
        <ele>490</ele>
      </trkpt>
      <trkpt lat="44.79349" lon="5.15335">
        <ele>494.4</ele>
      </trkpt>
      <trkpt lat="44.79362" lon="5.15353">
        <ele>496.7</ele>
      </trkpt>
      <trkpt lat="44.7938" lon="5.15363">
        <ele>499.3</ele>
      </trkpt>
      <trkpt lat="44.79396" lon="5.1538">
        <ele>502.6</ele>
      </trkpt>
      <trkpt lat="44.79417" lon="5.15392">
        <ele>506.4</ele>
      </trkpt>
      <trkpt lat="44.79445" lon="5.15412">
        <ele>511.9</ele>
      </trkpt>
      <trkpt lat="44.79473" lon="5.1543">
        <ele>517.8</ele>
      </trkpt>
      <trkpt lat="44.79488" lon="5.15433">
        <ele>520.1</ele>
      </trkpt>
      <trkpt lat="44.79495" lon="5.1543">
        <ele>520.5</ele>
      </trkpt>
      <trkpt lat="44.79518" lon="5.15433">
        <ele>524.2</ele>
      </trkpt>
      <trkpt lat="44.79526" lon="5.15448">
        <ele>527.8</ele>
      </trkpt>
      <trkpt lat="44.79534" lon="5.15477">
        <ele>533.6</ele>
      </trkpt>
      <trkpt lat="44.79543" lon="5.15493">
        <ele>537.6</ele>
      </trkpt>
      <trkpt lat="44.79552" lon="5.15496">
        <ele>539.5</ele>
      </trkpt>
      <trkpt lat="44.79599" lon="5.15484">
        <ele>546.4</ele>
      </trkpt>
      <trkpt lat="44.79596" lon="5.15494">
        <ele>547.3</ele>
      </trkpt>
      <trkpt lat="44.79595" lon="5.15545">
        <ele>552.9</ele>
      </trkpt>
      <trkpt lat="44.79601" lon="5.15599">
        <ele>558.5</ele>
      </trkpt>
      <trkpt lat="44.79609" lon="5.1566">
        <ele>560</ele>
      </trkpt>
      <trkpt lat="44.79618" lon="5.15683">
        <ele>558.3</ele>
      </trkpt>
      <trkpt lat="44.79644" lon="5.15719">
        <ele>557</ele>
      </trkpt>
      <trkpt lat="44.79652" lon="5.15724">
        <ele>558</ele>
      </trkpt>
      <trkpt lat="44.79656" lon="5.15724">
        <ele>559.1</ele>
      </trkpt>
      <trkpt lat="44.79663" lon="5.1573">
        <ele>559.5</ele>
      </trkpt>
      <trkpt lat="44.79724" lon="5.15763">
        <ele>568.9</ele>
      </trkpt>
      <trkpt lat="44.79795" lon="5.15798">
        <ele>578.5</ele>
      </trkpt>
      <trkpt lat="44.79853" lon="5.15831">
        <ele>587</ele>
      </trkpt>
      <trkpt lat="44.79899" lon="5.1587">
        <ele>591.7</ele>
      </trkpt>
      <trkpt lat="44.80011" lon="5.15957">
        <ele>612.1</ele>
      </trkpt>
      <trkpt lat="44.80056" lon="5.15974">
        <ele>620.1</ele>
      </trkpt>
      <trkpt lat="44.80144" lon="5.15994">
        <ele>638.5</ele>
      </trkpt>
      <trkpt lat="44.80221" lon="5.16048">
        <ele>647.7</ele>
      </trkpt>
      <trkpt lat="44.80294" lon="5.16103">
        <ele>657</ele>
      </trkpt>
      <trkpt lat="44.80344" lon="5.1618">
        <ele>661.7</ele>
      </trkpt>
      <trkpt lat="44.80392" lon="5.16226">
        <ele>669.8</ele>
      </trkpt>
      <trkpt lat="44.80395" lon="5.16222">
        <ele>671.1</ele>
      </trkpt>
      <trkpt lat="44.80376" lon="5.16191">
        <ele>669.8</ele>
      </trkpt>
      <trkpt lat="44.80374" lon="5.16177">
        <ele>670.2</ele>
      </trkpt>
      <trkpt lat="44.8038" lon="5.1618">
        <ele>671.8</ele>
      </trkpt>
      <trkpt lat="44.80398" lon="5.16198">
        <ele>674.5</ele>
      </trkpt>
      <trkpt lat="44.80429" lon="5.16219">
        <ele>677.9</ele>
      </trkpt>
      <trkpt lat="44.80448" lon="5.16225">
        <ele>680.1</ele>
      </trkpt>
      <trkpt lat="44.80469" lon="5.16222">
        <ele>684.2</ele>
      </trkpt>
      <trkpt lat="44.80491" lon="5.16236">
        <ele>685.7</ele>
      </trkpt>
      <trkpt lat="44.80497" lon="5.16259">
        <ele>684.9</ele>
      </trkpt>
      <trkpt lat="44.80512" lon="5.16301">
        <ele>687.3</ele>
      </trkpt>
      <trkpt lat="44.80519" lon="5.16297">
        <ele>687.4</ele>
      </trkpt>
      <trkpt lat="44.80537" lon="5.16303">
        <ele>688.3</ele>
      </trkpt>
      <trkpt lat="44.80578" lon="5.16332">
        <ele>689.9</ele>
      </trkpt>
      <trkpt lat="44.80599" lon="5.16356">
        <ele>689.6</ele>
      </trkpt>
      <trkpt lat="44.80629" lon="5.16395">
        <ele>689</ele>
      </trkpt>
      <trkpt lat="44.80664" lon="5.16412">
        <ele>687.9</ele>
      </trkpt>
      <trkpt lat="44.80711" lon="5.16453">
        <ele>684.5</ele>
      </trkpt>
      <trkpt lat="44.80753" lon="5.16502">
        <ele>683.9</ele>
      </trkpt>
      <trkpt lat="44.80783" lon="5.16542">
        <ele>683.5</ele>
      </trkpt>
      <trkpt lat="44.80818" lon="5.16581">
        <ele>682.3</ele>
      </trkpt>
      <trkpt lat="44.80858" lon="5.16634">
        <ele>682.4</ele>
      </trkpt>
      <trkpt lat="44.80896" lon="5.16676">
        <ele>681.8</ele>
      </trkpt>
      <trkpt lat="44.80916" lon="5.16696">
        <ele>681.2</ele>
      </trkpt>
      <trkpt lat="44.80941" lon="5.16712">
        <ele>681.8</ele>
      </trkpt>
      <trkpt lat="44.80947" lon="5.16717">
        <ele>682</ele>
      </trkpt>
      <trkpt lat="44.80954" lon="5.16723">
        <ele>682.2</ele>
      </trkpt>
      <trkpt lat="44.80958" lon="5.16729">
        <ele>682.4</ele>
      </trkpt>
      <trkpt lat="44.80961" lon="5.16737">
        <ele>682.7</ele>
      </trkpt>
      <trkpt lat="44.80962" lon="5.16743">
        <ele>683</ele>
      </trkpt>
      <trkpt lat="44.80963" lon="5.1675">
        <ele>683.3</ele>
      </trkpt>
      <trkpt lat="44.80964" lon="5.16754">
        <ele>683.5</ele>
      </trkpt>
      <trkpt lat="44.80966" lon="5.1676">
        <ele>683.7</ele>
      </trkpt>
      <trkpt lat="44.80972" lon="5.16765">
        <ele>683.7</ele>
      </trkpt>
      <trkpt lat="44.80979" lon="5.16771">
        <ele>683.8</ele>
      </trkpt>
      <trkpt lat="44.80987" lon="5.16776">
        <ele>683.7</ele>
      </trkpt>
      <trkpt lat="44.80995" lon="5.16777">
        <ele>683.5</ele>
      </trkpt>
      <trkpt lat="44.81002" lon="5.16777">
        <ele>683.4</ele>
      </trkpt>
      <trkpt lat="44.8101" lon="5.16775">
        <ele>683.8</ele>
      </trkpt>
      <trkpt lat="44.81017" lon="5.16773">
        <ele>684.2</ele>
      </trkpt>
      <trkpt lat="44.81029" lon="5.16767">
        <ele>684.7</ele>
      </trkpt>
      <trkpt lat="44.81045" lon="5.16762">
        <ele>685.6</ele>
      </trkpt>
      <trkpt lat="44.8106" lon="5.1676">
        <ele>686.5</ele>
      </trkpt>
      <trkpt lat="44.81085" lon="5.16753">
        <ele>688.3</ele>
      </trkpt>
      <trkpt lat="44.81112" lon="5.16742">
        <ele>692.5</ele>
      </trkpt>
      <trkpt lat="44.81125" lon="5.16735">
        <ele>694.8</ele>
      </trkpt>
      <trkpt lat="44.81133" lon="5.16731">
        <ele>696.2</ele>
      </trkpt>
      <trkpt lat="44.81139" lon="5.16724">
        <ele>697.3</ele>
      </trkpt>
      <trkpt lat="44.81147" lon="5.16704">
        <ele>699.2</ele>
      </trkpt>
      <trkpt lat="44.81158" lon="5.16669">
        <ele>702.3</ele>
      </trkpt>
      <trkpt lat="44.81163" lon="5.16647">
        <ele>704</ele>
      </trkpt>
      <trkpt lat="44.81168" lon="5.16632">
        <ele>705.6</ele>
      </trkpt>
      <trkpt lat="44.81175" lon="5.1662">
        <ele>707.5</ele>
      </trkpt>
      <trkpt lat="44.81184" lon="5.16609">
        <ele>709.4</ele>
      </trkpt>
      <trkpt lat="44.81193" lon="5.16595">
        <ele>711.4</ele>
      </trkpt>
      <trkpt lat="44.81201" lon="5.16588">
        <ele>712.7</ele>
      </trkpt>
      <trkpt lat="44.81212" lon="5.16576">
        <ele>714.1</ele>
      </trkpt>
      <trkpt lat="44.81223" lon="5.16562">
        <ele>714.9</ele>
      </trkpt>
      <trkpt lat="44.81232" lon="5.16545">
        <ele>715.3</ele>
      </trkpt>
      <trkpt lat="44.8124" lon="5.16534">
        <ele>715.8</ele>
      </trkpt>
      <trkpt lat="44.81244" lon="5.1653">
        <ele>716.3</ele>
      </trkpt>
      <trkpt lat="44.81249" lon="5.16528">
        <ele>716.9</ele>
      </trkpt>
      <trkpt lat="44.81258" lon="5.16526">
        <ele>718</ele>
      </trkpt>
      <trkpt lat="44.8127" lon="5.16523">
        <ele>719.5</ele>
      </trkpt>
      <trkpt lat="44.81283" lon="5.1652">
        <ele>721</ele>
      </trkpt>
      <trkpt lat="44.81298" lon="5.16518">
        <ele>722.8</ele>
      </trkpt>
      <trkpt lat="44.813" lon="5.16522">
        <ele>723.5</ele>
      </trkpt>
      <trkpt lat="44.813" lon="5.16524">
        <ele>723.8</ele>
      </trkpt>
      <trkpt lat="44.813" lon="5.16527">
        <ele>724</ele>
      </trkpt>
      <trkpt lat="44.81292" lon="5.16546">
        <ele>725.1</ele>
      </trkpt>
      <trkpt lat="44.81288" lon="5.16571">
        <ele>727</ele>
      </trkpt>
      <trkpt lat="44.81289" lon="5.16588">
        <ele>728.6</ele>
      </trkpt>
      <trkpt lat="44.81302" lon="5.16592">
        <ele>731.2</ele>
      </trkpt>
      <trkpt lat="44.81315" lon="5.16598">
        <ele>734</ele>
      </trkpt>
      <trkpt lat="44.8133" lon="5.16608">
        <ele>737</ele>
      </trkpt>
      <trkpt lat="44.81343" lon="5.16618">
        <ele>739.2</ele>
      </trkpt>
      <trkpt lat="44.81355" lon="5.16626">
        <ele>741.3</ele>
      </trkpt>
      <trkpt lat="44.81377" lon="5.16604">
        <ele>743.2</ele>
      </trkpt>
      <trkpt lat="44.81416" lon="5.16587">
        <ele>746.3</ele>
      </trkpt>
      <trkpt lat="44.81423" lon="5.16582">
        <ele>747.4</ele>
      </trkpt>
      <trkpt lat="44.81431" lon="5.16577">
        <ele>748.5</ele>
      </trkpt>
      <trkpt lat="44.81478" lon="5.16542">
        <ele>753.5</ele>
      </trkpt>
      <trkpt lat="44.815" lon="5.16533">
        <ele>756.3</ele>
      </trkpt>
      <trkpt lat="44.81518" lon="5.16522">
        <ele>758.8</ele>
      </trkpt>
      <trkpt lat="44.81529" lon="5.16511">
        <ele>759.1</ele>
      </trkpt>
      <trkpt lat="44.81606" lon="5.16491">
        <ele>770.7</ele>
      </trkpt>
      <trkpt lat="44.81641" lon="5.16481">
        <ele>774.3</ele>
      </trkpt>
      <trkpt lat="44.81687" lon="5.16467">
        <ele>777.4</ele>
      </trkpt>
      <trkpt lat="44.81708" lon="5.16461">
        <ele>778.3</ele>
      </trkpt>
      <trkpt lat="44.81817" lon="5.16481">
        <ele>789.6</ele>
      </trkpt>
      <trkpt lat="44.8187" lon="5.16497">
        <ele>794.3</ele>
      </trkpt>
      <trkpt lat="44.81862" lon="5.16506">
        <ele>795.9</ele>
      </trkpt>
      <trkpt lat="44.81867" lon="5.16559">
        <ele>807.5</ele>
      </trkpt>
      <trkpt lat="44.81864" lon="5.16599">
        <ele>817.5</ele>
      </trkpt>
      <trkpt lat="44.81864" lon="5.16625">
        <ele>825.5</ele>
      </trkpt>
      <trkpt lat="44.81857" lon="5.1663">
        <ele>827</ele>
      </trkpt>
      <trkpt lat="44.81852" lon="5.16643">
        <ele>830.6</ele>
      </trkpt>
      <trkpt lat="44.8185" lon="5.1666">
        <ele>835.7</ele>
      </trkpt>
      <trkpt lat="44.81832" lon="5.16674">
        <ele>840.2</ele>
      </trkpt>
      <trkpt lat="44.81771" lon="5.16703">
        <ele>856.6</ele>
      </trkpt>
      <trkpt lat="44.8173" lon="5.16723">
        <ele>867.7</ele>
      </trkpt>
      <trkpt lat="44.81763" lon="5.16764">
        <ele>884.6</ele>
      </trkpt>
      <trkpt lat="44.81791" lon="5.16779">
        <ele>890.1</ele>
      </trkpt>
      <trkpt lat="44.818" lon="5.16779">
        <ele>889.5</ele>
      </trkpt>
      <trkpt lat="44.8182" lon="5.16793">
        <ele>894.9</ele>
      </trkpt>
      <trkpt lat="44.81815" lon="5.16803">
        <ele>900.1</ele>
      </trkpt>
      <trkpt lat="44.81819" lon="5.16809">
        <ele>903</ele>
      </trkpt>
      <trkpt lat="44.81827" lon="5.16815">
        <ele>905.4</ele>
      </trkpt>
      <trkpt lat="44.81837" lon="5.1682">
        <ele>907.3</ele>
      </trkpt>
      <trkpt lat="44.81845" lon="5.16828">
        <ele>911.7</ele>
      </trkpt>
      <trkpt lat="44.81852" lon="5.16834">
        <ele>914.5</ele>
      </trkpt>
      <trkpt lat="44.81846" lon="5.16842">
        <ele>916.7</ele>
      </trkpt>
      <trkpt lat="44.8184" lon="5.16842">
        <ele>916.6</ele>
      </trkpt>
      <trkpt lat="44.81832" lon="5.16838">
        <ele>915.6</ele>
      </trkpt>
      <trkpt lat="44.81827" lon="5.16838">
        <ele>915.9</ele>
      </trkpt>
      <trkpt lat="44.81824" lon="5.16846">
        <ele>918.5</ele>
      </trkpt>
      <trkpt lat="44.81825" lon="5.16851">
        <ele>919.8</ele>
      </trkpt>
      <trkpt lat="44.81835" lon="5.16855">
        <ele>920.7</ele>
      </trkpt>
      <trkpt lat="44.81835" lon="5.1686">
        <ele>922.2</ele>
      </trkpt>
      <trkpt lat="44.81828" lon="5.16863">
        <ele>923.3</ele>
      </trkpt>
      <trkpt lat="44.81827" lon="5.16867">
        <ele>924.8</ele>
      </trkpt>
      <trkpt lat="44.81853" lon="5.16873">
        <ele>925.5</ele>
      </trkpt>
      <trkpt lat="44.81866" lon="5.16893">
        <ele>930.3</ele>
      </trkpt>
      <trkpt lat="44.81874" lon="5.16914">
        <ele>934.9</ele>
      </trkpt>
      <trkpt lat="44.81886" lon="5.16933">
        <ele>936.8</ele>
      </trkpt>
      <trkpt lat="44.81899" lon="5.16947">
        <ele>937.6</ele>
      </trkpt>
      <trkpt lat="44.81917" lon="5.16956">
        <ele>937.1</ele>
      </trkpt>
      <trkpt lat="44.81924" lon="5.16955">
        <ele>937.2</ele>
      </trkpt>
      <trkpt lat="44.81936" lon="5.16965">
        <ele>938.9</ele>
      </trkpt>
      <trkpt lat="44.81972" lon="5.17011">
        <ele>944.4</ele>
      </trkpt>
      <trkpt lat="44.81984" lon="5.1702">
        <ele>945.2</ele>
      </trkpt>
      <trkpt lat="44.82001" lon="5.17024">
        <ele>945.6</ele>
      </trkpt>
      <trkpt lat="44.82015" lon="5.17031">
        <ele>946.8</ele>
      </trkpt>
      <trkpt lat="44.82028" lon="5.1704">
        <ele>948</ele>
      </trkpt>
      <trkpt lat="44.82046" lon="5.17055">
        <ele>949.7</ele>
      </trkpt>
      <trkpt lat="44.82058" lon="5.17061">
        <ele>950.3</ele>
      </trkpt>
      <trkpt lat="44.82074" lon="5.17067">
        <ele>950.9</ele>
      </trkpt>
      <trkpt lat="44.82084" lon="5.17071">
        <ele>951.3</ele>
      </trkpt>
      <trkpt lat="44.82135" lon="5.171">
        <ele>955.2</ele>
      </trkpt>
      <trkpt lat="44.82159" lon="5.1712">
        <ele>956.7</ele>
      </trkpt>
      <trkpt lat="44.82178" lon="5.17138">
        <ele>957.3</ele>
      </trkpt>
      <trkpt lat="44.82206" lon="5.1717">
        <ele>956.8</ele>
      </trkpt>
      <trkpt lat="44.8222" lon="5.17184">
        <ele>956.6</ele>
      </trkpt>
      <trkpt lat="44.8226" lon="5.17219">
        <ele>955.9</ele>
      </trkpt>
      <trkpt lat="44.82308" lon="5.17258">
        <ele>954.2</ele>
      </trkpt>
      <trkpt lat="44.82318" lon="5.17264">
        <ele>953.7</ele>
      </trkpt>
      <trkpt lat="44.82336" lon="5.17267">
        <ele>952.7</ele>
      </trkpt>
      <trkpt lat="44.82349" lon="5.17272">
        <ele>952.3</ele>
      </trkpt>
      <trkpt lat="44.82361" lon="5.17284">
        <ele>952.3</ele>
      </trkpt>
      <trkpt lat="44.8239" lon="5.17298">
        <ele>951.6</ele>
      </trkpt>
      <trkpt lat="44.82416" lon="5.17317">
        <ele>951.2</ele>
      </trkpt>
      <trkpt lat="44.82439" lon="5.17336">
        <ele>951</ele>
      </trkpt>
      <trkpt lat="44.82487" lon="5.17332">
        <ele>948.6</ele>
      </trkpt>
      <trkpt lat="44.82554" lon="5.17321">
        <ele>946.1</ele>
      </trkpt>
      <trkpt lat="44.82583" lon="5.1731">
        <ele>945.3</ele>
      </trkpt>
      <trkpt lat="44.82631" lon="5.17309">
        <ele>944.5</ele>
      </trkpt>
      <trkpt lat="44.82662" lon="5.17331">
        <ele>943.2</ele>
      </trkpt>
      <trkpt lat="44.82692" lon="5.17364">
        <ele>944.5</ele>
      </trkpt>
      <trkpt lat="44.82739" lon="5.17392">
        <ele>944.5</ele>
      </trkpt>
      <trkpt lat="44.8277" lon="5.17415">
        <ele>943.1</ele>
      </trkpt>
      <trkpt lat="44.82818" lon="5.1748">
        <ele>941.4</ele>
      </trkpt>
      <trkpt lat="44.82832" lon="5.17506">
        <ele>940.8</ele>
      </trkpt>
      <trkpt lat="44.82867" lon="5.1751">
        <ele>937.9</ele>
      </trkpt>
      <trkpt lat="44.82922" lon="5.17536">
        <ele>933.2</ele>
      </trkpt>
      <trkpt lat="44.82966" lon="5.17556">
        <ele>930.2</ele>
      </trkpt>
      <trkpt lat="44.83027" lon="5.17579">
        <ele>925.2</ele>
      </trkpt>
      <trkpt lat="44.83086" lon="5.17593">
        <ele>920.3</ele>
      </trkpt>
      <trkpt lat="44.83118" lon="5.17565">
        <ele>919.1</ele>
      </trkpt>
      <trkpt lat="44.83134" lon="5.17529">
        <ele>920.4</ele>
      </trkpt>
      <trkpt lat="44.83165" lon="5.1755">
        <ele>917.3</ele>
      </trkpt>
      <trkpt lat="44.83222" lon="5.17592">
        <ele>913.5</ele>
      </trkpt>
      <trkpt lat="44.83295" lon="5.1765">
        <ele>911</ele>
      </trkpt>
      <trkpt lat="44.83362" lon="5.17663">
        <ele>911.8</ele>
      </trkpt>
      <trkpt lat="44.83367" lon="5.17649">
        <ele>913.6</ele>
      </trkpt>
      <trkpt lat="44.83397" lon="5.1765">
        <ele>914.1</ele>
      </trkpt>
      <trkpt lat="44.83427" lon="5.17656">
        <ele>914.2</ele>
      </trkpt>
      <trkpt lat="44.83445" lon="5.17665">
        <ele>914</ele>
      </trkpt>
      <trkpt lat="44.83474" lon="5.17673">
        <ele>914.6</ele>
      </trkpt>
      <trkpt lat="44.83514" lon="5.17674">
        <ele>917.4</ele>
      </trkpt>
      <trkpt lat="44.83531" lon="5.17673">
        <ele>919.3</ele>
      </trkpt>
      <trkpt lat="44.83541" lon="5.17689">
        <ele>917.6</ele>
      </trkpt>
      <trkpt lat="44.83702" lon="5.17745">
        <ele>922</ele>
      </trkpt>
      <trkpt lat="44.8377" lon="5.17758">
        <ele>928.2</ele>
      </trkpt>
      <trkpt lat="44.83844" lon="5.17783">
        <ele>932.2</ele>
      </trkpt>
      <trkpt lat="44.83997" lon="5.17836">
        <ele>940.6</ele>
      </trkpt>
      <trkpt lat="44.84042" lon="5.17842">
        <ele>946.7</ele>
      </trkpt>
      <trkpt lat="44.84069" lon="5.1782">
        <ele>957.5</ele>
      </trkpt>
      <trkpt lat="44.84084" lon="5.17815">
        <ele>961.6</ele>
      </trkpt>
      <trkpt lat="44.84087" lon="5.17843">
        <ele>954.6</ele>
      </trkpt>
      <trkpt lat="44.8409" lon="5.17876">
        <ele>947</ele>
      </trkpt>
      <trkpt lat="44.84102" lon="5.17915">
        <ele>940.6</ele>
      </trkpt>
      <trkpt lat="44.842" lon="5.17967">
        <ele>948.5</ele>
      </trkpt>
      <trkpt lat="44.84395" lon="5.18033">
        <ele>957.4</ele>
      </trkpt>
      <trkpt lat="44.84456" lon="5.18045">
        <ele>958.4</ele>
      </trkpt>
      <trkpt lat="44.84481" lon="5.18043">
        <ele>960.5</ele>
      </trkpt>
      <trkpt lat="44.84504" lon="5.18026">
        <ele>967.4</ele>
      </trkpt>
      <trkpt lat="44.84516" lon="5.1801">
        <ele>972.9</ele>
      </trkpt>
      <trkpt lat="44.84537" lon="5.18002">
        <ele>975.7</ele>
      </trkpt>
      <trkpt lat="44.84633" lon="5.18008">
        <ele>974.1</ele>
      </trkpt>
      <trkpt lat="44.84732" lon="5.17992">
        <ele>978.4</ele>
      </trkpt>
      <trkpt lat="44.84795" lon="5.17981">
        <ele>982.7</ele>
      </trkpt>
      <trkpt lat="44.84946" lon="5.18042">
        <ele>981.3</ele>
      </trkpt>
      <trkpt lat="44.85048" lon="5.18078">
        <ele>982.7</ele>
      </trkpt>
      <trkpt lat="44.85066" lon="5.18081">
        <ele>982.7</ele>
      </trkpt>
      <trkpt lat="44.85091" lon="5.18078">
        <ele>985.1</ele>
      </trkpt>
      <trkpt lat="44.85136" lon="5.18069">
        <ele>990</ele>
      </trkpt>
      <trkpt lat="44.85157" lon="5.18069">
        <ele>990.9</ele>
      </trkpt>
      <trkpt lat="44.85173" lon="5.18077">
        <ele>990</ele>
      </trkpt>
      <trkpt lat="44.85215" lon="5.18096">
        <ele>991.3</ele>
      </trkpt>
      <trkpt lat="44.8527" lon="5.1813">
        <ele>990.9</ele>
      </trkpt>
      <trkpt lat="44.853" lon="5.18139">
        <ele>992</ele>
      </trkpt>
      <trkpt lat="44.85354" lon="5.18147">
        <ele>994.6</ele>
      </trkpt>
      <trkpt lat="44.8538" lon="5.18157">
        <ele>993</ele>
      </trkpt>
      <trkpt lat="44.85453" lon="5.18191">
        <ele>983.4</ele>
      </trkpt>
      <trkpt lat="44.85485" lon="5.182">
        <ele>981</ele>
      </trkpt>
      <trkpt lat="44.85506" lon="5.18199">
        <ele>981.7</ele>
      </trkpt>
      <trkpt lat="44.85536" lon="5.18203">
        <ele>980.6</ele>
      </trkpt>
      <trkpt lat="44.85553" lon="5.18201">
        <ele>981.5</ele>
      </trkpt>
      <trkpt lat="44.85589" lon="5.18202">
        <ele>981.4</ele>
      </trkpt>
      <trkpt lat="44.85623" lon="5.18198">
        <ele>983.4</ele>
      </trkpt>
      <trkpt lat="44.85671" lon="5.1818">
        <ele>990.9</ele>
      </trkpt>
      <trkpt lat="44.85729" lon="5.18159">
        <ele>994.9</ele>
      </trkpt>
      <trkpt lat="44.85781" lon="5.18137">
        <ele>1000.5</ele>
      </trkpt>
      <trkpt lat="44.85864" lon="5.18087">
        <ele>1010.5</ele>
      </trkpt>
      <trkpt lat="44.85886" lon="5.18086">
        <ele>1007.7</ele>
      </trkpt>
      <trkpt lat="44.85912" lon="5.18088">
        <ele>1003.3</ele>
      </trkpt>
      <trkpt lat="44.85939" lon="5.18093">
        <ele>1000.1</ele>
      </trkpt>
      <trkpt lat="44.85954" lon="5.18094">
        <ele>998.9</ele>
      </trkpt>
      <trkpt lat="44.85964" lon="5.18103">
        <ele>996.9</ele>
      </trkpt>
      <trkpt lat="44.85984" lon="5.18113">
        <ele>995.1</ele>
      </trkpt>
      <trkpt lat="44.85991" lon="5.18116">
        <ele>994.7</ele>
      </trkpt>
      <trkpt lat="44.86007" lon="5.18122">
        <ele>995.1</ele>
      </trkpt>
      <trkpt lat="44.86026" lon="5.18129">
        <ele>997.4</ele>
      </trkpt>
      <trkpt lat="44.86034" lon="5.18125">
        <ele>998.6</ele>
      </trkpt>
      <trkpt lat="44.86078" lon="5.18145">
        <ele>1004.4</ele>
      </trkpt>
      <trkpt lat="44.86096" lon="5.18154">
        <ele>1006.3</ele>
      </trkpt>
      <trkpt lat="44.86117" lon="5.18161">
        <ele>1008.3</ele>
      </trkpt>
      <trkpt lat="44.86131" lon="5.18161">
        <ele>1009.6</ele>
      </trkpt>
      <trkpt lat="44.86142" lon="5.18157">
        <ele>1010.7</ele>
      </trkpt>
      <trkpt lat="44.86153" lon="5.1815">
        <ele>1011.9</ele>
      </trkpt>
      <trkpt lat="44.86195" lon="5.18161">
        <ele>1011.7</ele>
      </trkpt>
      <trkpt lat="44.86213" lon="5.18171">
        <ele>1010.1</ele>
      </trkpt>
      <trkpt lat="44.86231" lon="5.18192">
        <ele>1005.4</ele>
      </trkpt>
      <trkpt lat="44.86251" lon="5.18195">
        <ele>1003.8</ele>
      </trkpt>
      <trkpt lat="44.8627" lon="5.18196">
        <ele>1002.5</ele>
      </trkpt>
      <trkpt lat="44.86287" lon="5.18194">
        <ele>1002</ele>
      </trkpt>
      <trkpt lat="44.863" lon="5.18194">
        <ele>1001.4</ele>
      </trkpt>
      <trkpt lat="44.86311" lon="5.18197">
        <ele>1000.2</ele>
      </trkpt>
      <trkpt lat="44.86315" lon="5.18197">
        <ele>1000</ele>
      </trkpt>
      <trkpt lat="44.86319" lon="5.18207">
        <ele>998.1</ele>
      </trkpt>
      <trkpt lat="44.86308" lon="5.18218">
        <ele>996.7</ele>
      </trkpt>
      <trkpt lat="44.86294" lon="5.18231">
        <ele>995.3</ele>
      </trkpt>
      <trkpt lat="44.86274" lon="5.18245">
        <ele>993.8</ele>
      </trkpt>
      <trkpt lat="44.8626" lon="5.18255">
        <ele>992.3</ele>
      </trkpt>
      <trkpt lat="44.86245" lon="5.18262">
        <ele>991.6</ele>
      </trkpt>
      <trkpt lat="44.86233" lon="5.18271">
        <ele>989.9</ele>
      </trkpt>
      <trkpt lat="44.86218" lon="5.18281">
        <ele>988.6</ele>
      </trkpt>
      <trkpt lat="44.86193" lon="5.18323">
        <ele>978.8</ele>
      </trkpt>
      <trkpt lat="44.86205" lon="5.18327">
        <ele>977.3</ele>
      </trkpt>
      <trkpt lat="44.86219" lon="5.18326">
        <ele>977.1</ele>
      </trkpt>
      <trkpt lat="44.86276" lon="5.18343">
        <ele>969.6</ele>
      </trkpt>
      <trkpt lat="44.86307" lon="5.18359">
        <ele>963</ele>
      </trkpt>
      <trkpt lat="44.86335" lon="5.18374">
        <ele>957.1</ele>
      </trkpt>
      <trkpt lat="44.86361" lon="5.18389">
        <ele>950.3</ele>
      </trkpt>
      <trkpt lat="44.86375" lon="5.18404">
        <ele>944.9</ele>
      </trkpt>
      <trkpt lat="44.86398" lon="5.18421">
        <ele>937.8</ele>
      </trkpt>
      <trkpt lat="44.86418" lon="5.18441">
        <ele>929.5</ele>
      </trkpt>
      <trkpt lat="44.86437" lon="5.18461">
        <ele>920.9</ele>
      </trkpt>
      <trkpt lat="44.86453" lon="5.18472">
        <ele>915.3</ele>
      </trkpt>
      <trkpt lat="44.8647" lon="5.18479">
        <ele>911.4</ele>
      </trkpt>
      <trkpt lat="44.86511" lon="5.1849">
        <ele>903.8</ele>
      </trkpt>
      <trkpt lat="44.86549" lon="5.18516">
        <ele>893.7</ele>
      </trkpt>
      <trkpt lat="44.86601" lon="5.18555">
        <ele>878.7</ele>
      </trkpt>
      <trkpt lat="44.86625" lon="5.186">
        <ele>865.3</ele>
      </trkpt>
      <trkpt lat="44.86635" lon="5.18635">
        <ele>855.5</ele>
      </trkpt>
      <trkpt lat="44.86657" lon="5.18666">
        <ele>846.8</ele>
      </trkpt>
      <trkpt lat="44.8669" lon="5.1868">
        <ele>838.9</ele>
      </trkpt>
      <trkpt lat="44.86728" lon="5.18688">
        <ele>830.9</ele>
      </trkpt>
      <trkpt lat="44.8676" lon="5.18686">
        <ele>827</ele>
      </trkpt>
      <trkpt lat="44.86772" lon="5.18684">
        <ele>826.8</ele>
      </trkpt>
      <trkpt lat="44.86778" lon="5.18665">
        <ele>829.9</ele>
      </trkpt>
      <trkpt lat="44.86791" lon="5.18658">
        <ele>830.8</ele>
      </trkpt>
      <trkpt lat="44.86817" lon="5.18679">
        <ele>825.2</ele>
      </trkpt>
      <trkpt lat="44.86853" lon="5.18684">
        <ele>823.9</ele>
      </trkpt>
      <trkpt lat="44.86888" lon="5.18687">
        <ele>823.8</ele>
      </trkpt>
      <trkpt lat="44.86913" lon="5.187">
        <ele>821.9</ele>
      </trkpt>
      <trkpt lat="44.86948" lon="5.18719">
        <ele>822.5</ele>
      </trkpt>
      <trkpt lat="44.86983" lon="5.18755">
        <ele>820.6</ele>
      </trkpt>
      <trkpt lat="44.8702" lon="5.18775">
        <ele>823.3</ele>
      </trkpt>
      <trkpt lat="44.87042" lon="5.18786">
        <ele>825.5</ele>
      </trkpt>
      <trkpt lat="44.87055" lon="5.18792">
        <ele>826.7</ele>
      </trkpt>
      <trkpt lat="44.87055" lon="5.18818">
        <ele>825.3</ele>
      </trkpt>
      <trkpt lat="44.87036" lon="5.18835">
        <ele>821.4</ele>
      </trkpt>
      <trkpt lat="44.87039" lon="5.18856">
        <ele>820.4</ele>
      </trkpt>
      <trkpt lat="44.87069" lon="5.18889">
        <ele>821.9</ele>
      </trkpt>
      <trkpt lat="44.87126" lon="5.18897">
        <ele>826.3</ele>
      </trkpt>
      <trkpt lat="44.87176" lon="5.18897">
        <ele>830.1</ele>
      </trkpt>
      <trkpt lat="44.87239" lon="5.18875">
        <ele>835</ele>
      </trkpt>
      <trkpt lat="44.87268" lon="5.18846">
        <ele>838.5</ele>
      </trkpt>
      <trkpt lat="44.87284" lon="5.18838">
        <ele>839.7</ele>
      </trkpt>
      <trkpt lat="44.87307" lon="5.18829">
        <ele>841.3</ele>
      </trkpt>
      <trkpt lat="44.87355" lon="5.18811">
        <ele>842.9</ele>
      </trkpt>
      <trkpt lat="44.87392" lon="5.18786">
        <ele>845</ele>
      </trkpt>
      <trkpt lat="44.87414" lon="5.18747">
        <ele>849</ele>
      </trkpt>
      <trkpt lat="44.87463" lon="5.18714">
        <ele>850.3</ele>
      </trkpt>
      <trkpt lat="44.87504" lon="5.18683">
        <ele>854.1</ele>
      </trkpt>
      <trkpt lat="44.87547" lon="5.18657">
        <ele>858.6</ele>
      </trkpt>
      <trkpt lat="44.87594" lon="5.18629">
        <ele>865.6</ele>
      </trkpt>
      <trkpt lat="44.87628" lon="5.1862">
        <ele>867.6</ele>
      </trkpt>
      <trkpt lat="44.87669" lon="5.18603">
        <ele>872.1</ele>
      </trkpt>
      <trkpt lat="44.877" lon="5.18595">
        <ele>876.4</ele>
      </trkpt>
      <trkpt lat="44.87731" lon="5.18598">
        <ele>877.6</ele>
      </trkpt>
      <trkpt lat="44.87744" lon="5.18596">
        <ele>878.9</ele>
      </trkpt>
      <trkpt lat="44.8776" lon="5.18604">
        <ele>877.8</ele>
      </trkpt>
      <trkpt lat="44.87776" lon="5.18611">
        <ele>877.3</ele>
      </trkpt>
      <trkpt lat="44.87787" lon="5.18613">
        <ele>878</ele>
      </trkpt>
      <trkpt lat="44.87801" lon="5.18613">
        <ele>879.2</ele>
      </trkpt>
      <trkpt lat="44.87828" lon="5.18612">
        <ele>882</ele>
      </trkpt>
      <trkpt lat="44.87879" lon="5.18617">
        <ele>881.9</ele>
      </trkpt>
      <trkpt lat="44.87906" lon="5.18621">
        <ele>881.8</ele>
      </trkpt>
      <trkpt lat="44.87916" lon="5.18623">
        <ele>881.7</ele>
      </trkpt>
      <trkpt lat="44.87927" lon="5.18627">
        <ele>882.6</ele>
      </trkpt>
      <trkpt lat="44.87951" lon="5.18646">
        <ele>883.1</ele>
      </trkpt>
      <trkpt lat="44.87961" lon="5.1865">
        <ele>883.8</ele>
      </trkpt>
      <trkpt lat="44.87972" lon="5.18652">
        <ele>885</ele>
      </trkpt>
      <trkpt lat="44.87989" lon="5.18654">
        <ele>886.8</ele>
      </trkpt>
      <trkpt lat="44.88008" lon="5.18655">
        <ele>888.9</ele>
      </trkpt>
      <trkpt lat="44.88031" lon="5.18657">
        <ele>891.1</ele>
      </trkpt>
      <trkpt lat="44.8804" lon="5.18658">
        <ele>891.9</ele>
      </trkpt>
      <trkpt lat="44.88041" lon="5.18658">
        <ele>892.1</ele>
      </trkpt>
      <trkpt lat="44.88043" lon="5.18657">
        <ele>892.5</ele>
      </trkpt>
      <trkpt lat="44.88045" lon="5.18654">
        <ele>893</ele>
      </trkpt>
      <trkpt lat="44.88045" lon="5.18651">
        <ele>893.5</ele>
      </trkpt>
      <trkpt lat="44.88044" lon="5.18648">
        <ele>893.8</ele>
      </trkpt>
      <trkpt lat="44.88041" lon="5.18645">
        <ele>893.7</ele>
      </trkpt>
      <trkpt lat="44.88036" lon="5.18643">
        <ele>893.5</ele>
      </trkpt>
      <trkpt lat="44.88029" lon="5.1864">
        <ele>893.2</ele>
      </trkpt>
      <trkpt lat="44.88015" lon="5.18631">
        <ele>893.4</ele>
      </trkpt>
      <trkpt lat="44.88006" lon="5.18623">
        <ele>893.8</ele>
      </trkpt>
      <trkpt lat="44.88003" lon="5.1862">
        <ele>894</ele>
      </trkpt>
      <trkpt lat="44.88" lon="5.18618">
        <ele>894.3</ele>
      </trkpt>
      <trkpt lat="44.87999" lon="5.18614">
        <ele>894.6</ele>
      </trkpt>
      <trkpt lat="44.87998" lon="5.18611">
        <ele>895.2</ele>
      </trkpt>
      <trkpt lat="44.87999" lon="5.18608">
        <ele>895.7</ele>
      </trkpt>
      <trkpt lat="44.88" lon="5.18606">
        <ele>896.2</ele>
      </trkpt>
      <trkpt lat="44.88001" lon="5.18605">
        <ele>896.5</ele>
      </trkpt>
      <trkpt lat="44.88005" lon="5.18605">
        <ele>896.7</ele>
      </trkpt>
      <trkpt lat="44.8801" lon="5.18607">
        <ele>896.7</ele>
      </trkpt>
      <trkpt lat="44.88015" lon="5.1861">
        <ele>896.5</ele>
      </trkpt>
      <trkpt lat="44.88023" lon="5.18613">
        <ele>896.7</ele>
      </trkpt>
      <trkpt lat="44.88031" lon="5.18614">
        <ele>897.2</ele>
      </trkpt>
      <trkpt lat="44.88044" lon="5.18613">
        <ele>898.3</ele>
      </trkpt>
      <trkpt lat="44.88058" lon="5.18605">
        <ele>900.2</ele>
      </trkpt>
      <trkpt lat="44.88068" lon="5.18596">
        <ele>901.9</ele>
      </trkpt>
      <trkpt lat="44.88073" lon="5.18587">
        <ele>903.2</ele>
      </trkpt>
      <trkpt lat="44.88076" lon="5.18564">
        <ele>905.5</ele>
      </trkpt>
      <trkpt lat="44.88078" lon="5.18554">
        <ele>906.6</ele>
      </trkpt>
      <trkpt lat="44.88083" lon="5.18539">
        <ele>908.3</ele>
      </trkpt>
      <trkpt lat="44.88108" lon="5.18518">
        <ele>907.7</ele>
      </trkpt>
      <trkpt lat="44.88136" lon="5.18478">
        <ele>908.1</ele>
      </trkpt>
      <trkpt lat="44.88164" lon="5.18448">
        <ele>908.9</ele>
      </trkpt>
      <trkpt lat="44.88193" lon="5.18418">
        <ele>911</ele>
      </trkpt>
      <trkpt lat="44.88225" lon="5.18394">
        <ele>911.4</ele>
      </trkpt>
      <trkpt lat="44.88249" lon="5.18364">
        <ele>912.1</ele>
      </trkpt>
      <trkpt lat="44.88283" lon="5.18336">
        <ele>915.3</ele>
      </trkpt>
      <trkpt lat="44.88292" lon="5.1835">
        <ele>915.1</ele>
      </trkpt>
      <trkpt lat="44.88292" lon="5.18369">
        <ele>914.6</ele>
      </trkpt>
      <trkpt lat="44.88293" lon="5.18398">
        <ele>914.1</ele>
      </trkpt>
      <trkpt lat="44.88288" lon="5.18432">
        <ele>914</ele>
      </trkpt>
      <trkpt lat="44.88279" lon="5.18457">
        <ele>914.7</ele>
      </trkpt>
      <trkpt lat="44.88262" lon="5.18484">
        <ele>913.8</ele>
      </trkpt>
      <trkpt lat="44.88259" lon="5.18495">
        <ele>914.1</ele>
      </trkpt>
      <trkpt lat="44.88276" lon="5.18485">
        <ele>916.3</ele>
      </trkpt>
      <trkpt lat="44.88293" lon="5.18472">
        <ele>918.1</ele>
      </trkpt>
      <trkpt lat="44.88327" lon="5.18509">
        <ele>926</ele>
      </trkpt>
      <trkpt lat="44.88369" lon="5.18541">
        <ele>931.5</ele>
      </trkpt>
      <trkpt lat="44.88363" lon="5.18564">
        <ele>931.3</ele>
      </trkpt>
      <trkpt lat="44.88363" lon="5.18586">
        <ele>931.4</ele>
      </trkpt>
      <trkpt lat="44.8836" lon="5.186">
        <ele>930.7</ele>
      </trkpt>
      <trkpt lat="44.8836" lon="5.18611">
        <ele>930.3</ele>
      </trkpt>
      <trkpt lat="44.88371" lon="5.18658">
        <ele>929.9</ele>
      </trkpt>
      <trkpt lat="44.88388" lon="5.18708">
        <ele>927.4</ele>
      </trkpt>
      <trkpt lat="44.88428" lon="5.18785">
        <ele>928.2</ele>
      </trkpt>
      <trkpt lat="44.88436" lon="5.18801">
        <ele>929.1</ele>
      </trkpt>
      <trkpt lat="44.88421" lon="5.18833">
        <ele>927.5</ele>
      </trkpt>
      <trkpt lat="44.884" lon="5.18869">
        <ele>927.5</ele>
      </trkpt>
      <trkpt lat="44.88382" lon="5.18909">
        <ele>928.2</ele>
      </trkpt>
      <trkpt lat="44.88374" lon="5.18956">
        <ele>930.8</ele>
      </trkpt>
      <trkpt lat="44.88374" lon="5.18993">
        <ele>933.2</ele>
      </trkpt>
      <trkpt lat="44.88376" lon="5.19013">
        <ele>935.7</ele>
      </trkpt>
      <trkpt lat="44.88379" lon="5.19032">
        <ele>938.5</ele>
      </trkpt>
      <trkpt lat="44.88377" lon="5.19054">
        <ele>940.7</ele>
      </trkpt>
      <trkpt lat="44.88368" lon="5.19076">
        <ele>941.9</ele>
      </trkpt>
      <trkpt lat="44.8835" lon="5.19092">
        <ele>940.4</ele>
      </trkpt>
      <trkpt lat="44.88344" lon="5.19096">
        <ele>939.6</ele>
      </trkpt>
      <trkpt lat="44.8834" lon="5.19117">
        <ele>940.5</ele>
      </trkpt>
      <trkpt lat="44.88425" lon="5.19206">
        <ele>953.1</ele>
      </trkpt>
      <trkpt lat="44.88425" lon="5.19247">
        <ele>951.4</ele>
      </trkpt>
      <trkpt lat="44.88447" lon="5.19285">
        <ele>951.2</ele>
      </trkpt>
      <trkpt lat="44.88465" lon="5.19316">
        <ele>950.5</ele>
      </trkpt>
      <trkpt lat="44.88482" lon="5.19342">
        <ele>949.6</ele>
      </trkpt>
      <trkpt lat="44.88517" lon="5.19375">
        <ele>948.6</ele>
      </trkpt>
      <trkpt lat="44.88542" lon="5.19397">
        <ele>947.5</ele>
      </trkpt>
      <trkpt lat="44.88571" lon="5.19415">
        <ele>947.2</ele>
      </trkpt>
      <trkpt lat="44.886" lon="5.19442">
        <ele>946.3</ele>
      </trkpt>
      <trkpt lat="44.88632" lon="5.19464">
        <ele>945.8</ele>
      </trkpt>
      <trkpt lat="44.88667" lon="5.19489">
        <ele>945.9</ele>
      </trkpt>
      <trkpt lat="44.88693" lon="5.19501">
        <ele>946</ele>
      </trkpt>
      <trkpt lat="44.88716" lon="5.19509">
        <ele>947</ele>
      </trkpt>
      <trkpt lat="44.88732" lon="5.1952">
        <ele>947.9</ele>
      </trkpt>
      <trkpt lat="44.88752" lon="5.19537">
        <ele>948.9</ele>
      </trkpt>
      <trkpt lat="44.88773" lon="5.19556">
        <ele>950.2</ele>
      </trkpt>
      <trkpt lat="44.8879" lon="5.19561">
        <ele>951</ele>
      </trkpt>
      <trkpt lat="44.8881" lon="5.19553">
        <ele>951.4</ele>
      </trkpt>
      <trkpt lat="44.88859" lon="5.19545">
        <ele>951</ele>
      </trkpt>
      <trkpt lat="44.88893" lon="5.19536">
        <ele>949.8</ele>
      </trkpt>
      <trkpt lat="44.88921" lon="5.19531">
        <ele>948.9</ele>
      </trkpt>
      <trkpt lat="44.88939" lon="5.1953">
        <ele>948</ele>
      </trkpt>
      <trkpt lat="44.88977" lon="5.19536">
        <ele>946.4</ele>
      </trkpt>
      <trkpt lat="44.89014" lon="5.19537">
        <ele>944.8</ele>
      </trkpt>
      <trkpt lat="44.89131" lon="5.19546">
        <ele>941</ele>
      </trkpt>
      <trkpt lat="44.8916" lon="5.1955">
        <ele>940.1</ele>
      </trkpt>
      <trkpt lat="44.89177" lon="5.19541">
        <ele>939.6</ele>
      </trkpt>
      <trkpt lat="44.89193" lon="5.19521">
        <ele>939.1</ele>
      </trkpt>
      <trkpt lat="44.89209" lon="5.19506">
        <ele>938.7</ele>
      </trkpt>
      <trkpt lat="44.89244" lon="5.19488">
        <ele>938.5</ele>
      </trkpt>
      <trkpt lat="44.89279" lon="5.19474">
        <ele>938.1</ele>
      </trkpt>
      <trkpt lat="44.89302" lon="5.19463">
        <ele>937.7</ele>
      </trkpt>
      <trkpt lat="44.89345" lon="5.19435">
        <ele>936.5</ele>
      </trkpt>
      <trkpt lat="44.89381" lon="5.19413">
        <ele>935.3</ele>
      </trkpt>
      <trkpt lat="44.89443" lon="5.19391">
        <ele>934</ele>
      </trkpt>
      <trkpt lat="44.89491" lon="5.19373">
        <ele>933.3</ele>
      </trkpt>
      <trkpt lat="44.89511" lon="5.19371">
        <ele>933</ele>
      </trkpt>
      <trkpt lat="44.89522" lon="5.19387">
        <ele>933.4</ele>
      </trkpt>
      <trkpt lat="44.89553" lon="5.19456">
        <ele>935</ele>
      </trkpt>
      <trkpt lat="44.89564" lon="5.19471">
        <ele>935.2</ele>
      </trkpt>
      <trkpt lat="44.89582" lon="5.19491">
        <ele>935.6</ele>
      </trkpt>
      <trkpt lat="44.89613" lon="5.19532">
        <ele>935.7</ele>
      </trkpt>
      <trkpt lat="44.89645" lon="5.19568">
        <ele>935.5</ele>
      </trkpt>
      <trkpt lat="44.89678" lon="5.19594">
        <ele>935.3</ele>
      </trkpt>
      <trkpt lat="44.89713" lon="5.19626">
        <ele>936.2</ele>
      </trkpt>
      <trkpt lat="44.89778" lon="5.19642">
        <ele>935.4</ele>
      </trkpt>
      <trkpt lat="44.89828" lon="5.19665">
        <ele>935.9</ele>
      </trkpt>
      <trkpt lat="44.89857" lon="5.19678">
        <ele>935.4</ele>
      </trkpt>
      <trkpt lat="44.89921" lon="5.19717">
        <ele>934.3</ele>
      </trkpt>
      <trkpt lat="44.89965" lon="5.19742">
        <ele>933</ele>
      </trkpt>
      <trkpt lat="44.90007" lon="5.19769">
        <ele>932</ele>
      </trkpt>
      <trkpt lat="44.90099" lon="5.19823">
        <ele>930.9</ele>
      </trkpt>
      <trkpt lat="44.90149" lon="5.19851">
        <ele>931.5</ele>
      </trkpt>
      <trkpt lat="44.90186" lon="5.19866">
        <ele>931.8</ele>
      </trkpt>
      <trkpt lat="44.90199" lon="5.19884">
        <ele>933.1</ele>
      </trkpt>
      <trkpt lat="44.90207" lon="5.19893">
        <ele>933.7</ele>
      </trkpt>
      <trkpt lat="44.90236" lon="5.19901">
        <ele>933.1</ele>
      </trkpt>
      <trkpt lat="44.90263" lon="5.19903">
        <ele>932.1</ele>
      </trkpt>
      <trkpt lat="44.90294" lon="5.19912">
        <ele>931.4</ele>
      </trkpt>
      <trkpt lat="44.90331" lon="5.19924">
        <ele>931.2</ele>
      </trkpt>
      <trkpt lat="44.9041" lon="5.19939">
        <ele>932.1</ele>
      </trkpt>
      <trkpt lat="44.90441" lon="5.19947">
        <ele>934.8</ele>
      </trkpt>
      <trkpt lat="44.90498" lon="5.19936">
        <ele>937.1</ele>
      </trkpt>
      <trkpt lat="44.90616" lon="5.1991">
        <ele>946</ele>
      </trkpt>
      <trkpt lat="44.90673" lon="5.19898">
        <ele>951.2</ele>
      </trkpt>
      <trkpt lat="44.90733" lon="5.19872">
        <ele>954.6</ele>
      </trkpt>
      <trkpt lat="44.90856" lon="5.19871">
        <ele>965.9</ele>
      </trkpt>
      <trkpt lat="44.9092" lon="5.19848">
        <ele>965.1</ele>
      </trkpt>
      <trkpt lat="44.90968" lon="5.19844">
        <ele>966.1</ele>
      </trkpt>
      <trkpt lat="44.91" lon="5.19837">
        <ele>965.2</ele>
      </trkpt>
      <trkpt lat="44.91092" lon="5.19847">
        <ele>978.8</ele>
      </trkpt>
      <trkpt lat="44.91104" lon="5.19822">
        <ele>971.9</ele>
      </trkpt>
      <trkpt lat="44.91096" lon="5.1978">
        <ele>958.9</ele>
      </trkpt>
      <trkpt lat="44.91188" lon="5.19674">
        <ele>934.6</ele>
      </trkpt>
      <trkpt lat="44.91237" lon="5.19655">
        <ele>930.5</ele>
      </trkpt>
      <trkpt lat="44.9128" lon="5.19605">
        <ele>920.6</ele>
      </trkpt>
      <trkpt lat="44.91245" lon="5.19572">
        <ele>914.1</ele>
      </trkpt>
      <trkpt lat="44.91272" lon="5.19577">
        <ele>915.1</ele>
      </trkpt>
      <trkpt lat="44.913" lon="5.19581">
        <ele>916.5</ele>
      </trkpt>
      <trkpt lat="44.91315" lon="5.19586">
        <ele>917.9</ele>
      </trkpt>
      <trkpt lat="44.91328" lon="5.19594">
        <ele>919.9</ele>
      </trkpt>
      <trkpt lat="44.91345" lon="5.19609">
        <ele>923</ele>
      </trkpt>
      <trkpt lat="44.91359" lon="5.1962">
        <ele>925.4</ele>
      </trkpt>
      <trkpt lat="44.91368" lon="5.19624">
        <ele>926.5</ele>
      </trkpt>
      <trkpt lat="44.91378" lon="5.19625">
        <ele>926.9</ele>
      </trkpt>
      <trkpt lat="44.91389" lon="5.19623">
        <ele>926.5</ele>
      </trkpt>
      <trkpt lat="44.91414" lon="5.19613">
        <ele>924.7</ele>
      </trkpt>
      <trkpt lat="44.91427" lon="5.1961">
        <ele>924.5</ele>
      </trkpt>
      <trkpt lat="44.91438" lon="5.1961">
        <ele>924.8</ele>
      </trkpt>
      <trkpt lat="44.9145" lon="5.19612">
        <ele>925.6</ele>
      </trkpt>
      <trkpt lat="44.91511" lon="5.19623">
        <ele>930.9</ele>
      </trkpt>
      <trkpt lat="44.91576" lon="5.19637">
        <ele>936.3</ele>
      </trkpt>
      <trkpt lat="44.91589" lon="5.19641">
        <ele>937.8</ele>
      </trkpt>
      <trkpt lat="44.91604" lon="5.19649">
        <ele>939.8</ele>
      </trkpt>
      <trkpt lat="44.9163" lon="5.19663">
        <ele>943.8</ele>
      </trkpt>
      <trkpt lat="44.91656" lon="5.19677">
        <ele>948.1</ele>
      </trkpt>
      <trkpt lat="44.91672" lon="5.19689">
        <ele>951.4</ele>
      </trkpt>
      <trkpt lat="44.91703" lon="5.19714">
        <ele>956.2</ele>
      </trkpt>
      <trkpt lat="44.91726" lon="5.19731">
        <ele>958.8</ele>
      </trkpt>
      <trkpt lat="44.91744" lon="5.19741">
        <ele>959.5</ele>
      </trkpt>
      <trkpt lat="44.91773" lon="5.19751">
        <ele>959.7</ele>
      </trkpt>
      <trkpt lat="44.91796" lon="5.19762">
        <ele>961.5</ele>
      </trkpt>
      <trkpt lat="44.91826" lon="5.19778">
        <ele>963.6</ele>
      </trkpt>
      <trkpt lat="44.9184" lon="5.19783">
        <ele>963.2</ele>
      </trkpt>
      <trkpt lat="44.9185" lon="5.19786">
        <ele>962</ele>
      </trkpt>
      <trkpt lat="44.91854" lon="5.19791">
        <ele>962.6</ele>
      </trkpt>
      <trkpt lat="44.91855" lon="5.19798">
        <ele>964.4</ele>
      </trkpt>
      <trkpt lat="44.91868" lon="5.19805">
        <ele>963.7</ele>
      </trkpt>
      <trkpt lat="44.91934" lon="5.19828">
        <ele>957.4</ele>
      </trkpt>
      <trkpt lat="44.91973" lon="5.19835">
        <ele>953</ele>
      </trkpt>
      <trkpt lat="44.92059" lon="5.19877">
        <ele>947.9</ele>
      </trkpt>
      <trkpt lat="44.92086" lon="5.19902">
        <ele>949.4</ele>
      </trkpt>
      <trkpt lat="44.92105" lon="5.19924">
        <ele>952.6</ele>
      </trkpt>
      <trkpt lat="44.92126" lon="5.19945">
        <ele>956.3</ele>
      </trkpt>
      <trkpt lat="44.92152" lon="5.19946">
        <ele>950.3</ele>
      </trkpt>
      <trkpt lat="44.92182" lon="5.1996">
        <ele>949.3</ele>
      </trkpt>
      <trkpt lat="44.92211" lon="5.19972">
        <ele>948</ele>
      </trkpt>
      <trkpt lat="44.92246" lon="5.19997">
        <ele>951.3</ele>
      </trkpt>
      <trkpt lat="44.92277" lon="5.19993">
        <ele>946.6</ele>
      </trkpt>
      <trkpt lat="44.92336" lon="5.19996">
        <ele>943.3</ele>
      </trkpt>
      <trkpt lat="44.92396" lon="5.19991">
        <ele>941.2</ele>
      </trkpt>
      <trkpt lat="44.92434" lon="5.19969">
        <ele>932.3</ele>
      </trkpt>
      <trkpt lat="44.92465" lon="5.19944">
        <ele>922.3</ele>
      </trkpt>
      <trkpt lat="44.92494" lon="5.19933">
        <ele>917.9</ele>
      </trkpt>
      <trkpt lat="44.92539" lon="5.19917">
        <ele>910.2</ele>
      </trkpt>
      <trkpt lat="44.92596" lon="5.19894">
        <ele>905.4</ele>
      </trkpt>
      <trkpt lat="44.92621" lon="5.19883">
        <ele>902.6</ele>
      </trkpt>
      <trkpt lat="44.92639" lon="5.1989">
        <ele>901.6</ele>
      </trkpt>
      <trkpt lat="44.92655" lon="5.19884">
        <ele>900.3</ele>
      </trkpt>
      <trkpt lat="44.92679" lon="5.19886">
        <ele>899</ele>
      </trkpt>
      <trkpt lat="44.92716" lon="5.19884">
        <ele>898.1</ele>
      </trkpt>
      <trkpt lat="44.9275" lon="5.19873">
        <ele>897.6</ele>
      </trkpt>
      <trkpt lat="44.92777" lon="5.19883">
        <ele>897.2</ele>
      </trkpt>
      <trkpt lat="44.92807" lon="5.19903">
        <ele>894.4</ele>
      </trkpt>
      <trkpt lat="44.92848" lon="5.19922">
        <ele>891.7</ele>
      </trkpt>
      <trkpt lat="44.92892" lon="5.19947">
        <ele>893.1</ele>
      </trkpt>
      <trkpt lat="44.92928" lon="5.19962">
        <ele>891.4</ele>
      </trkpt>
      <trkpt lat="44.92964" lon="5.19987">
        <ele>891.1</ele>
      </trkpt>
      <trkpt lat="44.93003" lon="5.20013">
        <ele>891.7</ele>
      </trkpt>
      <trkpt lat="44.93036" lon="5.20039">
        <ele>897.3</ele>
      </trkpt>
      <trkpt lat="44.93075" lon="5.20059">
        <ele>900</ele>
      </trkpt>
      <trkpt lat="44.93137" lon="5.20076">
        <ele>898</ele>
      </trkpt>
      <trkpt lat="44.9317" lon="5.20079">
        <ele>894.6</ele>
      </trkpt>
      <trkpt lat="44.9319" lon="5.20092">
        <ele>895.9</ele>
      </trkpt>
      <trkpt lat="44.93212" lon="5.20099">
        <ele>895.6</ele>
      </trkpt>
      <trkpt lat="44.93247" lon="5.20111">
        <ele>894.8</ele>
      </trkpt>
      <trkpt lat="44.93274" lon="5.20118">
        <ele>893</ele>
      </trkpt>
      <trkpt lat="44.93304" lon="5.20153">
        <ele>900.1</ele>
      </trkpt>
      <trkpt lat="44.93324" lon="5.20159">
        <ele>897.5</ele>
      </trkpt>
      <trkpt lat="44.93367" lon="5.20182">
        <ele>893.8</ele>
      </trkpt>
      <trkpt lat="44.93391" lon="5.20214">
        <ele>898.6</ele>
      </trkpt>
      <trkpt lat="44.93411" lon="5.2023">
        <ele>898.9</ele>
      </trkpt>
      <trkpt lat="44.93424" lon="5.20228">
        <ele>895.4</ele>
      </trkpt>
      <trkpt lat="44.93444" lon="5.20227">
        <ele>891.3</ele>
      </trkpt>
      <trkpt lat="44.93468" lon="5.20235">
        <ele>889.5</ele>
      </trkpt>
      <trkpt lat="44.93555" lon="5.20275">
        <ele>878.5</ele>
      </trkpt>
      <trkpt lat="44.93705" lon="5.20376">
        <ele>861.9</ele>
      </trkpt>
      <trkpt lat="44.93789" lon="5.20413">
        <ele>847.4</ele>
      </trkpt>
      <trkpt lat="44.93815" lon="5.20439">
        <ele>845.6</ele>
      </trkpt>
      <trkpt lat="44.93857" lon="5.20462">
        <ele>842.2</ele>
      </trkpt>
      <trkpt lat="44.93937" lon="5.20525">
        <ele>831.9</ele>
      </trkpt>
      <trkpt lat="44.93993" lon="5.20589">
        <ele>824</ele>
      </trkpt>
      <trkpt lat="44.9404" lon="5.20649">
        <ele>823.7</ele>
      </trkpt>
      <trkpt lat="44.94083" lon="5.20653">
        <ele>814.8</ele>
      </trkpt>
      <trkpt lat="44.94144" lon="5.20651">
        <ele>813.3</ele>
      </trkpt>
      <trkpt lat="44.94222" lon="5.207">
        <ele>816.6</ele>
      </trkpt>
      <trkpt lat="44.94306" lon="5.20723">
        <ele>818.8</ele>
      </trkpt>
      <trkpt lat="44.94417" lon="5.20782">
        <ele>815.9</ele>
      </trkpt>
      <trkpt lat="44.94458" lon="5.20821">
        <ele>812.8</ele>
      </trkpt>
      <trkpt lat="44.94527" lon="5.20867">
        <ele>812.8</ele>
      </trkpt>
      <trkpt lat="44.94609" lon="5.20909">
        <ele>809.4</ele>
      </trkpt>
      <trkpt lat="44.94699" lon="5.2093">
        <ele>810</ele>
      </trkpt>
      <trkpt lat="44.94731" lon="5.20914">
        <ele>812</ele>
      </trkpt>
      <trkpt lat="44.94795" lon="5.20956">
        <ele>809.3</ele>
      </trkpt>
      <trkpt lat="44.9483" lon="5.20944">
        <ele>817.2</ele>
      </trkpt>
      <trkpt lat="44.94876" lon="5.20958">
        <ele>821.7</ele>
      </trkpt>
      <trkpt lat="44.94958" lon="5.20967">
        <ele>841.2</ele>
      </trkpt>
      <trkpt lat="44.95008" lon="5.20982">
        <ele>851.2</ele>
      </trkpt>
      <trkpt lat="44.95066" lon="5.21003">
        <ele>861.9</ele>
      </trkpt>
      <trkpt lat="44.95081" lon="5.20982">
        <ele>875.9</ele>
      </trkpt>
      <trkpt lat="44.95066" lon="5.20967">
        <ele>877.2</ele>
      </trkpt>
      <trkpt lat="44.95094" lon="5.20961">
        <ele>889.6</ele>
      </trkpt>
      <trkpt lat="44.95132" lon="5.20961">
        <ele>900.6</ele>
      </trkpt>
      <trkpt lat="44.95192" lon="5.2098">
        <ele>908.4</ele>
      </trkpt>
      <trkpt lat="44.95238" lon="5.20974">
        <ele>923.6</ele>
      </trkpt>
      <trkpt lat="44.95387" lon="5.21">
        <ele>950.4</ele>
      </trkpt>
      <trkpt lat="44.95426" lon="5.20976">
        <ele>974.2</ele>
      </trkpt>
      <trkpt lat="44.95438" lon="5.20956">
        <ele>988</ele>
      </trkpt>
      <trkpt lat="44.95428" lon="5.20915">
        <ele>1007.7</ele>
      </trkpt>
      <trkpt lat="44.95459" lon="5.20912">
        <ele>1016.6</ele>
      </trkpt>
      <trkpt lat="44.95503" lon="5.20913">
        <ele>1026.8</ele>
      </trkpt>
      <trkpt lat="44.95506" lon="5.20882">
        <ele>1043.7</ele>
      </trkpt>
      <trkpt lat="44.9556" lon="5.20884">
        <ele>1053.6</ele>
      </trkpt>
      <trkpt lat="44.95638" lon="5.20852">
        <ele>1078.2</ele>
      </trkpt>
      <trkpt lat="44.95661" lon="5.20827">
        <ele>1083.9</ele>
      </trkpt>
      <trkpt lat="44.95694" lon="5.20809">
        <ele>1077.3</ele>
      </trkpt>
      <trkpt lat="44.95728" lon="5.20755">
        <ele>1071.6</ele>
      </trkpt>
      <trkpt lat="44.95819" lon="5.20726">
        <ele>1077.4</ele>
      </trkpt>
      <trkpt lat="44.95945" lon="5.20826">
        <ele>1073.5</ele>
      </trkpt>
      <trkpt lat="44.96123" lon="5.20878">
        <ele>1086.7</ele>
      </trkpt>
      <trkpt lat="44.96186" lon="5.20894">
        <ele>1091.4</ele>
      </trkpt>
      <trkpt lat="44.96224" lon="5.20915">
        <ele>1095</ele>
      </trkpt>
      <trkpt lat="44.96261" lon="5.20891">
        <ele>1106.2</ele>
      </trkpt>
      <trkpt lat="44.96314" lon="5.20865">
        <ele>1113</ele>
      </trkpt>
      <trkpt lat="44.96339" lon="5.20854">
        <ele>1114.5</ele>
      </trkpt>
      <trkpt lat="44.96346" lon="5.2084">
        <ele>1115.1</ele>
      </trkpt>
      <trkpt lat="44.9638" lon="5.20863">
        <ele>1112.2</ele>
      </trkpt>
      <trkpt lat="44.96433" lon="5.20886">
        <ele>1107.3</ele>
      </trkpt>
      <trkpt lat="44.9645" lon="5.20914">
        <ele>1101.7</ele>
      </trkpt>
      <trkpt lat="44.96473" lon="5.20962">
        <ele>1097.1</ele>
      </trkpt>
      <trkpt lat="44.96493" lon="5.21005">
        <ele>1090.7</ele>
      </trkpt>
      <trkpt lat="44.96512" lon="5.21029">
        <ele>1090</ele>
      </trkpt>
      <trkpt lat="44.96566" lon="5.21059">
        <ele>1083.4</ele>
      </trkpt>
      <trkpt lat="44.96608" lon="5.21111">
        <ele>1077.5</ele>
      </trkpt>
      <trkpt lat="44.96639" lon="5.21167">
        <ele>1073.7</ele>
      </trkpt>
      <trkpt lat="44.96707" lon="5.21226">
        <ele>1066.9</ele>
      </trkpt>
      <trkpt lat="44.96774" lon="5.21283">
        <ele>1059.2</ele>
      </trkpt>
      <trkpt lat="44.96821" lon="5.21315">
        <ele>1054</ele>
      </trkpt>
      <trkpt lat="44.96881" lon="5.21334">
        <ele>1053.8</ele>
      </trkpt>
      <trkpt lat="44.96907" lon="5.21379">
        <ele>1044.6</ele>
      </trkpt>
      <trkpt lat="44.96931" lon="5.21439">
        <ele>1032.3</ele>
      </trkpt>
      <trkpt lat="44.96927" lon="5.21448">
        <ele>1030.2</ele>
      </trkpt>
      <trkpt lat="44.96923" lon="5.21477">
        <ele>1024.6</ele>
      </trkpt>
      <trkpt lat="44.96925" lon="5.21549">
        <ele>1016</ele>
      </trkpt>
      <trkpt lat="44.96936" lon="5.21596">
        <ele>1011</ele>
      </trkpt>
      <trkpt lat="44.96949" lon="5.21621">
        <ele>1007.5</ele>
      </trkpt>
      <trkpt lat="44.9696" lon="5.21634">
        <ele>1005.7</ele>
      </trkpt>
      <trkpt lat="44.96975" lon="5.21644">
        <ele>1004.5</ele>
      </trkpt>
      <trkpt lat="44.96989" lon="5.21649">
        <ele>1004.1</ele>
      </trkpt>
      <trkpt lat="44.96998" lon="5.21656">
        <ele>1003.4</ele>
      </trkpt>
      <trkpt lat="44.97001" lon="5.21664">
        <ele>1002.2</ele>
      </trkpt>
      <trkpt lat="44.97008" lon="5.21684">
        <ele>1002.4</ele>
      </trkpt>
      <trkpt lat="44.97019" lon="5.21701">
        <ele>1002</ele>
      </trkpt>
      <trkpt lat="44.97036" lon="5.21729">
        <ele>1000.5</ele>
      </trkpt>
      <trkpt lat="44.9705" lon="5.21739">
        <ele>997.9</ele>
      </trkpt>
      <trkpt lat="44.97068" lon="5.21747">
        <ele>994.3</ele>
      </trkpt>
      <trkpt lat="44.97082" lon="5.21755">
        <ele>991.7</ele>
      </trkpt>
      <trkpt lat="44.97087" lon="5.21772">
        <ele>992.2</ele>
      </trkpt>
      <trkpt lat="44.97098" lon="5.21826">
        <ele>995</ele>
      </trkpt>
      <trkpt lat="44.9711" lon="5.21839">
        <ele>994.5</ele>
      </trkpt>
      <trkpt lat="44.97132" lon="5.2187">
        <ele>993.2</ele>
      </trkpt>
      <trkpt lat="44.97137" lon="5.21873">
        <ele>993.5</ele>
      </trkpt>
      <trkpt lat="44.97144" lon="5.21871">
        <ele>994</ele>
      </trkpt>
      <trkpt lat="44.97156" lon="5.21863">
        <ele>994.6</ele>
      </trkpt>
      <trkpt lat="44.97167" lon="5.2186">
        <ele>994.9</ele>
      </trkpt>
      <trkpt lat="44.97184" lon="5.21862">
        <ele>995.4</ele>
      </trkpt>
      <trkpt lat="44.97201" lon="5.21866">
        <ele>996.3</ele>
      </trkpt>
      <trkpt lat="44.97211" lon="5.21878">
        <ele>998.2</ele>
      </trkpt>
      <trkpt lat="44.97219" lon="5.21895">
        <ele>1001</ele>
      </trkpt>
      <trkpt lat="44.97224" lon="5.21916">
        <ele>1004.3</ele>
      </trkpt>
      <trkpt lat="44.97228" lon="5.21936">
        <ele>1004.4</ele>
      </trkpt>
      <trkpt lat="44.97229" lon="5.21946">
        <ele>1004.2</ele>
      </trkpt>
      <trkpt lat="44.97231" lon="5.21959">
        <ele>1004.1</ele>
      </trkpt>
      <trkpt lat="44.97234" lon="5.21983">
        <ele>1004</ele>
      </trkpt>
      <trkpt lat="44.97236" lon="5.2201">
        <ele>1002.2</ele>
      </trkpt>
      <trkpt lat="44.97237" lon="5.22022">
        <ele>999.9</ele>
      </trkpt>
      <trkpt lat="44.97236" lon="5.22033">
        <ele>997.7</ele>
      </trkpt>
      <trkpt lat="44.97234" lon="5.22049">
        <ele>994</ele>
      </trkpt>
      <trkpt lat="44.97232" lon="5.22061">
        <ele>990.9</ele>
      </trkpt>
      <trkpt lat="44.97232" lon="5.22069">
        <ele>989</ele>
      </trkpt>
      <trkpt lat="44.97233" lon="5.22076">
        <ele>988</ele>
      </trkpt>
      <trkpt lat="44.97237" lon="5.22088">
        <ele>986.4</ele>
      </trkpt>
      <trkpt lat="44.97242" lon="5.22099">
        <ele>984.5</ele>
      </trkpt>
      <trkpt lat="44.97251" lon="5.22117">
        <ele>981.8</ele>
      </trkpt>
      <trkpt lat="44.97265" lon="5.22146">
        <ele>976.1</ele>
      </trkpt>
      <trkpt lat="44.97279" lon="5.22178">
        <ele>970.1</ele>
      </trkpt>
      <trkpt lat="44.97304" lon="5.22214">
        <ele>966.8</ele>
      </trkpt>
      <trkpt lat="44.97328" lon="5.22256">
        <ele>962.8</ele>
      </trkpt>
      <trkpt lat="44.97345" lon="5.22289">
        <ele>958.5</ele>
      </trkpt>
      <trkpt lat="44.97374" lon="5.22374">
        <ele>943.5</ele>
      </trkpt>
      <trkpt lat="44.97386" lon="5.22411">
        <ele>937.7</ele>
      </trkpt>
      <trkpt lat="44.97397" lon="5.22448">
        <ele>934.2</ele>
      </trkpt>
      <trkpt lat="44.97403" lon="5.22468">
        <ele>932.8</ele>
      </trkpt>
      <trkpt lat="44.97406" lon="5.22498">
        <ele>926.4</ele>
      </trkpt>
      <trkpt lat="44.9741" lon="5.22529">
        <ele>921</ele>
      </trkpt>
      <trkpt lat="44.97413" lon="5.22546">
        <ele>918.2</ele>
      </trkpt>
      <trkpt lat="44.97418" lon="5.22568">
        <ele>915.5</ele>
      </trkpt>
      <trkpt lat="44.97428" lon="5.22587">
        <ele>913.7</ele>
      </trkpt>
      <trkpt lat="44.97438" lon="5.22606">
        <ele>912.2</ele>
      </trkpt>
      <trkpt lat="44.97453" lon="5.22631">
        <ele>909.7</ele>
      </trkpt>
      <trkpt lat="44.97471" lon="5.22661">
        <ele>904.7</ele>
      </trkpt>
      <trkpt lat="44.97486" lon="5.22692">
        <ele>896.7</ele>
      </trkpt>
      <trkpt lat="44.97501" lon="5.22723">
        <ele>887.4</ele>
      </trkpt>
      <trkpt lat="44.97509" lon="5.22733">
        <ele>885.5</ele>
      </trkpt>
      <trkpt lat="44.97514" lon="5.22743">
        <ele>883</ele>
      </trkpt>
      <trkpt lat="44.97515" lon="5.22746">
        <ele>882.1</ele>
      </trkpt>
      <trkpt lat="44.97514" lon="5.22748">
        <ele>881.2</ele>
      </trkpt>
      <trkpt lat="44.97508" lon="5.22748">
        <ele>879.6</ele>
      </trkpt>
      <trkpt lat="44.97503" lon="5.22749">
        <ele>878.1</ele>
      </trkpt>
      <trkpt lat="44.97497" lon="5.22751">
        <ele>876.5</ele>
      </trkpt>
      <trkpt lat="44.97497" lon="5.22754">
        <ele>875.8</ele>
      </trkpt>
      <trkpt lat="44.97499" lon="5.2276">
        <ele>875</ele>
      </trkpt>
      <trkpt lat="44.97504" lon="5.22765">
        <ele>874.9</ele>
      </trkpt>
      <trkpt lat="44.97509" lon="5.22786">
        <ele>871.8</ele>
      </trkpt>
      <trkpt lat="44.97516" lon="5.22805">
        <ele>869</ele>
      </trkpt>
      <trkpt lat="44.97517" lon="5.2282">
        <ele>865.7</ele>
      </trkpt>
      <trkpt lat="44.97519" lon="5.22833">
        <ele>863.1</ele>
      </trkpt>
      <trkpt lat="44.9752" lon="5.22845">
        <ele>861.9</ele>
      </trkpt>
      <trkpt lat="44.97517" lon="5.22854">
        <ele>860.5</ele>
      </trkpt>
      <trkpt lat="44.97514" lon="5.2286">
        <ele>859.7</ele>
      </trkpt>
      <trkpt lat="44.97512" lon="5.22871">
        <ele>858.5</ele>
      </trkpt>
      <trkpt lat="44.97512" lon="5.22883">
        <ele>857.3</ele>
      </trkpt>
      <trkpt lat="44.97513" lon="5.22898">
        <ele>855.8</ele>
      </trkpt>
      <trkpt lat="44.97516" lon="5.22904">
        <ele>855</ele>
      </trkpt>
      <trkpt lat="44.97522" lon="5.22906">
        <ele>854.4</ele>
      </trkpt>
      <trkpt lat="44.97531" lon="5.22903">
        <ele>854.3</ele>
      </trkpt>
      <trkpt lat="44.9754" lon="5.229">
        <ele>854.4</ele>
      </trkpt>
      <trkpt lat="44.9755" lon="5.229">
        <ele>853.9</ele>
      </trkpt>
      <trkpt lat="44.97565" lon="5.22908">
        <ele>851.5</ele>
      </trkpt>
      <trkpt lat="44.97576" lon="5.22914">
        <ele>849.3</ele>
      </trkpt>
      <trkpt lat="44.97586" lon="5.22922">
        <ele>847.2</ele>
      </trkpt>
      <trkpt lat="44.97598" lon="5.22939">
        <ele>845.5</ele>
      </trkpt>
      <trkpt lat="44.9761" lon="5.22958">
        <ele>843.5</ele>
      </trkpt>
      <trkpt lat="44.97615" lon="5.22973">
        <ele>841</ele>
      </trkpt>
      <trkpt lat="44.97621" lon="5.22995">
        <ele>837.5</ele>
      </trkpt>
      <trkpt lat="44.97627" lon="5.23019">
        <ele>833</ele>
      </trkpt>
      <trkpt lat="44.97632" lon="5.23042">
        <ele>828.8</ele>
      </trkpt>
      <trkpt lat="44.97635" lon="5.23058">
        <ele>825.2</ele>
      </trkpt>
      <trkpt lat="44.97635" lon="5.23079">
        <ele>819.7</ele>
      </trkpt>
      <trkpt lat="44.97638" lon="5.23099">
        <ele>815.8</ele>
      </trkpt>
      <trkpt lat="44.97642" lon="5.2312">
        <ele>812.4</ele>
      </trkpt>
      <trkpt lat="44.97644" lon="5.2313">
        <ele>810.5</ele>
      </trkpt>
      <trkpt lat="44.97647" lon="5.2314">
        <ele>809.1</ele>
      </trkpt>
      <trkpt lat="44.97652" lon="5.23162">
        <ele>805.3</ele>
      </trkpt>
      <trkpt lat="44.97658" lon="5.23208">
        <ele>801.7</ele>
      </trkpt>
      <trkpt lat="44.97665" lon="5.23263">
        <ele>798.4</ele>
      </trkpt>
      <trkpt lat="44.97663" lon="5.23268">
        <ele>797.4</ele>
      </trkpt>
      <trkpt lat="44.97659" lon="5.23267">
        <ele>796.3</ele>
      </trkpt>
      <trkpt lat="44.97655" lon="5.23265">
        <ele>795.4</ele>
      </trkpt>
      <trkpt lat="44.97652" lon="5.23266">
        <ele>794.1</ele>
      </trkpt>
      <trkpt lat="44.97649" lon="5.23276">
        <ele>792.4</ele>
      </trkpt>
      <trkpt lat="44.97643" lon="5.23354">
        <ele>782.1</ele>
      </trkpt>
      <trkpt lat="44.97639" lon="5.23424">
        <ele>770.9</ele>
      </trkpt>
      <trkpt lat="44.9764" lon="5.23463">
        <ele>764.4</ele>
      </trkpt>
      <trkpt lat="44.97644" lon="5.23502">
        <ele>758.9</ele>
      </trkpt>
      <trkpt lat="44.97647" lon="5.23541">
        <ele>752.3</ele>
      </trkpt>
      <trkpt lat="44.9765" lon="5.23562">
        <ele>748.9</ele>
      </trkpt>
      <trkpt lat="44.97654" lon="5.23578">
        <ele>746.8</ele>
      </trkpt>
      <trkpt lat="44.97668" lon="5.23645">
        <ele>736.8</ele>
      </trkpt>
      <trkpt lat="44.97679" lon="5.2368">
        <ele>730.3</ele>
      </trkpt>
      <trkpt lat="44.97691" lon="5.2371">
        <ele>724.4</ele>
      </trkpt>
      <trkpt lat="44.97697" lon="5.23727">
        <ele>720.9</ele>
      </trkpt>
      <trkpt lat="44.97703" lon="5.23744">
        <ele>717.5</ele>
      </trkpt>
      <trkpt lat="44.97711" lon="5.23758">
        <ele>715.4</ele>
      </trkpt>
      <trkpt lat="44.97714" lon="5.23766">
        <ele>714.2</ele>
      </trkpt>
      <trkpt lat="44.97715" lon="5.23772">
        <ele>713</ele>
      </trkpt>
      <trkpt lat="44.97716" lon="5.23777">
        <ele>712.3</ele>
      </trkpt>
      <trkpt lat="44.97719" lon="5.23786">
        <ele>711</ele>
      </trkpt>
      <trkpt lat="44.97724" lon="5.23795">
        <ele>709.9</ele>
      </trkpt>
      <trkpt lat="44.97732" lon="5.23804">
        <ele>709.2</ele>
      </trkpt>
      <trkpt lat="44.97743" lon="5.23814">
        <ele>708.6</ele>
      </trkpt>
      <trkpt lat="44.97749" lon="5.23822">
        <ele>707.9</ele>
      </trkpt>
      <trkpt lat="44.97751" lon="5.23831">
        <ele>706.5</ele>
      </trkpt>
      <trkpt lat="44.97751" lon="5.23839">
        <ele>705</ele>
      </trkpt>
      <trkpt lat="44.97747" lon="5.2385">
        <ele>702.5</ele>
      </trkpt>
      <trkpt lat="44.97744" lon="5.23859">
        <ele>700.6</ele>
      </trkpt>
      <trkpt lat="44.97738" lon="5.2387">
        <ele>697.7</ele>
      </trkpt>
      <trkpt lat="44.97736" lon="5.23888">
        <ele>693.9</ele>
      </trkpt>
      <trkpt lat="44.9774" lon="5.2391">
        <ele>690.4</ele>
      </trkpt>
      <trkpt lat="44.97746" lon="5.23942">
        <ele>686.9</ele>
      </trkpt>
      <trkpt lat="44.97762" lon="5.23974">
        <ele>683.8</ele>
      </trkpt>
      <trkpt lat="44.97779" lon="5.24017">
        <ele>679.1</ele>
      </trkpt>
      <trkpt lat="44.97786" lon="5.24033">
        <ele>677.7</ele>
      </trkpt>
      <trkpt lat="44.97796" lon="5.24048">
        <ele>676.5</ele>
      </trkpt>
      <trkpt lat="44.97805" lon="5.24058">
        <ele>675.9</ele>
      </trkpt>
      <trkpt lat="44.97816" lon="5.24068">
        <ele>675.5</ele>
      </trkpt>
      <trkpt lat="44.97829" lon="5.24074">
        <ele>675.6</ele>
      </trkpt>
      <trkpt lat="44.97845" lon="5.24078">
        <ele>674.7</ele>
      </trkpt>
      <trkpt lat="44.97861" lon="5.24083">
        <ele>673.1</ele>
      </trkpt>
      <trkpt lat="44.97869" lon="5.24094">
        <ele>670.9</ele>
      </trkpt>
      <trkpt lat="44.97885" lon="5.24112">
        <ele>667.4</ele>
      </trkpt>
      <trkpt lat="44.9792" lon="5.24144">
        <ele>661.3</ele>
      </trkpt>
      <trkpt lat="44.97938" lon="5.24155">
        <ele>657.5</ele>
      </trkpt>
      <trkpt lat="44.97939" lon="5.24163">
        <ele>656.2</ele>
      </trkpt>
      <trkpt lat="44.97938" lon="5.24176">
        <ele>654.5</ele>
      </trkpt>
      <trkpt lat="44.97933" lon="5.2419">
        <ele>653</ele>
      </trkpt>
      <trkpt lat="44.97926" lon="5.24201">
        <ele>652.2</ele>
      </trkpt>
      <trkpt lat="44.9791" lon="5.24215">
        <ele>650.9</ele>
      </trkpt>
      <trkpt lat="44.97888" lon="5.24229">
        <ele>648.6</ele>
      </trkpt>
      <trkpt lat="44.97813" lon="5.2425">
        <ele>642.6</ele>
      </trkpt>
      <trkpt lat="44.97749" lon="5.24237">
        <ele>640.4</ele>
      </trkpt>
      <trkpt lat="44.97728" lon="5.24241">
        <ele>637.9</ele>
      </trkpt>
      <trkpt lat="44.97685" lon="5.24268">
        <ele>630.1</ele>
      </trkpt>
      <trkpt lat="44.97647" lon="5.24293">
        <ele>622.4</ele>
      </trkpt>
      <trkpt lat="44.97617" lon="5.24309">
        <ele>616.7</ele>
      </trkpt>
      <trkpt lat="44.97605" lon="5.24304">
        <ele>615.9</ele>
      </trkpt>
      <trkpt lat="44.97596" lon="5.24285">
        <ele>616.7</ele>
      </trkpt>
      <trkpt lat="44.97587" lon="5.24254">
        <ele>618.2</ele>
      </trkpt>
      <trkpt lat="44.97587" lon="5.24223">
        <ele>621.8</ele>
      </trkpt>
      <trkpt lat="44.97582" lon="5.24218">
        <ele>621.9</ele>
      </trkpt>
      <trkpt lat="44.97573" lon="5.24222">
        <ele>621.6</ele>
      </trkpt>
      <trkpt lat="44.9757" lon="5.24232">
        <ele>620.5</ele>
      </trkpt>
      <trkpt lat="44.97565" lon="5.24263">
        <ele>617.1</ele>
      </trkpt>
      <trkpt lat="44.97553" lon="5.243">
        <ele>613.9</ele>
      </trkpt>
      <trkpt lat="44.97551" lon="5.24333">
        <ele>611</ele>
      </trkpt>
      <trkpt lat="44.97542" lon="5.24332">
        <ele>611.2</ele>
      </trkpt>
      <trkpt lat="44.97525" lon="5.24328">
        <ele>611.5</ele>
      </trkpt>
      <trkpt lat="44.97513" lon="5.24332">
        <ele>611.2</ele>
      </trkpt>
      <trkpt lat="44.97504" lon="5.24336">
        <ele>610.8</ele>
      </trkpt>
      <trkpt lat="44.97497" lon="5.24345">
        <ele>610</ele>
      </trkpt>
      <trkpt lat="44.97488" lon="5.24369">
        <ele>607.7</ele>
      </trkpt>
      <trkpt lat="44.97496" lon="5.24395">
        <ele>606.8</ele>
      </trkpt>
      <trkpt lat="44.97504" lon="5.24412">
        <ele>606.1</ele>
      </trkpt>
      <trkpt lat="44.97509" lon="5.24425">
        <ele>605.2</ele>
      </trkpt>
      <trkpt lat="44.97505" lon="5.24435">
        <ele>605.1</ele>
      </trkpt>
      <trkpt lat="44.97497" lon="5.24433">
        <ele>604.8</ele>
      </trkpt>
      <trkpt lat="44.97479" lon="5.24412">
        <ele>603.4</ele>
      </trkpt>
      <trkpt lat="44.97451" lon="5.2439">
        <ele>601.9</ele>
      </trkpt>
      <trkpt lat="44.97435" lon="5.24447">
        <ele>589.8</ele>
      </trkpt>
      <trkpt lat="44.97438" lon="5.24465">
        <ele>586.7</ele>
      </trkpt>
      <trkpt lat="44.97422" lon="5.24444">
        <ele>587.6</ele>
      </trkpt>
      <trkpt lat="44.97459" lon="5.24588">
        <ele>564.4</ele>
      </trkpt>
      <trkpt lat="44.97476" lon="5.24664">
        <ele>554</ele>
      </trkpt>
      <trkpt lat="44.9748" lon="5.24739">
        <ele>535.4</ele>
      </trkpt>
      <trkpt lat="44.97477" lon="5.24888">
        <ele>516</ele>
      </trkpt>
      <trkpt lat="44.97502" lon="5.24976">
        <ele>508.8</ele>
      </trkpt>
      <trkpt lat="44.97559" lon="5.25088">
        <ele>493.9</ele>
      </trkpt>
      <trkpt lat="44.97605" lon="5.25199">
        <ele>470.1</ele>
      </trkpt>
      <trkpt lat="44.97605" lon="5.25234">
        <ele>455.7</ele>
      </trkpt>
      <trkpt lat="44.97678" lon="5.25337">
        <ele>445.6</ele>
      </trkpt>
      <trkpt lat="44.97702" lon="5.25346">
        <ele>449.7</ele>
      </trkpt>
      <trkpt lat="44.97773" lon="5.25373">
        <ele>458.9</ele>
      </trkpt>
      <trkpt lat="44.97799" lon="5.25452">
        <ele>435.6</ele>
      </trkpt>
      <trkpt lat="44.97763" lon="5.25412">
        <ele>438.5</ele>
      </trkpt>
      <trkpt lat="44.977" lon="5.25387">
        <ele>427</ele>
      </trkpt>
      <trkpt lat="44.97659" lon="5.25381">
        <ele>414.4</ele>
      </trkpt>
      <trkpt lat="44.97631" lon="5.25377">
        <ele>406.2</ele>
      </trkpt>
      <trkpt lat="44.97665" lon="5.2541">
        <ele>401.2</ele>
      </trkpt>
      <trkpt lat="44.97583" lon="5.25392">
        <ele>384</ele>
      </trkpt>
      <trkpt lat="44.9761" lon="5.25428">
        <ele>379.4</ele>
      </trkpt>
      <trkpt lat="44.97698" lon="5.25501">
        <ele>369.4</ele>
      </trkpt>
      <trkpt lat="44.97763" lon="5.25589">
        <ele>356.4</ele>
      </trkpt>
      <trkpt lat="44.97782" lon="5.25745">
        <ele>331.6</ele>
      </trkpt>
      <trkpt lat="44.97841" lon="5.25853">
        <ele>350.5</ele>
      </trkpt>
      <trkpt lat="44.97844" lon="5.2586">
        <ele>353.9</ele>
      </trkpt>
      <trkpt lat="44.9791" lon="5.25924">
        <ele>353.5</ele>
      </trkpt>
      <trkpt lat="44.97915" lon="5.25892">
        <ele>345</ele>
      </trkpt>
      <trkpt lat="44.97922" lon="5.25907">
        <ele>345.4</ele>
      </trkpt>
      <trkpt lat="44.9797" lon="5.25944">
        <ele>343</ele>
      </trkpt>
      <trkpt lat="44.98013" lon="5.26039">
        <ele>343.3</ele>
      </trkpt>
      <trkpt lat="44.98045" lon="5.26064">
        <ele>344.9</ele>
      </trkpt>
      <trkpt lat="44.98088" lon="5.26136">
        <ele>337.9</ele>
      </trkpt>
      <trkpt lat="44.98107" lon="5.26199">
        <ele>344.6</ele>
      </trkpt>
      <trkpt lat="44.98149" lon="5.26236">
        <ele>329.9</ele>
      </trkpt>
      <trkpt lat="44.98184" lon="5.26314">
        <ele>327.6</ele>
      </trkpt>
      <trkpt lat="44.982" lon="5.2633">
        <ele>325.9</ele>
      </trkpt>
      <trkpt lat="44.98203" lon="5.26336">
        <ele>325.9</ele>
      </trkpt>
      <trkpt lat="44.98235" lon="5.26397">
        <ele>327.2</ele>
      </trkpt>
      <trkpt lat="44.98237" lon="5.26453">
        <ele>335.1</ele>
      </trkpt>
      <trkpt lat="44.98239" lon="5.26535">
        <ele>343.2</ele>
      </trkpt>
      <trkpt lat="44.98309" lon="5.26631">
        <ele>347</ele>
      </trkpt>
      <trkpt lat="44.98351" lon="5.26693">
        <ele>347.2</ele>
      </trkpt>
      <trkpt lat="44.98361" lon="5.2667">
        <ele>348.7</ele>
      </trkpt>
      <trkpt lat="44.98395" lon="5.26687">
        <ele>354.8</ele>
      </trkpt>
      <trkpt lat="44.98397" lon="5.26688">
        <ele>355</ele>
      </trkpt>
      <trkpt lat="44.98461" lon="5.2675">
        <ele>358.2</ele>
      </trkpt>
      <trkpt lat="44.98465" lon="5.26753">
        <ele>358.7</ele>
      </trkpt>
      <trkpt lat="44.98467" lon="5.26754">
        <ele>358.8</ele>
      </trkpt>
      <trkpt lat="44.98461" lon="5.26764">
        <ele>358.3</ele>
      </trkpt>
      <trkpt lat="44.98455" lon="5.26777">
        <ele>358</ele>
      </trkpt>
      <trkpt lat="44.98451" lon="5.26794">
        <ele>358.1</ele>
      </trkpt>
      <trkpt lat="44.98451" lon="5.26795">
        <ele>358.1</ele>
      </trkpt>
      <trkpt lat="44.9845" lon="5.26804">
        <ele>358.2</ele>
      </trkpt>
      <trkpt lat="44.9845" lon="5.26809">
        <ele>358.3</ele>
      </trkpt>
      <trkpt lat="44.9845" lon="5.26811">
        <ele>358.4</ele>
      </trkpt>
      <trkpt lat="44.98449" lon="5.26815">
        <ele>358.5</ele>
      </trkpt>
      <trkpt lat="44.98447" lon="5.26831">
        <ele>358.8</ele>
      </trkpt>
      <trkpt lat="44.98443" lon="5.26845">
        <ele>359.7</ele>
      </trkpt>
      <trkpt lat="44.98441" lon="5.26857">
        <ele>360.4</ele>
      </trkpt>
      <trkpt lat="44.9844" lon="5.26859">
        <ele>360.6</ele>
      </trkpt>
      <trkpt lat="44.98437" lon="5.26865">
        <ele>361.2</ele>
      </trkpt>
      <trkpt lat="44.98436" lon="5.26866">
        <ele>361.3</ele>
      </trkpt>
      <trkpt lat="44.98431" lon="5.26871">
        <ele>362</ele>
      </trkpt>
      <trkpt lat="44.98427" lon="5.26874">
        <ele>362.6</ele>
      </trkpt>
      <trkpt lat="44.98403" lon="5.26889">
        <ele>366.4</ele>
      </trkpt>
      <trkpt lat="44.98385" lon="5.26896">
        <ele>369.8</ele>
      </trkpt>
      <trkpt lat="44.98376" lon="5.269">
        <ele>371.7</ele>
      </trkpt>
      <trkpt lat="44.98339" lon="5.26916">
        <ele>380.8</ele>
      </trkpt>
      <trkpt lat="44.98324" lon="5.26936">
        <ele>384.2</ele>
      </trkpt>
      <trkpt lat="44.98323" lon="5.26961">
        <ele>386.4</ele>
      </trkpt>
      <trkpt lat="44.98318" lon="5.26978">
        <ele>388.6</ele>
      </trkpt>
      <trkpt lat="44.98304" lon="5.27025">
        <ele>392.9</ele>
      </trkpt>
      <trkpt lat="44.98294" lon="5.27063">
        <ele>394.9</ele>
      </trkpt>
      <trkpt lat="44.98268" lon="5.27106">
        <ele>398.3</ele>
      </trkpt>
      <trkpt lat="44.98244" lon="5.27145">
        <ele>398.7</ele>
      </trkpt>
      <trkpt lat="44.9824" lon="5.27152">
        <ele>398.5</ele>
      </trkpt>
      <trkpt lat="44.98223" lon="5.27172">
        <ele>398.4</ele>
      </trkpt>
      <trkpt lat="44.98221" lon="5.27174">
        <ele>398.4</ele>
      </trkpt>
      <trkpt lat="44.9821" lon="5.27194">
        <ele>397.8</ele>
      </trkpt>
      <trkpt lat="44.98205" lon="5.27205">
        <ele>397.6</ele>
      </trkpt>
      <trkpt lat="44.98203" lon="5.27207">
        <ele>397.6</ele>
      </trkpt>
      <trkpt lat="44.98157" lon="5.27274">
        <ele>401.8</ele>
      </trkpt>
      <trkpt lat="44.98145" lon="5.27258">
        <ele>403.3</ele>
      </trkpt>
      <trkpt lat="44.98136" lon="5.2725">
        <ele>404.4</ele>
      </trkpt>
      <trkpt lat="44.98127" lon="5.27249">
        <ele>405.7</ele>
      </trkpt>
      <trkpt lat="44.981" lon="5.27263">
        <ele>409.9</ele>
      </trkpt>
      <trkpt lat="44.98086" lon="5.27253">
        <ele>411.7</ele>
      </trkpt>
      <trkpt lat="44.98066" lon="5.2725">
        <ele>411.6</ele>
      </trkpt>
      <trkpt lat="44.98042" lon="5.27256">
        <ele>411.3</ele>
      </trkpt>
      <trkpt lat="44.97993" lon="5.27268">
        <ele>410.3</ele>
      </trkpt>
      <trkpt lat="44.97923" lon="5.2729">
        <ele>405.3</ele>
      </trkpt>
      <trkpt lat="44.97921" lon="5.2729">
        <ele>405.2</ele>
      </trkpt>
      <trkpt lat="44.97892" lon="5.27297">
        <ele>404.2</ele>
      </trkpt>
      <trkpt lat="44.97875" lon="5.27296">
        <ele>403.1</ele>
      </trkpt>
      <trkpt lat="44.97785" lon="5.27293">
        <ele>406</ele>
      </trkpt>
      <trkpt lat="44.97765" lon="5.27267">
        <ele>406.2</ele>
      </trkpt>
      <trkpt lat="44.97764" lon="5.27267">
        <ele>406.2</ele>
      </trkpt>
      <trkpt lat="44.97753" lon="5.27252">
        <ele>406.7</ele>
      </trkpt>
      <trkpt lat="44.97726" lon="5.27222">
        <ele>407.1</ele>
      </trkpt>
      <trkpt lat="44.97693" lon="5.27212">
        <ele>410.7</ele>
      </trkpt>
      <trkpt lat="44.97665" lon="5.27181">
        <ele>410.8</ele>
      </trkpt>
      <trkpt lat="44.97655" lon="5.27169">
        <ele>409.4</ele>
      </trkpt>
      <trkpt lat="44.97643" lon="5.27152">
        <ele>407.4</ele>
      </trkpt>
      <trkpt lat="44.97637" lon="5.27124">
        <ele>403.9</ele>
      </trkpt>
      <trkpt lat="44.97634" lon="5.27112">
        <ele>402.4</ele>
      </trkpt>
      <trkpt lat="44.97629" lon="5.27102">
        <ele>401.3</ele>
      </trkpt>
      <trkpt lat="44.9762" lon="5.27089">
        <ele>399.9</ele>
      </trkpt>
      <trkpt lat="44.97614" lon="5.27084">
        <ele>399.3</ele>
      </trkpt>
      <trkpt lat="44.97605" lon="5.2708">
        <ele>399.6</ele>
      </trkpt>
      <trkpt lat="44.97595" lon="5.27079">
        <ele>399.9</ele>
      </trkpt>
      <trkpt lat="44.97561" lon="5.27088">
        <ele>396.7</ele>
      </trkpt>
      <trkpt lat="44.97551" lon="5.27092">
        <ele>395.5</ele>
      </trkpt>
      <trkpt lat="44.97542" lon="5.27099">
        <ele>394.4</ele>
      </trkpt>
      <trkpt lat="44.97531" lon="5.27113">
        <ele>393.9</ele>
      </trkpt>
      <trkpt lat="44.97513" lon="5.2717">
        <ele>395.1</ele>
      </trkpt>
      <trkpt lat="44.97498" lon="5.27203">
        <ele>396.9</ele>
      </trkpt>
      <trkpt lat="44.97484" lon="5.27225">
        <ele>397.2</ele>
      </trkpt>
      <trkpt lat="44.97476" lon="5.27233">
        <ele>396.5</ele>
      </trkpt>
      <trkpt lat="44.97469" lon="5.27236">
        <ele>395.3</ele>
      </trkpt>
      <trkpt lat="44.97463" lon="5.27236">
        <ele>393.9</ele>
      </trkpt>
      <trkpt lat="44.97457" lon="5.27231">
        <ele>392.2</ele>
      </trkpt>
      <trkpt lat="44.97454" lon="5.27222">
        <ele>390.8</ele>
      </trkpt>
      <trkpt lat="44.97453" lon="5.27211">
        <ele>389.6</ele>
      </trkpt>
      <trkpt lat="44.97455" lon="5.27202">
        <ele>389</ele>
      </trkpt>
      <trkpt lat="44.97458" lon="5.27193">
        <ele>388.6</ele>
      </trkpt>
      <trkpt lat="44.97469" lon="5.27158">
        <ele>387.3</ele>
      </trkpt>
      <trkpt lat="44.9747" lon="5.27154">
        <ele>387.3</ele>
      </trkpt>
      <trkpt lat="44.97469" lon="5.27145">
        <ele>386.8</ele>
      </trkpt>
      <trkpt lat="44.97465" lon="5.27139">
        <ele>386.2</ele>
      </trkpt>
      <trkpt lat="44.97448" lon="5.27136">
        <ele>384.4</ele>
      </trkpt>
      <trkpt lat="44.97444" lon="5.27135">
        <ele>384</ele>
      </trkpt>
      <trkpt lat="44.97443" lon="5.27135">
        <ele>383.8</ele>
      </trkpt>
      <trkpt lat="44.97435" lon="5.27133">
        <ele>383</ele>
      </trkpt>
      <trkpt lat="44.97423" lon="5.2713">
        <ele>381.9</ele>
      </trkpt>
      <trkpt lat="44.97398" lon="5.27123">
        <ele>383.2</ele>
      </trkpt>
      <trkpt lat="44.97385" lon="5.27117">
        <ele>384.4</ele>
      </trkpt>
      <trkpt lat="44.9738" lon="5.27115">
        <ele>384.8</ele>
      </trkpt>
      <trkpt lat="44.97374" lon="5.27114">
        <ele>385.3</ele>
      </trkpt>
      <trkpt lat="44.97365" lon="5.27117">
        <ele>386</ele>
      </trkpt>
      <trkpt lat="44.97363" lon="5.27119">
        <ele>386.3</ele>
      </trkpt>
      <trkpt lat="44.97356" lon="5.27121">
        <ele>386.9</ele>
      </trkpt>
      <trkpt lat="44.9735" lon="5.27122">
        <ele>387.4</ele>
      </trkpt>
      <trkpt lat="44.97343" lon="5.27121">
        <ele>388</ele>
      </trkpt>
      <trkpt lat="44.97334" lon="5.27118">
        <ele>388.6</ele>
      </trkpt>
      <trkpt lat="44.97332" lon="5.27117">
        <ele>388.7</ele>
      </trkpt>
      <trkpt lat="44.97324" lon="5.27111">
        <ele>388.7</ele>
      </trkpt>
      <trkpt lat="44.97319" lon="5.27106">
        <ele>388.7</ele>
      </trkpt>
      <trkpt lat="44.97316" lon="5.27104">
        <ele>388.7</ele>
      </trkpt>
      <trkpt lat="44.97311" lon="5.27103">
        <ele>388.9</ele>
      </trkpt>
      <trkpt lat="44.97297" lon="5.27096">
        <ele>389.1</ele>
      </trkpt>
      <trkpt lat="44.9729" lon="5.27092">
        <ele>389.1</ele>
      </trkpt>
      <trkpt lat="44.9728" lon="5.27081">
        <ele>389.3</ele>
      </trkpt>
      <trkpt lat="44.97272" lon="5.27074">
        <ele>390.7</ele>
      </trkpt>
      <trkpt lat="44.97265" lon="5.27065">
        <ele>391.9</ele>
      </trkpt>
      <trkpt lat="44.97258" lon="5.27055">
        <ele>393.2</ele>
      </trkpt>
      <trkpt lat="44.9725" lon="5.27043">
        <ele>394.3</ele>
      </trkpt>
      <trkpt lat="44.97241" lon="5.27029">
        <ele>396</ele>
      </trkpt>
      <trkpt lat="44.97236" lon="5.27016">
        <ele>397</ele>
      </trkpt>
      <trkpt lat="44.97227" lon="5.27005">
        <ele>397.4</ele>
      </trkpt>
      <trkpt lat="44.97225" lon="5.27002">
        <ele>397.4</ele>
      </trkpt>
      <trkpt lat="44.97217" lon="5.26988">
        <ele>400.6</ele>
      </trkpt>
      <trkpt lat="44.97209" lon="5.2698">
        <ele>401.9</ele>
      </trkpt>
      <trkpt lat="44.97203" lon="5.26972">
        <ele>403.1</ele>
      </trkpt>
      <trkpt lat="44.97188" lon="5.26958">
        <ele>404.1</ele>
      </trkpt>
      <trkpt lat="44.97177" lon="5.26948">
        <ele>404.1</ele>
      </trkpt>
      <trkpt lat="44.97175" lon="5.26946">
        <ele>404</ele>
      </trkpt>
      <trkpt lat="44.97163" lon="5.26935">
        <ele>404.4</ele>
      </trkpt>
      <trkpt lat="44.97156" lon="5.26925">
        <ele>406</ele>
      </trkpt>
      <trkpt lat="44.9714" lon="5.26911">
        <ele>408.6</ele>
      </trkpt>
      <trkpt lat="44.97135" lon="5.26906">
        <ele>409.9</ele>
      </trkpt>
      <trkpt lat="44.97136" lon="5.26903">
        <ele>411</ele>
      </trkpt>
      <trkpt lat="44.9713" lon="5.26897">
        <ele>412.2</ele>
      </trkpt>
      <trkpt lat="44.9712" lon="5.26885">
        <ele>413.9</ele>
      </trkpt>
      <trkpt lat="44.97107" lon="5.26858">
        <ele>416.4</ele>
      </trkpt>
      <trkpt lat="44.97098" lon="5.26842">
        <ele>416.4</ele>
      </trkpt>
      <trkpt lat="44.97086" lon="5.26824">
        <ele>416.4</ele>
      </trkpt>
      <trkpt lat="44.97072" lon="5.26805">
        <ele>420.7</ele>
      </trkpt>
      <trkpt lat="44.97056" lon="5.26785">
        <ele>424.8</ele>
      </trkpt>
      <trkpt lat="44.97051" lon="5.2678">
        <ele>425.3</ele>
      </trkpt>
      <trkpt lat="44.97042" lon="5.26772">
        <ele>425.8</ele>
      </trkpt>
      <trkpt lat="44.97026" lon="5.26757">
        <ele>425.9</ele>
      </trkpt>
      <trkpt lat="44.97019" lon="5.26753">
        <ele>425</ele>
      </trkpt>
      <trkpt lat="44.9701" lon="5.26748">
        <ele>423.8</ele>
      </trkpt>
      <trkpt lat="44.96995" lon="5.26743">
        <ele>422.9</ele>
      </trkpt>
      <trkpt lat="44.96982" lon="5.26735">
        <ele>425.2</ele>
      </trkpt>
      <trkpt lat="44.96974" lon="5.26734">
        <ele>425.7</ele>
      </trkpt>
      <trkpt lat="44.96961" lon="5.26732">
        <ele>426.5</ele>
      </trkpt>
      <trkpt lat="44.96942" lon="5.26727">
        <ele>428</ele>
      </trkpt>
      <trkpt lat="44.96933" lon="5.26726">
        <ele>428.6</ele>
      </trkpt>
      <trkpt lat="44.96922" lon="5.26725">
        <ele>428.9</ele>
      </trkpt>
      <trkpt lat="44.96911" lon="5.26723">
        <ele>429.9</ele>
      </trkpt>
      <trkpt lat="44.96901" lon="5.2672">
        <ele>431.3</ele>
      </trkpt>
      <trkpt lat="44.96891" lon="5.26715">
        <ele>432.9</ele>
      </trkpt>
      <trkpt lat="44.96887" lon="5.26711">
        <ele>433.7</ele>
      </trkpt>
      <trkpt lat="44.96869" lon="5.26699">
        <ele>436.1</ele>
      </trkpt>
      <trkpt lat="44.9685" lon="5.26686">
        <ele>437.8</ele>
      </trkpt>
      <trkpt lat="44.96836" lon="5.26677">
        <ele>438.5</ele>
      </trkpt>
      <trkpt lat="44.96813" lon="5.2666">
        <ele>441.3</ele>
      </trkpt>
      <trkpt lat="44.96801" lon="5.26649">
        <ele>443.7</ele>
      </trkpt>
      <trkpt lat="44.96794" lon="5.26645">
        <ele>444.7</ele>
      </trkpt>
      <trkpt lat="44.96787" lon="5.26641">
        <ele>445.5</ele>
      </trkpt>
      <trkpt lat="44.96769" lon="5.26638">
        <ele>446.7</ele>
      </trkpt>
      <trkpt lat="44.9676" lon="5.26637">
        <ele>447.1</ele>
      </trkpt>
      <trkpt lat="44.96751" lon="5.26634">
        <ele>447.6</ele>
      </trkpt>
      <trkpt lat="44.96734" lon="5.2663">
        <ele>447.8</ele>
      </trkpt>
      <trkpt lat="44.96729" lon="5.26628">
        <ele>448</ele>
      </trkpt>
      <trkpt lat="44.96724" lon="5.26627">
        <ele>447.9</ele>
      </trkpt>
      <trkpt lat="44.96717" lon="5.26627">
        <ele>447.8</ele>
      </trkpt>
      <trkpt lat="44.96707" lon="5.26626">
        <ele>447.6</ele>
      </trkpt>
      <trkpt lat="44.96689" lon="5.26627">
        <ele>446.9</ele>
      </trkpt>
      <trkpt lat="44.96684" lon="5.26628">
        <ele>446.7</ele>
      </trkpt>
      <trkpt lat="44.96679" lon="5.26632">
        <ele>445.9</ele>
      </trkpt>
      <trkpt lat="44.9667" lon="5.26643">
        <ele>444.3</ele>
      </trkpt>
      <trkpt lat="44.96661" lon="5.26646">
        <ele>443.9</ele>
      </trkpt>
      <trkpt lat="44.9665" lon="5.26646">
        <ele>444.1</ele>
      </trkpt>
      <trkpt lat="44.96643" lon="5.26648">
        <ele>444</ele>
      </trkpt>
      <trkpt lat="44.96638" lon="5.2665">
        <ele>443.9</ele>
      </trkpt>
      <trkpt lat="44.96635" lon="5.26654">
        <ele>443.4</ele>
      </trkpt>
      <trkpt lat="44.96635" lon="5.26661">
        <ele>442.5</ele>
      </trkpt>
      <trkpt lat="44.96636" lon="5.26665">
        <ele>442</ele>
      </trkpt>
      <trkpt lat="44.96637" lon="5.26691">
        <ele>442.8</ele>
      </trkpt>
      <trkpt lat="44.96629" lon="5.26716">
        <ele>443.9</ele>
      </trkpt>
      <trkpt lat="44.96623" lon="5.26736">
        <ele>444.4</ele>
      </trkpt>
      <trkpt lat="44.9662" lon="5.26754">
        <ele>445.2</ele>
      </trkpt>
      <trkpt lat="44.96615" lon="5.26771">
        <ele>447.2</ele>
      </trkpt>
      <trkpt lat="44.96608" lon="5.26783">
        <ele>448.3</ele>
      </trkpt>
      <trkpt lat="44.96545" lon="5.26851">
        <ele>457.6</ele>
      </trkpt>
      <trkpt lat="44.96538" lon="5.26857">
        <ele>458.9</ele>
      </trkpt>
      <trkpt lat="44.9653" lon="5.26862">
        <ele>460</ele>
      </trkpt>
      <trkpt lat="44.96503" lon="5.26868">
        <ele>461.8</ele>
      </trkpt>
      <trkpt lat="44.96454" lon="5.26876">
        <ele>466.7</ele>
      </trkpt>
      <trkpt lat="44.96445" lon="5.26879">
        <ele>467.9</ele>
      </trkpt>
      <trkpt lat="44.96435" lon="5.26882">
        <ele>469.1</ele>
      </trkpt>
      <trkpt lat="44.9643" lon="5.26882">
        <ele>469.6</ele>
      </trkpt>
      <trkpt lat="44.96423" lon="5.26883">
        <ele>470.3</ele>
      </trkpt>
      <trkpt lat="44.96417" lon="5.26882">
        <ele>470.5</ele>
      </trkpt>
      <trkpt lat="44.96411" lon="5.26878">
        <ele>471</ele>
      </trkpt>
      <trkpt lat="44.96395" lon="5.26867">
        <ele>471.6</ele>
      </trkpt>
      <trkpt lat="44.96388" lon="5.26863">
        <ele>472.1</ele>
      </trkpt>
      <trkpt lat="44.9638" lon="5.26861">
        <ele>473</ele>
      </trkpt>
      <trkpt lat="44.9637" lon="5.2686">
        <ele>474.3</ele>
      </trkpt>
      <trkpt lat="44.96364" lon="5.26858">
        <ele>475.1</ele>
      </trkpt>
      <trkpt lat="44.96359" lon="5.26857">
        <ele>475.7</ele>
      </trkpt>
      <trkpt lat="44.96353" lon="5.26855">
        <ele>476.2</ele>
      </trkpt>
      <trkpt lat="44.9635" lon="5.26853">
        <ele>476.2</ele>
      </trkpt>
      <trkpt lat="44.96344" lon="5.26848">
        <ele>476.2</ele>
      </trkpt>
      <trkpt lat="44.96339" lon="5.26842">
        <ele>475.9</ele>
      </trkpt>
      <trkpt lat="44.96323" lon="5.26823">
        <ele>474.8</ele>
      </trkpt>
      <trkpt lat="44.96317" lon="5.26818">
        <ele>474.8</ele>
      </trkpt>
      <trkpt lat="44.9631" lon="5.26816">
        <ele>475.1</ele>
      </trkpt>
      <trkpt lat="44.96305" lon="5.26815">
        <ele>475.6</ele>
      </trkpt>
      <trkpt lat="44.96299" lon="5.26818">
        <ele>476.6</ele>
      </trkpt>
      <trkpt lat="44.96296" lon="5.26824">
        <ele>477.7</ele>
      </trkpt>
      <trkpt lat="44.96293" lon="5.26832">
        <ele>479.2</ele>
      </trkpt>
      <trkpt lat="44.96291" lon="5.2684">
        <ele>480.9</ele>
      </trkpt>
      <trkpt lat="44.96288" lon="5.26859">
        <ele>485.1</ele>
      </trkpt>
      <trkpt lat="44.96287" lon="5.26885">
        <ele>490.4</ele>
      </trkpt>
      <trkpt lat="44.96289" lon="5.26899">
        <ele>492.8</ele>
      </trkpt>
      <trkpt lat="44.96311" lon="5.26924">
        <ele>494.8</ele>
      </trkpt>
      <trkpt lat="44.96342" lon="5.26952">
        <ele>495</ele>
      </trkpt>
      <trkpt lat="44.96372" lon="5.26976">
        <ele>493.4</ele>
      </trkpt>
      <trkpt lat="44.96391" lon="5.27002">
        <ele>494</ele>
      </trkpt>
      <trkpt lat="44.96405" lon="5.27014">
        <ele>493.1</ele>
      </trkpt>
      <trkpt lat="44.96427" lon="5.27026">
        <ele>491.9</ele>
      </trkpt>
      <trkpt lat="44.96425" lon="5.27037">
        <ele>493.4</ele>
      </trkpt>
      <trkpt lat="44.96382" lon="5.27034">
        <ele>499.5</ele>
      </trkpt>
      <trkpt lat="44.96363" lon="5.27032">
        <ele>502.3</ele>
      </trkpt>
      <trkpt lat="44.96302" lon="5.27028">
        <ele>509</ele>
      </trkpt>
      <trkpt lat="44.96293" lon="5.27027">
        <ele>509.5</ele>
      </trkpt>
      <trkpt lat="44.96272" lon="5.27024">
        <ele>510.7</ele>
      </trkpt>
      <trkpt lat="44.96267" lon="5.27035">
        <ele>512.1</ele>
      </trkpt>
      <trkpt lat="44.96264" lon="5.27044">
        <ele>513.2</ele>
      </trkpt>
      <trkpt lat="44.96264" lon="5.27057">
        <ele>514.5</ele>
      </trkpt>
      <trkpt lat="44.96269" lon="5.27068">
        <ele>515.1</ele>
      </trkpt>
      <trkpt lat="44.96275" lon="5.27074">
        <ele>515.3</ele>
      </trkpt>
      <trkpt lat="44.96277" lon="5.27076">
        <ele>515.3</ele>
      </trkpt>
      <trkpt lat="44.96289" lon="5.27083">
        <ele>515.2</ele>
      </trkpt>
      <trkpt lat="44.96302" lon="5.27091">
        <ele>515.1</ele>
      </trkpt>
      <trkpt lat="44.96311" lon="5.27097">
        <ele>515</ele>
      </trkpt>
      <trkpt lat="44.96316" lon="5.27102">
        <ele>515.2</ele>
      </trkpt>
      <trkpt lat="44.96317" lon="5.27106">
        <ele>515.5</ele>
      </trkpt>
      <trkpt lat="44.96319" lon="5.27111">
        <ele>515.9</ele>
      </trkpt>
      <trkpt lat="44.96319" lon="5.27118">
        <ele>516.5</ele>
      </trkpt>
      <trkpt lat="44.96318" lon="5.27124">
        <ele>517.2</ele>
      </trkpt>
      <trkpt lat="44.96316" lon="5.27129">
        <ele>517.8</ele>
      </trkpt>
      <trkpt lat="44.96313" lon="5.27131">
        <ele>518.3</ele>
      </trkpt>
      <trkpt lat="44.96284" lon="5.27198">
        <ele>529.5</ele>
      </trkpt>
      <trkpt lat="44.96278" lon="5.2721">
        <ele>532.2</ele>
      </trkpt>
      <trkpt lat="44.96275" lon="5.27246">
        <ele>538.6</ele>
      </trkpt>
      <trkpt lat="44.96265" lon="5.27332">
        <ele>548.6</ele>
      </trkpt>
      <trkpt lat="44.96268" lon="5.27358">
        <ele>549.7</ele>
      </trkpt>
      <trkpt lat="44.96271" lon="5.27383">
        <ele>550.9</ele>
      </trkpt>
      <trkpt lat="44.96272" lon="5.27398">
        <ele>551.8</ele>
      </trkpt>
      <trkpt lat="44.96269" lon="5.27418">
        <ele>553.7</ele>
      </trkpt>
      <trkpt lat="44.96263" lon="5.27463">
        <ele>557.8</ele>
      </trkpt>
      <trkpt lat="44.96256" lon="5.27489">
        <ele>560.5</ele>
      </trkpt>
      <trkpt lat="44.9625" lon="5.27505">
        <ele>562.6</ele>
      </trkpt>
      <trkpt lat="44.9625" lon="5.2751">
        <ele>563.3</ele>
      </trkpt>
      <trkpt lat="44.96175" lon="5.27606">
        <ele>591.4</ele>
      </trkpt>
      <trkpt lat="44.96137" lon="5.27646">
        <ele>610.4</ele>
      </trkpt>
      <trkpt lat="44.96133" lon="5.27659">
        <ele>613.4</ele>
      </trkpt>
      <trkpt lat="44.96117" lon="5.27702">
        <ele>626.1</ele>
      </trkpt>
      <trkpt lat="44.96108" lon="5.2773">
        <ele>633.1</ele>
      </trkpt>
      <trkpt lat="44.96104" lon="5.27771">
        <ele>641.6</ele>
      </trkpt>
      <trkpt lat="44.96117" lon="5.27832">
        <ele>654.1</ele>
      </trkpt>
      <trkpt lat="44.96175" lon="5.27979">
        <ele>673.7</ele>
      </trkpt>
      <trkpt lat="44.96185" lon="5.27987">
        <ele>676.8</ele>
      </trkpt>
      <trkpt lat="44.96197" lon="5.27996">
        <ele>680.1</ele>
      </trkpt>
      <trkpt lat="44.9621" lon="5.27986">
        <ele>680.7</ele>
      </trkpt>
      <trkpt lat="44.96225" lon="5.2796">
        <ele>679.9</ele>
      </trkpt>
      <trkpt lat="44.9624" lon="5.27938">
        <ele>680.2</ele>
      </trkpt>
      <trkpt lat="44.96251" lon="5.27919">
        <ele>680.2</ele>
      </trkpt>
      <trkpt lat="44.9626" lon="5.27904">
        <ele>677.6</ele>
      </trkpt>
      <trkpt lat="44.96267" lon="5.27891">
        <ele>675</ele>
      </trkpt>
      <trkpt lat="44.96278" lon="5.27889">
        <ele>674.6</ele>
      </trkpt>
      <trkpt lat="44.96282" lon="5.27897">
        <ele>676.4</ele>
      </trkpt>
      <trkpt lat="44.96285" lon="5.27932">
        <ele>683.2</ele>
      </trkpt>
      <trkpt lat="44.96283" lon="5.27954">
        <ele>686.6</ele>
      </trkpt>
      <trkpt lat="44.96294" lon="5.27992">
        <ele>694</ele>
      </trkpt>
      <trkpt lat="44.96303" lon="5.28047">
        <ele>706.1</ele>
      </trkpt>
      <trkpt lat="44.96301" lon="5.28095">
        <ele>714.5</ele>
      </trkpt>
      <trkpt lat="44.96295" lon="5.28134">
        <ele>718.6</ele>
      </trkpt>
      <trkpt lat="44.96281" lon="5.28168">
        <ele>723.2</ele>
      </trkpt>
      <trkpt lat="44.96246" lon="5.2822">
        <ele>728.8</ele>
      </trkpt>
      <trkpt lat="44.9622" lon="5.28244">
        <ele>739.5</ele>
      </trkpt>
      <trkpt lat="44.96208" lon="5.28272">
        <ele>750.7</ele>
      </trkpt>
      <trkpt lat="44.96216" lon="5.28308">
        <ele>756.6</ele>
      </trkpt>
      <trkpt lat="44.96212" lon="5.28352">
        <ele>771</ele>
      </trkpt>
      <trkpt lat="44.96205" lon="5.28399">
        <ele>789.6</ele>
      </trkpt>
      <trkpt lat="44.96202" lon="5.28446">
        <ele>802.9</ele>
      </trkpt>
      <trkpt lat="44.96199" lon="5.28484">
        <ele>813.1</ele>
      </trkpt>
      <trkpt lat="44.9619" lon="5.28518">
        <ele>824.4</ele>
      </trkpt>
      <trkpt lat="44.96176" lon="5.28553">
        <ele>836.7</ele>
      </trkpt>
      <trkpt lat="44.96175" lon="5.286">
        <ele>843.8</ele>
      </trkpt>
      <trkpt lat="44.96171" lon="5.28621">
        <ele>849.5</ele>
      </trkpt>
      <trkpt lat="44.9616" lon="5.28663">
        <ele>870</ele>
      </trkpt>
      <trkpt lat="44.96167" lon="5.28693">
        <ele>872.8</ele>
      </trkpt>
      <trkpt lat="44.96195" lon="5.28727">
        <ele>869.4</ele>
      </trkpt>
      <trkpt lat="44.9621" lon="5.28747">
        <ele>866.8</ele>
      </trkpt>
      <trkpt lat="44.96218" lon="5.28784">
        <ele>876.1</ele>
      </trkpt>
      <trkpt lat="44.96248" lon="5.28862">
        <ele>881.8</ele>
      </trkpt>
      <trkpt lat="44.96263" lon="5.28904">
        <ele>880.4</ele>
      </trkpt>
      <trkpt lat="44.96257" lon="5.2894">
        <ele>886.4</ele>
      </trkpt>
      <trkpt lat="44.96234" lon="5.28976">
        <ele>903.2</ele>
      </trkpt>
      <trkpt lat="44.96222" lon="5.2899">
        <ele>913</ele>
      </trkpt>
      <trkpt lat="44.96162" lon="5.29061">
        <ele>934.1</ele>
      </trkpt>
      <trkpt lat="44.96152" lon="5.29082">
        <ele>933.3</ele>
      </trkpt>
      <trkpt lat="44.96122" lon="5.29116">
        <ele>949.2</ele>
      </trkpt>
      <trkpt lat="44.96098" lon="5.29137">
        <ele>959.3</ele>
      </trkpt>
      <trkpt lat="44.96085" lon="5.29147">
        <ele>964.4</ele>
      </trkpt>
      <trkpt lat="44.96063" lon="5.29167">
        <ele>973.7</ele>
      </trkpt>
      <trkpt lat="44.96052" lon="5.29206">
        <ele>974.3</ele>
      </trkpt>
      <trkpt lat="44.96022" lon="5.29278">
        <ele>983.6</ele>
      </trkpt>
      <trkpt lat="44.95981" lon="5.2934">
        <ele>1010</ele>
      </trkpt>
      <trkpt lat="44.95945" lon="5.29403">
        <ele>1026.2</ele>
      </trkpt>
      <trkpt lat="44.959" lon="5.29451">
        <ele>1056</ele>
      </trkpt>
      <trkpt lat="44.95865" lon="5.29493">
        <ele>1084.1</ele>
      </trkpt>
      <trkpt lat="44.95844" lon="5.29511">
        <ele>1103</ele>
      </trkpt>
      <trkpt lat="44.95821" lon="5.29531">
        <ele>1116</ele>
      </trkpt>
      <trkpt lat="44.95795" lon="5.29539">
        <ele>1131.9</ele>
      </trkpt>
      <trkpt lat="44.95793" lon="5.29553">
        <ele>1130.6</ele>
      </trkpt>
      <trkpt lat="44.958" lon="5.29582">
        <ele>1119.6</ele>
      </trkpt>
      <trkpt lat="44.95812" lon="5.29638">
        <ele>1115.4</ele>
      </trkpt>
      <trkpt lat="44.95809" lon="5.29667">
        <ele>1120.8</ele>
      </trkpt>
      <trkpt lat="44.9583" lon="5.29757">
        <ele>1121.5</ele>
      </trkpt>
      <trkpt lat="44.95848" lon="5.29851">
        <ele>1119.5</ele>
      </trkpt>
      <trkpt lat="44.95843" lon="5.29909">
        <ele>1123.5</ele>
      </trkpt>
      <trkpt lat="44.9582" lon="5.3">
        <ele>1133.8</ele>
      </trkpt>
      <trkpt lat="44.95792" lon="5.3015">
        <ele>1147.9</ele>
      </trkpt>
      <trkpt lat="44.95763" lon="5.3021">
        <ele>1151.1</ele>
      </trkpt>
      <trkpt lat="44.95739" lon="5.30257">
        <ele>1152.9</ele>
      </trkpt>
      <trkpt lat="44.95703" lon="5.30319">
        <ele>1156.9</ele>
      </trkpt>
      <trkpt lat="44.95697" lon="5.30378">
        <ele>1159.7</ele>
      </trkpt>
      <trkpt lat="44.95632" lon="5.30434">
        <ele>1162.9</ele>
      </trkpt>
      <trkpt lat="44.956" lon="5.30471">
        <ele>1165.7</ele>
      </trkpt>
      <trkpt lat="44.95588" lon="5.30492">
        <ele>1165.4</ele>
      </trkpt>
      <trkpt lat="44.95572" lon="5.30514">
        <ele>1168.3</ele>
      </trkpt>
      <trkpt lat="44.95528" lon="5.30547">
        <ele>1172.8</ele>
      </trkpt>
      <trkpt lat="44.95487" lon="5.30582">
        <ele>1173</ele>
      </trkpt>
      <trkpt lat="44.9546" lon="5.30617">
        <ele>1177.2</ele>
      </trkpt>
      <trkpt lat="44.95452" lon="5.30636">
        <ele>1178.4</ele>
      </trkpt>
      <trkpt lat="44.95438" lon="5.30651">
        <ele>1178.8</ele>
      </trkpt>
      <trkpt lat="44.95405" lon="5.30676">
        <ele>1179</ele>
      </trkpt>
      <trkpt lat="44.95393" lon="5.30684">
        <ele>1179.6</ele>
      </trkpt>
      <trkpt lat="44.9538" lon="5.30694">
        <ele>1180</ele>
      </trkpt>
      <trkpt lat="44.9537" lon="5.30701">
        <ele>1180</ele>
      </trkpt>
      <trkpt lat="44.95338" lon="5.30741">
        <ele>1177.8</ele>
      </trkpt>
      <trkpt lat="44.95303" lon="5.30775">
        <ele>1176.7</ele>
      </trkpt>
      <trkpt lat="44.95245" lon="5.30868">
        <ele>1166.5</ele>
      </trkpt>
      <trkpt lat="44.95238" lon="5.30882">
        <ele>1165.3</ele>
      </trkpt>
      <trkpt lat="44.9524" lon="5.30897">
        <ele>1164.6</ele>
      </trkpt>
      <trkpt lat="44.95241" lon="5.30908">
        <ele>1164.2</ele>
      </trkpt>
      <trkpt lat="44.95244" lon="5.30935">
        <ele>1163.5</ele>
      </trkpt>
      <trkpt lat="44.95245" lon="5.30945">
        <ele>1163.5</ele>
      </trkpt>
      <trkpt lat="44.95238" lon="5.30976">
        <ele>1161.1</ele>
      </trkpt>
      <trkpt lat="44.95234" lon="5.30999">
        <ele>1159.4</ele>
      </trkpt>
      <trkpt lat="44.95231" lon="5.31018">
        <ele>1156.8</ele>
      </trkpt>
      <trkpt lat="44.95234" lon="5.31043">
        <ele>1155.1</ele>
      </trkpt>
      <trkpt lat="44.95246" lon="5.311">
        <ele>1152.6</ele>
      </trkpt>
      <trkpt lat="44.95254" lon="5.31121">
        <ele>1152.6</ele>
      </trkpt>
      <trkpt lat="44.95266" lon="5.31139">
        <ele>1153.8</ele>
      </trkpt>
      <trkpt lat="44.95285" lon="5.31172">
        <ele>1155.1</ele>
      </trkpt>
      <trkpt lat="44.95287" lon="5.31175">
        <ele>1155.1</ele>
      </trkpt>
      <trkpt lat="44.95307" lon="5.31178">
        <ele>1159.2</ele>
      </trkpt>
      <trkpt lat="44.95352" lon="5.31207">
        <ele>1166.3</ele>
      </trkpt>
      <trkpt lat="44.95374" lon="5.31217">
        <ele>1169.6</ele>
      </trkpt>
      <trkpt lat="44.95398" lon="5.31228">
        <ele>1173.1</ele>
      </trkpt>
      <trkpt lat="44.9543" lon="5.31241">
        <ele>1177.4</ele>
      </trkpt>
      <trkpt lat="44.95454" lon="5.3125">
        <ele>1180.7</ele>
      </trkpt>
      <trkpt lat="44.95492" lon="5.3127">
        <ele>1184.6</ele>
      </trkpt>
      <trkpt lat="44.95512" lon="5.31277">
        <ele>1186.7</ele>
      </trkpt>
      <trkpt lat="44.95535" lon="5.31275">
        <ele>1189.8</ele>
      </trkpt>
      <trkpt lat="44.95547" lon="5.31276">
        <ele>1191.1</ele>
      </trkpt>
      <trkpt lat="44.95567" lon="5.31274">
        <ele>1194</ele>
      </trkpt>
      <trkpt lat="44.95582" lon="5.31268">
        <ele>1197.2</ele>
      </trkpt>
      <trkpt lat="44.9562" lon="5.31264">
        <ele>1203.9</ele>
      </trkpt>
      <trkpt lat="44.95648" lon="5.31256">
        <ele>1210</ele>
      </trkpt>
      <trkpt lat="44.95685" lon="5.31273">
        <ele>1212.6</ele>
      </trkpt>
      <trkpt lat="44.95722" lon="5.31293">
        <ele>1215.2</ele>
      </trkpt>
      <trkpt lat="44.95746" lon="5.31304">
        <ele>1217.2</ele>
      </trkpt>
      <trkpt lat="44.95761" lon="5.31307">
        <ele>1218.9</ele>
      </trkpt>
      <trkpt lat="44.95783" lon="5.31305">
        <ele>1222.2</ele>
      </trkpt>
      <trkpt lat="44.95818" lon="5.31303">
        <ele>1227.3</ele>
      </trkpt>
      <trkpt lat="44.9584" lon="5.31295">
        <ele>1231.7</ele>
      </trkpt>
      <trkpt lat="44.9587" lon="5.31287">
        <ele>1237</ele>
      </trkpt>
      <trkpt lat="44.9589" lon="5.31296">
        <ele>1237.9</ele>
      </trkpt>
      <trkpt lat="44.95924" lon="5.31328">
        <ele>1237.5</ele>
      </trkpt>
      <trkpt lat="44.95946" lon="5.31339">
        <ele>1239.9</ele>
      </trkpt>
      <trkpt lat="44.9597" lon="5.31348">
        <ele>1243.7</ele>
      </trkpt>
      <trkpt lat="44.96003" lon="5.31362">
        <ele>1248.8</ele>
      </trkpt>
      <trkpt lat="44.96024" lon="5.31369">
        <ele>1251.5</ele>
      </trkpt>
      <trkpt lat="44.96051" lon="5.31372">
        <ele>1256.1</ele>
      </trkpt>
      <trkpt lat="44.96071" lon="5.31374">
        <ele>1259.4</ele>
      </trkpt>
      <trkpt lat="44.96109" lon="5.31374">
        <ele>1265.8</ele>
      </trkpt>
      <trkpt lat="44.9613" lon="5.31371">
        <ele>1269.9</ele>
      </trkpt>
      <trkpt lat="44.96156" lon="5.31373">
        <ele>1273.7</ele>
      </trkpt>
      <trkpt lat="44.96188" lon="5.31384">
        <ele>1276.6</ele>
      </trkpt>
      <trkpt lat="44.96211" lon="5.31398">
        <ele>1278.1</ele>
      </trkpt>
      <trkpt lat="44.96233" lon="5.31407">
        <ele>1280.4</ele>
      </trkpt>
      <trkpt lat="44.96253" lon="5.31409">
        <ele>1283.8</ele>
      </trkpt>
      <trkpt lat="44.96275" lon="5.31415">
        <ele>1286.3</ele>
      </trkpt>
      <trkpt lat="44.96302" lon="5.3142">
        <ele>1289.4</ele>
      </trkpt>
      <trkpt lat="44.96338" lon="5.31424">
        <ele>1294</ele>
      </trkpt>
      <trkpt lat="44.96364" lon="5.31423">
        <ele>1297.1</ele>
      </trkpt>
      <trkpt lat="44.96396" lon="5.31425">
        <ele>1300.3</ele>
      </trkpt>
      <trkpt lat="44.96416" lon="5.31423">
        <ele>1302.8</ele>
      </trkpt>
      <trkpt lat="44.96426" lon="5.31419">
        <ele>1304.5</ele>
      </trkpt>
      <trkpt lat="44.96435" lon="5.31417">
        <ele>1305.6</ele>
      </trkpt>
      <trkpt lat="44.96452" lon="5.31421">
        <ele>1306.7</ele>
      </trkpt>
      <trkpt lat="44.9648" lon="5.31422">
        <ele>1309</ele>
      </trkpt>
      <trkpt lat="44.96503" lon="5.31428">
        <ele>1309.5</ele>
      </trkpt>
      <trkpt lat="44.96533" lon="5.31424">
        <ele>1307</ele>
      </trkpt>
      <trkpt lat="44.96543" lon="5.31415">
        <ele>1307.6</ele>
      </trkpt>
      <trkpt lat="44.96581" lon="5.31356">
        <ele>1314.7</ele>
      </trkpt>
      <trkpt lat="44.96595" lon="5.31334">
        <ele>1317.1</ele>
      </trkpt>
      <trkpt lat="44.96617" lon="5.3131">
        <ele>1317.4</ele>
      </trkpt>
      <trkpt lat="44.96648" lon="5.31297">
        <ele>1315.2</ele>
      </trkpt>
      <trkpt lat="44.96675" lon="5.31287">
        <ele>1313.8</ele>
      </trkpt>
      <trkpt lat="44.96704" lon="5.31284">
        <ele>1312.5</ele>
      </trkpt>
      <trkpt lat="44.9672" lon="5.31282">
        <ele>1311.6</ele>
      </trkpt>
      <trkpt lat="44.96738" lon="5.31272">
        <ele>1311</ele>
      </trkpt>
      <trkpt lat="44.9677" lon="5.31253">
        <ele>1309.8</ele>
      </trkpt>
      <trkpt lat="44.96796" lon="5.31233">
        <ele>1309.6</ele>
      </trkpt>
      <trkpt lat="44.96822" lon="5.31231">
        <ele>1307.8</ele>
      </trkpt>
      <trkpt lat="44.96887" lon="5.31298">
        <ele>1306.5</ele>
      </trkpt>
      <trkpt lat="44.96953" lon="5.31271">
        <ele>1300.3</ele>
      </trkpt>
      <trkpt lat="44.9708" lon="5.31334">
        <ele>1306.3</ele>
      </trkpt>
      <trkpt lat="44.97251" lon="5.31355">
        <ele>1295.5</ele>
      </trkpt>
      <trkpt lat="44.97269" lon="5.31413">
        <ele>1295</ele>
      </trkpt>
      <trkpt lat="44.97232" lon="5.31586">
        <ele>1284.8</ele>
      </trkpt>
      <trkpt lat="44.97251" lon="5.31722">
        <ele>1253.8</ele>
      </trkpt>
      <trkpt lat="44.97278" lon="5.31737">
        <ele>1251.2</ele>
      </trkpt>
      <trkpt lat="44.97296" lon="5.31714">
        <ele>1254.3</ele>
      </trkpt>
      <trkpt lat="44.97393" lon="5.31643">
        <ele>1253.9</ele>
      </trkpt>
      <trkpt lat="44.97464" lon="5.31656">
        <ele>1243.1</ele>
      </trkpt>
      <trkpt lat="44.97481" lon="5.31684">
        <ele>1240.6</ele>
      </trkpt>
      <trkpt lat="44.97509" lon="5.31702">
        <ele>1236.1</ele>
      </trkpt>
      <trkpt lat="44.97607" lon="5.31684">
        <ele>1222.7</ele>
      </trkpt>
      <trkpt lat="44.97638" lon="5.31699">
        <ele>1218.2</ele>
      </trkpt>
      <trkpt lat="44.97728" lon="5.31842">
        <ele>1194.7</ele>
      </trkpt>
      <trkpt lat="44.97754" lon="5.31856">
        <ele>1190.8</ele>
      </trkpt>
      <trkpt lat="44.97763" lon="5.31862">
        <ele>1189.7</ele>
      </trkpt>
      <trkpt lat="44.97774" lon="5.31862">
        <ele>1188.5</ele>
      </trkpt>
      <trkpt lat="44.97787" lon="5.31859">
        <ele>1186.9</ele>
      </trkpt>
      <trkpt lat="44.97796" lon="5.31854">
        <ele>1186</ele>
      </trkpt>
      <trkpt lat="44.97805" lon="5.31848">
        <ele>1185.2</ele>
      </trkpt>
      <trkpt lat="44.97813" lon="5.31844">
        <ele>1184.5</ele>
      </trkpt>
      <trkpt lat="44.97821" lon="5.31842">
        <ele>1183.7</ele>
      </trkpt>
      <trkpt lat="44.97831" lon="5.31841">
        <ele>1182.8</ele>
      </trkpt>
      <trkpt lat="44.9784" lon="5.31845">
        <ele>1181.6</ele>
      </trkpt>
      <trkpt lat="44.97843" lon="5.3185">
        <ele>1181</ele>
      </trkpt>
      <trkpt lat="44.97844" lon="5.31859">
        <ele>1180.3</ele>
      </trkpt>
      <trkpt lat="44.9784" lon="5.31878">
        <ele>1179.6</ele>
      </trkpt>
      <trkpt lat="44.97833" lon="5.31913">
        <ele>1178.2</ele>
      </trkpt>
      <trkpt lat="44.97832" lon="5.3194">
        <ele>1177.5</ele>
      </trkpt>
      <trkpt lat="44.97835" lon="5.31966">
        <ele>1176</ele>
      </trkpt>
      <trkpt lat="44.97834" lon="5.3199">
        <ele>1175.2</ele>
      </trkpt>
      <trkpt lat="44.97835" lon="5.32012">
        <ele>1175.2</ele>
      </trkpt>
      <trkpt lat="44.97841" lon="5.3203">
        <ele>1175.1</ele>
      </trkpt>
      <trkpt lat="44.97854" lon="5.32051">
        <ele>1173.4</ele>
      </trkpt>
      <trkpt lat="44.97879" lon="5.32071">
        <ele>1169</ele>
      </trkpt>
      <trkpt lat="44.97893" lon="5.32089">
        <ele>1166.5</ele>
      </trkpt>
      <trkpt lat="44.97902" lon="5.3211">
        <ele>1165.3</ele>
      </trkpt>
      <trkpt lat="44.97911" lon="5.32155">
        <ele>1165</ele>
      </trkpt>
      <trkpt lat="44.97916" lon="5.32183">
        <ele>1163.5</ele>
      </trkpt>
      <trkpt lat="44.97916" lon="5.32208">
        <ele>1162.3</ele>
      </trkpt>
      <trkpt lat="44.97914" lon="5.32232">
        <ele>1161.5</ele>
      </trkpt>
      <trkpt lat="44.97915" lon="5.32256">
        <ele>1160.3</ele>
      </trkpt>
      <trkpt lat="44.97917" lon="5.32279">
        <ele>1159.3</ele>
      </trkpt>
      <trkpt lat="44.97922" lon="5.32304">
        <ele>1157.9</ele>
      </trkpt>
      <trkpt lat="44.97923" lon="5.32316">
        <ele>1157.5</ele>
      </trkpt>
      <trkpt lat="44.97923" lon="5.32331">
        <ele>1157.2</ele>
      </trkpt>
      <trkpt lat="44.9792" lon="5.32366">
        <ele>1157.2</ele>
      </trkpt>
      <trkpt lat="44.97916" lon="5.3239">
        <ele>1157.4</ele>
      </trkpt>
      <trkpt lat="44.97917" lon="5.32402">
        <ele>1157.2</ele>
      </trkpt>
      <trkpt lat="44.97921" lon="5.32407">
        <ele>1156.5</ele>
      </trkpt>
      <trkpt lat="44.9793" lon="5.32418">
        <ele>1155.2</ele>
      </trkpt>
      <trkpt lat="44.97939" lon="5.32429">
        <ele>1153.7</ele>
      </trkpt>
      <trkpt lat="44.9795" lon="5.32442">
        <ele>1152.1</ele>
      </trkpt>
      <trkpt lat="44.97958" lon="5.32451">
        <ele>1151.4</ele>
      </trkpt>
      <trkpt lat="44.97964" lon="5.32459">
        <ele>1150.8</ele>
      </trkpt>
      <trkpt lat="44.97963" lon="5.32479">
        <ele>1150.9</ele>
      </trkpt>
      <trkpt lat="44.97962" lon="5.32492">
        <ele>1150.9</ele>
      </trkpt>
      <trkpt lat="44.97959" lon="5.32523">
        <ele>1151.1</ele>
      </trkpt>
      <trkpt lat="44.97953" lon="5.32551">
        <ele>1151.4</ele>
      </trkpt>
      <trkpt lat="44.97939" lon="5.3257">
        <ele>1151.7</ele>
      </trkpt>
      <trkpt lat="44.97929" lon="5.32583">
        <ele>1151.9</ele>
      </trkpt>
      <trkpt lat="44.9792" lon="5.3259">
        <ele>1151.5</ele>
      </trkpt>
      <trkpt lat="44.97903" lon="5.32597">
        <ele>1152</ele>
      </trkpt>
      <trkpt lat="44.97867" lon="5.32609">
        <ele>1153.6</ele>
      </trkpt>
      <trkpt lat="44.97849" lon="5.32618">
        <ele>1153.9</ele>
      </trkpt>
      <trkpt lat="44.97813" lon="5.3267">
        <ele>1147.1</ele>
      </trkpt>
      <trkpt lat="44.97796" lon="5.32682">
        <ele>1144.7</ele>
      </trkpt>
      <trkpt lat="44.97775" lon="5.32698">
        <ele>1141.8</ele>
      </trkpt>
      <trkpt lat="44.97747" lon="5.32695">
        <ele>1140.9</ele>
      </trkpt>
      <trkpt lat="44.97716" lon="5.32655">
        <ele>1139.4</ele>
      </trkpt>
      <trkpt lat="44.97695" lon="5.32615">
        <ele>1139.3</ele>
      </trkpt>
      <trkpt lat="44.97668" lon="5.32581">
        <ele>1136.8</ele>
      </trkpt>
      <trkpt lat="44.97645" lon="5.32534">
        <ele>1137.8</ele>
      </trkpt>
      <trkpt lat="44.9764" lon="5.32509">
        <ele>1139.7</ele>
      </trkpt>
      <trkpt lat="44.97621" lon="5.32485">
        <ele>1138.5</ele>
      </trkpt>
      <trkpt lat="44.97613" lon="5.32467">
        <ele>1138.9</ele>
      </trkpt>
      <trkpt lat="44.97588" lon="5.32437">
        <ele>1136.6</ele>
      </trkpt>
      <trkpt lat="44.97569" lon="5.32398">
        <ele>1140.3</ele>
      </trkpt>
      <trkpt lat="44.97558" lon="5.32387">
        <ele>1141.2</ele>
      </trkpt>
      <trkpt lat="44.97544" lon="5.32389">
        <ele>1139.6</ele>
      </trkpt>
      <trkpt lat="44.97529" lon="5.32397">
        <ele>1137.2</ele>
      </trkpt>
      <trkpt lat="44.97507" lon="5.32401">
        <ele>1135.1</ele>
      </trkpt>
      <trkpt lat="44.97482" lon="5.32394">
        <ele>1136.2</ele>
      </trkpt>
      <trkpt lat="44.97463" lon="5.32402">
        <ele>1136.8</ele>
      </trkpt>
      <trkpt lat="44.97453" lon="5.32417">
        <ele>1136.4</ele>
      </trkpt>
      <trkpt lat="44.97454" lon="5.3244">
        <ele>1134.9</ele>
      </trkpt>
      <trkpt lat="44.97471" lon="5.3247">
        <ele>1131.6</ele>
      </trkpt>
      <trkpt lat="44.97498" lon="5.32521">
        <ele>1124.7</ele>
      </trkpt>
      <trkpt lat="44.97507" lon="5.32547">
        <ele>1122.6</ele>
      </trkpt>
      <trkpt lat="44.97513" lon="5.32578">
        <ele>1120.1</ele>
      </trkpt>
      <trkpt lat="44.97514" lon="5.32597">
        <ele>1118</ele>
      </trkpt>
      <trkpt lat="44.97507" lon="5.32609">
        <ele>1116.5</ele>
      </trkpt>
      <trkpt lat="44.9749" lon="5.32614">
        <ele>1116</ele>
      </trkpt>
      <trkpt lat="44.97477" lon="5.32615">
        <ele>1115.9</ele>
      </trkpt>
      <trkpt lat="44.97448" lon="5.32609">
        <ele>1116.9</ele>
      </trkpt>
      <trkpt lat="44.97425" lon="5.32601">
        <ele>1118.6</ele>
      </trkpt>
      <trkpt lat="44.97414" lon="5.3261">
        <ele>1117.1</ele>
      </trkpt>
      <trkpt lat="44.97448" lon="5.32662">
        <ele>1107.9</ele>
      </trkpt>
      <trkpt lat="44.97524" lon="5.32733">
        <ele>1100.6</ele>
      </trkpt>
      <trkpt lat="44.97507" lon="5.32734">
        <ele>1098.5</ele>
      </trkpt>
      <trkpt lat="44.97388" lon="5.32705">
        <ele>1097.4</ele>
      </trkpt>
      <trkpt lat="44.97268" lon="5.32759">
        <ele>1097</ele>
      </trkpt>
      <trkpt lat="44.97231" lon="5.32853">
        <ele>1086.8</ele>
      </trkpt>
      <trkpt lat="44.97166" lon="5.32919">
        <ele>1084.9</ele>
      </trkpt>
      <trkpt lat="44.97088" lon="5.32901">
        <ele>1089</ele>
      </trkpt>
      <trkpt lat="44.9697" lon="5.32704">
        <ele>1099.4</ele>
      </trkpt>
      <trkpt lat="44.96892" lon="5.3271">
        <ele>1096.5</ele>
      </trkpt>
      <trkpt lat="44.96882" lon="5.32721">
        <ele>1095.4</ele>
      </trkpt>
      <trkpt lat="44.96851" lon="5.32759">
        <ele>1093.9</ele>
      </trkpt>
      <trkpt lat="44.96832" lon="5.32802">
        <ele>1094.3</ele>
      </trkpt>
      <trkpt lat="44.96805" lon="5.32879">
        <ele>1098.5</ele>
      </trkpt>
      <trkpt lat="44.96795" lon="5.3291">
        <ele>1100.6</ele>
      </trkpt>
      <trkpt lat="44.96793" lon="5.32942">
        <ele>1103.5</ele>
      </trkpt>
      <trkpt lat="44.96804" lon="5.32966">
        <ele>1104.3</ele>
      </trkpt>
      <trkpt lat="44.96824" lon="5.32978">
        <ele>1103.4</ele>
      </trkpt>
      <trkpt lat="44.96846" lon="5.32985">
        <ele>1101.7</ele>
      </trkpt>
      <trkpt lat="44.96913" lon="5.33006">
        <ele>1094.4</ele>
      </trkpt>
      <trkpt lat="44.96952" lon="5.33035">
        <ele>1093.2</ele>
      </trkpt>
      <trkpt lat="44.96995" lon="5.33049">
        <ele>1088.2</ele>
      </trkpt>
      <trkpt lat="44.97028" lon="5.3305">
        <ele>1086.2</ele>
      </trkpt>
      <trkpt lat="44.97058" lon="5.3306">
        <ele>1084.5</ele>
      </trkpt>
      <trkpt lat="44.97064" lon="5.33071">
        <ele>1084</ele>
      </trkpt>
      <trkpt lat="44.97062" lon="5.33091">
        <ele>1083.2</ele>
      </trkpt>
      <trkpt lat="44.97045" lon="5.33104">
        <ele>1083.3</ele>
      </trkpt>
      <trkpt lat="44.97008" lon="5.33122">
        <ele>1084.6</ele>
      </trkpt>
      <trkpt lat="44.96964" lon="5.33156">
        <ele>1088.5</ele>
      </trkpt>
      <trkpt lat="44.9689" lon="5.33207">
        <ele>1095.2</ele>
      </trkpt>
      <trkpt lat="44.96877" lon="5.33242">
        <ele>1091.2</ele>
      </trkpt>
      <trkpt lat="44.96871" lon="5.33277">
        <ele>1090.2</ele>
      </trkpt>
      <trkpt lat="44.96877" lon="5.33326">
        <ele>1087.4</ele>
      </trkpt>
      <trkpt lat="44.96888" lon="5.33343">
        <ele>1084.9</ele>
      </trkpt>
      <trkpt lat="44.96907" lon="5.3336">
        <ele>1081.5</ele>
      </trkpt>
      <trkpt lat="44.96942" lon="5.33385">
        <ele>1080.1</ele>
      </trkpt>
      <trkpt lat="44.96952" lon="5.33402">
        <ele>1080.1</ele>
      </trkpt>
      <trkpt lat="44.96947" lon="5.33423">
        <ele>1079.5</ele>
      </trkpt>
      <trkpt lat="44.96927" lon="5.33446">
        <ele>1077.5</ele>
      </trkpt>
      <trkpt lat="44.96834" lon="5.33537">
        <ele>1073.5</ele>
      </trkpt>
      <trkpt lat="44.96786" lon="5.33567">
        <ele>1065.5</ele>
      </trkpt>
      <trkpt lat="44.96766" lon="5.33563">
        <ele>1065.5</ele>
      </trkpt>
      <trkpt lat="44.96745" lon="5.33552">
        <ele>1066.4</ele>
      </trkpt>
      <trkpt lat="44.96716" lon="5.33514">
        <ele>1069</ele>
      </trkpt>
      <trkpt lat="44.96689" lon="5.33486">
        <ele>1070.9</ele>
      </trkpt>
      <trkpt lat="44.96666" lon="5.33474">
        <ele>1071</ele>
      </trkpt>
      <trkpt lat="44.96644" lon="5.33467">
        <ele>1070.9</ele>
      </trkpt>
      <trkpt lat="44.96614" lon="5.33464">
        <ele>1068.5</ele>
      </trkpt>
      <trkpt lat="44.96593" lon="5.33461">
        <ele>1067.3</ele>
      </trkpt>
      <trkpt lat="44.96564" lon="5.33448">
        <ele>1067.9</ele>
      </trkpt>
      <trkpt lat="44.96562" lon="5.33454">
        <ele>1065.9</ele>
      </trkpt>
      <trkpt lat="44.96573" lon="5.33461">
        <ele>1065.2</ele>
      </trkpt>
      <trkpt lat="44.96589" lon="5.33468">
        <ele>1064.6</ele>
      </trkpt>
      <trkpt lat="44.96613" lon="5.33474">
        <ele>1065.4</ele>
      </trkpt>
      <trkpt lat="44.96641" lon="5.33479">
        <ele>1066.9</ele>
      </trkpt>
      <trkpt lat="44.96653" lon="5.33482">
        <ele>1067</ele>
      </trkpt>
      <trkpt lat="44.96664" lon="5.33488">
        <ele>1066.5</ele>
      </trkpt>
      <trkpt lat="44.96674" lon="5.33495">
        <ele>1065.7</ele>
      </trkpt>
      <trkpt lat="44.96682" lon="5.33503">
        <ele>1065.2</ele>
      </trkpt>
      <trkpt lat="44.96697" lon="5.3352">
        <ele>1065</ele>
      </trkpt>
      <trkpt lat="44.96709" lon="5.33536">
        <ele>1064.2</ele>
      </trkpt>
      <trkpt lat="44.96744" lon="5.33588">
        <ele>1060.1</ele>
      </trkpt>
      <trkpt lat="44.9676" lon="5.33606">
        <ele>1060.1</ele>
      </trkpt>
      <trkpt lat="44.96777" lon="5.33617">
        <ele>1059.7</ele>
      </trkpt>
      <trkpt lat="44.96798" lon="5.33619">
        <ele>1059.8</ele>
      </trkpt>
      <trkpt lat="44.96823" lon="5.33617">
        <ele>1060.3</ele>
      </trkpt>
      <trkpt lat="44.96846" lon="5.33614">
        <ele>1060.2</ele>
      </trkpt>
      <trkpt lat="44.96873" lon="5.33618">
        <ele>1058.9</ele>
      </trkpt>
      <trkpt lat="44.96909" lon="5.33632">
        <ele>1056.8</ele>
      </trkpt>
      <trkpt lat="44.96948" lon="5.33649">
        <ele>1054.9</ele>
      </trkpt>
      <trkpt lat="44.96979" lon="5.33653">
        <ele>1053.7</ele>
      </trkpt>
      <trkpt lat="44.97007" lon="5.33648">
        <ele>1053</ele>
      </trkpt>
      <trkpt lat="44.97023" lon="5.33644">
        <ele>1052.4</ele>
      </trkpt>
      <trkpt lat="44.9704" lon="5.33633">
        <ele>1052</ele>
      </trkpt>
      <trkpt lat="44.9705" lon="5.3362">
        <ele>1051.9</ele>
      </trkpt>
      <trkpt lat="44.97059" lon="5.33601">
        <ele>1051.8</ele>
      </trkpt>
      <trkpt lat="44.97081" lon="5.3355">
        <ele>1054.2</ele>
      </trkpt>
      <trkpt lat="44.97096" lon="5.33528">
        <ele>1055.2</ele>
      </trkpt>
      <trkpt lat="44.97113" lon="5.33514">
        <ele>1054.8</ele>
      </trkpt>
      <trkpt lat="44.97135" lon="5.33504">
        <ele>1053.4</ele>
      </trkpt>
      <trkpt lat="44.97189" lon="5.33486">
        <ele>1050.9</ele>
      </trkpt>
      <trkpt lat="44.97247" lon="5.33465">
        <ele>1049.7</ele>
      </trkpt>
      <trkpt lat="44.97289" lon="5.33455">
        <ele>1047.7</ele>
      </trkpt>
      <trkpt lat="44.97336" lon="5.33445">
        <ele>1044.2</ele>
      </trkpt>
      <trkpt lat="44.9736" lon="5.33444">
        <ele>1041</ele>
      </trkpt>
      <trkpt lat="44.9738" lon="5.33447">
        <ele>1038.4</ele>
      </trkpt>
      <trkpt lat="44.97418" lon="5.33458">
        <ele>1034.4</ele>
      </trkpt>
      <trkpt lat="44.97438" lon="5.33464">
        <ele>1033.7</ele>
      </trkpt>
      <trkpt lat="44.97435" lon="5.3352">
        <ele>1037.3</ele>
      </trkpt>
      <trkpt lat="44.97438" lon="5.33536">
        <ele>1037</ele>
      </trkpt>
      <trkpt lat="44.97411" lon="5.33593">
        <ele>1034.6</ele>
      </trkpt>
      <trkpt lat="44.97396" lon="5.3362">
        <ele>1033.4</ele>
      </trkpt>
      <trkpt lat="44.97382" lon="5.33642">
        <ele>1032</ele>
      </trkpt>
      <trkpt lat="44.97369" lon="5.33656">
        <ele>1030.9</ele>
      </trkpt>
      <trkpt lat="44.97355" lon="5.3367">
        <ele>1029.5</ele>
      </trkpt>
      <trkpt lat="44.97321" lon="5.33695">
        <ele>1028.2</ele>
      </trkpt>
      <trkpt lat="44.97264" lon="5.33716">
        <ele>1032.4</ele>
      </trkpt>
      <trkpt lat="44.97118" lon="5.33778">
        <ele>1038.1</ele>
      </trkpt>
      <trkpt lat="44.9709" lon="5.33792">
        <ele>1037.8</ele>
      </trkpt>
      <trkpt lat="44.97065" lon="5.33819">
        <ele>1036</ele>
      </trkpt>
      <trkpt lat="44.97057" lon="5.3385">
        <ele>1036.2</ele>
      </trkpt>
      <trkpt lat="44.97061" lon="5.33889">
        <ele>1039.4</ele>
      </trkpt>
      <trkpt lat="44.97081" lon="5.33926">
        <ele>1043.3</ele>
      </trkpt>
      <trkpt lat="44.9723" lon="5.34008">
        <ele>1050.2</ele>
      </trkpt>
      <trkpt lat="44.97423" lon="5.34083">
        <ele>1067.5</ele>
      </trkpt>
      <trkpt lat="44.9752" lon="5.34115">
        <ele>1073.7</ele>
      </trkpt>
      <trkpt lat="44.97678" lon="5.34223">
        <ele>1090.4</ele>
      </trkpt>
      <trkpt lat="44.97731" lon="5.34266">
        <ele>1094.5</ele>
      </trkpt>
      <trkpt lat="44.9781" lon="5.34291">
        <ele>1092.2</ele>
      </trkpt>
      <trkpt lat="44.97851" lon="5.34316">
        <ele>1095.2</ele>
      </trkpt>
      <trkpt lat="44.97883" lon="5.34363">
        <ele>1098.2</ele>
      </trkpt>
      <trkpt lat="44.97921" lon="5.34451">
        <ele>1099.5</ele>
      </trkpt>
      <trkpt lat="44.97969" lon="5.34511">
        <ele>1095.2</ele>
      </trkpt>
      <trkpt lat="44.98002" lon="5.34536">
        <ele>1095.9</ele>
      </trkpt>
      <trkpt lat="44.98035" lon="5.34558">
        <ele>1088.8</ele>
      </trkpt>
      <trkpt lat="44.98073" lon="5.34612">
        <ele>1104.3</ele>
      </trkpt>
      <trkpt lat="44.98091" lon="5.34682">
        <ele>1111.9</ele>
      </trkpt>
      <trkpt lat="44.98125" lon="5.34771">
        <ele>1109.1</ele>
      </trkpt>
      <trkpt lat="44.98167" lon="5.34863">
        <ele>1121.4</ele>
      </trkpt>
      <trkpt lat="44.98201" lon="5.34927">
        <ele>1119.5</ele>
      </trkpt>
      <trkpt lat="44.98229" lon="5.34966">
        <ele>1116.4</ele>
      </trkpt>
      <trkpt lat="44.9827" lon="5.34997">
        <ele>1111</ele>
      </trkpt>
      <trkpt lat="44.98317" lon="5.35007">
        <ele>1102.9</ele>
      </trkpt>
      <trkpt lat="44.98364" lon="5.35008">
        <ele>1096.2</ele>
      </trkpt>
      <trkpt lat="44.98411" lon="5.35015">
        <ele>1091.1</ele>
      </trkpt>
      <trkpt lat="44.9844" lon="5.35035">
        <ele>1049</ele>
      </trkpt>
      <trkpt lat="44.98464" lon="5.35036">
        <ele>1003.6</ele>
      </trkpt>
      <trkpt lat="44.98477" lon="5.35086">
        <ele>1060.6</ele>
      </trkpt>
      <trkpt lat="44.98491" lon="5.35177">
        <ele>1081.4</ele>
      </trkpt>
      <trkpt lat="44.98481" lon="5.35291">
        <ele>1071.1</ele>
      </trkpt>
      <trkpt lat="44.98446" lon="5.35383">
        <ele>1064.6</ele>
      </trkpt>
      <trkpt lat="44.98715" lon="5.3554">
        <ele>1037.3</ele>
      </trkpt>
      <trkpt lat="44.98739" lon="5.35564">
        <ele>1035.6</ele>
      </trkpt>
      <trkpt lat="44.98751" lon="5.35591">
        <ele>1034.9</ele>
      </trkpt>
      <trkpt lat="44.9876" lon="5.35621">
        <ele>1034.7</ele>
      </trkpt>
      <trkpt lat="44.9876" lon="5.3572">
        <ele>1031</ele>
      </trkpt>
      <trkpt lat="44.98762" lon="5.3578">
        <ele>1029.2</ele>
      </trkpt>
      <trkpt lat="44.98771" lon="5.35823">
        <ele>1029.5</ele>
      </trkpt>
      <trkpt lat="44.9879" lon="5.35875">
        <ele>1031.1</ele>
      </trkpt>
      <trkpt lat="44.9882" lon="5.35922">
        <ele>1030.2</ele>
      </trkpt>
      <trkpt lat="44.98853" lon="5.35965">
        <ele>1030.7</ele>
      </trkpt>
      <trkpt lat="44.9902" lon="5.3613">
        <ele>1031</ele>
      </trkpt>
      <trkpt lat="44.99055" lon="5.3616">
        <ele>1034.4</ele>
      </trkpt>
      <trkpt lat="44.99192" lon="5.36225">
        <ele>1048.8</ele>
      </trkpt>
      <trkpt lat="44.99215" lon="5.36233">
        <ele>1053.2</ele>
      </trkpt>
      <trkpt lat="44.99252" lon="5.36232">
        <ele>1058.6</ele>
      </trkpt>
      <trkpt lat="44.99271" lon="5.36227">
        <ele>1059.6</ele>
      </trkpt>
      <trkpt lat="44.99285" lon="5.3622">
        <ele>1059.8</ele>
      </trkpt>
      <trkpt lat="44.9935" lon="5.36184">
        <ele>1059.5</ele>
      </trkpt>
      <trkpt lat="44.99373" lon="5.36179">
        <ele>1060.6</ele>
      </trkpt>
      <trkpt lat="44.9939" lon="5.36178">
        <ele>1061.9</ele>
      </trkpt>
      <trkpt lat="44.99401" lon="5.36182">
        <ele>1063</ele>
      </trkpt>
      <trkpt lat="44.99423" lon="5.36199">
        <ele>1063.7</ele>
      </trkpt>
      <trkpt lat="44.99441" lon="5.36232">
        <ele>1060.9</ele>
      </trkpt>
      <trkpt lat="44.99464" lon="5.36325">
        <ele>1063.9</ele>
      </trkpt>
      <trkpt lat="44.99473" lon="5.36354">
        <ele>1065.2</ele>
      </trkpt>
      <trkpt lat="44.99488" lon="5.36376">
        <ele>1065.2</ele>
      </trkpt>
      <trkpt lat="44.99503" lon="5.36386">
        <ele>1064.4</ele>
      </trkpt>
      <trkpt lat="44.99517" lon="5.36386">
        <ele>1063.6</ele>
      </trkpt>
      <trkpt lat="44.99641" lon="5.3637">
        <ele>1050</ele>
      </trkpt>
      <trkpt lat="44.99652" lon="5.36374">
        <ele>1049.1</ele>
      </trkpt>
      <trkpt lat="44.99665" lon="5.36382">
        <ele>1048.7</ele>
      </trkpt>
      <trkpt lat="44.99675" lon="5.36395">
        <ele>1048.8</ele>
      </trkpt>
      <trkpt lat="44.99683" lon="5.36421">
        <ele>1050.7</ele>
      </trkpt>
      <trkpt lat="44.99696" lon="5.36517">
        <ele>1057.1</ele>
      </trkpt>
      <trkpt lat="44.99705" lon="5.36543">
        <ele>1058.5</ele>
      </trkpt>
      <trkpt lat="44.99717" lon="5.36559">
        <ele>1059</ele>
      </trkpt>
      <trkpt lat="44.99733" lon="5.36567">
        <ele>1058.3</ele>
      </trkpt>
      <trkpt lat="44.9975" lon="5.36567">
        <ele>1056.6</ele>
      </trkpt>
      <trkpt lat="44.99761" lon="5.36559">
        <ele>1058.5</ele>
      </trkpt>
      <trkpt lat="44.99771" lon="5.36549">
        <ele>1059.6</ele>
      </trkpt>
      <trkpt lat="44.99785" lon="5.36526">
        <ele>1059.7</ele>
      </trkpt>
      <trkpt lat="44.9982" lon="5.36444">
        <ele>1051</ele>
      </trkpt>
      <trkpt lat="44.99832" lon="5.36417">
        <ele>1046</ele>
      </trkpt>
      <trkpt lat="44.99846" lon="5.36396">
        <ele>1045.6</ele>
      </trkpt>
      <trkpt lat="44.99865" lon="5.36376">
        <ele>1046.2</ele>
      </trkpt>
      <trkpt lat="45.00028" lon="5.3622">
        <ele>1051.6</ele>
      </trkpt>
      <trkpt lat="45.00083" lon="5.36164">
        <ele>1050.2</ele>
      </trkpt>
      <trkpt lat="45.00109" lon="5.36153">
        <ele>1045.9</ele>
      </trkpt>
      <trkpt lat="45.00137" lon="5.36161">
        <ele>1046.4</ele>
      </trkpt>
      <trkpt lat="45.00176" lon="5.36186">
        <ele>1051.8</ele>
      </trkpt>
      <trkpt lat="45.00274" lon="5.3624">
        <ele>1063.3</ele>
      </trkpt>
      <trkpt lat="45.00375" lon="5.36271">
        <ele>1069.6</ele>
      </trkpt>
      <trkpt lat="45.00452" lon="5.36286">
        <ele>1077.1</ele>
      </trkpt>
      <trkpt lat="45.00473" lon="5.36282">
        <ele>1078</ele>
      </trkpt>
      <trkpt lat="45.00493" lon="5.36268">
        <ele>1075.8</ele>
      </trkpt>
      <trkpt lat="45.00548" lon="5.36214">
        <ele>1076.2</ele>
      </trkpt>
      <trkpt lat="45.0062" lon="5.36147">
        <ele>1079.5</ele>
      </trkpt>
      <trkpt lat="45.00638" lon="5.36139">
        <ele>1080.4</ele>
      </trkpt>
      <trkpt lat="45.00661" lon="5.3614">
        <ele>1082</ele>
      </trkpt>
      <trkpt lat="45.00684" lon="5.36154">
        <ele>1081.2</ele>
      </trkpt>
      <trkpt lat="45.00733" lon="5.36216">
        <ele>1079.3</ele>
      </trkpt>
      <trkpt lat="45.00753" lon="5.36232">
        <ele>1077.5</ele>
      </trkpt>
      <trkpt lat="45.00771" lon="5.36237">
        <ele>1075.3</ele>
      </trkpt>
      <trkpt lat="45.00783" lon="5.36234">
        <ele>1073.4</ele>
      </trkpt>
      <trkpt lat="45.00849" lon="5.36206">
        <ele>1060.9</ele>
      </trkpt>
      <trkpt lat="45.00862" lon="5.36205">
        <ele>1058.8</ele>
      </trkpt>
      <trkpt lat="45.00874" lon="5.36208">
        <ele>1057.4</ele>
      </trkpt>
      <trkpt lat="45.00886" lon="5.36215">
        <ele>1056.6</ele>
      </trkpt>
      <trkpt lat="45.00898" lon="5.36225">
        <ele>1056.3</ele>
      </trkpt>
      <trkpt lat="45.00932" lon="5.3627">
        <ele>1061.1</ele>
      </trkpt>
      <trkpt lat="45.00958" lon="5.36295">
        <ele>1063.4</ele>
      </trkpt>
      <trkpt lat="45.00977" lon="5.36302">
        <ele>1062.7</ele>
      </trkpt>
      <trkpt lat="45.0099" lon="5.36301">
        <ele>1060.9</ele>
      </trkpt>
      <trkpt lat="45.01006" lon="5.36297">
        <ele>1059.4</ele>
      </trkpt>
      <trkpt lat="45.01022" lon="5.36287">
        <ele>1058.1</ele>
      </trkpt>
      <trkpt lat="45.01065" lon="5.36242">
        <ele>1049.3</ele>
      </trkpt>
      <trkpt lat="45.01104" lon="5.36182">
        <ele>1042.4</ele>
      </trkpt>
      <trkpt lat="45.0115" lon="5.36082">
        <ele>1034.3</ele>
      </trkpt>
      <trkpt lat="45.01228" lon="5.35925">
        <ele>1023.4</ele>
      </trkpt>
      <trkpt lat="45.01248" lon="5.35889">
        <ele>1021.6</ele>
      </trkpt>
      <trkpt lat="45.01275" lon="5.3586">
        <ele>1019</ele>
      </trkpt>
      <trkpt lat="45.01307" lon="5.35843">
        <ele>1017.7</ele>
      </trkpt>
      <trkpt lat="45.01352" lon="5.35837">
        <ele>1016.3</ele>
      </trkpt>
      <trkpt lat="45.01441" lon="5.35865">
        <ele>1014.3</ele>
      </trkpt>
      <trkpt lat="45.01437" lon="5.35856">
        <ele>1012.6</ele>
      </trkpt>
      <trkpt lat="45.01434" lon="5.35849">
        <ele>1011.2</ele>
      </trkpt>
      <trkpt lat="45.01424" lon="5.3584">
        <ele>1009.9</ele>
      </trkpt>
      <trkpt lat="45.01399" lon="5.35827">
        <ele>1009.9</ele>
      </trkpt>
      <trkpt lat="45.01386" lon="5.3582">
        <ele>1010.3</ele>
      </trkpt>
      <trkpt lat="45.01378" lon="5.35816">
        <ele>1010.6</ele>
      </trkpt>
      <trkpt lat="45.01366" lon="5.35809">
        <ele>1010.7</ele>
      </trkpt>
      <trkpt lat="45.01361" lon="5.35805">
        <ele>1010.8</ele>
      </trkpt>
      <trkpt lat="45.01354" lon="5.35798">
        <ele>1010.5</ele>
      </trkpt>
      <trkpt lat="45.01349" lon="5.35793">
        <ele>1010.3</ele>
      </trkpt>
      <trkpt lat="45.01346" lon="5.35786">
        <ele>1009.6</ele>
      </trkpt>
      <trkpt lat="45.01347" lon="5.35778">
        <ele>1008.5</ele>
      </trkpt>
      <trkpt lat="45.01353" lon="5.35769">
        <ele>1006.8</ele>
      </trkpt>
      <trkpt lat="45.01365" lon="5.3576">
        <ele>1004.6</ele>
      </trkpt>
      <trkpt lat="45.01375" lon="5.35749">
        <ele>1002.5</ele>
      </trkpt>
      <trkpt lat="45.01384" lon="5.35733">
        <ele>1001.5</ele>
      </trkpt>
      <trkpt lat="45.0139" lon="5.35723">
        <ele>1001.1</ele>
      </trkpt>
      <trkpt lat="45.01402" lon="5.35712">
        <ele>1000.5</ele>
      </trkpt>
      <trkpt lat="45.01419" lon="5.35704">
        <ele>1000</ele>
      </trkpt>
      <trkpt lat="45.01432" lon="5.35694">
        <ele>999.7</ele>
      </trkpt>
      <trkpt lat="45.01449" lon="5.35689">
        <ele>999.2</ele>
      </trkpt>
      <trkpt lat="45.01461" lon="5.35686">
        <ele>998.8</ele>
      </trkpt>
      <trkpt lat="45.01481" lon="5.35696">
        <ele>997.7</ele>
      </trkpt>
      <trkpt lat="45.01498" lon="5.35702">
        <ele>996.8</ele>
      </trkpt>
      <trkpt lat="45.01518" lon="5.35706">
        <ele>994.5</ele>
      </trkpt>
      <trkpt lat="45.01555" lon="5.35716">
        <ele>989.3</ele>
      </trkpt>
      <trkpt lat="45.01586" lon="5.35723">
        <ele>984.6</ele>
      </trkpt>
      <trkpt lat="45.01608" lon="5.3572">
        <ele>981.2</ele>
      </trkpt>
      <trkpt lat="45.01619" lon="5.35715">
        <ele>979.9</ele>
      </trkpt>
      <trkpt lat="45.01633" lon="5.35705">
        <ele>978.9</ele>
      </trkpt>
      <trkpt lat="45.0164" lon="5.35702">
        <ele>978.1</ele>
      </trkpt>
      <trkpt lat="45.01661" lon="5.35703">
        <ele>974.7</ele>
      </trkpt>
      <trkpt lat="45.01671" lon="5.35702">
        <ele>972.6</ele>
      </trkpt>
      <trkpt lat="45.01678" lon="5.357">
        <ele>971.2</ele>
      </trkpt>
      <trkpt lat="45.01685" lon="5.35691">
        <ele>970.4</ele>
      </trkpt>
      <trkpt lat="45.01691" lon="5.3568">
        <ele>970.1</ele>
      </trkpt>
      <trkpt lat="45.01696" lon="5.35668">
        <ele>970</ele>
      </trkpt>
      <trkpt lat="45.01701" lon="5.35655">
        <ele>969.3</ele>
      </trkpt>
      <trkpt lat="45.01704" lon="5.35642">
        <ele>968.6</ele>
      </trkpt>
      <trkpt lat="45.01709" lon="5.35631">
        <ele>967.7</ele>
      </trkpt>
      <trkpt lat="45.01714" lon="5.35611">
        <ele>966.7</ele>
      </trkpt>
      <trkpt lat="45.01715" lon="5.3558">
        <ele>966.8</ele>
      </trkpt>
      <trkpt lat="45.01715" lon="5.35565">
        <ele>965.5</ele>
      </trkpt>
      <trkpt lat="45.01718" lon="5.35541">
        <ele>962.4</ele>
      </trkpt>
      <trkpt lat="45.0172" lon="5.35517">
        <ele>960</ele>
      </trkpt>
      <trkpt lat="45.01721" lon="5.35491">
        <ele>957.4</ele>
      </trkpt>
      <trkpt lat="45.01722" lon="5.35474">
        <ele>955</ele>
      </trkpt>
      <trkpt lat="45.01719" lon="5.35449">
        <ele>952.8</ele>
      </trkpt>
      <trkpt lat="45.01711" lon="5.3543">
        <ele>951.9</ele>
      </trkpt>
      <trkpt lat="45.01702" lon="5.35418">
        <ele>951.6</ele>
      </trkpt>
      <trkpt lat="45.01683" lon="5.354">
        <ele>954.3</ele>
      </trkpt>
      <trkpt lat="45.01675" lon="5.35398">
        <ele>955.4</ele>
      </trkpt>
      <trkpt lat="45.01635" lon="5.35403">
        <ele>959.1</ele>
      </trkpt>
      <trkpt lat="45.01607" lon="5.35406">
        <ele>961.1</ele>
      </trkpt>
      <trkpt lat="45.01575" lon="5.3541">
        <ele>964</ele>
      </trkpt>
      <trkpt lat="45.01557" lon="5.3541">
        <ele>966.6</ele>
      </trkpt>
      <trkpt lat="45.01545" lon="5.35407">
        <ele>968.2</ele>
      </trkpt>
      <trkpt lat="45.01533" lon="5.35401">
        <ele>969.3</ele>
      </trkpt>
      <trkpt lat="45.01519" lon="5.35388">
        <ele>969.5</ele>
      </trkpt>
      <trkpt lat="45.01508" lon="5.35367">
        <ele>967.7</ele>
      </trkpt>
      <trkpt lat="45.01497" lon="5.35358">
        <ele>966.7</ele>
      </trkpt>
      <trkpt lat="45.01485" lon="5.35348">
        <ele>964.6</ele>
      </trkpt>
      <trkpt lat="45.01447" lon="5.35342">
        <ele>961.5</ele>
      </trkpt>
      <trkpt lat="45.01433" lon="5.3535">
        <ele>962.4</ele>
      </trkpt>
      <trkpt lat="45.01418" lon="5.35354">
        <ele>962.4</ele>
      </trkpt>
      <trkpt lat="45.01404" lon="5.35356">
        <ele>961.7</ele>
      </trkpt>
      <trkpt lat="45.01392" lon="5.35359">
        <ele>961.3</ele>
      </trkpt>
      <trkpt lat="45.01381" lon="5.35364">
        <ele>961.2</ele>
      </trkpt>
      <trkpt lat="45.0137" lon="5.3538">
        <ele>963.3</ele>
      </trkpt>
      <trkpt lat="45.01356" lon="5.35385">
        <ele>962.6</ele>
      </trkpt>
      <trkpt lat="45.01338" lon="5.35389">
        <ele>961.5</ele>
      </trkpt>
      <trkpt lat="45.0133" lon="5.35387">
        <ele>960.7</ele>
      </trkpt>
      <trkpt lat="45.01322" lon="5.35381">
        <ele>959.3</ele>
      </trkpt>
      <trkpt lat="45.01312" lon="5.35366">
        <ele>956.3</ele>
      </trkpt>
      <trkpt lat="45.01302" lon="5.35361">
        <ele>955</ele>
      </trkpt>
      <trkpt lat="45.0129" lon="5.35354">
        <ele>953.5</ele>
      </trkpt>
      <trkpt lat="45.01273" lon="5.35354">
        <ele>953</ele>
      </trkpt>
      <trkpt lat="45.01228" lon="5.35362">
        <ele>953.9</ele>
      </trkpt>
      <trkpt lat="45.01206" lon="5.35367">
        <ele>954.6</ele>
      </trkpt>
      <trkpt lat="45.01186" lon="5.35366">
        <ele>954.4</ele>
      </trkpt>
      <trkpt lat="45.01176" lon="5.35363">
        <ele>954.2</ele>
      </trkpt>
      <trkpt lat="45.01164" lon="5.35352">
        <ele>953.7</ele>
      </trkpt>
      <trkpt lat="45.0116" lon="5.35345">
        <ele>953.7</ele>
      </trkpt>
      <trkpt lat="45.01166" lon="5.35323">
        <ele>952.1</ele>
      </trkpt>
      <trkpt lat="45.01177" lon="5.35296">
        <ele>951.2</ele>
      </trkpt>
      <trkpt lat="45.012" lon="5.35264">
        <ele>948.4</ele>
      </trkpt>
      <trkpt lat="45.0121" lon="5.35248">
        <ele>946.8</ele>
      </trkpt>
      <trkpt lat="45.01234" lon="5.35233">
        <ele>944.2</ele>
      </trkpt>
      <trkpt lat="45.0126" lon="5.35214">
        <ele>942.4</ele>
      </trkpt>
      <trkpt lat="45.01272" lon="5.35204">
        <ele>942.2</ele>
      </trkpt>
      <trkpt lat="45.01301" lon="5.3519">
        <ele>941</ele>
      </trkpt>
      <trkpt lat="45.01312" lon="5.35177">
        <ele>939.9</ele>
      </trkpt>
      <trkpt lat="45.0132" lon="5.3515">
        <ele>938.3</ele>
      </trkpt>
      <trkpt lat="45.01329" lon="5.35131">
        <ele>936.7</ele>
      </trkpt>
      <trkpt lat="45.0134" lon="5.35111">
        <ele>935.6</ele>
      </trkpt>
      <trkpt lat="45.01352" lon="5.35093">
        <ele>934.9</ele>
      </trkpt>
      <trkpt lat="45.01363" lon="5.35089">
        <ele>934.8</ele>
      </trkpt>
      <trkpt lat="45.01375" lon="5.35085">
        <ele>934.6</ele>
      </trkpt>
      <trkpt lat="45.0139" lon="5.35074">
        <ele>933.8</ele>
      </trkpt>
      <trkpt lat="45.01401" lon="5.35067">
        <ele>933</ele>
      </trkpt>
      <trkpt lat="45.01414" lon="5.35054">
        <ele>930.9</ele>
      </trkpt>
      <trkpt lat="45.01427" lon="5.35038">
        <ele>931</ele>
      </trkpt>
      <trkpt lat="45.01446" lon="5.35014">
        <ele>931.1</ele>
      </trkpt>
      <trkpt lat="45.01467" lon="5.34987">
        <ele>930.3</ele>
      </trkpt>
      <trkpt lat="45.01487" lon="5.3496">
        <ele>928.2</ele>
      </trkpt>
      <trkpt lat="45.01499" lon="5.3494">
        <ele>925.3</ele>
      </trkpt>
      <trkpt lat="45.01511" lon="5.34925">
        <ele>925</ele>
      </trkpt>
      <trkpt lat="45.01518" lon="5.34917">
        <ele>925.2</ele>
      </trkpt>
      <trkpt lat="45.01529" lon="5.34896">
        <ele>923.1</ele>
      </trkpt>
      <trkpt lat="45.01537" lon="5.34874">
        <ele>919.4</ele>
      </trkpt>
      <trkpt lat="45.01551" lon="5.34854">
        <ele>918</ele>
      </trkpt>
      <trkpt lat="45.01562" lon="5.34835">
        <ele>915.8</ele>
      </trkpt>
      <trkpt lat="45.01572" lon="5.34821">
        <ele>914.8</ele>
      </trkpt>
      <trkpt lat="45.01583" lon="5.34799">
        <ele>911.9</ele>
      </trkpt>
      <trkpt lat="45.01596" lon="5.34774">
        <ele>909</ele>
      </trkpt>
      <trkpt lat="45.01607" lon="5.34748">
        <ele>905.7</ele>
      </trkpt>
      <trkpt lat="45.01616" lon="5.34737">
        <ele>905.7</ele>
      </trkpt>
      <trkpt lat="45.01627" lon="5.3472">
        <ele>904.6</ele>
      </trkpt>
      <trkpt lat="45.01638" lon="5.34704">
        <ele>903.2</ele>
      </trkpt>
      <trkpt lat="45.0165" lon="5.34688">
        <ele>901.8</ele>
      </trkpt>
      <trkpt lat="45.01661" lon="5.34672">
        <ele>900.3</ele>
      </trkpt>
      <trkpt lat="45.01672" lon="5.34662">
        <ele>900</ele>
      </trkpt>
      <trkpt lat="45.01685" lon="5.34647">
        <ele>898.9</ele>
      </trkpt>
      <trkpt lat="45.017" lon="5.34629">
        <ele>897.5</ele>
      </trkpt>
      <trkpt lat="45.01709" lon="5.34615">
        <ele>895.9</ele>
      </trkpt>
      <trkpt lat="45.0172" lon="5.34599">
        <ele>894.2</ele>
      </trkpt>
      <trkpt lat="45.01732" lon="5.34589">
        <ele>894.1</ele>
      </trkpt>
      <trkpt lat="45.01743" lon="5.34578">
        <ele>893.6</ele>
      </trkpt>
      <trkpt lat="45.01758" lon="5.34563">
        <ele>892</ele>
      </trkpt>
      <trkpt lat="45.01772" lon="5.34542">
        <ele>888.9</ele>
      </trkpt>
      <trkpt lat="45.0179" lon="5.34516">
        <ele>886.6</ele>
      </trkpt>
      <trkpt lat="45.01797" lon="5.34501">
        <ele>885.1</ele>
      </trkpt>
      <trkpt lat="45.01808" lon="5.34482">
        <ele>883.3</ele>
      </trkpt>
      <trkpt lat="45.01817" lon="5.34465">
        <ele>881.8</ele>
      </trkpt>
      <trkpt lat="45.01825" lon="5.3445">
        <ele>880.1</ele>
      </trkpt>
      <trkpt lat="45.01834" lon="5.34432">
        <ele>878</ele>
      </trkpt>
      <trkpt lat="45.01844" lon="5.34414">
        <ele>875.3</ele>
      </trkpt>
      <trkpt lat="45.01857" lon="5.34387">
        <ele>871.2</ele>
      </trkpt>
      <trkpt lat="45.01865" lon="5.3437">
        <ele>868.8</ele>
      </trkpt>
      <trkpt lat="45.01874" lon="5.34356">
        <ele>867.2</ele>
      </trkpt>
      <trkpt lat="45.01883" lon="5.34342">
        <ele>866</ele>
      </trkpt>
      <trkpt lat="45.01895" lon="5.34327">
        <ele>864.9</ele>
      </trkpt>
      <trkpt lat="45.01908" lon="5.34314">
        <ele>863.7</ele>
      </trkpt>
      <trkpt lat="45.01917" lon="5.34308">
        <ele>864.2</ele>
      </trkpt>
      <trkpt lat="45.01929" lon="5.34304">
        <ele>862.4</ele>
      </trkpt>
      <trkpt lat="45.01945" lon="5.34302">
        <ele>861.1</ele>
      </trkpt>
      <trkpt lat="45.01959" lon="5.34299">
        <ele>859.7</ele>
      </trkpt>
      <trkpt lat="45.0197" lon="5.34296">
        <ele>858.6</ele>
      </trkpt>
      <trkpt lat="45.01983" lon="5.34295">
        <ele>857.9</ele>
      </trkpt>
      <trkpt lat="45.01997" lon="5.34295">
        <ele>857.3</ele>
      </trkpt>
      <trkpt lat="45.02014" lon="5.34293">
        <ele>855.1</ele>
      </trkpt>
      <trkpt lat="45.02027" lon="5.34291">
        <ele>853.4</ele>
      </trkpt>
      <trkpt lat="45.02036" lon="5.34293">
        <ele>852.6</ele>
      </trkpt>
      <trkpt lat="45.02041" lon="5.34305">
        <ele>853.5</ele>
      </trkpt>
      <trkpt lat="45.02043" lon="5.34322">
        <ele>855.2</ele>
      </trkpt>
      <trkpt lat="45.02044" lon="5.34338">
        <ele>856.5</ele>
      </trkpt>
      <trkpt lat="45.02048" lon="5.34339">
        <ele>855.6</ele>
      </trkpt>
      <trkpt lat="45.02052" lon="5.34344">
        <ele>854.7</ele>
      </trkpt>
      <trkpt lat="45.02059" lon="5.34356">
        <ele>852.7</ele>
      </trkpt>
      <trkpt lat="45.02065" lon="5.34365">
        <ele>850.6</ele>
      </trkpt>
      <trkpt lat="45.02065" lon="5.34378">
        <ele>849.9</ele>
      </trkpt>
      <trkpt lat="45.02064" lon="5.34393">
        <ele>849.7</ele>
      </trkpt>
      <trkpt lat="45.02067" lon="5.34398">
        <ele>848.2</ele>
      </trkpt>
      <trkpt lat="45.02072" lon="5.34397">
        <ele>846.3</ele>
      </trkpt>
      <trkpt lat="45.02074" lon="5.34389">
        <ele>846.1</ele>
      </trkpt>
      <trkpt lat="45.02075" lon="5.34374">
        <ele>846.8</ele>
      </trkpt>
      <trkpt lat="45.02078" lon="5.34359">
        <ele>846.9</ele>
      </trkpt>
      <trkpt lat="45.02082" lon="5.34338">
        <ele>847.9</ele>
      </trkpt>
      <trkpt lat="45.02083" lon="5.34323">
        <ele>847.8</ele>
      </trkpt>
      <trkpt lat="45.02088" lon="5.34312">
        <ele>845.6</ele>
      </trkpt>
      <trkpt lat="45.02095" lon="5.34311">
        <ele>842.9</ele>
      </trkpt>
      <trkpt lat="45.02096" lon="5.3432">
        <ele>842.7</ele>
      </trkpt>
      <trkpt lat="45.02091" lon="5.34336">
        <ele>844.6</ele>
      </trkpt>
      <trkpt lat="45.02089" lon="5.34351">
        <ele>843.8</ele>
      </trkpt>
      <trkpt lat="45.02089" lon="5.34364">
        <ele>842.7</ele>
      </trkpt>
      <trkpt lat="45.0209" lon="5.34386">
        <ele>840.1</ele>
      </trkpt>
      <trkpt lat="45.02091" lon="5.34405">
        <ele>837.6</ele>
      </trkpt>
      <trkpt lat="45.0209" lon="5.34422">
        <ele>835.8</ele>
      </trkpt>
      <trkpt lat="45.02086" lon="5.34449">
        <ele>834.2</ele>
      </trkpt>
      <trkpt lat="45.02084" lon="5.34472">
        <ele>831.8</ele>
      </trkpt>
      <trkpt lat="45.0208" lon="5.345">
        <ele>829.8</ele>
      </trkpt>
      <trkpt lat="45.0208" lon="5.34521">
        <ele>827.9</ele>
      </trkpt>
      <trkpt lat="45.02077" lon="5.34546">
        <ele>827.4</ele>
      </trkpt>
      <trkpt lat="45.02073" lon="5.34563">
        <ele>828.3</ele>
      </trkpt>
      <trkpt lat="45.0207" lon="5.34577">
        <ele>828.6</ele>
      </trkpt>
      <trkpt lat="45.02066" lon="5.34593">
        <ele>829.2</ele>
      </trkpt>
      <trkpt lat="45.02059" lon="5.34617">
        <ele>829.6</ele>
      </trkpt>
      <trkpt lat="45.02059" lon="5.34634">
        <ele>828</ele>
      </trkpt>
      <trkpt lat="45.02057" lon="5.34652">
        <ele>826.9</ele>
      </trkpt>
      <trkpt lat="45.02055" lon="5.34672">
        <ele>826</ele>
      </trkpt>
      <trkpt lat="45.02051" lon="5.34696">
        <ele>826.7</ele>
      </trkpt>
      <trkpt lat="45.02047" lon="5.34713">
        <ele>827.7</ele>
      </trkpt>
      <trkpt lat="45.0204" lon="5.34726">
        <ele>829.2</ele>
      </trkpt>
      <trkpt lat="45.02048" lon="5.34741">
        <ele>826.3</ele>
      </trkpt>
      <trkpt lat="45.02059" lon="5.3475">
        <ele>823.2</ele>
      </trkpt>
      <trkpt lat="45.02088" lon="5.34735">
        <ele>816.6</ele>
      </trkpt>
      <trkpt lat="45.02115" lon="5.3472">
        <ele>816.4</ele>
      </trkpt>
      <trkpt lat="45.02131" lon="5.34705">
        <ele>814.2</ele>
      </trkpt>
      <trkpt lat="45.02153" lon="5.34687">
        <ele>809.5</ele>
      </trkpt>
      <trkpt lat="45.02172" lon="5.34669">
        <ele>804.8</ele>
      </trkpt>
      <trkpt lat="45.02193" lon="5.34654">
        <ele>806.9</ele>
      </trkpt>
      <trkpt lat="45.02206" lon="5.34639">
        <ele>806.7</ele>
      </trkpt>
      <trkpt lat="45.02224" lon="5.34623">
        <ele>806.4</ele>
      </trkpt>
      <trkpt lat="45.0225" lon="5.34598">
        <ele>803.9</ele>
      </trkpt>
      <trkpt lat="45.02259" lon="5.3459">
        <ele>803.8</ele>
      </trkpt>
      <trkpt lat="45.02278" lon="5.34572">
        <ele>803.6</ele>
      </trkpt>
      <trkpt lat="45.02297" lon="5.34554">
        <ele>802.9</ele>
      </trkpt>
      <trkpt lat="45.02303" lon="5.34548">
        <ele>802.8</ele>
      </trkpt>
      <trkpt lat="45.02309" lon="5.34541">
        <ele>802.2</ele>
      </trkpt>
      <trkpt lat="45.02316" lon="5.34536">
        <ele>802.2</ele>
      </trkpt>
      <trkpt lat="45.02322" lon="5.3453">
        <ele>801.7</ele>
      </trkpt>
      <trkpt lat="45.02328" lon="5.34524">
        <ele>801.4</ele>
      </trkpt>
      <trkpt lat="45.02332" lon="5.3452">
        <ele>801.1</ele>
      </trkpt>
      <trkpt lat="45.02338" lon="5.34515">
        <ele>801</ele>
      </trkpt>
      <trkpt lat="45.02343" lon="5.3451">
        <ele>800.6</ele>
      </trkpt>
      <trkpt lat="45.0235" lon="5.34504">
        <ele>800.3</ele>
      </trkpt>
      <trkpt lat="45.02353" lon="5.34498">
        <ele>799.2</ele>
      </trkpt>
      <trkpt lat="45.02359" lon="5.34491">
        <ele>799</ele>
      </trkpt>
      <trkpt lat="45.02379" lon="5.34463">
        <ele>796.1</ele>
      </trkpt>
      <trkpt lat="45.02389" lon="5.3445">
        <ele>795.2</ele>
      </trkpt>
      <trkpt lat="45.02395" lon="5.3444">
        <ele>794.2</ele>
      </trkpt>
      <trkpt lat="45.02405" lon="5.34424">
        <ele>792.8</ele>
      </trkpt>
      <trkpt lat="45.02424" lon="5.34401">
        <ele>791.1</ele>
      </trkpt>
      <trkpt lat="45.02437" lon="5.34384">
        <ele>788.9</ele>
      </trkpt>
      <trkpt lat="45.02446" lon="5.34371">
        <ele>787.2</ele>
      </trkpt>
      <trkpt lat="45.02454" lon="5.34351">
        <ele>785</ele>
      </trkpt>
      <trkpt lat="45.02463" lon="5.34342">
        <ele>784.7</ele>
      </trkpt>
      <trkpt lat="45.0247" lon="5.34346">
        <ele>786</ele>
      </trkpt>
      <trkpt lat="45.02484" lon="5.34368">
        <ele>789.7</ele>
      </trkpt>
      <trkpt lat="45.02493" lon="5.34374">
        <ele>790.9</ele>
      </trkpt>
      <trkpt lat="45.02499" lon="5.34365">
        <ele>790.6</ele>
      </trkpt>
      <trkpt lat="45.02508" lon="5.34341">
        <ele>787.6</ele>
      </trkpt>
      <trkpt lat="45.02514" lon="5.34317">
        <ele>784.8</ele>
      </trkpt>
      <trkpt lat="45.02519" lon="5.34309">
        <ele>783.5</ele>
      </trkpt>
      <trkpt lat="45.02525" lon="5.34309">
        <ele>782.9</ele>
      </trkpt>
      <trkpt lat="45.02525" lon="5.34294">
        <ele>781.8</ele>
      </trkpt>
      <trkpt lat="45.02523" lon="5.34286">
        <ele>781.3</ele>
      </trkpt>
      <trkpt lat="45.02518" lon="5.34276">
        <ele>781</ele>
      </trkpt>
      <trkpt lat="45.02514" lon="5.34276">
        <ele>781.3</ele>
      </trkpt>
      <trkpt lat="45.02507" lon="5.34289">
        <ele>783.1</ele>
      </trkpt>
      <trkpt lat="45.02487" lon="5.34299">
        <ele>782.7</ele>
      </trkpt>
      <trkpt lat="45.02477" lon="5.343">
        <ele>781.5</ele>
      </trkpt>
      <trkpt lat="45.02454" lon="5.34293">
        <ele>777.3</ele>
      </trkpt>
      <trkpt lat="45.02435" lon="5.34273">
        <ele>771.5</ele>
      </trkpt>
      <trkpt lat="45.02421" lon="5.34268">
        <ele>768.4</ele>
      </trkpt>
      <trkpt lat="45.02404" lon="5.34279">
        <ele>766.9</ele>
      </trkpt>
      <trkpt lat="45.02379" lon="5.3431">
        <ele>765.9</ele>
      </trkpt>
      <trkpt lat="45.02356" lon="5.3433">
        <ele>763.1</ele>
      </trkpt>
      <trkpt lat="45.02333" lon="5.34344">
        <ele>760.1</ele>
      </trkpt>
      <trkpt lat="45.02313" lon="5.3435">
        <ele>763.9</ele>
      </trkpt>
      <trkpt lat="45.02298" lon="5.34352">
        <ele>766.1</ele>
      </trkpt>
      <trkpt lat="45.02293" lon="5.34345">
        <ele>766.1</ele>
      </trkpt>
      <trkpt lat="45.02289" lon="5.34332">
        <ele>766</ele>
      </trkpt>
      <trkpt lat="45.02288" lon="5.34315">
        <ele>765.4</ele>
      </trkpt>
      <trkpt lat="45.02288" lon="5.34302">
        <ele>765</ele>
      </trkpt>
      <trkpt lat="45.02293" lon="5.34279">
        <ele>763</ele>
      </trkpt>
      <trkpt lat="45.023" lon="5.34252">
        <ele>759.7</ele>
      </trkpt>
      <trkpt lat="45.02307" lon="5.34196">
        <ele>745.5</ele>
      </trkpt>
      <trkpt lat="45.02302" lon="5.34175">
        <ele>743.2</ele>
      </trkpt>
      <trkpt lat="45.02265" lon="5.34112">
        <ele>733.8</ele>
      </trkpt>
      <trkpt lat="45.02304" lon="5.34135">
        <ele>726.3</ele>
      </trkpt>
      <trkpt lat="45.0228" lon="5.34106">
        <ele>724.3</ele>
      </trkpt>
      <trkpt lat="45.0228" lon="5.34099">
        <ele>721.1</ele>
      </trkpt>
      <trkpt lat="45.0227" lon="5.34087">
        <ele>720.1</ele>
      </trkpt>
      <trkpt lat="45.02259" lon="5.34061">
        <ele>710.3</ele>
      </trkpt>
      <trkpt lat="45.02257" lon="5.34052">
        <ele>706.1</ele>
      </trkpt>
      <trkpt lat="45.02264" lon="5.34053">
        <ele>703.3</ele>
      </trkpt>
      <trkpt lat="45.02262" lon="5.34045">
        <ele>699.5</ele>
      </trkpt>
      <trkpt lat="45.02256" lon="5.34038">
        <ele>698.2</ele>
      </trkpt>
      <trkpt lat="45.02244" lon="5.3403">
        <ele>697.1</ele>
      </trkpt>
      <trkpt lat="45.02198" lon="5.3401">
        <ele>692.1</ele>
      </trkpt>
      <trkpt lat="45.02173" lon="5.3399">
        <ele>682.3</ele>
      </trkpt>
      <trkpt lat="45.02198" lon="5.33994">
        <ele>681</ele>
      </trkpt>
      <trkpt lat="45.02198" lon="5.33988">
        <ele>677.7</ele>
      </trkpt>
      <trkpt lat="45.02174" lon="5.33977">
        <ele>674.9</ele>
      </trkpt>
      <trkpt lat="45.02164" lon="5.33971">
        <ele>673.9</ele>
      </trkpt>
      <trkpt lat="45.02153" lon="5.33953">
        <ele>668.2</ele>
      </trkpt>
      <trkpt lat="45.0212" lon="5.33912">
        <ele>660.6</ele>
      </trkpt>
      <trkpt lat="45.021" lon="5.33878">
        <ele>653.9</ele>
      </trkpt>
      <trkpt lat="45.02103" lon="5.3387">
        <ele>648.1</ele>
      </trkpt>
      <trkpt lat="45.02114" lon="5.33881">
        <ele>647.8</ele>
      </trkpt>
      <trkpt lat="45.02128" lon="5.33897">
        <ele>648.9</ele>
      </trkpt>
      <trkpt lat="45.02153" lon="5.3391">
        <ele>644.7</ele>
      </trkpt>
      <trkpt lat="45.02163" lon="5.3391">
        <ele>639.8</ele>
      </trkpt>
      <trkpt lat="45.02188" lon="5.33918">
        <ele>638.6</ele>
      </trkpt>
      <trkpt lat="45.02199" lon="5.33924">
        <ele>639.6</ele>
      </trkpt>
      <trkpt lat="45.02214" lon="5.33915">
        <ele>631.1</ele>
      </trkpt>
      <trkpt lat="45.02227" lon="5.33915">
        <ele>628.8</ele>
      </trkpt>
      <trkpt lat="45.02245" lon="5.33918">
        <ele>627.1</ele>
      </trkpt>
      <trkpt lat="45.02249" lon="5.33925">
        <ele>630.7</ele>
      </trkpt>
      <trkpt lat="45.02265" lon="5.33928">
        <ele>626.9</ele>
      </trkpt>
      <trkpt lat="45.02275" lon="5.33919">
        <ele>618.4</ele>
      </trkpt>
      <trkpt lat="45.02283" lon="5.33905">
        <ele>607.6</ele>
      </trkpt>
      <trkpt lat="45.02293" lon="5.339">
        <ele>601.3</ele>
      </trkpt>
      <trkpt lat="45.02303" lon="5.33902">
        <ele>599.4</ele>
      </trkpt>
      <trkpt lat="45.02307" lon="5.33902">
        <ele>598.1</ele>
      </trkpt>
      <trkpt lat="45.02301" lon="5.33886">
        <ele>590.8</ele>
      </trkpt>
      <trkpt lat="45.02291" lon="5.33881">
        <ele>591.3</ele>
      </trkpt>
      <trkpt lat="45.02281" lon="5.33873">
        <ele>589.6</ele>
      </trkpt>
      <trkpt lat="45.02279" lon="5.33859">
        <ele>582.3</ele>
      </trkpt>
      <trkpt lat="45.02235" lon="5.33858">
        <ele>593.7</ele>
      </trkpt>
      <trkpt lat="45.02255" lon="5.33837">
        <ele>576.7</ele>
      </trkpt>
      <trkpt lat="45.02236" lon="5.33833">
        <ele>578.5</ele>
      </trkpt>
      <trkpt lat="45.02241" lon="5.33822">
        <ele>570.1</ele>
      </trkpt>
      <trkpt lat="45.02219" lon="5.3382">
        <ele>573.7</ele>
      </trkpt>
      <trkpt lat="45.02205" lon="5.33821">
        <ele>577</ele>
      </trkpt>
      <trkpt lat="45.02218" lon="5.33813">
        <ele>569</ele>
      </trkpt>
      <trkpt lat="45.02215" lon="5.33809">
        <ele>566.7</ele>
      </trkpt>
      <trkpt lat="45.02209" lon="5.33811">
        <ele>569.5</ele>
      </trkpt>
      <trkpt lat="45.02211" lon="5.33798">
        <ele>560.2</ele>
      </trkpt>
      <trkpt lat="45.02194" lon="5.33794">
        <ele>560.5</ele>
      </trkpt>
      <trkpt lat="45.02183" lon="5.33791">
        <ele>560.7</ele>
      </trkpt>
      <trkpt lat="45.02184" lon="5.33778">
        <ele>551.3</ele>
      </trkpt>
      <trkpt lat="45.02181" lon="5.3377">
        <ele>545.7</ele>
      </trkpt>
      <trkpt lat="45.02192" lon="5.33767">
        <ele>542.1</ele>
      </trkpt>
      <trkpt lat="45.02181" lon="5.33753">
        <ele>533.6</ele>
      </trkpt>
      <trkpt lat="45.02185" lon="5.33749">
        <ele>530.7</ele>
      </trkpt>
      <trkpt lat="45.02191" lon="5.33748">
        <ele>529.6</ele>
      </trkpt>
      <trkpt lat="45.02195" lon="5.33753">
        <ele>531.6</ele>
      </trkpt>
      <trkpt lat="45.02201" lon="5.33749">
        <ele>528</ele>
      </trkpt>
      <trkpt lat="45.02198" lon="5.33735">
        <ele>522.7</ele>
      </trkpt>
      <trkpt lat="45.02189" lon="5.3373">
        <ele>522.6</ele>
      </trkpt>
      <trkpt lat="45.02179" lon="5.33726">
        <ele>523.1</ele>
      </trkpt>
      <trkpt lat="45.02172" lon="5.33711">
        <ele>519.2</ele>
      </trkpt>
      <trkpt lat="45.02172" lon="5.33682">
        <ele>508.6</ele>
      </trkpt>
      <trkpt lat="45.02174" lon="5.33667">
        <ele>502.8</ele>
      </trkpt>
      <trkpt lat="45.02177" lon="5.33656">
        <ele>499.4</ele>
      </trkpt>
      <trkpt lat="45.02177" lon="5.33648">
        <ele>497.7</ele>
      </trkpt>
      <trkpt lat="45.02181" lon="5.33638">
        <ele>494.6</ele>
      </trkpt>
      <trkpt lat="45.0218" lon="5.33628">
        <ele>492.8</ele>
      </trkpt>
      <trkpt lat="45.02182" lon="5.33614">
        <ele>489.3</ele>
      </trkpt>
      <trkpt lat="45.02179" lon="5.33598">
        <ele>487.3</ele>
      </trkpt>
      <trkpt lat="45.02169" lon="5.33569">
        <ele>486.1</ele>
      </trkpt>
      <trkpt lat="45.02164" lon="5.33549">
        <ele>484</ele>
      </trkpt>
      <trkpt lat="45.02154" lon="5.33506">
        <ele>479.3</ele>
      </trkpt>
      <trkpt lat="45.02148" lon="5.33489">
        <ele>478.4</ele>
      </trkpt>
      <trkpt lat="45.02146" lon="5.33483">
        <ele>478.4</ele>
      </trkpt>
      <trkpt lat="45.02133" lon="5.33451">
        <ele>478.6</ele>
      </trkpt>
      <trkpt lat="45.0213" lon="5.33434">
        <ele>477</ele>
      </trkpt>
      <trkpt lat="45.02129" lon="5.33423">
        <ele>475.3</ele>
      </trkpt>
      <trkpt lat="45.0213" lon="5.33398">
        <ele>472.1</ele>
      </trkpt>
      <trkpt lat="45.02127" lon="5.33376">
        <ele>470.6</ele>
      </trkpt>
      <trkpt lat="45.02162" lon="5.33405">
        <ele>459.2</ele>
      </trkpt>
      <trkpt lat="45.02173" lon="5.33403">
        <ele>454.8</ele>
      </trkpt>
      <trkpt lat="45.02182" lon="5.33407">
        <ele>452.4</ele>
      </trkpt>
      <trkpt lat="45.02196" lon="5.33413">
        <ele>448.7</ele>
      </trkpt>
      <trkpt lat="45.02206" lon="5.33428">
        <ele>447.4</ele>
      </trkpt>
      <trkpt lat="45.02209" lon="5.33448">
        <ele>449.3</ele>
      </trkpt>
      <trkpt lat="45.0223" lon="5.33481">
        <ele>445.9</ele>
      </trkpt>
      <trkpt lat="45.02243" lon="5.33495">
        <ele>442.9</ele>
      </trkpt>
      <trkpt lat="45.02259" lon="5.33503">
        <ele>438.9</ele>
      </trkpt>
      <trkpt lat="45.02278" lon="5.33502">
        <ele>433.4</ele>
      </trkpt>
      <trkpt lat="45.02297" lon="5.33506">
        <ele>428.4</ele>
      </trkpt>
      <trkpt lat="45.02327" lon="5.3355">
        <ele>429.2</ele>
      </trkpt>
      <trkpt lat="45.02338" lon="5.33563">
        <ele>429.9</ele>
      </trkpt>
      <trkpt lat="45.02351" lon="5.33565">
        <ele>428.5</ele>
      </trkpt>
      <trkpt lat="45.02375" lon="5.33576">
        <ele>427.8</ele>
      </trkpt>
      <trkpt lat="45.02394" lon="5.33578">
        <ele>425.7</ele>
      </trkpt>
      <trkpt lat="45.02412" lon="5.33572">
        <ele>421.8</ele>
      </trkpt>
      <trkpt lat="45.02445" lon="5.33551">
        <ele>413.1</ele>
      </trkpt>
      <trkpt lat="45.02458" lon="5.33552">
        <ele>411.9</ele>
      </trkpt>
      <trkpt lat="45.02478" lon="5.33572">
        <ele>414</ele>
      </trkpt>
      <trkpt lat="45.02495" lon="5.33582">
        <ele>414.4</ele>
      </trkpt>
      <trkpt lat="45.02517" lon="5.33578">
        <ele>410.8</ele>
      </trkpt>
      <trkpt lat="45.02532" lon="5.33583">
        <ele>409.7</ele>
      </trkpt>
      <trkpt lat="45.02552" lon="5.336">
        <ele>411.3</ele>
      </trkpt>
      <trkpt lat="45.02565" lon="5.33604">
        <ele>410.7</ele>
      </trkpt>
      <trkpt lat="45.02568" lon="5.33602">
        <ele>409.7</ele>
      </trkpt>
      <trkpt lat="45.02586" lon="5.33626">
        <ele>413.4</ele>
      </trkpt>
      <trkpt lat="45.02666" lon="5.33672">
        <ele>412.2</ele>
      </trkpt>
      <trkpt lat="45.0281" lon="5.33736">
        <ele>410.3</ele>
      </trkpt>
      <trkpt lat="45.02859" lon="5.33748">
        <ele>403.6</ele>
      </trkpt>
      <trkpt lat="45.02866" lon="5.33738">
        <ele>399.9</ele>
      </trkpt>
      <trkpt lat="45.02874" lon="5.33742">
        <ele>399.2</ele>
      </trkpt>
      <trkpt lat="45.02924" lon="5.33802">
        <ele>410.7</ele>
      </trkpt>
      <trkpt lat="45.02994" lon="5.33857">
        <ele>413.9</ele>
      </trkpt>
      <trkpt lat="45.03042" lon="5.33881">
        <ele>407.6</ele>
      </trkpt>
      <trkpt lat="45.03057" lon="5.33898">
        <ele>408.5</ele>
      </trkpt>
      <trkpt lat="45.03187" lon="5.33999">
        <ele>396.5</ele>
      </trkpt>
      <trkpt lat="45.03232" lon="5.34036">
        <ele>389.6</ele>
      </trkpt>
      <trkpt lat="45.03263" lon="5.34047">
        <ele>379.8</ele>
      </trkpt>
      <trkpt lat="45.0329" lon="5.34082">
        <ele>375.4</ele>
      </trkpt>
      <trkpt lat="45.03303" lon="5.34137">
        <ele>384.4</ele>
      </trkpt>
      <trkpt lat="45.03339" lon="5.34204">
        <ele>388.2</ele>
      </trkpt>
      <trkpt lat="45.03395" lon="5.34264">
        <ele>388.4</ele>
      </trkpt>
      <trkpt lat="45.03424" lon="5.34255">
        <ele>379.2</ele>
      </trkpt>
      <trkpt lat="45.03441" lon="5.34168">
        <ele>355.1</ele>
      </trkpt>
      <trkpt lat="45.03486" lon="5.34163">
        <ele>350.3</ele>
      </trkpt>
      <trkpt lat="45.03557" lon="5.34194">
        <ele>352.6</ele>
      </trkpt>
      <trkpt lat="45.03631" lon="5.34201">
        <ele>354</ele>
      </trkpt>
      <trkpt lat="45.03703" lon="5.34179">
        <ele>348.9</ele>
      </trkpt>
      <trkpt lat="45.0375" lon="5.34193">
        <ele>352.7</ele>
      </trkpt>
      <trkpt lat="45.03777" lon="5.34178">
        <ele>347.8</ele>
      </trkpt>
      <trkpt lat="45.03841" lon="5.34211">
        <ele>352.3</ele>
      </trkpt>
      <trkpt lat="45.03913" lon="5.34217">
        <ele>349.9</ele>
      </trkpt>
      <trkpt lat="45.03947" lon="5.34217">
        <ele>349.5</ele>
      </trkpt>
      <trkpt lat="45.03986" lon="5.3423">
        <ele>351.8</ele>
      </trkpt>
      <trkpt lat="45.04018" lon="5.3426">
        <ele>355.8</ele>
      </trkpt>
      <trkpt lat="45.04032" lon="5.34274">
        <ele>356.6</ele>
      </trkpt>
      <trkpt lat="45.04046" lon="5.34284">
        <ele>356.6</ele>
      </trkpt>
      <trkpt lat="45.04076" lon="5.34285">
        <ele>353</ele>
      </trkpt>
      <trkpt lat="45.04098" lon="5.34279">
        <ele>349</ele>
      </trkpt>
      <trkpt lat="45.04149" lon="5.34322">
        <ele>347.8</ele>
      </trkpt>
      <trkpt lat="45.04278" lon="5.34317">
        <ele>335.4</ele>
      </trkpt>
      <trkpt lat="45.04351" lon="5.34334">
        <ele>327.6</ele>
      </trkpt>
      <trkpt lat="45.04448" lon="5.34387">
        <ele>322.1</ele>
      </trkpt>
      <trkpt lat="45.04493" lon="5.34413">
        <ele>319.5</ele>
      </trkpt>
      <trkpt lat="45.04503" lon="5.34419">
        <ele>319</ele>
      </trkpt>
      <trkpt lat="45.04619" lon="5.34474">
        <ele>307.1</ele>
      </trkpt>
      <trkpt lat="45.04624" lon="5.34434">
        <ele>304.1</ele>
      </trkpt>
      <trkpt lat="45.04631" lon="5.34409">
        <ele>302.2</ele>
      </trkpt>
      <trkpt lat="45.04649" lon="5.34365">
        <ele>300.7</ele>
      </trkpt>
      <trkpt lat="45.04684" lon="5.3441">
        <ele>295</ele>
      </trkpt>
      <trkpt lat="45.04688" lon="5.34408">
        <ele>294.5</ele>
      </trkpt>
      <trkpt lat="45.0474" lon="5.34336">
        <ele>291.1</ele>
      </trkpt>
      <trkpt lat="45.04752" lon="5.34331">
        <ele>289.9</ele>
      </trkpt>
      <trkpt lat="45.04794" lon="5.34355">
        <ele>283.6</ele>
      </trkpt>
      <trkpt lat="45.04834" lon="5.34364">
        <ele>278.3</ele>
      </trkpt>
      <trkpt lat="45.04875" lon="5.34346">
        <ele>272.6</ele>
      </trkpt>
      <trkpt lat="45.04906" lon="5.34317">
        <ele>270.9</ele>
      </trkpt>
      <trkpt lat="45.0494" lon="5.34278">
        <ele>271.1</ele>
      </trkpt>
      <trkpt lat="45.04959" lon="5.34267">
        <ele>271.1</ele>
      </trkpt>
      <trkpt lat="45.04971" lon="5.3426">
        <ele>271.5</ele>
      </trkpt>
      <trkpt lat="45.05038" lon="5.34245">
        <ele>269.5</ele>
      </trkpt>
      <trkpt lat="45.05063" lon="5.3424">
        <ele>268.2</ele>
      </trkpt>
      <trkpt lat="45.05099" lon="5.34238">
        <ele>267.1</ele>
      </trkpt>
      <trkpt lat="45.05123" lon="5.34238">
        <ele>267.4</ele>
      </trkpt>
      <trkpt lat="45.05155" lon="5.34241">
        <ele>267.5</ele>
      </trkpt>
      <trkpt lat="45.05161" lon="5.34238">
        <ele>267.8</ele>
      </trkpt>
      <trkpt lat="45.05172" lon="5.34226">
        <ele>268.7</ele>
      </trkpt>
      <trkpt lat="45.05181" lon="5.34227">
        <ele>268.5</ele>
      </trkpt>
      <trkpt lat="45.05189" lon="5.34226">
        <ele>268.5</ele>
      </trkpt>
      <trkpt lat="45.05235" lon="5.34206">
        <ele>269.3</ele>
      </trkpt>
      <trkpt lat="45.05266" lon="5.34193">
        <ele>268.9</ele>
      </trkpt>
      <trkpt lat="45.05299" lon="5.34181">
        <ele>268.2</ele>
      </trkpt>
      <trkpt lat="45.05312" lon="5.34176">
        <ele>268.2</ele>
      </trkpt>
      <trkpt lat="45.05334" lon="5.34169">
        <ele>268.5</ele>
      </trkpt>
      <trkpt lat="45.05368" lon="5.34158">
        <ele>267.3</ele>
      </trkpt>
      <trkpt lat="45.05422" lon="5.34138">
        <ele>266.2</ele>
      </trkpt>
      <trkpt lat="45.05489" lon="5.34111">
        <ele>262.7</ele>
      </trkpt>
      <trkpt lat="45.05509" lon="5.34108">
        <ele>261.7</ele>
      </trkpt>
      <trkpt lat="45.05522" lon="5.34104">
        <ele>261.7</ele>
      </trkpt>
      <trkpt lat="45.05534" lon="5.34098">
        <ele>262.1</ele>
      </trkpt>
      <trkpt lat="45.05555" lon="5.34091">
        <ele>262.5</ele>
      </trkpt>
      <trkpt lat="45.05576" lon="5.34088">
        <ele>262.3</ele>
      </trkpt>
      <trkpt lat="45.05601" lon="5.34082">
        <ele>259.3</ele>
      </trkpt>
      <trkpt lat="45.05608" lon="5.34078">
        <ele>258.1</ele>
      </trkpt>
      <trkpt lat="45.05614" lon="5.34074">
        <ele>257.4</ele>
      </trkpt>
      <trkpt lat="45.0562" lon="5.34063">
        <ele>257.6</ele>
      </trkpt>
      <trkpt lat="45.05629" lon="5.34047">
        <ele>258.6</ele>
      </trkpt>
      <trkpt lat="45.05635" lon="5.34039">
        <ele>258.9</ele>
      </trkpt>
      <trkpt lat="45.05656" lon="5.3402">
        <ele>260.4</ele>
      </trkpt>
      <trkpt lat="45.05755" lon="5.33975">
        <ele>257.4</ele>
      </trkpt>
      <trkpt lat="45.05772" lon="5.33978">
        <ele>257.3</ele>
      </trkpt>
      <trkpt lat="45.05802" lon="5.33989">
        <ele>256.9</ele>
      </trkpt>
      <trkpt lat="45.05815" lon="5.33995">
        <ele>256.8</ele>
      </trkpt>
      <trkpt lat="45.05829" lon="5.34006">
        <ele>255.2</ele>
      </trkpt>
      <trkpt lat="45.05854" lon="5.34021">
        <ele>251.7</ele>
      </trkpt>
      <trkpt lat="45.05879" lon="5.34025">
        <ele>251</ele>
      </trkpt>
      <trkpt lat="45.05892" lon="5.34028">
        <ele>250.3</ele>
      </trkpt>
      <trkpt lat="45.0591" lon="5.34044">
        <ele>246.8</ele>
      </trkpt>
      <trkpt lat="45.05924" lon="5.3405">
        <ele>244.7</ele>
      </trkpt>
      <trkpt lat="45.05931" lon="5.34049">
        <ele>244.3</ele>
      </trkpt>
      <trkpt lat="45.05954" lon="5.34034">
        <ele>245.2</ele>
      </trkpt>
      <trkpt lat="45.05971" lon="5.34031">
        <ele>243.9</ele>
      </trkpt>
      <trkpt lat="45.05986" lon="5.34056">
        <ele>238.1</ele>
      </trkpt>
      <trkpt lat="45.06013" lon="5.3411">
        <ele>227.3</ele>
      </trkpt>
      <trkpt lat="45.05989" lon="5.34137">
        <ele>224.1</ele>
      </trkpt>
      <trkpt lat="45.05971" lon="5.34162">
        <ele>219.5</ele>
      </trkpt>
      <trkpt lat="45.05967" lon="5.34178">
        <ele>216.8</ele>
      </trkpt>
      <trkpt lat="45.05958" lon="5.34193">
        <ele>214.3</ele>
      </trkpt>
      <trkpt lat="45.05958" lon="5.34204">
        <ele>212.7</ele>
      </trkpt>
      <trkpt lat="45.05957" lon="5.34214">
        <ele>211.2</ele>
      </trkpt>
      <trkpt lat="45.05958" lon="5.34228">
        <ele>209</ele>
      </trkpt>
      <trkpt lat="45.0596" lon="5.3424">
        <ele>207</ele>
      </trkpt>
      <trkpt lat="45.05964" lon="5.34246">
        <ele>206.1</ele>
      </trkpt>
      <trkpt lat="45.05968" lon="5.3425">
        <ele>205.5</ele>
      </trkpt>
      <trkpt lat="45.05969" lon="5.34252">
        <ele>205.3</ele>
      </trkpt>
      <trkpt lat="45.0597" lon="5.34258">
        <ele>205.1</ele>
      </trkpt>
      <trkpt lat="45.05973" lon="5.34281">
        <ele>204.2</ele>
      </trkpt>
      <trkpt lat="45.05974" lon="5.3429">
        <ele>203.9</ele>
      </trkpt>
      <trkpt lat="45.05974" lon="5.34302">
        <ele>203.5</ele>
      </trkpt>
      <trkpt lat="45.05976" lon="5.34306">
        <ele>203.4</ele>
      </trkpt>
      <trkpt lat="45.0598" lon="5.34309">
        <ele>203.3</ele>
      </trkpt>
      <trkpt lat="45.05983" lon="5.34315">
        <ele>203.2</ele>
      </trkpt>
      <trkpt lat="45.06001" lon="5.34342">
        <ele>203.2</ele>
      </trkpt>
      <trkpt lat="45.06013" lon="5.34352">
        <ele>203</ele>
      </trkpt>
      <trkpt lat="45.06024" lon="5.34342">
        <ele>202.3</ele>
      </trkpt>
      <trkpt lat="45.06041" lon="5.34337">
        <ele>201.6</ele>
      </trkpt>
      <trkpt lat="45.06029" lon="5.34358">
        <ele>202.5</ele>
      </trkpt>
      <trkpt lat="45.06027" lon="5.34405">
        <ele>203.7</ele>
      </trkpt>
      <trkpt lat="45.06035" lon="5.34436">
        <ele>206.1</ele>
      </trkpt>
      <trkpt lat="45.06028" lon="5.34471">
        <ele>211.1</ele>
      </trkpt>
      <trkpt lat="45.06025" lon="5.34518">
        <ele>218</ele>
      </trkpt>
      <trkpt lat="45.06026" lon="5.34554">
        <ele>223.3</ele>
      </trkpt>
      <trkpt lat="45.06031" lon="5.34573">
        <ele>225.2</ele>
      </trkpt>
      <trkpt lat="45.06031" lon="5.3459">
        <ele>228</ele>
      </trkpt>
      <trkpt lat="45.06027" lon="5.34591">
        <ele>229</ele>
      </trkpt>
      <trkpt lat="45.06027" lon="5.34586">
        <ele>228</ele>
      </trkpt>
      <trkpt lat="45.0602" lon="5.34581">
        <ele>228.3</ele>
      </trkpt>
      <trkpt lat="45.06017" lon="5.34593">
        <ele>230.9</ele>
      </trkpt>
      <trkpt lat="45.06012" lon="5.34591">
        <ele>231.4</ele>
      </trkpt>
      <trkpt lat="45.06011" lon="5.34599">
        <ele>232.9</ele>
      </trkpt>
      <trkpt lat="45.06013" lon="5.34611">
        <ele>234.9</ele>
      </trkpt>
      <trkpt lat="45.06016" lon="5.3462">
        <ele>236.3</ele>
      </trkpt>
      <trkpt lat="45.06022" lon="5.34629">
        <ele>237.3</ele>
      </trkpt>
      <trkpt lat="45.06019" lon="5.34637">
        <ele>239.1</ele>
      </trkpt>
      <trkpt lat="45.06025" lon="5.34649">
        <ele>240.8</ele>
      </trkpt>
      <trkpt lat="45.06028" lon="5.34657">
        <ele>242.3</ele>
      </trkpt>
      <trkpt lat="45.06031" lon="5.34668">
        <ele>244.5</ele>
      </trkpt>
      <trkpt lat="45.06035" lon="5.34679">
        <ele>247.1</ele>
      </trkpt>
      <trkpt lat="45.06039" lon="5.34693">
        <ele>250.4</ele>
      </trkpt>
      <trkpt lat="45.06043" lon="5.34726">
        <ele>258.3</ele>
      </trkpt>
      <trkpt lat="45.0604" lon="5.34732">
        <ele>260.2</ele>
      </trkpt>
      <trkpt lat="45.0605" lon="5.34745">
        <ele>261.8</ele>
      </trkpt>
      <trkpt lat="45.06069" lon="5.34782">
        <ele>280.1</ele>
      </trkpt>
      <trkpt lat="45.06074" lon="5.34793">
        <ele>285.8</ele>
      </trkpt>
      <trkpt lat="45.06078" lon="5.34802">
        <ele>291.1</ele>
      </trkpt>
      <trkpt lat="45.06083" lon="5.34813">
        <ele>296.2</ele>
      </trkpt>
      <trkpt lat="45.06097" lon="5.3483">
        <ele>302.4</ele>
      </trkpt>
      <trkpt lat="45.06111" lon="5.3485">
        <ele>315.2</ele>
      </trkpt>
      <trkpt lat="45.06153" lon="5.34895">
        <ele>336.7</ele>
      </trkpt>
      <trkpt lat="45.06162" lon="5.34911">
        <ele>344.3</ele>
      </trkpt>
      <trkpt lat="45.06188" lon="5.34933">
        <ele>361.9</ele>
      </trkpt>
      <trkpt lat="45.06221" lon="5.34943">
        <ele>367</ele>
      </trkpt>
      <trkpt lat="45.06251" lon="5.34955">
        <ele>377.1</ele>
      </trkpt>
      <trkpt lat="45.06315" lon="5.34988">
        <ele>428.7</ele>
      </trkpt>
      <trkpt lat="45.06338" lon="5.35001">
        <ele>440.7</ele>
      </trkpt>
      <trkpt lat="45.0636" lon="5.35028">
        <ele>439.3</ele>
      </trkpt>
      <trkpt lat="45.06396" lon="5.35064">
        <ele>418.2</ele>
      </trkpt>
      <trkpt lat="45.06406" lon="5.35087">
        <ele>393.6</ele>
      </trkpt>
      <trkpt lat="45.06452" lon="5.35211">
        <ele>271.8</ele>
      </trkpt>
      <trkpt lat="45.06466" lon="5.35262">
        <ele>266.3</ele>
      </trkpt>
      <trkpt lat="45.06483" lon="5.3533">
        <ele>248.7</ele>
      </trkpt>
      <trkpt lat="45.06484" lon="5.35345">
        <ele>246.4</ele>
      </trkpt>
      <trkpt lat="45.06486" lon="5.35368">
        <ele>244.4</ele>
      </trkpt>
      <trkpt lat="45.06488" lon="5.3538">
        <ele>242.8</ele>
      </trkpt>
      <trkpt lat="45.06491" lon="5.3539">
        <ele>240.4</ele>
      </trkpt>
      <trkpt lat="45.06482" lon="5.35408">
        <ele>244.9</ele>
      </trkpt>
      <trkpt lat="45.06477" lon="5.35425">
        <ele>246.7</ele>
      </trkpt>
      <trkpt lat="45.06474" lon="5.35435">
        <ele>247.6</ele>
      </trkpt>
      <trkpt lat="45.06462" lon="5.35503">
        <ele>250.5</ele>
      </trkpt>
      <trkpt lat="45.06443" lon="5.35567">
        <ele>258.8</ele>
      </trkpt>
      <trkpt lat="45.06433" lon="5.35611">
        <ele>261.7</ele>
      </trkpt>
      <trkpt lat="45.06429" lon="5.35642">
        <ele>262.9</ele>
      </trkpt>
      <trkpt lat="45.06426" lon="5.35704">
        <ele>265.6</ele>
      </trkpt>
      <trkpt lat="45.06445" lon="5.35776">
        <ele>261.6</ele>
      </trkpt>
      <trkpt lat="45.06463" lon="5.35865">
        <ele>258.8</ele>
      </trkpt>
      <trkpt lat="45.06474" lon="5.35902">
        <ele>259.8</ele>
      </trkpt>
      <trkpt lat="45.06488" lon="5.35919">
        <ele>258.3</ele>
      </trkpt>
      <trkpt lat="45.06516" lon="5.35936">
        <ele>254.7</ele>
      </trkpt>
      <trkpt lat="45.06524" lon="5.35951">
        <ele>254.9</ele>
      </trkpt>
      <trkpt lat="45.06525" lon="5.35961">
        <ele>256.1</ele>
      </trkpt>
      <trkpt lat="45.06523" lon="5.35978">
        <ele>258.6</ele>
      </trkpt>
      <trkpt lat="45.06524" lon="5.35996">
        <ele>260.8</ele>
      </trkpt>
      <trkpt lat="45.06545" lon="5.36061">
        <ele>262</ele>
      </trkpt>
      <trkpt lat="45.06548" lon="5.36088">
        <ele>262.8</ele>
      </trkpt>
      <trkpt lat="45.06546" lon="5.36105">
        <ele>262.9</ele>
      </trkpt>
      <trkpt lat="45.06541" lon="5.36117">
        <ele>264.1</ele>
      </trkpt>
      <trkpt lat="45.06533" lon="5.36127">
        <ele>266.6</ele>
      </trkpt>
      <trkpt lat="45.06533" lon="5.36138">
        <ele>266.2</ele>
      </trkpt>
      <trkpt lat="45.06512" lon="5.36186">
        <ele>270</ele>
      </trkpt>
      <trkpt lat="45.06512" lon="5.3622">
        <ele>265.6</ele>
      </trkpt>
      <trkpt lat="45.06501" lon="5.36283">
        <ele>263.1</ele>
      </trkpt>
      <trkpt lat="45.06495" lon="5.36316">
        <ele>264.4</ele>
      </trkpt>
      <trkpt lat="45.06485" lon="5.36343">
        <ele>267.8</ele>
      </trkpt>
      <trkpt lat="45.06466" lon="5.36382">
        <ele>270</ele>
      </trkpt>
      <trkpt lat="45.06442" lon="5.36399">
        <ele>276.4</ele>
      </trkpt>
      <trkpt lat="45.06429" lon="5.36416">
        <ele>276.6</ele>
      </trkpt>
      <trkpt lat="45.06424" lon="5.36434">
        <ele>275.4</ele>
      </trkpt>
      <trkpt lat="45.06427" lon="5.36456">
        <ele>270.8</ele>
      </trkpt>
      <trkpt lat="45.06473" lon="5.36649">
        <ele>255.6</ele>
      </trkpt>
      <trkpt lat="45.06482" lon="5.36686">
        <ele>254.1</ele>
      </trkpt>
      <trkpt lat="45.0648" lon="5.36711">
        <ele>253.7</ele>
      </trkpt>
      <trkpt lat="45.06474" lon="5.36726">
        <ele>254.1</ele>
      </trkpt>
      <trkpt lat="45.06455" lon="5.36744">
        <ele>256.8</ele>
      </trkpt>
      <trkpt lat="45.06449" lon="5.36747">
        <ele>257.6</ele>
      </trkpt>
      <trkpt lat="45.06441" lon="5.36747">
        <ele>259</ele>
      </trkpt>
      <trkpt lat="45.06436" lon="5.36746">
        <ele>259.8</ele>
      </trkpt>
      <trkpt lat="45.06434" lon="5.36761">
        <ele>259.5</ele>
      </trkpt>
      <trkpt lat="45.06431" lon="5.36792">
        <ele>258.3</ele>
      </trkpt>
      <trkpt lat="45.06427" lon="5.36806">
        <ele>258.3</ele>
      </trkpt>
      <trkpt lat="45.06403" lon="5.36853">
        <ele>262.9</ele>
      </trkpt>
      <trkpt lat="45.06398" lon="5.36917">
        <ele>264.3</ele>
      </trkpt>
      <trkpt lat="45.06394" lon="5.36986">
        <ele>262.9</ele>
      </trkpt>
      <trkpt lat="45.06392" lon="5.37023">
        <ele>261.2</ele>
      </trkpt>
      <trkpt lat="45.06377" lon="5.37062">
        <ele>264.8</ele>
      </trkpt>
      <trkpt lat="45.06364" lon="5.37081">
        <ele>269</ele>
      </trkpt>
      <trkpt lat="45.06363" lon="5.37102">
        <ele>269.9</ele>
      </trkpt>
      <trkpt lat="45.06367" lon="5.37118">
        <ele>268.4</ele>
      </trkpt>
      <trkpt lat="45.06368" lon="5.37142">
        <ele>268.5</ele>
      </trkpt>
      <trkpt lat="45.06361" lon="5.37173">
        <ele>272.9</ele>
      </trkpt>
      <trkpt lat="45.06353" lon="5.37204">
        <ele>279.7</ele>
      </trkpt>
      <trkpt lat="45.06357" lon="5.37241">
        <ele>280.7</ele>
      </trkpt>
      <trkpt lat="45.06361" lon="5.37273">
        <ele>278.9</ele>
      </trkpt>
      <trkpt lat="45.06361" lon="5.37324">
        <ele>279.3</ele>
      </trkpt>
      <trkpt lat="45.06363" lon="5.37354">
        <ele>282.7</ele>
      </trkpt>
      <trkpt lat="45.06371" lon="5.37367">
        <ele>282.1</ele>
      </trkpt>
      <trkpt lat="45.06387" lon="5.37383">
        <ele>278.2</ele>
      </trkpt>
      <trkpt lat="45.06397" lon="5.37391">
        <ele>275.4</ele>
      </trkpt>
      <trkpt lat="45.06408" lon="5.37428">
        <ele>280.7</ele>
      </trkpt>
      <trkpt lat="45.06466" lon="5.37475">
        <ele>271.6</ele>
      </trkpt>
      <trkpt lat="45.06493" lon="5.37554">
        <ele>281.2</ele>
      </trkpt>
      <trkpt lat="45.06578" lon="5.37671">
        <ele>280.9</ele>
      </trkpt>
      <trkpt lat="45.06613" lon="5.37729">
        <ele>282.3</ele>
      </trkpt>
      <trkpt lat="45.06643" lon="5.37778">
        <ele>273.1</ele>
      </trkpt>
      <trkpt lat="45.06653" lon="5.37914">
        <ele>281.6</ele>
      </trkpt>
      <trkpt lat="45.06665" lon="5.37955">
        <ele>275.6</ele>
      </trkpt>
      <trkpt lat="45.0665" lon="5.38014">
        <ele>288.8</ele>
      </trkpt>
      <trkpt lat="45.06666" lon="5.38096">
        <ele>289.6</ele>
      </trkpt>
      <trkpt lat="45.06678" lon="5.3824">
        <ele>290.4</ele>
      </trkpt>
      <trkpt lat="45.06679" lon="5.38368">
        <ele>300.8</ele>
      </trkpt>
      <trkpt lat="45.06701" lon="5.3843">
        <ele>293.5</ele>
      </trkpt>
      <trkpt lat="45.06687" lon="5.38475">
        <ele>300.3</ele>
      </trkpt>
      <trkpt lat="45.06646" lon="5.3852">
        <ele>319.8</ele>
      </trkpt>
      <trkpt lat="45.06628" lon="5.38628">
        <ele>314.5</ele>
      </trkpt>
      <trkpt lat="45.06606" lon="5.38712">
        <ele>313.4</ele>
      </trkpt>
      <trkpt lat="45.0656" lon="5.38883">
        <ele>297.8</ele>
      </trkpt>
      <trkpt lat="45.06529" lon="5.38997">
        <ele>300.4</ele>
      </trkpt>
      <trkpt lat="45.06533" lon="5.39101">
        <ele>285.5</ele>
      </trkpt>
      <trkpt lat="45.06534" lon="5.39146">
        <ele>280.5</ele>
      </trkpt>
      <trkpt lat="45.06509" lon="5.39223">
        <ele>278.2</ele>
      </trkpt>
      <trkpt lat="45.06517" lon="5.39221">
        <ele>277.5</ele>
      </trkpt>
      <trkpt lat="45.06524" lon="5.39227">
        <ele>276.3</ele>
      </trkpt>
      <trkpt lat="45.06528" lon="5.39232">
        <ele>275.5</ele>
      </trkpt>
      <trkpt lat="45.06545" lon="5.39248">
        <ele>273.3</ele>
      </trkpt>
      <trkpt lat="45.06557" lon="5.39256">
        <ele>272.8</ele>
      </trkpt>
      <trkpt lat="45.06561" lon="5.39257">
        <ele>272.7</ele>
      </trkpt>
      <trkpt lat="45.06595" lon="5.39258">
        <ele>273</ele>
      </trkpt>
      <trkpt lat="45.06631" lon="5.39262">
        <ele>277.8</ele>
      </trkpt>
      <trkpt lat="45.06639" lon="5.39262">
        <ele>278.6</ele>
      </trkpt>
      <trkpt lat="45.06665" lon="5.39255">
        <ele>280.1</ele>
      </trkpt>
      <trkpt lat="45.06683" lon="5.39252">
        <ele>282</ele>
      </trkpt>
      <trkpt lat="45.06699" lon="5.39251">
        <ele>284.2</ele>
      </trkpt>
      <trkpt lat="45.06695" lon="5.39262">
        <ele>286</ele>
      </trkpt>
      <trkpt lat="45.06687" lon="5.39269">
        <ele>286.4</ele>
      </trkpt>
      <trkpt lat="45.06665" lon="5.39266">
        <ele>282.6</ele>
      </trkpt>
      <trkpt lat="45.06656" lon="5.39267">
        <ele>281.6</ele>
      </trkpt>
      <trkpt lat="45.06645" lon="5.39272">
        <ele>281.4</ele>
      </trkpt>
      <trkpt lat="45.06633" lon="5.39281">
        <ele>281.4</ele>
      </trkpt>
      <trkpt lat="45.06626" lon="5.3929">
        <ele>281.9</ele>
      </trkpt>
      <trkpt lat="45.06598" lon="5.39345">
        <ele>285</ele>
      </trkpt>
      <trkpt lat="45.06569" lon="5.39385">
        <ele>287.2</ele>
      </trkpt>
      <trkpt lat="45.06552" lon="5.39422">
        <ele>288.3</ele>
      </trkpt>
      <trkpt lat="45.06544" lon="5.39462">
        <ele>290.2</ele>
      </trkpt>
      <trkpt lat="45.06544" lon="5.39477">
        <ele>292.3</ele>
      </trkpt>
      <trkpt lat="45.06545" lon="5.39525">
        <ele>297.1</ele>
      </trkpt>
      <trkpt lat="45.0655" lon="5.39612">
        <ele>305.6</ele>
      </trkpt>
      <trkpt lat="45.0655" lon="5.39632">
        <ele>307.9</ele>
      </trkpt>
      <trkpt lat="45.06547" lon="5.39651">
        <ele>308.7</ele>
      </trkpt>
      <trkpt lat="45.06545" lon="5.39662">
        <ele>308.6</ele>
      </trkpt>
      <trkpt lat="45.0654" lon="5.39671">
        <ele>307.9</ele>
      </trkpt>
      <trkpt lat="45.06522" lon="5.39699">
        <ele>305.2</ele>
      </trkpt>
      <trkpt lat="45.06505" lon="5.3973">
        <ele>303.6</ele>
      </trkpt>
      <trkpt lat="45.06499" lon="5.39766">
        <ele>307.4</ele>
      </trkpt>
      <trkpt lat="45.06491" lon="5.39838">
        <ele>317.8</ele>
      </trkpt>
      <trkpt lat="45.06476" lon="5.39897">
        <ele>329</ele>
      </trkpt>
      <trkpt lat="45.06475" lon="5.39933">
        <ele>338.7</ele>
      </trkpt>
      <trkpt lat="45.06467" lon="5.39958">
        <ele>344.2</ele>
      </trkpt>
      <trkpt lat="45.0645" lon="5.39978">
        <ele>346.1</ele>
      </trkpt>
      <trkpt lat="45.0643" lon="5.4">
        <ele>347.3</ele>
      </trkpt>
      <trkpt lat="45.06415" lon="5.40029">
        <ele>353</ele>
      </trkpt>
      <trkpt lat="45.06399" lon="5.4006">
        <ele>359.7</ele>
      </trkpt>
      <trkpt lat="45.06375" lon="5.40099">
        <ele>368.3</ele>
      </trkpt>
      <trkpt lat="45.06351" lon="5.40121">
        <ele>370.2</ele>
      </trkpt>
      <trkpt lat="45.06332" lon="5.40159">
        <ele>376.6</ele>
      </trkpt>
      <trkpt lat="45.06329" lon="5.40179">
        <ele>378</ele>
      </trkpt>
      <trkpt lat="45.06331" lon="5.40209">
        <ele>380</ele>
      </trkpt>
      <trkpt lat="45.06342" lon="5.40256">
        <ele>387.2</ele>
      </trkpt>
      <trkpt lat="45.06352" lon="5.403">
        <ele>396.4</ele>
      </trkpt>
      <trkpt lat="45.06358" lon="5.40345">
        <ele>403.8</ele>
      </trkpt>
      <trkpt lat="45.06359" lon="5.40377">
        <ele>408.3</ele>
      </trkpt>
      <trkpt lat="45.06354" lon="5.40426">
        <ele>412.6</ele>
      </trkpt>
      <trkpt lat="45.0635" lon="5.40463">
        <ele>418.9</ele>
      </trkpt>
      <trkpt lat="45.06339" lon="5.40511">
        <ele>424</ele>
      </trkpt>
      <trkpt lat="45.06323" lon="5.40573">
        <ele>425.3</ele>
      </trkpt>
      <trkpt lat="45.06317" lon="5.40604">
        <ele>426</ele>
      </trkpt>
      <trkpt lat="45.06328" lon="5.40634">
        <ele>435</ele>
      </trkpt>
      <trkpt lat="45.06332" lon="5.40652">
        <ele>438.8</ele>
      </trkpt>
      <trkpt lat="45.06327" lon="5.40671">
        <ele>439.5</ele>
      </trkpt>
      <trkpt lat="45.06324" lon="5.40697">
        <ele>444.3</ele>
      </trkpt>
      <trkpt lat="45.06308" lon="5.40727">
        <ele>445.6</ele>
      </trkpt>
      <trkpt lat="45.06298" lon="5.40758">
        <ele>450</ele>
      </trkpt>
      <trkpt lat="45.06295" lon="5.40779">
        <ele>455.1</ele>
      </trkpt>
      <trkpt lat="45.06291" lon="5.40813">
        <ele>464</ele>
      </trkpt>
      <trkpt lat="45.06304" lon="5.40838">
        <ele>476.1</ele>
      </trkpt>
      <trkpt lat="45.06305" lon="5.40855">
        <ele>481.9</ele>
      </trkpt>
      <trkpt lat="45.06319" lon="5.40891">
        <ele>497.4</ele>
      </trkpt>
      <trkpt lat="45.06323" lon="5.4091">
        <ele>504.2</ele>
      </trkpt>
      <trkpt lat="45.06323" lon="5.40921">
        <ele>507.3</ele>
      </trkpt>
      <trkpt lat="45.06324" lon="5.40932">
        <ele>510.4</ele>
      </trkpt>
      <trkpt lat="45.06325" lon="5.40938">
        <ele>512.3</ele>
      </trkpt>
      <trkpt lat="45.06325" lon="5.40944">
        <ele>513.7</ele>
      </trkpt>
      <trkpt lat="45.06318" lon="5.40956">
        <ele>514.2</ele>
      </trkpt>
      <trkpt lat="45.06315" lon="5.40965">
        <ele>515.7</ele>
      </trkpt>
      <trkpt lat="45.06308" lon="5.40975">
        <ele>515.5</ele>
      </trkpt>
      <trkpt lat="45.06295" lon="5.40999">
        <ele>517.6</ele>
      </trkpt>
      <trkpt lat="45.06289" lon="5.41034">
        <ele>522.1</ele>
      </trkpt>
      <trkpt lat="45.0629" lon="5.41046">
        <ele>525.1</ele>
      </trkpt>
      <trkpt lat="45.06291" lon="5.4106">
        <ele>527.9</ele>
      </trkpt>
      <trkpt lat="45.06288" lon="5.41068">
        <ele>528.3</ele>
      </trkpt>
      <trkpt lat="45.06288" lon="5.41076">
        <ele>529.8</ele>
      </trkpt>
      <trkpt lat="45.06291" lon="5.41083">
        <ele>532.3</ele>
      </trkpt>
      <trkpt lat="45.06296" lon="5.41087">
        <ele>535.3</ele>
      </trkpt>
      <trkpt lat="45.06301" lon="5.41093">
        <ele>538.2</ele>
      </trkpt>
      <trkpt lat="45.06304" lon="5.41109">
        <ele>541</ele>
      </trkpt>
      <trkpt lat="45.06308" lon="5.41119">
        <ele>544.2</ele>
      </trkpt>
      <trkpt lat="45.0631" lon="5.41124">
        <ele>545.4</ele>
      </trkpt>
      <trkpt lat="45.06313" lon="5.41122">
        <ele>547.1</ele>
      </trkpt>
      <trkpt lat="45.06315" lon="5.41119">
        <ele>547.8</ele>
      </trkpt>
      <trkpt lat="45.06321" lon="5.41132">
        <ele>552.5</ele>
      </trkpt>
      <trkpt lat="45.0632" lon="5.41187">
        <ele>553.8</ele>
      </trkpt>
      <trkpt lat="45.06321" lon="5.41243">
        <ele>550.5</ele>
      </trkpt>
      <trkpt lat="45.06322" lon="5.41266">
        <ele>548</ele>
      </trkpt>
      <trkpt lat="45.06326" lon="5.41281">
        <ele>548.2</ele>
      </trkpt>
      <trkpt lat="45.06339" lon="5.41306">
        <ele>551.1</ele>
      </trkpt>
      <trkpt lat="45.06343" lon="5.41314">
        <ele>551.6</ele>
      </trkpt>
      <trkpt lat="45.06344" lon="5.41325">
        <ele>550.3</ele>
      </trkpt>
      <trkpt lat="45.06341" lon="5.4135">
        <ele>547.3</ele>
      </trkpt>
      <trkpt lat="45.06338" lon="5.41377">
        <ele>545.3</ele>
      </trkpt>
      <trkpt lat="45.06336" lon="5.41404">
        <ele>543.6</ele>
      </trkpt>
      <trkpt lat="45.06333" lon="5.41432">
        <ele>541.5</ele>
      </trkpt>
      <trkpt lat="45.06333" lon="5.4145">
        <ele>540.8</ele>
      </trkpt>
      <trkpt lat="45.06334" lon="5.41469">
        <ele>540.5</ele>
      </trkpt>
      <trkpt lat="45.06337" lon="5.41485">
        <ele>541.2</ele>
      </trkpt>
      <trkpt lat="45.06341" lon="5.41501">
        <ele>541.9</ele>
      </trkpt>
      <trkpt lat="45.06357" lon="5.41577">
        <ele>538.8</ele>
      </trkpt>
      <trkpt lat="45.06369" lon="5.41632">
        <ele>538.9</ele>
      </trkpt>
      <trkpt lat="45.06378" lon="5.41688">
        <ele>538.8</ele>
      </trkpt>
      <trkpt lat="45.06381" lon="5.41712">
        <ele>537.2</ele>
      </trkpt>
      <trkpt lat="45.06382" lon="5.41731">
        <ele>535</ele>
      </trkpt>
      <trkpt lat="45.06382" lon="5.41751">
        <ele>532.3</ele>
      </trkpt>
      <trkpt lat="45.06381" lon="5.41769">
        <ele>531.2</ele>
      </trkpt>
      <trkpt lat="45.06379" lon="5.41787">
        <ele>529.5</ele>
      </trkpt>
      <trkpt lat="45.06373" lon="5.4182">
        <ele>525.2</ele>
      </trkpt>
      <trkpt lat="45.06367" lon="5.41837">
        <ele>522</ele>
      </trkpt>
      <trkpt lat="45.06363" lon="5.41851">
        <ele>518.4</ele>
      </trkpt>
      <trkpt lat="45.06359" lon="5.41867">
        <ele>515.1</ele>
      </trkpt>
      <trkpt lat="45.06358" lon="5.41887">
        <ele>512.3</ele>
      </trkpt>
      <trkpt lat="45.06363" lon="5.41911">
        <ele>511.2</ele>
      </trkpt>
      <trkpt lat="45.06375" lon="5.4194">
        <ele>512.4</ele>
      </trkpt>
      <trkpt lat="45.06389" lon="5.41968">
        <ele>514.6</ele>
      </trkpt>
      <trkpt lat="45.06397" lon="5.41988">
        <ele>514.8</ele>
      </trkpt>
      <trkpt lat="45.064" lon="5.42003">
        <ele>513.9</ele>
      </trkpt>
      <trkpt lat="45.06408" lon="5.42039">
        <ele>512.5</ele>
      </trkpt>
      <trkpt lat="45.06424" lon="5.42059">
        <ele>518.6</ele>
      </trkpt>
      <trkpt lat="45.06428" lon="5.42068">
        <ele>520.2</ele>
      </trkpt>
      <trkpt lat="45.0644" lon="5.42092">
        <ele>523.8</ele>
      </trkpt>
      <trkpt lat="45.06454" lon="5.42147">
        <ele>525</ele>
      </trkpt>
      <trkpt lat="45.06457" lon="5.42171">
        <ele>524.6</ele>
      </trkpt>
      <trkpt lat="45.06455" lon="5.42207">
        <ele>523.6</ele>
      </trkpt>
      <trkpt lat="45.06457" lon="5.42218">
        <ele>525</ele>
      </trkpt>
      <trkpt lat="45.0646" lon="5.42235">
        <ele>527.3</ele>
      </trkpt>
      <trkpt lat="45.06465" lon="5.42255">
        <ele>531</ele>
      </trkpt>
      <trkpt lat="45.06467" lon="5.42278">
        <ele>533.1</ele>
      </trkpt>
      <trkpt lat="45.06468" lon="5.42293">
        <ele>534.4</ele>
      </trkpt>
      <trkpt lat="45.06475" lon="5.4232">
        <ele>539.7</ele>
      </trkpt>
      <trkpt lat="45.06474" lon="5.4233">
        <ele>539.5</ele>
      </trkpt>
      <trkpt lat="45.0648" lon="5.42353">
        <ele>542.6</ele>
      </trkpt>
      <trkpt lat="45.06482" lon="5.42365">
        <ele>543.1</ele>
      </trkpt>
      <trkpt lat="45.06484" lon="5.4237">
        <ele>543.7</ele>
      </trkpt>
      <trkpt lat="45.06501" lon="5.42396">
        <ele>553</ele>
      </trkpt>
      <trkpt lat="45.06505" lon="5.42409">
        <ele>553.3</ele>
      </trkpt>
      <trkpt lat="45.06509" lon="5.42415">
        <ele>554.7</ele>
      </trkpt>
      <trkpt lat="45.0651" lon="5.42423">
        <ele>552.4</ele>
      </trkpt>
      <trkpt lat="45.06517" lon="5.4243">
        <ele>554</ele>
      </trkpt>
      <trkpt lat="45.06534" lon="5.42477">
        <ele>548.4</ele>
      </trkpt>
      <trkpt lat="45.0654" lon="5.42484">
        <ele>550.2</ele>
      </trkpt>
      <trkpt lat="45.06546" lon="5.42494">
        <ele>550.9</ele>
      </trkpt>
      <trkpt lat="45.06549" lon="5.42506">
        <ele>548.3</ele>
      </trkpt>
      <trkpt lat="45.06572" lon="5.42538">
        <ele>545.2</ele>
      </trkpt>
      <trkpt lat="45.06577" lon="5.42543">
        <ele>545.2</ele>
      </trkpt>
      <trkpt lat="45.06582" lon="5.42545">
        <ele>547</ele>
      </trkpt>
      <trkpt lat="45.06585" lon="5.42548">
        <ele>547.2</ele>
      </trkpt>
      <trkpt lat="45.06588" lon="5.42553">
        <ele>545.6</ele>
      </trkpt>
      <trkpt lat="45.0659" lon="5.42561">
        <ele>542.2</ele>
      </trkpt>
      <trkpt lat="45.06592" lon="5.42567">
        <ele>540</ele>
      </trkpt>
      <trkpt lat="45.06596" lon="5.42576">
        <ele>537.8</ele>
      </trkpt>
      <trkpt lat="45.06599" lon="5.4258">
        <ele>538.4</ele>
      </trkpt>
      <trkpt lat="45.06603" lon="5.42583">
        <ele>539.4</ele>
      </trkpt>
      <trkpt lat="45.06606" lon="5.42585">
        <ele>541</ele>
      </trkpt>
      <trkpt lat="45.06618" lon="5.42605">
        <ele>548</ele>
      </trkpt>
      <trkpt lat="45.06632" lon="5.42615">
        <ele>556.3</ele>
      </trkpt>
      <trkpt lat="45.06644" lon="5.42625">
        <ele>563.8</ele>
      </trkpt>
      <trkpt lat="45.06657" lon="5.42632">
        <ele>571.1</ele>
      </trkpt>
      <trkpt lat="45.06667" lon="5.42641">
        <ele>576.8</ele>
      </trkpt>
      <trkpt lat="45.06689" lon="5.42653">
        <ele>577.1</ele>
      </trkpt>
      <trkpt lat="45.067" lon="5.42658">
        <ele>577.5</ele>
      </trkpt>
      <trkpt lat="45.06717" lon="5.42686">
        <ele>578.2</ele>
      </trkpt>
      <trkpt lat="45.06722" lon="5.42708">
        <ele>579.2</ele>
      </trkpt>
      <trkpt lat="45.06745" lon="5.4274">
        <ele>581.5</ele>
      </trkpt>
      <trkpt lat="45.06761" lon="5.42774">
        <ele>595.4</ele>
      </trkpt>
      <trkpt lat="45.06771" lon="5.42805">
        <ele>593.8</ele>
      </trkpt>
      <trkpt lat="45.06787" lon="5.42867">
        <ele>580.6</ele>
      </trkpt>
      <trkpt lat="45.06792" lon="5.4288">
        <ele>580.4</ele>
      </trkpt>
      <trkpt lat="45.06817" lon="5.42929">
        <ele>579.9</ele>
      </trkpt>
      <trkpt lat="45.06832" lon="5.42974">
        <ele>579.3</ele>
      </trkpt>
      <trkpt lat="45.06843" lon="5.42998">
        <ele>611.5</ele>
      </trkpt>
      <trkpt lat="45.06847" lon="5.43007">
        <ele>626.4</ele>
      </trkpt>
      <trkpt lat="45.06852" lon="5.4302">
        <ele>639.4</ele>
      </trkpt>
      <trkpt lat="45.06861" lon="5.43064">
        <ele>661.9</ele>
      </trkpt>
      <trkpt lat="45.06872" lon="5.43091">
        <ele>689.6</ele>
      </trkpt>
      <trkpt lat="45.06885" lon="5.43117">
        <ele>719.7</ele>
      </trkpt>
      <trkpt lat="45.06899" lon="5.43138">
        <ele>749.3</ele>
      </trkpt>
      <trkpt lat="45.06903" lon="5.4315">
        <ele>752.8</ele>
      </trkpt>
      <trkpt lat="45.069" lon="5.43175">
        <ele>735.3</ele>
      </trkpt>
      <trkpt lat="45.06898" lon="5.43203">
        <ele>713.9</ele>
      </trkpt>
      <trkpt lat="45.06896" lon="5.43213">
        <ele>704.5</ele>
      </trkpt>
      <trkpt lat="45.069" lon="5.43247">
        <ele>694.3</ele>
      </trkpt>
      <trkpt lat="45.06935" lon="5.43292">
        <ele>740.5</ele>
      </trkpt>
      <trkpt lat="45.06943" lon="5.43298">
        <ele>770.9</ele>
      </trkpt>
      <trkpt lat="45.06951" lon="5.43292">
        <ele>818.6</ele>
      </trkpt>
      <trkpt lat="45.06949" lon="5.43265">
        <ele>839</ele>
      </trkpt>
      <trkpt lat="45.0695" lon="5.43251">
        <ele>857.3</ele>
      </trkpt>
      <trkpt lat="45.06957" lon="5.4324">
        <ele>892.3</ele>
      </trkpt>
      <trkpt lat="45.06974" lon="5.43221">
        <ele>963</ele>
      </trkpt>
      <trkpt lat="45.06983" lon="5.43209">
        <ele>999.7</ele>
      </trkpt>
      <trkpt lat="45.06988" lon="5.43193">
        <ele>1023.2</ele>
      </trkpt>
      <trkpt lat="45.06992" lon="5.43165">
        <ele>1039.2</ele>
      </trkpt>
      <trkpt lat="45.06992" lon="5.43137">
        <ele>1040.2</ele>
      </trkpt>
      <trkpt lat="45.06993" lon="5.43094">
        <ele>1046.3</ele>
      </trkpt>
      <trkpt lat="45.06983" lon="5.43053">
        <ele>1021.2</ele>
      </trkpt>
      <trkpt lat="45.06973" lon="5.4298">
        <ele>1018.3</ele>
      </trkpt>
      <trkpt lat="45.06968" lon="5.42949">
        <ele>1040</ele>
      </trkpt>
      <trkpt lat="45.06971" lon="5.42904">
        <ele>1072.3</ele>
      </trkpt>
      <trkpt lat="45.06972" lon="5.42864">
        <ele>1073.3</ele>
      </trkpt>
      <trkpt lat="45.0696" lon="5.4283">
        <ele>1074.1</ele>
      </trkpt>
      <trkpt lat="45.06943" lon="5.42794">
        <ele>1075.3</ele>
      </trkpt>
      <trkpt lat="45.06912" lon="5.42765">
        <ele>1055</ele>
      </trkpt>
      <trkpt lat="45.06891" lon="5.42747">
        <ele>974.1</ele>
      </trkpt>
      <trkpt lat="45.06884" lon="5.42697">
        <ele>977.3</ele>
      </trkpt>
      <trkpt lat="45.06863" lon="5.42662">
        <ele>941.5</ele>
      </trkpt>
      <trkpt lat="45.06869" lon="5.42653">
        <ele>959.3</ele>
      </trkpt>
      <trkpt lat="45.06881" lon="5.42667">
        <ele>990.2</ele>
      </trkpt>
      <trkpt lat="45.06894" lon="5.42659">
        <ele>1025.7</ele>
      </trkpt>
      <trkpt lat="45.06897" lon="5.42623">
        <ele>1037.6</ele>
      </trkpt>
      <trkpt lat="45.06902" lon="5.42639">
        <ele>1048.3</ele>
      </trkpt>
      <trkpt lat="45.06905" lon="5.42654">
        <ele>1057.2</ele>
      </trkpt>
      <trkpt lat="45.0691" lon="5.42654">
        <ele>1068.4</ele>
      </trkpt>
      <trkpt lat="45.06922" lon="5.42649">
        <ele>1087</ele>
      </trkpt>
      <trkpt lat="45.06938" lon="5.42642">
        <ele>1085.8</ele>
      </trkpt>
      <trkpt lat="45.06954" lon="5.42665">
        <ele>1083.1</ele>
      </trkpt>
      <trkpt lat="45.06965" lon="5.42687">
        <ele>1080.3</ele>
      </trkpt>
      <trkpt lat="45.06972" lon="5.42678">
        <ele>1080.3</ele>
      </trkpt>
      <trkpt lat="45.06979" lon="5.42671">
        <ele>1080</ele>
      </trkpt>
      <trkpt lat="45.06995" lon="5.42662">
        <ele>1079</ele>
      </trkpt>
      <trkpt lat="45.07006" lon="5.42692">
        <ele>1076.6</ele>
      </trkpt>
      <trkpt lat="45.07018" lon="5.42707">
        <ele>1075.6</ele>
      </trkpt>
      <trkpt lat="45.07028" lon="5.42715">
        <ele>1075.1</ele>
      </trkpt>
      <trkpt lat="45.07032" lon="5.42728">
        <ele>1074.6</ele>
      </trkpt>
      <trkpt lat="45.07033" lon="5.42753">
        <ele>1074</ele>
      </trkpt>
      <trkpt lat="45.07036" lon="5.42781">
        <ele>1074.2</ele>
      </trkpt>
      <trkpt lat="45.0704" lon="5.428">
        <ele>1074.3</ele>
      </trkpt>
      <trkpt lat="45.07045" lon="5.42839">
        <ele>1074.3</ele>
      </trkpt>
      <trkpt lat="45.07058" lon="5.42864">
        <ele>1073.1</ele>
      </trkpt>
      <trkpt lat="45.07073" lon="5.42864">
        <ele>1073.1</ele>
      </trkpt>
      <trkpt lat="45.07086" lon="5.42848">
        <ele>1074.2</ele>
      </trkpt>
      <trkpt lat="45.07093" lon="5.42831">
        <ele>1075.1</ele>
      </trkpt>
      <trkpt lat="45.07105" lon="5.42824">
        <ele>1075.4</ele>
      </trkpt>
      <trkpt lat="45.07111" lon="5.42811">
        <ele>1075.8</ele>
      </trkpt>
      <trkpt lat="45.07123" lon="5.42803">
        <ele>1076.5</ele>
      </trkpt>
      <trkpt lat="45.07137" lon="5.42788">
        <ele>1077.9</ele>
      </trkpt>
      <trkpt lat="45.07148" lon="5.42794">
        <ele>1078.3</ele>
      </trkpt>
      <trkpt lat="45.07159" lon="5.42793">
        <ele>1078.9</ele>
      </trkpt>
      <trkpt lat="45.07164" lon="5.42795">
        <ele>1079.1</ele>
      </trkpt>
      <trkpt lat="45.07166" lon="5.42798">
        <ele>1078.9</ele>
      </trkpt>
      <trkpt lat="45.07186" lon="5.4285">
        <ele>1073.7</ele>
      </trkpt>
      <trkpt lat="45.07213" lon="5.42884">
        <ele>1070.2</ele>
      </trkpt>
      <trkpt lat="45.07221" lon="5.42892">
        <ele>1069.4</ele>
      </trkpt>
      <trkpt lat="45.07232" lon="5.42896">
        <ele>1068.8</ele>
      </trkpt>
      <trkpt lat="45.07238" lon="5.42882">
        <ele>1069.5</ele>
      </trkpt>
      <trkpt lat="45.07247" lon="5.42874">
        <ele>1069.7</ele>
      </trkpt>
      <trkpt lat="45.07269" lon="5.42869">
        <ele>1071.1</ele>
      </trkpt>
      <trkpt lat="45.07285" lon="5.4287">
        <ele>1071.9</ele>
      </trkpt>
      <trkpt lat="45.07306" lon="5.42889">
        <ele>1071.8</ele>
      </trkpt>
      <trkpt lat="45.07337" lon="5.4292">
        <ele>1071.4</ele>
      </trkpt>
      <trkpt lat="45.07373" lon="5.42962">
        <ele>1073.3</ele>
      </trkpt>
      <trkpt lat="45.07383" lon="5.42979">
        <ele>1072.4</ele>
      </trkpt>
      <trkpt lat="45.07392" lon="5.42998">
        <ele>1070.9</ele>
      </trkpt>
      <trkpt lat="45.07402" lon="5.43014">
        <ele>1070.6</ele>
      </trkpt>
      <trkpt lat="45.07412" lon="5.43028">
        <ele>1070.6</ele>
      </trkpt>
      <trkpt lat="45.07428" lon="5.43055">
        <ele>1070.6</ele>
      </trkpt>
      <trkpt lat="45.07441" lon="5.43062">
        <ele>1071.9</ele>
      </trkpt>
      <trkpt lat="45.07454" lon="5.4307">
        <ele>1072.9</ele>
      </trkpt>
      <trkpt lat="45.07469" lon="5.43078">
        <ele>1073.8</ele>
      </trkpt>
      <trkpt lat="45.07475" lon="5.43083">
        <ele>1074</ele>
      </trkpt>
      <trkpt lat="45.07482" lon="5.43091">
        <ele>1074</ele>
      </trkpt>
      <trkpt lat="45.07489" lon="5.43099">
        <ele>1074</ele>
      </trkpt>
      <trkpt lat="45.07498" lon="5.43106">
        <ele>1074.1</ele>
      </trkpt>
      <trkpt lat="45.07515" lon="5.43121">
        <ele>1075.7</ele>
      </trkpt>
      <trkpt lat="45.07523" lon="5.43129">
        <ele>1076.6</ele>
      </trkpt>
      <trkpt lat="45.07531" lon="5.43138">
        <ele>1077.2</ele>
      </trkpt>
      <trkpt lat="45.07543" lon="5.43152">
        <ele>1078.4</ele>
      </trkpt>
      <trkpt lat="45.07556" lon="5.43163">
        <ele>1080.1</ele>
      </trkpt>
      <trkpt lat="45.07585" lon="5.43187">
        <ele>1085.8</ele>
      </trkpt>
      <trkpt lat="45.07599" lon="5.43201">
        <ele>1088.4</ele>
      </trkpt>
      <trkpt lat="45.07606" lon="5.43209">
        <ele>1089.7</ele>
      </trkpt>
      <trkpt lat="45.07611" lon="5.43218">
        <ele>1090.6</ele>
      </trkpt>
      <trkpt lat="45.07615" lon="5.43233">
        <ele>1091.3</ele>
      </trkpt>
      <trkpt lat="45.07612" lon="5.43249">
        <ele>1090.5</ele>
      </trkpt>
      <trkpt lat="45.07602" lon="5.43277">
        <ele>1092</ele>
      </trkpt>
      <trkpt lat="45.07585" lon="5.43307">
        <ele>1092.4</ele>
      </trkpt>
      <trkpt lat="45.07585" lon="5.43343">
        <ele>1097.1</ele>
      </trkpt>
      <trkpt lat="45.07599" lon="5.43372">
        <ele>1102.5</ele>
      </trkpt>
      <trkpt lat="45.07615" lon="5.43398">
        <ele>1107.8</ele>
      </trkpt>
      <trkpt lat="45.07619" lon="5.43419">
        <ele>1110.2</ele>
      </trkpt>
      <trkpt lat="45.07618" lon="5.43462">
        <ele>1109.1</ele>
      </trkpt>
      <trkpt lat="45.07629" lon="5.4351">
        <ele>1109.3</ele>
      </trkpt>
      <trkpt lat="45.07659" lon="5.4354">
        <ele>1110.6</ele>
      </trkpt>
      <trkpt lat="45.07684" lon="5.4355">
        <ele>1111.6</ele>
      </trkpt>
      <trkpt lat="45.07706" lon="5.43547">
        <ele>1113.3</ele>
      </trkpt>
      <trkpt lat="45.07731" lon="5.43539">
        <ele>1115.6</ele>
      </trkpt>
      <trkpt lat="45.07764" lon="5.43555">
        <ele>1117.1</ele>
      </trkpt>
      <trkpt lat="45.0779" lon="5.43583">
        <ele>1116.9</ele>
      </trkpt>
      <trkpt lat="45.0782" lon="5.43631">
        <ele>1112.3</ele>
      </trkpt>
      <trkpt lat="45.07827" lon="5.43667">
        <ele>1106.5</ele>
      </trkpt>
      <trkpt lat="45.07836" lon="5.4369">
        <ele>1102.3</ele>
      </trkpt>
      <trkpt lat="45.07855" lon="5.43715">
        <ele>1100.2</ele>
      </trkpt>
      <trkpt lat="45.07889" lon="5.43757">
        <ele>1098.5</ele>
      </trkpt>
      <trkpt lat="45.07901" lon="5.43783">
        <ele>1098.8</ele>
      </trkpt>
      <trkpt lat="45.07905" lon="5.43808">
        <ele>1098</ele>
      </trkpt>
      <trkpt lat="45.07903" lon="5.4384">
        <ele>1095.4</ele>
      </trkpt>
      <trkpt lat="45.07901" lon="5.43877">
        <ele>1092.9</ele>
      </trkpt>
      <trkpt lat="45.07906" lon="5.43911">
        <ele>1092.2</ele>
      </trkpt>
      <trkpt lat="45.07923" lon="5.43946">
        <ele>1090.9</ele>
      </trkpt>
      <trkpt lat="45.07952" lon="5.43992">
        <ele>1085.4</ele>
      </trkpt>
      <trkpt lat="45.07966" lon="5.44006">
        <ele>1084</ele>
      </trkpt>
      <trkpt lat="45.07986" lon="5.44013">
        <ele>1084</ele>
      </trkpt>
      <trkpt lat="45.0802" lon="5.44019">
        <ele>1083.3</ele>
      </trkpt>
      <trkpt lat="45.08065" lon="5.44023">
        <ele>1081.9</ele>
      </trkpt>
      <trkpt lat="45.08092" lon="5.4403">
        <ele>1082.5</ele>
      </trkpt>
      <trkpt lat="45.08108" lon="5.44048">
        <ele>1084.3</ele>
      </trkpt>
      <trkpt lat="45.08133" lon="5.44116">
        <ele>1083.7</ele>
      </trkpt>
      <trkpt lat="45.08144" lon="5.44141">
        <ele>1083.3</ele>
      </trkpt>
      <trkpt lat="45.08165" lon="5.44152">
        <ele>1087.3</ele>
      </trkpt>
      <trkpt lat="45.08204" lon="5.44163">
        <ele>1093.3</ele>
      </trkpt>
      <trkpt lat="45.08253" lon="5.44173">
        <ele>1100.2</ele>
      </trkpt>
      <trkpt lat="45.08292" lon="5.44168">
        <ele>1103.4</ele>
      </trkpt>
      <trkpt lat="45.08312" lon="5.44165">
        <ele>1105</ele>
      </trkpt>
      <trkpt lat="45.08335" lon="5.44178">
        <ele>1104.2</ele>
      </trkpt>
      <trkpt lat="45.08346" lon="5.44195">
        <ele>1102.3</ele>
      </trkpt>
      <trkpt lat="45.08355" lon="5.4421">
        <ele>1100.5</ele>
      </trkpt>
      <trkpt lat="45.08383" lon="5.44227">
        <ele>1099.9</ele>
      </trkpt>
      <trkpt lat="45.08415" lon="5.44269">
        <ele>1095.9</ele>
      </trkpt>
      <trkpt lat="45.08438" lon="5.44311">
        <ele>1093.3</ele>
      </trkpt>
      <trkpt lat="45.08458" lon="5.44337">
        <ele>1092.8</ele>
      </trkpt>
      <trkpt lat="45.0847" lon="5.4434">
        <ele>1094.2</ele>
      </trkpt>
      <trkpt lat="45.08487" lon="5.44338">
        <ele>1097.7</ele>
      </trkpt>
      <trkpt lat="45.08522" lon="5.44322">
        <ele>1101.7</ele>
      </trkpt>
      <trkpt lat="45.08539" lon="5.44309">
        <ele>1103</ele>
      </trkpt>
      <trkpt lat="45.08607" lon="5.4426">
        <ele>1112.5</ele>
      </trkpt>
      <trkpt lat="45.08644" lon="5.4428">
        <ele>1110.3</ele>
      </trkpt>
      <trkpt lat="45.08702" lon="5.44361">
        <ele>1099.3</ele>
      </trkpt>
      <trkpt lat="45.08708" lon="5.44381">
        <ele>1095.3</ele>
      </trkpt>
      <trkpt lat="45.08723" lon="5.44387">
        <ele>1094.9</ele>
      </trkpt>
      <trkpt lat="45.08754" lon="5.44381">
        <ele>1099.2</ele>
      </trkpt>
      <trkpt lat="45.08778" lon="5.44387">
        <ele>1100.1</ele>
      </trkpt>
      <trkpt lat="45.08802" lon="5.44411">
        <ele>1096.4</ele>
      </trkpt>
      <trkpt lat="45.08812" lon="5.44434">
        <ele>1093.5</ele>
      </trkpt>
      <trkpt lat="45.08819" lon="5.4447">
        <ele>1089.3</ele>
      </trkpt>
      <trkpt lat="45.08824" lon="5.44525">
        <ele>1084.1</ele>
      </trkpt>
      <trkpt lat="45.08833" lon="5.44567">
        <ele>1083.4</ele>
      </trkpt>
      <trkpt lat="45.08839" lon="5.44583">
        <ele>1083.6</ele>
      </trkpt>
      <trkpt lat="45.08851" lon="5.44602">
        <ele>1085.7</ele>
      </trkpt>
      <trkpt lat="45.08873" lon="5.44604">
        <ele>1091.7</ele>
      </trkpt>
      <trkpt lat="45.08892" lon="5.44592">
        <ele>1098.7</ele>
      </trkpt>
      <trkpt lat="45.089" lon="5.44583">
        <ele>1102.1</ele>
      </trkpt>
      <trkpt lat="45.08908" lon="5.44587">
        <ele>1104</ele>
      </trkpt>
      <trkpt lat="45.0892" lon="5.44631">
        <ele>1101.7</ele>
      </trkpt>
      <trkpt lat="45.08941" lon="5.44717">
        <ele>1089.7</ele>
      </trkpt>
      <trkpt lat="45.08947" lon="5.4473">
        <ele>1087.5</ele>
      </trkpt>
      <trkpt lat="45.08956" lon="5.44741">
        <ele>1085.9</ele>
      </trkpt>
      <trkpt lat="45.08968" lon="5.4475">
        <ele>1084.7</ele>
      </trkpt>
      <trkpt lat="45.08981" lon="5.44751">
        <ele>1085.4</ele>
      </trkpt>
      <trkpt lat="45.08996" lon="5.44747">
        <ele>1087.5</ele>
      </trkpt>
      <trkpt lat="45.09008" lon="5.44739">
        <ele>1088.9</ele>
      </trkpt>
      <trkpt lat="45.09028" lon="5.44724">
        <ele>1089.5</ele>
      </trkpt>
      <trkpt lat="45.09043" lon="5.44739">
        <ele>1084.2</ele>
      </trkpt>
      <trkpt lat="45.09073" lon="5.4478">
        <ele>1071.9</ele>
      </trkpt>
      <trkpt lat="45.09079" lon="5.44787">
        <ele>1070</ele>
      </trkpt>
      <trkpt lat="45.09088" lon="5.44788">
        <ele>1068.7</ele>
      </trkpt>
      <trkpt lat="45.09111" lon="5.44792">
        <ele>1064.8</ele>
      </trkpt>
      <trkpt lat="45.09134" lon="5.44792">
        <ele>1061.9</ele>
      </trkpt>
      <trkpt lat="45.09153" lon="5.44789">
        <ele>1059.6</ele>
      </trkpt>
      <trkpt lat="45.09171" lon="5.44784">
        <ele>1058.9</ele>
      </trkpt>
      <trkpt lat="45.09183" lon="5.44776">
        <ele>1060.9</ele>
      </trkpt>
      <trkpt lat="45.09197" lon="5.44791">
        <ele>1060.3</ele>
      </trkpt>
      <trkpt lat="45.09205" lon="5.44805">
        <ele>1059.3</ele>
      </trkpt>
      <trkpt lat="45.09209" lon="5.44823">
        <ele>1057.4</ele>
      </trkpt>
      <trkpt lat="45.08767" lon="5.44357">
        <ele>1107.8</ele>
      </trkpt>
      <trkpt lat="45.08788" lon="5.44355">
        <ele>1110.6</ele>
      </trkpt>
      <trkpt lat="45.08811" lon="5.44359">
        <ele>1111.9</ele>
      </trkpt>
      <trkpt lat="45.08819" lon="5.44367">
        <ele>1110.6</ele>
      </trkpt>
      <trkpt lat="45.08824" lon="5.44378">
        <ele>1108.1</ele>
      </trkpt>
      <trkpt lat="45.08829" lon="5.4441">
        <ele>1100.2</ele>
      </trkpt>
      <trkpt lat="45.08839" lon="5.44473">
        <ele>1094.5</ele>
      </trkpt>
      <trkpt lat="45.08839" lon="5.44489">
        <ele>1092.5</ele>
      </trkpt>
      <trkpt lat="45.08834" lon="5.4454">
        <ele>1085.8</ele>
      </trkpt>
      <trkpt lat="45.08833" lon="5.44557">
        <ele>1084.2</ele>
      </trkpt>
      <trkpt lat="45.08833" lon="5.44567">
        <ele>1083.4</ele>
      </trkpt>
      <trkpt lat="45.08836" lon="5.44585">
        <ele>1082.6</ele>
      </trkpt>
      <trkpt lat="45.08847" lon="5.4463">
        <ele>1081.9</ele>
      </trkpt>
      <trkpt lat="45.08852" lon="5.44653">
        <ele>1081.2</ele>
      </trkpt>
      <trkpt lat="45.08856" lon="5.44662">
        <ele>1081.5</ele>
      </trkpt>
      <trkpt lat="45.08861" lon="5.44669">
        <ele>1082</ele>
      </trkpt>
      <trkpt lat="45.08866" lon="5.44674">
        <ele>1082.6</ele>
      </trkpt>
      <trkpt lat="45.08871" lon="5.44677">
        <ele>1083.4</ele>
      </trkpt>
      <trkpt lat="45.08887" lon="5.4468">
        <ele>1087</ele>
      </trkpt>
      <trkpt lat="45.08895" lon="5.44681">
        <ele>1088.6</ele>
      </trkpt>
      <trkpt lat="45.08899" lon="5.44686">
        <ele>1088.9</ele>
      </trkpt>
      <trkpt lat="45.08907" lon="5.44706">
        <ele>1087.2</ele>
      </trkpt>
      <trkpt lat="45.08911" lon="5.44724">
        <ele>1084.8</ele>
      </trkpt>
      <trkpt lat="45.08916" lon="5.44749">
        <ele>1081.1</ele>
      </trkpt>
      <trkpt lat="45.08919" lon="5.44766">
        <ele>1078.2</ele>
      </trkpt>
      <trkpt lat="45.08921" lon="5.44787">
        <ele>1074.1</ele>
      </trkpt>
      <trkpt lat="45.0892" lon="5.44806">
        <ele>1070.3</ele>
      </trkpt>
      <trkpt lat="45.08917" lon="5.44824">
        <ele>1066.8</ele>
      </trkpt>
      <trkpt lat="45.08917" lon="5.44838">
        <ele>1064.6</ele>
      </trkpt>
      <trkpt lat="45.08919" lon="5.4485">
        <ele>1063.4</ele>
      </trkpt>
      <trkpt lat="45.08927" lon="5.44859">
        <ele>1062.5</ele>
      </trkpt>
      <trkpt lat="45.08934" lon="5.44863">
        <ele>1062</ele>
      </trkpt>
      <trkpt lat="45.0896" lon="5.44866">
        <ele>1061.6</ele>
      </trkpt>
      <trkpt lat="45.08994" lon="5.44875">
        <ele>1060.6</ele>
      </trkpt>
      <trkpt lat="45.08997" lon="5.44875">
        <ele>1060.5</ele>
      </trkpt>
      <trkpt lat="45.09009" lon="5.44875">
        <ele>1059.9</ele>
      </trkpt>
      <trkpt lat="45.09018" lon="5.44869">
        <ele>1059.8</ele>
      </trkpt>
      <trkpt lat="45.09026" lon="5.44858">
        <ele>1060.5</ele>
      </trkpt>
      <trkpt lat="45.09036" lon="5.44843">
        <ele>1061.7</ele>
      </trkpt>
      <trkpt lat="45.0905" lon="5.44839">
        <ele>1061.2</ele>
      </trkpt>
      <trkpt lat="45.09064" lon="5.44844">
        <ele>1059.8</ele>
      </trkpt>
      <trkpt lat="45.09077" lon="5.44853">
        <ele>1057.6</ele>
      </trkpt>
      <trkpt lat="45.09089" lon="5.44855">
        <ele>1056.3</ele>
      </trkpt>
      <trkpt lat="45.09104" lon="5.44846">
        <ele>1056.1</ele>
      </trkpt>
      <trkpt lat="45.09154" lon="5.44817">
        <ele>1055.6</ele>
      </trkpt>
      <trkpt lat="45.09182" lon="5.44811">
        <ele>1056.4</ele>
      </trkpt>
      <trkpt lat="45.09198" lon="5.44811">
        <ele>1057.8</ele>
      </trkpt>
      <trkpt lat="45.09209" lon="5.44823">
        <ele>1057.4</ele>
      </trkpt>
      <trkpt lat="45.09212" lon="5.44826">
        <ele>1057.2</ele>
      </trkpt>
      <trkpt lat="45.09218" lon="5.44857">
        <ele>1053.4</ele>
      </trkpt>
      <trkpt lat="45.09227" lon="5.44895">
        <ele>1048.5</ele>
      </trkpt>
      <trkpt lat="45.09233" lon="5.44923">
        <ele>1045.2</ele>
      </trkpt>
      <trkpt lat="45.09238" lon="5.44938">
        <ele>1043.9</ele>
      </trkpt>
      <trkpt lat="45.09245" lon="5.44952">
        <ele>1043.1</ele>
      </trkpt>
      <trkpt lat="45.0926" lon="5.44966">
        <ele>1043.6</ele>
      </trkpt>
      <trkpt lat="45.09276" lon="5.44978">
        <ele>1044</ele>
      </trkpt>
      <trkpt lat="45.09299" lon="5.44996">
        <ele>1043.5</ele>
      </trkpt>
      <trkpt lat="45.09307" lon="5.45003">
        <ele>1042.9</ele>
      </trkpt>
      <trkpt lat="45.09313" lon="5.45012">
        <ele>1042.1</ele>
      </trkpt>
      <trkpt lat="45.09325" lon="5.4503">
        <ele>1039.8</ele>
      </trkpt>
      <trkpt lat="45.09335" lon="5.45065">
        <ele>1033.8</ele>
      </trkpt>
      <trkpt lat="45.09339" lon="5.45082">
        <ele>1031</ele>
      </trkpt>
      <trkpt lat="45.09345" lon="5.45113">
        <ele>1027.6</ele>
      </trkpt>
      <trkpt lat="45.09347" lon="5.45119">
        <ele>1027</ele>
      </trkpt>
      <trkpt lat="45.09357" lon="5.45144">
        <ele>1024.9</ele>
      </trkpt>
      <trkpt lat="45.09362" lon="5.45152">
        <ele>1024.5</ele>
      </trkpt>
      <trkpt lat="45.09367" lon="5.45158">
        <ele>1024.5</ele>
      </trkpt>
      <trkpt lat="45.09373" lon="5.45161">
        <ele>1024.9</ele>
      </trkpt>
      <trkpt lat="45.09378" lon="5.45161">
        <ele>1025.8</ele>
      </trkpt>
      <trkpt lat="45.09385" lon="5.45158">
        <ele>1027.3</ele>
      </trkpt>
      <trkpt lat="45.09392" lon="5.45154">
        <ele>1029</ele>
      </trkpt>
      <trkpt lat="45.09396" lon="5.45152">
        <ele>1030</ele>
      </trkpt>
      <trkpt lat="45.09401" lon="5.45151">
        <ele>1030.8</ele>
      </trkpt>
      <trkpt lat="45.09405" lon="5.45152">
        <ele>1031.3</ele>
      </trkpt>
      <trkpt lat="45.09409" lon="5.45156">
        <ele>1031.4</ele>
      </trkpt>
      <trkpt lat="45.09418" lon="5.45171">
        <ele>1030.7</ele>
      </trkpt>
      <trkpt lat="45.09426" lon="5.45187">
        <ele>1030.4</ele>
      </trkpt>
      <trkpt lat="45.09451" lon="5.45241">
        <ele>1028</ele>
      </trkpt>
      <trkpt lat="45.09465" lon="5.45275">
        <ele>1025.1</ele>
      </trkpt>
      <trkpt lat="45.09478" lon="5.45312">
        <ele>1021.2</ele>
      </trkpt>
      <trkpt lat="45.09508" lon="5.45416">
        <ele>1011.4</ele>
      </trkpt>
      <trkpt lat="45.09511" lon="5.45423">
        <ele>1010.5</ele>
      </trkpt>
      <trkpt lat="45.09515" lon="5.45428">
        <ele>1010</ele>
      </trkpt>
      <trkpt lat="45.09521" lon="5.45433">
        <ele>1009.8</ele>
      </trkpt>
      <trkpt lat="45.09526" lon="5.45437">
        <ele>1009.8</ele>
      </trkpt>
      <trkpt lat="45.09564" lon="5.45452">
        <ele>1012.4</ele>
      </trkpt>
      <trkpt lat="45.09584" lon="5.45463">
        <ele>1013.2</ele>
      </trkpt>
      <trkpt lat="45.0959" lon="5.45468">
        <ele>1012.8</ele>
      </trkpt>
      <trkpt lat="45.09594" lon="5.45476">
        <ele>1011.9</ele>
      </trkpt>
      <trkpt lat="45.09599" lon="5.45487">
        <ele>1010.3</ele>
      </trkpt>
      <trkpt lat="45.09602" lon="5.45499">
        <ele>1008.4</ele>
      </trkpt>
      <trkpt lat="45.0961" lon="5.45543">
        <ele>1004.6</ele>
      </trkpt>
      <trkpt lat="45.0962" lon="5.45586">
        <ele>1001.6</ele>
      </trkpt>
      <trkpt lat="45.09629" lon="5.4562">
        <ele>998.2</ele>
      </trkpt>
      <trkpt lat="45.09636" lon="5.45637">
        <ele>997</ele>
      </trkpt>
      <trkpt lat="45.09644" lon="5.45653">
        <ele>996.6</ele>
      </trkpt>
      <trkpt lat="45.09659" lon="5.45674">
        <ele>996.3</ele>
      </trkpt>
      <trkpt lat="45.09667" lon="5.45682">
        <ele>995.9</ele>
      </trkpt>
      <trkpt lat="45.09675" lon="5.45689">
        <ele>994.7</ele>
      </trkpt>
      <trkpt lat="45.0969" lon="5.45699">
        <ele>992.8</ele>
      </trkpt>
      <trkpt lat="45.09702" lon="5.45706">
        <ele>991.8</ele>
      </trkpt>
      <trkpt lat="45.09714" lon="5.4571">
        <ele>991.3</ele>
      </trkpt>
      <trkpt lat="45.09725" lon="5.45712">
        <ele>991.6</ele>
      </trkpt>
      <trkpt lat="45.09736" lon="5.45715">
        <ele>991.4</ele>
      </trkpt>
      <trkpt lat="45.09744" lon="5.45719">
        <ele>991.1</ele>
      </trkpt>
      <trkpt lat="45.0975" lon="5.45724">
        <ele>990.2</ele>
      </trkpt>
      <trkpt lat="45.09775" lon="5.45753">
        <ele>985.6</ele>
      </trkpt>
      <trkpt lat="45.09799" lon="5.45784">
        <ele>980.7</ele>
      </trkpt>
      <trkpt lat="45.09813" lon="5.45796">
        <ele>979.6</ele>
      </trkpt>
      <trkpt lat="45.09828" lon="5.45805">
        <ele>979.5</ele>
      </trkpt>
      <trkpt lat="45.09846" lon="5.4582">
        <ele>978.3</ele>
      </trkpt>
      <trkpt lat="45.09862" lon="5.45833">
        <ele>977.2</ele>
      </trkpt>
      <trkpt lat="45.09893" lon="5.45852">
        <ele>974.9</ele>
      </trkpt>
      <trkpt lat="45.09921" lon="5.45869">
        <ele>973.4</ele>
      </trkpt>
      <trkpt lat="45.09984" lon="5.45916">
        <ele>972.2</ele>
      </trkpt>
      <trkpt lat="45.10011" lon="5.45942">
        <ele>968.2</ele>
      </trkpt>
      <trkpt lat="45.10037" lon="5.45973">
        <ele>962.2</ele>
      </trkpt>
      <trkpt lat="45.10045" lon="5.45983">
        <ele>960.1</ele>
      </trkpt>
      <trkpt lat="45.10051" lon="5.45991">
        <ele>958.7</ele>
      </trkpt>
      <trkpt lat="45.10057" lon="5.45996">
        <ele>958.1</ele>
      </trkpt>
      <trkpt lat="45.10072" lon="5.46008">
        <ele>957.1</ele>
      </trkpt>
      <trkpt lat="45.10099" lon="5.46034">
        <ele>953.7</ele>
      </trkpt>
      <trkpt lat="45.1012" lon="5.46056">
        <ele>950.4</ele>
      </trkpt>
      <trkpt lat="45.10134" lon="5.46065">
        <ele>949.9</ele>
      </trkpt>
      <trkpt lat="45.10148" lon="5.46072">
        <ele>949.7</ele>
      </trkpt>
      <trkpt lat="45.10173" lon="5.46095">
        <ele>946.8</ele>
      </trkpt>
      <trkpt lat="45.10186" lon="5.46107">
        <ele>945.7</ele>
      </trkpt>
      <trkpt lat="45.10198" lon="5.46117">
        <ele>945.1</ele>
      </trkpt>
      <trkpt lat="45.10209" lon="5.46125">
        <ele>944.8</ele>
      </trkpt>
      <trkpt lat="45.10219" lon="5.46132">
        <ele>945</ele>
      </trkpt>
      <trkpt lat="45.10241" lon="5.46143">
        <ele>946.1</ele>
      </trkpt>
      <trkpt lat="45.10258" lon="5.46161">
        <ele>945.2</ele>
      </trkpt>
      <trkpt lat="45.10268" lon="5.46176">
        <ele>943.1</ele>
      </trkpt>
      <trkpt lat="45.10278" lon="5.46188">
        <ele>941.8</ele>
      </trkpt>
      <trkpt lat="45.10286" lon="5.46196">
        <ele>940.9</ele>
      </trkpt>
      <trkpt lat="45.10297" lon="5.46201">
        <ele>941</ele>
      </trkpt>
      <trkpt lat="45.10307" lon="5.46204">
        <ele>941.3</ele>
      </trkpt>
      <trkpt lat="45.10317" lon="5.46207">
        <ele>941.6</ele>
      </trkpt>
      <trkpt lat="45.10325" lon="5.46213">
        <ele>941</ele>
      </trkpt>
      <trkpt lat="45.10332" lon="5.46224">
        <ele>939.2</ele>
      </trkpt>
      <trkpt lat="45.10337" lon="5.4624">
        <ele>935.9</ele>
      </trkpt>
      <trkpt lat="45.10339" lon="5.46252">
        <ele>934</ele>
      </trkpt>
      <trkpt lat="45.10337" lon="5.46266">
        <ele>935.1</ele>
      </trkpt>
      <trkpt lat="45.10333" lon="5.46278">
        <ele>935.7</ele>
      </trkpt>
      <trkpt lat="45.10328" lon="5.4629">
        <ele>936.1</ele>
      </trkpt>
      <trkpt lat="45.10319" lon="5.46305">
        <ele>936</ele>
      </trkpt>
      <trkpt lat="45.10308" lon="5.4632">
        <ele>935.2</ele>
      </trkpt>
      <trkpt lat="45.10264" lon="5.46377">
        <ele>930.4</ele>
      </trkpt>
      <trkpt lat="45.10257" lon="5.4639">
        <ele>929.7</ele>
      </trkpt>
      <trkpt lat="45.1025" lon="5.46409">
        <ele>929.5</ele>
      </trkpt>
      <trkpt lat="45.10247" lon="5.46418">
        <ele>929.7</ele>
      </trkpt>
      <trkpt lat="45.10246" lon="5.46429">
        <ele>928.7</ele>
      </trkpt>
      <trkpt lat="45.10247" lon="5.46437">
        <ele>928</ele>
      </trkpt>
      <trkpt lat="45.10248" lon="5.46445">
        <ele>927.5</ele>
      </trkpt>
      <trkpt lat="45.10262" lon="5.46451">
        <ele>929.3</ele>
      </trkpt>
      <trkpt lat="45.10276" lon="5.46458">
        <ele>930.8</ele>
      </trkpt>
      <trkpt lat="45.10282" lon="5.46463">
        <ele>931.3</ele>
      </trkpt>
      <trkpt lat="45.10295" lon="5.46473">
        <ele>932.2</ele>
      </trkpt>
      <trkpt lat="45.10306" lon="5.46484">
        <ele>932.5</ele>
      </trkpt>
      <trkpt lat="45.1032" lon="5.46506">
        <ele>930.7</ele>
      </trkpt>
      <trkpt lat="45.10351" lon="5.46537">
        <ele>926.8</ele>
      </trkpt>
      <trkpt lat="45.10366" lon="5.46553">
        <ele>924.7</ele>
      </trkpt>
      <trkpt lat="45.10382" lon="5.46564">
        <ele>923.8</ele>
      </trkpt>
      <trkpt lat="45.104" lon="5.46576">
        <ele>922.8</ele>
      </trkpt>
      <trkpt lat="45.10418" lon="5.46581">
        <ele>923.7</ele>
      </trkpt>
      <trkpt lat="45.10437" lon="5.46585">
        <ele>923.9</ele>
      </trkpt>
      <trkpt lat="45.10454" lon="5.46593">
        <ele>922.4</ele>
      </trkpt>
      <trkpt lat="45.10527" lon="5.46621">
        <ele>918.1</ele>
      </trkpt>
      <trkpt lat="45.10557" lon="5.4663">
        <ele>916.9</ele>
      </trkpt>
      <trkpt lat="45.10581" lon="5.46635">
        <ele>917.1</ele>
      </trkpt>
      <trkpt lat="45.10626" lon="5.4665">
        <ele>913.4</ele>
      </trkpt>
      <trkpt lat="45.10664" lon="5.46682">
        <ele>904.2</ele>
      </trkpt>
      <trkpt lat="45.10688" lon="5.46707">
        <ele>901.5</ele>
      </trkpt>
      <trkpt lat="45.10703" lon="5.46726">
        <ele>899.2</ele>
      </trkpt>
      <trkpt lat="45.10728" lon="5.46741">
        <ele>899.5</ele>
      </trkpt>
      <trkpt lat="45.10753" lon="5.46756">
        <ele>899.6</ele>
      </trkpt>
      <trkpt lat="45.10771" lon="5.46763">
        <ele>898.8</ele>
      </trkpt>
      <trkpt lat="45.10789" lon="5.46768">
        <ele>898.5</ele>
      </trkpt>
      <trkpt lat="45.1082" lon="5.46771">
        <ele>899.6</ele>
      </trkpt>
      <trkpt lat="45.10868" lon="5.46766">
        <ele>900.9</ele>
      </trkpt>
      <trkpt lat="45.10887" lon="5.4677">
        <ele>899.3</ele>
      </trkpt>
      <trkpt lat="45.10901" lon="5.46778">
        <ele>896.9</ele>
      </trkpt>
      <trkpt lat="45.10922" lon="5.46795">
        <ele>893.4</ele>
      </trkpt>
      <trkpt lat="45.10934" lon="5.46829">
        <ele>887.7</ele>
      </trkpt>
      <trkpt lat="45.10959" lon="5.46895">
        <ele>884.9</ele>
      </trkpt>
      <trkpt lat="45.10981" lon="5.46951">
        <ele>878.2</ele>
      </trkpt>
      <trkpt lat="45.10988" lon="5.46983">
        <ele>872.9</ele>
      </trkpt>
      <trkpt lat="45.10992" lon="5.47016">
        <ele>866.7</ele>
      </trkpt>
      <trkpt lat="45.10996" lon="5.47038">
        <ele>862.5</ele>
      </trkpt>
      <trkpt lat="45.11008" lon="5.47055">
        <ele>860.2</ele>
      </trkpt>
      <trkpt lat="45.11071" lon="5.47098">
        <ele>858.7</ele>
      </trkpt>
      <trkpt lat="45.11128" lon="5.47139">
        <ele>856.2</ele>
      </trkpt>
      <trkpt lat="45.11144" lon="5.47142">
        <ele>857.2</ele>
      </trkpt>
      <trkpt lat="45.11167" lon="5.47145">
        <ele>859</ele>
      </trkpt>
      <trkpt lat="45.11178" lon="5.47152">
        <ele>859.1</ele>
      </trkpt>
      <trkpt lat="45.11182" lon="5.47159">
        <ele>858.5</ele>
      </trkpt>
      <trkpt lat="45.1008" lon="5.46382">
        <ele>922.6</ele>
      </trkpt>
      <trkpt lat="45.10076" lon="5.46372">
        <ele>922</ele>
      </trkpt>
      <trkpt lat="45.10058" lon="5.46355">
        <ele>922</ele>
      </trkpt>
      <trkpt lat="45.10045" lon="5.46336">
        <ele>922.3</ele>
      </trkpt>
      <trkpt lat="45.10046" lon="5.46308">
        <ele>918.2</ele>
      </trkpt>
      <trkpt lat="45.10048" lon="5.46269">
        <ele>912</ele>
      </trkpt>
      <trkpt lat="45.10038" lon="5.46235">
        <ele>908.4</ele>
      </trkpt>
      <trkpt lat="45.10038" lon="5.46183">
        <ele>906.2</ele>
      </trkpt>
      <trkpt lat="45.1001" lon="5.46145">
        <ele>903.9</ele>
      </trkpt>
      <trkpt lat="45.09974" lon="5.46108">
        <ele>905.8</ele>
      </trkpt>
      <trkpt lat="45.09967" lon="5.46105">
        <ele>905.5</ele>
      </trkpt>
      <trkpt lat="45.09931" lon="5.46054">
        <ele>913.4</ele>
      </trkpt>
      <trkpt lat="45.09863" lon="5.46018">
        <ele>917.6</ele>
      </trkpt>
      <trkpt lat="45.09802" lon="5.45984">
        <ele>922.4</ele>
      </trkpt>
      <trkpt lat="45.09763" lon="5.45953">
        <ele>928.9</ele>
      </trkpt>
      <trkpt lat="45.09707" lon="5.45878">
        <ele>946.1</ele>
      </trkpt>
      <trkpt lat="45.0967" lon="5.45813">
        <ele>961</ele>
      </trkpt>
      <trkpt lat="45.09647" lon="5.45761">
        <ele>971.6</ele>
      </trkpt>
      <trkpt lat="45.09639" lon="5.45738">
        <ele>975.9</ele>
      </trkpt>
      <trkpt lat="45.09637" lon="5.45688">
        <ele>987.7</ele>
      </trkpt>
      <trkpt lat="45.09624" lon="5.45636">
        <ele>994.6</ele>
      </trkpt>
      <trkpt lat="45.0962" lon="5.45586">
        <ele>1001.6</ele>
      </trkpt>
      <trkpt lat="45.1008" lon="5.46382">
        <ele>922.6</ele>
      </trkpt>
      <trkpt lat="45.10088" lon="5.46393">
        <ele>923.3</ele>
      </trkpt>
      <trkpt lat="45.10094" lon="5.46399">
        <ele>923.6</ele>
      </trkpt>
      <trkpt lat="45.10105" lon="5.46405">
        <ele>923.9</ele>
      </trkpt>
      <trkpt lat="45.10149" lon="5.4641">
        <ele>923.8</ele>
      </trkpt>
      <trkpt lat="45.10161" lon="5.46412">
        <ele>923.7</ele>
      </trkpt>
      <trkpt lat="45.10171" lon="5.46416">
        <ele>924.3</ele>
      </trkpt>
      <trkpt lat="45.10187" lon="5.46423">
        <ele>924.9</ele>
      </trkpt>
      <trkpt lat="45.10213" lon="5.46435">
        <ele>925.8</ele>
      </trkpt>
      <trkpt lat="45.10229" lon="5.46443">
        <ele>926.2</ele>
      </trkpt>
      <trkpt lat="45.10235" lon="5.46446">
        <ele>926.5</ele>
      </trkpt>
      <trkpt lat="45.10243" lon="5.46446">
        <ele>927.1</ele>
      </trkpt>
      <trkpt lat="45.10248" lon="5.46445">
        <ele>927.5</ele>
      </trkpt>
      <trkpt lat="45.10258" lon="5.4646">
        <ele>927.7</ele>
      </trkpt>
      <trkpt lat="45.10267" lon="5.46479">
        <ele>927.3</ele>
      </trkpt>
      <trkpt lat="45.10276" lon="5.46491">
        <ele>927.3</ele>
      </trkpt>
      <trkpt lat="45.10283" lon="5.46501">
        <ele>927.2</ele>
      </trkpt>
      <trkpt lat="45.10306" lon="5.46529">
        <ele>922.6</ele>
      </trkpt>
      <trkpt lat="45.1033" lon="5.46562">
        <ele>917.2</ele>
      </trkpt>
      <trkpt lat="45.10359" lon="5.46594">
        <ele>912</ele>
      </trkpt>
      <trkpt lat="45.10381" lon="5.46607">
        <ele>910.2</ele>
      </trkpt>
      <trkpt lat="45.10407" lon="5.46612">
        <ele>910.8</ele>
      </trkpt>
      <trkpt lat="45.1044" lon="5.46633">
        <ele>905.5</ele>
      </trkpt>
      <trkpt lat="45.105" lon="5.46669">
        <ele>897.1</ele>
      </trkpt>
      <trkpt lat="45.10521" lon="5.46685">
        <ele>893.4</ele>
      </trkpt>
      <trkpt lat="45.10545" lon="5.46705">
        <ele>888.8</ele>
      </trkpt>
      <trkpt lat="45.10566" lon="5.4672">
        <ele>885.9</ele>
      </trkpt>
      <trkpt lat="45.10588" lon="5.46736">
        <ele>883</ele>
      </trkpt>
      <trkpt lat="45.10607" lon="5.46763">
        <ele>877.4</ele>
      </trkpt>
      <trkpt lat="45.10628" lon="5.46795">
        <ele>872.2</ele>
      </trkpt>
      <trkpt lat="45.10651" lon="5.46815">
        <ele>871.3</ele>
      </trkpt>
      <trkpt lat="45.1067" lon="5.46822">
        <ele>872.9</ele>
      </trkpt>
      <trkpt lat="45.10682" lon="5.46833">
        <ele>871.9</ele>
      </trkpt>
      <trkpt lat="45.107" lon="5.46847">
        <ele>871.9</ele>
      </trkpt>
      <trkpt lat="45.10699" lon="5.46856">
        <ele>870.5</ele>
      </trkpt>
      <trkpt lat="45.1068" lon="5.46861">
        <ele>867.5</ele>
      </trkpt>
      <trkpt lat="45.10668" lon="5.46867">
        <ele>865.4</ele>
      </trkpt>
      <trkpt lat="45.1066" lon="5.46876">
        <ele>862.6</ele>
      </trkpt>
      <trkpt lat="45.10637" lon="5.46888">
        <ele>856.2</ele>
      </trkpt>
      <trkpt lat="45.10623" lon="5.46897">
        <ele>852</ele>
      </trkpt>
      <trkpt lat="45.10617" lon="5.46909">
        <ele>849.1</ele>
      </trkpt>
      <trkpt lat="45.10616" lon="5.46921">
        <ele>846.8</ele>
      </trkpt>
      <trkpt lat="45.1062" lon="5.46936">
        <ele>844.2</ele>
      </trkpt>
      <trkpt lat="45.10627" lon="5.4695">
        <ele>842.2</ele>
      </trkpt>
      <trkpt lat="45.1065" lon="5.46981">
        <ele>839</ele>
      </trkpt>
      <trkpt lat="45.10672" lon="5.47002">
        <ele>837.3</ele>
      </trkpt>
      <trkpt lat="45.10697" lon="5.47019">
        <ele>835.4</ele>
      </trkpt>
      <trkpt lat="45.10714" lon="5.47039">
        <ele>832.1</ele>
      </trkpt>
      <trkpt lat="45.10723" lon="5.47051">
        <ele>829.6</ele>
      </trkpt>
      <trkpt lat="45.10729" lon="5.47063">
        <ele>826.9</ele>
      </trkpt>
      <trkpt lat="45.10742" lon="5.47083">
        <ele>822.7</ele>
      </trkpt>
      <trkpt lat="45.10756" lon="5.47104">
        <ele>821.4</ele>
      </trkpt>
      <trkpt lat="45.10766" lon="5.47116">
        <ele>820.6</ele>
      </trkpt>
      <trkpt lat="45.10782" lon="5.47128">
        <ele>820.6</ele>
      </trkpt>
      <trkpt lat="45.10772" lon="5.47133">
        <ele>818.3</ele>
      </trkpt>
      <trkpt lat="45.1076" lon="5.47137">
        <ele>816.1</ele>
      </trkpt>
      <trkpt lat="45.10747" lon="5.4714">
        <ele>814.2</ele>
      </trkpt>
      <trkpt lat="45.10742" lon="5.47141">
        <ele>813.6</ele>
      </trkpt>
      <trkpt lat="45.10734" lon="5.47141">
        <ele>813</ele>
      </trkpt>
      <trkpt lat="45.10713" lon="5.47139">
        <ele>811.5</ele>
      </trkpt>
      <trkpt lat="45.10691" lon="5.47137">
        <ele>809.9</ele>
      </trkpt>
      <trkpt lat="45.10674" lon="5.47136">
        <ele>808.5</ele>
      </trkpt>
      <trkpt lat="45.10664" lon="5.47136">
        <ele>807.6</ele>
      </trkpt>
      <trkpt lat="45.10656" lon="5.47138">
        <ele>806.7</ele>
      </trkpt>
      <trkpt lat="45.10648" lon="5.47147">
        <ele>805.2</ele>
      </trkpt>
      <trkpt lat="45.10638" lon="5.47158">
        <ele>803.3</ele>
      </trkpt>
      <trkpt lat="45.1063" lon="5.47174">
        <ele>803</ele>
      </trkpt>
      <trkpt lat="45.10626" lon="5.47186">
        <ele>804.9</ele>
      </trkpt>
      <trkpt lat="45.10622" lon="5.47198">
        <ele>806.8</ele>
      </trkpt>
      <trkpt lat="45.10618" lon="5.47208">
        <ele>808.5</ele>
      </trkpt>
      <trkpt lat="45.1061" lon="5.47222">
        <ele>810.5</ele>
      </trkpt>
      <trkpt lat="45.10598" lon="5.4724">
        <ele>813.2</ele>
      </trkpt>
      <trkpt lat="45.1059" lon="5.47246">
        <ele>813.7</ele>
      </trkpt>
      <trkpt lat="45.10578" lon="5.47255">
        <ele>814.5</ele>
      </trkpt>
      <trkpt lat="45.10563" lon="5.47258">
        <ele>813.5</ele>
      </trkpt>
      <trkpt lat="45.10544" lon="5.47257">
        <ele>811</ele>
      </trkpt>
      <trkpt lat="45.10523" lon="5.4725">
        <ele>807.5</ele>
      </trkpt>
      <trkpt lat="45.10516" lon="5.47248">
        <ele>806.3</ele>
      </trkpt>
      <trkpt lat="45.10506" lon="5.47248">
        <ele>805.3</ele>
      </trkpt>
      <trkpt lat="45.10496" lon="5.47253">
        <ele>805.2</ele>
      </trkpt>
      <trkpt lat="45.10486" lon="5.47261">
        <ele>805.6</ele>
      </trkpt>
      <trkpt lat="45.10477" lon="5.47268">
        <ele>805.7</ele>
      </trkpt>
      <trkpt lat="45.10468" lon="5.47271">
        <ele>805.2</ele>
      </trkpt>
      <trkpt lat="45.10452" lon="5.47294">
        <ele>806.5</ele>
      </trkpt>
      <trkpt lat="45.10441" lon="5.47306">
        <ele>806.6</ele>
      </trkpt>
      <trkpt lat="45.10428" lon="5.47316">
        <ele>805.9</ele>
      </trkpt>
      <trkpt lat="45.10409" lon="5.47318">
        <ele>804.6</ele>
      </trkpt>
      <trkpt lat="45.10399" lon="5.47319">
        <ele>804.8</ele>
      </trkpt>
      <trkpt lat="45.10382" lon="5.47317">
        <ele>804.6</ele>
      </trkpt>
      <trkpt lat="45.10378" lon="5.47322">
        <ele>805.4</ele>
      </trkpt>
      <trkpt lat="45.10343" lon="5.4732">
        <ele>805.5</ele>
      </trkpt>
      <trkpt lat="45.1031" lon="5.47322">
        <ele>807.6</ele>
      </trkpt>
      <trkpt lat="45.10285" lon="5.47327">
        <ele>810.4</ele>
      </trkpt>
      <trkpt lat="45.10265" lon="5.47339">
        <ele>813.4</ele>
      </trkpt>
      <trkpt lat="45.10255" lon="5.47348">
        <ele>814.5</ele>
      </trkpt>
      <trkpt lat="45.10266" lon="5.47353">
        <ele>814.3</ele>
      </trkpt>
      <trkpt lat="45.10288" lon="5.4736">
        <ele>813.7</ele>
      </trkpt>
      <trkpt lat="45.1034" lon="5.47382">
        <ele>814.2</ele>
      </trkpt>
      <trkpt lat="45.10378" lon="5.474">
        <ele>815.3</ele>
      </trkpt>
      <trkpt lat="45.10405" lon="5.47412">
        <ele>815.9</ele>
      </trkpt>
      <trkpt lat="45.10419" lon="5.4742">
        <ele>816.8</ele>
      </trkpt>
      <trkpt lat="45.10425" lon="5.47426">
        <ele>818.3</ele>
      </trkpt>
      <trkpt lat="45.10429" lon="5.47438">
        <ele>820.3</ele>
      </trkpt>
      <trkpt lat="45.10437" lon="5.47442">
        <ele>821.7</ele>
      </trkpt>
      <trkpt lat="45.10455" lon="5.47442">
        <ele>823.4</ele>
      </trkpt>
      <trkpt lat="45.1047" lon="5.47446">
        <ele>825.3</ele>
      </trkpt>
      <trkpt lat="45.10491" lon="5.47448">
        <ele>827.4</ele>
      </trkpt>
      <trkpt lat="45.10504" lon="5.47448">
        <ele>829</ele>
      </trkpt>
      <trkpt lat="45.10512" lon="5.47441">
        <ele>830.1</ele>
      </trkpt>
      <trkpt lat="45.10519" lon="5.47429">
        <ele>830.5</ele>
      </trkpt>
      <trkpt lat="45.10521" lon="5.47412">
        <ele>829.6</ele>
      </trkpt>
      <trkpt lat="45.10526" lon="5.47397">
        <ele>829.1</ele>
      </trkpt>
      <trkpt lat="45.10531" lon="5.47388">
        <ele>829.3</ele>
      </trkpt>
      <trkpt lat="45.10537" lon="5.47387">
        <ele>830.3</ele>
      </trkpt>
      <trkpt lat="45.10545" lon="5.47389">
        <ele>831.9</ele>
      </trkpt>
      <trkpt lat="45.10549" lon="5.47391">
        <ele>832.9</ele>
      </trkpt>
      <trkpt lat="45.10562" lon="5.47402">
        <ele>836.3</ele>
      </trkpt>
      <trkpt lat="45.10586" lon="5.47417">
        <ele>842.2</ele>
      </trkpt>
      <trkpt lat="45.10603" lon="5.47426">
        <ele>844.2</ele>
      </trkpt>
      <trkpt lat="45.10616" lon="5.4743">
        <ele>845.4</ele>
      </trkpt>
      <trkpt lat="45.10634" lon="5.47431">
        <ele>846.8</ele>
      </trkpt>
      <trkpt lat="45.10653" lon="5.47432">
        <ele>848.4</ele>
      </trkpt>
      <trkpt lat="45.10678" lon="5.47439">
        <ele>849.1</ele>
      </trkpt>
      <trkpt lat="45.10697" lon="5.47448">
        <ele>848.5</ele>
      </trkpt>
      <trkpt lat="45.10715" lon="5.47464">
        <ele>848.8</ele>
      </trkpt>
      <trkpt lat="45.10731" lon="5.47482">
        <ele>849.9</ele>
      </trkpt>
      <trkpt lat="45.10766" lon="5.47525">
        <ele>853.9</ele>
      </trkpt>
      <trkpt lat="45.10784" lon="5.47553">
        <ele>857.2</ele>
      </trkpt>
      <trkpt lat="45.10798" lon="5.47576">
        <ele>860.2</ele>
      </trkpt>
      <trkpt lat="45.10808" lon="5.47603">
        <ele>864.3</ele>
      </trkpt>
      <trkpt lat="45.10817" lon="5.47625">
        <ele>867.4</ele>
      </trkpt>
      <trkpt lat="45.10832" lon="5.47642">
        <ele>869.2</ele>
      </trkpt>
      <trkpt lat="45.1087" lon="5.47664">
        <ele>873.9</ele>
      </trkpt>
      <trkpt lat="45.10908" lon="5.47684">
        <ele>878</ele>
      </trkpt>
      <trkpt lat="45.10912" lon="5.47691">
        <ele>879.1</ele>
      </trkpt>
      <trkpt lat="45.10909" lon="5.47734">
        <ele>884.8</ele>
      </trkpt>
      <trkpt lat="45.1098" lon="5.47744">
        <ele>894.3</ele>
      </trkpt>
      <trkpt lat="45.10987" lon="5.47735">
        <ele>894.8</ele>
      </trkpt>
      <trkpt lat="45.10996" lon="5.47702">
        <ele>895.1</ele>
      </trkpt>
      <trkpt lat="45.11004" lon="5.47665">
        <ele>895.7</ele>
      </trkpt>
      <trkpt lat="45.11016" lon="5.47652">
        <ele>895.6</ele>
      </trkpt>
      <trkpt lat="45.11043" lon="5.47646">
        <ele>899.9</ele>
      </trkpt>
      <trkpt lat="45.11071" lon="5.47672">
        <ele>910.8</ele>
      </trkpt>
      <trkpt lat="45.11103" lon="5.4772">
        <ele>917</ele>
      </trkpt>
      <trkpt lat="45.11134" lon="5.47743">
        <ele>922.4</ele>
      </trkpt>
      <trkpt lat="45.11145" lon="5.4777">
        <ele>928.4</ele>
      </trkpt>
      <trkpt lat="45.11164" lon="5.47779">
        <ele>932.6</ele>
      </trkpt>
      <trkpt lat="45.11203" lon="5.47774">
        <ele>931.2</ele>
      </trkpt>
      <trkpt lat="45.11249" lon="5.47789">
        <ele>934.2</ele>
      </trkpt>
      <trkpt lat="45.11276" lon="5.47836">
        <ele>941.3</ele>
      </trkpt>
      <trkpt lat="45.11324" lon="5.47906">
        <ele>945.3</ele>
      </trkpt>
      <trkpt lat="45.11433" lon="5.48033">
        <ele>960.5</ele>
      </trkpt>
      <trkpt lat="45.11445" lon="5.48045">
        <ele>963.2</ele>
      </trkpt>
      <trkpt lat="45.11461" lon="5.48053">
        <ele>964.8</ele>
      </trkpt>
      <trkpt lat="45.11476" lon="5.48058">
        <ele>965.6</ele>
      </trkpt>
      <trkpt lat="45.11489" lon="5.48062">
        <ele>966.3</ele>
      </trkpt>
      <trkpt lat="45.11528" lon="5.48067">
        <ele>968</ele>
      </trkpt>
      <trkpt lat="45.11579" lon="5.48084">
        <ele>972.9</ele>
      </trkpt>
      <trkpt lat="45.11622" lon="5.48089">
        <ele>975.9</ele>
      </trkpt>
      <trkpt lat="45.11643" lon="5.48101">
        <ele>979.2</ele>
      </trkpt>
      <trkpt lat="45.1166" lon="5.48108">
        <ele>981.3</ele>
      </trkpt>
      <trkpt lat="45.11682" lon="5.48107">
        <ele>982.1</ele>
      </trkpt>
      <trkpt lat="45.11741" lon="5.48089">
        <ele>981.3</ele>
      </trkpt>
      <trkpt lat="45.11753" lon="5.48082">
        <ele>981.1</ele>
      </trkpt>
      <trkpt lat="45.11772" lon="5.48071">
        <ele>981.4</ele>
      </trkpt>
      <trkpt lat="45.11788" lon="5.48064">
        <ele>982.1</ele>
      </trkpt>
      <trkpt lat="45.11794" lon="5.48059">
        <ele>982.1</ele>
      </trkpt>
      <trkpt lat="45.11805" lon="5.48048">
        <ele>981.9</ele>
      </trkpt>
      <trkpt lat="45.11815" lon="5.48036">
        <ele>981.7</ele>
      </trkpt>
      <trkpt lat="45.11824" lon="5.48037">
        <ele>982.6</ele>
      </trkpt>
      <trkpt lat="45.11838" lon="5.48037">
        <ele>983.5</ele>
      </trkpt>
      <trkpt lat="45.11849" lon="5.4804">
        <ele>983.5</ele>
      </trkpt>
      <trkpt lat="45.11861" lon="5.48048">
        <ele>984.2</ele>
      </trkpt>
      <trkpt lat="45.11872" lon="5.48061">
        <ele>985.2</ele>
      </trkpt>
      <trkpt lat="45.11878" lon="5.48074">
        <ele>986.5</ele>
      </trkpt>
      <trkpt lat="45.11884" lon="5.48091">
        <ele>988.2</ele>
      </trkpt>
      <trkpt lat="45.11887" lon="5.48108">
        <ele>989.8</ele>
      </trkpt>
      <trkpt lat="45.1189" lon="5.48126">
        <ele>991.6</ele>
      </trkpt>
      <trkpt lat="45.11894" lon="5.48142">
        <ele>993.2</ele>
      </trkpt>
      <trkpt lat="45.11904" lon="5.48159">
        <ele>995</ele>
      </trkpt>
      <trkpt lat="45.11915" lon="5.48172">
        <ele>996.8</ele>
      </trkpt>
      <trkpt lat="45.11926" lon="5.48181">
        <ele>998.5</ele>
      </trkpt>
      <trkpt lat="45.11935" lon="5.48187">
        <ele>999.7</ele>
      </trkpt>
      <trkpt lat="45.11943" lon="5.4819">
        <ele>1000.7</ele>
      </trkpt>
      <trkpt lat="45.11952" lon="5.4819">
        <ele>1000.9</ele>
      </trkpt>
      <trkpt lat="45.11963" lon="5.48187">
        <ele>1000.8</ele>
      </trkpt>
      <trkpt lat="45.11984" lon="5.48175">
        <ele>999.3</ele>
      </trkpt>
      <trkpt lat="45.12023" lon="5.48159">
        <ele>998.8</ele>
      </trkpt>
      <trkpt lat="45.12063" lon="5.48134">
        <ele>997.8</ele>
      </trkpt>
      <trkpt lat="45.12091" lon="5.48115">
        <ele>995.9</ele>
      </trkpt>
      <trkpt lat="45.1211" lon="5.48105">
        <ele>995.2</ele>
      </trkpt>
      <trkpt lat="45.1213" lon="5.48103">
        <ele>996</ele>
      </trkpt>
      <trkpt lat="45.12143" lon="5.48108">
        <ele>997.6</ele>
      </trkpt>
      <trkpt lat="45.12159" lon="5.48113">
        <ele>999.6</ele>
      </trkpt>
      <trkpt lat="45.1217" lon="5.481">
        <ele>998.3</ele>
      </trkpt>
      <trkpt lat="45.12196" lon="5.48088">
        <ele>1000.1</ele>
      </trkpt>
      <trkpt lat="45.12241" lon="5.48095">
        <ele>1008</ele>
      </trkpt>
      <trkpt lat="45.12284" lon="5.48096">
        <ele>1011.7</ele>
      </trkpt>
      <trkpt lat="45.12332" lon="5.4811">
        <ele>1017.6</ele>
      </trkpt>
      <trkpt lat="45.12365" lon="5.48135">
        <ele>1027.3</ele>
      </trkpt>
      <trkpt lat="45.12395" lon="5.48136">
        <ele>1031.2</ele>
      </trkpt>
      <trkpt lat="45.12421" lon="5.48141">
        <ele>1035.5</ele>
      </trkpt>
      <trkpt lat="45.12453" lon="5.48141">
        <ele>1039.1</ele>
      </trkpt>
      <trkpt lat="45.12498" lon="5.48162">
        <ele>1048.8</ele>
      </trkpt>
      <trkpt lat="45.1251" lon="5.48163">
        <ele>1049.2</ele>
      </trkpt>
      <trkpt lat="45.12528" lon="5.48172">
        <ele>1051.1</ele>
      </trkpt>
      <trkpt lat="45.1255" lon="5.48178">
        <ele>1052.7</ele>
      </trkpt>
      <trkpt lat="45.12575" lon="5.48178">
        <ele>1052.7</ele>
      </trkpt>
      <trkpt lat="45.12602" lon="5.48179">
        <ele>1054.4</ele>
      </trkpt>
      <trkpt lat="45.12641" lon="5.48186">
        <ele>1058.6</ele>
      </trkpt>
      <trkpt lat="45.1268" lon="5.48158">
        <ele>1056.6</ele>
      </trkpt>
      <trkpt lat="45.12692" lon="5.48157">
        <ele>1058</ele>
      </trkpt>
      <trkpt lat="45.12713" lon="5.48176">
        <ele>1063.7</ele>
      </trkpt>
      <trkpt lat="45.12742" lon="5.48195">
        <ele>1070</ele>
      </trkpt>
      <trkpt lat="45.1275" lon="5.48205">
        <ele>1072.1</ele>
      </trkpt>
      <trkpt lat="45.12775" lon="5.48228">
        <ele>1073.9</ele>
      </trkpt>
      <trkpt lat="45.12825" lon="5.48254">
        <ele>1074.9</ele>
      </trkpt>
      <trkpt lat="45.12842" lon="5.48258">
        <ele>1075.1</ele>
      </trkpt>
      <trkpt lat="45.12862" lon="5.48266">
        <ele>1076.1</ele>
      </trkpt>
      <trkpt lat="45.129" lon="5.48292">
        <ele>1078.9</ele>
      </trkpt>
      <trkpt lat="45.1291" lon="5.4829">
        <ele>1078.4</ele>
      </trkpt>
      <trkpt lat="45.12928" lon="5.48272">
        <ele>1077.9</ele>
      </trkpt>
      <trkpt lat="45.12936" lon="5.48264">
        <ele>1078</ele>
      </trkpt>
      <trkpt lat="45.12959" lon="5.48252">
        <ele>1079.2</ele>
      </trkpt>
      <trkpt lat="45.1298" lon="5.48237">
        <ele>1079.5</ele>
      </trkpt>
      <trkpt lat="45.13018" lon="5.48211">
        <ele>1079.7</ele>
      </trkpt>
      <trkpt lat="45.13036" lon="5.48194">
        <ele>1078.9</ele>
      </trkpt>
      <trkpt lat="45.13062" lon="5.48153">
        <ele>1075.4</ele>
      </trkpt>
      <trkpt lat="45.13089" lon="5.48135">
        <ele>1075.1</ele>
      </trkpt>
      <trkpt lat="45.13116" lon="5.48122">
        <ele>1073.9</ele>
      </trkpt>
      <trkpt lat="45.13147" lon="5.48113">
        <ele>1073.4</ele>
      </trkpt>
      <trkpt lat="45.13202" lon="5.48114">
        <ele>1072.2</ele>
      </trkpt>
      <trkpt lat="45.13261" lon="5.48117">
        <ele>1069</ele>
      </trkpt>
      <trkpt lat="45.1329" lon="5.48142">
        <ele>1070</ele>
      </trkpt>
      <trkpt lat="45.13313" lon="5.48154">
        <ele>1070.3</ele>
      </trkpt>
      <trkpt lat="45.13327" lon="5.48158">
        <ele>1070</ele>
      </trkpt>
      <trkpt lat="45.13341" lon="5.48157">
        <ele>1069.8</ele>
      </trkpt>
      <trkpt lat="45.13353" lon="5.48152">
        <ele>1069.6</ele>
      </trkpt>
      <trkpt lat="45.13364" lon="5.48145">
        <ele>1068.9</ele>
      </trkpt>
      <trkpt lat="45.1339" lon="5.48143">
        <ele>1069.8</ele>
      </trkpt>
      <trkpt lat="45.13431" lon="5.48154">
        <ele>1074.1</ele>
      </trkpt>
      <trkpt lat="45.13456" lon="5.48155">
        <ele>1075.6</ele>
      </trkpt>
      <trkpt lat="45.13556" lon="5.48185">
        <ele>1082.5</ele>
      </trkpt>
      <trkpt lat="45.1361" lon="5.48201">
        <ele>1083.4</ele>
      </trkpt>
      <trkpt lat="45.13647" lon="5.48222">
        <ele>1085</ele>
      </trkpt>
      <trkpt lat="45.13674" lon="5.48248">
        <ele>1086.6</ele>
      </trkpt>
      <trkpt lat="45.13683" lon="5.48253">
        <ele>1086.1</ele>
      </trkpt>
      <trkpt lat="45.13692" lon="5.4827">
        <ele>1087.7</ele>
      </trkpt>
      <trkpt lat="45.13706" lon="5.4828">
        <ele>1086.7</ele>
      </trkpt>
      <trkpt lat="45.13722" lon="5.48293">
        <ele>1085.7</ele>
      </trkpt>
      <trkpt lat="45.1373" lon="5.48306">
        <ele>1085.7</ele>
      </trkpt>
      <trkpt lat="45.1374" lon="5.4834">
        <ele>1087.8</ele>
      </trkpt>
      <trkpt lat="45.13751" lon="5.48364">
        <ele>1090.6</ele>
      </trkpt>
      <trkpt lat="45.13767" lon="5.48382">
        <ele>1092.8</ele>
      </trkpt>
      <trkpt lat="45.13795" lon="5.48411">
        <ele>1097.3</ele>
      </trkpt>
      <trkpt lat="45.13807" lon="5.48421">
        <ele>1098.7</ele>
      </trkpt>
      <trkpt lat="45.13822" lon="5.48435">
        <ele>1100.5</ele>
      </trkpt>
      <trkpt lat="45.13834" lon="5.48441">
        <ele>1100.7</ele>
      </trkpt>
      <trkpt lat="45.13846" lon="5.48437">
        <ele>1101.1</ele>
      </trkpt>
      <trkpt lat="45.13859" lon="5.48432">
        <ele>1101.3</ele>
      </trkpt>
      <trkpt lat="45.13898" lon="5.4843">
        <ele>1104.6</ele>
      </trkpt>
      <trkpt lat="45.13949" lon="5.48418">
        <ele>1105</ele>
      </trkpt>
      <trkpt lat="45.13973" lon="5.48422">
        <ele>1106.2</ele>
      </trkpt>
      <trkpt lat="45.13991" lon="5.48431">
        <ele>1107.9</ele>
      </trkpt>
      <trkpt lat="45.14009" lon="5.48436">
        <ele>1109.1</ele>
      </trkpt>
      <trkpt lat="45.1406" lon="5.48447">
        <ele>1111.6</ele>
      </trkpt>
      <trkpt lat="45.141" lon="5.48459">
        <ele>1113.2</ele>
      </trkpt>
      <trkpt lat="45.14123" lon="5.48466">
        <ele>1114</ele>
      </trkpt>
      <trkpt lat="45.14138" lon="5.48467">
        <ele>1114.3</ele>
      </trkpt>
      <trkpt lat="45.14148" lon="5.48467">
        <ele>1114.4</ele>
      </trkpt>
      <trkpt lat="45.14158" lon="5.48472">
        <ele>1114.9</ele>
      </trkpt>
      <trkpt lat="45.14178" lon="5.48486">
        <ele>1116.2</ele>
      </trkpt>
      <trkpt lat="45.14187" lon="5.48489">
        <ele>1116.6</ele>
      </trkpt>
      <trkpt lat="45.14216" lon="5.4851">
        <ele>1119.3</ele>
      </trkpt>
      <trkpt lat="45.14226" lon="5.48513">
        <ele>1119.9</ele>
      </trkpt>
      <trkpt lat="45.1425" lon="5.48518">
        <ele>1120.9</ele>
      </trkpt>
      <trkpt lat="45.14256" lon="5.48519">
        <ele>1120.8</ele>
      </trkpt>
      <trkpt lat="45.14269" lon="5.48525">
        <ele>1120.8</ele>
      </trkpt>
      <trkpt lat="45.14274" lon="5.48531">
        <ele>1121.3</ele>
      </trkpt>
      <trkpt lat="45.14282" lon="5.48544">
        <ele>1122.4</ele>
      </trkpt>
      <trkpt lat="45.14289" lon="5.48558">
        <ele>1123.8</ele>
      </trkpt>
      <trkpt lat="45.14293" lon="5.48571">
        <ele>1125.1</ele>
      </trkpt>
      <trkpt lat="45.14303" lon="5.48593">
        <ele>1127.4</ele>
      </trkpt>
      <trkpt lat="45.14313" lon="5.48604">
        <ele>1128.5</ele>
      </trkpt>
      <trkpt lat="45.14335" lon="5.48626">
        <ele>1130.5</ele>
      </trkpt>
      <trkpt lat="45.14353" lon="5.4865">
        <ele>1132.4</ele>
      </trkpt>
      <trkpt lat="45.14377" lon="5.48683">
        <ele>1134.5</ele>
      </trkpt>
      <trkpt lat="45.14385" lon="5.48697">
        <ele>1135.4</ele>
      </trkpt>
      <trkpt lat="45.144" lon="5.4873">
        <ele>1137.5</ele>
      </trkpt>
      <trkpt lat="45.14418" lon="5.48761">
        <ele>1140.8</ele>
      </trkpt>
      <trkpt lat="45.14419" lon="5.48769">
        <ele>1143</ele>
      </trkpt>
      <trkpt lat="45.14431" lon="5.48804">
        <ele>1151.4</ele>
      </trkpt>
      <trkpt lat="45.14442" lon="5.48836">
        <ele>1159</ele>
      </trkpt>
      <trkpt lat="45.1445" lon="5.48858">
        <ele>1164.6</ele>
      </trkpt>
      <trkpt lat="45.1446" lon="5.48865">
        <ele>1165.8</ele>
      </trkpt>
      <trkpt lat="45.14511" lon="5.48871">
        <ele>1163.1</ele>
      </trkpt>
      <trkpt lat="45.14526" lon="5.48871">
        <ele>1162.8</ele>
      </trkpt>
      <trkpt lat="45.1454" lon="5.48875">
        <ele>1163.6</ele>
      </trkpt>
      <trkpt lat="45.14573" lon="5.48903">
        <ele>1168.1</ele>
      </trkpt>
      <trkpt lat="45.14595" lon="5.48929">
        <ele>1171</ele>
      </trkpt>
      <trkpt lat="45.14631" lon="5.48991">
        <ele>1177</ele>
      </trkpt>
      <trkpt lat="45.14632" lon="5.49007">
        <ele>1180</ele>
      </trkpt>
      <trkpt lat="45.14668" lon="5.49054">
        <ele>1181.2</ele>
      </trkpt>
      <trkpt lat="45.14761" lon="5.49109">
        <ele>1184.4</ele>
      </trkpt>
      <trkpt lat="45.148" lon="5.49141">
        <ele>1190.1</ele>
      </trkpt>
      <trkpt lat="45.14824" lon="5.49168">
        <ele>1195.3</ele>
      </trkpt>
      <trkpt lat="45.14856" lon="5.49197">
        <ele>1199.4</ele>
      </trkpt>
      <trkpt lat="45.14869" lon="5.49254">
        <ele>1214.1</ele>
      </trkpt>
      <trkpt lat="45.14886" lon="5.49281">
        <ele>1218</ele>
      </trkpt>
      <trkpt lat="45.14903" lon="5.49317">
        <ele>1223.6</ele>
      </trkpt>
      <trkpt lat="45.14919" lon="5.49379">
        <ele>1237.3</ele>
      </trkpt>
      <trkpt lat="45.14931" lon="5.49414">
        <ele>1246.2</ele>
      </trkpt>
      <trkpt lat="45.14967" lon="5.49468">
        <ele>1256.1</ele>
      </trkpt>
      <trkpt lat="45.14998" lon="5.49497">
        <ele>1257.6</ele>
      </trkpt>
      <trkpt lat="45.15056" lon="5.49587">
        <ele>1277.6</ele>
      </trkpt>
      <trkpt lat="45.15077" lon="5.4963">
        <ele>1286.4</ele>
      </trkpt>
      <trkpt lat="45.1511" lon="5.49707">
        <ele>1299.2</ele>
      </trkpt>
      <trkpt lat="45.15114" lon="5.49749">
        <ele>1311.5</ele>
      </trkpt>
      <trkpt lat="45.15133" lon="5.49779">
        <ele>1315.9</ele>
      </trkpt>
      <trkpt lat="45.15161" lon="5.49848">
        <ele>1329.8</ele>
      </trkpt>
      <trkpt lat="45.15208" lon="5.49906">
        <ele>1338.2</ele>
      </trkpt>
      <trkpt lat="45.15257" lon="5.49964">
        <ele>1348.6</ele>
      </trkpt>
      <trkpt lat="45.15287" lon="5.50009">
        <ele>1358.8</ele>
      </trkpt>
      <trkpt lat="45.15298" lon="5.50036">
        <ele>1366.9</ele>
      </trkpt>
      <trkpt lat="45.15327" lon="5.50076">
        <ele>1371.8</ele>
      </trkpt>
      <trkpt lat="45.15356" lon="5.50114">
        <ele>1376.7</ele>
      </trkpt>
      <trkpt lat="45.15381" lon="5.50169">
        <ele>1392.3</ele>
      </trkpt>
      <trkpt lat="45.15376" lon="5.50182">
        <ele>1398.3</ele>
      </trkpt>
      <trkpt lat="45.15366" lon="5.50184">
        <ele>1402.9</ele>
      </trkpt>
      <trkpt lat="45.15374" lon="5.50205">
        <ele>1405.9</ele>
      </trkpt>
      <trkpt lat="45.15377" lon="5.50213">
        <ele>1407.5</ele>
      </trkpt>
      <trkpt lat="45.1538" lon="5.50219">
        <ele>1408.4</ele>
      </trkpt>
      <trkpt lat="45.15382" lon="5.50231">
        <ele>1411.8</ele>
      </trkpt>
      <trkpt lat="45.15381" lon="5.50235">
        <ele>1413.4</ele>
      </trkpt>
      <trkpt lat="45.15379" lon="5.50238">
        <ele>1414.9</ele>
      </trkpt>
      <trkpt lat="45.15377" lon="5.50245">
        <ele>1417.4</ele>
      </trkpt>
      <trkpt lat="45.15376" lon="5.50258">
        <ele>1418.6</ele>
      </trkpt>
      <trkpt lat="45.15381" lon="5.50262">
        <ele>1417.2</ele>
      </trkpt>
      <trkpt lat="45.15391" lon="5.50271">
        <ele>1414.9</ele>
      </trkpt>
      <trkpt lat="45.15408" lon="5.50281">
        <ele>1412.5</ele>
      </trkpt>
      <trkpt lat="45.15411" lon="5.50282">
        <ele>1412</ele>
      </trkpt>
      <trkpt lat="45.15422" lon="5.50295">
        <ele>1411.3</ele>
      </trkpt>
      <trkpt lat="45.15424" lon="5.50305">
        <ele>1412</ele>
      </trkpt>
      <trkpt lat="45.15434" lon="5.50313">
        <ele>1411.8</ele>
      </trkpt>
      <trkpt lat="45.15442" lon="5.50315">
        <ele>1411.5</ele>
      </trkpt>
      <trkpt lat="45.15448" lon="5.50319">
        <ele>1411.6</ele>
      </trkpt>
      <trkpt lat="45.15453" lon="5.50325">
        <ele>1412.6</ele>
      </trkpt>
      <trkpt lat="45.15463" lon="5.50329">
        <ele>1413.3</ele>
      </trkpt>
      <trkpt lat="45.15471" lon="5.50337">
        <ele>1414</ele>
      </trkpt>
      <trkpt lat="45.15481" lon="5.50345">
        <ele>1413.4</ele>
      </trkpt>
      <trkpt lat="45.15486" lon="5.50355">
        <ele>1413</ele>
      </trkpt>
      <trkpt lat="45.15498" lon="5.5037">
        <ele>1413.4</ele>
      </trkpt>
      <trkpt lat="45.15503" lon="5.50381">
        <ele>1413.5</ele>
      </trkpt>
      <trkpt lat="45.15502" lon="5.50387">
        <ele>1413.5</ele>
      </trkpt>
      <trkpt lat="45.15504" lon="5.50394">
        <ele>1413.7</ele>
      </trkpt>
      <trkpt lat="45.15509" lon="5.50404">
        <ele>1414.6</ele>
      </trkpt>
      <trkpt lat="45.15508" lon="5.50411">
        <ele>1414.8</ele>
      </trkpt>
      <trkpt lat="45.15509" lon="5.50419">
        <ele>1415</ele>
      </trkpt>
      <trkpt lat="45.15507" lon="5.50427">
        <ele>1413.3</ele>
      </trkpt>
      <trkpt lat="45.15509" lon="5.50436">
        <ele>1412.5</ele>
      </trkpt>
      <trkpt lat="45.15506" lon="5.50449">
        <ele>1410.1</ele>
      </trkpt>
      <trkpt lat="45.15508" lon="5.50457">
        <ele>1409.5</ele>
      </trkpt>
      <trkpt lat="45.15509" lon="5.50471">
        <ele>1407.8</ele>
      </trkpt>
      <trkpt lat="45.15513" lon="5.50483">
        <ele>1407.3</ele>
      </trkpt>
      <trkpt lat="45.15509" lon="5.50493">
        <ele>1404.7</ele>
      </trkpt>
      <trkpt lat="45.1551" lon="5.50505">
        <ele>1402.6</ele>
      </trkpt>
      <trkpt lat="45.15519" lon="5.50517">
        <ele>1402.1</ele>
      </trkpt>
      <trkpt lat="45.15525" lon="5.50532">
        <ele>1399.6</ele>
      </trkpt>
      <trkpt lat="45.15534" lon="5.50539">
        <ele>1400.2</ele>
      </trkpt>
      <trkpt lat="45.15538" lon="5.50546">
        <ele>1399.7</ele>
      </trkpt>
      <trkpt lat="45.15548" lon="5.50561">
        <ele>1398.1</ele>
      </trkpt>
      <trkpt lat="45.15555" lon="5.50572">
        <ele>1397.1</ele>
      </trkpt>
      <trkpt lat="45.15566" lon="5.50582">
        <ele>1397.1</ele>
      </trkpt>
      <trkpt lat="45.15587" lon="5.50612">
        <ele>1392.3</ele>
      </trkpt>
      <trkpt lat="45.156" lon="5.50625">
        <ele>1391.6</ele>
      </trkpt>
      <trkpt lat="45.15615" lon="5.50653">
        <ele>1386.4</ele>
      </trkpt>
      <trkpt lat="45.15637" lon="5.50672">
        <ele>1387.3</ele>
      </trkpt>
      <trkpt lat="45.15672" lon="5.5072">
        <ele>1382.9</ele>
      </trkpt>
      <trkpt lat="45.15689" lon="5.50741">
        <ele>1381.5</ele>
      </trkpt>
      <trkpt lat="45.15712" lon="5.50766">
        <ele>1381.1</ele>
      </trkpt>
      <trkpt lat="45.15732" lon="5.50793">
        <ele>1379.1</ele>
      </trkpt>
      <trkpt lat="45.15749" lon="5.50809">
        <ele>1378.8</ele>
      </trkpt>
      <trkpt lat="45.15765" lon="5.50823">
        <ele>1376.3</ele>
      </trkpt>
      <trkpt lat="45.15771" lon="5.50829">
        <ele>1375.1</ele>
      </trkpt>
      <trkpt lat="45.15775" lon="5.50819">
        <ele>1379.1</ele>
      </trkpt>
      <trkpt lat="45.15783" lon="5.50827">
        <ele>1377.2</ele>
      </trkpt>
      <trkpt lat="45.15805" lon="5.5084">
        <ele>1375.4</ele>
      </trkpt>
      <trkpt lat="45.15815" lon="5.50854">
        <ele>1371.4</ele>
      </trkpt>
      <trkpt lat="45.1582" lon="5.50849">
        <ele>1373.9</ele>
      </trkpt>
      <trkpt lat="45.15835" lon="5.5086">
        <ele>1371.6</ele>
      </trkpt>
      <trkpt lat="45.15859" lon="5.5088">
        <ele>1366.9</ele>
      </trkpt>
      <trkpt lat="45.15879" lon="5.50899">
        <ele>1362.3</ele>
      </trkpt>
      <trkpt lat="45.15902" lon="5.50921">
        <ele>1357.2</ele>
      </trkpt>
      <trkpt lat="45.1594" lon="5.50953">
        <ele>1354.1</ele>
      </trkpt>
      <trkpt lat="45.15951" lon="5.50982">
        <ele>1348.8</ele>
      </trkpt>
      <trkpt lat="45.15958" lon="5.51033">
        <ele>1336.7</ele>
      </trkpt>
      <trkpt lat="45.15981" lon="5.5106">
        <ele>1334.1</ele>
      </trkpt>
      <trkpt lat="45.1601" lon="5.5108">
        <ele>1334.2</ele>
      </trkpt>
      <trkpt lat="45.16057" lon="5.51122">
        <ele>1328.8</ele>
      </trkpt>
      <trkpt lat="45.16108" lon="5.51149">
        <ele>1327.5</ele>
      </trkpt>
      <trkpt lat="45.1612" lon="5.51202">
        <ele>1313.5</ele>
      </trkpt>
      <trkpt lat="45.16144" lon="5.51252">
        <ele>1301.6</ele>
      </trkpt>
      <trkpt lat="45.16186" lon="5.51292">
        <ele>1294.7</ele>
      </trkpt>
      <trkpt lat="45.1624" lon="5.51322">
        <ele>1292.6</ele>
      </trkpt>
      <trkpt lat="45.1628" lon="5.51361">
        <ele>1287.2</ele>
      </trkpt>
      <trkpt lat="45.16295" lon="5.51391">
        <ele>1282.1</ele>
      </trkpt>
      <trkpt lat="45.16303" lon="5.51438">
        <ele>1272.6</ele>
      </trkpt>
      <trkpt lat="45.16308" lon="5.51486">
        <ele>1263.3</ele>
      </trkpt>
      <trkpt lat="45.16335" lon="5.51525">
        <ele>1257.5</ele>
      </trkpt>
      <trkpt lat="45.16357" lon="5.51549">
        <ele>1251.9</ele>
      </trkpt>
      <trkpt lat="45.16377" lon="5.5157">
        <ele>1246.7</ele>
      </trkpt>
      <trkpt lat="45.16396" lon="5.51586">
        <ele>1242.9</ele>
      </trkpt>
      <trkpt lat="45.16415" lon="5.5163">
        <ele>1228.5</ele>
      </trkpt>
      <trkpt lat="45.16418" lon="5.51665">
        <ele>1216.7</ele>
      </trkpt>
      <trkpt lat="45.16424" lon="5.51699">
        <ele>1207.8</ele>
      </trkpt>
      <trkpt lat="45.16433" lon="5.51721">
        <ele>1202.7</ele>
      </trkpt>
      <trkpt lat="45.16441" lon="5.51739">
        <ele>1199.1</ele>
      </trkpt>
      <trkpt lat="45.16469" lon="5.51764">
        <ele>1196.6</ele>
      </trkpt>
      <trkpt lat="45.16503" lon="5.5177">
        <ele>1199.4</ele>
      </trkpt>
      <trkpt lat="45.16524" lon="5.51781">
        <ele>1199.6</ele>
      </trkpt>
      <trkpt lat="45.16525" lon="5.51826">
        <ele>1189.4</ele>
      </trkpt>
      <trkpt lat="45.16542" lon="5.51861">
        <ele>1180.4</ele>
      </trkpt>
      <trkpt lat="45.16507" lon="5.51876">
        <ele>1170.2</ele>
      </trkpt>
      <trkpt lat="45.16546" lon="5.51925">
        <ele>1159.3</ele>
      </trkpt>
      <trkpt lat="45.16563" lon="5.51986">
        <ele>1139.6</ele>
      </trkpt>
      <trkpt lat="45.16637" lon="5.52036">
        <ele>1131.2</ele>
      </trkpt>
      <trkpt lat="45.16678" lon="5.52057">
        <ele>1127.6</ele>
      </trkpt>
      <trkpt lat="45.16693" lon="5.52085">
        <ele>1118.5</ele>
      </trkpt>
      <trkpt lat="45.16745" lon="5.5213">
        <ele>1111.6</ele>
      </trkpt>
      <trkpt lat="45.16777" lon="5.52171">
        <ele>1103.4</ele>
      </trkpt>
      <trkpt lat="45.16809" lon="5.52165">
        <ele>1107.4</ele>
      </trkpt>
      <trkpt lat="45.16806" lon="5.52209">
        <ele>1097.9</ele>
      </trkpt>
      <trkpt lat="45.16799" lon="5.52258">
        <ele>1086.5</ele>
      </trkpt>
      <trkpt lat="45.16805" lon="5.52308">
        <ele>1074.2</ele>
      </trkpt>
      <trkpt lat="45.16824" lon="5.52347">
        <ele>1066.8</ele>
      </trkpt>
      <trkpt lat="45.16875" lon="5.52384">
        <ele>1064.6</ele>
      </trkpt>
      <trkpt lat="45.16917" lon="5.52389">
        <ele>1068.4</ele>
      </trkpt>
      <trkpt lat="45.16965" lon="5.52389">
        <ele>1078.5</ele>
      </trkpt>
      <trkpt lat="45.17008" lon="5.52397">
        <ele>1084.9</ele>
      </trkpt>
      <trkpt lat="45.17038" lon="5.524">
        <ele>1086.5</ele>
      </trkpt>
      <trkpt lat="45.17058" lon="5.52383">
        <ele>1091.7</ele>
      </trkpt>
      <trkpt lat="45.17081" lon="5.52378">
        <ele>1094.7</ele>
      </trkpt>
      <trkpt lat="45.17106" lon="5.52395">
        <ele>1094.1</ele>
      </trkpt>
      <trkpt lat="45.17107" lon="5.52429">
        <ele>1086.4</ele>
      </trkpt>
      <trkpt lat="45.17125" lon="5.52444">
        <ele>1085.4</ele>
      </trkpt>
      <trkpt lat="45.1718" lon="5.52465">
        <ele>1085.7</ele>
      </trkpt>
      <trkpt lat="45.17215" lon="5.52468">
        <ele>1086.1</ele>
      </trkpt>
      <trkpt lat="45.17234" lon="5.52491">
        <ele>1081.4</ele>
      </trkpt>
      <trkpt lat="45.17251" lon="5.52497">
        <ele>1080.5</ele>
      </trkpt>
      <trkpt lat="45.17289" lon="5.52509">
        <ele>1070.9</ele>
      </trkpt>
      <trkpt lat="45.17302" lon="5.5251">
        <ele>1068.8</ele>
      </trkpt>
      <trkpt lat="45.17342" lon="5.52511">
        <ele>1063.4</ele>
      </trkpt>
      <trkpt lat="45.17365" lon="5.52515">
        <ele>1062.9</ele>
      </trkpt>
      <trkpt lat="45.17381" lon="5.5252">
        <ele>1061.9</ele>
      </trkpt>
      <trkpt lat="45.17417" lon="5.52527">
        <ele>1061.7</ele>
      </trkpt>
      <trkpt lat="45.17435" lon="5.52529">
        <ele>1063.2</ele>
      </trkpt>
      <trkpt lat="45.17477" lon="5.52534">
        <ele>1066.4</ele>
      </trkpt>
      <trkpt lat="45.1754" lon="5.52541">
        <ele>1073.3</ele>
      </trkpt>
      <trkpt lat="45.17566" lon="5.52565">
        <ele>1069.7</ele>
      </trkpt>
      <trkpt lat="45.17611" lon="5.5258">
        <ele>1074.8</ele>
      </trkpt>
      <trkpt lat="45.17643" lon="5.52604">
        <ele>1077.7</ele>
      </trkpt>
      <trkpt lat="45.17673" lon="5.52586">
        <ele>1090.3</ele>
      </trkpt>
      <trkpt lat="45.17715" lon="5.52583">
        <ele>1104.9</ele>
      </trkpt>
      <trkpt lat="45.17737" lon="5.526">
        <ele>1107</ele>
      </trkpt>
      <trkpt lat="45.17772" lon="5.52663">
        <ele>1100.5</ele>
      </trkpt>
      <trkpt lat="45.17786" lon="5.52703">
        <ele>1096.3</ele>
      </trkpt>
      <trkpt lat="45.17809" lon="5.52737">
        <ele>1095.3</ele>
      </trkpt>
      <trkpt lat="45.1784" lon="5.52771">
        <ele>1093.3</ele>
      </trkpt>
      <trkpt lat="45.17872" lon="5.52792">
        <ele>1090.1</ele>
      </trkpt>
      <trkpt lat="45.17913" lon="5.52827">
        <ele>1082.6</ele>
      </trkpt>
      <trkpt lat="45.17931" lon="5.52832">
        <ele>1082</ele>
      </trkpt>
      <trkpt lat="45.17955" lon="5.52828">
        <ele>1084.1</ele>
      </trkpt>
      <trkpt lat="45.17955" lon="5.52804">
        <ele>1091.2</ele>
      </trkpt>
      <trkpt lat="45.17958" lon="5.52756">
        <ele>1105.7</ele>
      </trkpt>
      <trkpt lat="45.17965" lon="5.52711">
        <ele>1120.3</ele>
      </trkpt>
      <trkpt lat="45.17958" lon="5.5269">
        <ele>1127.1</ele>
      </trkpt>
      <trkpt lat="45.17931" lon="5.52671">
        <ele>1132.1</ele>
      </trkpt>
      <trkpt lat="45.17908" lon="5.52638">
        <ele>1139.2</ele>
      </trkpt>
      <trkpt lat="45.179" lon="5.52584">
        <ele>1152.1</ele>
      </trkpt>
      <trkpt lat="45.17905" lon="5.52561">
        <ele>1156.4</ele>
      </trkpt>
      <trkpt lat="45.17933" lon="5.52539">
        <ele>1160.8</ele>
      </trkpt>
      <trkpt lat="45.17963" lon="5.52527">
        <ele>1163</ele>
      </trkpt>
      <trkpt lat="45.17993" lon="5.52541">
        <ele>1162.4</ele>
      </trkpt>
      <trkpt lat="45.18004" lon="5.52589">
        <ele>1158.6</ele>
      </trkpt>
      <trkpt lat="45.18042" lon="5.52643">
        <ele>1154.1</ele>
      </trkpt>
      <trkpt lat="45.18092" lon="5.52693">
        <ele>1151.2</ele>
      </trkpt>
      <trkpt lat="45.18163" lon="5.52754">
        <ele>1150.3</ele>
      </trkpt>
      <trkpt lat="45.18205" lon="5.52762">
        <ele>1157.7</ele>
      </trkpt>
      <trkpt lat="45.18255" lon="5.52784">
        <ele>1162.8</ele>
      </trkpt>
      <trkpt lat="45.18285" lon="5.52815">
        <ele>1162.5</ele>
      </trkpt>
      <trkpt lat="45.18338" lon="5.52869">
        <ele>1165.6</ele>
      </trkpt>
      <trkpt lat="45.18366" lon="5.52898">
        <ele>1166.7</ele>
      </trkpt>
      <trkpt lat="45.18434" lon="5.52974">
        <ele>1163.9</ele>
      </trkpt>
      <trkpt lat="45.1847" lon="5.53005">
        <ele>1162.5</ele>
      </trkpt>
      <trkpt lat="45.18541" lon="5.53053">
        <ele>1170</ele>
      </trkpt>
      <trkpt lat="45.18568" lon="5.5311">
        <ele>1163.6</ele>
      </trkpt>
      <trkpt lat="45.18616" lon="5.53135">
        <ele>1168.7</ele>
      </trkpt>
      <trkpt lat="45.18677" lon="5.53158">
        <ele>1176</ele>
      </trkpt>
      <trkpt lat="45.18722" lon="5.53198">
        <ele>1178</ele>
      </trkpt>
      <trkpt lat="45.18765" lon="5.5324">
        <ele>1177.6</ele>
      </trkpt>
      <trkpt lat="45.18788" lon="5.53231">
        <ele>1184.7</ele>
      </trkpt>
      <trkpt lat="45.18835" lon="5.53265">
        <ele>1187.2</ele>
      </trkpt>
      <trkpt lat="45.18891" lon="5.53324">
        <ele>1184.5</ele>
      </trkpt>
      <trkpt lat="45.18935" lon="5.5335">
        <ele>1185.7</ele>
      </trkpt>
      <trkpt lat="45.18953" lon="5.53356">
        <ele>1187.8</ele>
      </trkpt>
      <trkpt lat="45.18998" lon="5.53372">
        <ele>1193.1</ele>
      </trkpt>
      <trkpt lat="45.19022" lon="5.53379">
        <ele>1196</ele>
      </trkpt>
      <trkpt lat="45.19063" lon="5.53369">
        <ele>1204.5</ele>
      </trkpt>
      <trkpt lat="45.19091" lon="5.53355">
        <ele>1212</ele>
      </trkpt>
      <trkpt lat="45.19125" lon="5.53342">
        <ele>1222.2</ele>
      </trkpt>
      <trkpt lat="45.19164" lon="5.53361">
        <ele>1229.5</ele>
      </trkpt>
      <trkpt lat="45.19197" lon="5.53386">
        <ele>1234.1</ele>
      </trkpt>
      <trkpt lat="45.1925" lon="5.53415">
        <ele>1240.3</ele>
      </trkpt>
      <trkpt lat="45.193" lon="5.53423">
        <ele>1249.3</ele>
      </trkpt>
      <trkpt lat="45.19331" lon="5.53419">
        <ele>1256.2</ele>
      </trkpt>
      <trkpt lat="45.1937" lon="5.53413">
        <ele>1262.2</ele>
      </trkpt>
      <trkpt lat="45.19407" lon="5.5341">
        <ele>1267.4</ele>
      </trkpt>
      <trkpt lat="45.19457" lon="5.53389">
        <ele>1277.5</ele>
      </trkpt>
      <trkpt lat="45.19544" lon="5.5337">
        <ele>1289.1</ele>
      </trkpt>
      <trkpt lat="45.19612" lon="5.53372">
        <ele>1294.4</ele>
      </trkpt>
      <trkpt lat="45.19635" lon="5.53379">
        <ele>1295.3</ele>
      </trkpt>
      <trkpt lat="45.19709" lon="5.53405">
        <ele>1302.9</ele>
      </trkpt>
      <trkpt lat="45.19756" lon="5.53415">
        <ele>1310.7</ele>
      </trkpt>
      <trkpt lat="45.19772" lon="5.53406">
        <ele>1315.6</ele>
      </trkpt>
      <trkpt lat="45.1977" lon="5.53388">
        <ele>1318</ele>
      </trkpt>
      <trkpt lat="45.19772" lon="5.53369">
        <ele>1321.7</ele>
      </trkpt>
      <trkpt lat="45.1977" lon="5.53349">
        <ele>1324.3</ele>
      </trkpt>
      <trkpt lat="45.19742" lon="5.53276">
        <ele>1336.3</ele>
      </trkpt>
      <trkpt lat="45.19711" lon="5.53235">
        <ele>1342.2</ele>
      </trkpt>
      <trkpt lat="45.19663" lon="5.53207">
        <ele>1342.1</ele>
      </trkpt>
      <trkpt lat="45.19673" lon="5.53171">
        <ele>1353.9</ele>
      </trkpt>
      <trkpt lat="45.19689" lon="5.53173">
        <ele>1355.7</ele>
      </trkpt>
      <trkpt lat="45.19731" lon="5.53179">
        <ele>1360.6</ele>
      </trkpt>
      <trkpt lat="45.19812" lon="5.53185">
        <ele>1374.8</ele>
      </trkpt>
      <trkpt lat="45.19863" lon="5.53191">
        <ele>1381.8</ele>
      </trkpt>
      <trkpt lat="45.19906" lon="5.53201">
        <ele>1385.6</ele>
      </trkpt>
      <trkpt lat="45.19974" lon="5.53215">
        <ele>1392.2</ele>
      </trkpt>
      <trkpt lat="45.20024" lon="5.53231">
        <ele>1398.7</ele>
      </trkpt>
      <trkpt lat="45.20078" lon="5.53248">
        <ele>1408.2</ele>
      </trkpt>
      <trkpt lat="45.2009" lon="5.53257">
        <ele>1409</ele>
      </trkpt>
      <trkpt lat="45.2013" lon="5.53276">
        <ele>1414</ele>
      </trkpt>
      <trkpt lat="45.20178" lon="5.53296">
        <ele>1420</ele>
      </trkpt>
      <trkpt lat="45.2022" lon="5.53317">
        <ele>1425.2</ele>
      </trkpt>
      <trkpt lat="45.20253" lon="5.5334">
        <ele>1427.9</ele>
      </trkpt>
      <trkpt lat="45.20285" lon="5.53362">
        <ele>1427.8</ele>
      </trkpt>
      <trkpt lat="45.20323" lon="5.53374">
        <ele>1431.8</ele>
      </trkpt>
      <trkpt lat="45.20347" lon="5.53379">
        <ele>1435.1</ele>
      </trkpt>
      <trkpt lat="45.20386" lon="5.53403">
        <ele>1433.9</ele>
      </trkpt>
      <trkpt lat="45.2042" lon="5.5342">
        <ele>1432.7</ele>
      </trkpt>
      <trkpt lat="45.20452" lon="5.53431">
        <ele>1437.1</ele>
      </trkpt>
      <trkpt lat="45.20477" lon="5.53458">
        <ele>1433.5</ele>
      </trkpt>
      <trkpt lat="45.20499" lon="5.53475">
        <ele>1432.4</ele>
      </trkpt>
      <trkpt lat="45.20529" lon="5.53498">
        <ele>1433.3</ele>
      </trkpt>
      <trkpt lat="45.20559" lon="5.5351">
        <ele>1438.5</ele>
      </trkpt>
      <trkpt lat="45.20601" lon="5.53524">
        <ele>1445.7</ele>
      </trkpt>
      <trkpt lat="45.2063" lon="5.53543">
        <ele>1447.2</ele>
      </trkpt>
      <trkpt lat="45.20651" lon="5.53553">
        <ele>1449.6</ele>
      </trkpt>
      <trkpt lat="45.20672" lon="5.53561">
        <ele>1452.9</ele>
      </trkpt>
      <trkpt lat="45.207" lon="5.53573">
        <ele>1455.1</ele>
      </trkpt>
      <trkpt lat="45.2073" lon="5.53576">
        <ele>1460.2</ele>
      </trkpt>
      <trkpt lat="45.20757" lon="5.536">
        <ele>1457</ele>
      </trkpt>
      <trkpt lat="45.2078" lon="5.53612">
        <ele>1457.3</ele>
      </trkpt>
      <trkpt lat="45.2081" lon="5.53626">
        <ele>1458.9</ele>
      </trkpt>
      <trkpt lat="45.20842" lon="5.53641">
        <ele>1461.5</ele>
      </trkpt>
      <trkpt lat="45.2087" lon="5.53644">
        <ele>1467.2</ele>
      </trkpt>
      <trkpt lat="45.20901" lon="5.53654">
        <ele>1471.6</ele>
      </trkpt>
      <trkpt lat="45.20921" lon="5.53672">
        <ele>1471</ele>
      </trkpt>
      <trkpt lat="45.20944" lon="5.53677">
        <ele>1472.9</ele>
      </trkpt>
      <trkpt lat="45.20965" lon="5.5368">
        <ele>1475.6</ele>
      </trkpt>
      <trkpt lat="45.20996" lon="5.53669">
        <ele>1483.6</ele>
      </trkpt>
      <trkpt lat="45.21026" lon="5.53667">
        <ele>1489.7</ele>
      </trkpt>
      <trkpt lat="45.21046" lon="5.53668">
        <ele>1492.7</ele>
      </trkpt>
      <trkpt lat="45.2107" lon="5.53683">
        <ele>1493.1</ele>
      </trkpt>
      <trkpt lat="45.21094" lon="5.53686">
        <ele>1496.7</ele>
      </trkpt>
      <trkpt lat="45.21128" lon="5.537">
        <ele>1498.6</ele>
      </trkpt>
      <trkpt lat="45.21159" lon="5.537">
        <ele>1504.2</ele>
      </trkpt>
      <trkpt lat="45.21189" lon="5.53716">
        <ele>1503.4</ele>
      </trkpt>
      <trkpt lat="45.21212" lon="5.53723">
        <ele>1503.8</ele>
      </trkpt>
      <trkpt lat="45.21245" lon="5.53733">
        <ele>1504.4</ele>
      </trkpt>
      <trkpt lat="45.21277" lon="5.53743">
        <ele>1505.5</ele>
      </trkpt>
      <trkpt lat="45.21311" lon="5.53743">
        <ele>1510.8</ele>
      </trkpt>
      <trkpt lat="45.21348" lon="5.53737">
        <ele>1517.6</ele>
      </trkpt>
      <trkpt lat="45.21369" lon="5.53739">
        <ele>1518.4</ele>
      </trkpt>
      <trkpt lat="45.21393" lon="5.53734">
        <ele>1522</ele>
      </trkpt>
      <trkpt lat="45.21428" lon="5.53726">
        <ele>1527.9</ele>
      </trkpt>
      <trkpt lat="45.21455" lon="5.53716">
        <ele>1534.7</ele>
      </trkpt>
      <trkpt lat="45.21488" lon="5.53718">
        <ele>1537.7</ele>
      </trkpt>
      <trkpt lat="45.21501" lon="5.53715">
        <ele>1540.5</ele>
      </trkpt>
      <trkpt lat="45.21512" lon="5.53712">
        <ele>1542.6</ele>
      </trkpt>
      <trkpt lat="45.21522" lon="5.53706">
        <ele>1545.8</ele>
      </trkpt>
      <trkpt lat="45.21568" lon="5.53696">
        <ele>1552.4</ele>
      </trkpt>
      <trkpt lat="45.21613" lon="5.53699">
        <ele>1556.9</ele>
      </trkpt>
      <trkpt lat="45.2165" lon="5.53711">
        <ele>1557.3</ele>
      </trkpt>
      <trkpt lat="45.2167" lon="5.53715">
        <ele>1558.4</ele>
      </trkpt>
      <trkpt lat="45.21703" lon="5.53718">
        <ele>1561.4</ele>
      </trkpt>
      <trkpt lat="45.2177" lon="5.53733">
        <ele>1561.8</ele>
      </trkpt>
      <trkpt lat="45.21836" lon="5.53737">
        <ele>1562</ele>
      </trkpt>
      <trkpt lat="45.21882" lon="5.53738">
        <ele>1564.2</ele>
      </trkpt>
      <trkpt lat="45.21919" lon="5.53743">
        <ele>1564.6</ele>
      </trkpt>
      <trkpt lat="45.2195" lon="5.53748">
        <ele>1562.8</ele>
      </trkpt>
      <trkpt lat="45.21966" lon="5.53727">
        <ele>1570.9</ele>
      </trkpt>
      <trkpt lat="45.22036" lon="5.53696">
        <ele>1583</ele>
      </trkpt>
      <trkpt lat="45.22127" lon="5.53672">
        <ele>1585.5</ele>
      </trkpt>
      <trkpt lat="45.22195" lon="5.53674">
        <ele>1584.4</ele>
      </trkpt>
      <trkpt lat="45.22216" lon="5.53678">
        <ele>1585.6</ele>
      </trkpt>
      <trkpt lat="45.22227" lon="5.5368">
        <ele>1586.3</ele>
      </trkpt>
      <trkpt lat="45.22234" lon="5.53678">
        <ele>1587.3</ele>
      </trkpt>
      <trkpt lat="45.22238" lon="5.53677">
        <ele>1587.7</ele>
      </trkpt>
      <trkpt lat="45.22257" lon="5.53668">
        <ele>1590</ele>
      </trkpt>
      <trkpt lat="45.22265" lon="5.53668">
        <ele>1590</ele>
      </trkpt>
      <trkpt lat="45.22271" lon="5.53667">
        <ele>1590.2</ele>
      </trkpt>
      <trkpt lat="45.22292" lon="5.53667">
        <ele>1590.4</ele>
      </trkpt>
      <trkpt lat="45.22318" lon="5.53669">
        <ele>1590.6</ele>
      </trkpt>
      <trkpt lat="45.22325" lon="5.53672">
        <ele>1590.5</ele>
      </trkpt>
      <trkpt lat="45.2233" lon="5.53674">
        <ele>1590.3</ele>
      </trkpt>
      <trkpt lat="45.22336" lon="5.53676">
        <ele>1590.3</ele>
      </trkpt>
      <trkpt lat="45.2234" lon="5.53674">
        <ele>1590.6</ele>
      </trkpt>
      <trkpt lat="45.22343" lon="5.53675">
        <ele>1590.5</ele>
      </trkpt>
      <trkpt lat="45.22348" lon="5.53691">
        <ele>1589.2</ele>
      </trkpt>
      <trkpt lat="45.2239" lon="5.53708">
        <ele>1587.8</ele>
      </trkpt>
      <trkpt lat="45.22414" lon="5.53726">
        <ele>1585.9</ele>
      </trkpt>
      <trkpt lat="45.22474" lon="5.53729">
        <ele>1563.5</ele>
      </trkpt>
      <trkpt lat="45.22545" lon="5.53777">
        <ele>1566.5</ele>
      </trkpt>
      <trkpt lat="45.22571" lon="5.53801">
        <ele>1564.6</ele>
      </trkpt>
      <trkpt lat="45.22594" lon="5.53815">
        <ele>1559.2</ele>
      </trkpt>
      <trkpt lat="45.22611" lon="5.53822">
        <ele>1554.4</ele>
      </trkpt>
      <trkpt lat="45.22637" lon="5.53831">
        <ele>1552.8</ele>
      </trkpt>
      <trkpt lat="45.22668" lon="5.53845">
        <ele>1548.1</ele>
      </trkpt>
      <trkpt lat="45.22676" lon="5.53848">
        <ele>1538.8</ele>
      </trkpt>
      <trkpt lat="45.22697" lon="5.53855">
        <ele>1517.5</ele>
      </trkpt>
      <trkpt lat="45.22716" lon="5.5387">
        <ele>1506.1</ele>
      </trkpt>
      <trkpt lat="45.22737" lon="5.53891">
        <ele>1505.5</ele>
      </trkpt>
      <trkpt lat="45.22742" lon="5.53904">
        <ele>1513.7</ele>
      </trkpt>
      <trkpt lat="45.22756" lon="5.53921">
        <ele>1514.2</ele>
      </trkpt>
      <trkpt lat="45.22761" lon="5.53935">
        <ele>1511.9</ele>
      </trkpt>
      <trkpt lat="45.22766" lon="5.5394">
        <ele>1508.2</ele>
      </trkpt>
      <trkpt lat="45.22771" lon="5.53942">
        <ele>1503.7</ele>
      </trkpt>
      <trkpt lat="45.22775" lon="5.53947">
        <ele>1501.7</ele>
      </trkpt>
      <trkpt lat="45.22777" lon="5.53957">
        <ele>1504.5</ele>
      </trkpt>
      <trkpt lat="45.22777" lon="5.53966">
        <ele>1508.7</ele>
      </trkpt>
      <trkpt lat="45.2278" lon="5.53979">
        <ele>1512.3</ele>
      </trkpt>
      <trkpt lat="45.22788" lon="5.53998">
        <ele>1519</ele>
      </trkpt>
      <trkpt lat="45.22792" lon="5.54014">
        <ele>1519.9</ele>
      </trkpt>
      <trkpt lat="45.22795" lon="5.54057">
        <ele>1523.5</ele>
      </trkpt>
      <trkpt lat="45.22784" lon="5.54101">
        <ele>1528.8</ele>
      </trkpt>
      <trkpt lat="45.22785" lon="5.54119">
        <ele>1529.2</ele>
      </trkpt>
      <trkpt lat="45.22805" lon="5.54148">
        <ele>1527.6</ele>
      </trkpt>
      <trkpt lat="45.22822" lon="5.54189">
        <ele>1531.6</ele>
      </trkpt>
      <trkpt lat="45.2285" lon="5.54217">
        <ele>1533.3</ele>
      </trkpt>
      <trkpt lat="45.22874" lon="5.54243">
        <ele>1535.8</ele>
      </trkpt>
      <trkpt lat="45.22914" lon="5.54275">
        <ele>1538.9</ele>
      </trkpt>
      <trkpt lat="45.22959" lon="5.54311">
        <ele>1543</ele>
      </trkpt>
      <trkpt lat="45.22977" lon="5.54316">
        <ele>1541.4</ele>
      </trkpt>
      <trkpt lat="45.23029" lon="5.54313">
        <ele>1535.3</ele>
      </trkpt>
      <trkpt lat="45.23048" lon="5.54315">
        <ele>1534.7</ele>
      </trkpt>
      <trkpt lat="45.23132" lon="5.54359">
        <ele>1534.1</ele>
      </trkpt>
      <trkpt lat="45.23159" lon="5.54388">
        <ele>1532.4</ele>
      </trkpt>
      <trkpt lat="45.23178" lon="5.5439">
        <ele>1530</ele>
      </trkpt>
      <trkpt lat="45.23202" lon="5.54384">
        <ele>1527.6</ele>
      </trkpt>
      <trkpt lat="45.23242" lon="5.54385">
        <ele>1524.1</ele>
      </trkpt>
      <trkpt lat="45.23258" lon="5.54395">
        <ele>1521.8</ele>
      </trkpt>
      <trkpt lat="45.23268" lon="5.54415">
        <ele>1522.6</ele>
      </trkpt>
      <trkpt lat="45.23296" lon="5.54447">
        <ele>1523.4</ele>
      </trkpt>
      <trkpt lat="45.23343" lon="5.54466">
        <ele>1527.8</ele>
      </trkpt>
      <trkpt lat="45.23355" lon="5.54472">
        <ele>1530.6</ele>
      </trkpt>
      <trkpt lat="45.23366" lon="5.54479">
        <ele>1533.4</ele>
      </trkpt>
      <trkpt lat="45.23387" lon="5.54481">
        <ele>1537.9</ele>
      </trkpt>
      <trkpt lat="45.23412" lon="5.54482">
        <ele>1542.9</ele>
      </trkpt>
      <trkpt lat="45.2343" lon="5.54494">
        <ele>1547.2</ele>
      </trkpt>
      <trkpt lat="45.23454" lon="5.54478">
        <ele>1537.7</ele>
      </trkpt>
      <trkpt lat="45.23478" lon="5.5448">
        <ele>1536.2</ele>
      </trkpt>
      <trkpt lat="45.23496" lon="5.54481">
        <ele>1535.3</ele>
      </trkpt>
      <trkpt lat="45.23522" lon="5.54487">
        <ele>1516.7</ele>
      </trkpt>
      <trkpt lat="45.23528" lon="5.54494">
        <ele>1517.1</ele>
      </trkpt>
      <trkpt lat="45.23527" lon="5.54503">
        <ele>1524.4</ele>
      </trkpt>
      <trkpt lat="45.23521" lon="5.54522">
        <ele>1530.3</ele>
      </trkpt>
      <trkpt lat="45.23517" lon="5.54526">
        <ele>1534.8</ele>
      </trkpt>
      <trkpt lat="45.23514" lon="5.54546">
        <ele>1537.9</ele>
      </trkpt>
      <trkpt lat="45.2351" lon="5.54558">
        <ele>1543.2</ele>
      </trkpt>
      <trkpt lat="45.23504" lon="5.5457">
        <ele>1550.8</ele>
      </trkpt>
      <trkpt lat="45.23501" lon="5.546">
        <ele>1557.3</ele>
      </trkpt>
      <trkpt lat="45.23494" lon="5.54616">
        <ele>1559.1</ele>
      </trkpt>
      <trkpt lat="45.23493" lon="5.54643">
        <ele>1560.8</ele>
      </trkpt>
      <trkpt lat="45.23495" lon="5.54668">
        <ele>1562.2</ele>
      </trkpt>
      <trkpt lat="45.23504" lon="5.54692">
        <ele>1555.5</ele>
      </trkpt>
      <trkpt lat="45.23507" lon="5.54717">
        <ele>1551.4</ele>
      </trkpt>
      <trkpt lat="45.23505" lon="5.54746">
        <ele>1554.2</ele>
      </trkpt>
      <trkpt lat="45.23505" lon="5.54773">
        <ele>1552.7</ele>
      </trkpt>
      <trkpt lat="45.23508" lon="5.54791">
        <ele>1548.1</ele>
      </trkpt>
      <trkpt lat="45.23514" lon="5.5481">
        <ele>1539.8</ele>
      </trkpt>
      <trkpt lat="45.23522" lon="5.54829">
        <ele>1531</ele>
      </trkpt>
      <trkpt lat="45.23525" lon="5.5486">
        <ele>1525.8</ele>
      </trkpt>
      <trkpt lat="45.23528" lon="5.54879">
        <ele>1522.8</ele>
      </trkpt>
      <trkpt lat="45.23538" lon="5.54896">
        <ele>1515.8</ele>
      </trkpt>
      <trkpt lat="45.23552" lon="5.54917">
        <ele>1509.8</ele>
      </trkpt>
      <trkpt lat="45.23564" lon="5.5495">
        <ele>1504.5</ele>
      </trkpt>
      <trkpt lat="45.23572" lon="5.54969">
        <ele>1503.2</ele>
      </trkpt>
      <trkpt lat="45.23582" lon="5.54992">
        <ele>1503.3</ele>
      </trkpt>
      <trkpt lat="45.23593" lon="5.55024">
        <ele>1487.6</ele>
      </trkpt>
      <trkpt lat="45.23606" lon="5.55059">
        <ele>1473.1</ele>
      </trkpt>
      <trkpt lat="45.23623" lon="5.55092">
        <ele>1462.6</ele>
      </trkpt>
      <trkpt lat="45.23626" lon="5.55101">
        <ele>1461.2</ele>
      </trkpt>
      <trkpt lat="45.2363" lon="5.55115">
        <ele>1459.7</ele>
      </trkpt>
      <trkpt lat="45.2365" lon="5.55135">
        <ele>1453.5</ele>
      </trkpt>
      <trkpt lat="45.23672" lon="5.55157">
        <ele>1445.2</ele>
      </trkpt>
      <trkpt lat="45.23679" lon="5.55177">
        <ele>1438.9</ele>
      </trkpt>
      <trkpt lat="45.2369" lon="5.55201">
        <ele>1427.9</ele>
      </trkpt>
      <trkpt lat="45.23695" lon="5.55215">
        <ele>1425.8</ele>
      </trkpt>
      <trkpt lat="45.23699" lon="5.55244">
        <ele>1427.7</ele>
      </trkpt>
      <trkpt lat="45.23703" lon="5.55285">
        <ele>1435.8</ele>
      </trkpt>
      <trkpt lat="45.23709" lon="5.55307">
        <ele>1438.8</ele>
      </trkpt>
      <trkpt lat="45.23729" lon="5.55334">
        <ele>1442.2</ele>
      </trkpt>
      <trkpt lat="45.2374" lon="5.55379">
        <ele>1450.1</ele>
      </trkpt>
      <trkpt lat="45.23758" lon="5.55437">
        <ele>1454.6</ele>
      </trkpt>
      <trkpt lat="45.23778" lon="5.55475">
        <ele>1447</ele>
      </trkpt>
      <trkpt lat="45.23797" lon="5.55529">
        <ele>1450.8</ele>
      </trkpt>
      <trkpt lat="45.23797" lon="5.55568">
        <ele>1460.6</ele>
      </trkpt>
      <trkpt lat="45.23813" lon="5.5561">
        <ele>1465.7</ele>
      </trkpt>
      <trkpt lat="45.23814" lon="5.55636">
        <ele>1472.3</ele>
      </trkpt>
      <trkpt lat="45.23811" lon="5.55669">
        <ele>1480.7</ele>
      </trkpt>
      <trkpt lat="45.2381" lon="5.55709">
        <ele>1479.3</ele>
      </trkpt>
      <trkpt lat="45.23808" lon="5.55742">
        <ele>1478.3</ele>
      </trkpt>
      <trkpt lat="45.23811" lon="5.55759">
        <ele>1477.4</ele>
      </trkpt>
      <trkpt lat="45.23821" lon="5.55765">
        <ele>1476.1</ele>
      </trkpt>
      <trkpt lat="45.23829" lon="5.5579">
        <ele>1474.6</ele>
      </trkpt>
      <trkpt lat="45.23825" lon="5.5583">
        <ele>1474</ele>
      </trkpt>
      <trkpt lat="45.23833" lon="5.55879">
        <ele>1474</ele>
      </trkpt>
      <trkpt lat="45.23822" lon="5.5595">
        <ele>1475.7</ele>
      </trkpt>
      <trkpt lat="45.23836" lon="5.55994">
        <ele>1474.9</ele>
      </trkpt>
      <trkpt lat="45.23837" lon="5.56002">
        <ele>1473.8</ele>
      </trkpt>
      <trkpt lat="45.23839" lon="5.56024">
        <ele>1473.1</ele>
      </trkpt>
      <trkpt lat="45.23844" lon="5.56049">
        <ele>1468.1</ele>
      </trkpt>
      <trkpt lat="45.23844" lon="5.56062">
        <ele>1469.2</ele>
      </trkpt>
      <trkpt lat="45.23842" lon="5.56079">
        <ele>1472.5</ele>
      </trkpt>
      <trkpt lat="45.23846" lon="5.56096">
        <ele>1468.9</ele>
      </trkpt>
      <trkpt lat="45.23851" lon="5.56109">
        <ele>1464.8</ele>
      </trkpt>
      <trkpt lat="45.23851" lon="5.56122">
        <ele>1467</ele>
      </trkpt>
      <trkpt lat="45.23849" lon="5.56148">
        <ele>1473.1</ele>
      </trkpt>
      <trkpt lat="45.23848" lon="5.56182">
        <ele>1479.8</ele>
      </trkpt>
      <trkpt lat="45.23845" lon="5.56212">
        <ele>1485.7</ele>
      </trkpt>
      <trkpt lat="45.23846" lon="5.56242">
        <ele>1488.7</ele>
      </trkpt>
      <trkpt lat="45.23849" lon="5.56258">
        <ele>1487.8</ele>
      </trkpt>
      <trkpt lat="45.23843" lon="5.56276">
        <ele>1494.8</ele>
      </trkpt>
      <trkpt lat="45.23836" lon="5.56308">
        <ele>1504</ele>
      </trkpt>
      <trkpt lat="45.23832" lon="5.56318">
        <ele>1506.3</ele>
      </trkpt>
      <trkpt lat="45.23829" lon="5.56328">
        <ele>1506.8</ele>
      </trkpt>
      <trkpt lat="45.23829" lon="5.56339">
        <ele>1507.5</ele>
      </trkpt>
      <trkpt lat="45.23835" lon="5.56355">
        <ele>1507.7</ele>
      </trkpt>
      <trkpt lat="45.2384" lon="5.56389">
        <ele>1505.6</ele>
      </trkpt>
      <trkpt lat="45.23841" lon="5.56404">
        <ele>1505</ele>
      </trkpt>
      <trkpt lat="45.23832" lon="5.5643">
        <ele>1509.8</ele>
      </trkpt>
      <trkpt lat="45.23826" lon="5.56445">
        <ele>1509.2</ele>
      </trkpt>
      <trkpt lat="45.23816" lon="5.5646">
        <ele>1508.4</ele>
      </trkpt>
      <trkpt lat="45.2382" lon="5.56481">
        <ele>1509.1</ele>
      </trkpt>
      <trkpt lat="45.23816" lon="5.56511">
        <ele>1510.1</ele>
      </trkpt>
      <trkpt lat="45.23813" lon="5.56522">
        <ele>1511.1</ele>
      </trkpt>
      <trkpt lat="45.23814" lon="5.56544">
        <ele>1513.1</ele>
      </trkpt>
      <trkpt lat="45.23818" lon="5.56555">
        <ele>1514.1</ele>
      </trkpt>
      <trkpt lat="45.23814" lon="5.56567">
        <ele>1515.2</ele>
      </trkpt>
      <trkpt lat="45.23811" lon="5.56597">
        <ele>1520.1</ele>
      </trkpt>
      <trkpt lat="45.23809" lon="5.56628">
        <ele>1527.5</ele>
      </trkpt>
      <trkpt lat="45.23806" lon="5.5664">
        <ele>1530.7</ele>
      </trkpt>
      <trkpt lat="45.23808" lon="5.56663">
        <ele>1535.8</ele>
      </trkpt>
      <trkpt lat="45.23812" lon="5.56693">
        <ele>1542.3</ele>
      </trkpt>
      <trkpt lat="45.23817" lon="5.56716">
        <ele>1546.9</ele>
      </trkpt>
      <trkpt lat="45.23817" lon="5.56742">
        <ele>1552.5</ele>
      </trkpt>
      <trkpt lat="45.2382" lon="5.56774">
        <ele>1557.2</ele>
      </trkpt>
      <trkpt lat="45.23825" lon="5.56812">
        <ele>1561.9</ele>
      </trkpt>
      <trkpt lat="45.23828" lon="5.5684">
        <ele>1565.8</ele>
      </trkpt>
      <trkpt lat="45.23833" lon="5.56855">
        <ele>1568.6</ele>
      </trkpt>
      <trkpt lat="45.23833" lon="5.56869">
        <ele>1571.7</ele>
      </trkpt>
      <trkpt lat="45.23834" lon="5.56888">
        <ele>1574.7</ele>
      </trkpt>
      <trkpt lat="45.23841" lon="5.569">
        <ele>1567.8</ele>
      </trkpt>
      <trkpt lat="45.23842" lon="5.5691">
        <ele>1567.2</ele>
      </trkpt>
      <trkpt lat="45.23843" lon="5.56924">
        <ele>1569.3</ele>
      </trkpt>
      <trkpt lat="45.23852" lon="5.56943">
        <ele>1559.1</ele>
      </trkpt>
      <trkpt lat="45.23858" lon="5.56959">
        <ele>1554.7</ele>
      </trkpt>
      <trkpt lat="45.2386" lon="5.56967">
        <ele>1552.7</ele>
      </trkpt>
      <trkpt lat="45.23859" lon="5.56969">
        <ele>1554.3</ele>
      </trkpt>
      <trkpt lat="45.23856" lon="5.56973">
        <ele>1559.4</ele>
      </trkpt>
      <trkpt lat="45.23856" lon="5.56976">
        <ele>1560.3</ele>
      </trkpt>
      <trkpt lat="45.23857" lon="5.5698">
        <ele>1559.6</ele>
      </trkpt>
      <trkpt lat="45.23856" lon="5.56985">
        <ele>1562.1</ele>
      </trkpt>
      <trkpt lat="45.2385" lon="5.56994">
        <ele>1571.3</ele>
      </trkpt>
      <trkpt lat="45.23847" lon="5.57001">
        <ele>1576.6</ele>
      </trkpt>
      <trkpt lat="45.23842" lon="5.57017">
        <ele>1583.9</ele>
      </trkpt>
      <trkpt lat="45.23838" lon="5.57029">
        <ele>1588.8</ele>
      </trkpt>
      <trkpt lat="45.23833" lon="5.57044">
        <ele>1594</ele>
      </trkpt>
      <trkpt lat="45.23829" lon="5.57064">
        <ele>1594.1</ele>
      </trkpt>
      <trkpt lat="45.23828" lon="5.57082">
        <ele>1594.4</ele>
      </trkpt>
      <trkpt lat="45.23831" lon="5.57104">
        <ele>1597.9</ele>
      </trkpt>
      <trkpt lat="45.23834" lon="5.57121">
        <ele>1600.7</ele>
      </trkpt>
      <trkpt lat="45.23844" lon="5.57138">
        <ele>1598.8</ele>
      </trkpt>
      <trkpt lat="45.23853" lon="5.57147">
        <ele>1597.4</ele>
      </trkpt>
      <trkpt lat="45.23865" lon="5.57155">
        <ele>1596.2</ele>
      </trkpt>
      <trkpt lat="45.23871" lon="5.57167">
        <ele>1599.1</ele>
      </trkpt>
      <trkpt lat="45.2388" lon="5.57176">
        <ele>1599.2</ele>
      </trkpt>
      <trkpt lat="45.23888" lon="5.57178">
        <ele>1598.2</ele>
      </trkpt>
      <trkpt lat="45.23899" lon="5.57181">
        <ele>1597</ele>
      </trkpt>
      <trkpt lat="45.23907" lon="5.57187">
        <ele>1598</ele>
      </trkpt>
      <trkpt lat="45.2391" lon="5.57193">
        <ele>1599.9</ele>
      </trkpt>
      <trkpt lat="45.2391" lon="5.57203">
        <ele>1603.7</ele>
      </trkpt>
      <trkpt lat="45.23913" lon="5.57215">
        <ele>1608.3</ele>
      </trkpt>
      <trkpt lat="45.2392" lon="5.5723">
        <ele>1608.9</ele>
      </trkpt>
      <trkpt lat="45.23932" lon="5.57246">
        <ele>1596.9</ele>
      </trkpt>
      <trkpt lat="45.2395" lon="5.57264">
        <ele>1576.7</ele>
      </trkpt>
      <trkpt lat="45.23957" lon="5.57276">
        <ele>1572.4</ele>
      </trkpt>
      <trkpt lat="45.23947" lon="5.5732">
        <ele>1603.4</ele>
      </trkpt>
      <trkpt lat="45.23942" lon="5.57343">
        <ele>1611.5</ele>
      </trkpt>
      <trkpt lat="45.23953" lon="5.57368">
        <ele>1606.1</ele>
      </trkpt>
      <trkpt lat="45.23971" lon="5.57377">
        <ele>1600</ele>
      </trkpt>
      <trkpt lat="45.23989" lon="5.57377">
        <ele>1593.9</ele>
      </trkpt>
      <trkpt lat="45.24015" lon="5.57418">
        <ele>1570.2</ele>
      </trkpt>
      <trkpt lat="45.24024" lon="5.5745">
        <ele>1542.8</ele>
      </trkpt>
      <trkpt lat="45.24024" lon="5.57472">
        <ele>1538.6</ele>
      </trkpt>
      <trkpt lat="45.24014" lon="5.57499">
        <ele>1557.5</ele>
      </trkpt>
      <trkpt lat="45.24032" lon="5.5756">
        <ele>1541.5</ele>
      </trkpt>
      <trkpt lat="45.24036" lon="5.57579">
        <ele>1547.9</ele>
      </trkpt>
      <trkpt lat="45.24052" lon="5.5759">
        <ele>1543.8</ele>
      </trkpt>
      <trkpt lat="45.24023" lon="5.57587">
        <ele>1554.3</ele>
      </trkpt>
      <trkpt lat="45.23997" lon="5.57596">
        <ele>1559.9</ele>
      </trkpt>
      <trkpt lat="45.23979" lon="5.57602">
        <ele>1558.8</ele>
      </trkpt>
      <trkpt lat="45.24016" lon="5.57617">
        <ele>1550.5</ele>
      </trkpt>
      <trkpt lat="45.24041" lon="5.57637">
        <ele>1542.6</ele>
      </trkpt>
      <trkpt lat="45.24068" lon="5.57663">
        <ele>1538.5</ele>
      </trkpt>
      <trkpt lat="45.2408" lon="5.57678">
        <ele>1536.7</ele>
      </trkpt>
      <trkpt lat="45.24095" lon="5.57694">
        <ele>1534.4</ele>
      </trkpt>
      <trkpt lat="45.24114" lon="5.57705">
        <ele>1533.4</ele>
      </trkpt>
      <trkpt lat="45.24155" lon="5.57693">
        <ele>1532.9</ele>
      </trkpt>
      <trkpt lat="45.24159" lon="5.5769">
        <ele>1532.6</ele>
      </trkpt>
      <trkpt lat="45.24244" lon="5.57701">
        <ele>1447.1</ele>
      </trkpt>
      <trkpt lat="45.24282" lon="5.57715">
        <ele>1423.1</ele>
      </trkpt>
      <trkpt lat="45.24297" lon="5.57734">
        <ele>1413.8</ele>
      </trkpt>
      <trkpt lat="45.24304" lon="5.57746">
        <ele>1407.7</ele>
      </trkpt>
      <trkpt lat="45.24302" lon="5.57768">
        <ele>1431.3</ele>
      </trkpt>
      <trkpt lat="45.2431" lon="5.57795">
        <ele>1458</ele>
      </trkpt>
      <trkpt lat="45.24313" lon="5.57828">
        <ele>1497.8</ele>
      </trkpt>
      <trkpt lat="45.24322" lon="5.57839">
        <ele>1502.7</ele>
      </trkpt>
      <trkpt lat="45.24324" lon="5.57851">
        <ele>1509.2</ele>
      </trkpt>
      <trkpt lat="45.24329" lon="5.57863">
        <ele>1515</ele>
      </trkpt>
      <trkpt lat="45.24328" lon="5.57873">
        <ele>1521.6</ele>
      </trkpt>
      <trkpt lat="45.24324" lon="5.57882">
        <ele>1528.4</ele>
      </trkpt>
      <trkpt lat="45.24325" lon="5.57894">
        <ele>1535.6</ele>
      </trkpt>
      <trkpt lat="45.24326" lon="5.57902">
        <ele>1540.4</ele>
      </trkpt>
      <trkpt lat="45.2433" lon="5.57911">
        <ele>1546.7</ele>
      </trkpt>
      <trkpt lat="45.24339" lon="5.5792">
        <ele>1538.1</ele>
      </trkpt>
      <trkpt lat="45.24344" lon="5.57919">
        <ele>1527.1</ele>
      </trkpt>
      <trkpt lat="45.24347" lon="5.5793">
        <ele>1524.2</ele>
      </trkpt>
      <trkpt lat="45.24345" lon="5.57941">
        <ele>1533.3</ele>
      </trkpt>
      <trkpt lat="45.24349" lon="5.57949">
        <ele>1527.6</ele>
      </trkpt>
      <trkpt lat="45.24353" lon="5.57958">
        <ele>1524.1</ele>
      </trkpt>
      <trkpt lat="45.24355" lon="5.57971">
        <ele>1526.7</ele>
      </trkpt>
      <trkpt lat="45.24348" lon="5.57993">
        <ele>1546.1</ele>
      </trkpt>
      <trkpt lat="45.24342" lon="5.58007">
        <ele>1559.2</ele>
      </trkpt>
      <trkpt lat="45.24342" lon="5.58014">
        <ele>1559.8</ele>
      </trkpt>
      <trkpt lat="45.24338" lon="5.58024">
        <ele>1566.3</ele>
      </trkpt>
      <trkpt lat="45.24342" lon="5.58033">
        <ele>1564.4</ele>
      </trkpt>
      <trkpt lat="45.24339" lon="5.5804">
        <ele>1567.7</ele>
      </trkpt>
      <trkpt lat="45.24333" lon="5.5805">
        <ele>1572.9</ele>
      </trkpt>
      <trkpt lat="45.24327" lon="5.58058">
        <ele>1572</ele>
      </trkpt>
      <trkpt lat="45.24323" lon="5.58069">
        <ele>1571.5</ele>
      </trkpt>
      <trkpt lat="45.24319" lon="5.58081">
        <ele>1571.5</ele>
      </trkpt>
      <trkpt lat="45.24324" lon="5.58096">
        <ele>1574.7</ele>
      </trkpt>
      <trkpt lat="45.24327" lon="5.58108">
        <ele>1577.1</ele>
      </trkpt>
      <trkpt lat="45.24332" lon="5.58127">
        <ele>1580.8</ele>
      </trkpt>
      <trkpt lat="45.24329" lon="5.58145">
        <ele>1582.7</ele>
      </trkpt>
      <trkpt lat="45.24323" lon="5.58164">
        <ele>1584.1</ele>
      </trkpt>
      <trkpt lat="45.2432" lon="5.58193">
        <ele>1584.1</ele>
      </trkpt>
      <trkpt lat="45.24314" lon="5.58224">
        <ele>1583.4</ele>
      </trkpt>
      <trkpt lat="45.24314" lon="5.58236">
        <ele>1583.6</ele>
      </trkpt>
      <trkpt lat="45.2432" lon="5.58256">
        <ele>1584.8</ele>
      </trkpt>
      <trkpt lat="45.24322" lon="5.58267">
        <ele>1585.1</ele>
      </trkpt>
      <trkpt lat="45.24323" lon="5.58283">
        <ele>1585.2</ele>
      </trkpt>
      <trkpt lat="45.24326" lon="5.58302">
        <ele>1585.8</ele>
      </trkpt>
      <trkpt lat="45.2433" lon="5.58314">
        <ele>1587</ele>
      </trkpt>
      <trkpt lat="45.24336" lon="5.58323">
        <ele>1586.5</ele>
      </trkpt>
      <trkpt lat="45.24343" lon="5.58337">
        <ele>1584.3</ele>
      </trkpt>
      <trkpt lat="45.24349" lon="5.58353">
        <ele>1584.7</ele>
      </trkpt>
      <trkpt lat="45.24355" lon="5.58357">
        <ele>1583.3</ele>
      </trkpt>
      <trkpt lat="45.24359" lon="5.58368">
        <ele>1584.7</ele>
      </trkpt>
      <trkpt lat="45.24362" lon="5.58383">
        <ele>1587.3</ele>
      </trkpt>
      <trkpt lat="45.24368" lon="5.58388">
        <ele>1587.4</ele>
      </trkpt>
      <trkpt lat="45.24373" lon="5.58399">
        <ele>1589.5</ele>
      </trkpt>
      <trkpt lat="45.24379" lon="5.58407">
        <ele>1591.1</ele>
      </trkpt>
      <trkpt lat="45.24383" lon="5.58419">
        <ele>1592</ele>
      </trkpt>
      <trkpt lat="45.24388" lon="5.5843">
        <ele>1583.5</ele>
      </trkpt>
      <trkpt lat="45.24388" lon="5.58438">
        <ele>1576.9</ele>
      </trkpt>
      <trkpt lat="45.24382" lon="5.58444">
        <ele>1575.2</ele>
      </trkpt>
      <trkpt lat="45.24367" lon="5.58457">
        <ele>1576.8</ele>
      </trkpt>
      <trkpt lat="45.24364" lon="5.58466">
        <ele>1574.8</ele>
      </trkpt>
      <trkpt lat="45.24363" lon="5.58474">
        <ele>1572.3</ele>
      </trkpt>
      <trkpt lat="45.24349" lon="5.58486">
        <ele>1582.9</ele>
      </trkpt>
      <trkpt lat="45.24335" lon="5.58492">
        <ele>1599.2</ele>
      </trkpt>
      <trkpt lat="45.2432" lon="5.58501">
        <ele>1595.7</ele>
      </trkpt>
      <trkpt lat="45.24312" lon="5.5851">
        <ele>1590.6</ele>
      </trkpt>
      <trkpt lat="45.24312" lon="5.58521">
        <ele>1588.2</ele>
      </trkpt>
      <trkpt lat="45.24306" lon="5.5853">
        <ele>1584.6</ele>
      </trkpt>
      <trkpt lat="45.24301" lon="5.5854">
        <ele>1581.4</ele>
      </trkpt>
      <trkpt lat="45.24295" lon="5.58547">
        <ele>1579</ele>
      </trkpt>
      <trkpt lat="45.24278" lon="5.58558">
        <ele>1574.3</ele>
      </trkpt>
      <trkpt lat="45.24257" lon="5.58574">
        <ele>1570.6</ele>
      </trkpt>
      <trkpt lat="45.24238" lon="5.58588">
        <ele>1566.4</ele>
      </trkpt>
      <trkpt lat="45.24222" lon="5.586">
        <ele>1561.8</ele>
      </trkpt>
      <trkpt lat="45.24213" lon="5.58601">
        <ele>1559.7</ele>
      </trkpt>
      <trkpt lat="45.24211" lon="5.58608">
        <ele>1559.1</ele>
      </trkpt>
      <trkpt lat="45.242" lon="5.58615">
        <ele>1556.8</ele>
      </trkpt>
      <trkpt lat="45.24182" lon="5.58629">
        <ele>1553.9</ele>
      </trkpt>
      <trkpt lat="45.24176" lon="5.58639">
        <ele>1553.5</ele>
      </trkpt>
      <trkpt lat="45.24159" lon="5.58652">
        <ele>1552.1</ele>
      </trkpt>
      <trkpt lat="45.24146" lon="5.58649">
        <ele>1550</ele>
      </trkpt>
      <trkpt lat="45.24139" lon="5.5866">
        <ele>1550</ele>
      </trkpt>
      <trkpt lat="45.24129" lon="5.58669">
        <ele>1549.5</ele>
      </trkpt>
      <trkpt lat="45.24115" lon="5.5868">
        <ele>1547.8</ele>
      </trkpt>
      <trkpt lat="45.24102" lon="5.58685">
        <ele>1546.3</ele>
      </trkpt>
      <trkpt lat="45.24087" lon="5.58682">
        <ele>1544.6</ele>
      </trkpt>
      <trkpt lat="45.24082" lon="5.58685">
        <ele>1544.2</ele>
      </trkpt>
      <trkpt lat="45.24075" lon="5.58693">
        <ele>1544.1</ele>
      </trkpt>
      <trkpt lat="45.24062" lon="5.58695">
        <ele>1543.9</ele>
      </trkpt>
      <trkpt lat="45.24054" lon="5.58696">
        <ele>1543.8</ele>
      </trkpt>
      <trkpt lat="45.24037" lon="5.58698">
        <ele>1543.5</ele>
      </trkpt>
      <trkpt lat="45.24027" lon="5.58705">
        <ele>1543.4</ele>
      </trkpt>
      <trkpt lat="45.2401" lon="5.58706">
        <ele>1543.1</ele>
      </trkpt>
      <trkpt lat="45.24" lon="5.58703">
        <ele>1542.9</ele>
      </trkpt>
      <trkpt lat="45.23993" lon="5.58704">
        <ele>1542.6</ele>
      </trkpt>
      <trkpt lat="45.23986" lon="5.58715">
        <ele>1542.9</ele>
      </trkpt>
      <trkpt lat="45.23977" lon="5.58733">
        <ele>1543.8</ele>
      </trkpt>
      <trkpt lat="45.23967" lon="5.58749">
        <ele>1545.1</ele>
      </trkpt>
      <trkpt lat="45.23958" lon="5.58765">
        <ele>1545.4</ele>
      </trkpt>
      <trkpt lat="45.23956" lon="5.58773">
        <ele>1545.4</ele>
      </trkpt>
      <trkpt lat="45.23952" lon="5.58777">
        <ele>1545.5</ele>
      </trkpt>
      <trkpt lat="45.23928" lon="5.58787">
        <ele>1545.9</ele>
      </trkpt>
      <trkpt lat="45.23913" lon="5.58794">
        <ele>1545.9</ele>
      </trkpt>
      <trkpt lat="45.23896" lon="5.58805">
        <ele>1545.4</ele>
      </trkpt>
      <trkpt lat="45.23885" lon="5.58814">
        <ele>1545.2</ele>
      </trkpt>
      <trkpt lat="45.2388" lon="5.58829">
        <ele>1545</ele>
      </trkpt>
      <trkpt lat="45.23869" lon="5.58843">
        <ele>1541.5</ele>
      </trkpt>
      <trkpt lat="45.23859" lon="5.58852">
        <ele>1540.2</ele>
      </trkpt>
      <trkpt lat="45.23846" lon="5.58865">
        <ele>1541.1</ele>
      </trkpt>
      <trkpt lat="45.23832" lon="5.58874">
        <ele>1544.9</ele>
      </trkpt>
      <trkpt lat="45.2383" lon="5.58886">
        <ele>1544.6</ele>
      </trkpt>
      <trkpt lat="45.23826" lon="5.58892">
        <ele>1544.1</ele>
      </trkpt>
      <trkpt lat="45.23814" lon="5.58902">
        <ele>1543</ele>
      </trkpt>
      <trkpt lat="45.23803" lon="5.58915">
        <ele>1542.4</ele>
      </trkpt>
      <trkpt lat="45.23796" lon="5.58932">
        <ele>1541.9</ele>
      </trkpt>
      <trkpt lat="45.23791" lon="5.58948">
        <ele>1541.8</ele>
      </trkpt>
      <trkpt lat="45.23783" lon="5.58958">
        <ele>1541.7</ele>
      </trkpt>
      <trkpt lat="45.23769" lon="5.58966">
        <ele>1541.5</ele>
      </trkpt>
      <trkpt lat="45.23756" lon="5.58969">
        <ele>1541.3</ele>
      </trkpt>
      <trkpt lat="45.23748" lon="5.58978">
        <ele>1541.5</ele>
      </trkpt>
      <trkpt lat="45.23739" lon="5.58989">
        <ele>1541.4</ele>
      </trkpt>
      <trkpt lat="45.23731" lon="5.59">
        <ele>1541.8</ele>
      </trkpt>
      <trkpt lat="45.23726" lon="5.59012">
        <ele>1541.9</ele>
      </trkpt>
      <trkpt lat="45.23722" lon="5.59024">
        <ele>1542.3</ele>
      </trkpt>
      <trkpt lat="45.23709" lon="5.59037">
        <ele>1542.9</ele>
      </trkpt>
      <trkpt lat="45.23704" lon="5.59048">
        <ele>1543.8</ele>
      </trkpt>
      <trkpt lat="45.23699" lon="5.59071">
        <ele>1545.8</ele>
      </trkpt>
      <trkpt lat="45.23699" lon="5.59085">
        <ele>1546.5</ele>
      </trkpt>
      <trkpt lat="45.23689" lon="5.59097">
        <ele>1546.1</ele>
      </trkpt>
      <trkpt lat="45.23676" lon="5.59104">
        <ele>1548.3</ele>
      </trkpt>
      <trkpt lat="45.23662" lon="5.59135">
        <ele>1551.5</ele>
      </trkpt>
      <trkpt lat="45.23649" lon="5.59167">
        <ele>1554</ele>
      </trkpt>
      <trkpt lat="45.23641" lon="5.59181">
        <ele>1556.6</ele>
      </trkpt>
      <trkpt lat="45.2364" lon="5.59195">
        <ele>1558.7</ele>
      </trkpt>
      <trkpt lat="45.23631" lon="5.59206">
        <ele>1561</ele>
      </trkpt>
      <trkpt lat="45.23625" lon="5.59219">
        <ele>1563.4</ele>
      </trkpt>
      <trkpt lat="45.23623" lon="5.59227">
        <ele>1564.7</ele>
      </trkpt>
      <trkpt lat="45.23608" lon="5.59239">
        <ele>1567.9</ele>
      </trkpt>
      <trkpt lat="45.23595" lon="5.59257">
        <ele>1570.7</ele>
      </trkpt>
      <trkpt lat="45.23591" lon="5.59271">
        <ele>1571.8</ele>
      </trkpt>
      <trkpt lat="45.23588" lon="5.59285">
        <ele>1573.5</ele>
      </trkpt>
      <trkpt lat="45.23588" lon="5.59291">
        <ele>1574.1</ele>
      </trkpt>
      <trkpt lat="45.23582" lon="5.59297">
        <ele>1576.6</ele>
      </trkpt>
      <trkpt lat="45.23572" lon="5.593">
        <ele>1576.9</ele>
      </trkpt>
      <trkpt lat="45.2356" lon="5.59305">
        <ele>1577.5</ele>
      </trkpt>
      <trkpt lat="45.23551" lon="5.59319">
        <ele>1578.7</ele>
      </trkpt>
      <trkpt lat="45.23544" lon="5.59321">
        <ele>1578.9</ele>
      </trkpt>
      <trkpt lat="45.23531" lon="5.59327">
        <ele>1579.5</ele>
      </trkpt>
      <trkpt lat="45.23524" lon="5.59336">
        <ele>1580.2</ele>
      </trkpt>
      <trkpt lat="45.23526" lon="5.59343">
        <ele>1580.9</ele>
      </trkpt>
      <trkpt lat="45.23519" lon="5.59355">
        <ele>1582.1</ele>
      </trkpt>
      <trkpt lat="45.2351" lon="5.59357">
        <ele>1582.3</ele>
      </trkpt>
      <trkpt lat="45.23499" lon="5.59369">
        <ele>1583.4</ele>
      </trkpt>
      <trkpt lat="45.23495" lon="5.59381">
        <ele>1584.9</ele>
      </trkpt>
      <trkpt lat="45.23536" lon="5.59425">
        <ele>1589.2</ele>
      </trkpt>
      <trkpt lat="45.23556" lon="5.59464">
        <ele>1593.2</ele>
      </trkpt>
      <trkpt lat="45.23558" lon="5.59471">
        <ele>1593.8</ele>
      </trkpt>
      <trkpt lat="45.23556" lon="5.59475">
        <ele>1594.5</ele>
      </trkpt>
      <trkpt lat="45.23535" lon="5.59489">
        <ele>1598.8</ele>
      </trkpt>
      <trkpt lat="45.23521" lon="5.59494">
        <ele>1601.7</ele>
      </trkpt>
      <trkpt lat="45.23512" lon="5.59496">
        <ele>1603.2</ele>
      </trkpt>
      <trkpt lat="45.23506" lon="5.59499">
        <ele>1605</ele>
      </trkpt>
      <trkpt lat="45.2351" lon="5.59509">
        <ele>1606</ele>
      </trkpt>
      <trkpt lat="45.23515" lon="5.59518">
        <ele>1606.5</ele>
      </trkpt>
      <trkpt lat="45.23522" lon="5.59525">
        <ele>1606.6</ele>
      </trkpt>
      <trkpt lat="45.23529" lon="5.59537">
        <ele>1607.1</ele>
      </trkpt>
      <trkpt lat="45.23533" lon="5.59541">
        <ele>1607.3</ele>
      </trkpt>
      <trkpt lat="45.23536" lon="5.59551">
        <ele>1608.2</ele>
      </trkpt>
      <trkpt lat="45.23536" lon="5.59563">
        <ele>1610</ele>
      </trkpt>
      <trkpt lat="45.23535" lon="5.59569">
        <ele>1611.2</ele>
      </trkpt>
      <trkpt lat="45.23537" lon="5.59574">
        <ele>1611.5</ele>
      </trkpt>
      <trkpt lat="45.23542" lon="5.59582">
        <ele>1611.6</ele>
      </trkpt>
      <trkpt lat="45.23542" lon="5.59588">
        <ele>1609.4</ele>
      </trkpt>
      <trkpt lat="45.23539" lon="5.59597">
        <ele>1606.3</ele>
      </trkpt>
      <trkpt lat="45.23532" lon="5.59603">
        <ele>1606.8</ele>
      </trkpt>
      <trkpt lat="45.23531" lon="5.59607">
        <ele>1605.8</ele>
      </trkpt>
      <trkpt lat="45.23539" lon="5.59619">
        <ele>1595.8</ele>
      </trkpt>
      <trkpt lat="45.23543" lon="5.59627">
        <ele>1587.9</ele>
      </trkpt>
      <trkpt lat="45.23544" lon="5.59635">
        <ele>1583.1</ele>
      </trkpt>
      <trkpt lat="45.23543" lon="5.59644">
        <ele>1579.8</ele>
      </trkpt>
      <trkpt lat="45.23537" lon="5.59651">
        <ele>1583.2</ele>
      </trkpt>
      <trkpt lat="45.23526" lon="5.59665">
        <ele>1593.9</ele>
      </trkpt>
      <trkpt lat="45.23523" lon="5.59671">
        <ele>1594.8</ele>
      </trkpt>
      <trkpt lat="45.23521" lon="5.59677">
        <ele>1591.6</ele>
      </trkpt>
      <trkpt lat="45.23523" lon="5.59683">
        <ele>1584.8</ele>
      </trkpt>
      <trkpt lat="45.23526" lon="5.59686">
        <ele>1576.8</ele>
      </trkpt>
      <trkpt lat="45.2353" lon="5.5969">
        <ele>1565.5</ele>
      </trkpt>
      <trkpt lat="45.23531" lon="5.59693">
        <ele>1560.4</ele>
      </trkpt>
      <trkpt lat="45.23534" lon="5.5971">
        <ele>1537.7</ele>
      </trkpt>
      <trkpt lat="45.23537" lon="5.59717">
        <ele>1524.9</ele>
      </trkpt>
      <trkpt lat="45.23538" lon="5.59722">
        <ele>1518.1</ele>
      </trkpt>
      <trkpt lat="45.23535" lon="5.5973">
        <ele>1518.1</ele>
      </trkpt>
      <trkpt lat="45.23532" lon="5.59739">
        <ele>1514.6</ele>
      </trkpt>
      <trkpt lat="45.23528" lon="5.59752">
        <ele>1512</ele>
      </trkpt>
      <trkpt lat="45.23523" lon="5.59762">
        <ele>1509.8</ele>
      </trkpt>
      <trkpt lat="45.23524" lon="5.5977">
        <ele>1495.1</ele>
      </trkpt>
      <trkpt lat="45.23522" lon="5.59772">
        <ele>1496.9</ele>
      </trkpt>
      <trkpt lat="45.23522" lon="5.59778">
        <ele>1486.5</ele>
      </trkpt>
      <trkpt lat="45.2352" lon="5.59781">
        <ele>1485.8</ele>
      </trkpt>
      <trkpt lat="45.23518" lon="5.59779">
        <ele>1493.1</ele>
      </trkpt>
      <trkpt lat="45.23517" lon="5.59775">
        <ele>1503.1</ele>
      </trkpt>
      <trkpt lat="45.23515" lon="5.59775">
        <ele>1507.7</ele>
      </trkpt>
      <trkpt lat="45.23515" lon="5.59777">
        <ele>1502.6</ele>
      </trkpt>
      <trkpt lat="45.23516" lon="5.5978">
        <ele>1494.5</ele>
      </trkpt>
      <trkpt lat="45.23517" lon="5.59784">
        <ele>1487.1</ele>
      </trkpt>
      <trkpt lat="45.23516" lon="5.59787">
        <ele>1482.7</ele>
      </trkpt>
      <trkpt lat="45.23513" lon="5.5979">
        <ele>1482.7</ele>
      </trkpt>
      <trkpt lat="45.2351" lon="5.59792">
        <ele>1485</ele>
      </trkpt>
      <trkpt lat="45.23506" lon="5.59794">
        <ele>1487.4</ele>
      </trkpt>
      <trkpt lat="45.23502" lon="5.59797">
        <ele>1486.4</ele>
      </trkpt>
      <trkpt lat="45.23498" lon="5.59803">
        <ele>1481</ele>
      </trkpt>
      <trkpt lat="45.23497" lon="5.59806">
        <ele>1476.2</ele>
      </trkpt>
      <trkpt lat="45.23495" lon="5.59808">
        <ele>1475.7</ele>
      </trkpt>
      <trkpt lat="45.23491" lon="5.5981">
        <ele>1480</ele>
      </trkpt>
      <trkpt lat="45.2349" lon="5.59813">
        <ele>1475.4</ele>
      </trkpt>
      <trkpt lat="45.23488" lon="5.59815">
        <ele>1475.8</ele>
      </trkpt>
      <trkpt lat="45.23477" lon="5.59815">
        <ele>1499.2</ele>
      </trkpt>
      <trkpt lat="45.2347" lon="5.59816">
        <ele>1512</ele>
      </trkpt>
      <trkpt lat="45.23469" lon="5.59821">
        <ele>1506.5</ele>
      </trkpt>
      <trkpt lat="45.2347" lon="5.59823">
        <ele>1502.1</ele>
      </trkpt>
      <trkpt lat="45.2347" lon="5.5983">
        <ele>1491.9</ele>
      </trkpt>
      <trkpt lat="45.23466" lon="5.59832">
        <ele>1500</ele>
      </trkpt>
      <trkpt lat="45.23462" lon="5.59835">
        <ele>1505.9</ele>
      </trkpt>
      <trkpt lat="45.23449" lon="5.59836">
        <ele>1534.6</ele>
      </trkpt>
      <trkpt lat="45.23444" lon="5.59839">
        <ele>1540.9</ele>
      </trkpt>
      <trkpt lat="45.23437" lon="5.5984">
        <ele>1553.6</ele>
      </trkpt>
      <trkpt lat="45.23435" lon="5.59842">
        <ele>1554.9</ele>
      </trkpt>
      <trkpt lat="45.23426" lon="5.59843">
        <ele>1572.3</ele>
      </trkpt>
      <trkpt lat="45.2342" lon="5.59843">
        <ele>1586.2</ele>
      </trkpt>
      <trkpt lat="45.23414" lon="5.59846">
        <ele>1585.7</ele>
      </trkpt>
      <trkpt lat="45.23408" lon="5.59845">
        <ele>1590.6</ele>
      </trkpt>
      <trkpt lat="45.23403" lon="5.59843">
        <ele>1597.1</ele>
      </trkpt>
      <trkpt lat="45.23402" lon="5.59838">
        <ele>1609.2</ele>
      </trkpt>
      <trkpt lat="45.23399" lon="5.59833">
        <ele>1621.6</ele>
      </trkpt>
      <trkpt lat="45.23394" lon="5.59834">
        <ele>1620.5</ele>
      </trkpt>
      <trkpt lat="45.23393" lon="5.59832">
        <ele>1621.4</ele>
      </trkpt>
      <trkpt lat="45.2339" lon="5.5983">
        <ele>1621.4</ele>
      </trkpt>
      <trkpt lat="45.23386" lon="5.59831">
        <ele>1621</ele>
      </trkpt>
      <trkpt lat="45.23383" lon="5.59829">
        <ele>1621.1</ele>
      </trkpt>
      <trkpt lat="45.2338" lon="5.59821">
        <ele>1621.9</ele>
      </trkpt>
      <trkpt lat="45.23375" lon="5.59804">
        <ele>1623.5</ele>
      </trkpt>
      <trkpt lat="45.23367" lon="5.59789">
        <ele>1624.6</ele>
      </trkpt>
      <trkpt lat="45.23352" lon="5.59764">
        <ele>1626.2</ele>
      </trkpt>
      <trkpt lat="45.23346" lon="5.59753">
        <ele>1626.8</ele>
      </trkpt>
      <trkpt lat="45.23343" lon="5.59752">
        <ele>1626.7</ele>
      </trkpt>
      <trkpt lat="45.23336" lon="5.59734">
        <ele>1626.6</ele>
      </trkpt>
      <trkpt lat="45.23331" lon="5.59728">
        <ele>1626.3</ele>
      </trkpt>
      <trkpt lat="45.23325" lon="5.59715">
        <ele>1625.9</ele>
      </trkpt>
      <trkpt lat="45.23319" lon="5.59702">
        <ele>1625.4</ele>
      </trkpt>
      <trkpt lat="45.23317" lon="5.59688">
        <ele>1625.5</ele>
      </trkpt>
      <trkpt lat="45.23311" lon="5.59675">
        <ele>1625.1</ele>
      </trkpt>
      <trkpt lat="45.23309" lon="5.59662">
        <ele>1624.9</ele>
      </trkpt>
      <trkpt lat="45.23305" lon="5.59655">
        <ele>1624.4</ele>
      </trkpt>
      <trkpt lat="45.23301" lon="5.59652">
        <ele>1623.8</ele>
      </trkpt>
      <trkpt lat="45.23296" lon="5.59652">
        <ele>1623.2</ele>
      </trkpt>
      <trkpt lat="45.23292" lon="5.5965">
        <ele>1622.8</ele>
      </trkpt>
      <trkpt lat="45.23286" lon="5.59645">
        <ele>1622.2</ele>
      </trkpt>
      <trkpt lat="45.23279" lon="5.59636">
        <ele>1621.4</ele>
      </trkpt>
      <trkpt lat="45.23274" lon="5.5963">
        <ele>1621</ele>
      </trkpt>
      <trkpt lat="45.23267" lon="5.59623">
        <ele>1620.4</ele>
      </trkpt>
      <trkpt lat="45.23255" lon="5.59615">
        <ele>1619.6</ele>
      </trkpt>
      <trkpt lat="45.23247" lon="5.59606">
        <ele>1619.3</ele>
      </trkpt>
      <trkpt lat="45.2324" lon="5.59595">
        <ele>1619</ele>
      </trkpt>
      <trkpt lat="45.23224" lon="5.59576">
        <ele>1618.4</ele>
      </trkpt>
      <trkpt lat="45.23217" lon="5.59565">
        <ele>1617.9</ele>
      </trkpt>
      <trkpt lat="45.23211" lon="5.59554">
        <ele>1617.6</ele>
      </trkpt>
      <trkpt lat="45.23195" lon="5.59542">
        <ele>1617.2</ele>
      </trkpt>
      <trkpt lat="45.23183" lon="5.59534">
        <ele>1617.1</ele>
      </trkpt>
      <trkpt lat="45.2316" lon="5.59518">
        <ele>1616.5</ele>
      </trkpt>
      <trkpt lat="45.23157" lon="5.59513">
        <ele>1616.2</ele>
      </trkpt>
      <trkpt lat="45.2315" lon="5.59497">
        <ele>1615.7</ele>
      </trkpt>
      <trkpt lat="45.23139" lon="5.59473">
        <ele>1612.8</ele>
      </trkpt>
      <trkpt lat="45.23129" lon="5.59453">
        <ele>1610.9</ele>
      </trkpt>
      <trkpt lat="45.23119" lon="5.59438">
        <ele>1609.9</ele>
      </trkpt>
      <trkpt lat="45.23108" lon="5.59424">
        <ele>1609.2</ele>
      </trkpt>
      <trkpt lat="45.23096" lon="5.59417">
        <ele>1609</ele>
      </trkpt>
      <trkpt lat="45.23077" lon="5.59411">
        <ele>1608.7</ele>
      </trkpt>
      <trkpt lat="45.2305" lon="5.59407">
        <ele>1609.6</ele>
      </trkpt>
      <trkpt lat="45.23042" lon="5.59402">
        <ele>1609.6</ele>
      </trkpt>
      <trkpt lat="45.23035" lon="5.59392">
        <ele>1609.4</ele>
      </trkpt>
      <trkpt lat="45.23026" lon="5.59385">
        <ele>1609.6</ele>
      </trkpt>
      <trkpt lat="45.23012" lon="5.5938">
        <ele>1610.3</ele>
      </trkpt>
      <trkpt lat="45.23006" lon="5.59375">
        <ele>1610.6</ele>
      </trkpt>
      <trkpt lat="45.23003" lon="5.59366">
        <ele>1610.5</ele>
      </trkpt>
      <trkpt lat="45.23001" lon="5.59362">
        <ele>1610.6</ele>
      </trkpt>
      <trkpt lat="45.22997" lon="5.59359">
        <ele>1610.6</ele>
      </trkpt>
      <trkpt lat="45.22989" lon="5.59358">
        <ele>1610.7</ele>
      </trkpt>
      <trkpt lat="45.22975" lon="5.59361">
        <ele>1610.9</ele>
      </trkpt>
      <trkpt lat="45.22967" lon="5.59358">
        <ele>1610.9</ele>
      </trkpt>
      <trkpt lat="45.22955" lon="5.59355">
        <ele>1610.9</ele>
      </trkpt>
      <trkpt lat="45.22945" lon="5.59354">
        <ele>1611</ele>
      </trkpt>
      <trkpt lat="45.22936" lon="5.59357">
        <ele>1611.1</ele>
      </trkpt>
      <trkpt lat="45.2289" lon="5.59383">
        <ele>1612.2</ele>
      </trkpt>
      <trkpt lat="45.22882" lon="5.59384">
        <ele>1612.3</ele>
      </trkpt>
      <trkpt lat="45.2286" lon="5.59383">
        <ele>1612.8</ele>
      </trkpt>
      <trkpt lat="45.22853" lon="5.59383">
        <ele>1613</ele>
      </trkpt>
      <trkpt lat="45.22837" lon="5.59375">
        <ele>1613.4</ele>
      </trkpt>
      <trkpt lat="45.22815" lon="5.5937">
        <ele>1612.9</ele>
      </trkpt>
      <trkpt lat="45.22798" lon="5.5937">
        <ele>1612.3</ele>
      </trkpt>
      <trkpt lat="45.22781" lon="5.59376">
        <ele>1611.6</ele>
      </trkpt>
      <trkpt lat="45.22744" lon="5.59393">
        <ele>1610.3</ele>
      </trkpt>
      <trkpt lat="45.22723" lon="5.59396">
        <ele>1610.2</ele>
      </trkpt>
      <trkpt lat="45.22708" lon="5.59398">
        <ele>1610.1</ele>
      </trkpt>
      <trkpt lat="45.22697" lon="5.59388">
        <ele>1610.1</ele>
      </trkpt>
      <trkpt lat="45.22686" lon="5.59381">
        <ele>1610.1</ele>
      </trkpt>
      <trkpt lat="45.22674" lon="5.59379">
        <ele>1610</ele>
      </trkpt>
      <trkpt lat="45.22659" lon="5.59387">
        <ele>1610.2</ele>
      </trkpt>
      <trkpt lat="45.22648" lon="5.59392">
        <ele>1610.4</ele>
      </trkpt>
      <trkpt lat="45.22618" lon="5.59393">
        <ele>1611.2</ele>
      </trkpt>
      <trkpt lat="45.22593" lon="5.59388">
        <ele>1611.8</ele>
      </trkpt>
      <trkpt lat="45.22581" lon="5.59387">
        <ele>1612.1</ele>
      </trkpt>
      <trkpt lat="45.22563" lon="5.5939">
        <ele>1612.5</ele>
      </trkpt>
      <trkpt lat="45.22549" lon="5.59394">
        <ele>1612.8</ele>
      </trkpt>
      <trkpt lat="45.22516" lon="5.59387">
        <ele>1613.7</ele>
      </trkpt>
      <trkpt lat="45.22485" lon="5.59382">
        <ele>1614.8</ele>
      </trkpt>
      <trkpt lat="45.22454" lon="5.59381">
        <ele>1616</ele>
      </trkpt>
      <trkpt lat="45.22433" lon="5.59378">
        <ele>1616.8</ele>
      </trkpt>
      <trkpt lat="45.2242" lon="5.59375">
        <ele>1617.4</ele>
      </trkpt>
      <trkpt lat="45.22396" lon="5.59365">
        <ele>1618.1</ele>
      </trkpt>
      <trkpt lat="45.22384" lon="5.59367">
        <ele>1618.4</ele>
      </trkpt>
      <trkpt lat="45.22366" lon="5.59373">
        <ele>1618.7</ele>
      </trkpt>
      <trkpt lat="45.22353" lon="5.59377">
        <ele>1619</ele>
      </trkpt>
      <trkpt lat="45.22342" lon="5.59375">
        <ele>1619.3</ele>
      </trkpt>
      <trkpt lat="45.22327" lon="5.59367">
        <ele>1619.8</ele>
      </trkpt>
      <trkpt lat="45.22314" lon="5.59362">
        <ele>1620.3</ele>
      </trkpt>
      <trkpt lat="45.22298" lon="5.59357">
        <ele>1620.8</ele>
      </trkpt>
      <trkpt lat="45.22287" lon="5.59349">
        <ele>1621.1</ele>
      </trkpt>
      <trkpt lat="45.22275" lon="5.59338">
        <ele>1621.4</ele>
      </trkpt>
      <trkpt lat="45.2226" lon="5.59321">
        <ele>1620.6</ele>
      </trkpt>
      <trkpt lat="45.22245" lon="5.59301">
        <ele>1618.5</ele>
      </trkpt>
      <trkpt lat="45.22234" lon="5.59285">
        <ele>1616.4</ele>
      </trkpt>
      <trkpt lat="45.22224" lon="5.59271">
        <ele>1614.5</ele>
      </trkpt>
      <trkpt lat="45.22212" lon="5.59257">
        <ele>1612.1</ele>
      </trkpt>
      <trkpt lat="45.22197" lon="5.59242">
        <ele>1609.8</ele>
      </trkpt>
      <trkpt lat="45.22183" lon="5.59232">
        <ele>1608.3</ele>
      </trkpt>
      <trkpt lat="45.22169" lon="5.59232">
        <ele>1607.4</ele>
      </trkpt>
      <trkpt lat="45.22152" lon="5.59239">
        <ele>1608</ele>
      </trkpt>
      <trkpt lat="45.22083" lon="5.59245">
        <ele>1610</ele>
      </trkpt>
      <trkpt lat="45.22073" lon="5.59238">
        <ele>1607.8</ele>
      </trkpt>
      <trkpt lat="45.22065" lon="5.59237">
        <ele>1607.1</ele>
      </trkpt>
      <trkpt lat="45.22049" lon="5.59238">
        <ele>1606.3</ele>
      </trkpt>
      <trkpt lat="45.22031" lon="5.59246">
        <ele>1606.5</ele>
      </trkpt>
      <trkpt lat="45.22017" lon="5.59247">
        <ele>1605.8</ele>
      </trkpt>
      <trkpt lat="45.22004" lon="5.59252">
        <ele>1605.6</ele>
      </trkpt>
      <trkpt lat="45.21991" lon="5.59259">
        <ele>1605.4</ele>
      </trkpt>
      <trkpt lat="45.21979" lon="5.5926">
        <ele>1604.5</ele>
      </trkpt>
      <trkpt lat="45.21959" lon="5.59258">
        <ele>1602.4</ele>
      </trkpt>
      <trkpt lat="45.21951" lon="5.59264">
        <ele>1602.4</ele>
      </trkpt>
      <trkpt lat="45.21943" lon="5.59261">
        <ele>1601.4</ele>
      </trkpt>
      <trkpt lat="45.21933" lon="5.59256">
        <ele>1600</ele>
      </trkpt>
      <trkpt lat="45.21926" lon="5.59262">
        <ele>1600</ele>
      </trkpt>
      <trkpt lat="45.2192" lon="5.59265">
        <ele>1599.7</ele>
      </trkpt>
      <trkpt lat="45.21912" lon="5.59267">
        <ele>1599.6</ele>
      </trkpt>
      <trkpt lat="45.21903" lon="5.59265">
        <ele>1599.3</ele>
      </trkpt>
      <trkpt lat="45.21894" lon="5.59264">
        <ele>1599.1</ele>
      </trkpt>
      <trkpt lat="45.21834" lon="5.59262">
        <ele>1598.6</ele>
      </trkpt>
      <trkpt lat="45.21821" lon="5.59266">
        <ele>1597.9</ele>
      </trkpt>
      <trkpt lat="45.21815" lon="5.5927">
        <ele>1597.6</ele>
      </trkpt>
      <trkpt lat="45.21811" lon="5.59275">
        <ele>1597.5</ele>
      </trkpt>
      <trkpt lat="45.21805" lon="5.59287">
        <ele>1597.3</ele>
      </trkpt>
      <trkpt lat="45.21799" lon="5.59299">
        <ele>1597.1</ele>
      </trkpt>
      <trkpt lat="45.21776" lon="5.59353">
        <ele>1593.8</ele>
      </trkpt>
      <trkpt lat="45.2177" lon="5.59368">
        <ele>1592.2</ele>
      </trkpt>
      <trkpt lat="45.21762" lon="5.59383">
        <ele>1590.6</ele>
      </trkpt>
      <trkpt lat="45.21752" lon="5.59401">
        <ele>1588.9</ele>
      </trkpt>
      <trkpt lat="45.21746" lon="5.59411">
        <ele>1588.6</ele>
      </trkpt>
      <trkpt lat="45.21739" lon="5.59423">
        <ele>1588.5</ele>
      </trkpt>
      <trkpt lat="45.21729" lon="5.59426">
        <ele>1589.1</ele>
      </trkpt>
      <trkpt lat="45.21721" lon="5.59426">
        <ele>1590.1</ele>
      </trkpt>
      <trkpt lat="45.21717" lon="5.59433">
        <ele>1589.9</ele>
      </trkpt>
      <trkpt lat="45.21711" lon="5.59449">
        <ele>1589.3</ele>
      </trkpt>
      <trkpt lat="45.21709" lon="5.59469">
        <ele>1588.1</ele>
      </trkpt>
      <trkpt lat="45.21711" lon="5.59485">
        <ele>1586.6</ele>
      </trkpt>
      <trkpt lat="45.21716" lon="5.59504">
        <ele>1584.8</ele>
      </trkpt>
      <trkpt lat="45.2172" lon="5.5951">
        <ele>1584.5</ele>
      </trkpt>
      <trkpt lat="45.21725" lon="5.59515">
        <ele>1583.9</ele>
      </trkpt>
      <trkpt lat="45.21733" lon="5.59515">
        <ele>1582.5</ele>
      </trkpt>
      <trkpt lat="45.21738" lon="5.59518">
        <ele>1581.8</ele>
      </trkpt>
      <trkpt lat="45.21745" lon="5.59528">
        <ele>1581.2</ele>
      </trkpt>
      <trkpt lat="45.21749" lon="5.59534">
        <ele>1580.8</ele>
      </trkpt>
      <trkpt lat="45.21757" lon="5.59538">
        <ele>1580.2</ele>
      </trkpt>
      <trkpt lat="45.21776" lon="5.59537">
        <ele>1578.5</ele>
      </trkpt>
      <trkpt lat="45.21787" lon="5.59538">
        <ele>1577.6</ele>
      </trkpt>
      <trkpt lat="45.21798" lon="5.59542">
        <ele>1576.6</ele>
      </trkpt>
      <trkpt lat="45.21812" lon="5.59552">
        <ele>1575.3</ele>
      </trkpt>
      <trkpt lat="45.21825" lon="5.59565">
        <ele>1573.6</ele>
      </trkpt>
      <trkpt lat="45.21832" lon="5.59577">
        <ele>1572.4</ele>
      </trkpt>
      <trkpt lat="45.21838" lon="5.596">
        <ele>1571</ele>
      </trkpt>
      <trkpt lat="45.21839" lon="5.5961">
        <ele>1570</ele>
      </trkpt>
      <trkpt lat="45.21837" lon="5.59624">
        <ele>1567.6</ele>
      </trkpt>
      <trkpt lat="45.21835" lon="5.59636">
        <ele>1565.6</ele>
      </trkpt>
      <trkpt lat="45.21832" lon="5.5965">
        <ele>1563.5</ele>
      </trkpt>
      <trkpt lat="45.21828" lon="5.59673">
        <ele>1561.9</ele>
      </trkpt>
      <trkpt lat="45.21824" lon="5.59691">
        <ele>1560.3</ele>
      </trkpt>
      <trkpt lat="45.21821" lon="5.59703">
        <ele>1559.6</ele>
      </trkpt>
      <trkpt lat="45.21818" lon="5.59721">
        <ele>1557.6</ele>
      </trkpt>
      <trkpt lat="45.21814" lon="5.59741">
        <ele>1555.4</ele>
      </trkpt>
      <trkpt lat="45.2181" lon="5.59758">
        <ele>1553.1</ele>
      </trkpt>
      <trkpt lat="45.21802" lon="5.5978">
        <ele>1550</ele>
      </trkpt>
      <trkpt lat="45.21798" lon="5.5979">
        <ele>1548.5</ele>
      </trkpt>
      <trkpt lat="45.21789" lon="5.59806">
        <ele>1546.6</ele>
      </trkpt>
      <trkpt lat="45.21786" lon="5.59811">
        <ele>1545.9</ele>
      </trkpt>
      <trkpt lat="45.21784" lon="5.59823">
        <ele>1543.5</ele>
      </trkpt>
      <trkpt lat="45.21776" lon="5.59841">
        <ele>1541.1</ele>
      </trkpt>
      <trkpt lat="45.21762" lon="5.5986">
        <ele>1540.6</ele>
      </trkpt>
      <trkpt lat="45.21749" lon="5.59869">
        <ele>1541.7</ele>
      </trkpt>
      <trkpt lat="45.21744" lon="5.59877">
        <ele>1542.1</ele>
      </trkpt>
      <trkpt lat="45.21743" lon="5.59886">
        <ele>1540.9</ele>
      </trkpt>
      <trkpt lat="45.21744" lon="5.599">
        <ele>1538.5</ele>
      </trkpt>
      <trkpt lat="45.21747" lon="5.5992">
        <ele>1534.8</ele>
      </trkpt>
      <trkpt lat="45.21749" lon="5.59943">
        <ele>1532.9</ele>
      </trkpt>
      <trkpt lat="45.2175" lon="5.59954">
        <ele>1531.9</ele>
      </trkpt>
      <trkpt lat="45.21749" lon="5.59977">
        <ele>1530.8</ele>
      </trkpt>
      <trkpt lat="45.21747" lon="5.59993">
        <ele>1530.4</ele>
      </trkpt>
      <trkpt lat="45.21745" lon="5.60007">
        <ele>1529.9</ele>
      </trkpt>
      <trkpt lat="45.21742" lon="5.60018">
        <ele>1529.2</ele>
      </trkpt>
      <trkpt lat="45.21737" lon="5.60038">
        <ele>1527.9</ele>
      </trkpt>
      <trkpt lat="45.21732" lon="5.60058">
        <ele>1526.2</ele>
      </trkpt>
      <trkpt lat="45.21728" lon="5.60077">
        <ele>1524.1</ele>
      </trkpt>
      <trkpt lat="45.21725" lon="5.601">
        <ele>1521.1</ele>
      </trkpt>
      <trkpt lat="45.21718" lon="5.60118">
        <ele>1519.4</ele>
      </trkpt>
      <trkpt lat="45.21714" lon="5.60123">
        <ele>1519.2</ele>
      </trkpt>
      <trkpt lat="45.21709" lon="5.60129">
        <ele>1518.9</ele>
      </trkpt>
      <trkpt lat="45.21703" lon="5.60135">
        <ele>1518.8</ele>
      </trkpt>
      <trkpt lat="45.21673" lon="5.60156">
        <ele>1518.5</ele>
      </trkpt>
      <trkpt lat="45.21651" lon="5.60163">
        <ele>1518.6</ele>
      </trkpt>
      <trkpt lat="45.21636" lon="5.60162">
        <ele>1519.6</ele>
      </trkpt>
      <trkpt lat="45.21603" lon="5.60167">
        <ele>1519.9</ele>
      </trkpt>
      <trkpt lat="45.21589" lon="5.60174">
        <ele>1519.4</ele>
      </trkpt>
      <trkpt lat="45.21573" lon="5.60175">
        <ele>1519</ele>
      </trkpt>
      <trkpt lat="45.21542" lon="5.60175">
        <ele>1517.6</ele>
      </trkpt>
      <trkpt lat="45.21492" lon="5.60139">
        <ele>1523.4</ele>
      </trkpt>
      <trkpt lat="45.21459" lon="5.60098">
        <ele>1528.9</ele>
      </trkpt>
      <trkpt lat="45.21425" lon="5.60057">
        <ele>1531.5</ele>
      </trkpt>
      <trkpt lat="45.21395" lon="5.60037">
        <ele>1538.1</ele>
      </trkpt>
      <trkpt lat="45.21392" lon="5.60039">
        <ele>1538.4</ele>
      </trkpt>
      <trkpt lat="45.21391" lon="5.60044">
        <ele>1537.8</ele>
      </trkpt>
      <trkpt lat="45.21389" lon="5.60066">
        <ele>1534.7</ele>
      </trkpt>
      <trkpt lat="45.21386" lon="5.6015">
        <ele>1526.6</ele>
      </trkpt>
      <trkpt lat="45.21374" lon="5.60216">
        <ele>1525.4</ele>
      </trkpt>
      <trkpt lat="45.2137" lon="5.60233">
        <ele>1525.6</ele>
      </trkpt>
      <trkpt lat="45.21365" lon="5.6025">
        <ele>1525.6</ele>
      </trkpt>
      <trkpt lat="45.21366" lon="5.60275">
        <ele>1524.8</ele>
      </trkpt>
      <trkpt lat="45.21368" lon="5.60298">
        <ele>1523.5</ele>
      </trkpt>
      <trkpt lat="45.21377" lon="5.60344">
        <ele>1520.7</ele>
      </trkpt>
      <trkpt lat="45.2139" lon="5.60386">
        <ele>1518.5</ele>
      </trkpt>
      <trkpt lat="45.21406" lon="5.60444">
        <ele>1520.2</ele>
      </trkpt>
      <trkpt lat="45.21413" lon="5.60457">
        <ele>1521</ele>
      </trkpt>
      <trkpt lat="45.21416" lon="5.60492">
        <ele>1527.4</ele>
      </trkpt>
      <trkpt lat="45.21407" lon="5.605">
        <ele>1530.7</ele>
      </trkpt>
      <trkpt lat="45.214" lon="5.605">
        <ele>1531.7</ele>
      </trkpt>
      <trkpt lat="45.21376" lon="5.605">
        <ele>1535.8</ele>
      </trkpt>
      <trkpt lat="45.21355" lon="5.60498">
        <ele>1539.1</ele>
      </trkpt>
      <trkpt lat="45.21334" lon="5.60499">
        <ele>1542.9</ele>
      </trkpt>
      <trkpt lat="45.21317" lon="5.60495">
        <ele>1543.8</ele>
      </trkpt>
      <trkpt lat="45.21307" lon="5.60492">
        <ele>1544.2</ele>
      </trkpt>
      <trkpt lat="45.21295" lon="5.60487">
        <ele>1544.9</ele>
      </trkpt>
      <trkpt lat="45.2129" lon="5.60503">
        <ele>1546.4</ele>
      </trkpt>
      <trkpt lat="45.21285" lon="5.60514">
        <ele>1547.9</ele>
      </trkpt>
      <trkpt lat="45.21278" lon="5.60535">
        <ele>1550.3</ele>
      </trkpt>
      <trkpt lat="45.21277" lon="5.60548">
        <ele>1551.7</ele>
      </trkpt>
      <trkpt lat="45.21283" lon="5.6056">
        <ele>1552.5</ele>
      </trkpt>
      <trkpt lat="45.21291" lon="5.60569">
        <ele>1553.1</ele>
      </trkpt>
      <trkpt lat="45.21302" lon="5.60581">
        <ele>1553.8</ele>
      </trkpt>
      <trkpt lat="45.21306" lon="5.60595">
        <ele>1554.6</ele>
      </trkpt>
      <trkpt lat="45.21299" lon="5.60607">
        <ele>1555.4</ele>
      </trkpt>
      <trkpt lat="45.21289" lon="5.60618">
        <ele>1556</ele>
      </trkpt>
      <trkpt lat="45.21283" lon="5.6063">
        <ele>1556.4</ele>
      </trkpt>
      <trkpt lat="45.21266" lon="5.60636">
        <ele>1556.3</ele>
      </trkpt>
      <trkpt lat="45.21257" lon="5.6065">
        <ele>1556.2</ele>
      </trkpt>
      <trkpt lat="45.21252" lon="5.60668">
        <ele>1556.1</ele>
      </trkpt>
      <trkpt lat="45.21234" lon="5.60697">
        <ele>1557</ele>
      </trkpt>
      <trkpt lat="45.21227" lon="5.60697">
        <ele>1556.4</ele>
      </trkpt>
      <trkpt lat="45.21218" lon="5.60697">
        <ele>1555.7</ele>
      </trkpt>
      <trkpt lat="45.21207" lon="5.60695">
        <ele>1554.7</ele>
      </trkpt>
      <trkpt lat="45.21186" lon="5.60694">
        <ele>1553.1</ele>
      </trkpt>
      <trkpt lat="45.2117" lon="5.60697">
        <ele>1552</ele>
      </trkpt>
      <trkpt lat="45.2116" lon="5.607">
        <ele>1551.3</ele>
      </trkpt>
      <trkpt lat="45.21152" lon="5.60705">
        <ele>1550.7</ele>
      </trkpt>
      <trkpt lat="45.21145" lon="5.60708">
        <ele>1550</ele>
      </trkpt>
      <trkpt lat="45.21141" lon="5.60711">
        <ele>1549.6</ele>
      </trkpt>
      <trkpt lat="45.21135" lon="5.60713">
        <ele>1549</ele>
      </trkpt>
      <trkpt lat="45.21124" lon="5.60715">
        <ele>1547.8</ele>
      </trkpt>
      <trkpt lat="45.21109" lon="5.60725">
        <ele>1546</ele>
      </trkpt>
      <trkpt lat="45.21099" lon="5.60735">
        <ele>1544.6</ele>
      </trkpt>
      <trkpt lat="45.21092" lon="5.60746">
        <ele>1543.4</ele>
      </trkpt>
      <trkpt lat="45.21084" lon="5.60759">
        <ele>1543.2</ele>
      </trkpt>
      <trkpt lat="45.21078" lon="5.60766">
        <ele>1543.3</ele>
      </trkpt>
      <trkpt lat="45.21069" lon="5.6077">
        <ele>1542.7</ele>
      </trkpt>
      <trkpt lat="45.21051" lon="5.60775">
        <ele>1540.9</ele>
      </trkpt>
      <trkpt lat="45.21027" lon="5.60781">
        <ele>1538.3</ele>
      </trkpt>
      <trkpt lat="45.21005" lon="5.60793">
        <ele>1536.2</ele>
      </trkpt>
      <trkpt lat="45.20982" lon="5.60809">
        <ele>1533.1</ele>
      </trkpt>
      <trkpt lat="45.20958" lon="5.60822">
        <ele>1528.8</ele>
      </trkpt>
      <trkpt lat="45.20936" lon="5.60837">
        <ele>1524.2</ele>
      </trkpt>
      <trkpt lat="45.20915" lon="5.60862">
        <ele>1519.6</ele>
      </trkpt>
      <trkpt lat="45.2089" lon="5.60892">
        <ele>1514.4</ele>
      </trkpt>
      <trkpt lat="45.2087" lon="5.60915">
        <ele>1509.9</ele>
      </trkpt>
      <trkpt lat="45.20863" lon="5.60926">
        <ele>1506.6</ele>
      </trkpt>
      <trkpt lat="45.20863" lon="5.60931">
        <ele>1505.6</ele>
      </trkpt>
      <trkpt lat="45.20866" lon="5.60936">
        <ele>1505.4</ele>
      </trkpt>
      <trkpt lat="45.20876" lon="5.60941">
        <ele>1506.9</ele>
      </trkpt>
      <trkpt lat="45.20884" lon="5.60948">
        <ele>1507.7</ele>
      </trkpt>
      <trkpt lat="45.20889" lon="5.60955">
        <ele>1507.7</ele>
      </trkpt>
      <trkpt lat="45.20891" lon="5.60961">
        <ele>1507.3</ele>
      </trkpt>
      <trkpt lat="45.2089" lon="5.60968">
        <ele>1506</ele>
      </trkpt>
      <trkpt lat="45.20887" lon="5.60977">
        <ele>1503.7</ele>
      </trkpt>
      <trkpt lat="45.20879" lon="5.60992">
        <ele>1498.7</ele>
      </trkpt>
      <trkpt lat="45.20872" lon="5.61">
        <ele>1495.2</ele>
      </trkpt>
      <trkpt lat="45.20862" lon="5.61014">
        <ele>1489.8</ele>
      </trkpt>
      <trkpt lat="45.20849" lon="5.61034">
        <ele>1482.3</ele>
      </trkpt>
      <trkpt lat="45.20841" lon="5.61051">
        <ele>1476.2</ele>
      </trkpt>
      <trkpt lat="45.20838" lon="5.61059">
        <ele>1473.5</ele>
      </trkpt>
      <trkpt lat="45.20837" lon="5.61069">
        <ele>1471</ele>
      </trkpt>
      <trkpt lat="45.20836" lon="5.6109">
        <ele>1467.5</ele>
      </trkpt>
      <trkpt lat="45.20836" lon="5.61099">
        <ele>1467</ele>
      </trkpt>
      <trkpt lat="45.20831" lon="5.61112">
        <ele>1464.1</ele>
      </trkpt>
      <trkpt lat="45.20822" lon="5.61142">
        <ele>1459.1</ele>
      </trkpt>
      <trkpt lat="45.20819" lon="5.61154">
        <ele>1457.3</ele>
      </trkpt>
      <trkpt lat="45.20819" lon="5.61169">
        <ele>1455.8</ele>
      </trkpt>
      <trkpt lat="45.20819" lon="5.61184">
        <ele>1453.5</ele>
      </trkpt>
      <trkpt lat="45.20816" lon="5.61192">
        <ele>1451.5</ele>
      </trkpt>
      <trkpt lat="45.20808" lon="5.61203">
        <ele>1447.9</ele>
      </trkpt>
      <trkpt lat="45.20804" lon="5.61218">
        <ele>1444.8</ele>
      </trkpt>
      <trkpt lat="45.20797" lon="5.61251">
        <ele>1438.7</ele>
      </trkpt>
      <trkpt lat="45.20794" lon="5.61283">
        <ele>1432.9</ele>
      </trkpt>
      <trkpt lat="45.20793" lon="5.61307">
        <ele>1428.8</ele>
      </trkpt>
      <trkpt lat="45.20791" lon="5.61322">
        <ele>1426.1</ele>
      </trkpt>
      <trkpt lat="45.20787" lon="5.61339">
        <ele>1422.4</ele>
      </trkpt>
      <trkpt lat="45.2079" lon="5.61355">
        <ele>1420.3</ele>
      </trkpt>
      <trkpt lat="45.2079" lon="5.61373">
        <ele>1417.1</ele>
      </trkpt>
      <trkpt lat="45.20792" lon="5.61398">
        <ele>1413.3</ele>
      </trkpt>
      <trkpt lat="45.2079" lon="5.61425">
        <ele>1408.3</ele>
      </trkpt>
      <trkpt lat="45.20787" lon="5.61455">
        <ele>1403.1</ele>
      </trkpt>
      <trkpt lat="45.20781" lon="5.61482">
        <ele>1397.8</ele>
      </trkpt>
      <trkpt lat="45.20778" lon="5.61496">
        <ele>1395</ele>
      </trkpt>
      <trkpt lat="45.20771" lon="5.61512">
        <ele>1389.7</ele>
      </trkpt>
      <trkpt lat="45.2076" lon="5.61538">
        <ele>1380.1</ele>
      </trkpt>
      <trkpt lat="45.20752" lon="5.61554">
        <ele>1373.9</ele>
      </trkpt>
      <trkpt lat="45.20748" lon="5.61568">
        <ele>1369.4</ele>
      </trkpt>
      <trkpt lat="45.2074" lon="5.61541">
        <ele>1374.5</ele>
      </trkpt>
      <trkpt lat="45.20735" lon="5.61519">
        <ele>1379</ele>
      </trkpt>
      <trkpt lat="45.20725" lon="5.61498">
        <ele>1382.2</ele>
      </trkpt>
      <trkpt lat="45.20715" lon="5.61481">
        <ele>1382.7</ele>
      </trkpt>
      <trkpt lat="45.20702" lon="5.61469">
        <ele>1382.6</ele>
      </trkpt>
      <trkpt lat="45.2069" lon="5.6146">
        <ele>1382.1</ele>
      </trkpt>
      <trkpt lat="45.2068" lon="5.61457">
        <ele>1381.1</ele>
      </trkpt>
      <trkpt lat="45.20671" lon="5.61454">
        <ele>1380.2</ele>
      </trkpt>
      <trkpt lat="45.20662" lon="5.61453">
        <ele>1379.3</ele>
      </trkpt>
      <trkpt lat="45.20651" lon="5.61455">
        <ele>1378.1</ele>
      </trkpt>
      <trkpt lat="45.20635" lon="5.61455">
        <ele>1376.5</ele>
      </trkpt>
      <trkpt lat="45.20617" lon="5.61455">
        <ele>1374.6</ele>
      </trkpt>
      <trkpt lat="45.20608" lon="5.61445">
        <ele>1375.2</ele>
      </trkpt>
      <trkpt lat="45.20605" lon="5.61438">
        <ele>1375.8</ele>
      </trkpt>
      <trkpt lat="45.20598" lon="5.61419">
        <ele>1377.4</ele>
      </trkpt>
      <trkpt lat="45.20589" lon="5.61391">
        <ele>1378.4</ele>
      </trkpt>
      <trkpt lat="45.20585" lon="5.61371">
        <ele>1379</ele>
      </trkpt>
      <trkpt lat="45.20578" lon="5.61343">
        <ele>1379.5</ele>
      </trkpt>
      <trkpt lat="45.2056" lon="5.61327">
        <ele>1377.5</ele>
      </trkpt>
      <trkpt lat="45.20547" lon="5.61314">
        <ele>1376.4</ele>
      </trkpt>
      <trkpt lat="45.20508" lon="5.61281">
        <ele>1371.9</ele>
      </trkpt>
      <trkpt lat="45.20473" lon="5.6127">
        <ele>1365.2</ele>
      </trkpt>
      <trkpt lat="45.20452" lon="5.61274">
        <ele>1360</ele>
      </trkpt>
      <trkpt lat="45.20423" lon="5.61275">
        <ele>1353</ele>
      </trkpt>
      <trkpt lat="45.20406" lon="5.61268">
        <ele>1351.4</ele>
      </trkpt>
      <trkpt lat="45.20376" lon="5.61252">
        <ele>1351.2</ele>
      </trkpt>
      <trkpt lat="45.20358" lon="5.61244">
        <ele>1351.3</ele>
      </trkpt>
      <trkpt lat="45.20353" lon="5.61238">
        <ele>1352.1</ele>
      </trkpt>
      <trkpt lat="45.20348" lon="5.61223">
        <ele>1354.7</ele>
      </trkpt>
      <trkpt lat="45.20348" lon="5.61205">
        <ele>1358.5</ele>
      </trkpt>
      <trkpt lat="45.2035" lon="5.61191">
        <ele>1361.4</ele>
      </trkpt>
      <trkpt lat="45.20349" lon="5.6118">
        <ele>1363.5</ele>
      </trkpt>
      <trkpt lat="45.20336" lon="5.61153">
        <ele>1367.9</ele>
      </trkpt>
      <trkpt lat="45.20323" lon="5.61144">
        <ele>1367.4</ele>
      </trkpt>
      <trkpt lat="45.20317" lon="5.61144">
        <ele>1366.2</ele>
      </trkpt>
      <trkpt lat="45.2031" lon="5.61141">
        <ele>1365.6</ele>
      </trkpt>
      <trkpt lat="45.20295" lon="5.61116">
        <ele>1367.2</ele>
      </trkpt>
      <trkpt lat="45.20281" lon="5.61098">
        <ele>1367.8</ele>
      </trkpt>
      <trkpt lat="45.20264" lon="5.61069">
        <ele>1369.6</ele>
      </trkpt>
      <trkpt lat="45.2025" lon="5.61064">
        <ele>1367.5</ele>
      </trkpt>
      <trkpt lat="45.20228" lon="5.61077">
        <ele>1360.7</ele>
      </trkpt>
      <trkpt lat="45.2021" lon="5.61073">
        <ele>1358</ele>
      </trkpt>
      <trkpt lat="45.20192" lon="5.61065">
        <ele>1355.8</ele>
      </trkpt>
      <trkpt lat="45.20183" lon="5.6105">
        <ele>1356.9</ele>
      </trkpt>
      <trkpt lat="45.20172" lon="5.61033">
        <ele>1358.3</ele>
      </trkpt>
      <trkpt lat="45.20157" lon="5.6103">
        <ele>1356.4</ele>
      </trkpt>
      <trkpt lat="45.20143" lon="5.61034">
        <ele>1353.5</ele>
      </trkpt>
      <trkpt lat="45.20128" lon="5.61045">
        <ele>1348.5</ele>
      </trkpt>
      <trkpt lat="45.20086" lon="5.61072">
        <ele>1333.9</ele>
      </trkpt>
      <trkpt lat="45.20077" lon="5.61075">
        <ele>1331.7</ele>
      </trkpt>
      <trkpt lat="45.20051" lon="5.61073">
        <ele>1328.6</ele>
      </trkpt>
      <trkpt lat="45.20012" lon="5.61072">
        <ele>1323.7</ele>
      </trkpt>
      <trkpt lat="45.1999" lon="5.61063">
        <ele>1322.1</ele>
      </trkpt>
      <trkpt lat="45.19977" lon="5.61064">
        <ele>1319.3</ele>
      </trkpt>
      <trkpt lat="45.19961" lon="5.61066">
        <ele>1315.7</ele>
      </trkpt>
      <trkpt lat="45.19944" lon="5.61063">
        <ele>1313.2</ele>
      </trkpt>
      <trkpt lat="45.19934" lon="5.61054">
        <ele>1313.1</ele>
      </trkpt>
      <trkpt lat="45.19925" lon="5.61044">
        <ele>1313.3</ele>
      </trkpt>
      <trkpt lat="45.19921" lon="5.61034">
        <ele>1314.4</ele>
      </trkpt>
      <trkpt lat="45.19919" lon="5.61025">
        <ele>1315.6</ele>
      </trkpt>
      <trkpt lat="45.19915" lon="5.61018">
        <ele>1316.2</ele>
      </trkpt>
      <trkpt lat="45.19906" lon="5.61005">
        <ele>1316.5</ele>
      </trkpt>
      <trkpt lat="45.19885" lon="5.60985">
        <ele>1316.2</ele>
      </trkpt>
      <trkpt lat="45.19863" lon="5.60972">
        <ele>1314</ele>
      </trkpt>
      <trkpt lat="45.19817" lon="5.60951">
        <ele>1309.2</ele>
      </trkpt>
      <trkpt lat="45.19788" lon="5.60941">
        <ele>1306.8</ele>
      </trkpt>
      <trkpt lat="45.19774" lon="5.60939">
        <ele>1304.8</ele>
      </trkpt>
      <trkpt lat="45.19757" lon="5.60943">
        <ele>1300.7</ele>
      </trkpt>
      <trkpt lat="45.19715" lon="5.60946">
        <ele>1292.6</ele>
      </trkpt>
      <trkpt lat="45.19694" lon="5.60947">
        <ele>1288.8</ele>
      </trkpt>
      <trkpt lat="45.1964" lon="5.60942">
        <ele>1281.3</ele>
      </trkpt>
      <trkpt lat="45.19626" lon="5.60946">
        <ele>1276.3</ele>
      </trkpt>
      <trkpt lat="45.19603" lon="5.60951">
        <ele>1269.3</ele>
      </trkpt>
      <trkpt lat="45.19598" lon="5.60952">
        <ele>1267.9</ele>
      </trkpt>
      <trkpt lat="45.19579" lon="5.60961">
        <ele>1259.1</ele>
      </trkpt>
      <trkpt lat="45.19566" lon="5.60963">
        <ele>1254.7</ele>
      </trkpt>
      <trkpt lat="45.19551" lon="5.60968">
        <ele>1248.7</ele>
      </trkpt>
      <trkpt lat="45.1953" lon="5.60975">
        <ele>1240.3</ele>
      </trkpt>
      <trkpt lat="45.19517" lon="5.60973">
        <ele>1237.9</ele>
      </trkpt>
      <trkpt lat="45.19508" lon="5.6097">
        <ele>1237</ele>
      </trkpt>
      <trkpt lat="45.19497" lon="5.60968">
        <ele>1235</ele>
      </trkpt>
      <trkpt lat="45.19487" lon="5.60975">
        <ele>1230.4</ele>
      </trkpt>
      <trkpt lat="45.19471" lon="5.60974">
        <ele>1227.7</ele>
      </trkpt>
      <trkpt lat="45.19435" lon="5.60967">
        <ele>1223.4</ele>
      </trkpt>
      <trkpt lat="45.19414" lon="5.6096">
        <ele>1221.7</ele>
      </trkpt>
      <trkpt lat="45.19402" lon="5.60962">
        <ele>1219.2</ele>
      </trkpt>
      <trkpt lat="45.19366" lon="5.60977">
        <ele>1210.2</ele>
      </trkpt>
      <trkpt lat="45.19355" lon="5.6098">
        <ele>1207.9</ele>
      </trkpt>
      <trkpt lat="45.19339" lon="5.60982">
        <ele>1205.5</ele>
      </trkpt>
      <trkpt lat="45.1933" lon="5.60983">
        <ele>1204.3</ele>
      </trkpt>
      <trkpt lat="45.19323" lon="5.60986">
        <ele>1203.5</ele>
      </trkpt>
      <trkpt lat="45.19317" lon="5.60987">
        <ele>1203.1</ele>
      </trkpt>
      <trkpt lat="45.19312" lon="5.60991">
        <ele>1202</ele>
      </trkpt>
      <trkpt lat="45.19302" lon="5.61001">
        <ele>1199.4</ele>
      </trkpt>
      <trkpt lat="45.19292" lon="5.61015">
        <ele>1196.3</ele>
      </trkpt>
      <trkpt lat="45.19283" lon="5.61026">
        <ele>1194.3</ele>
      </trkpt>
      <trkpt lat="45.19274" lon="5.61033">
        <ele>1193.4</ele>
      </trkpt>
      <trkpt lat="45.19265" lon="5.61042">
        <ele>1192.4</ele>
      </trkpt>
      <trkpt lat="45.19259" lon="5.61049">
        <ele>1191.7</ele>
      </trkpt>
      <trkpt lat="45.19255" lon="5.61059">
        <ele>1190.8</ele>
      </trkpt>
      <trkpt lat="45.19242" lon="5.61077">
        <ele>1186.8</ele>
      </trkpt>
      <trkpt lat="45.19228" lon="5.61059">
        <ele>1185.5</ele>
      </trkpt>
      <trkpt lat="45.19205" lon="5.61021">
        <ele>1184.4</ele>
      </trkpt>
      <trkpt lat="45.19182" lon="5.61001">
        <ele>1181</ele>
      </trkpt>
      <trkpt lat="45.19149" lon="5.60963">
        <ele>1180.6</ele>
      </trkpt>
      <trkpt lat="45.19142" lon="5.60961">
        <ele>1179.1</ele>
      </trkpt>
      <trkpt lat="45.19122" lon="5.60969">
        <ele>1172.2</ele>
      </trkpt>
      <trkpt lat="45.19106" lon="5.60967">
        <ele>1168.5</ele>
      </trkpt>
      <trkpt lat="45.19092" lon="5.60958">
        <ele>1167.5</ele>
      </trkpt>
      <trkpt lat="45.19089" lon="5.60957">
        <ele>1167</ele>
      </trkpt>
      <trkpt lat="45.1908" lon="5.60954">
        <ele>1165.3</ele>
      </trkpt>
      <trkpt lat="45.19059" lon="5.6095">
        <ele>1160.9</ele>
      </trkpt>
      <trkpt lat="45.1905" lon="5.60948">
        <ele>1159.3</ele>
      </trkpt>
      <trkpt lat="45.19028" lon="5.60941">
        <ele>1155.2</ele>
      </trkpt>
      <trkpt lat="45.18987" lon="5.60926">
        <ele>1147</ele>
      </trkpt>
      <trkpt lat="45.1897" lon="5.60919">
        <ele>1142.8</ele>
      </trkpt>
      <trkpt lat="45.18957" lon="5.60917">
        <ele>1139</ele>
      </trkpt>
      <trkpt lat="45.18944" lon="5.60916">
        <ele>1134.8</ele>
      </trkpt>
      <trkpt lat="45.18935" lon="5.60901">
        <ele>1136.4</ele>
      </trkpt>
      <trkpt lat="45.1893" lon="5.6089">
        <ele>1138.3</ele>
      </trkpt>
      <trkpt lat="45.18923" lon="5.60874">
        <ele>1141.2</ele>
      </trkpt>
      <trkpt lat="45.18918" lon="5.60867">
        <ele>1142.2</ele>
      </trkpt>
      <trkpt lat="45.18913" lon="5.60863">
        <ele>1142.5</ele>
      </trkpt>
      <trkpt lat="45.18904" lon="5.60862">
        <ele>1142</ele>
      </trkpt>
      <trkpt lat="45.18893" lon="5.60864">
        <ele>1140</ele>
      </trkpt>
      <trkpt lat="45.18883" lon="5.6087">
        <ele>1136.8</ele>
      </trkpt>
      <trkpt lat="45.18873" lon="5.6088">
        <ele>1132.2</ele>
      </trkpt>
      <trkpt lat="45.18841" lon="5.60911">
        <ele>1118.7</ele>
      </trkpt>
      <trkpt lat="45.18821" lon="5.60915">
        <ele>1114.1</ele>
      </trkpt>
      <trkpt lat="45.1881" lon="5.60917">
        <ele>1111.5</ele>
      </trkpt>
      <trkpt lat="45.18799" lon="5.60915">
        <ele>1110.1</ele>
      </trkpt>
      <trkpt lat="45.18768" lon="5.60897">
        <ele>1110</ele>
      </trkpt>
      <trkpt lat="45.18764" lon="5.60892">
        <ele>1111</ele>
      </trkpt>
      <trkpt lat="45.18757" lon="5.60874">
        <ele>1115.8</ele>
      </trkpt>
      <trkpt lat="45.18749" lon="5.60868">
        <ele>1116.5</ele>
      </trkpt>
      <trkpt lat="45.1874" lon="5.60872">
        <ele>1116.3</ele>
      </trkpt>
      <trkpt lat="45.18737" lon="5.60878">
        <ele>1114.9</ele>
      </trkpt>
      <trkpt lat="45.18732" lon="5.60896">
        <ele>1109.9</ele>
      </trkpt>
      <trkpt lat="45.1872" lon="5.60926">
        <ele>1101.7</ele>
      </trkpt>
      <trkpt lat="45.18703" lon="5.60949">
        <ele>1096.4</ele>
      </trkpt>
      <trkpt lat="45.18687" lon="5.60961">
        <ele>1094.5</ele>
      </trkpt>
      <trkpt lat="45.18671" lon="5.60978">
        <ele>1090.7</ele>
      </trkpt>
      <trkpt lat="45.1865" lon="5.61012">
        <ele>1088.4</ele>
      </trkpt>
      <trkpt lat="45.18621" lon="5.61067">
        <ele>1087.6</ele>
      </trkpt>
      <trkpt lat="45.18588" lon="5.61155">
        <ele>1074.9</ele>
      </trkpt>
      <trkpt lat="45.18574" lon="5.61182">
        <ele>1074.4</ele>
      </trkpt>
      <trkpt lat="45.18559" lon="5.61201">
        <ele>1075.6</ele>
      </trkpt>
      <trkpt lat="45.18543" lon="5.61215">
        <ele>1078.1</ele>
      </trkpt>
      <trkpt lat="45.18526" lon="5.61236">
        <ele>1076.3</ele>
      </trkpt>
      <trkpt lat="45.18508" lon="5.61263">
        <ele>1071.7</ele>
      </trkpt>
      <trkpt lat="45.18497" lon="5.61297">
        <ele>1064.9</ele>
      </trkpt>
      <trkpt lat="45.18492" lon="5.61332">
        <ele>1055.1</ele>
      </trkpt>
      <trkpt lat="45.18493" lon="5.61372">
        <ele>1046.8</ele>
      </trkpt>
      <trkpt lat="45.18497" lon="5.61412">
        <ele>1037.8</ele>
      </trkpt>
      <trkpt lat="45.18502" lon="5.61455">
        <ele>1025.7</ele>
      </trkpt>
      <trkpt lat="45.185" lon="5.61481">
        <ele>1021.5</ele>
      </trkpt>
      <trkpt lat="45.18493" lon="5.61508">
        <ele>1016.1</ele>
      </trkpt>
      <trkpt lat="45.18463" lon="5.61563">
        <ele>1004.9</ele>
      </trkpt>
      <trkpt lat="45.18454" lon="5.61577">
        <ele>1002.9</ele>
      </trkpt>
      <trkpt lat="45.18443" lon="5.61587">
        <ele>1002.7</ele>
      </trkpt>
      <trkpt lat="45.18434" lon="5.61596">
        <ele>1002.5</ele>
      </trkpt>
      <trkpt lat="45.18422" lon="5.61602">
        <ele>1003.8</ele>
      </trkpt>
      <trkpt lat="45.1838" lon="5.61607">
        <ele>1001.7</ele>
      </trkpt>
      <trkpt lat="45.18326" lon="5.61615">
        <ele>995</ele>
      </trkpt>
      <trkpt lat="45.18306" lon="5.61616">
        <ele>991.5</ele>
      </trkpt>
      <trkpt lat="45.18262" lon="5.6161">
        <ele>988.6</ele>
      </trkpt>
      <trkpt lat="45.18223" lon="5.61615">
        <ele>977.9</ele>
      </trkpt>
      <trkpt lat="45.18153" lon="5.6162">
        <ele>960.9</ele>
      </trkpt>
      <trkpt lat="45.18117" lon="5.61617">
        <ele>957.3</ele>
      </trkpt>
      <trkpt lat="45.18111" lon="5.61616">
        <ele>956.8</ele>
      </trkpt>
      <trkpt lat="45.181" lon="5.61613">
        <ele>956.5</ele>
      </trkpt>
      <trkpt lat="45.18071" lon="5.61613">
        <ele>952.9</ele>
      </trkpt>
      <trkpt lat="45.18059" lon="5.61616">
        <ele>950.3</ele>
      </trkpt>
      <trkpt lat="45.18053" lon="5.61624">
        <ele>946.6</ele>
      </trkpt>
      <trkpt lat="45.18052" lon="5.61633">
        <ele>943</ele>
      </trkpt>
      <trkpt lat="45.18058" lon="5.61642">
        <ele>939.6</ele>
      </trkpt>
      <trkpt lat="45.1809" lon="5.61663">
        <ele>931.5</ele>
      </trkpt>
      <trkpt lat="45.18117" lon="5.61677">
        <ele>929.8</ele>
      </trkpt>
      <trkpt lat="45.18128" lon="5.61686">
        <ele>928.3</ele>
      </trkpt>
      <trkpt lat="45.18132" lon="5.61691">
        <ele>927</ele>
      </trkpt>
      <trkpt lat="45.18091" lon="5.61682">
        <ele>926.1</ele>
      </trkpt>
      <trkpt lat="45.1809" lon="5.61681">
        <ele>926.1</ele>
      </trkpt>
      <trkpt lat="45.18059" lon="5.61671">
        <ele>928.2</ele>
      </trkpt>
      <trkpt lat="45.18052" lon="5.61669">
        <ele>928.9</ele>
      </trkpt>
      <trkpt lat="45.18028" lon="5.6166">
        <ele>932.1</ele>
      </trkpt>
      <trkpt lat="45.18023" lon="5.61663">
        <ele>930.9</ele>
      </trkpt>
      <trkpt lat="45.18012" lon="5.61662">
        <ele>931.4</ele>
      </trkpt>
      <trkpt lat="45.18006" lon="5.61661">
        <ele>931.7</ele>
      </trkpt>
      <trkpt lat="45.18" lon="5.61659">
        <ele>932.3</ele>
      </trkpt>
      <trkpt lat="45.17993" lon="5.61665">
        <ele>930</ele>
      </trkpt>
      <trkpt lat="45.17989" lon="5.61671">
        <ele>927.9</ele>
      </trkpt>
      <trkpt lat="45.17985" lon="5.61688">
        <ele>923.2</ele>
      </trkpt>
      <trkpt lat="45.17986" lon="5.61696">
        <ele>920.9</ele>
      </trkpt>
      <trkpt lat="45.17986" lon="5.61701">
        <ele>919.6</ele>
      </trkpt>
      <trkpt lat="45.17988" lon="5.61705">
        <ele>918.6</ele>
      </trkpt>
      <trkpt lat="45.17992" lon="5.61708">
        <ele>918.2</ele>
      </trkpt>
      <trkpt lat="45.17994" lon="5.61711">
        <ele>917.5</ele>
      </trkpt>
      <trkpt lat="45.18001" lon="5.61726">
        <ele>913.7</ele>
      </trkpt>
      <trkpt lat="45.18004" lon="5.61743">
        <ele>909</ele>
      </trkpt>
      <trkpt lat="45.18008" lon="5.61761">
        <ele>904.2</ele>
      </trkpt>
      <trkpt lat="45.18011" lon="5.61783">
        <ele>898.4</ele>
      </trkpt>
      <trkpt lat="45.18015" lon="5.61808">
        <ele>891.7</ele>
      </trkpt>
      <trkpt lat="45.18035" lon="5.61807">
        <ele>891.9</ele>
      </trkpt>
      <trkpt lat="45.18039" lon="5.61813">
        <ele>890.2</ele>
      </trkpt>
      <trkpt lat="45.18018" lon="5.61823">
        <ele>887.5</ele>
      </trkpt>
      <trkpt lat="45.17997" lon="5.6183">
        <ele>885.7</ele>
      </trkpt>
      <trkpt lat="45.17961" lon="5.61837">
        <ele>882.4</ele>
      </trkpt>
      <trkpt lat="45.17944" lon="5.6184">
        <ele>880.9</ele>
      </trkpt>
      <trkpt lat="45.1793" lon="5.61837">
        <ele>881</ele>
      </trkpt>
      <trkpt lat="45.17914" lon="5.61833">
        <ele>880.8</ele>
      </trkpt>
      <trkpt lat="45.17898" lon="5.61838">
        <ele>878.8</ele>
      </trkpt>
      <trkpt lat="45.17855" lon="5.61848">
        <ele>873.2</ele>
      </trkpt>
      <trkpt lat="45.17837" lon="5.61849">
        <ele>871.3</ele>
      </trkpt>
      <trkpt lat="45.17821" lon="5.61847">
        <ele>871.3</ele>
      </trkpt>
      <trkpt lat="45.17803" lon="5.61841">
        <ele>872.4</ele>
      </trkpt>
      <trkpt lat="45.17789" lon="5.61841">
        <ele>872</ele>
      </trkpt>
      <trkpt lat="45.17778" lon="5.61848">
        <ele>869.9</ele>
      </trkpt>
      <trkpt lat="45.17764" lon="5.61859">
        <ele>866.9</ele>
      </trkpt>
      <trkpt lat="45.17758" lon="5.61863">
        <ele>865.8</ele>
      </trkpt>
      <trkpt lat="45.1775" lon="5.61865">
        <ele>864.9</ele>
      </trkpt>
      <trkpt lat="45.17737" lon="5.61866">
        <ele>863.4</ele>
      </trkpt>
      <trkpt lat="45.17726" lon="5.61865">
        <ele>862.5</ele>
      </trkpt>
      <trkpt lat="45.17716" lon="5.61864">
        <ele>861.6</ele>
      </trkpt>
      <trkpt lat="45.17708" lon="5.61864">
        <ele>860.7</ele>
      </trkpt>
      <trkpt lat="45.17701" lon="5.61871">
        <ele>858.5</ele>
      </trkpt>
      <trkpt lat="45.17699" lon="5.61876">
        <ele>857.4</ele>
      </trkpt>
      <trkpt lat="45.17696" lon="5.61886">
        <ele>855.3</ele>
      </trkpt>
      <trkpt lat="45.17685" lon="5.61875">
        <ele>856.3</ele>
      </trkpt>
      <trkpt lat="45.17671" lon="5.61856">
        <ele>857.9</ele>
      </trkpt>
      <trkpt lat="45.17661" lon="5.6184">
        <ele>859.9</ele>
      </trkpt>
      <trkpt lat="45.17656" lon="5.61821">
        <ele>862.7</ele>
      </trkpt>
      <trkpt lat="45.17652" lon="5.61814">
        <ele>863.7</ele>
      </trkpt>
      <trkpt lat="45.17647" lon="5.61809">
        <ele>864.4</ele>
      </trkpt>
      <trkpt lat="45.1764" lon="5.61804">
        <ele>864.7</ele>
      </trkpt>
      <trkpt lat="45.17632" lon="5.61803">
        <ele>864.5</ele>
      </trkpt>
      <trkpt lat="45.17625" lon="5.61803">
        <ele>864</ele>
      </trkpt>
      <trkpt lat="45.17611" lon="5.61808">
        <ele>862.6</ele>
      </trkpt>
      <trkpt lat="45.17584" lon="5.61816">
        <ele>860.2</ele>
      </trkpt>
      <trkpt lat="45.17584" lon="5.61833">
        <ele>858.1</ele>
      </trkpt>
      <trkpt lat="45.17583" lon="5.61836">
        <ele>858</ele>
      </trkpt>
      <trkpt lat="45.17581" lon="5.61838">
        <ele>858.4</ele>
      </trkpt>
      <trkpt lat="45.17576" lon="5.61842">
        <ele>859.2</ele>
      </trkpt>
      <trkpt lat="45.17571" lon="5.61845">
        <ele>860.3</ele>
      </trkpt>
      <trkpt lat="45.17567" lon="5.61845">
        <ele>861.1</ele>
      </trkpt>
      <trkpt lat="45.1756" lon="5.61845">
        <ele>862.2</ele>
      </trkpt>
      <trkpt lat="45.17556" lon="5.61844">
        <ele>862.8</ele>
      </trkpt>
      <trkpt lat="45.17553" lon="5.61844">
        <ele>863.3</ele>
      </trkpt>
      <trkpt lat="45.17551" lon="5.61843">
        <ele>863.6</ele>
      </trkpt>
      <trkpt lat="45.17546" lon="5.61844">
        <ele>864.5</ele>
      </trkpt>
      <trkpt lat="45.17539" lon="5.61847">
        <ele>866.4</ele>
      </trkpt>
      <trkpt lat="45.17535" lon="5.6185">
        <ele>867.9</ele>
      </trkpt>
      <trkpt lat="45.17531" lon="5.61852">
        <ele>869.2</ele>
      </trkpt>
      <trkpt lat="45.17527" lon="5.61853">
        <ele>870.4</ele>
      </trkpt>
      <trkpt lat="45.1752" lon="5.61852">
        <ele>871.8</ele>
      </trkpt>
      <trkpt lat="45.17516" lon="5.61853">
        <ele>872.8</ele>
      </trkpt>
      <trkpt lat="45.17504" lon="5.61855">
        <ele>876.3</ele>
      </trkpt>
      <trkpt lat="45.17496" lon="5.61864">
        <ele>882.6</ele>
      </trkpt>
      <trkpt lat="45.17487" lon="5.61877">
        <ele>892.9</ele>
      </trkpt>
      <trkpt lat="45.17477" lon="5.61872">
        <ele>896.1</ele>
      </trkpt>
      <trkpt lat="45.17468" lon="5.61869">
        <ele>899.2</ele>
      </trkpt>
      <trkpt lat="45.1746" lon="5.61861">
        <ele>899.6</ele>
      </trkpt>
      <trkpt lat="45.17454" lon="5.61855">
        <ele>899.6</ele>
      </trkpt>
      <trkpt lat="45.1745" lon="5.61843">
        <ele>896.7</ele>
      </trkpt>
      <trkpt lat="45.17444" lon="5.61839">
        <ele>897.7</ele>
      </trkpt>
      <trkpt lat="45.1744" lon="5.6184">
        <ele>900.3</ele>
      </trkpt>
      <trkpt lat="45.17436" lon="5.61844">
        <ele>903.5</ele>
      </trkpt>
      <trkpt lat="45.17433" lon="5.61847">
        <ele>906.5</ele>
      </trkpt>
      <trkpt lat="45.1743" lon="5.61849">
        <ele>909</ele>
      </trkpt>
      <trkpt lat="45.17428" lon="5.61855">
        <ele>912.6</ele>
      </trkpt>
      <trkpt lat="45.17428" lon="5.61861">
        <ele>915.5</ele>
      </trkpt>
      <trkpt lat="45.17426" lon="5.61861">
        <ele>916.6</ele>
      </trkpt>
      <trkpt lat="45.17421" lon="5.61855">
        <ele>916.5</ele>
      </trkpt>
      <trkpt lat="45.17414" lon="5.61849">
        <ele>916.4</ele>
      </trkpt>
      <trkpt lat="45.1741" lon="5.61846">
        <ele>917</ele>
      </trkpt>
      <trkpt lat="45.17418" lon="5.61866">
        <ele>923.2</ele>
      </trkpt>
      <trkpt lat="45.17426" lon="5.61875">
        <ele>923</ele>
      </trkpt>
      <trkpt lat="45.17429" lon="5.61879">
        <ele>923.7</ele>
      </trkpt>
      <trkpt lat="45.1743" lon="5.61884">
        <ele>925.3</ele>
      </trkpt>
      <trkpt lat="45.17429" lon="5.6189">
        <ele>928.8</ele>
      </trkpt>
      <trkpt lat="45.17427" lon="5.61892">
        <ele>931</ele>
      </trkpt>
      <trkpt lat="45.17424" lon="5.61892">
        <ele>932.3</ele>
      </trkpt>
      <trkpt lat="45.17423" lon="5.6189">
        <ele>932</ele>
      </trkpt>
      <trkpt lat="45.17422" lon="5.61892">
        <ele>933.3</ele>
      </trkpt>
      <trkpt lat="45.17424" lon="5.619">
        <ele>936</ele>
      </trkpt>
      <trkpt lat="45.1742" lon="5.61903">
        <ele>939.8</ele>
      </trkpt>
      <trkpt lat="45.17415" lon="5.61908">
        <ele>944.4</ele>
      </trkpt>
      <trkpt lat="45.17419" lon="5.61915">
        <ele>945.9</ele>
      </trkpt>
      <trkpt lat="45.17421" lon="5.61921">
        <ele>947.4</ele>
      </trkpt>
      <trkpt lat="45.17425" lon="5.61926">
        <ele>947.7</ele>
      </trkpt>
      <trkpt lat="45.17426" lon="5.6193">
        <ele>949.4</ele>
      </trkpt>
      <trkpt lat="45.17425" lon="5.61933">
        <ele>951</ele>
      </trkpt>
      <trkpt lat="45.17425" lon="5.61934">
        <ele>951.3</ele>
      </trkpt>
      <trkpt lat="45.17427" lon="5.61934">
        <ele>950.3</ele>
      </trkpt>
      <trkpt lat="45.17429" lon="5.61937">
        <ele>950.4</ele>
      </trkpt>
      <trkpt lat="45.1743" lon="5.6194">
        <ele>951.5</ele>
      </trkpt>
      <trkpt lat="45.17429" lon="5.61943">
        <ele>953</ele>
      </trkpt>
      <trkpt lat="45.17426" lon="5.61946">
        <ele>956.4</ele>
      </trkpt>
      <trkpt lat="45.17423" lon="5.61946">
        <ele>958</ele>
      </trkpt>
      <trkpt lat="45.1742" lon="5.61942">
        <ele>958</ele>
      </trkpt>
      <trkpt lat="45.17415" lon="5.61945">
        <ele>961.8</ele>
      </trkpt>
      <trkpt lat="45.17408" lon="5.6195">
        <ele>966.4</ele>
      </trkpt>
      <trkpt lat="45.17416" lon="5.61957">
        <ele>966.6</ele>
      </trkpt>
      <trkpt lat="45.17419" lon="5.61962">
        <ele>967.7</ele>
      </trkpt>
      <trkpt lat="45.1742" lon="5.61972">
        <ele>971.4</ele>
      </trkpt>
      <trkpt lat="45.17422" lon="5.61977">
        <ele>972.4</ele>
      </trkpt>
      <trkpt lat="45.17426" lon="5.6198">
        <ele>972.2</ele>
      </trkpt>
      <trkpt lat="45.17432" lon="5.61994">
        <ele>975.1</ele>
      </trkpt>
      <trkpt lat="45.17438" lon="5.62016">
        <ele>986.5</ele>
      </trkpt>
      <trkpt lat="45.17437" lon="5.62022">
        <ele>990.7</ele>
      </trkpt>
      <trkpt lat="45.17436" lon="5.62024">
        <ele>992.6</ele>
      </trkpt>
      <trkpt lat="45.17435" lon="5.62023">
        <ele>992.5</ele>
      </trkpt>
      <trkpt lat="45.17428" lon="5.62022">
        <ele>995.8</ele>
      </trkpt>
      <trkpt lat="45.17426" lon="5.62024">
        <ele>998.5</ele>
      </trkpt>
      <trkpt lat="45.17425" lon="5.62028">
        <ele>1001.6</ele>
      </trkpt>
      <trkpt lat="45.17418" lon="5.62029">
        <ele>1005.9</ele>
      </trkpt>
      <trkpt lat="45.1741" lon="5.62038">
        <ele>1015.3</ele>
      </trkpt>
      <trkpt lat="45.17401" lon="5.62041">
        <ele>1022.1</ele>
      </trkpt>
      <trkpt lat="45.17395" lon="5.62043">
        <ele>1025.6</ele>
      </trkpt>
      <trkpt lat="45.17387" lon="5.62046">
        <ele>1032</ele>
      </trkpt>
      <trkpt lat="45.1738" lon="5.62048">
        <ele>1035.9</ele>
      </trkpt>
      <trkpt lat="45.17375" lon="5.62048">
        <ele>1038.2</ele>
      </trkpt>
      <trkpt lat="45.17367" lon="5.6205">
        <ele>1043.4</ele>
      </trkpt>
      <trkpt lat="45.17364" lon="5.62054">
        <ele>1047.9</ele>
      </trkpt>
      <trkpt lat="45.17361" lon="5.62058">
        <ele>1052.7</ele>
      </trkpt>
      <trkpt lat="45.17356" lon="5.62063">
        <ele>1059.3</ele>
      </trkpt>
      <trkpt lat="45.17352" lon="5.62067">
        <ele>1064.6</ele>
      </trkpt>
      <trkpt lat="45.17351" lon="5.62072">
        <ele>1069.3</ele>
      </trkpt>
      <trkpt lat="45.17352" lon="5.62075">
        <ele>1071.3</ele>
      </trkpt>
      <trkpt lat="45.17357" lon="5.62074">
        <ele>1067.6</ele>
      </trkpt>
      <trkpt lat="45.1736" lon="5.62074">
        <ele>1066.3</ele>
      </trkpt>
      <trkpt lat="45.17363" lon="5.6208">
        <ele>1070.2</ele>
      </trkpt>
      <trkpt lat="45.17366" lon="5.62086">
        <ele>1072.6</ele>
      </trkpt>
      <trkpt lat="45.17369" lon="5.6209">
        <ele>1073.4</ele>
      </trkpt>
      <trkpt lat="45.17377" lon="5.62098">
        <ele>1074.1</ele>
      </trkpt>
      <trkpt lat="45.17387" lon="5.62103">
        <ele>1073.7</ele>
      </trkpt>
      <trkpt lat="45.17404" lon="5.62108">
        <ele>1070.3</ele>
      </trkpt>
      <trkpt lat="45.17414" lon="5.62117">
        <ele>1073.8</ele>
      </trkpt>
      <trkpt lat="45.17428" lon="5.62125">
        <ele>1072.8</ele>
      </trkpt>
      <trkpt lat="45.17444" lon="5.62132">
        <ele>1071.3</ele>
      </trkpt>
      <trkpt lat="45.17455" lon="5.62135">
        <ele>1067.6</ele>
      </trkpt>
      <trkpt lat="45.17471" lon="5.62137">
        <ele>1061.6</ele>
      </trkpt>
      <trkpt lat="45.17484" lon="5.62139">
        <ele>1056.8</ele>
      </trkpt>
      <trkpt lat="45.17495" lon="5.62147">
        <ele>1058</ele>
      </trkpt>
      <trkpt lat="45.1751" lon="5.62166">
        <ele>1065.1</ele>
      </trkpt>
      <trkpt lat="45.17515" lon="5.62178">
        <ele>1067.5</ele>
      </trkpt>
      <trkpt lat="45.17517" lon="5.62191">
        <ele>1073.1</ele>
      </trkpt>
      <trkpt lat="45.17517" lon="5.62216">
        <ele>1085.7</ele>
      </trkpt>
      <trkpt lat="45.17515" lon="5.62231">
        <ele>1093.4</ele>
      </trkpt>
      <trkpt lat="45.17512" lon="5.62245">
        <ele>1100.9</ele>
      </trkpt>
      <trkpt lat="45.17497" lon="5.62266">
        <ele>1111.1</ele>
      </trkpt>
      <trkpt lat="45.17483" lon="5.62284">
        <ele>1117.9</ele>
      </trkpt>
      <trkpt lat="45.17462" lon="5.62303">
        <ele>1124.3</ele>
      </trkpt>
      <trkpt lat="45.17446" lon="5.62328">
        <ele>1127.2</ele>
      </trkpt>
      <trkpt lat="45.17441" lon="5.62336">
        <ele>1127.5</ele>
      </trkpt>
      <trkpt lat="45.17447" lon="5.62354">
        <ele>1127.4</ele>
      </trkpt>
      <trkpt lat="45.17456" lon="5.62354">
        <ele>1127.4</ele>
      </trkpt>
      <trkpt lat="45.1748" lon="5.62327">
        <ele>1124.4</ele>
      </trkpt>
      <trkpt lat="45.17506" lon="5.62318">
        <ele>1120.4</ele>
      </trkpt>
      <trkpt lat="45.17533" lon="5.62313">
        <ele>1116.3</ele>
      </trkpt>
      <trkpt lat="45.1755" lon="5.62306">
        <ele>1112.1</ele>
      </trkpt>
      <trkpt lat="45.17552" lon="5.62309">
        <ele>1112.8</ele>
      </trkpt>
      <trkpt lat="45.17538" lon="5.62332">
        <ele>1121.8</ele>
      </trkpt>
      <trkpt lat="45.17526" lon="5.62358">
        <ele>1127.3</ele>
      </trkpt>
      <trkpt lat="45.17516" lon="5.62387">
        <ele>1132.4</ele>
      </trkpt>
      <trkpt lat="45.17509" lon="5.62403">
        <ele>1135.1</ele>
      </trkpt>
      <trkpt lat="45.17501" lon="5.62426">
        <ele>1136.9</ele>
      </trkpt>
      <trkpt lat="45.17499" lon="5.62462">
        <ele>1136.3</ele>
      </trkpt>
      <trkpt lat="45.17494" lon="5.62487">
        <ele>1135.8</ele>
      </trkpt>
      <trkpt lat="45.17488" lon="5.62492">
        <ele>1135.4</ele>
      </trkpt>
      <trkpt lat="45.17478" lon="5.62504">
        <ele>1134.6</ele>
      </trkpt>
      <trkpt lat="45.17457" lon="5.6253">
        <ele>1132.4</ele>
      </trkpt>
      <trkpt lat="45.17429" lon="5.62559">
        <ele>1133.7</ele>
      </trkpt>
      <trkpt lat="45.17393" lon="5.62614">
        <ele>1135.1</ele>
      </trkpt>
      <trkpt lat="45.17369" lon="5.62643">
        <ele>1136.1</ele>
      </trkpt>
      <trkpt lat="45.17318" lon="5.62689">
        <ele>1140.1</ele>
      </trkpt>
      <trkpt lat="45.17312" lon="5.62696">
        <ele>1140.3</ele>
      </trkpt>
      <trkpt lat="45.17299" lon="5.62731">
        <ele>1141.4</ele>
      </trkpt>
      <trkpt lat="45.17285" lon="5.62759">
        <ele>1143</ele>
      </trkpt>
      <trkpt lat="45.17278" lon="5.62763">
        <ele>1143.7</ele>
      </trkpt>
      <trkpt lat="45.17281" lon="5.62766">
        <ele>1143.2</ele>
      </trkpt>
      <trkpt lat="45.17281" lon="5.6277">
        <ele>1143.1</ele>
      </trkpt>
      <trkpt lat="45.17279" lon="5.62776">
        <ele>1143.2</ele>
      </trkpt>
      <trkpt lat="45.17245" lon="5.62874">
        <ele>1147.8</ele>
      </trkpt>
      <trkpt lat="45.17239" lon="5.62892">
        <ele>1148.6</ele>
      </trkpt>
      <trkpt lat="45.17233" lon="5.62905">
        <ele>1149.5</ele>
      </trkpt>
      <trkpt lat="45.17228" lon="5.62912">
        <ele>1150.2</ele>
      </trkpt>
      <trkpt lat="45.17223" lon="5.62916">
        <ele>1151</ele>
      </trkpt>
      <trkpt lat="45.17204" lon="5.62929">
        <ele>1153.9</ele>
      </trkpt>
      <trkpt lat="45.17197" lon="5.62935">
        <ele>1154.9</ele>
      </trkpt>
      <trkpt lat="45.1719" lon="5.62945">
        <ele>1156</ele>
      </trkpt>
      <trkpt lat="45.17186" lon="5.62952">
        <ele>1156.6</ele>
      </trkpt>
      <trkpt lat="45.17184" lon="5.62958">
        <ele>1156.9</ele>
      </trkpt>
      <trkpt lat="45.17184" lon="5.62979">
        <ele>1157.1</ele>
      </trkpt>
      <trkpt lat="45.17186" lon="5.63">
        <ele>1157.2</ele>
      </trkpt>
      <trkpt lat="45.17188" lon="5.63013">
        <ele>1157.1</ele>
      </trkpt>
      <trkpt lat="45.17191" lon="5.63034">
        <ele>1157.1</ele>
      </trkpt>
      <trkpt lat="45.17191" lon="5.63049">
        <ele>1157.2</ele>
      </trkpt>
      <trkpt lat="45.17202" lon="5.63049">
        <ele>1155.8</ele>
      </trkpt>
      <trkpt lat="45.17208" lon="5.63051">
        <ele>1155.1</ele>
      </trkpt>
      <trkpt lat="45.1721" lon="5.63038">
        <ele>1154.8</ele>
      </trkpt>
      <trkpt lat="45.17214" lon="5.6303">
        <ele>1154.3</ele>
      </trkpt>
      <trkpt lat="45.17218" lon="5.63023">
        <ele>1154</ele>
      </trkpt>
      <trkpt lat="45.17221" lon="5.63018">
        <ele>1153.6</ele>
      </trkpt>
      <trkpt lat="45.17227" lon="5.63014">
        <ele>1153</ele>
      </trkpt>
      <trkpt lat="45.17233" lon="5.63012">
        <ele>1152.5</ele>
      </trkpt>
      <trkpt lat="45.17241" lon="5.63011">
        <ele>1151.6</ele>
      </trkpt>
      <trkpt lat="45.17249" lon="5.63013">
        <ele>1150.8</ele>
      </trkpt>
      <trkpt lat="45.17257" lon="5.63015">
        <ele>1149.8</ele>
      </trkpt>
      <trkpt lat="45.17265" lon="5.63015">
        <ele>1148.8</ele>
      </trkpt>
      <trkpt lat="45.1727" lon="5.63014">
        <ele>1148.2</ele>
      </trkpt>
      <trkpt lat="45.17275" lon="5.6301">
        <ele>1147.7</ele>
      </trkpt>
      <trkpt lat="45.17278" lon="5.63003">
        <ele>1147.3</ele>
      </trkpt>
      <trkpt lat="45.17281" lon="5.62996">
        <ele>1146.6</ele>
      </trkpt>
      <trkpt lat="45.17292" lon="5.62973">
        <ele>1143.6</ele>
      </trkpt>
      <trkpt lat="45.173" lon="5.62956">
        <ele>1141</ele>
      </trkpt>
      <trkpt lat="45.17305" lon="5.62949">
        <ele>1139.7</ele>
      </trkpt>
      <trkpt lat="45.17309" lon="5.62942">
        <ele>1138.4</ele>
      </trkpt>
      <trkpt lat="45.17312" lon="5.6294">
        <ele>1137.9</ele>
      </trkpt>
      <trkpt lat="45.17315" lon="5.62939">
        <ele>1137.2</ele>
      </trkpt>
      <trkpt lat="45.17321" lon="5.62937">
        <ele>1136</ele>
      </trkpt>
      <trkpt lat="45.17356" lon="5.62934">
        <ele>1131.6</ele>
      </trkpt>
      <trkpt lat="45.17373" lon="5.62933">
        <ele>1129.9</ele>
      </trkpt>
      <trkpt lat="45.1739" lon="5.62935">
        <ele>1128.4</ele>
      </trkpt>
      <trkpt lat="45.17403" lon="5.6294">
        <ele>1127.4</ele>
      </trkpt>
      <trkpt lat="45.17416" lon="5.62948">
        <ele>1126.6</ele>
      </trkpt>
      <trkpt lat="45.17437" lon="5.62967">
        <ele>1126.5</ele>
      </trkpt>
      <trkpt lat="45.17482" lon="5.63005">
        <ele>1126.6</ele>
      </trkpt>
      <trkpt lat="45.17489" lon="5.63008">
        <ele>1126.3</ele>
      </trkpt>
      <trkpt lat="45.17494" lon="5.6301">
        <ele>1126</ele>
      </trkpt>
      <trkpt lat="45.17506" lon="5.63003">
        <ele>1125.5</ele>
      </trkpt>
      <trkpt lat="45.17545" lon="5.62955">
        <ele>1118.5</ele>
      </trkpt>
      <trkpt lat="45.17591" lon="5.62895">
        <ele>1109.8</ele>
      </trkpt>
      <trkpt lat="45.17642" lon="5.6285">
        <ele>1101.5</ele>
      </trkpt>
      <trkpt lat="45.17666" lon="5.62821">
        <ele>1098</ele>
      </trkpt>
      <trkpt lat="45.17679" lon="5.62794">
        <ele>1096.3</ele>
      </trkpt>
      <trkpt lat="45.1769" lon="5.62771">
        <ele>1095.7</ele>
      </trkpt>
      <trkpt lat="45.17693" lon="5.6281">
        <ele>1094.6</ele>
      </trkpt>
      <trkpt lat="45.17693" lon="5.6284">
        <ele>1093.4</ele>
      </trkpt>
      <trkpt lat="45.17693" lon="5.62868">
        <ele>1091.4</ele>
      </trkpt>
      <trkpt lat="45.17694" lon="5.62891">
        <ele>1089.7</ele>
      </trkpt>
      <trkpt lat="45.17694" lon="5.62905">
        <ele>1088.7</ele>
      </trkpt>
      <trkpt lat="45.17689" lon="5.62943">
        <ele>1088.5</ele>
      </trkpt>
      <trkpt lat="45.17689" lon="5.62953">
        <ele>1088.2</ele>
      </trkpt>
      <trkpt lat="45.17693" lon="5.62992">
        <ele>1086.4</ele>
      </trkpt>
      <trkpt lat="45.1769" lon="5.63044">
        <ele>1082.2</ele>
      </trkpt>
      <trkpt lat="45.17684" lon="5.63094">
        <ele>1079.4</ele>
      </trkpt>
      <trkpt lat="45.17685" lon="5.63105">
        <ele>1078.6</ele>
      </trkpt>
      <trkpt lat="45.17689" lon="5.63114">
        <ele>1077.2</ele>
      </trkpt>
      <trkpt lat="45.17694" lon="5.63124">
        <ele>1075.2</ele>
      </trkpt>
      <trkpt lat="45.17697" lon="5.63128">
        <ele>1074.4</ele>
      </trkpt>
      <trkpt lat="45.17703" lon="5.63134">
        <ele>1072.6</ele>
      </trkpt>
      <trkpt lat="45.1771" lon="5.63141">
        <ele>1070.6</ele>
      </trkpt>
      <trkpt lat="45.1772" lon="5.63148">
        <ele>1068.2</ele>
      </trkpt>
      <trkpt lat="45.17729" lon="5.63153">
        <ele>1066.1</ele>
      </trkpt>
      <trkpt lat="45.17737" lon="5.63155">
        <ele>1064.4</ele>
      </trkpt>
      <trkpt lat="45.17754" lon="5.63157">
        <ele>1061.4</ele>
      </trkpt>
      <trkpt lat="45.1776" lon="5.6316">
        <ele>1061.6</ele>
      </trkpt>
      <trkpt lat="45.17764" lon="5.63165">
        <ele>1061.9</ele>
      </trkpt>
      <trkpt lat="45.17767" lon="5.6317">
        <ele>1062</ele>
      </trkpt>
      <trkpt lat="45.17768" lon="5.63175">
        <ele>1062.1</ele>
      </trkpt>
      <trkpt lat="45.17769" lon="5.63183">
        <ele>1062.2</ele>
      </trkpt>
      <trkpt lat="45.17769" lon="5.63191">
        <ele>1062.3</ele>
      </trkpt>
      <trkpt lat="45.17768" lon="5.63201">
        <ele>1062.4</ele>
      </trkpt>
      <trkpt lat="45.17763" lon="5.63221">
        <ele>1062.7</ele>
      </trkpt>
      <trkpt lat="45.1776" lon="5.6323">
        <ele>1062.8</ele>
      </trkpt>
      <trkpt lat="45.17756" lon="5.63242">
        <ele>1062.9</ele>
      </trkpt>
      <trkpt lat="45.17752" lon="5.63252">
        <ele>1063.1</ele>
      </trkpt>
      <trkpt lat="45.17747" lon="5.63261">
        <ele>1063.7</ele>
      </trkpt>
      <trkpt lat="45.1774" lon="5.6327">
        <ele>1064.7</ele>
      </trkpt>
      <trkpt lat="45.17727" lon="5.63292">
        <ele>1066.8</ele>
      </trkpt>
      <trkpt lat="45.17724" lon="5.63305">
        <ele>1067.8</ele>
      </trkpt>
      <trkpt lat="45.17722" lon="5.63323">
        <ele>1068.8</ele>
      </trkpt>
      <trkpt lat="45.1772" lon="5.63345">
        <ele>1069.1</ele>
      </trkpt>
      <trkpt lat="45.17719" lon="5.63368">
        <ele>1068.3</ele>
      </trkpt>
      <trkpt lat="45.17719" lon="5.63395">
        <ele>1067.3</ele>
      </trkpt>
      <trkpt lat="45.17718" lon="5.63412">
        <ele>1066.7</ele>
      </trkpt>
      <trkpt lat="45.17718" lon="5.63427">
        <ele>1066</ele>
      </trkpt>
      <trkpt lat="45.17717" lon="5.63445">
        <ele>1065.1</ele>
      </trkpt>
      <trkpt lat="45.17716" lon="5.63464">
        <ele>1064</ele>
      </trkpt>
      <trkpt lat="45.17715" lon="5.63554">
        <ele>1061.4</ele>
      </trkpt>
      <trkpt lat="45.17715" lon="5.63565">
        <ele>1061.2</ele>
      </trkpt>
      <trkpt lat="45.17716" lon="5.63574">
        <ele>1061.1</ele>
      </trkpt>
      <trkpt lat="45.17721" lon="5.63587">
        <ele>1060.9</ele>
      </trkpt>
      <trkpt lat="45.17735" lon="5.63597">
        <ele>1060.4</ele>
      </trkpt>
      <trkpt lat="45.1774" lon="5.63634">
        <ele>1058.4</ele>
      </trkpt>
      <trkpt lat="45.17714" lon="5.63641">
        <ele>1059.3</ele>
      </trkpt>
      <trkpt lat="45.17696" lon="5.63647">
        <ele>1060.1</ele>
      </trkpt>
      <trkpt lat="45.17686" lon="5.63653">
        <ele>1060.7</ele>
      </trkpt>
      <trkpt lat="45.17678" lon="5.6365">
        <ele>1061.2</ele>
      </trkpt>
      <trkpt lat="45.17668" lon="5.63647">
        <ele>1061.7</ele>
      </trkpt>
      <trkpt lat="45.17659" lon="5.63645">
        <ele>1062.4</ele>
      </trkpt>
      <trkpt lat="45.17641" lon="5.63636">
        <ele>1063.9</ele>
      </trkpt>
      <trkpt lat="45.17623" lon="5.63625">
        <ele>1065.4</ele>
      </trkpt>
      <trkpt lat="45.17613" lon="5.63621">
        <ele>1066.4</ele>
      </trkpt>
      <trkpt lat="45.17599" lon="5.63618">
        <ele>1067.8</ele>
      </trkpt>
      <trkpt lat="45.17583" lon="5.63617">
        <ele>1069.3</ele>
      </trkpt>
      <trkpt lat="45.17537" lon="5.63621">
        <ele>1075.1</ele>
      </trkpt>
      <trkpt lat="45.17517" lon="5.63623">
        <ele>1077.8</ele>
      </trkpt>
      <trkpt lat="45.17487" lon="5.63629">
        <ele>1082.1</ele>
      </trkpt>
      <trkpt lat="45.17471" lon="5.63632">
        <ele>1084.7</ele>
      </trkpt>
      <trkpt lat="45.17459" lon="5.63639">
        <ele>1086.9</ele>
      </trkpt>
      <trkpt lat="45.17447" lon="5.6365">
        <ele>1089.5</ele>
      </trkpt>
      <trkpt lat="45.17431" lon="5.63657">
        <ele>1092.7</ele>
      </trkpt>
      <trkpt lat="45.17418" lon="5.63662">
        <ele>1095.3</ele>
      </trkpt>
      <trkpt lat="45.17406" lon="5.63665">
        <ele>1096.9</ele>
      </trkpt>
      <trkpt lat="45.17398" lon="5.63667">
        <ele>1097.7</ele>
      </trkpt>
      <trkpt lat="45.17399" lon="5.63672">
        <ele>1096.9</ele>
      </trkpt>
      <trkpt lat="45.17397" lon="5.63684">
        <ele>1095.4</ele>
      </trkpt>
      <trkpt lat="45.17392" lon="5.63695">
        <ele>1094.4</ele>
      </trkpt>
      <trkpt lat="45.17378" lon="5.63721">
        <ele>1093.1</ele>
      </trkpt>
      <trkpt lat="45.17371" lon="5.63732">
        <ele>1092.8</ele>
      </trkpt>
      <trkpt lat="45.17363" lon="5.63741">
        <ele>1093.3</ele>
      </trkpt>
      <trkpt lat="45.17331" lon="5.63764">
        <ele>1095.2</ele>
      </trkpt>
      <trkpt lat="45.173" lon="5.63792">
        <ele>1090.4</ele>
      </trkpt>
      <trkpt lat="45.17274" lon="5.63821">
        <ele>1084.6</ele>
      </trkpt>
      <trkpt lat="45.17261" lon="5.6383">
        <ele>1082.8</ele>
      </trkpt>
      <trkpt lat="45.17248" lon="5.6384">
        <ele>1081.1</ele>
      </trkpt>
      <trkpt lat="45.17236" lon="5.63851">
        <ele>1079.6</ele>
      </trkpt>
      <trkpt lat="45.17232" lon="5.63856">
        <ele>1079</ele>
      </trkpt>
      <trkpt lat="45.17212" lon="5.63875">
        <ele>1076.5</ele>
      </trkpt>
      <trkpt lat="45.17204" lon="5.63887">
        <ele>1075.2</ele>
      </trkpt>
      <trkpt lat="45.17197" lon="5.63889">
        <ele>1074.9</ele>
      </trkpt>
      <trkpt lat="45.17206" lon="5.63896">
        <ele>1074.2</ele>
      </trkpt>
      <trkpt lat="45.17216" lon="5.63905">
        <ele>1073.3</ele>
      </trkpt>
      <trkpt lat="45.1722" lon="5.63909">
        <ele>1072.9</ele>
      </trkpt>
      <trkpt lat="45.17212" lon="5.63919">
        <ele>1071.8</ele>
      </trkpt>
      <trkpt lat="45.17201" lon="5.63922">
        <ele>1071.4</ele>
      </trkpt>
      <trkpt lat="45.17186" lon="5.63928">
        <ele>1070.8</ele>
      </trkpt>
      <trkpt lat="45.17179" lon="5.63935">
        <ele>1070.1</ele>
      </trkpt>
      <trkpt lat="45.17173" lon="5.63954">
        <ele>1068.3</ele>
      </trkpt>
      <trkpt lat="45.17167" lon="5.63998">
        <ele>1064.2</ele>
      </trkpt>
      <trkpt lat="45.17164" lon="5.6402">
        <ele>1062.3</ele>
      </trkpt>
      <trkpt lat="45.17154" lon="5.64039">
        <ele>1060.9</ele>
      </trkpt>
      <trkpt lat="45.17146" lon="5.64065">
        <ele>1059</ele>
      </trkpt>
      <trkpt lat="45.17141" lon="5.64079">
        <ele>1057.9</ele>
      </trkpt>
      <trkpt lat="45.17139" lon="5.64093">
        <ele>1057.1</ele>
      </trkpt>
      <trkpt lat="45.17137" lon="5.64111">
        <ele>1056.1</ele>
      </trkpt>
      <trkpt lat="45.17137" lon="5.64129">
        <ele>1054.9</ele>
      </trkpt>
      <trkpt lat="45.1713" lon="5.64175">
        <ele>1051.5</ele>
      </trkpt>
      <trkpt lat="45.17127" lon="5.642">
        <ele>1049.1</ele>
      </trkpt>
      <trkpt lat="45.17124" lon="5.64227">
        <ele>1046.5</ele>
      </trkpt>
      <trkpt lat="45.1712" lon="5.64253">
        <ele>1043.8</ele>
      </trkpt>
      <trkpt lat="45.17113" lon="5.64268">
        <ele>1041.3</ele>
      </trkpt>
      <trkpt lat="45.17107" lon="5.64286">
        <ele>1038.6</ele>
      </trkpt>
      <trkpt lat="45.17103" lon="5.643">
        <ele>1036.5</ele>
      </trkpt>
      <trkpt lat="45.17098" lon="5.64311">
        <ele>1034.8</ele>
      </trkpt>
      <trkpt lat="45.17088" lon="5.64328">
        <ele>1032</ele>
      </trkpt>
      <trkpt lat="45.17083" lon="5.64336">
        <ele>1030.6</ele>
      </trkpt>
      <trkpt lat="45.17078" lon="5.64346">
        <ele>1029.2</ele>
      </trkpt>
      <trkpt lat="45.17073" lon="5.64362">
        <ele>1026.8</ele>
      </trkpt>
      <trkpt lat="45.17064" lon="5.64388">
        <ele>1022.7</ele>
      </trkpt>
      <trkpt lat="45.1706" lon="5.64405">
        <ele>1020</ele>
      </trkpt>
      <trkpt lat="45.17051" lon="5.64422">
        <ele>1017</ele>
      </trkpt>
      <trkpt lat="45.17046" lon="5.64445">
        <ele>1012</ele>
      </trkpt>
      <trkpt lat="45.17042" lon="5.64465">
        <ele>1007.9</ele>
      </trkpt>
      <trkpt lat="45.17036" lon="5.64484">
        <ele>1003.7</ele>
      </trkpt>
      <trkpt lat="45.17029" lon="5.645">
        <ele>1000</ele>
      </trkpt>
      <trkpt lat="45.17021" lon="5.64522">
        <ele>994.6</ele>
      </trkpt>
      <trkpt lat="45.17021" lon="5.64542">
        <ele>990.1</ele>
      </trkpt>
      <trkpt lat="45.17017" lon="5.64558">
        <ele>986.4</ele>
      </trkpt>
      <trkpt lat="45.17014" lon="5.6458">
        <ele>981.5</ele>
      </trkpt>
      <trkpt lat="45.17013" lon="5.64581">
        <ele>981.3</ele>
      </trkpt>
      <trkpt lat="45.17002" lon="5.64588">
        <ele>979.9</ele>
      </trkpt>
      <trkpt lat="45.17" lon="5.64593">
        <ele>978.7</ele>
      </trkpt>
      <trkpt lat="45.16999" lon="5.646">
        <ele>977</ele>
      </trkpt>
      <trkpt lat="45.17001" lon="5.64608">
        <ele>975.1</ele>
      </trkpt>
      <trkpt lat="45.17004" lon="5.64611">
        <ele>974.2</ele>
      </trkpt>
      <trkpt lat="45.17009" lon="5.64613">
        <ele>973.7</ele>
      </trkpt>
      <trkpt lat="45.17014" lon="5.64615">
        <ele>973.1</ele>
      </trkpt>
      <trkpt lat="45.17018" lon="5.64619">
        <ele>972.3</ele>
      </trkpt>
      <trkpt lat="45.1702" lon="5.64622">
        <ele>971.4</ele>
      </trkpt>
      <trkpt lat="45.17023" lon="5.64628">
        <ele>970</ele>
      </trkpt>
      <trkpt lat="45.17025" lon="5.64637">
        <ele>967.9</ele>
      </trkpt>
      <trkpt lat="45.17026" lon="5.64653">
        <ele>964.3</ele>
      </trkpt>
      <trkpt lat="45.17028" lon="5.64662">
        <ele>962.1</ele>
      </trkpt>
      <trkpt lat="45.17031" lon="5.64668">
        <ele>960.7</ele>
      </trkpt>
      <trkpt lat="45.17036" lon="5.64673">
        <ele>959.6</ele>
      </trkpt>
      <trkpt lat="45.1704" lon="5.64674">
        <ele>959.3</ele>
      </trkpt>
      <trkpt lat="45.17044" lon="5.64673">
        <ele>959.5</ele>
      </trkpt>
      <trkpt lat="45.17052" lon="5.6467">
        <ele>960.4</ele>
      </trkpt>
      <trkpt lat="45.17055" lon="5.64669">
        <ele>960.5</ele>
      </trkpt>
      <trkpt lat="45.17058" lon="5.64669">
        <ele>960.4</ele>
      </trkpt>
      <trkpt lat="45.17062" lon="5.64671">
        <ele>960.1</ele>
      </trkpt>
      <trkpt lat="45.17066" lon="5.64675">
        <ele>959.2</ele>
      </trkpt>
      <trkpt lat="45.17067" lon="5.64678">
        <ele>958.4</ele>
      </trkpt>
      <trkpt lat="45.17067" lon="5.64682">
        <ele>957.7</ele>
      </trkpt>
      <trkpt lat="45.17065" lon="5.64687">
        <ele>956.5</ele>
      </trkpt>
      <trkpt lat="45.17063" lon="5.64694">
        <ele>955</ele>
      </trkpt>
      <trkpt lat="45.1706" lon="5.64701">
        <ele>953.6</ele>
      </trkpt>
      <trkpt lat="45.17058" lon="5.64706">
        <ele>952.3</ele>
      </trkpt>
      <trkpt lat="45.17056" lon="5.64713">
        <ele>950.7</ele>
      </trkpt>
      <trkpt lat="45.17049" lon="5.64723">
        <ele>948.6</ele>
      </trkpt>
      <trkpt lat="45.17046" lon="5.64727">
        <ele>947.6</ele>
      </trkpt>
      <trkpt lat="45.1704" lon="5.64731">
        <ele>946.8</ele>
      </trkpt>
      <trkpt lat="45.17033" lon="5.64738">
        <ele>945.2</ele>
      </trkpt>
      <trkpt lat="45.17027" lon="5.6474">
        <ele>944.5</ele>
      </trkpt>
      <trkpt lat="45.1702" lon="5.64741">
        <ele>944.3</ele>
      </trkpt>
      <trkpt lat="45.17005" lon="5.64741">
        <ele>944.2</ele>
      </trkpt>
      <trkpt lat="45.16995" lon="5.64744">
        <ele>943.2</ele>
      </trkpt>
      <trkpt lat="45.1698" lon="5.64754">
        <ele>940.2</ele>
      </trkpt>
      <trkpt lat="45.16974" lon="5.64758">
        <ele>939.1</ele>
      </trkpt>
      <trkpt lat="45.16962" lon="5.64777">
        <ele>934.7</ele>
      </trkpt>
      <trkpt lat="45.16955" lon="5.64796">
        <ele>930.6</ele>
      </trkpt>
      <trkpt lat="45.16952" lon="5.64808">
        <ele>928.1</ele>
      </trkpt>
      <trkpt lat="45.1695" lon="5.6482">
        <ele>925.8</ele>
      </trkpt>
      <trkpt lat="45.16947" lon="5.64828">
        <ele>924.4</ele>
      </trkpt>
      <trkpt lat="45.16947" lon="5.64836">
        <ele>922.6</ele>
      </trkpt>
      <trkpt lat="45.16947" lon="5.64848">
        <ele>920</ele>
      </trkpt>
      <trkpt lat="45.16958" lon="5.64851">
        <ele>918.4</ele>
      </trkpt>
      <trkpt lat="45.16965" lon="5.64855">
        <ele>916.7</ele>
      </trkpt>
      <trkpt lat="45.16975" lon="5.64866">
        <ele>912.9</ele>
      </trkpt>
      <trkpt lat="45.16979" lon="5.64874">
        <ele>910.3</ele>
      </trkpt>
      <trkpt lat="45.16984" lon="5.64885">
        <ele>906.8</ele>
      </trkpt>
      <trkpt lat="45.16992" lon="5.6489">
        <ele>904.3</ele>
      </trkpt>
      <trkpt lat="45.17003" lon="5.64891">
        <ele>902.6</ele>
      </trkpt>
      <trkpt lat="45.17009" lon="5.64889">
        <ele>903.1</ele>
      </trkpt>
      <trkpt lat="45.17015" lon="5.64886">
        <ele>903.9</ele>
      </trkpt>
      <trkpt lat="45.17021" lon="5.64886">
        <ele>903.8</ele>
      </trkpt>
      <trkpt lat="45.17025" lon="5.64889">
        <ele>902.6</ele>
      </trkpt>
      <trkpt lat="45.16997" lon="5.64916">
        <ele>895.7</ele>
      </trkpt>
      <trkpt lat="45.16975" lon="5.64941">
        <ele>893.6</ele>
      </trkpt>
      <trkpt lat="45.16964" lon="5.64949">
        <ele>893.9</ele>
      </trkpt>
      <trkpt lat="45.16957" lon="5.64957">
        <ele>893.8</ele>
      </trkpt>
      <trkpt lat="45.16948" lon="5.64972">
        <ele>892.7</ele>
      </trkpt>
      <trkpt lat="45.16947" lon="5.64981">
        <ele>890.9</ele>
      </trkpt>
      <trkpt lat="45.16951" lon="5.64995">
        <ele>887.2</ele>
      </trkpt>
      <trkpt lat="45.16955" lon="5.65002">
        <ele>884.7</ele>
      </trkpt>
      <trkpt lat="45.1696" lon="5.65013">
        <ele>882.4</ele>
      </trkpt>
      <trkpt lat="45.16964" lon="5.65014">
        <ele>881.2</ele>
      </trkpt>
      <trkpt lat="45.16969" lon="5.65015">
        <ele>879.7</ele>
      </trkpt>
      <trkpt lat="45.16986" lon="5.65013">
        <ele>875.5</ele>
      </trkpt>
      <trkpt lat="45.1699" lon="5.65032">
        <ele>872.5</ele>
      </trkpt>
      <trkpt lat="45.16995" lon="5.65051">
        <ele>869.5</ele>
      </trkpt>
      <trkpt lat="45.16994" lon="5.65053">
        <ele>869.4</ele>
      </trkpt>
      <trkpt lat="45.16993" lon="5.65057">
        <ele>869.3</ele>
      </trkpt>
      <trkpt lat="45.16993" lon="5.65062">
        <ele>869</ele>
      </trkpt>
      <trkpt lat="45.16992" lon="5.65071">
        <ele>868.3</ele>
      </trkpt>
      <trkpt lat="45.16993" lon="5.65079">
        <ele>867.3</ele>
      </trkpt>
      <trkpt lat="45.16994" lon="5.65085">
        <ele>866.5</ele>
      </trkpt>
      <trkpt lat="45.16996" lon="5.6509">
        <ele>865.8</ele>
      </trkpt>
      <trkpt lat="45.16999" lon="5.65094">
        <ele>864.9</ele>
      </trkpt>
      <trkpt lat="45.17002" lon="5.65098">
        <ele>864.2</ele>
      </trkpt>
      <trkpt lat="45.17001" lon="5.65105">
        <ele>864.1</ele>
      </trkpt>
      <trkpt lat="45.17001" lon="5.65112">
        <ele>863.8</ele>
      </trkpt>
      <trkpt lat="45.17002" lon="5.65127">
        <ele>863</ele>
      </trkpt>
      <trkpt lat="45.17005" lon="5.65138">
        <ele>862</ele>
      </trkpt>
      <trkpt lat="45.17009" lon="5.65149">
        <ele>860.6</ele>
      </trkpt>
      <trkpt lat="45.17012" lon="5.65158">
        <ele>859.6</ele>
      </trkpt>
      <trkpt lat="45.17003" lon="5.65171">
        <ele>861</ele>
      </trkpt>
      <trkpt lat="45.16989" lon="5.65187">
        <ele>863.9</ele>
      </trkpt>
      <trkpt lat="45.16986" lon="5.65189">
        <ele>864.8</ele>
      </trkpt>
      <trkpt lat="45.1698" lon="5.65201">
        <ele>866.1</ele>
      </trkpt>
      <trkpt lat="45.16979" lon="5.65209">
        <ele>866.1</ele>
      </trkpt>
      <trkpt lat="45.16988" lon="5.65219">
        <ele>862.6</ele>
      </trkpt>
      <trkpt lat="45.16997" lon="5.65229">
        <ele>858.8</ele>
      </trkpt>
      <trkpt lat="45.17008" lon="5.65236">
        <ele>855.4</ele>
      </trkpt>
      <trkpt lat="45.17007" lon="5.65246">
        <ele>854.8</ele>
      </trkpt>
      <trkpt lat="45.17005" lon="5.65258">
        <ele>855</ele>
      </trkpt>
      <trkpt lat="45.17002" lon="5.65286">
        <ele>855.6</ele>
      </trkpt>
      <trkpt lat="45.17001" lon="5.65314">
        <ele>855.6</ele>
      </trkpt>
      <trkpt lat="45.17015" lon="5.6536">
        <ele>850.4</ele>
      </trkpt>
      <trkpt lat="45.17034" lon="5.65414">
        <ele>844.2</ele>
      </trkpt>
      <trkpt lat="45.1704" lon="5.65444">
        <ele>838.8</ele>
      </trkpt>
      <trkpt lat="45.17048" lon="5.65468">
        <ele>833.2</ele>
      </trkpt>
      <trkpt lat="45.17055" lon="5.65487">
        <ele>829.2</ele>
      </trkpt>
      <trkpt lat="45.17059" lon="5.65495">
        <ele>827.3</ele>
      </trkpt>
      <trkpt lat="45.17059" lon="5.65509">
        <ele>825.9</ele>
      </trkpt>
      <trkpt lat="45.17059" lon="5.65522">
        <ele>824.6</ele>
      </trkpt>
      <trkpt lat="45.17058" lon="5.65538">
        <ele>823.1</ele>
      </trkpt>
      <trkpt lat="45.17058" lon="5.65551">
        <ele>821.9</ele>
      </trkpt>
      <trkpt lat="45.17057" lon="5.65562">
        <ele>820.9</ele>
      </trkpt>
      <trkpt lat="45.1706" lon="5.65597">
        <ele>816.5</ele>
      </trkpt>
      <trkpt lat="45.17069" lon="5.65645">
        <ele>809</ele>
      </trkpt>
      <trkpt lat="45.17072" lon="5.65687">
        <ele>803.6</ele>
      </trkpt>
      <trkpt lat="45.17072" lon="5.65718">
        <ele>800</ele>
      </trkpt>
      <trkpt lat="45.17073" lon="5.65727">
        <ele>798.8</ele>
      </trkpt>
      <trkpt lat="45.17075" lon="5.65735">
        <ele>797.7</ele>
      </trkpt>
      <trkpt lat="45.17078" lon="5.65741">
        <ele>796.7</ele>
      </trkpt>
      <trkpt lat="45.1708" lon="5.65742">
        <ele>796.3</ele>
      </trkpt>
      <trkpt lat="45.17083" lon="5.65749">
        <ele>795.2</ele>
      </trkpt>
      <trkpt lat="45.17085" lon="5.65755">
        <ele>794.3</ele>
      </trkpt>
      <trkpt lat="45.1709" lon="5.65763">
        <ele>792.9</ele>
      </trkpt>
      <trkpt lat="45.17095" lon="5.65771">
        <ele>791.5</ele>
      </trkpt>
      <trkpt lat="45.17098" lon="5.65779">
        <ele>790.4</ele>
      </trkpt>
      <trkpt lat="45.17105" lon="5.65788">
        <ele>788.8</ele>
      </trkpt>
      <trkpt lat="45.17112" lon="5.65798">
        <ele>787.2</ele>
      </trkpt>
      <trkpt lat="45.1712" lon="5.65815">
        <ele>785.1</ele>
      </trkpt>
      <trkpt lat="45.17125" lon="5.65838">
        <ele>783.1</ele>
      </trkpt>
      <trkpt lat="45.17127" lon="5.65845">
        <ele>782.1</ele>
      </trkpt>
      <trkpt lat="45.17128" lon="5.65852">
        <ele>781.2</ele>
      </trkpt>
      <trkpt lat="45.17125" lon="5.65861">
        <ele>780.5</ele>
      </trkpt>
      <trkpt lat="45.17121" lon="5.65871">
        <ele>779.8</ele>
      </trkpt>
      <trkpt lat="45.17121" lon="5.6588">
        <ele>778.7</ele>
      </trkpt>
      <trkpt lat="45.1713" lon="5.65895">
        <ele>776.5</ele>
      </trkpt>
      <trkpt lat="45.17148" lon="5.65928">
        <ele>771.4</ele>
      </trkpt>
      <trkpt lat="45.17157" lon="5.65955">
        <ele>767</ele>
      </trkpt>
      <trkpt lat="45.17183" lon="5.66002">
        <ele>753.2</ele>
      </trkpt>
      <trkpt lat="45.1719" lon="5.66031">
        <ele>747.7</ele>
      </trkpt>
      <trkpt lat="45.17191" lon="5.66063">
        <ele>744.4</ele>
      </trkpt>
      <trkpt lat="45.17199" lon="5.66101">
        <ele>739.2</ele>
      </trkpt>
      <trkpt lat="45.17197" lon="5.66125">
        <ele>738.2</ele>
      </trkpt>
      <trkpt lat="45.17204" lon="5.66167">
        <ele>733.8</ele>
      </trkpt>
      <trkpt lat="45.17214" lon="5.662">
        <ele>728.2</ele>
      </trkpt>
      <trkpt lat="45.17218" lon="5.66226">
        <ele>725.2</ele>
      </trkpt>
      <trkpt lat="45.17227" lon="5.6626">
        <ele>718.8</ele>
      </trkpt>
      <trkpt lat="45.1723" lon="5.66272">
        <ele>715</ele>
      </trkpt>
      <trkpt lat="45.1723" lon="5.6628">
        <ele>712.8</ele>
      </trkpt>
      <trkpt lat="45.1723" lon="5.66288">
        <ele>710.8</ele>
      </trkpt>
      <trkpt lat="45.17229" lon="5.66297">
        <ele>709</ele>
      </trkpt>
      <trkpt lat="45.17226" lon="5.66304">
        <ele>707.5</ele>
      </trkpt>
      <trkpt lat="45.17222" lon="5.6631">
        <ele>706.8</ele>
      </trkpt>
      <trkpt lat="45.17217" lon="5.66312">
        <ele>707.3</ele>
      </trkpt>
      <trkpt lat="45.17202" lon="5.66315">
        <ele>709.3</ele>
      </trkpt>
      <trkpt lat="45.17189" lon="5.66319">
        <ele>710.5</ele>
      </trkpt>
      <trkpt lat="45.17175" lon="5.66328">
        <ele>710.3</ele>
      </trkpt>
      <trkpt lat="45.1717" lon="5.6633">
        <ele>710.6</ele>
      </trkpt>
      <trkpt lat="45.17163" lon="5.66332">
        <ele>711.5</ele>
      </trkpt>
      <trkpt lat="45.17151" lon="5.66337">
        <ele>712.6</ele>
      </trkpt>
      <trkpt lat="45.17142" lon="5.66344">
        <ele>712.4</ele>
      </trkpt>
      <trkpt lat="45.17136" lon="5.66352">
        <ele>711.1</ele>
      </trkpt>
      <trkpt lat="45.17129" lon="5.66362">
        <ele>709.4</ele>
      </trkpt>
      <trkpt lat="45.17116" lon="5.66388">
        <ele>704.3</ele>
      </trkpt>
      <trkpt lat="45.17108" lon="5.66407">
        <ele>700.3</ele>
      </trkpt>
      <trkpt lat="45.17102" lon="5.66424">
        <ele>696.8</ele>
      </trkpt>
      <trkpt lat="45.171" lon="5.66434">
        <ele>694.8</ele>
      </trkpt>
      <trkpt lat="45.17095" lon="5.66441">
        <ele>694.6</ele>
      </trkpt>
      <trkpt lat="45.17088" lon="5.6645">
        <ele>694.2</ele>
      </trkpt>
      <trkpt lat="45.17078" lon="5.6646">
        <ele>695.2</ele>
      </trkpt>
      <trkpt lat="45.17069" lon="5.66474">
        <ele>695.7</ele>
      </trkpt>
      <trkpt lat="45.1706" lon="5.66487">
        <ele>696.3</ele>
      </trkpt>
      <trkpt lat="45.17072" lon="5.66484">
        <ele>692</ele>
      </trkpt>
      <trkpt lat="45.17085" lon="5.66483">
        <ele>687.4</ele>
      </trkpt>
      <trkpt lat="45.17097" lon="5.66483">
        <ele>684</ele>
      </trkpt>
      <trkpt lat="45.17107" lon="5.66484">
        <ele>681.3</ele>
      </trkpt>
      <trkpt lat="45.17114" lon="5.66486">
        <ele>678.7</ele>
      </trkpt>
      <trkpt lat="45.17116" lon="5.66493">
        <ele>676.1</ele>
      </trkpt>
      <trkpt lat="45.17116" lon="5.6651">
        <ele>672.4</ele>
      </trkpt>
      <trkpt lat="45.17116" lon="5.66524">
        <ele>669.5</ele>
      </trkpt>
      <trkpt lat="45.17117" lon="5.66537">
        <ele>666.4</ele>
      </trkpt>
      <trkpt lat="45.17116" lon="5.66554">
        <ele>663.2</ele>
      </trkpt>
      <trkpt lat="45.17107" lon="5.66576">
        <ele>660.3</ele>
      </trkpt>
      <trkpt lat="45.17099" lon="5.66597">
        <ele>657.7</ele>
      </trkpt>
      <trkpt lat="45.17105" lon="5.6662">
        <ele>652.2</ele>
      </trkpt>
      <trkpt lat="45.17108" lon="5.66625">
        <ele>650.8</ele>
      </trkpt>
      <trkpt lat="45.17119" lon="5.66641">
        <ele>646.6</ele>
      </trkpt>
      <trkpt lat="45.17124" lon="5.66649">
        <ele>644.9</ele>
      </trkpt>
      <trkpt lat="45.17128" lon="5.66657">
        <ele>643.3</ele>
      </trkpt>
      <trkpt lat="45.17135" lon="5.66674">
        <ele>641.1</ele>
      </trkpt>
      <trkpt lat="45.17139" lon="5.66687">
        <ele>640.4</ele>
      </trkpt>
      <trkpt lat="45.17142" lon="5.66691">
        <ele>640.3</ele>
      </trkpt>
      <trkpt lat="45.17144" lon="5.66692">
        <ele>640.3</ele>
      </trkpt>
      <trkpt lat="45.17147" lon="5.66693">
        <ele>640.4</ele>
      </trkpt>
      <trkpt lat="45.1715" lon="5.66691">
        <ele>640.5</ele>
      </trkpt>
      <trkpt lat="45.17153" lon="5.66686">
        <ele>640.6</ele>
      </trkpt>
      <trkpt lat="45.17155" lon="5.66681">
        <ele>640.6</ele>
      </trkpt>
      <trkpt lat="45.17155" lon="5.66674">
        <ele>640.6</ele>
      </trkpt>
      <trkpt lat="45.17155" lon="5.6667">
        <ele>640.6</ele>
      </trkpt>
      <trkpt lat="45.17157" lon="5.66668">
        <ele>640.5</ele>
      </trkpt>
      <trkpt lat="45.17161" lon="5.66665">
        <ele>640.5</ele>
      </trkpt>
      <trkpt lat="45.17162" lon="5.66676">
        <ele>640.4</ele>
      </trkpt>
      <trkpt lat="45.17162" lon="5.66683">
        <ele>640.6</ele>
      </trkpt>
      <trkpt lat="45.17161" lon="5.66689">
        <ele>640.7</ele>
      </trkpt>
      <trkpt lat="45.1716" lon="5.66694">
        <ele>640.8</ele>
      </trkpt>
      <trkpt lat="45.1716" lon="5.66696">
        <ele>640.8</ele>
      </trkpt>
      <trkpt lat="45.17159" lon="5.66698">
        <ele>640.8</ele>
      </trkpt>
      <trkpt lat="45.17157" lon="5.66703">
        <ele>640.8</ele>
      </trkpt>
      <trkpt lat="45.17155" lon="5.66707">
        <ele>640.6</ele>
      </trkpt>
      <trkpt lat="45.17152" lon="5.66709">
        <ele>640.4</ele>
      </trkpt>
      <trkpt lat="45.17149" lon="5.66711">
        <ele>640.2</ele>
      </trkpt>
      <trkpt lat="45.17146" lon="5.66713">
        <ele>639.9</ele>
      </trkpt>
      <trkpt lat="45.17143" lon="5.66713">
        <ele>639.6</ele>
      </trkpt>
      <trkpt lat="45.1714" lon="5.66713">
        <ele>639.4</ele>
      </trkpt>
      <trkpt lat="45.17134" lon="5.66712">
        <ele>638.9</ele>
      </trkpt>
      <trkpt lat="45.17127" lon="5.6671">
        <ele>638.6</ele>
      </trkpt>
      <trkpt lat="45.17121" lon="5.66707">
        <ele>638.3</ele>
      </trkpt>
      <trkpt lat="45.17109" lon="5.667">
        <ele>638.4</ele>
      </trkpt>
      <trkpt lat="45.17095" lon="5.66692">
        <ele>639.1</ele>
      </trkpt>
      <trkpt lat="45.17085" lon="5.66687">
        <ele>639.9</ele>
      </trkpt>
      <trkpt lat="45.17075" lon="5.66682">
        <ele>641.1</ele>
      </trkpt>
      <trkpt lat="45.1707" lon="5.66679">
        <ele>641.9</ele>
      </trkpt>
      <trkpt lat="45.17067" lon="5.66678">
        <ele>642.2</ele>
      </trkpt>
      <trkpt lat="45.17063" lon="5.66678">
        <ele>642.3</ele>
      </trkpt>
      <trkpt lat="45.17056" lon="5.6668">
        <ele>642.1</ele>
      </trkpt>
      <trkpt lat="45.17038" lon="5.66683">
        <ele>641.7</ele>
      </trkpt>
      <trkpt lat="45.17" lon="5.66691">
        <ele>639.1</ele>
      </trkpt>
      <trkpt lat="45.16991" lon="5.66693">
        <ele>639.5</ele>
      </trkpt>
      <trkpt lat="45.16984" lon="5.66695">
        <ele>639.5</ele>
      </trkpt>
      <trkpt lat="45.16979" lon="5.66697">
        <ele>639</ele>
      </trkpt>
      <trkpt lat="45.16974" lon="5.667">
        <ele>638.3</ele>
      </trkpt>
      <trkpt lat="45.16969" lon="5.66705">
        <ele>636.7</ele>
      </trkpt>
      <trkpt lat="45.16958" lon="5.66716">
        <ele>633.3</ele>
      </trkpt>
      <trkpt lat="45.16934" lon="5.66741">
        <ele>624.1</ele>
      </trkpt>
      <trkpt lat="45.16918" lon="5.66757">
        <ele>618.6</ele>
      </trkpt>
      <trkpt lat="45.16902" lon="5.66771">
        <ele>614</ele>
      </trkpt>
      <trkpt lat="45.16896" lon="5.66774">
        <ele>612.9</ele>
      </trkpt>
      <trkpt lat="45.1689" lon="5.66777">
        <ele>612</ele>
      </trkpt>
      <trkpt lat="45.16888" lon="5.66778">
        <ele>611.6</ele>
      </trkpt>
      <trkpt lat="45.16885" lon="5.66779">
        <ele>611.4</ele>
      </trkpt>
      <trkpt lat="45.16882" lon="5.6678">
        <ele>611.2</ele>
      </trkpt>
      <trkpt lat="45.16879" lon="5.6678">
        <ele>611.2</ele>
      </trkpt>
      <trkpt lat="45.16872" lon="5.66787">
        <ele>608.8</ele>
      </trkpt>
      <trkpt lat="45.16858" lon="5.6679">
        <ele>607.8</ele>
      </trkpt>
      <trkpt lat="45.16843" lon="5.66789">
        <ele>608.5</ele>
      </trkpt>
      <trkpt lat="45.16822" lon="5.66787">
        <ele>609.3</ele>
      </trkpt>
      <trkpt lat="45.16804" lon="5.66786">
        <ele>609.3</ele>
      </trkpt>
      <trkpt lat="45.16786" lon="5.66793">
        <ele>606.9</ele>
      </trkpt>
      <trkpt lat="45.16772" lon="5.66805">
        <ele>603.2</ele>
      </trkpt>
      <trkpt lat="45.16765" lon="5.66813">
        <ele>601</ele>
      </trkpt>
      <trkpt lat="45.16762" lon="5.66818">
        <ele>599.8</ele>
      </trkpt>
      <trkpt lat="45.16769" lon="5.66817">
        <ele>599.7</ele>
      </trkpt>
      <trkpt lat="45.16778" lon="5.66818">
        <ele>599.4</ele>
      </trkpt>
      <trkpt lat="45.16788" lon="5.66827">
        <ele>596.1</ele>
      </trkpt>
      <trkpt lat="45.168" lon="5.66834">
        <ele>593.4</ele>
      </trkpt>
      <trkpt lat="45.16812" lon="5.66847">
        <ele>587.9</ele>
      </trkpt>
      <trkpt lat="45.16862" lon="5.66858">
        <ele>583.6</ele>
      </trkpt>
      <trkpt lat="45.16916" lon="5.66862">
        <ele>584</ele>
      </trkpt>
      <trkpt lat="45.16929" lon="5.66876">
        <ele>579.8</ele>
      </trkpt>
      <trkpt lat="45.16945" lon="5.66899">
        <ele>573.2</ele>
      </trkpt>
      <trkpt lat="45.16944" lon="5.66914">
        <ele>569</ele>
      </trkpt>
      <trkpt lat="45.16936" lon="5.66947">
        <ele>560.9</ele>
      </trkpt>
      <trkpt lat="45.16942" lon="5.66964">
        <ele>556.4</ele>
      </trkpt>
      <trkpt lat="45.16928" lon="5.6697">
        <ele>555</ele>
      </trkpt>
      <trkpt lat="45.16912" lon="5.66967">
        <ele>554.7</ele>
      </trkpt>
      <trkpt lat="45.16887" lon="5.66965">
        <ele>549.1</ele>
      </trkpt>
      <trkpt lat="45.16877" lon="5.66969">
        <ele>545.4</ele>
      </trkpt>
      <trkpt lat="45.16867" lon="5.66974">
        <ele>541</ele>
      </trkpt>
      <trkpt lat="45.16859" lon="5.66971">
        <ele>540.1</ele>
      </trkpt>
      <trkpt lat="45.16834" lon="5.66957">
        <ele>541</ele>
      </trkpt>
      <trkpt lat="45.1682" lon="5.66952">
        <ele>543.7</ele>
      </trkpt>
      <trkpt lat="45.16804" lon="5.66949">
        <ele>545.1</ele>
      </trkpt>
      <trkpt lat="45.16794" lon="5.66951">
        <ele>544.4</ele>
      </trkpt>
      <trkpt lat="45.16778" lon="5.66959">
        <ele>540.8</ele>
      </trkpt>
      <trkpt lat="45.16775" lon="5.6696">
        <ele>540.4</ele>
      </trkpt>
      <trkpt lat="45.1677" lon="5.66963">
        <ele>538.9</ele>
      </trkpt>
      <trkpt lat="45.16767" lon="5.66966">
        <ele>537.1</ele>
      </trkpt>
      <trkpt lat="45.16771" lon="5.66969">
        <ele>535.3</ele>
      </trkpt>
      <trkpt lat="45.16779" lon="5.66971">
        <ele>534.5</ele>
      </trkpt>
      <trkpt lat="45.16781" lon="5.66971">
        <ele>534.3</ele>
      </trkpt>
      <trkpt lat="45.16805" lon="5.66981">
        <ele>528.6</ele>
      </trkpt>
      <trkpt lat="45.16817" lon="5.6699">
        <ele>524.2</ele>
      </trkpt>
      <trkpt lat="45.16835" lon="5.67008">
        <ele>516.5</ele>
      </trkpt>
      <trkpt lat="45.1684" lon="5.67015">
        <ele>515.7</ele>
      </trkpt>
      <trkpt lat="45.16851" lon="5.67032">
        <ele>512.9</ele>
      </trkpt>
      <trkpt lat="45.16865" lon="5.67047">
        <ele>511.5</ele>
      </trkpt>
      <trkpt lat="45.16888" lon="5.67078">
        <ele>505.5</ele>
      </trkpt>
      <trkpt lat="45.16895" lon="5.67084">
        <ele>504.8</ele>
      </trkpt>
      <trkpt lat="45.16923" lon="5.67095">
        <ele>504.9</ele>
      </trkpt>
      <trkpt lat="45.16931" lon="5.67104">
        <ele>501.1</ele>
      </trkpt>
      <trkpt lat="45.16948" lon="5.67111">
        <ele>498.2</ele>
      </trkpt>
      <trkpt lat="45.1698" lon="5.67127">
        <ele>491.2</ele>
      </trkpt>
      <trkpt lat="45.16986" lon="5.67129">
        <ele>490.6</ele>
      </trkpt>
      <trkpt lat="45.17034" lon="5.67125">
        <ele>493.2</ele>
      </trkpt>
      <trkpt lat="45.17043" lon="5.67125">
        <ele>493.4</ele>
      </trkpt>
      <trkpt lat="45.17046" lon="5.67126">
        <ele>493.2</ele>
      </trkpt>
      <trkpt lat="45.17047" lon="5.67128">
        <ele>492.5</ele>
      </trkpt>
      <trkpt lat="45.17054" lon="5.67128">
        <ele>492.4</ele>
      </trkpt>
      <trkpt lat="45.1706" lon="5.6713">
        <ele>491.9</ele>
      </trkpt>
      <trkpt lat="45.17072" lon="5.67135">
        <ele>490.1</ele>
      </trkpt>
      <trkpt lat="45.17083" lon="5.6714">
        <ele>488.3</ele>
      </trkpt>
      <trkpt lat="45.17093" lon="5.67143">
        <ele>487.3</ele>
      </trkpt>
      <trkpt lat="45.17118" lon="5.67158">
        <ele>481.9</ele>
      </trkpt>
      <trkpt lat="45.17124" lon="5.67163">
        <ele>479.6</ele>
      </trkpt>
      <trkpt lat="45.1713" lon="5.67166">
        <ele>478.3</ele>
      </trkpt>
      <trkpt lat="45.17135" lon="5.6717">
        <ele>477.4</ele>
      </trkpt>
      <trkpt lat="45.17146" lon="5.67175">
        <ele>476.5</ele>
      </trkpt>
      <trkpt lat="45.17149" lon="5.67178">
        <ele>476</ele>
      </trkpt>
      <trkpt lat="45.17164" lon="5.67184">
        <ele>474.9</ele>
      </trkpt>
      <trkpt lat="45.17178" lon="5.67192">
        <ele>475.3</ele>
      </trkpt>
      <trkpt lat="45.17182" lon="5.67196">
        <ele>475</ele>
      </trkpt>
      <trkpt lat="45.17189" lon="5.672">
        <ele>475.5</ele>
      </trkpt>
      <trkpt lat="45.17202" lon="5.67213">
        <ele>474.5</ele>
      </trkpt>
      <trkpt lat="45.1721" lon="5.67217">
        <ele>474.9</ele>
      </trkpt>
      <trkpt lat="45.17216" lon="5.67219">
        <ele>475.7</ele>
      </trkpt>
      <trkpt lat="45.17219" lon="5.67222">
        <ele>475.2</ele>
      </trkpt>
      <trkpt lat="45.1724" lon="5.67225">
        <ele>478.3</ele>
      </trkpt>
      <trkpt lat="45.17243" lon="5.67225">
        <ele>479.1</ele>
      </trkpt>
      <trkpt lat="45.17264" lon="5.67229">
        <ele>480.9</ele>
      </trkpt>
      <trkpt lat="45.17266" lon="5.67227">
        <ele>481.9</ele>
      </trkpt>
      <trkpt lat="45.17274" lon="5.6723">
        <ele>482.1</ele>
      </trkpt>
      <trkpt lat="45.17278" lon="5.67237">
        <ele>480.8</ele>
      </trkpt>
      <trkpt lat="45.17269" lon="5.67267">
        <ele>476.8</ele>
      </trkpt>
      <trkpt lat="45.17253" lon="5.67291">
        <ele>473.4</ele>
      </trkpt>
      <trkpt lat="45.17248" lon="5.67297">
        <ele>472</ele>
      </trkpt>
      <trkpt lat="45.17244" lon="5.673">
        <ele>471.2</ele>
      </trkpt>
      <trkpt lat="45.17237" lon="5.67306">
        <ele>469.7</ele>
      </trkpt>
      <trkpt lat="45.17229" lon="5.67312">
        <ele>468</ele>
      </trkpt>
      <trkpt lat="45.17218" lon="5.67323">
        <ele>465.3</ele>
      </trkpt>
      <trkpt lat="45.17191" lon="5.67339">
        <ele>459.2</ele>
      </trkpt>
      <trkpt lat="45.17182" lon="5.67355">
        <ele>457.3</ele>
      </trkpt>
      <trkpt lat="45.17177" lon="5.67372">
        <ele>456</ele>
      </trkpt>
      <trkpt lat="45.17163" lon="5.67363">
        <ele>453.4</ele>
      </trkpt>
      <trkpt lat="45.17112" lon="5.67329">
        <ele>453.7</ele>
      </trkpt>
      <trkpt lat="45.17105" lon="5.67325">
        <ele>453.9</ele>
      </trkpt>
      <trkpt lat="45.17103" lon="5.67323">
        <ele>454</ele>
      </trkpt>
      <trkpt lat="45.171" lon="5.67329">
        <ele>453.5</ele>
      </trkpt>
      <trkpt lat="45.17101" lon="5.67334">
        <ele>453.1</ele>
      </trkpt>
      <trkpt lat="45.17095" lon="5.67355">
        <ele>450.2</ele>
      </trkpt>
      <trkpt lat="45.17086" lon="5.67381">
        <ele>445.9</ele>
      </trkpt>
      <trkpt lat="45.1707" lon="5.67422">
        <ele>438.6</ele>
      </trkpt>
      <trkpt lat="45.17061" lon="5.67452">
        <ele>435</ele>
      </trkpt>
      <trkpt lat="45.17056" lon="5.67463">
        <ele>433.2</ele>
      </trkpt>
      <trkpt lat="45.17035" lon="5.6747">
        <ele>429.3</ele>
      </trkpt>
      <trkpt lat="45.17023" lon="5.67468">
        <ele>427.7</ele>
      </trkpt>
      <trkpt lat="45.17008" lon="5.67464">
        <ele>426.1</ele>
      </trkpt>
      <trkpt lat="45.17005" lon="5.67465">
        <ele>425.5</ele>
      </trkpt>
      <trkpt lat="45.17004" lon="5.67472">
        <ele>424</ele>
      </trkpt>
      <trkpt lat="45.1701" lon="5.67485">
        <ele>422.6</ele>
      </trkpt>
      <trkpt lat="45.1703" lon="5.67525">
        <ele>416.7</ele>
      </trkpt>
      <trkpt lat="45.17041" lon="5.67544">
        <ele>413</ele>
      </trkpt>
      <trkpt lat="45.17044" lon="5.67548">
        <ele>412.5</ele>
      </trkpt>
      <trkpt lat="45.17058" lon="5.67551">
        <ele>415.1</ele>
      </trkpt>
      <trkpt lat="45.17063" lon="5.6756">
        <ele>413.5</ele>
      </trkpt>
      <trkpt lat="45.17056" lon="5.67569">
        <ele>409.4</ele>
      </trkpt>
      <trkpt lat="45.1705" lon="5.67572">
        <ele>406.9</ele>
      </trkpt>
      <trkpt lat="45.17044" lon="5.67571">
        <ele>405.9</ele>
      </trkpt>
      <trkpt lat="45.17006" lon="5.67539">
        <ele>406.8</ele>
      </trkpt>
      <trkpt lat="45.16999" lon="5.67533">
        <ele>407.3</ele>
      </trkpt>
      <trkpt lat="45.16985" lon="5.67513">
        <ele>410.5</ele>
      </trkpt>
      <trkpt lat="45.16976" lon="5.675">
        <ele>412.6</ele>
      </trkpt>
      <trkpt lat="45.16967" lon="5.67497">
        <ele>411.3</ele>
      </trkpt>
      <trkpt lat="45.16962" lon="5.67499">
        <ele>409.6</ele>
      </trkpt>
      <trkpt lat="45.16957" lon="5.67496">
        <ele>409</ele>
      </trkpt>
      <trkpt lat="45.1695" lon="5.67503">
        <ele>405.8</ele>
      </trkpt>
      <trkpt lat="45.16943" lon="5.67512">
        <ele>401.7</ele>
      </trkpt>
      <trkpt lat="45.16934" lon="5.67516">
        <ele>398.5</ele>
      </trkpt>
      <trkpt lat="45.16922" lon="5.6752">
        <ele>395</ele>
      </trkpt>
      <trkpt lat="45.16917" lon="5.67522">
        <ele>393.4</ele>
      </trkpt>
      <trkpt lat="45.16915" lon="5.67526">
        <ele>391.9</ele>
      </trkpt>
      <trkpt lat="45.16913" lon="5.67534">
        <ele>389.6</ele>
      </trkpt>
      <trkpt lat="45.16917" lon="5.67542">
        <ele>388</ele>
      </trkpt>
      <trkpt lat="45.16921" lon="5.67543">
        <ele>388.5</ele>
      </trkpt>
      <trkpt lat="45.16926" lon="5.67546">
        <ele>388.7</ele>
      </trkpt>
      <trkpt lat="45.16926" lon="5.6755">
        <ele>387.4</ele>
      </trkpt>
      <trkpt lat="45.16923" lon="5.67552">
        <ele>386.6</ele>
      </trkpt>
      <trkpt lat="45.16889" lon="5.67568">
        <ele>377.3</ele>
      </trkpt>
      <trkpt lat="45.16874" lon="5.67575">
        <ele>373.8</ele>
      </trkpt>
      <trkpt lat="45.16872" lon="5.67578">
        <ele>373</ele>
      </trkpt>
      <trkpt lat="45.16872" lon="5.67581">
        <ele>372.1</ele>
      </trkpt>
      <trkpt lat="45.16873" lon="5.67584">
        <ele>371.7</ele>
      </trkpt>
      <trkpt lat="45.16878" lon="5.67588">
        <ele>370.9</ele>
      </trkpt>
      <trkpt lat="45.16887" lon="5.67595">
        <ele>369.8</ele>
      </trkpt>
      <trkpt lat="45.16886" lon="5.67601">
        <ele>367.9</ele>
      </trkpt>
      <trkpt lat="45.16885" lon="5.67604">
        <ele>366.8</ele>
      </trkpt>
      <trkpt lat="45.16869" lon="5.6762">
        <ele>360.1</ele>
      </trkpt>
      <trkpt lat="45.16859" lon="5.67631">
        <ele>355.9</ele>
      </trkpt>
      <trkpt lat="45.1685" lon="5.67642">
        <ele>351.8</ele>
      </trkpt>
      <trkpt lat="45.16832" lon="5.67648">
        <ele>348</ele>
      </trkpt>
      <trkpt lat="45.16807" lon="5.67652">
        <ele>340.6</ele>
      </trkpt>
      <trkpt lat="45.16788" lon="5.67656">
        <ele>334.7</ele>
      </trkpt>
      <trkpt lat="45.1679" lon="5.677">
        <ele>326.4</ele>
      </trkpt>
      <trkpt lat="45.16793" lon="5.67718">
        <ele>323.8</ele>
      </trkpt>
      <trkpt lat="45.16796" lon="5.67727">
        <ele>322.6</ele>
      </trkpt>
      <trkpt lat="45.16806" lon="5.67749">
        <ele>320.3</ele>
      </trkpt>
      <trkpt lat="45.16815" lon="5.67765">
        <ele>318</ele>
      </trkpt>
      <trkpt lat="45.16828" lon="5.67783">
        <ele>315</ele>
      </trkpt>
      <trkpt lat="45.16835" lon="5.67791">
        <ele>313.8</ele>
      </trkpt>
      <trkpt lat="45.16846" lon="5.67795">
        <ele>313.1</ele>
      </trkpt>
      <trkpt lat="45.16846" lon="5.67801">
        <ele>311.2</ele>
      </trkpt>
      <trkpt lat="45.16839" lon="5.67803">
        <ele>310.7</ele>
      </trkpt>
      <trkpt lat="45.16838" lon="5.67807">
        <ele>309.4</ele>
      </trkpt>
      <trkpt lat="45.16838" lon="5.67813">
        <ele>307.8</ele>
      </trkpt>
      <trkpt lat="45.16841" lon="5.67829">
        <ele>303.4</ele>
      </trkpt>
      <trkpt lat="45.16843" lon="5.67846">
        <ele>300.2</ele>
      </trkpt>
      <trkpt lat="45.16847" lon="5.67859">
        <ele>298.1</ele>
      </trkpt>
      <trkpt lat="45.1685" lon="5.67873">
        <ele>295.8</ele>
      </trkpt>
      <trkpt lat="45.16866" lon="5.67896">
        <ele>292.1</ele>
      </trkpt>
      <trkpt lat="45.16874" lon="5.67914">
        <ele>289</ele>
      </trkpt>
      <trkpt lat="45.16888" lon="5.67949">
        <ele>284.4</ele>
      </trkpt>
      <trkpt lat="45.16892" lon="5.67955">
        <ele>283.8</ele>
      </trkpt>
      <trkpt lat="45.16894" lon="5.67968">
        <ele>282.3</ele>
      </trkpt>
      <trkpt lat="45.16891" lon="5.67974">
        <ele>281.2</ele>
      </trkpt>
      <trkpt lat="45.16895" lon="5.67994">
        <ele>279.1</ele>
      </trkpt>
      <trkpt lat="45.16901" lon="5.68026">
        <ele>276.4</ele>
      </trkpt>
      <trkpt lat="45.16905" lon="5.68037">
        <ele>275.7</ele>
      </trkpt>
      <trkpt lat="45.16909" lon="5.68044">
        <ele>275.7</ele>
      </trkpt>
      <trkpt lat="45.16916" lon="5.68048">
        <ele>276.2</ele>
      </trkpt>
      <trkpt lat="45.16923" lon="5.68051">
        <ele>275.8</ele>
      </trkpt>
      <trkpt lat="45.16932" lon="5.6805">
        <ele>275.5</ele>
      </trkpt>
      <trkpt lat="45.16953" lon="5.68043">
        <ele>275.1</ele>
      </trkpt>
      <trkpt lat="45.16961" lon="5.68043">
        <ele>274.8</ele>
      </trkpt>
      <trkpt lat="45.1698" lon="5.68045">
        <ele>273.6</ele>
      </trkpt>
      <trkpt lat="45.16993" lon="5.68047">
        <ele>272.7</ele>
      </trkpt>
      <trkpt lat="45.17006" lon="5.6805">
        <ele>272.1</ele>
      </trkpt>
      <trkpt lat="45.17037" lon="5.68067">
        <ele>270.8</ele>
      </trkpt>
      <trkpt lat="45.17053" lon="5.68073">
        <ele>270.4</ele>
      </trkpt>
      <trkpt lat="45.17057" lon="5.68075">
        <ele>270.3</ele>
      </trkpt>
      <trkpt lat="45.17061" lon="5.68076">
        <ele>270.3</ele>
      </trkpt>
      <trkpt lat="45.17079" lon="5.6808">
        <ele>270.2</ele>
      </trkpt>
      <trkpt lat="45.17104" lon="5.68087">
        <ele>271.4</ele>
      </trkpt>
      <trkpt lat="45.17123" lon="5.68092">
        <ele>272.4</ele>
      </trkpt>
      <trkpt lat="45.17135" lon="5.68102">
        <ele>272.2</ele>
      </trkpt>
      <trkpt lat="45.17138" lon="5.68108">
        <ele>271.8</ele>
      </trkpt>
      <trkpt lat="45.1714" lon="5.68112">
        <ele>271.4</ele>
      </trkpt>
      <trkpt lat="45.17151" lon="5.68108">
        <ele>272.7</ele>
      </trkpt>
      <trkpt lat="45.17186" lon="5.68123">
        <ele>273.4</ele>
      </trkpt>
      <trkpt lat="45.17196" lon="5.68141">
        <ele>271.8</ele>
      </trkpt>
      <trkpt lat="45.17212" lon="5.68172">
        <ele>269.5</ele>
      </trkpt>
      <trkpt lat="45.17233" lon="5.68217">
        <ele>268.4</ele>
      </trkpt>
      <trkpt lat="45.17256" lon="5.68264">
        <ele>268</ele>
      </trkpt>
      <trkpt lat="45.17262" lon="5.68288">
        <ele>267.3</ele>
      </trkpt>
      <trkpt lat="45.17267" lon="5.68324">
        <ele>265.2</ele>
      </trkpt>
      <trkpt lat="45.17278" lon="5.68365">
        <ele>261.4</ele>
      </trkpt>
      <trkpt lat="45.17289" lon="5.68388">
        <ele>259.5</ele>
      </trkpt>
      <trkpt lat="45.17301" lon="5.68409">
        <ele>257.6</ele>
      </trkpt>
      <trkpt lat="45.17316" lon="5.68435">
        <ele>253.6</ele>
      </trkpt>
      <trkpt lat="45.17328" lon="5.68449">
        <ele>251</ele>
      </trkpt>
      <trkpt lat="45.17352" lon="5.68463">
        <ele>248.1</ele>
      </trkpt>
      <trkpt lat="45.17361" lon="5.68465">
        <ele>247.7</ele>
      </trkpt>
      <trkpt lat="45.17378" lon="5.68466">
        <ele>247.8</ele>
      </trkpt>
      <trkpt lat="45.17395" lon="5.68472">
        <ele>246.2</ele>
      </trkpt>
      <trkpt lat="45.17408" lon="5.68478">
        <ele>244</ele>
      </trkpt>
      <trkpt lat="45.17416" lon="5.68492">
        <ele>239.1</ele>
      </trkpt>
      <trkpt lat="45.17432" lon="5.68503">
        <ele>236.3</ele>
      </trkpt>
      <trkpt lat="45.17454" lon="5.6852">
        <ele>234</ele>
      </trkpt>
      <trkpt lat="45.17487" lon="5.68549">
        <ele>229.4</ele>
      </trkpt>
      <trkpt lat="45.1752" lon="5.68582">
        <ele>222.8</ele>
      </trkpt>
      <trkpt lat="45.17544" lon="5.68609">
        <ele>221.7</ele>
      </trkpt>
      <trkpt lat="45.17563" lon="5.68632">
        <ele>220.7</ele>
      </trkpt>
      <trkpt lat="45.17594" lon="5.68644">
        <ele>220.2</ele>
      </trkpt>
      <trkpt lat="45.17618" lon="5.68647">
        <ele>219.6</ele>
      </trkpt>
      <trkpt lat="45.1763" lon="5.68645">
        <ele>219.4</ele>
      </trkpt>
      <trkpt lat="45.17645" lon="5.68653">
        <ele>218.8</ele>
      </trkpt>
      <trkpt lat="45.17651" lon="5.6864">
        <ele>219.3</ele>
      </trkpt>
      <trkpt lat="45.17667" lon="5.68629">
        <ele>219.3</ele>
      </trkpt>
      <trkpt lat="45.17702" lon="5.68609">
        <ele>219.1</ele>
      </trkpt>
      <trkpt lat="45.17747" lon="5.68583">
        <ele>218.1</ele>
      </trkpt>
      <trkpt lat="45.17817" lon="5.68551">
        <ele>222.1</ele>
      </trkpt>
      <trkpt lat="45.17846" lon="5.68542">
        <ele>224.8</ele>
      </trkpt>
      <trkpt lat="45.17857" lon="5.68546">
        <ele>225.4</ele>
      </trkpt>
      <trkpt lat="45.17871" lon="5.68552">
        <ele>225.8</ele>
      </trkpt>
      <trkpt lat="45.17892" lon="5.68565">
        <ele>225.9</ele>
      </trkpt>
      <trkpt lat="45.17909" lon="5.68574">
        <ele>226</ele>
      </trkpt>
      <trkpt lat="45.17928" lon="5.68584">
        <ele>225.9</ele>
      </trkpt>
      <trkpt lat="45.17971" lon="5.68603">
        <ele>226.2</ele>
      </trkpt>
      <trkpt lat="45.17993" lon="5.68615">
        <ele>225.4</ele>
      </trkpt>
      <trkpt lat="45.1802" lon="5.68632">
        <ele>225.4</ele>
      </trkpt>
      <trkpt lat="45.18038" lon="5.68643">
        <ele>224.7</ele>
      </trkpt>
      <trkpt lat="45.18052" lon="5.68649">
        <ele>224.3</ele>
      </trkpt>
      <trkpt lat="45.18109" lon="5.68673">
        <ele>223.8</ele>
      </trkpt>
      <trkpt lat="45.18125" lon="5.6868">
        <ele>225.5</ele>
      </trkpt>
      <trkpt lat="45.18132" lon="5.68683">
        <ele>226.2</ele>
      </trkpt>
      <trkpt lat="45.18146" lon="5.68689">
        <ele>227.4</ele>
      </trkpt>
      <trkpt lat="45.18153" lon="5.68695">
        <ele>227.3</ele>
      </trkpt>
      <trkpt lat="45.18158" lon="5.68702">
        <ele>226.8</ele>
      </trkpt>
      <trkpt lat="45.18164" lon="5.68712">
        <ele>225.3</ele>
      </trkpt>
      <trkpt lat="45.18176" lon="5.68747">
        <ele>218.6</ele>
      </trkpt>
      <trkpt lat="45.18177" lon="5.68749">
        <ele>218.2</ele>
      </trkpt>
      <trkpt lat="45.18177" lon="5.68756">
        <ele>217.8</ele>
      </trkpt>
      <trkpt lat="45.18184" lon="5.68758">
        <ele>217.8</ele>
      </trkpt>
      <trkpt lat="45.1819" lon="5.68763">
        <ele>217.7</ele>
      </trkpt>
      <trkpt lat="45.18194" lon="5.68766">
        <ele>217.6</ele>
      </trkpt>
      <trkpt lat="45.18199" lon="5.68769">
        <ele>217.5</ele>
      </trkpt>
      <trkpt lat="45.18209" lon="5.68775">
        <ele>217.4</ele>
      </trkpt>
      <trkpt lat="45.18211" lon="5.68768">
        <ele>217.6</ele>
      </trkpt>
      <trkpt lat="45.18215" lon="5.68751">
        <ele>218</ele>
      </trkpt>
      <trkpt lat="45.18215" lon="5.68747">
        <ele>219</ele>
      </trkpt>
      <trkpt lat="45.18216" lon="5.68732">
        <ele>223.6</ele>
      </trkpt>
      <trkpt lat="45.18229" lon="5.68725">
        <ele>226.1</ele>
      </trkpt>
      <trkpt lat="45.18237" lon="5.68713">
        <ele>230.6</ele>
      </trkpt>
      <trkpt lat="45.18287" lon="5.6872">
        <ele>231.9</ele>
      </trkpt>
      <trkpt lat="45.18302" lon="5.68722">
        <ele>232</ele>
      </trkpt>
      <trkpt lat="45.1831" lon="5.68738">
        <ele>227.1</ele>
      </trkpt>
      <trkpt lat="45.1832" lon="5.68748">
        <ele>224.5</ele>
      </trkpt>
      <trkpt lat="45.18333" lon="5.68755">
        <ele>224.7</ele>
      </trkpt>
      <trkpt lat="45.18344" lon="5.68764">
        <ele>225.1</ele>
      </trkpt>
      <trkpt lat="45.18366" lon="5.68769">
        <ele>226.7</ele>
      </trkpt>
      <trkpt lat="45.18375" lon="5.68773">
        <ele>227.2</ele>
      </trkpt>
      <trkpt lat="45.18386" lon="5.68778">
        <ele>227.9</ele>
      </trkpt>
      <trkpt lat="45.18395" lon="5.68793">
        <ele>228</ele>
      </trkpt>
      <trkpt lat="45.18402" lon="5.68828">
        <ele>226.9</ele>
      </trkpt>
      <trkpt lat="45.18427" lon="5.68832">
        <ele>226.9</ele>
      </trkpt>
      <trkpt lat="45.1845" lon="5.68834">
        <ele>224</ele>
      </trkpt>
      <trkpt lat="45.18457" lon="5.68841">
        <ele>222.8</ele>
      </trkpt>
      <trkpt lat="45.18469" lon="5.68836">
        <ele>221.6</ele>
      </trkpt>
      <trkpt lat="45.18478" lon="5.68838">
        <ele>220.5</ele>
      </trkpt>
      <trkpt lat="45.18486" lon="5.68849">
        <ele>219.5</ele>
      </trkpt>
      <trkpt lat="45.18488" lon="5.68858">
        <ele>219.3</ele>
      </trkpt>
      <trkpt lat="45.185" lon="5.68863">
        <ele>218.3</ele>
      </trkpt>
      <trkpt lat="45.18498" lon="5.68877">
        <ele>218.7</ele>
      </trkpt>
      <trkpt lat="45.185" lon="5.6889">
        <ele>218.7</ele>
      </trkpt>
      <trkpt lat="45.18509" lon="5.68932">
        <ele>218</ele>
      </trkpt>
      <trkpt lat="45.18513" lon="5.68949">
        <ele>217.2</ele>
      </trkpt>
      <trkpt lat="45.18538" lon="5.69058">
        <ele>215.5</ele>
      </trkpt>
      <trkpt lat="45.18542" lon="5.69077">
        <ele>215.5</ele>
      </trkpt>
      <trkpt lat="45.18548" lon="5.69091">
        <ele>215.3</ele>
      </trkpt>
      <trkpt lat="45.18559" lon="5.69101">
        <ele>215</ele>
      </trkpt>
      <trkpt lat="45.18555" lon="5.69106">
        <ele>215.2</ele>
      </trkpt>
      <trkpt lat="45.18553" lon="5.69112">
        <ele>215.3</ele>
      </trkpt>
      <trkpt lat="45.18554" lon="5.69119">
        <ele>215.3</ele>
      </trkpt>
      <trkpt lat="45.18557" lon="5.69124">
        <ele>215.3</ele>
      </trkpt>
      <trkpt lat="45.18556" lon="5.69128">
        <ele>215.3</ele>
      </trkpt>
      <trkpt lat="45.18564" lon="5.69165">
        <ele>215.5</ele>
      </trkpt>
      <trkpt lat="45.18617" lon="5.69401">
        <ele>214.5</ele>
      </trkpt>
      <trkpt lat="45.1863" lon="5.69458">
        <ele>215.6</ele>
      </trkpt>
      <trkpt lat="45.18631" lon="5.69461">
        <ele>215.6</ele>
      </trkpt>
      <trkpt lat="45.18637" lon="5.69488">
        <ele>215.9</ele>
      </trkpt>
      <trkpt lat="45.18641" lon="5.69506">
        <ele>216</ele>
      </trkpt>
      <trkpt lat="45.18641" lon="5.69508">
        <ele>216</ele>
      </trkpt>
      <trkpt lat="45.18653" lon="5.69558">
        <ele>215.9</ele>
      </trkpt>
      <trkpt lat="45.18663" lon="5.69603">
        <ele>216.2</ele>
      </trkpt>
      <trkpt lat="45.1867" lon="5.69636">
        <ele>216.6</ele>
      </trkpt>
      <trkpt lat="45.18687" lon="5.69715">
        <ele>215.6</ele>
      </trkpt>
      <trkpt lat="45.18688" lon="5.69722">
        <ele>215.4</ele>
      </trkpt>
      <trkpt lat="45.18708" lon="5.69803">
        <ele>214.2</ele>
      </trkpt>
      <trkpt lat="45.18734" lon="5.69921">
        <ele>215.1</ele>
      </trkpt>
      <trkpt lat="45.18736" lon="5.6993">
        <ele>215.6</ele>
      </trkpt>
      <trkpt lat="45.18739" lon="5.69937">
        <ele>216.1</ele>
      </trkpt>
      <trkpt lat="45.1874" lon="5.69941">
        <ele>216.4</ele>
      </trkpt>
      <trkpt lat="45.18747" lon="5.69973">
        <ele>218.4</ele>
      </trkpt>
      <trkpt lat="45.18748" lon="5.69983">
        <ele>219</ele>
      </trkpt>
      <trkpt lat="45.18751" lon="5.69998">
        <ele>219.8</ele>
      </trkpt>
      <trkpt lat="45.18757" lon="5.70026">
        <ele>219.2</ele>
      </trkpt>
      <trkpt lat="45.1876" lon="5.70037">
        <ele>219</ele>
      </trkpt>
      <trkpt lat="45.18763" lon="5.70042">
        <ele>218.8</ele>
      </trkpt>
      <trkpt lat="45.18768" lon="5.70045">
        <ele>218.7</ele>
      </trkpt>
      <trkpt lat="45.18774" lon="5.70046">
        <ele>218.7</ele>
      </trkpt>
      <trkpt lat="45.18873" lon="5.7005">
        <ele>217.3</ele>
      </trkpt>
      <trkpt lat="45.18884" lon="5.70052">
        <ele>217.1</ele>
      </trkpt>
      <trkpt lat="45.18897" lon="5.70053">
        <ele>216.8</ele>
      </trkpt>
      <trkpt lat="45.18902" lon="5.70053">
        <ele>216.7</ele>
      </trkpt>
      <trkpt lat="45.18904" lon="5.70053">
        <ele>216.7</ele>
      </trkpt>
      <trkpt lat="45.18905" lon="5.70053">
        <ele>216.6</ele>
      </trkpt>
      <trkpt lat="45.18907" lon="5.70053">
        <ele>216.6</ele>
      </trkpt>
      <trkpt lat="45.18909" lon="5.70054">
        <ele>216.5</ele>
      </trkpt>
      <trkpt lat="45.18913" lon="5.70054">
        <ele>216.4</ele>
      </trkpt>
      <trkpt lat="45.18913" lon="5.70058">
        <ele>216.4</ele>
      </trkpt>
      <trkpt lat="45.18912" lon="5.70064">
        <ele>216.4</ele>
      </trkpt>
      <trkpt lat="45.1891" lon="5.70068">
        <ele>216.4</ele>
      </trkpt>
      <trkpt lat="45.18905" lon="5.70292">
        <ele>214.4</ele>
      </trkpt>
      <trkpt lat="45.18904" lon="5.70304">
        <ele>214.6</ele>
      </trkpt>
      <trkpt lat="45.18903" lon="5.70323">
        <ele>215</ele>
      </trkpt>
      <trkpt lat="45.18901" lon="5.70358">
        <ele>216.1</ele>
      </trkpt>
      <trkpt lat="45.18904" lon="5.70363">
        <ele>216.3</ele>
      </trkpt>
      <trkpt lat="45.18904" lon="5.70368">
        <ele>216.5</ele>
      </trkpt>
      <trkpt lat="45.18904" lon="5.70375">
        <ele>216.7</ele>
      </trkpt>
      <trkpt lat="45.18902" lon="5.70376">
        <ele>216.8</ele>
      </trkpt>
      <trkpt lat="45.18895" lon="5.70482">
        <ele>217.9</ele>
      </trkpt>
      <trkpt lat="45.18893" lon="5.70522">
        <ele>217.8</ele>
      </trkpt>
      <trkpt lat="45.18891" lon="5.70562">
        <ele>217.7</ele>
      </trkpt>
      <trkpt lat="45.18891" lon="5.7057">
        <ele>217.7</ele>
      </trkpt>
      <trkpt lat="45.18891" lon="5.70583">
        <ele>217.6</ele>
      </trkpt>
      <trkpt lat="45.18892" lon="5.70594">
        <ele>217.4</ele>
      </trkpt>
      <trkpt lat="45.18889" lon="5.70597">
        <ele>217.5</ele>
      </trkpt>
      <trkpt lat="45.18888" lon="5.70602">
        <ele>217.4</ele>
      </trkpt>
      <trkpt lat="45.18888" lon="5.70626">
        <ele>217</ele>
      </trkpt>
      <trkpt lat="45.18889" lon="5.70634">
        <ele>216.9</ele>
      </trkpt>
      <trkpt lat="45.18887" lon="5.70636">
        <ele>216.9</ele>
      </trkpt>
      <trkpt lat="45.18884" lon="5.70639">
        <ele>216.9</ele>
      </trkpt>
      <trkpt lat="45.18884" lon="5.70641">
        <ele>216.8</ele>
      </trkpt>
      <trkpt lat="45.18882" lon="5.70708">
        <ele>215.5</ele>
      </trkpt>
      <trkpt lat="45.18878" lon="5.70775">
        <ele>214.5</ele>
      </trkpt>
      <trkpt lat="45.18877" lon="5.70779">
        <ele>214.5</ele>
      </trkpt>
      <trkpt lat="45.18877" lon="5.70783">
        <ele>214.5</ele>
      </trkpt>
      <trkpt lat="45.18877" lon="5.70787">
        <ele>214.5</ele>
      </trkpt>
      <trkpt lat="45.18872" lon="5.7086">
        <ele>214.6</ele>
      </trkpt>
      <trkpt lat="45.18872" lon="5.70862">
        <ele>214.6</ele>
      </trkpt>
      <trkpt lat="45.18872" lon="5.70867">
        <ele>214.6</ele>
      </trkpt>
      <trkpt lat="45.18871" lon="5.70871">
        <ele>214.6</ele>
      </trkpt>
      <trkpt lat="45.18868" lon="5.70931">
        <ele>214.5</ele>
      </trkpt>
      <trkpt lat="45.18867" lon="5.70939">
        <ele>214.3</ele>
      </trkpt>
      <trkpt lat="45.18867" lon="5.70944">
        <ele>214.1</ele>
      </trkpt>
      <trkpt lat="45.18867" lon="5.7095">
        <ele>214</ele>
      </trkpt>
      <trkpt lat="45.1886" lon="5.71056">
        <ele>213.7</ele>
      </trkpt>
      <trkpt lat="45.18857" lon="5.71107">
        <ele>214.4</ele>
      </trkpt>
      <trkpt lat="45.18857" lon="5.71114">
        <ele>214.5</ele>
      </trkpt>
      <trkpt lat="45.18857" lon="5.7112">
        <ele>214.5</ele>
      </trkpt>
      <trkpt lat="45.18857" lon="5.71122">
        <ele>214.5</ele>
      </trkpt>
      <trkpt lat="45.18852" lon="5.71195">
        <ele>215.6</ele>
      </trkpt>
      <trkpt lat="45.18848" lon="5.71265">
        <ele>216.4</ele>
      </trkpt>
      <trkpt lat="45.18848" lon="5.71267">
        <ele>216.3</ele>
      </trkpt>
      <trkpt lat="45.18848" lon="5.71272">
        <ele>216.1</ele>
      </trkpt>
      <trkpt lat="45.18847" lon="5.71281">
        <ele>215.8</ele>
      </trkpt>
      <trkpt lat="45.18855" lon="5.71296">
        <ele>215.4</ele>
      </trkpt>
      <trkpt lat="45.18858" lon="5.71299">
        <ele>215.3</ele>
      </trkpt>
      <trkpt lat="45.1886" lon="5.71304">
        <ele>215.2</ele>
      </trkpt>
      <trkpt lat="45.18856" lon="5.71309">
        <ele>215</ele>
      </trkpt>
      <trkpt lat="45.18851" lon="5.71315">
        <ele>214.8</ele>
      </trkpt>
      <trkpt lat="45.18846" lon="5.71326">
        <ele>214.4</ele>
      </trkpt>
      <trkpt lat="45.18844" lon="5.71337">
        <ele>214.3</ele>
      </trkpt>
      <trkpt lat="45.18843" lon="5.71344">
        <ele>214.7</ele>
      </trkpt>
      <trkpt lat="45.18843" lon="5.71346">
        <ele>214.8</ele>
      </trkpt>
      <trkpt lat="45.18842" lon="5.71353">
        <ele>215.1</ele>
      </trkpt>
      <trkpt lat="45.18839" lon="5.71418">
        <ele>218.6</ele>
      </trkpt>
      <trkpt lat="45.18838" lon="5.71424">
        <ele>218.5</ele>
      </trkpt>
      <trkpt lat="45.18838" lon="5.71427">
        <ele>218.4</ele>
      </trkpt>
      <trkpt lat="45.18838" lon="5.71432">
        <ele>218.3</ele>
      </trkpt>
      <trkpt lat="45.18838" lon="5.71443">
        <ele>217.9</ele>
      </trkpt>
      <trkpt lat="45.18837" lon="5.71446">
        <ele>217.8</ele>
      </trkpt>
      <trkpt lat="45.1884" lon="5.71456">
        <ele>217.4</ele>
      </trkpt>
      <trkpt lat="45.18844" lon="5.71464">
        <ele>217.1</ele>
      </trkpt>
      <trkpt lat="45.18846" lon="5.71468">
        <ele>217</ele>
      </trkpt>
      <trkpt lat="45.18844" lon="5.7147">
        <ele>216.9</ele>
      </trkpt>
      <trkpt lat="45.18841" lon="5.71474">
        <ele>216.9</ele>
      </trkpt>
      <trkpt lat="45.18837" lon="5.71478">
        <ele>216.8</ele>
      </trkpt>
      <trkpt lat="45.18834" lon="5.71483">
        <ele>216.6</ele>
      </trkpt>
      <trkpt lat="45.18841" lon="5.71491">
        <ele>216.4</ele>
      </trkpt>
      <trkpt lat="45.18843" lon="5.71493">
        <ele>216.3</ele>
      </trkpt>
      <trkpt lat="45.18848" lon="5.71495">
        <ele>216.3</ele>
      </trkpt>
      <trkpt lat="45.1888" lon="5.71523">
        <ele>216</ele>
      </trkpt>
      <trkpt lat="45.18896" lon="5.71541">
        <ele>215.5</ele>
      </trkpt>
      <trkpt lat="45.18908" lon="5.71555">
        <ele>215</ele>
      </trkpt>
      <trkpt lat="45.18914" lon="5.71559">
        <ele>214.9</ele>
      </trkpt>
      <trkpt lat="45.18921" lon="5.71561">
        <ele>214.8</ele>
      </trkpt>
      <trkpt lat="45.18932" lon="5.71563">
        <ele>214.8</ele>
      </trkpt>
      <trkpt lat="45.18943" lon="5.71562">
        <ele>214.8</ele>
      </trkpt>
      <trkpt lat="45.18977" lon="5.71553">
        <ele>215</ele>
      </trkpt>
      <trkpt lat="45.18981" lon="5.71552">
        <ele>215</ele>
      </trkpt>
      <trkpt lat="45.18981" lon="5.71559">
        <ele>215</ele>
      </trkpt>
      <trkpt lat="45.18981" lon="5.71561">
        <ele>215</ele>
      </trkpt>
      <trkpt lat="45.18981" lon="5.71564">
        <ele>214.9</ele>
      </trkpt>
      <trkpt lat="45.1898" lon="5.71568">
        <ele>214.9</ele>
      </trkpt>
      <trkpt lat="45.19005" lon="5.71579">
        <ele>215.2</ele>
      </trkpt>
      <trkpt lat="45.1901" lon="5.71581">
        <ele>215.3</ele>
      </trkpt>
      <trkpt lat="45.19013" lon="5.71582">
        <ele>215.4</ele>
      </trkpt>
      <trkpt lat="45.19017" lon="5.71583">
        <ele>215.6</ele>
      </trkpt>
      <trkpt lat="45.19018" lon="5.71583">
        <ele>215.6</ele>
      </trkpt>
      <trkpt lat="45.19031" lon="5.71586">
        <ele>216.1</ele>
      </trkpt>
      <trkpt lat="45.19044" lon="5.71671">
        <ele>217.2</ele>
      </trkpt>
      <trkpt lat="45.19044" lon="5.71676">
        <ele>217.3</ele>
      </trkpt>
      <trkpt lat="45.19045" lon="5.71682">
        <ele>217.5</ele>
      </trkpt>
      <trkpt lat="45.19046" lon="5.71688">
        <ele>217.7</ele>
      </trkpt>
      <trkpt lat="45.19069" lon="5.71838">
        <ele>223.3</ele>
      </trkpt>
      <trkpt lat="45.19071" lon="5.71849">
        <ele>223</ele>
      </trkpt>
      <trkpt lat="45.19072" lon="5.71858">
        <ele>222.8</ele>
      </trkpt>
      <trkpt lat="45.19073" lon="5.71861">
        <ele>222.7</ele>
      </trkpt>
      <trkpt lat="45.19074" lon="5.7187">
        <ele>222.4</ele>
      </trkpt>
      <trkpt lat="45.19076" lon="5.71881">
        <ele>222.1</ele>
      </trkpt>
      <trkpt lat="45.19081" lon="5.71918">
        <ele>220.9</ele>
      </trkpt>
      <trkpt lat="45.19082" lon="5.71921">
        <ele>220.8</ele>
      </trkpt>
      <trkpt lat="45.19082" lon="5.71926">
        <ele>220.7</ele>
      </trkpt>
      <trkpt lat="45.1909" lon="5.71978">
        <ele>219</ele>
      </trkpt>
      <trkpt lat="45.19096" lon="5.71981">
        <ele>219</ele>
      </trkpt>
      <trkpt lat="45.19101" lon="5.71983">
        <ele>219.1</ele>
      </trkpt>
      <trkpt lat="45.19106" lon="5.71985">
        <ele>219.2</ele>
      </trkpt>
      <trkpt lat="45.19109" lon="5.71986">
        <ele>219.3</ele>
      </trkpt>
      <trkpt lat="45.19115" lon="5.71985">
        <ele>219.5</ele>
      </trkpt>
      <trkpt lat="45.19184" lon="5.72009">
        <ele>219.9</ele>
      </trkpt>
      <trkpt lat="45.19186" lon="5.7201">
        <ele>219.6</ele>
      </trkpt>
      <trkpt lat="45.19189" lon="5.72006">
        <ele>219.2</ele>
      </trkpt>
      <trkpt lat="45.19193" lon="5.71999">
        <ele>218.4</ele>
      </trkpt>
      <trkpt lat="45.19197" lon="5.71994">
        <ele>218.1</ele>
      </trkpt>
      <trkpt lat="45.19202" lon="5.71988">
        <ele>217.8</ele>
      </trkpt>
      <trkpt lat="45.19207" lon="5.71983">
        <ele>217.4</ele>
      </trkpt>
      <trkpt lat="45.19208" lon="5.71982">
        <ele>217.3</ele>
      </trkpt>
      <trkpt lat="45.1921" lon="5.71982">
        <ele>217.2</ele>
      </trkpt>
      <trkpt lat="45.19213" lon="5.7198">
        <ele>217</ele>
      </trkpt>
      <trkpt lat="45.19216" lon="5.71977">
        <ele>216.7</ele>
      </trkpt>
      <trkpt lat="45.19218" lon="5.71976">
        <ele>216.6</ele>
      </trkpt>
      <trkpt lat="45.19219" lon="5.71976">
        <ele>216.5</ele>
      </trkpt>
      <trkpt lat="45.19221" lon="5.71975">
        <ele>216.4</ele>
      </trkpt>
      <trkpt lat="45.19227" lon="5.71974">
        <ele>215.9</ele>
      </trkpt>
      <trkpt lat="45.19229" lon="5.71974">
        <ele>215.7</ele>
      </trkpt>
      <trkpt lat="45.19231" lon="5.71973">
        <ele>215.6</ele>
      </trkpt>
      <trkpt lat="45.19234" lon="5.71974">
        <ele>215.3</ele>
      </trkpt>
      <trkpt lat="45.19235" lon="5.71974">
        <ele>215.2</ele>
      </trkpt>
      <trkpt lat="45.1924" lon="5.71976">
        <ele>214.8</ele>
      </trkpt>
      <trkpt lat="45.19236" lon="5.72013">
        <ele>214.7</ele>
      </trkpt>
      <trkpt lat="45.19237" lon="5.72018">
        <ele>214.8</ele>
      </trkpt>
      <trkpt lat="45.19237" lon="5.72022">
        <ele>214.9</ele>
      </trkpt>
      <trkpt lat="45.19237" lon="5.72027">
        <ele>215</ele>
      </trkpt>
      <trkpt lat="45.19237" lon="5.72034">
        <ele>215.2</ele>
      </trkpt>
      <trkpt lat="45.19237" lon="5.72044">
        <ele>215.6</ele>
      </trkpt>
      <trkpt lat="45.19238" lon="5.72055">
        <ele>215.8</ele>
      </trkpt>
      <trkpt lat="45.19237" lon="5.72059">
        <ele>216</ele>
      </trkpt>
      <trkpt lat="45.19236" lon="5.72063">
        <ele>216.2</ele>
      </trkpt>
      <trkpt lat="45.19236" lon="5.72074">
        <ele>216.5</ele>
      </trkpt>
      <trkpt lat="45.19238" lon="5.72089">
        <ele>216.2</ele>
      </trkpt>
      <trkpt lat="45.19242" lon="5.72126">
        <ele>213.1</ele>
      </trkpt>
      <trkpt lat="45.19246" lon="5.72161">
        <ele>210</ele>
      </trkpt>
      <trkpt lat="45.1925" lon="5.72194">
        <ele>211.4</ele>
      </trkpt>
      <trkpt lat="45.19258" lon="5.72284">
        <ele>217.3</ele>
      </trkpt>
      <trkpt lat="45.19267" lon="5.72369">
        <ele>218.6</ele>
      </trkpt>
      <trkpt lat="45.19271" lon="5.72406">
        <ele>217.6</ele>
      </trkpt>
      <trkpt lat="45.19271" lon="5.72408">
        <ele>217.5</ele>
      </trkpt>
      <trkpt lat="45.19272" lon="5.72408">
        <ele>217.5</ele>
      </trkpt>
      <trkpt lat="45.19274" lon="5.72407">
        <ele>217.4</ele>
      </trkpt>
      <trkpt lat="45.19275" lon="5.72413">
        <ele>217.2</ele>
      </trkpt>
      <trkpt lat="45.19276" lon="5.72419">
        <ele>217.1</ele>
      </trkpt>
      <trkpt lat="45.19274" lon="5.7242">
        <ele>217.1</ele>
      </trkpt>
      <trkpt lat="45.19273" lon="5.72421">
        <ele>217.2</ele>
      </trkpt>
      <trkpt lat="45.19276" lon="5.72445">
        <ele>217</ele>
      </trkpt>
      <trkpt lat="45.19281" lon="5.72472">
        <ele>216.6</ele>
      </trkpt>
      <trkpt lat="45.19284" lon="5.72493">
        <ele>216.2</ele>
      </trkpt>
      <trkpt lat="45.1929" lon="5.72514">
        <ele>215.6</ele>
      </trkpt>
      <trkpt lat="45.19294" lon="5.72533">
        <ele>215.2</ele>
      </trkpt>
      <trkpt lat="45.19306" lon="5.72585">
        <ele>214.3</ele>
      </trkpt>
      <trkpt lat="45.19323" lon="5.72656">
        <ele>211.8</ele>
      </trkpt>
      <trkpt lat="45.19345" lon="5.7275">
        <ele>217.4</ele>
      </trkpt>
      <trkpt lat="45.19359" lon="5.7281">
        <ele>216.1</ele>
      </trkpt>
      <trkpt lat="45.19375" lon="5.72881">
        <ele>214.7</ele>
      </trkpt>
      <trkpt lat="45.19377" lon="5.72887">
        <ele>214.6</ele>
      </trkpt>
      <trkpt lat="45.19408" lon="5.72946">
        <ele>215.8</ele>
      </trkpt>
      <trkpt lat="45.19409" lon="5.72945">
        <ele>215.6</ele>
      </trkpt>
      <trkpt lat="45.19468" lon="5.72882">
        <ele>215.2</ele>
      </trkpt>
      <trkpt lat="45.1947" lon="5.7288">
        <ele>215.5</ele>
      </trkpt>
      <trkpt lat="45.19472" lon="5.72877">
        <ele>215.8</ele>
      </trkpt>
      <trkpt lat="45.19489" lon="5.72859">
        <ele>219</ele>
      </trkpt>
      <trkpt lat="45.19493" lon="5.72863">
        <ele>219.1</ele>
      </trkpt>
      <trkpt lat="45.19498" lon="5.7286">
        <ele>219.8</ele>
      </trkpt>
      <trkpt lat="45.19506" lon="5.72863">
        <ele>221.8</ele>
      </trkpt>
      <trkpt lat="45.19507" lon="5.7286">
        <ele>222.6</ele>
      </trkpt>
      <trkpt lat="45.19499" lon="5.72853">
        <ele>220.8</ele>
      </trkpt>
      <trkpt lat="45.19505" lon="5.72849">
        <ele>223.1</ele>
      </trkpt>
      <trkpt lat="45.19506" lon="5.72841">
        <ele>224.6</ele>
      </trkpt>
      <trkpt lat="45.19507" lon="5.72838">
        <ele>225.4</ele>
      </trkpt>
      <trkpt lat="45.19508" lon="5.72837">
        <ele>226</ele>
      </trkpt>
      <trkpt lat="45.1951" lon="5.72837">
        <ele>226.7</ele>
      </trkpt>
      <trkpt lat="45.19512" lon="5.72838">
        <ele>227.4</ele>
      </trkpt>
      <trkpt lat="45.19514" lon="5.72837">
        <ele>228.1</ele>
      </trkpt>
      <trkpt lat="45.19516" lon="5.72834">
        <ele>229.3</ele>
      </trkpt>
      <trkpt lat="45.19517" lon="5.72836">
        <ele>229.6</ele>
      </trkpt>
      <trkpt lat="45.19521" lon="5.72841">
        <ele>230.3</ele>
      </trkpt>
      <trkpt lat="45.19525" lon="5.72839">
        <ele>232.2</ele>
      </trkpt>
      <trkpt lat="45.19537" lon="5.72843">
        <ele>236.1</ele>
      </trkpt>
      <trkpt lat="45.19544" lon="5.72844">
        <ele>238.3</ele>
      </trkpt>
      <trkpt lat="45.19546" lon="5.72843">
        <ele>239.4</ele>
      </trkpt>
      <trkpt lat="45.19548" lon="5.7284">
        <ele>240.8</ele>
      </trkpt>
      <trkpt lat="45.19545" lon="5.72833">
        <ele>241.4</ele>
      </trkpt>
      <trkpt lat="45.19538" lon="5.72825">
        <ele>240.4</ele>
      </trkpt>
      <trkpt lat="45.19525" lon="5.72805">
        <ele>239.6</ele>
      </trkpt>
      <trkpt lat="45.19524" lon="5.72799">
        <ele>240.4</ele>
      </trkpt>
      <trkpt lat="45.19532" lon="5.72782">
        <ele>247.5</ele>
      </trkpt>
      <trkpt lat="45.19538" lon="5.72763">
        <ele>254</ele>
      </trkpt>
      <trkpt lat="45.19538" lon="5.72759">
        <ele>255.2</ele>
      </trkpt>
      <trkpt lat="45.19541" lon="5.72758">
        <ele>256.5</ele>
      </trkpt>
      <trkpt lat="45.19549" lon="5.72772">
        <ele>256.6</ele>
      </trkpt>
      <trkpt lat="45.19551" lon="5.72774">
        <ele>256.7</ele>
      </trkpt>
      <trkpt lat="45.19557" lon="5.72785">
        <ele>257.1</ele>
      </trkpt>
      <trkpt lat="45.19571" lon="5.72792">
        <ele>261.1</ele>
      </trkpt>
      <trkpt lat="45.19589" lon="5.72798">
        <ele>266.9</ele>
      </trkpt>
      <trkpt lat="45.1963" lon="5.72814">
        <ele>279.2</ele>
      </trkpt>
      <trkpt lat="45.19653" lon="5.72823">
        <ele>285.8</ele>
      </trkpt>
      <trkpt lat="45.19664" lon="5.72828">
        <ele>288.7</ele>
      </trkpt>
      <trkpt lat="45.19673" lon="5.72833">
        <ele>290.6</ele>
      </trkpt>
      <trkpt lat="45.19681" lon="5.72842">
        <ele>292</ele>
      </trkpt>
      <trkpt lat="45.19685" lon="5.72846">
        <ele>292.2</ele>
      </trkpt>
      <trkpt lat="45.19692" lon="5.72852">
        <ele>293.7</ele>
      </trkpt>
      <trkpt lat="45.19694" lon="5.7285">
        <ele>295.1</ele>
      </trkpt>
      <trkpt lat="45.19697" lon="5.72852">
        <ele>296.1</ele>
      </trkpt>
      <trkpt lat="45.1971" lon="5.72865">
        <ele>298.1</ele>
      </trkpt>
      <trkpt lat="45.1972" lon="5.72872">
        <ele>300.6</ele>
      </trkpt>
      <trkpt lat="45.19743" lon="5.72887">
        <ele>307.2</ele>
      </trkpt>
      <trkpt lat="45.1979" lon="5.72917">
        <ele>309</ele>
      </trkpt>
      <trkpt lat="45.19795" lon="5.72921">
        <ele>308.1</ele>
      </trkpt>
      <trkpt lat="45.19798" lon="5.7292">
        <ele>308.6</ele>
      </trkpt>
      <trkpt lat="45.19798" lon="5.72919">
        <ele>309.6</ele>
      </trkpt>
      <trkpt lat="45.19797" lon="5.72916">
        <ele>310.5</ele>
      </trkpt>
      <trkpt lat="45.19796" lon="5.72914">
        <ele>311.2</ele>
      </trkpt>
      <trkpt lat="45.19791" lon="5.72908">
        <ele>312.5</ele>
      </trkpt>
      <trkpt lat="45.1978" lon="5.72895">
        <ele>315</ele>
      </trkpt>
      <trkpt lat="45.19758" lon="5.72863">
        <ele>319.1</ele>
      </trkpt>
      <trkpt lat="45.19744" lon="5.72845">
        <ele>318.4</ele>
      </trkpt>
      <trkpt lat="45.19743" lon="5.72843">
        <ele>318.6</ele>
      </trkpt>
      <trkpt lat="45.19744" lon="5.72841">
        <ele>319.3</ele>
      </trkpt>
      <trkpt lat="45.19746" lon="5.72841">
        <ele>320.5</ele>
      </trkpt>
      <trkpt lat="45.19751" lon="5.72842">
        <ele>322.1</ele>
      </trkpt>
      <trkpt lat="45.19756" lon="5.72846">
        <ele>322.9</ele>
      </trkpt>
      <trkpt lat="45.19763" lon="5.72852">
        <ele>323.7</ele>
      </trkpt>
      <trkpt lat="45.19782" lon="5.72865">
        <ele>325.9</ele>
      </trkpt>
      <trkpt lat="45.19806" lon="5.7288">
        <ele>327</ele>
      </trkpt>
      <trkpt lat="45.19809" lon="5.72882">
        <ele>326.8</ele>
      </trkpt>
      <trkpt lat="45.19811" lon="5.72883">
        <ele>327</ele>
      </trkpt>
      <trkpt lat="45.19812" lon="5.72882">
        <ele>327.8</ele>
      </trkpt>
      <trkpt lat="45.19812" lon="5.7288">
        <ele>328.6</ele>
      </trkpt>
      <trkpt lat="45.1981" lon="5.72877">
        <ele>329.2</ele>
      </trkpt>
      <trkpt lat="45.198" lon="5.72865">
        <ele>331.2</ele>
      </trkpt>
      <trkpt lat="45.19784" lon="5.72846">
        <ele>333</ele>
      </trkpt>
      <trkpt lat="45.19774" lon="5.72833">
        <ele>333.6</ele>
      </trkpt>
      <trkpt lat="45.1976" lon="5.72816">
        <ele>335.4</ele>
      </trkpt>
      <trkpt lat="45.19755" lon="5.72809">
        <ele>336</ele>
      </trkpt>
      <trkpt lat="45.19755" lon="5.72806">
        <ele>337.4</ele>
      </trkpt>
      <trkpt lat="45.19758" lon="5.72805">
        <ele>338.9</ele>
      </trkpt>
      <trkpt lat="45.19764" lon="5.7281">
        <ele>339.9</ele>
      </trkpt>
      <trkpt lat="45.19784" lon="5.72824">
        <ele>342.4</ele>
      </trkpt>
      <trkpt lat="45.19797" lon="5.72832">
        <ele>343.5</ele>
      </trkpt>
      <trkpt lat="45.19823" lon="5.72848">
        <ele>346.2</ele>
      </trkpt>
      <trkpt lat="45.19825" lon="5.72848">
        <ele>346.5</ele>
      </trkpt>
      <trkpt lat="45.19826" lon="5.72848">
        <ele>347.2</ele>
      </trkpt>
      <trkpt lat="45.19826" lon="5.72846">
        <ele>348</ele>
      </trkpt>
      <trkpt lat="45.19825" lon="5.72844">
        <ele>348.5</ele>
      </trkpt>
      <trkpt lat="45.19803" lon="5.72826">
        <ele>349.5</ele>
      </trkpt>
      <trkpt lat="45.19793" lon="5.72815">
        <ele>350.7</ele>
      </trkpt>
      <trkpt lat="45.19791" lon="5.72811">
        <ele>352</ele>
      </trkpt>
      <trkpt lat="45.19792" lon="5.7281">
        <ele>353.3</ele>
      </trkpt>
      <trkpt lat="45.19795" lon="5.72811">
        <ele>353.8</ele>
      </trkpt>
      <trkpt lat="45.19809" lon="5.72822">
        <ele>353.7</ele>
      </trkpt>
      <trkpt lat="45.19816" lon="5.72828">
        <ele>353.5</ele>
      </trkpt>
      <trkpt lat="45.19824" lon="5.72832">
        <ele>354.1</ele>
      </trkpt>
      <trkpt lat="45.19832" lon="5.72836">
        <ele>355.3</ele>
      </trkpt>
      <trkpt lat="45.19835" lon="5.72836">
        <ele>355.9</ele>
      </trkpt>
      <trkpt lat="45.19835" lon="5.72835">
        <ele>357</ele>
      </trkpt>
      <trkpt lat="45.19835" lon="5.72832">
        <ele>358.6</ele>
      </trkpt>
      <trkpt lat="45.19833" lon="5.7283">
        <ele>359.5</ele>
      </trkpt>
      <trkpt lat="45.19822" lon="5.72822">
        <ele>359.5</ele>
      </trkpt>
      <trkpt lat="45.19817" lon="5.72818">
        <ele>360.3</ele>
      </trkpt>
      <trkpt lat="45.19816" lon="5.72813">
        <ele>362.2</ele>
      </trkpt>
      <trkpt lat="45.19819" lon="5.72813">
        <ele>364</ele>
      </trkpt>
      <trkpt lat="45.19821" lon="5.72815">
        <ele>363.7</ele>
      </trkpt>
      <trkpt lat="45.19844" lon="5.72831">
        <ele>362</ele>
      </trkpt>
      <trkpt lat="45.19847" lon="5.7283">
        <ele>363.5</ele>
      </trkpt>
      <trkpt lat="45.19846" lon="5.72826">
        <ele>365.9</ele>
      </trkpt>
      <trkpt lat="45.19841" lon="5.72822">
        <ele>366.9</ele>
      </trkpt>
      <trkpt lat="45.19836" lon="5.72816">
        <ele>369.3</ele>
      </trkpt>
      <trkpt lat="45.19823" lon="5.72802">
        <ele>372.9</ele>
      </trkpt>
      <trkpt lat="45.19801" lon="5.72782">
        <ele>372.9</ele>
      </trkpt>
      <trkpt lat="45.19798" lon="5.7278">
        <ele>372.8</ele>
      </trkpt>
      <trkpt lat="45.19798" lon="5.72776">
        <ele>374.7</ele>
      </trkpt>
      <trkpt lat="45.198" lon="5.72775">
        <ele>376.2</ele>
      </trkpt>
      <trkpt lat="45.19803" lon="5.72777">
        <ele>377</ele>
      </trkpt>
      <trkpt lat="45.19813" lon="5.72785">
        <ele>378.2</ele>
      </trkpt>
      <trkpt lat="45.19825" lon="5.72793">
        <ele>379.8</ele>
      </trkpt>
      <trkpt lat="45.1984" lon="5.72802">
        <ele>380</ele>
      </trkpt>
      <trkpt lat="45.19843" lon="5.72804">
        <ele>379.9</ele>
      </trkpt>
      <trkpt lat="45.19845" lon="5.72804">
        <ele>380.6</ele>
      </trkpt>
      <trkpt lat="45.19846" lon="5.72802">
        <ele>382.1</ele>
      </trkpt>
      <trkpt lat="45.19844" lon="5.72799">
        <ele>383.4</ele>
      </trkpt>
      <trkpt lat="45.1984" lon="5.72795">
        <ele>384.4</ele>
      </trkpt>
      <trkpt lat="45.19834" lon="5.72789">
        <ele>386.7</ele>
      </trkpt>
      <trkpt lat="45.19822" lon="5.72778">
        <ele>387.3</ele>
      </trkpt>
      <trkpt lat="45.19815" lon="5.7277">
        <ele>388.6</ele>
      </trkpt>
      <trkpt lat="45.1981" lon="5.72761">
        <ele>390.8</ele>
      </trkpt>
      <trkpt lat="45.19799" lon="5.72745">
        <ele>391.9</ele>
      </trkpt>
      <trkpt lat="45.19792" lon="5.72737">
        <ele>390.8</ele>
      </trkpt>
      <trkpt lat="45.19791" lon="5.72734">
        <ele>391.6</ele>
      </trkpt>
      <trkpt lat="45.19793" lon="5.72731">
        <ele>393.5</ele>
      </trkpt>
      <trkpt lat="45.19794" lon="5.72731">
        <ele>394.7</ele>
      </trkpt>
      <trkpt lat="45.19796" lon="5.72732">
        <ele>395.5</ele>
      </trkpt>
      <trkpt lat="45.19801" lon="5.72736">
        <ele>397.3</ele>
      </trkpt>
      <trkpt lat="45.19808" lon="5.72744">
        <ele>398.2</ele>
      </trkpt>
      <trkpt lat="45.19818" lon="5.72754">
        <ele>400.5</ele>
      </trkpt>
      <trkpt lat="45.19824" lon="5.72759">
        <ele>401.2</ele>
      </trkpt>
      <trkpt lat="45.1983" lon="5.72763">
        <ele>402.4</ele>
      </trkpt>
      <trkpt lat="45.19849" lon="5.72779">
        <ele>397.7</ele>
      </trkpt>
      <trkpt lat="45.19853" lon="5.72781">
        <ele>397.4</ele>
      </trkpt>
      <trkpt lat="45.19854" lon="5.72779">
        <ele>399</ele>
      </trkpt>
      <trkpt lat="45.19853" lon="5.72775">
        <ele>401.3</ele>
      </trkpt>
      <trkpt lat="45.19848" lon="5.72768">
        <ele>404.8</ele>
      </trkpt>
      <trkpt lat="45.19848" lon="5.72767">
        <ele>405.8</ele>
      </trkpt>
      <trkpt lat="45.1985" lon="5.72766">
        <ele>406.4</ele>
      </trkpt>
      <trkpt lat="45.19857" lon="5.72775">
        <ele>403</ele>
      </trkpt>
      <trkpt lat="45.19858" lon="5.72774">
        <ele>403.8</ele>
      </trkpt>
      <trkpt lat="45.19855" lon="5.7277">
        <ele>405.1</ele>
      </trkpt>
      <trkpt lat="45.19855" lon="5.7277">
        <ele>405.6</ele>
      </trkpt>
      <trkpt lat="45.19856" lon="5.72769">
        <ele>406.3</ele>
      </trkpt>
      <trkpt lat="45.19859" lon="5.72773">
        <ele>404.4</ele>
      </trkpt>
      <trkpt lat="45.1986" lon="5.72772">
        <ele>405.3</ele>
      </trkpt>
      <trkpt lat="45.1986" lon="5.72771">
        <ele>406.1</ele>
      </trkpt>
      <trkpt lat="45.19857" lon="5.72767">
        <ele>407.7</ele>
      </trkpt>
      <trkpt lat="45.19854" lon="5.72763">
        <ele>409.5</ele>
      </trkpt>
      <trkpt lat="45.19853" lon="5.72762">
        <ele>410.3</ele>
      </trkpt>
      <trkpt lat="45.19854" lon="5.7276">
        <ele>412</ele>
      </trkpt>
      <trkpt lat="45.19854" lon="5.72754">
        <ele>415.7</ele>
      </trkpt>
      <trkpt lat="45.19856" lon="5.72754">
        <ele>416.2</ele>
      </trkpt>
      <trkpt lat="45.19856" lon="5.72762">
        <ele>410.8</ele>
      </trkpt>
      <trkpt lat="45.19857" lon="5.72762">
        <ele>411.2</ele>
      </trkpt>
      <trkpt lat="45.19857" lon="5.72759">
        <ele>413.2</ele>
      </trkpt>
      <trkpt lat="45.19857" lon="5.72758">
        <ele>413.9</ele>
      </trkpt>
      <trkpt lat="45.19858" lon="5.72741">
        <ele>422.2</ele>
      </trkpt>
      <trkpt lat="45.19856" lon="5.72737">
        <ele>423.3</ele>
      </trkpt>
      <trkpt lat="45.19853" lon="5.72736">
        <ele>423.2</ele>
      </trkpt>
      <trkpt lat="45.19851" lon="5.72735">
        <ele>423</ele>
      </trkpt>
      <trkpt lat="45.1985" lon="5.72734">
        <ele>422.8</ele>
      </trkpt>
      <trkpt lat="45.19848" lon="5.72736">
        <ele>421.6</ele>
      </trkpt>
      <trkpt lat="45.19847" lon="5.72738">
        <ele>420.8</ele>
      </trkpt>
      <trkpt lat="45.19844" lon="5.72741">
        <ele>418.7</ele>
      </trkpt>
      <trkpt lat="45.19843" lon="5.72744">
        <ele>417.8</ele>
      </trkpt>
      <trkpt lat="45.19842" lon="5.72749">
        <ele>415.7</ele>
      </trkpt>
      <trkpt lat="45.19835" lon="5.7274">
        <ele>417</ele>
      </trkpt>
      <trkpt lat="45.19835" lon="5.72727">
        <ele>421.5</ele>
      </trkpt>
      <trkpt lat="45.19832" lon="5.7272">
        <ele>422.5</ele>
      </trkpt>
      <trkpt lat="45.19799" lon="5.72691">
        <ele>414.1</ele>
      </trkpt>
      <trkpt lat="45.19779" lon="5.72671">
        <ele>412</ele>
      </trkpt>
      <trkpt lat="45.19766" lon="5.7265">
        <ele>409.9</ele>
      </trkpt>
      <trkpt lat="45.19758" lon="5.72623">
        <ele>410.9</ele>
      </trkpt>
      <trkpt lat="45.19744" lon="5.7259">
        <ele>409.7</ele>
      </trkpt>
      <trkpt lat="45.19745" lon="5.72556">
        <ele>407.8</ele>
      </trkpt>
      <trkpt lat="45.19745" lon="5.72536">
        <ele>405.3</ele>
      </trkpt>
      <trkpt lat="45.1975" lon="5.72536">
        <ele>407.7</ele>
      </trkpt>
      <trkpt lat="45.19752" lon="5.72526">
        <ele>407.5</ele>
      </trkpt>
      <trkpt lat="45.19757" lon="5.72517">
        <ele>409.9</ele>
      </trkpt>
      <trkpt lat="45.19767" lon="5.72507">
        <ele>415.3</ele>
      </trkpt>
      <trkpt lat="45.19772" lon="5.72503">
        <ele>418.4</ele>
      </trkpt>
      <trkpt lat="45.19775" lon="5.72503">
        <ele>420.2</ele>
      </trkpt>
      <trkpt lat="45.19765" lon="5.72529">
        <ele>416.1</ele>
      </trkpt>
      <trkpt lat="45.19764" lon="5.72549">
        <ele>417.5</ele>
      </trkpt>
      <trkpt lat="45.19766" lon="5.72583">
        <ele>421.9</ele>
      </trkpt>
      <trkpt lat="45.19768" lon="5.72586">
        <ele>422.2</ele>
      </trkpt>
      <trkpt lat="45.19771" lon="5.72584">
        <ele>423.9</ele>
      </trkpt>
      <trkpt lat="45.1978" lon="5.7254">
        <ele>425.9</ele>
      </trkpt>
      <trkpt lat="45.19785" lon="5.72528">
        <ele>428.3</ele>
      </trkpt>
      <trkpt lat="45.19788" lon="5.72527">
        <ele>429.9</ele>
      </trkpt>
      <trkpt lat="45.19789" lon="5.72529">
        <ele>431</ele>
      </trkpt>
      <trkpt lat="45.1979" lon="5.72537">
        <ele>431.8</ele>
      </trkpt>
      <trkpt lat="45.19787" lon="5.72596">
        <ele>430</ele>
      </trkpt>
      <trkpt lat="45.19787" lon="5.72606">
        <ele>428.5</ele>
      </trkpt>
      <trkpt lat="45.19789" lon="5.72614">
        <ele>428</ele>
      </trkpt>
      <trkpt lat="45.19793" lon="5.72622">
        <ele>428.7</ele>
      </trkpt>
      <trkpt lat="45.19814" lon="5.72643">
        <ele>436</ele>
      </trkpt>
      <trkpt lat="45.19828" lon="5.72655">
        <ele>441</ele>
      </trkpt>
      <trkpt lat="45.19853" lon="5.72685">
        <ele>440.9</ele>
      </trkpt>
      <trkpt lat="45.19858" lon="5.7269">
        <ele>440.3</ele>
      </trkpt>
      <trkpt lat="45.19859" lon="5.72691">
        <ele>440.3</ele>
      </trkpt>
      <trkpt lat="45.19862" lon="5.72688">
        <ele>442.2</ele>
      </trkpt>
      <trkpt lat="45.19861" lon="5.72685">
        <ele>443.1</ele>
      </trkpt>
      <trkpt lat="45.19858" lon="5.7268">
        <ele>444</ele>
      </trkpt>
      <trkpt lat="45.19845" lon="5.72662">
        <ele>446</ele>
      </trkpt>
      <trkpt lat="45.19844" lon="5.72659">
        <ele>446.1</ele>
      </trkpt>
      <trkpt lat="45.19834" lon="5.72635">
        <ele>447</ele>
      </trkpt>
      <trkpt lat="45.19833" lon="5.72633">
        <ele>447.1</ele>
      </trkpt>
      <trkpt lat="45.19827" lon="5.72609">
        <ele>447.6</ele>
      </trkpt>
      <trkpt lat="45.19823" lon="5.72585">
        <ele>449.8</ele>
      </trkpt>
      <trkpt lat="45.19822" lon="5.72545">
        <ele>450.6</ele>
      </trkpt>
      <trkpt lat="45.19823" lon="5.72516">
        <ele>452.6</ele>
      </trkpt>
      <trkpt lat="45.19831" lon="5.72478">
        <ele>455</ele>
      </trkpt>
      <trkpt lat="45.19834" lon="5.72462">
        <ele>454.6</ele>
      </trkpt>
      <trkpt lat="45.19834" lon="5.72459">
        <ele>454.3</ele>
      </trkpt>
      <trkpt lat="45.19838" lon="5.72446">
        <ele>453.6</ele>
      </trkpt>
      <trkpt lat="45.19843" lon="5.72442">
        <ele>454.2</ele>
      </trkpt>
      <trkpt lat="45.19845" lon="5.72443">
        <ele>454.8</ele>
      </trkpt>
      <trkpt lat="45.19847" lon="5.72445">
        <ele>455.8</ele>
      </trkpt>
      <trkpt lat="45.19849" lon="5.7245">
        <ele>456.9</ele>
      </trkpt>
      <trkpt lat="45.19849" lon="5.72465">
        <ele>459.3</ele>
      </trkpt>
      <trkpt lat="45.19852" lon="5.72507">
        <ele>464.8</ele>
      </trkpt>
      <trkpt lat="45.19855" lon="5.72556">
        <ele>462.4</ele>
      </trkpt>
      <trkpt lat="45.19858" lon="5.72557">
        <ele>463.2</ele>
      </trkpt>
      <trkpt lat="45.19859" lon="5.72552">
        <ele>463.8</ele>
      </trkpt>
      <trkpt lat="45.19857" lon="5.72515">
        <ele>465.9</ele>
      </trkpt>
      <trkpt lat="45.19857" lon="5.72498">
        <ele>466.4</ele>
      </trkpt>
      <trkpt lat="45.19856" lon="5.72492">
        <ele>465.4</ele>
      </trkpt>
      <trkpt lat="45.19867" lon="5.72484">
        <ele>467.2</ele>
      </trkpt>
      <trkpt lat="45.19877" lon="5.7248">
        <ele>469.3</ele>
      </trkpt>
      <trkpt lat="45.19886" lon="5.72475">
        <ele>471.1</ele>
      </trkpt>
      <trkpt lat="45.19887" lon="5.7247">
        <ele>470.6</ele>
      </trkpt>
      <trkpt lat="45.19888" lon="5.7246">
        <ele>469.2</ele>
      </trkpt>
      <trkpt lat="45.19888" lon="5.72456">
        <ele>468.8</ele>
      </trkpt>
      <trkpt lat="45.19889" lon="5.72454">
        <ele>468.6</ele>
      </trkpt>
      <trkpt lat="45.1989" lon="5.72448">
        <ele>467.9</ele>
      </trkpt>
      <trkpt lat="45.19892" lon="5.72442">
        <ele>467.6</ele>
      </trkpt>
      <trkpt lat="45.19894" lon="5.72438">
        <ele>467.4</ele>
      </trkpt>
      <trkpt lat="45.19897" lon="5.72436">
        <ele>468</ele>
      </trkpt>
      <trkpt lat="45.19916" lon="5.7243">
        <ele>472.2</ele>
      </trkpt>
      <trkpt lat="45.19929" lon="5.72426">
        <ele>470.6</ele>
      </trkpt>
      <trkpt lat="45.19937" lon="5.72422">
        <ele>469.4</ele>
      </trkpt>
      <trkpt lat="45.19946" lon="5.72421">
        <ele>468.5</ele>
      </trkpt>
      <trkpt lat="45.19966" lon="5.72422">
        <ele>467</ele>
      </trkpt>
      <trkpt lat="45.19986" lon="5.72424">
        <ele>466</ele>
      </trkpt>
      <trkpt lat="45.20011" lon="5.72426">
        <ele>467.7</ele>
      </trkpt>
      <trkpt lat="45.20036" lon="5.72428">
        <ele>473.2</ele>
      </trkpt>
      <trkpt lat="45.20055" lon="5.7243">
        <ele>477.2</ele>
      </trkpt>
      <trkpt lat="45.20063" lon="5.72434">
        <ele>479.2</ele>
      </trkpt>
      <trkpt lat="45.20068" lon="5.7244">
        <ele>481.2</ele>
      </trkpt>
      <trkpt lat="45.20071" lon="5.72445">
        <ele>482.5</ele>
      </trkpt>
      <trkpt lat="45.20073" lon="5.72456">
        <ele>484.1</ele>
      </trkpt>
      <trkpt lat="45.20074" lon="5.72466">
        <ele>485.7</ele>
      </trkpt>
      <trkpt lat="45.20074" lon="5.72482">
        <ele>487.9</ele>
      </trkpt>
      <trkpt lat="45.20068" lon="5.72515">
        <ele>488.3</ele>
      </trkpt>
      <trkpt lat="45.20068" lon="5.72523">
        <ele>487.5</ele>
      </trkpt>
      <trkpt lat="45.2007" lon="5.72532">
        <ele>486.8</ele>
      </trkpt>
      <trkpt lat="45.20077" lon="5.72544">
        <ele>485.9</ele>
      </trkpt>
      <trkpt lat="45.20101" lon="5.72542">
        <ele>491.9</ele>
      </trkpt>
      <trkpt lat="45.20109" lon="5.72543">
        <ele>494.4</ele>
      </trkpt>
      <trkpt lat="45.20112" lon="5.72544">
        <ele>495.1</ele>
      </trkpt>
      <trkpt lat="45.20163" lon="5.7256">
        <ele>507.1</ele>
      </trkpt>
      <trkpt lat="45.20194" lon="5.72581">
        <ele>513.9</ele>
      </trkpt>
      <trkpt lat="45.20224" lon="5.726">
        <ele>517.1</ele>
      </trkpt>
      <trkpt lat="45.20232" lon="5.72605">
        <ele>518.1</ele>
      </trkpt>
      <trkpt lat="45.20238" lon="5.72607">
        <ele>519.3</ele>
      </trkpt>
      <trkpt lat="45.20246" lon="5.72609">
        <ele>521.2</ele>
      </trkpt>
      <trkpt lat="45.20254" lon="5.7261">
        <ele>523.3</ele>
      </trkpt>
      <trkpt lat="45.20262" lon="5.72609">
        <ele>526.5</ele>
      </trkpt>
      <trkpt lat="45.20283" lon="5.72605">
        <ele>534.3</ele>
      </trkpt>
      <trkpt lat="45.203" lon="5.72607">
        <ele>538.7</ele>
      </trkpt>
      <trkpt lat="45.20324" lon="5.72613">
        <ele>543.5</ele>
      </trkpt>
      <trkpt lat="45.20334" lon="5.72619">
        <ele>544.3</ele>
      </trkpt>
      <trkpt lat="45.20345" lon="5.72629">
        <ele>546.1</ele>
      </trkpt>
      <trkpt lat="45.20362" lon="5.7264">
        <ele>550.1</ele>
      </trkpt>
      <trkpt lat="45.20376" lon="5.72653">
        <ele>551.8</ele>
      </trkpt>
      <trkpt lat="45.204" lon="5.72684">
        <ele>549.9</ele>
      </trkpt>
      <trkpt lat="45.20415" lon="5.72699">
        <ele>548.6</ele>
      </trkpt>
      <trkpt lat="45.20423" lon="5.72705">
        <ele>548.2</ele>
      </trkpt>
      <trkpt lat="45.2043" lon="5.72709">
        <ele>548.2</ele>
      </trkpt>
      <trkpt lat="45.20438" lon="5.72713">
        <ele>549.1</ele>
      </trkpt>
      <trkpt lat="45.20448" lon="5.72716">
        <ele>550.4</ele>
      </trkpt>
      <trkpt lat="45.20456" lon="5.72718">
        <ele>551.9</ele>
      </trkpt>
      <trkpt lat="45.20464" lon="5.72718">
        <ele>554.4</ele>
      </trkpt>
      <trkpt lat="45.20496" lon="5.7273">
        <ele>558.9</ele>
      </trkpt>
      <trkpt lat="45.20517" lon="5.72747">
        <ele>561</ele>
      </trkpt>
      <trkpt lat="45.20521" lon="5.7275">
        <ele>561.7</ele>
      </trkpt>
      <trkpt lat="45.20525" lon="5.7275">
        <ele>563.5</ele>
      </trkpt>
      <trkpt lat="45.20526" lon="5.72748">
        <ele>565.3</ele>
      </trkpt>
      <trkpt lat="45.20527" lon="5.72745">
        <ele>566.7</ele>
      </trkpt>
      <trkpt lat="45.20525" lon="5.7274">
        <ele>568.1</ele>
      </trkpt>
      <trkpt lat="45.20512" lon="5.72731">
        <ele>566.1</ele>
      </trkpt>
      <trkpt lat="45.2051" lon="5.72728">
        <ele>566.1</ele>
      </trkpt>
      <trkpt lat="45.20491" lon="5.7271">
        <ele>567.2</ele>
      </trkpt>
      <trkpt lat="45.20471" lon="5.72692">
        <ele>570.1</ele>
      </trkpt>
      <trkpt lat="45.20463" lon="5.72683">
        <ele>572.3</ele>
      </trkpt>
      <trkpt lat="45.20454" lon="5.72676">
        <ele>573.2</ele>
      </trkpt>
      <trkpt lat="45.20442" lon="5.72671">
        <ele>572.5</ele>
      </trkpt>
      <trkpt lat="45.20436" lon="5.72664">
        <ele>573.9</ele>
      </trkpt>
      <trkpt lat="45.20428" lon="5.72651">
        <ele>576.7</ele>
      </trkpt>
      <trkpt lat="45.20419" lon="5.72638">
        <ele>579.4</ele>
      </trkpt>
      <trkpt lat="45.20418" lon="5.72635">
        <ele>580.2</ele>
      </trkpt>
      <trkpt lat="45.20417" lon="5.72631">
        <ele>581.5</ele>
      </trkpt>
      <trkpt lat="45.20417" lon="5.72626">
        <ele>583.6</ele>
      </trkpt>
      <trkpt lat="45.2042" lon="5.72625">
        <ele>584.8</ele>
      </trkpt>
      <trkpt lat="45.20423" lon="5.72626">
        <ele>585.1</ele>
      </trkpt>
      <trkpt lat="45.20436" lon="5.72641">
        <ele>582.9</ele>
      </trkpt>
      <trkpt lat="45.20445" lon="5.72647">
        <ele>583</ele>
      </trkpt>
      <trkpt lat="45.20461" lon="5.72649">
        <ele>587.1</ele>
      </trkpt>
      <trkpt lat="45.20478" lon="5.72657">
        <ele>588.8</ele>
      </trkpt>
      <trkpt lat="45.20523" lon="5.72678">
        <ele>595.3</ele>
      </trkpt>
      <trkpt lat="45.20563" lon="5.72707">
        <ele>600.5</ele>
      </trkpt>
      <trkpt lat="45.20575" lon="5.72712">
        <ele>604.2</ele>
      </trkpt>
      <trkpt lat="45.20581" lon="5.72713">
        <ele>606.9</ele>
      </trkpt>
      <trkpt lat="45.20584" lon="5.72708">
        <ele>610.1</ele>
      </trkpt>
      <trkpt lat="45.20582" lon="5.72702">
        <ele>611</ele>
      </trkpt>
      <trkpt lat="45.20573" lon="5.72699">
        <ele>608.3</ele>
      </trkpt>
      <trkpt lat="45.2056" lon="5.72689">
        <ele>606</ele>
      </trkpt>
      <trkpt lat="45.20549" lon="5.72677">
        <ele>606.1</ele>
      </trkpt>
      <trkpt lat="45.20538" lon="5.72664">
        <ele>606.8</ele>
      </trkpt>
      <trkpt lat="45.20526" lon="5.72644">
        <ele>608.3</ele>
      </trkpt>
      <trkpt lat="45.20521" lon="5.72637">
        <ele>608.6</ele>
      </trkpt>
      <trkpt lat="45.20514" lon="5.7263">
        <ele>608.6</ele>
      </trkpt>
      <trkpt lat="45.20506" lon="5.72626">
        <ele>607.5</ele>
      </trkpt>
      <trkpt lat="45.20496" lon="5.72623">
        <ele>605.7</ele>
      </trkpt>
      <trkpt lat="45.20487" lon="5.72616">
        <ele>605.6</ele>
      </trkpt>
      <trkpt lat="45.20478" lon="5.72607">
        <ele>606.4</ele>
      </trkpt>
      <trkpt lat="45.20451" lon="5.72555">
        <ele>614.6</ele>
      </trkpt>
      <trkpt lat="45.20444" lon="5.72539">
        <ele>616.2</ele>
      </trkpt>
      <trkpt lat="45.20442" lon="5.72532">
        <ele>617.2</ele>
      </trkpt>
      <trkpt lat="45.20441" lon="5.72525">
        <ele>618.5</ele>
      </trkpt>
      <trkpt lat="45.20441" lon="5.72517">
        <ele>620.2</ele>
      </trkpt>
      <trkpt lat="45.20445" lon="5.72513">
        <ele>621.8</ele>
      </trkpt>
      <trkpt lat="45.20448" lon="5.72514">
        <ele>622.2</ele>
      </trkpt>
      <trkpt lat="45.2045" lon="5.72516">
        <ele>622.3</ele>
      </trkpt>
      <trkpt lat="45.20456" lon="5.72523">
        <ele>621.8</ele>
      </trkpt>
      <trkpt lat="45.20461" lon="5.72533">
        <ele>621.1</ele>
      </trkpt>
      <trkpt lat="45.20468" lon="5.72544">
        <ele>620.3</ele>
      </trkpt>
      <trkpt lat="45.20475" lon="5.72554">
        <ele>619.9</ele>
      </trkpt>
      <trkpt lat="45.20481" lon="5.7256">
        <ele>620</ele>
      </trkpt>
      <trkpt lat="45.20486" lon="5.72566">
        <ele>620.1</ele>
      </trkpt>
      <trkpt lat="45.20489" lon="5.72568">
        <ele>620.3</ele>
      </trkpt>
      <trkpt lat="45.20495" lon="5.72573">
        <ele>620.8</ele>
      </trkpt>
      <trkpt lat="45.20499" lon="5.72575">
        <ele>621.3</ele>
      </trkpt>
      <trkpt lat="45.20503" lon="5.72576">
        <ele>621.7</ele>
      </trkpt>
      <trkpt lat="45.20508" lon="5.72577">
        <ele>622.4</ele>
      </trkpt>
      <trkpt lat="45.20512" lon="5.72578">
        <ele>623.2</ele>
      </trkpt>
      <trkpt lat="45.20517" lon="5.72577">
        <ele>624.2</ele>
      </trkpt>
      <trkpt lat="45.20521" lon="5.72575">
        <ele>625.2</ele>
      </trkpt>
      <trkpt lat="45.20528" lon="5.72571">
        <ele>627</ele>
      </trkpt>
      <trkpt lat="45.20531" lon="5.72567">
        <ele>628</ele>
      </trkpt>
      <trkpt lat="45.20534" lon="5.72564">
        <ele>628.7</ele>
      </trkpt>
      <trkpt lat="45.20537" lon="5.72562">
        <ele>629.5</ele>
      </trkpt>
      <trkpt lat="45.20541" lon="5.72561">
        <ele>630.2</ele>
      </trkpt>
      <trkpt lat="45.20545" lon="5.72559">
        <ele>630.9</ele>
      </trkpt>
      <trkpt lat="45.2055" lon="5.72558">
        <ele>631.7</ele>
      </trkpt>
      <trkpt lat="45.20556" lon="5.72559">
        <ele>632.6</ele>
      </trkpt>
      <trkpt lat="45.20563" lon="5.72561">
        <ele>633.5</ele>
      </trkpt>
      <trkpt lat="45.20568" lon="5.72562">
        <ele>634.1</ele>
      </trkpt>
      <trkpt lat="45.20577" lon="5.72567">
        <ele>635.4</ele>
      </trkpt>
      <trkpt lat="45.20582" lon="5.72569">
        <ele>636.1</ele>
      </trkpt>
      <trkpt lat="45.20587" lon="5.72573">
        <ele>636.7</ele>
      </trkpt>
      <trkpt lat="45.20593" lon="5.72578">
        <ele>637.5</ele>
      </trkpt>
      <trkpt lat="45.20599" lon="5.72584">
        <ele>638.3</ele>
      </trkpt>
      <trkpt lat="45.20607" lon="5.7259">
        <ele>638.8</ele>
      </trkpt>
      <trkpt lat="45.20613" lon="5.72595">
        <ele>639.4</ele>
      </trkpt>
      <trkpt lat="45.2063" lon="5.72607">
        <ele>641.7</ele>
      </trkpt>
      <trkpt lat="45.20634" lon="5.72608">
        <ele>642.4</ele>
      </trkpt>
      <trkpt lat="45.20637" lon="5.72608">
        <ele>643.1</ele>
      </trkpt>
      <trkpt lat="45.2064" lon="5.72607">
        <ele>643.8</ele>
      </trkpt>
      <trkpt lat="45.20643" lon="5.72606">
        <ele>644.4</ele>
      </trkpt>
      <trkpt lat="45.20649" lon="5.72602">
        <ele>645.6</ele>
      </trkpt>
      <trkpt lat="45.20654" lon="5.72598">
        <ele>646.4</ele>
      </trkpt>
      <trkpt lat="45.20658" lon="5.72594">
        <ele>646.9</ele>
      </trkpt>
      <trkpt lat="45.20664" lon="5.72589">
        <ele>647.8</ele>
      </trkpt>
      <trkpt lat="45.2067" lon="5.72581">
        <ele>648.5</ele>
      </trkpt>
      <trkpt lat="45.20673" lon="5.72576">
        <ele>648.9</ele>
      </trkpt>
      <trkpt lat="45.20676" lon="5.72573">
        <ele>649.4</ele>
      </trkpt>
      <trkpt lat="45.20684" lon="5.72572">
        <ele>650.7</ele>
      </trkpt>
      <trkpt lat="45.20689" lon="5.72571">
        <ele>651.6</ele>
      </trkpt>
      <trkpt lat="45.20692" lon="5.7257">
        <ele>652.1</ele>
      </trkpt>
      <trkpt lat="45.20695" lon="5.72567">
        <ele>652.5</ele>
      </trkpt>
      <trkpt lat="45.20698" lon="5.72567">
        <ele>652.9</ele>
      </trkpt>
      <trkpt lat="45.207" lon="5.72567">
        <ele>653.4</ele>
      </trkpt>
      <trkpt lat="45.20702" lon="5.72569">
        <ele>653.9</ele>
      </trkpt>
      <trkpt lat="45.20704" lon="5.72572">
        <ele>654.6</ele>
      </trkpt>
      <trkpt lat="45.20708" lon="5.72576">
        <ele>655.7</ele>
      </trkpt>
      <trkpt lat="45.20712" lon="5.72579">
        <ele>656.7</ele>
      </trkpt>
      <trkpt lat="45.20716" lon="5.72581">
        <ele>657.7</ele>
      </trkpt>
      <trkpt lat="45.20721" lon="5.72582">
        <ele>658.8</ele>
      </trkpt>
      <trkpt lat="45.20737" lon="5.72593">
        <ele>663.9</ele>
      </trkpt>
      <trkpt lat="45.20744" lon="5.72611">
        <ele>668.1</ele>
      </trkpt>
      <trkpt lat="45.20749" lon="5.72618">
        <ele>670.6</ele>
      </trkpt>
      <trkpt lat="45.20772" lon="5.72615">
        <ele>676.8</ele>
      </trkpt>
      <trkpt lat="45.20773" lon="5.72632">
        <ele>680.3</ele>
      </trkpt>
      <trkpt lat="45.20774" lon="5.72643">
        <ele>682.6</ele>
      </trkpt>
      <trkpt lat="45.20779" lon="5.72645">
        <ele>684.8</ele>
      </trkpt>
      <trkpt lat="45.20792" lon="5.72639">
        <ele>687.6</ele>
      </trkpt>
      <trkpt lat="45.20799" lon="5.72618">
        <ele>685.3</ele>
      </trkpt>
      <trkpt lat="45.20805" lon="5.72642">
        <ele>692.2</ele>
      </trkpt>
      <trkpt lat="45.20807" lon="5.72663">
        <ele>697.3</ele>
      </trkpt>
      <trkpt lat="45.20815" lon="5.72669">
        <ele>701.2</ele>
      </trkpt>
      <trkpt lat="45.20829" lon="5.72658">
        <ele>703.3</ele>
      </trkpt>
      <trkpt lat="45.20836" lon="5.72663">
        <ele>706.7</ele>
      </trkpt>
      <trkpt lat="45.20836" lon="5.72682">
        <ele>709.3</ele>
      </trkpt>
      <trkpt lat="45.20838" lon="5.72692">
        <ele>711</ele>
      </trkpt>
      <trkpt lat="45.20851" lon="5.72691">
        <ele>714</ele>
      </trkpt>
      <trkpt lat="45.20872" lon="5.72686">
        <ele>718.2</ele>
      </trkpt>
      <trkpt lat="45.20894" lon="5.72678">
        <ele>722.1</ele>
      </trkpt>
      <trkpt lat="45.20908" lon="5.72675">
        <ele>725</ele>
      </trkpt>
      <trkpt lat="45.2092" lon="5.72679">
        <ele>728.2</ele>
      </trkpt>
      <trkpt lat="45.20941" lon="5.72697">
        <ele>735.1</ele>
      </trkpt>
      <trkpt lat="45.20955" lon="5.72716">
        <ele>741.1</ele>
      </trkpt>
      <trkpt lat="45.20971" lon="5.72731">
        <ele>748</ele>
      </trkpt>
      <trkpt lat="45.20983" lon="5.72749">
        <ele>755</ele>
      </trkpt>
      <trkpt lat="45.20991" lon="5.72758">
        <ele>758</ele>
      </trkpt>
      <trkpt lat="45.20995" lon="5.72757">
        <ele>759.3</ele>
      </trkpt>
      <trkpt lat="45.20996" lon="5.72755">
        <ele>759.4</ele>
      </trkpt>
      <trkpt lat="45.21" lon="5.72753">
        <ele>760.3</ele>
      </trkpt>
      <trkpt lat="45.21002" lon="5.72748">
        <ele>760.2</ele>
      </trkpt>
      <trkpt lat="45.21012" lon="5.72745">
        <ele>762.2</ele>
      </trkpt>
      <trkpt lat="45.21022" lon="5.72744">
        <ele>764.9</ele>
      </trkpt>
      <trkpt lat="45.21033" lon="5.72744">
        <ele>768.1</ele>
      </trkpt>
      <trkpt lat="45.21041" lon="5.7275">
        <ele>771.9</ele>
      </trkpt>
      <trkpt lat="45.21047" lon="5.72756">
        <ele>773.8</ele>
      </trkpt>
      <trkpt lat="45.21065" lon="5.728">
        <ele>780.7</ele>
      </trkpt>
      <trkpt lat="45.21072" lon="5.72818">
        <ele>783.1</ele>
      </trkpt>
      <trkpt lat="45.21077" lon="5.72828">
        <ele>784.4</ele>
      </trkpt>
      <trkpt lat="45.21084" lon="5.72839">
        <ele>785.2</ele>
      </trkpt>
      <trkpt lat="45.21102" lon="5.7286">
        <ele>785.3</ele>
      </trkpt>
      <trkpt lat="45.21116" lon="5.72872">
        <ele>786.4</ele>
      </trkpt>
      <trkpt lat="45.21131" lon="5.72884">
        <ele>788.5</ele>
      </trkpt>
      <trkpt lat="45.2114" lon="5.7289">
        <ele>790</ele>
      </trkpt>
      <trkpt lat="45.21154" lon="5.72897">
        <ele>792.8</ele>
      </trkpt>
      <trkpt lat="45.21181" lon="5.72906">
        <ele>797.5</ele>
      </trkpt>
      <trkpt lat="45.21189" lon="5.72919">
        <ele>798.4</ele>
      </trkpt>
      <trkpt lat="45.21205" lon="5.72941">
        <ele>797.2</ele>
      </trkpt>
      <trkpt lat="45.21213" lon="5.72945">
        <ele>798.3</ele>
      </trkpt>
      <trkpt lat="45.21215" lon="5.72946">
        <ele>798.8</ele>
      </trkpt>
      <trkpt lat="45.21216" lon="5.72944">
        <ele>799.2</ele>
      </trkpt>
      <trkpt lat="45.2121" lon="5.72931">
        <ele>800</ele>
      </trkpt>
      <trkpt lat="45.21209" lon="5.72924">
        <ele>800.8</ele>
      </trkpt>
      <trkpt lat="45.21209" lon="5.72918">
        <ele>801.9</ele>
      </trkpt>
      <trkpt lat="45.21211" lon="5.72915">
        <ele>802.3</ele>
      </trkpt>
      <trkpt lat="45.21218" lon="5.72918">
        <ele>803.4</ele>
      </trkpt>
      <trkpt lat="45.21222" lon="5.72925">
        <ele>803.3</ele>
      </trkpt>
      <trkpt lat="45.21228" lon="5.72931">
        <ele>803.8</ele>
      </trkpt>
      <trkpt lat="45.21236" lon="5.72937">
        <ele>805</ele>
      </trkpt>
      <trkpt lat="45.21242" lon="5.72939">
        <ele>806.3</ele>
      </trkpt>
      <trkpt lat="45.21247" lon="5.72939">
        <ele>807.5</ele>
      </trkpt>
      <trkpt lat="45.21253" lon="5.72939">
        <ele>809.5</ele>
      </trkpt>
      <trkpt lat="45.21257" lon="5.72941">
        <ele>811.4</ele>
      </trkpt>
      <trkpt lat="45.21261" lon="5.72947">
        <ele>812.9</ele>
      </trkpt>
      <trkpt lat="45.21263" lon="5.72949">
        <ele>814.1</ele>
      </trkpt>
      <trkpt lat="45.21266" lon="5.72951">
        <ele>815.4</ele>
      </trkpt>
      <trkpt lat="45.21269" lon="5.72952">
        <ele>816.6</ele>
      </trkpt>
      <trkpt lat="45.21276" lon="5.72958">
        <ele>819.9</ele>
      </trkpt>
      <trkpt lat="45.21283" lon="5.72965">
        <ele>823.7</ele>
      </trkpt>
      <trkpt lat="45.21293" lon="5.72973">
        <ele>828.8</ele>
      </trkpt>
      <trkpt lat="45.21299" lon="5.72978">
        <ele>832</ele>
      </trkpt>
      <trkpt lat="45.21306" lon="5.72984">
        <ele>835.6</ele>
      </trkpt>
      <trkpt lat="45.21311" lon="5.72992">
        <ele>838.6</ele>
      </trkpt>
      <trkpt lat="45.21323" lon="5.73008">
        <ele>843.3</ele>
      </trkpt>
      <trkpt lat="45.21334" lon="5.73022">
        <ele>847.1</ele>
      </trkpt>
      <trkpt lat="45.21342" lon="5.7303">
        <ele>851</ele>
      </trkpt>
      <trkpt lat="45.2135" lon="5.73042">
        <ele>854.3</ele>
      </trkpt>
      <trkpt lat="45.21364" lon="5.73062">
        <ele>860.3</ele>
      </trkpt>
      <trkpt lat="45.21373" lon="5.73078">
        <ele>863.7</ele>
      </trkpt>
      <trkpt lat="45.21396" lon="5.7311">
        <ele>866.5</ele>
      </trkpt>
      <trkpt lat="45.21411" lon="5.73129">
        <ele>868.9</ele>
      </trkpt>
      <trkpt lat="45.21417" lon="5.73142">
        <ele>867.4</ele>
      </trkpt>
      <trkpt lat="45.21428" lon="5.73149">
        <ele>873.2</ele>
      </trkpt>
      <trkpt lat="45.21458" lon="5.73167">
        <ele>887.3</ele>
      </trkpt>
      <trkpt lat="45.21472" lon="5.73182">
        <ele>891.2</ele>
      </trkpt>
      <trkpt lat="45.21475" lon="5.73196">
        <ele>888.2</ele>
      </trkpt>
      <trkpt lat="45.21475" lon="5.73213">
        <ele>881.2</ele>
      </trkpt>
      <trkpt lat="45.21476" lon="5.7322">
        <ele>879</ele>
      </trkpt>
      <trkpt lat="45.21482" lon="5.73228">
        <ele>880.9</ele>
      </trkpt>
      <trkpt lat="45.21495" lon="5.73241">
        <ele>886.5</ele>
      </trkpt>
      <trkpt lat="45.21502" lon="5.73253">
        <ele>887.2</ele>
      </trkpt>
      <trkpt lat="45.21505" lon="5.73258">
        <ele>886.8</ele>
      </trkpt>
      <trkpt lat="45.21508" lon="5.73262">
        <ele>886.3</ele>
      </trkpt>
      <trkpt lat="45.21509" lon="5.73264">
        <ele>885.7</ele>
      </trkpt>
      <trkpt lat="45.21509" lon="5.73265">
        <ele>884.9</ele>
      </trkpt>
      <trkpt lat="45.21509" lon="5.73267">
        <ele>883.6</ele>
      </trkpt>
      <trkpt lat="45.21508" lon="5.73273">
        <ele>880.3</ele>
      </trkpt>
      <trkpt lat="45.21509" lon="5.73281">
        <ele>876.3</ele>
      </trkpt>
      <trkpt lat="45.21512" lon="5.73301">
        <ele>867.2</ele>
      </trkpt>
      <trkpt lat="45.21513" lon="5.73306">
        <ele>865.2</ele>
      </trkpt>
      <trkpt lat="45.21514" lon="5.7331">
        <ele>863.7</ele>
      </trkpt>
      <trkpt lat="45.21516" lon="5.73314">
        <ele>863</ele>
      </trkpt>
      <trkpt lat="45.21518" lon="5.73315">
        <ele>863.7</ele>
      </trkpt>
      <trkpt lat="45.2152" lon="5.73316">
        <ele>864.9</ele>
      </trkpt>
      <trkpt lat="45.21531" lon="5.73317">
        <ele>872</ele>
      </trkpt>
      <trkpt lat="45.21544" lon="5.7332">
        <ele>880.1</ele>
      </trkpt>
      <trkpt lat="45.21557" lon="5.73324">
        <ele>887.6</ele>
      </trkpt>
      <trkpt lat="45.21565" lon="5.73326">
        <ele>892.3</ele>
      </trkpt>
      <trkpt lat="45.21572" lon="5.73331">
        <ele>896</ele>
      </trkpt>
      <trkpt lat="45.21582" lon="5.73338">
        <ele>900.8</ele>
      </trkpt>
      <trkpt lat="45.21587" lon="5.73342">
        <ele>903</ele>
      </trkpt>
      <trkpt lat="45.21591" lon="5.73346">
        <ele>904</ele>
      </trkpt>
      <trkpt lat="45.21595" lon="5.73351">
        <ele>904.8</ele>
      </trkpt>
      <trkpt lat="45.216" lon="5.7336">
        <ele>905.5</ele>
      </trkpt>
      <trkpt lat="45.21604" lon="5.73366">
        <ele>906.1</ele>
      </trkpt>
      <trkpt lat="45.21609" lon="5.73372">
        <ele>907.1</ele>
      </trkpt>
      <trkpt lat="45.21615" lon="5.73377">
        <ele>908.9</ele>
      </trkpt>
      <trkpt lat="45.21629" lon="5.73386">
        <ele>913.8</ele>
      </trkpt>
      <trkpt lat="45.21637" lon="5.73393">
        <ele>916.4</ele>
      </trkpt>
      <trkpt lat="45.21645" lon="5.73402">
        <ele>918</ele>
      </trkpt>
      <trkpt lat="45.21653" lon="5.73416">
        <ele>917.8</ele>
      </trkpt>
      <trkpt lat="45.2166" lon="5.73435">
        <ele>914.4</ele>
      </trkpt>
      <trkpt lat="45.21667" lon="5.73467">
        <ele>905.2</ele>
      </trkpt>
      <trkpt lat="45.2167" lon="5.73479">
        <ele>902</ele>
      </trkpt>
      <trkpt lat="45.21674" lon="5.73484">
        <ele>901.5</ele>
      </trkpt>
      <trkpt lat="45.21679" lon="5.7349">
        <ele>901</ele>
      </trkpt>
      <trkpt lat="45.21686" lon="5.73494">
        <ele>902.7</ele>
      </trkpt>
      <trkpt lat="45.21705" lon="5.73496">
        <ele>909.8</ele>
      </trkpt>
      <trkpt lat="45.21712" lon="5.73499">
        <ele>911.6</ele>
      </trkpt>
      <trkpt lat="45.21718" lon="5.73502">
        <ele>912.6</ele>
      </trkpt>
      <trkpt lat="45.21724" lon="5.73506">
        <ele>913.7</ele>
      </trkpt>
      <trkpt lat="45.21729" lon="5.7351">
        <ele>914.4</ele>
      </trkpt>
      <trkpt lat="45.21735" lon="5.73515">
        <ele>914.8</ele>
      </trkpt>
      <trkpt lat="45.21739" lon="5.73519">
        <ele>914.9</ele>
      </trkpt>
      <trkpt lat="45.2175" lon="5.73522">
        <ele>917.9</ele>
      </trkpt>
      <trkpt lat="45.21765" lon="5.73525">
        <ele>921.2</ele>
      </trkpt>
      <trkpt lat="45.21772" lon="5.73528">
        <ele>921.9</ele>
      </trkpt>
      <trkpt lat="45.21777" lon="5.7353">
        <ele>922.4</ele>
      </trkpt>
      <trkpt lat="45.21781" lon="5.73533">
        <ele>922.4</ele>
      </trkpt>
      <trkpt lat="45.21784" lon="5.73536">
        <ele>922</ele>
      </trkpt>
      <trkpt lat="45.21788" lon="5.73542">
        <ele>921</ele>
      </trkpt>
      <trkpt lat="45.21793" lon="5.73553">
        <ele>918</ele>
      </trkpt>
      <trkpt lat="45.21798" lon="5.73565">
        <ele>914.9</ele>
      </trkpt>
      <trkpt lat="45.21803" lon="5.73572">
        <ele>913.6</ele>
      </trkpt>
      <trkpt lat="45.21809" lon="5.73579">
        <ele>912.5</ele>
      </trkpt>
      <trkpt lat="45.21815" lon="5.73587">
        <ele>911.5</ele>
      </trkpt>
      <trkpt lat="45.21822" lon="5.73596">
        <ele>910.8</ele>
      </trkpt>
      <trkpt lat="45.21828" lon="5.73604">
        <ele>909.7</ele>
      </trkpt>
      <trkpt lat="45.21832" lon="5.73614">
        <ele>907.7</ele>
      </trkpt>
      <trkpt lat="45.21841" lon="5.73638">
        <ele>903.5</ele>
      </trkpt>
      <trkpt lat="45.21847" lon="5.7365">
        <ele>901.9</ele>
      </trkpt>
      <trkpt lat="45.21862" lon="5.73665">
        <ele>902.7</ele>
      </trkpt>
      <trkpt lat="45.2188" lon="5.73684">
        <ele>901.5</ele>
      </trkpt>
      <trkpt lat="45.21885" lon="5.73692">
        <ele>899.9</ele>
      </trkpt>
      <trkpt lat="45.21889" lon="5.73697">
        <ele>898.8</ele>
      </trkpt>
      <trkpt lat="45.21893" lon="5.73701">
        <ele>898.8</ele>
      </trkpt>
      <trkpt lat="45.21897" lon="5.73704">
        <ele>899</ele>
      </trkpt>
      <trkpt lat="45.21903" lon="5.73707">
        <ele>899.5</ele>
      </trkpt>
      <trkpt lat="45.21908" lon="5.73709">
        <ele>900.8</ele>
      </trkpt>
      <trkpt lat="45.21914" lon="5.7371">
        <ele>902.3</ele>
      </trkpt>
      <trkpt lat="45.2192" lon="5.73713">
        <ele>902.8</ele>
      </trkpt>
      <trkpt lat="45.21929" lon="5.7372">
        <ele>902</ele>
      </trkpt>
      <trkpt lat="45.21949" lon="5.73738">
        <ele>900.4</ele>
      </trkpt>
      <trkpt lat="45.21968" lon="5.73786">
        <ele>886.7</ele>
      </trkpt>
      <trkpt lat="45.21978" lon="5.738">
        <ele>884.6</ele>
      </trkpt>
      <trkpt lat="45.22069" lon="5.7387">
        <ele>877.2</ele>
      </trkpt>
      <trkpt lat="45.22092" lon="5.7388">
        <ele>879.6</ele>
      </trkpt>
      <trkpt lat="45.2212" lon="5.73888">
        <ele>885.9</ele>
      </trkpt>
      <trkpt lat="45.22147" lon="5.73896">
        <ele>890.6</ele>
      </trkpt>
      <trkpt lat="45.22172" lon="5.73912">
        <ele>891.5</ele>
      </trkpt>
      <trkpt lat="45.22193" lon="5.7393">
        <ele>892.2</ele>
      </trkpt>
      <trkpt lat="45.22211" lon="5.73949">
        <ele>891.2</ele>
      </trkpt>
      <trkpt lat="45.22227" lon="5.73967">
        <ele>889.2</ele>
      </trkpt>
      <trkpt lat="45.22238" lon="5.73976">
        <ele>888.9</ele>
      </trkpt>
      <trkpt lat="45.22262" lon="5.73985">
        <ele>892.4</ele>
      </trkpt>
      <trkpt lat="45.22289" lon="5.74001">
        <ele>893.2</ele>
      </trkpt>
      <trkpt lat="45.223" lon="5.74007">
        <ele>894.8</ele>
      </trkpt>
      <trkpt lat="45.22312" lon="5.74012">
        <ele>897</ele>
      </trkpt>
      <trkpt lat="45.2232" lon="5.74013">
        <ele>899</ele>
      </trkpt>
      <trkpt lat="45.22326" lon="5.74016">
        <ele>900.2</ele>
      </trkpt>
      <trkpt lat="45.2234" lon="5.74022">
        <ele>902.3</ele>
      </trkpt>
      <trkpt lat="45.22349" lon="5.74029">
        <ele>902.9</ele>
      </trkpt>
      <trkpt lat="45.22356" lon="5.74035">
        <ele>903.2</ele>
      </trkpt>
      <trkpt lat="45.22363" lon="5.74041">
        <ele>903.5</ele>
      </trkpt>
      <trkpt lat="45.22371" lon="5.74049">
        <ele>903.3</ele>
      </trkpt>
      <trkpt lat="45.2238" lon="5.74059">
        <ele>903</ele>
      </trkpt>
      <trkpt lat="45.22388" lon="5.74067">
        <ele>902.8</ele>
      </trkpt>
      <trkpt lat="45.22392" lon="5.7407">
        <ele>902.9</ele>
      </trkpt>
      <trkpt lat="45.22393" lon="5.74073">
        <ele>902.5</ele>
      </trkpt>
      <trkpt lat="45.22393" lon="5.74074">
        <ele>902.2</ele>
      </trkpt>
      <trkpt lat="45.22398" lon="5.7408">
        <ele>901.8</ele>
      </trkpt>
      <trkpt lat="45.22404" lon="5.74087">
        <ele>901.3</ele>
      </trkpt>
      <trkpt lat="45.22412" lon="5.74096">
        <ele>900.4</ele>
      </trkpt>
      <trkpt lat="45.2242" lon="5.74107">
        <ele>898.6</ele>
      </trkpt>
      <trkpt lat="45.22433" lon="5.74128">
        <ele>894.3</ele>
      </trkpt>
      <trkpt lat="45.22447" lon="5.7415">
        <ele>891</ele>
      </trkpt>
      <trkpt lat="45.22459" lon="5.74166">
        <ele>889.6</ele>
      </trkpt>
      <trkpt lat="45.2247" lon="5.74182">
        <ele>887.8</ele>
      </trkpt>
      <trkpt lat="45.22475" lon="5.74187">
        <ele>887.2</ele>
      </trkpt>
      <trkpt lat="45.2248" lon="5.74192">
        <ele>886.9</ele>
      </trkpt>
      <trkpt lat="45.22492" lon="5.74202">
        <ele>887.1</ele>
      </trkpt>
      <trkpt lat="45.22501" lon="5.74209">
        <ele>887.5</ele>
      </trkpt>
      <trkpt lat="45.22511" lon="5.74217">
        <ele>886.2</ele>
      </trkpt>
      <trkpt lat="45.22519" lon="5.74223">
        <ele>885.4</ele>
      </trkpt>
      <trkpt lat="45.22527" lon="5.74228">
        <ele>884.8</ele>
      </trkpt>
      <trkpt lat="45.22534" lon="5.74233">
        <ele>884.3</ele>
      </trkpt>
      <trkpt lat="45.22541" lon="5.7424">
        <ele>883.4</ele>
      </trkpt>
      <trkpt lat="45.22552" lon="5.74245">
        <ele>883.4</ele>
      </trkpt>
      <trkpt lat="45.22557" lon="5.74248">
        <ele>883.5</ele>
      </trkpt>
      <trkpt lat="45.22562" lon="5.74249">
        <ele>883.9</ele>
      </trkpt>
      <trkpt lat="45.22568" lon="5.7425">
        <ele>884.8</ele>
      </trkpt>
      <trkpt lat="45.22573" lon="5.74251">
        <ele>884.8</ele>
      </trkpt>
      <trkpt lat="45.22583" lon="5.74255">
        <ele>884.6</ele>
      </trkpt>
      <trkpt lat="45.22614" lon="5.74267">
        <ele>878.1</ele>
      </trkpt>
      <trkpt lat="45.2265" lon="5.74277">
        <ele>873.2</ele>
      </trkpt>
      <trkpt lat="45.22664" lon="5.74282">
        <ele>871.8</ele>
      </trkpt>
      <trkpt lat="45.2268" lon="5.7429">
        <ele>871.4</ele>
      </trkpt>
      <trkpt lat="45.22694" lon="5.74301">
        <ele>870.2</ele>
      </trkpt>
      <trkpt lat="45.22707" lon="5.74316">
        <ele>867.4</ele>
      </trkpt>
      <trkpt lat="45.22725" lon="5.74327">
        <ele>866.2</ele>
      </trkpt>
      <trkpt lat="45.22736" lon="5.74333">
        <ele>865.9</ele>
      </trkpt>
      <trkpt lat="45.22747" lon="5.74342">
        <ele>863.7</ele>
      </trkpt>
      <trkpt lat="45.2276" lon="5.74355">
        <ele>859.8</ele>
      </trkpt>
      <trkpt lat="45.22779" lon="5.74366">
        <ele>858.3</ele>
      </trkpt>
      <trkpt lat="45.22806" lon="5.74384">
        <ele>855.2</ele>
      </trkpt>
      <trkpt lat="45.22827" lon="5.74399">
        <ele>853.5</ele>
      </trkpt>
      <trkpt lat="45.22834" lon="5.74405">
        <ele>852.9</ele>
      </trkpt>
      <trkpt lat="45.22844" lon="5.74409">
        <ele>854.4</ele>
      </trkpt>
      <trkpt lat="45.22851" lon="5.7441">
        <ele>855.9</ele>
      </trkpt>
      <trkpt lat="45.22856" lon="5.74414">
        <ele>856.3</ele>
      </trkpt>
      <trkpt lat="45.22866" lon="5.74425">
        <ele>854.8</ele>
      </trkpt>
      <trkpt lat="45.22875" lon="5.74433">
        <ele>854.3</ele>
      </trkpt>
      <trkpt lat="45.22895" lon="5.74453">
        <ele>852.8</ele>
      </trkpt>
      <trkpt lat="45.22911" lon="5.74467">
        <ele>852.9</ele>
      </trkpt>
      <trkpt lat="45.22921" lon="5.74475">
        <ele>853.3</ele>
      </trkpt>
      <trkpt lat="45.2293" lon="5.74484">
        <ele>852.8</ele>
      </trkpt>
      <trkpt lat="45.22947" lon="5.74501">
        <ele>851.5</ele>
      </trkpt>
      <trkpt lat="45.22958" lon="5.74514">
        <ele>848.7</ele>
      </trkpt>
      <trkpt lat="45.22972" lon="5.74531">
        <ele>844.4</ele>
      </trkpt>
      <trkpt lat="45.22986" lon="5.74546">
        <ele>841.8</ele>
      </trkpt>
      <trkpt lat="45.23" lon="5.74564">
        <ele>838.4</ele>
      </trkpt>
      <trkpt lat="45.2302" lon="5.74587">
        <ele>835.3</ele>
      </trkpt>
      <trkpt lat="45.23033" lon="5.74603">
        <ele>833.1</ele>
      </trkpt>
      <trkpt lat="45.23047" lon="5.74619">
        <ele>830.6</ele>
      </trkpt>
      <trkpt lat="45.23061" lon="5.74635">
        <ele>827</ele>
      </trkpt>
      <trkpt lat="45.23073" lon="5.74653">
        <ele>821.9</ele>
      </trkpt>
      <trkpt lat="45.23091" lon="5.74677">
        <ele>817.7</ele>
      </trkpt>
      <trkpt lat="45.2311" lon="5.74704">
        <ele>816</ele>
      </trkpt>
      <trkpt lat="45.23123" lon="5.74724">
        <ele>814</ele>
      </trkpt>
      <trkpt lat="45.23136" lon="5.74748">
        <ele>809.9</ele>
      </trkpt>
      <trkpt lat="45.23152" lon="5.74775">
        <ele>807.5</ele>
      </trkpt>
      <trkpt lat="45.2317" lon="5.74809">
        <ele>804.4</ele>
      </trkpt>
      <trkpt lat="45.23182" lon="5.74832">
        <ele>801.1</ele>
      </trkpt>
      <trkpt lat="45.2319" lon="5.74844">
        <ele>798.4</ele>
      </trkpt>
      <trkpt lat="45.23196" lon="5.74849">
        <ele>798</ele>
      </trkpt>
      <trkpt lat="45.23204" lon="5.74854">
        <ele>798.2</ele>
      </trkpt>
      <trkpt lat="45.23209" lon="5.74858">
        <ele>798.5</ele>
      </trkpt>
      <trkpt lat="45.23213" lon="5.74862">
        <ele>797.8</ele>
      </trkpt>
      <trkpt lat="45.23216" lon="5.74866">
        <ele>796.7</ele>
      </trkpt>
      <trkpt lat="45.23221" lon="5.74882">
        <ele>790.7</ele>
      </trkpt>
      <trkpt lat="45.23224" lon="5.7489">
        <ele>787.9</ele>
      </trkpt>
      <trkpt lat="45.23229" lon="5.74899">
        <ele>785.4</ele>
      </trkpt>
      <trkpt lat="45.23235" lon="5.74906">
        <ele>783.9</ele>
      </trkpt>
      <trkpt lat="45.23238" lon="5.74909">
        <ele>783.7</ele>
      </trkpt>
      <trkpt lat="45.23244" lon="5.74916">
        <ele>782.5</ele>
      </trkpt>
      <trkpt lat="45.23261" lon="5.74935">
        <ele>783</ele>
      </trkpt>
      <trkpt lat="45.23276" lon="5.74955">
        <ele>781.4</ele>
      </trkpt>
      <trkpt lat="45.23286" lon="5.74973">
        <ele>778.1</ele>
      </trkpt>
      <trkpt lat="45.23292" lon="5.74987">
        <ele>774.9</ele>
      </trkpt>
      <trkpt lat="45.23307" lon="5.75015">
        <ele>772.1</ele>
      </trkpt>
      <trkpt lat="45.23315" lon="5.7503">
        <ele>772.3</ele>
      </trkpt>
      <trkpt lat="45.23322" lon="5.75043">
        <ele>772.4</ele>
      </trkpt>
      <trkpt lat="45.23324" lon="5.75049">
        <ele>772.3</ele>
      </trkpt>
      <trkpt lat="45.23326" lon="5.75055">
        <ele>772.2</ele>
      </trkpt>
      <trkpt lat="45.23326" lon="5.75061">
        <ele>771.8</ele>
      </trkpt>
      <trkpt lat="45.23327" lon="5.75065">
        <ele>771.4</ele>
      </trkpt>
      <trkpt lat="45.23326" lon="5.7507">
        <ele>771</ele>
      </trkpt>
      <trkpt lat="45.23326" lon="5.75075">
        <ele>770.5</ele>
      </trkpt>
      <trkpt lat="45.23318" lon="5.75114">
        <ele>772.1</ele>
      </trkpt>
      <trkpt lat="45.23341" lon="5.7511">
        <ele>774.5</ele>
      </trkpt>
      <trkpt lat="45.23358" lon="5.75107">
        <ele>775.8</ele>
      </trkpt>
      <trkpt lat="45.23371" lon="5.75108">
        <ele>777.2</ele>
      </trkpt>
      <trkpt lat="45.23385" lon="5.75109">
        <ele>778.9</ele>
      </trkpt>
      <trkpt lat="45.23387" lon="5.75103">
        <ele>777.7</ele>
      </trkpt>
      <trkpt lat="45.23392" lon="5.75089">
        <ele>774.5</ele>
      </trkpt>
      <trkpt lat="45.23418" lon="5.75092">
        <ele>776.9</ele>
      </trkpt>
      <trkpt lat="45.2344" lon="5.75086">
        <ele>780.6</ele>
      </trkpt>
      <trkpt lat="45.23459" lon="5.75085">
        <ele>785.1</ele>
      </trkpt>
      <trkpt lat="45.23464" lon="5.75088">
        <ele>787.2</ele>
      </trkpt>
      <trkpt lat="45.23468" lon="5.7509">
        <ele>788.9</ele>
      </trkpt>
      <trkpt lat="45.23472" lon="5.75096">
        <ele>791.9</ele>
      </trkpt>
      <trkpt lat="45.23501" lon="5.75087">
        <ele>796.2</ele>
      </trkpt>
      <trkpt lat="45.23508" lon="5.75085">
        <ele>795.8</ele>
      </trkpt>
      <trkpt lat="45.23517" lon="5.75084">
        <ele>795.8</ele>
      </trkpt>
      <trkpt lat="45.23525" lon="5.75084">
        <ele>796</ele>
      </trkpt>
      <trkpt lat="45.23539" lon="5.75085">
        <ele>796.8</ele>
      </trkpt>
      <trkpt lat="45.23543" lon="5.75086">
        <ele>797.3</ele>
      </trkpt>
      <trkpt lat="45.23549" lon="5.75089">
        <ele>798.2</ele>
      </trkpt>
      <trkpt lat="45.23563" lon="5.75096">
        <ele>800.5</ele>
      </trkpt>
      <trkpt lat="45.23574" lon="5.75102">
        <ele>802.1</ele>
      </trkpt>
      <trkpt lat="45.23579" lon="5.75108">
        <ele>803.8</ele>
      </trkpt>
      <trkpt lat="45.23582" lon="5.75116">
        <ele>805.7</ele>
      </trkpt>
      <trkpt lat="45.23584" lon="5.75122">
        <ele>807.1</ele>
      </trkpt>
      <trkpt lat="45.23585" lon="5.7513">
        <ele>809</ele>
      </trkpt>
      <trkpt lat="45.23584" lon="5.75133">
        <ele>810</ele>
      </trkpt>
      <trkpt lat="45.23577" lon="5.75136">
        <ele>810.7</ele>
      </trkpt>
      <trkpt lat="45.23567" lon="5.7514">
        <ele>811.5</ele>
      </trkpt>
      <trkpt lat="45.23556" lon="5.75143">
        <ele>812.2</ele>
      </trkpt>
      <trkpt lat="45.23529" lon="5.75161">
        <ele>817.1</ele>
      </trkpt>
      <trkpt lat="45.2351" lon="5.75175">
        <ele>822</ele>
      </trkpt>
      <trkpt lat="45.23495" lon="5.75189">
        <ele>826.8</ele>
      </trkpt>
      <trkpt lat="45.23488" lon="5.75196">
        <ele>827.9</ele>
      </trkpt>
      <trkpt lat="45.23475" lon="5.7521">
        <ele>831</ele>
      </trkpt>
      <trkpt lat="45.23461" lon="5.75223">
        <ele>833.2</ele>
      </trkpt>
      <trkpt lat="45.23446" lon="5.75242">
        <ele>838.5</ele>
      </trkpt>
      <trkpt lat="45.23435" lon="5.75263">
        <ele>844.9</ele>
      </trkpt>
      <trkpt lat="45.23419" lon="5.7529">
        <ele>852.9</ele>
      </trkpt>
      <trkpt lat="45.23413" lon="5.75305">
        <ele>857.2</ele>
      </trkpt>
      <trkpt lat="45.23414" lon="5.75323">
        <ele>864.3</ele>
      </trkpt>
      <trkpt lat="45.23413" lon="5.75332">
        <ele>867.7</ele>
      </trkpt>
      <trkpt lat="45.23408" lon="5.75337">
        <ele>868.8</ele>
      </trkpt>
      <trkpt lat="45.23397" lon="5.7534">
        <ele>867.8</ele>
      </trkpt>
      <trkpt lat="45.23375" lon="5.75351">
        <ele>868.1</ele>
      </trkpt>
      <trkpt lat="45.23356" lon="5.75363">
        <ele>869.6</ele>
      </trkpt>
      <trkpt lat="45.23331" lon="5.75385">
        <ele>872.9</ele>
      </trkpt>
      <trkpt lat="45.23311" lon="5.7541">
        <ele>873.4</ele>
      </trkpt>
      <trkpt lat="45.2329" lon="5.75447">
        <ele>877</ele>
      </trkpt>
      <trkpt lat="45.23277" lon="5.75469">
        <ele>877</ele>
      </trkpt>
      <trkpt lat="45.23266" lon="5.75487">
        <ele>875.7</ele>
      </trkpt>
      <trkpt lat="45.23265" lon="5.7549">
        <ele>876</ele>
      </trkpt>
      <trkpt lat="45.23268" lon="5.75491">
        <ele>878.3</ele>
      </trkpt>
      <trkpt lat="45.23273" lon="5.7549">
        <ele>880.6</ele>
      </trkpt>
      <trkpt lat="45.23277" lon="5.75488">
        <ele>882.8</ele>
      </trkpt>
      <trkpt lat="45.23288" lon="5.75483">
        <ele>888.1</ele>
      </trkpt>
      <trkpt lat="45.23295" lon="5.75479">
        <ele>891.1</ele>
      </trkpt>
      <trkpt lat="45.23304" lon="5.75474">
        <ele>894.4</ele>
      </trkpt>
      <trkpt lat="45.23311" lon="5.75471">
        <ele>897.4</ele>
      </trkpt>
      <trkpt lat="45.23321" lon="5.75467">
        <ele>901.9</ele>
      </trkpt>
      <trkpt lat="45.2333" lon="5.75465">
        <ele>906.7</ele>
      </trkpt>
      <trkpt lat="45.23337" lon="5.75463">
        <ele>908.7</ele>
      </trkpt>
      <trkpt lat="45.23349" lon="5.75461">
        <ele>911.6</ele>
      </trkpt>
      <trkpt lat="45.23367" lon="5.75461">
        <ele>917.4</ele>
      </trkpt>
      <trkpt lat="45.23383" lon="5.75463">
        <ele>923.2</ele>
      </trkpt>
      <trkpt lat="45.23396" lon="5.75464">
        <ele>927.5</ele>
      </trkpt>
      <trkpt lat="45.23411" lon="5.75465">
        <ele>932.8</ele>
      </trkpt>
      <trkpt lat="45.23426" lon="5.75468">
        <ele>937.5</ele>
      </trkpt>
      <trkpt lat="45.23441" lon="5.7547">
        <ele>941.4</ele>
      </trkpt>
      <trkpt lat="45.23453" lon="5.75472">
        <ele>944.2</ele>
      </trkpt>
      <trkpt lat="45.23465" lon="5.75473">
        <ele>946.5</ele>
      </trkpt>
      <trkpt lat="45.23475" lon="5.75473">
        <ele>948.1</ele>
      </trkpt>
      <trkpt lat="45.23478" lon="5.75475">
        <ele>949.3</ele>
      </trkpt>
      <trkpt lat="45.23482" lon="5.75476">
        <ele>950.5</ele>
      </trkpt>
      <trkpt lat="45.23484" lon="5.75479">
        <ele>952.5</ele>
      </trkpt>
      <trkpt lat="45.23483" lon="5.75482">
        <ele>953.8</ele>
      </trkpt>
      <trkpt lat="45.2348" lon="5.75486">
        <ele>954.9</ele>
      </trkpt>
      <trkpt lat="45.23472" lon="5.75494">
        <ele>958</ele>
      </trkpt>
      <trkpt lat="45.23458" lon="5.755">
        <ele>959.3</ele>
      </trkpt>
      <trkpt lat="45.23444" lon="5.75503">
        <ele>959.7</ele>
      </trkpt>
      <trkpt lat="45.23428" lon="5.7551">
        <ele>961.6</ele>
      </trkpt>
      <trkpt lat="45.234" lon="5.75525">
        <ele>962.1</ele>
      </trkpt>
      <trkpt lat="45.23384" lon="5.75539">
        <ele>962.3</ele>
      </trkpt>
      <trkpt lat="45.23366" lon="5.75559">
        <ele>962.6</ele>
      </trkpt>
      <trkpt lat="45.23358" lon="5.75568">
        <ele>961.9</ele>
      </trkpt>
      <trkpt lat="45.23352" lon="5.75577">
        <ele>962.4</ele>
      </trkpt>
      <trkpt lat="45.23347" lon="5.75584">
        <ele>961.8</ele>
      </trkpt>
      <trkpt lat="45.23342" lon="5.7559">
        <ele>960.5</ele>
      </trkpt>
      <trkpt lat="45.23336" lon="5.75597">
        <ele>958.5</ele>
      </trkpt>
      <trkpt lat="45.23336" lon="5.756">
        <ele>959.1</ele>
      </trkpt>
      <trkpt lat="45.23337" lon="5.756">
        <ele>960.3</ele>
      </trkpt>
      <trkpt lat="45.23349" lon="5.75594">
        <ele>966.2</ele>
      </trkpt>
      <trkpt lat="45.23366" lon="5.75587">
        <ele>975.3</ele>
      </trkpt>
      <trkpt lat="45.2338" lon="5.75581">
        <ele>981.6</ele>
      </trkpt>
      <trkpt lat="45.2339" lon="5.75578">
        <ele>986.2</ele>
      </trkpt>
      <trkpt lat="45.23405" lon="5.75578">
        <ele>995</ele>
      </trkpt>
      <trkpt lat="45.23415" lon="5.7558">
        <ele>1003</ele>
      </trkpt>
      <trkpt lat="45.23424" lon="5.75582">
        <ele>1006.4</ele>
      </trkpt>
      <trkpt lat="45.23443" lon="5.75582">
        <ele>1009.8</ele>
      </trkpt>
      <trkpt lat="45.2347" lon="5.75585">
        <ele>1016.3</ele>
      </trkpt>
      <trkpt lat="45.23489" lon="5.75587">
        <ele>1021.2</ele>
      </trkpt>
      <trkpt lat="45.23497" lon="5.75588">
        <ele>1022.9</ele>
      </trkpt>
      <trkpt lat="45.23515" lon="5.75597">
        <ele>1030</ele>
      </trkpt>
      <trkpt lat="45.23521" lon="5.75596">
        <ele>1030.2</ele>
      </trkpt>
      <trkpt lat="45.2353" lon="5.75603">
        <ele>1035</ele>
      </trkpt>
      <trkpt lat="45.23527" lon="5.7561">
        <ele>1038.3</ele>
      </trkpt>
      <trkpt lat="45.23518" lon="5.75609">
        <ele>1036.7</ele>
      </trkpt>
      <trkpt lat="45.23501" lon="5.75617">
        <ele>1039</ele>
      </trkpt>
      <trkpt lat="45.23484" lon="5.75625">
        <ele>1040</ele>
      </trkpt>
      <trkpt lat="45.23464" lon="5.75626">
        <ele>1036.4</ele>
      </trkpt>
      <trkpt lat="45.23447" lon="5.75633">
        <ele>1036</ele>
      </trkpt>
      <trkpt lat="45.23428" lon="5.75649">
        <ele>1039.6</ele>
      </trkpt>
      <trkpt lat="45.23422" lon="5.75657">
        <ele>1042</ele>
      </trkpt>
      <trkpt lat="45.23412" lon="5.75678">
        <ele>1046.8</ele>
      </trkpt>
      <trkpt lat="45.23403" lon="5.75699">
        <ele>1051.5</ele>
      </trkpt>
      <trkpt lat="45.23398" lon="5.75718">
        <ele>1058.1</ele>
      </trkpt>
      <trkpt lat="45.23397" lon="5.75724">
        <ele>1060.6</ele>
      </trkpt>
      <trkpt lat="45.23397" lon="5.75727">
        <ele>1061.9</ele>
      </trkpt>
      <trkpt lat="45.23399" lon="5.75727">
        <ele>1063.3</ele>
      </trkpt>
      <trkpt lat="45.23402" lon="5.75723">
        <ele>1064.2</ele>
      </trkpt>
      <trkpt lat="45.23408" lon="5.75719">
        <ele>1065.6</ele>
      </trkpt>
      <trkpt lat="45.23417" lon="5.75709">
        <ele>1067.6</ele>
      </trkpt>
      <trkpt lat="45.23425" lon="5.75698">
        <ele>1064.1</ele>
      </trkpt>
      <trkpt lat="45.23429" lon="5.75696">
        <ele>1064.6</ele>
      </trkpt>
      <trkpt lat="45.23431" lon="5.75699">
        <ele>1066.7</ele>
      </trkpt>
      <trkpt lat="45.2343" lon="5.75701">
        <ele>1067.8</ele>
      </trkpt>
      <trkpt lat="45.23428" lon="5.75714">
        <ele>1074.1</ele>
      </trkpt>
      <trkpt lat="45.23423" lon="5.75733">
        <ele>1082.8</ele>
      </trkpt>
      <trkpt lat="45.23414" lon="5.75759">
        <ele>1090.9</ele>
      </trkpt>
      <trkpt lat="45.23406" lon="5.75775">
        <ele>1092.6</ele>
      </trkpt>
      <trkpt lat="45.23398" lon="5.75804">
        <ele>1101.5</ele>
      </trkpt>
      <trkpt lat="45.23393" lon="5.75824">
        <ele>1108.4</ele>
      </trkpt>
      <trkpt lat="45.23385" lon="5.75833">
        <ele>1109.6</ele>
      </trkpt>
      <trkpt lat="45.2337" lon="5.75842">
        <ele>1106.1</ele>
      </trkpt>
      <trkpt lat="45.23359" lon="5.75857">
        <ele>1105.1</ele>
      </trkpt>
      <trkpt lat="45.23354" lon="5.75872">
        <ele>1106.4</ele>
      </trkpt>
      <trkpt lat="45.23352" lon="5.75883">
        <ele>1108.1</ele>
      </trkpt>
      <trkpt lat="45.23354" lon="5.75895">
        <ele>1111.6</ele>
      </trkpt>
      <trkpt lat="45.23364" lon="5.75909">
        <ele>1119.4</ele>
      </trkpt>
      <trkpt lat="45.23372" lon="5.75925">
        <ele>1127.7</ele>
      </trkpt>
      <trkpt lat="45.23378" lon="5.75937">
        <ele>1134.6</ele>
      </trkpt>
      <trkpt lat="45.23381" lon="5.75937">
        <ele>1135.8</ele>
      </trkpt>
      <trkpt lat="45.23381" lon="5.75923">
        <ele>1131.1</ele>
      </trkpt>
      <trkpt lat="45.23382" lon="5.7591">
        <ele>1128.1</ele>
      </trkpt>
      <trkpt lat="45.23387" lon="5.759">
        <ele>1127.6</ele>
      </trkpt>
      <trkpt lat="45.23391" lon="5.75893">
        <ele>1128.1</ele>
      </trkpt>
      <trkpt lat="45.23399" lon="5.7589">
        <ele>1130.5</ele>
      </trkpt>
      <trkpt lat="45.23411" lon="5.7589">
        <ele>1136.1</ele>
      </trkpt>
      <trkpt lat="45.23422" lon="5.75886">
        <ele>1140.2</ele>
      </trkpt>
      <trkpt lat="45.23433" lon="5.75876">
        <ele>1142.8</ele>
      </trkpt>
      <trkpt lat="45.23444" lon="5.75863">
        <ele>1144.8</ele>
      </trkpt>
      <trkpt lat="45.23466" lon="5.75849">
        <ele>1151.3</ele>
      </trkpt>
      <trkpt lat="45.2349" lon="5.75833">
        <ele>1157.2</ele>
      </trkpt>
      <trkpt lat="45.23518" lon="5.75816">
        <ele>1165.2</ele>
      </trkpt>
      <trkpt lat="45.23551" lon="5.75804">
        <ele>1177.3</ele>
      </trkpt>
      <trkpt lat="45.23573" lon="5.75794">
        <ele>1184</ele>
      </trkpt>
      <trkpt lat="45.23585" lon="5.75791">
        <ele>1188.5</ele>
      </trkpt>
      <trkpt lat="45.23589" lon="5.75789">
        <ele>1188.4</ele>
      </trkpt>
      <trkpt lat="45.23597" lon="5.75794">
        <ele>1192.7</ele>
      </trkpt>
      <trkpt lat="45.23598" lon="5.758">
        <ele>1196.1</ele>
      </trkpt>
      <trkpt lat="45.23595" lon="5.75809">
        <ele>1199.9</ele>
      </trkpt>
      <trkpt lat="45.23587" lon="5.75825">
        <ele>1206</ele>
      </trkpt>
      <trkpt lat="45.23572" lon="5.7585">
        <ele>1208.6</ele>
      </trkpt>
      <trkpt lat="45.23561" lon="5.75871">
        <ele>1209.7</ele>
      </trkpt>
      <trkpt lat="45.2355" lon="5.75892">
        <ele>1211.4</ele>
      </trkpt>
      <trkpt lat="45.23542" lon="5.75915">
        <ele>1215.3</ele>
      </trkpt>
      <trkpt lat="45.23531" lon="5.75943">
        <ele>1219.2</ele>
      </trkpt>
      <trkpt lat="45.23523" lon="5.75962">
        <ele>1220.8</ele>
      </trkpt>
      <trkpt lat="45.23514" lon="5.75984">
        <ele>1222.4</ele>
      </trkpt>
      <trkpt lat="45.2351" lon="5.75999">
        <ele>1224.7</ele>
      </trkpt>
      <trkpt lat="45.23511" lon="5.76008">
        <ele>1232.1</ele>
      </trkpt>
      <trkpt lat="45.23519" lon="5.76006">
        <ele>1236</ele>
      </trkpt>
      <trkpt lat="45.23525" lon="5.76001">
        <ele>1236.8</ele>
      </trkpt>
      <trkpt lat="45.23528" lon="5.75999">
        <ele>1237.2</ele>
      </trkpt>
      <trkpt lat="45.23534" lon="5.75993">
        <ele>1239.3</ele>
      </trkpt>
      <trkpt lat="45.23539" lon="5.75987">
        <ele>1240.9</ele>
      </trkpt>
      <trkpt lat="45.23545" lon="5.75985">
        <ele>1244.1</ele>
      </trkpt>
      <trkpt lat="45.23569" lon="5.75968">
        <ele>1253.3</ele>
      </trkpt>
      <trkpt lat="45.23586" lon="5.7596">
        <ele>1259.2</ele>
      </trkpt>
      <trkpt lat="45.236" lon="5.75954">
        <ele>1259.4</ele>
      </trkpt>
      <trkpt lat="45.23613" lon="5.75948">
        <ele>1259.1</ele>
      </trkpt>
      <trkpt lat="45.2362" lon="5.75946">
        <ele>1260.2</ele>
      </trkpt>
      <trkpt lat="45.23624" lon="5.75949">
        <ele>1262.1</ele>
      </trkpt>
      <trkpt lat="45.23625" lon="5.75953">
        <ele>1263.9</ele>
      </trkpt>
      <trkpt lat="45.23622" lon="5.7596">
        <ele>1266.4</ele>
      </trkpt>
      <trkpt lat="45.23616" lon="5.75969">
        <ele>1269.4</ele>
      </trkpt>
      <trkpt lat="45.23611" lon="5.75976">
        <ele>1271.5</ele>
      </trkpt>
      <trkpt lat="45.23599" lon="5.75991">
        <ele>1275.8</ele>
      </trkpt>
      <trkpt lat="45.23588" lon="5.76008">
        <ele>1283.4</ele>
      </trkpt>
      <trkpt lat="45.2358" lon="5.7602">
        <ele>1290.1</ele>
      </trkpt>
      <trkpt lat="45.23572" lon="5.76032">
        <ele>1293.5</ele>
      </trkpt>
      <trkpt lat="45.23567" lon="5.76044">
        <ele>1299</ele>
      </trkpt>
      <trkpt lat="45.23564" lon="5.7605">
        <ele>1301.1</ele>
      </trkpt>
      <trkpt lat="45.23562" lon="5.76055">
        <ele>1303.3</ele>
      </trkpt>
      <trkpt lat="45.2356" lon="5.76058">
        <ele>1304.9</ele>
      </trkpt>
      <trkpt lat="45.23558" lon="5.76062">
        <ele>1306.3</ele>
      </trkpt>
      <trkpt lat="45.23555" lon="5.76066">
        <ele>1306.7</ele>
      </trkpt>
      <trkpt lat="45.23554" lon="5.76067">
        <ele>1307.6</ele>
      </trkpt>
      <trkpt lat="45.23555" lon="5.76069">
        <ele>1309</ele>
      </trkpt>
      <trkpt lat="45.23556" lon="5.7607">
        <ele>1310.6</ele>
      </trkpt>
      <trkpt lat="45.23557" lon="5.7607">
        <ele>1311.7</ele>
      </trkpt>
      <trkpt lat="45.23566" lon="5.76067">
        <ele>1315.7</ele>
      </trkpt>
      <trkpt lat="45.23574" lon="5.76064">
        <ele>1318.5</ele>
      </trkpt>
      <trkpt lat="45.23578" lon="5.76063">
        <ele>1321.1</ele>
      </trkpt>
      <trkpt lat="45.2358" lon="5.76063">
        <ele>1322.7</ele>
      </trkpt>
      <trkpt lat="45.23582" lon="5.76064">
        <ele>1324.3</ele>
      </trkpt>
      <trkpt lat="45.23582" lon="5.76067">
        <ele>1326.3</ele>
      </trkpt>
      <trkpt lat="45.23581" lon="5.76069">
        <ele>1327.4</ele>
      </trkpt>
      <trkpt lat="45.23573" lon="5.76079">
        <ele>1329.4</ele>
      </trkpt>
      <trkpt lat="45.23561" lon="5.76095">
        <ele>1325.4</ele>
      </trkpt>
      <trkpt lat="45.23549" lon="5.76106">
        <ele>1319.8</ele>
      </trkpt>
      <trkpt lat="45.23549" lon="5.76107">
        <ele>1319.7</ele>
      </trkpt>
      <trkpt lat="45.23549" lon="5.76108">
        <ele>1319.9</ele>
      </trkpt>
      <trkpt lat="45.2355" lon="5.76109">
        <ele>1320.5</ele>
      </trkpt>
      <trkpt lat="45.23552" lon="5.76109">
        <ele>1321.7</ele>
      </trkpt>
      <trkpt lat="45.23557" lon="5.76108">
        <ele>1324.4</ele>
      </trkpt>
      <trkpt lat="45.23562" lon="5.76106">
        <ele>1327.1</ele>
      </trkpt>
      <trkpt lat="45.23565" lon="5.76105">
        <ele>1328.7</ele>
      </trkpt>
      <trkpt lat="45.23568" lon="5.76105">
        <ele>1330.6</ele>
      </trkpt>
      <trkpt lat="45.23572" lon="5.76103">
        <ele>1332.6</ele>
      </trkpt>
      <trkpt lat="45.23574" lon="5.76101">
        <ele>1334.1</ele>
      </trkpt>
      <trkpt lat="45.23577" lon="5.76099">
        <ele>1335.6</ele>
      </trkpt>
      <trkpt lat="45.23579" lon="5.76098">
        <ele>1336.9</ele>
      </trkpt>
      <trkpt lat="45.23581" lon="5.76098">
        <ele>1338</ele>
      </trkpt>
      <trkpt lat="45.23581" lon="5.761">
        <ele>1338.4</ele>
      </trkpt>
      <trkpt lat="45.23581" lon="5.76101">
        <ele>1338.1</ele>
      </trkpt>
      <trkpt lat="45.23579" lon="5.76105">
        <ele>1336.8</ele>
      </trkpt>
      <trkpt lat="45.23577" lon="5.76107">
        <ele>1335.5</ele>
      </trkpt>
      <trkpt lat="45.23574" lon="5.7611">
        <ele>1334.1</ele>
      </trkpt>
      <trkpt lat="45.23563" lon="5.76119">
        <ele>1328.6</ele>
      </trkpt>
      <trkpt lat="45.23554" lon="5.76129">
        <ele>1325.4</ele>
      </trkpt>
      <trkpt lat="45.23548" lon="5.7613">
        <ele>1323.3</ele>
      </trkpt>
      <trkpt lat="45.23545" lon="5.76134">
        <ele>1322.5</ele>
      </trkpt>
      <trkpt lat="45.23542" lon="5.76135">
        <ele>1321.5</ele>
      </trkpt>
      <trkpt lat="45.23539" lon="5.76138">
        <ele>1320.8</ele>
      </trkpt>
      <trkpt lat="45.2354" lon="5.7614">
        <ele>1321.4</ele>
      </trkpt>
      <trkpt lat="45.23541" lon="5.76141">
        <ele>1321.9</ele>
      </trkpt>
      <trkpt lat="45.23547" lon="5.7614">
        <ele>1324.4</ele>
      </trkpt>
      <trkpt lat="45.23555" lon="5.76135">
        <ele>1327</ele>
      </trkpt>
      <trkpt lat="45.23557" lon="5.76135">
        <ele>1327.7</ele>
      </trkpt>
      <trkpt lat="45.23558" lon="5.76137">
        <ele>1328.2</ele>
      </trkpt>
      <trkpt lat="45.23554" lon="5.7614">
        <ele>1326.9</ele>
      </trkpt>
      <trkpt lat="45.23551" lon="5.76145">
        <ele>1326.6</ele>
      </trkpt>
      <trkpt lat="45.23548" lon="5.7615">
        <ele>1326.4</ele>
      </trkpt>
      <trkpt lat="45.23548" lon="5.76155">
        <ele>1327</ele>
      </trkpt>
      <trkpt lat="45.23552" lon="5.76159">
        <ele>1328.9</ele>
      </trkpt>
      <trkpt lat="45.23556" lon="5.7616">
        <ele>1330.2</ele>
      </trkpt>
      <trkpt lat="45.23556" lon="5.76162">
        <ele>1330.6</ele>
      </trkpt>
      <trkpt lat="45.23556" lon="5.76165">
        <ele>1330.9</ele>
      </trkpt>
      <trkpt lat="45.23559" lon="5.76168">
        <ele>1331.5</ele>
      </trkpt>
      <trkpt lat="45.23562" lon="5.76171">
        <ele>1331.9</ele>
      </trkpt>
      <trkpt lat="45.2358" lon="5.7619">
        <ele>1331.9</ele>
      </trkpt>
      <trkpt lat="45.23584" lon="5.76194">
        <ele>1331.4</ele>
      </trkpt>
      <trkpt lat="45.23584" lon="5.76202">
        <ele>1329.3</ele>
      </trkpt>
      <trkpt lat="45.23582" lon="5.76211">
        <ele>1327.1</ele>
      </trkpt>
      <trkpt lat="45.23577" lon="5.76217">
        <ele>1325.3</ele>
      </trkpt>
      <trkpt lat="45.23555" lon="5.76246">
        <ele>1318.9</ele>
      </trkpt>
      <trkpt lat="45.23533" lon="5.7626">
        <ele>1317</ele>
      </trkpt>
      <trkpt lat="45.23532" lon="5.76264">
        <ele>1316.5</ele>
      </trkpt>
      <trkpt lat="45.23539" lon="5.76303">
        <ele>1310.1</ele>
      </trkpt>
      <trkpt lat="45.23543" lon="5.76339">
        <ele>1304.8</ele>
      </trkpt>
      <trkpt lat="45.23543" lon="5.76342">
        <ele>1304.7</ele>
      </trkpt>
      <trkpt lat="45.23544" lon="5.76356">
        <ele>1304.2</ele>
      </trkpt>
      <trkpt lat="45.23544" lon="5.76373">
        <ele>1303.8</ele>
      </trkpt>
      <trkpt lat="45.23542" lon="5.76378">
        <ele>1303.6</ele>
      </trkpt>
      <trkpt lat="45.23535" lon="5.76386">
        <ele>1303.5</ele>
      </trkpt>
      <trkpt lat="45.23525" lon="5.76389">
        <ele>1303.5</ele>
      </trkpt>
      <trkpt lat="45.23518" lon="5.76395">
        <ele>1303.2</ele>
      </trkpt>
      <trkpt lat="45.23515" lon="5.764">
        <ele>1303</ele>
      </trkpt>
      <trkpt lat="45.23513" lon="5.76403">
        <ele>1302.8</ele>
      </trkpt>
      <trkpt lat="45.23506" lon="5.76406">
        <ele>1302.7</ele>
      </trkpt>
      <trkpt lat="45.23499" lon="5.76405">
        <ele>1299.8</ele>
      </trkpt>
      <trkpt lat="45.23507" lon="5.76442">
        <ele>1302</ele>
      </trkpt>
      <trkpt lat="45.23511" lon="5.7645">
        <ele>1302</ele>
      </trkpt>
      <trkpt lat="45.23517" lon="5.7646">
        <ele>1302</ele>
      </trkpt>
      <trkpt lat="45.2352" lon="5.76467">
        <ele>1301.9</ele>
      </trkpt>
      <trkpt lat="45.23522" lon="5.7647">
        <ele>1301.9</ele>
      </trkpt>
      <trkpt lat="45.23527" lon="5.7648">
        <ele>1301.8</ele>
      </trkpt>
      <trkpt lat="45.23533" lon="5.76505">
        <ele>1301.8</ele>
      </trkpt>
      <trkpt lat="45.23536" lon="5.76523">
        <ele>1302.5</ele>
      </trkpt>
      <trkpt lat="45.23535" lon="5.76542">
        <ele>1303.3</ele>
      </trkpt>
      <trkpt lat="45.23538" lon="5.76551">
        <ele>1303.6</ele>
      </trkpt>
      <trkpt lat="45.23541" lon="5.76552">
        <ele>1303.7</ele>
      </trkpt>
      <trkpt lat="45.23544" lon="5.76547">
        <ele>1303.5</ele>
      </trkpt>
      <trkpt lat="45.23552" lon="5.76511">
        <ele>1301.8</ele>
      </trkpt>
      <trkpt lat="45.23552" lon="5.76526">
        <ele>1302.5</ele>
      </trkpt>
      <trkpt lat="45.23552" lon="5.76548">
        <ele>1303.5</ele>
      </trkpt>
      <trkpt lat="45.23551" lon="5.76568">
        <ele>1304.3</ele>
      </trkpt>
      <trkpt lat="45.23544" lon="5.76592">
        <ele>1305.6</ele>
      </trkpt>
      <trkpt lat="45.23546" lon="5.76602">
        <ele>1306.3</ele>
      </trkpt>
      <trkpt lat="45.2355" lon="5.76607">
        <ele>1306.6</ele>
      </trkpt>
      <trkpt lat="45.23549" lon="5.76618">
        <ele>1307.4</ele>
      </trkpt>
      <trkpt lat="45.23565" lon="5.76662">
        <ele>1310.9</ele>
      </trkpt>
      <trkpt lat="45.23571" lon="5.76677">
        <ele>1310.2</ele>
      </trkpt>
      <trkpt lat="45.23574" lon="5.76686">
        <ele>1308.8</ele>
      </trkpt>
      <trkpt lat="45.23576" lon="5.76694">
        <ele>1307.6</ele>
      </trkpt>
      <trkpt lat="45.23581" lon="5.76708">
        <ele>1305.2</ele>
      </trkpt>
      <trkpt lat="45.23586" lon="5.76722">
        <ele>1302.5</ele>
      </trkpt>
      <trkpt lat="45.23588" lon="5.7673">
        <ele>1300.9</ele>
      </trkpt>
      <trkpt lat="45.23591" lon="5.76737">
        <ele>1299.6</ele>
      </trkpt>
      <trkpt lat="45.23598" lon="5.76761">
        <ele>1297</ele>
      </trkpt>
      <trkpt lat="45.23604" lon="5.76776">
        <ele>1296.3</ele>
      </trkpt>
      <trkpt lat="45.23606" lon="5.76787">
        <ele>1295.9</ele>
      </trkpt>
      <trkpt lat="45.2361" lon="5.76812">
        <ele>1295.2</ele>
      </trkpt>
      <trkpt lat="45.23617" lon="5.76844">
        <ele>1295.3</ele>
      </trkpt>
      <trkpt lat="45.23626" lon="5.76876">
        <ele>1297.1</ele>
      </trkpt>
      <trkpt lat="45.23633" lon="5.76896">
        <ele>1298.2</ele>
      </trkpt>
      <trkpt lat="45.23637" lon="5.76928">
        <ele>1300.3</ele>
      </trkpt>
      <trkpt lat="45.23645" lon="5.76952">
        <ele>1302.5</ele>
      </trkpt>
      <trkpt lat="45.2366" lon="5.7699">
        <ele>1306.6</ele>
      </trkpt>
      <trkpt lat="45.23672" lon="5.77028">
        <ele>1305</ele>
      </trkpt>
      <trkpt lat="45.23685" lon="5.77051">
        <ele>1302.1</ele>
      </trkpt>
      <trkpt lat="45.237" lon="5.77073">
        <ele>1300.4</ele>
      </trkpt>
      <trkpt lat="45.23712" lon="5.77093">
        <ele>1297.9</ele>
      </trkpt>
      <trkpt lat="45.23732" lon="5.77117">
        <ele>1297.5</ele>
      </trkpt>
      <trkpt lat="45.23741" lon="5.77132">
        <ele>1299.5</ele>
      </trkpt>
      <trkpt lat="45.23749" lon="5.7715">
        <ele>1303.3</ele>
      </trkpt>
      <trkpt lat="45.2377" lon="5.77169">
        <ele>1299</ele>
      </trkpt>
      <trkpt lat="45.23784" lon="5.77183">
        <ele>1281.3</ele>
      </trkpt>
      <trkpt lat="45.23794" lon="5.77197">
        <ele>1269.6</ele>
      </trkpt>
      <trkpt lat="45.23802" lon="5.77214">
        <ele>1260.9</ele>
      </trkpt>
      <trkpt lat="45.2382" lon="5.77251">
        <ele>1263.3</ele>
      </trkpt>
      <trkpt lat="45.23833" lon="5.77281">
        <ele>1223.8</ele>
      </trkpt>
      <trkpt lat="45.23844" lon="5.77301">
        <ele>1197.8</ele>
      </trkpt>
      <trkpt lat="45.23854" lon="5.77314">
        <ele>1191.5</ele>
      </trkpt>
      <trkpt lat="45.23866" lon="5.77324">
        <ele>1200.8</ele>
      </trkpt>
      <trkpt lat="45.23881" lon="5.7733">
        <ele>1228.2</ele>
      </trkpt>
      <trkpt lat="45.23884" lon="5.7734">
        <ele>1224.2</ele>
      </trkpt>
      <trkpt lat="45.23889" lon="5.77351">
        <ele>1221.4</ele>
      </trkpt>
      <trkpt lat="45.23894" lon="5.77362">
        <ele>1220.1</ele>
      </trkpt>
      <trkpt lat="45.23901" lon="5.77379">
        <ele>1220.4</ele>
      </trkpt>
      <trkpt lat="45.2391" lon="5.7739">
        <ele>1232.8</ele>
      </trkpt>
      <trkpt lat="45.23915" lon="5.77396">
        <ele>1241.3</ele>
      </trkpt>
      <trkpt lat="45.23927" lon="5.77403">
        <ele>1246.2</ele>
      </trkpt>
      <trkpt lat="45.23934" lon="5.77414">
        <ele>1242.2</ele>
      </trkpt>
      <trkpt lat="45.23938" lon="5.77423">
        <ele>1231.6</ele>
      </trkpt>
      <trkpt lat="45.23942" lon="5.77434">
        <ele>1215.6</ele>
      </trkpt>
      <trkpt lat="45.23948" lon="5.77453">
        <ele>1191.6</ele>
      </trkpt>
      <trkpt lat="45.23955" lon="5.77464">
        <ele>1187.8</ele>
      </trkpt>
      <trkpt lat="45.23963" lon="5.77477">
        <ele>1188.9</ele>
      </trkpt>
      <trkpt lat="45.23972" lon="5.77492">
        <ele>1195.1</ele>
      </trkpt>
      <trkpt lat="45.2398" lon="5.77509">
        <ele>1203.5</ele>
      </trkpt>
      <trkpt lat="45.23985" lon="5.77521">
        <ele>1206.5</ele>
      </trkpt>
      <trkpt lat="45.23996" lon="5.77536">
        <ele>1216.9</ele>
      </trkpt>
      <trkpt lat="45.24008" lon="5.77546">
        <ele>1222</ele>
      </trkpt>
      <trkpt lat="45.24016" lon="5.77555">
        <ele>1221.9</ele>
      </trkpt>
      <trkpt lat="45.24022" lon="5.77563">
        <ele>1222.9</ele>
      </trkpt>
      <trkpt lat="45.24032" lon="5.7757">
        <ele>1230.7</ele>
      </trkpt>
      <trkpt lat="45.24037" lon="5.77574">
        <ele>1235.6</ele>
      </trkpt>
      <trkpt lat="45.24045" lon="5.77577">
        <ele>1247.4</ele>
      </trkpt>
      <trkpt lat="45.24052" lon="5.77579">
        <ele>1257.9</ele>
      </trkpt>
      <trkpt lat="45.2406" lon="5.77589">
        <ele>1269.1</ele>
      </trkpt>
      <trkpt lat="45.24065" lon="5.77597">
        <ele>1277</ele>
      </trkpt>
      <trkpt lat="45.24067" lon="5.77604">
        <ele>1278.8</ele>
      </trkpt>
      <trkpt lat="45.24072" lon="5.77618">
        <ele>1282.9</ele>
      </trkpt>
      <trkpt lat="45.24077" lon="5.7763">
        <ele>1287</ele>
      </trkpt>
      <trkpt lat="45.24083" lon="5.7764">
        <ele>1292.6</ele>
      </trkpt>
      <trkpt lat="45.24094" lon="5.77652">
        <ele>1291.6</ele>
      </trkpt>
      <trkpt lat="45.24104" lon="5.77664">
        <ele>1291.8</ele>
      </trkpt>
      <trkpt lat="45.24116" lon="5.77676">
        <ele>1291.7</ele>
      </trkpt>
      <trkpt lat="45.24125" lon="5.77687">
        <ele>1292.6</ele>
      </trkpt>
      <trkpt lat="45.24135" lon="5.77698">
        <ele>1295.4</ele>
      </trkpt>
      <trkpt lat="45.24143" lon="5.77709">
        <ele>1298.7</ele>
      </trkpt>
      <trkpt lat="45.24151" lon="5.77719">
        <ele>1303.3</ele>
      </trkpt>
      <trkpt lat="45.24159" lon="5.77728">
        <ele>1309.3</ele>
      </trkpt>
      <trkpt lat="45.24165" lon="5.77743">
        <ele>1315</ele>
      </trkpt>
      <trkpt lat="45.24172" lon="5.77755">
        <ele>1313.8</ele>
      </trkpt>
      <trkpt lat="45.24178" lon="5.77764">
        <ele>1309.1</ele>
      </trkpt>
      <trkpt lat="45.24186" lon="5.77773">
        <ele>1306.1</ele>
      </trkpt>
      <trkpt lat="45.24194" lon="5.77786">
        <ele>1303.5</ele>
      </trkpt>
      <trkpt lat="45.242" lon="5.77795">
        <ele>1302.7</ele>
      </trkpt>
      <trkpt lat="45.24207" lon="5.77807">
        <ele>1302.9</ele>
      </trkpt>
      <trkpt lat="45.24213" lon="5.77816">
        <ele>1304.8</ele>
      </trkpt>
      <trkpt lat="45.2422" lon="5.77824">
        <ele>1309.1</ele>
      </trkpt>
      <trkpt lat="45.24227" lon="5.77835">
        <ele>1312.9</ele>
      </trkpt>
      <trkpt lat="45.24233" lon="5.77844">
        <ele>1313.8</ele>
      </trkpt>
      <trkpt lat="45.24238" lon="5.77851">
        <ele>1314.9</ele>
      </trkpt>
      <trkpt lat="45.24244" lon="5.77868">
        <ele>1313.2</ele>
      </trkpt>
      <trkpt lat="45.24253" lon="5.77878">
        <ele>1315.3</ele>
      </trkpt>
      <trkpt lat="45.2426" lon="5.77884">
        <ele>1314.1</ele>
      </trkpt>
      <trkpt lat="45.24268" lon="5.77894">
        <ele>1312.9</ele>
      </trkpt>
      <trkpt lat="45.24279" lon="5.77908">
        <ele>1313.1</ele>
      </trkpt>
      <trkpt lat="45.24287" lon="5.77918">
        <ele>1313.9</ele>
      </trkpt>
      <trkpt lat="45.24294" lon="5.77928">
        <ele>1312</ele>
      </trkpt>
      <trkpt lat="45.24304" lon="5.7794">
        <ele>1312.2</ele>
      </trkpt>
      <trkpt lat="45.24314" lon="5.77949">
        <ele>1316</ele>
      </trkpt>
      <trkpt lat="45.24324" lon="5.7795">
        <ele>1322.4</ele>
      </trkpt>
      <trkpt lat="45.24329" lon="5.77954">
        <ele>1325.5</ele>
      </trkpt>
      <trkpt lat="45.24343" lon="5.77968">
        <ele>1326.2</ele>
      </trkpt>
      <trkpt lat="45.24348" lon="5.77977">
        <ele>1325</ele>
      </trkpt>
      <trkpt lat="45.24351" lon="5.77992">
        <ele>1323.4</ele>
      </trkpt>
      <trkpt lat="45.24356" lon="5.78005">
        <ele>1320.1</ele>
      </trkpt>
      <trkpt lat="45.24364" lon="5.7802">
        <ele>1312.9</ele>
      </trkpt>
      <trkpt lat="45.24372" lon="5.78038">
        <ele>1306.5</ele>
      </trkpt>
      <trkpt lat="45.24376" lon="5.78047">
        <ele>1304.7</ele>
      </trkpt>
      <trkpt lat="45.24386" lon="5.78055">
        <ele>1307.1</ele>
      </trkpt>
      <trkpt lat="45.244" lon="5.78069">
        <ele>1312.4</ele>
      </trkpt>
      <trkpt lat="45.24422" lon="5.78086">
        <ele>1322</ele>
      </trkpt>
      <trkpt lat="45.24432" lon="5.78096">
        <ele>1316.1</ele>
      </trkpt>
      <trkpt lat="45.24453" lon="5.7811">
        <ele>1312.6</ele>
      </trkpt>
      <trkpt lat="45.24462" lon="5.7813">
        <ele>1309.7</ele>
      </trkpt>
      <trkpt lat="45.24475" lon="5.78153">
        <ele>1312.1</ele>
      </trkpt>
      <trkpt lat="45.24487" lon="5.78177">
        <ele>1316.4</ele>
      </trkpt>
      <trkpt lat="45.245" lon="5.78202">
        <ele>1319.5</ele>
      </trkpt>
      <trkpt lat="45.24513" lon="5.78228">
        <ele>1315.2</ele>
      </trkpt>
      <trkpt lat="45.24528" lon="5.78258">
        <ele>1313.9</ele>
      </trkpt>
      <trkpt lat="45.24534" lon="5.7827">
        <ele>1313.3</ele>
      </trkpt>
      <trkpt lat="45.24545" lon="5.7828">
        <ele>1315.5</ele>
      </trkpt>
      <trkpt lat="45.24553" lon="5.78288">
        <ele>1317.7</ele>
      </trkpt>
      <trkpt lat="45.24559" lon="5.78295">
        <ele>1319.4</ele>
      </trkpt>
      <trkpt lat="45.24571" lon="5.78318">
        <ele>1323.8</ele>
      </trkpt>
      <trkpt lat="45.2458" lon="5.78335">
        <ele>1327.1</ele>
      </trkpt>
      <trkpt lat="45.24586" lon="5.78346">
        <ele>1319.7</ele>
      </trkpt>
      <trkpt lat="45.24595" lon="5.78357">
        <ele>1311.9</ele>
      </trkpt>
      <trkpt lat="45.24601" lon="5.78363">
        <ele>1308.8</ele>
      </trkpt>
      <trkpt lat="45.24608" lon="5.78369">
        <ele>1307.2</ele>
      </trkpt>
      <trkpt lat="45.24617" lon="5.78376">
        <ele>1306.8</ele>
      </trkpt>
      <trkpt lat="45.24625" lon="5.78383">
        <ele>1307.4</ele>
      </trkpt>
      <trkpt lat="45.24635" lon="5.78391">
        <ele>1310.2</ele>
      </trkpt>
      <trkpt lat="45.24648" lon="5.78399">
        <ele>1316.8</ele>
      </trkpt>
      <trkpt lat="45.24657" lon="5.78403">
        <ele>1322.7</ele>
      </trkpt>
      <trkpt lat="45.2466" lon="5.78405">
        <ele>1324.5</ele>
      </trkpt>
      <trkpt lat="45.24663" lon="5.78406">
        <ele>1327</ele>
      </trkpt>
      <trkpt lat="45.24671" lon="5.78403">
        <ele>1330</ele>
      </trkpt>
      <trkpt lat="45.24677" lon="5.78403">
        <ele>1329.2</ele>
      </trkpt>
      <trkpt lat="45.24682" lon="5.78403">
        <ele>1328.5</ele>
      </trkpt>
      <trkpt lat="45.24692" lon="5.78407">
        <ele>1327.1</ele>
      </trkpt>
      <trkpt lat="45.24698" lon="5.78408">
        <ele>1326.4</ele>
      </trkpt>
      <trkpt lat="45.24706" lon="5.78407">
        <ele>1325.4</ele>
      </trkpt>
      <trkpt lat="45.24714" lon="5.78406">
        <ele>1324.3</ele>
      </trkpt>
      <trkpt lat="45.24719" lon="5.78405">
        <ele>1323.6</ele>
      </trkpt>
      <trkpt lat="45.24727" lon="5.78406">
        <ele>1322.6</ele>
      </trkpt>
      <trkpt lat="45.24736" lon="5.78402">
        <ele>1321.1</ele>
      </trkpt>
      <trkpt lat="45.24743" lon="5.78402">
        <ele>1320.2</ele>
      </trkpt>
      <trkpt lat="45.24749" lon="5.78405">
        <ele>1319.7</ele>
      </trkpt>
      <trkpt lat="45.24757" lon="5.78413">
        <ele>1319.2</ele>
      </trkpt>
      <trkpt lat="45.24768" lon="5.78428">
        <ele>1318.1</ele>
      </trkpt>
      <trkpt lat="45.24772" lon="5.78436">
        <ele>1318</ele>
      </trkpt>
      <trkpt lat="45.24783" lon="5.78459">
        <ele>1318.3</ele>
      </trkpt>
      <trkpt lat="45.24792" lon="5.78477">
        <ele>1319.5</ele>
      </trkpt>
      <trkpt lat="45.24808" lon="5.78471">
        <ele>1318</ele>
      </trkpt>
      <trkpt lat="45.24817" lon="5.78463">
        <ele>1316.2</ele>
      </trkpt>
      <trkpt lat="45.24828" lon="5.78452">
        <ele>1313.1</ele>
      </trkpt>
      <trkpt lat="45.24835" lon="5.78444">
        <ele>1310.5</ele>
      </trkpt>
      <trkpt lat="45.24841" lon="5.78437">
        <ele>1306.8</ele>
      </trkpt>
      <trkpt lat="45.24847" lon="5.78425">
        <ele>1302.3</ele>
      </trkpt>
      <trkpt lat="45.24852" lon="5.7841">
        <ele>1296.8</ele>
      </trkpt>
      <trkpt lat="45.24862" lon="5.78413">
        <ele>1294.4</ele>
      </trkpt>
      <trkpt lat="45.24885" lon="5.78423">
        <ele>1289.3</ele>
      </trkpt>
      <trkpt lat="45.2491" lon="5.78434">
        <ele>1283.9</ele>
      </trkpt>
      <trkpt lat="45.24929" lon="5.78441">
        <ele>1279.6</ele>
      </trkpt>
      <trkpt lat="45.24943" lon="5.78448">
        <ele>1276.7</ele>
      </trkpt>
      <trkpt lat="45.24954" lon="5.78451">
        <ele>1273.9</ele>
      </trkpt>
      <trkpt lat="45.24969" lon="5.78454">
        <ele>1269.2</ele>
      </trkpt>
      <trkpt lat="45.2498" lon="5.78455">
        <ele>1265.6</ele>
      </trkpt>
      <trkpt lat="45.24988" lon="5.78461">
        <ele>1264.6</ele>
      </trkpt>
      <trkpt lat="45.25001" lon="5.78475">
        <ele>1263.8</ele>
      </trkpt>
      <trkpt lat="45.2501" lon="5.78484">
        <ele>1263.3</ele>
      </trkpt>
      <trkpt lat="45.25017" lon="5.78491">
        <ele>1263.3</ele>
      </trkpt>
      <trkpt lat="45.25028" lon="5.78504">
        <ele>1263.5</ele>
      </trkpt>
      <trkpt lat="45.2504" lon="5.78513">
        <ele>1262.3</ele>
      </trkpt>
      <trkpt lat="45.2505" lon="5.78516">
        <ele>1259.9</ele>
      </trkpt>
      <trkpt lat="45.25059" lon="5.7852">
        <ele>1258.8</ele>
      </trkpt>
      <trkpt lat="45.25077" lon="5.78528">
        <ele>1255.8</ele>
      </trkpt>
      <trkpt lat="45.2509" lon="5.78533">
        <ele>1253.9</ele>
      </trkpt>
      <trkpt lat="45.25103" lon="5.78536">
        <ele>1252.1</ele>
      </trkpt>
      <trkpt lat="45.25113" lon="5.78538">
        <ele>1250.7</ele>
      </trkpt>
      <trkpt lat="45.25122" lon="5.7854">
        <ele>1249.1</ele>
      </trkpt>
      <trkpt lat="45.25136" lon="5.78543">
        <ele>1246.8</ele>
      </trkpt>
      <trkpt lat="45.25147" lon="5.78547">
        <ele>1245.8</ele>
      </trkpt>
      <trkpt lat="45.25159" lon="5.78552">
        <ele>1244.4</ele>
      </trkpt>
      <trkpt lat="45.25174" lon="5.78556">
        <ele>1242.4</ele>
      </trkpt>
      <trkpt lat="45.25189" lon="5.78559">
        <ele>1239.3</ele>
      </trkpt>
      <trkpt lat="45.25195" lon="5.78559">
        <ele>1237.7</ele>
      </trkpt>
      <trkpt lat="45.25201" lon="5.78559">
        <ele>1236.2</ele>
      </trkpt>
      <trkpt lat="45.25206" lon="5.78557">
        <ele>1234.2</ele>
      </trkpt>
      <trkpt lat="45.25222" lon="5.78553">
        <ele>1228.9</ele>
      </trkpt>
      <trkpt lat="45.2523" lon="5.78551">
        <ele>1226.4</ele>
      </trkpt>
      <trkpt lat="45.2524" lon="5.78551">
        <ele>1223.8</ele>
      </trkpt>
      <trkpt lat="45.2525" lon="5.78554">
        <ele>1221.8</ele>
      </trkpt>
      <trkpt lat="45.25257" lon="5.78558">
        <ele>1221.1</ele>
      </trkpt>
      <trkpt lat="45.25262" lon="5.78559">
        <ele>1220.2</ele>
      </trkpt>
      <trkpt lat="45.25265" lon="5.78555">
        <ele>1218.5</ele>
      </trkpt>
      <trkpt lat="45.25266" lon="5.7855">
        <ele>1216.9</ele>
      </trkpt>
      <trkpt lat="45.25265" lon="5.78543">
        <ele>1215.2</ele>
      </trkpt>
      <trkpt lat="45.25263" lon="5.78532">
        <ele>1212.9</ele>
      </trkpt>
      <trkpt lat="45.25261" lon="5.78521">
        <ele>1210.6</ele>
      </trkpt>
      <trkpt lat="45.25256" lon="5.78502">
        <ele>1206.5</ele>
      </trkpt>
      <trkpt lat="45.25253" lon="5.78488">
        <ele>1203.6</ele>
      </trkpt>
      <trkpt lat="45.25252" lon="5.78481">
        <ele>1202</ele>
      </trkpt>
      <trkpt lat="45.25253" lon="5.78475">
        <ele>1200.3</ele>
      </trkpt>
      <trkpt lat="45.25257" lon="5.78474">
        <ele>1199.4</ele>
      </trkpt>
      <trkpt lat="45.25268" lon="5.78474">
        <ele>1197.9</ele>
      </trkpt>
      <trkpt lat="45.25279" lon="5.78475">
        <ele>1196.4</ele>
      </trkpt>
      <trkpt lat="45.25282" lon="5.78473">
        <ele>1195.3</ele>
      </trkpt>
      <trkpt lat="45.25284" lon="5.78468">
        <ele>1194.1</ele>
      </trkpt>
      <trkpt lat="45.25284" lon="5.78462">
        <ele>1192.6</ele>
      </trkpt>
      <trkpt lat="45.25283" lon="5.78455">
        <ele>1191.2</ele>
      </trkpt>
      <trkpt lat="45.2528" lon="5.78445">
        <ele>1189.1</ele>
      </trkpt>
      <trkpt lat="45.25276" lon="5.78431">
        <ele>1186.5</ele>
      </trkpt>
      <trkpt lat="45.25272" lon="5.78418">
        <ele>1184</ele>
      </trkpt>
      <trkpt lat="45.25266" lon="5.78393">
        <ele>1178.5</ele>
      </trkpt>
      <trkpt lat="45.25262" lon="5.78376">
        <ele>1174.7</ele>
      </trkpt>
      <trkpt lat="45.25261" lon="5.78366">
        <ele>1172.2</ele>
      </trkpt>
      <trkpt lat="45.25261" lon="5.78362">
        <ele>1171.2</ele>
      </trkpt>
      <trkpt lat="45.25265" lon="5.7836">
        <ele>1170.2</ele>
      </trkpt>
      <trkpt lat="45.25273" lon="5.78354">
        <ele>1168</ele>
      </trkpt>
      <trkpt lat="45.25289" lon="5.78347">
        <ele>1164.9</ele>
      </trkpt>
      <trkpt lat="45.25302" lon="5.78342">
        <ele>1162.7</ele>
      </trkpt>
      <trkpt lat="45.25304" lon="5.7834">
        <ele>1162</ele>
      </trkpt>
      <trkpt lat="45.25307" lon="5.78337">
        <ele>1161</ele>
      </trkpt>
      <trkpt lat="45.25306" lon="5.78331">
        <ele>1159.7</ele>
      </trkpt>
      <trkpt lat="45.253" lon="5.78319">
        <ele>1156.9</ele>
      </trkpt>
      <trkpt lat="45.2529" lon="5.78296">
        <ele>1151.5</ele>
      </trkpt>
      <trkpt lat="45.25282" lon="5.78274">
        <ele>1146.5</ele>
      </trkpt>
      <trkpt lat="45.25275" lon="5.78252">
        <ele>1141.6</ele>
      </trkpt>
      <trkpt lat="45.25269" lon="5.78234">
        <ele>1137.2</ele>
      </trkpt>
      <trkpt lat="45.25266" lon="5.7822">
        <ele>1133.8</ele>
      </trkpt>
      <trkpt lat="45.25264" lon="5.7821">
        <ele>1131.3</ele>
      </trkpt>
      <trkpt lat="45.25263" lon="5.78201">
        <ele>1128.8</ele>
      </trkpt>
      <trkpt lat="45.25264" lon="5.78191">
        <ele>1126.2</ele>
      </trkpt>
      <trkpt lat="45.25266" lon="5.78179">
        <ele>1122.6</ele>
      </trkpt>
      <trkpt lat="45.25268" lon="5.78165">
        <ele>1118.9</ele>
      </trkpt>
      <trkpt lat="45.2527" lon="5.78157">
        <ele>1117.8</ele>
      </trkpt>
      <trkpt lat="45.25273" lon="5.7815">
        <ele>1116.6</ele>
      </trkpt>
      <trkpt lat="45.25277" lon="5.78144">
        <ele>1115.3</ele>
      </trkpt>
      <trkpt lat="45.25281" lon="5.78139">
        <ele>1114.1</ele>
      </trkpt>
      <trkpt lat="45.25296" lon="5.7813">
        <ele>1110.5</ele>
      </trkpt>
      <trkpt lat="45.25308" lon="5.78124">
        <ele>1107.5</ele>
      </trkpt>
      <trkpt lat="45.25321" lon="5.78119">
        <ele>1104.6</ele>
      </trkpt>
      <trkpt lat="45.2534" lon="5.78115">
        <ele>1100.2</ele>
      </trkpt>
      <trkpt lat="45.25355" lon="5.78108">
        <ele>1095.4</ele>
      </trkpt>
      <trkpt lat="45.25415" lon="5.78086">
        <ele>1077.9</ele>
      </trkpt>
      <trkpt lat="45.25433" lon="5.78088">
        <ele>1072.8</ele>
      </trkpt>
      <trkpt lat="45.25453" lon="5.78103">
        <ele>1069.4</ele>
      </trkpt>
      <trkpt lat="45.25486" lon="5.78127">
        <ele>1063.8</ele>
      </trkpt>
      <trkpt lat="45.25506" lon="5.78133">
        <ele>1059.3</ele>
      </trkpt>
      <trkpt lat="45.25522" lon="5.78128">
        <ele>1055.2</ele>
      </trkpt>
      <trkpt lat="45.25528" lon="5.78118">
        <ele>1051.8</ele>
      </trkpt>
      <trkpt lat="45.25526" lon="5.7811">
        <ele>1050.4</ele>
      </trkpt>
      <trkpt lat="45.25496" lon="5.78052">
        <ele>1044.2</ele>
      </trkpt>
      <trkpt lat="45.25491" lon="5.7804">
        <ele>1042.7</ele>
      </trkpt>
      <trkpt lat="45.25499" lon="5.78028">
        <ele>1037.7</ele>
      </trkpt>
      <trkpt lat="45.25549" lon="5.7807">
        <ele>1038.2</ele>
      </trkpt>
      <trkpt lat="45.25567" lon="5.78081">
        <ele>1036.7</ele>
      </trkpt>
      <trkpt lat="45.25584" lon="5.78088">
        <ele>1034.8</ele>
      </trkpt>
      <trkpt lat="45.25621" lon="5.78117">
        <ele>1026.8</ele>
      </trkpt>
      <trkpt lat="45.25637" lon="5.78126">
        <ele>1022.3</ele>
      </trkpt>
      <trkpt lat="45.25648" lon="5.78125">
        <ele>1018.4</ele>
      </trkpt>
      <trkpt lat="45.2568" lon="5.78136">
        <ele>1011.2</ele>
      </trkpt>
      <trkpt lat="45.2569" lon="5.78141">
        <ele>1010.3</ele>
      </trkpt>
      <trkpt lat="45.25698" lon="5.78124">
        <ele>1006.7</ele>
      </trkpt>
      <trkpt lat="45.25712" lon="5.78115">
        <ele>1003.7</ele>
      </trkpt>
      <trkpt lat="45.25727" lon="5.78102">
        <ele>1000.5</ele>
      </trkpt>
      <trkpt lat="45.25733" lon="5.78092">
        <ele>999</ele>
      </trkpt>
      <trkpt lat="45.25734" lon="5.78082">
        <ele>998.3</ele>
      </trkpt>
      <trkpt lat="45.25736" lon="5.78078">
        <ele>998</ele>
      </trkpt>
      <trkpt lat="45.25738" lon="5.78073">
        <ele>997.7</ele>
      </trkpt>
      <trkpt lat="45.25749" lon="5.78052">
        <ele>996.7</ele>
      </trkpt>
      <trkpt lat="45.25761" lon="5.78036">
        <ele>997.9</ele>
      </trkpt>
      <trkpt lat="45.25769" lon="5.78019">
        <ele>999.1</ele>
      </trkpt>
      <trkpt lat="45.2577" lon="5.78013">
        <ele>999.1</ele>
      </trkpt>
      <trkpt lat="45.25775" lon="5.78002">
        <ele>999.8</ele>
      </trkpt>
      <trkpt lat="45.25777" lon="5.77994">
        <ele>1000.1</ele>
      </trkpt>
      <trkpt lat="45.25794" lon="5.77942">
        <ele>1000.6</ele>
      </trkpt>
      <trkpt lat="45.2581" lon="5.77924">
        <ele>1001.8</ele>
      </trkpt>
      <trkpt lat="45.25846" lon="5.77916">
        <ele>1004.7</ele>
      </trkpt>
      <trkpt lat="45.25849" lon="5.77915">
        <ele>1004.9</ele>
      </trkpt>
      <trkpt lat="45.25866" lon="5.77909">
        <ele>1005.8</ele>
      </trkpt>
      <trkpt lat="45.25876" lon="5.779">
        <ele>1006.3</ele>
      </trkpt>
      <trkpt lat="45.25899" lon="5.77861">
        <ele>1007.5</ele>
      </trkpt>
      <trkpt lat="45.25914" lon="5.77848">
        <ele>1008.7</ele>
      </trkpt>
      <trkpt lat="45.2593" lon="5.77832">
        <ele>1008.9</ele>
      </trkpt>
      <trkpt lat="45.25943" lon="5.77854">
        <ele>1009.8</ele>
      </trkpt>
      <trkpt lat="45.25951" lon="5.77867">
        <ele>1010.6</ele>
      </trkpt>
      <trkpt lat="45.25952" lon="5.77869">
        <ele>1010.8</ele>
      </trkpt>
      <trkpt lat="45.25976" lon="5.77911">
        <ele>1015.6</ele>
      </trkpt>
      <trkpt lat="45.2599" lon="5.7793">
        <ele>1019.4</ele>
      </trkpt>
      <trkpt lat="45.26018" lon="5.77965">
        <ele>1027.7</ele>
      </trkpt>
      <trkpt lat="45.26047" lon="5.77992">
        <ele>1036.1</ele>
      </trkpt>
      <trkpt lat="45.26071" lon="5.78015">
        <ele>1041.8</ele>
      </trkpt>
      <trkpt lat="45.26092" lon="5.7804">
        <ele>1046.3</ele>
      </trkpt>
      <trkpt lat="45.26115" lon="5.78077">
        <ele>1050.7</ele>
      </trkpt>
      <trkpt lat="45.2613" lon="5.78111">
        <ele>1053.2</ele>
      </trkpt>
      <trkpt lat="45.26136" lon="5.78121">
        <ele>1054.3</ele>
      </trkpt>
      <trkpt lat="45.26143" lon="5.7813">
        <ele>1055.5</ele>
      </trkpt>
      <trkpt lat="45.26163" lon="5.78139">
        <ele>1058.8</ele>
      </trkpt>
      <trkpt lat="45.26181" lon="5.78155">
        <ele>1062.1</ele>
      </trkpt>
      <trkpt lat="45.26194" lon="5.78172">
        <ele>1065</ele>
      </trkpt>
      <trkpt lat="45.26209" lon="5.78187">
        <ele>1067.3</ele>
      </trkpt>
      <trkpt lat="45.26223" lon="5.78193">
        <ele>1069.6</ele>
      </trkpt>
      <trkpt lat="45.26357" lon="5.78279">
        <ele>1094.2</ele>
      </trkpt>
      <trkpt lat="45.2645" lon="5.78342">
        <ele>1105.9</ele>
      </trkpt>
      <trkpt lat="45.26457" lon="5.78352">
        <ele>1107</ele>
      </trkpt>
      <trkpt lat="45.26492" lon="5.78408">
        <ele>1119</ele>
      </trkpt>
      <trkpt lat="45.26528" lon="5.78467">
        <ele>1127.4</ele>
      </trkpt>
      <trkpt lat="45.26544" lon="5.7848">
        <ele>1130.4</ele>
      </trkpt>
      <trkpt lat="45.26548" lon="5.78475">
        <ele>1130.1</ele>
      </trkpt>
      <trkpt lat="45.26558" lon="5.78481">
        <ele>1131.9</ele>
      </trkpt>
      <trkpt lat="45.26569" lon="5.78484">
        <ele>1133.5</ele>
      </trkpt>
      <trkpt lat="45.26581" lon="5.7849">
        <ele>1135.8</ele>
      </trkpt>
      <trkpt lat="45.26611" lon="5.78534">
        <ele>1143.8</ele>
      </trkpt>
      <trkpt lat="45.2662" lon="5.78543">
        <ele>1146.2</ele>
      </trkpt>
      <trkpt lat="45.26636" lon="5.78555">
        <ele>1150.6</ele>
      </trkpt>
      <trkpt lat="45.26664" lon="5.78583">
        <ele>1162.4</ele>
      </trkpt>
      <trkpt lat="45.2669" lon="5.78605">
        <ele>1163.8</ele>
      </trkpt>
      <trkpt lat="45.26722" lon="5.78633">
        <ele>1169.1</ele>
      </trkpt>
      <trkpt lat="45.26739" lon="5.78643">
        <ele>1172.8</ele>
      </trkpt>
      <trkpt lat="45.26753" lon="5.78652">
        <ele>1176.5</ele>
      </trkpt>
      <trkpt lat="45.26764" lon="5.78659">
        <ele>1179.1</ele>
      </trkpt>
      <trkpt lat="45.2681" lon="5.78698">
        <ele>1187.6</ele>
      </trkpt>
      <trkpt lat="45.26813" lon="5.787">
        <ele>1188.3</ele>
      </trkpt>
      <trkpt lat="45.26821" lon="5.78705">
        <ele>1189.8</ele>
      </trkpt>
      <trkpt lat="45.26831" lon="5.7871">
        <ele>1191.9</ele>
      </trkpt>
      <trkpt lat="45.26854" lon="5.7872">
        <ele>1197.8</ele>
      </trkpt>
      <trkpt lat="45.26882" lon="5.78736">
        <ele>1207.4</ele>
      </trkpt>
      <trkpt lat="45.26895" lon="5.78744">
        <ele>1212.5</ele>
      </trkpt>
      <trkpt lat="45.26924" lon="5.78762">
        <ele>1220.9</ele>
      </trkpt>
      <trkpt lat="45.26936" lon="5.78765">
        <ele>1222.7</ele>
      </trkpt>
      <trkpt lat="45.26945" lon="5.78764">
        <ele>1224.2</ele>
      </trkpt>
      <trkpt lat="45.26959" lon="5.78762">
        <ele>1226.5</ele>
      </trkpt>
      <trkpt lat="45.26971" lon="5.78765">
        <ele>1228.6</ele>
      </trkpt>
      <trkpt lat="45.26984" lon="5.78778">
        <ele>1231.5</ele>
      </trkpt>
      <trkpt lat="45.26995" lon="5.78787">
        <ele>1234.2</ele>
      </trkpt>
      <trkpt lat="45.27008" lon="5.788">
        <ele>1237.4</ele>
      </trkpt>
      <trkpt lat="45.27021" lon="5.7881">
        <ele>1240.5</ele>
      </trkpt>
      <trkpt lat="45.27037" lon="5.78829">
        <ele>1245.9</ele>
      </trkpt>
      <trkpt lat="45.27049" lon="5.7884">
        <ele>1249.2</ele>
      </trkpt>
      <trkpt lat="45.27058" lon="5.78851">
        <ele>1251.3</ele>
      </trkpt>
      <trkpt lat="45.27067" lon="5.78853">
        <ele>1253.2</ele>
      </trkpt>
      <trkpt lat="45.27077" lon="5.78854">
        <ele>1255.1</ele>
      </trkpt>
      <trkpt lat="45.27101" lon="5.78861">
        <ele>1260.5</ele>
      </trkpt>
      <trkpt lat="45.27126" lon="5.7887">
        <ele>1266.8</ele>
      </trkpt>
      <trkpt lat="45.27143" lon="5.78876">
        <ele>1271.3</ele>
      </trkpt>
      <trkpt lat="45.27156" lon="5.78891">
        <ele>1275.5</ele>
      </trkpt>
      <trkpt lat="45.2717" lon="5.78895">
        <ele>1279.5</ele>
      </trkpt>
      <trkpt lat="45.27184" lon="5.78898">
        <ele>1283.8</ele>
      </trkpt>
      <trkpt lat="45.27214" lon="5.78882">
        <ele>1292</ele>
      </trkpt>
      <trkpt lat="45.27227" lon="5.78877">
        <ele>1296</ele>
      </trkpt>
      <trkpt lat="45.27235" lon="5.78874">
        <ele>1298.4</ele>
      </trkpt>
      <trkpt lat="45.27244" lon="5.7887">
        <ele>1301.1</ele>
      </trkpt>
      <trkpt lat="45.27267" lon="5.78872">
        <ele>1306.8</ele>
      </trkpt>
      <trkpt lat="45.27309" lon="5.78858">
        <ele>1315.9</ele>
      </trkpt>
      <trkpt lat="45.2732" lon="5.78858">
        <ele>1318.6</ele>
      </trkpt>
      <trkpt lat="45.27332" lon="5.78861">
        <ele>1321.2</ele>
      </trkpt>
      <trkpt lat="45.27352" lon="5.78868">
        <ele>1326</ele>
      </trkpt>
      <trkpt lat="45.27366" lon="5.78876">
        <ele>1329.2</ele>
      </trkpt>
      <trkpt lat="45.27379" lon="5.78888">
        <ele>1332</ele>
      </trkpt>
      <trkpt lat="45.27395" lon="5.78899">
        <ele>1335.2</ele>
      </trkpt>
      <trkpt lat="45.27408" lon="5.78907">
        <ele>1337.6</ele>
      </trkpt>
      <trkpt lat="45.27421" lon="5.78912">
        <ele>1340.5</ele>
      </trkpt>
      <trkpt lat="45.27429" lon="5.78914">
        <ele>1343</ele>
      </trkpt>
      <trkpt lat="45.27436" lon="5.78917">
        <ele>1344.8</ele>
      </trkpt>
      <trkpt lat="45.27448" lon="5.78921">
        <ele>1347.9</ele>
      </trkpt>
      <trkpt lat="45.27456" lon="5.78928">
        <ele>1349.4</ele>
      </trkpt>
      <trkpt lat="45.27484" lon="5.78946">
        <ele>1354.4</ele>
      </trkpt>
      <trkpt lat="45.27491" lon="5.78952">
        <ele>1355.4</ele>
      </trkpt>
      <trkpt lat="45.27501" lon="5.78959">
        <ele>1357.1</ele>
      </trkpt>
      <trkpt lat="45.27526" lon="5.78974">
        <ele>1363.2</ele>
      </trkpt>
      <trkpt lat="45.27534" lon="5.7898">
        <ele>1365</ele>
      </trkpt>
      <trkpt lat="45.27538" lon="5.78987">
        <ele>1365.5</ele>
      </trkpt>
      <trkpt lat="45.2754" lon="5.78992">
        <ele>1365</ele>
      </trkpt>
      <trkpt lat="45.27536" lon="5.78999">
        <ele>1362.5</ele>
      </trkpt>
      <trkpt lat="45.27527" lon="5.79008">
        <ele>1359.9</ele>
      </trkpt>
      <trkpt lat="45.27522" lon="5.79017">
        <ele>1358.9</ele>
      </trkpt>
      <trkpt lat="45.2752" lon="5.79027">
        <ele>1359</ele>
      </trkpt>
      <trkpt lat="45.27512" lon="5.79088">
        <ele>1362</ele>
      </trkpt>
      <trkpt lat="45.27513" lon="5.791">
        <ele>1364.3</ele>
      </trkpt>
      <trkpt lat="45.27516" lon="5.7911">
        <ele>1367.2</ele>
      </trkpt>
      <trkpt lat="45.27527" lon="5.79124">
        <ele>1373.1</ele>
      </trkpt>
      <trkpt lat="45.27533" lon="5.79135">
        <ele>1376.9</ele>
      </trkpt>
      <trkpt lat="45.27535" lon="5.79145">
        <ele>1379.3</ele>
      </trkpt>
      <trkpt lat="45.27536" lon="5.79158">
        <ele>1381.7</ele>
      </trkpt>
      <trkpt lat="45.27534" lon="5.79172">
        <ele>1382.9</ele>
      </trkpt>
      <trkpt lat="45.27529" lon="5.79184">
        <ele>1382.8</ele>
      </trkpt>
      <trkpt lat="45.27526" lon="5.79193">
        <ele>1382.7</ele>
      </trkpt>
      <trkpt lat="45.27532" lon="5.79204">
        <ele>1386</ele>
      </trkpt>
      <trkpt lat="45.27532" lon="5.79232">
        <ele>1389.4</ele>
      </trkpt>
      <trkpt lat="45.27538" lon="5.79255">
        <ele>1394.1</ele>
      </trkpt>
      <trkpt lat="45.27541" lon="5.79269">
        <ele>1396.5</ele>
      </trkpt>
      <trkpt lat="45.27544" lon="5.79281">
        <ele>1398.7</ele>
      </trkpt>
      <trkpt lat="45.27548" lon="5.79294">
        <ele>1401.1</ele>
      </trkpt>
      <trkpt lat="45.27555" lon="5.793">
        <ele>1403.9</ele>
      </trkpt>
      <trkpt lat="45.27568" lon="5.79323">
        <ele>1410.2</ele>
      </trkpt>
      <trkpt lat="45.27585" lon="5.7934">
        <ele>1416.5</ele>
      </trkpt>
      <trkpt lat="45.27618" lon="5.79354">
        <ele>1428.1</ele>
      </trkpt>
      <trkpt lat="45.27642" lon="5.79363">
        <ele>1436.2</ele>
      </trkpt>
      <trkpt lat="45.27667" lon="5.79379">
        <ele>1443.5</ele>
      </trkpt>
      <trkpt lat="45.27694" lon="5.79397">
        <ele>1450.5</ele>
      </trkpt>
      <trkpt lat="45.27708" lon="5.79404">
        <ele>1454</ele>
      </trkpt>
      <trkpt lat="45.27712" lon="5.79403">
        <ele>1455.2</ele>
      </trkpt>
      <trkpt lat="45.27714" lon="5.79397">
        <ele>1456.9</ele>
      </trkpt>
      <trkpt lat="45.27716" lon="5.7938">
        <ele>1460.3</ele>
      </trkpt>
      <trkpt lat="45.27718" lon="5.79359">
        <ele>1464.6</ele>
      </trkpt>
      <trkpt lat="45.27721" lon="5.79344">
        <ele>1468.3</ele>
      </trkpt>
      <trkpt lat="45.27725" lon="5.7933">
        <ele>1471.7</ele>
      </trkpt>
      <trkpt lat="45.27728" lon="5.79321">
        <ele>1472.7</ele>
      </trkpt>
      <trkpt lat="45.27733" lon="5.79313">
        <ele>1474.1</ele>
      </trkpt>
      <trkpt lat="45.27738" lon="5.79302">
        <ele>1475.8</ele>
      </trkpt>
      <trkpt lat="45.27747" lon="5.79281">
        <ele>1478.3</ele>
      </trkpt>
      <trkpt lat="45.27754" lon="5.79299">
        <ele>1482</ele>
      </trkpt>
      <trkpt lat="45.2776" lon="5.79316">
        <ele>1484.5</ele>
      </trkpt>
      <trkpt lat="45.27761" lon="5.79328">
        <ele>1485.5</ele>
      </trkpt>
      <trkpt lat="45.27763" lon="5.79316">
        <ele>1485.8</ele>
      </trkpt>
      <trkpt lat="45.27764" lon="5.79308">
        <ele>1485.8</ele>
      </trkpt>
      <trkpt lat="45.27766" lon="5.79294">
        <ele>1486</ele>
      </trkpt>
      <trkpt lat="45.27767" lon="5.79283">
        <ele>1486.2</ele>
      </trkpt>
      <trkpt lat="45.27771" lon="5.79267">
        <ele>1487.1</ele>
      </trkpt>
      <trkpt lat="45.27774" lon="5.79283">
        <ele>1488.8</ele>
      </trkpt>
      <trkpt lat="45.27775" lon="5.79294">
        <ele>1489.4</ele>
      </trkpt>
      <trkpt lat="45.27778" lon="5.79308">
        <ele>1490.8</ele>
      </trkpt>
      <trkpt lat="45.27781" lon="5.79297">
        <ele>1491.8</ele>
      </trkpt>
      <trkpt lat="45.27783" lon="5.79292">
        <ele>1492.5</ele>
      </trkpt>
      <trkpt lat="45.27785" lon="5.79286">
        <ele>1493.1</ele>
      </trkpt>
      <trkpt lat="45.27787" lon="5.7928">
        <ele>1493.8</ele>
      </trkpt>
      <trkpt lat="45.2779" lon="5.79274">
        <ele>1495</ele>
      </trkpt>
      <trkpt lat="45.27791" lon="5.7928">
        <ele>1495.5</ele>
      </trkpt>
      <trkpt lat="45.27792" lon="5.79287">
        <ele>1495.8</ele>
      </trkpt>
      <trkpt lat="45.27793" lon="5.793">
        <ele>1496.4</ele>
      </trkpt>
      <trkpt lat="45.27795" lon="5.7931">
        <ele>1497.2</ele>
      </trkpt>
      <trkpt lat="45.27798" lon="5.79316">
        <ele>1498</ele>
      </trkpt>
      <trkpt lat="45.278" lon="5.79323">
        <ele>1498.7</ele>
      </trkpt>
      <trkpt lat="45.27802" lon="5.79329">
        <ele>1499.5</ele>
      </trkpt>
      <trkpt lat="45.27807" lon="5.79335">
        <ele>1500.5</ele>
      </trkpt>
      <trkpt lat="45.2781" lon="5.79332">
        <ele>1502</ele>
      </trkpt>
      <trkpt lat="45.27812" lon="5.79322">
        <ele>1502.9</ele>
      </trkpt>
      <trkpt lat="45.27813" lon="5.79311">
        <ele>1503.5</ele>
      </trkpt>
      <trkpt lat="45.27818" lon="5.79293">
        <ele>1505.5</ele>
      </trkpt>
      <trkpt lat="45.27834" lon="5.7925">
        <ele>1513.4</ele>
      </trkpt>
      <trkpt lat="45.27854" lon="5.79215">
        <ele>1518.9</ele>
      </trkpt>
      <trkpt lat="45.27871" lon="5.79186">
        <ele>1524.6</ele>
      </trkpt>
      <trkpt lat="45.279" lon="5.79141">
        <ele>1534.6</ele>
      </trkpt>
      <trkpt lat="45.27917" lon="5.79108">
        <ele>1539.4</ele>
      </trkpt>
      <trkpt lat="45.27928" lon="5.79083">
        <ele>1542.8</ele>
      </trkpt>
      <trkpt lat="45.27931" lon="5.79073">
        <ele>1543</ele>
      </trkpt>
      <trkpt lat="45.27931" lon="5.79064">
        <ele>1541.7</ele>
      </trkpt>
      <trkpt lat="45.27937" lon="5.79054">
        <ele>1543.1</ele>
      </trkpt>
      <trkpt lat="45.27939" lon="5.79047">
        <ele>1543.6</ele>
      </trkpt>
      <trkpt lat="45.27943" lon="5.7904">
        <ele>1544.3</ele>
      </trkpt>
      <trkpt lat="45.27945" lon="5.79044">
        <ele>1546.3</ele>
      </trkpt>
      <trkpt lat="45.27946" lon="5.79051">
        <ele>1547.5</ele>
      </trkpt>
      <trkpt lat="45.27945" lon="5.79061">
        <ele>1548.8</ele>
      </trkpt>
      <trkpt lat="45.27947" lon="5.79073">
        <ele>1551.1</ele>
      </trkpt>
      <trkpt lat="45.27947" lon="5.79082">
        <ele>1552.6</ele>
      </trkpt>
      <trkpt lat="45.27949" lon="5.79091">
        <ele>1554.1</ele>
      </trkpt>
      <trkpt lat="45.27949" lon="5.791">
        <ele>1554.8</ele>
      </trkpt>
      <trkpt lat="45.27949" lon="5.79108">
        <ele>1555.6</ele>
      </trkpt>
      <trkpt lat="45.2795" lon="5.79126">
        <ele>1557.3</ele>
      </trkpt>
      <trkpt lat="45.2795" lon="5.79138">
        <ele>1558.1</ele>
      </trkpt>
      <trkpt lat="45.27951" lon="5.79156">
        <ele>1559.9</ele>
      </trkpt>
      <trkpt lat="45.2795" lon="5.7917">
        <ele>1560</ele>
      </trkpt>
      <trkpt lat="45.2795" lon="5.79185">
        <ele>1559.4</ele>
      </trkpt>
      <trkpt lat="45.2795" lon="5.79201">
        <ele>1558.7</ele>
      </trkpt>
      <trkpt lat="45.27952" lon="5.79209">
        <ele>1558.7</ele>
      </trkpt>
      <trkpt lat="45.27952" lon="5.7922">
        <ele>1558.4</ele>
      </trkpt>
      <trkpt lat="45.27954" lon="5.79229">
        <ele>1558.2</ele>
      </trkpt>
      <trkpt lat="45.27958" lon="5.7924">
        <ele>1558.6</ele>
      </trkpt>
      <trkpt lat="45.27965" lon="5.79249">
        <ele>1559.5</ele>
      </trkpt>
      <trkpt lat="45.2797" lon="5.79254">
        <ele>1560.1</ele>
      </trkpt>
      <trkpt lat="45.27978" lon="5.79252">
        <ele>1562.1</ele>
      </trkpt>
      <trkpt lat="45.27986" lon="5.79248">
        <ele>1564.2</ele>
      </trkpt>
      <trkpt lat="45.2799" lon="5.79246">
        <ele>1565.4</ele>
      </trkpt>
      <trkpt lat="45.27995" lon="5.79242">
        <ele>1567.3</ele>
      </trkpt>
      <trkpt lat="45.28001" lon="5.79229">
        <ele>1571.4</ele>
      </trkpt>
      <trkpt lat="45.28005" lon="5.79218">
        <ele>1574.5</ele>
      </trkpt>
      <trkpt lat="45.28009" lon="5.79208">
        <ele>1577.3</ele>
      </trkpt>
      <trkpt lat="45.28011" lon="5.79199">
        <ele>1579.9</ele>
      </trkpt>
      <trkpt lat="45.28015" lon="5.79195">
        <ele>1581.8</ele>
      </trkpt>
      <trkpt lat="45.2802" lon="5.79193">
        <ele>1583.5</ele>
      </trkpt>
      <trkpt lat="45.28023" lon="5.79192">
        <ele>1584.5</ele>
      </trkpt>
      <trkpt lat="45.28029" lon="5.79183">
        <ele>1588.5</ele>
      </trkpt>
      <trkpt lat="45.28041" lon="5.79191">
        <ele>1590</ele>
      </trkpt>
      <trkpt lat="45.28046" lon="5.79196">
        <ele>1590.1</ele>
      </trkpt>
      <trkpt lat="45.28052" lon="5.79201">
        <ele>1590.5</ele>
      </trkpt>
      <trkpt lat="45.28057" lon="5.79205">
        <ele>1590.9</ele>
      </trkpt>
      <trkpt lat="45.2806" lon="5.79206">
        <ele>1591.5</ele>
      </trkpt>
      <trkpt lat="45.28069" lon="5.79205">
        <ele>1594</ele>
      </trkpt>
      <trkpt lat="45.28072" lon="5.79207">
        <ele>1594.5</ele>
      </trkpt>
      <trkpt lat="45.28075" lon="5.7921">
        <ele>1594.2</ele>
      </trkpt>
      <trkpt lat="45.28078" lon="5.79212">
        <ele>1594.5</ele>
      </trkpt>
      <trkpt lat="45.28083" lon="5.79214">
        <ele>1595.3</ele>
      </trkpt>
      <trkpt lat="45.28088" lon="5.79217">
        <ele>1595.1</ele>
      </trkpt>
      <trkpt lat="45.28092" lon="5.79222">
        <ele>1594.3</ele>
      </trkpt>
      <trkpt lat="45.28096" lon="5.79224">
        <ele>1594.2</ele>
      </trkpt>
      <trkpt lat="45.28102" lon="5.79229">
        <ele>1593.6</ele>
      </trkpt>
      <trkpt lat="45.28106" lon="5.79233">
        <ele>1593.2</ele>
      </trkpt>
      <trkpt lat="45.28116" lon="5.79236">
        <ele>1593.7</ele>
      </trkpt>
      <trkpt lat="45.28129" lon="5.79244">
        <ele>1593.2</ele>
      </trkpt>
      <trkpt lat="45.28147" lon="5.79252">
        <ele>1593.7</ele>
      </trkpt>
      <trkpt lat="45.28157" lon="5.79252">
        <ele>1595</ele>
      </trkpt>
      <trkpt lat="45.28162" lon="5.79249">
        <ele>1596.6</ele>
      </trkpt>
      <trkpt lat="45.28172" lon="5.79261">
        <ele>1595.4</ele>
      </trkpt>
      <trkpt lat="45.2818" lon="5.79273">
        <ele>1593.8</ele>
      </trkpt>
      <trkpt lat="45.28187" lon="5.79285">
        <ele>1592.2</ele>
      </trkpt>
      <trkpt lat="45.28206" lon="5.793">
        <ele>1591.9</ele>
      </trkpt>
      <trkpt lat="45.2823" lon="5.79328">
        <ele>1588.8</ele>
      </trkpt>
      <trkpt lat="45.28259" lon="5.79351">
        <ele>1585.9</ele>
      </trkpt>
      <trkpt lat="45.2828" lon="5.79368">
        <ele>1582.1</ele>
      </trkpt>
      <trkpt lat="45.28292" lon="5.79379">
        <ele>1579.3</ele>
      </trkpt>
      <trkpt lat="45.28305" lon="5.79394">
        <ele>1574.8</ele>
      </trkpt>
      <trkpt lat="45.28317" lon="5.79403">
        <ele>1572</ele>
      </trkpt>
      <trkpt lat="45.28324" lon="5.79406">
        <ele>1571.5</ele>
      </trkpt>
      <trkpt lat="45.28332" lon="5.79405">
        <ele>1572.6</ele>
      </trkpt>
      <trkpt lat="45.28339" lon="5.79402">
        <ele>1573.6</ele>
      </trkpt>
      <trkpt lat="45.28345" lon="5.79394">
        <ele>1576.5</ele>
      </trkpt>
      <trkpt lat="45.28353" lon="5.79382">
        <ele>1581.4</ele>
      </trkpt>
      <trkpt lat="45.28356" lon="5.79382">
        <ele>1581.7</ele>
      </trkpt>
      <trkpt lat="45.28366" lon="5.79382">
        <ele>1581.6</ele>
      </trkpt>
      <trkpt lat="45.28372" lon="5.79388">
        <ele>1578.8</ele>
      </trkpt>
      <trkpt lat="45.28387" lon="5.79398">
        <ele>1573.3</ele>
      </trkpt>
      <trkpt lat="45.28392" lon="5.79403">
        <ele>1570.5</ele>
      </trkpt>
      <trkpt lat="45.28405" lon="5.79425">
        <ele>1559.3</ele>
      </trkpt>
      <trkpt lat="45.28409" lon="5.79433">
        <ele>1556.4</ele>
      </trkpt>
      <trkpt lat="45.2841" lon="5.79442">
        <ele>1553.4</ele>
      </trkpt>
      <trkpt lat="45.2841" lon="5.7946">
        <ele>1547.8</ele>
      </trkpt>
      <trkpt lat="45.28409" lon="5.79479">
        <ele>1541.7</ele>
      </trkpt>
      <trkpt lat="45.28408" lon="5.79503">
        <ele>1534.4</ele>
      </trkpt>
      <trkpt lat="45.28406" lon="5.7951">
        <ele>1532.7</ele>
      </trkpt>
      <trkpt lat="45.28408" lon="5.79519">
        <ele>1530.4</ele>
      </trkpt>
      <trkpt lat="45.2842" lon="5.79572">
        <ele>1516.8</ele>
      </trkpt>
      <trkpt lat="45.28422" lon="5.79608">
        <ele>1509.3</ele>
      </trkpt>
      <trkpt lat="45.28431" lon="5.7963">
        <ele>1503.1</ele>
      </trkpt>
      <trkpt lat="45.28438" lon="5.79651">
        <ele>1497.4</ele>
      </trkpt>
      <trkpt lat="45.28444" lon="5.79669">
        <ele>1492.4</ele>
      </trkpt>
      <trkpt lat="45.28443" lon="5.79674">
        <ele>1491.5</ele>
      </trkpt>
      <trkpt lat="45.2843" lon="5.79685">
        <ele>1492.8</ele>
      </trkpt>
      <trkpt lat="45.28427" lon="5.79691">
        <ele>1492.2</ele>
      </trkpt>
      <trkpt lat="45.28428" lon="5.79697">
        <ele>1490.2</ele>
      </trkpt>
      <trkpt lat="45.28433" lon="5.79699">
        <ele>1488.4</ele>
      </trkpt>
      <trkpt lat="45.28444" lon="5.79707">
        <ele>1483.2</ele>
      </trkpt>
      <trkpt lat="45.28449" lon="5.79712">
        <ele>1480.7</ele>
      </trkpt>
      <trkpt lat="45.28449" lon="5.79718">
        <ele>1479</ele>
      </trkpt>
      <trkpt lat="45.28447" lon="5.79723">
        <ele>1478.5</ele>
      </trkpt>
      <trkpt lat="45.28443" lon="5.79723">
        <ele>1479.6</ele>
      </trkpt>
      <trkpt lat="45.2842" lon="5.79729">
        <ele>1484</ele>
      </trkpt>
      <trkpt lat="45.28401" lon="5.79737">
        <ele>1479.1</ele>
      </trkpt>
      <trkpt lat="45.28397" lon="5.79742">
        <ele>1476.6</ele>
      </trkpt>
      <trkpt lat="45.28398" lon="5.7975">
        <ele>1474.3</ele>
      </trkpt>
      <trkpt lat="45.28416" lon="5.79774">
        <ele>1470.8</ele>
      </trkpt>
      <trkpt lat="45.28436" lon="5.79797">
        <ele>1458</ele>
      </trkpt>
      <trkpt lat="45.2844" lon="5.79807">
        <ele>1453.3</ele>
      </trkpt>
      <trkpt lat="45.28441" lon="5.79818">
        <ele>1449.1</ele>
      </trkpt>
      <trkpt lat="45.28435" lon="5.79838">
        <ele>1444</ele>
      </trkpt>
      <trkpt lat="45.28426" lon="5.79845">
        <ele>1444.4</ele>
      </trkpt>
      <trkpt lat="45.28424" lon="5.7987">
        <ele>1436.9</ele>
      </trkpt>
      <trkpt lat="45.28429" lon="5.7988">
        <ele>1432.2</ele>
      </trkpt>
      <trkpt lat="45.28436" lon="5.79902">
        <ele>1422.4</ele>
      </trkpt>
      <trkpt lat="45.2844" lon="5.79916">
        <ele>1416.5</ele>
      </trkpt>
      <trkpt lat="45.28447" lon="5.79928">
        <ele>1411.5</ele>
      </trkpt>
      <trkpt lat="45.28447" lon="5.79949">
        <ele>1407</ele>
      </trkpt>
      <trkpt lat="45.28449" lon="5.79963">
        <ele>1403.1</ele>
      </trkpt>
      <trkpt lat="45.28449" lon="5.79976">
        <ele>1400.2</ele>
      </trkpt>
      <trkpt lat="45.28457" lon="5.79999">
        <ele>1393.2</ele>
      </trkpt>
      <trkpt lat="45.2846" lon="5.80024">
        <ele>1389.2</ele>
      </trkpt>
      <trkpt lat="45.28461" lon="5.80052">
        <ele>1385.9</ele>
      </trkpt>
      <trkpt lat="45.28462" lon="5.80058">
        <ele>1385.1</ele>
      </trkpt>
      <trkpt lat="45.2847" lon="5.80077">
        <ele>1382.4</ele>
      </trkpt>
      <trkpt lat="45.28472" lon="5.80086">
        <ele>1381.5</ele>
      </trkpt>
      <trkpt lat="45.28473" lon="5.80107">
        <ele>1379.2</ele>
      </trkpt>
      <trkpt lat="45.28473" lon="5.80122">
        <ele>1377.6</ele>
      </trkpt>
      <trkpt lat="45.28469" lon="5.80157">
        <ele>1374</ele>
      </trkpt>
      <trkpt lat="45.28468" lon="5.80174">
        <ele>1372.9</ele>
      </trkpt>
      <trkpt lat="45.28464" lon="5.80191">
        <ele>1372.9</ele>
      </trkpt>
      <trkpt lat="45.28463" lon="5.80201">
        <ele>1373</ele>
      </trkpt>
      <trkpt lat="45.28461" lon="5.80209">
        <ele>1373.2</ele>
      </trkpt>
      <trkpt lat="45.28459" lon="5.80222">
        <ele>1373.5</ele>
      </trkpt>
      <trkpt lat="45.28457" lon="5.80236">
        <ele>1373.8</ele>
      </trkpt>
      <trkpt lat="45.28456" lon="5.80246">
        <ele>1374.1</ele>
      </trkpt>
      <trkpt lat="45.28453" lon="5.80256">
        <ele>1374.5</ele>
      </trkpt>
      <trkpt lat="45.28444" lon="5.80265">
        <ele>1375.5</ele>
      </trkpt>
      <trkpt lat="45.28434" lon="5.80274">
        <ele>1377</ele>
      </trkpt>
      <trkpt lat="45.28424" lon="5.80285">
        <ele>1378.9</ele>
      </trkpt>
      <trkpt lat="45.28414" lon="5.80296">
        <ele>1380.2</ele>
      </trkpt>
      <trkpt lat="45.28405" lon="5.80313">
        <ele>1379.7</ele>
      </trkpt>
      <trkpt lat="45.284" lon="5.80326">
        <ele>1380</ele>
      </trkpt>
      <trkpt lat="45.28396" lon="5.80336">
        <ele>1379.8</ele>
      </trkpt>
      <trkpt lat="45.28397" lon="5.80346">
        <ele>1378.9</ele>
      </trkpt>
      <trkpt lat="45.28396" lon="5.80357">
        <ele>1377.9</ele>
      </trkpt>
      <trkpt lat="45.28393" lon="5.80369">
        <ele>1376.9</ele>
      </trkpt>
      <trkpt lat="45.28387" lon="5.80382">
        <ele>1376.4</ele>
      </trkpt>
      <trkpt lat="45.28383" lon="5.80382">
        <ele>1376.8</ele>
      </trkpt>
      <trkpt lat="45.2838" lon="5.80385">
        <ele>1377</ele>
      </trkpt>
      <trkpt lat="45.2837" lon="5.80385">
        <ele>1378.1</ele>
      </trkpt>
      <trkpt lat="45.28369" lon="5.80397">
        <ele>1378.7</ele>
      </trkpt>
      <trkpt lat="45.28366" lon="5.80407">
        <ele>1379.9</ele>
      </trkpt>
      <trkpt lat="45.28368" lon="5.80415">
        <ele>1379.7</ele>
      </trkpt>
      <trkpt lat="45.28363" lon="5.80425">
        <ele>1381.7</ele>
      </trkpt>
      <trkpt lat="45.28348" lon="5.80436">
        <ele>1386.7</ele>
      </trkpt>
      <trkpt lat="45.28343" lon="5.80443">
        <ele>1389</ele>
      </trkpt>
      <trkpt lat="45.28345" lon="5.8045">
        <ele>1388.9</ele>
      </trkpt>
      <trkpt lat="45.28334" lon="5.80474">
        <ele>1395.8</ele>
      </trkpt>
      <trkpt lat="45.2832" lon="5.80496">
        <ele>1398.2</ele>
      </trkpt>
      <trkpt lat="45.28308" lon="5.80528">
        <ele>1396.5</ele>
      </trkpt>
      <trkpt lat="45.28297" lon="5.80553">
        <ele>1396.1</ele>
      </trkpt>
      <trkpt lat="45.28289" lon="5.80562">
        <ele>1397.1</ele>
      </trkpt>
      <trkpt lat="45.28283" lon="5.80568">
        <ele>1398.1</ele>
      </trkpt>
      <trkpt lat="45.28281" lon="5.80573">
        <ele>1398.5</ele>
      </trkpt>
      <trkpt lat="45.28275" lon="5.80581">
        <ele>1399.9</ele>
      </trkpt>
      <trkpt lat="45.28268" lon="5.80598">
        <ele>1401.2</ele>
      </trkpt>
      <trkpt lat="45.28264" lon="5.80605">
        <ele>1402</ele>
      </trkpt>
      <trkpt lat="45.28262" lon="5.80609">
        <ele>1402.4</ele>
      </trkpt>
      <trkpt lat="45.28257" lon="5.80622">
        <ele>1403.2</ele>
      </trkpt>
      <trkpt lat="45.2825" lon="5.8064">
        <ele>1404.6</ele>
      </trkpt>
      <trkpt lat="45.28244" lon="5.8065">
        <ele>1403.3</ele>
      </trkpt>
      <trkpt lat="45.28237" lon="5.80669">
        <ele>1402.5</ele>
      </trkpt>
      <trkpt lat="45.28235" lon="5.80674">
        <ele>1402.9</ele>
      </trkpt>
      <trkpt lat="45.28233" lon="5.80682">
        <ele>1403.4</ele>
      </trkpt>
      <trkpt lat="45.28232" lon="5.80689">
        <ele>1404.2</ele>
      </trkpt>
      <trkpt lat="45.28231" lon="5.80702">
        <ele>1405.6</ele>
      </trkpt>
      <trkpt lat="45.28229" lon="5.80715">
        <ele>1406.9</ele>
      </trkpt>
      <trkpt lat="45.28228" lon="5.80725">
        <ele>1408</ele>
      </trkpt>
      <trkpt lat="45.28225" lon="5.80732">
        <ele>1408.7</ele>
      </trkpt>
      <trkpt lat="45.28223" lon="5.8074">
        <ele>1409.5</ele>
      </trkpt>
      <trkpt lat="45.28219" lon="5.80749">
        <ele>1410.3</ele>
      </trkpt>
      <trkpt lat="45.28211" lon="5.80763">
        <ele>1410.3</ele>
      </trkpt>
      <trkpt lat="45.28205" lon="5.80776">
        <ele>1410.2</ele>
      </trkpt>
      <trkpt lat="45.282" lon="5.80786">
        <ele>1410.1</ele>
      </trkpt>
      <trkpt lat="45.28192" lon="5.80805">
        <ele>1410.1</ele>
      </trkpt>
      <trkpt lat="45.28184" lon="5.80829">
        <ele>1410.3</ele>
      </trkpt>
      <trkpt lat="45.2817" lon="5.80872">
        <ele>1415.4</ele>
      </trkpt>
      <trkpt lat="45.2816" lon="5.80903">
        <ele>1419.7</ele>
      </trkpt>
      <trkpt lat="45.28155" lon="5.80918">
        <ele>1421.3</ele>
      </trkpt>
      <trkpt lat="45.28151" lon="5.80929">
        <ele>1422</ele>
      </trkpt>
      <trkpt lat="45.28148" lon="5.80939">
        <ele>1422.8</ele>
      </trkpt>
      <trkpt lat="45.28134" lon="5.80909">
        <ele>1418.7</ele>
      </trkpt>
      <trkpt lat="45.28125" lon="5.80898">
        <ele>1416.7</ele>
      </trkpt>
      <trkpt lat="45.28135" lon="5.80919">
        <ele>1420</ele>
      </trkpt>
      <trkpt lat="45.28138" lon="5.80931">
        <ele>1421.3</ele>
      </trkpt>
      <trkpt lat="45.28142" lon="5.8097">
        <ele>1425.5</ele>
      </trkpt>
      <trkpt lat="45.28144" lon="5.80996">
        <ele>1428.1</ele>
      </trkpt>
      <trkpt lat="45.28144" lon="5.81014">
        <ele>1429.5</ele>
      </trkpt>
      <trkpt lat="45.28139" lon="5.81038">
        <ele>1431.4</ele>
      </trkpt>
      <trkpt lat="45.28129" lon="5.81065">
        <ele>1433.8</ele>
      </trkpt>
      <trkpt lat="45.2812" lon="5.81078">
        <ele>1435.1</ele>
      </trkpt>
      <trkpt lat="45.28111" lon="5.81094">
        <ele>1437.2</ele>
      </trkpt>
      <trkpt lat="45.28103" lon="5.81113">
        <ele>1439.4</ele>
      </trkpt>
      <trkpt lat="45.28086" lon="5.81138">
        <ele>1442.8</ele>
      </trkpt>
      <trkpt lat="45.28073" lon="5.81168">
        <ele>1447.8</ele>
      </trkpt>
      <trkpt lat="45.28066" lon="5.8119">
        <ele>1452.4</ele>
      </trkpt>
      <trkpt lat="45.2806" lon="5.81211">
        <ele>1456.4</ele>
      </trkpt>
      <trkpt lat="45.28047" lon="5.81244">
        <ele>1462.3</ele>
      </trkpt>
      <trkpt lat="45.28042" lon="5.81259">
        <ele>1465.1</ele>
      </trkpt>
      <trkpt lat="45.28038" lon="5.81274">
        <ele>1467.9</ele>
      </trkpt>
      <trkpt lat="45.28028" lon="5.81305">
        <ele>1473.8</ele>
      </trkpt>
      <trkpt lat="45.28021" lon="5.81328">
        <ele>1477.8</ele>
      </trkpt>
      <trkpt lat="45.28019" lon="5.81348">
        <ele>1480.4</ele>
      </trkpt>
      <trkpt lat="45.2802" lon="5.81369">
        <ele>1482.7</ele>
      </trkpt>
      <trkpt lat="45.28017" lon="5.81386">
        <ele>1484.8</ele>
      </trkpt>
      <trkpt lat="45.28013" lon="5.81407">
        <ele>1487.8</ele>
      </trkpt>
      <trkpt lat="45.28005" lon="5.81453">
        <ele>1487.3</ele>
      </trkpt>
      <trkpt lat="45.28002" lon="5.81477">
        <ele>1486.2</ele>
      </trkpt>
      <trkpt lat="45.28005" lon="5.81492">
        <ele>1484.3</ele>
      </trkpt>
      <trkpt lat="45.28012" lon="5.81516">
        <ele>1478.4</ele>
      </trkpt>
      <trkpt lat="45.28019" lon="5.8154">
        <ele>1472.4</ele>
      </trkpt>
      <trkpt lat="45.28021" lon="5.81551">
        <ele>1470.2</ele>
      </trkpt>
      <trkpt lat="45.28023" lon="5.81564">
        <ele>1467.6</ele>
      </trkpt>
      <trkpt lat="45.2804" lon="5.81584">
        <ele>1463.4</ele>
      </trkpt>
      <trkpt lat="45.28047" lon="5.81596">
        <ele>1461</ele>
      </trkpt>
      <trkpt lat="45.28056" lon="5.81606">
        <ele>1459.5</ele>
      </trkpt>
      <trkpt lat="45.28072" lon="5.81622">
        <ele>1458.1</ele>
      </trkpt>
      <trkpt lat="45.28073" lon="5.81626">
        <ele>1457.6</ele>
      </trkpt>
      <trkpt lat="45.28072" lon="5.81631">
        <ele>1457</ele>
      </trkpt>
      <trkpt lat="45.28075" lon="5.81643">
        <ele>1456</ele>
      </trkpt>
      <trkpt lat="45.28082" lon="5.81651">
        <ele>1456.1</ele>
      </trkpt>
      <trkpt lat="45.28087" lon="5.81652">
        <ele>1455.1</ele>
      </trkpt>
      <trkpt lat="45.28089" lon="5.81658">
        <ele>1453.9</ele>
      </trkpt>
      <trkpt lat="45.28091" lon="5.81688">
        <ele>1443.9</ele>
      </trkpt>
      <trkpt lat="45.28095" lon="5.81697">
        <ele>1439.7</ele>
      </trkpt>
      <trkpt lat="45.2811" lon="5.81705">
        <ele>1434.1</ele>
      </trkpt>
      <trkpt lat="45.28121" lon="5.817">
        <ele>1433.7</ele>
      </trkpt>
      <trkpt lat="45.28134" lon="5.81701">
        <ele>1431</ele>
      </trkpt>
      <trkpt lat="45.28153" lon="5.81714">
        <ele>1425.1</ele>
      </trkpt>
      <trkpt lat="45.28174" lon="5.81721">
        <ele>1421</ele>
      </trkpt>
      <trkpt lat="45.2821" lon="5.81734">
        <ele>1415.5</ele>
      </trkpt>
      <trkpt lat="45.28237" lon="5.81751">
        <ele>1414.6</ele>
      </trkpt>
      <trkpt lat="45.28258" lon="5.81764">
        <ele>1413</ele>
      </trkpt>
      <trkpt lat="45.28383" lon="5.81862">
        <ele>1416</ele>
      </trkpt>
      <trkpt lat="45.2842" lon="5.81885">
        <ele>1417.4</ele>
      </trkpt>
      <trkpt lat="45.28456" lon="5.81908">
        <ele>1419.4</ele>
      </trkpt>
      <trkpt lat="45.28475" lon="5.81926">
        <ele>1418</ele>
      </trkpt>
      <trkpt lat="45.28504" lon="5.81955">
        <ele>1411.7</ele>
      </trkpt>
      <trkpt lat="45.28535" lon="5.81985">
        <ele>1412.1</ele>
      </trkpt>
      <trkpt lat="45.28557" lon="5.82005">
        <ele>1414.6</ele>
      </trkpt>
      <trkpt lat="45.28578" lon="5.82019">
        <ele>1413.1</ele>
      </trkpt>
      <trkpt lat="45.28606" lon="5.82031">
        <ele>1409.2</ele>
      </trkpt>
      <trkpt lat="45.28624" lon="5.82047">
        <ele>1405.5</ele>
      </trkpt>
      <trkpt lat="45.28642" lon="5.82055">
        <ele>1406.5</ele>
      </trkpt>
      <trkpt lat="45.28662" lon="5.82061">
        <ele>1409.9</ele>
      </trkpt>
      <trkpt lat="45.28697" lon="5.82071">
        <ele>1415.6</ele>
      </trkpt>
      <trkpt lat="45.28714" lon="5.82076">
        <ele>1418.9</ele>
      </trkpt>
      <trkpt lat="45.28754" lon="5.8207">
        <ele>1424.3</ele>
      </trkpt>
      <trkpt lat="45.28818" lon="5.82049">
        <ele>1425.7</ele>
      </trkpt>
      <trkpt lat="45.28856" lon="5.82046">
        <ele>1424.2</ele>
      </trkpt>
      <trkpt lat="45.28878" lon="5.82057">
        <ele>1425.1</ele>
      </trkpt>
      <trkpt lat="45.28895" lon="5.82076">
        <ele>1429.2</ele>
      </trkpt>
      <trkpt lat="45.28905" lon="5.82094">
        <ele>1434</ele>
      </trkpt>
      <trkpt lat="45.2891" lon="5.82111">
        <ele>1439.9</ele>
      </trkpt>
      <trkpt lat="45.2892" lon="5.82121">
        <ele>1443.4</ele>
      </trkpt>
      <trkpt lat="45.28932" lon="5.82125">
        <ele>1444.4</ele>
      </trkpt>
      <trkpt lat="45.28943" lon="5.82119">
        <ele>1441.8</ele>
      </trkpt>
      <trkpt lat="45.28959" lon="5.82133">
        <ele>1447.4</ele>
      </trkpt>
      <trkpt lat="45.28981" lon="5.82136">
        <ele>1448.3</ele>
      </trkpt>
      <trkpt lat="45.29021" lon="5.82134">
        <ele>1448</ele>
      </trkpt>
      <trkpt lat="45.29055" lon="5.82145">
        <ele>1455.1</ele>
      </trkpt>
      <trkpt lat="45.29069" lon="5.82136">
        <ele>1451.7</ele>
      </trkpt>
      <trkpt lat="45.29075" lon="5.82118">
        <ele>1443.4</ele>
      </trkpt>
      <trkpt lat="45.29086" lon="5.82108">
        <ele>1439.4</ele>
      </trkpt>
      <trkpt lat="45.29105" lon="5.82097">
        <ele>1436.4</ele>
      </trkpt>
      <trkpt lat="45.29131" lon="5.82102">
        <ele>1442.4</ele>
      </trkpt>
      <trkpt lat="45.29148" lon="5.82091">
        <ele>1440.2</ele>
      </trkpt>
      <trkpt lat="45.29153" lon="5.82092">
        <ele>1441.5</ele>
      </trkpt>
      <trkpt lat="45.29169" lon="5.82092">
        <ele>1443.2</ele>
      </trkpt>
      <trkpt lat="45.29186" lon="5.82086">
        <ele>1440.2</ele>
      </trkpt>
      <trkpt lat="45.29204" lon="5.82081">
        <ele>1436.9</ele>
      </trkpt>
      <trkpt lat="45.29213" lon="5.8207">
        <ele>1431.7</ele>
      </trkpt>
      <trkpt lat="45.29227" lon="5.82066">
        <ele>1429.2</ele>
      </trkpt>
      <trkpt lat="45.29241" lon="5.82056">
        <ele>1424.1</ele>
      </trkpt>
      <trkpt lat="45.29263" lon="5.82058">
        <ele>1424.2</ele>
      </trkpt>
      <trkpt lat="45.29284" lon="5.82062">
        <ele>1424.8</ele>
      </trkpt>
      <trkpt lat="45.29308" lon="5.82064">
        <ele>1424.8</ele>
      </trkpt>
      <trkpt lat="45.29321" lon="5.82061">
        <ele>1423</ele>
      </trkpt>
      <trkpt lat="45.29347" lon="5.82098">
        <ele>1436.7</ele>
      </trkpt>
      <trkpt lat="45.29358" lon="5.82111">
        <ele>1441.6</ele>
      </trkpt>
      <trkpt lat="45.29392" lon="5.82131">
        <ele>1448.9</ele>
      </trkpt>
      <trkpt lat="45.29429" lon="5.82143">
        <ele>1452.9</ele>
      </trkpt>
      <trkpt lat="45.29451" lon="5.8215">
        <ele>1453.5</ele>
      </trkpt>
      <trkpt lat="45.29477" lon="5.82162">
        <ele>1455.7</ele>
      </trkpt>
      <trkpt lat="45.29496" lon="5.82179">
        <ele>1462.6</ele>
      </trkpt>
      <trkpt lat="45.29517" lon="5.82179">
        <ele>1460.9</ele>
      </trkpt>
      <trkpt lat="45.29535" lon="5.82193">
        <ele>1466.6</ele>
      </trkpt>
      <trkpt lat="45.2958" lon="5.82211">
        <ele>1471.8</ele>
      </trkpt>
      <trkpt lat="45.29615" lon="5.82231">
        <ele>1481.2</ele>
      </trkpt>
      <trkpt lat="45.29654" lon="5.82246">
        <ele>1487.5</ele>
      </trkpt>
      <trkpt lat="45.29688" lon="5.82263">
        <ele>1492.8</ele>
      </trkpt>
      <trkpt lat="45.29778" lon="5.82291">
        <ele>1499.9</ele>
      </trkpt>
      <trkpt lat="45.29802" lon="5.82312">
        <ele>1511.2</ele>
      </trkpt>
      <trkpt lat="45.29836" lon="5.82325">
        <ele>1517.3</ele>
      </trkpt>
      <trkpt lat="45.29861" lon="5.82323">
        <ele>1515.2</ele>
      </trkpt>
      <trkpt lat="45.29906" lon="5.82312">
        <ele>1508</ele>
      </trkpt>
      <trkpt lat="45.2994" lon="5.82327">
        <ele>1508.1</ele>
      </trkpt>
      <trkpt lat="45.29962" lon="5.82341">
        <ele>1509.1</ele>
      </trkpt>
      <trkpt lat="45.29987" lon="5.82361">
        <ele>1511.4</ele>
      </trkpt>
      <trkpt lat="45.30042" lon="5.82409">
        <ele>1501.1</ele>
      </trkpt>
      <trkpt lat="45.30051" lon="5.82419">
        <ele>1498.9</ele>
      </trkpt>
      <trkpt lat="45.30052" lon="5.82429">
        <ele>1498.7</ele>
      </trkpt>
      <trkpt lat="45.30047" lon="5.82455">
        <ele>1505.4</ele>
      </trkpt>
      <trkpt lat="45.30025" lon="5.82529">
        <ele>1517.6</ele>
      </trkpt>
      <trkpt lat="45.3002" lon="5.82557">
        <ele>1513.3</ele>
      </trkpt>
      <trkpt lat="45.30025" lon="5.82602">
        <ele>1501.5</ele>
      </trkpt>
      <trkpt lat="45.30046" lon="5.82649">
        <ele>1485.3</ele>
      </trkpt>
      <trkpt lat="45.30062" lon="5.82695">
        <ele>1478.4</ele>
      </trkpt>
      <trkpt lat="45.30077" lon="5.82732">
        <ele>1474.3</ele>
      </trkpt>
      <trkpt lat="45.30089" lon="5.82749">
        <ele>1470</ele>
      </trkpt>
      <trkpt lat="45.30099" lon="5.8276">
        <ele>1466</ele>
      </trkpt>
      <trkpt lat="45.30108" lon="5.82775">
        <ele>1463.2</ele>
      </trkpt>
      <trkpt lat="45.30116" lon="5.82798">
        <ele>1461.4</ele>
      </trkpt>
      <trkpt lat="45.30141" lon="5.82829">
        <ele>1450.7</ele>
      </trkpt>
      <trkpt lat="45.30164" lon="5.82844">
        <ele>1438.6</ele>
      </trkpt>
      <trkpt lat="45.30181" lon="5.82872">
        <ele>1431.9</ele>
      </trkpt>
      <trkpt lat="45.30203" lon="5.82929">
        <ele>1423.8</ele>
      </trkpt>
      <trkpt lat="45.30205" lon="5.82957">
        <ele>1421.2</ele>
      </trkpt>
      <trkpt lat="45.30203" lon="5.82987">
        <ele>1420</ele>
      </trkpt>
      <trkpt lat="45.30193" lon="5.83041">
        <ele>1414.7</ele>
      </trkpt>
      <trkpt lat="45.30188" lon="5.83053">
        <ele>1413.7</ele>
      </trkpt>
      <trkpt lat="45.3018" lon="5.83073">
        <ele>1411.7</ele>
      </trkpt>
      <trkpt lat="45.30171" lon="5.83113">
        <ele>1409.2</ele>
      </trkpt>
      <trkpt lat="45.30171" lon="5.8313">
        <ele>1407.9</ele>
      </trkpt>
      <trkpt lat="45.30168" lon="5.83146">
        <ele>1407.5</ele>
      </trkpt>
      <trkpt lat="45.30167" lon="5.83164">
        <ele>1406.2</ele>
      </trkpt>
      <trkpt lat="45.3017" lon="5.83181">
        <ele>1405.1</ele>
      </trkpt>
      <trkpt lat="45.30175" lon="5.83197">
        <ele>1404</ele>
      </trkpt>
      <trkpt lat="45.30183" lon="5.83216">
        <ele>1402.2</ele>
      </trkpt>
      <trkpt lat="45.30183" lon="5.83255">
        <ele>1402.4</ele>
      </trkpt>
      <trkpt lat="45.30189" lon="5.83288">
        <ele>1400.6</ele>
      </trkpt>
      <trkpt lat="45.30187" lon="5.83332">
        <ele>1400.4</ele>
      </trkpt>
      <trkpt lat="45.30183" lon="5.83358">
        <ele>1401.8</ele>
      </trkpt>
      <trkpt lat="45.30172" lon="5.8338">
        <ele>1403.8</ele>
      </trkpt>
      <trkpt lat="45.30167" lon="5.834">
        <ele>1404.9</ele>
      </trkpt>
      <trkpt lat="45.30161" lon="5.83403">
        <ele>1406.9</ele>
      </trkpt>
      <trkpt lat="45.30156" lon="5.83411">
        <ele>1409</ele>
      </trkpt>
      <trkpt lat="45.30157" lon="5.83424">
        <ele>1411</ele>
      </trkpt>
      <trkpt lat="45.30161" lon="5.83452">
        <ele>1416.7</ele>
      </trkpt>
      <trkpt lat="45.3017" lon="5.83483">
        <ele>1423</ele>
      </trkpt>
      <trkpt lat="45.30177" lon="5.83518">
        <ele>1431.6</ele>
      </trkpt>
      <trkpt lat="45.30184" lon="5.83532">
        <ele>1434.6</ele>
      </trkpt>
      <trkpt lat="45.30202" lon="5.83553">
        <ele>1437.1</ele>
      </trkpt>
      <trkpt lat="45.30229" lon="5.83574">
        <ele>1437.2</ele>
      </trkpt>
      <trkpt lat="45.30248" lon="5.836">
        <ele>1437.7</ele>
      </trkpt>
      <trkpt lat="45.30255" lon="5.83606">
        <ele>1439.7</ele>
      </trkpt>
      <trkpt lat="45.30263" lon="5.83606">
        <ele>1442</ele>
      </trkpt>
      <trkpt lat="45.3027" lon="5.83603">
        <ele>1443.5</ele>
      </trkpt>
      <trkpt lat="45.30277" lon="5.83597">
        <ele>1444.6</ele>
      </trkpt>
      <trkpt lat="45.3028" lon="5.83596">
        <ele>1445.5</ele>
      </trkpt>
      <trkpt lat="45.30282" lon="5.83597">
        <ele>1446.1</ele>
      </trkpt>
      <trkpt lat="45.30284" lon="5.836">
        <ele>1447.2</ele>
      </trkpt>
      <trkpt lat="45.30285" lon="5.83606">
        <ele>1448.2</ele>
      </trkpt>
      <trkpt lat="45.30285" lon="5.83613">
        <ele>1448.7</ele>
      </trkpt>
      <trkpt lat="45.3028" lon="5.83626">
        <ele>1449</ele>
      </trkpt>
      <trkpt lat="45.30273" lon="5.83642">
        <ele>1449.2</ele>
      </trkpt>
      <trkpt lat="45.30259" lon="5.83661">
        <ele>1448.2</ele>
      </trkpt>
      <trkpt lat="45.30251" lon="5.8367">
        <ele>1446.4</ele>
      </trkpt>
      <trkpt lat="45.30246" lon="5.83677">
        <ele>1445.5</ele>
      </trkpt>
      <trkpt lat="45.3025" lon="5.8368">
        <ele>1444.6</ele>
      </trkpt>
      <trkpt lat="45.30252" lon="5.83686">
        <ele>1443.6</ele>
      </trkpt>
      <trkpt lat="45.30254" lon="5.83684">
        <ele>1444.4</ele>
      </trkpt>
      <trkpt lat="45.30256" lon="5.83682">
        <ele>1445.2</ele>
      </trkpt>
      <trkpt lat="45.30258" lon="5.83682">
        <ele>1445.8</ele>
      </trkpt>
      <trkpt lat="45.30265" lon="5.83679">
        <ele>1447.8</ele>
      </trkpt>
      <trkpt lat="45.30268" lon="5.83681">
        <ele>1448.1</ele>
      </trkpt>
      <trkpt lat="45.30275" lon="5.83689">
        <ele>1448</ele>
      </trkpt>
      <trkpt lat="45.30282" lon="5.83688">
        <ele>1449.5</ele>
      </trkpt>
      <trkpt lat="45.30288" lon="5.83697">
        <ele>1448.6</ele>
      </trkpt>
      <trkpt lat="45.303" lon="5.83705">
        <ele>1449</ele>
      </trkpt>
      <trkpt lat="45.30305" lon="5.83711">
        <ele>1448.5</ele>
      </trkpt>
      <trkpt lat="45.30315" lon="5.8372">
        <ele>1448.1</ele>
      </trkpt>
      <trkpt lat="45.3035" lon="5.83728">
        <ele>1453.5</ele>
      </trkpt>
      <trkpt lat="45.30378" lon="5.83736">
        <ele>1458.1</ele>
      </trkpt>
      <trkpt lat="45.30394" lon="5.83741">
        <ele>1460.4</ele>
      </trkpt>
      <trkpt lat="45.30402" lon="5.83738">
        <ele>1463.8</ele>
      </trkpt>
      <trkpt lat="45.30436" lon="5.8374">
        <ele>1469.3</ele>
      </trkpt>
      <trkpt lat="45.30473" lon="5.8374">
        <ele>1474.6</ele>
      </trkpt>
      <trkpt lat="45.30489" lon="5.8374">
        <ele>1477</ele>
      </trkpt>
      <trkpt lat="45.30519" lon="5.83748">
        <ele>1482.3</ele>
      </trkpt>
      <trkpt lat="45.30542" lon="5.8377">
        <ele>1485.3</ele>
      </trkpt>
      <trkpt lat="45.30581" lon="5.83799">
        <ele>1492.3</ele>
      </trkpt>
      <trkpt lat="45.30617" lon="5.8384">
        <ele>1491.5</ele>
      </trkpt>
      <trkpt lat="45.30691" lon="5.83905">
        <ele>1491.6</ele>
      </trkpt>
      <trkpt lat="45.30721" lon="5.83933">
        <ele>1491.4</ele>
      </trkpt>
      <trkpt lat="45.3074" lon="5.83953">
        <ele>1490.2</ele>
      </trkpt>
      <trkpt lat="45.30747" lon="5.83969">
        <ele>1486.4</ele>
      </trkpt>
      <trkpt lat="45.3076" lon="5.83982">
        <ele>1485.8</ele>
      </trkpt>
      <trkpt lat="45.30772" lon="5.84005">
        <ele>1483.1</ele>
      </trkpt>
      <trkpt lat="45.30791" lon="5.84015">
        <ele>1488.1</ele>
      </trkpt>
      <trkpt lat="45.30798" lon="5.84026">
        <ele>1489.3</ele>
      </trkpt>
      <trkpt lat="45.30799" lon="5.84034">
        <ele>1488.4</ele>
      </trkpt>
      <trkpt lat="45.30801" lon="5.84042">
        <ele>1488.2</ele>
      </trkpt>
      <trkpt lat="45.30805" lon="5.84047">
        <ele>1489</ele>
      </trkpt>
      <trkpt lat="45.30818" lon="5.84055">
        <ele>1493.2</ele>
      </trkpt>
      <trkpt lat="45.30821" lon="5.84069">
        <ele>1492.9</ele>
      </trkpt>
      <trkpt lat="45.30828" lon="5.84077">
        <ele>1494.6</ele>
      </trkpt>
      <trkpt lat="45.30834" lon="5.84087">
        <ele>1495.9</ele>
      </trkpt>
      <trkpt lat="45.30836" lon="5.84094">
        <ele>1495.7</ele>
      </trkpt>
      <trkpt lat="45.30838" lon="5.84104">
        <ele>1495.5</ele>
      </trkpt>
      <trkpt lat="45.3085" lon="5.84122">
        <ele>1498</ele>
      </trkpt>
      <trkpt lat="45.30851" lon="5.84129">
        <ele>1497.8</ele>
      </trkpt>
      <trkpt lat="45.30853" lon="5.84135">
        <ele>1498.3</ele>
      </trkpt>
      <trkpt lat="45.30847" lon="5.8415">
        <ele>1495.3</ele>
      </trkpt>
      <trkpt lat="45.30848" lon="5.84157">
        <ele>1495.2</ele>
      </trkpt>
      <trkpt lat="45.30851" lon="5.84168">
        <ele>1496.2</ele>
      </trkpt>
      <trkpt lat="45.30851" lon="5.84175">
        <ele>1497.1</ele>
      </trkpt>
      <trkpt lat="45.30849" lon="5.84182">
        <ele>1497.4</ele>
      </trkpt>
      <trkpt lat="45.30851" lon="5.84194">
        <ele>1500</ele>
      </trkpt>
      <trkpt lat="45.30851" lon="5.84207">
        <ele>1501.9</ele>
      </trkpt>
      <trkpt lat="45.30862" lon="5.84207">
        <ele>1505.8</ele>
      </trkpt>
      <trkpt lat="45.30873" lon="5.84205">
        <ele>1509.8</ele>
      </trkpt>
      <trkpt lat="45.30884" lon="5.84206">
        <ele>1514.3</ele>
      </trkpt>
      <trkpt lat="45.30899" lon="5.84208">
        <ele>1519.8</ele>
      </trkpt>
      <trkpt lat="45.30908" lon="5.8421">
        <ele>1523.2</ele>
      </trkpt>
      <trkpt lat="45.30921" lon="5.84209">
        <ele>1527.1</ele>
      </trkpt>
      <trkpt lat="45.30951" lon="5.84214">
        <ele>1531.9</ele>
      </trkpt>
      <trkpt lat="45.30965" lon="5.84221">
        <ele>1534.4</ele>
      </trkpt>
      <trkpt lat="45.30975" lon="5.8422">
        <ele>1535.9</ele>
      </trkpt>
      <trkpt lat="45.30996" lon="5.84219">
        <ele>1539.2</ele>
      </trkpt>
      <trkpt lat="45.31016" lon="5.84225">
        <ele>1538.3</ele>
      </trkpt>
      <trkpt lat="45.3102" lon="5.84227">
        <ele>1537.7</ele>
      </trkpt>
      <trkpt lat="45.3102" lon="5.8423">
        <ele>1537.7</ele>
      </trkpt>
      <trkpt lat="45.31015" lon="5.84238">
        <ele>1538.3</ele>
      </trkpt>
      <trkpt lat="45.31012" lon="5.84246">
        <ele>1538.9</ele>
      </trkpt>
      <trkpt lat="45.31009" lon="5.84253">
        <ele>1539.8</ele>
      </trkpt>
      <trkpt lat="45.31007" lon="5.84261">
        <ele>1541.8</ele>
      </trkpt>
      <trkpt lat="45.31005" lon="5.8427">
        <ele>1543.7</ele>
      </trkpt>
      <trkpt lat="45.31005" lon="5.84277">
        <ele>1545</ele>
      </trkpt>
      <trkpt lat="45.31004" lon="5.84282">
        <ele>1546.1</ele>
      </trkpt>
      <trkpt lat="45.31001" lon="5.84289">
        <ele>1548.2</ele>
      </trkpt>
      <trkpt lat="45.30996" lon="5.84303">
        <ele>1550.5</ele>
      </trkpt>
      <trkpt lat="45.30992" lon="5.84308">
        <ele>1551.1</ele>
      </trkpt>
      <trkpt lat="45.30987" lon="5.84315">
        <ele>1551.6</ele>
      </trkpt>
      <trkpt lat="45.30983" lon="5.84322">
        <ele>1552.4</ele>
      </trkpt>
      <trkpt lat="45.30984" lon="5.84324">
        <ele>1552.9</ele>
      </trkpt>
      <trkpt lat="45.30996" lon="5.84329">
        <ele>1555.6</ele>
      </trkpt>
      <trkpt lat="45.31013" lon="5.84337">
        <ele>1553.6</ele>
      </trkpt>
      <trkpt lat="45.31013" lon="5.8434">
        <ele>1554.2</ele>
      </trkpt>
      <trkpt lat="45.31002" lon="5.84358">
        <ele>1563.5</ele>
      </trkpt>
      <trkpt lat="45.30998" lon="5.84363">
        <ele>1565.1</ele>
      </trkpt>
      <trkpt lat="45.30992" lon="5.84368">
        <ele>1565.7</ele>
      </trkpt>
      <trkpt lat="45.30993" lon="5.84371">
        <ele>1566.7</ele>
      </trkpt>
      <trkpt lat="45.31002" lon="5.84376">
        <ele>1568.5</ele>
      </trkpt>
      <trkpt lat="45.31007" lon="5.84378">
        <ele>1567.8</ele>
      </trkpt>
      <trkpt lat="45.31013" lon="5.84379">
        <ele>1566.9</ele>
      </trkpt>
      <trkpt lat="45.31017" lon="5.8438">
        <ele>1565.8</ele>
      </trkpt>
      <trkpt lat="45.3102" lon="5.84381">
        <ele>1565.5</ele>
      </trkpt>
      <trkpt lat="45.31022" lon="5.84384">
        <ele>1566</ele>
      </trkpt>
      <trkpt lat="45.31023" lon="5.84388">
        <ele>1566.8</ele>
      </trkpt>
      <trkpt lat="45.31024" lon="5.84393">
        <ele>1568.2</ele>
      </trkpt>
      <trkpt lat="45.31025" lon="5.84396">
        <ele>1569.3</ele>
      </trkpt>
      <trkpt lat="45.31029" lon="5.844">
        <ele>1569.8</ele>
      </trkpt>
      <trkpt lat="45.31033" lon="5.84402">
        <ele>1569.6</ele>
      </trkpt>
      <trkpt lat="45.31034" lon="5.84404">
        <ele>1569.9</ele>
      </trkpt>
      <trkpt lat="45.31032" lon="5.84406">
        <ele>1571</ele>
      </trkpt>
      <trkpt lat="45.31027" lon="5.84408">
        <ele>1573</ele>
      </trkpt>
      <trkpt lat="45.31019" lon="5.84407">
        <ele>1574.4</ele>
      </trkpt>
      <trkpt lat="45.31014" lon="5.84409">
        <ele>1576</ele>
      </trkpt>
      <trkpt lat="45.31009" lon="5.84414">
        <ele>1578.4</ele>
      </trkpt>
      <trkpt lat="45.31009" lon="5.84415">
        <ele>1578.9</ele>
      </trkpt>
      <trkpt lat="45.31009" lon="5.84417">
        <ele>1579.5</ele>
      </trkpt>
      <trkpt lat="45.31012" lon="5.84418">
        <ele>1579.3</ele>
      </trkpt>
      <trkpt lat="45.31016" lon="5.84422">
        <ele>1580.1</ele>
      </trkpt>
      <trkpt lat="45.31021" lon="5.84427">
        <ele>1581</ele>
      </trkpt>
      <trkpt lat="45.31025" lon="5.84432">
        <ele>1582.1</ele>
      </trkpt>
      <trkpt lat="45.31032" lon="5.84437">
        <ele>1582.7</ele>
      </trkpt>
      <trkpt lat="45.31042" lon="5.84444">
        <ele>1584.1</ele>
      </trkpt>
      <trkpt lat="45.31042" lon="5.84445">
        <ele>1584.4</ele>
      </trkpt>
      <trkpt lat="45.31032" lon="5.8445">
        <ele>1588</ele>
      </trkpt>
      <trkpt lat="45.31028" lon="5.84452">
        <ele>1589.2</ele>
      </trkpt>
      <trkpt lat="45.31025" lon="5.84453">
        <ele>1590.1</ele>
      </trkpt>
      <trkpt lat="45.31023" lon="5.84453">
        <ele>1590.7</ele>
      </trkpt>
      <trkpt lat="45.3102" lon="5.84455">
        <ele>1591.5</ele>
      </trkpt>
      <trkpt lat="45.31016" lon="5.84459">
        <ele>1593.9</ele>
      </trkpt>
      <trkpt lat="45.31016" lon="5.8446">
        <ele>1594.3</ele>
      </trkpt>
      <trkpt lat="45.3102" lon="5.84461">
        <ele>1593.9</ele>
      </trkpt>
      <trkpt lat="45.31023" lon="5.84462">
        <ele>1593.9</ele>
      </trkpt>
      <trkpt lat="45.31026" lon="5.84464">
        <ele>1594.2</ele>
      </trkpt>
      <trkpt lat="45.31035" lon="5.84473">
        <ele>1596.5</ele>
      </trkpt>
      <trkpt lat="45.3104" lon="5.84479">
        <ele>1598.3</ele>
      </trkpt>
      <trkpt lat="45.31044" lon="5.84487">
        <ele>1600.9</ele>
      </trkpt>
      <trkpt lat="45.31054" lon="5.84495">
        <ele>1603.2</ele>
      </trkpt>
      <trkpt lat="45.31054" lon="5.84496">
        <ele>1603.6</ele>
      </trkpt>
      <trkpt lat="45.31051" lon="5.84497">
        <ele>1604.2</ele>
      </trkpt>
      <trkpt lat="45.31048" lon="5.84499">
        <ele>1605.4</ele>
      </trkpt>
      <trkpt lat="45.31045" lon="5.845">
        <ele>1606.1</ele>
      </trkpt>
      <trkpt lat="45.3104" lon="5.845">
        <ele>1606.6</ele>
      </trkpt>
      <trkpt lat="45.31034" lon="5.84499">
        <ele>1606.8</ele>
      </trkpt>
      <trkpt lat="45.31034" lon="5.84499">
        <ele>1607.1</ele>
      </trkpt>
      <trkpt lat="45.31045" lon="5.84515">
        <ele>1612.3</ele>
      </trkpt>
      <trkpt lat="45.31047" lon="5.84518">
        <ele>1613.1</ele>
      </trkpt>
      <trkpt lat="45.31051" lon="5.84521">
        <ele>1613.8</ele>
      </trkpt>
      <trkpt lat="45.31053" lon="5.84523">
        <ele>1614.4</ele>
      </trkpt>
      <trkpt lat="45.3105" lon="5.84523">
        <ele>1614.7</ele>
      </trkpt>
      <trkpt lat="45.31042" lon="5.84524">
        <ele>1615.8</ele>
      </trkpt>
      <trkpt lat="45.31034" lon="5.84524">
        <ele>1616.7</ele>
      </trkpt>
      <trkpt lat="45.31034" lon="5.84525">
        <ele>1617</ele>
      </trkpt>
      <trkpt lat="45.31039" lon="5.84529">
        <ele>1618.3</ele>
      </trkpt>
      <trkpt lat="45.3104" lon="5.84533">
        <ele>1619.7</ele>
      </trkpt>
      <trkpt lat="45.31042" lon="5.84535">
        <ele>1620.2</ele>
      </trkpt>
      <trkpt lat="45.31044" lon="5.84535">
        <ele>1620.3</ele>
      </trkpt>
      <trkpt lat="45.31051" lon="5.84546">
        <ele>1624.1</ele>
      </trkpt>
      <trkpt lat="45.31055" lon="5.84552">
        <ele>1626.1</ele>
      </trkpt>
      <trkpt lat="45.31057" lon="5.84553">
        <ele>1626.5</ele>
      </trkpt>
      <trkpt lat="45.3106" lon="5.84554">
        <ele>1626.8</ele>
      </trkpt>
      <trkpt lat="45.3106" lon="5.84555">
        <ele>1627.1</ele>
      </trkpt>
      <trkpt lat="45.31051" lon="5.84559">
        <ele>1629.2</ele>
      </trkpt>
      <trkpt lat="45.31047" lon="5.84559">
        <ele>1629.5</ele>
      </trkpt>
      <trkpt lat="45.31045" lon="5.8456">
        <ele>1630</ele>
      </trkpt>
      <trkpt lat="45.31051" lon="5.84568">
        <ele>1632.9</ele>
      </trkpt>
      <trkpt lat="45.31058" lon="5.84576">
        <ele>1635.9</ele>
      </trkpt>
      <trkpt lat="45.31069" lon="5.84585">
        <ele>1639.1</ele>
      </trkpt>
      <trkpt lat="45.31071" lon="5.84586">
        <ele>1639.8</ele>
      </trkpt>
      <trkpt lat="45.31078" lon="5.84587">
        <ele>1640.3</ele>
      </trkpt>
      <trkpt lat="45.31086" lon="5.84593">
        <ele>1642.7</ele>
      </trkpt>
      <trkpt lat="45.31095" lon="5.84601">
        <ele>1644.7</ele>
      </trkpt>
      <trkpt lat="45.31107" lon="5.84609">
        <ele>1646.8</ele>
      </trkpt>
      <trkpt lat="45.31118" lon="5.84615">
        <ele>1647.3</ele>
      </trkpt>
      <trkpt lat="45.31129" lon="5.84622">
        <ele>1648.7</ele>
      </trkpt>
      <trkpt lat="45.31135" lon="5.84626">
        <ele>1650</ele>
      </trkpt>
      <trkpt lat="45.31143" lon="5.84635">
        <ele>1653.2</ele>
      </trkpt>
      <trkpt lat="45.31153" lon="5.84647">
        <ele>1657.6</ele>
      </trkpt>
      <trkpt lat="45.31168" lon="5.8466">
        <ele>1662</ele>
      </trkpt>
      <trkpt lat="45.31177" lon="5.84666">
        <ele>1663.8</ele>
      </trkpt>
      <trkpt lat="45.3118" lon="5.84666">
        <ele>1663.7</ele>
      </trkpt>
      <trkpt lat="45.31182" lon="5.84666">
        <ele>1663</ele>
      </trkpt>
      <trkpt lat="45.31187" lon="5.84661">
        <ele>1659.7</ele>
      </trkpt>
      <trkpt lat="45.31188" lon="5.84661">
        <ele>1659.1</ele>
      </trkpt>
      <trkpt lat="45.31192" lon="5.84661">
        <ele>1658.6</ele>
      </trkpt>
      <trkpt lat="45.31194" lon="5.84662">
        <ele>1659</ele>
      </trkpt>
      <trkpt lat="45.31202" lon="5.84665">
        <ele>1659.6</ele>
      </trkpt>
      <trkpt lat="45.31208" lon="5.8467">
        <ele>1661.3</ele>
      </trkpt>
      <trkpt lat="45.31213" lon="5.84674">
        <ele>1662.6</ele>
      </trkpt>
      <trkpt lat="45.31218" lon="5.84677">
        <ele>1663.7</ele>
      </trkpt>
      <trkpt lat="45.31227" lon="5.84681">
        <ele>1664.2</ele>
      </trkpt>
      <trkpt lat="45.31236" lon="5.84684">
        <ele>1664.1</ele>
      </trkpt>
      <trkpt lat="45.31244" lon="5.84688">
        <ele>1664.9</ele>
      </trkpt>
      <trkpt lat="45.31252" lon="5.84696">
        <ele>1667</ele>
      </trkpt>
      <trkpt lat="45.31263" lon="5.84705">
        <ele>1666.9</ele>
      </trkpt>
      <trkpt lat="45.31272" lon="5.84713">
        <ele>1666.8</ele>
      </trkpt>
      <trkpt lat="45.31281" lon="5.84721">
        <ele>1666.1</ele>
      </trkpt>
      <trkpt lat="45.31288" lon="5.84728">
        <ele>1666.5</ele>
      </trkpt>
      <trkpt lat="45.31293" lon="5.84737">
        <ele>1668.6</ele>
      </trkpt>
      <trkpt lat="45.31298" lon="5.84746">
        <ele>1670.1</ele>
      </trkpt>
      <trkpt lat="45.31316" lon="5.84771">
        <ele>1672.6</ele>
      </trkpt>
      <trkpt lat="45.31325" lon="5.84792">
        <ele>1678</ele>
      </trkpt>
      <trkpt lat="45.31344" lon="5.84825">
        <ele>1685.6</ele>
      </trkpt>
      <trkpt lat="45.31358" lon="5.84841">
        <ele>1685.1</ele>
      </trkpt>
      <trkpt lat="45.31378" lon="5.84869">
        <ele>1683.8</ele>
      </trkpt>
      <trkpt lat="45.31388" lon="5.84881">
        <ele>1682.6</ele>
      </trkpt>
      <trkpt lat="45.31412" lon="5.84896">
        <ele>1677.7</ele>
      </trkpt>
      <trkpt lat="45.31431" lon="5.84907">
        <ele>1676</ele>
      </trkpt>
      <trkpt lat="45.3144" lon="5.84921">
        <ele>1677</ele>
      </trkpt>
      <trkpt lat="45.31456" lon="5.84944">
        <ele>1673.9</ele>
      </trkpt>
      <trkpt lat="45.31469" lon="5.84959">
        <ele>1671</ele>
      </trkpt>
      <trkpt lat="45.3148" lon="5.84969">
        <ele>1668.2</ele>
      </trkpt>
      <trkpt lat="45.31495" lon="5.84983">
        <ele>1664.6</ele>
      </trkpt>
      <trkpt lat="45.31501" lon="5.84995">
        <ele>1662.9</ele>
      </trkpt>
      <trkpt lat="45.31518" lon="5.85001">
        <ele>1660.8</ele>
      </trkpt>
      <trkpt lat="45.31529" lon="5.85002">
        <ele>1664.2</ele>
      </trkpt>
      <trkpt lat="45.31544" lon="5.85013">
        <ele>1690</ele>
      </trkpt>
      <trkpt lat="45.31557" lon="5.85022">
        <ele>1708.3</ele>
      </trkpt>
      <trkpt lat="45.31567" lon="5.8503">
        <ele>1726.2</ele>
      </trkpt>
      <trkpt lat="45.31579" lon="5.85048">
        <ele>1761.6</ele>
      </trkpt>
      <trkpt lat="45.31586" lon="5.8506">
        <ele>1783.7</ele>
      </trkpt>
      <trkpt lat="45.31596" lon="5.85067">
        <ele>1789</ele>
      </trkpt>
      <trkpt lat="45.31602" lon="5.8508">
        <ele>1806</ele>
      </trkpt>
      <trkpt lat="45.31615" lon="5.85094">
        <ele>1807</ele>
      </trkpt>
      <trkpt lat="45.31624" lon="5.85088">
        <ele>1786.2</ele>
      </trkpt>
      <trkpt lat="45.31642" lon="5.85107">
        <ele>1791.4</ele>
      </trkpt>
      <trkpt lat="45.31654" lon="5.85114">
        <ele>1790.7</ele>
      </trkpt>
      <trkpt lat="45.31678" lon="5.85119">
        <ele>1775.5</ele>
      </trkpt>
      <trkpt lat="45.31695" lon="5.85123">
        <ele>1766</ele>
      </trkpt>
      <trkpt lat="45.31705" lon="5.85126">
        <ele>1764.4</ele>
      </trkpt>
      <trkpt lat="45.31715" lon="5.85134">
        <ele>1774.2</ele>
      </trkpt>
      <trkpt lat="45.31728" lon="5.85145">
        <ele>1790.5</ele>
      </trkpt>
      <trkpt lat="45.31745" lon="5.85151">
        <ele>1794</ele>
      </trkpt>
      <trkpt lat="45.31756" lon="5.8515">
        <ele>1781.9</ele>
      </trkpt>
      <trkpt lat="45.3177" lon="5.85149">
        <ele>1763.4</ele>
      </trkpt>
      <trkpt lat="45.31775" lon="5.85154">
        <ele>1770.6</ele>
      </trkpt>
      <trkpt lat="45.31782" lon="5.85165">
        <ele>1789.5</ele>
      </trkpt>
      <trkpt lat="45.31786" lon="5.85167">
        <ele>1788.7</ele>
      </trkpt>
      <trkpt lat="45.31796" lon="5.8517">
        <ele>1778.6</ele>
      </trkpt>
      <trkpt lat="45.31807" lon="5.85176">
        <ele>1766.7</ele>
      </trkpt>
      <trkpt lat="45.31815" lon="5.85182">
        <ele>1758.9</ele>
      </trkpt>
      <trkpt lat="45.31824" lon="5.85183">
        <ele>1749.1</ele>
      </trkpt>
      <trkpt lat="45.31837" lon="5.85187">
        <ele>1736.9</ele>
      </trkpt>
      <trkpt lat="45.31846" lon="5.85191">
        <ele>1732.2</ele>
      </trkpt>
      <trkpt lat="45.31852" lon="5.85197">
        <ele>1730.6</ele>
      </trkpt>
      <trkpt lat="45.31861" lon="5.85205">
        <ele>1729.5</ele>
      </trkpt>
      <trkpt lat="45.31865" lon="5.85212">
        <ele>1730.2</ele>
      </trkpt>
      <trkpt lat="45.31869" lon="5.85216">
        <ele>1730.3</ele>
      </trkpt>
      <trkpt lat="45.31872" lon="5.85224">
        <ele>1734.1</ele>
      </trkpt>
      <trkpt lat="45.31874" lon="5.85231">
        <ele>1737</ele>
      </trkpt>
      <trkpt lat="45.31876" lon="5.85238">
        <ele>1740.3</ele>
      </trkpt>
      <trkpt lat="45.31878" lon="5.85247">
        <ele>1745.4</ele>
      </trkpt>
      <trkpt lat="45.31878" lon="5.85249">
        <ele>1746.6</ele>
      </trkpt>
      <trkpt lat="45.31878" lon="5.85252">
        <ele>1747.9</ele>
      </trkpt>
      <trkpt lat="45.31877" lon="5.85254">
        <ele>1748.9</ele>
      </trkpt>
      <trkpt lat="45.31875" lon="5.85252">
        <ele>1748.9</ele>
      </trkpt>
      <trkpt lat="45.3187" lon="5.85243">
        <ele>1745.5</ele>
      </trkpt>
      <trkpt lat="45.31867" lon="5.85239">
        <ele>1744.4</ele>
      </trkpt>
      <trkpt lat="45.31862" lon="5.85234">
        <ele>1744</ele>
      </trkpt>
      <trkpt lat="45.31856" lon="5.85229">
        <ele>1743.9</ele>
      </trkpt>
      <trkpt lat="45.31855" lon="5.85229">
        <ele>1744.7</ele>
      </trkpt>
      <trkpt lat="45.31855" lon="5.85232">
        <ele>1745.8</ele>
      </trkpt>
      <trkpt lat="45.31862" lon="5.85242">
        <ele>1748</ele>
      </trkpt>
      <trkpt lat="45.31867" lon="5.85251">
        <ele>1751.1</ele>
      </trkpt>
      <trkpt lat="45.31871" lon="5.85258">
        <ele>1752.6</ele>
      </trkpt>
      <trkpt lat="45.31875" lon="5.85272">
        <ele>1756.8</ele>
      </trkpt>
      <trkpt lat="45.31879" lon="5.85278">
        <ele>1758</ele>
      </trkpt>
      <trkpt lat="45.31888" lon="5.8529">
        <ele>1759.7</ele>
      </trkpt>
      <trkpt lat="45.31893" lon="5.85299">
        <ele>1762.1</ele>
      </trkpt>
      <trkpt lat="45.319" lon="5.85307">
        <ele>1762.8</ele>
      </trkpt>
      <trkpt lat="45.31905" lon="5.8531">
        <ele>1762.7</ele>
      </trkpt>
      <trkpt lat="45.31911" lon="5.85314">
        <ele>1762.6</ele>
      </trkpt>
      <trkpt lat="45.31912" lon="5.85319">
        <ele>1764.2</ele>
      </trkpt>
      <trkpt lat="45.31908" lon="5.85322">
        <ele>1766.8</ele>
      </trkpt>
      <trkpt lat="45.31913" lon="5.85329">
        <ele>1767.9</ele>
      </trkpt>
      <trkpt lat="45.31919" lon="5.85333">
        <ele>1768.9</ele>
      </trkpt>
      <trkpt lat="45.3192" lon="5.85339">
        <ele>1770.3</ele>
      </trkpt>
      <trkpt lat="45.3192" lon="5.85343">
        <ele>1771.3</ele>
      </trkpt>
      <trkpt lat="45.31918" lon="5.85345">
        <ele>1771.7</ele>
      </trkpt>
      <trkpt lat="45.31918" lon="5.8535">
        <ele>1772.6</ele>
      </trkpt>
      <trkpt lat="45.31914" lon="5.85355">
        <ele>1774.5</ele>
      </trkpt>
      <trkpt lat="45.31912" lon="5.85358">
        <ele>1775.6</ele>
      </trkpt>
      <trkpt lat="45.31912" lon="5.85363">
        <ele>1776.7</ele>
      </trkpt>
      <trkpt lat="45.31909" lon="5.85379">
        <ele>1780.8</ele>
      </trkpt>
      <trkpt lat="45.31906" lon="5.85392">
        <ele>1784</ele>
      </trkpt>
      <trkpt lat="45.31904" lon="5.85403">
        <ele>1786.5</ele>
      </trkpt>
      <trkpt lat="45.31901" lon="5.8541">
        <ele>1788.4</ele>
      </trkpt>
      <trkpt lat="45.31896" lon="5.85417">
        <ele>1790.8</ele>
      </trkpt>
      <trkpt lat="45.31894" lon="5.85425">
        <ele>1791.3</ele>
      </trkpt>
      <trkpt lat="45.31893" lon="5.85434">
        <ele>1791.4</ele>
      </trkpt>
      <trkpt lat="45.31892" lon="5.85447">
        <ele>1791.7</ele>
      </trkpt>
      <trkpt lat="45.31892" lon="5.85456">
        <ele>1791.8</ele>
      </trkpt>
      <trkpt lat="45.31894" lon="5.85463">
        <ele>1791.6</ele>
      </trkpt>
      <trkpt lat="45.31894" lon="5.85468">
        <ele>1791.7</ele>
      </trkpt>
      <trkpt lat="45.31902" lon="5.85478">
        <ele>1790.3</ele>
      </trkpt>
      <trkpt lat="45.31912" lon="5.85485">
        <ele>1788.7</ele>
      </trkpt>
      <trkpt lat="45.31916" lon="5.8549">
        <ele>1788</ele>
      </trkpt>
      <trkpt lat="45.31921" lon="5.85498">
        <ele>1788</ele>
      </trkpt>
      <trkpt lat="45.31927" lon="5.85506">
        <ele>1787.6</ele>
      </trkpt>
      <trkpt lat="45.31931" lon="5.85512">
        <ele>1787.1</ele>
      </trkpt>
      <trkpt lat="45.31937" lon="5.85516">
        <ele>1786.7</ele>
      </trkpt>
      <trkpt lat="45.31943" lon="5.85524">
        <ele>1785.9</ele>
      </trkpt>
      <trkpt lat="45.31956" lon="5.85538">
        <ele>1784.2</ele>
      </trkpt>
      <trkpt lat="45.31977" lon="5.85554">
        <ele>1781.5</ele>
      </trkpt>
      <trkpt lat="45.31994" lon="5.8557">
        <ele>1778.3</ele>
      </trkpt>
      <trkpt lat="45.32006" lon="5.85585">
        <ele>1775.7</ele>
      </trkpt>
      <trkpt lat="45.32015" lon="5.85602">
        <ele>1773.1</ele>
      </trkpt>
      <trkpt lat="45.32024" lon="5.85615">
        <ele>1770.9</ele>
      </trkpt>
      <trkpt lat="45.32028" lon="5.85627">
        <ele>1769</ele>
      </trkpt>
      <trkpt lat="45.3203" lon="5.85638">
        <ele>1767.4</ele>
      </trkpt>
      <trkpt lat="45.32036" lon="5.85646">
        <ele>1765.9</ele>
      </trkpt>
      <trkpt lat="45.32039" lon="5.85661">
        <ele>1763.6</ele>
      </trkpt>
      <trkpt lat="45.32038" lon="5.85666">
        <ele>1762.9</ele>
      </trkpt>
      <trkpt lat="45.32035" lon="5.85668">
        <ele>1762.8</ele>
      </trkpt>
      <trkpt lat="45.32037" lon="5.85674">
        <ele>1762.2</ele>
      </trkpt>
      <trkpt lat="45.32037" lon="5.85678">
        <ele>1762</ele>
      </trkpt>
      <trkpt lat="45.32034" lon="5.85688">
        <ele>1761.4</ele>
      </trkpt>
      <trkpt lat="45.32031" lon="5.85692">
        <ele>1761.4</ele>
      </trkpt>
      <trkpt lat="45.3203" lon="5.85702">
        <ele>1760.9</ele>
      </trkpt>
      <trkpt lat="45.32038" lon="5.85726">
        <ele>1758.1</ele>
      </trkpt>
      <trkpt lat="45.32044" lon="5.8574">
        <ele>1756</ele>
      </trkpt>
      <trkpt lat="45.3205" lon="5.85748">
        <ele>1754.2</ele>
      </trkpt>
      <trkpt lat="45.32055" lon="5.8575">
        <ele>1753.2</ele>
      </trkpt>
      <trkpt lat="45.32062" lon="5.85753">
        <ele>1752.1</ele>
      </trkpt>
      <trkpt lat="45.32067" lon="5.85751">
        <ele>1751.1</ele>
      </trkpt>
      <trkpt lat="45.32071" lon="5.85753">
        <ele>1750.3</ele>
      </trkpt>
      <trkpt lat="45.32075" lon="5.85754">
        <ele>1749.8</ele>
      </trkpt>
      <trkpt lat="45.32074" lon="5.85761">
        <ele>1750.2</ele>
      </trkpt>
      <trkpt lat="45.32078" lon="5.85771">
        <ele>1750</ele>
      </trkpt>
      <trkpt lat="45.32079" lon="5.85777">
        <ele>1750.1</ele>
      </trkpt>
      <trkpt lat="45.3208" lon="5.85783">
        <ele>1750.3</ele>
      </trkpt>
      <trkpt lat="45.32082" lon="5.85787">
        <ele>1750</ele>
      </trkpt>
      <trkpt lat="45.32086" lon="5.85788">
        <ele>1749.2</ele>
      </trkpt>
      <trkpt lat="45.32088" lon="5.85787">
        <ele>1748.6</ele>
      </trkpt>
      <trkpt lat="45.3209" lon="5.85788">
        <ele>1748</ele>
      </trkpt>
      <trkpt lat="45.32092" lon="5.85791">
        <ele>1747.7</ele>
      </trkpt>
      <trkpt lat="45.32093" lon="5.85797">
        <ele>1747.6</ele>
      </trkpt>
      <trkpt lat="45.32097" lon="5.85801">
        <ele>1746.6</ele>
      </trkpt>
      <trkpt lat="45.32102" lon="5.85811">
        <ele>1745.4</ele>
      </trkpt>
      <trkpt lat="45.3211" lon="5.85817">
        <ele>1743</ele>
      </trkpt>
      <trkpt lat="45.32122" lon="5.85826">
        <ele>1739.4</ele>
      </trkpt>
      <trkpt lat="45.3213" lon="5.85834">
        <ele>1736.8</ele>
      </trkpt>
      <trkpt lat="45.3214" lon="5.85845">
        <ele>1734.8</ele>
      </trkpt>
      <trkpt lat="45.3215" lon="5.8586">
        <ele>1733.4</ele>
      </trkpt>
      <trkpt lat="45.32154" lon="5.85867">
        <ele>1732.9</ele>
      </trkpt>
      <trkpt lat="45.32157" lon="5.85876">
        <ele>1733</ele>
      </trkpt>
      <trkpt lat="45.32163" lon="5.85882">
        <ele>1732</ele>
      </trkpt>
      <trkpt lat="45.32166" lon="5.85891">
        <ele>1732.1</ele>
      </trkpt>
      <trkpt lat="45.32164" lon="5.85899">
        <ele>1733.6</ele>
      </trkpt>
      <trkpt lat="45.32169" lon="5.8592">
        <ele>1734.6</ele>
      </trkpt>
      <trkpt lat="45.32172" lon="5.8593">
        <ele>1734.8</ele>
      </trkpt>
      <trkpt lat="45.3218" lon="5.85943">
        <ele>1734</ele>
      </trkpt>
      <trkpt lat="45.32194" lon="5.85963">
        <ele>1732.3</ele>
      </trkpt>
      <trkpt lat="45.32196" lon="5.85977">
        <ele>1733.4</ele>
      </trkpt>
      <trkpt lat="45.32195" lon="5.85989">
        <ele>1735.1</ele>
      </trkpt>
      <trkpt lat="45.32197" lon="5.85992">
        <ele>1734.9</ele>
      </trkpt>
      <trkpt lat="45.32197" lon="5.85999">
        <ele>1735.9</ele>
      </trkpt>
      <trkpt lat="45.32196" lon="5.86006">
        <ele>1736.9</ele>
      </trkpt>
      <trkpt lat="45.32199" lon="5.86011">
        <ele>1736.8</ele>
      </trkpt>
      <trkpt lat="45.32199" lon="5.86023">
        <ele>1738.1</ele>
      </trkpt>
      <trkpt lat="45.32202" lon="5.86031">
        <ele>1738</ele>
      </trkpt>
      <trkpt lat="45.32207" lon="5.86036">
        <ele>1737.2</ele>
      </trkpt>
      <trkpt lat="45.32214" lon="5.86055">
        <ele>1737.4</ele>
      </trkpt>
      <trkpt lat="45.32224" lon="5.86081">
        <ele>1737.2</ele>
      </trkpt>
      <trkpt lat="45.32227" lon="5.86094">
        <ele>1737.8</ele>
      </trkpt>
      <trkpt lat="45.32227" lon="5.86103">
        <ele>1738.6</ele>
      </trkpt>
      <trkpt lat="45.32228" lon="5.86111">
        <ele>1739.3</ele>
      </trkpt>
      <trkpt lat="45.32231" lon="5.8612">
        <ele>1739.3</ele>
      </trkpt>
      <trkpt lat="45.32234" lon="5.86135">
        <ele>1740</ele>
      </trkpt>
      <trkpt lat="45.32232" lon="5.86144">
        <ele>1741.4</ele>
      </trkpt>
      <trkpt lat="45.32232" lon="5.86154">
        <ele>1742.5</ele>
      </trkpt>
      <trkpt lat="45.32239" lon="5.8618">
        <ele>1742.8</ele>
      </trkpt>
      <trkpt lat="45.32231" lon="5.86195">
        <ele>1745.9</ele>
      </trkpt>
      <trkpt lat="45.32231" lon="5.86199">
        <ele>1746</ele>
      </trkpt>
      <trkpt lat="45.32227" lon="5.86201">
        <ele>1747.3</ele>
      </trkpt>
      <trkpt lat="45.32226" lon="5.86215">
        <ele>1748.5</ele>
      </trkpt>
      <trkpt lat="45.32228" lon="5.86226">
        <ele>1748.6</ele>
      </trkpt>
      <trkpt lat="45.32233" lon="5.8623">
        <ele>1747.2</ele>
      </trkpt>
      <trkpt lat="45.32237" lon="5.86241">
        <ele>1746.6</ele>
      </trkpt>
      <trkpt lat="45.32244" lon="5.86248">
        <ele>1744.7</ele>
      </trkpt>
      <trkpt lat="45.32247" lon="5.86264">
        <ele>1744.6</ele>
      </trkpt>
      <trkpt lat="45.32243" lon="5.86267">
        <ele>1746</ele>
      </trkpt>
      <trkpt lat="45.32247" lon="5.8629">
        <ele>1745.5</ele>
      </trkpt>
      <trkpt lat="45.32242" lon="5.86291">
        <ele>1747.7</ele>
      </trkpt>
      <trkpt lat="45.32241" lon="5.86303">
        <ele>1748.7</ele>
      </trkpt>
      <trkpt lat="45.32245" lon="5.86324">
        <ele>1747.8</ele>
      </trkpt>
      <trkpt lat="45.32244" lon="5.8634">
        <ele>1749.5</ele>
      </trkpt>
      <trkpt lat="45.32249" lon="5.86373">
        <ele>1751.7</ele>
      </trkpt>
      <trkpt lat="45.32282" lon="5.86418">
        <ele>1747.3</ele>
      </trkpt>
      <trkpt lat="45.32295" lon="5.86429">
        <ele>1747.8</ele>
      </trkpt>
      <trkpt lat="45.32301" lon="5.86439">
        <ele>1750.2</ele>
      </trkpt>
      <trkpt lat="45.32308" lon="5.86439">
        <ele>1748.1</ele>
      </trkpt>
      <trkpt lat="45.32328" lon="5.8646">
        <ele>1752.3</ele>
      </trkpt>
      <trkpt lat="45.32331" lon="5.86469">
        <ele>1755.5</ele>
      </trkpt>
      <trkpt lat="45.32344" lon="5.86462">
        <ele>1751.4</ele>
      </trkpt>
      <trkpt lat="45.32351" lon="5.86468">
        <ele>1754.2</ele>
      </trkpt>
      <trkpt lat="45.32356" lon="5.86468">
        <ele>1754</ele>
      </trkpt>
      <trkpt lat="45.3236" lon="5.8646">
        <ele>1750</ele>
      </trkpt>
      <trkpt lat="45.32372" lon="5.86461">
        <ele>1749.9</ele>
      </trkpt>
      <trkpt lat="45.32379" lon="5.86466">
        <ele>1752</ele>
      </trkpt>
      <trkpt lat="45.3239" lon="5.86464">
        <ele>1751.1</ele>
      </trkpt>
      <trkpt lat="45.32398" lon="5.86458">
        <ele>1747.9</ele>
      </trkpt>
      <trkpt lat="45.32411" lon="5.86457">
        <ele>1747.2</ele>
      </trkpt>
      <trkpt lat="45.32425" lon="5.86454">
        <ele>1746.1</ele>
      </trkpt>
      <trkpt lat="45.32435" lon="5.86446">
        <ele>1742.4</ele>
      </trkpt>
      <trkpt lat="45.32439" lon="5.86446">
        <ele>1742.4</ele>
      </trkpt>
      <trkpt lat="45.32447" lon="5.8644">
        <ele>1739.1</ele>
      </trkpt>
      <trkpt lat="45.32472" lon="5.86444">
        <ele>1741.5</ele>
      </trkpt>
      <trkpt lat="45.32473" lon="5.86448">
        <ele>1744.2</ele>
      </trkpt>
      <trkpt lat="45.32481" lon="5.86451">
        <ele>1746.7</ele>
      </trkpt>
      <trkpt lat="45.32495" lon="5.86451">
        <ele>1747.3</ele>
      </trkpt>
      <trkpt lat="45.32512" lon="5.86444">
        <ele>1743.8</ele>
      </trkpt>
      <trkpt lat="45.32517" lon="5.86434">
        <ele>1737.2</ele>
      </trkpt>
      <trkpt lat="45.32555" lon="5.86423">
        <ele>1736.3</ele>
      </trkpt>
      <trkpt lat="45.32603" lon="5.86427">
        <ele>1738.6</ele>
      </trkpt>
      <trkpt lat="45.32615" lon="5.8643">
        <ele>1736.8</ele>
      </trkpt>
      <trkpt lat="45.32626" lon="5.86435">
        <ele>1736.5</ele>
      </trkpt>
      <trkpt lat="45.32635" lon="5.86436">
        <ele>1734.1</ele>
      </trkpt>
      <trkpt lat="45.32647" lon="5.86448">
        <ele>1735.6</ele>
      </trkpt>
      <trkpt lat="45.32667" lon="5.86459">
        <ele>1733.7</ele>
      </trkpt>
      <trkpt lat="45.32671" lon="5.86467">
        <ele>1734.3</ele>
      </trkpt>
      <trkpt lat="45.32686" lon="5.86478">
        <ele>1728.7</ele>
      </trkpt>
      <trkpt lat="45.32706" lon="5.86481">
        <ele>1717.1</ele>
      </trkpt>
      <trkpt lat="45.32712" lon="5.86487">
        <ele>1714.4</ele>
      </trkpt>
      <trkpt lat="45.32722" lon="5.86488">
        <ele>1707.9</ele>
      </trkpt>
      <trkpt lat="45.32734" lon="5.86497">
        <ele>1700.7</ele>
      </trkpt>
      <trkpt lat="45.32753" lon="5.86504">
        <ele>1693.8</ele>
      </trkpt>
      <trkpt lat="45.32773" lon="5.86507">
        <ele>1691.3</ele>
      </trkpt>
      <trkpt lat="45.32792" lon="5.86524">
        <ele>1706.2</ele>
      </trkpt>
      <trkpt lat="45.32808" lon="5.86526">
        <ele>1700.7</ele>
      </trkpt>
      <trkpt lat="45.32812" lon="5.86532">
        <ele>1705.6</ele>
      </trkpt>
      <trkpt lat="45.32816" lon="5.86533">
        <ele>1705</ele>
      </trkpt>
      <trkpt lat="45.32817" lon="5.86541">
        <ele>1712.4</ele>
      </trkpt>
      <trkpt lat="45.32822" lon="5.86534">
        <ele>1703.2</ele>
      </trkpt>
      <trkpt lat="45.32849" lon="5.86547">
        <ele>1702.5</ele>
      </trkpt>
      <trkpt lat="45.32851" lon="5.86545">
        <ele>1699.7</ele>
      </trkpt>
      <trkpt lat="45.32872" lon="5.86545">
        <ele>1691.5</ele>
      </trkpt>
      <trkpt lat="45.32877" lon="5.86543">
        <ele>1688.4</ele>
      </trkpt>
      <trkpt lat="45.32882" lon="5.86545">
        <ele>1687.2</ele>
      </trkpt>
      <trkpt lat="45.32912" lon="5.86542">
        <ele>1674.1</ele>
      </trkpt>
      <trkpt lat="45.3292" lon="5.86546">
        <ele>1673.7</ele>
      </trkpt>
      <trkpt lat="45.32928" lon="5.86549">
        <ele>1673.2</ele>
      </trkpt>
      <trkpt lat="45.32934" lon="5.86549">
        <ele>1671.9</ele>
      </trkpt>
      <trkpt lat="45.32937" lon="5.86554">
        <ele>1673</ele>
      </trkpt>
      <trkpt lat="45.32941" lon="5.86551">
        <ele>1671.2</ele>
      </trkpt>
      <trkpt lat="45.32943" lon="5.86553">
        <ele>1671.2</ele>
      </trkpt>
      <trkpt lat="45.32965" lon="5.86541">
        <ele>1664.5</ele>
      </trkpt>
      <trkpt lat="45.32965" lon="5.86547">
        <ele>1665.6</ele>
      </trkpt>
      <trkpt lat="45.3298" lon="5.86561">
        <ele>1664.5</ele>
      </trkpt>
      <trkpt lat="45.32981" lon="5.86568">
        <ele>1664.8</ele>
      </trkpt>
      <trkpt lat="45.32981" lon="5.8658">
        <ele>1666.4</ele>
      </trkpt>
      <trkpt lat="45.32985" lon="5.86591">
        <ele>1672</ele>
      </trkpt>
      <trkpt lat="45.32994" lon="5.86606">
        <ele>1680.3</ele>
      </trkpt>
      <trkpt lat="45.32996" lon="5.86618">
        <ele>1688.7</ele>
      </trkpt>
      <trkpt lat="45.33" lon="5.86625">
        <ele>1691.6</ele>
      </trkpt>
      <trkpt lat="45.32999" lon="5.86635">
        <ele>1700</ele>
      </trkpt>
      <trkpt lat="45.32996" lon="5.86647">
        <ele>1711.1</ele>
      </trkpt>
      <trkpt lat="45.32997" lon="5.86656">
        <ele>1717.8</ele>
      </trkpt>
      <trkpt lat="45.32998" lon="5.86662">
        <ele>1721.3</ele>
      </trkpt>
      <trkpt lat="45.33005" lon="5.86668">
        <ele>1719.9</ele>
      </trkpt>
      <trkpt lat="45.33023" lon="5.86682">
        <ele>1714.1</ele>
      </trkpt>
      <trkpt lat="45.33048" lon="5.86697">
        <ele>1705.9</ele>
      </trkpt>
      <trkpt lat="45.33058" lon="5.86708">
        <ele>1706.4</ele>
      </trkpt>
      <trkpt lat="45.33067" lon="5.86722">
        <ele>1710.5</ele>
      </trkpt>
      <trkpt lat="45.33083" lon="5.86743">
        <ele>1716.3</ele>
      </trkpt>
      <trkpt lat="45.33094" lon="5.86754">
        <ele>1714.3</ele>
      </trkpt>
      <trkpt lat="45.331" lon="5.86762">
        <ele>1710.3</ele>
      </trkpt>
      <trkpt lat="45.33105" lon="5.86773">
        <ele>1709.2</ele>
      </trkpt>
      <trkpt lat="45.33127" lon="5.86817">
        <ele>1714</ele>
      </trkpt>
      <trkpt lat="45.33133" lon="5.86833">
        <ele>1719.6</ele>
      </trkpt>
      <trkpt lat="45.33142" lon="5.86842">
        <ele>1719.6</ele>
      </trkpt>
      <trkpt lat="45.33142" lon="5.86858">
        <ele>1719.9</ele>
      </trkpt>
      <trkpt lat="45.33143" lon="5.86868">
        <ele>1720.1</ele>
      </trkpt>
      <trkpt lat="45.33145" lon="5.86874">
        <ele>1720.1</ele>
      </trkpt>
      <trkpt lat="45.33149" lon="5.8689">
        <ele>1720</ele>
      </trkpt>
      <trkpt lat="45.33162" lon="5.8691">
        <ele>1719.3</ele>
      </trkpt>
      <trkpt lat="45.33172" lon="5.86921">
        <ele>1718.8</ele>
      </trkpt>
      <trkpt lat="45.33178" lon="5.86928">
        <ele>1718.7</ele>
      </trkpt>
      <trkpt lat="45.33185" lon="5.86938">
        <ele>1718.6</ele>
      </trkpt>
      <trkpt lat="45.33184" lon="5.86949">
        <ele>1719.5</ele>
      </trkpt>
      <trkpt lat="45.33191" lon="5.86958">
        <ele>1719.1</ele>
      </trkpt>
      <trkpt lat="45.33199" lon="5.86969">
        <ele>1718.6</ele>
      </trkpt>
      <trkpt lat="45.33204" lon="5.86978">
        <ele>1718.3</ele>
      </trkpt>
      <trkpt lat="45.33209" lon="5.86987">
        <ele>1717.9</ele>
      </trkpt>
      <trkpt lat="45.33221" lon="5.87005">
        <ele>1716.8</ele>
      </trkpt>
      <trkpt lat="45.33226" lon="5.87016">
        <ele>1717.4</ele>
      </trkpt>
      <trkpt lat="45.33251" lon="5.87047">
        <ele>1716.5</ele>
      </trkpt>
      <trkpt lat="45.33262" lon="5.87064">
        <ele>1717.1</ele>
      </trkpt>
      <trkpt lat="45.33256" lon="5.87078">
        <ele>1719.5</ele>
      </trkpt>
      <trkpt lat="45.33257" lon="5.87084">
        <ele>1720.3</ele>
      </trkpt>
      <trkpt lat="45.33276" lon="5.87117">
        <ele>1729.4</ele>
      </trkpt>
      <trkpt lat="45.33278" lon="5.87128">
        <ele>1732.7</ele>
      </trkpt>
      <trkpt lat="45.3329" lon="5.87152">
        <ele>1737.4</ele>
      </trkpt>
      <trkpt lat="45.33303" lon="5.87173">
        <ele>1740.4</ele>
      </trkpt>
      <trkpt lat="45.33319" lon="5.87185">
        <ele>1739.9</ele>
      </trkpt>
      <trkpt lat="45.33333" lon="5.872">
        <ele>1741.9</ele>
      </trkpt>
      <trkpt lat="45.33343" lon="5.87209">
        <ele>1743.2</ele>
      </trkpt>
      <trkpt lat="45.33353" lon="5.87212">
        <ele>1742.4</ele>
      </trkpt>
      <trkpt lat="45.33378" lon="5.87224">
        <ele>1742.3</ele>
      </trkpt>
      <trkpt lat="45.33386" lon="5.87224">
        <ele>1740.5</ele>
      </trkpt>
      <trkpt lat="45.33395" lon="5.87224">
        <ele>1738.5</ele>
      </trkpt>
      <trkpt lat="45.33401" lon="5.87215">
        <ele>1733.7</ele>
      </trkpt>
      <trkpt lat="45.33423" lon="5.87205">
        <ele>1725.4</ele>
      </trkpt>
      <trkpt lat="45.33428" lon="5.87207">
        <ele>1725</ele>
      </trkpt>
      <trkpt lat="45.33439" lon="5.872">
        <ele>1720.1</ele>
      </trkpt>
      <trkpt lat="45.33449" lon="5.87199">
        <ele>1717.7</ele>
      </trkpt>
      <trkpt lat="45.33464" lon="5.87206">
        <ele>1717</ele>
      </trkpt>
      <trkpt lat="45.33472" lon="5.87204">
        <ele>1714.9</ele>
      </trkpt>
      <trkpt lat="45.33478" lon="5.87211">
        <ele>1716.1</ele>
      </trkpt>
      <trkpt lat="45.33483" lon="5.87212">
        <ele>1715.5</ele>
      </trkpt>
      <trkpt lat="45.33496" lon="5.87213">
        <ele>1713.1</ele>
      </trkpt>
      <trkpt lat="45.33512" lon="5.87225">
        <ele>1714.7</ele>
      </trkpt>
      <trkpt lat="45.33521" lon="5.87227">
        <ele>1714.1</ele>
      </trkpt>
      <trkpt lat="45.33524" lon="5.8723">
        <ele>1714.7</ele>
      </trkpt>
      <trkpt lat="45.3353" lon="5.8723">
        <ele>1713.5</ele>
      </trkpt>
      <trkpt lat="45.33539" lon="5.87235">
        <ele>1713.9</ele>
      </trkpt>
      <trkpt lat="45.33549" lon="5.87241">
        <ele>1714.8</ele>
      </trkpt>
      <trkpt lat="45.33556" lon="5.87243">
        <ele>1714.5</ele>
      </trkpt>
      <trkpt lat="45.33576" lon="5.87248">
        <ele>1713.5</ele>
      </trkpt>
      <trkpt lat="45.33592" lon="5.87247">
        <ele>1709.6</ele>
      </trkpt>
      <trkpt lat="45.33595" lon="5.87244">
        <ele>1707.7</ele>
      </trkpt>
      <trkpt lat="45.33599" lon="5.87243">
        <ele>1706.4</ele>
      </trkpt>
      <trkpt lat="45.33607" lon="5.87242">
        <ele>1703.9</ele>
      </trkpt>
      <trkpt lat="45.33611" lon="5.87245">
        <ele>1704.3</ele>
      </trkpt>
      <trkpt lat="45.33618" lon="5.87236">
        <ele>1699</ele>
      </trkpt>
      <trkpt lat="45.33624" lon="5.87238">
        <ele>1698.4</ele>
      </trkpt>
      <trkpt lat="45.33629" lon="5.87245">
        <ele>1700</ele>
      </trkpt>
      <trkpt lat="45.3364" lon="5.87247">
        <ele>1698.2</ele>
      </trkpt>
      <trkpt lat="45.33645" lon="5.8725">
        <ele>1698.3</ele>
      </trkpt>
      <trkpt lat="45.33651" lon="5.8725">
        <ele>1696.8</ele>
      </trkpt>
      <trkpt lat="45.33656" lon="5.87254">
        <ele>1697.5</ele>
      </trkpt>
      <trkpt lat="45.33661" lon="5.87255">
        <ele>1696.8</ele>
      </trkpt>
      <trkpt lat="45.33664" lon="5.87258">
        <ele>1698.1</ele>
      </trkpt>
      <trkpt lat="45.33667" lon="5.87257">
        <ele>1696.5</ele>
      </trkpt>
      <trkpt lat="45.33672" lon="5.87262">
        <ele>1698.1</ele>
      </trkpt>
      <trkpt lat="45.33673" lon="5.87259">
        <ele>1696.3</ele>
      </trkpt>
      <trkpt lat="45.33677" lon="5.87264">
        <ele>1697.8</ele>
      </trkpt>
      <trkpt lat="45.33684" lon="5.87261">
        <ele>1694.1</ele>
      </trkpt>
      <trkpt lat="45.33696" lon="5.87266">
        <ele>1693.4</ele>
      </trkpt>
      <trkpt lat="45.33705" lon="5.8727">
        <ele>1693.1</ele>
      </trkpt>
      <trkpt lat="45.33716" lon="5.87279">
        <ele>1695.2</ele>
      </trkpt>
      <trkpt lat="45.33726" lon="5.87286">
        <ele>1697.1</ele>
      </trkpt>
      <trkpt lat="45.33739" lon="5.87297">
        <ele>1699.9</ele>
      </trkpt>
      <trkpt lat="45.33755" lon="5.87288">
        <ele>1689.9</ele>
      </trkpt>
      <trkpt lat="45.33778" lon="5.87291">
        <ele>1682.8</ele>
      </trkpt>
      <trkpt lat="45.33798" lon="5.87297">
        <ele>1678.5</ele>
      </trkpt>
      <trkpt lat="45.33829" lon="5.87309">
        <ele>1673</ele>
      </trkpt>
      <trkpt lat="45.3384" lon="5.87315">
        <ele>1673.4</ele>
      </trkpt>
      <trkpt lat="45.33851" lon="5.8732">
        <ele>1673.2</ele>
      </trkpt>
      <trkpt lat="45.33862" lon="5.87325">
        <ele>1672.3</ele>
      </trkpt>
      <trkpt lat="45.33872" lon="5.87326">
        <ele>1670.4</ele>
      </trkpt>
      <trkpt lat="45.33881" lon="5.87329">
        <ele>1668.8</ele>
      </trkpt>
      <trkpt lat="45.33887" lon="5.87334">
        <ele>1669.4</ele>
      </trkpt>
      <trkpt lat="45.33896" lon="5.87344">
        <ele>1672.7</ele>
      </trkpt>
      <trkpt lat="45.33903" lon="5.87348">
        <ele>1673.4</ele>
      </trkpt>
      <trkpt lat="45.33906" lon="5.87349">
        <ele>1672.8</ele>
      </trkpt>
      <trkpt lat="45.33912" lon="5.87345">
        <ele>1668.9</ele>
      </trkpt>
      <trkpt lat="45.3392" lon="5.87339">
        <ele>1663.4</ele>
      </trkpt>
      <trkpt lat="45.33925" lon="5.87332">
        <ele>1660.1</ele>
      </trkpt>
      <trkpt lat="45.33936" lon="5.8732">
        <ele>1656.8</ele>
      </trkpt>
      <trkpt lat="45.33942" lon="5.87308">
        <ele>1653</ele>
      </trkpt>
      <trkpt lat="45.33945" lon="5.87305">
        <ele>1652</ele>
      </trkpt>
      <trkpt lat="45.33956" lon="5.87297">
        <ele>1649.2</ele>
      </trkpt>
      <trkpt lat="45.33962" lon="5.87289">
        <ele>1646.4</ele>
      </trkpt>
      <trkpt lat="45.33975" lon="5.87283">
        <ele>1643.9</ele>
      </trkpt>
      <trkpt lat="45.3398" lon="5.87272">
        <ele>1639.8</ele>
      </trkpt>
      <trkpt lat="45.33984" lon="5.8727">
        <ele>1638.9</ele>
      </trkpt>
      <trkpt lat="45.33987" lon="5.8727">
        <ele>1638.6</ele>
      </trkpt>
      <trkpt lat="45.33992" lon="5.87268">
        <ele>1637.8</ele>
      </trkpt>
      <trkpt lat="45.33999" lon="5.87271">
        <ele>1638.6</ele>
      </trkpt>
      <trkpt lat="45.34001" lon="5.87272">
        <ele>1639.4</ele>
      </trkpt>
      <trkpt lat="45.34014" lon="5.87266">
        <ele>1642.7</ele>
      </trkpt>
      <trkpt lat="45.3402" lon="5.87261">
        <ele>1643.5</ele>
      </trkpt>
      <trkpt lat="45.34025" lon="5.87255">
        <ele>1643.5</ele>
      </trkpt>
      <trkpt lat="45.34037" lon="5.87249">
        <ele>1646.3</ele>
      </trkpt>
      <trkpt lat="45.34046" lon="5.87234">
        <ele>1645.8</ele>
      </trkpt>
      <trkpt lat="45.34048" lon="5.8723">
        <ele>1645.5</ele>
      </trkpt>
      <trkpt lat="45.34051" lon="5.87226">
        <ele>1645.5</ele>
      </trkpt>
      <trkpt lat="45.34053" lon="5.87225">
        <ele>1646</ele>
      </trkpt>
      <trkpt lat="45.3406" lon="5.87223">
        <ele>1648.4</ele>
      </trkpt>
      <trkpt lat="45.34063" lon="5.87222">
        <ele>1649.3</ele>
      </trkpt>
      <trkpt lat="45.34065" lon="5.87222">
        <ele>1650.2</ele>
      </trkpt>
      <trkpt lat="45.34066" lon="5.87222">
        <ele>1650.7</ele>
      </trkpt>
      <trkpt lat="45.34068" lon="5.8722">
        <ele>1650.7</ele>
      </trkpt>
      <trkpt lat="45.34071" lon="5.87208">
        <ele>1648</ele>
      </trkpt>
      <trkpt lat="45.34077" lon="5.87199">
        <ele>1647.2</ele>
      </trkpt>
      <trkpt lat="45.34079" lon="5.87236">
        <ele>1660.9</ele>
      </trkpt>
      <trkpt lat="45.34078" lon="5.87255">
        <ele>1667.6</ele>
      </trkpt>
      <trkpt lat="45.34077" lon="5.8726">
        <ele>1669.5</ele>
      </trkpt>
      <trkpt lat="45.34073" lon="5.87265">
        <ele>1669.9</ele>
      </trkpt>
      <trkpt lat="45.34061" lon="5.87273">
        <ele>1667.8</ele>
      </trkpt>
      <trkpt lat="45.34055" lon="5.87281">
        <ele>1668.3</ele>
      </trkpt>
      <trkpt lat="45.34053" lon="5.87289">
        <ele>1670.7</ele>
      </trkpt>
      <trkpt lat="45.34052" lon="5.87294">
        <ele>1672.6</ele>
      </trkpt>
      <trkpt lat="45.34051" lon="5.87297">
        <ele>1673.4</ele>
      </trkpt>
      <trkpt lat="45.34044" lon="5.87309">
        <ele>1675.1</ele>
      </trkpt>
      <trkpt lat="45.34037" lon="5.87317">
        <ele>1675.6</ele>
      </trkpt>
      <trkpt lat="45.34026" lon="5.87333">
        <ele>1676.5</ele>
      </trkpt>
      <trkpt lat="45.34012" lon="5.87349">
        <ele>1677.6</ele>
      </trkpt>
      <trkpt lat="45.34004" lon="5.8736">
        <ele>1679.4</ele>
      </trkpt>
      <trkpt lat="45.34001" lon="5.87366">
        <ele>1681.3</ele>
      </trkpt>
      <trkpt lat="45.34009" lon="5.87369">
        <ele>1685.6</ele>
      </trkpt>
      <trkpt lat="45.34017" lon="5.87372">
        <ele>1690.5</ele>
      </trkpt>
      <trkpt lat="45.34032" lon="5.8738">
        <ele>1700.2</ele>
      </trkpt>
      <trkpt lat="45.34037" lon="5.87383">
        <ele>1703.3</ele>
      </trkpt>
      <trkpt lat="45.34044" lon="5.87386">
        <ele>1707.1</ele>
      </trkpt>
      <trkpt lat="45.3405" lon="5.87384">
        <ele>1708.4</ele>
      </trkpt>
      <trkpt lat="45.34058" lon="5.87383">
        <ele>1710.9</ele>
      </trkpt>
      <trkpt lat="45.34063" lon="5.87381">
        <ele>1712.2</ele>
      </trkpt>
      <trkpt lat="45.34071" lon="5.87381">
        <ele>1715.4</ele>
      </trkpt>
      <trkpt lat="45.34079" lon="5.87379">
        <ele>1717.7</ele>
      </trkpt>
      <trkpt lat="45.34084" lon="5.8738">
        <ele>1719.6</ele>
      </trkpt>
      <trkpt lat="45.34095" lon="5.87376">
        <ele>1719.9</ele>
      </trkpt>
      <trkpt lat="45.34096" lon="5.87378">
        <ele>1720.5</ele>
      </trkpt>
      <trkpt lat="45.34089" lon="5.87388">
        <ele>1722.6</ele>
      </trkpt>
      <trkpt lat="45.34081" lon="5.87402">
        <ele>1725.6</ele>
      </trkpt>
      <trkpt lat="45.34075" lon="5.87413">
        <ele>1727.6</ele>
      </trkpt>
      <trkpt lat="45.34069" lon="5.87423">
        <ele>1728.3</ele>
      </trkpt>
      <trkpt lat="45.34063" lon="5.87436">
        <ele>1729.5</ele>
      </trkpt>
      <trkpt lat="45.34057" lon="5.8745">
        <ele>1731.2</ele>
      </trkpt>
      <trkpt lat="45.34052" lon="5.87457">
        <ele>1731.6</ele>
      </trkpt>
      <trkpt lat="45.3405" lon="5.87462">
        <ele>1732.2</ele>
      </trkpt>
      <trkpt lat="45.34049" lon="5.87467">
        <ele>1733.1</ele>
      </trkpt>
      <trkpt lat="45.34043" lon="5.87473">
        <ele>1733.1</ele>
      </trkpt>
      <trkpt lat="45.34038" lon="5.87478">
        <ele>1732.9</ele>
      </trkpt>
      <trkpt lat="45.34033" lon="5.87487">
        <ele>1734.1</ele>
      </trkpt>
      <trkpt lat="45.34025" lon="5.87498">
        <ele>1735.3</ele>
      </trkpt>
      <trkpt lat="45.34025" lon="5.875">
        <ele>1735.7</ele>
      </trkpt>
      <trkpt lat="45.34032" lon="5.87501">
        <ele>1737.7</ele>
      </trkpt>
      <trkpt lat="45.34038" lon="5.87502">
        <ele>1739.7</ele>
      </trkpt>
      <trkpt lat="45.34045" lon="5.87502">
        <ele>1740.9</ele>
      </trkpt>
      <trkpt lat="45.34053" lon="5.87503">
        <ele>1743.2</ele>
      </trkpt>
      <trkpt lat="45.34062" lon="5.87501">
        <ele>1744.4</ele>
      </trkpt>
      <trkpt lat="45.34072" lon="5.87501">
        <ele>1746.8</ele>
      </trkpt>
      <trkpt lat="45.34076" lon="5.87499">
        <ele>1747</ele>
      </trkpt>
      <trkpt lat="45.34079" lon="5.87494">
        <ele>1746.7</ele>
      </trkpt>
      <trkpt lat="45.34084" lon="5.87491">
        <ele>1747</ele>
      </trkpt>
      <trkpt lat="45.34088" lon="5.87488">
        <ele>1748.2</ele>
      </trkpt>
      <trkpt lat="45.34094" lon="5.87488">
        <ele>1750.1</ele>
      </trkpt>
      <trkpt lat="45.341" lon="5.87485">
        <ele>1751.6</ele>
      </trkpt>
      <trkpt lat="45.3411" lon="5.87484">
        <ele>1754.6</ele>
      </trkpt>
      <trkpt lat="45.3412" lon="5.87483">
        <ele>1757.9</ele>
      </trkpt>
      <trkpt lat="45.34122" lon="5.87481">
        <ele>1757.8</ele>
      </trkpt>
      <trkpt lat="45.34125" lon="5.87481">
        <ele>1758.8</ele>
      </trkpt>
      <trkpt lat="45.34139" lon="5.87472">
        <ele>1759.8</ele>
      </trkpt>
      <trkpt lat="45.34148" lon="5.87464">
        <ele>1758.8</ele>
      </trkpt>
      <trkpt lat="45.34154" lon="5.87456">
        <ele>1756.3</ele>
      </trkpt>
      <trkpt lat="45.34159" lon="5.87449">
        <ele>1753.8</ele>
      </trkpt>
      <trkpt lat="45.34162" lon="5.87444">
        <ele>1751.7</ele>
      </trkpt>
      <trkpt lat="45.34168" lon="5.87437">
        <ele>1749.5</ele>
      </trkpt>
      <trkpt lat="45.34173" lon="5.87435">
        <ele>1751</ele>
      </trkpt>
      <trkpt lat="45.34178" lon="5.87432">
        <ele>1752</ele>
      </trkpt>
      <trkpt lat="45.34179" lon="5.87433">
        <ele>1753</ele>
      </trkpt>
      <trkpt lat="45.34179" lon="5.87438">
        <ele>1755.5</ele>
      </trkpt>
      <trkpt lat="45.34175" lon="5.87446">
        <ele>1757.9</ele>
      </trkpt>
      <trkpt lat="45.34176" lon="5.87448">
        <ele>1759</ele>
      </trkpt>
      <trkpt lat="45.3418" lon="5.87445">
        <ele>1759.9</ele>
      </trkpt>
      <trkpt lat="45.34188" lon="5.8744">
        <ele>1760.7</ele>
      </trkpt>
      <trkpt lat="45.34193" lon="5.87431">
        <ele>1758.7</ele>
      </trkpt>
      <trkpt lat="45.34196" lon="5.87423">
        <ele>1756.1</ele>
      </trkpt>
      <trkpt lat="45.34204" lon="5.87412">
        <ele>1756.8</ele>
      </trkpt>
      <trkpt lat="45.34209" lon="5.87408">
        <ele>1758.9</ele>
      </trkpt>
      <trkpt lat="45.34224" lon="5.87403">
        <ele>1766.9</ele>
      </trkpt>
      <trkpt lat="45.34225" lon="5.87404">
        <ele>1767.2</ele>
      </trkpt>
      <trkpt lat="45.34221" lon="5.87416">
        <ele>1765.7</ele>
      </trkpt>
      <trkpt lat="45.34218" lon="5.87428">
        <ele>1769.5</ele>
      </trkpt>
      <trkpt lat="45.34213" lon="5.8745">
        <ele>1777.9</ele>
      </trkpt>
      <trkpt lat="45.34212" lon="5.87463">
        <ele>1783.4</ele>
      </trkpt>
      <trkpt lat="45.34204" lon="5.87486">
        <ele>1790.7</ele>
      </trkpt>
      <trkpt lat="45.34193" lon="5.8751">
        <ele>1797.5</ele>
      </trkpt>
      <trkpt lat="45.34202" lon="5.87507">
        <ele>1800.2</ele>
      </trkpt>
      <trkpt lat="45.34214" lon="5.87501">
        <ele>1802.3</ele>
      </trkpt>
      <trkpt lat="45.34225" lon="5.87493">
        <ele>1802.9</ele>
      </trkpt>
      <trkpt lat="45.34231" lon="5.87488">
        <ele>1803</ele>
      </trkpt>
      <trkpt lat="45.34232" lon="5.87489">
        <ele>1804</ele>
      </trkpt>
      <trkpt lat="45.34229" lon="5.87498">
        <ele>1806.8</ele>
      </trkpt>
      <trkpt lat="45.34219" lon="5.87523">
        <ele>1816.1</ele>
      </trkpt>
      <trkpt lat="45.34207" lon="5.87546">
        <ele>1821.6</ele>
      </trkpt>
      <trkpt lat="45.34213" lon="5.87543">
        <ele>1823.9</ele>
      </trkpt>
      <trkpt lat="45.34229" lon="5.87533">
        <ele>1827.4</ele>
      </trkpt>
      <trkpt lat="45.34239" lon="5.87527">
        <ele>1829.2</ele>
      </trkpt>
      <trkpt lat="45.34249" lon="5.87521">
        <ele>1830</ele>
      </trkpt>
      <trkpt lat="45.34263" lon="5.87513">
        <ele>1821.6</ele>
      </trkpt>
      <trkpt lat="45.34273" lon="5.8751">
        <ele>1815.6</ele>
      </trkpt>
      <trkpt lat="45.34278" lon="5.87507">
        <ele>1811.6</ele>
      </trkpt>
      <trkpt lat="45.34267" lon="5.87535">
        <ele>1838.5</ele>
      </trkpt>
      <trkpt lat="45.3426" lon="5.87555">
        <ele>1854.2</ele>
      </trkpt>
      <trkpt lat="45.34256" lon="5.8756">
        <ele>1857.9</ele>
      </trkpt>
      <trkpt lat="45.34257" lon="5.87563">
        <ele>1860.2</ele>
      </trkpt>
      <trkpt lat="45.34265" lon="5.87558">
        <ele>1857</ele>
      </trkpt>
      <trkpt lat="45.34275" lon="5.87554">
        <ele>1854</ele>
      </trkpt>
      <trkpt lat="45.34278" lon="5.87554">
        <ele>1853.9</ele>
      </trkpt>
      <trkpt lat="45.34282" lon="5.87555">
        <ele>1855</ele>
      </trkpt>
      <trkpt lat="45.34287" lon="5.87553">
        <ele>1853</ele>
      </trkpt>
      <trkpt lat="45.34293" lon="5.87549">
        <ele>1849.2</ele>
      </trkpt>
      <trkpt lat="45.3429" lon="5.87557">
        <ele>1857.5</ele>
      </trkpt>
      <trkpt lat="45.34279" lon="5.87588">
        <ele>1881.7</ele>
      </trkpt>
      <trkpt lat="45.34274" lon="5.87607">
        <ele>1883.2</ele>
      </trkpt>
      <trkpt lat="45.3427" lon="5.87617">
        <ele>1884.2</ele>
      </trkpt>
      <trkpt lat="45.34267" lon="5.87628">
        <ele>1885.8</ele>
      </trkpt>
      <trkpt lat="45.34264" lon="5.87636">
        <ele>1886.9</ele>
      </trkpt>
      <trkpt lat="45.34261" lon="5.87641">
        <ele>1887.6</ele>
      </trkpt>
      <trkpt lat="45.34261" lon="5.87643">
        <ele>1888</ele>
      </trkpt>
      <trkpt lat="45.34268" lon="5.87643">
        <ele>1888.4</ele>
      </trkpt>
      <trkpt lat="45.34271" lon="5.8764">
        <ele>1888.1</ele>
      </trkpt>
      <trkpt lat="45.34273" lon="5.87641">
        <ele>1888.2</ele>
      </trkpt>
      <trkpt lat="45.3427" lon="5.87648">
        <ele>1889.2</ele>
      </trkpt>
      <trkpt lat="45.34268" lon="5.87656">
        <ele>1890.5</ele>
      </trkpt>
      <trkpt lat="45.34277" lon="5.87647">
        <ele>1889.2</ele>
      </trkpt>
      <trkpt lat="45.34281" lon="5.87643">
        <ele>1888.9</ele>
      </trkpt>
      <trkpt lat="45.34288" lon="5.87632">
        <ele>1888.1</ele>
      </trkpt>
      <trkpt lat="45.34291" lon="5.87632">
        <ele>1888.3</ele>
      </trkpt>
      <trkpt lat="45.34294" lon="5.87625">
        <ele>1888</ele>
      </trkpt>
      <trkpt lat="45.34312" lon="5.87601">
        <ele>1889.4</ele>
      </trkpt>
      <trkpt lat="45.34321" lon="5.87595">
        <ele>1891</ele>
      </trkpt>
      <trkpt lat="45.34341" lon="5.87574">
        <ele>1860.8</ele>
      </trkpt>
      <trkpt lat="45.34345" lon="5.87566">
        <ele>1839.8</ele>
      </trkpt>
      <trkpt lat="45.34352" lon="5.87572">
        <ele>1829.4</ele>
      </trkpt>
      <trkpt lat="45.34352" lon="5.87581">
        <ele>1837.7</ele>
      </trkpt>
      <trkpt lat="45.34361" lon="5.87581">
        <ele>1811.8</ele>
      </trkpt>
      <trkpt lat="45.3437" lon="5.87574">
        <ele>1783.6</ele>
      </trkpt>
      <trkpt lat="45.3437" lon="5.8758">
        <ele>1786.4</ele>
      </trkpt>
      <trkpt lat="45.34372" lon="5.87579">
        <ele>1780.6</ele>
      </trkpt>
      <trkpt lat="45.34375" lon="5.8758">
        <ele>1773.5</ele>
      </trkpt>
      <trkpt lat="45.34384" lon="5.87576">
        <ele>1745.3</ele>
      </trkpt>
      <trkpt lat="45.34418" lon="5.87575">
        <ele>1655.7</ele>
      </trkpt>
      <trkpt lat="45.34424" lon="5.87571">
        <ele>1656.5</ele>
      </trkpt>
      <trkpt lat="45.34435" lon="5.87581">
        <ele>1653.7</ele>
      </trkpt>
      <trkpt lat="45.3445" lon="5.87582">
        <ele>1652.7</ele>
      </trkpt>
      <trkpt lat="45.34458" lon="5.87589">
        <ele>1654.4</ele>
      </trkpt>
      <trkpt lat="45.34457" lon="5.87595">
        <ele>1657</ele>
      </trkpt>
      <trkpt lat="45.34461" lon="5.87595">
        <ele>1656.1</ele>
      </trkpt>
      <trkpt lat="45.34464" lon="5.87598">
        <ele>1656.8</ele>
      </trkpt>
      <trkpt lat="45.34471" lon="5.87599">
        <ele>1655</ele>
      </trkpt>
      <trkpt lat="45.34477" lon="5.87606">
        <ele>1654.6</ele>
      </trkpt>
      <trkpt lat="45.34482" lon="5.87615">
        <ele>1653.9</ele>
      </trkpt>
      <trkpt lat="45.34494" lon="5.87624">
        <ele>1646.8</ele>
      </trkpt>
      <trkpt lat="45.34516" lon="5.87651">
        <ele>1638.6</ele>
      </trkpt>
      <trkpt lat="45.34522" lon="5.87657">
        <ele>1637.3</ele>
      </trkpt>
      <trkpt lat="45.34529" lon="5.87661">
        <ele>1636.2</ele>
      </trkpt>
      <trkpt lat="45.34546" lon="5.87663">
        <ele>1634.8</ele>
      </trkpt>
      <trkpt lat="45.34545" lon="5.8767">
        <ele>1634.1</ele>
      </trkpt>
      <trkpt lat="45.34537" lon="5.87678">
        <ele>1634.3</ele>
      </trkpt>
      <trkpt lat="45.34527" lon="5.87684">
        <ele>1634.7</ele>
      </trkpt>
      <trkpt lat="45.34504" lon="5.87703">
        <ele>1635.4</ele>
      </trkpt>
      <trkpt lat="45.34496" lon="5.87721">
        <ele>1639.4</ele>
      </trkpt>
      <trkpt lat="45.34497" lon="5.87735">
        <ele>1637.9</ele>
      </trkpt>
      <trkpt lat="45.34491" lon="5.87745">
        <ele>1644.4</ele>
      </trkpt>
      <trkpt lat="45.34505" lon="5.87759">
        <ele>1648.9</ele>
      </trkpt>
      <trkpt lat="45.34498" lon="5.87773">
        <ele>1677.4</ele>
      </trkpt>
      <trkpt lat="45.34512" lon="5.87792">
        <ele>1702.1</ele>
      </trkpt>
      <trkpt lat="45.34507" lon="5.87816">
        <ele>1747.3</ele>
      </trkpt>
      <trkpt lat="45.34522" lon="5.87845">
        <ele>1764.4</ele>
      </trkpt>
      <trkpt lat="45.34552" lon="5.87882">
        <ele>1762.7</ele>
      </trkpt>
      <trkpt lat="45.34571" lon="5.87911">
        <ele>1780.7</ele>
      </trkpt>
      <trkpt lat="45.34585" lon="5.87923">
        <ele>1785.2</ele>
      </trkpt>
      <trkpt lat="45.34598" lon="5.87938">
        <ele>1777.5</ele>
      </trkpt>
      <trkpt lat="45.34608" lon="5.87948">
        <ele>1774.1</ele>
      </trkpt>
      <trkpt lat="45.34624" lon="5.87953">
        <ele>1768.1</ele>
      </trkpt>
      <trkpt lat="45.34641" lon="5.87967">
        <ele>1772.5</ele>
      </trkpt>
      <trkpt lat="45.34653" lon="5.87976">
        <ele>1778.3</ele>
      </trkpt>
      <trkpt lat="45.34662" lon="5.87985">
        <ele>1787.6</ele>
      </trkpt>
      <trkpt lat="45.34697" lon="5.88006">
        <ele>1813.8</ele>
      </trkpt>
      <trkpt lat="45.3472" lon="5.88036">
        <ele>1822.5</ele>
      </trkpt>
      <trkpt lat="45.34748" lon="5.88044">
        <ele>1827.4</ele>
      </trkpt>
      <trkpt lat="45.34811" lon="5.88039">
        <ele>1688.6</ele>
      </trkpt>
      <trkpt lat="45.34834" lon="5.88048">
        <ele>1647.6</ele>
      </trkpt>
      <trkpt lat="45.34864" lon="5.88049">
        <ele>1622</ele>
      </trkpt>
      <trkpt lat="45.34892" lon="5.88068">
        <ele>1602.2</ele>
      </trkpt>
      <trkpt lat="45.34903" lon="5.88082">
        <ele>1591.2</ele>
      </trkpt>
      <trkpt lat="45.34932" lon="5.88085">
        <ele>1573.3</ele>
      </trkpt>
      <trkpt lat="45.34962" lon="5.88081">
        <ele>1571.1</ele>
      </trkpt>
      <trkpt lat="45.34991" lon="5.88094">
        <ele>1581.2</ele>
      </trkpt>
      <trkpt lat="45.35014" lon="5.8811">
        <ele>1592.8</ele>
      </trkpt>
      <trkpt lat="45.35047" lon="5.88142">
        <ele>1609.1</ele>
      </trkpt>
      <trkpt lat="45.35063" lon="5.88163">
        <ele>1616.4</ele>
      </trkpt>
      <trkpt lat="45.35073" lon="5.88162">
        <ele>1611.8</ele>
      </trkpt>
      <trkpt lat="45.35085" lon="5.88135">
        <ele>1594.8</ele>
      </trkpt>
      <trkpt lat="45.35089" lon="5.88127">
        <ele>1590.1</ele>
      </trkpt>
      <trkpt lat="45.35098" lon="5.88125">
        <ele>1587</ele>
      </trkpt>
      <trkpt lat="45.35115" lon="5.8812">
        <ele>1581.8</ele>
      </trkpt>
      <trkpt lat="45.3513" lon="5.88132">
        <ele>1580.9</ele>
      </trkpt>
      <trkpt lat="45.35137" lon="5.88144">
        <ele>1580.9</ele>
      </trkpt>
      <trkpt lat="45.35147" lon="5.88147">
        <ele>1577.9</ele>
      </trkpt>
      <trkpt lat="45.35164" lon="5.88152">
        <ele>1572.1</ele>
      </trkpt>
      <trkpt lat="45.35194" lon="5.88153">
        <ele>1572.7</ele>
      </trkpt>
      <trkpt lat="45.35235" lon="5.88162">
        <ele>1575.6</ele>
      </trkpt>
      <trkpt lat="45.35266" lon="5.88161">
        <ele>1578.3</ele>
      </trkpt>
      <trkpt lat="45.35306" lon="5.88166">
        <ele>1582.4</ele>
      </trkpt>
      <trkpt lat="45.35342" lon="5.88184">
        <ele>1592.5</ele>
      </trkpt>
      <trkpt lat="45.35372" lon="5.8821">
        <ele>1597.2</ele>
      </trkpt>
      <trkpt lat="45.35385" lon="5.88249">
        <ele>1600.9</ele>
      </trkpt>
      <trkpt lat="45.35414" lon="5.88266">
        <ele>1621.6</ele>
      </trkpt>
      <trkpt lat="45.35426" lon="5.88279">
        <ele>1642.3</ele>
      </trkpt>
      <trkpt lat="45.35452" lon="5.88293">
        <ele>1655.2</ele>
      </trkpt>
      <trkpt lat="45.35479" lon="5.88312">
        <ele>1665</ele>
      </trkpt>
      <trkpt lat="45.35512" lon="5.88348">
        <ele>1672.3</ele>
      </trkpt>
      <trkpt lat="45.35567" lon="5.88391">
        <ele>1669.5</ele>
      </trkpt>
      <trkpt lat="45.3561" lon="5.88426">
        <ele>1654.1</ele>
      </trkpt>
      <trkpt lat="45.35636" lon="5.88426">
        <ele>1621</ele>
      </trkpt>
      <trkpt lat="45.35652" lon="5.88439">
        <ele>1627.1</ele>
      </trkpt>
      <trkpt lat="45.35661" lon="5.8844">
        <ele>1619.9</ele>
      </trkpt>
      <trkpt lat="45.35689" lon="5.88461">
        <ele>1642.4</ele>
      </trkpt>
      <trkpt lat="45.35723" lon="5.88466">
        <ele>1623</ele>
      </trkpt>
      <trkpt lat="45.35745" lon="5.88468">
        <ele>1606.4</ele>
      </trkpt>
      <trkpt lat="45.35751" lon="5.88465">
        <ele>1598.3</ele>
      </trkpt>
      <trkpt lat="45.35765" lon="5.88456">
        <ele>1578.5</ele>
      </trkpt>
      <trkpt lat="45.35797" lon="5.88444">
        <ele>1548.4</ele>
      </trkpt>
      <trkpt lat="45.35811" lon="5.88433">
        <ele>1536.6</ele>
      </trkpt>
      <trkpt lat="45.35857" lon="5.88398">
        <ele>1529.7</ele>
      </trkpt>
      <trkpt lat="45.35875" lon="5.88396">
        <ele>1528.9</ele>
      </trkpt>
      <trkpt lat="45.35899" lon="5.884">
        <ele>1527</ele>
      </trkpt>
      <trkpt lat="45.35946" lon="5.88399">
        <ele>1526</ele>
      </trkpt>
      <trkpt lat="45.36018" lon="5.88407">
        <ele>1526.4</ele>
      </trkpt>
      <trkpt lat="45.36043" lon="5.88413">
        <ele>1527</ele>
      </trkpt>
      <trkpt lat="45.36073" lon="5.88437">
        <ele>1527.5</ele>
      </trkpt>
      <trkpt lat="45.36101" lon="5.88449">
        <ele>1527.5</ele>
      </trkpt>
      <trkpt lat="45.36137" lon="5.88477">
        <ele>1526.8</ele>
      </trkpt>
      <trkpt lat="45.36194" lon="5.88506">
        <ele>1526</ele>
      </trkpt>
      <trkpt lat="45.36236" lon="5.88502">
        <ele>1526</ele>
      </trkpt>
      <trkpt lat="45.36282" lon="5.88514">
        <ele>1526</ele>
      </trkpt>
      <trkpt lat="45.36301" lon="5.88498">
        <ele>1526</ele>
      </trkpt>
      <trkpt lat="45.36338" lon="5.88495">
        <ele>1526</ele>
      </trkpt>
      <trkpt lat="45.36368" lon="5.88499">
        <ele>1526</ele>
      </trkpt>
      <trkpt lat="45.3638" lon="5.88507">
        <ele>1526</ele>
      </trkpt>
      <trkpt lat="45.36419" lon="5.8852">
        <ele>1526</ele>
      </trkpt>
      <trkpt lat="45.3645" lon="5.88535">
        <ele>1526</ele>
      </trkpt>
      <trkpt lat="45.36476" lon="5.88546">
        <ele>1526</ele>
      </trkpt>
      <trkpt lat="45.36498" lon="5.88553">
        <ele>1526</ele>
      </trkpt>
      <trkpt lat="45.36519" lon="5.88558">
        <ele>1526</ele>
      </trkpt>
      <trkpt lat="45.36587" lon="5.88585">
        <ele>1526</ele>
      </trkpt>
      <trkpt lat="45.36634" lon="5.88609">
        <ele>1526</ele>
      </trkpt>
      <trkpt lat="45.36661" lon="5.88626">
        <ele>1526</ele>
      </trkpt>
      <trkpt lat="45.36701" lon="5.88639">
        <ele>1529.6</ele>
      </trkpt>
      <trkpt lat="45.36738" lon="5.88666">
        <ele>1537</ele>
      </trkpt>
      <trkpt lat="45.36776" lon="5.88686">
        <ele>1608.4</ele>
      </trkpt>
      <trkpt lat="45.36786" lon="5.88707">
        <ele>1659.6</ele>
      </trkpt>
      <trkpt lat="45.36808" lon="5.88722">
        <ele>1726.3</ele>
      </trkpt>
      <trkpt lat="45.36834" lon="5.88734">
        <ele>1803.7</ele>
      </trkpt>
      <trkpt lat="45.36858" lon="5.88753">
        <ele>1834.7</ele>
      </trkpt>
      <trkpt lat="45.36875" lon="5.8877">
        <ele>1834.4</ele>
      </trkpt>
      <trkpt lat="45.36898" lon="5.88809">
        <ele>1834.1</ele>
      </trkpt>
      <trkpt lat="45.36918" lon="5.8884">
        <ele>1832.2</ele>
      </trkpt>
      <trkpt lat="45.36945" lon="5.88853">
        <ele>1829.9</ele>
      </trkpt>
      <trkpt lat="45.36979" lon="5.88866">
        <ele>1830.8</ele>
      </trkpt>
      <trkpt lat="45.37039" lon="5.88871">
        <ele>1832.3</ele>
      </trkpt>
      <trkpt lat="45.37062" lon="5.88911">
        <ele>1831.6</ele>
      </trkpt>
      <trkpt lat="45.37098" lon="5.88934">
        <ele>1817.6</ele>
      </trkpt>
      <trkpt lat="45.37118" lon="5.88927">
        <ele>1822.5</ele>
      </trkpt>
      <trkpt lat="45.37138" lon="5.88935">
        <ele>1815.6</ele>
      </trkpt>
      <trkpt lat="45.37158" lon="5.88964">
        <ele>1793.7</ele>
      </trkpt>
      <trkpt lat="45.37178" lon="5.88988">
        <ele>1775.1</ele>
      </trkpt>
      <trkpt lat="45.37207" lon="5.89027">
        <ele>1745.7</ele>
      </trkpt>
      <trkpt lat="45.37271" lon="5.89076">
        <ele>1710.3</ele>
      </trkpt>
      <trkpt lat="45.37304" lon="5.89109">
        <ele>1705</ele>
      </trkpt>
      <trkpt lat="45.37321" lon="5.89125">
        <ele>1705</ele>
      </trkpt>
      <trkpt lat="45.37344" lon="5.89144">
        <ele>1705</ele>
      </trkpt>
      <trkpt lat="45.37396" lon="5.89169">
        <ele>1704.4</ele>
      </trkpt>
      <trkpt lat="45.37437" lon="5.89168">
        <ele>1697.2</ele>
      </trkpt>
      <trkpt lat="45.3752" lon="5.89196">
        <ele>1665</ele>
      </trkpt>
      <trkpt lat="45.37625" lon="5.89278">
        <ele>1653</ele>
      </trkpt>
      <trkpt lat="45.37749" lon="5.89321">
        <ele>1651</ele>
      </trkpt>
      <trkpt lat="45.37764" lon="5.89318">
        <ele>1651</ele>
      </trkpt>
      <trkpt lat="45.37807" lon="5.89338">
        <ele>1651</ele>
      </trkpt>
      <trkpt lat="45.37845" lon="5.89341">
        <ele>1651</ele>
      </trkpt>
      <trkpt lat="45.37872" lon="5.89342">
        <ele>1651</ele>
      </trkpt>
      <trkpt lat="45.37892" lon="5.89332">
        <ele>1651</ele>
      </trkpt>
      <trkpt lat="45.37923" lon="5.89353">
        <ele>1651</ele>
      </trkpt>
      <trkpt lat="45.37958" lon="5.89365">
        <ele>1651</ele>
      </trkpt>
      <trkpt lat="45.37974" lon="5.89367">
        <ele>1651</ele>
      </trkpt>
      <trkpt lat="45.38003" lon="5.89371">
        <ele>1651.1</ele>
      </trkpt>
      <trkpt lat="45.38017" lon="5.89369">
        <ele>1651.6</ele>
      </trkpt>
      <trkpt lat="45.38044" lon="5.89378">
        <ele>1653</ele>
      </trkpt>
      <trkpt lat="45.38059" lon="5.89394">
        <ele>1654.6</ele>
      </trkpt>
      <trkpt lat="45.38086" lon="5.89403">
        <ele>1657.1</ele>
      </trkpt>
      <trkpt lat="45.38122" lon="5.89413">
        <ele>1661.3</ele>
      </trkpt>
      <trkpt lat="45.38173" lon="5.89447">
        <ele>1655.9</ele>
      </trkpt>
      <trkpt lat="45.38217" lon="5.89458">
        <ele>1589.9</ele>
      </trkpt>
      <trkpt lat="45.38258" lon="5.89472">
        <ele>1533.2</ele>
      </trkpt>
      <trkpt lat="45.38287" lon="5.89473">
        <ele>1505.6</ele>
      </trkpt>
      <trkpt lat="45.3833" lon="5.89492">
        <ele>1473.6</ele>
      </trkpt>
      <trkpt lat="45.38344" lon="5.89509">
        <ele>1477.4</ele>
      </trkpt>
      <trkpt lat="45.38371" lon="5.8952">
        <ele>1471.9</ele>
      </trkpt>
      <trkpt lat="45.38422" lon="5.89553">
        <ele>1466</ele>
      </trkpt>
      <trkpt lat="45.3844" lon="5.8956">
        <ele>1464.4</ele>
      </trkpt>
      <trkpt lat="45.38468" lon="5.89576">
        <ele>1462.7</ele>
      </trkpt>
      <trkpt lat="45.38478" lon="5.89576">
        <ele>1459</ele>
      </trkpt>
      <trkpt lat="45.38504" lon="5.89571">
        <ele>1450</ele>
      </trkpt>
      <trkpt lat="45.38531" lon="5.89606">
        <ele>1463.3</ele>
      </trkpt>
      <trkpt lat="45.38563" lon="5.89627">
        <ele>1469.3</ele>
      </trkpt>
      <trkpt lat="45.38583" lon="5.8964">
        <ele>1470.7</ele>
      </trkpt>
      <trkpt lat="45.38592" lon="5.89631">
        <ele>1468.4</ele>
      </trkpt>
      <trkpt lat="45.38617" lon="5.89646">
        <ele>1475.6</ele>
      </trkpt>
      <trkpt lat="45.38636" lon="5.89667">
        <ele>1485.3</ele>
      </trkpt>
      <trkpt lat="45.38666" lon="5.89704">
        <ele>1490.8</ele>
      </trkpt>
      <trkpt lat="45.38699" lon="5.89726">
        <ele>1491.6</ele>
      </trkpt>
      <trkpt lat="45.38732" lon="5.89748">
        <ele>1492.9</ele>
      </trkpt>
      <trkpt lat="45.3876" lon="5.8977">
        <ele>1494.7</ele>
      </trkpt>
      <trkpt lat="45.38809" lon="5.89831">
        <ele>1501.7</ele>
      </trkpt>
      <trkpt lat="45.38841" lon="5.89862">
        <ele>1507</ele>
      </trkpt>
      <trkpt lat="45.38854" lon="5.89884">
        <ele>1509.6</ele>
      </trkpt>
      <trkpt lat="45.38882" lon="5.89902">
        <ele>1509.3</ele>
      </trkpt>
      <trkpt lat="45.38922" lon="5.89907">
        <ele>1504.6</ele>
      </trkpt>
      <trkpt lat="45.38937" lon="5.89915">
        <ele>1503.9</ele>
      </trkpt>
      <trkpt lat="45.38981" lon="5.89973">
        <ele>1511.5</ele>
      </trkpt>
      <trkpt lat="45.38992" lon="5.89976">
        <ele>1510.5</ele>
      </trkpt>
      <trkpt lat="45.39006" lon="5.89974">
        <ele>1509.3</ele>
      </trkpt>
      <trkpt lat="45.39019" lon="5.8998">
        <ele>1511.7</ele>
      </trkpt>
      <trkpt lat="45.3903" lon="5.89972">
        <ele>1510.9</ele>
      </trkpt>
      <trkpt lat="45.39039" lon="5.89963">
        <ele>1509.3</ele>
      </trkpt>
      <trkpt lat="45.39052" lon="5.89962">
        <ele>1510.3</ele>
      </trkpt>
      <trkpt lat="45.39063" lon="5.89965">
        <ele>1511.9</ele>
      </trkpt>
      <trkpt lat="45.39072" lon="5.89958">
        <ele>1510.9</ele>
      </trkpt>
      <trkpt lat="45.39082" lon="5.89955">
        <ele>1511.1</ele>
      </trkpt>
      <trkpt lat="45.39079" lon="5.8997">
        <ele>1514.4</ele>
      </trkpt>
      <trkpt lat="45.39076" lon="5.89976">
        <ele>1515.6</ele>
      </trkpt>
      <trkpt lat="45.39065" lon="5.89996">
        <ele>1519.4</ele>
      </trkpt>
      <trkpt lat="45.39055" lon="5.90005">
        <ele>1521.1</ele>
      </trkpt>
      <trkpt lat="45.39048" lon="5.90012">
        <ele>1522.7</ele>
      </trkpt>
      <trkpt lat="45.39052" lon="5.90019">
        <ele>1525.4</ele>
      </trkpt>
      <trkpt lat="45.3907" lon="5.9002">
        <ele>1526.9</ele>
      </trkpt>
      <trkpt lat="45.39084" lon="5.90023">
        <ele>1529.1</ele>
      </trkpt>
      <trkpt lat="45.39098" lon="5.9001">
        <ele>1527.8</ele>
      </trkpt>
      <trkpt lat="45.39106" lon="5.90016">
        <ele>1530.8</ele>
      </trkpt>
      <trkpt lat="45.39119" lon="5.9001">
        <ele>1531.7</ele>
      </trkpt>
      <trkpt lat="45.39161" lon="5.89985">
        <ele>1533.2</ele>
      </trkpt>
      <trkpt lat="45.39199" lon="5.89973">
        <ele>1530.9</ele>
      </trkpt>
      <trkpt lat="45.39237" lon="5.89979">
        <ele>1532.9</ele>
      </trkpt>
      <trkpt lat="45.39259" lon="5.8997">
        <ele>1526.9</ele>
      </trkpt>
      <trkpt lat="45.39276" lon="5.89971">
        <ele>1523.3</ele>
      </trkpt>
      <trkpt lat="45.39291" lon="5.89983">
        <ele>1524.5</ele>
      </trkpt>
      <trkpt lat="45.39296" lon="5.9">
        <ele>1529.3</ele>
      </trkpt>
      <trkpt lat="45.39296" lon="5.90016">
        <ele>1535.2</ele>
      </trkpt>
      <trkpt lat="45.39296" lon="5.90034">
        <ele>1542.1</ele>
      </trkpt>
      <trkpt lat="45.39287" lon="5.9007">
        <ele>1556.7</ele>
      </trkpt>
      <trkpt lat="45.39284" lon="5.901">
        <ele>1565.3</ele>
      </trkpt>
      <trkpt lat="45.39282" lon="5.90118">
        <ele>1569.3</ele>
      </trkpt>
      <trkpt lat="45.39289" lon="5.90136">
        <ele>1571.4</ele>
      </trkpt>
      <trkpt lat="45.39296" lon="5.90148">
        <ele>1571.3</ele>
      </trkpt>
      <trkpt lat="45.39303" lon="5.90185">
        <ele>1569</ele>
      </trkpt>
      <trkpt lat="45.39306" lon="5.90191">
        <ele>1567.1</ele>
      </trkpt>
      <trkpt lat="45.39305" lon="5.90197">
        <ele>1566.7</ele>
      </trkpt>
      <trkpt lat="45.39305" lon="5.90208">
        <ele>1565</ele>
      </trkpt>
      <trkpt lat="45.39309" lon="5.90209">
        <ele>1563.4</ele>
      </trkpt>
      <trkpt lat="45.39307" lon="5.90221">
        <ele>1562.4</ele>
      </trkpt>
      <trkpt lat="45.39316" lon="5.90241">
        <ele>1555.7</ele>
      </trkpt>
      <trkpt lat="45.39316" lon="5.90251">
        <ele>1554.3</ele>
      </trkpt>
      <trkpt lat="45.39319" lon="5.90262">
        <ele>1554.2</ele>
      </trkpt>
      <trkpt lat="45.39336" lon="5.90311">
        <ele>1552.1</ele>
      </trkpt>
      <trkpt lat="45.39351" lon="5.90364">
        <ele>1555.3</ele>
      </trkpt>
      <trkpt lat="45.3938" lon="5.90396">
        <ele>1555.6</ele>
      </trkpt>
      <trkpt lat="45.394" lon="5.90404">
        <ele>1554.3</ele>
      </trkpt>
      <trkpt lat="45.39426" lon="5.90421">
        <ele>1552.7</ele>
      </trkpt>
      <trkpt lat="45.39442" lon="5.90446">
        <ele>1552.3</ele>
      </trkpt>
      <trkpt lat="45.39464" lon="5.90501">
        <ele>1554.7</ele>
      </trkpt>
      <trkpt lat="45.39488" lon="5.90527">
        <ele>1555.3</ele>
      </trkpt>
      <trkpt lat="45.39505" lon="5.90582">
        <ele>1561.7</ele>
      </trkpt>
      <trkpt lat="45.39534" lon="5.90618">
        <ele>1560.9</ele>
      </trkpt>
      <trkpt lat="45.39564" lon="5.90669">
        <ele>1561.7</ele>
      </trkpt>
      <trkpt lat="45.39586" lon="5.90705">
        <ele>1565.1</ele>
      </trkpt>
      <trkpt lat="45.3964" lon="5.90747">
        <ele>1566.5</ele>
      </trkpt>
      <trkpt lat="45.39656" lon="5.90738">
        <ele>1561.4</ele>
      </trkpt>
      <trkpt lat="45.39678" lon="5.90732">
        <ele>1556.3</ele>
      </trkpt>
      <trkpt lat="45.39702" lon="5.90722">
        <ele>1550</ele>
      </trkpt>
      <trkpt lat="45.39757" lon="5.90732">
        <ele>1544.1</ele>
      </trkpt>
      <trkpt lat="45.39787" lon="5.90733">
        <ele>1539.1</ele>
      </trkpt>
      <trkpt lat="45.39825" lon="5.90736">
        <ele>1533.6</ele>
      </trkpt>
      <trkpt lat="45.39847" lon="5.90743">
        <ele>1533.1</ele>
      </trkpt>
      <trkpt lat="45.39896" lon="5.90746">
        <ele>1529.1</ele>
      </trkpt>
      <trkpt lat="45.39948" lon="5.90759">
        <ele>1527.2</ele>
      </trkpt>
      <trkpt lat="45.39989" lon="5.9076">
        <ele>1521.4</ele>
      </trkpt>
      <trkpt lat="45.40026" lon="5.90766">
        <ele>1514.6</ele>
      </trkpt>
      <trkpt lat="45.40083" lon="5.9078">
        <ele>1504.3</ele>
      </trkpt>
      <trkpt lat="45.40109" lon="5.90814">
        <ele>1505.6</ele>
      </trkpt>
      <trkpt lat="45.40159" lon="5.90841">
        <ele>1496.8</ele>
      </trkpt>
      <trkpt lat="45.40241" lon="5.90875">
        <ele>1490.2</ele>
      </trkpt>
      <trkpt lat="45.40284" lon="5.90922">
        <ele>1492.8</ele>
      </trkpt>
      <trkpt lat="45.40326" lon="5.90956">
        <ele>1493.8</ele>
      </trkpt>
      <trkpt lat="45.40357" lon="5.90985">
        <ele>1494.5</ele>
      </trkpt>
      <trkpt lat="45.40381" lon="5.91001">
        <ele>1493.1</ele>
      </trkpt>
      <trkpt lat="45.40399" lon="5.91015">
        <ele>1492.9</ele>
      </trkpt>
      <trkpt lat="45.40435" lon="5.91013">
        <ele>1485.3</ele>
      </trkpt>
      <trkpt lat="45.40448" lon="5.91">
        <ele>1479.6</ele>
      </trkpt>
      <trkpt lat="45.40484" lon="5.9099">
        <ele>1471.1</ele>
      </trkpt>
      <trkpt lat="45.40491" lon="5.9096">
        <ele>1466.5</ele>
      </trkpt>
      <trkpt lat="45.40504" lon="5.90945">
        <ele>1464.9</ele>
      </trkpt>
      <trkpt lat="45.40508" lon="5.90934">
        <ele>1465.6</ele>
      </trkpt>
      <trkpt lat="45.40556" lon="5.91002">
        <ele>1481.2</ele>
      </trkpt>
      <trkpt lat="45.40587" lon="5.91025">
        <ele>1486.6</ele>
      </trkpt>
      <trkpt lat="45.40605" lon="5.91049">
        <ele>1491.5</ele>
      </trkpt>
      <trkpt lat="45.40624" lon="5.91082">
        <ele>1492.1</ele>
      </trkpt>
      <trkpt lat="45.40633" lon="5.91076">
        <ele>1496</ele>
      </trkpt>
      <trkpt lat="45.40643" lon="5.91084">
        <ele>1497.2</ele>
      </trkpt>
      <trkpt lat="45.40659" lon="5.91106">
        <ele>1500.6</ele>
      </trkpt>
      <trkpt lat="45.40665" lon="5.91151">
        <ele>1499</ele>
      </trkpt>
      <trkpt lat="45.40678" lon="5.91173">
        <ele>1502.5</ele>
      </trkpt>
      <trkpt lat="45.40691" lon="5.91197">
        <ele>1507.3</ele>
      </trkpt>
      <trkpt lat="45.40717" lon="5.91242">
        <ele>1511.1</ele>
      </trkpt>
      <trkpt lat="45.40726" lon="5.91262">
        <ele>1512.4</ele>
      </trkpt>
      <trkpt lat="45.40739" lon="5.91258">
        <ele>1512.6</ele>
      </trkpt>
      <trkpt lat="45.40752" lon="5.91278">
        <ele>1514.1</ele>
      </trkpt>
      <trkpt lat="45.40761" lon="5.91293">
        <ele>1516.2</ele>
      </trkpt>
      <trkpt lat="45.40772" lon="5.91288">
        <ele>1518.3</ele>
      </trkpt>
      <trkpt lat="45.40784" lon="5.91288">
        <ele>1520.6</ele>
      </trkpt>
      <trkpt lat="45.4079" lon="5.91277">
        <ele>1522.2</ele>
      </trkpt>
      <trkpt lat="45.40801" lon="5.91276">
        <ele>1524.5</ele>
      </trkpt>
      <trkpt lat="45.40812" lon="5.91287">
        <ele>1526.2</ele>
      </trkpt>
      <trkpt lat="45.40815" lon="5.91309">
        <ele>1525.3</ele>
      </trkpt>
      <trkpt lat="45.40824" lon="5.91318">
        <ele>1526</ele>
      </trkpt>
      <trkpt lat="45.40833" lon="5.91316">
        <ele>1527.6</ele>
      </trkpt>
      <trkpt lat="45.4084" lon="5.91307">
        <ele>1531.8</ele>
      </trkpt>
      <trkpt lat="45.4084" lon="5.91276">
        <ele>1534.9</ele>
      </trkpt>
      <trkpt lat="45.4084" lon="5.9125">
        <ele>1537.6</ele>
      </trkpt>
      <trkpt lat="45.40839" lon="5.91233">
        <ele>1541.9</ele>
      </trkpt>
      <trkpt lat="45.40838" lon="5.91227">
        <ele>1543</ele>
      </trkpt>
      <trkpt lat="45.40831" lon="5.91167">
        <ele>1556.9</ele>
      </trkpt>
      <trkpt lat="45.4084" lon="5.91156">
        <ele>1564.2</ele>
      </trkpt>
      <trkpt lat="45.40852" lon="5.91154">
        <ele>1570.8</ele>
      </trkpt>
      <trkpt lat="45.40873" lon="5.91164">
        <ele>1577.8</ele>
      </trkpt>
      <trkpt lat="45.40902" lon="5.91185">
        <ele>1586.6</ele>
      </trkpt>
      <trkpt lat="45.40924" lon="5.91203">
        <ele>1594.2</ele>
      </trkpt>
      <trkpt lat="45.40944" lon="5.91225">
        <ele>1603.5</ele>
      </trkpt>
      <trkpt lat="45.40946" lon="5.91228">
        <ele>1604.1</ele>
      </trkpt>
      <trkpt lat="45.4096" lon="5.91236">
        <ele>1613.1</ele>
      </trkpt>
      <trkpt lat="45.40964" lon="5.91239">
        <ele>1615.6</ele>
      </trkpt>
      <trkpt lat="45.4097" lon="5.91241">
        <ele>1619.1</ele>
      </trkpt>
      <trkpt lat="45.40971" lon="5.91241">
        <ele>1619.7</ele>
      </trkpt>
      <trkpt lat="45.40971" lon="5.9124">
        <ele>1620.1</ele>
      </trkpt>
      <trkpt lat="45.40968" lon="5.91237">
        <ele>1618.6</ele>
      </trkpt>
      <trkpt lat="45.40965" lon="5.91233">
        <ele>1617.2</ele>
      </trkpt>
      <trkpt lat="45.40965" lon="5.91232">
        <ele>1617.1</ele>
      </trkpt>
      <trkpt lat="45.40965" lon="5.91231">
        <ele>1617.2</ele>
      </trkpt>
      <trkpt lat="45.40967" lon="5.9123">
        <ele>1618.6</ele>
      </trkpt>
      <trkpt lat="45.40968" lon="5.91229">
        <ele>1619.8</ele>
      </trkpt>
      <trkpt lat="45.40968" lon="5.91228">
        <ele>1620.1</ele>
      </trkpt>
      <trkpt lat="45.40968" lon="5.91227">
        <ele>1620.3</ele>
      </trkpt>
      <trkpt lat="45.40968" lon="5.91225">
        <ele>1620.1</ele>
      </trkpt>
      <trkpt lat="45.40968" lon="5.91224">
        <ele>1620</ele>
      </trkpt>
      <trkpt lat="45.40971" lon="5.9122">
        <ele>1623.1</ele>
      </trkpt>
      <trkpt lat="45.40975" lon="5.91218">
        <ele>1625.8</ele>
      </trkpt>
      <trkpt lat="45.40978" lon="5.91214">
        <ele>1628.4</ele>
      </trkpt>
      <trkpt lat="45.4098" lon="5.91214">
        <ele>1629.7</ele>
      </trkpt>
      <trkpt lat="45.40982" lon="5.91213">
        <ele>1631.3</ele>
      </trkpt>
      <trkpt lat="45.40982" lon="5.91212">
        <ele>1631.5</ele>
      </trkpt>
      <trkpt lat="45.40979" lon="5.9121">
        <ele>1630.1</ele>
      </trkpt>
      <trkpt lat="45.4098" lon="5.91207">
        <ele>1630.7</ele>
      </trkpt>
      <trkpt lat="45.40982" lon="5.91207">
        <ele>1631.9</ele>
      </trkpt>
      <trkpt lat="45.40984" lon="5.91207">
        <ele>1633.5</ele>
      </trkpt>
      <trkpt lat="45.40985" lon="5.91209">
        <ele>1633.9</ele>
      </trkpt>
      <trkpt lat="45.40986" lon="5.91209">
        <ele>1634.7</ele>
      </trkpt>
      <trkpt lat="45.40988" lon="5.91207">
        <ele>1635.9</ele>
      </trkpt>
      <trkpt lat="45.40988" lon="5.91202">
        <ele>1636.5</ele>
      </trkpt>
      <trkpt lat="45.40988" lon="5.91199">
        <ele>1637.1</ele>
      </trkpt>
      <trkpt lat="45.40989" lon="5.91199">
        <ele>1637.8</ele>
      </trkpt>
      <trkpt lat="45.40991" lon="5.91199">
        <ele>1639</ele>
      </trkpt>
      <trkpt lat="45.40992" lon="5.91196">
        <ele>1640.2</ele>
      </trkpt>
      <trkpt lat="45.40995" lon="5.91194">
        <ele>1641.9</ele>
      </trkpt>
      <trkpt lat="45.40996" lon="5.91195">
        <ele>1642.4</ele>
      </trkpt>
      <trkpt lat="45.40997" lon="5.91195">
        <ele>1643.1</ele>
      </trkpt>
      <trkpt lat="45.40998" lon="5.91193">
        <ele>1644</ele>
      </trkpt>
      <trkpt lat="45.40998" lon="5.91191">
        <ele>1644.1</ele>
      </trkpt>
      <trkpt lat="45.40999" lon="5.91189">
        <ele>1645.2</ele>
      </trkpt>
      <trkpt lat="45.41" lon="5.91189">
        <ele>1645.9</ele>
      </trkpt>
      <trkpt lat="45.41002" lon="5.91187">
        <ele>1646.3</ele>
      </trkpt>
      <trkpt lat="45.41002" lon="5.91184">
        <ele>1646.5</ele>
      </trkpt>
      <trkpt lat="45.41001" lon="5.91182">
        <ele>1646.7</ele>
      </trkpt>
      <trkpt lat="45.41002" lon="5.9118">
        <ele>1647</ele>
      </trkpt>
      <trkpt lat="45.41004" lon="5.91179">
        <ele>1647.3</ele>
      </trkpt>
      <trkpt lat="45.41006" lon="5.91178">
        <ele>1647.7</ele>
      </trkpt>
      <trkpt lat="45.41007" lon="5.91176">
        <ele>1647.8</ele>
      </trkpt>
      <trkpt lat="45.41007" lon="5.91173">
        <ele>1648.2</ele>
      </trkpt>
      <trkpt lat="45.41009" lon="5.91171">
        <ele>1648.6</ele>
      </trkpt>
      <trkpt lat="45.41011" lon="5.91169">
        <ele>1648.8</ele>
      </trkpt>
      <trkpt lat="45.41013" lon="5.91165">
        <ele>1649.3</ele>
      </trkpt>
      <trkpt lat="45.41017" lon="5.91157">
        <ele>1650.3</ele>
      </trkpt>
      <trkpt lat="45.41019" lon="5.91161">
        <ele>1650.2</ele>
      </trkpt>
      <trkpt lat="45.4102" lon="5.91161">
        <ele>1650.4</ele>
      </trkpt>
      <trkpt lat="45.41022" lon="5.91157">
        <ele>1650.8</ele>
      </trkpt>
      <trkpt lat="45.41024" lon="5.91157">
        <ele>1651</ele>
      </trkpt>
      <trkpt lat="45.41025" lon="5.9116">
        <ele>1650.8</ele>
      </trkpt>
      <trkpt lat="45.41024" lon="5.91174">
        <ele>1649.9</ele>
      </trkpt>
      <trkpt lat="45.41028" lon="5.91185">
        <ele>1649.9</ele>
      </trkpt>
      <trkpt lat="45.4103" lon="5.9119">
        <ele>1649.8</ele>
      </trkpt>
      <trkpt lat="45.41032" lon="5.91195">
        <ele>1649.9</ele>
      </trkpt>
      <trkpt lat="45.41042" lon="5.91206">
        <ele>1651.2</ele>
      </trkpt>
      <trkpt lat="45.41048" lon="5.91213">
        <ele>1652</ele>
      </trkpt>
      <trkpt lat="45.41054" lon="5.91221">
        <ele>1653.1</ele>
      </trkpt>
      <trkpt lat="45.41057" lon="5.91228">
        <ele>1653.6</ele>
      </trkpt>
      <trkpt lat="45.41058" lon="5.91241">
        <ele>1653.9</ele>
      </trkpt>
      <trkpt lat="45.41063" lon="5.91254">
        <ele>1654.8</ele>
      </trkpt>
      <trkpt lat="45.41066" lon="5.9126">
        <ele>1655.1</ele>
      </trkpt>
      <trkpt lat="45.41075" lon="5.91277">
        <ele>1656.4</ele>
      </trkpt>
      <trkpt lat="45.41079" lon="5.9128">
        <ele>1657.5</ele>
      </trkpt>
      <trkpt lat="45.41081" lon="5.9128">
        <ele>1657.9</ele>
      </trkpt>
      <trkpt lat="45.41082" lon="5.91282">
        <ele>1658.2</ele>
      </trkpt>
      <trkpt lat="45.41085" lon="5.91282">
        <ele>1658.4</ele>
      </trkpt>
      <trkpt lat="45.41088" lon="5.9128">
        <ele>1658.5</ele>
      </trkpt>
      <trkpt lat="45.41091" lon="5.9128">
        <ele>1658.5</ele>
      </trkpt>
      <trkpt lat="45.41093" lon="5.91279">
        <ele>1658.5</ele>
      </trkpt>
      <trkpt lat="45.41097" lon="5.91279">
        <ele>1658.5</ele>
      </trkpt>
      <trkpt lat="45.411" lon="5.91277">
        <ele>1658.5</ele>
      </trkpt>
      <trkpt lat="45.41103" lon="5.91278">
        <ele>1658.4</ele>
      </trkpt>
      <trkpt lat="45.41105" lon="5.91278">
        <ele>1658.4</ele>
      </trkpt>
      <trkpt lat="45.41107" lon="5.9128">
        <ele>1658.3</ele>
      </trkpt>
      <trkpt lat="45.41113" lon="5.9128">
        <ele>1658.3</ele>
      </trkpt>
      <trkpt lat="45.41122" lon="5.91279">
        <ele>1658.2</ele>
      </trkpt>
      <trkpt lat="45.41127" lon="5.91284">
        <ele>1658.1</ele>
      </trkpt>
      <trkpt lat="45.41132" lon="5.91287">
        <ele>1658</ele>
      </trkpt>
      <trkpt lat="45.41135" lon="5.91286">
        <ele>1658</ele>
      </trkpt>
      <trkpt lat="45.41137" lon="5.91287">
        <ele>1658</ele>
      </trkpt>
      <trkpt lat="45.41148" lon="5.91304">
        <ele>1658.1</ele>
      </trkpt>
      <trkpt lat="45.4115" lon="5.91311">
        <ele>1658.2</ele>
      </trkpt>
      <trkpt lat="45.41152" lon="5.91315">
        <ele>1658.3</ele>
      </trkpt>
      <trkpt lat="45.41156" lon="5.9132">
        <ele>1658.4</ele>
      </trkpt>
      <trkpt lat="45.41159" lon="5.91325">
        <ele>1658.6</ele>
      </trkpt>
      <trkpt lat="45.41159" lon="5.91329">
        <ele>1658.7</ele>
      </trkpt>
      <trkpt lat="45.41162" lon="5.91336">
        <ele>1658.9</ele>
      </trkpt>
      <trkpt lat="45.41166" lon="5.91349">
        <ele>1659.5</ele>
      </trkpt>
      <trkpt lat="45.4117" lon="5.91358">
        <ele>1659.9</ele>
      </trkpt>
      <trkpt lat="45.41174" lon="5.91361">
        <ele>1660.1</ele>
      </trkpt>
      <trkpt lat="45.41177" lon="5.91362">
        <ele>1660.1</ele>
      </trkpt>
      <trkpt lat="45.4118" lon="5.91361">
        <ele>1660.1</ele>
      </trkpt>
      <trkpt lat="45.41189" lon="5.91361">
        <ele>1660.2</ele>
      </trkpt>
      <trkpt lat="45.41191" lon="5.9136">
        <ele>1660.1</ele>
      </trkpt>
      <trkpt lat="45.412" lon="5.9135">
        <ele>1659.7</ele>
      </trkpt>
      <trkpt lat="45.41214" lon="5.91343">
        <ele>1659.5</ele>
      </trkpt>
      <trkpt lat="45.4122" lon="5.91351">
        <ele>1659.9</ele>
      </trkpt>
      <trkpt lat="45.41229" lon="5.91358">
        <ele>1660.4</ele>
      </trkpt>
      <trkpt lat="45.41239" lon="5.9136">
        <ele>1660.5</ele>
      </trkpt>
      <trkpt lat="45.41259" lon="5.91377">
        <ele>1661.5</ele>
      </trkpt>
      <trkpt lat="45.41271" lon="5.91383">
        <ele>1661.9</ele>
      </trkpt>
      <trkpt lat="45.41281" lon="5.91386">
        <ele>1662</ele>
      </trkpt>
      <trkpt lat="45.41291" lon="5.91385">
        <ele>1662</ele>
      </trkpt>
      <trkpt lat="45.41297" lon="5.91385">
        <ele>1661.9</ele>
      </trkpt>
      <trkpt lat="45.41304" lon="5.91382">
        <ele>1661.6</ele>
      </trkpt>
      <trkpt lat="45.41312" lon="5.91378">
        <ele>1661.1</ele>
      </trkpt>
      <trkpt lat="45.41324" lon="5.91369">
        <ele>1659.9</ele>
      </trkpt>
      <trkpt lat="45.4134" lon="5.91356">
        <ele>1657.9</ele>
      </trkpt>
      <trkpt lat="45.41347" lon="5.9135">
        <ele>1657.3</ele>
      </trkpt>
      <trkpt lat="45.4135" lon="5.91349">
        <ele>1657.1</ele>
      </trkpt>
      <trkpt lat="45.41355" lon="5.91349">
        <ele>1657.2</ele>
      </trkpt>
      <trkpt lat="45.41359" lon="5.91351">
        <ele>1657.4</ele>
      </trkpt>
      <trkpt lat="45.4137" lon="5.9137">
        <ele>1659.5</ele>
      </trkpt>
      <trkpt lat="45.4138" lon="5.91395">
        <ele>1662</ele>
      </trkpt>
      <trkpt lat="45.41394" lon="5.91405">
        <ele>1662.7</ele>
      </trkpt>
      <trkpt lat="45.41408" lon="5.91423">
        <ele>1663.8</ele>
      </trkpt>
      <trkpt lat="45.41417" lon="5.91441">
        <ele>1664.7</ele>
      </trkpt>
      <trkpt lat="45.41423" lon="5.91456">
        <ele>1666.4</ele>
      </trkpt>
      <trkpt lat="45.41445" lon="5.91484">
        <ele>1670.3</ele>
      </trkpt>
      <trkpt lat="45.41463" lon="5.91501">
        <ele>1673</ele>
      </trkpt>
      <trkpt lat="45.4147" lon="5.91501">
        <ele>1673.7</ele>
      </trkpt>
      <trkpt lat="45.41478" lon="5.91499">
        <ele>1674.1</ele>
      </trkpt>
      <trkpt lat="45.41484" lon="5.91496">
        <ele>1674.4</ele>
      </trkpt>
      <trkpt lat="45.41488" lon="5.91492">
        <ele>1674.5</ele>
      </trkpt>
      <trkpt lat="45.41495" lon="5.91476">
        <ele>1674.1</ele>
      </trkpt>
      <trkpt lat="45.41516" lon="5.91462">
        <ele>1674.2</ele>
      </trkpt>
      <trkpt lat="45.41539" lon="5.91461">
        <ele>1674.9</ele>
      </trkpt>
      <trkpt lat="45.41585" lon="5.91456">
        <ele>1675.8</ele>
      </trkpt>
      <trkpt lat="45.41609" lon="5.91447">
        <ele>1674.8</ele>
      </trkpt>
      <trkpt lat="45.41629" lon="5.91459">
        <ele>1675.8</ele>
      </trkpt>
      <trkpt lat="45.41659" lon="5.91486">
        <ele>1677.9</ele>
      </trkpt>
      <trkpt lat="45.41706" lon="5.91495">
        <ele>1675.3</ele>
      </trkpt>
      <trkpt lat="45.41728" lon="5.91489">
        <ele>1672.8</ele>
      </trkpt>
      <trkpt lat="45.41769" lon="5.91514">
        <ele>1670.8</ele>
      </trkpt>
      <trkpt lat="45.41789" lon="5.91524">
        <ele>1669.1</ele>
      </trkpt>
      <trkpt lat="45.41848" lon="5.91538">
        <ele>1663.5</ele>
      </trkpt>
      <trkpt lat="45.41876" lon="5.91544">
        <ele>1661.3</ele>
      </trkpt>
      <trkpt lat="45.41907" lon="5.9157">
        <ele>1660.1</ele>
      </trkpt>
      <trkpt lat="45.41951" lon="5.91597">
        <ele>1661.8</ele>
      </trkpt>
      <trkpt lat="45.42013" lon="5.9162">
        <ele>1662.5</ele>
      </trkpt>
      <trkpt lat="45.42056" lon="5.91628">
        <ele>1660.2</ele>
      </trkpt>
      <trkpt lat="45.42069" lon="5.91639">
        <ele>1659.6</ele>
      </trkpt>
      <trkpt lat="45.42082" lon="5.91657">
        <ele>1659</ele>
      </trkpt>
      <trkpt lat="45.42099" lon="5.91668">
        <ele>1657.6</ele>
      </trkpt>
      <trkpt lat="45.42131" lon="5.91689">
        <ele>1655.8</ele>
      </trkpt>
      <trkpt lat="45.42155" lon="5.91721">
        <ele>1655</ele>
      </trkpt>
      <trkpt lat="45.4217" lon="5.91732">
        <ele>1654</ele>
      </trkpt>
      <trkpt lat="45.42188" lon="5.91719">
        <ele>1652.5</ele>
      </trkpt>
      <trkpt lat="45.42203" lon="5.91724">
        <ele>1651.8</ele>
      </trkpt>
      <trkpt lat="45.42222" lon="5.91716">
        <ele>1650.7</ele>
      </trkpt>
      <trkpt lat="45.42263" lon="5.91713">
        <ele>1649.4</ele>
      </trkpt>
      <trkpt lat="45.42305" lon="5.91731">
        <ele>1648.5</ele>
      </trkpt>
      <trkpt lat="45.42331" lon="5.91751">
        <ele>1647.1</ele>
      </trkpt>
      <trkpt lat="45.42354" lon="5.91793">
        <ele>1645.8</ele>
      </trkpt>
      <trkpt lat="45.42372" lon="5.91799">
        <ele>1644.7</ele>
      </trkpt>
      <trkpt lat="45.42392" lon="5.9181">
        <ele>1643.1</ele>
      </trkpt>
      <trkpt lat="45.42409" lon="5.91824">
        <ele>1641.2</ele>
      </trkpt>
      <trkpt lat="45.42424" lon="5.91844">
        <ele>1639.7</ele>
      </trkpt>
      <trkpt lat="45.42448" lon="5.91846">
        <ele>1639.1</ele>
      </trkpt>
      <trkpt lat="45.4248" lon="5.91855">
        <ele>1637.6</ele>
      </trkpt>
      <trkpt lat="45.42507" lon="5.91903">
        <ele>1631.5</ele>
      </trkpt>
      <trkpt lat="45.42552" lon="5.91946">
        <ele>1623.5</ele>
      </trkpt>
      <trkpt lat="45.42605" lon="5.91984">
        <ele>1614.3</ele>
      </trkpt>
      <trkpt lat="45.42663" lon="5.92017">
        <ele>1608.1</ele>
      </trkpt>
      <trkpt lat="45.42745" lon="5.92049">
        <ele>1603.8</ele>
      </trkpt>
      <trkpt lat="45.42862" lon="5.92102">
        <ele>1601.1</ele>
      </trkpt>
      <trkpt lat="45.42873" lon="5.92096">
        <ele>1599.8</ele>
      </trkpt>
      <trkpt lat="45.42879" lon="5.92088">
        <ele>1598.9</ele>
      </trkpt>
      <trkpt lat="45.4289" lon="5.92088">
        <ele>1597.8</ele>
      </trkpt>
      <trkpt lat="45.42902" lon="5.92102">
        <ele>1597.4</ele>
      </trkpt>
      <trkpt lat="45.42915" lon="5.92138">
        <ele>1598.4</ele>
      </trkpt>
      <trkpt lat="45.42946" lon="5.92149">
        <ele>1596.8</ele>
      </trkpt>
      <trkpt lat="45.42983" lon="5.92156">
        <ele>1594.2</ele>
      </trkpt>
      <trkpt lat="45.43066" lon="5.92182">
        <ele>1587.9</ele>
      </trkpt>
      <trkpt lat="45.43119" lon="5.92201">
        <ele>1584.4</ele>
      </trkpt>
      <trkpt lat="45.43166" lon="5.92198">
        <ele>1579.5</ele>
      </trkpt>
      <trkpt lat="45.43215" lon="5.92178">
        <ele>1575.8</ele>
      </trkpt>
      <trkpt lat="45.43238" lon="5.92145">
        <ele>1575.5</ele>
      </trkpt>
      <trkpt lat="45.43256" lon="5.9213">
        <ele>1575.5</ele>
      </trkpt>
      <trkpt lat="45.43292" lon="5.92138">
        <ele>1573.9</ele>
      </trkpt>
      <trkpt lat="45.43308" lon="5.92157">
        <ele>1572.8</ele>
      </trkpt>
      <trkpt lat="45.43326" lon="5.92195">
        <ele>1573</ele>
      </trkpt>
      <trkpt lat="45.43338" lon="5.92204">
        <ele>1572.4</ele>
      </trkpt>
      <trkpt lat="45.43359" lon="5.9221">
        <ele>1570.6</ele>
      </trkpt>
      <trkpt lat="45.43386" lon="5.92254">
        <ele>1568.2</ele>
      </trkpt>
      <trkpt lat="45.43402" lon="5.92268">
        <ele>1566.1</ele>
      </trkpt>
      <trkpt lat="45.43415" lon="5.92287">
        <ele>1563.9</ele>
      </trkpt>
      <trkpt lat="45.43427" lon="5.92321">
        <ele>1560.9</ele>
      </trkpt>
      <trkpt lat="45.43442" lon="5.92347">
        <ele>1558.6</ele>
      </trkpt>
      <trkpt lat="45.43493" lon="5.92331">
        <ele>1551.1</ele>
      </trkpt>
      <trkpt lat="45.43528" lon="5.92307">
        <ele>1548.5</ele>
      </trkpt>
      <trkpt lat="45.43546" lon="5.92263">
        <ele>1548.2</ele>
      </trkpt>
      <trkpt lat="45.4359" lon="5.92202">
        <ele>1547.2</ele>
      </trkpt>
      <trkpt lat="45.43624" lon="5.92187">
        <ele>1547.6</ele>
      </trkpt>
      <trkpt lat="45.43641" lon="5.92193">
        <ele>1547.1</ele>
      </trkpt>
      <trkpt lat="45.4368" lon="5.92234">
        <ele>1543.5</ele>
      </trkpt>
      <trkpt lat="45.43704" lon="5.92244">
        <ele>1543.2</ele>
      </trkpt>
      <trkpt lat="45.43734" lon="5.92236">
        <ele>1544</ele>
      </trkpt>
      <trkpt lat="45.43752" lon="5.92232">
        <ele>1544.2</ele>
      </trkpt>
      <trkpt lat="45.43769" lon="5.92204">
        <ele>1543.7</ele>
      </trkpt>
      <trkpt lat="45.43767" lon="5.92178">
        <ele>1543.6</ele>
      </trkpt>
      <trkpt lat="45.43769" lon="5.92162">
        <ele>1543.7</ele>
      </trkpt>
      <trkpt lat="45.43776" lon="5.9215">
        <ele>1543.7</ele>
      </trkpt>
      <trkpt lat="45.43789" lon="5.92139">
        <ele>1543.1</ele>
      </trkpt>
      <trkpt lat="45.438" lon="5.92137">
        <ele>1542.1</ele>
      </trkpt>
      <trkpt lat="45.4382" lon="5.92145">
        <ele>1539.8</ele>
      </trkpt>
      <trkpt lat="45.43834" lon="5.92158">
        <ele>1538.1</ele>
      </trkpt>
      <trkpt lat="45.43848" lon="5.92167">
        <ele>1531.8</ele>
      </trkpt>
      <trkpt lat="45.43878" lon="5.92182">
        <ele>1520.8</ele>
      </trkpt>
      <trkpt lat="45.43888" lon="5.92213">
        <ele>1519.5</ele>
      </trkpt>
      <trkpt lat="45.43899" lon="5.92226">
        <ele>1516.4</ele>
      </trkpt>
      <trkpt lat="45.43913" lon="5.92227">
        <ele>1510.8</ele>
      </trkpt>
      <trkpt lat="45.43932" lon="5.92227">
        <ele>1508.5</ele>
      </trkpt>
      <trkpt lat="45.43957" lon="5.92193">
        <ele>1504.4</ele>
      </trkpt>
      <trkpt lat="45.4397" lon="5.92171">
        <ele>1502.7</ele>
      </trkpt>
      <trkpt lat="45.43982" lon="5.92159">
        <ele>1502.7</ele>
      </trkpt>
      <trkpt lat="45.43988" lon="5.9216">
        <ele>1502.6</ele>
      </trkpt>
      <trkpt lat="45.44007" lon="5.92169">
        <ele>1503.6</ele>
      </trkpt>
      <trkpt lat="45.44028" lon="5.92192">
        <ele>1508.3</ele>
      </trkpt>
      <trkpt lat="45.44039" lon="5.92198">
        <ele>1510.4</ele>
      </trkpt>
      <trkpt lat="45.4405" lon="5.92192">
        <ele>1512.4</ele>
      </trkpt>
      <trkpt lat="45.44055" lon="5.92193">
        <ele>1513.4</ele>
      </trkpt>
      <trkpt lat="45.44058" lon="5.92185">
        <ele>1514.2</ele>
      </trkpt>
      <trkpt lat="45.4406" lon="5.92161">
        <ele>1515.3</ele>
      </trkpt>
      <trkpt lat="45.44068" lon="5.92144">
        <ele>1517.8</ele>
      </trkpt>
      <trkpt lat="45.44075" lon="5.92118">
        <ele>1520.7</ele>
      </trkpt>
      <trkpt lat="45.44084" lon="5.92095">
        <ele>1523.5</ele>
      </trkpt>
      <trkpt lat="45.44098" lon="5.92067">
        <ele>1527.5</ele>
      </trkpt>
      <trkpt lat="45.44125" lon="5.92027">
        <ele>1533.6</ele>
      </trkpt>
      <trkpt lat="45.44136" lon="5.9201">
        <ele>1536.2</ele>
      </trkpt>
      <trkpt lat="45.44144" lon="5.91995">
        <ele>1537.6</ele>
      </trkpt>
      <trkpt lat="45.44149" lon="5.9198">
        <ele>1538.2</ele>
      </trkpt>
      <trkpt lat="45.44152" lon="5.91961">
        <ele>1538.2</ele>
      </trkpt>
      <trkpt lat="45.44155" lon="5.91942">
        <ele>1538.1</ele>
      </trkpt>
      <trkpt lat="45.44161" lon="5.91926">
        <ele>1538.6</ele>
      </trkpt>
      <trkpt lat="45.44166" lon="5.91914">
        <ele>1538.8</ele>
      </trkpt>
      <trkpt lat="45.4417" lon="5.91907">
        <ele>1539</ele>
      </trkpt>
      <trkpt lat="45.44175" lon="5.91895">
        <ele>1538.8</ele>
      </trkpt>
      <trkpt lat="45.44182" lon="5.91886">
        <ele>1538.5</ele>
      </trkpt>
      <trkpt lat="45.44185" lon="5.91875">
        <ele>1537.2</ele>
      </trkpt>
      <trkpt lat="45.44203" lon="5.9186">
        <ele>1534.3</ele>
      </trkpt>
      <trkpt lat="45.442" lon="5.91854">
        <ele>1533.1</ele>
      </trkpt>
      <trkpt lat="45.44206" lon="5.9184">
        <ele>1529.4</ele>
      </trkpt>
      <trkpt lat="45.44215" lon="5.91841">
        <ele>1528.4</ele>
      </trkpt>
      <trkpt lat="45.4422" lon="5.91837">
        <ele>1526.5</ele>
      </trkpt>
      <trkpt lat="45.44232" lon="5.91844">
        <ele>1526.8</ele>
      </trkpt>
      <trkpt lat="45.4424" lon="5.91838">
        <ele>1523.8</ele>
      </trkpt>
      <trkpt lat="45.44234" lon="5.91832">
        <ele>1522.7</ele>
      </trkpt>
      <trkpt lat="45.44226" lon="5.91809">
        <ele>1519.4</ele>
      </trkpt>
      <trkpt lat="45.44224" lon="5.91806">
        <ele>1519</ele>
      </trkpt>
      <trkpt lat="45.44225" lon="5.91801">
        <ele>1517.9</ele>
      </trkpt>
      <trkpt lat="45.44226" lon="5.91801">
        <ele>1517.6</ele>
      </trkpt>
      <trkpt lat="45.44233" lon="5.91815">
        <ele>1518.8</ele>
      </trkpt>
      <trkpt lat="45.44234" lon="5.91814">
        <ele>1518.1</ele>
      </trkpt>
      <trkpt lat="45.44235" lon="5.91805">
        <ele>1515.8</ele>
      </trkpt>
      <trkpt lat="45.44233" lon="5.918">
        <ele>1515.1</ele>
      </trkpt>
      <trkpt lat="45.44233" lon="5.91791">
        <ele>1513</ele>
      </trkpt>
      <trkpt lat="45.4423" lon="5.91781">
        <ele>1511.8</ele>
      </trkpt>
      <trkpt lat="45.44233" lon="5.91771">
        <ele>1508.2</ele>
      </trkpt>
      <trkpt lat="45.44239" lon="5.91775">
        <ele>1506.7</ele>
      </trkpt>
      <trkpt lat="45.44241" lon="5.91782">
        <ele>1508</ele>
      </trkpt>
      <trkpt lat="45.44247" lon="5.9179">
        <ele>1507.8</ele>
      </trkpt>
      <trkpt lat="45.44254" lon="5.91791">
        <ele>1505</ele>
      </trkpt>
      <trkpt lat="45.44264" lon="5.91804">
        <ele>1503.3</ele>
      </trkpt>
      <trkpt lat="45.44267" lon="5.91815">
        <ele>1505.6</ele>
      </trkpt>
      <trkpt lat="45.4427" lon="5.9182">
        <ele>1506</ele>
      </trkpt>
      <trkpt lat="45.44273" lon="5.91822">
        <ele>1505</ele>
      </trkpt>
      <trkpt lat="45.44275" lon="5.9183">
        <ele>1507.1</ele>
      </trkpt>
      <trkpt lat="45.44278" lon="5.91831">
        <ele>1506.4</ele>
      </trkpt>
      <trkpt lat="45.44288" lon="5.91853">
        <ele>1512.3</ele>
      </trkpt>
      <trkpt lat="45.44295" lon="5.9186">
        <ele>1513.2</ele>
      </trkpt>
      <trkpt lat="45.44299" lon="5.9186">
        <ele>1511.6</ele>
      </trkpt>
      <trkpt lat="45.44308" lon="5.91854">
        <ele>1504.1</ele>
      </trkpt>
      <trkpt lat="45.44308" lon="5.91851">
        <ele>1502.8</ele>
      </trkpt>
      <trkpt lat="45.44304" lon="5.91849">
        <ele>1503.8</ele>
      </trkpt>
      <trkpt lat="45.44305" lon="5.91846">
        <ele>1501.6</ele>
      </trkpt>
      <trkpt lat="45.44312" lon="5.91839">
        <ele>1494.9</ele>
      </trkpt>
      <trkpt lat="45.44315" lon="5.91832">
        <ele>1489.6</ele>
      </trkpt>
      <trkpt lat="45.44322" lon="5.91824">
        <ele>1481.6</ele>
      </trkpt>
      <trkpt lat="45.44327" lon="5.9181">
        <ele>1471.7</ele>
      </trkpt>
      <trkpt lat="45.44335" lon="5.91798">
        <ele>1461.5</ele>
      </trkpt>
      <trkpt lat="45.44341" lon="5.91787">
        <ele>1455.5</ele>
      </trkpt>
      <trkpt lat="45.44341" lon="5.91783">
        <ele>1453.4</ele>
      </trkpt>
      <trkpt lat="45.44345" lon="5.91775">
        <ele>1449.5</ele>
      </trkpt>
      <trkpt lat="45.44343" lon="5.91766">
        <ele>1444.3</ele>
      </trkpt>
      <trkpt lat="45.4434" lon="5.91764">
        <ele>1442.2</ele>
      </trkpt>
      <trkpt lat="45.44336" lon="5.91768">
        <ele>1444</ele>
      </trkpt>
      <trkpt lat="45.44334" lon="5.91768">
        <ele>1443.6</ele>
      </trkpt>
      <trkpt lat="45.44332" lon="5.91766">
        <ele>1442.8</ele>
      </trkpt>
      <trkpt lat="45.44334" lon="5.9176">
        <ele>1438.9</ele>
      </trkpt>
      <trkpt lat="45.44339" lon="5.91755">
        <ele>1437.2</ele>
      </trkpt>
      <trkpt lat="45.44338" lon="5.91751">
        <ele>1434.6</ele>
      </trkpt>
      <trkpt lat="45.44334" lon="5.91751">
        <ele>1433.7</ele>
      </trkpt>
      <trkpt lat="45.44326" lon="5.91758">
        <ele>1443.2</ele>
      </trkpt>
      <trkpt lat="45.44328" lon="5.91745">
        <ele>1435</ele>
      </trkpt>
      <trkpt lat="45.44326" lon="5.91743">
        <ele>1435.7</ele>
      </trkpt>
      <trkpt lat="45.44317" lon="5.9175">
        <ele>1445.1</ele>
      </trkpt>
      <trkpt lat="45.44311" lon="5.91752">
        <ele>1450.8</ele>
      </trkpt>
      <trkpt lat="45.44307" lon="5.91758">
        <ele>1456.8</ele>
      </trkpt>
      <trkpt lat="45.44305" lon="5.91757">
        <ele>1457.8</ele>
      </trkpt>
      <trkpt lat="45.44305" lon="5.91748">
        <ele>1453.1</ele>
      </trkpt>
      <trkpt lat="45.44311" lon="5.91724">
        <ele>1439.8</ele>
      </trkpt>
      <trkpt lat="45.44316" lon="5.91714">
        <ele>1431.4</ele>
      </trkpt>
      <trkpt lat="45.44332" lon="5.91697">
        <ele>1409.4</ele>
      </trkpt>
      <trkpt lat="45.44332" lon="5.91694">
        <ele>1407.8</ele>
      </trkpt>
      <trkpt lat="45.44324" lon="5.91689">
        <ele>1412.8</ele>
      </trkpt>
      <trkpt lat="45.44318" lon="5.91689">
        <ele>1419.4</ele>
      </trkpt>
      <trkpt lat="45.44313" lon="5.91686">
        <ele>1422.8</ele>
      </trkpt>
      <trkpt lat="45.44307" lon="5.9169">
        <ele>1430.5</ele>
      </trkpt>
      <trkpt lat="45.44295" lon="5.91693">
        <ele>1443.8</ele>
      </trkpt>
      <trkpt lat="45.44284" lon="5.91699">
        <ele>1455.8</ele>
      </trkpt>
      <trkpt lat="45.44298" lon="5.91667">
        <ele>1432</ele>
      </trkpt>
      <trkpt lat="45.443" lon="5.91658">
        <ele>1420.6</ele>
      </trkpt>
      <trkpt lat="45.44313" lon="5.91646">
        <ele>1399.6</ele>
      </trkpt>
      <trkpt lat="45.44313" lon="5.91644">
        <ele>1397.3</ele>
      </trkpt>
      <trkpt lat="45.4429" lon="5.91637">
        <ele>1405.3</ele>
      </trkpt>
      <trkpt lat="45.4429" lon="5.91634">
        <ele>1402.7</ele>
      </trkpt>
      <trkpt lat="45.44294" lon="5.91628">
        <ele>1394.2</ele>
      </trkpt>
      <trkpt lat="45.44286" lon="5.91622">
        <ele>1389.7</ele>
      </trkpt>
      <trkpt lat="45.44281" lon="5.91625">
        <ele>1396</ele>
      </trkpt>
      <trkpt lat="45.44276" lon="5.91635">
        <ele>1411.8</ele>
      </trkpt>
      <trkpt lat="45.44268" lon="5.91642">
        <ele>1426.9</ele>
      </trkpt>
      <trkpt lat="45.44247" lon="5.91643">
        <ele>1442.4</ele>
      </trkpt>
      <trkpt lat="45.44239" lon="5.91646">
        <ele>1452.1</ele>
      </trkpt>
      <trkpt lat="45.44237" lon="5.91645">
        <ele>1451.1</ele>
      </trkpt>
      <trkpt lat="45.44244" lon="5.91627">
        <ele>1415.5</ele>
      </trkpt>
      <trkpt lat="45.44249" lon="5.91608">
        <ele>1377.8</ele>
      </trkpt>
      <trkpt lat="45.44249" lon="5.916">
        <ele>1363.5</ele>
      </trkpt>
      <trkpt lat="45.44257" lon="5.91582">
        <ele>1332.7</ele>
      </trkpt>
      <trkpt lat="45.44278" lon="5.91554">
        <ele>1321</ele>
      </trkpt>
      <trkpt lat="45.44284" lon="5.91536">
        <ele>1312.7</ele>
      </trkpt>
      <trkpt lat="45.44294" lon="5.91526">
        <ele>1310.9</ele>
      </trkpt>
      <trkpt lat="45.44301" lon="5.91508">
        <ele>1304.7</ele>
      </trkpt>
      <trkpt lat="45.44311" lon="5.91499">
        <ele>1305.5</ele>
      </trkpt>
      <trkpt lat="45.44315" lon="5.91492">
        <ele>1304.7</ele>
      </trkpt>
      <trkpt lat="45.44317" lon="5.91484">
        <ele>1302.3</ele>
      </trkpt>
      <trkpt lat="45.44327" lon="5.91468">
        <ele>1299.9</ele>
      </trkpt>
      <trkpt lat="45.44331" lon="5.91451">
        <ele>1293.5</ele>
      </trkpt>
      <trkpt lat="45.44331" lon="5.91439">
        <ele>1287.4</ele>
      </trkpt>
      <trkpt lat="45.44324" lon="5.9142">
        <ele>1275.7</ele>
      </trkpt>
      <trkpt lat="45.44322" lon="5.914">
        <ele>1268.8</ele>
      </trkpt>
      <trkpt lat="45.44333" lon="5.91383">
        <ele>1266.7</ele>
      </trkpt>
      <trkpt lat="45.44338" lon="5.91365">
        <ele>1262.4</ele>
      </trkpt>
      <trkpt lat="45.44347" lon="5.9135">
        <ele>1259.4</ele>
      </trkpt>
      <trkpt lat="45.44371" lon="5.91324">
        <ele>1254.4</ele>
      </trkpt>
      <trkpt lat="45.44376" lon="5.91315">
        <ele>1252.8</ele>
      </trkpt>
      <trkpt lat="45.44388" lon="5.91301">
        <ele>1251.1</ele>
      </trkpt>
      <trkpt lat="45.44394" lon="5.91298">
        <ele>1251.6</ele>
      </trkpt>
      <trkpt lat="45.44397" lon="5.91293">
        <ele>1250.7</ele>
      </trkpt>
      <trkpt lat="45.44395" lon="5.91283">
        <ele>1247.7</ele>
      </trkpt>
      <trkpt lat="45.44391" lon="5.91281">
        <ele>1246.3</ele>
      </trkpt>
      <trkpt lat="45.4439" lon="5.91266">
        <ele>1242.1</ele>
      </trkpt>
      <trkpt lat="45.44374" lon="5.91243">
        <ele>1232.1</ele>
      </trkpt>
      <trkpt lat="45.44358" lon="5.9121">
        <ele>1222.3</ele>
      </trkpt>
      <trkpt lat="45.44339" lon="5.91191">
        <ele>1213.8</ele>
      </trkpt>
      <trkpt lat="45.44328" lon="5.91153">
        <ele>1204.7</ele>
      </trkpt>
      <trkpt lat="45.44319" lon="5.91106">
        <ele>1195.4</ele>
      </trkpt>
      <trkpt lat="45.44321" lon="5.91089">
        <ele>1192.3</ele>
      </trkpt>
      <trkpt lat="45.44328" lon="5.91062">
        <ele>1186.3</ele>
      </trkpt>
      <trkpt lat="45.44341" lon="5.91021">
        <ele>1177.9</ele>
      </trkpt>
      <trkpt lat="45.4436" lon="5.90979">
        <ele>1171.9</ele>
      </trkpt>
      <trkpt lat="45.44364" lon="5.90923">
        <ele>1160.3</ele>
      </trkpt>
      <trkpt lat="45.44378" lon="5.90867">
        <ele>1145.2</ele>
      </trkpt>
      <trkpt lat="45.4438" lon="5.90848">
        <ele>1139.7</ele>
      </trkpt>
      <trkpt lat="45.44378" lon="5.90828">
        <ele>1134</ele>
      </trkpt>
      <trkpt lat="45.4438" lon="5.90815">
        <ele>1132</ele>
      </trkpt>
      <trkpt lat="45.44386" lon="5.90796">
        <ele>1129.4</ele>
      </trkpt>
      <trkpt lat="45.44387" lon="5.90774">
        <ele>1125.9</ele>
      </trkpt>
      <trkpt lat="45.44392" lon="5.90759">
        <ele>1123.6</ele>
      </trkpt>
      <trkpt lat="45.44398" lon="5.90758">
        <ele>1123.7</ele>
      </trkpt>
      <trkpt lat="45.44402" lon="5.90746">
        <ele>1122</ele>
      </trkpt>
      <trkpt lat="45.44407" lon="5.90737">
        <ele>1121.4</ele>
      </trkpt>
      <trkpt lat="45.44416" lon="5.90734">
        <ele>1121.5</ele>
      </trkpt>
      <trkpt lat="45.44418" lon="5.90716">
        <ele>1120.2</ele>
      </trkpt>
      <trkpt lat="45.44422" lon="5.90701">
        <ele>1119.7</ele>
      </trkpt>
      <trkpt lat="45.44424" lon="5.90693">
        <ele>1119.4</ele>
      </trkpt>
      <trkpt lat="45.44424" lon="5.90688">
        <ele>1118.8</ele>
      </trkpt>
      <trkpt lat="45.44421" lon="5.90684">
        <ele>1117.6</ele>
      </trkpt>
      <trkpt lat="45.44416" lon="5.90679">
        <ele>1116.2</ele>
      </trkpt>
      <trkpt lat="45.44413" lon="5.90672">
        <ele>1115.4</ele>
      </trkpt>
      <trkpt lat="45.44411" lon="5.90659">
        <ele>1113.7</ele>
      </trkpt>
      <trkpt lat="45.44414" lon="5.90639">
        <ele>1111</ele>
      </trkpt>
      <trkpt lat="45.44419" lon="5.90603">
        <ele>1106.4</ele>
      </trkpt>
      <trkpt lat="45.44416" lon="5.90575">
        <ele>1102.1</ele>
      </trkpt>
      <trkpt lat="45.44413" lon="5.90558">
        <ele>1100.2</ele>
      </trkpt>
      <trkpt lat="45.44411" lon="5.90523">
        <ele>1096.4</ele>
      </trkpt>
      <trkpt lat="45.44404" lon="5.90474">
        <ele>1091.7</ele>
      </trkpt>
      <trkpt lat="45.44406" lon="5.90454">
        <ele>1090</ele>
      </trkpt>
      <trkpt lat="45.44403" lon="5.90425">
        <ele>1087.7</ele>
      </trkpt>
      <trkpt lat="45.44396" lon="5.90361">
        <ele>1081.7</ele>
      </trkpt>
      <trkpt lat="45.44398" lon="5.90341">
        <ele>1079.7</ele>
      </trkpt>
      <trkpt lat="45.44408" lon="5.90313">
        <ele>1077</ele>
      </trkpt>
      <trkpt lat="45.44418" lon="5.90258">
        <ele>1073</ele>
      </trkpt>
      <trkpt lat="45.44421" lon="5.90204">
        <ele>1070.9</ele>
      </trkpt>
      <trkpt lat="45.44414" lon="5.90139">
        <ele>1067.4</ele>
      </trkpt>
      <trkpt lat="45.44416" lon="5.90103">
        <ele>1065.8</ele>
      </trkpt>
      <trkpt lat="45.44428" lon="5.90013">
        <ele>1071.3</ele>
      </trkpt>
      <trkpt lat="45.44444" lon="5.89941">
        <ele>1074.7</ele>
      </trkpt>
      <trkpt lat="45.44469" lon="5.89882">
        <ele>1071.8</ele>
      </trkpt>
      <trkpt lat="45.44499" lon="5.89815">
        <ele>1059</ele>
      </trkpt>
      <trkpt lat="45.44517" lon="5.89787">
        <ele>1057.2</ele>
      </trkpt>
      <trkpt lat="45.44541" lon="5.8976">
        <ele>1054.1</ele>
      </trkpt>
      <trkpt lat="45.44566" lon="5.89712">
        <ele>1047</ele>
      </trkpt>
      <trkpt lat="45.44577" lon="5.8969">
        <ele>1042.2</ele>
      </trkpt>
      <trkpt lat="45.44586" lon="5.89671">
        <ele>1038.2</ele>
      </trkpt>
      <trkpt lat="45.44602" lon="5.89656">
        <ele>1037</ele>
      </trkpt>
      <trkpt lat="45.44625" lon="5.8963">
        <ele>1034.2</ele>
      </trkpt>
      <trkpt lat="45.44638" lon="5.89606">
        <ele>1030.2</ele>
      </trkpt>
      <trkpt lat="45.44669" lon="5.89595">
        <ele>1028.6</ele>
      </trkpt>
      <trkpt lat="45.4469" lon="5.89568">
        <ele>1024.4</ele>
      </trkpt>
      <trkpt lat="45.4472" lon="5.89541">
        <ele>1020.2</ele>
      </trkpt>
      <trkpt lat="45.44746" lon="5.89522">
        <ele>1016.1</ele>
      </trkpt>
      <trkpt lat="45.44761" lon="5.89496">
        <ele>1011.6</ele>
      </trkpt>
      <trkpt lat="45.44776" lon="5.89468">
        <ele>1008.2</ele>
      </trkpt>
      <trkpt lat="45.44783" lon="5.89433">
        <ele>1003.5</ele>
      </trkpt>
      <trkpt lat="45.44806" lon="5.89389">
        <ele>996.6</ele>
      </trkpt>
      <trkpt lat="45.44823" lon="5.89364">
        <ele>992.7</ele>
      </trkpt>
      <trkpt lat="45.44873" lon="5.89306">
        <ele>987.3</ele>
      </trkpt>
      <trkpt lat="45.44897" lon="5.89257">
        <ele>982.8</ele>
      </trkpt>
      <trkpt lat="45.44911" lon="5.89243">
        <ele>981.8</ele>
      </trkpt>
      <trkpt lat="45.44917" lon="5.8923">
        <ele>980.1</ele>
      </trkpt>
      <trkpt lat="45.44919" lon="5.89211">
        <ele>977.4</ele>
      </trkpt>
      <trkpt lat="45.44934" lon="5.89145">
        <ele>971</ele>
      </trkpt>
      <trkpt lat="45.44939" lon="5.89109">
        <ele>969.3</ele>
      </trkpt>
      <trkpt lat="45.4495" lon="5.89091">
        <ele>967.9</ele>
      </trkpt>
      <trkpt lat="45.44963" lon="5.89075">
        <ele>966.7</ele>
      </trkpt>
      <trkpt lat="45.44992" lon="5.89056">
        <ele>963.8</ele>
      </trkpt>
      <trkpt lat="45.45005" lon="5.88997">
        <ele>959.4</ele>
      </trkpt>
      <trkpt lat="45.45012" lon="5.88981">
        <ele>959.5</ele>
      </trkpt>
      <trkpt lat="45.4506" lon="5.88923">
        <ele>951.6</ele>
      </trkpt>
      <trkpt lat="45.45079" lon="5.88895">
        <ele>943.3</ele>
      </trkpt>
      <trkpt lat="45.45089" lon="5.8886">
        <ele>935.8</ele>
      </trkpt>
      <trkpt lat="45.451" lon="5.88829">
        <ele>931.7</ele>
      </trkpt>
      <trkpt lat="45.45104" lon="5.88805">
        <ele>927.7</ele>
      </trkpt>
      <trkpt lat="45.45102" lon="5.88787">
        <ele>923.5</ele>
      </trkpt>
      <trkpt lat="45.45109" lon="5.88749">
        <ele>917</ele>
      </trkpt>
      <trkpt lat="45.45119" lon="5.88709">
        <ele>908.9</ele>
      </trkpt>
      <trkpt lat="45.45125" lon="5.88631">
        <ele>888.8</ele>
      </trkpt>
      <trkpt lat="45.45139" lon="5.88609">
        <ele>883</ele>
      </trkpt>
      <trkpt lat="45.45161" lon="5.8858">
        <ele>875</ele>
      </trkpt>
      <trkpt lat="45.45176" lon="5.88564">
        <ele>872</ele>
      </trkpt>
      <trkpt lat="45.45184" lon="5.88551">
        <ele>869.1</ele>
      </trkpt>
      <trkpt lat="45.4519" lon="5.88529">
        <ele>863.7</ele>
      </trkpt>
      <trkpt lat="45.45199" lon="5.88514">
        <ele>859.8</ele>
      </trkpt>
      <trkpt lat="45.45223" lon="5.88493">
        <ele>855.2</ele>
      </trkpt>
      <trkpt lat="45.45235" lon="5.88484">
        <ele>854.2</ele>
      </trkpt>
      <trkpt lat="45.45237" lon="5.88478">
        <ele>853.6</ele>
      </trkpt>
      <trkpt lat="45.45237" lon="5.88468">
        <ele>852.5</ele>
      </trkpt>
      <trkpt lat="45.45241" lon="5.88454">
        <ele>850.9</ele>
      </trkpt>
      <trkpt lat="45.45248" lon="5.88448">
        <ele>850.4</ele>
      </trkpt>
      <trkpt lat="45.45259" lon="5.88441">
        <ele>850.1</ele>
      </trkpt>
      <trkpt lat="45.45264" lon="5.88432">
        <ele>849.2</ele>
      </trkpt>
      <trkpt lat="45.45267" lon="5.88421">
        <ele>848.1</ele>
      </trkpt>
      <trkpt lat="45.4527" lon="5.88405">
        <ele>846.2</ele>
      </trkpt>
      <trkpt lat="45.45241" lon="5.88454">
        <ele>850.9</ele>
      </trkpt>
      <trkpt lat="45.45238" lon="5.88451">
        <ele>850.6</ele>
      </trkpt>
      <trkpt lat="45.45237" lon="5.88429">
        <ele>848.2</ele>
      </trkpt>
      <trkpt lat="45.45238" lon="5.88416">
        <ele>846.8</ele>
      </trkpt>
      <trkpt lat="45.45238" lon="5.88403">
        <ele>845.2</ele>
      </trkpt>
      <trkpt lat="45.45239" lon="5.8839">
        <ele>843.8</ele>
      </trkpt>
      <trkpt lat="45.45242" lon="5.88378">
        <ele>842.4</ele>
      </trkpt>
      <trkpt lat="45.45234" lon="5.88359">
        <ele>840.2</ele>
      </trkpt>
      <trkpt lat="45.4523" lon="5.88342">
        <ele>838.3</ele>
      </trkpt>
      <trkpt lat="45.45235" lon="5.88341">
        <ele>838.1</ele>
      </trkpt>
      <trkpt lat="45.45241" lon="5.88335">
        <ele>837.3</ele>
      </trkpt>
      <trkpt lat="45.45252" lon="5.88317">
        <ele>835.5</ele>
      </trkpt>
      <trkpt lat="45.45256" lon="5.88304">
        <ele>834.4</ele>
      </trkpt>
      <trkpt lat="45.45272" lon="5.88247">
        <ele>831.1</ele>
      </trkpt>
      <trkpt lat="45.45279" lon="5.88222">
        <ele>834.3</ele>
      </trkpt>
      <trkpt lat="45.4528" lon="5.88218">
        <ele>834.7</ele>
      </trkpt>
      <trkpt lat="45.45275" lon="5.88213">
        <ele>834.7</ele>
      </trkpt>
      <trkpt lat="45.45264" lon="5.88188">
        <ele>835.8</ele>
      </trkpt>
      <trkpt lat="45.45259" lon="5.88173">
        <ele>836.7</ele>
      </trkpt>
      <trkpt lat="45.45253" lon="5.88163">
        <ele>837.2</ele>
      </trkpt>
      <trkpt lat="45.45246" lon="5.88154">
        <ele>838.3</ele>
      </trkpt>
      <trkpt lat="45.45246" lon="5.88145">
        <ele>840.1</ele>
      </trkpt>
      <trkpt lat="45.45241" lon="5.88134">
        <ele>842</ele>
      </trkpt>
      <trkpt lat="45.45241" lon="5.88129">
        <ele>843</ele>
      </trkpt>
      <trkpt lat="45.45254" lon="5.88115">
        <ele>846.5</ele>
      </trkpt>
      <trkpt lat="45.45266" lon="5.88097">
        <ele>851.4</ele>
      </trkpt>
      <trkpt lat="45.45269" lon="5.88087">
        <ele>853.6</ele>
      </trkpt>
      <trkpt lat="45.45267" lon="5.88065">
        <ele>856.6</ele>
      </trkpt>
      <trkpt lat="45.45265" lon="5.88032">
        <ele>861</ele>
      </trkpt>
      <trkpt lat="45.45273" lon="5.87994">
        <ele>866.1</ele>
      </trkpt>
      <trkpt lat="45.45279" lon="5.87961">
        <ele>867.6</ele>
      </trkpt>
      <trkpt lat="45.45279" lon="5.87934">
        <ele>868.7</ele>
      </trkpt>
      <trkpt lat="45.45268" lon="5.87891">
        <ele>870.3</ele>
      </trkpt>
      <trkpt lat="45.45257" lon="5.87873">
        <ele>870.8</ele>
      </trkpt>
      <trkpt lat="45.45223" lon="5.87811">
        <ele>871.8</ele>
      </trkpt>
      <trkpt lat="45.45204" lon="5.8778">
        <ele>872.2</ele>
      </trkpt>
      <trkpt lat="45.45199" lon="5.87774">
        <ele>872.3</ele>
      </trkpt>
      <trkpt lat="45.45193" lon="5.87771">
        <ele>872.2</ele>
      </trkpt>
      <trkpt lat="45.45199" lon="5.8774">
        <ele>873.9</ele>
      </trkpt>
      <trkpt lat="45.45194" lon="5.87644">
        <ele>880.4</ele>
      </trkpt>
      <trkpt lat="45.45189" lon="5.87611">
        <ele>882.2</ele>
      </trkpt>
      <trkpt lat="45.4519" lon="5.87588">
        <ele>883.7</ele>
      </trkpt>
      <trkpt lat="45.4517" lon="5.87513">
        <ele>890.7</ele>
      </trkpt>
      <trkpt lat="45.4516" lon="5.87482">
        <ele>893.2</ele>
      </trkpt>
      <trkpt lat="45.45161" lon="5.8746">
        <ele>895.1</ele>
      </trkpt>
      <trkpt lat="45.4517" lon="5.87442">
        <ele>897.3</ele>
      </trkpt>
      <trkpt lat="45.45191" lon="5.87418">
        <ele>902.1</ele>
      </trkpt>
      <trkpt lat="45.45219" lon="5.87396">
        <ele>906.8</ele>
      </trkpt>
      <trkpt lat="45.45259" lon="5.87352">
        <ele>916.6</ele>
      </trkpt>
      <trkpt lat="45.45348" lon="5.87226">
        <ele>940.8</ele>
      </trkpt>
      <trkpt lat="45.45377" lon="5.87233">
        <ele>948.2</ele>
      </trkpt>
      <trkpt lat="45.45431" lon="5.8722">
        <ele>960.5</ele>
      </trkpt>
      <trkpt lat="45.45492" lon="5.87196">
        <ele>971.1</ele>
      </trkpt>
      <trkpt lat="45.45521" lon="5.87166">
        <ele>968.8</ele>
      </trkpt>
      <trkpt lat="45.45554" lon="5.87168">
        <ele>974.5</ele>
      </trkpt>
      <trkpt lat="45.45596" lon="5.87146">
        <ele>983.5</ele>
      </trkpt>
      <trkpt lat="45.45645" lon="5.87127">
        <ele>994.6</ele>
      </trkpt>
      <trkpt lat="45.45683" lon="5.87081">
        <ele>1001.1</ele>
      </trkpt>
      <trkpt lat="45.45699" lon="5.87073">
        <ele>1006.1</ele>
      </trkpt>
      <trkpt lat="45.457" lon="5.8705">
        <ele>1010</ele>
      </trkpt>
      <trkpt lat="45.45647" lon="5.87005">
        <ele>1011.2</ele>
      </trkpt>
      <trkpt lat="45.45614" lon="5.86977">
        <ele>1015.9</ele>
      </trkpt>
      <trkpt lat="45.45622" lon="5.8696">
        <ele>1019.9</ele>
      </trkpt>
      <trkpt lat="45.45615" lon="5.86955">
        <ele>1020.4</ele>
      </trkpt>
      <trkpt lat="45.45616" lon="5.8694">
        <ele>1023.4</ele>
      </trkpt>
      <trkpt lat="45.45631" lon="5.86911">
        <ele>1031</ele>
      </trkpt>
      <trkpt lat="45.45634" lon="5.86898">
        <ele>1032.8</ele>
      </trkpt>
      <trkpt lat="45.45626" lon="5.86884">
        <ele>1033.2</ele>
      </trkpt>
      <trkpt lat="45.45627" lon="5.86876">
        <ele>1034.2</ele>
      </trkpt>
      <trkpt lat="45.45638" lon="5.86874">
        <ele>1036.5</ele>
      </trkpt>
      <trkpt lat="45.45638" lon="5.86869">
        <ele>1037.2</ele>
      </trkpt>
      <trkpt lat="45.4563" lon="5.8686">
        <ele>1036.6</ele>
      </trkpt>
      <trkpt lat="45.45628" lon="5.86844">
        <ele>1037.8</ele>
      </trkpt>
      <trkpt lat="45.45638" lon="5.86843">
        <ele>1040.1</ele>
      </trkpt>
      <trkpt lat="45.45699" lon="5.86801">
        <ele>1054.3</ele>
      </trkpt>
      <trkpt lat="45.45721" lon="5.86807">
        <ele>1059.7</ele>
      </trkpt>
      <trkpt lat="45.45736" lon="5.86804">
        <ele>1063.2</ele>
      </trkpt>
      <trkpt lat="45.45752" lon="5.86786">
        <ele>1066.9</ele>
      </trkpt>
      <trkpt lat="45.45764" lon="5.86766">
        <ele>1069.7</ele>
      </trkpt>
      <trkpt lat="45.45778" lon="5.8677">
        <ele>1073.2</ele>
      </trkpt>
      <trkpt lat="45.45762" lon="5.86801">
        <ele>1069.1</ele>
      </trkpt>
      <trkpt lat="45.45761" lon="5.86814">
        <ele>1068.8</ele>
      </trkpt>
      <trkpt lat="45.45766" lon="5.86821">
        <ele>1069.5</ele>
      </trkpt>
      <trkpt lat="45.45776" lon="5.8682">
        <ele>1071.4</ele>
      </trkpt>
      <trkpt lat="45.45794" lon="5.86797">
        <ele>1075.7</ele>
      </trkpt>
      <trkpt lat="45.45802" lon="5.86786">
        <ele>1078.1</ele>
      </trkpt>
      <trkpt lat="45.45837" lon="5.86771">
        <ele>1087.6</ele>
      </trkpt>
      <trkpt lat="45.45863" lon="5.86743">
        <ele>1096.5</ele>
      </trkpt>
      <trkpt lat="45.45902" lon="5.86713">
        <ele>1106.8</ele>
      </trkpt>
      <trkpt lat="45.45911" lon="5.86701">
        <ele>1109.5</ele>
      </trkpt>
      <trkpt lat="45.45921" lon="5.86681">
        <ele>1112.2</ele>
      </trkpt>
      <trkpt lat="45.45939" lon="5.86663">
        <ele>1114.9</ele>
      </trkpt>
      <trkpt lat="45.45962" lon="5.86656">
        <ele>1117.8</ele>
      </trkpt>
      <trkpt lat="45.45996" lon="5.86631">
        <ele>1122.8</ele>
      </trkpt>
      <trkpt lat="45.46023" lon="5.86604">
        <ele>1123.8</ele>
      </trkpt>
      <trkpt lat="45.46051" lon="5.8658">
        <ele>1125.1</ele>
      </trkpt>
      <trkpt lat="45.4607" lon="5.86574">
        <ele>1125.7</ele>
      </trkpt>
      <trkpt lat="45.46075" lon="5.86583">
        <ele>1126.6</ele>
      </trkpt>
      <trkpt lat="45.46085" lon="5.8659">
        <ele>1126.7</ele>
      </trkpt>
      <trkpt lat="45.46099" lon="5.86594">
        <ele>1127.7</ele>
      </trkpt>
      <trkpt lat="45.46104" lon="5.86595">
        <ele>1128.1</ele>
      </trkpt>
      <trkpt lat="45.46134" lon="5.86601">
        <ele>1130.3</ele>
      </trkpt>
      <trkpt lat="45.46204" lon="5.86622">
        <ele>1133.5</ele>
      </trkpt>
      <trkpt lat="45.4624" lon="5.86619">
        <ele>1138.5</ele>
      </trkpt>
      <trkpt lat="45.46263" lon="5.8661">
        <ele>1142.2</ele>
      </trkpt>
      <trkpt lat="45.46278" lon="5.86596">
        <ele>1145.8</ele>
      </trkpt>
      <trkpt lat="45.46293" lon="5.86583">
        <ele>1148.5</ele>
      </trkpt>
      <trkpt lat="45.46312" lon="5.86566">
        <ele>1150.4</ele>
      </trkpt>
      <trkpt lat="45.46405" lon="5.86475">
        <ele>1160.1</ele>
      </trkpt>
      <trkpt lat="45.46436" lon="5.86432">
        <ele>1167.2</ele>
      </trkpt>
      <trkpt lat="45.46458" lon="5.8642">
        <ele>1169</ele>
      </trkpt>
      <trkpt lat="45.46556" lon="5.86384">
        <ele>1171.5</ele>
      </trkpt>
      <trkpt lat="45.46567" lon="5.86377">
        <ele>1171.9</ele>
      </trkpt>
      <trkpt lat="45.46571" lon="5.86371">
        <ele>1172.4</ele>
      </trkpt>
      <trkpt lat="45.46575" lon="5.86362">
        <ele>1173</ele>
      </trkpt>
      <trkpt lat="45.46575" lon="5.8635">
        <ele>1173.9</ele>
      </trkpt>
      <trkpt lat="45.46571" lon="5.8634">
        <ele>1174.7</ele>
      </trkpt>
      <trkpt lat="45.46565" lon="5.86333">
        <ele>1175.3</ele>
      </trkpt>
      <trkpt lat="45.46543" lon="5.86307">
        <ele>1178.4</ele>
      </trkpt>
      <trkpt lat="45.46497" lon="5.86262">
        <ele>1181.4</ele>
      </trkpt>
      <trkpt lat="45.46476" lon="5.86252">
        <ele>1183.9</ele>
      </trkpt>
      <trkpt lat="45.46405" lon="5.86242">
        <ele>1190.8</ele>
      </trkpt>
      <trkpt lat="45.46386" lon="5.86235">
        <ele>1192.9</ele>
      </trkpt>
      <trkpt lat="45.46369" lon="5.86228">
        <ele>1194.8</ele>
      </trkpt>
      <trkpt lat="45.46354" lon="5.86211">
        <ele>1197.2</ele>
      </trkpt>
      <trkpt lat="45.4634" lon="5.86187">
        <ele>1200</ele>
      </trkpt>
      <trkpt lat="45.46334" lon="5.86178">
        <ele>1201</ele>
      </trkpt>
      <trkpt lat="45.46318" lon="5.86149">
        <ele>1200.3</ele>
      </trkpt>
      <trkpt lat="45.46315" lon="5.86139">
        <ele>1200.2</ele>
      </trkpt>
      <trkpt lat="45.46313" lon="5.86124">
        <ele>1200.4</ele>
      </trkpt>
      <trkpt lat="45.46314" lon="5.86057">
        <ele>1202.4</ele>
      </trkpt>
      <trkpt lat="45.46313" lon="5.86047">
        <ele>1202.7</ele>
      </trkpt>
      <trkpt lat="45.46311" lon="5.86036">
        <ele>1202.8</ele>
      </trkpt>
      <trkpt lat="45.46295" lon="5.86004">
        <ele>1202.6</ele>
      </trkpt>
      <trkpt lat="45.46282" lon="5.85972">
        <ele>1205.8</ele>
      </trkpt>
      <trkpt lat="45.4627" lon="5.8595">
        <ele>1208.3</ele>
      </trkpt>
      <trkpt lat="45.46255" lon="5.85933">
        <ele>1210.4</ele>
      </trkpt>
      <trkpt lat="45.46229" lon="5.85909">
        <ele>1212</ele>
      </trkpt>
      <trkpt lat="45.46211" lon="5.85892">
        <ele>1212.5</ele>
      </trkpt>
      <trkpt lat="45.46202" lon="5.85875">
        <ele>1213.9</ele>
      </trkpt>
      <trkpt lat="45.46192" lon="5.85868">
        <ele>1213.8</ele>
      </trkpt>
      <trkpt lat="45.46176" lon="5.85866">
        <ele>1212.6</ele>
      </trkpt>
      <trkpt lat="45.4616" lon="5.85868">
        <ele>1210.7</ele>
      </trkpt>
      <trkpt lat="45.46149" lon="5.85873">
        <ele>1209.1</ele>
      </trkpt>
      <trkpt lat="45.46135" lon="5.85878">
        <ele>1207.2</ele>
      </trkpt>
      <trkpt lat="45.46119" lon="5.8588">
        <ele>1205.4</ele>
      </trkpt>
      <trkpt lat="45.46103" lon="5.85879">
        <ele>1204</ele>
      </trkpt>
      <trkpt lat="45.46086" lon="5.85877">
        <ele>1202.6</ele>
      </trkpt>
      <trkpt lat="45.46072" lon="5.85872">
        <ele>1202.1</ele>
      </trkpt>
      <trkpt lat="45.46014" lon="5.85834">
        <ele>1199.3</ele>
      </trkpt>
      <trkpt lat="45.45977" lon="5.85816">
        <ele>1198.1</ele>
      </trkpt>
      <trkpt lat="45.45949" lon="5.85808">
        <ele>1197.6</ele>
      </trkpt>
      <trkpt lat="45.45946" lon="5.85807">
        <ele>1197.5</ele>
      </trkpt>
      <trkpt lat="45.45894" lon="5.85797">
        <ele>1196.5</ele>
      </trkpt>
      <trkpt lat="45.45867" lon="5.85795">
        <ele>1195.8</ele>
      </trkpt>
      <trkpt lat="45.45793" lon="5.85775">
        <ele>1194.8</ele>
      </trkpt>
      <trkpt lat="45.45744" lon="5.85763">
        <ele>1194.9</ele>
      </trkpt>
      <trkpt lat="45.45723" lon="5.85763">
        <ele>1195.3</ele>
      </trkpt>
      <trkpt lat="45.45667" lon="5.85795">
        <ele>1189.8</ele>
      </trkpt>
      <trkpt lat="45.45631" lon="5.85832">
        <ele>1183.6</ele>
      </trkpt>
      <trkpt lat="45.45591" lon="5.85865">
        <ele>1180</ele>
      </trkpt>
      <trkpt lat="45.45549" lon="5.85887">
        <ele>1174.4</ele>
      </trkpt>
      <trkpt lat="45.45515" lon="5.85891">
        <ele>1171.7</ele>
      </trkpt>
      <trkpt lat="45.45474" lon="5.85886">
        <ele>1170.7</ele>
      </trkpt>
      <trkpt lat="45.45442" lon="5.85871">
        <ele>1170.8</ele>
      </trkpt>
      <trkpt lat="45.45432" lon="5.85865">
        <ele>1170.9</ele>
      </trkpt>
      <trkpt lat="45.45425" lon="5.85861">
        <ele>1170.9</ele>
      </trkpt>
      <trkpt lat="45.45402" lon="5.85846">
        <ele>1173.3</ele>
      </trkpt>
      <trkpt lat="45.45325" lon="5.8578">
        <ele>1183.5</ele>
      </trkpt>
      <trkpt lat="45.45292" lon="5.85725">
        <ele>1188.4</ele>
      </trkpt>
      <trkpt lat="45.45272" lon="5.85682">
        <ele>1186.9</ele>
      </trkpt>
      <trkpt lat="45.4526" lon="5.85633">
        <ele>1182.9</ele>
      </trkpt>
      <trkpt lat="45.45252" lon="5.85581">
        <ele>1178.2</ele>
      </trkpt>
      <trkpt lat="45.45248" lon="5.85533">
        <ele>1174.7</ele>
      </trkpt>
      <trkpt lat="45.45258" lon="5.85459">
        <ele>1172.3</ele>
      </trkpt>
      <trkpt lat="45.45262" lon="5.85447">
        <ele>1172.4</ele>
      </trkpt>
      <trkpt lat="45.45273" lon="5.85434">
        <ele>1172.5</ele>
      </trkpt>
      <trkpt lat="45.45292" lon="5.85437">
        <ele>1173.4</ele>
      </trkpt>
      <trkpt lat="45.45309" lon="5.8543">
        <ele>1173</ele>
      </trkpt>
      <trkpt lat="45.4532" lon="5.85414">
        <ele>1171.1</ele>
      </trkpt>
      <trkpt lat="45.45336" lon="5.85375">
        <ele>1167.6</ele>
      </trkpt>
      <trkpt lat="45.45349" lon="5.85322">
        <ele>1167.8</ele>
      </trkpt>
      <trkpt lat="45.45324" lon="5.85316">
        <ele>1164.7</ele>
      </trkpt>
      <trkpt lat="45.45338" lon="5.85257">
        <ele>1157.5</ele>
      </trkpt>
      <trkpt lat="45.45361" lon="5.85119">
        <ele>1156</ele>
      </trkpt>
      <trkpt lat="45.45362" lon="5.8504">
        <ele>1144.6</ele>
      </trkpt>
      <trkpt lat="45.45354" lon="5.84968">
        <ele>1134.2</ele>
      </trkpt>
      <trkpt lat="45.45318" lon="5.84885">
        <ele>1126.9</ele>
      </trkpt>
      <trkpt lat="45.45273" lon="5.84819">
        <ele>1120.9</ele>
      </trkpt>
      <trkpt lat="45.45211" lon="5.84735">
        <ele>1109</ele>
      </trkpt>
      <trkpt lat="45.45185" lon="5.84666">
        <ele>1099.5</ele>
      </trkpt>
      <trkpt lat="45.45167" lon="5.84658">
        <ele>1095.8</ele>
      </trkpt>
      <trkpt lat="45.45137" lon="5.84669">
        <ele>1099.3</ele>
      </trkpt>
      <trkpt lat="45.45106" lon="5.84628">
        <ele>1093.3</ele>
      </trkpt>
      <trkpt lat="45.45063" lon="5.84576">
        <ele>1084.7</ele>
      </trkpt>
      <trkpt lat="45.44998" lon="5.84499">
        <ele>1078.9</ele>
      </trkpt>
      <trkpt lat="45.44987" lon="5.84436">
        <ele>1065.7</ele>
      </trkpt>
      <trkpt lat="45.44966" lon="5.84402">
        <ele>1060.5</ele>
      </trkpt>
      <trkpt lat="45.44947" lon="5.84377">
        <ele>1057.5</ele>
      </trkpt>
      <trkpt lat="45.44928" lon="5.84368">
        <ele>1054.9</ele>
      </trkpt>
      <trkpt lat="45.44907" lon="5.84354">
        <ele>1052.3</ele>
      </trkpt>
      <trkpt lat="45.44874" lon="5.84326">
        <ele>1051.3</ele>
      </trkpt>
      <trkpt lat="45.44822" lon="5.84303">
        <ele>1050.7</ele>
      </trkpt>
      <trkpt lat="45.44811" lon="5.84282">
        <ele>1046.8</ele>
      </trkpt>
      <trkpt lat="45.44748" lon="5.84227">
        <ele>1028.3</ele>
      </trkpt>
      <trkpt lat="45.44712" lon="5.8418">
        <ele>1017.3</ele>
      </trkpt>
      <trkpt lat="45.44661" lon="5.84117">
        <ele>1007.5</ele>
      </trkpt>
      <trkpt lat="45.44627" lon="5.84096">
        <ele>1002.3</ele>
      </trkpt>
      <trkpt lat="45.44617" lon="5.84089">
        <ele>999.8</ele>
      </trkpt>
      <trkpt lat="45.44597" lon="5.84094">
        <ele>999.8</ele>
      </trkpt>
      <trkpt lat="45.44575" lon="5.841">
        <ele>1000.8</ele>
      </trkpt>
      <trkpt lat="45.44544" lon="5.84093">
        <ele>998</ele>
      </trkpt>
      <trkpt lat="45.44502" lon="5.8408">
        <ele>992.4</ele>
      </trkpt>
      <trkpt lat="45.44456" lon="5.84061">
        <ele>990.5</ele>
      </trkpt>
      <trkpt lat="45.44406" lon="5.84035">
        <ele>988.5</ele>
      </trkpt>
      <trkpt lat="45.4437" lon="5.84025">
        <ele>990.5</ele>
      </trkpt>
      <trkpt lat="45.44329" lon="5.83997">
        <ele>988.3</ele>
      </trkpt>
      <trkpt lat="45.44319" lon="5.83988">
        <ele>986.5</ele>
      </trkpt>
      <trkpt lat="45.44293" lon="5.83976">
        <ele>984</ele>
      </trkpt>
      <trkpt lat="45.44264" lon="5.83973">
        <ele>983.8</ele>
      </trkpt>
      <trkpt lat="45.44251" lon="5.83979">
        <ele>985.6</ele>
      </trkpt>
      <trkpt lat="45.44175" lon="5.83976">
        <ele>987.4</ele>
      </trkpt>
      <trkpt lat="45.44097" lon="5.8398">
        <ele>986.4</ele>
      </trkpt>
      <trkpt lat="45.4409" lon="5.83973">
        <ele>984.2</ele>
      </trkpt>
      <trkpt lat="45.44089" lon="5.83966">
        <ele>981.9</ele>
      </trkpt>
      <trkpt lat="45.4409" lon="5.83928">
        <ele>971.1</ele>
      </trkpt>
      <trkpt lat="45.44089" lon="5.83917">
        <ele>967.6</ele>
      </trkpt>
      <trkpt lat="45.44084" lon="5.8391">
        <ele>966</ele>
      </trkpt>
      <trkpt lat="45.4407" lon="5.83906">
        <ele>963.5</ele>
      </trkpt>
      <trkpt lat="45.44062" lon="5.83903">
        <ele>962</ele>
      </trkpt>
      <trkpt lat="45.44005" lon="5.83848">
        <ele>945.9</ele>
      </trkpt>
      <trkpt lat="45.43968" lon="5.8381">
        <ele>936.9</ele>
      </trkpt>
      <trkpt lat="45.43943" lon="5.83778">
        <ele>931.8</ele>
      </trkpt>
      <trkpt lat="45.43897" lon="5.83729">
        <ele>924.5</ele>
      </trkpt>
      <trkpt lat="45.43866" lon="5.83706">
        <ele>921</ele>
      </trkpt>
      <trkpt lat="45.43843" lon="5.83687">
        <ele>919.8</ele>
      </trkpt>
      <trkpt lat="45.43839" lon="5.83686">
        <ele>919.6</ele>
      </trkpt>
      <trkpt lat="45.43834" lon="5.8368">
        <ele>919.6</ele>
      </trkpt>
      <trkpt lat="45.43826" lon="5.83674">
        <ele>919.4</ele>
      </trkpt>
      <trkpt lat="45.43814" lon="5.83671">
        <ele>918.9</ele>
      </trkpt>
      <trkpt lat="45.43799" lon="5.83669">
        <ele>918.2</ele>
      </trkpt>
      <trkpt lat="45.43787" lon="5.83666">
        <ele>917.7</ele>
      </trkpt>
      <trkpt lat="45.43782" lon="5.83661">
        <ele>916.9</ele>
      </trkpt>
      <trkpt lat="45.43775" lon="5.83649">
        <ele>915.3</ele>
      </trkpt>
      <trkpt lat="45.43775" lon="5.83636">
        <ele>913.9</ele>
      </trkpt>
      <trkpt lat="45.43779" lon="5.83631">
        <ele>913.6</ele>
      </trkpt>
      <trkpt lat="45.43768" lon="5.83629">
        <ele>912.9</ele>
      </trkpt>
      <trkpt lat="45.43746" lon="5.83634">
        <ele>912.3</ele>
      </trkpt>
      <trkpt lat="45.43726" lon="5.83631">
        <ele>909.5</ele>
      </trkpt>
      <trkpt lat="45.43701" lon="5.83608">
        <ele>905.7</ele>
      </trkpt>
      <trkpt lat="45.43683" lon="5.83595">
        <ele>904</ele>
      </trkpt>
      <trkpt lat="45.43668" lon="5.83583">
        <ele>903.1</ele>
      </trkpt>
      <trkpt lat="45.43632" lon="5.83568">
        <ele>895.7</ele>
      </trkpt>
      <trkpt lat="45.43612" lon="5.83545">
        <ele>890.8</ele>
      </trkpt>
      <trkpt lat="45.43585" lon="5.83524">
        <ele>886.8</ele>
      </trkpt>
      <trkpt lat="45.43542" lon="5.8352">
        <ele>878.7</ele>
      </trkpt>
      <trkpt lat="45.43506" lon="5.83514">
        <ele>872</ele>
      </trkpt>
      <trkpt lat="45.43479" lon="5.83504">
        <ele>868.7</ele>
      </trkpt>
      <trkpt lat="45.43465" lon="5.83507">
        <ele>867.2</ele>
      </trkpt>
      <trkpt lat="45.43425" lon="5.83492">
        <ele>862.6</ele>
      </trkpt>
      <trkpt lat="45.43404" lon="5.83471">
        <ele>860</ele>
      </trkpt>
      <trkpt lat="45.43389" lon="5.83457">
        <ele>858.5</ele>
      </trkpt>
      <trkpt lat="45.43374" lon="5.83427">
        <ele>857.8</ele>
      </trkpt>
      <trkpt lat="45.43358" lon="5.83401">
        <ele>855.1</ele>
      </trkpt>
      <trkpt lat="45.43342" lon="5.83383">
        <ele>851.7</ele>
      </trkpt>
      <trkpt lat="45.43324" lon="5.83356">
        <ele>847.2</ele>
      </trkpt>
      <trkpt lat="45.43317" lon="5.83353">
        <ele>846.7</ele>
      </trkpt>
      <trkpt lat="45.43293" lon="5.83299">
        <ele>838.5</ele>
      </trkpt>
      <trkpt lat="45.43279" lon="5.83254">
        <ele>829.9</ele>
      </trkpt>
      <trkpt lat="45.43276" lon="5.83241">
        <ele>827.3</ele>
      </trkpt>
      <trkpt lat="45.43277" lon="5.8323">
        <ele>825.2</ele>
      </trkpt>
      <trkpt lat="45.43282" lon="5.83216">
        <ele>822.7</ele>
      </trkpt>
      <trkpt lat="45.43288" lon="5.83208">
        <ele>821.5</ele>
      </trkpt>
      <trkpt lat="45.43296" lon="5.83202">
        <ele>820.7</ele>
      </trkpt>
      <trkpt lat="45.43324" lon="5.83194">
        <ele>820.5</ele>
      </trkpt>
      <trkpt lat="45.43353" lon="5.83181">
        <ele>819.5</ele>
      </trkpt>
      <trkpt lat="45.43365" lon="5.83172">
        <ele>818.6</ele>
      </trkpt>
      <trkpt lat="45.4337" lon="5.83165">
        <ele>817.7</ele>
      </trkpt>
      <trkpt lat="45.43373" lon="5.83156">
        <ele>817.3</ele>
      </trkpt>
      <trkpt lat="45.43375" lon="5.83138">
        <ele>816.4</ele>
      </trkpt>
      <trkpt lat="45.43374" lon="5.83113">
        <ele>814.9</ele>
      </trkpt>
      <trkpt lat="45.43376" lon="5.83042">
        <ele>820.3</ele>
      </trkpt>
      <trkpt lat="45.43374" lon="5.83027">
        <ele>822</ele>
      </trkpt>
      <trkpt lat="45.4337" lon="5.83017">
        <ele>822.3</ele>
      </trkpt>
      <trkpt lat="45.43359" lon="5.83001">
        <ele>820.9</ele>
      </trkpt>
      <trkpt lat="45.43348" lon="5.82963">
        <ele>828.8</ele>
      </trkpt>
      <trkpt lat="45.43333" lon="5.82939">
        <ele>832.5</ele>
      </trkpt>
      <trkpt lat="45.43318" lon="5.82922">
        <ele>833.1</ele>
      </trkpt>
      <trkpt lat="45.43291" lon="5.82887">
        <ele>835.7</ele>
      </trkpt>
      <trkpt lat="45.43269" lon="5.82864">
        <ele>837.7</ele>
      </trkpt>
      <trkpt lat="45.43239" lon="5.82839">
        <ele>839.6</ele>
      </trkpt>
      <trkpt lat="45.43209" lon="5.8281">
        <ele>837.3</ele>
      </trkpt>
      <trkpt lat="45.43176" lon="5.82789">
        <ele>832</ele>
      </trkpt>
      <trkpt lat="45.43156" lon="5.82769">
        <ele>829.8</ele>
      </trkpt>
      <trkpt lat="45.43148" lon="5.82758">
        <ele>829.4</ele>
      </trkpt>
      <trkpt lat="45.43123" lon="5.82711">
        <ele>833</ele>
      </trkpt>
      <trkpt lat="45.43092" lon="5.82676">
        <ele>833.2</ele>
      </trkpt>
      <trkpt lat="45.43088" lon="5.82668">
        <ele>834</ele>
      </trkpt>
      <trkpt lat="45.43083" lon="5.8266">
        <ele>834.8</ele>
      </trkpt>
      <trkpt lat="45.43076" lon="5.82643">
        <ele>838</ele>
      </trkpt>
      <trkpt lat="45.43071" lon="5.82632">
        <ele>840</ele>
      </trkpt>
      <trkpt lat="45.43068" lon="5.82621">
        <ele>842.3</ele>
      </trkpt>
      <trkpt lat="45.43044" lon="5.82566">
        <ele>851.5</ele>
      </trkpt>
      <trkpt lat="45.43033" lon="5.82558">
        <ele>850.1</ele>
      </trkpt>
      <trkpt lat="45.43016" lon="5.8255">
        <ele>846.5</ele>
      </trkpt>
      <trkpt lat="45.42996" lon="5.82541">
        <ele>841.7</ele>
      </trkpt>
      <trkpt lat="45.42992" lon="5.82538">
        <ele>841.5</ele>
      </trkpt>
      <trkpt lat="45.42947" lon="5.82496">
        <ele>840.3</ele>
      </trkpt>
      <trkpt lat="45.42936" lon="5.82483">
        <ele>840.3</ele>
      </trkpt>
      <trkpt lat="45.42917" lon="5.82461">
        <ele>838.7</ele>
      </trkpt>
      <trkpt lat="45.42911" lon="5.82451">
        <ele>838.3</ele>
      </trkpt>
      <trkpt lat="45.42915" lon="5.82442">
        <ele>841.2</ele>
      </trkpt>
      <trkpt lat="45.42921" lon="5.82438">
        <ele>844.2</ele>
      </trkpt>
      <trkpt lat="45.42923" lon="5.82403">
        <ele>850.6</ele>
      </trkpt>
      <trkpt lat="45.42934" lon="5.82423">
        <ele>852.2</ele>
      </trkpt>
      <trkpt lat="45.42937" lon="5.82425">
        <ele>853.1</ele>
      </trkpt>
      <trkpt lat="45.42934" lon="5.82413">
        <ele>853.8</ele>
      </trkpt>
      <trkpt lat="45.42929" lon="5.82389">
        <ele>855.3</ele>
      </trkpt>
      <trkpt lat="45.42932" lon="5.82333">
        <ele>864.5</ele>
      </trkpt>
      <trkpt lat="45.4295" lon="5.82297">
        <ele>880.3</ele>
      </trkpt>
      <trkpt lat="45.42956" lon="5.82273">
        <ele>887.2</ele>
      </trkpt>
      <trkpt lat="45.42927" lon="5.82223">
        <ele>875.2</ele>
      </trkpt>
      <trkpt lat="45.42924" lon="5.82179">
        <ele>876.1</ele>
      </trkpt>
      <trkpt lat="45.42924" lon="5.82151">
        <ele>873.2</ele>
      </trkpt>
      <trkpt lat="45.42942" lon="5.8213">
        <ele>880.3</ele>
      </trkpt>
      <trkpt lat="45.42974" lon="5.82108">
        <ele>897.4</ele>
      </trkpt>
      <trkpt lat="45.43008" lon="5.82088">
        <ele>914.1</ele>
      </trkpt>
      <trkpt lat="45.43023" lon="5.82061">
        <ele>911</ele>
      </trkpt>
      <trkpt lat="45.43025" lon="5.82033">
        <ele>901.1</ele>
      </trkpt>
      <trkpt lat="45.43042" lon="5.8203">
        <ele>908.1</ele>
      </trkpt>
      <trkpt lat="45.43054" lon="5.82034">
        <ele>915.1</ele>
      </trkpt>
      <trkpt lat="45.43095" lon="5.81982">
        <ele>917.9</ele>
      </trkpt>
      <trkpt lat="45.43115" lon="5.81962">
        <ele>920.9</ele>
      </trkpt>
      <trkpt lat="45.43205" lon="5.81863">
        <ele>931</ele>
      </trkpt>
      <trkpt lat="45.43221" lon="5.81832">
        <ele>927.6</ele>
      </trkpt>
      <trkpt lat="45.43237" lon="5.81813">
        <ele>929.8</ele>
      </trkpt>
      <trkpt lat="45.43301" lon="5.81807">
        <ele>948.3</ele>
      </trkpt>
      <trkpt lat="45.43314" lon="5.81783">
        <ele>944.3</ele>
      </trkpt>
      <trkpt lat="45.43336" lon="5.81752">
        <ele>939.8</ele>
      </trkpt>
      <trkpt lat="45.43373" lon="5.81751">
        <ele>941.1</ele>
      </trkpt>
      <trkpt lat="45.43401" lon="5.81748">
        <ele>941.4</ele>
      </trkpt>
      <trkpt lat="45.43429" lon="5.81767">
        <ele>949.6</ele>
      </trkpt>
      <trkpt lat="45.43464" lon="5.81782">
        <ele>956.3</ele>
      </trkpt>
      <trkpt lat="45.43513" lon="5.81788">
        <ele>961.3</ele>
      </trkpt>
      <trkpt lat="45.43532" lon="5.81772">
        <ele>957.9</ele>
      </trkpt>
      <trkpt lat="45.43553" lon="5.81782">
        <ele>966</ele>
      </trkpt>
      <trkpt lat="45.43577" lon="5.81791">
        <ele>973.9</ele>
      </trkpt>
      <trkpt lat="45.4361" lon="5.81782">
        <ele>979.3</ele>
      </trkpt>
      <trkpt lat="45.43628" lon="5.81785">
        <ele>985.7</ele>
      </trkpt>
      <trkpt lat="45.43636" lon="5.81797">
        <ele>992.7</ele>
      </trkpt>
      <trkpt lat="45.4365" lon="5.81795">
        <ele>996.2</ele>
      </trkpt>
      <trkpt lat="45.43681" lon="5.81769">
        <ele>995.8</ele>
      </trkpt>
      <trkpt lat="45.43708" lon="5.81765">
        <ele>1003.9</ele>
      </trkpt>
      <trkpt lat="45.43686" lon="5.81728">
        <ele>991.6</ele>
      </trkpt>
      <trkpt lat="45.43662" lon="5.81678">
        <ele>981.8</ele>
      </trkpt>
      <trkpt lat="45.43646" lon="5.8164">
        <ele>977.9</ele>
      </trkpt>
      <trkpt lat="45.43651" lon="5.81614">
        <ele>984.7</ele>
      </trkpt>
      <trkpt lat="45.4364" lon="5.81567">
        <ele>982</ele>
      </trkpt>
      <trkpt lat="45.43643" lon="5.81557">
        <ele>984.7</ele>
      </trkpt>
      <trkpt lat="45.43656" lon="5.8155">
        <ele>994.8</ele>
      </trkpt>
      <trkpt lat="45.43671" lon="5.81539">
        <ele>1004.9</ele>
      </trkpt>
      <trkpt lat="45.43682" lon="5.81508">
        <ele>1008.4</ele>
      </trkpt>
      <trkpt lat="45.43692" lon="5.81465">
        <ele>997.9</ele>
      </trkpt>
      <trkpt lat="45.43726" lon="5.81416">
        <ele>991.2</ele>
      </trkpt>
      <trkpt lat="45.43733" lon="5.81369">
        <ele>982.6</ele>
      </trkpt>
      <trkpt lat="45.43732" lon="5.8135">
        <ele>978</ele>
      </trkpt>
      <trkpt lat="45.43735" lon="5.81332">
        <ele>974.9</ele>
      </trkpt>
      <trkpt lat="45.43747" lon="5.81312">
        <ele>975.7</ele>
      </trkpt>
      <trkpt lat="45.43772" lon="5.81282">
        <ele>969.3</ele>
      </trkpt>
      <trkpt lat="45.43823" lon="5.81288">
        <ele>967.5</ele>
      </trkpt>
      <trkpt lat="45.43848" lon="5.81285">
        <ele>966.6</ele>
      </trkpt>
      <trkpt lat="45.43866" lon="5.81278">
        <ele>965.7</ele>
      </trkpt>
      <trkpt lat="45.43886" lon="5.8127">
        <ele>964.6</ele>
      </trkpt>
      <trkpt lat="45.43926" lon="5.81233">
        <ele>958.1</ele>
      </trkpt>
      <trkpt lat="45.43958" lon="5.81205">
        <ele>953.9</ele>
      </trkpt>
      <trkpt lat="45.43988" lon="5.81189">
        <ele>951.7</ele>
      </trkpt>
      <trkpt lat="45.44027" lon="5.81185">
        <ele>951.9</ele>
      </trkpt>
      <trkpt lat="45.44051" lon="5.81187">
        <ele>952.8</ele>
      </trkpt>
      <trkpt lat="45.44089" lon="5.81192">
        <ele>954.2</ele>
      </trkpt>
      <trkpt lat="45.44175" lon="5.81165">
        <ele>954.6</ele>
      </trkpt>
      <trkpt lat="45.442" lon="5.81137">
        <ele>955.4</ele>
      </trkpt>
      <trkpt lat="45.44208" lon="5.81111">
        <ele>954.8</ele>
      </trkpt>
      <trkpt lat="45.44216" lon="5.81053">
        <ele>955.5</ele>
      </trkpt>
      <trkpt lat="45.44218" lon="5.81054">
        <ele>955.7</ele>
      </trkpt>
      <trkpt lat="45.44323" lon="5.81101">
        <ele>966.2</ele>
      </trkpt>
      <trkpt lat="45.44341" lon="5.81113">
        <ele>967.5</ele>
      </trkpt>
      <trkpt lat="45.44367" lon="5.81134">
        <ele>968.2</ele>
      </trkpt>
      <trkpt lat="45.444" lon="5.81168">
        <ele>967.4</ele>
      </trkpt>
      <trkpt lat="45.44405" lon="5.81171">
        <ele>967.5</ele>
      </trkpt>
      <trkpt lat="45.44582" lon="5.81304">
        <ele>970.9</ele>
      </trkpt>
      <trkpt lat="45.44605" lon="5.81323">
        <ele>970.1</ele>
      </trkpt>
      <trkpt lat="45.44627" lon="5.81346">
        <ele>969.4</ele>
      </trkpt>
      <trkpt lat="45.4467" lon="5.81398">
        <ele>965.5</ele>
      </trkpt>
      <trkpt lat="45.44762" lon="5.81516">
        <ele>957.7</ele>
      </trkpt>
      <trkpt lat="45.44772" lon="5.81527">
        <ele>959.1</ele>
      </trkpt>
      <trkpt lat="45.44796" lon="5.81541">
        <ele>960.7</ele>
      </trkpt>
      <trkpt lat="45.44874" lon="5.81571">
        <ele>960.9</ele>
      </trkpt>
      <trkpt lat="45.45008" lon="5.81646">
        <ele>947.7</ele>
      </trkpt>
      <trkpt lat="45.45083" lon="5.81684">
        <ele>940.4</ele>
      </trkpt>
      <trkpt lat="45.45097" lon="5.81692">
        <ele>939.9</ele>
      </trkpt>
      <trkpt lat="45.45122" lon="5.81716">
        <ele>938.4</ele>
      </trkpt>
      <trkpt lat="45.45191" lon="5.81799">
        <ele>934.4</ele>
      </trkpt>
      <trkpt lat="45.45203" lon="5.81812">
        <ele>932.9</ele>
      </trkpt>
      <trkpt lat="45.45222" lon="5.81788">
        <ele>927.4</ele>
      </trkpt>
      <trkpt lat="45.45236" lon="5.81775">
        <ele>923.9</ele>
      </trkpt>
      <trkpt lat="45.45255" lon="5.81761">
        <ele>918.7</ele>
      </trkpt>
      <trkpt lat="45.45268" lon="5.81752">
        <ele>913.4</ele>
      </trkpt>
      <trkpt lat="45.45302" lon="5.81741">
        <ele>897.8</ele>
      </trkpt>
      <trkpt lat="45.45309" lon="5.8174">
        <ele>894.6</ele>
      </trkpt>
      <trkpt lat="45.4532" lon="5.81743">
        <ele>890.9</ele>
      </trkpt>
      <trkpt lat="45.45333" lon="5.81749">
        <ele>888.8</ele>
      </trkpt>
      <trkpt lat="45.45374" lon="5.81785">
        <ele>881.1</ele>
      </trkpt>
      <trkpt lat="45.45416" lon="5.81798">
        <ele>871</ele>
      </trkpt>
      <trkpt lat="45.45451" lon="5.81824">
        <ele>864.8</ele>
      </trkpt>
      <trkpt lat="45.45505" lon="5.81857">
        <ele>848.7</ele>
      </trkpt>
      <trkpt lat="45.45526" lon="5.81871">
        <ele>841.7</ele>
      </trkpt>
      <trkpt lat="45.45551" lon="5.81895">
        <ele>839.4</ele>
      </trkpt>
      <trkpt lat="45.45561" lon="5.81901">
        <ele>838</ele>
      </trkpt>
      <trkpt lat="45.45575" lon="5.81906">
        <ele>834.5</ele>
      </trkpt>
      <trkpt lat="45.45598" lon="5.81922">
        <ele>832.2</ele>
      </trkpt>
      <trkpt lat="45.45643" lon="5.81947">
        <ele>822.7</ele>
      </trkpt>
      <trkpt lat="45.45703" lon="5.81987">
        <ele>816</ele>
      </trkpt>
      <trkpt lat="45.45763" lon="5.82017">
        <ele>803.5</ele>
      </trkpt>
      <trkpt lat="45.45789" lon="5.8202">
        <ele>797.6</ele>
      </trkpt>
      <trkpt lat="45.45798" lon="5.82018">
        <ele>794.6</ele>
      </trkpt>
      <trkpt lat="45.45803" lon="5.82007">
        <ele>789.6</ele>
      </trkpt>
      <trkpt lat="45.45802" lon="5.81999">
        <ele>787.1</ele>
      </trkpt>
      <trkpt lat="45.4579" lon="5.81979">
        <ele>783.2</ele>
      </trkpt>
      <trkpt lat="45.45783" lon="5.81954">
        <ele>776.4</ele>
      </trkpt>
      <trkpt lat="45.45778" lon="5.81945">
        <ele>774</ele>
      </trkpt>
      <trkpt lat="45.4576" lon="5.81922">
        <ele>769.2</ele>
      </trkpt>
      <trkpt lat="45.45736" lon="5.81904">
        <ele>768.6</ele>
      </trkpt>
      <trkpt lat="45.45722" lon="5.81891">
        <ele>767</ele>
      </trkpt>
      <trkpt lat="45.45719" lon="5.81885">
        <ele>765.4</ele>
      </trkpt>
      <trkpt lat="45.45719" lon="5.81877">
        <ele>762.2</ele>
      </trkpt>
      <trkpt lat="45.45722" lon="5.81873">
        <ele>759.6</ele>
      </trkpt>
      <trkpt lat="45.45732" lon="5.81868">
        <ele>755.5</ele>
      </trkpt>
      <trkpt lat="45.45759" lon="5.81859">
        <ele>746.5</ele>
      </trkpt>
      <trkpt lat="45.45787" lon="5.81839">
        <ele>733.2</ele>
      </trkpt>
      <trkpt lat="45.4581" lon="5.8183">
        <ele>724.9</ele>
      </trkpt>
      <trkpt lat="45.4582" lon="5.81822">
        <ele>719.6</ele>
      </trkpt>
      <trkpt lat="45.45824" lon="5.81811">
        <ele>714.7</ele>
      </trkpt>
      <trkpt lat="45.45822" lon="5.81802">
        <ele>711.9</ele>
      </trkpt>
      <trkpt lat="45.45819" lon="5.81795">
        <ele>710.1</ele>
      </trkpt>
      <trkpt lat="45.458" lon="5.81774">
        <ele>705.8</ele>
      </trkpt>
      <trkpt lat="45.45789" lon="5.81751">
        <ele>699.3</ele>
      </trkpt>
      <trkpt lat="45.45783" lon="5.81728">
        <ele>693.3</ele>
      </trkpt>
      <trkpt lat="45.45777" lon="5.81713">
        <ele>689.6</ele>
      </trkpt>
      <trkpt lat="45.4576" lon="5.81687">
        <ele>683</ele>
      </trkpt>
      <trkpt lat="45.45734" lon="5.81651">
        <ele>674.1</ele>
      </trkpt>
      <trkpt lat="45.45701" lon="5.8162">
        <ele>667.7</ele>
      </trkpt>
      <trkpt lat="45.45691" lon="5.81606">
        <ele>663.9</ele>
      </trkpt>
      <trkpt lat="45.45671" lon="5.81584">
        <ele>657.7</ele>
      </trkpt>
      <trkpt lat="45.45655" lon="5.81571">
        <ele>657.6</ele>
      </trkpt>
      <trkpt lat="45.45649" lon="5.81555">
        <ele>654</ele>
      </trkpt>
      <trkpt lat="45.45647" lon="5.81538">
        <ele>648.9</ele>
      </trkpt>
      <trkpt lat="45.45657" lon="5.81477">
        <ele>630.4</ele>
      </trkpt>
      <trkpt lat="45.45676" lon="5.81422">
        <ele>618.9</ele>
      </trkpt>
      <trkpt lat="45.45681" lon="5.81388">
        <ele>615.3</ele>
      </trkpt>
      <trkpt lat="45.45683" lon="5.81378">
        <ele>614.4</ele>
      </trkpt>
      <trkpt lat="45.45681" lon="5.81356">
        <ele>612.3</ele>
      </trkpt>
      <trkpt lat="45.4568" lon="5.81331">
        <ele>610.1</ele>
      </trkpt>
      <trkpt lat="45.45679" lon="5.81326">
        <ele>609.9</ele>
      </trkpt>
      <trkpt lat="45.45678" lon="5.81319">
        <ele>609.7</ele>
      </trkpt>
      <trkpt lat="45.45677" lon="5.81304">
        <ele>609.1</ele>
      </trkpt>
      <trkpt lat="45.45683" lon="5.81229">
        <ele>606.5</ele>
      </trkpt>
      <trkpt lat="45.45683" lon="5.81219">
        <ele>606.1</ele>
      </trkpt>
      <trkpt lat="45.45683" lon="5.81211">
        <ele>605.7</ele>
      </trkpt>
      <trkpt lat="45.45668" lon="5.812">
        <ele>605.2</ele>
      </trkpt>
      <trkpt lat="45.45625" lon="5.81168">
        <ele>605</ele>
      </trkpt>
      <trkpt lat="45.45599" lon="5.81151">
        <ele>605.6</ele>
      </trkpt>
      <trkpt lat="45.45569" lon="5.81129">
        <ele>607.3</ele>
      </trkpt>
      <trkpt lat="45.45555" lon="5.81118">
        <ele>608.6</ele>
      </trkpt>
      <trkpt lat="45.45538" lon="5.81102">
        <ele>610.2</ele>
      </trkpt>
      <trkpt lat="45.45517" lon="5.81076">
        <ele>613.6</ele>
      </trkpt>
      <trkpt lat="45.45497" lon="5.81052">
        <ele>619.4</ele>
      </trkpt>
      <trkpt lat="45.45477" lon="5.81038">
        <ele>622.3</ele>
      </trkpt>
      <trkpt lat="45.45449" lon="5.81021">
        <ele>624.8</ele>
      </trkpt>
      <trkpt lat="45.45431" lon="5.81009">
        <ele>625.8</ele>
      </trkpt>
      <trkpt lat="45.45414" lon="5.80991">
        <ele>627.5</ele>
      </trkpt>
      <trkpt lat="45.45396" lon="5.80972">
        <ele>630.7</ele>
      </trkpt>
      <trkpt lat="45.45377" lon="5.80945">
        <ele>632.3</ele>
      </trkpt>
      <trkpt lat="45.45356" lon="5.80914">
        <ele>631.1</ele>
      </trkpt>
      <trkpt lat="45.45345" lon="5.80894">
        <ele>631.6</ele>
      </trkpt>
      <trkpt lat="45.45334" lon="5.80872">
        <ele>632.3</ele>
      </trkpt>
      <trkpt lat="45.45323" lon="5.80851">
        <ele>635</ele>
      </trkpt>
      <trkpt lat="45.45313" lon="5.80835">
        <ele>636</ele>
      </trkpt>
      <trkpt lat="45.45297" lon="5.80814">
        <ele>637.3</ele>
      </trkpt>
      <trkpt lat="45.45281" lon="5.80797">
        <ele>637.8</ele>
      </trkpt>
      <trkpt lat="45.45253" lon="5.8077">
        <ele>636.8</ele>
      </trkpt>
      <trkpt lat="45.45239" lon="5.80758">
        <ele>637.8</ele>
      </trkpt>
      <trkpt lat="45.45217" lon="5.80762">
        <ele>641.1</ele>
      </trkpt>
      <trkpt lat="45.45192" lon="5.80761">
        <ele>644.5</ele>
      </trkpt>
      <trkpt lat="45.45176" lon="5.80757">
        <ele>646.1</ele>
      </trkpt>
      <trkpt lat="45.45152" lon="5.80744">
        <ele>649.1</ele>
      </trkpt>
      <trkpt lat="45.45117" lon="5.80729">
        <ele>655.2</ele>
      </trkpt>
      <trkpt lat="45.4509" lon="5.80714">
        <ele>657.8</ele>
      </trkpt>
      <trkpt lat="45.45052" lon="5.80695">
        <ele>656.4</ele>
      </trkpt>
      <trkpt lat="45.45032" lon="5.80667">
        <ele>651.3</ele>
      </trkpt>
      <trkpt lat="45.45016" lon="5.80658">
        <ele>649.9</ele>
      </trkpt>
      <trkpt lat="45.44989" lon="5.80655">
        <ele>648.4</ele>
      </trkpt>
      <trkpt lat="45.44988" lon="5.80642">
        <ele>647</ele>
      </trkpt>
      <trkpt lat="45.4502" lon="5.80607">
        <ele>646.2</ele>
      </trkpt>
      <trkpt lat="45.4502" lon="5.80586">
        <ele>644.6</ele>
      </trkpt>
      <trkpt lat="45.44974" lon="5.80561">
        <ele>637.2</ele>
      </trkpt>
      <trkpt lat="45.44939" lon="5.80566">
        <ele>635.1</ele>
      </trkpt>
      <trkpt lat="45.44883" lon="5.8054">
        <ele>631.2</ele>
      </trkpt>
      <trkpt lat="45.44861" lon="5.80507">
        <ele>626.7</ele>
      </trkpt>
      <trkpt lat="45.44843" lon="5.80476">
        <ele>623.9</ele>
      </trkpt>
      <trkpt lat="45.44828" lon="5.8047">
        <ele>624.8</ele>
      </trkpt>
      <trkpt lat="45.44813" lon="5.80474">
        <ele>628.9</ele>
      </trkpt>
      <trkpt lat="45.44812" lon="5.80452">
        <ele>627.5</ele>
      </trkpt>
      <trkpt lat="45.44828" lon="5.8043">
        <ele>622.1</ele>
      </trkpt>
      <trkpt lat="45.44861" lon="5.80397">
        <ele>623.4</ele>
      </trkpt>
      <trkpt lat="45.44892" lon="5.80386">
        <ele>624.5</ele>
      </trkpt>
      <trkpt lat="45.44914" lon="5.80373">
        <ele>624.5</ele>
      </trkpt>
      <trkpt lat="45.4494" lon="5.80352">
        <ele>620.6</ele>
      </trkpt>
      <trkpt lat="45.44961" lon="5.80329">
        <ele>615.5</ele>
      </trkpt>
      <trkpt lat="45.4497" lon="5.80264">
        <ele>612</ele>
      </trkpt>
      <trkpt lat="45.4497" lon="5.80254">
        <ele>611.4</ele>
      </trkpt>
      <trkpt lat="45.44972" lon="5.80224">
        <ele>606.1</ele>
      </trkpt>
      <trkpt lat="45.44986" lon="5.80192">
        <ele>594.1</ele>
      </trkpt>
      <trkpt lat="45.44983" lon="5.80165">
        <ele>590.7</ele>
      </trkpt>
      <trkpt lat="45.44988" lon="5.80122">
        <ele>583.4</ele>
      </trkpt>
      <trkpt lat="45.44983" lon="5.80109">
        <ele>584.3</ele>
      </trkpt>
      <trkpt lat="45.44905" lon="5.79931">
        <ele>586.9</ele>
      </trkpt>
      <trkpt lat="45.44897" lon="5.79909">
        <ele>585.1</ele>
      </trkpt>
      <trkpt lat="45.44893" lon="5.79889">
        <ele>584.6</ele>
      </trkpt>
      <trkpt lat="45.44882" lon="5.79871">
        <ele>584.5</ele>
      </trkpt>
      <trkpt lat="45.44866" lon="5.79853">
        <ele>583.8</ele>
      </trkpt>
      <trkpt lat="45.44857" lon="5.79837">
        <ele>582.2</ele>
      </trkpt>
      <trkpt lat="45.44845" lon="5.79822">
        <ele>581.8</ele>
      </trkpt>
      <trkpt lat="45.4482" lon="5.79804">
        <ele>583.2</ele>
      </trkpt>
      <trkpt lat="45.44808" lon="5.79795">
        <ele>584.3</ele>
      </trkpt>
      <trkpt lat="45.44801" lon="5.79785">
        <ele>584.2</ele>
      </trkpt>
      <trkpt lat="45.4479" lon="5.7973">
        <ele>580.4</ele>
      </trkpt>
      <trkpt lat="45.44784" lon="5.79714">
        <ele>580</ele>
      </trkpt>
      <trkpt lat="45.44777" lon="5.79703">
        <ele>579.7</ele>
      </trkpt>
      <trkpt lat="45.44769" lon="5.79693">
        <ele>579.3</ele>
      </trkpt>
      <trkpt lat="45.4474" lon="5.79669">
        <ele>579.4</ele>
      </trkpt>
      <trkpt lat="45.44699" lon="5.79637">
        <ele>580.4</ele>
      </trkpt>
      <trkpt lat="45.44693" lon="5.79631">
        <ele>580</ele>
      </trkpt>
      <trkpt lat="45.44666" lon="5.79584">
        <ele>573.2</ele>
      </trkpt>
      <trkpt lat="45.44654" lon="5.79569">
        <ele>573.3</ele>
      </trkpt>
      <trkpt lat="45.44637" lon="5.79548">
        <ele>572.9</ele>
      </trkpt>
      <trkpt lat="45.4463" lon="5.79532">
        <ele>571.7</ele>
      </trkpt>
      <trkpt lat="45.44624" lon="5.79514">
        <ele>570</ele>
      </trkpt>
      <trkpt lat="45.44616" lon="5.79497">
        <ele>568.8</ele>
      </trkpt>
      <trkpt lat="45.44611" lon="5.79493">
        <ele>569</ele>
      </trkpt>
      <trkpt lat="45.44599" lon="5.79488">
        <ele>569.3</ele>
      </trkpt>
      <trkpt lat="45.44578" lon="5.79482">
        <ele>569.8</ele>
      </trkpt>
      <trkpt lat="45.44569" lon="5.7948">
        <ele>570.5</ele>
      </trkpt>
      <trkpt lat="45.44562" lon="5.79475">
        <ele>571</ele>
      </trkpt>
      <trkpt lat="45.44542" lon="5.79453">
        <ele>572.2</ele>
      </trkpt>
      <trkpt lat="45.44534" lon="5.79432">
        <ele>572.4</ele>
      </trkpt>
      <trkpt lat="45.44531" lon="5.79425">
        <ele>572.4</ele>
      </trkpt>
      <trkpt lat="45.44526" lon="5.79406">
        <ele>572.5</ele>
      </trkpt>
      <trkpt lat="45.44519" lon="5.79391">
        <ele>572.9</ele>
      </trkpt>
      <trkpt lat="45.44505" lon="5.79384">
        <ele>573.3</ele>
      </trkpt>
      <trkpt lat="45.4449" lon="5.79381">
        <ele>573.6</ele>
      </trkpt>
      <trkpt lat="45.44479" lon="5.7937">
        <ele>573.9</ele>
      </trkpt>
      <trkpt lat="45.44464" lon="5.79355">
        <ele>574.3</ele>
      </trkpt>
      <trkpt lat="45.44446" lon="5.7935">
        <ele>574.6</ele>
      </trkpt>
      <trkpt lat="45.44438" lon="5.79333">
        <ele>574.8</ele>
      </trkpt>
      <trkpt lat="45.44426" lon="5.79323">
        <ele>575.3</ele>
      </trkpt>
      <trkpt lat="45.44398" lon="5.7932">
        <ele>574.1</ele>
      </trkpt>
      <trkpt lat="45.44385" lon="5.79306">
        <ele>573.7</ele>
      </trkpt>
      <trkpt lat="45.44372" lon="5.79285">
        <ele>573.5</ele>
      </trkpt>
      <trkpt lat="45.44353" lon="5.79275">
        <ele>572.5</ele>
      </trkpt>
      <trkpt lat="45.44329" lon="5.79299">
        <ele>569.7</ele>
      </trkpt>
      <trkpt lat="45.44296" lon="5.79296">
        <ele>565.6</ele>
      </trkpt>
      <trkpt lat="45.44259" lon="5.79293">
        <ele>561.1</ele>
      </trkpt>
      <trkpt lat="45.44239" lon="5.79286">
        <ele>558.8</ele>
      </trkpt>
      <trkpt lat="45.44221" lon="5.79288">
        <ele>556.1</ele>
      </trkpt>
      <trkpt lat="45.44204" lon="5.79299">
        <ele>553.4</ele>
      </trkpt>
      <trkpt lat="45.44176" lon="5.79293">
        <ele>549.7</ele>
      </trkpt>
      <trkpt lat="45.44158" lon="5.79274">
        <ele>546.7</ele>
      </trkpt>
      <trkpt lat="45.44147" lon="5.79244">
        <ele>544.4</ele>
      </trkpt>
      <trkpt lat="45.44137" lon="5.79246">
        <ele>542.3</ele>
      </trkpt>
      <trkpt lat="45.44118" lon="5.79227">
        <ele>537.2</ele>
      </trkpt>
      <trkpt lat="45.44103" lon="5.79219">
        <ele>532.6</ele>
      </trkpt>
      <trkpt lat="45.44096" lon="5.79202">
        <ele>528.5</ele>
      </trkpt>
      <trkpt lat="45.44092" lon="5.79184">
        <ele>525.1</ele>
      </trkpt>
      <trkpt lat="45.44093" lon="5.79162">
        <ele>522.6</ele>
      </trkpt>
      <trkpt lat="45.44099" lon="5.79152">
        <ele>524.9</ele>
      </trkpt>
      <trkpt lat="45.44115" lon="5.79134">
        <ele>531.1</ele>
      </trkpt>
      <trkpt lat="45.44128" lon="5.79127">
        <ele>537.2</ele>
      </trkpt>
      <trkpt lat="45.44133" lon="5.79111">
        <ele>540.1</ele>
      </trkpt>
      <trkpt lat="45.44136" lon="5.79076">
        <ele>542.8</ele>
      </trkpt>
      <trkpt lat="45.44122" lon="5.79046">
        <ele>540</ele>
      </trkpt>
      <trkpt lat="45.44111" lon="5.79014">
        <ele>539.2</ele>
      </trkpt>
      <trkpt lat="45.44101" lon="5.78992">
        <ele>538.7</ele>
      </trkpt>
      <trkpt lat="45.44084" lon="5.78972">
        <ele>536.6</ele>
      </trkpt>
      <trkpt lat="45.4407" lon="5.78945">
        <ele>535.3</ele>
      </trkpt>
      <trkpt lat="45.44059" lon="5.78914">
        <ele>535.8</ele>
      </trkpt>
      <trkpt lat="45.44032" lon="5.78839">
        <ele>538.2</ele>
      </trkpt>
      <trkpt lat="45.44015" lon="5.78717">
        <ele>537.2</ele>
      </trkpt>
      <trkpt lat="45.44008" lon="5.78672">
        <ele>528.4</ele>
      </trkpt>
      <trkpt lat="45.44015" lon="5.78647">
        <ele>524.9</ele>
      </trkpt>
      <trkpt lat="45.44061" lon="5.78585">
        <ele>536</ele>
      </trkpt>
      <trkpt lat="45.44086" lon="5.78571">
        <ele>546</ele>
      </trkpt>
      <trkpt lat="45.44103" lon="5.78519">
        <ele>524.7</ele>
      </trkpt>
      <trkpt lat="45.44102" lon="5.78512">
        <ele>521.1</ele>
      </trkpt>
      <trkpt lat="45.441" lon="5.78496">
        <ele>513.1</ele>
      </trkpt>
      <trkpt lat="45.44109" lon="5.78477">
        <ele>510.6</ele>
      </trkpt>
      <trkpt lat="45.44116" lon="5.78458">
        <ele>506.9</ele>
      </trkpt>
      <trkpt lat="45.44124" lon="5.78441">
        <ele>503.6</ele>
      </trkpt>
      <trkpt lat="45.44122" lon="5.78435">
        <ele>500.8</ele>
      </trkpt>
      <trkpt lat="45.44129" lon="5.78434">
        <ele>502.7</ele>
      </trkpt>
      <trkpt lat="45.44132" lon="5.78427">
        <ele>501.5</ele>
      </trkpt>
      <trkpt lat="45.44122" lon="5.78425">
        <ele>497.1</ele>
      </trkpt>
      <trkpt lat="45.44132" lon="5.78411">
        <ele>495.5</ele>
      </trkpt>
      <trkpt lat="45.44164" lon="5.78412">
        <ele>505.4</ele>
      </trkpt>
      <trkpt lat="45.4417" lon="5.78399">
        <ele>499.3</ele>
      </trkpt>
      <trkpt lat="45.4419" lon="5.78382">
        <ele>492.7</ele>
      </trkpt>
      <trkpt lat="45.4421" lon="5.78357">
        <ele>479</ele>
      </trkpt>
      <trkpt lat="45.44232" lon="5.78338">
        <ele>467.2</ele>
      </trkpt>
      <trkpt lat="45.44249" lon="5.78318">
        <ele>457.1</ele>
      </trkpt>
      <trkpt lat="45.44261" lon="5.78298">
        <ele>448.7</ele>
      </trkpt>
      <trkpt lat="45.44265" lon="5.78294">
        <ele>447</ele>
      </trkpt>
      <trkpt lat="45.4428" lon="5.7829">
        <ele>446.1</ele>
      </trkpt>
      <trkpt lat="45.44304" lon="5.78279">
        <ele>442.2</ele>
      </trkpt>
      <trkpt lat="45.44315" lon="5.78273">
        <ele>439.9</ele>
      </trkpt>
      <trkpt lat="45.44318" lon="5.78269">
        <ele>437.6</ele>
      </trkpt>
      <trkpt lat="45.4432" lon="5.78262">
        <ele>433.8</ele>
      </trkpt>
      <trkpt lat="45.44325" lon="5.78252">
        <ele>427.5</ele>
      </trkpt>
      <trkpt lat="45.4433" lon="5.78241">
        <ele>425.7</ele>
      </trkpt>
      <trkpt lat="45.44307" lon="5.78239">
        <ele>424.5</ele>
      </trkpt>
      <trkpt lat="45.44298" lon="5.7824">
        <ele>424.1</ele>
      </trkpt>
      <trkpt lat="45.44297" lon="5.78223">
        <ele>422</ele>
      </trkpt>
      <trkpt lat="45.44304" lon="5.78188">
        <ele>418.2</ele>
      </trkpt>
      <trkpt lat="45.4432" lon="5.78147">
        <ele>416.2</ele>
      </trkpt>
      <trkpt lat="45.44343" lon="5.78104">
        <ele>416.3</ele>
      </trkpt>
      <trkpt lat="45.4441" lon="5.7799">
        <ele>413.8</ele>
      </trkpt>
      <trkpt lat="45.44443" lon="5.77955">
        <ele>412.9</ele>
      </trkpt>
      <trkpt lat="45.44445" lon="5.77936">
        <ele>412.5</ele>
      </trkpt>
      <trkpt lat="45.44485" lon="5.77675">
        <ele>409.1</ele>
      </trkpt>
      <trkpt lat="45.44487" lon="5.77652">
        <ele>408.8</ele>
      </trkpt>
      <trkpt lat="45.44489" lon="5.77614">
        <ele>408.3</ele>
      </trkpt>
      <trkpt lat="45.44524" lon="5.77379">
        <ele>406.3</ele>
      </trkpt>
      <trkpt lat="45.44528" lon="5.77337">
        <ele>407</ele>
      </trkpt>
      <trkpt lat="45.44527" lon="5.7731">
        <ele>406.7</ele>
      </trkpt>
      <trkpt lat="45.44516" lon="5.77238">
        <ele>405.3</ele>
      </trkpt>
      <trkpt lat="45.44515" lon="5.77211">
        <ele>404.6</ele>
      </trkpt>
      <trkpt lat="45.44536" lon="5.7715">
        <ele>404.3</ele>
      </trkpt>
      <trkpt lat="45.44548" lon="5.77102">
        <ele>404.7</ele>
      </trkpt>
      <trkpt lat="45.44549" lon="5.77066">
        <ele>404.9</ele>
      </trkpt>
      <trkpt lat="45.44542" lon="5.77028">
        <ele>404.8</ele>
      </trkpt>
      <trkpt lat="45.44522" lon="5.76971">
        <ele>403.4</ele>
      </trkpt>
      <trkpt lat="45.44486" lon="5.76882">
        <ele>400.6</ele>
      </trkpt>
      <trkpt lat="45.44463" lon="5.76813">
        <ele>400.9</ele>
      </trkpt>
      <trkpt lat="45.44456" lon="5.768">
        <ele>401.2</ele>
      </trkpt>
      <trkpt lat="45.44448" lon="5.76785">
        <ele>401.5</ele>
      </trkpt>
      <trkpt lat="45.44424" lon="5.76755">
        <ele>402</ele>
      </trkpt>
      <trkpt lat="45.44411" lon="5.76736">
        <ele>402</ele>
      </trkpt>
      <trkpt lat="45.44402" lon="5.76716">
        <ele>402</ele>
      </trkpt>
      <trkpt lat="45.44396" lon="5.76676">
        <ele>402.5</ele>
      </trkpt>
      <trkpt lat="45.44389" lon="5.76648">
        <ele>402.1</ele>
      </trkpt>
      <trkpt lat="45.44369" lon="5.76605">
        <ele>400.9</ele>
      </trkpt>
      <trkpt lat="45.44338" lon="5.76581">
        <ele>400.1</ele>
      </trkpt>
      <trkpt lat="45.44277" lon="5.76506">
        <ele>400</ele>
      </trkpt>
      <trkpt lat="45.44273" lon="5.76506">
        <ele>400</ele>
      </trkpt>
      <trkpt lat="45.44269" lon="5.76504">
        <ele>400</ele>
      </trkpt>
      <trkpt lat="45.4423" lon="5.76458">
        <ele>398.6</ele>
      </trkpt>
      <trkpt lat="45.4421" lon="5.76432">
        <ele>397.8</ele>
      </trkpt>
      <trkpt lat="45.4418" lon="5.76391">
        <ele>396.9</ele>
      </trkpt>
      <trkpt lat="45.44178" lon="5.76385">
        <ele>396.8</ele>
      </trkpt>
      <trkpt lat="45.44177" lon="5.76375">
        <ele>396.7</ele>
      </trkpt>
      <trkpt lat="45.44152" lon="5.76343">
        <ele>396.1</ele>
      </trkpt>
      <trkpt lat="45.441" lon="5.76268">
        <ele>395.4</ele>
      </trkpt>
      <trkpt lat="45.44025" lon="5.76151">
        <ele>393.6</ele>
      </trkpt>
      <trkpt lat="45.43966" lon="5.76065">
        <ele>393.2</ele>
      </trkpt>
      <trkpt lat="45.43944" lon="5.76032">
        <ele>393</ele>
      </trkpt>
      <trkpt lat="45.43942" lon="5.76029">
        <ele>392.9</ele>
      </trkpt>
      <trkpt lat="45.43931" lon="5.76012">
        <ele>392.6</ele>
      </trkpt>
      <trkpt lat="45.43925" lon="5.76003">
        <ele>392.3</ele>
      </trkpt>
      <trkpt lat="45.43917" lon="5.75986">
        <ele>392.4</ele>
      </trkpt>
      <trkpt lat="45.43912" lon="5.75973">
        <ele>392.7</ele>
      </trkpt>
      <trkpt lat="45.43907" lon="5.75959">
        <ele>392.9</ele>
      </trkpt>
      <trkpt lat="45.43905" lon="5.75953">
        <ele>393</ele>
      </trkpt>
      <trkpt lat="45.43872" lon="5.75845">
        <ele>392.8</ele>
      </trkpt>
      <trkpt lat="45.43858" lon="5.75797">
        <ele>394.3</ele>
      </trkpt>
      <trkpt lat="45.43855" lon="5.75783">
        <ele>394.8</ele>
      </trkpt>
      <trkpt lat="45.43855" lon="5.75769">
        <ele>395.5</ele>
      </trkpt>
      <trkpt lat="45.43857" lon="5.75755">
        <ele>396.3</ele>
      </trkpt>
      <trkpt lat="45.43862" lon="5.75732">
        <ele>399.9</ele>
      </trkpt>
      <trkpt lat="45.43869" lon="5.75707">
        <ele>405</ele>
      </trkpt>
      <trkpt lat="45.43856" lon="5.75699">
        <ele>404.1</ele>
      </trkpt>
      <trkpt lat="45.4384" lon="5.75692">
        <ele>402.7</ele>
      </trkpt>
      <trkpt lat="45.4381" lon="5.75679">
        <ele>401.2</ele>
      </trkpt>
      <trkpt lat="45.43795" lon="5.75672">
        <ele>400.4</ele>
      </trkpt>
      <trkpt lat="45.43779" lon="5.75663">
        <ele>399.6</ele>
      </trkpt>
      <trkpt lat="45.43763" lon="5.75651">
        <ele>399.2</ele>
      </trkpt>
      <trkpt lat="45.43748" lon="5.75636">
        <ele>398.8</ele>
      </trkpt>
      <trkpt lat="45.43729" lon="5.75619">
        <ele>399.1</ele>
      </trkpt>
      <trkpt lat="45.43725" lon="5.75616">
        <ele>399.1</ele>
      </trkpt>
      <trkpt lat="45.43717" lon="5.75609">
        <ele>399</ele>
      </trkpt>
      <trkpt lat="45.43692" lon="5.75595">
        <ele>398.2</ele>
      </trkpt>
      <trkpt lat="45.43682" lon="5.75586">
        <ele>398.1</ele>
      </trkpt>
      <trkpt lat="45.43672" lon="5.75576">
        <ele>397.9</ele>
      </trkpt>
      <trkpt lat="45.43664" lon="5.75564">
        <ele>397.8</ele>
      </trkpt>
      <trkpt lat="45.43655" lon="5.75545">
        <ele>397.9</ele>
      </trkpt>
      <trkpt lat="45.43647" lon="5.75529">
        <ele>398</ele>
      </trkpt>
      <trkpt lat="45.43639" lon="5.75516">
        <ele>397.8</ele>
      </trkpt>
      <trkpt lat="45.43632" lon="5.75503">
        <ele>397.6</ele>
      </trkpt>
      <trkpt lat="45.43627" lon="5.75493">
        <ele>397.2</ele>
      </trkpt>
      <trkpt lat="45.43623" lon="5.75482">
        <ele>396.8</ele>
      </trkpt>
      <trkpt lat="45.43623" lon="5.7548">
        <ele>396.8</ele>
      </trkpt>
      <trkpt lat="45.43623" lon="5.75469">
        <ele>396.8</ele>
      </trkpt>
      <trkpt lat="45.43623" lon="5.75417">
        <ele>396.9</ele>
      </trkpt>
      <trkpt lat="45.43622" lon="5.75408">
        <ele>396.3</ele>
      </trkpt>
      <trkpt lat="45.43636" lon="5.75409">
        <ele>396.9</ele>
      </trkpt>
      <trkpt lat="45.43656" lon="5.75406">
        <ele>397.6</ele>
      </trkpt>
      <trkpt lat="45.43666" lon="5.75403">
        <ele>397.8</ele>
      </trkpt>
      <trkpt lat="45.43682" lon="5.75395">
        <ele>397.3</ele>
      </trkpt>
      <trkpt lat="45.43702" lon="5.75381">
        <ele>396.3</ele>
      </trkpt>
      <trkpt lat="45.4371" lon="5.75376">
        <ele>395.8</ele>
      </trkpt>
      <trkpt lat="45.43715" lon="5.75371">
        <ele>395.4</ele>
      </trkpt>
      <trkpt lat="45.43722" lon="5.75358">
        <ele>394.2</ele>
      </trkpt>
      <trkpt lat="45.43726" lon="5.75346">
        <ele>393.2</ele>
      </trkpt>
      <trkpt lat="45.43728" lon="5.75339">
        <ele>392.5</ele>
      </trkpt>
      <trkpt lat="45.43731" lon="5.7533">
        <ele>391.8</ele>
      </trkpt>
      <trkpt lat="45.43734" lon="5.75318">
        <ele>391.2</ele>
      </trkpt>
      <trkpt lat="45.43736" lon="5.75319">
        <ele>391.3</ele>
      </trkpt>
      <trkpt lat="45.43743" lon="5.75324">
        <ele>391.5</ele>
      </trkpt>
      <trkpt lat="45.43763" lon="5.75336">
        <ele>392.6</ele>
      </trkpt>
      <trkpt lat="45.43814" lon="5.75362">
        <ele>397.1</ele>
      </trkpt>
      <trkpt lat="45.43863" lon="5.75386">
        <ele>403.5</ele>
      </trkpt>
      <trkpt lat="45.43882" lon="5.75404">
        <ele>407.7</ele>
      </trkpt>
      <trkpt lat="45.43895" lon="5.75419">
        <ele>411.3</ele>
      </trkpt>
      <trkpt lat="45.43906" lon="5.75444">
        <ele>416.7</ele>
      </trkpt>
      <trkpt lat="45.43957" lon="5.75445">
        <ele>420</ele>
      </trkpt>
      <trkpt lat="45.43978" lon="5.75443">
        <ele>420.7</ele>
      </trkpt>
      <trkpt lat="45.43986" lon="5.7544">
        <ele>420.7</ele>
      </trkpt>
      <trkpt lat="45.44001" lon="5.7543">
        <ele>420</ele>
      </trkpt>
      <trkpt lat="45.44011" lon="5.75428">
        <ele>420.4</ele>
      </trkpt>
      <trkpt lat="45.44025" lon="5.75434">
        <ele>422.1</ele>
      </trkpt>
      <trkpt lat="45.44037" lon="5.75447">
        <ele>424.5</ele>
      </trkpt>
      <trkpt lat="45.44046" lon="5.75478">
        <ele>428.9</ele>
      </trkpt>
      <trkpt lat="45.44043" lon="5.75505">
        <ele>431.8</ele>
      </trkpt>
      <trkpt lat="45.44041" lon="5.7552">
        <ele>432.3</ele>
      </trkpt>
      <trkpt lat="45.44048" lon="5.75537">
        <ele>433.3</ele>
      </trkpt>
      <trkpt lat="45.44066" lon="5.75557">
        <ele>434.9</ele>
      </trkpt>
      <trkpt lat="45.44084" lon="5.75553">
        <ele>435.5</ele>
      </trkpt>
      <trkpt lat="45.44104" lon="5.7555">
        <ele>437</ele>
      </trkpt>
      <trkpt lat="45.44126" lon="5.75555">
        <ele>439</ele>
      </trkpt>
      <trkpt lat="45.44148" lon="5.75559">
        <ele>441</ele>
      </trkpt>
      <trkpt lat="45.44167" lon="5.75554">
        <ele>442.3</ele>
      </trkpt>
      <trkpt lat="45.44189" lon="5.75564">
        <ele>444.3</ele>
      </trkpt>
      <trkpt lat="45.44194" lon="5.75573">
        <ele>445.2</ele>
      </trkpt>
      <trkpt lat="45.44201" lon="5.75593">
        <ele>446.7</ele>
      </trkpt>
      <trkpt lat="45.44206" lon="5.75613">
        <ele>447.6</ele>
      </trkpt>
      <trkpt lat="45.44211" lon="5.75627">
        <ele>448.7</ele>
      </trkpt>
      <trkpt lat="45.44225" lon="5.75642">
        <ele>451.2</ele>
      </trkpt>
      <trkpt lat="45.44232" lon="5.75669">
        <ele>454</ele>
      </trkpt>
      <trkpt lat="45.44242" lon="5.75698">
        <ele>457.5</ele>
      </trkpt>
      <trkpt lat="45.4425" lon="5.75718">
        <ele>460.1</ele>
      </trkpt>
      <trkpt lat="45.4425" lon="5.75752">
        <ele>462.1</ele>
      </trkpt>
      <trkpt lat="45.44254" lon="5.75793">
        <ele>464.6</ele>
      </trkpt>
      <trkpt lat="45.44269" lon="5.75824">
        <ele>468.1</ele>
      </trkpt>
      <trkpt lat="45.44297" lon="5.75839">
        <ele>472.3</ele>
      </trkpt>
      <trkpt lat="45.44329" lon="5.75838">
        <ele>477.1</ele>
      </trkpt>
      <trkpt lat="45.44346" lon="5.75845">
        <ele>478.8</ele>
      </trkpt>
      <trkpt lat="45.44357" lon="5.75863">
        <ele>479.3</ele>
      </trkpt>
      <trkpt lat="45.44367" lon="5.75888">
        <ele>479.7</ele>
      </trkpt>
      <trkpt lat="45.44379" lon="5.75915">
        <ele>480.7</ele>
      </trkpt>
      <trkpt lat="45.44415" lon="5.75926">
        <ele>485.3</ele>
      </trkpt>
      <trkpt lat="45.44435" lon="5.75923">
        <ele>487.9</ele>
      </trkpt>
      <trkpt lat="45.44456" lon="5.75917">
        <ele>490.8</ele>
      </trkpt>
      <trkpt lat="45.44479" lon="5.75917">
        <ele>493</ele>
      </trkpt>
      <trkpt lat="45.44513" lon="5.75942">
        <ele>494.7</ele>
      </trkpt>
      <trkpt lat="45.44522" lon="5.75963">
        <ele>494.7</ele>
      </trkpt>
      <trkpt lat="45.44526" lon="5.75979">
        <ele>494.7</ele>
      </trkpt>
      <trkpt lat="45.44542" lon="5.76008">
        <ele>493.4</ele>
      </trkpt>
      <trkpt lat="45.44548" lon="5.76015">
        <ele>491.9</ele>
      </trkpt>
      <trkpt lat="45.44568" lon="5.76037">
        <ele>487.5</ele>
      </trkpt>
      <trkpt lat="45.44606" lon="5.76068">
        <ele>481.7</ele>
      </trkpt>
      <trkpt lat="45.44635" lon="5.76085">
        <ele>479.7</ele>
      </trkpt>
      <trkpt lat="45.44658" lon="5.7609">
        <ele>479.9</ele>
      </trkpt>
      <trkpt lat="45.44674" lon="5.76086">
        <ele>483.1</ele>
      </trkpt>
      <trkpt lat="45.44688" lon="5.76067">
        <ele>488.6</ele>
      </trkpt>
      <trkpt lat="45.44704" lon="5.76017">
        <ele>494.5</ele>
      </trkpt>
      <trkpt lat="45.4472" lon="5.75976">
        <ele>494.4</ele>
      </trkpt>
      <trkpt lat="45.44725" lon="5.75974">
        <ele>494.5</ele>
      </trkpt>
      <trkpt lat="45.44728" lon="5.75973">
        <ele>494.5</ele>
      </trkpt>
      <trkpt lat="45.44735" lon="5.75996">
        <ele>496.8</ele>
      </trkpt>
      <trkpt lat="45.44748" lon="5.76037">
        <ele>499.9</ele>
      </trkpt>
      <trkpt lat="45.44761" lon="5.76084">
        <ele>506.1</ele>
      </trkpt>
      <trkpt lat="45.44773" lon="5.76103">
        <ele>507.1</ele>
      </trkpt>
      <trkpt lat="45.44786" lon="5.76104">
        <ele>511.1</ele>
      </trkpt>
      <trkpt lat="45.44805" lon="5.76114">
        <ele>515.9</ele>
      </trkpt>
      <trkpt lat="45.44823" lon="5.76108">
        <ele>522.4</ele>
      </trkpt>
      <trkpt lat="45.44841" lon="5.761">
        <ele>525.9</ele>
      </trkpt>
      <trkpt lat="45.44854" lon="5.76106">
        <ele>525.7</ele>
      </trkpt>
      <trkpt lat="45.44864" lon="5.76118">
        <ele>525.9</ele>
      </trkpt>
      <trkpt lat="45.44879" lon="5.76126">
        <ele>526.7</ele>
      </trkpt>
      <trkpt lat="45.4489" lon="5.76154">
        <ele>529.2</ele>
      </trkpt>
      <trkpt lat="45.44884" lon="5.76173">
        <ele>527.6</ele>
      </trkpt>
      <trkpt lat="45.44887" lon="5.76194">
        <ele>523.5</ele>
      </trkpt>
      <trkpt lat="45.44898" lon="5.76202">
        <ele>524.3</ele>
      </trkpt>
      <trkpt lat="45.44917" lon="5.76215">
        <ele>526.4</ele>
      </trkpt>
      <trkpt lat="45.44938" lon="5.76228">
        <ele>526.9</ele>
      </trkpt>
      <trkpt lat="45.44952" lon="5.7622">
        <ele>529.2</ele>
      </trkpt>
      <trkpt lat="45.44961" lon="5.76207">
        <ele>530.8</ele>
      </trkpt>
      <trkpt lat="45.44973" lon="5.76203">
        <ele>531.7</ele>
      </trkpt>
      <trkpt lat="45.4498" lon="5.76197">
        <ele>532.2</ele>
      </trkpt>
      <trkpt lat="45.44999" lon="5.7619">
        <ele>532.8</ele>
      </trkpt>
      <trkpt lat="45.45036" lon="5.76172">
        <ele>533.7</ele>
      </trkpt>
      <trkpt lat="45.45104" lon="5.76126">
        <ele>527.1</ele>
      </trkpt>
      <trkpt lat="45.45114" lon="5.76179">
        <ele>536.3</ele>
      </trkpt>
      <trkpt lat="45.4514" lon="5.76211">
        <ele>540.7</ele>
      </trkpt>
      <trkpt lat="45.4517" lon="5.76217">
        <ele>542.4</ele>
      </trkpt>
      <trkpt lat="45.45185" lon="5.76207">
        <ele>542</ele>
      </trkpt>
      <trkpt lat="45.45217" lon="5.76244">
        <ele>550.7</ele>
      </trkpt>
      <trkpt lat="45.45272" lon="5.76301">
        <ele>563.5</ele>
      </trkpt>
      <trkpt lat="45.45333" lon="5.76294">
        <ele>565.5</ele>
      </trkpt>
      <trkpt lat="45.45355" lon="5.76314">
        <ele>568.3</ele>
      </trkpt>
      <trkpt lat="45.45379" lon="5.76349">
        <ele>573.6</ele>
      </trkpt>
      <trkpt lat="45.45396" lon="5.76378">
        <ele>577.3</ele>
      </trkpt>
      <trkpt lat="45.45419" lon="5.76403">
        <ele>581.6</ele>
      </trkpt>
      <trkpt lat="45.45443" lon="5.76446">
        <ele>579.5</ele>
      </trkpt>
      <trkpt lat="45.45481" lon="5.76458">
        <ele>577.6</ele>
      </trkpt>
      <trkpt lat="45.45514" lon="5.76457">
        <ele>577.6</ele>
      </trkpt>
      <trkpt lat="45.45529" lon="5.76483">
        <ele>579.8</ele>
      </trkpt>
      <trkpt lat="45.45564" lon="5.7652">
        <ele>584.2</ele>
      </trkpt>
      <trkpt lat="45.45577" lon="5.76575">
        <ele>586.5</ele>
      </trkpt>
      <trkpt lat="45.45591" lon="5.76601">
        <ele>588.9</ele>
      </trkpt>
      <trkpt lat="45.45604" lon="5.7661">
        <ele>591.5</ele>
      </trkpt>
      <trkpt lat="45.45616" lon="5.76621">
        <ele>593.8</ele>
      </trkpt>
      <trkpt lat="45.45636" lon="5.76632">
        <ele>597.5</ele>
      </trkpt>
      <trkpt lat="45.45652" lon="5.76634">
        <ele>601</ele>
      </trkpt>
      <trkpt lat="45.45663" lon="5.76634">
        <ele>603.4</ele>
      </trkpt>
      <trkpt lat="45.45669" lon="5.76633">
        <ele>604.8</ele>
      </trkpt>
      <trkpt lat="45.45683" lon="5.76635">
        <ele>607.6</ele>
      </trkpt>
      <trkpt lat="45.45702" lon="5.76644">
        <ele>611.5</ele>
      </trkpt>
      <trkpt lat="45.45713" lon="5.76665">
        <ele>613.6</ele>
      </trkpt>
      <trkpt lat="45.45743" lon="5.76698">
        <ele>618.8</ele>
      </trkpt>
      <trkpt lat="45.45759" lon="5.76712">
        <ele>622.1</ele>
      </trkpt>
      <trkpt lat="45.45768" lon="5.76723">
        <ele>624</ele>
      </trkpt>
      <trkpt lat="45.45777" lon="5.76726">
        <ele>626.1</ele>
      </trkpt>
      <trkpt lat="45.45789" lon="5.76719">
        <ele>629.4</ele>
      </trkpt>
      <trkpt lat="45.45793" lon="5.76713">
        <ele>630.6</ele>
      </trkpt>
      <trkpt lat="45.45797" lon="5.76705">
        <ele>631.5</ele>
      </trkpt>
      <trkpt lat="45.45806" lon="5.76702">
        <ele>633.8</ele>
      </trkpt>
      <trkpt lat="45.45815" lon="5.76709">
        <ele>636</ele>
      </trkpt>
      <trkpt lat="45.45824" lon="5.76741">
        <ele>638.3</ele>
      </trkpt>
      <trkpt lat="45.45827" lon="5.76749">
        <ele>639.2</ele>
      </trkpt>
      <trkpt lat="45.45893" lon="5.76793">
        <ele>649.6</ele>
      </trkpt>
      <trkpt lat="45.459" lon="5.76802">
        <ele>650.5</ele>
      </trkpt>
      <trkpt lat="45.45908" lon="5.76806">
        <ele>652</ele>
      </trkpt>
      <trkpt lat="45.45918" lon="5.76803">
        <ele>654.7</ele>
      </trkpt>
      <trkpt lat="45.45937" lon="5.76813">
        <ele>658.2</ele>
      </trkpt>
      <trkpt lat="45.45947" lon="5.76831">
        <ele>659.2</ele>
      </trkpt>
      <trkpt lat="45.45953" lon="5.76832">
        <ele>660.3</ele>
      </trkpt>
      <trkpt lat="45.45959" lon="5.7683">
        <ele>661.9</ele>
      </trkpt>
      <trkpt lat="45.45967" lon="5.76822">
        <ele>664.1</ele>
      </trkpt>
      <trkpt lat="45.45977" lon="5.76818">
        <ele>666.6</ele>
      </trkpt>
      <trkpt lat="45.4599" lon="5.76811">
        <ele>669.9</ele>
      </trkpt>
      <trkpt lat="45.46009" lon="5.76818">
        <ele>673.7</ele>
      </trkpt>
      <trkpt lat="45.46044" lon="5.76818">
        <ele>681.3</ele>
      </trkpt>
      <trkpt lat="45.46065" lon="5.76822">
        <ele>686</ele>
      </trkpt>
      <trkpt lat="45.46093" lon="5.76831">
        <ele>691.8</ele>
      </trkpt>
      <trkpt lat="45.46108" lon="5.7683">
        <ele>694.6</ele>
      </trkpt>
      <trkpt lat="45.46131" lon="5.76813">
        <ele>697.9</ele>
      </trkpt>
      <trkpt lat="45.46156" lon="5.76799">
        <ele>700.7</ele>
      </trkpt>
      <trkpt lat="45.46234" lon="5.76779">
        <ele>710.4</ele>
      </trkpt>
      <trkpt lat="45.46271" lon="5.76699">
        <ele>702.9</ele>
      </trkpt>
      <trkpt lat="45.46274" lon="5.7669">
        <ele>701.3</ele>
      </trkpt>
      <trkpt lat="45.46283" lon="5.76714">
        <ele>707.3</ele>
      </trkpt>
      <trkpt lat="45.46286" lon="5.7675">
        <ele>714.8</ele>
      </trkpt>
      <trkpt lat="45.46296" lon="5.76785">
        <ele>719.9</ele>
      </trkpt>
      <trkpt lat="45.46311" lon="5.76817">
        <ele>725.8</ele>
      </trkpt>
      <trkpt lat="45.4635" lon="5.76867">
        <ele>733</ele>
      </trkpt>
      <trkpt lat="45.46361" lon="5.76903">
        <ele>733.7</ele>
      </trkpt>
      <trkpt lat="45.46376" lon="5.76919">
        <ele>735.8</ele>
      </trkpt>
      <trkpt lat="45.46391" lon="5.76916">
        <ele>739.5</ele>
      </trkpt>
      <trkpt lat="45.46418" lon="5.76934">
        <ele>743</ele>
      </trkpt>
      <trkpt lat="45.46449" lon="5.76939">
        <ele>749.9</ele>
      </trkpt>
      <trkpt lat="45.46471" lon="5.76939">
        <ele>755.4</ele>
      </trkpt>
      <trkpt lat="45.46485" lon="5.76945">
        <ele>758.2</ele>
      </trkpt>
      <trkpt lat="45.465" lon="5.76957">
        <ele>760.2</ele>
      </trkpt>
      <trkpt lat="45.46538" lon="5.76976">
        <ele>766.9</ele>
      </trkpt>
      <trkpt lat="45.46607" lon="5.76976">
        <ele>781.5</ele>
      </trkpt>
      <trkpt lat="45.4665" lon="5.76933">
        <ele>787.8</ele>
      </trkpt>
      <trkpt lat="45.46679" lon="5.76913">
        <ele>788.9</ele>
      </trkpt>
      <trkpt lat="45.46722" lon="5.76907">
        <ele>790.5</ele>
      </trkpt>
      <trkpt lat="45.46757" lon="5.7693">
        <ele>795</ele>
      </trkpt>
      <trkpt lat="45.46789" lon="5.76958">
        <ele>798.8</ele>
      </trkpt>
      <trkpt lat="45.46801" lon="5.76969">
        <ele>800.7</ele>
      </trkpt>
      <trkpt lat="45.4683" lon="5.76966">
        <ele>802.2</ele>
      </trkpt>
      <trkpt lat="45.46857" lon="5.76976">
        <ele>803.5</ele>
      </trkpt>
      <trkpt lat="45.46877" lon="5.76979">
        <ele>803.7</ele>
      </trkpt>
      <trkpt lat="45.46891" lon="5.76975">
        <ele>803</ele>
      </trkpt>
      <trkpt lat="45.46965" lon="5.76946">
        <ele>798.6</ele>
      </trkpt>
      <trkpt lat="45.46997" lon="5.76934">
        <ele>795.8</ele>
      </trkpt>
      <trkpt lat="45.47015" lon="5.76938">
        <ele>794.8</ele>
      </trkpt>
      <trkpt lat="45.47045" lon="5.76963">
        <ele>797</ele>
      </trkpt>
      <trkpt lat="45.4712" lon="5.76992">
        <ele>797.8</ele>
      </trkpt>
      <trkpt lat="45.47161" lon="5.76991">
        <ele>795.2</ele>
      </trkpt>
      <trkpt lat="45.47194" lon="5.76996">
        <ele>794.3</ele>
      </trkpt>
      <trkpt lat="45.47238" lon="5.77007">
        <ele>794.1</ele>
      </trkpt>
      <trkpt lat="45.47248" lon="5.77013">
        <ele>794.6</ele>
      </trkpt>
      <trkpt lat="45.47259" lon="5.77022">
        <ele>794.2</ele>
      </trkpt>
      <trkpt lat="45.47271" lon="5.77036">
        <ele>793.8</ele>
      </trkpt>
      <trkpt lat="45.47289" lon="5.7704">
        <ele>790.4</ele>
      </trkpt>
      <trkpt lat="45.47296" lon="5.77047">
        <ele>789.8</ele>
      </trkpt>
      <trkpt lat="45.47301" lon="5.7707">
        <ele>793.2</ele>
      </trkpt>
      <trkpt lat="45.47307" lon="5.77082">
        <ele>794.1</ele>
      </trkpt>
      <trkpt lat="45.47315" lon="5.77091">
        <ele>793.8</ele>
      </trkpt>
      <trkpt lat="45.47337" lon="5.77101">
        <ele>791.6</ele>
      </trkpt>
      <trkpt lat="45.47369" lon="5.77111">
        <ele>791</ele>
      </trkpt>
      <trkpt lat="45.47407" lon="5.77127">
        <ele>792</ele>
      </trkpt>
      <trkpt lat="45.47432" lon="5.77145">
        <ele>794.7</ele>
      </trkpt>
      <trkpt lat="45.47454" lon="5.77154">
        <ele>794.7</ele>
      </trkpt>
      <trkpt lat="45.47482" lon="5.77176">
        <ele>799.1</ele>
      </trkpt>
      <trkpt lat="45.47501" lon="5.77192">
        <ele>802.3</ele>
      </trkpt>
      <trkpt lat="45.47514" lon="5.77207">
        <ele>804.5</ele>
      </trkpt>
      <trkpt lat="45.47527" lon="5.7723">
        <ele>809.5</ele>
      </trkpt>
      <trkpt lat="45.47538" lon="5.77237">
        <ele>809.8</ele>
      </trkpt>
      <trkpt lat="45.47556" lon="5.77256">
        <ele>812.4</ele>
      </trkpt>
      <trkpt lat="45.47578" lon="5.77274">
        <ele>815.2</ele>
      </trkpt>
      <trkpt lat="45.47606" lon="5.773">
        <ele>817.2</ele>
      </trkpt>
      <trkpt lat="45.47638" lon="5.77349">
        <ele>827.7</ele>
      </trkpt>
      <trkpt lat="45.47663" lon="5.7736">
        <ele>826.1</ele>
      </trkpt>
      <trkpt lat="45.47686" lon="5.77381">
        <ele>830.1</ele>
      </trkpt>
      <trkpt lat="45.47702" lon="5.77385">
        <ele>828.7</ele>
      </trkpt>
      <trkpt lat="45.47725" lon="5.77405">
        <ele>833.8</ele>
      </trkpt>
      <trkpt lat="45.47737" lon="5.7743">
        <ele>841.3</ele>
      </trkpt>
      <trkpt lat="45.47775" lon="5.77449">
        <ele>836.9</ele>
      </trkpt>
      <trkpt lat="45.47808" lon="5.77497">
        <ele>842.3</ele>
      </trkpt>
      <trkpt lat="45.47905" lon="5.77564">
        <ele>834.4</ele>
      </trkpt>
      <trkpt lat="45.47926" lon="5.77596">
        <ele>838.3</ele>
      </trkpt>
      <trkpt lat="45.47929" lon="5.77602">
        <ele>839.4</ele>
      </trkpt>
      <trkpt lat="45.47943" lon="5.77612">
        <ele>839.1</ele>
      </trkpt>
      <trkpt lat="45.47964" lon="5.77603">
        <ele>830.3</ele>
      </trkpt>
      <trkpt lat="45.47999" lon="5.7762">
        <ele>828.3</ele>
      </trkpt>
      <trkpt lat="45.48025" lon="5.77638">
        <ele>827.6</ele>
      </trkpt>
      <trkpt lat="45.48051" lon="5.77656">
        <ele>826.5</ele>
      </trkpt>
      <trkpt lat="45.48065" lon="5.77668">
        <ele>826.7</ele>
      </trkpt>
      <trkpt lat="45.48076" lon="5.77683">
        <ele>828.7</ele>
      </trkpt>
      <trkpt lat="45.48082" lon="5.77713">
        <ele>837.5</ele>
      </trkpt>
      <trkpt lat="45.48088" lon="5.77747">
        <ele>848.6</ele>
      </trkpt>
      <trkpt lat="45.481" lon="5.77749">
        <ele>846.3</ele>
      </trkpt>
      <trkpt lat="45.48111" lon="5.77753">
        <ele>845.4</ele>
      </trkpt>
      <trkpt lat="45.48117" lon="5.77771">
        <ele>849.9</ele>
      </trkpt>
      <trkpt lat="45.48116" lon="5.77779">
        <ele>852.9</ele>
      </trkpt>
      <trkpt lat="45.48119" lon="5.77784">
        <ele>853.9</ele>
      </trkpt>
      <trkpt lat="45.48161" lon="5.77808">
        <ele>854.4</ele>
      </trkpt>
      <trkpt lat="45.48178" lon="5.77825">
        <ele>855.9</ele>
      </trkpt>
      <trkpt lat="45.48193" lon="5.77845">
        <ele>857.9</ele>
      </trkpt>
      <trkpt lat="45.48207" lon="5.77862">
        <ele>859.6</ele>
      </trkpt>
      <trkpt lat="45.48215" lon="5.77875">
        <ele>861.5</ele>
      </trkpt>
      <trkpt lat="45.48223" lon="5.77902">
        <ele>868.3</ele>
      </trkpt>
      <trkpt lat="45.48229" lon="5.77912">
        <ele>869.9</ele>
      </trkpt>
      <trkpt lat="45.48239" lon="5.77921">
        <ele>869.8</ele>
      </trkpt>
      <trkpt lat="45.48255" lon="5.77945">
        <ele>871.3</ele>
      </trkpt>
      <trkpt lat="45.48274" lon="5.77988">
        <ele>876</ele>
      </trkpt>
      <trkpt lat="45.48276" lon="5.78">
        <ele>879</ele>
      </trkpt>
      <trkpt lat="45.48282" lon="5.78015">
        <ele>879.9</ele>
      </trkpt>
      <trkpt lat="45.48285" lon="5.78057">
        <ele>889</ele>
      </trkpt>
      <trkpt lat="45.48279" lon="5.78099">
        <ele>901.6</ele>
      </trkpt>
      <trkpt lat="45.48282" lon="5.78122">
        <ele>906.2</ele>
      </trkpt>
      <trkpt lat="45.48293" lon="5.78124">
        <ele>903.4</ele>
      </trkpt>
      <trkpt lat="45.48307" lon="5.78123">
        <ele>898.7</ele>
      </trkpt>
      <trkpt lat="45.48312" lon="5.78125">
        <ele>897.7</ele>
      </trkpt>
      <trkpt lat="45.48318" lon="5.78128">
        <ele>896.6</ele>
      </trkpt>
      <trkpt lat="45.48332" lon="5.7814">
        <ele>896.4</ele>
      </trkpt>
      <trkpt lat="45.48347" lon="5.78161">
        <ele>900.1</ele>
      </trkpt>
      <trkpt lat="45.4836" lon="5.78189">
        <ele>908.9</ele>
      </trkpt>
      <trkpt lat="45.4838" lon="5.78223">
        <ele>918.3</ele>
      </trkpt>
      <trkpt lat="45.4841" lon="5.78266">
        <ele>928</ele>
      </trkpt>
      <trkpt lat="45.48312" lon="5.78125">
        <ele>897.7</ele>
      </trkpt>
      <trkpt lat="45.48315" lon="5.78116">
        <ele>894.1</ele>
      </trkpt>
      <trkpt lat="45.48321" lon="5.78115">
        <ele>891.9</ele>
      </trkpt>
      <trkpt lat="45.48328" lon="5.78107">
        <ele>886.7</ele>
      </trkpt>
      <trkpt lat="45.48336" lon="5.78097">
        <ele>880.8</ele>
      </trkpt>
      <trkpt lat="45.48336" lon="5.78088">
        <ele>877.7</ele>
      </trkpt>
      <trkpt lat="45.48339" lon="5.78079">
        <ele>874</ele>
      </trkpt>
      <trkpt lat="45.48369" lon="5.78086">
        <ele>867.6</ele>
      </trkpt>
      <trkpt lat="45.48374" lon="5.78079">
        <ele>863.8</ele>
      </trkpt>
      <trkpt lat="45.48391" lon="5.78084">
        <ele>860.5</ele>
      </trkpt>
      <trkpt lat="45.48401" lon="5.78082">
        <ele>857.1</ele>
      </trkpt>
      <trkpt lat="45.48409" lon="5.78088">
        <ele>857.1</ele>
      </trkpt>
      <trkpt lat="45.4842" lon="5.78088">
        <ele>853.1</ele>
      </trkpt>
      <trkpt lat="45.48427" lon="5.7809">
        <ele>849.1</ele>
      </trkpt>
      <trkpt lat="45.48429" lon="5.78085">
        <ele>846</ele>
      </trkpt>
      <trkpt lat="45.48435" lon="5.78084">
        <ele>842</ele>
      </trkpt>
      <trkpt lat="45.48445" lon="5.78091">
        <ele>838.4</ele>
      </trkpt>
      <trkpt lat="45.48455" lon="5.78093">
        <ele>833</ele>
      </trkpt>
      <trkpt lat="45.48465" lon="5.78099">
        <ele>829.9</ele>
      </trkpt>
      <trkpt lat="45.48468" lon="5.78106">
        <ele>830.9</ele>
      </trkpt>
      <trkpt lat="45.48475" lon="5.7811">
        <ele>828.9</ele>
      </trkpt>
      <trkpt lat="45.48484" lon="5.78108">
        <ele>822.5</ele>
      </trkpt>
      <trkpt lat="45.4849" lon="5.78113">
        <ele>820.5</ele>
      </trkpt>
      <trkpt lat="45.48502" lon="5.78125">
        <ele>819.3</ele>
      </trkpt>
      <trkpt lat="45.4851" lon="5.78127">
        <ele>817.3</ele>
      </trkpt>
      <trkpt lat="45.48512" lon="5.7813">
        <ele>818</ele>
      </trkpt>
      <trkpt lat="45.48515" lon="5.78126">
        <ele>814.8</ele>
      </trkpt>
      <trkpt lat="45.48512" lon="5.78117">
        <ele>812.1</ele>
      </trkpt>
      <trkpt lat="45.48508" lon="5.78111">
        <ele>810.8</ele>
      </trkpt>
      <trkpt lat="45.48506" lon="5.78103">
        <ele>807.9</ele>
      </trkpt>
      <trkpt lat="45.48507" lon="5.78096">
        <ele>804.3</ele>
      </trkpt>
      <trkpt lat="45.48517" lon="5.78095">
        <ele>800.1</ele>
      </trkpt>
      <trkpt lat="45.4852" lon="5.78098">
        <ele>800.3</ele>
      </trkpt>
      <trkpt lat="45.48532" lon="5.78098">
        <ele>795.6</ele>
      </trkpt>
      <trkpt lat="45.48543" lon="5.78105">
        <ele>794.8</ele>
      </trkpt>
      <trkpt lat="45.4855" lon="5.78105">
        <ele>792.1</ele>
      </trkpt>
      <trkpt lat="45.48555" lon="5.78104">
        <ele>789.4</ele>
      </trkpt>
      <trkpt lat="45.48558" lon="5.78097">
        <ele>785.9</ele>
      </trkpt>
      <trkpt lat="45.48564" lon="5.78099">
        <ele>784.3</ele>
      </trkpt>
      <trkpt lat="45.48568" lon="5.78111">
        <ele>787.6</ele>
      </trkpt>
      <trkpt lat="45.48571" lon="5.78117">
        <ele>788.9</ele>
      </trkpt>
      <trkpt lat="45.48577" lon="5.78118">
        <ele>786.7</ele>
      </trkpt>
      <trkpt lat="45.48581" lon="5.78116">
        <ele>784.7</ele>
      </trkpt>
      <trkpt lat="45.48596" lon="5.7812">
        <ele>782.6</ele>
      </trkpt>
      <trkpt lat="45.48615" lon="5.78128">
        <ele>781.8</ele>
      </trkpt>
      <trkpt lat="45.48622" lon="5.78129">
        <ele>780.7</ele>
      </trkpt>
      <trkpt lat="45.48628" lon="5.78122">
        <ele>777.1</ele>
      </trkpt>
      <trkpt lat="45.48643" lon="5.78118">
        <ele>773</ele>
      </trkpt>
      <trkpt lat="45.48645" lon="5.78115">
        <ele>771.7</ele>
      </trkpt>
      <trkpt lat="45.48659" lon="5.78119">
        <ele>770.4</ele>
      </trkpt>
      <trkpt lat="45.4868" lon="5.78134">
        <ele>773.6</ele>
      </trkpt>
      <trkpt lat="45.48709" lon="5.78139">
        <ele>776.5</ele>
      </trkpt>
      <trkpt lat="45.48708" lon="5.78147">
        <ele>778.1</ele>
      </trkpt>
      <trkpt lat="45.48713" lon="5.78155">
        <ele>780</ele>
      </trkpt>
      <trkpt lat="45.48721" lon="5.78155">
        <ele>780.4</ele>
      </trkpt>
      <trkpt lat="45.48736" lon="5.78156">
        <ele>780.9</ele>
      </trkpt>
      <trkpt lat="45.48752" lon="5.78162">
        <ele>782.1</ele>
      </trkpt>
      <trkpt lat="45.4877" lon="5.78161">
        <ele>781.6</ele>
      </trkpt>
      <trkpt lat="45.48782" lon="5.78169">
        <ele>782.8</ele>
      </trkpt>
      <trkpt lat="45.48788" lon="5.78185">
        <ele>785.9</ele>
      </trkpt>
      <trkpt lat="45.488" lon="5.78191">
        <ele>786.4</ele>
      </trkpt>
      <trkpt lat="45.48826" lon="5.7819">
        <ele>784.1</ele>
      </trkpt>
      <trkpt lat="45.48847" lon="5.78201">
        <ele>783.2</ele>
      </trkpt>
      <trkpt lat="45.48882" lon="5.78216">
        <ele>781.5</ele>
      </trkpt>
      <trkpt lat="45.48897" lon="5.78238">
        <ele>783.1</ele>
      </trkpt>
      <trkpt lat="45.48923" lon="5.78254">
        <ele>781.3</ele>
      </trkpt>
      <trkpt lat="45.48928" lon="5.78277">
        <ele>781.6</ele>
      </trkpt>
      <trkpt lat="45.48942" lon="5.783">
        <ele>779.1</ele>
      </trkpt>
      <trkpt lat="45.48959" lon="5.78306">
        <ele>774.1</ele>
      </trkpt>
      <trkpt lat="45.48975" lon="5.78296">
        <ele>768.1</ele>
      </trkpt>
      <trkpt lat="45.48989" lon="5.78287">
        <ele>762.7</ele>
      </trkpt>
      <trkpt lat="45.48999" lon="5.78303">
        <ele>760.9</ele>
      </trkpt>
      <trkpt lat="45.48998" lon="5.78319">
        <ele>763.2</ele>
      </trkpt>
      <trkpt lat="45.48992" lon="5.78347">
        <ele>768.8</ele>
      </trkpt>
      <trkpt lat="45.4901" lon="5.78369">
        <ele>769.1</ele>
      </trkpt>
      <trkpt lat="45.4903" lon="5.78381">
        <ele>769.5</ele>
      </trkpt>
      <trkpt lat="45.4905" lon="5.78386">
        <ele>768.9</ele>
      </trkpt>
      <trkpt lat="45.49055" lon="5.78383">
        <ele>767.9</ele>
      </trkpt>
      <trkpt lat="45.49058" lon="5.78382">
        <ele>767.5</ele>
      </trkpt>
      <trkpt lat="45.49063" lon="5.78369">
        <ele>764.7</ele>
      </trkpt>
      <trkpt lat="45.49059" lon="5.78353">
        <ele>762.1</ele>
      </trkpt>
      <trkpt lat="45.49055" lon="5.78339">
        <ele>759.8</ele>
      </trkpt>
      <trkpt lat="45.49049" lon="5.78316">
        <ele>756.7</ele>
      </trkpt>
      <trkpt lat="45.49048" lon="5.78289">
        <ele>752.8</ele>
      </trkpt>
      <trkpt lat="45.49051" lon="5.78274">
        <ele>750.1</ele>
      </trkpt>
      <trkpt lat="45.49052" lon="5.78255">
        <ele>747</ele>
      </trkpt>
      <trkpt lat="45.49051" lon="5.78236">
        <ele>743.6</ele>
      </trkpt>
      <trkpt lat="45.49045" lon="5.78213">
        <ele>740</ele>
      </trkpt>
      <trkpt lat="45.49039" lon="5.78195">
        <ele>737.6</ele>
      </trkpt>
      <trkpt lat="45.49031" lon="5.78176">
        <ele>735.4</ele>
      </trkpt>
      <trkpt lat="45.49017" lon="5.78149">
        <ele>732.4</ele>
      </trkpt>
      <trkpt lat="45.49009" lon="5.78128">
        <ele>729.8</ele>
      </trkpt>
      <trkpt lat="45.49002" lon="5.78098">
        <ele>725.4</ele>
      </trkpt>
      <trkpt lat="45.48999" lon="5.78067">
        <ele>720</ele>
      </trkpt>
      <trkpt lat="45.48992" lon="5.78046">
        <ele>719.2</ele>
      </trkpt>
      <trkpt lat="45.48982" lon="5.78018">
        <ele>717.5</ele>
      </trkpt>
      <trkpt lat="45.48977" lon="5.77999">
        <ele>715.6</ele>
      </trkpt>
      <trkpt lat="45.48971" lon="5.77977">
        <ele>713.4</ele>
      </trkpt>
      <trkpt lat="45.4897" lon="5.77963">
        <ele>710.8</ele>
      </trkpt>
      <trkpt lat="45.48968" lon="5.77943">
        <ele>707.3</ele>
      </trkpt>
      <trkpt lat="45.48976" lon="5.77935">
        <ele>702.7</ele>
      </trkpt>
      <trkpt lat="45.48991" lon="5.77963">
        <ele>703</ele>
      </trkpt>
      <trkpt lat="45.49007" lon="5.77989">
        <ele>703.2</ele>
      </trkpt>
      <trkpt lat="45.49026" lon="5.78006">
        <ele>703.9</ele>
      </trkpt>
      <trkpt lat="45.49057" lon="5.78026">
        <ele>703</ele>
      </trkpt>
      <trkpt lat="45.49078" lon="5.7805">
        <ele>702.9</ele>
      </trkpt>
      <trkpt lat="45.49084" lon="5.78048">
        <ele>701.8</ele>
      </trkpt>
      <trkpt lat="45.49092" lon="5.78012">
        <ele>699.4</ele>
      </trkpt>
      <trkpt lat="45.491" lon="5.77976">
        <ele>696.4</ele>
      </trkpt>
      <trkpt lat="45.49111" lon="5.7794">
        <ele>693.9</ele>
      </trkpt>
      <trkpt lat="45.49117" lon="5.77909">
        <ele>691.1</ele>
      </trkpt>
      <trkpt lat="45.49118" lon="5.77867">
        <ele>685.5</ele>
      </trkpt>
      <trkpt lat="45.49122" lon="5.77851">
        <ele>684</ele>
      </trkpt>
      <trkpt lat="45.49136" lon="5.7785">
        <ele>686.4</ele>
      </trkpt>
      <trkpt lat="45.49152" lon="5.77849">
        <ele>689.3</ele>
      </trkpt>
      <trkpt lat="45.49165" lon="5.77833">
        <ele>688.6</ele>
      </trkpt>
      <trkpt lat="45.49177" lon="5.77784">
        <ele>680.8</ele>
      </trkpt>
      <trkpt lat="45.49177" lon="5.77744">
        <ele>672.5</ele>
      </trkpt>
      <trkpt lat="45.4917" lon="5.7768">
        <ele>657.4</ele>
      </trkpt>
      <trkpt lat="45.49196" lon="5.77671">
        <ele>658.6</ele>
      </trkpt>
      <trkpt lat="45.49218" lon="5.77667">
        <ele>660.2</ele>
      </trkpt>
      <trkpt lat="45.49247" lon="5.77668">
        <ele>663.9</ele>
      </trkpt>
      <trkpt lat="45.49264" lon="5.77677">
        <ele>665.2</ele>
      </trkpt>
      <trkpt lat="45.49277" lon="5.77689">
        <ele>667.8</ele>
      </trkpt>
      <trkpt lat="45.49303" lon="5.77685">
        <ele>663.8</ele>
      </trkpt>
      <trkpt lat="45.49323" lon="5.77681">
        <ele>660.7</ele>
      </trkpt>
      <trkpt lat="45.49338" lon="5.77683">
        <ele>659.6</ele>
      </trkpt>
      <trkpt lat="45.49356" lon="5.77691">
        <ele>660</ele>
      </trkpt>
      <trkpt lat="45.49365" lon="5.77695">
        <ele>660</ele>
      </trkpt>
      <trkpt lat="45.49386" lon="5.77678">
        <ele>650.6</ele>
      </trkpt>
      <trkpt lat="45.49399" lon="5.77676">
        <ele>647.7</ele>
      </trkpt>
      <trkpt lat="45.4943" lon="5.77668">
        <ele>641.8</ele>
      </trkpt>
      <trkpt lat="45.49451" lon="5.77676">
        <ele>643.1</ele>
      </trkpt>
      <trkpt lat="45.49467" lon="5.77669">
        <ele>640.2</ele>
      </trkpt>
      <trkpt lat="45.49486" lon="5.77666">
        <ele>638.5</ele>
      </trkpt>
      <trkpt lat="45.49515" lon="5.7767">
        <ele>638.4</ele>
      </trkpt>
      <trkpt lat="45.49529" lon="5.77649">
        <ele>633.7</ele>
      </trkpt>
      <trkpt lat="45.49534" lon="5.77632">
        <ele>630.2</ele>
      </trkpt>
      <trkpt lat="45.49526" lon="5.77585">
        <ele>620.5</ele>
      </trkpt>
      <trkpt lat="45.49527" lon="5.77567">
        <ele>618.7</ele>
      </trkpt>
      <trkpt lat="45.49538" lon="5.77542">
        <ele>616.8</ele>
      </trkpt>
      <trkpt lat="45.49541" lon="5.77531">
        <ele>616</ele>
      </trkpt>
      <trkpt lat="45.4954" lon="5.77519">
        <ele>614.7</ele>
      </trkpt>
      <trkpt lat="45.49529" lon="5.77498">
        <ele>612.2</ele>
      </trkpt>
      <trkpt lat="45.49521" lon="5.7749">
        <ele>611.1</ele>
      </trkpt>
      <trkpt lat="45.49503" lon="5.77486">
        <ele>609.8</ele>
      </trkpt>
      <trkpt lat="45.49511" lon="5.77454">
        <ele>607.2</ele>
      </trkpt>
      <trkpt lat="45.49514" lon="5.77429">
        <ele>605.2</ele>
      </trkpt>
      <trkpt lat="45.49518" lon="5.77399">
        <ele>602.8</ele>
      </trkpt>
      <trkpt lat="45.49523" lon="5.77375">
        <ele>601.2</ele>
      </trkpt>
      <trkpt lat="45.49558" lon="5.77361">
        <ele>602.5</ele>
      </trkpt>
      <trkpt lat="45.49586" lon="5.77354">
        <ele>603.8</ele>
      </trkpt>
      <trkpt lat="45.49603" lon="5.77343">
        <ele>603.3</ele>
      </trkpt>
      <trkpt lat="45.49624" lon="5.77348">
        <ele>604.2</ele>
      </trkpt>
      <trkpt lat="45.49635" lon="5.77358">
        <ele>605.3</ele>
      </trkpt>
      <trkpt lat="45.49676" lon="5.77363">
        <ele>606.5</ele>
      </trkpt>
      <trkpt lat="45.49697" lon="5.77386">
        <ele>608.7</ele>
      </trkpt>
      <trkpt lat="45.49713" lon="5.77411">
        <ele>611</ele>
      </trkpt>
      <trkpt lat="45.49726" lon="5.77427">
        <ele>612.7</ele>
      </trkpt>
      <trkpt lat="45.4973" lon="5.77426">
        <ele>612.7</ele>
      </trkpt>
      <trkpt lat="45.49755" lon="5.77423">
        <ele>612.6</ele>
      </trkpt>
      <trkpt lat="45.4977" lon="5.77433">
        <ele>613.6</ele>
      </trkpt>
      <trkpt lat="45.49791" lon="5.77436">
        <ele>613.9</ele>
      </trkpt>
      <trkpt lat="45.4983" lon="5.77444">
        <ele>614.9</ele>
      </trkpt>
      <trkpt lat="45.49844" lon="5.77462">
        <ele>617.1</ele>
      </trkpt>
      <trkpt lat="45.49911" lon="5.77501">
        <ele>622.9</ele>
      </trkpt>
      <trkpt lat="45.49922" lon="5.7749">
        <ele>621.5</ele>
      </trkpt>
      <trkpt lat="45.49957" lon="5.77492">
        <ele>619.1</ele>
      </trkpt>
      <trkpt lat="45.49977" lon="5.77502">
        <ele>618.9</ele>
      </trkpt>
      <trkpt lat="45.49997" lon="5.77502">
        <ele>617.5</ele>
      </trkpt>
      <trkpt lat="45.5" lon="5.77505">
        <ele>617.5</ele>
      </trkpt>
      <trkpt lat="45.5002" lon="5.77526">
        <ele>617.7</ele>
      </trkpt>
      <trkpt lat="45.50097" lon="5.77549">
        <ele>614.1</ele>
      </trkpt>
      <trkpt lat="45.5012" lon="5.77557">
        <ele>613.6</ele>
      </trkpt>
      <trkpt lat="45.50143" lon="5.77509">
        <ele>607.7</ele>
      </trkpt>
      <trkpt lat="45.5015" lon="5.77472">
        <ele>604.4</ele>
      </trkpt>
      <trkpt lat="45.50158" lon="5.77452">
        <ele>602.7</ele>
      </trkpt>
      <trkpt lat="45.50217" lon="5.77489">
        <ele>605.4</ele>
      </trkpt>
      <trkpt lat="45.50248" lon="5.77495">
        <ele>605.8</ele>
      </trkpt>
      <trkpt lat="45.50258" lon="5.77492">
        <ele>606</ele>
      </trkpt>
      <trkpt lat="45.50284" lon="5.77465">
        <ele>606.1</ele>
      </trkpt>
      <trkpt lat="45.50332" lon="5.77442">
        <ele>607.6</ele>
      </trkpt>
      <trkpt lat="45.50405" lon="5.77421">
        <ele>612.5</ele>
      </trkpt>
      <trkpt lat="45.50423" lon="5.77416">
        <ele>613</ele>
      </trkpt>
      <trkpt lat="45.50512" lon="5.77427">
        <ele>613.7</ele>
      </trkpt>
      <trkpt lat="45.50533" lon="5.77439">
        <ele>611.9</ele>
      </trkpt>
      <trkpt lat="45.5055" lon="5.77473">
        <ele>612</ele>
      </trkpt>
      <trkpt lat="45.50618" lon="5.77706">
        <ele>620.4</ele>
      </trkpt>
      <trkpt lat="45.50643" lon="5.7774">
        <ele>618.3</ele>
      </trkpt>
      <trkpt lat="45.50676" lon="5.77765">
        <ele>615</ele>
      </trkpt>
      <trkpt lat="45.50688" lon="5.77764">
        <ele>614.2</ele>
      </trkpt>
      <trkpt lat="45.50714" lon="5.77697">
        <ele>607</ele>
      </trkpt>
      <trkpt lat="45.5072" lon="5.77686">
        <ele>605.7</ele>
      </trkpt>
      <trkpt lat="45.50728" lon="5.7768">
        <ele>604.7</ele>
      </trkpt>
      <trkpt lat="45.50738" lon="5.77683">
        <ele>604.2</ele>
      </trkpt>
      <trkpt lat="45.50746" lon="5.77688">
        <ele>604.1</ele>
      </trkpt>
      <trkpt lat="45.50792" lon="5.77541">
        <ele>590.2</ele>
      </trkpt>
      <trkpt lat="45.50802" lon="5.77512">
        <ele>587.2</ele>
      </trkpt>
      <trkpt lat="45.50813" lon="5.77476">
        <ele>583.6</ele>
      </trkpt>
      <trkpt lat="45.50823" lon="5.77446">
        <ele>580.3</ele>
      </trkpt>
      <trkpt lat="45.50826" lon="5.77437">
        <ele>579.3</ele>
      </trkpt>
      <trkpt lat="45.50832" lon="5.77419">
        <ele>577.3</ele>
      </trkpt>
      <trkpt lat="45.50854" lon="5.77361">
        <ele>570.7</ele>
      </trkpt>
      <trkpt lat="45.50873" lon="5.77313">
        <ele>566.4</ele>
      </trkpt>
      <trkpt lat="45.50876" lon="5.77304">
        <ele>565.9</ele>
      </trkpt>
      <trkpt lat="45.50913" lon="5.7721">
        <ele>559.3</ele>
      </trkpt>
      <trkpt lat="45.50952" lon="5.77108">
        <ele>551.2</ele>
      </trkpt>
      <trkpt lat="45.50964" lon="5.77078">
        <ele>549.6</ele>
      </trkpt>
      <trkpt lat="45.5097" lon="5.77062">
        <ele>548.8</ele>
      </trkpt>
      <trkpt lat="45.50973" lon="5.77053">
        <ele>548.5</ele>
      </trkpt>
      <trkpt lat="45.50979" lon="5.77033">
        <ele>547.6</ele>
      </trkpt>
      <trkpt lat="45.5093" lon="5.77018">
        <ele>549.1</ele>
      </trkpt>
      <trkpt lat="45.50904" lon="5.7701">
        <ele>550.3</ele>
      </trkpt>
      <trkpt lat="45.50883" lon="5.77004">
        <ele>551.6</ele>
      </trkpt>
      <trkpt lat="45.50869" lon="5.76997">
        <ele>552.4</ele>
      </trkpt>
      <trkpt lat="45.50865" lon="5.76994">
        <ele>552.6</ele>
      </trkpt>
      <trkpt lat="45.50861" lon="5.76991">
        <ele>552.9</ele>
      </trkpt>
      <trkpt lat="45.50854" lon="5.76985">
        <ele>553.3</ele>
      </trkpt>
      <trkpt lat="45.50846" lon="5.76976">
        <ele>553.8</ele>
      </trkpt>
      <trkpt lat="45.50838" lon="5.76963">
        <ele>554.2</ele>
      </trkpt>
      <trkpt lat="45.50826" lon="5.76941">
        <ele>554.9</ele>
      </trkpt>
      <trkpt lat="45.50834" lon="5.76911">
        <ele>554</ele>
      </trkpt>
      <trkpt lat="45.50845" lon="5.76868">
        <ele>554</ele>
      </trkpt>
      <trkpt lat="45.50857" lon="5.76826">
        <ele>554.5</ele>
      </trkpt>
      <trkpt lat="45.50863" lon="5.76804">
        <ele>555.1</ele>
      </trkpt>
      <trkpt lat="45.50866" lon="5.76779">
        <ele>556.1</ele>
      </trkpt>
      <trkpt lat="45.50867" lon="5.76776">
        <ele>556.3</ele>
      </trkpt>
      <trkpt lat="45.50867" lon="5.76772">
        <ele>556.4</ele>
      </trkpt>
      <trkpt lat="45.50865" lon="5.76748">
        <ele>557.5</ele>
      </trkpt>
      <trkpt lat="45.50856" lon="5.76727">
        <ele>558.8</ele>
      </trkpt>
      <trkpt lat="45.50851" lon="5.76722">
        <ele>559</ele>
      </trkpt>
      <trkpt lat="45.50841" lon="5.76714">
        <ele>559.4</ele>
      </trkpt>
      <trkpt lat="45.50814" lon="5.76695">
        <ele>560</ele>
      </trkpt>
      <trkpt lat="45.50794" lon="5.76684">
        <ele>560.5</ele>
      </trkpt>
      <trkpt lat="45.50774" lon="5.76667">
        <ele>561.3</ele>
      </trkpt>
      <trkpt lat="45.50764" lon="5.76644">
        <ele>561.8</ele>
      </trkpt>
      <trkpt lat="45.50762" lon="5.76612">
        <ele>562.6</ele>
      </trkpt>
      <trkpt lat="45.50764" lon="5.76588">
        <ele>563.2</ele>
      </trkpt>
      <trkpt lat="45.50767" lon="5.76555">
        <ele>564.7</ele>
      </trkpt>
      <trkpt lat="45.50771" lon="5.76486">
        <ele>568.4</ele>
      </trkpt>
      <trkpt lat="45.50772" lon="5.76468">
        <ele>569.6</ele>
      </trkpt>
      <trkpt lat="45.50774" lon="5.76443">
        <ele>571.4</ele>
      </trkpt>
      <trkpt lat="45.50781" lon="5.7642">
        <ele>573.4</ele>
      </trkpt>
      <trkpt lat="45.50791" lon="5.76413">
        <ele>574.7</ele>
      </trkpt>
      <trkpt lat="45.50805" lon="5.76416">
        <ele>575.6</ele>
      </trkpt>
      <trkpt lat="45.50829" lon="5.76428">
        <ele>576.8</ele>
      </trkpt>
      <trkpt lat="45.50842" lon="5.76433">
        <ele>576.9</ele>
      </trkpt>
      <trkpt lat="45.50851" lon="5.76429">
        <ele>577.3</ele>
      </trkpt>
      <trkpt lat="45.50859" lon="5.76416">
        <ele>578.3</ele>
      </trkpt>
      <trkpt lat="45.50858" lon="5.76383">
        <ele>580.1</ele>
      </trkpt>
      <trkpt lat="45.50853" lon="5.76319">
        <ele>583.4</ele>
      </trkpt>
      <trkpt lat="45.50849" lon="5.76262">
        <ele>587.1</ele>
      </trkpt>
      <trkpt lat="45.5085" lon="5.76242">
        <ele>588.1</ele>
      </trkpt>
      <trkpt lat="45.50855" lon="5.76223">
        <ele>588.5</ele>
      </trkpt>
      <trkpt lat="45.50873" lon="5.7617">
        <ele>590.3</ele>
      </trkpt>
      <trkpt lat="45.50891" lon="5.76119">
        <ele>592.4</ele>
      </trkpt>
      <trkpt lat="45.50906" lon="5.76075">
        <ele>593.7</ele>
      </trkpt>
      <trkpt lat="45.50916" lon="5.7604">
        <ele>595</ele>
      </trkpt>
      <trkpt lat="45.50918" lon="5.76025">
        <ele>595.5</ele>
      </trkpt>
      <trkpt lat="45.50918" lon="5.76018">
        <ele>595.7</ele>
      </trkpt>
      <trkpt lat="45.50919" lon="5.75932">
        <ele>597.3</ele>
      </trkpt>
      <trkpt lat="45.50917" lon="5.75913">
        <ele>597.2</ele>
      </trkpt>
      <trkpt lat="45.50919" lon="5.75891">
        <ele>598.4</ele>
      </trkpt>
      <trkpt lat="45.50916" lon="5.75871">
        <ele>598.6</ele>
      </trkpt>
      <trkpt lat="45.50907" lon="5.75845">
        <ele>599.5</ele>
      </trkpt>
      <trkpt lat="45.509" lon="5.75822">
        <ele>598.9</ele>
      </trkpt>
      <trkpt lat="45.50894" lon="5.75785">
        <ele>595.7</ele>
      </trkpt>
      <trkpt lat="45.50882" lon="5.75651">
        <ele>590</ele>
      </trkpt>
      <trkpt lat="45.5088" lon="5.75631">
        <ele>590.7</ele>
      </trkpt>
      <trkpt lat="45.50886" lon="5.75616">
        <ele>591.5</ele>
      </trkpt>
      <trkpt lat="45.50897" lon="5.75602">
        <ele>592.3</ele>
      </trkpt>
      <trkpt lat="45.5091" lon="5.75592">
        <ele>592.8</ele>
      </trkpt>
      <trkpt lat="45.50927" lon="5.75589">
        <ele>593.5</ele>
      </trkpt>
      <trkpt lat="45.50943" lon="5.75584">
        <ele>594.5</ele>
      </trkpt>
      <trkpt lat="45.50952" lon="5.75583">
        <ele>595.1</ele>
      </trkpt>
      <trkpt lat="45.50957" lon="5.75578">
        <ele>595.7</ele>
      </trkpt>
      <trkpt lat="45.50959" lon="5.75567">
        <ele>596.5</ele>
      </trkpt>
      <trkpt lat="45.50957" lon="5.75548">
        <ele>597.5</ele>
      </trkpt>
      <trkpt lat="45.50952" lon="5.75535">
        <ele>597.9</ele>
      </trkpt>
      <trkpt lat="45.50951" lon="5.75532">
        <ele>598</ele>
      </trkpt>
      <trkpt lat="45.50949" lon="5.7553">
        <ele>598</ele>
      </trkpt>
      <trkpt lat="45.50953" lon="5.75504">
        <ele>599.8</ele>
      </trkpt>
      <trkpt lat="45.50961" lon="5.75477">
        <ele>598.7</ele>
      </trkpt>
      <trkpt lat="45.50985" lon="5.75421">
        <ele>595.5</ele>
      </trkpt>
      <trkpt lat="45.51043" lon="5.75345">
        <ele>592.8</ele>
      </trkpt>
      <trkpt lat="45.51105" lon="5.75311">
        <ele>594.8</ele>
      </trkpt>
      <trkpt lat="45.51133" lon="5.75287">
        <ele>594.3</ele>
      </trkpt>
      <trkpt lat="45.51138" lon="5.75281">
        <ele>594</ele>
      </trkpt>
      <trkpt lat="45.51139" lon="5.75276">
        <ele>593.9</ele>
      </trkpt>
      <trkpt lat="45.5114" lon="5.75264">
        <ele>593.8</ele>
      </trkpt>
      <trkpt lat="45.5117" lon="5.75189">
        <ele>588.8</ele>
      </trkpt>
      <trkpt lat="45.51189" lon="5.75128">
        <ele>589.5</ele>
      </trkpt>
      <trkpt lat="45.51193" lon="5.7511">
        <ele>589.6</ele>
      </trkpt>
      <trkpt lat="45.51193" lon="5.75091">
        <ele>589.6</ele>
      </trkpt>
      <trkpt lat="45.51187" lon="5.75081">
        <ele>589</ele>
      </trkpt>
      <trkpt lat="45.51192" lon="5.75066">
        <ele>587.8</ele>
      </trkpt>
      <trkpt lat="45.51196" lon="5.75046">
        <ele>585.8</ele>
      </trkpt>
      <trkpt lat="45.51209" lon="5.75006">
        <ele>581.7</ele>
      </trkpt>
      <trkpt lat="45.5122" lon="5.74989">
        <ele>578.6</ele>
      </trkpt>
      <trkpt lat="45.5122" lon="5.74974">
        <ele>575.5</ele>
      </trkpt>
      <trkpt lat="45.51214" lon="5.74947">
        <ele>569.9</ele>
      </trkpt>
      <trkpt lat="45.51215" lon="5.74933">
        <ele>566.9</ele>
      </trkpt>
      <trkpt lat="45.51195" lon="5.74891">
        <ele>559.8</ele>
      </trkpt>
      <trkpt lat="45.51179" lon="5.74876">
        <ele>558</ele>
      </trkpt>
      <trkpt lat="45.5116" lon="5.74871">
        <ele>560</ele>
      </trkpt>
      <trkpt lat="45.5115" lon="5.74842">
        <ele>557.2</ele>
      </trkpt>
      <trkpt lat="45.51157" lon="5.74816">
        <ele>549.6</ele>
      </trkpt>
      <trkpt lat="45.51149" lon="5.74769">
        <ele>541.2</ele>
      </trkpt>
      <trkpt lat="45.51145" lon="5.7476">
        <ele>540.4</ele>
      </trkpt>
      <trkpt lat="45.51153" lon="5.74755">
        <ele>537.2</ele>
      </trkpt>
      <trkpt lat="45.51143" lon="5.74706">
        <ele>525.2</ele>
      </trkpt>
      <trkpt lat="45.51119" lon="5.74687">
        <ele>525.6</ele>
      </trkpt>
      <trkpt lat="45.51103" lon="5.74658">
        <ele>519.9</ele>
      </trkpt>
      <trkpt lat="45.51037" lon="5.74601">
        <ele>512.7</ele>
      </trkpt>
      <trkpt lat="45.51057" lon="5.74594">
        <ele>506.3</ele>
      </trkpt>
      <trkpt lat="45.51089" lon="5.74585">
        <ele>496.7</ele>
      </trkpt>
      <trkpt lat="45.51102" lon="5.74595">
        <ele>496.8</ele>
      </trkpt>
      <trkpt lat="45.51124" lon="5.74595">
        <ele>490.3</ele>
      </trkpt>
      <trkpt lat="45.51152" lon="5.74583">
        <ele>477.4</ele>
      </trkpt>
      <trkpt lat="45.5117" lon="5.74541">
        <ele>469</ele>
      </trkpt>
      <trkpt lat="45.51161" lon="5.74479">
        <ele>466.1</ele>
      </trkpt>
      <trkpt lat="45.51188" lon="5.74481">
        <ele>461.3</ele>
      </trkpt>
      <trkpt lat="45.51249" lon="5.74489">
        <ele>451.7</ele>
      </trkpt>
      <trkpt lat="45.51322" lon="5.74541">
        <ele>446.5</ele>
      </trkpt>
      <trkpt lat="45.5147" lon="5.74646">
        <ele>440.8</ele>
      </trkpt>
      <trkpt lat="45.51498" lon="5.74653">
        <ele>439.3</ele>
      </trkpt>
      <trkpt lat="45.51515" lon="5.74675">
        <ele>443</ele>
      </trkpt>
      <trkpt lat="45.51524" lon="5.74702">
        <ele>447.1</ele>
      </trkpt>
      <trkpt lat="45.51539" lon="5.74714">
        <ele>448.8</ele>
      </trkpt>
      <trkpt lat="45.516" lon="5.74759">
        <ele>456.2</ele>
      </trkpt>
      <trkpt lat="45.51643" lon="5.74784">
        <ele>461</ele>
      </trkpt>
      <trkpt lat="45.51707" lon="5.74825">
        <ele>464.1</ele>
      </trkpt>
      <trkpt lat="45.51743" lon="5.7486">
        <ele>468.8</ele>
      </trkpt>
      <trkpt lat="45.51786" lon="5.74886">
        <ele>474.7</ele>
      </trkpt>
      <trkpt lat="45.51825" lon="5.7493">
        <ele>483.5</ele>
      </trkpt>
      <trkpt lat="45.51898" lon="5.74969">
        <ele>492.5</ele>
      </trkpt>
      <trkpt lat="45.51937" lon="5.74994">
        <ele>492.1</ele>
      </trkpt>
      <trkpt lat="45.51961" lon="5.75007">
        <ele>490.7</ele>
      </trkpt>
      <trkpt lat="45.51987" lon="5.75021">
        <ele>489.5</ele>
      </trkpt>
      <trkpt lat="45.51989" lon="5.75031">
        <ele>491.9</ele>
      </trkpt>
      <trkpt lat="45.51991" lon="5.75039">
        <ele>493.7</ele>
      </trkpt>
      <trkpt lat="45.51998" lon="5.75044">
        <ele>493</ele>
      </trkpt>
      <trkpt lat="45.52001" lon="5.75051">
        <ele>494.2</ele>
      </trkpt>
      <trkpt lat="45.52016" lon="5.75056">
        <ele>493.2</ele>
      </trkpt>
      <trkpt lat="45.52026" lon="5.75063">
        <ele>493</ele>
      </trkpt>
      <trkpt lat="45.52038" lon="5.75068">
        <ele>491.8</ele>
      </trkpt>
      <trkpt lat="45.5205" lon="5.75074">
        <ele>490.6</ele>
      </trkpt>
      <trkpt lat="45.52057" lon="5.75073">
        <ele>489</ele>
      </trkpt>
      <trkpt lat="45.52072" lon="5.75084">
        <ele>487.9</ele>
      </trkpt>
      <trkpt lat="45.52082" lon="5.7509">
        <ele>488.1</ele>
      </trkpt>
      <trkpt lat="45.52097" lon="5.75097">
        <ele>487.5</ele>
      </trkpt>
      <trkpt lat="45.52107" lon="5.75098">
        <ele>485.9</ele>
      </trkpt>
      <trkpt lat="45.52115" lon="5.75104">
        <ele>486.1</ele>
      </trkpt>
      <trkpt lat="45.52128" lon="5.75121">
        <ele>487.7</ele>
      </trkpt>
      <trkpt lat="45.52137" lon="5.75122">
        <ele>485.3</ele>
      </trkpt>
      <trkpt lat="45.52142" lon="5.75127">
        <ele>484.8</ele>
      </trkpt>
      <trkpt lat="45.52151" lon="5.75138">
        <ele>484.5</ele>
      </trkpt>
      <trkpt lat="45.52178" lon="5.75146">
        <ele>478.4</ele>
      </trkpt>
      <trkpt lat="45.52202" lon="5.75162">
        <ele>475.6</ele>
      </trkpt>
      <trkpt lat="45.52217" lon="5.75178">
        <ele>476.1</ele>
      </trkpt>
      <trkpt lat="45.52221" lon="5.75174">
        <ele>473.9</ele>
      </trkpt>
      <trkpt lat="45.52238" lon="5.75186">
        <ele>473</ele>
      </trkpt>
      <trkpt lat="45.52252" lon="5.75188">
        <ele>469.4</ele>
      </trkpt>
      <trkpt lat="45.52262" lon="5.75197">
        <ele>468.8</ele>
      </trkpt>
      <trkpt lat="45.52273" lon="5.75202">
        <ele>466.5</ele>
      </trkpt>
      <trkpt lat="45.52281" lon="5.75202">
        <ele>464.2</ele>
      </trkpt>
      <trkpt lat="45.52287" lon="5.75209">
        <ele>463.6</ele>
      </trkpt>
      <trkpt lat="45.52297" lon="5.75205">
        <ele>459.8</ele>
      </trkpt>
      <trkpt lat="45.52315" lon="5.75207">
        <ele>454.5</ele>
      </trkpt>
      <trkpt lat="45.52322" lon="5.75202">
        <ele>451.9</ele>
      </trkpt>
      <trkpt lat="45.52333" lon="5.752">
        <ele>448.3</ele>
      </trkpt>
      <trkpt lat="45.52348" lon="5.75186">
        <ele>441.1</ele>
      </trkpt>
      <trkpt lat="45.52351" lon="5.7517">
        <ele>438.1</ele>
      </trkpt>
      <trkpt lat="45.52357" lon="5.75163">
        <ele>435.8</ele>
      </trkpt>
      <trkpt lat="45.52369" lon="5.75158">
        <ele>431.1</ele>
      </trkpt>
      <trkpt lat="45.52379" lon="5.75139">
        <ele>427.7</ele>
      </trkpt>
      <trkpt lat="45.52383" lon="5.7513">
        <ele>426.2</ele>
      </trkpt>
      <trkpt lat="45.5239" lon="5.75128">
        <ele>423.7</ele>
      </trkpt>
      <trkpt lat="45.52392" lon="5.75119">
        <ele>422.9</ele>
      </trkpt>
      <trkpt lat="45.52395" lon="5.75114">
        <ele>421.4</ele>
      </trkpt>
      <trkpt lat="45.524" lon="5.75104">
        <ele>419.6</ele>
      </trkpt>
      <trkpt lat="45.52405" lon="5.75103">
        <ele>417.4</ele>
      </trkpt>
      <trkpt lat="45.52414" lon="5.75084">
        <ele>413.2</ele>
      </trkpt>
      <trkpt lat="45.52421" lon="5.75074">
        <ele>411.9</ele>
      </trkpt>
      <trkpt lat="45.52423" lon="5.75062">
        <ele>412.3</ele>
      </trkpt>
      <trkpt lat="45.52434" lon="5.75049">
        <ele>409.6</ele>
      </trkpt>
      <trkpt lat="45.5244" lon="5.7503">
        <ele>408.4</ele>
      </trkpt>
      <trkpt lat="45.52444" lon="5.75026">
        <ele>406.8</ele>
      </trkpt>
      <trkpt lat="45.52455" lon="5.75004">
        <ele>402</ele>
      </trkpt>
      <trkpt lat="45.52469" lon="5.74988">
        <ele>394.4</ele>
      </trkpt>
      <trkpt lat="45.52465" lon="5.74979">
        <ele>396.4</ele>
      </trkpt>
      <trkpt lat="45.52462" lon="5.7496">
        <ele>397.3</ele>
      </trkpt>
      <trkpt lat="45.52458" lon="5.74939">
        <ele>398.4</ele>
      </trkpt>
      <trkpt lat="45.52461" lon="5.74926">
        <ele>396.6</ele>
      </trkpt>
      <trkpt lat="45.52466" lon="5.74915">
        <ele>392.7</ele>
      </trkpt>
      <trkpt lat="45.52471" lon="5.74902">
        <ele>389</ele>
      </trkpt>
      <trkpt lat="45.52476" lon="5.74918">
        <ele>387.1</ele>
      </trkpt>
      <trkpt lat="45.52489" lon="5.74933">
        <ele>380.4</ele>
      </trkpt>
      <trkpt lat="45.52503" lon="5.74948">
        <ele>375.6</ele>
      </trkpt>
      <trkpt lat="45.52514" lon="5.74948">
        <ele>377</ele>
      </trkpt>
      <trkpt lat="45.52514" lon="5.74965">
        <ele>378.5</ele>
      </trkpt>
      <trkpt lat="45.52509" lon="5.74979">
        <ele>378.9</ele>
      </trkpt>
      <trkpt lat="45.52516" lon="5.74986">
        <ele>380.7</ele>
      </trkpt>
      <trkpt lat="45.52518" lon="5.74988">
        <ele>381.2</ele>
      </trkpt>
      <trkpt lat="45.52535" lon="5.74979">
        <ele>383</ele>
      </trkpt>
      <trkpt lat="45.5255" lon="5.74954">
        <ele>382.4</ele>
      </trkpt>
      <trkpt lat="45.52553" lon="5.74952">
        <ele>382.6</ele>
      </trkpt>
      <trkpt lat="45.52569" lon="5.74939">
        <ele>382.8</ele>
      </trkpt>
      <trkpt lat="45.5258" lon="5.74929">
        <ele>382.6</ele>
      </trkpt>
      <trkpt lat="45.5259" lon="5.74911">
        <ele>383</ele>
      </trkpt>
      <trkpt lat="45.526" lon="5.74893">
        <ele>384.4</ele>
      </trkpt>
      <trkpt lat="45.52606" lon="5.74869">
        <ele>383.6</ele>
      </trkpt>
      <trkpt lat="45.52609" lon="5.74843">
        <ele>381.1</ele>
      </trkpt>
      <trkpt lat="45.52611" lon="5.74825">
        <ele>379.5</ele>
      </trkpt>
      <trkpt lat="45.52611" lon="5.748">
        <ele>376.2</ele>
      </trkpt>
      <trkpt lat="45.52613" lon="5.74776">
        <ele>373.6</ele>
      </trkpt>
      <trkpt lat="45.52614" lon="5.74755">
        <ele>371.2</ele>
      </trkpt>
      <trkpt lat="45.52618" lon="5.74732">
        <ele>368.9</ele>
      </trkpt>
      <trkpt lat="45.52619" lon="5.74697">
        <ele>363.7</ele>
      </trkpt>
      <trkpt lat="45.52619" lon="5.74669">
        <ele>359.5</ele>
      </trkpt>
      <trkpt lat="45.52622" lon="5.74647">
        <ele>357.8</ele>
      </trkpt>
      <trkpt lat="45.52619" lon="5.74629">
        <ele>355.3</ele>
      </trkpt>
      <trkpt lat="45.52621" lon="5.74617">
        <ele>354.5</ele>
      </trkpt>
      <trkpt lat="45.52618" lon="5.74568">
        <ele>349.6</ele>
      </trkpt>
      <trkpt lat="45.52617" lon="5.74538">
        <ele>347.2</ele>
      </trkpt>
      <trkpt lat="45.5261" lon="5.74499">
        <ele>343.8</ele>
      </trkpt>
      <trkpt lat="45.52611" lon="5.74488">
        <ele>341.9</ele>
      </trkpt>
      <trkpt lat="45.52612" lon="5.74482">
        <ele>341</ele>
      </trkpt>
      <trkpt lat="45.5261" lon="5.74478">
        <ele>340.1</ele>
      </trkpt>
      <trkpt lat="45.52612" lon="5.74472">
        <ele>339.3</ele>
      </trkpt>
      <trkpt lat="45.52609" lon="5.74465">
        <ele>338</ele>
      </trkpt>
      <trkpt lat="45.52604" lon="5.74442">
        <ele>334.1</ele>
      </trkpt>
      <trkpt lat="45.52596" lon="5.74435">
        <ele>332.7</ele>
      </trkpt>
      <trkpt lat="45.52595" lon="5.7442">
        <ele>330.5</ele>
      </trkpt>
      <trkpt lat="45.52594" lon="5.74404">
        <ele>326.9</ele>
      </trkpt>
      <trkpt lat="45.52577" lon="5.74392">
        <ele>324.9</ele>
      </trkpt>
      <trkpt lat="45.52572" lon="5.74381">
        <ele>322.6</ele>
      </trkpt>
      <trkpt lat="45.52572" lon="5.7437">
        <ele>320.1</ele>
      </trkpt>
      <trkpt lat="45.5257" lon="5.74359">
        <ele>317.7</ele>
      </trkpt>
      <trkpt lat="45.52564" lon="5.74349">
        <ele>315.9</ele>
      </trkpt>
      <trkpt lat="45.52555" lon="5.74346">
        <ele>316</ele>
      </trkpt>
      <trkpt lat="45.52556" lon="5.74337">
        <ele>313.9</ele>
      </trkpt>
      <trkpt lat="45.5255" lon="5.74327">
        <ele>311.7</ele>
      </trkpt>
      <trkpt lat="45.52548" lon="5.7432">
        <ele>309.9</ele>
      </trkpt>
      <trkpt lat="45.52541" lon="5.74314">
        <ele>308.9</ele>
      </trkpt>
      <trkpt lat="45.5254" lon="5.74306">
        <ele>306.8</ele>
      </trkpt>
      <trkpt lat="45.52538" lon="5.74301">
        <ele>305.5</ele>
      </trkpt>
      <trkpt lat="45.52533" lon="5.743">
        <ele>305.5</ele>
      </trkpt>
      <trkpt lat="45.52533" lon="5.74296">
        <ele>304.2</ele>
      </trkpt>
      <trkpt lat="45.52531" lon="5.74289">
        <ele>302.3</ele>
      </trkpt>
      <trkpt lat="45.52535" lon="5.74272">
        <ele>296.8</ele>
      </trkpt>
      <trkpt lat="45.52535" lon="5.74264">
        <ele>294.5</ele>
      </trkpt>
      <trkpt lat="45.52535" lon="5.74212">
        <ele>282.4</ele>
      </trkpt>
      <trkpt lat="45.52538" lon="5.74204">
        <ele>280.8</ele>
      </trkpt>
      <trkpt lat="45.52544" lon="5.74198">
        <ele>279.6</ele>
      </trkpt>
      <trkpt lat="45.52542" lon="5.74192">
        <ele>278.3</ele>
      </trkpt>
      <trkpt lat="45.52531" lon="5.7418">
        <ele>275.5</ele>
      </trkpt>
      <trkpt lat="45.52526" lon="5.74173">
        <ele>273.9</ele>
      </trkpt>
      <trkpt lat="45.5252" lon="5.7417">
        <ele>273.2</ele>
      </trkpt>
      <trkpt lat="45.52513" lon="5.74165">
        <ele>272.2</ele>
      </trkpt>
      <trkpt lat="45.5251" lon="5.74161">
        <ele>272</ele>
      </trkpt>
      <trkpt lat="45.52507" lon="5.74156">
        <ele>271.6</ele>
      </trkpt>
      <trkpt lat="45.52507" lon="5.74153">
        <ele>271.5</ele>
      </trkpt>
      <trkpt lat="45.52515" lon="5.74128">
        <ele>270.3</ele>
      </trkpt>
      <trkpt lat="45.52513" lon="5.74124">
        <ele>270</ele>
      </trkpt>
      <trkpt lat="45.52507" lon="5.74107">
        <ele>269.1</ele>
      </trkpt>
      <trkpt lat="45.525" lon="5.74091">
        <ele>268.4</ele>
      </trkpt>
      <trkpt lat="45.52509" lon="5.74089">
        <ele>268.2</ele>
      </trkpt>
      <trkpt lat="45.52527" lon="5.74107">
        <ele>269.1</ele>
      </trkpt>
      <trkpt lat="45.52542" lon="5.74143">
        <ele>271.5</ele>
      </trkpt>
      <trkpt lat="45.52561" lon="5.74141">
        <ele>271.5</ele>
      </trkpt>
      <trkpt lat="45.5257" lon="5.74133">
        <ele>271.1</ele>
      </trkpt>
      <trkpt lat="45.52574" lon="5.74129">
        <ele>270.8</ele>
      </trkpt>
      <trkpt lat="45.52578" lon="5.74125">
        <ele>270.5</ele>
      </trkpt>
      <trkpt lat="45.52604" lon="5.74104">
        <ele>269.8</ele>
      </trkpt>
      <trkpt lat="45.52624" lon="5.74093">
        <ele>270.1</ele>
      </trkpt>
      <trkpt lat="45.52625" lon="5.74092">
        <ele>270.1</ele>
      </trkpt>
      <trkpt lat="45.52626" lon="5.74091">
        <ele>270.1</ele>
      </trkpt>
      <trkpt lat="45.52653" lon="5.74068">
        <ele>270.6</ele>
      </trkpt>
      <trkpt lat="45.52686" lon="5.74062">
        <ele>273.6</ele>
      </trkpt>
      <trkpt lat="45.52702" lon="5.74066">
        <ele>275.6</ele>
      </trkpt>
      <trkpt lat="45.52741" lon="5.74059">
        <ele>280.2</ele>
      </trkpt>
      <trkpt lat="45.52804" lon="5.7406">
        <ele>286.6</ele>
      </trkpt>
      <trkpt lat="45.52821" lon="5.74062">
        <ele>288.3</ele>
      </trkpt>
      <trkpt lat="45.52831" lon="5.74074">
        <ele>290.1</ele>
      </trkpt>
      <trkpt lat="45.52848" lon="5.74062">
        <ele>290.5</ele>
      </trkpt>
      <trkpt lat="45.52884" lon="5.74065">
        <ele>293.2</ele>
      </trkpt>
      <trkpt lat="45.52912" lon="5.74069">
        <ele>295.3</ele>
      </trkpt>
      <trkpt lat="45.52931" lon="5.74074">
        <ele>296.8</ele>
      </trkpt>
      <trkpt lat="45.52991" lon="5.74089">
        <ele>301.1</ele>
      </trkpt>
      <trkpt lat="45.53005" lon="5.74083">
        <ele>302.1</ele>
      </trkpt>
      <trkpt lat="45.53023" lon="5.74066">
        <ele>302.4</ele>
      </trkpt>
      <trkpt lat="45.5303" lon="5.74062">
        <ele>302.5</ele>
      </trkpt>
      <trkpt lat="45.53045" lon="5.74059">
        <ele>302.8</ele>
      </trkpt>
      <trkpt lat="45.53068" lon="5.74063">
        <ele>303.4</ele>
      </trkpt>
      <trkpt lat="45.53077" lon="5.74058">
        <ele>303.6</ele>
      </trkpt>
      <trkpt lat="45.53112" lon="5.73997">
        <ele>303.9</ele>
      </trkpt>
      <trkpt lat="45.53124" lon="5.73983">
        <ele>302.5</ele>
      </trkpt>
      <trkpt lat="45.53131" lon="5.73978">
        <ele>302.3</ele>
      </trkpt>
      <trkpt lat="45.53205" lon="5.73997">
        <ele>309.5</ele>
      </trkpt>
      <trkpt lat="45.53222" lon="5.74007">
        <ele>310.5</ele>
      </trkpt>
      <trkpt lat="45.5322" lon="5.74011">
        <ele>310</ele>
      </trkpt>
      <trkpt lat="45.5322" lon="5.74031">
        <ele>308.5</ele>
      </trkpt>
      <trkpt lat="45.53226" lon="5.74042">
        <ele>308.1</ele>
      </trkpt>
      <trkpt lat="45.53255" lon="5.74062">
        <ele>308</ele>
      </trkpt>
      <trkpt lat="45.53268" lon="5.74077">
        <ele>307.4</ele>
      </trkpt>
      <trkpt lat="45.5327" lon="5.74101">
        <ele>306</ele>
      </trkpt>
      <trkpt lat="45.53263" lon="5.74126">
        <ele>304.4</ele>
      </trkpt>
      <trkpt lat="45.53254" lon="5.74147">
        <ele>303</ele>
      </trkpt>
      <trkpt lat="45.53261" lon="5.74154">
        <ele>302.9</ele>
      </trkpt>
      <trkpt lat="45.53273" lon="5.74165">
        <ele>302.6</ele>
      </trkpt>
      <trkpt lat="45.53286" lon="5.74188">
        <ele>303.7</ele>
      </trkpt>
      <trkpt lat="45.53304" lon="5.74239">
        <ele>305.9</ele>
      </trkpt>
      <trkpt lat="45.53321" lon="5.74289">
        <ele>310.3</ele>
      </trkpt>
      <trkpt lat="45.53337" lon="5.74296">
        <ele>312</ele>
      </trkpt>
      <trkpt lat="45.53362" lon="5.74297">
        <ele>316.2</ele>
      </trkpt>
      <trkpt lat="45.53367" lon="5.74317">
        <ele>319.8</ele>
      </trkpt>
      <trkpt lat="45.53353" lon="5.74374">
        <ele>326.6</ele>
      </trkpt>
      <trkpt lat="45.53341" lon="5.74414">
        <ele>330.6</ele>
      </trkpt>
      <trkpt lat="45.53311" lon="5.74474">
        <ele>335.1</ele>
      </trkpt>
      <trkpt lat="45.53302" lon="5.74503">
        <ele>337.6</ele>
      </trkpt>
      <trkpt lat="45.53316" lon="5.74538">
        <ele>343.9</ele>
      </trkpt>
      <trkpt lat="45.53333" lon="5.74564">
        <ele>351.1</ele>
      </trkpt>
      <trkpt lat="45.53358" lon="5.74564">
        <ele>358.1</ele>
      </trkpt>
      <trkpt lat="45.53359" lon="5.74564">
        <ele>358.5</ele>
      </trkpt>
      <trkpt lat="45.53377" lon="5.74561">
        <ele>363.3</ele>
      </trkpt>
      <trkpt lat="45.53392" lon="5.74559">
        <ele>367</ele>
      </trkpt>
      <trkpt lat="45.53406" lon="5.74552">
        <ele>370.4</ele>
      </trkpt>
      <trkpt lat="45.53421" lon="5.7454">
        <ele>372.8</ele>
      </trkpt>
      <trkpt lat="45.53424" lon="5.74532">
        <ele>372.6</ele>
      </trkpt>
      <trkpt lat="45.53432" lon="5.74491">
        <ele>369.3</ele>
      </trkpt>
      <trkpt lat="45.53437" lon="5.74477">
        <ele>368.3</ele>
      </trkpt>
      <trkpt lat="45.53451" lon="5.74452">
        <ele>367.6</ele>
      </trkpt>
      <trkpt lat="45.5346" lon="5.74448">
        <ele>369.2</ele>
      </trkpt>
      <trkpt lat="45.53466" lon="5.74448">
        <ele>370.9</ele>
      </trkpt>
      <trkpt lat="45.53421" lon="5.7454">
        <ele>372.8</ele>
      </trkpt>
      <trkpt lat="45.53431" lon="5.74541">
        <ele>375.3</ele>
      </trkpt>
      <trkpt lat="45.53419" lon="5.74605">
        <ele>377.3</ele>
      </trkpt>
      <trkpt lat="45.53418" lon="5.7461">
        <ele>377.1</ele>
      </trkpt>
      <trkpt lat="45.5342" lon="5.74616">
        <ele>377.4</ele>
      </trkpt>
      <trkpt lat="45.53422" lon="5.74621">
        <ele>378</ele>
      </trkpt>
      <trkpt lat="45.53426" lon="5.74624">
        <ele>379</ele>
      </trkpt>
      <trkpt lat="45.53429" lon="5.74624">
        <ele>380.1</ele>
      </trkpt>
      <trkpt lat="45.53433" lon="5.74622">
        <ele>381.1</ele>
      </trkpt>
      <trkpt lat="45.53439" lon="5.74617">
        <ele>382.6</ele>
      </trkpt>
      <trkpt lat="45.53443" lon="5.74612">
        <ele>383.6</ele>
      </trkpt>
      <trkpt lat="45.5345" lon="5.746">
        <ele>385.2</ele>
      </trkpt>
      <trkpt lat="45.53459" lon="5.74591">
        <ele>387</ele>
      </trkpt>
      <trkpt lat="45.53467" lon="5.74584">
        <ele>388.4</ele>
      </trkpt>
      <trkpt lat="45.53474" lon="5.7458">
        <ele>389.8</ele>
      </trkpt>
      <trkpt lat="45.53482" lon="5.74579">
        <ele>391.5</ele>
      </trkpt>
      <trkpt lat="45.5349" lon="5.74579">
        <ele>393.3</ele>
      </trkpt>
      <trkpt lat="45.53498" lon="5.74581">
        <ele>395.3</ele>
      </trkpt>
      <trkpt lat="45.53506" lon="5.74587">
        <ele>396.7</ele>
      </trkpt>
      <trkpt lat="45.53513" lon="5.74598">
        <ele>398.1</ele>
      </trkpt>
      <trkpt lat="45.53518" lon="5.74609">
        <ele>399.2</ele>
      </trkpt>
      <trkpt lat="45.53543" lon="5.74665">
        <ele>402.9</ele>
      </trkpt>
      <trkpt lat="45.53552" lon="5.74676">
        <ele>402.8</ele>
      </trkpt>
      <trkpt lat="45.53564" lon="5.74685">
        <ele>402.8</ele>
      </trkpt>
      <trkpt lat="45.53576" lon="5.74694">
        <ele>403</ele>
      </trkpt>
      <trkpt lat="45.5359" lon="5.747">
        <ele>404.1</ele>
      </trkpt>
      <trkpt lat="45.53612" lon="5.74718">
        <ele>407.5</ele>
      </trkpt>
      <trkpt lat="45.53624" lon="5.7474">
        <ele>409.6</ele>
      </trkpt>
      <trkpt lat="45.53652" lon="5.74741">
        <ele>413</ele>
      </trkpt>
      <trkpt lat="45.53664" lon="5.7472">
        <ele>413.9</ele>
      </trkpt>
      <trkpt lat="45.53685" lon="5.74692">
        <ele>415.6</ele>
      </trkpt>
      <trkpt lat="45.53718" lon="5.74678">
        <ele>418.5</ele>
      </trkpt>
      <trkpt lat="45.53738" lon="5.74663">
        <ele>419.7</ele>
      </trkpt>
      <trkpt lat="45.53766" lon="5.7464">
        <ele>422.2</ele>
      </trkpt>
      <trkpt lat="45.53787" lon="5.74623">
        <ele>424.7</ele>
      </trkpt>
      <trkpt lat="45.53813" lon="5.74584">
        <ele>427.7</ele>
      </trkpt>
      <trkpt lat="45.53815" lon="5.74573">
        <ele>427.7</ele>
      </trkpt>
      <trkpt lat="45.53818" lon="5.74555">
        <ele>427.9</ele>
      </trkpt>
      <trkpt lat="45.53838" lon="5.74532">
        <ele>430.4</ele>
      </trkpt>
      <trkpt lat="45.5386" lon="5.74514">
        <ele>433.6</ele>
      </trkpt>
      <trkpt lat="45.53876" lon="5.74503">
        <ele>436.2</ele>
      </trkpt>
      <trkpt lat="45.53882" lon="5.74483">
        <ele>437.4</ele>
      </trkpt>
      <trkpt lat="45.53889" lon="5.74488">
        <ele>438.5</ele>
      </trkpt>
      <trkpt lat="45.53899" lon="5.7449">
        <ele>440.2</ele>
      </trkpt>
      <trkpt lat="45.53944" lon="5.74456">
        <ele>445</ele>
      </trkpt>
      <trkpt lat="45.53998" lon="5.74412">
        <ele>449.9</ele>
      </trkpt>
      <trkpt lat="45.54014" lon="5.74404">
        <ele>452</ele>
      </trkpt>
      <trkpt lat="45.54028" lon="5.74405">
        <ele>453.6</ele>
      </trkpt>
      <trkpt lat="45.54048" lon="5.74414">
        <ele>455.8</ele>
      </trkpt>
      <trkpt lat="45.54117" lon="5.74456">
        <ele>462.3</ele>
      </trkpt>
      <trkpt lat="45.54134" lon="5.74457">
        <ele>464.6</ele>
      </trkpt>
      <trkpt lat="45.54156" lon="5.7445">
        <ele>468</ele>
      </trkpt>
      <trkpt lat="45.54172" lon="5.74446">
        <ele>470.4</ele>
      </trkpt>
      <trkpt lat="45.54188" lon="5.74446">
        <ele>472.1</ele>
      </trkpt>
      <trkpt lat="45.54283" lon="5.74471">
        <ele>480.3</ele>
      </trkpt>
      <trkpt lat="45.54327" lon="5.74488">
        <ele>483.7</ele>
      </trkpt>
      <trkpt lat="45.54378" lon="5.74513">
        <ele>487.7</ele>
      </trkpt>
      <trkpt lat="45.54393" lon="5.74528">
        <ele>488.7</ele>
      </trkpt>
      <trkpt lat="45.54464" lon="5.74604">
        <ele>488.9</ele>
      </trkpt>
      <trkpt lat="45.54472" lon="5.74607">
        <ele>488.9</ele>
      </trkpt>
      <trkpt lat="45.54481" lon="5.74605">
        <ele>489.3</ele>
      </trkpt>
      <trkpt lat="45.54476" lon="5.74551">
        <ele>492.6</ele>
      </trkpt>
      <trkpt lat="45.54477" lon="5.74503">
        <ele>495.4</ele>
      </trkpt>
      <trkpt lat="45.54471" lon="5.74471">
        <ele>496.6</ele>
      </trkpt>
      <trkpt lat="45.54469" lon="5.74436">
        <ele>498.2</ele>
      </trkpt>
      <trkpt lat="45.54445" lon="5.74365">
        <ele>502.4</ele>
      </trkpt>
      <trkpt lat="45.54418" lon="5.74315">
        <ele>506.1</ele>
      </trkpt>
      <trkpt lat="45.54417" lon="5.7428">
        <ele>509.8</ele>
      </trkpt>
      <trkpt lat="45.54428" lon="5.74257">
        <ele>511.8</ele>
      </trkpt>
      <trkpt lat="45.54465" lon="5.74224">
        <ele>509.9</ele>
      </trkpt>
      <trkpt lat="45.5448" lon="5.74237">
        <ele>509.2</ele>
      </trkpt>
      <trkpt lat="45.54501" lon="5.74267">
        <ele>508.7</ele>
      </trkpt>
      <trkpt lat="45.54515" lon="5.7426">
        <ele>508</ele>
      </trkpt>
      <trkpt lat="45.54547" lon="5.74277">
        <ele>506.4</ele>
      </trkpt>
      <trkpt lat="45.5456" lon="5.74269">
        <ele>505.7</ele>
      </trkpt>
      <trkpt lat="45.54607" lon="5.74235">
        <ele>502.9</ele>
      </trkpt>
      <trkpt lat="45.54645" lon="5.7424">
        <ele>504.7</ele>
      </trkpt>
      <trkpt lat="45.54649" lon="5.74255">
        <ele>505.8</ele>
      </trkpt>
      <trkpt lat="45.54678" lon="5.74257">
        <ele>508.2</ele>
      </trkpt>
      <trkpt lat="45.54726" lon="5.74219">
        <ele>512.7</ele>
      </trkpt>
      <trkpt lat="45.54741" lon="5.74188">
        <ele>511.9</ele>
      </trkpt>
      <trkpt lat="45.54744" lon="5.7417">
        <ele>510.6</ele>
      </trkpt>
      <trkpt lat="45.54755" lon="5.74158">
        <ele>511.2</ele>
      </trkpt>
      <trkpt lat="45.54802" lon="5.74136">
        <ele>515.8</ele>
      </trkpt>
      <trkpt lat="45.54839" lon="5.74135">
        <ele>519.4</ele>
      </trkpt>
      <trkpt lat="45.54872" lon="5.74141">
        <ele>518.8</ele>
      </trkpt>
      <trkpt lat="45.54891" lon="5.74157">
        <ele>518.2</ele>
      </trkpt>
      <trkpt lat="45.54897" lon="5.74184">
        <ele>517.2</ele>
      </trkpt>
      <trkpt lat="45.54911" lon="5.74226">
        <ele>513</ele>
      </trkpt>
      <trkpt lat="45.54935" lon="5.74234">
        <ele>510.5</ele>
      </trkpt>
      <trkpt lat="45.54961" lon="5.74214">
        <ele>511.3</ele>
      </trkpt>
      <trkpt lat="45.54985" lon="5.74219">
        <ele>510</ele>
      </trkpt>
      <trkpt lat="45.55036" lon="5.74197">
        <ele>512.6</ele>
      </trkpt>
      <trkpt lat="45.55039" lon="5.74192">
        <ele>513.2</ele>
      </trkpt>
      <trkpt lat="45.55061" lon="5.74214">
        <ele>511.9</ele>
      </trkpt>
      <trkpt lat="45.55152" lon="5.74272">
        <ele>514.2</ele>
      </trkpt>
      <trkpt lat="45.55183" lon="5.74292">
        <ele>516.7</ele>
      </trkpt>
      <trkpt lat="45.55197" lon="5.74297">
        <ele>518.7</ele>
      </trkpt>
      <trkpt lat="45.55225" lon="5.74273">
        <ele>522.4</ele>
      </trkpt>
      <trkpt lat="45.55243" lon="5.74274">
        <ele>524.7</ele>
      </trkpt>
      <trkpt lat="45.55251" lon="5.74298">
        <ele>526.3</ele>
      </trkpt>
      <trkpt lat="45.55259" lon="5.74346">
        <ele>527.2</ele>
      </trkpt>
      <trkpt lat="45.55281" lon="5.74383">
        <ele>528.1</ele>
      </trkpt>
      <trkpt lat="45.55291" lon="5.74365">
        <ele>529.7</ele>
      </trkpt>
      <trkpt lat="45.55305" lon="5.74355">
        <ele>531.6</ele>
      </trkpt>
      <trkpt lat="45.55313" lon="5.74356">
        <ele>532.4</ele>
      </trkpt>
      <trkpt lat="45.55323" lon="5.74364">
        <ele>533.2</ele>
      </trkpt>
      <trkpt lat="45.55337" lon="5.74368">
        <ele>534.3</ele>
      </trkpt>
      <trkpt lat="45.55345" lon="5.74386">
        <ele>534</ele>
      </trkpt>
      <trkpt lat="45.55356" lon="5.744">
        <ele>533.8</ele>
      </trkpt>
      <trkpt lat="45.55394" lon="5.74379">
        <ele>535.6</ele>
      </trkpt>
      <trkpt lat="45.55397" lon="5.74378">
        <ele>535.8</ele>
      </trkpt>
      <trkpt lat="45.55415" lon="5.74359">
        <ele>537.4</ele>
      </trkpt>
      <trkpt lat="45.55424" lon="5.74346">
        <ele>538.7</ele>
      </trkpt>
      <trkpt lat="45.55442" lon="5.74305">
        <ele>541.3</ele>
      </trkpt>
      <trkpt lat="45.55451" lon="5.74294">
        <ele>542.5</ele>
      </trkpt>
      <trkpt lat="45.55461" lon="5.74286">
        <ele>543.7</ele>
      </trkpt>
      <trkpt lat="45.55466" lon="5.74285">
        <ele>544.3</ele>
      </trkpt>
      <trkpt lat="45.55469" lon="5.74286">
        <ele>544.6</ele>
      </trkpt>
      <trkpt lat="45.55475" lon="5.74302">
        <ele>544.5</ele>
      </trkpt>
      <trkpt lat="45.5548" lon="5.74312">
        <ele>544.5</ele>
      </trkpt>
      <trkpt lat="45.55497" lon="5.74322">
        <ele>545.5</ele>
      </trkpt>
      <trkpt lat="45.5554" lon="5.74334">
        <ele>544.9</ele>
      </trkpt>
      <trkpt lat="45.55581" lon="5.74342">
        <ele>544.1</ele>
      </trkpt>
      <trkpt lat="45.55586" lon="5.74337">
        <ele>544.6</ele>
      </trkpt>
      <trkpt lat="45.556" lon="5.74304">
        <ele>547</ele>
      </trkpt>
      <trkpt lat="45.55602" lon="5.74275">
        <ele>549.1</ele>
      </trkpt>
      <trkpt lat="45.55604" lon="5.74235">
        <ele>552.2</ele>
      </trkpt>
      <trkpt lat="45.55611" lon="5.74205">
        <ele>554.6</ele>
      </trkpt>
      <trkpt lat="45.55634" lon="5.7416">
        <ele>559.1</ele>
      </trkpt>
      <trkpt lat="45.55638" lon="5.74145">
        <ele>561.3</ele>
      </trkpt>
      <trkpt lat="45.55639" lon="5.74132">
        <ele>563.2</ele>
      </trkpt>
      <trkpt lat="45.55634" lon="5.74084">
        <ele>569.6</ele>
      </trkpt>
      <trkpt lat="45.55615" lon="5.73976">
        <ele>580.9</ele>
      </trkpt>
      <trkpt lat="45.55611" lon="5.73967">
        <ele>581.6</ele>
      </trkpt>
      <trkpt lat="45.55585" lon="5.73933">
        <ele>583.6</ele>
      </trkpt>
      <trkpt lat="45.55584" lon="5.73926">
        <ele>584.2</ele>
      </trkpt>
      <trkpt lat="45.55585" lon="5.73919">
        <ele>584.9</ele>
      </trkpt>
      <trkpt lat="45.55589" lon="5.73915">
        <ele>585.6</ele>
      </trkpt>
      <trkpt lat="45.55594" lon="5.73907">
        <ele>586.8</ele>
      </trkpt>
      <trkpt lat="45.55596" lon="5.73899">
        <ele>587.7</ele>
      </trkpt>
      <trkpt lat="45.55596" lon="5.73882">
        <ele>589.4</ele>
      </trkpt>
      <trkpt lat="45.55595" lon="5.7378">
        <ele>597.9</ele>
      </trkpt>
      <trkpt lat="45.55591" lon="5.73771">
        <ele>598</ele>
      </trkpt>
      <trkpt lat="45.55592" lon="5.73759">
        <ele>599.2</ele>
      </trkpt>
      <trkpt lat="45.55599" lon="5.73755">
        <ele>600.8</ele>
      </trkpt>
      <trkpt lat="45.5561" lon="5.73772">
        <ele>601.4</ele>
      </trkpt>
      <trkpt lat="45.55622" lon="5.73783">
        <ele>602.7</ele>
      </trkpt>
      <trkpt lat="45.55635" lon="5.73789">
        <ele>604.6</ele>
      </trkpt>
      <trkpt lat="45.55644" lon="5.73786">
        <ele>606.5</ele>
      </trkpt>
      <trkpt lat="45.55656" lon="5.73767">
        <ele>610.9</ele>
      </trkpt>
      <trkpt lat="45.55664" lon="5.73764">
        <ele>612.7</ele>
      </trkpt>
      <trkpt lat="45.55672" lon="5.73765">
        <ele>613.9</ele>
      </trkpt>
      <trkpt lat="45.55697" lon="5.73786">
        <ele>614.6</ele>
      </trkpt>
      <trkpt lat="45.55707" lon="5.73789">
        <ele>615.6</ele>
      </trkpt>
      <trkpt lat="45.55718" lon="5.73784">
        <ele>617.7</ele>
      </trkpt>
      <trkpt lat="45.55734" lon="5.73766">
        <ele>622.5</ele>
      </trkpt>
      <trkpt lat="45.55748" lon="5.73701">
        <ele>630.2</ele>
      </trkpt>
      <trkpt lat="45.55751" lon="5.73644">
        <ele>632.4</ele>
      </trkpt>
      <trkpt lat="45.55771" lon="5.73642">
        <ele>635.8</ele>
      </trkpt>
      <trkpt lat="45.55783" lon="5.73601">
        <ele>638.6</ele>
      </trkpt>
      <trkpt lat="45.55809" lon="5.73562">
        <ele>644.5</ele>
      </trkpt>
      <trkpt lat="45.55826" lon="5.73521">
        <ele>647</ele>
      </trkpt>
      <trkpt lat="45.55848" lon="5.73449">
        <ele>641.2</ele>
      </trkpt>
      <trkpt lat="45.55881" lon="5.73418">
        <ele>642.7</ele>
      </trkpt>
      <trkpt lat="45.55916" lon="5.73396">
        <ele>644</ele>
      </trkpt>
      <trkpt lat="45.55923" lon="5.73392">
        <ele>642.8</ele>
      </trkpt>
      <trkpt lat="45.55938" lon="5.7339">
        <ele>641.3</ele>
      </trkpt>
      <trkpt lat="45.55936" lon="5.73359">
        <ele>632.7</ele>
      </trkpt>
      <trkpt lat="45.55943" lon="5.7336">
        <ele>632.5</ele>
      </trkpt>
      <trkpt lat="45.55945" lon="5.73359">
        <ele>632</ele>
      </trkpt>
      <trkpt lat="45.5595" lon="5.73357">
        <ele>631.2</ele>
      </trkpt>
      <trkpt lat="45.55955" lon="5.73353">
        <ele>629.9</ele>
      </trkpt>
      <trkpt lat="45.55959" lon="5.73351">
        <ele>628.8</ele>
      </trkpt>
      <trkpt lat="45.55961" lon="5.73346">
        <ele>627.5</ele>
      </trkpt>
      <trkpt lat="45.55964" lon="5.73344">
        <ele>626.5</ele>
      </trkpt>
      <trkpt lat="45.5597" lon="5.73337">
        <ele>624.3</ele>
      </trkpt>
      <trkpt lat="45.55974" lon="5.73338">
        <ele>624.3</ele>
      </trkpt>
      <trkpt lat="45.55982" lon="5.73338">
        <ele>623.6</ele>
      </trkpt>
      <trkpt lat="45.55987" lon="5.73335">
        <ele>622.5</ele>
      </trkpt>
      <trkpt lat="45.55995" lon="5.73337">
        <ele>622.5</ele>
      </trkpt>
      <trkpt lat="45.56003" lon="5.73339">
        <ele>621.9</ele>
      </trkpt>
      <trkpt lat="45.56012" lon="5.73339">
        <ele>619.5</ele>
      </trkpt>
      <trkpt lat="45.5602" lon="5.73342">
        <ele>618.5</ele>
      </trkpt>
      <trkpt lat="45.56028" lon="5.73342">
        <ele>616.3</ele>
      </trkpt>
      <trkpt lat="45.56043" lon="5.73343">
        <ele>612.9</ele>
      </trkpt>
      <trkpt lat="45.56051" lon="5.7334">
        <ele>609.8</ele>
      </trkpt>
      <trkpt lat="45.56061" lon="5.73334">
        <ele>605.8</ele>
      </trkpt>
      <trkpt lat="45.56073" lon="5.73335">
        <ele>603</ele>
      </trkpt>
      <trkpt lat="45.56079" lon="5.73336">
        <ele>602</ele>
      </trkpt>
      <trkpt lat="45.56086" lon="5.73342">
        <ele>602.2</ele>
      </trkpt>
      <trkpt lat="45.56095" lon="5.73347">
        <ele>602.8</ele>
      </trkpt>
      <trkpt lat="45.56107" lon="5.7335">
        <ele>602.5</ele>
      </trkpt>
      <trkpt lat="45.56121" lon="5.73348">
        <ele>600.9</ele>
      </trkpt>
      <trkpt lat="45.56132" lon="5.73347">
        <ele>599.7</ele>
      </trkpt>
      <trkpt lat="45.56139" lon="5.73339">
        <ele>597.4</ele>
      </trkpt>
      <trkpt lat="45.56153" lon="5.73338">
        <ele>596.1</ele>
      </trkpt>
      <trkpt lat="45.56168" lon="5.73345">
        <ele>596.8</ele>
      </trkpt>
      <trkpt lat="45.56183" lon="5.73341">
        <ele>598</ele>
      </trkpt>
      <trkpt lat="45.56192" lon="5.73335">
        <ele>598.1</ele>
      </trkpt>
      <trkpt lat="45.56206" lon="5.7332">
        <ele>595.3</ele>
      </trkpt>
      <trkpt lat="45.56218" lon="5.73316">
        <ele>595.5</ele>
      </trkpt>
      <trkpt lat="45.56229" lon="5.73318">
        <ele>597.8</ele>
      </trkpt>
      <trkpt lat="45.56256" lon="5.73323">
        <ele>602.8</ele>
      </trkpt>
      <trkpt lat="45.56261" lon="5.73319">
        <ele>601.9</ele>
      </trkpt>
      <trkpt lat="45.56275" lon="5.73314">
        <ele>601.1</ele>
      </trkpt>
      <trkpt lat="45.5628" lon="5.73311">
        <ele>600.8</ele>
      </trkpt>
      <trkpt lat="45.56294" lon="5.73315">
        <ele>602.9</ele>
      </trkpt>
      <trkpt lat="45.56302" lon="5.73318">
        <ele>604</ele>
      </trkpt>
      <trkpt lat="45.56313" lon="5.73318">
        <ele>604.8</ele>
      </trkpt>
      <trkpt lat="45.56323" lon="5.73318">
        <ele>605.2</ele>
      </trkpt>
      <trkpt lat="45.5634" lon="5.73316">
        <ele>605.5</ele>
      </trkpt>
      <trkpt lat="45.56351" lon="5.7331">
        <ele>604.6</ele>
      </trkpt>
      <trkpt lat="45.5636" lon="5.73305">
        <ele>603.5</ele>
      </trkpt>
      <trkpt lat="45.56388" lon="5.73304">
        <ele>604.5</ele>
      </trkpt>
      <trkpt lat="45.56407" lon="5.73309">
        <ele>606.3</ele>
      </trkpt>
      <trkpt lat="45.56422" lon="5.73321">
        <ele>608.8</ele>
      </trkpt>
      <trkpt lat="45.56431" lon="5.73335">
        <ele>610.6</ele>
      </trkpt>
      <trkpt lat="45.56437" lon="5.73341">
        <ele>610.3</ele>
      </trkpt>
      <trkpt lat="45.56442" lon="5.73347">
        <ele>609.9</ele>
      </trkpt>
      <trkpt lat="45.56448" lon="5.7335">
        <ele>609.4</ele>
      </trkpt>
      <trkpt lat="45.56454" lon="5.73345">
        <ele>608.8</ele>
      </trkpt>
      <trkpt lat="45.56463" lon="5.73338">
        <ele>607.6</ele>
      </trkpt>
      <trkpt lat="45.56469" lon="5.73333">
        <ele>606.9</ele>
      </trkpt>
      <trkpt lat="45.56476" lon="5.73331">
        <ele>605.8</ele>
      </trkpt>
      <trkpt lat="45.56481" lon="5.73329">
        <ele>605.1</ele>
      </trkpt>
      <trkpt lat="45.56489" lon="5.73321">
        <ele>602.9</ele>
      </trkpt>
      <trkpt lat="45.56494" lon="5.73314">
        <ele>601.3</ele>
      </trkpt>
      <trkpt lat="45.56501" lon="5.73309">
        <ele>599.9</ele>
      </trkpt>
      <trkpt lat="45.56515" lon="5.73313">
        <ele>598.7</ele>
      </trkpt>
      <trkpt lat="45.56522" lon="5.73321">
        <ele>599.3</ele>
      </trkpt>
      <trkpt lat="45.56531" lon="5.73333">
        <ele>599.9</ele>
      </trkpt>
      <trkpt lat="45.56537" lon="5.73342">
        <ele>599.4</ele>
      </trkpt>
      <trkpt lat="45.56544" lon="5.73353">
        <ele>598.9</ele>
      </trkpt>
      <trkpt lat="45.56546" lon="5.73363">
        <ele>599</ele>
      </trkpt>
      <trkpt lat="45.56549" lon="5.73375">
        <ele>599.2</ele>
      </trkpt>
      <trkpt lat="45.56552" lon="5.73391">
        <ele>599.4</ele>
      </trkpt>
      <trkpt lat="45.56557" lon="5.73392">
        <ele>598.9</ele>
      </trkpt>
      <trkpt lat="45.56561" lon="5.73391">
        <ele>598.3</ele>
      </trkpt>
      <trkpt lat="45.56562" lon="5.73386">
        <ele>598</ele>
      </trkpt>
      <trkpt lat="45.56565" lon="5.73377">
        <ele>597.3</ele>
      </trkpt>
      <trkpt lat="45.56567" lon="5.7337">
        <ele>596.7</ele>
      </trkpt>
      <trkpt lat="45.56567" lon="5.73362">
        <ele>596.4</ele>
      </trkpt>
      <trkpt lat="45.56568" lon="5.73348">
        <ele>595.7</ele>
      </trkpt>
      <trkpt lat="45.56571" lon="5.73332">
        <ele>594.5</ele>
      </trkpt>
      <trkpt lat="45.56579" lon="5.73323">
        <ele>592.4</ele>
      </trkpt>
      <trkpt lat="45.56589" lon="5.73319">
        <ele>591.9</ele>
      </trkpt>
      <trkpt lat="45.56595" lon="5.73309">
        <ele>591.1</ele>
      </trkpt>
      <trkpt lat="45.56604" lon="5.73297">
        <ele>590.5</ele>
      </trkpt>
      <trkpt lat="45.56612" lon="5.73294">
        <ele>590.6</ele>
      </trkpt>
      <trkpt lat="45.56617" lon="5.73294">
        <ele>591</ele>
      </trkpt>
      <trkpt lat="45.56628" lon="5.73299">
        <ele>592.3</ele>
      </trkpt>
      <trkpt lat="45.56644" lon="5.73311">
        <ele>594.8</ele>
      </trkpt>
      <trkpt lat="45.56663" lon="5.73323">
        <ele>597.6</ele>
      </trkpt>
      <trkpt lat="45.56682" lon="5.73325">
        <ele>600.2</ele>
      </trkpt>
      <trkpt lat="45.56692" lon="5.73325">
        <ele>601.5</ele>
      </trkpt>
      <trkpt lat="45.56701" lon="5.73329">
        <ele>603.3</ele>
      </trkpt>
      <trkpt lat="45.56719" lon="5.73341">
        <ele>607</ele>
      </trkpt>
      <trkpt lat="45.56727" lon="5.73343">
        <ele>608.2</ele>
      </trkpt>
      <trkpt lat="45.5673" lon="5.73343">
        <ele>608.7</ele>
      </trkpt>
      <trkpt lat="45.56734" lon="5.73342">
        <ele>609.2</ele>
      </trkpt>
      <trkpt lat="45.56739" lon="5.73348">
        <ele>610.5</ele>
      </trkpt>
      <trkpt lat="45.5674" lon="5.73358">
        <ele>611.4</ele>
      </trkpt>
      <trkpt lat="45.56741" lon="5.73364">
        <ele>611.9</ele>
      </trkpt>
      <trkpt lat="45.56744" lon="5.73371">
        <ele>613</ele>
      </trkpt>
      <trkpt lat="45.5675" lon="5.7337">
        <ele>614.1</ele>
      </trkpt>
      <trkpt lat="45.56759" lon="5.73362">
        <ele>615.1</ele>
      </trkpt>
      <trkpt lat="45.56766" lon="5.73357">
        <ele>615.8</ele>
      </trkpt>
      <trkpt lat="45.56776" lon="5.73356">
        <ele>617.4</ele>
      </trkpt>
      <trkpt lat="45.56782" lon="5.73358">
        <ele>618.8</ele>
      </trkpt>
      <trkpt lat="45.56792" lon="5.73361">
        <ele>620.9</ele>
      </trkpt>
      <trkpt lat="45.56802" lon="5.73364">
        <ele>623</ele>
      </trkpt>
      <trkpt lat="45.56829" lon="5.73378">
        <ele>629.5</ele>
      </trkpt>
      <trkpt lat="45.5684" lon="5.73389">
        <ele>632</ele>
      </trkpt>
      <trkpt lat="45.56846" lon="5.73402">
        <ele>633.8</ele>
      </trkpt>
      <trkpt lat="45.56851" lon="5.73411">
        <ele>635</ele>
      </trkpt>
      <trkpt lat="45.56856" lon="5.7342">
        <ele>635.6</ele>
      </trkpt>
      <trkpt lat="45.56858" lon="5.73425">
        <ele>635.4</ele>
      </trkpt>
      <trkpt lat="45.56861" lon="5.7343">
        <ele>635.1</ele>
      </trkpt>
      <trkpt lat="45.56866" lon="5.73437">
        <ele>634.9</ele>
      </trkpt>
      <trkpt lat="45.56874" lon="5.73446">
        <ele>634.8</ele>
      </trkpt>
      <trkpt lat="45.56929" lon="5.73468">
        <ele>638.8</ele>
      </trkpt>
      <trkpt lat="45.56966" lon="5.73481">
        <ele>645.3</ele>
      </trkpt>
      <trkpt lat="45.56985" lon="5.7349">
        <ele>648.9</ele>
      </trkpt>
      <trkpt lat="45.57" lon="5.73492">
        <ele>651.7</ele>
      </trkpt>
      <trkpt lat="45.57022" lon="5.73489">
        <ele>654.7</ele>
      </trkpt>
      <trkpt lat="45.57041" lon="5.73487">
        <ele>657.3</ele>
      </trkpt>
      <trkpt lat="45.57054" lon="5.73484">
        <ele>659.2</ele>
      </trkpt>
      <trkpt lat="45.57064" lon="5.73483">
        <ele>660.7</ele>
      </trkpt>
      <trkpt lat="45.57069" lon="5.73481">
        <ele>661.3</ele>
      </trkpt>
      <trkpt lat="45.57084" lon="5.7348">
        <ele>663.5</ele>
      </trkpt>
      <trkpt lat="45.57082" lon="5.73471">
        <ele>663.5</ele>
      </trkpt>
      <trkpt lat="45.57079" lon="5.73453">
        <ele>663.4</ele>
      </trkpt>
      <trkpt lat="45.57074" lon="5.73437">
        <ele>662.8</ele>
      </trkpt>
      <trkpt lat="45.57071" lon="5.73426">
        <ele>662.5</ele>
      </trkpt>
      <trkpt lat="45.57069" lon="5.73421">
        <ele>662.1</ele>
      </trkpt>
      <trkpt lat="45.57068" lon="5.73416">
        <ele>662</ele>
      </trkpt>
      <trkpt lat="45.57069" lon="5.73407">
        <ele>662.7</ele>
      </trkpt>
      <trkpt lat="45.5707" lon="5.73403">
        <ele>663</ele>
      </trkpt>
      <trkpt lat="45.57071" lon="5.7339">
        <ele>663.8</ele>
      </trkpt>
      <trkpt lat="45.57071" lon="5.7338">
        <ele>664.3</ele>
      </trkpt>
      <trkpt lat="45.57072" lon="5.73371">
        <ele>664.9</ele>
      </trkpt>
      <trkpt lat="45.57069" lon="5.73362">
        <ele>664.6</ele>
      </trkpt>
      <trkpt lat="45.57067" lon="5.73347">
        <ele>664.7</ele>
      </trkpt>
      <trkpt lat="45.57064" lon="5.73329">
        <ele>663.9</ele>
      </trkpt>
      <trkpt lat="45.57063" lon="5.73315">
        <ele>662.2</ele>
      </trkpt>
      <trkpt lat="45.57079" lon="5.73307">
        <ele>666</ele>
      </trkpt>
      <trkpt lat="45.57083" lon="5.73297">
        <ele>666</ele>
      </trkpt>
      <trkpt lat="45.5709" lon="5.73289">
        <ele>666.8</ele>
      </trkpt>
      <trkpt lat="45.57101" lon="5.73279">
        <ele>668.5</ele>
      </trkpt>
      <trkpt lat="45.57116" lon="5.73264">
        <ele>670.8</ele>
      </trkpt>
      <trkpt lat="45.5713" lon="5.73252">
        <ele>673.4</ele>
      </trkpt>
      <trkpt lat="45.57142" lon="5.73242">
        <ele>673.5</ele>
      </trkpt>
      <trkpt lat="45.57159" lon="5.73235">
        <ele>674.5</ele>
      </trkpt>
      <trkpt lat="45.5717" lon="5.73234">
        <ele>676.3</ele>
      </trkpt>
      <trkpt lat="45.57185" lon="5.73234">
        <ele>677.6</ele>
      </trkpt>
      <trkpt lat="45.57196" lon="5.73236">
        <ele>679.7</ele>
      </trkpt>
      <trkpt lat="45.5721" lon="5.73238">
        <ele>681.8</ele>
      </trkpt>
      <trkpt lat="45.5723" lon="5.73243">
        <ele>685.9</ele>
      </trkpt>
      <trkpt lat="45.57245" lon="5.73243">
        <ele>687.8</ele>
      </trkpt>
      <trkpt lat="45.57262" lon="5.73248">
        <ele>690.4</ele>
      </trkpt>
      <trkpt lat="45.5728" lon="5.73249">
        <ele>691.4</ele>
      </trkpt>
      <trkpt lat="45.57295" lon="5.73255">
        <ele>692.2</ele>
      </trkpt>
      <trkpt lat="45.573" lon="5.73261">
        <ele>692.4</ele>
      </trkpt>
      <trkpt lat="45.57305" lon="5.73279">
        <ele>692.9</ele>
      </trkpt>
      <trkpt lat="45.57306" lon="5.73284">
        <ele>693.1</ele>
      </trkpt>
      <trkpt lat="45.57308" lon="5.73292">
        <ele>693.3</ele>
      </trkpt>
      <trkpt lat="45.57311" lon="5.73299">
        <ele>693.5</ele>
      </trkpt>
      <trkpt lat="45.57311" lon="5.73309">
        <ele>693.8</ele>
      </trkpt>
      <trkpt lat="45.57312" lon="5.73319">
        <ele>694.1</ele>
      </trkpt>
      <trkpt lat="45.57314" lon="5.73326">
        <ele>694.2</ele>
      </trkpt>
      <trkpt lat="45.57318" lon="5.7333">
        <ele>694.3</ele>
      </trkpt>
      <trkpt lat="45.57322" lon="5.73335">
        <ele>694.2</ele>
      </trkpt>
      <trkpt lat="45.57335" lon="5.73329">
        <ele>694</ele>
      </trkpt>
      <trkpt lat="45.57347" lon="5.73321">
        <ele>694</ele>
      </trkpt>
      <trkpt lat="45.57355" lon="5.73321">
        <ele>694.2</ele>
      </trkpt>
      <trkpt lat="45.57362" lon="5.73318">
        <ele>694.1</ele>
      </trkpt>
      <trkpt lat="45.57369" lon="5.73315">
        <ele>694.1</ele>
      </trkpt>
      <trkpt lat="45.57376" lon="5.73318">
        <ele>694.4</ele>
      </trkpt>
      <trkpt lat="45.57386" lon="5.7331">
        <ele>693.9</ele>
      </trkpt>
      <trkpt lat="45.57391" lon="5.73312">
        <ele>694.2</ele>
      </trkpt>
      <trkpt lat="45.57395" lon="5.73317">
        <ele>694.7</ele>
      </trkpt>
      <trkpt lat="45.57403" lon="5.73315">
        <ele>694.6</ele>
      </trkpt>
      <trkpt lat="45.5741" lon="5.73311">
        <ele>694.2</ele>
      </trkpt>
      <trkpt lat="45.57424" lon="5.733">
        <ele>692.5</ele>
      </trkpt>
      <trkpt lat="45.57428" lon="5.73293">
        <ele>691.4</ele>
      </trkpt>
      <trkpt lat="45.57433" lon="5.73286">
        <ele>690.1</ele>
      </trkpt>
      <trkpt lat="45.57445" lon="5.73276">
        <ele>687.7</ele>
      </trkpt>
      <trkpt lat="45.57463" lon="5.73282">
        <ele>687.1</ele>
      </trkpt>
      <trkpt lat="45.57481" lon="5.73286">
        <ele>686.6</ele>
      </trkpt>
      <trkpt lat="45.57494" lon="5.73291">
        <ele>686.6</ele>
      </trkpt>
      <trkpt lat="45.57513" lon="5.73295">
        <ele>687.3</ele>
      </trkpt>
      <trkpt lat="45.57522" lon="5.73293">
        <ele>686.9</ele>
      </trkpt>
      <trkpt lat="45.57536" lon="5.73294">
        <ele>687</ele>
      </trkpt>
      <trkpt lat="45.57551" lon="5.73286">
        <ele>685.3</ele>
      </trkpt>
      <trkpt lat="45.57551" lon="5.73271">
        <ele>681.8</ele>
      </trkpt>
      <trkpt lat="45.57559" lon="5.73265">
        <ele>680.3</ele>
      </trkpt>
      <trkpt lat="45.57566" lon="5.73254">
        <ele>678</ele>
      </trkpt>
      <trkpt lat="45.57572" lon="5.7326">
        <ele>679.3</ele>
      </trkpt>
      <trkpt lat="45.57592" lon="5.73247">
        <ele>674.6</ele>
      </trkpt>
      <trkpt lat="45.57604" lon="5.73242">
        <ele>670.1</ele>
      </trkpt>
      <trkpt lat="45.57609" lon="5.7324">
        <ele>669.3</ele>
      </trkpt>
      <trkpt lat="45.57615" lon="5.7324">
        <ele>670.1</ele>
      </trkpt>
      <trkpt lat="45.57627" lon="5.73232">
        <ele>664.4</ele>
      </trkpt>
      <trkpt lat="45.57633" lon="5.73228">
        <ele>661.9</ele>
      </trkpt>
      <trkpt lat="45.57639" lon="5.73227">
        <ele>662.5</ele>
      </trkpt>
      <trkpt lat="45.57651" lon="5.73232">
        <ele>669.3</ele>
      </trkpt>
      <trkpt lat="45.57656" lon="5.73237">
        <ele>673.8</ele>
      </trkpt>
      <trkpt lat="45.57661" lon="5.73239">
        <ele>675.8</ele>
      </trkpt>
      <trkpt lat="45.57685" lon="5.73242">
        <ele>684.1</ele>
      </trkpt>
      <trkpt lat="45.57715" lon="5.73217">
        <ele>679.5</ele>
      </trkpt>
      <trkpt lat="45.57722" lon="5.73198">
        <ele>673.4</ele>
      </trkpt>
      <trkpt lat="45.57727" lon="5.73194">
        <ele>674.4</ele>
      </trkpt>
      <trkpt lat="45.57733" lon="5.73191">
        <ele>675.8</ele>
      </trkpt>
      <trkpt lat="45.5774" lon="5.73188">
        <ele>678.4</ele>
      </trkpt>
      <trkpt lat="45.57742" lon="5.73184">
        <ele>678.2</ele>
      </trkpt>
      <trkpt lat="45.5775" lon="5.73172">
        <ele>678.8</ele>
      </trkpt>
      <trkpt lat="45.57755" lon="5.73168">
        <ele>677.7</ele>
      </trkpt>
      <trkpt lat="45.5776" lon="5.73165">
        <ele>674.4</ele>
      </trkpt>
      <trkpt lat="45.5778" lon="5.73161">
        <ele>670.5</ele>
      </trkpt>
      <trkpt lat="45.57791" lon="5.73155">
        <ele>663.9</ele>
      </trkpt>
      <trkpt lat="45.57803" lon="5.73151">
        <ele>663</ele>
      </trkpt>
      <trkpt lat="45.57809" lon="5.73153">
        <ele>667.2</ele>
      </trkpt>
      <trkpt lat="45.57814" lon="5.73153">
        <ele>668</ele>
      </trkpt>
      <trkpt lat="45.57825" lon="5.7315">
        <ele>669.5</ele>
      </trkpt>
      <trkpt lat="45.57831" lon="5.73149">
        <ele>670.6</ele>
      </trkpt>
      <trkpt lat="45.57836" lon="5.7315">
        <ele>671.8</ele>
      </trkpt>
      <trkpt lat="45.57865" lon="5.73156">
        <ele>672.6</ele>
      </trkpt>
      <trkpt lat="45.57874" lon="5.73158">
        <ele>672.7</ele>
      </trkpt>
      <trkpt lat="45.57882" lon="5.73162">
        <ele>673.7</ele>
      </trkpt>
      <trkpt lat="45.57891" lon="5.73166">
        <ele>674.1</ele>
      </trkpt>
      <trkpt lat="45.57898" lon="5.73172">
        <ele>675.4</ele>
      </trkpt>
      <trkpt lat="45.57971" lon="5.73244">
        <ele>678.4</ele>
      </trkpt>
      <trkpt lat="45.58007" lon="5.73281">
        <ele>673.9</ele>
      </trkpt>
      <trkpt lat="45.58026" lon="5.73299">
        <ele>674</ele>
      </trkpt>
      <trkpt lat="45.58035" lon="5.73309">
        <ele>674.1</ele>
      </trkpt>
      <trkpt lat="45.5804" lon="5.73314">
        <ele>673.8</ele>
      </trkpt>
      <trkpt lat="45.58046" lon="5.73313">
        <ele>673</ele>
      </trkpt>
      <trkpt lat="45.58056" lon="5.73215">
        <ele>660.3</ele>
      </trkpt>
      <trkpt lat="45.58073" lon="5.73188">
        <ele>655.4</ele>
      </trkpt>
      <trkpt lat="45.58096" lon="5.73175">
        <ele>652.7</ele>
      </trkpt>
      <trkpt lat="45.58115" lon="5.73172">
        <ele>652</ele>
      </trkpt>
      <trkpt lat="45.58146" lon="5.73183">
        <ele>653</ele>
      </trkpt>
      <trkpt lat="45.58193" lon="5.73173">
        <ele>649.1</ele>
      </trkpt>
      <trkpt lat="45.58221" lon="5.73124">
        <ele>642.1</ele>
      </trkpt>
      <trkpt lat="45.58229" lon="5.73119">
        <ele>641.6</ele>
      </trkpt>
      <trkpt lat="45.58237" lon="5.73118">
        <ele>641.6</ele>
      </trkpt>
      <trkpt lat="45.58354" lon="5.73188">
        <ele>641.6</ele>
      </trkpt>
      <trkpt lat="45.58392" lon="5.73161">
        <ele>640.2</ele>
      </trkpt>
      <trkpt lat="45.58411" lon="5.73118">
        <ele>638.6</ele>
      </trkpt>
      <trkpt lat="45.58422" lon="5.73108">
        <ele>637.8</ele>
      </trkpt>
      <trkpt lat="45.58437" lon="5.73105">
        <ele>636.7</ele>
      </trkpt>
      <trkpt lat="45.58473" lon="5.73137">
        <ele>635.3</ele>
      </trkpt>
      <trkpt lat="45.58499" lon="5.73124">
        <ele>633</ele>
      </trkpt>
      <trkpt lat="45.5854" lon="5.73061">
        <ele>626.4</ele>
      </trkpt>
      <trkpt lat="45.58563" lon="5.73008">
        <ele>623.7</ele>
      </trkpt>
      <trkpt lat="45.58583" lon="5.73">
        <ele>622</ele>
      </trkpt>
      <trkpt lat="45.58637" lon="5.73035">
        <ele>622.9</ele>
      </trkpt>
      <trkpt lat="45.58686" lon="5.73079">
        <ele>623.7</ele>
      </trkpt>
      <trkpt lat="45.58722" lon="5.73112">
        <ele>622.7</ele>
      </trkpt>
      <trkpt lat="45.58752" lon="5.73174">
        <ele>618.2</ele>
      </trkpt>
      <trkpt lat="45.58771" lon="5.73203">
        <ele>614.6</ele>
      </trkpt>
      <trkpt lat="45.58805" lon="5.73228">
        <ele>610.6</ele>
      </trkpt>
      <trkpt lat="45.58864" lon="5.7322">
        <ele>609.7</ele>
      </trkpt>
      <trkpt lat="45.59002" lon="5.73127">
        <ele>604.4</ele>
      </trkpt>
      <trkpt lat="45.59033" lon="5.73085">
        <ele>600.9</ele>
      </trkpt>
      <trkpt lat="45.5906" lon="5.73041">
        <ele>593.9</ele>
      </trkpt>
      <trkpt lat="45.5908" lon="5.73028">
        <ele>591</ele>
      </trkpt>
      <trkpt lat="45.59107" lon="5.73048">
        <ele>591.4</ele>
      </trkpt>
      <trkpt lat="45.59121" lon="5.73079">
        <ele>593.3</ele>
      </trkpt>
      <trkpt lat="45.59133" lon="5.73092">
        <ele>592.9</ele>
      </trkpt>
      <trkpt lat="45.59153" lon="5.73092">
        <ele>591.5</ele>
      </trkpt>
      <trkpt lat="45.59175" lon="5.73074">
        <ele>589.9</ele>
      </trkpt>
      <trkpt lat="45.59197" lon="5.73075">
        <ele>588.7</ele>
      </trkpt>
      <trkpt lat="45.5924" lon="5.73096">
        <ele>585.6</ele>
      </trkpt>
      <trkpt lat="45.59275" lon="5.73113">
        <ele>582.5</ele>
      </trkpt>
      <trkpt lat="45.59309" lon="5.73118">
        <ele>580.7</ele>
      </trkpt>
      <trkpt lat="45.59325" lon="5.73133">
        <ele>579.5</ele>
      </trkpt>
      <trkpt lat="45.59343" lon="5.73145">
        <ele>579.2</ele>
      </trkpt>
      <trkpt lat="45.59349" lon="5.73131">
        <ele>580.1</ele>
      </trkpt>
      <trkpt lat="45.59353" lon="5.73117">
        <ele>580.9</ele>
      </trkpt>
      <trkpt lat="45.59358" lon="5.73093">
        <ele>582.3</ele>
      </trkpt>
      <trkpt lat="45.59358" lon="5.73083">
        <ele>582.8</ele>
      </trkpt>
      <trkpt lat="45.59358" lon="5.73072">
        <ele>582.6</ele>
      </trkpt>
      <trkpt lat="45.59357" lon="5.73064">
        <ele>582.3</ele>
      </trkpt>
      <trkpt lat="45.59355" lon="5.73045">
        <ele>581.5</ele>
      </trkpt>
      <trkpt lat="45.59353" lon="5.73033">
        <ele>581</ele>
      </trkpt>
      <trkpt lat="45.59353" lon="5.7302">
        <ele>580.7</ele>
      </trkpt>
      <trkpt lat="45.59355" lon="5.73009">
        <ele>580.6</ele>
      </trkpt>
      <trkpt lat="45.59358" lon="5.7299">
        <ele>579.5</ele>
      </trkpt>
      <trkpt lat="45.59362" lon="5.72967">
        <ele>576.9</ele>
      </trkpt>
      <trkpt lat="45.59368" lon="5.72928">
        <ele>572.6</ele>
      </trkpt>
      <trkpt lat="45.59372" lon="5.72903">
        <ele>569.9</ele>
      </trkpt>
      <trkpt lat="45.59375" lon="5.72884">
        <ele>567.5</ele>
      </trkpt>
      <trkpt lat="45.59381" lon="5.72853">
        <ele>563.9</ele>
      </trkpt>
      <trkpt lat="45.5939" lon="5.72821">
        <ele>560.4</ele>
      </trkpt>
      <trkpt lat="45.59399" lon="5.72796">
        <ele>557.9</ele>
      </trkpt>
      <trkpt lat="45.5942" lon="5.72758">
        <ele>556.1</ele>
      </trkpt>
      <trkpt lat="45.59471" lon="5.72678">
        <ele>552.2</ele>
      </trkpt>
      <trkpt lat="45.59478" lon="5.72665">
        <ele>552.3</ele>
      </trkpt>
      <trkpt lat="45.59483" lon="5.72655">
        <ele>552.3</ele>
      </trkpt>
      <trkpt lat="45.59486" lon="5.72643">
        <ele>551.9</ele>
      </trkpt>
      <trkpt lat="45.59488" lon="5.72634">
        <ele>551.2</ele>
      </trkpt>
      <trkpt lat="45.59488" lon="5.72623">
        <ele>550.2</ele>
      </trkpt>
      <trkpt lat="45.59487" lon="5.72611">
        <ele>548.5</ele>
      </trkpt>
      <trkpt lat="45.59485" lon="5.72601">
        <ele>546.9</ele>
      </trkpt>
      <trkpt lat="45.59482" lon="5.72591">
        <ele>545</ele>
      </trkpt>
      <trkpt lat="45.59478" lon="5.72581">
        <ele>542.9</ele>
      </trkpt>
      <trkpt lat="45.59472" lon="5.72569">
        <ele>540.3</ele>
      </trkpt>
      <trkpt lat="45.59469" lon="5.72562">
        <ele>538.9</ele>
      </trkpt>
      <trkpt lat="45.59467" lon="5.72554">
        <ele>537.7</ele>
      </trkpt>
      <trkpt lat="45.59465" lon="5.72546">
        <ele>536.6</ele>
      </trkpt>
      <trkpt lat="45.59465" lon="5.72537">
        <ele>535.8</ele>
      </trkpt>
      <trkpt lat="45.59466" lon="5.72528">
        <ele>535.1</ele>
      </trkpt>
      <trkpt lat="45.59467" lon="5.72518">
        <ele>534.7</ele>
      </trkpt>
      <trkpt lat="45.5947" lon="5.72509">
        <ele>534.6</ele>
      </trkpt>
      <trkpt lat="45.59474" lon="5.72499">
        <ele>534.7</ele>
      </trkpt>
      <trkpt lat="45.59549" lon="5.72325">
        <ele>529.8</ele>
      </trkpt>
      <trkpt lat="45.59587" lon="5.72283">
        <ele>533.2</ele>
      </trkpt>
      <trkpt lat="45.59612" lon="5.72262">
        <ele>536.2</ele>
      </trkpt>
      <trkpt lat="45.59652" lon="5.72238">
        <ele>542</ele>
      </trkpt>
      <trkpt lat="45.59676" lon="5.72227">
        <ele>544.1</ele>
      </trkpt>
      <trkpt lat="45.59692" lon="5.72228">
        <ele>545.9</ele>
      </trkpt>
      <trkpt lat="45.59721" lon="5.72247">
        <ele>551.5</ele>
      </trkpt>
      <trkpt lat="45.5975" lon="5.72286">
        <ele>560</ele>
      </trkpt>
      <trkpt lat="45.59771" lon="5.72297">
        <ele>562.8</ele>
      </trkpt>
      <trkpt lat="45.59793" lon="5.72297">
        <ele>563.6</ele>
      </trkpt>
      <trkpt lat="45.59816" lon="5.72279">
        <ele>560.5</ele>
      </trkpt>
      <trkpt lat="45.59831" lon="5.7227">
        <ele>558.8</ele>
      </trkpt>
      <trkpt lat="45.59863" lon="5.72249">
        <ele>562.4</ele>
      </trkpt>
      <trkpt lat="45.59872" lon="5.72242">
        <ele>563.5</ele>
      </trkpt>
      <trkpt lat="45.59895" lon="5.72211">
        <ele>563</ele>
      </trkpt>
      <trkpt lat="45.59928" lon="5.72172">
        <ele>563.1</ele>
      </trkpt>
      <trkpt lat="45.59967" lon="5.72137">
        <ele>568.6</ele>
      </trkpt>
      <trkpt lat="45.6001" lon="5.72084">
        <ele>572.7</ele>
      </trkpt>
      <trkpt lat="45.60041" lon="5.7204">
        <ele>576.2</ele>
      </trkpt>
      <trkpt lat="45.60105" lon="5.71928">
        <ele>583.3</ele>
      </trkpt>
      <trkpt lat="45.60133" lon="5.71898">
        <ele>587.7</ele>
      </trkpt>
      <trkpt lat="45.60197" lon="5.71826">
        <ele>592</ele>
      </trkpt>
      <trkpt lat="45.602" lon="5.71824">
        <ele>592.3</ele>
      </trkpt>
      <trkpt lat="45.60234" lon="5.71787">
        <ele>596.2</ele>
      </trkpt>
      <trkpt lat="45.60251" lon="5.71749">
        <ele>595.2</ele>
      </trkpt>
      <trkpt lat="45.6027" lon="5.71703">
        <ele>596.4</ele>
      </trkpt>
      <trkpt lat="45.60304" lon="5.71666">
        <ele>601.6</ele>
      </trkpt>
      <trkpt lat="45.60331" lon="5.71633">
        <ele>604.9</ele>
      </trkpt>
      <trkpt lat="45.60359" lon="5.71583">
        <ele>602.8</ele>
      </trkpt>
      <trkpt lat="45.60395" lon="5.71519">
        <ele>600.4</ele>
      </trkpt>
      <trkpt lat="45.60421" lon="5.71454">
        <ele>593.9</ele>
      </trkpt>
      <trkpt lat="45.6043" lon="5.71446">
        <ele>593.6</ele>
      </trkpt>
      <trkpt lat="45.60442" lon="5.71431">
        <ele>593.1</ele>
      </trkpt>
      <trkpt lat="45.60452" lon="5.71411">
        <ele>592.3</ele>
      </trkpt>
      <trkpt lat="45.60454" lon="5.71396">
        <ele>591.9</ele>
      </trkpt>
      <trkpt lat="45.60455" lon="5.71343">
        <ele>589.6</ele>
      </trkpt>
      <trkpt lat="45.60463" lon="5.71298">
        <ele>586.6</ele>
      </trkpt>
      <trkpt lat="45.60471" lon="5.71275">
        <ele>586.1</ele>
      </trkpt>
      <trkpt lat="45.6049" lon="5.71258">
        <ele>589.1</ele>
      </trkpt>
      <trkpt lat="45.60501" lon="5.71243">
        <ele>590.8</ele>
      </trkpt>
      <trkpt lat="45.60511" lon="5.71212">
        <ele>590.7</ele>
      </trkpt>
      <trkpt lat="45.60517" lon="5.71207">
        <ele>591.4</ele>
      </trkpt>
      <trkpt lat="45.60539" lon="5.71202">
        <ele>594.9</ele>
      </trkpt>
      <trkpt lat="45.60566" lon="5.71194">
        <ele>599.3</ele>
      </trkpt>
      <trkpt lat="45.60611" lon="5.71165">
        <ele>606.3</ele>
      </trkpt>
      <trkpt lat="45.60633" lon="5.71156">
        <ele>610.2</ele>
      </trkpt>
      <trkpt lat="45.60658" lon="5.71141">
        <ele>614</ele>
      </trkpt>
      <trkpt lat="45.60692" lon="5.71138">
        <ele>617.5</ele>
      </trkpt>
      <trkpt lat="45.6071" lon="5.71128">
        <ele>618.3</ele>
      </trkpt>
      <trkpt lat="45.60751" lon="5.71104">
        <ele>619.9</ele>
      </trkpt>
      <trkpt lat="45.60776" lon="5.71083">
        <ele>623.2</ele>
      </trkpt>
      <trkpt lat="45.60787" lon="5.71054">
        <ele>623.3</ele>
      </trkpt>
      <trkpt lat="45.60813" lon="5.71007">
        <ele>622.9</ele>
      </trkpt>
      <trkpt lat="45.6085" lon="5.70938">
        <ele>619</ele>
      </trkpt>
      <trkpt lat="45.60874" lon="5.70908">
        <ele>617.4</ele>
      </trkpt>
      <trkpt lat="45.60899" lon="5.70878">
        <ele>615.4</ele>
      </trkpt>
      <trkpt lat="45.60925" lon="5.70861">
        <ele>617.1</ele>
      </trkpt>
      <trkpt lat="45.60947" lon="5.70835">
        <ele>618.4</ele>
      </trkpt>
      <trkpt lat="45.6097" lon="5.70805">
        <ele>620.1</ele>
      </trkpt>
      <trkpt lat="45.60992" lon="5.70781">
        <ele>622.7</ele>
      </trkpt>
      <trkpt lat="45.61019" lon="5.70749">
        <ele>623.3</ele>
      </trkpt>
      <trkpt lat="45.61042" lon="5.70736">
        <ele>625.3</ele>
      </trkpt>
      <trkpt lat="45.61062" lon="5.70708">
        <ele>624.1</ele>
      </trkpt>
      <trkpt lat="45.61086" lon="5.70681">
        <ele>623.9</ele>
      </trkpt>
      <trkpt lat="45.6113" lon="5.70614">
        <ele>620.9</ele>
      </trkpt>
      <trkpt lat="45.6117" lon="5.70563">
        <ele>622.5</ele>
      </trkpt>
      <trkpt lat="45.61198" lon="5.70526">
        <ele>622.3</ele>
      </trkpt>
      <trkpt lat="45.61205" lon="5.70517">
        <ele>622.2</ele>
      </trkpt>
      <trkpt lat="45.61211" lon="5.70488">
        <ele>619.4</ele>
      </trkpt>
      <trkpt lat="45.61222" lon="5.70441">
        <ele>615.2</ele>
      </trkpt>
      <trkpt lat="45.61244" lon="5.70339">
        <ele>606.4</ele>
      </trkpt>
      <trkpt lat="45.61264" lon="5.70331">
        <ele>608.8</ele>
      </trkpt>
      <trkpt lat="45.61273" lon="5.70317">
        <ele>608.3</ele>
      </trkpt>
      <trkpt lat="45.61344" lon="5.70092">
        <ele>609.1</ele>
      </trkpt>
      <trkpt lat="45.61349" lon="5.7008">
        <ele>609.5</ele>
      </trkpt>
      <trkpt lat="45.61351" lon="5.70077">
        <ele>609.8</ele>
      </trkpt>
      <trkpt lat="45.61369" lon="5.70081">
        <ele>613</ele>
      </trkpt>
      <trkpt lat="45.61387" lon="5.70087">
        <ele>616.1</ele>
      </trkpt>
      <trkpt lat="45.61405" lon="5.70086">
        <ele>619</ele>
      </trkpt>
      <trkpt lat="45.61423" lon="5.70087">
        <ele>621.9</ele>
      </trkpt>
      <trkpt lat="45.61446" lon="5.70086">
        <ele>624.9</ele>
      </trkpt>
      <trkpt lat="45.6149" lon="5.70081">
        <ele>630.7</ele>
      </trkpt>
      <trkpt lat="45.61509" lon="5.7008">
        <ele>633</ele>
      </trkpt>
      <trkpt lat="45.61527" lon="5.70079">
        <ele>635.1</ele>
      </trkpt>
      <trkpt lat="45.61562" lon="5.7009">
        <ele>639.6</ele>
      </trkpt>
      <trkpt lat="45.61594" lon="5.70099">
        <ele>643</ele>
      </trkpt>
      <trkpt lat="45.61604" lon="5.70101">
        <ele>643.7</ele>
      </trkpt>
      <trkpt lat="45.61613" lon="5.70121">
        <ele>645.1</ele>
      </trkpt>
      <trkpt lat="45.61624" lon="5.70159">
        <ele>648</ele>
      </trkpt>
      <trkpt lat="45.61639" lon="5.70197">
        <ele>654.1</ele>
      </trkpt>
      <trkpt lat="45.6169" lon="5.70209">
        <ele>663.6</ele>
      </trkpt>
      <trkpt lat="45.61709" lon="5.70206">
        <ele>666.5</ele>
      </trkpt>
      <trkpt lat="45.61754" lon="5.70212">
        <ele>675.3</ele>
      </trkpt>
      <trkpt lat="45.61786" lon="5.70244">
        <ele>685.3</ele>
      </trkpt>
      <trkpt lat="45.61805" lon="5.7026">
        <ele>691.1</ele>
      </trkpt>
      <trkpt lat="45.61827" lon="5.70265">
        <ele>695.2</ele>
      </trkpt>
      <trkpt lat="45.61847" lon="5.70266">
        <ele>697.9</ele>
      </trkpt>
      <trkpt lat="45.61874" lon="5.70247">
        <ele>697.4</ele>
      </trkpt>
      <trkpt lat="45.6191" lon="5.70242">
        <ele>701.8</ele>
      </trkpt>
      <trkpt lat="45.61928" lon="5.7025">
        <ele>704.8</ele>
      </trkpt>
      <trkpt lat="45.61933" lon="5.70248">
        <ele>704.9</ele>
      </trkpt>
      <trkpt lat="45.61942" lon="5.70272">
        <ele>709.3</ele>
      </trkpt>
      <trkpt lat="45.61964" lon="5.703">
        <ele>714.8</ele>
      </trkpt>
      <trkpt lat="45.61979" lon="5.70312">
        <ele>717.2</ele>
      </trkpt>
      <trkpt lat="45.62032" lon="5.70312">
        <ele>721</ele>
      </trkpt>
      <trkpt lat="45.62041" lon="5.70323">
        <ele>723.2</ele>
      </trkpt>
      <trkpt lat="45.62048" lon="5.70313">
        <ele>722.6</ele>
      </trkpt>
      <trkpt lat="45.62055" lon="5.70296">
        <ele>721.3</ele>
      </trkpt>
      <trkpt lat="45.6207" lon="5.70243">
        <ele>716.8</ele>
      </trkpt>
      <trkpt lat="45.62097" lon="5.70189">
        <ele>713.4</ele>
      </trkpt>
      <trkpt lat="45.62125" lon="5.70175">
        <ele>713.3</ele>
      </trkpt>
      <trkpt lat="45.62193" lon="5.70168">
        <ele>715.9</ele>
      </trkpt>
      <trkpt lat="45.62214" lon="5.7016">
        <ele>715.6</ele>
      </trkpt>
      <trkpt lat="45.62233" lon="5.70159">
        <ele>716.6</ele>
      </trkpt>
      <trkpt lat="45.62246" lon="5.70144">
        <ele>714.7</ele>
      </trkpt>
      <trkpt lat="45.62252" lon="5.70092">
        <ele>705.5</ele>
      </trkpt>
      <trkpt lat="45.62262" lon="5.70048">
        <ele>701.1</ele>
      </trkpt>
      <trkpt lat="45.62292" lon="5.69931">
        <ele>695.3</ele>
      </trkpt>
      <trkpt lat="45.62292" lon="5.69888">
        <ele>694.7</ele>
      </trkpt>
      <trkpt lat="45.62292" lon="5.69854">
        <ele>694.2</ele>
      </trkpt>
      <trkpt lat="45.62292" lon="5.69854">
        <ele>694.3</ele>
      </trkpt>
      <trkpt lat="45.62301" lon="5.69857">
        <ele>694.3</ele>
      </trkpt>
      <trkpt lat="45.62319" lon="5.69865">
        <ele>694.4</ele>
      </trkpt>
      <trkpt lat="45.62334" lon="5.69875">
        <ele>694.5</ele>
      </trkpt>
      <trkpt lat="45.62355" lon="5.69881">
        <ele>694.6</ele>
      </trkpt>
      <trkpt lat="45.62381" lon="5.69892">
        <ele>694.9</ele>
      </trkpt>
      <trkpt lat="45.62401" lon="5.69898">
        <ele>695.2</ele>
      </trkpt>
      <trkpt lat="45.6243" lon="5.69906">
        <ele>696.5</ele>
      </trkpt>
      <trkpt lat="45.62465" lon="5.69912">
        <ele>699.3</ele>
      </trkpt>
      <trkpt lat="45.6248" lon="5.69915">
        <ele>700.5</ele>
      </trkpt>
      <trkpt lat="45.62495" lon="5.69913">
        <ele>701.4</ele>
      </trkpt>
      <trkpt lat="45.62498" lon="5.69904">
        <ele>701.1</ele>
      </trkpt>
      <trkpt lat="45.625" lon="5.69892">
        <ele>700.5</ele>
      </trkpt>
      <trkpt lat="45.62519" lon="5.69871">
        <ele>699.5</ele>
      </trkpt>
      <trkpt lat="45.62526" lon="5.6986">
        <ele>698.9</ele>
      </trkpt>
      <trkpt lat="45.6254" lon="5.69835">
        <ele>697.6</ele>
      </trkpt>
      <trkpt lat="45.62586" lon="5.69805">
        <ele>696.8</ele>
      </trkpt>
      <trkpt lat="45.62606" lon="5.69786">
        <ele>697.4</ele>
      </trkpt>
      <trkpt lat="45.6262" lon="5.69789">
        <ele>698.5</ele>
      </trkpt>
      <trkpt lat="45.62654" lon="5.69797">
        <ele>701.3</ele>
      </trkpt>
      <trkpt lat="45.62676" lon="5.69804">
        <ele>703.6</ele>
      </trkpt>
      <trkpt lat="45.62706" lon="5.69817">
        <ele>707.4</ele>
      </trkpt>
      <trkpt lat="45.62727" lon="5.69807">
        <ele>709.3</ele>
      </trkpt>
      <trkpt lat="45.62728" lon="5.69771">
        <ele>707.6</ele>
      </trkpt>
      <trkpt lat="45.62745" lon="5.69761">
        <ele>709</ele>
      </trkpt>
      <trkpt lat="45.62761" lon="5.69756">
        <ele>709.7</ele>
      </trkpt>
      <trkpt lat="45.62791" lon="5.6975">
        <ele>710.5</ele>
      </trkpt>
      <trkpt lat="45.62812" lon="5.69746">
        <ele>711.1</ele>
      </trkpt>
      <trkpt lat="45.62844" lon="5.69738">
        <ele>712</ele>
      </trkpt>
      <trkpt lat="45.62851" lon="5.69735">
        <ele>712.2</ele>
      </trkpt>
      <trkpt lat="45.62871" lon="5.69748">
        <ele>713.7</ele>
      </trkpt>
      <trkpt lat="45.62905" lon="5.69733">
        <ele>714.5</ele>
      </trkpt>
      <trkpt lat="45.6291" lon="5.69743">
        <ele>715.3</ele>
      </trkpt>
      <trkpt lat="45.62918" lon="5.69749">
        <ele>715.9</ele>
      </trkpt>
      <trkpt lat="45.62931" lon="5.69754">
        <ele>716.3</ele>
      </trkpt>
      <trkpt lat="45.62944" lon="5.69758">
        <ele>716.6</ele>
      </trkpt>
      <trkpt lat="45.62953" lon="5.69761">
        <ele>717</ele>
      </trkpt>
      <trkpt lat="45.62963" lon="5.69765">
        <ele>717.5</ele>
      </trkpt>
      <trkpt lat="45.62969" lon="5.69771">
        <ele>718.2</ele>
      </trkpt>
      <trkpt lat="45.62973" lon="5.69788">
        <ele>719.7</ele>
      </trkpt>
      <trkpt lat="45.6298" lon="5.69804">
        <ele>721.6</ele>
      </trkpt>
      <trkpt lat="45.62987" lon="5.69812">
        <ele>723.1</ele>
      </trkpt>
      <trkpt lat="45.62999" lon="5.69822">
        <ele>725.5</ele>
      </trkpt>
      <trkpt lat="45.63005" lon="5.6983">
        <ele>727</ele>
      </trkpt>
      <trkpt lat="45.63007" lon="5.69843">
        <ele>727.5</ele>
      </trkpt>
      <trkpt lat="45.63009" lon="5.69859">
        <ele>727.6</ele>
      </trkpt>
      <trkpt lat="45.63015" lon="5.69876">
        <ele>728.3</ele>
      </trkpt>
      <trkpt lat="45.63021" lon="5.69889">
        <ele>729.1</ele>
      </trkpt>
      <trkpt lat="45.63027" lon="5.69905">
        <ele>730</ele>
      </trkpt>
      <trkpt lat="45.63029" lon="5.69915">
        <ele>730.6</ele>
      </trkpt>
      <trkpt lat="45.63044" lon="5.69932">
        <ele>732.4</ele>
      </trkpt>
      <trkpt lat="45.6305" lon="5.69938">
        <ele>732.9</ele>
      </trkpt>
      <trkpt lat="45.63058" lon="5.69944">
        <ele>733.9</ele>
      </trkpt>
      <trkpt lat="45.63069" lon="5.69951">
        <ele>735.3</ele>
      </trkpt>
      <trkpt lat="45.63081" lon="5.69958">
        <ele>736.7</ele>
      </trkpt>
      <trkpt lat="45.63105" lon="5.69967">
        <ele>739.1</ele>
      </trkpt>
      <trkpt lat="45.63134" lon="5.69982">
        <ele>741.2</ele>
      </trkpt>
      <trkpt lat="45.63146" lon="5.69996">
        <ele>741.4</ele>
      </trkpt>
      <trkpt lat="45.63157" lon="5.70011">
        <ele>742.6</ele>
      </trkpt>
      <trkpt lat="45.63173" lon="5.70037">
        <ele>745</ele>
      </trkpt>
      <trkpt lat="45.63189" lon="5.70054">
        <ele>745.8</ele>
      </trkpt>
      <trkpt lat="45.63201" lon="5.70067">
        <ele>745.9</ele>
      </trkpt>
      <trkpt lat="45.63209" lon="5.70071">
        <ele>745.7</ele>
      </trkpt>
      <trkpt lat="45.63219" lon="5.70075">
        <ele>745.4</ele>
      </trkpt>
      <trkpt lat="45.6323" lon="5.70076">
        <ele>745.1</ele>
      </trkpt>
      <trkpt lat="45.63237" lon="5.70075">
        <ele>745</ele>
      </trkpt>
      <trkpt lat="45.63245" lon="5.70073">
        <ele>745</ele>
      </trkpt>
      <trkpt lat="45.63257" lon="5.70069">
        <ele>746.1</ele>
      </trkpt>
      <trkpt lat="45.6327" lon="5.70069">
        <ele>747.7</ele>
      </trkpt>
      <trkpt lat="45.63303" lon="5.70071">
        <ele>751.7</ele>
      </trkpt>
      <trkpt lat="45.6332" lon="5.70074">
        <ele>753.7</ele>
      </trkpt>
      <trkpt lat="45.63338" lon="5.70077">
        <ele>755.7</ele>
      </trkpt>
      <trkpt lat="45.63353" lon="5.70082">
        <ele>757.3</ele>
      </trkpt>
      <trkpt lat="45.63361" lon="5.70092">
        <ele>759.3</ele>
      </trkpt>
      <trkpt lat="45.63365" lon="5.70101">
        <ele>760.6</ele>
      </trkpt>
      <trkpt lat="45.63369" lon="5.70105">
        <ele>761.4</ele>
      </trkpt>
      <trkpt lat="45.63373" lon="5.70107">
        <ele>762.1</ele>
      </trkpt>
      <trkpt lat="45.6339" lon="5.70134">
        <ele>766</ele>
      </trkpt>
      <trkpt lat="45.63404" lon="5.70154">
        <ele>768.4</ele>
      </trkpt>
      <trkpt lat="45.63413" lon="5.70163">
        <ele>769.6</ele>
      </trkpt>
      <trkpt lat="45.6343" lon="5.70167">
        <ele>770.9</ele>
      </trkpt>
      <trkpt lat="45.63444" lon="5.70184">
        <ele>773.1</ele>
      </trkpt>
      <trkpt lat="45.6346" lon="5.70201">
        <ele>775.5</ele>
      </trkpt>
      <trkpt lat="45.63476" lon="5.70223">
        <ele>778.3</ele>
      </trkpt>
      <trkpt lat="45.63493" lon="5.70224">
        <ele>779.4</ele>
      </trkpt>
      <trkpt lat="45.63507" lon="5.70221">
        <ele>780</ele>
      </trkpt>
      <trkpt lat="45.63519" lon="5.70255">
        <ele>783.6</ele>
      </trkpt>
      <trkpt lat="45.63527" lon="5.70277">
        <ele>785.7</ele>
      </trkpt>
      <trkpt lat="45.63533" lon="5.70291">
        <ele>786.8</ele>
      </trkpt>
      <trkpt lat="45.6354" lon="5.70297">
        <ele>787.3</ele>
      </trkpt>
      <trkpt lat="45.63557" lon="5.70281">
        <ele>786.7</ele>
      </trkpt>
      <trkpt lat="45.6357" lon="5.70281">
        <ele>787</ele>
      </trkpt>
      <trkpt lat="45.63582" lon="5.70279">
        <ele>787.3</ele>
      </trkpt>
      <trkpt lat="45.63595" lon="5.70281">
        <ele>788.6</ele>
      </trkpt>
      <trkpt lat="45.63615" lon="5.70284">
        <ele>790.8</ele>
      </trkpt>
      <trkpt lat="45.63625" lon="5.70282">
        <ele>791.8</ele>
      </trkpt>
      <trkpt lat="45.63645" lon="5.7027">
        <ele>794.1</ele>
      </trkpt>
      <trkpt lat="45.63663" lon="5.70259">
        <ele>796.4</ele>
      </trkpt>
      <trkpt lat="45.63694" lon="5.70244">
        <ele>800.4</ele>
      </trkpt>
      <trkpt lat="45.63711" lon="5.70225">
        <ele>801.7</ele>
      </trkpt>
      <trkpt lat="45.63714" lon="5.70204">
        <ele>801.2</ele>
      </trkpt>
      <trkpt lat="45.63714" lon="5.70196">
        <ele>800.9</ele>
      </trkpt>
      <trkpt lat="45.63726" lon="5.70206">
        <ele>802.6</ele>
      </trkpt>
      <trkpt lat="45.63739" lon="5.70215">
        <ele>804.6</ele>
      </trkpt>
      <trkpt lat="45.63759" lon="5.70229">
        <ele>807.4</ele>
      </trkpt>
      <trkpt lat="45.63769" lon="5.70232">
        <ele>808.4</ele>
      </trkpt>
      <trkpt lat="45.63787" lon="5.70221">
        <ele>809.1</ele>
      </trkpt>
      <trkpt lat="45.63805" lon="5.7022">
        <ele>810.3</ele>
      </trkpt>
      <trkpt lat="45.63832" lon="5.70223">
        <ele>812.6</ele>
      </trkpt>
      <trkpt lat="45.63852" lon="5.70238">
        <ele>814.7</ele>
      </trkpt>
      <trkpt lat="45.63863" lon="5.7028">
        <ele>817.5</ele>
      </trkpt>
      <trkpt lat="45.63877" lon="5.70305">
        <ele>819.5</ele>
      </trkpt>
      <trkpt lat="45.63884" lon="5.70317">
        <ele>820.5</ele>
      </trkpt>
      <trkpt lat="45.63893" lon="5.70338">
        <ele>822.3</ele>
      </trkpt>
      <trkpt lat="45.63907" lon="5.70349">
        <ele>824.5</ele>
      </trkpt>
      <trkpt lat="45.63912" lon="5.70354">
        <ele>825.6</ele>
      </trkpt>
      <trkpt lat="45.63915" lon="5.70358">
        <ele>826.2</ele>
      </trkpt>
      <trkpt lat="45.6394" lon="5.70306">
        <ele>821.7</ele>
      </trkpt>
      <trkpt lat="45.6394" lon="5.70306">
        <ele>821.7</ele>
      </trkpt>
      <trkpt lat="45.64033" lon="5.70268">
        <ele>813.8</ele>
      </trkpt>
      <trkpt lat="45.64033" lon="5.70268">
        <ele>813.8</ele>
      </trkpt>
      <trkpt lat="45.64039" lon="5.70324">
        <ele>821.2</ele>
      </trkpt>
      <trkpt lat="45.64039" lon="5.70324">
        <ele>821.2</ele>
      </trkpt>
      <trkpt lat="45.64123" lon="5.70384">
        <ele>832.7</ele>
      </trkpt>
      <trkpt lat="45.64123" lon="5.70384">
        <ele>832.7</ele>
      </trkpt>
      <trkpt lat="45.64201" lon="5.70375">
        <ele>826.9</ele>
      </trkpt>
      <trkpt lat="45.64201" lon="5.70375">
        <ele>826.9</ele>
      </trkpt>
      <trkpt lat="45.64228" lon="5.70508">
        <ele>843.3</ele>
      </trkpt>
      <trkpt lat="45.64228" lon="5.70508">
        <ele>843.3</ele>
      </trkpt>
      <trkpt lat="45.64242" lon="5.70544">
        <ele>843</ele>
      </trkpt>
      <trkpt lat="45.64248" lon="5.7055">
        <ele>842.9</ele>
      </trkpt>
      <trkpt lat="45.64257" lon="5.70549">
        <ele>841.5</ele>
      </trkpt>
      <trkpt lat="45.6426" lon="5.70544">
        <ele>840.5</ele>
      </trkpt>
      <trkpt lat="45.64271" lon="5.70561">
        <ele>840.6</ele>
      </trkpt>
      <trkpt lat="45.64272" lon="5.70576">
        <ele>842.7</ele>
      </trkpt>
      <trkpt lat="45.64283" lon="5.7059">
        <ele>844.3</ele>
      </trkpt>
      <trkpt lat="45.64288" lon="5.70618">
        <ele>847.4</ele>
      </trkpt>
      <trkpt lat="45.64284" lon="5.70622">
        <ele>847.7</ele>
      </trkpt>
      <trkpt lat="45.64323" lon="5.70644">
        <ele>851.5</ele>
      </trkpt>
      <trkpt lat="45.64345" lon="5.70672">
        <ele>852.6</ele>
      </trkpt>
      <trkpt lat="45.64365" lon="5.70683">
        <ele>848.5</ele>
      </trkpt>
      <trkpt lat="45.64379" lon="5.70683">
        <ele>846.7</ele>
      </trkpt>
      <trkpt lat="45.64382" lon="5.70679">
        <ele>846.3</ele>
      </trkpt>
      <trkpt lat="45.64404" lon="5.70677">
        <ele>843.1</ele>
      </trkpt>
      <trkpt lat="45.6441" lon="5.70689">
        <ele>842.4</ele>
      </trkpt>
      <trkpt lat="45.64419" lon="5.70701">
        <ele>841.6</ele>
      </trkpt>
      <trkpt lat="45.64441" lon="5.70744">
        <ele>841.8</ele>
      </trkpt>
      <trkpt lat="45.64461" lon="5.70721">
        <ele>838.9</ele>
      </trkpt>
      <trkpt lat="45.64472" lon="5.70717">
        <ele>837.6</ele>
      </trkpt>
      <trkpt lat="45.64474" lon="5.70716">
        <ele>837.3</ele>
      </trkpt>
      <trkpt lat="45.64473" lon="5.70713">
        <ele>837.1</ele>
      </trkpt>
      <trkpt lat="45.645" lon="5.70712">
        <ele>834.6</ele>
      </trkpt>
      <trkpt lat="45.64507" lon="5.70708">
        <ele>833.3</ele>
      </trkpt>
      <trkpt lat="45.64541" lon="5.70691">
        <ele>827.3</ele>
      </trkpt>
      <trkpt lat="45.64541" lon="5.70672">
        <ele>824.8</ele>
      </trkpt>
      <trkpt lat="45.64538" lon="5.70664">
        <ele>823.8</ele>
      </trkpt>
      <trkpt lat="45.64534" lon="5.7066">
        <ele>823.1</ele>
      </trkpt>
      <trkpt lat="45.64531" lon="5.70653">
        <ele>821.6</ele>
      </trkpt>
      <trkpt lat="45.64526" lon="5.70648">
        <ele>821</ele>
      </trkpt>
      <trkpt lat="45.64524" lon="5.70643">
        <ele>819.8</ele>
      </trkpt>
      <trkpt lat="45.64523" lon="5.70631">
        <ele>817.1</ele>
      </trkpt>
      <trkpt lat="45.6452" lon="5.70625">
        <ele>815.8</ele>
      </trkpt>
      <trkpt lat="45.64518" lon="5.70621">
        <ele>815</ele>
      </trkpt>
      <trkpt lat="45.64513" lon="5.70606">
        <ele>811.4</ele>
      </trkpt>
      <trkpt lat="45.6451" lon="5.70592">
        <ele>807.9</ele>
      </trkpt>
      <trkpt lat="45.6451" lon="5.70584">
        <ele>805.9</ele>
      </trkpt>
      <trkpt lat="45.64512" lon="5.70578">
        <ele>803.3</ele>
      </trkpt>
      <trkpt lat="45.64514" lon="5.70572">
        <ele>800.9</ele>
      </trkpt>
      <trkpt lat="45.64515" lon="5.70569">
        <ele>799.2</ele>
      </trkpt>
      <trkpt lat="45.64518" lon="5.70562">
        <ele>796</ele>
      </trkpt>
      <trkpt lat="45.64525" lon="5.70547">
        <ele>789.4</ele>
      </trkpt>
      <trkpt lat="45.64525" lon="5.70545">
        <ele>788.7</ele>
      </trkpt>
      <trkpt lat="45.64532" lon="5.70538">
        <ele>785.6</ele>
      </trkpt>
      <trkpt lat="45.64543" lon="5.70531">
        <ele>782.2</ele>
      </trkpt>
      <trkpt lat="45.6455" lon="5.70529">
        <ele>781.4</ele>
      </trkpt>
      <trkpt lat="45.64567" lon="5.70518">
        <ele>776.8</ele>
      </trkpt>
      <trkpt lat="45.64576" lon="5.70515">
        <ele>775.4</ele>
      </trkpt>
      <trkpt lat="45.64581" lon="5.70515">
        <ele>775.4</ele>
      </trkpt>
      <trkpt lat="45.64591" lon="5.70508">
        <ele>770.3</ele>
      </trkpt>
      <trkpt lat="45.6463" lon="5.70493">
        <ele>755.5</ele>
      </trkpt>
      <trkpt lat="45.64641" lon="5.70479">
        <ele>748.5</ele>
      </trkpt>
      <trkpt lat="45.64646" lon="5.70476">
        <ele>746.4</ele>
      </trkpt>
      <trkpt lat="45.64647" lon="5.70474">
        <ele>745.6</ele>
      </trkpt>
      <trkpt lat="45.64651" lon="5.70468">
        <ele>742.9</ele>
      </trkpt>
      <trkpt lat="45.64666" lon="5.70459">
        <ele>738.4</ele>
      </trkpt>
      <trkpt lat="45.64678" lon="5.70459">
        <ele>735.4</ele>
      </trkpt>
      <trkpt lat="45.64688" lon="5.70464">
        <ele>734.7</ele>
      </trkpt>
      <trkpt lat="45.64692" lon="5.70471">
        <ele>735.4</ele>
      </trkpt>
      <trkpt lat="45.64697" lon="5.70474">
        <ele>734.9</ele>
      </trkpt>
      <trkpt lat="45.64705" lon="5.7048">
        <ele>734.2</ele>
      </trkpt>
      <trkpt lat="45.64724" lon="5.70497">
        <ele>732.8</ele>
      </trkpt>
      <trkpt lat="45.6473" lon="5.705">
        <ele>731.7</ele>
      </trkpt>
      <trkpt lat="45.64734" lon="5.70508">
        <ele>732.4</ele>
      </trkpt>
      <trkpt lat="45.64735" lon="5.70508">
        <ele>732.1</ele>
      </trkpt>
      <trkpt lat="45.64739" lon="5.70512">
        <ele>731.9</ele>
      </trkpt>
      <trkpt lat="45.64744" lon="5.70517">
        <ele>731.4</ele>
      </trkpt>
      <trkpt lat="45.6476" lon="5.70523">
        <ele>729.1</ele>
      </trkpt>
      <trkpt lat="45.64782" lon="5.70536">
        <ele>728</ele>
      </trkpt>
      <trkpt lat="45.64811" lon="5.70534">
        <ele>723</ele>
      </trkpt>
      <trkpt lat="45.64829" lon="5.70532">
        <ele>719.9</ele>
      </trkpt>
      <trkpt lat="45.64856" lon="5.70517">
        <ele>712.5</ele>
      </trkpt>
      <trkpt lat="45.64873" lon="5.70509">
        <ele>707.6</ele>
      </trkpt>
      <trkpt lat="45.64883" lon="5.70506">
        <ele>704.9</ele>
      </trkpt>
      <trkpt lat="45.64892" lon="5.7051">
        <ele>703.7</ele>
      </trkpt>
      <trkpt lat="45.64901" lon="5.70519">
        <ele>703.7</ele>
      </trkpt>
      <trkpt lat="45.64917" lon="5.70538">
        <ele>705</ele>
      </trkpt>
      <trkpt lat="45.64927" lon="5.70541">
        <ele>702.4</ele>
      </trkpt>
      <trkpt lat="45.64942" lon="5.70551">
        <ele>701</ele>
      </trkpt>
      <trkpt lat="45.6496" lon="5.70563">
        <ele>700.9</ele>
      </trkpt>
      <trkpt lat="45.64971" lon="5.70564">
        <ele>699.1</ele>
      </trkpt>
      <trkpt lat="45.64978" lon="5.70569">
        <ele>699.6</ele>
      </trkpt>
      <trkpt lat="45.65007" lon="5.70585">
        <ele>702.9</ele>
      </trkpt>
      <trkpt lat="45.65033" lon="5.70593">
        <ele>699.4</ele>
      </trkpt>
      <trkpt lat="45.65047" lon="5.70601">
        <ele>698.5</ele>
      </trkpt>
      <trkpt lat="45.6507" lon="5.70618">
        <ele>698.4</ele>
      </trkpt>
      <trkpt lat="45.65076" lon="5.70622">
        <ele>698.5</ele>
      </trkpt>
      <trkpt lat="45.65094" lon="5.70636">
        <ele>699.5</ele>
      </trkpt>
      <trkpt lat="45.65102" lon="5.70634">
        <ele>697.6</ele>
      </trkpt>
      <trkpt lat="45.65116" lon="5.70636">
        <ele>695.8</ele>
      </trkpt>
      <trkpt lat="45.65118" lon="5.70638">
        <ele>696.1</ele>
      </trkpt>
      <trkpt lat="45.6512" lon="5.7064">
        <ele>696.3</ele>
      </trkpt>
      <trkpt lat="45.65123" lon="5.70642">
        <ele>696.2</ele>
      </trkpt>
      <trkpt lat="45.65128" lon="5.70643">
        <ele>695.4</ele>
      </trkpt>
      <trkpt lat="45.65142" lon="5.70641">
        <ele>692.5</ele>
      </trkpt>
      <trkpt lat="45.6515" lon="5.7064">
        <ele>691</ele>
      </trkpt>
      <trkpt lat="45.65158" lon="5.70642">
        <ele>689.9</ele>
      </trkpt>
      <trkpt lat="45.6516" lon="5.70643">
        <ele>689.8</ele>
      </trkpt>
      <trkpt lat="45.65163" lon="5.70645">
        <ele>689.8</ele>
      </trkpt>
      <trkpt lat="45.65173" lon="5.70646">
        <ele>688.1</ele>
      </trkpt>
      <trkpt lat="45.65176" lon="5.70645">
        <ele>687.4</ele>
      </trkpt>
      <trkpt lat="45.65181" lon="5.70649">
        <ele>687.5</ele>
      </trkpt>
      <trkpt lat="45.65195" lon="5.70655">
        <ele>686.8</ele>
      </trkpt>
      <trkpt lat="45.65198" lon="5.70657">
        <ele>686.6</ele>
      </trkpt>
      <trkpt lat="45.65203" lon="5.70658">
        <ele>686.1</ele>
      </trkpt>
      <trkpt lat="45.6521" lon="5.70659">
        <ele>685.4</ele>
      </trkpt>
      <trkpt lat="45.6522" lon="5.70662">
        <ele>684.7</ele>
      </trkpt>
      <trkpt lat="45.65227" lon="5.70663">
        <ele>684.1</ele>
      </trkpt>
      <trkpt lat="45.65233" lon="5.70664">
        <ele>683.7</ele>
      </trkpt>
      <trkpt lat="45.6524" lon="5.70667">
        <ele>683.6</ele>
      </trkpt>
      <trkpt lat="45.65244" lon="5.7067">
        <ele>683.6</ele>
      </trkpt>
      <trkpt lat="45.6525" lon="5.70674">
        <ele>683.4</ele>
      </trkpt>
      <trkpt lat="45.65256" lon="5.7068">
        <ele>683.7</ele>
      </trkpt>
      <trkpt lat="45.65268" lon="5.70687">
        <ele>683.3</ele>
      </trkpt>
      <trkpt lat="45.65272" lon="5.70691">
        <ele>683.3</ele>
      </trkpt>
      <trkpt lat="45.65278" lon="5.70695">
        <ele>683.2</ele>
      </trkpt>
      <trkpt lat="45.65292" lon="5.70701">
        <ele>682.4</ele>
      </trkpt>
      <trkpt lat="45.6531" lon="5.70714">
        <ele>682.3</ele>
      </trkpt>
      <trkpt lat="45.65322" lon="5.70719">
        <ele>681.5</ele>
      </trkpt>
      <trkpt lat="45.65333" lon="5.7072">
        <ele>679.9</ele>
      </trkpt>
      <trkpt lat="45.65344" lon="5.70716">
        <ele>677.8</ele>
      </trkpt>
      <trkpt lat="45.65349" lon="5.70713">
        <ele>676.5</ele>
      </trkpt>
      <trkpt lat="45.65364" lon="5.7071">
        <ele>674</ele>
      </trkpt>
      <trkpt lat="45.65379" lon="5.70707">
        <ele>671.6</ele>
      </trkpt>
      <trkpt lat="45.65383" lon="5.70704">
        <ele>670.2</ele>
      </trkpt>
      <trkpt lat="45.65388" lon="5.70703">
        <ele>669.3</ele>
      </trkpt>
      <trkpt lat="45.65392" lon="5.70703">
        <ele>668.6</ele>
      </trkpt>
      <trkpt lat="45.65398" lon="5.70705">
        <ele>668.4</ele>
      </trkpt>
      <trkpt lat="45.65404" lon="5.70705">
        <ele>667.7</ele>
      </trkpt>
      <trkpt lat="45.65409" lon="5.70708">
        <ele>667.9</ele>
      </trkpt>
      <trkpt lat="45.65416" lon="5.70709">
        <ele>667.3</ele>
      </trkpt>
      <trkpt lat="45.65425" lon="5.70709">
        <ele>666</ele>
      </trkpt>
      <trkpt lat="45.65453" lon="5.70716">
        <ele>663.8</ele>
      </trkpt>
      <trkpt lat="45.6548" lon="5.70719">
        <ele>660.7</ele>
      </trkpt>
      <trkpt lat="45.65516" lon="5.70739">
        <ele>661.4</ele>
      </trkpt>
      <trkpt lat="45.65542" lon="5.70747">
        <ele>659.8</ele>
      </trkpt>
      <trkpt lat="45.65563" lon="5.70759">
        <ele>660.1</ele>
      </trkpt>
      <trkpt lat="45.65587" lon="5.70775">
        <ele>659.8</ele>
      </trkpt>
      <trkpt lat="45.65596" lon="5.70776">
        <ele>659.1</ele>
      </trkpt>
      <trkpt lat="45.65604" lon="5.70779">
        <ele>658.7</ele>
      </trkpt>
      <trkpt lat="45.6561" lon="5.70783">
        <ele>658.5</ele>
      </trkpt>
      <trkpt lat="45.65614" lon="5.70787">
        <ele>658.7</ele>
      </trkpt>
      <trkpt lat="45.65619" lon="5.7079">
        <ele>658.5</ele>
      </trkpt>
      <trkpt lat="45.65627" lon="5.70798">
        <ele>658.7</ele>
      </trkpt>
      <trkpt lat="45.65651" lon="5.70818">
        <ele>657.3</ele>
      </trkpt>
      <trkpt lat="45.65672" lon="5.70825">
        <ele>654.9</ele>
      </trkpt>
      <trkpt lat="45.6568" lon="5.70829">
        <ele>654.6</ele>
      </trkpt>
      <trkpt lat="45.65704" lon="5.70851">
        <ele>655.1</ele>
      </trkpt>
      <trkpt lat="45.65716" lon="5.70871">
        <ele>655.8</ele>
      </trkpt>
      <trkpt lat="45.65741" lon="5.70902">
        <ele>654.7</ele>
      </trkpt>
      <trkpt lat="45.65763" lon="5.70916">
        <ele>653.7</ele>
      </trkpt>
      <trkpt lat="45.65778" lon="5.70917">
        <ele>653.3</ele>
      </trkpt>
      <trkpt lat="45.65793" lon="5.70929">
        <ele>653.2</ele>
      </trkpt>
      <trkpt lat="45.65802" lon="5.70942">
        <ele>652.8</ele>
      </trkpt>
      <trkpt lat="45.65806" lon="5.7096">
        <ele>652.4</ele>
      </trkpt>
      <trkpt lat="45.65829" lon="5.70973">
        <ele>649.7</ele>
      </trkpt>
      <trkpt lat="45.65836" lon="5.70986">
        <ele>648.4</ele>
      </trkpt>
      <trkpt lat="45.65846" lon="5.7104">
        <ele>647.4</ele>
      </trkpt>
      <trkpt lat="45.65845" lon="5.71047">
        <ele>647.6</ele>
      </trkpt>
      <trkpt lat="45.65856" lon="5.71066">
        <ele>647</ele>
      </trkpt>
      <trkpt lat="45.65862" lon="5.71089">
        <ele>647.2</ele>
      </trkpt>
      <trkpt lat="45.65862" lon="5.71102">
        <ele>648</ele>
      </trkpt>
      <trkpt lat="45.65866" lon="5.71116">
        <ele>648.5</ele>
      </trkpt>
      <trkpt lat="45.65867" lon="5.71126">
        <ele>649</ele>
      </trkpt>
      <trkpt lat="45.65867" lon="5.71131">
        <ele>649.2</ele>
      </trkpt>
      <trkpt lat="45.65867" lon="5.71136">
        <ele>649.4</ele>
      </trkpt>
      <trkpt lat="45.65873" lon="5.71151">
        <ele>649.5</ele>
      </trkpt>
      <trkpt lat="45.65875" lon="5.71156">
        <ele>649.5</ele>
      </trkpt>
      <trkpt lat="45.65881" lon="5.71166">
        <ele>649.1</ele>
      </trkpt>
      <trkpt lat="45.65906" lon="5.71242">
        <ele>651.7</ele>
      </trkpt>
      <trkpt lat="45.6591" lon="5.71251">
        <ele>652</ele>
      </trkpt>
      <trkpt lat="45.65917" lon="5.7126">
        <ele>651.5</ele>
      </trkpt>
      <trkpt lat="45.65932" lon="5.71275">
        <ele>650.3</ele>
      </trkpt>
      <trkpt lat="45.6597" lon="5.71332">
        <ele>647.3</ele>
      </trkpt>
      <trkpt lat="45.66001" lon="5.71397">
        <ele>644.4</ele>
      </trkpt>
      <trkpt lat="45.66016" lon="5.7142">
        <ele>643.6</ele>
      </trkpt>
      <trkpt lat="45.66039" lon="5.71455">
        <ele>644</ele>
      </trkpt>
      <trkpt lat="45.66069" lon="5.71485">
        <ele>642.3</ele>
      </trkpt>
      <trkpt lat="45.66089" lon="5.71492">
        <ele>640.1</ele>
      </trkpt>
      <trkpt lat="45.66119" lon="5.7147">
        <ele>636.5</ele>
      </trkpt>
      <trkpt lat="45.66125" lon="5.71472">
        <ele>636.1</ele>
      </trkpt>
      <trkpt lat="45.66154" lon="5.71478">
        <ele>634.2</ele>
      </trkpt>
      <trkpt lat="45.66184" lon="5.71487">
        <ele>630.8</ele>
      </trkpt>
      <trkpt lat="45.66202" lon="5.71495">
        <ele>628.3</ele>
      </trkpt>
      <trkpt lat="45.66217" lon="5.71507">
        <ele>626.2</ele>
      </trkpt>
      <trkpt lat="45.66228" lon="5.71511">
        <ele>624.5</ele>
      </trkpt>
      <trkpt lat="45.66233" lon="5.71508">
        <ele>623.7</ele>
      </trkpt>
      <trkpt lat="45.66242" lon="5.71504">
        <ele>622.2</ele>
      </trkpt>
      <trkpt lat="45.66248" lon="5.71504">
        <ele>621.2</ele>
      </trkpt>
      <trkpt lat="45.66274" lon="5.71518">
        <ele>616.2</ele>
      </trkpt>
      <trkpt lat="45.66306" lon="5.71562">
        <ele>610.1</ele>
      </trkpt>
      <trkpt lat="45.66321" lon="5.71615">
        <ele>607.7</ele>
      </trkpt>
      <trkpt lat="45.6635" lon="5.7167">
        <ele>603.5</ele>
      </trkpt>
      <trkpt lat="45.66385" lon="5.71703">
        <ele>596.6</ele>
      </trkpt>
      <trkpt lat="45.66428" lon="5.71729">
        <ele>588.3</ele>
      </trkpt>
      <trkpt lat="45.66455" lon="5.7174">
        <ele>586.1</ele>
      </trkpt>
      <trkpt lat="45.66497" lon="5.71776">
        <ele>581</ele>
      </trkpt>
      <trkpt lat="45.665" lon="5.71777">
        <ele>580.7</ele>
      </trkpt>
      <trkpt lat="45.66511" lon="5.71779">
        <ele>580</ele>
      </trkpt>
      <trkpt lat="45.66529" lon="5.7179">
        <ele>578.4</ele>
      </trkpt>
      <trkpt lat="45.66562" lon="5.71797">
        <ele>576.6</ele>
      </trkpt>
      <trkpt lat="45.66589" lon="5.71787">
        <ele>575.8</ele>
      </trkpt>
      <trkpt lat="45.66619" lon="5.71788">
        <ele>573.6</ele>
      </trkpt>
      <trkpt lat="45.66659" lon="5.71796">
        <ele>570.5</ele>
      </trkpt>
      <trkpt lat="45.66675" lon="5.718">
        <ele>569.5</ele>
      </trkpt>
      <trkpt lat="45.66681" lon="5.71797">
        <ele>569.3</ele>
      </trkpt>
      <trkpt lat="45.66688" lon="5.71782">
        <ele>569.9</ele>
      </trkpt>
      <trkpt lat="45.66708" lon="5.71778">
        <ele>569.8</ele>
      </trkpt>
      <trkpt lat="45.66724" lon="5.71786">
        <ele>568.8</ele>
      </trkpt>
      <trkpt lat="45.6676" lon="5.71772">
        <ele>571.1</ele>
      </trkpt>
      <trkpt lat="45.66777" lon="5.71782">
        <ele>571.5</ele>
      </trkpt>
      <trkpt lat="45.66804" lon="5.71814">
        <ele>571.1</ele>
      </trkpt>
      <trkpt lat="45.66876" lon="5.71852">
        <ele>571.1</ele>
      </trkpt>
      <trkpt lat="45.66903" lon="5.71848">
        <ele>571.3</ele>
      </trkpt>
      <trkpt lat="45.66947" lon="5.71832">
        <ele>570.9</ele>
      </trkpt>
      <trkpt lat="45.67025" lon="5.71828">
        <ele>566.4</ele>
      </trkpt>
      <trkpt lat="45.67045" lon="5.71839">
        <ele>566.7</ele>
      </trkpt>
      <trkpt lat="45.67066" lon="5.71842">
        <ele>566.7</ele>
      </trkpt>
      <trkpt lat="45.671" lon="5.71883">
        <ele>568.3</ele>
      </trkpt>
      <trkpt lat="45.67143" lon="5.71887">
        <ele>565.5</ele>
      </trkpt>
      <trkpt lat="45.67163" lon="5.71912">
        <ele>566.7</ele>
      </trkpt>
      <trkpt lat="45.67194" lon="5.71925">
        <ele>566.1</ele>
      </trkpt>
      <trkpt lat="45.67209" lon="5.71938">
        <ele>567.2</ele>
      </trkpt>
      <trkpt lat="45.67213" lon="5.71945">
        <ele>568.1</ele>
      </trkpt>
      <trkpt lat="45.67217" lon="5.71954">
        <ele>569.3</ele>
      </trkpt>
      <trkpt lat="45.67262" lon="5.71942">
        <ele>564.2</ele>
      </trkpt>
      <trkpt lat="45.67292" lon="5.71952">
        <ele>564.6</ele>
      </trkpt>
      <trkpt lat="45.67306" lon="5.71964">
        <ele>565.6</ele>
      </trkpt>
      <trkpt lat="45.67333" lon="5.71988">
        <ele>566.8</ele>
      </trkpt>
      <trkpt lat="45.67334" lon="5.71894">
        <ele>557.5</ele>
      </trkpt>
      <trkpt lat="45.67359" lon="5.71858">
        <ele>560.7</ele>
      </trkpt>
      <trkpt lat="45.67385" lon="5.71835">
        <ele>564.9</ele>
      </trkpt>
      <trkpt lat="45.67399" lon="5.71819">
        <ele>567.1</ele>
      </trkpt>
      <trkpt lat="45.67424" lon="5.71785">
        <ele>572</ele>
      </trkpt>
      <trkpt lat="45.67429" lon="5.71751">
        <ele>571.5</ele>
      </trkpt>
      <trkpt lat="45.67462" lon="5.71715">
        <ele>578.6</ele>
      </trkpt>
      <trkpt lat="45.67501" lon="5.71686">
        <ele>585.7</ele>
      </trkpt>
      <trkpt lat="45.67571" lon="5.71664">
        <ele>587.2</ele>
      </trkpt>
      <trkpt lat="45.67668" lon="5.71681">
        <ele>592.7</ele>
      </trkpt>
      <trkpt lat="45.67694" lon="5.71686">
        <ele>595.4</ele>
      </trkpt>
      <trkpt lat="45.6773" lon="5.71677">
        <ele>590.1</ele>
      </trkpt>
      <trkpt lat="45.67763" lon="5.71671">
        <ele>586.1</ele>
      </trkpt>
      <trkpt lat="45.67782" lon="5.71677">
        <ele>588</ele>
      </trkpt>
      <trkpt lat="45.67805" lon="5.71693">
        <ele>596</ele>
      </trkpt>
      <trkpt lat="45.67829" lon="5.71699">
        <ele>598.5</ele>
      </trkpt>
      <trkpt lat="45.67867" lon="5.71701">
        <ele>598.8</ele>
      </trkpt>
      <trkpt lat="45.67944" lon="5.71686">
        <ele>585.6</ele>
      </trkpt>
      <trkpt lat="45.67961" lon="5.71683">
        <ele>582.9</ele>
      </trkpt>
      <trkpt lat="45.67978" lon="5.71685">
        <ele>583.1</ele>
      </trkpt>
      <trkpt lat="45.6802" lon="5.71699">
        <ele>587.7</ele>
      </trkpt>
      <trkpt lat="45.6805" lon="5.71696">
        <ele>584.3</ele>
      </trkpt>
      <trkpt lat="45.6813" lon="5.71695">
        <ele>576.8</ele>
      </trkpt>
      <trkpt lat="45.68168" lon="5.71703">
        <ele>576.3</ele>
      </trkpt>
      <trkpt lat="45.6819" lon="5.71696">
        <ele>567.8</ele>
      </trkpt>
      <trkpt lat="45.68257" lon="5.71735">
        <ele>572.1</ele>
      </trkpt>
      <trkpt lat="45.68318" lon="5.71757">
        <ele>573.2</ele>
      </trkpt>
      <trkpt lat="45.68368" lon="5.7177">
        <ele>567.4</ele>
      </trkpt>
      <trkpt lat="45.68383" lon="5.71782">
        <ele>569.9</ele>
      </trkpt>
      <trkpt lat="45.68456" lon="5.71789">
        <ele>555.7</ele>
      </trkpt>
      <trkpt lat="45.68467" lon="5.71801">
        <ele>560.5</ele>
      </trkpt>
      <trkpt lat="45.68472" lon="5.71808">
        <ele>563.4</ele>
      </trkpt>
      <trkpt lat="45.68482" lon="5.71815">
        <ele>564.9</ele>
      </trkpt>
      <trkpt lat="45.68492" lon="5.71815">
        <ele>562.1</ele>
      </trkpt>
      <trkpt lat="45.68509" lon="5.71817">
        <ele>557.9</ele>
      </trkpt>
      <trkpt lat="45.68567" lon="5.71835">
        <ele>544.4</ele>
      </trkpt>
      <trkpt lat="45.68603" lon="5.71878">
        <ele>559.9</ele>
      </trkpt>
      <trkpt lat="45.68623" lon="5.71886">
        <ele>560.5</ele>
      </trkpt>
      <trkpt lat="45.68657" lon="5.71903">
        <ele>561.5</ele>
      </trkpt>
      <trkpt lat="45.68678" lon="5.71899">
        <ele>555</ele>
      </trkpt>
      <trkpt lat="45.68712" lon="5.71921">
        <ele>560.4</ele>
      </trkpt>
      <trkpt lat="45.68752" lon="5.71924">
        <ele>555</ele>
      </trkpt>
      <trkpt lat="45.68804" lon="5.71951">
        <ele>559.9</ele>
      </trkpt>
      <trkpt lat="45.6883" lon="5.71946">
        <ele>554.9</ele>
      </trkpt>
      <trkpt lat="45.68856" lon="5.71965">
        <ele>559.8</ele>
      </trkpt>
      <trkpt lat="45.68885" lon="5.71989">
        <ele>566.4</ele>
      </trkpt>
      <trkpt lat="45.68919" lon="5.72021">
        <ele>572.3</ele>
      </trkpt>
      <trkpt lat="45.68942" lon="5.72038">
        <ele>576.5</ele>
      </trkpt>
      <trkpt lat="45.68959" lon="5.72055">
        <ele>580.1</ele>
      </trkpt>
      <trkpt lat="45.68971" lon="5.72057">
        <ele>579.9</ele>
      </trkpt>
      <trkpt lat="45.69041" lon="5.72067">
        <ele>586.1</ele>
      </trkpt>
      <trkpt lat="45.69091" lon="5.7208">
        <ele>594.4</ele>
      </trkpt>
      <trkpt lat="45.69261" lon="5.72165">
        <ele>590.2</ele>
      </trkpt>
      <trkpt lat="45.69279" lon="5.72179">
        <ele>587.2</ele>
      </trkpt>
      <trkpt lat="45.69293" lon="5.72204">
        <ele>585.6</ele>
      </trkpt>
      <trkpt lat="45.69312" lon="5.72198">
        <ele>580.9</ele>
      </trkpt>
      <trkpt lat="45.69298" lon="5.72186">
        <ele>583.3</ele>
      </trkpt>
      <trkpt lat="45.69305" lon="5.72175">
        <ele>581</ele>
      </trkpt>
      <trkpt lat="45.69298" lon="5.72164">
        <ele>581.4</ele>
      </trkpt>
      <trkpt lat="45.69312" lon="5.72153">
        <ele>576.3</ele>
      </trkpt>
      <trkpt lat="45.69325" lon="5.72159">
        <ele>574.7</ele>
      </trkpt>
      <trkpt lat="45.69338" lon="5.72169">
        <ele>572.9</ele>
      </trkpt>
      <trkpt lat="45.69345" lon="5.72197">
        <ele>572.9</ele>
      </trkpt>
      <trkpt lat="45.69359" lon="5.72207">
        <ele>569.5</ele>
      </trkpt>
      <trkpt lat="45.69376" lon="5.72266">
        <ele>565.4</ele>
      </trkpt>
      <trkpt lat="45.6938" lon="5.72302">
        <ele>560.9</ele>
      </trkpt>
      <trkpt lat="45.69403" lon="5.72334">
        <ele>550.9</ele>
      </trkpt>
      <trkpt lat="45.69413" lon="5.72341">
        <ele>547.1</ele>
      </trkpt>
      <trkpt lat="45.69422" lon="5.7233">
        <ele>546.6</ele>
      </trkpt>
      <trkpt lat="45.69446" lon="5.72251">
        <ele>550.3</ele>
      </trkpt>
      <trkpt lat="45.69484" lon="5.72219">
        <ele>545.2</ele>
      </trkpt>
      <trkpt lat="45.6953" lon="5.72211">
        <ele>539.8</ele>
      </trkpt>
      <trkpt lat="45.69537" lon="5.72203">
        <ele>538.9</ele>
      </trkpt>
      <trkpt lat="45.69547" lon="5.72209">
        <ele>538</ele>
      </trkpt>
      <trkpt lat="45.69569" lon="5.72255">
        <ele>535.2</ele>
      </trkpt>
      <trkpt lat="45.6961" lon="5.72283">
        <ele>525.7</ele>
      </trkpt>
      <trkpt lat="45.6964" lon="5.72269">
        <ele>522.3</ele>
      </trkpt>
      <trkpt lat="45.6966" lon="5.72228">
        <ele>521.3</ele>
      </trkpt>
      <trkpt lat="45.69679" lon="5.72211">
        <ele>519.6</ele>
      </trkpt>
      <trkpt lat="45.69691" lon="5.72191">
        <ele>519.3</ele>
      </trkpt>
      <trkpt lat="45.69708" lon="5.7219">
        <ele>518.3</ele>
      </trkpt>
      <trkpt lat="45.69731" lon="5.722">
        <ele>516.6</ele>
      </trkpt>
      <trkpt lat="45.69743" lon="5.72196">
        <ele>516</ele>
      </trkpt>
      <trkpt lat="45.69773" lon="5.72207">
        <ele>516.3</ele>
      </trkpt>
      <trkpt lat="45.69788" lon="5.72245">
        <ele>516.3</ele>
      </trkpt>
      <trkpt lat="45.69805" lon="5.7227">
        <ele>516.4</ele>
      </trkpt>
      <trkpt lat="45.69812" lon="5.72272">
        <ele>516.9</ele>
      </trkpt>
      <trkpt lat="45.69837" lon="5.72274">
        <ele>518.7</ele>
      </trkpt>
      <trkpt lat="45.69877" lon="5.72249">
        <ele>518.4</ele>
      </trkpt>
      <trkpt lat="45.69894" lon="5.72233">
        <ele>516.8</ele>
      </trkpt>
      <trkpt lat="45.69915" lon="5.72186">
        <ele>512.5</ele>
      </trkpt>
      <trkpt lat="45.69926" lon="5.72179">
        <ele>510.7</ele>
      </trkpt>
      <trkpt lat="45.69955" lon="5.72186">
        <ele>507.5</ele>
      </trkpt>
      <trkpt lat="45.69956" lon="5.72195">
        <ele>508</ele>
      </trkpt>
      <trkpt lat="45.69971" lon="5.72203">
        <ele>506.7</ele>
      </trkpt>
      <trkpt lat="45.70011" lon="5.72181">
        <ele>499.9</ele>
      </trkpt>
      <trkpt lat="45.70031" lon="5.72181">
        <ele>497.6</ele>
      </trkpt>
      <trkpt lat="45.70064" lon="5.72191">
        <ele>494.5</ele>
      </trkpt>
      <trkpt lat="45.70084" lon="5.72185">
        <ele>491.8</ele>
      </trkpt>
      <trkpt lat="45.70109" lon="5.72192">
        <ele>486.7</ele>
      </trkpt>
      <trkpt lat="45.70111" lon="5.72193">
        <ele>486.3</ele>
      </trkpt>
      <trkpt lat="45.7012" lon="5.72225">
        <ele>488</ele>
      </trkpt>
      <trkpt lat="45.70132" lon="5.72276">
        <ele>490.8</ele>
      </trkpt>
      <trkpt lat="45.70144" lon="5.72276">
        <ele>489.4</ele>
      </trkpt>
      <trkpt lat="45.70159" lon="5.72264">
        <ele>486.8</ele>
      </trkpt>
      <trkpt lat="45.70162" lon="5.72254">
        <ele>485.9</ele>
      </trkpt>
      <trkpt lat="45.70177" lon="5.7225">
        <ele>483.6</ele>
      </trkpt>
      <trkpt lat="45.7018" lon="5.72276">
        <ele>484.7</ele>
      </trkpt>
      <trkpt lat="45.70173" lon="5.72301">
        <ele>487.2</ele>
      </trkpt>
      <trkpt lat="45.70176" lon="5.7232">
        <ele>488</ele>
      </trkpt>
      <trkpt lat="45.70194" lon="5.72353">
        <ele>487.3</ele>
      </trkpt>
      <trkpt lat="45.7021" lon="5.72406">
        <ele>487.2</ele>
      </trkpt>
      <trkpt lat="45.70221" lon="5.72419">
        <ele>486</ele>
      </trkpt>
      <trkpt lat="45.70262" lon="5.72518">
        <ele>483.2</ele>
      </trkpt>
      <trkpt lat="45.70277" lon="5.72533">
        <ele>481.4</ele>
      </trkpt>
      <trkpt lat="45.70308" lon="5.72536">
        <ele>475.5</ele>
      </trkpt>
      <trkpt lat="45.70315" lon="5.72542">
        <ele>474.2</ele>
      </trkpt>
      <trkpt lat="45.70318" lon="5.72543">
        <ele>473.8</ele>
      </trkpt>
      <trkpt lat="45.70316" lon="5.72549">
        <ele>474.4</ele>
      </trkpt>
      <trkpt lat="45.70316" lon="5.72549">
        <ele>474.4</ele>
      </trkpt>
      <trkpt lat="45.70316" lon="5.72562">
        <ele>475</ele>
      </trkpt>
      <trkpt lat="45.70348" lon="5.72594">
        <ele>467.1</ele>
      </trkpt>
      <trkpt lat="45.70357" lon="5.72609">
        <ele>464.8</ele>
      </trkpt>
      <trkpt lat="45.70361" lon="5.72632">
        <ele>464.1</ele>
      </trkpt>
      <trkpt lat="45.70363" lon="5.72651">
        <ele>464.1</ele>
      </trkpt>
      <trkpt lat="45.70354" lon="5.7274">
        <ele>462.8</ele>
      </trkpt>
      <trkpt lat="45.70345" lon="5.72773">
        <ele>462</ele>
      </trkpt>
      <trkpt lat="45.70325" lon="5.72799">
        <ele>464.2</ele>
      </trkpt>
      <trkpt lat="45.70288" lon="5.72822">
        <ele>469.8</ele>
      </trkpt>
      <trkpt lat="45.70264" lon="5.72855">
        <ele>468.3</ele>
      </trkpt>
      <trkpt lat="45.70233" lon="5.7287">
        <ele>470.1</ele>
      </trkpt>
      <trkpt lat="45.70211" lon="5.72897">
        <ele>467.4</ele>
      </trkpt>
      <trkpt lat="45.70199" lon="5.72948">
        <ele>460.1</ele>
      </trkpt>
      <trkpt lat="45.70161" lon="5.73007">
        <ele>459.2</ele>
      </trkpt>
      <trkpt lat="45.70148" lon="5.7306">
        <ele>454.5</ele>
      </trkpt>
      <trkpt lat="45.70127" lon="5.73098">
        <ele>454.7</ele>
      </trkpt>
      <trkpt lat="45.70101" lon="5.73179">
        <ele>450</ele>
      </trkpt>
      <trkpt lat="45.70056" lon="5.73223">
        <ele>449.3</ele>
      </trkpt>
      <trkpt lat="45.70024" lon="5.73277">
        <ele>442.5</ele>
      </trkpt>
      <trkpt lat="45.7" lon="5.73305">
        <ele>440</ele>
      </trkpt>
      <trkpt lat="45.70015" lon="5.73312">
        <ele>437</ele>
      </trkpt>
      <trkpt lat="45.70025" lon="5.73307">
        <ele>436.9</ele>
      </trkpt>
      <trkpt lat="45.70065" lon="5.73309">
        <ele>431.7</ele>
      </trkpt>
      <trkpt lat="45.70082" lon="5.73319">
        <ele>427.9</ele>
      </trkpt>
      <trkpt lat="45.70105" lon="5.73276">
        <ele>429.6</ele>
      </trkpt>
      <trkpt lat="45.70113" lon="5.7327">
        <ele>428.6</ele>
      </trkpt>
      <trkpt lat="45.70119" lon="5.73274">
        <ele>426</ele>
      </trkpt>
      <trkpt lat="45.70113" lon="5.73287">
        <ele>425.5</ele>
      </trkpt>
      <trkpt lat="45.70113" lon="5.73337">
        <ele>416.5</ele>
      </trkpt>
      <trkpt lat="45.70123" lon="5.73355">
        <ele>412.1</ele>
      </trkpt>
      <trkpt lat="45.70125" lon="5.73376">
        <ele>409.8</ele>
      </trkpt>
      <trkpt lat="45.70132" lon="5.73383">
        <ele>407.1</ele>
      </trkpt>
      <trkpt lat="45.70137" lon="5.73399">
        <ele>404.3</ele>
      </trkpt>
      <trkpt lat="45.70145" lon="5.734">
        <ele>402.2</ele>
      </trkpt>
      <trkpt lat="45.7018" lon="5.73429">
        <ele>390.6</ele>
      </trkpt>
      <trkpt lat="45.70196" lon="5.7345">
        <ele>384.2</ele>
      </trkpt>
      <trkpt lat="45.70201" lon="5.73449">
        <ele>382.7</ele>
      </trkpt>
      <trkpt lat="45.70205" lon="5.73487">
        <ele>378.6</ele>
      </trkpt>
      <trkpt lat="45.70221" lon="5.73511">
        <ele>371.5</ele>
      </trkpt>
      <trkpt lat="45.7021" lon="5.7355">
        <ele>372.9</ele>
      </trkpt>
      <trkpt lat="45.70219" lon="5.73583">
        <ele>368.8</ele>
      </trkpt>
      <trkpt lat="45.70241" lon="5.73619">
        <ele>362.7</ele>
      </trkpt>
      <trkpt lat="45.70241" lon="5.73677">
        <ele>361.5</ele>
      </trkpt>
      <trkpt lat="45.70226" lon="5.73808">
        <ele>358.2</ele>
      </trkpt>
      <trkpt lat="45.70203" lon="5.73828">
        <ele>358.3</ele>
      </trkpt>
      <trkpt lat="45.70155" lon="5.73843">
        <ele>359.7</ele>
      </trkpt>
      <trkpt lat="45.70135" lon="5.73837">
        <ele>362.2</ele>
      </trkpt>
      <trkpt lat="45.70107" lon="5.73864">
        <ele>363.4</ele>
      </trkpt>
      <trkpt lat="45.70113" lon="5.73933">
        <ele>357.6</ele>
      </trkpt>
      <trkpt lat="45.70122" lon="5.73941">
        <ele>356.1</ele>
      </trkpt>
      <trkpt lat="45.70132" lon="5.73995">
        <ele>349.8</ele>
      </trkpt>
      <trkpt lat="45.70158" lon="5.74016">
        <ele>347.6</ele>
      </trkpt>
      <trkpt lat="45.70167" lon="5.74036">
        <ele>346.7</ele>
      </trkpt>
      <trkpt lat="45.70181" lon="5.7405">
        <ele>346.6</ele>
      </trkpt>
      <trkpt lat="45.70227" lon="5.74059">
        <ele>347.2</ele>
      </trkpt>
      <trkpt lat="45.70323" lon="5.74119">
        <ele>342.1</ele>
      </trkpt>
      <trkpt lat="45.70339" lon="5.74198">
        <ele>336.8</ele>
      </trkpt>
      <trkpt lat="45.70357" lon="5.74378">
        <ele>319.1</ele>
      </trkpt>
      <trkpt lat="45.70342" lon="5.74403">
        <ele>320.9</ele>
      </trkpt>
      <trkpt lat="45.70342" lon="5.74428">
        <ele>318.1</ele>
      </trkpt>
      <trkpt lat="45.70332" lon="5.74453">
        <ele>317.4</ele>
      </trkpt>
      <trkpt lat="45.70325" lon="5.74489">
        <ele>313.7</ele>
      </trkpt>
      <trkpt lat="45.70328" lon="5.74505">
        <ele>311.3</ele>
      </trkpt>
      <trkpt lat="45.70346" lon="5.74538">
        <ele>304.1</ele>
      </trkpt>
      <trkpt lat="45.70358" lon="5.74613">
        <ele>294.4</ele>
      </trkpt>
      <trkpt lat="45.70355" lon="5.7463">
        <ele>294.4</ele>
      </trkpt>
      <trkpt lat="45.70399" lon="5.74714">
        <ele>279.2</ele>
      </trkpt>
      <trkpt lat="45.70393" lon="5.74758">
        <ele>278.7</ele>
      </trkpt>
      <trkpt lat="45.7039" lon="5.74775">
        <ele>278.1</ele>
      </trkpt>
      <trkpt lat="45.70414" lon="5.74857">
        <ele>271.7</ele>
      </trkpt>
      <trkpt lat="45.70414" lon="5.74865">
        <ele>271</ele>
      </trkpt>
      <trkpt lat="45.70414" lon="5.74881">
        <ele>269.4</ele>
      </trkpt>
      <trkpt lat="45.7041" lon="5.74889">
        <ele>268.5</ele>
      </trkpt>
      <trkpt lat="45.70397" lon="5.749">
        <ele>267</ele>
      </trkpt>
      <trkpt lat="45.70387" lon="5.74905">
        <ele>266.1</ele>
      </trkpt>
      <trkpt lat="45.70371" lon="5.74905">
        <ele>265.5</ele>
      </trkpt>
      <trkpt lat="45.70348" lon="5.74907">
        <ele>264.3</ele>
      </trkpt>
      <trkpt lat="45.70338" lon="5.74906">
        <ele>264.1</ele>
      </trkpt>
      <trkpt lat="45.70323" lon="5.74899">
        <ele>264.7</ele>
      </trkpt>
      <trkpt lat="45.703" lon="5.74889">
        <ele>265.2</ele>
      </trkpt>
      <trkpt lat="45.7028" lon="5.74884">
        <ele>264.7</ele>
      </trkpt>
      <trkpt lat="45.70276" lon="5.7489">
        <ele>263.6</ele>
      </trkpt>
      <trkpt lat="45.7027" lon="5.7489">
        <ele>263.3</ele>
      </trkpt>
      <trkpt lat="45.70239" lon="5.74877">
        <ele>265.5</ele>
      </trkpt>
      <trkpt lat="45.70231" lon="5.74875">
        <ele>266.9</ele>
      </trkpt>
      <trkpt lat="45.70222" lon="5.74866">
        <ele>268.6</ele>
      </trkpt>
      <trkpt lat="45.70216" lon="5.74862">
        <ele>269.5</ele>
      </trkpt>
      <trkpt lat="45.70211" lon="5.74861">
        <ele>270.2</ele>
      </trkpt>
      <trkpt lat="45.70208" lon="5.74863">
        <ele>270.5</ele>
      </trkpt>
      <trkpt lat="45.70207" lon="5.74868">
        <ele>270.6</ele>
      </trkpt>
      <trkpt lat="45.70208" lon="5.74875">
        <ele>270.3</ele>
      </trkpt>
      <trkpt lat="45.70264" lon="5.74932">
        <ele>259.5</ele>
      </trkpt>
      <trkpt lat="45.70325" lon="5.74984">
        <ele>251.2</ele>
      </trkpt>
      <trkpt lat="45.7037" lon="5.75026">
        <ele>246.7</ele>
      </trkpt>
      <trkpt lat="45.70491" lon="5.75112">
        <ele>233.9</ele>
      </trkpt>
      <trkpt lat="45.70525" lon="5.75137">
        <ele>230.9</ele>
      </trkpt>
      <trkpt lat="45.70516" lon="5.75188">
        <ele>230.9</ele>
      </trkpt>
      <trkpt lat="45.70505" lon="5.75223">
        <ele>231.1</ele>
      </trkpt>
      <trkpt lat="45.70503" lon="5.75236">
        <ele>231.1</ele>
      </trkpt>
      <trkpt lat="45.70503" lon="5.75266">
        <ele>230.2</ele>
      </trkpt>
      <trkpt lat="45.70501" lon="5.75274">
        <ele>229.8</ele>
      </trkpt>
      <trkpt lat="45.70497" lon="5.75296">
        <ele>228.8</ele>
      </trkpt>
      <trkpt lat="45.70487" lon="5.75356">
        <ele>227.4</ele>
      </trkpt>
      <trkpt lat="45.70483" lon="5.75378">
        <ele>227.6</ele>
      </trkpt>
      <trkpt lat="45.7047" lon="5.75451">
        <ele>228.6</ele>
      </trkpt>
      <trkpt lat="45.70463" lon="5.75492">
        <ele>228.9</ele>
      </trkpt>
      <trkpt lat="45.70438" lon="5.75631">
        <ele>232</ele>
      </trkpt>
      <trkpt lat="45.70468" lon="5.75642">
        <ele>230.5</ele>
      </trkpt>
      <trkpt lat="45.70484" lon="5.75659">
        <ele>229.9</ele>
      </trkpt>
      <trkpt lat="45.70485" lon="5.7566">
        <ele>229.8</ele>
      </trkpt>
      <trkpt lat="45.70504" lon="5.7568">
        <ele>229</ele>
      </trkpt>
      <trkpt lat="45.70509" lon="5.75694">
        <ele>229</ele>
      </trkpt>
      <trkpt lat="45.70506" lon="5.75713">
        <ele>229.3</ele>
      </trkpt>
      <trkpt lat="45.7052" lon="5.75703">
        <ele>228.8</ele>
      </trkpt>
      <trkpt lat="45.70534" lon="5.75681">
        <ele>228.2</ele>
      </trkpt>
      <trkpt lat="45.70555" lon="5.75637">
        <ele>227.8</ele>
      </trkpt>
      <trkpt lat="45.70563" lon="5.75615">
        <ele>227.8</ele>
      </trkpt>
      <trkpt lat="45.70565" lon="5.7561">
        <ele>227.8</ele>
      </trkpt>
      <trkpt lat="45.70578" lon="5.75591">
        <ele>227.9</ele>
      </trkpt>
      <trkpt lat="45.70584" lon="5.7558">
        <ele>228</ele>
      </trkpt>
      <trkpt lat="45.706" lon="5.75562">
        <ele>227.7</ele>
      </trkpt>
      <trkpt lat="45.70627" lon="5.75564">
        <ele>226.8</ele>
      </trkpt>
      <trkpt lat="45.70638" lon="5.75542">
        <ele>226.2</ele>
      </trkpt>
      <trkpt lat="45.70648" lon="5.7553">
        <ele>225.6</ele>
      </trkpt>
      <trkpt lat="45.70664" lon="5.7553">
        <ele>224.9</ele>
      </trkpt>
      <trkpt lat="45.70729" lon="5.7561">
        <ele>224.8</ele>
      </trkpt>
      <trkpt lat="45.70777" lon="5.75667">
        <ele>225.4</ele>
      </trkpt>
      <trkpt lat="45.70817" lon="5.75691">
        <ele>224.3</ele>
      </trkpt>
      <trkpt lat="45.70833" lon="5.75699">
        <ele>224</ele>
      </trkpt>
      <trkpt lat="45.70907" lon="5.75748">
        <ele>225.7</ele>
      </trkpt>
      <trkpt lat="45.7094" lon="5.75771">
        <ele>225.9</ele>
      </trkpt>
      <trkpt lat="45.7111" lon="5.75929">
        <ele>229.3</ele>
      </trkpt>
      <trkpt lat="45.71178" lon="5.7599">
        <ele>227.6</ele>
      </trkpt>
      <trkpt lat="45.71235" lon="5.75996">
        <ele>227.1</ele>
      </trkpt>
      <trkpt lat="45.71316" lon="5.76005">
        <ele>225.7</ele>
      </trkpt>
      <trkpt lat="45.71351" lon="5.76025">
        <ele>226.3</ele>
      </trkpt>
      <trkpt lat="45.71428" lon="5.76063">
        <ele>227.4</ele>
      </trkpt>
      <trkpt lat="45.7146" lon="5.76085">
        <ele>227</ele>
      </trkpt>
      <trkpt lat="45.71507" lon="5.76125">
        <ele>227</ele>
      </trkpt>
      <trkpt lat="45.71555" lon="5.76162">
        <ele>227</ele>
      </trkpt>
      <trkpt lat="45.71581" lon="5.7619">
        <ele>226.6</ele>
      </trkpt>
      <trkpt lat="45.71613" lon="5.76213">
        <ele>228</ele>
      </trkpt>
      <trkpt lat="45.71638" lon="5.76242">
        <ele>229.2</ele>
      </trkpt>
      <trkpt lat="45.71662" lon="5.76269">
        <ele>229.2</ele>
      </trkpt>
      <trkpt lat="45.71705" lon="5.76323">
        <ele>227.6</ele>
      </trkpt>
      <trkpt lat="45.7172" lon="5.7635">
        <ele>227.7</ele>
      </trkpt>
      <trkpt lat="45.7172" lon="5.76365">
        <ele>227.7</ele>
      </trkpt>
      <trkpt lat="45.71735" lon="5.76406">
        <ele>228.4</ele>
      </trkpt>
      <trkpt lat="45.7179" lon="5.76538">
        <ele>229.5</ele>
      </trkpt>
      <trkpt lat="45.71815" lon="5.7655">
        <ele>230.6</ele>
      </trkpt>
      <trkpt lat="45.71831" lon="5.76564">
        <ele>231.6</ele>
      </trkpt>
      <trkpt lat="45.71851" lon="5.7659">
        <ele>231.7</ele>
      </trkpt>
      <trkpt lat="45.71887" lon="5.76606">
        <ele>231.6</ele>
      </trkpt>
      <trkpt lat="45.71905" lon="5.76605">
        <ele>231.9</ele>
      </trkpt>
      <trkpt lat="45.71913" lon="5.76608">
        <ele>232</ele>
      </trkpt>
      <trkpt lat="45.71944" lon="5.76654">
        <ele>231.7</ele>
      </trkpt>
      <trkpt lat="45.71995" lon="5.76706">
        <ele>233.3</ele>
      </trkpt>
      <trkpt lat="45.72016" lon="5.7674">
        <ele>232.8</ele>
      </trkpt>
      <trkpt lat="45.72052" lon="5.76798">
        <ele>229.1</ele>
      </trkpt>
      <trkpt lat="45.72094" lon="5.76846">
        <ele>225.3</ele>
      </trkpt>
      <trkpt lat="45.72129" lon="5.76903">
        <ele>225.4</ele>
      </trkpt>
      <trkpt lat="45.7215" lon="5.76948">
        <ele>226.2</ele>
      </trkpt>
      <trkpt lat="45.72154" lon="5.76971">
        <ele>226.4</ele>
      </trkpt>
      <trkpt lat="45.72177" lon="5.77044">
        <ele>227.4</ele>
      </trkpt>
      <trkpt lat="45.72184" lon="5.77076">
        <ele>227.7</ele>
      </trkpt>
      <trkpt lat="45.72205" lon="5.77132">
        <ele>228.5</ele>
      </trkpt>
      <trkpt lat="45.72232" lon="5.77183">
        <ele>227.9</ele>
      </trkpt>
      <trkpt lat="45.72256" lon="5.77252">
        <ele>227.6</ele>
      </trkpt>
      <trkpt lat="45.72313" lon="5.7735">
        <ele>225.1</ele>
      </trkpt>
      <trkpt lat="45.72396" lon="5.7753">
        <ele>229.1</ele>
      </trkpt>
      <trkpt lat="45.72429" lon="5.77567">
        <ele>229.7</ele>
      </trkpt>
      <trkpt lat="45.72434" lon="5.77577">
        <ele>229.7</ele>
      </trkpt>
      <trkpt lat="45.72435" lon="5.77582">
        <ele>229.8</ele>
      </trkpt>
      <trkpt lat="45.72436" lon="5.77595">
        <ele>229.5</ele>
      </trkpt>
      <trkpt lat="45.72437" lon="5.77618">
        <ele>228.9</ele>
      </trkpt>
      <trkpt lat="45.72439" lon="5.77639">
        <ele>228.4</ele>
      </trkpt>
      <trkpt lat="45.72443" lon="5.77673">
        <ele>227.6</ele>
      </trkpt>
      <trkpt lat="45.72448" lon="5.777">
        <ele>227.2</ele>
      </trkpt>
      <trkpt lat="45.72451" lon="5.77713">
        <ele>227</ele>
      </trkpt>
      <trkpt lat="45.72456" lon="5.7772">
        <ele>226.9</ele>
      </trkpt>
      <trkpt lat="45.72463" lon="5.77727">
        <ele>226.7</ele>
      </trkpt>
      <trkpt lat="45.72481" lon="5.77744">
        <ele>226.3</ele>
      </trkpt>
      <trkpt lat="45.72497" lon="5.7776">
        <ele>226</ele>
      </trkpt>
      <trkpt lat="45.7251" lon="5.77774">
        <ele>225.9</ele>
      </trkpt>
      <trkpt lat="45.72522" lon="5.77792">
        <ele>225.9</ele>
      </trkpt>
      <trkpt lat="45.72536" lon="5.7781">
        <ele>225.9</ele>
      </trkpt>
      <trkpt lat="45.72553" lon="5.77826">
        <ele>225.9</ele>
      </trkpt>
      <trkpt lat="45.72565" lon="5.77837">
        <ele>226</ele>
      </trkpt>
      <trkpt lat="45.72589" lon="5.77855">
        <ele>226.3</ele>
      </trkpt>
      <trkpt lat="45.7261" lon="5.77867">
        <ele>226.4</ele>
      </trkpt>
      <trkpt lat="45.72637" lon="5.77884">
        <ele>226.6</ele>
      </trkpt>
      <trkpt lat="45.72642" lon="5.77887">
        <ele>226.6</ele>
      </trkpt>
      <trkpt lat="45.72647" lon="5.7789">
        <ele>226.7</ele>
      </trkpt>
      <trkpt lat="45.72651" lon="5.77895">
        <ele>226.7</ele>
      </trkpt>
      <trkpt lat="45.72653" lon="5.77899">
        <ele>226.8</ele>
      </trkpt>
      <trkpt lat="45.72654" lon="5.77905">
        <ele>226.9</ele>
      </trkpt>
      <trkpt lat="45.72654" lon="5.77922">
        <ele>226.9</ele>
      </trkpt>
      <trkpt lat="45.72653" lon="5.7794">
        <ele>226.8</ele>
      </trkpt>
      <trkpt lat="45.7265" lon="5.77961">
        <ele>226.6</ele>
      </trkpt>
      <trkpt lat="45.72656" lon="5.78093">
        <ele>227</ele>
      </trkpt>
      <trkpt lat="45.72661" lon="5.78158">
        <ele>226.9</ele>
      </trkpt>
      <trkpt lat="45.72677" lon="5.78236">
        <ele>228.9</ele>
      </trkpt>
      <trkpt lat="45.72694" lon="5.78283">
        <ele>231.1</ele>
      </trkpt>
      <trkpt lat="45.72707" lon="5.78314">
        <ele>233.4</ele>
      </trkpt>
      <trkpt lat="45.72713" lon="5.78324">
        <ele>234.3</ele>
      </trkpt>
      <trkpt lat="45.72723" lon="5.7831">
        <ele>234.3</ele>
      </trkpt>
      <trkpt lat="45.72769" lon="5.78266">
        <ele>233.1</ele>
      </trkpt>
      <trkpt lat="45.72809" lon="5.78239">
        <ele>232</ele>
      </trkpt>
      <trkpt lat="45.72856" lon="5.78215">
        <ele>233.8</ele>
      </trkpt>
      <trkpt lat="45.72886" lon="5.78189">
        <ele>234.1</ele>
      </trkpt>
      <trkpt lat="45.72956" lon="5.78104">
        <ele>231.6</ele>
      </trkpt>
      <trkpt lat="45.72971" lon="5.78084">
        <ele>229.7</ele>
      </trkpt>
      <trkpt lat="45.72985" lon="5.78063">
        <ele>229.2</ele>
      </trkpt>
      <trkpt lat="45.7302" lon="5.78073">
        <ele>231.2</ele>
      </trkpt>
      <trkpt lat="45.73023" lon="5.78079">
        <ele>231.8</ele>
      </trkpt>
      <trkpt lat="45.7303" lon="5.78082">
        <ele>232.3</ele>
      </trkpt>
      <trkpt lat="45.73053" lon="5.78096">
        <ele>236.6</ele>
      </trkpt>
      <trkpt lat="45.73064" lon="5.78101">
        <ele>238.4</ele>
      </trkpt>
      <trkpt lat="45.73079" lon="5.78095">
        <ele>237.8</ele>
      </trkpt>
      <trkpt lat="45.73084" lon="5.78094">
        <ele>237.7</ele>
      </trkpt>
      <trkpt lat="45.73092" lon="5.78097">
        <ele>238.1</ele>
      </trkpt>
      <trkpt lat="45.73101" lon="5.7811">
        <ele>241.1</ele>
      </trkpt>
      <trkpt lat="45.73105" lon="5.78113">
        <ele>241.5</ele>
      </trkpt>
      <trkpt lat="45.73111" lon="5.78117">
        <ele>242.2</ele>
      </trkpt>
      <trkpt lat="45.7313" lon="5.7812">
        <ele>241.8</ele>
      </trkpt>
      <trkpt lat="45.73148" lon="5.78129">
        <ele>242.6</ele>
      </trkpt>
      <trkpt lat="45.73153" lon="5.78131">
        <ele>242.8</ele>
      </trkpt>
      <trkpt lat="45.73157" lon="5.78132">
        <ele>242.6</ele>
      </trkpt>
      <trkpt lat="45.73163" lon="5.78135">
        <ele>242.8</ele>
      </trkpt>
      <trkpt lat="45.73166" lon="5.78138">
        <ele>243.2</ele>
      </trkpt>
      <trkpt lat="45.73169" lon="5.7814">
        <ele>243.4</ele>
      </trkpt>
      <trkpt lat="45.73172" lon="5.78143">
        <ele>244.1</ele>
      </trkpt>
      <trkpt lat="45.73176" lon="5.78143">
        <ele>243.9</ele>
      </trkpt>
      <trkpt lat="45.73183" lon="5.7814">
        <ele>243.1</ele>
      </trkpt>
      <trkpt lat="45.73199" lon="5.78138">
        <ele>242.3</ele>
      </trkpt>
      <trkpt lat="45.73211" lon="5.78143">
        <ele>243</ele>
      </trkpt>
      <trkpt lat="45.73224" lon="5.78145">
        <ele>243</ele>
      </trkpt>
      <trkpt lat="45.73233" lon="5.7815">
        <ele>243.7</ele>
      </trkpt>
      <trkpt lat="45.73241" lon="5.78156">
        <ele>244.9</ele>
      </trkpt>
      <trkpt lat="45.7325" lon="5.78166">
        <ele>246.8</ele>
      </trkpt>
      <trkpt lat="45.73249" lon="5.78176">
        <ele>251.4</ele>
      </trkpt>
      <trkpt lat="45.73262" lon="5.78188">
        <ele>258.3</ele>
      </trkpt>
      <trkpt lat="45.73284" lon="5.78179">
        <ele>255.9</ele>
      </trkpt>
      <trkpt lat="45.73284" lon="5.78181">
        <ele>256.7</ele>
      </trkpt>
      <trkpt lat="45.73298" lon="5.78182">
        <ele>258.3</ele>
      </trkpt>
      <trkpt lat="45.73301" lon="5.7818">
        <ele>257.6</ele>
      </trkpt>
      <trkpt lat="45.73319" lon="5.78184">
        <ele>261.1</ele>
      </trkpt>
      <trkpt lat="45.73321" lon="5.78183">
        <ele>260.9</ele>
      </trkpt>
      <trkpt lat="45.73322" lon="5.78183">
        <ele>260.9</ele>
      </trkpt>
      <trkpt lat="45.73332" lon="5.78182">
        <ele>261.4</ele>
      </trkpt>
      <trkpt lat="45.73345" lon="5.78182">
        <ele>261.7</ele>
      </trkpt>
      <trkpt lat="45.73352" lon="5.78181">
        <ele>261.2</ele>
      </trkpt>
      <trkpt lat="45.73362" lon="5.78183">
        <ele>262.3</ele>
      </trkpt>
      <trkpt lat="45.73364" lon="5.78186">
        <ele>263.4</ele>
      </trkpt>
      <trkpt lat="45.73366" lon="5.78204">
        <ele>271.4</ele>
      </trkpt>
      <trkpt lat="45.73362" lon="5.78223">
        <ele>280</ele>
      </trkpt>
      <trkpt lat="45.73349" lon="5.7823">
        <ele>282.4</ele>
      </trkpt>
      <trkpt lat="45.73338" lon="5.78239">
        <ele>285.7</ele>
      </trkpt>
      <trkpt lat="45.73331" lon="5.78241">
        <ele>286.3</ele>
      </trkpt>
      <trkpt lat="45.73325" lon="5.78242">
        <ele>286.5</ele>
      </trkpt>
      <trkpt lat="45.7332" lon="5.78246">
        <ele>287.6</ele>
      </trkpt>
      <trkpt lat="45.73314" lon="5.78249">
        <ele>288.7</ele>
      </trkpt>
      <trkpt lat="45.73292" lon="5.78258">
        <ele>292.3</ele>
      </trkpt>
      <trkpt lat="45.73273" lon="5.78254">
        <ele>290</ele>
      </trkpt>
      <trkpt lat="45.73265" lon="5.78255">
        <ele>290.1</ele>
      </trkpt>
      <trkpt lat="45.73266" lon="5.78268">
        <ele>296.7</ele>
      </trkpt>
      <trkpt lat="45.73287" lon="5.78282">
        <ele>304.2</ele>
      </trkpt>
      <trkpt lat="45.73296" lon="5.78284">
        <ele>305.3</ele>
      </trkpt>
      <trkpt lat="45.733" lon="5.78292">
        <ele>308.7</ele>
      </trkpt>
      <trkpt lat="45.733" lon="5.78303">
        <ele>314.2</ele>
      </trkpt>
      <trkpt lat="45.73305" lon="5.7831">
        <ele>317.6</ele>
      </trkpt>
      <trkpt lat="45.73303" lon="5.78316">
        <ele>320.3</ele>
      </trkpt>
      <trkpt lat="45.73298" lon="5.78325">
        <ele>324.9</ele>
      </trkpt>
      <trkpt lat="45.73285" lon="5.78333">
        <ele>329</ele>
      </trkpt>
      <trkpt lat="45.7327" lon="5.78345">
        <ele>334.3</ele>
      </trkpt>
      <trkpt lat="45.73264" lon="5.78353">
        <ele>338.3</ele>
      </trkpt>
      <trkpt lat="45.73258" lon="5.78355">
        <ele>339.2</ele>
      </trkpt>
      <trkpt lat="45.73253" lon="5.78355">
        <ele>339.2</ele>
      </trkpt>
      <trkpt lat="45.73245" lon="5.78359">
        <ele>342.3</ele>
      </trkpt>
      <trkpt lat="45.73249" lon="5.78368">
        <ele>345</ele>
      </trkpt>
      <trkpt lat="45.73256" lon="5.7838">
        <ele>350.1</ele>
      </trkpt>
      <trkpt lat="45.73249" lon="5.78386">
        <ele>353</ele>
      </trkpt>
      <trkpt lat="45.73248" lon="5.78398">
        <ele>358.5</ele>
      </trkpt>
      <trkpt lat="45.73248" lon="5.78403">
        <ele>360.9</ele>
      </trkpt>
      <trkpt lat="45.73258" lon="5.78413">
        <ele>364.1</ele>
      </trkpt>
      <trkpt lat="45.7326" lon="5.78416">
        <ele>365.5</ele>
      </trkpt>
      <trkpt lat="45.73255" lon="5.78428">
        <ele>368.3</ele>
      </trkpt>
      <trkpt lat="45.73243" lon="5.78432">
        <ele>371.7</ele>
      </trkpt>
      <trkpt lat="45.73233" lon="5.78438">
        <ele>376.4</ele>
      </trkpt>
      <trkpt lat="45.73222" lon="5.78435">
        <ele>379.6</ele>
      </trkpt>
      <trkpt lat="45.73205" lon="5.78429">
        <ele>384.4</ele>
      </trkpt>
      <trkpt lat="45.73201" lon="5.78434">
        <ele>386.6</ele>
      </trkpt>
      <trkpt lat="45.73198" lon="5.78436">
        <ele>388.1</ele>
      </trkpt>
      <trkpt lat="45.7319" lon="5.78439">
        <ele>391.3</ele>
      </trkpt>
      <trkpt lat="45.73179" lon="5.78438">
        <ele>394.7</ele>
      </trkpt>
      <trkpt lat="45.73179" lon="5.78455">
        <ele>397.6</ele>
      </trkpt>
      <trkpt lat="45.73179" lon="5.78477">
        <ele>400.8</ele>
      </trkpt>
      <trkpt lat="45.73176" lon="5.78491">
        <ele>403.9</ele>
      </trkpt>
      <trkpt lat="45.73174" lon="5.78495">
        <ele>405.1</ele>
      </trkpt>
      <trkpt lat="45.73172" lon="5.78503">
        <ele>406.2</ele>
      </trkpt>
      <trkpt lat="45.73167" lon="5.78493">
        <ele>406.9</ele>
      </trkpt>
      <trkpt lat="45.73155" lon="5.7847">
        <ele>405.9</ele>
      </trkpt>
      <trkpt lat="45.7314" lon="5.78468">
        <ele>408.2</ele>
      </trkpt>
      <trkpt lat="45.7312" lon="5.78469">
        <ele>412.1</ele>
      </trkpt>
      <trkpt lat="45.73094" lon="5.78465">
        <ele>415.9</ele>
      </trkpt>
      <trkpt lat="45.7308" lon="5.78466">
        <ele>417.1</ele>
      </trkpt>
      <trkpt lat="45.7307" lon="5.78466">
        <ele>415.2</ele>
      </trkpt>
      <trkpt lat="45.73062" lon="5.78467">
        <ele>413.6</ele>
      </trkpt>
      <trkpt lat="45.73057" lon="5.78465">
        <ele>411.7</ele>
      </trkpt>
      <trkpt lat="45.73055" lon="5.78466">
        <ele>411.7</ele>
      </trkpt>
      <trkpt lat="45.73051" lon="5.78465">
        <ele>410</ele>
      </trkpt>
      <trkpt lat="45.7305" lon="5.78468">
        <ele>411.1</ele>
      </trkpt>
      <trkpt lat="45.73029" lon="5.78473">
        <ele>409.6</ele>
      </trkpt>
      <trkpt lat="45.73017" lon="5.78481">
        <ele>412.4</ele>
      </trkpt>
      <trkpt lat="45.73006" lon="5.78488">
        <ele>415.1</ele>
      </trkpt>
      <trkpt lat="45.72999" lon="5.78495">
        <ele>418.1</ele>
      </trkpt>
      <trkpt lat="45.72994" lon="5.78508">
        <ele>420.7</ele>
      </trkpt>
      <trkpt lat="45.7299" lon="5.78515">
        <ele>419.9</ele>
      </trkpt>
      <trkpt lat="45.72983" lon="5.78525">
        <ele>419.5</ele>
      </trkpt>
      <trkpt lat="45.72977" lon="5.78528">
        <ele>418</ele>
      </trkpt>
      <trkpt lat="45.72967" lon="5.78531">
        <ele>415</ele>
      </trkpt>
      <trkpt lat="45.72962" lon="5.78533">
        <ele>414</ele>
      </trkpt>
      <trkpt lat="45.72954" lon="5.78539">
        <ele>413.7</ele>
      </trkpt>
      <trkpt lat="45.72944" lon="5.78545">
        <ele>413.6</ele>
      </trkpt>
      <trkpt lat="45.72941" lon="5.78547">
        <ele>413.4</ele>
      </trkpt>
      <trkpt lat="45.72938" lon="5.78548">
        <ele>412.9</ele>
      </trkpt>
      <trkpt lat="45.72934" lon="5.78551">
        <ele>413.5</ele>
      </trkpt>
      <trkpt lat="45.72932" lon="5.78553">
        <ele>414.2</ele>
      </trkpt>
      <trkpt lat="45.72931" lon="5.78559">
        <ele>417.6</ele>
      </trkpt>
      <trkpt lat="45.7293" lon="5.78568">
        <ele>422.3</ele>
      </trkpt>
      <trkpt lat="45.72927" lon="5.78577">
        <ele>427</ele>
      </trkpt>
      <trkpt lat="45.72921" lon="5.78583">
        <ele>430.2</ele>
      </trkpt>
      <trkpt lat="45.72914" lon="5.78597">
        <ele>429.6</ele>
      </trkpt>
      <trkpt lat="45.72906" lon="5.78605">
        <ele>424</ele>
      </trkpt>
      <trkpt lat="45.72896" lon="5.78619">
        <ele>419.2</ele>
      </trkpt>
      <trkpt lat="45.72895" lon="5.78631">
        <ele>420.3</ele>
      </trkpt>
      <trkpt lat="45.72898" lon="5.7864">
        <ele>424.4</ele>
      </trkpt>
      <trkpt lat="45.72903" lon="5.78653">
        <ele>430</ele>
      </trkpt>
      <trkpt lat="45.72907" lon="5.78679">
        <ele>434</ele>
      </trkpt>
      <trkpt lat="45.72907" lon="5.78696">
        <ele>432.2</ele>
      </trkpt>
      <trkpt lat="45.72906" lon="5.78715">
        <ele>429.9</ele>
      </trkpt>
      <trkpt lat="45.72913" lon="5.78724">
        <ele>432.4</ele>
      </trkpt>
      <trkpt lat="45.72932" lon="5.78736">
        <ele>430</ele>
      </trkpt>
      <trkpt lat="45.72948" lon="5.78743">
        <ele>426.2</ele>
      </trkpt>
      <trkpt lat="45.72957" lon="5.78753">
        <ele>423.4</ele>
      </trkpt>
      <trkpt lat="45.72959" lon="5.78767">
        <ele>421.3</ele>
      </trkpt>
      <trkpt lat="45.72962" lon="5.78818">
        <ele>415</ele>
      </trkpt>
      <trkpt lat="45.72962" lon="5.78891">
        <ele>408.4</ele>
      </trkpt>
      <trkpt lat="45.7296" lon="5.78927">
        <ele>405.8</ele>
      </trkpt>
      <trkpt lat="45.72967" lon="5.78946">
        <ele>404.1</ele>
      </trkpt>
      <trkpt lat="45.72968" lon="5.78952">
        <ele>403.7</ele>
      </trkpt>
      <trkpt lat="45.72969" lon="5.78961">
        <ele>403.1</ele>
      </trkpt>
      <trkpt lat="45.72968" lon="5.7897">
        <ele>402.6</ele>
      </trkpt>
      <trkpt lat="45.72968" lon="5.78991">
        <ele>401.3</ele>
      </trkpt>
      <trkpt lat="45.72966" lon="5.79019">
        <ele>400.6</ele>
      </trkpt>
      <trkpt lat="45.72959" lon="5.79047">
        <ele>400.9</ele>
      </trkpt>
      <trkpt lat="45.72953" lon="5.79088">
        <ele>401.1</ele>
      </trkpt>
      <trkpt lat="45.72942" lon="5.79126">
        <ele>402.5</ele>
      </trkpt>
      <trkpt lat="45.72917" lon="5.79175">
        <ele>406.1</ele>
      </trkpt>
      <trkpt lat="45.72908" lon="5.79205">
        <ele>406.5</ele>
      </trkpt>
      <trkpt lat="45.72894" lon="5.79261">
        <ele>407.7</ele>
      </trkpt>
      <trkpt lat="45.72884" lon="5.79294">
        <ele>408.5</ele>
      </trkpt>
      <trkpt lat="45.72879" lon="5.79315">
        <ele>409</ele>
      </trkpt>
      <trkpt lat="45.72872" lon="5.79391">
        <ele>409.7</ele>
      </trkpt>
      <trkpt lat="45.72872" lon="5.79488">
        <ele>409.4</ele>
      </trkpt>
      <trkpt lat="45.72869" lon="5.79562">
        <ele>408.9</ele>
      </trkpt>
      <trkpt lat="45.72861" lon="5.79624">
        <ele>408.9</ele>
      </trkpt>
      <trkpt lat="45.72862" lon="5.79669">
        <ele>408.3</ele>
      </trkpt>
      <trkpt lat="45.72871" lon="5.79699">
        <ele>408.2</ele>
      </trkpt>
      <trkpt lat="45.72875" lon="5.79732">
        <ele>408.6</ele>
      </trkpt>
      <trkpt lat="45.7288" lon="5.79773">
        <ele>409.7</ele>
      </trkpt>
      <trkpt lat="45.72909" lon="5.79808">
        <ele>408.4</ele>
      </trkpt>
      <trkpt lat="45.72961" lon="5.79876">
        <ele>405.7</ele>
      </trkpt>
      <trkpt lat="45.73005" lon="5.79931">
        <ele>402.6</ele>
      </trkpt>
      <trkpt lat="45.73023" lon="5.79955">
        <ele>401.8</ele>
      </trkpt>
      <trkpt lat="45.73037" lon="5.79979">
        <ele>401.1</ele>
      </trkpt>
      <trkpt lat="45.73053" lon="5.80013">
        <ele>400</ele>
      </trkpt>
      <trkpt lat="45.73067" lon="5.80055">
        <ele>399.1</ele>
      </trkpt>
      <trkpt lat="45.73079" lon="5.80108">
        <ele>399</ele>
      </trkpt>
      <trkpt lat="45.73083" lon="5.80123">
        <ele>398.9</ele>
      </trkpt>
      <trkpt lat="45.73089" lon="5.80136">
        <ele>399.1</ele>
      </trkpt>
      <trkpt lat="45.73098" lon="5.80148">
        <ele>399.1</ele>
      </trkpt>
      <trkpt lat="45.73109" lon="5.80159">
        <ele>399</ele>
      </trkpt>
      <trkpt lat="45.73173" lon="5.80177">
        <ele>396.7</ele>
      </trkpt>
      <trkpt lat="45.73215" lon="5.8019">
        <ele>396.8</ele>
      </trkpt>
      <trkpt lat="45.73261" lon="5.80205">
        <ele>396.2</ele>
      </trkpt>
      <trkpt lat="45.73281" lon="5.80212">
        <ele>395.3</ele>
      </trkpt>
      <trkpt lat="45.73292" lon="5.80188">
        <ele>393.7</ele>
      </trkpt>
      <trkpt lat="45.73293" lon="5.80173">
        <ele>393.2</ele>
      </trkpt>
      <trkpt lat="45.73295" lon="5.80147">
        <ele>391.9</ele>
      </trkpt>
      <trkpt lat="45.7331" lon="5.80141">
        <ele>391.2</ele>
      </trkpt>
      <trkpt lat="45.73311" lon="5.80123">
        <ele>390.4</ele>
      </trkpt>
      <trkpt lat="45.73314" lon="5.80114">
        <ele>390.1</ele>
      </trkpt>
      <trkpt lat="45.73322" lon="5.80113">
        <ele>389.9</ele>
      </trkpt>
      <trkpt lat="45.73343" lon="5.80111">
        <ele>388.1</ele>
      </trkpt>
      <trkpt lat="45.73356" lon="5.80098">
        <ele>385.3</ele>
      </trkpt>
      <trkpt lat="45.73362" lon="5.80097">
        <ele>384.3</ele>
      </trkpt>
      <trkpt lat="45.734" lon="5.80084">
        <ele>377.1</ele>
      </trkpt>
      <trkpt lat="45.73464" lon="5.80054">
        <ele>364.7</ele>
      </trkpt>
      <trkpt lat="45.73488" lon="5.8005">
        <ele>360.4</ele>
      </trkpt>
      <trkpt lat="45.73533" lon="5.80035">
        <ele>352.5</ele>
      </trkpt>
      <trkpt lat="45.73568" lon="5.80024">
        <ele>346.5</ele>
      </trkpt>
      <trkpt lat="45.73623" lon="5.80013">
        <ele>339.1</ele>
      </trkpt>
      <trkpt lat="45.7364" lon="5.80006">
        <ele>336.6</ele>
      </trkpt>
      <trkpt lat="45.73671" lon="5.79995">
        <ele>332.3</ele>
      </trkpt>
      <trkpt lat="45.73684" lon="5.79989">
        <ele>330.6</ele>
      </trkpt>
      <trkpt lat="45.73728" lon="5.79977">
        <ele>324.8</ele>
      </trkpt>
      <trkpt lat="45.73741" lon="5.79972">
        <ele>323.1</ele>
      </trkpt>
      <trkpt lat="45.73778" lon="5.79959">
        <ele>319</ele>
      </trkpt>
      <trkpt lat="45.73806" lon="5.79951">
        <ele>316</ele>
      </trkpt>
      <trkpt lat="45.73844" lon="5.79943">
        <ele>312.3</ele>
      </trkpt>
      <trkpt lat="45.73861" lon="5.7994">
        <ele>311.1</ele>
      </trkpt>
      <trkpt lat="45.73875" lon="5.79926">
        <ele>308.9</ele>
      </trkpt>
      <trkpt lat="45.73903" lon="5.79899">
        <ele>304.7</ele>
      </trkpt>
      <trkpt lat="45.73932" lon="5.79883">
        <ele>302</ele>
      </trkpt>
      <trkpt lat="45.73941" lon="5.79879">
        <ele>301.3</ele>
      </trkpt>
      <trkpt lat="45.73944" lon="5.79877">
        <ele>301</ele>
      </trkpt>
      <trkpt lat="45.73977" lon="5.79866">
        <ele>298.5</ele>
      </trkpt>
      <trkpt lat="45.74003" lon="5.79852">
        <ele>296.1</ele>
      </trkpt>
      <trkpt lat="45.74036" lon="5.7983">
        <ele>294.3</ele>
      </trkpt>
      <trkpt lat="45.74046" lon="5.79816">
        <ele>293.5</ele>
      </trkpt>
      <trkpt lat="45.74054" lon="5.79803">
        <ele>292.6</ele>
      </trkpt>
      <trkpt lat="45.74071" lon="5.79768">
        <ele>289.8</ele>
      </trkpt>
      <trkpt lat="45.74096" lon="5.79746">
        <ele>288.1</ele>
      </trkpt>
      <trkpt lat="45.74122" lon="5.79722">
        <ele>287</ele>
      </trkpt>
      <trkpt lat="45.74176" lon="5.79676">
        <ele>284.2</ele>
      </trkpt>
      <trkpt lat="45.74199" lon="5.79654">
        <ele>283.1</ele>
      </trkpt>
      <trkpt lat="45.74223" lon="5.79637">
        <ele>282.4</ele>
      </trkpt>
      <trkpt lat="45.74243" lon="5.79629">
        <ele>282.2</ele>
      </trkpt>
      <trkpt lat="45.74269" lon="5.79624">
        <ele>282.8</ele>
      </trkpt>
      <trkpt lat="45.74296" lon="5.79609">
        <ele>281.7</ele>
      </trkpt>
      <trkpt lat="45.74303" lon="5.79622">
        <ele>284</ele>
      </trkpt>
      <trkpt lat="45.74314" lon="5.79624">
        <ele>284.9</ele>
      </trkpt>
      <trkpt lat="45.74347" lon="5.79618">
        <ele>286.4</ele>
      </trkpt>
      <trkpt lat="45.74377" lon="5.79596">
        <ele>284.8</ele>
      </trkpt>
      <trkpt lat="45.74412" lon="5.79588">
        <ele>286.7</ele>
      </trkpt>
      <trkpt lat="45.74416" lon="5.79586">
        <ele>286.5</ele>
      </trkpt>
      <trkpt lat="45.74447" lon="5.79559">
        <ele>283.6</ele>
      </trkpt>
      <trkpt lat="45.74495" lon="5.79541">
        <ele>283.3</ele>
      </trkpt>
      <trkpt lat="45.74582" lon="5.79508">
        <ele>282.2</ele>
      </trkpt>
      <trkpt lat="45.74624" lon="5.79487">
        <ele>280.7</ele>
      </trkpt>
      <trkpt lat="45.74658" lon="5.79464">
        <ele>278.6</ele>
      </trkpt>
      <trkpt lat="45.74683" lon="5.79449">
        <ele>278</ele>
      </trkpt>
      <trkpt lat="45.7471" lon="5.79444">
        <ele>279.7</ele>
      </trkpt>
      <trkpt lat="45.74741" lon="5.79458">
        <ele>284.6</ele>
      </trkpt>
      <trkpt lat="45.74772" lon="5.79457">
        <ele>289.1</ele>
      </trkpt>
      <trkpt lat="45.74797" lon="5.79431">
        <ele>289.8</ele>
      </trkpt>
      <trkpt lat="45.74822" lon="5.79412">
        <ele>292</ele>
      </trkpt>
      <trkpt lat="45.74839" lon="5.79404">
        <ele>295.2</ele>
      </trkpt>
      <trkpt lat="45.74852" lon="5.79399">
        <ele>297.2</ele>
      </trkpt>
      <trkpt lat="45.74876" lon="5.79373">
        <ele>300</ele>
      </trkpt>
      <trkpt lat="45.74878" lon="5.79369">
        <ele>300.2</ele>
      </trkpt>
      <trkpt lat="45.74892" lon="5.79347">
        <ele>300.7</ele>
      </trkpt>
      <trkpt lat="45.74879" lon="5.7932">
        <ele>295.2</ele>
      </trkpt>
      <trkpt lat="45.74882" lon="5.79309">
        <ele>292.4</ele>
      </trkpt>
      <trkpt lat="45.74896" lon="5.79312">
        <ele>294.9</ele>
      </trkpt>
      <trkpt lat="45.74916" lon="5.7931">
        <ele>296.5</ele>
      </trkpt>
      <trkpt lat="45.74939" lon="5.79312">
        <ele>299.1</ele>
      </trkpt>
      <trkpt lat="45.7496" lon="5.7931">
        <ele>300.7</ele>
      </trkpt>
      <trkpt lat="45.74973" lon="5.79309">
        <ele>301.9</ele>
      </trkpt>
      <trkpt lat="45.7499" lon="5.79302">
        <ele>303</ele>
      </trkpt>
      <trkpt lat="45.75007" lon="5.79295">
        <ele>304.3</ele>
      </trkpt>
      <trkpt lat="45.75023" lon="5.79289">
        <ele>305.6</ele>
      </trkpt>
      <trkpt lat="45.75042" lon="5.79295">
        <ele>307.6</ele>
      </trkpt>
      <trkpt lat="45.75063" lon="5.79301">
        <ele>309.6</ele>
      </trkpt>
      <trkpt lat="45.75078" lon="5.79305">
        <ele>310.9</ele>
      </trkpt>
      <trkpt lat="45.75089" lon="5.79306">
        <ele>311.2</ele>
      </trkpt>
      <trkpt lat="45.75105" lon="5.79309">
        <ele>311</ele>
      </trkpt>
      <trkpt lat="45.75118" lon="5.79313">
        <ele>310.8</ele>
      </trkpt>
      <trkpt lat="45.75135" lon="5.79323">
        <ele>310.8</ele>
      </trkpt>
      <trkpt lat="45.75143" lon="5.79347">
        <ele>312.9</ele>
      </trkpt>
      <trkpt lat="45.75129" lon="5.79364">
        <ele>315.8</ele>
      </trkpt>
      <trkpt lat="45.7512" lon="5.79379">
        <ele>318.2</ele>
      </trkpt>
      <trkpt lat="45.75111" lon="5.79392">
        <ele>320.7</ele>
      </trkpt>
      <trkpt lat="45.75099" lon="5.79399">
        <ele>322.3</ele>
      </trkpt>
      <trkpt lat="45.75085" lon="5.79408">
        <ele>324.3</ele>
      </trkpt>
      <trkpt lat="45.75078" lon="5.79415">
        <ele>325.5</ele>
      </trkpt>
      <trkpt lat="45.75064" lon="5.7942">
        <ele>325.9</ele>
      </trkpt>
      <trkpt lat="45.75044" lon="5.79434">
        <ele>327.5</ele>
      </trkpt>
      <trkpt lat="45.75024" lon="5.79438">
        <ele>327.9</ele>
      </trkpt>
      <trkpt lat="45.75003" lon="5.79447">
        <ele>329.2</ele>
      </trkpt>
      <trkpt lat="45.74976" lon="5.79463">
        <ele>328.8</ele>
      </trkpt>
      <trkpt lat="45.7497" lon="5.79472">
        <ele>329.9</ele>
      </trkpt>
      <trkpt lat="45.7496" lon="5.79482">
        <ele>330.7</ele>
      </trkpt>
      <trkpt lat="45.74959" lon="5.79497">
        <ele>334</ele>
      </trkpt>
      <trkpt lat="45.74962" lon="5.79505">
        <ele>335.2</ele>
      </trkpt>
      <trkpt lat="45.74975" lon="5.79508">
        <ele>336.9</ele>
      </trkpt>
      <trkpt lat="45.75024" lon="5.79497">
        <ele>338.8</ele>
      </trkpt>
      <trkpt lat="45.75062" lon="5.79504">
        <ele>338.8</ele>
      </trkpt>
      <trkpt lat="45.75083" lon="5.79512">
        <ele>339.2</ele>
      </trkpt>
      <trkpt lat="45.75127" lon="5.79534">
        <ele>340.7</ele>
      </trkpt>
      <trkpt lat="45.75157" lon="5.79544">
        <ele>341.9</ele>
      </trkpt>
      <trkpt lat="45.75204" lon="5.79537">
        <ele>343.8</ele>
      </trkpt>
      <trkpt lat="45.75253" lon="5.79501">
        <ele>338.4</ele>
      </trkpt>
      <trkpt lat="45.75262" lon="5.79495">
        <ele>336.8</ele>
      </trkpt>
      <trkpt lat="45.75272" lon="5.79489">
        <ele>335.2</ele>
      </trkpt>
      <trkpt lat="45.75282" lon="5.79485">
        <ele>334.4</ele>
      </trkpt>
      <trkpt lat="45.75294" lon="5.79483">
        <ele>333.9</ele>
      </trkpt>
      <trkpt lat="45.75315" lon="5.79482">
        <ele>334.4</ele>
      </trkpt>
      <trkpt lat="45.75393" lon="5.79478">
        <ele>330.8</ele>
      </trkpt>
      <trkpt lat="45.75427" lon="5.79483">
        <ele>330.2</ele>
      </trkpt>
      <trkpt lat="45.7547" lon="5.79488">
        <ele>327.1</ele>
      </trkpt>
      <trkpt lat="45.75558" lon="5.79495">
        <ele>322.8</ele>
      </trkpt>
      <trkpt lat="45.75567" lon="5.79493">
        <ele>322.4</ele>
      </trkpt>
      <trkpt lat="45.75575" lon="5.7949">
        <ele>321.9</ele>
      </trkpt>
      <trkpt lat="45.7558" lon="5.79494">
        <ele>321.9</ele>
      </trkpt>
      <trkpt lat="45.75605" lon="5.79532">
        <ele>326.1</ele>
      </trkpt>
      <trkpt lat="45.75619" lon="5.79565">
        <ele>328.9</ele>
      </trkpt>
      <trkpt lat="45.75641" lon="5.796">
        <ele>329</ele>
      </trkpt>
      <trkpt lat="45.75668" lon="5.79611">
        <ele>327</ele>
      </trkpt>
      <trkpt lat="45.75708" lon="5.79614">
        <ele>326.6</ele>
      </trkpt>
      <trkpt lat="45.75714" lon="5.79618">
        <ele>326.5</ele>
      </trkpt>
      <trkpt lat="45.75718" lon="5.79627">
        <ele>326.6</ele>
      </trkpt>
      <trkpt lat="45.75718" lon="5.79637">
        <ele>326.8</ele>
      </trkpt>
      <trkpt lat="45.7571" lon="5.79669">
        <ele>327.6</ele>
      </trkpt>
      <trkpt lat="45.75711" lon="5.79687">
        <ele>328.9</ele>
      </trkpt>
      <trkpt lat="45.75729" lon="5.79681">
        <ele>327.5</ele>
      </trkpt>
      <trkpt lat="45.75772" lon="5.79661">
        <ele>325.7</ele>
      </trkpt>
      <trkpt lat="45.75805" lon="5.79648">
        <ele>324.9</ele>
      </trkpt>
      <trkpt lat="45.75815" lon="5.79646">
        <ele>324.7</ele>
      </trkpt>
      <trkpt lat="45.75825" lon="5.79654">
        <ele>324.7</ele>
      </trkpt>
      <trkpt lat="45.7583" lon="5.79675">
        <ele>326.7</ele>
      </trkpt>
      <trkpt lat="45.75832" lon="5.79682">
        <ele>328.2</ele>
      </trkpt>
      <trkpt lat="45.75841" lon="5.79688">
        <ele>329.9</ele>
      </trkpt>
      <trkpt lat="45.75854" lon="5.79694">
        <ele>331.9</ele>
      </trkpt>
      <trkpt lat="45.7588" lon="5.79703">
        <ele>334.7</ele>
      </trkpt>
      <trkpt lat="45.75892" lon="5.79708">
        <ele>336.1</ele>
      </trkpt>
      <trkpt lat="45.75948" lon="5.79714">
        <ele>335.5</ele>
      </trkpt>
      <trkpt lat="45.75966" lon="5.79719">
        <ele>334.6</ele>
      </trkpt>
      <trkpt lat="45.7598" lon="5.7973">
        <ele>334.5</ele>
      </trkpt>
      <trkpt lat="45.75992" lon="5.79747">
        <ele>334.8</ele>
      </trkpt>
      <trkpt lat="45.76" lon="5.79755">
        <ele>334.9</ele>
      </trkpt>
      <trkpt lat="45.76013" lon="5.79783">
        <ele>339.6</ele>
      </trkpt>
      <trkpt lat="45.76031" lon="5.79765">
        <ele>336.9</ele>
      </trkpt>
      <trkpt lat="45.76045" lon="5.79754">
        <ele>336</ele>
      </trkpt>
      <trkpt lat="45.7604" lon="5.7973">
        <ele>333.9</ele>
      </trkpt>
      <trkpt lat="45.76035" lon="5.7971">
        <ele>332.2</ele>
      </trkpt>
      <trkpt lat="45.76052" lon="5.79695">
        <ele>331.5</ele>
      </trkpt>
      <trkpt lat="45.76074" lon="5.79678">
        <ele>330.7</ele>
      </trkpt>
      <trkpt lat="45.76097" lon="5.79668">
        <ele>332.6</ele>
      </trkpt>
      <trkpt lat="45.7612" lon="5.79632">
        <ele>335.3</ele>
      </trkpt>
      <trkpt lat="45.76135" lon="5.79609">
        <ele>336.4</ele>
      </trkpt>
      <trkpt lat="45.7614" lon="5.79583">
        <ele>335.8</ele>
      </trkpt>
      <trkpt lat="45.76135" lon="5.79551">
        <ele>334.4</ele>
      </trkpt>
      <trkpt lat="45.76126" lon="5.79489">
        <ele>332.2</ele>
      </trkpt>
      <trkpt lat="45.76128" lon="5.79471">
        <ele>332.4</ele>
      </trkpt>
      <trkpt lat="45.76131" lon="5.7944">
        <ele>332.8</ele>
      </trkpt>
      <trkpt lat="45.76126" lon="5.79413">
        <ele>332.8</ele>
      </trkpt>
      <trkpt lat="45.76124" lon="5.794">
        <ele>333.3</ele>
      </trkpt>
      <trkpt lat="45.76136" lon="5.79399">
        <ele>334</ele>
      </trkpt>
      <trkpt lat="45.76124" lon="5.79324">
        <ele>338.4</ele>
      </trkpt>
      <trkpt lat="45.76121" lon="5.7932">
        <ele>339</ele>
      </trkpt>
      <trkpt lat="45.76117" lon="5.79317">
        <ele>339.4</ele>
      </trkpt>
      <trkpt lat="45.76101" lon="5.79318">
        <ele>339.3</ele>
      </trkpt>
      <trkpt lat="45.7608" lon="5.79322">
        <ele>338.6</ele>
      </trkpt>
      <trkpt lat="45.76124" lon="5.79324">
        <ele>338.4</ele>
      </trkpt>
      <trkpt lat="45.76174" lon="5.79297">
        <ele>343</ele>
      </trkpt>
      <trkpt lat="45.76202" lon="5.79284">
        <ele>346</ele>
      </trkpt>
      <trkpt lat="45.76228" lon="5.79258">
        <ele>349.8</ele>
      </trkpt>
      <trkpt lat="45.76262" lon="5.79233">
        <ele>354.4</ele>
      </trkpt>
      <trkpt lat="45.76294" lon="5.7922">
        <ele>358.9</ele>
      </trkpt>
      <trkpt lat="45.7632" lon="5.79199">
        <ele>363.7</ele>
      </trkpt>
      <trkpt lat="45.76345" lon="5.79187">
        <ele>367.7</ele>
      </trkpt>
      <trkpt lat="45.76408" lon="5.79163">
        <ele>376.8</ele>
      </trkpt>
      <trkpt lat="45.76441" lon="5.79146">
        <ele>384.1</ele>
      </trkpt>
      <trkpt lat="45.76478" lon="5.7912">
        <ele>392.5</ele>
      </trkpt>
      <trkpt lat="45.76537" lon="5.79102">
        <ele>399.6</ele>
      </trkpt>
      <trkpt lat="45.76569" lon="5.79087">
        <ele>402.2</ele>
      </trkpt>
      <trkpt lat="45.76604" lon="5.79079">
        <ele>403.9</ele>
      </trkpt>
      <trkpt lat="45.76643" lon="5.79076">
        <ele>406.1</ele>
      </trkpt>
      <trkpt lat="45.76647" lon="5.79076">
        <ele>406.4</ele>
      </trkpt>
      <trkpt lat="45.7669" lon="5.79077">
        <ele>407</ele>
      </trkpt>
      <trkpt lat="45.76717" lon="5.79071">
        <ele>406</ele>
      </trkpt>
      <trkpt lat="45.76753" lon="5.79056">
        <ele>404.2</ele>
      </trkpt>
      <trkpt lat="45.76787" lon="5.79051">
        <ele>405.4</ele>
      </trkpt>
      <trkpt lat="45.76816" lon="5.79051">
        <ele>406.7</ele>
      </trkpt>
      <trkpt lat="45.76816" lon="5.79027">
        <ele>404.2</ele>
      </trkpt>
      <trkpt lat="45.76822" lon="5.78994">
        <ele>401.1</ele>
      </trkpt>
      <trkpt lat="45.76827" lon="5.78988">
        <ele>400.6</ele>
      </trkpt>
      <trkpt lat="45.7683" lon="5.78982">
        <ele>400.2</ele>
      </trkpt>
      <trkpt lat="45.76874" lon="5.78938">
        <ele>400.8</ele>
      </trkpt>
      <trkpt lat="45.7689" lon="5.78923">
        <ele>401.8</ele>
      </trkpt>
      <trkpt lat="45.76904" lon="5.78915">
        <ele>403</ele>
      </trkpt>
      <trkpt lat="45.76914" lon="5.7891">
        <ele>403.4</ele>
      </trkpt>
      <trkpt lat="45.76923" lon="5.78908">
        <ele>403.6</ele>
      </trkpt>
      <trkpt lat="45.7693" lon="5.78909">
        <ele>404.2</ele>
      </trkpt>
      <trkpt lat="45.7694" lon="5.78905">
        <ele>403.8</ele>
      </trkpt>
      <trkpt lat="45.76955" lon="5.78897">
        <ele>403</ele>
      </trkpt>
      <trkpt lat="45.76957" lon="5.78891">
        <ele>401.7</ele>
      </trkpt>
      <trkpt lat="45.76964" lon="5.78885">
        <ele>400.8</ele>
      </trkpt>
      <trkpt lat="45.77026" lon="5.78895">
        <ele>404.2</ele>
      </trkpt>
      <trkpt lat="45.77139" lon="5.78896">
        <ele>399.9</ele>
      </trkpt>
      <trkpt lat="45.77157" lon="5.78897">
        <ele>399.1</ele>
      </trkpt>
      <trkpt lat="45.77169" lon="5.78882">
        <ele>395</ele>
      </trkpt>
      <trkpt lat="45.77204" lon="5.78874">
        <ele>390.9</ele>
      </trkpt>
      <trkpt lat="45.77229" lon="5.78873">
        <ele>389</ele>
      </trkpt>
      <trkpt lat="45.77252" lon="5.78877">
        <ele>388.3</ele>
      </trkpt>
      <trkpt lat="45.77268" lon="5.78884">
        <ele>388.6</ele>
      </trkpt>
      <trkpt lat="45.77375" lon="5.78837">
        <ele>382.5</ele>
      </trkpt>
      <trkpt lat="45.77436" lon="5.78829">
        <ele>388.1</ele>
      </trkpt>
      <trkpt lat="45.77509" lon="5.78817">
        <ele>396.1</ele>
      </trkpt>
      <trkpt lat="45.77558" lon="5.78801">
        <ele>402.1</ele>
      </trkpt>
      <trkpt lat="45.77642" lon="5.78791">
        <ele>412.4</ele>
      </trkpt>
      <trkpt lat="45.77738" lon="5.78786">
        <ele>423.4</ele>
      </trkpt>
      <trkpt lat="45.77856" lon="5.78793">
        <ele>431.4</ele>
      </trkpt>
      <trkpt lat="45.77908" lon="5.78788">
        <ele>432.8</ele>
      </trkpt>
      <trkpt lat="45.77959" lon="5.78806">
        <ele>438.6</ele>
      </trkpt>
      <trkpt lat="45.77998" lon="5.78781">
        <ele>435.9</ele>
      </trkpt>
      <trkpt lat="45.78088" lon="5.78773">
        <ele>437.6</ele>
      </trkpt>
      <trkpt lat="45.78196" lon="5.78791">
        <ele>439.7</ele>
      </trkpt>
      <trkpt lat="45.78254" lon="5.78805">
        <ele>440.8</ele>
      </trkpt>
      <trkpt lat="45.78292" lon="5.78819">
        <ele>440.6</ele>
      </trkpt>
      <trkpt lat="45.78327" lon="5.78827">
        <ele>439.7</ele>
      </trkpt>
      <trkpt lat="45.78361" lon="5.78835">
        <ele>439.3</ele>
      </trkpt>
      <trkpt lat="45.78431" lon="5.78846">
        <ele>438.6</ele>
      </trkpt>
      <trkpt lat="45.78478" lon="5.78866">
        <ele>438.8</ele>
      </trkpt>
      <trkpt lat="45.78536" lon="5.78877">
        <ele>438.3</ele>
      </trkpt>
      <trkpt lat="45.78563" lon="5.7888">
        <ele>438.4</ele>
      </trkpt>
      <trkpt lat="45.78605" lon="5.78894">
        <ele>439.2</ele>
      </trkpt>
      <trkpt lat="45.78657" lon="5.78894">
        <ele>438.5</ele>
      </trkpt>
      <trkpt lat="45.78732" lon="5.78889">
        <ele>439.5</ele>
      </trkpt>
      <trkpt lat="45.78781" lon="5.78897">
        <ele>439.3</ele>
      </trkpt>
      <trkpt lat="45.7882" lon="5.78912">
        <ele>437.8</ele>
      </trkpt>
      <trkpt lat="45.78858" lon="5.78926">
        <ele>435.1</ele>
      </trkpt>
      <trkpt lat="45.78895" lon="5.78944">
        <ele>432.8</ele>
      </trkpt>
      <trkpt lat="45.78904" lon="5.78949">
        <ele>432.2</ele>
      </trkpt>
      <trkpt lat="45.78958" lon="5.78969">
        <ele>427.7</ele>
      </trkpt>
      <trkpt lat="45.78983" lon="5.7898">
        <ele>425.5</ele>
      </trkpt>
      <trkpt lat="45.79011" lon="5.78977">
        <ele>421.3</ele>
      </trkpt>
      <trkpt lat="45.79053" lon="5.78959">
        <ele>414.1</ele>
      </trkpt>
      <trkpt lat="45.79083" lon="5.78953">
        <ele>409.5</ele>
      </trkpt>
      <trkpt lat="45.79159" lon="5.78971">
        <ele>407.5</ele>
      </trkpt>
      <trkpt lat="45.79263" lon="5.78972">
        <ele>409.8</ele>
      </trkpt>
      <trkpt lat="45.79387" lon="5.78987">
        <ele>405.4</ele>
      </trkpt>
      <trkpt lat="45.79388" lon="5.78973">
        <ele>403.7</ele>
      </trkpt>
      <trkpt lat="45.794" lon="5.78965">
        <ele>402.1</ele>
      </trkpt>
      <trkpt lat="45.7943" lon="5.78963">
        <ele>400.2</ele>
      </trkpt>
      <trkpt lat="45.79452" lon="5.78964">
        <ele>399.3</ele>
      </trkpt>
      <trkpt lat="45.79459" lon="5.78961">
        <ele>398.8</ele>
      </trkpt>
      <trkpt lat="45.79481" lon="5.78949">
        <ele>397.8</ele>
      </trkpt>
      <trkpt lat="45.79489" lon="5.78949">
        <ele>397.5</ele>
      </trkpt>
      <trkpt lat="45.79516" lon="5.78953">
        <ele>396.4</ele>
      </trkpt>
      <trkpt lat="45.79529" lon="5.78951">
        <ele>395.8</ele>
      </trkpt>
      <trkpt lat="45.79546" lon="5.7895">
        <ele>395</ele>
      </trkpt>
      <trkpt lat="45.79592" lon="5.78955">
        <ele>392.4</ele>
      </trkpt>
      <trkpt lat="45.79615" lon="5.78956">
        <ele>390.5</ele>
      </trkpt>
      <trkpt lat="45.79638" lon="5.78954">
        <ele>388.7</ele>
      </trkpt>
      <trkpt lat="45.79681" lon="5.78949">
        <ele>384.3</ele>
      </trkpt>
      <trkpt lat="45.79694" lon="5.78953">
        <ele>382.7</ele>
      </trkpt>
      <trkpt lat="45.79714" lon="5.78958">
        <ele>380.5</ele>
      </trkpt>
      <trkpt lat="45.79726" lon="5.78959">
        <ele>379.1</ele>
      </trkpt>
      <trkpt lat="45.79735" lon="5.78959">
        <ele>378</ele>
      </trkpt>
      <trkpt lat="45.79746" lon="5.78953">
        <ele>375.9</ele>
      </trkpt>
      <trkpt lat="45.7976" lon="5.78948">
        <ele>374.3</ele>
      </trkpt>
      <trkpt lat="45.79773" lon="5.78947">
        <ele>373.5</ele>
      </trkpt>
      <trkpt lat="45.79786" lon="5.78947">
        <ele>372.8</ele>
      </trkpt>
      <trkpt lat="45.79802" lon="5.78951">
        <ele>372.5</ele>
      </trkpt>
      <trkpt lat="45.79822" lon="5.78955">
        <ele>372.1</ele>
      </trkpt>
      <trkpt lat="45.79839" lon="5.78958">
        <ele>371.6</ele>
      </trkpt>
      <trkpt lat="45.79848" lon="5.7896">
        <ele>371.4</ele>
      </trkpt>
      <trkpt lat="45.79862" lon="5.78965">
        <ele>371.1</ele>
      </trkpt>
      <trkpt lat="45.79901" lon="5.78976">
        <ele>369.7</ele>
      </trkpt>
      <trkpt lat="45.79911" lon="5.78978">
        <ele>369.3</ele>
      </trkpt>
      <trkpt lat="45.7992" lon="5.78978">
        <ele>368.6</ele>
      </trkpt>
      <trkpt lat="45.79934" lon="5.78974">
        <ele>366.9</ele>
      </trkpt>
      <trkpt lat="45.79948" lon="5.78969">
        <ele>365.2</ele>
      </trkpt>
      <trkpt lat="45.79961" lon="5.78966">
        <ele>363.9</ele>
      </trkpt>
      <trkpt lat="45.79974" lon="5.78967">
        <ele>362.8</ele>
      </trkpt>
      <trkpt lat="45.79987" lon="5.78972">
        <ele>361.8</ele>
      </trkpt>
      <trkpt lat="45.7999" lon="5.78973">
        <ele>361.6</ele>
      </trkpt>
      <trkpt lat="45.80003" lon="5.78977">
        <ele>360.4</ele>
      </trkpt>
      <trkpt lat="45.80039" lon="5.78995">
        <ele>356.8</ele>
      </trkpt>
      <trkpt lat="45.80057" lon="5.79009">
        <ele>355</ele>
      </trkpt>
      <trkpt lat="45.80064" lon="5.79019">
        <ele>354.3</ele>
      </trkpt>
      <trkpt lat="45.80069" lon="5.79025">
        <ele>353.7</ele>
      </trkpt>
      <trkpt lat="45.80074" lon="5.79033">
        <ele>353.2</ele>
      </trkpt>
      <trkpt lat="45.80085" lon="5.7906">
        <ele>351.8</ele>
      </trkpt>
      <trkpt lat="45.80093" lon="5.79074">
        <ele>350.5</ele>
      </trkpt>
      <trkpt lat="45.80101" lon="5.79082">
        <ele>349.3</ele>
      </trkpt>
      <trkpt lat="45.80113" lon="5.79092">
        <ele>348</ele>
      </trkpt>
      <trkpt lat="45.80148" lon="5.79117">
        <ele>343.9</ele>
      </trkpt>
      <trkpt lat="45.80155" lon="5.79122">
        <ele>343</ele>
      </trkpt>
      <trkpt lat="45.80177" lon="5.79137">
        <ele>340.1</ele>
      </trkpt>
      <trkpt lat="45.80184" lon="5.79144">
        <ele>339.3</ele>
      </trkpt>
      <trkpt lat="45.80227" lon="5.79135">
        <ele>332.5</ele>
      </trkpt>
      <trkpt lat="45.80257" lon="5.79142">
        <ele>328.1</ele>
      </trkpt>
      <trkpt lat="45.80285" lon="5.79169">
        <ele>324.8</ele>
      </trkpt>
      <trkpt lat="45.80324" lon="5.79172">
        <ele>320</ele>
      </trkpt>
      <trkpt lat="45.8037" lon="5.79183">
        <ele>313.8</ele>
      </trkpt>
      <trkpt lat="45.80386" lon="5.79196">
        <ele>311.8</ele>
      </trkpt>
      <trkpt lat="45.80413" lon="5.79227">
        <ele>309.5</ele>
      </trkpt>
      <trkpt lat="45.8042" lon="5.79235">
        <ele>309.2</ele>
      </trkpt>
      <trkpt lat="45.80428" lon="5.79218">
        <ele>308.1</ele>
      </trkpt>
      <trkpt lat="45.80438" lon="5.79199">
        <ele>306.6</ele>
      </trkpt>
      <trkpt lat="45.80442" lon="5.79191">
        <ele>305.9</ele>
      </trkpt>
      <trkpt lat="45.80447" lon="5.79185">
        <ele>305.2</ele>
      </trkpt>
      <trkpt lat="45.80456" lon="5.79177">
        <ele>304.2</ele>
      </trkpt>
      <trkpt lat="45.80471" lon="5.79165">
        <ele>302.4</ele>
      </trkpt>
      <trkpt lat="45.80477" lon="5.79158">
        <ele>301.7</ele>
      </trkpt>
      <trkpt lat="45.80482" lon="5.79152">
        <ele>301.2</ele>
      </trkpt>
      <trkpt lat="45.80492" lon="5.79138">
        <ele>300</ele>
      </trkpt>
      <trkpt lat="45.80502" lon="5.79123">
        <ele>298.9</ele>
      </trkpt>
      <trkpt lat="45.80507" lon="5.79117">
        <ele>298.6</ele>
      </trkpt>
      <trkpt lat="45.80513" lon="5.79112">
        <ele>298.3</ele>
      </trkpt>
      <trkpt lat="45.80525" lon="5.79101">
        <ele>297.8</ele>
      </trkpt>
      <trkpt lat="45.8053" lon="5.79096">
        <ele>297.5</ele>
      </trkpt>
      <trkpt lat="45.80536" lon="5.79094">
        <ele>297.3</ele>
      </trkpt>
      <trkpt lat="45.80542" lon="5.79093">
        <ele>297.2</ele>
      </trkpt>
      <trkpt lat="45.80555" lon="5.79092">
        <ele>296.8</ele>
      </trkpt>
      <trkpt lat="45.80568" lon="5.79107">
        <ele>296.7</ele>
      </trkpt>
      <trkpt lat="45.80576" lon="5.79123">
        <ele>296.7</ele>
      </trkpt>
      <trkpt lat="45.80581" lon="5.7913">
        <ele>296.6</ele>
      </trkpt>
      <trkpt lat="45.80586" lon="5.79132">
        <ele>296.3</ele>
      </trkpt>
      <trkpt lat="45.80628" lon="5.79109">
        <ele>291.5</ele>
      </trkpt>
      <trkpt lat="45.8064" lon="5.79094">
        <ele>290</ele>
      </trkpt>
      <trkpt lat="45.8068" lon="5.7905">
        <ele>283.8</ele>
      </trkpt>
      <trkpt lat="45.80731" lon="5.78988">
        <ele>273</ele>
      </trkpt>
      <trkpt lat="45.80757" lon="5.79007">
        <ele>266</ele>
      </trkpt>
      <trkpt lat="45.80765" lon="5.79028">
        <ele>262.5</ele>
      </trkpt>
      <trkpt lat="45.80762" lon="5.79045">
        <ele>262.1</ele>
      </trkpt>
      <trkpt lat="45.80739" lon="5.79081">
        <ele>265.5</ele>
      </trkpt>
      <trkpt lat="45.80736" lon="5.79087">
        <ele>266.2</ele>
      </trkpt>
      <trkpt lat="45.80736" lon="5.79094">
        <ele>266.7</ele>
      </trkpt>
      <trkpt lat="45.80736" lon="5.79102">
        <ele>267.1</ele>
      </trkpt>
      <trkpt lat="45.80765" lon="5.79095">
        <ele>258.8</ele>
      </trkpt>
      <trkpt lat="45.80781" lon="5.79089">
        <ele>254.7</ele>
      </trkpt>
      <trkpt lat="45.80786" lon="5.79091">
        <ele>253.5</ele>
      </trkpt>
      <trkpt lat="45.8079" lon="5.79095">
        <ele>252.7</ele>
      </trkpt>
      <trkpt lat="45.80793" lon="5.79098">
        <ele>252.1</ele>
      </trkpt>
      <trkpt lat="45.80799" lon="5.79106">
        <ele>250.8</ele>
      </trkpt>
      <trkpt lat="45.80836" lon="5.79143">
        <ele>241.8</ele>
      </trkpt>
      <trkpt lat="45.80844" lon="5.79108">
        <ele>241.1</ele>
      </trkpt>
      <trkpt lat="45.80856" lon="5.7906">
        <ele>241.9</ele>
      </trkpt>
      <trkpt lat="45.80863" lon="5.79033">
        <ele>243</ele>
      </trkpt>
      <trkpt lat="45.80866" lon="5.79018">
        <ele>243.7</ele>
      </trkpt>
      <trkpt lat="45.8088" lon="5.7899">
        <ele>243.2</ele>
      </trkpt>
      <trkpt lat="45.80883" lon="5.78982">
        <ele>243.3</ele>
      </trkpt>
      <trkpt lat="45.80883" lon="5.78971">
        <ele>243.9</ele>
      </trkpt>
      <trkpt lat="45.80879" lon="5.78956">
        <ele>245.2</ele>
      </trkpt>
      <trkpt lat="45.80891" lon="5.78947">
        <ele>243.7</ele>
      </trkpt>
      <trkpt lat="45.809" lon="5.78927">
        <ele>243.3</ele>
      </trkpt>
      <trkpt lat="45.80913" lon="5.78917">
        <ele>241.7</ele>
      </trkpt>
      <trkpt lat="45.80925" lon="5.78914">
        <ele>240.3</ele>
      </trkpt>
      <trkpt lat="45.8093" lon="5.78908">
        <ele>239.7</ele>
      </trkpt>
      <trkpt lat="45.80934" lon="5.78901">
        <ele>239.2</ele>
      </trkpt>
      <trkpt lat="45.80939" lon="5.78901">
        <ele>238.9</ele>
      </trkpt>
      <trkpt lat="45.80953" lon="5.7891">
        <ele>238.2</ele>
      </trkpt>
      <trkpt lat="45.80965" lon="5.78917">
        <ele>237.5</ele>
      </trkpt>
      <trkpt lat="45.80969" lon="5.78919">
        <ele>237.3</ele>
      </trkpt>
      <trkpt lat="45.8097" lon="5.78912">
        <ele>237</ele>
      </trkpt>
      <trkpt lat="45.80971" lon="5.78909">
        <ele>236.9</ele>
      </trkpt>
      <trkpt lat="45.80972" lon="5.78902">
        <ele>236.6</ele>
      </trkpt>
      <trkpt lat="45.80972" lon="5.78895">
        <ele>236.4</ele>
      </trkpt>
      <trkpt lat="45.80994" lon="5.78905">
        <ele>235.1</ele>
      </trkpt>
      <trkpt lat="45.81056" lon="5.7895">
        <ele>236</ele>
      </trkpt>
      <trkpt lat="45.81074" lon="5.78957">
        <ele>236.1</ele>
      </trkpt>
      <trkpt lat="45.81109" lon="5.78963">
        <ele>235.4</ele>
      </trkpt>
      <trkpt lat="45.81125" lon="5.78964">
        <ele>234.9</ele>
      </trkpt>
      <trkpt lat="45.8114" lon="5.78959">
        <ele>234.3</ele>
      </trkpt>
      <trkpt lat="45.81136" lon="5.78929">
        <ele>233.7</ele>
      </trkpt>
      <trkpt lat="45.81162" lon="5.78903">
        <ele>233</ele>
      </trkpt>
      <trkpt lat="45.81182" lon="5.7888">
        <ele>233</ele>
      </trkpt>
      <trkpt lat="45.81183" lon="5.78877">
        <ele>233</ele>
      </trkpt>
      <trkpt lat="45.81199" lon="5.78857">
        <ele>233.3</ele>
      </trkpt>
      <trkpt lat="45.81211" lon="5.78828">
        <ele>234</ele>
      </trkpt>
      <trkpt lat="45.81215" lon="5.78828">
        <ele>234.1</ele>
      </trkpt>
      <trkpt lat="45.81219" lon="5.78825">
        <ele>234.1</ele>
      </trkpt>
      <trkpt lat="45.81221" lon="5.78822">
        <ele>234.1</ele>
      </trkpt>
      <trkpt lat="45.81225" lon="5.78816">
        <ele>234.1</ele>
      </trkpt>
      <trkpt lat="45.81228" lon="5.78807">
        <ele>233.9</ele>
      </trkpt>
      <trkpt lat="45.81227" lon="5.78802">
        <ele>233.8</ele>
      </trkpt>
      <trkpt lat="45.81282" lon="5.78779">
        <ele>233.6</ele>
      </trkpt>
      <trkpt lat="45.81422" lon="5.7875">
        <ele>232.9</ele>
      </trkpt>
      <trkpt lat="45.81479" lon="5.78736">
        <ele>232.2</ele>
      </trkpt>
      <trkpt lat="45.81517" lon="5.78733">
        <ele>232</ele>
      </trkpt>
      <trkpt lat="45.81543" lon="5.78731">
        <ele>232</ele>
      </trkpt>
      <trkpt lat="45.81572" lon="5.78738">
        <ele>232</ele>
      </trkpt>
      <trkpt lat="45.81636" lon="5.78737">
        <ele>233.1</ele>
      </trkpt>
      <trkpt lat="45.81686" lon="5.78748">
        <ele>233.7</ele>
      </trkpt>
      <trkpt lat="45.8181" lon="5.78775">
        <ele>233.3</ele>
      </trkpt>
      <trkpt lat="45.81968" lon="5.78838">
        <ele>233.4</ele>
      </trkpt>
      <trkpt lat="45.82067" lon="5.78875">
        <ele>233.8</ele>
      </trkpt>
      <trkpt lat="45.82165" lon="5.78927">
        <ele>234.2</ele>
      </trkpt>
      <trkpt lat="45.82302" lon="5.79011">
        <ele>236.3</ele>
      </trkpt>
      <trkpt lat="45.82393" lon="5.79072">
        <ele>235.1</ele>
      </trkpt>
      <trkpt lat="45.82435" lon="5.79112">
        <ele>234.8</ele>
      </trkpt>
      <trkpt lat="45.82466" lon="5.79135">
        <ele>234.4</ele>
      </trkpt>
      <trkpt lat="45.82551" lon="5.79225">
        <ele>233.5</ele>
      </trkpt>
      <trkpt lat="45.82616" lon="5.79297">
        <ele>233.7</ele>
      </trkpt>
      <trkpt lat="45.82678" lon="5.79377">
        <ele>234.9</ele>
      </trkpt>
      <trkpt lat="45.82772" lon="5.79516">
        <ele>235.5</ele>
      </trkpt>
      <trkpt lat="45.82803" lon="5.79564">
        <ele>235.3</ele>
      </trkpt>
      <trkpt lat="45.82862" lon="5.79651">
        <ele>236.2</ele>
      </trkpt>
      <trkpt lat="45.82933" lon="5.79764">
        <ele>237.2</ele>
      </trkpt>
      <trkpt lat="45.82993" lon="5.79843">
        <ele>237.4</ele>
      </trkpt>
      <trkpt lat="45.8302" lon="5.79801">
        <ele>236.3</ele>
      </trkpt>
      <trkpt lat="45.83022" lon="5.79798">
        <ele>236.3</ele>
      </trkpt>
      <trkpt lat="45.83029" lon="5.79806">
        <ele>235.8</ele>
      </trkpt>
      <trkpt lat="45.83037" lon="5.79818">
        <ele>235.3</ele>
      </trkpt>
      <trkpt lat="45.83049" lon="5.79834">
        <ele>234.7</ele>
      </trkpt>
      <trkpt lat="45.831" lon="5.79909">
        <ele>235.9</ele>
      </trkpt>
      <trkpt lat="45.83135" lon="5.79962">
        <ele>241.5</ele>
      </trkpt>
      <trkpt lat="45.83174" lon="5.80028">
        <ele>242.2</ele>
      </trkpt>
      <trkpt lat="45.83195" lon="5.80064">
        <ele>246.3</ele>
      </trkpt>
      <trkpt lat="45.83217" lon="5.80099">
        <ele>249.1</ele>
      </trkpt>
      <trkpt lat="45.83272" lon="5.80178">
        <ele>255.2</ele>
      </trkpt>
      <trkpt lat="45.83287" lon="5.80194">
        <ele>258.6</ele>
      </trkpt>
      <trkpt lat="45.83322" lon="5.80194">
        <ele>246.9</ele>
      </trkpt>
      <trkpt lat="45.83373" lon="5.80176">
        <ele>239</ele>
      </trkpt>
      <trkpt lat="45.83414" lon="5.8015">
        <ele>237.8</ele>
      </trkpt>
      <trkpt lat="45.83439" lon="5.80137">
        <ele>238.4</ele>
      </trkpt>
      <trkpt lat="45.83445" lon="5.80124">
        <ele>238.5</ele>
      </trkpt>
      <trkpt lat="45.83448" lon="5.801">
        <ele>238.6</ele>
      </trkpt>
      <trkpt lat="45.83486" lon="5.80128">
        <ele>240</ele>
      </trkpt>
      <trkpt lat="45.83552" lon="5.80191">
        <ele>238.2</ele>
      </trkpt>
      <trkpt lat="45.83598" lon="5.80252">
        <ele>238.5</ele>
      </trkpt>
      <trkpt lat="45.83639" lon="5.80316">
        <ele>238.6</ele>
      </trkpt>
      <trkpt lat="45.837" lon="5.80369">
        <ele>237.4</ele>
      </trkpt>
      <trkpt lat="45.83812" lon="5.80403">
        <ele>237.5</ele>
      </trkpt>
      <trkpt lat="45.83871" lon="5.80398">
        <ele>237.9</ele>
      </trkpt>
      <trkpt lat="45.83905" lon="5.80386">
        <ele>237.9</ele>
      </trkpt>
      <trkpt lat="45.83921" lon="5.80393">
        <ele>238</ele>
      </trkpt>
      <trkpt lat="45.83908" lon="5.80348">
        <ele>237.9</ele>
      </trkpt>
      <trkpt lat="45.83892" lon="5.80298">
        <ele>237.1</ele>
      </trkpt>
      <trkpt lat="45.83884" lon="5.80232">
        <ele>235.9</ele>
      </trkpt>
      <trkpt lat="45.83878" lon="5.80189">
        <ele>234.7</ele>
      </trkpt>
      <trkpt lat="45.83867" lon="5.80132">
        <ele>234</ele>
      </trkpt>
      <trkpt lat="45.83873" lon="5.80094">
        <ele>234</ele>
      </trkpt>
      <trkpt lat="45.83866" lon="5.80059">
        <ele>234</ele>
      </trkpt>
      <trkpt lat="45.83861" lon="5.80027">
        <ele>234</ele>
      </trkpt>
      <trkpt lat="45.83856" lon="5.79998">
        <ele>234.1</ele>
      </trkpt>
      <trkpt lat="45.8385" lon="5.79948">
        <ele>235.5</ele>
      </trkpt>
      <trkpt lat="45.83845" lon="5.79895">
        <ele>236.8</ele>
      </trkpt>
      <trkpt lat="45.83825" lon="5.79825">
        <ele>236.6</ele>
      </trkpt>
      <trkpt lat="45.83924" lon="5.79798">
        <ele>239.7</ele>
      </trkpt>
      <trkpt lat="45.83979" lon="5.79784">
        <ele>238.7</ele>
      </trkpt>
      <trkpt lat="45.84028" lon="5.79775">
        <ele>237.9</ele>
      </trkpt>
      <trkpt lat="45.84042" lon="5.79776">
        <ele>237.7</ele>
      </trkpt>
      <trkpt lat="45.84131" lon="5.79791">
        <ele>235.3</ele>
      </trkpt>
      <trkpt lat="45.84228" lon="5.79827">
        <ele>234.9</ele>
      </trkpt>
      <trkpt lat="45.84239" lon="5.79832">
        <ele>235</ele>
      </trkpt>
      <trkpt lat="45.84276" lon="5.79848">
        <ele>234.8</ele>
      </trkpt>
      <trkpt lat="45.8433" lon="5.79884">
        <ele>236.6</ele>
      </trkpt>
      <trkpt lat="45.8438" lon="5.79927">
        <ele>236.1</ele>
      </trkpt>
      <trkpt lat="45.84436" lon="5.79985">
        <ele>237.6</ele>
      </trkpt>
      <trkpt lat="45.84483" lon="5.80039">
        <ele>237.2</ele>
      </trkpt>
      <trkpt lat="45.84558" lon="5.80126">
        <ele>236.6</ele>
      </trkpt>
      <trkpt lat="45.84597" lon="5.80171">
        <ele>237.6</ele>
      </trkpt>
      <trkpt lat="45.84646" lon="5.80227">
        <ele>237</ele>
      </trkpt>
      <trkpt lat="45.84698" lon="5.80285">
        <ele>236.8</ele>
      </trkpt>
      <trkpt lat="45.84725" lon="5.80321">
        <ele>236.9</ele>
      </trkpt>
      <trkpt lat="45.84757" lon="5.80357">
        <ele>237.2</ele>
      </trkpt>
      <trkpt lat="45.84786" lon="5.80377">
        <ele>237.3</ele>
      </trkpt>
      <trkpt lat="45.84822" lon="5.80373">
        <ele>237</ele>
      </trkpt>
      <trkpt lat="45.84835" lon="5.80373">
        <ele>237</ele>
      </trkpt>
      <trkpt lat="45.84866" lon="5.8038">
        <ele>237.5</ele>
      </trkpt>
      <trkpt lat="45.84887" lon="5.80401">
        <ele>238.7</ele>
      </trkpt>
      <trkpt lat="45.84904" lon="5.80249">
        <ele>233.4</ele>
      </trkpt>
      <trkpt lat="45.84929" lon="5.80031">
        <ele>238</ele>
      </trkpt>
      <trkpt lat="45.84944" lon="5.79908">
        <ele>238.5</ele>
      </trkpt>
      <trkpt lat="45.84945" lon="5.79878">
        <ele>238</ele>
      </trkpt>
      <trkpt lat="45.84945" lon="5.79861">
        <ele>237.8</ele>
      </trkpt>
      <trkpt lat="45.84948" lon="5.7983">
        <ele>237.3</ele>
      </trkpt>
      <trkpt lat="45.84953" lon="5.79822">
        <ele>237.3</ele>
      </trkpt>
      <trkpt lat="45.8495" lon="5.79827">
        <ele>237.3</ele>
      </trkpt>
      <trkpt lat="45.84948" lon="5.7983">
        <ele>237.3</ele>
      </trkpt>
      <trkpt lat="45.84942" lon="5.79832">
        <ele>237.3</ele>
      </trkpt>
      <trkpt lat="45.84937" lon="5.79831">
        <ele>237.2</ele>
      </trkpt>
      <trkpt lat="45.84934" lon="5.7983">
        <ele>237.2</ele>
      </trkpt>
      <trkpt lat="45.84931" lon="5.79826">
        <ele>237.1</ele>
      </trkpt>
      <trkpt lat="45.84928" lon="5.79822">
        <ele>237</ele>
      </trkpt>
      <trkpt lat="45.84926" lon="5.79816">
        <ele>236.9</ele>
      </trkpt>
      <trkpt lat="45.84926" lon="5.7981">
        <ele>236.8</ele>
      </trkpt>
      <trkpt lat="45.84927" lon="5.79803">
        <ele>236.8</ele>
      </trkpt>
      <trkpt lat="45.84929" lon="5.79798">
        <ele>236.7</ele>
      </trkpt>
      <trkpt lat="45.84932" lon="5.79793">
        <ele>236.7</ele>
      </trkpt>
      <trkpt lat="45.84936" lon="5.7979">
        <ele>236.7</ele>
      </trkpt>
      <trkpt lat="45.84941" lon="5.7979">
        <ele>236.8</ele>
      </trkpt>
      <trkpt lat="45.84945" lon="5.79791">
        <ele>236.8</ele>
      </trkpt>
      <trkpt lat="45.84949" lon="5.79794">
        <ele>236.9</ele>
      </trkpt>
      <trkpt lat="45.84953" lon="5.79799">
        <ele>237</ele>
      </trkpt>
      <trkpt lat="45.84955" lon="5.79804">
        <ele>237.1</ele>
      </trkpt>
      <trkpt lat="45.84955" lon="5.7981">
        <ele>237.2</ele>
      </trkpt>
      <trkpt lat="45.84955" lon="5.79817">
        <ele>237.3</ele>
      </trkpt>
      <trkpt lat="45.84953" lon="5.79822">
        <ele>237.3</ele>
      </trkpt>
      <trkpt lat="45.84953" lon="5.79799">
        <ele>237</ele>
      </trkpt>
      <trkpt lat="45.84958" lon="5.79792">
        <ele>237</ele>
      </trkpt>
      <trkpt lat="45.84969" lon="5.79775">
        <ele>236.9</ele>
      </trkpt>
      <trkpt lat="45.84974" lon="5.79767">
        <ele>236.9</ele>
      </trkpt>
      <trkpt lat="45.84991" lon="5.79736">
        <ele>236.7</ele>
      </trkpt>
      <trkpt lat="45.85058" lon="5.79581">
        <ele>236.7</ele>
      </trkpt>
      <trkpt lat="45.85071" lon="5.79553">
        <ele>236.8</ele>
      </trkpt>
      <trkpt lat="45.85115" lon="5.79455">
        <ele>236.8</ele>
      </trkpt>
      <trkpt lat="45.85108" lon="5.79428">
        <ele>236.4</ele>
      </trkpt>
      <trkpt lat="45.8511" lon="5.79421">
        <ele>236.4</ele>
      </trkpt>
      <trkpt lat="45.85113" lon="5.79415">
        <ele>236.4</ele>
      </trkpt>
      <trkpt lat="45.85118" lon="5.79411">
        <ele>236.4</ele>
      </trkpt>
      <trkpt lat="45.85124" lon="5.7941">
        <ele>236.5</ele>
      </trkpt>
      <trkpt lat="45.85129" lon="5.79411">
        <ele>236.5</ele>
      </trkpt>
      <trkpt lat="45.85134" lon="5.79414">
        <ele>236.6</ele>
      </trkpt>
      <trkpt lat="45.85138" lon="5.7942">
        <ele>236.7</ele>
      </trkpt>
      <trkpt lat="45.8514" lon="5.79426">
        <ele>236.8</ele>
      </trkpt>
      <trkpt lat="45.85141" lon="5.79434">
        <ele>236.9</ele>
      </trkpt>
      <trkpt lat="45.8514" lon="5.79441">
        <ele>237</ele>
      </trkpt>
      <trkpt lat="45.85138" lon="5.79448">
        <ele>237</ele>
      </trkpt>
      <trkpt lat="45.85134" lon="5.79453">
        <ele>237.1</ele>
      </trkpt>
      <trkpt lat="45.8513" lon="5.79457">
        <ele>237</ele>
      </trkpt>
      <trkpt lat="45.85125" lon="5.79458">
        <ele>237</ele>
      </trkpt>
      <trkpt lat="45.8512" lon="5.79458">
        <ele>236.9</ele>
      </trkpt>
      <trkpt lat="45.85115" lon="5.79455">
        <ele>236.8</ele>
      </trkpt>
      <trkpt lat="45.85111" lon="5.7945">
        <ele>236.7</ele>
      </trkpt>
      <trkpt lat="45.85108" lon="5.79443">
        <ele>236.6</ele>
      </trkpt>
      <trkpt lat="45.85107" lon="5.79436">
        <ele>236.5</ele>
      </trkpt>
      <trkpt lat="45.85108" lon="5.79428">
        <ele>236.4</ele>
      </trkpt>
      <trkpt lat="45.8511" lon="5.79421">
        <ele>236.4</ele>
      </trkpt>
      <trkpt lat="45.85075" lon="5.7938">
        <ele>236.5</ele>
      </trkpt>
      <trkpt lat="45.8504" lon="5.79348">
        <ele>237.7</ele>
      </trkpt>
      <trkpt lat="45.85003" lon="5.7932">
        <ele>238.8</ele>
      </trkpt>
      <trkpt lat="45.84954" lon="5.79287">
        <ele>238.7</ele>
      </trkpt>
      <trkpt lat="45.84927" lon="5.79268">
        <ele>238.4</ele>
      </trkpt>
      <trkpt lat="45.84907" lon="5.79247">
        <ele>238.1</ele>
      </trkpt>
      <trkpt lat="45.84894" lon="5.79228">
        <ele>238.1</ele>
      </trkpt>
      <trkpt lat="45.84891" lon="5.79224">
        <ele>238.1</ele>
      </trkpt>
      <trkpt lat="45.84879" lon="5.79195">
        <ele>238.1</ele>
      </trkpt>
      <trkpt lat="45.84873" lon="5.79159">
        <ele>238.1</ele>
      </trkpt>
      <trkpt lat="45.84862" lon="5.79096">
        <ele>238.3</ele>
      </trkpt>
      <trkpt lat="45.84843" lon="5.78986">
        <ele>237.1</ele>
      </trkpt>
      <trkpt lat="45.84838" lon="5.78962">
        <ele>236.7</ele>
      </trkpt>
      <trkpt lat="45.84832" lon="5.78923">
        <ele>236.1</ele>
      </trkpt>
      <trkpt lat="45.84814" lon="5.7883">
        <ele>237.1</ele>
      </trkpt>
      <trkpt lat="45.84805" lon="5.78774">
        <ele>238.2</ele>
      </trkpt>
      <trkpt lat="45.84802" lon="5.78754">
        <ele>238.5</ele>
      </trkpt>
      <trkpt lat="45.84798" lon="5.78733">
        <ele>238.6</ele>
      </trkpt>
      <trkpt lat="45.8479" lon="5.78689">
        <ele>238.4</ele>
      </trkpt>
      <trkpt lat="45.84781" lon="5.78639">
        <ele>238.7</ele>
      </trkpt>
      <trkpt lat="45.84778" lon="5.78618">
        <ele>239</ele>
      </trkpt>
      <trkpt lat="45.84773" lon="5.78587">
        <ele>239.5</ele>
      </trkpt>
      <trkpt lat="45.84771" lon="5.78544">
        <ele>240.3</ele>
      </trkpt>
      <trkpt lat="45.84771" lon="5.78513">
        <ele>241</ele>
      </trkpt>
      <trkpt lat="45.84773" lon="5.78482">
        <ele>241.7</ele>
      </trkpt>
      <trkpt lat="45.84779" lon="5.78435">
        <ele>242.6</ele>
      </trkpt>
      <trkpt lat="45.84787" lon="5.78361">
        <ele>244.3</ele>
      </trkpt>
      <trkpt lat="45.8479" lon="5.78328">
        <ele>245</ele>
      </trkpt>
      <trkpt lat="45.84792" lon="5.78311">
        <ele>245.3</ele>
      </trkpt>
      <trkpt lat="45.84799" lon="5.78241">
        <ele>246.4</ele>
      </trkpt>
      <trkpt lat="45.84807" lon="5.7817">
        <ele>248.6</ele>
      </trkpt>
      <trkpt lat="45.84808" lon="5.78166">
        <ele>248.8</ele>
      </trkpt>
      <trkpt lat="45.84808" lon="5.78159">
        <ele>249.1</ele>
      </trkpt>
      <trkpt lat="45.84812" lon="5.78123">
        <ele>250.8</ele>
      </trkpt>
      <trkpt lat="45.84813" lon="5.78114">
        <ele>251.2</ele>
      </trkpt>
      <trkpt lat="45.84813" lon="5.78107">
        <ele>251.5</ele>
      </trkpt>
      <trkpt lat="45.84823" lon="5.7811">
        <ele>251.7</ele>
      </trkpt>
      <trkpt lat="45.84838" lon="5.78113">
        <ele>252.3</ele>
      </trkpt>
      <trkpt lat="45.84865" lon="5.78118">
        <ele>254.1</ele>
      </trkpt>
      <trkpt lat="45.84881" lon="5.7812">
        <ele>255.1</ele>
      </trkpt>
      <trkpt lat="45.84926" lon="5.78127">
        <ele>257.8</ele>
      </trkpt>
      <trkpt lat="45.84929" lon="5.78127">
        <ele>257.9</ele>
      </trkpt>
      <trkpt lat="45.84936" lon="5.78129">
        <ele>258.2</ele>
      </trkpt>
      <trkpt lat="45.84972" lon="5.78116">
        <ele>260</ele>
      </trkpt>
      <trkpt lat="45.84985" lon="5.78101">
        <ele>261</ele>
      </trkpt>
      <trkpt lat="45.84995" lon="5.78095">
        <ele>261.5</ele>
      </trkpt>
      <trkpt lat="45.85015" lon="5.78076">
        <ele>263.5</ele>
      </trkpt>
      <trkpt lat="45.85018" lon="5.7807">
        <ele>264.1</ele>
      </trkpt>
      <trkpt lat="45.85025" lon="5.78059">
        <ele>265.4</ele>
      </trkpt>
      <trkpt lat="45.85032" lon="5.78049">
        <ele>266.5</ele>
      </trkpt>
      <trkpt lat="45.85041" lon="5.78039">
        <ele>267.6</ele>
      </trkpt>
      <trkpt lat="45.8506" lon="5.78024">
        <ele>269.6</ele>
      </trkpt>
      <trkpt lat="45.85072" lon="5.78013">
        <ele>270.8</ele>
      </trkpt>
      <trkpt lat="45.85075" lon="5.78003">
        <ele>271.5</ele>
      </trkpt>
      <trkpt lat="45.85077" lon="5.77995">
        <ele>272.3</ele>
      </trkpt>
      <trkpt lat="45.851" lon="5.77932">
        <ele>278.8</ele>
      </trkpt>
      <trkpt lat="45.8511" lon="5.7791">
        <ele>281.3</ele>
      </trkpt>
      <trkpt lat="45.85116" lon="5.77901">
        <ele>282.6</ele>
      </trkpt>
      <trkpt lat="45.85122" lon="5.77891">
        <ele>284.2</ele>
      </trkpt>
      <trkpt lat="45.8513" lon="5.77879">
        <ele>285.9</ele>
      </trkpt>
      <trkpt lat="45.85143" lon="5.77852">
        <ele>289.6</ele>
      </trkpt>
      <trkpt lat="45.85148" lon="5.77811">
        <ele>294</ele>
      </trkpt>
      <trkpt lat="45.85148" lon="5.77799">
        <ele>295.1</ele>
      </trkpt>
      <trkpt lat="45.85127" lon="5.77746">
        <ele>297.2</ele>
      </trkpt>
      <trkpt lat="45.85121" lon="5.7774">
        <ele>296.6</ele>
      </trkpt>
      <trkpt lat="45.8512" lon="5.77738">
        <ele>296.5</ele>
      </trkpt>
      <trkpt lat="45.85118" lon="5.7771">
        <ele>296.3</ele>
      </trkpt>
      <trkpt lat="45.85137" lon="5.77692">
        <ele>299.1</ele>
      </trkpt>
      <trkpt lat="45.8514" lon="5.77675">
        <ele>299.7</ele>
      </trkpt>
      <trkpt lat="45.85155" lon="5.77639">
        <ele>300.8</ele>
      </trkpt>
      <trkpt lat="45.85169" lon="5.77609">
        <ele>301.6</ele>
      </trkpt>
      <trkpt lat="45.85215" lon="5.7765">
        <ele>310.1</ele>
      </trkpt>
      <trkpt lat="45.85231" lon="5.77647">
        <ele>312.5</ele>
      </trkpt>
      <trkpt lat="45.8524" lon="5.77655">
        <ele>313.7</ele>
      </trkpt>
      <trkpt lat="45.85256" lon="5.77645">
        <ele>316.3</ele>
      </trkpt>
      <trkpt lat="45.85264" lon="5.77635">
        <ele>318.1</ele>
      </trkpt>
      <trkpt lat="45.85282" lon="5.77619">
        <ele>321.7</ele>
      </trkpt>
      <trkpt lat="45.85298" lon="5.77596">
        <ele>325.8</ele>
      </trkpt>
      <trkpt lat="45.85302" lon="5.77584">
        <ele>327.2</ele>
      </trkpt>
      <trkpt lat="45.85302" lon="5.7757">
        <ele>328.3</ele>
      </trkpt>
      <trkpt lat="45.85305" lon="5.77569">
        <ele>329</ele>
      </trkpt>
      <trkpt lat="45.85312" lon="5.77572">
        <ele>330.5</ele>
      </trkpt>
      <trkpt lat="45.85321" lon="5.77578">
        <ele>331.8</ele>
      </trkpt>
      <trkpt lat="45.85334" lon="5.77562">
        <ele>336.3</ele>
      </trkpt>
      <trkpt lat="45.85345" lon="5.77517">
        <ele>345</ele>
      </trkpt>
      <trkpt lat="45.8535" lon="5.77507">
        <ele>348.2</ele>
      </trkpt>
      <trkpt lat="45.85353" lon="5.77508">
        <ele>349.1</ele>
      </trkpt>
      <trkpt lat="45.85362" lon="5.77527">
        <ele>349.5</ele>
      </trkpt>
      <trkpt lat="45.85367" lon="5.77532">
        <ele>350.5</ele>
      </trkpt>
      <trkpt lat="45.8537" lon="5.77531">
        <ele>351.5</ele>
      </trkpt>
      <trkpt lat="45.85372" lon="5.77527">
        <ele>352.8</ele>
      </trkpt>
      <trkpt lat="45.85371" lon="5.77499">
        <ele>357.4</ele>
      </trkpt>
      <trkpt lat="45.85374" lon="5.77496">
        <ele>359.1</ele>
      </trkpt>
      <trkpt lat="45.85378" lon="5.77496">
        <ele>360.5</ele>
      </trkpt>
      <trkpt lat="45.85384" lon="5.77506">
        <ele>360.9</ele>
      </trkpt>
      <trkpt lat="45.85393" lon="5.77519">
        <ele>361.4</ele>
      </trkpt>
      <trkpt lat="45.85406" lon="5.77522">
        <ele>365.1</ele>
      </trkpt>
      <trkpt lat="45.85421" lon="5.77521">
        <ele>370.4</ele>
      </trkpt>
      <trkpt lat="45.85433" lon="5.77528">
        <ele>374</ele>
      </trkpt>
      <trkpt lat="45.85452" lon="5.77537">
        <ele>379.4</ele>
      </trkpt>
      <trkpt lat="45.8546" lon="5.77544">
        <ele>381.5</ele>
      </trkpt>
      <trkpt lat="45.85465" lon="5.77551">
        <ele>382</ele>
      </trkpt>
      <trkpt lat="45.85471" lon="5.77561">
        <ele>382.6</ele>
      </trkpt>
      <trkpt lat="45.85475" lon="5.77565">
        <ele>383.4</ele>
      </trkpt>
      <trkpt lat="45.85479" lon="5.77579">
        <ele>382.5</ele>
      </trkpt>
      <trkpt lat="45.85479" lon="5.776">
        <ele>381.4</ele>
      </trkpt>
      <trkpt lat="45.85482" lon="5.77634">
        <ele>381.4</ele>
      </trkpt>
      <trkpt lat="45.85489" lon="5.77669">
        <ele>383.3</ele>
      </trkpt>
      <trkpt lat="45.85488" lon="5.77704">
        <ele>382.9</ele>
      </trkpt>
      <trkpt lat="45.85485" lon="5.77725">
        <ele>381.4</ele>
      </trkpt>
      <trkpt lat="45.85487" lon="5.7774">
        <ele>382.4</ele>
      </trkpt>
      <trkpt lat="45.85492" lon="5.77751">
        <ele>384.1</ele>
      </trkpt>
      <trkpt lat="45.85518" lon="5.77786">
        <ele>393</ele>
      </trkpt>
      <trkpt lat="45.85526" lon="5.77805">
        <ele>395.5</ele>
      </trkpt>
      <trkpt lat="45.8554" lon="5.77833">
        <ele>399.3</ele>
      </trkpt>
      <trkpt lat="45.85544" lon="5.77833">
        <ele>401.4</ele>
      </trkpt>
      <trkpt lat="45.85547" lon="5.77829">
        <ele>403.8</ele>
      </trkpt>
      <trkpt lat="45.85546" lon="5.77821">
        <ele>404.2</ele>
      </trkpt>
      <trkpt lat="45.85541" lon="5.77804">
        <ele>403.7</ele>
      </trkpt>
      <trkpt lat="45.85534" lon="5.77775">
        <ele>403.7</ele>
      </trkpt>
      <trkpt lat="45.85533" lon="5.77745">
        <ele>406.6</ele>
      </trkpt>
      <trkpt lat="45.8553" lon="5.77716">
        <ele>404.9</ele>
      </trkpt>
      <trkpt lat="45.85532" lon="5.77692">
        <ele>406.5</ele>
      </trkpt>
      <trkpt lat="45.85531" lon="5.77679">
        <ele>405.9</ele>
      </trkpt>
      <trkpt lat="45.85533" lon="5.77661">
        <ele>406.9</ele>
      </trkpt>
      <trkpt lat="45.85535" lon="5.77649">
        <ele>408.9</ele>
      </trkpt>
      <trkpt lat="45.85542" lon="5.7764">
        <ele>413.2</ele>
      </trkpt>
      <trkpt lat="45.85545" lon="5.77632">
        <ele>414.8</ele>
      </trkpt>
      <trkpt lat="45.85547" lon="5.77623">
        <ele>416.2</ele>
      </trkpt>
      <trkpt lat="45.85544" lon="5.77607">
        <ele>414.8</ele>
      </trkpt>
      <trkpt lat="45.85542" lon="5.77568">
        <ele>416.3</ele>
      </trkpt>
      <trkpt lat="45.85545" lon="5.77564">
        <ele>418.2</ele>
      </trkpt>
      <trkpt lat="45.85549" lon="5.77566">
        <ele>419.8</ele>
      </trkpt>
      <trkpt lat="45.8555" lon="5.77572">
        <ele>420.2</ele>
      </trkpt>
      <trkpt lat="45.85551" lon="5.77596">
        <ele>419.5</ele>
      </trkpt>
      <trkpt lat="45.85564" lon="5.77615">
        <ele>426.3</ele>
      </trkpt>
      <trkpt lat="45.85567" lon="5.77626">
        <ele>427.9</ele>
      </trkpt>
      <trkpt lat="45.85561" lon="5.77649">
        <ele>423.4</ele>
      </trkpt>
      <trkpt lat="45.85559" lon="5.77669">
        <ele>422</ele>
      </trkpt>
      <trkpt lat="45.85561" lon="5.77682">
        <ele>423</ele>
      </trkpt>
      <trkpt lat="45.85565" lon="5.77695">
        <ele>425.4</ele>
      </trkpt>
      <trkpt lat="45.85577" lon="5.77715">
        <ele>431.9</ele>
      </trkpt>
      <trkpt lat="45.85584" lon="5.77731">
        <ele>435.5</ele>
      </trkpt>
      <trkpt lat="45.85586" lon="5.7774">
        <ele>436.4</ele>
      </trkpt>
      <trkpt lat="45.85595" lon="5.7778">
        <ele>436.4</ele>
      </trkpt>
      <trkpt lat="45.85605" lon="5.778">
        <ele>438.9</ele>
      </trkpt>
      <trkpt lat="45.85609" lon="5.77813">
        <ele>439.6</ele>
      </trkpt>
      <trkpt lat="45.85614" lon="5.7782">
        <ele>440.9</ele>
      </trkpt>
      <trkpt lat="45.85617" lon="5.77821">
        <ele>442.4</ele>
      </trkpt>
      <trkpt lat="45.85614" lon="5.77793">
        <ele>444.1</ele>
      </trkpt>
      <trkpt lat="45.85611" lon="5.77753">
        <ele>447.7</ele>
      </trkpt>
      <trkpt lat="45.85611" lon="5.77712">
        <ele>447.9</ele>
      </trkpt>
      <trkpt lat="45.8561" lon="5.77674">
        <ele>447.8</ele>
      </trkpt>
      <trkpt lat="45.85611" lon="5.77664">
        <ele>448.3</ele>
      </trkpt>
      <trkpt lat="45.85613" lon="5.77657">
        <ele>449.4</ele>
      </trkpt>
      <trkpt lat="45.85617" lon="5.77649">
        <ele>451</ele>
      </trkpt>
      <trkpt lat="45.85622" lon="5.77642">
        <ele>453.3</ele>
      </trkpt>
      <trkpt lat="45.85634" lon="5.77634">
        <ele>458.4</ele>
      </trkpt>
      <trkpt lat="45.85642" lon="5.77627">
        <ele>461.5</ele>
      </trkpt>
      <trkpt lat="45.85648" lon="5.77617">
        <ele>464.1</ele>
      </trkpt>
      <trkpt lat="45.85653" lon="5.77606">
        <ele>465.9</ele>
      </trkpt>
      <trkpt lat="45.85659" lon="5.77581">
        <ele>468</ele>
      </trkpt>
      <trkpt lat="45.85665" lon="5.77563">
        <ele>469.8</ele>
      </trkpt>
      <trkpt lat="45.85667" lon="5.77558">
        <ele>470.7</ele>
      </trkpt>
      <trkpt lat="45.85671" lon="5.77556">
        <ele>472.1</ele>
      </trkpt>
      <trkpt lat="45.85676" lon="5.77555">
        <ele>474.2</ele>
      </trkpt>
      <trkpt lat="45.85679" lon="5.77556">
        <ele>475.8</ele>
      </trkpt>
      <trkpt lat="45.85681" lon="5.77546">
        <ele>476.4</ele>
      </trkpt>
      <trkpt lat="45.85685" lon="5.77537">
        <ele>478</ele>
      </trkpt>
      <trkpt lat="45.85698" lon="5.77524">
        <ele>484</ele>
      </trkpt>
      <trkpt lat="45.85704" lon="5.77512">
        <ele>486.5</ele>
      </trkpt>
      <trkpt lat="45.85704" lon="5.77498">
        <ele>487.3</ele>
      </trkpt>
      <trkpt lat="45.85704" lon="5.7749">
        <ele>490</ele>
      </trkpt>
      <trkpt lat="45.85691" lon="5.77473">
        <ele>489.3</ele>
      </trkpt>
      <trkpt lat="45.85679" lon="5.77454">
        <ele>489.4</ele>
      </trkpt>
      <trkpt lat="45.85663" lon="5.77424">
        <ele>490.9</ele>
      </trkpt>
      <trkpt lat="45.85653" lon="5.7741">
        <ele>493.5</ele>
      </trkpt>
      <trkpt lat="45.85639" lon="5.77386">
        <ele>499.9</ele>
      </trkpt>
      <trkpt lat="45.85622" lon="5.77373">
        <ele>500.4</ele>
      </trkpt>
      <trkpt lat="45.85613" lon="5.77364">
        <ele>501.3</ele>
      </trkpt>
      <trkpt lat="45.85596" lon="5.7734">
        <ele>505.5</ele>
      </trkpt>
      <trkpt lat="45.85585" lon="5.77326">
        <ele>507.4</ele>
      </trkpt>
      <trkpt lat="45.85576" lon="5.77305">
        <ele>510.5</ele>
      </trkpt>
      <trkpt lat="45.85571" lon="5.77296">
        <ele>511.3</ele>
      </trkpt>
      <trkpt lat="45.85564" lon="5.7729">
        <ele>509.5</ele>
      </trkpt>
      <trkpt lat="45.85551" lon="5.7729">
        <ele>503.1</ele>
      </trkpt>
      <trkpt lat="45.85542" lon="5.77291">
        <ele>498.4</ele>
      </trkpt>
      <trkpt lat="45.85531" lon="5.77293">
        <ele>491.7</ele>
      </trkpt>
      <trkpt lat="45.85522" lon="5.77298">
        <ele>485.3</ele>
      </trkpt>
      <trkpt lat="45.85514" lon="5.77298">
        <ele>481.3</ele>
      </trkpt>
      <trkpt lat="45.85512" lon="5.77295">
        <ele>481.4</ele>
      </trkpt>
      <trkpt lat="45.85512" lon="5.7729">
        <ele>482.8</ele>
      </trkpt>
      <trkpt lat="45.8553" lon="5.77278">
        <ele>496.7</ele>
      </trkpt>
      <trkpt lat="45.85565" lon="5.7725">
        <ele>524.2</ele>
      </trkpt>
      <trkpt lat="45.85571" lon="5.7725">
        <ele>527.3</ele>
      </trkpt>
      <trkpt lat="45.8558" lon="5.77258">
        <ele>529</ele>
      </trkpt>
      <trkpt lat="45.85593" lon="5.77276">
        <ele>527.9</ele>
      </trkpt>
      <trkpt lat="45.85621" lon="5.77308">
        <ele>526.1</ele>
      </trkpt>
      <trkpt lat="45.85646" lon="5.7732">
        <ele>530.3</ele>
      </trkpt>
      <trkpt lat="45.85666" lon="5.77329">
        <ele>534.4</ele>
      </trkpt>
      <trkpt lat="45.85676" lon="5.77333">
        <ele>537.8</ele>
      </trkpt>
      <trkpt lat="45.85681" lon="5.77335">
        <ele>539.9</ele>
      </trkpt>
      <trkpt lat="45.85684" lon="5.77336">
        <ele>540.7</ele>
      </trkpt>
      <trkpt lat="45.85685" lon="5.77333">
        <ele>542.8</ele>
      </trkpt>
      <trkpt lat="45.85686" lon="5.77329">
        <ele>544.6</ele>
      </trkpt>
      <trkpt lat="45.85685" lon="5.77325">
        <ele>545.3</ele>
      </trkpt>
      <trkpt lat="45.8568" lon="5.77322">
        <ele>543.6</ele>
      </trkpt>
      <trkpt lat="45.85657" lon="5.77307">
        <ele>539</ele>
      </trkpt>
      <trkpt lat="45.85642" lon="5.77288">
        <ele>540.2</ele>
      </trkpt>
      <trkpt lat="45.85638" lon="5.77258">
        <ele>549.3</ele>
      </trkpt>
      <trkpt lat="45.85625" lon="5.77246">
        <ele>548.9</ele>
      </trkpt>
      <trkpt lat="45.85617" lon="5.77229">
        <ele>551.1</ele>
      </trkpt>
      <trkpt lat="45.85616" lon="5.77219">
        <ele>553.2</ele>
      </trkpt>
      <trkpt lat="45.85618" lon="5.772">
        <ele>559.2</ele>
      </trkpt>
      <trkpt lat="45.85621" lon="5.77184">
        <ele>564.6</ele>
      </trkpt>
      <trkpt lat="45.85621" lon="5.77167">
        <ele>569.1</ele>
      </trkpt>
      <trkpt lat="45.85624" lon="5.77163">
        <ele>571.1</ele>
      </trkpt>
      <trkpt lat="45.85626" lon="5.77163">
        <ele>571.8</ele>
      </trkpt>
      <trkpt lat="45.8563" lon="5.77166">
        <ele>572.2</ele>
      </trkpt>
      <trkpt lat="45.85632" lon="5.77177">
        <ele>570.2</ele>
      </trkpt>
      <trkpt lat="45.85635" lon="5.77181">
        <ele>569.7</ele>
      </trkpt>
      <trkpt lat="45.85641" lon="5.77206">
        <ele>565.2</ele>
      </trkpt>
      <trkpt lat="45.85658" lon="5.7722">
        <ele>567</ele>
      </trkpt>
      <trkpt lat="45.85674" lon="5.77248">
        <ele>565.8</ele>
      </trkpt>
      <trkpt lat="45.85688" lon="5.77261">
        <ele>568</ele>
      </trkpt>
      <trkpt lat="45.8572" lon="5.77272">
        <ele>579.1</ele>
      </trkpt>
      <trkpt lat="45.85742" lon="5.77282">
        <ele>586.4</ele>
      </trkpt>
      <trkpt lat="45.85749" lon="5.77283">
        <ele>589.2</ele>
      </trkpt>
      <trkpt lat="45.8575" lon="5.77283">
        <ele>589.8</ele>
      </trkpt>
      <trkpt lat="45.85752" lon="5.77283">
        <ele>591</ele>
      </trkpt>
      <trkpt lat="45.85753" lon="5.77279">
        <ele>592.6</ele>
      </trkpt>
      <trkpt lat="45.85751" lon="5.77274">
        <ele>592.6</ele>
      </trkpt>
      <trkpt lat="45.85745" lon="5.77271">
        <ele>591</ele>
      </trkpt>
      <trkpt lat="45.8574" lon="5.77266">
        <ele>590.2</ele>
      </trkpt>
      <trkpt lat="45.85723" lon="5.77255">
        <ele>585.7</ele>
      </trkpt>
      <trkpt lat="45.85714" lon="5.77234">
        <ele>587.4</ele>
      </trkpt>
      <trkpt lat="45.85706" lon="5.7718">
        <ele>597.8</ele>
      </trkpt>
      <trkpt lat="45.85706" lon="5.77153">
        <ele>604</ele>
      </trkpt>
      <trkpt lat="45.85705" lon="5.7714">
        <ele>605.7</ele>
      </trkpt>
      <trkpt lat="45.85698" lon="5.7711">
        <ele>608.6</ele>
      </trkpt>
      <trkpt lat="45.85699" lon="5.77087">
        <ele>613.5</ele>
      </trkpt>
      <trkpt lat="45.85702" lon="5.77076">
        <ele>617.7</ele>
      </trkpt>
      <trkpt lat="45.85705" lon="5.77061">
        <ele>623</ele>
      </trkpt>
      <trkpt lat="45.85706" lon="5.77049">
        <ele>626.9</ele>
      </trkpt>
      <trkpt lat="45.8571" lon="5.77048">
        <ele>628.3</ele>
      </trkpt>
      <trkpt lat="45.85712" lon="5.77053">
        <ele>627.4</ele>
      </trkpt>
      <trkpt lat="45.85713" lon="5.77082">
        <ele>619.6</ele>
      </trkpt>
      <trkpt lat="45.85715" lon="5.77092">
        <ele>618.5</ele>
      </trkpt>
      <trkpt lat="45.85724" lon="5.77098">
        <ele>620.6</ele>
      </trkpt>
      <trkpt lat="45.85733" lon="5.77107">
        <ele>622.6</ele>
      </trkpt>
      <trkpt lat="45.85744" lon="5.77134">
        <ele>622.8</ele>
      </trkpt>
      <trkpt lat="45.85759" lon="5.7717">
        <ele>624.4</ele>
      </trkpt>
      <trkpt lat="45.85772" lon="5.77193">
        <ele>624.3</ele>
      </trkpt>
      <trkpt lat="45.8579" lon="5.77209">
        <ele>628.8</ele>
      </trkpt>
      <trkpt lat="45.85826" lon="5.7722">
        <ele>642.6</ele>
      </trkpt>
      <trkpt lat="45.85834" lon="5.77232">
        <ele>643.3</ele>
      </trkpt>
      <trkpt lat="45.85843" lon="5.77246">
        <ele>644.6</ele>
      </trkpt>
      <trkpt lat="45.8585" lon="5.7727">
        <ele>644.5</ele>
      </trkpt>
      <trkpt lat="45.85856" lon="5.77285">
        <ele>646</ele>
      </trkpt>
      <trkpt lat="45.85859" lon="5.77292">
        <ele>646.9</ele>
      </trkpt>
      <trkpt lat="45.85861" lon="5.77298">
        <ele>647.8</ele>
      </trkpt>
      <trkpt lat="45.85864" lon="5.77298">
        <ele>649.2</ele>
      </trkpt>
      <trkpt lat="45.85865" lon="5.77294">
        <ele>650.4</ele>
      </trkpt>
      <trkpt lat="45.85864" lon="5.77287">
        <ele>650.8</ele>
      </trkpt>
      <trkpt lat="45.85862" lon="5.77268">
        <ele>652.1</ele>
      </trkpt>
      <trkpt lat="45.85862" lon="5.77234">
        <ele>658.5</ele>
      </trkpt>
      <trkpt lat="45.8586" lon="5.77216">
        <ele>661.2</ele>
      </trkpt>
      <trkpt lat="45.85853" lon="5.77199">
        <ele>661.9</ele>
      </trkpt>
      <trkpt lat="45.85836" lon="5.77173">
        <ele>659.6</ele>
      </trkpt>
      <trkpt lat="45.85825" lon="5.77165">
        <ele>656.3</ele>
      </trkpt>
      <trkpt lat="45.8582" lon="5.77152">
        <ele>656.2</ele>
      </trkpt>
      <trkpt lat="45.8582" lon="5.77129">
        <ele>660.8</ele>
      </trkpt>
      <trkpt lat="45.85822" lon="5.77091">
        <ele>668.5</ele>
      </trkpt>
      <trkpt lat="45.85825" lon="5.7707">
        <ele>673.3</ele>
      </trkpt>
      <trkpt lat="45.85817" lon="5.77041">
        <ele>673.4</ele>
      </trkpt>
      <trkpt lat="45.85813" lon="5.77018">
        <ele>674.9</ele>
      </trkpt>
      <trkpt lat="45.8582" lon="5.76968">
        <ele>683.5</ele>
      </trkpt>
      <trkpt lat="45.85823" lon="5.76935">
        <ele>687.3</ele>
      </trkpt>
      <trkpt lat="45.85825" lon="5.76911">
        <ele>690.4</ele>
      </trkpt>
      <trkpt lat="45.85827" lon="5.769">
        <ele>693.3</ele>
      </trkpt>
      <trkpt lat="45.85827" lon="5.76886">
        <ele>696.6</ele>
      </trkpt>
      <trkpt lat="45.85829" lon="5.76883">
        <ele>697.6</ele>
      </trkpt>
      <trkpt lat="45.85832" lon="5.76882">
        <ele>698.4</ele>
      </trkpt>
      <trkpt lat="45.85836" lon="5.76887">
        <ele>698.7</ele>
      </trkpt>
      <trkpt lat="45.85839" lon="5.76895">
        <ele>698.3</ele>
      </trkpt>
      <trkpt lat="45.85841" lon="5.7691">
        <ele>696.3</ele>
      </trkpt>
      <trkpt lat="45.85857" lon="5.77003">
        <ele>699.4</ele>
      </trkpt>
      <trkpt lat="45.8588" lon="5.7705">
        <ele>704.9</ele>
      </trkpt>
      <trkpt lat="45.85898" lon="5.77104">
        <ele>704.4</ele>
      </trkpt>
      <trkpt lat="45.85903" lon="5.77105">
        <ele>706.4</ele>
      </trkpt>
      <trkpt lat="45.85905" lon="5.77099">
        <ele>708.5</ele>
      </trkpt>
      <trkpt lat="45.85903" lon="5.77094">
        <ele>708.9</ele>
      </trkpt>
      <trkpt lat="45.85901" lon="5.77084">
        <ele>709.7</ele>
      </trkpt>
      <trkpt lat="45.859" lon="5.7707">
        <ele>711.8</ele>
      </trkpt>
      <trkpt lat="45.859" lon="5.77048">
        <ele>715.8</ele>
      </trkpt>
      <trkpt lat="45.85898" lon="5.77004">
        <ele>721.8</ele>
      </trkpt>
      <trkpt lat="45.85901" lon="5.76966">
        <ele>725.4</ele>
      </trkpt>
      <trkpt lat="45.85916" lon="5.76925">
        <ele>735.1</ele>
      </trkpt>
      <trkpt lat="45.85923" lon="5.76893">
        <ele>741</ele>
      </trkpt>
      <trkpt lat="45.85924" lon="5.76881">
        <ele>742.3</ele>
      </trkpt>
      <trkpt lat="45.85917" lon="5.76857">
        <ele>739.9</ele>
      </trkpt>
      <trkpt lat="45.85918" lon="5.76842">
        <ele>741.2</ele>
      </trkpt>
      <trkpt lat="45.85926" lon="5.76813">
        <ele>748.9</ele>
      </trkpt>
      <trkpt lat="45.85926" lon="5.76802">
        <ele>750</ele>
      </trkpt>
      <trkpt lat="45.85924" lon="5.76788">
        <ele>750.7</ele>
      </trkpt>
      <trkpt lat="45.85903" lon="5.7676">
        <ele>746.8</ele>
      </trkpt>
      <trkpt lat="45.85898" lon="5.76747">
        <ele>747.3</ele>
      </trkpt>
      <trkpt lat="45.859" lon="5.76725">
        <ele>751.7</ele>
      </trkpt>
      <trkpt lat="45.85901" lon="5.76706">
        <ele>755.3</ele>
      </trkpt>
      <trkpt lat="45.85895" lon="5.76693">
        <ele>756.2</ele>
      </trkpt>
      <trkpt lat="45.8589" lon="5.76678">
        <ele>757.7</ele>
      </trkpt>
      <trkpt lat="45.85869" lon="5.76651">
        <ele>756.5</ele>
      </trkpt>
      <trkpt lat="45.85847" lon="5.76636">
        <ele>753.7</ele>
      </trkpt>
      <trkpt lat="45.85842" lon="5.76629">
        <ele>753.9</ele>
      </trkpt>
      <trkpt lat="45.85847" lon="5.76626">
        <ele>755.4</ele>
      </trkpt>
      <trkpt lat="45.85852" lon="5.76626">
        <ele>756.4</ele>
      </trkpt>
      <trkpt lat="45.8588" lon="5.76632">
        <ele>761</ele>
      </trkpt>
      <trkpt lat="45.85909" lon="5.7664">
        <ele>765.9</ele>
      </trkpt>
      <trkpt lat="45.85938" lon="5.76661">
        <ele>773.7</ele>
      </trkpt>
      <trkpt lat="45.85955" lon="5.76682">
        <ele>777.3</ele>
      </trkpt>
      <trkpt lat="45.85967" lon="5.76705">
        <ele>779.2</ele>
      </trkpt>
      <trkpt lat="45.85984" lon="5.76739">
        <ele>782.8</ele>
      </trkpt>
      <trkpt lat="45.86001" lon="5.76769">
        <ele>789.6</ele>
      </trkpt>
      <trkpt lat="45.86009" lon="5.76795">
        <ele>793.9</ele>
      </trkpt>
      <trkpt lat="45.86014" lon="5.76845">
        <ele>796</ele>
      </trkpt>
      <trkpt lat="45.8602" lon="5.76853">
        <ele>798.5</ele>
      </trkpt>
      <trkpt lat="45.86023" lon="5.76852">
        <ele>800.5</ele>
      </trkpt>
      <trkpt lat="45.86025" lon="5.76842">
        <ele>802</ele>
      </trkpt>
      <trkpt lat="45.86024" lon="5.76829">
        <ele>801.9</ele>
      </trkpt>
      <trkpt lat="45.86029" lon="5.76783">
        <ele>804</ele>
      </trkpt>
      <trkpt lat="45.86029" lon="5.76739">
        <ele>803.7</ele>
      </trkpt>
      <trkpt lat="45.86041" lon="5.76709">
        <ele>810.1</ele>
      </trkpt>
      <trkpt lat="45.8605" lon="5.76682">
        <ele>813.8</ele>
      </trkpt>
      <trkpt lat="45.86054" lon="5.76681">
        <ele>815.4</ele>
      </trkpt>
      <trkpt lat="45.86058" lon="5.76687">
        <ele>817</ele>
      </trkpt>
      <trkpt lat="45.86063" lon="5.76755">
        <ele>821</ele>
      </trkpt>
      <trkpt lat="45.86074" lon="5.76857">
        <ele>828.9</ele>
      </trkpt>
      <trkpt lat="45.86098" lon="5.76939">
        <ele>839.7</ele>
      </trkpt>
      <trkpt lat="45.86104" lon="5.76978">
        <ele>841.7</ele>
      </trkpt>
      <trkpt lat="45.86118" lon="5.77063">
        <ele>850.5</ele>
      </trkpt>
      <trkpt lat="45.86133" lon="5.77105">
        <ele>860.1</ele>
      </trkpt>
      <trkpt lat="45.8614" lon="5.77146">
        <ele>863.2</ele>
      </trkpt>
      <trkpt lat="45.86144" lon="5.77154">
        <ele>866.1</ele>
      </trkpt>
      <trkpt lat="45.86146" lon="5.77151">
        <ele>868.1</ele>
      </trkpt>
      <trkpt lat="45.86146" lon="5.77139">
        <ele>868.1</ele>
      </trkpt>
      <trkpt lat="45.86147" lon="5.77099">
        <ele>870.4</ele>
      </trkpt>
      <trkpt lat="45.86143" lon="5.77041">
        <ele>867.1</ele>
      </trkpt>
      <trkpt lat="45.86149" lon="5.77019">
        <ele>870.1</ele>
      </trkpt>
      <trkpt lat="45.86151" lon="5.76986">
        <ele>871.4</ele>
      </trkpt>
      <trkpt lat="45.86156" lon="5.76956">
        <ele>874.8</ele>
      </trkpt>
      <trkpt lat="45.86157" lon="5.76941">
        <ele>875.7</ele>
      </trkpt>
      <trkpt lat="45.86154" lon="5.76919">
        <ele>874.2</ele>
      </trkpt>
      <trkpt lat="45.86155" lon="5.76898">
        <ele>875.4</ele>
      </trkpt>
      <trkpt lat="45.86165" lon="5.76854">
        <ele>883</ele>
      </trkpt>
      <trkpt lat="45.86181" lon="5.76792">
        <ele>892.5</ele>
      </trkpt>
      <trkpt lat="45.86188" lon="5.76764">
        <ele>894.3</ele>
      </trkpt>
      <trkpt lat="45.86191" lon="5.76763">
        <ele>895.6</ele>
      </trkpt>
      <trkpt lat="45.86194" lon="5.76767">
        <ele>897.6</ele>
      </trkpt>
      <trkpt lat="45.86195" lon="5.76775">
        <ele>898.2</ele>
      </trkpt>
      <trkpt lat="45.86194" lon="5.76813">
        <ele>900.3</ele>
      </trkpt>
      <trkpt lat="45.86195" lon="5.76861">
        <ele>903.3</ele>
      </trkpt>
      <trkpt lat="45.86198" lon="5.76916">
        <ele>906.7</ele>
      </trkpt>
      <trkpt lat="45.86209" lon="5.7696">
        <ele>915.9</ele>
      </trkpt>
      <trkpt lat="45.86212" lon="5.77072">
        <ele>926</ele>
      </trkpt>
      <trkpt lat="45.86217" lon="5.77119">
        <ele>924</ele>
      </trkpt>
      <trkpt lat="45.86222" lon="5.77136">
        <ele>923.9</ele>
      </trkpt>
      <trkpt lat="45.86224" lon="5.77136">
        <ele>925.5</ele>
      </trkpt>
      <trkpt lat="45.86226" lon="5.77133">
        <ele>927</ele>
      </trkpt>
      <trkpt lat="45.86225" lon="5.77086">
        <ele>938.4</ele>
      </trkpt>
      <trkpt lat="45.86232" lon="5.77045">
        <ele>940.6</ele>
      </trkpt>
      <trkpt lat="45.86251" lon="5.76994">
        <ele>949.5</ele>
      </trkpt>
      <trkpt lat="45.86253" lon="5.76972">
        <ele>951.1</ele>
      </trkpt>
      <trkpt lat="45.86256" lon="5.76937">
        <ele>952.9</ele>
      </trkpt>
      <trkpt lat="45.86262" lon="5.76907">
        <ele>954.8</ele>
      </trkpt>
      <trkpt lat="45.86271" lon="5.76861">
        <ele>954.8</ele>
      </trkpt>
      <trkpt lat="45.86279" lon="5.76833">
        <ele>955.8</ele>
      </trkpt>
      <trkpt lat="45.86282" lon="5.76826">
        <ele>954.8</ele>
      </trkpt>
      <trkpt lat="45.86287" lon="5.76818">
        <ele>955.1</ele>
      </trkpt>
      <trkpt lat="45.86289" lon="5.76818">
        <ele>956.3</ele>
      </trkpt>
      <trkpt lat="45.86289" lon="5.76822">
        <ele>958</ele>
      </trkpt>
      <trkpt lat="45.86288" lon="5.76832">
        <ele>961.1</ele>
      </trkpt>
      <trkpt lat="45.86285" lon="5.7686">
        <ele>963.8</ele>
      </trkpt>
      <trkpt lat="45.86284" lon="5.76939">
        <ele>974.6</ele>
      </trkpt>
      <trkpt lat="45.86286" lon="5.76962">
        <ele>978.6</ele>
      </trkpt>
      <trkpt lat="45.86288" lon="5.76967">
        <ele>980.9</ele>
      </trkpt>
      <trkpt lat="45.86291" lon="5.76966">
        <ele>983.9</ele>
      </trkpt>
      <trkpt lat="45.86294" lon="5.76954">
        <ele>984.4</ele>
      </trkpt>
      <trkpt lat="45.863" lon="5.76909">
        <ele>981.7</ele>
      </trkpt>
      <trkpt lat="45.86314" lon="5.76858">
        <ele>982.9</ele>
      </trkpt>
      <trkpt lat="45.86317" lon="5.76857">
        <ele>984.9</ele>
      </trkpt>
      <trkpt lat="45.86318" lon="5.76861">
        <ele>986.2</ele>
      </trkpt>
      <trkpt lat="45.86318" lon="5.76869">
        <ele>987.4</ele>
      </trkpt>
      <trkpt lat="45.86317" lon="5.76905">
        <ele>993.5</ele>
      </trkpt>
      <trkpt lat="45.86319" lon="5.76913">
        <ele>996</ele>
      </trkpt>
      <trkpt lat="45.86321" lon="5.76914">
        <ele>997.9</ele>
      </trkpt>
      <trkpt lat="45.86325" lon="5.76902">
        <ele>998.7</ele>
      </trkpt>
      <trkpt lat="45.86329" lon="5.76888">
        <ele>998.2</ele>
      </trkpt>
      <trkpt lat="45.86333" lon="5.7687">
        <ele>997.9</ele>
      </trkpt>
      <trkpt lat="45.86337" lon="5.76862">
        <ele>999.7</ele>
      </trkpt>
      <trkpt lat="45.86341" lon="5.76862">
        <ele>1002.5</ele>
      </trkpt>
      <trkpt lat="45.86342" lon="5.76869">
        <ele>1004.7</ele>
      </trkpt>
      <trkpt lat="45.86334" lon="5.76908">
        <ele>1006</ele>
      </trkpt>
      <trkpt lat="45.86331" lon="5.76955">
        <ele>1014.9</ele>
      </trkpt>
      <trkpt lat="45.86336" lon="5.76987">
        <ele>1028.3</ele>
      </trkpt>
      <trkpt lat="45.86335" lon="5.77012">
        <ele>1032.4</ele>
      </trkpt>
      <trkpt lat="45.86329" lon="5.77051">
        <ele>1032.9</ele>
      </trkpt>
      <trkpt lat="45.8631" lon="5.77073">
        <ele>1018.2</ele>
      </trkpt>
      <trkpt lat="45.86307" lon="5.77105">
        <ele>1017.1</ele>
      </trkpt>
      <trkpt lat="45.86323" lon="5.77162">
        <ele>1043.9</ele>
      </trkpt>
      <trkpt lat="45.86331" lon="5.77191">
        <ele>1055.9</ele>
      </trkpt>
      <trkpt lat="45.86328" lon="5.77224">
        <ele>1050.9</ele>
      </trkpt>
      <trkpt lat="45.86328" lon="5.77256">
        <ele>1048</ele>
      </trkpt>
      <trkpt lat="45.86342" lon="5.77303">
        <ele>1051</ele>
      </trkpt>
      <trkpt lat="45.86354" lon="5.77375">
        <ele>1062.2</ele>
      </trkpt>
      <trkpt lat="45.86361" lon="5.77399">
        <ele>1071.4</ele>
      </trkpt>
      <trkpt lat="45.86402" lon="5.77475">
        <ele>1086.5</ele>
      </trkpt>
      <trkpt lat="45.86418" lon="5.77537">
        <ele>1090</ele>
      </trkpt>
      <trkpt lat="45.86462" lon="5.77668">
        <ele>1105.8</ele>
      </trkpt>
      <trkpt lat="45.86477" lon="5.77749">
        <ele>1105.6</ele>
      </trkpt>
      <trkpt lat="45.86485" lon="5.77782">
        <ele>1103.3</ele>
      </trkpt>
      <trkpt lat="45.86499" lon="5.77806">
        <ele>1104.9</ele>
      </trkpt>
      <trkpt lat="45.86533" lon="5.77844">
        <ele>1113.3</ele>
      </trkpt>
      <trkpt lat="45.86562" lon="5.77888">
        <ele>1116.7</ele>
      </trkpt>
      <trkpt lat="45.86573" lon="5.77901">
        <ele>1119</ele>
      </trkpt>
      <trkpt lat="45.86585" lon="5.77923">
        <ele>1118.5</ele>
      </trkpt>
      <trkpt lat="45.86606" lon="5.7793">
        <ele>1119.8</ele>
      </trkpt>
      <trkpt lat="45.86626" lon="5.77923">
        <ele>1124.9</ele>
      </trkpt>
      <trkpt lat="45.86647" lon="5.77906">
        <ele>1132.6</ele>
      </trkpt>
      <trkpt lat="45.86663" lon="5.77889">
        <ele>1139.5</ele>
      </trkpt>
      <trkpt lat="45.86724" lon="5.77861">
        <ele>1146.9</ele>
      </trkpt>
      <trkpt lat="45.86738" lon="5.77853">
        <ele>1149.3</ele>
      </trkpt>
      <trkpt lat="45.86736" lon="5.77842">
        <ele>1152.4</ele>
      </trkpt>
      <trkpt lat="45.86733" lon="5.77837">
        <ele>1153.9</ele>
      </trkpt>
      <trkpt lat="45.86711" lon="5.7783">
        <ele>1155.3</ele>
      </trkpt>
      <trkpt lat="45.86667" lon="5.77805">
        <ele>1160.4</ele>
      </trkpt>
      <trkpt lat="45.86658" lon="5.77797">
        <ele>1160.8</ele>
      </trkpt>
      <trkpt lat="45.86651" lon="5.77785">
        <ele>1162.3</ele>
      </trkpt>
      <trkpt lat="45.86649" lon="5.77767">
        <ele>1166</ele>
      </trkpt>
      <trkpt lat="45.8665" lon="5.7775">
        <ele>1170</ele>
      </trkpt>
      <trkpt lat="45.86659" lon="5.77738">
        <ele>1172.9</ele>
      </trkpt>
      <trkpt lat="45.86681" lon="5.7772">
        <ele>1176.2</ele>
      </trkpt>
      <trkpt lat="45.86702" lon="5.77694">
        <ele>1179.7</ele>
      </trkpt>
      <trkpt lat="45.86696" lon="5.77674">
        <ele>1182.4</ele>
      </trkpt>
      <trkpt lat="45.86678" lon="5.77646">
        <ele>1185.4</ele>
      </trkpt>
      <trkpt lat="45.8666" lon="5.77624">
        <ele>1186.9</ele>
      </trkpt>
      <trkpt lat="45.86641" lon="5.77579">
        <ele>1191.6</ele>
      </trkpt>
      <trkpt lat="45.86634" lon="5.77551">
        <ele>1193.6</ele>
      </trkpt>
      <trkpt lat="45.86622" lon="5.77535">
        <ele>1194.1</ele>
      </trkpt>
      <trkpt lat="45.86613" lon="5.7753">
        <ele>1193.8</ele>
      </trkpt>
      <trkpt lat="45.86589" lon="5.77528">
        <ele>1192.1</ele>
      </trkpt>
      <trkpt lat="45.86572" lon="5.77512">
        <ele>1188.4</ele>
      </trkpt>
      <trkpt lat="45.8657" lon="5.77494">
        <ele>1189.3</ele>
      </trkpt>
      <trkpt lat="45.86573" lon="5.7748">
        <ele>1191.7</ele>
      </trkpt>
      <trkpt lat="45.86577" lon="5.77465">
        <ele>1194.6</ele>
      </trkpt>
      <trkpt lat="45.8661" lon="5.77468">
        <ele>1198.7</ele>
      </trkpt>
      <trkpt lat="45.86625" lon="5.77432">
        <ele>1202.8</ele>
      </trkpt>
      <trkpt lat="45.86636" lon="5.77392">
        <ele>1206.4</ele>
      </trkpt>
      <trkpt lat="45.86663" lon="5.77329">
        <ele>1213.2</ele>
      </trkpt>
      <trkpt lat="45.86683" lon="5.77309">
        <ele>1218.2</ele>
      </trkpt>
      <trkpt lat="45.86709" lon="5.77295">
        <ele>1222.9</ele>
      </trkpt>
      <trkpt lat="45.86728" lon="5.77289">
        <ele>1225.7</ele>
      </trkpt>
      <trkpt lat="45.86764" lon="5.77297">
        <ele>1227.7</ele>
      </trkpt>
      <trkpt lat="45.86802" lon="5.7731">
        <ele>1226.9</ele>
      </trkpt>
      <trkpt lat="45.86841" lon="5.77314">
        <ele>1227.6</ele>
      </trkpt>
      <trkpt lat="45.86863" lon="5.77303">
        <ele>1229.9</ele>
      </trkpt>
      <trkpt lat="45.86874" lon="5.77305">
        <ele>1230.8</ele>
      </trkpt>
      <trkpt lat="45.8691" lon="5.77328">
        <ele>1233.5</ele>
      </trkpt>
      <trkpt lat="45.86945" lon="5.77337">
        <ele>1236.9</ele>
      </trkpt>
      <trkpt lat="45.86981" lon="5.77344">
        <ele>1240.4</ele>
      </trkpt>
      <trkpt lat="45.8701" lon="5.77349">
        <ele>1243.2</ele>
      </trkpt>
      <trkpt lat="45.87044" lon="5.77365">
        <ele>1245.8</ele>
      </trkpt>
      <trkpt lat="45.87065" lon="5.77367">
        <ele>1248</ele>
      </trkpt>
      <trkpt lat="45.87075" lon="5.77372">
        <ele>1248.8</ele>
      </trkpt>
      <trkpt lat="45.87099" lon="5.77403">
        <ele>1249.3</ele>
      </trkpt>
      <trkpt lat="45.87113" lon="5.77399">
        <ele>1251</ele>
      </trkpt>
      <trkpt lat="45.87109" lon="5.77382">
        <ele>1251.6</ele>
      </trkpt>
      <trkpt lat="45.87098" lon="5.77347">
        <ele>1252.7</ele>
      </trkpt>
      <trkpt lat="45.87091" lon="5.77314">
        <ele>1253.6</ele>
      </trkpt>
      <trkpt lat="45.87093" lon="5.77289">
        <ele>1254.6</ele>
      </trkpt>
      <trkpt lat="45.87101" lon="5.77264">
        <ele>1256.4</ele>
      </trkpt>
      <trkpt lat="45.87128" lon="5.77189">
        <ele>1267.5</ele>
      </trkpt>
      <trkpt lat="45.87138" lon="5.77146">
        <ele>1275.6</ele>
      </trkpt>
      <trkpt lat="45.8714" lon="5.77129">
        <ele>1279.5</ele>
      </trkpt>
      <trkpt lat="45.87131" lon="5.77114">
        <ele>1281.3</ele>
      </trkpt>
      <trkpt lat="45.87111" lon="5.77102">
        <ele>1281.8</ele>
      </trkpt>
      <trkpt lat="45.87089" lon="5.77092">
        <ele>1281.6</ele>
      </trkpt>
      <trkpt lat="45.87087" lon="5.77084">
        <ele>1283.3</ele>
      </trkpt>
      <trkpt lat="45.87093" lon="5.7708">
        <ele>1284.7</ele>
      </trkpt>
      <trkpt lat="45.87122" lon="5.77078">
        <ele>1287.8</ele>
      </trkpt>
      <trkpt lat="45.87148" lon="5.77067">
        <ele>1292.3</ele>
      </trkpt>
      <trkpt lat="45.87158" lon="5.77056">
        <ele>1295.5</ele>
      </trkpt>
      <trkpt lat="45.87167" lon="5.7705">
        <ele>1297.5</ele>
      </trkpt>
      <trkpt lat="45.87166" lon="5.77041">
        <ele>1299.1</ele>
      </trkpt>
      <trkpt lat="45.87162" lon="5.77033">
        <ele>1300.2</ele>
      </trkpt>
      <trkpt lat="45.87152" lon="5.77027">
        <ele>1300.4</ele>
      </trkpt>
      <trkpt lat="45.87108" lon="5.77008">
        <ele>1299.7</ele>
      </trkpt>
      <trkpt lat="45.87105" lon="5.77001">
        <ele>1300.8</ele>
      </trkpt>
      <trkpt lat="45.87111" lon="5.76992">
        <ele>1302.3</ele>
      </trkpt>
      <trkpt lat="45.87207" lon="5.76941">
        <ele>1314.4</ele>
      </trkpt>
      <trkpt lat="45.87212" lon="5.76925">
        <ele>1316.1</ele>
      </trkpt>
      <trkpt lat="45.87213" lon="5.76901">
        <ele>1318</ele>
      </trkpt>
      <trkpt lat="45.87213" lon="5.7688">
        <ele>1319.5</ele>
      </trkpt>
      <trkpt lat="45.87207" lon="5.76859">
        <ele>1320.6</ele>
      </trkpt>
      <trkpt lat="45.87194" lon="5.76836">
        <ele>1321.4</ele>
      </trkpt>
      <trkpt lat="45.87196" lon="5.76822">
        <ele>1322.4</ele>
      </trkpt>
      <trkpt lat="45.87202" lon="5.76809">
        <ele>1323.5</ele>
      </trkpt>
      <trkpt lat="45.87212" lon="5.76779">
        <ele>1325.6</ele>
      </trkpt>
      <trkpt lat="45.87208" lon="5.76706">
        <ele>1327</ele>
      </trkpt>
      <trkpt lat="45.87216" lon="5.76675">
        <ele>1327.3</ele>
      </trkpt>
      <trkpt lat="45.87228" lon="5.76647">
        <ele>1326.3</ele>
      </trkpt>
      <trkpt lat="45.87286" lon="5.76609">
        <ele>1327.4</ele>
      </trkpt>
      <trkpt lat="45.87371" lon="5.76562">
        <ele>1326.5</ele>
      </trkpt>
      <trkpt lat="45.87455" lon="5.76525">
        <ele>1326.1</ele>
      </trkpt>
      <trkpt lat="45.87471" lon="5.76513">
        <ele>1326.8</ele>
      </trkpt>
      <trkpt lat="45.87478" lon="5.76501">
        <ele>1327.2</ele>
      </trkpt>
      <trkpt lat="45.87489" lon="5.76489">
        <ele>1327</ele>
      </trkpt>
      <trkpt lat="45.87524" lon="5.76473">
        <ele>1326.8</ele>
      </trkpt>
      <trkpt lat="45.87561" lon="5.76453">
        <ele>1326.8</ele>
      </trkpt>
      <trkpt lat="45.87598" lon="5.7644">
        <ele>1327.3</ele>
      </trkpt>
      <trkpt lat="45.87608" lon="5.76429">
        <ele>1327.1</ele>
      </trkpt>
      <trkpt lat="45.87617" lon="5.76403">
        <ele>1327</ele>
      </trkpt>
      <trkpt lat="45.87645" lon="5.76353">
        <ele>1327.4</ele>
      </trkpt>
      <trkpt lat="45.87669" lon="5.7631">
        <ele>1329.2</ele>
      </trkpt>
      <trkpt lat="45.87697" lon="5.76285">
        <ele>1331</ele>
      </trkpt>
      <trkpt lat="45.87733" lon="5.76284">
        <ele>1331.8</ele>
      </trkpt>
      <trkpt lat="45.87814" lon="5.76272">
        <ele>1332.2</ele>
      </trkpt>
      <trkpt lat="45.87948" lon="5.76286">
        <ele>1331.5</ele>
      </trkpt>
      <trkpt lat="45.88162" lon="5.7625">
        <ele>1341.8</ele>
      </trkpt>
      <trkpt lat="45.88192" lon="5.76244">
        <ele>1341.4</ele>
      </trkpt>
      <trkpt lat="45.88205" lon="5.76247">
        <ele>1340.1</ele>
      </trkpt>
      <trkpt lat="45.88203" lon="5.76235">
        <ele>1341.9</ele>
      </trkpt>
      <trkpt lat="45.88203" lon="5.76224">
        <ele>1343.4</ele>
      </trkpt>
      <trkpt lat="45.88205" lon="5.76212">
        <ele>1345</ele>
      </trkpt>
      <trkpt lat="45.8821" lon="5.76203">
        <ele>1345.9</ele>
      </trkpt>
      <trkpt lat="45.88217" lon="5.76194">
        <ele>1346.5</ele>
      </trkpt>
      <trkpt lat="45.88263" lon="5.76173">
        <ele>1344.6</ele>
      </trkpt>
      <trkpt lat="45.88291" lon="5.76159">
        <ele>1344.2</ele>
      </trkpt>
      <trkpt lat="45.88316" lon="5.76145">
        <ele>1345.5</ele>
      </trkpt>
      <trkpt lat="45.88382" lon="5.76107">
        <ele>1353.9</ele>
      </trkpt>
      <trkpt lat="45.88415" lon="5.76091">
        <ele>1357.9</ele>
      </trkpt>
      <trkpt lat="45.88441" lon="5.76078">
        <ele>1360.6</ele>
      </trkpt>
      <trkpt lat="45.88464" lon="5.76067">
        <ele>1362.5</ele>
      </trkpt>
      <trkpt lat="45.88483" lon="5.7606">
        <ele>1363.2</ele>
      </trkpt>
      <trkpt lat="45.88509" lon="5.76054">
        <ele>1364.4</ele>
      </trkpt>
      <trkpt lat="45.88536" lon="5.76052">
        <ele>1366</ele>
      </trkpt>
      <trkpt lat="45.88566" lon="5.76053">
        <ele>1366.9</ele>
      </trkpt>
      <trkpt lat="45.88595" lon="5.76054">
        <ele>1368.7</ele>
      </trkpt>
      <trkpt lat="45.88624" lon="5.76058">
        <ele>1371.5</ele>
      </trkpt>
      <trkpt lat="45.88683" lon="5.76069">
        <ele>1375.5</ele>
      </trkpt>
      <trkpt lat="45.88788" lon="5.76088">
        <ele>1380.6</ele>
      </trkpt>
      <trkpt lat="45.88849" lon="5.761">
        <ele>1380.1</ele>
      </trkpt>
      <trkpt lat="45.88924" lon="5.76105">
        <ele>1383</ele>
      </trkpt>
      <trkpt lat="45.88927" lon="5.76105">
        <ele>1383.1</ele>
      </trkpt>
      <trkpt lat="45.88928" lon="5.76098">
        <ele>1385</ele>
      </trkpt>
      <trkpt lat="45.88938" lon="5.76093">
        <ele>1387.1</ele>
      </trkpt>
      <trkpt lat="45.8895" lon="5.76092">
        <ele>1387.8</ele>
      </trkpt>
      <trkpt lat="45.88961" lon="5.76084">
        <ele>1390.4</ele>
      </trkpt>
      <trkpt lat="45.88977" lon="5.7608">
        <ele>1391.5</ele>
      </trkpt>
      <trkpt lat="45.88985" lon="5.7608">
        <ele>1391.8</ele>
      </trkpt>
      <trkpt lat="45.88991" lon="5.76078">
        <ele>1392</ele>
      </trkpt>
      <trkpt lat="45.88998" lon="5.76078">
        <ele>1392.1</ele>
      </trkpt>
      <trkpt lat="45.8905" lon="5.76072">
        <ele>1393.8</ele>
      </trkpt>
      <trkpt lat="45.89057" lon="5.76067">
        <ele>1393.7</ele>
      </trkpt>
      <trkpt lat="45.89086" lon="5.76065">
        <ele>1394.2</ele>
      </trkpt>
      <trkpt lat="45.89094" lon="5.7607">
        <ele>1395.2</ele>
      </trkpt>
      <trkpt lat="45.89126" lon="5.76072">
        <ele>1397.7</ele>
      </trkpt>
      <trkpt lat="45.89143" lon="5.76077">
        <ele>1399.8</ele>
      </trkpt>
      <trkpt lat="45.89169" lon="5.76078">
        <ele>1401.9</ele>
      </trkpt>
      <trkpt lat="45.89198" lon="5.76082">
        <ele>1402.4</ele>
      </trkpt>
      <trkpt lat="45.89217" lon="5.76092">
        <ele>1401.5</ele>
      </trkpt>
      <trkpt lat="45.89229" lon="5.76103">
        <ele>1400.5</ele>
      </trkpt>
      <trkpt lat="45.89242" lon="5.76102">
        <ele>1400.8</ele>
      </trkpt>
      <trkpt lat="45.89308" lon="5.76112">
        <ele>1404.9</ele>
      </trkpt>
      <trkpt lat="45.89338" lon="5.76105">
        <ele>1408.2</ele>
      </trkpt>
      <trkpt lat="45.89365" lon="5.76105">
        <ele>1412.7</ele>
      </trkpt>
      <trkpt lat="45.89379" lon="5.76111">
        <ele>1414.3</ele>
      </trkpt>
      <trkpt lat="45.89388" lon="5.76114">
        <ele>1415.3</ele>
      </trkpt>
      <trkpt lat="45.89417" lon="5.76115">
        <ele>1419.8</ele>
      </trkpt>
      <trkpt lat="45.89457" lon="5.76114">
        <ele>1424.8</ele>
      </trkpt>
      <trkpt lat="45.89484" lon="5.76099">
        <ele>1430.6</ele>
      </trkpt>
      <trkpt lat="45.89491" lon="5.76093">
        <ele>1432.8</ele>
      </trkpt>
      <trkpt lat="45.89493" lon="5.76088">
        <ele>1434.2</ele>
      </trkpt>
      <trkpt lat="45.89496" lon="5.76082">
        <ele>1435</ele>
      </trkpt>
      <trkpt lat="45.89504" lon="5.76079">
        <ele>1435.4</ele>
      </trkpt>
      <trkpt lat="45.89508" lon="5.76077">
        <ele>1435.2</ele>
      </trkpt>
      <trkpt lat="45.8951" lon="5.76072">
        <ele>1434.1</ele>
      </trkpt>
      <trkpt lat="45.89513" lon="5.76071">
        <ele>1434.1</ele>
      </trkpt>
      <trkpt lat="45.89518" lon="5.76075">
        <ele>1436.2</ele>
      </trkpt>
      <trkpt lat="45.8953" lon="5.76071">
        <ele>1436.9</ele>
      </trkpt>
      <trkpt lat="45.89533" lon="5.76076">
        <ele>1439</ele>
      </trkpt>
      <trkpt lat="45.89545" lon="5.76087">
        <ele>1442.7</ele>
      </trkpt>
      <trkpt lat="45.89553" lon="5.76088">
        <ele>1444</ele>
      </trkpt>
      <trkpt lat="45.8956" lon="5.76089">
        <ele>1444.9</ele>
      </trkpt>
      <trkpt lat="45.89575" lon="5.76086">
        <ele>1448.1</ele>
      </trkpt>
      <trkpt lat="45.89583" lon="5.76093">
        <ele>1447.9</ele>
      </trkpt>
      <trkpt lat="45.89594" lon="5.761">
        <ele>1448.1</ele>
      </trkpt>
      <trkpt lat="45.89611" lon="5.76105">
        <ele>1449.6</ele>
      </trkpt>
      <trkpt lat="45.89616" lon="5.76101">
        <ele>1451</ele>
      </trkpt>
      <trkpt lat="45.89615" lon="5.76091">
        <ele>1453</ele>
      </trkpt>
      <trkpt lat="45.89618" lon="5.76084">
        <ele>1454.7</ele>
      </trkpt>
      <trkpt lat="45.8962" lon="5.76083">
        <ele>1455.1</ele>
      </trkpt>
      <trkpt lat="45.89626" lon="5.76085">
        <ele>1455.8</ele>
      </trkpt>
      <trkpt lat="45.89633" lon="5.76082">
        <ele>1456.6</ele>
      </trkpt>
      <trkpt lat="45.89649" lon="5.76086">
        <ele>1458.9</ele>
      </trkpt>
      <trkpt lat="45.89653" lon="5.76085">
        <ele>1459.7</ele>
      </trkpt>
      <trkpt lat="45.8966" lon="5.76083">
        <ele>1460.8</ele>
      </trkpt>
      <trkpt lat="45.89671" lon="5.76086">
        <ele>1462.1</ele>
      </trkpt>
      <trkpt lat="45.89678" lon="5.76094">
        <ele>1461.5</ele>
      </trkpt>
      <trkpt lat="45.89685" lon="5.76095">
        <ele>1462.3</ele>
      </trkpt>
      <trkpt lat="45.89693" lon="5.761">
        <ele>1462.8</ele>
      </trkpt>
      <trkpt lat="45.89702" lon="5.761">
        <ele>1464.1</ele>
      </trkpt>
      <trkpt lat="45.89713" lon="5.76099">
        <ele>1466</ele>
      </trkpt>
      <trkpt lat="45.89721" lon="5.761">
        <ele>1467.2</ele>
      </trkpt>
      <trkpt lat="45.89741" lon="5.76098">
        <ele>1470.7</ele>
      </trkpt>
      <trkpt lat="45.89745" lon="5.76097">
        <ele>1471.5</ele>
      </trkpt>
      <trkpt lat="45.89758" lon="5.76097">
        <ele>1473.8</ele>
      </trkpt>
      <trkpt lat="45.89779" lon="5.76105">
        <ele>1477.5</ele>
      </trkpt>
      <trkpt lat="45.89783" lon="5.76113">
        <ele>1477.6</ele>
      </trkpt>
      <trkpt lat="45.89788" lon="5.76118">
        <ele>1478.5</ele>
      </trkpt>
      <trkpt lat="45.89792" lon="5.76123">
        <ele>1479.1</ele>
      </trkpt>
      <trkpt lat="45.89799" lon="5.7613">
        <ele>1480.2</ele>
      </trkpt>
      <trkpt lat="45.89811" lon="5.76132">
        <ele>1483.1</ele>
      </trkpt>
      <trkpt lat="45.89813" lon="5.76135">
        <ele>1483.5</ele>
      </trkpt>
      <trkpt lat="45.89819" lon="5.76137">
        <ele>1484.9</ele>
      </trkpt>
      <trkpt lat="45.89822" lon="5.76132">
        <ele>1485.8</ele>
      </trkpt>
      <trkpt lat="45.89829" lon="5.76134">
        <ele>1487.7</ele>
      </trkpt>
      <trkpt lat="45.89834" lon="5.76129">
        <ele>1489</ele>
      </trkpt>
      <trkpt lat="45.89848" lon="5.76121">
        <ele>1490.2</ele>
      </trkpt>
      <trkpt lat="45.89859" lon="5.76123">
        <ele>1490.9</ele>
      </trkpt>
      <trkpt lat="45.89868" lon="5.76123">
        <ele>1491.6</ele>
      </trkpt>
      <trkpt lat="45.89872" lon="5.76122">
        <ele>1491.9</ele>
      </trkpt>
      <trkpt lat="45.89877" lon="5.76119">
        <ele>1492.3</ele>
      </trkpt>
      <trkpt lat="45.89882" lon="5.7612">
        <ele>1492.7</ele>
      </trkpt>
      <trkpt lat="45.89894" lon="5.76117">
        <ele>1493.7</ele>
      </trkpt>
      <trkpt lat="45.89909" lon="5.7611">
        <ele>1495.1</ele>
      </trkpt>
      <trkpt lat="45.89913" lon="5.76108">
        <ele>1495.6</ele>
      </trkpt>
      <trkpt lat="45.89916" lon="5.76104">
        <ele>1496</ele>
      </trkpt>
      <trkpt lat="45.89925" lon="5.76095">
        <ele>1497.1</ele>
      </trkpt>
      <trkpt lat="45.89928" lon="5.76095">
        <ele>1497.3</ele>
      </trkpt>
      <trkpt lat="45.89934" lon="5.76099">
        <ele>1497.7</ele>
      </trkpt>
      <trkpt lat="45.8994" lon="5.76102">
        <ele>1498.2</ele>
      </trkpt>
      <trkpt lat="45.89942" lon="5.76105">
        <ele>1498.3</ele>
      </trkpt>
      <trkpt lat="45.89952" lon="5.76106">
        <ele>1499.2</ele>
      </trkpt>
      <trkpt lat="45.89964" lon="5.76108">
        <ele>1500.4</ele>
      </trkpt>
      <trkpt lat="45.89979" lon="5.76107">
        <ele>1501.7</ele>
      </trkpt>
      <trkpt lat="45.89994" lon="5.76105">
        <ele>1503</ele>
      </trkpt>
      <trkpt lat="45.90001" lon="5.76104">
        <ele>1503.5</ele>
      </trkpt>
      <trkpt lat="45.90042" lon="5.76102">
        <ele>1505.9</ele>
      </trkpt>
      <trkpt lat="45.90146" lon="5.76122">
        <ele>1502.3</ele>
      </trkpt>
      <trkpt lat="45.90156" lon="5.76123">
        <ele>1501.4</ele>
      </trkpt>
      <trkpt lat="45.90162" lon="5.76118">
        <ele>1500.3</ele>
      </trkpt>
      <trkpt lat="45.90174" lon="5.76103">
        <ele>1498.1</ele>
      </trkpt>
      <trkpt lat="45.90183" lon="5.76106">
        <ele>1498.4</ele>
      </trkpt>
      <trkpt lat="45.90197" lon="5.76111">
        <ele>1498.6</ele>
      </trkpt>
      <trkpt lat="45.90236" lon="5.76141">
        <ele>1498.7</ele>
      </trkpt>
      <trkpt lat="45.90243" lon="5.76145">
        <ele>1498.4</ele>
      </trkpt>
      <trkpt lat="45.90279" lon="5.7615">
        <ele>1498.1</ele>
      </trkpt>
      <trkpt lat="45.90288" lon="5.76152">
        <ele>1498.1</ele>
      </trkpt>
      <trkpt lat="45.90297" lon="5.76158">
        <ele>1498.3</ele>
      </trkpt>
      <trkpt lat="45.90314" lon="5.76175">
        <ele>1497.8</ele>
      </trkpt>
      <trkpt lat="45.90318" lon="5.7618">
        <ele>1497.4</ele>
      </trkpt>
      <trkpt lat="45.90319" lon="5.76188">
        <ele>1496.6</ele>
      </trkpt>
      <trkpt lat="45.90323" lon="5.76195">
        <ele>1495.9</ele>
      </trkpt>
      <trkpt lat="45.90328" lon="5.76201">
        <ele>1495.5</ele>
      </trkpt>
      <trkpt lat="45.90331" lon="5.76202">
        <ele>1495.5</ele>
      </trkpt>
      <trkpt lat="45.90335" lon="5.76199">
        <ele>1495.9</ele>
      </trkpt>
      <trkpt lat="45.9036" lon="5.76205">
        <ele>1495.6</ele>
      </trkpt>
      <trkpt lat="45.90367" lon="5.76206">
        <ele>1495.6</ele>
      </trkpt>
      <trkpt lat="45.9037" lon="5.76197">
        <ele>1496.8</ele>
      </trkpt>
      <trkpt lat="45.90372" lon="5.76185">
        <ele>1498.2</ele>
      </trkpt>
      <trkpt lat="45.90376" lon="5.76183">
        <ele>1498.6</ele>
      </trkpt>
      <trkpt lat="45.90383" lon="5.76184">
        <ele>1498.7</ele>
      </trkpt>
      <trkpt lat="45.90438" lon="5.76164">
        <ele>1503.1</ele>
      </trkpt>
      <trkpt lat="45.90451" lon="5.76162">
        <ele>1503.7</ele>
      </trkpt>
      <trkpt lat="45.90463" lon="5.76157">
        <ele>1503.9</ele>
      </trkpt>
      <trkpt lat="45.90484" lon="5.76147">
        <ele>1504.1</ele>
      </trkpt>
      <trkpt lat="45.90498" lon="5.76142">
        <ele>1504.3</ele>
      </trkpt>
      <trkpt lat="45.90523" lon="5.76132">
        <ele>1503.7</ele>
      </trkpt>
      <trkpt lat="45.90534" lon="5.76131">
        <ele>1503.8</ele>
      </trkpt>
      <trkpt lat="45.90542" lon="5.76134">
        <ele>1504.3</ele>
      </trkpt>
      <trkpt lat="45.90566" lon="5.76147">
        <ele>1506.3</ele>
      </trkpt>
      <trkpt lat="45.90572" lon="5.76149">
        <ele>1506.7</ele>
      </trkpt>
      <trkpt lat="45.90578" lon="5.7615">
        <ele>1506.9</ele>
      </trkpt>
      <trkpt lat="45.90584" lon="5.7615">
        <ele>1507</ele>
      </trkpt>
      <trkpt lat="45.90606" lon="5.7615">
        <ele>1506.6</ele>
      </trkpt>
      <trkpt lat="45.90633" lon="5.76157">
        <ele>1507.4</ele>
      </trkpt>
      <trkpt lat="45.90667" lon="5.76165">
        <ele>1508.7</ele>
      </trkpt>
      <trkpt lat="45.90712" lon="5.76188">
        <ele>1498.1</ele>
      </trkpt>
      <trkpt lat="45.90737" lon="5.76209">
        <ele>1489.3</ele>
      </trkpt>
      <trkpt lat="45.90818" lon="5.76262">
        <ele>1471.1</ele>
      </trkpt>
      <trkpt lat="45.90831" lon="5.76267">
        <ele>1469.5</ele>
      </trkpt>
      <trkpt lat="45.90845" lon="5.76268">
        <ele>1470.5</ele>
      </trkpt>
      <trkpt lat="45.90853" lon="5.76271">
        <ele>1470.6</ele>
      </trkpt>
      <trkpt lat="45.90859" lon="5.76269">
        <ele>1471.8</ele>
      </trkpt>
      <trkpt lat="45.90928" lon="5.76286">
        <ele>1476.6</ele>
      </trkpt>
      <trkpt lat="45.90942" lon="5.7629">
        <ele>1478.2</ele>
      </trkpt>
      <trkpt lat="45.90952" lon="5.76296">
        <ele>1479.2</ele>
      </trkpt>
      <trkpt lat="45.90976" lon="5.76316">
        <ele>1483.1</ele>
      </trkpt>
      <trkpt lat="45.91027" lon="5.76389">
        <ele>1473.9</ele>
      </trkpt>
      <trkpt lat="45.91038" lon="5.76397">
        <ele>1472.6</ele>
      </trkpt>
      <trkpt lat="45.91059" lon="5.76411">
        <ele>1471.4</ele>
      </trkpt>
      <trkpt lat="45.91065" lon="5.76413">
        <ele>1471.7</ele>
      </trkpt>
      <trkpt lat="45.9107" lon="5.76412">
        <ele>1472.4</ele>
      </trkpt>
      <trkpt lat="45.91077" lon="5.76405">
        <ele>1473.8</ele>
      </trkpt>
      <trkpt lat="45.91082" lon="5.76398">
        <ele>1475.1</ele>
      </trkpt>
      <trkpt lat="45.91096" lon="5.7637">
        <ele>1473.5</ele>
      </trkpt>
      <trkpt lat="45.91101" lon="5.76354">
        <ele>1473.5</ele>
      </trkpt>
      <trkpt lat="45.91103" lon="5.76352">
        <ele>1473.2</ele>
      </trkpt>
      <trkpt lat="45.91106" lon="5.76354">
        <ele>1471.5</ele>
      </trkpt>
      <trkpt lat="45.91112" lon="5.76354">
        <ele>1469.2</ele>
      </trkpt>
      <trkpt lat="45.91119" lon="5.76349">
        <ele>1467.2</ele>
      </trkpt>
      <trkpt lat="45.91124" lon="5.76342">
        <ele>1466.3</ele>
      </trkpt>
      <trkpt lat="45.91126" lon="5.76344">
        <ele>1465.2</ele>
      </trkpt>
      <trkpt lat="45.91128" lon="5.76344">
        <ele>1464.7</ele>
      </trkpt>
      <trkpt lat="45.91129" lon="5.76341">
        <ele>1464.7</ele>
      </trkpt>
      <trkpt lat="45.91129" lon="5.76337">
        <ele>1465.4</ele>
      </trkpt>
      <trkpt lat="45.91131" lon="5.76334">
        <ele>1465.4</ele>
      </trkpt>
      <trkpt lat="45.91134" lon="5.76336">
        <ele>1463.6</ele>
      </trkpt>
      <trkpt lat="45.91138" lon="5.76336">
        <ele>1462.2</ele>
      </trkpt>
      <trkpt lat="45.91142" lon="5.76336">
        <ele>1460.8</ele>
      </trkpt>
      <trkpt lat="45.91147" lon="5.76343">
        <ele>1457.4</ele>
      </trkpt>
      <trkpt lat="45.91158" lon="5.76346">
        <ele>1452.8</ele>
      </trkpt>
      <trkpt lat="45.91216" lon="5.76359">
        <ele>1433</ele>
      </trkpt>
      <trkpt lat="45.9125" lon="5.76372">
        <ele>1422.7</ele>
      </trkpt>
      <trkpt lat="45.91279" lon="5.76386">
        <ele>1412.4</ele>
      </trkpt>
      <trkpt lat="45.91287" lon="5.76391">
        <ele>1410.2</ele>
      </trkpt>
      <trkpt lat="45.91305" lon="5.76415">
        <ele>1405.8</ele>
      </trkpt>
      <trkpt lat="45.91319" lon="5.76429">
        <ele>1400.1</ele>
      </trkpt>
      <trkpt lat="45.91345" lon="5.76447">
        <ele>1391.7</ele>
      </trkpt>
      <trkpt lat="45.91375" lon="5.76475">
        <ele>1383.9</ele>
      </trkpt>
      <trkpt lat="45.91409" lon="5.76501">
        <ele>1380.5</ele>
      </trkpt>
      <trkpt lat="45.91421" lon="5.7652">
        <ele>1377</ele>
      </trkpt>
      <trkpt lat="45.91431" lon="5.76526">
        <ele>1375.5</ele>
      </trkpt>
      <trkpt lat="45.91448" lon="5.76529">
        <ele>1373.9</ele>
      </trkpt>
      <trkpt lat="45.91455" lon="5.76541">
        <ele>1372.7</ele>
      </trkpt>
      <trkpt lat="45.91461" lon="5.76543">
        <ele>1372.3</ele>
      </trkpt>
      <trkpt lat="45.91478" lon="5.76544">
        <ele>1371.5</ele>
      </trkpt>
      <trkpt lat="45.91496" lon="5.76553">
        <ele>1371</ele>
      </trkpt>
      <trkpt lat="45.91518" lon="5.76574">
        <ele>1368.7</ele>
      </trkpt>
      <trkpt lat="45.91528" lon="5.76593">
        <ele>1366.7</ele>
      </trkpt>
      <trkpt lat="45.91541" lon="5.76602">
        <ele>1363.9</ele>
      </trkpt>
      <trkpt lat="45.91563" lon="5.76606">
        <ele>1361.2</ele>
      </trkpt>
      <trkpt lat="45.9158" lon="5.76616">
        <ele>1358.8</ele>
      </trkpt>
      <trkpt lat="45.91598" lon="5.76621">
        <ele>1354.9</ele>
      </trkpt>
      <trkpt lat="45.91613" lon="5.76627">
        <ele>1351.7</ele>
      </trkpt>
      <trkpt lat="45.91631" lon="5.76638">
        <ele>1348.5</ele>
      </trkpt>
      <trkpt lat="45.91659" lon="5.76656">
        <ele>1345</ele>
      </trkpt>
      <trkpt lat="45.91698" lon="5.76685">
        <ele>1333.1</ele>
      </trkpt>
      <trkpt lat="45.91709" lon="5.767">
        <ele>1328.2</ele>
      </trkpt>
      <trkpt lat="45.91734" lon="5.76706">
        <ele>1321.2</ele>
      </trkpt>
      <trkpt lat="45.91748" lon="5.76718">
        <ele>1317.2</ele>
      </trkpt>
      <trkpt lat="45.91758" lon="5.76722">
        <ele>1316.4</ele>
      </trkpt>
      <trkpt lat="45.9177" lon="5.76723">
        <ele>1316.4</ele>
      </trkpt>
      <trkpt lat="45.91793" lon="5.7672">
        <ele>1316.5</ele>
      </trkpt>
      <trkpt lat="45.918" lon="5.76717">
        <ele>1316.4</ele>
      </trkpt>
      <trkpt lat="45.91809" lon="5.76708">
        <ele>1315.9</ele>
      </trkpt>
      <trkpt lat="45.91807" lon="5.76682">
        <ele>1314.9</ele>
      </trkpt>
      <trkpt lat="45.91804" lon="5.76657">
        <ele>1313</ele>
      </trkpt>
      <trkpt lat="45.918" lon="5.76616">
        <ele>1307.2</ele>
      </trkpt>
      <trkpt lat="45.91796" lon="5.76596">
        <ele>1304.7</ele>
      </trkpt>
      <trkpt lat="45.918" lon="5.76588">
        <ele>1303</ele>
      </trkpt>
      <trkpt lat="45.91809" lon="5.7658">
        <ele>1300</ele>
      </trkpt>
      <trkpt lat="45.91819" lon="5.76579">
        <ele>1298.3</ele>
      </trkpt>
      <trkpt lat="45.91828" lon="5.76579">
        <ele>1296.6</ele>
      </trkpt>
      <trkpt lat="45.91837" lon="5.76575">
        <ele>1295.2</ele>
      </trkpt>
      <trkpt lat="45.91853" lon="5.76553">
        <ele>1290.3</ele>
      </trkpt>
      <trkpt lat="45.91883" lon="5.76537">
        <ele>1287.2</ele>
      </trkpt>
      <trkpt lat="45.91917" lon="5.76516">
        <ele>1281.3</ele>
      </trkpt>
      <trkpt lat="45.91953" lon="5.76489">
        <ele>1272.9</ele>
      </trkpt>
      <trkpt lat="45.9198" lon="5.76463">
        <ele>1264.2</ele>
      </trkpt>
      <trkpt lat="45.92" lon="5.76438">
        <ele>1255</ele>
      </trkpt>
      <trkpt lat="45.92018" lon="5.76415">
        <ele>1245.6</ele>
      </trkpt>
      <trkpt lat="45.92037" lon="5.76402">
        <ele>1243.6</ele>
      </trkpt>
      <trkpt lat="45.92069" lon="5.764">
        <ele>1241.2</ele>
      </trkpt>
      <trkpt lat="45.92109" lon="5.76399">
        <ele>1238.3</ele>
      </trkpt>
      <trkpt lat="45.9215" lon="5.76383">
        <ele>1234.6</ele>
      </trkpt>
      <trkpt lat="45.92206" lon="5.76379">
        <ele>1230.2</ele>
      </trkpt>
      <trkpt lat="45.92251" lon="5.76384">
        <ele>1227</ele>
      </trkpt>
      <trkpt lat="45.92283" lon="5.76404">
        <ele>1225.6</ele>
      </trkpt>
      <trkpt lat="45.92313" lon="5.76408">
        <ele>1223.4</ele>
      </trkpt>
      <trkpt lat="45.92356" lon="5.76402">
        <ele>1219.9</ele>
      </trkpt>
      <trkpt lat="45.92405" lon="5.76408">
        <ele>1217.3</ele>
      </trkpt>
      <trkpt lat="45.92439" lon="5.76409">
        <ele>1211.9</ele>
      </trkpt>
      <trkpt lat="45.92466" lon="5.76424">
        <ele>1209.4</ele>
      </trkpt>
      <trkpt lat="45.92508" lon="5.76441">
        <ele>1205.7</ele>
      </trkpt>
      <trkpt lat="45.92545" lon="5.76442">
        <ele>1199.8</ele>
      </trkpt>
      <trkpt lat="45.92625" lon="5.76453">
        <ele>1191.7</ele>
      </trkpt>
      <trkpt lat="45.92687" lon="5.76455">
        <ele>1190.3</ele>
      </trkpt>
      <trkpt lat="45.92725" lon="5.76458">
        <ele>1195.2</ele>
      </trkpt>
      <trkpt lat="45.92751" lon="5.76463">
        <ele>1199.8</ele>
      </trkpt>
      <trkpt lat="45.92767" lon="5.7646">
        <ele>1202.2</ele>
      </trkpt>
      <trkpt lat="45.92784" lon="5.76441">
        <ele>1198.1</ele>
      </trkpt>
      <trkpt lat="45.92787" lon="5.76407">
        <ele>1186.9</ele>
      </trkpt>
      <trkpt lat="45.92799" lon="5.76389">
        <ele>1184.5</ele>
      </trkpt>
      <trkpt lat="45.92833" lon="5.76362">
        <ele>1184.3</ele>
      </trkpt>
      <trkpt lat="45.92841" lon="5.76361">
        <ele>1182.7</ele>
      </trkpt>
      <trkpt lat="45.92853" lon="5.7637">
        <ele>1182.9</ele>
      </trkpt>
      <trkpt lat="45.92901" lon="5.76433">
        <ele>1190.5</ele>
      </trkpt>
      <trkpt lat="45.92924" lon="5.7645">
        <ele>1191.6</ele>
      </trkpt>
      <trkpt lat="45.92945" lon="5.76469">
        <ele>1192.4</ele>
      </trkpt>
      <trkpt lat="45.92962" lon="5.76476">
        <ele>1189.6</ele>
      </trkpt>
      <trkpt lat="45.93007" lon="5.76486">
        <ele>1179.1</ele>
      </trkpt>
      <trkpt lat="45.93037" lon="5.76487">
        <ele>1177.3</ele>
      </trkpt>
      <trkpt lat="45.9309" lon="5.76475">
        <ele>1169.1</ele>
      </trkpt>
      <trkpt lat="45.9315" lon="5.76468">
        <ele>1166.9</ele>
      </trkpt>
      <trkpt lat="45.93199" lon="5.76465">
        <ele>1171.3</ele>
      </trkpt>
      <trkpt lat="45.93209" lon="5.7646">
        <ele>1170.5</ele>
      </trkpt>
      <trkpt lat="45.93225" lon="5.76442">
        <ele>1165.2</ele>
      </trkpt>
      <trkpt lat="45.93247" lon="5.76437">
        <ele>1165.8</ele>
      </trkpt>
      <trkpt lat="45.93288" lon="5.764">
        <ele>1164.6</ele>
      </trkpt>
      <trkpt lat="45.9332" lon="5.76356">
        <ele>1158.9</ele>
      </trkpt>
      <trkpt lat="45.93383" lon="5.76311">
        <ele>1160.7</ele>
      </trkpt>
      <trkpt lat="45.93437" lon="5.76259">
        <ele>1156.3</ele>
      </trkpt>
      <trkpt lat="45.9349" lon="5.76233">
        <ele>1162.4</ele>
      </trkpt>
      <trkpt lat="45.93495" lon="5.76228">
        <ele>1163.1</ele>
      </trkpt>
      <trkpt lat="45.93498" lon="5.76219">
        <ele>1163.5</ele>
      </trkpt>
      <trkpt lat="45.9352" lon="5.76211">
        <ele>1165.6</ele>
      </trkpt>
      <trkpt lat="45.93557" lon="5.76183">
        <ele>1165.9</ele>
      </trkpt>
      <trkpt lat="45.93589" lon="5.76168">
        <ele>1165</ele>
      </trkpt>
      <trkpt lat="45.93623" lon="5.7616">
        <ele>1169.6</ele>
      </trkpt>
      <trkpt lat="45.93657" lon="5.7615">
        <ele>1174.3</ele>
      </trkpt>
      <trkpt lat="45.93662" lon="5.76144">
        <ele>1175.3</ele>
      </trkpt>
      <trkpt lat="45.93664" lon="5.76132">
        <ele>1176.3</ele>
      </trkpt>
      <trkpt lat="45.93658" lon="5.76121">
        <ele>1176.9</ele>
      </trkpt>
      <trkpt lat="45.9364" lon="5.76119">
        <ele>1176.3</ele>
      </trkpt>
      <trkpt lat="45.93609" lon="5.76111">
        <ele>1176.1</ele>
      </trkpt>
      <trkpt lat="45.93581" lon="5.76109">
        <ele>1175.9</ele>
      </trkpt>
      <trkpt lat="45.93534" lon="5.7611">
        <ele>1178.9</ele>
      </trkpt>
      <trkpt lat="45.93459" lon="5.76123">
        <ele>1179.3</ele>
      </trkpt>
      <trkpt lat="45.934" lon="5.76133">
        <ele>1178.5</ele>
      </trkpt>
      <trkpt lat="45.93316" lon="5.76135">
        <ele>1180.9</ele>
      </trkpt>
      <trkpt lat="45.93257" lon="5.76142">
        <ele>1175.8</ele>
      </trkpt>
      <trkpt lat="45.93244" lon="5.76139">
        <ele>1174.4</ele>
      </trkpt>
      <trkpt lat="45.93241" lon="5.7613">
        <ele>1175.3</ele>
      </trkpt>
      <trkpt lat="45.93239" lon="5.7612">
        <ele>1177.2</ele>
      </trkpt>
      <trkpt lat="45.93247" lon="5.76088">
        <ele>1186.1</ele>
      </trkpt>
      <trkpt lat="45.93248" lon="5.76069">
        <ele>1187</ele>
      </trkpt>
      <trkpt lat="45.93246" lon="5.76051">
        <ele>1186.1</ele>
      </trkpt>
      <trkpt lat="45.93237" lon="5.76011">
        <ele>1183.7</ele>
      </trkpt>
      <trkpt lat="45.93238" lon="5.75986">
        <ele>1182.4</ele>
      </trkpt>
      <trkpt lat="45.93247" lon="5.75959">
        <ele>1181.5</ele>
      </trkpt>
      <trkpt lat="45.93287" lon="5.75886">
        <ele>1189.4</ele>
      </trkpt>
      <trkpt lat="45.933" lon="5.75834">
        <ele>1188.2</ele>
      </trkpt>
      <trkpt lat="45.93301" lon="5.75825">
        <ele>1187.6</ele>
      </trkpt>
      <trkpt lat="45.93302" lon="5.75814">
        <ele>1186.2</ele>
      </trkpt>
      <trkpt lat="45.93302" lon="5.75799">
        <ele>1184.5</ele>
      </trkpt>
      <trkpt lat="45.93301" lon="5.75779">
        <ele>1181.4</ele>
      </trkpt>
      <trkpt lat="45.93296" lon="5.75747">
        <ele>1174.7</ele>
      </trkpt>
      <trkpt lat="45.93298" lon="5.75733">
        <ele>1173.8</ele>
      </trkpt>
      <trkpt lat="45.93304" lon="5.75729">
        <ele>1176</ele>
      </trkpt>
      <trkpt lat="45.93319" lon="5.75728">
        <ele>1182.5</ele>
      </trkpt>
      <trkpt lat="45.93348" lon="5.75731">
        <ele>1191.8</ele>
      </trkpt>
      <trkpt lat="45.93368" lon="5.75734">
        <ele>1195.9</ele>
      </trkpt>
      <trkpt lat="45.93389" lon="5.75737">
        <ele>1200.1</ele>
      </trkpt>
      <trkpt lat="45.93465" lon="5.75717">
        <ele>1208.8</ele>
      </trkpt>
      <trkpt lat="45.93525" lon="5.75703">
        <ele>1217.9</ele>
      </trkpt>
      <trkpt lat="45.93543" lon="5.75704">
        <ele>1221.5</ele>
      </trkpt>
      <trkpt lat="45.93564" lon="5.75713">
        <ele>1225.5</ele>
      </trkpt>
      <trkpt lat="45.93606" lon="5.75731">
        <ele>1230.9</ele>
      </trkpt>
      <trkpt lat="45.93657" lon="5.75757">
        <ele>1233.9</ele>
      </trkpt>
      <trkpt lat="45.93673" lon="5.75761">
        <ele>1235.1</ele>
      </trkpt>
      <trkpt lat="45.93692" lon="5.75761">
        <ele>1236.1</ele>
      </trkpt>
      <trkpt lat="45.93722" lon="5.75751">
        <ele>1237.3</ele>
      </trkpt>
      <trkpt lat="45.93763" lon="5.75745">
        <ele>1240.3</ele>
      </trkpt>
      <trkpt lat="45.93818" lon="5.75743">
        <ele>1243.9</ele>
      </trkpt>
      <trkpt lat="45.93844" lon="5.75747">
        <ele>1244.2</ele>
      </trkpt>
      <trkpt lat="45.93878" lon="5.75741">
        <ele>1244.3</ele>
      </trkpt>
      <trkpt lat="45.93894" lon="5.75742">
        <ele>1243.8</ele>
      </trkpt>
      <trkpt lat="45.93913" lon="5.75737">
        <ele>1244.5</ele>
      </trkpt>
      <trkpt lat="45.94003" lon="5.75704">
        <ele>1254.4</ele>
      </trkpt>
      <trkpt lat="45.94051" lon="5.75699">
        <ele>1253.2</ele>
      </trkpt>
      <trkpt lat="45.94086" lon="5.75687">
        <ele>1254.8</ele>
      </trkpt>
      <trkpt lat="45.9412" lon="5.75679">
        <ele>1257.5</ele>
      </trkpt>
      <trkpt lat="45.94141" lon="5.75675">
        <ele>1259.2</ele>
      </trkpt>
      <trkpt lat="45.94157" lon="5.7567">
        <ele>1260.8</ele>
      </trkpt>
      <trkpt lat="45.94166" lon="5.75666">
        <ele>1262.4</ele>
      </trkpt>
      <trkpt lat="45.94181" lon="5.75656">
        <ele>1264.6</ele>
      </trkpt>
      <trkpt lat="45.94203" lon="5.75646">
        <ele>1267</ele>
      </trkpt>
      <trkpt lat="45.94215" lon="5.75644">
        <ele>1267.2</ele>
      </trkpt>
      <trkpt lat="45.9423" lon="5.75642">
        <ele>1267.1</ele>
      </trkpt>
      <trkpt lat="45.94258" lon="5.75636">
        <ele>1268.7</ele>
      </trkpt>
      <trkpt lat="45.94304" lon="5.75631">
        <ele>1267.8</ele>
      </trkpt>
      <trkpt lat="45.94366" lon="5.75613">
        <ele>1270.7</ele>
      </trkpt>
      <trkpt lat="45.94391" lon="5.756">
        <ele>1273.9</ele>
      </trkpt>
      <trkpt lat="45.94418" lon="5.75615">
        <ele>1267.3</ele>
      </trkpt>
      <trkpt lat="45.94431" lon="5.75614">
        <ele>1265.9</ele>
      </trkpt>
      <trkpt lat="45.94464" lon="5.75603">
        <ele>1265.2</ele>
      </trkpt>
      <trkpt lat="45.94515" lon="5.75588">
        <ele>1263.6</ele>
      </trkpt>
      <trkpt lat="45.94605" lon="5.75585">
        <ele>1260.2</ele>
      </trkpt>
      <trkpt lat="45.94659" lon="5.75574">
        <ele>1264.5</ele>
      </trkpt>
      <trkpt lat="45.94695" lon="5.75571">
        <ele>1262</ele>
      </trkpt>
      <trkpt lat="45.94725" lon="5.75578">
        <ele>1256.5</ele>
      </trkpt>
      <trkpt lat="45.94793" lon="5.75568">
        <ele>1251.9</ele>
      </trkpt>
      <trkpt lat="45.94814" lon="5.75572">
        <ele>1248.1</ele>
      </trkpt>
      <trkpt lat="45.9484" lon="5.75564">
        <ele>1247.7</ele>
      </trkpt>
      <trkpt lat="45.9487" lon="5.75552">
        <ele>1249.3</ele>
      </trkpt>
      <trkpt lat="45.94896" lon="5.75536">
        <ele>1251</ele>
      </trkpt>
      <trkpt lat="45.94903" lon="5.75533">
        <ele>1251.1</ele>
      </trkpt>
      <trkpt lat="45.94911" lon="5.75534">
        <ele>1249.9</ele>
      </trkpt>
      <trkpt lat="45.94922" lon="5.75538">
        <ele>1249</ele>
      </trkpt>
      <trkpt lat="45.94933" lon="5.75547">
        <ele>1247.9</ele>
      </trkpt>
      <trkpt lat="45.94959" lon="5.75566">
        <ele>1245.3</ele>
      </trkpt>
      <trkpt lat="45.9502" lon="5.75601">
        <ele>1242.3</ele>
      </trkpt>
      <trkpt lat="45.95066" lon="5.75633">
        <ele>1242.1</ele>
      </trkpt>
      <trkpt lat="45.95081" lon="5.7564">
        <ele>1242.4</ele>
      </trkpt>
      <trkpt lat="45.95095" lon="5.75642">
        <ele>1241.8</ele>
      </trkpt>
      <trkpt lat="45.95112" lon="5.75638">
        <ele>1241.4</ele>
      </trkpt>
      <trkpt lat="45.95116" lon="5.75629">
        <ele>1242.3</ele>
      </trkpt>
      <trkpt lat="45.95121" lon="5.75619">
        <ele>1243</ele>
      </trkpt>
      <trkpt lat="45.95174" lon="5.75565">
        <ele>1249.7</ele>
      </trkpt>
      <trkpt lat="45.95196" lon="5.75539">
        <ele>1254.3</ele>
      </trkpt>
      <trkpt lat="45.9522" lon="5.75511">
        <ele>1258.5</ele>
      </trkpt>
      <trkpt lat="45.95231" lon="5.75497">
        <ele>1260.2</ele>
      </trkpt>
      <trkpt lat="45.95254" lon="5.7546">
        <ele>1263</ele>
      </trkpt>
      <trkpt lat="45.95258" lon="5.7545">
        <ele>1264</ele>
      </trkpt>
      <trkpt lat="45.95258" lon="5.75442">
        <ele>1264.7</ele>
      </trkpt>
      <trkpt lat="45.95258" lon="5.75431">
        <ele>1265.7</ele>
      </trkpt>
      <trkpt lat="45.95257" lon="5.75425">
        <ele>1266.2</ele>
      </trkpt>
      <trkpt lat="45.95291" lon="5.7536">
        <ele>1268.1</ele>
      </trkpt>
      <trkpt lat="45.95342" lon="5.75327">
        <ele>1263.7</ele>
      </trkpt>
      <trkpt lat="45.95374" lon="5.75317">
        <ele>1262.8</ele>
      </trkpt>
      <trkpt lat="45.95397" lon="5.75302">
        <ele>1261.6</ele>
      </trkpt>
      <trkpt lat="45.95415" lon="5.75284">
        <ele>1260.1</ele>
      </trkpt>
      <trkpt lat="45.95418" lon="5.75276">
        <ele>1259.6</ele>
      </trkpt>
      <trkpt lat="45.95418" lon="5.75263">
        <ele>1258.8</ele>
      </trkpt>
      <trkpt lat="45.95411" lon="5.75242">
        <ele>1257.9</ele>
      </trkpt>
      <trkpt lat="45.95414" lon="5.75211">
        <ele>1256.7</ele>
      </trkpt>
      <trkpt lat="45.95462" lon="5.7519">
        <ele>1254.5</ele>
      </trkpt>
      <trkpt lat="45.95488" lon="5.75173">
        <ele>1252.8</ele>
      </trkpt>
      <trkpt lat="45.9552" lon="5.75169">
        <ele>1253.1</ele>
      </trkpt>
      <trkpt lat="45.95568" lon="5.75159">
        <ele>1255.4</ele>
      </trkpt>
      <trkpt lat="45.95605" lon="5.75157">
        <ele>1255.2</ele>
      </trkpt>
      <trkpt lat="45.95615" lon="5.75155">
        <ele>1254.8</ele>
      </trkpt>
      <trkpt lat="45.95631" lon="5.75145">
        <ele>1254.1</ele>
      </trkpt>
      <trkpt lat="45.95656" lon="5.75121">
        <ele>1252.9</ele>
      </trkpt>
      <trkpt lat="45.95737" lon="5.75097">
        <ele>1254.8</ele>
      </trkpt>
      <trkpt lat="45.95755" lon="5.75097">
        <ele>1255.6</ele>
      </trkpt>
      <trkpt lat="45.95807" lon="5.75115">
        <ele>1259.4</ele>
      </trkpt>
      <trkpt lat="45.95818" lon="5.75117">
        <ele>1260.2</ele>
      </trkpt>
      <trkpt lat="45.95832" lon="5.75114">
        <ele>1261</ele>
      </trkpt>
      <trkpt lat="45.95882" lon="5.75084">
        <ele>1258.9</ele>
      </trkpt>
      <trkpt lat="45.95927" lon="5.75071">
        <ele>1258.1</ele>
      </trkpt>
      <trkpt lat="45.95965" lon="5.75071">
        <ele>1250.4</ele>
      </trkpt>
      <trkpt lat="45.96021" lon="5.75082">
        <ele>1238.6</ele>
      </trkpt>
      <trkpt lat="45.96106" lon="5.75067">
        <ele>1226.1</ele>
      </trkpt>
      <trkpt lat="45.96143" lon="5.75053">
        <ele>1221.4</ele>
      </trkpt>
      <trkpt lat="45.96234" lon="5.75051">
        <ele>1210.1</ele>
      </trkpt>
      <trkpt lat="45.96369" lon="5.75048">
        <ele>1207.3</ele>
      </trkpt>
      <trkpt lat="45.96516" lon="5.75026">
        <ele>1202.5</ele>
      </trkpt>
      <trkpt lat="45.96581" lon="5.75027">
        <ele>1200</ele>
      </trkpt>
      <trkpt lat="45.96735" lon="5.75014">
        <ele>1196.3</ele>
      </trkpt>
      <trkpt lat="45.96827" lon="5.75066">
        <ele>1196.6</ele>
      </trkpt>
      <trkpt lat="45.96959" lon="5.75121">
        <ele>1191.2</ele>
      </trkpt>
      <trkpt lat="45.97007" lon="5.75135">
        <ele>1188.2</ele>
      </trkpt>
      <trkpt lat="45.97062" lon="5.75136">
        <ele>1183.9</ele>
      </trkpt>
      <trkpt lat="45.97104" lon="5.75142">
        <ele>1180.8</ele>
      </trkpt>
      <trkpt lat="45.97134" lon="5.75142">
        <ele>1178.5</ele>
      </trkpt>
      <trkpt lat="45.97161" lon="5.75116">
        <ele>1176.4</ele>
      </trkpt>
      <trkpt lat="45.97188" lon="5.75104">
        <ele>1174.6</ele>
      </trkpt>
      <trkpt lat="45.97214" lon="5.75105">
        <ele>1173</ele>
      </trkpt>
      <trkpt lat="45.97257" lon="5.75127">
        <ele>1169.2</ele>
      </trkpt>
      <trkpt lat="45.97315" lon="5.75155">
        <ele>1166.2</ele>
      </trkpt>
      <trkpt lat="45.97337" lon="5.75163">
        <ele>1165.6</ele>
      </trkpt>
      <trkpt lat="45.97371" lon="5.75157">
        <ele>1169.1</ele>
      </trkpt>
      <trkpt lat="45.97393" lon="5.75143">
        <ele>1171.6</ele>
      </trkpt>
      <trkpt lat="45.97409" lon="5.75162">
        <ele>1172.4</ele>
      </trkpt>
      <trkpt lat="45.97434" lon="5.75227">
        <ele>1178.7</ele>
      </trkpt>
      <trkpt lat="45.97438" lon="5.75241">
        <ele>1179.7</ele>
      </trkpt>
      <trkpt lat="45.97446" lon="5.75279">
        <ele>1181.4</ele>
      </trkpt>
      <trkpt lat="45.97451" lon="5.7529">
        <ele>1181.4</ele>
      </trkpt>
      <trkpt lat="45.97458" lon="5.75297">
        <ele>1181.1</ele>
      </trkpt>
      <trkpt lat="45.9747" lon="5.75301">
        <ele>1180.1</ele>
      </trkpt>
      <trkpt lat="45.97519" lon="5.75292">
        <ele>1173.4</ele>
      </trkpt>
      <trkpt lat="45.97533" lon="5.75295">
        <ele>1171.4</ele>
      </trkpt>
      <trkpt lat="45.97548" lon="5.75295">
        <ele>1168.9</ele>
      </trkpt>
      <trkpt lat="45.97572" lon="5.75288">
        <ele>1164.8</ele>
      </trkpt>
      <trkpt lat="45.97606" lon="5.75269">
        <ele>1160.5</ele>
      </trkpt>
      <trkpt lat="45.97629" lon="5.75246">
        <ele>1157.5</ele>
      </trkpt>
      <trkpt lat="45.97661" lon="5.75224">
        <ele>1153.7</ele>
      </trkpt>
      <trkpt lat="45.97664" lon="5.75219">
        <ele>1153.3</ele>
      </trkpt>
      <trkpt lat="45.9767" lon="5.75204">
        <ele>1152.6</ele>
      </trkpt>
      <trkpt lat="45.97676" lon="5.75196">
        <ele>1151.8</ele>
      </trkpt>
      <trkpt lat="45.97697" lon="5.75202">
        <ele>1149.3</ele>
      </trkpt>
      <trkpt lat="45.97705" lon="5.75204">
        <ele>1148.3</ele>
      </trkpt>
      <trkpt lat="45.97716" lon="5.75205">
        <ele>1147.1</ele>
      </trkpt>
      <trkpt lat="45.97748" lon="5.75201">
        <ele>1143.1</ele>
      </trkpt>
      <trkpt lat="45.97797" lon="5.752">
        <ele>1137.8</ele>
      </trkpt>
      <trkpt lat="45.97854" lon="5.75192">
        <ele>1131.7</ele>
      </trkpt>
      <trkpt lat="45.97875" lon="5.75192">
        <ele>1129.8</ele>
      </trkpt>
      <trkpt lat="45.97925" lon="5.75205">
        <ele>1126.7</ele>
      </trkpt>
      <trkpt lat="45.97942" lon="5.75205">
        <ele>1126.5</ele>
      </trkpt>
      <trkpt lat="45.97949" lon="5.75203">
        <ele>1126.3</ele>
      </trkpt>
      <trkpt lat="45.98026" lon="5.7516">
        <ele>1120.8</ele>
      </trkpt>
      <trkpt lat="45.98037" lon="5.75156">
        <ele>1119.7</ele>
      </trkpt>
      <trkpt lat="45.9807" lon="5.7515">
        <ele>1117</ele>
      </trkpt>
      <trkpt lat="45.98128" lon="5.75149">
        <ele>1113.4</ele>
      </trkpt>
      <trkpt lat="45.98152" lon="5.75145">
        <ele>1111.5</ele>
      </trkpt>
      <trkpt lat="45.98192" lon="5.75145">
        <ele>1108.7</ele>
      </trkpt>
      <trkpt lat="45.98203" lon="5.75148">
        <ele>1108.2</ele>
      </trkpt>
      <trkpt lat="45.98229" lon="5.7516">
        <ele>1107.6</ele>
      </trkpt>
      <trkpt lat="45.98254" lon="5.75179">
        <ele>1106.9</ele>
      </trkpt>
      <trkpt lat="45.98268" lon="5.75186">
        <ele>1105.6</ele>
      </trkpt>
      <trkpt lat="45.98279" lon="5.75188">
        <ele>1104.5</ele>
      </trkpt>
      <trkpt lat="45.98292" lon="5.75186">
        <ele>1103.1</ele>
      </trkpt>
      <trkpt lat="45.98341" lon="5.75164">
        <ele>1098.2</ele>
      </trkpt>
      <trkpt lat="45.98354" lon="5.75159">
        <ele>1096.9</ele>
      </trkpt>
      <trkpt lat="45.98364" lon="5.75158">
        <ele>1096.1</ele>
      </trkpt>
      <trkpt lat="45.98382" lon="5.75158">
        <ele>1095.1</ele>
      </trkpt>
      <trkpt lat="45.98396" lon="5.75161">
        <ele>1094.7</ele>
      </trkpt>
      <trkpt lat="45.98455" lon="5.75186">
        <ele>1091.4</ele>
      </trkpt>
      <trkpt lat="45.9847" lon="5.75189">
        <ele>1090.3</ele>
      </trkpt>
      <trkpt lat="45.98497" lon="5.75188">
        <ele>1088.4</ele>
      </trkpt>
      <trkpt lat="45.98541" lon="5.75176">
        <ele>1084.2</ele>
      </trkpt>
      <trkpt lat="45.98694" lon="5.75113">
        <ele>1060.4</ele>
      </trkpt>
      <trkpt lat="45.98765" lon="5.7509">
        <ele>1051.7</ele>
      </trkpt>
      <trkpt lat="45.98866" lon="5.75044">
        <ele>1045.4</ele>
      </trkpt>
      <trkpt lat="45.99029" lon="5.74988">
        <ele>1028.3</ele>
      </trkpt>
      <trkpt lat="45.99095" lon="5.74976">
        <ele>1021.3</ele>
      </trkpt>
      <trkpt lat="45.9918" lon="5.74957">
        <ele>1013.2</ele>
      </trkpt>
      <trkpt lat="45.992" lon="5.74954">
        <ele>1009</ele>
      </trkpt>
      <trkpt lat="45.9921" lon="5.74955">
        <ele>1007.3</ele>
      </trkpt>
      <trkpt lat="45.99223" lon="5.74961">
        <ele>1005.5</ele>
      </trkpt>
      <trkpt lat="45.99241" lon="5.74973">
        <ele>1004</ele>
      </trkpt>
      <trkpt lat="45.99255" lon="5.74977">
        <ele>1002.2</ele>
      </trkpt>
      <trkpt lat="45.99296" lon="5.74959">
        <ele>995.7</ele>
      </trkpt>
      <trkpt lat="45.99359" lon="5.74943">
        <ele>987.1</ele>
      </trkpt>
      <trkpt lat="45.99376" lon="5.74944">
        <ele>984.8</ele>
      </trkpt>
      <trkpt lat="45.99384" lon="5.74947">
        <ele>984</ele>
      </trkpt>
      <trkpt lat="45.99403" lon="5.74967">
        <ele>982.5</ele>
      </trkpt>
      <trkpt lat="45.99417" lon="5.74978">
        <ele>980.9</ele>
      </trkpt>
      <trkpt lat="45.99427" lon="5.74981">
        <ele>980.3</ele>
      </trkpt>
      <trkpt lat="45.99434" lon="5.74977">
        <ele>979.5</ele>
      </trkpt>
      <trkpt lat="45.99443" lon="5.74955">
        <ele>978</ele>
      </trkpt>
      <trkpt lat="45.99449" lon="5.74945">
        <ele>977.1</ele>
      </trkpt>
      <trkpt lat="45.99461" lon="5.74939">
        <ele>976.1</ele>
      </trkpt>
      <trkpt lat="45.99481" lon="5.74937">
        <ele>974.7</ele>
      </trkpt>
      <trkpt lat="45.9949" lon="5.74952">
        <ele>974.6</ele>
      </trkpt>
      <trkpt lat="45.995" lon="5.74997">
        <ele>975</ele>
      </trkpt>
      <trkpt lat="45.99502" lon="5.75055">
        <ele>977.3</ele>
      </trkpt>
      <trkpt lat="45.99502" lon="5.75101">
        <ele>977.8</ele>
      </trkpt>
      <trkpt lat="45.99493" lon="5.75155">
        <ele>976.8</ele>
      </trkpt>
      <trkpt lat="45.99486" lon="5.75187">
        <ele>975.1</ele>
      </trkpt>
      <trkpt lat="45.99487" lon="5.75207">
        <ele>973.2</ele>
      </trkpt>
      <trkpt lat="45.9949" lon="5.75213">
        <ele>972.5</ele>
      </trkpt>
      <trkpt lat="45.995" lon="5.75216">
        <ele>971.9</ele>
      </trkpt>
      <trkpt lat="45.99526" lon="5.75208">
        <ele>971.5</ele>
      </trkpt>
      <trkpt lat="45.99549" lon="5.75196">
        <ele>972</ele>
      </trkpt>
      <trkpt lat="45.99575" lon="5.75175">
        <ele>974.7</ele>
      </trkpt>
      <trkpt lat="45.99613" lon="5.75138">
        <ele>977.7</ele>
      </trkpt>
      <trkpt lat="45.99635" lon="5.7512">
        <ele>978.9</ele>
      </trkpt>
      <trkpt lat="45.99663" lon="5.75114">
        <ele>976.8</ele>
      </trkpt>
      <trkpt lat="45.99701" lon="5.75097">
        <ele>974.5</ele>
      </trkpt>
      <trkpt lat="45.99727" lon="5.75077">
        <ele>973.7</ele>
      </trkpt>
      <trkpt lat="45.99755" lon="5.75052">
        <ele>974.5</ele>
      </trkpt>
      <trkpt lat="45.99788" lon="5.75021">
        <ele>975.5</ele>
      </trkpt>
      <trkpt lat="45.99819" lon="5.74994">
        <ele>974.6</ele>
      </trkpt>
      <trkpt lat="45.99848" lon="5.74967">
        <ele>976.2</ele>
      </trkpt>
      <trkpt lat="45.99872" lon="5.74945">
        <ele>976.5</ele>
      </trkpt>
      <trkpt lat="45.99885" lon="5.74931">
        <ele>976.1</ele>
      </trkpt>
      <trkpt lat="45.99906" lon="5.74908">
        <ele>974.7</ele>
      </trkpt>
      <trkpt lat="45.99918" lon="5.74895">
        <ele>975</ele>
      </trkpt>
      <trkpt lat="45.99931" lon="5.74885">
        <ele>976.1</ele>
      </trkpt>
      <trkpt lat="45.99946" lon="5.74884">
        <ele>975.1</ele>
      </trkpt>
      <trkpt lat="45.99959" lon="5.74877">
        <ele>974.7</ele>
      </trkpt>
      <trkpt lat="45.99971" lon="5.74859">
        <ele>975</ele>
      </trkpt>
      <trkpt lat="46.00003" lon="5.74816">
        <ele>975.8</ele>
      </trkpt>
      <trkpt lat="46.00024" lon="5.74791">
        <ele>980.4</ele>
      </trkpt>
      <trkpt lat="46.00045" lon="5.74775">
        <ele>980.5</ele>
      </trkpt>
      <trkpt lat="46.00061" lon="5.74767">
        <ele>978.6</ele>
      </trkpt>
      <trkpt lat="46.00078" lon="5.74764">
        <ele>975.6</ele>
      </trkpt>
      <trkpt lat="46.00101" lon="5.74766">
        <ele>975.2</ele>
      </trkpt>
      <trkpt lat="46.00125" lon="5.74762">
        <ele>975.9</ele>
      </trkpt>
      <trkpt lat="46.0015" lon="5.74749">
        <ele>975.1</ele>
      </trkpt>
      <trkpt lat="46.00167" lon="5.74737">
        <ele>976</ele>
      </trkpt>
      <trkpt lat="46.00186" lon="5.74719">
        <ele>978.6</ele>
      </trkpt>
      <trkpt lat="46.00212" lon="5.74691">
        <ele>979.2</ele>
      </trkpt>
      <trkpt lat="46.00238" lon="5.74669">
        <ele>977</ele>
      </trkpt>
      <trkpt lat="46.00269" lon="5.74647">
        <ele>977.7</ele>
      </trkpt>
      <trkpt lat="46.00293" lon="5.74628">
        <ele>978.6</ele>
      </trkpt>
      <trkpt lat="46.00307" lon="5.74609">
        <ele>978.1</ele>
      </trkpt>
      <trkpt lat="46.0033" lon="5.74581">
        <ele>976.3</ele>
      </trkpt>
      <trkpt lat="46.00351" lon="5.74567">
        <ele>977.5</ele>
      </trkpt>
      <trkpt lat="46.00371" lon="5.74561">
        <ele>978.2</ele>
      </trkpt>
      <trkpt lat="46.00395" lon="5.74566">
        <ele>978.1</ele>
      </trkpt>
      <trkpt lat="46.00425" lon="5.74568">
        <ele>978.2</ele>
      </trkpt>
      <trkpt lat="46.00447" lon="5.74561">
        <ele>979</ele>
      </trkpt>
      <trkpt lat="46.00458" lon="5.74558">
        <ele>979.3</ele>
      </trkpt>
      <trkpt lat="46.00465" lon="5.74559">
        <ele>979.3</ele>
      </trkpt>
      <trkpt lat="46.00472" lon="5.74562">
        <ele>979.2</ele>
      </trkpt>
      <trkpt lat="46.00477" lon="5.74566">
        <ele>978.9</ele>
      </trkpt>
      <trkpt lat="46.00488" lon="5.7458">
        <ele>978.1</ele>
      </trkpt>
      <trkpt lat="46.00498" lon="5.74593">
        <ele>979.7</ele>
      </trkpt>
      <trkpt lat="46.00505" lon="5.74598">
        <ele>981</ele>
      </trkpt>
      <trkpt lat="46.00511" lon="5.746">
        <ele>981.7</ele>
      </trkpt>
      <trkpt lat="46.00536" lon="5.74608">
        <ele>984.4</ele>
      </trkpt>
      <trkpt lat="46.00551" lon="5.74614">
        <ele>986.7</ele>
      </trkpt>
      <trkpt lat="46.00578" lon="5.74628">
        <ele>991.4</ele>
      </trkpt>
      <trkpt lat="46.00612" lon="5.74642">
        <ele>996.9</ele>
      </trkpt>
      <trkpt lat="46.00642" lon="5.74649">
        <ele>1000.1</ele>
      </trkpt>
      <trkpt lat="46.00673" lon="5.74659">
        <ele>1003.4</ele>
      </trkpt>
      <trkpt lat="46.00699" lon="5.74668">
        <ele>1004.2</ele>
      </trkpt>
      <trkpt lat="46.00723" lon="5.74687">
        <ele>1009.1</ele>
      </trkpt>
      <trkpt lat="46.00744" lon="5.74705">
        <ele>1013</ele>
      </trkpt>
      <trkpt lat="46.00781" lon="5.74726">
        <ele>1017.9</ele>
      </trkpt>
      <trkpt lat="46.00807" lon="5.7473">
        <ele>1018.6</ele>
      </trkpt>
      <trkpt lat="46.00828" lon="5.74722">
        <ele>1016.6</ele>
      </trkpt>
      <trkpt lat="46.00882" lon="5.7472">
        <ele>1023.8</ele>
      </trkpt>
      <trkpt lat="46.00906" lon="5.747">
        <ele>1023.8</ele>
      </trkpt>
      <trkpt lat="46.0092" lon="5.747">
        <ele>1026</ele>
      </trkpt>
      <trkpt lat="46.00948" lon="5.74712">
        <ele>1033.3</ele>
      </trkpt>
      <trkpt lat="46.00977" lon="5.74719">
        <ele>1039.9</ele>
      </trkpt>
      <trkpt lat="46.0099" lon="5.74709">
        <ele>1040.3</ele>
      </trkpt>
      <trkpt lat="46.00999" lon="5.74694">
        <ele>1039.2</ele>
      </trkpt>
      <trkpt lat="46.01008" lon="5.74676">
        <ele>1037.8</ele>
      </trkpt>
      <trkpt lat="46.01009" lon="5.74668">
        <ele>1036.5</ele>
      </trkpt>
      <trkpt lat="46.01006" lon="5.74659">
        <ele>1036.3</ele>
      </trkpt>
      <trkpt lat="46.01021" lon="5.74638">
        <ele>1041.6</ele>
      </trkpt>
      <trkpt lat="46.0104" lon="5.74617">
        <ele>1045.8</ele>
      </trkpt>
      <trkpt lat="46.01064" lon="5.74603">
        <ele>1048.5</ele>
      </trkpt>
      <trkpt lat="46.01073" lon="5.74583">
        <ele>1048.6</ele>
      </trkpt>
      <trkpt lat="46.01088" lon="5.74552">
        <ele>1052.3</ele>
      </trkpt>
      <trkpt lat="46.01106" lon="5.74523">
        <ele>1055.4</ele>
      </trkpt>
      <trkpt lat="46.01133" lon="5.74506">
        <ele>1055.8</ele>
      </trkpt>
      <trkpt lat="46.01157" lon="5.74494">
        <ele>1055.5</ele>
      </trkpt>
      <trkpt lat="46.01199" lon="5.74458">
        <ele>1061.6</ele>
      </trkpt>
      <trkpt lat="46.01213" lon="5.74456">
        <ele>1063.4</ele>
      </trkpt>
      <trkpt lat="46.01245" lon="5.74457">
        <ele>1067.4</ele>
      </trkpt>
      <trkpt lat="46.01271" lon="5.74458">
        <ele>1070</ele>
      </trkpt>
      <trkpt lat="46.01302" lon="5.74459">
        <ele>1073</ele>
      </trkpt>
      <trkpt lat="46.0133" lon="5.74463">
        <ele>1075.7</ele>
      </trkpt>
      <trkpt lat="46.01367" lon="5.74463">
        <ele>1079</ele>
      </trkpt>
      <trkpt lat="46.01384" lon="5.74452">
        <ele>1079.9</ele>
      </trkpt>
      <trkpt lat="46.01406" lon="5.74435">
        <ele>1080.1</ele>
      </trkpt>
      <trkpt lat="46.01418" lon="5.74424">
        <ele>1079.9</ele>
      </trkpt>
      <trkpt lat="46.01435" lon="5.74416">
        <ele>1081.1</ele>
      </trkpt>
      <trkpt lat="46.01471" lon="5.74421">
        <ele>1085.2</ele>
      </trkpt>
      <trkpt lat="46.01485" lon="5.74415">
        <ele>1086.4</ele>
      </trkpt>
      <trkpt lat="46.0152" lon="5.7441">
        <ele>1087.9</ele>
      </trkpt>
      <trkpt lat="46.01561" lon="5.74399">
        <ele>1087.1</ele>
      </trkpt>
      <trkpt lat="46.0159" lon="5.7439">
        <ele>1086.2</ele>
      </trkpt>
      <trkpt lat="46.0162" lon="5.74373">
        <ele>1086.2</ele>
      </trkpt>
      <trkpt lat="46.01645" lon="5.74356">
        <ele>1086.8</ele>
      </trkpt>
      <trkpt lat="46.01678" lon="5.74341">
        <ele>1087.9</ele>
      </trkpt>
      <trkpt lat="46.01693" lon="5.74327">
        <ele>1087.7</ele>
      </trkpt>
      <trkpt lat="46.01703" lon="5.74301">
        <ele>1087.6</ele>
      </trkpt>
      <trkpt lat="46.0171" lon="5.74274">
        <ele>1087.4</ele>
      </trkpt>
      <trkpt lat="46.01718" lon="5.74247">
        <ele>1087.4</ele>
      </trkpt>
      <trkpt lat="46.01735" lon="5.74204">
        <ele>1090.1</ele>
      </trkpt>
      <trkpt lat="46.01747" lon="5.7418">
        <ele>1091.9</ele>
      </trkpt>
      <trkpt lat="46.01763" lon="5.74164">
        <ele>1093.8</ele>
      </trkpt>
      <trkpt lat="46.01782" lon="5.7416">
        <ele>1095.1</ele>
      </trkpt>
      <trkpt lat="46.01812" lon="5.74158">
        <ele>1096.7</ele>
      </trkpt>
      <trkpt lat="46.0185" lon="5.74154">
        <ele>1097.6</ele>
      </trkpt>
      <trkpt lat="46.01873" lon="5.74143">
        <ele>1098</ele>
      </trkpt>
      <trkpt lat="46.01895" lon="5.74129">
        <ele>1099</ele>
      </trkpt>
      <trkpt lat="46.01913" lon="5.74109">
        <ele>1101</ele>
      </trkpt>
      <trkpt lat="46.01936" lon="5.74081">
        <ele>1103</ele>
      </trkpt>
      <trkpt lat="46.01948" lon="5.74063">
        <ele>1104.3</ele>
      </trkpt>
      <trkpt lat="46.01955" lon="5.74051">
        <ele>1105.3</ele>
      </trkpt>
      <trkpt lat="46.01972" lon="5.74026">
        <ele>1107.4</ele>
      </trkpt>
      <trkpt lat="46.01991" lon="5.74001">
        <ele>1109.4</ele>
      </trkpt>
      <trkpt lat="46.02012" lon="5.7398">
        <ele>1109.1</ele>
      </trkpt>
      <trkpt lat="46.02026" lon="5.73964">
        <ele>1108.9</ele>
      </trkpt>
      <trkpt lat="46.02034" lon="5.73943">
        <ele>1109.2</ele>
      </trkpt>
      <trkpt lat="46.02039" lon="5.73923">
        <ele>1109.4</ele>
      </trkpt>
      <trkpt lat="46.02042" lon="5.73898">
        <ele>1110.8</ele>
      </trkpt>
      <trkpt lat="46.02046" lon="5.73871">
        <ele>1112.6</ele>
      </trkpt>
      <trkpt lat="46.0205" lon="5.73845">
        <ele>1114.2</ele>
      </trkpt>
      <trkpt lat="46.0206" lon="5.73805">
        <ele>1116.4</ele>
      </trkpt>
      <trkpt lat="46.02069" lon="5.73775">
        <ele>1118</ele>
      </trkpt>
      <trkpt lat="46.02085" lon="5.73743">
        <ele>1119.8</ele>
      </trkpt>
      <trkpt lat="46.02098" lon="5.73691">
        <ele>1125</ele>
      </trkpt>
      <trkpt lat="46.02107" lon="5.73665">
        <ele>1127.4</ele>
      </trkpt>
      <trkpt lat="46.0212" lon="5.73639">
        <ele>1130.4</ele>
      </trkpt>
      <trkpt lat="46.02131" lon="5.7361">
        <ele>1133.1</ele>
      </trkpt>
      <trkpt lat="46.02159" lon="5.73615">
        <ele>1132</ele>
      </trkpt>
      <trkpt lat="46.02173" lon="5.73628">
        <ele>1131</ele>
      </trkpt>
      <trkpt lat="46.02185" lon="5.7365">
        <ele>1130.2</ele>
      </trkpt>
      <trkpt lat="46.02194" lon="5.73679">
        <ele>1129.2</ele>
      </trkpt>
      <trkpt lat="46.022" lon="5.73708">
        <ele>1128.1</ele>
      </trkpt>
      <trkpt lat="46.02206" lon="5.73734">
        <ele>1127.2</ele>
      </trkpt>
      <trkpt lat="46.02221" lon="5.73752">
        <ele>1127.4</ele>
      </trkpt>
      <trkpt lat="46.02231" lon="5.73779">
        <ele>1126.5</ele>
      </trkpt>
      <trkpt lat="46.02242" lon="5.73808">
        <ele>1125.7</ele>
      </trkpt>
      <trkpt lat="46.02248" lon="5.73834">
        <ele>1124.7</ele>
      </trkpt>
      <trkpt lat="46.02249" lon="5.73866">
        <ele>1122.2</ele>
      </trkpt>
      <trkpt lat="46.02248" lon="5.73899">
        <ele>1119.3</ele>
      </trkpt>
      <trkpt lat="46.02253" lon="5.73917">
        <ele>1117.8</ele>
      </trkpt>
      <trkpt lat="46.02263" lon="5.73928">
        <ele>1116.3</ele>
      </trkpt>
      <trkpt lat="46.0228" lon="5.73938">
        <ele>1114.5</ele>
      </trkpt>
      <trkpt lat="46.02303" lon="5.73944">
        <ele>1112.5</ele>
      </trkpt>
      <trkpt lat="46.02319" lon="5.7394">
        <ele>1111.5</ele>
      </trkpt>
      <trkpt lat="46.02342" lon="5.73923">
        <ele>1110.2</ele>
      </trkpt>
      <trkpt lat="46.02359" lon="5.73904">
        <ele>1110</ele>
      </trkpt>
      <trkpt lat="46.02374" lon="5.73889">
        <ele>1109.9</ele>
      </trkpt>
      <trkpt lat="46.02381" lon="5.73885">
        <ele>1109.6</ele>
      </trkpt>
      <trkpt lat="46.02386" lon="5.73885">
        <ele>1109.3</ele>
      </trkpt>
      <trkpt lat="46.02391" lon="5.73886">
        <ele>1108.8</ele>
      </trkpt>
      <trkpt lat="46.02395" lon="5.73889">
        <ele>1108.3</ele>
      </trkpt>
      <trkpt lat="46.024" lon="5.73899">
        <ele>1107.3</ele>
      </trkpt>
      <trkpt lat="46.02404" lon="5.73912">
        <ele>1106.2</ele>
      </trkpt>
      <trkpt lat="46.02407" lon="5.73939">
        <ele>1104.2</ele>
      </trkpt>
      <trkpt lat="46.02408" lon="5.73972">
        <ele>1101.9</ele>
      </trkpt>
      <trkpt lat="46.02412" lon="5.74011">
        <ele>1099.9</ele>
      </trkpt>
      <trkpt lat="46.02412" lon="5.74018">
        <ele>1100</ele>
      </trkpt>
      <trkpt lat="46.02411" lon="5.74026">
        <ele>1100.3</ele>
      </trkpt>
      <trkpt lat="46.02409" lon="5.74035">
        <ele>1100.7</ele>
      </trkpt>
      <trkpt lat="46.02399" lon="5.74058">
        <ele>1102</ele>
      </trkpt>
      <trkpt lat="46.02395" lon="5.74074">
        <ele>1102.7</ele>
      </trkpt>
      <trkpt lat="46.02395" lon="5.74078">
        <ele>1102.8</ele>
      </trkpt>
      <trkpt lat="46.02395" lon="5.7408">
        <ele>1102.7</ele>
      </trkpt>
      <trkpt lat="46.02396" lon="5.74081">
        <ele>1102.7</ele>
      </trkpt>
      <trkpt lat="46.02398" lon="5.74083">
        <ele>1102.5</ele>
      </trkpt>
      <trkpt lat="46.02401" lon="5.74083">
        <ele>1102.3</ele>
      </trkpt>
      <trkpt lat="46.02403" lon="5.74083">
        <ele>1102.2</ele>
      </trkpt>
      <trkpt lat="46.02405" lon="5.74082">
        <ele>1102</ele>
      </trkpt>
      <trkpt lat="46.02429" lon="5.74059">
        <ele>1102.3</ele>
      </trkpt>
      <trkpt lat="46.02448" lon="5.74043">
        <ele>1104.4</ele>
      </trkpt>
      <trkpt lat="46.02474" lon="5.74024">
        <ele>1106.2</ele>
      </trkpt>
      <trkpt lat="46.02503" lon="5.74008">
        <ele>1107.3</ele>
      </trkpt>
      <trkpt lat="46.02535" lon="5.73993">
        <ele>1109.5</ele>
      </trkpt>
      <trkpt lat="46.02571" lon="5.73986">
        <ele>1113.1</ele>
      </trkpt>
      <trkpt lat="46.0262" lon="5.73973">
        <ele>1117.1</ele>
      </trkpt>
      <trkpt lat="46.0266" lon="5.73966">
        <ele>1119.9</ele>
      </trkpt>
      <trkpt lat="46.02688" lon="5.73962">
        <ele>1120.8</ele>
      </trkpt>
      <trkpt lat="46.02719" lon="5.73952">
        <ele>1121.2</ele>
      </trkpt>
      <trkpt lat="46.02748" lon="5.73949">
        <ele>1121.8</ele>
      </trkpt>
      <trkpt lat="46.02772" lon="5.73941">
        <ele>1122.4</ele>
      </trkpt>
      <trkpt lat="46.02805" lon="5.7394">
        <ele>1123.7</ele>
      </trkpt>
      <trkpt lat="46.02831" lon="5.73935">
        <ele>1124.4</ele>
      </trkpt>
      <trkpt lat="46.02864" lon="5.73935">
        <ele>1127</ele>
      </trkpt>
      <trkpt lat="46.02911" lon="5.73928">
        <ele>1130.4</ele>
      </trkpt>
      <trkpt lat="46.02955" lon="5.73915">
        <ele>1132</ele>
      </trkpt>
      <trkpt lat="46.02991" lon="5.73905">
        <ele>1134.8</ele>
      </trkpt>
      <trkpt lat="46.03027" lon="5.73895">
        <ele>1136.5</ele>
      </trkpt>
      <trkpt lat="46.03059" lon="5.7388">
        <ele>1136.9</ele>
      </trkpt>
      <trkpt lat="46.03089" lon="5.73875">
        <ele>1136.6</ele>
      </trkpt>
      <trkpt lat="46.03116" lon="5.73863">
        <ele>1136.3</ele>
      </trkpt>
      <trkpt lat="46.03139" lon="5.7385">
        <ele>1134.9</ele>
      </trkpt>
      <trkpt lat="46.03166" lon="5.73845">
        <ele>1133.8</ele>
      </trkpt>
      <trkpt lat="46.03195" lon="5.73847">
        <ele>1136.4</ele>
      </trkpt>
      <trkpt lat="46.03222" lon="5.73849">
        <ele>1139</ele>
      </trkpt>
      <trkpt lat="46.03251" lon="5.73852">
        <ele>1141.8</ele>
      </trkpt>
      <trkpt lat="46.03286" lon="5.73855">
        <ele>1144.7</ele>
      </trkpt>
      <trkpt lat="46.03311" lon="5.73858">
        <ele>1146.7</ele>
      </trkpt>
      <trkpt lat="46.03328" lon="5.73869">
        <ele>1148.4</ele>
      </trkpt>
      <trkpt lat="46.03345" lon="5.73874">
        <ele>1150</ele>
      </trkpt>
      <trkpt lat="46.03369" lon="5.73878">
        <ele>1152.5</ele>
      </trkpt>
      <trkpt lat="46.0339" lon="5.73883">
        <ele>1154.5</ele>
      </trkpt>
      <trkpt lat="46.03414" lon="5.73893">
        <ele>1156.8</ele>
      </trkpt>
      <trkpt lat="46.03437" lon="5.73896">
        <ele>1157.2</ele>
      </trkpt>
      <trkpt lat="46.03455" lon="5.739">
        <ele>1157.4</ele>
      </trkpt>
      <trkpt lat="46.03477" lon="5.739">
        <ele>1157.6</ele>
      </trkpt>
      <trkpt lat="46.03501" lon="5.73895">
        <ele>1157.8</ele>
      </trkpt>
      <trkpt lat="46.03526" lon="5.73909">
        <ele>1158.6</ele>
      </trkpt>
      <trkpt lat="46.03546" lon="5.73911">
        <ele>1159.1</ele>
      </trkpt>
      <trkpt lat="46.03567" lon="5.73913">
        <ele>1159.6</ele>
      </trkpt>
      <trkpt lat="46.03585" lon="5.73911">
        <ele>1160</ele>
      </trkpt>
      <trkpt lat="46.03615" lon="5.73901">
        <ele>1159.5</ele>
      </trkpt>
      <trkpt lat="46.03633" lon="5.73897">
        <ele>1159.1</ele>
      </trkpt>
      <trkpt lat="46.03666" lon="5.73897">
        <ele>1158.5</ele>
      </trkpt>
      <trkpt lat="46.03691" lon="5.739">
        <ele>1156.8</ele>
      </trkpt>
      <trkpt lat="46.03712" lon="5.7391">
        <ele>1155.6</ele>
      </trkpt>
      <trkpt lat="46.03733" lon="5.73911">
        <ele>1154.1</ele>
      </trkpt>
      <trkpt lat="46.03754" lon="5.73908">
        <ele>1152.7</ele>
      </trkpt>
      <trkpt lat="46.03784" lon="5.73902">
        <ele>1152.3</ele>
      </trkpt>
      <trkpt lat="46.03815" lon="5.7389">
        <ele>1152.3</ele>
      </trkpt>
      <trkpt lat="46.0383" lon="5.73891">
        <ele>1152.2</ele>
      </trkpt>
      <trkpt lat="46.03837" lon="5.73888">
        <ele>1152.3</ele>
      </trkpt>
      <trkpt lat="46.03856" lon="5.73876">
        <ele>1152.6</ele>
      </trkpt>
      <trkpt lat="46.03865" lon="5.73872">
        <ele>1152.8</ele>
      </trkpt>
      <trkpt lat="46.0387" lon="5.73867">
        <ele>1153.1</ele>
      </trkpt>
      <trkpt lat="46.03875" lon="5.73858">
        <ele>1153.7</ele>
      </trkpt>
      <trkpt lat="46.03878" lon="5.7385">
        <ele>1154.3</ele>
      </trkpt>
      <trkpt lat="46.03882" lon="5.73836">
        <ele>1155.4</ele>
      </trkpt>
      <trkpt lat="46.03884" lon="5.73824">
        <ele>1156.1</ele>
      </trkpt>
      <trkpt lat="46.03884" lon="5.73813">
        <ele>1156.7</ele>
      </trkpt>
      <trkpt lat="46.03884" lon="5.73803">
        <ele>1157.1</ele>
      </trkpt>
      <trkpt lat="46.03882" lon="5.73796">
        <ele>1157.5</ele>
      </trkpt>
      <trkpt lat="46.03875" lon="5.73781">
        <ele>1158.3</ele>
      </trkpt>
      <trkpt lat="46.0382" lon="5.73704">
        <ele>1164.1</ele>
      </trkpt>
      <trkpt lat="46.038" lon="5.73637">
        <ele>1169.2</ele>
      </trkpt>
      <trkpt lat="46.03792" lon="5.73544">
        <ele>1174.2</ele>
      </trkpt>
      <trkpt lat="46.03751" lon="5.73413">
        <ele>1183.2</ele>
      </trkpt>
      <trkpt lat="46.03741" lon="5.73394">
        <ele>1185.2</ele>
      </trkpt>
      <trkpt lat="46.03711" lon="5.73352">
        <ele>1190.6</ele>
      </trkpt>
      <trkpt lat="46.03697" lon="5.73327">
        <ele>1194</ele>
      </trkpt>
      <trkpt lat="46.03677" lon="5.73301">
        <ele>1198.1</ele>
      </trkpt>
      <trkpt lat="46.03672" lon="5.73285">
        <ele>1200.2</ele>
      </trkpt>
      <trkpt lat="46.03669" lon="5.73268">
        <ele>1202.1</ele>
      </trkpt>
      <trkpt lat="46.03668" lon="5.73249">
        <ele>1203.9</ele>
      </trkpt>
      <trkpt lat="46.03663" lon="5.73225">
        <ele>1205</ele>
      </trkpt>
      <trkpt lat="46.03654" lon="5.73204">
        <ele>1205.8</ele>
      </trkpt>
      <trkpt lat="46.03628" lon="5.73158">
        <ele>1207.9</ele>
      </trkpt>
      <trkpt lat="46.03623" lon="5.73146">
        <ele>1208.5</ele>
      </trkpt>
      <trkpt lat="46.03612" lon="5.73086">
        <ele>1211.2</ele>
      </trkpt>
      <trkpt lat="46.03609" lon="5.73067">
        <ele>1212.1</ele>
      </trkpt>
      <trkpt lat="46.0361" lon="5.73055">
        <ele>1212.7</ele>
      </trkpt>
      <trkpt lat="46.03625" lon="5.73025">
        <ele>1214.3</ele>
      </trkpt>
      <trkpt lat="46.0363" lon="5.73009">
        <ele>1215.1</ele>
      </trkpt>
      <trkpt lat="46.03631" lon="5.72995">
        <ele>1216</ele>
      </trkpt>
      <trkpt lat="46.0363" lon="5.72967">
        <ele>1218.2</ele>
      </trkpt>
      <trkpt lat="46.03634" lon="5.72925">
        <ele>1221.8</ele>
      </trkpt>
      <trkpt lat="46.03631" lon="5.72912">
        <ele>1222.7</ele>
      </trkpt>
      <trkpt lat="46.03603" lon="5.72886">
        <ele>1223</ele>
      </trkpt>
      <trkpt lat="46.03596" lon="5.72875">
        <ele>1223.3</ele>
      </trkpt>
      <trkpt lat="46.03587" lon="5.72856">
        <ele>1223.9</ele>
      </trkpt>
      <trkpt lat="46.03573" lon="5.72812">
        <ele>1224.7</ele>
      </trkpt>
      <trkpt lat="46.03569" lon="5.72805">
        <ele>1224.5</ele>
      </trkpt>
      <trkpt lat="46.03552" lon="5.72797">
        <ele>1223.1</ele>
      </trkpt>
      <trkpt lat="46.03547" lon="5.72789">
        <ele>1222.7</ele>
      </trkpt>
      <trkpt lat="46.03535" lon="5.7274">
        <ele>1220</ele>
      </trkpt>
      <trkpt lat="46.03536" lon="5.72718">
        <ele>1217.6</ele>
      </trkpt>
      <trkpt lat="46.03551" lon="5.72681">
        <ele>1215.5</ele>
      </trkpt>
      <trkpt lat="46.03624" lon="5.72564">
        <ele>1209.6</ele>
      </trkpt>
      <trkpt lat="46.03637" lon="5.72553">
        <ele>1208.9</ele>
      </trkpt>
      <trkpt lat="46.03653" lon="5.72544">
        <ele>1208.7</ele>
      </trkpt>
      <trkpt lat="46.03669" lon="5.72538">
        <ele>1208.8</ele>
      </trkpt>
      <trkpt lat="46.03706" lon="5.72526">
        <ele>1207.5</ele>
      </trkpt>
      <trkpt lat="46.0377" lon="5.72498">
        <ele>1204</ele>
      </trkpt>
      <trkpt lat="46.03827" lon="5.72479">
        <ele>1200.9</ele>
      </trkpt>
      <trkpt lat="46.03899" lon="5.72435">
        <ele>1195.6</ele>
      </trkpt>
      <trkpt lat="46.04009" lon="5.72382">
        <ele>1196.7</ele>
      </trkpt>
      <trkpt lat="46.04061" lon="5.72348">
        <ele>1199.5</ele>
      </trkpt>
      <trkpt lat="46.04079" lon="5.72345">
        <ele>1200.8</ele>
      </trkpt>
      <trkpt lat="46.04102" lon="5.72336">
        <ele>1200.7</ele>
      </trkpt>
      <trkpt lat="46.04128" lon="5.72326">
        <ele>1201.2</ele>
      </trkpt>
      <trkpt lat="46.04143" lon="5.72309">
        <ele>1201.7</ele>
      </trkpt>
      <trkpt lat="46.04151" lon="5.723">
        <ele>1201.9</ele>
      </trkpt>
      <trkpt lat="46.04166" lon="5.72291">
        <ele>1202</ele>
      </trkpt>
      <trkpt lat="46.04178" lon="5.72278">
        <ele>1202.4</ele>
      </trkpt>
      <trkpt lat="46.04187" lon="5.72261">
        <ele>1202.6</ele>
      </trkpt>
      <trkpt lat="46.04192" lon="5.72251">
        <ele>1202.6</ele>
      </trkpt>
      <trkpt lat="46.04204" lon="5.72236">
        <ele>1202.6</ele>
      </trkpt>
      <trkpt lat="46.04217" lon="5.72211">
        <ele>1202.5</ele>
      </trkpt>
      <trkpt lat="46.04234" lon="5.72188">
        <ele>1202.7</ele>
      </trkpt>
      <trkpt lat="46.04257" lon="5.7216">
        <ele>1203.5</ele>
      </trkpt>
      <trkpt lat="46.04271" lon="5.72146">
        <ele>1204.8</ele>
      </trkpt>
      <trkpt lat="46.04282" lon="5.72114">
        <ele>1205.8</ele>
      </trkpt>
      <trkpt lat="46.04289" lon="5.72137">
        <ele>1206.7</ele>
      </trkpt>
      <trkpt lat="46.043" lon="5.72164">
        <ele>1207.8</ele>
      </trkpt>
      <trkpt lat="46.04306" lon="5.72182">
        <ele>1208.3</ele>
      </trkpt>
      <trkpt lat="46.04309" lon="5.72196">
        <ele>1208.6</ele>
      </trkpt>
      <trkpt lat="46.04316" lon="5.72229">
        <ele>1208.9</ele>
      </trkpt>
      <trkpt lat="46.04321" lon="5.72242">
        <ele>1209.2</ele>
      </trkpt>
      <trkpt lat="46.04329" lon="5.72251">
        <ele>1209.7</ele>
      </trkpt>
      <trkpt lat="46.04337" lon="5.72256">
        <ele>1210.9</ele>
      </trkpt>
      <trkpt lat="46.04351" lon="5.72261">
        <ele>1214</ele>
      </trkpt>
      <trkpt lat="46.04361" lon="5.72266">
        <ele>1216.2</ele>
      </trkpt>
      <trkpt lat="46.04369" lon="5.72274">
        <ele>1217.9</ele>
      </trkpt>
      <trkpt lat="46.04376" lon="5.72285">
        <ele>1219.3</ele>
      </trkpt>
      <trkpt lat="46.04383" lon="5.72294">
        <ele>1220.5</ele>
      </trkpt>
      <trkpt lat="46.0439" lon="5.72298">
        <ele>1221.7</ele>
      </trkpt>
      <trkpt lat="46.04406" lon="5.72297">
        <ele>1224.8</ele>
      </trkpt>
      <trkpt lat="46.04414" lon="5.72299">
        <ele>1226.1</ele>
      </trkpt>
      <trkpt lat="46.04421" lon="5.72305">
        <ele>1227.7</ele>
      </trkpt>
      <trkpt lat="46.04434" lon="5.72324">
        <ele>1230.8</ele>
      </trkpt>
      <trkpt lat="46.0444" lon="5.72329">
        <ele>1232.4</ele>
      </trkpt>
      <trkpt lat="46.04465" lon="5.72338">
        <ele>1239.5</ele>
      </trkpt>
      <trkpt lat="46.04479" lon="5.72347">
        <ele>1243.4</ele>
      </trkpt>
      <trkpt lat="46.0449" lon="5.7236">
        <ele>1246.1</ele>
      </trkpt>
      <trkpt lat="46.04499" lon="5.72386">
        <ele>1247.3</ele>
      </trkpt>
      <trkpt lat="46.04503" lon="5.72394">
        <ele>1247.8</ele>
      </trkpt>
      <trkpt lat="46.04516" lon="5.724">
        <ele>1250.4</ele>
      </trkpt>
      <trkpt lat="46.0453" lon="5.72398">
        <ele>1253.7</ele>
      </trkpt>
      <trkpt lat="46.0454" lon="5.72402">
        <ele>1255.6</ele>
      </trkpt>
      <trkpt lat="46.04555" lon="5.72418">
        <ele>1258</ele>
      </trkpt>
      <trkpt lat="46.04572" lon="5.72415">
        <ele>1261.6</ele>
      </trkpt>
      <trkpt lat="46.04596" lon="5.72405">
        <ele>1266.6</ele>
      </trkpt>
      <trkpt lat="46.04623" lon="5.72395">
        <ele>1270.7</ele>
      </trkpt>
      <trkpt lat="46.04646" lon="5.7239">
        <ele>1273.8</ele>
      </trkpt>
      <trkpt lat="46.04662" lon="5.72399">
        <ele>1275.2</ele>
      </trkpt>
      <trkpt lat="46.04672" lon="5.72403">
        <ele>1276</ele>
      </trkpt>
      <trkpt lat="46.04702" lon="5.72404">
        <ele>1277.8</ele>
      </trkpt>
      <trkpt lat="46.04733" lon="5.72417">
        <ele>1279</ele>
      </trkpt>
      <trkpt lat="46.04768" lon="5.72417">
        <ele>1280.2</ele>
      </trkpt>
      <trkpt lat="46.048" lon="5.72424">
        <ele>1280.2</ele>
      </trkpt>
      <trkpt lat="46.04822" lon="5.72438">
        <ele>1279.4</ele>
      </trkpt>
      <trkpt lat="46.04854" lon="5.72461">
        <ele>1280.5</ele>
      </trkpt>
      <trkpt lat="46.04867" lon="5.72469">
        <ele>1281.5</ele>
      </trkpt>
      <trkpt lat="46.04881" lon="5.72471">
        <ele>1283.2</ele>
      </trkpt>
      <trkpt lat="46.04892" lon="5.72482">
        <ele>1283.7</ele>
      </trkpt>
      <trkpt lat="46.04928" lon="5.72523">
        <ele>1285.8</ele>
      </trkpt>
      <trkpt lat="46.04936" lon="5.7253">
        <ele>1286.3</ele>
      </trkpt>
      <trkpt lat="46.04949" lon="5.72533">
        <ele>1287.5</ele>
      </trkpt>
      <trkpt lat="46.04987" lon="5.72533">
        <ele>1290.8</ele>
      </trkpt>
      <trkpt lat="46.05023" lon="5.72537">
        <ele>1292.7</ele>
      </trkpt>
      <trkpt lat="46.05041" lon="5.72541">
        <ele>1293.3</ele>
      </trkpt>
      <trkpt lat="46.05084" lon="5.72542">
        <ele>1295</ele>
      </trkpt>
      <trkpt lat="46.05109" lon="5.72544">
        <ele>1296.4</ele>
      </trkpt>
      <trkpt lat="46.05122" lon="5.72546">
        <ele>1297</ele>
      </trkpt>
      <trkpt lat="46.05143" lon="5.72554">
        <ele>1298</ele>
      </trkpt>
      <trkpt lat="46.05214" lon="5.7259">
        <ele>1300.8</ele>
      </trkpt>
      <trkpt lat="46.05224" lon="5.72588">
        <ele>1300.9</ele>
      </trkpt>
      <trkpt lat="46.05235" lon="5.72584">
        <ele>1300.7</ele>
      </trkpt>
      <trkpt lat="46.05282" lon="5.72562">
        <ele>1304.3</ele>
      </trkpt>
      <trkpt lat="46.05286" lon="5.72562">
        <ele>1304.6</ele>
      </trkpt>
      <trkpt lat="46.05301" lon="5.72559">
        <ele>1306.3</ele>
      </trkpt>
      <trkpt lat="46.05308" lon="5.72548">
        <ele>1307.6</ele>
      </trkpt>
      <trkpt lat="46.05317" lon="5.72531">
        <ele>1310</ele>
      </trkpt>
      <trkpt lat="46.05326" lon="5.72503">
        <ele>1313.5</ele>
      </trkpt>
      <trkpt lat="46.05331" lon="5.72479">
        <ele>1315</ele>
      </trkpt>
      <trkpt lat="46.05364" lon="5.72441">
        <ele>1319.9</ele>
      </trkpt>
      <trkpt lat="46.05393" lon="5.72355">
        <ele>1317</ele>
      </trkpt>
      <trkpt lat="46.05402" lon="5.72338">
        <ele>1315.6</ele>
      </trkpt>
      <trkpt lat="46.05437" lon="5.72347">
        <ele>1317</ele>
      </trkpt>
      <trkpt lat="46.05486" lon="5.72333">
        <ele>1313.5</ele>
      </trkpt>
      <trkpt lat="46.05527" lon="5.72324">
        <ele>1310.9</ele>
      </trkpt>
      <trkpt lat="46.0557" lon="5.72352">
        <ele>1311.5</ele>
      </trkpt>
      <trkpt lat="46.05611" lon="5.72438">
        <ele>1313.2</ele>
      </trkpt>
      <trkpt lat="46.05675" lon="5.72495">
        <ele>1317.3</ele>
      </trkpt>
      <trkpt lat="46.05734" lon="5.72533">
        <ele>1318.1</ele>
      </trkpt>
      <trkpt lat="46.05778" lon="5.72598">
        <ele>1322.4</ele>
      </trkpt>
      <trkpt lat="46.05846" lon="5.72627">
        <ele>1328.1</ele>
      </trkpt>
      <trkpt lat="46.05858" lon="5.72666">
        <ele>1332.5</ele>
      </trkpt>
      <trkpt lat="46.05858" lon="5.72705">
        <ele>1334.3</ele>
      </trkpt>
      <trkpt lat="46.05851" lon="5.72809">
        <ele>1335.8</ele>
      </trkpt>
      <trkpt lat="46.05857" lon="5.72829">
        <ele>1337.2</ele>
      </trkpt>
      <trkpt lat="46.05881" lon="5.72834">
        <ele>1341.6</ele>
      </trkpt>
      <trkpt lat="46.05903" lon="5.72821">
        <ele>1345.4</ele>
      </trkpt>
      <trkpt lat="46.05935" lon="5.72822">
        <ele>1347.9</ele>
      </trkpt>
      <trkpt lat="46.05958" lon="5.72823">
        <ele>1348</ele>
      </trkpt>
      <trkpt lat="46.05998" lon="5.72816">
        <ele>1348.2</ele>
      </trkpt>
      <trkpt lat="46.06026" lon="5.72831">
        <ele>1348.3</ele>
      </trkpt>
      <trkpt lat="46.06059" lon="5.72825">
        <ele>1348.8</ele>
      </trkpt>
      <trkpt lat="46.06095" lon="5.72809">
        <ele>1348.8</ele>
      </trkpt>
      <trkpt lat="46.06142" lon="5.72856">
        <ele>1345.8</ele>
      </trkpt>
      <trkpt lat="46.06167" lon="5.72841">
        <ele>1344.9</ele>
      </trkpt>
      <trkpt lat="46.06192" lon="5.72848">
        <ele>1343.1</ele>
      </trkpt>
      <trkpt lat="46.06254" lon="5.72854">
        <ele>1339</ele>
      </trkpt>
      <trkpt lat="46.06332" lon="5.72885">
        <ele>1334.1</ele>
      </trkpt>
      <trkpt lat="46.0637" lon="5.72877">
        <ele>1332</ele>
      </trkpt>
      <trkpt lat="46.06409" lon="5.7289">
        <ele>1330.1</ele>
      </trkpt>
      <trkpt lat="46.06476" lon="5.72918">
        <ele>1327.2</ele>
      </trkpt>
      <trkpt lat="46.06609" lon="5.72917">
        <ele>1324.8</ele>
      </trkpt>
      <trkpt lat="46.06649" lon="5.72898">
        <ele>1322.3</ele>
      </trkpt>
      <trkpt lat="46.06697" lon="5.72898">
        <ele>1320.3</ele>
      </trkpt>
      <trkpt lat="46.06732" lon="5.72909">
        <ele>1318.9</ele>
      </trkpt>
      <trkpt lat="46.06766" lon="5.72941">
        <ele>1314.9</ele>
      </trkpt>
      <trkpt lat="46.06785" lon="5.72951">
        <ele>1313.2</ele>
      </trkpt>
      <trkpt lat="46.06884" lon="5.73062">
        <ele>1300.8</ele>
      </trkpt>
      <trkpt lat="46.06895" lon="5.73072">
        <ele>1299.9</ele>
      </trkpt>
      <trkpt lat="46.06945" lon="5.73115">
        <ele>1295.6</ele>
      </trkpt>
      <trkpt lat="46.07" lon="5.73092">
        <ele>1294.6</ele>
      </trkpt>
      <trkpt lat="46.07062" lon="5.73099">
        <ele>1291</ele>
      </trkpt>
      <trkpt lat="46.07114" lon="5.73047">
        <ele>1292.1</ele>
      </trkpt>
      <trkpt lat="46.07124" lon="5.72998">
        <ele>1292.5</ele>
      </trkpt>
      <trkpt lat="46.07149" lon="5.72958">
        <ele>1285.2</ele>
      </trkpt>
      <trkpt lat="46.07187" lon="5.7295">
        <ele>1280.2</ele>
      </trkpt>
      <trkpt lat="46.07219" lon="5.72918">
        <ele>1274.1</ele>
      </trkpt>
      <trkpt lat="46.0724" lon="5.72856">
        <ele>1276.1</ele>
      </trkpt>
      <trkpt lat="46.07247" lon="5.72839">
        <ele>1276.8</ele>
      </trkpt>
      <trkpt lat="46.07264" lon="5.72833">
        <ele>1276.2</ele>
      </trkpt>
      <trkpt lat="46.07323" lon="5.72841">
        <ele>1272.3</ele>
      </trkpt>
      <trkpt lat="46.07357" lon="5.7283">
        <ele>1269.4</ele>
      </trkpt>
      <trkpt lat="46.07474" lon="5.72816">
        <ele>1252.9</ele>
      </trkpt>
      <trkpt lat="46.07535" lon="5.72806">
        <ele>1243.8</ele>
      </trkpt>
      <trkpt lat="46.07598" lon="5.72775">
        <ele>1235.3</ele>
      </trkpt>
      <trkpt lat="46.07621" lon="5.72778">
        <ele>1234.6</ele>
      </trkpt>
      <trkpt lat="46.07653" lon="5.72799">
        <ele>1234.9</ele>
      </trkpt>
      <trkpt lat="46.0766" lon="5.72837">
        <ele>1236.9</ele>
      </trkpt>
      <trkpt lat="46.07676" lon="5.72837">
        <ele>1236.6</ele>
      </trkpt>
      <trkpt lat="46.07719" lon="5.72849">
        <ele>1235.3</ele>
      </trkpt>
      <trkpt lat="46.07763" lon="5.72862">
        <ele>1235.6</ele>
      </trkpt>
      <trkpt lat="46.07784" lon="5.72878">
        <ele>1237.4</ele>
      </trkpt>
      <trkpt lat="46.07816" lon="5.729">
        <ele>1240.7</ele>
      </trkpt>
      <trkpt lat="46.07832" lon="5.72916">
        <ele>1242.8</ele>
      </trkpt>
      <trkpt lat="46.07845" lon="5.72934">
        <ele>1243.1</ele>
      </trkpt>
      <trkpt lat="46.07855" lon="5.72958">
        <ele>1242.8</ele>
      </trkpt>
      <trkpt lat="46.07863" lon="5.72988">
        <ele>1242.4</ele>
      </trkpt>
      <trkpt lat="46.07871" lon="5.73016">
        <ele>1242.1</ele>
      </trkpt>
      <trkpt lat="46.07877" lon="5.73034">
        <ele>1241.9</ele>
      </trkpt>
      <trkpt lat="46.07887" lon="5.73049">
        <ele>1242.2</ele>
      </trkpt>
      <trkpt lat="46.07899" lon="5.7306">
        <ele>1242.8</ele>
      </trkpt>
      <trkpt lat="46.0796" lon="5.73094">
        <ele>1249.5</ele>
      </trkpt>
      <trkpt lat="46.07992" lon="5.73114">
        <ele>1253.7</ele>
      </trkpt>
      <trkpt lat="46.08022" lon="5.73125">
        <ele>1255.8</ele>
      </trkpt>
      <trkpt lat="46.08078" lon="5.73155">
        <ele>1259.4</ele>
      </trkpt>
      <trkpt lat="46.08098" lon="5.73161">
        <ele>1260.9</ele>
      </trkpt>
      <trkpt lat="46.0812" lon="5.73161">
        <ele>1262.2</ele>
      </trkpt>
      <trkpt lat="46.0819" lon="5.73153">
        <ele>1266.2</ele>
      </trkpt>
      <trkpt lat="46.08226" lon="5.73148">
        <ele>1267.6</ele>
      </trkpt>
      <trkpt lat="46.0825" lon="5.73148">
        <ele>1268.4</ele>
      </trkpt>
      <trkpt lat="46.0828" lon="5.73153">
        <ele>1268.6</ele>
      </trkpt>
      <trkpt lat="46.0831" lon="5.73155">
        <ele>1268.8</ele>
      </trkpt>
      <trkpt lat="46.08361" lon="5.73152">
        <ele>1268.6</ele>
      </trkpt>
      <trkpt lat="46.08391" lon="5.7315">
        <ele>1268.2</ele>
      </trkpt>
      <trkpt lat="46.08478" lon="5.73145">
        <ele>1262.7</ele>
      </trkpt>
      <trkpt lat="46.08543" lon="5.73148">
        <ele>1260.6</ele>
      </trkpt>
      <trkpt lat="46.08585" lon="5.73148">
        <ele>1260.5</ele>
      </trkpt>
      <trkpt lat="46.08631" lon="5.73157">
        <ele>1258.5</ele>
      </trkpt>
      <trkpt lat="46.08669" lon="5.73169">
        <ele>1256.9</ele>
      </trkpt>
      <trkpt lat="46.08741" lon="5.73183">
        <ele>1255.9</ele>
      </trkpt>
      <trkpt lat="46.08772" lon="5.73192">
        <ele>1255.8</ele>
      </trkpt>
      <trkpt lat="46.08792" lon="5.73198">
        <ele>1255.8</ele>
      </trkpt>
      <trkpt lat="46.08813" lon="5.732">
        <ele>1255.9</ele>
      </trkpt>
      <trkpt lat="46.08917" lon="5.73225">
        <ele>1259.7</ele>
      </trkpt>
      <trkpt lat="46.09033" lon="5.73253">
        <ele>1257.9</ele>
      </trkpt>
      <trkpt lat="46.09118" lon="5.73278">
        <ele>1253.6</ele>
      </trkpt>
      <trkpt lat="46.09153" lon="5.73294">
        <ele>1251.4</ele>
      </trkpt>
      <trkpt lat="46.09224" lon="5.73325">
        <ele>1253.4</ele>
      </trkpt>
      <trkpt lat="46.09244" lon="5.73331">
        <ele>1254</ele>
      </trkpt>
      <trkpt lat="46.09257" lon="5.73335">
        <ele>1254.1</ele>
      </trkpt>
      <trkpt lat="46.09333" lon="5.73374">
        <ele>1253.1</ele>
      </trkpt>
      <trkpt lat="46.09368" lon="5.73389">
        <ele>1251.8</ele>
      </trkpt>
      <trkpt lat="46.09409" lon="5.734">
        <ele>1251</ele>
      </trkpt>
      <trkpt lat="46.09434" lon="5.73418">
        <ele>1249.7</ele>
      </trkpt>
      <trkpt lat="46.09498" lon="5.73455">
        <ele>1245.9</ele>
      </trkpt>
      <trkpt lat="46.09519" lon="5.7346">
        <ele>1244.9</ele>
      </trkpt>
      <trkpt lat="46.09537" lon="5.73469">
        <ele>1243.9</ele>
      </trkpt>
      <trkpt lat="46.09553" lon="5.73481">
        <ele>1242.7</ele>
      </trkpt>
      <trkpt lat="46.09587" lon="5.73505">
        <ele>1240.7</ele>
      </trkpt>
      <trkpt lat="46.09612" lon="5.73532">
        <ele>1239.8</ele>
      </trkpt>
      <trkpt lat="46.09634" lon="5.73551">
        <ele>1239.5</ele>
      </trkpt>
      <trkpt lat="46.09654" lon="5.73561">
        <ele>1240.1</ele>
      </trkpt>
      <trkpt lat="46.09676" lon="5.73569">
        <ele>1240.9</ele>
      </trkpt>
      <trkpt lat="46.0971" lon="5.73592">
        <ele>1241.6</ele>
      </trkpt>
      <trkpt lat="46.09756" lon="5.73611">
        <ele>1243.5</ele>
      </trkpt>
      <trkpt lat="46.09809" lon="5.73624">
        <ele>1241.7</ele>
      </trkpt>
      <trkpt lat="46.09837" lon="5.73627">
        <ele>1240.9</ele>
      </trkpt>
      <trkpt lat="46.09869" lon="5.73628">
        <ele>1241.5</ele>
      </trkpt>
      <trkpt lat="46.09883" lon="5.73634">
        <ele>1241.3</ele>
      </trkpt>
      <trkpt lat="46.09917" lon="5.73661">
        <ele>1240.4</ele>
      </trkpt>
      <trkpt lat="46.09952" lon="5.73674">
        <ele>1241.3</ele>
      </trkpt>
      <trkpt lat="46.09984" lon="5.73689">
        <ele>1241.7</ele>
      </trkpt>
      <trkpt lat="46.10029" lon="5.73712">
        <ele>1241.5</ele>
      </trkpt>
      <trkpt lat="46.10089" lon="5.73737">
        <ele>1240.8</ele>
      </trkpt>
      <trkpt lat="46.10137" lon="5.73763">
        <ele>1241.1</ele>
      </trkpt>
      <trkpt lat="46.10157" lon="5.73786">
        <ele>1239.7</ele>
      </trkpt>
      <trkpt lat="46.10174" lon="5.73806">
        <ele>1237.8</ele>
      </trkpt>
      <trkpt lat="46.10188" lon="5.73815">
        <ele>1236.5</ele>
      </trkpt>
      <trkpt lat="46.10194" lon="5.73817">
        <ele>1236.2</ele>
      </trkpt>
      <trkpt lat="46.10209" lon="5.73817">
        <ele>1235.9</ele>
      </trkpt>
      <trkpt lat="46.10221" lon="5.73819">
        <ele>1235.4</ele>
      </trkpt>
      <trkpt lat="46.10284" lon="5.73843">
        <ele>1230.6</ele>
      </trkpt>
      <trkpt lat="46.10345" lon="5.73867">
        <ele>1226.3</ele>
      </trkpt>
      <trkpt lat="46.10392" lon="5.73894">
        <ele>1223.7</ele>
      </trkpt>
      <trkpt lat="46.10433" lon="5.73918">
        <ele>1222.1</ele>
      </trkpt>
      <trkpt lat="46.10461" lon="5.73929">
        <ele>1222</ele>
      </trkpt>
      <trkpt lat="46.10499" lon="5.73941">
        <ele>1221.8</ele>
      </trkpt>
      <trkpt lat="46.10506" lon="5.73943">
        <ele>1221.7</ele>
      </trkpt>
      <trkpt lat="46.1048" lon="5.73985">
        <ele>1219.7</ele>
      </trkpt>
      <trkpt lat="46.10445" lon="5.74044">
        <ele>1217.8</ele>
      </trkpt>
      <trkpt lat="46.10424" lon="5.74065">
        <ele>1217.4</ele>
      </trkpt>
      <trkpt lat="46.1041" lon="5.74091">
        <ele>1216.3</ele>
      </trkpt>
      <trkpt lat="46.10394" lon="5.7413">
        <ele>1212.4</ele>
      </trkpt>
      <trkpt lat="46.10393" lon="5.74138">
        <ele>1211.6</ele>
      </trkpt>
      <trkpt lat="46.10419" lon="5.74191">
        <ele>1207.4</ele>
      </trkpt>
      <trkpt lat="46.10466" lon="5.74279">
        <ele>1199.5</ele>
      </trkpt>
      <trkpt lat="46.10511" lon="5.74356">
        <ele>1191.9</ele>
      </trkpt>
      <trkpt lat="46.10532" lon="5.74404">
        <ele>1189.1</ele>
      </trkpt>
      <trkpt lat="46.10541" lon="5.74422">
        <ele>1188.2</ele>
      </trkpt>
      <trkpt lat="46.10466" lon="5.74436">
        <ele>1185</ele>
      </trkpt>
      <trkpt lat="46.10404" lon="5.74514">
        <ele>1178.2</ele>
      </trkpt>
      <trkpt lat="46.10334" lon="5.74524">
        <ele>1176.1</ele>
      </trkpt>
      <trkpt lat="46.10277" lon="5.74541">
        <ele>1171.8</ele>
      </trkpt>
      <trkpt lat="46.10255" lon="5.74533">
        <ele>1171.7</ele>
      </trkpt>
      <trkpt lat="46.10233" lon="5.74539">
        <ele>1170.2</ele>
      </trkpt>
      <trkpt lat="46.10204" lon="5.74533">
        <ele>1169.8</ele>
      </trkpt>
      <trkpt lat="46.10169" lon="5.7452">
        <ele>1170</ele>
      </trkpt>
      <trkpt lat="46.10129" lon="5.7452">
        <ele>1169.1</ele>
      </trkpt>
      <trkpt lat="46.10117" lon="5.746">
        <ele>1160.7</ele>
      </trkpt>
      <trkpt lat="46.10114" lon="5.74717">
        <ele>1149.3</ele>
      </trkpt>
      <trkpt lat="46.1017" lon="5.74766">
        <ele>1143.6</ele>
      </trkpt>
      <trkpt lat="46.10301" lon="5.74989">
        <ele>1128.8</ele>
      </trkpt>
      <trkpt lat="46.10332" lon="5.75054">
        <ele>1119.9</ele>
      </trkpt>
      <trkpt lat="46.10448" lon="5.75355">
        <ele>1093.6</ele>
      </trkpt>
      <trkpt lat="46.1058" lon="5.75427">
        <ele>1093.4</ele>
      </trkpt>
      <trkpt lat="46.10786" lon="5.75509">
        <ele>1087.6</ele>
      </trkpt>
      <trkpt lat="46.11038" lon="5.75653">
        <ele>1071.6</ele>
      </trkpt>
      <trkpt lat="46.11071" lon="5.75682">
        <ele>1065.3</ele>
      </trkpt>
      <trkpt lat="46.11149" lon="5.75748">
        <ele>1056.4</ele>
      </trkpt>
      <trkpt lat="46.11183" lon="5.75758">
        <ele>1056.3</ele>
      </trkpt>
      <trkpt lat="46.11196" lon="5.75778">
        <ele>1052.5</ele>
      </trkpt>
      <trkpt lat="46.11209" lon="5.75794">
        <ele>1050.1</ele>
      </trkpt>
      <trkpt lat="46.11214" lon="5.75808">
        <ele>1047.2</ele>
      </trkpt>
      <trkpt lat="46.11218" lon="5.75815">
        <ele>1046.1</ele>
      </trkpt>
      <trkpt lat="46.11223" lon="5.75817">
        <ele>1046.5</ele>
      </trkpt>
      <trkpt lat="46.11228" lon="5.75829">
        <ele>1044.2</ele>
      </trkpt>
      <trkpt lat="46.11231" lon="5.75835">
        <ele>1043.3</ele>
      </trkpt>
      <trkpt lat="46.11236" lon="5.75843">
        <ele>1041.8</ele>
      </trkpt>
      <trkpt lat="46.11236" lon="5.75857">
        <ele>1037.4</ele>
      </trkpt>
      <trkpt lat="46.11243" lon="5.75865">
        <ele>1036.3</ele>
      </trkpt>
      <trkpt lat="46.11245" lon="5.75866">
        <ele>1036.2</ele>
      </trkpt>
      <trkpt lat="46.11247" lon="5.75865">
        <ele>1036.9</ele>
      </trkpt>
      <trkpt lat="46.11247" lon="5.75863">
        <ele>1037.7</ele>
      </trkpt>
      <trkpt lat="46.11248" lon="5.75861">
        <ele>1038.4</ele>
      </trkpt>
      <trkpt lat="46.11249" lon="5.75862">
        <ele>1038.2</ele>
      </trkpt>
      <trkpt lat="46.1125" lon="5.75868">
        <ele>1036.6</ele>
      </trkpt>
      <trkpt lat="46.11251" lon="5.75875">
        <ele>1034.8</ele>
      </trkpt>
      <trkpt lat="46.11253" lon="5.75878">
        <ele>1034.3</ele>
      </trkpt>
      <trkpt lat="46.11253" lon="5.75882">
        <ele>1033.1</ele>
      </trkpt>
      <trkpt lat="46.11253" lon="5.75888">
        <ele>1031.4</ele>
      </trkpt>
      <trkpt lat="46.1125" lon="5.75891">
        <ele>1029.9</ele>
      </trkpt>
      <trkpt lat="46.11248" lon="5.75891">
        <ele>1029.3</ele>
      </trkpt>
      <trkpt lat="46.11246" lon="5.7589">
        <ele>1029.2</ele>
      </trkpt>
      <trkpt lat="46.1124" lon="5.75891">
        <ele>1027.8</ele>
      </trkpt>
      <trkpt lat="46.11234" lon="5.75894">
        <ele>1025.7</ele>
      </trkpt>
      <trkpt lat="46.11229" lon="5.75896">
        <ele>1024.1</ele>
      </trkpt>
      <trkpt lat="46.11225" lon="5.75895">
        <ele>1023.5</ele>
      </trkpt>
      <trkpt lat="46.11221" lon="5.75896">
        <ele>1022.4</ele>
      </trkpt>
      <trkpt lat="46.11219" lon="5.75897">
        <ele>1021.9</ele>
      </trkpt>
      <trkpt lat="46.11213" lon="5.75895">
        <ele>1021.3</ele>
      </trkpt>
      <trkpt lat="46.11201" lon="5.75894">
        <ele>1019.2</ele>
      </trkpt>
      <trkpt lat="46.11192" lon="5.75891">
        <ele>1018.3</ele>
      </trkpt>
      <trkpt lat="46.11183" lon="5.75889">
        <ele>1017.5</ele>
      </trkpt>
      <trkpt lat="46.11178" lon="5.7589">
        <ele>1016.2</ele>
      </trkpt>
      <trkpt lat="46.11173" lon="5.75889">
        <ele>1015.7</ele>
      </trkpt>
      <trkpt lat="46.11165" lon="5.75891">
        <ele>1013.6</ele>
      </trkpt>
      <trkpt lat="46.11161" lon="5.75891">
        <ele>1013.1</ele>
      </trkpt>
      <trkpt lat="46.11157" lon="5.75894">
        <ele>1011.6</ele>
      </trkpt>
      <trkpt lat="46.11152" lon="5.75895">
        <ele>1010.7</ele>
      </trkpt>
      <trkpt lat="46.11148" lon="5.75893">
        <ele>1011</ele>
      </trkpt>
      <trkpt lat="46.11146" lon="5.75894">
        <ele>1010.6</ele>
      </trkpt>
      <trkpt lat="46.11145" lon="5.75901">
        <ele>1008</ele>
      </trkpt>
      <trkpt lat="46.11144" lon="5.75911">
        <ele>1004.7</ele>
      </trkpt>
      <trkpt lat="46.11143" lon="5.75915">
        <ele>1003.2</ele>
      </trkpt>
      <trkpt lat="46.11137" lon="5.75919">
        <ele>1001.4</ele>
      </trkpt>
      <trkpt lat="46.11132" lon="5.7593">
        <ele>998</ele>
      </trkpt>
      <trkpt lat="46.11128" lon="5.7594">
        <ele>994.9</ele>
      </trkpt>
      <trkpt lat="46.11131" lon="5.75948">
        <ele>992.9</ele>
      </trkpt>
      <trkpt lat="46.11129" lon="5.75959">
        <ele>989.7</ele>
      </trkpt>
      <trkpt lat="46.11125" lon="5.75969">
        <ele>986.5</ele>
      </trkpt>
      <trkpt lat="46.11111" lon="5.75981">
        <ele>981.8</ele>
      </trkpt>
      <trkpt lat="46.11095" lon="5.75982">
        <ele>979.5</ele>
      </trkpt>
      <trkpt lat="46.11056" lon="5.75982">
        <ele>976.3</ele>
      </trkpt>
      <trkpt lat="46.11005" lon="5.75978">
        <ele>974.1</ele>
      </trkpt>
      <trkpt lat="46.10959" lon="5.75972">
        <ele>969.8</ele>
      </trkpt>
      <trkpt lat="46.10919" lon="5.75953">
        <ele>968.4</ele>
      </trkpt>
      <trkpt lat="46.10866" lon="5.75935">
        <ele>965.3</ele>
      </trkpt>
      <trkpt lat="46.10836" lon="5.7593">
        <ele>962.4</ele>
      </trkpt>
      <trkpt lat="46.10821" lon="5.75931">
        <ele>961.4</ele>
      </trkpt>
      <trkpt lat="46.10807" lon="5.75941">
        <ele>958.6</ele>
      </trkpt>
      <trkpt lat="46.1079" lon="5.75944">
        <ele>957.1</ele>
      </trkpt>
      <trkpt lat="46.10778" lon="5.75949">
        <ele>955.7</ele>
      </trkpt>
      <trkpt lat="46.10772" lon="5.75955">
        <ele>954.1</ele>
      </trkpt>
      <trkpt lat="46.10767" lon="5.7597">
        <ele>950.5</ele>
      </trkpt>
      <trkpt lat="46.10766" lon="5.75983">
        <ele>947.5</ele>
      </trkpt>
      <trkpt lat="46.10775" lon="5.75999">
        <ele>944.2</ele>
      </trkpt>
      <trkpt lat="46.10779" lon="5.76019">
        <ele>941.9</ele>
      </trkpt>
      <trkpt lat="46.10782" lon="5.76039">
        <ele>939.8</ele>
      </trkpt>
      <trkpt lat="46.10786" lon="5.76062">
        <ele>937.3</ele>
      </trkpt>
      <trkpt lat="46.10787" lon="5.76083">
        <ele>934.9</ele>
      </trkpt>
      <trkpt lat="46.10793" lon="5.76089">
        <ele>934.4</ele>
      </trkpt>
      <trkpt lat="46.10807" lon="5.76089">
        <ele>934.8</ele>
      </trkpt>
      <trkpt lat="46.10824" lon="5.76094">
        <ele>934.8</ele>
      </trkpt>
      <trkpt lat="46.10838" lon="5.76106">
        <ele>934.5</ele>
      </trkpt>
      <trkpt lat="46.10849" lon="5.76134">
        <ele>932.9</ele>
      </trkpt>
      <trkpt lat="46.10864" lon="5.76157">
        <ele>931.5</ele>
      </trkpt>
      <trkpt lat="46.10884" lon="5.76167">
        <ele>931.4</ele>
      </trkpt>
      <trkpt lat="46.10894" lon="5.76172">
        <ele>931.2</ele>
      </trkpt>
      <trkpt lat="46.10903" lon="5.76186">
        <ele>929.7</ele>
      </trkpt>
      <trkpt lat="46.1091" lon="5.76201">
        <ele>927.9</ele>
      </trkpt>
      <trkpt lat="46.10916" lon="5.76209">
        <ele>926.9</ele>
      </trkpt>
      <trkpt lat="46.10927" lon="5.7622">
        <ele>925.5</ele>
      </trkpt>
      <trkpt lat="46.10935" lon="5.76228">
        <ele>924.3</ele>
      </trkpt>
      <trkpt lat="46.10945" lon="5.76236">
        <ele>923</ele>
      </trkpt>
      <trkpt lat="46.10959" lon="5.76243">
        <ele>921.7</ele>
      </trkpt>
      <trkpt lat="46.10976" lon="5.76248">
        <ele>920.8</ele>
      </trkpt>
      <trkpt lat="46.10992" lon="5.76247">
        <ele>920.8</ele>
      </trkpt>
      <trkpt lat="46.11008" lon="5.7624">
        <ele>921.4</ele>
      </trkpt>
      <trkpt lat="46.11026" lon="5.76231">
        <ele>921.7</ele>
      </trkpt>
      <trkpt lat="46.1104" lon="5.76228">
        <ele>921.3</ele>
      </trkpt>
      <trkpt lat="46.11054" lon="5.76229">
        <ele>919.9</ele>
      </trkpt>
      <trkpt lat="46.11062" lon="5.76235">
        <ele>917.9</ele>
      </trkpt>
      <trkpt lat="46.11072" lon="5.76244">
        <ele>915.3</ele>
      </trkpt>
      <trkpt lat="46.1108" lon="5.76255">
        <ele>912.3</ele>
      </trkpt>
      <trkpt lat="46.11091" lon="5.76268">
        <ele>910.9</ele>
      </trkpt>
      <trkpt lat="46.11102" lon="5.76287">
        <ele>909.1</ele>
      </trkpt>
      <trkpt lat="46.11084" lon="5.76323">
        <ele>900.8</ele>
      </trkpt>
      <trkpt lat="46.11055" lon="5.7636">
        <ele>894.7</ele>
      </trkpt>
      <trkpt lat="46.11047" lon="5.76422">
        <ele>882.7</ele>
      </trkpt>
      <trkpt lat="46.11044" lon="5.76502">
        <ele>871.5</ele>
      </trkpt>
      <trkpt lat="46.11027" lon="5.76553">
        <ele>863.3</ele>
      </trkpt>
      <trkpt lat="46.11015" lon="5.76594">
        <ele>856.1</ele>
      </trkpt>
      <trkpt lat="46.11039" lon="5.76657">
        <ele>850.6</ele>
      </trkpt>
      <trkpt lat="46.11067" lon="5.76804">
        <ele>833.3</ele>
      </trkpt>
      <trkpt lat="46.11109" lon="5.76886">
        <ele>822.9</ele>
      </trkpt>
      <trkpt lat="46.11126" lon="5.76952">
        <ele>812</ele>
      </trkpt>
      <trkpt lat="46.11131" lon="5.76988">
        <ele>805.7</ele>
      </trkpt>
      <trkpt lat="46.11097" lon="5.77002">
        <ele>795.5</ele>
      </trkpt>
      <trkpt lat="46.11102" lon="5.7703">
        <ele>789.9</ele>
      </trkpt>
      <trkpt lat="46.11123" lon="5.77125">
        <ele>772.7</ele>
      </trkpt>
      <trkpt lat="46.11159" lon="5.7721">
        <ele>759.4</ele>
      </trkpt>
      <trkpt lat="46.11172" lon="5.77232">
        <ele>756</ele>
      </trkpt>
      <trkpt lat="46.11203" lon="5.77289">
        <ele>747.5</ele>
      </trkpt>
      <trkpt lat="46.11228" lon="5.77367">
        <ele>734.6</ele>
      </trkpt>
      <trkpt lat="46.11238" lon="5.77393">
        <ele>730.4</ele>
      </trkpt>
      <trkpt lat="46.11258" lon="5.77424">
        <ele>726.5</ele>
      </trkpt>
      <trkpt lat="46.11257" lon="5.77448">
        <ele>721.1</ele>
      </trkpt>
      <trkpt lat="46.11236" lon="5.77467">
        <ele>714</ele>
      </trkpt>
      <trkpt lat="46.11205" lon="5.77481">
        <ele>706</ele>
      </trkpt>
      <trkpt lat="46.11157" lon="5.77494">
        <ele>695.8</ele>
      </trkpt>
      <trkpt lat="46.11124" lon="5.77497">
        <ele>689.5</ele>
      </trkpt>
      <trkpt lat="46.1108" lon="5.77512">
        <ele>678.5</ele>
      </trkpt>
      <trkpt lat="46.11024" lon="5.77526">
        <ele>666.6</ele>
      </trkpt>
      <trkpt lat="46.10995" lon="5.7755">
        <ele>657.4</ele>
      </trkpt>
      <trkpt lat="46.10984" lon="5.77574">
        <ele>650.4</ele>
      </trkpt>
      <trkpt lat="46.10965" lon="5.77619">
        <ele>638.7</ele>
      </trkpt>
      <trkpt lat="46.10954" lon="5.77637">
        <ele>633.7</ele>
      </trkpt>
      <trkpt lat="46.10939" lon="5.77651">
        <ele>629</ele>
      </trkpt>
      <trkpt lat="46.10941" lon="5.77664">
        <ele>627.2</ele>
      </trkpt>
      <trkpt lat="46.10941" lon="5.77695">
        <ele>622.7</ele>
      </trkpt>
      <trkpt lat="46.1094" lon="5.7771">
        <ele>620.3</ele>
      </trkpt>
      <trkpt lat="46.10937" lon="5.77723">
        <ele>618.1</ele>
      </trkpt>
      <trkpt lat="46.10932" lon="5.77734">
        <ele>616.1</ele>
      </trkpt>
      <trkpt lat="46.10924" lon="5.77746">
        <ele>614</ele>
      </trkpt>
      <trkpt lat="46.10907" lon="5.77768">
        <ele>610</ele>
      </trkpt>
      <trkpt lat="46.10891" lon="5.77794">
        <ele>605.5</ele>
      </trkpt>
      <trkpt lat="46.10883" lon="5.77808">
        <ele>603.3</ele>
      </trkpt>
      <trkpt lat="46.10884" lon="5.77814">
        <ele>602.8</ele>
      </trkpt>
      <trkpt lat="46.10888" lon="5.77838">
        <ele>600.9</ele>
      </trkpt>
      <trkpt lat="46.10888" lon="5.77847">
        <ele>599.7</ele>
      </trkpt>
      <trkpt lat="46.10888" lon="5.77854">
        <ele>598.8</ele>
      </trkpt>
      <trkpt lat="46.10883" lon="5.77852">
        <ele>598.5</ele>
      </trkpt>
      <trkpt lat="46.10878" lon="5.77854">
        <ele>597.8</ele>
      </trkpt>
      <trkpt lat="46.10875" lon="5.77854">
        <ele>597.4</ele>
      </trkpt>
      <trkpt lat="46.10861" lon="5.77848">
        <ele>596.5</ele>
      </trkpt>
      <trkpt lat="46.10852" lon="5.7785">
        <ele>595.3</ele>
      </trkpt>
      <trkpt lat="46.10841" lon="5.77853">
        <ele>593.6</ele>
      </trkpt>
      <trkpt lat="46.10819" lon="5.77857">
        <ele>591</ele>
      </trkpt>
      <trkpt lat="46.10804" lon="5.7786">
        <ele>589.3</ele>
      </trkpt>
      <trkpt lat="46.10784" lon="5.7788">
        <ele>585.6</ele>
      </trkpt>
      <trkpt lat="46.10774" lon="5.77888">
        <ele>584.1</ele>
      </trkpt>
      <trkpt lat="46.10766" lon="5.77887">
        <ele>583.5</ele>
      </trkpt>
      <trkpt lat="46.1075" lon="5.77888">
        <ele>582</ele>
      </trkpt>
      <trkpt lat="46.10744" lon="5.77891">
        <ele>581.6</ele>
      </trkpt>
      <trkpt lat="46.10742" lon="5.77893">
        <ele>581.3</ele>
      </trkpt>
      <trkpt lat="46.10734" lon="5.77899">
        <ele>580.5</ele>
      </trkpt>
      <trkpt lat="46.10728" lon="5.77905">
        <ele>579.8</ele>
      </trkpt>
      <trkpt lat="46.1073" lon="5.7791">
        <ele>579.5</ele>
      </trkpt>
      <trkpt lat="46.10733" lon="5.77918">
        <ele>579.1</ele>
      </trkpt>
      <trkpt lat="46.10739" lon="5.77927">
        <ele>578.9</ele>
      </trkpt>
      <trkpt lat="46.10728" lon="5.77944">
        <ele>577.5</ele>
      </trkpt>
      <trkpt lat="46.10722" lon="5.77952">
        <ele>576.8</ele>
      </trkpt>
      <trkpt lat="46.10705" lon="5.77979">
        <ele>574.4</ele>
      </trkpt>
      <trkpt lat="46.10697" lon="5.77991">
        <ele>573.3</ele>
      </trkpt>
      <trkpt lat="46.10672" lon="5.78037">
        <ele>569.5</ele>
      </trkpt>
      <trkpt lat="46.10655" lon="5.78069">
        <ele>567.6</ele>
      </trkpt>
      <trkpt lat="46.10649" lon="5.78078">
        <ele>567.1</ele>
      </trkpt>
      <trkpt lat="46.10646" lon="5.78081">
        <ele>566.9</ele>
      </trkpt>
      <trkpt lat="46.10635" lon="5.78097">
        <ele>565.8</ele>
      </trkpt>
      <trkpt lat="46.10625" lon="5.78107">
        <ele>565.1</ele>
      </trkpt>
      <trkpt lat="46.10589" lon="5.78141">
        <ele>563.2</ele>
      </trkpt>
      <trkpt lat="46.1057" lon="5.78173">
        <ele>561.6</ele>
      </trkpt>
      <trkpt lat="46.10564" lon="5.78179">
        <ele>561.1</ele>
      </trkpt>
      <trkpt lat="46.10556" lon="5.78189">
        <ele>560.4</ele>
      </trkpt>
      <trkpt lat="46.10545" lon="5.78199">
        <ele>559.7</ele>
      </trkpt>
      <trkpt lat="46.1053" lon="5.78216">
        <ele>558.5</ele>
      </trkpt>
      <trkpt lat="46.1052" lon="5.78234">
        <ele>557.2</ele>
      </trkpt>
      <trkpt lat="46.1051" lon="5.78257">
        <ele>555.4</ele>
      </trkpt>
      <trkpt lat="46.10503" lon="5.78286">
        <ele>553</ele>
      </trkpt>
      <trkpt lat="46.10496" lon="5.78314">
        <ele>550.4</ele>
      </trkpt>
      <trkpt lat="46.10481" lon="5.78381">
        <ele>544.4</ele>
      </trkpt>
      <trkpt lat="46.1047" lon="5.78423">
        <ele>540.9</ele>
      </trkpt>
      <trkpt lat="46.10463" lon="5.78463">
        <ele>537.8</ele>
      </trkpt>
      <trkpt lat="46.10455" lon="5.7849">
        <ele>535.5</ele>
      </trkpt>
      <trkpt lat="46.10452" lon="5.78499">
        <ele>534.8</ele>
      </trkpt>
      <trkpt lat="46.1045" lon="5.78504">
        <ele>534.5</ele>
      </trkpt>
      <trkpt lat="46.10441" lon="5.78517">
        <ele>533.5</ele>
      </trkpt>
      <trkpt lat="46.10427" lon="5.78537">
        <ele>531.8</ele>
      </trkpt>
      <trkpt lat="46.10411" lon="5.78565">
        <ele>529.8</ele>
      </trkpt>
      <trkpt lat="46.10395" lon="5.78604">
        <ele>528</ele>
      </trkpt>
      <trkpt lat="46.1038" lon="5.78628">
        <ele>527</ele>
      </trkpt>
      <trkpt lat="46.10371" lon="5.78642">
        <ele>526.3</ele>
      </trkpt>
      <trkpt lat="46.10366" lon="5.78649">
        <ele>526</ele>
      </trkpt>
      <trkpt lat="46.10357" lon="5.78664">
        <ele>525.4</ele>
      </trkpt>
      <trkpt lat="46.10336" lon="5.78711">
        <ele>522.9</ele>
      </trkpt>
      <trkpt lat="46.10327" lon="5.78726">
        <ele>522</ele>
      </trkpt>
      <trkpt lat="46.10319" lon="5.78736">
        <ele>521.3</ele>
      </trkpt>
      <trkpt lat="46.10261" lon="5.78782">
        <ele>518</ele>
      </trkpt>
      <trkpt lat="46.10204" lon="5.78813">
        <ele>516.2</ele>
      </trkpt>
      <trkpt lat="46.10188" lon="5.78831">
        <ele>515.3</ele>
      </trkpt>
      <trkpt lat="46.10185" lon="5.78867">
        <ele>514.3</ele>
      </trkpt>
      <trkpt lat="46.1018" lon="5.78922">
        <ele>513</ele>
      </trkpt>
      <trkpt lat="46.1017" lon="5.78972">
        <ele>513.5</ele>
      </trkpt>
      <trkpt lat="46.10161" lon="5.79025">
        <ele>512.8</ele>
      </trkpt>
      <trkpt lat="46.10146" lon="5.79085">
        <ele>509.6</ele>
      </trkpt>
      <trkpt lat="46.10134" lon="5.79121">
        <ele>507.3</ele>
      </trkpt>
      <trkpt lat="46.10123" lon="5.79157">
        <ele>505.6</ele>
      </trkpt>
      <trkpt lat="46.10107" lon="5.79204">
        <ele>505.1</ele>
      </trkpt>
      <trkpt lat="46.10099" lon="5.79238">
        <ele>505</ele>
      </trkpt>
      <trkpt lat="46.10092" lon="5.79274">
        <ele>505.1</ele>
      </trkpt>
      <trkpt lat="46.10084" lon="5.79312">
        <ele>505.2</ele>
      </trkpt>
      <trkpt lat="46.10077" lon="5.7934">
        <ele>505.1</ele>
      </trkpt>
      <trkpt lat="46.10075" lon="5.79347">
        <ele>505.2</ele>
      </trkpt>
      <trkpt lat="46.10067" lon="5.79373">
        <ele>505.1</ele>
      </trkpt>
      <trkpt lat="46.10062" lon="5.79391">
        <ele>505</ele>
      </trkpt>
      <trkpt lat="46.10061" lon="5.79404">
        <ele>504.9</ele>
      </trkpt>
      <trkpt lat="46.10063" lon="5.79432">
        <ele>504.6</ele>
      </trkpt>
      <trkpt lat="46.10078" lon="5.79525">
        <ele>504.2</ele>
      </trkpt>
      <trkpt lat="46.10084" lon="5.79578">
        <ele>504.9</ele>
      </trkpt>
      <trkpt lat="46.10082" lon="5.79613">
        <ele>504.3</ele>
      </trkpt>
      <trkpt lat="46.10077" lon="5.79655">
        <ele>503.1</ele>
      </trkpt>
      <trkpt lat="46.10068" lon="5.79688">
        <ele>502.3</ele>
      </trkpt>
      <trkpt lat="46.10053" lon="5.79757">
        <ele>500.7</ele>
      </trkpt>
      <trkpt lat="46.10036" lon="5.79816">
        <ele>498.7</ele>
      </trkpt>
      <trkpt lat="46.10018" lon="5.79865">
        <ele>497.2</ele>
      </trkpt>
      <trkpt lat="46.10012" lon="5.79896">
        <ele>496.6</ele>
      </trkpt>
      <trkpt lat="46.10014" lon="5.79909">
        <ele>496.4</ele>
      </trkpt>
      <trkpt lat="46.10018" lon="5.79944">
        <ele>496.3</ele>
      </trkpt>
      <trkpt lat="46.1003" lon="5.80009">
        <ele>496.1</ele>
      </trkpt>
      <trkpt lat="46.10036" lon="5.80046">
        <ele>496.2</ele>
      </trkpt>
      <trkpt lat="46.10032" lon="5.8014">
        <ele>494.5</ele>
      </trkpt>
      <trkpt lat="46.1003" lon="5.80174">
        <ele>493.5</ele>
      </trkpt>
      <trkpt lat="46.10037" lon="5.80254">
        <ele>489</ele>
      </trkpt>
      <trkpt lat="46.10045" lon="5.80295">
        <ele>487.3</ele>
      </trkpt>
      <trkpt lat="46.10054" lon="5.80336">
        <ele>485.7</ele>
      </trkpt>
      <trkpt lat="46.10071" lon="5.80399">
        <ele>481</ele>
      </trkpt>
      <trkpt lat="46.10068" lon="5.80481">
        <ele>475.8</ele>
      </trkpt>
      <trkpt lat="46.10066" lon="5.80541">
        <ele>474.5</ele>
      </trkpt>
      <trkpt lat="46.10067" lon="5.80583">
        <ele>474.2</ele>
      </trkpt>
      <trkpt lat="46.10078" lon="5.8066">
        <ele>469.7</ele>
      </trkpt>
      <trkpt lat="46.10091" lon="5.80692">
        <ele>467.8</ele>
      </trkpt>
      <trkpt lat="46.10123" lon="5.80742">
        <ele>463.5</ele>
      </trkpt>
      <trkpt lat="46.10151" lon="5.80779">
        <ele>460.1</ele>
      </trkpt>
      <trkpt lat="46.10183" lon="5.80817">
        <ele>456.8</ele>
      </trkpt>
      <trkpt lat="46.102" lon="5.80842">
        <ele>454.4</ele>
      </trkpt>
      <trkpt lat="46.1021" lon="5.80865">
        <ele>452.8</ele>
      </trkpt>
      <trkpt lat="46.10241" lon="5.80914">
        <ele>451.1</ele>
      </trkpt>
      <trkpt lat="46.1026" lon="5.80938">
        <ele>447.6</ele>
      </trkpt>
      <trkpt lat="46.10272" lon="5.80978">
        <ele>442.7</ele>
      </trkpt>
      <trkpt lat="46.1028" lon="5.81021">
        <ele>438.9</ele>
      </trkpt>
      <trkpt lat="46.1029" lon="5.81081">
        <ele>433.9</ele>
      </trkpt>
      <trkpt lat="46.10306" lon="5.81156">
        <ele>426</ele>
      </trkpt>
      <trkpt lat="46.10309" lon="5.81189">
        <ele>423.6</ele>
      </trkpt>
      <trkpt lat="46.10308" lon="5.81235">
        <ele>421.1</ele>
      </trkpt>
      <trkpt lat="46.10304" lon="5.81261">
        <ele>420.7</ele>
      </trkpt>
      <trkpt lat="46.10297" lon="5.81345">
        <ele>418.7</ele>
      </trkpt>
      <trkpt lat="46.10294" lon="5.81371">
        <ele>416.2</ele>
      </trkpt>
      <trkpt lat="46.10283" lon="5.81394">
        <ele>414.7</ele>
      </trkpt>
      <trkpt lat="46.10273" lon="5.8141">
        <ele>413.8</ele>
      </trkpt>
      <trkpt lat="46.10256" lon="5.81439">
        <ele>411.1</ele>
      </trkpt>
      <trkpt lat="46.10251" lon="5.8144">
        <ele>411.2</ele>
      </trkpt>
      <trkpt lat="46.10244" lon="5.81443">
        <ele>410.5</ele>
      </trkpt>
      <trkpt lat="46.10242" lon="5.81449">
        <ele>409.4</ele>
      </trkpt>
      <trkpt lat="46.10236" lon="5.81547">
        <ele>397</ele>
      </trkpt>
      <trkpt lat="46.10228" lon="5.81552">
        <ele>396.5</ele>
      </trkpt>
      <trkpt lat="46.10215" lon="5.81563">
        <ele>395.7</ele>
      </trkpt>
      <trkpt lat="46.10218" lon="5.81581">
        <ele>394</ele>
      </trkpt>
      <trkpt lat="46.10224" lon="5.81591">
        <ele>392.5</ele>
      </trkpt>
      <trkpt lat="46.10268" lon="5.8162">
        <ele>385.9</ele>
      </trkpt>
      <trkpt lat="46.103" lon="5.81644">
        <ele>380</ele>
      </trkpt>
      <trkpt lat="46.10303" lon="5.81639">
        <ele>380.5</ele>
      </trkpt>
      <trkpt lat="46.1031" lon="5.81635">
        <ele>380.6</ele>
      </trkpt>
      <trkpt lat="46.10319" lon="5.81632">
        <ele>380.3</ele>
      </trkpt>
      <trkpt lat="46.10328" lon="5.81631">
        <ele>379.7</ele>
      </trkpt>
      <trkpt lat="46.10334" lon="5.81632">
        <ele>379.2</ele>
      </trkpt>
      <trkpt lat="46.10341" lon="5.81634">
        <ele>379.5</ele>
      </trkpt>
      <trkpt lat="46.10349" lon="5.81639">
        <ele>379.7</ele>
      </trkpt>
      <trkpt lat="46.10356" lon="5.81666">
        <ele>377.9</ele>
      </trkpt>
      <trkpt lat="46.10349" lon="5.81713">
        <ele>374.2</ele>
      </trkpt>
      <trkpt lat="46.10349" lon="5.81736">
        <ele>372.8</ele>
      </trkpt>
      <trkpt lat="46.10349" lon="5.8174">
        <ele>372.5</ele>
      </trkpt>
      <trkpt lat="46.10345" lon="5.81763">
        <ele>369.7</ele>
      </trkpt>
      <trkpt lat="46.10343" lon="5.81778">
        <ele>367.6</ele>
      </trkpt>
      <trkpt lat="46.10362" lon="5.81782">
        <ele>368.8</ele>
      </trkpt>
      <trkpt lat="46.10383" lon="5.81787">
        <ele>370</ele>
      </trkpt>
      <trkpt lat="46.10408" lon="5.81795">
        <ele>370.7</ele>
      </trkpt>
      <trkpt lat="46.10432" lon="5.81807">
        <ele>370.1</ele>
      </trkpt>
      <trkpt lat="46.10453" lon="5.8182">
        <ele>369.4</ele>
      </trkpt>
      <trkpt lat="46.10467" lon="5.8183">
        <ele>368.9</ele>
      </trkpt>
      <trkpt lat="46.1048" lon="5.8184">
        <ele>368.5</ele>
      </trkpt>
      <trkpt lat="46.10488" lon="5.81847">
        <ele>368.4</ele>
      </trkpt>
      <trkpt lat="46.10496" lon="5.81855">
        <ele>368.2</ele>
      </trkpt>
      <trkpt lat="46.10502" lon="5.81864">
        <ele>367.9</ele>
      </trkpt>
      <trkpt lat="46.10508" lon="5.81875">
        <ele>367.2</ele>
      </trkpt>
      <trkpt lat="46.10515" lon="5.8189">
        <ele>366.3</ele>
      </trkpt>
      <trkpt lat="46.10521" lon="5.81908">
        <ele>365</ele>
      </trkpt>
      <trkpt lat="46.10539" lon="5.81963">
        <ele>362.9</ele>
      </trkpt>
      <trkpt lat="46.10549" lon="5.81995">
        <ele>362.3</ele>
      </trkpt>
      <trkpt lat="46.10552" lon="5.82004">
        <ele>362.3</ele>
      </trkpt>
      <trkpt lat="46.10554" lon="5.82009">
        <ele>362.3</ele>
      </trkpt>
      <trkpt lat="46.10554" lon="5.82013">
        <ele>362.3</ele>
      </trkpt>
      <trkpt lat="46.10556" lon="5.8202">
        <ele>362.2</ele>
      </trkpt>
      <trkpt lat="46.10552" lon="5.82021">
        <ele>361.6</ele>
      </trkpt>
      <trkpt lat="46.10556" lon="5.8202">
        <ele>362.2</ele>
      </trkpt>
      <trkpt lat="46.10558" lon="5.8202">
        <ele>362.5</ele>
      </trkpt>
      <trkpt lat="46.10561" lon="5.8202">
        <ele>363</ele>
      </trkpt>
      <trkpt lat="46.10563" lon="5.82021">
        <ele>363.2</ele>
      </trkpt>
      <trkpt lat="46.10565" lon="5.82023">
        <ele>363.4</ele>
      </trkpt>
      <trkpt lat="46.10566" lon="5.82027">
        <ele>363.4</ele>
      </trkpt>
      <trkpt lat="46.10567" lon="5.8203">
        <ele>363.4</ele>
      </trkpt>
      <trkpt lat="46.10567" lon="5.8204">
        <ele>363</ele>
      </trkpt>
      <trkpt lat="46.10567" lon="5.82045">
        <ele>362.8</ele>
      </trkpt>
      <trkpt lat="46.10567" lon="5.82049">
        <ele>362.6</ele>
      </trkpt>
      <trkpt lat="46.10564" lon="5.82054">
        <ele>362</ele>
      </trkpt>
      <trkpt lat="46.10562" lon="5.82059">
        <ele>361.5</ele>
      </trkpt>
      <trkpt lat="46.1056" lon="5.82062">
        <ele>360.9</ele>
      </trkpt>
      <trkpt lat="46.10556" lon="5.82064">
        <ele>360.3</ele>
      </trkpt>
      <trkpt lat="46.10553" lon="5.82065">
        <ele>359.8</ele>
      </trkpt>
      <trkpt lat="46.1055" lon="5.82064">
        <ele>359.3</ele>
      </trkpt>
      <trkpt lat="46.10546" lon="5.82063">
        <ele>358.7</ele>
      </trkpt>
      <trkpt lat="46.10543" lon="5.8206">
        <ele>358.4</ele>
      </trkpt>
      <trkpt lat="46.10541" lon="5.82055">
        <ele>358.2</ele>
      </trkpt>
      <trkpt lat="46.10539" lon="5.82052">
        <ele>358.2</ele>
      </trkpt>
      <trkpt lat="46.10539" lon="5.82044">
        <ele>358.4</ele>
      </trkpt>
      <trkpt lat="46.10539" lon="5.8204">
        <ele>358.7</ele>
      </trkpt>
      <trkpt lat="46.1054" lon="5.82035">
        <ele>359.1</ele>
      </trkpt>
      <trkpt lat="46.10542" lon="5.82032">
        <ele>359.5</ele>
      </trkpt>
      <trkpt lat="46.10544" lon="5.82028">
        <ele>360</ele>
      </trkpt>
      <trkpt lat="46.10547" lon="5.82025">
        <ele>360.7</ele>
      </trkpt>
      <trkpt lat="46.10552" lon="5.82021">
        <ele>361.6</ele>
      </trkpt>
      <trkpt lat="46.10564" lon="5.82054">
        <ele>362</ele>
      </trkpt>
      <trkpt lat="46.10569" lon="5.82067">
        <ele>362.3</ele>
      </trkpt>
      <trkpt lat="46.10579" lon="5.82081">
        <ele>363.4</ele>
      </trkpt>
      <trkpt lat="46.10586" lon="5.82089">
        <ele>364</ele>
      </trkpt>
      <trkpt lat="46.10597" lon="5.82101">
        <ele>364.3</ele>
      </trkpt>
      <trkpt lat="46.107" lon="5.82238">
        <ele>364.3</ele>
      </trkpt>
      <trkpt lat="46.10707" lon="5.82247">
        <ele>364.5</ele>
      </trkpt>
      <trkpt lat="46.10764" lon="5.82324">
        <ele>366</ele>
      </trkpt>
      <trkpt lat="46.10799" lon="5.82368">
        <ele>365.7</ele>
      </trkpt>
      <trkpt lat="46.10804" lon="5.82375">
        <ele>365.6</ele>
      </trkpt>
      <trkpt lat="46.10809" lon="5.82381">
        <ele>365.5</ele>
      </trkpt>
      <trkpt lat="46.10821" lon="5.82397">
        <ele>365.3</ele>
      </trkpt>
      <trkpt lat="46.10827" lon="5.82405">
        <ele>365.2</ele>
      </trkpt>
      <trkpt lat="46.1084" lon="5.82423">
        <ele>365.2</ele>
      </trkpt>
      <trkpt lat="46.10843" lon="5.82427">
        <ele>365.2</ele>
      </trkpt>
      <trkpt lat="46.10879" lon="5.82475">
        <ele>364.9</ele>
      </trkpt>
      <trkpt lat="46.1089" lon="5.8249">
        <ele>364.6</ele>
      </trkpt>
      <trkpt lat="46.10896" lon="5.82498">
        <ele>364.4</ele>
      </trkpt>
      <trkpt lat="46.10901" lon="5.82505">
        <ele>364.2</ele>
      </trkpt>
      <trkpt lat="46.10936" lon="5.82551">
        <ele>364.6</ele>
      </trkpt>
      <trkpt lat="46.10974" lon="5.82606">
        <ele>366.5</ele>
      </trkpt>
      <trkpt lat="46.10987" lon="5.82623">
        <ele>367.2</ele>
      </trkpt>
      <trkpt lat="46.10991" lon="5.82628">
        <ele>367.5</ele>
      </trkpt>
      <trkpt lat="46.11005" lon="5.82636">
        <ele>368.4</ele>
      </trkpt>
      <trkpt lat="46.11008" lon="5.82639">
        <ele>368.5</ele>
      </trkpt>
      <trkpt lat="46.11011" lon="5.82644">
        <ele>368.6</ele>
      </trkpt>
      <trkpt lat="46.11013" lon="5.82649">
        <ele>368.5</ele>
      </trkpt>
      <trkpt lat="46.11014" lon="5.82655">
        <ele>368.4</ele>
      </trkpt>
      <trkpt lat="46.11015" lon="5.82661">
        <ele>368.2</ele>
      </trkpt>
      <trkpt lat="46.11014" lon="5.82666">
        <ele>368.1</ele>
      </trkpt>
      <trkpt lat="46.11011" lon="5.82685">
        <ele>367</ele>
      </trkpt>
      <trkpt lat="46.11011" lon="5.82687">
        <ele>366.8</ele>
      </trkpt>
      <trkpt lat="46.11004" lon="5.82732">
        <ele>364.2</ele>
      </trkpt>
      <trkpt lat="46.11" lon="5.82757">
        <ele>362.7</ele>
      </trkpt>
      <trkpt lat="46.10999" lon="5.82765">
        <ele>362.2</ele>
      </trkpt>
      <trkpt lat="46.10997" lon="5.82772">
        <ele>361.7</ele>
      </trkpt>
      <trkpt lat="46.10995" lon="5.82777">
        <ele>361.4</ele>
      </trkpt>
      <trkpt lat="46.10992" lon="5.82785">
        <ele>360.7</ele>
      </trkpt>
      <trkpt lat="46.1099" lon="5.82809">
        <ele>359.4</ele>
      </trkpt>
      <trkpt lat="46.10987" lon="5.8281">
        <ele>359.2</ele>
      </trkpt>
      <trkpt lat="46.10984" lon="5.8281">
        <ele>359</ele>
      </trkpt>
      <trkpt lat="46.10982" lon="5.82808">
        <ele>358.9</ele>
      </trkpt>
      <trkpt lat="46.1098" lon="5.82805">
        <ele>358.9</ele>
      </trkpt>
      <trkpt lat="46.10978" lon="5.82802">
        <ele>358.9</ele>
      </trkpt>
      <trkpt lat="46.10978" lon="5.82798">
        <ele>359.1</ele>
      </trkpt>
      <trkpt lat="46.10978" lon="5.82794">
        <ele>359.3</ele>
      </trkpt>
      <trkpt lat="46.10979" lon="5.8279">
        <ele>359.5</ele>
      </trkpt>
      <trkpt lat="46.10981" lon="5.82787">
        <ele>359.8</ele>
      </trkpt>
      <trkpt lat="46.10983" lon="5.82785">
        <ele>360.1</ele>
      </trkpt>
      <trkpt lat="46.10986" lon="5.82784">
        <ele>360.4</ele>
      </trkpt>
      <trkpt lat="46.10989" lon="5.82784">
        <ele>360.6</ele>
      </trkpt>
      <trkpt lat="46.10992" lon="5.82785">
        <ele>360.7</ele>
      </trkpt>
      <trkpt lat="46.10994" lon="5.82788">
        <ele>360.7</ele>
      </trkpt>
      <trkpt lat="46.10995" lon="5.82792">
        <ele>360.6</ele>
      </trkpt>
      <trkpt lat="46.10996" lon="5.82796">
        <ele>360.5</ele>
      </trkpt>
      <trkpt lat="46.10996" lon="5.82801">
        <ele>360.2</ele>
      </trkpt>
      <trkpt lat="46.10994" lon="5.82805">
        <ele>359.9</ele>
      </trkpt>
      <trkpt lat="46.10992" lon="5.82807">
        <ele>359.7</ele>
      </trkpt>
      <trkpt lat="46.1099" lon="5.82809">
        <ele>359.4</ele>
      </trkpt>
      <trkpt lat="46.10994" lon="5.82805">
        <ele>359.9</ele>
      </trkpt>
      <trkpt lat="46.11003" lon="5.82815">
        <ele>360.1</ele>
      </trkpt>
      <trkpt lat="46.11012" lon="5.82821">
        <ele>360.2</ele>
      </trkpt>
      <trkpt lat="46.11026" lon="5.82828">
        <ele>360.6</ele>
      </trkpt>
      <trkpt lat="46.11021" lon="5.82846">
        <ele>359.7</ele>
      </trkpt>
      <trkpt lat="46.11021" lon="5.82867">
        <ele>359.2</ele>
      </trkpt>
      <trkpt lat="46.11032" lon="5.82877">
        <ele>359.8</ele>
      </trkpt>
      <trkpt lat="46.11058" lon="5.82879">
        <ele>361.7</ele>
      </trkpt>
      <trkpt lat="46.1112" lon="5.82847">
        <ele>366</ele>
      </trkpt>
      <trkpt lat="46.1122" lon="5.82722">
        <ele>369.3</ele>
      </trkpt>
      <trkpt lat="46.11265" lon="5.82687">
        <ele>368.3</ele>
      </trkpt>
      <trkpt lat="46.11309" lon="5.8267">
        <ele>361.4</ele>
      </trkpt>
      <trkpt lat="46.11316" lon="5.82667">
        <ele>359.9</ele>
      </trkpt>
      <trkpt lat="46.11391" lon="5.82648">
        <ele>358.5</ele>
      </trkpt>
      <trkpt lat="46.11407" lon="5.82605">
        <ele>362.6</ele>
      </trkpt>
      <trkpt lat="46.11436" lon="5.82546">
        <ele>367.6</ele>
      </trkpt>
      <trkpt lat="46.11458" lon="5.82469">
        <ele>368.1</ele>
      </trkpt>
      <trkpt lat="46.11486" lon="5.82416">
        <ele>365.7</ele>
      </trkpt>
      <trkpt lat="46.11516" lon="5.82382">
        <ele>368.5</ele>
      </trkpt>
      <trkpt lat="46.11543" lon="5.82368">
        <ele>369</ele>
      </trkpt>
      <trkpt lat="46.11546" lon="5.82377">
        <ele>367.4</ele>
      </trkpt>
      <trkpt lat="46.11548" lon="5.82384">
        <ele>366.2</ele>
      </trkpt>
      <trkpt lat="46.11555" lon="5.82418">
        <ele>361.5</ele>
      </trkpt>
      <trkpt lat="46.11556" lon="5.8242">
        <ele>361.6</ele>
      </trkpt>
      <trkpt lat="46.11557" lon="5.82421">
        <ele>361.8</ele>
      </trkpt>
      <trkpt lat="46.1156" lon="5.8242">
        <ele>361.7</ele>
      </trkpt>
      <trkpt lat="46.11577" lon="5.82412">
        <ele>361.5</ele>
      </trkpt>
      <trkpt lat="46.11614" lon="5.82406">
        <ele>362</ele>
      </trkpt>
      <trkpt lat="46.11658" lon="5.82405">
        <ele>362.3</ele>
      </trkpt>
      <trkpt lat="46.11711" lon="5.82408">
        <ele>360.6</ele>
      </trkpt>
      <trkpt lat="46.11741" lon="5.82432">
        <ele>360.7</ele>
      </trkpt>
      <trkpt lat="46.11764" lon="5.82474">
        <ele>368</ele>
      </trkpt>
      <trkpt lat="46.11786" lon="5.82528">
        <ele>372.2</ele>
      </trkpt>
      <trkpt lat="46.11804" lon="5.82563">
        <ele>374.1</ele>
      </trkpt>
      <trkpt lat="46.11818" lon="5.82587">
        <ele>375</ele>
      </trkpt>
      <trkpt lat="46.1183" lon="5.82601">
        <ele>375.5</ele>
      </trkpt>
      <trkpt lat="46.11856" lon="5.82629">
        <ele>377.2</ele>
      </trkpt>
      <trkpt lat="46.11874" lon="5.82649">
        <ele>378.7</ele>
      </trkpt>
      <trkpt lat="46.11899" lon="5.82662">
        <ele>376.6</ele>
      </trkpt>
      <trkpt lat="46.11918" lon="5.82665">
        <ele>373.3</ele>
      </trkpt>
      <trkpt lat="46.11936" lon="5.82663">
        <ele>371.1</ele>
      </trkpt>
      <trkpt lat="46.11968" lon="5.8265">
        <ele>364.8</ele>
      </trkpt>
      <trkpt lat="46.11975" lon="5.82638">
        <ele>361.2</ele>
      </trkpt>
      <trkpt lat="46.11992" lon="5.82605">
        <ele>351.7</ele>
      </trkpt>
      <trkpt lat="46.11995" lon="5.82601">
        <ele>350.5</ele>
      </trkpt>
      <trkpt lat="46.11993" lon="5.82598">
        <ele>349.9</ele>
      </trkpt>
      <trkpt lat="46.11994" lon="5.82596">
        <ele>349.3</ele>
      </trkpt>
      <trkpt lat="46.11996" lon="5.82592">
        <ele>348.3</ele>
      </trkpt>
      <trkpt lat="46.11998" lon="5.8259">
        <ele>347.8</ele>
      </trkpt>
      <trkpt lat="46.12001" lon="5.82584">
        <ele>346.4</ele>
      </trkpt>
      <trkpt lat="46.12009" lon="5.82593">
        <ele>349.3</ele>
      </trkpt>
      <trkpt lat="46.12021" lon="5.82566">
        <ele>349.6</ele>
      </trkpt>
      <trkpt lat="46.12023" lon="5.82563">
        <ele>350</ele>
      </trkpt>
      <trkpt lat="46.12025" lon="5.82561">
        <ele>350.3</ele>
      </trkpt>
      <trkpt lat="46.12028" lon="5.82559">
        <ele>350.7</ele>
      </trkpt>
      <trkpt lat="46.12032" lon="5.82558">
        <ele>351</ele>
      </trkpt>
      <trkpt lat="46.12036" lon="5.82558">
        <ele>351.3</ele>
      </trkpt>
      <trkpt lat="46.1204" lon="5.82562">
        <ele>351.5</ele>
      </trkpt>
      <trkpt lat="46.12044" lon="5.82567">
        <ele>351.8</ele>
      </trkpt>
      <trkpt lat="46.12053" lon="5.8255">
        <ele>352.7</ele>
      </trkpt>
      <trkpt lat="46.12062" lon="5.8252">
        <ele>353.3</ele>
      </trkpt>
      <trkpt lat="46.12063" lon="5.82517">
        <ele>353.3</ele>
      </trkpt>
      <trkpt lat="46.12078" lon="5.82494">
        <ele>353.7</ele>
      </trkpt>
      <trkpt lat="46.12083" lon="5.82486">
        <ele>354.2</ele>
      </trkpt>
      <trkpt lat="46.12087" lon="5.82478">
        <ele>356.2</ele>
      </trkpt>
      <trkpt lat="46.12093" lon="5.82455">
        <ele>360.2</ele>
      </trkpt>
      <trkpt lat="46.12099" lon="5.82408">
        <ele>366.5</ele>
      </trkpt>
      <trkpt lat="46.12102" lon="5.82368">
        <ele>371.4</ele>
      </trkpt>
      <trkpt lat="46.12102" lon="5.82325">
        <ele>375.2</ele>
      </trkpt>
      <trkpt lat="46.12102" lon="5.82257">
        <ele>377.3</ele>
      </trkpt>
      <trkpt lat="46.12101" lon="5.8219">
        <ele>377.7</ele>
      </trkpt>
      <trkpt lat="46.1211" lon="5.82129">
        <ele>378.3</ele>
      </trkpt>
      <trkpt lat="46.12125" lon="5.8211">
        <ele>375.6</ele>
      </trkpt>
      <trkpt lat="46.12142" lon="5.82103">
        <ele>371.6</ele>
      </trkpt>
      <trkpt lat="46.12172" lon="5.82104">
        <ele>367.1</ele>
      </trkpt>
      <trkpt lat="46.12209" lon="5.82107">
        <ele>370.8</ele>
      </trkpt>
      <trkpt lat="46.12257" lon="5.82115">
        <ele>377.2</ele>
      </trkpt>
      <trkpt lat="46.12308" lon="5.82133">
        <ele>380.3</ele>
      </trkpt>
      <trkpt lat="46.12333" lon="5.8214">
        <ele>379.8</ele>
      </trkpt>
      <trkpt lat="46.12377" lon="5.8219">
        <ele>386.5</ele>
      </trkpt>
      <trkpt lat="46.12376" lon="5.82205">
        <ele>391.1</ele>
      </trkpt>
      <trkpt lat="46.12362" lon="5.82205">
        <ele>392.9</ele>
      </trkpt>
      <trkpt lat="46.12354" lon="5.82209">
        <ele>395.4</ele>
      </trkpt>
      <trkpt lat="46.12358" lon="5.82222">
        <ele>398.7</ele>
      </trkpt>
      <trkpt lat="46.12361" lon="5.82233">
        <ele>401.8</ele>
      </trkpt>
      <trkpt lat="46.12356" lon="5.82243">
        <ele>405.5</ele>
      </trkpt>
      <trkpt lat="46.1235" lon="5.82244">
        <ele>406.9</ele>
      </trkpt>
      <trkpt lat="46.12236" lon="5.82211">
        <ele>405.6</ele>
      </trkpt>
      <trkpt lat="46.12232" lon="5.82217">
        <ele>406</ele>
      </trkpt>
      <trkpt lat="46.12275" lon="5.82282">
        <ele>419.7</ele>
      </trkpt>
      <trkpt lat="46.12281" lon="5.8231">
        <ele>422.7</ele>
      </trkpt>
      <trkpt lat="46.12282" lon="5.82339">
        <ele>425.9</ele>
      </trkpt>
      <trkpt lat="46.12292" lon="5.82354">
        <ele>429</ele>
      </trkpt>
      <trkpt lat="46.12329" lon="5.82356">
        <ele>436.5</ele>
      </trkpt>
      <trkpt lat="46.12337" lon="5.82369">
        <ele>439.1</ele>
      </trkpt>
      <trkpt lat="46.12338" lon="5.8241">
        <ele>445.7</ele>
      </trkpt>
      <trkpt lat="46.12366" lon="5.82465">
        <ele>445.1</ele>
      </trkpt>
      <trkpt lat="46.12389" lon="5.82486">
        <ele>447.8</ele>
      </trkpt>
      <trkpt lat="46.12455" lon="5.82507">
        <ele>456.5</ele>
      </trkpt>
      <trkpt lat="46.12464" lon="5.82499">
        <ele>456.1</ele>
      </trkpt>
      <trkpt lat="46.12493" lon="5.82499">
        <ele>458.1</ele>
      </trkpt>
      <trkpt lat="46.1253" lon="5.8252">
        <ele>462.2</ele>
      </trkpt>
      <trkpt lat="46.12557" lon="5.82524">
        <ele>462.6</ele>
      </trkpt>
      <trkpt lat="46.12573" lon="5.82527">
        <ele>462.9</ele>
      </trkpt>
      <trkpt lat="46.1257" lon="5.82541">
        <ele>466.4</ele>
      </trkpt>
      <trkpt lat="46.12551" lon="5.82559">
        <ele>470.7</ele>
      </trkpt>
      <trkpt lat="46.12495" lon="5.82578">
        <ele>472.8</ele>
      </trkpt>
      <trkpt lat="46.12482" lon="5.82595">
        <ele>470.5</ele>
      </trkpt>
      <trkpt lat="46.12487" lon="5.82611">
        <ele>471.4</ele>
      </trkpt>
      <trkpt lat="46.12495" lon="5.82631">
        <ele>473.3</ele>
      </trkpt>
      <trkpt lat="46.12508" lon="5.82665">
        <ele>475.7</ele>
      </trkpt>
      <trkpt lat="46.1251" lon="5.82672">
        <ele>475.8</ele>
      </trkpt>
      <trkpt lat="46.12515" lon="5.82685">
        <ele>476.3</ele>
      </trkpt>
      <trkpt lat="46.12524" lon="5.82691">
        <ele>477.2</ele>
      </trkpt>
      <trkpt lat="46.12546" lon="5.82764">
        <ele>481.4</ele>
      </trkpt>
      <trkpt lat="46.12547" lon="5.8277">
        <ele>482.1</ele>
      </trkpt>
      <trkpt lat="46.12549" lon="5.82777">
        <ele>482.8</ele>
      </trkpt>
      <trkpt lat="46.12547" lon="5.82781">
        <ele>482.6</ele>
      </trkpt>
      <trkpt lat="46.12545" lon="5.82787">
        <ele>482.8</ele>
      </trkpt>
      <trkpt lat="46.1254" lon="5.8284">
        <ele>484.9</ele>
      </trkpt>
      <trkpt lat="46.1254" lon="5.82845">
        <ele>485</ele>
      </trkpt>
      <trkpt lat="46.1254" lon="5.82854">
        <ele>485.4</ele>
      </trkpt>
      <trkpt lat="46.12541" lon="5.8287">
        <ele>486.1</ele>
      </trkpt>
      <trkpt lat="46.12541" lon="5.82873">
        <ele>486.3</ele>
      </trkpt>
      <trkpt lat="46.12544" lon="5.82877">
        <ele>487</ele>
      </trkpt>
      <trkpt lat="46.12541" lon="5.82885">
        <ele>486.7</ele>
      </trkpt>
      <trkpt lat="46.12539" lon="5.82893">
        <ele>486.5</ele>
      </trkpt>
      <trkpt lat="46.12536" lon="5.82905">
        <ele>486.4</ele>
      </trkpt>
      <trkpt lat="46.12535" lon="5.82917">
        <ele>486.5</ele>
      </trkpt>
      <trkpt lat="46.12535" lon="5.8293">
        <ele>486.2</ele>
      </trkpt>
      <trkpt lat="46.12536" lon="5.82941">
        <ele>486.1</ele>
      </trkpt>
      <trkpt lat="46.12538" lon="5.82954">
        <ele>486.3</ele>
      </trkpt>
      <trkpt lat="46.12545" lon="5.82983">
        <ele>487</ele>
      </trkpt>
      <trkpt lat="46.12547" lon="5.82992">
        <ele>487.3</ele>
      </trkpt>
      <trkpt lat="46.12549" lon="5.83">
        <ele>487.3</ele>
      </trkpt>
      <trkpt lat="46.12549" lon="5.83011">
        <ele>487.2</ele>
      </trkpt>
      <trkpt lat="46.12548" lon="5.83025">
        <ele>486.7</ele>
      </trkpt>
      <trkpt lat="46.12546" lon="5.83035">
        <ele>486.1</ele>
      </trkpt>
      <trkpt lat="46.12543" lon="5.83045">
        <ele>485.5</ele>
      </trkpt>
      <trkpt lat="46.12528" lon="5.83086">
        <ele>482.6</ele>
      </trkpt>
      <trkpt lat="46.12526" lon="5.83097">
        <ele>482.2</ele>
      </trkpt>
      <trkpt lat="46.12525" lon="5.83108">
        <ele>481.9</ele>
      </trkpt>
      <trkpt lat="46.12526" lon="5.8314">
        <ele>481.6</ele>
      </trkpt>
      <trkpt lat="46.12526" lon="5.8315">
        <ele>481.4</ele>
      </trkpt>
      <trkpt lat="46.12526" lon="5.83177">
        <ele>480.7</ele>
      </trkpt>
      <trkpt lat="46.12527" lon="5.83184">
        <ele>480.5</ele>
      </trkpt>
      <trkpt lat="46.12528" lon="5.83201">
        <ele>479.9</ele>
      </trkpt>
      <trkpt lat="46.1253" lon="5.83207">
        <ele>479.7</ele>
      </trkpt>
      <trkpt lat="46.12534" lon="5.83223">
        <ele>479.4</ele>
      </trkpt>
      <trkpt lat="46.12535" lon="5.83234">
        <ele>479.1</ele>
      </trkpt>
      <trkpt lat="46.12536" lon="5.8324">
        <ele>478.9</ele>
      </trkpt>
      <trkpt lat="46.12536" lon="5.83247">
        <ele>478.6</ele>
      </trkpt>
      <trkpt lat="46.12536" lon="5.83253">
        <ele>478.6</ele>
      </trkpt>
      <trkpt lat="46.12534" lon="5.83259">
        <ele>478.9</ele>
      </trkpt>
      <trkpt lat="46.12532" lon="5.83266">
        <ele>479.1</ele>
      </trkpt>
      <trkpt lat="46.12503" lon="5.83315">
        <ele>479.2</ele>
      </trkpt>
      <trkpt lat="46.12499" lon="5.83322">
        <ele>479.3</ele>
      </trkpt>
      <trkpt lat="46.12496" lon="5.8333">
        <ele>479.7</ele>
      </trkpt>
      <trkpt lat="46.12495" lon="5.83334">
        <ele>479.9</ele>
      </trkpt>
      <trkpt lat="46.12482" lon="5.83386">
        <ele>482.2</ele>
      </trkpt>
      <trkpt lat="46.12481" lon="5.83396">
        <ele>482.7</ele>
      </trkpt>
      <trkpt lat="46.1248" lon="5.834">
        <ele>482.9</ele>
      </trkpt>
      <trkpt lat="46.1248" lon="5.83406">
        <ele>483.2</ele>
      </trkpt>
      <trkpt lat="46.1248" lon="5.83407">
        <ele>483.3</ele>
      </trkpt>
      <trkpt lat="46.1248" lon="5.83409">
        <ele>483.4</ele>
      </trkpt>
      <trkpt lat="46.12478" lon="5.83463">
        <ele>484.1</ele>
      </trkpt>
      <trkpt lat="46.12477" lon="5.83477">
        <ele>484.2</ele>
      </trkpt>
      <trkpt lat="46.12476" lon="5.83481">
        <ele>484.2</ele>
      </trkpt>
      <trkpt lat="46.12466" lon="5.83496">
        <ele>484.1</ele>
      </trkpt>
      <trkpt lat="46.12465" lon="5.83493">
        <ele>484.1</ele>
      </trkpt>
      <trkpt lat="46.12465" lon="5.8349">
        <ele>484</ele>
      </trkpt>
      <trkpt lat="46.12465" lon="5.83487">
        <ele>484</ele>
      </trkpt>
      <trkpt lat="46.12466" lon="5.83484">
        <ele>483.9</ele>
      </trkpt>
      <trkpt lat="46.12467" lon="5.83481">
        <ele>483.9</ele>
      </trkpt>
      <trkpt lat="46.12469" lon="5.8348">
        <ele>484</ele>
      </trkpt>
      <trkpt lat="46.12471" lon="5.83479">
        <ele>484</ele>
      </trkpt>
      <trkpt lat="46.12474" lon="5.83479">
        <ele>484.1</ele>
      </trkpt>
      <trkpt lat="46.12476" lon="5.83481">
        <ele>484.2</ele>
      </trkpt>
      <trkpt lat="46.12477" lon="5.83483">
        <ele>484.3</ele>
      </trkpt>
      <trkpt lat="46.12478" lon="5.83486">
        <ele>484.3</ele>
      </trkpt>
      <trkpt lat="46.12479" lon="5.83489">
        <ele>484.4</ele>
      </trkpt>
      <trkpt lat="46.12479" lon="5.83492">
        <ele>484.4</ele>
      </trkpt>
      <trkpt lat="46.12478" lon="5.83495">
        <ele>484.4</ele>
      </trkpt>
      <trkpt lat="46.12476" lon="5.83497">
        <ele>484.4</ele>
      </trkpt>
      <trkpt lat="46.12474" lon="5.83499">
        <ele>484.4</ele>
      </trkpt>
      <trkpt lat="46.12472" lon="5.83499">
        <ele>484.3</ele>
      </trkpt>
      <trkpt lat="46.1247" lon="5.83499">
        <ele>484.3</ele>
      </trkpt>
      <trkpt lat="46.12468" lon="5.83498">
        <ele>484.2</ele>
      </trkpt>
      <trkpt lat="46.12466" lon="5.83496">
        <ele>484.1</ele>
      </trkpt>
      <trkpt lat="46.12476" lon="5.83497">
        <ele>484.4</ele>
      </trkpt>
      <trkpt lat="46.12479" lon="5.83501">
        <ele>484.6</ele>
      </trkpt>
      <trkpt lat="46.12481" lon="5.83508">
        <ele>485.1</ele>
      </trkpt>
      <trkpt lat="46.12483" lon="5.83514">
        <ele>485.6</ele>
      </trkpt>
      <trkpt lat="46.12484" lon="5.83523">
        <ele>486.3</ele>
      </trkpt>
      <trkpt lat="46.12484" lon="5.83527">
        <ele>486.5</ele>
      </trkpt>
      <trkpt lat="46.12481" lon="5.8353">
        <ele>486.7</ele>
      </trkpt>
      <trkpt lat="46.12473" lon="5.83537">
        <ele>486.8</ele>
      </trkpt>
      <trkpt lat="46.12458" lon="5.8355">
        <ele>486.7</ele>
      </trkpt>
      <trkpt lat="46.12453" lon="5.83554">
        <ele>486.6</ele>
      </trkpt>
      <trkpt lat="46.12444" lon="5.83561">
        <ele>486.3</ele>
      </trkpt>
      <trkpt lat="46.12437" lon="5.83567">
        <ele>486</ele>
      </trkpt>
      <trkpt lat="46.12431" lon="5.8357">
        <ele>485.8</ele>
      </trkpt>
      <trkpt lat="46.12424" lon="5.83574">
        <ele>485.3</ele>
      </trkpt>
      <trkpt lat="46.12417" lon="5.83579">
        <ele>484.9</ele>
      </trkpt>
      <trkpt lat="46.124" lon="5.83589">
        <ele>486.7</ele>
      </trkpt>
      <trkpt lat="46.12377" lon="5.83592">
        <ele>488.6</ele>
      </trkpt>
      <trkpt lat="46.12333" lon="5.83593">
        <ele>491.6</ele>
      </trkpt>
      <trkpt lat="46.12326" lon="5.8359">
        <ele>493</ele>
      </trkpt>
      <trkpt lat="46.12324" lon="5.83588">
        <ele>493.3</ele>
      </trkpt>
      <trkpt lat="46.12322" lon="5.83593">
        <ele>493.9</ele>
      </trkpt>
      <trkpt lat="46.1232" lon="5.83599">
        <ele>494.7</ele>
      </trkpt>
      <trkpt lat="46.1232" lon="5.83611">
        <ele>495.5</ele>
      </trkpt>
      <trkpt lat="46.12321" lon="5.83619">
        <ele>495.6</ele>
      </trkpt>
      <trkpt lat="46.12323" lon="5.83621">
        <ele>495.4</ele>
      </trkpt>
      <trkpt lat="46.12327" lon="5.83625">
        <ele>494.8</ele>
      </trkpt>
      <trkpt lat="46.12329" lon="5.83628">
        <ele>494.5</ele>
      </trkpt>
      <trkpt lat="46.12331" lon="5.83636">
        <ele>494.6</ele>
      </trkpt>
      <trkpt lat="46.12334" lon="5.83657">
        <ele>495.4</ele>
      </trkpt>
      <trkpt lat="46.12333" lon="5.83662">
        <ele>495.8</ele>
      </trkpt>
      <trkpt lat="46.12332" lon="5.83666">
        <ele>496.2</ele>
      </trkpt>
      <trkpt lat="46.12328" lon="5.83671">
        <ele>497.3</ele>
      </trkpt>
      <trkpt lat="46.12317" lon="5.83685">
        <ele>500.2</ele>
      </trkpt>
      <trkpt lat="46.12312" lon="5.83697">
        <ele>501.9</ele>
      </trkpt>
      <trkpt lat="46.12309" lon="5.83714">
        <ele>503.6</ele>
      </trkpt>
      <trkpt lat="46.12309" lon="5.83735">
        <ele>505.1</ele>
      </trkpt>
      <trkpt lat="46.12308" lon="5.83762">
        <ele>507.5</ele>
      </trkpt>
      <trkpt lat="46.12307" lon="5.83772">
        <ele>508.7</ele>
      </trkpt>
      <trkpt lat="46.12306" lon="5.83775">
        <ele>509.2</ele>
      </trkpt>
      <trkpt lat="46.12303" lon="5.83795">
        <ele>511.7</ele>
      </trkpt>
      <trkpt lat="46.12303" lon="5.83821">
        <ele>514.1</ele>
      </trkpt>
      <trkpt lat="46.12304" lon="5.83841">
        <ele>516.4</ele>
      </trkpt>
      <trkpt lat="46.12308" lon="5.83858">
        <ele>518.7</ele>
      </trkpt>
      <trkpt lat="46.12311" lon="5.83864">
        <ele>519.3</ele>
      </trkpt>
      <trkpt lat="46.12313" lon="5.83866">
        <ele>519.2</ele>
      </trkpt>
      <trkpt lat="46.12312" lon="5.83874">
        <ele>520.9</ele>
      </trkpt>
      <trkpt lat="46.12314" lon="5.83881">
        <ele>521.9</ele>
      </trkpt>
      <trkpt lat="46.12315" lon="5.83885">
        <ele>522.4</ele>
      </trkpt>
      <trkpt lat="46.12326" lon="5.83907">
        <ele>524.6</ele>
      </trkpt>
      <trkpt lat="46.12345" lon="5.83937">
        <ele>528.6</ele>
      </trkpt>
      <trkpt lat="46.12349" lon="5.83945">
        <ele>529.8</ele>
      </trkpt>
      <trkpt lat="46.12355" lon="5.83948">
        <ele>530.1</ele>
      </trkpt>
      <trkpt lat="46.1237" lon="5.84">
        <ele>536.2</ele>
      </trkpt>
      <trkpt lat="46.12391" lon="5.84048">
        <ele>542</ele>
      </trkpt>
      <trkpt lat="46.12401" lon="5.8407">
        <ele>543.4</ele>
      </trkpt>
      <trkpt lat="46.12445" lon="5.84194">
        <ele>557.8</ele>
      </trkpt>
      <trkpt lat="46.12441" lon="5.84293">
        <ele>569.4</ele>
      </trkpt>
      <trkpt lat="46.12397" lon="5.84441">
        <ele>583.2</ele>
      </trkpt>
      <trkpt lat="46.12362" lon="5.84509">
        <ele>597.7</ele>
      </trkpt>
      <trkpt lat="46.12339" lon="5.846">
        <ele>608</ele>
      </trkpt>
      <trkpt lat="46.12343" lon="5.84698">
        <ele>618.5</ele>
      </trkpt>
      <trkpt lat="46.12333" lon="5.84793">
        <ele>628</ele>
      </trkpt>
      <trkpt lat="46.123" lon="5.84861">
        <ele>647.4</ele>
      </trkpt>
      <trkpt lat="46.12275" lon="5.84914">
        <ele>659.7</ele>
      </trkpt>
      <trkpt lat="46.12204" lon="5.84958">
        <ele>684.9</ele>
      </trkpt>
      <trkpt lat="46.12154" lon="5.84984">
        <ele>699.4</ele>
      </trkpt>
      <trkpt lat="46.12123" lon="5.84999">
        <ele>703.7</ele>
      </trkpt>
      <trkpt lat="46.12116" lon="5.84997">
        <ele>704.4</ele>
      </trkpt>
      <trkpt lat="46.12112" lon="5.84998">
        <ele>704.8</ele>
      </trkpt>
      <trkpt lat="46.12109" lon="5.85002">
        <ele>705.4</ele>
      </trkpt>
      <trkpt lat="46.12109" lon="5.85008">
        <ele>706</ele>
      </trkpt>
      <trkpt lat="46.1211" lon="5.85019">
        <ele>706.7</ele>
      </trkpt>
      <trkpt lat="46.12117" lon="5.85041">
        <ele>707.9</ele>
      </trkpt>
      <trkpt lat="46.12119" lon="5.8505">
        <ele>708.5</ele>
      </trkpt>
      <trkpt lat="46.12118" lon="5.85058">
        <ele>709.2</ele>
      </trkpt>
      <trkpt lat="46.12117" lon="5.85065">
        <ele>709.9</ele>
      </trkpt>
      <trkpt lat="46.12114" lon="5.85071">
        <ele>710.8</ele>
      </trkpt>
      <trkpt lat="46.12073" lon="5.8509">
        <ele>716.8</ele>
      </trkpt>
      <trkpt lat="46.12032" lon="5.85105">
        <ele>718.4</ele>
      </trkpt>
      <trkpt lat="46.12003" lon="5.85116">
        <ele>720</ele>
      </trkpt>
      <trkpt lat="46.11971" lon="5.85133">
        <ele>723.3</ele>
      </trkpt>
      <trkpt lat="46.11946" lon="5.85138">
        <ele>723.6</ele>
      </trkpt>
      <trkpt lat="46.11933" lon="5.85149">
        <ele>725.7</ele>
      </trkpt>
      <trkpt lat="46.11915" lon="5.85167">
        <ele>729.1</ele>
      </trkpt>
      <trkpt lat="46.11865" lon="5.85186">
        <ele>731.8</ele>
      </trkpt>
      <trkpt lat="46.11834" lon="5.85209">
        <ele>736.2</ele>
      </trkpt>
      <trkpt lat="46.11798" lon="5.8522">
        <ele>738.4</ele>
      </trkpt>
      <trkpt lat="46.11784" lon="5.85225">
        <ele>739.4</ele>
      </trkpt>
      <trkpt lat="46.11774" lon="5.85233">
        <ele>740.9</ele>
      </trkpt>
      <trkpt lat="46.11764" lon="5.85242">
        <ele>742.7</ele>
      </trkpt>
      <trkpt lat="46.11751" lon="5.85251">
        <ele>744.3</ele>
      </trkpt>
      <trkpt lat="46.11726" lon="5.85256">
        <ele>745.2</ele>
      </trkpt>
      <trkpt lat="46.11698" lon="5.85271">
        <ele>747.5</ele>
      </trkpt>
      <trkpt lat="46.11639" lon="5.85294">
        <ele>750.4</ele>
      </trkpt>
      <trkpt lat="46.11629" lon="5.85297">
        <ele>750.9</ele>
      </trkpt>
      <trkpt lat="46.11626" lon="5.85299">
        <ele>751.1</ele>
      </trkpt>
      <trkpt lat="46.11623" lon="5.85304">
        <ele>751.7</ele>
      </trkpt>
      <trkpt lat="46.11603" lon="5.85349">
        <ele>756.5</ele>
      </trkpt>
      <trkpt lat="46.1159" lon="5.8539">
        <ele>760.8</ele>
      </trkpt>
      <trkpt lat="46.1152" lon="5.85522">
        <ele>764</ele>
      </trkpt>
      <trkpt lat="46.11508" lon="5.85538">
        <ele>763.9</ele>
      </trkpt>
      <trkpt lat="46.11496" lon="5.85545">
        <ele>763.3</ele>
      </trkpt>
      <trkpt lat="46.11512" lon="5.85558">
        <ele>765.6</ele>
      </trkpt>
      <trkpt lat="46.11528" lon="5.85567">
        <ele>767.2</ele>
      </trkpt>
      <trkpt lat="46.11543" lon="5.85565">
        <ele>767.9</ele>
      </trkpt>
      <trkpt lat="46.11554" lon="5.85563">
        <ele>768.5</ele>
      </trkpt>
      <trkpt lat="46.11568" lon="5.85558">
        <ele>769.3</ele>
      </trkpt>
      <trkpt lat="46.11585" lon="5.85546">
        <ele>770.8</ele>
      </trkpt>
      <trkpt lat="46.11606" lon="5.85534">
        <ele>774.4</ele>
      </trkpt>
      <trkpt lat="46.11623" lon="5.85528">
        <ele>777.1</ele>
      </trkpt>
      <trkpt lat="46.11639" lon="5.85526">
        <ele>779.8</ele>
      </trkpt>
      <trkpt lat="46.11654" lon="5.8553">
        <ele>782.3</ele>
      </trkpt>
      <trkpt lat="46.11675" lon="5.85547">
        <ele>785.5</ele>
      </trkpt>
      <trkpt lat="46.11697" lon="5.85562">
        <ele>788.5</ele>
      </trkpt>
      <trkpt lat="46.1171" lon="5.85566">
        <ele>790.4</ele>
      </trkpt>
      <trkpt lat="46.11761" lon="5.85573">
        <ele>797.9</ele>
      </trkpt>
      <trkpt lat="46.118" lon="5.85572">
        <ele>803.7</ele>
      </trkpt>
      <trkpt lat="46.11823" lon="5.85563">
        <ele>805.8</ele>
      </trkpt>
      <trkpt lat="46.11872" lon="5.85542">
        <ele>807.1</ele>
      </trkpt>
      <trkpt lat="46.11875" lon="5.85608">
        <ele>819.3</ele>
      </trkpt>
      <trkpt lat="46.11877" lon="5.85706">
        <ele>843.1</ele>
      </trkpt>
      <trkpt lat="46.11801" lon="5.85819">
        <ele>858.6</ele>
      </trkpt>
      <trkpt lat="46.11759" lon="5.85942">
        <ele>876.2</ele>
      </trkpt>
      <trkpt lat="46.11765" lon="5.8609">
        <ele>909.4</ele>
      </trkpt>
      <trkpt lat="46.11781" lon="5.86193">
        <ele>932.9</ele>
      </trkpt>
      <trkpt lat="46.11831" lon="5.86263">
        <ele>964.3</ele>
      </trkpt>
      <trkpt lat="46.11836" lon="5.86283">
        <ele>972.2</ele>
      </trkpt>
      <trkpt lat="46.11887" lon="5.86275">
        <ele>989.5</ele>
      </trkpt>
      <trkpt lat="46.11866" lon="5.86344">
        <ele>1004.2</ele>
      </trkpt>
      <trkpt lat="46.11827" lon="5.86453">
        <ele>1028.3</ele>
      </trkpt>
      <trkpt lat="46.11794" lon="5.86537">
        <ele>1044.2</ele>
      </trkpt>
      <trkpt lat="46.11797" lon="5.8662">
        <ele>1067.5</ele>
      </trkpt>
      <trkpt lat="46.11836" lon="5.86592">
        <ele>1082.8</ele>
      </trkpt>
      <trkpt lat="46.11896" lon="5.86582">
        <ele>1103.4</ele>
      </trkpt>
      <trkpt lat="46.11945" lon="5.86581">
        <ele>1121.3</ele>
      </trkpt>
      <trkpt lat="46.12014" lon="5.86537">
        <ele>1133.9</ele>
      </trkpt>
      <trkpt lat="46.1212" lon="5.86488">
        <ele>1157</ele>
      </trkpt>
      <trkpt lat="46.12251" lon="5.8656">
        <ele>1194.9</ele>
      </trkpt>
      <trkpt lat="46.12338" lon="5.86508">
        <ele>1208.5</ele>
      </trkpt>
      <trkpt lat="46.12425" lon="5.86514">
        <ele>1226.4</ele>
      </trkpt>
      <trkpt lat="46.12449" lon="5.86496">
        <ele>1227.5</ele>
      </trkpt>
      <trkpt lat="46.12481" lon="5.86513">
        <ele>1235.2</ele>
      </trkpt>
      <trkpt lat="46.12508" lon="5.86518">
        <ele>1240.1</ele>
      </trkpt>
      <trkpt lat="46.12527" lon="5.86498">
        <ele>1239.6</ele>
      </trkpt>
      <trkpt lat="46.12536" lon="5.8649">
        <ele>1239.6</ele>
      </trkpt>
      <trkpt lat="46.12582" lon="5.86452">
        <ele>1239.1</ele>
      </trkpt>
      <trkpt lat="46.1259" lon="5.8644">
        <ele>1238.5</ele>
      </trkpt>
      <trkpt lat="46.126" lon="5.86431">
        <ele>1238.7</ele>
      </trkpt>
      <trkpt lat="46.12608" lon="5.86424">
        <ele>1239</ele>
      </trkpt>
      <trkpt lat="46.1262" lon="5.8642">
        <ele>1240.3</ele>
      </trkpt>
      <trkpt lat="46.12642" lon="5.86411">
        <ele>1242.5</ele>
      </trkpt>
      <trkpt lat="46.12669" lon="5.86397">
        <ele>1244.4</ele>
      </trkpt>
      <trkpt lat="46.12718" lon="5.86383">
        <ele>1248.6</ele>
      </trkpt>
      <trkpt lat="46.12733" lon="5.86385">
        <ele>1251.1</ele>
      </trkpt>
      <trkpt lat="46.12744" lon="5.86392">
        <ele>1254.1</ele>
      </trkpt>
      <trkpt lat="46.12758" lon="5.86403">
        <ele>1258.2</ele>
      </trkpt>
      <trkpt lat="46.12784" lon="5.86417">
        <ele>1264.2</ele>
      </trkpt>
      <trkpt lat="46.12828" lon="5.8643">
        <ele>1273.5</ele>
      </trkpt>
      <trkpt lat="46.12866" lon="5.86433">
        <ele>1282.3</ele>
      </trkpt>
      <trkpt lat="46.12877" lon="5.86451">
        <ele>1289.9</ele>
      </trkpt>
      <trkpt lat="46.12861" lon="5.86481">
        <ele>1295.4</ele>
      </trkpt>
      <trkpt lat="46.12847" lon="5.86517">
        <ele>1302.8</ele>
      </trkpt>
      <trkpt lat="46.12895" lon="5.86506">
        <ele>1309.4</ele>
      </trkpt>
      <trkpt lat="46.12925" lon="5.86491">
        <ele>1311.4</ele>
      </trkpt>
      <trkpt lat="46.12974" lon="5.86485">
        <ele>1321.3</ele>
      </trkpt>
      <trkpt lat="46.13018" lon="5.86478">
        <ele>1329.4</ele>
      </trkpt>
      <trkpt lat="46.13082" lon="5.86472">
        <ele>1340.3</ele>
      </trkpt>
      <trkpt lat="46.13146" lon="5.86466">
        <ele>1353.6</ele>
      </trkpt>
      <trkpt lat="46.13215" lon="5.86444">
        <ele>1366.1</ele>
      </trkpt>
      <trkpt lat="46.13243" lon="5.86433">
        <ele>1371</ele>
      </trkpt>
      <trkpt lat="46.1327" lon="5.86419">
        <ele>1374.2</ele>
      </trkpt>
      <trkpt lat="46.13279" lon="5.86413">
        <ele>1375.2</ele>
      </trkpt>
      <trkpt lat="46.1329" lon="5.8641">
        <ele>1377.7</ele>
      </trkpt>
      <trkpt lat="46.13347" lon="5.86403">
        <ele>1391.8</ele>
      </trkpt>
      <trkpt lat="46.13412" lon="5.86388">
        <ele>1404.1</ele>
      </trkpt>
      <trkpt lat="46.13461" lon="5.86358">
        <ele>1409.8</ele>
      </trkpt>
      <trkpt lat="46.13499" lon="5.86324">
        <ele>1413.1</ele>
      </trkpt>
      <trkpt lat="46.13514" lon="5.86307">
        <ele>1413.8</ele>
      </trkpt>
      <trkpt lat="46.13526" lon="5.86287">
        <ele>1413.2</ele>
      </trkpt>
      <trkpt lat="46.13539" lon="5.86286">
        <ele>1415.9</ele>
      </trkpt>
      <trkpt lat="46.13554" lon="5.86295">
        <ele>1420.3</ele>
      </trkpt>
      <trkpt lat="46.13558" lon="5.86296">
        <ele>1421.5</ele>
      </trkpt>
      <trkpt lat="46.13562" lon="5.86301">
        <ele>1423</ele>
      </trkpt>
      <trkpt lat="46.13567" lon="5.86314">
        <ele>1425.8</ele>
      </trkpt>
      <trkpt lat="46.13579" lon="5.86335">
        <ele>1431.6</ele>
      </trkpt>
      <trkpt lat="46.13599" lon="5.86356">
        <ele>1440.5</ele>
      </trkpt>
      <trkpt lat="46.1361" lon="5.8636">
        <ele>1443.5</ele>
      </trkpt>
      <trkpt lat="46.13622" lon="5.8638">
        <ele>1449.9</ele>
      </trkpt>
      <trkpt lat="46.13627" lon="5.86384">
        <ele>1451.7</ele>
      </trkpt>
      <trkpt lat="46.13641" lon="5.864">
        <ele>1456.8</ele>
      </trkpt>
      <trkpt lat="46.13655" lon="5.8641">
        <ele>1460.6</ele>
      </trkpt>
      <trkpt lat="46.13669" lon="5.8642">
        <ele>1464.5</ele>
      </trkpt>
      <trkpt lat="46.13679" lon="5.86427">
        <ele>1468.3</ele>
      </trkpt>
      <trkpt lat="46.1369" lon="5.86437">
        <ele>1473.1</ele>
      </trkpt>
      <trkpt lat="46.137" lon="5.86441">
        <ele>1476.1</ele>
      </trkpt>
      <trkpt lat="46.13723" lon="5.86447">
        <ele>1481.8</ele>
      </trkpt>
      <trkpt lat="46.1374" lon="5.86451">
        <ele>1485.8</ele>
      </trkpt>
      <trkpt lat="46.13761" lon="5.86443">
        <ele>1487</ele>
      </trkpt>
      <trkpt lat="46.13778" lon="5.86435">
        <ele>1487.5</ele>
      </trkpt>
      <trkpt lat="46.13804" lon="5.8644">
        <ele>1491.7</ele>
      </trkpt>
      <trkpt lat="46.13812" lon="5.86451">
        <ele>1494</ele>
      </trkpt>
      <trkpt lat="46.13852" lon="5.86489">
        <ele>1501.5</ele>
      </trkpt>
      <trkpt lat="46.13889" lon="5.86514">
        <ele>1507.2</ele>
      </trkpt>
      <trkpt lat="46.13898" lon="5.8652">
        <ele>1508.6</ele>
      </trkpt>
      <trkpt lat="46.13906" lon="5.86523">
        <ele>1509.3</ele>
      </trkpt>
      <trkpt lat="46.13917" lon="5.86522">
        <ele>1509.7</ele>
      </trkpt>
      <trkpt lat="46.13928" lon="5.86531">
        <ele>1510.9</ele>
      </trkpt>
      <trkpt lat="46.13935" lon="5.86533">
        <ele>1511.3</ele>
      </trkpt>
      <trkpt lat="46.13942" lon="5.86541">
        <ele>1512.3</ele>
      </trkpt>
      <trkpt lat="46.13956" lon="5.8655">
        <ele>1513.2</ele>
      </trkpt>
      <trkpt lat="46.13969" lon="5.86556">
        <ele>1513.9</ele>
      </trkpt>
      <trkpt lat="46.13977" lon="5.86563">
        <ele>1514.5</ele>
      </trkpt>
      <trkpt lat="46.13985" lon="5.86566">
        <ele>1514.8</ele>
      </trkpt>
      <trkpt lat="46.13994" lon="5.86567">
        <ele>1514.8</ele>
      </trkpt>
      <trkpt lat="46.14003" lon="5.86566">
        <ele>1514.7</ele>
      </trkpt>
      <trkpt lat="46.14011" lon="5.86564">
        <ele>1514.3</ele>
      </trkpt>
      <trkpt lat="46.1402" lon="5.8656">
        <ele>1513.8</ele>
      </trkpt>
      <trkpt lat="46.14037" lon="5.8656">
        <ele>1513.4</ele>
      </trkpt>
      <trkpt lat="46.14048" lon="5.86567">
        <ele>1513.7</ele>
      </trkpt>
      <trkpt lat="46.14058" lon="5.86575">
        <ele>1514</ele>
      </trkpt>
      <trkpt lat="46.14064" lon="5.86581">
        <ele>1514.3</ele>
      </trkpt>
      <trkpt lat="46.14092" lon="5.86605">
        <ele>1514.2</ele>
      </trkpt>
      <trkpt lat="46.14123" lon="5.8663">
        <ele>1513.1</ele>
      </trkpt>
      <trkpt lat="46.1414" lon="5.8665">
        <ele>1513.3</ele>
      </trkpt>
      <trkpt lat="46.14149" lon="5.8667">
        <ele>1514.4</ele>
      </trkpt>
      <trkpt lat="46.14162" lon="5.86687">
        <ele>1515.3</ele>
      </trkpt>
      <trkpt lat="46.14167" lon="5.86699">
        <ele>1516.1</ele>
      </trkpt>
      <trkpt lat="46.14174" lon="5.86705">
        <ele>1517.2</ele>
      </trkpt>
      <trkpt lat="46.14182" lon="5.86709">
        <ele>1518.3</ele>
      </trkpt>
      <trkpt lat="46.14235" lon="5.86743">
        <ele>1526.1</ele>
      </trkpt>
      <trkpt lat="46.14268" lon="5.86746">
        <ele>1529.4</ele>
      </trkpt>
      <trkpt lat="46.14287" lon="5.86742">
        <ele>1530.9</ele>
      </trkpt>
      <trkpt lat="46.14294" lon="5.86737">
        <ele>1531.2</ele>
      </trkpt>
      <trkpt lat="46.14311" lon="5.86743">
        <ele>1533.4</ele>
      </trkpt>
      <trkpt lat="46.14325" lon="5.86746">
        <ele>1535</ele>
      </trkpt>
      <trkpt lat="46.14336" lon="5.86744">
        <ele>1535.9</ele>
      </trkpt>
      <trkpt lat="46.14363" lon="5.86753">
        <ele>1538.7</ele>
      </trkpt>
      <trkpt lat="46.14387" lon="5.86764">
        <ele>1540.9</ele>
      </trkpt>
      <trkpt lat="46.14407" lon="5.86767">
        <ele>1542.3</ele>
      </trkpt>
      <trkpt lat="46.14424" lon="5.86773">
        <ele>1543.9</ele>
      </trkpt>
      <trkpt lat="46.14438" lon="5.86781">
        <ele>1545.2</ele>
      </trkpt>
      <trkpt lat="46.1445" lon="5.86792">
        <ele>1545.8</ele>
      </trkpt>
      <trkpt lat="46.14458" lon="5.86796">
        <ele>1546.1</ele>
      </trkpt>
      <trkpt lat="46.14477" lon="5.86796">
        <ele>1547.5</ele>
      </trkpt>
      <trkpt lat="46.14486" lon="5.86804">
        <ele>1547.1</ele>
      </trkpt>
      <trkpt lat="46.14498" lon="5.86809">
        <ele>1547</ele>
      </trkpt>
      <trkpt lat="46.14506" lon="5.86813">
        <ele>1546.6</ele>
      </trkpt>
      <trkpt lat="46.1452" lon="5.86822">
        <ele>1545.2</ele>
      </trkpt>
      <trkpt lat="46.14536" lon="5.86838">
        <ele>1543.2</ele>
      </trkpt>
      <trkpt lat="46.14552" lon="5.86845">
        <ele>1542.7</ele>
      </trkpt>
      <trkpt lat="46.14556" lon="5.86847">
        <ele>1542.6</ele>
      </trkpt>
      <trkpt lat="46.14576" lon="5.86838">
        <ele>1543.4</ele>
      </trkpt>
      <trkpt lat="46.14582" lon="5.8684">
        <ele>1543.2</ele>
      </trkpt>
      <trkpt lat="46.14591" lon="5.86838">
        <ele>1542.9</ele>
      </trkpt>
      <trkpt lat="46.14601" lon="5.86832">
        <ele>1543.3</ele>
      </trkpt>
      <trkpt lat="46.14617" lon="5.86823">
        <ele>1544.5</ele>
      </trkpt>
      <trkpt lat="46.14628" lon="5.86815">
        <ele>1545.8</ele>
      </trkpt>
      <trkpt lat="46.14642" lon="5.86813">
        <ele>1545.7</ele>
      </trkpt>
      <trkpt lat="46.14662" lon="5.86816">
        <ele>1544.1</ele>
      </trkpt>
      <trkpt lat="46.14677" lon="5.86817">
        <ele>1543.2</ele>
      </trkpt>
      <trkpt lat="46.14682" lon="5.86817">
        <ele>1543.1</ele>
      </trkpt>
      <trkpt lat="46.14697" lon="5.86815">
        <ele>1543.3</ele>
      </trkpt>
      <trkpt lat="46.14705" lon="5.86814">
        <ele>1543.3</ele>
      </trkpt>
      <trkpt lat="46.14713" lon="5.86816">
        <ele>1542.6</ele>
      </trkpt>
      <trkpt lat="46.14721" lon="5.86816">
        <ele>1542.4</ele>
      </trkpt>
      <trkpt lat="46.14727" lon="5.86822">
        <ele>1541.2</ele>
      </trkpt>
      <trkpt lat="46.14734" lon="5.86823">
        <ele>1540.8</ele>
      </trkpt>
      <trkpt lat="46.14742" lon="5.86824">
        <ele>1540.5</ele>
      </trkpt>
      <trkpt lat="46.14745" lon="5.86821">
        <ele>1541</ele>
      </trkpt>
      <trkpt lat="46.14748" lon="5.86822">
        <ele>1540.8</ele>
      </trkpt>
      <trkpt lat="46.14758" lon="5.86815">
        <ele>1541.6</ele>
      </trkpt>
      <trkpt lat="46.14774" lon="5.86806">
        <ele>1542.2</ele>
      </trkpt>
      <trkpt lat="46.14798" lon="5.86791">
        <ele>1542.4</ele>
      </trkpt>
      <trkpt lat="46.14803" lon="5.86782">
        <ele>1542.8</ele>
      </trkpt>
      <trkpt lat="46.14814" lon="5.86769">
        <ele>1542.9</ele>
      </trkpt>
      <trkpt lat="46.14823" lon="5.86752">
        <ele>1543.2</ele>
      </trkpt>
      <trkpt lat="46.14831" lon="5.86729">
        <ele>1543.4</ele>
      </trkpt>
      <trkpt lat="46.1484" lon="5.86704">
        <ele>1543.4</ele>
      </trkpt>
      <trkpt lat="46.14848" lon="5.8668">
        <ele>1543.7</ele>
      </trkpt>
      <trkpt lat="46.14862" lon="5.86654">
        <ele>1543.7</ele>
      </trkpt>
      <trkpt lat="46.14866" lon="5.86651">
        <ele>1543.5</ele>
      </trkpt>
      <trkpt lat="46.14875" lon="5.8664">
        <ele>1543.9</ele>
      </trkpt>
      <trkpt lat="46.14881" lon="5.86632">
        <ele>1544.4</ele>
      </trkpt>
      <trkpt lat="46.14902" lon="5.86578">
        <ele>1551.8</ele>
      </trkpt>
      <trkpt lat="46.14918" lon="5.86506">
        <ele>1566.2</ele>
      </trkpt>
      <trkpt lat="46.14921" lon="5.865">
        <ele>1567.7</ele>
      </trkpt>
      <trkpt lat="46.14921" lon="5.86492">
        <ele>1568.2</ele>
      </trkpt>
      <trkpt lat="46.14926" lon="5.8649">
        <ele>1569.1</ele>
      </trkpt>
      <trkpt lat="46.14939" lon="5.86488">
        <ele>1571.6</ele>
      </trkpt>
      <trkpt lat="46.14938" lon="5.8648">
        <ele>1572.2</ele>
      </trkpt>
      <trkpt lat="46.14934" lon="5.86462">
        <ele>1573</ele>
      </trkpt>
      <trkpt lat="46.14945" lon="5.86454">
        <ele>1576.2</ele>
      </trkpt>
      <trkpt lat="46.14956" lon="5.8645">
        <ele>1579.4</ele>
      </trkpt>
      <trkpt lat="46.14963" lon="5.86431">
        <ele>1583.9</ele>
      </trkpt>
      <trkpt lat="46.14976" lon="5.86416">
        <ele>1590.1</ele>
      </trkpt>
      <trkpt lat="46.14986" lon="5.86405">
        <ele>1593.2</ele>
      </trkpt>
      <trkpt lat="46.14996" lon="5.86397">
        <ele>1596.3</ele>
      </trkpt>
      <trkpt lat="46.1501" lon="5.86386">
        <ele>1598.8</ele>
      </trkpt>
      <trkpt lat="46.15017" lon="5.86383">
        <ele>1599.6</ele>
      </trkpt>
      <trkpt lat="46.15023" lon="5.86378">
        <ele>1600.2</ele>
      </trkpt>
      <trkpt lat="46.15024" lon="5.86379">
        <ele>1600.3</ele>
      </trkpt>
      <trkpt lat="46.15023" lon="5.86383">
        <ele>1600.2</ele>
      </trkpt>
      <trkpt lat="46.15024" lon="5.86389">
        <ele>1600.3</ele>
      </trkpt>
      <trkpt lat="46.15026" lon="5.86393">
        <ele>1600.6</ele>
      </trkpt>
      <trkpt lat="46.15029" lon="5.86389">
        <ele>1600.9</ele>
      </trkpt>
      <trkpt lat="46.15033" lon="5.86385">
        <ele>1601.3</ele>
      </trkpt>
      <trkpt lat="46.15039" lon="5.8638">
        <ele>1602</ele>
      </trkpt>
      <trkpt lat="46.15048" lon="5.86377">
        <ele>1602.9</ele>
      </trkpt>
      <trkpt lat="46.1505" lon="5.8638">
        <ele>1603.3</ele>
      </trkpt>
      <trkpt lat="46.15051" lon="5.86378">
        <ele>1603.4</ele>
      </trkpt>
      <trkpt lat="46.15051" lon="5.86373">
        <ele>1603.3</ele>
      </trkpt>
      <trkpt lat="46.15056" lon="5.86372">
        <ele>1603.9</ele>
      </trkpt>
      <trkpt lat="46.15069" lon="5.86372">
        <ele>1605.4</ele>
      </trkpt>
      <trkpt lat="46.15086" lon="5.86368">
        <ele>1606.8</ele>
      </trkpt>
      <trkpt lat="46.15106" lon="5.86365">
        <ele>1605.7</ele>
      </trkpt>
      <trkpt lat="46.15123" lon="5.86363">
        <ele>1604.7</ele>
      </trkpt>
      <trkpt lat="46.15134" lon="5.86362">
        <ele>1604.1</ele>
      </trkpt>
      <trkpt lat="46.1515" lon="5.86362">
        <ele>1603.3</ele>
      </trkpt>
      <trkpt lat="46.15175" lon="5.86361">
        <ele>1600.2</ele>
      </trkpt>
      <trkpt lat="46.15179" lon="5.8636">
        <ele>1599.2</ele>
      </trkpt>
      <trkpt lat="46.15184" lon="5.86359">
        <ele>1598.1</ele>
      </trkpt>
      <trkpt lat="46.15187" lon="5.86359">
        <ele>1597.3</ele>
      </trkpt>
      <trkpt lat="46.15188" lon="5.86362">
        <ele>1596.8</ele>
      </trkpt>
      <trkpt lat="46.1519" lon="5.86363">
        <ele>1596.1</ele>
      </trkpt>
      <trkpt lat="46.15192" lon="5.86366">
        <ele>1595.5</ele>
      </trkpt>
      <trkpt lat="46.15193" lon="5.86366">
        <ele>1595.2</ele>
      </trkpt>
      <trkpt lat="46.15196" lon="5.86365">
        <ele>1594.7</ele>
      </trkpt>
      <trkpt lat="46.15199" lon="5.86363">
        <ele>1593.8</ele>
      </trkpt>
      <trkpt lat="46.15203" lon="5.86362">
        <ele>1593</ele>
      </trkpt>
      <trkpt lat="46.15208" lon="5.86363">
        <ele>1591.7</ele>
      </trkpt>
      <trkpt lat="46.15215" lon="5.86361">
        <ele>1590</ele>
      </trkpt>
      <trkpt lat="46.15223" lon="5.86356">
        <ele>1588.5</ele>
      </trkpt>
      <trkpt lat="46.15227" lon="5.86351">
        <ele>1587.8</ele>
      </trkpt>
      <trkpt lat="46.15233" lon="5.86349">
        <ele>1586.6</ele>
      </trkpt>
      <trkpt lat="46.1524" lon="5.86346">
        <ele>1585.2</ele>
      </trkpt>
      <trkpt lat="46.15247" lon="5.86344">
        <ele>1583.6</ele>
      </trkpt>
      <trkpt lat="46.15253" lon="5.86344">
        <ele>1582.5</ele>
      </trkpt>
      <trkpt lat="46.15269" lon="5.86352">
        <ele>1579.4</ele>
      </trkpt>
      <trkpt lat="46.15279" lon="5.86358">
        <ele>1577.3</ele>
      </trkpt>
      <trkpt lat="46.15285" lon="5.86361">
        <ele>1576</ele>
      </trkpt>
      <trkpt lat="46.15296" lon="5.8637">
        <ele>1573.4</ele>
      </trkpt>
      <trkpt lat="46.15302" lon="5.86372">
        <ele>1572.1</ele>
      </trkpt>
      <trkpt lat="46.15309" lon="5.86374">
        <ele>1570.8</ele>
      </trkpt>
      <trkpt lat="46.15319" lon="5.86378">
        <ele>1568.7</ele>
      </trkpt>
      <trkpt lat="46.15341" lon="5.86395">
        <ele>1562.4</ele>
      </trkpt>
      <trkpt lat="46.15352" lon="5.86405">
        <ele>1559.2</ele>
      </trkpt>
      <trkpt lat="46.15365" lon="5.86401">
        <ele>1557.8</ele>
      </trkpt>
      <trkpt lat="46.15374" lon="5.86406">
        <ele>1555.7</ele>
      </trkpt>
      <trkpt lat="46.1538" lon="5.86407">
        <ele>1554.6</ele>
      </trkpt>
      <trkpt lat="46.15384" lon="5.86408">
        <ele>1553.8</ele>
      </trkpt>
      <trkpt lat="46.15391" lon="5.86413">
        <ele>1552.2</ele>
      </trkpt>
      <trkpt lat="46.15404" lon="5.86416">
        <ele>1549.9</ele>
      </trkpt>
      <trkpt lat="46.15412" lon="5.86419">
        <ele>1548.3</ele>
      </trkpt>
      <trkpt lat="46.15417" lon="5.86428">
        <ele>1546.1</ele>
      </trkpt>
      <trkpt lat="46.15425" lon="5.86434">
        <ele>1543.5</ele>
      </trkpt>
      <trkpt lat="46.15431" lon="5.86438">
        <ele>1541.5</ele>
      </trkpt>
      <trkpt lat="46.15439" lon="5.86438">
        <ele>1539.7</ele>
      </trkpt>
      <trkpt lat="46.15445" lon="5.86435">
        <ele>1538.8</ele>
      </trkpt>
      <trkpt lat="46.1545" lon="5.86437">
        <ele>1537.5</ele>
      </trkpt>
      <trkpt lat="46.15452" lon="5.86434">
        <ele>1537.4</ele>
      </trkpt>
      <trkpt lat="46.15457" lon="5.86434">
        <ele>1536.4</ele>
      </trkpt>
      <trkpt lat="46.15462" lon="5.86441">
        <ele>1534.2</ele>
      </trkpt>
      <trkpt lat="46.15474" lon="5.86436">
        <ele>1532.2</ele>
      </trkpt>
      <trkpt lat="46.15487" lon="5.86431">
        <ele>1529.9</ele>
      </trkpt>
      <trkpt lat="46.15492" lon="5.86429">
        <ele>1529.3</ele>
      </trkpt>
      <trkpt lat="46.155" lon="5.8643">
        <ele>1527.4</ele>
      </trkpt>
      <trkpt lat="46.15504" lon="5.86438">
        <ele>1525.6</ele>
      </trkpt>
      <trkpt lat="46.15507" lon="5.86443">
        <ele>1524.4</ele>
      </trkpt>
      <trkpt lat="46.15508" lon="5.86449">
        <ele>1523.5</ele>
      </trkpt>
      <trkpt lat="46.15515" lon="5.86466">
        <ele>1520.4</ele>
      </trkpt>
      <trkpt lat="46.1552" lon="5.86475">
        <ele>1518.6</ele>
      </trkpt>
      <trkpt lat="46.15525" lon="5.86487">
        <ele>1516.7</ele>
      </trkpt>
      <trkpt lat="46.15534" lon="5.86489">
        <ele>1515.5</ele>
      </trkpt>
      <trkpt lat="46.15534" lon="5.86492">
        <ele>1515.1</ele>
      </trkpt>
      <trkpt lat="46.15538" lon="5.86495">
        <ele>1514.4</ele>
      </trkpt>
      <trkpt lat="46.15548" lon="5.86497">
        <ele>1513</ele>
      </trkpt>
      <trkpt lat="46.15562" lon="5.86502">
        <ele>1511.1</ele>
      </trkpt>
      <trkpt lat="46.15587" lon="5.86507">
        <ele>1508.9</ele>
      </trkpt>
      <trkpt lat="46.156" lon="5.86509">
        <ele>1510.7</ele>
      </trkpt>
      <trkpt lat="46.15606" lon="5.8651">
        <ele>1511.6</ele>
      </trkpt>
      <trkpt lat="46.15608" lon="5.86514">
        <ele>1511.6</ele>
      </trkpt>
      <trkpt lat="46.15608" lon="5.86517">
        <ele>1511.3</ele>
      </trkpt>
      <trkpt lat="46.15614" lon="5.8654">
        <ele>1510.1</ele>
      </trkpt>
      <trkpt lat="46.15613" lon="5.86554">
        <ele>1508.6</ele>
      </trkpt>
      <trkpt lat="46.15615" lon="5.86574">
        <ele>1507.1</ele>
      </trkpt>
      <trkpt lat="46.15618" lon="5.86584">
        <ele>1506.5</ele>
      </trkpt>
      <trkpt lat="46.15618" lon="5.8661">
        <ele>1503.4</ele>
      </trkpt>
      <trkpt lat="46.15616" lon="5.8662">
        <ele>1501.9</ele>
      </trkpt>
      <trkpt lat="46.15614" lon="5.86632">
        <ele>1500.4</ele>
      </trkpt>
      <trkpt lat="46.15614" lon="5.86645">
        <ele>1498.8</ele>
      </trkpt>
      <trkpt lat="46.15616" lon="5.86656">
        <ele>1497.6</ele>
      </trkpt>
      <trkpt lat="46.15618" lon="5.86662">
        <ele>1497.1</ele>
      </trkpt>
      <trkpt lat="46.15621" lon="5.86671">
        <ele>1495.7</ele>
      </trkpt>
      <trkpt lat="46.15628" lon="5.86678">
        <ele>1494.5</ele>
      </trkpt>
      <trkpt lat="46.15632" lon="5.86685">
        <ele>1492.9</ele>
      </trkpt>
      <trkpt lat="46.1563" lon="5.86689">
        <ele>1491.8</ele>
      </trkpt>
      <trkpt lat="46.1563" lon="5.86693">
        <ele>1490.9</ele>
      </trkpt>
      <trkpt lat="46.1563" lon="5.86696">
        <ele>1490</ele>
      </trkpt>
      <trkpt lat="46.1563" lon="5.86706">
        <ele>1487.7</ele>
      </trkpt>
      <trkpt lat="46.15632" lon="5.86723">
        <ele>1483.3</ele>
      </trkpt>
      <trkpt lat="46.15638" lon="5.86756">
        <ele>1476</ele>
      </trkpt>
      <trkpt lat="46.1564" lon="5.86766">
        <ele>1474.8</ele>
      </trkpt>
      <trkpt lat="46.1564" lon="5.86768">
        <ele>1474.4</ele>
      </trkpt>
      <trkpt lat="46.15642" lon="5.86779">
        <ele>1473.1</ele>
      </trkpt>
      <trkpt lat="46.1564" lon="5.86792">
        <ele>1471.5</ele>
      </trkpt>
      <trkpt lat="46.1564" lon="5.86799">
        <ele>1470.7</ele>
      </trkpt>
      <trkpt lat="46.15637" lon="5.86808">
        <ele>1469.4</ele>
      </trkpt>
      <trkpt lat="46.15632" lon="5.86812">
        <ele>1468.8</ele>
      </trkpt>
      <trkpt lat="46.15625" lon="5.86822">
        <ele>1467.5</ele>
      </trkpt>
      <trkpt lat="46.15625" lon="5.86827">
        <ele>1466.8</ele>
      </trkpt>
      <trkpt lat="46.15623" lon="5.86833">
        <ele>1466</ele>
      </trkpt>
      <trkpt lat="46.15625" lon="5.86844">
        <ele>1465.5</ele>
      </trkpt>
      <trkpt lat="46.15626" lon="5.86845">
        <ele>1465.4</ele>
      </trkpt>
      <trkpt lat="46.15629" lon="5.8685">
        <ele>1465.2</ele>
      </trkpt>
      <trkpt lat="46.15639" lon="5.86853">
        <ele>1465.1</ele>
      </trkpt>
      <trkpt lat="46.15648" lon="5.86858">
        <ele>1464.9</ele>
      </trkpt>
      <trkpt lat="46.15662" lon="5.86876">
        <ele>1463.5</ele>
      </trkpt>
      <trkpt lat="46.15664" lon="5.8688">
        <ele>1463.2</ele>
      </trkpt>
      <trkpt lat="46.15677" lon="5.86896">
        <ele>1461.2</ele>
      </trkpt>
      <trkpt lat="46.15707" lon="5.86916">
        <ele>1457.7</ele>
      </trkpt>
      <trkpt lat="46.15719" lon="5.86913">
        <ele>1457.3</ele>
      </trkpt>
      <trkpt lat="46.15731" lon="5.86914">
        <ele>1456.4</ele>
      </trkpt>
      <trkpt lat="46.15742" lon="5.86915">
        <ele>1455.6</ele>
      </trkpt>
      <trkpt lat="46.15764" lon="5.86901">
        <ele>1454</ele>
      </trkpt>
      <trkpt lat="46.15771" lon="5.86899">
        <ele>1452.7</ele>
      </trkpt>
      <trkpt lat="46.15784" lon="5.86881">
        <ele>1451.3</ele>
      </trkpt>
      <trkpt lat="46.15787" lon="5.8687">
        <ele>1451.6</ele>
      </trkpt>
      <trkpt lat="46.15793" lon="5.86863">
        <ele>1450.6</ele>
      </trkpt>
      <trkpt lat="46.158" lon="5.86856">
        <ele>1449.1</ele>
      </trkpt>
      <trkpt lat="46.15807" lon="5.86838">
        <ele>1448.4</ele>
      </trkpt>
      <trkpt lat="46.15812" lon="5.86824">
        <ele>1449</ele>
      </trkpt>
      <trkpt lat="46.15823" lon="5.86812">
        <ele>1448.3</ele>
      </trkpt>
      <trkpt lat="46.15838" lon="5.86801">
        <ele>1446.1</ele>
      </trkpt>
      <trkpt lat="46.1585" lon="5.86797">
        <ele>1444</ele>
      </trkpt>
      <trkpt lat="46.15863" lon="5.86796">
        <ele>1441</ele>
      </trkpt>
      <trkpt lat="46.15869" lon="5.86795">
        <ele>1439.7</ele>
      </trkpt>
      <trkpt lat="46.15871" lon="5.86793">
        <ele>1439.5</ele>
      </trkpt>
      <trkpt lat="46.15879" lon="5.86784">
        <ele>1439</ele>
      </trkpt>
      <trkpt lat="46.15908" lon="5.86784">
        <ele>1431.6</ele>
      </trkpt>
      <trkpt lat="46.15918" lon="5.86778">
        <ele>1429.9</ele>
      </trkpt>
      <trkpt lat="46.15924" lon="5.86772">
        <ele>1428.8</ele>
      </trkpt>
      <trkpt lat="46.15928" lon="5.86774">
        <ele>1427.5</ele>
      </trkpt>
      <trkpt lat="46.15931" lon="5.86777">
        <ele>1426.1</ele>
      </trkpt>
      <trkpt lat="46.15935" lon="5.86774">
        <ele>1425.4</ele>
      </trkpt>
      <trkpt lat="46.15936" lon="5.86768">
        <ele>1425.5</ele>
      </trkpt>
      <trkpt lat="46.1594" lon="5.86764">
        <ele>1424.7</ele>
      </trkpt>
      <trkpt lat="46.15948" lon="5.86759">
        <ele>1422.6</ele>
      </trkpt>
      <trkpt lat="46.15957" lon="5.86753">
        <ele>1420.2</ele>
      </trkpt>
      <trkpt lat="46.15965" lon="5.86748">
        <ele>1418.2</ele>
      </trkpt>
      <trkpt lat="46.15971" lon="5.86747">
        <ele>1416.2</ele>
      </trkpt>
      <trkpt lat="46.15976" lon="5.86743">
        <ele>1415</ele>
      </trkpt>
      <trkpt lat="46.15989" lon="5.86739">
        <ele>1411.2</ele>
      </trkpt>
      <trkpt lat="46.15999" lon="5.86732">
        <ele>1408.6</ele>
      </trkpt>
      <trkpt lat="46.16002" lon="5.86727">
        <ele>1408.3</ele>
      </trkpt>
      <trkpt lat="46.16006" lon="5.86714">
        <ele>1409.2</ele>
      </trkpt>
      <trkpt lat="46.16008" lon="5.86708">
        <ele>1409.4</ele>
      </trkpt>
      <trkpt lat="46.16025" lon="5.86692">
        <ele>1407.4</ele>
      </trkpt>
      <trkpt lat="46.16043" lon="5.86679">
        <ele>1404.2</ele>
      </trkpt>
      <trkpt lat="46.16054" lon="5.8667">
        <ele>1402.3</ele>
      </trkpt>
      <trkpt lat="46.16064" lon="5.86652">
        <ele>1398.9</ele>
      </trkpt>
      <trkpt lat="46.16072" lon="5.8664">
        <ele>1395.9</ele>
      </trkpt>
      <trkpt lat="46.16076" lon="5.86633">
        <ele>1394.3</ele>
      </trkpt>
      <trkpt lat="46.1608" lon="5.86631">
        <ele>1392.9</ele>
      </trkpt>
      <trkpt lat="46.16089" lon="5.86629">
        <ele>1390.9</ele>
      </trkpt>
      <trkpt lat="46.16104" lon="5.86633">
        <ele>1388.7</ele>
      </trkpt>
      <trkpt lat="46.16118" lon="5.86636">
        <ele>1386.7</ele>
      </trkpt>
      <trkpt lat="46.16124" lon="5.8664">
        <ele>1386.1</ele>
      </trkpt>
      <trkpt lat="46.16135" lon="5.86651">
        <ele>1385.7</ele>
      </trkpt>
      <trkpt lat="46.16148" lon="5.86663">
        <ele>1385.1</ele>
      </trkpt>
      <trkpt lat="46.16159" lon="5.86664">
        <ele>1383.7</ele>
      </trkpt>
      <trkpt lat="46.16168" lon="5.86663">
        <ele>1382.3</ele>
      </trkpt>
      <trkpt lat="46.16178" lon="5.86665">
        <ele>1381.7</ele>
      </trkpt>
      <trkpt lat="46.162" lon="5.86674">
        <ele>1379.7</ele>
      </trkpt>
      <trkpt lat="46.16223" lon="5.86689">
        <ele>1377.8</ele>
      </trkpt>
      <trkpt lat="46.16243" lon="5.86721">
        <ele>1377.2</ele>
      </trkpt>
      <trkpt lat="46.16248" lon="5.86724">
        <ele>1377.1</ele>
      </trkpt>
      <trkpt lat="46.16256" lon="5.86721">
        <ele>1377.3</ele>
      </trkpt>
      <trkpt lat="46.16278" lon="5.86711">
        <ele>1378.4</ele>
      </trkpt>
      <trkpt lat="46.16282" lon="5.86711">
        <ele>1378.6</ele>
      </trkpt>
      <trkpt lat="46.16286" lon="5.86712">
        <ele>1378.9</ele>
      </trkpt>
      <trkpt lat="46.16289" lon="5.86713">
        <ele>1379.1</ele>
      </trkpt>
      <trkpt lat="46.16293" lon="5.86717">
        <ele>1379.4</ele>
      </trkpt>
      <trkpt lat="46.16295" lon="5.86724">
        <ele>1379.5</ele>
      </trkpt>
      <trkpt lat="46.16297" lon="5.86731">
        <ele>1379.6</ele>
      </trkpt>
      <trkpt lat="46.163" lon="5.8675">
        <ele>1379.8</ele>
      </trkpt>
      <trkpt lat="46.16304" lon="5.86756">
        <ele>1379.4</ele>
      </trkpt>
      <trkpt lat="46.16309" lon="5.86759">
        <ele>1379.2</ele>
      </trkpt>
      <trkpt lat="46.16316" lon="5.86762">
        <ele>1379.1</ele>
      </trkpt>
      <trkpt lat="46.16327" lon="5.86759">
        <ele>1379.6</ele>
      </trkpt>
      <trkpt lat="46.16341" lon="5.8675">
        <ele>1381</ele>
      </trkpt>
      <trkpt lat="46.16352" lon="5.86741">
        <ele>1381.7</ele>
      </trkpt>
      <trkpt lat="46.16363" lon="5.86728">
        <ele>1383</ele>
      </trkpt>
      <trkpt lat="46.16378" lon="5.86716">
        <ele>1385</ele>
      </trkpt>
      <trkpt lat="46.1639" lon="5.8671">
        <ele>1386.6</ele>
      </trkpt>
      <trkpt lat="46.16402" lon="5.86701">
        <ele>1388.8</ele>
      </trkpt>
      <trkpt lat="46.16412" lon="5.86689">
        <ele>1391.6</ele>
      </trkpt>
      <trkpt lat="46.16426" lon="5.86678">
        <ele>1393.8</ele>
      </trkpt>
      <trkpt lat="46.16456" lon="5.86661">
        <ele>1395</ele>
      </trkpt>
      <trkpt lat="46.16483" lon="5.86654">
        <ele>1394.8</ele>
      </trkpt>
      <trkpt lat="46.16512" lon="5.86646">
        <ele>1394.5</ele>
      </trkpt>
      <trkpt lat="46.16534" lon="5.8664">
        <ele>1393.6</ele>
      </trkpt>
      <trkpt lat="46.16554" lon="5.86635">
        <ele>1392.9</ele>
      </trkpt>
      <trkpt lat="46.16556" lon="5.86632">
        <ele>1392.9</ele>
      </trkpt>
      <trkpt lat="46.16555" lon="5.86603">
        <ele>1393.4</ele>
      </trkpt>
      <trkpt lat="46.16553" lon="5.86583">
        <ele>1393.6</ele>
      </trkpt>
      <trkpt lat="46.16554" lon="5.86574">
        <ele>1391.9</ele>
      </trkpt>
      <trkpt lat="46.16557" lon="5.86566">
        <ele>1390.1</ele>
      </trkpt>
      <trkpt lat="46.16562" lon="5.8656">
        <ele>1389.1</ele>
      </trkpt>
      <trkpt lat="46.16574" lon="5.86554">
        <ele>1388</ele>
      </trkpt>
      <trkpt lat="46.16596" lon="5.86541">
        <ele>1385.9</ele>
      </trkpt>
      <trkpt lat="46.16627" lon="5.86526">
        <ele>1384</ele>
      </trkpt>
      <trkpt lat="46.16726" lon="5.86483">
        <ele>1371.5</ele>
      </trkpt>
      <trkpt lat="46.1676" lon="5.8647">
        <ele>1366.5</ele>
      </trkpt>
      <trkpt lat="46.1681" lon="5.86442">
        <ele>1362.2</ele>
      </trkpt>
      <trkpt lat="46.1686" lon="5.8641">
        <ele>1358.9</ele>
      </trkpt>
      <trkpt lat="46.169" lon="5.86376">
        <ele>1354.5</ele>
      </trkpt>
      <trkpt lat="46.16912" lon="5.86372">
        <ele>1354.9</ele>
      </trkpt>
      <trkpt lat="46.16971" lon="5.86347">
        <ele>1358.5</ele>
      </trkpt>
      <trkpt lat="46.16991" lon="5.86333">
        <ele>1361.7</ele>
      </trkpt>
      <trkpt lat="46.17011" lon="5.8633">
        <ele>1362.6</ele>
      </trkpt>
      <trkpt lat="46.17031" lon="5.8633">
        <ele>1362.5</ele>
      </trkpt>
      <trkpt lat="46.17102" lon="5.86329">
        <ele>1361.7</ele>
      </trkpt>
      <trkpt lat="46.17128" lon="5.86328">
        <ele>1360.8</ele>
      </trkpt>
      <trkpt lat="46.17132" lon="5.86329">
        <ele>1360.6</ele>
      </trkpt>
      <trkpt lat="46.17135" lon="5.86332">
        <ele>1360.3</ele>
      </trkpt>
      <trkpt lat="46.17158" lon="5.86283">
        <ele>1363.5</ele>
      </trkpt>
      <trkpt lat="46.17177" lon="5.86244">
        <ele>1366</ele>
      </trkpt>
      <trkpt lat="46.17194" lon="5.86201">
        <ele>1366.5</ele>
      </trkpt>
      <trkpt lat="46.17206" lon="5.86162">
        <ele>1365.6</ele>
      </trkpt>
      <trkpt lat="46.17221" lon="5.8612">
        <ele>1359.8</ele>
      </trkpt>
      <trkpt lat="46.17228" lon="5.8611">
        <ele>1358.7</ele>
      </trkpt>
      <trkpt lat="46.17252" lon="5.86068">
        <ele>1354.9</ele>
      </trkpt>
      <trkpt lat="46.17283" lon="5.86038">
        <ele>1353.3</ele>
      </trkpt>
      <trkpt lat="46.17301" lon="5.85993">
        <ele>1349.1</ele>
      </trkpt>
      <trkpt lat="46.17349" lon="5.86004">
        <ele>1356.2</ele>
      </trkpt>
      <trkpt lat="46.17407" lon="5.8601">
        <ele>1363.7</ele>
      </trkpt>
      <trkpt lat="46.17435" lon="5.86011">
        <ele>1365.9</ele>
      </trkpt>
      <trkpt lat="46.17459" lon="5.86001">
        <ele>1366.1</ele>
      </trkpt>
      <trkpt lat="46.17479" lon="5.85989">
        <ele>1365.6</ele>
      </trkpt>
      <trkpt lat="46.17492" lon="5.85985">
        <ele>1365.8</ele>
      </trkpt>
      <trkpt lat="46.17503" lon="5.85989">
        <ele>1366.8</ele>
      </trkpt>
      <trkpt lat="46.17545" lon="5.86008">
        <ele>1370.4</ele>
      </trkpt>
      <trkpt lat="46.1757" lon="5.86036">
        <ele>1373.7</ele>
      </trkpt>
      <trkpt lat="46.17589" lon="5.86042">
        <ele>1374.7</ele>
      </trkpt>
      <trkpt lat="46.17613" lon="5.86043">
        <ele>1375.5</ele>
      </trkpt>
      <trkpt lat="46.17657" lon="5.86058">
        <ele>1377.9</ele>
      </trkpt>
      <trkpt lat="46.17687" lon="5.8606">
        <ele>1378.4</ele>
      </trkpt>
      <trkpt lat="46.1773" lon="5.86061">
        <ele>1378.8</ele>
      </trkpt>
      <trkpt lat="46.17769" lon="5.86062">
        <ele>1377.3</ele>
      </trkpt>
      <trkpt lat="46.17833" lon="5.86062">
        <ele>1371.8</ele>
      </trkpt>
      <trkpt lat="46.17849" lon="5.86063">
        <ele>1371.5</ele>
      </trkpt>
      <trkpt lat="46.17859" lon="5.86068">
        <ele>1371.5</ele>
      </trkpt>
      <trkpt lat="46.17861" lon="5.86078">
        <ele>1371.8</ele>
      </trkpt>
      <trkpt lat="46.17862" lon="5.86089">
        <ele>1372.2</ele>
      </trkpt>
      <trkpt lat="46.17851" lon="5.86118">
        <ele>1373.1</ele>
      </trkpt>
      <trkpt lat="46.1785" lon="5.86136">
        <ele>1373.6</ele>
      </trkpt>
      <trkpt lat="46.17859" lon="5.8617">
        <ele>1375</ele>
      </trkpt>
      <trkpt lat="46.17857" lon="5.86187">
        <ele>1375.4</ele>
      </trkpt>
      <trkpt lat="46.17852" lon="5.86206">
        <ele>1375.6</ele>
      </trkpt>
      <trkpt lat="46.17847" lon="5.86224">
        <ele>1375.9</ele>
      </trkpt>
      <trkpt lat="46.17848" lon="5.86236">
        <ele>1376.2</ele>
      </trkpt>
      <trkpt lat="46.17851" lon="5.86242">
        <ele>1376.4</ele>
      </trkpt>
      <trkpt lat="46.17862" lon="5.86258">
        <ele>1377.3</ele>
      </trkpt>
      <trkpt lat="46.1788" lon="5.86258">
        <ele>1377.9</ele>
      </trkpt>
      <trkpt lat="46.17894" lon="5.86246">
        <ele>1378.1</ele>
      </trkpt>
      <trkpt lat="46.17905" lon="5.86241">
        <ele>1378.3</ele>
      </trkpt>
      <trkpt lat="46.17916" lon="5.86241">
        <ele>1378.7</ele>
      </trkpt>
      <trkpt lat="46.17945" lon="5.86238">
        <ele>1379.4</ele>
      </trkpt>
      <trkpt lat="46.17962" lon="5.86249">
        <ele>1380.1</ele>
      </trkpt>
      <trkpt lat="46.17972" lon="5.8626">
        <ele>1381</ele>
      </trkpt>
      <trkpt lat="46.17976" lon="5.86274">
        <ele>1381.9</ele>
      </trkpt>
      <trkpt lat="46.1798" lon="5.86319">
        <ele>1384.9</ele>
      </trkpt>
      <trkpt lat="46.17978" lon="5.8635">
        <ele>1386.6</ele>
      </trkpt>
      <trkpt lat="46.1798" lon="5.86358">
        <ele>1387.2</ele>
      </trkpt>
      <trkpt lat="46.17985" lon="5.86361">
        <ele>1387.5</ele>
      </trkpt>
      <trkpt lat="46.18014" lon="5.8635">
        <ele>1388.9</ele>
      </trkpt>
      <trkpt lat="46.18053" lon="5.86335">
        <ele>1391.5</ele>
      </trkpt>
      <trkpt lat="46.18094" lon="5.86322">
        <ele>1393.3</ele>
      </trkpt>
      <trkpt lat="46.18158" lon="5.86299">
        <ele>1393.5</ele>
      </trkpt>
      <trkpt lat="46.18182" lon="5.86294">
        <ele>1392.1</ele>
      </trkpt>
      <trkpt lat="46.18192" lon="5.86294">
        <ele>1390.9</ele>
      </trkpt>
      <trkpt lat="46.18202" lon="5.86298">
        <ele>1389.7</ele>
      </trkpt>
      <trkpt lat="46.18209" lon="5.86305">
        <ele>1388.9</ele>
      </trkpt>
      <trkpt lat="46.18215" lon="5.86314">
        <ele>1388.4</ele>
      </trkpt>
      <trkpt lat="46.18217" lon="5.86323">
        <ele>1388.3</ele>
      </trkpt>
      <trkpt lat="46.18223" lon="5.8632">
        <ele>1387.8</ele>
      </trkpt>
      <trkpt lat="46.18228" lon="5.86318">
        <ele>1387.3</ele>
      </trkpt>
      <trkpt lat="46.18236" lon="5.86318">
        <ele>1386.5</ele>
      </trkpt>
      <trkpt lat="46.18247" lon="5.86313">
        <ele>1385.3</ele>
      </trkpt>
      <trkpt lat="46.18252" lon="5.86313">
        <ele>1385.1</ele>
      </trkpt>
      <trkpt lat="46.18262" lon="5.86314">
        <ele>1385.5</ele>
      </trkpt>
      <trkpt lat="46.18283" lon="5.86328">
        <ele>1387.8</ele>
      </trkpt>
      <trkpt lat="46.18305" lon="5.86362">
        <ele>1394.2</ele>
      </trkpt>
      <trkpt lat="46.18318" lon="5.86379">
        <ele>1398.1</ele>
      </trkpt>
      <trkpt lat="46.18353" lon="5.86392">
        <ele>1407.3</ele>
      </trkpt>
      <trkpt lat="46.18365" lon="5.86391">
        <ele>1410.5</ele>
      </trkpt>
      <trkpt lat="46.1838" lon="5.86377">
        <ele>1412</ele>
      </trkpt>
      <trkpt lat="46.18408" lon="5.86364">
        <ele>1416.9</ele>
      </trkpt>
      <trkpt lat="46.18412" lon="5.86365">
        <ele>1418.3</ele>
      </trkpt>
      <trkpt lat="46.18417" lon="5.86377">
        <ele>1421.9</ele>
      </trkpt>
      <trkpt lat="46.18421" lon="5.86383">
        <ele>1423.9</ele>
      </trkpt>
      <trkpt lat="46.1843" lon="5.86381">
        <ele>1425.4</ele>
      </trkpt>
      <trkpt lat="46.18458" lon="5.86375">
        <ele>1429.3</ele>
      </trkpt>
      <trkpt lat="46.18501" lon="5.86386">
        <ele>1440.3</ele>
      </trkpt>
      <trkpt lat="46.18526" lon="5.86404">
        <ele>1440.7</ele>
      </trkpt>
      <trkpt lat="46.1854" lon="5.8643">
        <ele>1444.5</ele>
      </trkpt>
      <trkpt lat="46.18542" lon="5.86456">
        <ele>1447.5</ele>
      </trkpt>
      <trkpt lat="46.18579" lon="5.86499">
        <ele>1452.7</ele>
      </trkpt>
      <trkpt lat="46.18641" lon="5.86527">
        <ele>1450.9</ele>
      </trkpt>
      <trkpt lat="46.18668" lon="5.86582">
        <ele>1460.2</ele>
      </trkpt>
      <trkpt lat="46.18681" lon="5.86594">
        <ele>1458.1</ele>
      </trkpt>
      <trkpt lat="46.18717" lon="5.866">
        <ele>1450.6</ele>
      </trkpt>
      <trkpt lat="46.18752" lon="5.86646">
        <ele>1454.2</ele>
      </trkpt>
      <trkpt lat="46.18797" lon="5.86705">
        <ele>1447.5</ele>
      </trkpt>
      <trkpt lat="46.18799" lon="5.86752">
        <ele>1453.8</ele>
      </trkpt>
      <trkpt lat="46.18813" lon="5.86786">
        <ele>1452.4</ele>
      </trkpt>
      <trkpt lat="46.18823" lon="5.86824">
        <ele>1453</ele>
      </trkpt>
      <trkpt lat="46.18825" lon="5.86858">
        <ele>1453</ele>
      </trkpt>
      <trkpt lat="46.18815" lon="5.86888">
        <ele>1452.9</ele>
      </trkpt>
      <trkpt lat="46.18817" lon="5.86903">
        <ele>1452.6</ele>
      </trkpt>
      <trkpt lat="46.18821" lon="5.86927">
        <ele>1451.6</ele>
      </trkpt>
      <trkpt lat="46.18813" lon="5.86962">
        <ele>1449.1</ele>
      </trkpt>
      <trkpt lat="46.18819" lon="5.86988">
        <ele>1447.3</ele>
      </trkpt>
      <trkpt lat="46.18818" lon="5.87011">
        <ele>1446.2</ele>
      </trkpt>
      <trkpt lat="46.18815" lon="5.87032">
        <ele>1445.5</ele>
      </trkpt>
      <trkpt lat="46.1881" lon="5.87041">
        <ele>1445</ele>
      </trkpt>
      <trkpt lat="46.18801" lon="5.87049">
        <ele>1444.1</ele>
      </trkpt>
      <trkpt lat="46.18789" lon="5.87091">
        <ele>1441.5</ele>
      </trkpt>
      <trkpt lat="46.18791" lon="5.8712">
        <ele>1440.8</ele>
      </trkpt>
      <trkpt lat="46.18826" lon="5.87213">
        <ele>1442.6</ele>
      </trkpt>
      <trkpt lat="46.18843" lon="5.87279">
        <ele>1440.3</ele>
      </trkpt>
      <trkpt lat="46.18865" lon="5.8728">
        <ele>1438.9</ele>
      </trkpt>
      <trkpt lat="46.1889" lon="5.87301">
        <ele>1435.3</ele>
      </trkpt>
      <trkpt lat="46.18922" lon="5.87361">
        <ele>1427.8</ele>
      </trkpt>
      <trkpt lat="46.18932" lon="5.87402">
        <ele>1425</ele>
      </trkpt>
      <trkpt lat="46.18949" lon="5.87685">
        <ele>1416.9</ele>
      </trkpt>
      <trkpt lat="46.19" lon="5.87737">
        <ele>1416.5</ele>
      </trkpt>
      <trkpt lat="46.19012" lon="5.87767">
        <ele>1412.1</ele>
      </trkpt>
      <trkpt lat="46.19072" lon="5.87815">
        <ele>1411.8</ele>
      </trkpt>
      <trkpt lat="46.19133" lon="5.87833">
        <ele>1419</ele>
      </trkpt>
      <trkpt lat="46.1917" lon="5.87823">
        <ele>1426.6</ele>
      </trkpt>
      <trkpt lat="46.19205" lon="5.87835">
        <ele>1425.7</ele>
      </trkpt>
      <trkpt lat="46.19238" lon="5.87872">
        <ele>1420.5</ele>
      </trkpt>
      <trkpt lat="46.19364" lon="5.87962">
        <ele>1408.3</ele>
      </trkpt>
      <trkpt lat="46.194" lon="5.87995">
        <ele>1408.8</ele>
      </trkpt>
      <trkpt lat="46.19421" lon="5.88031">
        <ele>1411.2</ele>
      </trkpt>
      <trkpt lat="46.19447" lon="5.8804">
        <ele>1411</ele>
      </trkpt>
      <trkpt lat="46.195" lon="5.88096">
        <ele>1423.3</ele>
      </trkpt>
      <trkpt lat="46.19504" lon="5.8812">
        <ele>1421.7</ele>
      </trkpt>
      <trkpt lat="46.19519" lon="5.88155">
        <ele>1421.4</ele>
      </trkpt>
      <trkpt lat="46.19537" lon="5.88169">
        <ele>1423.5</ele>
      </trkpt>
      <trkpt lat="46.19582" lon="5.8825">
        <ele>1418.8</ele>
      </trkpt>
      <trkpt lat="46.19604" lon="5.88364">
        <ele>1399.7</ele>
      </trkpt>
      <trkpt lat="46.19632" lon="5.88384">
        <ele>1401.1</ele>
      </trkpt>
      <trkpt lat="46.19666" lon="5.88469">
        <ele>1389</ele>
      </trkpt>
      <trkpt lat="46.19773" lon="5.88535">
        <ele>1392.3</ele>
      </trkpt>
      <trkpt lat="46.19819" lon="5.88621">
        <ele>1383.6</ele>
      </trkpt>
      <trkpt lat="46.19855" lon="5.88649">
        <ele>1383.2</ele>
      </trkpt>
      <trkpt lat="46.19915" lon="5.88736">
        <ele>1377.4</ele>
      </trkpt>
      <trkpt lat="46.19991" lon="5.8878">
        <ele>1377.6</ele>
      </trkpt>
      <trkpt lat="46.2001" lon="5.88775">
        <ele>1380.9</ele>
      </trkpt>
      <trkpt lat="46.20042" lon="5.88786">
        <ele>1383.2</ele>
      </trkpt>
      <trkpt lat="46.20063" lon="5.88803">
        <ele>1383.3</ele>
      </trkpt>
      <trkpt lat="46.2009" lon="5.88808">
        <ele>1385.6</ele>
      </trkpt>
      <trkpt lat="46.20139" lon="5.88784">
        <ele>1390.6</ele>
      </trkpt>
      <trkpt lat="46.20167" lon="5.88787">
        <ele>1390.9</ele>
      </trkpt>
      <trkpt lat="46.20278" lon="5.88778">
        <ele>1378</ele>
      </trkpt>
      <trkpt lat="46.20324" lon="5.88781">
        <ele>1375.5</ele>
      </trkpt>
      <trkpt lat="46.20375" lon="5.88761">
        <ele>1369.2</ele>
      </trkpt>
      <trkpt lat="46.20405" lon="5.88835">
        <ele>1383.7</ele>
      </trkpt>
      <trkpt lat="46.20406" lon="5.88859">
        <ele>1384.2</ele>
      </trkpt>
      <trkpt lat="46.2041" lon="5.88865">
        <ele>1384.6</ele>
      </trkpt>
      <trkpt lat="46.20412" lon="5.88872">
        <ele>1384.9</ele>
      </trkpt>
      <trkpt lat="46.20409" lon="5.8892">
        <ele>1385.6</ele>
      </trkpt>
      <trkpt lat="46.20413" lon="5.88953">
        <ele>1384.5</ele>
      </trkpt>
      <trkpt lat="46.20425" lon="5.88982">
        <ele>1385.4</ele>
      </trkpt>
      <trkpt lat="46.20438" lon="5.89007">
        <ele>1386.6</ele>
      </trkpt>
      <trkpt lat="46.20457" lon="5.89014">
        <ele>1389.9</ele>
      </trkpt>
      <trkpt lat="46.20472" lon="5.89023">
        <ele>1392.4</ele>
      </trkpt>
      <trkpt lat="46.20509" lon="5.89053">
        <ele>1397.3</ele>
      </trkpt>
      <trkpt lat="46.20518" lon="5.89076">
        <ele>1396.9</ele>
      </trkpt>
      <trkpt lat="46.20541" lon="5.89121">
        <ele>1397.3</ele>
      </trkpt>
      <trkpt lat="46.20568" lon="5.89132">
        <ele>1400.9</ele>
      </trkpt>
      <trkpt lat="46.20591" lon="5.89132">
        <ele>1404.3</ele>
      </trkpt>
      <trkpt lat="46.20618" lon="5.89141">
        <ele>1407.8</ele>
      </trkpt>
      <trkpt lat="46.20674" lon="5.89166">
        <ele>1413.7</ele>
      </trkpt>
      <trkpt lat="46.20701" lon="5.8918">
        <ele>1416.7</ele>
      </trkpt>
      <trkpt lat="46.20748" lon="5.89233">
        <ele>1425.5</ele>
      </trkpt>
      <trkpt lat="46.20778" lon="5.89237">
        <ele>1426.6</ele>
      </trkpt>
      <trkpt lat="46.2082" lon="5.89238">
        <ele>1427.5</ele>
      </trkpt>
      <trkpt lat="46.20829" lon="5.89252">
        <ele>1427</ele>
      </trkpt>
      <trkpt lat="46.20857" lon="5.89297">
        <ele>1428.9</ele>
      </trkpt>
      <trkpt lat="46.20868" lon="5.89317">
        <ele>1429.8</ele>
      </trkpt>
      <trkpt lat="46.20904" lon="5.89337">
        <ele>1433.8</ele>
      </trkpt>
      <trkpt lat="46.20941" lon="5.89373">
        <ele>1441.9</ele>
      </trkpt>
      <trkpt lat="46.21034" lon="5.89469">
        <ele>1452.8</ele>
      </trkpt>
      <trkpt lat="46.2111" lon="5.89508">
        <ele>1450.2</ele>
      </trkpt>
      <trkpt lat="46.21136" lon="5.89507">
        <ele>1449.1</ele>
      </trkpt>
      <trkpt lat="46.21176" lon="5.89522">
        <ele>1444.7</ele>
      </trkpt>
      <trkpt lat="46.21218" lon="5.89566">
        <ele>1436.4</ele>
      </trkpt>
      <trkpt lat="46.21239" lon="5.89554">
        <ele>1432</ele>
      </trkpt>
      <trkpt lat="46.21255" lon="5.89547">
        <ele>1428.5</ele>
      </trkpt>
      <trkpt lat="46.21267" lon="5.89552">
        <ele>1427.7</ele>
      </trkpt>
      <trkpt lat="46.21279" lon="5.8956">
        <ele>1427.9</ele>
      </trkpt>
      <trkpt lat="46.21296" lon="5.89569">
        <ele>1428.5</ele>
      </trkpt>
      <trkpt lat="46.21312" lon="5.89572">
        <ele>1428.4</ele>
      </trkpt>
      <trkpt lat="46.21327" lon="5.89579">
        <ele>1429.8</ele>
      </trkpt>
      <trkpt lat="46.21351" lon="5.89591">
        <ele>1432.6</ele>
      </trkpt>
      <trkpt lat="46.21366" lon="5.896">
        <ele>1434.4</ele>
      </trkpt>
      <trkpt lat="46.21376" lon="5.89611">
        <ele>1436.4</ele>
      </trkpt>
      <trkpt lat="46.21379" lon="5.89621">
        <ele>1437.9</ele>
      </trkpt>
      <trkpt lat="46.21381" lon="5.8963">
        <ele>1439.3</ele>
      </trkpt>
      <trkpt lat="46.21377" lon="5.89655">
        <ele>1442.5</ele>
      </trkpt>
      <trkpt lat="46.21376" lon="5.89671">
        <ele>1443.8</ele>
      </trkpt>
      <trkpt lat="46.21381" lon="5.89679">
        <ele>1443.8</ele>
      </trkpt>
      <trkpt lat="46.21389" lon="5.89692">
        <ele>1443.6</ele>
      </trkpt>
      <trkpt lat="46.21406" lon="5.89721">
        <ele>1442.7</ele>
      </trkpt>
      <trkpt lat="46.21438" lon="5.89766">
        <ele>1440.8</ele>
      </trkpt>
      <trkpt lat="46.21443" lon="5.89781">
        <ele>1439.3</ele>
      </trkpt>
      <trkpt lat="46.21447" lon="5.89789">
        <ele>1438.4</ele>
      </trkpt>
      <trkpt lat="46.21457" lon="5.89799">
        <ele>1437.5</ele>
      </trkpt>
      <trkpt lat="46.21466" lon="5.89811">
        <ele>1436.1</ele>
      </trkpt>
      <trkpt lat="46.21483" lon="5.89827">
        <ele>1433.9</ele>
      </trkpt>
      <trkpt lat="46.21493" lon="5.89834">
        <ele>1433</ele>
      </trkpt>
      <trkpt lat="46.21527" lon="5.89828">
        <ele>1429.5</ele>
      </trkpt>
      <trkpt lat="46.21546" lon="5.89827">
        <ele>1426.6</ele>
      </trkpt>
      <trkpt lat="46.21575" lon="5.89824">
        <ele>1422.2</ele>
      </trkpt>
      <trkpt lat="46.21631" lon="5.89857">
        <ele>1421.4</ele>
      </trkpt>
      <trkpt lat="46.21652" lon="5.89873">
        <ele>1421.3</ele>
      </trkpt>
      <trkpt lat="46.21667" lon="5.89896">
        <ele>1420.6</ele>
      </trkpt>
      <trkpt lat="46.21675" lon="5.89907">
        <ele>1421.3</ele>
      </trkpt>
      <trkpt lat="46.21724" lon="5.89909">
        <ele>1427.9</ele>
      </trkpt>
      <trkpt lat="46.21739" lon="5.89931">
        <ele>1430.3</ele>
      </trkpt>
      <trkpt lat="46.21762" lon="5.89944">
        <ele>1432.8</ele>
      </trkpt>
      <trkpt lat="46.21772" lon="5.89956">
        <ele>1433.8</ele>
      </trkpt>
      <trkpt lat="46.21782" lon="5.89962">
        <ele>1434.8</ele>
      </trkpt>
      <trkpt lat="46.21796" lon="5.89983">
        <ele>1436.7</ele>
      </trkpt>
      <trkpt lat="46.21806" lon="5.90003">
        <ele>1438.1</ele>
      </trkpt>
      <trkpt lat="46.21821" lon="5.90008">
        <ele>1439.5</ele>
      </trkpt>
      <trkpt lat="46.21827" lon="5.90009">
        <ele>1440</ele>
      </trkpt>
      <trkpt lat="46.21833" lon="5.90014">
        <ele>1440.1</ele>
      </trkpt>
      <trkpt lat="46.2184" lon="5.90036">
        <ele>1437.2</ele>
      </trkpt>
      <trkpt lat="46.21845" lon="5.90064">
        <ele>1433.9</ele>
      </trkpt>
      <trkpt lat="46.2185" lon="5.90081">
        <ele>1432.1</ele>
      </trkpt>
      <trkpt lat="46.21855" lon="5.90085">
        <ele>1431.8</ele>
      </trkpt>
      <trkpt lat="46.21879" lon="5.90111">
        <ele>1429.2</ele>
      </trkpt>
      <trkpt lat="46.21895" lon="5.90113">
        <ele>1429.3</ele>
      </trkpt>
      <trkpt lat="46.21916" lon="5.90103">
        <ele>1431.4</ele>
      </trkpt>
      <trkpt lat="46.21929" lon="5.90104">
        <ele>1431</ele>
      </trkpt>
      <trkpt lat="46.21936" lon="5.90108">
        <ele>1430.5</ele>
      </trkpt>
      <trkpt lat="46.2194" lon="5.90116">
        <ele>1429.6</ele>
      </trkpt>
      <trkpt lat="46.21948" lon="5.90113">
        <ele>1429.9</ele>
      </trkpt>
      <trkpt lat="46.2197" lon="5.90131">
        <ele>1430</ele>
      </trkpt>
      <trkpt lat="46.21987" lon="5.90133">
        <ele>1431.2</ele>
      </trkpt>
      <trkpt lat="46.2202" lon="5.90137">
        <ele>1434.4</ele>
      </trkpt>
      <trkpt lat="46.22037" lon="5.9014">
        <ele>1436.5</ele>
      </trkpt>
      <trkpt lat="46.22053" lon="5.90154">
        <ele>1441.4</ele>
      </trkpt>
      <trkpt lat="46.22061" lon="5.90167">
        <ele>1445.9</ele>
      </trkpt>
      <trkpt lat="46.22079" lon="5.9018">
        <ele>1451.5</ele>
      </trkpt>
      <trkpt lat="46.221" lon="5.90198">
        <ele>1455</ele>
      </trkpt>
      <trkpt lat="46.22102" lon="5.90203">
        <ele>1456</ele>
      </trkpt>
      <trkpt lat="46.2211" lon="5.90204">
        <ele>1456.2</ele>
      </trkpt>
      <trkpt lat="46.22118" lon="5.90226">
        <ele>1462.6</ele>
      </trkpt>
      <trkpt lat="46.22128" lon="5.90235">
        <ele>1465.8</ele>
      </trkpt>
      <trkpt lat="46.22129" lon="5.90255">
        <ele>1471.6</ele>
      </trkpt>
      <trkpt lat="46.2214" lon="5.90257">
        <ele>1473.4</ele>
      </trkpt>
      <trkpt lat="46.22152" lon="5.90256">
        <ele>1474.8</ele>
      </trkpt>
      <trkpt lat="46.22156" lon="5.90267">
        <ele>1477.1</ele>
      </trkpt>
      <trkpt lat="46.22165" lon="5.90269">
        <ele>1478.7</ele>
      </trkpt>
      <trkpt lat="46.22182" lon="5.90289">
        <ele>1478.4</ele>
      </trkpt>
      <trkpt lat="46.22188" lon="5.90297">
        <ele>1478.7</ele>
      </trkpt>
      <trkpt lat="46.22214" lon="5.90314">
        <ele>1477.8</ele>
      </trkpt>
      <trkpt lat="46.22233" lon="5.90337">
        <ele>1480.9</ele>
      </trkpt>
      <trkpt lat="46.22275" lon="5.90373">
        <ele>1467.9</ele>
      </trkpt>
      <trkpt lat="46.22275" lon="5.90381">
        <ele>1468.2</ele>
      </trkpt>
      <trkpt lat="46.22281" lon="5.90389">
        <ele>1467.2</ele>
      </trkpt>
      <trkpt lat="46.22289" lon="5.90388">
        <ele>1464.7</ele>
      </trkpt>
      <trkpt lat="46.22297" lon="5.90393">
        <ele>1463</ele>
      </trkpt>
      <trkpt lat="46.22308" lon="5.90394">
        <ele>1459.8</ele>
      </trkpt>
      <trkpt lat="46.22325" lon="5.9041">
        <ele>1460.3</ele>
      </trkpt>
      <trkpt lat="46.22334" lon="5.90431">
        <ele>1463.1</ele>
      </trkpt>
      <trkpt lat="46.22359" lon="5.90449">
        <ele>1459.2</ele>
      </trkpt>
      <trkpt lat="46.22361" lon="5.90481">
        <ele>1467.4</ele>
      </trkpt>
      <trkpt lat="46.22363" lon="5.90498">
        <ele>1471.8</ele>
      </trkpt>
      <trkpt lat="46.22359" lon="5.90523">
        <ele>1473.6</ele>
      </trkpt>
      <trkpt lat="46.22366" lon="5.90538">
        <ele>1474</ele>
      </trkpt>
      <trkpt lat="46.22367" lon="5.9055">
        <ele>1474.7</ele>
      </trkpt>
      <trkpt lat="46.2237" lon="5.90558">
        <ele>1475.2</ele>
      </trkpt>
      <trkpt lat="46.22391" lon="5.90582">
        <ele>1479.5</ele>
      </trkpt>
      <trkpt lat="46.22414" lon="5.90595">
        <ele>1480.9</ele>
      </trkpt>
      <trkpt lat="46.22422" lon="5.90592">
        <ele>1480.3</ele>
      </trkpt>
      <trkpt lat="46.22431" lon="5.90594">
        <ele>1477.1</ele>
      </trkpt>
      <trkpt lat="46.22453" lon="5.90593">
        <ele>1470.2</ele>
      </trkpt>
      <trkpt lat="46.22471" lon="5.90601">
        <ele>1465.2</ele>
      </trkpt>
      <trkpt lat="46.22485" lon="5.90638">
        <ele>1466</ele>
      </trkpt>
      <trkpt lat="46.2249" lon="5.90648">
        <ele>1466.6</ele>
      </trkpt>
      <trkpt lat="46.225" lon="5.90649">
        <ele>1465.8</ele>
      </trkpt>
      <trkpt lat="46.22511" lon="5.90653">
        <ele>1460.1</ele>
      </trkpt>
      <trkpt lat="46.2252" lon="5.90657">
        <ele>1455.8</ele>
      </trkpt>
      <trkpt lat="46.22528" lon="5.90669">
        <ele>1454.1</ele>
      </trkpt>
      <trkpt lat="46.22531" lon="5.90677">
        <ele>1453.8</ele>
      </trkpt>
      <trkpt lat="46.22549" lon="5.90701">
        <ele>1452.1</ele>
      </trkpt>
      <trkpt lat="46.22561" lon="5.90715">
        <ele>1453.8</ele>
      </trkpt>
      <trkpt lat="46.22574" lon="5.90722">
        <ele>1454.5</ele>
      </trkpt>
      <trkpt lat="46.22588" lon="5.90741">
        <ele>1459.6</ele>
      </trkpt>
      <trkpt lat="46.22599" lon="5.90756">
        <ele>1455.9</ele>
      </trkpt>
      <trkpt lat="46.22622" lon="5.90781">
        <ele>1446.4</ele>
      </trkpt>
      <trkpt lat="46.22633" lon="5.90788">
        <ele>1443.6</ele>
      </trkpt>
      <trkpt lat="46.22655" lon="5.90823">
        <ele>1453.8</ele>
      </trkpt>
      <trkpt lat="46.22668" lon="5.90844">
        <ele>1459.8</ele>
      </trkpt>
      <trkpt lat="46.22688" lon="5.9088">
        <ele>1455.5</ele>
      </trkpt>
      <trkpt lat="46.22711" lon="5.90909">
        <ele>1460.1</ele>
      </trkpt>
      <trkpt lat="46.22726" lon="5.9092">
        <ele>1462.3</ele>
      </trkpt>
      <trkpt lat="46.22731" lon="5.90936">
        <ele>1462.6</ele>
      </trkpt>
      <trkpt lat="46.22744" lon="5.90942">
        <ele>1462.3</ele>
      </trkpt>
      <trkpt lat="46.22765" lon="5.90985">
        <ele>1460.3</ele>
      </trkpt>
      <trkpt lat="46.2278" lon="5.90999">
        <ele>1457.5</ele>
      </trkpt>
      <trkpt lat="46.22811" lon="5.91018">
        <ele>1447.5</ele>
      </trkpt>
      <trkpt lat="46.22826" lon="5.91029">
        <ele>1445.3</ele>
      </trkpt>
      <trkpt lat="46.22841" lon="5.91036">
        <ele>1441.7</ele>
      </trkpt>
      <trkpt lat="46.22847" lon="5.91041">
        <ele>1441</ele>
      </trkpt>
      <trkpt lat="46.22853" lon="5.91044">
        <ele>1439.1</ele>
      </trkpt>
      <trkpt lat="46.22876" lon="5.91063">
        <ele>1437.2</ele>
      </trkpt>
      <trkpt lat="46.22887" lon="5.91076">
        <ele>1438.9</ele>
      </trkpt>
      <trkpt lat="46.22909" lon="5.91096">
        <ele>1437.6</ele>
      </trkpt>
      <trkpt lat="46.22935" lon="5.91121">
        <ele>1434.4</ele>
      </trkpt>
      <trkpt lat="46.2295" lon="5.91137">
        <ele>1434.9</ele>
      </trkpt>
      <trkpt lat="46.22995" lon="5.91183">
        <ele>1443.1</ele>
      </trkpt>
      <trkpt lat="46.23019" lon="5.91223">
        <ele>1443.6</ele>
      </trkpt>
      <trkpt lat="46.2307" lon="5.91267">
        <ele>1441.8</ele>
      </trkpt>
      <trkpt lat="46.23114" lon="5.91295">
        <ele>1436.9</ele>
      </trkpt>
      <trkpt lat="46.23139" lon="5.91328">
        <ele>1446.2</ele>
      </trkpt>
      <trkpt lat="46.23168" lon="5.91357">
        <ele>1450</ele>
      </trkpt>
      <trkpt lat="46.23181" lon="5.91389">
        <ele>1450.8</ele>
      </trkpt>
      <trkpt lat="46.23204" lon="5.91422">
        <ele>1449</ele>
      </trkpt>
      <trkpt lat="46.23244" lon="5.91434">
        <ele>1436.2</ele>
      </trkpt>
      <trkpt lat="46.23272" lon="5.91464">
        <ele>1433.8</ele>
      </trkpt>
      <trkpt lat="46.23301" lon="5.91497">
        <ele>1434.8</ele>
      </trkpt>
      <trkpt lat="46.23324" lon="5.91528">
        <ele>1434.8</ele>
      </trkpt>
      <trkpt lat="46.23347" lon="5.9155">
        <ele>1433.9</ele>
      </trkpt>
      <trkpt lat="46.23382" lon="5.91609">
        <ele>1446.2</ele>
      </trkpt>
      <trkpt lat="46.23425" lon="5.91652">
        <ele>1452.9</ele>
      </trkpt>
      <trkpt lat="46.23451" lon="5.91679">
        <ele>1456.3</ele>
      </trkpt>
      <trkpt lat="46.23459" lon="5.91712">
        <ele>1467.5</ele>
      </trkpt>
      <trkpt lat="46.23443" lon="5.91801">
        <ele>1487</ele>
      </trkpt>
      <trkpt lat="46.23453" lon="5.91836">
        <ele>1498.3</ele>
      </trkpt>
      <trkpt lat="46.2345" lon="5.91871">
        <ele>1500.4</ele>
      </trkpt>
      <trkpt lat="46.23456" lon="5.91904">
        <ele>1507.5</ele>
      </trkpt>
      <trkpt lat="46.23457" lon="5.91932">
        <ele>1508.9</ele>
      </trkpt>
      <trkpt lat="46.23461" lon="5.9194">
        <ele>1511</ele>
      </trkpt>
      <trkpt lat="46.23476" lon="5.91943">
        <ele>1518</ele>
      </trkpt>
      <trkpt lat="46.23486" lon="5.91937">
        <ele>1523.3</ele>
      </trkpt>
      <trkpt lat="46.23495" lon="5.91928">
        <ele>1527.8</ele>
      </trkpt>
      <trkpt lat="46.23498" lon="5.91929">
        <ele>1529.5</ele>
      </trkpt>
      <trkpt lat="46.235" lon="5.91926">
        <ele>1530.7</ele>
      </trkpt>
      <trkpt lat="46.2351" lon="5.91917">
        <ele>1535.4</ele>
      </trkpt>
      <trkpt lat="46.23515" lon="5.91915">
        <ele>1537.2</ele>
      </trkpt>
      <trkpt lat="46.23526" lon="5.91901">
        <ele>1539.8</ele>
      </trkpt>
      <trkpt lat="46.23529" lon="5.91902">
        <ele>1541.1</ele>
      </trkpt>
      <trkpt lat="46.23543" lon="5.9188">
        <ele>1543.4</ele>
      </trkpt>
      <trkpt lat="46.2356" lon="5.91867">
        <ele>1547.5</ele>
      </trkpt>
      <trkpt lat="46.23571" lon="5.91859">
        <ele>1549.6</ele>
      </trkpt>
      <trkpt lat="46.23582" lon="5.9186">
        <ele>1553.3</ele>
      </trkpt>
      <trkpt lat="46.23595" lon="5.91872">
        <ele>1558.6</ele>
      </trkpt>
      <trkpt lat="46.23603" lon="5.91887">
        <ele>1563.8</ele>
      </trkpt>
      <trkpt lat="46.23618" lon="5.91903">
        <ele>1571</ele>
      </trkpt>
      <trkpt lat="46.23634" lon="5.91915">
        <ele>1578.5</ele>
      </trkpt>
      <trkpt lat="46.23692" lon="5.91931">
        <ele>1590.2</ele>
      </trkpt>
      <trkpt lat="46.23696" lon="5.91926">
        <ele>1591.4</ele>
      </trkpt>
      <trkpt lat="46.23736" lon="5.91939">
        <ele>1596.4</ele>
      </trkpt>
      <trkpt lat="46.23762" lon="5.91938">
        <ele>1596.9</ele>
      </trkpt>
      <trkpt lat="46.2381" lon="5.9195">
        <ele>1591.7</ele>
      </trkpt>
      <trkpt lat="46.2383" lon="5.91975">
        <ele>1598</ele>
      </trkpt>
      <trkpt lat="46.23832" lon="5.91977">
        <ele>1598.8</ele>
      </trkpt>
      <trkpt lat="46.23843" lon="5.91989">
        <ele>1604.3</ele>
      </trkpt>
      <trkpt lat="46.23851" lon="5.92005">
        <ele>1608.9</ele>
      </trkpt>
      <trkpt lat="46.23878" lon="5.92022">
        <ele>1609.6</ele>
      </trkpt>
      <trkpt lat="46.23893" lon="5.92028">
        <ele>1611.4</ele>
      </trkpt>
      <trkpt lat="46.23945" lon="5.92047">
        <ele>1611.8</ele>
      </trkpt>
      <trkpt lat="46.23982" lon="5.92058">
        <ele>1611.6</ele>
      </trkpt>
      <trkpt lat="46.24007" lon="5.92055">
        <ele>1610.9</ele>
      </trkpt>
      <trkpt lat="46.24021" lon="5.92051">
        <ele>1608.6</ele>
      </trkpt>
      <trkpt lat="46.24034" lon="5.92045">
        <ele>1605.5</ele>
      </trkpt>
      <trkpt lat="46.24042" lon="5.92045">
        <ele>1604.4</ele>
      </trkpt>
      <trkpt lat="46.24076" lon="5.92069">
        <ele>1605.2</ele>
      </trkpt>
      <trkpt lat="46.24145" lon="5.92081">
        <ele>1603.8</ele>
      </trkpt>
      <trkpt lat="46.24172" lon="5.92093">
        <ele>1600.4</ele>
      </trkpt>
      <trkpt lat="46.24208" lon="5.92107">
        <ele>1589.1</ele>
      </trkpt>
      <trkpt lat="46.24259" lon="5.92143">
        <ele>1587.2</ele>
      </trkpt>
      <trkpt lat="46.24284" lon="5.92163">
        <ele>1596.3</ele>
      </trkpt>
      <trkpt lat="46.24309" lon="5.92175">
        <ele>1601.3</ele>
      </trkpt>
      <trkpt lat="46.24347" lon="5.92187">
        <ele>1606.6</ele>
      </trkpt>
      <trkpt lat="46.24372" lon="5.92209">
        <ele>1612</ele>
      </trkpt>
      <trkpt lat="46.2439" lon="5.92235">
        <ele>1620.2</ele>
      </trkpt>
      <trkpt lat="46.24407" lon="5.92254">
        <ele>1628.4</ele>
      </trkpt>
      <trkpt lat="46.24503" lon="5.9233">
        <ele>1650.8</ele>
      </trkpt>
      <trkpt lat="46.2453" lon="5.92348">
        <ele>1650.1</ele>
      </trkpt>
      <trkpt lat="46.24542" lon="5.92347">
        <ele>1652.1</ele>
      </trkpt>
      <trkpt lat="46.2455" lon="5.92354">
        <ele>1651.1</ele>
      </trkpt>
      <trkpt lat="46.24568" lon="5.92358">
        <ele>1652.4</ele>
      </trkpt>
      <trkpt lat="46.24573" lon="5.92354">
        <ele>1654.3</ele>
      </trkpt>
      <trkpt lat="46.24582" lon="5.92361">
        <ele>1653.5</ele>
      </trkpt>
      <trkpt lat="46.2461" lon="5.92357">
        <ele>1657.6</ele>
      </trkpt>
      <trkpt lat="46.24623" lon="5.92371">
        <ele>1655.5</ele>
      </trkpt>
      <trkpt lat="46.24636" lon="5.92372">
        <ele>1656.8</ele>
      </trkpt>
      <trkpt lat="46.24681" lon="5.92394">
        <ele>1658.9</ele>
      </trkpt>
      <trkpt lat="46.24723" lon="5.9242">
        <ele>1662.1</ele>
      </trkpt>
      <trkpt lat="46.24745" lon="5.92433">
        <ele>1662.9</ele>
      </trkpt>
      <trkpt lat="46.24758" lon="5.92439">
        <ele>1661.6</ele>
      </trkpt>
      <trkpt lat="46.24763" lon="5.92441">
        <ele>1660.7</ele>
      </trkpt>
      <trkpt lat="46.24779" lon="5.92441">
        <ele>1659.2</ele>
      </trkpt>
      <trkpt lat="46.24793" lon="5.92439">
        <ele>1658.6</ele>
      </trkpt>
      <trkpt lat="46.24801" lon="5.92437">
        <ele>1658.8</ele>
      </trkpt>
      <trkpt lat="46.24809" lon="5.92431">
        <ele>1660.3</ele>
      </trkpt>
      <trkpt lat="46.24829" lon="5.92414">
        <ele>1666.5</ele>
      </trkpt>
      <trkpt lat="46.24847" lon="5.92406">
        <ele>1663.8</ele>
      </trkpt>
      <trkpt lat="46.2485" lon="5.92405">
        <ele>1663</ele>
      </trkpt>
      <trkpt lat="46.24859" lon="5.92403">
        <ele>1660.6</ele>
      </trkpt>
      <trkpt lat="46.24864" lon="5.92402">
        <ele>1659.4</ele>
      </trkpt>
      <trkpt lat="46.24873" lon="5.92396">
        <ele>1657.9</ele>
      </trkpt>
      <trkpt lat="46.24887" lon="5.92382">
        <ele>1656.3</ele>
      </trkpt>
      <trkpt lat="46.24894" lon="5.92372">
        <ele>1656</ele>
      </trkpt>
      <trkpt lat="46.24901" lon="5.92369">
        <ele>1654.7</ele>
      </trkpt>
      <trkpt lat="46.24912" lon="5.92362">
        <ele>1652.9</ele>
      </trkpt>
      <trkpt lat="46.24941" lon="5.92348">
        <ele>1651.8</ele>
      </trkpt>
      <trkpt lat="46.24954" lon="5.92342">
        <ele>1651.6</ele>
      </trkpt>
      <trkpt lat="46.24969" lon="5.92336">
        <ele>1651.5</ele>
      </trkpt>
      <trkpt lat="46.24993" lon="5.92329">
        <ele>1649.1</ele>
      </trkpt>
      <trkpt lat="46.25007" lon="5.9232">
        <ele>1648</ele>
      </trkpt>
      <trkpt lat="46.25017" lon="5.92317">
        <ele>1648.1</ele>
      </trkpt>
      <trkpt lat="46.25026" lon="5.92316">
        <ele>1648.4</ele>
      </trkpt>
      <trkpt lat="46.25051" lon="5.92315">
        <ele>1649.5</ele>
      </trkpt>
      <trkpt lat="46.25064" lon="5.92313">
        <ele>1649.7</ele>
      </trkpt>
      <trkpt lat="46.25077" lon="5.92315">
        <ele>1650.6</ele>
      </trkpt>
      <trkpt lat="46.25094" lon="5.92319">
        <ele>1651.6</ele>
      </trkpt>
      <trkpt lat="46.25104" lon="5.92324">
        <ele>1652.2</ele>
      </trkpt>
      <trkpt lat="46.25111" lon="5.92326">
        <ele>1652.3</ele>
      </trkpt>
      <trkpt lat="46.2512" lon="5.92328">
        <ele>1652.2</ele>
      </trkpt>
      <trkpt lat="46.25126" lon="5.9233">
        <ele>1652.4</ele>
      </trkpt>
      <trkpt lat="46.2514" lon="5.92338">
        <ele>1653</ele>
      </trkpt>
      <trkpt lat="46.25151" lon="5.92345">
        <ele>1653.9</ele>
      </trkpt>
      <trkpt lat="46.25164" lon="5.92356">
        <ele>1655.6</ele>
      </trkpt>
      <trkpt lat="46.25192" lon="5.92381">
        <ele>1660.1</ele>
      </trkpt>
      <trkpt lat="46.25218" lon="5.92397">
        <ele>1661.6</ele>
      </trkpt>
      <trkpt lat="46.25227" lon="5.92405">
        <ele>1662.2</ele>
      </trkpt>
      <trkpt lat="46.25242" lon="5.92424">
        <ele>1663.3</ele>
      </trkpt>
      <trkpt lat="46.25264" lon="5.92447">
        <ele>1665.6</ele>
      </trkpt>
      <trkpt lat="46.2527" lon="5.92452">
        <ele>1666.1</ele>
      </trkpt>
      <trkpt lat="46.25275" lon="5.92455">
        <ele>1666.4</ele>
      </trkpt>
      <trkpt lat="46.25282" lon="5.92458">
        <ele>1666.5</ele>
      </trkpt>
      <trkpt lat="46.25292" lon="5.92462">
        <ele>1666.8</ele>
      </trkpt>
      <trkpt lat="46.25305" lon="5.92472">
        <ele>1667.3</ele>
      </trkpt>
      <trkpt lat="46.25318" lon="5.92477">
        <ele>1667.3</ele>
      </trkpt>
      <trkpt lat="46.25329" lon="5.92476">
        <ele>1667</ele>
      </trkpt>
      <trkpt lat="46.25348" lon="5.92481">
        <ele>1667.6</ele>
      </trkpt>
      <trkpt lat="46.25372" lon="5.92482">
        <ele>1668.6</ele>
      </trkpt>
      <trkpt lat="46.25386" lon="5.92484">
        <ele>1669.2</ele>
      </trkpt>
      <trkpt lat="46.25394" lon="5.92486">
        <ele>1669.6</ele>
      </trkpt>
      <trkpt lat="46.25402" lon="5.92489">
        <ele>1670</ele>
      </trkpt>
      <trkpt lat="46.25407" lon="5.92494">
        <ele>1670.4</ele>
      </trkpt>
      <trkpt lat="46.25412" lon="5.925">
        <ele>1670.8</ele>
      </trkpt>
      <trkpt lat="46.25416" lon="5.92508">
        <ele>1670</ele>
      </trkpt>
      <trkpt lat="46.25419" lon="5.92517">
        <ele>1668.3</ele>
      </trkpt>
      <trkpt lat="46.25423" lon="5.92529">
        <ele>1666</ele>
      </trkpt>
      <trkpt lat="46.25425" lon="5.92535">
        <ele>1664.8</ele>
      </trkpt>
      <trkpt lat="46.25431" lon="5.92542">
        <ele>1663</ele>
      </trkpt>
      <trkpt lat="46.25434" lon="5.92547">
        <ele>1662</ele>
      </trkpt>
      <trkpt lat="46.25436" lon="5.92553">
        <ele>1660.8</ele>
      </trkpt>
      <trkpt lat="46.25441" lon="5.92565">
        <ele>1658.8</ele>
      </trkpt>
      <trkpt lat="46.25447" lon="5.92574">
        <ele>1657</ele>
      </trkpt>
      <trkpt lat="46.25454" lon="5.92582">
        <ele>1655.1</ele>
      </trkpt>
      <trkpt lat="46.25479" lon="5.92606">
        <ele>1648.7</ele>
      </trkpt>
      <trkpt lat="46.25491" lon="5.92614">
        <ele>1646.9</ele>
      </trkpt>
      <trkpt lat="46.25513" lon="5.92627">
        <ele>1644.4</ele>
      </trkpt>
      <trkpt lat="46.25519" lon="5.92632">
        <ele>1643.9</ele>
      </trkpt>
      <trkpt lat="46.25528" lon="5.9264">
        <ele>1643.4</ele>
      </trkpt>
      <trkpt lat="46.25544" lon="5.92656">
        <ele>1644</ele>
      </trkpt>
      <trkpt lat="46.25544" lon="5.92666">
        <ele>1644.6</ele>
      </trkpt>
      <trkpt lat="46.25545" lon="5.92674">
        <ele>1644.9</ele>
      </trkpt>
      <trkpt lat="46.2555" lon="5.92683">
        <ele>1645.7</ele>
      </trkpt>
      <trkpt lat="46.25551" lon="5.92689">
        <ele>1646.1</ele>
      </trkpt>
      <trkpt lat="46.25553" lon="5.92697">
        <ele>1646.6</ele>
      </trkpt>
      <trkpt lat="46.25555" lon="5.92703">
        <ele>1647.2</ele>
      </trkpt>
      <trkpt lat="46.2556" lon="5.92711">
        <ele>1648.5</ele>
      </trkpt>
      <trkpt lat="46.25564" lon="5.9272">
        <ele>1649.9</ele>
      </trkpt>
      <trkpt lat="46.25567" lon="5.92726">
        <ele>1650.8</ele>
      </trkpt>
      <trkpt lat="46.25567" lon="5.92731">
        <ele>1651.4</ele>
      </trkpt>
      <trkpt lat="46.2557" lon="5.92738">
        <ele>1652.5</ele>
      </trkpt>
      <trkpt lat="46.25575" lon="5.92746">
        <ele>1654.4</ele>
      </trkpt>
      <trkpt lat="46.2558" lon="5.92753">
        <ele>1656.4</ele>
      </trkpt>
      <trkpt lat="46.25584" lon="5.92764">
        <ele>1658.9</ele>
      </trkpt>
      <trkpt lat="46.25587" lon="5.92773">
        <ele>1660.4</ele>
      </trkpt>
      <trkpt lat="46.25587" lon="5.92778">
        <ele>1661.1</ele>
      </trkpt>
      <trkpt lat="46.25588" lon="5.92783">
        <ele>1661.7</ele>
      </trkpt>
      <trkpt lat="46.25591" lon="5.92807">
        <ele>1665.2</ele>
      </trkpt>
      <trkpt lat="46.25597" lon="5.92822">
        <ele>1668</ele>
      </trkpt>
      <trkpt lat="46.25605" lon="5.92832">
        <ele>1670.1</ele>
      </trkpt>
      <trkpt lat="46.25609" lon="5.92843">
        <ele>1671.9</ele>
      </trkpt>
      <trkpt lat="46.25622" lon="5.92861">
        <ele>1675.8</ele>
      </trkpt>
      <trkpt lat="46.25627" lon="5.92868">
        <ele>1677.5</ele>
      </trkpt>
      <trkpt lat="46.2563" lon="5.92875">
        <ele>1679.1</ele>
      </trkpt>
      <trkpt lat="46.2564" lon="5.92893">
        <ele>1683.5</ele>
      </trkpt>
      <trkpt lat="46.25654" lon="5.92918">
        <ele>1690.4</ele>
      </trkpt>
      <trkpt lat="46.25663" lon="5.92929">
        <ele>1692.9</ele>
      </trkpt>
      <trkpt lat="46.25671" lon="5.92939">
        <ele>1693.9</ele>
      </trkpt>
      <trkpt lat="46.25678" lon="5.9295">
        <ele>1693.7</ele>
      </trkpt>
      <trkpt lat="46.25686" lon="5.92963">
        <ele>1693.5</ele>
      </trkpt>
      <trkpt lat="46.25688" lon="5.92966">
        <ele>1693.5</ele>
      </trkpt>
      <trkpt lat="46.25691" lon="5.92967">
        <ele>1693.1</ele>
      </trkpt>
      <trkpt lat="46.25693" lon="5.92973">
        <ele>1693.2</ele>
      </trkpt>
      <trkpt lat="46.25697" lon="5.92975">
        <ele>1692.8</ele>
      </trkpt>
      <trkpt lat="46.25697" lon="5.92968">
        <ele>1692.5</ele>
      </trkpt>
      <trkpt lat="46.25694" lon="5.92961">
        <ele>1692.6</ele>
      </trkpt>
      <trkpt lat="46.25693" lon="5.92959">
        <ele>1692.6</ele>
      </trkpt>
      <trkpt lat="46.25693" lon="5.92952">
        <ele>1692.2</ele>
      </trkpt>
      <trkpt lat="46.25692" lon="5.92949">
        <ele>1692.1</ele>
      </trkpt>
      <trkpt lat="46.25688" lon="5.92944">
        <ele>1692.3</ele>
      </trkpt>
      <trkpt lat="46.25688" lon="5.92942">
        <ele>1692.3</ele>
      </trkpt>
      <trkpt lat="46.25688" lon="5.92941">
        <ele>1692.2</ele>
      </trkpt>
      <trkpt lat="46.25691" lon="5.9294">
        <ele>1691.8</ele>
      </trkpt>
      <trkpt lat="46.25696" lon="5.9294">
        <ele>1691.2</ele>
      </trkpt>
      <trkpt lat="46.25702" lon="5.92936">
        <ele>1690.5</ele>
      </trkpt>
      <trkpt lat="46.25705" lon="5.92933">
        <ele>1690</ele>
      </trkpt>
      <trkpt lat="46.25708" lon="5.92931">
        <ele>1689.7</ele>
      </trkpt>
      <trkpt lat="46.25712" lon="5.92928">
        <ele>1689.1</ele>
      </trkpt>
      <trkpt lat="46.25716" lon="5.92927">
        <ele>1688.7</ele>
      </trkpt>
      <trkpt lat="46.25718" lon="5.92917">
        <ele>1688.1</ele>
      </trkpt>
      <trkpt lat="46.2572" lon="5.92916">
        <ele>1687.7</ele>
      </trkpt>
      <trkpt lat="46.25722" lon="5.92915">
        <ele>1687.4</ele>
      </trkpt>
      <trkpt lat="46.25725" lon="5.92915">
        <ele>1687.2</ele>
      </trkpt>
      <trkpt lat="46.2573" lon="5.92911">
        <ele>1686</ele>
      </trkpt>
      <trkpt lat="46.25732" lon="5.92909">
        <ele>1685.4</ele>
      </trkpt>
      <trkpt lat="46.25741" lon="5.92902">
        <ele>1683.2</ele>
      </trkpt>
      <trkpt lat="46.25747" lon="5.92901">
        <ele>1682.4</ele>
      </trkpt>
      <trkpt lat="46.25755" lon="5.92902">
        <ele>1680.8</ele>
      </trkpt>
      <trkpt lat="46.25777" lon="5.9292">
        <ele>1676.9</ele>
      </trkpt>
      <trkpt lat="46.2579" lon="5.92932">
        <ele>1673.6</ele>
      </trkpt>
      <trkpt lat="46.25796" lon="5.92941">
        <ele>1672</ele>
      </trkpt>
      <trkpt lat="46.25806" lon="5.92951">
        <ele>1669.7</ele>
      </trkpt>
      <trkpt lat="46.2581" lon="5.92961">
        <ele>1668.9</ele>
      </trkpt>
      <trkpt lat="46.25811" lon="5.92963">
        <ele>1668.5</ele>
      </trkpt>
      <trkpt lat="46.25815" lon="5.92971">
        <ele>1667.7</ele>
      </trkpt>
      <trkpt lat="46.25825" lon="5.92977">
        <ele>1665.3</ele>
      </trkpt>
      <trkpt lat="46.25836" lon="5.92984">
        <ele>1662.5</ele>
      </trkpt>
      <trkpt lat="46.25841" lon="5.92989">
        <ele>1661.1</ele>
      </trkpt>
      <trkpt lat="46.25845" lon="5.92995">
        <ele>1660.1</ele>
      </trkpt>
      <trkpt lat="46.25851" lon="5.93">
        <ele>1658.4</ele>
      </trkpt>
      <trkpt lat="46.25867" lon="5.9302">
        <ele>1653.2</ele>
      </trkpt>
      <trkpt lat="46.25878" lon="5.93029">
        <ele>1650.2</ele>
      </trkpt>
      <trkpt lat="46.25882" lon="5.93034">
        <ele>1649.2</ele>
      </trkpt>
      <trkpt lat="46.25896" lon="5.93044">
        <ele>1646.3</ele>
      </trkpt>
      <trkpt lat="46.25905" lon="5.93052">
        <ele>1644.9</ele>
      </trkpt>
      <trkpt lat="46.2592" lon="5.93066">
        <ele>1642.9</ele>
      </trkpt>
      <trkpt lat="46.25923" lon="5.93064">
        <ele>1642.2</ele>
      </trkpt>
      <trkpt lat="46.25929" lon="5.93074">
        <ele>1642.2</ele>
      </trkpt>
      <trkpt lat="46.25933" lon="5.93079">
        <ele>1642</ele>
      </trkpt>
      <trkpt lat="46.25942" lon="5.93086">
        <ele>1641</ele>
      </trkpt>
      <trkpt lat="46.25953" lon="5.93095">
        <ele>1639.3</ele>
      </trkpt>
      <trkpt lat="46.25965" lon="5.93105">
        <ele>1637.7</ele>
      </trkpt>
      <trkpt lat="46.25978" lon="5.93114">
        <ele>1636.5</ele>
      </trkpt>
      <trkpt lat="46.26004" lon="5.93131">
        <ele>1635.3</ele>
      </trkpt>
      <trkpt lat="46.26025" lon="5.93146">
        <ele>1636.2</ele>
      </trkpt>
      <trkpt lat="46.26039" lon="5.93157">
        <ele>1637.5</ele>
      </trkpt>
      <trkpt lat="46.2605" lon="5.93164">
        <ele>1638.7</ele>
      </trkpt>
      <trkpt lat="46.26062" lon="5.93169">
        <ele>1639.5</ele>
      </trkpt>
      <trkpt lat="46.26067" lon="5.93172">
        <ele>1639.7</ele>
      </trkpt>
      <trkpt lat="46.26071" lon="5.93173">
        <ele>1639.9</ele>
      </trkpt>
      <trkpt lat="46.26076" lon="5.93173">
        <ele>1640</ele>
      </trkpt>
      <trkpt lat="46.26084" lon="5.93172">
        <ele>1640.3</ele>
      </trkpt>
      <trkpt lat="46.26099" lon="5.93169">
        <ele>1641.1</ele>
      </trkpt>
      <trkpt lat="46.26118" lon="5.93167">
        <ele>1642.1</ele>
      </trkpt>
      <trkpt lat="46.26124" lon="5.93167">
        <ele>1642.5</ele>
      </trkpt>
      <trkpt lat="46.2613" lon="5.93168">
        <ele>1643</ele>
      </trkpt>
      <trkpt lat="46.26134" lon="5.9317">
        <ele>1643.4</ele>
      </trkpt>
      <trkpt lat="46.26144" lon="5.93176">
        <ele>1644.7</ele>
      </trkpt>
      <trkpt lat="46.26158" lon="5.93186">
        <ele>1646.8</ele>
      </trkpt>
      <trkpt lat="46.26166" lon="5.93193">
        <ele>1648.5</ele>
      </trkpt>
      <trkpt lat="46.26175" lon="5.93195">
        <ele>1648.7</ele>
      </trkpt>
      <trkpt lat="46.26185" lon="5.93192">
        <ele>1648.2</ele>
      </trkpt>
      <trkpt lat="46.26196" lon="5.93182">
        <ele>1646.6</ele>
      </trkpt>
      <trkpt lat="46.26227" lon="5.93186">
        <ele>1647</ele>
      </trkpt>
      <trkpt lat="46.26247" lon="5.93189">
        <ele>1647.4</ele>
      </trkpt>
      <trkpt lat="46.26261" lon="5.93203">
        <ele>1648.4</ele>
      </trkpt>
      <trkpt lat="46.2628" lon="5.9322">
        <ele>1648.6</ele>
      </trkpt>
      <trkpt lat="46.263" lon="5.93233">
        <ele>1647.5</ele>
      </trkpt>
      <trkpt lat="46.26345" lon="5.93265">
        <ele>1645</ele>
      </trkpt>
      <trkpt lat="46.26365" lon="5.9328">
        <ele>1645.8</ele>
      </trkpt>
      <trkpt lat="46.26375" lon="5.93292">
        <ele>1645.7</ele>
      </trkpt>
      <trkpt lat="46.26385" lon="5.93297">
        <ele>1645.7</ele>
      </trkpt>
      <trkpt lat="46.26408" lon="5.93306">
        <ele>1645.5</ele>
      </trkpt>
      <trkpt lat="46.26415" lon="5.93307">
        <ele>1645.5</ele>
      </trkpt>
      <trkpt lat="46.26424" lon="5.93315">
        <ele>1645.7</ele>
      </trkpt>
      <trkpt lat="46.26437" lon="5.9332">
        <ele>1646.8</ele>
      </trkpt>
      <trkpt lat="46.26443" lon="5.93316">
        <ele>1647.8</ele>
      </trkpt>
      <trkpt lat="46.26446" lon="5.93312">
        <ele>1648.6</ele>
      </trkpt>
      <trkpt lat="46.26454" lon="5.93316">
        <ele>1649.2</ele>
      </trkpt>
      <trkpt lat="46.2646" lon="5.93318">
        <ele>1649.6</ele>
      </trkpt>
      <trkpt lat="46.26465" lon="5.93314">
        <ele>1650.7</ele>
      </trkpt>
      <trkpt lat="46.26471" lon="5.93312">
        <ele>1651.6</ele>
      </trkpt>
      <trkpt lat="46.26476" lon="5.93314">
        <ele>1652.1</ele>
      </trkpt>
      <trkpt lat="46.26484" lon="5.93319">
        <ele>1652.4</ele>
      </trkpt>
      <trkpt lat="46.26491" lon="5.93321">
        <ele>1653.2</ele>
      </trkpt>
      <trkpt lat="46.26495" lon="5.93327">
        <ele>1653.1</ele>
      </trkpt>
      <trkpt lat="46.26518" lon="5.93348">
        <ele>1658.1</ele>
      </trkpt>
      <trkpt lat="46.26524" lon="5.93347">
        <ele>1659.8</ele>
      </trkpt>
      <trkpt lat="46.26547" lon="5.93372">
        <ele>1666.1</ele>
      </trkpt>
      <trkpt lat="46.26584" lon="5.93407">
        <ele>1675.2</ele>
      </trkpt>
      <trkpt lat="46.26614" lon="5.93421">
        <ele>1676.4</ele>
      </trkpt>
      <trkpt lat="46.2664" lon="5.93445">
        <ele>1675.2</ele>
      </trkpt>
      <trkpt lat="46.26658" lon="5.93457">
        <ele>1675</ele>
      </trkpt>
      <trkpt lat="46.26669" lon="5.93462">
        <ele>1674.8</ele>
      </trkpt>
      <trkpt lat="46.26673" lon="5.93467">
        <ele>1673.6</ele>
      </trkpt>
      <trkpt lat="46.26682" lon="5.9347">
        <ele>1672.2</ele>
      </trkpt>
      <trkpt lat="46.26687" lon="5.93474">
        <ele>1671.4</ele>
      </trkpt>
      <trkpt lat="46.26692" lon="5.9348">
        <ele>1670.5</ele>
      </trkpt>
      <trkpt lat="46.26696" lon="5.93488">
        <ele>1669.8</ele>
      </trkpt>
      <trkpt lat="46.26699" lon="5.93497">
        <ele>1669.5</ele>
      </trkpt>
      <trkpt lat="46.26703" lon="5.93502">
        <ele>1669.1</ele>
      </trkpt>
      <trkpt lat="46.26705" lon="5.93508">
        <ele>1668.6</ele>
      </trkpt>
      <trkpt lat="46.26706" lon="5.93517">
        <ele>1668</ele>
      </trkpt>
      <trkpt lat="46.26717" lon="5.93532">
        <ele>1667.5</ele>
      </trkpt>
      <trkpt lat="46.26719" lon="5.93534">
        <ele>1667.5</ele>
      </trkpt>
      <trkpt lat="46.26722" lon="5.93539">
        <ele>1667.5</ele>
      </trkpt>
      <trkpt lat="46.26726" lon="5.93545">
        <ele>1667.8</ele>
      </trkpt>
      <trkpt lat="46.2673" lon="5.93552">
        <ele>1668.1</ele>
      </trkpt>
      <trkpt lat="46.26734" lon="5.93559">
        <ele>1668.6</ele>
      </trkpt>
      <trkpt lat="46.26738" lon="5.93561">
        <ele>1669.1</ele>
      </trkpt>
      <trkpt lat="46.2674" lon="5.93562">
        <ele>1669.5</ele>
      </trkpt>
      <trkpt lat="46.26745" lon="5.93565">
        <ele>1670.2</ele>
      </trkpt>
      <trkpt lat="46.2675" lon="5.9357">
        <ele>1671.1</ele>
      </trkpt>
      <trkpt lat="46.26753" lon="5.93573">
        <ele>1670.5</ele>
      </trkpt>
      <trkpt lat="46.26755" lon="5.93578">
        <ele>1670.2</ele>
      </trkpt>
      <trkpt lat="46.26758" lon="5.93591">
        <ele>1669.1</ele>
      </trkpt>
      <trkpt lat="46.2676" lon="5.936">
        <ele>1668</ele>
      </trkpt>
      <trkpt lat="46.26763" lon="5.93612">
        <ele>1666.5</ele>
      </trkpt>
      <trkpt lat="46.26768" lon="5.93626">
        <ele>1665</ele>
      </trkpt>
      <trkpt lat="46.26774" lon="5.93637">
        <ele>1664.1</ele>
      </trkpt>
      <trkpt lat="46.26778" lon="5.9364">
        <ele>1663.9</ele>
      </trkpt>
      <trkpt lat="46.2678" lon="5.9364">
        <ele>1663.8</ele>
      </trkpt>
      <trkpt lat="46.26782" lon="5.93645">
        <ele>1663.7</ele>
      </trkpt>
      <trkpt lat="46.26786" lon="5.93646">
        <ele>1663.6</ele>
      </trkpt>
      <trkpt lat="46.26787" lon="5.93646">
        <ele>1663.6</ele>
      </trkpt>
      <trkpt lat="46.26793" lon="5.93649">
        <ele>1663.6</ele>
      </trkpt>
      <trkpt lat="46.26802" lon="5.93654">
        <ele>1664</ele>
      </trkpt>
      <trkpt lat="46.26804" lon="5.93661">
        <ele>1664.7</ele>
      </trkpt>
      <trkpt lat="46.26809" lon="5.93664">
        <ele>1665.2</ele>
      </trkpt>
      <trkpt lat="46.26818" lon="5.93669">
        <ele>1666.2</ele>
      </trkpt>
      <trkpt lat="46.26823" lon="5.93675">
        <ele>1666.7</ele>
      </trkpt>
      <trkpt lat="46.26829" lon="5.9368">
        <ele>1667.4</ele>
      </trkpt>
      <trkpt lat="46.26834" lon="5.93684">
        <ele>1667.9</ele>
      </trkpt>
      <trkpt lat="46.26834" lon="5.93684">
        <ele>1667.9</ele>
      </trkpt>
      <trkpt lat="46.26842" lon="5.93686">
        <ele>1666.8</ele>
      </trkpt>
      <trkpt lat="46.26849" lon="5.93687">
        <ele>1665.9</ele>
      </trkpt>
      <trkpt lat="46.26855" lon="5.9369">
        <ele>1665.4</ele>
      </trkpt>
      <trkpt lat="46.26859" lon="5.93695">
        <ele>1665.6</ele>
      </trkpt>
      <trkpt lat="46.2686" lon="5.937">
        <ele>1666.2</ele>
      </trkpt>
      <trkpt lat="46.26861" lon="5.93705">
        <ele>1666.9</ele>
      </trkpt>
      <trkpt lat="46.26866" lon="5.93709">
        <ele>1667</ele>
      </trkpt>
      <trkpt lat="46.2687" lon="5.93717">
        <ele>1668.2</ele>
      </trkpt>
      <trkpt lat="46.2687" lon="5.93721">
        <ele>1669</ele>
      </trkpt>
      <trkpt lat="46.26872" lon="5.93731">
        <ele>1670.7</ele>
      </trkpt>
      <trkpt lat="46.26877" lon="5.93741">
        <ele>1672.8</ele>
      </trkpt>
      <trkpt lat="46.26877" lon="5.93742">
        <ele>1672.9</ele>
      </trkpt>
      <trkpt lat="46.2688" lon="5.93752">
        <ele>1674.8</ele>
      </trkpt>
      <trkpt lat="46.26887" lon="5.93759">
        <ele>1675.4</ele>
      </trkpt>
      <trkpt lat="46.26893" lon="5.93761">
        <ele>1675.8</ele>
      </trkpt>
      <trkpt lat="46.26899" lon="5.93764">
        <ele>1676.4</ele>
      </trkpt>
      <trkpt lat="46.26905" lon="5.93763">
        <ele>1676.7</ele>
      </trkpt>
      <trkpt lat="46.2691" lon="5.93768">
        <ele>1677.3</ele>
      </trkpt>
      <trkpt lat="46.26922" lon="5.93775">
        <ele>1678</ele>
      </trkpt>
      <trkpt lat="46.26929" lon="5.93783">
        <ele>1678.4</ele>
      </trkpt>
      <trkpt lat="46.26932" lon="5.93789">
        <ele>1679</ele>
      </trkpt>
      <trkpt lat="46.26945" lon="5.9381">
        <ele>1681.5</ele>
      </trkpt>
      <trkpt lat="46.26951" lon="5.93819">
        <ele>1683</ele>
      </trkpt>
      <trkpt lat="46.26962" lon="5.93829">
        <ele>1685.7</ele>
      </trkpt>
      <trkpt lat="46.26968" lon="5.93836">
        <ele>1687</ele>
      </trkpt>
      <trkpt lat="46.26973" lon="5.93847">
        <ele>1686.6</ele>
      </trkpt>
      <trkpt lat="46.26976" lon="5.93851">
        <ele>1686.7</ele>
      </trkpt>
      <trkpt lat="46.26979" lon="5.93853">
        <ele>1687</ele>
      </trkpt>
      <trkpt lat="46.26983" lon="5.93856">
        <ele>1687.2</ele>
      </trkpt>
      <trkpt lat="46.26984" lon="5.93863">
        <ele>1686.9</ele>
      </trkpt>
      <trkpt lat="46.26996" lon="5.93882">
        <ele>1687.4</ele>
      </trkpt>
      <trkpt lat="46.27" lon="5.93886">
        <ele>1687.9</ele>
      </trkpt>
      <trkpt lat="46.27009" lon="5.93892">
        <ele>1687.8</ele>
      </trkpt>
      <trkpt lat="46.27015" lon="5.93894">
        <ele>1688</ele>
      </trkpt>
      <trkpt lat="46.27021" lon="5.93896">
        <ele>1688.2</ele>
      </trkpt>
      <trkpt lat="46.27024" lon="5.93896">
        <ele>1688.4</ele>
      </trkpt>
      <trkpt lat="46.27027" lon="5.93901">
        <ele>1688.6</ele>
      </trkpt>
      <trkpt lat="46.27032" lon="5.93907">
        <ele>1689.1</ele>
      </trkpt>
      <trkpt lat="46.27032" lon="5.93908">
        <ele>1689.2</ele>
      </trkpt>
      <trkpt lat="46.27035" lon="5.9391">
        <ele>1689.5</ele>
      </trkpt>
      <trkpt lat="46.27037" lon="5.93914">
        <ele>1689.9</ele>
      </trkpt>
      <trkpt lat="46.27039" lon="5.93916">
        <ele>1690.2</ele>
      </trkpt>
      <trkpt lat="46.27045" lon="5.93921">
        <ele>1691</ele>
      </trkpt>
      <trkpt lat="46.27047" lon="5.93924">
        <ele>1691.4</ele>
      </trkpt>
      <trkpt lat="46.27052" lon="5.93927">
        <ele>1692</ele>
      </trkpt>
      <trkpt lat="46.27055" lon="5.93929">
        <ele>1692.6</ele>
      </trkpt>
      <trkpt lat="46.27059" lon="5.93932">
        <ele>1693.2</ele>
      </trkpt>
      <trkpt lat="46.27063" lon="5.93935">
        <ele>1694</ele>
      </trkpt>
      <trkpt lat="46.27069" lon="5.93941">
        <ele>1695.2</ele>
      </trkpt>
      <trkpt lat="46.27076" lon="5.93946">
        <ele>1696.6</ele>
      </trkpt>
      <trkpt lat="46.27081" lon="5.93952">
        <ele>1698.1</ele>
      </trkpt>
      <trkpt lat="46.27084" lon="5.93953">
        <ele>1698</ele>
      </trkpt>
      <trkpt lat="46.27083" lon="5.93955">
        <ele>1698.6</ele>
      </trkpt>
      <trkpt lat="46.27082" lon="5.93959">
        <ele>1698.8</ele>
      </trkpt>
      <trkpt lat="46.27082" lon="5.93963">
        <ele>1699.2</ele>
      </trkpt>
      <trkpt lat="46.27082" lon="5.93968">
        <ele>1699.7</ele>
      </trkpt>
      <trkpt lat="46.27083" lon="5.93972">
        <ele>1700.3</ele>
      </trkpt>
      <trkpt lat="46.27085" lon="5.93978">
        <ele>1700</ele>
      </trkpt>
      <trkpt lat="46.27087" lon="5.93984">
        <ele>1700.2</ele>
      </trkpt>
      <trkpt lat="46.27088" lon="5.9399">
        <ele>1700.3</ele>
      </trkpt>
      <trkpt lat="46.27089" lon="5.93995">
        <ele>1700.4</ele>
      </trkpt>
      <trkpt lat="46.27089" lon="5.93999">
        <ele>1700.6</ele>
      </trkpt>
      <trkpt lat="46.27091" lon="5.94003">
        <ele>1699.8</ele>
      </trkpt>
      <trkpt lat="46.27094" lon="5.94004">
        <ele>1698.7</ele>
      </trkpt>
      <trkpt lat="46.27103" lon="5.94006">
        <ele>1695.2</ele>
      </trkpt>
      <trkpt lat="46.27107" lon="5.94012">
        <ele>1693.6</ele>
      </trkpt>
      <trkpt lat="46.27107" lon="5.94022">
        <ele>1693.6</ele>
      </trkpt>
      <trkpt lat="46.27107" lon="5.94029">
        <ele>1693.4</ele>
      </trkpt>
      <trkpt lat="46.27108" lon="5.94038">
        <ele>1692.8</ele>
      </trkpt>
      <trkpt lat="46.27112" lon="5.94047">
        <ele>1691.9</ele>
      </trkpt>
      <trkpt lat="46.2711" lon="5.94054">
        <ele>1692.1</ele>
      </trkpt>
      <trkpt lat="46.27112" lon="5.94058">
        <ele>1691.7</ele>
      </trkpt>
      <trkpt lat="46.27117" lon="5.94063">
        <ele>1690.7</ele>
      </trkpt>
      <trkpt lat="46.27118" lon="5.94067">
        <ele>1690.7</ele>
      </trkpt>
      <trkpt lat="46.27118" lon="5.94076">
        <ele>1690.8</ele>
      </trkpt>
      <trkpt lat="46.27119" lon="5.94082">
        <ele>1690.7</ele>
      </trkpt>
      <trkpt lat="46.2712" lon="5.94086">
        <ele>1690.6</ele>
      </trkpt>
      <trkpt lat="46.27122" lon="5.94093">
        <ele>1690.3</ele>
      </trkpt>
      <trkpt lat="46.27123" lon="5.94096">
        <ele>1690.3</ele>
      </trkpt>
      <trkpt lat="46.27124" lon="5.94099">
        <ele>1690.1</ele>
      </trkpt>
      <trkpt lat="46.27126" lon="5.94101">
        <ele>1690</ele>
      </trkpt>
      <trkpt lat="46.27129" lon="5.94106">
        <ele>1689.9</ele>
      </trkpt>
      <trkpt lat="46.27129" lon="5.94111">
        <ele>1690</ele>
      </trkpt>
      <trkpt lat="46.2713" lon="5.94114">
        <ele>1689.9</ele>
      </trkpt>
      <trkpt lat="46.2713" lon="5.94117">
        <ele>1690</ele>
      </trkpt>
      <trkpt lat="46.2713" lon="5.94124">
        <ele>1690.1</ele>
      </trkpt>
      <trkpt lat="46.27132" lon="5.94131">
        <ele>1690.2</ele>
      </trkpt>
      <trkpt lat="46.27134" lon="5.94136">
        <ele>1690.3</ele>
      </trkpt>
      <trkpt lat="46.27136" lon="5.94139">
        <ele>1690.3</ele>
      </trkpt>
      <trkpt lat="46.27139" lon="5.94148">
        <ele>1690.7</ele>
      </trkpt>
      <trkpt lat="46.27145" lon="5.94155">
        <ele>1691.1</ele>
      </trkpt>
      <trkpt lat="46.27148" lon="5.94161">
        <ele>1691.6</ele>
      </trkpt>
      <trkpt lat="46.27149" lon="5.94167">
        <ele>1692</ele>
      </trkpt>
      <trkpt lat="46.27152" lon="5.94176">
        <ele>1692.4</ele>
      </trkpt>
      <trkpt lat="46.27155" lon="5.94182">
        <ele>1692.7</ele>
      </trkpt>
      <trkpt lat="46.27162" lon="5.94201">
        <ele>1693.6</ele>
      </trkpt>
      <trkpt lat="46.27166" lon="5.94208">
        <ele>1694</ele>
      </trkpt>
      <trkpt lat="46.27168" lon="5.9421">
        <ele>1693.7</ele>
      </trkpt>
      <trkpt lat="46.2717" lon="5.94216">
        <ele>1693.4</ele>
      </trkpt>
      <trkpt lat="46.27174" lon="5.94222">
        <ele>1692.8</ele>
      </trkpt>
      <trkpt lat="46.27178" lon="5.94232">
        <ele>1692.7</ele>
      </trkpt>
      <trkpt lat="46.27178" lon="5.94243">
        <ele>1693.2</ele>
      </trkpt>
      <trkpt lat="46.27182" lon="5.94253">
        <ele>1693.1</ele>
      </trkpt>
      <trkpt lat="46.27184" lon="5.94266">
        <ele>1693.8</ele>
      </trkpt>
      <trkpt lat="46.27188" lon="5.94277">
        <ele>1694.3</ele>
      </trkpt>
      <trkpt lat="46.27194" lon="5.94293">
        <ele>1695.2</ele>
      </trkpt>
      <trkpt lat="46.27195" lon="5.943">
        <ele>1695.7</ele>
      </trkpt>
      <trkpt lat="46.27195" lon="5.94306">
        <ele>1696.3</ele>
      </trkpt>
      <trkpt lat="46.27197" lon="5.94312">
        <ele>1696.7</ele>
      </trkpt>
      <trkpt lat="46.27199" lon="5.94315">
        <ele>1696.9</ele>
      </trkpt>
      <trkpt lat="46.27203" lon="5.94318">
        <ele>1697</ele>
      </trkpt>
      <trkpt lat="46.27209" lon="5.94322">
        <ele>1697.3</ele>
      </trkpt>
      <trkpt lat="46.27213" lon="5.94326">
        <ele>1697.6</ele>
      </trkpt>
      <trkpt lat="46.27216" lon="5.94332">
        <ele>1698.2</ele>
      </trkpt>
      <trkpt lat="46.27218" lon="5.94335">
        <ele>1698.4</ele>
      </trkpt>
      <trkpt lat="46.27221" lon="5.9434">
        <ele>1698.6</ele>
      </trkpt>
      <trkpt lat="46.27221" lon="5.94341">
        <ele>1698.6</ele>
      </trkpt>
      <trkpt lat="46.27225" lon="5.94344">
        <ele>1698.8</ele>
      </trkpt>
      <trkpt lat="46.2723" lon="5.94351">
        <ele>1699.2</ele>
      </trkpt>
      <trkpt lat="46.27231" lon="5.94355">
        <ele>1699.4</ele>
      </trkpt>
      <trkpt lat="46.27233" lon="5.94365">
        <ele>1700</ele>
      </trkpt>
      <trkpt lat="46.27237" lon="5.94373">
        <ele>1700.7</ele>
      </trkpt>
      <trkpt lat="46.27238" lon="5.94382">
        <ele>1701.3</ele>
      </trkpt>
      <trkpt lat="46.2724" lon="5.94399">
        <ele>1702.5</ele>
      </trkpt>
      <trkpt lat="46.27244" lon="5.94408">
        <ele>1703.6</ele>
      </trkpt>
      <trkpt lat="46.2725" lon="5.94418">
        <ele>1704.9</ele>
      </trkpt>
      <trkpt lat="46.27254" lon="5.94425">
        <ele>1704.3</ele>
      </trkpt>
      <trkpt lat="46.27255" lon="5.94431">
        <ele>1704</ele>
      </trkpt>
      <trkpt lat="46.27258" lon="5.94435">
        <ele>1703.6</ele>
      </trkpt>
      <trkpt lat="46.27259" lon="5.94442">
        <ele>1703.3</ele>
      </trkpt>
      <trkpt lat="46.27261" lon="5.94445">
        <ele>1703.1</ele>
      </trkpt>
      <trkpt lat="46.27264" lon="5.94448">
        <ele>1702.9</ele>
      </trkpt>
      <trkpt lat="46.27265" lon="5.9445">
        <ele>1702.8</ele>
      </trkpt>
      <trkpt lat="46.27265" lon="5.94455">
        <ele>1702.8</ele>
      </trkpt>
      <trkpt lat="46.27265" lon="5.94459">
        <ele>1702.7</ele>
      </trkpt>
      <trkpt lat="46.27267" lon="5.94465">
        <ele>1702.6</ele>
      </trkpt>
      <trkpt lat="46.27271" lon="5.94472">
        <ele>1702.6</ele>
      </trkpt>
      <trkpt lat="46.27272" lon="5.94474">
        <ele>1702.6</ele>
      </trkpt>
      <trkpt lat="46.27273" lon="5.94481">
        <ele>1702.6</ele>
      </trkpt>
      <trkpt lat="46.27276" lon="5.94487">
        <ele>1702.8</ele>
      </trkpt>
      <trkpt lat="46.27279" lon="5.94492">
        <ele>1703</ele>
      </trkpt>
      <trkpt lat="46.27283" lon="5.94503">
        <ele>1703.3</ele>
      </trkpt>
      <trkpt lat="46.27285" lon="5.94519">
        <ele>1702.6</ele>
      </trkpt>
      <trkpt lat="46.27287" lon="5.94528">
        <ele>1702.4</ele>
      </trkpt>
      <trkpt lat="46.27288" lon="5.9454">
        <ele>1702</ele>
      </trkpt>
      <trkpt lat="46.27291" lon="5.94549">
        <ele>1701.8</ele>
      </trkpt>
      <trkpt lat="46.27292" lon="5.94557">
        <ele>1701.6</ele>
      </trkpt>
      <trkpt lat="46.27293" lon="5.94565">
        <ele>1701.4</ele>
      </trkpt>
      <trkpt lat="46.27294" lon="5.94575">
        <ele>1701.1</ele>
      </trkpt>
      <trkpt lat="46.27294" lon="5.94579">
        <ele>1701</ele>
      </trkpt>
      <trkpt lat="46.27294" lon="5.94593">
        <ele>1700.7</ele>
      </trkpt>
      <trkpt lat="46.27293" lon="5.94597">
        <ele>1700.6</ele>
      </trkpt>
      <trkpt lat="46.2729" lon="5.94605">
        <ele>1700</ele>
      </trkpt>
      <trkpt lat="46.27289" lon="5.94609">
        <ele>1699.8</ele>
      </trkpt>
      <trkpt lat="46.2729" lon="5.9461">
        <ele>1699.9</ele>
      </trkpt>
      <trkpt lat="46.27293" lon="5.94613">
        <ele>1700.4</ele>
      </trkpt>
      <trkpt lat="46.27297" lon="5.94616">
        <ele>1700.8</ele>
      </trkpt>
      <trkpt lat="46.27298" lon="5.94618">
        <ele>1701</ele>
      </trkpt>
      <trkpt lat="46.27302" lon="5.9462">
        <ele>1701.5</ele>
      </trkpt>
      <trkpt lat="46.27311" lon="5.94622">
        <ele>1702.7</ele>
      </trkpt>
      <trkpt lat="46.2732" lon="5.94621">
        <ele>1704.1</ele>
      </trkpt>
      <trkpt lat="46.27326" lon="5.94623">
        <ele>1704.9</ele>
      </trkpt>
      <trkpt lat="46.2733" lon="5.94625">
        <ele>1705.6</ele>
      </trkpt>
      <trkpt lat="46.27337" lon="5.94625">
        <ele>1705.8</ele>
      </trkpt>
      <trkpt lat="46.27349" lon="5.94627">
        <ele>1705.2</ele>
      </trkpt>
      <trkpt lat="46.27353" lon="5.9463">
        <ele>1705</ele>
      </trkpt>
      <trkpt lat="46.27356" lon="5.94635">
        <ele>1705.1</ele>
      </trkpt>
      <trkpt lat="46.27358" lon="5.9464">
        <ele>1705.2</ele>
      </trkpt>
      <trkpt lat="46.27365" lon="5.9465">
        <ele>1705.3</ele>
      </trkpt>
      <trkpt lat="46.27369" lon="5.9466">
        <ele>1705.7</ele>
      </trkpt>
      <trkpt lat="46.27378" lon="5.94673">
        <ele>1705.7</ele>
      </trkpt>
      <trkpt lat="46.27388" lon="5.94683">
        <ele>1705.2</ele>
      </trkpt>
      <trkpt lat="46.27393" lon="5.94692">
        <ele>1704.8</ele>
      </trkpt>
      <trkpt lat="46.27399" lon="5.94697">
        <ele>1704.7</ele>
      </trkpt>
      <trkpt lat="46.27403" lon="5.94701">
        <ele>1704.6</ele>
      </trkpt>
      <trkpt lat="46.27405" lon="5.94701">
        <ele>1704.6</ele>
      </trkpt>
      <trkpt lat="46.27411" lon="5.94707">
        <ele>1704.4</ele>
      </trkpt>
      <trkpt lat="46.27415" lon="5.94709">
        <ele>1704.5</ele>
      </trkpt>
      <trkpt lat="46.27418" lon="5.94711">
        <ele>1704.3</ele>
      </trkpt>
      <trkpt lat="46.2742" lon="5.94712">
        <ele>1703.9</ele>
      </trkpt>
      <trkpt lat="46.27426" lon="5.94713">
        <ele>1702.9</ele>
      </trkpt>
      <trkpt lat="46.27433" lon="5.94717">
        <ele>1701.8</ele>
      </trkpt>
      <trkpt lat="46.27437" lon="5.94722">
        <ele>1701.2</ele>
      </trkpt>
      <trkpt lat="46.2744" lon="5.94726">
        <ele>1700.9</ele>
      </trkpt>
      <trkpt lat="46.27451" lon="5.94748">
        <ele>1699.7</ele>
      </trkpt>
      <trkpt lat="46.27465" lon="5.94772">
        <ele>1695.5</ele>
      </trkpt>
      <trkpt lat="46.27465" lon="5.94773">
        <ele>1695.3</ele>
      </trkpt>
      <trkpt lat="46.27468" lon="5.94777">
        <ele>1694.5</ele>
      </trkpt>
      <trkpt lat="46.27471" lon="5.9478">
        <ele>1693.8</ele>
      </trkpt>
      <trkpt lat="46.27473" lon="5.94782">
        <ele>1693.4</ele>
      </trkpt>
      <trkpt lat="46.27474" lon="5.94782">
        <ele>1693.3</ele>
      </trkpt>
      <trkpt lat="46.27481" lon="5.94783">
        <ele>1692.4</ele>
      </trkpt>
      <trkpt lat="46.27491" lon="5.94783">
        <ele>1691.6</ele>
      </trkpt>
      <trkpt lat="46.27508" lon="5.94779">
        <ele>1689.5</ele>
      </trkpt>
      <trkpt lat="46.27514" lon="5.94783">
        <ele>1687.8</ele>
      </trkpt>
      <trkpt lat="46.2752" lon="5.94791">
        <ele>1685.7</ele>
      </trkpt>
      <trkpt lat="46.27527" lon="5.94791">
        <ele>1684.3</ele>
      </trkpt>
      <trkpt lat="46.27533" lon="5.94789">
        <ele>1683.3</ele>
      </trkpt>
      <trkpt lat="46.27551" lon="5.94781">
        <ele>1680.2</ele>
      </trkpt>
      <trkpt lat="46.27554" lon="5.9478">
        <ele>1679.8</ele>
      </trkpt>
      <trkpt lat="46.27562" lon="5.94782">
        <ele>1677.8</ele>
      </trkpt>
      <trkpt lat="46.27579" lon="5.94795">
        <ele>1673.7</ele>
      </trkpt>
      <trkpt lat="46.27579" lon="5.948">
        <ele>1673.3</ele>
      </trkpt>
      <trkpt lat="46.27582" lon="5.94806">
        <ele>1672.6</ele>
      </trkpt>
      <trkpt lat="46.27588" lon="5.94809">
        <ele>1671.2</ele>
      </trkpt>
      <trkpt lat="46.27596" lon="5.94824">
        <ele>1668.9</ele>
      </trkpt>
      <trkpt lat="46.27602" lon="5.94851">
        <ele>1666.8</ele>
      </trkpt>
      <trkpt lat="46.27605" lon="5.94859">
        <ele>1666.1</ele>
      </trkpt>
      <trkpt lat="46.27609" lon="5.94867">
        <ele>1665.4</ele>
      </trkpt>
      <trkpt lat="46.27609" lon="5.94885">
        <ele>1664.7</ele>
      </trkpt>
      <trkpt lat="46.27614" lon="5.94902">
        <ele>1663.9</ele>
      </trkpt>
      <trkpt lat="46.27613" lon="5.94912">
        <ele>1663.7</ele>
      </trkpt>
      <trkpt lat="46.27612" lon="5.94922">
        <ele>1663.8</ele>
      </trkpt>
      <trkpt lat="46.27615" lon="5.94933">
        <ele>1664.1</ele>
      </trkpt>
      <trkpt lat="46.27618" lon="5.94944">
        <ele>1664.4</ele>
      </trkpt>
      <trkpt lat="46.2762" lon="5.94968">
        <ele>1665.4</ele>
      </trkpt>
      <trkpt lat="46.27622" lon="5.94976">
        <ele>1665.8</ele>
      </trkpt>
      <trkpt lat="46.27627" lon="5.94976">
        <ele>1665.9</ele>
      </trkpt>
      <trkpt lat="46.27629" lon="5.94987">
        <ele>1666.5</ele>
      </trkpt>
      <trkpt lat="46.27634" lon="5.94994">
        <ele>1667.1</ele>
      </trkpt>
      <trkpt lat="46.27637" lon="5.95001">
        <ele>1667.6</ele>
      </trkpt>
      <trkpt lat="46.27638" lon="5.95006">
        <ele>1667.7</ele>
      </trkpt>
      <trkpt lat="46.27643" lon="5.95014">
        <ele>1668</ele>
      </trkpt>
      <trkpt lat="46.27644" lon="5.95023">
        <ele>1668.2</ele>
      </trkpt>
      <trkpt lat="46.27648" lon="5.95035">
        <ele>1668.6</ele>
      </trkpt>
      <trkpt lat="46.27654" lon="5.95046">
        <ele>1669.2</ele>
      </trkpt>
      <trkpt lat="46.27674" lon="5.95058">
        <ele>1669.9</ele>
      </trkpt>
      <trkpt lat="46.27684" lon="5.95063">
        <ele>1669.4</ele>
      </trkpt>
      <trkpt lat="46.27689" lon="5.95066">
        <ele>1669.2</ele>
      </trkpt>
      <trkpt lat="46.27692" lon="5.95068">
        <ele>1669.1</ele>
      </trkpt>
      <trkpt lat="46.27696" lon="5.95074">
        <ele>1669.1</ele>
      </trkpt>
      <trkpt lat="46.27703" lon="5.95072">
        <ele>1668.7</ele>
      </trkpt>
      <trkpt lat="46.27708" lon="5.95076">
        <ele>1668.5</ele>
      </trkpt>
      <trkpt lat="46.27714" lon="5.95081">
        <ele>1668.6</ele>
      </trkpt>
      <trkpt lat="46.27725" lon="5.95103">
        <ele>1668.5</ele>
      </trkpt>
      <trkpt lat="46.27731" lon="5.95117">
        <ele>1668.8</ele>
      </trkpt>
      <trkpt lat="46.27736" lon="5.9513">
        <ele>1669.5</ele>
      </trkpt>
      <trkpt lat="46.27777" lon="5.95187">
        <ele>1672.3</ele>
      </trkpt>
      <trkpt lat="46.2778" lon="5.95181">
        <ele>1672.2</ele>
      </trkpt>
      <trkpt lat="46.27785" lon="5.95177">
        <ele>1672</ele>
      </trkpt>
      <trkpt lat="46.2779" lon="5.95177">
        <ele>1672</ele>
      </trkpt>
      <trkpt lat="46.27799" lon="5.95178">
        <ele>1671.9</ele>
      </trkpt>
      <trkpt lat="46.27802" lon="5.95173">
        <ele>1671.5</ele>
      </trkpt>
      <trkpt lat="46.27807" lon="5.95167">
        <ele>1671</ele>
      </trkpt>
      <trkpt lat="46.27806" lon="5.95162">
        <ele>1670.4</ele>
      </trkpt>
      <trkpt lat="46.27809" lon="5.95159">
        <ele>1669.8</ele>
      </trkpt>
      <trkpt lat="46.27814" lon="5.9516">
        <ele>1669.7</ele>
      </trkpt>
      <trkpt lat="46.27821" lon="5.95159">
        <ele>1669.2</ele>
      </trkpt>
      <trkpt lat="46.27826" lon="5.95157">
        <ele>1668.7</ele>
      </trkpt>
      <trkpt lat="46.27834" lon="5.95151">
        <ele>1667.3</ele>
      </trkpt>
      <trkpt lat="46.27841" lon="5.95154">
        <ele>1667.3</ele>
      </trkpt>
      <trkpt lat="46.27843" lon="5.95154">
        <ele>1667.2</ele>
      </trkpt>
      <trkpt lat="46.27846" lon="5.9515">
        <ele>1666.2</ele>
      </trkpt>
      <trkpt lat="46.2785" lon="5.95148">
        <ele>1665.4</ele>
      </trkpt>
      <trkpt lat="46.27854" lon="5.95143">
        <ele>1664.2</ele>
      </trkpt>
      <trkpt lat="46.27858" lon="5.95141">
        <ele>1663.5</ele>
      </trkpt>
      <trkpt lat="46.27866" lon="5.9514">
        <ele>1662.7</ele>
      </trkpt>
      <trkpt lat="46.27869" lon="5.95137">
        <ele>1661.8</ele>
      </trkpt>
      <trkpt lat="46.27872" lon="5.95138">
        <ele>1661.7</ele>
      </trkpt>
      <trkpt lat="46.27876" lon="5.95132">
        <ele>1660.2</ele>
      </trkpt>
      <trkpt lat="46.2788" lon="5.95124">
        <ele>1658.4</ele>
      </trkpt>
      <trkpt lat="46.27881" lon="5.95121">
        <ele>1657.6</ele>
      </trkpt>
      <trkpt lat="46.27885" lon="5.95117">
        <ele>1656.4</ele>
      </trkpt>
      <trkpt lat="46.27889" lon="5.95107">
        <ele>1654.1</ele>
      </trkpt>
      <trkpt lat="46.27897" lon="5.95101">
        <ele>1651.9</ele>
      </trkpt>
      <trkpt lat="46.279" lon="5.95096">
        <ele>1650.6</ele>
      </trkpt>
      <trkpt lat="46.27907" lon="5.95094">
        <ele>1649.4</ele>
      </trkpt>
      <trkpt lat="46.27909" lon="5.95092">
        <ele>1648.8</ele>
      </trkpt>
      <trkpt lat="46.27912" lon="5.95084">
        <ele>1646.7</ele>
      </trkpt>
      <trkpt lat="46.27924" lon="5.9508">
        <ele>1644.5</ele>
      </trkpt>
      <trkpt lat="46.27932" lon="5.95071">
        <ele>1641.6</ele>
      </trkpt>
      <trkpt lat="46.27935" lon="5.9507">
        <ele>1641.1</ele>
      </trkpt>
      <trkpt lat="46.27945" lon="5.95077">
        <ele>1641.5</ele>
      </trkpt>
      <trkpt lat="46.27949" lon="5.95077">
        <ele>1641.1</ele>
      </trkpt>
      <trkpt lat="46.27953" lon="5.95075">
        <ele>1640.3</ele>
      </trkpt>
      <trkpt lat="46.27956" lon="5.9508">
        <ele>1641.1</ele>
      </trkpt>
      <trkpt lat="46.27956" lon="5.95085">
        <ele>1642.2</ele>
      </trkpt>
      <trkpt lat="46.27958" lon="5.95087">
        <ele>1642.3</ele>
      </trkpt>
      <trkpt lat="46.2796" lon="5.95087">
        <ele>1642.2</ele>
      </trkpt>
      <trkpt lat="46.27964" lon="5.95088">
        <ele>1642</ele>
      </trkpt>
      <trkpt lat="46.27966" lon="5.95086">
        <ele>1641.3</ele>
      </trkpt>
      <trkpt lat="46.27968" lon="5.95082">
        <ele>1640.2</ele>
      </trkpt>
      <trkpt lat="46.27972" lon="5.95079">
        <ele>1639.1</ele>
      </trkpt>
      <trkpt lat="46.27969" lon="5.95075">
        <ele>1638.4</ele>
      </trkpt>
      <trkpt lat="46.2797" lon="5.95069">
        <ele>1636.9</ele>
      </trkpt>
      <trkpt lat="46.27971" lon="5.95067">
        <ele>1636.3</ele>
      </trkpt>
      <trkpt lat="46.27974" lon="5.95067">
        <ele>1635.9</ele>
      </trkpt>
      <trkpt lat="46.27979" lon="5.95064">
        <ele>1634.6</ele>
      </trkpt>
      <trkpt lat="46.27983" lon="5.95061">
        <ele>1633.3</ele>
      </trkpt>
      <trkpt lat="46.27995" lon="5.95062">
        <ele>1632.1</ele>
      </trkpt>
      <trkpt lat="46.28005" lon="5.9506">
        <ele>1630.5</ele>
      </trkpt>
      <trkpt lat="46.28012" lon="5.95053">
        <ele>1627.9</ele>
      </trkpt>
      <trkpt lat="46.28024" lon="5.95053">
        <ele>1626.7</ele>
      </trkpt>
      <trkpt lat="46.28033" lon="5.95053">
        <ele>1625.7</ele>
      </trkpt>
      <trkpt lat="46.28041" lon="5.9506">
        <ele>1626.3</ele>
      </trkpt>
      <trkpt lat="46.28047" lon="5.95064">
        <ele>1626.3</ele>
      </trkpt>
      <trkpt lat="46.2805" lon="5.95064">
        <ele>1625.9</ele>
      </trkpt>
      <trkpt lat="46.28053" lon="5.95068">
        <ele>1626.2</ele>
      </trkpt>
      <trkpt lat="46.28059" lon="5.95073">
        <ele>1626.5</ele>
      </trkpt>
      <trkpt lat="46.28064" lon="5.95079">
        <ele>1627</ele>
      </trkpt>
      <trkpt lat="46.28073" lon="5.95084">
        <ele>1626.8</ele>
      </trkpt>
      <trkpt lat="46.2808" lon="5.95095">
        <ele>1628.5</ele>
      </trkpt>
      <trkpt lat="46.28084" lon="5.95099">
        <ele>1629.3</ele>
      </trkpt>
      <trkpt lat="46.28087" lon="5.95101">
        <ele>1629.6</ele>
      </trkpt>
      <trkpt lat="46.2809" lon="5.95104">
        <ele>1630.1</ele>
      </trkpt>
      <trkpt lat="46.28094" lon="5.95108">
        <ele>1630.9</ele>
      </trkpt>
      <trkpt lat="46.28097" lon="5.95108">
        <ele>1630.4</ele>
      </trkpt>
      <trkpt lat="46.281" lon="5.95105">
        <ele>1629.3</ele>
      </trkpt>
      <trkpt lat="46.28105" lon="5.95103">
        <ele>1628.5</ele>
      </trkpt>
      <trkpt lat="46.28111" lon="5.95105">
        <ele>1628.3</ele>
      </trkpt>
      <trkpt lat="46.28116" lon="5.95103">
        <ele>1627.3</ele>
      </trkpt>
      <trkpt lat="46.28117" lon="5.95099">
        <ele>1626.4</ele>
      </trkpt>
      <trkpt lat="46.28122" lon="5.95092">
        <ele>1624.2</ele>
      </trkpt>
      <trkpt lat="46.28125" lon="5.9509">
        <ele>1623.5</ele>
      </trkpt>
      <trkpt lat="46.28129" lon="5.95086">
        <ele>1622.2</ele>
      </trkpt>
      <trkpt lat="46.28136" lon="5.95076">
        <ele>1619.9</ele>
      </trkpt>
      <trkpt lat="46.28137" lon="5.95076">
        <ele>1619.8</ele>
      </trkpt>
      <trkpt lat="46.28141" lon="5.95077">
        <ele>1619.6</ele>
      </trkpt>
      <trkpt lat="46.28144" lon="5.95071">
        <ele>1618.4</ele>
      </trkpt>
      <trkpt lat="46.28148" lon="5.95068">
        <ele>1617.4</ele>
      </trkpt>
      <trkpt lat="46.28162" lon="5.95064">
        <ele>1615.7</ele>
      </trkpt>
      <trkpt lat="46.28168" lon="5.95064">
        <ele>1615.3</ele>
      </trkpt>
      <trkpt lat="46.28173" lon="5.95068">
        <ele>1615.9</ele>
      </trkpt>
      <trkpt lat="46.28176" lon="5.95069">
        <ele>1616.1</ele>
      </trkpt>
      <trkpt lat="46.2819" lon="5.95073">
        <ele>1616.8</ele>
      </trkpt>
      <trkpt lat="46.28195" lon="5.95078">
        <ele>1617.7</ele>
      </trkpt>
      <trkpt lat="46.28212" lon="5.95071">
        <ele>1616.1</ele>
      </trkpt>
      <trkpt lat="46.28219" lon="5.95065">
        <ele>1614.5</ele>
      </trkpt>
      <trkpt lat="46.28225" lon="5.9506">
        <ele>1613.2</ele>
      </trkpt>
      <trkpt lat="46.28238" lon="5.95059">
        <ele>1612.7</ele>
      </trkpt>
      <trkpt lat="46.28238" lon="5.95059">
        <ele>1612.7</ele>
      </trkpt>
      <trkpt lat="46.28246" lon="5.95055">
        <ele>1611.3</ele>
      </trkpt>
      <trkpt lat="46.28249" lon="5.95051">
        <ele>1610.2</ele>
      </trkpt>
      <trkpt lat="46.28262" lon="5.95047">
        <ele>1606.1</ele>
      </trkpt>
      <trkpt lat="46.28266" lon="5.95043">
        <ele>1604.1</ele>
      </trkpt>
      <trkpt lat="46.28279" lon="5.95037">
        <ele>1599.3</ele>
      </trkpt>
      <trkpt lat="46.28285" lon="5.95034">
        <ele>1597.3</ele>
      </trkpt>
      <trkpt lat="46.28297" lon="5.95033">
        <ele>1594</ele>
      </trkpt>
      <trkpt lat="46.28302" lon="5.95034">
        <ele>1593.3</ele>
      </trkpt>
      <trkpt lat="46.28305" lon="5.95031">
        <ele>1591.8</ele>
      </trkpt>
      <trkpt lat="46.28306" lon="5.9503">
        <ele>1591.4</ele>
      </trkpt>
      <trkpt lat="46.28308" lon="5.95029">
        <ele>1590.5</ele>
      </trkpt>
      <trkpt lat="46.28316" lon="5.95026">
        <ele>1588.1</ele>
      </trkpt>
      <trkpt lat="46.28323" lon="5.95029">
        <ele>1587.2</ele>
      </trkpt>
      <trkpt lat="46.28332" lon="5.95033">
        <ele>1586</ele>
      </trkpt>
      <trkpt lat="46.28336" lon="5.95036">
        <ele>1585.3</ele>
      </trkpt>
      <trkpt lat="46.28342" lon="5.95043">
        <ele>1584</ele>
      </trkpt>
      <trkpt lat="46.28345" lon="5.95046">
        <ele>1583.4</ele>
      </trkpt>
      <trkpt lat="46.28351" lon="5.95054">
        <ele>1582.8</ele>
      </trkpt>
      <trkpt lat="46.28353" lon="5.95057">
        <ele>1582.4</ele>
      </trkpt>
      <trkpt lat="46.28354" lon="5.95059">
        <ele>1582.4</ele>
      </trkpt>
      <trkpt lat="46.28353" lon="5.95066">
        <ele>1584.4</ele>
      </trkpt>
      <trkpt lat="46.28355" lon="5.95069">
        <ele>1584</ele>
      </trkpt>
      <trkpt lat="46.28357" lon="5.95074">
        <ele>1584.4</ele>
      </trkpt>
      <trkpt lat="46.28359" lon="5.95077">
        <ele>1584</ele>
      </trkpt>
      <trkpt lat="46.28364" lon="5.95083">
        <ele>1583.2</ele>
      </trkpt>
      <trkpt lat="46.28366" lon="5.95084">
        <ele>1582.3</ele>
      </trkpt>
      <trkpt lat="46.28367" lon="5.95088">
        <ele>1582.2</ele>
      </trkpt>
      <trkpt lat="46.28365" lon="5.95098">
        <ele>1583.4</ele>
      </trkpt>
      <trkpt lat="46.28367" lon="5.95105">
        <ele>1583</ele>
      </trkpt>
      <trkpt lat="46.28372" lon="5.95114">
        <ele>1580.7</ele>
      </trkpt>
      <trkpt lat="46.28372" lon="5.95127">
        <ele>1581.9</ele>
      </trkpt>
      <trkpt lat="46.28374" lon="5.95131">
        <ele>1581.1</ele>
      </trkpt>
      <trkpt lat="46.28375" lon="5.95136">
        <ele>1580.9</ele>
      </trkpt>
      <trkpt lat="46.28382" lon="5.95147">
        <ele>1578</ele>
      </trkpt>
      <trkpt lat="46.28382" lon="5.95156">
        <ele>1578.4</ele>
      </trkpt>
      <trkpt lat="46.2838" lon="5.95165">
        <ele>1579.9</ele>
      </trkpt>
      <trkpt lat="46.28382" lon="5.95178">
        <ele>1579.6</ele>
      </trkpt>
      <trkpt lat="46.28382" lon="5.95189">
        <ele>1580</ele>
      </trkpt>
      <trkpt lat="46.28381" lon="5.95212">
        <ele>1581.6</ele>
      </trkpt>
      <trkpt lat="46.28386" lon="5.9522">
        <ele>1579.9</ele>
      </trkpt>
      <trkpt lat="46.28388" lon="5.95236">
        <ele>1580.3</ele>
      </trkpt>
      <trkpt lat="46.2839" lon="5.95246">
        <ele>1579.9</ele>
      </trkpt>
      <trkpt lat="46.28396" lon="5.95251">
        <ele>1578.2</ele>
      </trkpt>
      <trkpt lat="46.28401" lon="5.95252">
        <ele>1576.5</ele>
      </trkpt>
      <trkpt lat="46.28405" lon="5.95255">
        <ele>1575.2</ele>
      </trkpt>
      <trkpt lat="46.28414" lon="5.95256">
        <ele>1572.1</ele>
      </trkpt>
      <trkpt lat="46.28416" lon="5.95258">
        <ele>1571.9</ele>
      </trkpt>
      <trkpt lat="46.28429" lon="5.95266">
        <ele>1570.8</ele>
      </trkpt>
      <trkpt lat="46.28433" lon="5.95268">
        <ele>1570.1</ele>
      </trkpt>
      <trkpt lat="46.28437" lon="5.9527">
        <ele>1569.8</ele>
      </trkpt>
      <trkpt lat="46.28441" lon="5.95272">
        <ele>1569.4</ele>
      </trkpt>
      <trkpt lat="46.28444" lon="5.95274">
        <ele>1569.1</ele>
      </trkpt>
      <trkpt lat="46.28448" lon="5.95275">
        <ele>1568.3</ele>
      </trkpt>
      <trkpt lat="46.28457" lon="5.9528">
        <ele>1567.3</ele>
      </trkpt>
      <trkpt lat="46.2847" lon="5.95292">
        <ele>1566.1</ele>
      </trkpt>
      <trkpt lat="46.28475" lon="5.95295">
        <ele>1565.5</ele>
      </trkpt>
      <trkpt lat="46.28477" lon="5.95299">
        <ele>1565.5</ele>
      </trkpt>
      <trkpt lat="46.28479" lon="5.95301">
        <ele>1565.4</ele>
      </trkpt>
      <trkpt lat="46.28493" lon="5.9531">
        <ele>1563.2</ele>
      </trkpt>
      <trkpt lat="46.28498" lon="5.95308">
        <ele>1561.7</ele>
      </trkpt>
      <trkpt lat="46.285" lon="5.95308">
        <ele>1561.1</ele>
      </trkpt>
      <trkpt lat="46.28502" lon="5.95309">
        <ele>1560.7</ele>
      </trkpt>
      <trkpt lat="46.28505" lon="5.95312">
        <ele>1560.3</ele>
      </trkpt>
      <trkpt lat="46.28508" lon="5.95315">
        <ele>1559.7</ele>
      </trkpt>
      <trkpt lat="46.28511" lon="5.95316">
        <ele>1559</ele>
      </trkpt>
      <trkpt lat="46.28512" lon="5.95323">
        <ele>1559.3</ele>
      </trkpt>
      <trkpt lat="46.28519" lon="5.95333">
        <ele>1558.8</ele>
      </trkpt>
      <trkpt lat="46.2852" lon="5.95338">
        <ele>1559</ele>
      </trkpt>
      <trkpt lat="46.28529" lon="5.9534">
        <ele>1557</ele>
      </trkpt>
      <trkpt lat="46.28534" lon="5.95345">
        <ele>1556.3</ele>
      </trkpt>
      <trkpt lat="46.28535" lon="5.95343">
        <ele>1555.6</ele>
      </trkpt>
      <trkpt lat="46.28539" lon="5.95345">
        <ele>1554.8</ele>
      </trkpt>
      <trkpt lat="46.28542" lon="5.95345">
        <ele>1553.8</ele>
      </trkpt>
      <trkpt lat="46.28545" lon="5.95343">
        <ele>1552.7</ele>
      </trkpt>
      <trkpt lat="46.28549" lon="5.95342">
        <ele>1551.6</ele>
      </trkpt>
      <trkpt lat="46.28552" lon="5.95343">
        <ele>1551</ele>
      </trkpt>
      <trkpt lat="46.28557" lon="5.95339">
        <ele>1548.9</ele>
      </trkpt>
      <trkpt lat="46.2856" lon="5.95336">
        <ele>1547.8</ele>
      </trkpt>
      <trkpt lat="46.28561" lon="5.95333">
        <ele>1547.1</ele>
      </trkpt>
      <trkpt lat="46.28564" lon="5.95329">
        <ele>1545.7</ele>
      </trkpt>
      <trkpt lat="46.28567" lon="5.95319">
        <ele>1543.7</ele>
      </trkpt>
      <trkpt lat="46.28567" lon="5.95315">
        <ele>1543</ele>
      </trkpt>
      <trkpt lat="46.28573" lon="5.95312">
        <ele>1540.7</ele>
      </trkpt>
      <trkpt lat="46.28576" lon="5.95312">
        <ele>1540</ele>
      </trkpt>
      <trkpt lat="46.28579" lon="5.95313">
        <ele>1539.3</ele>
      </trkpt>
      <trkpt lat="46.28581" lon="5.95311">
        <ele>1538.4</ele>
      </trkpt>
      <trkpt lat="46.28581" lon="5.95309">
        <ele>1538</ele>
      </trkpt>
      <trkpt lat="46.28583" lon="5.95308">
        <ele>1537.5</ele>
      </trkpt>
      <trkpt lat="46.28584" lon="5.95311">
        <ele>1537.5</ele>
      </trkpt>
      <trkpt lat="46.28587" lon="5.95314">
        <ele>1537</ele>
      </trkpt>
      <trkpt lat="46.28594" lon="5.95312">
        <ele>1534.6</ele>
      </trkpt>
      <trkpt lat="46.28599" lon="5.95311">
        <ele>1532.9</ele>
      </trkpt>
      <trkpt lat="46.28601" lon="5.95308">
        <ele>1531.8</ele>
      </trkpt>
      <trkpt lat="46.28602" lon="5.95302">
        <ele>1530.5</ele>
      </trkpt>
      <trkpt lat="46.28609" lon="5.95298">
        <ele>1527.7</ele>
      </trkpt>
      <trkpt lat="46.2861" lon="5.95293">
        <ele>1526.5</ele>
      </trkpt>
      <trkpt lat="46.28615" lon="5.95288">
        <ele>1523.9</ele>
      </trkpt>
      <trkpt lat="46.28617" lon="5.95288">
        <ele>1523.3</ele>
      </trkpt>
      <trkpt lat="46.28618" lon="5.95286">
        <ele>1522.5</ele>
      </trkpt>
      <trkpt lat="46.28624" lon="5.9529">
        <ele>1521.1</ele>
      </trkpt>
      <trkpt lat="46.28626" lon="5.95286">
        <ele>1520</ele>
      </trkpt>
      <trkpt lat="46.2863" lon="5.95277">
        <ele>1516.7</ele>
      </trkpt>
      <trkpt lat="46.28634" lon="5.95274">
        <ele>1514.6</ele>
      </trkpt>
      <trkpt lat="46.28635" lon="5.95273">
        <ele>1513.9</ele>
      </trkpt>
      <trkpt lat="46.28635" lon="5.95268">
        <ele>1513</ele>
      </trkpt>
      <trkpt lat="46.28635" lon="5.95262">
        <ele>1511.6</ele>
      </trkpt>
      <trkpt lat="46.28635" lon="5.95251">
        <ele>1509.6</ele>
      </trkpt>
      <trkpt lat="46.28633" lon="5.95239">
        <ele>1507.7</ele>
      </trkpt>
      <trkpt lat="46.28627" lon="5.95227">
        <ele>1507.2</ele>
      </trkpt>
      <trkpt lat="46.28622" lon="5.95217">
        <ele>1506.5</ele>
      </trkpt>
      <trkpt lat="46.28619" lon="5.95212">
        <ele>1506.4</ele>
      </trkpt>
      <trkpt lat="46.28614" lon="5.95208">
        <ele>1507.3</ele>
      </trkpt>
      <trkpt lat="46.28611" lon="5.952">
        <ele>1506.4</ele>
      </trkpt>
      <trkpt lat="46.2861" lon="5.95197">
        <ele>1506.1</ele>
      </trkpt>
      <trkpt lat="46.28597" lon="5.95177">
        <ele>1505.6</ele>
      </trkpt>
      <trkpt lat="46.28592" lon="5.95167">
        <ele>1504.3</ele>
      </trkpt>
      <trkpt lat="46.28585" lon="5.95161">
        <ele>1505.6</ele>
      </trkpt>
      <trkpt lat="46.28579" lon="5.95154">
        <ele>1506.6</ele>
      </trkpt>
      <trkpt lat="46.28574" lon="5.95138">
        <ele>1505.7</ele>
      </trkpt>
      <trkpt lat="46.28568" lon="5.95127">
        <ele>1506</ele>
      </trkpt>
      <trkpt lat="46.28565" lon="5.95119">
        <ele>1505.6</ele>
      </trkpt>
      <trkpt lat="46.28564" lon="5.95114">
        <ele>1504.9</ele>
      </trkpt>
      <trkpt lat="46.28565" lon="5.95108">
        <ele>1503.7</ele>
      </trkpt>
      <trkpt lat="46.28568" lon="5.95106">
        <ele>1502.1</ele>
      </trkpt>
      <trkpt lat="46.28571" lon="5.95106">
        <ele>1501</ele>
      </trkpt>
      <trkpt lat="46.28577" lon="5.95105">
        <ele>1499.1</ele>
      </trkpt>
      <trkpt lat="46.28585" lon="5.95099">
        <ele>1495.4</ele>
      </trkpt>
      <trkpt lat="46.2859" lon="5.95095">
        <ele>1494.2</ele>
      </trkpt>
      <trkpt lat="46.28596" lon="5.95091">
        <ele>1492.8</ele>
      </trkpt>
      <trkpt lat="46.286" lon="5.95093">
        <ele>1492.5</ele>
      </trkpt>
      <trkpt lat="46.28607" lon="5.95092">
        <ele>1491.7</ele>
      </trkpt>
      <trkpt lat="46.28611" lon="5.95091">
        <ele>1491.1</ele>
      </trkpt>
      <trkpt lat="46.2862" lon="5.9509">
        <ele>1490</ele>
      </trkpt>
      <trkpt lat="46.28628" lon="5.9509">
        <ele>1489.1</ele>
      </trkpt>
      <trkpt lat="46.28631" lon="5.95088">
        <ele>1488.7</ele>
      </trkpt>
      <trkpt lat="46.28635" lon="5.9509">
        <ele>1488.2</ele>
      </trkpt>
      <trkpt lat="46.28639" lon="5.95088">
        <ele>1487.8</ele>
      </trkpt>
      <trkpt lat="46.28645" lon="5.95084">
        <ele>1487.1</ele>
      </trkpt>
      <trkpt lat="46.28647" lon="5.9508">
        <ele>1487.1</ele>
      </trkpt>
      <trkpt lat="46.28657" lon="5.95082">
        <ele>1486</ele>
      </trkpt>
      <trkpt lat="46.28666" lon="5.95092">
        <ele>1484.7</ele>
      </trkpt>
      <trkpt lat="46.28674" lon="5.951">
        <ele>1484.5</ele>
      </trkpt>
      <trkpt lat="46.28678" lon="5.95105">
        <ele>1484.4</ele>
      </trkpt>
      <trkpt lat="46.28686" lon="5.95115">
        <ele>1484</ele>
      </trkpt>
      <trkpt lat="46.28695" lon="5.95134">
        <ele>1483.1</ele>
      </trkpt>
      <trkpt lat="46.28697" lon="5.95141">
        <ele>1482.7</ele>
      </trkpt>
      <trkpt lat="46.287" lon="5.95148">
        <ele>1482.3</ele>
      </trkpt>
      <trkpt lat="46.28705" lon="5.95151">
        <ele>1482.1</ele>
      </trkpt>
      <trkpt lat="46.28709" lon="5.95156">
        <ele>1481.8</ele>
      </trkpt>
      <trkpt lat="46.28715" lon="5.95159">
        <ele>1481.6</ele>
      </trkpt>
      <trkpt lat="46.2872" lon="5.95163">
        <ele>1481.3</ele>
      </trkpt>
      <trkpt lat="46.28729" lon="5.95174">
        <ele>1481.4</ele>
      </trkpt>
      <trkpt lat="46.28733" lon="5.95169">
        <ele>1481.1</ele>
      </trkpt>
      <trkpt lat="46.28737" lon="5.95167">
        <ele>1481</ele>
      </trkpt>
      <trkpt lat="46.28746" lon="5.95161">
        <ele>1481.6</ele>
      </trkpt>
      <trkpt lat="46.28752" lon="5.95161">
        <ele>1481.5</ele>
      </trkpt>
      <trkpt lat="46.28757" lon="5.95157">
        <ele>1481.7</ele>
      </trkpt>
      <trkpt lat="46.28764" lon="5.95148">
        <ele>1482.2</ele>
      </trkpt>
      <trkpt lat="46.2877" lon="5.95142">
        <ele>1482.2</ele>
      </trkpt>
      <trkpt lat="46.28774" lon="5.95142">
        <ele>1482</ele>
      </trkpt>
      <trkpt lat="46.28788" lon="5.95162">
        <ele>1480.7</ele>
      </trkpt>
      <trkpt lat="46.28791" lon="5.95167">
        <ele>1480.5</ele>
      </trkpt>
      <trkpt lat="46.28806" lon="5.95185">
        <ele>1480.1</ele>
      </trkpt>
      <trkpt lat="46.28813" lon="5.95194">
        <ele>1479.8</ele>
      </trkpt>
      <trkpt lat="46.28817" lon="5.95196">
        <ele>1479.7</ele>
      </trkpt>
      <trkpt lat="46.2882" lon="5.95196">
        <ele>1479.6</ele>
      </trkpt>
      <trkpt lat="46.28824" lon="5.95195">
        <ele>1479.5</ele>
      </trkpt>
      <trkpt lat="46.28836" lon="5.95199">
        <ele>1478.8</ele>
      </trkpt>
      <trkpt lat="46.28848" lon="5.95206">
        <ele>1476.6</ele>
      </trkpt>
      <trkpt lat="46.2886" lon="5.95216">
        <ele>1474.8</ele>
      </trkpt>
      <trkpt lat="46.28863" lon="5.95215">
        <ele>1474.2</ele>
      </trkpt>
      <trkpt lat="46.28868" lon="5.95214">
        <ele>1473.5</ele>
      </trkpt>
      <trkpt lat="46.28872" lon="5.95216">
        <ele>1472.9</ele>
      </trkpt>
      <trkpt lat="46.28876" lon="5.95216">
        <ele>1472.2</ele>
      </trkpt>
      <trkpt lat="46.28883" lon="5.95204">
        <ele>1470.8</ele>
      </trkpt>
      <trkpt lat="46.28884" lon="5.95196">
        <ele>1470.5</ele>
      </trkpt>
      <trkpt lat="46.28886" lon="5.95189">
        <ele>1469.9</ele>
      </trkpt>
      <trkpt lat="46.28888" lon="5.95185">
        <ele>1469.5</ele>
      </trkpt>
      <trkpt lat="46.28891" lon="5.95181">
        <ele>1468.7</ele>
      </trkpt>
      <trkpt lat="46.28895" lon="5.95173">
        <ele>1467.7</ele>
      </trkpt>
      <trkpt lat="46.28895" lon="5.95164">
        <ele>1467.2</ele>
      </trkpt>
      <trkpt lat="46.28896" lon="5.95156">
        <ele>1466.5</ele>
      </trkpt>
      <trkpt lat="46.289" lon="5.95149">
        <ele>1465.3</ele>
      </trkpt>
      <trkpt lat="46.289" lon="5.95149">
        <ele>1465.2</ele>
      </trkpt>
      <trkpt lat="46.28904" lon="5.95134">
        <ele>1463.2</ele>
      </trkpt>
      <trkpt lat="46.28907" lon="5.95132">
        <ele>1462.5</ele>
      </trkpt>
      <trkpt lat="46.28919" lon="5.95151">
        <ele>1461.5</ele>
      </trkpt>
      <trkpt lat="46.28925" lon="5.95166">
        <ele>1461.5</ele>
      </trkpt>
      <trkpt lat="46.28939" lon="5.95187">
        <ele>1460.6</ele>
      </trkpt>
      <trkpt lat="46.28959" lon="5.95231">
        <ele>1460.2</ele>
      </trkpt>
      <trkpt lat="46.28989" lon="5.95285">
        <ele>1458.6</ele>
      </trkpt>
      <trkpt lat="46.29013" lon="5.953">
        <ele>1455.3</ele>
      </trkpt>
      <trkpt lat="46.29023" lon="5.95312">
        <ele>1454.4</ele>
      </trkpt>
      <trkpt lat="46.29032" lon="5.95322">
        <ele>1453.7</ele>
      </trkpt>
      <trkpt lat="46.29066" lon="5.95359">
        <ele>1451.3</ele>
      </trkpt>
      <trkpt lat="46.29079" lon="5.95367">
        <ele>1449.6</ele>
      </trkpt>
      <trkpt lat="46.29086" lon="5.95368">
        <ele>1448.9</ele>
      </trkpt>
      <trkpt lat="46.29098" lon="5.95367">
        <ele>1447.9</ele>
      </trkpt>
      <trkpt lat="46.29107" lon="5.95368">
        <ele>1447.4</ele>
      </trkpt>
      <trkpt lat="46.29114" lon="5.95371">
        <ele>1447</ele>
      </trkpt>
      <trkpt lat="46.29135" lon="5.9538">
        <ele>1446.2</ele>
      </trkpt>
      <trkpt lat="46.29146" lon="5.95386">
        <ele>1445.8</ele>
      </trkpt>
      <trkpt lat="46.29152" lon="5.95389">
        <ele>1445.7</ele>
      </trkpt>
      <trkpt lat="46.29158" lon="5.9539">
        <ele>1445.3</ele>
      </trkpt>
      <trkpt lat="46.29173" lon="5.9539">
        <ele>1443.8</ele>
      </trkpt>
      <trkpt lat="46.29178" lon="5.9539">
        <ele>1443.1</ele>
      </trkpt>
      <trkpt lat="46.29181" lon="5.95392">
        <ele>1442.7</ele>
      </trkpt>
      <trkpt lat="46.29212" lon="5.95416">
        <ele>1440.4</ele>
      </trkpt>
      <trkpt lat="46.29222" lon="5.95427">
        <ele>1439.7</ele>
      </trkpt>
      <trkpt lat="46.29232" lon="5.95445">
        <ele>1439.3</ele>
      </trkpt>
      <trkpt lat="46.29237" lon="5.95461">
        <ele>1439.4</ele>
      </trkpt>
      <trkpt lat="46.2924" lon="5.95467">
        <ele>1439.2</ele>
      </trkpt>
      <trkpt lat="46.29243" lon="5.95469">
        <ele>1438.8</ele>
      </trkpt>
      <trkpt lat="46.29246" lon="5.9547">
        <ele>1438.2</ele>
      </trkpt>
      <trkpt lat="46.29253" lon="5.95473">
        <ele>1437.3</ele>
      </trkpt>
      <trkpt lat="46.29258" lon="5.95477">
        <ele>1436.5</ele>
      </trkpt>
      <trkpt lat="46.29263" lon="5.9548">
        <ele>1435.8</ele>
      </trkpt>
      <trkpt lat="46.29272" lon="5.95481">
        <ele>1434.3</ele>
      </trkpt>
      <trkpt lat="46.29284" lon="5.9548">
        <ele>1432.3</ele>
      </trkpt>
      <trkpt lat="46.29293" lon="5.95509">
        <ele>1431.9</ele>
      </trkpt>
      <trkpt lat="46.29299" lon="5.9554">
        <ele>1433</ele>
      </trkpt>
      <trkpt lat="46.29314" lon="5.95554">
        <ele>1430.6</ele>
      </trkpt>
      <trkpt lat="46.29322" lon="5.95571">
        <ele>1429.3</ele>
      </trkpt>
      <trkpt lat="46.29321" lon="5.95581">
        <ele>1430.1</ele>
      </trkpt>
      <trkpt lat="46.29323" lon="5.95594">
        <ele>1430.4</ele>
      </trkpt>
      <trkpt lat="46.29334" lon="5.95629">
        <ele>1430.1</ele>
      </trkpt>
      <trkpt lat="46.29334" lon="5.95644">
        <ele>1431.2</ele>
      </trkpt>
      <trkpt lat="46.29339" lon="5.9569">
        <ele>1433.8</ele>
      </trkpt>
      <trkpt lat="46.2935" lon="5.95743">
        <ele>1434.9</ele>
      </trkpt>
      <trkpt lat="46.29354" lon="5.95756">
        <ele>1434.8</ele>
      </trkpt>
      <trkpt lat="46.29347" lon="5.95806">
        <ele>1441.1</ele>
      </trkpt>
      <trkpt lat="46.29352" lon="5.95841">
        <ele>1442.1</ele>
      </trkpt>
      <trkpt lat="46.2935" lon="5.95875">
        <ele>1443.8</ele>
      </trkpt>
      <trkpt lat="46.29332" lon="5.95945">
        <ele>1450.4</ele>
      </trkpt>
      <trkpt lat="46.29332" lon="5.95964">
        <ele>1450.5</ele>
      </trkpt>
      <trkpt lat="46.29339" lon="5.9601">
        <ele>1448.8</ele>
      </trkpt>
      <trkpt lat="46.29353" lon="5.96053">
        <ele>1446.8</ele>
      </trkpt>
      <trkpt lat="46.29365" lon="5.9609">
        <ele>1446</ele>
      </trkpt>
      <trkpt lat="46.29371" lon="5.96107">
        <ele>1445.5</ele>
      </trkpt>
      <trkpt lat="46.29374" lon="5.96115">
        <ele>1445.2</ele>
      </trkpt>
      <trkpt lat="46.29379" lon="5.96123">
        <ele>1444.7</ele>
      </trkpt>
      <trkpt lat="46.2938" lon="5.96138">
        <ele>1444.8</ele>
      </trkpt>
      <trkpt lat="46.29375" lon="5.96165">
        <ele>1446</ele>
      </trkpt>
      <trkpt lat="46.29374" lon="5.96179">
        <ele>1446.9</ele>
      </trkpt>
      <trkpt lat="46.29374" lon="5.96186">
        <ele>1447.3</ele>
      </trkpt>
      <trkpt lat="46.29375" lon="5.96192">
        <ele>1447.5</ele>
      </trkpt>
      <trkpt lat="46.29376" lon="5.96198">
        <ele>1447.6</ele>
      </trkpt>
      <trkpt lat="46.29378" lon="5.96203">
        <ele>1447.5</ele>
      </trkpt>
      <trkpt lat="46.29381" lon="5.96209">
        <ele>1447.2</ele>
      </trkpt>
      <trkpt lat="46.29392" lon="5.96226">
        <ele>1445.8</ele>
      </trkpt>
      <trkpt lat="46.29405" lon="5.96246">
        <ele>1443.8</ele>
      </trkpt>
      <trkpt lat="46.29416" lon="5.96262">
        <ele>1442.5</ele>
      </trkpt>
      <trkpt lat="46.29423" lon="5.9627">
        <ele>1442.6</ele>
      </trkpt>
      <trkpt lat="46.29432" lon="5.96279">
        <ele>1442.7</ele>
      </trkpt>
      <trkpt lat="46.2944" lon="5.96288">
        <ele>1442.8</ele>
      </trkpt>
      <trkpt lat="46.29447" lon="5.96298">
        <ele>1443.1</ele>
      </trkpt>
      <trkpt lat="46.29459" lon="5.96315">
        <ele>1443.7</ele>
      </trkpt>
      <trkpt lat="46.29478" lon="5.96337">
        <ele>1443.9</ele>
      </trkpt>
      <trkpt lat="46.29491" lon="5.96353">
        <ele>1444</ele>
      </trkpt>
      <trkpt lat="46.29496" lon="5.9636">
        <ele>1444</ele>
      </trkpt>
      <trkpt lat="46.29499" lon="5.96367">
        <ele>1444.3</ele>
      </trkpt>
      <trkpt lat="46.295" lon="5.96373">
        <ele>1444.8</ele>
      </trkpt>
      <trkpt lat="46.29501" lon="5.96381">
        <ele>1445.5</ele>
      </trkpt>
      <trkpt lat="46.29502" lon="5.9639">
        <ele>1446.3</ele>
      </trkpt>
      <trkpt lat="46.29502" lon="5.96399">
        <ele>1447.2</ele>
      </trkpt>
      <trkpt lat="46.295" lon="5.96405">
        <ele>1447.9</ele>
      </trkpt>
      <trkpt lat="46.29497" lon="5.96413">
        <ele>1449</ele>
      </trkpt>
      <trkpt lat="46.29492" lon="5.96419">
        <ele>1450.2</ele>
      </trkpt>
      <trkpt lat="46.29479" lon="5.96431">
        <ele>1453.8</ele>
      </trkpt>
      <trkpt lat="46.29463" lon="5.96452">
        <ele>1458.8</ele>
      </trkpt>
      <trkpt lat="46.29459" lon="5.9646">
        <ele>1460.4</ele>
      </trkpt>
      <trkpt lat="46.29455" lon="5.96466">
        <ele>1461.8</ele>
      </trkpt>
      <trkpt lat="46.29436" lon="5.96518">
        <ele>1470.6</ele>
      </trkpt>
      <trkpt lat="46.29462" lon="5.96543">
        <ele>1471.9</ele>
      </trkpt>
      <trkpt lat="46.29464" lon="5.96547">
        <ele>1472.4</ele>
      </trkpt>
      <trkpt lat="46.29466" lon="5.96553">
        <ele>1473.1</ele>
      </trkpt>
      <trkpt lat="46.29467" lon="5.96557">
        <ele>1473.6</ele>
      </trkpt>
      <trkpt lat="46.29467" lon="5.96562">
        <ele>1474.3</ele>
      </trkpt>
      <trkpt lat="46.29466" lon="5.96567">
        <ele>1474.9</ele>
      </trkpt>
      <trkpt lat="46.29465" lon="5.96572">
        <ele>1475.7</ele>
      </trkpt>
      <trkpt lat="46.29466" lon="5.9658">
        <ele>1476.7</ele>
      </trkpt>
      <trkpt lat="46.29468" lon="5.96584">
        <ele>1477.2</ele>
      </trkpt>
      <trkpt lat="46.29489" lon="5.96617">
        <ele>1478.1</ele>
      </trkpt>
      <trkpt lat="46.29496" lon="5.96627">
        <ele>1478.3</ele>
      </trkpt>
      <trkpt lat="46.29517" lon="5.96653">
        <ele>1478.1</ele>
      </trkpt>
      <trkpt lat="46.29527" lon="5.96663">
        <ele>1478.1</ele>
      </trkpt>
      <trkpt lat="46.29536" lon="5.96672">
        <ele>1478.2</ele>
      </trkpt>
      <trkpt lat="46.29546" lon="5.96684">
        <ele>1478.7</ele>
      </trkpt>
      <trkpt lat="46.29556" lon="5.967">
        <ele>1479.6</ele>
      </trkpt>
      <trkpt lat="46.2956" lon="5.96708">
        <ele>1480.1</ele>
      </trkpt>
      <trkpt lat="46.29568" lon="5.96728">
        <ele>1481.9</ele>
      </trkpt>
      <trkpt lat="46.29579" lon="5.96758">
        <ele>1485</ele>
      </trkpt>
      <trkpt lat="46.2959" lon="5.96781">
        <ele>1488.7</ele>
      </trkpt>
      <trkpt lat="46.29593" lon="5.96792">
        <ele>1490.5</ele>
      </trkpt>
      <trkpt lat="46.29596" lon="5.96802">
        <ele>1492.2</ele>
      </trkpt>
      <trkpt lat="46.296" lon="5.96812">
        <ele>1494</ele>
      </trkpt>
      <trkpt lat="46.29607" lon="5.96822">
        <ele>1496.2</ele>
      </trkpt>
      <trkpt lat="46.29618" lon="5.96837">
        <ele>1499.4</ele>
      </trkpt>
      <trkpt lat="46.29642" lon="5.96874">
        <ele>1503.9</ele>
      </trkpt>
      <trkpt lat="46.29647" lon="5.96879">
        <ele>1504.7</ele>
      </trkpt>
      <trkpt lat="46.29658" lon="5.96897">
        <ele>1506.4</ele>
      </trkpt>
      <trkpt lat="46.29667" lon="5.96905">
        <ele>1507.6</ele>
      </trkpt>
      <trkpt lat="46.29677" lon="5.96911">
        <ele>1507.4</ele>
      </trkpt>
      <trkpt lat="46.29687" lon="5.96916">
        <ele>1507.2</ele>
      </trkpt>
      <trkpt lat="46.29702" lon="5.96929">
        <ele>1506.6</ele>
      </trkpt>
      <trkpt lat="46.29716" lon="5.96939">
        <ele>1506</ele>
      </trkpt>
      <trkpt lat="46.29723" lon="5.96946">
        <ele>1505.8</ele>
      </trkpt>
      <trkpt lat="46.29729" lon="5.96957">
        <ele>1505.5</ele>
      </trkpt>
      <trkpt lat="46.29738" lon="5.96968">
        <ele>1505.3</ele>
      </trkpt>
      <trkpt lat="46.29749" lon="5.96977">
        <ele>1505</ele>
      </trkpt>
      <trkpt lat="46.2976" lon="5.96987">
        <ele>1504.6</ele>
      </trkpt>
      <trkpt lat="46.29772" lon="5.97">
        <ele>1504.5</ele>
      </trkpt>
      <trkpt lat="46.29796" lon="5.97017">
        <ele>1503.8</ele>
      </trkpt>
      <trkpt lat="46.29813" lon="5.97028">
        <ele>1503.8</ele>
      </trkpt>
      <trkpt lat="46.29822" lon="5.97034">
        <ele>1504.1</ele>
      </trkpt>
      <trkpt lat="46.29861" lon="5.97076">
        <ele>1507.2</ele>
      </trkpt>
      <trkpt lat="46.29889" lon="5.97108">
        <ele>1509.3</ele>
      </trkpt>
      <trkpt lat="46.29909" lon="5.97129">
        <ele>1510.9</ele>
      </trkpt>
      <trkpt lat="46.29923" lon="5.97143">
        <ele>1512.2</ele>
      </trkpt>
      <trkpt lat="46.29932" lon="5.97154">
        <ele>1513</ele>
      </trkpt>
      <trkpt lat="46.29946" lon="5.97171">
        <ele>1514.1</ele>
      </trkpt>
      <trkpt lat="46.29968" lon="5.97191">
        <ele>1514.8</ele>
      </trkpt>
      <trkpt lat="46.29991" lon="5.9721">
        <ele>1516</ele>
      </trkpt>
      <trkpt lat="46.30004" lon="5.97221">
        <ele>1516.4</ele>
      </trkpt>
      <trkpt lat="46.30036" lon="5.97252">
        <ele>1516.2</ele>
      </trkpt>
      <trkpt lat="46.30061" lon="5.97282">
        <ele>1516.4</ele>
      </trkpt>
      <trkpt lat="46.30075" lon="5.97291">
        <ele>1516.7</ele>
      </trkpt>
      <trkpt lat="46.30083" lon="5.97297">
        <ele>1516.9</ele>
      </trkpt>
      <trkpt lat="46.30088" lon="5.973">
        <ele>1516.4</ele>
      </trkpt>
      <trkpt lat="46.30092" lon="5.97308">
        <ele>1515.9</ele>
      </trkpt>
      <trkpt lat="46.30106" lon="5.97343">
        <ele>1515.6</ele>
      </trkpt>
      <trkpt lat="46.30112" lon="5.97369">
        <ele>1517.5</ele>
      </trkpt>
      <trkpt lat="46.30115" lon="5.97379">
        <ele>1518.3</ele>
      </trkpt>
      <trkpt lat="46.30119" lon="5.97389">
        <ele>1519.3</ele>
      </trkpt>
      <trkpt lat="46.30122" lon="5.97404">
        <ele>1520.7</ele>
      </trkpt>
      <trkpt lat="46.30124" lon="5.97414">
        <ele>1521.7</ele>
      </trkpt>
      <trkpt lat="46.30126" lon="5.97423">
        <ele>1522.6</ele>
      </trkpt>
      <trkpt lat="46.30127" lon="5.97428">
        <ele>1523.3</ele>
      </trkpt>
      <trkpt lat="46.30132" lon="5.97438">
        <ele>1524.5</ele>
      </trkpt>
      <trkpt lat="46.30139" lon="5.97448">
        <ele>1525.9</ele>
      </trkpt>
      <trkpt lat="46.30144" lon="5.97453">
        <ele>1526.7</ele>
      </trkpt>
      <trkpt lat="46.3015" lon="5.97457">
        <ele>1527.5</ele>
      </trkpt>
      <trkpt lat="46.30157" lon="5.97462">
        <ele>1528.3</ele>
      </trkpt>
      <trkpt lat="46.30163" lon="5.97464">
        <ele>1528.9</ele>
      </trkpt>
      <trkpt lat="46.30168" lon="5.97464">
        <ele>1529.2</ele>
      </trkpt>
      <trkpt lat="46.30173" lon="5.97464">
        <ele>1529.5</ele>
      </trkpt>
      <trkpt lat="46.30179" lon="5.97463">
        <ele>1529.6</ele>
      </trkpt>
      <trkpt lat="46.30189" lon="5.97463">
        <ele>1530.2</ele>
      </trkpt>
      <trkpt lat="46.30194" lon="5.97463">
        <ele>1530.5</ele>
      </trkpt>
      <trkpt lat="46.30197" lon="5.97465">
        <ele>1530.9</ele>
      </trkpt>
      <trkpt lat="46.30204" lon="5.97464">
        <ele>1531.2</ele>
      </trkpt>
      <trkpt lat="46.30216" lon="5.9746">
        <ele>1531.3</ele>
      </trkpt>
      <trkpt lat="46.30234" lon="5.97452">
        <ele>1531.4</ele>
      </trkpt>
      <trkpt lat="46.30237" lon="5.97452">
        <ele>1531.5</ele>
      </trkpt>
      <trkpt lat="46.30246" lon="5.97455">
        <ele>1532.4</ele>
      </trkpt>
      <trkpt lat="46.3025" lon="5.97457">
        <ele>1532.9</ele>
      </trkpt>
      <trkpt lat="46.30252" lon="5.97461">
        <ele>1533.3</ele>
      </trkpt>
      <trkpt lat="46.30253" lon="5.97466">
        <ele>1533.9</ele>
      </trkpt>
      <trkpt lat="46.30255" lon="5.97468">
        <ele>1534.2</ele>
      </trkpt>
      <trkpt lat="46.30258" lon="5.97471">
        <ele>1534.5</ele>
      </trkpt>
      <trkpt lat="46.30262" lon="5.97474">
        <ele>1534.9</ele>
      </trkpt>
      <trkpt lat="46.30264" lon="5.97477">
        <ele>1535.3</ele>
      </trkpt>
      <trkpt lat="46.30273" lon="5.97487">
        <ele>1536.5</ele>
      </trkpt>
      <trkpt lat="46.30275" lon="5.97491">
        <ele>1537.1</ele>
      </trkpt>
      <trkpt lat="46.30278" lon="5.97499">
        <ele>1538.2</ele>
      </trkpt>
      <trkpt lat="46.30282" lon="5.9751">
        <ele>1540.1</ele>
      </trkpt>
      <trkpt lat="46.30286" lon="5.97518">
        <ele>1541.7</ele>
      </trkpt>
      <trkpt lat="46.3029" lon="5.97523">
        <ele>1542.7</ele>
      </trkpt>
      <trkpt lat="46.30291" lon="5.97526">
        <ele>1543.4</ele>
      </trkpt>
      <trkpt lat="46.30298" lon="5.97532">
        <ele>1544.9</ele>
      </trkpt>
      <trkpt lat="46.30308" lon="5.97542">
        <ele>1547.3</ele>
      </trkpt>
      <trkpt lat="46.30313" lon="5.97544">
        <ele>1548.2</ele>
      </trkpt>
      <trkpt lat="46.30324" lon="5.97571">
        <ele>1555.1</ele>
      </trkpt>
      <trkpt lat="46.30328" lon="5.97583">
        <ele>1558.1</ele>
      </trkpt>
      <trkpt lat="46.30331" lon="5.97589">
        <ele>1559.7</ele>
      </trkpt>
      <trkpt lat="46.30337" lon="5.976">
        <ele>1561.6</ele>
      </trkpt>
      <trkpt lat="46.30341" lon="5.97608">
        <ele>1562.8</ele>
      </trkpt>
      <trkpt lat="46.30342" lon="5.97614">
        <ele>1563.7</ele>
      </trkpt>
      <trkpt lat="46.30344" lon="5.97623">
        <ele>1565.1</ele>
      </trkpt>
      <trkpt lat="46.30346" lon="5.9763">
        <ele>1566.3</ele>
      </trkpt>
      <trkpt lat="46.30347" lon="5.97638">
        <ele>1567.6</ele>
      </trkpt>
      <trkpt lat="46.30349" lon="5.97644">
        <ele>1568.6</ele>
      </trkpt>
      <trkpt lat="46.30351" lon="5.9765">
        <ele>1569.6</ele>
      </trkpt>
      <trkpt lat="46.30356" lon="5.97656">
        <ele>1570.6</ele>
      </trkpt>
      <trkpt lat="46.30358" lon="5.97663">
        <ele>1571.7</ele>
      </trkpt>
      <trkpt lat="46.30359" lon="5.97667">
        <ele>1572.5</ele>
      </trkpt>
      <trkpt lat="46.30362" lon="5.97676">
        <ele>1573.5</ele>
      </trkpt>
      <trkpt lat="46.30363" lon="5.97686">
        <ele>1574.7</ele>
      </trkpt>
      <trkpt lat="46.30365" lon="5.97696">
        <ele>1575.9</ele>
      </trkpt>
      <trkpt lat="46.30368" lon="5.97701">
        <ele>1576.5</ele>
      </trkpt>
      <trkpt lat="46.3037" lon="5.97706">
        <ele>1577</ele>
      </trkpt>
      <trkpt lat="46.30371" lon="5.97714">
        <ele>1577.9</ele>
      </trkpt>
      <trkpt lat="46.30377" lon="5.97725">
        <ele>1578.9</ele>
      </trkpt>
      <trkpt lat="46.30381" lon="5.97735">
        <ele>1579.8</ele>
      </trkpt>
      <trkpt lat="46.30385" lon="5.97746">
        <ele>1580.8</ele>
      </trkpt>
      <trkpt lat="46.30387" lon="5.97753">
        <ele>1581.5</ele>
      </trkpt>
      <trkpt lat="46.30387" lon="5.97758">
        <ele>1582</ele>
      </trkpt>
      <trkpt lat="46.30386" lon="5.97771">
        <ele>1583.3</ele>
      </trkpt>
      <trkpt lat="46.30383" lon="5.97787">
        <ele>1585</ele>
      </trkpt>
      <trkpt lat="46.30383" lon="5.97791">
        <ele>1585.5</ele>
      </trkpt>
      <trkpt lat="46.30381" lon="5.97803">
        <ele>1586.7</ele>
      </trkpt>
      <trkpt lat="46.30381" lon="5.97807">
        <ele>1587.1</ele>
      </trkpt>
      <trkpt lat="46.30381" lon="5.97812">
        <ele>1587.6</ele>
      </trkpt>
      <trkpt lat="46.30378" lon="5.97817">
        <ele>1588.3</ele>
      </trkpt>
      <trkpt lat="46.30375" lon="5.97827">
        <ele>1589.4</ele>
      </trkpt>
      <trkpt lat="46.30373" lon="5.97839">
        <ele>1590.5</ele>
      </trkpt>
      <trkpt lat="46.30375" lon="5.97851">
        <ele>1591.5</ele>
      </trkpt>
      <trkpt lat="46.30377" lon="5.97857">
        <ele>1592</ele>
      </trkpt>
      <trkpt lat="46.30378" lon="5.97868">
        <ele>1592.9</ele>
      </trkpt>
      <trkpt lat="46.3038" lon="5.97872">
        <ele>1593.3</ele>
      </trkpt>
      <trkpt lat="46.30381" lon="5.97875">
        <ele>1593.5</ele>
      </trkpt>
      <trkpt lat="46.30384" lon="5.97882">
        <ele>1594.2</ele>
      </trkpt>
      <trkpt lat="46.30388" lon="5.97893">
        <ele>1595.5</ele>
      </trkpt>
      <trkpt lat="46.30397" lon="5.97901">
        <ele>1596.8</ele>
      </trkpt>
      <trkpt lat="46.30398" lon="5.97904">
        <ele>1597.2</ele>
      </trkpt>
      <trkpt lat="46.30404" lon="5.97912">
        <ele>1598.5</ele>
      </trkpt>
      <trkpt lat="46.30408" lon="5.9792">
        <ele>1599.6</ele>
      </trkpt>
      <trkpt lat="46.3041" lon="5.97924">
        <ele>1600.1</ele>
      </trkpt>
      <trkpt lat="46.30411" lon="5.97934">
        <ele>1600.9</ele>
      </trkpt>
      <trkpt lat="46.30415" lon="5.97949">
        <ele>1602.5</ele>
      </trkpt>
      <trkpt lat="46.30418" lon="5.9796">
        <ele>1603.5</ele>
      </trkpt>
      <trkpt lat="46.30423" lon="5.97968">
        <ele>1604</ele>
      </trkpt>
      <trkpt lat="46.30426" lon="5.97975">
        <ele>1604.4</ele>
      </trkpt>
      <trkpt lat="46.30428" lon="5.97983">
        <ele>1604.9</ele>
      </trkpt>
      <trkpt lat="46.3043" lon="5.97988">
        <ele>1605.2</ele>
      </trkpt>
      <trkpt lat="46.30433" lon="5.97991">
        <ele>1605.3</ele>
      </trkpt>
      <trkpt lat="46.30435" lon="5.97994">
        <ele>1605.4</ele>
      </trkpt>
      <trkpt lat="46.30438" lon="5.98">
        <ele>1605.7</ele>
      </trkpt>
      <trkpt lat="46.3044" lon="5.98001">
        <ele>1605.6</ele>
      </trkpt>
      <trkpt lat="46.30442" lon="5.98005">
        <ele>1605.4</ele>
      </trkpt>
      <trkpt lat="46.30449" lon="5.9801">
        <ele>1604.7</ele>
      </trkpt>
      <trkpt lat="46.30452" lon="5.98014">
        <ele>1604.4</ele>
      </trkpt>
      <trkpt lat="46.30454" lon="5.98019">
        <ele>1604</ele>
      </trkpt>
      <trkpt lat="46.30457" lon="5.98023">
        <ele>1603.6</ele>
      </trkpt>
      <trkpt lat="46.30458" lon="5.98025">
        <ele>1603.5</ele>
      </trkpt>
      <trkpt lat="46.30459" lon="5.98029">
        <ele>1603.2</ele>
      </trkpt>
      <trkpt lat="46.30463" lon="5.98032">
        <ele>1602.7</ele>
      </trkpt>
      <trkpt lat="46.30465" lon="5.98035">
        <ele>1602.4</ele>
      </trkpt>
      <trkpt lat="46.30469" lon="5.98037">
        <ele>1601.9</ele>
      </trkpt>
      <trkpt lat="46.30473" lon="5.9804">
        <ele>1601.4</ele>
      </trkpt>
      <trkpt lat="46.30475" lon="5.98044">
        <ele>1600.9</ele>
      </trkpt>
      <trkpt lat="46.30477" lon="5.98046">
        <ele>1600.5</ele>
      </trkpt>
      <trkpt lat="46.30482" lon="5.98048">
        <ele>1600</ele>
      </trkpt>
      <trkpt lat="46.3049" lon="5.98051">
        <ele>1598.8</ele>
      </trkpt>
      <trkpt lat="46.30493" lon="5.98053">
        <ele>1598.3</ele>
      </trkpt>
      <trkpt lat="46.30496" lon="5.98056">
        <ele>1597.8</ele>
      </trkpt>
      <trkpt lat="46.30502" lon="5.98059">
        <ele>1596.8</ele>
      </trkpt>
      <trkpt lat="46.30519" lon="5.98073">
        <ele>1594.2</ele>
      </trkpt>
      <trkpt lat="46.30534" lon="5.98081">
        <ele>1592.7</ele>
      </trkpt>
      <trkpt lat="46.30543" lon="5.98089">
        <ele>1591.8</ele>
      </trkpt>
      <trkpt lat="46.30556" lon="5.98092">
        <ele>1590.8</ele>
      </trkpt>
      <trkpt lat="46.30577" lon="5.98104">
        <ele>1589.2</ele>
      </trkpt>
      <trkpt lat="46.30599" lon="5.98119">
        <ele>1588.2</ele>
      </trkpt>
      <trkpt lat="46.30618" lon="5.98132">
        <ele>1587.7</ele>
      </trkpt>
      <trkpt lat="46.30627" lon="5.98144">
        <ele>1587.7</ele>
      </trkpt>
      <trkpt lat="46.30637" lon="5.9815">
        <ele>1587.7</ele>
      </trkpt>
      <trkpt lat="46.30687" lon="5.98175">
        <ele>1587.6</ele>
      </trkpt>
      <trkpt lat="46.30729" lon="5.98205">
        <ele>1587.8</ele>
      </trkpt>
      <trkpt lat="46.30751" lon="5.98227">
        <ele>1588.3</ele>
      </trkpt>
      <trkpt lat="46.30767" lon="5.98235">
        <ele>1588.8</ele>
      </trkpt>
      <trkpt lat="46.30787" lon="5.9823">
        <ele>1588.2</ele>
      </trkpt>
      <trkpt lat="46.30809" lon="5.98237">
        <ele>1588.5</ele>
      </trkpt>
      <trkpt lat="46.30829" lon="5.98253">
        <ele>1589.4</ele>
      </trkpt>
      <trkpt lat="46.30869" lon="5.98286">
        <ele>1597.3</ele>
      </trkpt>
      <trkpt lat="46.30876" lon="5.98298">
        <ele>1599.2</ele>
      </trkpt>
      <trkpt lat="46.30899" lon="5.98317">
        <ele>1602.7</ele>
      </trkpt>
      <trkpt lat="46.30923" lon="5.98326">
        <ele>1604.8</ele>
      </trkpt>
      <trkpt lat="46.3094" lon="5.98326">
        <ele>1605.7</ele>
      </trkpt>
      <trkpt lat="46.30961" lon="5.98337">
        <ele>1607.6</ele>
      </trkpt>
      <trkpt lat="46.31002" lon="5.98338">
        <ele>1609.6</ele>
      </trkpt>
      <trkpt lat="46.31043" lon="5.98349">
        <ele>1610.9</ele>
      </trkpt>
      <trkpt lat="46.31055" lon="5.9835">
        <ele>1610.9</ele>
      </trkpt>
      <trkpt lat="46.31068" lon="5.98359">
        <ele>1611</ele>
      </trkpt>
      <trkpt lat="46.31084" lon="5.98357">
        <ele>1610.6</ele>
      </trkpt>
      <trkpt lat="46.31128" lon="5.98398">
        <ele>1599.5</ele>
      </trkpt>
      <trkpt lat="46.3113" lon="5.98439">
        <ele>1597.3</ele>
      </trkpt>
      <trkpt lat="46.31134" lon="5.98449">
        <ele>1596.5</ele>
      </trkpt>
      <trkpt lat="46.3115" lon="5.9849">
        <ele>1591.9</ele>
      </trkpt>
      <trkpt lat="46.31165" lon="5.98515">
        <ele>1587.4</ele>
      </trkpt>
      <trkpt lat="46.31255" lon="5.9856">
        <ele>1576</ele>
      </trkpt>
      <trkpt lat="46.31278" lon="5.98582">
        <ele>1576</ele>
      </trkpt>
      <trkpt lat="46.31289" lon="5.98586">
        <ele>1575.5</ele>
      </trkpt>
      <trkpt lat="46.31301" lon="5.98585">
        <ele>1575.1</ele>
      </trkpt>
      <trkpt lat="46.31384" lon="5.98637">
        <ele>1574</ele>
      </trkpt>
      <trkpt lat="46.3139" lon="5.98637">
        <ele>1574.3</ele>
      </trkpt>
      <trkpt lat="46.31424" lon="5.98663">
        <ele>1577.1</ele>
      </trkpt>
      <trkpt lat="46.3144" lon="5.98685">
        <ele>1581.4</ele>
      </trkpt>
      <trkpt lat="46.31447" lon="5.98689">
        <ele>1583.1</ele>
      </trkpt>
      <trkpt lat="46.31448" lon="5.98695">
        <ele>1583.9</ele>
      </trkpt>
      <trkpt lat="46.31465" lon="5.98722">
        <ele>1590.6</ele>
      </trkpt>
      <trkpt lat="46.31468" lon="5.98732">
        <ele>1592.7</ele>
      </trkpt>
      <trkpt lat="46.31507" lon="5.98784">
        <ele>1610.6</ele>
      </trkpt>
      <trkpt lat="46.3155" lon="5.98807">
        <ele>1625.4</ele>
      </trkpt>
      <trkpt lat="46.31556" lon="5.98815">
        <ele>1628.4</ele>
      </trkpt>
      <trkpt lat="46.31567" lon="5.98823">
        <ele>1633.1</ele>
      </trkpt>
      <trkpt lat="46.3158" lon="5.9883">
        <ele>1638.3</ele>
      </trkpt>
      <trkpt lat="46.31593" lon="5.98839">
        <ele>1642.7</ele>
      </trkpt>
      <trkpt lat="46.31635" lon="5.98858">
        <ele>1652.9</ele>
      </trkpt>
      <trkpt lat="46.3169" lon="5.98904">
        <ele>1664.3</ele>
      </trkpt>
      <trkpt lat="46.31703" lon="5.98924">
        <ele>1665.1</ele>
      </trkpt>
      <trkpt lat="46.31761" lon="5.98981">
        <ele>1660.4</ele>
      </trkpt>
      <trkpt lat="46.31805" lon="5.9901">
        <ele>1656.2</ele>
      </trkpt>
      <trkpt lat="46.31813" lon="5.99012">
        <ele>1655.2</ele>
      </trkpt>
      <trkpt lat="46.31826" lon="5.99026">
        <ele>1652.9</ele>
      </trkpt>
      <trkpt lat="46.31839" lon="5.9905">
        <ele>1649.6</ele>
      </trkpt>
      <trkpt lat="46.31847" lon="5.9906">
        <ele>1647.8</ele>
      </trkpt>
      <trkpt lat="46.31851" lon="5.99067">
        <ele>1646.8</ele>
      </trkpt>
      <trkpt lat="46.31861" lon="5.99081">
        <ele>1644.6</ele>
      </trkpt>
      <trkpt lat="46.31873" lon="5.99085">
        <ele>1642.5</ele>
      </trkpt>
      <trkpt lat="46.31915" lon="5.99136">
        <ele>1632.7</ele>
      </trkpt>
      <trkpt lat="46.31917" lon="5.99145">
        <ele>1631.8</ele>
      </trkpt>
      <trkpt lat="46.31932" lon="5.99166">
        <ele>1629.7</ele>
      </trkpt>
      <trkpt lat="46.31943" lon="5.99181">
        <ele>1628.4</ele>
      </trkpt>
      <trkpt lat="46.31964" lon="5.99205">
        <ele>1627.3</ele>
      </trkpt>
      <trkpt lat="46.31992" lon="5.99234">
        <ele>1628.2</ele>
      </trkpt>
      <trkpt lat="46.32012" lon="5.99253">
        <ele>1630.5</ele>
      </trkpt>
      <trkpt lat="46.32036" lon="5.99275">
        <ele>1634.3</ele>
      </trkpt>
      <trkpt lat="46.32053" lon="5.99298">
        <ele>1638.2</ele>
      </trkpt>
      <trkpt lat="46.32057" lon="5.99308">
        <ele>1639.4</ele>
      </trkpt>
      <trkpt lat="46.32061" lon="5.99315">
        <ele>1640.6</ele>
      </trkpt>
      <trkpt lat="46.32069" lon="5.9934">
        <ele>1643.4</ele>
      </trkpt>
      <trkpt lat="46.32075" lon="5.99346">
        <ele>1645</ele>
      </trkpt>
      <trkpt lat="46.32104" lon="5.99366">
        <ele>1652.5</ele>
      </trkpt>
      <trkpt lat="46.32127" lon="5.99388">
        <ele>1659</ele>
      </trkpt>
      <trkpt lat="46.32141" lon="5.9941">
        <ele>1663.6</ele>
      </trkpt>
      <trkpt lat="46.3215" lon="5.99417">
        <ele>1666.3</ele>
      </trkpt>
      <trkpt lat="46.32172" lon="5.99451">
        <ele>1670.6</ele>
      </trkpt>
      <trkpt lat="46.32186" lon="5.99468">
        <ele>1671.5</ele>
      </trkpt>
      <trkpt lat="46.32209" lon="5.99499">
        <ele>1673.6</ele>
      </trkpt>
      <trkpt lat="46.32224" lon="5.9952">
        <ele>1673.1</ele>
      </trkpt>
      <trkpt lat="46.32232" lon="5.99538">
        <ele>1672.5</ele>
      </trkpt>
      <trkpt lat="46.3225" lon="5.99536">
        <ele>1674.9</ele>
      </trkpt>
      <trkpt lat="46.32268" lon="5.99566">
        <ele>1669.3</ele>
      </trkpt>
      <trkpt lat="46.32276" lon="5.99586">
        <ele>1666.1</ele>
      </trkpt>
      <trkpt lat="46.32296" lon="5.99624">
        <ele>1656</ele>
      </trkpt>
      <trkpt lat="46.32317" lon="5.99662">
        <ele>1647.2</ele>
      </trkpt>
      <trkpt lat="46.32349" lon="5.99698">
        <ele>1635.8</ele>
      </trkpt>
      <trkpt lat="46.32362" lon="5.99701">
        <ele>1631.2</ele>
      </trkpt>
      <trkpt lat="46.32379" lon="5.99714">
        <ele>1625</ele>
      </trkpt>
      <trkpt lat="46.32382" lon="5.99752">
        <ele>1621.5</ele>
      </trkpt>
      <trkpt lat="46.32387" lon="5.99768">
        <ele>1619.6</ele>
      </trkpt>
      <trkpt lat="46.32395" lon="5.99779">
        <ele>1617.3</ele>
      </trkpt>
      <trkpt lat="46.32432" lon="5.9983">
        <ele>1612</ele>
      </trkpt>
      <trkpt lat="46.32442" lon="5.99886">
        <ele>1611.3</ele>
      </trkpt>
      <trkpt lat="46.3245" lon="5.99952">
        <ele>1609.4</ele>
      </trkpt>
      <trkpt lat="46.32461" lon="5.99997">
        <ele>1607.8</ele>
      </trkpt>
      <trkpt lat="46.32464" lon="6.00042">
        <ele>1600.6</ele>
      </trkpt>
      <trkpt lat="46.32471" lon="6.00082">
        <ele>1594.5</ele>
      </trkpt>
      <trkpt lat="46.32485" lon="6.00093">
        <ele>1591</ele>
      </trkpt>
      <trkpt lat="46.32497" lon="6.00106">
        <ele>1585.8</ele>
      </trkpt>
      <trkpt lat="46.32508" lon="6.0012">
        <ele>1579.2</ele>
      </trkpt>
      <trkpt lat="46.32526" lon="6.00123">
        <ele>1577.8</ele>
      </trkpt>
      <trkpt lat="46.32554" lon="6.00127">
        <ele>1576.6</ele>
      </trkpt>
      <trkpt lat="46.32565" lon="6.00133">
        <ele>1574.6</ele>
      </trkpt>
      <trkpt lat="46.32579" lon="6.00143">
        <ele>1571.8</ele>
      </trkpt>
      <trkpt lat="46.32593" lon="6.00154">
        <ele>1570.1</ele>
      </trkpt>
      <trkpt lat="46.32634" lon="6.00153">
        <ele>1575.1</ele>
      </trkpt>
      <trkpt lat="46.32652" lon="6.00135">
        <ele>1581</ele>
      </trkpt>
      <trkpt lat="46.32665" lon="6.00133">
        <ele>1582.6</ele>
      </trkpt>
      <trkpt lat="46.32687" lon="6.00133">
        <ele>1582</ele>
      </trkpt>
      <trkpt lat="46.32694" lon="6.00136">
        <ele>1581.1</ele>
      </trkpt>
      <trkpt lat="46.32708" lon="6.00137">
        <ele>1580.2</ele>
      </trkpt>
      <trkpt lat="46.32726" lon="6.00118">
        <ele>1584</ele>
      </trkpt>
      <trkpt lat="46.32751" lon="6.00093">
        <ele>1589.4</ele>
      </trkpt>
      <trkpt lat="46.32788" lon="6.00069">
        <ele>1584.6</ele>
      </trkpt>
      <trkpt lat="46.32821" lon="6.00066">
        <ele>1578.1</ele>
      </trkpt>
      <trkpt lat="46.32843" lon="6.00059">
        <ele>1574</ele>
      </trkpt>
      <trkpt lat="46.32858" lon="6.00048">
        <ele>1572.3</ele>
      </trkpt>
      <trkpt lat="46.32859" lon="6.00045">
        <ele>1572.8</ele>
      </trkpt>
      <trkpt lat="46.32877" lon="6.00037">
        <ele>1569.7</ele>
      </trkpt>
      <trkpt lat="46.32879" lon="6.0003">
        <ele>1570.7</ele>
      </trkpt>
      <trkpt lat="46.32893" lon="6.00016">
        <ele>1570.7</ele>
      </trkpt>
      <trkpt lat="46.32905" lon="6.0001">
        <ele>1569</ele>
      </trkpt>
      <trkpt lat="46.32923" lon="6.00012">
        <ele>1564.5</ele>
      </trkpt>
      <trkpt lat="46.32936" lon="6.00006">
        <ele>1563.6</ele>
      </trkpt>
      <trkpt lat="46.32943" lon="5.99993">
        <ele>1563.8</ele>
      </trkpt>
      <trkpt lat="46.32947" lon="5.99972">
        <ele>1562.1</ele>
      </trkpt>
      <trkpt lat="46.32957" lon="5.99963">
        <ele>1560</ele>
      </trkpt>
      <trkpt lat="46.32982" lon="5.99961">
        <ele>1555.1</ele>
      </trkpt>
      <trkpt lat="46.33024" lon="5.9994">
        <ele>1550.2</ele>
      </trkpt>
      <trkpt lat="46.33038" lon="5.99939">
        <ele>1549.8</ele>
      </trkpt>
      <trkpt lat="46.33086" lon="5.99963">
        <ele>1547.4</ele>
      </trkpt>
      <trkpt lat="46.33125" lon="5.99993">
        <ele>1547.4</ele>
      </trkpt>
      <trkpt lat="46.33165" lon="5.99997">
        <ele>1549.1</ele>
      </trkpt>
      <trkpt lat="46.33185" lon="5.99989">
        <ele>1555.1</ele>
      </trkpt>
      <trkpt lat="46.33194" lon="5.99985">
        <ele>1557.8</ele>
      </trkpt>
      <trkpt lat="46.33236" lon="5.9998">
        <ele>1569.5</ele>
      </trkpt>
      <trkpt lat="46.33241" lon="5.99987">
        <ele>1571.3</ele>
      </trkpt>
      <trkpt lat="46.33258" lon="5.99976">
        <ele>1573.7</ele>
      </trkpt>
      <trkpt lat="46.33283" lon="5.99994">
        <ele>1578.3</ele>
      </trkpt>
      <trkpt lat="46.33375" lon="6.0005">
        <ele>1577.3</ele>
      </trkpt>
      <trkpt lat="46.334" lon="6.00058">
        <ele>1581.9</ele>
      </trkpt>
      <trkpt lat="46.33408" lon="6.00062">
        <ele>1583.4</ele>
      </trkpt>
      <trkpt lat="46.33445" lon="6.00074">
        <ele>1589</ele>
      </trkpt>
      <trkpt lat="46.3352" lon="6.00108">
        <ele>1586.2</ele>
      </trkpt>
      <trkpt lat="46.33536" lon="6.00113">
        <ele>1585.8</ele>
      </trkpt>
      <trkpt lat="46.33548" lon="6.00123">
        <ele>1584.1</ele>
      </trkpt>
      <trkpt lat="46.33556" lon="6.00122">
        <ele>1585.4</ele>
      </trkpt>
      <trkpt lat="46.33578" lon="6.00127">
        <ele>1587.5</ele>
      </trkpt>
      <trkpt lat="46.33596" lon="6.00139">
        <ele>1587.5</ele>
      </trkpt>
      <trkpt lat="46.3361" lon="6.00158">
        <ele>1587.3</ele>
      </trkpt>
      <trkpt lat="46.33619" lon="6.00163">
        <ele>1588.3</ele>
      </trkpt>
      <trkpt lat="46.33642" lon="6.00178">
        <ele>1584.1</ele>
      </trkpt>
      <trkpt lat="46.33677" lon="6.00185">
        <ele>1584.8</ele>
      </trkpt>
      <trkpt lat="46.3369" lon="6.00189">
        <ele>1583.9</ele>
      </trkpt>
      <trkpt lat="46.33714" lon="6.00192">
        <ele>1585.4</ele>
      </trkpt>
      <trkpt lat="46.33729" lon="6.00198">
        <ele>1585.1</ele>
      </trkpt>
      <trkpt lat="46.3376" lon="6.00215">
        <ele>1586</ele>
      </trkpt>
      <trkpt lat="46.33782" lon="6.00221">
        <ele>1587.2</ele>
      </trkpt>
      <trkpt lat="46.33824" lon="6.00229">
        <ele>1591.1</ele>
      </trkpt>
      <trkpt lat="46.33831" lon="6.00226">
        <ele>1591.9</ele>
      </trkpt>
      <trkpt lat="46.33844" lon="6.0023">
        <ele>1592</ele>
      </trkpt>
      <trkpt lat="46.33851" lon="6.00244">
        <ele>1592.5</ele>
      </trkpt>
      <trkpt lat="46.33898" lon="6.00271">
        <ele>1584.8</ele>
      </trkpt>
      <trkpt lat="46.33917" lon="6.00281">
        <ele>1583</ele>
      </trkpt>
      <trkpt lat="46.33935" lon="6.00286">
        <ele>1581.1</ele>
      </trkpt>
      <trkpt lat="46.33971" lon="6.00282">
        <ele>1581</ele>
      </trkpt>
      <trkpt lat="46.33974" lon="6.00284">
        <ele>1580.6</ele>
      </trkpt>
      <trkpt lat="46.33991" lon="6.00278">
        <ele>1580.7</ele>
      </trkpt>
      <trkpt lat="46.34016" lon="6.00287">
        <ele>1577.4</ele>
      </trkpt>
      <trkpt lat="46.34045" lon="6.00298">
        <ele>1572.8</ele>
      </trkpt>
      <trkpt lat="46.34071" lon="6.00303">
        <ele>1569.3</ele>
      </trkpt>
      <trkpt lat="46.34078" lon="6.00298">
        <ele>1568.8</ele>
      </trkpt>
      <trkpt lat="46.34083" lon="6.00299">
        <ele>1568.2</ele>
      </trkpt>
      <trkpt lat="46.34092" lon="6.00286">
        <ele>1567.2</ele>
      </trkpt>
      <trkpt lat="46.34099" lon="6.00286">
        <ele>1565.9</ele>
      </trkpt>
      <trkpt lat="46.34105" lon="6.00296">
        <ele>1564.4</ele>
      </trkpt>
      <trkpt lat="46.34111" lon="6.00292">
        <ele>1563.6</ele>
      </trkpt>
      <trkpt lat="46.34132" lon="6.00295">
        <ele>1559.8</ele>
      </trkpt>
      <trkpt lat="46.34161" lon="6.00349">
        <ele>1554.7</ele>
      </trkpt>
      <trkpt lat="46.34174" lon="6.00356">
        <ele>1554.3</ele>
      </trkpt>
      <trkpt lat="46.34182" lon="6.00372">
        <ele>1554</ele>
      </trkpt>
      <trkpt lat="46.34221" lon="6.00399">
        <ele>1559.6</ele>
      </trkpt>
      <trkpt lat="46.34243" lon="6.00403">
        <ele>1563.9</ele>
      </trkpt>
      <trkpt lat="46.34256" lon="6.0041">
        <ele>1567.3</ele>
      </trkpt>
      <trkpt lat="46.34288" lon="6.00402">
        <ele>1572.6</ele>
      </trkpt>
      <trkpt lat="46.34292" lon="6.00402">
        <ele>1573.2</ele>
      </trkpt>
      <trkpt lat="46.34312" lon="6.00418">
        <ele>1578.5</ele>
      </trkpt>
      <trkpt lat="46.34332" lon="6.00416">
        <ele>1582.6</ele>
      </trkpt>
      <trkpt lat="46.34345" lon="6.00408">
        <ele>1583.5</ele>
      </trkpt>
      <trkpt lat="46.34354" lon="6.00423">
        <ele>1585.5</ele>
      </trkpt>
      <trkpt lat="46.34361" lon="6.00448">
        <ele>1585</ele>
      </trkpt>
      <trkpt lat="46.34383" lon="6.00461">
        <ele>1589.1</ele>
      </trkpt>
      <trkpt lat="46.34389" lon="6.00465">
        <ele>1590.3</ele>
      </trkpt>
      <trkpt lat="46.34407" lon="6.00483">
        <ele>1594.8</ele>
      </trkpt>
      <trkpt lat="46.34429" lon="6.00499">
        <ele>1596.9</ele>
      </trkpt>
      <trkpt lat="46.34439" lon="6.005">
        <ele>1596.2</ele>
      </trkpt>
      <trkpt lat="46.34453" lon="6.00499">
        <ele>1594.9</ele>
      </trkpt>
      <trkpt lat="46.34472" lon="6.00488">
        <ele>1593.4</ele>
      </trkpt>
      <trkpt lat="46.34495" lon="6.00494">
        <ele>1591.6</ele>
      </trkpt>
      <trkpt lat="46.34498" lon="6.00498">
        <ele>1591.2</ele>
      </trkpt>
      <trkpt lat="46.34503" lon="6.005">
        <ele>1590.5</ele>
      </trkpt>
      <trkpt lat="46.34525" lon="6.00493">
        <ele>1588.6</ele>
      </trkpt>
      <trkpt lat="46.34534" lon="6.00486">
        <ele>1587.6</ele>
      </trkpt>
      <trkpt lat="46.34544" lon="6.00492">
        <ele>1586.6</ele>
      </trkpt>
      <trkpt lat="46.34573" lon="6.00495">
        <ele>1583.7</ele>
      </trkpt>
      <trkpt lat="46.34597" lon="6.00497">
        <ele>1582.5</ele>
      </trkpt>
      <trkpt lat="46.34615" lon="6.00506">
        <ele>1580.6</ele>
      </trkpt>
      <trkpt lat="46.34628" lon="6.00517">
        <ele>1577.8</ele>
      </trkpt>
      <trkpt lat="46.34638" lon="6.00536">
        <ele>1574.5</ele>
      </trkpt>
      <trkpt lat="46.34665" lon="6.00557">
        <ele>1574.5</ele>
      </trkpt>
      <trkpt lat="46.34667" lon="6.00562">
        <ele>1574.3</ele>
      </trkpt>
      <trkpt lat="46.34674" lon="6.00565">
        <ele>1574.3</ele>
      </trkpt>
      <trkpt lat="46.34678" lon="6.00563">
        <ele>1574.6</ele>
      </trkpt>
      <trkpt lat="46.34691" lon="6.00571">
        <ele>1574.7</ele>
      </trkpt>
      <trkpt lat="46.34698" lon="6.00577">
        <ele>1574.9</ele>
      </trkpt>
      <trkpt lat="46.34705" lon="6.0058">
        <ele>1575.3</ele>
      </trkpt>
      <trkpt lat="46.34716" lon="6.00572">
        <ele>1576.1</ele>
      </trkpt>
      <trkpt lat="46.34728" lon="6.00588">
        <ele>1575.1</ele>
      </trkpt>
      <trkpt lat="46.34733" lon="6.00586">
        <ele>1576.2</ele>
      </trkpt>
      <trkpt lat="46.34743" lon="6.00595">
        <ele>1573.8</ele>
      </trkpt>
      <trkpt lat="46.3475" lon="6.00597">
        <ele>1574.1</ele>
      </trkpt>
      <trkpt lat="46.34758" lon="6.00595">
        <ele>1574.9</ele>
      </trkpt>
      <trkpt lat="46.34775" lon="6.00596">
        <ele>1574.4</ele>
      </trkpt>
      <trkpt lat="46.34792" lon="6.00611">
        <ele>1571.1</ele>
      </trkpt>
      <trkpt lat="46.34799" lon="6.00635">
        <ele>1566.7</ele>
      </trkpt>
      <trkpt lat="46.3481" lon="6.00619">
        <ele>1570.5</ele>
      </trkpt>
      <trkpt lat="46.34816" lon="6.00619">
        <ele>1570.9</ele>
      </trkpt>
      <trkpt lat="46.34826" lon="6.00598">
        <ele>1573.8</ele>
      </trkpt>
      <trkpt lat="46.34827" lon="6.0059">
        <ele>1574.6</ele>
      </trkpt>
      <trkpt lat="46.34831" lon="6.00581">
        <ele>1574.8</ele>
      </trkpt>
      <trkpt lat="46.34831" lon="6.00575">
        <ele>1574</ele>
      </trkpt>
      <trkpt lat="46.34832" lon="6.00569">
        <ele>1573</ele>
      </trkpt>
      <trkpt lat="46.34833" lon="6.00565">
        <ele>1572.4</ele>
      </trkpt>
      <trkpt lat="46.34834" lon="6.00563">
        <ele>1571.8</ele>
      </trkpt>
      <trkpt lat="46.34834" lon="6.00555">
        <ele>1570.8</ele>
      </trkpt>
      <trkpt lat="46.34834" lon="6.00551">
        <ele>1570</ele>
      </trkpt>
      <trkpt lat="46.34835" lon="6.00549">
        <ele>1569.5</ele>
      </trkpt>
      <trkpt lat="46.34844" lon="6.00549">
        <ele>1566.7</ele>
      </trkpt>
      <trkpt lat="46.34848" lon="6.00547">
        <ele>1565.2</ele>
      </trkpt>
      <trkpt lat="46.34853" lon="6.00533">
        <ele>1561.9</ele>
      </trkpt>
      <trkpt lat="46.34856" lon="6.00529">
        <ele>1560.5</ele>
      </trkpt>
      <trkpt lat="46.34857" lon="6.00522">
        <ele>1559.2</ele>
      </trkpt>
      <trkpt lat="46.34857" lon="6.00515">
        <ele>1558.3</ele>
      </trkpt>
      <trkpt lat="46.34856" lon="6.00508">
        <ele>1557.8</ele>
      </trkpt>
      <trkpt lat="46.34856" lon="6.00503">
        <ele>1557.2</ele>
      </trkpt>
      <trkpt lat="46.34858" lon="6.00499">
        <ele>1556.2</ele>
      </trkpt>
      <trkpt lat="46.34858" lon="6.00488">
        <ele>1554.7</ele>
      </trkpt>
      <trkpt lat="46.34852" lon="6.00464">
        <ele>1553</ele>
      </trkpt>
      <trkpt lat="46.34854" lon="6.00452">
        <ele>1551</ele>
      </trkpt>
      <trkpt lat="46.34856" lon="6.00445">
        <ele>1549.7</ele>
      </trkpt>
      <trkpt lat="46.34859" lon="6.00442">
        <ele>1548.6</ele>
      </trkpt>
      <trkpt lat="46.34861" lon="6.00437">
        <ele>1547.5</ele>
      </trkpt>
      <trkpt lat="46.3487" lon="6.00428">
        <ele>1544.7</ele>
      </trkpt>
      <trkpt lat="46.34874" lon="6.00422">
        <ele>1543.3</ele>
      </trkpt>
      <trkpt lat="46.34884" lon="6.00399">
        <ele>1539.3</ele>
      </trkpt>
      <trkpt lat="46.34887" lon="6.00391">
        <ele>1538.2</ele>
      </trkpt>
      <trkpt lat="46.34891" lon="6.00387">
        <ele>1537.3</ele>
      </trkpt>
      <trkpt lat="46.34892" lon="6.00369">
        <ele>1535.9</ele>
      </trkpt>
      <trkpt lat="46.34905" lon="6.00351">
        <ele>1533.6</ele>
      </trkpt>
      <trkpt lat="46.34913" lon="6.00356">
        <ele>1533.1</ele>
      </trkpt>
      <trkpt lat="46.3493" lon="6.00345">
        <ele>1529.3</ele>
      </trkpt>
      <trkpt lat="46.34933" lon="6.00335">
        <ele>1528.5</ele>
      </trkpt>
      <trkpt lat="46.34933" lon="6.00326">
        <ele>1527.5</ele>
      </trkpt>
      <trkpt lat="46.34938" lon="6.00308">
        <ele>1524.5</ele>
      </trkpt>
      <trkpt lat="46.34946" lon="6.00289">
        <ele>1520.7</ele>
      </trkpt>
      <trkpt lat="46.34965" lon="6.00251">
        <ele>1513</ele>
      </trkpt>
      <trkpt lat="46.34971" lon="6.00243">
        <ele>1511.1</ele>
      </trkpt>
      <trkpt lat="46.3498" lon="6.00236">
        <ele>1508.8</ele>
      </trkpt>
      <trkpt lat="46.34994" lon="6.00234">
        <ele>1506.3</ele>
      </trkpt>
      <trkpt lat="46.34997" lon="6.00236">
        <ele>1506</ele>
      </trkpt>
      <trkpt lat="46.35001" lon="6.00243">
        <ele>1506.1</ele>
      </trkpt>
      <trkpt lat="46.35002" lon="6.00256">
        <ele>1507</ele>
      </trkpt>
      <trkpt lat="46.35005" lon="6.00273">
        <ele>1507.3</ele>
      </trkpt>
      <trkpt lat="46.35025" lon="6.00303">
        <ele>1504.2</ele>
      </trkpt>
      <trkpt lat="46.35046" lon="6.0033">
        <ele>1500.5</ele>
      </trkpt>
      <trkpt lat="46.35079" lon="6.00363">
        <ele>1491.9</ele>
      </trkpt>
      <trkpt lat="46.35101" lon="6.00369">
        <ele>1488.6</ele>
      </trkpt>
      <trkpt lat="46.35111" lon="6.00377">
        <ele>1487.4</ele>
      </trkpt>
      <trkpt lat="46.3512" lon="6.00382">
        <ele>1486.3</ele>
      </trkpt>
      <trkpt lat="46.35132" lon="6.00396">
        <ele>1485.1</ele>
      </trkpt>
      <trkpt lat="46.35151" lon="6.00415">
        <ele>1483.1</ele>
      </trkpt>
      <trkpt lat="46.35155" lon="6.00424">
        <ele>1482.4</ele>
      </trkpt>
      <trkpt lat="46.3516" lon="6.00435">
        <ele>1481.4</ele>
      </trkpt>
      <trkpt lat="46.3517" lon="6.00443">
        <ele>1479.9</ele>
      </trkpt>
      <trkpt lat="46.35185" lon="6.0045">
        <ele>1477.9</ele>
      </trkpt>
      <trkpt lat="46.35198" lon="6.0046">
        <ele>1476.2</ele>
      </trkpt>
      <trkpt lat="46.35213" lon="6.00481">
        <ele>1474.5</ele>
      </trkpt>
      <trkpt lat="46.35246" lon="6.00512">
        <ele>1472.1</ele>
      </trkpt>
      <trkpt lat="46.35273" lon="6.00499">
        <ele>1469.8</ele>
      </trkpt>
      <trkpt lat="46.35287" lon="6.00492">
        <ele>1468.8</ele>
      </trkpt>
      <trkpt lat="46.35298" lon="6.00491">
        <ele>1468.1</ele>
      </trkpt>
      <trkpt lat="46.35306" lon="6.00494">
        <ele>1467.9</ele>
      </trkpt>
      <trkpt lat="46.35319" lon="6.00498">
        <ele>1467.5</ele>
      </trkpt>
      <trkpt lat="46.35331" lon="6.00501">
        <ele>1467.2</ele>
      </trkpt>
      <trkpt lat="46.35335" lon="6.00502">
        <ele>1467.4</ele>
      </trkpt>
      <trkpt lat="46.35338" lon="6.00504">
        <ele>1467.6</ele>
      </trkpt>
      <trkpt lat="46.35343" lon="6.00504">
        <ele>1467.7</ele>
      </trkpt>
      <trkpt lat="46.35348" lon="6.00503">
        <ele>1467.6</ele>
      </trkpt>
      <trkpt lat="46.35354" lon="6.00502">
        <ele>1467.4</ele>
      </trkpt>
      <trkpt lat="46.35359" lon="6.00499">
        <ele>1467.2</ele>
      </trkpt>
      <trkpt lat="46.35378" lon="6.00488">
        <ele>1466.2</ele>
      </trkpt>
      <trkpt lat="46.35393" lon="6.00476">
        <ele>1465</ele>
      </trkpt>
      <trkpt lat="46.35398" lon="6.00474">
        <ele>1464.8</ele>
      </trkpt>
      <trkpt lat="46.35402" lon="6.00473">
        <ele>1464.7</ele>
      </trkpt>
      <trkpt lat="46.35405" lon="6.00473">
        <ele>1464.7</ele>
      </trkpt>
      <trkpt lat="46.35409" lon="6.00474">
        <ele>1464.9</ele>
      </trkpt>
      <trkpt lat="46.35411" lon="6.00476">
        <ele>1465.1</ele>
      </trkpt>
      <trkpt lat="46.35413" lon="6.00479">
        <ele>1465.4</ele>
      </trkpt>
      <trkpt lat="46.35422" lon="6.00492">
        <ele>1466.8</ele>
      </trkpt>
      <trkpt lat="46.35426" lon="6.00495">
        <ele>1467</ele>
      </trkpt>
      <trkpt lat="46.3543" lon="6.00498">
        <ele>1467.2</ele>
      </trkpt>
      <trkpt lat="46.35434" lon="6.005">
        <ele>1467.1</ele>
      </trkpt>
      <trkpt lat="46.35438" lon="6.005">
        <ele>1467</ele>
      </trkpt>
      <trkpt lat="46.35444" lon="6.005">
        <ele>1466.6</ele>
      </trkpt>
      <trkpt lat="46.35453" lon="6.00497">
        <ele>1465.9</ele>
      </trkpt>
      <trkpt lat="46.35458" lon="6.00497">
        <ele>1465.7</ele>
      </trkpt>
      <trkpt lat="46.35463" lon="6.00498">
        <ele>1465.6</ele>
      </trkpt>
      <trkpt lat="46.35468" lon="6.005">
        <ele>1465.6</ele>
      </trkpt>
      <trkpt lat="46.35476" lon="6.00505">
        <ele>1465.6</ele>
      </trkpt>
      <trkpt lat="46.35481" lon="6.00508">
        <ele>1465.5</ele>
      </trkpt>
      <trkpt lat="46.35486" lon="6.00509">
        <ele>1465.3</ele>
      </trkpt>
      <trkpt lat="46.35492" lon="6.00508">
        <ele>1465</ele>
      </trkpt>
      <trkpt lat="46.35501" lon="6.00507">
        <ele>1464.4</ele>
      </trkpt>
      <trkpt lat="46.35506" lon="6.00507">
        <ele>1464.1</ele>
      </trkpt>
      <trkpt lat="46.35508" lon="6.00508">
        <ele>1464</ele>
      </trkpt>
      <trkpt lat="46.35509" lon="6.0051">
        <ele>1464.1</ele>
      </trkpt>
      <trkpt lat="46.35511" lon="6.00513">
        <ele>1464.2</ele>
      </trkpt>
      <trkpt lat="46.35512" lon="6.00516">
        <ele>1464.3</ele>
      </trkpt>
      <trkpt lat="46.35512" lon="6.00519">
        <ele>1464.6</ele>
      </trkpt>
      <trkpt lat="46.35512" lon="6.00523">
        <ele>1464.9</ele>
      </trkpt>
      <trkpt lat="46.35511" lon="6.00525">
        <ele>1465.2</ele>
      </trkpt>
      <trkpt lat="46.35508" lon="6.00534">
        <ele>1466.1</ele>
      </trkpt>
      <trkpt lat="46.35505" lon="6.00545">
        <ele>1467.1</ele>
      </trkpt>
      <trkpt lat="46.35503" lon="6.00551">
        <ele>1467.6</ele>
      </trkpt>
      <trkpt lat="46.35504" lon="6.00557">
        <ele>1468.1</ele>
      </trkpt>
      <trkpt lat="46.35505" lon="6.00562">
        <ele>1468.4</ele>
      </trkpt>
      <trkpt lat="46.35506" lon="6.00566">
        <ele>1468.7</ele>
      </trkpt>
      <trkpt lat="46.35508" lon="6.0057">
        <ele>1469</ele>
      </trkpt>
      <trkpt lat="46.35512" lon="6.00574">
        <ele>1469.3</ele>
      </trkpt>
      <trkpt lat="46.35515" lon="6.00577">
        <ele>1469.6</ele>
      </trkpt>
      <trkpt lat="46.35521" lon="6.0058">
        <ele>1469.9</ele>
      </trkpt>
      <trkpt lat="46.35526" lon="6.00581">
        <ele>1470</ele>
      </trkpt>
      <trkpt lat="46.35532" lon="6.00581">
        <ele>1470.1</ele>
      </trkpt>
      <trkpt lat="46.35539" lon="6.00579">
        <ele>1470</ele>
      </trkpt>
      <trkpt lat="46.35545" lon="6.00576">
        <ele>1469.7</ele>
      </trkpt>
      <trkpt lat="46.35552" lon="6.00572">
        <ele>1469.1</ele>
      </trkpt>
      <trkpt lat="46.35556" lon="6.00567">
        <ele>1468.5</ele>
      </trkpt>
      <trkpt lat="46.35564" lon="6.00557">
        <ele>1467</ele>
      </trkpt>
      <trkpt lat="46.3558" lon="6.00539">
        <ele>1463.6</ele>
      </trkpt>
      <trkpt lat="46.35585" lon="6.00535">
        <ele>1462.7</ele>
      </trkpt>
      <trkpt lat="46.35589" lon="6.00533">
        <ele>1462</ele>
      </trkpt>
      <trkpt lat="46.35594" lon="6.00534">
        <ele>1461.5</ele>
      </trkpt>
      <trkpt lat="46.356" lon="6.00536">
        <ele>1461.2</ele>
      </trkpt>
      <trkpt lat="46.3561" lon="6.0054">
        <ele>1460.8</ele>
      </trkpt>
      <trkpt lat="46.3562" lon="6.00546">
        <ele>1460.5</ele>
      </trkpt>
      <trkpt lat="46.35625" lon="6.0055">
        <ele>1460.5</ele>
      </trkpt>
      <trkpt lat="46.35628" lon="6.00554">
        <ele>1460.7</ele>
      </trkpt>
      <trkpt lat="46.3563" lon="6.00559">
        <ele>1461</ele>
      </trkpt>
      <trkpt lat="46.35636" lon="6.00568">
        <ele>1461.5</ele>
      </trkpt>
      <trkpt lat="46.35641" lon="6.00575">
        <ele>1461.6</ele>
      </trkpt>
      <trkpt lat="46.3565" lon="6.00584">
        <ele>1461.4</ele>
      </trkpt>
      <trkpt lat="46.35654" lon="6.00588">
        <ele>1461.4</ele>
      </trkpt>
      <trkpt lat="46.35658" lon="6.00593">
        <ele>1461.7</ele>
      </trkpt>
      <trkpt lat="46.35661" lon="6.00601">
        <ele>1462.3</ele>
      </trkpt>
      <trkpt lat="46.35667" lon="6.00613">
        <ele>1463.2</ele>
      </trkpt>
      <trkpt lat="46.35669" lon="6.00619">
        <ele>1463.5</ele>
      </trkpt>
      <trkpt lat="46.35673" lon="6.0063">
        <ele>1464.2</ele>
      </trkpt>
      <trkpt lat="46.35675" lon="6.00643">
        <ele>1465.4</ele>
      </trkpt>
      <trkpt lat="46.35677" lon="6.00653">
        <ele>1466.2</ele>
      </trkpt>
      <trkpt lat="46.35679" lon="6.00661">
        <ele>1466.8</ele>
      </trkpt>
      <trkpt lat="46.35684" lon="6.00673">
        <ele>1466.8</ele>
      </trkpt>
      <trkpt lat="46.35687" lon="6.00689">
        <ele>1466.9</ele>
      </trkpt>
      <trkpt lat="46.35691" lon="6.0071">
        <ele>1467.5</ele>
      </trkpt>
      <trkpt lat="46.35693" lon="6.00718">
        <ele>1467.6</ele>
      </trkpt>
      <trkpt lat="46.35696" lon="6.00724">
        <ele>1467.4</ele>
      </trkpt>
      <trkpt lat="46.35699" lon="6.00728">
        <ele>1467</ele>
      </trkpt>
      <trkpt lat="46.35708" lon="6.0074">
        <ele>1465.9</ele>
      </trkpt>
      <trkpt lat="46.35715" lon="6.00748">
        <ele>1464.8</ele>
      </trkpt>
      <trkpt lat="46.35721" lon="6.00752">
        <ele>1463.9</ele>
      </trkpt>
      <trkpt lat="46.35728" lon="6.00757">
        <ele>1462.9</ele>
      </trkpt>
      <trkpt lat="46.35737" lon="6.00763">
        <ele>1461.7</ele>
      </trkpt>
      <trkpt lat="46.35746" lon="6.00768">
        <ele>1460.6</ele>
      </trkpt>
      <trkpt lat="46.35753" lon="6.00776">
        <ele>1460.9</ele>
      </trkpt>
      <trkpt lat="46.35758" lon="6.00786">
        <ele>1462.2</ele>
      </trkpt>
      <trkpt lat="46.35764" lon="6.00796">
        <ele>1463.5</ele>
      </trkpt>
      <trkpt lat="46.35769" lon="6.00801">
        <ele>1463.9</ele>
      </trkpt>
      <trkpt lat="46.35775" lon="6.00804">
        <ele>1464</ele>
      </trkpt>
      <trkpt lat="46.35783" lon="6.00805">
        <ele>1463.6</ele>
      </trkpt>
      <trkpt lat="46.35793" lon="6.00806">
        <ele>1463.2</ele>
      </trkpt>
      <trkpt lat="46.35799" lon="6.00808">
        <ele>1463</ele>
      </trkpt>
      <trkpt lat="46.35819" lon="6.00759">
        <ele>1455.7</ele>
      </trkpt>
      <trkpt lat="46.35824" lon="6.00756">
        <ele>1455</ele>
      </trkpt>
      <trkpt lat="46.35828" lon="6.00748">
        <ele>1454</ele>
      </trkpt>
      <trkpt lat="46.35838" lon="6.00721">
        <ele>1450</ele>
      </trkpt>
      <trkpt lat="46.35857" lon="6.00709">
        <ele>1446.8</ele>
      </trkpt>
      <trkpt lat="46.35878" lon="6.0072">
        <ele>1445.9</ele>
      </trkpt>
      <trkpt lat="46.35887" lon="6.00728">
        <ele>1445.9</ele>
      </trkpt>
      <trkpt lat="46.35906" lon="6.00734">
        <ele>1444.5</ele>
      </trkpt>
      <trkpt lat="46.35921" lon="6.00748">
        <ele>1444.4</ele>
      </trkpt>
      <trkpt lat="46.35924" lon="6.00756">
        <ele>1444.8</ele>
      </trkpt>
      <trkpt lat="46.35928" lon="6.00758">
        <ele>1444.5</ele>
      </trkpt>
      <trkpt lat="46.35932" lon="6.00759">
        <ele>1444.2</ele>
      </trkpt>
      <trkpt lat="46.35947" lon="6.00745">
        <ele>1441.3</ele>
      </trkpt>
      <trkpt lat="46.35959" lon="6.0074">
        <ele>1439.6</ele>
      </trkpt>
      <trkpt lat="46.35963" lon="6.00737">
        <ele>1438.9</ele>
      </trkpt>
      <trkpt lat="46.3597" lon="6.00737">
        <ele>1438.2</ele>
      </trkpt>
      <trkpt lat="46.35976" lon="6.00739">
        <ele>1437.7</ele>
      </trkpt>
      <trkpt lat="46.35983" lon="6.00745">
        <ele>1437.5</ele>
      </trkpt>
      <trkpt lat="46.35987" lon="6.00745">
        <ele>1437.1</ele>
      </trkpt>
      <trkpt lat="46.35999" lon="6.00748">
        <ele>1436</ele>
      </trkpt>
      <trkpt lat="46.36012" lon="6.00756">
        <ele>1434.5</ele>
      </trkpt>
      <trkpt lat="46.36019" lon="6.00765">
        <ele>1433.8</ele>
      </trkpt>
      <trkpt lat="46.36032" lon="6.00761">
        <ele>1432.1</ele>
      </trkpt>
      <trkpt lat="46.36037" lon="6.00765">
        <ele>1431.5</ele>
      </trkpt>
      <trkpt lat="46.3605" lon="6.00773">
        <ele>1430.1</ele>
      </trkpt>
      <trkpt lat="46.36055" lon="6.00775">
        <ele>1429.6</ele>
      </trkpt>
      <trkpt lat="46.36061" lon="6.00776">
        <ele>1428.9</ele>
      </trkpt>
      <trkpt lat="46.36062" lon="6.00784">
        <ele>1429.1</ele>
      </trkpt>
      <trkpt lat="46.36067" lon="6.00796">
        <ele>1429</ele>
      </trkpt>
      <trkpt lat="46.3607" lon="6.00802">
        <ele>1429</ele>
      </trkpt>
      <trkpt lat="46.36075" lon="6.00806">
        <ele>1428.6</ele>
      </trkpt>
      <trkpt lat="46.36087" lon="6.00809">
        <ele>1427.1</ele>
      </trkpt>
      <trkpt lat="46.36093" lon="6.00812">
        <ele>1426.2</ele>
      </trkpt>
      <trkpt lat="46.36096" lon="6.00817">
        <ele>1425.9</ele>
      </trkpt>
      <trkpt lat="46.36098" lon="6.00823">
        <ele>1425.8</ele>
      </trkpt>
      <trkpt lat="46.361" lon="6.0083">
        <ele>1425.8</ele>
      </trkpt>
      <trkpt lat="46.36102" lon="6.00832">
        <ele>1425.5</ele>
      </trkpt>
      <trkpt lat="46.36106" lon="6.00834">
        <ele>1424.9</ele>
      </trkpt>
      <trkpt lat="46.36112" lon="6.00835">
        <ele>1423.9</ele>
      </trkpt>
      <trkpt lat="46.36116" lon="6.00839">
        <ele>1423.6</ele>
      </trkpt>
      <trkpt lat="46.36121" lon="6.00845">
        <ele>1423</ele>
      </trkpt>
      <trkpt lat="46.36125" lon="6.00847">
        <ele>1422.4</ele>
      </trkpt>
      <trkpt lat="46.36129" lon="6.0085">
        <ele>1421.9</ele>
      </trkpt>
      <trkpt lat="46.36133" lon="6.00851">
        <ele>1421.3</ele>
      </trkpt>
      <trkpt lat="46.36152" lon="6.00867">
        <ele>1419</ele>
      </trkpt>
      <trkpt lat="46.3616" lon="6.00875">
        <ele>1418.1</ele>
      </trkpt>
      <trkpt lat="46.36181" lon="6.00874">
        <ele>1413.2</ele>
      </trkpt>
      <trkpt lat="46.36192" lon="6.00868">
        <ele>1409.8</ele>
      </trkpt>
      <trkpt lat="46.36208" lon="6.00853">
        <ele>1404.1</ele>
      </trkpt>
      <trkpt lat="46.36215" lon="6.00848">
        <ele>1401.8</ele>
      </trkpt>
      <trkpt lat="46.36221" lon="6.00846">
        <ele>1400.1</ele>
      </trkpt>
      <trkpt lat="46.36224" lon="6.00852">
        <ele>1399.7</ele>
      </trkpt>
      <trkpt lat="46.36235" lon="6.00862">
        <ele>1397.8</ele>
      </trkpt>
      <trkpt lat="46.36242" lon="6.00867">
        <ele>1396.5</ele>
      </trkpt>
      <trkpt lat="46.3626" lon="6.0088">
        <ele>1391.8</ele>
      </trkpt>
      <trkpt lat="46.3627" lon="6.00889">
        <ele>1388.7</ele>
      </trkpt>
      <trkpt lat="46.36273" lon="6.00892">
        <ele>1387.9</ele>
      </trkpt>
      <trkpt lat="46.36276" lon="6.00896">
        <ele>1387.2</ele>
      </trkpt>
      <trkpt lat="46.3628" lon="6.00905">
        <ele>1386.6</ele>
      </trkpt>
      <trkpt lat="46.36284" lon="6.0092">
        <ele>1386.8</ele>
      </trkpt>
      <trkpt lat="46.36287" lon="6.0093">
        <ele>1387</ele>
      </trkpt>
      <trkpt lat="46.36291" lon="6.00938">
        <ele>1386.6</ele>
      </trkpt>
      <trkpt lat="46.36295" lon="6.00945">
        <ele>1385.7</ele>
      </trkpt>
      <trkpt lat="46.363" lon="6.00951">
        <ele>1384.6</ele>
      </trkpt>
      <trkpt lat="46.36306" lon="6.00955">
        <ele>1382.7</ele>
      </trkpt>
      <trkpt lat="46.36311" lon="6.00957">
        <ele>1381.4</ele>
      </trkpt>
      <trkpt lat="46.36326" lon="6.00965">
        <ele>1376.5</ele>
      </trkpt>
      <trkpt lat="46.36329" lon="6.00967">
        <ele>1375.6</ele>
      </trkpt>
      <trkpt lat="46.36333" lon="6.00971">
        <ele>1374.5</ele>
      </trkpt>
      <trkpt lat="46.36336" lon="6.00976">
        <ele>1374.2</ele>
      </trkpt>
      <trkpt lat="46.36338" lon="6.00982">
        <ele>1374.3</ele>
      </trkpt>
      <trkpt lat="46.36339" lon="6.00989">
        <ele>1374.9</ele>
      </trkpt>
      <trkpt lat="46.36339" lon="6.0101">
        <ele>1377.4</ele>
      </trkpt>
      <trkpt lat="46.36339" lon="6.01019">
        <ele>1378.3</ele>
      </trkpt>
      <trkpt lat="46.3634" lon="6.01027">
        <ele>1378.8</ele>
      </trkpt>
      <trkpt lat="46.36342" lon="6.01036">
        <ele>1379</ele>
      </trkpt>
      <trkpt lat="46.36346" lon="6.01047">
        <ele>1378.9</ele>
      </trkpt>
      <trkpt lat="46.36353" lon="6.01069">
        <ele>1378.7</ele>
      </trkpt>
      <trkpt lat="46.36354" lon="6.01079">
        <ele>1379.3</ele>
      </trkpt>
      <trkpt lat="46.36358" lon="6.01089">
        <ele>1378.5</ele>
      </trkpt>
      <trkpt lat="46.36363" lon="6.011">
        <ele>1376.8</ele>
      </trkpt>
      <trkpt lat="46.36369" lon="6.01105">
        <ele>1375.1</ele>
      </trkpt>
      <trkpt lat="46.36379" lon="6.01113">
        <ele>1371.8</ele>
      </trkpt>
      <trkpt lat="46.36384" lon="6.01118">
        <ele>1370.2</ele>
      </trkpt>
      <trkpt lat="46.36389" lon="6.01125">
        <ele>1368.7</ele>
      </trkpt>
      <trkpt lat="46.36394" lon="6.01134">
        <ele>1367.4</ele>
      </trkpt>
      <trkpt lat="46.36399" lon="6.01142">
        <ele>1365.9</ele>
      </trkpt>
      <trkpt lat="46.36415" lon="6.01158">
        <ele>1361.3</ele>
      </trkpt>
      <trkpt lat="46.36425" lon="6.01172">
        <ele>1360</ele>
      </trkpt>
      <trkpt lat="46.36434" lon="6.01181">
        <ele>1359.1</ele>
      </trkpt>
      <trkpt lat="46.36439" lon="6.01185">
        <ele>1358.4</ele>
      </trkpt>
      <trkpt lat="46.36443" lon="6.01185">
        <ele>1357.8</ele>
      </trkpt>
      <trkpt lat="46.36448" lon="6.01184">
        <ele>1357.1</ele>
      </trkpt>
      <trkpt lat="46.36452" lon="6.01182">
        <ele>1356.5</ele>
      </trkpt>
      <trkpt lat="46.36457" lon="6.01174">
        <ele>1355.7</ele>
      </trkpt>
      <trkpt lat="46.3646" lon="6.01167">
        <ele>1355.3</ele>
      </trkpt>
      <trkpt lat="46.36463" lon="6.01158">
        <ele>1354.5</ele>
      </trkpt>
      <trkpt lat="46.36467" lon="6.01153">
        <ele>1353.6</ele>
      </trkpt>
      <trkpt lat="46.36473" lon="6.0115">
        <ele>1352.7</ele>
      </trkpt>
      <trkpt lat="46.36479" lon="6.0115">
        <ele>1351.9</ele>
      </trkpt>
      <trkpt lat="46.36485" lon="6.01153">
        <ele>1351.3</ele>
      </trkpt>
      <trkpt lat="46.36488" lon="6.0116">
        <ele>1351.1</ele>
      </trkpt>
      <trkpt lat="46.36491" lon="6.01172">
        <ele>1351</ele>
      </trkpt>
      <trkpt lat="46.36494" lon="6.01183">
        <ele>1350.4</ele>
      </trkpt>
      <trkpt lat="46.36496" lon="6.0119">
        <ele>1349.8</ele>
      </trkpt>
      <trkpt lat="46.36501" lon="6.01198">
        <ele>1348.8</ele>
      </trkpt>
      <trkpt lat="46.36505" lon="6.01203">
        <ele>1348.1</ele>
      </trkpt>
      <trkpt lat="46.36524" lon="6.01204">
        <ele>1345.6</ele>
      </trkpt>
      <trkpt lat="46.36531" lon="6.01205">
        <ele>1344.7</ele>
      </trkpt>
      <trkpt lat="46.36536" lon="6.01208">
        <ele>1344</ele>
      </trkpt>
      <trkpt lat="46.36539" lon="6.01212">
        <ele>1343.6</ele>
      </trkpt>
      <trkpt lat="46.3654" lon="6.01217">
        <ele>1343.3</ele>
      </trkpt>
      <trkpt lat="46.3654" lon="6.01227">
        <ele>1343.1</ele>
      </trkpt>
      <trkpt lat="46.36542" lon="6.01234">
        <ele>1342.8</ele>
      </trkpt>
      <trkpt lat="46.36544" lon="6.01238">
        <ele>1342.4</ele>
      </trkpt>
      <trkpt lat="46.36548" lon="6.01242">
        <ele>1341.9</ele>
      </trkpt>
      <trkpt lat="46.36553" lon="6.01244">
        <ele>1341.3</ele>
      </trkpt>
      <trkpt lat="46.36568" lon="6.01249">
        <ele>1339.7</ele>
      </trkpt>
      <trkpt lat="46.36585" lon="6.01258">
        <ele>1338.6</ele>
      </trkpt>
      <trkpt lat="46.36617" lon="6.01276">
        <ele>1337.3</ele>
      </trkpt>
      <trkpt lat="46.36656" lon="6.0129">
        <ele>1334.1</ele>
      </trkpt>
      <trkpt lat="46.36661" lon="6.01289">
        <ele>1333.5</ele>
      </trkpt>
      <trkpt lat="46.36667" lon="6.01287">
        <ele>1332.7</ele>
      </trkpt>
      <trkpt lat="46.36673" lon="6.01288">
        <ele>1331.3</ele>
      </trkpt>
      <trkpt lat="46.36678" lon="6.01293">
        <ele>1330.1</ele>
      </trkpt>
      <trkpt lat="46.36683" lon="6.01299">
        <ele>1329.2</ele>
      </trkpt>
      <trkpt lat="46.36685" lon="6.01302">
        <ele>1328.7</ele>
      </trkpt>
      <trkpt lat="46.3669" lon="6.01311">
        <ele>1327.8</ele>
      </trkpt>
      <trkpt lat="46.36692" lon="6.0132">
        <ele>1327.4</ele>
      </trkpt>
      <trkpt lat="46.36695" lon="6.01335">
        <ele>1327.1</ele>
      </trkpt>
      <trkpt lat="46.36699" lon="6.01345">
        <ele>1325.8</ele>
      </trkpt>
      <trkpt lat="46.36702" lon="6.0136">
        <ele>1324.8</ele>
      </trkpt>
      <trkpt lat="46.36708" lon="6.01381">
        <ele>1323</ele>
      </trkpt>
      <trkpt lat="46.36709" lon="6.01392">
        <ele>1322.5</ele>
      </trkpt>
      <trkpt lat="46.36709" lon="6.014">
        <ele>1322.3</ele>
      </trkpt>
      <trkpt lat="46.36707" lon="6.01419">
        <ele>1322.3</ele>
      </trkpt>
      <trkpt lat="46.36707" lon="6.01436">
        <ele>1321.4</ele>
      </trkpt>
      <trkpt lat="46.36715" lon="6.01459">
        <ele>1319.3</ele>
      </trkpt>
      <trkpt lat="46.36723" lon="6.01475">
        <ele>1318</ele>
      </trkpt>
      <trkpt lat="46.36738" lon="6.01513">
        <ele>1317.1</ele>
      </trkpt>
      <trkpt lat="46.3675" lon="6.01538">
        <ele>1316.9</ele>
      </trkpt>
      <trkpt lat="46.36841" lon="6.01644">
        <ele>1312.8</ele>
      </trkpt>
      <trkpt lat="46.36849" lon="6.01663">
        <ele>1312.9</ele>
      </trkpt>
      <trkpt lat="46.3686" lon="6.01703">
        <ele>1313.7</ele>
      </trkpt>
      <trkpt lat="46.36866" lon="6.01722">
        <ele>1314.5</ele>
      </trkpt>
      <trkpt lat="46.3688" lon="6.0174">
        <ele>1314.8</ele>
      </trkpt>
      <trkpt lat="46.36894" lon="6.01747">
        <ele>1314.1</ele>
      </trkpt>
      <trkpt lat="46.369" lon="6.01751">
        <ele>1314.1</ele>
      </trkpt>
      <trkpt lat="46.36919" lon="6.01764">
        <ele>1313.2</ele>
      </trkpt>
      <trkpt lat="46.3693" lon="6.01774">
        <ele>1311.1</ele>
      </trkpt>
      <trkpt lat="46.36939" lon="6.01784">
        <ele>1310.5</ele>
      </trkpt>
      <trkpt lat="46.36948" lon="6.01797">
        <ele>1310.8</ele>
      </trkpt>
      <trkpt lat="46.36958" lon="6.01817">
        <ele>1313.2</ele>
      </trkpt>
      <trkpt lat="46.3697" lon="6.01844">
        <ele>1317.4</ele>
      </trkpt>
      <trkpt lat="46.36975" lon="6.01857">
        <ele>1319.7</ele>
      </trkpt>
      <trkpt lat="46.36971" lon="6.01861">
        <ele>1320.8</ele>
      </trkpt>
      <trkpt lat="46.36965" lon="6.01867">
        <ele>1322.3</ele>
      </trkpt>
      <trkpt lat="46.36961" lon="6.01875">
        <ele>1323.7</ele>
      </trkpt>
      <trkpt lat="46.36948" lon="6.01896">
        <ele>1326.5</ele>
      </trkpt>
      <trkpt lat="46.36937" lon="6.01918">
        <ele>1327.8</ele>
      </trkpt>
      <trkpt lat="46.36929" lon="6.01934">
        <ele>1329</ele>
      </trkpt>
      <trkpt lat="46.36926" lon="6.01939">
        <ele>1329.2</ele>
      </trkpt>
      <trkpt lat="46.36908" lon="6.01968">
        <ele>1330.5</ele>
      </trkpt>
      <trkpt lat="46.36905" lon="6.01973">
        <ele>1330.7</ele>
      </trkpt>
      <trkpt lat="46.36903" lon="6.01976">
        <ele>1330.9</ele>
      </trkpt>
      <trkpt lat="46.3691" lon="6.01985">
        <ele>1332.4</ele>
      </trkpt>
      <trkpt lat="46.36906" lon="6.01991">
        <ele>1332.7</ele>
      </trkpt>
      <trkpt lat="46.36906" lon="6.01993">
        <ele>1332.9</ele>
      </trkpt>
      <trkpt lat="46.36893" lon="6.02027">
        <ele>1335.6</ele>
      </trkpt>
      <trkpt lat="46.36891" lon="6.02036">
        <ele>1336.2</ele>
      </trkpt>
      <trkpt lat="46.3689" lon="6.02046">
        <ele>1337.3</ele>
      </trkpt>
      <trkpt lat="46.36889" lon="6.0205">
        <ele>1337.6</ele>
      </trkpt>
      <trkpt lat="46.36887" lon="6.02066">
        <ele>1338.7</ele>
      </trkpt>
      <trkpt lat="46.3688" lon="6.0208">
        <ele>1337.5</ele>
      </trkpt>
      <trkpt lat="46.36877" lon="6.02089">
        <ele>1337.6</ele>
      </trkpt>
      <trkpt lat="46.36875" lon="6.02117">
        <ele>1340.2</ele>
      </trkpt>
      <trkpt lat="46.36869" lon="6.02136">
        <ele>1340.2</ele>
      </trkpt>
      <trkpt lat="46.36867" lon="6.02151">
        <ele>1341.5</ele>
      </trkpt>
      <trkpt lat="46.36879" lon="6.02171">
        <ele>1348.7</ele>
      </trkpt>
      <trkpt lat="46.36889" lon="6.02199">
        <ele>1357.3</ele>
      </trkpt>
      <trkpt lat="46.36894" lon="6.02214">
        <ele>1361.3</ele>
      </trkpt>
      <trkpt lat="46.36899" lon="6.02225">
        <ele>1364.4</ele>
      </trkpt>
      <trkpt lat="46.3691" lon="6.02229">
        <ele>1368</ele>
      </trkpt>
      <trkpt lat="46.36917" lon="6.02237">
        <ele>1370.7</ele>
      </trkpt>
      <trkpt lat="46.3695" lon="6.02254">
        <ele>1373.6</ele>
      </trkpt>
      <trkpt lat="46.36959" lon="6.02258">
        <ele>1374.4</ele>
      </trkpt>
      <trkpt lat="46.36973" lon="6.02257">
        <ele>1374.7</ele>
      </trkpt>
      <trkpt lat="46.37007" lon="6.02273">
        <ele>1376.1</ele>
      </trkpt>
      <trkpt lat="46.37036" lon="6.02314">
        <ele>1374.8</ele>
      </trkpt>
      <trkpt lat="46.37054" lon="6.0234">
        <ele>1373.5</ele>
      </trkpt>
      <trkpt lat="46.37054" lon="6.02375">
        <ele>1376</ele>
      </trkpt>
      <trkpt lat="46.37062" lon="6.02393">
        <ele>1375.7</ele>
      </trkpt>
      <trkpt lat="46.37058" lon="6.02413">
        <ele>1377.8</ele>
      </trkpt>
      <trkpt lat="46.37062" lon="6.02431">
        <ele>1378</ele>
      </trkpt>
      <trkpt lat="46.37085" lon="6.02487">
        <ele>1376.9</ele>
      </trkpt>
      <trkpt lat="46.37087" lon="6.02509">
        <ele>1377.2</ele>
      </trkpt>
      <trkpt lat="46.3708" lon="6.02534">
        <ele>1377.7</ele>
      </trkpt>
      <trkpt lat="46.37082" lon="6.02554">
        <ele>1376.9</ele>
      </trkpt>
      <trkpt lat="46.37103" lon="6.02575">
        <ele>1373.1</ele>
      </trkpt>
      <trkpt lat="46.37107" lon="6.02595">
        <ele>1372</ele>
      </trkpt>
      <trkpt lat="46.37105" lon="6.0261">
        <ele>1371.8</ele>
      </trkpt>
      <trkpt lat="46.37109" lon="6.02644">
        <ele>1370.5</ele>
      </trkpt>
      <trkpt lat="46.37126" lon="6.02673">
        <ele>1368.4</ele>
      </trkpt>
      <trkpt lat="46.37138" lon="6.02686">
        <ele>1367.4</ele>
      </trkpt>
      <trkpt lat="46.37154" lon="6.0269">
        <ele>1366.4</ele>
      </trkpt>
      <trkpt lat="46.37165" lon="6.02714">
        <ele>1366.2</ele>
      </trkpt>
      <trkpt lat="46.37169" lon="6.02748">
        <ele>1366.7</ele>
      </trkpt>
      <trkpt lat="46.37164" lon="6.02762">
        <ele>1366.9</ele>
      </trkpt>
      <trkpt lat="46.37144" lon="6.02793">
        <ele>1366.2</ele>
      </trkpt>
      <trkpt lat="46.37133" lon="6.02825">
        <ele>1365</ele>
      </trkpt>
      <trkpt lat="46.37138" lon="6.0285">
        <ele>1364.3</ele>
      </trkpt>
      <trkpt lat="46.37149" lon="6.02868">
        <ele>1363.9</ele>
      </trkpt>
      <trkpt lat="46.37158" lon="6.02895">
        <ele>1362.9</ele>
      </trkpt>
      <trkpt lat="46.37159" lon="6.02915">
        <ele>1362</ele>
      </trkpt>
      <trkpt lat="46.37163" lon="6.02914">
        <ele>1362.1</ele>
      </trkpt>
      <trkpt lat="46.37161" lon="6.02941">
        <ele>1365.3</ele>
      </trkpt>
      <trkpt lat="46.37167" lon="6.0296">
        <ele>1368.2</ele>
      </trkpt>
      <trkpt lat="46.3719" lon="6.02971">
        <ele>1369.6</ele>
      </trkpt>
      <trkpt lat="46.37196" lon="6.03008">
        <ele>1375.9</ele>
      </trkpt>
      <trkpt lat="46.37228" lon="6.0307">
        <ele>1389.1</ele>
      </trkpt>
      <trkpt lat="46.3724" lon="6.03119">
        <ele>1397.1</ele>
      </trkpt>
      <trkpt lat="46.37256" lon="6.03132">
        <ele>1397.9</ele>
      </trkpt>
      <trkpt lat="46.37243" lon="6.03148">
        <ele>1401.5</ele>
      </trkpt>
      <trkpt lat="46.37256" lon="6.03165">
        <ele>1402.9</ele>
      </trkpt>
      <trkpt lat="46.37264" lon="6.03221">
        <ele>1409.9</ele>
      </trkpt>
      <trkpt lat="46.37283" lon="6.03249">
        <ele>1411.1</ele>
      </trkpt>
      <trkpt lat="46.37303" lon="6.03304">
        <ele>1411.5</ele>
      </trkpt>
      <trkpt lat="46.37293" lon="6.0333">
        <ele>1414.2</ele>
      </trkpt>
      <trkpt lat="46.37314" lon="6.03333">
        <ele>1412.1</ele>
      </trkpt>
      <trkpt lat="46.3732" lon="6.03356">
        <ele>1413.7</ele>
      </trkpt>
      <trkpt lat="46.37305" lon="6.03408">
        <ele>1420.2</ele>
      </trkpt>
      <trkpt lat="46.3734" lon="6.03443">
        <ele>1420.2</ele>
      </trkpt>
      <trkpt lat="46.37371" lon="6.03478">
        <ele>1419.1</ele>
      </trkpt>
      <trkpt lat="46.37394" lon="6.03522">
        <ele>1422.3</ele>
      </trkpt>
      <trkpt lat="46.37411" lon="6.03564">
        <ele>1427.8</ele>
      </trkpt>
      <trkpt lat="46.37416" lon="6.03602">
        <ele>1434.3</ele>
      </trkpt>
      <trkpt lat="46.37425" lon="6.03648">
        <ele>1440.7</ele>
      </trkpt>
      <trkpt lat="46.37433" lon="6.03673">
        <ele>1442.6</ele>
      </trkpt>
      <trkpt lat="46.37441" lon="6.03681">
        <ele>1440.9</ele>
      </trkpt>
      <trkpt lat="46.37433" lon="6.03685">
        <ele>1443</ele>
      </trkpt>
      <trkpt lat="46.37433" lon="6.03702">
        <ele>1443.4</ele>
      </trkpt>
      <trkpt lat="46.37443" lon="6.03715">
        <ele>1441.9</ele>
      </trkpt>
      <trkpt lat="46.37467" lon="6.03715">
        <ele>1437.2</ele>
      </trkpt>
      <trkpt lat="46.37466" lon="6.03725">
        <ele>1437.8</ele>
      </trkpt>
      <trkpt lat="46.37472" lon="6.03734">
        <ele>1437.1</ele>
      </trkpt>
      <trkpt lat="46.37482" lon="6.03737">
        <ele>1435.5</ele>
      </trkpt>
      <trkpt lat="46.37495" lon="6.03743">
        <ele>1433.5</ele>
      </trkpt>
      <trkpt lat="46.37501" lon="6.03743">
        <ele>1432.2</ele>
      </trkpt>
      <trkpt lat="46.37504" lon="6.03748">
        <ele>1431.1</ele>
      </trkpt>
      <trkpt lat="46.37502" lon="6.0376">
        <ele>1432.4</ele>
      </trkpt>
      <trkpt lat="46.37507" lon="6.03774">
        <ele>1430.8</ele>
      </trkpt>
      <trkpt lat="46.37517" lon="6.03798">
        <ele>1427.4</ele>
      </trkpt>
      <trkpt lat="46.37529" lon="6.0382">
        <ele>1424.2</ele>
      </trkpt>
      <trkpt lat="46.37538" lon="6.03852">
        <ele>1423</ele>
      </trkpt>
      <trkpt lat="46.37541" lon="6.0388">
        <ele>1424</ele>
      </trkpt>
      <trkpt lat="46.37549" lon="6.03899">
        <ele>1423.4</ele>
      </trkpt>
      <trkpt lat="46.37563" lon="6.03916">
        <ele>1422.1</ele>
      </trkpt>
      <trkpt lat="46.37572" lon="6.03931">
        <ele>1422</ele>
      </trkpt>
      <trkpt lat="46.37576" lon="6.0396">
        <ele>1425.2</ele>
      </trkpt>
      <trkpt lat="46.37578" lon="6.03982">
        <ele>1428</ele>
      </trkpt>
      <trkpt lat="46.37578" lon="6.03997">
        <ele>1430</ele>
      </trkpt>
      <trkpt lat="46.37575" lon="6.04008">
        <ele>1432.1</ele>
      </trkpt>
      <trkpt lat="46.3757" lon="6.04024">
        <ele>1435.2</ele>
      </trkpt>
      <trkpt lat="46.37578" lon="6.04038">
        <ele>1437.4</ele>
      </trkpt>
      <trkpt lat="46.37585" lon="6.04051">
        <ele>1439</ele>
      </trkpt>
      <trkpt lat="46.37601" lon="6.04066">
        <ele>1435.1</ele>
      </trkpt>
      <trkpt lat="46.37615" lon="6.04075">
        <ele>1431</ele>
      </trkpt>
      <trkpt lat="46.37627" lon="6.04093">
        <ele>1430.5</ele>
      </trkpt>
      <trkpt lat="46.37637" lon="6.04117">
        <ele>1433.8</ele>
      </trkpt>
      <trkpt lat="46.37645" lon="6.0412">
        <ele>1432.4</ele>
      </trkpt>
      <trkpt lat="46.37649" lon="6.04135">
        <ele>1436.2</ele>
      </trkpt>
      <trkpt lat="46.37655" lon="6.04157">
        <ele>1442.2</ele>
      </trkpt>
      <trkpt lat="46.37666" lon="6.04174">
        <ele>1445.6</ele>
      </trkpt>
      <trkpt lat="46.37667" lon="6.04182">
        <ele>1447</ele>
      </trkpt>
      <trkpt lat="46.37672" lon="6.04186">
        <ele>1445.3</ele>
      </trkpt>
      <trkpt lat="46.37674" lon="6.04203">
        <ele>1448</ele>
      </trkpt>
      <trkpt lat="46.37685" lon="6.04238">
        <ele>1451.8</ele>
      </trkpt>
      <trkpt lat="46.37695" lon="6.04254">
        <ele>1451.5</ele>
      </trkpt>
      <trkpt lat="46.37718" lon="6.04277">
        <ele>1447.5</ele>
      </trkpt>
      <trkpt lat="46.37743" lon="6.04314">
        <ele>1449.6</ele>
      </trkpt>
      <trkpt lat="46.37767" lon="6.0434">
        <ele>1444.7</ele>
      </trkpt>
      <trkpt lat="46.37773" lon="6.04356">
        <ele>1443.3</ele>
      </trkpt>
      <trkpt lat="46.37778" lon="6.0436">
        <ele>1441.3</ele>
      </trkpt>
      <trkpt lat="46.37782" lon="6.04375">
        <ele>1442</ele>
      </trkpt>
      <trkpt lat="46.37789" lon="6.04383">
        <ele>1440.9</ele>
      </trkpt>
      <trkpt lat="46.37806" lon="6.04427">
        <ele>1443.4</ele>
      </trkpt>
      <trkpt lat="46.37811" lon="6.04456">
        <ele>1442.7</ele>
      </trkpt>
      <trkpt lat="46.3782" lon="6.04477">
        <ele>1442.4</ele>
      </trkpt>
      <trkpt lat="46.37826" lon="6.04503">
        <ele>1443.6</ele>
      </trkpt>
      <trkpt lat="46.37821" lon="6.04522">
        <ele>1445.7</ele>
      </trkpt>
      <trkpt lat="46.37819" lon="6.04544">
        <ele>1448.1</ele>
      </trkpt>
      <trkpt lat="46.37825" lon="6.04544">
        <ele>1448.3</ele>
      </trkpt>
      <trkpt lat="46.3783" lon="6.04546">
        <ele>1448.9</ele>
      </trkpt>
      <trkpt lat="46.37836" lon="6.0455">
        <ele>1448.3</ele>
      </trkpt>
      <trkpt lat="46.3784" lon="6.04556">
        <ele>1447.2</ele>
      </trkpt>
      <trkpt lat="46.37843" lon="6.04562">
        <ele>1447.1</ele>
      </trkpt>
      <trkpt lat="46.37846" lon="6.04575">
        <ele>1448</ele>
      </trkpt>
      <trkpt lat="46.37847" lon="6.04591">
        <ele>1450.1</ele>
      </trkpt>
      <trkpt lat="46.37847" lon="6.04614">
        <ele>1453.1</ele>
      </trkpt>
      <trkpt lat="46.37846" lon="6.0464">
        <ele>1456.8</ele>
      </trkpt>
      <trkpt lat="46.37844" lon="6.04669">
        <ele>1461.2</ele>
      </trkpt>
      <trkpt lat="46.37845" lon="6.04675">
        <ele>1461.7</ele>
      </trkpt>
      <trkpt lat="46.37846" lon="6.0468">
        <ele>1462.1</ele>
      </trkpt>
      <trkpt lat="46.37849" lon="6.04685">
        <ele>1462.2</ele>
      </trkpt>
      <trkpt lat="46.37855" lon="6.04691">
        <ele>1462</ele>
      </trkpt>
      <trkpt lat="46.37876" lon="6.04707">
        <ele>1461.1</ele>
      </trkpt>
      <trkpt lat="46.37881" lon="6.0471">
        <ele>1461</ele>
      </trkpt>
      <trkpt lat="46.37884" lon="6.04714">
        <ele>1461.2</ele>
      </trkpt>
      <trkpt lat="46.37888" lon="6.04722">
        <ele>1462.2</ele>
      </trkpt>
      <trkpt lat="46.37892" lon="6.04733">
        <ele>1463.7</ele>
      </trkpt>
      <trkpt lat="46.37895" lon="6.04743">
        <ele>1465.5</ele>
      </trkpt>
      <trkpt lat="46.3792" lon="6.04837">
        <ele>1473.4</ele>
      </trkpt>
      <trkpt lat="46.37921" lon="6.04844">
        <ele>1472.7</ele>
      </trkpt>
      <trkpt lat="46.37921" lon="6.0485">
        <ele>1472.6</ele>
      </trkpt>
      <trkpt lat="46.3792" lon="6.04854">
        <ele>1472.7</ele>
      </trkpt>
      <trkpt lat="46.37918" lon="6.04858">
        <ele>1473.1</ele>
      </trkpt>
      <trkpt lat="46.37915" lon="6.04862">
        <ele>1473.8</ele>
      </trkpt>
      <trkpt lat="46.37904" lon="6.04874">
        <ele>1474.7</ele>
      </trkpt>
      <trkpt lat="46.37877" lon="6.04904">
        <ele>1478.6</ele>
      </trkpt>
      <trkpt lat="46.37872" lon="6.0491">
        <ele>1479.5</ele>
      </trkpt>
      <trkpt lat="46.37869" lon="6.04919">
        <ele>1480.1</ele>
      </trkpt>
      <trkpt lat="46.37868" lon="6.04927">
        <ele>1480.5</ele>
      </trkpt>
      <trkpt lat="46.37867" lon="6.04938">
        <ele>1480.8</ele>
      </trkpt>
      <trkpt lat="46.37867" lon="6.04965">
        <ele>1481.1</ele>
      </trkpt>
      <trkpt lat="46.37863" lon="6.05038">
        <ele>1483.7</ele>
      </trkpt>
      <trkpt lat="46.37862" lon="6.05044">
        <ele>1484</ele>
      </trkpt>
      <trkpt lat="46.37862" lon="6.05049">
        <ele>1484.1</ele>
      </trkpt>
      <trkpt lat="46.37863" lon="6.05054">
        <ele>1484.2</ele>
      </trkpt>
      <trkpt lat="46.37867" lon="6.05062">
        <ele>1484</ele>
      </trkpt>
      <trkpt lat="46.37874" lon="6.0507">
        <ele>1483.5</ele>
      </trkpt>
      <trkpt lat="46.37886" lon="6.05087">
        <ele>1482.9</ele>
      </trkpt>
      <trkpt lat="46.37893" lon="6.05094">
        <ele>1482.5</ele>
      </trkpt>
      <trkpt lat="46.37899" lon="6.051">
        <ele>1482.2</ele>
      </trkpt>
      <trkpt lat="46.37906" lon="6.05103">
        <ele>1481.6</ele>
      </trkpt>
      <trkpt lat="46.37915" lon="6.05103">
        <ele>1480.6</ele>
      </trkpt>
      <trkpt lat="46.3794" lon="6.051">
        <ele>1480.7</ele>
      </trkpt>
      <trkpt lat="46.37949" lon="6.05101">
        <ele>1480.9</ele>
      </trkpt>
      <trkpt lat="46.37958" lon="6.05103">
        <ele>1481.2</ele>
      </trkpt>
      <trkpt lat="46.37965" lon="6.05107">
        <ele>1481.5</ele>
      </trkpt>
      <trkpt lat="46.37969" lon="6.05111">
        <ele>1481.8</ele>
      </trkpt>
      <trkpt lat="46.37973" lon="6.05117">
        <ele>1482.2</ele>
      </trkpt>
      <trkpt lat="46.37976" lon="6.05126">
        <ele>1482.8</ele>
      </trkpt>
      <trkpt lat="46.37979" lon="6.05134">
        <ele>1483.2</ele>
      </trkpt>
      <trkpt lat="46.37981" lon="6.05137">
        <ele>1483.4</ele>
      </trkpt>
      <trkpt lat="46.37985" lon="6.05141">
        <ele>1483.6</ele>
      </trkpt>
      <trkpt lat="46.37992" lon="6.05142">
        <ele>1483.8</ele>
      </trkpt>
      <trkpt lat="46.37999" lon="6.05142">
        <ele>1483.8</ele>
      </trkpt>
      <trkpt lat="46.3802" lon="6.05126">
        <ele>1479.2</ele>
      </trkpt>
      <trkpt lat="46.38033" lon="6.05124">
        <ele>1476.6</ele>
      </trkpt>
      <trkpt lat="46.38035" lon="6.05117">
        <ele>1475.2</ele>
      </trkpt>
      <trkpt lat="46.38069" lon="6.05107">
        <ele>1466.1</ele>
      </trkpt>
      <trkpt lat="46.38076" lon="6.05102">
        <ele>1463.2</ele>
      </trkpt>
      <trkpt lat="46.38099" lon="6.05121">
        <ele>1456.2</ele>
      </trkpt>
      <trkpt lat="46.38112" lon="6.05124">
        <ele>1448.8</ele>
      </trkpt>
      <trkpt lat="46.38169" lon="6.05154">
        <ele>1425.7</ele>
      </trkpt>
      <trkpt lat="46.38163" lon="6.05131">
        <ele>1419.9</ele>
      </trkpt>
      <trkpt lat="46.38167" lon="6.05111">
        <ele>1408.9</ele>
      </trkpt>
      <trkpt lat="46.38152" lon="6.0509">
        <ele>1410</ele>
      </trkpt>
      <trkpt lat="46.38157" lon="6.05084">
        <ele>1404.7</ele>
      </trkpt>
      <trkpt lat="46.38147" lon="6.05073">
        <ele>1408</ele>
      </trkpt>
      <trkpt lat="46.38157" lon="6.05067">
        <ele>1399.4</ele>
      </trkpt>
      <trkpt lat="46.38139" lon="6.05054">
        <ele>1408.1</ele>
      </trkpt>
      <trkpt lat="46.38146" lon="6.0505">
        <ele>1401.5</ele>
      </trkpt>
      <trkpt lat="46.3814" lon="6.05045">
        <ele>1404.1</ele>
      </trkpt>
      <trkpt lat="46.38147" lon="6.05022">
        <ele>1392.5</ele>
      </trkpt>
      <trkpt lat="46.3812" lon="6.04972">
        <ele>1395.7</ele>
      </trkpt>
      <trkpt lat="46.3813" lon="6.04954">
        <ele>1383</ele>
      </trkpt>
      <trkpt lat="46.38157" lon="6.04975">
        <ele>1371.6</ele>
      </trkpt>
      <trkpt lat="46.3817" lon="6.04979">
        <ele>1364.6</ele>
      </trkpt>
      <trkpt lat="46.38184" lon="6.04992">
        <ele>1361.6</ele>
      </trkpt>
      <trkpt lat="46.38223" lon="6.05044">
        <ele>1354.8</ele>
      </trkpt>
      <trkpt lat="46.38268" lon="6.05089">
        <ele>1344.3</ele>
      </trkpt>
      <trkpt lat="46.38301" lon="6.05107">
        <ele>1336.8</ele>
      </trkpt>
      <trkpt lat="46.38333" lon="6.0505">
        <ele>1321</ele>
      </trkpt>
      <trkpt lat="46.38344" lon="6.05029">
        <ele>1318.3</ele>
      </trkpt>
      <trkpt lat="46.38365" lon="6.04996">
        <ele>1313.2</ele>
      </trkpt>
      <trkpt lat="46.38382" lon="6.04959">
        <ele>1308.1</ele>
      </trkpt>
      <trkpt lat="46.3839" lon="6.04932">
        <ele>1304.8</ele>
      </trkpt>
      <trkpt lat="46.38438" lon="6.0499">
        <ele>1303.1</ele>
      </trkpt>
      <trkpt lat="46.38476" lon="6.0498">
        <ele>1298.5</ele>
      </trkpt>
      <trkpt lat="46.38514" lon="6.04978">
        <ele>1293.7</ele>
      </trkpt>
      <trkpt lat="46.38543" lon="6.05028">
        <ele>1291.2</ele>
      </trkpt>
      <trkpt lat="46.38576" lon="6.05045">
        <ele>1285.1</ele>
      </trkpt>
      <trkpt lat="46.3858" lon="6.05059">
        <ele>1284.5</ele>
      </trkpt>
      <trkpt lat="46.38594" lon="6.05115">
        <ele>1282.8</ele>
      </trkpt>
      <trkpt lat="46.38602" lon="6.05142">
        <ele>1281.7</ele>
      </trkpt>
      <trkpt lat="46.38612" lon="6.05164">
        <ele>1279.9</ele>
      </trkpt>
      <trkpt lat="46.38658" lon="6.05242">
        <ele>1275.2</ele>
      </trkpt>
      <trkpt lat="46.38694" lon="6.053">
        <ele>1275.1</ele>
      </trkpt>
      <trkpt lat="46.38713" lon="6.05322">
        <ele>1275.1</ele>
      </trkpt>
      <trkpt lat="46.38735" lon="6.05339">
        <ele>1274.6</ele>
      </trkpt>
      <trkpt lat="46.38751" lon="6.05348">
        <ele>1273.9</ele>
      </trkpt>
      <trkpt lat="46.38783" lon="6.05357">
        <ele>1273.3</ele>
      </trkpt>
      <trkpt lat="46.38804" lon="6.05365">
        <ele>1273.2</ele>
      </trkpt>
      <trkpt lat="46.38821" lon="6.05371">
        <ele>1273.1</ele>
      </trkpt>
      <trkpt lat="46.38837" lon="6.05373">
        <ele>1272.7</ele>
      </trkpt>
      <trkpt lat="46.38855" lon="6.05373">
        <ele>1272.3</ele>
      </trkpt>
      <trkpt lat="46.38873" lon="6.05369">
        <ele>1271.3</ele>
      </trkpt>
      <trkpt lat="46.38882" lon="6.05363">
        <ele>1270.1</ele>
      </trkpt>
      <trkpt lat="46.38888" lon="6.05357">
        <ele>1269</ele>
      </trkpt>
      <trkpt lat="46.38909" lon="6.05403">
        <ele>1276.6</ele>
      </trkpt>
      <trkpt lat="46.38925" lon="6.05437">
        <ele>1279.9</ele>
      </trkpt>
      <trkpt lat="46.3894" lon="6.05469">
        <ele>1281.4</ele>
      </trkpt>
      <trkpt lat="46.3895" lon="6.05494">
        <ele>1282.8</ele>
      </trkpt>
      <trkpt lat="46.38958" lon="6.05525">
        <ele>1283.8</ele>
      </trkpt>
      <trkpt lat="46.3896" lon="6.05547">
        <ele>1284.3</ele>
      </trkpt>
      <trkpt lat="46.38977" lon="6.05616">
        <ele>1288.7</ele>
      </trkpt>
      <trkpt lat="46.38983" lon="6.05667">
        <ele>1294.7</ele>
      </trkpt>
      <trkpt lat="46.39004" lon="6.05716">
        <ele>1297.5</ele>
      </trkpt>
      <trkpt lat="46.39009" lon="6.05749">
        <ele>1299.7</ele>
      </trkpt>
      <trkpt lat="46.39031" lon="6.05798">
        <ele>1302.7</ele>
      </trkpt>
      <trkpt lat="46.3904" lon="6.05871">
        <ele>1309.1</ele>
      </trkpt>
      <trkpt lat="46.39037" lon="6.05918">
        <ele>1314.2</ele>
      </trkpt>
      <trkpt lat="46.38998" lon="6.06047">
        <ele>1323.1</ele>
      </trkpt>
      <trkpt lat="46.39018" lon="6.06113">
        <ele>1329</ele>
      </trkpt>
      <trkpt lat="46.39035" lon="6.0621">
        <ele>1340.6</ele>
      </trkpt>
      <trkpt lat="46.39071" lon="6.06287">
        <ele>1348.8</ele>
      </trkpt>
      <trkpt lat="46.3909" lon="6.06315">
        <ele>1350.8</ele>
      </trkpt>
      <trkpt lat="46.39095" lon="6.06348">
        <ele>1356.8</ele>
      </trkpt>
      <trkpt lat="46.39185" lon="6.06463">
        <ele>1359.3</ele>
      </trkpt>
      <trkpt lat="46.39204" lon="6.06488">
        <ele>1359.8</ele>
      </trkpt>
      <trkpt lat="46.3921" lon="6.06494">
        <ele>1359.7</ele>
      </trkpt>
      <trkpt lat="46.39217" lon="6.065">
        <ele>1359.5</ele>
      </trkpt>
      <trkpt lat="46.39292" lon="6.06546">
        <ele>1353.4</ele>
      </trkpt>
      <trkpt lat="46.39341" lon="6.0663">
        <ele>1354.7</ele>
      </trkpt>
      <trkpt lat="46.39376" lon="6.06695">
        <ele>1352.4</ele>
      </trkpt>
      <trkpt lat="46.39388" lon="6.06707">
        <ele>1350.5</ele>
      </trkpt>
      <trkpt lat="46.39399" lon="6.06714">
        <ele>1348.9</ele>
      </trkpt>
      <trkpt lat="46.39438" lon="6.06724">
        <ele>1344.8</ele>
      </trkpt>
      <trkpt lat="46.39462" lon="6.06735">
        <ele>1344.3</ele>
      </trkpt>
      <trkpt lat="46.39471" lon="6.06744">
        <ele>1344.9</ele>
      </trkpt>
      <trkpt lat="46.3948" lon="6.06755">
        <ele>1345.8</ele>
      </trkpt>
      <trkpt lat="46.39497" lon="6.06781">
        <ele>1348.5</ele>
      </trkpt>
      <trkpt lat="46.39505" lon="6.06789">
        <ele>1350</ele>
      </trkpt>
      <trkpt lat="46.39513" lon="6.06795">
        <ele>1351.5</ele>
      </trkpt>
      <trkpt lat="46.39526" lon="6.068">
        <ele>1353.5</ele>
      </trkpt>
      <trkpt lat="46.39545" lon="6.06799">
        <ele>1355.1</ele>
      </trkpt>
      <trkpt lat="46.39564" lon="6.06792">
        <ele>1355</ele>
      </trkpt>
      <trkpt lat="46.39602" lon="6.06758">
        <ele>1349.1</ele>
      </trkpt>
      <trkpt lat="46.3963" lon="6.06743">
        <ele>1348.6</ele>
      </trkpt>
      <trkpt lat="46.39649" lon="6.0674">
        <ele>1350</ele>
      </trkpt>
      <trkpt lat="46.39678" lon="6.06744">
        <ele>1352.5</ele>
      </trkpt>
      <trkpt lat="46.39727" lon="6.06753">
        <ele>1354.1</ele>
      </trkpt>
      <trkpt lat="46.39795" lon="6.06777">
        <ele>1356.6</ele>
      </trkpt>
      <trkpt lat="46.39811" lon="6.06785">
        <ele>1357.3</ele>
      </trkpt>
      <trkpt lat="46.39823" lon="6.06794">
        <ele>1358</ele>
      </trkpt>
      <trkpt lat="46.39862" lon="6.06831">
        <ele>1360</ele>
      </trkpt>
      <trkpt lat="46.39897" lon="6.06871">
        <ele>1361.2</ele>
      </trkpt>
      <trkpt lat="46.39985" lon="6.06965">
        <ele>1369.9</ele>
      </trkpt>
      <trkpt lat="46.40112" lon="6.07106">
        <ele>1375.3</ele>
      </trkpt>
      <trkpt lat="46.40166" lon="6.07198">
        <ele>1375</ele>
      </trkpt>
      <trkpt lat="46.40289" lon="6.07488">
        <ele>1381</ele>
      </trkpt>
      <trkpt lat="46.40311" lon="6.07539">
        <ele>1381.4</ele>
      </trkpt>
      <trkpt lat="46.40315" lon="6.07553">
        <ele>1382.2</ele>
      </trkpt>
      <trkpt lat="46.40318" lon="6.07571">
        <ele>1383.5</ele>
      </trkpt>
      <trkpt lat="46.4032" lon="6.07607">
        <ele>1386.5</ele>
      </trkpt>
      <trkpt lat="46.40326" lon="6.07662">
        <ele>1390.5</ele>
      </trkpt>
      <trkpt lat="46.4033" lon="6.07689">
        <ele>1392</ele>
      </trkpt>
      <trkpt lat="46.40331" lon="6.07722">
        <ele>1394.2</ele>
      </trkpt>
      <trkpt lat="46.40342" lon="6.07735">
        <ele>1392.8</ele>
      </trkpt>
      <trkpt lat="46.40348" lon="6.07758">
        <ele>1393.2</ele>
      </trkpt>
      <trkpt lat="46.4035" lon="6.07777">
        <ele>1394.8</ele>
      </trkpt>
      <trkpt lat="46.40353" lon="6.07787">
        <ele>1395.4</ele>
      </trkpt>
      <trkpt lat="46.40359" lon="6.07791">
        <ele>1395.2</ele>
      </trkpt>
      <trkpt lat="46.40367" lon="6.07793">
        <ele>1394.5</ele>
      </trkpt>
      <trkpt lat="46.40379" lon="6.07792">
        <ele>1392.7</ele>
      </trkpt>
      <trkpt lat="46.40413" lon="6.07785">
        <ele>1386.6</ele>
      </trkpt>
      <trkpt lat="46.40423" lon="6.07788">
        <ele>1386.1</ele>
      </trkpt>
      <trkpt lat="46.40434" lon="6.07796">
        <ele>1387</ele>
      </trkpt>
      <trkpt lat="46.40449" lon="6.07812">
        <ele>1390.2</ele>
      </trkpt>
      <trkpt lat="46.40467" lon="6.07822">
        <ele>1391.8</ele>
      </trkpt>
      <trkpt lat="46.4049" lon="6.07831">
        <ele>1392.9</ele>
      </trkpt>
      <trkpt lat="46.40514" lon="6.07846">
        <ele>1394.4</ele>
      </trkpt>
      <trkpt lat="46.40538" lon="6.07868">
        <ele>1397</ele>
      </trkpt>
      <trkpt lat="46.40573" lon="6.07895">
        <ele>1399.7</ele>
      </trkpt>
      <trkpt lat="46.40591" lon="6.07911">
        <ele>1401.9</ele>
      </trkpt>
      <trkpt lat="46.40599" lon="6.07927">
        <ele>1403.3</ele>
      </trkpt>
      <trkpt lat="46.40607" lon="6.07951">
        <ele>1404.1</ele>
      </trkpt>
      <trkpt lat="46.40613" lon="6.07975">
        <ele>1405.3</ele>
      </trkpt>
      <trkpt lat="46.40617" lon="6.08004">
        <ele>1406.7</ele>
      </trkpt>
      <trkpt lat="46.40622" lon="6.08031">
        <ele>1406</ele>
      </trkpt>
      <trkpt lat="46.40626" lon="6.08046">
        <ele>1405.7</ele>
      </trkpt>
      <trkpt lat="46.40634" lon="6.08058">
        <ele>1405.4</ele>
      </trkpt>
      <trkpt lat="46.40644" lon="6.08066">
        <ele>1405.1</ele>
      </trkpt>
      <trkpt lat="46.40654" lon="6.08066">
        <ele>1404.6</ele>
      </trkpt>
      <trkpt lat="46.40669" lon="6.08062">
        <ele>1403.5</ele>
      </trkpt>
      <trkpt lat="46.4069" lon="6.0806">
        <ele>1402.9</ele>
      </trkpt>
      <trkpt lat="46.407" lon="6.08064">
        <ele>1403.2</ele>
      </trkpt>
      <trkpt lat="46.40706" lon="6.0807">
        <ele>1403.8</ele>
      </trkpt>
      <trkpt lat="46.4071" lon="6.0808">
        <ele>1405.1</ele>
      </trkpt>
      <trkpt lat="46.40713" lon="6.08097">
        <ele>1406.7</ele>
      </trkpt>
      <trkpt lat="46.40716" lon="6.08109">
        <ele>1407.8</ele>
      </trkpt>
      <trkpt lat="46.4072" lon="6.08117">
        <ele>1408.6</ele>
      </trkpt>
      <trkpt lat="46.40725" lon="6.08123">
        <ele>1409.2</ele>
      </trkpt>
      <trkpt lat="46.40731" lon="6.08128">
        <ele>1409.7</ele>
      </trkpt>
      <trkpt lat="46.40756" lon="6.0814">
        <ele>1411</ele>
      </trkpt>
      <trkpt lat="46.40769" lon="6.08148">
        <ele>1411.6</ele>
      </trkpt>
      <trkpt lat="46.40787" lon="6.0817">
        <ele>1413.5</ele>
      </trkpt>
      <trkpt lat="46.40805" lon="6.08189">
        <ele>1416</ele>
      </trkpt>
      <trkpt lat="46.40822" lon="6.08202">
        <ele>1417.7</ele>
      </trkpt>
      <trkpt lat="46.40842" lon="6.08213">
        <ele>1419.1</ele>
      </trkpt>
      <trkpt lat="46.40859" lon="6.0822">
        <ele>1419.7</ele>
      </trkpt>
      <trkpt lat="46.40869" lon="6.08222">
        <ele>1419.8</ele>
      </trkpt>
      <trkpt lat="46.40889" lon="6.08221">
        <ele>1419.2</ele>
      </trkpt>
      <trkpt lat="46.40899" lon="6.08216">
        <ele>1418.4</ele>
      </trkpt>
      <trkpt lat="46.4091" lon="6.08218">
        <ele>1418.5</ele>
      </trkpt>
      <trkpt lat="46.40929" lon="6.08215">
        <ele>1416.5</ele>
      </trkpt>
      <trkpt lat="46.40947" lon="6.08215">
        <ele>1414.2</ele>
      </trkpt>
      <trkpt lat="46.40966" lon="6.08216">
        <ele>1412.1</ele>
      </trkpt>
      <trkpt lat="46.40992" lon="6.08218">
        <ele>1409.1</ele>
      </trkpt>
      <trkpt lat="46.41002" lon="6.08217">
        <ele>1407.7</ele>
      </trkpt>
      <trkpt lat="46.41016" lon="6.08214">
        <ele>1405.2</ele>
      </trkpt>
      <trkpt lat="46.41073" lon="6.08189">
        <ele>1394.8</ele>
      </trkpt>
      <trkpt lat="46.4108" lon="6.08187">
        <ele>1393.7</ele>
      </trkpt>
      <trkpt lat="46.41086" lon="6.08186">
        <ele>1392.9</ele>
      </trkpt>
      <trkpt lat="46.4109" lon="6.08187">
        <ele>1392.6</ele>
      </trkpt>
      <trkpt lat="46.41095" lon="6.08191">
        <ele>1392.4</ele>
      </trkpt>
      <trkpt lat="46.41097" lon="6.08196">
        <ele>1392.5</ele>
      </trkpt>
      <trkpt lat="46.41099" lon="6.08201">
        <ele>1392.7</ele>
      </trkpt>
      <trkpt lat="46.41101" lon="6.08213">
        <ele>1393.2</ele>
      </trkpt>
      <trkpt lat="46.41241" lon="6.08293">
        <ele>1383</ele>
      </trkpt>
      <trkpt lat="46.41239" lon="6.08287">
        <ele>1382.9</ele>
      </trkpt>
      <trkpt lat="46.41239" lon="6.08287">
        <ele>1382.9</ele>
      </trkpt>
      <trkpt lat="46.41173" lon="6.08562">
        <ele>1404.7</ele>
      </trkpt>
      <trkpt lat="46.41173" lon="6.08562">
        <ele>1404.7</ele>
      </trkpt>
      <trkpt lat="46.41271" lon="6.08691">
        <ele>1425.7</ele>
      </trkpt>
      <trkpt lat="46.41271" lon="6.08691">
        <ele>1425.7</ele>
      </trkpt>
      <trkpt lat="46.41366" lon="6.08631">
        <ele>1416.5</ele>
      </trkpt>
      <trkpt lat="46.41366" lon="6.08631">
        <ele>1416.5</ele>
      </trkpt>
      <trkpt lat="46.41569" lon="6.08769">
        <ele>1419.9</ele>
      </trkpt>
      <trkpt lat="46.41569" lon="6.08769">
        <ele>1419.9</ele>
      </trkpt>
      <trkpt lat="46.41572" lon="6.09027">
        <ele>1468.9</ele>
      </trkpt>
      <trkpt lat="46.41572" lon="6.09027">
        <ele>1468.9</ele>
      </trkpt>
      <trkpt lat="46.41965" lon="6.09436">
        <ele>1564.2</ele>
      </trkpt>
      <trkpt lat="46.41965" lon="6.09436">
        <ele>1564.2</ele>
      </trkpt>
      <trkpt lat="46.4219" lon="6.09652">
        <ele>1615</ele>
      </trkpt>
      <trkpt lat="46.4219" lon="6.09652">
        <ele>1615</ele>
      </trkpt>
      <trkpt lat="46.42194" lon="6.09683">
        <ele>1615.3</ele>
      </trkpt>
      <trkpt lat="46.42201" lon="6.09682">
        <ele>1615.9</ele>
      </trkpt>
      <trkpt lat="46.42204" lon="6.0968">
        <ele>1616.3</ele>
      </trkpt>
      <trkpt lat="46.42213" lon="6.09678">
        <ele>1616.9</ele>
      </trkpt>
      <trkpt lat="46.42219" lon="6.09679">
        <ele>1617.3</ele>
      </trkpt>
      <trkpt lat="46.42245" lon="6.09697">
        <ele>1619.6</ele>
      </trkpt>
      <trkpt lat="46.42254" lon="6.09702">
        <ele>1620.1</ele>
      </trkpt>
      <trkpt lat="46.42269" lon="6.09715">
        <ele>1620.7</ele>
      </trkpt>
      <trkpt lat="46.42277" lon="6.09719">
        <ele>1621.1</ele>
      </trkpt>
      <trkpt lat="46.42281" lon="6.09724">
        <ele>1621.7</ele>
      </trkpt>
      <trkpt lat="46.42287" lon="6.09734">
        <ele>1623.2</ele>
      </trkpt>
      <trkpt lat="46.42293" lon="6.09737">
        <ele>1624.1</ele>
      </trkpt>
      <trkpt lat="46.42301" lon="6.09742">
        <ele>1625.3</ele>
      </trkpt>
      <trkpt lat="46.4231" lon="6.09747">
        <ele>1627.1</ele>
      </trkpt>
      <trkpt lat="46.42314" lon="6.09749">
        <ele>1627.9</ele>
      </trkpt>
      <trkpt lat="46.4232" lon="6.09753">
        <ele>1628.9</ele>
      </trkpt>
      <trkpt lat="46.4233" lon="6.09766">
        <ele>1630.7</ele>
      </trkpt>
      <trkpt lat="46.4234" lon="6.09779">
        <ele>1632.2</ele>
      </trkpt>
      <trkpt lat="46.42353" lon="6.09796">
        <ele>1634.3</ele>
      </trkpt>
      <trkpt lat="46.42366" lon="6.09814">
        <ele>1637.5</ele>
      </trkpt>
      <trkpt lat="46.42381" lon="6.09838">
        <ele>1642.2</ele>
      </trkpt>
      <trkpt lat="46.42391" lon="6.09858">
        <ele>1643.7</ele>
      </trkpt>
      <trkpt lat="46.42396" lon="6.09864">
        <ele>1644.7</ele>
      </trkpt>
      <trkpt lat="46.424" lon="6.09866">
        <ele>1645.4</ele>
      </trkpt>
      <trkpt lat="46.42407" lon="6.09873">
        <ele>1646.9</ele>
      </trkpt>
      <trkpt lat="46.4242" lon="6.09892">
        <ele>1650.3</ele>
      </trkpt>
      <trkpt lat="46.42438" lon="6.09915">
        <ele>1654.7</ele>
      </trkpt>
      <trkpt lat="46.42451" lon="6.09931">
        <ele>1654.3</ele>
      </trkpt>
      <trkpt lat="46.42468" lon="6.09943">
        <ele>1656.1</ele>
      </trkpt>
      <trkpt lat="46.42483" lon="6.09953">
        <ele>1658.7</ele>
      </trkpt>
      <trkpt lat="46.42504" lon="6.09967">
        <ele>1662.3</ele>
      </trkpt>
      <trkpt lat="46.42521" lon="6.09979">
        <ele>1662</ele>
      </trkpt>
      <trkpt lat="46.42538" lon="6.0999">
        <ele>1662.6</ele>
      </trkpt>
      <trkpt lat="46.42549" lon="6.09998">
        <ele>1663.4</ele>
      </trkpt>
      <trkpt lat="46.42555" lon="6.10002">
        <ele>1662.9</ele>
      </trkpt>
      <trkpt lat="46.42564" lon="6.10008">
        <ele>1660.8</ele>
      </trkpt>
      <trkpt lat="46.42574" lon="6.10013">
        <ele>1660.2</ele>
      </trkpt>
      <trkpt lat="46.42589" lon="6.10017">
        <ele>1659.5</ele>
      </trkpt>
      <trkpt lat="46.42613" lon="6.10021">
        <ele>1655.8</ele>
      </trkpt>
      <trkpt lat="46.42626" lon="6.10027">
        <ele>1653.4</ele>
      </trkpt>
      <trkpt lat="46.42635" lon="6.10032">
        <ele>1652.1</ele>
      </trkpt>
      <trkpt lat="46.42644" lon="6.10037">
        <ele>1651.2</ele>
      </trkpt>
      <trkpt lat="46.42654" lon="6.10044">
        <ele>1650.6</ele>
      </trkpt>
      <trkpt lat="46.42665" lon="6.10049">
        <ele>1650.6</ele>
      </trkpt>
      <trkpt lat="46.42674" lon="6.10056">
        <ele>1649.9</ele>
      </trkpt>
      <trkpt lat="46.42683" lon="6.10059">
        <ele>1649.1</ele>
      </trkpt>
      <trkpt lat="46.42696" lon="6.10066">
        <ele>1648.4</ele>
      </trkpt>
      <trkpt lat="46.42707" lon="6.10071">
        <ele>1648</ele>
      </trkpt>
      <trkpt lat="46.42722" lon="6.10079">
        <ele>1647.8</ele>
      </trkpt>
      <trkpt lat="46.42736" lon="6.10088">
        <ele>1647.5</ele>
      </trkpt>
      <trkpt lat="46.42746" lon="6.1009">
        <ele>1647.2</ele>
      </trkpt>
      <trkpt lat="46.42749" lon="6.10092">
        <ele>1647.2</ele>
      </trkpt>
      <trkpt lat="46.42761" lon="6.10096">
        <ele>1645.5</ele>
      </trkpt>
      <trkpt lat="46.42771" lon="6.101">
        <ele>1643.9</ele>
      </trkpt>
      <trkpt lat="46.42788" lon="6.10105">
        <ele>1641.8</ele>
      </trkpt>
      <trkpt lat="46.42795" lon="6.10106">
        <ele>1640.8</ele>
      </trkpt>
      <trkpt lat="46.42801" lon="6.10108">
        <ele>1640.2</ele>
      </trkpt>
      <trkpt lat="46.42808" lon="6.1011">
        <ele>1639.3</ele>
      </trkpt>
      <trkpt lat="46.42817" lon="6.10112">
        <ele>1638.5</ele>
      </trkpt>
      <trkpt lat="46.42825" lon="6.10115">
        <ele>1637.8</ele>
      </trkpt>
      <trkpt lat="46.42838" lon="6.10116">
        <ele>1635.7</ele>
      </trkpt>
      <trkpt lat="46.42855" lon="6.1012">
        <ele>1632</ele>
      </trkpt>
      <trkpt lat="46.42867" lon="6.10124">
        <ele>1629.6</ele>
      </trkpt>
      <trkpt lat="46.4288" lon="6.10131">
        <ele>1627.5</ele>
      </trkpt>
      <trkpt lat="46.42883" lon="6.10134">
        <ele>1627.2</ele>
      </trkpt>
      <trkpt lat="46.42897" lon="6.10142">
        <ele>1624.9</ele>
      </trkpt>
      <trkpt lat="46.42912" lon="6.10151">
        <ele>1622.7</ele>
      </trkpt>
      <trkpt lat="46.4292" lon="6.10156">
        <ele>1621.5</ele>
      </trkpt>
      <trkpt lat="46.42928" lon="6.10159">
        <ele>1619.6</ele>
      </trkpt>
      <trkpt lat="46.42945" lon="6.10167">
        <ele>1616.4</ele>
      </trkpt>
      <trkpt lat="46.42958" lon="6.10172">
        <ele>1612.7</ele>
      </trkpt>
      <trkpt lat="46.42971" lon="6.10179">
        <ele>1609.1</ele>
      </trkpt>
      <trkpt lat="46.42978" lon="6.10184">
        <ele>1607.3</ele>
      </trkpt>
      <trkpt lat="46.4299" lon="6.10192">
        <ele>1604.9</ele>
      </trkpt>
      <trkpt lat="46.43002" lon="6.10203">
        <ele>1603</ele>
      </trkpt>
      <trkpt lat="46.43009" lon="6.10208">
        <ele>1602.1</ele>
      </trkpt>
      <trkpt lat="46.43017" lon="6.10214">
        <ele>1601</ele>
      </trkpt>
      <trkpt lat="46.43025" lon="6.10218">
        <ele>1600.2</ele>
      </trkpt>
      <trkpt lat="46.43025" lon="6.10218">
        <ele>1600.1</ele>
      </trkpt>
      <trkpt lat="46.43031" lon="6.10217">
        <ele>1599.2</ele>
      </trkpt>
      <trkpt lat="46.43038" lon="6.10216">
        <ele>1598.1</ele>
      </trkpt>
      <trkpt lat="46.43049" lon="6.10211">
        <ele>1596</ele>
      </trkpt>
      <trkpt lat="46.43057" lon="6.1021">
        <ele>1594.7</ele>
      </trkpt>
      <trkpt lat="46.43071" lon="6.10205">
        <ele>1592.2</ele>
      </trkpt>
      <trkpt lat="46.43078" lon="6.10203">
        <ele>1590.9</ele>
      </trkpt>
      <trkpt lat="46.43087" lon="6.102">
        <ele>1589</ele>
      </trkpt>
      <trkpt lat="46.43094" lon="6.10199">
        <ele>1587.2</ele>
      </trkpt>
      <trkpt lat="46.431" lon="6.10197">
        <ele>1585.5</ele>
      </trkpt>
      <trkpt lat="46.43106" lon="6.10196">
        <ele>1584.1</ele>
      </trkpt>
      <trkpt lat="46.43113" lon="6.10197">
        <ele>1582.3</ele>
      </trkpt>
      <trkpt lat="46.43129" lon="6.10202">
        <ele>1578.9</ele>
      </trkpt>
      <trkpt lat="46.4314" lon="6.10205">
        <ele>1576.3</ele>
      </trkpt>
      <trkpt lat="46.43153" lon="6.1021">
        <ele>1573.5</ele>
      </trkpt>
      <trkpt lat="46.43161" lon="6.10214">
        <ele>1571.6</ele>
      </trkpt>
      <trkpt lat="46.43168" lon="6.10218">
        <ele>1570</ele>
      </trkpt>
      <trkpt lat="46.43178" lon="6.10226">
        <ele>1567</ele>
      </trkpt>
      <trkpt lat="46.43184" lon="6.10232">
        <ele>1565.3</ele>
      </trkpt>
      <trkpt lat="46.43189" lon="6.1024">
        <ele>1564</ele>
      </trkpt>
      <trkpt lat="46.43196" lon="6.10249">
        <ele>1562.1</ele>
      </trkpt>
      <trkpt lat="46.43203" lon="6.10258">
        <ele>1559</ele>
      </trkpt>
      <trkpt lat="46.43207" lon="6.10265">
        <ele>1557</ele>
      </trkpt>
      <trkpt lat="46.4321" lon="6.10268">
        <ele>1556.1</ele>
      </trkpt>
      <trkpt lat="46.43208" lon="6.10271">
        <ele>1556.1</ele>
      </trkpt>
      <trkpt lat="46.43206" lon="6.10277">
        <ele>1556.1</ele>
      </trkpt>
      <trkpt lat="46.43204" lon="6.10284">
        <ele>1556</ele>
      </trkpt>
      <trkpt lat="46.43204" lon="6.1029">
        <ele>1555.3</ele>
      </trkpt>
      <trkpt lat="46.43205" lon="6.10298">
        <ele>1554.1</ele>
      </trkpt>
      <trkpt lat="46.43209" lon="6.10308">
        <ele>1552.7</ele>
      </trkpt>
      <trkpt lat="46.43213" lon="6.10313">
        <ele>1551.9</ele>
      </trkpt>
      <trkpt lat="46.43213" lon="6.10317">
        <ele>1551.6</ele>
      </trkpt>
      <trkpt lat="46.43211" lon="6.10325">
        <ele>1551.1</ele>
      </trkpt>
      <trkpt lat="46.43211" lon="6.10331">
        <ele>1550.6</ele>
      </trkpt>
      <trkpt lat="46.43211" lon="6.10335">
        <ele>1550</ele>
      </trkpt>
      <trkpt lat="46.43215" lon="6.10337">
        <ele>1549.4</ele>
      </trkpt>
      <trkpt lat="46.43223" lon="6.10336">
        <ele>1549.5</ele>
      </trkpt>
      <trkpt lat="46.4323" lon="6.10331">
        <ele>1549.8</ele>
      </trkpt>
      <trkpt lat="46.43236" lon="6.10326">
        <ele>1549.4</ele>
      </trkpt>
      <trkpt lat="46.4324" lon="6.10324">
        <ele>1549.2</ele>
      </trkpt>
      <trkpt lat="46.43248" lon="6.10333">
        <ele>1549.1</ele>
      </trkpt>
      <trkpt lat="46.43252" lon="6.10339">
        <ele>1548.8</ele>
      </trkpt>
      <trkpt lat="46.43255" lon="6.10343">
        <ele>1548.7</ele>
      </trkpt>
      <trkpt lat="46.43255" lon="6.10345">
        <ele>1548.6</ele>
      </trkpt>
      <trkpt lat="46.43256" lon="6.10352">
        <ele>1548.6</ele>
      </trkpt>
      <trkpt lat="46.43255" lon="6.10357">
        <ele>1548.5</ele>
      </trkpt>
      <trkpt lat="46.43255" lon="6.10361">
        <ele>1548.4</ele>
      </trkpt>
      <trkpt lat="46.43261" lon="6.10372">
        <ele>1548.9</ele>
      </trkpt>
      <trkpt lat="46.43262" lon="6.10385">
        <ele>1549.2</ele>
      </trkpt>
      <trkpt lat="46.43263" lon="6.1039">
        <ele>1549.5</ele>
      </trkpt>
      <trkpt lat="46.43263" lon="6.10427">
        <ele>1549.1</ele>
      </trkpt>
      <trkpt lat="46.43263" lon="6.10465">
        <ele>1545.8</ele>
      </trkpt>
      <trkpt lat="46.43263" lon="6.10493">
        <ele>1543</ele>
      </trkpt>
      <trkpt lat="46.43262" lon="6.10518">
        <ele>1541.6</ele>
      </trkpt>
      <trkpt lat="46.4326" lon="6.10529">
        <ele>1540.6</ele>
      </trkpt>
      <trkpt lat="46.43258" lon="6.10537">
        <ele>1538.8</ele>
      </trkpt>
      <trkpt lat="46.43252" lon="6.10559">
        <ele>1534.8</ele>
      </trkpt>
      <trkpt lat="46.43245" lon="6.10579">
        <ele>1529.5</ele>
      </trkpt>
      <trkpt lat="46.43234" lon="6.10609">
        <ele>1523.3</ele>
      </trkpt>
      <trkpt lat="46.43226" lon="6.10633">
        <ele>1518.3</ele>
      </trkpt>
      <trkpt lat="46.43223" lon="6.10643">
        <ele>1516.8</ele>
      </trkpt>
      <trkpt lat="46.43222" lon="6.10649">
        <ele>1516.6</ele>
      </trkpt>
      <trkpt lat="46.4322" lon="6.10657">
        <ele>1515.7</ele>
      </trkpt>
      <trkpt lat="46.43216" lon="6.10676">
        <ele>1513.4</ele>
      </trkpt>
      <trkpt lat="46.43214" lon="6.1069">
        <ele>1512.4</ele>
      </trkpt>
      <trkpt lat="46.4321" lon="6.10708">
        <ele>1510.4</ele>
      </trkpt>
      <trkpt lat="46.43208" lon="6.10715">
        <ele>1509.5</ele>
      </trkpt>
      <trkpt lat="46.43204" lon="6.10725">
        <ele>1507.7</ele>
      </trkpt>
      <trkpt lat="46.43201" lon="6.1074">
        <ele>1506.6</ele>
      </trkpt>
      <trkpt lat="46.432" lon="6.10751">
        <ele>1506.1</ele>
      </trkpt>
      <trkpt lat="46.43198" lon="6.10762">
        <ele>1505.5</ele>
      </trkpt>
      <trkpt lat="46.43194" lon="6.1077">
        <ele>1503.6</ele>
      </trkpt>
      <trkpt lat="46.43191" lon="6.1079">
        <ele>1502.3</ele>
      </trkpt>
      <trkpt lat="46.43188" lon="6.10802">
        <ele>1501.2</ele>
      </trkpt>
      <trkpt lat="46.43187" lon="6.10806">
        <ele>1500.6</ele>
      </trkpt>
      <trkpt lat="46.43187" lon="6.10811">
        <ele>1501</ele>
      </trkpt>
      <trkpt lat="46.43188" lon="6.10815">
        <ele>1501.3</ele>
      </trkpt>
      <trkpt lat="46.43187" lon="6.10817">
        <ele>1500.8</ele>
      </trkpt>
      <trkpt lat="46.43184" lon="6.10821">
        <ele>1499.6</ele>
      </trkpt>
      <trkpt lat="46.43184" lon="6.10824">
        <ele>1499.5</ele>
      </trkpt>
      <trkpt lat="46.43185" lon="6.10829">
        <ele>1500</ele>
      </trkpt>
      <trkpt lat="46.43183" lon="6.10838">
        <ele>1498.7</ele>
      </trkpt>
      <trkpt lat="46.43179" lon="6.10856">
        <ele>1495.7</ele>
      </trkpt>
      <trkpt lat="46.43178" lon="6.10863">
        <ele>1494.9</ele>
      </trkpt>
      <trkpt lat="46.43174" lon="6.10891">
        <ele>1491.2</ele>
      </trkpt>
      <trkpt lat="46.43169" lon="6.10919">
        <ele>1487.3</ele>
      </trkpt>
      <trkpt lat="46.43168" lon="6.10931">
        <ele>1487.1</ele>
      </trkpt>
      <trkpt lat="46.43165" lon="6.10949">
        <ele>1486.3</ele>
      </trkpt>
      <trkpt lat="46.4316" lon="6.10957">
        <ele>1485.2</ele>
      </trkpt>
      <trkpt lat="46.43156" lon="6.10962">
        <ele>1484.3</ele>
      </trkpt>
      <trkpt lat="46.43156" lon="6.10966">
        <ele>1484.3</ele>
      </trkpt>
      <trkpt lat="46.43151" lon="6.10968">
        <ele>1483.1</ele>
      </trkpt>
      <trkpt lat="46.43146" lon="6.10973">
        <ele>1482.1</ele>
      </trkpt>
      <trkpt lat="46.43143" lon="6.10975">
        <ele>1481.4</ele>
      </trkpt>
      <trkpt lat="46.43141" lon="6.10979">
        <ele>1481.1</ele>
      </trkpt>
      <trkpt lat="46.43137" lon="6.10979">
        <ele>1480.1</ele>
      </trkpt>
      <trkpt lat="46.43135" lon="6.10981">
        <ele>1479.7</ele>
      </trkpt>
      <trkpt lat="46.43133" lon="6.10984">
        <ele>1479.4</ele>
      </trkpt>
      <trkpt lat="46.4313" lon="6.10987">
        <ele>1478.8</ele>
      </trkpt>
      <trkpt lat="46.43126" lon="6.10988">
        <ele>1478</ele>
      </trkpt>
      <trkpt lat="46.43122" lon="6.10989">
        <ele>1477</ele>
      </trkpt>
      <trkpt lat="46.43116" lon="6.10993">
        <ele>1475.9</ele>
      </trkpt>
      <trkpt lat="46.43111" lon="6.10995">
        <ele>1474.8</ele>
      </trkpt>
      <trkpt lat="46.43108" lon="6.10998">
        <ele>1474.4</ele>
      </trkpt>
      <trkpt lat="46.43102" lon="6.11002">
        <ele>1473.4</ele>
      </trkpt>
      <trkpt lat="46.43093" lon="6.11005">
        <ele>1471.4</ele>
      </trkpt>
      <trkpt lat="46.43087" lon="6.11006">
        <ele>1470.1</ele>
      </trkpt>
      <trkpt lat="46.43081" lon="6.11006">
        <ele>1468.8</ele>
      </trkpt>
      <trkpt lat="46.43077" lon="6.11008">
        <ele>1468.2</ele>
      </trkpt>
      <trkpt lat="46.4307" lon="6.11016">
        <ele>1467.3</ele>
      </trkpt>
      <trkpt lat="46.43061" lon="6.11028">
        <ele>1466.8</ele>
      </trkpt>
      <trkpt lat="46.43054" lon="6.11034">
        <ele>1466.2</ele>
      </trkpt>
      <trkpt lat="46.43042" lon="6.11053">
        <ele>1466.1</ele>
      </trkpt>
      <trkpt lat="46.43033" lon="6.11062">
        <ele>1465.9</ele>
      </trkpt>
      <trkpt lat="46.43037" lon="6.11068">
        <ele>1467.1</ele>
      </trkpt>
      <trkpt lat="46.43043" lon="6.11077">
        <ele>1468.5</ele>
      </trkpt>
      <trkpt lat="46.43049" lon="6.11087">
        <ele>1469.8</ele>
      </trkpt>
      <trkpt lat="46.43057" lon="6.111">
        <ele>1470.4</ele>
      </trkpt>
      <trkpt lat="46.43064" lon="6.11111">
        <ele>1470.8</ele>
      </trkpt>
      <trkpt lat="46.43073" lon="6.11125">
        <ele>1470.8</ele>
      </trkpt>
      <trkpt lat="46.43083" lon="6.11148">
        <ele>1469.9</ele>
      </trkpt>
      <trkpt lat="46.43091" lon="6.11165">
        <ele>1469.2</ele>
      </trkpt>
      <trkpt lat="46.43095" lon="6.11178">
        <ele>1468.3</ele>
      </trkpt>
      <trkpt lat="46.43098" lon="6.11188">
        <ele>1467.5</ele>
      </trkpt>
      <trkpt lat="46.43101" lon="6.11193">
        <ele>1467</ele>
      </trkpt>
      <trkpt lat="46.43101" lon="6.11202">
        <ele>1466.2</ele>
      </trkpt>
      <trkpt lat="46.43103" lon="6.11212">
        <ele>1465.2</ele>
      </trkpt>
      <trkpt lat="46.43105" lon="6.11224">
        <ele>1464</ele>
      </trkpt>
      <trkpt lat="46.43104" lon="6.1124">
        <ele>1462.7</ele>
      </trkpt>
      <trkpt lat="46.43106" lon="6.11258">
        <ele>1460.7</ele>
      </trkpt>
      <trkpt lat="46.43108" lon="6.11265">
        <ele>1459.6</ele>
      </trkpt>
      <trkpt lat="46.43113" lon="6.11295">
        <ele>1455.7</ele>
      </trkpt>
      <trkpt lat="46.43114" lon="6.11308">
        <ele>1454.2</ele>
      </trkpt>
      <trkpt lat="46.43113" lon="6.11318">
        <ele>1453.2</ele>
      </trkpt>
      <trkpt lat="46.4311" lon="6.11336">
        <ele>1452</ele>
      </trkpt>
      <trkpt lat="46.43109" lon="6.11342">
        <ele>1452.2</ele>
      </trkpt>
      <trkpt lat="46.43111" lon="6.11351">
        <ele>1452.2</ele>
      </trkpt>
      <trkpt lat="46.43112" lon="6.11358">
        <ele>1452.1</ele>
      </trkpt>
      <trkpt lat="46.43115" lon="6.11362">
        <ele>1451.7</ele>
      </trkpt>
      <trkpt lat="46.43119" lon="6.11366">
        <ele>1450.9</ele>
      </trkpt>
      <trkpt lat="46.43122" lon="6.11373">
        <ele>1450.4</ele>
      </trkpt>
      <trkpt lat="46.43129" lon="6.11385">
        <ele>1448.9</ele>
      </trkpt>
      <trkpt lat="46.43136" lon="6.11393">
        <ele>1447.1</ele>
      </trkpt>
      <trkpt lat="46.4314" lon="6.11395">
        <ele>1446.1</ele>
      </trkpt>
      <trkpt lat="46.43147" lon="6.11397">
        <ele>1444.3</ele>
      </trkpt>
      <trkpt lat="46.43158" lon="6.11398">
        <ele>1441.4</ele>
      </trkpt>
      <trkpt lat="46.43164" lon="6.114">
        <ele>1439.6</ele>
      </trkpt>
      <trkpt lat="46.43173" lon="6.11404">
        <ele>1436.1</ele>
      </trkpt>
      <trkpt lat="46.43179" lon="6.11413">
        <ele>1433.3</ele>
      </trkpt>
      <trkpt lat="46.43188" lon="6.11418">
        <ele>1429.3</ele>
      </trkpt>
      <trkpt lat="46.43194" lon="6.11421">
        <ele>1427.2</ele>
      </trkpt>
      <trkpt lat="46.43201" lon="6.11426">
        <ele>1424.7</ele>
      </trkpt>
      <trkpt lat="46.43207" lon="6.1143">
        <ele>1422.8</ele>
      </trkpt>
      <trkpt lat="46.4321" lon="6.11434">
        <ele>1421.7</ele>
      </trkpt>
      <trkpt lat="46.43214" lon="6.11439">
        <ele>1420.5</ele>
      </trkpt>
      <trkpt lat="46.43219" lon="6.11443">
        <ele>1419.1</ele>
      </trkpt>
      <trkpt lat="46.43223" lon="6.11444">
        <ele>1417.4</ele>
      </trkpt>
      <trkpt lat="46.43229" lon="6.11446">
        <ele>1415.4</ele>
      </trkpt>
      <trkpt lat="46.43235" lon="6.11448">
        <ele>1413.2</ele>
      </trkpt>
      <trkpt lat="46.43238" lon="6.11453">
        <ele>1412.4</ele>
      </trkpt>
      <trkpt lat="46.4324" lon="6.11455">
        <ele>1411.6</ele>
      </trkpt>
      <trkpt lat="46.43243" lon="6.11452">
        <ele>1410</ele>
      </trkpt>
      <trkpt lat="46.43246" lon="6.11447">
        <ele>1408.5</ele>
      </trkpt>
      <trkpt lat="46.43247" lon="6.11441">
        <ele>1407.6</ele>
      </trkpt>
      <trkpt lat="46.43246" lon="6.11437">
        <ele>1407.4</ele>
      </trkpt>
      <trkpt lat="46.43243" lon="6.11431">
        <ele>1408.3</ele>
      </trkpt>
      <trkpt lat="46.43242" lon="6.11427">
        <ele>1408.1</ele>
      </trkpt>
      <trkpt lat="46.43248" lon="6.11418">
        <ele>1405</ele>
      </trkpt>
      <trkpt lat="46.43249" lon="6.11409">
        <ele>1404.8</ele>
      </trkpt>
      <trkpt lat="46.43248" lon="6.114">
        <ele>1405.9</ele>
      </trkpt>
      <trkpt lat="46.43251" lon="6.1139">
        <ele>1405.6</ele>
      </trkpt>
      <trkpt lat="46.43257" lon="6.11388">
        <ele>1403.5</ele>
      </trkpt>
      <trkpt lat="46.43259" lon="6.11384">
        <ele>1403</ele>
      </trkpt>
      <trkpt lat="46.43261" lon="6.11374">
        <ele>1402.9</ele>
      </trkpt>
      <trkpt lat="46.43263" lon="6.1137">
        <ele>1402.2</ele>
      </trkpt>
      <trkpt lat="46.43268" lon="6.11371">
        <ele>1400.3</ele>
      </trkpt>
      <trkpt lat="46.43273" lon="6.11379">
        <ele>1397.7</ele>
      </trkpt>
      <trkpt lat="46.43279" lon="6.11381">
        <ele>1395.5</ele>
      </trkpt>
      <trkpt lat="46.43285" lon="6.11386">
        <ele>1392.5</ele>
      </trkpt>
      <trkpt lat="46.433" lon="6.11392">
        <ele>1386.2</ele>
      </trkpt>
      <trkpt lat="46.4331" lon="6.11401">
        <ele>1381.4</ele>
      </trkpt>
      <trkpt lat="46.43313" lon="6.11406">
        <ele>1379.3</ele>
      </trkpt>
      <trkpt lat="46.43318" lon="6.11408">
        <ele>1377.1</ele>
      </trkpt>
      <trkpt lat="46.43323" lon="6.11413">
        <ele>1374.7</ele>
      </trkpt>
      <trkpt lat="46.43327" lon="6.11416">
        <ele>1372.7</ele>
      </trkpt>
      <trkpt lat="46.43332" lon="6.11417">
        <ele>1370.8</ele>
      </trkpt>
      <trkpt lat="46.43338" lon="6.11417">
        <ele>1369.4</ele>
      </trkpt>
      <trkpt lat="46.43344" lon="6.11415">
        <ele>1368.7</ele>
      </trkpt>
      <trkpt lat="46.43351" lon="6.11411">
        <ele>1368.2</ele>
      </trkpt>
      <trkpt lat="46.43356" lon="6.11412">
        <ele>1367.5</ele>
      </trkpt>
      <trkpt lat="46.43361" lon="6.11412">
        <ele>1366.6</ele>
      </trkpt>
      <trkpt lat="46.43372" lon="6.11411">
        <ele>1365.4</ele>
      </trkpt>
      <trkpt lat="46.43379" lon="6.1141">
        <ele>1364.5</ele>
      </trkpt>
      <trkpt lat="46.43384" lon="6.11414">
        <ele>1363.2</ele>
      </trkpt>
      <trkpt lat="46.43394" lon="6.11422">
        <ele>1361.5</ele>
      </trkpt>
      <trkpt lat="46.43403" lon="6.11435">
        <ele>1360.2</ele>
      </trkpt>
      <trkpt lat="46.43409" lon="6.11446">
        <ele>1358.9</ele>
      </trkpt>
      <trkpt lat="46.43417" lon="6.11461">
        <ele>1357</ele>
      </trkpt>
      <trkpt lat="46.43422" lon="6.11472">
        <ele>1356.8</ele>
      </trkpt>
      <trkpt lat="46.43427" lon="6.11483">
        <ele>1356.4</ele>
      </trkpt>
      <trkpt lat="46.43433" lon="6.11495">
        <ele>1355.6</ele>
      </trkpt>
      <trkpt lat="46.43441" lon="6.11517">
        <ele>1354.9</ele>
      </trkpt>
      <trkpt lat="46.43445" lon="6.11535">
        <ele>1354.3</ele>
      </trkpt>
      <trkpt lat="46.43449" lon="6.11556">
        <ele>1353</ele>
      </trkpt>
      <trkpt lat="46.43457" lon="6.11573">
        <ele>1349.9</ele>
      </trkpt>
      <trkpt lat="46.43464" lon="6.11588">
        <ele>1346.7</ele>
      </trkpt>
      <trkpt lat="46.43483" lon="6.11625">
        <ele>1335.8</ele>
      </trkpt>
      <trkpt lat="46.43492" lon="6.11641">
        <ele>1330.3</ele>
      </trkpt>
      <trkpt lat="46.43504" lon="6.11666">
        <ele>1323.2</ele>
      </trkpt>
      <trkpt lat="46.43517" lon="6.11692">
        <ele>1323.9</ele>
      </trkpt>
      <trkpt lat="46.43529" lon="6.11722">
        <ele>1323.8</ele>
      </trkpt>
      <trkpt lat="46.43538" lon="6.11743">
        <ele>1323</ele>
      </trkpt>
      <trkpt lat="46.43547" lon="6.11769">
        <ele>1322.1</ele>
      </trkpt>
      <trkpt lat="46.4356" lon="6.118">
        <ele>1321.1</ele>
      </trkpt>
      <trkpt lat="46.43573" lon="6.11823">
        <ele>1320</ele>
      </trkpt>
      <trkpt lat="46.43583" lon="6.11846">
        <ele>1319.8</ele>
      </trkpt>
      <trkpt lat="46.43593" lon="6.1186">
        <ele>1322.1</ele>
      </trkpt>
      <trkpt lat="46.43597" lon="6.11869">
        <ele>1323.1</ele>
      </trkpt>
      <trkpt lat="46.43603" lon="6.11888">
        <ele>1324.6</ele>
      </trkpt>
      <trkpt lat="46.4361" lon="6.11912">
        <ele>1326.1</ele>
      </trkpt>
      <trkpt lat="46.43608" lon="6.11914">
        <ele>1326</ele>
      </trkpt>
      <trkpt lat="46.43607" lon="6.11918">
        <ele>1325.9</ele>
      </trkpt>
      <trkpt lat="46.43607" lon="6.11923">
        <ele>1325.5</ele>
      </trkpt>
      <trkpt lat="46.43607" lon="6.1198">
        <ele>1321.4</ele>
      </trkpt>
      <trkpt lat="46.43608" lon="6.11993">
        <ele>1320.5</ele>
      </trkpt>
      <trkpt lat="46.4361" lon="6.12022">
        <ele>1317.8</ele>
      </trkpt>
      <trkpt lat="46.43614" lon="6.12047">
        <ele>1315.3</ele>
      </trkpt>
      <trkpt lat="46.43616" lon="6.1207">
        <ele>1313</ele>
      </trkpt>
      <trkpt lat="46.43618" lon="6.12088">
        <ele>1311.5</ele>
      </trkpt>
      <trkpt lat="46.43618" lon="6.12098">
        <ele>1311.3</ele>
      </trkpt>
      <trkpt lat="46.43617" lon="6.12116">
        <ele>1311</ele>
      </trkpt>
      <trkpt lat="46.43611" lon="6.12155">
        <ele>1310.8</ele>
      </trkpt>
      <trkpt lat="46.43608" lon="6.12187">
        <ele>1310</ele>
      </trkpt>
      <trkpt lat="46.43606" lon="6.12197">
        <ele>1309.6</ele>
      </trkpt>
      <trkpt lat="46.43605" lon="6.12223">
        <ele>1308.6</ele>
      </trkpt>
      <trkpt lat="46.43605" lon="6.12255">
        <ele>1307.2</ele>
      </trkpt>
      <trkpt lat="46.43604" lon="6.12265">
        <ele>1306.7</ele>
      </trkpt>
      <trkpt lat="46.43606" lon="6.12275">
        <ele>1306</ele>
      </trkpt>
      <trkpt lat="46.43607" lon="6.12283">
        <ele>1305.3</ele>
      </trkpt>
      <trkpt lat="46.4361" lon="6.12293">
        <ele>1304.4</ele>
      </trkpt>
      <trkpt lat="46.43614" lon="6.12303">
        <ele>1303.4</ele>
      </trkpt>
      <trkpt lat="46.43628" lon="6.12335">
        <ele>1300.1</ele>
      </trkpt>
      <trkpt lat="46.43637" lon="6.12352">
        <ele>1298.3</ele>
      </trkpt>
      <trkpt lat="46.43645" lon="6.12371">
        <ele>1296.5</ele>
      </trkpt>
      <trkpt lat="46.4365" lon="6.12383">
        <ele>1295.5</ele>
      </trkpt>
      <trkpt lat="46.43652" lon="6.1239">
        <ele>1294.9</ele>
      </trkpt>
      <trkpt lat="46.43654" lon="6.124">
        <ele>1294.2</ele>
      </trkpt>
      <trkpt lat="46.43656" lon="6.12411">
        <ele>1293.6</ele>
      </trkpt>
      <trkpt lat="46.43658" lon="6.12423">
        <ele>1292.9</ele>
      </trkpt>
      <trkpt lat="46.43667" lon="6.12491">
        <ele>1289.4</ele>
      </trkpt>
      <trkpt lat="46.43669" lon="6.12501">
        <ele>1289.2</ele>
      </trkpt>
      <trkpt lat="46.43673" lon="6.12516">
        <ele>1289.2</ele>
      </trkpt>
      <trkpt lat="46.43686" lon="6.12565">
        <ele>1289.3</ele>
      </trkpt>
      <trkpt lat="46.43689" lon="6.12592">
        <ele>1288.4</ele>
      </trkpt>
      <trkpt lat="46.43692" lon="6.1261">
        <ele>1286.7</ele>
      </trkpt>
      <trkpt lat="46.43693" lon="6.12623">
        <ele>1285.7</ele>
      </trkpt>
      <trkpt lat="46.43698" lon="6.1264">
        <ele>1284.7</ele>
      </trkpt>
      <trkpt lat="46.43707" lon="6.12669">
        <ele>1283.1</ele>
      </trkpt>
      <trkpt lat="46.43709" lon="6.12676">
        <ele>1282.7</ele>
      </trkpt>
      <trkpt lat="46.43709" lon="6.12682">
        <ele>1282.2</ele>
      </trkpt>
      <trkpt lat="46.43709" lon="6.12688">
        <ele>1281.6</ele>
      </trkpt>
      <trkpt lat="46.43708" lon="6.12698">
        <ele>1280.5</ele>
      </trkpt>
      <trkpt lat="46.43707" lon="6.12708">
        <ele>1279.4</ele>
      </trkpt>
      <trkpt lat="46.43701" lon="6.12734">
        <ele>1276.3</ele>
      </trkpt>
      <trkpt lat="46.437" lon="6.12741">
        <ele>1275.6</ele>
      </trkpt>
      <trkpt lat="46.43699" lon="6.12745">
        <ele>1275.2</ele>
      </trkpt>
      <trkpt lat="46.43699" lon="6.12752">
        <ele>1274.6</ele>
      </trkpt>
      <trkpt lat="46.43701" lon="6.12759">
        <ele>1274.2</ele>
      </trkpt>
      <trkpt lat="46.43703" lon="6.12766">
        <ele>1274</ele>
      </trkpt>
      <trkpt lat="46.43712" lon="6.12789">
        <ele>1273</ele>
      </trkpt>
      <trkpt lat="46.43718" lon="6.12807">
        <ele>1271.8</ele>
      </trkpt>
      <trkpt lat="46.43721" lon="6.12822">
        <ele>1270.9</ele>
      </trkpt>
      <trkpt lat="46.43726" lon="6.12845">
        <ele>1270</ele>
      </trkpt>
      <trkpt lat="46.43733" lon="6.12882">
        <ele>1269.5</ele>
      </trkpt>
      <trkpt lat="46.43734" lon="6.12893">
        <ele>1269.2</ele>
      </trkpt>
      <trkpt lat="46.43735" lon="6.12921">
        <ele>1268.9</ele>
      </trkpt>
      <trkpt lat="46.43735" lon="6.12944">
        <ele>1270.1</ele>
      </trkpt>
      <trkpt lat="46.43735" lon="6.12957">
        <ele>1270.8</ele>
      </trkpt>
      <trkpt lat="46.43734" lon="6.1299">
        <ele>1272.6</ele>
      </trkpt>
      <trkpt lat="46.43734" lon="6.13011">
        <ele>1273.6</ele>
      </trkpt>
      <trkpt lat="46.43734" lon="6.13027">
        <ele>1274.1</ele>
      </trkpt>
      <trkpt lat="46.43736" lon="6.13048">
        <ele>1274.7</ele>
      </trkpt>
      <trkpt lat="46.43738" lon="6.13062">
        <ele>1275</ele>
      </trkpt>
      <trkpt lat="46.43739" lon="6.13073">
        <ele>1275.2</ele>
      </trkpt>
      <trkpt lat="46.43742" lon="6.13103">
        <ele>1276.8</ele>
      </trkpt>
      <trkpt lat="46.43743" lon="6.13113">
        <ele>1277.4</ele>
      </trkpt>
      <trkpt lat="46.43745" lon="6.13123">
        <ele>1277.9</ele>
      </trkpt>
      <trkpt lat="46.43748" lon="6.13132">
        <ele>1277.9</ele>
      </trkpt>
      <trkpt lat="46.43756" lon="6.13145">
        <ele>1277.9</ele>
      </trkpt>
      <trkpt lat="46.43763" lon="6.13156">
        <ele>1277.8</ele>
      </trkpt>
      <trkpt lat="46.43778" lon="6.13175">
        <ele>1276.8</ele>
      </trkpt>
      <trkpt lat="46.43789" lon="6.13193">
        <ele>1275.1</ele>
      </trkpt>
      <trkpt lat="46.43793" lon="6.13204">
        <ele>1274.2</ele>
      </trkpt>
      <trkpt lat="46.43795" lon="6.13214">
        <ele>1273.8</ele>
      </trkpt>
      <trkpt lat="46.43822" lon="6.13236">
        <ele>1267</ele>
      </trkpt>
      <trkpt lat="46.43852" lon="6.13252">
        <ele>1258</ele>
      </trkpt>
      <trkpt lat="46.43891" lon="6.13271">
        <ele>1246.5</ele>
      </trkpt>
      <trkpt lat="46.4391" lon="6.13283">
        <ele>1240.4</ele>
      </trkpt>
      <trkpt lat="46.43932" lon="6.13295">
        <ele>1234.4</ele>
      </trkpt>
      <trkpt lat="46.43978" lon="6.133">
        <ele>1224.2</ele>
      </trkpt>
      <trkpt lat="46.43995" lon="6.13301">
        <ele>1220.6</ele>
      </trkpt>
      <trkpt lat="46.44046" lon="6.13302">
        <ele>1208.8</ele>
      </trkpt>
      <trkpt lat="46.44096" lon="6.13315">
        <ele>1197.4</ele>
      </trkpt>
      <trkpt lat="46.44142" lon="6.13332">
        <ele>1187.4</ele>
      </trkpt>
      <trkpt lat="46.44175" lon="6.13331">
        <ele>1182</ele>
      </trkpt>
      <trkpt lat="46.44191" lon="6.13322">
        <ele>1182.4</ele>
      </trkpt>
      <trkpt lat="46.44198" lon="6.13316">
        <ele>1182.6</ele>
      </trkpt>
      <trkpt lat="46.44225" lon="6.13324">
        <ele>1181.9</ele>
      </trkpt>
      <trkpt lat="46.44246" lon="6.13334">
        <ele>1181</ele>
      </trkpt>
      <trkpt lat="46.44276" lon="6.13352">
        <ele>1177</ele>
      </trkpt>
      <trkpt lat="46.44283" lon="6.13358">
        <ele>1176</ele>
      </trkpt>
      <trkpt lat="46.44301" lon="6.1338">
        <ele>1174.4</ele>
      </trkpt>
      <trkpt lat="46.44319" lon="6.13368">
        <ele>1172.9</ele>
      </trkpt>
      <trkpt lat="46.44342" lon="6.13357">
        <ele>1170.5</ele>
      </trkpt>
      <trkpt lat="46.44354" lon="6.13353">
        <ele>1169.4</ele>
      </trkpt>
      <trkpt lat="46.44363" lon="6.1335">
        <ele>1168.5</ele>
      </trkpt>
      <trkpt lat="46.44372" lon="6.13348">
        <ele>1167.8</ele>
      </trkpt>
      <trkpt lat="46.44379" lon="6.1335">
        <ele>1167.3</ele>
      </trkpt>
      <trkpt lat="46.44386" lon="6.13353">
        <ele>1167</ele>
      </trkpt>
      <trkpt lat="46.44395" lon="6.13358">
        <ele>1166.7</ele>
      </trkpt>
      <trkpt lat="46.44406" lon="6.13366">
        <ele>1166.5</ele>
      </trkpt>
      <trkpt lat="46.4442" lon="6.13377">
        <ele>1166.5</ele>
      </trkpt>
      <trkpt lat="46.44434" lon="6.13386">
        <ele>1166.4</ele>
      </trkpt>
      <trkpt lat="46.44453" lon="6.13404">
        <ele>1166.3</ele>
      </trkpt>
      <trkpt lat="46.4446" lon="6.13409">
        <ele>1166</ele>
      </trkpt>
      <trkpt lat="46.44467" lon="6.13411">
        <ele>1165.5</ele>
      </trkpt>
      <trkpt lat="46.44473" lon="6.13412">
        <ele>1165.1</ele>
      </trkpt>
      <trkpt lat="46.44478" lon="6.13412">
        <ele>1164.7</ele>
      </trkpt>
      <trkpt lat="46.44481" lon="6.13412">
        <ele>1164.5</ele>
      </trkpt>
      <trkpt lat="46.44489" lon="6.13411">
        <ele>1163.8</ele>
      </trkpt>
      <trkpt lat="46.445" lon="6.13407">
        <ele>1162.9</ele>
      </trkpt>
      <trkpt lat="46.44523" lon="6.13396">
        <ele>1161</ele>
      </trkpt>
      <trkpt lat="46.44517" lon="6.13407">
        <ele>1161.5</ele>
      </trkpt>
      <trkpt lat="46.4449" lon="6.1343">
        <ele>1163.8</ele>
      </trkpt>
      <trkpt lat="46.44487" lon="6.13435">
        <ele>1164.1</ele>
      </trkpt>
      <trkpt lat="46.44486" lon="6.13441">
        <ele>1164.2</ele>
      </trkpt>
      <trkpt lat="46.44487" lon="6.13448">
        <ele>1164.1</ele>
      </trkpt>
      <trkpt lat="46.44488" lon="6.13453">
        <ele>1164</ele>
      </trkpt>
      <trkpt lat="46.44501" lon="6.13466">
        <ele>1162.3</ele>
      </trkpt>
      <trkpt lat="46.44507" lon="6.13477">
        <ele>1161.2</ele>
      </trkpt>
      <trkpt lat="46.44515" lon="6.13487">
        <ele>1159.7</ele>
      </trkpt>
      <trkpt lat="46.44521" lon="6.13498">
        <ele>1158.4</ele>
      </trkpt>
      <trkpt lat="46.44531" lon="6.13521">
        <ele>1156.1</ele>
      </trkpt>
      <trkpt lat="46.44539" lon="6.13537">
        <ele>1154.1</ele>
      </trkpt>
      <trkpt lat="46.44545" lon="6.1355">
        <ele>1152.2</ele>
      </trkpt>
      <trkpt lat="46.44551" lon="6.13561">
        <ele>1150.4</ele>
      </trkpt>
      <trkpt lat="46.44559" lon="6.13566">
        <ele>1148.2</ele>
      </trkpt>
      <trkpt lat="46.44575" lon="6.1358">
        <ele>1143.4</ele>
      </trkpt>
      <trkpt lat="46.44582" lon="6.13586">
        <ele>1141.5</ele>
      </trkpt>
      <trkpt lat="46.44589" lon="6.13594">
        <ele>1140.8</ele>
      </trkpt>
      <trkpt lat="46.44593" lon="6.13602">
        <ele>1140.4</ele>
      </trkpt>
      <trkpt lat="46.44596" lon="6.13613">
        <ele>1140.2</ele>
      </trkpt>
      <trkpt lat="46.44598" lon="6.13625">
        <ele>1139.9</ele>
      </trkpt>
      <trkpt lat="46.44601" lon="6.13655">
        <ele>1139.3</ele>
      </trkpt>
      <trkpt lat="46.44603" lon="6.13679">
        <ele>1138.9</ele>
      </trkpt>
      <trkpt lat="46.44606" lon="6.13706">
        <ele>1138.4</ele>
      </trkpt>
      <trkpt lat="46.44609" lon="6.13725">
        <ele>1137.6</ele>
      </trkpt>
      <trkpt lat="46.44618" lon="6.1377">
        <ele>1133.4</ele>
      </trkpt>
      <trkpt lat="46.44625" lon="6.1381">
        <ele>1128.4</ele>
      </trkpt>
      <trkpt lat="46.44629" lon="6.13842">
        <ele>1125.4</ele>
      </trkpt>
      <trkpt lat="46.44639" lon="6.13877">
        <ele>1122.3</ele>
      </trkpt>
      <trkpt lat="46.44647" lon="6.13909">
        <ele>1119.2</ele>
      </trkpt>
      <trkpt lat="46.44651" lon="6.1394">
        <ele>1118.2</ele>
      </trkpt>
      <trkpt lat="46.44648" lon="6.14013">
        <ele>1118.2</ele>
      </trkpt>
      <trkpt lat="46.44648" lon="6.14024">
        <ele>1117.5</ele>
      </trkpt>
      <trkpt lat="46.44651" lon="6.14034">
        <ele>1116.2</ele>
      </trkpt>
      <trkpt lat="46.44655" lon="6.14043">
        <ele>1114.9</ele>
      </trkpt>
      <trkpt lat="46.44656" lon="6.14046">
        <ele>1114.5</ele>
      </trkpt>
      <trkpt lat="46.44656" lon="6.1405">
        <ele>1114.3</ele>
      </trkpt>
      <trkpt lat="46.44652" lon="6.14075">
        <ele>1113.6</ele>
      </trkpt>
      <trkpt lat="46.44649" lon="6.14084">
        <ele>1113.6</ele>
      </trkpt>
      <trkpt lat="46.44648" lon="6.14096">
        <ele>1113.4</ele>
      </trkpt>
      <trkpt lat="46.4465" lon="6.14113">
        <ele>1112.4</ele>
      </trkpt>
      <trkpt lat="46.44654" lon="6.14127">
        <ele>1111.1</ele>
      </trkpt>
      <trkpt lat="46.44656" lon="6.14134">
        <ele>1110.2</ele>
      </trkpt>
      <trkpt lat="46.44658" lon="6.14141">
        <ele>1109.6</ele>
      </trkpt>
      <trkpt lat="46.44654" lon="6.14172">
        <ele>1109.3</ele>
      </trkpt>
      <trkpt lat="46.4465" lon="6.14212">
        <ele>1109.2</ele>
      </trkpt>
      <trkpt lat="46.4464" lon="6.14307">
        <ele>1109.9</ele>
      </trkpt>
      <trkpt lat="46.44636" lon="6.14347">
        <ele>1110</ele>
      </trkpt>
      <trkpt lat="46.44609" lon="6.14632">
        <ele>1106.4</ele>
      </trkpt>
      <trkpt lat="46.446" lon="6.14709">
        <ele>1102.9</ele>
      </trkpt>
      <trkpt lat="46.44585" lon="6.1473">
        <ele>1102</ele>
      </trkpt>
      <trkpt lat="46.44576" lon="6.14751">
        <ele>1103.7</ele>
      </trkpt>
      <trkpt lat="46.44565" lon="6.14779">
        <ele>1106</ele>
      </trkpt>
      <trkpt lat="46.44558" lon="6.14815">
        <ele>1105.7</ele>
      </trkpt>
      <trkpt lat="46.44552" lon="6.14862">
        <ele>1105.4</ele>
      </trkpt>
      <trkpt lat="46.4454" lon="6.14957">
        <ele>1104.8</ele>
      </trkpt>
      <trkpt lat="46.44526" lon="6.1508">
        <ele>1097</ele>
      </trkpt>
      <trkpt lat="46.44525" lon="6.15101">
        <ele>1094.6</ele>
      </trkpt>
      <trkpt lat="46.44526" lon="6.15123">
        <ele>1092.2</ele>
      </trkpt>
      <trkpt lat="46.44529" lon="6.15143">
        <ele>1089.9</ele>
      </trkpt>
      <trkpt lat="46.44542" lon="6.15201">
        <ele>1083.9</ele>
      </trkpt>
      <trkpt lat="46.44553" lon="6.15245">
        <ele>1078.2</ele>
      </trkpt>
      <trkpt lat="46.44572" lon="6.1526">
        <ele>1072</ele>
      </trkpt>
      <trkpt lat="46.44587" lon="6.15276">
        <ele>1067.7</ele>
      </trkpt>
      <trkpt lat="46.44592" lon="6.15284">
        <ele>1067.6</ele>
      </trkpt>
      <trkpt lat="46.44596" lon="6.15298">
        <ele>1066.4</ele>
      </trkpt>
      <trkpt lat="46.44601" lon="6.15331">
        <ele>1062.7</ele>
      </trkpt>
      <trkpt lat="46.44605" lon="6.15343">
        <ele>1061.7</ele>
      </trkpt>
      <trkpt lat="46.44607" lon="6.15348">
        <ele>1061.4</ele>
      </trkpt>
      <trkpt lat="46.44602" lon="6.15382">
        <ele>1055.2</ele>
      </trkpt>
      <trkpt lat="46.4459" lon="6.15432">
        <ele>1046.7</ele>
      </trkpt>
      <trkpt lat="46.44585" lon="6.15458">
        <ele>1044.3</ele>
      </trkpt>
      <trkpt lat="46.44583" lon="6.15474">
        <ele>1043.4</ele>
      </trkpt>
      <trkpt lat="46.44582" lon="6.15499">
        <ele>1042.6</ele>
      </trkpt>
      <trkpt lat="46.44584" lon="6.15516">
        <ele>1041.4</ele>
      </trkpt>
      <trkpt lat="46.44579" lon="6.15536">
        <ele>1041.8</ele>
      </trkpt>
      <trkpt lat="46.44573" lon="6.15653">
        <ele>1041</ele>
      </trkpt>
      <trkpt lat="46.4457" lon="6.15683">
        <ele>1042</ele>
      </trkpt>
      <trkpt lat="46.44567" lon="6.15749">
        <ele>1044.8</ele>
      </trkpt>
      <trkpt lat="46.44567" lon="6.15808">
        <ele>1046.2</ele>
      </trkpt>
      <trkpt lat="46.44578" lon="6.15808">
        <ele>1045.4</ele>
      </trkpt>
      <trkpt lat="46.44585" lon="6.15809">
        <ele>1045.2</ele>
      </trkpt>
      <trkpt lat="46.44598" lon="6.15812">
        <ele>1045.6</ele>
      </trkpt>
      <trkpt lat="46.44606" lon="6.15813">
        <ele>1045.9</ele>
      </trkpt>
      <trkpt lat="46.44615" lon="6.15805">
        <ele>1046</ele>
      </trkpt>
      <trkpt lat="46.44616" lon="6.15808">
        <ele>1046.1</ele>
      </trkpt>
      <trkpt lat="46.44617" lon="6.15812">
        <ele>1046.1</ele>
      </trkpt>
      <trkpt lat="46.44617" lon="6.15814">
        <ele>1046.2</ele>
      </trkpt>
      <trkpt lat="46.44616" lon="6.15817">
        <ele>1046.2</ele>
      </trkpt>
      <trkpt lat="46.44614" lon="6.15819">
        <ele>1046.2</ele>
      </trkpt>
      <trkpt lat="46.44612" lon="6.15819">
        <ele>1046.1</ele>
      </trkpt>
      <trkpt lat="46.4461" lon="6.15819">
        <ele>1046.1</ele>
      </trkpt>
      <trkpt lat="46.44608" lon="6.15818">
        <ele>1046</ele>
      </trkpt>
      <trkpt lat="46.44607" lon="6.15816">
        <ele>1046</ele>
      </trkpt>
      <trkpt lat="46.44606" lon="6.15813">
        <ele>1045.9</ele>
      </trkpt>
      <trkpt lat="46.44606" lon="6.1581">
        <ele>1045.8</ele>
      </trkpt>
      <trkpt lat="46.44607" lon="6.15807">
        <ele>1045.8</ele>
      </trkpt>
      <trkpt lat="46.44608" lon="6.15805">
        <ele>1045.8</ele>
      </trkpt>
      <trkpt lat="46.44611" lon="6.15803">
        <ele>1045.8</ele>
      </trkpt>
      <trkpt lat="46.44613" lon="6.15803">
        <ele>1045.9</ele>
      </trkpt>
      <trkpt lat="46.44615" lon="6.15805">
        <ele>1046</ele>
      </trkpt>
      <trkpt lat="46.44616" lon="6.15817">
        <ele>1046.2</ele>
      </trkpt>
      <trkpt lat="46.44618" lon="6.15821">
        <ele>1046.3</ele>
      </trkpt>
      <trkpt lat="46.44622" lon="6.15825">
        <ele>1046.4</ele>
      </trkpt>
      <trkpt lat="46.44634" lon="6.15829">
        <ele>1046.6</ele>
      </trkpt>
      <trkpt lat="46.44663" lon="6.15838">
        <ele>1047</ele>
      </trkpt>
      <trkpt lat="46.44672" lon="6.15842">
        <ele>1047.2</ele>
      </trkpt>
      <trkpt lat="46.44684" lon="6.15848">
        <ele>1047.4</ele>
      </trkpt>
      <trkpt lat="46.44695" lon="6.15855">
        <ele>1047.6</ele>
      </trkpt>
      <trkpt lat="46.44709" lon="6.15866">
        <ele>1047.5</ele>
      </trkpt>
      <trkpt lat="46.44712" lon="6.15869">
        <ele>1047.5</ele>
      </trkpt>
      <trkpt lat="46.44716" lon="6.15875">
        <ele>1047.3</ele>
      </trkpt>
      <trkpt lat="46.44718" lon="6.15879">
        <ele>1047.1</ele>
      </trkpt>
      <trkpt lat="46.44727" lon="6.15876">
        <ele>1047.3</ele>
      </trkpt>
      <trkpt lat="46.44732" lon="6.15873">
        <ele>1047.5</ele>
      </trkpt>
      <trkpt lat="46.44741" lon="6.15871">
        <ele>1047.7</ele>
      </trkpt>
      <trkpt lat="46.44748" lon="6.15872">
        <ele>1047.7</ele>
      </trkpt>
      <trkpt lat="46.44755" lon="6.15875">
        <ele>1047.8</ele>
      </trkpt>
      <trkpt lat="46.44816" lon="6.15902">
        <ele>1048</ele>
      </trkpt>
      <trkpt lat="46.44821" lon="6.15905">
        <ele>1047.9</ele>
      </trkpt>
      <trkpt lat="46.44839" lon="6.15918">
        <ele>1047.4</ele>
      </trkpt>
      <trkpt lat="46.44854" lon="6.15932">
        <ele>1048.1</ele>
      </trkpt>
      <trkpt lat="46.44859" lon="6.15935">
        <ele>1048.3</ele>
      </trkpt>
      <trkpt lat="46.44864" lon="6.15934">
        <ele>1048.7</ele>
      </trkpt>
      <trkpt lat="46.44866" lon="6.15933">
        <ele>1048.8</ele>
      </trkpt>
      <trkpt lat="46.44872" lon="6.1593">
        <ele>1049.3</ele>
      </trkpt>
      <trkpt lat="46.4488" lon="6.15929">
        <ele>1049.9</ele>
      </trkpt>
      <trkpt lat="46.44896" lon="6.15932">
        <ele>1050.8</ele>
      </trkpt>
      <trkpt lat="46.4491" lon="6.15937">
        <ele>1051.4</ele>
      </trkpt>
      <trkpt lat="46.44928" lon="6.15941">
        <ele>1052.2</ele>
      </trkpt>
      <trkpt lat="46.44936" lon="6.15943">
        <ele>1052.6</ele>
      </trkpt>
      <trkpt lat="46.44949" lon="6.15939">
        <ele>1053.7</ele>
      </trkpt>
      <trkpt lat="46.44981" lon="6.15923">
        <ele>1056.5</ele>
      </trkpt>
      <trkpt lat="46.45008" lon="6.15911">
        <ele>1060.5</ele>
      </trkpt>
      <trkpt lat="46.45016" lon="6.15904">
        <ele>1062.8</ele>
      </trkpt>
      <trkpt lat="46.45035" lon="6.15886">
        <ele>1067.6</ele>
      </trkpt>
      <trkpt lat="46.45044" lon="6.1587">
        <ele>1070.2</ele>
      </trkpt>
      <trkpt lat="46.45066" lon="6.15822">
        <ele>1075.3</ele>
      </trkpt>
      <trkpt lat="46.45091" lon="6.15784">
        <ele>1082.8</ele>
      </trkpt>
      <trkpt lat="46.45107" lon="6.15778">
        <ele>1087.5</ele>
      </trkpt>
      <trkpt lat="46.4517" lon="6.15845">
        <ele>1098</ele>
      </trkpt>
      <trkpt lat="46.4519" lon="6.15851">
        <ele>1105.2</ele>
      </trkpt>
      <trkpt lat="46.45196" lon="6.15852">
        <ele>1107.1</ele>
      </trkpt>
      <trkpt lat="46.45206" lon="6.15865">
        <ele>1110.3</ele>
      </trkpt>
      <trkpt lat="46.45212" lon="6.15901">
        <ele>1110.4</ele>
      </trkpt>
      <trkpt lat="46.45222" lon="6.15936">
        <ele>1113.2</ele>
      </trkpt>
      <trkpt lat="46.45226" lon="6.15951">
        <ele>1114.7</ele>
      </trkpt>
      <trkpt lat="46.45238" lon="6.15993">
        <ele>1117.5</ele>
      </trkpt>
      <trkpt lat="46.45259" lon="6.16026">
        <ele>1123</ele>
      </trkpt>
      <trkpt lat="46.4527" lon="6.16043">
        <ele>1125.6</ele>
      </trkpt>
      <trkpt lat="46.45277" lon="6.1606">
        <ele>1127.3</ele>
      </trkpt>
      <trkpt lat="46.45292" lon="6.16109">
        <ele>1129.3</ele>
      </trkpt>
      <trkpt lat="46.45314" lon="6.16144">
        <ele>1128.3</ele>
      </trkpt>
      <trkpt lat="46.45354" lon="6.16156">
        <ele>1127</ele>
      </trkpt>
      <trkpt lat="46.45376" lon="6.16172">
        <ele>1126.9</ele>
      </trkpt>
      <trkpt lat="46.45391" lon="6.1619">
        <ele>1126.3</ele>
      </trkpt>
      <trkpt lat="46.454" lon="6.16212">
        <ele>1125.1</ele>
      </trkpt>
      <trkpt lat="46.4541" lon="6.16248">
        <ele>1122.5</ele>
      </trkpt>
      <trkpt lat="46.4542" lon="6.16263">
        <ele>1121.6</ele>
      </trkpt>
      <trkpt lat="46.4544" lon="6.16282">
        <ele>1121</ele>
      </trkpt>
      <trkpt lat="46.45458" lon="6.16304">
        <ele>1120.2</ele>
      </trkpt>
      <trkpt lat="46.45481" lon="6.16325">
        <ele>1119.4</ele>
      </trkpt>
      <trkpt lat="46.455" lon="6.16353">
        <ele>1118.3</ele>
      </trkpt>
      <trkpt lat="46.4551" lon="6.16362">
        <ele>1117.1</ele>
      </trkpt>
      <trkpt lat="46.4553" lon="6.16365">
        <ele>1115.4</ele>
      </trkpt>
      <trkpt lat="46.45545" lon="6.1636">
        <ele>1114.3</ele>
      </trkpt>
      <trkpt lat="46.45553" lon="6.16365">
        <ele>1113.5</ele>
      </trkpt>
      <trkpt lat="46.4556" lon="6.16384">
        <ele>1112.8</ele>
      </trkpt>
      <trkpt lat="46.45562" lon="6.16388">
        <ele>1112.6</ele>
      </trkpt>
      <trkpt lat="46.45563" lon="6.16393">
        <ele>1112.4</ele>
      </trkpt>
      <trkpt lat="46.45573" lon="6.16418">
        <ele>1111.6</ele>
      </trkpt>
      <trkpt lat="46.45574" lon="6.16402">
        <ele>1111.6</ele>
      </trkpt>
      <trkpt lat="46.45576" lon="6.16388">
        <ele>1111.5</ele>
      </trkpt>
      <trkpt lat="46.45579" lon="6.16377">
        <ele>1111.3</ele>
      </trkpt>
      <trkpt lat="46.45583" lon="6.16367">
        <ele>1111.1</ele>
      </trkpt>
      <trkpt lat="46.45588" lon="6.16358">
        <ele>1111.4</ele>
      </trkpt>
      <trkpt lat="46.45595" lon="6.16349">
        <ele>1112.2</ele>
      </trkpt>
      <trkpt lat="46.45605" lon="6.1634">
        <ele>1113.2</ele>
      </trkpt>
      <trkpt lat="46.45609" lon="6.16333">
        <ele>1113.8</ele>
      </trkpt>
      <trkpt lat="46.45614" lon="6.16325">
        <ele>1114.7</ele>
      </trkpt>
      <trkpt lat="46.45617" lon="6.16315">
        <ele>1115.4</ele>
      </trkpt>
      <trkpt lat="46.45628" lon="6.16278">
        <ele>1118.2</ele>
      </trkpt>
      <trkpt lat="46.45643" lon="6.1623">
        <ele>1122.5</ele>
      </trkpt>
      <trkpt lat="46.45659" lon="6.16233">
        <ele>1123.9</ele>
      </trkpt>
      <trkpt lat="46.4568" lon="6.16262">
        <ele>1126.2</ele>
      </trkpt>
      <trkpt lat="46.45693" lon="6.16292">
        <ele>1127</ele>
      </trkpt>
      <trkpt lat="46.45709" lon="6.16328">
        <ele>1128</ele>
      </trkpt>
      <trkpt lat="46.45726" lon="6.16374">
        <ele>1127.3</ele>
      </trkpt>
      <trkpt lat="46.45738" lon="6.16411">
        <ele>1125.9</ele>
      </trkpt>
      <trkpt lat="46.45742" lon="6.16438">
        <ele>1124.7</ele>
      </trkpt>
      <trkpt lat="46.45746" lon="6.16463">
        <ele>1123.7</ele>
      </trkpt>
      <trkpt lat="46.4576" lon="6.16499">
        <ele>1123.2</ele>
      </trkpt>
      <trkpt lat="46.45767" lon="6.16526">
        <ele>1123.4</ele>
      </trkpt>
      <trkpt lat="46.45783" lon="6.16555">
        <ele>1124.8</ele>
      </trkpt>
      <trkpt lat="46.45803" lon="6.16606">
        <ele>1127</ele>
      </trkpt>
      <trkpt lat="46.45812" lon="6.16631">
        <ele>1128.3</ele>
      </trkpt>
      <trkpt lat="46.45816" lon="6.16666">
        <ele>1129</ele>
      </trkpt>
      <trkpt lat="46.45829" lon="6.16691">
        <ele>1130.4</ele>
      </trkpt>
      <trkpt lat="46.45841" lon="6.16709">
        <ele>1131.6</ele>
      </trkpt>
      <trkpt lat="46.45838" lon="6.16725">
        <ele>1130.6</ele>
      </trkpt>
      <trkpt lat="46.45831" lon="6.16742">
        <ele>1129</ele>
      </trkpt>
      <trkpt lat="46.45825" lon="6.16771">
        <ele>1127.2</ele>
      </trkpt>
      <trkpt lat="46.45822" lon="6.16816">
        <ele>1125</ele>
      </trkpt>
      <trkpt lat="46.45813" lon="6.16871">
        <ele>1122</ele>
      </trkpt>
      <trkpt lat="46.45816" lon="6.16914">
        <ele>1120.1</ele>
      </trkpt>
      <trkpt lat="46.45811" lon="6.16965">
        <ele>1119.1</ele>
      </trkpt>
      <trkpt lat="46.45795" lon="6.17048">
        <ele>1114.3</ele>
      </trkpt>
      <trkpt lat="46.45794" lon="6.17093">
        <ele>1110.9</ele>
      </trkpt>
      <trkpt lat="46.45795" lon="6.1712">
        <ele>1108.8</ele>
      </trkpt>
      <trkpt lat="46.45782" lon="6.17148">
        <ele>1106.2</ele>
      </trkpt>
      <trkpt lat="46.4577" lon="6.17186">
        <ele>1101.5</ele>
      </trkpt>
      <trkpt lat="46.45756" lon="6.1722">
        <ele>1094.9</ele>
      </trkpt>
      <trkpt lat="46.45742" lon="6.17269">
        <ele>1086.2</ele>
      </trkpt>
      <trkpt lat="46.45738" lon="6.17318">
        <ele>1079.5</ele>
      </trkpt>
      <trkpt lat="46.45732" lon="6.17375">
        <ele>1075</ele>
      </trkpt>
      <trkpt lat="46.45722" lon="6.17405">
        <ele>1073.2</ele>
      </trkpt>
      <trkpt lat="46.45715" lon="6.17434">
        <ele>1071.5</ele>
      </trkpt>
      <trkpt lat="46.45713" lon="6.17443">
        <ele>1071.1</ele>
      </trkpt>
      <trkpt lat="46.45706" lon="6.17462">
        <ele>1070.1</ele>
      </trkpt>
      <trkpt lat="46.45767" lon="6.17504">
        <ele>1069.7</ele>
      </trkpt>
      <trkpt lat="46.4579" lon="6.17524">
        <ele>1071</ele>
      </trkpt>
      <trkpt lat="46.45819" lon="6.17552">
        <ele>1072</ele>
      </trkpt>
      <trkpt lat="46.45847" lon="6.1758">
        <ele>1072.7</ele>
      </trkpt>
      <trkpt lat="46.45874" lon="6.17604">
        <ele>1074.3</ele>
      </trkpt>
      <trkpt lat="46.45889" lon="6.1761">
        <ele>1075.4</ele>
      </trkpt>
      <trkpt lat="46.45913" lon="6.17616">
        <ele>1077.3</ele>
      </trkpt>
      <trkpt lat="46.45924" lon="6.17629">
        <ele>1077.6</ele>
      </trkpt>
      <trkpt lat="46.45928" lon="6.17638">
        <ele>1077.6</ele>
      </trkpt>
      <trkpt lat="46.45932" lon="6.17651">
        <ele>1077.2</ele>
      </trkpt>
      <trkpt lat="46.45939" lon="6.17672">
        <ele>1076.5</ele>
      </trkpt>
      <trkpt lat="46.45958" lon="6.17759">
        <ele>1073.6</ele>
      </trkpt>
      <trkpt lat="46.45976" lon="6.17845">
        <ele>1071.9</ele>
      </trkpt>
      <trkpt lat="46.45983" lon="6.17876">
        <ele>1071.1</ele>
      </trkpt>
      <trkpt lat="46.45986" lon="6.17874">
        <ele>1071.6</ele>
      </trkpt>
      <trkpt lat="46.45989" lon="6.17875">
        <ele>1071.8</ele>
      </trkpt>
      <trkpt lat="46.45992" lon="6.17877">
        <ele>1072</ele>
      </trkpt>
      <trkpt lat="46.4601" lon="6.17916">
        <ele>1072.6</ele>
      </trkpt>
      <trkpt lat="46.46011" lon="6.17921">
        <ele>1072.7</ele>
      </trkpt>
      <trkpt lat="46.46012" lon="6.17932">
        <ele>1072.5</ele>
      </trkpt>
      <trkpt lat="46.46015" lon="6.17949">
        <ele>1072.2</ele>
      </trkpt>
      <trkpt lat="46.46019" lon="6.1798">
        <ele>1071.6</ele>
      </trkpt>
      <trkpt lat="46.46025" lon="6.18015">
        <ele>1070.8</ele>
      </trkpt>
      <trkpt lat="46.46033" lon="6.18064">
        <ele>1069.8</ele>
      </trkpt>
      <trkpt lat="46.4604" lon="6.18102">
        <ele>1069.6</ele>
      </trkpt>
      <trkpt lat="46.46042" lon="6.18111">
        <ele>1069.7</ele>
      </trkpt>
      <trkpt lat="46.46045" lon="6.1812">
        <ele>1069.9</ele>
      </trkpt>
      <trkpt lat="46.46048" lon="6.18127">
        <ele>1070.1</ele>
      </trkpt>
      <trkpt lat="46.46051" lon="6.18132">
        <ele>1070.4</ele>
      </trkpt>
      <trkpt lat="46.46069" lon="6.18153">
        <ele>1071.9</ele>
      </trkpt>
      <trkpt lat="46.46103" lon="6.18184">
        <ele>1072.5</ele>
      </trkpt>
      <trkpt lat="46.46126" lon="6.18197">
        <ele>1071.4</ele>
      </trkpt>
      <trkpt lat="46.46152" lon="6.18204">
        <ele>1070</ele>
      </trkpt>
      <trkpt lat="46.4618" lon="6.18206">
        <ele>1068</ele>
      </trkpt>
      <trkpt lat="46.46201" lon="6.18218">
        <ele>1065.5</ele>
      </trkpt>
      <trkpt lat="46.46206" lon="6.18233">
        <ele>1064</ele>
      </trkpt>
      <trkpt lat="46.46232" lon="6.18267">
        <ele>1058.7</ele>
      </trkpt>
      <trkpt lat="46.46255" lon="6.18305">
        <ele>1054.2</ele>
      </trkpt>
      <trkpt lat="46.4628" lon="6.18337">
        <ele>1052.4</ele>
      </trkpt>
      <trkpt lat="46.46309" lon="6.18356">
        <ele>1051.2</ele>
      </trkpt>
      <trkpt lat="46.46329" lon="6.18357">
        <ele>1051.4</ele>
      </trkpt>
      <trkpt lat="46.4635" lon="6.18343">
        <ele>1052.8</ele>
      </trkpt>
      <trkpt lat="46.46359" lon="6.18327">
        <ele>1054.1</ele>
      </trkpt>
      <trkpt lat="46.46364" lon="6.18307">
        <ele>1055.3</ele>
      </trkpt>
      <trkpt lat="46.46383" lon="6.1828">
        <ele>1056</ele>
      </trkpt>
      <trkpt lat="46.46395" lon="6.1827">
        <ele>1055.8</ele>
      </trkpt>
      <trkpt lat="46.46397" lon="6.18269">
        <ele>1055.7</ele>
      </trkpt>
      <trkpt lat="46.46404" lon="6.18267">
        <ele>1055.4</ele>
      </trkpt>
      <trkpt lat="46.46412" lon="6.1827">
        <ele>1054.8</ele>
      </trkpt>
      <trkpt lat="46.46439" lon="6.18285">
        <ele>1057.4</ele>
      </trkpt>
      <trkpt lat="46.46486" lon="6.18297">
        <ele>1064.4</ele>
      </trkpt>
      <trkpt lat="46.46535" lon="6.1835">
        <ele>1074.7</ele>
      </trkpt>
      <trkpt lat="46.46569" lon="6.18386">
        <ele>1081.1</ele>
      </trkpt>
      <trkpt lat="46.46599" lon="6.18427">
        <ele>1085.5</ele>
      </trkpt>
      <trkpt lat="46.46627" lon="6.1848">
        <ele>1086.2</ele>
      </trkpt>
      <trkpt lat="46.46636" lon="6.18507">
        <ele>1084.7</ele>
      </trkpt>
      <trkpt lat="46.46662" lon="6.18556">
        <ele>1080.7</ele>
      </trkpt>
      <trkpt lat="46.46709" lon="6.18627">
        <ele>1083</ele>
      </trkpt>
      <trkpt lat="46.46745" lon="6.18681">
        <ele>1088.7</ele>
      </trkpt>
      <trkpt lat="46.4675" lon="6.18686">
        <ele>1089.4</ele>
      </trkpt>
      <trkpt lat="46.4676" lon="6.18692">
        <ele>1090.4</ele>
      </trkpt>
      <trkpt lat="46.46773" lon="6.18699">
        <ele>1091.5</ele>
      </trkpt>
      <trkpt lat="46.46785" lon="6.18706">
        <ele>1092.6</ele>
      </trkpt>
      <trkpt lat="46.46805" lon="6.18668">
        <ele>1101.7</ele>
      </trkpt>
      <trkpt lat="46.46833" lon="6.18683">
        <ele>1104.1</ele>
      </trkpt>
      <trkpt lat="46.46907" lon="6.1877">
        <ele>1103.2</ele>
      </trkpt>
      <trkpt lat="46.46917" lon="6.18778">
        <ele>1103.4</ele>
      </trkpt>
      <trkpt lat="46.46927" lon="6.18781">
        <ele>1104.3</ele>
      </trkpt>
      <trkpt lat="46.46977" lon="6.18781">
        <ele>1112.2</ele>
      </trkpt>
      <trkpt lat="46.47022" lon="6.18785">
        <ele>1116.7</ele>
      </trkpt>
      <trkpt lat="46.47033" lon="6.18787">
        <ele>1117.2</ele>
      </trkpt>
      <trkpt lat="46.4704" lon="6.18787">
        <ele>1117.7</ele>
      </trkpt>
      <trkpt lat="46.47047" lon="6.18785">
        <ele>1118.4</ele>
      </trkpt>
      <trkpt lat="46.47052" lon="6.18781">
        <ele>1119.1</ele>
      </trkpt>
      <trkpt lat="46.47057" lon="6.18776">
        <ele>1120</ele>
      </trkpt>
      <trkpt lat="46.4707" lon="6.18757">
        <ele>1122.1</ele>
      </trkpt>
      <trkpt lat="46.47136" lon="6.18664">
        <ele>1136.1</ele>
      </trkpt>
      <trkpt lat="46.4716" lon="6.18629">
        <ele>1141.7</ele>
      </trkpt>
      <trkpt lat="46.4717" lon="6.1862">
        <ele>1143</ele>
      </trkpt>
      <trkpt lat="46.472" lon="6.18596">
        <ele>1145.3</ele>
      </trkpt>
      <trkpt lat="46.47214" lon="6.18583">
        <ele>1147</ele>
      </trkpt>
      <trkpt lat="46.47243" lon="6.18555">
        <ele>1148.4</ele>
      </trkpt>
      <trkpt lat="46.47274" lon="6.18528">
        <ele>1147.3</ele>
      </trkpt>
      <trkpt lat="46.47294" lon="6.18545">
        <ele>1143.7</ele>
      </trkpt>
      <trkpt lat="46.47322" lon="6.18544">
        <ele>1140.5</ele>
      </trkpt>
      <trkpt lat="46.47382" lon="6.18513">
        <ele>1139.4</ele>
      </trkpt>
      <trkpt lat="46.47435" lon="6.18474">
        <ele>1138.6</ele>
      </trkpt>
      <trkpt lat="46.47466" lon="6.18464">
        <ele>1135.2</ele>
      </trkpt>
      <trkpt lat="46.47511" lon="6.1845">
        <ele>1132.5</ele>
      </trkpt>
      <trkpt lat="46.47531" lon="6.18423">
        <ele>1138.4</ele>
      </trkpt>
      <trkpt lat="46.47593" lon="6.18385">
        <ele>1140.6</ele>
      </trkpt>
      <trkpt lat="46.47624" lon="6.18358">
        <ele>1142</ele>
      </trkpt>
      <trkpt lat="46.47659" lon="6.18337">
        <ele>1143</ele>
      </trkpt>
      <trkpt lat="46.47675" lon="6.18337">
        <ele>1142.1</ele>
      </trkpt>
      <trkpt lat="46.47709" lon="6.18327">
        <ele>1143.5</ele>
      </trkpt>
      <trkpt lat="46.47759" lon="6.18297">
        <ele>1146.9</ele>
      </trkpt>
      <trkpt lat="46.47806" lon="6.18279">
        <ele>1146.1</ele>
      </trkpt>
      <trkpt lat="46.47827" lon="6.18278">
        <ele>1144.8</ele>
      </trkpt>
      <trkpt lat="46.47842" lon="6.18278">
        <ele>1144.3</ele>
      </trkpt>
      <trkpt lat="46.47876" lon="6.18258">
        <ele>1144.3</ele>
      </trkpt>
      <trkpt lat="46.47921" lon="6.18241">
        <ele>1145.8</ele>
      </trkpt>
      <trkpt lat="46.47955" lon="6.18252">
        <ele>1145.8</ele>
      </trkpt>
      <trkpt lat="46.47995" lon="6.18277">
        <ele>1147.8</ele>
      </trkpt>
      <trkpt lat="46.48034" lon="6.18302">
        <ele>1149.8</ele>
      </trkpt>
      <trkpt lat="46.48056" lon="6.18308">
        <ele>1151.1</ele>
      </trkpt>
      <trkpt lat="46.48096" lon="6.18315">
        <ele>1152.1</ele>
      </trkpt>
      <trkpt lat="46.48124" lon="6.18335">
        <ele>1149.2</ele>
      </trkpt>
      <trkpt lat="46.48141" lon="6.18362">
        <ele>1149.8</ele>
      </trkpt>
      <trkpt lat="46.48151" lon="6.18375">
        <ele>1149.9</ele>
      </trkpt>
      <trkpt lat="46.4816" lon="6.18385">
        <ele>1149.9</ele>
      </trkpt>
      <trkpt lat="46.48167" lon="6.18391">
        <ele>1149.7</ele>
      </trkpt>
      <trkpt lat="46.48172" lon="6.18394">
        <ele>1149.8</ele>
      </trkpt>
      <trkpt lat="46.48179" lon="6.18396">
        <ele>1149.8</ele>
      </trkpt>
      <trkpt lat="46.48186" lon="6.18398">
        <ele>1149.7</ele>
      </trkpt>
      <trkpt lat="46.48193" lon="6.18398">
        <ele>1149.6</ele>
      </trkpt>
      <trkpt lat="46.48202" lon="6.18397">
        <ele>1149.4</ele>
      </trkpt>
      <trkpt lat="46.4821" lon="6.18395">
        <ele>1149.2</ele>
      </trkpt>
      <trkpt lat="46.48216" lon="6.18391">
        <ele>1149.2</ele>
      </trkpt>
      <trkpt lat="46.48222" lon="6.18385">
        <ele>1149.4</ele>
      </trkpt>
      <trkpt lat="46.4823" lon="6.18374">
        <ele>1149.8</ele>
      </trkpt>
      <trkpt lat="46.48237" lon="6.18364">
        <ele>1150.5</ele>
      </trkpt>
      <trkpt lat="46.48244" lon="6.18358">
        <ele>1151</ele>
      </trkpt>
      <trkpt lat="46.48254" lon="6.18354">
        <ele>1151.7</ele>
      </trkpt>
      <trkpt lat="46.48263" lon="6.18353">
        <ele>1152.3</ele>
      </trkpt>
      <trkpt lat="46.48271" lon="6.18352">
        <ele>1152.8</ele>
      </trkpt>
      <trkpt lat="46.48276" lon="6.18353">
        <ele>1153</ele>
      </trkpt>
      <trkpt lat="46.48282" lon="6.18355">
        <ele>1153.1</ele>
      </trkpt>
      <trkpt lat="46.483" lon="6.18363">
        <ele>1153.1</ele>
      </trkpt>
      <trkpt lat="46.48314" lon="6.18373">
        <ele>1152.6</ele>
      </trkpt>
      <trkpt lat="46.48335" lon="6.18387">
        <ele>1151.2</ele>
      </trkpt>
      <trkpt lat="46.48354" lon="6.18402">
        <ele>1149.5</ele>
      </trkpt>
      <trkpt lat="46.48362" lon="6.18409">
        <ele>1149</ele>
      </trkpt>
      <trkpt lat="46.48367" lon="6.18417">
        <ele>1148.6</ele>
      </trkpt>
      <trkpt lat="46.48371" lon="6.18424">
        <ele>1148.8</ele>
      </trkpt>
      <trkpt lat="46.48373" lon="6.18432">
        <ele>1149</ele>
      </trkpt>
      <trkpt lat="46.48376" lon="6.18444">
        <ele>1149.2</ele>
      </trkpt>
      <trkpt lat="46.48381" lon="6.18471">
        <ele>1149.7</ele>
      </trkpt>
      <trkpt lat="46.48382" lon="6.18483">
        <ele>1149.8</ele>
      </trkpt>
      <trkpt lat="46.48383" lon="6.18494">
        <ele>1149.9</ele>
      </trkpt>
      <trkpt lat="46.48379" lon="6.18529">
        <ele>1151.7</ele>
      </trkpt>
      <trkpt lat="46.48386" lon="6.18526">
        <ele>1151.7</ele>
      </trkpt>
      <trkpt lat="46.48395" lon="6.18525">
        <ele>1151.9</ele>
      </trkpt>
      <trkpt lat="46.48402" lon="6.18526">
        <ele>1152.2</ele>
      </trkpt>
      <trkpt lat="46.48409" lon="6.18528">
        <ele>1152.5</ele>
      </trkpt>
      <trkpt lat="46.48418" lon="6.18534">
        <ele>1152.8</ele>
      </trkpt>
      <trkpt lat="46.48433" lon="6.18547">
        <ele>1153.1</ele>
      </trkpt>
      <trkpt lat="46.48439" lon="6.18554">
        <ele>1153.2</ele>
      </trkpt>
      <trkpt lat="46.48447" lon="6.18563">
        <ele>1153.3</ele>
      </trkpt>
      <trkpt lat="46.48454" lon="6.18573">
        <ele>1153.4</ele>
      </trkpt>
      <trkpt lat="46.48463" lon="6.18585">
        <ele>1153.5</ele>
      </trkpt>
      <trkpt lat="46.48469" lon="6.18591">
        <ele>1153.6</ele>
      </trkpt>
      <trkpt lat="46.48474" lon="6.18595">
        <ele>1153.5</ele>
      </trkpt>
      <trkpt lat="46.48483" lon="6.186">
        <ele>1153.3</ele>
      </trkpt>
      <trkpt lat="46.48492" lon="6.18605">
        <ele>1153</ele>
      </trkpt>
      <trkpt lat="46.48496" lon="6.18608">
        <ele>1152.8</ele>
      </trkpt>
      <trkpt lat="46.48501" lon="6.18614">
        <ele>1152.7</ele>
      </trkpt>
      <trkpt lat="46.48505" lon="6.18619">
        <ele>1152.7</ele>
      </trkpt>
      <trkpt lat="46.48525" lon="6.18643">
        <ele>1153</ele>
      </trkpt>
      <trkpt lat="46.48549" lon="6.18657">
        <ele>1153.3</ele>
      </trkpt>
      <trkpt lat="46.48566" lon="6.18669">
        <ele>1153.8</ele>
      </trkpt>
      <trkpt lat="46.48593" lon="6.18686">
        <ele>1154.9</ele>
      </trkpt>
      <trkpt lat="46.48604" lon="6.18696">
        <ele>1155</ele>
      </trkpt>
      <trkpt lat="46.48631" lon="6.18723">
        <ele>1155.4</ele>
      </trkpt>
      <trkpt lat="46.48651" lon="6.1875">
        <ele>1156</ele>
      </trkpt>
      <trkpt lat="46.4869" lon="6.18769">
        <ele>1156.5</ele>
      </trkpt>
      <trkpt lat="46.48692" lon="6.1879">
        <ele>1158.6</ele>
      </trkpt>
      <trkpt lat="46.48691" lon="6.18811">
        <ele>1160.7</ele>
      </trkpt>
      <trkpt lat="46.48689" lon="6.1882">
        <ele>1161.8</ele>
      </trkpt>
      <trkpt lat="46.48678" lon="6.18839">
        <ele>1163.9</ele>
      </trkpt>
      <trkpt lat="46.48667" lon="6.18855">
        <ele>1165</ele>
      </trkpt>
      <trkpt lat="46.48662" lon="6.18866">
        <ele>1166</ele>
      </trkpt>
      <trkpt lat="46.48662" lon="6.18888">
        <ele>1167.1</ele>
      </trkpt>
      <trkpt lat="46.48667" lon="6.18915">
        <ele>1167.9</ele>
      </trkpt>
      <trkpt lat="46.48682" lon="6.18939">
        <ele>1168.5</ele>
      </trkpt>
      <trkpt lat="46.48704" lon="6.18948">
        <ele>1169.4</ele>
      </trkpt>
      <trkpt lat="46.48753" lon="6.18968">
        <ele>1171.9</ele>
      </trkpt>
      <trkpt lat="46.4878" lon="6.18997">
        <ele>1173.9</ele>
      </trkpt>
      <trkpt lat="46.48804" lon="6.19028">
        <ele>1178.3</ele>
      </trkpt>
      <trkpt lat="46.48825" lon="6.19076">
        <ele>1184.1</ele>
      </trkpt>
      <trkpt lat="46.48843" lon="6.19103">
        <ele>1188.4</ele>
      </trkpt>
      <trkpt lat="46.4885" lon="6.1911">
        <ele>1189.9</ele>
      </trkpt>
      <trkpt lat="46.48854" lon="6.19123">
        <ele>1191.8</ele>
      </trkpt>
      <trkpt lat="46.48874" lon="6.19131">
        <ele>1194.3</ele>
      </trkpt>
      <trkpt lat="46.48887" lon="6.19142">
        <ele>1196.5</ele>
      </trkpt>
      <trkpt lat="46.48893" lon="6.19162">
        <ele>1199.1</ele>
      </trkpt>
      <trkpt lat="46.48898" lon="6.19189">
        <ele>1201.4</ele>
      </trkpt>
      <trkpt lat="46.48909" lon="6.19215">
        <ele>1203.5</ele>
      </trkpt>
      <trkpt lat="46.4892" lon="6.19259">
        <ele>1206.3</ele>
      </trkpt>
      <trkpt lat="46.48933" lon="6.19256">
        <ele>1208.5</ele>
      </trkpt>
      <trkpt lat="46.48941" lon="6.19267">
        <ele>1209.8</ele>
      </trkpt>
      <trkpt lat="46.48945" lon="6.19271">
        <ele>1210.6</ele>
      </trkpt>
      <trkpt lat="46.4896" lon="6.19273">
        <ele>1213.3</ele>
      </trkpt>
      <trkpt lat="46.48975" lon="6.1928">
        <ele>1216.4</ele>
      </trkpt>
      <trkpt lat="46.48998" lon="6.19302">
        <ele>1222.2</ele>
      </trkpt>
      <trkpt lat="46.4901" lon="6.19308">
        <ele>1226.7</ele>
      </trkpt>
      <trkpt lat="46.49023" lon="6.19308">
        <ele>1231.3</ele>
      </trkpt>
      <trkpt lat="46.49031" lon="6.19311">
        <ele>1234.4</ele>
      </trkpt>
      <trkpt lat="46.49035" lon="6.19318">
        <ele>1236.7</ele>
      </trkpt>
      <trkpt lat="46.49038" lon="6.19339">
        <ele>1240.4</ele>
      </trkpt>
      <trkpt lat="46.49038" lon="6.19372">
        <ele>1245</ele>
      </trkpt>
      <trkpt lat="46.49042" lon="6.19399">
        <ele>1250</ele>
      </trkpt>
      <trkpt lat="46.49048" lon="6.19416">
        <ele>1255</ele>
      </trkpt>
      <trkpt lat="46.49056" lon="6.1943">
        <ele>1259.2</ele>
      </trkpt>
      <trkpt lat="46.49106" lon="6.19501">
        <ele>1279.8</ele>
      </trkpt>
      <trkpt lat="46.49113" lon="6.1952">
        <ele>1282.5</ele>
      </trkpt>
      <trkpt lat="46.49114" lon="6.1953">
        <ele>1283</ele>
      </trkpt>
      <trkpt lat="46.49107" lon="6.19559">
        <ele>1281.7</ele>
      </trkpt>
      <trkpt lat="46.49107" lon="6.19575">
        <ele>1282.2</ele>
      </trkpt>
      <trkpt lat="46.49108" lon="6.19582">
        <ele>1282.7</ele>
      </trkpt>
      <trkpt lat="46.49115" lon="6.19625">
        <ele>1285.2</ele>
      </trkpt>
      <trkpt lat="46.49118" lon="6.19638">
        <ele>1286.4</ele>
      </trkpt>
      <trkpt lat="46.49129" lon="6.19669">
        <ele>1291</ele>
      </trkpt>
      <trkpt lat="46.49143" lon="6.197">
        <ele>1296.9</ele>
      </trkpt>
      <trkpt lat="46.49154" lon="6.19732">
        <ele>1301.4</ele>
      </trkpt>
      <trkpt lat="46.4917" lon="6.19762">
        <ele>1306.2</ele>
      </trkpt>
      <trkpt lat="46.49178" lon="6.19775">
        <ele>1307.1</ele>
      </trkpt>
      <trkpt lat="46.49219" lon="6.19814">
        <ele>1316.4</ele>
      </trkpt>
      <trkpt lat="46.49229" lon="6.19818">
        <ele>1319.2</ele>
      </trkpt>
      <trkpt lat="46.49241" lon="6.19821">
        <ele>1323.4</ele>
      </trkpt>
      <trkpt lat="46.49276" lon="6.19816">
        <ele>1332.9</ele>
      </trkpt>
      <trkpt lat="46.4929" lon="6.19804">
        <ele>1337.5</ele>
      </trkpt>
      <trkpt lat="46.49318" lon="6.1977">
        <ele>1347.5</ele>
      </trkpt>
      <trkpt lat="46.49331" lon="6.19763">
        <ele>1351</ele>
      </trkpt>
      <trkpt lat="46.49351" lon="6.19758">
        <ele>1352.4</ele>
      </trkpt>
      <trkpt lat="46.49369" lon="6.1975">
        <ele>1353.4</ele>
      </trkpt>
      <trkpt lat="46.49392" lon="6.1975">
        <ele>1353.7</ele>
      </trkpt>
      <trkpt lat="46.49406" lon="6.19753">
        <ele>1353.8</ele>
      </trkpt>
      <trkpt lat="46.49451" lon="6.19777">
        <ele>1357.4</ele>
      </trkpt>
      <trkpt lat="46.49463" lon="6.19787">
        <ele>1358.5</ele>
      </trkpt>
      <trkpt lat="46.49475" lon="6.19793">
        <ele>1359.6</ele>
      </trkpt>
      <trkpt lat="46.49489" lon="6.19797">
        <ele>1361.1</ele>
      </trkpt>
      <trkpt lat="46.49503" lon="6.19804">
        <ele>1362</ele>
      </trkpt>
      <trkpt lat="46.49537" lon="6.19835">
        <ele>1360.1</ele>
      </trkpt>
      <trkpt lat="46.49557" lon="6.19857">
        <ele>1360.2</ele>
      </trkpt>
      <trkpt lat="46.49565" lon="6.19865">
        <ele>1360.3</ele>
      </trkpt>
      <trkpt lat="46.49615" lon="6.19889">
        <ele>1362.5</ele>
      </trkpt>
      <trkpt lat="46.49671" lon="6.19927">
        <ele>1364.4</ele>
      </trkpt>
      <trkpt lat="46.49752" lon="6.19956">
        <ele>1366.6</ele>
      </trkpt>
      <trkpt lat="46.49779" lon="6.1997">
        <ele>1370.2</ele>
      </trkpt>
      <trkpt lat="46.4983" lon="6.2001">
        <ele>1375.2</ele>
      </trkpt>
      <trkpt lat="46.49849" lon="6.2003">
        <ele>1378.8</ele>
      </trkpt>
      <trkpt lat="46.49867" lon="6.20053">
        <ele>1381.4</ele>
      </trkpt>
      <trkpt lat="46.49907" lon="6.20098">
        <ele>1385.8</ele>
      </trkpt>
      <trkpt lat="46.49953" lon="6.20155">
        <ele>1391.3</ele>
      </trkpt>
      <trkpt lat="46.49976" lon="6.20176">
        <ele>1390.6</ele>
      </trkpt>
      <trkpt lat="46.50015" lon="6.20203">
        <ele>1391.6</ele>
      </trkpt>
      <trkpt lat="46.50048" lon="6.20234">
        <ele>1391.3</ele>
      </trkpt>
      <trkpt lat="46.50078" lon="6.20293">
        <ele>1386.5</ele>
      </trkpt>
      <trkpt lat="46.50096" lon="6.20318">
        <ele>1384.9</ele>
      </trkpt>
      <trkpt lat="46.50104" lon="6.20324">
        <ele>1384.5</ele>
      </trkpt>
      <trkpt lat="46.50115" lon="6.20328">
        <ele>1384.1</ele>
      </trkpt>
      <trkpt lat="46.50124" lon="6.20315">
        <ele>1385.4</ele>
      </trkpt>
      <trkpt lat="46.50132" lon="6.20305">
        <ele>1386.8</ele>
      </trkpt>
      <trkpt lat="46.50141" lon="6.20297">
        <ele>1388</ele>
      </trkpt>
      <trkpt lat="46.5015" lon="6.20292">
        <ele>1389.2</ele>
      </trkpt>
      <trkpt lat="46.50157" lon="6.2029">
        <ele>1389.8</ele>
      </trkpt>
      <trkpt lat="46.50167" lon="6.20289">
        <ele>1390.4</ele>
      </trkpt>
      <trkpt lat="46.50201" lon="6.20299">
        <ele>1385.8</ele>
      </trkpt>
      <trkpt lat="46.50212" lon="6.203">
        <ele>1384.8</ele>
      </trkpt>
      <trkpt lat="46.50223" lon="6.20295">
        <ele>1384.8</ele>
      </trkpt>
      <trkpt lat="46.50257" lon="6.20254">
        <ele>1388.3</ele>
      </trkpt>
      <trkpt lat="46.50283" lon="6.20237">
        <ele>1386.2</ele>
      </trkpt>
      <trkpt lat="46.50297" lon="6.20229">
        <ele>1384.5</ele>
      </trkpt>
      <trkpt lat="46.50303" lon="6.20228">
        <ele>1383.5</ele>
      </trkpt>
      <trkpt lat="46.50309" lon="6.2023">
        <ele>1382.4</ele>
      </trkpt>
      <trkpt lat="46.5032" lon="6.20236">
        <ele>1380.5</ele>
      </trkpt>
      <trkpt lat="46.50388" lon="6.20287">
        <ele>1373.7</ele>
      </trkpt>
      <trkpt lat="46.50411" lon="6.203">
        <ele>1373.1</ele>
      </trkpt>
      <trkpt lat="46.50419" lon="6.20303">
        <ele>1373.1</ele>
      </trkpt>
      <trkpt lat="46.5043" lon="6.20307">
        <ele>1373.4</ele>
      </trkpt>
      <trkpt lat="46.50442" lon="6.20307">
        <ele>1373.8</ele>
      </trkpt>
      <trkpt lat="46.50453" lon="6.20306">
        <ele>1374.2</ele>
      </trkpt>
      <trkpt lat="46.50464" lon="6.20303">
        <ele>1374.4</ele>
      </trkpt>
      <trkpt lat="46.50509" lon="6.20291">
        <ele>1374.9</ele>
      </trkpt>
      <trkpt lat="46.50541" lon="6.20283">
        <ele>1373.9</ele>
      </trkpt>
      <trkpt lat="46.50573" lon="6.20278">
        <ele>1372.9</ele>
      </trkpt>
      <trkpt lat="46.50603" lon="6.20274">
        <ele>1373.6</ele>
      </trkpt>
      <trkpt lat="46.5062" lon="6.20269">
        <ele>1374.4</ele>
      </trkpt>
      <trkpt lat="46.50629" lon="6.2028">
        <ele>1375.7</ele>
      </trkpt>
      <trkpt lat="46.50642" lon="6.20305">
        <ele>1377.9</ele>
      </trkpt>
      <trkpt lat="46.50676" lon="6.20359">
        <ele>1380</ele>
      </trkpt>
      <trkpt lat="46.50686" lon="6.20381">
        <ele>1380.2</ele>
      </trkpt>
      <trkpt lat="46.50691" lon="6.20389">
        <ele>1380.3</ele>
      </trkpt>
      <trkpt lat="46.50699" lon="6.20397">
        <ele>1380.6</ele>
      </trkpt>
      <trkpt lat="46.50709" lon="6.20404">
        <ele>1381</ele>
      </trkpt>
      <trkpt lat="46.50716" lon="6.2041">
        <ele>1381.4</ele>
      </trkpt>
      <trkpt lat="46.50721" lon="6.20416">
        <ele>1381.6</ele>
      </trkpt>
      <trkpt lat="46.5073" lon="6.2042">
        <ele>1382.1</ele>
      </trkpt>
      <trkpt lat="46.50758" lon="6.20433">
        <ele>1384</ele>
      </trkpt>
      <trkpt lat="46.50766" lon="6.20436">
        <ele>1384.4</ele>
      </trkpt>
      <trkpt lat="46.5077" lon="6.20436">
        <ele>1384.7</ele>
      </trkpt>
      <trkpt lat="46.50777" lon="6.20435">
        <ele>1384.9</ele>
      </trkpt>
      <trkpt lat="46.50787" lon="6.20434">
        <ele>1385.4</ele>
      </trkpt>
      <trkpt lat="46.50794" lon="6.20434">
        <ele>1385.7</ele>
      </trkpt>
      <trkpt lat="46.50804" lon="6.20437">
        <ele>1386.3</ele>
      </trkpt>
      <trkpt lat="46.50825" lon="6.20445">
        <ele>1387.6</ele>
      </trkpt>
      <trkpt lat="46.5083" lon="6.20449">
        <ele>1388</ele>
      </trkpt>
      <trkpt lat="46.50839" lon="6.20458">
        <ele>1388.5</ele>
      </trkpt>
      <trkpt lat="46.50843" lon="6.20462">
        <ele>1388.7</ele>
      </trkpt>
      <trkpt lat="46.50849" lon="6.20466">
        <ele>1388.8</ele>
      </trkpt>
      <trkpt lat="46.50858" lon="6.20468">
        <ele>1388.9</ele>
      </trkpt>
      <trkpt lat="46.50868" lon="6.20467">
        <ele>1389</ele>
      </trkpt>
      <trkpt lat="46.50883" lon="6.20465">
        <ele>1389</ele>
      </trkpt>
      <trkpt lat="46.50899" lon="6.20464">
        <ele>1389</ele>
      </trkpt>
      <trkpt lat="46.50914" lon="6.2046">
        <ele>1389</ele>
      </trkpt>
      <trkpt lat="46.50941" lon="6.20458">
        <ele>1389.4</ele>
      </trkpt>
      <trkpt lat="46.50949" lon="6.20455">
        <ele>1389.5</ele>
      </trkpt>
      <trkpt lat="46.50961" lon="6.2045">
        <ele>1389.7</ele>
      </trkpt>
      <trkpt lat="46.50969" lon="6.2045">
        <ele>1389.8</ele>
      </trkpt>
      <trkpt lat="46.50985" lon="6.20455">
        <ele>1390.2</ele>
      </trkpt>
      <trkpt lat="46.50996" lon="6.20492">
        <ele>1390.9</ele>
      </trkpt>
      <trkpt lat="46.5104" lon="6.20531">
        <ele>1389.1</ele>
      </trkpt>
      <trkpt lat="46.51109" lon="6.20808">
        <ele>1411.9</ele>
      </trkpt>
      <trkpt lat="46.51114" lon="6.20898">
        <ele>1408.4</ele>
      </trkpt>
      <trkpt lat="46.51473" lon="6.21147">
        <ele>1424.1</ele>
      </trkpt>
      <trkpt lat="46.51529" lon="6.2128">
        <ele>1431.9</ele>
      </trkpt>
      <trkpt lat="46.51551" lon="6.21305">
        <ele>1433.1</ele>
      </trkpt>
      <trkpt lat="46.5174" lon="6.21384">
        <ele>1431.3</ele>
      </trkpt>
      <trkpt lat="46.51796" lon="6.21423">
        <ele>1433.4</ele>
      </trkpt>
      <trkpt lat="46.51809" lon="6.21443">
        <ele>1434.6</ele>
      </trkpt>
      <trkpt lat="46.51827" lon="6.21456">
        <ele>1436</ele>
      </trkpt>
      <trkpt lat="46.51888" lon="6.21533">
        <ele>1445</ele>
      </trkpt>
      <trkpt lat="46.51931" lon="6.21625">
        <ele>1455</ele>
      </trkpt>
      <trkpt lat="46.51983" lon="6.21712">
        <ele>1466.1</ele>
      </trkpt>
      <trkpt lat="46.51992" lon="6.21745">
        <ele>1470</ele>
      </trkpt>
      <trkpt lat="46.51997" lon="6.21788">
        <ele>1474.4</ele>
      </trkpt>
      <trkpt lat="46.51997" lon="6.2186">
        <ele>1480.4</ele>
      </trkpt>
      <trkpt lat="46.52008" lon="6.21885">
        <ele>1482.2</ele>
      </trkpt>
      <trkpt lat="46.5203" lon="6.21908">
        <ele>1483.6</ele>
      </trkpt>
      <trkpt lat="46.5211" lon="6.21942">
        <ele>1482.2</ele>
      </trkpt>
      <trkpt lat="46.52173" lon="6.21996">
        <ele>1481.2</ele>
      </trkpt>
      <trkpt lat="46.52199" lon="6.22019">
        <ele>1480.8</ele>
      </trkpt>
      <trkpt lat="46.5231" lon="6.22159">
        <ele>1485.1</ele>
      </trkpt>
      <trkpt lat="46.52347" lon="6.22189">
        <ele>1484.7</ele>
      </trkpt>
      <trkpt lat="46.52384" lon="6.22192">
        <ele>1483.4</ele>
      </trkpt>
      <trkpt lat="46.52394" lon="6.22188">
        <ele>1483.6</ele>
      </trkpt>
      <trkpt lat="46.52413" lon="6.22163">
        <ele>1485.1</ele>
      </trkpt>
      <trkpt lat="46.52479" lon="6.2205">
        <ele>1473</ele>
      </trkpt>
      <trkpt lat="46.52519" lon="6.21938">
        <ele>1461.3</ele>
      </trkpt>
      <trkpt lat="46.52526" lon="6.21922">
        <ele>1459.5</ele>
      </trkpt>
      <trkpt lat="46.52524" lon="6.21914">
        <ele>1459.1</ele>
      </trkpt>
      <trkpt lat="46.52524" lon="6.21907">
        <ele>1458.8</ele>
      </trkpt>
      <trkpt lat="46.52524" lon="6.21901">
        <ele>1458.4</ele>
      </trkpt>
      <trkpt lat="46.52526" lon="6.21895">
        <ele>1457.9</ele>
      </trkpt>
      <trkpt lat="46.52532" lon="6.21881">
        <ele>1456.6</ele>
      </trkpt>
      <trkpt lat="46.52538" lon="6.2187">
        <ele>1455.5</ele>
      </trkpt>
      <trkpt lat="46.52541" lon="6.21862">
        <ele>1454.8</ele>
      </trkpt>
      <trkpt lat="46.52542" lon="6.21854">
        <ele>1454.2</ele>
      </trkpt>
      <trkpt lat="46.52543" lon="6.21844">
        <ele>1453.6</ele>
      </trkpt>
      <trkpt lat="46.52542" lon="6.21828">
        <ele>1452.7</ele>
      </trkpt>
      <trkpt lat="46.52543" lon="6.21815">
        <ele>1451.9</ele>
      </trkpt>
      <trkpt lat="46.52542" lon="6.21805">
        <ele>1451.4</ele>
      </trkpt>
      <trkpt lat="46.52541" lon="6.21797">
        <ele>1451.1</ele>
      </trkpt>
      <trkpt lat="46.52541" lon="6.2179">
        <ele>1450.8</ele>
      </trkpt>
      <trkpt lat="46.5254" lon="6.21782">
        <ele>1450.4</ele>
      </trkpt>
      <trkpt lat="46.5254" lon="6.21776">
        <ele>1450.1</ele>
      </trkpt>
      <trkpt lat="46.52542" lon="6.21771">
        <ele>1449.6</ele>
      </trkpt>
      <trkpt lat="46.52546" lon="6.21767">
        <ele>1449</ele>
      </trkpt>
      <trkpt lat="46.52552" lon="6.21763">
        <ele>1448.1</ele>
      </trkpt>
      <trkpt lat="46.52557" lon="6.21761">
        <ele>1447.4</ele>
      </trkpt>
      <trkpt lat="46.52563" lon="6.21767">
        <ele>1447.1</ele>
      </trkpt>
      <trkpt lat="46.52571" lon="6.21772">
        <ele>1446.6</ele>
      </trkpt>
      <trkpt lat="46.52579" lon="6.21777">
        <ele>1446.1</ele>
      </trkpt>
      <trkpt lat="46.52784" lon="6.21902">
        <ele>1426.9</ele>
      </trkpt>
      <trkpt lat="46.53093" lon="6.22209">
        <ele>1401.5</ele>
      </trkpt>
      <trkpt lat="46.53162" lon="6.22284">
        <ele>1394.8</ele>
      </trkpt>
      <trkpt lat="46.53227" lon="6.22323">
        <ele>1379.9</ele>
      </trkpt>
      <trkpt lat="46.53295" lon="6.22384">
        <ele>1365.7</ele>
      </trkpt>
      <trkpt lat="46.53327" lon="6.22434">
        <ele>1360</ele>
      </trkpt>
      <trkpt lat="46.53377" lon="6.22499">
        <ele>1358.1</ele>
      </trkpt>
      <trkpt lat="46.53391" lon="6.22533">
        <ele>1362.1</ele>
      </trkpt>
      <trkpt lat="46.53416" lon="6.22596">
        <ele>1368.7</ele>
      </trkpt>
      <trkpt lat="46.53492" lon="6.22698">
        <ele>1378.3</ele>
      </trkpt>
      <trkpt lat="46.53613" lon="6.22865">
        <ele>1393.8</ele>
      </trkpt>
      <trkpt lat="46.53634" lon="6.22875">
        <ele>1393.2</ele>
      </trkpt>
      <trkpt lat="46.53662" lon="6.22893">
        <ele>1392.8</ele>
      </trkpt>
      <trkpt lat="46.53705" lon="6.22929">
        <ele>1389.3</ele>
      </trkpt>
      <trkpt lat="46.53769" lon="6.22978">
        <ele>1382.9</ele>
      </trkpt>
      <trkpt lat="46.53803" lon="6.23005">
        <ele>1383.5</ele>
      </trkpt>
      <trkpt lat="46.53838" lon="6.23045">
        <ele>1385.4</ele>
      </trkpt>
      <trkpt lat="46.53879" lon="6.23091">
        <ele>1387.6</ele>
      </trkpt>
      <trkpt lat="46.53912" lon="6.23128">
        <ele>1387.2</ele>
      </trkpt>
      <trkpt lat="46.53945" lon="6.23168">
        <ele>1387.7</ele>
      </trkpt>
      <trkpt lat="46.53959" lon="6.23182">
        <ele>1387.5</ele>
      </trkpt>
      <trkpt lat="46.53973" lon="6.2319">
        <ele>1386.9</ele>
      </trkpt>
      <trkpt lat="46.53999" lon="6.23203">
        <ele>1385.1</ele>
      </trkpt>
      <trkpt lat="46.54005" lon="6.23208">
        <ele>1384.5</ele>
      </trkpt>
      <trkpt lat="46.54012" lon="6.23213">
        <ele>1383.8</ele>
      </trkpt>
      <trkpt lat="46.54018" lon="6.23219">
        <ele>1383.4</ele>
      </trkpt>
      <trkpt lat="46.54022" lon="6.23224">
        <ele>1383.2</ele>
      </trkpt>
      <trkpt lat="46.54027" lon="6.23231">
        <ele>1383.1</ele>
      </trkpt>
      <trkpt lat="46.54034" lon="6.23246">
        <ele>1383.2</ele>
      </trkpt>
      <trkpt lat="46.54045" lon="6.23267">
        <ele>1385.1</ele>
      </trkpt>
      <trkpt lat="46.54051" lon="6.23278">
        <ele>1385.9</ele>
      </trkpt>
      <trkpt lat="46.54053" lon="6.23283">
        <ele>1386.4</ele>
      </trkpt>
      <trkpt lat="46.54069" lon="6.233">
        <ele>1386.7</ele>
      </trkpt>
      <trkpt lat="46.54101" lon="6.23341">
        <ele>1390</ele>
      </trkpt>
      <trkpt lat="46.54118" lon="6.23356">
        <ele>1393</ele>
      </trkpt>
      <trkpt lat="46.54144" lon="6.23372">
        <ele>1395.4</ele>
      </trkpt>
      <trkpt lat="46.54171" lon="6.23383">
        <ele>1395.4</ele>
      </trkpt>
      <trkpt lat="46.54235" lon="6.23438">
        <ele>1393.4</ele>
      </trkpt>
      <trkpt lat="46.54269" lon="6.23471">
        <ele>1395</ele>
      </trkpt>
      <trkpt lat="46.54325" lon="6.2353">
        <ele>1401.5</ele>
      </trkpt>
      <trkpt lat="46.5436" lon="6.2357">
        <ele>1406.1</ele>
      </trkpt>
      <trkpt lat="46.54391" lon="6.23605">
        <ele>1410.2</ele>
      </trkpt>
      <trkpt lat="46.54415" lon="6.2363">
        <ele>1413.1</ele>
      </trkpt>
      <trkpt lat="46.5443" lon="6.23646">
        <ele>1414.3</ele>
      </trkpt>
      <trkpt lat="46.54453" lon="6.23671">
        <ele>1415.9</ele>
      </trkpt>
      <trkpt lat="46.54475" lon="6.23697">
        <ele>1417.2</ele>
      </trkpt>
      <trkpt lat="46.54489" lon="6.23723">
        <ele>1419</ele>
      </trkpt>
      <trkpt lat="46.54515" lon="6.23745">
        <ele>1417.2</ele>
      </trkpt>
      <trkpt lat="46.54539" lon="6.23771">
        <ele>1418.1</ele>
      </trkpt>
      <trkpt lat="46.54561" lon="6.23799">
        <ele>1419.5</ele>
      </trkpt>
      <trkpt lat="46.54578" lon="6.23819">
        <ele>1420.1</ele>
      </trkpt>
      <trkpt lat="46.54587" lon="6.23832">
        <ele>1421.3</ele>
      </trkpt>
      <trkpt lat="46.54617" lon="6.23875">
        <ele>1425</ele>
      </trkpt>
      <trkpt lat="46.54631" lon="6.23894">
        <ele>1426.5</ele>
      </trkpt>
      <trkpt lat="46.54654" lon="6.23919">
        <ele>1426.6</ele>
      </trkpt>
      <trkpt lat="46.54676" lon="6.23941">
        <ele>1423.9</ele>
      </trkpt>
      <trkpt lat="46.54686" lon="6.23952">
        <ele>1422.4</ele>
      </trkpt>
      <trkpt lat="46.54708" lon="6.23963">
        <ele>1417.5</ele>
      </trkpt>
      <trkpt lat="46.54727" lon="6.23969">
        <ele>1413.2</ele>
      </trkpt>
      <trkpt lat="46.54738" lon="6.23979">
        <ele>1411.7</ele>
      </trkpt>
      <trkpt lat="46.54765" lon="6.24008">
        <ele>1409.9</ele>
      </trkpt>
      <trkpt lat="46.54772" lon="6.2402">
        <ele>1410.7</ele>
      </trkpt>
      <trkpt lat="46.54778" lon="6.24035">
        <ele>1412.1</ele>
      </trkpt>
      <trkpt lat="46.54788" lon="6.24055">
        <ele>1413.5</ele>
      </trkpt>
      <trkpt lat="46.54805" lon="6.24077">
        <ele>1414.1</ele>
      </trkpt>
      <trkpt lat="46.54823" lon="6.24105">
        <ele>1416.1</ele>
      </trkpt>
      <trkpt lat="46.54852" lon="6.24136">
        <ele>1417.3</ele>
      </trkpt>
      <trkpt lat="46.54867" lon="6.24157">
        <ele>1418.9</ele>
      </trkpt>
      <trkpt lat="46.54887" lon="6.24192">
        <ele>1421.8</ele>
      </trkpt>
      <trkpt lat="46.54908" lon="6.24228">
        <ele>1424.3</ele>
      </trkpt>
      <trkpt lat="46.54951" lon="6.24301">
        <ele>1426.5</ele>
      </trkpt>
      <trkpt lat="46.54981" lon="6.24337">
        <ele>1423.7</ele>
      </trkpt>
      <trkpt lat="46.55" lon="6.24364">
        <ele>1421.1</ele>
      </trkpt>
      <trkpt lat="46.55013" lon="6.24383">
        <ele>1421</ele>
      </trkpt>
      <trkpt lat="46.55018" lon="6.24391">
        <ele>1421.2</ele>
      </trkpt>
      <trkpt lat="46.55018" lon="6.24402">
        <ele>1422.9</ele>
      </trkpt>
      <trkpt lat="46.55015" lon="6.24412">
        <ele>1424.8</ele>
      </trkpt>
      <trkpt lat="46.54998" lon="6.24424">
        <ele>1430</ele>
      </trkpt>
      <trkpt lat="46.54989" lon="6.2444">
        <ele>1435.4</ele>
      </trkpt>
      <trkpt lat="46.54988" lon="6.24456">
        <ele>1438.3</ele>
      </trkpt>
      <trkpt lat="46.54987" lon="6.24471">
        <ele>1441.1</ele>
      </trkpt>
      <trkpt lat="46.54975" lon="6.24487">
        <ele>1445.8</ele>
      </trkpt>
      <trkpt lat="46.54966" lon="6.24491">
        <ele>1447.8</ele>
      </trkpt>
      <trkpt lat="46.54959" lon="6.24496">
        <ele>1449.5</ele>
      </trkpt>
      <trkpt lat="46.54955" lon="6.24499">
        <ele>1450.4</ele>
      </trkpt>
      <trkpt lat="46.54954" lon="6.24506">
        <ele>1451</ele>
      </trkpt>
      <trkpt lat="46.54963" lon="6.24537">
        <ele>1452.1</ele>
      </trkpt>
      <trkpt lat="46.5498" lon="6.24577">
        <ele>1454.6</ele>
      </trkpt>
      <trkpt lat="46.55002" lon="6.24607">
        <ele>1457.6</ele>
      </trkpt>
      <trkpt lat="46.55017" lon="6.24621">
        <ele>1457.4</ele>
      </trkpt>
      <trkpt lat="46.55047" lon="6.24678">
        <ele>1461.4</ele>
      </trkpt>
      <trkpt lat="46.55085" lon="6.24716">
        <ele>1462.2</ele>
      </trkpt>
      <trkpt lat="46.55094" lon="6.24738">
        <ele>1463</ele>
      </trkpt>
      <trkpt lat="46.55128" lon="6.24784">
        <ele>1460.8</ele>
      </trkpt>
      <trkpt lat="46.55134" lon="6.24787">
        <ele>1459.8</ele>
      </trkpt>
      <trkpt lat="46.55188" lon="6.24859">
        <ele>1455.2</ele>
      </trkpt>
      <trkpt lat="46.55196" lon="6.24875">
        <ele>1454.5</ele>
      </trkpt>
      <trkpt lat="46.55201" lon="6.24902">
        <ele>1455.5</ele>
      </trkpt>
      <trkpt lat="46.55222" lon="6.24949">
        <ele>1451.6</ele>
      </trkpt>
      <trkpt lat="46.55223" lon="6.24972">
        <ele>1451.2</ele>
      </trkpt>
      <trkpt lat="46.55239" lon="6.25001">
        <ele>1449.8</ele>
      </trkpt>
      <trkpt lat="46.55247" lon="6.2501">
        <ele>1449</ele>
      </trkpt>
      <trkpt lat="46.55263" lon="6.2504">
        <ele>1448.9</ele>
      </trkpt>
      <trkpt lat="46.55277" lon="6.2506">
        <ele>1449.7</ele>
      </trkpt>
      <trkpt lat="46.55289" lon="6.25077">
        <ele>1451</ele>
      </trkpt>
      <trkpt lat="46.55304" lon="6.25101">
        <ele>1452.3</ele>
      </trkpt>
      <trkpt lat="46.55319" lon="6.25123">
        <ele>1453.5</ele>
      </trkpt>
      <trkpt lat="46.55324" lon="6.25132">
        <ele>1454</ele>
      </trkpt>
      <trkpt lat="46.55328" lon="6.25141">
        <ele>1454.5</ele>
      </trkpt>
      <trkpt lat="46.5534" lon="6.25163">
        <ele>1454.7</ele>
      </trkpt>
      <trkpt lat="46.55345" lon="6.25171">
        <ele>1454.2</ele>
      </trkpt>
      <trkpt lat="46.55361" lon="6.25184">
        <ele>1453.1</ele>
      </trkpt>
      <trkpt lat="46.55375" lon="6.25198">
        <ele>1452.3</ele>
      </trkpt>
      <trkpt lat="46.55387" lon="6.25211">
        <ele>1451.7</ele>
      </trkpt>
      <trkpt lat="46.554" lon="6.25227">
        <ele>1451.2</ele>
      </trkpt>
      <trkpt lat="46.55413" lon="6.25247">
        <ele>1451</ele>
      </trkpt>
      <trkpt lat="46.55427" lon="6.25268">
        <ele>1449.9</ele>
      </trkpt>
      <trkpt lat="46.55431" lon="6.25272">
        <ele>1449.6</ele>
      </trkpt>
      <trkpt lat="46.55436" lon="6.25274">
        <ele>1449.4</ele>
      </trkpt>
      <trkpt lat="46.55441" lon="6.25279">
        <ele>1449.2</ele>
      </trkpt>
      <trkpt lat="46.55453" lon="6.25292">
        <ele>1449.1</ele>
      </trkpt>
      <trkpt lat="46.55467" lon="6.25306">
        <ele>1449.7</ele>
      </trkpt>
      <trkpt lat="46.55482" lon="6.25327">
        <ele>1451.6</ele>
      </trkpt>
      <trkpt lat="46.55505" lon="6.2536">
        <ele>1454.6</ele>
      </trkpt>
      <trkpt lat="46.55512" lon="6.25372">
        <ele>1455.5</ele>
      </trkpt>
      <trkpt lat="46.55515" lon="6.25379">
        <ele>1456.2</ele>
      </trkpt>
      <trkpt lat="46.55562" lon="6.25439">
        <ele>1462.2</ele>
      </trkpt>
      <trkpt lat="46.55589" lon="6.25477">
        <ele>1463.8</ele>
      </trkpt>
      <trkpt lat="46.55618" lon="6.25514">
        <ele>1463.4</ele>
      </trkpt>
      <trkpt lat="46.55629" lon="6.25528">
        <ele>1463.1</ele>
      </trkpt>
      <trkpt lat="46.5565" lon="6.25542">
        <ele>1463.7</ele>
      </trkpt>
      <trkpt lat="46.55661" lon="6.25554">
        <ele>1464.3</ele>
      </trkpt>
      <trkpt lat="46.5567" lon="6.25568">
        <ele>1464.8</ele>
      </trkpt>
      <trkpt lat="46.55679" lon="6.25582">
        <ele>1465.4</ele>
      </trkpt>
      <trkpt lat="46.55684" lon="6.25588">
        <ele>1465.8</ele>
      </trkpt>
      <trkpt lat="46.55689" lon="6.25595">
        <ele>1466.3</ele>
      </trkpt>
      <trkpt lat="46.55697" lon="6.256">
        <ele>1466.9</ele>
      </trkpt>
      <trkpt lat="46.55705" lon="6.25615">
        <ele>1468.3</ele>
      </trkpt>
      <trkpt lat="46.55719" lon="6.25641">
        <ele>1471.5</ele>
      </trkpt>
      <trkpt lat="46.55724" lon="6.25653">
        <ele>1473</ele>
      </trkpt>
      <trkpt lat="46.55737" lon="6.25668">
        <ele>1476.2</ele>
      </trkpt>
      <trkpt lat="46.55741" lon="6.25677">
        <ele>1477.3</ele>
      </trkpt>
      <trkpt lat="46.55748" lon="6.25686">
        <ele>1478.6</ele>
      </trkpt>
      <trkpt lat="46.55758" lon="6.25697">
        <ele>1478.6</ele>
      </trkpt>
      <trkpt lat="46.55768" lon="6.2571">
        <ele>1478.4</ele>
      </trkpt>
      <trkpt lat="46.55776" lon="6.25716">
        <ele>1478</ele>
      </trkpt>
      <trkpt lat="46.55788" lon="6.25726">
        <ele>1477.8</ele>
      </trkpt>
      <trkpt lat="46.55799" lon="6.25739">
        <ele>1478.1</ele>
      </trkpt>
      <trkpt lat="46.55805" lon="6.25749">
        <ele>1478.5</ele>
      </trkpt>
      <trkpt lat="46.55814" lon="6.25763">
        <ele>1478</ele>
      </trkpt>
      <trkpt lat="46.55823" lon="6.25777">
        <ele>1477.3</ele>
      </trkpt>
      <trkpt lat="46.55849" lon="6.25805">
        <ele>1473.6</ele>
      </trkpt>
      <trkpt lat="46.55861" lon="6.25816">
        <ele>1471.7</ele>
      </trkpt>
      <trkpt lat="46.55869" lon="6.25824">
        <ele>1470.7</ele>
      </trkpt>
      <trkpt lat="46.55876" lon="6.25829">
        <ele>1469.8</ele>
      </trkpt>
      <trkpt lat="46.55886" lon="6.25833">
        <ele>1468.4</ele>
      </trkpt>
      <trkpt lat="46.55891" lon="6.25839">
        <ele>1467.6</ele>
      </trkpt>
      <trkpt lat="46.55898" lon="6.25846">
        <ele>1466.5</ele>
      </trkpt>
      <trkpt lat="46.55903" lon="6.2585">
        <ele>1465.7</ele>
      </trkpt>
      <trkpt lat="46.55907" lon="6.25856">
        <ele>1465</ele>
      </trkpt>
      <trkpt lat="46.55918" lon="6.25867">
        <ele>1463.5</ele>
      </trkpt>
      <trkpt lat="46.55927" lon="6.25874">
        <ele>1462.9</ele>
      </trkpt>
      <trkpt lat="46.55939" lon="6.25887">
        <ele>1462.4</ele>
      </trkpt>
      <trkpt lat="46.55944" lon="6.25897">
        <ele>1462.5</ele>
      </trkpt>
      <trkpt lat="46.55946" lon="6.2591">
        <ele>1462.8</ele>
      </trkpt>
      <trkpt lat="46.55945" lon="6.25918">
        <ele>1463</ele>
      </trkpt>
      <trkpt lat="46.55934" lon="6.25939">
        <ele>1463.1</ele>
      </trkpt>
      <trkpt lat="46.5593" lon="6.25949">
        <ele>1463.1</ele>
      </trkpt>
      <trkpt lat="46.5593" lon="6.25958">
        <ele>1463.2</ele>
      </trkpt>
      <trkpt lat="46.55931" lon="6.25966">
        <ele>1463.2</ele>
      </trkpt>
      <trkpt lat="46.55936" lon="6.25979">
        <ele>1463.3</ele>
      </trkpt>
      <trkpt lat="46.55939" lon="6.2599">
        <ele>1463.5</ele>
      </trkpt>
      <trkpt lat="46.55952" lon="6.26008">
        <ele>1464.5</ele>
      </trkpt>
      <trkpt lat="46.55961" lon="6.26022">
        <ele>1465.6</ele>
      </trkpt>
      <trkpt lat="46.55967" lon="6.26032">
        <ele>1466.4</ele>
      </trkpt>
      <trkpt lat="46.55985" lon="6.26062">
        <ele>1468.6</ele>
      </trkpt>
      <trkpt lat="46.55997" lon="6.26079">
        <ele>1469.7</ele>
      </trkpt>
      <trkpt lat="46.5601" lon="6.26102">
        <ele>1471.5</ele>
      </trkpt>
      <trkpt lat="46.56022" lon="6.26119">
        <ele>1472.7</ele>
      </trkpt>
      <trkpt lat="46.56031" lon="6.26131">
        <ele>1473.5</ele>
      </trkpt>
      <trkpt lat="46.56045" lon="6.26153">
        <ele>1474.5</ele>
      </trkpt>
      <trkpt lat="46.56068" lon="6.26187">
        <ele>1476.3</ele>
      </trkpt>
      <trkpt lat="46.56093" lon="6.26226">
        <ele>1476.7</ele>
      </trkpt>
      <trkpt lat="46.56101" lon="6.26242">
        <ele>1476.3</ele>
      </trkpt>
      <trkpt lat="46.56109" lon="6.26254">
        <ele>1476</ele>
      </trkpt>
      <trkpt lat="46.56111" lon="6.26261">
        <ele>1476.2</ele>
      </trkpt>
      <trkpt lat="46.56112" lon="6.26273">
        <ele>1476.9</ele>
      </trkpt>
      <trkpt lat="46.56109" lon="6.26282">
        <ele>1477.9</ele>
      </trkpt>
      <trkpt lat="46.56109" lon="6.26289">
        <ele>1478.5</ele>
      </trkpt>
      <trkpt lat="46.56112" lon="6.26299">
        <ele>1478.8</ele>
      </trkpt>
      <trkpt lat="46.56116" lon="6.26304">
        <ele>1478.6</ele>
      </trkpt>
      <trkpt lat="46.56126" lon="6.26314">
        <ele>1478</ele>
      </trkpt>
      <trkpt lat="46.56138" lon="6.26326">
        <ele>1477.3</ele>
      </trkpt>
      <trkpt lat="46.56152" lon="6.26343">
        <ele>1477.1</ele>
      </trkpt>
      <trkpt lat="46.56169" lon="6.26363">
        <ele>1476.9</ele>
      </trkpt>
      <trkpt lat="46.56201" lon="6.26404">
        <ele>1473.8</ele>
      </trkpt>
      <trkpt lat="46.56211" lon="6.26417">
        <ele>1473</ele>
      </trkpt>
      <trkpt lat="46.56216" lon="6.26426">
        <ele>1472.6</ele>
      </trkpt>
      <trkpt lat="46.56221" lon="6.26436">
        <ele>1472.5</ele>
      </trkpt>
      <trkpt lat="46.56225" lon="6.26451">
        <ele>1473.5</ele>
      </trkpt>
      <trkpt lat="46.56228" lon="6.26474">
        <ele>1475.6</ele>
      </trkpt>
      <trkpt lat="46.56237" lon="6.26521">
        <ele>1478.6</ele>
      </trkpt>
      <trkpt lat="46.5624" lon="6.26526">
        <ele>1478.7</ele>
      </trkpt>
      <trkpt lat="46.56243" lon="6.26532">
        <ele>1478.5</ele>
      </trkpt>
      <trkpt lat="46.56248" lon="6.26536">
        <ele>1477.9</ele>
      </trkpt>
      <trkpt lat="46.56257" lon="6.26542">
        <ele>1476.7</ele>
      </trkpt>
      <trkpt lat="46.56267" lon="6.26549">
        <ele>1475.5</ele>
      </trkpt>
      <trkpt lat="46.56279" lon="6.26556">
        <ele>1474.1</ele>
      </trkpt>
      <trkpt lat="46.56291" lon="6.26565">
        <ele>1473.2</ele>
      </trkpt>
      <trkpt lat="46.56298" lon="6.26573">
        <ele>1473.1</ele>
      </trkpt>
      <trkpt lat="46.56309" lon="6.26592">
        <ele>1473.6</ele>
      </trkpt>
      <trkpt lat="46.56315" lon="6.26601">
        <ele>1473.5</ele>
      </trkpt>
      <trkpt lat="46.56333" lon="6.26629">
        <ele>1473.4</ele>
      </trkpt>
      <trkpt lat="46.56344" lon="6.26645">
        <ele>1473.4</ele>
      </trkpt>
      <trkpt lat="46.56354" lon="6.26658">
        <ele>1473.5</ele>
      </trkpt>
      <trkpt lat="46.56364" lon="6.2667">
        <ele>1473.5</ele>
      </trkpt>
      <trkpt lat="46.56396" lon="6.267">
        <ele>1472.3</ele>
      </trkpt>
      <trkpt lat="46.56407" lon="6.2671">
        <ele>1472.1</ele>
      </trkpt>
      <trkpt lat="46.56416" lon="6.26721">
        <ele>1472.2</ele>
      </trkpt>
      <trkpt lat="46.5642" lon="6.26732">
        <ele>1472.8</ele>
      </trkpt>
      <trkpt lat="46.56423" lon="6.2675">
        <ele>1474.3</ele>
      </trkpt>
      <trkpt lat="46.56425" lon="6.26762">
        <ele>1474.6</ele>
      </trkpt>
      <trkpt lat="46.56432" lon="6.26786">
        <ele>1474.8</ele>
      </trkpt>
      <trkpt lat="46.56437" lon="6.268">
        <ele>1474.9</ele>
      </trkpt>
      <trkpt lat="46.56439" lon="6.26807">
        <ele>1475.1</ele>
      </trkpt>
      <trkpt lat="46.56438" lon="6.26818">
        <ele>1475.6</ele>
      </trkpt>
      <trkpt lat="46.5643" lon="6.26842">
        <ele>1477.4</ele>
      </trkpt>
      <trkpt lat="46.56427" lon="6.26853">
        <ele>1478.4</ele>
      </trkpt>
      <trkpt lat="46.56426" lon="6.26863">
        <ele>1479.2</ele>
      </trkpt>
      <trkpt lat="46.56427" lon="6.26876">
        <ele>1479.9</ele>
      </trkpt>
      <trkpt lat="46.56435" lon="6.26889">
        <ele>1480.3</ele>
      </trkpt>
      <trkpt lat="46.56443" lon="6.269">
        <ele>1480.6</ele>
      </trkpt>
      <trkpt lat="46.56455" lon="6.26916">
        <ele>1481.1</ele>
      </trkpt>
      <trkpt lat="46.56463" lon="6.26929">
        <ele>1481.5</ele>
      </trkpt>
      <trkpt lat="46.56466" lon="6.26936">
        <ele>1481.8</ele>
      </trkpt>
      <trkpt lat="46.56468" lon="6.26946">
        <ele>1482.3</ele>
      </trkpt>
      <trkpt lat="46.56474" lon="6.26963">
        <ele>1483.3</ele>
      </trkpt>
      <trkpt lat="46.56491" lon="6.26977">
        <ele>1484.1</ele>
      </trkpt>
      <trkpt lat="46.565" lon="6.26986">
        <ele>1484.8</ele>
      </trkpt>
      <trkpt lat="46.56519" lon="6.27006">
        <ele>1487.2</ele>
      </trkpt>
      <trkpt lat="46.56531" lon="6.27016">
        <ele>1488.6</ele>
      </trkpt>
      <trkpt lat="46.56546" lon="6.27029">
        <ele>1490.5</ele>
      </trkpt>
      <trkpt lat="46.56552" lon="6.27035">
        <ele>1491.5</ele>
      </trkpt>
      <trkpt lat="46.56559" lon="6.27044">
        <ele>1493</ele>
      </trkpt>
      <trkpt lat="46.56564" lon="6.2705">
        <ele>1493.8</ele>
      </trkpt>
      <trkpt lat="46.56571" lon="6.27054">
        <ele>1494.7</ele>
      </trkpt>
      <trkpt lat="46.56579" lon="6.2706">
        <ele>1495.7</ele>
      </trkpt>
      <trkpt lat="46.56587" lon="6.27067">
        <ele>1497</ele>
      </trkpt>
      <trkpt lat="46.56595" lon="6.27075">
        <ele>1498.5</ele>
      </trkpt>
      <trkpt lat="46.56603" lon="6.27085">
        <ele>1500.2</ele>
      </trkpt>
      <trkpt lat="46.56614" lon="6.27096">
        <ele>1502.1</ele>
      </trkpt>
      <trkpt lat="46.56623" lon="6.27103">
        <ele>1503.5</ele>
      </trkpt>
      <trkpt lat="46.5663" lon="6.27111">
        <ele>1504.8</ele>
      </trkpt>
      <trkpt lat="46.56661" lon="6.27142">
        <ele>1510.5</ele>
      </trkpt>
      <trkpt lat="46.56678" lon="6.27161">
        <ele>1514.1</ele>
      </trkpt>
      <trkpt lat="46.56686" lon="6.27169">
        <ele>1515.7</ele>
      </trkpt>
      <trkpt lat="46.56697" lon="6.27178">
        <ele>1517.3</ele>
      </trkpt>
      <trkpt lat="46.56705" lon="6.27183">
        <ele>1518.1</ele>
      </trkpt>
      <trkpt lat="46.56719" lon="6.27194">
        <ele>1519.8</ele>
      </trkpt>
      <trkpt lat="46.56727" lon="6.27201">
        <ele>1520.7</ele>
      </trkpt>
      <trkpt lat="46.56742" lon="6.27213">
        <ele>1522</ele>
      </trkpt>
      <trkpt lat="46.56752" lon="6.27222">
        <ele>1522.7</ele>
      </trkpt>
      <trkpt lat="46.56772" lon="6.27233">
        <ele>1523.1</ele>
      </trkpt>
      <trkpt lat="46.56781" lon="6.2724">
        <ele>1523.5</ele>
      </trkpt>
      <trkpt lat="46.56792" lon="6.27246">
        <ele>1523.8</ele>
      </trkpt>
      <trkpt lat="46.56806" lon="6.27253">
        <ele>1524</ele>
      </trkpt>
      <trkpt lat="46.56821" lon="6.27262">
        <ele>1524.1</ele>
      </trkpt>
      <trkpt lat="46.56837" lon="6.27271">
        <ele>1523.8</ele>
      </trkpt>
      <trkpt lat="46.56845" lon="6.27275">
        <ele>1523</ele>
      </trkpt>
      <trkpt lat="46.56853" lon="6.27276">
        <ele>1522.1</ele>
      </trkpt>
      <trkpt lat="46.56861" lon="6.27278">
        <ele>1521.2</ele>
      </trkpt>
      <trkpt lat="46.5687" lon="6.27282">
        <ele>1520.3</ele>
      </trkpt>
      <trkpt lat="46.56879" lon="6.27285">
        <ele>1519.3</ele>
      </trkpt>
      <trkpt lat="46.56886" lon="6.27287">
        <ele>1518.5</ele>
      </trkpt>
      <trkpt lat="46.56897" lon="6.2729">
        <ele>1517.3</ele>
      </trkpt>
      <trkpt lat="46.56914" lon="6.27297">
        <ele>1515.3</ele>
      </trkpt>
      <trkpt lat="46.56926" lon="6.273">
        <ele>1514</ele>
      </trkpt>
      <trkpt lat="46.56942" lon="6.27305">
        <ele>1512.3</ele>
      </trkpt>
      <trkpt lat="46.56956" lon="6.27311">
        <ele>1510.9</ele>
      </trkpt>
      <trkpt lat="46.56965" lon="6.27315">
        <ele>1510.2</ele>
      </trkpt>
      <trkpt lat="46.56971" lon="6.27318">
        <ele>1509.7</ele>
      </trkpt>
      <trkpt lat="46.56977" lon="6.27323">
        <ele>1509.4</ele>
      </trkpt>
      <trkpt lat="46.56996" lon="6.27338">
        <ele>1508.5</ele>
      </trkpt>
      <trkpt lat="46.57" lon="6.27342">
        <ele>1508.3</ele>
      </trkpt>
      <trkpt lat="46.57005" lon="6.27347">
        <ele>1509.1</ele>
      </trkpt>
      <trkpt lat="46.5701" lon="6.27351">
        <ele>1509.8</ele>
      </trkpt>
      <trkpt lat="46.57016" lon="6.27359">
        <ele>1510.9</ele>
      </trkpt>
      <trkpt lat="46.57025" lon="6.27367">
        <ele>1512.7</ele>
      </trkpt>
      <trkpt lat="46.57033" lon="6.27374">
        <ele>1514.5</ele>
      </trkpt>
      <trkpt lat="46.57037" lon="6.27381">
        <ele>1515.7</ele>
      </trkpt>
      <trkpt lat="46.57051" lon="6.27397">
        <ele>1519.3</ele>
      </trkpt>
      <trkpt lat="46.57059" lon="6.27407">
        <ele>1521.9</ele>
      </trkpt>
      <trkpt lat="46.57072" lon="6.27424">
        <ele>1526.1</ele>
      </trkpt>
      <trkpt lat="46.57083" lon="6.27439">
        <ele>1529.8</ele>
      </trkpt>
      <trkpt lat="46.57089" lon="6.27449">
        <ele>1531.7</ele>
      </trkpt>
      <trkpt lat="46.57099" lon="6.27467">
        <ele>1535.5</ele>
      </trkpt>
      <trkpt lat="46.57105" lon="6.27479">
        <ele>1537.8</ele>
      </trkpt>
      <trkpt lat="46.57114" lon="6.2749">
        <ele>1540.9</ele>
      </trkpt>
      <trkpt lat="46.5712" lon="6.27498">
        <ele>1543.2</ele>
      </trkpt>
      <trkpt lat="46.5713" lon="6.27514">
        <ele>1545.8</ele>
      </trkpt>
      <trkpt lat="46.57139" lon="6.27528">
        <ele>1548.2</ele>
      </trkpt>
      <trkpt lat="46.57146" lon="6.27539">
        <ele>1550.2</ele>
      </trkpt>
      <trkpt lat="46.57161" lon="6.27557">
        <ele>1554.6</ele>
      </trkpt>
      <trkpt lat="46.57182" lon="6.2758">
        <ele>1558.9</ele>
      </trkpt>
      <trkpt lat="46.57196" lon="6.27592">
        <ele>1560.1</ele>
      </trkpt>
      <trkpt lat="46.57203" lon="6.27598">
        <ele>1560.6</ele>
      </trkpt>
      <trkpt lat="46.57212" lon="6.27606">
        <ele>1561.3</ele>
      </trkpt>
      <trkpt lat="46.57223" lon="6.27614">
        <ele>1562.2</ele>
      </trkpt>
      <trkpt lat="46.5723" lon="6.27616">
        <ele>1563.1</ele>
      </trkpt>
      <trkpt lat="46.57236" lon="6.27615">
        <ele>1564</ele>
      </trkpt>
      <trkpt lat="46.57249" lon="6.27605">
        <ele>1566.6</ele>
      </trkpt>
      <trkpt lat="46.57257" lon="6.27603">
        <ele>1566.3</ele>
      </trkpt>
      <trkpt lat="46.57269" lon="6.27601">
        <ele>1565.5</ele>
      </trkpt>
      <trkpt lat="46.57284" lon="6.27601">
        <ele>1564.3</ele>
      </trkpt>
      <trkpt lat="46.57291" lon="6.27599">
        <ele>1563.9</ele>
      </trkpt>
      <trkpt lat="46.57296" lon="6.27596">
        <ele>1563.6</ele>
      </trkpt>
      <trkpt lat="46.57316" lon="6.27582">
        <ele>1562.3</ele>
      </trkpt>
      <trkpt lat="46.57321" lon="6.2758">
        <ele>1561.6</ele>
      </trkpt>
      <trkpt lat="46.57326" lon="6.2758">
        <ele>1561.2</ele>
      </trkpt>
      <trkpt lat="46.57333" lon="6.27583">
        <ele>1561</ele>
      </trkpt>
      <trkpt lat="46.57338" lon="6.27587">
        <ele>1559.9</ele>
      </trkpt>
      <trkpt lat="46.57355" lon="6.276">
        <ele>1556.6</ele>
      </trkpt>
      <trkpt lat="46.5736" lon="6.27605">
        <ele>1555.8</ele>
      </trkpt>
      <trkpt lat="46.57369" lon="6.27616">
        <ele>1554.3</ele>
      </trkpt>
      <trkpt lat="46.57377" lon="6.27622">
        <ele>1553.1</ele>
      </trkpt>
      <trkpt lat="46.57388" lon="6.27631">
        <ele>1551.7</ele>
      </trkpt>
      <trkpt lat="46.57394" lon="6.27637">
        <ele>1551.1</ele>
      </trkpt>
      <trkpt lat="46.57401" lon="6.27647">
        <ele>1550.6</ele>
      </trkpt>
      <trkpt lat="46.57411" lon="6.27658">
        <ele>1550</ele>
      </trkpt>
      <trkpt lat="46.57418" lon="6.27664">
        <ele>1549.7</ele>
      </trkpt>
      <trkpt lat="46.57432" lon="6.27677">
        <ele>1549.9</ele>
      </trkpt>
      <trkpt lat="46.5744" lon="6.27686">
        <ele>1550.3</ele>
      </trkpt>
      <trkpt lat="46.57452" lon="6.27698">
        <ele>1551</ele>
      </trkpt>
      <trkpt lat="46.57464" lon="6.27705">
        <ele>1551.4</ele>
      </trkpt>
      <trkpt lat="46.5748" lon="6.27703">
        <ele>1550.5</ele>
      </trkpt>
      <trkpt lat="46.57495" lon="6.27701">
        <ele>1549.5</ele>
      </trkpt>
      <trkpt lat="46.57505" lon="6.27699">
        <ele>1548.2</ele>
      </trkpt>
      <trkpt lat="46.57511" lon="6.27699">
        <ele>1547.2</ele>
      </trkpt>
      <trkpt lat="46.57528" lon="6.27701">
        <ele>1544.9</ele>
      </trkpt>
      <trkpt lat="46.57532" lon="6.27702">
        <ele>1544.3</ele>
      </trkpt>
      <trkpt lat="46.57538" lon="6.27705">
        <ele>1544.1</ele>
      </trkpt>
      <trkpt lat="46.57546" lon="6.27714">
        <ele>1544.3</ele>
      </trkpt>
      <trkpt lat="46.57553" lon="6.2772">
        <ele>1544.4</ele>
      </trkpt>
      <trkpt lat="46.5756" lon="6.27726">
        <ele>1544.5</ele>
      </trkpt>
      <trkpt lat="46.57566" lon="6.27731">
        <ele>1544.7</ele>
      </trkpt>
      <trkpt lat="46.57574" lon="6.27741">
        <ele>1545.3</ele>
      </trkpt>
      <trkpt lat="46.57585" lon="6.27751">
        <ele>1545.9</ele>
      </trkpt>
      <trkpt lat="46.57595" lon="6.27761">
        <ele>1545.2</ele>
      </trkpt>
      <trkpt lat="46.57613" lon="6.27776">
        <ele>1543.5</ele>
      </trkpt>
      <trkpt lat="46.5763" lon="6.27792">
        <ele>1542.2</ele>
      </trkpt>
      <trkpt lat="46.57656" lon="6.27816">
        <ele>1540.4</ele>
      </trkpt>
      <trkpt lat="46.57666" lon="6.27822">
        <ele>1538.7</ele>
      </trkpt>
      <trkpt lat="46.57674" lon="6.27829">
        <ele>1537.3</ele>
      </trkpt>
      <trkpt lat="46.57683" lon="6.27839">
        <ele>1536</ele>
      </trkpt>
      <trkpt lat="46.57696" lon="6.27854">
        <ele>1533.8</ele>
      </trkpt>
      <trkpt lat="46.57718" lon="6.27876">
        <ele>1529.6</ele>
      </trkpt>
      <trkpt lat="46.57727" lon="6.27882">
        <ele>1527.2</ele>
      </trkpt>
      <trkpt lat="46.57737" lon="6.2789">
        <ele>1524.7</ele>
      </trkpt>
      <trkpt lat="46.57751" lon="6.27899">
        <ele>1521.5</ele>
      </trkpt>
      <trkpt lat="46.5776" lon="6.27903">
        <ele>1521</ele>
      </trkpt>
      <trkpt lat="46.57766" lon="6.27906">
        <ele>1520.5</ele>
      </trkpt>
      <trkpt lat="46.57773" lon="6.27906">
        <ele>1519.6</ele>
      </trkpt>
      <trkpt lat="46.57777" lon="6.27906">
        <ele>1518.8</ele>
      </trkpt>
      <trkpt lat="46.57795" lon="6.27918">
        <ele>1518.3</ele>
      </trkpt>
      <trkpt lat="46.57812" lon="6.27935">
        <ele>1518.9</ele>
      </trkpt>
      <trkpt lat="46.5783" lon="6.27953">
        <ele>1519.1</ele>
      </trkpt>
      <trkpt lat="46.57848" lon="6.27968">
        <ele>1520.5</ele>
      </trkpt>
      <trkpt lat="46.57868" lon="6.27988">
        <ele>1522.5</ele>
      </trkpt>
      <trkpt lat="46.57885" lon="6.28005">
        <ele>1523.9</ele>
      </trkpt>
      <trkpt lat="46.57902" lon="6.28022">
        <ele>1524.4</ele>
      </trkpt>
      <trkpt lat="46.57918" lon="6.28043">
        <ele>1524.6</ele>
      </trkpt>
      <trkpt lat="46.57948" lon="6.28094">
        <ele>1528.6</ele>
      </trkpt>
      <trkpt lat="46.5795" lon="6.28107">
        <ele>1529.8</ele>
      </trkpt>
      <trkpt lat="46.5795" lon="6.28114">
        <ele>1530.4</ele>
      </trkpt>
      <trkpt lat="46.57951" lon="6.28137">
        <ele>1532.6</ele>
      </trkpt>
      <trkpt lat="46.57952" lon="6.2815">
        <ele>1533.8</ele>
      </trkpt>
      <trkpt lat="46.57955" lon="6.2816">
        <ele>1534.5</ele>
      </trkpt>
      <trkpt lat="46.57965" lon="6.28181">
        <ele>1535.9</ele>
      </trkpt>
      <trkpt lat="46.57968" lon="6.28189">
        <ele>1536.5</ele>
      </trkpt>
      <trkpt lat="46.57973" lon="6.28204">
        <ele>1537.6</ele>
      </trkpt>
      <trkpt lat="46.57976" lon="6.2821">
        <ele>1538</ele>
      </trkpt>
      <trkpt lat="46.57982" lon="6.28216">
        <ele>1538.1</ele>
      </trkpt>
      <trkpt lat="46.57992" lon="6.28214">
        <ele>1537.5</ele>
      </trkpt>
      <trkpt lat="46.58002" lon="6.28208">
        <ele>1536.6</ele>
      </trkpt>
      <trkpt lat="46.58019" lon="6.28193">
        <ele>1537.5</ele>
      </trkpt>
      <trkpt lat="46.58025" lon="6.28188">
        <ele>1537.9</ele>
      </trkpt>
      <trkpt lat="46.5803" lon="6.28185">
        <ele>1538.2</ele>
      </trkpt>
      <trkpt lat="46.58035" lon="6.28183">
        <ele>1538.7</ele>
      </trkpt>
      <trkpt lat="46.58042" lon="6.28182">
        <ele>1539.5</ele>
      </trkpt>
      <trkpt lat="46.58046" lon="6.28182">
        <ele>1540.1</ele>
      </trkpt>
      <trkpt lat="46.58051" lon="6.28186">
        <ele>1540.9</ele>
      </trkpt>
      <trkpt lat="46.58054" lon="6.2819">
        <ele>1541.5</ele>
      </trkpt>
      <trkpt lat="46.58054" lon="6.28194">
        <ele>1541.9</ele>
      </trkpt>
      <trkpt lat="46.58055" lon="6.28198">
        <ele>1542.1</ele>
      </trkpt>
      <trkpt lat="46.58054" lon="6.28207">
        <ele>1542.5</ele>
      </trkpt>
      <trkpt lat="46.58045" lon="6.28235">
        <ele>1543.4</ele>
      </trkpt>
      <trkpt lat="46.58034" lon="6.28279">
        <ele>1547.4</ele>
      </trkpt>
      <trkpt lat="46.58032" lon="6.28286">
        <ele>1548.2</ele>
      </trkpt>
      <trkpt lat="46.58029" lon="6.28294">
        <ele>1549.2</ele>
      </trkpt>
      <trkpt lat="46.58027" lon="6.28299">
        <ele>1549.9</ele>
      </trkpt>
      <trkpt lat="46.58023" lon="6.28306">
        <ele>1550.7</ele>
      </trkpt>
      <trkpt lat="46.5802" lon="6.28313">
        <ele>1551.5</ele>
      </trkpt>
      <trkpt lat="46.58015" lon="6.28321">
        <ele>1552.6</ele>
      </trkpt>
      <trkpt lat="46.58011" lon="6.28327">
        <ele>1553.4</ele>
      </trkpt>
      <trkpt lat="46.58008" lon="6.28332">
        <ele>1554</ele>
      </trkpt>
      <trkpt lat="46.57997" lon="6.28347">
        <ele>1556.8</ele>
      </trkpt>
      <trkpt lat="46.5799" lon="6.28366">
        <ele>1560.7</ele>
      </trkpt>
      <trkpt lat="46.57984" lon="6.28375">
        <ele>1562.3</ele>
      </trkpt>
      <trkpt lat="46.57979" lon="6.2838">
        <ele>1563.2</ele>
      </trkpt>
      <trkpt lat="46.57973" lon="6.28386">
        <ele>1564.1</ele>
      </trkpt>
      <trkpt lat="46.57969" lon="6.2839">
        <ele>1564.6</ele>
      </trkpt>
      <trkpt lat="46.57964" lon="6.28394">
        <ele>1565.1</ele>
      </trkpt>
      <trkpt lat="46.57959" lon="6.28397">
        <ele>1565.5</ele>
      </trkpt>
      <trkpt lat="46.57947" lon="6.28405">
        <ele>1566.2</ele>
      </trkpt>
      <trkpt lat="46.57943" lon="6.28415">
        <ele>1567.3</ele>
      </trkpt>
      <trkpt lat="46.57938" lon="6.28428">
        <ele>1568.1</ele>
      </trkpt>
      <trkpt lat="46.5793" lon="6.28451">
        <ele>1568.9</ele>
      </trkpt>
      <trkpt lat="46.57928" lon="6.28461">
        <ele>1569.3</ele>
      </trkpt>
      <trkpt lat="46.57925" lon="6.28472">
        <ele>1569.6</ele>
      </trkpt>
      <trkpt lat="46.57923" lon="6.28482">
        <ele>1570</ele>
      </trkpt>
      <trkpt lat="46.57918" lon="6.28505">
        <ele>1570.2</ele>
      </trkpt>
      <trkpt lat="46.57914" lon="6.28524">
        <ele>1569.8</ele>
      </trkpt>
      <trkpt lat="46.57911" lon="6.28539">
        <ele>1569.6</ele>
      </trkpt>
      <trkpt lat="46.57911" lon="6.28551">
        <ele>1569.6</ele>
      </trkpt>
      <trkpt lat="46.57912" lon="6.28563">
        <ele>1569.7</ele>
      </trkpt>
      <trkpt lat="46.57914" lon="6.28574">
        <ele>1569.8</ele>
      </trkpt>
      <trkpt lat="46.57918" lon="6.28593">
        <ele>1570.1</ele>
      </trkpt>
      <trkpt lat="46.57921" lon="6.28613">
        <ele>1570.8</ele>
      </trkpt>
      <trkpt lat="46.57923" lon="6.2862">
        <ele>1571</ele>
      </trkpt>
      <trkpt lat="46.57923" lon="6.28628">
        <ele>1571.1</ele>
      </trkpt>
      <trkpt lat="46.57928" lon="6.2863">
        <ele>1572</ele>
      </trkpt>
      <trkpt lat="46.57934" lon="6.28638">
        <ele>1573.1</ele>
      </trkpt>
      <trkpt lat="46.57942" lon="6.2865">
        <ele>1574.6</ele>
      </trkpt>
      <trkpt lat="46.5795" lon="6.28661">
        <ele>1576.3</ele>
      </trkpt>
      <trkpt lat="46.57964" lon="6.28675">
        <ele>1579.4</ele>
      </trkpt>
      <trkpt lat="46.57976" lon="6.28688">
        <ele>1582.5</ele>
      </trkpt>
      <trkpt lat="46.57987" lon="6.28701">
        <ele>1585.2</ele>
      </trkpt>
      <trkpt lat="46.57992" lon="6.28707">
        <ele>1586.4</ele>
      </trkpt>
      <trkpt lat="46.57996" lon="6.2872">
        <ele>1587.9</ele>
      </trkpt>
      <trkpt lat="46.57998" lon="6.28723">
        <ele>1588.2</ele>
      </trkpt>
      <trkpt lat="46.57999" lon="6.28726">
        <ele>1588.6</ele>
      </trkpt>
      <trkpt lat="46.58003" lon="6.28733">
        <ele>1589.6</ele>
      </trkpt>
      <trkpt lat="46.58012" lon="6.28746">
        <ele>1591.4</ele>
      </trkpt>
      <trkpt lat="46.58034" lon="6.28771">
        <ele>1594.8</ele>
      </trkpt>
      <trkpt lat="46.58073" lon="6.2881">
        <ele>1599.2</ele>
      </trkpt>
      <trkpt lat="46.58114" lon="6.28851">
        <ele>1597.9</ele>
      </trkpt>
      <trkpt lat="46.58162" lon="6.28872">
        <ele>1594.9</ele>
      </trkpt>
      <trkpt lat="46.58218" lon="6.28922">
        <ele>1589.3</ele>
      </trkpt>
      <trkpt lat="46.58245" lon="6.28937">
        <ele>1587</ele>
      </trkpt>
      <trkpt lat="46.5827" lon="6.28948">
        <ele>1583.6</ele>
      </trkpt>
      <trkpt lat="46.58303" lon="6.28975">
        <ele>1578.8</ele>
      </trkpt>
      <trkpt lat="46.58314" lon="6.29013">
        <ele>1576.1</ele>
      </trkpt>
      <trkpt lat="46.58328" lon="6.2903">
        <ele>1574.1</ele>
      </trkpt>
      <trkpt lat="46.58347" lon="6.29045">
        <ele>1571.2</ele>
      </trkpt>
      <trkpt lat="46.58356" lon="6.29069">
        <ele>1568.8</ele>
      </trkpt>
      <trkpt lat="46.58369" lon="6.29074">
        <ele>1567.3</ele>
      </trkpt>
      <trkpt lat="46.5839" lon="6.2909">
        <ele>1564.8</ele>
      </trkpt>
      <trkpt lat="46.58402" lon="6.29118">
        <ele>1562.1</ele>
      </trkpt>
      <trkpt lat="46.58424" lon="6.29156">
        <ele>1557</ele>
      </trkpt>
      <trkpt lat="46.58452" lon="6.29184">
        <ele>1552.4</ele>
      </trkpt>
      <trkpt lat="46.58483" lon="6.29216">
        <ele>1548.6</ele>
      </trkpt>
      <trkpt lat="46.58511" lon="6.2921">
        <ele>1545.2</ele>
      </trkpt>
      <trkpt lat="46.58564" lon="6.29269">
        <ele>1539.8</ele>
      </trkpt>
      <trkpt lat="46.58601" lon="6.29307">
        <ele>1539.1</ele>
      </trkpt>
      <trkpt lat="46.58653" lon="6.29417">
        <ele>1544.2</ele>
      </trkpt>
      <trkpt lat="46.58716" lon="6.29456">
        <ele>1547.7</ele>
      </trkpt>
      <trkpt lat="46.58726" lon="6.29464">
        <ele>1548.6</ele>
      </trkpt>
      <trkpt lat="46.58762" lon="6.29491">
        <ele>1551.8</ele>
      </trkpt>
      <trkpt lat="46.58784" lon="6.29508">
        <ele>1554.8</ele>
      </trkpt>
      <trkpt lat="46.58826" lon="6.29567">
        <ele>1558.8</ele>
      </trkpt>
      <trkpt lat="46.58843" lon="6.29585">
        <ele>1559.2</ele>
      </trkpt>
      <trkpt lat="46.58863" lon="6.29623">
        <ele>1562.7</ele>
      </trkpt>
      <trkpt lat="46.59013" lon="6.29778">
        <ele>1566.6</ele>
      </trkpt>
      <trkpt lat="46.59142" lon="6.29913">
        <ele>1569.1</ele>
      </trkpt>
      <trkpt lat="46.59151" lon="6.29938">
        <ele>1571</ele>
      </trkpt>
      <trkpt lat="46.59156" lon="6.29948">
        <ele>1571.6</ele>
      </trkpt>
      <trkpt lat="46.5916" lon="6.29961">
        <ele>1572.4</ele>
      </trkpt>
      <trkpt lat="46.59165" lon="6.29969">
        <ele>1572.6</ele>
      </trkpt>
      <trkpt lat="46.59168" lon="6.29979">
        <ele>1573.2</ele>
      </trkpt>
      <trkpt lat="46.59172" lon="6.29996">
        <ele>1574.6</ele>
      </trkpt>
      <trkpt lat="46.59189" lon="6.30011">
        <ele>1576.4</ele>
      </trkpt>
      <trkpt lat="46.592" lon="6.30019">
        <ele>1577.3</ele>
      </trkpt>
      <trkpt lat="46.59212" lon="6.3003">
        <ele>1578.5</ele>
      </trkpt>
      <trkpt lat="46.59221" lon="6.30044">
        <ele>1580.2</ele>
      </trkpt>
      <trkpt lat="46.59229" lon="6.30058">
        <ele>1581.7</ele>
      </trkpt>
      <trkpt lat="46.59235" lon="6.30071">
        <ele>1583.2</ele>
      </trkpt>
      <trkpt lat="46.59254" lon="6.30097">
        <ele>1584.7</ele>
      </trkpt>
      <trkpt lat="46.59267" lon="6.30115">
        <ele>1584.6</ele>
      </trkpt>
      <trkpt lat="46.59271" lon="6.30123">
        <ele>1584.6</ele>
      </trkpt>
      <trkpt lat="46.59273" lon="6.30128">
        <ele>1584.9</ele>
      </trkpt>
      <trkpt lat="46.59273" lon="6.30132">
        <ele>1585.2</ele>
      </trkpt>
      <trkpt lat="46.59276" lon="6.30138">
        <ele>1585.3</ele>
      </trkpt>
      <trkpt lat="46.59278" lon="6.3014">
        <ele>1585.2</ele>
      </trkpt>
      <trkpt lat="46.59279" lon="6.30143">
        <ele>1585.3</ele>
      </trkpt>
      <trkpt lat="46.5928" lon="6.30151">
        <ele>1585.9</ele>
      </trkpt>
      <trkpt lat="46.59283" lon="6.30162">
        <ele>1586.4</ele>
      </trkpt>
      <trkpt lat="46.59285" lon="6.30177">
        <ele>1587.8</ele>
      </trkpt>
      <trkpt lat="46.59285" lon="6.30195">
        <ele>1589.9</ele>
      </trkpt>
      <trkpt lat="46.5929" lon="6.3025">
        <ele>1595.4</ele>
      </trkpt>
      <trkpt lat="46.59296" lon="6.30275">
        <ele>1598.2</ele>
      </trkpt>
      <trkpt lat="46.59295" lon="6.30294">
        <ele>1601.8</ele>
      </trkpt>
      <trkpt lat="46.59296" lon="6.30305">
        <ele>1603.5</ele>
      </trkpt>
      <trkpt lat="46.59298" lon="6.30316">
        <ele>1604.6</ele>
      </trkpt>
      <trkpt lat="46.593" lon="6.30324">
        <ele>1605.5</ele>
      </trkpt>
      <trkpt lat="46.593" lon="6.30332">
        <ele>1606.9</ele>
      </trkpt>
      <trkpt lat="46.59302" lon="6.30341">
        <ele>1607.8</ele>
      </trkpt>
      <trkpt lat="46.59306" lon="6.30357">
        <ele>1609.6</ele>
      </trkpt>
      <trkpt lat="46.59306" lon="6.30363">
        <ele>1610.6</ele>
      </trkpt>
      <trkpt lat="46.59309" lon="6.30372">
        <ele>1611.5</ele>
      </trkpt>
      <trkpt lat="46.59311" lon="6.30378">
        <ele>1611.5</ele>
      </trkpt>
      <trkpt lat="46.59313" lon="6.3039">
        <ele>1612.9</ele>
      </trkpt>
      <trkpt lat="46.59313" lon="6.30396">
        <ele>1614.1</ele>
      </trkpt>
      <trkpt lat="46.59311" lon="6.304">
        <ele>1615.2</ele>
      </trkpt>
      <trkpt lat="46.59313" lon="6.30408">
        <ele>1616.1</ele>
      </trkpt>
      <trkpt lat="46.59315" lon="6.30412">
        <ele>1615.9</ele>
      </trkpt>
      <trkpt lat="46.5932" lon="6.30442">
        <ele>1619.3</ele>
      </trkpt>
      <trkpt lat="46.59321" lon="6.30449">
        <ele>1620.4</ele>
      </trkpt>
      <trkpt lat="46.59321" lon="6.30459">
        <ele>1622</ele>
      </trkpt>
      <trkpt lat="46.59325" lon="6.30471">
        <ele>1622.6</ele>
      </trkpt>
      <trkpt lat="46.59326" lon="6.30478">
        <ele>1623.6</ele>
      </trkpt>
      <trkpt lat="46.59328" lon="6.30488">
        <ele>1624.7</ele>
      </trkpt>
      <trkpt lat="46.5933" lon="6.30518">
        <ele>1628.7</ele>
      </trkpt>
      <trkpt lat="46.59328" lon="6.30524">
        <ele>1630</ele>
      </trkpt>
      <trkpt lat="46.5933" lon="6.30533">
        <ele>1630.6</ele>
      </trkpt>
      <trkpt lat="46.5933" lon="6.30537">
        <ele>1631.3</ele>
      </trkpt>
      <trkpt lat="46.59331" lon="6.30539">
        <ele>1631.4</ele>
      </trkpt>
      <trkpt lat="46.59332" lon="6.30546">
        <ele>1632.1</ele>
      </trkpt>
      <trkpt lat="46.59337" lon="6.30572">
        <ele>1634.1</ele>
      </trkpt>
      <trkpt lat="46.59338" lon="6.30589">
        <ele>1635.6</ele>
      </trkpt>
      <trkpt lat="46.59337" lon="6.30604">
        <ele>1635.9</ele>
      </trkpt>
      <trkpt lat="46.59339" lon="6.3062">
        <ele>1635.5</ele>
      </trkpt>
      <trkpt lat="46.59352" lon="6.30645">
        <ele>1632.8</ele>
      </trkpt>
      <trkpt lat="46.59359" lon="6.30657">
        <ele>1632</ele>
      </trkpt>
      <trkpt lat="46.59359" lon="6.30675">
        <ele>1633</ele>
      </trkpt>
      <trkpt lat="46.5936" lon="6.30679">
        <ele>1633.1</ele>
      </trkpt>
      <trkpt lat="46.59362" lon="6.30681">
        <ele>1632.9</ele>
      </trkpt>
      <trkpt lat="46.59369" lon="6.30687">
        <ele>1632.2</ele>
      </trkpt>
      <trkpt lat="46.59374" lon="6.30692">
        <ele>1631.9</ele>
      </trkpt>
      <trkpt lat="46.59377" lon="6.30702">
        <ele>1632.4</ele>
      </trkpt>
      <trkpt lat="46.59381" lon="6.30707">
        <ele>1632.3</ele>
      </trkpt>
      <trkpt lat="46.59383" lon="6.3071">
        <ele>1632.4</ele>
      </trkpt>
      <trkpt lat="46.59387" lon="6.3073">
        <ele>1633.8</ele>
      </trkpt>
      <trkpt lat="46.59396" lon="6.30799">
        <ele>1640.6</ele>
      </trkpt>
      <trkpt lat="46.59391" lon="6.30831">
        <ele>1644.1</ele>
      </trkpt>
      <trkpt lat="46.59415" lon="6.30882">
        <ele>1650.1</ele>
      </trkpt>
      <trkpt lat="46.59418" lon="6.30894">
        <ele>1651.5</ele>
      </trkpt>
      <trkpt lat="46.5942" lon="6.30911">
        <ele>1653.4</ele>
      </trkpt>
      <trkpt lat="46.59421" lon="6.30921">
        <ele>1654.2</ele>
      </trkpt>
      <trkpt lat="46.59425" lon="6.30929">
        <ele>1654.6</ele>
      </trkpt>
      <trkpt lat="46.59437" lon="6.30939">
        <ele>1655.4</ele>
      </trkpt>
      <trkpt lat="46.59457" lon="6.30967">
        <ele>1658.4</ele>
      </trkpt>
      <trkpt lat="46.59487" lon="6.31021">
        <ele>1663.5</ele>
      </trkpt>
      <trkpt lat="46.59517" lon="6.31082">
        <ele>1660</ele>
      </trkpt>
      <trkpt lat="46.59539" lon="6.31119">
        <ele>1656.7</ele>
      </trkpt>
      <trkpt lat="46.59543" lon="6.31125">
        <ele>1656.4</ele>
      </trkpt>
      <trkpt lat="46.59563" lon="6.31151">
        <ele>1655.3</ele>
      </trkpt>
      <trkpt lat="46.5959" lon="6.31184">
        <ele>1652.4</ele>
      </trkpt>
      <trkpt lat="46.59612" lon="6.31217">
        <ele>1647.4</ele>
      </trkpt>
      <trkpt lat="46.5962" lon="6.31237">
        <ele>1645.5</ele>
      </trkpt>
      <trkpt lat="46.59624" lon="6.31241">
        <ele>1645.1</ele>
      </trkpt>
      <trkpt lat="46.59635" lon="6.31246">
        <ele>1644</ele>
      </trkpt>
      <trkpt lat="46.5964" lon="6.31249">
        <ele>1643.6</ele>
      </trkpt>
      <trkpt lat="46.59644" lon="6.31254">
        <ele>1642.9</ele>
      </trkpt>
      <trkpt lat="46.59653" lon="6.3127">
        <ele>1641</ele>
      </trkpt>
      <trkpt lat="46.59671" lon="6.31296">
        <ele>1638.6</ele>
      </trkpt>
      <trkpt lat="46.59736" lon="6.31322">
        <ele>1636.1</ele>
      </trkpt>
      <trkpt lat="46.59754" lon="6.31344">
        <ele>1634.7</ele>
      </trkpt>
      <trkpt lat="46.59762" lon="6.31357">
        <ele>1633.2</ele>
      </trkpt>
      <trkpt lat="46.59778" lon="6.31384">
        <ele>1631.3</ele>
      </trkpt>
      <trkpt lat="46.59797" lon="6.31411">
        <ele>1631.4</ele>
      </trkpt>
      <trkpt lat="46.59797" lon="6.31427">
        <ele>1630.4</ele>
      </trkpt>
      <trkpt lat="46.59801" lon="6.31456">
        <ele>1627.8</ele>
      </trkpt>
      <trkpt lat="46.59803" lon="6.31486">
        <ele>1625.3</ele>
      </trkpt>
      <trkpt lat="46.59824" lon="6.31515">
        <ele>1625.4</ele>
      </trkpt>
      <trkpt lat="46.59832" lon="6.31527">
        <ele>1625.3</ele>
      </trkpt>
      <trkpt lat="46.59843" lon="6.31548">
        <ele>1624.4</ele>
      </trkpt>
      <trkpt lat="46.59845" lon="6.3159">
        <ele>1621.4</ele>
      </trkpt>
      <trkpt lat="46.59847" lon="6.31611">
        <ele>1620.5</ele>
      </trkpt>
      <trkpt lat="46.59863" lon="6.3165">
        <ele>1620.6</ele>
      </trkpt>
      <trkpt lat="46.59862" lon="6.31662">
        <ele>1619.7</ele>
      </trkpt>
      <trkpt lat="46.59862" lon="6.31671">
        <ele>1619.2</ele>
      </trkpt>
      <trkpt lat="46.59864" lon="6.31678">
        <ele>1618.7</ele>
      </trkpt>
      <trkpt lat="46.59867" lon="6.31687">
        <ele>1618.4</ele>
      </trkpt>
      <trkpt lat="46.59879" lon="6.31711">
        <ele>1618.1</ele>
      </trkpt>
      <trkpt lat="46.59881" lon="6.31719">
        <ele>1617.8</ele>
      </trkpt>
      <trkpt lat="46.59884" lon="6.31738">
        <ele>1616.7</ele>
      </trkpt>
      <trkpt lat="46.59892" lon="6.31753">
        <ele>1616.7</ele>
      </trkpt>
      <trkpt lat="46.599" lon="6.31775">
        <ele>1616.8</ele>
      </trkpt>
      <trkpt lat="46.59911" lon="6.31789">
        <ele>1617.7</ele>
      </trkpt>
      <trkpt lat="46.59914" lon="6.31794">
        <ele>1617.9</ele>
      </trkpt>
      <trkpt lat="46.59945" lon="6.3184">
        <ele>1617.9</ele>
      </trkpt>
      <trkpt lat="46.59951" lon="6.31842">
        <ele>1618.3</ele>
      </trkpt>
      <trkpt lat="46.59956" lon="6.31848">
        <ele>1618.2</ele>
      </trkpt>
      <trkpt lat="46.59966" lon="6.31862">
        <ele>1618.1</ele>
      </trkpt>
      <trkpt lat="46.59976" lon="6.31876">
        <ele>1618.1</ele>
      </trkpt>
      <trkpt lat="46.59985" lon="6.31891">
        <ele>1618.1</ele>
      </trkpt>
      <trkpt lat="46.59994" lon="6.31902">
        <ele>1618.3</ele>
      </trkpt>
      <trkpt lat="46.6" lon="6.31909">
        <ele>1618.4</ele>
      </trkpt>
      <trkpt lat="46.60005" lon="6.31913">
        <ele>1617.9</ele>
      </trkpt>
      <trkpt lat="46.60011" lon="6.31916">
        <ele>1617.4</ele>
      </trkpt>
      <trkpt lat="46.60026" lon="6.31919">
        <ele>1616.3</ele>
      </trkpt>
      <trkpt lat="46.60036" lon="6.31922">
        <ele>1615.4</ele>
      </trkpt>
      <trkpt lat="46.60041" lon="6.31922">
        <ele>1615.1</ele>
      </trkpt>
      <trkpt lat="46.60045" lon="6.31922">
        <ele>1614.9</ele>
      </trkpt>
      <trkpt lat="46.60048" lon="6.31921">
        <ele>1614.8</ele>
      </trkpt>
      <trkpt lat="46.60054" lon="6.31919">
        <ele>1614.6</ele>
      </trkpt>
      <trkpt lat="46.60072" lon="6.3191">
        <ele>1614.4</ele>
      </trkpt>
      <trkpt lat="46.60078" lon="6.31908">
        <ele>1614.4</ele>
      </trkpt>
      <trkpt lat="46.60083" lon="6.31906">
        <ele>1614.3</ele>
      </trkpt>
      <trkpt lat="46.60087" lon="6.31906">
        <ele>1614.2</ele>
      </trkpt>
      <trkpt lat="46.6009" lon="6.31907">
        <ele>1614</ele>
      </trkpt>
      <trkpt lat="46.60095" lon="6.3191">
        <ele>1613.7</ele>
      </trkpt>
      <trkpt lat="46.60099" lon="6.31915">
        <ele>1613.1</ele>
      </trkpt>
      <trkpt lat="46.60106" lon="6.31927">
        <ele>1612.4</ele>
      </trkpt>
      <trkpt lat="46.60109" lon="6.31931">
        <ele>1612.2</ele>
      </trkpt>
      <trkpt lat="46.60113" lon="6.31934">
        <ele>1612</ele>
      </trkpt>
      <trkpt lat="46.60116" lon="6.31937">
        <ele>1611.9</ele>
      </trkpt>
      <trkpt lat="46.60121" lon="6.31938">
        <ele>1612</ele>
      </trkpt>
      <trkpt lat="46.6013" lon="6.31939">
        <ele>1612</ele>
      </trkpt>
      <trkpt lat="46.60137" lon="6.31939">
        <ele>1612.1</ele>
      </trkpt>
      <trkpt lat="46.60146" lon="6.31937">
        <ele>1612.3</ele>
      </trkpt>
      <trkpt lat="46.60152" lon="6.31936">
        <ele>1612.4</ele>
      </trkpt>
      <trkpt lat="46.60157" lon="6.31936">
        <ele>1612.4</ele>
      </trkpt>
      <trkpt lat="46.60161" lon="6.31937">
        <ele>1612.4</ele>
      </trkpt>
      <trkpt lat="46.60164" lon="6.31939">
        <ele>1612.4</ele>
      </trkpt>
      <trkpt lat="46.60169" lon="6.31943">
        <ele>1612.2</ele>
      </trkpt>
      <trkpt lat="46.60173" lon="6.31947">
        <ele>1611.9</ele>
      </trkpt>
      <trkpt lat="46.60178" lon="6.31949">
        <ele>1611.6</ele>
      </trkpt>
      <trkpt lat="46.60183" lon="6.31952">
        <ele>1611.3</ele>
      </trkpt>
      <trkpt lat="46.60188" lon="6.31953">
        <ele>1611</ele>
      </trkpt>
      <trkpt lat="46.60194" lon="6.31954">
        <ele>1610.7</ele>
      </trkpt>
      <trkpt lat="46.602" lon="6.31955">
        <ele>1610.4</ele>
      </trkpt>
      <trkpt lat="46.6021" lon="6.31954">
        <ele>1609.9</ele>
      </trkpt>
      <trkpt lat="46.60217" lon="6.31953">
        <ele>1609.4</ele>
      </trkpt>
      <trkpt lat="46.60226" lon="6.3195">
        <ele>1608.6</ele>
      </trkpt>
      <trkpt lat="46.60237" lon="6.31947">
        <ele>1607.5</ele>
      </trkpt>
      <trkpt lat="46.60247" lon="6.31945">
        <ele>1606.5</ele>
      </trkpt>
      <trkpt lat="46.60261" lon="6.31941">
        <ele>1603.4</ele>
      </trkpt>
      <trkpt lat="46.60269" lon="6.31941">
        <ele>1601.8</ele>
      </trkpt>
      <trkpt lat="46.60275" lon="6.31941">
        <ele>1600.6</ele>
      </trkpt>
      <trkpt lat="46.60281" lon="6.31944">
        <ele>1599.9</ele>
      </trkpt>
      <trkpt lat="46.60295" lon="6.31952">
        <ele>1598.8</ele>
      </trkpt>
      <trkpt lat="46.60306" lon="6.31958">
        <ele>1598.1</ele>
      </trkpt>
      <trkpt lat="46.60318" lon="6.31964">
        <ele>1597.2</ele>
      </trkpt>
      <trkpt lat="46.60329" lon="6.3197">
        <ele>1596.8</ele>
      </trkpt>
      <trkpt lat="46.60337" lon="6.31975">
        <ele>1596.3</ele>
      </trkpt>
      <trkpt lat="46.60342" lon="6.31979">
        <ele>1595.8</ele>
      </trkpt>
      <trkpt lat="46.60346" lon="6.31984">
        <ele>1595.5</ele>
      </trkpt>
      <trkpt lat="46.60352" lon="6.31991">
        <ele>1595.7</ele>
      </trkpt>
      <trkpt lat="46.60354" lon="6.31994">
        <ele>1595.8</ele>
      </trkpt>
      <trkpt lat="46.60357" lon="6.31996">
        <ele>1595.4</ele>
      </trkpt>
      <trkpt lat="46.60358" lon="6.31996">
        <ele>1595</ele>
      </trkpt>
      <trkpt lat="46.6036" lon="6.31996">
        <ele>1594.2</ele>
      </trkpt>
      <trkpt lat="46.60362" lon="6.31994">
        <ele>1593.3</ele>
      </trkpt>
      <trkpt lat="46.60363" lon="6.31991">
        <ele>1592.1</ele>
      </trkpt>
      <trkpt lat="46.60363" lon="6.31988">
        <ele>1591.3</ele>
      </trkpt>
      <trkpt lat="46.60362" lon="6.31985">
        <ele>1590.9</ele>
      </trkpt>
      <trkpt lat="46.60359" lon="6.31982">
        <ele>1591.1</ele>
      </trkpt>
      <trkpt lat="46.60355" lon="6.31978">
        <ele>1591.3</ele>
      </trkpt>
      <trkpt lat="46.60347" lon="6.31969">
        <ele>1591.6</ele>
      </trkpt>
      <trkpt lat="46.60341" lon="6.31961">
        <ele>1591.4</ele>
      </trkpt>
      <trkpt lat="46.60333" lon="6.31949">
        <ele>1590.6</ele>
      </trkpt>
      <trkpt lat="46.60324" lon="6.31935">
        <ele>1588.9</ele>
      </trkpt>
      <trkpt lat="46.60317" lon="6.31925">
        <ele>1587.8</ele>
      </trkpt>
      <trkpt lat="46.6031" lon="6.31912">
        <ele>1586.6</ele>
      </trkpt>
      <trkpt lat="46.60305" lon="6.31904">
        <ele>1586.1</ele>
      </trkpt>
      <trkpt lat="46.603" lon="6.31894">
        <ele>1585.1</ele>
      </trkpt>
      <trkpt lat="46.60291" lon="6.31877">
        <ele>1583.9</ele>
      </trkpt>
      <trkpt lat="46.60284" lon="6.3186">
        <ele>1582.7</ele>
      </trkpt>
      <trkpt lat="46.60276" lon="6.31845">
        <ele>1582.1</ele>
      </trkpt>
      <trkpt lat="46.60269" lon="6.31829">
        <ele>1581.3</ele>
      </trkpt>
      <trkpt lat="46.60262" lon="6.3181">
        <ele>1580.5</ele>
      </trkpt>
      <trkpt lat="46.60254" lon="6.31789">
        <ele>1579.3</ele>
      </trkpt>
      <trkpt lat="46.60251" lon="6.31774">
        <ele>1577.6</ele>
      </trkpt>
      <trkpt lat="46.60248" lon="6.31754">
        <ele>1575.3</ele>
      </trkpt>
      <trkpt lat="46.60244" lon="6.31737">
        <ele>1574.3</ele>
      </trkpt>
      <trkpt lat="46.60238" lon="6.31718">
        <ele>1573.3</ele>
      </trkpt>
      <trkpt lat="46.60234" lon="6.31698">
        <ele>1571.7</ele>
      </trkpt>
      <trkpt lat="46.6023" lon="6.31674">
        <ele>1569.5</ele>
      </trkpt>
      <trkpt lat="46.60223" lon="6.31639">
        <ele>1567.6</ele>
      </trkpt>
      <trkpt lat="46.6022" lon="6.3162">
        <ele>1566.5</ele>
      </trkpt>
      <trkpt lat="46.60218" lon="6.31608">
        <ele>1565.7</ele>
      </trkpt>
      <trkpt lat="46.60217" lon="6.31599">
        <ele>1565</ele>
      </trkpt>
      <trkpt lat="46.60216" lon="6.31593">
        <ele>1564.3</ele>
      </trkpt>
      <trkpt lat="46.60217" lon="6.31585">
        <ele>1563.1</ele>
      </trkpt>
      <trkpt lat="46.60219" lon="6.31576">
        <ele>1561.6</ele>
      </trkpt>
      <trkpt lat="46.60221" lon="6.31569">
        <ele>1560.1</ele>
      </trkpt>
      <trkpt lat="46.60224" lon="6.31558">
        <ele>1558.3</ele>
      </trkpt>
      <trkpt lat="46.60227" lon="6.3156">
        <ele>1557.5</ele>
      </trkpt>
      <trkpt lat="46.60232" lon="6.31566">
        <ele>1556.6</ele>
      </trkpt>
      <trkpt lat="46.6024" lon="6.31571">
        <ele>1554.8</ele>
      </trkpt>
      <trkpt lat="46.6025" lon="6.31575">
        <ele>1552.4</ele>
      </trkpt>
      <trkpt lat="46.60268" lon="6.31587">
        <ele>1550</ele>
      </trkpt>
      <trkpt lat="46.60276" lon="6.31594">
        <ele>1549.2</ele>
      </trkpt>
      <trkpt lat="46.60282" lon="6.316">
        <ele>1548.6</ele>
      </trkpt>
      <trkpt lat="46.60288" lon="6.31608">
        <ele>1548</ele>
      </trkpt>
      <trkpt lat="46.60296" lon="6.31632">
        <ele>1548.1</ele>
      </trkpt>
      <trkpt lat="46.603" lon="6.31645">
        <ele>1548.2</ele>
      </trkpt>
      <trkpt lat="46.60304" lon="6.31661">
        <ele>1548.2</ele>
      </trkpt>
      <trkpt lat="46.60307" lon="6.31672">
        <ele>1548.8</ele>
      </trkpt>
      <trkpt lat="46.60308" lon="6.31686">
        <ele>1550.2</ele>
      </trkpt>
      <trkpt lat="46.60311" lon="6.31701">
        <ele>1551.2</ele>
      </trkpt>
      <trkpt lat="46.60317" lon="6.31717">
        <ele>1551.8</ele>
      </trkpt>
      <trkpt lat="46.60323" lon="6.31734">
        <ele>1552.1</ele>
      </trkpt>
      <trkpt lat="46.60326" lon="6.31741">
        <ele>1552.1</ele>
      </trkpt>
      <trkpt lat="46.60332" lon="6.31756">
        <ele>1552.2</ele>
      </trkpt>
      <trkpt lat="46.60339" lon="6.31774">
        <ele>1552.7</ele>
      </trkpt>
      <trkpt lat="46.60346" lon="6.31792">
        <ele>1553.3</ele>
      </trkpt>
      <trkpt lat="46.60353" lon="6.31807">
        <ele>1553.5</ele>
      </trkpt>
      <trkpt lat="46.60359" lon="6.31817">
        <ele>1553.3</ele>
      </trkpt>
      <trkpt lat="46.60363" lon="6.31824">
        <ele>1553.3</ele>
      </trkpt>
      <trkpt lat="46.60368" lon="6.3183">
        <ele>1552.9</ele>
      </trkpt>
      <trkpt lat="46.60377" lon="6.31844">
        <ele>1553.2</ele>
      </trkpt>
      <trkpt lat="46.6039" lon="6.31861">
        <ele>1553.6</ele>
      </trkpt>
      <trkpt lat="46.60403" lon="6.31881">
        <ele>1554</ele>
      </trkpt>
      <trkpt lat="46.60416" lon="6.31899">
        <ele>1553.7</ele>
      </trkpt>
      <trkpt lat="46.60429" lon="6.31914">
        <ele>1552.8</ele>
      </trkpt>
      <trkpt lat="46.60437" lon="6.31928">
        <ele>1553.5</ele>
      </trkpt>
      <trkpt lat="46.60445" lon="6.31942">
        <ele>1554.2</ele>
      </trkpt>
      <trkpt lat="46.60453" lon="6.31953">
        <ele>1554.6</ele>
      </trkpt>
      <trkpt lat="46.60468" lon="6.31974">
        <ele>1554.4</ele>
      </trkpt>
      <trkpt lat="46.60489" lon="6.31994">
        <ele>1552.3</ele>
      </trkpt>
      <trkpt lat="46.60521" lon="6.3202">
        <ele>1545.7</ele>
      </trkpt>
      <trkpt lat="46.60546" lon="6.3205">
        <ele>1540.5</ele>
      </trkpt>
      <trkpt lat="46.60568" lon="6.32085">
        <ele>1535.5</ele>
      </trkpt>
      <trkpt lat="46.60583" lon="6.3212">
        <ele>1535.3</ele>
      </trkpt>
      <trkpt lat="46.60604" lon="6.32171">
        <ele>1535.3</ele>
      </trkpt>
      <trkpt lat="46.60623" lon="6.32216">
        <ele>1532.8</ele>
      </trkpt>
      <trkpt lat="46.60641" lon="6.32262">
        <ele>1529.9</ele>
      </trkpt>
      <trkpt lat="46.60654" lon="6.32287">
        <ele>1527.4</ele>
      </trkpt>
      <trkpt lat="46.60664" lon="6.32312">
        <ele>1525.8</ele>
      </trkpt>
      <trkpt lat="46.60676" lon="6.32326">
        <ele>1523.1</ele>
      </trkpt>
      <trkpt lat="46.60701" lon="6.32357">
        <ele>1518.3</ele>
      </trkpt>
      <trkpt lat="46.60704" lon="6.32361">
        <ele>1517.7</ele>
      </trkpt>
      <trkpt lat="46.60734" lon="6.32395">
        <ele>1512.3</ele>
      </trkpt>
      <trkpt lat="46.60747" lon="6.32407">
        <ele>1509.7</ele>
      </trkpt>
      <trkpt lat="46.6076" lon="6.32429">
        <ele>1507.9</ele>
      </trkpt>
      <trkpt lat="46.60765" lon="6.32462">
        <ele>1510.2</ele>
      </trkpt>
      <trkpt lat="46.60779" lon="6.32498">
        <ele>1510.3</ele>
      </trkpt>
      <trkpt lat="46.60803" lon="6.32523">
        <ele>1506</ele>
      </trkpt>
      <trkpt lat="46.60824" lon="6.32577">
        <ele>1506.3</ele>
      </trkpt>
      <trkpt lat="46.60864" lon="6.32622">
        <ele>1500.7</ele>
      </trkpt>
      <trkpt lat="46.60892" lon="6.32666">
        <ele>1497.7</ele>
      </trkpt>
      <trkpt lat="46.6092" lon="6.32711">
        <ele>1495</ele>
      </trkpt>
      <trkpt lat="46.60962" lon="6.32775">
        <ele>1491.3</ele>
      </trkpt>
      <trkpt lat="46.60975" lon="6.328">
        <ele>1490.7</ele>
      </trkpt>
      <trkpt lat="46.61003" lon="6.32852">
        <ele>1490</ele>
      </trkpt>
      <trkpt lat="46.61031" lon="6.32896">
        <ele>1490.5</ele>
      </trkpt>
      <trkpt lat="46.61069" lon="6.32939">
        <ele>1485.2</ele>
      </trkpt>
      <trkpt lat="46.61101" lon="6.32972">
        <ele>1479.1</ele>
      </trkpt>
      <trkpt lat="46.61127" lon="6.33002">
        <ele>1476.4</ele>
      </trkpt>
      <trkpt lat="46.61136" lon="6.33011">
        <ele>1476.2</ele>
      </trkpt>
      <trkpt lat="46.6116" lon="6.33009">
        <ele>1469.8</ele>
      </trkpt>
      <trkpt lat="46.61195" lon="6.32999">
        <ele>1462.5</ele>
      </trkpt>
      <trkpt lat="46.61212" lon="6.32989">
        <ele>1459.1</ele>
      </trkpt>
      <trkpt lat="46.6125" lon="6.32957">
        <ele>1452.4</ele>
      </trkpt>
      <trkpt lat="46.61256" lon="6.32934">
        <ele>1449.9</ele>
      </trkpt>
      <trkpt lat="46.61283" lon="6.3292">
        <ele>1446.1</ele>
      </trkpt>
      <trkpt lat="46.61322" lon="6.32907">
        <ele>1440.3</ele>
      </trkpt>
      <trkpt lat="46.61358" lon="6.32888">
        <ele>1432.8</ele>
      </trkpt>
      <trkpt lat="46.61386" lon="6.32873">
        <ele>1427.9</ele>
      </trkpt>
      <trkpt lat="46.61407" lon="6.32858">
        <ele>1424.9</ele>
      </trkpt>
      <trkpt lat="46.61417" lon="6.32867">
        <ele>1424.5</ele>
      </trkpt>
      <trkpt lat="46.61429" lon="6.32881">
        <ele>1423.5</ele>
      </trkpt>
      <trkpt lat="46.61445" lon="6.32904">
        <ele>1422.1</ele>
      </trkpt>
      <trkpt lat="46.61457" lon="6.32929">
        <ele>1421</ele>
      </trkpt>
      <trkpt lat="46.61476" lon="6.32974">
        <ele>1417.1</ele>
      </trkpt>
      <trkpt lat="46.61494" lon="6.32997">
        <ele>1411.8</ele>
      </trkpt>
      <trkpt lat="46.61513" lon="6.33015">
        <ele>1409.7</ele>
      </trkpt>
      <trkpt lat="46.61524" lon="6.3303">
        <ele>1409.1</ele>
      </trkpt>
      <trkpt lat="46.6153" lon="6.33047">
        <ele>1408.4</ele>
      </trkpt>
      <trkpt lat="46.61537" lon="6.33072">
        <ele>1407.3</ele>
      </trkpt>
      <trkpt lat="46.6154" lon="6.3308">
        <ele>1406.8</ele>
      </trkpt>
      <trkpt lat="46.61545" lon="6.33087">
        <ele>1406.5</ele>
      </trkpt>
      <trkpt lat="46.61568" lon="6.33122">
        <ele>1405.9</ele>
      </trkpt>
      <trkpt lat="46.61591" lon="6.33156">
        <ele>1403.6</ele>
      </trkpt>
      <trkpt lat="46.61622" lon="6.33186">
        <ele>1402.2</ele>
      </trkpt>
      <trkpt lat="46.61647" lon="6.33208">
        <ele>1400.7</ele>
      </trkpt>
      <trkpt lat="46.61662" lon="6.33221">
        <ele>1399.4</ele>
      </trkpt>
      <trkpt lat="46.61679" lon="6.33233">
        <ele>1398</ele>
      </trkpt>
      <trkpt lat="46.61688" lon="6.33237">
        <ele>1397.1</ele>
      </trkpt>
      <trkpt lat="46.61697" lon="6.33239">
        <ele>1396</ele>
      </trkpt>
      <trkpt lat="46.61705" lon="6.33239">
        <ele>1395</ele>
      </trkpt>
      <trkpt lat="46.61724" lon="6.33236">
        <ele>1392.4</ele>
      </trkpt>
      <trkpt lat="46.61736" lon="6.33229">
        <ele>1390.7</ele>
      </trkpt>
      <trkpt lat="46.61761" lon="6.33215">
        <ele>1388.4</ele>
      </trkpt>
      <trkpt lat="46.61787" lon="6.3321">
        <ele>1387.2</ele>
      </trkpt>
      <trkpt lat="46.61794" lon="6.3321">
        <ele>1386.9</ele>
      </trkpt>
      <trkpt lat="46.618" lon="6.33212">
        <ele>1386.5</ele>
      </trkpt>
      <trkpt lat="46.61806" lon="6.33215">
        <ele>1386.1</ele>
      </trkpt>
      <trkpt lat="46.61812" lon="6.33219">
        <ele>1385.6</ele>
      </trkpt>
      <trkpt lat="46.61824" lon="6.33231">
        <ele>1384.5</ele>
      </trkpt>
      <trkpt lat="46.61828" lon="6.33237">
        <ele>1384</ele>
      </trkpt>
      <trkpt lat="46.61832" lon="6.33245">
        <ele>1383.3</ele>
      </trkpt>
      <trkpt lat="46.61835" lon="6.33254">
        <ele>1382.9</ele>
      </trkpt>
      <trkpt lat="46.61839" lon="6.33265">
        <ele>1382.6</ele>
      </trkpt>
      <trkpt lat="46.61842" lon="6.33271">
        <ele>1382.4</ele>
      </trkpt>
      <trkpt lat="46.61846" lon="6.33277">
        <ele>1382</ele>
      </trkpt>
      <trkpt lat="46.61851" lon="6.33282">
        <ele>1381.5</ele>
      </trkpt>
      <trkpt lat="46.61858" lon="6.33289">
        <ele>1380.9</ele>
      </trkpt>
      <trkpt lat="46.61863" lon="6.33295">
        <ele>1380.3</ele>
      </trkpt>
      <trkpt lat="46.61867" lon="6.33302">
        <ele>1379.7</ele>
      </trkpt>
      <trkpt lat="46.6187" lon="6.3331">
        <ele>1379.2</ele>
      </trkpt>
      <trkpt lat="46.61872" lon="6.33318">
        <ele>1378.8</ele>
      </trkpt>
      <trkpt lat="46.61874" lon="6.33326">
        <ele>1378.3</ele>
      </trkpt>
      <trkpt lat="46.61876" lon="6.33346">
        <ele>1378.6</ele>
      </trkpt>
      <trkpt lat="46.61877" lon="6.33359">
        <ele>1379.3</ele>
      </trkpt>
      <trkpt lat="46.61879" lon="6.33367">
        <ele>1379.6</ele>
      </trkpt>
      <trkpt lat="46.61882" lon="6.33375">
        <ele>1379.6</ele>
      </trkpt>
      <trkpt lat="46.61887" lon="6.33383">
        <ele>1379.4</ele>
      </trkpt>
      <trkpt lat="46.61898" lon="6.33396">
        <ele>1378.5</ele>
      </trkpt>
      <trkpt lat="46.61912" lon="6.33409">
        <ele>1377.3</ele>
      </trkpt>
      <trkpt lat="46.6193" lon="6.33426">
        <ele>1376.7</ele>
      </trkpt>
      <trkpt lat="46.61935" lon="6.33432">
        <ele>1376.7</ele>
      </trkpt>
      <trkpt lat="46.61939" lon="6.33438">
        <ele>1376.6</ele>
      </trkpt>
      <trkpt lat="46.61943" lon="6.33445">
        <ele>1376.6</ele>
      </trkpt>
      <trkpt lat="46.61946" lon="6.33451">
        <ele>1376.6</ele>
      </trkpt>
      <trkpt lat="46.6195" lon="6.33466">
        <ele>1376.6</ele>
      </trkpt>
      <trkpt lat="46.61955" lon="6.33474">
        <ele>1376.3</ele>
      </trkpt>
      <trkpt lat="46.6196" lon="6.33482">
        <ele>1375.8</ele>
      </trkpt>
      <trkpt lat="46.61983" lon="6.33505">
        <ele>1372.5</ele>
      </trkpt>
      <trkpt lat="46.61989" lon="6.33512">
        <ele>1371.2</ele>
      </trkpt>
      <trkpt lat="46.61994" lon="6.33519">
        <ele>1370.3</ele>
      </trkpt>
      <trkpt lat="46.62003" lon="6.33535">
        <ele>1368.4</ele>
      </trkpt>
      <trkpt lat="46.62006" lon="6.33541">
        <ele>1367.9</ele>
      </trkpt>
      <trkpt lat="46.62009" lon="6.33549">
        <ele>1367.2</ele>
      </trkpt>
      <trkpt lat="46.62013" lon="6.3356">
        <ele>1366.4</ele>
      </trkpt>
      <trkpt lat="46.62018" lon="6.33568">
        <ele>1365.5</ele>
      </trkpt>
      <trkpt lat="46.62025" lon="6.33578">
        <ele>1364.3</ele>
      </trkpt>
      <trkpt lat="46.62034" lon="6.33589">
        <ele>1362.9</ele>
      </trkpt>
      <trkpt lat="46.62047" lon="6.33608">
        <ele>1360.8</ele>
      </trkpt>
      <trkpt lat="46.6206" lon="6.33628">
        <ele>1358.6</ele>
      </trkpt>
      <trkpt lat="46.62064" lon="6.33635">
        <ele>1357.9</ele>
      </trkpt>
      <trkpt lat="46.62066" lon="6.33641">
        <ele>1357.4</ele>
      </trkpt>
      <trkpt lat="46.6207" lon="6.33658">
        <ele>1356.4</ele>
      </trkpt>
      <trkpt lat="46.62076" lon="6.33685">
        <ele>1354.9</ele>
      </trkpt>
      <trkpt lat="46.6208" lon="6.33698">
        <ele>1354.2</ele>
      </trkpt>
      <trkpt lat="46.62084" lon="6.33708">
        <ele>1353.5</ele>
      </trkpt>
      <trkpt lat="46.62091" lon="6.33721">
        <ele>1352.8</ele>
      </trkpt>
      <trkpt lat="46.62097" lon="6.33729">
        <ele>1352</ele>
      </trkpt>
      <trkpt lat="46.6211" lon="6.33743">
        <ele>1350.2</ele>
      </trkpt>
      <trkpt lat="46.62146" lon="6.3378">
        <ele>1343.2</ele>
      </trkpt>
      <trkpt lat="46.62176" lon="6.33818">
        <ele>1337.9</ele>
      </trkpt>
      <trkpt lat="46.62202" lon="6.33862">
        <ele>1336.1</ele>
      </trkpt>
      <trkpt lat="46.62224" lon="6.33894">
        <ele>1334</ele>
      </trkpt>
      <trkpt lat="46.62235" lon="6.33913">
        <ele>1332.3</ele>
      </trkpt>
      <trkpt lat="46.62242" lon="6.33929">
        <ele>1330.7</ele>
      </trkpt>
      <trkpt lat="46.62249" lon="6.33951">
        <ele>1328.6</ele>
      </trkpt>
      <trkpt lat="46.62255" lon="6.33974">
        <ele>1327</ele>
      </trkpt>
      <trkpt lat="46.62259" lon="6.33991">
        <ele>1325.7</ele>
      </trkpt>
      <trkpt lat="46.62267" lon="6.34011">
        <ele>1323.4</ele>
      </trkpt>
      <trkpt lat="46.62271" lon="6.34018">
        <ele>1322.3</ele>
      </trkpt>
      <trkpt lat="46.62276" lon="6.34025">
        <ele>1321.2</ele>
      </trkpt>
      <trkpt lat="46.623" lon="6.34044">
        <ele>1318</ele>
      </trkpt>
      <trkpt lat="46.62305" lon="6.34045">
        <ele>1317.6</ele>
      </trkpt>
      <trkpt lat="46.62316" lon="6.34047">
        <ele>1317.5</ele>
      </trkpt>
      <trkpt lat="46.62329" lon="6.34049">
        <ele>1317.1</ele>
      </trkpt>
      <trkpt lat="46.62345" lon="6.3405">
        <ele>1317.7</ele>
      </trkpt>
      <trkpt lat="46.6236" lon="6.34054">
        <ele>1317.7</ele>
      </trkpt>
      <trkpt lat="46.62371" lon="6.3406">
        <ele>1316.9</ele>
      </trkpt>
      <trkpt lat="46.62381" lon="6.34065">
        <ele>1315.8</ele>
      </trkpt>
      <trkpt lat="46.62394" lon="6.34077">
        <ele>1312.9</ele>
      </trkpt>
      <trkpt lat="46.62408" lon="6.34089">
        <ele>1310.6</ele>
      </trkpt>
      <trkpt lat="46.62426" lon="6.34099">
        <ele>1310.1</ele>
      </trkpt>
      <trkpt lat="46.62433" lon="6.34104">
        <ele>1309.8</ele>
      </trkpt>
      <trkpt lat="46.62438" lon="6.34111">
        <ele>1308.9</ele>
      </trkpt>
      <trkpt lat="46.62442" lon="6.3412">
        <ele>1307.4</ele>
      </trkpt>
      <trkpt lat="46.62445" lon="6.34131">
        <ele>1305.5</ele>
      </trkpt>
      <trkpt lat="46.6245" lon="6.34149">
        <ele>1302.1</ele>
      </trkpt>
      <trkpt lat="46.62454" lon="6.3416">
        <ele>1300.1</ele>
      </trkpt>
      <trkpt lat="46.62459" lon="6.34169">
        <ele>1298.8</ele>
      </trkpt>
      <trkpt lat="46.62467" lon="6.34176">
        <ele>1298.4</ele>
      </trkpt>
      <trkpt lat="46.62479" lon="6.34186">
        <ele>1297.5</ele>
      </trkpt>
      <trkpt lat="46.62484" lon="6.34192">
        <ele>1296.9</ele>
      </trkpt>
      <trkpt lat="46.62491" lon="6.34207">
        <ele>1295.1</ele>
      </trkpt>
      <trkpt lat="46.62498" lon="6.34229">
        <ele>1292</ele>
      </trkpt>
      <trkpt lat="46.62509" lon="6.34262">
        <ele>1290.6</ele>
      </trkpt>
      <trkpt lat="46.62522" lon="6.34299">
        <ele>1291.5</ele>
      </trkpt>
      <trkpt lat="46.6253" lon="6.34329">
        <ele>1291</ele>
      </trkpt>
      <trkpt lat="46.62537" lon="6.34359">
        <ele>1291.2</ele>
      </trkpt>
      <trkpt lat="46.6254" lon="6.34387">
        <ele>1291.2</ele>
      </trkpt>
      <trkpt lat="46.62546" lon="6.34432">
        <ele>1290.9</ele>
      </trkpt>
      <trkpt lat="46.6255" lon="6.3445">
        <ele>1290.7</ele>
      </trkpt>
      <trkpt lat="46.62553" lon="6.34465">
        <ele>1290.6</ele>
      </trkpt>
      <trkpt lat="46.6256" lon="6.34484">
        <ele>1290.2</ele>
      </trkpt>
      <trkpt lat="46.62585" lon="6.34497">
        <ele>1289</ele>
      </trkpt>
      <trkpt lat="46.62601" lon="6.34504">
        <ele>1288.1</ele>
      </trkpt>
      <trkpt lat="46.62611" lon="6.3451">
        <ele>1287.6</ele>
      </trkpt>
      <trkpt lat="46.62619" lon="6.34517">
        <ele>1287.1</ele>
      </trkpt>
      <trkpt lat="46.62631" lon="6.34529">
        <ele>1286.6</ele>
      </trkpt>
      <trkpt lat="46.62713" lon="6.34621">
        <ele>1284.3</ele>
      </trkpt>
      <trkpt lat="46.62746" lon="6.34657">
        <ele>1284.7</ele>
      </trkpt>
      <trkpt lat="46.62765" lon="6.34678">
        <ele>1284.3</ele>
      </trkpt>
      <trkpt lat="46.62776" lon="6.3469">
        <ele>1283.7</ele>
      </trkpt>
      <trkpt lat="46.6278" lon="6.34694">
        <ele>1283.5</ele>
      </trkpt>
      <trkpt lat="46.62784" lon="6.347">
        <ele>1283.4</ele>
      </trkpt>
      <trkpt lat="46.62787" lon="6.34706">
        <ele>1283.2</ele>
      </trkpt>
      <trkpt lat="46.62789" lon="6.34711">
        <ele>1283.1</ele>
      </trkpt>
      <trkpt lat="46.62791" lon="6.34718">
        <ele>1283</ele>
      </trkpt>
      <trkpt lat="46.62793" lon="6.34725">
        <ele>1283</ele>
      </trkpt>
      <trkpt lat="46.62795" lon="6.34737">
        <ele>1282.8</ele>
      </trkpt>
      <trkpt lat="46.62796" lon="6.34744">
        <ele>1282.8</ele>
      </trkpt>
      <trkpt lat="46.62803" lon="6.34772">
        <ele>1283.6</ele>
      </trkpt>
      <trkpt lat="46.62805" lon="6.34781">
        <ele>1284</ele>
      </trkpt>
      <trkpt lat="46.62807" lon="6.34787">
        <ele>1284.2</ele>
      </trkpt>
      <trkpt lat="46.6281" lon="6.34793">
        <ele>1284.5</ele>
      </trkpt>
      <trkpt lat="46.62812" lon="6.34797">
        <ele>1284.7</ele>
      </trkpt>
      <trkpt lat="46.62815" lon="6.34801">
        <ele>1284.9</ele>
      </trkpt>
      <trkpt lat="46.62818" lon="6.34804">
        <ele>1285.1</ele>
      </trkpt>
      <trkpt lat="46.62822" lon="6.34808">
        <ele>1285.2</ele>
      </trkpt>
      <trkpt lat="46.62827" lon="6.34812">
        <ele>1285.5</ele>
      </trkpt>
      <trkpt lat="46.62837" lon="6.34818">
        <ele>1286</ele>
      </trkpt>
      <trkpt lat="46.62848" lon="6.34825">
        <ele>1286.7</ele>
      </trkpt>
      <trkpt lat="46.6286" lon="6.34831">
        <ele>1287.5</ele>
      </trkpt>
      <trkpt lat="46.62869" lon="6.34835">
        <ele>1288.1</ele>
      </trkpt>
      <trkpt lat="46.62875" lon="6.34837">
        <ele>1288.6</ele>
      </trkpt>
      <trkpt lat="46.62893" lon="6.34841">
        <ele>1289.6</ele>
      </trkpt>
      <trkpt lat="46.62917" lon="6.34844">
        <ele>1290.7</ele>
      </trkpt>
      <trkpt lat="46.62926" lon="6.34847">
        <ele>1291.5</ele>
      </trkpt>
      <trkpt lat="46.62938" lon="6.34853">
        <ele>1292.8</ele>
      </trkpt>
      <trkpt lat="46.62967" lon="6.34869">
        <ele>1295.7</ele>
      </trkpt>
      <trkpt lat="46.62975" lon="6.34871">
        <ele>1296.1</ele>
      </trkpt>
      <trkpt lat="46.62995" lon="6.34877">
        <ele>1297.1</ele>
      </trkpt>
      <trkpt lat="46.6301" lon="6.3488">
        <ele>1297.8</ele>
      </trkpt>
      <trkpt lat="46.63023" lon="6.34883">
        <ele>1298.5</ele>
      </trkpt>
      <trkpt lat="46.63037" lon="6.34886">
        <ele>1299.2</ele>
      </trkpt>
      <trkpt lat="46.63036" lon="6.3489">
        <ele>1299.5</ele>
      </trkpt>
      <trkpt lat="46.63035" lon="6.34893">
        <ele>1299.9</ele>
      </trkpt>
      <trkpt lat="46.63034" lon="6.349">
        <ele>1300.5</ele>
      </trkpt>
      <trkpt lat="46.63036" lon="6.34917">
        <ele>1302.4</ele>
      </trkpt>
      <trkpt lat="46.63039" lon="6.34928">
        <ele>1303.6</ele>
      </trkpt>
      <trkpt lat="46.63041" lon="6.34936">
        <ele>1304.5</ele>
      </trkpt>
      <trkpt lat="46.63044" lon="6.34942">
        <ele>1305.1</ele>
      </trkpt>
      <trkpt lat="46.63048" lon="6.34948">
        <ele>1305.6</ele>
      </trkpt>
      <trkpt lat="46.63053" lon="6.34952">
        <ele>1306</ele>
      </trkpt>
      <trkpt lat="46.63067" lon="6.34966">
        <ele>1306.8</ele>
      </trkpt>
      <trkpt lat="46.63074" lon="6.34974">
        <ele>1307.1</ele>
      </trkpt>
      <trkpt lat="46.63076" lon="6.34979">
        <ele>1307.3</ele>
      </trkpt>
      <trkpt lat="46.63077" lon="6.34984">
        <ele>1307.5</ele>
      </trkpt>
      <trkpt lat="46.63087" lon="6.34986">
        <ele>1307.3</ele>
      </trkpt>
      <trkpt lat="46.631" lon="6.3499">
        <ele>1307.3</ele>
      </trkpt>
      <trkpt lat="46.63124" lon="6.34998">
        <ele>1307</ele>
      </trkpt>
      <trkpt lat="46.63131" lon="6.35002">
        <ele>1307</ele>
      </trkpt>
      <trkpt lat="46.63137" lon="6.35008">
        <ele>1307.2</ele>
      </trkpt>
      <trkpt lat="46.63143" lon="6.35017">
        <ele>1307.3</ele>
      </trkpt>
      <trkpt lat="46.63152" lon="6.35032">
        <ele>1307.4</ele>
      </trkpt>
      <trkpt lat="46.63157" lon="6.35042">
        <ele>1307.3</ele>
      </trkpt>
      <trkpt lat="46.63161" lon="6.35053">
        <ele>1307.2</ele>
      </trkpt>
      <trkpt lat="46.63166" lon="6.35068">
        <ele>1306.9</ele>
      </trkpt>
      <trkpt lat="46.63171" lon="6.35086">
        <ele>1307</ele>
      </trkpt>
      <trkpt lat="46.63176" lon="6.35106">
        <ele>1306.5</ele>
      </trkpt>
      <trkpt lat="46.63182" lon="6.3512">
        <ele>1306</ele>
      </trkpt>
      <trkpt lat="46.63193" lon="6.35142">
        <ele>1304.9</ele>
      </trkpt>
      <trkpt lat="46.632" lon="6.35156">
        <ele>1304</ele>
      </trkpt>
      <trkpt lat="46.63208" lon="6.35172">
        <ele>1303.4</ele>
      </trkpt>
      <trkpt lat="46.63217" lon="6.35186">
        <ele>1303.4</ele>
      </trkpt>
      <trkpt lat="46.63231" lon="6.35205">
        <ele>1302.3</ele>
      </trkpt>
      <trkpt lat="46.63268" lon="6.35248">
        <ele>1297.7</ele>
      </trkpt>
      <trkpt lat="46.63275" lon="6.35258">
        <ele>1297.9</ele>
      </trkpt>
      <trkpt lat="46.63281" lon="6.35266">
        <ele>1298.1</ele>
      </trkpt>
      <trkpt lat="46.63288" lon="6.35279">
        <ele>1298.2</ele>
      </trkpt>
      <trkpt lat="46.63304" lon="6.35304">
        <ele>1296.8</ele>
      </trkpt>
      <trkpt lat="46.63315" lon="6.35317">
        <ele>1295</ele>
      </trkpt>
      <trkpt lat="46.6334" lon="6.35345">
        <ele>1292.3</ele>
      </trkpt>
      <trkpt lat="46.63361" lon="6.3537">
        <ele>1293.6</ele>
      </trkpt>
      <trkpt lat="46.63369" lon="6.35381">
        <ele>1293.6</ele>
      </trkpt>
      <trkpt lat="46.63377" lon="6.35393">
        <ele>1293.2</ele>
      </trkpt>
      <trkpt lat="46.63384" lon="6.35405">
        <ele>1292.6</ele>
      </trkpt>
      <trkpt lat="46.63392" lon="6.35419">
        <ele>1291.8</ele>
      </trkpt>
      <trkpt lat="46.63399" lon="6.35431">
        <ele>1291.6</ele>
      </trkpt>
      <trkpt lat="46.63406" lon="6.35442">
        <ele>1291.1</ele>
      </trkpt>
      <trkpt lat="46.63417" lon="6.35453">
        <ele>1290.2</ele>
      </trkpt>
      <trkpt lat="46.63423" lon="6.35458">
        <ele>1289.9</ele>
      </trkpt>
      <trkpt lat="46.63429" lon="6.35463">
        <ele>1289.4</ele>
      </trkpt>
      <trkpt lat="46.63437" lon="6.35467">
        <ele>1288.7</ele>
      </trkpt>
      <trkpt lat="46.63448" lon="6.35471">
        <ele>1287.6</ele>
      </trkpt>
      <trkpt lat="46.63468" lon="6.35472">
        <ele>1285.3</ele>
      </trkpt>
      <trkpt lat="46.63478" lon="6.35475">
        <ele>1284.3</ele>
      </trkpt>
      <trkpt lat="46.63488" lon="6.35478">
        <ele>1283.2</ele>
      </trkpt>
      <trkpt lat="46.63508" lon="6.3549">
        <ele>1280.6</ele>
      </trkpt>
      <trkpt lat="46.63543" lon="6.35507">
        <ele>1275.7</ele>
      </trkpt>
      <trkpt lat="46.63553" lon="6.35513">
        <ele>1274.4</ele>
      </trkpt>
      <trkpt lat="46.63559" lon="6.35517">
        <ele>1273.6</ele>
      </trkpt>
      <trkpt lat="46.63572" lon="6.3553">
        <ele>1271.9</ele>
      </trkpt>
      <trkpt lat="46.63581" lon="6.35535">
        <ele>1270.7</ele>
      </trkpt>
      <trkpt lat="46.63586" lon="6.35537">
        <ele>1269.9</ele>
      </trkpt>
      <trkpt lat="46.63598" lon="6.35541">
        <ele>1268</ele>
      </trkpt>
      <trkpt lat="46.63606" lon="6.35544">
        <ele>1266.7</ele>
      </trkpt>
      <trkpt lat="46.63611" lon="6.35547">
        <ele>1265.7</ele>
      </trkpt>
      <trkpt lat="46.63616" lon="6.35551">
        <ele>1264.9</ele>
      </trkpt>
      <trkpt lat="46.63633" lon="6.35566">
        <ele>1261.6</ele>
      </trkpt>
      <trkpt lat="46.63645" lon="6.35576">
        <ele>1258.9</ele>
      </trkpt>
      <trkpt lat="46.63659" lon="6.35588">
        <ele>1255.8</ele>
      </trkpt>
      <trkpt lat="46.63668" lon="6.35594">
        <ele>1254.2</ele>
      </trkpt>
      <trkpt lat="46.63692" lon="6.35605">
        <ele>1251.5</ele>
      </trkpt>
      <trkpt lat="46.63703" lon="6.35613">
        <ele>1250.2</ele>
      </trkpt>
      <trkpt lat="46.63713" lon="6.35621">
        <ele>1248.8</ele>
      </trkpt>
      <trkpt lat="46.63721" lon="6.35628">
        <ele>1247.6</ele>
      </trkpt>
      <trkpt lat="46.63736" lon="6.35641">
        <ele>1245.1</ele>
      </trkpt>
      <trkpt lat="46.6375" lon="6.3565">
        <ele>1242.7</ele>
      </trkpt>
      <trkpt lat="46.63768" lon="6.35658">
        <ele>1240.4</ele>
      </trkpt>
      <trkpt lat="46.63772" lon="6.35661">
        <ele>1239.8</ele>
      </trkpt>
      <trkpt lat="46.63776" lon="6.35666">
        <ele>1239.2</ele>
      </trkpt>
      <trkpt lat="46.63788" lon="6.35656">
        <ele>1238.1</ele>
      </trkpt>
      <trkpt lat="46.63793" lon="6.35651">
        <ele>1237.6</ele>
      </trkpt>
      <trkpt lat="46.63799" lon="6.3565">
        <ele>1237</ele>
      </trkpt>
      <trkpt lat="46.63811" lon="6.35647">
        <ele>1235.6</ele>
      </trkpt>
      <trkpt lat="46.63818" lon="6.35648">
        <ele>1234.8</ele>
      </trkpt>
      <trkpt lat="46.63822" lon="6.35652">
        <ele>1234.2</ele>
      </trkpt>
      <trkpt lat="46.63825" lon="6.35657">
        <ele>1233.9</ele>
      </trkpt>
      <trkpt lat="46.63829" lon="6.35658">
        <ele>1233.5</ele>
      </trkpt>
      <trkpt lat="46.63833" lon="6.35656">
        <ele>1233</ele>
      </trkpt>
      <trkpt lat="46.63838" lon="6.35651">
        <ele>1232.2</ele>
      </trkpt>
      <trkpt lat="46.63845" lon="6.35645">
        <ele>1231.2</ele>
      </trkpt>
      <trkpt lat="46.6385" lon="6.35641">
        <ele>1230.4</ele>
      </trkpt>
      <trkpt lat="46.63872" lon="6.35622">
        <ele>1228</ele>
      </trkpt>
      <trkpt lat="46.639" lon="6.35604">
        <ele>1225.8</ele>
      </trkpt>
      <trkpt lat="46.63938" lon="6.35604">
        <ele>1224.7</ele>
      </trkpt>
      <trkpt lat="46.63977" lon="6.35642">
        <ele>1220</ele>
      </trkpt>
      <trkpt lat="46.64015" lon="6.35659">
        <ele>1217.5</ele>
      </trkpt>
      <trkpt lat="46.64052" lon="6.3565">
        <ele>1221.5</ele>
      </trkpt>
      <trkpt lat="46.6407" lon="6.35671">
        <ele>1218.4</ele>
      </trkpt>
      <trkpt lat="46.64101" lon="6.35739">
        <ele>1205.1</ele>
      </trkpt>
      <trkpt lat="46.64136" lon="6.35764">
        <ele>1202.8</ele>
      </trkpt>
      <trkpt lat="46.6418" lon="6.35747">
        <ele>1207.3</ele>
      </trkpt>
      <trkpt lat="46.64238" lon="6.35756">
        <ele>1209.8</ele>
      </trkpt>
      <trkpt lat="46.64376" lon="6.35747">
        <ele>1217.7</ele>
      </trkpt>
      <trkpt lat="46.64383" lon="6.35746">
        <ele>1217.6</ele>
      </trkpt>
      <trkpt lat="46.64402" lon="6.35756">
        <ele>1216.6</ele>
      </trkpt>
      <trkpt lat="46.64468" lon="6.35785">
        <ele>1212.1</ele>
      </trkpt>
      <trkpt lat="46.64538" lon="6.35837">
        <ele>1205.4</ele>
      </trkpt>
      <trkpt lat="46.64594" lon="6.35882">
        <ele>1201.6</ele>
      </trkpt>
      <trkpt lat="46.64663" lon="6.35936">
        <ele>1200.9</ele>
      </trkpt>
      <trkpt lat="46.64668" lon="6.35963">
        <ele>1201.1</ele>
      </trkpt>
      <trkpt lat="46.64667" lon="6.35984">
        <ele>1201</ele>
      </trkpt>
      <trkpt lat="46.64665" lon="6.36012">
        <ele>1201</ele>
      </trkpt>
      <trkpt lat="46.64664" lon="6.36036">
        <ele>1200.9</ele>
      </trkpt>
      <trkpt lat="46.64669" lon="6.36054">
        <ele>1200.9</ele>
      </trkpt>
      <trkpt lat="46.64681" lon="6.36088">
        <ele>1199.6</ele>
      </trkpt>
      <trkpt lat="46.64712" lon="6.36141">
        <ele>1194.3</ele>
      </trkpt>
      <trkpt lat="46.64752" lon="6.36266">
        <ele>1187</ele>
      </trkpt>
      <trkpt lat="46.64758" lon="6.36324">
        <ele>1186.7</ele>
      </trkpt>
      <trkpt lat="46.64763" lon="6.3634">
        <ele>1186.9</ele>
      </trkpt>
      <trkpt lat="46.64769" lon="6.36362">
        <ele>1187</ele>
      </trkpt>
      <trkpt lat="46.64777" lon="6.36378">
        <ele>1187.1</ele>
      </trkpt>
      <trkpt lat="46.64787" lon="6.36399">
        <ele>1186.9</ele>
      </trkpt>
      <trkpt lat="46.64801" lon="6.36417">
        <ele>1186.6</ele>
      </trkpt>
      <trkpt lat="46.64814" lon="6.36433">
        <ele>1186.1</ele>
      </trkpt>
      <trkpt lat="46.64831" lon="6.36449">
        <ele>1185.4</ele>
      </trkpt>
      <trkpt lat="46.64844" lon="6.36468">
        <ele>1184.4</ele>
      </trkpt>
      <trkpt lat="46.64862" lon="6.36494">
        <ele>1182.9</ele>
      </trkpt>
      <trkpt lat="46.64878" lon="6.36515">
        <ele>1182.2</ele>
      </trkpt>
      <trkpt lat="46.64903" lon="6.36539">
        <ele>1182.2</ele>
      </trkpt>
      <trkpt lat="46.64925" lon="6.36554">
        <ele>1182.3</ele>
      </trkpt>
      <trkpt lat="46.64936" lon="6.3656">
        <ele>1182</ele>
      </trkpt>
      <trkpt lat="46.64967" lon="6.36577">
        <ele>1180.7</ele>
      </trkpt>
      <trkpt lat="46.64967" lon="6.36577">
        <ele>1180.6</ele>
      </trkpt>
      <trkpt lat="46.6498" lon="6.36584">
        <ele>1180</ele>
      </trkpt>
      <trkpt lat="46.6499" lon="6.3659">
        <ele>1179.7</ele>
      </trkpt>
      <trkpt lat="46.65003" lon="6.36604">
        <ele>1180</ele>
      </trkpt>
      <trkpt lat="46.65039" lon="6.36519">
        <ele>1183.1</ele>
      </trkpt>
      <trkpt lat="46.65059" lon="6.36477">
        <ele>1184.4</ele>
      </trkpt>
      <trkpt lat="46.65078" lon="6.36439">
        <ele>1185</ele>
      </trkpt>
      <trkpt lat="46.65082" lon="6.36425">
        <ele>1185.1</ele>
      </trkpt>
      <trkpt lat="46.65073" lon="6.36416">
        <ele>1184.7</ele>
      </trkpt>
      <trkpt lat="46.65081" lon="6.36399">
        <ele>1185.6</ele>
      </trkpt>
      <trkpt lat="46.65094" lon="6.36397">
        <ele>1185.1</ele>
      </trkpt>
      <trkpt lat="46.65114" lon="6.36375">
        <ele>1184.3</ele>
      </trkpt>
      <trkpt lat="46.65137" lon="6.36371">
        <ele>1182.7</ele>
      </trkpt>
      <trkpt lat="46.65175" lon="6.36358">
        <ele>1179.2</ele>
      </trkpt>
      <trkpt lat="46.6521" lon="6.36337">
        <ele>1174.3</ele>
      </trkpt>
      <trkpt lat="46.65245" lon="6.36301">
        <ele>1168.3</ele>
      </trkpt>
      <trkpt lat="46.65262" lon="6.36273">
        <ele>1164.6</ele>
      </trkpt>
      <trkpt lat="46.65265" lon="6.36246">
        <ele>1162.7</ele>
      </trkpt>
      <trkpt lat="46.65259" lon="6.36221">
        <ele>1162.8</ele>
      </trkpt>
      <trkpt lat="46.65262" lon="6.36144">
        <ele>1158.5</ele>
      </trkpt>
      <trkpt lat="46.65268" lon="6.36093">
        <ele>1153.2</ele>
      </trkpt>
      <trkpt lat="46.65259" lon="6.36044">
        <ele>1151.3</ele>
      </trkpt>
      <trkpt lat="46.65259" lon="6.36001">
        <ele>1147.7</ele>
      </trkpt>
      <trkpt lat="46.6525" lon="6.35963">
        <ele>1146.9</ele>
      </trkpt>
      <trkpt lat="46.65235" lon="6.35911">
        <ele>1145.9</ele>
      </trkpt>
      <trkpt lat="46.65221" lon="6.35846">
        <ele>1142.7</ele>
      </trkpt>
      <trkpt lat="46.65214" lon="6.35782">
        <ele>1140</ele>
      </trkpt>
      <trkpt lat="46.65225" lon="6.35734">
        <ele>1136.3</ele>
      </trkpt>
      <trkpt lat="46.65245" lon="6.35646">
        <ele>1136.2</ele>
      </trkpt>
      <trkpt lat="46.65306" lon="6.35566">
        <ele>1133.5</ele>
      </trkpt>
      <trkpt lat="46.65396" lon="6.3545">
        <ele>1129.9</ele>
      </trkpt>
      <trkpt lat="46.65448" lon="6.35434">
        <ele>1125.2</ele>
      </trkpt>
      <trkpt lat="46.65479" lon="6.35425">
        <ele>1123.6</ele>
      </trkpt>
      <trkpt lat="46.65499" lon="6.35404">
        <ele>1122.9</ele>
      </trkpt>
      <trkpt lat="46.65509" lon="6.35373">
        <ele>1122.7</ele>
      </trkpt>
      <trkpt lat="46.65512" lon="6.35347">
        <ele>1122.8</ele>
      </trkpt>
      <trkpt lat="46.65517" lon="6.35321">
        <ele>1122.1</ele>
      </trkpt>
      <trkpt lat="46.65536" lon="6.35288">
        <ele>1120.5</ele>
      </trkpt>
      <trkpt lat="46.65555" lon="6.35267">
        <ele>1120.1</ele>
      </trkpt>
      <trkpt lat="46.65567" lon="6.3526">
        <ele>1120.5</ele>
      </trkpt>
      <trkpt lat="46.65579" lon="6.35256">
        <ele>1121.1</ele>
      </trkpt>
      <trkpt lat="46.65602" lon="6.35252">
        <ele>1121.2</ele>
      </trkpt>
      <trkpt lat="46.65629" lon="6.35245">
        <ele>1120.3</ele>
      </trkpt>
      <trkpt lat="46.6565" lon="6.3523">
        <ele>1118.2</ele>
      </trkpt>
      <trkpt lat="46.65689" lon="6.35168">
        <ele>1110.5</ele>
      </trkpt>
      <trkpt lat="46.65705" lon="6.35138">
        <ele>1111</ele>
      </trkpt>
      <trkpt lat="46.6572" lon="6.35121">
        <ele>1111.3</ele>
      </trkpt>
      <trkpt lat="46.65739" lon="6.35107">
        <ele>1111.6</ele>
      </trkpt>
      <trkpt lat="46.6576" lon="6.351">
        <ele>1111.8</ele>
      </trkpt>
      <trkpt lat="46.65784" lon="6.35091">
        <ele>1112.2</ele>
      </trkpt>
      <trkpt lat="46.658" lon="6.35084">
        <ele>1112.8</ele>
      </trkpt>
      <trkpt lat="46.65833" lon="6.35074">
        <ele>1115.9</ele>
      </trkpt>
      <trkpt lat="46.65856" lon="6.35063">
        <ele>1117.3</ele>
      </trkpt>
      <trkpt lat="46.65878" lon="6.35049">
        <ele>1119.1</ele>
      </trkpt>
      <trkpt lat="46.65899" lon="6.35027">
        <ele>1122.2</ele>
      </trkpt>
      <trkpt lat="46.65934" lon="6.34988">
        <ele>1127</ele>
      </trkpt>
      <trkpt lat="46.65939" lon="6.34981">
        <ele>1127.7</ele>
      </trkpt>
      <trkpt lat="46.65942" lon="6.34974">
        <ele>1128.5</ele>
      </trkpt>
      <trkpt lat="46.6595" lon="6.34948">
        <ele>1131.7</ele>
      </trkpt>
      <trkpt lat="46.65953" lon="6.3494">
        <ele>1132.6</ele>
      </trkpt>
      <trkpt lat="46.65958" lon="6.34933">
        <ele>1133.4</ele>
      </trkpt>
      <trkpt lat="46.65964" lon="6.34927">
        <ele>1133.9</ele>
      </trkpt>
      <trkpt lat="46.65974" lon="6.34922">
        <ele>1134.3</ele>
      </trkpt>
      <trkpt lat="46.65979" lon="6.34919">
        <ele>1134.4</ele>
      </trkpt>
      <trkpt lat="46.65988" lon="6.34915">
        <ele>1134.7</ele>
      </trkpt>
      <trkpt lat="46.66004" lon="6.34908">
        <ele>1135.6</ele>
      </trkpt>
      <trkpt lat="46.66016" lon="6.34903">
        <ele>1137.4</ele>
      </trkpt>
      <trkpt lat="46.66021" lon="6.349">
        <ele>1138.3</ele>
      </trkpt>
      <trkpt lat="46.66026" lon="6.34894">
        <ele>1139.7</ele>
      </trkpt>
      <trkpt lat="46.66028" lon="6.34889">
        <ele>1140.7</ele>
      </trkpt>
      <trkpt lat="46.66028" lon="6.34884">
        <ele>1141.4</ele>
      </trkpt>
      <trkpt lat="46.66024" lon="6.34875">
        <ele>1142.7</ele>
      </trkpt>
      <trkpt lat="46.66021" lon="6.34871">
        <ele>1142.9</ele>
      </trkpt>
      <trkpt lat="46.66009" lon="6.3486">
        <ele>1143.7</ele>
      </trkpt>
      <trkpt lat="46.65996" lon="6.3485">
        <ele>1144.5</ele>
      </trkpt>
      <trkpt lat="46.65988" lon="6.34846">
        <ele>1145.3</ele>
      </trkpt>
      <trkpt lat="46.65983" lon="6.34844">
        <ele>1145.6</ele>
      </trkpt>
      <trkpt lat="46.65979" lon="6.34843">
        <ele>1145.8</ele>
      </trkpt>
      <trkpt lat="46.65951" lon="6.34841">
        <ele>1146.5</ele>
      </trkpt>
      <trkpt lat="46.65931" lon="6.3484">
        <ele>1147</ele>
      </trkpt>
      <trkpt lat="46.65909" lon="6.3484">
        <ele>1148.4</ele>
      </trkpt>
      <trkpt lat="46.65912" lon="6.34823">
        <ele>1149.6</ele>
      </trkpt>
      <trkpt lat="46.65916" lon="6.34798">
        <ele>1150.6</ele>
      </trkpt>
      <trkpt lat="46.65921" lon="6.34775">
        <ele>1152</ele>
      </trkpt>
      <trkpt lat="46.65936" lon="6.34769">
        <ele>1151.5</ele>
      </trkpt>
      <trkpt lat="46.66014" lon="6.34762">
        <ele>1149.2</ele>
      </trkpt>
      <trkpt lat="46.66038" lon="6.34772">
        <ele>1151.5</ele>
      </trkpt>
      <trkpt lat="46.66188" lon="6.34759">
        <ele>1161.7</ele>
      </trkpt>
      <trkpt lat="46.66262" lon="6.34722">
        <ele>1162.6</ele>
      </trkpt>
      <trkpt lat="46.66349" lon="6.34732">
        <ele>1168.4</ele>
      </trkpt>
      <trkpt lat="46.66424" lon="6.34719">
        <ele>1173.5</ele>
      </trkpt>
      <trkpt lat="46.66455" lon="6.34721">
        <ele>1175.1</ele>
      </trkpt>
      <trkpt lat="46.66544" lon="6.34774">
        <ele>1189.4</ele>
      </trkpt>
      <trkpt lat="46.6657" lon="6.34867">
        <ele>1194.7</ele>
      </trkpt>
      <trkpt lat="46.66639" lon="6.34893">
        <ele>1206.8</ele>
      </trkpt>
      <trkpt lat="46.66658" lon="6.34848">
        <ele>1217</ele>
      </trkpt>
      <trkpt lat="46.66684" lon="6.34842">
        <ele>1221.7</ele>
      </trkpt>
      <trkpt lat="46.66748" lon="6.34865">
        <ele>1224.8</ele>
      </trkpt>
      <trkpt lat="46.66762" lon="6.34862">
        <ele>1226.2</ele>
      </trkpt>
      <trkpt lat="46.66778" lon="6.34842">
        <ele>1230.2</ele>
      </trkpt>
      <trkpt lat="46.66808" lon="6.34826">
        <ele>1232.6</ele>
      </trkpt>
      <trkpt lat="46.66846" lon="6.34821">
        <ele>1233.9</ele>
      </trkpt>
      <trkpt lat="46.66898" lon="6.34806">
        <ele>1234.2</ele>
      </trkpt>
      <trkpt lat="46.66945" lon="6.34813">
        <ele>1234.8</ele>
      </trkpt>
      <trkpt lat="46.66974" lon="6.34803">
        <ele>1234.9</ele>
      </trkpt>
      <trkpt lat="46.66996" lon="6.34828">
        <ele>1235.7</ele>
      </trkpt>
      <trkpt lat="46.6703" lon="6.34831">
        <ele>1239.4</ele>
      </trkpt>
      <trkpt lat="46.67021" lon="6.34852">
        <ele>1238</ele>
      </trkpt>
      <trkpt lat="46.67021" lon="6.34879">
        <ele>1237.2</ele>
      </trkpt>
      <trkpt lat="46.67033" lon="6.34923">
        <ele>1239.1</ele>
      </trkpt>
      <trkpt lat="46.67054" lon="6.34951">
        <ele>1244</ele>
      </trkpt>
      <trkpt lat="46.67068" lon="6.34958">
        <ele>1248.1</ele>
      </trkpt>
      <trkpt lat="46.67077" lon="6.34952">
        <ele>1251.1</ele>
      </trkpt>
      <trkpt lat="46.67106" lon="6.34959">
        <ele>1257.3</ele>
      </trkpt>
      <trkpt lat="46.67136" lon="6.34954">
        <ele>1263.2</ele>
      </trkpt>
      <trkpt lat="46.67155" lon="6.34953">
        <ele>1266.8</ele>
      </trkpt>
      <trkpt lat="46.6718" lon="6.34948">
        <ele>1271.8</ele>
      </trkpt>
      <trkpt lat="46.67206" lon="6.3495">
        <ele>1276.8</ele>
      </trkpt>
      <trkpt lat="46.67216" lon="6.34955">
        <ele>1278.7</ele>
      </trkpt>
      <trkpt lat="46.67241" lon="6.34964">
        <ele>1283.9</ele>
      </trkpt>
      <trkpt lat="46.6727" lon="6.34988">
        <ele>1291.1</ele>
      </trkpt>
      <trkpt lat="46.67279" lon="6.34988">
        <ele>1293.1</ele>
      </trkpt>
      <trkpt lat="46.67302" lon="6.34974">
        <ele>1297.8</ele>
      </trkpt>
      <trkpt lat="46.67317" lon="6.3497">
        <ele>1300.9</ele>
      </trkpt>
      <trkpt lat="46.67319" lon="6.34988">
        <ele>1302.2</ele>
      </trkpt>
      <trkpt lat="46.673" lon="6.35023">
        <ele>1299.3</ele>
      </trkpt>
      <trkpt lat="46.67293" lon="6.35041">
        <ele>1298.5</ele>
      </trkpt>
      <trkpt lat="46.67297" lon="6.35042">
        <ele>1299.4</ele>
      </trkpt>
      <trkpt lat="46.67301" lon="6.35044">
        <ele>1300.5</ele>
      </trkpt>
      <trkpt lat="46.67329" lon="6.35038">
        <ele>1306.5</ele>
      </trkpt>
      <trkpt lat="46.67367" lon="6.34997">
        <ele>1314.3</ele>
      </trkpt>
      <trkpt lat="46.67438" lon="6.35">
        <ele>1331.9</ele>
      </trkpt>
      <trkpt lat="46.67513" lon="6.3502">
        <ele>1348.1</ele>
      </trkpt>
      <trkpt lat="46.67553" lon="6.35028">
        <ele>1354</ele>
      </trkpt>
      <trkpt lat="46.67578" lon="6.35025">
        <ele>1357.9</ele>
      </trkpt>
      <trkpt lat="46.67593" lon="6.35024">
        <ele>1360.6</ele>
      </trkpt>
      <trkpt lat="46.67615" lon="6.35018">
        <ele>1365</ele>
      </trkpt>
      <trkpt lat="46.6764" lon="6.35023">
        <ele>1369.4</ele>
      </trkpt>
      <trkpt lat="46.67657" lon="6.35015">
        <ele>1373.2</ele>
      </trkpt>
      <trkpt lat="46.67677" lon="6.35021">
        <ele>1375.5</ele>
      </trkpt>
      <trkpt lat="46.6772" lon="6.35027">
        <ele>1380</ele>
      </trkpt>
      <trkpt lat="46.67721" lon="6.35062">
        <ele>1378.6</ele>
      </trkpt>
      <trkpt lat="46.67733" lon="6.35059">
        <ele>1380.4</ele>
      </trkpt>
      <trkpt lat="46.67761" lon="6.35071">
        <ele>1384</ele>
      </trkpt>
      <trkpt lat="46.6786" lon="6.35088">
        <ele>1397.2</ele>
      </trkpt>
      <trkpt lat="46.67915" lon="6.3509">
        <ele>1402.3</ele>
      </trkpt>
      <trkpt lat="46.67965" lon="6.3507">
        <ele>1407.8</ele>
      </trkpt>
      <trkpt lat="46.67975" lon="6.35066">
        <ele>1408.8</ele>
      </trkpt>
      <trkpt lat="46.67976" lon="6.35067">
        <ele>1408.8</ele>
      </trkpt>
      <trkpt lat="46.67984" lon="6.35079">
        <ele>1409.5</ele>
      </trkpt>
      <trkpt lat="46.68" lon="6.35083">
        <ele>1411</ele>
      </trkpt>
      <trkpt lat="46.68023" lon="6.35062">
        <ele>1413.4</ele>
      </trkpt>
      <trkpt lat="46.6808" lon="6.35061">
        <ele>1418.5</ele>
      </trkpt>
      <trkpt lat="46.681" lon="6.35062">
        <ele>1421.4</ele>
      </trkpt>
      <trkpt lat="46.68144" lon="6.35066">
        <ele>1428</ele>
      </trkpt>
      <trkpt lat="46.68213" lon="6.35064">
        <ele>1438.9</ele>
      </trkpt>
      <trkpt lat="46.6827" lon="6.3508">
        <ele>1449</ele>
      </trkpt>
      <trkpt lat="46.68331" lon="6.35088">
        <ele>1461.2</ele>
      </trkpt>
      <trkpt lat="46.68388" lon="6.35122">
        <ele>1458.2</ele>
      </trkpt>
      <trkpt lat="46.68417" lon="6.35138">
        <ele>1459</ele>
      </trkpt>
      <trkpt lat="46.68446" lon="6.35165">
        <ele>1435.3</ele>
      </trkpt>
      <trkpt lat="46.6848" lon="6.35229">
        <ele>1422.6</ele>
      </trkpt>
      <trkpt lat="46.68482" lon="6.35267">
        <ele>1427.5</ele>
      </trkpt>
      <trkpt lat="46.68479" lon="6.3533">
        <ele>1425.9</ele>
      </trkpt>
      <trkpt lat="46.68467" lon="6.35351">
        <ele>1422.2</ele>
      </trkpt>
      <trkpt lat="46.68472" lon="6.35361">
        <ele>1419.7</ele>
      </trkpt>
      <trkpt lat="46.6849" lon="6.35363">
        <ele>1418.9</ele>
      </trkpt>
      <trkpt lat="46.68524" lon="6.3541">
        <ele>1406.1</ele>
      </trkpt>
      <trkpt lat="46.68607" lon="6.35516">
        <ele>1382.7</ele>
      </trkpt>
      <trkpt lat="46.68634" lon="6.35538">
        <ele>1373.4</ele>
      </trkpt>
      <trkpt lat="46.68676" lon="6.35572">
        <ele>1367.1</ele>
      </trkpt>
      <trkpt lat="46.68689" lon="6.35615">
        <ele>1360.7</ele>
      </trkpt>
      <trkpt lat="46.68735" lon="6.3571">
        <ele>1348.9</ele>
      </trkpt>
      <trkpt lat="46.68805" lon="6.35834">
        <ele>1340.1</ele>
      </trkpt>
      <trkpt lat="46.68809" lon="6.35851">
        <ele>1340.7</ele>
      </trkpt>
      <trkpt lat="46.68814" lon="6.35876">
        <ele>1342.5</ele>
      </trkpt>
      <trkpt lat="46.68871" lon="6.35987">
        <ele>1338.7</ele>
      </trkpt>
      <trkpt lat="46.68908" lon="6.36059">
        <ele>1340.2</ele>
      </trkpt>
      <trkpt lat="46.68954" lon="6.3612">
        <ele>1332.9</ele>
      </trkpt>
      <trkpt lat="46.68965" lon="6.36173">
        <ele>1332.9</ele>
      </trkpt>
      <trkpt lat="46.68977" lon="6.3624">
        <ele>1327.4</ele>
      </trkpt>
      <trkpt lat="46.69007" lon="6.36293">
        <ele>1326.5</ele>
      </trkpt>
      <trkpt lat="46.69039" lon="6.36358">
        <ele>1323.3</ele>
      </trkpt>
      <trkpt lat="46.69039" lon="6.3639">
        <ele>1319.7</ele>
      </trkpt>
      <trkpt lat="46.69029" lon="6.36407">
        <ele>1315.5</ele>
      </trkpt>
      <trkpt lat="46.69032" lon="6.36425">
        <ele>1313.6</ele>
      </trkpt>
      <trkpt lat="46.69076" lon="6.36507">
        <ele>1312.2</ele>
      </trkpt>
      <trkpt lat="46.69138" lon="6.36646">
        <ele>1299.3</ele>
      </trkpt>
      <trkpt lat="46.69218" lon="6.36809">
        <ele>1293.6</ele>
      </trkpt>
      <trkpt lat="46.69282" lon="6.36936">
        <ele>1291.5</ele>
      </trkpt>
      <trkpt lat="46.69337" lon="6.37053">
        <ele>1287.5</ele>
      </trkpt>
      <trkpt lat="46.69345" lon="6.3709">
        <ele>1283.3</ele>
      </trkpt>
      <trkpt lat="46.69345" lon="6.37107">
        <ele>1280.6</ele>
      </trkpt>
      <trkpt lat="46.69329" lon="6.37124">
        <ele>1274.9</ele>
      </trkpt>
      <trkpt lat="46.69323" lon="6.37153">
        <ele>1268.3</ele>
      </trkpt>
      <trkpt lat="46.6933" lon="6.37174">
        <ele>1266.4</ele>
      </trkpt>
      <trkpt lat="46.69339" lon="6.37206">
        <ele>1261.8</ele>
      </trkpt>
      <trkpt lat="46.69363" lon="6.37256">
        <ele>1257.1</ele>
      </trkpt>
      <trkpt lat="46.69385" lon="6.37308">
        <ele>1251.3</ele>
      </trkpt>
      <trkpt lat="46.69406" lon="6.37345">
        <ele>1249.1</ele>
      </trkpt>
      <trkpt lat="46.69416" lon="6.37368">
        <ele>1245.9</ele>
      </trkpt>
      <trkpt lat="46.69429" lon="6.37387">
        <ele>1244.2</ele>
      </trkpt>
      <trkpt lat="46.69469" lon="6.37476">
        <ele>1234.3</ele>
      </trkpt>
      <trkpt lat="46.69515" lon="6.37553">
        <ele>1227.7</ele>
      </trkpt>
      <trkpt lat="46.69553" lon="6.37606">
        <ele>1222.7</ele>
      </trkpt>
      <trkpt lat="46.69577" lon="6.37661">
        <ele>1213.6</ele>
      </trkpt>
      <trkpt lat="46.6959" lon="6.37691">
        <ele>1208.7</ele>
      </trkpt>
      <trkpt lat="46.69589" lon="6.37715">
        <ele>1205.2</ele>
      </trkpt>
      <trkpt lat="46.69588" lon="6.37767">
        <ele>1197.6</ele>
      </trkpt>
      <trkpt lat="46.69589" lon="6.37782">
        <ele>1195.1</ele>
      </trkpt>
      <trkpt lat="46.69593" lon="6.37847">
        <ele>1184.5</ele>
      </trkpt>
      <trkpt lat="46.69589" lon="6.37904">
        <ele>1177.8</ele>
      </trkpt>
      <trkpt lat="46.69583" lon="6.37954">
        <ele>1173.5</ele>
      </trkpt>
      <trkpt lat="46.69585" lon="6.37999">
        <ele>1167.6</ele>
      </trkpt>
      <trkpt lat="46.69597" lon="6.38063">
        <ele>1158.2</ele>
      </trkpt>
      <trkpt lat="46.69619" lon="6.38094">
        <ele>1154.1</ele>
      </trkpt>
      <trkpt lat="46.69652" lon="6.38137">
        <ele>1153</ele>
      </trkpt>
      <trkpt lat="46.6966" lon="6.38175">
        <ele>1153.6</ele>
      </trkpt>
      <trkpt lat="46.69664" lon="6.382">
        <ele>1152.6</ele>
      </trkpt>
      <trkpt lat="46.69684" lon="6.38207">
        <ele>1151.2</ele>
      </trkpt>
      <trkpt lat="46.69689" lon="6.38205">
        <ele>1150.8</ele>
      </trkpt>
      <trkpt lat="46.69691" lon="6.38202">
        <ele>1150.5</ele>
      </trkpt>
      <trkpt lat="46.69691" lon="6.38194">
        <ele>1150.6</ele>
      </trkpt>
      <trkpt lat="46.69691" lon="6.38186">
        <ele>1150.4</ele>
      </trkpt>
      <trkpt lat="46.69693" lon="6.38183">
        <ele>1150.1</ele>
      </trkpt>
      <trkpt lat="46.69698" lon="6.38184">
        <ele>1149.4</ele>
      </trkpt>
      <trkpt lat="46.697" lon="6.38188">
        <ele>1149.2</ele>
      </trkpt>
      <trkpt lat="46.69709" lon="6.3819">
        <ele>1148.2</ele>
      </trkpt>
      <trkpt lat="46.69716" lon="6.38189">
        <ele>1147.2</ele>
      </trkpt>
      <trkpt lat="46.69719" lon="6.38188">
        <ele>1146.8</ele>
      </trkpt>
      <trkpt lat="46.69729" lon="6.38192">
        <ele>1145.8</ele>
      </trkpt>
      <trkpt lat="46.69739" lon="6.38194">
        <ele>1144.8</ele>
      </trkpt>
      <trkpt lat="46.69745" lon="6.38192">
        <ele>1143.8</ele>
      </trkpt>
      <trkpt lat="46.69749" lon="6.38184">
        <ele>1142.1</ele>
      </trkpt>
      <trkpt lat="46.69748" lon="6.38177">
        <ele>1140.9</ele>
      </trkpt>
      <trkpt lat="46.6975" lon="6.38166">
        <ele>1138.9</ele>
      </trkpt>
      <trkpt lat="46.69756" lon="6.38158">
        <ele>1134.8</ele>
      </trkpt>
      <trkpt lat="46.6976" lon="6.38148">
        <ele>1131.3</ele>
      </trkpt>
      <trkpt lat="46.69758" lon="6.38133">
        <ele>1128.7</ele>
      </trkpt>
      <trkpt lat="46.69761" lon="6.38122">
        <ele>1125</ele>
      </trkpt>
      <trkpt lat="46.69759" lon="6.38103">
        <ele>1121.7</ele>
      </trkpt>
      <trkpt lat="46.69768" lon="6.38082">
        <ele>1114</ele>
      </trkpt>
      <trkpt lat="46.69768" lon="6.38042">
        <ele>1107.6</ele>
      </trkpt>
      <trkpt lat="46.69768" lon="6.38012">
        <ele>1103</ele>
      </trkpt>
      <trkpt lat="46.69761" lon="6.37987">
        <ele>1102.9</ele>
      </trkpt>
      <trkpt lat="46.69761" lon="6.37933">
        <ele>1103.2</ele>
      </trkpt>
      <trkpt lat="46.6977" lon="6.37914">
        <ele>1101.1</ele>
      </trkpt>
      <trkpt lat="46.69782" lon="6.37901">
        <ele>1099.1</ele>
      </trkpt>
      <trkpt lat="46.69801" lon="6.37869">
        <ele>1095.8</ele>
      </trkpt>
      <trkpt lat="46.6981" lon="6.3784">
        <ele>1094.3</ele>
      </trkpt>
      <trkpt lat="46.69815" lon="6.37827">
        <ele>1093.4</ele>
      </trkpt>
      <trkpt lat="46.69814" lon="6.37774">
        <ele>1097.6</ele>
      </trkpt>
      <trkpt lat="46.6983" lon="6.37732">
        <ele>1093.3</ele>
      </trkpt>
      <trkpt lat="46.69884" lon="6.37629">
        <ele>1075.5</ele>
      </trkpt>
      <trkpt lat="46.69901" lon="6.37597">
        <ele>1070.2</ele>
      </trkpt>
      <trkpt lat="46.69905" lon="6.37581">
        <ele>1069.3</ele>
      </trkpt>
      <trkpt lat="46.69915" lon="6.37522">
        <ele>1068.5</ele>
      </trkpt>
      <trkpt lat="46.69921" lon="6.37503">
        <ele>1067</ele>
      </trkpt>
      <trkpt lat="46.69933" lon="6.37467">
        <ele>1063</ele>
      </trkpt>
      <trkpt lat="46.69968" lon="6.37373">
        <ele>1050.1</ele>
      </trkpt>
      <trkpt lat="46.69988" lon="6.37302">
        <ele>1041.8</ele>
      </trkpt>
      <trkpt lat="46.69998" lon="6.37258">
        <ele>1037.7</ele>
      </trkpt>
      <trkpt lat="46.70008" lon="6.37214">
        <ele>1032.3</ele>
      </trkpt>
      <trkpt lat="46.70023" lon="6.37154">
        <ele>1022.7</ele>
      </trkpt>
      <trkpt lat="46.70025" lon="6.37128">
        <ele>1020</ele>
      </trkpt>
      <trkpt lat="46.70023" lon="6.37099">
        <ele>1019.9</ele>
      </trkpt>
      <trkpt lat="46.70012" lon="6.3707">
        <ele>1022.8</ele>
      </trkpt>
      <trkpt lat="46.70008" lon="6.37057">
        <ele>1022.5</ele>
      </trkpt>
      <trkpt lat="46.69995" lon="6.3699">
        <ele>1016.1</ele>
      </trkpt>
      <trkpt lat="46.69978" lon="6.36943">
        <ele>1012.7</ele>
      </trkpt>
      <trkpt lat="46.69966" lon="6.36903">
        <ele>1008.3</ele>
      </trkpt>
      <trkpt lat="46.69957" lon="6.36857">
        <ele>1002.1</ele>
      </trkpt>
      <trkpt lat="46.69946" lon="6.36813">
        <ele>997.3</ele>
      </trkpt>
      <trkpt lat="46.69928" lon="6.3677">
        <ele>995.2</ele>
      </trkpt>
      <trkpt lat="46.69924" lon="6.36742">
        <ele>990.5</ele>
      </trkpt>
      <trkpt lat="46.69924" lon="6.36729">
        <ele>987.1</ele>
      </trkpt>
      <trkpt lat="46.69928" lon="6.36724">
        <ele>983.7</ele>
      </trkpt>
      <trkpt lat="46.69937" lon="6.36727">
        <ele>980</ele>
      </trkpt>
      <trkpt lat="46.69991" lon="6.36772">
        <ele>965.8</ele>
      </trkpt>
      <trkpt lat="46.70021" lon="6.36798">
        <ele>957.9</ele>
      </trkpt>
      <trkpt lat="46.70038" lon="6.36825">
        <ele>957</ele>
      </trkpt>
      <trkpt lat="46.70056" lon="6.36844">
        <ele>954</ele>
      </trkpt>
      <trkpt lat="46.70085" lon="6.36885">
        <ele>951.3</ele>
      </trkpt>
      <trkpt lat="46.70127" lon="6.36918">
        <ele>936.5</ele>
      </trkpt>
      <trkpt lat="46.7015" lon="6.36946">
        <ele>927.7</ele>
      </trkpt>
      <trkpt lat="46.70185" lon="6.36994">
        <ele>917.8</ele>
      </trkpt>
      <trkpt lat="46.70205" lon="6.37048">
        <ele>913.6</ele>
      </trkpt>
      <trkpt lat="46.70223" lon="6.37057">
        <ele>908.1</ele>
      </trkpt>
      <trkpt lat="46.70236" lon="6.37061">
        <ele>903.6</ele>
      </trkpt>
      <trkpt lat="46.70231" lon="6.37101">
        <ele>905.6</ele>
      </trkpt>
      <trkpt lat="46.70235" lon="6.37148">
        <ele>903.6</ele>
      </trkpt>
      <trkpt lat="46.70231" lon="6.37239">
        <ele>910.4</ele>
      </trkpt>
      <trkpt lat="46.70231" lon="6.37337">
        <ele>918.6</ele>
      </trkpt>
      <trkpt lat="46.70226" lon="6.37366">
        <ele>922.9</ele>
      </trkpt>
      <trkpt lat="46.7022" lon="6.37389">
        <ele>927.8</ele>
      </trkpt>
      <trkpt lat="46.70222" lon="6.37405">
        <ele>927.2</ele>
      </trkpt>
      <trkpt lat="46.70235" lon="6.37417">
        <ele>920.5</ele>
      </trkpt>
      <trkpt lat="46.70245" lon="6.37434">
        <ele>916.7</ele>
      </trkpt>
      <trkpt lat="46.70248" lon="6.37448">
        <ele>917.1</ele>
      </trkpt>
      <trkpt lat="46.70262" lon="6.37468">
        <ele>913.5</ele>
      </trkpt>
      <trkpt lat="46.70289" lon="6.37491">
        <ele>905.2</ele>
      </trkpt>
      <trkpt lat="46.70299" lon="6.37511">
        <ele>902.2</ele>
      </trkpt>
      <trkpt lat="46.70304" lon="6.37546">
        <ele>901</ele>
      </trkpt>
      <trkpt lat="46.70308" lon="6.37581">
        <ele>900.4</ele>
      </trkpt>
      <trkpt lat="46.70303" lon="6.37601">
        <ele>902.4</ele>
      </trkpt>
      <trkpt lat="46.70299" lon="6.37626">
        <ele>904.5</ele>
      </trkpt>
      <trkpt lat="46.703" lon="6.3765">
        <ele>903.8</ele>
      </trkpt>
      <trkpt lat="46.70308" lon="6.37668">
        <ele>900</ele>
      </trkpt>
      <trkpt lat="46.7032" lon="6.37682">
        <ele>896.5</ele>
      </trkpt>
      <trkpt lat="46.70335" lon="6.37687">
        <ele>890.8</ele>
      </trkpt>
      <trkpt lat="46.70342" lon="6.37684">
        <ele>888.2</ele>
      </trkpt>
      <trkpt lat="46.70349" lon="6.37677">
        <ele>884.5</ele>
      </trkpt>
      <trkpt lat="46.70354" lon="6.37675">
        <ele>882.6</ele>
      </trkpt>
      <trkpt lat="46.70358" lon="6.37666">
        <ele>879.9</ele>
      </trkpt>
      <trkpt lat="46.7036" lon="6.37656">
        <ele>879.2</ele>
      </trkpt>
      <trkpt lat="46.70359" lon="6.37622">
        <ele>878.8</ele>
      </trkpt>
      <trkpt lat="46.70358" lon="6.37598">
        <ele>878.6</ele>
      </trkpt>
      <trkpt lat="46.70367" lon="6.37584">
        <ele>874.8</ele>
      </trkpt>
      <trkpt lat="46.70383" lon="6.37587">
        <ele>868.6</ele>
      </trkpt>
      <trkpt lat="46.70405" lon="6.37582">
        <ele>859.7</ele>
      </trkpt>
      <trkpt lat="46.70418" lon="6.37587">
        <ele>854.6</ele>
      </trkpt>
      <trkpt lat="46.70426" lon="6.37608">
        <ele>853.1</ele>
      </trkpt>
      <trkpt lat="46.70439" lon="6.37666">
        <ele>851.7</ele>
      </trkpt>
      <trkpt lat="46.70461" lon="6.37709">
        <ele>845.2</ele>
      </trkpt>
      <trkpt lat="46.70473" lon="6.37737">
        <ele>841.2</ele>
      </trkpt>
      <trkpt lat="46.70481" lon="6.37773">
        <ele>839</ele>
      </trkpt>
      <trkpt lat="46.70492" lon="6.37805">
        <ele>835.2</ele>
      </trkpt>
      <trkpt lat="46.70506" lon="6.37831">
        <ele>829.4</ele>
      </trkpt>
      <trkpt lat="46.70547" lon="6.37975">
        <ele>819.4</ele>
      </trkpt>
      <trkpt lat="46.70547" lon="6.37975">
        <ele>819.4</ele>
      </trkpt>
      <trkpt lat="46.70565" lon="6.37996">
        <ele>812.1</ele>
      </trkpt>
      <trkpt lat="46.70581" lon="6.37999">
        <ele>805.1</ele>
      </trkpt>
      <trkpt lat="46.70581" lon="6.37999">
        <ele>805.1</ele>
      </trkpt>
      <trkpt lat="46.70663" lon="6.37947">
        <ele>784.8</ele>
      </trkpt>
      <trkpt lat="46.70663" lon="6.37947">
        <ele>784.8</ele>
      </trkpt>
      <trkpt lat="46.70734" lon="6.37899">
        <ele>773.7</ele>
      </trkpt>
      <trkpt lat="46.70734" lon="6.37899">
        <ele>773.7</ele>
      </trkpt>
      <trkpt lat="46.70765" lon="6.37885">
        <ele>770.3</ele>
      </trkpt>
      <trkpt lat="46.70765" lon="6.37885">
        <ele>770.3</ele>
      </trkpt>
      <trkpt lat="46.70823" lon="6.37878">
        <ele>766.6</ele>
      </trkpt>
      <trkpt lat="46.70823" lon="6.37878">
        <ele>766.6</ele>
      </trkpt>
      <trkpt lat="46.70893" lon="6.37876">
        <ele>761.7</ele>
      </trkpt>
      <trkpt lat="46.70893" lon="6.37876">
        <ele>761.7</ele>
      </trkpt>
      <trkpt lat="46.70973" lon="6.37896">
        <ele>757</ele>
      </trkpt>
      <trkpt lat="46.70973" lon="6.37896">
        <ele>757</ele>
      </trkpt>
      <trkpt lat="46.70941" lon="6.37803">
        <ele>757.1</ele>
      </trkpt>
      <trkpt lat="46.70941" lon="6.37803">
        <ele>757.1</ele>
      </trkpt>
      <trkpt lat="46.70963" lon="6.37768">
        <ele>753.6</ele>
      </trkpt>
      <trkpt lat="46.70963" lon="6.37768">
        <ele>753.6</ele>
      </trkpt>
      <trkpt lat="46.70991" lon="6.37739">
        <ele>749.1</ele>
      </trkpt>
      <trkpt lat="46.70991" lon="6.37739">
        <ele>749.1</ele>
      </trkpt>
      <trkpt lat="46.70991" lon="6.37673">
        <ele>748.3</ele>
      </trkpt>
      <trkpt lat="46.70991" lon="6.37673">
        <ele>748.3</ele>
      </trkpt>
      <trkpt lat="46.71002" lon="6.37644">
        <ele>747.4</ele>
      </trkpt>
      <trkpt lat="46.71002" lon="6.37644">
        <ele>747.4</ele>
      </trkpt>
      <trkpt lat="46.71073" lon="6.37619">
        <ele>751.6</ele>
      </trkpt>
      <trkpt lat="46.71073" lon="6.37619">
        <ele>751.6</ele>
      </trkpt>
      <trkpt lat="46.71152" lon="6.37572">
        <ele>759.7</ele>
      </trkpt>
      <trkpt lat="46.71152" lon="6.37572">
        <ele>759.7</ele>
      </trkpt>
      <trkpt lat="46.71181" lon="6.37596">
        <ele>762</ele>
      </trkpt>
      <trkpt lat="46.71181" lon="6.37596">
        <ele>762</ele>
      </trkpt>
      <trkpt lat="46.71201" lon="6.3761">
        <ele>763.5</ele>
      </trkpt>
      <trkpt lat="46.71201" lon="6.3761">
        <ele>763.5</ele>
      </trkpt>
      <trkpt lat="46.71234" lon="6.3777">
        <ele>761.1</ele>
      </trkpt>
      <trkpt lat="46.71234" lon="6.3777">
        <ele>761.1</ele>
      </trkpt>
      <trkpt lat="46.71327" lon="6.37737">
        <ele>775.9</ele>
      </trkpt>
      <trkpt lat="46.71327" lon="6.37737">
        <ele>775.9</ele>
      </trkpt>
      <trkpt lat="46.71323" lon="6.37718">
        <ele>776.4</ele>
      </trkpt>
      <trkpt lat="46.71323" lon="6.37718">
        <ele>776.4</ele>
      </trkpt>
      <trkpt lat="46.71369" lon="6.37689">
        <ele>787.5</ele>
      </trkpt>
      <trkpt lat="46.71369" lon="6.37689">
        <ele>787.5</ele>
      </trkpt>
      <trkpt lat="46.71395" lon="6.37805">
        <ele>784.2</ele>
      </trkpt>
      <trkpt lat="46.71395" lon="6.37805">
        <ele>784.2</ele>
      </trkpt>
      <trkpt lat="46.71415" lon="6.37788">
        <ele>788.4</ele>
      </trkpt>
      <trkpt lat="46.71415" lon="6.37788">
        <ele>788.4</ele>
      </trkpt>
      <trkpt lat="46.71419" lon="6.37822">
        <ele>786.4</ele>
      </trkpt>
      <trkpt lat="46.71419" lon="6.37822">
        <ele>786.4</ele>
      </trkpt>
      <trkpt lat="46.71426" lon="6.37819">
        <ele>788.1</ele>
      </trkpt>
      <trkpt lat="46.71426" lon="6.37819">
        <ele>788.1</ele>
      </trkpt>
      <trkpt lat="46.71432" lon="6.37833">
        <ele>788.1</ele>
      </trkpt>
      <trkpt lat="46.71432" lon="6.37833">
        <ele>788.1</ele>
      </trkpt>
      <trkpt lat="46.71445" lon="6.37824">
        <ele>791.3</ele>
      </trkpt>
      <trkpt lat="46.71445" lon="6.37824">
        <ele>791.3</ele>
      </trkpt>
      <trkpt lat="46.71441" lon="6.37721">
        <ele>798</ele>
      </trkpt>
      <trkpt lat="46.71441" lon="6.37721">
        <ele>798</ele>
      </trkpt>
      <trkpt lat="46.71454" lon="6.37704">
        <ele>800.9</ele>
      </trkpt>
      <trkpt lat="46.71466" lon="6.37752">
        <ele>800.2</ele>
      </trkpt>
      <trkpt lat="46.71472" lon="6.37777">
        <ele>799.6</ele>
      </trkpt>
      <trkpt lat="46.71487" lon="6.3783">
        <ele>799.5</ele>
      </trkpt>
      <trkpt lat="46.71493" lon="6.37843">
        <ele>799.9</ele>
      </trkpt>
      <trkpt lat="46.71499" lon="6.37857">
        <ele>800.1</ele>
      </trkpt>
      <trkpt lat="46.71509" lon="6.3788">
        <ele>799.9</ele>
      </trkpt>
      <trkpt lat="46.71538" lon="6.37966">
        <ele>799</ele>
      </trkpt>
      <trkpt lat="46.71545" lon="6.37987">
        <ele>799.1</ele>
      </trkpt>
      <trkpt lat="46.71562" lon="6.38043">
        <ele>800.1</ele>
      </trkpt>
      <trkpt lat="46.71573" lon="6.38096">
        <ele>799.8</ele>
      </trkpt>
      <trkpt lat="46.71581" lon="6.38174">
        <ele>798.5</ele>
      </trkpt>
      <trkpt lat="46.71582" lon="6.38213">
        <ele>798.1</ele>
      </trkpt>
      <trkpt lat="46.71584" lon="6.38236">
        <ele>798.3</ele>
      </trkpt>
      <trkpt lat="46.71589" lon="6.38277">
        <ele>798.1</ele>
      </trkpt>
      <trkpt lat="46.71593" lon="6.38301">
        <ele>797.8</ele>
      </trkpt>
      <trkpt lat="46.71599" lon="6.38335">
        <ele>797.5</ele>
      </trkpt>
      <trkpt lat="46.71605" lon="6.38366">
        <ele>797.2</ele>
      </trkpt>
      <trkpt lat="46.71618" lon="6.3842">
        <ele>796.9</ele>
      </trkpt>
      <trkpt lat="46.71641" lon="6.38483">
        <ele>797.8</ele>
      </trkpt>
      <trkpt lat="46.7167" lon="6.38556">
        <ele>799.8</ele>
      </trkpt>
      <trkpt lat="46.71682" lon="6.38577">
        <ele>800.2</ele>
      </trkpt>
      <trkpt lat="46.71687" lon="6.38575">
        <ele>801</ele>
      </trkpt>
      <trkpt lat="46.71696" lon="6.38576">
        <ele>802.1</ele>
      </trkpt>
      <trkpt lat="46.71741" lon="6.38644">
        <ele>799.6</ele>
      </trkpt>
      <trkpt lat="46.71747" lon="6.38639">
        <ele>801</ele>
      </trkpt>
      <trkpt lat="46.71752" lon="6.38634">
        <ele>802.1</ele>
      </trkpt>
      <trkpt lat="46.71754" lon="6.3863">
        <ele>802.7</ele>
      </trkpt>
      <trkpt lat="46.71765" lon="6.38614">
        <ele>805.8</ele>
      </trkpt>
      <trkpt lat="46.71771" lon="6.38609">
        <ele>807.1</ele>
      </trkpt>
      <trkpt lat="46.71776" lon="6.38606">
        <ele>807.9</ele>
      </trkpt>
      <trkpt lat="46.71787" lon="6.38608">
        <ele>808.8</ele>
      </trkpt>
      <trkpt lat="46.71823" lon="6.38621">
        <ele>810.3</ele>
      </trkpt>
      <trkpt lat="46.71831" lon="6.38622">
        <ele>810.9</ele>
      </trkpt>
      <trkpt lat="46.71835" lon="6.38621">
        <ele>811.3</ele>
      </trkpt>
      <trkpt lat="46.71841" lon="6.38617">
        <ele>812.3</ele>
      </trkpt>
      <trkpt lat="46.71847" lon="6.38606">
        <ele>814.5</ele>
      </trkpt>
      <trkpt lat="46.71849" lon="6.38601">
        <ele>815.3</ele>
      </trkpt>
      <trkpt lat="46.7185" lon="6.3859">
        <ele>817.3</ele>
      </trkpt>
      <trkpt lat="46.7194" lon="6.38623">
        <ele>816.9</ele>
      </trkpt>
      <trkpt lat="46.71953" lon="6.38629">
        <ele>817.4</ele>
      </trkpt>
      <trkpt lat="46.71968" lon="6.38651">
        <ele>816.5</ele>
      </trkpt>
      <trkpt lat="46.71987" lon="6.38663">
        <ele>817.7</ele>
      </trkpt>
      <trkpt lat="46.72018" lon="6.38691">
        <ele>816.8</ele>
      </trkpt>
      <trkpt lat="46.72037" lon="6.3871">
        <ele>815.9</ele>
      </trkpt>
      <trkpt lat="46.72079" lon="6.38749">
        <ele>815.3</ele>
      </trkpt>
      <trkpt lat="46.72094" lon="6.38767">
        <ele>815.1</ele>
      </trkpt>
      <trkpt lat="46.7212" lon="6.38804">
        <ele>813.5</ele>
      </trkpt>
      <trkpt lat="46.72126" lon="6.38813">
        <ele>813</ele>
      </trkpt>
      <trkpt lat="46.72132" lon="6.38822">
        <ele>812.7</ele>
      </trkpt>
      <trkpt lat="46.72149" lon="6.38845">
        <ele>811.5</ele>
      </trkpt>
      <trkpt lat="46.72166" lon="6.38869">
        <ele>810.9</ele>
      </trkpt>
      <trkpt lat="46.72198" lon="6.38926">
        <ele>809</ele>
      </trkpt>
      <trkpt lat="46.72218" lon="6.38964">
        <ele>806.7</ele>
      </trkpt>
      <trkpt lat="46.72248" lon="6.39007">
        <ele>804.2</ele>
      </trkpt>
      <trkpt lat="46.72262" lon="6.39027">
        <ele>803.4</ele>
      </trkpt>
      <trkpt lat="46.72269" lon="6.39041">
        <ele>802.7</ele>
      </trkpt>
      <trkpt lat="46.72284" lon="6.39063">
        <ele>801.8</ele>
      </trkpt>
      <trkpt lat="46.72296" lon="6.3907">
        <ele>802.1</ele>
      </trkpt>
      <trkpt lat="46.72306" lon="6.3907">
        <ele>803</ele>
      </trkpt>
      <trkpt lat="46.72327" lon="6.39065">
        <ele>805.2</ele>
      </trkpt>
      <trkpt lat="46.72341" lon="6.39062">
        <ele>806.7</ele>
      </trkpt>
      <trkpt lat="46.72347" lon="6.39063">
        <ele>807.2</ele>
      </trkpt>
      <trkpt lat="46.72373" lon="6.3907">
        <ele>809</ele>
      </trkpt>
      <trkpt lat="46.72383" lon="6.39078">
        <ele>809.6</ele>
      </trkpt>
      <trkpt lat="46.72402" lon="6.391">
        <ele>811.1</ele>
      </trkpt>
      <trkpt lat="46.72415" lon="6.39126">
        <ele>812.3</ele>
      </trkpt>
      <trkpt lat="46.7243" lon="6.39155">
        <ele>812.8</ele>
      </trkpt>
      <trkpt lat="46.72458" lon="6.3921">
        <ele>811.6</ele>
      </trkpt>
      <trkpt lat="46.72465" lon="6.39224">
        <ele>811.1</ele>
      </trkpt>
      <trkpt lat="46.72479" lon="6.39243">
        <ele>810.2</ele>
      </trkpt>
      <trkpt lat="46.72499" lon="6.39255">
        <ele>809.3</ele>
      </trkpt>
      <trkpt lat="46.72513" lon="6.39257">
        <ele>808.1</ele>
      </trkpt>
      <trkpt lat="46.72546" lon="6.39263">
        <ele>805</ele>
      </trkpt>
      <trkpt lat="46.72566" lon="6.39266">
        <ele>803</ele>
      </trkpt>
      <trkpt lat="46.72579" lon="6.39266">
        <ele>802.2</ele>
      </trkpt>
      <trkpt lat="46.72599" lon="6.39266">
        <ele>801.1</ele>
      </trkpt>
      <trkpt lat="46.72611" lon="6.39265">
        <ele>800.6</ele>
      </trkpt>
      <trkpt lat="46.72629" lon="6.39282">
        <ele>798.6</ele>
      </trkpt>
      <trkpt lat="46.72641" lon="6.39297">
        <ele>797.5</ele>
      </trkpt>
      <trkpt lat="46.7265" lon="6.39334">
        <ele>796.2</ele>
      </trkpt>
      <trkpt lat="46.72667" lon="6.39365">
        <ele>804.2</ele>
      </trkpt>
      <trkpt lat="46.72672" lon="6.39373">
        <ele>807.4</ele>
      </trkpt>
      <trkpt lat="46.72659" lon="6.39384">
        <ele>807.4</ele>
      </trkpt>
      <trkpt lat="46.72648" lon="6.39386">
        <ele>805.9</ele>
      </trkpt>
      <trkpt lat="46.7264" lon="6.39419">
        <ele>810.1</ele>
      </trkpt>
      <trkpt lat="46.72632" lon="6.39453">
        <ele>817</ele>
      </trkpt>
      <trkpt lat="46.72614" lon="6.39499">
        <ele>825.2</ele>
      </trkpt>
      <trkpt lat="46.72599" lon="6.39523">
        <ele>827.4</ele>
      </trkpt>
      <trkpt lat="46.72581" lon="6.39546">
        <ele>828.7</ele>
      </trkpt>
      <trkpt lat="46.72564" lon="6.39569">
        <ele>829</ele>
      </trkpt>
      <trkpt lat="46.72551" lon="6.39591">
        <ele>829.8</ele>
      </trkpt>
      <trkpt lat="46.72548" lon="6.396">
        <ele>830.5</ele>
      </trkpt>
      <trkpt lat="46.72543" lon="6.39609">
        <ele>830.5</ele>
      </trkpt>
      <trkpt lat="46.72534" lon="6.39627">
        <ele>831.1</ele>
      </trkpt>
      <trkpt lat="46.72506" lon="6.39703">
        <ele>837</ele>
      </trkpt>
      <trkpt lat="46.725" lon="6.39716">
        <ele>838.1</ele>
      </trkpt>
      <trkpt lat="46.7249" lon="6.39722">
        <ele>836.2</ele>
      </trkpt>
      <trkpt lat="46.72475" lon="6.39737">
        <ele>834.9</ele>
      </trkpt>
      <trkpt lat="46.72459" lon="6.39755">
        <ele>833.5</ele>
      </trkpt>
      <trkpt lat="46.72441" lon="6.39769">
        <ele>830.5</ele>
      </trkpt>
      <trkpt lat="46.7241" lon="6.39805">
        <ele>827</ele>
      </trkpt>
      <trkpt lat="46.7239" lon="6.39849">
        <ele>823.3</ele>
      </trkpt>
      <trkpt lat="46.72373" lon="6.39896">
        <ele>818.4</ele>
      </trkpt>
      <trkpt lat="46.72362" lon="6.39939">
        <ele>815</ele>
      </trkpt>
      <trkpt lat="46.72359" lon="6.39977">
        <ele>813.3</ele>
      </trkpt>
      <trkpt lat="46.72366" lon="6.40029">
        <ele>815.2</ele>
      </trkpt>
      <trkpt lat="46.72366" lon="6.40034">
        <ele>815.5</ele>
      </trkpt>
      <trkpt lat="46.72373" lon="6.40074">
        <ele>818.2</ele>
      </trkpt>
      <trkpt lat="46.72382" lon="6.40165">
        <ele>815.8</ele>
      </trkpt>
      <trkpt lat="46.72394" lon="6.4023">
        <ele>817.1</ele>
      </trkpt>
      <trkpt lat="46.72405" lon="6.40286">
        <ele>817.9</ele>
      </trkpt>
      <trkpt lat="46.72416" lon="6.40314">
        <ele>821.7</ele>
      </trkpt>
      <trkpt lat="46.72426" lon="6.40334">
        <ele>821.4</ele>
      </trkpt>
      <trkpt lat="46.72446" lon="6.40366">
        <ele>818.1</ele>
      </trkpt>
      <trkpt lat="46.72453" lon="6.40382">
        <ele>816.2</ele>
      </trkpt>
      <trkpt lat="46.72459" lon="6.40402">
        <ele>813.9</ele>
      </trkpt>
      <trkpt lat="46.72468" lon="6.40431">
        <ele>812.3</ele>
      </trkpt>
      <trkpt lat="46.72477" lon="6.40457">
        <ele>812.6</ele>
      </trkpt>
      <trkpt lat="46.72482" lon="6.40467">
        <ele>813.2</ele>
      </trkpt>
      <trkpt lat="46.72488" lon="6.40476">
        <ele>814</ele>
      </trkpt>
      <trkpt lat="46.72498" lon="6.40488">
        <ele>815.6</ele>
      </trkpt>
      <trkpt lat="46.72506" lon="6.40496">
        <ele>816.7</ele>
      </trkpt>
      <trkpt lat="46.72512" lon="6.40504">
        <ele>817.6</ele>
      </trkpt>
      <trkpt lat="46.72514" lon="6.4051">
        <ele>818</ele>
      </trkpt>
      <trkpt lat="46.72514" lon="6.40517">
        <ele>818</ele>
      </trkpt>
      <trkpt lat="46.72513" lon="6.40525">
        <ele>817.5</ele>
      </trkpt>
      <trkpt lat="46.72503" lon="6.40548">
        <ele>815.2</ele>
      </trkpt>
      <trkpt lat="46.72484" lon="6.40566">
        <ele>809.7</ele>
      </trkpt>
      <trkpt lat="46.72487" lon="6.4056">
        <ele>810.6</ele>
      </trkpt>
      <trkpt lat="46.72489" lon="6.40557">
        <ele>811.2</ele>
      </trkpt>
      <trkpt lat="46.72494" lon="6.40554">
        <ele>812.7</ele>
      </trkpt>
      <trkpt lat="46.72501" lon="6.40556">
        <ele>814.6</ele>
      </trkpt>
      <trkpt lat="46.72511" lon="6.40575">
        <ele>816.6</ele>
      </trkpt>
      <trkpt lat="46.72527" lon="6.406">
        <ele>819.9</ele>
      </trkpt>
      <trkpt lat="46.72539" lon="6.40616">
        <ele>822.1</ele>
      </trkpt>
      <trkpt lat="46.72543" lon="6.40624">
        <ele>822.8</ele>
      </trkpt>
      <trkpt lat="46.72545" lon="6.40631">
        <ele>823.1</ele>
      </trkpt>
      <trkpt lat="46.72547" lon="6.40641">
        <ele>823.3</ele>
      </trkpt>
      <trkpt lat="46.72549" lon="6.4066">
        <ele>823.3</ele>
      </trkpt>
      <trkpt lat="46.72551" lon="6.40679">
        <ele>823.4</ele>
      </trkpt>
      <trkpt lat="46.72556" lon="6.40697">
        <ele>824.2</ele>
      </trkpt>
      <trkpt lat="46.72562" lon="6.40717">
        <ele>825.4</ele>
      </trkpt>
      <trkpt lat="46.72568" lon="6.40731">
        <ele>826.6</ele>
      </trkpt>
      <trkpt lat="46.72576" lon="6.40747">
        <ele>828.3</ele>
      </trkpt>
      <trkpt lat="46.72587" lon="6.40766">
        <ele>829.9</ele>
      </trkpt>
      <trkpt lat="46.72596" lon="6.40777">
        <ele>830.8</ele>
      </trkpt>
      <trkpt lat="46.72605" lon="6.40787">
        <ele>831.9</ele>
      </trkpt>
      <trkpt lat="46.72616" lon="6.40797">
        <ele>833</ele>
      </trkpt>
      <trkpt lat="46.72625" lon="6.40805">
        <ele>833.9</ele>
      </trkpt>
      <trkpt lat="46.72638" lon="6.40811">
        <ele>835.4</ele>
      </trkpt>
      <trkpt lat="46.72651" lon="6.40815">
        <ele>837.1</ele>
      </trkpt>
      <trkpt lat="46.72662" lon="6.40821">
        <ele>838</ele>
      </trkpt>
      <trkpt lat="46.72677" lon="6.4082">
        <ele>840.7</ele>
      </trkpt>
      <trkpt lat="46.72696" lon="6.40822">
        <ele>843.3</ele>
      </trkpt>
      <trkpt lat="46.72705" lon="6.40824">
        <ele>844.6</ele>
      </trkpt>
      <trkpt lat="46.72714" lon="6.40828">
        <ele>845.5</ele>
      </trkpt>
      <trkpt lat="46.72722" lon="6.40835">
        <ele>846</ele>
      </trkpt>
      <trkpt lat="46.72736" lon="6.40851">
        <ele>845.5</ele>
      </trkpt>
      <trkpt lat="46.72753" lon="6.40869">
        <ele>845.3</ele>
      </trkpt>
      <trkpt lat="46.72774" lon="6.40894">
        <ele>843.8</ele>
      </trkpt>
      <trkpt lat="46.72789" lon="6.40909">
        <ele>843.4</ele>
      </trkpt>
      <trkpt lat="46.72803" lon="6.40922">
        <ele>843.3</ele>
      </trkpt>
      <trkpt lat="46.7281" lon="6.40925">
        <ele>843.9</ele>
      </trkpt>
      <trkpt lat="46.72815" lon="6.40925">
        <ele>844.5</ele>
      </trkpt>
      <trkpt lat="46.72818" lon="6.40923">
        <ele>845.2</ele>
      </trkpt>
      <trkpt lat="46.72822" lon="6.40919">
        <ele>846.2</ele>
      </trkpt>
      <trkpt lat="46.7283" lon="6.40912">
        <ele>848.1</ele>
      </trkpt>
      <trkpt lat="46.72836" lon="6.40906">
        <ele>849.7</ele>
      </trkpt>
      <trkpt lat="46.72845" lon="6.40899">
        <ele>851.7</ele>
      </trkpt>
      <trkpt lat="46.72856" lon="6.40891">
        <ele>853.9</ele>
      </trkpt>
      <trkpt lat="46.72877" lon="6.40879">
        <ele>857.7</ele>
      </trkpt>
      <trkpt lat="46.72902" lon="6.40868">
        <ele>861.4</ele>
      </trkpt>
      <trkpt lat="46.72907" lon="6.40867">
        <ele>862.1</ele>
      </trkpt>
      <trkpt lat="46.72913" lon="6.40868">
        <ele>862.6</ele>
      </trkpt>
      <trkpt lat="46.7292" lon="6.40869">
        <ele>863</ele>
      </trkpt>
      <trkpt lat="46.72928" lon="6.40872">
        <ele>863.4</ele>
      </trkpt>
      <trkpt lat="46.72935" lon="6.40875">
        <ele>863.8</ele>
      </trkpt>
      <trkpt lat="46.72949" lon="6.40881">
        <ele>864.6</ele>
      </trkpt>
      <trkpt lat="46.72968" lon="6.40888">
        <ele>865.9</ele>
      </trkpt>
      <trkpt lat="46.72985" lon="6.40894">
        <ele>867.4</ele>
      </trkpt>
      <trkpt lat="46.72989" lon="6.40894">
        <ele>867.9</ele>
      </trkpt>
      <trkpt lat="46.72998" lon="6.40896">
        <ele>868.8</ele>
      </trkpt>
      <trkpt lat="46.73" lon="6.40902">
        <ele>868.8</ele>
      </trkpt>
      <trkpt lat="46.73001" lon="6.40908">
        <ele>868.5</ele>
      </trkpt>
      <trkpt lat="46.73001" lon="6.40914">
        <ele>868.2</ele>
      </trkpt>
      <trkpt lat="46.72999" lon="6.40919">
        <ele>868.1</ele>
      </trkpt>
      <trkpt lat="46.72996" lon="6.40924">
        <ele>868.3</ele>
      </trkpt>
      <trkpt lat="46.72992" lon="6.40929">
        <ele>868.4</ele>
      </trkpt>
      <trkpt lat="46.72963" lon="6.40955">
        <ele>867.2</ele>
      </trkpt>
      <trkpt lat="46.72958" lon="6.40958">
        <ele>867</ele>
      </trkpt>
      <trkpt lat="46.72953" lon="6.40964">
        <ele>866.9</ele>
      </trkpt>
      <trkpt lat="46.72946" lon="6.40979">
        <ele>867.4</ele>
      </trkpt>
      <trkpt lat="46.72937" lon="6.40992">
        <ele>867.4</ele>
      </trkpt>
      <trkpt lat="46.7293" lon="6.41008">
        <ele>867.7</ele>
      </trkpt>
      <trkpt lat="46.72923" lon="6.41029">
        <ele>867.9</ele>
      </trkpt>
      <trkpt lat="46.72919" lon="6.41041">
        <ele>867.9</ele>
      </trkpt>
      <trkpt lat="46.72918" lon="6.41044">
        <ele>867.9</ele>
      </trkpt>
      <trkpt lat="46.72917" lon="6.41047">
        <ele>867.9</ele>
      </trkpt>
      <trkpt lat="46.72916" lon="6.41051">
        <ele>867.8</ele>
      </trkpt>
      <trkpt lat="46.72908" lon="6.41078">
        <ele>867.2</ele>
      </trkpt>
      <trkpt lat="46.72895" lon="6.41115">
        <ele>866.9</ele>
      </trkpt>
      <trkpt lat="46.72882" lon="6.41149">
        <ele>867.1</ele>
      </trkpt>
      <trkpt lat="46.72879" lon="6.41157">
        <ele>867.3</ele>
      </trkpt>
      <trkpt lat="46.72877" lon="6.41164">
        <ele>867.7</ele>
      </trkpt>
      <trkpt lat="46.72875" lon="6.41178">
        <ele>867.5</ele>
      </trkpt>
      <trkpt lat="46.72873" lon="6.41188">
        <ele>867.1</ele>
      </trkpt>
      <trkpt lat="46.72872" lon="6.41196">
        <ele>866.9</ele>
      </trkpt>
      <trkpt lat="46.72871" lon="6.41198">
        <ele>866.9</ele>
      </trkpt>
      <trkpt lat="46.72869" lon="6.41212">
        <ele>866.6</ele>
      </trkpt>
      <trkpt lat="46.72868" lon="6.4122">
        <ele>866.4</ele>
      </trkpt>
      <trkpt lat="46.72868" lon="6.41226">
        <ele>866.4</ele>
      </trkpt>
      <trkpt lat="46.72868" lon="6.4123">
        <ele>866.4</ele>
      </trkpt>
      <trkpt lat="46.72868" lon="6.41239">
        <ele>866.5</ele>
      </trkpt>
      <trkpt lat="46.72869" lon="6.41254">
        <ele>866.5</ele>
      </trkpt>
      <trkpt lat="46.7287" lon="6.41268">
        <ele>865.9</ele>
      </trkpt>
      <trkpt lat="46.72873" lon="6.41289">
        <ele>865.2</ele>
      </trkpt>
      <trkpt lat="46.72876" lon="6.41304">
        <ele>864.7</ele>
      </trkpt>
      <trkpt lat="46.72878" lon="6.41313">
        <ele>864.4</ele>
      </trkpt>
      <trkpt lat="46.7288" lon="6.41319">
        <ele>864.2</ele>
      </trkpt>
      <trkpt lat="46.72884" lon="6.41328">
        <ele>864</ele>
      </trkpt>
      <trkpt lat="46.72886" lon="6.41333">
        <ele>863.8</ele>
      </trkpt>
      <trkpt lat="46.72889" lon="6.4134">
        <ele>863.8</ele>
      </trkpt>
      <trkpt lat="46.72892" lon="6.41346">
        <ele>863.9</ele>
      </trkpt>
      <trkpt lat="46.72901" lon="6.4136">
        <ele>864.2</ele>
      </trkpt>
      <trkpt lat="46.72909" lon="6.41373">
        <ele>864.5</ele>
      </trkpt>
      <trkpt lat="46.72919" lon="6.41389">
        <ele>864.9</ele>
      </trkpt>
      <trkpt lat="46.72921" lon="6.41393">
        <ele>865.2</ele>
      </trkpt>
      <trkpt lat="46.72924" lon="6.41398">
        <ele>865.4</ele>
      </trkpt>
      <trkpt lat="46.72926" lon="6.41401">
        <ele>865.6</ele>
      </trkpt>
      <trkpt lat="46.72928" lon="6.41405">
        <ele>865.7</ele>
      </trkpt>
      <trkpt lat="46.7293" lon="6.4141">
        <ele>865.7</ele>
      </trkpt>
      <trkpt lat="46.72935" lon="6.41425">
        <ele>866</ele>
      </trkpt>
      <trkpt lat="46.72944" lon="6.41451">
        <ele>866.2</ele>
      </trkpt>
      <trkpt lat="46.7295" lon="6.4147">
        <ele>866.2</ele>
      </trkpt>
      <trkpt lat="46.72951" lon="6.41477">
        <ele>866.1</ele>
      </trkpt>
      <trkpt lat="46.72952" lon="6.41481">
        <ele>866</ele>
      </trkpt>
      <trkpt lat="46.72954" lon="6.41491">
        <ele>865.9</ele>
      </trkpt>
      <trkpt lat="46.72955" lon="6.415">
        <ele>865.7</ele>
      </trkpt>
      <trkpt lat="46.72956" lon="6.41506">
        <ele>865.6</ele>
      </trkpt>
      <trkpt lat="46.72963" lon="6.41555">
        <ele>864.8</ele>
      </trkpt>
      <trkpt lat="46.72965" lon="6.41568">
        <ele>864.6</ele>
      </trkpt>
      <trkpt lat="46.72966" lon="6.41577">
        <ele>864.5</ele>
      </trkpt>
      <trkpt lat="46.72968" lon="6.41591">
        <ele>864.5</ele>
      </trkpt>
      <trkpt lat="46.72972" lon="6.41586">
        <ele>865</ele>
      </trkpt>
      <trkpt lat="46.72987" lon="6.41569">
        <ele>866.9</ele>
      </trkpt>
      <trkpt lat="46.72998" lon="6.41571">
        <ele>868.1</ele>
      </trkpt>
      <trkpt lat="46.73004" lon="6.41573">
        <ele>869.3</ele>
      </trkpt>
      <trkpt lat="46.73006" lon="6.41574">
        <ele>869.9</ele>
      </trkpt>
      <trkpt lat="46.73008" lon="6.41577">
        <ele>870.5</ele>
      </trkpt>
      <trkpt lat="46.73009" lon="6.4158">
        <ele>870.8</ele>
      </trkpt>
      <trkpt lat="46.73015" lon="6.41598">
        <ele>872.7</ele>
      </trkpt>
      <trkpt lat="46.73025" lon="6.41666">
        <ele>876.3</ele>
      </trkpt>
      <trkpt lat="46.73026" lon="6.41671">
        <ele>876.7</ele>
      </trkpt>
      <trkpt lat="46.73031" lon="6.41691">
        <ele>878.7</ele>
      </trkpt>
      <trkpt lat="46.73031" lon="6.41692">
        <ele>878.8</ele>
      </trkpt>
      <trkpt lat="46.73034" lon="6.41703">
        <ele>879.8</ele>
      </trkpt>
      <trkpt lat="46.73037" lon="6.41713">
        <ele>880.9</ele>
      </trkpt>
      <trkpt lat="46.73042" lon="6.41719">
        <ele>882.3</ele>
      </trkpt>
      <trkpt lat="46.73048" lon="6.41751">
        <ele>884.4</ele>
      </trkpt>
      <trkpt lat="46.73052" lon="6.41765">
        <ele>885.1</ele>
      </trkpt>
      <trkpt lat="46.73056" lon="6.41775">
        <ele>886.2</ele>
      </trkpt>
      <trkpt lat="46.73062" lon="6.41783">
        <ele>887.3</ele>
      </trkpt>
      <trkpt lat="46.73068" lon="6.41791">
        <ele>888.7</ele>
      </trkpt>
      <trkpt lat="46.73072" lon="6.41796">
        <ele>889.5</ele>
      </trkpt>
      <trkpt lat="46.73076" lon="6.41805">
        <ele>890.5</ele>
      </trkpt>
      <trkpt lat="46.73081" lon="6.41815">
        <ele>891.5</ele>
      </trkpt>
      <trkpt lat="46.73087" lon="6.41829">
        <ele>892.8</ele>
      </trkpt>
      <trkpt lat="46.73098" lon="6.4186">
        <ele>894.3</ele>
      </trkpt>
      <trkpt lat="46.73101" lon="6.41867">
        <ele>894.8</ele>
      </trkpt>
      <trkpt lat="46.73105" lon="6.41874">
        <ele>895.4</ele>
      </trkpt>
      <trkpt lat="46.73116" lon="6.41894">
        <ele>897.2</ele>
      </trkpt>
      <trkpt lat="46.73121" lon="6.41904">
        <ele>898</ele>
      </trkpt>
      <trkpt lat="46.73123" lon="6.4191">
        <ele>898.3</ele>
      </trkpt>
      <trkpt lat="46.73126" lon="6.41916">
        <ele>898.7</ele>
      </trkpt>
      <trkpt lat="46.73145" lon="6.41968">
        <ele>901.4</ele>
      </trkpt>
      <trkpt lat="46.73151" lon="6.41981">
        <ele>902.2</ele>
      </trkpt>
      <trkpt lat="46.73154" lon="6.4199">
        <ele>902.7</ele>
      </trkpt>
      <trkpt lat="46.73161" lon="6.42002">
        <ele>903.5</ele>
      </trkpt>
      <trkpt lat="46.73164" lon="6.42008">
        <ele>903.8</ele>
      </trkpt>
      <trkpt lat="46.73168" lon="6.42016">
        <ele>904.2</ele>
      </trkpt>
      <trkpt lat="46.73171" lon="6.4202">
        <ele>904.5</ele>
      </trkpt>
      <trkpt lat="46.73187" lon="6.42042">
        <ele>906.3</ele>
      </trkpt>
      <trkpt lat="46.73195" lon="6.42052">
        <ele>907.3</ele>
      </trkpt>
      <trkpt lat="46.73213" lon="6.42073">
        <ele>909.7</ele>
      </trkpt>
      <trkpt lat="46.73218" lon="6.42079">
        <ele>910.4</ele>
      </trkpt>
      <trkpt lat="46.73223" lon="6.42083">
        <ele>911.2</ele>
      </trkpt>
      <trkpt lat="46.73233" lon="6.4209">
        <ele>912.5</ele>
      </trkpt>
      <trkpt lat="46.73237" lon="6.42092">
        <ele>913.4</ele>
      </trkpt>
      <trkpt lat="46.73241" lon="6.42091">
        <ele>914.3</ele>
      </trkpt>
      <trkpt lat="46.73246" lon="6.42089">
        <ele>915.4</ele>
      </trkpt>
      <trkpt lat="46.73249" lon="6.42087">
        <ele>916.4</ele>
      </trkpt>
      <trkpt lat="46.73252" lon="6.42083">
        <ele>917.3</ele>
      </trkpt>
      <trkpt lat="46.73253" lon="6.4208">
        <ele>917.9</ele>
      </trkpt>
      <trkpt lat="46.73254" lon="6.42076">
        <ele>918.4</ele>
      </trkpt>
      <trkpt lat="46.73255" lon="6.42071">
        <ele>919</ele>
      </trkpt>
      <trkpt lat="46.73255" lon="6.42066">
        <ele>919.4</ele>
      </trkpt>
      <trkpt lat="46.73254" lon="6.42044">
        <ele>920.7</ele>
      </trkpt>
      <trkpt lat="46.73254" lon="6.4203">
        <ele>921.7</ele>
      </trkpt>
      <trkpt lat="46.73253" lon="6.4202">
        <ele>922.4</ele>
      </trkpt>
      <trkpt lat="46.73252" lon="6.42004">
        <ele>923.2</ele>
      </trkpt>
      <trkpt lat="46.7325" lon="6.41952">
        <ele>927.1</ele>
      </trkpt>
      <trkpt lat="46.7325" lon="6.41898">
        <ele>931.1</ele>
      </trkpt>
      <trkpt lat="46.73249" lon="6.41852">
        <ele>933.5</ele>
      </trkpt>
      <trkpt lat="46.73249" lon="6.41814">
        <ele>935.7</ele>
      </trkpt>
      <trkpt lat="46.73252" lon="6.41741">
        <ele>939.5</ele>
      </trkpt>
      <trkpt lat="46.73252" lon="6.4173">
        <ele>939.8</ele>
      </trkpt>
      <trkpt lat="46.73253" lon="6.41719">
        <ele>940.3</ele>
      </trkpt>
      <trkpt lat="46.73257" lon="6.41694">
        <ele>941.5</ele>
      </trkpt>
      <trkpt lat="46.73261" lon="6.41669">
        <ele>942.7</ele>
      </trkpt>
      <trkpt lat="46.73266" lon="6.41645">
        <ele>943.6</ele>
      </trkpt>
      <trkpt lat="46.73267" lon="6.41641">
        <ele>943.8</ele>
      </trkpt>
      <trkpt lat="46.73269" lon="6.41639">
        <ele>944.1</ele>
      </trkpt>
      <trkpt lat="46.73271" lon="6.41637">
        <ele>944.4</ele>
      </trkpt>
      <trkpt lat="46.73273" lon="6.41635">
        <ele>944.7</ele>
      </trkpt>
      <trkpt lat="46.73276" lon="6.41634">
        <ele>945.1</ele>
      </trkpt>
      <trkpt lat="46.73279" lon="6.41634">
        <ele>945.4</ele>
      </trkpt>
      <trkpt lat="46.73282" lon="6.41634">
        <ele>945.9</ele>
      </trkpt>
      <trkpt lat="46.73284" lon="6.41635">
        <ele>946.2</ele>
      </trkpt>
      <trkpt lat="46.73288" lon="6.41637">
        <ele>946.7</ele>
      </trkpt>
      <trkpt lat="46.7329" lon="6.4164">
        <ele>947.1</ele>
      </trkpt>
      <trkpt lat="46.73293" lon="6.41643">
        <ele>947.6</ele>
      </trkpt>
      <trkpt lat="46.73296" lon="6.41646">
        <ele>948</ele>
      </trkpt>
      <trkpt lat="46.73301" lon="6.41655">
        <ele>948.9</ele>
      </trkpt>
      <trkpt lat="46.73307" lon="6.41666">
        <ele>949.9</ele>
      </trkpt>
      <trkpt lat="46.73318" lon="6.417">
        <ele>952.1</ele>
      </trkpt>
      <trkpt lat="46.73328" lon="6.41781">
        <ele>955.2</ele>
      </trkpt>
      <trkpt lat="46.73332" lon="6.41803">
        <ele>956.2</ele>
      </trkpt>
      <trkpt lat="46.73337" lon="6.41808">
        <ele>957.8</ele>
      </trkpt>
      <trkpt lat="46.73343" lon="6.41809">
        <ele>959.3</ele>
      </trkpt>
      <trkpt lat="46.73348" lon="6.41805">
        <ele>960.6</ele>
      </trkpt>
      <trkpt lat="46.73355" lon="6.41787">
        <ele>962</ele>
      </trkpt>
      <trkpt lat="46.73364" lon="6.41766">
        <ele>964.1</ele>
      </trkpt>
      <trkpt lat="46.73384" lon="6.41738">
        <ele>968.5</ele>
      </trkpt>
      <trkpt lat="46.73396" lon="6.41731">
        <ele>971.8</ele>
      </trkpt>
      <trkpt lat="46.73401" lon="6.41732">
        <ele>972.9</ele>
      </trkpt>
      <trkpt lat="46.73405" lon="6.41735">
        <ele>974</ele>
      </trkpt>
      <trkpt lat="46.7341" lon="6.41742">
        <ele>975.2</ele>
      </trkpt>
      <trkpt lat="46.73413" lon="6.41753">
        <ele>976.1</ele>
      </trkpt>
      <trkpt lat="46.73417" lon="6.4177">
        <ele>977.7</ele>
      </trkpt>
      <trkpt lat="46.73421" lon="6.41785">
        <ele>979.2</ele>
      </trkpt>
      <trkpt lat="46.73425" lon="6.41795">
        <ele>980.4</ele>
      </trkpt>
      <trkpt lat="46.73431" lon="6.41802">
        <ele>981.8</ele>
      </trkpt>
      <trkpt lat="46.73438" lon="6.41808">
        <ele>983.5</ele>
      </trkpt>
      <trkpt lat="46.73447" lon="6.41806">
        <ele>985.3</ele>
      </trkpt>
      <trkpt lat="46.73455" lon="6.41795">
        <ele>986.7</ele>
      </trkpt>
      <trkpt lat="46.73463" lon="6.41771">
        <ele>987.6</ele>
      </trkpt>
      <trkpt lat="46.7348" lon="6.4173">
        <ele>990.6</ele>
      </trkpt>
      <trkpt lat="46.73487" lon="6.41719">
        <ele>992.1</ele>
      </trkpt>
      <trkpt lat="46.73492" lon="6.41716">
        <ele>993.3</ele>
      </trkpt>
      <trkpt lat="46.73497" lon="6.4172">
        <ele>994.3</ele>
      </trkpt>
      <trkpt lat="46.73499" lon="6.41725">
        <ele>994.8</ele>
      </trkpt>
      <trkpt lat="46.73501" lon="6.41737">
        <ele>995.3</ele>
      </trkpt>
      <trkpt lat="46.73506" lon="6.41782">
        <ele>997</ele>
      </trkpt>
      <trkpt lat="46.73509" lon="6.41803">
        <ele>997.9</ele>
      </trkpt>
      <trkpt lat="46.73514" lon="6.41827">
        <ele>999.1</ele>
      </trkpt>
      <trkpt lat="46.73521" lon="6.41848">
        <ele>999.5</ele>
      </trkpt>
      <trkpt lat="46.73526" lon="6.41859">
        <ele>999.7</ele>
      </trkpt>
      <trkpt lat="46.73532" lon="6.41868">
        <ele>1000</ele>
      </trkpt>
      <trkpt lat="46.73556" lon="6.41895">
        <ele>1001.6</ele>
      </trkpt>
      <trkpt lat="46.73597" lon="6.41967">
        <ele>1000.8</ele>
      </trkpt>
      <trkpt lat="46.73618" lon="6.41997">
        <ele>1002.2</ele>
      </trkpt>
      <trkpt lat="46.73637" lon="6.42011">
        <ele>1004.7</ele>
      </trkpt>
      <trkpt lat="46.73659" lon="6.42011">
        <ele>1009.2</ele>
      </trkpt>
      <trkpt lat="46.73689" lon="6.42005">
        <ele>1014.6</ele>
      </trkpt>
      <trkpt lat="46.73699" lon="6.41996">
        <ele>1016.9</ele>
      </trkpt>
      <trkpt lat="46.73716" lon="6.41987">
        <ele>1020</ele>
      </trkpt>
      <trkpt lat="46.73739" lon="6.41988">
        <ele>1023.3</ele>
      </trkpt>
      <trkpt lat="46.73772" lon="6.42003">
        <ele>1028</ele>
      </trkpt>
      <trkpt lat="46.73812" lon="6.42035">
        <ele>1032.3</ele>
      </trkpt>
      <trkpt lat="46.7385" lon="6.42053">
        <ele>1035.3</ele>
      </trkpt>
      <trkpt lat="46.73885" lon="6.42063">
        <ele>1036.8</ele>
      </trkpt>
      <trkpt lat="46.73933" lon="6.42065">
        <ele>1042.8</ele>
      </trkpt>
      <trkpt lat="46.7394" lon="6.42066">
        <ele>1044.5</ele>
      </trkpt>
      <trkpt lat="46.73946" lon="6.42066">
        <ele>1045.8</ele>
      </trkpt>
      <trkpt lat="46.73953" lon="6.42076">
        <ele>1047.1</ele>
      </trkpt>
      <trkpt lat="46.73968" lon="6.42104">
        <ele>1049.2</ele>
      </trkpt>
      <trkpt lat="46.73977" lon="6.4213">
        <ele>1050.1</ele>
      </trkpt>
      <trkpt lat="46.73982" lon="6.42155">
        <ele>1050.1</ele>
      </trkpt>
      <trkpt lat="46.73989" lon="6.42186">
        <ele>1050.8</ele>
      </trkpt>
      <trkpt lat="46.73998" lon="6.42217">
        <ele>1052.7</ele>
      </trkpt>
      <trkpt lat="46.74015" lon="6.42266">
        <ele>1058.6</ele>
      </trkpt>
      <trkpt lat="46.7404" lon="6.42318">
        <ele>1067.1</ele>
      </trkpt>
      <trkpt lat="46.7406" lon="6.42351">
        <ele>1073.2</ele>
      </trkpt>
      <trkpt lat="46.74132" lon="6.42442">
        <ele>1085.2</ele>
      </trkpt>
      <trkpt lat="46.74141" lon="6.42452">
        <ele>1085.9</ele>
      </trkpt>
      <trkpt lat="46.74147" lon="6.42471">
        <ele>1085.4</ele>
      </trkpt>
      <trkpt lat="46.74159" lon="6.42507">
        <ele>1084.4</ele>
      </trkpt>
      <trkpt lat="46.74166" lon="6.42533">
        <ele>1084.7</ele>
      </trkpt>
      <trkpt lat="46.74177" lon="6.42568">
        <ele>1085.5</ele>
      </trkpt>
      <trkpt lat="46.74186" lon="6.42596">
        <ele>1085.9</ele>
      </trkpt>
      <trkpt lat="46.74195" lon="6.42619">
        <ele>1086.4</ele>
      </trkpt>
      <trkpt lat="46.7421" lon="6.42646">
        <ele>1087.4</ele>
      </trkpt>
      <trkpt lat="46.74217" lon="6.42656">
        <ele>1087.9</ele>
      </trkpt>
      <trkpt lat="46.74244" lon="6.42688">
        <ele>1090.2</ele>
      </trkpt>
      <trkpt lat="46.74256" lon="6.42708">
        <ele>1091.1</ele>
      </trkpt>
      <trkpt lat="46.74307" lon="6.42801">
        <ele>1092.2</ele>
      </trkpt>
      <trkpt lat="46.74324" lon="6.42828">
        <ele>1091.7</ele>
      </trkpt>
      <trkpt lat="46.74367" lon="6.4289">
        <ele>1092.9</ele>
      </trkpt>
      <trkpt lat="46.74385" lon="6.42904">
        <ele>1093.3</ele>
      </trkpt>
      <trkpt lat="46.74427" lon="6.4295">
        <ele>1091.5</ele>
      </trkpt>
      <trkpt lat="46.74433" lon="6.42943">
        <ele>1092.7</ele>
      </trkpt>
      <trkpt lat="46.74437" lon="6.42934">
        <ele>1094.1</ele>
      </trkpt>
      <trkpt lat="46.7445" lon="6.42909">
        <ele>1097.8</ele>
      </trkpt>
      <trkpt lat="46.74456" lon="6.42897">
        <ele>1099.2</ele>
      </trkpt>
      <trkpt lat="46.74465" lon="6.42891">
        <ele>1100.4</ele>
      </trkpt>
      <trkpt lat="46.74474" lon="6.4289">
        <ele>1101.3</ele>
      </trkpt>
      <trkpt lat="46.74484" lon="6.42893">
        <ele>1102</ele>
      </trkpt>
      <trkpt lat="46.74495" lon="6.429">
        <ele>1102.5</ele>
      </trkpt>
      <trkpt lat="46.74502" lon="6.42911">
        <ele>1102.8</ele>
      </trkpt>
      <trkpt lat="46.74509" lon="6.42927">
        <ele>1103.5</ele>
      </trkpt>
      <trkpt lat="46.74516" lon="6.42945">
        <ele>1103.8</ele>
      </trkpt>
      <trkpt lat="46.74526" lon="6.42968">
        <ele>1104.7</ele>
      </trkpt>
      <trkpt lat="46.74538" lon="6.4299">
        <ele>1106.2</ele>
      </trkpt>
      <trkpt lat="46.74555" lon="6.4302">
        <ele>1107.8</ele>
      </trkpt>
      <trkpt lat="46.74584" lon="6.43058">
        <ele>1111.7</ele>
      </trkpt>
      <trkpt lat="46.74609" lon="6.43088">
        <ele>1115.3</ele>
      </trkpt>
      <trkpt lat="46.74625" lon="6.43108">
        <ele>1118.1</ele>
      </trkpt>
      <trkpt lat="46.74632" lon="6.4312">
        <ele>1119.3</ele>
      </trkpt>
      <trkpt lat="46.74636" lon="6.43132">
        <ele>1119.7</ele>
      </trkpt>
      <trkpt lat="46.74651" lon="6.43176">
        <ele>1120.9</ele>
      </trkpt>
      <trkpt lat="46.74664" lon="6.4322">
        <ele>1123.4</ele>
      </trkpt>
      <trkpt lat="46.74679" lon="6.43264">
        <ele>1126.6</ele>
      </trkpt>
      <trkpt lat="46.74696" lon="6.43304">
        <ele>1130.7</ele>
      </trkpt>
      <trkpt lat="46.74712" lon="6.43347">
        <ele>1134.3</ele>
      </trkpt>
      <trkpt lat="46.74719" lon="6.43367">
        <ele>1135.9</ele>
      </trkpt>
      <trkpt lat="46.74725" lon="6.43385">
        <ele>1137.1</ele>
      </trkpt>
      <trkpt lat="46.74732" lon="6.43436">
        <ele>1138.6</ele>
      </trkpt>
      <trkpt lat="46.74768" lon="6.43465">
        <ele>1148.1</ele>
      </trkpt>
      <trkpt lat="46.74775" lon="6.4348">
        <ele>1150.2</ele>
      </trkpt>
      <trkpt lat="46.748" lon="6.43498">
        <ele>1157.3</ele>
      </trkpt>
      <trkpt lat="46.74812" lon="6.43517">
        <ele>1160.4</ele>
      </trkpt>
      <trkpt lat="46.74831" lon="6.43533">
        <ele>1166</ele>
      </trkpt>
      <trkpt lat="46.74851" lon="6.4354">
        <ele>1170.8</ele>
      </trkpt>
      <trkpt lat="46.74861" lon="6.4357">
        <ele>1173</ele>
      </trkpt>
      <trkpt lat="46.74873" lon="6.43595">
        <ele>1175.4</ele>
      </trkpt>
      <trkpt lat="46.74884" lon="6.43621">
        <ele>1177</ele>
      </trkpt>
      <trkpt lat="46.74911" lon="6.43662">
        <ele>1182.5</ele>
      </trkpt>
      <trkpt lat="46.7493" lon="6.43696">
        <ele>1186</ele>
      </trkpt>
      <trkpt lat="46.74952" lon="6.43723">
        <ele>1191.6</ele>
      </trkpt>
      <trkpt lat="46.74966" lon="6.43757">
        <ele>1193.9</ele>
      </trkpt>
      <trkpt lat="46.74986" lon="6.43795">
        <ele>1197.8</ele>
      </trkpt>
      <trkpt lat="46.75043" lon="6.4393">
        <ele>1211.3</ele>
      </trkpt>
      <trkpt lat="46.75067" lon="6.44008">
        <ele>1214.9</ele>
      </trkpt>
      <trkpt lat="46.75117" lon="6.44117">
        <ele>1226.6</ele>
      </trkpt>
      <trkpt lat="46.75141" lon="6.44168">
        <ele>1230.2</ele>
      </trkpt>
      <trkpt lat="46.75144" lon="6.44196">
        <ele>1228.1</ele>
      </trkpt>
      <trkpt lat="46.75147" lon="6.44226">
        <ele>1225.6</ele>
      </trkpt>
      <trkpt lat="46.75161" lon="6.44287">
        <ele>1223.3</ele>
      </trkpt>
      <trkpt lat="46.75173" lon="6.4434">
        <ele>1220.4</ele>
      </trkpt>
      <trkpt lat="46.75179" lon="6.44352">
        <ele>1221.6</ele>
      </trkpt>
      <trkpt lat="46.75227" lon="6.44397">
        <ele>1234.4</ele>
      </trkpt>
      <trkpt lat="46.75262" lon="6.44456">
        <ele>1234.9</ele>
      </trkpt>
      <trkpt lat="46.75278" lon="6.4449">
        <ele>1234.6</ele>
      </trkpt>
      <trkpt lat="46.75293" lon="6.44526">
        <ele>1234</ele>
      </trkpt>
      <trkpt lat="46.75302" lon="6.44558">
        <ele>1231.2</ele>
      </trkpt>
      <trkpt lat="46.75309" lon="6.4459">
        <ele>1227.7</ele>
      </trkpt>
      <trkpt lat="46.75311" lon="6.44604">
        <ele>1227.1</ele>
      </trkpt>
      <trkpt lat="46.7531" lon="6.44619">
        <ele>1225.7</ele>
      </trkpt>
      <trkpt lat="46.75332" lon="6.44636">
        <ele>1229.9</ele>
      </trkpt>
      <trkpt lat="46.7536" lon="6.44668">
        <ele>1234.9</ele>
      </trkpt>
      <trkpt lat="46.75405" lon="6.44714">
        <ele>1242.9</ele>
      </trkpt>
      <trkpt lat="46.75445" lon="6.44783">
        <ele>1248.6</ele>
      </trkpt>
      <trkpt lat="46.75477" lon="6.44832">
        <ele>1252.8</ele>
      </trkpt>
      <trkpt lat="46.75495" lon="6.44857">
        <ele>1257.2</ele>
      </trkpt>
      <trkpt lat="46.75545" lon="6.4487">
        <ele>1269.7</ele>
      </trkpt>
      <trkpt lat="46.75579" lon="6.44888">
        <ele>1276.5</ele>
      </trkpt>
      <trkpt lat="46.75592" lon="6.44912">
        <ele>1277.3</ele>
      </trkpt>
      <trkpt lat="46.75611" lon="6.44982">
        <ele>1280</ele>
      </trkpt>
      <trkpt lat="46.75645" lon="6.45054">
        <ele>1282.4</ele>
      </trkpt>
      <trkpt lat="46.7571" lon="6.45168">
        <ele>1284.7</ele>
      </trkpt>
      <trkpt lat="46.75746" lon="6.45211">
        <ele>1284.9</ele>
      </trkpt>
      <trkpt lat="46.75775" lon="6.45247">
        <ele>1285.8</ele>
      </trkpt>
      <trkpt lat="46.75802" lon="6.45263">
        <ele>1288.6</ele>
      </trkpt>
      <trkpt lat="46.75823" lon="6.45268">
        <ele>1291.1</ele>
      </trkpt>
      <trkpt lat="46.75841" lon="6.45268">
        <ele>1293.9</ele>
      </trkpt>
      <trkpt lat="46.75852" lon="6.45267">
        <ele>1295.7</ele>
      </trkpt>
      <trkpt lat="46.75872" lon="6.45257">
        <ele>1300.3</ele>
      </trkpt>
      <trkpt lat="46.75883" lon="6.45249">
        <ele>1303.3</ele>
      </trkpt>
      <trkpt lat="46.75896" lon="6.45242">
        <ele>1306.6</ele>
      </trkpt>
      <trkpt lat="46.75917" lon="6.45253">
        <ele>1307.5</ele>
      </trkpt>
      <trkpt lat="46.75951" lon="6.45264">
        <ele>1313.6</ele>
      </trkpt>
      <trkpt lat="46.75977" lon="6.45274">
        <ele>1318.1</ele>
      </trkpt>
      <trkpt lat="46.75999" lon="6.45281">
        <ele>1322</ele>
      </trkpt>
      <trkpt lat="46.76008" lon="6.45287">
        <ele>1322.3</ele>
      </trkpt>
      <trkpt lat="46.76022" lon="6.45292">
        <ele>1323.3</ele>
      </trkpt>
      <trkpt lat="46.76046" lon="6.45328">
        <ele>1322.3</ele>
      </trkpt>
      <trkpt lat="46.76057" lon="6.45335">
        <ele>1323.4</ele>
      </trkpt>
      <trkpt lat="46.76069" lon="6.45336">
        <ele>1325.4</ele>
      </trkpt>
      <trkpt lat="46.76071" lon="6.45327">
        <ele>1326.4</ele>
      </trkpt>
      <trkpt lat="46.7609" lon="6.45321">
        <ele>1329.5</ele>
      </trkpt>
      <trkpt lat="46.7615" lon="6.45338">
        <ele>1334.6</ele>
      </trkpt>
      <trkpt lat="46.76155" lon="6.45338">
        <ele>1335.2</ele>
      </trkpt>
      <trkpt lat="46.76161" lon="6.45334">
        <ele>1335.5</ele>
      </trkpt>
      <trkpt lat="46.76163" lon="6.45333">
        <ele>1335.7</ele>
      </trkpt>
      <trkpt lat="46.7618" lon="6.45371">
        <ele>1340.7</ele>
      </trkpt>
      <trkpt lat="46.76217" lon="6.45392">
        <ele>1348.4</ele>
      </trkpt>
      <trkpt lat="46.76265" lon="6.45425">
        <ele>1361.1</ele>
      </trkpt>
      <trkpt lat="46.76295" lon="6.45438">
        <ele>1365.9</ele>
      </trkpt>
      <trkpt lat="46.76303" lon="6.45445">
        <ele>1368.4</ele>
      </trkpt>
      <trkpt lat="46.76323" lon="6.4546">
        <ele>1374.2</ele>
      </trkpt>
      <trkpt lat="46.76342" lon="6.45465">
        <ele>1376.8</ele>
      </trkpt>
      <trkpt lat="46.76358" lon="6.45472">
        <ele>1378.6</ele>
      </trkpt>
      <trkpt lat="46.76386" lon="6.45497">
        <ele>1385.3</ele>
      </trkpt>
      <trkpt lat="46.76397" lon="6.45522">
        <ele>1391.1</ele>
      </trkpt>
      <trkpt lat="46.76402" lon="6.4552">
        <ele>1390.6</ele>
      </trkpt>
      <trkpt lat="46.76403" lon="6.45535">
        <ele>1394.5</ele>
      </trkpt>
      <trkpt lat="46.76414" lon="6.4557">
        <ele>1404</ele>
      </trkpt>
      <trkpt lat="46.7642" lon="6.45601">
        <ele>1411.5</ele>
      </trkpt>
      <trkpt lat="46.76439" lon="6.45617">
        <ele>1414.4</ele>
      </trkpt>
      <trkpt lat="46.76457" lon="6.45645">
        <ele>1421.6</ele>
      </trkpt>
      <trkpt lat="46.76465" lon="6.45651">
        <ele>1423.3</ele>
      </trkpt>
      <trkpt lat="46.76474" lon="6.45667">
        <ele>1428.5</ele>
      </trkpt>
      <trkpt lat="46.7648" lon="6.45679">
        <ele>1431.8</ele>
      </trkpt>
      <trkpt lat="46.76492" lon="6.45695">
        <ele>1436.8</ele>
      </trkpt>
      <trkpt lat="46.76497" lon="6.45705">
        <ele>1440.3</ele>
      </trkpt>
      <trkpt lat="46.76478" lon="6.45714">
        <ele>1439.9</ele>
      </trkpt>
      <trkpt lat="46.76467" lon="6.45747">
        <ele>1445.6</ele>
      </trkpt>
      <trkpt lat="46.76469" lon="6.45775">
        <ele>1450.4</ele>
      </trkpt>
      <trkpt lat="46.76474" lon="6.45789">
        <ele>1453.8</ele>
      </trkpt>
      <trkpt lat="46.76473" lon="6.45799">
        <ele>1455.2</ele>
      </trkpt>
      <trkpt lat="46.76479" lon="6.45812">
        <ele>1458.9</ele>
      </trkpt>
      <trkpt lat="46.76475" lon="6.45838">
        <ele>1461.5</ele>
      </trkpt>
      <trkpt lat="46.76513" lon="6.45895">
        <ele>1474</ele>
      </trkpt>
      <trkpt lat="46.76517" lon="6.45905">
        <ele>1475.4</ele>
      </trkpt>
      <trkpt lat="46.76522" lon="6.45908">
        <ele>1476.6</ele>
      </trkpt>
      <trkpt lat="46.76528" lon="6.45942">
        <ele>1479.1</ele>
      </trkpt>
      <trkpt lat="46.76532" lon="6.45959">
        <ele>1480.6</ele>
      </trkpt>
      <trkpt lat="46.76545" lon="6.45994">
        <ele>1485.7</ele>
      </trkpt>
      <trkpt lat="46.7655" lon="6.46022">
        <ele>1485.9</ele>
      </trkpt>
      <trkpt lat="46.76577" lon="6.46012">
        <ele>1496.1</ele>
      </trkpt>
      <trkpt lat="46.76623" lon="6.46002">
        <ele>1506.6</ele>
      </trkpt>
      <trkpt lat="46.76649" lon="6.46013">
        <ele>1512.2</ele>
      </trkpt>
      <trkpt lat="46.76686" lon="6.46027">
        <ele>1518.4</ele>
      </trkpt>
      <trkpt lat="46.76702" lon="6.46044">
        <ele>1521.9</ele>
      </trkpt>
      <trkpt lat="46.76722" lon="6.46068">
        <ele>1528.7</ele>
      </trkpt>
      <trkpt lat="46.76742" lon="6.46094">
        <ele>1534.8</ele>
      </trkpt>
      <trkpt lat="46.76768" lon="6.46122">
        <ele>1533.2</ele>
      </trkpt>
      <trkpt lat="46.76772" lon="6.46133">
        <ele>1533</ele>
      </trkpt>
      <trkpt lat="46.76786" lon="6.46146">
        <ele>1533</ele>
      </trkpt>
      <trkpt lat="46.76792" lon="6.46165">
        <ele>1534.4</ele>
      </trkpt>
      <trkpt lat="46.76815" lon="6.46186">
        <ele>1534.7</ele>
      </trkpt>
      <trkpt lat="46.76837" lon="6.46197">
        <ele>1535.7</ele>
      </trkpt>
      <trkpt lat="46.76847" lon="6.46221">
        <ele>1534.4</ele>
      </trkpt>
      <trkpt lat="46.7686" lon="6.4622">
        <ele>1533.2</ele>
      </trkpt>
      <trkpt lat="46.7691" lon="6.46255">
        <ele>1532.2</ele>
      </trkpt>
      <trkpt lat="46.76963" lon="6.46257">
        <ele>1525.4</ele>
      </trkpt>
      <trkpt lat="46.7699" lon="6.46246">
        <ele>1519.5</ele>
      </trkpt>
      <trkpt lat="46.76979" lon="6.46233">
        <ele>1518.3</ele>
      </trkpt>
      <trkpt lat="46.76972" lon="6.46218">
        <ele>1516.2</ele>
      </trkpt>
      <trkpt lat="46.76967" lon="6.46199">
        <ele>1513</ele>
      </trkpt>
      <trkpt lat="46.76964" lon="6.46177">
        <ele>1509</ele>
      </trkpt>
      <trkpt lat="46.76967" lon="6.46163">
        <ele>1504.8</ele>
      </trkpt>
      <trkpt lat="46.76975" lon="6.46159">
        <ele>1501.2</ele>
      </trkpt>
      <trkpt lat="46.77011" lon="6.46164">
        <ele>1493</ele>
      </trkpt>
      <trkpt lat="46.77041" lon="6.46154">
        <ele>1481.9</ele>
      </trkpt>
      <trkpt lat="46.77061" lon="6.46153">
        <ele>1476</ele>
      </trkpt>
      <trkpt lat="46.77071" lon="6.46156">
        <ele>1474.4</ele>
      </trkpt>
      <trkpt lat="46.7709" lon="6.46166">
        <ele>1473.3</ele>
      </trkpt>
      <trkpt lat="46.77109" lon="6.46173">
        <ele>1469.8</ele>
      </trkpt>
      <trkpt lat="46.7713" lon="6.46176">
        <ele>1464.2</ele>
      </trkpt>
      <trkpt lat="46.77169" lon="6.46178">
        <ele>1451.7</ele>
      </trkpt>
      <trkpt lat="46.77205" lon="6.46167">
        <ele>1436.2</ele>
      </trkpt>
      <trkpt lat="46.77238" lon="6.46169">
        <ele>1427.4</ele>
      </trkpt>
      <trkpt lat="46.7726" lon="6.46177">
        <ele>1423.5</ele>
      </trkpt>
      <trkpt lat="46.77306" lon="6.46207">
        <ele>1417</ele>
      </trkpt>
      <trkpt lat="46.77359" lon="6.46231">
        <ele>1401.6</ele>
      </trkpt>
      <trkpt lat="46.77426" lon="6.46289">
        <ele>1383.6</ele>
      </trkpt>
      <trkpt lat="46.7745" lon="6.46322">
        <ele>1383.8</ele>
      </trkpt>
      <trkpt lat="46.77486" lon="6.46366">
        <ele>1380.8</ele>
      </trkpt>
      <trkpt lat="46.77494" lon="6.46384">
        <ele>1381</ele>
      </trkpt>
      <trkpt lat="46.77507" lon="6.46394">
        <ele>1377.4</ele>
      </trkpt>
      <trkpt lat="46.77517" lon="6.46407">
        <ele>1375.4</ele>
      </trkpt>
      <trkpt lat="46.77535" lon="6.46441">
        <ele>1375.6</ele>
      </trkpt>
      <trkpt lat="46.77544" lon="6.46456">
        <ele>1374.6</ele>
      </trkpt>
      <trkpt lat="46.77548" lon="6.46464">
        <ele>1374.8</ele>
      </trkpt>
      <trkpt lat="46.77551" lon="6.46481">
        <ele>1377.2</ele>
      </trkpt>
      <trkpt lat="46.77553" lon="6.46485">
        <ele>1377.1</ele>
      </trkpt>
      <trkpt lat="46.77577" lon="6.46516">
        <ele>1371.5</ele>
      </trkpt>
      <trkpt lat="46.77612" lon="6.46582">
        <ele>1370.8</ele>
      </trkpt>
      <trkpt lat="46.77701" lon="6.4671">
        <ele>1365</ele>
      </trkpt>
      <trkpt lat="46.77727" lon="6.46737">
        <ele>1360.8</ele>
      </trkpt>
      <trkpt lat="46.77769" lon="6.46777">
        <ele>1356.7</ele>
      </trkpt>
      <trkpt lat="46.77787" lon="6.46798">
        <ele>1356.8</ele>
      </trkpt>
      <trkpt lat="46.778" lon="6.46811">
        <ele>1356.1</ele>
      </trkpt>
      <trkpt lat="46.77889" lon="6.46874">
        <ele>1350.5</ele>
      </trkpt>
      <trkpt lat="46.77901" lon="6.46893">
        <ele>1350.1</ele>
      </trkpt>
      <trkpt lat="46.77971" lon="6.46952">
        <ele>1350.5</ele>
      </trkpt>
      <trkpt lat="46.77985" lon="6.46964">
        <ele>1349.7</ele>
      </trkpt>
      <trkpt lat="46.78004" lon="6.46946">
        <ele>1352.1</ele>
      </trkpt>
      <trkpt lat="46.78" lon="6.46937">
        <ele>1352.1</ele>
      </trkpt>
      <trkpt lat="46.78004" lon="6.46935">
        <ele>1353.3</ele>
      </trkpt>
      <trkpt lat="46.78022" lon="6.46944">
        <ele>1357</ele>
      </trkpt>
      <trkpt lat="46.78081" lon="6.46998">
        <ele>1362.9</ele>
      </trkpt>
      <trkpt lat="46.78144" lon="6.47074">
        <ele>1356.6</ele>
      </trkpt>
      <trkpt lat="46.78161" lon="6.47089">
        <ele>1355.4</ele>
      </trkpt>
      <trkpt lat="46.78248" lon="6.47142">
        <ele>1354.9</ele>
      </trkpt>
      <trkpt lat="46.78271" lon="6.47168">
        <ele>1349</ele>
      </trkpt>
      <trkpt lat="46.78295" lon="6.47203">
        <ele>1340.8</ele>
      </trkpt>
      <trkpt lat="46.78306" lon="6.47239">
        <ele>1336.1</ele>
      </trkpt>
      <trkpt lat="46.78318" lon="6.47259">
        <ele>1334</ele>
      </trkpt>
      <trkpt lat="46.7845" lon="6.47445">
        <ele>1315.3</ele>
      </trkpt>
      <trkpt lat="46.78473" lon="6.47488">
        <ele>1308.5</ele>
      </trkpt>
      <trkpt lat="46.78481" lon="6.47526">
        <ele>1304.6</ele>
      </trkpt>
      <trkpt lat="46.78479" lon="6.47569">
        <ele>1301.8</ele>
      </trkpt>
      <trkpt lat="46.78493" lon="6.47652">
        <ele>1297.6</ele>
      </trkpt>
      <trkpt lat="46.78527" lon="6.47717">
        <ele>1290.6</ele>
      </trkpt>
      <trkpt lat="46.7856" lon="6.47691">
        <ele>1288.8</ele>
      </trkpt>
      <trkpt lat="46.78574" lon="6.47691">
        <ele>1287.3</ele>
      </trkpt>
      <trkpt lat="46.78591" lon="6.47696">
        <ele>1285.1</ele>
      </trkpt>
      <trkpt lat="46.78619" lon="6.47698">
        <ele>1280.4</ele>
      </trkpt>
      <trkpt lat="46.7865" lon="6.47692">
        <ele>1274.8</ele>
      </trkpt>
      <trkpt lat="46.78683" lon="6.4769">
        <ele>1272.6</ele>
      </trkpt>
      <trkpt lat="46.78691" lon="6.4769">
        <ele>1273.1</ele>
      </trkpt>
      <trkpt lat="46.78705" lon="6.47676">
        <ele>1273.3</ele>
      </trkpt>
      <trkpt lat="46.7873" lon="6.47642">
        <ele>1273.9</ele>
      </trkpt>
      <trkpt lat="46.7876" lon="6.47551">
        <ele>1278.1</ele>
      </trkpt>
      <trkpt lat="46.7877" lon="6.47533">
        <ele>1281.5</ele>
      </trkpt>
      <trkpt lat="46.78774" lon="6.47385">
        <ele>1286.1</ele>
      </trkpt>
      <trkpt lat="46.78775" lon="6.47306">
        <ele>1287.2</ele>
      </trkpt>
      <trkpt lat="46.78779" lon="6.47228">
        <ele>1289.4</ele>
      </trkpt>
      <trkpt lat="46.78781" lon="6.47146">
        <ele>1291.8</ele>
      </trkpt>
      <trkpt lat="46.78788" lon="6.46846">
        <ele>1293.4</ele>
      </trkpt>
      <trkpt lat="46.78786" lon="6.46827">
        <ele>1292</ele>
      </trkpt>
      <trkpt lat="46.78785" lon="6.46806">
        <ele>1289.8</ele>
      </trkpt>
      <trkpt lat="46.78784" lon="6.46787">
        <ele>1288.5</ele>
      </trkpt>
      <trkpt lat="46.78786" lon="6.46775">
        <ele>1288.5</ele>
      </trkpt>
      <trkpt lat="46.78787" lon="6.46764">
        <ele>1288.7</ele>
      </trkpt>
      <trkpt lat="46.78797" lon="6.46729">
        <ele>1289.8</ele>
      </trkpt>
      <trkpt lat="46.78805" lon="6.46701">
        <ele>1290</ele>
      </trkpt>
      <trkpt lat="46.78813" lon="6.46682">
        <ele>1290.5</ele>
      </trkpt>
      <trkpt lat="46.78818" lon="6.46672">
        <ele>1291</ele>
      </trkpt>
      <trkpt lat="46.78824" lon="6.46663">
        <ele>1291.8</ele>
      </trkpt>
      <trkpt lat="46.78831" lon="6.46658">
        <ele>1293</ele>
      </trkpt>
      <trkpt lat="46.78839" lon="6.46654">
        <ele>1293.8</ele>
      </trkpt>
      <trkpt lat="46.78851" lon="6.46649">
        <ele>1295.1</ele>
      </trkpt>
      <trkpt lat="46.78864" lon="6.46645">
        <ele>1296.5</ele>
      </trkpt>
      <trkpt lat="46.78894" lon="6.46636">
        <ele>1300.7</ele>
      </trkpt>
      <trkpt lat="46.78901" lon="6.46632">
        <ele>1301</ele>
      </trkpt>
      <trkpt lat="46.78905" lon="6.46629">
        <ele>1301</ele>
      </trkpt>
      <trkpt lat="46.78909" lon="6.46624">
        <ele>1300.6</ele>
      </trkpt>
      <trkpt lat="46.78913" lon="6.46616">
        <ele>1299.5</ele>
      </trkpt>
      <trkpt lat="46.7893" lon="6.4658">
        <ele>1293.5</ele>
      </trkpt>
      <trkpt lat="46.78946" lon="6.46572">
        <ele>1294.8</ele>
      </trkpt>
      <trkpt lat="46.78952" lon="6.46571">
        <ele>1295.6</ele>
      </trkpt>
      <trkpt lat="46.78957" lon="6.46571">
        <ele>1296.7</ele>
      </trkpt>
      <trkpt lat="46.78975" lon="6.46574">
        <ele>1301.1</ele>
      </trkpt>
      <trkpt lat="46.78986" lon="6.46576">
        <ele>1303.6</ele>
      </trkpt>
      <trkpt lat="46.78996" lon="6.46575">
        <ele>1305.3</ele>
      </trkpt>
      <trkpt lat="46.79006" lon="6.46574">
        <ele>1307</ele>
      </trkpt>
      <trkpt lat="46.79014" lon="6.46574">
        <ele>1308.5</ele>
      </trkpt>
      <trkpt lat="46.79024" lon="6.46575">
        <ele>1310.5</ele>
      </trkpt>
      <trkpt lat="46.79036" lon="6.46577">
        <ele>1313</ele>
      </trkpt>
      <trkpt lat="46.79048" lon="6.46578">
        <ele>1315.3</ele>
      </trkpt>
      <trkpt lat="46.79057" lon="6.46579">
        <ele>1316.9</ele>
      </trkpt>
      <trkpt lat="46.79066" lon="6.46577">
        <ele>1318.4</ele>
      </trkpt>
      <trkpt lat="46.79079" lon="6.46573">
        <ele>1320.4</ele>
      </trkpt>
      <trkpt lat="46.79089" lon="6.46571">
        <ele>1321.5</ele>
      </trkpt>
      <trkpt lat="46.79106" lon="6.4657">
        <ele>1322.8</ele>
      </trkpt>
      <trkpt lat="46.79111" lon="6.46571">
        <ele>1323.3</ele>
      </trkpt>
      <trkpt lat="46.79117" lon="6.46574">
        <ele>1323.9</ele>
      </trkpt>
      <trkpt lat="46.79133" lon="6.46582">
        <ele>1325.6</ele>
      </trkpt>
      <trkpt lat="46.79147" lon="6.46591">
        <ele>1327.8</ele>
      </trkpt>
      <trkpt lat="46.79155" lon="6.46596">
        <ele>1328.9</ele>
      </trkpt>
      <trkpt lat="46.7916" lon="6.466">
        <ele>1329.6</ele>
      </trkpt>
      <trkpt lat="46.79163" lon="6.46604">
        <ele>1330.2</ele>
      </trkpt>
      <trkpt lat="46.79164" lon="6.46606">
        <ele>1330.4</ele>
      </trkpt>
      <trkpt lat="46.79175" lon="6.46625">
        <ele>1330.9</ele>
      </trkpt>
      <trkpt lat="46.79179" lon="6.46633">
        <ele>1330.8</ele>
      </trkpt>
      <trkpt lat="46.79198" lon="6.46672">
        <ele>1330.7</ele>
      </trkpt>
      <trkpt lat="46.79219" lon="6.46713">
        <ele>1337.5</ele>
      </trkpt>
      <trkpt lat="46.79233" lon="6.4674">
        <ele>1340.2</ele>
      </trkpt>
      <trkpt lat="46.79237" lon="6.46748">
        <ele>1340.6</ele>
      </trkpt>
      <trkpt lat="46.79246" lon="6.46767">
        <ele>1342.5</ele>
      </trkpt>
      <trkpt lat="46.79248" lon="6.46774">
        <ele>1343.5</ele>
      </trkpt>
      <trkpt lat="46.79256" lon="6.46781">
        <ele>1343.1</ele>
      </trkpt>
      <trkpt lat="46.79266" lon="6.46791">
        <ele>1342.6</ele>
      </trkpt>
      <trkpt lat="46.7928" lon="6.46807">
        <ele>1341.9</ele>
      </trkpt>
      <trkpt lat="46.79294" lon="6.46821">
        <ele>1340.3</ele>
      </trkpt>
      <trkpt lat="46.79332" lon="6.46852">
        <ele>1333.6</ele>
      </trkpt>
      <trkpt lat="46.79369" lon="6.46877">
        <ele>1332</ele>
      </trkpt>
      <trkpt lat="46.79383" lon="6.46888">
        <ele>1330.9</ele>
      </trkpt>
      <trkpt lat="46.79392" lon="6.46896">
        <ele>1330.3</ele>
      </trkpt>
      <trkpt lat="46.79401" lon="6.46906">
        <ele>1329.6</ele>
      </trkpt>
      <trkpt lat="46.79422" lon="6.46928">
        <ele>1328.1</ele>
      </trkpt>
      <trkpt lat="46.79438" lon="6.46949">
        <ele>1327.3</ele>
      </trkpt>
      <trkpt lat="46.79447" lon="6.46959">
        <ele>1326.5</ele>
      </trkpt>
      <trkpt lat="46.79454" lon="6.46967">
        <ele>1325.4</ele>
      </trkpt>
      <trkpt lat="46.79471" lon="6.46985">
        <ele>1322.4</ele>
      </trkpt>
      <trkpt lat="46.795" lon="6.47015">
        <ele>1317</ele>
      </trkpt>
      <trkpt lat="46.79544" lon="6.4706">
        <ele>1317.4</ele>
      </trkpt>
      <trkpt lat="46.79558" lon="6.47074">
        <ele>1315.7</ele>
      </trkpt>
      <trkpt lat="46.79592" lon="6.47105">
        <ele>1311.5</ele>
      </trkpt>
      <trkpt lat="46.79612" lon="6.47121">
        <ele>1311.6</ele>
      </trkpt>
      <trkpt lat="46.79645" lon="6.47147">
        <ele>1310.9</ele>
      </trkpt>
      <trkpt lat="46.79697" lon="6.47186">
        <ele>1306.9</ele>
      </trkpt>
      <trkpt lat="46.79714" lon="6.47197">
        <ele>1305.5</ele>
      </trkpt>
      <trkpt lat="46.79726" lon="6.47205">
        <ele>1304.5</ele>
      </trkpt>
      <trkpt lat="46.79741" lon="6.47213">
        <ele>1303.3</ele>
      </trkpt>
      <trkpt lat="46.79757" lon="6.47221">
        <ele>1302.3</ele>
      </trkpt>
      <trkpt lat="46.79781" lon="6.47232">
        <ele>1300.8</ele>
      </trkpt>
      <trkpt lat="46.79805" lon="6.47242">
        <ele>1299.2</ele>
      </trkpt>
      <trkpt lat="46.79822" lon="6.47249">
        <ele>1298</ele>
      </trkpt>
      <trkpt lat="46.79866" lon="6.47264">
        <ele>1294.9</ele>
      </trkpt>
      <trkpt lat="46.79878" lon="6.47267">
        <ele>1294.2</ele>
      </trkpt>
      <trkpt lat="46.7989" lon="6.47269">
        <ele>1293.3</ele>
      </trkpt>
      <trkpt lat="46.79915" lon="6.47272">
        <ele>1291.4</ele>
      </trkpt>
      <trkpt lat="46.7996" lon="6.47277">
        <ele>1288.9</ele>
      </trkpt>
      <trkpt lat="46.79976" lon="6.4728">
        <ele>1288</ele>
      </trkpt>
      <trkpt lat="46.79983" lon="6.47281">
        <ele>1287.6</ele>
      </trkpt>
      <trkpt lat="46.79989" lon="6.4728">
        <ele>1287.2</ele>
      </trkpt>
      <trkpt lat="46.79994" lon="6.47276">
        <ele>1286.6</ele>
      </trkpt>
      <trkpt lat="46.80001" lon="6.47271">
        <ele>1285.9</ele>
      </trkpt>
      <trkpt lat="46.80005" lon="6.47267">
        <ele>1285.4</ele>
      </trkpt>
      <trkpt lat="46.80008" lon="6.47264">
        <ele>1285</ele>
      </trkpt>
      <trkpt lat="46.80026" lon="6.47241">
        <ele>1282.6</ele>
      </trkpt>
      <trkpt lat="46.80052" lon="6.47208">
        <ele>1279.1</ele>
      </trkpt>
      <trkpt lat="46.80064" lon="6.47197">
        <ele>1277.5</ele>
      </trkpt>
      <trkpt lat="46.80076" lon="6.47187">
        <ele>1275.7</ele>
      </trkpt>
      <trkpt lat="46.8009" lon="6.47179">
        <ele>1274</ele>
      </trkpt>
      <trkpt lat="46.80099" lon="6.47177">
        <ele>1273.1</ele>
      </trkpt>
      <trkpt lat="46.80109" lon="6.47175">
        <ele>1272.2</ele>
      </trkpt>
      <trkpt lat="46.80155" lon="6.47173">
        <ele>1268.2</ele>
      </trkpt>
      <trkpt lat="46.80199" lon="6.47172">
        <ele>1265.9</ele>
      </trkpt>
      <trkpt lat="46.80243" lon="6.47172">
        <ele>1264.2</ele>
      </trkpt>
      <trkpt lat="46.80266" lon="6.47173">
        <ele>1263.4</ele>
      </trkpt>
      <trkpt lat="46.80288" lon="6.47176">
        <ele>1262.7</ele>
      </trkpt>
      <trkpt lat="46.80297" lon="6.47178">
        <ele>1262.3</ele>
      </trkpt>
      <trkpt lat="46.80307" lon="6.4718">
        <ele>1261.9</ele>
      </trkpt>
      <trkpt lat="46.80319" lon="6.47185">
        <ele>1261.2</ele>
      </trkpt>
      <trkpt lat="46.80327" lon="6.47191">
        <ele>1260.5</ele>
      </trkpt>
      <trkpt lat="46.80335" lon="6.47198">
        <ele>1259.8</ele>
      </trkpt>
      <trkpt lat="46.80345" lon="6.47209">
        <ele>1258.9</ele>
      </trkpt>
      <trkpt lat="46.80366" lon="6.47235">
        <ele>1256.7</ele>
      </trkpt>
      <trkpt lat="46.80387" lon="6.47263">
        <ele>1255.4</ele>
      </trkpt>
      <trkpt lat="46.80407" lon="6.47289">
        <ele>1254.5</ele>
      </trkpt>
      <trkpt lat="46.8045" lon="6.47349">
        <ele>1253.3</ele>
      </trkpt>
      <trkpt lat="46.80523" lon="6.4745">
        <ele>1248.2</ele>
      </trkpt>
      <trkpt lat="46.80539" lon="6.47473">
        <ele>1247.4</ele>
      </trkpt>
      <trkpt lat="46.8055" lon="6.47489">
        <ele>1247.1</ele>
      </trkpt>
      <trkpt lat="46.80558" lon="6.47501">
        <ele>1247</ele>
      </trkpt>
      <trkpt lat="46.80569" lon="6.4752">
        <ele>1246</ele>
      </trkpt>
      <trkpt lat="46.80584" lon="6.47546">
        <ele>1244.7</ele>
      </trkpt>
      <trkpt lat="46.806" lon="6.47577">
        <ele>1243</ele>
      </trkpt>
      <trkpt lat="46.80612" lon="6.47601">
        <ele>1242.3</ele>
      </trkpt>
      <trkpt lat="46.80623" lon="6.47621">
        <ele>1241.7</ele>
      </trkpt>
      <trkpt lat="46.80633" lon="6.47638">
        <ele>1241.1</ele>
      </trkpt>
      <trkpt lat="46.80641" lon="6.4765">
        <ele>1240.6</ele>
      </trkpt>
      <trkpt lat="46.80651" lon="6.47665">
        <ele>1239.9</ele>
      </trkpt>
      <trkpt lat="46.80658" lon="6.47674">
        <ele>1239.5</ele>
      </trkpt>
      <trkpt lat="46.80664" lon="6.47681">
        <ele>1239.2</ele>
      </trkpt>
      <trkpt lat="46.80672" lon="6.47687">
        <ele>1238.6</ele>
      </trkpt>
      <trkpt lat="46.80678" lon="6.47689">
        <ele>1238.3</ele>
      </trkpt>
      <trkpt lat="46.80683" lon="6.4769">
        <ele>1238</ele>
      </trkpt>
      <trkpt lat="46.80689" lon="6.47691">
        <ele>1237.8</ele>
      </trkpt>
      <trkpt lat="46.80701" lon="6.47691">
        <ele>1237.3</ele>
      </trkpt>
      <trkpt lat="46.80712" lon="6.47692">
        <ele>1236.9</ele>
      </trkpt>
      <trkpt lat="46.80718" lon="6.47692">
        <ele>1236.7</ele>
      </trkpt>
      <trkpt lat="46.80723" lon="6.47693">
        <ele>1236.4</ele>
      </trkpt>
      <trkpt lat="46.80729" lon="6.47694">
        <ele>1236.2</ele>
      </trkpt>
      <trkpt lat="46.80734" lon="6.47696">
        <ele>1235.8</ele>
      </trkpt>
      <trkpt lat="46.80739" lon="6.47698">
        <ele>1235.4</ele>
      </trkpt>
      <trkpt lat="46.80745" lon="6.47694">
        <ele>1235.5</ele>
      </trkpt>
      <trkpt lat="46.80749" lon="6.47693">
        <ele>1235.5</ele>
      </trkpt>
      <trkpt lat="46.80752" lon="6.47693">
        <ele>1235.5</ele>
      </trkpt>
      <trkpt lat="46.80756" lon="6.47695">
        <ele>1235.3</ele>
      </trkpt>
      <trkpt lat="46.8077" lon="6.47702">
        <ele>1234.8</ele>
      </trkpt>
      <trkpt lat="46.80786" lon="6.4771">
        <ele>1234.3</ele>
      </trkpt>
      <trkpt lat="46.80801" lon="6.47716">
        <ele>1234</ele>
      </trkpt>
      <trkpt lat="46.80811" lon="6.47719">
        <ele>1233.9</ele>
      </trkpt>
      <trkpt lat="46.8082" lon="6.47722">
        <ele>1233.8</ele>
      </trkpt>
      <trkpt lat="46.80861" lon="6.47741">
        <ele>1234.9</ele>
      </trkpt>
      <trkpt lat="46.8087" lon="6.47745">
        <ele>1235.3</ele>
      </trkpt>
      <trkpt lat="46.80877" lon="6.47748">
        <ele>1235.8</ele>
      </trkpt>
      <trkpt lat="46.80883" lon="6.47748">
        <ele>1236.3</ele>
      </trkpt>
      <trkpt lat="46.80892" lon="6.47747">
        <ele>1237</ele>
      </trkpt>
      <trkpt lat="46.80897" lon="6.47745">
        <ele>1237.5</ele>
      </trkpt>
      <trkpt lat="46.80903" lon="6.47739">
        <ele>1238.2</ele>
      </trkpt>
      <trkpt lat="46.8092" lon="6.47723">
        <ele>1239.7</ele>
      </trkpt>
      <trkpt lat="46.80932" lon="6.47736">
        <ele>1239.5</ele>
      </trkpt>
      <trkpt lat="46.80953" lon="6.47759">
        <ele>1239.1</ele>
      </trkpt>
      <trkpt lat="46.8097" lon="6.47777">
        <ele>1238.8</ele>
      </trkpt>
      <trkpt lat="46.80977" lon="6.47786">
        <ele>1238.8</ele>
      </trkpt>
      <trkpt lat="46.80983" lon="6.47794">
        <ele>1238.8</ele>
      </trkpt>
      <trkpt lat="46.81005" lon="6.47826">
        <ele>1239.3</ele>
      </trkpt>
      <trkpt lat="46.81026" lon="6.47856">
        <ele>1240.1</ele>
      </trkpt>
      <trkpt lat="46.81036" lon="6.47871">
        <ele>1240.5</ele>
      </trkpt>
      <trkpt lat="46.81042" lon="6.47879">
        <ele>1240.7</ele>
      </trkpt>
      <trkpt lat="46.81047" lon="6.47885">
        <ele>1240.9</ele>
      </trkpt>
      <trkpt lat="46.81051" lon="6.4789">
        <ele>1241</ele>
      </trkpt>
      <trkpt lat="46.81056" lon="6.47893">
        <ele>1241.2</ele>
      </trkpt>
      <trkpt lat="46.8106" lon="6.47896">
        <ele>1241.4</ele>
      </trkpt>
      <trkpt lat="46.81067" lon="6.479">
        <ele>1241.6</ele>
      </trkpt>
      <trkpt lat="46.81073" lon="6.47901">
        <ele>1241.8</ele>
      </trkpt>
      <trkpt lat="46.8108" lon="6.47903">
        <ele>1242.1</ele>
      </trkpt>
      <trkpt lat="46.81088" lon="6.47906">
        <ele>1242.2</ele>
      </trkpt>
      <trkpt lat="46.81115" lon="6.47916">
        <ele>1242.4</ele>
      </trkpt>
      <trkpt lat="46.81121" lon="6.47919">
        <ele>1242.5</ele>
      </trkpt>
      <trkpt lat="46.81126" lon="6.47922">
        <ele>1242.6</ele>
      </trkpt>
      <trkpt lat="46.81131" lon="6.47926">
        <ele>1242.7</ele>
      </trkpt>
      <trkpt lat="46.81136" lon="6.47932">
        <ele>1242.9</ele>
      </trkpt>
      <trkpt lat="46.81141" lon="6.47939">
        <ele>1243.2</ele>
      </trkpt>
      <trkpt lat="46.81188" lon="6.48006">
        <ele>1248</ele>
      </trkpt>
      <trkpt lat="46.81229" lon="6.48063">
        <ele>1253.8</ele>
      </trkpt>
      <trkpt lat="46.81233" lon="6.4807">
        <ele>1254.6</ele>
      </trkpt>
      <trkpt lat="46.81237" lon="6.48075">
        <ele>1255.2</ele>
      </trkpt>
      <trkpt lat="46.81239" lon="6.48082">
        <ele>1255.7</ele>
      </trkpt>
      <trkpt lat="46.81239" lon="6.48087">
        <ele>1255.9</ele>
      </trkpt>
      <trkpt lat="46.81238" lon="6.4811">
        <ele>1256.4</ele>
      </trkpt>
      <trkpt lat="46.81235" lon="6.48173">
        <ele>1258.4</ele>
      </trkpt>
      <trkpt lat="46.81235" lon="6.48183">
        <ele>1259.1</ele>
      </trkpt>
      <trkpt lat="46.81235" lon="6.4819">
        <ele>1259.7</ele>
      </trkpt>
      <trkpt lat="46.81235" lon="6.48195">
        <ele>1260.2</ele>
      </trkpt>
      <trkpt lat="46.81236" lon="6.482">
        <ele>1260.6</ele>
      </trkpt>
      <trkpt lat="46.81237" lon="6.48206">
        <ele>1261.1</ele>
      </trkpt>
      <trkpt lat="46.81238" lon="6.4821">
        <ele>1261.6</ele>
      </trkpt>
      <trkpt lat="46.81242" lon="6.48218">
        <ele>1262.5</ele>
      </trkpt>
      <trkpt lat="46.81246" lon="6.48226">
        <ele>1263.6</ele>
      </trkpt>
      <trkpt lat="46.81249" lon="6.4823">
        <ele>1264.2</ele>
      </trkpt>
      <trkpt lat="46.81256" lon="6.48238">
        <ele>1265</ele>
      </trkpt>
      <trkpt lat="46.81263" lon="6.48246">
        <ele>1265.5</ele>
      </trkpt>
      <trkpt lat="46.81269" lon="6.48252">
        <ele>1265.8</ele>
      </trkpt>
      <trkpt lat="46.81276" lon="6.4826">
        <ele>1265.7</ele>
      </trkpt>
      <trkpt lat="46.81283" lon="6.48271">
        <ele>1265.5</ele>
      </trkpt>
      <trkpt lat="46.81289" lon="6.4828">
        <ele>1265.4</ele>
      </trkpt>
      <trkpt lat="46.81296" lon="6.48294">
        <ele>1265.2</ele>
      </trkpt>
      <trkpt lat="46.81305" lon="6.48316">
        <ele>1264.8</ele>
      </trkpt>
      <trkpt lat="46.81312" lon="6.48337">
        <ele>1264.3</ele>
      </trkpt>
      <trkpt lat="46.81316" lon="6.48346">
        <ele>1263.9</ele>
      </trkpt>
      <trkpt lat="46.8132" lon="6.48352">
        <ele>1263.6</ele>
      </trkpt>
      <trkpt lat="46.81326" lon="6.48359">
        <ele>1263.3</ele>
      </trkpt>
      <trkpt lat="46.81338" lon="6.48369">
        <ele>1263.2</ele>
      </trkpt>
      <trkpt lat="46.81346" lon="6.48377">
        <ele>1263.1</ele>
      </trkpt>
      <trkpt lat="46.81353" lon="6.48385">
        <ele>1262.9</ele>
      </trkpt>
      <trkpt lat="46.8137" lon="6.48402">
        <ele>1262.5</ele>
      </trkpt>
      <trkpt lat="46.81382" lon="6.48413">
        <ele>1262.2</ele>
      </trkpt>
      <trkpt lat="46.81392" lon="6.48424">
        <ele>1261.3</ele>
      </trkpt>
      <trkpt lat="46.81402" lon="6.48433">
        <ele>1260.7</ele>
      </trkpt>
      <trkpt lat="46.8141" lon="6.4844">
        <ele>1260.4</ele>
      </trkpt>
      <trkpt lat="46.81418" lon="6.48446">
        <ele>1260.3</ele>
      </trkpt>
      <trkpt lat="46.81427" lon="6.48451">
        <ele>1260.1</ele>
      </trkpt>
      <trkpt lat="46.81436" lon="6.48458">
        <ele>1259.8</ele>
      </trkpt>
      <trkpt lat="46.81444" lon="6.48463">
        <ele>1259.5</ele>
      </trkpt>
      <trkpt lat="46.8145" lon="6.4847">
        <ele>1259.1</ele>
      </trkpt>
      <trkpt lat="46.81455" lon="6.48476">
        <ele>1258.7</ele>
      </trkpt>
      <trkpt lat="46.81461" lon="6.48484">
        <ele>1258.2</ele>
      </trkpt>
      <trkpt lat="46.81466" lon="6.48487">
        <ele>1257.9</ele>
      </trkpt>
      <trkpt lat="46.81471" lon="6.48491">
        <ele>1257.7</ele>
      </trkpt>
      <trkpt lat="46.81478" lon="6.48494">
        <ele>1257.4</ele>
      </trkpt>
      <trkpt lat="46.81501" lon="6.48501">
        <ele>1256.9</ele>
      </trkpt>
      <trkpt lat="46.81525" lon="6.48507">
        <ele>1255.7</ele>
      </trkpt>
      <trkpt lat="46.81538" lon="6.48509">
        <ele>1255.1</ele>
      </trkpt>
      <trkpt lat="46.81545" lon="6.4851">
        <ele>1254.8</ele>
      </trkpt>
      <trkpt lat="46.8155" lon="6.48512">
        <ele>1254.6</ele>
      </trkpt>
      <trkpt lat="46.81555" lon="6.48514">
        <ele>1254.3</ele>
      </trkpt>
      <trkpt lat="46.81562" lon="6.48518">
        <ele>1254</ele>
      </trkpt>
      <trkpt lat="46.81578" lon="6.4853">
        <ele>1253.1</ele>
      </trkpt>
      <trkpt lat="46.81589" lon="6.48538">
        <ele>1252.2</ele>
      </trkpt>
      <trkpt lat="46.81593" lon="6.48541">
        <ele>1251.9</ele>
      </trkpt>
      <trkpt lat="46.81597" lon="6.48543">
        <ele>1251.7</ele>
      </trkpt>
      <trkpt lat="46.816" lon="6.48544">
        <ele>1251.5</ele>
      </trkpt>
      <trkpt lat="46.81635" lon="6.48575">
        <ele>1250.7</ele>
      </trkpt>
      <trkpt lat="46.81646" lon="6.48585">
        <ele>1250.9</ele>
      </trkpt>
      <trkpt lat="46.8171" lon="6.48601">
        <ele>1247.7</ele>
      </trkpt>
      <trkpt lat="46.8174" lon="6.4861">
        <ele>1246.4</ele>
      </trkpt>
      <trkpt lat="46.81765" lon="6.48628">
        <ele>1247.2</ele>
      </trkpt>
      <trkpt lat="46.81841" lon="6.48642">
        <ele>1244.4</ele>
      </trkpt>
      <trkpt lat="46.81881" lon="6.48627">
        <ele>1245.6</ele>
      </trkpt>
      <trkpt lat="46.81924" lon="6.48628">
        <ele>1245.9</ele>
      </trkpt>
      <trkpt lat="46.81965" lon="6.48637">
        <ele>1243.2</ele>
      </trkpt>
      <trkpt lat="46.81993" lon="6.48667">
        <ele>1240.3</ele>
      </trkpt>
      <trkpt lat="46.82009" lon="6.48687">
        <ele>1238.8</ele>
      </trkpt>
      <trkpt lat="46.82047" lon="6.48706">
        <ele>1234.2</ele>
      </trkpt>
      <trkpt lat="46.82075" lon="6.48726">
        <ele>1230.6</ele>
      </trkpt>
      <trkpt lat="46.82127" lon="6.48774">
        <ele>1229.7</ele>
      </trkpt>
      <trkpt lat="46.82153" lon="6.48791">
        <ele>1229.7</ele>
      </trkpt>
      <trkpt lat="46.82176" lon="6.48823">
        <ele>1230</ele>
      </trkpt>
      <trkpt lat="46.82202" lon="6.4887">
        <ele>1231.4</ele>
      </trkpt>
      <trkpt lat="46.82224" lon="6.48884">
        <ele>1230.6</ele>
      </trkpt>
      <trkpt lat="46.8224" lon="6.48891">
        <ele>1229.8</ele>
      </trkpt>
      <trkpt lat="46.8226" lon="6.48894">
        <ele>1229.7</ele>
      </trkpt>
      <trkpt lat="46.82272" lon="6.48893">
        <ele>1230.4</ele>
      </trkpt>
      <trkpt lat="46.82288" lon="6.48872">
        <ele>1228.8</ele>
      </trkpt>
      <trkpt lat="46.82295" lon="6.48862">
        <ele>1228.2</ele>
      </trkpt>
      <trkpt lat="46.82317" lon="6.48858">
        <ele>1229.4</ele>
      </trkpt>
      <trkpt lat="46.82365" lon="6.48858">
        <ele>1227.3</ele>
      </trkpt>
      <trkpt lat="46.82379" lon="6.48862">
        <ele>1226.6</ele>
      </trkpt>
      <trkpt lat="46.8241" lon="6.48897">
        <ele>1230.5</ele>
      </trkpt>
      <trkpt lat="46.82441" lon="6.48919">
        <ele>1228.8</ele>
      </trkpt>
      <trkpt lat="46.82484" lon="6.48966">
        <ele>1228.9</ele>
      </trkpt>
      <trkpt lat="46.82503" lon="6.48988">
        <ele>1230.8</ele>
      </trkpt>
      <trkpt lat="46.82521" lon="6.49019">
        <ele>1230.7</ele>
      </trkpt>
      <trkpt lat="46.82528" lon="6.4906">
        <ele>1231</ele>
      </trkpt>
      <trkpt lat="46.8253" lon="6.49072">
        <ele>1231</ele>
      </trkpt>
      <trkpt lat="46.82531" lon="6.49079">
        <ele>1231.2</ele>
      </trkpt>
      <trkpt lat="46.82531" lon="6.49085">
        <ele>1231.1</ele>
      </trkpt>
      <trkpt lat="46.8253" lon="6.49095">
        <ele>1230.1</ele>
      </trkpt>
      <trkpt lat="46.8253" lon="6.49107">
        <ele>1228.7</ele>
      </trkpt>
      <trkpt lat="46.8253" lon="6.4912">
        <ele>1227.1</ele>
      </trkpt>
      <trkpt lat="46.82531" lon="6.49131">
        <ele>1225.5</ele>
      </trkpt>
      <trkpt lat="46.82533" lon="6.49147">
        <ele>1223.1</ele>
      </trkpt>
      <trkpt lat="46.82536" lon="6.49156">
        <ele>1221.4</ele>
      </trkpt>
      <trkpt lat="46.82539" lon="6.49162">
        <ele>1220.1</ele>
      </trkpt>
      <trkpt lat="46.82543" lon="6.49166">
        <ele>1218.7</ele>
      </trkpt>
      <trkpt lat="46.82549" lon="6.49169">
        <ele>1217.1</ele>
      </trkpt>
      <trkpt lat="46.82556" lon="6.49172">
        <ele>1215.1</ele>
      </trkpt>
      <trkpt lat="46.8257" lon="6.49178">
        <ele>1211.3</ele>
      </trkpt>
      <trkpt lat="46.82584" lon="6.49184">
        <ele>1207.7</ele>
      </trkpt>
      <trkpt lat="46.82597" lon="6.49191">
        <ele>1206.5</ele>
      </trkpt>
      <trkpt lat="46.82601" lon="6.49193">
        <ele>1206.1</ele>
      </trkpt>
      <trkpt lat="46.82606" lon="6.49194">
        <ele>1206.1</ele>
      </trkpt>
      <trkpt lat="46.8261" lon="6.49194">
        <ele>1206.1</ele>
      </trkpt>
      <trkpt lat="46.82616" lon="6.49193">
        <ele>1206.3</ele>
      </trkpt>
      <trkpt lat="46.82622" lon="6.49194">
        <ele>1206.2</ele>
      </trkpt>
      <trkpt lat="46.82628" lon="6.49195">
        <ele>1206.1</ele>
      </trkpt>
      <trkpt lat="46.82633" lon="6.49195">
        <ele>1206.1</ele>
      </trkpt>
      <trkpt lat="46.82639" lon="6.49195">
        <ele>1206.3</ele>
      </trkpt>
      <trkpt lat="46.82661" lon="6.49201">
        <ele>1205.6</ele>
      </trkpt>
      <trkpt lat="46.82666" lon="6.49209">
        <ele>1204.3</ele>
      </trkpt>
      <trkpt lat="46.8266" lon="6.49218">
        <ele>1202.8</ele>
      </trkpt>
      <trkpt lat="46.82653" lon="6.49226">
        <ele>1201.4</ele>
      </trkpt>
      <trkpt lat="46.82674" lon="6.49274">
        <ele>1192.1</ele>
      </trkpt>
      <trkpt lat="46.82682" lon="6.49285">
        <ele>1189.6</ele>
      </trkpt>
      <trkpt lat="46.82693" lon="6.49307">
        <ele>1185.2</ele>
      </trkpt>
      <trkpt lat="46.82703" lon="6.49346">
        <ele>1177.7</ele>
      </trkpt>
      <trkpt lat="46.82755" lon="6.49513">
        <ele>1151</ele>
      </trkpt>
      <trkpt lat="46.82788" lon="6.4959">
        <ele>1144.7</ele>
      </trkpt>
      <trkpt lat="46.82795" lon="6.49607">
        <ele>1143</ele>
      </trkpt>
      <trkpt lat="46.82801" lon="6.49628">
        <ele>1140.4</ele>
      </trkpt>
      <trkpt lat="46.82763" lon="6.49635">
        <ele>1137.2</ele>
      </trkpt>
      <trkpt lat="46.82754" lon="6.49638">
        <ele>1136.4</ele>
      </trkpt>
      <trkpt lat="46.82618" lon="6.49666">
        <ele>1126.9</ele>
      </trkpt>
      <trkpt lat="46.82605" lon="6.49677">
        <ele>1124.8</ele>
      </trkpt>
      <trkpt lat="46.82557" lon="6.49695">
        <ele>1119.6</ele>
      </trkpt>
      <trkpt lat="46.8255" lon="6.49698">
        <ele>1118.8</ele>
      </trkpt>
      <trkpt lat="46.82542" lon="6.49707">
        <ele>1117.4</ele>
      </trkpt>
      <trkpt lat="46.82523" lon="6.49739">
        <ele>1112.7</ele>
      </trkpt>
      <trkpt lat="46.82513" lon="6.49758">
        <ele>1110.2</ele>
      </trkpt>
      <trkpt lat="46.82504" lon="6.49774">
        <ele>1108.5</ele>
      </trkpt>
      <trkpt lat="46.82502" lon="6.49778">
        <ele>1108.1</ele>
      </trkpt>
      <trkpt lat="46.82482" lon="6.49805">
        <ele>1105.2</ele>
      </trkpt>
      <trkpt lat="46.82441" lon="6.49852">
        <ele>1100</ele>
      </trkpt>
      <trkpt lat="46.82409" lon="6.49886">
        <ele>1096.4</ele>
      </trkpt>
      <trkpt lat="46.82386" lon="6.49908">
        <ele>1093.1</ele>
      </trkpt>
      <trkpt lat="46.82368" lon="6.49928">
        <ele>1090.2</ele>
      </trkpt>
      <trkpt lat="46.82352" lon="6.4994">
        <ele>1088.2</ele>
      </trkpt>
      <trkpt lat="46.82305" lon="6.49979">
        <ele>1083</ele>
      </trkpt>
      <trkpt lat="46.82289" lon="6.49993">
        <ele>1081.7</ele>
      </trkpt>
      <trkpt lat="46.82276" lon="6.5001">
        <ele>1080.9</ele>
      </trkpt>
      <trkpt lat="46.82259" lon="6.50033">
        <ele>1080</ele>
      </trkpt>
      <trkpt lat="46.82249" lon="6.50046">
        <ele>1079.4</ele>
      </trkpt>
      <trkpt lat="46.82246" lon="6.50051">
        <ele>1079.1</ele>
      </trkpt>
      <trkpt lat="46.82243" lon="6.50054">
        <ele>1078.9</ele>
      </trkpt>
      <trkpt lat="46.82233" lon="6.50062">
        <ele>1078.2</ele>
      </trkpt>
      <trkpt lat="46.82217" lon="6.50058">
        <ele>1077.2</ele>
      </trkpt>
      <trkpt lat="46.82214" lon="6.50058">
        <ele>1077.1</ele>
      </trkpt>
      <trkpt lat="46.82152" lon="6.50035">
        <ele>1072.9</ele>
      </trkpt>
      <trkpt lat="46.82145" lon="6.50031">
        <ele>1072.6</ele>
      </trkpt>
      <trkpt lat="46.82137" lon="6.50028">
        <ele>1072.3</ele>
      </trkpt>
      <trkpt lat="46.82123" lon="6.5002">
        <ele>1071.7</ele>
      </trkpt>
      <trkpt lat="46.82116" lon="6.50015">
        <ele>1071.3</ele>
      </trkpt>
      <trkpt lat="46.8211" lon="6.50011">
        <ele>1071</ele>
      </trkpt>
      <trkpt lat="46.8208" lon="6.49997">
        <ele>1069.7</ele>
      </trkpt>
      <trkpt lat="46.82075" lon="6.49997">
        <ele>1069.4</ele>
      </trkpt>
      <trkpt lat="46.82044" lon="6.49991">
        <ele>1067.4</ele>
      </trkpt>
      <trkpt lat="46.82034" lon="6.49993">
        <ele>1066.8</ele>
      </trkpt>
      <trkpt lat="46.82012" lon="6.49997">
        <ele>1065.6</ele>
      </trkpt>
      <trkpt lat="46.81991" lon="6.50005">
        <ele>1065.3</ele>
      </trkpt>
      <trkpt lat="46.81979" lon="6.50023">
        <ele>1066.3</ele>
      </trkpt>
      <trkpt lat="46.8197" lon="6.50049">
        <ele>1067.7</ele>
      </trkpt>
      <trkpt lat="46.81955" lon="6.50098">
        <ele>1068.9</ele>
      </trkpt>
      <trkpt lat="46.81952" lon="6.50105">
        <ele>1068.8</ele>
      </trkpt>
      <trkpt lat="46.81951" lon="6.50116">
        <ele>1068.9</ele>
      </trkpt>
      <trkpt lat="46.8195" lon="6.50126">
        <ele>1068.9</ele>
      </trkpt>
      <trkpt lat="46.81949" lon="6.5014">
        <ele>1069</ele>
      </trkpt>
      <trkpt lat="46.81949" lon="6.50147">
        <ele>1069.1</ele>
      </trkpt>
      <trkpt lat="46.81948" lon="6.50167">
        <ele>1069.2</ele>
      </trkpt>
      <trkpt lat="46.81958" lon="6.50172">
        <ele>1070</ele>
      </trkpt>
      <trkpt lat="46.81972" lon="6.50178">
        <ele>1070.9</ele>
      </trkpt>
      <trkpt lat="46.81983" lon="6.50189">
        <ele>1071.4</ele>
      </trkpt>
      <trkpt lat="46.81988" lon="6.50193">
        <ele>1071.6</ele>
      </trkpt>
      <trkpt lat="46.82" lon="6.50188">
        <ele>1072.4</ele>
      </trkpt>
      <trkpt lat="46.82013" lon="6.50191">
        <ele>1072.9</ele>
      </trkpt>
      <trkpt lat="46.82038" lon="6.50196">
        <ele>1073.7</ele>
      </trkpt>
      <trkpt lat="46.82066" lon="6.50201">
        <ele>1074.6</ele>
      </trkpt>
      <trkpt lat="46.8212" lon="6.50211">
        <ele>1077.6</ele>
      </trkpt>
      <trkpt lat="46.82166" lon="6.50218">
        <ele>1081.2</ele>
      </trkpt>
      <trkpt lat="46.82181" lon="6.50221">
        <ele>1082.4</ele>
      </trkpt>
      <trkpt lat="46.82137" lon="6.50393">
        <ele>1077</ele>
      </trkpt>
      <trkpt lat="46.82148" lon="6.50349">
        <ele>1078.4</ele>
      </trkpt>
      <trkpt lat="46.8216" lon="6.50303">
        <ele>1080.2</ele>
      </trkpt>
      <trkpt lat="46.8217" lon="6.50266">
        <ele>1081.9</ele>
      </trkpt>
      <trkpt lat="46.82173" lon="6.50252">
        <ele>1082.6</ele>
      </trkpt>
      <trkpt lat="46.82181" lon="6.50221">
        <ele>1082.4</ele>
      </trkpt>
      <trkpt lat="46.82186" lon="6.50222">
        <ele>1082.8</ele>
      </trkpt>
      <trkpt lat="46.8219" lon="6.50225">
        <ele>1083.3</ele>
      </trkpt>
      <trkpt lat="46.82195" lon="6.50233">
        <ele>1084</ele>
      </trkpt>
      <trkpt lat="46.82227" lon="6.5026">
        <ele>1087.6</ele>
      </trkpt>
      <trkpt lat="46.82247" lon="6.50276">
        <ele>1089.4</ele>
      </trkpt>
      <trkpt lat="46.82259" lon="6.50288">
        <ele>1090.8</ele>
      </trkpt>
      <trkpt lat="46.82255" lon="6.50299">
        <ele>1090.2</ele>
      </trkpt>
      <trkpt lat="46.82276" lon="6.50315">
        <ele>1093.9</ele>
      </trkpt>
      <trkpt lat="46.82285" lon="6.50324">
        <ele>1095.7</ele>
      </trkpt>
      <trkpt lat="46.82291" lon="6.50313">
        <ele>1096.5</ele>
      </trkpt>
      <trkpt lat="46.823" lon="6.50336">
        <ele>1099.1</ele>
      </trkpt>
      <trkpt lat="46.82303" lon="6.50363">
        <ele>1099</ele>
      </trkpt>
      <trkpt lat="46.8231" lon="6.50378">
        <ele>1100.1</ele>
      </trkpt>
      <trkpt lat="46.82342" lon="6.50393">
        <ele>1106.6</ele>
      </trkpt>
      <trkpt lat="46.82388" lon="6.50426">
        <ele>1118.3</ele>
      </trkpt>
      <trkpt lat="46.82395" lon="6.50431">
        <ele>1119.7</ele>
      </trkpt>
      <trkpt lat="46.82428" lon="6.50462">
        <ele>1126.4</ele>
      </trkpt>
      <trkpt lat="46.82467" lon="6.50496">
        <ele>1136.7</ele>
      </trkpt>
      <trkpt lat="46.8253" lon="6.50551">
        <ele>1153.2</ele>
      </trkpt>
      <trkpt lat="46.8268" lon="6.50643">
        <ele>1189.7</ele>
      </trkpt>
      <trkpt lat="46.82761" lon="6.507">
        <ele>1206.8</ele>
      </trkpt>
      <trkpt lat="46.82835" lon="6.50727">
        <ele>1223.6</ele>
      </trkpt>
      <trkpt lat="46.82875" lon="6.50734">
        <ele>1228.3</ele>
      </trkpt>
      <trkpt lat="46.82941" lon="6.50748">
        <ele>1235.9</ele>
      </trkpt>
      <trkpt lat="46.82956" lon="6.50747">
        <ele>1237.9</ele>
      </trkpt>
      <trkpt lat="46.82966" lon="6.50743">
        <ele>1239.2</ele>
      </trkpt>
      <trkpt lat="46.82973" lon="6.50741">
        <ele>1240.1</ele>
      </trkpt>
      <trkpt lat="46.83015" lon="6.50726">
        <ele>1245.4</ele>
      </trkpt>
      <trkpt lat="46.83104" lon="6.50699">
        <ele>1252.5</ele>
      </trkpt>
      <trkpt lat="46.8312" lon="6.50696">
        <ele>1252.8</ele>
      </trkpt>
      <trkpt lat="46.83132" lon="6.50694">
        <ele>1253</ele>
      </trkpt>
      <trkpt lat="46.83165" lon="6.50697">
        <ele>1254.3</ele>
      </trkpt>
      <trkpt lat="46.83162" lon="6.50704">
        <ele>1255.2</ele>
      </trkpt>
      <trkpt lat="46.83162" lon="6.50716">
        <ele>1256.9</ele>
      </trkpt>
      <trkpt lat="46.83165" lon="6.50727">
        <ele>1258.6</ele>
      </trkpt>
      <trkpt lat="46.8317" lon="6.50741">
        <ele>1260.7</ele>
      </trkpt>
      <trkpt lat="46.83178" lon="6.5075">
        <ele>1262.1</ele>
      </trkpt>
      <trkpt lat="46.83192" lon="6.50765">
        <ele>1266</ele>
      </trkpt>
      <trkpt lat="46.83199" lon="6.50772">
        <ele>1267.9</ele>
      </trkpt>
      <trkpt lat="46.83202" lon="6.50776">
        <ele>1269.1</ele>
      </trkpt>
      <trkpt lat="46.83204" lon="6.50782">
        <ele>1270.7</ele>
      </trkpt>
      <trkpt lat="46.83205" lon="6.5079">
        <ele>1272.6</ele>
      </trkpt>
      <trkpt lat="46.83206" lon="6.50793">
        <ele>1273.4</ele>
      </trkpt>
      <trkpt lat="46.83176" lon="6.50823">
        <ele>1279.3</ele>
      </trkpt>
      <trkpt lat="46.83147" lon="6.50852">
        <ele>1281.8</ele>
      </trkpt>
      <trkpt lat="46.83137" lon="6.50865">
        <ele>1283.2</ele>
      </trkpt>
      <trkpt lat="46.83129" lon="6.50881">
        <ele>1285.1</ele>
      </trkpt>
      <trkpt lat="46.83123" lon="6.50897">
        <ele>1287.5</ele>
      </trkpt>
      <trkpt lat="46.83119" lon="6.50916">
        <ele>1291</ele>
      </trkpt>
      <trkpt lat="46.83115" lon="6.50937">
        <ele>1293.9</ele>
      </trkpt>
      <trkpt lat="46.83108" lon="6.50961">
        <ele>1297</ele>
      </trkpt>
      <trkpt lat="46.83101" lon="6.51001">
        <ele>1303.4</ele>
      </trkpt>
      <trkpt lat="46.83092" lon="6.51025">
        <ele>1306.7</ele>
      </trkpt>
      <trkpt lat="46.83077" lon="6.51051">
        <ele>1308.7</ele>
      </trkpt>
      <trkpt lat="46.83063" lon="6.51094">
        <ele>1312.8</ele>
      </trkpt>
      <trkpt lat="46.83059" lon="6.51105">
        <ele>1313.2</ele>
      </trkpt>
      <trkpt lat="46.83055" lon="6.5112">
        <ele>1314</ele>
      </trkpt>
      <trkpt lat="46.83051" lon="6.51137">
        <ele>1314.9</ele>
      </trkpt>
      <trkpt lat="46.83049" lon="6.51151">
        <ele>1316</ele>
      </trkpt>
      <trkpt lat="46.83047" lon="6.51179">
        <ele>1318.2</ele>
      </trkpt>
      <trkpt lat="46.83046" lon="6.51197">
        <ele>1319.9</ele>
      </trkpt>
      <trkpt lat="46.83048" lon="6.51215">
        <ele>1322.1</ele>
      </trkpt>
      <trkpt lat="46.83052" lon="6.51254">
        <ele>1327.7</ele>
      </trkpt>
      <trkpt lat="46.83055" lon="6.51281">
        <ele>1332.3</ele>
      </trkpt>
      <trkpt lat="46.83058" lon="6.51317">
        <ele>1338.1</ele>
      </trkpt>
      <trkpt lat="46.83059" lon="6.51338">
        <ele>1340.7</ele>
      </trkpt>
      <trkpt lat="46.83062" lon="6.5136">
        <ele>1343.5</ele>
      </trkpt>
      <trkpt lat="46.83071" lon="6.51404">
        <ele>1350.3</ele>
      </trkpt>
      <trkpt lat="46.83086" lon="6.51465">
        <ele>1358.6</ele>
      </trkpt>
      <trkpt lat="46.8309" lon="6.51505">
        <ele>1361</ele>
      </trkpt>
      <trkpt lat="46.83094" lon="6.51523">
        <ele>1362.5</ele>
      </trkpt>
      <trkpt lat="46.83097" lon="6.51552">
        <ele>1364.4</ele>
      </trkpt>
      <trkpt lat="46.83102" lon="6.51578">
        <ele>1366.6</ele>
      </trkpt>
      <trkpt lat="46.83112" lon="6.51623">
        <ele>1371.2</ele>
      </trkpt>
      <trkpt lat="46.83116" lon="6.51652">
        <ele>1372.9</ele>
      </trkpt>
      <trkpt lat="46.83117" lon="6.51672">
        <ele>1373</ele>
      </trkpt>
      <trkpt lat="46.83117" lon="6.51684">
        <ele>1372.9</ele>
      </trkpt>
      <trkpt lat="46.8312" lon="6.51714">
        <ele>1374</ele>
      </trkpt>
      <trkpt lat="46.83129" lon="6.51738">
        <ele>1377.4</ele>
      </trkpt>
      <trkpt lat="46.83138" lon="6.51762">
        <ele>1380.1</ele>
      </trkpt>
      <trkpt lat="46.83142" lon="6.51775">
        <ele>1381.2</ele>
      </trkpt>
      <trkpt lat="46.83149" lon="6.51818">
        <ele>1381.3</ele>
      </trkpt>
      <trkpt lat="46.83162" lon="6.51855">
        <ele>1383.8</ele>
      </trkpt>
      <trkpt lat="46.83164" lon="6.51883">
        <ele>1383.5</ele>
      </trkpt>
      <trkpt lat="46.83163" lon="6.51905">
        <ele>1382.7</ele>
      </trkpt>
      <trkpt lat="46.8317" lon="6.51946">
        <ele>1384.1</ele>
      </trkpt>
      <trkpt lat="46.83172" lon="6.51967">
        <ele>1384.8</ele>
      </trkpt>
      <trkpt lat="46.83172" lon="6.5198">
        <ele>1384.9</ele>
      </trkpt>
      <trkpt lat="46.83168" lon="6.5201">
        <ele>1384.1</ele>
      </trkpt>
      <trkpt lat="46.83165" lon="6.52043">
        <ele>1383.2</ele>
      </trkpt>
      <trkpt lat="46.83165" lon="6.52052">
        <ele>1383</ele>
      </trkpt>
      <trkpt lat="46.83165" lon="6.52061">
        <ele>1382.9</ele>
      </trkpt>
      <trkpt lat="46.83166" lon="6.52075">
        <ele>1383</ele>
      </trkpt>
      <trkpt lat="46.8317" lon="6.52092">
        <ele>1382.6</ele>
      </trkpt>
      <trkpt lat="46.83175" lon="6.52104">
        <ele>1382.2</ele>
      </trkpt>
      <trkpt lat="46.83181" lon="6.5211">
        <ele>1382.3</ele>
      </trkpt>
      <trkpt lat="46.83186" lon="6.52111">
        <ele>1382.9</ele>
      </trkpt>
      <trkpt lat="46.83192" lon="6.52109">
        <ele>1383.8</ele>
      </trkpt>
      <trkpt lat="46.83199" lon="6.52106">
        <ele>1385.1</ele>
      </trkpt>
      <trkpt lat="46.83209" lon="6.52108">
        <ele>1386.3</ele>
      </trkpt>
      <trkpt lat="46.83215" lon="6.52111">
        <ele>1386.8</ele>
      </trkpt>
      <trkpt lat="46.83222" lon="6.52111">
        <ele>1387.6</ele>
      </trkpt>
      <trkpt lat="46.83236" lon="6.52108">
        <ele>1389.8</ele>
      </trkpt>
      <trkpt lat="46.83241" lon="6.52108">
        <ele>1390.5</ele>
      </trkpt>
      <trkpt lat="46.83245" lon="6.52111">
        <ele>1390.7</ele>
      </trkpt>
      <trkpt lat="46.83249" lon="6.52113">
        <ele>1390.9</ele>
      </trkpt>
      <trkpt lat="46.83253" lon="6.52119">
        <ele>1390.7</ele>
      </trkpt>
      <trkpt lat="46.83257" lon="6.52131">
        <ele>1389.6</ele>
      </trkpt>
      <trkpt lat="46.83263" lon="6.52154">
        <ele>1387.4</ele>
      </trkpt>
      <trkpt lat="46.83267" lon="6.52156">
        <ele>1387.5</ele>
      </trkpt>
      <trkpt lat="46.83272" lon="6.52159">
        <ele>1387.8</ele>
      </trkpt>
      <trkpt lat="46.83299" lon="6.52165">
        <ele>1390.8</ele>
      </trkpt>
      <trkpt lat="46.83305" lon="6.52167">
        <ele>1391.2</ele>
      </trkpt>
      <trkpt lat="46.8331" lon="6.52172">
        <ele>1391.6</ele>
      </trkpt>
      <trkpt lat="46.83322" lon="6.52184">
        <ele>1392.4</ele>
      </trkpt>
      <trkpt lat="46.83341" lon="6.5219">
        <ele>1394.7</ele>
      </trkpt>
      <trkpt lat="46.83361" lon="6.52204">
        <ele>1396.9</ele>
      </trkpt>
      <trkpt lat="46.8337" lon="6.52203">
        <ele>1398.4</ele>
      </trkpt>
      <trkpt lat="46.83387" lon="6.52193">
        <ele>1401</ele>
      </trkpt>
      <trkpt lat="46.83405" lon="6.52178">
        <ele>1403.6</ele>
      </trkpt>
      <trkpt lat="46.83421" lon="6.52162">
        <ele>1405.5</ele>
      </trkpt>
      <trkpt lat="46.83441" lon="6.52142">
        <ele>1407.8</ele>
      </trkpt>
      <trkpt lat="46.83477" lon="6.52173">
        <ele>1410.5</ele>
      </trkpt>
      <trkpt lat="46.83501" lon="6.52175">
        <ele>1412.8</ele>
      </trkpt>
      <trkpt lat="46.83506" lon="6.52177">
        <ele>1413.5</ele>
      </trkpt>
      <trkpt lat="46.8351" lon="6.52187">
        <ele>1414.9</ele>
      </trkpt>
      <trkpt lat="46.83541" lon="6.52251">
        <ele>1425.5</ele>
      </trkpt>
      <trkpt lat="46.83547" lon="6.52253">
        <ele>1426.4</ele>
      </trkpt>
      <trkpt lat="46.83559" lon="6.52271">
        <ele>1429.6</ele>
      </trkpt>
      <trkpt lat="46.8356" lon="6.52287">
        <ele>1431</ele>
      </trkpt>
      <trkpt lat="46.8357" lon="6.52293">
        <ele>1433.5</ele>
      </trkpt>
      <trkpt lat="46.83574" lon="6.52307">
        <ele>1435.4</ele>
      </trkpt>
      <trkpt lat="46.83615" lon="6.52349">
        <ele>1445.3</ele>
      </trkpt>
      <trkpt lat="46.83627" lon="6.5235">
        <ele>1447.2</ele>
      </trkpt>
      <trkpt lat="46.83643" lon="6.52379">
        <ele>1449.8</ele>
      </trkpt>
      <trkpt lat="46.83648" lon="6.52378">
        <ele>1450.6</ele>
      </trkpt>
      <trkpt lat="46.83657" lon="6.52365">
        <ele>1452.1</ele>
      </trkpt>
      <trkpt lat="46.83666" lon="6.52365">
        <ele>1453.5</ele>
      </trkpt>
      <trkpt lat="46.83689" lon="6.52373">
        <ele>1454.6</ele>
      </trkpt>
      <trkpt lat="46.83758" lon="6.52427">
        <ele>1463.2</ele>
      </trkpt>
      <trkpt lat="46.83778" lon="6.5243">
        <ele>1466</ele>
      </trkpt>
      <trkpt lat="46.83785" lon="6.52429">
        <ele>1466.8</ele>
      </trkpt>
      <trkpt lat="46.83798" lon="6.52444">
        <ele>1469.6</ele>
      </trkpt>
      <trkpt lat="46.83809" lon="6.52445">
        <ele>1471.2</ele>
      </trkpt>
      <trkpt lat="46.83832" lon="6.52462">
        <ele>1476.1</ele>
      </trkpt>
      <trkpt lat="46.8384" lon="6.52466">
        <ele>1478.1</ele>
      </trkpt>
      <trkpt lat="46.83877" lon="6.52449">
        <ele>1483.9</ele>
      </trkpt>
      <trkpt lat="46.83912" lon="6.52458">
        <ele>1492.5</ele>
      </trkpt>
      <trkpt lat="46.83961" lon="6.52477">
        <ele>1504.8</ele>
      </trkpt>
      <trkpt lat="46.83985" lon="6.52486">
        <ele>1511.9</ele>
      </trkpt>
      <trkpt lat="46.83997" lon="6.52491">
        <ele>1515.6</ele>
      </trkpt>
      <trkpt lat="46.84002" lon="6.52498">
        <ele>1518.5</ele>
      </trkpt>
      <trkpt lat="46.84011" lon="6.52504">
        <ele>1519.5</ele>
      </trkpt>
      <trkpt lat="46.84029" lon="6.52513">
        <ele>1521.3</ele>
      </trkpt>
      <trkpt lat="46.84053" lon="6.52532">
        <ele>1526.2</ele>
      </trkpt>
      <trkpt lat="46.84099" lon="6.52568">
        <ele>1539.3</ele>
      </trkpt>
      <trkpt lat="46.84161" lon="6.52624">
        <ele>1549.7</ele>
      </trkpt>
      <trkpt lat="46.84222" lon="6.52662">
        <ele>1553.1</ele>
      </trkpt>
      <trkpt lat="46.84265" lon="6.52762">
        <ele>1558.3</ele>
      </trkpt>
      <trkpt lat="46.84315" lon="6.5286">
        <ele>1549.5</ele>
      </trkpt>
      <trkpt lat="46.84323" lon="6.52885">
        <ele>1550.2</ele>
      </trkpt>
      <trkpt lat="46.84345" lon="6.52939">
        <ele>1546.8</ele>
      </trkpt>
      <trkpt lat="46.84358" lon="6.52967">
        <ele>1542.1</ele>
      </trkpt>
      <trkpt lat="46.84372" lon="6.52995">
        <ele>1539.8</ele>
      </trkpt>
      <trkpt lat="46.84387" lon="6.53031">
        <ele>1538.4</ele>
      </trkpt>
      <trkpt lat="46.84394" lon="6.53053">
        <ele>1539.2</ele>
      </trkpt>
      <trkpt lat="46.84401" lon="6.53069">
        <ele>1540.6</ele>
      </trkpt>
      <trkpt lat="46.84414" lon="6.53107">
        <ele>1541.1</ele>
      </trkpt>
      <trkpt lat="46.84424" lon="6.53126">
        <ele>1537.6</ele>
      </trkpt>
      <trkpt lat="46.8443" lon="6.53146">
        <ele>1535.1</ele>
      </trkpt>
      <trkpt lat="46.84436" lon="6.53147">
        <ele>1533.4</ele>
      </trkpt>
      <trkpt lat="46.84443" lon="6.53139">
        <ele>1531.7</ele>
      </trkpt>
      <trkpt lat="46.84465" lon="6.53152">
        <ele>1526.2</ele>
      </trkpt>
      <trkpt lat="46.84498" lon="6.53209">
        <ele>1521.2</ele>
      </trkpt>
      <trkpt lat="46.84584" lon="6.53307">
        <ele>1517</ele>
      </trkpt>
      <trkpt lat="46.84625" lon="6.53371">
        <ele>1514.2</ele>
      </trkpt>
      <trkpt lat="46.84668" lon="6.53432">
        <ele>1517.6</ele>
      </trkpt>
      <trkpt lat="46.84693" lon="6.53472">
        <ele>1517.8</ele>
      </trkpt>
      <trkpt lat="46.84723" lon="6.53507">
        <ele>1520.7</ele>
      </trkpt>
      <trkpt lat="46.84811" lon="6.53607">
        <ele>1533.5</ele>
      </trkpt>
      <trkpt lat="46.84866" lon="6.53665">
        <ele>1544.2</ele>
      </trkpt>
      <trkpt lat="46.84869" lon="6.53668">
        <ele>1544.8</ele>
      </trkpt>
      <trkpt lat="46.84883" lon="6.53676">
        <ele>1545.9</ele>
      </trkpt>
      <trkpt lat="46.84904" lon="6.53689">
        <ele>1548.6</ele>
      </trkpt>
      <trkpt lat="46.84935" lon="6.53727">
        <ele>1557.1</ele>
      </trkpt>
      <trkpt lat="46.84942" lon="6.53737">
        <ele>1560.3</ele>
      </trkpt>
      <trkpt lat="46.84952" lon="6.53761">
        <ele>1565.8</ele>
      </trkpt>
      <trkpt lat="46.84964" lon="6.53791">
        <ele>1569.3</ele>
      </trkpt>
      <trkpt lat="46.84968" lon="6.53799">
        <ele>1570.5</ele>
      </trkpt>
      <trkpt lat="46.84975" lon="6.53809">
        <ele>1572.7</ele>
      </trkpt>
      <trkpt lat="46.8499" lon="6.53842">
        <ele>1576.2</ele>
      </trkpt>
      <trkpt lat="46.84995" lon="6.53853">
        <ele>1576.4</ele>
      </trkpt>
      <trkpt lat="46.85002" lon="6.53862">
        <ele>1576.8</ele>
      </trkpt>
      <trkpt lat="46.85008" lon="6.53872">
        <ele>1576.2</ele>
      </trkpt>
      <trkpt lat="46.85013" lon="6.5388">
        <ele>1575.8</ele>
      </trkpt>
      <trkpt lat="46.8502" lon="6.53885">
        <ele>1576</ele>
      </trkpt>
      <trkpt lat="46.85024" lon="6.53888">
        <ele>1576.3</ele>
      </trkpt>
      <trkpt lat="46.85029" lon="6.53889">
        <ele>1576.7</ele>
      </trkpt>
      <trkpt lat="46.85033" lon="6.53886">
        <ele>1577.4</ele>
      </trkpt>
      <trkpt lat="46.85036" lon="6.5388">
        <ele>1578.3</ele>
      </trkpt>
      <trkpt lat="46.85043" lon="6.53877">
        <ele>1579.4</ele>
      </trkpt>
      <trkpt lat="46.85051" lon="6.5388">
        <ele>1580</ele>
      </trkpt>
      <trkpt lat="46.85056" lon="6.53884">
        <ele>1580.3</ele>
      </trkpt>
      <trkpt lat="46.85063" lon="6.53895">
        <ele>1580.1</ele>
      </trkpt>
      <trkpt lat="46.85063" lon="6.53903">
        <ele>1579.4</ele>
      </trkpt>
      <trkpt lat="46.85064" lon="6.5391">
        <ele>1579</ele>
      </trkpt>
      <trkpt lat="46.85084" lon="6.539">
        <ele>1582.2</ele>
      </trkpt>
      <trkpt lat="46.85097" lon="6.53896">
        <ele>1581.5</ele>
      </trkpt>
      <trkpt lat="46.85122" lon="6.53873">
        <ele>1578.8</ele>
      </trkpt>
      <trkpt lat="46.85142" lon="6.53868">
        <ele>1575.6</ele>
      </trkpt>
      <trkpt lat="46.85148" lon="6.53862">
        <ele>1574</ele>
      </trkpt>
      <trkpt lat="46.85155" lon="6.5386">
        <ele>1572.4</ele>
      </trkpt>
      <trkpt lat="46.85161" lon="6.53854">
        <ele>1570.6</ele>
      </trkpt>
      <trkpt lat="46.85172" lon="6.53835">
        <ele>1563.6</ele>
      </trkpt>
      <trkpt lat="46.85179" lon="6.53821">
        <ele>1554.7</ele>
      </trkpt>
      <trkpt lat="46.85182" lon="6.53831">
        <ele>1557.1</ele>
      </trkpt>
      <trkpt lat="46.85183" lon="6.53853">
        <ele>1562.2</ele>
      </trkpt>
      <trkpt lat="46.85211" lon="6.53907">
        <ele>1567.1</ele>
      </trkpt>
      <trkpt lat="46.85237" lon="6.53951">
        <ele>1567.9</ele>
      </trkpt>
      <trkpt lat="46.85251" lon="6.53973">
        <ele>1568.4</ele>
      </trkpt>
      <trkpt lat="46.85261" lon="6.53997">
        <ele>1567.2</ele>
      </trkpt>
      <trkpt lat="46.85272" lon="6.54036">
        <ele>1564.5</ele>
      </trkpt>
      <trkpt lat="46.85285" lon="6.54073">
        <ele>1563</ele>
      </trkpt>
      <trkpt lat="46.85291" lon="6.54088">
        <ele>1562.2</ele>
      </trkpt>
      <trkpt lat="46.85313" lon="6.54119">
        <ele>1556.6</ele>
      </trkpt>
      <trkpt lat="46.85344" lon="6.54157">
        <ele>1549</ele>
      </trkpt>
      <trkpt lat="46.85344" lon="6.5416">
        <ele>1548.8</ele>
      </trkpt>
      <trkpt lat="46.85353" lon="6.54238">
        <ele>1547.3</ele>
      </trkpt>
      <trkpt lat="46.85387" lon="6.54389">
        <ele>1546.3</ele>
      </trkpt>
      <trkpt lat="46.85429" lon="6.545">
        <ele>1546.5</ele>
      </trkpt>
      <trkpt lat="46.85455" lon="6.54542">
        <ele>1542.2</ele>
      </trkpt>
      <trkpt lat="46.85581" lon="6.54704">
        <ele>1534.3</ele>
      </trkpt>
      <trkpt lat="46.85621" lon="6.54773">
        <ele>1531.7</ele>
      </trkpt>
      <trkpt lat="46.85623" lon="6.54785">
        <ele>1531.6</ele>
      </trkpt>
      <trkpt lat="46.85618" lon="6.54799">
        <ele>1532</ele>
      </trkpt>
      <trkpt lat="46.85617" lon="6.54824">
        <ele>1532.2</ele>
      </trkpt>
      <trkpt lat="46.85653" lon="6.54962">
        <ele>1530.7</ele>
      </trkpt>
      <trkpt lat="46.85692" lon="6.55028">
        <ele>1526.4</ele>
      </trkpt>
      <trkpt lat="46.85714" lon="6.55055">
        <ele>1523.2</ele>
      </trkpt>
      <trkpt lat="46.85752" lon="6.55097">
        <ele>1518.7</ele>
      </trkpt>
      <trkpt lat="46.85766" lon="6.55111">
        <ele>1514.6</ele>
      </trkpt>
      <trkpt lat="46.8577" lon="6.55126">
        <ele>1512</ele>
      </trkpt>
      <trkpt lat="46.85779" lon="6.55125">
        <ele>1510.9</ele>
      </trkpt>
      <trkpt lat="46.85782" lon="6.55136">
        <ele>1509.2</ele>
      </trkpt>
      <trkpt lat="46.85782" lon="6.55144">
        <ele>1508.4</ele>
      </trkpt>
      <trkpt lat="46.85787" lon="6.55153">
        <ele>1506.8</ele>
      </trkpt>
      <trkpt lat="46.85804" lon="6.5518">
        <ele>1503.3</ele>
      </trkpt>
      <trkpt lat="46.85807" lon="6.55187">
        <ele>1502.7</ele>
      </trkpt>
      <trkpt lat="46.85822" lon="6.55204">
        <ele>1500.9</ele>
      </trkpt>
      <trkpt lat="46.85853" lon="6.55222">
        <ele>1496.6</ele>
      </trkpt>
      <trkpt lat="46.85882" lon="6.55262">
        <ele>1491.9</ele>
      </trkpt>
      <trkpt lat="46.85886" lon="6.55271">
        <ele>1491.2</ele>
      </trkpt>
      <trkpt lat="46.85884" lon="6.55284">
        <ele>1491.4</ele>
      </trkpt>
      <trkpt lat="46.8589" lon="6.55302">
        <ele>1490.4</ele>
      </trkpt>
      <trkpt lat="46.85923" lon="6.5537">
        <ele>1484.5</ele>
      </trkpt>
      <trkpt lat="46.85931" lon="6.554">
        <ele>1481.8</ele>
      </trkpt>
      <trkpt lat="46.85936" lon="6.55448">
        <ele>1478</ele>
      </trkpt>
      <trkpt lat="46.85943" lon="6.55478">
        <ele>1474.8</ele>
      </trkpt>
      <trkpt lat="46.85965" lon="6.55547">
        <ele>1467.9</ele>
      </trkpt>
      <trkpt lat="46.85987" lon="6.55625">
        <ele>1462.1</ele>
      </trkpt>
      <trkpt lat="46.85996" lon="6.55695">
        <ele>1460.7</ele>
      </trkpt>
      <trkpt lat="46.86005" lon="6.55774">
        <ele>1455.2</ele>
      </trkpt>
      <trkpt lat="46.86012" lon="6.55811">
        <ele>1450.2</ele>
      </trkpt>
      <trkpt lat="46.86019" lon="6.55842">
        <ele>1446.1</ele>
      </trkpt>
      <trkpt lat="46.86033" lon="6.55917">
        <ele>1440.4</ele>
      </trkpt>
      <trkpt lat="46.86035" lon="6.55952">
        <ele>1438.5</ele>
      </trkpt>
      <trkpt lat="46.86037" lon="6.55981">
        <ele>1437.1</ele>
      </trkpt>
      <trkpt lat="46.8604" lon="6.56004">
        <ele>1436</ele>
      </trkpt>
      <trkpt lat="46.86056" lon="6.5609">
        <ele>1433.5</ele>
      </trkpt>
      <trkpt lat="46.86063" lon="6.56149">
        <ele>1431.9</ele>
      </trkpt>
      <trkpt lat="46.86067" lon="6.56168">
        <ele>1431.4</ele>
      </trkpt>
      <trkpt lat="46.8607" lon="6.5618">
        <ele>1430.8</ele>
      </trkpt>
      <trkpt lat="46.86075" lon="6.56208">
        <ele>1429.6</ele>
      </trkpt>
      <trkpt lat="46.86077" lon="6.56245">
        <ele>1428.5</ele>
      </trkpt>
      <trkpt lat="46.86093" lon="6.56281">
        <ele>1425.7</ele>
      </trkpt>
      <trkpt lat="46.86095" lon="6.56294">
        <ele>1425.4</ele>
      </trkpt>
      <trkpt lat="46.861" lon="6.56356">
        <ele>1424.4</ele>
      </trkpt>
      <trkpt lat="46.86108" lon="6.56409">
        <ele>1423.2</ele>
      </trkpt>
      <trkpt lat="46.86117" lon="6.56491">
        <ele>1422.3</ele>
      </trkpt>
      <trkpt lat="46.86118" lon="6.56511">
        <ele>1422</ele>
      </trkpt>
      <trkpt lat="46.86115" lon="6.56536">
        <ele>1421.2</ele>
      </trkpt>
      <trkpt lat="46.86122" lon="6.5656">
        <ele>1421.2</ele>
      </trkpt>
      <trkpt lat="46.86125" lon="6.56586">
        <ele>1421</ele>
      </trkpt>
      <trkpt lat="46.86118" lon="6.56634">
        <ele>1419.8</ele>
      </trkpt>
      <trkpt lat="46.86119" lon="6.56661">
        <ele>1419.6</ele>
      </trkpt>
      <trkpt lat="46.86123" lon="6.56692">
        <ele>1419.2</ele>
      </trkpt>
      <trkpt lat="46.86118" lon="6.56734">
        <ele>1417.8</ele>
      </trkpt>
      <trkpt lat="46.86118" lon="6.56806">
        <ele>1414.4</ele>
      </trkpt>
      <trkpt lat="46.86112" lon="6.56833">
        <ele>1412.2</ele>
      </trkpt>
      <trkpt lat="46.861" lon="6.56851">
        <ele>1409.4</ele>
      </trkpt>
      <trkpt lat="46.86082" lon="6.56867">
        <ele>1406.2</ele>
      </trkpt>
      <trkpt lat="46.86065" lon="6.56927">
        <ele>1400.3</ele>
      </trkpt>
      <trkpt lat="46.86063" lon="6.56951">
        <ele>1398.3</ele>
      </trkpt>
      <trkpt lat="46.86049" lon="6.56979">
        <ele>1393.9</ele>
      </trkpt>
      <trkpt lat="46.86044" lon="6.57">
        <ele>1391.4</ele>
      </trkpt>
      <trkpt lat="46.8604" lon="6.57026">
        <ele>1389</ele>
      </trkpt>
      <trkpt lat="46.86036" lon="6.57046">
        <ele>1386.8</ele>
      </trkpt>
      <trkpt lat="46.8603" lon="6.57074">
        <ele>1383.8</ele>
      </trkpt>
      <trkpt lat="46.86034" lon="6.57125">
        <ele>1380.7</ele>
      </trkpt>
      <trkpt lat="46.86028" lon="6.57144">
        <ele>1378.3</ele>
      </trkpt>
      <trkpt lat="46.86012" lon="6.57162">
        <ele>1374.3</ele>
      </trkpt>
      <trkpt lat="46.86008" lon="6.57172">
        <ele>1372.9</ele>
      </trkpt>
      <trkpt lat="46.86012" lon="6.5721">
        <ele>1370.3</ele>
      </trkpt>
      <trkpt lat="46.86037" lon="6.57276">
        <ele>1367.2</ele>
      </trkpt>
      <trkpt lat="46.86041" lon="6.57298">
        <ele>1364.4</ele>
      </trkpt>
      <trkpt lat="46.86035" lon="6.57332">
        <ele>1358.4</ele>
      </trkpt>
      <trkpt lat="46.8603" lon="6.57364">
        <ele>1355</ele>
      </trkpt>
      <trkpt lat="46.8603" lon="6.57385">
        <ele>1353.2</ele>
      </trkpt>
      <trkpt lat="46.86041" lon="6.57415">
        <ele>1352</ele>
      </trkpt>
      <trkpt lat="46.86038" lon="6.57438">
        <ele>1349.4</ele>
      </trkpt>
      <trkpt lat="46.85988" lon="6.57508">
        <ele>1332.2</ele>
      </trkpt>
      <trkpt lat="46.85979" lon="6.57533">
        <ele>1328</ele>
      </trkpt>
      <trkpt lat="46.8597" lon="6.5759">
        <ele>1320.2</ele>
      </trkpt>
      <trkpt lat="46.85946" lon="6.57694">
        <ele>1310.5</ele>
      </trkpt>
      <trkpt lat="46.85945" lon="6.57709">
        <ele>1309.5</ele>
      </trkpt>
      <trkpt lat="46.85944" lon="6.57739">
        <ele>1308</ele>
      </trkpt>
      <trkpt lat="46.85944" lon="6.57745">
        <ele>1307.9</ele>
      </trkpt>
      <trkpt lat="46.85951" lon="6.57877">
        <ele>1295.5</ele>
      </trkpt>
      <trkpt lat="46.85947" lon="6.57901">
        <ele>1291.4</ele>
      </trkpt>
      <trkpt lat="46.85917" lon="6.57975">
        <ele>1275.7</ele>
      </trkpt>
      <trkpt lat="46.85874" lon="6.58088">
        <ele>1253.5</ele>
      </trkpt>
      <trkpt lat="46.85867" lon="6.58107">
        <ele>1248.9</ele>
      </trkpt>
      <trkpt lat="46.85846" lon="6.5816">
        <ele>1235.6</ele>
      </trkpt>
      <trkpt lat="46.85831" lon="6.58194">
        <ele>1229.3</ele>
      </trkpt>
      <trkpt lat="46.85831" lon="6.58238">
        <ele>1227.2</ele>
      </trkpt>
      <trkpt lat="46.85837" lon="6.58273">
        <ele>1226.8</ele>
      </trkpt>
      <trkpt lat="46.85851" lon="6.58354">
        <ele>1223.5</ele>
      </trkpt>
      <trkpt lat="46.85865" lon="6.58392">
        <ele>1220.4</ele>
      </trkpt>
      <trkpt lat="46.85892" lon="6.5844">
        <ele>1216.2</ele>
      </trkpt>
      <trkpt lat="46.85902" lon="6.58487">
        <ele>1210</ele>
      </trkpt>
      <trkpt lat="46.85925" lon="6.58582">
        <ele>1203.6</ele>
      </trkpt>
      <trkpt lat="46.85962" lon="6.58697">
        <ele>1203</ele>
      </trkpt>
      <trkpt lat="46.85988" lon="6.58757">
        <ele>1205.2</ele>
      </trkpt>
      <trkpt lat="46.85997" lon="6.58797">
        <ele>1205.4</ele>
      </trkpt>
      <trkpt lat="46.86006" lon="6.5881">
        <ele>1206.6</ele>
      </trkpt>
      <trkpt lat="46.86016" lon="6.58835">
        <ele>1207.5</ele>
      </trkpt>
      <trkpt lat="46.86041" lon="6.58865">
        <ele>1209</ele>
      </trkpt>
      <trkpt lat="46.8605" lon="6.58871">
        <ele>1210</ele>
      </trkpt>
      <trkpt lat="46.86061" lon="6.58889">
        <ele>1210.1</ele>
      </trkpt>
      <trkpt lat="46.86072" lon="6.58911">
        <ele>1209.8</ele>
      </trkpt>
      <trkpt lat="46.86116" lon="6.58961">
        <ele>1213.8</ele>
      </trkpt>
      <trkpt lat="46.86183" lon="6.5901">
        <ele>1223.6</ele>
      </trkpt>
      <trkpt lat="46.86192" lon="6.59029">
        <ele>1223.6</ele>
      </trkpt>
      <trkpt lat="46.86204" lon="6.59079">
        <ele>1221</ele>
      </trkpt>
      <trkpt lat="46.86206" lon="6.59107">
        <ele>1217.7</ele>
      </trkpt>
      <trkpt lat="46.86209" lon="6.59131">
        <ele>1214.8</ele>
      </trkpt>
      <trkpt lat="46.86226" lon="6.59154">
        <ele>1214.6</ele>
      </trkpt>
      <trkpt lat="46.86236" lon="6.59181">
        <ele>1212.5</ele>
      </trkpt>
      <trkpt lat="46.86247" lon="6.59197">
        <ele>1212.2</ele>
      </trkpt>
      <trkpt lat="46.86283" lon="6.59246">
        <ele>1211.5</ele>
      </trkpt>
      <trkpt lat="46.86303" lon="6.59306">
        <ele>1208.9</ele>
      </trkpt>
      <trkpt lat="46.86315" lon="6.59356">
        <ele>1207.5</ele>
      </trkpt>
      <trkpt lat="46.86323" lon="6.59427">
        <ele>1204.9</ele>
      </trkpt>
      <trkpt lat="46.86337" lon="6.59503">
        <ele>1205.9</ele>
      </trkpt>
      <trkpt lat="46.86343" lon="6.59569">
        <ele>1203.1</ele>
      </trkpt>
      <trkpt lat="46.86343" lon="6.59596">
        <ele>1201.8</ele>
      </trkpt>
      <trkpt lat="46.86358" lon="6.59592">
        <ele>1205.6</ele>
      </trkpt>
      <trkpt lat="46.86366" lon="6.59598">
        <ele>1207.1</ele>
      </trkpt>
      <trkpt lat="46.86377" lon="6.59614">
        <ele>1209</ele>
      </trkpt>
      <trkpt lat="46.86458" lon="6.59725">
        <ele>1221.8</ele>
      </trkpt>
      <trkpt lat="46.86501" lon="6.59822">
        <ele>1226.5</ele>
      </trkpt>
      <trkpt lat="46.86542" lon="6.59919">
        <ele>1231</ele>
      </trkpt>
      <trkpt lat="46.86625" lon="6.60071">
        <ele>1244.2</ele>
      </trkpt>
      <trkpt lat="46.8663" lon="6.60091">
        <ele>1244.8</ele>
      </trkpt>
      <trkpt lat="46.8666" lon="6.60358">
        <ele>1245</ele>
      </trkpt>
      <trkpt lat="46.86676" lon="6.60405">
        <ele>1247.3</ele>
      </trkpt>
      <trkpt lat="46.86679" lon="6.60413">
        <ele>1247.7</ele>
      </trkpt>
      <trkpt lat="46.86682" lon="6.60422">
        <ele>1248.2</ele>
      </trkpt>
      <trkpt lat="46.86686" lon="6.60438">
        <ele>1249.1</ele>
      </trkpt>
      <trkpt lat="46.8669" lon="6.60452">
        <ele>1249.9</ele>
      </trkpt>
      <trkpt lat="46.86693" lon="6.60465">
        <ele>1250.7</ele>
      </trkpt>
      <trkpt lat="46.867" lon="6.60481">
        <ele>1251.8</ele>
      </trkpt>
      <trkpt lat="46.86708" lon="6.60496">
        <ele>1252.9</ele>
      </trkpt>
      <trkpt lat="46.86711" lon="6.60503">
        <ele>1253.4</ele>
      </trkpt>
      <trkpt lat="46.86714" lon="6.60511">
        <ele>1253.9</ele>
      </trkpt>
      <trkpt lat="46.86715" lon="6.60521">
        <ele>1254.4</ele>
      </trkpt>
      <trkpt lat="46.86716" lon="6.60537">
        <ele>1255.1</ele>
      </trkpt>
      <trkpt lat="46.86719" lon="6.60552">
        <ele>1255.9</ele>
      </trkpt>
      <trkpt lat="46.86721" lon="6.60562">
        <ele>1256.5</ele>
      </trkpt>
      <trkpt lat="46.86724" lon="6.60572">
        <ele>1257.1</ele>
      </trkpt>
      <trkpt lat="46.86729" lon="6.60578">
        <ele>1257.8</ele>
      </trkpt>
      <trkpt lat="46.86739" lon="6.60595">
        <ele>1259.8</ele>
      </trkpt>
      <trkpt lat="46.86751" lon="6.60615">
        <ele>1262.7</ele>
      </trkpt>
      <trkpt lat="46.86768" lon="6.6064">
        <ele>1264.2</ele>
      </trkpt>
      <trkpt lat="46.86784" lon="6.60658">
        <ele>1265.1</ele>
      </trkpt>
      <trkpt lat="46.86802" lon="6.60678">
        <ele>1266.5</ele>
      </trkpt>
      <trkpt lat="46.86817" lon="6.60695">
        <ele>1268.4</ele>
      </trkpt>
      <trkpt lat="46.86831" lon="6.60716">
        <ele>1271.2</ele>
      </trkpt>
      <trkpt lat="46.86839" lon="6.60732">
        <ele>1273.5</ele>
      </trkpt>
      <trkpt lat="46.86847" lon="6.60751">
        <ele>1276.1</ele>
      </trkpt>
      <trkpt lat="46.86854" lon="6.6077">
        <ele>1277.9</ele>
      </trkpt>
      <trkpt lat="46.86861" lon="6.60791">
        <ele>1279.8</ele>
      </trkpt>
      <trkpt lat="46.86874" lon="6.60837">
        <ele>1283.3</ele>
      </trkpt>
      <trkpt lat="46.86895" lon="6.60914">
        <ele>1288.6</ele>
      </trkpt>
      <trkpt lat="46.86907" lon="6.60955">
        <ele>1291.3</ele>
      </trkpt>
      <trkpt lat="46.86915" lon="6.60985">
        <ele>1293.7</ele>
      </trkpt>
      <trkpt lat="46.8692" lon="6.60997">
        <ele>1295</ele>
      </trkpt>
      <trkpt lat="46.86924" lon="6.61004">
        <ele>1295.6</ele>
      </trkpt>
      <trkpt lat="46.86929" lon="6.61012">
        <ele>1296.5</ele>
      </trkpt>
      <trkpt lat="46.86936" lon="6.6102">
        <ele>1297.4</ele>
      </trkpt>
      <trkpt lat="46.86944" lon="6.61025">
        <ele>1298.2</ele>
      </trkpt>
      <trkpt lat="46.86949" lon="6.61025">
        <ele>1298.5</ele>
      </trkpt>
      <trkpt lat="46.86956" lon="6.61025">
        <ele>1298.9</ele>
      </trkpt>
      <trkpt lat="46.86963" lon="6.61024">
        <ele>1299.1</ele>
      </trkpt>
      <trkpt lat="46.86971" lon="6.61022">
        <ele>1299.4</ele>
      </trkpt>
      <trkpt lat="46.87005" lon="6.61009">
        <ele>1300.5</ele>
      </trkpt>
      <trkpt lat="46.87009" lon="6.61019">
        <ele>1301.9</ele>
      </trkpt>
      <trkpt lat="46.87013" lon="6.61041">
        <ele>1304.2</ele>
      </trkpt>
      <trkpt lat="46.87016" lon="6.61072">
        <ele>1306.9</ele>
      </trkpt>
      <trkpt lat="46.87018" lon="6.61094">
        <ele>1308.6</ele>
      </trkpt>
      <trkpt lat="46.87025" lon="6.6113">
        <ele>1311.7</ele>
      </trkpt>
      <trkpt lat="46.87032" lon="6.61155">
        <ele>1313.9</ele>
      </trkpt>
      <trkpt lat="46.87036" lon="6.6117">
        <ele>1315.1</ele>
      </trkpt>
      <trkpt lat="46.87038" lon="6.61184">
        <ele>1315.8</ele>
      </trkpt>
      <trkpt lat="46.87039" lon="6.61204">
        <ele>1316.5</ele>
      </trkpt>
      <trkpt lat="46.87039" lon="6.61227">
        <ele>1317.2</ele>
      </trkpt>
      <trkpt lat="46.87047" lon="6.61254">
        <ele>1318.2</ele>
      </trkpt>
      <trkpt lat="46.87066" lon="6.61308">
        <ele>1319.3</ele>
      </trkpt>
      <trkpt lat="46.87084" lon="6.61353">
        <ele>1318.3</ele>
      </trkpt>
      <trkpt lat="46.87099" lon="6.61363">
        <ele>1319.3</ele>
      </trkpt>
      <trkpt lat="46.87157" lon="6.61505">
        <ele>1325.4</ele>
      </trkpt>
      <trkpt lat="46.87172" lon="6.61572">
        <ele>1325.3</ele>
      </trkpt>
      <trkpt lat="46.87188" lon="6.61729">
        <ele>1330</ele>
      </trkpt>
      <trkpt lat="46.87214" lon="6.61822">
        <ele>1332.6</ele>
      </trkpt>
      <trkpt lat="46.87247" lon="6.61911">
        <ele>1332.9</ele>
      </trkpt>
      <trkpt lat="46.87283" lon="6.61998">
        <ele>1334.6</ele>
      </trkpt>
      <trkpt lat="46.87335" lon="6.62086">
        <ele>1339.2</ele>
      </trkpt>
      <trkpt lat="46.87342" lon="6.62089">
        <ele>1340.2</ele>
      </trkpt>
      <trkpt lat="46.87362" lon="6.62128">
        <ele>1342.1</ele>
      </trkpt>
      <trkpt lat="46.87438" lon="6.62276">
        <ele>1343.5</ele>
      </trkpt>
      <trkpt lat="46.8751" lon="6.62459">
        <ele>1332.1</ele>
      </trkpt>
      <trkpt lat="46.8755" lon="6.62543">
        <ele>1318.8</ele>
      </trkpt>
      <trkpt lat="46.87573" lon="6.62592">
        <ele>1312.1</ele>
      </trkpt>
      <trkpt lat="46.87616" lon="6.62641">
        <ele>1304.9</ele>
      </trkpt>
      <trkpt lat="46.87647" lon="6.62684">
        <ele>1302.4</ele>
      </trkpt>
      <trkpt lat="46.8765" lon="6.6269">
        <ele>1302.4</ele>
      </trkpt>
      <trkpt lat="46.8766" lon="6.6271">
        <ele>1302.6</ele>
      </trkpt>
      <trkpt lat="46.87666" lon="6.62724">
        <ele>1303.1</ele>
      </trkpt>
      <trkpt lat="46.8768" lon="6.62748">
        <ele>1304.7</ele>
      </trkpt>
      <trkpt lat="46.87683" lon="6.62758">
        <ele>1305.2</ele>
      </trkpt>
      <trkpt lat="46.87696" lon="6.62797">
        <ele>1307.3</ele>
      </trkpt>
      <trkpt lat="46.87703" lon="6.62822">
        <ele>1308.4</ele>
      </trkpt>
      <trkpt lat="46.87708" lon="6.6288">
        <ele>1309.8</ele>
      </trkpt>
      <trkpt lat="46.87705" lon="6.62885">
        <ele>1309.8</ele>
      </trkpt>
      <trkpt lat="46.87712" lon="6.629">
        <ele>1310.4</ele>
      </trkpt>
      <trkpt lat="46.87714" lon="6.62917">
        <ele>1310.7</ele>
      </trkpt>
      <trkpt lat="46.87727" lon="6.62935">
        <ele>1310.9</ele>
      </trkpt>
      <trkpt lat="46.87725" lon="6.62975">
        <ele>1310.2</ele>
      </trkpt>
      <trkpt lat="46.87713" lon="6.63009">
        <ele>1308.3</ele>
      </trkpt>
      <trkpt lat="46.87714" lon="6.63057">
        <ele>1303.9</ele>
      </trkpt>
      <trkpt lat="46.87718" lon="6.63063">
        <ele>1303.4</ele>
      </trkpt>
      <trkpt lat="46.87713" lon="6.63083">
        <ele>1301.3</ele>
      </trkpt>
      <trkpt lat="46.8771" lon="6.63127">
        <ele>1295.3</ele>
      </trkpt>
      <trkpt lat="46.87718" lon="6.63148">
        <ele>1292.7</ele>
      </trkpt>
      <trkpt lat="46.87713" lon="6.63169">
        <ele>1289.8</ele>
      </trkpt>
      <trkpt lat="46.87715" lon="6.63174">
        <ele>1289</ele>
      </trkpt>
      <trkpt lat="46.87705" lon="6.63202">
        <ele>1284.7</ele>
      </trkpt>
      <trkpt lat="46.87711" lon="6.6322">
        <ele>1282.1</ele>
      </trkpt>
      <trkpt lat="46.87708" lon="6.63236">
        <ele>1279.5</ele>
      </trkpt>
      <trkpt lat="46.87698" lon="6.63253">
        <ele>1276.9</ele>
      </trkpt>
      <trkpt lat="46.87701" lon="6.63262">
        <ele>1275.6</ele>
      </trkpt>
      <trkpt lat="46.87698" lon="6.63323">
        <ele>1266.2</ele>
      </trkpt>
      <trkpt lat="46.87685" lon="6.63412">
        <ele>1255.4</ele>
      </trkpt>
      <trkpt lat="46.87683" lon="6.6345">
        <ele>1253.4</ele>
      </trkpt>
      <trkpt lat="46.87676" lon="6.63476">
        <ele>1251.9</ele>
      </trkpt>
      <trkpt lat="46.87659" lon="6.63501">
        <ele>1248</ele>
      </trkpt>
      <trkpt lat="46.87652" lon="6.63537">
        <ele>1244.1</ele>
      </trkpt>
      <trkpt lat="46.87632" lon="6.63561">
        <ele>1236.7</ele>
      </trkpt>
      <trkpt lat="46.87611" lon="6.63655">
        <ele>1229.5</ele>
      </trkpt>
      <trkpt lat="46.87607" lon="6.63681">
        <ele>1228.4</ele>
      </trkpt>
      <trkpt lat="46.87608" lon="6.63686">
        <ele>1228.4</ele>
      </trkpt>
      <trkpt lat="46.8761" lon="6.63702">
        <ele>1228.6</ele>
      </trkpt>
      <trkpt lat="46.87603" lon="6.63707">
        <ele>1226.9</ele>
      </trkpt>
      <trkpt lat="46.87585" lon="6.63716">
        <ele>1222.8</ele>
      </trkpt>
      <trkpt lat="46.87582" lon="6.63718">
        <ele>1222.3</ele>
      </trkpt>
      <trkpt lat="46.87589" lon="6.63728">
        <ele>1223.5</ele>
      </trkpt>
      <trkpt lat="46.87603" lon="6.63754">
        <ele>1225.8</ele>
      </trkpt>
      <trkpt lat="46.87658" lon="6.63873">
        <ele>1232.5</ele>
      </trkpt>
      <trkpt lat="46.8767" lon="6.63892">
        <ele>1233.5</ele>
      </trkpt>
      <trkpt lat="46.87677" lon="6.639">
        <ele>1233.8</ele>
      </trkpt>
      <trkpt lat="46.87697" lon="6.63926">
        <ele>1234.5</ele>
      </trkpt>
      <trkpt lat="46.87718" lon="6.63956">
        <ele>1235</ele>
      </trkpt>
      <trkpt lat="46.87734" lon="6.63978">
        <ele>1235.6</ele>
      </trkpt>
      <trkpt lat="46.87794" lon="6.64056">
        <ele>1236.2</ele>
      </trkpt>
      <trkpt lat="46.87813" lon="6.64081">
        <ele>1235.8</ele>
      </trkpt>
      <trkpt lat="46.87839" lon="6.64108">
        <ele>1236.3</ele>
      </trkpt>
      <trkpt lat="46.87849" lon="6.64117">
        <ele>1236.8</ele>
      </trkpt>
      <trkpt lat="46.87875" lon="6.6413">
        <ele>1237.6</ele>
      </trkpt>
      <trkpt lat="46.87892" lon="6.64137">
        <ele>1238</ele>
      </trkpt>
      <trkpt lat="46.8791" lon="6.6414">
        <ele>1238.4</ele>
      </trkpt>
      <trkpt lat="46.87963" lon="6.64146">
        <ele>1239.5</ele>
      </trkpt>
      <trkpt lat="46.87993" lon="6.64135">
        <ele>1241.1</ele>
      </trkpt>
      <trkpt lat="46.88104" lon="6.64073">
        <ele>1245.4</ele>
      </trkpt>
      <trkpt lat="46.88101" lon="6.64086">
        <ele>1245.5</ele>
      </trkpt>
      <trkpt lat="46.88098" lon="6.641">
        <ele>1245.5</ele>
      </trkpt>
      <trkpt lat="46.88092" lon="6.64108">
        <ele>1245.3</ele>
      </trkpt>
      <trkpt lat="46.88051" lon="6.6416">
        <ele>1242.9</ele>
      </trkpt>
      <trkpt lat="46.88006" lon="6.64216">
        <ele>1238.9</ele>
      </trkpt>
      <trkpt lat="46.87999" lon="6.64227">
        <ele>1238.3</ele>
      </trkpt>
      <trkpt lat="46.87998" lon="6.64237">
        <ele>1238.2</ele>
      </trkpt>
      <trkpt lat="46.88002" lon="6.64392">
        <ele>1241.9</ele>
      </trkpt>
      <trkpt lat="46.88002" lon="6.64416">
        <ele>1243</ele>
      </trkpt>
      <trkpt lat="46.87999" lon="6.64444">
        <ele>1243.6</ele>
      </trkpt>
      <trkpt lat="46.87961" lon="6.64696">
        <ele>1244.7</ele>
      </trkpt>
      <trkpt lat="46.87938" lon="6.64874">
        <ele>1243.9</ele>
      </trkpt>
      <trkpt lat="46.87936" lon="6.64892">
        <ele>1244.1</ele>
      </trkpt>
      <trkpt lat="46.87934" lon="6.64906">
        <ele>1244</ele>
      </trkpt>
      <trkpt lat="46.87914" lon="6.64956">
        <ele>1242.5</ele>
      </trkpt>
      <trkpt lat="46.8791" lon="6.64986">
        <ele>1242.7</ele>
      </trkpt>
      <trkpt lat="46.87909" lon="6.65035">
        <ele>1242.3</ele>
      </trkpt>
      <trkpt lat="46.87912" lon="6.65079">
        <ele>1242.2</ele>
      </trkpt>
      <trkpt lat="46.87923" lon="6.6512">
        <ele>1242.9</ele>
      </trkpt>
      <trkpt lat="46.87944" lon="6.6522">
        <ele>1240.5</ele>
      </trkpt>
      <trkpt lat="46.87945" lon="6.65233">
        <ele>1239.6</ele>
      </trkpt>
      <trkpt lat="46.87942" lon="6.65248">
        <ele>1238.1</ele>
      </trkpt>
      <trkpt lat="46.87937" lon="6.65265">
        <ele>1236.1</ele>
      </trkpt>
      <trkpt lat="46.87936" lon="6.6528">
        <ele>1235.1</ele>
      </trkpt>
      <trkpt lat="46.87943" lon="6.65322">
        <ele>1233.5</ele>
      </trkpt>
      <trkpt lat="46.87972" lon="6.65437">
        <ele>1228.5</ele>
      </trkpt>
      <trkpt lat="46.87987" lon="6.65462">
        <ele>1228.2</ele>
      </trkpt>
      <trkpt lat="46.88" lon="6.65518">
        <ele>1224.5</ele>
      </trkpt>
      <trkpt lat="46.88044" lon="6.65683">
        <ele>1218.7</ele>
      </trkpt>
      <trkpt lat="46.88079" lon="6.65792">
        <ele>1213.4</ele>
      </trkpt>
      <trkpt lat="46.88087" lon="6.65811">
        <ele>1211.7</ele>
      </trkpt>
      <trkpt lat="46.88096" lon="6.65824">
        <ele>1210.1</ele>
      </trkpt>
      <trkpt lat="46.88094" lon="6.65889">
        <ele>1202.8</ele>
      </trkpt>
      <trkpt lat="46.88111" lon="6.65918">
        <ele>1200.5</ele>
      </trkpt>
      <trkpt lat="46.88116" lon="6.65964">
        <ele>1196.2</ele>
      </trkpt>
      <trkpt lat="46.88188" lon="6.66098">
        <ele>1180.3</ele>
      </trkpt>
      <trkpt lat="46.88221" lon="6.66096">
        <ele>1180.4</ele>
      </trkpt>
      <trkpt lat="46.88314" lon="6.65994">
        <ele>1197</ele>
      </trkpt>
      <trkpt lat="46.88365" lon="6.65974">
        <ele>1202.8</ele>
      </trkpt>
      <trkpt lat="46.88411" lon="6.65973">
        <ele>1206.4</ele>
      </trkpt>
      <trkpt lat="46.88443" lon="6.65969">
        <ele>1209.4</ele>
      </trkpt>
      <trkpt lat="46.88475" lon="6.65972">
        <ele>1211.2</ele>
      </trkpt>
      <trkpt lat="46.88495" lon="6.65983">
        <ele>1211.1</ele>
      </trkpt>
      <trkpt lat="46.88501" lon="6.66004">
        <ele>1208.9</ele>
      </trkpt>
      <trkpt lat="46.88526" lon="6.66072">
        <ele>1206.4</ele>
      </trkpt>
      <trkpt lat="46.88562" lon="6.66112">
        <ele>1205.4</ele>
      </trkpt>
      <trkpt lat="46.88601" lon="6.66128">
        <ele>1208</ele>
      </trkpt>
      <trkpt lat="46.88621" lon="6.66135">
        <ele>1209.5</ele>
      </trkpt>
      <trkpt lat="46.88641" lon="6.66214">
        <ele>1201.8</ele>
      </trkpt>
      <trkpt lat="46.88664" lon="6.66276">
        <ele>1198.2</ele>
      </trkpt>
      <trkpt lat="46.88706" lon="6.66327">
        <ele>1199.9</ele>
      </trkpt>
      <trkpt lat="46.88781" lon="6.66433">
        <ele>1203.8</ele>
      </trkpt>
      <trkpt lat="46.8884" lon="6.66508">
        <ele>1210</ele>
      </trkpt>
      <trkpt lat="46.88906" lon="6.66646">
        <ele>1210.9</ele>
      </trkpt>
      <trkpt lat="46.88939" lon="6.66695">
        <ele>1213.1</ele>
      </trkpt>
      <trkpt lat="46.88937" lon="6.66707">
        <ele>1211.7</ele>
      </trkpt>
      <trkpt lat="46.88956" lon="6.66754">
        <ele>1210.7</ele>
      </trkpt>
      <trkpt lat="46.88956" lon="6.66809">
        <ele>1205.5</ele>
      </trkpt>
      <trkpt lat="46.88968" lon="6.66903">
        <ele>1197</ele>
      </trkpt>
      <trkpt lat="46.88964" lon="6.66934">
        <ele>1193.2</ele>
      </trkpt>
      <trkpt lat="46.88949" lon="6.66997">
        <ele>1185.6</ele>
      </trkpt>
      <trkpt lat="46.88947" lon="6.67067">
        <ele>1181</ele>
      </trkpt>
      <trkpt lat="46.88946" lon="6.67152">
        <ele>1174.2</ele>
      </trkpt>
      <trkpt lat="46.88944" lon="6.67175">
        <ele>1171.9</ele>
      </trkpt>
      <trkpt lat="46.88918" lon="6.67208">
        <ele>1164.7</ele>
      </trkpt>
      <trkpt lat="46.88916" lon="6.67228">
        <ele>1163.3</ele>
      </trkpt>
      <trkpt lat="46.8891" lon="6.67231">
        <ele>1162.6</ele>
      </trkpt>
      <trkpt lat="46.88942" lon="6.67306">
        <ele>1162.2</ele>
      </trkpt>
      <trkpt lat="46.88951" lon="6.67315">
        <ele>1162.9</ele>
      </trkpt>
      <trkpt lat="46.88959" lon="6.67313">
        <ele>1164.2</ele>
      </trkpt>
      <trkpt lat="46.88967" lon="6.67333">
        <ele>1163.7</ele>
      </trkpt>
      <trkpt lat="46.88979" lon="6.67364">
        <ele>1163.7</ele>
      </trkpt>
      <trkpt lat="46.89012" lon="6.6745">
        <ele>1165</ele>
      </trkpt>
      <trkpt lat="46.89027" lon="6.67487">
        <ele>1166.4</ele>
      </trkpt>
      <trkpt lat="46.89039" lon="6.67494">
        <ele>1168.7</ele>
      </trkpt>
      <trkpt lat="46.89062" lon="6.67537">
        <ele>1171.2</ele>
      </trkpt>
      <trkpt lat="46.89085" lon="6.67579">
        <ele>1173.5</ele>
      </trkpt>
      <trkpt lat="46.89097" lon="6.67623">
        <ele>1171.5</ele>
      </trkpt>
      <trkpt lat="46.89115" lon="6.67661">
        <ele>1171.2</ele>
      </trkpt>
      <trkpt lat="46.89124" lon="6.67676">
        <ele>1171.5</ele>
      </trkpt>
      <trkpt lat="46.89132" lon="6.67696">
        <ele>1171.1</ele>
      </trkpt>
      <trkpt lat="46.89137" lon="6.67741">
        <ele>1167.9</ele>
      </trkpt>
      <trkpt lat="46.89151" lon="6.67778">
        <ele>1167.5</ele>
      </trkpt>
      <trkpt lat="46.89173" lon="6.67825">
        <ele>1167.8</ele>
      </trkpt>
      <trkpt lat="46.89187" lon="6.67856">
        <ele>1169</ele>
      </trkpt>
      <trkpt lat="46.89216" lon="6.67888">
        <ele>1172.7</ele>
      </trkpt>
      <trkpt lat="46.89231" lon="6.67906">
        <ele>1174.4</ele>
      </trkpt>
      <trkpt lat="46.89261" lon="6.67955">
        <ele>1176</ele>
      </trkpt>
      <trkpt lat="46.89276" lon="6.67984">
        <ele>1176.3</ele>
      </trkpt>
      <trkpt lat="46.89301" lon="6.68023">
        <ele>1178.1</ele>
      </trkpt>
      <trkpt lat="46.89314" lon="6.68067">
        <ele>1177.5</ele>
      </trkpt>
      <trkpt lat="46.89336" lon="6.68111">
        <ele>1179.8</ele>
      </trkpt>
      <trkpt lat="46.89343" lon="6.6814">
        <ele>1180.6</ele>
      </trkpt>
      <trkpt lat="46.8934" lon="6.68182">
        <ele>1178</ele>
      </trkpt>
      <trkpt lat="46.89343" lon="6.68208">
        <ele>1176.3</ele>
      </trkpt>
      <trkpt lat="46.8936" lon="6.68239">
        <ele>1176.5</ele>
      </trkpt>
      <trkpt lat="46.89372" lon="6.68273">
        <ele>1176.7</ele>
      </trkpt>
      <trkpt lat="46.89381" lon="6.68316">
        <ele>1176.4</ele>
      </trkpt>
      <trkpt lat="46.894" lon="6.68346">
        <ele>1178</ele>
      </trkpt>
      <trkpt lat="46.89414" lon="6.68375">
        <ele>1179.7</ele>
      </trkpt>
      <trkpt lat="46.89426" lon="6.68416">
        <ele>1182.1</ele>
      </trkpt>
      <trkpt lat="46.89435" lon="6.68459">
        <ele>1184.1</ele>
      </trkpt>
      <trkpt lat="46.89441" lon="6.68474">
        <ele>1185</ele>
      </trkpt>
      <trkpt lat="46.89467" lon="6.68502">
        <ele>1188.8</ele>
      </trkpt>
      <trkpt lat="46.89491" lon="6.68528">
        <ele>1191.2</ele>
      </trkpt>
      <trkpt lat="46.89504" lon="6.68544">
        <ele>1192.5</ele>
      </trkpt>
      <trkpt lat="46.89519" lon="6.68587">
        <ele>1192</ele>
      </trkpt>
      <trkpt lat="46.89546" lon="6.68621">
        <ele>1192.3</ele>
      </trkpt>
      <trkpt lat="46.89581" lon="6.68661">
        <ele>1192.4</ele>
      </trkpt>
      <trkpt lat="46.8961" lon="6.68701">
        <ele>1191.8</ele>
      </trkpt>
      <trkpt lat="46.89612" lon="6.68716">
        <ele>1190.5</ele>
      </trkpt>
      <trkpt lat="46.89624" lon="6.68737">
        <ele>1189.3</ele>
      </trkpt>
      <trkpt lat="46.89632" lon="6.68751">
        <ele>1188.6</ele>
      </trkpt>
      <trkpt lat="46.89656" lon="6.68765">
        <ele>1189.6</ele>
      </trkpt>
      <trkpt lat="46.89674" lon="6.68782">
        <ele>1189.8</ele>
      </trkpt>
      <trkpt lat="46.89692" lon="6.68803">
        <ele>1189.7</ele>
      </trkpt>
      <trkpt lat="46.89699" lon="6.68812">
        <ele>1189.6</ele>
      </trkpt>
      <trkpt lat="46.89708" lon="6.68809">
        <ele>1191</ele>
      </trkpt>
      <trkpt lat="46.89715" lon="6.68852">
        <ele>1187.9</ele>
      </trkpt>
      <trkpt lat="46.89719" lon="6.68888">
        <ele>1185.8</ele>
      </trkpt>
      <trkpt lat="46.89722" lon="6.689">
        <ele>1185.4</ele>
      </trkpt>
      <trkpt lat="46.89723" lon="6.68936">
        <ele>1183.4</ele>
      </trkpt>
      <trkpt lat="46.89728" lon="6.68948">
        <ele>1183.4</ele>
      </trkpt>
      <trkpt lat="46.89727" lon="6.68983">
        <ele>1181.3</ele>
      </trkpt>
      <trkpt lat="46.89739" lon="6.69049">
        <ele>1178.6</ele>
      </trkpt>
      <trkpt lat="46.89745" lon="6.69069">
        <ele>1177.8</ele>
      </trkpt>
      <trkpt lat="46.89738" lon="6.69098">
        <ele>1175.2</ele>
      </trkpt>
      <trkpt lat="46.89729" lon="6.69118">
        <ele>1173.5</ele>
      </trkpt>
      <trkpt lat="46.8971" lon="6.69206">
        <ele>1169.8</ele>
      </trkpt>
      <trkpt lat="46.89701" lon="6.69242">
        <ele>1169.1</ele>
      </trkpt>
      <trkpt lat="46.89699" lon="6.69248">
        <ele>1168.9</ele>
      </trkpt>
      <trkpt lat="46.89681" lon="6.69269">
        <ele>1167.6</ele>
      </trkpt>
      <trkpt lat="46.89713" lon="6.69261">
        <ele>1169.6</ele>
      </trkpt>
      <trkpt lat="46.89741" lon="6.69255">
        <ele>1171.4</ele>
      </trkpt>
      <trkpt lat="46.8975" lon="6.69253">
        <ele>1171.9</ele>
      </trkpt>
      <trkpt lat="46.89763" lon="6.69253">
        <ele>1172.8</ele>
      </trkpt>
      <trkpt lat="46.89771" lon="6.69253">
        <ele>1173.4</ele>
      </trkpt>
      <trkpt lat="46.89776" lon="6.69254">
        <ele>1173.8</ele>
      </trkpt>
      <trkpt lat="46.89785" lon="6.69256">
        <ele>1174.3</ele>
      </trkpt>
      <trkpt lat="46.89789" lon="6.69258">
        <ele>1174.6</ele>
      </trkpt>
      <trkpt lat="46.89798" lon="6.69263">
        <ele>1175.1</ele>
      </trkpt>
      <trkpt lat="46.89807" lon="6.69271">
        <ele>1175.6</ele>
      </trkpt>
      <trkpt lat="46.89813" lon="6.69277">
        <ele>1175.9</ele>
      </trkpt>
      <trkpt lat="46.89817" lon="6.69284">
        <ele>1176</ele>
      </trkpt>
      <trkpt lat="46.89822" lon="6.6929">
        <ele>1176.2</ele>
      </trkpt>
      <trkpt lat="46.89828" lon="6.69299">
        <ele>1176.4</ele>
      </trkpt>
      <trkpt lat="46.89853" lon="6.69342">
        <ele>1178.1</ele>
      </trkpt>
      <trkpt lat="46.89918" lon="6.69457">
        <ele>1180.2</ele>
      </trkpt>
      <trkpt lat="46.89964" lon="6.69538">
        <ele>1187.2</ele>
      </trkpt>
      <trkpt lat="46.8998" lon="6.69565">
        <ele>1188.9</ele>
      </trkpt>
      <trkpt lat="46.89994" lon="6.69585">
        <ele>1189.8</ele>
      </trkpt>
      <trkpt lat="46.9" lon="6.69593">
        <ele>1190.6</ele>
      </trkpt>
      <trkpt lat="46.90014" lon="6.69607">
        <ele>1193.5</ele>
      </trkpt>
      <trkpt lat="46.90029" lon="6.69621">
        <ele>1196.5</ele>
      </trkpt>
      <trkpt lat="46.90044" lon="6.69634">
        <ele>1199.1</ele>
      </trkpt>
      <trkpt lat="46.90054" lon="6.69643">
        <ele>1200.8</ele>
      </trkpt>
      <trkpt lat="46.90063" lon="6.6965">
        <ele>1202.1</ele>
      </trkpt>
      <trkpt lat="46.9007" lon="6.69658">
        <ele>1203.3</ele>
      </trkpt>
      <trkpt lat="46.90082" lon="6.69666">
        <ele>1204.8</ele>
      </trkpt>
      <trkpt lat="46.90097" lon="6.69676">
        <ele>1206.8</ele>
      </trkpt>
      <trkpt lat="46.90105" lon="6.69682">
        <ele>1207.8</ele>
      </trkpt>
      <trkpt lat="46.90117" lon="6.69689">
        <ele>1209.2</ele>
      </trkpt>
      <trkpt lat="46.90134" lon="6.69698">
        <ele>1210.8</ele>
      </trkpt>
      <trkpt lat="46.90179" lon="6.69723">
        <ele>1214.1</ele>
      </trkpt>
      <trkpt lat="46.90186" lon="6.69728">
        <ele>1214.5</ele>
      </trkpt>
      <trkpt lat="46.90197" lon="6.69738">
        <ele>1215.3</ele>
      </trkpt>
      <trkpt lat="46.90202" lon="6.69742">
        <ele>1215.7</ele>
      </trkpt>
      <trkpt lat="46.90214" lon="6.69754">
        <ele>1216.6</ele>
      </trkpt>
      <trkpt lat="46.90222" lon="6.69763">
        <ele>1217.6</ele>
      </trkpt>
      <trkpt lat="46.90234" lon="6.69775">
        <ele>1218.7</ele>
      </trkpt>
      <trkpt lat="46.90242" lon="6.69783">
        <ele>1219.4</ele>
      </trkpt>
      <trkpt lat="46.90254" lon="6.69793">
        <ele>1220.3</ele>
      </trkpt>
      <trkpt lat="46.90267" lon="6.69802">
        <ele>1221.7</ele>
      </trkpt>
      <trkpt lat="46.90282" lon="6.6981">
        <ele>1223.1</ele>
      </trkpt>
      <trkpt lat="46.90348" lon="6.69835">
        <ele>1229.4</ele>
      </trkpt>
      <trkpt lat="46.90385" lon="6.69865">
        <ele>1233.6</ele>
      </trkpt>
      <trkpt lat="46.90416" lon="6.699">
        <ele>1238.3</ele>
      </trkpt>
      <trkpt lat="46.90446" lon="6.69938">
        <ele>1243</ele>
      </trkpt>
      <trkpt lat="46.90461" lon="6.69959">
        <ele>1245.3</ele>
      </trkpt>
      <trkpt lat="46.90471" lon="6.6998">
        <ele>1247.3</ele>
      </trkpt>
      <trkpt lat="46.90477" lon="6.69993">
        <ele>1248.4</ele>
      </trkpt>
      <trkpt lat="46.90485" lon="6.70018">
        <ele>1249.8</ele>
      </trkpt>
      <trkpt lat="46.90493" lon="6.70047">
        <ele>1250.9</ele>
      </trkpt>
      <trkpt lat="46.90507" lon="6.70101">
        <ele>1252.8</ele>
      </trkpt>
      <trkpt lat="46.9051" lon="6.7011">
        <ele>1253.2</ele>
      </trkpt>
      <trkpt lat="46.90513" lon="6.70119">
        <ele>1253.6</ele>
      </trkpt>
      <trkpt lat="46.9052" lon="6.70132">
        <ele>1254.3</ele>
      </trkpt>
      <trkpt lat="46.90524" lon="6.7014">
        <ele>1254.8</ele>
      </trkpt>
      <trkpt lat="46.90535" lon="6.70155">
        <ele>1256.3</ele>
      </trkpt>
      <trkpt lat="46.90556" lon="6.7018">
        <ele>1259.1</ele>
      </trkpt>
      <trkpt lat="46.90567" lon="6.70191">
        <ele>1260.5</ele>
      </trkpt>
      <trkpt lat="46.90591" lon="6.70218">
        <ele>1263.1</ele>
      </trkpt>
      <trkpt lat="46.90602" lon="6.7023">
        <ele>1263.8</ele>
      </trkpt>
      <trkpt lat="46.90609" lon="6.70239">
        <ele>1264.2</ele>
      </trkpt>
      <trkpt lat="46.90616" lon="6.70247">
        <ele>1264.5</ele>
      </trkpt>
      <trkpt lat="46.90626" lon="6.70262">
        <ele>1264.7</ele>
      </trkpt>
      <trkpt lat="46.90637" lon="6.70277">
        <ele>1264.6</ele>
      </trkpt>
      <trkpt lat="46.90658" lon="6.70309">
        <ele>1263.6</ele>
      </trkpt>
      <trkpt lat="46.90669" lon="6.70326">
        <ele>1262.6</ele>
      </trkpt>
      <trkpt lat="46.9068" lon="6.70339">
        <ele>1262.5</ele>
      </trkpt>
      <trkpt lat="46.90681" lon="6.70341">
        <ele>1262.6</ele>
      </trkpt>
      <trkpt lat="46.90884" lon="6.70522">
        <ele>1275.3</ele>
      </trkpt>
      <trkpt lat="46.90895" lon="6.70529">
        <ele>1276.4</ele>
      </trkpt>
      <trkpt lat="46.90907" lon="6.70534">
        <ele>1277.5</ele>
      </trkpt>
      <trkpt lat="46.90908" lon="6.70545">
        <ele>1277.8</ele>
      </trkpt>
      <trkpt lat="46.90924" lon="6.70575">
        <ele>1279.4</ele>
      </trkpt>
      <trkpt lat="46.90941" lon="6.70589">
        <ele>1280.6</ele>
      </trkpt>
      <trkpt lat="46.90966" lon="6.70616">
        <ele>1283.1</ele>
      </trkpt>
      <trkpt lat="46.90978" lon="6.70633">
        <ele>1284.6</ele>
      </trkpt>
      <trkpt lat="46.90993" lon="6.70661">
        <ele>1287.1</ele>
      </trkpt>
      <trkpt lat="46.91006" lon="6.70673">
        <ele>1288.6</ele>
      </trkpt>
      <trkpt lat="46.91024" lon="6.70704">
        <ele>1291.3</ele>
      </trkpt>
      <trkpt lat="46.91047" lon="6.70744">
        <ele>1295.1</ele>
      </trkpt>
      <trkpt lat="46.91061" lon="6.70764">
        <ele>1297.7</ele>
      </trkpt>
      <trkpt lat="46.91086" lon="6.7078">
        <ele>1301</ele>
      </trkpt>
      <trkpt lat="46.911" lon="6.70805">
        <ele>1303.4</ele>
      </trkpt>
      <trkpt lat="46.91117" lon="6.70842">
        <ele>1306.4</ele>
      </trkpt>
      <trkpt lat="46.91136" lon="6.70899">
        <ele>1312.6</ele>
      </trkpt>
      <trkpt lat="46.91148" lon="6.70925">
        <ele>1315.4</ele>
      </trkpt>
      <trkpt lat="46.91159" lon="6.70948">
        <ele>1317.1</ele>
      </trkpt>
      <trkpt lat="46.91167" lon="6.70956">
        <ele>1317.9</ele>
      </trkpt>
      <trkpt lat="46.9118" lon="6.70963">
        <ele>1319</ele>
      </trkpt>
      <trkpt lat="46.91206" lon="6.70967">
        <ele>1320.7</ele>
      </trkpt>
      <trkpt lat="46.9123" lon="6.70961">
        <ele>1321.9</ele>
      </trkpt>
      <trkpt lat="46.91248" lon="6.70969">
        <ele>1323.1</ele>
      </trkpt>
      <trkpt lat="46.91271" lon="6.70989">
        <ele>1325.5</ele>
      </trkpt>
      <trkpt lat="46.91291" lon="6.7101">
        <ele>1328</ele>
      </trkpt>
      <trkpt lat="46.91304" lon="6.71014">
        <ele>1329.2</ele>
      </trkpt>
      <trkpt lat="46.91324" lon="6.71027">
        <ele>1331.3</ele>
      </trkpt>
      <trkpt lat="46.91346" lon="6.71041">
        <ele>1333.1</ele>
      </trkpt>
      <trkpt lat="46.91366" lon="6.71056">
        <ele>1334.4</ele>
      </trkpt>
      <trkpt lat="46.9138" lon="6.71074">
        <ele>1335.1</ele>
      </trkpt>
      <trkpt lat="46.9139" lon="6.71093">
        <ele>1335.8</ele>
      </trkpt>
      <trkpt lat="46.91399" lon="6.7112">
        <ele>1337.4</ele>
      </trkpt>
      <trkpt lat="46.91411" lon="6.71142">
        <ele>1338.7</ele>
      </trkpt>
      <trkpt lat="46.91422" lon="6.71158">
        <ele>1340</ele>
      </trkpt>
      <trkpt lat="46.91435" lon="6.71172">
        <ele>1342</ele>
      </trkpt>
      <trkpt lat="46.91446" lon="6.71178">
        <ele>1343.3</ele>
      </trkpt>
      <trkpt lat="46.91459" lon="6.71191">
        <ele>1344.8</ele>
      </trkpt>
      <trkpt lat="46.91477" lon="6.71211">
        <ele>1346.4</ele>
      </trkpt>
      <trkpt lat="46.91488" lon="6.71225">
        <ele>1346.9</ele>
      </trkpt>
      <trkpt lat="46.915" lon="6.71239">
        <ele>1347</ele>
      </trkpt>
      <trkpt lat="46.91515" lon="6.7125">
        <ele>1346.8</ele>
      </trkpt>
      <trkpt lat="46.91526" lon="6.71269">
        <ele>1346.7</ele>
      </trkpt>
      <trkpt lat="46.91535" lon="6.71293">
        <ele>1345.9</ele>
      </trkpt>
      <trkpt lat="46.9154" lon="6.71326">
        <ele>1344.9</ele>
      </trkpt>
      <trkpt lat="46.91539" lon="6.71362">
        <ele>1345.8</ele>
      </trkpt>
      <trkpt lat="46.91541" lon="6.71398">
        <ele>1346.6</ele>
      </trkpt>
      <trkpt lat="46.91545" lon="6.71446">
        <ele>1346.3</ele>
      </trkpt>
      <trkpt lat="46.91546" lon="6.71497">
        <ele>1346.2</ele>
      </trkpt>
      <trkpt lat="46.91546" lon="6.71533">
        <ele>1346.7</ele>
      </trkpt>
      <trkpt lat="46.91544" lon="6.71561">
        <ele>1347.1</ele>
      </trkpt>
      <trkpt lat="46.91541" lon="6.71598">
        <ele>1348.5</ele>
      </trkpt>
      <trkpt lat="46.9154" lon="6.71612">
        <ele>1349.4</ele>
      </trkpt>
      <trkpt lat="46.91558" lon="6.71623">
        <ele>1349.8</ele>
      </trkpt>
      <trkpt lat="46.91586" lon="6.71637">
        <ele>1350.4</ele>
      </trkpt>
      <trkpt lat="46.9162" lon="6.71656">
        <ele>1348.1</ele>
      </trkpt>
      <trkpt lat="46.91634" lon="6.71673">
        <ele>1349.1</ele>
      </trkpt>
      <trkpt lat="46.91646" lon="6.7169">
        <ele>1350.9</ele>
      </trkpt>
      <trkpt lat="46.91663" lon="6.71717">
        <ele>1354.6</ele>
      </trkpt>
      <trkpt lat="46.91674" lon="6.71726">
        <ele>1355.2</ele>
      </trkpt>
      <trkpt lat="46.91697" lon="6.71736">
        <ele>1354.3</ele>
      </trkpt>
      <trkpt lat="46.91709" lon="6.71742">
        <ele>1354</ele>
      </trkpt>
      <trkpt lat="46.91738" lon="6.7175">
        <ele>1352.4</ele>
      </trkpt>
      <trkpt lat="46.91762" lon="6.71761">
        <ele>1352.7</ele>
      </trkpt>
      <trkpt lat="46.91782" lon="6.71775">
        <ele>1354.4</ele>
      </trkpt>
      <trkpt lat="46.9179" lon="6.71782">
        <ele>1355.4</ele>
      </trkpt>
      <trkpt lat="46.91798" lon="6.71788">
        <ele>1356.3</ele>
      </trkpt>
      <trkpt lat="46.91815" lon="6.71795">
        <ele>1356.5</ele>
      </trkpt>
      <trkpt lat="46.91829" lon="6.71803">
        <ele>1357.1</ele>
      </trkpt>
      <trkpt lat="46.91858" lon="6.71814">
        <ele>1358.2</ele>
      </trkpt>
      <trkpt lat="46.91892" lon="6.7182">
        <ele>1358.4</ele>
      </trkpt>
      <trkpt lat="46.91914" lon="6.71819">
        <ele>1357.4</ele>
      </trkpt>
      <trkpt lat="46.91953" lon="6.71821">
        <ele>1356.3</ele>
      </trkpt>
      <trkpt lat="46.91983" lon="6.71825">
        <ele>1355.9</ele>
      </trkpt>
      <trkpt lat="46.91994" lon="6.71826">
        <ele>1355.7</ele>
      </trkpt>
      <trkpt lat="46.92009" lon="6.71822">
        <ele>1354</ele>
      </trkpt>
      <trkpt lat="46.92021" lon="6.71823">
        <ele>1353.5</ele>
      </trkpt>
      <trkpt lat="46.92032" lon="6.71826">
        <ele>1353.5</ele>
      </trkpt>
      <trkpt lat="46.92059" lon="6.71844">
        <ele>1356</ele>
      </trkpt>
      <trkpt lat="46.92077" lon="6.71857">
        <ele>1358</ele>
      </trkpt>
      <trkpt lat="46.92089" lon="6.71862">
        <ele>1358.2</ele>
      </trkpt>
      <trkpt lat="46.92112" lon="6.71863">
        <ele>1355.3</ele>
      </trkpt>
      <trkpt lat="46.92122" lon="6.71867">
        <ele>1354.6</ele>
      </trkpt>
      <trkpt lat="46.92133" lon="6.71874">
        <ele>1354.5</ele>
      </trkpt>
      <trkpt lat="46.92141" lon="6.71882">
        <ele>1354.6</ele>
      </trkpt>
      <trkpt lat="46.92147" lon="6.71887">
        <ele>1354.6</ele>
      </trkpt>
      <trkpt lat="46.92155" lon="6.71897">
        <ele>1355</ele>
      </trkpt>
      <trkpt lat="46.92174" lon="6.71932">
        <ele>1358.4</ele>
      </trkpt>
      <trkpt lat="46.92185" lon="6.71949">
        <ele>1360.3</ele>
      </trkpt>
      <trkpt lat="46.92194" lon="6.71963">
        <ele>1361.6</ele>
      </trkpt>
      <trkpt lat="46.92202" lon="6.71972">
        <ele>1361.9</ele>
      </trkpt>
      <trkpt lat="46.92213" lon="6.71988">
        <ele>1362.5</ele>
      </trkpt>
      <trkpt lat="46.92224" lon="6.72005">
        <ele>1363.2</ele>
      </trkpt>
      <trkpt lat="46.92239" lon="6.72028">
        <ele>1364.2</ele>
      </trkpt>
      <trkpt lat="46.92257" lon="6.72046">
        <ele>1364.8</ele>
      </trkpt>
      <trkpt lat="46.92274" lon="6.72063">
        <ele>1366</ele>
      </trkpt>
      <trkpt lat="46.92297" lon="6.72087">
        <ele>1366.2</ele>
      </trkpt>
      <trkpt lat="46.92309" lon="6.72108">
        <ele>1366.5</ele>
      </trkpt>
      <trkpt lat="46.9232" lon="6.7213">
        <ele>1366.7</ele>
      </trkpt>
      <trkpt lat="46.92325" lon="6.7214">
        <ele>1366.6</ele>
      </trkpt>
      <trkpt lat="46.92337" lon="6.72161">
        <ele>1366.7</ele>
      </trkpt>
      <trkpt lat="46.92347" lon="6.72183">
        <ele>1368.4</ele>
      </trkpt>
      <trkpt lat="46.92361" lon="6.72204">
        <ele>1369.4</ele>
      </trkpt>
      <trkpt lat="46.92381" lon="6.72222">
        <ele>1369.4</ele>
      </trkpt>
      <trkpt lat="46.92391" lon="6.72227">
        <ele>1368.9</ele>
      </trkpt>
      <trkpt lat="46.92401" lon="6.72229">
        <ele>1368.4</ele>
      </trkpt>
      <trkpt lat="46.92415" lon="6.72232">
        <ele>1367.5</ele>
      </trkpt>
      <trkpt lat="46.92436" lon="6.72218">
        <ele>1371.4</ele>
      </trkpt>
      <trkpt lat="46.92447" lon="6.72215">
        <ele>1373.6</ele>
      </trkpt>
      <trkpt lat="46.92454" lon="6.7221">
        <ele>1375.4</ele>
      </trkpt>
      <trkpt lat="46.92472" lon="6.72206">
        <ele>1379.2</ele>
      </trkpt>
      <trkpt lat="46.9249" lon="6.72207">
        <ele>1382.6</ele>
      </trkpt>
      <trkpt lat="46.9252" lon="6.72224">
        <ele>1387.9</ele>
      </trkpt>
      <trkpt lat="46.92551" lon="6.72257">
        <ele>1393.2</ele>
      </trkpt>
      <trkpt lat="46.92573" lon="6.72263">
        <ele>1398.7</ele>
      </trkpt>
      <trkpt lat="46.92589" lon="6.7226">
        <ele>1402.8</ele>
      </trkpt>
      <trkpt lat="46.92624" lon="6.72209">
        <ele>1413</ele>
      </trkpt>
      <trkpt lat="46.92643" lon="6.72177">
        <ele>1416.9</ele>
      </trkpt>
      <trkpt lat="46.92674" lon="6.72152">
        <ele>1420.9</ele>
      </trkpt>
      <trkpt lat="46.92699" lon="6.72128">
        <ele>1423.4</ele>
      </trkpt>
      <trkpt lat="46.92717" lon="6.72118">
        <ele>1425</ele>
      </trkpt>
      <trkpt lat="46.92734" lon="6.72106">
        <ele>1426.2</ele>
      </trkpt>
      <trkpt lat="46.92739" lon="6.72101">
        <ele>1426.5</ele>
      </trkpt>
      <trkpt lat="46.92783" lon="6.72163">
        <ele>1432.8</ele>
      </trkpt>
      <trkpt lat="46.928" lon="6.72179">
        <ele>1435.4</ele>
      </trkpt>
      <trkpt lat="46.92826" lon="6.72182">
        <ele>1438.7</ele>
      </trkpt>
      <trkpt lat="46.92866" lon="6.72191">
        <ele>1444.6</ele>
      </trkpt>
      <trkpt lat="46.9288" lon="6.72199">
        <ele>1446.9</ele>
      </trkpt>
      <trkpt lat="46.92913" lon="6.72208">
        <ele>1451.9</ele>
      </trkpt>
      <trkpt lat="46.92933" lon="6.7221">
        <ele>1452.9</ele>
      </trkpt>
      <trkpt lat="46.92965" lon="6.72221">
        <ele>1453.9</ele>
      </trkpt>
      <trkpt lat="46.92989" lon="6.72199">
        <ele>1454.1</ele>
      </trkpt>
      <trkpt lat="46.93021" lon="6.72166">
        <ele>1455</ele>
      </trkpt>
      <trkpt lat="46.93055" lon="6.72139">
        <ele>1456.1</ele>
      </trkpt>
      <trkpt lat="46.93077" lon="6.72171">
        <ele>1457.5</ele>
      </trkpt>
      <trkpt lat="46.93113" lon="6.72203">
        <ele>1452.8</ele>
      </trkpt>
      <trkpt lat="46.9314" lon="6.72232">
        <ele>1446.1</ele>
      </trkpt>
      <trkpt lat="46.93143" lon="6.72235">
        <ele>1445.2</ele>
      </trkpt>
      <trkpt lat="46.93162" lon="6.72192">
        <ele>1447.9</ele>
      </trkpt>
      <trkpt lat="46.93181" lon="6.72161">
        <ele>1440.6</ele>
      </trkpt>
      <trkpt lat="46.93195" lon="6.7214">
        <ele>1434.4</ele>
      </trkpt>
      <trkpt lat="46.93214" lon="6.72116">
        <ele>1430.5</ele>
      </trkpt>
      <trkpt lat="46.93225" lon="6.72104">
        <ele>1430.4</ele>
      </trkpt>
      <trkpt lat="46.9326" lon="6.72076">
        <ele>1434</ele>
      </trkpt>
      <trkpt lat="46.93282" lon="6.72059">
        <ele>1435.6</ele>
      </trkpt>
      <trkpt lat="46.93292" lon="6.72052">
        <ele>1436.1</ele>
      </trkpt>
      <trkpt lat="46.93303" lon="6.72045">
        <ele>1436.3</ele>
      </trkpt>
      <trkpt lat="46.93327" lon="6.72028">
        <ele>1436.4</ele>
      </trkpt>
      <trkpt lat="46.9335" lon="6.72021">
        <ele>1434</ele>
      </trkpt>
      <trkpt lat="46.93382" lon="6.72014">
        <ele>1430.4</ele>
      </trkpt>
      <trkpt lat="46.93429" lon="6.72019">
        <ele>1423.6</ele>
      </trkpt>
      <trkpt lat="46.9345" lon="6.72024">
        <ele>1421.2</ele>
      </trkpt>
      <trkpt lat="46.93469" lon="6.72029">
        <ele>1418.8</ele>
      </trkpt>
      <trkpt lat="46.93487" lon="6.72033">
        <ele>1416.7</ele>
      </trkpt>
      <trkpt lat="46.93506" lon="6.72057">
        <ele>1410.4</ele>
      </trkpt>
      <trkpt lat="46.93522" lon="6.72061">
        <ele>1403.9</ele>
      </trkpt>
      <trkpt lat="46.93543" lon="6.72076">
        <ele>1391.5</ele>
      </trkpt>
      <trkpt lat="46.9357" lon="6.72079">
        <ele>1379</ele>
      </trkpt>
      <trkpt lat="46.93608" lon="6.72075">
        <ele>1377.5</ele>
      </trkpt>
      <trkpt lat="46.93638" lon="6.72068">
        <ele>1382.9</ele>
      </trkpt>
      <trkpt lat="46.93652" lon="6.72065">
        <ele>1384.8</ele>
      </trkpt>
      <trkpt lat="46.93665" lon="6.72054">
        <ele>1388.3</ele>
      </trkpt>
      <trkpt lat="46.93691" lon="6.72028">
        <ele>1376.6</ele>
      </trkpt>
      <trkpt lat="46.93682" lon="6.72011">
        <ele>1389.7</ele>
      </trkpt>
      <trkpt lat="46.93683" lon="6.72005">
        <ele>1391.8</ele>
      </trkpt>
      <trkpt lat="46.93691" lon="6.71997">
        <ele>1390.1</ele>
      </trkpt>
      <trkpt lat="46.93729" lon="6.7196">
        <ele>1380.8</ele>
      </trkpt>
      <trkpt lat="46.93757" lon="6.71929">
        <ele>1379.9</ele>
      </trkpt>
      <trkpt lat="46.93773" lon="6.71911">
        <ele>1380.1</ele>
      </trkpt>
      <trkpt lat="46.93782" lon="6.71908">
        <ele>1378.3</ele>
      </trkpt>
      <trkpt lat="46.93797" lon="6.71906">
        <ele>1375.3</ele>
      </trkpt>
      <trkpt lat="46.93811" lon="6.71906">
        <ele>1372.6</ele>
      </trkpt>
      <trkpt lat="46.93825" lon="6.71897">
        <ele>1370.6</ele>
      </trkpt>
      <trkpt lat="46.93839" lon="6.71891">
        <ele>1368.3</ele>
      </trkpt>
      <trkpt lat="46.93839" lon="6.7189">
        <ele>1368.6</ele>
      </trkpt>
      <trkpt lat="46.93839" lon="6.71888">
        <ele>1368.8</ele>
      </trkpt>
      <trkpt lat="46.93871" lon="6.71872">
        <ele>1364.9</ele>
      </trkpt>
      <trkpt lat="46.93882" lon="6.71862">
        <ele>1365.7</ele>
      </trkpt>
      <trkpt lat="46.93894" lon="6.71824">
        <ele>1372.2</ele>
      </trkpt>
      <trkpt lat="46.93895" lon="6.7182">
        <ele>1372.1</ele>
      </trkpt>
      <trkpt lat="46.93936" lon="6.71842">
        <ele>1365.4</ele>
      </trkpt>
      <trkpt lat="46.93964" lon="6.71856">
        <ele>1358.8</ele>
      </trkpt>
      <trkpt lat="46.93984" lon="6.71866">
        <ele>1355.6</ele>
      </trkpt>
      <trkpt lat="46.94004" lon="6.71878">
        <ele>1352.8</ele>
      </trkpt>
      <trkpt lat="46.94029" lon="6.7192">
        <ele>1346.3</ele>
      </trkpt>
      <trkpt lat="46.94055" lon="6.71931">
        <ele>1342.5</ele>
      </trkpt>
      <trkpt lat="46.94066" lon="6.71958">
        <ele>1339.1</ele>
      </trkpt>
      <trkpt lat="46.94078" lon="6.71929">
        <ele>1341.8</ele>
      </trkpt>
      <trkpt lat="46.94074" lon="6.71883">
        <ele>1338.2</ele>
      </trkpt>
      <trkpt lat="46.94081" lon="6.71883">
        <ele>1337</ele>
      </trkpt>
      <trkpt lat="46.94104" lon="6.71921">
        <ele>1330.2</ele>
      </trkpt>
      <trkpt lat="46.94107" lon="6.71925">
        <ele>1328.2</ele>
      </trkpt>
      <trkpt lat="46.94108" lon="6.7192">
        <ele>1327.5</ele>
      </trkpt>
      <trkpt lat="46.9411" lon="6.71872">
        <ele>1320.6</ele>
      </trkpt>
      <trkpt lat="46.94105" lon="6.71833">
        <ele>1317.9</ele>
      </trkpt>
      <trkpt lat="46.94123" lon="6.71845">
        <ele>1311</ele>
      </trkpt>
      <trkpt lat="46.9413" lon="6.71855">
        <ele>1309</ele>
      </trkpt>
      <trkpt lat="46.94134" lon="6.71877">
        <ele>1309.1</ele>
      </trkpt>
      <trkpt lat="46.94135" lon="6.71882">
        <ele>1309.1</ele>
      </trkpt>
      <trkpt lat="46.94138" lon="6.71876">
        <ele>1306.8</ele>
      </trkpt>
      <trkpt lat="46.94144" lon="6.71849">
        <ele>1301.4</ele>
      </trkpt>
      <trkpt lat="46.94138" lon="6.71813">
        <ele>1297</ele>
      </trkpt>
      <trkpt lat="46.94151" lon="6.71825">
        <ele>1294.6</ele>
      </trkpt>
      <trkpt lat="46.94162" lon="6.71859">
        <ele>1293.7</ele>
      </trkpt>
      <trkpt lat="46.94163" lon="6.71867">
        <ele>1293.6</ele>
      </trkpt>
      <trkpt lat="46.94164" lon="6.71887">
        <ele>1293.8</ele>
      </trkpt>
      <trkpt lat="46.94173" lon="6.71868">
        <ele>1286.6</ele>
      </trkpt>
      <trkpt lat="46.94178" lon="6.71855">
        <ele>1281.8</ele>
      </trkpt>
      <trkpt lat="46.9418" lon="6.71852">
        <ele>1280.2</ele>
      </trkpt>
      <trkpt lat="46.94188" lon="6.71833">
        <ele>1273.1</ele>
      </trkpt>
      <trkpt lat="46.94192" lon="6.7181">
        <ele>1264.5</ele>
      </trkpt>
      <trkpt lat="46.94188" lon="6.71796">
        <ele>1263.7</ele>
      </trkpt>
      <trkpt lat="46.94181" lon="6.71783">
        <ele>1265.3</ele>
      </trkpt>
      <trkpt lat="46.94177" lon="6.71771">
        <ele>1264.9</ele>
      </trkpt>
      <trkpt lat="46.94188" lon="6.71774">
        <ele>1258.1</ele>
      </trkpt>
      <trkpt lat="46.94203" lon="6.71794">
        <ele>1251.8</ele>
      </trkpt>
      <trkpt lat="46.94209" lon="6.71813">
        <ele>1252.2</ele>
      </trkpt>
      <trkpt lat="46.94209" lon="6.71836">
        <ele>1257.3</ele>
      </trkpt>
      <trkpt lat="46.94218" lon="6.71861">
        <ele>1250.7</ele>
      </trkpt>
      <trkpt lat="46.94222" lon="6.71843">
        <ele>1247.3</ele>
      </trkpt>
      <trkpt lat="46.94227" lon="6.71827">
        <ele>1241.3</ele>
      </trkpt>
      <trkpt lat="46.94225" lon="6.71781">
        <ele>1232</ele>
      </trkpt>
      <trkpt lat="46.94223" lon="6.71749">
        <ele>1225.8</ele>
      </trkpt>
      <trkpt lat="46.94213" lon="6.71729">
        <ele>1226</ele>
      </trkpt>
      <trkpt lat="46.94211" lon="6.71724">
        <ele>1225</ele>
      </trkpt>
      <trkpt lat="46.9422" lon="6.71727">
        <ele>1220.3</ele>
      </trkpt>
      <trkpt lat="46.94231" lon="6.71743">
        <ele>1217.9</ele>
      </trkpt>
      <trkpt lat="46.94251" lon="6.71776">
        <ele>1211.3</ele>
      </trkpt>
      <trkpt lat="46.94262" lon="6.71812">
        <ele>1211.1</ele>
      </trkpt>
      <trkpt lat="46.94264" lon="6.71844">
        <ele>1214</ele>
      </trkpt>
      <trkpt lat="46.94266" lon="6.7187">
        <ele>1212.3</ele>
      </trkpt>
      <trkpt lat="46.94274" lon="6.71891">
        <ele>1206.4</ele>
      </trkpt>
      <trkpt lat="46.94279" lon="6.71901">
        <ele>1202</ele>
      </trkpt>
      <trkpt lat="46.94292" lon="6.71872">
        <ele>1192.6</ele>
      </trkpt>
      <trkpt lat="46.94298" lon="6.71832">
        <ele>1187</ele>
      </trkpt>
      <trkpt lat="46.94299" lon="6.71783">
        <ele>1176.4</ele>
      </trkpt>
      <trkpt lat="46.94295" lon="6.71741">
        <ele>1170.4</ele>
      </trkpt>
      <trkpt lat="46.9429" lon="6.71709">
        <ele>1165.4</ele>
      </trkpt>
      <trkpt lat="46.94284" lon="6.71664">
        <ele>1157.2</ele>
      </trkpt>
      <trkpt lat="46.94287" lon="6.71662">
        <ele>1154.6</ele>
      </trkpt>
      <trkpt lat="46.94303" lon="6.7169">
        <ele>1151.9</ele>
      </trkpt>
      <trkpt lat="46.94316" lon="6.71707">
        <ele>1146.8</ele>
      </trkpt>
      <trkpt lat="46.9433" lon="6.71737">
        <ele>1144</ele>
      </trkpt>
      <trkpt lat="46.94338" lon="6.7176">
        <ele>1142.8</ele>
      </trkpt>
      <trkpt lat="46.94349" lon="6.7179">
        <ele>1141</ele>
      </trkpt>
      <trkpt lat="46.94359" lon="6.71824">
        <ele>1140.5</ele>
      </trkpt>
      <trkpt lat="46.94373" lon="6.71865">
        <ele>1132.7</ele>
      </trkpt>
      <trkpt lat="46.94373" lon="6.71909">
        <ele>1133.7</ele>
      </trkpt>
      <trkpt lat="46.94371" lon="6.71927">
        <ele>1134.9</ele>
      </trkpt>
      <trkpt lat="46.94377" lon="6.7193">
        <ele>1130.7</ele>
      </trkpt>
      <trkpt lat="46.94397" lon="6.71897">
        <ele>1117.1</ele>
      </trkpt>
      <trkpt lat="46.94402" lon="6.71802">
        <ele>1107.2</ele>
      </trkpt>
      <trkpt lat="46.94408" lon="6.71774">
        <ele>1099.3</ele>
      </trkpt>
      <trkpt lat="46.94411" lon="6.71739">
        <ele>1091.6</ele>
      </trkpt>
      <trkpt lat="46.9441" lon="6.71708">
        <ele>1086.9</ele>
      </trkpt>
      <trkpt lat="46.94408" lon="6.71663">
        <ele>1079.9</ele>
      </trkpt>
      <trkpt lat="46.94397" lon="6.7157">
        <ele>1070.9</ele>
      </trkpt>
      <trkpt lat="46.94397" lon="6.71562">
        <ele>1069.3</ele>
      </trkpt>
      <trkpt lat="46.94413" lon="6.71585">
        <ele>1064.5</ele>
      </trkpt>
      <trkpt lat="46.94424" lon="6.71608">
        <ele>1062.6</ele>
      </trkpt>
      <trkpt lat="46.94446" lon="6.71632">
        <ele>1056.1</ele>
      </trkpt>
      <trkpt lat="46.94481" lon="6.71673">
        <ele>1047.4</ele>
      </trkpt>
      <trkpt lat="46.94507" lon="6.7171">
        <ele>1043.3</ele>
      </trkpt>
      <trkpt lat="46.94527" lon="6.71716">
        <ele>1037.4</ele>
      </trkpt>
      <trkpt lat="46.94559" lon="6.71726">
        <ele>1027.5</ele>
      </trkpt>
      <trkpt lat="46.94569" lon="6.71722">
        <ele>1023.2</ele>
      </trkpt>
      <trkpt lat="46.94579" lon="6.71739">
        <ele>1020.9</ele>
      </trkpt>
      <trkpt lat="46.94581" lon="6.71741">
        <ele>1020.6</ele>
      </trkpt>
      <trkpt lat="46.94586" lon="6.71751">
        <ele>1019.6</ele>
      </trkpt>
      <trkpt lat="46.94587" lon="6.71753">
        <ele>1019.4</ele>
      </trkpt>
      <trkpt lat="46.94587" lon="6.71756">
        <ele>1019.1</ele>
      </trkpt>
      <trkpt lat="46.9459" lon="6.71764">
        <ele>1018.3</ele>
      </trkpt>
      <trkpt lat="46.94591" lon="6.71772">
        <ele>1017.6</ele>
      </trkpt>
      <trkpt lat="46.94592" lon="6.7178">
        <ele>1017</ele>
      </trkpt>
      <trkpt lat="46.94592" lon="6.71789">
        <ele>1016.4</ele>
      </trkpt>
      <trkpt lat="46.94591" lon="6.71799">
        <ele>1015.9</ele>
      </trkpt>
      <trkpt lat="46.9459" lon="6.71807">
        <ele>1015.7</ele>
      </trkpt>
      <trkpt lat="46.94587" lon="6.71816">
        <ele>1015.8</ele>
      </trkpt>
      <trkpt lat="46.94585" lon="6.71823">
        <ele>1016</ele>
      </trkpt>
      <trkpt lat="46.94582" lon="6.7183">
        <ele>1016.8</ele>
      </trkpt>
      <trkpt lat="46.94575" lon="6.71841">
        <ele>1019.3</ele>
      </trkpt>
      <trkpt lat="46.94559" lon="6.71859">
        <ele>1024.8</ele>
      </trkpt>
      <trkpt lat="46.94554" lon="6.71867">
        <ele>1026.2</ele>
      </trkpt>
      <trkpt lat="46.94551" lon="6.71874">
        <ele>1026.9</ele>
      </trkpt>
      <trkpt lat="46.94548" lon="6.71886">
        <ele>1027.1</ele>
      </trkpt>
      <trkpt lat="46.94544" lon="6.71916">
        <ele>1025.8</ele>
      </trkpt>
      <trkpt lat="46.94539" lon="6.71961">
        <ele>1024</ele>
      </trkpt>
      <trkpt lat="46.94538" lon="6.71979">
        <ele>1022.8</ele>
      </trkpt>
      <trkpt lat="46.94538" lon="6.72004">
        <ele>1020.9</ele>
      </trkpt>
      <trkpt lat="46.94539" lon="6.72029">
        <ele>1019.6</ele>
      </trkpt>
      <trkpt lat="46.94545" lon="6.72063">
        <ele>1015.9</ele>
      </trkpt>
      <trkpt lat="46.94556" lon="6.72111">
        <ele>1010.7</ele>
      </trkpt>
      <trkpt lat="46.94562" lon="6.72126">
        <ele>1008.6</ele>
      </trkpt>
      <trkpt lat="46.94575" lon="6.7215">
        <ele>1002.8</ele>
      </trkpt>
      <trkpt lat="46.94579" lon="6.72158">
        <ele>1001.1</ele>
      </trkpt>
      <trkpt lat="46.94627" lon="6.72283">
        <ele>991.4</ele>
      </trkpt>
      <trkpt lat="46.94629" lon="6.72293">
        <ele>990.6</ele>
      </trkpt>
      <trkpt lat="46.94632" lon="6.7231">
        <ele>989.6</ele>
      </trkpt>
      <trkpt lat="46.94633" lon="6.72318">
        <ele>989.4</ele>
      </trkpt>
      <trkpt lat="46.94634" lon="6.72327">
        <ele>989.3</ele>
      </trkpt>
      <trkpt lat="46.94634" lon="6.72351">
        <ele>988.1</ele>
      </trkpt>
      <trkpt lat="46.94634" lon="6.72379">
        <ele>985.7</ele>
      </trkpt>
      <trkpt lat="46.94633" lon="6.72393">
        <ele>985.1</ele>
      </trkpt>
      <trkpt lat="46.94632" lon="6.72402">
        <ele>985.2</ele>
      </trkpt>
      <trkpt lat="46.94629" lon="6.72417">
        <ele>985.8</ele>
      </trkpt>
      <trkpt lat="46.94624" lon="6.72434">
        <ele>985.6</ele>
      </trkpt>
      <trkpt lat="46.94613" lon="6.72465">
        <ele>984.9</ele>
      </trkpt>
      <trkpt lat="46.94607" lon="6.72481">
        <ele>984.5</ele>
      </trkpt>
      <trkpt lat="46.94602" lon="6.72494">
        <ele>984.3</ele>
      </trkpt>
      <trkpt lat="46.94594" lon="6.72517">
        <ele>983</ele>
      </trkpt>
      <trkpt lat="46.94591" lon="6.72525">
        <ele>982.4</ele>
      </trkpt>
      <trkpt lat="46.94585" lon="6.72547">
        <ele>980.7</ele>
      </trkpt>
      <trkpt lat="46.94579" lon="6.72566">
        <ele>979.8</ele>
      </trkpt>
      <trkpt lat="46.94574" lon="6.72591">
        <ele>978</ele>
      </trkpt>
      <trkpt lat="46.94565" lon="6.72624">
        <ele>977.3</ele>
      </trkpt>
      <trkpt lat="46.94561" lon="6.72636">
        <ele>977.6</ele>
      </trkpt>
      <trkpt lat="46.94559" lon="6.72647">
        <ele>977.5</ele>
      </trkpt>
      <trkpt lat="46.94557" lon="6.72655">
        <ele>976.9</ele>
      </trkpt>
      <trkpt lat="46.94556" lon="6.72665">
        <ele>975.8</ele>
      </trkpt>
      <trkpt lat="46.94555" lon="6.72673">
        <ele>975.4</ele>
      </trkpt>
      <trkpt lat="46.94554" lon="6.72684">
        <ele>975.2</ele>
      </trkpt>
      <trkpt lat="46.9455" lon="6.72707">
        <ele>975.5</ele>
      </trkpt>
      <trkpt lat="46.9455" lon="6.72723">
        <ele>973.9</ele>
      </trkpt>
      <trkpt lat="46.94554" lon="6.72737">
        <ele>969.8</ele>
      </trkpt>
      <trkpt lat="46.94557" lon="6.72747">
        <ele>967.1</ele>
      </trkpt>
      <trkpt lat="46.94559" lon="6.72757">
        <ele>965.9</ele>
      </trkpt>
      <trkpt lat="46.94563" lon="6.7278">
        <ele>964.3</ele>
      </trkpt>
      <trkpt lat="46.94572" lon="6.72845">
        <ele>960.4</ele>
      </trkpt>
      <trkpt lat="46.94573" lon="6.72856">
        <ele>959.3</ele>
      </trkpt>
      <trkpt lat="46.94574" lon="6.72866">
        <ele>958.4</ele>
      </trkpt>
      <trkpt lat="46.94575" lon="6.72876">
        <ele>957.5</ele>
      </trkpt>
      <trkpt lat="46.94576" lon="6.72881">
        <ele>956.7</ele>
      </trkpt>
      <trkpt lat="46.94577" lon="6.72886">
        <ele>955.9</ele>
      </trkpt>
      <trkpt lat="46.94579" lon="6.72893">
        <ele>954.7</ele>
      </trkpt>
      <trkpt lat="46.94582" lon="6.72902">
        <ele>952.5</ele>
      </trkpt>
      <trkpt lat="46.94585" lon="6.72911">
        <ele>950.8</ele>
      </trkpt>
      <trkpt lat="46.94587" lon="6.72922">
        <ele>950</ele>
      </trkpt>
      <trkpt lat="46.94586" lon="6.72931">
        <ele>949.8</ele>
      </trkpt>
      <trkpt lat="46.94585" lon="6.72943">
        <ele>949.3</ele>
      </trkpt>
      <trkpt lat="46.94584" lon="6.72954">
        <ele>949</ele>
      </trkpt>
      <trkpt lat="46.94583" lon="6.72965">
        <ele>949</ele>
      </trkpt>
      <trkpt lat="46.94581" lon="6.72977">
        <ele>949.5</ele>
      </trkpt>
      <trkpt lat="46.94579" lon="6.72989">
        <ele>950</ele>
      </trkpt>
      <trkpt lat="46.9457" lon="6.73024">
        <ele>953.3</ele>
      </trkpt>
      <trkpt lat="46.94566" lon="6.73043">
        <ele>954.9</ele>
      </trkpt>
      <trkpt lat="46.94565" lon="6.73051">
        <ele>955.4</ele>
      </trkpt>
      <trkpt lat="46.94563" lon="6.7307">
        <ele>956.1</ele>
      </trkpt>
      <trkpt lat="46.9456" lon="6.73097">
        <ele>958.2</ele>
      </trkpt>
      <trkpt lat="46.94558" lon="6.73122">
        <ele>961.2</ele>
      </trkpt>
      <trkpt lat="46.94557" lon="6.73136">
        <ele>962.7</ele>
      </trkpt>
      <trkpt lat="46.94557" lon="6.73146">
        <ele>963.7</ele>
      </trkpt>
      <trkpt lat="46.94557" lon="6.73153">
        <ele>964.2</ele>
      </trkpt>
      <trkpt lat="46.94558" lon="6.73167">
        <ele>964.8</ele>
      </trkpt>
      <trkpt lat="46.94561" lon="6.73183">
        <ele>964.1</ele>
      </trkpt>
      <trkpt lat="46.94562" lon="6.73202">
        <ele>964</ele>
      </trkpt>
      <trkpt lat="46.94576" lon="6.73197">
        <ele>959.3</ele>
      </trkpt>
      <trkpt lat="46.94596" lon="6.73194">
        <ele>953.4</ele>
      </trkpt>
      <trkpt lat="46.9462" lon="6.73183">
        <ele>946.8</ele>
      </trkpt>
      <trkpt lat="46.94652" lon="6.73175">
        <ele>939.2</ele>
      </trkpt>
      <trkpt lat="46.94669" lon="6.73166">
        <ele>935.3</ele>
      </trkpt>
      <trkpt lat="46.94723" lon="6.73121">
        <ele>924.3</ele>
      </trkpt>
      <trkpt lat="46.9478" lon="6.731">
        <ele>913.2</ele>
      </trkpt>
      <trkpt lat="46.94813" lon="6.7308">
        <ele>906.7</ele>
      </trkpt>
      <trkpt lat="46.94831" lon="6.73059">
        <ele>902.5</ele>
      </trkpt>
      <trkpt lat="46.94851" lon="6.73035">
        <ele>895.8</ele>
      </trkpt>
      <trkpt lat="46.94871" lon="6.73012">
        <ele>888.7</ele>
      </trkpt>
      <trkpt lat="46.94888" lon="6.72999">
        <ele>882</ele>
      </trkpt>
      <trkpt lat="46.94906" lon="6.73011">
        <ele>874.6</ele>
      </trkpt>
      <trkpt lat="46.9493" lon="6.73051">
        <ele>863.9</ele>
      </trkpt>
      <trkpt lat="46.94951" lon="6.73075">
        <ele>857.3</ele>
      </trkpt>
      <trkpt lat="46.94969" lon="6.73097">
        <ele>850.8</ele>
      </trkpt>
      <trkpt lat="46.94982" lon="6.73119">
        <ele>845.3</ele>
      </trkpt>
      <trkpt lat="46.94996" lon="6.73147">
        <ele>840.7</ele>
      </trkpt>
      <trkpt lat="46.95016" lon="6.73167">
        <ele>833.3</ele>
      </trkpt>
      <trkpt lat="46.95028" lon="6.73176">
        <ele>828.5</ele>
      </trkpt>
      <trkpt lat="46.95054" lon="6.73185">
        <ele>819.5</ele>
      </trkpt>
      <trkpt lat="46.95083" lon="6.73187">
        <ele>810.3</ele>
      </trkpt>
      <trkpt lat="46.95089" lon="6.73176">
        <ele>807.6</ele>
      </trkpt>
      <trkpt lat="46.951" lon="6.73159">
        <ele>802.4</ele>
      </trkpt>
      <trkpt lat="46.95104" lon="6.73141">
        <ele>798.8</ele>
      </trkpt>
      <trkpt lat="46.95114" lon="6.7311">
        <ele>792.3</ele>
      </trkpt>
      <trkpt lat="46.95114" lon="6.73096">
        <ele>790.6</ele>
      </trkpt>
      <trkpt lat="46.95118" lon="6.73088">
        <ele>788.7</ele>
      </trkpt>
      <trkpt lat="46.95122" lon="6.7306">
        <ele>784.1</ele>
      </trkpt>
      <trkpt lat="46.95126" lon="6.7306">
        <ele>783</ele>
      </trkpt>
      <trkpt lat="46.95137" lon="6.73034">
        <ele>777</ele>
      </trkpt>
      <trkpt lat="46.9513" lon="6.73014">
        <ele>776.6</ele>
      </trkpt>
      <trkpt lat="46.95129" lon="6.73006">
        <ele>776.1</ele>
      </trkpt>
      <trkpt lat="46.95102" lon="6.72854">
        <ele>755.1</ele>
      </trkpt>
      <trkpt lat="46.95096" lon="6.72824">
        <ele>750.1</ele>
      </trkpt>
      <trkpt lat="46.95094" lon="6.7281">
        <ele>748.5</ele>
      </trkpt>
      <trkpt lat="46.95094" lon="6.72799">
        <ele>747</ele>
      </trkpt>
      <trkpt lat="46.951" lon="6.72788">
        <ele>744.9</ele>
      </trkpt>
      <trkpt lat="46.95105" lon="6.72785">
        <ele>744.1</ele>
      </trkpt>
      <trkpt lat="46.95111" lon="6.72783">
        <ele>743.3</ele>
      </trkpt>
      <trkpt lat="46.95122" lon="6.7278">
        <ele>741.9</ele>
      </trkpt>
      <trkpt lat="46.95128" lon="6.72778">
        <ele>741</ele>
      </trkpt>
      <trkpt lat="46.95137" lon="6.72771">
        <ele>739.5</ele>
      </trkpt>
      <trkpt lat="46.95142" lon="6.72766">
        <ele>738.6</ele>
      </trkpt>
      <trkpt lat="46.95145" lon="6.72761">
        <ele>737.8</ele>
      </trkpt>
      <trkpt lat="46.95151" lon="6.72746">
        <ele>735.8</ele>
      </trkpt>
      <trkpt lat="46.95166" lon="6.72711">
        <ele>732.2</ele>
      </trkpt>
      <trkpt lat="46.9518" lon="6.72676">
        <ele>728.7</ele>
      </trkpt>
      <trkpt lat="46.95188" lon="6.72657">
        <ele>727</ele>
      </trkpt>
      <trkpt lat="46.95193" lon="6.72649">
        <ele>726.3</ele>
      </trkpt>
      <trkpt lat="46.95198" lon="6.7264">
        <ele>725.6</ele>
      </trkpt>
      <trkpt lat="46.95205" lon="6.72631">
        <ele>724.9</ele>
      </trkpt>
      <trkpt lat="46.95217" lon="6.72619">
        <ele>723.9</ele>
      </trkpt>
      <trkpt lat="46.95228" lon="6.72611">
        <ele>723.2</ele>
      </trkpt>
      <trkpt lat="46.95256" lon="6.72593">
        <ele>722.2</ele>
      </trkpt>
      <trkpt lat="46.95271" lon="6.72585">
        <ele>722.3</ele>
      </trkpt>
      <trkpt lat="46.95288" lon="6.72573">
        <ele>722.7</ele>
      </trkpt>
      <trkpt lat="46.95297" lon="6.72562">
        <ele>723.1</ele>
      </trkpt>
      <trkpt lat="46.95305" lon="6.7255">
        <ele>723.5</ele>
      </trkpt>
      <trkpt lat="46.95309" lon="6.72541">
        <ele>723.7</ele>
      </trkpt>
      <trkpt lat="46.95336" lon="6.72466">
        <ele>725</ele>
      </trkpt>
      <trkpt lat="46.95346" lon="6.72441">
        <ele>725</ele>
      </trkpt>
      <trkpt lat="46.95356" lon="6.72424">
        <ele>725</ele>
      </trkpt>
      <trkpt lat="46.95368" lon="6.72428">
        <ele>725</ele>
      </trkpt>
      <trkpt lat="46.95387" lon="6.7245">
        <ele>725</ele>
      </trkpt>
      <trkpt lat="46.95402" lon="6.72459">
        <ele>725</ele>
      </trkpt>
      <trkpt lat="46.95404" lon="6.72461">
        <ele>725</ele>
      </trkpt>
      <trkpt lat="46.95407" lon="6.72462">
        <ele>725</ele>
      </trkpt>
      <trkpt lat="46.9541" lon="6.72462">
        <ele>725</ele>
      </trkpt>
      <trkpt lat="46.9542" lon="6.72465">
        <ele>725</ele>
      </trkpt>
      <trkpt lat="46.95435" lon="6.72467">
        <ele>725.3</ele>
      </trkpt>
      <trkpt lat="46.95471" lon="6.72471">
        <ele>725.8</ele>
      </trkpt>
      <trkpt lat="46.95496" lon="6.72472">
        <ele>726.3</ele>
      </trkpt>
      <trkpt lat="46.95498" lon="6.72443">
        <ele>725.6</ele>
      </trkpt>
      <trkpt lat="46.955" lon="6.72372">
        <ele>725.6</ele>
      </trkpt>
      <trkpt lat="46.955" lon="6.7236">
        <ele>725.7</ele>
      </trkpt>
      <trkpt lat="46.95501" lon="6.72344">
        <ele>725.9</ele>
      </trkpt>
      <trkpt lat="46.95503" lon="6.72276">
        <ele>725.6</ele>
      </trkpt>
      <trkpt lat="46.95505" lon="6.72254">
        <ele>725.7</ele>
      </trkpt>
      <trkpt lat="46.95507" lon="6.72239">
        <ele>726.3</ele>
      </trkpt>
      <trkpt lat="46.9552" lon="6.72202">
        <ele>729.7</ele>
      </trkpt>
      <trkpt lat="46.95526" lon="6.72234">
        <ele>729.3</ele>
      </trkpt>
      <trkpt lat="46.9553" lon="6.72241">
        <ele>729.4</ele>
      </trkpt>
      <trkpt lat="46.95535" lon="6.72251">
        <ele>729.5</ele>
      </trkpt>
      <trkpt lat="46.95545" lon="6.72265">
        <ele>730.3</ele>
      </trkpt>
      <trkpt lat="46.95558" lon="6.72275">
        <ele>731</ele>
      </trkpt>
      <trkpt lat="46.95575" lon="6.72288">
        <ele>731.7</ele>
      </trkpt>
      <trkpt lat="46.95585" lon="6.72298">
        <ele>731.7</ele>
      </trkpt>
      <trkpt lat="46.95592" lon="6.72305">
        <ele>732.8</ele>
      </trkpt>
      <trkpt lat="46.95606" lon="6.7232">
        <ele>734.2</ele>
      </trkpt>
      <trkpt lat="46.95615" lon="6.72337">
        <ele>734.3</ele>
      </trkpt>
      <trkpt lat="46.95617" lon="6.72341">
        <ele>734.6</ele>
      </trkpt>
      <trkpt lat="46.95626" lon="6.72367">
        <ele>735</ele>
      </trkpt>
      <trkpt lat="46.9563" lon="6.72391">
        <ele>734.5</ele>
      </trkpt>
      <trkpt lat="46.95626" lon="6.72436">
        <ele>731.8</ele>
      </trkpt>
      <trkpt lat="46.95631" lon="6.72467">
        <ele>730.9</ele>
      </trkpt>
      <trkpt lat="46.95671" lon="6.7245">
        <ele>736.2</ele>
      </trkpt>
      <trkpt lat="46.95675" lon="6.72448">
        <ele>737.3</ele>
      </trkpt>
      <trkpt lat="46.95686" lon="6.72443">
        <ele>740</ele>
      </trkpt>
      <trkpt lat="46.957" lon="6.7243">
        <ele>744.3</ele>
      </trkpt>
      <trkpt lat="46.95712" lon="6.72411">
        <ele>749.2</ele>
      </trkpt>
      <trkpt lat="46.95716" lon="6.72399">
        <ele>752.2</ele>
      </trkpt>
      <trkpt lat="46.9572" lon="6.72389">
        <ele>754.7</ele>
      </trkpt>
      <trkpt lat="46.95722" lon="6.7237">
        <ele>758.6</ele>
      </trkpt>
      <trkpt lat="46.95722" lon="6.72357">
        <ele>760.9</ele>
      </trkpt>
      <trkpt lat="46.95719" lon="6.72338">
        <ele>763.1</ele>
      </trkpt>
      <trkpt lat="46.95716" lon="6.7232">
        <ele>766</ele>
      </trkpt>
      <trkpt lat="46.95709" lon="6.72301">
        <ele>767.9</ele>
      </trkpt>
      <trkpt lat="46.95703" lon="6.72286">
        <ele>769</ele>
      </trkpt>
      <trkpt lat="46.95695" lon="6.7228">
        <ele>767.4</ele>
      </trkpt>
      <trkpt lat="46.95688" lon="6.72267">
        <ele>767.5</ele>
      </trkpt>
      <trkpt lat="46.9568" lon="6.72256">
        <ele>766.9</ele>
      </trkpt>
      <trkpt lat="46.95673" lon="6.72244">
        <ele>766.3</ele>
      </trkpt>
      <trkpt lat="46.95669" lon="6.72232">
        <ele>766.5</ele>
      </trkpt>
      <trkpt lat="46.95665" lon="6.72214">
        <ele>767.4</ele>
      </trkpt>
      <trkpt lat="46.95663" lon="6.72192">
        <ele>769.2</ele>
      </trkpt>
      <trkpt lat="46.95662" lon="6.72157">
        <ele>772</ele>
      </trkpt>
      <trkpt lat="46.95662" lon="6.72137">
        <ele>771.6</ele>
      </trkpt>
      <trkpt lat="46.95664" lon="6.72121">
        <ele>772.1</ele>
      </trkpt>
      <trkpt lat="46.95661" lon="6.72108">
        <ele>770.7</ele>
      </trkpt>
      <trkpt lat="46.95656" lon="6.72087">
        <ele>768.7</ele>
      </trkpt>
      <trkpt lat="46.95653" lon="6.72066">
        <ele>767.6</ele>
      </trkpt>
      <trkpt lat="46.95651" lon="6.72049">
        <ele>766.9</ele>
      </trkpt>
      <trkpt lat="46.95659" lon="6.72047">
        <ele>769.4</ele>
      </trkpt>
      <trkpt lat="46.95663" lon="6.72042">
        <ele>770.8</ele>
      </trkpt>
      <trkpt lat="46.95666" lon="6.72025">
        <ele>771.8</ele>
      </trkpt>
      <trkpt lat="46.95676" lon="6.71986">
        <ele>775.5</ele>
      </trkpt>
      <trkpt lat="46.95681" lon="6.71968">
        <ele>777</ele>
      </trkpt>
      <trkpt lat="46.95688" lon="6.71949">
        <ele>779.5</ele>
      </trkpt>
      <trkpt lat="46.95709" lon="6.71921">
        <ele>787.3</ele>
      </trkpt>
      <trkpt lat="46.95729" lon="6.71871">
        <ele>792.4</ele>
      </trkpt>
      <trkpt lat="46.95745" lon="6.71827">
        <ele>796.7</ele>
      </trkpt>
      <trkpt lat="46.95756" lon="6.71793">
        <ele>800.7</ele>
      </trkpt>
      <trkpt lat="46.9576" lon="6.71784">
        <ele>802.9</ele>
      </trkpt>
      <trkpt lat="46.95766" lon="6.71784">
        <ele>805.9</ele>
      </trkpt>
      <trkpt lat="46.95769" lon="6.7179">
        <ele>807.7</ele>
      </trkpt>
      <trkpt lat="46.95768" lon="6.71802">
        <ele>807.4</ele>
      </trkpt>
      <trkpt lat="46.95759" lon="6.71847">
        <ele>804.9</ele>
      </trkpt>
      <trkpt lat="46.95747" lon="6.7191">
        <ele>803.1</ele>
      </trkpt>
      <trkpt lat="46.95738" lon="6.71953">
        <ele>801.3</ele>
      </trkpt>
      <trkpt lat="46.95737" lon="6.71961">
        <ele>801.4</ele>
      </trkpt>
      <trkpt lat="46.95736" lon="6.7197">
        <ele>801.6</ele>
      </trkpt>
      <trkpt lat="46.95737" lon="6.71987">
        <ele>802.6</ele>
      </trkpt>
      <trkpt lat="46.95738" lon="6.72023">
        <ele>804.7</ele>
      </trkpt>
      <trkpt lat="46.95742" lon="6.72069">
        <ele>808.2</ele>
      </trkpt>
      <trkpt lat="46.95745" lon="6.72103">
        <ele>809.4</ele>
      </trkpt>
      <trkpt lat="46.95749" lon="6.72132">
        <ele>809.5</ele>
      </trkpt>
      <trkpt lat="46.95753" lon="6.72155">
        <ele>810.4</ele>
      </trkpt>
      <trkpt lat="46.95756" lon="6.72164">
        <ele>811.2</ele>
      </trkpt>
      <trkpt lat="46.95761" lon="6.72174">
        <ele>812.5</ele>
      </trkpt>
      <trkpt lat="46.95769" lon="6.72189">
        <ele>814.6</ele>
      </trkpt>
      <trkpt lat="46.95761" lon="6.72174">
        <ele>812.5</ele>
      </trkpt>
      <trkpt lat="46.95766" lon="6.72163">
        <ele>816.6</ele>
      </trkpt>
      <trkpt lat="46.95769" lon="6.72151">
        <ele>819.1</ele>
      </trkpt>
      <trkpt lat="46.95772" lon="6.72132">
        <ele>822</ele>
      </trkpt>
      <trkpt lat="46.95779" lon="6.72113">
        <ele>827.1</ele>
      </trkpt>
      <trkpt lat="46.95796" lon="6.72071">
        <ele>838.3</ele>
      </trkpt>
      <trkpt lat="46.95817" lon="6.72029">
        <ele>850.2</ele>
      </trkpt>
      <trkpt lat="46.95843" lon="6.7198">
        <ele>863.5</ele>
      </trkpt>
      <trkpt lat="46.95864" lon="6.71947">
        <ele>871.7</ele>
      </trkpt>
      <trkpt lat="46.95883" lon="6.71898">
        <ele>877.8</ele>
      </trkpt>
      <trkpt lat="46.95883" lon="6.71929">
        <ele>880.6</ele>
      </trkpt>
      <trkpt lat="46.95883" lon="6.71959">
        <ele>882.7</ele>
      </trkpt>
      <trkpt lat="46.95884" lon="6.71988">
        <ele>885.5</ele>
      </trkpt>
      <trkpt lat="46.95886" lon="6.72006">
        <ele>887.2</ele>
      </trkpt>
      <trkpt lat="46.95891" lon="6.7203">
        <ele>890.8</ele>
      </trkpt>
      <trkpt lat="46.95896" lon="6.72052">
        <ele>894.5</ele>
      </trkpt>
      <trkpt lat="46.95904" lon="6.72074">
        <ele>899.9</ele>
      </trkpt>
      <trkpt lat="46.95915" lon="6.72102">
        <ele>905.3</ele>
      </trkpt>
      <trkpt lat="46.95933" lon="6.72139">
        <ele>913.5</ele>
      </trkpt>
      <trkpt lat="46.95948" lon="6.72168">
        <ele>920.5</ele>
      </trkpt>
      <trkpt lat="46.95952" lon="6.72177">
        <ele>921.8</ele>
      </trkpt>
      <trkpt lat="46.95959" lon="6.72189">
        <ele>925.1</ele>
      </trkpt>
      <trkpt lat="46.95966" lon="6.72201">
        <ele>927.8</ele>
      </trkpt>
      <trkpt lat="46.95984" lon="6.72224">
        <ele>937.6</ele>
      </trkpt>
      <trkpt lat="46.95989" lon="6.72227">
        <ele>940.6</ele>
      </trkpt>
      <trkpt lat="46.95996" lon="6.72237">
        <ele>943.8</ele>
      </trkpt>
      <trkpt lat="46.95999" lon="6.72251">
        <ele>944.3</ele>
      </trkpt>
      <trkpt lat="46.95999" lon="6.72264">
        <ele>943.7</ele>
      </trkpt>
      <trkpt lat="46.96002" lon="6.72276">
        <ele>944.9</ele>
      </trkpt>
      <trkpt lat="46.96002" lon="6.72285">
        <ele>944.8</ele>
      </trkpt>
      <trkpt lat="46.96005" lon="6.72307">
        <ele>946</ele>
      </trkpt>
      <trkpt lat="46.96009" lon="6.72322">
        <ele>947.9</ele>
      </trkpt>
      <trkpt lat="46.96013" lon="6.72334">
        <ele>950.9</ele>
      </trkpt>
      <trkpt lat="46.96017" lon="6.72344">
        <ele>953.4</ele>
      </trkpt>
      <trkpt lat="46.96019" lon="6.72358">
        <ele>955</ele>
      </trkpt>
      <trkpt lat="46.96018" lon="6.72369">
        <ele>954.9</ele>
      </trkpt>
      <trkpt lat="46.96019" lon="6.72378">
        <ele>955</ele>
      </trkpt>
      <trkpt lat="46.96019" lon="6.72392">
        <ele>954.9</ele>
      </trkpt>
      <trkpt lat="46.96018" lon="6.72401">
        <ele>954.5</ele>
      </trkpt>
      <trkpt lat="46.96021" lon="6.72432">
        <ele>956.5</ele>
      </trkpt>
      <trkpt lat="46.96019" lon="6.72469">
        <ele>955.2</ele>
      </trkpt>
      <trkpt lat="46.96017" lon="6.72488">
        <ele>954.2</ele>
      </trkpt>
      <trkpt lat="46.96018" lon="6.72501">
        <ele>954.8</ele>
      </trkpt>
      <trkpt lat="46.96022" lon="6.72515">
        <ele>959.1</ele>
      </trkpt>
      <trkpt lat="46.96027" lon="6.72526">
        <ele>962.6</ele>
      </trkpt>
      <trkpt lat="46.96033" lon="6.72537">
        <ele>966.6</ele>
      </trkpt>
      <trkpt lat="46.96037" lon="6.72545">
        <ele>969.1</ele>
      </trkpt>
      <trkpt lat="46.96042" lon="6.72552">
        <ele>971.5</ele>
      </trkpt>
      <trkpt lat="46.96047" lon="6.72558">
        <ele>973.9</ele>
      </trkpt>
      <trkpt lat="46.96054" lon="6.72565">
        <ele>976.9</ele>
      </trkpt>
      <trkpt lat="46.96065" lon="6.72573">
        <ele>980.9</ele>
      </trkpt>
      <trkpt lat="46.9606" lon="6.72584">
        <ele>979.2</ele>
      </trkpt>
      <trkpt lat="46.96054" lon="6.72593">
        <ele>979.1</ele>
      </trkpt>
      <trkpt lat="46.96053" lon="6.72607">
        <ele>981.5</ele>
      </trkpt>
      <trkpt lat="46.96049" lon="6.72617">
        <ele>982.7</ele>
      </trkpt>
      <trkpt lat="46.96054" lon="6.72624">
        <ele>985.6</ele>
      </trkpt>
      <trkpt lat="46.96061" lon="6.72625">
        <ele>987.5</ele>
      </trkpt>
      <trkpt lat="46.96069" lon="6.72625">
        <ele>989.4</ele>
      </trkpt>
      <trkpt lat="46.96079" lon="6.72625">
        <ele>991.9</ele>
      </trkpt>
      <trkpt lat="46.96067" lon="6.72632">
        <ele>990.2</ele>
      </trkpt>
      <trkpt lat="46.96062" lon="6.72636">
        <ele>989.8</ele>
      </trkpt>
      <trkpt lat="46.96056" lon="6.72641">
        <ele>989.5</ele>
      </trkpt>
      <trkpt lat="46.96052" lon="6.72648">
        <ele>990.1</ele>
      </trkpt>
      <trkpt lat="46.96044" lon="6.72657">
        <ele>990.6</ele>
      </trkpt>
      <trkpt lat="46.96038" lon="6.72661">
        <ele>990.7</ele>
      </trkpt>
      <trkpt lat="46.96025" lon="6.72672">
        <ele>991.5</ele>
      </trkpt>
      <trkpt lat="46.96019" lon="6.7268">
        <ele>993</ele>
      </trkpt>
      <trkpt lat="46.96013" lon="6.72685">
        <ele>993.8</ele>
      </trkpt>
      <trkpt lat="46.96009" lon="6.7269">
        <ele>994.7</ele>
      </trkpt>
      <trkpt lat="46.96007" lon="6.72695">
        <ele>996</ele>
      </trkpt>
      <trkpt lat="46.96003" lon="6.72704">
        <ele>998.2</ele>
      </trkpt>
      <trkpt lat="46.95997" lon="6.72722">
        <ele>1000.8</ele>
      </trkpt>
      <trkpt lat="46.95983" lon="6.72787">
        <ele>1004.2</ele>
      </trkpt>
      <trkpt lat="46.95971" lon="6.72852">
        <ele>1007.8</ele>
      </trkpt>
      <trkpt lat="46.95969" lon="6.72863">
        <ele>1009.2</ele>
      </trkpt>
      <trkpt lat="46.95968" lon="6.72888">
        <ele>1015.3</ele>
      </trkpt>
      <trkpt lat="46.95965" lon="6.72906">
        <ele>1017.9</ele>
      </trkpt>
      <trkpt lat="46.95964" lon="6.72918">
        <ele>1020.2</ele>
      </trkpt>
      <trkpt lat="46.95963" lon="6.72931">
        <ele>1023.7</ele>
      </trkpt>
      <trkpt lat="46.95963" lon="6.72945">
        <ele>1028</ele>
      </trkpt>
      <trkpt lat="46.95963" lon="6.72959">
        <ele>1031.9</ele>
      </trkpt>
      <trkpt lat="46.9596" lon="6.72976">
        <ele>1035.6</ele>
      </trkpt>
      <trkpt lat="46.95948" lon="6.7302">
        <ele>1044.8</ele>
      </trkpt>
      <trkpt lat="46.95939" lon="6.73048">
        <ele>1052.4</ele>
      </trkpt>
      <trkpt lat="46.95932" lon="6.73062">
        <ele>1056.6</ele>
      </trkpt>
      <trkpt lat="46.95924" lon="6.73072">
        <ele>1059.1</ele>
      </trkpt>
      <trkpt lat="46.95916" lon="6.7308">
        <ele>1060.9</ele>
      </trkpt>
      <trkpt lat="46.95911" lon="6.73101">
        <ele>1065.9</ele>
      </trkpt>
      <trkpt lat="46.95905" lon="6.73121">
        <ele>1071</ele>
      </trkpt>
      <trkpt lat="46.959" lon="6.73136">
        <ele>1074.8</ele>
      </trkpt>
      <trkpt lat="46.95897" lon="6.73145">
        <ele>1077.6</ele>
      </trkpt>
      <trkpt lat="46.95893" lon="6.73167">
        <ele>1086.6</ele>
      </trkpt>
      <trkpt lat="46.95887" lon="6.73185">
        <ele>1090.6</ele>
      </trkpt>
      <trkpt lat="46.95878" lon="6.73202">
        <ele>1094.5</ele>
      </trkpt>
      <trkpt lat="46.95875" lon="6.73212">
        <ele>1097.4</ele>
      </trkpt>
      <trkpt lat="46.95875" lon="6.73227">
        <ele>1103.2</ele>
      </trkpt>
      <trkpt lat="46.95875" lon="6.73245">
        <ele>1109.8</ele>
      </trkpt>
      <trkpt lat="46.9588" lon="6.73275">
        <ele>1115.4</ele>
      </trkpt>
      <trkpt lat="46.95876" lon="6.73288">
        <ele>1117.4</ele>
      </trkpt>
      <trkpt lat="46.95868" lon="6.73288">
        <ele>1117.5</ele>
      </trkpt>
      <trkpt lat="46.95839" lon="6.73291">
        <ele>1118.4</ele>
      </trkpt>
      <trkpt lat="46.9582" lon="6.73313">
        <ele>1116.5</ele>
      </trkpt>
      <trkpt lat="46.95816" lon="6.73318">
        <ele>1115.6</ele>
      </trkpt>
      <trkpt lat="46.95802" lon="6.73341">
        <ele>1111</ele>
      </trkpt>
      <trkpt lat="46.95788" lon="6.73358">
        <ele>1100.6</ele>
      </trkpt>
      <trkpt lat="46.95794" lon="6.73369">
        <ele>1101.5</ele>
      </trkpt>
      <trkpt lat="46.958" lon="6.73372">
        <ele>1104.2</ele>
      </trkpt>
      <trkpt lat="46.9581" lon="6.73385">
        <ele>1109</ele>
      </trkpt>
      <trkpt lat="46.95818" lon="6.73395">
        <ele>1113</ele>
      </trkpt>
      <trkpt lat="46.95831" lon="6.73423">
        <ele>1119.7</ele>
      </trkpt>
      <trkpt lat="46.95836" lon="6.73438">
        <ele>1118.7</ele>
      </trkpt>
      <trkpt lat="46.95844" lon="6.73457">
        <ele>1116.6</ele>
      </trkpt>
      <trkpt lat="46.95857" lon="6.73483">
        <ele>1115.6</ele>
      </trkpt>
      <trkpt lat="46.95868" lon="6.73511">
        <ele>1115.7</ele>
      </trkpt>
      <trkpt lat="46.95877" lon="6.73537">
        <ele>1116.1</ele>
      </trkpt>
      <trkpt lat="46.95893" lon="6.73603">
        <ele>1120.4</ele>
      </trkpt>
      <trkpt lat="46.95901" lon="6.73634">
        <ele>1124.9</ele>
      </trkpt>
      <trkpt lat="46.95913" lon="6.73671">
        <ele>1134.3</ele>
      </trkpt>
      <trkpt lat="46.95915" lon="6.7369">
        <ele>1135</ele>
      </trkpt>
      <trkpt lat="46.95917" lon="6.73701">
        <ele>1136.6</ele>
      </trkpt>
      <trkpt lat="46.95923" lon="6.73716">
        <ele>1137.2</ele>
      </trkpt>
      <trkpt lat="46.95926" lon="6.73734">
        <ele>1137.8</ele>
      </trkpt>
      <trkpt lat="46.9593" lon="6.73746">
        <ele>1138.6</ele>
      </trkpt>
      <trkpt lat="46.95942" lon="6.73765">
        <ele>1141.2</ele>
      </trkpt>
      <trkpt lat="46.95956" lon="6.73788">
        <ele>1145.6</ele>
      </trkpt>
      <trkpt lat="46.95966" lon="6.73817">
        <ele>1150.6</ele>
      </trkpt>
      <trkpt lat="46.95972" lon="6.73833">
        <ele>1153.8</ele>
      </trkpt>
      <trkpt lat="46.95972" lon="6.73845">
        <ele>1155</ele>
      </trkpt>
      <trkpt lat="46.95973" lon="6.73857">
        <ele>1156.1</ele>
      </trkpt>
      <trkpt lat="46.95971" lon="6.73865">
        <ele>1156.3</ele>
      </trkpt>
      <trkpt lat="46.95968" lon="6.73879">
        <ele>1156.2</ele>
      </trkpt>
      <trkpt lat="46.95968" lon="6.73889">
        <ele>1156.6</ele>
      </trkpt>
      <trkpt lat="46.95971" lon="6.73907">
        <ele>1159.6</ele>
      </trkpt>
      <trkpt lat="46.95988" lon="6.73939">
        <ele>1169</ele>
      </trkpt>
      <trkpt lat="46.96014" lon="6.74003">
        <ele>1176.5</ele>
      </trkpt>
      <trkpt lat="46.96035" lon="6.74045">
        <ele>1176.2</ele>
      </trkpt>
      <trkpt lat="46.96046" lon="6.7407">
        <ele>1178</ele>
      </trkpt>
      <trkpt lat="46.96053" lon="6.74084">
        <ele>1179.7</ele>
      </trkpt>
      <trkpt lat="46.96059" lon="6.74096">
        <ele>1179.9</ele>
      </trkpt>
      <trkpt lat="46.96066" lon="6.74113">
        <ele>1180.6</ele>
      </trkpt>
      <trkpt lat="46.96073" lon="6.74128">
        <ele>1181.9</ele>
      </trkpt>
      <trkpt lat="46.96078" lon="6.7414">
        <ele>1183.1</ele>
      </trkpt>
      <trkpt lat="46.96082" lon="6.7415">
        <ele>1184.7</ele>
      </trkpt>
      <trkpt lat="46.96092" lon="6.74169">
        <ele>1184</ele>
      </trkpt>
      <trkpt lat="46.96095" lon="6.74178">
        <ele>1183.1</ele>
      </trkpt>
      <trkpt lat="46.961" lon="6.74198">
        <ele>1181.9</ele>
      </trkpt>
      <trkpt lat="46.96105" lon="6.74216">
        <ele>1181.3</ele>
      </trkpt>
      <trkpt lat="46.96111" lon="6.74245">
        <ele>1181</ele>
      </trkpt>
      <trkpt lat="46.96115" lon="6.74296">
        <ele>1182.3</ele>
      </trkpt>
      <trkpt lat="46.96117" lon="6.74311">
        <ele>1183</ele>
      </trkpt>
      <trkpt lat="46.96119" lon="6.74322">
        <ele>1183.6</ele>
      </trkpt>
      <trkpt lat="46.96121" lon="6.74333">
        <ele>1184.5</ele>
      </trkpt>
      <trkpt lat="46.96127" lon="6.74351">
        <ele>1186.8</ele>
      </trkpt>
      <trkpt lat="46.96131" lon="6.74362">
        <ele>1188.5</ele>
      </trkpt>
      <trkpt lat="46.96133" lon="6.74388">
        <ele>1191.1</ele>
      </trkpt>
      <trkpt lat="46.96139" lon="6.74403">
        <ele>1194.7</ele>
      </trkpt>
      <trkpt lat="46.96149" lon="6.74425">
        <ele>1200.5</ele>
      </trkpt>
      <trkpt lat="46.96156" lon="6.74449">
        <ele>1205.1</ele>
      </trkpt>
      <trkpt lat="46.96163" lon="6.74461">
        <ele>1209.3</ele>
      </trkpt>
      <trkpt lat="46.96167" lon="6.74468">
        <ele>1212</ele>
      </trkpt>
      <trkpt lat="46.96172" lon="6.74479">
        <ele>1212.3</ele>
      </trkpt>
      <trkpt lat="46.96176" lon="6.74491">
        <ele>1212.8</ele>
      </trkpt>
      <trkpt lat="46.96179" lon="6.74497">
        <ele>1213.1</ele>
      </trkpt>
      <trkpt lat="46.96184" lon="6.74507">
        <ele>1213.5</ele>
      </trkpt>
      <trkpt lat="46.96192" lon="6.7452">
        <ele>1214.3</ele>
      </trkpt>
      <trkpt lat="46.96196" lon="6.74526">
        <ele>1214.9</ele>
      </trkpt>
      <trkpt lat="46.96202" lon="6.74541">
        <ele>1216.8</ele>
      </trkpt>
      <trkpt lat="46.96207" lon="6.74553">
        <ele>1218.8</ele>
      </trkpt>
      <trkpt lat="46.96212" lon="6.74561">
        <ele>1220.7</ele>
      </trkpt>
      <trkpt lat="46.96223" lon="6.74595">
        <ele>1226.8</ele>
      </trkpt>
      <trkpt lat="46.96227" lon="6.74607">
        <ele>1228.6</ele>
      </trkpt>
      <trkpt lat="46.96247" lon="6.74642">
        <ele>1239.5</ele>
      </trkpt>
      <trkpt lat="46.96254" lon="6.74656">
        <ele>1241.9</ele>
      </trkpt>
      <trkpt lat="46.96264" lon="6.74673">
        <ele>1240.9</ele>
      </trkpt>
      <trkpt lat="46.9627" lon="6.74686">
        <ele>1238.7</ele>
      </trkpt>
      <trkpt lat="46.96279" lon="6.74697">
        <ele>1237.1</ele>
      </trkpt>
      <trkpt lat="46.96281" lon="6.74703">
        <ele>1236.7</ele>
      </trkpt>
      <trkpt lat="46.96288" lon="6.74714">
        <ele>1236.2</ele>
      </trkpt>
      <trkpt lat="46.96294" lon="6.74724">
        <ele>1236.3</ele>
      </trkpt>
      <trkpt lat="46.96297" lon="6.7473">
        <ele>1236.5</ele>
      </trkpt>
      <trkpt lat="46.96302" lon="6.74737">
        <ele>1237</ele>
      </trkpt>
      <trkpt lat="46.96305" lon="6.74755">
        <ele>1237.3</ele>
      </trkpt>
      <trkpt lat="46.9631" lon="6.74775">
        <ele>1236.1</ele>
      </trkpt>
      <trkpt lat="46.96315" lon="6.7479">
        <ele>1235.8</ele>
      </trkpt>
      <trkpt lat="46.96318" lon="6.7481">
        <ele>1235.4</ele>
      </trkpt>
      <trkpt lat="46.96319" lon="6.74823">
        <ele>1234.6</ele>
      </trkpt>
      <trkpt lat="46.9632" lon="6.74841">
        <ele>1233.3</ele>
      </trkpt>
      <trkpt lat="46.96322" lon="6.74862">
        <ele>1231.6</ele>
      </trkpt>
      <trkpt lat="46.96325" lon="6.74876">
        <ele>1231.2</ele>
      </trkpt>
      <trkpt lat="46.9633" lon="6.74887">
        <ele>1232.5</ele>
      </trkpt>
      <trkpt lat="46.96336" lon="6.74894">
        <ele>1233.6</ele>
      </trkpt>
      <trkpt lat="46.96343" lon="6.74901">
        <ele>1233.5</ele>
      </trkpt>
      <trkpt lat="46.96351" lon="6.74907">
        <ele>1233.8</ele>
      </trkpt>
      <trkpt lat="46.96357" lon="6.74914">
        <ele>1234</ele>
      </trkpt>
      <trkpt lat="46.9636" lon="6.74923">
        <ele>1232.5</ele>
      </trkpt>
      <trkpt lat="46.96362" lon="6.74932">
        <ele>1230.5</ele>
      </trkpt>
      <trkpt lat="46.96363" lon="6.7494">
        <ele>1228.7</ele>
      </trkpt>
      <trkpt lat="46.96365" lon="6.74951">
        <ele>1226.4</ele>
      </trkpt>
      <trkpt lat="46.96369" lon="6.74961">
        <ele>1225.3</ele>
      </trkpt>
      <trkpt lat="46.96374" lon="6.7497">
        <ele>1225.2</ele>
      </trkpt>
      <trkpt lat="46.9638" lon="6.74976">
        <ele>1226.1</ele>
      </trkpt>
      <trkpt lat="46.96387" lon="6.74987">
        <ele>1227.3</ele>
      </trkpt>
      <trkpt lat="46.96395" lon="6.75">
        <ele>1229.4</ele>
      </trkpt>
      <trkpt lat="46.96402" lon="6.75008">
        <ele>1230.5</ele>
      </trkpt>
      <trkpt lat="46.96411" lon="6.7502">
        <ele>1232.4</ele>
      </trkpt>
      <trkpt lat="46.96439" lon="6.75042">
        <ele>1234.5</ele>
      </trkpt>
      <trkpt lat="46.96446" lon="6.75057">
        <ele>1234</ele>
      </trkpt>
      <trkpt lat="46.96452" lon="6.75068">
        <ele>1234.5</ele>
      </trkpt>
      <trkpt lat="46.96457" lon="6.7508">
        <ele>1235.3</ele>
      </trkpt>
      <trkpt lat="46.96462" lon="6.75096">
        <ele>1234</ele>
      </trkpt>
      <trkpt lat="46.96466" lon="6.7511">
        <ele>1232.4</ele>
      </trkpt>
      <trkpt lat="46.96474" lon="6.75122">
        <ele>1233.8</ele>
      </trkpt>
      <trkpt lat="46.96481" lon="6.75128">
        <ele>1236.5</ele>
      </trkpt>
      <trkpt lat="46.96487" lon="6.75132">
        <ele>1239.6</ele>
      </trkpt>
      <trkpt lat="46.96493" lon="6.75135">
        <ele>1243</ele>
      </trkpt>
      <trkpt lat="46.96499" lon="6.75143">
        <ele>1246</ele>
      </trkpt>
      <trkpt lat="46.96507" lon="6.75161">
        <ele>1246</ele>
      </trkpt>
      <trkpt lat="46.96516" lon="6.75173">
        <ele>1245.1</ele>
      </trkpt>
      <trkpt lat="46.96538" lon="6.75198">
        <ele>1243.3</ele>
      </trkpt>
      <trkpt lat="46.96549" lon="6.75209">
        <ele>1244.2</ele>
      </trkpt>
      <trkpt lat="46.96555" lon="6.75218">
        <ele>1245</ele>
      </trkpt>
      <trkpt lat="46.96563" lon="6.75231">
        <ele>1246</ele>
      </trkpt>
      <trkpt lat="46.96565" lon="6.75244">
        <ele>1245.6</ele>
      </trkpt>
      <trkpt lat="46.96567" lon="6.75269">
        <ele>1244.2</ele>
      </trkpt>
      <trkpt lat="46.96568" lon="6.75285">
        <ele>1243.6</ele>
      </trkpt>
      <trkpt lat="46.9657" lon="6.75297">
        <ele>1243.2</ele>
      </trkpt>
      <trkpt lat="46.96574" lon="6.75311">
        <ele>1244</ele>
      </trkpt>
      <trkpt lat="46.96581" lon="6.75322">
        <ele>1246.6</ele>
      </trkpt>
      <trkpt lat="46.96586" lon="6.75331">
        <ele>1247.3</ele>
      </trkpt>
      <trkpt lat="46.9659" lon="6.75341">
        <ele>1247</ele>
      </trkpt>
      <trkpt lat="46.96596" lon="6.75353">
        <ele>1247</ele>
      </trkpt>
      <trkpt lat="46.966" lon="6.75364">
        <ele>1247</ele>
      </trkpt>
      <trkpt lat="46.96603" lon="6.75375">
        <ele>1247</ele>
      </trkpt>
      <trkpt lat="46.96603" lon="6.75385">
        <ele>1246.8</ele>
      </trkpt>
      <trkpt lat="46.96604" lon="6.75395">
        <ele>1246.7</ele>
      </trkpt>
      <trkpt lat="46.96604" lon="6.75404">
        <ele>1246.4</ele>
      </trkpt>
      <trkpt lat="46.96603" lon="6.75418">
        <ele>1246</ele>
      </trkpt>
      <trkpt lat="46.96603" lon="6.75425">
        <ele>1245.5</ele>
      </trkpt>
      <trkpt lat="46.96607" lon="6.75447">
        <ele>1244.6</ele>
      </trkpt>
      <trkpt lat="46.96615" lon="6.75483">
        <ele>1243.5</ele>
      </trkpt>
      <trkpt lat="46.96615" lon="6.75497">
        <ele>1242.6</ele>
      </trkpt>
      <trkpt lat="46.96613" lon="6.75507">
        <ele>1240.8</ele>
      </trkpt>
      <trkpt lat="46.9661" lon="6.7552">
        <ele>1237.5</ele>
      </trkpt>
      <trkpt lat="46.96608" lon="6.75533">
        <ele>1234.7</ele>
      </trkpt>
      <trkpt lat="46.96607" lon="6.75544">
        <ele>1232.4</ele>
      </trkpt>
      <trkpt lat="46.96611" lon="6.75554">
        <ele>1231.2</ele>
      </trkpt>
      <trkpt lat="46.96617" lon="6.75562">
        <ele>1231</ele>
      </trkpt>
      <trkpt lat="46.96628" lon="6.75575">
        <ele>1231.3</ele>
      </trkpt>
      <trkpt lat="46.96637" lon="6.7559">
        <ele>1230.8</ele>
      </trkpt>
      <trkpt lat="46.96652" lon="6.75608">
        <ele>1231.8</ele>
      </trkpt>
      <trkpt lat="46.96664" lon="6.75629">
        <ele>1231.8</ele>
      </trkpt>
      <trkpt lat="46.96672" lon="6.75647">
        <ele>1229.8</ele>
      </trkpt>
      <trkpt lat="46.96679" lon="6.75672">
        <ele>1227</ele>
      </trkpt>
      <trkpt lat="46.96684" lon="6.75689">
        <ele>1226.3</ele>
      </trkpt>
      <trkpt lat="46.96689" lon="6.7571">
        <ele>1225.7</ele>
      </trkpt>
      <trkpt lat="46.96693" lon="6.75731">
        <ele>1225.2</ele>
      </trkpt>
      <trkpt lat="46.96694" lon="6.75742">
        <ele>1224.9</ele>
      </trkpt>
      <trkpt lat="46.96695" lon="6.75764">
        <ele>1225.1</ele>
      </trkpt>
      <trkpt lat="46.96695" lon="6.75774">
        <ele>1225.5</ele>
      </trkpt>
      <trkpt lat="46.96696" lon="6.75824">
        <ele>1227.2</ele>
      </trkpt>
      <trkpt lat="46.96699" lon="6.75849">
        <ele>1226.7</ele>
      </trkpt>
      <trkpt lat="46.96706" lon="6.75865">
        <ele>1226.7</ele>
      </trkpt>
      <trkpt lat="46.96714" lon="6.75877">
        <ele>1227.5</ele>
      </trkpt>
      <trkpt lat="46.96727" lon="6.75892">
        <ele>1229.7</ele>
      </trkpt>
      <trkpt lat="46.9674" lon="6.75908">
        <ele>1232.3</ele>
      </trkpt>
      <trkpt lat="46.96759" lon="6.75923">
        <ele>1233.9</ele>
      </trkpt>
      <trkpt lat="46.96768" lon="6.75932">
        <ele>1232.7</ele>
      </trkpt>
      <trkpt lat="46.96774" lon="6.75942">
        <ele>1231.9</ele>
      </trkpt>
      <trkpt lat="46.96785" lon="6.75967">
        <ele>1230.8</ele>
      </trkpt>
      <trkpt lat="46.96792" lon="6.7598">
        <ele>1230.8</ele>
      </trkpt>
      <trkpt lat="46.96797" lon="6.75989">
        <ele>1231</ele>
      </trkpt>
      <trkpt lat="46.96803" lon="6.76008">
        <ele>1231.1</ele>
      </trkpt>
      <trkpt lat="46.96809" lon="6.76024">
        <ele>1231.4</ele>
      </trkpt>
      <trkpt lat="46.96829" lon="6.76055">
        <ele>1236.6</ele>
      </trkpt>
      <trkpt lat="46.9684" lon="6.76073">
        <ele>1238.8</ele>
      </trkpt>
      <trkpt lat="46.96849" lon="6.76087">
        <ele>1238.8</ele>
      </trkpt>
      <trkpt lat="46.96855" lon="6.76098">
        <ele>1237.9</ele>
      </trkpt>
      <trkpt lat="46.96868" lon="6.76139">
        <ele>1235.6</ele>
      </trkpt>
      <trkpt lat="46.96875" lon="6.7616">
        <ele>1235.9</ele>
      </trkpt>
      <trkpt lat="46.96895" lon="6.762">
        <ele>1236.5</ele>
      </trkpt>
      <trkpt lat="46.96919" lon="6.76241">
        <ele>1240.7</ele>
      </trkpt>
      <trkpt lat="46.96929" lon="6.76256">
        <ele>1238.8</ele>
      </trkpt>
      <trkpt lat="46.9694" lon="6.76274">
        <ele>1236.3</ele>
      </trkpt>
      <trkpt lat="46.96955" lon="6.76297">
        <ele>1235.5</ele>
      </trkpt>
      <trkpt lat="46.96965" lon="6.76319">
        <ele>1235.9</ele>
      </trkpt>
      <trkpt lat="46.96975" lon="6.76333">
        <ele>1238.2</ele>
      </trkpt>
      <trkpt lat="46.96989" lon="6.76356">
        <ele>1240.7</ele>
      </trkpt>
      <trkpt lat="46.9704" lon="6.76467">
        <ele>1236.8</ele>
      </trkpt>
      <trkpt lat="46.97046" lon="6.76486">
        <ele>1237.2</ele>
      </trkpt>
      <trkpt lat="46.9705" lon="6.76501">
        <ele>1237.8</ele>
      </trkpt>
      <trkpt lat="46.97056" lon="6.76527">
        <ele>1236.4</ele>
      </trkpt>
      <trkpt lat="46.97063" lon="6.76544">
        <ele>1237.3</ele>
      </trkpt>
      <trkpt lat="46.97075" lon="6.76574">
        <ele>1241</ele>
      </trkpt>
      <trkpt lat="46.97086" lon="6.76602">
        <ele>1240.8</ele>
      </trkpt>
      <trkpt lat="46.97126" lon="6.76693">
        <ele>1231.2</ele>
      </trkpt>
      <trkpt lat="46.97132" lon="6.76711">
        <ele>1231.5</ele>
      </trkpt>
      <trkpt lat="46.9714" lon="6.76738">
        <ele>1232.6</ele>
      </trkpt>
      <trkpt lat="46.97153" lon="6.76795">
        <ele>1235.4</ele>
      </trkpt>
      <trkpt lat="46.97158" lon="6.76808">
        <ele>1238.9</ele>
      </trkpt>
      <trkpt lat="46.97174" lon="6.76837">
        <ele>1244.4</ele>
      </trkpt>
      <trkpt lat="46.9719" lon="6.76864">
        <ele>1238.7</ele>
      </trkpt>
      <trkpt lat="46.97219" lon="6.76907">
        <ele>1238.9</ele>
      </trkpt>
      <trkpt lat="46.97255" lon="6.76978">
        <ele>1243</ele>
      </trkpt>
      <trkpt lat="46.97266" lon="6.77011">
        <ele>1237.8</ele>
      </trkpt>
      <trkpt lat="46.97272" lon="6.77044">
        <ele>1231.5</ele>
      </trkpt>
      <trkpt lat="46.97275" lon="6.77066">
        <ele>1228</ele>
      </trkpt>
      <trkpt lat="46.97282" lon="6.77104">
        <ele>1221.9</ele>
      </trkpt>
      <trkpt lat="46.97292" lon="6.77159">
        <ele>1215.3</ele>
      </trkpt>
      <trkpt lat="46.97299" lon="6.77194">
        <ele>1212.9</ele>
      </trkpt>
      <trkpt lat="46.97304" lon="6.77228">
        <ele>1210.1</ele>
      </trkpt>
      <trkpt lat="46.97314" lon="6.77263">
        <ele>1211.9</ele>
      </trkpt>
      <trkpt lat="46.97317" lon="6.77275">
        <ele>1214</ele>
      </trkpt>
      <trkpt lat="46.97319" lon="6.77283">
        <ele>1215.2</ele>
      </trkpt>
      <trkpt lat="46.9732" lon="6.77295">
        <ele>1215.6</ele>
      </trkpt>
      <trkpt lat="46.9732" lon="6.77322">
        <ele>1214.8</ele>
      </trkpt>
      <trkpt lat="46.97321" lon="6.77339">
        <ele>1215.7</ele>
      </trkpt>
      <trkpt lat="46.97328" lon="6.77363">
        <ele>1221.5</ele>
      </trkpt>
      <trkpt lat="46.97335" lon="6.77395">
        <ele>1226.4</ele>
      </trkpt>
      <trkpt lat="46.97344" lon="6.77443">
        <ele>1224.1</ele>
      </trkpt>
      <trkpt lat="46.97349" lon="6.77458">
        <ele>1223</ele>
      </trkpt>
      <trkpt lat="46.97359" lon="6.77493">
        <ele>1221.1</ele>
      </trkpt>
      <trkpt lat="46.9736" lon="6.77504">
        <ele>1220.7</ele>
      </trkpt>
      <trkpt lat="46.97361" lon="6.77526">
        <ele>1220.2</ele>
      </trkpt>
      <trkpt lat="46.97361" lon="6.7755">
        <ele>1219.4</ele>
      </trkpt>
      <trkpt lat="46.97362" lon="6.77562">
        <ele>1219.4</ele>
      </trkpt>
      <trkpt lat="46.97373" lon="6.77596">
        <ele>1223.6</ele>
      </trkpt>
      <trkpt lat="46.97384" lon="6.77632">
        <ele>1231.5</ele>
      </trkpt>
      <trkpt lat="46.97399" lon="6.77681">
        <ele>1240.9</ele>
      </trkpt>
      <trkpt lat="46.97412" lon="6.77719">
        <ele>1245.6</ele>
      </trkpt>
      <trkpt lat="46.97416" lon="6.77736">
        <ele>1247.2</ele>
      </trkpt>
      <trkpt lat="46.97419" lon="6.77748">
        <ele>1247</ele>
      </trkpt>
      <trkpt lat="46.97421" lon="6.77765">
        <ele>1245.9</ele>
      </trkpt>
      <trkpt lat="46.97425" lon="6.77779">
        <ele>1245.1</ele>
      </trkpt>
      <trkpt lat="46.97436" lon="6.77801">
        <ele>1244.7</ele>
      </trkpt>
      <trkpt lat="46.97452" lon="6.77839">
        <ele>1245.8</ele>
      </trkpt>
      <trkpt lat="46.97466" lon="6.77885">
        <ele>1247.8</ele>
      </trkpt>
      <trkpt lat="46.97472" lon="6.77915">
        <ele>1249.9</ele>
      </trkpt>
      <trkpt lat="46.97479" lon="6.77929">
        <ele>1251.9</ele>
      </trkpt>
      <trkpt lat="46.97486" lon="6.7794">
        <ele>1254.3</ele>
      </trkpt>
      <trkpt lat="46.97496" lon="6.77958">
        <ele>1258.8</ele>
      </trkpt>
      <trkpt lat="46.97505" lon="6.7798">
        <ele>1260.4</ele>
      </trkpt>
      <trkpt lat="46.97511" lon="6.78004">
        <ele>1260.1</ele>
      </trkpt>
      <trkpt lat="46.97513" lon="6.7802">
        <ele>1259.1</ele>
      </trkpt>
      <trkpt lat="46.97515" lon="6.78038">
        <ele>1258.1</ele>
      </trkpt>
      <trkpt lat="46.97516" lon="6.78054">
        <ele>1257.4</ele>
      </trkpt>
      <trkpt lat="46.97519" lon="6.78082">
        <ele>1256.4</ele>
      </trkpt>
      <trkpt lat="46.97525" lon="6.78099">
        <ele>1256.2</ele>
      </trkpt>
      <trkpt lat="46.9753" lon="6.7812">
        <ele>1256.4</ele>
      </trkpt>
      <trkpt lat="46.97532" lon="6.78132">
        <ele>1256.4</ele>
      </trkpt>
      <trkpt lat="46.97535" lon="6.78151">
        <ele>1256.7</ele>
      </trkpt>
      <trkpt lat="46.9754" lon="6.78167">
        <ele>1258</ele>
      </trkpt>
      <trkpt lat="46.97544" lon="6.78176">
        <ele>1258.6</ele>
      </trkpt>
      <trkpt lat="46.97549" lon="6.78187">
        <ele>1260</ele>
      </trkpt>
      <trkpt lat="46.97552" lon="6.78196">
        <ele>1260.5</ele>
      </trkpt>
      <trkpt lat="46.97554" lon="6.78206">
        <ele>1260.7</ele>
      </trkpt>
      <trkpt lat="46.97555" lon="6.78217">
        <ele>1260.8</ele>
      </trkpt>
      <trkpt lat="46.97554" lon="6.78235">
        <ele>1259.9</ele>
      </trkpt>
      <trkpt lat="46.97555" lon="6.78247">
        <ele>1259.8</ele>
      </trkpt>
      <trkpt lat="46.97556" lon="6.78257">
        <ele>1259.1</ele>
      </trkpt>
      <trkpt lat="46.97561" lon="6.78266">
        <ele>1260.4</ele>
      </trkpt>
      <trkpt lat="46.97569" lon="6.78275">
        <ele>1263.5</ele>
      </trkpt>
      <trkpt lat="46.97572" lon="6.78282">
        <ele>1264.2</ele>
      </trkpt>
      <trkpt lat="46.97574" lon="6.78289">
        <ele>1263.8</ele>
      </trkpt>
      <trkpt lat="46.97575" lon="6.78299">
        <ele>1263.1</ele>
      </trkpt>
      <trkpt lat="46.97577" lon="6.78314">
        <ele>1262</ele>
      </trkpt>
      <trkpt lat="46.9758" lon="6.7832">
        <ele>1262.9</ele>
      </trkpt>
      <trkpt lat="46.97585" lon="6.78326">
        <ele>1263.9</ele>
      </trkpt>
      <trkpt lat="46.97589" lon="6.78335">
        <ele>1262.3</ele>
      </trkpt>
      <trkpt lat="46.97593" lon="6.78343">
        <ele>1261</ele>
      </trkpt>
      <trkpt lat="46.97603" lon="6.78361">
        <ele>1258.8</ele>
      </trkpt>
      <trkpt lat="46.97608" lon="6.78372">
        <ele>1257.8</ele>
      </trkpt>
      <trkpt lat="46.97608" lon="6.78385">
        <ele>1256.8</ele>
      </trkpt>
      <trkpt lat="46.97609" lon="6.78396">
        <ele>1256</ele>
      </trkpt>
      <trkpt lat="46.97611" lon="6.78406">
        <ele>1255.4</ele>
      </trkpt>
      <trkpt lat="46.97612" lon="6.78416">
        <ele>1254.8</ele>
      </trkpt>
      <trkpt lat="46.97611" lon="6.78426">
        <ele>1254.6</ele>
      </trkpt>
      <trkpt lat="46.97608" lon="6.78439">
        <ele>1253.8</ele>
      </trkpt>
      <trkpt lat="46.97606" lon="6.78453">
        <ele>1253.1</ele>
      </trkpt>
      <trkpt lat="46.97605" lon="6.78464">
        <ele>1252.7</ele>
      </trkpt>
      <trkpt lat="46.97607" lon="6.78479">
        <ele>1252.7</ele>
      </trkpt>
      <trkpt lat="46.97609" lon="6.78486">
        <ele>1253.1</ele>
      </trkpt>
      <trkpt lat="46.97611" lon="6.78496">
        <ele>1253.4</ele>
      </trkpt>
      <trkpt lat="46.97613" lon="6.78507">
        <ele>1253.7</ele>
      </trkpt>
      <trkpt lat="46.97616" lon="6.78513">
        <ele>1254.4</ele>
      </trkpt>
      <trkpt lat="46.97622" lon="6.78523">
        <ele>1255.8</ele>
      </trkpt>
      <trkpt lat="46.97623" lon="6.7854">
        <ele>1256.1</ele>
      </trkpt>
      <trkpt lat="46.97623" lon="6.78547">
        <ele>1256.1</ele>
      </trkpt>
      <trkpt lat="46.97622" lon="6.78558">
        <ele>1255.3</ele>
      </trkpt>
      <trkpt lat="46.97621" lon="6.78566">
        <ele>1254.9</ele>
      </trkpt>
      <trkpt lat="46.97619" lon="6.78574">
        <ele>1254</ele>
      </trkpt>
      <trkpt lat="46.97618" lon="6.7858">
        <ele>1253.5</ele>
      </trkpt>
      <trkpt lat="46.97614" lon="6.78591">
        <ele>1252.6</ele>
      </trkpt>
      <trkpt lat="46.97612" lon="6.78601">
        <ele>1253.1</ele>
      </trkpt>
      <trkpt lat="46.97612" lon="6.78608">
        <ele>1254.2</ele>
      </trkpt>
      <trkpt lat="46.97614" lon="6.78617">
        <ele>1256.3</ele>
      </trkpt>
      <trkpt lat="46.97617" lon="6.7863">
        <ele>1259.5</ele>
      </trkpt>
      <trkpt lat="46.97619" lon="6.78645">
        <ele>1262.2</ele>
      </trkpt>
      <trkpt lat="46.97618" lon="6.78655">
        <ele>1263.6</ele>
      </trkpt>
      <trkpt lat="46.97618" lon="6.78662">
        <ele>1264.4</ele>
      </trkpt>
      <trkpt lat="46.97615" lon="6.78672">
        <ele>1264.6</ele>
      </trkpt>
      <trkpt lat="46.97614" lon="6.787">
        <ele>1266.7</ele>
      </trkpt>
      <trkpt lat="46.97613" lon="6.78712">
        <ele>1267.6</ele>
      </trkpt>
      <trkpt lat="46.97613" lon="6.78721">
        <ele>1268.3</ele>
      </trkpt>
      <trkpt lat="46.97612" lon="6.78727">
        <ele>1268.6</ele>
      </trkpt>
      <trkpt lat="46.97609" lon="6.78734">
        <ele>1268.4</ele>
      </trkpt>
      <trkpt lat="46.97605" lon="6.78742">
        <ele>1267.5</ele>
      </trkpt>
      <trkpt lat="46.97599" lon="6.78749">
        <ele>1266.3</ele>
      </trkpt>
      <trkpt lat="46.97594" lon="6.78755">
        <ele>1265.6</ele>
      </trkpt>
      <trkpt lat="46.9759" lon="6.7876">
        <ele>1264.9</ele>
      </trkpt>
      <trkpt lat="46.97582" lon="6.78769">
        <ele>1262.2</ele>
      </trkpt>
      <trkpt lat="46.97577" lon="6.78794">
        <ele>1262.5</ele>
      </trkpt>
      <trkpt lat="46.97574" lon="6.78802">
        <ele>1260.6</ele>
      </trkpt>
      <trkpt lat="46.9757" lon="6.78806">
        <ele>1257.9</ele>
      </trkpt>
      <trkpt lat="46.97564" lon="6.78814">
        <ele>1254.7</ele>
      </trkpt>
      <trkpt lat="46.97561" lon="6.78824">
        <ele>1253.7</ele>
      </trkpt>
      <trkpt lat="46.97559" lon="6.7883">
        <ele>1253.3</ele>
      </trkpt>
      <trkpt lat="46.97557" lon="6.78837">
        <ele>1253.3</ele>
      </trkpt>
      <trkpt lat="46.97554" lon="6.78853">
        <ele>1253.6</ele>
      </trkpt>
      <trkpt lat="46.97553" lon="6.78862">
        <ele>1254.8</ele>
      </trkpt>
      <trkpt lat="46.97554" lon="6.78874">
        <ele>1257.5</ele>
      </trkpt>
      <trkpt lat="46.97557" lon="6.78891">
        <ele>1263.1</ele>
      </trkpt>
      <trkpt lat="46.9756" lon="6.78905">
        <ele>1267.9</ele>
      </trkpt>
      <trkpt lat="46.97562" lon="6.78918">
        <ele>1270.6</ele>
      </trkpt>
      <trkpt lat="46.97565" lon="6.7893">
        <ele>1272.4</ele>
      </trkpt>
      <trkpt lat="46.97561" lon="6.78942">
        <ele>1270.1</ele>
      </trkpt>
      <trkpt lat="46.97556" lon="6.78946">
        <ele>1267.3</ele>
      </trkpt>
      <trkpt lat="46.9755" lon="6.78953">
        <ele>1264.4</ele>
      </trkpt>
      <trkpt lat="46.97544" lon="6.78961">
        <ele>1261.8</ele>
      </trkpt>
      <trkpt lat="46.97538" lon="6.78968">
        <ele>1259.6</ele>
      </trkpt>
      <trkpt lat="46.97533" lon="6.78974">
        <ele>1257.8</ele>
      </trkpt>
      <trkpt lat="46.97527" lon="6.78981">
        <ele>1256.3</ele>
      </trkpt>
      <trkpt lat="46.97523" lon="6.78993">
        <ele>1256.4</ele>
      </trkpt>
      <trkpt lat="46.97522" lon="6.79001">
        <ele>1257.1</ele>
      </trkpt>
      <trkpt lat="46.97523" lon="6.79008">
        <ele>1257.2</ele>
      </trkpt>
      <trkpt lat="46.97522" lon="6.79029">
        <ele>1256.2</ele>
      </trkpt>
      <trkpt lat="46.97528" lon="6.79041">
        <ele>1257.4</ele>
      </trkpt>
      <trkpt lat="46.9753" lon="6.79047">
        <ele>1257.7</ele>
      </trkpt>
      <trkpt lat="46.97533" lon="6.79055">
        <ele>1258.2</ele>
      </trkpt>
      <trkpt lat="46.97539" lon="6.79058">
        <ele>1259.7</ele>
      </trkpt>
      <trkpt lat="46.97549" lon="6.79057">
        <ele>1262.4</ele>
      </trkpt>
      <trkpt lat="46.97562" lon="6.79058">
        <ele>1265.3</ele>
      </trkpt>
      <trkpt lat="46.97576" lon="6.79062">
        <ele>1268.5</ele>
      </trkpt>
      <trkpt lat="46.97584" lon="6.79067">
        <ele>1269.8</ele>
      </trkpt>
      <trkpt lat="46.97589" lon="6.79073">
        <ele>1269.3</ele>
      </trkpt>
      <trkpt lat="46.97592" lon="6.79076">
        <ele>1269</ele>
      </trkpt>
      <trkpt lat="46.97599" lon="6.79083">
        <ele>1268.4</ele>
      </trkpt>
      <trkpt lat="46.97602" lon="6.79088">
        <ele>1266.5</ele>
      </trkpt>
      <trkpt lat="46.97607" lon="6.79094">
        <ele>1264.1</ele>
      </trkpt>
      <trkpt lat="46.9761" lon="6.79098">
        <ele>1262.7</ele>
      </trkpt>
      <trkpt lat="46.97619" lon="6.79105">
        <ele>1260.7</ele>
      </trkpt>
      <trkpt lat="46.97627" lon="6.79112">
        <ele>1259</ele>
      </trkpt>
      <trkpt lat="46.9764" lon="6.79121">
        <ele>1257.6</ele>
      </trkpt>
      <trkpt lat="46.97652" lon="6.79125">
        <ele>1257.9</ele>
      </trkpt>
      <trkpt lat="46.9766" lon="6.79127">
        <ele>1258.5</ele>
      </trkpt>
      <trkpt lat="46.9767" lon="6.79128">
        <ele>1259.3</ele>
      </trkpt>
      <trkpt lat="46.97677" lon="6.79132">
        <ele>1258.6</ele>
      </trkpt>
      <trkpt lat="46.97686" lon="6.7914">
        <ele>1257</ele>
      </trkpt>
      <trkpt lat="46.97695" lon="6.79146">
        <ele>1256.4</ele>
      </trkpt>
      <trkpt lat="46.97719" lon="6.79119">
        <ele>1261.5</ele>
      </trkpt>
      <trkpt lat="46.97735" lon="6.79101">
        <ele>1263.7</ele>
      </trkpt>
      <trkpt lat="46.97741" lon="6.79096">
        <ele>1264.2</ele>
      </trkpt>
      <trkpt lat="46.97744" lon="6.79094">
        <ele>1264.2</ele>
      </trkpt>
      <trkpt lat="46.97748" lon="6.79092">
        <ele>1264.2</ele>
      </trkpt>
      <trkpt lat="46.97762" lon="6.79088">
        <ele>1264</ele>
      </trkpt>
      <trkpt lat="46.97789" lon="6.79074">
        <ele>1264.1</ele>
      </trkpt>
      <trkpt lat="46.97798" lon="6.79074">
        <ele>1263.5</ele>
      </trkpt>
      <trkpt lat="46.97805" lon="6.79075">
        <ele>1263.1</ele>
      </trkpt>
      <trkpt lat="46.97835" lon="6.79079">
        <ele>1260.9</ele>
      </trkpt>
      <trkpt lat="46.97841" lon="6.79081">
        <ele>1259.6</ele>
      </trkpt>
      <trkpt lat="46.97851" lon="6.79084">
        <ele>1257.6</ele>
      </trkpt>
      <trkpt lat="46.97857" lon="6.79089">
        <ele>1256.5</ele>
      </trkpt>
      <trkpt lat="46.9786" lon="6.79096">
        <ele>1255.8</ele>
      </trkpt>
      <trkpt lat="46.97865" lon="6.79104">
        <ele>1254.7</ele>
      </trkpt>
      <trkpt lat="46.97878" lon="6.79119">
        <ele>1252</ele>
      </trkpt>
      <trkpt lat="46.97883" lon="6.79124">
        <ele>1250.8</ele>
      </trkpt>
      <trkpt lat="46.97888" lon="6.79133">
        <ele>1249.6</ele>
      </trkpt>
      <trkpt lat="46.97895" lon="6.7914">
        <ele>1248.1</ele>
      </trkpt>
      <trkpt lat="46.97902" lon="6.79144">
        <ele>1246.5</ele>
      </trkpt>
      <trkpt lat="46.97909" lon="6.79149">
        <ele>1245</ele>
      </trkpt>
      <trkpt lat="46.97923" lon="6.79157">
        <ele>1241.6</ele>
      </trkpt>
      <trkpt lat="46.97929" lon="6.7916">
        <ele>1240.1</ele>
      </trkpt>
      <trkpt lat="46.97934" lon="6.79161">
        <ele>1238.8</ele>
      </trkpt>
      <trkpt lat="46.97942" lon="6.79162">
        <ele>1236.7</ele>
      </trkpt>
      <trkpt lat="46.97952" lon="6.79157">
        <ele>1234.4</ele>
      </trkpt>
      <trkpt lat="46.97964" lon="6.79147">
        <ele>1231.3</ele>
      </trkpt>
      <trkpt lat="46.97973" lon="6.79147">
        <ele>1229</ele>
      </trkpt>
      <trkpt lat="46.97978" lon="6.79146">
        <ele>1227.8</ele>
      </trkpt>
      <trkpt lat="46.97982" lon="6.79141">
        <ele>1226.6</ele>
      </trkpt>
      <trkpt lat="46.97988" lon="6.79134">
        <ele>1225.1</ele>
      </trkpt>
      <trkpt lat="46.97996" lon="6.79127">
        <ele>1223.1</ele>
      </trkpt>
      <trkpt lat="46.98001" lon="6.79124">
        <ele>1221.8</ele>
      </trkpt>
      <trkpt lat="46.9801" lon="6.79122">
        <ele>1220.2</ele>
      </trkpt>
      <trkpt lat="46.98018" lon="6.79121">
        <ele>1218.5</ele>
      </trkpt>
      <trkpt lat="46.98042" lon="6.7913">
        <ele>1213.9</ele>
      </trkpt>
      <trkpt lat="46.98056" lon="6.79137">
        <ele>1211.2</ele>
      </trkpt>
      <trkpt lat="46.98073" lon="6.79144">
        <ele>1208.1</ele>
      </trkpt>
      <trkpt lat="46.98079" lon="6.79146">
        <ele>1206.8</ele>
      </trkpt>
      <trkpt lat="46.98087" lon="6.7915">
        <ele>1205.6</ele>
      </trkpt>
      <trkpt lat="46.98094" lon="6.79155">
        <ele>1204.8</ele>
      </trkpt>
      <trkpt lat="46.98099" lon="6.79158">
        <ele>1204.2</ele>
      </trkpt>
      <trkpt lat="46.98104" lon="6.79162">
        <ele>1203.6</ele>
      </trkpt>
      <trkpt lat="46.98111" lon="6.79165">
        <ele>1202.7</ele>
      </trkpt>
      <trkpt lat="46.98122" lon="6.79167">
        <ele>1201.4</ele>
      </trkpt>
      <trkpt lat="46.98131" lon="6.79164">
        <ele>1200.4</ele>
      </trkpt>
      <trkpt lat="46.98149" lon="6.79167">
        <ele>1198.2</ele>
      </trkpt>
      <trkpt lat="46.98159" lon="6.79171">
        <ele>1196.6</ele>
      </trkpt>
      <trkpt lat="46.98167" lon="6.79174">
        <ele>1195.4</ele>
      </trkpt>
      <trkpt lat="46.98171" lon="6.79176">
        <ele>1194.1</ele>
      </trkpt>
      <trkpt lat="46.98178" lon="6.79178">
        <ele>1192.1</ele>
      </trkpt>
      <trkpt lat="46.98188" lon="6.79182">
        <ele>1189.2</ele>
      </trkpt>
      <trkpt lat="46.98196" lon="6.79183">
        <ele>1186.9</ele>
      </trkpt>
      <trkpt lat="46.98206" lon="6.79183">
        <ele>1184.1</ele>
      </trkpt>
      <trkpt lat="46.98221" lon="6.79179">
        <ele>1180.3</ele>
      </trkpt>
      <trkpt lat="46.98254" lon="6.79177">
        <ele>1171.8</ele>
      </trkpt>
      <trkpt lat="46.98267" lon="6.79177">
        <ele>1168.8</ele>
      </trkpt>
      <trkpt lat="46.98279" lon="6.79174">
        <ele>1166.1</ele>
      </trkpt>
      <trkpt lat="46.98287" lon="6.79171">
        <ele>1164.5</ele>
      </trkpt>
      <trkpt lat="46.98298" lon="6.79171">
        <ele>1162.1</ele>
      </trkpt>
      <trkpt lat="46.98344" lon="6.79172">
        <ele>1152.8</ele>
      </trkpt>
      <trkpt lat="46.98401" lon="6.79153">
        <ele>1147.7</ele>
      </trkpt>
      <trkpt lat="46.98407" lon="6.79155">
        <ele>1147.1</ele>
      </trkpt>
      <trkpt lat="46.98438" lon="6.79147">
        <ele>1146</ele>
      </trkpt>
      <trkpt lat="46.98446" lon="6.79145">
        <ele>1145.9</ele>
      </trkpt>
      <trkpt lat="46.98461" lon="6.79142">
        <ele>1145.6</ele>
      </trkpt>
      <trkpt lat="46.9847" lon="6.79139">
        <ele>1145.4</ele>
      </trkpt>
      <trkpt lat="46.98491" lon="6.79133">
        <ele>1144.8</ele>
      </trkpt>
      <trkpt lat="46.98509" lon="6.79128">
        <ele>1144.4</ele>
      </trkpt>
      <trkpt lat="46.98514" lon="6.79126">
        <ele>1144.3</ele>
      </trkpt>
      <trkpt lat="46.9852" lon="6.79124">
        <ele>1144.1</ele>
      </trkpt>
      <trkpt lat="46.98537" lon="6.79111">
        <ele>1143.7</ele>
      </trkpt>
      <trkpt lat="46.98549" lon="6.79107">
        <ele>1143.5</ele>
      </trkpt>
      <trkpt lat="46.98555" lon="6.79106">
        <ele>1143.4</ele>
      </trkpt>
      <trkpt lat="46.98584" lon="6.79097">
        <ele>1143</ele>
      </trkpt>
      <trkpt lat="46.98592" lon="6.79097">
        <ele>1142.5</ele>
      </trkpt>
      <trkpt lat="46.986" lon="6.791">
        <ele>1142</ele>
      </trkpt>
      <trkpt lat="46.98606" lon="6.79106">
        <ele>1141.6</ele>
      </trkpt>
      <trkpt lat="46.98612" lon="6.79114">
        <ele>1141.2</ele>
      </trkpt>
      <trkpt lat="46.98616" lon="6.79121">
        <ele>1140.8</ele>
      </trkpt>
      <trkpt lat="46.98624" lon="6.79134">
        <ele>1140.3</ele>
      </trkpt>
      <trkpt lat="46.98627" lon="6.7914">
        <ele>1140</ele>
      </trkpt>
      <trkpt lat="46.9863" lon="6.79141">
        <ele>1139.8</ele>
      </trkpt>
      <trkpt lat="46.98635" lon="6.79143">
        <ele>1139.5</ele>
      </trkpt>
      <trkpt lat="46.98653" lon="6.79144">
        <ele>1138.2</ele>
      </trkpt>
      <trkpt lat="46.98683" lon="6.7915">
        <ele>1136.1</ele>
      </trkpt>
      <trkpt lat="46.98688" lon="6.79156">
        <ele>1135.6</ele>
      </trkpt>
      <trkpt lat="46.9872" lon="6.79172">
        <ele>1133.1</ele>
      </trkpt>
      <trkpt lat="46.98744" lon="6.79188">
        <ele>1131.4</ele>
      </trkpt>
      <trkpt lat="46.98747" lon="6.79187">
        <ele>1131.2</ele>
      </trkpt>
      <trkpt lat="46.98756" lon="6.7919">
        <ele>1131.2</ele>
      </trkpt>
      <trkpt lat="46.98762" lon="6.79218">
        <ele>1131.2</ele>
      </trkpt>
      <trkpt lat="46.98772" lon="6.7923">
        <ele>1131.2</ele>
      </trkpt>
      <trkpt lat="46.98777" lon="6.79234">
        <ele>1131.2</ele>
      </trkpt>
      <trkpt lat="46.98782" lon="6.79235">
        <ele>1131.2</ele>
      </trkpt>
      <trkpt lat="46.988" lon="6.79226">
        <ele>1131.5</ele>
      </trkpt>
      <trkpt lat="46.98805" lon="6.79221">
        <ele>1131.7</ele>
      </trkpt>
      <trkpt lat="46.9882" lon="6.79204">
        <ele>1132.4</ele>
      </trkpt>
      <trkpt lat="46.98836" lon="6.79193">
        <ele>1133.3</ele>
      </trkpt>
      <trkpt lat="46.98907" lon="6.79115">
        <ele>1147.6</ele>
      </trkpt>
      <trkpt lat="46.98926" lon="6.79096">
        <ele>1152.8</ele>
      </trkpt>
      <trkpt lat="46.98954" lon="6.79089">
        <ele>1158.7</ele>
      </trkpt>
      <trkpt lat="46.98998" lon="6.79097">
        <ele>1166.8</ele>
      </trkpt>
      <trkpt lat="46.99031" lon="6.79128">
        <ele>1172.7</ele>
      </trkpt>
      <trkpt lat="46.99064" lon="6.79173">
        <ele>1177</ele>
      </trkpt>
      <trkpt lat="46.99092" lon="6.79173">
        <ele>1183.4</ele>
      </trkpt>
      <trkpt lat="46.99133" lon="6.79137">
        <ele>1195.3</ele>
      </trkpt>
      <trkpt lat="46.99167" lon="6.79081">
        <ele>1205.1</ele>
      </trkpt>
      <trkpt lat="46.99162" lon="6.79005">
        <ele>1206</ele>
      </trkpt>
      <trkpt lat="46.99202" lon="6.78925">
        <ele>1215.1</ele>
      </trkpt>
      <trkpt lat="46.9924" lon="6.78917">
        <ele>1219.8</ele>
      </trkpt>
      <trkpt lat="46.99244" lon="6.78938">
        <ele>1220.6</ele>
      </trkpt>
      <trkpt lat="46.99256" lon="6.78965">
        <ele>1223.4</ele>
      </trkpt>
      <trkpt lat="46.9929" lon="6.79027">
        <ele>1231.9</ele>
      </trkpt>
      <trkpt lat="46.99302" lon="6.79085">
        <ele>1234.1</ele>
      </trkpt>
      <trkpt lat="46.9931" lon="6.79103">
        <ele>1235.5</ele>
      </trkpt>
      <trkpt lat="46.99329" lon="6.79116">
        <ele>1239.3</ele>
      </trkpt>
      <trkpt lat="46.99395" lon="6.79144">
        <ele>1247.2</ele>
      </trkpt>
      <trkpt lat="46.99489" lon="6.79183">
        <ele>1250.9</ele>
      </trkpt>
      <trkpt lat="46.99521" lon="6.79189">
        <ele>1250.6</ele>
      </trkpt>
      <trkpt lat="46.99531" lon="6.79179">
        <ele>1250.6</ele>
      </trkpt>
      <trkpt lat="46.99538" lon="6.79156">
        <ele>1251.2</ele>
      </trkpt>
      <trkpt lat="46.99575" lon="6.79109">
        <ele>1252.1</ele>
      </trkpt>
      <trkpt lat="46.99579" lon="6.79075">
        <ele>1253.3</ele>
      </trkpt>
      <trkpt lat="46.99584" lon="6.7906">
        <ele>1253.3</ele>
      </trkpt>
      <trkpt lat="46.99635" lon="6.7907">
        <ele>1256.5</ele>
      </trkpt>
      <trkpt lat="46.9964" lon="6.79077">
        <ele>1256.6</ele>
      </trkpt>
      <trkpt lat="46.9965" lon="6.79086">
        <ele>1256.9</ele>
      </trkpt>
      <trkpt lat="46.99696" lon="6.79113">
        <ele>1259.3</ele>
      </trkpt>
      <trkpt lat="46.99711" lon="6.7912">
        <ele>1260.2</ele>
      </trkpt>
      <trkpt lat="46.99727" lon="6.79145">
        <ele>1260.3</ele>
      </trkpt>
      <trkpt lat="46.99754" lon="6.79191">
        <ele>1262</ele>
      </trkpt>
      <trkpt lat="46.99784" lon="6.79248">
        <ele>1264.4</ele>
      </trkpt>
      <trkpt lat="46.99816" lon="6.79293">
        <ele>1267.2</ele>
      </trkpt>
      <trkpt lat="46.9984" lon="6.79329">
        <ele>1268.9</ele>
      </trkpt>
      <trkpt lat="46.99858" lon="6.79355">
        <ele>1269.8</ele>
      </trkpt>
      <trkpt lat="46.99878" lon="6.79379">
        <ele>1269.7</ele>
      </trkpt>
      <trkpt lat="46.99939" lon="6.79421">
        <ele>1267.8</ele>
      </trkpt>
      <trkpt lat="47.00114" lon="6.79667">
        <ele>1274.5</ele>
      </trkpt>
      <trkpt lat="47.00215" lon="6.79834">
        <ele>1279</ele>
      </trkpt>
      <trkpt lat="47.00261" lon="6.79892">
        <ele>1270.2</ele>
      </trkpt>
      <trkpt lat="47.00264" lon="6.79904">
        <ele>1268.4</ele>
      </trkpt>
      <trkpt lat="47.00292" lon="6.79902">
        <ele>1265.3</ele>
      </trkpt>
      <trkpt lat="47.00333" lon="6.79883">
        <ele>1264.4</ele>
      </trkpt>
      <trkpt lat="47.00364" lon="6.7986">
        <ele>1262.3</ele>
      </trkpt>
      <trkpt lat="47.00418" lon="6.79853">
        <ele>1252.5</ele>
      </trkpt>
      <trkpt lat="47.00444" lon="6.79866">
        <ele>1246.7</ele>
      </trkpt>
      <trkpt lat="47.00456" lon="6.7989">
        <ele>1239.8</ele>
      </trkpt>
      <trkpt lat="47.00455" lon="6.79925">
        <ele>1232.7</ele>
      </trkpt>
      <trkpt lat="47.00424" lon="6.79998">
        <ele>1229.9</ele>
      </trkpt>
      <trkpt lat="47.00406" lon="6.80029">
        <ele>1235.8</ele>
      </trkpt>
      <trkpt lat="47.00401" lon="6.80041">
        <ele>1238.3</ele>
      </trkpt>
      <trkpt lat="47.00482" lon="6.80053">
        <ele>1237.9</ele>
      </trkpt>
      <trkpt lat="47.00516" lon="6.80067">
        <ele>1239.7</ele>
      </trkpt>
      <trkpt lat="47.00539" lon="6.80078">
        <ele>1241.3</ele>
      </trkpt>
      <trkpt lat="47.00591" lon="6.80104">
        <ele>1245.9</ele>
      </trkpt>
      <trkpt lat="47.00647" lon="6.80126">
        <ele>1248.6</ele>
      </trkpt>
      <trkpt lat="47.00685" lon="6.80133">
        <ele>1248.5</ele>
      </trkpt>
      <trkpt lat="47.00694" lon="6.80137">
        <ele>1248.8</ele>
      </trkpt>
      <trkpt lat="47.00706" lon="6.80144">
        <ele>1249.4</ele>
      </trkpt>
      <trkpt lat="47.00714" lon="6.80147">
        <ele>1249.5</ele>
      </trkpt>
      <trkpt lat="47.00723" lon="6.80148">
        <ele>1249.4</ele>
      </trkpt>
      <trkpt lat="47.00772" lon="6.80146">
        <ele>1248.8</ele>
      </trkpt>
      <trkpt lat="47.00791" lon="6.80143">
        <ele>1249.3</ele>
      </trkpt>
      <trkpt lat="47.00798" lon="6.80144">
        <ele>1249.6</ele>
      </trkpt>
      <trkpt lat="47.00806" lon="6.80146">
        <ele>1250.1</ele>
      </trkpt>
      <trkpt lat="47.00817" lon="6.80154">
        <ele>1250.9</ele>
      </trkpt>
      <trkpt lat="47.00832" lon="6.80166">
        <ele>1251.9</ele>
      </trkpt>
      <trkpt lat="47.00846" lon="6.80175">
        <ele>1255</ele>
      </trkpt>
      <trkpt lat="47.00858" lon="6.80182">
        <ele>1257.1</ele>
      </trkpt>
      <trkpt lat="47.00893" lon="6.80195">
        <ele>1260</ele>
      </trkpt>
      <trkpt lat="47.00913" lon="6.80203">
        <ele>1260.6</ele>
      </trkpt>
      <trkpt lat="47.00932" lon="6.80214">
        <ele>1261.7</ele>
      </trkpt>
      <trkpt lat="47.00942" lon="6.80219">
        <ele>1262.3</ele>
      </trkpt>
      <trkpt lat="47.00964" lon="6.80225">
        <ele>1263.5</ele>
      </trkpt>
      <trkpt lat="47.00971" lon="6.8023">
        <ele>1263.6</ele>
      </trkpt>
      <trkpt lat="47.00974" lon="6.80234">
        <ele>1263.4</ele>
      </trkpt>
      <trkpt lat="47.0098" lon="6.80251">
        <ele>1262.3</ele>
      </trkpt>
      <trkpt lat="47.00985" lon="6.80264">
        <ele>1263.7</ele>
      </trkpt>
      <trkpt lat="47.00997" lon="6.80288">
        <ele>1265.4</ele>
      </trkpt>
      <trkpt lat="47.01004" lon="6.80299">
        <ele>1266.3</ele>
      </trkpt>
      <trkpt lat="47.01008" lon="6.80305">
        <ele>1267.2</ele>
      </trkpt>
      <trkpt lat="47.01044" lon="6.80338">
        <ele>1272.4</ele>
      </trkpt>
      <trkpt lat="47.01064" lon="6.80355">
        <ele>1275.9</ele>
      </trkpt>
      <trkpt lat="47.01075" lon="6.80362">
        <ele>1276.9</ele>
      </trkpt>
      <trkpt lat="47.01088" lon="6.80368">
        <ele>1278.2</ele>
      </trkpt>
      <trkpt lat="47.01101" lon="6.80376">
        <ele>1280.1</ele>
      </trkpt>
      <trkpt lat="47.01109" lon="6.80383">
        <ele>1281.5</ele>
      </trkpt>
      <trkpt lat="47.01116" lon="6.80393">
        <ele>1282.7</ele>
      </trkpt>
      <trkpt lat="47.01122" lon="6.80402">
        <ele>1283.7</ele>
      </trkpt>
      <trkpt lat="47.0113" lon="6.80411">
        <ele>1284.8</ele>
      </trkpt>
      <trkpt lat="47.01147" lon="6.80427">
        <ele>1287.5</ele>
      </trkpt>
      <trkpt lat="47.01162" lon="6.8044">
        <ele>1289.3</ele>
      </trkpt>
      <trkpt lat="47.01174" lon="6.80449">
        <ele>1290.6</ele>
      </trkpt>
      <trkpt lat="47.01189" lon="6.80462">
        <ele>1292.6</ele>
      </trkpt>
      <trkpt lat="47.01209" lon="6.80482">
        <ele>1295.2</ele>
      </trkpt>
      <trkpt lat="47.01224" lon="6.80498">
        <ele>1297</ele>
      </trkpt>
      <trkpt lat="47.01234" lon="6.80513">
        <ele>1299</ele>
      </trkpt>
      <trkpt lat="47.01243" lon="6.80528">
        <ele>1300.5</ele>
      </trkpt>
      <trkpt lat="47.01259" lon="6.80546">
        <ele>1302.5</ele>
      </trkpt>
      <trkpt lat="47.01271" lon="6.80554">
        <ele>1303.8</ele>
      </trkpt>
      <trkpt lat="47.01283" lon="6.80558">
        <ele>1304.9</ele>
      </trkpt>
      <trkpt lat="47.01293" lon="6.80558">
        <ele>1305.7</ele>
      </trkpt>
      <trkpt lat="47.01311" lon="6.80554">
        <ele>1306.8</ele>
      </trkpt>
      <trkpt lat="47.01319" lon="6.80552">
        <ele>1307.3</ele>
      </trkpt>
      <trkpt lat="47.01325" lon="6.80551">
        <ele>1307.8</ele>
      </trkpt>
      <trkpt lat="47.01332" lon="6.80552">
        <ele>1308.4</ele>
      </trkpt>
      <trkpt lat="47.01339" lon="6.80555">
        <ele>1308.9</ele>
      </trkpt>
      <trkpt lat="47.01348" lon="6.8056">
        <ele>1309.6</ele>
      </trkpt>
      <trkpt lat="47.01364" lon="6.8057">
        <ele>1310.8</ele>
      </trkpt>
      <trkpt lat="47.01364" lon="6.80589">
        <ele>1311.6</ele>
      </trkpt>
      <trkpt lat="47.01383" lon="6.8061">
        <ele>1312.6</ele>
      </trkpt>
      <trkpt lat="47.014" lon="6.80642">
        <ele>1313.1</ele>
      </trkpt>
      <trkpt lat="47.01402" lon="6.80649">
        <ele>1313.1</ele>
      </trkpt>
      <trkpt lat="47.01445" lon="6.80724">
        <ele>1317.8</ele>
      </trkpt>
      <trkpt lat="47.01488" lon="6.80818">
        <ele>1326</ele>
      </trkpt>
      <trkpt lat="47.0149" lon="6.80839">
        <ele>1328.6</ele>
      </trkpt>
      <trkpt lat="47.01492" lon="6.80854">
        <ele>1331.1</ele>
      </trkpt>
      <trkpt lat="47.01493" lon="6.80866">
        <ele>1333.2</ele>
      </trkpt>
      <trkpt lat="47.01496" lon="6.80877">
        <ele>1334.7</ele>
      </trkpt>
      <trkpt lat="47.01513" lon="6.80937">
        <ele>1344.3</ele>
      </trkpt>
      <trkpt lat="47.01531" lon="6.80992">
        <ele>1354.2</ele>
      </trkpt>
      <trkpt lat="47.01539" lon="6.81014">
        <ele>1357.2</ele>
      </trkpt>
      <trkpt lat="47.01545" lon="6.81056">
        <ele>1365.1</ele>
      </trkpt>
      <trkpt lat="47.01545" lon="6.81097">
        <ele>1373.1</ele>
      </trkpt>
      <trkpt lat="47.01542" lon="6.81145">
        <ele>1380.9</ele>
      </trkpt>
      <trkpt lat="47.01537" lon="6.81165">
        <ele>1383.9</ele>
      </trkpt>
      <trkpt lat="47.01536" lon="6.81184">
        <ele>1384.2</ele>
      </trkpt>
      <trkpt lat="47.01539" lon="6.812">
        <ele>1384.5</ele>
      </trkpt>
      <trkpt lat="47.01546" lon="6.81213">
        <ele>1385.2</ele>
      </trkpt>
      <trkpt lat="47.01604" lon="6.81248">
        <ele>1390.3</ele>
      </trkpt>
      <trkpt lat="47.01659" lon="6.813">
        <ele>1391.7</ele>
      </trkpt>
      <trkpt lat="47.01716" lon="6.81346">
        <ele>1396.2</ele>
      </trkpt>
      <trkpt lat="47.01763" lon="6.81393">
        <ele>1402.9</ele>
      </trkpt>
      <trkpt lat="47.01772" lon="6.81405">
        <ele>1405</ele>
      </trkpt>
      <trkpt lat="47.0185" lon="6.81454">
        <ele>1411</ele>
      </trkpt>
      <trkpt lat="47.01976" lon="6.81528">
        <ele>1416.4</ele>
      </trkpt>
      <trkpt lat="47.02088" lon="6.81584">
        <ele>1425.6</ele>
      </trkpt>
      <trkpt lat="47.02161" lon="6.81609">
        <ele>1422</ele>
      </trkpt>
      <trkpt lat="47.0219" lon="6.81618">
        <ele>1420.5</ele>
      </trkpt>
      <trkpt lat="47.02274" lon="6.81665">
        <ele>1421.1</ele>
      </trkpt>
      <trkpt lat="47.02283" lon="6.81664">
        <ele>1420.2</ele>
      </trkpt>
      <trkpt lat="47.02296" lon="6.81661">
        <ele>1418.7</ele>
      </trkpt>
      <trkpt lat="47.02385" lon="6.81699">
        <ele>1407.1</ele>
      </trkpt>
      <trkpt lat="47.02413" lon="6.81719">
        <ele>1402.8</ele>
      </trkpt>
      <trkpt lat="47.02453" lon="6.81755">
        <ele>1394.9</ele>
      </trkpt>
      <trkpt lat="47.0247" lon="6.81764">
        <ele>1391</ele>
      </trkpt>
      <trkpt lat="47.02483" lon="6.81803">
        <ele>1386</ele>
      </trkpt>
      <trkpt lat="47.02496" lon="6.81828">
        <ele>1383.4</ele>
      </trkpt>
      <trkpt lat="47.02499" lon="6.8185">
        <ele>1382</ele>
      </trkpt>
      <trkpt lat="47.02499" lon="6.81893">
        <ele>1379.5</ele>
      </trkpt>
      <trkpt lat="47.02507" lon="6.81912">
        <ele>1377.9</ele>
      </trkpt>
      <trkpt lat="47.02551" lon="6.81968">
        <ele>1373.7</ele>
      </trkpt>
      <trkpt lat="47.02665" lon="6.82117">
        <ele>1365.2</ele>
      </trkpt>
      <trkpt lat="47.02729" lon="6.82201">
        <ele>1364.7</ele>
      </trkpt>
      <trkpt lat="47.02766" lon="6.82235">
        <ele>1362.2</ele>
      </trkpt>
      <trkpt lat="47.02809" lon="6.82264">
        <ele>1361.6</ele>
      </trkpt>
      <trkpt lat="47.02853" lon="6.82299">
        <ele>1363.5</ele>
      </trkpt>
      <trkpt lat="47.02879" lon="6.82307">
        <ele>1364.9</ele>
      </trkpt>
      <trkpt lat="47.02894" lon="6.82322">
        <ele>1366.3</ele>
      </trkpt>
      <trkpt lat="47.02895" lon="6.82324">
        <ele>1366.4</ele>
      </trkpt>
      <trkpt lat="47.0291" lon="6.8234">
        <ele>1367.4</ele>
      </trkpt>
      <trkpt lat="47.02949" lon="6.82385">
        <ele>1366.7</ele>
      </trkpt>
      <trkpt lat="47.02991" lon="6.82448">
        <ele>1367.2</ele>
      </trkpt>
      <trkpt lat="47.03021" lon="6.825">
        <ele>1367</ele>
      </trkpt>
      <trkpt lat="47.03073" lon="6.82567">
        <ele>1361.8</ele>
      </trkpt>
      <trkpt lat="47.03101" lon="6.82604">
        <ele>1359.2</ele>
      </trkpt>
      <trkpt lat="47.03152" lon="6.8265">
        <ele>1359.9</ele>
      </trkpt>
      <trkpt lat="47.03159" lon="6.82658">
        <ele>1360.3</ele>
      </trkpt>
      <trkpt lat="47.03187" lon="6.82675">
        <ele>1361.1</ele>
      </trkpt>
      <trkpt lat="47.03243" lon="6.82718">
        <ele>1362.7</ele>
      </trkpt>
      <trkpt lat="47.03264" lon="6.82739">
        <ele>1363</ele>
      </trkpt>
      <trkpt lat="47.03279" lon="6.82758">
        <ele>1364</ele>
      </trkpt>
      <trkpt lat="47.03287" lon="6.82779">
        <ele>1366.3</ele>
      </trkpt>
      <trkpt lat="47.03299" lon="6.82808">
        <ele>1370</ele>
      </trkpt>
      <trkpt lat="47.03316" lon="6.8283">
        <ele>1374.1</ele>
      </trkpt>
      <trkpt lat="47.03338" lon="6.82861">
        <ele>1378.1</ele>
      </trkpt>
      <trkpt lat="47.03448" lon="6.83019">
        <ele>1395.2</ele>
      </trkpt>
      <trkpt lat="47.0347" lon="6.83042">
        <ele>1396.5</ele>
      </trkpt>
      <trkpt lat="47.03496" lon="6.83062">
        <ele>1399.2</ele>
      </trkpt>
      <trkpt lat="47.03512" lon="6.83077">
        <ele>1399</ele>
      </trkpt>
      <trkpt lat="47.03547" lon="6.83124">
        <ele>1396.6</ele>
      </trkpt>
      <trkpt lat="47.03579" lon="6.83163">
        <ele>1400.2</ele>
      </trkpt>
      <trkpt lat="47.03605" lon="6.83187">
        <ele>1394.4</ele>
      </trkpt>
      <trkpt lat="47.03632" lon="6.83221">
        <ele>1392.7</ele>
      </trkpt>
      <trkpt lat="47.03649" lon="6.83249">
        <ele>1397.4</ele>
      </trkpt>
      <trkpt lat="47.03676" lon="6.83277">
        <ele>1396.4</ele>
      </trkpt>
      <trkpt lat="47.03701" lon="6.83303">
        <ele>1393.3</ele>
      </trkpt>
      <trkpt lat="47.03763" lon="6.83375">
        <ele>1395.5</ele>
      </trkpt>
      <trkpt lat="47.0384" lon="6.8344">
        <ele>1399</ele>
      </trkpt>
      <trkpt lat="47.03859" lon="6.83452">
        <ele>1397.7</ele>
      </trkpt>
      <trkpt lat="47.03876" lon="6.83452">
        <ele>1396.6</ele>
      </trkpt>
      <trkpt lat="47.03889" lon="6.83468">
        <ele>1398.6</ele>
      </trkpt>
      <trkpt lat="47.03938" lon="6.83515">
        <ele>1405.7</ele>
      </trkpt>
      <trkpt lat="47.03971" lon="6.83537">
        <ele>1406.7</ele>
      </trkpt>
      <trkpt lat="47.03992" lon="6.83548">
        <ele>1408.8</ele>
      </trkpt>
      <trkpt lat="47.04015" lon="6.83572">
        <ele>1410.5</ele>
      </trkpt>
      <trkpt lat="47.04033" lon="6.83593">
        <ele>1409.7</ele>
      </trkpt>
      <trkpt lat="47.04061" lon="6.83642">
        <ele>1409.8</ele>
      </trkpt>
      <trkpt lat="47.04118" lon="6.83738">
        <ele>1405.9</ele>
      </trkpt>
      <trkpt lat="47.04137" lon="6.83765">
        <ele>1405.1</ele>
      </trkpt>
      <trkpt lat="47.04144" lon="6.83775">
        <ele>1405.1</ele>
      </trkpt>
      <trkpt lat="47.04173" lon="6.83834">
        <ele>1409.1</ele>
      </trkpt>
      <trkpt lat="47.04184" lon="6.83863">
        <ele>1406.6</ele>
      </trkpt>
      <trkpt lat="47.04194" lon="6.83879">
        <ele>1405.6</ele>
      </trkpt>
      <trkpt lat="47.04205" lon="6.83885">
        <ele>1405.2</ele>
      </trkpt>
      <trkpt lat="47.04217" lon="6.83893">
        <ele>1405.1</ele>
      </trkpt>
      <trkpt lat="47.04278" lon="6.83931">
        <ele>1402</ele>
      </trkpt>
      <trkpt lat="47.04312" lon="6.83964">
        <ele>1398.3</ele>
      </trkpt>
      <trkpt lat="47.04333" lon="6.83976">
        <ele>1397.6</ele>
      </trkpt>
      <trkpt lat="47.04357" lon="6.84001">
        <ele>1398.3</ele>
      </trkpt>
      <trkpt lat="47.04377" lon="6.84032">
        <ele>1395</ele>
      </trkpt>
      <trkpt lat="47.04431" lon="6.84084">
        <ele>1394.1</ele>
      </trkpt>
      <trkpt lat="47.0448" lon="6.84127">
        <ele>1394.2</ele>
      </trkpt>
      <trkpt lat="47.04529" lon="6.84186">
        <ele>1395.2</ele>
      </trkpt>
      <trkpt lat="47.04557" lon="6.8423">
        <ele>1397.7</ele>
      </trkpt>
      <trkpt lat="47.04589" lon="6.84292">
        <ele>1400.1</ele>
      </trkpt>
      <trkpt lat="47.04604" lon="6.84318">
        <ele>1398</ele>
      </trkpt>
      <trkpt lat="47.04633" lon="6.84352">
        <ele>1396.3</ele>
      </trkpt>
      <trkpt lat="47.04654" lon="6.84385">
        <ele>1396.3</ele>
      </trkpt>
      <trkpt lat="47.04661" lon="6.84384">
        <ele>1397.3</ele>
      </trkpt>
      <trkpt lat="47.04671" lon="6.84383">
        <ele>1396.9</ele>
      </trkpt>
      <trkpt lat="47.0468" lon="6.84386">
        <ele>1394.5</ele>
      </trkpt>
      <trkpt lat="47.04688" lon="6.84393">
        <ele>1392.8</ele>
      </trkpt>
      <trkpt lat="47.04694" lon="6.84404">
        <ele>1392.4</ele>
      </trkpt>
      <trkpt lat="47.04706" lon="6.84414">
        <ele>1391</ele>
      </trkpt>
      <trkpt lat="47.04724" lon="6.84432">
        <ele>1387.5</ele>
      </trkpt>
      <trkpt lat="47.04741" lon="6.84449">
        <ele>1385.4</ele>
      </trkpt>
      <trkpt lat="47.04767" lon="6.84489">
        <ele>1382.7</ele>
      </trkpt>
      <trkpt lat="47.04791" lon="6.84531">
        <ele>1377.6</ele>
      </trkpt>
      <trkpt lat="47.04816" lon="6.84562">
        <ele>1375.8</ele>
      </trkpt>
      <trkpt lat="47.04842" lon="6.84585">
        <ele>1376.1</ele>
      </trkpt>
      <trkpt lat="47.04896" lon="6.84602">
        <ele>1372.8</ele>
      </trkpt>
      <trkpt lat="47.04917" lon="6.8462">
        <ele>1373.3</ele>
      </trkpt>
      <trkpt lat="47.04935" lon="6.84643">
        <ele>1373.8</ele>
      </trkpt>
      <trkpt lat="47.05026" lon="6.84708">
        <ele>1374.3</ele>
      </trkpt>
      <trkpt lat="47.05068" lon="6.8478">
        <ele>1379.4</ele>
      </trkpt>
      <trkpt lat="47.05099" lon="6.84854">
        <ele>1380.4</ele>
      </trkpt>
      <trkpt lat="47.05145" lon="6.84958">
        <ele>1374</ele>
      </trkpt>
      <trkpt lat="47.0515" lon="6.84966">
        <ele>1373.7</ele>
      </trkpt>
      <trkpt lat="47.05165" lon="6.84994">
        <ele>1373.2</ele>
      </trkpt>
      <trkpt lat="47.05181" lon="6.85066">
        <ele>1371.9</ele>
      </trkpt>
      <trkpt lat="47.05192" lon="6.85045">
        <ele>1374.7</ele>
      </trkpt>
      <trkpt lat="47.05198" lon="6.85039">
        <ele>1375.9</ele>
      </trkpt>
      <trkpt lat="47.05207" lon="6.8504">
        <ele>1377.4</ele>
      </trkpt>
      <trkpt lat="47.0522" lon="6.85052">
        <ele>1379.4</ele>
      </trkpt>
      <trkpt lat="47.05232" lon="6.85069">
        <ele>1381.9</ele>
      </trkpt>
      <trkpt lat="47.05247" lon="6.85093">
        <ele>1385.6</ele>
      </trkpt>
      <trkpt lat="47.05263" lon="6.85116">
        <ele>1387.3</ele>
      </trkpt>
      <trkpt lat="47.05279" lon="6.85137">
        <ele>1389.5</ele>
      </trkpt>
      <trkpt lat="47.05297" lon="6.85157">
        <ele>1392.9</ele>
      </trkpt>
      <trkpt lat="47.05356" lon="6.85262">
        <ele>1400.6</ele>
      </trkpt>
      <trkpt lat="47.05377" lon="6.85305">
        <ele>1400.7</ele>
      </trkpt>
      <trkpt lat="47.05421" lon="6.85376">
        <ele>1401.6</ele>
      </trkpt>
      <trkpt lat="47.05444" lon="6.85423">
        <ele>1392.1</ele>
      </trkpt>
      <trkpt lat="47.05461" lon="6.85433">
        <ele>1386</ele>
      </trkpt>
      <trkpt lat="47.05467" lon="6.85426">
        <ele>1386.5</ele>
      </trkpt>
      <trkpt lat="47.05467" lon="6.85443">
        <ele>1382.6</ele>
      </trkpt>
      <trkpt lat="47.0549" lon="6.8546">
        <ele>1375.3</ele>
      </trkpt>
      <trkpt lat="47.05509" lon="6.85461">
        <ele>1370</ele>
      </trkpt>
      <trkpt lat="47.05516" lon="6.85473">
        <ele>1365.4</ele>
      </trkpt>
      <trkpt lat="47.05517" lon="6.85487">
        <ele>1363.5</ele>
      </trkpt>
      <trkpt lat="47.05524" lon="6.85488">
        <ele>1360.9</ele>
      </trkpt>
      <trkpt lat="47.0551" lon="6.85512">
        <ele>1360.2</ele>
      </trkpt>
      <trkpt lat="47.05513" lon="6.8552">
        <ele>1357.4</ele>
      </trkpt>
      <trkpt lat="47.05536" lon="6.85523">
        <ele>1350.8</ele>
      </trkpt>
      <trkpt lat="47.05533" lon="6.85528">
        <ele>1350.2</ele>
      </trkpt>
      <trkpt lat="47.05526" lon="6.85532">
        <ele>1351</ele>
      </trkpt>
      <trkpt lat="47.05526" lon="6.85537">
        <ele>1349.8</ele>
      </trkpt>
      <trkpt lat="47.05531" lon="6.85539">
        <ele>1348.1</ele>
      </trkpt>
      <trkpt lat="47.05529" lon="6.85546">
        <ele>1347</ele>
      </trkpt>
      <trkpt lat="47.0554" lon="6.85549">
        <ele>1344.3</ele>
      </trkpt>
      <trkpt lat="47.05536" lon="6.85555">
        <ele>1343.7</ele>
      </trkpt>
      <trkpt lat="47.05545" lon="6.85558">
        <ele>1341.5</ele>
      </trkpt>
      <trkpt lat="47.05528" lon="6.85597">
        <ele>1335.8</ele>
      </trkpt>
      <trkpt lat="47.0554" lon="6.85603">
        <ele>1334.2</ele>
      </trkpt>
      <trkpt lat="47.0555" lon="6.85608">
        <ele>1332.9</ele>
      </trkpt>
      <trkpt lat="47.05554" lon="6.85605">
        <ele>1333.1</ele>
      </trkpt>
      <trkpt lat="47.05557" lon="6.85603">
        <ele>1333.3</ele>
      </trkpt>
      <trkpt lat="47.05619" lon="6.85637">
        <ele>1324</ele>
      </trkpt>
      <trkpt lat="47.05634" lon="6.85629">
        <ele>1322.2</ele>
      </trkpt>
      <trkpt lat="47.05639" lon="6.85628">
        <ele>1321.5</ele>
      </trkpt>
      <trkpt lat="47.05644" lon="6.85629">
        <ele>1320.8</ele>
      </trkpt>
      <trkpt lat="47.05654" lon="6.85631">
        <ele>1319.5</ele>
      </trkpt>
      <trkpt lat="47.05665" lon="6.85637">
        <ele>1318.5</ele>
      </trkpt>
      <trkpt lat="47.05669" lon="6.85644">
        <ele>1318.6</ele>
      </trkpt>
      <trkpt lat="47.05673" lon="6.85653">
        <ele>1319.2</ele>
      </trkpt>
      <trkpt lat="47.0569" lon="6.8571">
        <ele>1320.9</ele>
      </trkpt>
      <trkpt lat="47.05704" lon="6.85784">
        <ele>1321.5</ele>
      </trkpt>
      <trkpt lat="47.05707" lon="6.85799">
        <ele>1320.8</ele>
      </trkpt>
      <trkpt lat="47.0571" lon="6.85811">
        <ele>1320.6</ele>
      </trkpt>
      <trkpt lat="47.05732" lon="6.8583">
        <ele>1323.5</ele>
      </trkpt>
      <trkpt lat="47.05742" lon="6.85836">
        <ele>1325.1</ele>
      </trkpt>
      <trkpt lat="47.05746" lon="6.85845">
        <ele>1324.6</ele>
      </trkpt>
      <trkpt lat="47.05793" lon="6.85887">
        <ele>1329.1</ele>
      </trkpt>
      <trkpt lat="47.05804" lon="6.85904">
        <ele>1328.6</ele>
      </trkpt>
      <trkpt lat="47.05806" lon="6.85917">
        <ele>1326.8</ele>
      </trkpt>
      <trkpt lat="47.05819" lon="6.85917">
        <ele>1329.2</ele>
      </trkpt>
      <trkpt lat="47.05887" lon="6.85917">
        <ele>1339</ele>
      </trkpt>
      <trkpt lat="47.0591" lon="6.85934">
        <ele>1342.1</ele>
      </trkpt>
      <trkpt lat="47.05958" lon="6.8597">
        <ele>1345.7</ele>
      </trkpt>
      <trkpt lat="47.05961" lon="6.8598">
        <ele>1346.5</ele>
      </trkpt>
      <trkpt lat="47.05964" lon="6.85983">
        <ele>1347</ele>
      </trkpt>
      <trkpt lat="47.05968" lon="6.85983">
        <ele>1347.3</ele>
      </trkpt>
      <trkpt lat="47.06" lon="6.8599">
        <ele>1350.8</ele>
      </trkpt>
      <trkpt lat="47.06001" lon="6.85997">
        <ele>1351.6</ele>
      </trkpt>
      <trkpt lat="47.06046" lon="6.86042">
        <ele>1349</ele>
      </trkpt>
      <trkpt lat="47.06085" lon="6.86045">
        <ele>1348.8</ele>
      </trkpt>
      <trkpt lat="47.0612" lon="6.86069">
        <ele>1351.5</ele>
      </trkpt>
      <trkpt lat="47.06149" lon="6.86071">
        <ele>1352.4</ele>
      </trkpt>
      <trkpt lat="47.06174" lon="6.86088">
        <ele>1354.9</ele>
      </trkpt>
      <trkpt lat="47.06214" lon="6.861">
        <ele>1355.2</ele>
      </trkpt>
      <trkpt lat="47.06231" lon="6.86113">
        <ele>1356.3</ele>
      </trkpt>
      <trkpt lat="47.06256" lon="6.86144">
        <ele>1359.5</ele>
      </trkpt>
      <trkpt lat="47.06294" lon="6.86149">
        <ele>1357.7</ele>
      </trkpt>
      <trkpt lat="47.06314" lon="6.86159">
        <ele>1358.4</ele>
      </trkpt>
      <trkpt lat="47.06432" lon="6.86304">
        <ele>1350</ele>
      </trkpt>
      <trkpt lat="47.06458" lon="6.86337">
        <ele>1352</ele>
      </trkpt>
      <trkpt lat="47.06469" lon="6.86362">
        <ele>1351.7</ele>
      </trkpt>
      <trkpt lat="47.06521" lon="6.86425">
        <ele>1353.1</ele>
      </trkpt>
      <trkpt lat="47.06545" lon="6.8644">
        <ele>1348.9</ele>
      </trkpt>
      <trkpt lat="47.06635" lon="6.86469">
        <ele>1338.7</ele>
      </trkpt>
      <trkpt lat="47.06665" lon="6.86484">
        <ele>1337.4</ele>
      </trkpt>
      <trkpt lat="47.06717" lon="6.86525">
        <ele>1332.8</ele>
      </trkpt>
      <trkpt lat="47.06799" lon="6.86573">
        <ele>1333.4</ele>
      </trkpt>
      <trkpt lat="47.06853" lon="6.86635">
        <ele>1327.6</ele>
      </trkpt>
      <trkpt lat="47.06916" lon="6.86665">
        <ele>1322.8</ele>
      </trkpt>
      <trkpt lat="47.06964" lon="6.86707">
        <ele>1312</ele>
      </trkpt>
      <trkpt lat="47.06978" lon="6.86724">
        <ele>1310.4</ele>
      </trkpt>
      <trkpt lat="47.07025" lon="6.8675">
        <ele>1312.4</ele>
      </trkpt>
      <trkpt lat="47.07043" lon="6.86767">
        <ele>1312.8</ele>
      </trkpt>
      <trkpt lat="47.07183" lon="6.86824">
        <ele>1305.2</ele>
      </trkpt>
      <trkpt lat="47.0721" lon="6.86841">
        <ele>1300.2</ele>
      </trkpt>
      <trkpt lat="47.072" lon="6.86861">
        <ele>1298.8</ele>
      </trkpt>
      <trkpt lat="47.07202" lon="6.86868">
        <ele>1297.5</ele>
      </trkpt>
      <trkpt lat="47.07194" lon="6.86873">
        <ele>1297.7</ele>
      </trkpt>
      <trkpt lat="47.07186" lon="6.86881">
        <ele>1297.3</ele>
      </trkpt>
      <trkpt lat="47.07178" lon="6.8689">
        <ele>1296.4</ele>
      </trkpt>
      <trkpt lat="47.07176" lon="6.86895">
        <ele>1295.7</ele>
      </trkpt>
      <trkpt lat="47.07177" lon="6.869">
        <ele>1294.6</ele>
      </trkpt>
      <trkpt lat="47.07179" lon="6.86903">
        <ele>1293.9</ele>
      </trkpt>
      <trkpt lat="47.07191" lon="6.86903">
        <ele>1293.1</ele>
      </trkpt>
      <trkpt lat="47.07201" lon="6.86906">
        <ele>1291.9</ele>
      </trkpt>
      <trkpt lat="47.07207" lon="6.86912">
        <ele>1290.8</ele>
      </trkpt>
      <trkpt lat="47.07208" lon="6.8692">
        <ele>1289.8</ele>
      </trkpt>
      <trkpt lat="47.07201" lon="6.86931">
        <ele>1289</ele>
      </trkpt>
      <trkpt lat="47.07183" lon="6.86952">
        <ele>1287.2</ele>
      </trkpt>
      <trkpt lat="47.07172" lon="6.86969">
        <ele>1285.2</ele>
      </trkpt>
      <trkpt lat="47.0717" lon="6.8698">
        <ele>1283.7</ele>
      </trkpt>
      <trkpt lat="47.07172" lon="6.86991">
        <ele>1282.4</ele>
      </trkpt>
      <trkpt lat="47.07179" lon="6.86999">
        <ele>1281.7</ele>
      </trkpt>
      <trkpt lat="47.07181" lon="6.87004">
        <ele>1281.2</ele>
      </trkpt>
      <trkpt lat="47.07182" lon="6.87007">
        <ele>1280.9</ele>
      </trkpt>
      <trkpt lat="47.07186" lon="6.87006">
        <ele>1281.2</ele>
      </trkpt>
      <trkpt lat="47.0719" lon="6.87007">
        <ele>1281.3</ele>
      </trkpt>
      <trkpt lat="47.07216" lon="6.87054">
        <ele>1278.5</ele>
      </trkpt>
      <trkpt lat="47.0723" lon="6.87053">
        <ele>1279.9</ele>
      </trkpt>
      <trkpt lat="47.07248" lon="6.8705">
        <ele>1281.8</ele>
      </trkpt>
      <trkpt lat="47.07256" lon="6.87053">
        <ele>1282.2</ele>
      </trkpt>
      <trkpt lat="47.07256" lon="6.87038">
        <ele>1283</ele>
      </trkpt>
      <trkpt lat="47.07257" lon="6.87025">
        <ele>1283.7</ele>
      </trkpt>
      <trkpt lat="47.07264" lon="6.87">
        <ele>1284.8</ele>
      </trkpt>
      <trkpt lat="47.07269" lon="6.86988">
        <ele>1285</ele>
      </trkpt>
      <trkpt lat="47.07276" lon="6.86995">
        <ele>1284.7</ele>
      </trkpt>
      <trkpt lat="47.07289" lon="6.86996">
        <ele>1284.5</ele>
      </trkpt>
      <trkpt lat="47.07304" lon="6.87025">
        <ele>1284.6</ele>
      </trkpt>
      <trkpt lat="47.0731" lon="6.87033">
        <ele>1284.9</ele>
      </trkpt>
      <trkpt lat="47.07325" lon="6.87045">
        <ele>1285.8</ele>
      </trkpt>
      <trkpt lat="47.07336" lon="6.87051">
        <ele>1286.7</ele>
      </trkpt>
      <trkpt lat="47.07369" lon="6.87068">
        <ele>1291.7</ele>
      </trkpt>
      <trkpt lat="47.0741" lon="6.87098">
        <ele>1299.9</ele>
      </trkpt>
      <trkpt lat="47.0744" lon="6.87122">
        <ele>1303.9</ele>
      </trkpt>
      <trkpt lat="47.07446" lon="6.87125">
        <ele>1304.7</ele>
      </trkpt>
      <trkpt lat="47.07462" lon="6.87138">
        <ele>1307.5</ele>
      </trkpt>
      <trkpt lat="47.07486" lon="6.8716">
        <ele>1313.8</ele>
      </trkpt>
      <trkpt lat="47.07491" lon="6.87169">
        <ele>1315.8</ele>
      </trkpt>
      <trkpt lat="47.07496" lon="6.87177">
        <ele>1316.7</ele>
      </trkpt>
      <trkpt lat="47.07502" lon="6.87194">
        <ele>1317.9</ele>
      </trkpt>
      <trkpt lat="47.07507" lon="6.87209">
        <ele>1318.4</ele>
      </trkpt>
      <trkpt lat="47.0752" lon="6.87243">
        <ele>1320.5</ele>
      </trkpt>
      <trkpt lat="47.07531" lon="6.87258">
        <ele>1321.5</ele>
      </trkpt>
      <trkpt lat="47.07539" lon="6.87269">
        <ele>1322.1</ele>
      </trkpt>
      <trkpt lat="47.0757" lon="6.8731">
        <ele>1327.6</ele>
      </trkpt>
      <trkpt lat="47.07586" lon="6.87326">
        <ele>1331.1</ele>
      </trkpt>
      <trkpt lat="47.0759" lon="6.87333">
        <ele>1331.5</ele>
      </trkpt>
      <trkpt lat="47.07601" lon="6.87359">
        <ele>1331.2</ele>
      </trkpt>
      <trkpt lat="47.07613" lon="6.87394">
        <ele>1332.2</ele>
      </trkpt>
      <trkpt lat="47.0763" lon="6.87431">
        <ele>1334.4</ele>
      </trkpt>
      <trkpt lat="47.0764" lon="6.87445">
        <ele>1335.4</ele>
      </trkpt>
      <trkpt lat="47.07641" lon="6.87448">
        <ele>1335.6</ele>
      </trkpt>
      <trkpt lat="47.07641" lon="6.87453">
        <ele>1335.7</ele>
      </trkpt>
      <trkpt lat="47.07651" lon="6.87472">
        <ele>1337.4</ele>
      </trkpt>
      <trkpt lat="47.07658" lon="6.87487">
        <ele>1339</ele>
      </trkpt>
      <trkpt lat="47.07666" lon="6.87513">
        <ele>1340.9</ele>
      </trkpt>
      <trkpt lat="47.0768" lon="6.87549">
        <ele>1340.5</ele>
      </trkpt>
      <trkpt lat="47.07697" lon="6.87596">
        <ele>1340.9</ele>
      </trkpt>
      <trkpt lat="47.077" lon="6.87608">
        <ele>1340.9</ele>
      </trkpt>
      <trkpt lat="47.07705" lon="6.87641">
        <ele>1341.2</ele>
      </trkpt>
      <trkpt lat="47.07715" lon="6.87751">
        <ele>1344.5</ele>
      </trkpt>
      <trkpt lat="47.07717" lon="6.87821">
        <ele>1348.1</ele>
      </trkpt>
      <trkpt lat="47.07727" lon="6.87874">
        <ele>1351.7</ele>
      </trkpt>
      <trkpt lat="47.07729" lon="6.87928">
        <ele>1353.9</ele>
      </trkpt>
      <trkpt lat="47.07724" lon="6.87977">
        <ele>1354.8</ele>
      </trkpt>
      <trkpt lat="47.07721" lon="6.88001">
        <ele>1355.2</ele>
      </trkpt>
      <trkpt lat="47.07727" lon="6.8807">
        <ele>1361.3</ele>
      </trkpt>
      <trkpt lat="47.07738" lon="6.88177">
        <ele>1365.7</ele>
      </trkpt>
      <trkpt lat="47.07751" lon="6.88287">
        <ele>1369.3</ele>
      </trkpt>
      <trkpt lat="47.07755" lon="6.88344">
        <ele>1369.5</ele>
      </trkpt>
      <trkpt lat="47.07781" lon="6.88532">
        <ele>1374.7</ele>
      </trkpt>
      <trkpt lat="47.07797" lon="6.88672">
        <ele>1382.8</ele>
      </trkpt>
      <trkpt lat="47.07812" lon="6.88738">
        <ele>1385.8</ele>
      </trkpt>
      <trkpt lat="47.07834" lon="6.8881">
        <ele>1392.5</ele>
      </trkpt>
      <trkpt lat="47.07857" lon="6.88879">
        <ele>1392.7</ele>
      </trkpt>
      <trkpt lat="47.07879" lon="6.88934">
        <ele>1392.6</ele>
      </trkpt>
      <trkpt lat="47.07888" lon="6.88968">
        <ele>1393</ele>
      </trkpt>
      <trkpt lat="47.07899" lon="6.89034">
        <ele>1394.3</ele>
      </trkpt>
      <trkpt lat="47.07902" lon="6.89077">
        <ele>1395.7</ele>
      </trkpt>
      <trkpt lat="47.07938" lon="6.89212">
        <ele>1387.8</ele>
      </trkpt>
      <trkpt lat="47.07947" lon="6.89238">
        <ele>1384.6</ele>
      </trkpt>
      <trkpt lat="47.07942" lon="6.89316">
        <ele>1386.8</ele>
      </trkpt>
      <trkpt lat="47.07934" lon="6.89329">
        <ele>1388.8</ele>
      </trkpt>
      <trkpt lat="47.0793" lon="6.89343">
        <ele>1389.6</ele>
      </trkpt>
      <trkpt lat="47.07928" lon="6.89355">
        <ele>1390</ele>
      </trkpt>
      <trkpt lat="47.07928" lon="6.89368">
        <ele>1389.8</ele>
      </trkpt>
      <trkpt lat="47.07935" lon="6.89391">
        <ele>1388.5</ele>
      </trkpt>
      <trkpt lat="47.07949" lon="6.89444">
        <ele>1385.7</ele>
      </trkpt>
      <trkpt lat="47.07964" lon="6.89492">
        <ele>1383.9</ele>
      </trkpt>
      <trkpt lat="47.07967" lon="6.89526">
        <ele>1384.6</ele>
      </trkpt>
      <trkpt lat="47.0796" lon="6.89558">
        <ele>1385.1</ele>
      </trkpt>
      <trkpt lat="47.07957" lon="6.89598">
        <ele>1385.3</ele>
      </trkpt>
      <trkpt lat="47.07961" lon="6.89649">
        <ele>1385.4</ele>
      </trkpt>
      <trkpt lat="47.0796" lon="6.89679">
        <ele>1384.9</ele>
      </trkpt>
      <trkpt lat="47.07959" lon="6.89693">
        <ele>1384.2</ele>
      </trkpt>
      <trkpt lat="47.07955" lon="6.89696">
        <ele>1383.2</ele>
      </trkpt>
      <trkpt lat="47.07958" lon="6.89709">
        <ele>1383.5</ele>
      </trkpt>
      <trkpt lat="47.07977" lon="6.89817">
        <ele>1384.2</ele>
      </trkpt>
      <trkpt lat="47.07983" lon="6.89859">
        <ele>1383.1</ele>
      </trkpt>
      <trkpt lat="47.08002" lon="6.89895">
        <ele>1385.7</ele>
      </trkpt>
      <trkpt lat="47.08015" lon="6.89929">
        <ele>1382.9</ele>
      </trkpt>
      <trkpt lat="47.08031" lon="6.90005">
        <ele>1379.6</ele>
      </trkpt>
      <trkpt lat="47.08043" lon="6.90028">
        <ele>1381.4</ele>
      </trkpt>
      <trkpt lat="47.08068" lon="6.90131">
        <ele>1385.5</ele>
      </trkpt>
      <trkpt lat="47.08091" lon="6.90175">
        <ele>1388.5</ele>
      </trkpt>
      <trkpt lat="47.08122" lon="6.90257">
        <ele>1386.6</ele>
      </trkpt>
      <trkpt lat="47.08133" lon="6.90314">
        <ele>1385.7</ele>
      </trkpt>
      <trkpt lat="47.08139" lon="6.90336">
        <ele>1385.7</ele>
      </trkpt>
      <trkpt lat="47.08147" lon="6.90354">
        <ele>1386.9</ele>
      </trkpt>
      <trkpt lat="47.08154" lon="6.90372">
        <ele>1388.1</ele>
      </trkpt>
      <trkpt lat="47.08157" lon="6.90385">
        <ele>1388.8</ele>
      </trkpt>
      <trkpt lat="47.08163" lon="6.90388">
        <ele>1389.5</ele>
      </trkpt>
      <trkpt lat="47.08168" lon="6.90394">
        <ele>1390</ele>
      </trkpt>
      <trkpt lat="47.08171" lon="6.904">
        <ele>1389.9</ele>
      </trkpt>
      <trkpt lat="47.08186" lon="6.90433">
        <ele>1390.6</ele>
      </trkpt>
      <trkpt lat="47.08195" lon="6.90463">
        <ele>1392.3</ele>
      </trkpt>
      <trkpt lat="47.08219" lon="6.90548">
        <ele>1399.3</ele>
      </trkpt>
      <trkpt lat="47.0824" lon="6.90622">
        <ele>1406.2</ele>
      </trkpt>
      <trkpt lat="47.08248" lon="6.90664">
        <ele>1409.4</ele>
      </trkpt>
      <trkpt lat="47.08272" lon="6.90758">
        <ele>1401.7</ele>
      </trkpt>
      <trkpt lat="47.08276" lon="6.90771">
        <ele>1399.9</ele>
      </trkpt>
      <trkpt lat="47.08296" lon="6.9083">
        <ele>1394.1</ele>
      </trkpt>
      <trkpt lat="47.08306" lon="6.90866">
        <ele>1392.9</ele>
      </trkpt>
      <trkpt lat="47.08332" lon="6.90966">
        <ele>1393.9</ele>
      </trkpt>
      <trkpt lat="47.0836" lon="6.91068">
        <ele>1383.3</ele>
      </trkpt>
      <trkpt lat="47.08388" lon="6.91158">
        <ele>1381.9</ele>
      </trkpt>
      <trkpt lat="47.08394" lon="6.91189">
        <ele>1379.9</ele>
      </trkpt>
      <trkpt lat="47.08432" lon="6.91303">
        <ele>1372.8</ele>
      </trkpt>
      <trkpt lat="47.08476" lon="6.91423">
        <ele>1365.3</ele>
      </trkpt>
      <trkpt lat="47.08484" lon="6.91464">
        <ele>1362.7</ele>
      </trkpt>
      <trkpt lat="47.08499" lon="6.91523">
        <ele>1360.5</ele>
      </trkpt>
      <trkpt lat="47.08527" lon="6.91621">
        <ele>1349.2</ele>
      </trkpt>
      <trkpt lat="47.08573" lon="6.91757">
        <ele>1345.6</ele>
      </trkpt>
      <trkpt lat="47.08596" lon="6.91815">
        <ele>1338</ele>
      </trkpt>
      <trkpt lat="47.08605" lon="6.91856">
        <ele>1332.6</ele>
      </trkpt>
      <trkpt lat="47.08636" lon="6.91948">
        <ele>1325.2</ele>
      </trkpt>
      <trkpt lat="47.08645" lon="6.92006">
        <ele>1320.8</ele>
      </trkpt>
      <trkpt lat="47.08668" lon="6.92076">
        <ele>1318.8</ele>
      </trkpt>
      <trkpt lat="47.087" lon="6.92138">
        <ele>1308.4</ele>
      </trkpt>
      <trkpt lat="47.08732" lon="6.92246">
        <ele>1293.6</ele>
      </trkpt>
      <trkpt lat="47.08738" lon="6.92259">
        <ele>1292.4</ele>
      </trkpt>
      <trkpt lat="47.08756" lon="6.92274">
        <ele>1292.4</ele>
      </trkpt>
      <trkpt lat="47.0877" lon="6.92286">
        <ele>1289.7</ele>
      </trkpt>
      <trkpt lat="47.08799" lon="6.92301">
        <ele>1287.1</ele>
      </trkpt>
      <trkpt lat="47.08807" lon="6.92311">
        <ele>1285.7</ele>
      </trkpt>
      <trkpt lat="47.08838" lon="6.92382">
        <ele>1278.2</ele>
      </trkpt>
      <trkpt lat="47.08855" lon="6.92407">
        <ele>1272.6</ele>
      </trkpt>
      <trkpt lat="47.08875" lon="6.92465">
        <ele>1266.4</ele>
      </trkpt>
      <trkpt lat="47.08892" lon="6.92493">
        <ele>1264.3</ele>
      </trkpt>
      <trkpt lat="47.08896" lon="6.92512">
        <ele>1263.3</ele>
      </trkpt>
      <trkpt lat="47.08897" lon="6.92543">
        <ele>1261.7</ele>
      </trkpt>
      <trkpt lat="47.08893" lon="6.92558">
        <ele>1260.7</ele>
      </trkpt>
      <trkpt lat="47.08874" lon="6.92601">
        <ele>1254.7</ele>
      </trkpt>
      <trkpt lat="47.0887" lon="6.92618">
        <ele>1252.1</ele>
      </trkpt>
      <trkpt lat="47.0887" lon="6.92632">
        <ele>1250.3</ele>
      </trkpt>
      <trkpt lat="47.08877" lon="6.92657">
        <ele>1248.7</ele>
      </trkpt>
      <trkpt lat="47.08881" lon="6.92678">
        <ele>1246.5</ele>
      </trkpt>
      <trkpt lat="47.08897" lon="6.92728">
        <ele>1242.1</ele>
      </trkpt>
      <trkpt lat="47.08914" lon="6.92752">
        <ele>1242.9</ele>
      </trkpt>
      <trkpt lat="47.08937" lon="6.92816">
        <ele>1232.9</ele>
      </trkpt>
      <trkpt lat="47.0893" lon="6.92818">
        <ele>1231.9</ele>
      </trkpt>
      <trkpt lat="47.08898" lon="6.92816">
        <ele>1224.6</ele>
      </trkpt>
      <trkpt lat="47.0886" lon="6.92792">
        <ele>1216.7</ele>
      </trkpt>
      <trkpt lat="47.08809" lon="6.92747">
        <ele>1208.8</ele>
      </trkpt>
      <trkpt lat="47.08702" lon="6.92636">
        <ele>1183.6</ele>
      </trkpt>
      <trkpt lat="47.08658" lon="6.9258">
        <ele>1173.1</ele>
      </trkpt>
      <trkpt lat="47.08624" lon="6.92558">
        <ele>1163.5</ele>
      </trkpt>
      <trkpt lat="47.08601" lon="6.92534">
        <ele>1159.1</ele>
      </trkpt>
      <trkpt lat="47.08584" lon="6.92519">
        <ele>1155.7</ele>
      </trkpt>
      <trkpt lat="47.08557" lon="6.92503">
        <ele>1151.9</ele>
      </trkpt>
      <trkpt lat="47.08519" lon="6.92482">
        <ele>1145.8</ele>
      </trkpt>
      <trkpt lat="47.08481" lon="6.92449">
        <ele>1142</ele>
      </trkpt>
      <trkpt lat="47.08463" lon="6.92439">
        <ele>1139.6</ele>
      </trkpt>
      <trkpt lat="47.08454" lon="6.9245">
        <ele>1135.9</ele>
      </trkpt>
      <trkpt lat="47.08437" lon="6.92481">
        <ele>1127.6</ele>
      </trkpt>
      <trkpt lat="47.08412" lon="6.9252">
        <ele>1119.1</ele>
      </trkpt>
      <trkpt lat="47.08388" lon="6.9256">
        <ele>1115.7</ele>
      </trkpt>
      <trkpt lat="47.08383" lon="6.92567">
        <ele>1115.2</ele>
      </trkpt>
      <trkpt lat="47.08378" lon="6.92569">
        <ele>1115.1</ele>
      </trkpt>
      <trkpt lat="47.0837" lon="6.92572">
        <ele>1115.1</ele>
      </trkpt>
      <trkpt lat="47.08324" lon="6.92579">
        <ele>1113.5</ele>
      </trkpt>
      <trkpt lat="47.08297" lon="6.92595">
        <ele>1106.1</ele>
      </trkpt>
      <trkpt lat="47.08289" lon="6.92599">
        <ele>1104.1</ele>
      </trkpt>
      <trkpt lat="47.08272" lon="6.92609">
        <ele>1100</ele>
      </trkpt>
      <trkpt lat="47.08231" lon="6.92637">
        <ele>1094.3</ele>
      </trkpt>
      <trkpt lat="47.08213" lon="6.9265">
        <ele>1093.8</ele>
      </trkpt>
      <trkpt lat="47.08183" lon="6.92671">
        <ele>1094.1</ele>
      </trkpt>
      <trkpt lat="47.08175" lon="6.92676">
        <ele>1094.4</ele>
      </trkpt>
      <trkpt lat="47.08167" lon="6.9268">
        <ele>1094.8</ele>
      </trkpt>
      <trkpt lat="47.08171" lon="6.92691">
        <ele>1094.4</ele>
      </trkpt>
      <trkpt lat="47.08175" lon="6.92703">
        <ele>1094</ele>
      </trkpt>
      <trkpt lat="47.0821" lon="6.92756">
        <ele>1089.9</ele>
      </trkpt>
      <trkpt lat="47.08221" lon="6.92829">
        <ele>1090.3</ele>
      </trkpt>
      <trkpt lat="47.08234" lon="6.92848">
        <ele>1089.3</ele>
      </trkpt>
      <trkpt lat="47.08281" lon="6.92868">
        <ele>1086</ele>
      </trkpt>
      <trkpt lat="47.08302" lon="6.92885">
        <ele>1084.1</ele>
      </trkpt>
      <trkpt lat="47.0833" lon="6.9293">
        <ele>1080.9</ele>
      </trkpt>
      <trkpt lat="47.08341" lon="6.92974">
        <ele>1078.5</ele>
      </trkpt>
      <trkpt lat="47.08359" lon="6.93012">
        <ele>1075</ele>
      </trkpt>
      <trkpt lat="47.08377" lon="6.93071">
        <ele>1072.7</ele>
      </trkpt>
      <trkpt lat="47.08389" lon="6.93108">
        <ele>1070.3</ele>
      </trkpt>
      <trkpt lat="47.0842" lon="6.9316">
        <ele>1067.8</ele>
      </trkpt>
      <trkpt lat="47.08433" lon="6.93199">
        <ele>1065</ele>
      </trkpt>
      <trkpt lat="47.08469" lon="6.93244">
        <ele>1059.6</ele>
      </trkpt>
      <trkpt lat="47.08483" lon="6.93271">
        <ele>1058.3</ele>
      </trkpt>
      <trkpt lat="47.08496" lon="6.933">
        <ele>1059</ele>
      </trkpt>
      <trkpt lat="47.08505" lon="6.93305">
        <ele>1058.5</ele>
      </trkpt>
      <trkpt lat="47.08557" lon="6.93379">
        <ele>1048</ele>
      </trkpt>
      <trkpt lat="47.08565" lon="6.93403">
        <ele>1045.9</ele>
      </trkpt>
      <trkpt lat="47.08566" lon="6.93429">
        <ele>1045.5</ele>
      </trkpt>
      <trkpt lat="47.08571" lon="6.93447">
        <ele>1044.9</ele>
      </trkpt>
      <trkpt lat="47.08622" lon="6.9354">
        <ele>1040.5</ele>
      </trkpt>
      <trkpt lat="47.08627" lon="6.93542">
        <ele>1040.1</ele>
      </trkpt>
      <trkpt lat="47.08634" lon="6.93574">
        <ele>1039.9</ele>
      </trkpt>
      <trkpt lat="47.08624" lon="6.93593">
        <ele>1040</ele>
      </trkpt>
      <trkpt lat="47.08617" lon="6.93602">
        <ele>1039.7</ele>
      </trkpt>
      <trkpt lat="47.08599" lon="6.9363">
        <ele>1038.2</ele>
      </trkpt>
      <trkpt lat="47.08588" lon="6.93644">
        <ele>1037.1</ele>
      </trkpt>
      <trkpt lat="47.08582" lon="6.9365">
        <ele>1036.5</ele>
      </trkpt>
      <trkpt lat="47.08576" lon="6.93657">
        <ele>1035.7</ele>
      </trkpt>
      <trkpt lat="47.08571" lon="6.9366">
        <ele>1035.2</ele>
      </trkpt>
      <trkpt lat="47.08565" lon="6.93665">
        <ele>1034.5</ele>
      </trkpt>
      <trkpt lat="47.08558" lon="6.9367">
        <ele>1034.1</ele>
      </trkpt>
      <trkpt lat="47.08552" lon="6.93674">
        <ele>1033.8</ele>
      </trkpt>
      <trkpt lat="47.08545" lon="6.93676">
        <ele>1033.6</ele>
      </trkpt>
      <trkpt lat="47.08556" lon="6.93683">
        <ele>1033.8</ele>
      </trkpt>
      <trkpt lat="47.08567" lon="6.93691">
        <ele>1033.9</ele>
      </trkpt>
      <trkpt lat="47.08578" lon="6.93701">
        <ele>1033.7</ele>
      </trkpt>
      <trkpt lat="47.08589" lon="6.93714">
        <ele>1033.4</ele>
      </trkpt>
      <trkpt lat="47.086" lon="6.93734">
        <ele>1032.8</ele>
      </trkpt>
      <trkpt lat="47.08614" lon="6.93755">
        <ele>1032.3</ele>
      </trkpt>
      <trkpt lat="47.08627" lon="6.93774">
        <ele>1031.9</ele>
      </trkpt>
      <trkpt lat="47.08639" lon="6.93792">
        <ele>1031.5</ele>
      </trkpt>
      <trkpt lat="47.08648" lon="6.93807">
        <ele>1031</ele>
      </trkpt>
      <trkpt lat="47.08655" lon="6.93825">
        <ele>1030.4</ele>
      </trkpt>
      <trkpt lat="47.08666" lon="6.93856">
        <ele>1028.7</ele>
      </trkpt>
      <trkpt lat="47.08682" lon="6.9391">
        <ele>1024.5</ele>
      </trkpt>
      <trkpt lat="47.08703" lon="6.93978">
        <ele>1027.8</ele>
      </trkpt>
      <trkpt lat="47.08707" lon="6.93991">
        <ele>1028.5</ele>
      </trkpt>
      <trkpt lat="47.0872" lon="6.94031">
        <ele>1029.8</ele>
      </trkpt>
      <trkpt lat="47.08726" lon="6.94074">
        <ele>1031.7</ele>
      </trkpt>
      <trkpt lat="47.08728" lon="6.94092">
        <ele>1032.1</ele>
      </trkpt>
      <trkpt lat="47.08728" lon="6.94119">
        <ele>1032.1</ele>
      </trkpt>
      <trkpt lat="47.08727" lon="6.94145">
        <ele>1032.2</ele>
      </trkpt>
      <trkpt lat="47.08725" lon="6.94174">
        <ele>1032.7</ele>
      </trkpt>
      <trkpt lat="47.08721" lon="6.9421">
        <ele>1034.3</ele>
      </trkpt>
      <trkpt lat="47.08719" lon="6.94239">
        <ele>1035.5</ele>
      </trkpt>
      <trkpt lat="47.08735" lon="6.94336">
        <ele>1036</ele>
      </trkpt>
      <trkpt lat="47.0874" lon="6.94358">
        <ele>1037.1</ele>
      </trkpt>
      <trkpt lat="47.08749" lon="6.94398">
        <ele>1038.9</ele>
      </trkpt>
      <trkpt lat="47.08752" lon="6.9441">
        <ele>1039.3</ele>
      </trkpt>
      <trkpt lat="47.08801" lon="6.94571">
        <ele>1041.3</ele>
      </trkpt>
      <trkpt lat="47.08805" lon="6.94582">
        <ele>1041</ele>
      </trkpt>
      <trkpt lat="47.0882" lon="6.94622">
        <ele>1041.3</ele>
      </trkpt>
      <trkpt lat="47.08855" lon="6.9474">
        <ele>1039.8</ele>
      </trkpt>
      <trkpt lat="47.08883" lon="6.9495">
        <ele>1037.6</ele>
      </trkpt>
      <trkpt lat="47.08919" lon="6.95172">
        <ele>1033.3</ele>
      </trkpt>
      <trkpt lat="47.08925" lon="6.95312">
        <ele>1035</ele>
      </trkpt>
      <trkpt lat="47.08943" lon="6.95508">
        <ele>1024</ele>
      </trkpt>
      <trkpt lat="47.08953" lon="6.95708">
        <ele>1013.9</ele>
      </trkpt>
      <trkpt lat="47.08948" lon="6.95738">
        <ele>1013.7</ele>
      </trkpt>
      <trkpt lat="47.08946" lon="6.95769">
        <ele>1014.1</ele>
      </trkpt>
      <trkpt lat="47.08961" lon="6.95956">
        <ele>1010.3</ele>
      </trkpt>
      <trkpt lat="47.08948" lon="6.9604">
        <ele>1012.4</ele>
      </trkpt>
      <trkpt lat="47.08949" lon="6.9606">
        <ele>1011.8</ele>
      </trkpt>
      <trkpt lat="47.08935" lon="6.9618">
        <ele>1011.9</ele>
      </trkpt>
      <trkpt lat="47.08945" lon="6.96229">
        <ele>1009.2</ele>
      </trkpt>
      <trkpt lat="47.08943" lon="6.96271">
        <ele>1006.3</ele>
      </trkpt>
      <trkpt lat="47.08952" lon="6.96319">
        <ele>1000.4</ele>
      </trkpt>
      <trkpt lat="47.0897" lon="6.96402">
        <ele>994.7</ele>
      </trkpt>
      <trkpt lat="47.08966" lon="6.96524">
        <ele>992.5</ele>
      </trkpt>
      <trkpt lat="47.08977" lon="6.96671">
        <ele>986.1</ele>
      </trkpt>
      <trkpt lat="47.08991" lon="6.96807">
        <ele>976.3</ele>
      </trkpt>
      <trkpt lat="47.08983" lon="6.96832">
        <ele>975.5</ele>
      </trkpt>
      <trkpt lat="47.08998" lon="6.96843">
        <ele>973.8</ele>
      </trkpt>
      <trkpt lat="47.09017" lon="6.96845">
        <ele>971.4</ele>
      </trkpt>
      <trkpt lat="47.09076" lon="6.96855">
        <ele>963.7</ele>
      </trkpt>
      <trkpt lat="47.091" lon="6.9689">
        <ele>959</ele>
      </trkpt>
      <trkpt lat="47.09116" lon="6.96907">
        <ele>955.7</ele>
      </trkpt>
      <trkpt lat="47.09127" lon="6.96912">
        <ele>953.6</ele>
      </trkpt>
      <trkpt lat="47.09156" lon="6.96915">
        <ele>948</ele>
      </trkpt>
      <trkpt lat="47.09231" lon="6.96894">
        <ele>931.5</ele>
      </trkpt>
      <trkpt lat="47.09264" lon="6.96872">
        <ele>922.2</ele>
      </trkpt>
      <trkpt lat="47.09287" lon="6.96857">
        <ele>914.6</ele>
      </trkpt>
      <trkpt lat="47.09304" lon="6.96858">
        <ele>910.1</ele>
      </trkpt>
      <trkpt lat="47.09365" lon="6.96843">
        <ele>890.3</ele>
      </trkpt>
      <trkpt lat="47.09449" lon="6.96834">
        <ele>875.4</ele>
      </trkpt>
      <trkpt lat="47.09472" lon="6.96845">
        <ele>877.2</ele>
      </trkpt>
      <trkpt lat="47.09497" lon="6.96888">
        <ele>878.9</ele>
      </trkpt>
      <trkpt lat="47.0953" lon="6.96914">
        <ele>882.3</ele>
      </trkpt>
      <trkpt lat="47.09559" lon="6.96914">
        <ele>885.5</ele>
      </trkpt>
      <trkpt lat="47.09602" lon="6.96891">
        <ele>890.8</ele>
      </trkpt>
      <trkpt lat="47.09624" lon="6.96906">
        <ele>892.6</ele>
      </trkpt>
      <trkpt lat="47.09627" lon="6.96922">
        <ele>892.3</ele>
      </trkpt>
      <trkpt lat="47.09632" lon="6.96969">
        <ele>889.6</ele>
      </trkpt>
      <trkpt lat="47.09644" lon="6.97091">
        <ele>885</ele>
      </trkpt>
      <trkpt lat="47.09647" lon="6.97159">
        <ele>885.5</ele>
      </trkpt>
      <trkpt lat="47.09655" lon="6.97338">
        <ele>880.9</ele>
      </trkpt>
      <trkpt lat="47.09618" lon="6.97909">
        <ele>868.2</ele>
      </trkpt>
      <trkpt lat="47.09618" lon="6.97912">
        <ele>868.1</ele>
      </trkpt>
      <trkpt lat="47.09614" lon="6.9794">
        <ele>867.8</ele>
      </trkpt>
      <trkpt lat="47.09613" lon="6.97949">
        <ele>867.7</ele>
      </trkpt>
      <trkpt lat="47.0961" lon="6.9797">
        <ele>867.4</ele>
      </trkpt>
      <trkpt lat="47.09599" lon="6.98001">
        <ele>866.4</ele>
      </trkpt>
      <trkpt lat="47.09622" lon="6.98017">
        <ele>869</ele>
      </trkpt>
      <trkpt lat="47.09642" lon="6.98051">
        <ele>871.9</ele>
      </trkpt>
      <trkpt lat="47.0965" lon="6.98088">
        <ele>873.9</ele>
      </trkpt>
      <trkpt lat="47.09661" lon="6.98172">
        <ele>876</ele>
      </trkpt>
      <trkpt lat="47.09693" lon="6.98272">
        <ele>879.7</ele>
      </trkpt>
      <trkpt lat="47.09709" lon="6.98321">
        <ele>881.2</ele>
      </trkpt>
      <trkpt lat="47.09727" lon="6.98365">
        <ele>883.5</ele>
      </trkpt>
      <trkpt lat="47.09744" lon="6.98414">
        <ele>886.6</ele>
      </trkpt>
      <trkpt lat="47.09777" lon="6.98495">
        <ele>889.8</ele>
      </trkpt>
      <trkpt lat="47.09782" lon="6.98508">
        <ele>890.3</ele>
      </trkpt>
      <trkpt lat="47.09808" lon="6.98567">
        <ele>891.9</ele>
      </trkpt>
      <trkpt lat="47.09825" lon="6.98606">
        <ele>892.3</ele>
      </trkpt>
      <trkpt lat="47.09829" lon="6.98628">
        <ele>892.2</ele>
      </trkpt>
      <trkpt lat="47.09838" lon="6.98676">
        <ele>892.7</ele>
      </trkpt>
      <trkpt lat="47.09804" lon="6.98691">
        <ele>890.2</ele>
      </trkpt>
      <trkpt lat="47.09785" lon="6.9871">
        <ele>889.1</ele>
      </trkpt>
      <trkpt lat="47.09777" lon="6.98716">
        <ele>888.6</ele>
      </trkpt>
      <trkpt lat="47.09763" lon="6.98754">
        <ele>888.2</ele>
      </trkpt>
      <trkpt lat="47.09753" lon="6.98777">
        <ele>889.1</ele>
      </trkpt>
      <trkpt lat="47.09754" lon="6.98793">
        <ele>890.2</ele>
      </trkpt>
      <trkpt lat="47.09755" lon="6.98816">
        <ele>891.9</ele>
      </trkpt>
      <trkpt lat="47.0976" lon="6.98836">
        <ele>893.1</ele>
      </trkpt>
      <trkpt lat="47.09771" lon="6.98858">
        <ele>894.1</ele>
      </trkpt>
      <trkpt lat="47.09801" lon="6.98899">
        <ele>895.7</ele>
      </trkpt>
      <trkpt lat="47.09809" lon="6.98913">
        <ele>896.1</ele>
      </trkpt>
      <trkpt lat="47.09818" lon="6.98924">
        <ele>896.6</ele>
      </trkpt>
      <trkpt lat="47.09811" lon="6.98936">
        <ele>897.1</ele>
      </trkpt>
      <trkpt lat="47.09792" lon="6.98963">
        <ele>897.9</ele>
      </trkpt>
      <trkpt lat="47.09734" lon="6.99056">
        <ele>903.8</ele>
      </trkpt>
      <trkpt lat="47.09713" lon="6.99089">
        <ele>912.8</ele>
      </trkpt>
      <trkpt lat="47.09697" lon="6.99094">
        <ele>917.9</ele>
      </trkpt>
      <trkpt lat="47.09663" lon="6.99089">
        <ele>924.3</ele>
      </trkpt>
      <trkpt lat="47.09627" lon="6.99078">
        <ele>928.6</ele>
      </trkpt>
      <trkpt lat="47.09606" lon="6.99069">
        <ele>930.5</ele>
      </trkpt>
      <trkpt lat="47.09599" lon="6.99073">
        <ele>933</ele>
      </trkpt>
      <trkpt lat="47.09598" lon="6.99085">
        <ele>936.4</ele>
      </trkpt>
      <trkpt lat="47.09606" lon="6.99109">
        <ele>941.7</ele>
      </trkpt>
      <trkpt lat="47.09628" lon="6.99163">
        <ele>952.9</ele>
      </trkpt>
      <trkpt lat="47.09664" lon="6.99264">
        <ele>968</ele>
      </trkpt>
      <trkpt lat="47.09679" lon="6.99294">
        <ele>971.8</ele>
      </trkpt>
      <trkpt lat="47.09719" lon="6.99373">
        <ele>984</ele>
      </trkpt>
      <trkpt lat="47.09736" lon="6.99403">
        <ele>987.8</ele>
      </trkpt>
      <trkpt lat="47.09753" lon="6.99432">
        <ele>991.3</ele>
      </trkpt>
      <trkpt lat="47.09799" lon="6.99492">
        <ele>996.8</ele>
      </trkpt>
      <trkpt lat="47.09823" lon="6.99533">
        <ele>1002</ele>
      </trkpt>
      <trkpt lat="47.09858" lon="6.99567">
        <ele>1005.7</ele>
      </trkpt>
      <trkpt lat="47.0987" lon="6.99579">
        <ele>1007.5</ele>
      </trkpt>
      <trkpt lat="47.09918" lon="6.99601">
        <ele>1009.5</ele>
      </trkpt>
      <trkpt lat="47.09966" lon="6.99612">
        <ele>1005</ele>
      </trkpt>
      <trkpt lat="47.10013" lon="6.99626">
        <ele>1001.5</ele>
      </trkpt>
      <trkpt lat="47.10076" lon="6.99662">
        <ele>998.6</ele>
      </trkpt>
      <trkpt lat="47.101" lon="6.99679">
        <ele>999.9</ele>
      </trkpt>
      <trkpt lat="47.10128" lon="6.99694">
        <ele>999.8</ele>
      </trkpt>
      <trkpt lat="47.10159" lon="6.99716">
        <ele>1000.3</ele>
      </trkpt>
      <trkpt lat="47.10184" lon="6.9973">
        <ele>1000</ele>
      </trkpt>
      <trkpt lat="47.10235" lon="6.99758">
        <ele>999.1</ele>
      </trkpt>
      <trkpt lat="47.10256" lon="6.99773">
        <ele>998.8</ele>
      </trkpt>
      <trkpt lat="47.10275" lon="6.99785">
        <ele>997.6</ele>
      </trkpt>
      <trkpt lat="47.10335" lon="6.99826">
        <ele>989.6</ele>
      </trkpt>
      <trkpt lat="47.1037" lon="6.9984">
        <ele>984.6</ele>
      </trkpt>
      <trkpt lat="47.1039" lon="6.99848">
        <ele>982.3</ele>
      </trkpt>
      <trkpt lat="47.10405" lon="6.99858">
        <ele>980.8</ele>
      </trkpt>
      <trkpt lat="47.10431" lon="6.99877">
        <ele>979.1</ele>
      </trkpt>
      <trkpt lat="47.1045" lon="6.999">
        <ele>978.8</ele>
      </trkpt>
      <trkpt lat="47.10461" lon="6.99915">
        <ele>978.1</ele>
      </trkpt>
      <trkpt lat="47.10485" lon="6.99948">
        <ele>978.2</ele>
      </trkpt>
      <trkpt lat="47.10507" lon="6.99973">
        <ele>978.4</ele>
      </trkpt>
      <trkpt lat="47.10527" lon="7.00002">
        <ele>982.1</ele>
      </trkpt>
      <trkpt lat="47.10553" lon="7.00036">
        <ele>984.3</ele>
      </trkpt>
      <trkpt lat="47.10574" lon="7.00057">
        <ele>982.3</ele>
      </trkpt>
      <trkpt lat="47.10599" lon="7.00103">
        <ele>986.1</ele>
      </trkpt>
      <trkpt lat="47.1064" lon="7.00183">
        <ele>991</ele>
      </trkpt>
      <trkpt lat="47.10656" lon="7.00211">
        <ele>990.2</ele>
      </trkpt>
      <trkpt lat="47.10666" lon="7.00256">
        <ele>989.4</ele>
      </trkpt>
      <trkpt lat="47.1066" lon="7.00309">
        <ele>1001.2</ele>
      </trkpt>
      <trkpt lat="47.10654" lon="7.00337">
        <ele>1008.5</ele>
      </trkpt>
      <trkpt lat="47.10654" lon="7.0037">
        <ele>1014.3</ele>
      </trkpt>
      <trkpt lat="47.10646" lon="7.0039">
        <ele>1020.2</ele>
      </trkpt>
      <trkpt lat="47.10641" lon="7.00394">
        <ele>1022.2</ele>
      </trkpt>
      <trkpt lat="47.10633" lon="7.00414">
        <ele>1028.1</ele>
      </trkpt>
      <trkpt lat="47.10625" lon="7.00439">
        <ele>1034.4</ele>
      </trkpt>
      <trkpt lat="47.10636" lon="7.00467">
        <ele>1036.3</ele>
      </trkpt>
      <trkpt lat="47.10637" lon="7.00491">
        <ele>1040.1</ele>
      </trkpt>
      <trkpt lat="47.10631" lon="7.00513">
        <ele>1045.8</ele>
      </trkpt>
      <trkpt lat="47.10638" lon="7.0053">
        <ele>1049.1</ele>
      </trkpt>
      <trkpt lat="47.10632" lon="7.00563">
        <ele>1057.6</ele>
      </trkpt>
      <trkpt lat="47.10629" lon="7.00602">
        <ele>1067.3</ele>
      </trkpt>
      <trkpt lat="47.10633" lon="7.00623">
        <ele>1072.8</ele>
      </trkpt>
      <trkpt lat="47.10643" lon="7.00626">
        <ele>1073.5</ele>
      </trkpt>
      <trkpt lat="47.10661" lon="7.00687">
        <ele>1088.3</ele>
      </trkpt>
      <trkpt lat="47.1064" lon="7.00743">
        <ele>1095</ele>
      </trkpt>
      <trkpt lat="47.10629" lon="7.00808">
        <ele>1100.7</ele>
      </trkpt>
      <trkpt lat="47.10632" lon="7.00847">
        <ele>1104.8</ele>
      </trkpt>
      <trkpt lat="47.1063" lon="7.0087">
        <ele>1108.3</ele>
      </trkpt>
      <trkpt lat="47.10628" lon="7.00893">
        <ele>1111.7</ele>
      </trkpt>
      <trkpt lat="47.10629" lon="7.00924">
        <ele>1115.7</ele>
      </trkpt>
      <trkpt lat="47.1061" lon="7.00974">
        <ele>1117.7</ele>
      </trkpt>
      <trkpt lat="47.10605" lon="7.01017">
        <ele>1119.8</ele>
      </trkpt>
      <trkpt lat="47.10616" lon="7.01053">
        <ele>1122.6</ele>
      </trkpt>
      <trkpt lat="47.10619" lon="7.01071">
        <ele>1123.7</ele>
      </trkpt>
      <trkpt lat="47.10626" lon="7.01095">
        <ele>1126.1</ele>
      </trkpt>
      <trkpt lat="47.10629" lon="7.01111">
        <ele>1128.1</ele>
      </trkpt>
      <trkpt lat="47.10634" lon="7.01119">
        <ele>1129.1</ele>
      </trkpt>
      <trkpt lat="47.10636" lon="7.01133">
        <ele>1130.6</ele>
      </trkpt>
      <trkpt lat="47.1064" lon="7.01153">
        <ele>1132.5</ele>
      </trkpt>
      <trkpt lat="47.10655" lon="7.01167">
        <ele>1131.7</ele>
      </trkpt>
      <trkpt lat="47.10682" lon="7.01237">
        <ele>1148.3</ele>
      </trkpt>
      <trkpt lat="47.10708" lon="7.01271">
        <ele>1162.6</ele>
      </trkpt>
      <trkpt lat="47.10713" lon="7.013">
        <ele>1169.8</ele>
      </trkpt>
      <trkpt lat="47.10723" lon="7.0132">
        <ele>1174.2</ele>
      </trkpt>
      <trkpt lat="47.10727" lon="7.01331">
        <ele>1175.9</ele>
      </trkpt>
      <trkpt lat="47.1073" lon="7.01336">
        <ele>1176.7</ele>
      </trkpt>
      <trkpt lat="47.10737" lon="7.01344">
        <ele>1177.8</ele>
      </trkpt>
      <trkpt lat="47.10741" lon="7.013">
        <ele>1171.9</ele>
      </trkpt>
      <trkpt lat="47.10747" lon="7.01297">
        <ele>1172.1</ele>
      </trkpt>
      <trkpt lat="47.10775" lon="7.01357">
        <ele>1189.8</ele>
      </trkpt>
      <trkpt lat="47.10794" lon="7.01394">
        <ele>1198.7</ele>
      </trkpt>
      <trkpt lat="47.10812" lon="7.01425">
        <ele>1205.1</ele>
      </trkpt>
      <trkpt lat="47.10828" lon="7.01441">
        <ele>1210.5</ele>
      </trkpt>
      <trkpt lat="47.10841" lon="7.0148">
        <ele>1217.1</ele>
      </trkpt>
      <trkpt lat="47.10884" lon="7.01487">
        <ele>1235.7</ele>
      </trkpt>
      <trkpt lat="47.10909" lon="7.01515">
        <ele>1242.8</ele>
      </trkpt>
      <trkpt lat="47.10927" lon="7.01536">
        <ele>1246.7</ele>
      </trkpt>
      <trkpt lat="47.10941" lon="7.01556">
        <ele>1248.8</ele>
      </trkpt>
      <trkpt lat="47.10957" lon="7.01574">
        <ele>1250.7</ele>
      </trkpt>
      <trkpt lat="47.10993" lon="7.01606">
        <ele>1257.7</ele>
      </trkpt>
      <trkpt lat="47.11013" lon="7.01642">
        <ele>1259.5</ele>
      </trkpt>
      <trkpt lat="47.11036" lon="7.01675">
        <ele>1264.2</ele>
      </trkpt>
      <trkpt lat="47.1108" lon="7.0171">
        <ele>1271.5</ele>
      </trkpt>
      <trkpt lat="47.11124" lon="7.01736">
        <ele>1279.8</ele>
      </trkpt>
      <trkpt lat="47.11134" lon="7.01756">
        <ele>1279.5</ele>
      </trkpt>
      <trkpt lat="47.11153" lon="7.01771">
        <ele>1284.1</ele>
      </trkpt>
      <trkpt lat="47.11175" lon="7.01809">
        <ele>1284.8</ele>
      </trkpt>
      <trkpt lat="47.11209" lon="7.01839">
        <ele>1287.8</ele>
      </trkpt>
      <trkpt lat="47.11223" lon="7.01844">
        <ele>1290</ele>
      </trkpt>
      <trkpt lat="47.11249" lon="7.01871">
        <ele>1292.5</ele>
      </trkpt>
      <trkpt lat="47.11276" lon="7.01884">
        <ele>1294.7</ele>
      </trkpt>
      <trkpt lat="47.11281" lon="7.01889">
        <ele>1294.5</ele>
      </trkpt>
      <trkpt lat="47.11282" lon="7.01899">
        <ele>1293.5</ele>
      </trkpt>
      <trkpt lat="47.11301" lon="7.01908">
        <ele>1292.2</ele>
      </trkpt>
      <trkpt lat="47.11316" lon="7.01947">
        <ele>1295.5</ele>
      </trkpt>
      <trkpt lat="47.11323" lon="7.01978">
        <ele>1299.8</ele>
      </trkpt>
      <trkpt lat="47.11345" lon="7.02006">
        <ele>1301.9</ele>
      </trkpt>
      <trkpt lat="47.1137" lon="7.02043">
        <ele>1308.4</ele>
      </trkpt>
      <trkpt lat="47.11393" lon="7.02089">
        <ele>1314.9</ele>
      </trkpt>
      <trkpt lat="47.11421" lon="7.02126">
        <ele>1318.4</ele>
      </trkpt>
      <trkpt lat="47.11431" lon="7.02142">
        <ele>1320.9</ele>
      </trkpt>
      <trkpt lat="47.11464" lon="7.02186">
        <ele>1325.3</ele>
      </trkpt>
      <trkpt lat="47.11484" lon="7.02222">
        <ele>1330.6</ele>
      </trkpt>
      <trkpt lat="47.11502" lon="7.0227">
        <ele>1338.2</ele>
      </trkpt>
      <trkpt lat="47.11521" lon="7.02312">
        <ele>1346.8</ele>
      </trkpt>
      <trkpt lat="47.11537" lon="7.02365">
        <ele>1358.5</ele>
      </trkpt>
      <trkpt lat="47.11538" lon="7.02379">
        <ele>1362.2</ele>
      </trkpt>
      <trkpt lat="47.11565" lon="7.02392">
        <ele>1358.6</ele>
      </trkpt>
      <trkpt lat="47.11629" lon="7.02449">
        <ele>1363.3</ele>
      </trkpt>
      <trkpt lat="47.11646" lon="7.02475">
        <ele>1367.5</ele>
      </trkpt>
      <trkpt lat="47.1167" lon="7.02494">
        <ele>1367.5</ele>
      </trkpt>
      <trkpt lat="47.1171" lon="7.02542">
        <ele>1378.3</ele>
      </trkpt>
      <trkpt lat="47.1173" lon="7.02556">
        <ele>1379.2</ele>
      </trkpt>
      <trkpt lat="47.11747" lon="7.02577">
        <ele>1381.2</ele>
      </trkpt>
      <trkpt lat="47.11762" lon="7.02583">
        <ele>1381.6</ele>
      </trkpt>
      <trkpt lat="47.11825" lon="7.02639">
        <ele>1387.7</ele>
      </trkpt>
      <trkpt lat="47.11875" lon="7.02674">
        <ele>1392.1</ele>
      </trkpt>
      <trkpt lat="47.11941" lon="7.02745">
        <ele>1400.5</ele>
      </trkpt>
      <trkpt lat="47.11956" lon="7.02759">
        <ele>1401.4</ele>
      </trkpt>
      <trkpt lat="47.12021" lon="7.02842">
        <ele>1406.9</ele>
      </trkpt>
      <trkpt lat="47.12035" lon="7.02853">
        <ele>1407.7</ele>
      </trkpt>
      <trkpt lat="47.12065" lon="7.02853">
        <ele>1404.6</ele>
      </trkpt>
      <trkpt lat="47.12074" lon="7.02858">
        <ele>1404.3</ele>
      </trkpt>
      <trkpt lat="47.12095" lon="7.02883">
        <ele>1404.2</ele>
      </trkpt>
      <trkpt lat="47.12115" lon="7.02906">
        <ele>1404.7</ele>
      </trkpt>
      <trkpt lat="47.12122" lon="7.02913">
        <ele>1404.7</ele>
      </trkpt>
      <trkpt lat="47.1217" lon="7.02971">
        <ele>1407.3</ele>
      </trkpt>
      <trkpt lat="47.12205" lon="7.03017">
        <ele>1410.1</ele>
      </trkpt>
      <trkpt lat="47.12215" lon="7.0303">
        <ele>1410.7</ele>
      </trkpt>
      <trkpt lat="47.12223" lon="7.03038">
        <ele>1410.9</ele>
      </trkpt>
      <trkpt lat="47.12243" lon="7.03051">
        <ele>1410.5</ele>
      </trkpt>
      <trkpt lat="47.1225" lon="7.03058">
        <ele>1410.6</ele>
      </trkpt>
      <trkpt lat="47.12259" lon="7.03071">
        <ele>1411.4</ele>
      </trkpt>
      <trkpt lat="47.12268" lon="7.03087">
        <ele>1412.5</ele>
      </trkpt>
      <trkpt lat="47.12277" lon="7.03101">
        <ele>1413.5</ele>
      </trkpt>
      <trkpt lat="47.12293" lon="7.03123">
        <ele>1414.2</ele>
      </trkpt>
      <trkpt lat="47.12314" lon="7.0315">
        <ele>1413.8</ele>
      </trkpt>
      <trkpt lat="47.12327" lon="7.03168">
        <ele>1413.1</ele>
      </trkpt>
      <trkpt lat="47.12336" lon="7.03182">
        <ele>1413.3</ele>
      </trkpt>
      <trkpt lat="47.12363" lon="7.03227">
        <ele>1416.1</ele>
      </trkpt>
      <trkpt lat="47.12372" lon="7.03238">
        <ele>1416.6</ele>
      </trkpt>
      <trkpt lat="47.12381" lon="7.03249">
        <ele>1417</ele>
      </trkpt>
      <trkpt lat="47.12389" lon="7.03255">
        <ele>1417.1</ele>
      </trkpt>
      <trkpt lat="47.12402" lon="7.03265">
        <ele>1416.9</ele>
      </trkpt>
      <trkpt lat="47.12412" lon="7.03267">
        <ele>1416.4</ele>
      </trkpt>
      <trkpt lat="47.12423" lon="7.03271">
        <ele>1416</ele>
      </trkpt>
      <trkpt lat="47.12507" lon="7.03312">
        <ele>1414</ele>
      </trkpt>
      <trkpt lat="47.12515" lon="7.03319">
        <ele>1413.7</ele>
      </trkpt>
      <trkpt lat="47.12521" lon="7.03325">
        <ele>1413.5</ele>
      </trkpt>
      <trkpt lat="47.12524" lon="7.03328">
        <ele>1413.4</ele>
      </trkpt>
      <trkpt lat="47.12531" lon="7.03337">
        <ele>1413.1</ele>
      </trkpt>
      <trkpt lat="47.12541" lon="7.0335">
        <ele>1412.8</ele>
      </trkpt>
      <trkpt lat="47.12663" lon="7.03564">
        <ele>1400.9</ele>
      </trkpt>
      <trkpt lat="47.12715" lon="7.03812">
        <ele>1413.4</ele>
      </trkpt>
      <trkpt lat="47.12715" lon="7.03812">
        <ele>1413.4</ele>
      </trkpt>
      <trkpt lat="47.12679" lon="7.03968">
        <ele>1438.5</ele>
      </trkpt>
      <trkpt lat="47.12679" lon="7.03968">
        <ele>1438.5</ele>
      </trkpt>
      <trkpt lat="47.12686" lon="7.04051">
        <ele>1451.8</ele>
      </trkpt>
      <trkpt lat="47.12689" lon="7.04093">
        <ele>1458.7</ele>
      </trkpt>
      <trkpt lat="47.12697" lon="7.04136">
        <ele>1466</ele>
      </trkpt>
      <trkpt lat="47.12702" lon="7.04163">
        <ele>1470.3</ele>
      </trkpt>
      <trkpt lat="47.12707" lon="7.04201">
        <ele>1476.4</ele>
      </trkpt>
      <trkpt lat="47.12709" lon="7.04236">
        <ele>1483</ele>
      </trkpt>
      <trkpt lat="47.12714" lon="7.0428">
        <ele>1491.5</ele>
      </trkpt>
      <trkpt lat="47.12719" lon="7.04303">
        <ele>1495.9</ele>
      </trkpt>
      <trkpt lat="47.12719" lon="7.04331">
        <ele>1503.1</ele>
      </trkpt>
      <trkpt lat="47.12726" lon="7.04357">
        <ele>1505.9</ele>
      </trkpt>
      <trkpt lat="47.1273" lon="7.0437">
        <ele>1507.5</ele>
      </trkpt>
      <trkpt lat="47.12737" lon="7.04395">
        <ele>1511</ele>
      </trkpt>
      <trkpt lat="47.12754" lon="7.04459">
        <ele>1521.3</ele>
      </trkpt>
      <trkpt lat="47.12773" lon="7.0451">
        <ele>1526.6</ele>
      </trkpt>
      <trkpt lat="47.12789" lon="7.0454">
        <ele>1527.1</ele>
      </trkpt>
      <trkpt lat="47.12798" lon="7.04566">
        <ele>1529.9</ele>
      </trkpt>
      <trkpt lat="47.12807" lon="7.04616">
        <ele>1536.9</ele>
      </trkpt>
      <trkpt lat="47.12831" lon="7.04676">
        <ele>1545.8</ele>
      </trkpt>
      <trkpt lat="47.1283" lon="7.04685">
        <ele>1546.4</ele>
      </trkpt>
      <trkpt lat="47.12826" lon="7.04684">
        <ele>1546.3</ele>
      </trkpt>
      <trkpt lat="47.12803" lon="7.04671">
        <ele>1545.8</ele>
      </trkpt>
      <trkpt lat="47.12794" lon="7.0467">
        <ele>1545.9</ele>
      </trkpt>
      <trkpt lat="47.12813" lon="7.04691">
        <ele>1546.5</ele>
      </trkpt>
      <trkpt lat="47.1283" lon="7.04713">
        <ele>1548.6</ele>
      </trkpt>
      <trkpt lat="47.12838" lon="7.04725">
        <ele>1548.5</ele>
      </trkpt>
      <trkpt lat="47.12843" lon="7.04736">
        <ele>1548.3</ele>
      </trkpt>
      <trkpt lat="47.12849" lon="7.04747">
        <ele>1548.4</ele>
      </trkpt>
      <trkpt lat="47.12854" lon="7.0476">
        <ele>1548.1</ele>
      </trkpt>
      <trkpt lat="47.12858" lon="7.04774">
        <ele>1548.1</ele>
      </trkpt>
      <trkpt lat="47.12867" lon="7.048">
        <ele>1549</ele>
      </trkpt>
      <trkpt lat="47.12891" lon="7.04878">
        <ele>1555.2</ele>
      </trkpt>
      <trkpt lat="47.12921" lon="7.04967">
        <ele>1562</ele>
      </trkpt>
      <trkpt lat="47.12931" lon="7.05001">
        <ele>1563.2</ele>
      </trkpt>
      <trkpt lat="47.12935" lon="7.05012">
        <ele>1563.1</ele>
      </trkpt>
      <trkpt lat="47.1294" lon="7.05021">
        <ele>1563.2</ele>
      </trkpt>
      <trkpt lat="47.1296" lon="7.05053">
        <ele>1564.8</ele>
      </trkpt>
      <trkpt lat="47.12991" lon="7.05114">
        <ele>1567</ele>
      </trkpt>
      <trkpt lat="47.12996" lon="7.05121">
        <ele>1567.1</ele>
      </trkpt>
      <trkpt lat="47.13" lon="7.05125">
        <ele>1567.5</ele>
      </trkpt>
      <trkpt lat="47.13005" lon="7.05128">
        <ele>1567.3</ele>
      </trkpt>
      <trkpt lat="47.13011" lon="7.05131">
        <ele>1567.1</ele>
      </trkpt>
      <trkpt lat="47.1302" lon="7.05135">
        <ele>1567.1</ele>
      </trkpt>
      <trkpt lat="47.13042" lon="7.05143">
        <ele>1567.7</ele>
      </trkpt>
      <trkpt lat="47.13058" lon="7.05149">
        <ele>1568.7</ele>
      </trkpt>
      <trkpt lat="47.13078" lon="7.05156">
        <ele>1570.5</ele>
      </trkpt>
      <trkpt lat="47.13085" lon="7.05159">
        <ele>1570.8</ele>
      </trkpt>
      <trkpt lat="47.1309" lon="7.05164">
        <ele>1569.7</ele>
      </trkpt>
      <trkpt lat="47.13094" lon="7.05171">
        <ele>1569</ele>
      </trkpt>
      <trkpt lat="47.13097" lon="7.05179">
        <ele>1568.5</ele>
      </trkpt>
      <trkpt lat="47.131" lon="7.05189">
        <ele>1568.3</ele>
      </trkpt>
      <trkpt lat="47.13108" lon="7.05213">
        <ele>1568.4</ele>
      </trkpt>
      <trkpt lat="47.13121" lon="7.05242">
        <ele>1569.8</ele>
      </trkpt>
      <trkpt lat="47.13143" lon="7.05288">
        <ele>1573.2</ele>
      </trkpt>
      <trkpt lat="47.13157" lon="7.05327">
        <ele>1578.2</ele>
      </trkpt>
      <trkpt lat="47.1317" lon="7.05366">
        <ele>1581.6</ele>
      </trkpt>
      <trkpt lat="47.1318" lon="7.05392">
        <ele>1581.3</ele>
      </trkpt>
      <trkpt lat="47.13196" lon="7.05427">
        <ele>1580.8</ele>
      </trkpt>
      <trkpt lat="47.13212" lon="7.05466">
        <ele>1581.1</ele>
      </trkpt>
      <trkpt lat="47.1322" lon="7.05485">
        <ele>1582.1</ele>
      </trkpt>
      <trkpt lat="47.13225" lon="7.05496">
        <ele>1583.1</ele>
      </trkpt>
      <trkpt lat="47.13229" lon="7.05511">
        <ele>1583.6</ele>
      </trkpt>
      <trkpt lat="47.13232" lon="7.0553">
        <ele>1584.1</ele>
      </trkpt>
      <trkpt lat="47.13233" lon="7.05546">
        <ele>1584.6</ele>
      </trkpt>
      <trkpt lat="47.13234" lon="7.05558">
        <ele>1585.1</ele>
      </trkpt>
      <trkpt lat="47.13234" lon="7.05565">
        <ele>1585.4</ele>
      </trkpt>
      <trkpt lat="47.13234" lon="7.05572">
        <ele>1585.6</ele>
      </trkpt>
      <trkpt lat="47.13233" lon="7.05578">
        <ele>1585.8</ele>
      </trkpt>
      <trkpt lat="47.1323" lon="7.05584">
        <ele>1585.8</ele>
      </trkpt>
      <trkpt lat="47.1323" lon="7.05589">
        <ele>1585.7</ele>
      </trkpt>
      <trkpt lat="47.13231" lon="7.05598">
        <ele>1585.8</ele>
      </trkpt>
      <trkpt lat="47.13234" lon="7.05611">
        <ele>1586</ele>
      </trkpt>
      <trkpt lat="47.13238" lon="7.05623">
        <ele>1586.5</ele>
      </trkpt>
      <trkpt lat="47.13244" lon="7.05643">
        <ele>1587.5</ele>
      </trkpt>
      <trkpt lat="47.1325" lon="7.05672">
        <ele>1588.7</ele>
      </trkpt>
      <trkpt lat="47.13254" lon="7.05689">
        <ele>1586.9</ele>
      </trkpt>
      <trkpt lat="47.13256" lon="7.05704">
        <ele>1585.9</ele>
      </trkpt>
      <trkpt lat="47.13257" lon="7.05715">
        <ele>1585.4</ele>
      </trkpt>
      <trkpt lat="47.13257" lon="7.05729">
        <ele>1584.8</ele>
      </trkpt>
      <trkpt lat="47.13259" lon="7.05738">
        <ele>1584.3</ele>
      </trkpt>
      <trkpt lat="47.13262" lon="7.05746">
        <ele>1583.3</ele>
      </trkpt>
      <trkpt lat="47.13266" lon="7.05755">
        <ele>1582.3</ele>
      </trkpt>
      <trkpt lat="47.1327" lon="7.05765">
        <ele>1581.6</ele>
      </trkpt>
      <trkpt lat="47.13273" lon="7.05778">
        <ele>1581.1</ele>
      </trkpt>
      <trkpt lat="47.13276" lon="7.05786">
        <ele>1580.9</ele>
      </trkpt>
      <trkpt lat="47.1328" lon="7.05803">
        <ele>1580.7</ele>
      </trkpt>
      <trkpt lat="47.13282" lon="7.05821">
        <ele>1580.9</ele>
      </trkpt>
      <trkpt lat="47.13286" lon="7.05843">
        <ele>1581.2</ele>
      </trkpt>
      <trkpt lat="47.13294" lon="7.05888">
        <ele>1582.5</ele>
      </trkpt>
      <trkpt lat="47.13297" lon="7.05903">
        <ele>1583.2</ele>
      </trkpt>
      <trkpt lat="47.13299" lon="7.05915">
        <ele>1583.8</ele>
      </trkpt>
      <trkpt lat="47.13302" lon="7.05928">
        <ele>1585.6</ele>
      </trkpt>
      <trkpt lat="47.13303" lon="7.05936">
        <ele>1586.8</ele>
      </trkpt>
      <trkpt lat="47.13303" lon="7.05948">
        <ele>1588.8</ele>
      </trkpt>
      <trkpt lat="47.13301" lon="7.05967">
        <ele>1591.7</ele>
      </trkpt>
      <trkpt lat="47.1331" lon="7.05981">
        <ele>1594</ele>
      </trkpt>
      <trkpt lat="47.13319" lon="7.05998">
        <ele>1596.7</ele>
      </trkpt>
      <trkpt lat="47.13322" lon="7.06027">
        <ele>1595.8</ele>
      </trkpt>
      <trkpt lat="47.13323" lon="7.06054">
        <ele>1594.6</ele>
      </trkpt>
      <trkpt lat="47.13331" lon="7.06092">
        <ele>1593.2</ele>
      </trkpt>
      <trkpt lat="47.13341" lon="7.06142">
        <ele>1587.1</ele>
      </trkpt>
      <trkpt lat="47.13343" lon="7.06153">
        <ele>1585.7</ele>
      </trkpt>
      <trkpt lat="47.13343" lon="7.06158">
        <ele>1585.5</ele>
      </trkpt>
      <trkpt lat="47.13341" lon="7.0616">
        <ele>1586</ele>
      </trkpt>
      <trkpt lat="47.1334" lon="7.06164">
        <ele>1586.2</ele>
      </trkpt>
      <trkpt lat="47.13338" lon="7.06177">
        <ele>1585.4</ele>
      </trkpt>
      <trkpt lat="47.13339" lon="7.06183">
        <ele>1584.6</ele>
      </trkpt>
      <trkpt lat="47.13346" lon="7.06201">
        <ele>1580.9</ele>
      </trkpt>
      <trkpt lat="47.13351" lon="7.06242">
        <ele>1576.3</ele>
      </trkpt>
      <trkpt lat="47.13356" lon="7.06267">
        <ele>1573.2</ele>
      </trkpt>
      <trkpt lat="47.13359" lon="7.06276">
        <ele>1571.9</ele>
      </trkpt>
      <trkpt lat="47.1336" lon="7.06284">
        <ele>1571.1</ele>
      </trkpt>
      <trkpt lat="47.13364" lon="7.06288">
        <ele>1570.2</ele>
      </trkpt>
      <trkpt lat="47.13366" lon="7.06292">
        <ele>1569.7</ele>
      </trkpt>
      <trkpt lat="47.13378" lon="7.06298">
        <ele>1567.8</ele>
      </trkpt>
      <trkpt lat="47.1338" lon="7.063">
        <ele>1567.4</ele>
      </trkpt>
      <trkpt lat="47.13383" lon="7.06319">
        <ele>1566.2</ele>
      </trkpt>
      <trkpt lat="47.13387" lon="7.06328">
        <ele>1565.3</ele>
      </trkpt>
      <trkpt lat="47.13388" lon="7.06342">
        <ele>1564.6</ele>
      </trkpt>
      <trkpt lat="47.1339" lon="7.06355">
        <ele>1563.9</ele>
      </trkpt>
      <trkpt lat="47.13396" lon="7.06374">
        <ele>1563.3</ele>
      </trkpt>
      <trkpt lat="47.13397" lon="7.0639">
        <ele>1562.9</ele>
      </trkpt>
      <trkpt lat="47.13396" lon="7.06407">
        <ele>1562.4</ele>
      </trkpt>
      <trkpt lat="47.13408" lon="7.06485">
        <ele>1562.1</ele>
      </trkpt>
      <trkpt lat="47.13418" lon="7.06528">
        <ele>1561.9</ele>
      </trkpt>
      <trkpt lat="47.13429" lon="7.06588">
        <ele>1556.3</ele>
      </trkpt>
      <trkpt lat="47.13444" lon="7.0662">
        <ele>1552.7</ele>
      </trkpt>
      <trkpt lat="47.13454" lon="7.06667">
        <ele>1550.9</ele>
      </trkpt>
      <trkpt lat="47.13469" lon="7.06724">
        <ele>1549</ele>
      </trkpt>
      <trkpt lat="47.13487" lon="7.0679">
        <ele>1549.9</ele>
      </trkpt>
      <trkpt lat="47.13506" lon="7.06854">
        <ele>1549</ele>
      </trkpt>
      <trkpt lat="47.13518" lon="7.06896">
        <ele>1542.2</ele>
      </trkpt>
      <trkpt lat="47.13531" lon="7.0692">
        <ele>1538.2</ele>
      </trkpt>
      <trkpt lat="47.13539" lon="7.06952">
        <ele>1534.8</ele>
      </trkpt>
      <trkpt lat="47.13559" lon="7.07008">
        <ele>1533</ele>
      </trkpt>
      <trkpt lat="47.13582" lon="7.07053">
        <ele>1536.3</ele>
      </trkpt>
      <trkpt lat="47.13608" lon="7.07125">
        <ele>1530.8</ele>
      </trkpt>
      <trkpt lat="47.13624" lon="7.0719">
        <ele>1527.3</ele>
      </trkpt>
      <trkpt lat="47.1363" lon="7.07254">
        <ele>1524.4</ele>
      </trkpt>
      <trkpt lat="47.13639" lon="7.07311">
        <ele>1523.9</ele>
      </trkpt>
      <trkpt lat="47.13654" lon="7.07376">
        <ele>1524.1</ele>
      </trkpt>
      <trkpt lat="47.13666" lon="7.07418">
        <ele>1526.5</ele>
      </trkpt>
      <trkpt lat="47.1367" lon="7.07449">
        <ele>1522</ele>
      </trkpt>
      <trkpt lat="47.13687" lon="7.07511">
        <ele>1513.2</ele>
      </trkpt>
      <trkpt lat="47.13698" lon="7.07536">
        <ele>1510.8</ele>
      </trkpt>
      <trkpt lat="47.13701" lon="7.07583">
        <ele>1507</ele>
      </trkpt>
      <trkpt lat="47.13715" lon="7.07627">
        <ele>1503.5</ele>
      </trkpt>
      <trkpt lat="47.13719" lon="7.07659">
        <ele>1500.8</ele>
      </trkpt>
      <trkpt lat="47.13742" lon="7.07713">
        <ele>1507</ele>
      </trkpt>
      <trkpt lat="47.13766" lon="7.07786">
        <ele>1505.7</ele>
      </trkpt>
      <trkpt lat="47.13779" lon="7.0783">
        <ele>1505.1</ele>
      </trkpt>
      <trkpt lat="47.13798" lon="7.07885">
        <ele>1506.5</ele>
      </trkpt>
      <trkpt lat="47.13818" lon="7.07929">
        <ele>1509.5</ele>
      </trkpt>
      <trkpt lat="47.13833" lon="7.07979">
        <ele>1512.6</ele>
      </trkpt>
      <trkpt lat="47.13856" lon="7.08077">
        <ele>1504.1</ele>
      </trkpt>
      <trkpt lat="47.13877" lon="7.0815">
        <ele>1497.7</ele>
      </trkpt>
      <trkpt lat="47.13887" lon="7.08191">
        <ele>1495.5</ele>
      </trkpt>
      <trkpt lat="47.13888" lon="7.08225">
        <ele>1493.5</ele>
      </trkpt>
      <trkpt lat="47.13902" lon="7.08276">
        <ele>1492</ele>
      </trkpt>
      <trkpt lat="47.13919" lon="7.08345">
        <ele>1487.4</ele>
      </trkpt>
      <trkpt lat="47.13932" lon="7.08407">
        <ele>1476.6</ele>
      </trkpt>
      <trkpt lat="47.13946" lon="7.08471">
        <ele>1469.9</ele>
      </trkpt>
      <trkpt lat="47.13965" lon="7.08539">
        <ele>1466.3</ele>
      </trkpt>
      <trkpt lat="47.13986" lon="7.086">
        <ele>1466.9</ele>
      </trkpt>
      <trkpt lat="47.14013" lon="7.08647">
        <ele>1464.5</ele>
      </trkpt>
      <trkpt lat="47.14021" lon="7.08711">
        <ele>1457.5</ele>
      </trkpt>
      <trkpt lat="47.14036" lon="7.08787">
        <ele>1448.3</ele>
      </trkpt>
      <trkpt lat="47.14054" lon="7.08875">
        <ele>1439</ele>
      </trkpt>
      <trkpt lat="47.14061" lon="7.08895">
        <ele>1438.1</ele>
      </trkpt>
      <trkpt lat="47.14069" lon="7.08941">
        <ele>1433.3</ele>
      </trkpt>
      <trkpt lat="47.14076" lon="7.08962">
        <ele>1431.7</ele>
      </trkpt>
      <trkpt lat="47.14085" lon="7.08969">
        <ele>1433.1</ele>
      </trkpt>
      <trkpt lat="47.14112" lon="7.08983">
        <ele>1428.5</ele>
      </trkpt>
      <trkpt lat="47.14124" lon="7.09005">
        <ele>1426.1</ele>
      </trkpt>
      <trkpt lat="47.14138" lon="7.09063">
        <ele>1423.1</ele>
      </trkpt>
      <trkpt lat="47.14144" lon="7.09097">
        <ele>1422.2</ele>
      </trkpt>
      <trkpt lat="47.14137" lon="7.09116">
        <ele>1419.4</ele>
      </trkpt>
      <trkpt lat="47.14139" lon="7.09142">
        <ele>1417.9</ele>
      </trkpt>
      <trkpt lat="47.14149" lon="7.09167">
        <ele>1418.9</ele>
      </trkpt>
      <trkpt lat="47.14162" lon="7.09193">
        <ele>1421.8</ele>
      </trkpt>
      <trkpt lat="47.14167" lon="7.09225">
        <ele>1422.6</ele>
      </trkpt>
      <trkpt lat="47.14182" lon="7.09265">
        <ele>1418.7</ele>
      </trkpt>
      <trkpt lat="47.14201" lon="7.09327">
        <ele>1414.7</ele>
      </trkpt>
      <trkpt lat="47.1421" lon="7.09381">
        <ele>1412.9</ele>
      </trkpt>
      <trkpt lat="47.14221" lon="7.09426">
        <ele>1413.3</ele>
      </trkpt>
      <trkpt lat="47.14234" lon="7.09472">
        <ele>1414.9</ele>
      </trkpt>
      <trkpt lat="47.14247" lon="7.09508">
        <ele>1417.9</ele>
      </trkpt>
      <trkpt lat="47.14257" lon="7.09552">
        <ele>1415.6</ele>
      </trkpt>
      <trkpt lat="47.14259" lon="7.09575">
        <ele>1414.7</ele>
      </trkpt>
      <trkpt lat="47.14271" lon="7.096">
        <ele>1410.5</ele>
      </trkpt>
      <trkpt lat="47.14284" lon="7.09626">
        <ele>1407</ele>
      </trkpt>
      <trkpt lat="47.14294" lon="7.09681">
        <ele>1403.2</ele>
      </trkpt>
      <trkpt lat="47.14306" lon="7.09731">
        <ele>1400.6</ele>
      </trkpt>
      <trkpt lat="47.14322" lon="7.09771">
        <ele>1400.5</ele>
      </trkpt>
      <trkpt lat="47.14339" lon="7.09822">
        <ele>1395.5</ele>
      </trkpt>
      <trkpt lat="47.14352" lon="7.09876">
        <ele>1389</ele>
      </trkpt>
      <trkpt lat="47.14363" lon="7.09902">
        <ele>1386.6</ele>
      </trkpt>
      <trkpt lat="47.1437" lon="7.09947">
        <ele>1384.1</ele>
      </trkpt>
      <trkpt lat="47.14376" lon="7.09972">
        <ele>1383.3</ele>
      </trkpt>
      <trkpt lat="47.14383" lon="7.09997">
        <ele>1383</ele>
      </trkpt>
      <trkpt lat="47.14394" lon="7.10048">
        <ele>1380.2</ele>
      </trkpt>
      <trkpt lat="47.14411" lon="7.10109">
        <ele>1380.6</ele>
      </trkpt>
      <trkpt lat="47.14417" lon="7.1014">
        <ele>1380.9</ele>
      </trkpt>
      <trkpt lat="47.14431" lon="7.10174">
        <ele>1379.4</ele>
      </trkpt>
      <trkpt lat="47.14446" lon="7.10211">
        <ele>1378.5</ele>
      </trkpt>
      <trkpt lat="47.14459" lon="7.10252">
        <ele>1378.9</ele>
      </trkpt>
      <trkpt lat="47.14481" lon="7.10326">
        <ele>1377.5</ele>
      </trkpt>
      <trkpt lat="47.14495" lon="7.10374">
        <ele>1376.9</ele>
      </trkpt>
      <trkpt lat="47.14498" lon="7.1038">
        <ele>1377.1</ele>
      </trkpt>
      <trkpt lat="47.14509" lon="7.10402">
        <ele>1374.5</ele>
      </trkpt>
      <trkpt lat="47.14512" lon="7.10408">
        <ele>1373.8</ele>
      </trkpt>
      <trkpt lat="47.14513" lon="7.10414">
        <ele>1373.2</ele>
      </trkpt>
      <trkpt lat="47.14532" lon="7.10489">
        <ele>1366.5</ele>
      </trkpt>
      <trkpt lat="47.14534" lon="7.10495">
        <ele>1366.3</ele>
      </trkpt>
      <trkpt lat="47.14538" lon="7.10503">
        <ele>1366</ele>
      </trkpt>
      <trkpt lat="47.1454" lon="7.10508">
        <ele>1365.7</ele>
      </trkpt>
      <trkpt lat="47.14541" lon="7.10512">
        <ele>1365.3</ele>
      </trkpt>
      <trkpt lat="47.14541" lon="7.1053">
        <ele>1363.7</ele>
      </trkpt>
      <trkpt lat="47.14543" lon="7.10541">
        <ele>1363</ele>
      </trkpt>
      <trkpt lat="47.14555" lon="7.10572">
        <ele>1362.7</ele>
      </trkpt>
      <trkpt lat="47.14569" lon="7.10613">
        <ele>1363.1</ele>
      </trkpt>
      <trkpt lat="47.14578" lon="7.10643">
        <ele>1364.2</ele>
      </trkpt>
      <trkpt lat="47.14583" lon="7.10669">
        <ele>1364.5</ele>
      </trkpt>
      <trkpt lat="47.14587" lon="7.10684">
        <ele>1363.1</ele>
      </trkpt>
      <trkpt lat="47.1459" lon="7.10693">
        <ele>1362.2</ele>
      </trkpt>
      <trkpt lat="47.14594" lon="7.107">
        <ele>1361.5</ele>
      </trkpt>
      <trkpt lat="47.14598" lon="7.10705">
        <ele>1361</ele>
      </trkpt>
      <trkpt lat="47.14601" lon="7.1071">
        <ele>1360.6</ele>
      </trkpt>
      <trkpt lat="47.14602" lon="7.10715">
        <ele>1360.2</ele>
      </trkpt>
      <trkpt lat="47.14602" lon="7.10719">
        <ele>1360</ele>
      </trkpt>
      <trkpt lat="47.14617" lon="7.10761">
        <ele>1358.2</ele>
      </trkpt>
      <trkpt lat="47.14634" lon="7.10836">
        <ele>1356</ele>
      </trkpt>
      <trkpt lat="47.1465" lon="7.10893">
        <ele>1353.1</ele>
      </trkpt>
      <trkpt lat="47.14656" lon="7.10911">
        <ele>1352.6</ele>
      </trkpt>
      <trkpt lat="47.14661" lon="7.10946">
        <ele>1348.7</ele>
      </trkpt>
      <trkpt lat="47.14678" lon="7.10993">
        <ele>1343.6</ele>
      </trkpt>
      <trkpt lat="47.14692" lon="7.11015">
        <ele>1340.7</ele>
      </trkpt>
      <trkpt lat="47.14701" lon="7.11061">
        <ele>1333.8</ele>
      </trkpt>
      <trkpt lat="47.14715" lon="7.11096">
        <ele>1330.9</ele>
      </trkpt>
      <trkpt lat="47.14742" lon="7.11148">
        <ele>1330.3</ele>
      </trkpt>
      <trkpt lat="47.14756" lon="7.11189">
        <ele>1327.8</ele>
      </trkpt>
      <trkpt lat="47.14763" lon="7.11213">
        <ele>1325.6</ele>
      </trkpt>
      <trkpt lat="47.14772" lon="7.11247">
        <ele>1322.8</ele>
      </trkpt>
      <trkpt lat="47.14783" lon="7.11278">
        <ele>1321.2</ele>
      </trkpt>
      <trkpt lat="47.14804" lon="7.11307">
        <ele>1322.1</ele>
      </trkpt>
      <trkpt lat="47.14813" lon="7.11313">
        <ele>1323</ele>
      </trkpt>
      <trkpt lat="47.14823" lon="7.11319">
        <ele>1324.2</ele>
      </trkpt>
      <trkpt lat="47.14824" lon="7.1134">
        <ele>1324.8</ele>
      </trkpt>
      <trkpt lat="47.14816" lon="7.11383">
        <ele>1324.4</ele>
      </trkpt>
      <trkpt lat="47.1482" lon="7.11431">
        <ele>1325.4</ele>
      </trkpt>
      <trkpt lat="47.14856" lon="7.11519">
        <ele>1323.7</ele>
      </trkpt>
      <trkpt lat="47.14867" lon="7.11547">
        <ele>1321.2</ele>
      </trkpt>
      <trkpt lat="47.14889" lon="7.11563">
        <ele>1321.1</ele>
      </trkpt>
      <trkpt lat="47.14919" lon="7.11574">
        <ele>1322</ele>
      </trkpt>
      <trkpt lat="47.14921" lon="7.11576">
        <ele>1321.6</ele>
      </trkpt>
      <trkpt lat="47.14935" lon="7.11607">
        <ele>1318.4</ele>
      </trkpt>
      <trkpt lat="47.14935" lon="7.11618">
        <ele>1317.7</ele>
      </trkpt>
      <trkpt lat="47.14934" lon="7.11628">
        <ele>1317.1</ele>
      </trkpt>
      <trkpt lat="47.14951" lon="7.11655">
        <ele>1315.6</ele>
      </trkpt>
      <trkpt lat="47.14987" lon="7.11724">
        <ele>1314.5</ele>
      </trkpt>
      <trkpt lat="47.15012" lon="7.11759">
        <ele>1314.2</ele>
      </trkpt>
      <trkpt lat="47.15029" lon="7.11804">
        <ele>1314</ele>
      </trkpt>
      <trkpt lat="47.15028" lon="7.11832">
        <ele>1314.6</ele>
      </trkpt>
      <trkpt lat="47.15017" lon="7.11857">
        <ele>1314.4</ele>
      </trkpt>
      <trkpt lat="47.15011" lon="7.11889">
        <ele>1313.5</ele>
      </trkpt>
      <trkpt lat="47.15015" lon="7.11938">
        <ele>1309.9</ele>
      </trkpt>
      <trkpt lat="47.15029" lon="7.11987">
        <ele>1304</ele>
      </trkpt>
      <trkpt lat="47.15067" lon="7.12025">
        <ele>1302.7</ele>
      </trkpt>
      <trkpt lat="47.15098" lon="7.12049">
        <ele>1300</ele>
      </trkpt>
      <trkpt lat="47.15107" lon="7.12067">
        <ele>1297.5</ele>
      </trkpt>
      <trkpt lat="47.15108" lon="7.12106">
        <ele>1294.8</ele>
      </trkpt>
      <trkpt lat="47.15123" lon="7.1213">
        <ele>1294.5</ele>
      </trkpt>
      <trkpt lat="47.15126" lon="7.12166">
        <ele>1294.1</ele>
      </trkpt>
      <trkpt lat="47.15139" lon="7.12222">
        <ele>1293.2</ele>
      </trkpt>
      <trkpt lat="47.15144" lon="7.12228">
        <ele>1293.6</ele>
      </trkpt>
      <trkpt lat="47.15151" lon="7.12232">
        <ele>1294.3</ele>
      </trkpt>
      <trkpt lat="47.15165" lon="7.1226">
        <ele>1295.7</ele>
      </trkpt>
      <trkpt lat="47.15178" lon="7.12312">
        <ele>1294.3</ele>
      </trkpt>
      <trkpt lat="47.15187" lon="7.12395">
        <ele>1295.5</ele>
      </trkpt>
      <trkpt lat="47.1522" lon="7.12517">
        <ele>1303.9</ele>
      </trkpt>
      <trkpt lat="47.15258" lon="7.12617">
        <ele>1311.7</ele>
      </trkpt>
      <trkpt lat="47.15307" lon="7.12735">
        <ele>1314</ele>
      </trkpt>
      <trkpt lat="47.15314" lon="7.12772">
        <ele>1315.6</ele>
      </trkpt>
      <trkpt lat="47.15332" lon="7.12825">
        <ele>1319.5</ele>
      </trkpt>
      <trkpt lat="47.15339" lon="7.12866">
        <ele>1318.5</ele>
      </trkpt>
      <trkpt lat="47.15354" lon="7.12938">
        <ele>1316.4</ele>
      </trkpt>
      <trkpt lat="47.15372" lon="7.12972">
        <ele>1316</ele>
      </trkpt>
      <trkpt lat="47.15401" lon="7.13117">
        <ele>1318.6</ele>
      </trkpt>
      <trkpt lat="47.15418" lon="7.13211">
        <ele>1319.3</ele>
      </trkpt>
      <trkpt lat="47.15426" lon="7.13243">
        <ele>1317.9</ele>
      </trkpt>
      <trkpt lat="47.15439" lon="7.1327">
        <ele>1316</ele>
      </trkpt>
      <trkpt lat="47.15447" lon="7.13292">
        <ele>1314.6</ele>
      </trkpt>
      <trkpt lat="47.15453" lon="7.13346">
        <ele>1311.6</ele>
      </trkpt>
      <trkpt lat="47.15459" lon="7.13365">
        <ele>1311.2</ele>
      </trkpt>
      <trkpt lat="47.15471" lon="7.13388">
        <ele>1311.5</ele>
      </trkpt>
      <trkpt lat="47.15481" lon="7.1342">
        <ele>1311.5</ele>
      </trkpt>
      <trkpt lat="47.15504" lon="7.1346">
        <ele>1310.8</ele>
      </trkpt>
      <trkpt lat="47.15508" lon="7.13488">
        <ele>1308</ele>
      </trkpt>
      <trkpt lat="47.15516" lon="7.13519">
        <ele>1303.9</ele>
      </trkpt>
      <trkpt lat="47.15532" lon="7.13565">
        <ele>1298.1</ele>
      </trkpt>
      <trkpt lat="47.15541" lon="7.13619">
        <ele>1292.9</ele>
      </trkpt>
      <trkpt lat="47.15557" lon="7.13697">
        <ele>1288.2</ele>
      </trkpt>
      <trkpt lat="47.15555" lon="7.13708">
        <ele>1287.8</ele>
      </trkpt>
      <trkpt lat="47.15561" lon="7.13712">
        <ele>1288.2</ele>
      </trkpt>
      <trkpt lat="47.1557" lon="7.13726">
        <ele>1288.8</ele>
      </trkpt>
      <trkpt lat="47.15581" lon="7.13761">
        <ele>1289.3</ele>
      </trkpt>
      <trkpt lat="47.15602" lon="7.13873">
        <ele>1286.4</ele>
      </trkpt>
      <trkpt lat="47.15606" lon="7.13893">
        <ele>1286.7</ele>
      </trkpt>
      <trkpt lat="47.15611" lon="7.13908">
        <ele>1287.1</ele>
      </trkpt>
      <trkpt lat="47.15615" lon="7.13922">
        <ele>1287.2</ele>
      </trkpt>
      <trkpt lat="47.15618" lon="7.1393">
        <ele>1287</ele>
      </trkpt>
      <trkpt lat="47.15617" lon="7.13937">
        <ele>1286.7</ele>
      </trkpt>
      <trkpt lat="47.15631" lon="7.13966">
        <ele>1286.8</ele>
      </trkpt>
      <trkpt lat="47.15658" lon="7.14032">
        <ele>1289.9</ele>
      </trkpt>
      <trkpt lat="47.15687" lon="7.14124">
        <ele>1290.7</ele>
      </trkpt>
      <trkpt lat="47.15694" lon="7.14192">
        <ele>1291.8</ele>
      </trkpt>
      <trkpt lat="47.15734" lon="7.1428">
        <ele>1295.2</ele>
      </trkpt>
      <trkpt lat="47.15764" lon="7.14377">
        <ele>1296.3</ele>
      </trkpt>
      <trkpt lat="47.15775" lon="7.14421">
        <ele>1297.9</ele>
      </trkpt>
      <trkpt lat="47.15791" lon="7.14487">
        <ele>1301.7</ele>
      </trkpt>
      <trkpt lat="47.15822" lon="7.1456">
        <ele>1306.1</ele>
      </trkpt>
      <trkpt lat="47.15853" lon="7.14658">
        <ele>1308.1</ele>
      </trkpt>
      <trkpt lat="47.15862" lon="7.14707">
        <ele>1309.4</ele>
      </trkpt>
      <trkpt lat="47.15886" lon="7.14813">
        <ele>1315.9</ele>
      </trkpt>
      <trkpt lat="47.15886" lon="7.14864">
        <ele>1318.4</ele>
      </trkpt>
      <trkpt lat="47.15913" lon="7.14958">
        <ele>1325.3</ele>
      </trkpt>
      <trkpt lat="47.15931" lon="7.15033">
        <ele>1323.6</ele>
      </trkpt>
      <trkpt lat="47.15952" lon="7.15123">
        <ele>1322.8</ele>
      </trkpt>
      <trkpt lat="47.15963" lon="7.15159">
        <ele>1324.3</ele>
      </trkpt>
      <trkpt lat="47.15974" lon="7.15198">
        <ele>1326</ele>
      </trkpt>
      <trkpt lat="47.15983" lon="7.15219">
        <ele>1327.3</ele>
      </trkpt>
      <trkpt lat="47.15994" lon="7.15266">
        <ele>1329.6</ele>
      </trkpt>
      <trkpt lat="47.16025" lon="7.15457">
        <ele>1325.5</ele>
      </trkpt>
      <trkpt lat="47.16053" lon="7.15545">
        <ele>1327.5</ele>
      </trkpt>
      <trkpt lat="47.16085" lon="7.1565">
        <ele>1330.8</ele>
      </trkpt>
      <trkpt lat="47.16114" lon="7.15724">
        <ele>1325</ele>
      </trkpt>
      <trkpt lat="47.16115" lon="7.15733">
        <ele>1324.7</ele>
      </trkpt>
      <trkpt lat="47.16114" lon="7.15741">
        <ele>1324.7</ele>
      </trkpt>
      <trkpt lat="47.1611" lon="7.15764">
        <ele>1324.6</ele>
      </trkpt>
      <trkpt lat="47.16109" lon="7.1577">
        <ele>1324.6</ele>
      </trkpt>
      <trkpt lat="47.16106" lon="7.15775">
        <ele>1324.6</ele>
      </trkpt>
      <trkpt lat="47.16111" lon="7.15821">
        <ele>1324.1</ele>
      </trkpt>
      <trkpt lat="47.16126" lon="7.15903">
        <ele>1326.7</ele>
      </trkpt>
      <trkpt lat="47.16135" lon="7.1594">
        <ele>1328.4</ele>
      </trkpt>
      <trkpt lat="47.16188" lon="7.16082">
        <ele>1329.1</ele>
      </trkpt>
      <trkpt lat="47.16203" lon="7.16222">
        <ele>1322.7</ele>
      </trkpt>
      <trkpt lat="47.16206" lon="7.16233">
        <ele>1322.1</ele>
      </trkpt>
      <trkpt lat="47.16211" lon="7.16252">
        <ele>1321.6</ele>
      </trkpt>
      <trkpt lat="47.1624" lon="7.16291">
        <ele>1324.2</ele>
      </trkpt>
      <trkpt lat="47.16272" lon="7.16421">
        <ele>1324.5</ele>
      </trkpt>
      <trkpt lat="47.16292" lon="7.16528">
        <ele>1322.5</ele>
      </trkpt>
      <trkpt lat="47.16323" lon="7.1662">
        <ele>1323.4</ele>
      </trkpt>
      <trkpt lat="47.16338" lon="7.16687">
        <ele>1324.7</ele>
      </trkpt>
      <trkpt lat="47.16344" lon="7.16736">
        <ele>1325</ele>
      </trkpt>
      <trkpt lat="47.16374" lon="7.16841">
        <ele>1319.4</ele>
      </trkpt>
      <trkpt lat="47.16377" lon="7.16895">
        <ele>1320.2</ele>
      </trkpt>
      <trkpt lat="47.16371" lon="7.1694">
        <ele>1322.1</ele>
      </trkpt>
      <trkpt lat="47.16348" lon="7.16955">
        <ele>1323.7</ele>
      </trkpt>
      <trkpt lat="47.16344" lon="7.16976">
        <ele>1323.6</ele>
      </trkpt>
      <trkpt lat="47.16347" lon="7.17019">
        <ele>1321.9</ele>
      </trkpt>
      <trkpt lat="47.16352" lon="7.17029">
        <ele>1321.5</ele>
      </trkpt>
      <trkpt lat="47.16358" lon="7.17043">
        <ele>1321.1</ele>
      </trkpt>
      <trkpt lat="47.16371" lon="7.17102">
        <ele>1319.9</ele>
      </trkpt>
      <trkpt lat="47.16405" lon="7.17217">
        <ele>1324.1</ele>
      </trkpt>
      <trkpt lat="47.16413" lon="7.17271">
        <ele>1324.9</ele>
      </trkpt>
      <trkpt lat="47.16423" lon="7.1731">
        <ele>1324</ele>
      </trkpt>
      <trkpt lat="47.1643" lon="7.1737">
        <ele>1323.2</ele>
      </trkpt>
      <trkpt lat="47.16441" lon="7.17412">
        <ele>1322.6</ele>
      </trkpt>
      <trkpt lat="47.16477" lon="7.17553">
        <ele>1319.2</ele>
      </trkpt>
      <trkpt lat="47.16486" lon="7.17647">
        <ele>1323</ele>
      </trkpt>
      <trkpt lat="47.16493" lon="7.17666">
        <ele>1324.9</ele>
      </trkpt>
      <trkpt lat="47.16496" lon="7.17691">
        <ele>1323.8</ele>
      </trkpt>
      <trkpt lat="47.16523" lon="7.17814">
        <ele>1315.7</ele>
      </trkpt>
      <trkpt lat="47.16523" lon="7.17818">
        <ele>1315.7</ele>
      </trkpt>
      <trkpt lat="47.16528" lon="7.17823">
        <ele>1315.3</ele>
      </trkpt>
      <trkpt lat="47.16532" lon="7.17824">
        <ele>1315</ele>
      </trkpt>
      <trkpt lat="47.16565" lon="7.17853">
        <ele>1314.4</ele>
      </trkpt>
      <trkpt lat="47.16583" lon="7.17916">
        <ele>1318</ele>
      </trkpt>
      <trkpt lat="47.16612" lon="7.1796">
        <ele>1312.4</ele>
      </trkpt>
      <trkpt lat="47.16644" lon="7.17997">
        <ele>1304.3</ele>
      </trkpt>
      <trkpt lat="47.16684" lon="7.18091">
        <ele>1298.1</ele>
      </trkpt>
      <trkpt lat="47.16695" lon="7.1815">
        <ele>1299.1</ele>
      </trkpt>
      <trkpt lat="47.16705" lon="7.18188">
        <ele>1298.5</ele>
      </trkpt>
      <trkpt lat="47.16712" lon="7.18218">
        <ele>1297.7</ele>
      </trkpt>
      <trkpt lat="47.16717" lon="7.18228">
        <ele>1296.7</ele>
      </trkpt>
      <trkpt lat="47.16776" lon="7.18328">
        <ele>1288.4</ele>
      </trkpt>
      <trkpt lat="47.16784" lon="7.18396">
        <ele>1285.1</ele>
      </trkpt>
      <trkpt lat="47.16805" lon="7.1848">
        <ele>1280.2</ele>
      </trkpt>
      <trkpt lat="47.16809" lon="7.18508">
        <ele>1278.4</ele>
      </trkpt>
      <trkpt lat="47.16804" lon="7.18585">
        <ele>1272.7</ele>
      </trkpt>
      <trkpt lat="47.16817" lon="7.18698">
        <ele>1259.8</ele>
      </trkpt>
      <trkpt lat="47.16817" lon="7.18731">
        <ele>1256.7</ele>
      </trkpt>
      <trkpt lat="47.16818" lon="7.18786">
        <ele>1251.7</ele>
      </trkpt>
      <trkpt lat="47.16825" lon="7.18835">
        <ele>1246</ele>
      </trkpt>
      <trkpt lat="47.1683" lon="7.18927">
        <ele>1231.5</ele>
      </trkpt>
      <trkpt lat="47.16834" lon="7.18972">
        <ele>1225.5</ele>
      </trkpt>
      <trkpt lat="47.16839" lon="7.19007">
        <ele>1222.3</ele>
      </trkpt>
      <trkpt lat="47.16843" lon="7.19039">
        <ele>1218.6</ele>
      </trkpt>
      <trkpt lat="47.16845" lon="7.19072">
        <ele>1214.6</ele>
      </trkpt>
      <trkpt lat="47.1685" lon="7.19116">
        <ele>1208.6</ele>
      </trkpt>
      <trkpt lat="47.16854" lon="7.1914">
        <ele>1205.5</ele>
      </trkpt>
      <trkpt lat="47.16859" lon="7.19168">
        <ele>1201.9</ele>
      </trkpt>
      <trkpt lat="47.16873" lon="7.19329">
        <ele>1186.9</ele>
      </trkpt>
      <trkpt lat="47.16871" lon="7.19375">
        <ele>1183.8</ele>
      </trkpt>
      <trkpt lat="47.16859" lon="7.19436">
        <ele>1181.6</ele>
      </trkpt>
      <trkpt lat="47.16855" lon="7.19505">
        <ele>1177.6</ele>
      </trkpt>
      <trkpt lat="47.16858" lon="7.19564">
        <ele>1175.4</ele>
      </trkpt>
      <trkpt lat="47.16864" lon="7.19611">
        <ele>1175.7</ele>
      </trkpt>
      <trkpt lat="47.1688" lon="7.19669">
        <ele>1174</ele>
      </trkpt>
      <trkpt lat="47.16891" lon="7.19715">
        <ele>1173.6</ele>
      </trkpt>
      <trkpt lat="47.169" lon="7.19776">
        <ele>1172.7</ele>
      </trkpt>
      <trkpt lat="47.16915" lon="7.19909">
        <ele>1168.5</ele>
      </trkpt>
      <trkpt lat="47.16916" lon="7.19984">
        <ele>1174.8</ele>
      </trkpt>
      <trkpt lat="47.1692" lon="7.19987">
        <ele>1174.1</ele>
      </trkpt>
      <trkpt lat="47.16932" lon="7.20005">
        <ele>1173.7</ele>
      </trkpt>
      <trkpt lat="47.16963" lon="7.20052">
        <ele>1170.9</ele>
      </trkpt>
      <trkpt lat="47.16985" lon="7.20083">
        <ele>1167.4</ele>
      </trkpt>
      <trkpt lat="47.16998" lon="7.20103">
        <ele>1164.8</ele>
      </trkpt>
      <trkpt lat="47.17004" lon="7.20118">
        <ele>1164.3</ele>
      </trkpt>
      <trkpt lat="47.17027" lon="7.20214">
        <ele>1160.8</ele>
      </trkpt>
      <trkpt lat="47.17063" lon="7.20365">
        <ele>1154</ele>
      </trkpt>
      <trkpt lat="47.17077" lon="7.20434">
        <ele>1147.3</ele>
      </trkpt>
      <trkpt lat="47.17092" lon="7.20525">
        <ele>1144.6</ele>
      </trkpt>
      <trkpt lat="47.17121" lon="7.20736">
        <ele>1131.9</ele>
      </trkpt>
      <trkpt lat="47.17127" lon="7.20797">
        <ele>1125.1</ele>
      </trkpt>
      <trkpt lat="47.17129" lon="7.20813">
        <ele>1123.1</ele>
      </trkpt>
      <trkpt lat="47.17128" lon="7.20827">
        <ele>1121.5</ele>
      </trkpt>
      <trkpt lat="47.17128" lon="7.20847">
        <ele>1120</ele>
      </trkpt>
      <trkpt lat="47.17127" lon="7.20872">
        <ele>1118.7</ele>
      </trkpt>
      <trkpt lat="47.17106" lon="7.2112">
        <ele>1106.4</ele>
      </trkpt>
      <trkpt lat="47.17104" lon="7.21157">
        <ele>1104.5</ele>
      </trkpt>
      <trkpt lat="47.17097" lon="7.21194">
        <ele>1105.5</ele>
      </trkpt>
      <trkpt lat="47.17091" lon="7.21227">
        <ele>1107.4</ele>
      </trkpt>
      <trkpt lat="47.17088" lon="7.21254">
        <ele>1108.3</ele>
      </trkpt>
      <trkpt lat="47.17087" lon="7.21291">
        <ele>1108.7</ele>
      </trkpt>
      <trkpt lat="47.17087" lon="7.21455">
        <ele>1117.2</ele>
      </trkpt>
      <trkpt lat="47.17089" lon="7.21503">
        <ele>1124.9</ele>
      </trkpt>
      <trkpt lat="47.17096" lon="7.21552">
        <ele>1131.1</ele>
      </trkpt>
      <trkpt lat="47.17106" lon="7.21603">
        <ele>1135.4</ele>
      </trkpt>
      <trkpt lat="47.17121" lon="7.21652">
        <ele>1135.8</ele>
      </trkpt>
      <trkpt lat="47.17141" lon="7.21716">
        <ele>1136.5</ele>
      </trkpt>
      <trkpt lat="47.1717" lon="7.21793">
        <ele>1134.1</ele>
      </trkpt>
      <trkpt lat="47.17179" lon="7.21829">
        <ele>1136.1</ele>
      </trkpt>
      <trkpt lat="47.1719" lon="7.21869">
        <ele>1134.1</ele>
      </trkpt>
      <trkpt lat="47.17197" lon="7.21902">
        <ele>1133.5</ele>
      </trkpt>
      <trkpt lat="47.17201" lon="7.21931">
        <ele>1132.2</ele>
      </trkpt>
      <trkpt lat="47.17204" lon="7.21961">
        <ele>1130.1</ele>
      </trkpt>
      <trkpt lat="47.17206" lon="7.21975">
        <ele>1129.3</ele>
      </trkpt>
      <trkpt lat="47.17206" lon="7.21993">
        <ele>1128.7</ele>
      </trkpt>
      <trkpt lat="47.17204" lon="7.2201">
        <ele>1128.6</ele>
      </trkpt>
      <trkpt lat="47.17202" lon="7.22032">
        <ele>1128.6</ele>
      </trkpt>
      <trkpt lat="47.17197" lon="7.22071">
        <ele>1128.2</ele>
      </trkpt>
      <trkpt lat="47.17191" lon="7.22098">
        <ele>1127.5</ele>
      </trkpt>
      <trkpt lat="47.17174" lon="7.2216">
        <ele>1125.5</ele>
      </trkpt>
      <trkpt lat="47.17166" lon="7.2218">
        <ele>1124.5</ele>
      </trkpt>
      <trkpt lat="47.17163" lon="7.22189">
        <ele>1124.7</ele>
      </trkpt>
      <trkpt lat="47.17153" lon="7.22203">
        <ele>1124.7</ele>
      </trkpt>
      <trkpt lat="47.17144" lon="7.22212">
        <ele>1124.5</ele>
      </trkpt>
      <trkpt lat="47.17126" lon="7.22229">
        <ele>1123.6</ele>
      </trkpt>
      <trkpt lat="47.17052" lon="7.22277">
        <ele>1118.3</ele>
      </trkpt>
      <trkpt lat="47.17036" lon="7.2229">
        <ele>1117.4</ele>
      </trkpt>
      <trkpt lat="47.17025" lon="7.22304">
        <ele>1116.7</ele>
      </trkpt>
      <trkpt lat="47.17011" lon="7.22329">
        <ele>1115.8</ele>
      </trkpt>
      <trkpt lat="47.17001" lon="7.22349">
        <ele>1113.8</ele>
      </trkpt>
      <trkpt lat="47.16996" lon="7.22362">
        <ele>1111.1</ele>
      </trkpt>
      <trkpt lat="47.16993" lon="7.22381">
        <ele>1108.3</ele>
      </trkpt>
      <trkpt lat="47.16984" lon="7.22447">
        <ele>1098.8</ele>
      </trkpt>
      <trkpt lat="47.16983" lon="7.22472">
        <ele>1095.7</ele>
      </trkpt>
      <trkpt lat="47.16982" lon="7.22497">
        <ele>1093.1</ele>
      </trkpt>
      <trkpt lat="47.16984" lon="7.22543">
        <ele>1086.9</ele>
      </trkpt>
      <trkpt lat="47.16986" lon="7.22565">
        <ele>1084.4</ele>
      </trkpt>
      <trkpt lat="47.16991" lon="7.22591">
        <ele>1082.5</ele>
      </trkpt>
      <trkpt lat="47.16999" lon="7.22619">
        <ele>1082.7</ele>
      </trkpt>
      <trkpt lat="47.17004" lon="7.22641">
        <ele>1081.3</ele>
      </trkpt>
      <trkpt lat="47.17007" lon="7.22663">
        <ele>1079.4</ele>
      </trkpt>
      <trkpt lat="47.17012" lon="7.22714">
        <ele>1074.5</ele>
      </trkpt>
      <trkpt lat="47.17019" lon="7.22769">
        <ele>1069.3</ele>
      </trkpt>
      <trkpt lat="47.17023" lon="7.22807">
        <ele>1065.4</ele>
      </trkpt>
      <trkpt lat="47.17028" lon="7.22829">
        <ele>1063.6</ele>
      </trkpt>
      <trkpt lat="47.17033" lon="7.22844">
        <ele>1062.3</ele>
      </trkpt>
      <trkpt lat="47.1704" lon="7.22859">
        <ele>1061.1</ele>
      </trkpt>
      <trkpt lat="47.17046" lon="7.22873">
        <ele>1060.2</ele>
      </trkpt>
      <trkpt lat="47.17056" lon="7.22887">
        <ele>1059.8</ele>
      </trkpt>
      <trkpt lat="47.17065" lon="7.22901">
        <ele>1059.3</ele>
      </trkpt>
      <trkpt lat="47.17071" lon="7.22914">
        <ele>1058.3</ele>
      </trkpt>
      <trkpt lat="47.17074" lon="7.22925">
        <ele>1056.9</ele>
      </trkpt>
      <trkpt lat="47.17077" lon="7.22947">
        <ele>1053.4</ele>
      </trkpt>
      <trkpt lat="47.17079" lon="7.22962">
        <ele>1051.1</ele>
      </trkpt>
      <trkpt lat="47.17081" lon="7.22971">
        <ele>1049.9</ele>
      </trkpt>
      <trkpt lat="47.17091" lon="7.2299">
        <ele>1048.4</ele>
      </trkpt>
      <trkpt lat="47.171" lon="7.23012">
        <ele>1046.2</ele>
      </trkpt>
      <trkpt lat="47.17109" lon="7.23033">
        <ele>1044.1</ele>
      </trkpt>
      <trkpt lat="47.17116" lon="7.23056">
        <ele>1041</ele>
      </trkpt>
      <trkpt lat="47.17133" lon="7.23112">
        <ele>1034.7</ele>
      </trkpt>
      <trkpt lat="47.1715" lon="7.23163">
        <ele>1029.6</ele>
      </trkpt>
      <trkpt lat="47.17162" lon="7.23204">
        <ele>1025</ele>
      </trkpt>
      <trkpt lat="47.17174" lon="7.23244">
        <ele>1020</ele>
      </trkpt>
      <trkpt lat="47.1718" lon="7.23259">
        <ele>1018.1</ele>
      </trkpt>
      <trkpt lat="47.17184" lon="7.23271">
        <ele>1016.5</ele>
      </trkpt>
      <trkpt lat="47.17187" lon="7.2328">
        <ele>1015.1</ele>
      </trkpt>
      <trkpt lat="47.17188" lon="7.2329">
        <ele>1013.2</ele>
      </trkpt>
      <trkpt lat="47.17184" lon="7.233">
        <ele>1011.3</ele>
      </trkpt>
      <trkpt lat="47.17179" lon="7.23305">
        <ele>1010.3</ele>
      </trkpt>
      <trkpt lat="47.17173" lon="7.23306">
        <ele>1010.1</ele>
      </trkpt>
      <trkpt lat="47.17164" lon="7.23304">
        <ele>1009.8</ele>
      </trkpt>
      <trkpt lat="47.17151" lon="7.23301">
        <ele>1008.3</ele>
      </trkpt>
      <trkpt lat="47.17135" lon="7.23303">
        <ele>1005.7</ele>
      </trkpt>
      <trkpt lat="47.1713" lon="7.23307">
        <ele>1004.3</ele>
      </trkpt>
      <trkpt lat="47.17133" lon="7.23363">
        <ele>997.4</ele>
      </trkpt>
      <trkpt lat="47.17125" lon="7.23417">
        <ele>990</ele>
      </trkpt>
      <trkpt lat="47.17131" lon="7.23433">
        <ele>986.9</ele>
      </trkpt>
      <trkpt lat="47.1713" lon="7.23464">
        <ele>980.4</ele>
      </trkpt>
      <trkpt lat="47.17113" lon="7.23495">
        <ele>973.7</ele>
      </trkpt>
      <trkpt lat="47.17087" lon="7.23576">
        <ele>958.2</ele>
      </trkpt>
      <trkpt lat="47.17066" lon="7.23626">
        <ele>949</ele>
      </trkpt>
      <trkpt lat="47.1703" lon="7.23689">
        <ele>936</ele>
      </trkpt>
      <trkpt lat="47.17012" lon="7.23754">
        <ele>929.3</ele>
      </trkpt>
      <trkpt lat="47.17008" lon="7.23812">
        <ele>925.2</ele>
      </trkpt>
      <trkpt lat="47.17016" lon="7.23874">
        <ele>917.6</ele>
      </trkpt>
      <trkpt lat="47.17012" lon="7.23956">
        <ele>904.3</ele>
      </trkpt>
      <trkpt lat="47.17016" lon="7.2411">
        <ele>869.8</ele>
      </trkpt>
      <trkpt lat="47.17008" lon="7.2419">
        <ele>852.7</ele>
      </trkpt>
      <trkpt lat="47.17006" lon="7.24193">
        <ele>853.6</ele>
      </trkpt>
      <trkpt lat="47.16998" lon="7.24175">
        <ele>863.6</ele>
      </trkpt>
      <trkpt lat="47.17001" lon="7.2422">
        <ele>850.6</ele>
      </trkpt>
      <trkpt lat="47.16994" lon="7.24243">
        <ele>841.5</ele>
      </trkpt>
      <trkpt lat="47.17" lon="7.24264">
        <ele>839.4</ele>
      </trkpt>
      <trkpt lat="47.17003" lon="7.24296">
        <ele>830.9</ele>
      </trkpt>
      <trkpt lat="47.16987" lon="7.24281">
        <ele>830.4</ele>
      </trkpt>
      <trkpt lat="47.16992" lon="7.24405">
        <ele>803</ele>
      </trkpt>
      <trkpt lat="47.16972" lon="7.24376">
        <ele>802.8</ele>
      </trkpt>
      <trkpt lat="47.16984" lon="7.24501">
        <ele>770.3</ele>
      </trkpt>
      <trkpt lat="47.16981" lon="7.24493">
        <ele>771.7</ele>
      </trkpt>
      <trkpt lat="47.16962" lon="7.2448">
        <ele>769.4</ele>
      </trkpt>
      <trkpt lat="47.16979" lon="7.24555">
        <ele>752.1</ele>
      </trkpt>
      <trkpt lat="47.16984" lon="7.24602">
        <ele>740.2</ele>
      </trkpt>
      <trkpt lat="47.16984" lon="7.24616">
        <ele>736.2</ele>
      </trkpt>
      <trkpt lat="47.16978" lon="7.24611">
        <ele>735.3</ele>
      </trkpt>
      <trkpt lat="47.16998" lon="7.2475">
        <ele>713.1</ele>
      </trkpt>
      <trkpt lat="47.16994" lon="7.24745">
        <ele>712.2</ele>
      </trkpt>
      <trkpt lat="47.16997" lon="7.24788">
        <ele>703.6</ele>
      </trkpt>
      <trkpt lat="47.16987" lon="7.24811">
        <ele>694</ele>
      </trkpt>
      <trkpt lat="47.16982" lon="7.24791">
        <ele>696.6</ele>
      </trkpt>
      <trkpt lat="47.16977" lon="7.24809">
        <ele>690.5</ele>
      </trkpt>
      <trkpt lat="47.16976" lon="7.24849">
        <ele>680.9</ele>
      </trkpt>
      <trkpt lat="47.16968" lon="7.24881">
        <ele>670.8</ele>
      </trkpt>
      <trkpt lat="47.16963" lon="7.24959">
        <ele>651.3</ele>
      </trkpt>
      <trkpt lat="47.16952" lon="7.24943">
        <ele>653.3</ele>
      </trkpt>
      <trkpt lat="47.16948" lon="7.25015">
        <ele>635.9</ele>
      </trkpt>
      <trkpt lat="47.16931" lon="7.24998">
        <ele>641.3</ele>
      </trkpt>
      <trkpt lat="47.16926" lon="7.25012">
        <ele>637.1</ele>
      </trkpt>
      <trkpt lat="47.16928" lon="7.25039">
        <ele>628.8</ele>
      </trkpt>
      <trkpt lat="47.16944" lon="7.25053">
        <ele>623.2</ele>
      </trkpt>
      <trkpt lat="47.16933" lon="7.25067">
        <ele>619.4</ele>
      </trkpt>
      <trkpt lat="47.1695" lon="7.25078">
        <ele>614.3</ele>
      </trkpt>
      <trkpt lat="47.16906" lon="7.2511">
        <ele>600.6</ele>
      </trkpt>
      <trkpt lat="47.16879" lon="7.25088">
        <ele>592.9</ele>
      </trkpt>
      <trkpt lat="47.16877" lon="7.25112">
        <ele>586</ele>
      </trkpt>
      <trkpt lat="47.16887" lon="7.2515">
        <ele>579.7</ele>
      </trkpt>
      <trkpt lat="47.16866" lon="7.2515">
        <ele>572.3</ele>
      </trkpt>
      <trkpt lat="47.16868" lon="7.25161">
        <ele>570.4</ele>
      </trkpt>
      <trkpt lat="47.16892" lon="7.25194">
        <ele>566.4</ele>
      </trkpt>
      <trkpt lat="47.1687" lon="7.25203">
        <ele>557.7</ele>
      </trkpt>
      <trkpt lat="47.16885" lon="7.25213">
        <ele>557.4</ele>
      </trkpt>
      <trkpt lat="47.1687" lon="7.25223">
        <ele>550.8</ele>
      </trkpt>
      <trkpt lat="47.16885" lon="7.25233">
        <ele>550.3</ele>
      </trkpt>
      <trkpt lat="47.16866" lon="7.25246">
        <ele>542.5</ele>
      </trkpt>
      <trkpt lat="47.16861" lon="7.25264">
        <ele>538.2</ele>
      </trkpt>
      <trkpt lat="47.16846" lon="7.2528">
        <ele>533.1</ele>
      </trkpt>
      <trkpt lat="47.16874" lon="7.25346">
        <ele>530.2</ele>
      </trkpt>
      <trkpt lat="47.16878" lon="7.25356">
        <ele>531.5</ele>
      </trkpt>
      <trkpt lat="47.16894" lon="7.25395">
        <ele>536.9</ele>
      </trkpt>
      <trkpt lat="47.16902" lon="7.2542">
        <ele>540</ele>
      </trkpt>
      <trkpt lat="47.16907" lon="7.25445">
        <ele>541.1</ele>
      </trkpt>
      <trkpt lat="47.16909" lon="7.25472">
        <ele>541.4</ele>
      </trkpt>
      <trkpt lat="47.1691" lon="7.25512">
        <ele>540.8</ele>
      </trkpt>
      <trkpt lat="47.16911" lon="7.25526">
        <ele>540.4</ele>
      </trkpt>
      <trkpt lat="47.16921" lon="7.25564">
        <ele>542.6</ele>
      </trkpt>
      <trkpt lat="47.16931" lon="7.25609">
        <ele>547.7</ele>
      </trkpt>
      <trkpt lat="47.16934" lon="7.25633">
        <ele>549.3</ele>
      </trkpt>
      <trkpt lat="47.16934" lon="7.25651">
        <ele>549.4</ele>
      </trkpt>
      <trkpt lat="47.16935" lon="7.25669">
        <ele>549.3</ele>
      </trkpt>
      <trkpt lat="47.16934" lon="7.25682">
        <ele>549.4</ele>
      </trkpt>
      <trkpt lat="47.16933" lon="7.25698">
        <ele>549.2</ele>
      </trkpt>
      <trkpt lat="47.16929" lon="7.25722">
        <ele>548.2</ele>
      </trkpt>
      <trkpt lat="47.16925" lon="7.25745">
        <ele>546.9</ele>
      </trkpt>
      <trkpt lat="47.16913" lon="7.25791">
        <ele>545.2</ele>
      </trkpt>
      <trkpt lat="47.1691" lon="7.25813">
        <ele>546</ele>
      </trkpt>
      <trkpt lat="47.16909" lon="7.25828">
        <ele>547</ele>
      </trkpt>
      <trkpt lat="47.16909" lon="7.25837">
        <ele>547.5</ele>
      </trkpt>
      <trkpt lat="47.1691" lon="7.25856">
        <ele>548.4</ele>
      </trkpt>
      <trkpt lat="47.16912" lon="7.25889">
        <ele>549.8</ele>
      </trkpt>
      <trkpt lat="47.16914" lon="7.25931">
        <ele>553.1</ele>
      </trkpt>
      <trkpt lat="47.16914" lon="7.25943">
        <ele>555.1</ele>
      </trkpt>
      <trkpt lat="47.16913" lon="7.25954">
        <ele>556.8</ele>
      </trkpt>
      <trkpt lat="47.16911" lon="7.25962">
        <ele>558.1</ele>
      </trkpt>
      <trkpt lat="47.16908" lon="7.25966">
        <ele>558.8</ele>
      </trkpt>
      <trkpt lat="47.16906" lon="7.25969">
        <ele>559.4</ele>
      </trkpt>
      <trkpt lat="47.16917" lon="7.25978">
        <ele>560.6</ele>
      </trkpt>
      <trkpt lat="47.16922" lon="7.25981">
        <ele>562.8</ele>
      </trkpt>
      <trkpt lat="47.16928" lon="7.25985">
        <ele>565.3</ele>
      </trkpt>
      <trkpt lat="47.16934" lon="7.25991">
        <ele>567.8</ele>
      </trkpt>
      <trkpt lat="47.16936" lon="7.25993">
        <ele>568.8</ele>
      </trkpt>
      <trkpt lat="47.16939" lon="7.25991">
        <ele>569.5</ele>
      </trkpt>
      <trkpt lat="47.16943" lon="7.25989">
        <ele>570.5</ele>
      </trkpt>
      <trkpt lat="47.16947" lon="7.25988">
        <ele>571.6</ele>
      </trkpt>
      <trkpt lat="47.16949" lon="7.25992">
        <ele>572.7</ele>
      </trkpt>
      <trkpt lat="47.16948" lon="7.25994">
        <ele>572.8</ele>
      </trkpt>
      <trkpt lat="47.16948" lon="7.26006">
        <ele>575</ele>
      </trkpt>
      <trkpt lat="47.1695" lon="7.2602">
        <ele>579.9</ele>
      </trkpt>
      <trkpt lat="47.16947" lon="7.26033">
        <ele>583.4</ele>
      </trkpt>
      <trkpt lat="47.16922" lon="7.26052">
        <ele>585.5</ele>
      </trkpt>
      <trkpt lat="47.16886" lon="7.2607">
        <ele>596.1</ele>
      </trkpt>
      <trkpt lat="47.16884" lon="7.26078">
        <ele>599.9</ele>
      </trkpt>
      <trkpt lat="47.16887" lon="7.26094">
        <ele>604.7</ele>
      </trkpt>
      <trkpt lat="47.16912" lon="7.2611">
        <ele>605.9</ele>
      </trkpt>
      <trkpt lat="47.16972" lon="7.26107">
        <ele>607.5</ele>
      </trkpt>
      <trkpt lat="47.17011" lon="7.26124">
        <ele>614.1</ele>
      </trkpt>
      <trkpt lat="47.17026" lon="7.2612">
        <ele>615.2</ele>
      </trkpt>
      <trkpt lat="47.17074" lon="7.26189">
        <ele>629.4</ele>
      </trkpt>
      <trkpt lat="47.17083" lon="7.26208">
        <ele>633.5</ele>
      </trkpt>
      <trkpt lat="47.1712" lon="7.26263">
        <ele>647.5</ele>
      </trkpt>
      <trkpt lat="47.17133" lon="7.26313">
        <ele>653.4</ele>
      </trkpt>
      <trkpt lat="47.17154" lon="7.26359">
        <ele>657</ele>
      </trkpt>
      <trkpt lat="47.17151" lon="7.26377">
        <ele>659.5</ele>
      </trkpt>
      <trkpt lat="47.17168" lon="7.26413">
        <ele>661.7</ele>
      </trkpt>
      <trkpt lat="47.17186" lon="7.26445">
        <ele>666.7</ele>
      </trkpt>
      <trkpt lat="47.17201" lon="7.26466">
        <ele>668.7</ele>
      </trkpt>
      <trkpt lat="47.17213" lon="7.26479">
        <ele>669.2</ele>
      </trkpt>
      <trkpt lat="47.17226" lon="7.26492">
        <ele>668.9</ele>
      </trkpt>
      <trkpt lat="47.1726" lon="7.2653">
        <ele>671.6</ele>
      </trkpt>
      <trkpt lat="47.17277" lon="7.26551">
        <ele>677.4</ele>
      </trkpt>
      <trkpt lat="47.17289" lon="7.26569">
        <ele>680.9</ele>
      </trkpt>
      <trkpt lat="47.17298" lon="7.2659">
        <ele>683.6</ele>
      </trkpt>
      <trkpt lat="47.17321" lon="7.26645">
        <ele>691.2</ele>
      </trkpt>
      <trkpt lat="47.1733" lon="7.26671">
        <ele>693.6</ele>
      </trkpt>
      <trkpt lat="47.17339" lon="7.26698">
        <ele>697</ele>
      </trkpt>
      <trkpt lat="47.17343" lon="7.26713">
        <ele>698.8</ele>
      </trkpt>
      <trkpt lat="47.17344" lon="7.26727">
        <ele>699.7</ele>
      </trkpt>
      <trkpt lat="47.17344" lon="7.26739">
        <ele>700</ele>
      </trkpt>
      <trkpt lat="47.17342" lon="7.26751">
        <ele>699.8</ele>
      </trkpt>
      <trkpt lat="47.17341" lon="7.26761">
        <ele>700.4</ele>
      </trkpt>
      <trkpt lat="47.17341" lon="7.26772">
        <ele>701.7</ele>
      </trkpt>
      <trkpt lat="47.17344" lon="7.26786">
        <ele>703.8</ele>
      </trkpt>
      <trkpt lat="47.17354" lon="7.26834">
        <ele>710.6</ele>
      </trkpt>
      <trkpt lat="47.17362" lon="7.26883">
        <ele>714.3</ele>
      </trkpt>
      <trkpt lat="47.17368" lon="7.26912">
        <ele>716</ele>
      </trkpt>
      <trkpt lat="47.17376" lon="7.26942">
        <ele>716.7</ele>
      </trkpt>
      <trkpt lat="47.17383" lon="7.26951">
        <ele>717</ele>
      </trkpt>
      <trkpt lat="47.1741" lon="7.26988">
        <ele>715.3</ele>
      </trkpt>
      <trkpt lat="47.17418" lon="7.27001">
        <ele>714.6</ele>
      </trkpt>
      <trkpt lat="47.17428" lon="7.27021">
        <ele>717.6</ele>
      </trkpt>
      <trkpt lat="47.17441" lon="7.27053">
        <ele>719.9</ele>
      </trkpt>
      <trkpt lat="47.17472" lon="7.27135">
        <ele>721.1</ele>
      </trkpt>
      <trkpt lat="47.17478" lon="7.27149">
        <ele>720.8</ele>
      </trkpt>
      <trkpt lat="47.17484" lon="7.27169">
        <ele>720.1</ele>
      </trkpt>
      <trkpt lat="47.17503" lon="7.27227">
        <ele>722.8</ele>
      </trkpt>
      <trkpt lat="47.17516" lon="7.27281">
        <ele>727.3</ele>
      </trkpt>
      <trkpt lat="47.17526" lon="7.27276">
        <ele>731</ele>
      </trkpt>
      <trkpt lat="47.17538" lon="7.27282">
        <ele>734.8</ele>
      </trkpt>
      <trkpt lat="47.17554" lon="7.27303">
        <ele>739.1</ele>
      </trkpt>
      <trkpt lat="47.17574" lon="7.27335">
        <ele>743</ele>
      </trkpt>
      <trkpt lat="47.17587" lon="7.27356">
        <ele>744.9</ele>
      </trkpt>
      <trkpt lat="47.17604" lon="7.27372">
        <ele>750.8</ele>
      </trkpt>
      <trkpt lat="47.17617" lon="7.27382">
        <ele>755.1</ele>
      </trkpt>
      <trkpt lat="47.1763" lon="7.27397">
        <ele>759.1</ele>
      </trkpt>
      <trkpt lat="47.17673" lon="7.27494">
        <ele>764</ele>
      </trkpt>
      <trkpt lat="47.17701" lon="7.27539">
        <ele>768.5</ele>
      </trkpt>
      <trkpt lat="47.17727" lon="7.27579">
        <ele>772.4</ele>
      </trkpt>
      <trkpt lat="47.17739" lon="7.27602">
        <ele>774.7</ele>
      </trkpt>
      <trkpt lat="47.17741" lon="7.27602">
        <ele>775.7</ele>
      </trkpt>
      <trkpt lat="47.17745" lon="7.27598">
        <ele>777.9</ele>
      </trkpt>
      <trkpt lat="47.17751" lon="7.276">
        <ele>780.3</ele>
      </trkpt>
      <trkpt lat="47.1777" lon="7.2763">
        <ele>786.1</ele>
      </trkpt>
      <trkpt lat="47.1781" lon="7.27687">
        <ele>799.6</ele>
      </trkpt>
      <trkpt lat="47.1784" lon="7.27722">
        <ele>811.4</ele>
      </trkpt>
      <trkpt lat="47.17887" lon="7.27761">
        <ele>823.6</ele>
      </trkpt>
      <trkpt lat="47.17923" lon="7.2778">
        <ele>833.1</ele>
      </trkpt>
      <trkpt lat="47.17939" lon="7.27791">
        <ele>835.2</ele>
      </trkpt>
      <trkpt lat="47.17955" lon="7.27803">
        <ele>837.9</ele>
      </trkpt>
      <trkpt lat="47.17981" lon="7.27815">
        <ele>843.7</ele>
      </trkpt>
      <trkpt lat="47.17992" lon="7.27832">
        <ele>845.7</ele>
      </trkpt>
      <trkpt lat="47.18004" lon="7.27832">
        <ele>849.1</ele>
      </trkpt>
      <trkpt lat="47.18015" lon="7.27819">
        <ele>852.3</ele>
      </trkpt>
      <trkpt lat="47.18024" lon="7.2781">
        <ele>854.7</ele>
      </trkpt>
      <trkpt lat="47.18039" lon="7.27801">
        <ele>858.7</ele>
      </trkpt>
      <trkpt lat="47.18043" lon="7.27787">
        <ele>860.3</ele>
      </trkpt>
      <trkpt lat="47.18051" lon="7.2779">
        <ele>862.2</ele>
      </trkpt>
      <trkpt lat="47.18086" lon="7.2782">
        <ele>869.7</ele>
      </trkpt>
      <trkpt lat="47.18112" lon="7.27864">
        <ele>870.5</ele>
      </trkpt>
      <trkpt lat="47.18155" lon="7.27906">
        <ele>873.9</ele>
      </trkpt>
      <trkpt lat="47.18391" lon="7.28116">
        <ele>888</ele>
      </trkpt>
      <trkpt lat="47.18432" lon="7.28117">
        <ele>891.6</ele>
      </trkpt>
      <trkpt lat="47.18451" lon="7.2811">
        <ele>891.7</ele>
      </trkpt>
      <trkpt lat="47.1846" lon="7.2811">
        <ele>891.4</ele>
      </trkpt>
      <trkpt lat="47.18465" lon="7.28109">
        <ele>891.3</ele>
      </trkpt>
      <trkpt lat="47.1848" lon="7.28102">
        <ele>891.6</ele>
      </trkpt>
      <trkpt lat="47.18535" lon="7.28062">
        <ele>892.3</ele>
      </trkpt>
      <trkpt lat="47.1856" lon="7.2805">
        <ele>891.5</ele>
      </trkpt>
      <trkpt lat="47.1857" lon="7.28047">
        <ele>891</ele>
      </trkpt>
      <trkpt lat="47.18581" lon="7.2805">
        <ele>890</ele>
      </trkpt>
      <trkpt lat="47.18585" lon="7.28058">
        <ele>889.2</ele>
      </trkpt>
      <trkpt lat="47.18592" lon="7.28071">
        <ele>888.8</ele>
      </trkpt>
      <trkpt lat="47.18602" lon="7.28089">
        <ele>888.4</ele>
      </trkpt>
      <trkpt lat="47.18612" lon="7.2811">
        <ele>888.1</ele>
      </trkpt>
      <trkpt lat="47.18619" lon="7.28131">
        <ele>887.5</ele>
      </trkpt>
      <trkpt lat="47.18644" lon="7.28224">
        <ele>886.8</ele>
      </trkpt>
      <trkpt lat="47.18657" lon="7.28265">
        <ele>887.1</ele>
      </trkpt>
      <trkpt lat="47.18663" lon="7.28281">
        <ele>887.1</ele>
      </trkpt>
      <trkpt lat="47.18676" lon="7.28314">
        <ele>886.3</ele>
      </trkpt>
      <trkpt lat="47.18683" lon="7.2833">
        <ele>885.7</ele>
      </trkpt>
      <trkpt lat="47.18712" lon="7.28418">
        <ele>880.7</ele>
      </trkpt>
      <trkpt lat="47.18729" lon="7.28467">
        <ele>878.6</ele>
      </trkpt>
      <trkpt lat="47.18747" lon="7.28499">
        <ele>877.8</ele>
      </trkpt>
      <trkpt lat="47.1876" lon="7.28532">
        <ele>875.1</ele>
      </trkpt>
      <trkpt lat="47.18772" lon="7.28555">
        <ele>873.2</ele>
      </trkpt>
      <trkpt lat="47.18784" lon="7.28581">
        <ele>871.1</ele>
      </trkpt>
      <trkpt lat="47.18792" lon="7.28601">
        <ele>869.1</ele>
      </trkpt>
      <trkpt lat="47.188" lon="7.28589">
        <ele>870.7</ele>
      </trkpt>
      <trkpt lat="47.18809" lon="7.28579">
        <ele>871.8</ele>
      </trkpt>
      <trkpt lat="47.18816" lon="7.28578">
        <ele>872.1</ele>
      </trkpt>
      <trkpt lat="47.18831" lon="7.28584">
        <ele>871.9</ele>
      </trkpt>
      <trkpt lat="47.18857" lon="7.28597">
        <ele>874.2</ele>
      </trkpt>
      <trkpt lat="47.18874" lon="7.28606">
        <ele>875.9</ele>
      </trkpt>
      <trkpt lat="47.18893" lon="7.28617">
        <ele>877.6</ele>
      </trkpt>
      <trkpt lat="47.18905" lon="7.28625">
        <ele>878.9</ele>
      </trkpt>
      <trkpt lat="47.18916" lon="7.28636">
        <ele>879.8</ele>
      </trkpt>
      <trkpt lat="47.18917" lon="7.28637">
        <ele>879.8</ele>
      </trkpt>
      <trkpt lat="47.18923" lon="7.28644">
        <ele>880.8</ele>
      </trkpt>
      <trkpt lat="47.18931" lon="7.28651">
        <ele>881.9</ele>
      </trkpt>
      <trkpt lat="47.18946" lon="7.28662">
        <ele>884.4</ele>
      </trkpt>
      <trkpt lat="47.18966" lon="7.28678">
        <ele>886.8</ele>
      </trkpt>
      <trkpt lat="47.18983" lon="7.28698">
        <ele>888.1</ele>
      </trkpt>
      <trkpt lat="47.19012" lon="7.28727">
        <ele>891.2</ele>
      </trkpt>
      <trkpt lat="47.19026" lon="7.28744">
        <ele>892.4</ele>
      </trkpt>
      <trkpt lat="47.19053" lon="7.2877">
        <ele>894.5</ele>
      </trkpt>
      <trkpt lat="47.19071" lon="7.28787">
        <ele>895.6</ele>
      </trkpt>
      <trkpt lat="47.19088" lon="7.28799">
        <ele>897.9</ele>
      </trkpt>
      <trkpt lat="47.19099" lon="7.28807">
        <ele>900</ele>
      </trkpt>
      <trkpt lat="47.19108" lon="7.28817">
        <ele>900.9</ele>
      </trkpt>
      <trkpt lat="47.1914" lon="7.28861">
        <ele>901.9</ele>
      </trkpt>
      <trkpt lat="47.19157" lon="7.28875">
        <ele>903.4</ele>
      </trkpt>
      <trkpt lat="47.19174" lon="7.28888">
        <ele>906.3</ele>
      </trkpt>
      <trkpt lat="47.19179" lon="7.28896">
        <ele>906.6</ele>
      </trkpt>
      <trkpt lat="47.1919" lon="7.28918">
        <ele>905.9</ele>
      </trkpt>
      <trkpt lat="47.19202" lon="7.28938">
        <ele>907</ele>
      </trkpt>
      <trkpt lat="47.19214" lon="7.28947">
        <ele>909.5</ele>
      </trkpt>
      <trkpt lat="47.19223" lon="7.28962">
        <ele>909.7</ele>
      </trkpt>
      <trkpt lat="47.19234" lon="7.28994">
        <ele>905.9</ele>
      </trkpt>
      <trkpt lat="47.19239" lon="7.2901">
        <ele>904.4</ele>
      </trkpt>
      <trkpt lat="47.19243" lon="7.29026">
        <ele>902.9</ele>
      </trkpt>
      <trkpt lat="47.19245" lon="7.29034">
        <ele>902.2</ele>
      </trkpt>
      <trkpt lat="47.19248" lon="7.29032">
        <ele>903.5</ele>
      </trkpt>
      <trkpt lat="47.19257" lon="7.29041">
        <ele>905.6</ele>
      </trkpt>
      <trkpt lat="47.19272" lon="7.29054">
        <ele>910.2</ele>
      </trkpt>
      <trkpt lat="47.19294" lon="7.29077">
        <ele>915.4</ele>
      </trkpt>
      <trkpt lat="47.19311" lon="7.29104">
        <ele>917.1</ele>
      </trkpt>
      <trkpt lat="47.19334" lon="7.29143">
        <ele>918.6</ele>
      </trkpt>
      <trkpt lat="47.19351" lon="7.29177">
        <ele>922.8</ele>
      </trkpt>
      <trkpt lat="47.19398" lon="7.29244">
        <ele>943.6</ele>
      </trkpt>
      <trkpt lat="47.19407" lon="7.29265">
        <ele>947.7</ele>
      </trkpt>
      <trkpt lat="47.19412" lon="7.29292">
        <ele>949</ele>
      </trkpt>
      <trkpt lat="47.19419" lon="7.29313">
        <ele>952.3</ele>
      </trkpt>
      <trkpt lat="47.19483" lon="7.29411">
        <ele>980.8</ele>
      </trkpt>
      <trkpt lat="47.19509" lon="7.29447">
        <ele>993.1</ele>
      </trkpt>
      <trkpt lat="47.19527" lon="7.29492">
        <ele>1000.9</ele>
      </trkpt>
      <trkpt lat="47.19537" lon="7.29525">
        <ele>1006.4</ele>
      </trkpt>
      <trkpt lat="47.19562" lon="7.29557">
        <ele>1017.3</ele>
      </trkpt>
      <trkpt lat="47.19571" lon="7.29569">
        <ele>1021.3</ele>
      </trkpt>
      <trkpt lat="47.19579" lon="7.29597">
        <ele>1026.7</ele>
      </trkpt>
      <trkpt lat="47.19583" lon="7.29631">
        <ele>1031.6</ele>
      </trkpt>
      <trkpt lat="47.19593" lon="7.29684">
        <ele>1038.9</ele>
      </trkpt>
      <trkpt lat="47.19596" lon="7.29718">
        <ele>1044.2</ele>
      </trkpt>
      <trkpt lat="47.19596" lon="7.29737">
        <ele>1047</ele>
      </trkpt>
      <trkpt lat="47.19596" lon="7.29748">
        <ele>1048.7</ele>
      </trkpt>
      <trkpt lat="47.19603" lon="7.29771">
        <ele>1050.9</ele>
      </trkpt>
      <trkpt lat="47.19605" lon="7.29793">
        <ele>1052.5</ele>
      </trkpt>
      <trkpt lat="47.19612" lon="7.29818">
        <ele>1055.1</ele>
      </trkpt>
      <trkpt lat="47.19613" lon="7.29846">
        <ele>1057.3</ele>
      </trkpt>
      <trkpt lat="47.19623" lon="7.2988">
        <ele>1062</ele>
      </trkpt>
      <trkpt lat="47.19639" lon="7.29931">
        <ele>1069.3</ele>
      </trkpt>
      <trkpt lat="47.19652" lon="7.29952">
        <ele>1072.4</ele>
      </trkpt>
      <trkpt lat="47.19637" lon="7.3002">
        <ele>1066.7</ele>
      </trkpt>
      <trkpt lat="47.19633" lon="7.30068">
        <ele>1062.6</ele>
      </trkpt>
      <trkpt lat="47.19666" lon="7.30211">
        <ele>1076.4</ele>
      </trkpt>
      <trkpt lat="47.1967" lon="7.30227">
        <ele>1077.4</ele>
      </trkpt>
      <trkpt lat="47.19674" lon="7.30276">
        <ele>1077.5</ele>
      </trkpt>
      <trkpt lat="47.19683" lon="7.30328">
        <ele>1076.2</ele>
      </trkpt>
      <trkpt lat="47.19684" lon="7.30383">
        <ele>1075.8</ele>
      </trkpt>
      <trkpt lat="47.19684" lon="7.30423">
        <ele>1075.8</ele>
      </trkpt>
      <trkpt lat="47.19674" lon="7.30498">
        <ele>1076.4</ele>
      </trkpt>
      <trkpt lat="47.19672" lon="7.30523">
        <ele>1075.6</ele>
      </trkpt>
      <trkpt lat="47.19673" lon="7.30536">
        <ele>1075.3</ele>
      </trkpt>
      <trkpt lat="47.19676" lon="7.30551">
        <ele>1075.2</ele>
      </trkpt>
      <trkpt lat="47.19683" lon="7.30589">
        <ele>1075.8</ele>
      </trkpt>
      <trkpt lat="47.19686" lon="7.30611">
        <ele>1077.4</ele>
      </trkpt>
      <trkpt lat="47.19688" lon="7.3064">
        <ele>1079</ele>
      </trkpt>
      <trkpt lat="47.19696" lon="7.3069">
        <ele>1079.8</ele>
      </trkpt>
      <trkpt lat="47.19707" lon="7.30735">
        <ele>1077.9</ele>
      </trkpt>
      <trkpt lat="47.19713" lon="7.30781">
        <ele>1076.4</ele>
      </trkpt>
      <trkpt lat="47.19713" lon="7.3081">
        <ele>1075.4</ele>
      </trkpt>
      <trkpt lat="47.19713" lon="7.30835">
        <ele>1074.7</ele>
      </trkpt>
      <trkpt lat="47.19715" lon="7.30858">
        <ele>1074.9</ele>
      </trkpt>
      <trkpt lat="47.1972" lon="7.3087">
        <ele>1075.1</ele>
      </trkpt>
      <trkpt lat="47.19731" lon="7.3089">
        <ele>1075.5</ele>
      </trkpt>
      <trkpt lat="47.19788" lon="7.30988">
        <ele>1077</ele>
      </trkpt>
      <trkpt lat="47.19804" lon="7.3102">
        <ele>1076.3</ele>
      </trkpt>
      <trkpt lat="47.19817" lon="7.31056">
        <ele>1075</ele>
      </trkpt>
      <trkpt lat="47.19825" lon="7.31092">
        <ele>1073.7</ele>
      </trkpt>
      <trkpt lat="47.19835" lon="7.31135">
        <ele>1072.3</ele>
      </trkpt>
      <trkpt lat="47.1985" lon="7.31178">
        <ele>1072.2</ele>
      </trkpt>
      <trkpt lat="47.19856" lon="7.31198">
        <ele>1072.7</ele>
      </trkpt>
      <trkpt lat="47.19869" lon="7.31238">
        <ele>1073.3</ele>
      </trkpt>
      <trkpt lat="47.19875" lon="7.31261">
        <ele>1073.5</ele>
      </trkpt>
      <trkpt lat="47.19881" lon="7.31294">
        <ele>1073.6</ele>
      </trkpt>
      <trkpt lat="47.1991" lon="7.31445">
        <ele>1076.5</ele>
      </trkpt>
      <trkpt lat="47.1992" lon="7.31493">
        <ele>1078.9</ele>
      </trkpt>
      <trkpt lat="47.19944" lon="7.316">
        <ele>1084.1</ele>
      </trkpt>
      <trkpt lat="47.19949" lon="7.31672">
        <ele>1084.1</ele>
      </trkpt>
      <trkpt lat="47.19961" lon="7.31732">
        <ele>1085.5</ele>
      </trkpt>
      <trkpt lat="47.19972" lon="7.31769">
        <ele>1086.7</ele>
      </trkpt>
      <trkpt lat="47.19979" lon="7.3178">
        <ele>1087.5</ele>
      </trkpt>
      <trkpt lat="47.1999" lon="7.318">
        <ele>1088.6</ele>
      </trkpt>
      <trkpt lat="47.19993" lon="7.31803">
        <ele>1088.8</ele>
      </trkpt>
      <trkpt lat="47.19994" lon="7.31805">
        <ele>1089</ele>
      </trkpt>
      <trkpt lat="47.20009" lon="7.31819">
        <ele>1090.6</ele>
      </trkpt>
      <trkpt lat="47.20025" lon="7.31842">
        <ele>1092.1</ele>
      </trkpt>
      <trkpt lat="47.2004" lon="7.31871">
        <ele>1093.2</ele>
      </trkpt>
      <trkpt lat="47.20054" lon="7.31912">
        <ele>1093.3</ele>
      </trkpt>
      <trkpt lat="47.20066" lon="7.31948">
        <ele>1094.7</ele>
      </trkpt>
      <trkpt lat="47.20123" lon="7.32118">
        <ele>1107</ele>
      </trkpt>
      <trkpt lat="47.20128" lon="7.32137">
        <ele>1107.6</ele>
      </trkpt>
      <trkpt lat="47.20196" lon="7.32371">
        <ele>1110.2</ele>
      </trkpt>
      <trkpt lat="47.20199" lon="7.32385">
        <ele>1111</ele>
      </trkpt>
      <trkpt lat="47.20199" lon="7.32399">
        <ele>1111.6</ele>
      </trkpt>
      <trkpt lat="47.20194" lon="7.32416">
        <ele>1111.9</ele>
      </trkpt>
      <trkpt lat="47.20192" lon="7.32427">
        <ele>1112.2</ele>
      </trkpt>
      <trkpt lat="47.2019" lon="7.32438">
        <ele>1112.5</ele>
      </trkpt>
      <trkpt lat="47.20188" lon="7.32447">
        <ele>1112.7</ele>
      </trkpt>
      <trkpt lat="47.20187" lon="7.32461">
        <ele>1113.1</ele>
      </trkpt>
      <trkpt lat="47.20185" lon="7.32534">
        <ele>1115.1</ele>
      </trkpt>
      <trkpt lat="47.2018" lon="7.32618">
        <ele>1115.6</ele>
      </trkpt>
      <trkpt lat="47.20178" lon="7.32641">
        <ele>1115.6</ele>
      </trkpt>
      <trkpt lat="47.20179" lon="7.32667">
        <ele>1116</ele>
      </trkpt>
      <trkpt lat="47.20181" lon="7.32687">
        <ele>1116.5</ele>
      </trkpt>
      <trkpt lat="47.20182" lon="7.32694">
        <ele>1116.7</ele>
      </trkpt>
      <trkpt lat="47.20191" lon="7.32705">
        <ele>1118</ele>
      </trkpt>
      <trkpt lat="47.20194" lon="7.32723">
        <ele>1118.3</ele>
      </trkpt>
      <trkpt lat="47.20195" lon="7.32732">
        <ele>1118.5</ele>
      </trkpt>
      <trkpt lat="47.20198" lon="7.32756">
        <ele>1118.8</ele>
      </trkpt>
      <trkpt lat="47.20202" lon="7.32786">
        <ele>1119.3</ele>
      </trkpt>
      <trkpt lat="47.20215" lon="7.328">
        <ele>1120.7</ele>
      </trkpt>
      <trkpt lat="47.20221" lon="7.32823">
        <ele>1121.2</ele>
      </trkpt>
      <trkpt lat="47.2026" lon="7.32976">
        <ele>1130.2</ele>
      </trkpt>
      <trkpt lat="47.2027" lon="7.33004">
        <ele>1131.9</ele>
      </trkpt>
      <trkpt lat="47.2027" lon="7.33005">
        <ele>1131.9</ele>
      </trkpt>
      <trkpt lat="47.2027" lon="7.33006">
        <ele>1132</ele>
      </trkpt>
      <trkpt lat="47.20291" lon="7.3307">
        <ele>1135.3</ele>
      </trkpt>
      <trkpt lat="47.20303" lon="7.33097">
        <ele>1137.1</ele>
      </trkpt>
      <trkpt lat="47.20356" lon="7.33195">
        <ele>1146.3</ele>
      </trkpt>
      <trkpt lat="47.20368" lon="7.33228">
        <ele>1149.4</ele>
      </trkpt>
      <trkpt lat="47.20374" lon="7.33254">
        <ele>1151</ele>
      </trkpt>
      <trkpt lat="47.20379" lon="7.33289">
        <ele>1151.2</ele>
      </trkpt>
      <trkpt lat="47.20385" lon="7.33302">
        <ele>1151.5</ele>
      </trkpt>
      <trkpt lat="47.20395" lon="7.33313">
        <ele>1152</ele>
      </trkpt>
      <trkpt lat="47.204" lon="7.33319">
        <ele>1152.2</ele>
      </trkpt>
      <trkpt lat="47.20407" lon="7.33328">
        <ele>1152.5</ele>
      </trkpt>
      <trkpt lat="47.2041" lon="7.33335">
        <ele>1152.7</ele>
      </trkpt>
      <trkpt lat="47.20413" lon="7.3334">
        <ele>1153</ele>
      </trkpt>
      <trkpt lat="47.20416" lon="7.33351">
        <ele>1153.4</ele>
      </trkpt>
      <trkpt lat="47.20421" lon="7.33369">
        <ele>1154.2</ele>
      </trkpt>
      <trkpt lat="47.20426" lon="7.33399">
        <ele>1155.3</ele>
      </trkpt>
      <trkpt lat="47.20427" lon="7.33406">
        <ele>1155.5</ele>
      </trkpt>
      <trkpt lat="47.20428" lon="7.33418">
        <ele>1155.9</ele>
      </trkpt>
      <trkpt lat="47.20426" lon="7.3344">
        <ele>1157.1</ele>
      </trkpt>
      <trkpt lat="47.20425" lon="7.33462">
        <ele>1158.4</ele>
      </trkpt>
      <trkpt lat="47.20426" lon="7.33483">
        <ele>1159.8</ele>
      </trkpt>
      <trkpt lat="47.20425" lon="7.33493">
        <ele>1160.3</ele>
      </trkpt>
      <trkpt lat="47.20423" lon="7.33506">
        <ele>1161.1</ele>
      </trkpt>
      <trkpt lat="47.20415" lon="7.33547">
        <ele>1163.2</ele>
      </trkpt>
      <trkpt lat="47.20414" lon="7.3356">
        <ele>1163.9</ele>
      </trkpt>
      <trkpt lat="47.20413" lon="7.33579">
        <ele>1165.1</ele>
      </trkpt>
      <trkpt lat="47.20414" lon="7.33594">
        <ele>1165.4</ele>
      </trkpt>
      <trkpt lat="47.20417" lon="7.33612">
        <ele>1165.3</ele>
      </trkpt>
      <trkpt lat="47.20422" lon="7.33635">
        <ele>1165.5</ele>
      </trkpt>
      <trkpt lat="47.20427" lon="7.33652">
        <ele>1165.7</ele>
      </trkpt>
      <trkpt lat="47.20432" lon="7.33666">
        <ele>1166.2</ele>
      </trkpt>
      <trkpt lat="47.20449" lon="7.33703">
        <ele>1167.9</ele>
      </trkpt>
      <trkpt lat="47.20468" lon="7.33745">
        <ele>1170</ele>
      </trkpt>
      <trkpt lat="47.20476" lon="7.33765">
        <ele>1170</ele>
      </trkpt>
      <trkpt lat="47.20479" lon="7.3377">
        <ele>1170.1</ele>
      </trkpt>
      <trkpt lat="47.20481" lon="7.33773">
        <ele>1170.3</ele>
      </trkpt>
      <trkpt lat="47.20489" lon="7.33783">
        <ele>1170.7</ele>
      </trkpt>
      <trkpt lat="47.2052" lon="7.33807">
        <ele>1169.4</ele>
      </trkpt>
      <trkpt lat="47.20523" lon="7.33811">
        <ele>1169</ele>
      </trkpt>
      <trkpt lat="47.20526" lon="7.33816">
        <ele>1168.5</ele>
      </trkpt>
      <trkpt lat="47.20528" lon="7.33821">
        <ele>1168.1</ele>
      </trkpt>
      <trkpt lat="47.20529" lon="7.33826">
        <ele>1167.8</ele>
      </trkpt>
      <trkpt lat="47.2053" lon="7.33832">
        <ele>1167.4</ele>
      </trkpt>
      <trkpt lat="47.2053" lon="7.33893">
        <ele>1166.6</ele>
      </trkpt>
      <trkpt lat="47.20532" lon="7.33925">
        <ele>1166.4</ele>
      </trkpt>
      <trkpt lat="47.20534" lon="7.3395">
        <ele>1166.4</ele>
      </trkpt>
      <trkpt lat="47.20538" lon="7.33978">
        <ele>1166.5</ele>
      </trkpt>
      <trkpt lat="47.20544" lon="7.34027">
        <ele>1166.7</ele>
      </trkpt>
      <trkpt lat="47.20548" lon="7.34044">
        <ele>1166.9</ele>
      </trkpt>
      <trkpt lat="47.20551" lon="7.34056">
        <ele>1167</ele>
      </trkpt>
      <trkpt lat="47.20555" lon="7.34069">
        <ele>1167.2</ele>
      </trkpt>
      <trkpt lat="47.20563" lon="7.34085">
        <ele>1167.6</ele>
      </trkpt>
      <trkpt lat="47.20582" lon="7.34112">
        <ele>1168.6</ele>
      </trkpt>
      <trkpt lat="47.20623" lon="7.34176">
        <ele>1170.4</ele>
      </trkpt>
      <trkpt lat="47.20627" lon="7.34187">
        <ele>1171.5</ele>
      </trkpt>
      <trkpt lat="47.20631" lon="7.34199">
        <ele>1172.6</ele>
      </trkpt>
      <trkpt lat="47.20664" lon="7.34353">
        <ele>1188.5</ele>
      </trkpt>
      <trkpt lat="47.20707" lon="7.34485">
        <ele>1192.8</ele>
      </trkpt>
      <trkpt lat="47.20719" lon="7.34511">
        <ele>1194.1</ele>
      </trkpt>
      <trkpt lat="47.20719" lon="7.34515">
        <ele>1194.3</ele>
      </trkpt>
      <trkpt lat="47.20719" lon="7.34519">
        <ele>1194.6</ele>
      </trkpt>
      <trkpt lat="47.20717" lon="7.34541">
        <ele>1196.2</ele>
      </trkpt>
      <trkpt lat="47.20715" lon="7.34559">
        <ele>1197.4</ele>
      </trkpt>
      <trkpt lat="47.20715" lon="7.34574">
        <ele>1198.4</ele>
      </trkpt>
      <trkpt lat="47.20723" lon="7.34676">
        <ele>1201.4</ele>
      </trkpt>
      <trkpt lat="47.20725" lon="7.34702">
        <ele>1201.7</ele>
      </trkpt>
      <trkpt lat="47.20725" lon="7.34725">
        <ele>1202</ele>
      </trkpt>
      <trkpt lat="47.20725" lon="7.34772">
        <ele>1202.4</ele>
      </trkpt>
      <trkpt lat="47.20729" lon="7.34812">
        <ele>1202.6</ele>
      </trkpt>
      <trkpt lat="47.20735" lon="7.34847">
        <ele>1202.1</ele>
      </trkpt>
      <trkpt lat="47.20735" lon="7.3486">
        <ele>1201.4</ele>
      </trkpt>
      <trkpt lat="47.20732" lon="7.34873">
        <ele>1200.6</ele>
      </trkpt>
      <trkpt lat="47.20729" lon="7.34891">
        <ele>1199.4</ele>
      </trkpt>
      <trkpt lat="47.20722" lon="7.34923">
        <ele>1197.4</ele>
      </trkpt>
      <trkpt lat="47.20719" lon="7.34937">
        <ele>1196.9</ele>
      </trkpt>
      <trkpt lat="47.20718" lon="7.34948">
        <ele>1196.4</ele>
      </trkpt>
      <trkpt lat="47.20718" lon="7.34958">
        <ele>1196.1</ele>
      </trkpt>
      <trkpt lat="47.2072" lon="7.34971">
        <ele>1195.8</ele>
      </trkpt>
      <trkpt lat="47.20745" lon="7.35072">
        <ele>1194.1</ele>
      </trkpt>
      <trkpt lat="47.20759" lon="7.35166">
        <ele>1192</ele>
      </trkpt>
      <trkpt lat="47.20766" lon="7.35228">
        <ele>1188.3</ele>
      </trkpt>
      <trkpt lat="47.20767" lon="7.35242">
        <ele>1187.7</ele>
      </trkpt>
      <trkpt lat="47.20764" lon="7.35282">
        <ele>1185.7</ele>
      </trkpt>
      <trkpt lat="47.20764" lon="7.35312">
        <ele>1183.2</ele>
      </trkpt>
      <trkpt lat="47.20766" lon="7.35348">
        <ele>1180.1</ele>
      </trkpt>
      <trkpt lat="47.20768" lon="7.35366">
        <ele>1178.5</ele>
      </trkpt>
      <trkpt lat="47.20768" lon="7.35376">
        <ele>1177.9</ele>
      </trkpt>
      <trkpt lat="47.20764" lon="7.354">
        <ele>1176.9</ele>
      </trkpt>
      <trkpt lat="47.20762" lon="7.35428">
        <ele>1176</ele>
      </trkpt>
      <trkpt lat="47.20764" lon="7.35457">
        <ele>1175.2</ele>
      </trkpt>
      <trkpt lat="47.20769" lon="7.35482">
        <ele>1174.2</ele>
      </trkpt>
      <trkpt lat="47.20777" lon="7.35511">
        <ele>1172.3</ele>
      </trkpt>
      <trkpt lat="47.20788" lon="7.3554">
        <ele>1169.6</ele>
      </trkpt>
      <trkpt lat="47.20807" lon="7.35623">
        <ele>1163.7</ele>
      </trkpt>
      <trkpt lat="47.20807" lon="7.3565">
        <ele>1161.7</ele>
      </trkpt>
      <trkpt lat="47.20809" lon="7.35669">
        <ele>1160.3</ele>
      </trkpt>
      <trkpt lat="47.20812" lon="7.35698">
        <ele>1158.1</ele>
      </trkpt>
      <trkpt lat="47.20812" lon="7.35722">
        <ele>1156.1</ele>
      </trkpt>
      <trkpt lat="47.20817" lon="7.35739">
        <ele>1155.2</ele>
      </trkpt>
      <trkpt lat="47.20826" lon="7.35762">
        <ele>1154.8</ele>
      </trkpt>
      <trkpt lat="47.20841" lon="7.3579">
        <ele>1153.1</ele>
      </trkpt>
      <trkpt lat="47.20845" lon="7.35801">
        <ele>1151.9</ele>
      </trkpt>
      <trkpt lat="47.20847" lon="7.35807">
        <ele>1151.4</ele>
      </trkpt>
      <trkpt lat="47.20848" lon="7.35813">
        <ele>1151.1</ele>
      </trkpt>
      <trkpt lat="47.20848" lon="7.3582">
        <ele>1151</ele>
      </trkpt>
      <trkpt lat="47.20846" lon="7.35828">
        <ele>1151.2</ele>
      </trkpt>
      <trkpt lat="47.20835" lon="7.35854">
        <ele>1152.2</ele>
      </trkpt>
      <trkpt lat="47.20828" lon="7.3589">
        <ele>1150.7</ele>
      </trkpt>
      <trkpt lat="47.20826" lon="7.35924">
        <ele>1149.1</ele>
      </trkpt>
      <trkpt lat="47.20825" lon="7.35974">
        <ele>1144.5</ele>
      </trkpt>
      <trkpt lat="47.2083" lon="7.36047">
        <ele>1139.5</ele>
      </trkpt>
      <trkpt lat="47.20834" lon="7.36062">
        <ele>1138.8</ele>
      </trkpt>
      <trkpt lat="47.20844" lon="7.36097">
        <ele>1137</ele>
      </trkpt>
      <trkpt lat="47.20869" lon="7.36165">
        <ele>1133.1</ele>
      </trkpt>
      <trkpt lat="47.20882" lon="7.36194">
        <ele>1131</ele>
      </trkpt>
      <trkpt lat="47.20894" lon="7.3621">
        <ele>1129.7</ele>
      </trkpt>
      <trkpt lat="47.20906" lon="7.36219">
        <ele>1129</ele>
      </trkpt>
      <trkpt lat="47.20915" lon="7.36221">
        <ele>1129.2</ele>
      </trkpt>
      <trkpt lat="47.20929" lon="7.36217">
        <ele>1127.5</ele>
      </trkpt>
      <trkpt lat="47.20952" lon="7.36205">
        <ele>1125.2</ele>
      </trkpt>
      <trkpt lat="47.20964" lon="7.36199">
        <ele>1123.7</ele>
      </trkpt>
      <trkpt lat="47.2098" lon="7.36194">
        <ele>1121.5</ele>
      </trkpt>
      <trkpt lat="47.20993" lon="7.36192">
        <ele>1119.2</ele>
      </trkpt>
      <trkpt lat="47.21003" lon="7.36192">
        <ele>1117.8</ele>
      </trkpt>
      <trkpt lat="47.21014" lon="7.36195">
        <ele>1116.7</ele>
      </trkpt>
      <trkpt lat="47.21028" lon="7.36202">
        <ele>1115</ele>
      </trkpt>
      <trkpt lat="47.21039" lon="7.36211">
        <ele>1113.4</ele>
      </trkpt>
      <trkpt lat="47.21061" lon="7.36226">
        <ele>1110.8</ele>
      </trkpt>
      <trkpt lat="47.21085" lon="7.36239">
        <ele>1108.8</ele>
      </trkpt>
      <trkpt lat="47.21091" lon="7.36244">
        <ele>1108.7</ele>
      </trkpt>
      <trkpt lat="47.21098" lon="7.36252">
        <ele>1108.5</ele>
      </trkpt>
      <trkpt lat="47.21105" lon="7.36262">
        <ele>1109.1</ele>
      </trkpt>
      <trkpt lat="47.21102" lon="7.36268">
        <ele>1109.1</ele>
      </trkpt>
      <trkpt lat="47.21099" lon="7.36281">
        <ele>1109</ele>
      </trkpt>
      <trkpt lat="47.21097" lon="7.36292">
        <ele>1109</ele>
      </trkpt>
      <trkpt lat="47.21093" lon="7.36329">
        <ele>1108.7</ele>
      </trkpt>
      <trkpt lat="47.21092" lon="7.36346">
        <ele>1108.5</ele>
      </trkpt>
      <trkpt lat="47.2109" lon="7.36419">
        <ele>1108.2</ele>
      </trkpt>
      <trkpt lat="47.21087" lon="7.36453">
        <ele>1103.9</ele>
      </trkpt>
      <trkpt lat="47.21085" lon="7.36464">
        <ele>1102.3</ele>
      </trkpt>
      <trkpt lat="47.21083" lon="7.36471">
        <ele>1101.2</ele>
      </trkpt>
      <trkpt lat="47.21071" lon="7.36511">
        <ele>1096.4</ele>
      </trkpt>
      <trkpt lat="47.21062" lon="7.36542">
        <ele>1095</ele>
      </trkpt>
      <trkpt lat="47.21058" lon="7.36569">
        <ele>1093.7</ele>
      </trkpt>
      <trkpt lat="47.21053" lon="7.36622">
        <ele>1090.3</ele>
      </trkpt>
      <trkpt lat="47.21053" lon="7.36633">
        <ele>1089.6</ele>
      </trkpt>
      <trkpt lat="47.21054" lon="7.36644">
        <ele>1089.3</ele>
      </trkpt>
      <trkpt lat="47.21064" lon="7.36718">
        <ele>1091.5</ele>
      </trkpt>
      <trkpt lat="47.21065" lon="7.3673">
        <ele>1091.9</ele>
      </trkpt>
      <trkpt lat="47.21064" lon="7.36753">
        <ele>1091.6</ele>
      </trkpt>
      <trkpt lat="47.21062" lon="7.36779">
        <ele>1089.5</ele>
      </trkpt>
      <trkpt lat="47.21062" lon="7.36789">
        <ele>1089</ele>
      </trkpt>
      <trkpt lat="47.21068" lon="7.36861">
        <ele>1086.5</ele>
      </trkpt>
      <trkpt lat="47.21068" lon="7.36873">
        <ele>1085.6</ele>
      </trkpt>
      <trkpt lat="47.21067" lon="7.36896">
        <ele>1083.3</ele>
      </trkpt>
      <trkpt lat="47.21065" lon="7.3691">
        <ele>1081.7</ele>
      </trkpt>
      <trkpt lat="47.21061" lon="7.36923">
        <ele>1080.1</ele>
      </trkpt>
      <trkpt lat="47.21056" lon="7.36949">
        <ele>1077.2</ele>
      </trkpt>
      <trkpt lat="47.21051" lon="7.36963">
        <ele>1075.7</ele>
      </trkpt>
      <trkpt lat="47.21046" lon="7.36979">
        <ele>1074</ele>
      </trkpt>
      <trkpt lat="47.21051" lon="7.36987">
        <ele>1074.3</ele>
      </trkpt>
      <trkpt lat="47.21054" lon="7.36993">
        <ele>1074.3</ele>
      </trkpt>
      <trkpt lat="47.21058" lon="7.37002">
        <ele>1074.1</ele>
      </trkpt>
      <trkpt lat="47.21062" lon="7.37017">
        <ele>1073.9</ele>
      </trkpt>
      <trkpt lat="47.21064" lon="7.37025">
        <ele>1073.9</ele>
      </trkpt>
      <trkpt lat="47.21067" lon="7.3703">
        <ele>1073.9</ele>
      </trkpt>
      <trkpt lat="47.21071" lon="7.37037">
        <ele>1074</ele>
      </trkpt>
      <trkpt lat="47.21073" lon="7.37041">
        <ele>1074.1</ele>
      </trkpt>
      <trkpt lat="47.21078" lon="7.37046">
        <ele>1074.3</ele>
      </trkpt>
      <trkpt lat="47.21082" lon="7.37049">
        <ele>1074.5</ele>
      </trkpt>
      <trkpt lat="47.21108" lon="7.37071">
        <ele>1082.1</ele>
      </trkpt>
      <trkpt lat="47.21113" lon="7.37078">
        <ele>1083.6</ele>
      </trkpt>
      <trkpt lat="47.21118" lon="7.37085">
        <ele>1085.1</ele>
      </trkpt>
      <trkpt lat="47.21129" lon="7.37102">
        <ele>1087.3</ele>
      </trkpt>
      <trkpt lat="47.21142" lon="7.37128">
        <ele>1089.6</ele>
      </trkpt>
      <trkpt lat="47.21158" lon="7.3716">
        <ele>1092.5</ele>
      </trkpt>
      <trkpt lat="47.21195" lon="7.37235">
        <ele>1102.3</ele>
      </trkpt>
      <trkpt lat="47.21202" lon="7.3724">
        <ele>1104.7</ele>
      </trkpt>
      <trkpt lat="47.21208" lon="7.37245">
        <ele>1106.9</ele>
      </trkpt>
      <trkpt lat="47.2121" lon="7.37247">
        <ele>1107.4</ele>
      </trkpt>
      <trkpt lat="47.21211" lon="7.37249">
        <ele>1107.7</ele>
      </trkpt>
      <trkpt lat="47.2122" lon="7.37264">
        <ele>1110</ele>
      </trkpt>
      <trkpt lat="47.21227" lon="7.37275">
        <ele>1111.8</ele>
      </trkpt>
      <trkpt lat="47.21235" lon="7.3729">
        <ele>1114.1</ele>
      </trkpt>
      <trkpt lat="47.21243" lon="7.37307">
        <ele>1116.1</ele>
      </trkpt>
      <trkpt lat="47.21254" lon="7.37322">
        <ele>1119.3</ele>
      </trkpt>
      <trkpt lat="47.21259" lon="7.37332">
        <ele>1121.1</ele>
      </trkpt>
      <trkpt lat="47.21271" lon="7.37347">
        <ele>1125.5</ele>
      </trkpt>
      <trkpt lat="47.21292" lon="7.37381">
        <ele>1133.1</ele>
      </trkpt>
      <trkpt lat="47.21303" lon="7.37412">
        <ele>1136.2</ele>
      </trkpt>
      <trkpt lat="47.2131" lon="7.37438">
        <ele>1137.4</ele>
      </trkpt>
      <trkpt lat="47.21331" lon="7.37487">
        <ele>1143.8</ele>
      </trkpt>
      <trkpt lat="47.2134" lon="7.37505">
        <ele>1146.8</ele>
      </trkpt>
      <trkpt lat="47.21347" lon="7.37522">
        <ele>1149.2</ele>
      </trkpt>
      <trkpt lat="47.21364" lon="7.37589">
        <ele>1155.1</ele>
      </trkpt>
      <trkpt lat="47.21377" lon="7.37629">
        <ele>1160.2</ele>
      </trkpt>
      <trkpt lat="47.21395" lon="7.37665">
        <ele>1167.5</ele>
      </trkpt>
      <trkpt lat="47.2141" lon="7.37695">
        <ele>1172.8</ele>
      </trkpt>
      <trkpt lat="47.21422" lon="7.37719">
        <ele>1177.2</ele>
      </trkpt>
      <trkpt lat="47.21454" lon="7.37777">
        <ele>1187.5</ele>
      </trkpt>
      <trkpt lat="47.21461" lon="7.37799">
        <ele>1188.9</ele>
      </trkpt>
      <trkpt lat="47.21473" lon="7.37839">
        <ele>1191.2</ele>
      </trkpt>
      <trkpt lat="47.21486" lon="7.37864">
        <ele>1193.9</ele>
      </trkpt>
      <trkpt lat="47.21501" lon="7.37887">
        <ele>1198.2</ele>
      </trkpt>
      <trkpt lat="47.21533" lon="7.3792">
        <ele>1205</ele>
      </trkpt>
      <trkpt lat="47.21557" lon="7.37944">
        <ele>1210.6</ele>
      </trkpt>
      <trkpt lat="47.21571" lon="7.37953">
        <ele>1214.4</ele>
      </trkpt>
      <trkpt lat="47.21581" lon="7.37959">
        <ele>1217.3</ele>
      </trkpt>
      <trkpt lat="47.21599" lon="7.37968">
        <ele>1220.6</ele>
      </trkpt>
      <trkpt lat="47.21635" lon="7.37996">
        <ele>1226</ele>
      </trkpt>
      <trkpt lat="47.2167" lon="7.38031">
        <ele>1230</ele>
      </trkpt>
      <trkpt lat="47.21681" lon="7.38043">
        <ele>1232.3</ele>
      </trkpt>
      <trkpt lat="47.21686" lon="7.38049">
        <ele>1233.2</ele>
      </trkpt>
      <trkpt lat="47.2169" lon="7.38055">
        <ele>1233.7</ele>
      </trkpt>
      <trkpt lat="47.21694" lon="7.38063">
        <ele>1234.1</ele>
      </trkpt>
      <trkpt lat="47.21697" lon="7.3807">
        <ele>1234.3</ele>
      </trkpt>
      <trkpt lat="47.21701" lon="7.38074">
        <ele>1235.1</ele>
      </trkpt>
      <trkpt lat="47.21707" lon="7.3808">
        <ele>1236.3</ele>
      </trkpt>
      <trkpt lat="47.21714" lon="7.38088">
        <ele>1237.7</ele>
      </trkpt>
      <trkpt lat="47.21717" lon="7.38099">
        <ele>1237.6</ele>
      </trkpt>
      <trkpt lat="47.21726" lon="7.38102">
        <ele>1240.2</ele>
      </trkpt>
      <trkpt lat="47.21734" lon="7.38116">
        <ele>1241.2</ele>
      </trkpt>
      <trkpt lat="47.21745" lon="7.38123">
        <ele>1243.9</ele>
      </trkpt>
      <trkpt lat="47.21749" lon="7.38129">
        <ele>1244.4</ele>
      </trkpt>
      <trkpt lat="47.21753" lon="7.38132">
        <ele>1244.9</ele>
      </trkpt>
      <trkpt lat="47.21764" lon="7.3814">
        <ele>1245.9</ele>
      </trkpt>
      <trkpt lat="47.21767" lon="7.38153">
        <ele>1245.2</ele>
      </trkpt>
      <trkpt lat="47.218" lon="7.38178">
        <ele>1247.8</ele>
      </trkpt>
      <trkpt lat="47.21811" lon="7.38185">
        <ele>1248.6</ele>
      </trkpt>
      <trkpt lat="47.21823" lon="7.38181">
        <ele>1251</ele>
      </trkpt>
      <trkpt lat="47.2185" lon="7.38208">
        <ele>1248.9</ele>
      </trkpt>
      <trkpt lat="47.21885" lon="7.38232">
        <ele>1246.6</ele>
      </trkpt>
      <trkpt lat="47.21898" lon="7.38232">
        <ele>1247.1</ele>
      </trkpt>
      <trkpt lat="47.21915" lon="7.38217">
        <ele>1249.1</ele>
      </trkpt>
      <trkpt lat="47.21942" lon="7.38192">
        <ele>1256.6</ele>
      </trkpt>
      <trkpt lat="47.21958" lon="7.38186">
        <ele>1260.2</ele>
      </trkpt>
      <trkpt lat="47.21984" lon="7.38162">
        <ele>1266.4</ele>
      </trkpt>
      <trkpt lat="47.21996" lon="7.3815">
        <ele>1268.9</ele>
      </trkpt>
      <trkpt lat="47.22004" lon="7.38144">
        <ele>1270.7</ele>
      </trkpt>
      <trkpt lat="47.22012" lon="7.38138">
        <ele>1273</ele>
      </trkpt>
      <trkpt lat="47.22017" lon="7.38138">
        <ele>1274.3</ele>
      </trkpt>
      <trkpt lat="47.22022" lon="7.38136">
        <ele>1275.6</ele>
      </trkpt>
      <trkpt lat="47.22026" lon="7.38126">
        <ele>1276.6</ele>
      </trkpt>
      <trkpt lat="47.2203" lon="7.38119">
        <ele>1277.8</ele>
      </trkpt>
      <trkpt lat="47.22036" lon="7.38115">
        <ele>1279.4</ele>
      </trkpt>
      <trkpt lat="47.22042" lon="7.38103">
        <ele>1280.8</ele>
      </trkpt>
      <trkpt lat="47.22047" lon="7.38101">
        <ele>1281.9</ele>
      </trkpt>
      <trkpt lat="47.22051" lon="7.38106">
        <ele>1282.8</ele>
      </trkpt>
      <trkpt lat="47.22106" lon="7.38122">
        <ele>1294.3</ele>
      </trkpt>
      <trkpt lat="47.22111" lon="7.3812">
        <ele>1295.1</ele>
      </trkpt>
      <trkpt lat="47.22125" lon="7.38114">
        <ele>1297</ele>
      </trkpt>
      <trkpt lat="47.22137" lon="7.38109">
        <ele>1298.5</ele>
      </trkpt>
      <trkpt lat="47.22149" lon="7.38104">
        <ele>1299.8</ele>
      </trkpt>
      <trkpt lat="47.2217" lon="7.38096">
        <ele>1301.6</ele>
      </trkpt>
      <trkpt lat="47.22172" lon="7.38095">
        <ele>1301.7</ele>
      </trkpt>
      <trkpt lat="47.22174" lon="7.38094">
        <ele>1301.7</ele>
      </trkpt>
      <trkpt lat="47.22174" lon="7.38103">
        <ele>1302.8</ele>
      </trkpt>
      <trkpt lat="47.22174" lon="7.38134">
        <ele>1306.3</ele>
      </trkpt>
      <trkpt lat="47.22179" lon="7.38152">
        <ele>1308.6</ele>
      </trkpt>
      <trkpt lat="47.22221" lon="7.38231">
        <ele>1319.8</ele>
      </trkpt>
      <trkpt lat="47.22242" lon="7.3826">
        <ele>1324.7</ele>
      </trkpt>
      <trkpt lat="47.22252" lon="7.38284">
        <ele>1328</ele>
      </trkpt>
      <trkpt lat="47.22259" lon="7.38309">
        <ele>1330.7</ele>
      </trkpt>
      <trkpt lat="47.22271" lon="7.3833">
        <ele>1332.4</ele>
      </trkpt>
      <trkpt lat="47.22282" lon="7.38348">
        <ele>1333.2</ele>
      </trkpt>
      <trkpt lat="47.22284" lon="7.38352">
        <ele>1333.4</ele>
      </trkpt>
      <trkpt lat="47.22306" lon="7.38421">
        <ele>1338.7</ele>
      </trkpt>
      <trkpt lat="47.22314" lon="7.3845">
        <ele>1341.3</ele>
      </trkpt>
      <trkpt lat="47.22327" lon="7.38488">
        <ele>1345.4</ele>
      </trkpt>
      <trkpt lat="47.22355" lon="7.3858">
        <ele>1352</ele>
      </trkpt>
      <trkpt lat="47.22362" lon="7.38608">
        <ele>1353.6</ele>
      </trkpt>
      <trkpt lat="47.22365" lon="7.38617">
        <ele>1354.1</ele>
      </trkpt>
      <trkpt lat="47.22369" lon="7.38623">
        <ele>1354.4</ele>
      </trkpt>
      <trkpt lat="47.22378" lon="7.38636">
        <ele>1354.8</ele>
      </trkpt>
      <trkpt lat="47.22387" lon="7.38655">
        <ele>1355.7</ele>
      </trkpt>
      <trkpt lat="47.22396" lon="7.38676">
        <ele>1356.7</ele>
      </trkpt>
      <trkpt lat="47.22439" lon="7.38788">
        <ele>1363</ele>
      </trkpt>
      <trkpt lat="47.2247" lon="7.38876">
        <ele>1365.6</ele>
      </trkpt>
      <trkpt lat="47.22482" lon="7.38907">
        <ele>1366.1</ele>
      </trkpt>
      <trkpt lat="47.22505" lon="7.38972">
        <ele>1369.6</ele>
      </trkpt>
      <trkpt lat="47.22513" lon="7.38992">
        <ele>1370.3</ele>
      </trkpt>
      <trkpt lat="47.22522" lon="7.39011">
        <ele>1370.7</ele>
      </trkpt>
      <trkpt lat="47.2257" lon="7.39078">
        <ele>1370.4</ele>
      </trkpt>
      <trkpt lat="47.22609" lon="7.39116">
        <ele>1366.9</ele>
      </trkpt>
      <trkpt lat="47.22615" lon="7.39124">
        <ele>1366.1</ele>
      </trkpt>
      <trkpt lat="47.22621" lon="7.39136">
        <ele>1365.3</ele>
      </trkpt>
      <trkpt lat="47.22624" lon="7.39148">
        <ele>1365</ele>
      </trkpt>
      <trkpt lat="47.22625" lon="7.3916">
        <ele>1364.9</ele>
      </trkpt>
      <trkpt lat="47.22625" lon="7.3917">
        <ele>1364.9</ele>
      </trkpt>
      <trkpt lat="47.22626" lon="7.39175">
        <ele>1364.6</ele>
      </trkpt>
      <trkpt lat="47.22627" lon="7.39191">
        <ele>1364.1</ele>
      </trkpt>
      <trkpt lat="47.22629" lon="7.39206">
        <ele>1363.5</ele>
      </trkpt>
      <trkpt lat="47.22631" lon="7.39223">
        <ele>1362.8</ele>
      </trkpt>
      <trkpt lat="47.22635" lon="7.39234">
        <ele>1361.9</ele>
      </trkpt>
      <trkpt lat="47.22641" lon="7.39247">
        <ele>1360.7</ele>
      </trkpt>
      <trkpt lat="47.22649" lon="7.39258">
        <ele>1358.7</ele>
      </trkpt>
      <trkpt lat="47.22654" lon="7.39265">
        <ele>1357.4</ele>
      </trkpt>
      <trkpt lat="47.22663" lon="7.39277">
        <ele>1354.8</ele>
      </trkpt>
      <trkpt lat="47.22679" lon="7.39295">
        <ele>1351.5</ele>
      </trkpt>
      <trkpt lat="47.22709" lon="7.39326">
        <ele>1348.2</ele>
      </trkpt>
      <trkpt lat="47.22714" lon="7.39333">
        <ele>1347.9</ele>
      </trkpt>
      <trkpt lat="47.2272" lon="7.39344">
        <ele>1345.2</ele>
      </trkpt>
      <trkpt lat="47.22723" lon="7.39352">
        <ele>1343.4</ele>
      </trkpt>
      <trkpt lat="47.22727" lon="7.39359">
        <ele>1341.9</ele>
      </trkpt>
      <trkpt lat="47.22732" lon="7.39368">
        <ele>1340.2</ele>
      </trkpt>
      <trkpt lat="47.22739" lon="7.39375">
        <ele>1339.1</ele>
      </trkpt>
      <trkpt lat="47.22745" lon="7.39381">
        <ele>1338.5</ele>
      </trkpt>
      <trkpt lat="47.22756" lon="7.39387">
        <ele>1337.9</ele>
      </trkpt>
      <trkpt lat="47.22772" lon="7.39393">
        <ele>1337.1</ele>
      </trkpt>
      <trkpt lat="47.22779" lon="7.39398">
        <ele>1336.5</ele>
      </trkpt>
      <trkpt lat="47.22784" lon="7.39404">
        <ele>1336</ele>
      </trkpt>
      <trkpt lat="47.22796" lon="7.39411">
        <ele>1335.7</ele>
      </trkpt>
      <trkpt lat="47.22803" lon="7.39412">
        <ele>1335.8</ele>
      </trkpt>
      <trkpt lat="47.22809" lon="7.39418">
        <ele>1335.5</ele>
      </trkpt>
      <trkpt lat="47.22815" lon="7.39424">
        <ele>1334.8</ele>
      </trkpt>
      <trkpt lat="47.22818" lon="7.39425">
        <ele>1334.8</ele>
      </trkpt>
      <trkpt lat="47.22821" lon="7.39435">
        <ele>1333.6</ele>
      </trkpt>
      <trkpt lat="47.22836" lon="7.3945">
        <ele>1333.9</ele>
      </trkpt>
      <trkpt lat="47.22841" lon="7.39453">
        <ele>1333.8</ele>
      </trkpt>
      <trkpt lat="47.22876" lon="7.39482">
        <ele>1334.8</ele>
      </trkpt>
      <trkpt lat="47.22888" lon="7.39496">
        <ele>1336.2</ele>
      </trkpt>
      <trkpt lat="47.22902" lon="7.3951">
        <ele>1337.2</ele>
      </trkpt>
      <trkpt lat="47.22908" lon="7.39528">
        <ele>1337.2</ele>
      </trkpt>
      <trkpt lat="47.22914" lon="7.39542">
        <ele>1337.8</ele>
      </trkpt>
      <trkpt lat="47.22928" lon="7.39558">
        <ele>1338.2</ele>
      </trkpt>
      <trkpt lat="47.22946" lon="7.39568">
        <ele>1338.4</ele>
      </trkpt>
      <trkpt lat="47.22959" lon="7.39562">
        <ele>1338.8</ele>
      </trkpt>
      <trkpt lat="47.22962" lon="7.3959">
        <ele>1338.3</ele>
      </trkpt>
      <trkpt lat="47.22993" lon="7.39669">
        <ele>1342.2</ele>
      </trkpt>
      <trkpt lat="47.23018" lon="7.39752">
        <ele>1346.1</ele>
      </trkpt>
      <trkpt lat="47.2303" lon="7.39802">
        <ele>1347.6</ele>
      </trkpt>
      <trkpt lat="47.2307" lon="7.3996">
        <ele>1343.7</ele>
      </trkpt>
      <trkpt lat="47.23126" lon="7.40171">
        <ele>1354.4</ele>
      </trkpt>
      <trkpt lat="47.23159" lon="7.4028">
        <ele>1355.7</ele>
      </trkpt>
      <trkpt lat="47.23205" lon="7.40408">
        <ele>1361.9</ele>
      </trkpt>
      <trkpt lat="47.23254" lon="7.40553">
        <ele>1363.7</ele>
      </trkpt>
      <trkpt lat="47.2331" lon="7.4077">
        <ele>1368.7</ele>
      </trkpt>
      <trkpt lat="47.23319" lon="7.40842">
        <ele>1371.2</ele>
      </trkpt>
      <trkpt lat="47.23376" lon="7.40996">
        <ele>1361.8</ele>
      </trkpt>
      <trkpt lat="47.2338" lon="7.41044">
        <ele>1357.7</ele>
      </trkpt>
      <trkpt lat="47.23385" lon="7.41066">
        <ele>1354.9</ele>
      </trkpt>
      <trkpt lat="47.23388" lon="7.41071">
        <ele>1353.9</ele>
      </trkpt>
      <trkpt lat="47.23404" lon="7.41162">
        <ele>1344.8</ele>
      </trkpt>
      <trkpt lat="47.23411" lon="7.41205">
        <ele>1341.7</ele>
      </trkpt>
      <trkpt lat="47.23421" lon="7.41259">
        <ele>1337</ele>
      </trkpt>
      <trkpt lat="47.23428" lon="7.41274">
        <ele>1332.8</ele>
      </trkpt>
      <trkpt lat="47.23437" lon="7.41303">
        <ele>1327.3</ele>
      </trkpt>
      <trkpt lat="47.23472" lon="7.41408">
        <ele>1315.3</ele>
      </trkpt>
      <trkpt lat="47.23482" lon="7.41439">
        <ele>1313.8</ele>
      </trkpt>
      <trkpt lat="47.23494" lon="7.41453">
        <ele>1315.3</ele>
      </trkpt>
      <trkpt lat="47.23498" lon="7.41468">
        <ele>1315.4</ele>
      </trkpt>
      <trkpt lat="47.23502" lon="7.41479">
        <ele>1314.7</ele>
      </trkpt>
      <trkpt lat="47.23506" lon="7.41494">
        <ele>1312.1</ele>
      </trkpt>
      <trkpt lat="47.23513" lon="7.41511">
        <ele>1307.9</ele>
      </trkpt>
      <trkpt lat="47.23521" lon="7.41536">
        <ele>1303.3</ele>
      </trkpt>
      <trkpt lat="47.23523" lon="7.41552">
        <ele>1302.1</ele>
      </trkpt>
      <trkpt lat="47.23525" lon="7.41563">
        <ele>1301.2</ele>
      </trkpt>
      <trkpt lat="47.23527" lon="7.41574">
        <ele>1300.3</ele>
      </trkpt>
      <trkpt lat="47.23532" lon="7.41581">
        <ele>1298.9</ele>
      </trkpt>
      <trkpt lat="47.23535" lon="7.4159">
        <ele>1297.9</ele>
      </trkpt>
      <trkpt lat="47.2354" lon="7.41602">
        <ele>1296.5</ele>
      </trkpt>
      <trkpt lat="47.23544" lon="7.41607">
        <ele>1295.8</ele>
      </trkpt>
      <trkpt lat="47.23546" lon="7.41614">
        <ele>1295.3</ele>
      </trkpt>
      <trkpt lat="47.23544" lon="7.41627">
        <ele>1295.5</ele>
      </trkpt>
      <trkpt lat="47.23543" lon="7.4164">
        <ele>1295.4</ele>
      </trkpt>
      <trkpt lat="47.23531" lon="7.41662">
        <ele>1294.8</ele>
      </trkpt>
      <trkpt lat="47.23528" lon="7.4167">
        <ele>1294</ele>
      </trkpt>
      <trkpt lat="47.23529" lon="7.41681">
        <ele>1293</ele>
      </trkpt>
      <trkpt lat="47.23532" lon="7.41684">
        <ele>1293</ele>
      </trkpt>
      <trkpt lat="47.23533" lon="7.41691">
        <ele>1292.4</ele>
      </trkpt>
      <trkpt lat="47.23535" lon="7.41707">
        <ele>1291.5</ele>
      </trkpt>
      <trkpt lat="47.23538" lon="7.41714">
        <ele>1291.4</ele>
      </trkpt>
      <trkpt lat="47.23541" lon="7.41731">
        <ele>1291</ele>
      </trkpt>
      <trkpt lat="47.23544" lon="7.41743">
        <ele>1291</ele>
      </trkpt>
      <trkpt lat="47.23548" lon="7.41752">
        <ele>1291.6</ele>
      </trkpt>
      <trkpt lat="47.23551" lon="7.41762">
        <ele>1291.5</ele>
      </trkpt>
      <trkpt lat="47.23552" lon="7.4177">
        <ele>1291</ele>
      </trkpt>
      <trkpt lat="47.2356" lon="7.41792">
        <ele>1292.2</ele>
      </trkpt>
      <trkpt lat="47.23568" lon="7.41815">
        <ele>1293.6</ele>
      </trkpt>
      <trkpt lat="47.23576" lon="7.41838">
        <ele>1295.4</ele>
      </trkpt>
      <trkpt lat="47.23582" lon="7.41864">
        <ele>1295.3</ele>
      </trkpt>
      <trkpt lat="47.23588" lon="7.41881">
        <ele>1293.3</ele>
      </trkpt>
      <trkpt lat="47.23591" lon="7.4189">
        <ele>1291.7</ele>
      </trkpt>
      <trkpt lat="47.23592" lon="7.419">
        <ele>1290.8</ele>
      </trkpt>
      <trkpt lat="47.23597" lon="7.41914">
        <ele>1288.8</ele>
      </trkpt>
      <trkpt lat="47.23602" lon="7.4193">
        <ele>1286.8</ele>
      </trkpt>
      <trkpt lat="47.23606" lon="7.41944">
        <ele>1285.1</ele>
      </trkpt>
      <trkpt lat="47.23607" lon="7.41957">
        <ele>1284</ele>
      </trkpt>
      <trkpt lat="47.23608" lon="7.41967">
        <ele>1283.2</ele>
      </trkpt>
      <trkpt lat="47.23608" lon="7.41981">
        <ele>1282.3</ele>
      </trkpt>
      <trkpt lat="47.23614" lon="7.42002">
        <ele>1280.8</ele>
      </trkpt>
      <trkpt lat="47.23623" lon="7.42025">
        <ele>1277.5</ele>
      </trkpt>
      <trkpt lat="47.2363" lon="7.42042">
        <ele>1276</ele>
      </trkpt>
      <trkpt lat="47.23635" lon="7.42055">
        <ele>1275.1</ele>
      </trkpt>
      <trkpt lat="47.23644" lon="7.4209">
        <ele>1273.3</ele>
      </trkpt>
      <trkpt lat="47.23653" lon="7.42111">
        <ele>1273.6</ele>
      </trkpt>
      <trkpt lat="47.23658" lon="7.42127">
        <ele>1273.6</ele>
      </trkpt>
      <trkpt lat="47.2366" lon="7.42137">
        <ele>1273.5</ele>
      </trkpt>
      <trkpt lat="47.23668" lon="7.42154">
        <ele>1274.9</ele>
      </trkpt>
      <trkpt lat="47.2367" lon="7.42163">
        <ele>1274.1</ele>
      </trkpt>
      <trkpt lat="47.23677" lon="7.42173">
        <ele>1273.1</ele>
      </trkpt>
      <trkpt lat="47.2368" lon="7.42178">
        <ele>1272.8</ele>
      </trkpt>
      <trkpt lat="47.23688" lon="7.42189">
        <ele>1272.3</ele>
      </trkpt>
      <trkpt lat="47.23691" lon="7.42196">
        <ele>1272.2</ele>
      </trkpt>
      <trkpt lat="47.23692" lon="7.42202">
        <ele>1272.1</ele>
      </trkpt>
      <trkpt lat="47.23693" lon="7.42217">
        <ele>1271.8</ele>
      </trkpt>
      <trkpt lat="47.23695" lon="7.42244">
        <ele>1271.5</ele>
      </trkpt>
      <trkpt lat="47.23698" lon="7.42257">
        <ele>1272.7</ele>
      </trkpt>
      <trkpt lat="47.23699" lon="7.42288">
        <ele>1275.6</ele>
      </trkpt>
      <trkpt lat="47.23701" lon="7.423">
        <ele>1277</ele>
      </trkpt>
      <trkpt lat="47.23704" lon="7.42311">
        <ele>1278.9</ele>
      </trkpt>
      <trkpt lat="47.23713" lon="7.42333">
        <ele>1283.3</ele>
      </trkpt>
      <trkpt lat="47.2372" lon="7.4235">
        <ele>1286.5</ele>
      </trkpt>
      <trkpt lat="47.23725" lon="7.42381">
        <ele>1290.5</ele>
      </trkpt>
      <trkpt lat="47.23727" lon="7.42385">
        <ele>1291.1</ele>
      </trkpt>
      <trkpt lat="47.23729" lon="7.42391">
        <ele>1292.2</ele>
      </trkpt>
      <trkpt lat="47.23729" lon="7.42404">
        <ele>1293.5</ele>
      </trkpt>
      <trkpt lat="47.23727" lon="7.42446">
        <ele>1300</ele>
      </trkpt>
      <trkpt lat="47.23728" lon="7.42475">
        <ele>1306.5</ele>
      </trkpt>
      <trkpt lat="47.23732" lon="7.42489">
        <ele>1311.2</ele>
      </trkpt>
      <trkpt lat="47.23726" lon="7.42534">
        <ele>1318.8</ele>
      </trkpt>
      <trkpt lat="47.23724" lon="7.42537">
        <ele>1318.8</ele>
      </trkpt>
      <trkpt lat="47.23724" lon="7.4254">
        <ele>1319.3</ele>
      </trkpt>
      <trkpt lat="47.23724" lon="7.42558">
        <ele>1323.8</ele>
      </trkpt>
      <trkpt lat="47.23726" lon="7.42568">
        <ele>1326.8</ele>
      </trkpt>
      <trkpt lat="47.23726" lon="7.42578">
        <ele>1329.5</ele>
      </trkpt>
      <trkpt lat="47.23727" lon="7.42615">
        <ele>1337.1</ele>
      </trkpt>
      <trkpt lat="47.23726" lon="7.42626">
        <ele>1338.9</ele>
      </trkpt>
      <trkpt lat="47.23725" lon="7.4263">
        <ele>1339.3</ele>
      </trkpt>
      <trkpt lat="47.23723" lon="7.42632">
        <ele>1339.2</ele>
      </trkpt>
      <trkpt lat="47.23723" lon="7.42634">
        <ele>1339.3</ele>
      </trkpt>
      <trkpt lat="47.23722" lon="7.4264">
        <ele>1340.4</ele>
      </trkpt>
      <trkpt lat="47.23723" lon="7.42644">
        <ele>1341.4</ele>
      </trkpt>
      <trkpt lat="47.23724" lon="7.42647">
        <ele>1342.6</ele>
      </trkpt>
      <trkpt lat="47.23727" lon="7.4265">
        <ele>1344.1</ele>
      </trkpt>
      <trkpt lat="47.23729" lon="7.42654">
        <ele>1345.6</ele>
      </trkpt>
      <trkpt lat="47.2373" lon="7.42658">
        <ele>1346.9</ele>
      </trkpt>
      <trkpt lat="47.23731" lon="7.42667">
        <ele>1349.1</ele>
      </trkpt>
      <trkpt lat="47.23731" lon="7.42672">
        <ele>1350.7</ele>
      </trkpt>
      <trkpt lat="47.2373" lon="7.42679">
        <ele>1352.4</ele>
      </trkpt>
      <trkpt lat="47.23729" lon="7.42687">
        <ele>1354.9</ele>
      </trkpt>
      <trkpt lat="47.23731" lon="7.42696">
        <ele>1357.9</ele>
      </trkpt>
      <trkpt lat="47.23731" lon="7.42702">
        <ele>1360</ele>
      </trkpt>
      <trkpt lat="47.23731" lon="7.42705">
        <ele>1361</ele>
      </trkpt>
      <trkpt lat="47.2373" lon="7.42707">
        <ele>1361.4</ele>
      </trkpt>
      <trkpt lat="47.23727" lon="7.4271">
        <ele>1361.3</ele>
      </trkpt>
      <trkpt lat="47.23721" lon="7.42714">
        <ele>1361.4</ele>
      </trkpt>
      <trkpt lat="47.2371" lon="7.42724">
        <ele>1362.2</ele>
      </trkpt>
      <trkpt lat="47.23703" lon="7.42732">
        <ele>1363.7</ele>
      </trkpt>
      <trkpt lat="47.23699" lon="7.42741">
        <ele>1366.3</ele>
      </trkpt>
      <trkpt lat="47.23682" lon="7.42767">
        <ele>1370.9</ele>
      </trkpt>
      <trkpt lat="47.23677" lon="7.42783">
        <ele>1373.5</ele>
      </trkpt>
      <trkpt lat="47.23674" lon="7.42802">
        <ele>1377.1</ele>
      </trkpt>
      <trkpt lat="47.23674" lon="7.42821">
        <ele>1381.2</ele>
      </trkpt>
      <trkpt lat="47.23674" lon="7.42872">
        <ele>1382.8</ele>
      </trkpt>
      <trkpt lat="47.23679" lon="7.4292">
        <ele>1381.9</ele>
      </trkpt>
      <trkpt lat="47.2368" lon="7.42949">
        <ele>1379.8</ele>
      </trkpt>
      <trkpt lat="47.2368" lon="7.42958">
        <ele>1379.1</ele>
      </trkpt>
      <trkpt lat="47.23689" lon="7.43008">
        <ele>1377</ele>
      </trkpt>
      <trkpt lat="47.237" lon="7.43046">
        <ele>1376.9</ele>
      </trkpt>
      <trkpt lat="47.23719" lon="7.43091">
        <ele>1379.8</ele>
      </trkpt>
      <trkpt lat="47.23752" lon="7.43168">
        <ele>1381</ele>
      </trkpt>
      <trkpt lat="47.23776" lon="7.43215">
        <ele>1379.7</ele>
      </trkpt>
      <trkpt lat="47.23785" lon="7.43231">
        <ele>1381.4</ele>
      </trkpt>
      <trkpt lat="47.23803" lon="7.43257">
        <ele>1385.7</ele>
      </trkpt>
      <trkpt lat="47.23854" lon="7.43364">
        <ele>1386.6</ele>
      </trkpt>
      <trkpt lat="47.23872" lon="7.43402">
        <ele>1383</ele>
      </trkpt>
      <trkpt lat="47.23912" lon="7.43516">
        <ele>1383.8</ele>
      </trkpt>
      <trkpt lat="47.23912" lon="7.43517">
        <ele>1384.1</ele>
      </trkpt>
      <trkpt lat="47.23934" lon="7.43571">
        <ele>1380.8</ele>
      </trkpt>
      <trkpt lat="47.23965" lon="7.43654">
        <ele>1377.7</ele>
      </trkpt>
      <trkpt lat="47.23975" lon="7.43677">
        <ele>1379.3</ele>
      </trkpt>
      <trkpt lat="47.24011" lon="7.43743">
        <ele>1390</ele>
      </trkpt>
      <trkpt lat="47.24062" lon="7.43862">
        <ele>1389.8</ele>
      </trkpt>
      <trkpt lat="47.24121" lon="7.44028">
        <ele>1383.5</ele>
      </trkpt>
      <trkpt lat="47.24133" lon="7.44058">
        <ele>1381</ele>
      </trkpt>
      <trkpt lat="47.24168" lon="7.44126">
        <ele>1379.5</ele>
      </trkpt>
      <trkpt lat="47.24176" lon="7.44151">
        <ele>1373</ele>
      </trkpt>
      <trkpt lat="47.24177" lon="7.4417">
        <ele>1370.5</ele>
      </trkpt>
      <trkpt lat="47.24173" lon="7.44181">
        <ele>1369.3</ele>
      </trkpt>
      <trkpt lat="47.24166" lon="7.44198">
        <ele>1368</ele>
      </trkpt>
      <trkpt lat="47.24167" lon="7.44222">
        <ele>1362.9</ele>
      </trkpt>
      <trkpt lat="47.24173" lon="7.44247">
        <ele>1355.4</ele>
      </trkpt>
      <trkpt lat="47.24179" lon="7.44262">
        <ele>1350.4</ele>
      </trkpt>
      <trkpt lat="47.24189" lon="7.44285">
        <ele>1342.5</ele>
      </trkpt>
      <trkpt lat="47.24191" lon="7.44296">
        <ele>1340</ele>
      </trkpt>
      <trkpt lat="47.2419" lon="7.44302">
        <ele>1339.2</ele>
      </trkpt>
      <trkpt lat="47.24182" lon="7.44304">
        <ele>1341.1</ele>
      </trkpt>
      <trkpt lat="47.2418" lon="7.44304">
        <ele>1341.8</ele>
      </trkpt>
      <trkpt lat="47.24178" lon="7.4431">
        <ele>1341.4</ele>
      </trkpt>
      <trkpt lat="47.24175" lon="7.44318">
        <ele>1340.7</ele>
      </trkpt>
      <trkpt lat="47.24173" lon="7.44324">
        <ele>1340</ele>
      </trkpt>
      <trkpt lat="47.24174" lon="7.44331">
        <ele>1338.4</ele>
      </trkpt>
      <trkpt lat="47.24179" lon="7.44347">
        <ele>1333.9</ele>
      </trkpt>
      <trkpt lat="47.24185" lon="7.44359">
        <ele>1330.3</ele>
      </trkpt>
      <trkpt lat="47.24192" lon="7.44373">
        <ele>1326</ele>
      </trkpt>
      <trkpt lat="47.24194" lon="7.44384">
        <ele>1323.6</ele>
      </trkpt>
      <trkpt lat="47.24194" lon="7.4439">
        <ele>1322.5</ele>
      </trkpt>
      <trkpt lat="47.2419" lon="7.44405">
        <ele>1321</ele>
      </trkpt>
      <trkpt lat="47.24176" lon="7.44419">
        <ele>1320.8</ele>
      </trkpt>
      <trkpt lat="47.24185" lon="7.4443">
        <ele>1317.3</ele>
      </trkpt>
      <trkpt lat="47.24193" lon="7.44444">
        <ele>1314.1</ele>
      </trkpt>
      <trkpt lat="47.24192" lon="7.44449">
        <ele>1313.3</ele>
      </trkpt>
      <trkpt lat="47.24194" lon="7.44461">
        <ele>1311.4</ele>
      </trkpt>
      <trkpt lat="47.24193" lon="7.44466">
        <ele>1310.6</ele>
      </trkpt>
      <trkpt lat="47.2419" lon="7.44483">
        <ele>1308.1</ele>
      </trkpt>
      <trkpt lat="47.24193" lon="7.44487">
        <ele>1307.4</ele>
      </trkpt>
      <trkpt lat="47.24195" lon="7.44492">
        <ele>1306.6</ele>
      </trkpt>
      <trkpt lat="47.24199" lon="7.44505">
        <ele>1304.8</ele>
      </trkpt>
      <trkpt lat="47.24208" lon="7.44537">
        <ele>1301.9</ele>
      </trkpt>
      <trkpt lat="47.24214" lon="7.44554">
        <ele>1300.9</ele>
      </trkpt>
      <trkpt lat="47.24221" lon="7.44568">
        <ele>1300.6</ele>
      </trkpt>
      <trkpt lat="47.24228" lon="7.44575">
        <ele>1301.1</ele>
      </trkpt>
      <trkpt lat="47.24233" lon="7.44584">
        <ele>1301.4</ele>
      </trkpt>
      <trkpt lat="47.24237" lon="7.44588">
        <ele>1302.2</ele>
      </trkpt>
      <trkpt lat="47.24237" lon="7.44594">
        <ele>1302.6</ele>
      </trkpt>
      <trkpt lat="47.24235" lon="7.44598">
        <ele>1302.5</ele>
      </trkpt>
      <trkpt lat="47.24238" lon="7.4462">
        <ele>1304.3</ele>
      </trkpt>
      <trkpt lat="47.24244" lon="7.44648">
        <ele>1306.5</ele>
      </trkpt>
      <trkpt lat="47.24246" lon="7.4466">
        <ele>1307.2</ele>
      </trkpt>
      <trkpt lat="47.24254" lon="7.44671">
        <ele>1307.9</ele>
      </trkpt>
      <trkpt lat="47.24255" lon="7.44673">
        <ele>1308</ele>
      </trkpt>
      <trkpt lat="47.24257" lon="7.44675">
        <ele>1308</ele>
      </trkpt>
      <trkpt lat="47.2426" lon="7.4468">
        <ele>1308.3</ele>
      </trkpt>
      <trkpt lat="47.24258" lon="7.4469">
        <ele>1311</ele>
      </trkpt>
      <trkpt lat="47.24258" lon="7.44725">
        <ele>1317.8</ele>
      </trkpt>
      <trkpt lat="47.2426" lon="7.44739">
        <ele>1320.2</ele>
      </trkpt>
      <trkpt lat="47.24263" lon="7.44755">
        <ele>1323.6</ele>
      </trkpt>
      <trkpt lat="47.24263" lon="7.44771">
        <ele>1328.9</ele>
      </trkpt>
      <trkpt lat="47.24266" lon="7.44783">
        <ele>1332.3</ele>
      </trkpt>
      <trkpt lat="47.24266" lon="7.44795">
        <ele>1336.3</ele>
      </trkpt>
      <trkpt lat="47.24266" lon="7.44808">
        <ele>1340.6</ele>
      </trkpt>
      <trkpt lat="47.24269" lon="7.44817">
        <ele>1342.5</ele>
      </trkpt>
      <trkpt lat="47.24271" lon="7.44834">
        <ele>1347.3</ele>
      </trkpt>
      <trkpt lat="47.24273" lon="7.44845">
        <ele>1349.4</ele>
      </trkpt>
      <trkpt lat="47.24274" lon="7.4486">
        <ele>1353.5</ele>
      </trkpt>
      <trkpt lat="47.24276" lon="7.4487">
        <ele>1355</ele>
      </trkpt>
      <trkpt lat="47.24277" lon="7.44891">
        <ele>1360.4</ele>
      </trkpt>
      <trkpt lat="47.24279" lon="7.44904">
        <ele>1363.2</ele>
      </trkpt>
      <trkpt lat="47.24279" lon="7.44913">
        <ele>1365.6</ele>
      </trkpt>
      <trkpt lat="47.24278" lon="7.44917">
        <ele>1367.7</ele>
      </trkpt>
      <trkpt lat="47.24277" lon="7.44925">
        <ele>1369.9</ele>
      </trkpt>
      <trkpt lat="47.24271" lon="7.44923">
        <ele>1373.6</ele>
      </trkpt>
      <trkpt lat="47.24257" lon="7.44912">
        <ele>1380.3</ele>
      </trkpt>
      <trkpt lat="47.24251" lon="7.44907">
        <ele>1383.2</ele>
      </trkpt>
      <trkpt lat="47.24243" lon="7.44901">
        <ele>1383.8</ele>
      </trkpt>
      <trkpt lat="47.24238" lon="7.44898">
        <ele>1384.1</ele>
      </trkpt>
      <trkpt lat="47.24231" lon="7.44895">
        <ele>1385.4</ele>
      </trkpt>
      <trkpt lat="47.2422" lon="7.44888">
        <ele>1386.7</ele>
      </trkpt>
      <trkpt lat="47.24218" lon="7.44886">
        <ele>1386.9</ele>
      </trkpt>
      <trkpt lat="47.24215" lon="7.44886">
        <ele>1387.4</ele>
      </trkpt>
      <trkpt lat="47.24213" lon="7.44888">
        <ele>1388.8</ele>
      </trkpt>
      <trkpt lat="47.24208" lon="7.44906">
        <ele>1397.4</ele>
      </trkpt>
      <trkpt lat="47.24205" lon="7.44906">
        <ele>1398.2</ele>
      </trkpt>
      <trkpt lat="47.242" lon="7.44899">
        <ele>1397.1</ele>
      </trkpt>
      <trkpt lat="47.24195" lon="7.44892">
        <ele>1396.2</ele>
      </trkpt>
      <trkpt lat="47.24191" lon="7.44883">
        <ele>1394.4</ele>
      </trkpt>
      <trkpt lat="47.24189" lon="7.44881">
        <ele>1394.2</ele>
      </trkpt>
      <trkpt lat="47.24186" lon="7.4488">
        <ele>1394.7</ele>
      </trkpt>
      <trkpt lat="47.24177" lon="7.44883">
        <ele>1398.9</ele>
      </trkpt>
      <trkpt lat="47.24169" lon="7.44883">
        <ele>1401.2</ele>
      </trkpt>
      <trkpt lat="47.24163" lon="7.44885">
        <ele>1402.6</ele>
      </trkpt>
      <trkpt lat="47.24157" lon="7.44886">
        <ele>1402.4</ele>
      </trkpt>
      <trkpt lat="47.24155" lon="7.44888">
        <ele>1403</ele>
      </trkpt>
      <trkpt lat="47.2415" lon="7.44897">
        <ele>1405.9</ele>
      </trkpt>
      <trkpt lat="47.24147" lon="7.44898">
        <ele>1406.2</ele>
      </trkpt>
      <trkpt lat="47.24137" lon="7.44897">
        <ele>1404.9</ele>
      </trkpt>
      <trkpt lat="47.24132" lon="7.44898">
        <ele>1405</ele>
      </trkpt>
      <trkpt lat="47.2413" lon="7.44902">
        <ele>1406.3</ele>
      </trkpt>
      <trkpt lat="47.2413" lon="7.44906">
        <ele>1407.8</ele>
      </trkpt>
      <trkpt lat="47.24133" lon="7.44916">
        <ele>1411.4</ele>
      </trkpt>
      <trkpt lat="47.24138" lon="7.44923">
        <ele>1412.5</ele>
      </trkpt>
      <trkpt lat="47.24145" lon="7.44936">
        <ele>1414</ele>
      </trkpt>
      <trkpt lat="47.24147" lon="7.44942">
        <ele>1414.8</ele>
      </trkpt>
      <trkpt lat="47.24148" lon="7.44948">
        <ele>1415.3</ele>
      </trkpt>
      <trkpt lat="47.2415" lon="7.44962">
        <ele>1416.6</ele>
      </trkpt>
      <trkpt lat="47.24154" lon="7.44972">
        <ele>1418.1</ele>
      </trkpt>
      <trkpt lat="47.24157" lon="7.44982">
        <ele>1419.6</ele>
      </trkpt>
      <trkpt lat="47.2416" lon="7.44987">
        <ele>1420.8</ele>
      </trkpt>
      <trkpt lat="47.24166" lon="7.44998">
        <ele>1423.6</ele>
      </trkpt>
      <trkpt lat="47.2417" lon="7.45003">
        <ele>1423.2</ele>
      </trkpt>
      <trkpt lat="47.24173" lon="7.45011">
        <ele>1422.4</ele>
      </trkpt>
      <trkpt lat="47.24174" lon="7.45012">
        <ele>1422</ele>
      </trkpt>
      <trkpt lat="47.24177" lon="7.45014">
        <ele>1421.4</ele>
      </trkpt>
      <trkpt lat="47.2418" lon="7.45018">
        <ele>1421</ele>
      </trkpt>
      <trkpt lat="47.24191" lon="7.45044">
        <ele>1419.2</ele>
      </trkpt>
      <trkpt lat="47.24194" lon="7.4505">
        <ele>1419.1</ele>
      </trkpt>
      <trkpt lat="47.24195" lon="7.45057">
        <ele>1419.1</ele>
      </trkpt>
      <trkpt lat="47.24199" lon="7.45082">
        <ele>1419.6</ele>
      </trkpt>
      <trkpt lat="47.24201" lon="7.45094">
        <ele>1419.1</ele>
      </trkpt>
      <trkpt lat="47.24204" lon="7.45113">
        <ele>1418.1</ele>
      </trkpt>
      <trkpt lat="47.24205" lon="7.45137">
        <ele>1417.1</ele>
      </trkpt>
      <trkpt lat="47.24205" lon="7.45154">
        <ele>1416.4</ele>
      </trkpt>
      <trkpt lat="47.24204" lon="7.45177">
        <ele>1414.2</ele>
      </trkpt>
      <trkpt lat="47.24202" lon="7.45192">
        <ele>1411.8</ele>
      </trkpt>
      <trkpt lat="47.24202" lon="7.45201">
        <ele>1410.5</ele>
      </trkpt>
      <trkpt lat="47.24201" lon="7.45208">
        <ele>1409.3</ele>
      </trkpt>
      <trkpt lat="47.24202" lon="7.45215">
        <ele>1408.2</ele>
      </trkpt>
      <trkpt lat="47.24205" lon="7.45229">
        <ele>1406.1</ele>
      </trkpt>
      <trkpt lat="47.24208" lon="7.45253">
        <ele>1402.3</ele>
      </trkpt>
      <trkpt lat="47.24207" lon="7.45263">
        <ele>1399.5</ele>
      </trkpt>
      <trkpt lat="47.24209" lon="7.4527">
        <ele>1397.5</ele>
      </trkpt>
      <trkpt lat="47.2421" lon="7.45275">
        <ele>1396.3</ele>
      </trkpt>
      <trkpt lat="47.24212" lon="7.45287">
        <ele>1393.2</ele>
      </trkpt>
      <trkpt lat="47.24214" lon="7.45301">
        <ele>1389.3</ele>
      </trkpt>
      <trkpt lat="47.24217" lon="7.45317">
        <ele>1384.8</ele>
      </trkpt>
      <trkpt lat="47.24213" lon="7.45326">
        <ele>1382.2</ele>
      </trkpt>
      <trkpt lat="47.24211" lon="7.45347">
        <ele>1376.4</ele>
      </trkpt>
      <trkpt lat="47.24209" lon="7.45372">
        <ele>1369.3</ele>
      </trkpt>
      <trkpt lat="47.24204" lon="7.45397">
        <ele>1362.7</ele>
      </trkpt>
      <trkpt lat="47.24206" lon="7.45429">
        <ele>1353.8</ele>
      </trkpt>
      <trkpt lat="47.24204" lon="7.45461">
        <ele>1346.4</ele>
      </trkpt>
      <trkpt lat="47.24198" lon="7.45511">
        <ele>1336.6</ele>
      </trkpt>
      <trkpt lat="47.242" lon="7.45544">
        <ele>1330.3</ele>
      </trkpt>
      <trkpt lat="47.24198" lon="7.45558">
        <ele>1328.6</ele>
      </trkpt>
      <trkpt lat="47.24198" lon="7.45572">
        <ele>1325.9</ele>
      </trkpt>
      <trkpt lat="47.24198" lon="7.45591">
        <ele>1322.6</ele>
      </trkpt>
      <trkpt lat="47.24202" lon="7.45606">
        <ele>1319</ele>
      </trkpt>
      <trkpt lat="47.24203" lon="7.45647">
        <ele>1311.9</ele>
      </trkpt>
      <trkpt lat="47.24206" lon="7.45663">
        <ele>1308.4</ele>
      </trkpt>
      <trkpt lat="47.24204" lon="7.45709">
        <ele>1300.8</ele>
      </trkpt>
      <trkpt lat="47.24208" lon="7.45737">
        <ele>1295.3</ele>
      </trkpt>
      <trkpt lat="47.24213" lon="7.45758">
        <ele>1291.6</ele>
      </trkpt>
      <trkpt lat="47.24212" lon="7.45785">
        <ele>1289.3</ele>
      </trkpt>
      <trkpt lat="47.24207" lon="7.45815">
        <ele>1287.4</ele>
      </trkpt>
      <trkpt lat="47.24206" lon="7.45822">
        <ele>1286.8</ele>
      </trkpt>
      <trkpt lat="47.24205" lon="7.45842">
        <ele>1285.1</ele>
      </trkpt>
      <trkpt lat="47.2421" lon="7.45862">
        <ele>1283.1</ele>
      </trkpt>
      <trkpt lat="47.24218" lon="7.45875">
        <ele>1281.9</ele>
      </trkpt>
      <trkpt lat="47.24229" lon="7.45904">
        <ele>1280.5</ele>
      </trkpt>
      <trkpt lat="47.24229" lon="7.45915">
        <ele>1280.1</ele>
      </trkpt>
      <trkpt lat="47.24225" lon="7.4592">
        <ele>1279.6</ele>
      </trkpt>
      <trkpt lat="47.24223" lon="7.45923">
        <ele>1279.4</ele>
      </trkpt>
      <trkpt lat="47.24223" lon="7.45928">
        <ele>1279.2</ele>
      </trkpt>
      <trkpt lat="47.24227" lon="7.45932">
        <ele>1279.3</ele>
      </trkpt>
      <trkpt lat="47.24233" lon="7.45938">
        <ele>1279.6</ele>
      </trkpt>
      <trkpt lat="47.24234" lon="7.45953">
        <ele>1279.3</ele>
      </trkpt>
      <trkpt lat="47.24235" lon="7.45972">
        <ele>1278.8</ele>
      </trkpt>
      <trkpt lat="47.24237" lon="7.45987">
        <ele>1278.7</ele>
      </trkpt>
      <trkpt lat="47.24242" lon="7.46016">
        <ele>1280.2</ele>
      </trkpt>
      <trkpt lat="47.24245" lon="7.46055">
        <ele>1282.7</ele>
      </trkpt>
      <trkpt lat="47.24246" lon="7.46078">
        <ele>1284.2</ele>
      </trkpt>
      <trkpt lat="47.24248" lon="7.46103">
        <ele>1286.6</ele>
      </trkpt>
      <trkpt lat="47.24255" lon="7.46128">
        <ele>1286.3</ele>
      </trkpt>
      <trkpt lat="47.24258" lon="7.46176">
        <ele>1287.6</ele>
      </trkpt>
      <trkpt lat="47.24273" lon="7.46235">
        <ele>1284.7</ele>
      </trkpt>
      <trkpt lat="47.24278" lon="7.46277">
        <ele>1287.1</ele>
      </trkpt>
      <trkpt lat="47.24283" lon="7.46294">
        <ele>1288.4</ele>
      </trkpt>
      <trkpt lat="47.24287" lon="7.46317">
        <ele>1291.1</ele>
      </trkpt>
      <trkpt lat="47.24303" lon="7.46338">
        <ele>1294.1</ele>
      </trkpt>
      <trkpt lat="47.24311" lon="7.46355">
        <ele>1295.7</ele>
      </trkpt>
      <trkpt lat="47.2432" lon="7.46382">
        <ele>1298.5</ele>
      </trkpt>
      <trkpt lat="47.24326" lon="7.46432">
        <ele>1303.5</ele>
      </trkpt>
      <trkpt lat="47.2433" lon="7.46459">
        <ele>1306.2</ele>
      </trkpt>
      <trkpt lat="47.24341" lon="7.46514">
        <ele>1304.7</ele>
      </trkpt>
      <trkpt lat="47.24349" lon="7.46588">
        <ele>1298</ele>
      </trkpt>
      <trkpt lat="47.24349" lon="7.46589">
        <ele>1297.8</ele>
      </trkpt>
      <trkpt lat="47.24354" lon="7.46617">
        <ele>1294.8</ele>
      </trkpt>
      <trkpt lat="47.24363" lon="7.46631">
        <ele>1289.9</ele>
      </trkpt>
      <trkpt lat="47.24368" lon="7.46658">
        <ele>1287.4</ele>
      </trkpt>
      <trkpt lat="47.24379" lon="7.46688">
        <ele>1283.4</ele>
      </trkpt>
      <trkpt lat="47.24384" lon="7.467">
        <ele>1281.8</ele>
      </trkpt>
      <trkpt lat="47.24393" lon="7.46729">
        <ele>1279.8</ele>
      </trkpt>
      <trkpt lat="47.244" lon="7.46749">
        <ele>1279</ele>
      </trkpt>
      <trkpt lat="47.24411" lon="7.46772">
        <ele>1277.1</ele>
      </trkpt>
      <trkpt lat="47.24419" lon="7.46793">
        <ele>1276.4</ele>
      </trkpt>
      <trkpt lat="47.24425" lon="7.46815">
        <ele>1276.2</ele>
      </trkpt>
      <trkpt lat="47.24429" lon="7.46835">
        <ele>1276.8</ele>
      </trkpt>
      <trkpt lat="47.24438" lon="7.46854">
        <ele>1275.2</ele>
      </trkpt>
      <trkpt lat="47.24441" lon="7.46862">
        <ele>1274.7</ele>
      </trkpt>
      <trkpt lat="47.24446" lon="7.46874">
        <ele>1273.7</ele>
      </trkpt>
      <trkpt lat="47.24467" lon="7.46915">
        <ele>1268.5</ele>
      </trkpt>
      <trkpt lat="47.24477" lon="7.46934">
        <ele>1265.8</ele>
      </trkpt>
      <trkpt lat="47.24483" lon="7.46947">
        <ele>1264.4</ele>
      </trkpt>
      <trkpt lat="47.24493" lon="7.46972">
        <ele>1262.1</ele>
      </trkpt>
      <trkpt lat="47.24508" lon="7.47014">
        <ele>1260</ele>
      </trkpt>
      <trkpt lat="47.24516" lon="7.47035">
        <ele>1259.2</ele>
      </trkpt>
      <trkpt lat="47.24528" lon="7.47067">
        <ele>1257.6</ele>
      </trkpt>
      <trkpt lat="47.24542" lon="7.47105">
        <ele>1254.5</ele>
      </trkpt>
      <trkpt lat="47.24545" lon="7.47115">
        <ele>1253.5</ele>
      </trkpt>
      <trkpt lat="47.24548" lon="7.47124">
        <ele>1252.8</ele>
      </trkpt>
      <trkpt lat="47.24551" lon="7.47142">
        <ele>1251.6</ele>
      </trkpt>
      <trkpt lat="47.24554" lon="7.47156">
        <ele>1250.6</ele>
      </trkpt>
      <trkpt lat="47.24557" lon="7.47167">
        <ele>1249.6</ele>
      </trkpt>
      <trkpt lat="47.24563" lon="7.47182">
        <ele>1247.7</ele>
      </trkpt>
      <trkpt lat="47.24568" lon="7.47193">
        <ele>1246.1</ele>
      </trkpt>
      <trkpt lat="47.24581" lon="7.47223">
        <ele>1242.3</ele>
      </trkpt>
      <trkpt lat="47.24598" lon="7.47264">
        <ele>1237.8</ele>
      </trkpt>
      <trkpt lat="47.246" lon="7.47272">
        <ele>1236.9</ele>
      </trkpt>
      <trkpt lat="47.24604" lon="7.47284">
        <ele>1235.3</ele>
      </trkpt>
      <trkpt lat="47.24607" lon="7.47297">
        <ele>1233.7</ele>
      </trkpt>
      <trkpt lat="47.24609" lon="7.47311">
        <ele>1232.2</ele>
      </trkpt>
      <trkpt lat="47.24613" lon="7.47334">
        <ele>1229.4</ele>
      </trkpt>
      <trkpt lat="47.24614" lon="7.47342">
        <ele>1227.8</ele>
      </trkpt>
      <trkpt lat="47.24614" lon="7.47344">
        <ele>1227.5</ele>
      </trkpt>
      <trkpt lat="47.24614" lon="7.47347">
        <ele>1227.1</ele>
      </trkpt>
      <trkpt lat="47.24613" lon="7.47364">
        <ele>1224.2</ele>
      </trkpt>
      <trkpt lat="47.24611" lon="7.47377">
        <ele>1222.1</ele>
      </trkpt>
      <trkpt lat="47.24607" lon="7.4739">
        <ele>1220.4</ele>
      </trkpt>
      <trkpt lat="47.24604" lon="7.47406">
        <ele>1218.1</ele>
      </trkpt>
      <trkpt lat="47.24602" lon="7.47419">
        <ele>1216</ele>
      </trkpt>
      <trkpt lat="47.24601" lon="7.47429">
        <ele>1214.6</ele>
      </trkpt>
      <trkpt lat="47.24601" lon="7.47441">
        <ele>1212.9</ele>
      </trkpt>
      <trkpt lat="47.24601" lon="7.47461">
        <ele>1209.9</ele>
      </trkpt>
      <trkpt lat="47.24602" lon="7.47476">
        <ele>1207.6</ele>
      </trkpt>
      <trkpt lat="47.24604" lon="7.47485">
        <ele>1206.1</ele>
      </trkpt>
      <trkpt lat="47.24607" lon="7.47495">
        <ele>1204.7</ele>
      </trkpt>
      <trkpt lat="47.2461" lon="7.47506">
        <ele>1203.7</ele>
      </trkpt>
      <trkpt lat="47.24616" lon="7.47517">
        <ele>1203.1</ele>
      </trkpt>
      <trkpt lat="47.24624" lon="7.47531">
        <ele>1202.7</ele>
      </trkpt>
      <trkpt lat="47.24632" lon="7.47539">
        <ele>1202.6</ele>
      </trkpt>
      <trkpt lat="47.24638" lon="7.47545">
        <ele>1202.7</ele>
      </trkpt>
      <trkpt lat="47.24642" lon="7.47547">
        <ele>1202.8</ele>
      </trkpt>
      <trkpt lat="47.24646" lon="7.47549">
        <ele>1203</ele>
      </trkpt>
      <trkpt lat="47.24653" lon="7.47553">
        <ele>1203.2</ele>
      </trkpt>
      <trkpt lat="47.24657" lon="7.47557">
        <ele>1203.4</ele>
      </trkpt>
      <trkpt lat="47.2466" lon="7.47561">
        <ele>1203.6</ele>
      </trkpt>
      <trkpt lat="47.24664" lon="7.47566">
        <ele>1203.8</ele>
      </trkpt>
      <trkpt lat="47.24667" lon="7.47575">
        <ele>1204</ele>
      </trkpt>
      <trkpt lat="47.24678" lon="7.47614">
        <ele>1201.3</ele>
      </trkpt>
      <trkpt lat="47.24698" lon="7.47699">
        <ele>1195.6</ele>
      </trkpt>
      <trkpt lat="47.247" lon="7.47709">
        <ele>1194.9</ele>
      </trkpt>
      <trkpt lat="47.24701" lon="7.47718">
        <ele>1194.3</ele>
      </trkpt>
      <trkpt lat="47.24701" lon="7.47731">
        <ele>1193.6</ele>
      </trkpt>
      <trkpt lat="47.247" lon="7.47744">
        <ele>1192.9</ele>
      </trkpt>
      <trkpt lat="47.24696" lon="7.47796">
        <ele>1190.1</ele>
      </trkpt>
      <trkpt lat="47.24695" lon="7.47817">
        <ele>1188.9</ele>
      </trkpt>
      <trkpt lat="47.24695" lon="7.47829">
        <ele>1188.3</ele>
      </trkpt>
      <trkpt lat="47.24698" lon="7.47881">
        <ele>1186</ele>
      </trkpt>
      <trkpt lat="47.24699" lon="7.47892">
        <ele>1185.4</ele>
      </trkpt>
      <trkpt lat="47.24702" lon="7.47915">
        <ele>1184.1</ele>
      </trkpt>
      <trkpt lat="47.24709" lon="7.47955">
        <ele>1180.7</ele>
      </trkpt>
      <trkpt lat="47.24712" lon="7.4797">
        <ele>1179.3</ele>
      </trkpt>
      <trkpt lat="47.24727" lon="7.48039">
        <ele>1175.3</ele>
      </trkpt>
      <trkpt lat="47.24737" lon="7.4809">
        <ele>1174.4</ele>
      </trkpt>
      <trkpt lat="47.24739" lon="7.48103">
        <ele>1174.7</ele>
      </trkpt>
      <trkpt lat="47.2474" lon="7.48122">
        <ele>1175.1</ele>
      </trkpt>
      <trkpt lat="47.24746" lon="7.48164">
        <ele>1176.5</ele>
      </trkpt>
      <trkpt lat="47.24749" lon="7.4818">
        <ele>1176.1</ele>
      </trkpt>
      <trkpt lat="47.24755" lon="7.48217">
        <ele>1173</ele>
      </trkpt>
      <trkpt lat="47.24757" lon="7.48229">
        <ele>1172.3</ele>
      </trkpt>
      <trkpt lat="47.24757" lon="7.4824">
        <ele>1171.8</ele>
      </trkpt>
      <trkpt lat="47.24756" lon="7.48275">
        <ele>1172.1</ele>
      </trkpt>
      <trkpt lat="47.24756" lon="7.48288">
        <ele>1172.4</ele>
      </trkpt>
      <trkpt lat="47.24757" lon="7.48299">
        <ele>1172.7</ele>
      </trkpt>
      <trkpt lat="47.24758" lon="7.48308">
        <ele>1172.9</ele>
      </trkpt>
      <trkpt lat="47.24774" lon="7.48387">
        <ele>1177.4</ele>
      </trkpt>
      <trkpt lat="47.24775" lon="7.48396">
        <ele>1178</ele>
      </trkpt>
      <trkpt lat="47.24775" lon="7.48403">
        <ele>1178.3</ele>
      </trkpt>
      <trkpt lat="47.24784" lon="7.4842">
        <ele>1180.2</ele>
      </trkpt>
      <trkpt lat="47.24799" lon="7.48448">
        <ele>1182.8</ele>
      </trkpt>
      <trkpt lat="47.24816" lon="7.48483">
        <ele>1187.1</ele>
      </trkpt>
      <trkpt lat="47.24822" lon="7.48496">
        <ele>1189</ele>
      </trkpt>
      <trkpt lat="47.24827" lon="7.48512">
        <ele>1190.1</ele>
      </trkpt>
      <trkpt lat="47.24835" lon="7.48545">
        <ele>1191.1</ele>
      </trkpt>
      <trkpt lat="47.24852" lon="7.48609">
        <ele>1192.7</ele>
      </trkpt>
      <trkpt lat="47.24862" lon="7.4865">
        <ele>1195.2</ele>
      </trkpt>
      <trkpt lat="47.24867" lon="7.48665">
        <ele>1196.8</ele>
      </trkpt>
      <trkpt lat="47.24869" lon="7.48671">
        <ele>1197.6</ele>
      </trkpt>
      <trkpt lat="47.24872" lon="7.48675">
        <ele>1198.4</ele>
      </trkpt>
      <trkpt lat="47.24875" lon="7.48678">
        <ele>1199.3</ele>
      </trkpt>
      <trkpt lat="47.24877" lon="7.4868">
        <ele>1200.1</ele>
      </trkpt>
      <trkpt lat="47.24881" lon="7.48682">
        <ele>1201</ele>
      </trkpt>
      <trkpt lat="47.24886" lon="7.48682">
        <ele>1202.4</ele>
      </trkpt>
      <trkpt lat="47.24891" lon="7.48682">
        <ele>1203.6</ele>
      </trkpt>
      <trkpt lat="47.24902" lon="7.48679">
        <ele>1206.6</ele>
      </trkpt>
      <trkpt lat="47.24949" lon="7.48668">
        <ele>1215.9</ele>
      </trkpt>
      <trkpt lat="47.24979" lon="7.48663">
        <ele>1220.8</ele>
      </trkpt>
      <trkpt lat="47.24981" lon="7.48663">
        <ele>1221.2</ele>
      </trkpt>
      <trkpt lat="47.24984" lon="7.48662">
        <ele>1221.6</ele>
      </trkpt>
      <trkpt lat="47.24998" lon="7.4866">
        <ele>1224</ele>
      </trkpt>
      <trkpt lat="47.25006" lon="7.4866">
        <ele>1227.2</ele>
      </trkpt>
      <trkpt lat="47.25013" lon="7.48662">
        <ele>1231.3</ele>
      </trkpt>
      <trkpt lat="47.25005" lon="7.48694">
        <ele>1230.2</ele>
      </trkpt>
      <trkpt lat="47.24984" lon="7.48766">
        <ele>1229.6</ele>
      </trkpt>
      <trkpt lat="47.2498" lon="7.4878">
        <ele>1229.3</ele>
      </trkpt>
      <trkpt lat="47.24978" lon="7.48794">
        <ele>1229.4</ele>
      </trkpt>
      <trkpt lat="47.24976" lon="7.48811">
        <ele>1229.7</ele>
      </trkpt>
      <trkpt lat="47.24969" lon="7.48894">
        <ele>1232.4</ele>
      </trkpt>
      <trkpt lat="47.24969" lon="7.48907">
        <ele>1233.1</ele>
      </trkpt>
      <trkpt lat="47.2497" lon="7.48923">
        <ele>1233.9</ele>
      </trkpt>
      <trkpt lat="47.24971" lon="7.48932">
        <ele>1234.2</ele>
      </trkpt>
      <trkpt lat="47.24974" lon="7.48943">
        <ele>1234.9</ele>
      </trkpt>
      <trkpt lat="47.24975" lon="7.48948">
        <ele>1235.3</ele>
      </trkpt>
      <trkpt lat="47.24978" lon="7.48955">
        <ele>1236.1</ele>
      </trkpt>
      <trkpt lat="47.24982" lon="7.48962">
        <ele>1237.1</ele>
      </trkpt>
      <trkpt lat="47.25002" lon="7.48993">
        <ele>1243.2</ele>
      </trkpt>
      <trkpt lat="47.25015" lon="7.49012">
        <ele>1248.8</ele>
      </trkpt>
      <trkpt lat="47.25018" lon="7.49018">
        <ele>1249.7</ele>
      </trkpt>
      <trkpt lat="47.2502" lon="7.49026">
        <ele>1250.4</ele>
      </trkpt>
      <trkpt lat="47.25022" lon="7.49033">
        <ele>1250.5</ele>
      </trkpt>
      <trkpt lat="47.25038" lon="7.49154">
        <ele>1252.9</ele>
      </trkpt>
      <trkpt lat="47.25042" lon="7.49181">
        <ele>1252.8</ele>
      </trkpt>
      <trkpt lat="47.25048" lon="7.49206">
        <ele>1253</ele>
      </trkpt>
      <trkpt lat="47.25055" lon="7.49245">
        <ele>1252.7</ele>
      </trkpt>
      <trkpt lat="47.25066" lon="7.49297">
        <ele>1251.8</ele>
      </trkpt>
      <trkpt lat="47.25083" lon="7.49394">
        <ele>1250.4</ele>
      </trkpt>
      <trkpt lat="47.25091" lon="7.49431">
        <ele>1250.6</ele>
      </trkpt>
      <trkpt lat="47.25111" lon="7.49515">
        <ele>1253</ele>
      </trkpt>
      <trkpt lat="47.25122" lon="7.4956">
        <ele>1256.9</ele>
      </trkpt>
      <trkpt lat="47.25125" lon="7.49572">
        <ele>1258</ele>
      </trkpt>
      <trkpt lat="47.2513" lon="7.49584">
        <ele>1259.1</ele>
      </trkpt>
      <trkpt lat="47.2517" lon="7.49664">
        <ele>1262.9</ele>
      </trkpt>
      <trkpt lat="47.25172" lon="7.4967">
        <ele>1262.8</ele>
      </trkpt>
      <trkpt lat="47.25179" lon="7.4969">
        <ele>1262.2</ele>
      </trkpt>
      <trkpt lat="47.25199" lon="7.49749">
        <ele>1261.3</ele>
      </trkpt>
      <trkpt lat="47.25207" lon="7.49776">
        <ele>1261</ele>
      </trkpt>
      <trkpt lat="47.25211" lon="7.49796">
        <ele>1260.3</ele>
      </trkpt>
      <trkpt lat="47.25214" lon="7.49809">
        <ele>1260.1</ele>
      </trkpt>
      <trkpt lat="47.25215" lon="7.49814">
        <ele>1259.9</ele>
      </trkpt>
      <trkpt lat="47.2522" lon="7.49831">
        <ele>1259.8</ele>
      </trkpt>
      <trkpt lat="47.25226" lon="7.49855">
        <ele>1260</ele>
      </trkpt>
      <trkpt lat="47.2524" lon="7.49921">
        <ele>1259.9</ele>
      </trkpt>
      <trkpt lat="47.2525" lon="7.4997">
        <ele>1258.9</ele>
      </trkpt>
      <trkpt lat="47.2526" lon="7.50021">
        <ele>1256.7</ele>
      </trkpt>
      <trkpt lat="47.2527" lon="7.50075">
        <ele>1257.8</ele>
      </trkpt>
      <trkpt lat="47.25291" lon="7.50186">
        <ele>1262.8</ele>
      </trkpt>
      <trkpt lat="47.25301" lon="7.50232">
        <ele>1264.6</ele>
      </trkpt>
      <trkpt lat="47.25317" lon="7.50297">
        <ele>1268.9</ele>
      </trkpt>
      <trkpt lat="47.25331" lon="7.50352">
        <ele>1270.7</ele>
      </trkpt>
      <trkpt lat="47.25345" lon="7.50404">
        <ele>1269.4</ele>
      </trkpt>
      <trkpt lat="47.25353" lon="7.50439">
        <ele>1269.9</ele>
      </trkpt>
      <trkpt lat="47.25367" lon="7.50493">
        <ele>1271.9</ele>
      </trkpt>
      <trkpt lat="47.25385" lon="7.50563">
        <ele>1273.3</ele>
      </trkpt>
      <trkpt lat="47.25402" lon="7.50631">
        <ele>1271.9</ele>
      </trkpt>
      <trkpt lat="47.25406" lon="7.50649">
        <ele>1271</ele>
      </trkpt>
      <trkpt lat="47.25407" lon="7.50654">
        <ele>1270.7</ele>
      </trkpt>
      <trkpt lat="47.25408" lon="7.50663">
        <ele>1270.2</ele>
      </trkpt>
      <trkpt lat="47.25408" lon="7.50668">
        <ele>1269.8</ele>
      </trkpt>
      <trkpt lat="47.25408" lon="7.50675">
        <ele>1269.3</ele>
      </trkpt>
      <trkpt lat="47.25406" lon="7.50684">
        <ele>1268.5</ele>
      </trkpt>
      <trkpt lat="47.2541" lon="7.50687">
        <ele>1269</ele>
      </trkpt>
      <trkpt lat="47.25416" lon="7.5069">
        <ele>1269.5</ele>
      </trkpt>
      <trkpt lat="47.2542" lon="7.50695">
        <ele>1269.4</ele>
      </trkpt>
      <trkpt lat="47.25424" lon="7.50701">
        <ele>1269.1</ele>
      </trkpt>
      <trkpt lat="47.25428" lon="7.50707">
        <ele>1268.9</ele>
      </trkpt>
      <trkpt lat="47.25431" lon="7.50715">
        <ele>1268.6</ele>
      </trkpt>
      <trkpt lat="47.25433" lon="7.50724">
        <ele>1268.2</ele>
      </trkpt>
      <trkpt lat="47.25436" lon="7.50735">
        <ele>1267.9</ele>
      </trkpt>
      <trkpt lat="47.25441" lon="7.50748">
        <ele>1267.5</ele>
      </trkpt>
      <trkpt lat="47.25449" lon="7.50769">
        <ele>1267.2</ele>
      </trkpt>
      <trkpt lat="47.25455" lon="7.50786">
        <ele>1267.1</ele>
      </trkpt>
      <trkpt lat="47.25464" lon="7.50819">
        <ele>1267.1</ele>
      </trkpt>
      <trkpt lat="47.25475" lon="7.50855">
        <ele>1267</ele>
      </trkpt>
      <trkpt lat="47.25508" lon="7.50971">
        <ele>1264.6</ele>
      </trkpt>
      <trkpt lat="47.25514" lon="7.50995">
        <ele>1264.3</ele>
      </trkpt>
      <trkpt lat="47.25521" lon="7.51027">
        <ele>1264.7</ele>
      </trkpt>
      <trkpt lat="47.25548" lon="7.51131">
        <ele>1267.4</ele>
      </trkpt>
      <trkpt lat="47.25558" lon="7.51158">
        <ele>1268.4</ele>
      </trkpt>
      <trkpt lat="47.25563" lon="7.5117">
        <ele>1268.9</ele>
      </trkpt>
      <trkpt lat="47.25567" lon="7.51184">
        <ele>1269.1</ele>
      </trkpt>
      <trkpt lat="47.25659" lon="7.51486">
        <ele>1270.2</ele>
      </trkpt>
      <trkpt lat="47.25666" lon="7.51512">
        <ele>1269.8</ele>
      </trkpt>
      <trkpt lat="47.2567" lon="7.51529">
        <ele>1269.7</ele>
      </trkpt>
      <trkpt lat="47.25673" lon="7.51545">
        <ele>1269.7</ele>
      </trkpt>
      <trkpt lat="47.25677" lon="7.51575">
        <ele>1269.6</ele>
      </trkpt>
      <trkpt lat="47.25685" lon="7.51631">
        <ele>1267.3</ele>
      </trkpt>
      <trkpt lat="47.25691" lon="7.51664">
        <ele>1265.7</ele>
      </trkpt>
      <trkpt lat="47.25693" lon="7.51677">
        <ele>1265.1</ele>
      </trkpt>
      <trkpt lat="47.25693" lon="7.5169">
        <ele>1264.4</ele>
      </trkpt>
      <trkpt lat="47.25694" lon="7.51703">
        <ele>1263.7</ele>
      </trkpt>
      <trkpt lat="47.25694" lon="7.51709">
        <ele>1263.3</ele>
      </trkpt>
      <trkpt lat="47.25694" lon="7.51715">
        <ele>1263</ele>
      </trkpt>
      <trkpt lat="47.25692" lon="7.51721">
        <ele>1262.7</ele>
      </trkpt>
      <trkpt lat="47.2569" lon="7.51729">
        <ele>1262.4</ele>
      </trkpt>
      <trkpt lat="47.25685" lon="7.51741">
        <ele>1262.1</ele>
      </trkpt>
      <trkpt lat="47.25683" lon="7.51749">
        <ele>1261.9</ele>
      </trkpt>
      <trkpt lat="47.25683" lon="7.51757">
        <ele>1261.7</ele>
      </trkpt>
      <trkpt lat="47.25683" lon="7.51764">
        <ele>1261.5</ele>
      </trkpt>
      <trkpt lat="47.25683" lon="7.51773">
        <ele>1261.3</ele>
      </trkpt>
      <trkpt lat="47.25689" lon="7.51807">
        <ele>1259.4</ele>
      </trkpt>
      <trkpt lat="47.2569" lon="7.51818">
        <ele>1258.8</ele>
      </trkpt>
      <trkpt lat="47.2569" lon="7.51831">
        <ele>1258.2</ele>
      </trkpt>
      <trkpt lat="47.2569" lon="7.51851">
        <ele>1257.9</ele>
      </trkpt>
      <trkpt lat="47.25688" lon="7.51862">
        <ele>1258.1</ele>
      </trkpt>
      <trkpt lat="47.25686" lon="7.51872">
        <ele>1258.6</ele>
      </trkpt>
      <trkpt lat="47.25679" lon="7.51893">
        <ele>1260.5</ele>
      </trkpt>
      <trkpt lat="47.25673" lon="7.51911">
        <ele>1262.8</ele>
      </trkpt>
      <trkpt lat="47.25669" lon="7.51921">
        <ele>1264.3</ele>
      </trkpt>
      <trkpt lat="47.25668" lon="7.51928">
        <ele>1265.4</ele>
      </trkpt>
      <trkpt lat="47.25668" lon="7.51935">
        <ele>1265.9</ele>
      </trkpt>
      <trkpt lat="47.25669" lon="7.51944">
        <ele>1266</ele>
      </trkpt>
      <trkpt lat="47.25676" lon="7.51973">
        <ele>1264.5</ele>
      </trkpt>
      <trkpt lat="47.25686" lon="7.52006">
        <ele>1261.3</ele>
      </trkpt>
      <trkpt lat="47.25691" lon="7.52025">
        <ele>1262.9</ele>
      </trkpt>
      <trkpt lat="47.25697" lon="7.52037">
        <ele>1261.9</ele>
      </trkpt>
      <trkpt lat="47.25716" lon="7.52069">
        <ele>1255.9</ele>
      </trkpt>
      <trkpt lat="47.25765" lon="7.52136">
        <ele>1246.7</ele>
      </trkpt>
      <trkpt lat="47.25779" lon="7.52151">
        <ele>1243.1</ele>
      </trkpt>
      <trkpt lat="47.25786" lon="7.52155">
        <ele>1240</ele>
      </trkpt>
      <trkpt lat="47.25791" lon="7.52156">
        <ele>1237.2</ele>
      </trkpt>
      <trkpt lat="47.25796" lon="7.52156">
        <ele>1234</ele>
      </trkpt>
      <trkpt lat="47.258" lon="7.52154">
        <ele>1230.4</ele>
      </trkpt>
      <trkpt lat="47.25805" lon="7.52152">
        <ele>1227.1</ele>
      </trkpt>
      <trkpt lat="47.25811" lon="7.52154">
        <ele>1223.5</ele>
      </trkpt>
      <trkpt lat="47.25816" lon="7.52158">
        <ele>1221.4</ele>
      </trkpt>
      <trkpt lat="47.25821" lon="7.52163">
        <ele>1219.2</ele>
      </trkpt>
      <trkpt lat="47.25823" lon="7.52165">
        <ele>1218.8</ele>
      </trkpt>
      <trkpt lat="47.25823" lon="7.52168">
        <ele>1219.1</ele>
      </trkpt>
      <trkpt lat="47.25824" lon="7.52172">
        <ele>1220.2</ele>
      </trkpt>
      <trkpt lat="47.25824" lon="7.52177">
        <ele>1221.5</ele>
      </trkpt>
      <trkpt lat="47.25825" lon="7.52182">
        <ele>1222.3</ele>
      </trkpt>
      <trkpt lat="47.25827" lon="7.52189">
        <ele>1223.2</ele>
      </trkpt>
      <trkpt lat="47.25831" lon="7.52196">
        <ele>1223</ele>
      </trkpt>
      <trkpt lat="47.25837" lon="7.52202">
        <ele>1221.2</ele>
      </trkpt>
      <trkpt lat="47.25866" lon="7.52228">
        <ele>1211.6</ele>
      </trkpt>
      <trkpt lat="47.25876" lon="7.52239">
        <ele>1208.9</ele>
      </trkpt>
      <trkpt lat="47.25881" lon="7.52249">
        <ele>1208.4</ele>
      </trkpt>
      <trkpt lat="47.25895" lon="7.52278">
        <ele>1207.8</ele>
      </trkpt>
      <trkpt lat="47.25908" lon="7.52309">
        <ele>1208</ele>
      </trkpt>
      <trkpt lat="47.25923" lon="7.52344">
        <ele>1206.3</ele>
      </trkpt>
      <trkpt lat="47.25931" lon="7.52359">
        <ele>1203.3</ele>
      </trkpt>
      <trkpt lat="47.25936" lon="7.52366">
        <ele>1201</ele>
      </trkpt>
      <trkpt lat="47.25946" lon="7.52378">
        <ele>1195.9</ele>
      </trkpt>
      <trkpt lat="47.25968" lon="7.52409">
        <ele>1187.2</ele>
      </trkpt>
      <trkpt lat="47.25989" lon="7.52437">
        <ele>1179.4</ele>
      </trkpt>
      <trkpt lat="47.26001" lon="7.52461">
        <ele>1176.2</ele>
      </trkpt>
      <trkpt lat="47.26008" lon="7.52472">
        <ele>1173.6</ele>
      </trkpt>
      <trkpt lat="47.26021" lon="7.52489">
        <ele>1168.5</ele>
      </trkpt>
      <trkpt lat="47.26032" lon="7.52503">
        <ele>1165.1</ele>
      </trkpt>
      <trkpt lat="47.26038" lon="7.52515">
        <ele>1164.1</ele>
      </trkpt>
      <trkpt lat="47.26045" lon="7.52528">
        <ele>1163.6</ele>
      </trkpt>
      <trkpt lat="47.2605" lon="7.52537">
        <ele>1162.6</ele>
      </trkpt>
      <trkpt lat="47.26067" lon="7.52564">
        <ele>1160.2</ele>
      </trkpt>
      <trkpt lat="47.26073" lon="7.52576">
        <ele>1160</ele>
      </trkpt>
      <trkpt lat="47.26079" lon="7.52589">
        <ele>1159.9</ele>
      </trkpt>
      <trkpt lat="47.26085" lon="7.52606">
        <ele>1159.4</ele>
      </trkpt>
      <trkpt lat="47.26107" lon="7.52671">
        <ele>1155.6</ele>
      </trkpt>
      <trkpt lat="47.26113" lon="7.52689">
        <ele>1154.8</ele>
      </trkpt>
      <trkpt lat="47.26116" lon="7.52696">
        <ele>1153.9</ele>
      </trkpt>
      <trkpt lat="47.26121" lon="7.52703">
        <ele>1151.7</ele>
      </trkpt>
      <trkpt lat="47.2614" lon="7.52727">
        <ele>1142.3</ele>
      </trkpt>
      <trkpt lat="47.26145" lon="7.52735">
        <ele>1139.8</ele>
      </trkpt>
      <trkpt lat="47.2615" lon="7.52744">
        <ele>1138.5</ele>
      </trkpt>
      <trkpt lat="47.26153" lon="7.52752">
        <ele>1138.1</ele>
      </trkpt>
      <trkpt lat="47.26155" lon="7.52768">
        <ele>1139.2</ele>
      </trkpt>
      <trkpt lat="47.26161" lon="7.52793">
        <ele>1140</ele>
      </trkpt>
      <trkpt lat="47.26166" lon="7.52812">
        <ele>1139.2</ele>
      </trkpt>
      <trkpt lat="47.26175" lon="7.52834">
        <ele>1137.5</ele>
      </trkpt>
      <trkpt lat="47.26184" lon="7.52857">
        <ele>1135.2</ele>
      </trkpt>
      <trkpt lat="47.26187" lon="7.52868">
        <ele>1135.5</ele>
      </trkpt>
      <trkpt lat="47.26197" lon="7.52909">
        <ele>1135.6</ele>
      </trkpt>
      <trkpt lat="47.26201" lon="7.5292">
        <ele>1135.1</ele>
      </trkpt>
      <trkpt lat="47.26204" lon="7.52926">
        <ele>1133.8</ele>
      </trkpt>
      <trkpt lat="47.26212" lon="7.52938">
        <ele>1130.1</ele>
      </trkpt>
      <trkpt lat="47.26218" lon="7.52948">
        <ele>1128.1</ele>
      </trkpt>
      <trkpt lat="47.26222" lon="7.5296">
        <ele>1127.6</ele>
      </trkpt>
      <trkpt lat="47.26229" lon="7.52981">
        <ele>1126.7</ele>
      </trkpt>
      <trkpt lat="47.26236" lon="7.52999">
        <ele>1125</ele>
      </trkpt>
      <trkpt lat="47.26246" lon="7.53014">
        <ele>1121.6</ele>
      </trkpt>
      <trkpt lat="47.26263" lon="7.53039">
        <ele>1116.5</ele>
      </trkpt>
      <trkpt lat="47.2627" lon="7.53053">
        <ele>1114.6</ele>
      </trkpt>
      <trkpt lat="47.26276" lon="7.53065">
        <ele>1113.8</ele>
      </trkpt>
      <trkpt lat="47.26284" lon="7.53085">
        <ele>1112.9</ele>
      </trkpt>
      <trkpt lat="47.26298" lon="7.53124">
        <ele>1111.4</ele>
      </trkpt>
      <trkpt lat="47.26323" lon="7.53201">
        <ele>1110</ele>
      </trkpt>
      <trkpt lat="47.26326" lon="7.53209">
        <ele>1109.8</ele>
      </trkpt>
      <trkpt lat="47.26333" lon="7.53228">
        <ele>1108.7</ele>
      </trkpt>
      <trkpt lat="47.26345" lon="7.53253">
        <ele>1108.1</ele>
      </trkpt>
      <trkpt lat="47.26352" lon="7.53271">
        <ele>1106.5</ele>
      </trkpt>
      <trkpt lat="47.26359" lon="7.53283">
        <ele>1104.8</ele>
      </trkpt>
      <trkpt lat="47.26365" lon="7.53292">
        <ele>1103.4</ele>
      </trkpt>
      <trkpt lat="47.2638" lon="7.53313">
        <ele>1098.8</ele>
      </trkpt>
      <trkpt lat="47.2639" lon="7.53328">
        <ele>1095.7</ele>
      </trkpt>
      <trkpt lat="47.26401" lon="7.5334">
        <ele>1092.3</ele>
      </trkpt>
      <trkpt lat="47.26423" lon="7.53365">
        <ele>1088.1</ele>
      </trkpt>
      <trkpt lat="47.26434" lon="7.53379">
        <ele>1088.8</ele>
      </trkpt>
      <trkpt lat="47.26438" lon="7.53385">
        <ele>1089.2</ele>
      </trkpt>
      <trkpt lat="47.26443" lon="7.53392">
        <ele>1089.7</ele>
      </trkpt>
      <trkpt lat="47.26449" lon="7.53404">
        <ele>1090.4</ele>
      </trkpt>
      <trkpt lat="47.26461" lon="7.5343">
        <ele>1091.8</ele>
      </trkpt>
      <trkpt lat="47.26465" lon="7.53441">
        <ele>1092.1</ele>
      </trkpt>
      <trkpt lat="47.26472" lon="7.5346">
        <ele>1092.3</ele>
      </trkpt>
      <trkpt lat="47.26489" lon="7.53518">
        <ele>1091.2</ele>
      </trkpt>
      <trkpt lat="47.26492" lon="7.53529">
        <ele>1090.9</ele>
      </trkpt>
      <trkpt lat="47.26568" lon="7.53796">
        <ele>1079.5</ele>
      </trkpt>
      <trkpt lat="47.26615" lon="7.53956">
        <ele>1079.7</ele>
      </trkpt>
      <trkpt lat="47.26616" lon="7.53968">
        <ele>1080</ele>
      </trkpt>
      <trkpt lat="47.26622" lon="7.54038">
        <ele>1082.5</ele>
      </trkpt>
      <trkpt lat="47.26622" lon="7.5405">
        <ele>1083</ele>
      </trkpt>
      <trkpt lat="47.26623" lon="7.54074">
        <ele>1084</ele>
      </trkpt>
      <trkpt lat="47.26624" lon="7.54089">
        <ele>1084.5</ele>
      </trkpt>
      <trkpt lat="47.26625" lon="7.54096">
        <ele>1084.7</ele>
      </trkpt>
      <trkpt lat="47.2663" lon="7.54108">
        <ele>1085.5</ele>
      </trkpt>
      <trkpt lat="47.26632" lon="7.54114">
        <ele>1085.9</ele>
      </trkpt>
      <trkpt lat="47.26634" lon="7.5412">
        <ele>1086.2</ele>
      </trkpt>
      <trkpt lat="47.26635" lon="7.54127">
        <ele>1086.4</ele>
      </trkpt>
      <trkpt lat="47.26635" lon="7.54134">
        <ele>1086.5</ele>
      </trkpt>
      <trkpt lat="47.26633" lon="7.54156">
        <ele>1086.8</ele>
      </trkpt>
      <trkpt lat="47.26632" lon="7.5418">
        <ele>1087.4</ele>
      </trkpt>
      <trkpt lat="47.26629" lon="7.5419">
        <ele>1087.7</ele>
      </trkpt>
      <trkpt lat="47.26628" lon="7.54195">
        <ele>1087.7</ele>
      </trkpt>
      <trkpt lat="47.26626" lon="7.54204">
        <ele>1087.9</ele>
      </trkpt>
      <trkpt lat="47.26624" lon="7.5421">
        <ele>1088</ele>
      </trkpt>
      <trkpt lat="47.26624" lon="7.54215">
        <ele>1088.2</ele>
      </trkpt>
      <trkpt lat="47.26623" lon="7.54221">
        <ele>1088.4</ele>
      </trkpt>
      <trkpt lat="47.26623" lon="7.54227">
        <ele>1088.7</ele>
      </trkpt>
      <trkpt lat="47.26624" lon="7.54237">
        <ele>1089.2</ele>
      </trkpt>
      <trkpt lat="47.26626" lon="7.54252">
        <ele>1090.1</ele>
      </trkpt>
      <trkpt lat="47.26633" lon="7.54293">
        <ele>1090.5</ele>
      </trkpt>
      <trkpt lat="47.26634" lon="7.54305">
        <ele>1090.6</ele>
      </trkpt>
      <trkpt lat="47.26636" lon="7.54327">
        <ele>1090.5</ele>
      </trkpt>
      <trkpt lat="47.26637" lon="7.54367">
        <ele>1090.3</ele>
      </trkpt>
      <trkpt lat="47.26638" lon="7.54397">
        <ele>1090.1</ele>
      </trkpt>
      <trkpt lat="47.26641" lon="7.54433">
        <ele>1090.5</ele>
      </trkpt>
      <trkpt lat="47.26641" lon="7.54442">
        <ele>1090.7</ele>
      </trkpt>
      <trkpt lat="47.2664" lon="7.54449">
        <ele>1090.8</ele>
      </trkpt>
      <trkpt lat="47.26639" lon="7.54458">
        <ele>1091</ele>
      </trkpt>
      <trkpt lat="47.26637" lon="7.54469">
        <ele>1091.1</ele>
      </trkpt>
      <trkpt lat="47.26633" lon="7.54485">
        <ele>1091.3</ele>
      </trkpt>
      <trkpt lat="47.2663" lon="7.54498">
        <ele>1091.3</ele>
      </trkpt>
      <trkpt lat="47.26627" lon="7.54509">
        <ele>1091.2</ele>
      </trkpt>
      <trkpt lat="47.26626" lon="7.54515">
        <ele>1091.1</ele>
      </trkpt>
      <trkpt lat="47.26625" lon="7.5452">
        <ele>1091.1</ele>
      </trkpt>
      <trkpt lat="47.26625" lon="7.54525">
        <ele>1091.2</ele>
      </trkpt>
      <trkpt lat="47.26626" lon="7.54529">
        <ele>1091.3</ele>
      </trkpt>
      <trkpt lat="47.26627" lon="7.54534">
        <ele>1091.4</ele>
      </trkpt>
      <trkpt lat="47.26629" lon="7.54538">
        <ele>1091.7</ele>
      </trkpt>
      <trkpt lat="47.26641" lon="7.54568">
        <ele>1093.9</ele>
      </trkpt>
      <trkpt lat="47.26658" lon="7.54616">
        <ele>1095.7</ele>
      </trkpt>
      <trkpt lat="47.26659" lon="7.54618">
        <ele>1095.8</ele>
      </trkpt>
      <trkpt lat="47.2666" lon="7.54621">
        <ele>1095.9</ele>
      </trkpt>
      <trkpt lat="47.26661" lon="7.54624">
        <ele>1095.9</ele>
      </trkpt>
      <trkpt lat="47.26675" lon="7.54656">
        <ele>1094.5</ele>
      </trkpt>
      <trkpt lat="47.26682" lon="7.5467">
        <ele>1093.4</ele>
      </trkpt>
      <trkpt lat="47.26689" lon="7.54678">
        <ele>1092.8</ele>
      </trkpt>
      <trkpt lat="47.26696" lon="7.54685">
        <ele>1092.6</ele>
      </trkpt>
      <trkpt lat="47.26702" lon="7.54689">
        <ele>1092.5</ele>
      </trkpt>
      <trkpt lat="47.26707" lon="7.54693">
        <ele>1092.6</ele>
      </trkpt>
      <trkpt lat="47.2671" lon="7.54698">
        <ele>1093</ele>
      </trkpt>
      <trkpt lat="47.26714" lon="7.54706">
        <ele>1093.7</ele>
      </trkpt>
      <trkpt lat="47.2672" lon="7.5472">
        <ele>1095.2</ele>
      </trkpt>
      <trkpt lat="47.26727" lon="7.54733">
        <ele>1097.3</ele>
      </trkpt>
      <trkpt lat="47.26734" lon="7.54743">
        <ele>1099.6</ele>
      </trkpt>
      <trkpt lat="47.26743" lon="7.54756">
        <ele>1103</ele>
      </trkpt>
      <trkpt lat="47.26752" lon="7.5477">
        <ele>1106.2</ele>
      </trkpt>
      <trkpt lat="47.26755" lon="7.54774">
        <ele>1106.1</ele>
      </trkpt>
      <trkpt lat="47.26757" lon="7.54777">
        <ele>1106</ele>
      </trkpt>
      <trkpt lat="47.26775" lon="7.548">
        <ele>1105.6</ele>
      </trkpt>
      <trkpt lat="47.26781" lon="7.54809">
        <ele>1105.5</ele>
      </trkpt>
      <trkpt lat="47.26786" lon="7.54817">
        <ele>1105.9</ele>
      </trkpt>
      <trkpt lat="47.26791" lon="7.54828">
        <ele>1106.7</ele>
      </trkpt>
      <trkpt lat="47.26795" lon="7.5484">
        <ele>1107.4</ele>
      </trkpt>
      <trkpt lat="47.26799" lon="7.54851">
        <ele>1107.9</ele>
      </trkpt>
      <trkpt lat="47.26802" lon="7.54864">
        <ele>1108.7</ele>
      </trkpt>
      <trkpt lat="47.26804" lon="7.54871">
        <ele>1109.4</ele>
      </trkpt>
      <trkpt lat="47.26806" lon="7.54884">
        <ele>1110.6</ele>
      </trkpt>
      <trkpt lat="47.26808" lon="7.54895">
        <ele>1111.7</ele>
      </trkpt>
      <trkpt lat="47.26809" lon="7.54917">
        <ele>1114.5</ele>
      </trkpt>
      <trkpt lat="47.26809" lon="7.54961">
        <ele>1117.7</ele>
      </trkpt>
      <trkpt lat="47.2681" lon="7.54973">
        <ele>1118.6</ele>
      </trkpt>
      <trkpt lat="47.26811" lon="7.54984">
        <ele>1119.4</ele>
      </trkpt>
      <trkpt lat="47.26812" lon="7.54993">
        <ele>1120.1</ele>
      </trkpt>
      <trkpt lat="47.26816" lon="7.55002">
        <ele>1121.1</ele>
      </trkpt>
      <trkpt lat="47.26837" lon="7.5504">
        <ele>1125.8</ele>
      </trkpt>
      <trkpt lat="47.26839" lon="7.55042">
        <ele>1125.5</ele>
      </trkpt>
      <trkpt lat="47.2684" lon="7.55044">
        <ele>1125.3</ele>
      </trkpt>
      <trkpt lat="47.26843" lon="7.55049">
        <ele>1124.8</ele>
      </trkpt>
      <trkpt lat="47.26848" lon="7.55061">
        <ele>1124.1</ele>
      </trkpt>
      <trkpt lat="47.26853" lon="7.55074">
        <ele>1123.9</ele>
      </trkpt>
      <trkpt lat="47.26857" lon="7.55092">
        <ele>1124</ele>
      </trkpt>
      <trkpt lat="47.2686" lon="7.55107">
        <ele>1124</ele>
      </trkpt>
      <trkpt lat="47.26864" lon="7.55122">
        <ele>1123.3</ele>
      </trkpt>
      <trkpt lat="47.26868" lon="7.55132">
        <ele>1122.5</ele>
      </trkpt>
      <trkpt lat="47.26872" lon="7.55141">
        <ele>1121.4</ele>
      </trkpt>
      <trkpt lat="47.26884" lon="7.55173">
        <ele>1118.9</ele>
      </trkpt>
      <trkpt lat="47.26887" lon="7.5518">
        <ele>1119</ele>
      </trkpt>
      <trkpt lat="47.26888" lon="7.55185">
        <ele>1119.4</ele>
      </trkpt>
      <trkpt lat="47.2689" lon="7.55194">
        <ele>1120.4</ele>
      </trkpt>
      <trkpt lat="47.26893" lon="7.55226">
        <ele>1125.5</ele>
      </trkpt>
      <trkpt lat="47.26894" lon="7.55235">
        <ele>1126.7</ele>
      </trkpt>
      <trkpt lat="47.26896" lon="7.55244">
        <ele>1127.6</ele>
      </trkpt>
      <trkpt lat="47.26908" lon="7.55282">
        <ele>1128.6</ele>
      </trkpt>
      <trkpt lat="47.26911" lon="7.55294">
        <ele>1129.3</ele>
      </trkpt>
      <trkpt lat="47.26914" lon="7.55319">
        <ele>1131.7</ele>
      </trkpt>
      <trkpt lat="47.26916" lon="7.55333">
        <ele>1133.2</ele>
      </trkpt>
      <trkpt lat="47.26918" lon="7.55359">
        <ele>1136.3</ele>
      </trkpt>
      <trkpt lat="47.2692" lon="7.55387">
        <ele>1139.6</ele>
      </trkpt>
      <trkpt lat="47.26923" lon="7.5541">
        <ele>1141.9</ele>
      </trkpt>
      <trkpt lat="47.26927" lon="7.55436">
        <ele>1142.7</ele>
      </trkpt>
      <trkpt lat="47.26932" lon="7.55469">
        <ele>1143.5</ele>
      </trkpt>
      <trkpt lat="47.26932" lon="7.55481">
        <ele>1144</ele>
      </trkpt>
      <trkpt lat="47.26932" lon="7.55495">
        <ele>1144.9</ele>
      </trkpt>
      <trkpt lat="47.26931" lon="7.55503">
        <ele>1145.6</ele>
      </trkpt>
      <trkpt lat="47.26929" lon="7.55519">
        <ele>1146.6</ele>
      </trkpt>
      <trkpt lat="47.26926" lon="7.55537">
        <ele>1147.7</ele>
      </trkpt>
      <trkpt lat="47.26921" lon="7.55559">
        <ele>1148.9</ele>
      </trkpt>
      <trkpt lat="47.2692" lon="7.55576">
        <ele>1149.5</ele>
      </trkpt>
      <trkpt lat="47.26919" lon="7.55593">
        <ele>1150.3</ele>
      </trkpt>
      <trkpt lat="47.26919" lon="7.5562">
        <ele>1152</ele>
      </trkpt>
      <trkpt lat="47.26921" lon="7.55641">
        <ele>1153.2</ele>
      </trkpt>
      <trkpt lat="47.26924" lon="7.55663">
        <ele>1154.6</ele>
      </trkpt>
      <trkpt lat="47.26927" lon="7.55685">
        <ele>1155.8</ele>
      </trkpt>
      <trkpt lat="47.26933" lon="7.55717">
        <ele>1157.7</ele>
      </trkpt>
      <trkpt lat="47.26934" lon="7.55725">
        <ele>1158.2</ele>
      </trkpt>
      <trkpt lat="47.26936" lon="7.55731">
        <ele>1158.7</ele>
      </trkpt>
      <trkpt lat="47.26938" lon="7.55738">
        <ele>1159.2</ele>
      </trkpt>
      <trkpt lat="47.26937" lon="7.55741">
        <ele>1159.4</ele>
      </trkpt>
      <trkpt lat="47.26936" lon="7.55754">
        <ele>1159.8</ele>
      </trkpt>
      <trkpt lat="47.26936" lon="7.55776">
        <ele>1159.3</ele>
      </trkpt>
      <trkpt lat="47.26936" lon="7.55846">
        <ele>1157.2</ele>
      </trkpt>
      <trkpt lat="47.26937" lon="7.55909">
        <ele>1153.1</ele>
      </trkpt>
      <trkpt lat="47.26936" lon="7.55943">
        <ele>1150.7</ele>
      </trkpt>
      <trkpt lat="47.26937" lon="7.55955">
        <ele>1150</ele>
      </trkpt>
      <trkpt lat="47.26938" lon="7.55965">
        <ele>1149.7</ele>
      </trkpt>
      <trkpt lat="47.2694" lon="7.55975">
        <ele>1149.7</ele>
      </trkpt>
      <trkpt lat="47.26941" lon="7.55979">
        <ele>1149.8</ele>
      </trkpt>
      <trkpt lat="47.26943" lon="7.55985">
        <ele>1149.9</ele>
      </trkpt>
      <trkpt lat="47.2694" lon="7.55975">
        <ele>1149.7</ele>
      </trkpt>
      <trkpt lat="47.26932" lon="7.55988">
        <ele>1146.3</ele>
      </trkpt>
      <trkpt lat="47.26923" lon="7.56006">
        <ele>1141.1</ele>
      </trkpt>
      <trkpt lat="47.26921" lon="7.56009">
        <ele>1140.2</ele>
      </trkpt>
      <trkpt lat="47.26921" lon="7.56011">
        <ele>1139.5</ele>
      </trkpt>
      <trkpt lat="47.2692" lon="7.56013">
        <ele>1139</ele>
      </trkpt>
      <trkpt lat="47.26919" lon="7.56015">
        <ele>1138.4</ele>
      </trkpt>
      <trkpt lat="47.26917" lon="7.56016">
        <ele>1137.5</ele>
      </trkpt>
      <trkpt lat="47.26916" lon="7.56017">
        <ele>1136.9</ele>
      </trkpt>
      <trkpt lat="47.26915" lon="7.56019">
        <ele>1136.5</ele>
      </trkpt>
      <trkpt lat="47.26915" lon="7.56021">
        <ele>1136</ele>
      </trkpt>
      <trkpt lat="47.26912" lon="7.56035">
        <ele>1133.1</ele>
      </trkpt>
      <trkpt lat="47.26911" lon="7.56039">
        <ele>1132</ele>
      </trkpt>
      <trkpt lat="47.2691" lon="7.56044">
        <ele>1130.9</ele>
      </trkpt>
      <trkpt lat="47.26908" lon="7.56068">
        <ele>1126.4</ele>
      </trkpt>
      <trkpt lat="47.26908" lon="7.56092">
        <ele>1121.8</ele>
      </trkpt>
      <trkpt lat="47.26908" lon="7.56116">
        <ele>1117.1</ele>
      </trkpt>
      <trkpt lat="47.26909" lon="7.56132">
        <ele>1114.2</ele>
      </trkpt>
      <trkpt lat="47.2691" lon="7.56147">
        <ele>1111.4</ele>
      </trkpt>
      <trkpt lat="47.26911" lon="7.56161">
        <ele>1108.9</ele>
      </trkpt>
      <trkpt lat="47.26915" lon="7.56185">
        <ele>1104.1</ele>
      </trkpt>
      <trkpt lat="47.26916" lon="7.56198">
        <ele>1101.2</ele>
      </trkpt>
      <trkpt lat="47.26915" lon="7.56265">
        <ele>1083.4</ele>
      </trkpt>
      <trkpt lat="47.26914" lon="7.56286">
        <ele>1075.8</ele>
      </trkpt>
      <trkpt lat="47.26911" lon="7.56308">
        <ele>1067.5</ele>
      </trkpt>
      <trkpt lat="47.26911" lon="7.56318">
        <ele>1064.3</ele>
      </trkpt>
      <trkpt lat="47.2691" lon="7.56319">
        <ele>1063.6</ele>
      </trkpt>
      <trkpt lat="47.26905" lon="7.56318">
        <ele>1062.9</ele>
      </trkpt>
      <trkpt lat="47.26901" lon="7.56317">
        <ele>1062.5</ele>
      </trkpt>
      <trkpt lat="47.26893" lon="7.56312">
        <ele>1062.5</ele>
      </trkpt>
      <trkpt lat="47.26888" lon="7.56308">
        <ele>1062.9</ele>
      </trkpt>
      <trkpt lat="47.26885" lon="7.56306">
        <ele>1062.9</ele>
      </trkpt>
      <trkpt lat="47.26885" lon="7.56307">
        <ele>1062.5</ele>
      </trkpt>
      <trkpt lat="47.26886" lon="7.56323">
        <ele>1057.7</ele>
      </trkpt>
      <trkpt lat="47.26889" lon="7.56344">
        <ele>1051.8</ele>
      </trkpt>
      <trkpt lat="47.26891" lon="7.56354">
        <ele>1049.4</ele>
      </trkpt>
      <trkpt lat="47.26893" lon="7.56363">
        <ele>1047.6</ele>
      </trkpt>
      <trkpt lat="47.26892" lon="7.56364">
        <ele>1047.1</ele>
      </trkpt>
      <trkpt lat="47.26888" lon="7.56364">
        <ele>1046.2</ele>
      </trkpt>
      <trkpt lat="47.26883" lon="7.56363">
        <ele>1045.5</ele>
      </trkpt>
      <trkpt lat="47.26879" lon="7.56361">
        <ele>1045</ele>
      </trkpt>
      <trkpt lat="47.26876" lon="7.56359">
        <ele>1044.9</ele>
      </trkpt>
      <trkpt lat="47.26873" lon="7.56357">
        <ele>1045</ele>
      </trkpt>
      <trkpt lat="47.26872" lon="7.56361">
        <ele>1043.6</ele>
      </trkpt>
      <trkpt lat="47.26873" lon="7.56368">
        <ele>1041.7</ele>
      </trkpt>
      <trkpt lat="47.26874" lon="7.56375">
        <ele>1039.9</ele>
      </trkpt>
      <trkpt lat="47.26874" lon="7.56377">
        <ele>1039.3</ele>
      </trkpt>
      <trkpt lat="47.2687" lon="7.56376">
        <ele>1038.9</ele>
      </trkpt>
      <trkpt lat="47.26866" lon="7.56373">
        <ele>1038.8</ele>
      </trkpt>
      <trkpt lat="47.26865" lon="7.56372">
        <ele>1038.9</ele>
      </trkpt>
      <trkpt lat="47.26863" lon="7.5637">
        <ele>1039.1</ele>
      </trkpt>
      <trkpt lat="47.2686" lon="7.56364">
        <ele>1040.3</ele>
      </trkpt>
      <trkpt lat="47.26859" lon="7.56359">
        <ele>1041.5</ele>
      </trkpt>
      <trkpt lat="47.26858" lon="7.56357">
        <ele>1041.8</ele>
      </trkpt>
      <trkpt lat="47.26858" lon="7.56357">
        <ele>1041.6</ele>
      </trkpt>
      <trkpt lat="47.26852" lon="7.56388">
        <ele>1031.5</ele>
      </trkpt>
      <trkpt lat="47.26844" lon="7.56418">
        <ele>1020.4</ele>
      </trkpt>
      <trkpt lat="47.26843" lon="7.56422">
        <ele>1019</ele>
      </trkpt>
      <trkpt lat="47.2684" lon="7.56425">
        <ele>1017.7</ele>
      </trkpt>
      <trkpt lat="47.26826" lon="7.56438">
        <ele>1009.8</ele>
      </trkpt>
      <trkpt lat="47.26828" lon="7.5644">
        <ele>1010</ele>
      </trkpt>
      <trkpt lat="47.2683" lon="7.56442">
        <ele>1010.5</ele>
      </trkpt>
      <trkpt lat="47.26834" lon="7.56443">
        <ele>1011.4</ele>
      </trkpt>
      <trkpt lat="47.26839" lon="7.56443">
        <ele>1012.7</ele>
      </trkpt>
      <trkpt lat="47.26845" lon="7.56444">
        <ele>1014.3</ele>
      </trkpt>
      <trkpt lat="47.2685" lon="7.56445">
        <ele>1015.1</ele>
      </trkpt>
      <trkpt lat="47.26855" lon="7.56447">
        <ele>1015.9</ele>
      </trkpt>
      <trkpt lat="47.26858" lon="7.56449">
        <ele>1016.2</ele>
      </trkpt>
      <trkpt lat="47.2686" lon="7.56451">
        <ele>1016.3</ele>
      </trkpt>
      <trkpt lat="47.26863" lon="7.56453">
        <ele>1016.5</ele>
      </trkpt>
      <trkpt lat="47.26866" lon="7.56455">
        <ele>1016.8</ele>
      </trkpt>
      <trkpt lat="47.26869" lon="7.56455">
        <ele>1017.5</ele>
      </trkpt>
      <trkpt lat="47.26871" lon="7.56456">
        <ele>1017.9</ele>
      </trkpt>
      <trkpt lat="47.26874" lon="7.56457">
        <ele>1018.3</ele>
      </trkpt>
      <trkpt lat="47.2688" lon="7.56462">
        <ele>1018.8</ele>
      </trkpt>
      <trkpt lat="47.26883" lon="7.56464">
        <ele>1019</ele>
      </trkpt>
      <trkpt lat="47.26885" lon="7.56466">
        <ele>1018.9</ele>
      </trkpt>
      <trkpt lat="47.26885" lon="7.56468">
        <ele>1018.7</ele>
      </trkpt>
      <trkpt lat="47.26886" lon="7.5647">
        <ele>1018.3</ele>
      </trkpt>
      <trkpt lat="47.26886" lon="7.56473">
        <ele>1017.5</ele>
      </trkpt>
      <trkpt lat="47.26887" lon="7.56478">
        <ele>1016.6</ele>
      </trkpt>
      <trkpt lat="47.26888" lon="7.56479">
        <ele>1016.6</ele>
      </trkpt>
      <trkpt lat="47.2689" lon="7.5648">
        <ele>1016.8</ele>
      </trkpt>
      <trkpt lat="47.26893" lon="7.56483">
        <ele>1016.8</ele>
      </trkpt>
      <trkpt lat="47.26894" lon="7.56485">
        <ele>1016.5</ele>
      </trkpt>
      <trkpt lat="47.26894" lon="7.56488">
        <ele>1016</ele>
      </trkpt>
      <trkpt lat="47.26895" lon="7.56492">
        <ele>1015.1</ele>
      </trkpt>
      <trkpt lat="47.26894" lon="7.56498">
        <ele>1013.5</ele>
      </trkpt>
      <trkpt lat="47.26894" lon="7.56505">
        <ele>1012.8</ele>
      </trkpt>
      <trkpt lat="47.26893" lon="7.56509">
        <ele>1012.5</ele>
      </trkpt>
      <trkpt lat="47.26891" lon="7.56513">
        <ele>1011.9</ele>
      </trkpt>
      <trkpt lat="47.26886" lon="7.5652">
        <ele>1010.6</ele>
      </trkpt>
      <trkpt lat="47.26887" lon="7.56521">
        <ele>1010.6</ele>
      </trkpt>
      <trkpt lat="47.26888" lon="7.56522">
        <ele>1010.8</ele>
      </trkpt>
      <trkpt lat="47.2689" lon="7.56522">
        <ele>1011.4</ele>
      </trkpt>
      <trkpt lat="47.26893" lon="7.56521">
        <ele>1012.3</ele>
      </trkpt>
      <trkpt lat="47.26904" lon="7.56516">
        <ele>1015.6</ele>
      </trkpt>
      <trkpt lat="47.26906" lon="7.56515">
        <ele>1016.2</ele>
      </trkpt>
      <trkpt lat="47.26908" lon="7.56515">
        <ele>1016.6</ele>
      </trkpt>
      <trkpt lat="47.2691" lon="7.56518">
        <ele>1017.2</ele>
      </trkpt>
      <trkpt lat="47.2691" lon="7.56524">
        <ele>1017</ele>
      </trkpt>
      <trkpt lat="47.26907" lon="7.56533">
        <ele>1016.2</ele>
      </trkpt>
      <trkpt lat="47.26907" lon="7.56545">
        <ele>1016.2</ele>
      </trkpt>
      <trkpt lat="47.26905" lon="7.56554">
        <ele>1015.4</ele>
      </trkpt>
      <trkpt lat="47.26902" lon="7.5657">
        <ele>1014.3</ele>
      </trkpt>
      <trkpt lat="47.26898" lon="7.56574">
        <ele>1013.2</ele>
      </trkpt>
      <trkpt lat="47.26898" lon="7.56575">
        <ele>1013</ele>
      </trkpt>
      <trkpt lat="47.26896" lon="7.56576">
        <ele>1012.5</ele>
      </trkpt>
      <trkpt lat="47.26893" lon="7.56583">
        <ele>1011.5</ele>
      </trkpt>
      <trkpt lat="47.26892" lon="7.56589">
        <ele>1011.9</ele>
      </trkpt>
      <trkpt lat="47.26894" lon="7.56595">
        <ele>1013.2</ele>
      </trkpt>
      <trkpt lat="47.26894" lon="7.56601">
        <ele>1014.5</ele>
      </trkpt>
      <trkpt lat="47.26894" lon="7.56603">
        <ele>1014.7</ele>
      </trkpt>
      <trkpt lat="47.26894" lon="7.56603">
        <ele>1014.6</ele>
      </trkpt>
      <trkpt lat="47.26893" lon="7.56603">
        <ele>1014.3</ele>
      </trkpt>
      <trkpt lat="47.2689" lon="7.56601">
        <ele>1013</ele>
      </trkpt>
      <trkpt lat="47.26887" lon="7.56598">
        <ele>1011.7</ele>
      </trkpt>
      <trkpt lat="47.26884" lon="7.56598">
        <ele>1010.7</ele>
      </trkpt>
      <trkpt lat="47.26862" lon="7.56604">
        <ele>1005.4</ele>
      </trkpt>
      <trkpt lat="47.26859" lon="7.56608">
        <ele>1004.9</ele>
      </trkpt>
      <trkpt lat="47.26834" lon="7.56614">
        <ele>999.2</ele>
      </trkpt>
      <trkpt lat="47.26832" lon="7.56615">
        <ele>998.7</ele>
      </trkpt>
      <trkpt lat="47.26831" lon="7.56617">
        <ele>998.6</ele>
      </trkpt>
      <trkpt lat="47.26833" lon="7.56618">
        <ele>999.8</ele>
      </trkpt>
      <trkpt lat="47.26837" lon="7.56619">
        <ele>1001.1</ele>
      </trkpt>
      <trkpt lat="47.26842" lon="7.56623">
        <ele>1003.4</ele>
      </trkpt>
      <trkpt lat="47.26851" lon="7.56632">
        <ele>1007.8</ele>
      </trkpt>
      <trkpt lat="47.26856" lon="7.56638">
        <ele>1010.1</ele>
      </trkpt>
      <trkpt lat="47.2686" lon="7.56645">
        <ele>1012.5</ele>
      </trkpt>
      <trkpt lat="47.26866" lon="7.56657">
        <ele>1016.3</ele>
      </trkpt>
      <trkpt lat="47.26875" lon="7.56678">
        <ele>1020.2</ele>
      </trkpt>
      <trkpt lat="47.26889" lon="7.56713">
        <ele>1023.7</ele>
      </trkpt>
      <trkpt lat="47.26895" lon="7.56732">
        <ele>1025.5</ele>
      </trkpt>
      <trkpt lat="47.26898" lon="7.56738">
        <ele>1026.3</ele>
      </trkpt>
      <trkpt lat="47.26902" lon="7.56746">
        <ele>1027.5</ele>
      </trkpt>
      <trkpt lat="47.26905" lon="7.5675">
        <ele>1028.1</ele>
      </trkpt>
      <trkpt lat="47.26908" lon="7.56753">
        <ele>1028.4</ele>
      </trkpt>
      <trkpt lat="47.26912" lon="7.56756">
        <ele>1029</ele>
      </trkpt>
      <trkpt lat="47.26925" lon="7.56762">
        <ele>1032</ele>
      </trkpt>
      <trkpt lat="47.26948" lon="7.56765">
        <ele>1038.3</ele>
      </trkpt>
      <trkpt lat="47.26951" lon="7.56766">
        <ele>1039.1</ele>
      </trkpt>
      <trkpt lat="47.26957" lon="7.56769">
        <ele>1040.4</ele>
      </trkpt>
      <trkpt lat="47.26961" lon="7.56772">
        <ele>1041.4</ele>
      </trkpt>
      <trkpt lat="47.26965" lon="7.56776">
        <ele>1042.3</ele>
      </trkpt>
      <trkpt lat="47.26974" lon="7.56786">
        <ele>1043.8</ele>
      </trkpt>
      <trkpt lat="47.26985" lon="7.56792">
        <ele>1046.4</ele>
      </trkpt>
      <trkpt lat="47.26995" lon="7.56799">
        <ele>1048.8</ele>
      </trkpt>
      <trkpt lat="47.27005" lon="7.56808">
        <ele>1051.5</ele>
      </trkpt>
      <trkpt lat="47.27069" lon="7.5687">
        <ele>1068.2</ele>
      </trkpt>
      <trkpt lat="47.27075" lon="7.56875">
        <ele>1069.8</ele>
      </trkpt>
      <trkpt lat="47.27089" lon="7.56927">
        <ele>1069.8</ele>
      </trkpt>
      <trkpt lat="47.27095" lon="7.56956">
        <ele>1070.2</ele>
      </trkpt>
      <trkpt lat="47.27098" lon="7.5697">
        <ele>1070.2</ele>
      </trkpt>
      <trkpt lat="47.271" lon="7.56984">
        <ele>1069.7</ele>
      </trkpt>
      <trkpt lat="47.27102" lon="7.57003">
        <ele>1069.1</ele>
      </trkpt>
      <trkpt lat="47.27107" lon="7.57068">
        <ele>1072.1</ele>
      </trkpt>
      <trkpt lat="47.27109" lon="7.57087">
        <ele>1073.1</ele>
      </trkpt>
      <trkpt lat="47.27115" lon="7.57121">
        <ele>1075.1</ele>
      </trkpt>
      <trkpt lat="47.27118" lon="7.57141">
        <ele>1075.9</ele>
      </trkpt>
      <trkpt lat="47.27119" lon="7.57156">
        <ele>1076.2</ele>
      </trkpt>
      <trkpt lat="47.27119" lon="7.57172">
        <ele>1075.9</ele>
      </trkpt>
      <trkpt lat="47.27119" lon="7.57259">
        <ele>1071.3</ele>
      </trkpt>
      <trkpt lat="47.27118" lon="7.57268">
        <ele>1070.9</ele>
      </trkpt>
      <trkpt lat="47.27115" lon="7.57275">
        <ele>1070.3</ele>
      </trkpt>
      <trkpt lat="47.2711" lon="7.57283">
        <ele>1068.8</ele>
      </trkpt>
      <trkpt lat="47.27096" lon="7.57295">
        <ele>1065.3</ele>
      </trkpt>
      <trkpt lat="47.271" lon="7.57311">
        <ele>1066.6</ele>
      </trkpt>
      <trkpt lat="47.27103" lon="7.5732">
        <ele>1067.3</ele>
      </trkpt>
      <trkpt lat="47.27106" lon="7.57327">
        <ele>1068</ele>
      </trkpt>
      <trkpt lat="47.27108" lon="7.57334">
        <ele>1068.5</ele>
      </trkpt>
      <trkpt lat="47.27113" lon="7.57344">
        <ele>1068.4</ele>
      </trkpt>
      <trkpt lat="47.27116" lon="7.5735">
        <ele>1068.3</ele>
      </trkpt>
      <trkpt lat="47.27142" lon="7.57413">
        <ele>1067.8</ele>
      </trkpt>
      <trkpt lat="47.2716" lon="7.57452">
        <ele>1067.8</ele>
      </trkpt>
      <trkpt lat="47.27164" lon="7.57459">
        <ele>1068.1</ele>
      </trkpt>
      <trkpt lat="47.27167" lon="7.57463">
        <ele>1068.5</ele>
      </trkpt>
      <trkpt lat="47.27171" lon="7.57467">
        <ele>1069.5</ele>
      </trkpt>
      <trkpt lat="47.27175" lon="7.57471">
        <ele>1070.7</ele>
      </trkpt>
      <trkpt lat="47.27185" lon="7.5748">
        <ele>1073.5</ele>
      </trkpt>
      <trkpt lat="47.27188" lon="7.57485">
        <ele>1074.3</ele>
      </trkpt>
      <trkpt lat="47.27191" lon="7.5749">
        <ele>1074.8</ele>
      </trkpt>
      <trkpt lat="47.27194" lon="7.57495">
        <ele>1075.1</ele>
      </trkpt>
      <trkpt lat="47.27195" lon="7.57501">
        <ele>1074.9</ele>
      </trkpt>
      <trkpt lat="47.27195" lon="7.57506">
        <ele>1075</ele>
      </trkpt>
      <trkpt lat="47.27195" lon="7.57511">
        <ele>1074.9</ele>
      </trkpt>
      <trkpt lat="47.27193" lon="7.57525">
        <ele>1074</ele>
      </trkpt>
      <trkpt lat="47.27192" lon="7.57535">
        <ele>1073.3</ele>
      </trkpt>
      <trkpt lat="47.27191" lon="7.57548">
        <ele>1072.8</ele>
      </trkpt>
      <trkpt lat="47.27191" lon="7.57583">
        <ele>1072.7</ele>
      </trkpt>
      <trkpt lat="47.27193" lon="7.57634">
        <ele>1074.3</ele>
      </trkpt>
      <trkpt lat="47.27192" lon="7.57639">
        <ele>1074.3</ele>
      </trkpt>
      <trkpt lat="47.27192" lon="7.57643">
        <ele>1074.2</ele>
      </trkpt>
      <trkpt lat="47.2719" lon="7.57647">
        <ele>1073.9</ele>
      </trkpt>
      <trkpt lat="47.27189" lon="7.5765">
        <ele>1073.6</ele>
      </trkpt>
      <trkpt lat="47.27187" lon="7.57653">
        <ele>1073.1</ele>
      </trkpt>
      <trkpt lat="47.27174" lon="7.57667">
        <ele>1070.6</ele>
      </trkpt>
      <trkpt lat="47.2717" lon="7.57671">
        <ele>1070</ele>
      </trkpt>
      <trkpt lat="47.27167" lon="7.57676">
        <ele>1069.6</ele>
      </trkpt>
      <trkpt lat="47.27163" lon="7.57685">
        <ele>1068.8</ele>
      </trkpt>
      <trkpt lat="47.27159" lon="7.57696">
        <ele>1068.2</ele>
      </trkpt>
      <trkpt lat="47.27152" lon="7.57716">
        <ele>1067.4</ele>
      </trkpt>
      <trkpt lat="47.27149" lon="7.57728">
        <ele>1067.3</ele>
      </trkpt>
      <trkpt lat="47.27148" lon="7.57736">
        <ele>1067.3</ele>
      </trkpt>
      <trkpt lat="47.27147" lon="7.57743">
        <ele>1067.5</ele>
      </trkpt>
      <trkpt lat="47.27147" lon="7.57751">
        <ele>1067.8</ele>
      </trkpt>
      <trkpt lat="47.27147" lon="7.57758">
        <ele>1067.4</ele>
      </trkpt>
      <trkpt lat="47.27148" lon="7.57765">
        <ele>1067.3</ele>
      </trkpt>
      <trkpt lat="47.27149" lon="7.57774">
        <ele>1067.2</ele>
      </trkpt>
      <trkpt lat="47.27165" lon="7.57831">
        <ele>1066.9</ele>
      </trkpt>
      <trkpt lat="47.27166" lon="7.57835">
        <ele>1066.8</ele>
      </trkpt>
      <trkpt lat="47.27167" lon="7.57841">
        <ele>1066.6</ele>
      </trkpt>
      <trkpt lat="47.27167" lon="7.57846">
        <ele>1066.4</ele>
      </trkpt>
      <trkpt lat="47.27167" lon="7.57851">
        <ele>1066.1</ele>
      </trkpt>
      <trkpt lat="47.27166" lon="7.57856">
        <ele>1065.8</ele>
      </trkpt>
      <trkpt lat="47.27165" lon="7.5786">
        <ele>1065.4</ele>
      </trkpt>
      <trkpt lat="47.27164" lon="7.57865">
        <ele>1065</ele>
      </trkpt>
      <trkpt lat="47.27162" lon="7.5787">
        <ele>1064.4</ele>
      </trkpt>
      <trkpt lat="47.27159" lon="7.57875">
        <ele>1063.7</ele>
      </trkpt>
      <trkpt lat="47.27132" lon="7.57922">
        <ele>1056.2</ele>
      </trkpt>
      <trkpt lat="47.27127" lon="7.5793">
        <ele>1054.8</ele>
      </trkpt>
      <trkpt lat="47.27124" lon="7.57936">
        <ele>1053.7</ele>
      </trkpt>
      <trkpt lat="47.27122" lon="7.57941">
        <ele>1053</ele>
      </trkpt>
      <trkpt lat="47.27122" lon="7.57945">
        <ele>1052.5</ele>
      </trkpt>
      <trkpt lat="47.27121" lon="7.5795">
        <ele>1052</ele>
      </trkpt>
      <trkpt lat="47.2712" lon="7.57954">
        <ele>1051.5</ele>
      </trkpt>
      <trkpt lat="47.2712" lon="7.57961">
        <ele>1050.9</ele>
      </trkpt>
      <trkpt lat="47.2712" lon="7.57967">
        <ele>1050.4</ele>
      </trkpt>
      <trkpt lat="47.27121" lon="7.57974">
        <ele>1049.9</ele>
      </trkpt>
      <trkpt lat="47.27122" lon="7.57982">
        <ele>1049.4</ele>
      </trkpt>
      <trkpt lat="47.2713" lon="7.58029">
        <ele>1046.4</ele>
      </trkpt>
      <trkpt lat="47.27158" lon="7.58184">
        <ele>1050.8</ele>
      </trkpt>
      <trkpt lat="47.27167" lon="7.58223">
        <ele>1055.2</ele>
      </trkpt>
      <trkpt lat="47.27191" lon="7.58319">
        <ele>1048.2</ele>
      </trkpt>
      <trkpt lat="47.27193" lon="7.58327">
        <ele>1047.8</ele>
      </trkpt>
      <trkpt lat="47.27194" lon="7.58339">
        <ele>1047</ele>
      </trkpt>
      <trkpt lat="47.27196" lon="7.58351">
        <ele>1046.3</ele>
      </trkpt>
      <trkpt lat="47.27199" lon="7.58359">
        <ele>1045.7</ele>
      </trkpt>
      <trkpt lat="47.27203" lon="7.58373">
        <ele>1045.1</ele>
      </trkpt>
      <trkpt lat="47.27204" lon="7.58377">
        <ele>1045</ele>
      </trkpt>
      <trkpt lat="47.27206" lon="7.58381">
        <ele>1044.9</ele>
      </trkpt>
      <trkpt lat="47.27207" lon="7.58384">
        <ele>1044.9</ele>
      </trkpt>
      <trkpt lat="47.27209" lon="7.58386">
        <ele>1044.9</ele>
      </trkpt>
      <trkpt lat="47.2721" lon="7.58388">
        <ele>1044.9</ele>
      </trkpt>
      <trkpt lat="47.27213" lon="7.5839">
        <ele>1045</ele>
      </trkpt>
      <trkpt lat="47.27291" lon="7.58458">
        <ele>1038.6</ele>
      </trkpt>
      <trkpt lat="47.27309" lon="7.58477">
        <ele>1034.3</ele>
      </trkpt>
      <trkpt lat="47.27319" lon="7.58489">
        <ele>1031.9</ele>
      </trkpt>
      <trkpt lat="47.27327" lon="7.58499">
        <ele>1029.9</ele>
      </trkpt>
      <trkpt lat="47.27334" lon="7.58508">
        <ele>1028</ele>
      </trkpt>
      <trkpt lat="47.27339" lon="7.58515">
        <ele>1026.6</ele>
      </trkpt>
      <trkpt lat="47.27342" lon="7.58521">
        <ele>1025.6</ele>
      </trkpt>
      <trkpt lat="47.27346" lon="7.58529">
        <ele>1024.6</ele>
      </trkpt>
      <trkpt lat="47.27357" lon="7.58555">
        <ele>1021.9</ele>
      </trkpt>
      <trkpt lat="47.27358" lon="7.58557">
        <ele>1021.5</ele>
      </trkpt>
      <trkpt lat="47.27359" lon="7.58558">
        <ele>1021.1</ele>
      </trkpt>
      <trkpt lat="47.27361" lon="7.58559">
        <ele>1020.5</ele>
      </trkpt>
      <trkpt lat="47.27363" lon="7.58559">
        <ele>1019.9</ele>
      </trkpt>
      <trkpt lat="47.27363" lon="7.58564">
        <ele>1020.1</ele>
      </trkpt>
      <trkpt lat="47.27364" lon="7.58571">
        <ele>1019.9</ele>
      </trkpt>
      <trkpt lat="47.27368" lon="7.58584">
        <ele>1019.1</ele>
      </trkpt>
      <trkpt lat="47.27374" lon="7.58596">
        <ele>1018.5</ele>
      </trkpt>
      <trkpt lat="47.27392" lon="7.58625">
        <ele>1014.5</ele>
      </trkpt>
      <trkpt lat="47.27399" lon="7.58637">
        <ele>1012.4</ele>
      </trkpt>
      <trkpt lat="47.27404" lon="7.58648">
        <ele>1010.8</ele>
      </trkpt>
      <trkpt lat="47.27409" lon="7.58667">
        <ele>1009.8</ele>
      </trkpt>
      <trkpt lat="47.2743" lon="7.58732">
        <ele>1007.1</ele>
      </trkpt>
      <trkpt lat="47.27444" lon="7.58778">
        <ele>1006.8</ele>
      </trkpt>
      <trkpt lat="47.27456" lon="7.58845">
        <ele>1007.5</ele>
      </trkpt>
      <trkpt lat="47.27476" lon="7.58917">
        <ele>1003.1</ele>
      </trkpt>
      <trkpt lat="47.27487" lon="7.58944">
        <ele>1001.1</ele>
      </trkpt>
      <trkpt lat="47.27515" lon="7.59032">
        <ele>998.4</ele>
      </trkpt>
      <trkpt lat="47.27526" lon="7.59077">
        <ele>997.8</ele>
      </trkpt>
      <trkpt lat="47.27532" lon="7.59096">
        <ele>997.2</ele>
      </trkpt>
      <trkpt lat="47.2758" lon="7.59229">
        <ele>991.1</ele>
      </trkpt>
      <trkpt lat="47.27597" lon="7.59265">
        <ele>989.2</ele>
      </trkpt>
      <trkpt lat="47.27641" lon="7.59336">
        <ele>985.3</ele>
      </trkpt>
      <trkpt lat="47.27715" lon="7.59471">
        <ele>983.5</ele>
      </trkpt>
      <trkpt lat="47.27755" lon="7.59553">
        <ele>980.7</ele>
      </trkpt>
      <trkpt lat="47.27755" lon="7.59563">
        <ele>980.7</ele>
      </trkpt>
      <trkpt lat="47.27758" lon="7.59677">
        <ele>985.9</ele>
      </trkpt>
      <trkpt lat="47.27759" lon="7.59692">
        <ele>986.3</ele>
      </trkpt>
      <trkpt lat="47.27761" lon="7.59704">
        <ele>986.6</ele>
      </trkpt>
      <trkpt lat="47.27762" lon="7.59712">
        <ele>986.8</ele>
      </trkpt>
      <trkpt lat="47.27765" lon="7.59723">
        <ele>987.1</ele>
      </trkpt>
      <trkpt lat="47.27767" lon="7.59732">
        <ele>987.4</ele>
      </trkpt>
      <trkpt lat="47.2777" lon="7.59739">
        <ele>987.6</ele>
      </trkpt>
      <trkpt lat="47.27848" lon="7.59907">
        <ele>998.5</ele>
      </trkpt>
      <trkpt lat="47.27872" lon="7.59962">
        <ele>1005.3</ele>
      </trkpt>
      <trkpt lat="47.2788" lon="7.59978">
        <ele>1007.5</ele>
      </trkpt>
      <trkpt lat="47.27883" lon="7.59985">
        <ele>1008.4</ele>
      </trkpt>
      <trkpt lat="47.27884" lon="7.59989">
        <ele>1009</ele>
      </trkpt>
      <trkpt lat="47.27886" lon="7.59994">
        <ele>1009.6</ele>
      </trkpt>
      <trkpt lat="47.27887" lon="7.59999">
        <ele>1010.1</ele>
      </trkpt>
      <trkpt lat="47.27887" lon="7.60004">
        <ele>1010.7</ele>
      </trkpt>
      <trkpt lat="47.27887" lon="7.60008">
        <ele>1011.1</ele>
      </trkpt>
      <trkpt lat="47.27887" lon="7.60012">
        <ele>1011.6</ele>
      </trkpt>
      <trkpt lat="47.27886" lon="7.60015">
        <ele>1011.9</ele>
      </trkpt>
      <trkpt lat="47.27876" lon="7.60042">
        <ele>1014.6</ele>
      </trkpt>
      <trkpt lat="47.27885" lon="7.60066">
        <ele>1017.5</ele>
      </trkpt>
      <trkpt lat="47.27853" lon="7.60097">
        <ele>1019.7</ele>
      </trkpt>
      <trkpt lat="47.27842" lon="7.60121">
        <ele>1022</ele>
      </trkpt>
      <trkpt lat="47.27836" lon="7.60137">
        <ele>1023.1</ele>
      </trkpt>
      <trkpt lat="47.27827" lon="7.60163">
        <ele>1025</ele>
      </trkpt>
      <trkpt lat="47.27803" lon="7.60252">
        <ele>1030.2</ele>
      </trkpt>
      <trkpt lat="47.27793" lon="7.6029">
        <ele>1031.8</ele>
      </trkpt>
      <trkpt lat="47.27789" lon="7.60308">
        <ele>1032.7</ele>
      </trkpt>
      <trkpt lat="47.27783" lon="7.60337">
        <ele>1034.2</ele>
      </trkpt>
      <trkpt lat="47.27779" lon="7.60372">
        <ele>1037.2</ele>
      </trkpt>
      <trkpt lat="47.27777" lon="7.60384">
        <ele>1038.1</ele>
      </trkpt>
      <trkpt lat="47.27775" lon="7.6039">
        <ele>1038.5</ele>
      </trkpt>
      <trkpt lat="47.27772" lon="7.60397">
        <ele>1038.8</ele>
      </trkpt>
      <trkpt lat="47.27784" lon="7.60431">
        <ele>1043.9</ele>
      </trkpt>
      <trkpt lat="47.27789" lon="7.60449">
        <ele>1046.3</ele>
      </trkpt>
      <trkpt lat="47.2779" lon="7.60453">
        <ele>1046.8</ele>
      </trkpt>
      <trkpt lat="47.2779" lon="7.6046">
        <ele>1047.5</ele>
      </trkpt>
      <trkpt lat="47.2779" lon="7.60468">
        <ele>1048.3</ele>
      </trkpt>
      <trkpt lat="47.2779" lon="7.60479">
        <ele>1049.3</ele>
      </trkpt>
      <trkpt lat="47.27792" lon="7.60522">
        <ele>1051.6</ele>
      </trkpt>
      <trkpt lat="47.27794" lon="7.60566">
        <ele>1051.7</ele>
      </trkpt>
      <trkpt lat="47.27795" lon="7.60654">
        <ele>1051.8</ele>
      </trkpt>
      <trkpt lat="47.27799" lon="7.60739">
        <ele>1055.8</ele>
      </trkpt>
      <trkpt lat="47.27805" lon="7.60846">
        <ele>1051.8</ele>
      </trkpt>
      <trkpt lat="47.2781" lon="7.60921">
        <ele>1047.3</ele>
      </trkpt>
      <trkpt lat="47.27811" lon="7.60935">
        <ele>1045.5</ele>
      </trkpt>
      <trkpt lat="47.2781" lon="7.60942">
        <ele>1044.6</ele>
      </trkpt>
      <trkpt lat="47.2781" lon="7.60949">
        <ele>1043.9</ele>
      </trkpt>
      <trkpt lat="47.27809" lon="7.60953">
        <ele>1043.5</ele>
      </trkpt>
      <trkpt lat="47.27807" lon="7.60958">
        <ele>1043.1</ele>
      </trkpt>
      <trkpt lat="47.27806" lon="7.60962">
        <ele>1042.8</ele>
      </trkpt>
      <trkpt lat="47.27802" lon="7.60971">
        <ele>1042.5</ele>
      </trkpt>
      <trkpt lat="47.27792" lon="7.60988">
        <ele>1042.2</ele>
      </trkpt>
      <trkpt lat="47.27787" lon="7.61">
        <ele>1042</ele>
      </trkpt>
      <trkpt lat="47.27775" lon="7.61026">
        <ele>1043.5</ele>
      </trkpt>
      <trkpt lat="47.27766" lon="7.61047">
        <ele>1045.2</ele>
      </trkpt>
      <trkpt lat="47.27762" lon="7.61057">
        <ele>1046.2</ele>
      </trkpt>
      <trkpt lat="47.27759" lon="7.61069">
        <ele>1047.1</ele>
      </trkpt>
      <trkpt lat="47.2775" lon="7.61103">
        <ele>1049.7</ele>
      </trkpt>
      <trkpt lat="47.27745" lon="7.61124">
        <ele>1052.1</ele>
      </trkpt>
      <trkpt lat="47.2774" lon="7.61148">
        <ele>1054.4</ele>
      </trkpt>
      <trkpt lat="47.27738" lon="7.61159">
        <ele>1055.4</ele>
      </trkpt>
      <trkpt lat="47.27737" lon="7.6117">
        <ele>1055.8</ele>
      </trkpt>
      <trkpt lat="47.27737" lon="7.61183">
        <ele>1055.8</ele>
      </trkpt>
      <trkpt lat="47.27737" lon="7.61288">
        <ele>1054.9</ele>
      </trkpt>
      <trkpt lat="47.27743" lon="7.61388">
        <ele>1051.6</ele>
      </trkpt>
      <trkpt lat="47.27741" lon="7.61448">
        <ele>1052.4</ele>
      </trkpt>
      <trkpt lat="47.27745" lon="7.61534">
        <ele>1049.2</ele>
      </trkpt>
      <trkpt lat="47.2775" lon="7.61591">
        <ele>1047.7</ele>
      </trkpt>
      <trkpt lat="47.27753" lon="7.61621">
        <ele>1051.6</ele>
      </trkpt>
      <trkpt lat="47.2776" lon="7.61667">
        <ele>1056.3</ele>
      </trkpt>
      <trkpt lat="47.27767" lon="7.61708">
        <ele>1056.6</ele>
      </trkpt>
      <trkpt lat="47.2777" lon="7.6173">
        <ele>1057</ele>
      </trkpt>
      <trkpt lat="47.27775" lon="7.61787">
        <ele>1058.7</ele>
      </trkpt>
      <trkpt lat="47.2778" lon="7.61828">
        <ele>1059.6</ele>
      </trkpt>
      <trkpt lat="47.27785" lon="7.61878">
        <ele>1060.1</ele>
      </trkpt>
      <trkpt lat="47.27791" lon="7.61923">
        <ele>1059.1</ele>
      </trkpt>
      <trkpt lat="47.27801" lon="7.61999">
        <ele>1058.6</ele>
      </trkpt>
      <trkpt lat="47.2781" lon="7.62075">
        <ele>1063.5</ele>
      </trkpt>
      <trkpt lat="47.27813" lon="7.62108">
        <ele>1064.3</ele>
      </trkpt>
      <trkpt lat="47.27819" lon="7.62182">
        <ele>1065.9</ele>
      </trkpt>
      <trkpt lat="47.27829" lon="7.62279">
        <ele>1064.8</ele>
      </trkpt>
      <trkpt lat="47.2783" lon="7.62286">
        <ele>1064.9</ele>
      </trkpt>
      <trkpt lat="47.27831" lon="7.62292">
        <ele>1065</ele>
      </trkpt>
      <trkpt lat="47.27832" lon="7.62306">
        <ele>1065.7</ele>
      </trkpt>
      <trkpt lat="47.27833" lon="7.62323">
        <ele>1066.3</ele>
      </trkpt>
      <trkpt lat="47.27864" lon="7.62559">
        <ele>1075.5</ele>
      </trkpt>
      <trkpt lat="47.27872" lon="7.62633">
        <ele>1077.1</ele>
      </trkpt>
      <trkpt lat="47.27875" lon="7.62723">
        <ele>1079.7</ele>
      </trkpt>
      <trkpt lat="47.27885" lon="7.63026">
        <ele>1086.9</ele>
      </trkpt>
      <trkpt lat="47.27886" lon="7.63041">
        <ele>1087.4</ele>
      </trkpt>
      <trkpt lat="47.27885" lon="7.63061">
        <ele>1088.2</ele>
      </trkpt>
      <trkpt lat="47.27878" lon="7.63164">
        <ele>1089.9</ele>
      </trkpt>
      <trkpt lat="47.27877" lon="7.63245">
        <ele>1097.3</ele>
      </trkpt>
      <trkpt lat="47.27876" lon="7.63349">
        <ele>1095.9</ele>
      </trkpt>
      <trkpt lat="47.27874" lon="7.6341">
        <ele>1092</ele>
      </trkpt>
      <trkpt lat="47.27875" lon="7.63416">
        <ele>1091.6</ele>
      </trkpt>
      <trkpt lat="47.27875" lon="7.63422">
        <ele>1091.3</ele>
      </trkpt>
      <trkpt lat="47.27878" lon="7.6343">
        <ele>1090.9</ele>
      </trkpt>
      <trkpt lat="47.27876" lon="7.63434">
        <ele>1090.9</ele>
      </trkpt>
      <trkpt lat="47.27875" lon="7.63438">
        <ele>1090.9</ele>
      </trkpt>
      <trkpt lat="47.27873" lon="7.63444">
        <ele>1090.8</ele>
      </trkpt>
      <trkpt lat="47.2782" lon="7.63674">
        <ele>1068.8</ele>
      </trkpt>
      <trkpt lat="47.27818" lon="7.63679">
        <ele>1068.2</ele>
      </trkpt>
      <trkpt lat="47.27817" lon="7.63682">
        <ele>1067.8</ele>
      </trkpt>
      <trkpt lat="47.2782" lon="7.63691">
        <ele>1068.3</ele>
      </trkpt>
      <trkpt lat="47.27821" lon="7.63695">
        <ele>1068.7</ele>
      </trkpt>
      <trkpt lat="47.27822" lon="7.63698">
        <ele>1068.9</ele>
      </trkpt>
      <trkpt lat="47.27823" lon="7.637">
        <ele>1069.3</ele>
      </trkpt>
      <trkpt lat="47.27826" lon="7.63707">
        <ele>1070.1</ele>
      </trkpt>
      <trkpt lat="47.27854" lon="7.63782">
        <ele>1074.9</ele>
      </trkpt>
      <trkpt lat="47.27879" lon="7.63861">
        <ele>1077.9</ele>
      </trkpt>
      <trkpt lat="47.27898" lon="7.63921">
        <ele>1081.4</ele>
      </trkpt>
      <trkpt lat="47.27905" lon="7.63938">
        <ele>1082.7</ele>
      </trkpt>
      <trkpt lat="47.27911" lon="7.63957">
        <ele>1083.8</ele>
      </trkpt>
      <trkpt lat="47.27913" lon="7.63976">
        <ele>1084.2</ele>
      </trkpt>
      <trkpt lat="47.27921" lon="7.64032">
        <ele>1085.4</ele>
      </trkpt>
      <trkpt lat="47.27925" lon="7.64048">
        <ele>1086.6</ele>
      </trkpt>
      <trkpt lat="47.27933" lon="7.64081">
        <ele>1088.7</ele>
      </trkpt>
      <trkpt lat="47.27951" lon="7.64187">
        <ele>1092.5</ele>
      </trkpt>
      <trkpt lat="47.27953" lon="7.64198">
        <ele>1092.8</ele>
      </trkpt>
      <trkpt lat="47.27957" lon="7.64218">
        <ele>1093.3</ele>
      </trkpt>
      <trkpt lat="47.2796" lon="7.64249">
        <ele>1093.3</ele>
      </trkpt>
      <trkpt lat="47.27966" lon="7.64281">
        <ele>1094.9</ele>
      </trkpt>
      <trkpt lat="47.27966" lon="7.64284">
        <ele>1095.1</ele>
      </trkpt>
      <trkpt lat="47.27967" lon="7.64287">
        <ele>1095.2</ele>
      </trkpt>
      <trkpt lat="47.27967" lon="7.64291">
        <ele>1095.5</ele>
      </trkpt>
      <trkpt lat="47.27972" lon="7.64302">
        <ele>1097.4</ele>
      </trkpt>
      <trkpt lat="47.2798" lon="7.64327">
        <ele>1100</ele>
      </trkpt>
      <trkpt lat="47.27989" lon="7.64344">
        <ele>1103.9</ele>
      </trkpt>
      <trkpt lat="47.27998" lon="7.64359">
        <ele>1107.6</ele>
      </trkpt>
      <trkpt lat="47.28012" lon="7.64396">
        <ele>1117.2</ele>
      </trkpt>
      <trkpt lat="47.28027" lon="7.64447">
        <ele>1127.3</ele>
      </trkpt>
      <trkpt lat="47.28036" lon="7.64478">
        <ele>1132.7</ele>
      </trkpt>
      <trkpt lat="47.28039" lon="7.64494">
        <ele>1134.9</ele>
      </trkpt>
      <trkpt lat="47.28041" lon="7.64518">
        <ele>1137</ele>
      </trkpt>
      <trkpt lat="47.2805" lon="7.64541">
        <ele>1142.7</ele>
      </trkpt>
      <trkpt lat="47.28057" lon="7.64551">
        <ele>1146.7</ele>
      </trkpt>
      <trkpt lat="47.28065" lon="7.64561">
        <ele>1151.4</ele>
      </trkpt>
      <trkpt lat="47.28067" lon="7.64566">
        <ele>1152.5</ele>
      </trkpt>
      <trkpt lat="47.28066" lon="7.64577">
        <ele>1152.7</ele>
      </trkpt>
      <trkpt lat="47.28069" lon="7.64587">
        <ele>1154.3</ele>
      </trkpt>
      <trkpt lat="47.28071" lon="7.64603">
        <ele>1154.5</ele>
      </trkpt>
      <trkpt lat="47.28075" lon="7.64617">
        <ele>1155.9</ele>
      </trkpt>
      <trkpt lat="47.28076" lon="7.64641">
        <ele>1155.5</ele>
      </trkpt>
      <trkpt lat="47.2808" lon="7.6468">
        <ele>1155</ele>
      </trkpt>
      <trkpt lat="47.28082" lon="7.64695">
        <ele>1155</ele>
      </trkpt>
      <trkpt lat="47.28086" lon="7.64718">
        <ele>1155.4</ele>
      </trkpt>
      <trkpt lat="47.28092" lon="7.64749">
        <ele>1156.5</ele>
      </trkpt>
      <trkpt lat="47.28101" lon="7.6478">
        <ele>1157.6</ele>
      </trkpt>
      <trkpt lat="47.28105" lon="7.64814">
        <ele>1155.5</ele>
      </trkpt>
      <trkpt lat="47.28107" lon="7.64822">
        <ele>1155.9</ele>
      </trkpt>
      <trkpt lat="47.28121" lon="7.64857">
        <ele>1159.9</ele>
      </trkpt>
      <trkpt lat="47.28124" lon="7.64863">
        <ele>1161.5</ele>
      </trkpt>
      <trkpt lat="47.28127" lon="7.64866">
        <ele>1162.7</ele>
      </trkpt>
      <trkpt lat="47.2813" lon="7.64868">
        <ele>1164.7</ele>
      </trkpt>
      <trkpt lat="47.28128" lon="7.64855">
        <ele>1165.5</ele>
      </trkpt>
      <trkpt lat="47.28129" lon="7.64853">
        <ele>1166.2</ele>
      </trkpt>
      <trkpt lat="47.28138" lon="7.64865">
        <ele>1170.5</ele>
      </trkpt>
      <trkpt lat="47.28141" lon="7.64873">
        <ele>1171.3</ele>
      </trkpt>
      <trkpt lat="47.28147" lon="7.64885">
        <ele>1173.6</ele>
      </trkpt>
      <trkpt lat="47.28152" lon="7.64891">
        <ele>1176.1</ele>
      </trkpt>
      <trkpt lat="47.28152" lon="7.64884">
        <ele>1177.2</ele>
      </trkpt>
      <trkpt lat="47.28151" lon="7.64872">
        <ele>1178.4</ele>
      </trkpt>
      <trkpt lat="47.28154" lon="7.64874">
        <ele>1180.2</ele>
      </trkpt>
      <trkpt lat="47.28157" lon="7.6488">
        <ele>1181</ele>
      </trkpt>
      <trkpt lat="47.28157" lon="7.6487">
        <ele>1182.6</ele>
      </trkpt>
      <trkpt lat="47.2816" lon="7.64874">
        <ele>1184.2</ele>
      </trkpt>
      <trkpt lat="47.28162" lon="7.64878">
        <ele>1184.8</ele>
      </trkpt>
      <trkpt lat="47.28165" lon="7.6489">
        <ele>1185.5</ele>
      </trkpt>
      <trkpt lat="47.28171" lon="7.64898">
        <ele>1186.7</ele>
      </trkpt>
      <trkpt lat="47.2817" lon="7.64889">
        <ele>1187.8</ele>
      </trkpt>
      <trkpt lat="47.28175" lon="7.64896">
        <ele>1188.3</ele>
      </trkpt>
      <trkpt lat="47.28176" lon="7.64901">
        <ele>1188.1</ele>
      </trkpt>
      <trkpt lat="47.28175" lon="7.64907">
        <ele>1187.2</ele>
      </trkpt>
      <trkpt lat="47.28175" lon="7.64912">
        <ele>1186.4</ele>
      </trkpt>
      <trkpt lat="47.28176" lon="7.64915">
        <ele>1186.4</ele>
      </trkpt>
      <trkpt lat="47.28181" lon="7.64916">
        <ele>1188</ele>
      </trkpt>
      <trkpt lat="47.28185" lon="7.6492">
        <ele>1189</ele>
      </trkpt>
      <trkpt lat="47.28189" lon="7.64926">
        <ele>1189.1</ele>
      </trkpt>
      <trkpt lat="47.28193" lon="7.64941">
        <ele>1188.1</ele>
      </trkpt>
      <trkpt lat="47.28208" lon="7.64961">
        <ele>1191.5</ele>
      </trkpt>
      <trkpt lat="47.28216" lon="7.64975">
        <ele>1193.9</ele>
      </trkpt>
      <trkpt lat="47.28233" lon="7.64991">
        <ele>1200.9</ele>
      </trkpt>
      <trkpt lat="47.28242" lon="7.64996">
        <ele>1205.1</ele>
      </trkpt>
      <trkpt lat="47.28248" lon="7.64998">
        <ele>1207.9</ele>
      </trkpt>
      <trkpt lat="47.28254" lon="7.64997">
        <ele>1207.9</ele>
      </trkpt>
      <trkpt lat="47.28283" lon="7.65109">
        <ele>1193.3</ele>
      </trkpt>
      <trkpt lat="47.28289" lon="7.6512">
        <ele>1192.1</ele>
      </trkpt>
      <trkpt lat="47.28294" lon="7.65138">
        <ele>1190.8</ele>
      </trkpt>
      <trkpt lat="47.28303" lon="7.65161">
        <ele>1190.2</ele>
      </trkpt>
      <trkpt lat="47.2832" lon="7.65207">
        <ele>1188.4</ele>
      </trkpt>
      <trkpt lat="47.28333" lon="7.65255">
        <ele>1188.7</ele>
      </trkpt>
      <trkpt lat="47.28336" lon="7.65265">
        <ele>1187.6</ele>
      </trkpt>
      <trkpt lat="47.28342" lon="7.65275">
        <ele>1186.2</ele>
      </trkpt>
      <trkpt lat="47.28344" lon="7.65288">
        <ele>1185.3</ele>
      </trkpt>
      <trkpt lat="47.2835" lon="7.65304">
        <ele>1184.1</ele>
      </trkpt>
      <trkpt lat="47.28356" lon="7.6532">
        <ele>1183.1</ele>
      </trkpt>
      <trkpt lat="47.28358" lon="7.65333">
        <ele>1182.9</ele>
      </trkpt>
      <trkpt lat="47.28363" lon="7.65366">
        <ele>1178.7</ele>
      </trkpt>
      <trkpt lat="47.28367" lon="7.65383">
        <ele>1177.1</ele>
      </trkpt>
      <trkpt lat="47.28369" lon="7.65402">
        <ele>1175.6</ele>
      </trkpt>
      <trkpt lat="47.28375" lon="7.65416">
        <ele>1175.6</ele>
      </trkpt>
      <trkpt lat="47.28377" lon="7.65427">
        <ele>1173.7</ele>
      </trkpt>
      <trkpt lat="47.28384" lon="7.6544">
        <ele>1173.7</ele>
      </trkpt>
      <trkpt lat="47.28387" lon="7.65451">
        <ele>1173.6</ele>
      </trkpt>
      <trkpt lat="47.28394" lon="7.6546">
        <ele>1175.4</ele>
      </trkpt>
      <trkpt lat="47.28401" lon="7.65473">
        <ele>1178.2</ele>
      </trkpt>
      <trkpt lat="47.28408" lon="7.65499">
        <ele>1182.1</ele>
      </trkpt>
      <trkpt lat="47.2841" lon="7.65509">
        <ele>1181.4</ele>
      </trkpt>
      <trkpt lat="47.28432" lon="7.65565">
        <ele>1176.5</ele>
      </trkpt>
      <trkpt lat="47.28437" lon="7.65573">
        <ele>1175.3</ele>
      </trkpt>
      <trkpt lat="47.28444" lon="7.65581">
        <ele>1174.2</ele>
      </trkpt>
      <trkpt lat="47.28453" lon="7.65595">
        <ele>1170.6</ele>
      </trkpt>
      <trkpt lat="47.28459" lon="7.65625">
        <ele>1164.1</ele>
      </trkpt>
      <trkpt lat="47.28461" lon="7.65632">
        <ele>1162.9</ele>
      </trkpt>
      <trkpt lat="47.28473" lon="7.65655">
        <ele>1161.5</ele>
      </trkpt>
      <trkpt lat="47.28476" lon="7.65668">
        <ele>1160.5</ele>
      </trkpt>
      <trkpt lat="47.28473" lon="7.65678">
        <ele>1158.6</ele>
      </trkpt>
      <trkpt lat="47.28489" lon="7.65715">
        <ele>1164</ele>
      </trkpt>
      <trkpt lat="47.28497" lon="7.65731">
        <ele>1168.9</ele>
      </trkpt>
      <trkpt lat="47.28503" lon="7.65749">
        <ele>1170.5</ele>
      </trkpt>
      <trkpt lat="47.28508" lon="7.65765">
        <ele>1165</ele>
      </trkpt>
      <trkpt lat="47.28509" lon="7.65774">
        <ele>1162.1</ele>
      </trkpt>
      <trkpt lat="47.2851" lon="7.65777">
        <ele>1161.2</ele>
      </trkpt>
      <trkpt lat="47.28521" lon="7.65798">
        <ele>1155</ele>
      </trkpt>
      <trkpt lat="47.28525" lon="7.65805">
        <ele>1153.3</ele>
      </trkpt>
      <trkpt lat="47.28528" lon="7.65808">
        <ele>1152.7</ele>
      </trkpt>
      <trkpt lat="47.28531" lon="7.65806">
        <ele>1153.4</ele>
      </trkpt>
      <trkpt lat="47.28536" lon="7.65806">
        <ele>1153.7</ele>
      </trkpt>
      <trkpt lat="47.28544" lon="7.6581">
        <ele>1153.5</ele>
      </trkpt>
      <trkpt lat="47.2855" lon="7.65825">
        <ele>1151.7</ele>
      </trkpt>
      <trkpt lat="47.28556" lon="7.65832">
        <ele>1151.6</ele>
      </trkpt>
      <trkpt lat="47.28558" lon="7.65839">
        <ele>1150.4</ele>
      </trkpt>
      <trkpt lat="47.28562" lon="7.65847">
        <ele>1149.6</ele>
      </trkpt>
      <trkpt lat="47.2857" lon="7.65856">
        <ele>1149.6</ele>
      </trkpt>
      <trkpt lat="47.28575" lon="7.65866">
        <ele>1149.2</ele>
      </trkpt>
      <trkpt lat="47.28593" lon="7.65887">
        <ele>1147.6</ele>
      </trkpt>
      <trkpt lat="47.28598" lon="7.659">
        <ele>1145.7</ele>
      </trkpt>
      <trkpt lat="47.28602" lon="7.65918">
        <ele>1143.6</ele>
      </trkpt>
      <trkpt lat="47.28607" lon="7.65931">
        <ele>1141.2</ele>
      </trkpt>
      <trkpt lat="47.28613" lon="7.65944">
        <ele>1139.4</ele>
      </trkpt>
      <trkpt lat="47.28625" lon="7.65961">
        <ele>1137.7</ele>
      </trkpt>
      <trkpt lat="47.28632" lon="7.65981">
        <ele>1136.5</ele>
      </trkpt>
      <trkpt lat="47.28637" lon="7.65986">
        <ele>1136.8</ele>
      </trkpt>
      <trkpt lat="47.28644" lon="7.6599">
        <ele>1137.4</ele>
      </trkpt>
      <trkpt lat="47.2865" lon="7.66006">
        <ele>1137.3</ele>
      </trkpt>
      <trkpt lat="47.28661" lon="7.66023">
        <ele>1138.3</ele>
      </trkpt>
      <trkpt lat="47.28665" lon="7.6605">
        <ele>1138.1</ele>
      </trkpt>
      <trkpt lat="47.28669" lon="7.66059">
        <ele>1137.7</ele>
      </trkpt>
      <trkpt lat="47.28669" lon="7.6607">
        <ele>1137.2</ele>
      </trkpt>
      <trkpt lat="47.28678" lon="7.66083">
        <ele>1135.3</ele>
      </trkpt>
      <trkpt lat="47.28683" lon="7.66093">
        <ele>1132.2</ele>
      </trkpt>
      <trkpt lat="47.28681" lon="7.66105">
        <ele>1129.3</ele>
      </trkpt>
      <trkpt lat="47.28684" lon="7.66116">
        <ele>1126.6</ele>
      </trkpt>
      <trkpt lat="47.28696" lon="7.66129">
        <ele>1123.5</ele>
      </trkpt>
      <trkpt lat="47.28705" lon="7.66144">
        <ele>1121.2</ele>
      </trkpt>
      <trkpt lat="47.28712" lon="7.66151">
        <ele>1120.7</ele>
      </trkpt>
      <trkpt lat="47.2872" lon="7.66158">
        <ele>1120.5</ele>
      </trkpt>
      <trkpt lat="47.28725" lon="7.66174">
        <ele>1118.9</ele>
      </trkpt>
      <trkpt lat="47.28726" lon="7.66188">
        <ele>1116.1</ele>
      </trkpt>
      <trkpt lat="47.28725" lon="7.66202">
        <ele>1112.8</ele>
      </trkpt>
      <trkpt lat="47.28722" lon="7.66211">
        <ele>1109.8</ele>
      </trkpt>
      <trkpt lat="47.2872" lon="7.66218">
        <ele>1107.8</ele>
      </trkpt>
      <trkpt lat="47.28715" lon="7.66234">
        <ele>1102.2</ele>
      </trkpt>
      <trkpt lat="47.28714" lon="7.66243">
        <ele>1100</ele>
      </trkpt>
      <trkpt lat="47.28717" lon="7.66252">
        <ele>1098.6</ele>
      </trkpt>
      <trkpt lat="47.28716" lon="7.66282">
        <ele>1089.2</ele>
      </trkpt>
      <trkpt lat="47.28717" lon="7.66288">
        <ele>1088.1</ele>
      </trkpt>
      <trkpt lat="47.28718" lon="7.6629">
        <ele>1087.6</ele>
      </trkpt>
      <trkpt lat="47.2872" lon="7.66294">
        <ele>1087.3</ele>
      </trkpt>
      <trkpt lat="47.28742" lon="7.66308">
        <ele>1091.9</ele>
      </trkpt>
      <trkpt lat="47.28738" lon="7.66315">
        <ele>1088.4</ele>
      </trkpt>
      <trkpt lat="47.28729" lon="7.66321">
        <ele>1082.7</ele>
      </trkpt>
      <trkpt lat="47.28723" lon="7.66328">
        <ele>1078.4</ele>
      </trkpt>
      <trkpt lat="47.28739" lon="7.6634">
        <ele>1081.6</ele>
      </trkpt>
      <trkpt lat="47.28752" lon="7.66341">
        <ele>1085.9</ele>
      </trkpt>
      <trkpt lat="47.28763" lon="7.66341">
        <ele>1087.5</ele>
      </trkpt>
      <trkpt lat="47.28777" lon="7.66347">
        <ele>1087.7</ele>
      </trkpt>
      <trkpt lat="47.28783" lon="7.6635">
        <ele>1087.8</ele>
      </trkpt>
      <trkpt lat="47.28796" lon="7.6636">
        <ele>1087.1</ele>
      </trkpt>
      <trkpt lat="47.28809" lon="7.66371">
        <ele>1086.5</ele>
      </trkpt>
      <trkpt lat="47.28819" lon="7.66388">
        <ele>1084.4</ele>
      </trkpt>
      <trkpt lat="47.28826" lon="7.66403">
        <ele>1082.5</ele>
      </trkpt>
      <trkpt lat="47.28828" lon="7.66416">
        <ele>1080</ele>
      </trkpt>
      <trkpt lat="47.28827" lon="7.6643">
        <ele>1077.1</ele>
      </trkpt>
      <trkpt lat="47.28826" lon="7.66444">
        <ele>1074.4</ele>
      </trkpt>
      <trkpt lat="47.28829" lon="7.66451">
        <ele>1074.1</ele>
      </trkpt>
      <trkpt lat="47.28839" lon="7.66462">
        <ele>1074.6</ele>
      </trkpt>
      <trkpt lat="47.28845" lon="7.66474">
        <ele>1074.2</ele>
      </trkpt>
      <trkpt lat="47.28852" lon="7.66485">
        <ele>1074.4</ele>
      </trkpt>
      <trkpt lat="47.28857" lon="7.665">
        <ele>1074.3</ele>
      </trkpt>
      <trkpt lat="47.2886" lon="7.66516">
        <ele>1072.2</ele>
      </trkpt>
      <trkpt lat="47.28864" lon="7.66549">
        <ele>1068.3</ele>
      </trkpt>
      <trkpt lat="47.28866" lon="7.66557">
        <ele>1067.6</ele>
      </trkpt>
      <trkpt lat="47.28869" lon="7.6657">
        <ele>1066.9</ele>
      </trkpt>
      <trkpt lat="47.2888" lon="7.66603">
        <ele>1066.9</ele>
      </trkpt>
      <trkpt lat="47.28897" lon="7.6665">
        <ele>1069.2</ele>
      </trkpt>
      <trkpt lat="47.28905" lon="7.66686">
        <ele>1068.1</ele>
      </trkpt>
      <trkpt lat="47.28911" lon="7.66701">
        <ele>1068.4</ele>
      </trkpt>
      <trkpt lat="47.28937" lon="7.66758">
        <ele>1063.5</ele>
      </trkpt>
      <trkpt lat="47.2895" lon="7.66786">
        <ele>1061.6</ele>
      </trkpt>
      <trkpt lat="47.28965" lon="7.66823">
        <ele>1058.5</ele>
      </trkpt>
      <trkpt lat="47.28971" lon="7.66842">
        <ele>1057.8</ele>
      </trkpt>
      <trkpt lat="47.28978" lon="7.66872">
        <ele>1057.9</ele>
      </trkpt>
      <trkpt lat="47.28984" lon="7.66888">
        <ele>1057.9</ele>
      </trkpt>
      <trkpt lat="47.29008" lon="7.66941">
        <ele>1056.2</ele>
      </trkpt>
      <trkpt lat="47.29031" lon="7.66991">
        <ele>1051.9</ele>
      </trkpt>
      <trkpt lat="47.29065" lon="7.67056">
        <ele>1046.6</ele>
      </trkpt>
      <trkpt lat="47.29073" lon="7.67074">
        <ele>1044.6</ele>
      </trkpt>
      <trkpt lat="47.29076" lon="7.67083">
        <ele>1043.6</ele>
      </trkpt>
      <trkpt lat="47.29079" lon="7.67098">
        <ele>1041.9</ele>
      </trkpt>
      <trkpt lat="47.29087" lon="7.67115">
        <ele>1038.9</ele>
      </trkpt>
      <trkpt lat="47.29103" lon="7.67145">
        <ele>1033.2</ele>
      </trkpt>
      <trkpt lat="47.2911" lon="7.67165">
        <ele>1030</ele>
      </trkpt>
      <trkpt lat="47.29114" lon="7.67175">
        <ele>1028.6</ele>
      </trkpt>
      <trkpt lat="47.29117" lon="7.6719">
        <ele>1027.2</ele>
      </trkpt>
      <trkpt lat="47.29118" lon="7.67208">
        <ele>1025.9</ele>
      </trkpt>
      <trkpt lat="47.29119" lon="7.67309">
        <ele>1021.7</ele>
      </trkpt>
      <trkpt lat="47.29117" lon="7.67336">
        <ele>1021</ele>
      </trkpt>
      <trkpt lat="47.29116" lon="7.67354">
        <ele>1020.1</ele>
      </trkpt>
      <trkpt lat="47.29118" lon="7.67363">
        <ele>1019.2</ele>
      </trkpt>
      <trkpt lat="47.29118" lon="7.67365">
        <ele>1019</ele>
      </trkpt>
      <trkpt lat="47.29119" lon="7.67368">
        <ele>1018.7</ele>
      </trkpt>
      <trkpt lat="47.2912" lon="7.67372">
        <ele>1018.2</ele>
      </trkpt>
      <trkpt lat="47.29126" lon="7.67376">
        <ele>1017</ele>
      </trkpt>
      <trkpt lat="47.29134" lon="7.67384">
        <ele>1015.2</ele>
      </trkpt>
      <trkpt lat="47.29141" lon="7.67402">
        <ele>1013.3</ele>
      </trkpt>
      <trkpt lat="47.29148" lon="7.67427">
        <ele>1011.1</ele>
      </trkpt>
      <trkpt lat="47.29155" lon="7.67446">
        <ele>1009.2</ele>
      </trkpt>
      <trkpt lat="47.29163" lon="7.67457">
        <ele>1007.6</ele>
      </trkpt>
      <trkpt lat="47.29176" lon="7.67468">
        <ele>1005.5</ele>
      </trkpt>
      <trkpt lat="47.29192" lon="7.67476">
        <ele>1003.5</ele>
      </trkpt>
      <trkpt lat="47.29202" lon="7.67481">
        <ele>1002.3</ele>
      </trkpt>
      <trkpt lat="47.29212" lon="7.6749">
        <ele>1001</ele>
      </trkpt>
      <trkpt lat="47.29221" lon="7.67504">
        <ele>1000</ele>
      </trkpt>
      <trkpt lat="47.29232" lon="7.67529">
        <ele>1000.1</ele>
      </trkpt>
      <trkpt lat="47.29245" lon="7.67558">
        <ele>999.8</ele>
      </trkpt>
      <trkpt lat="47.29269" lon="7.67606">
        <ele>997.7</ele>
      </trkpt>
      <trkpt lat="47.29274" lon="7.67618">
        <ele>997.1</ele>
      </trkpt>
      <trkpt lat="47.29276" lon="7.6762">
        <ele>996.7</ele>
      </trkpt>
      <trkpt lat="47.29288" lon="7.67603">
        <ele>994.6</ele>
      </trkpt>
      <trkpt lat="47.29289" lon="7.67598">
        <ele>994.4</ele>
      </trkpt>
      <trkpt lat="47.2929" lon="7.67589">
        <ele>994.3</ele>
      </trkpt>
      <trkpt lat="47.29292" lon="7.67576">
        <ele>993.9</ele>
      </trkpt>
      <trkpt lat="47.29304" lon="7.67533">
        <ele>992.4</ele>
      </trkpt>
      <trkpt lat="47.29318" lon="7.67472">
        <ele>991.4</ele>
      </trkpt>
      <trkpt lat="47.2932" lon="7.67461">
        <ele>991.3</ele>
      </trkpt>
      <trkpt lat="47.29321" lon="7.67453">
        <ele>991.2</ele>
      </trkpt>
      <trkpt lat="47.2932" lon="7.67448">
        <ele>991.3</ele>
      </trkpt>
      <trkpt lat="47.29317" lon="7.67437">
        <ele>991.7</ele>
      </trkpt>
      <trkpt lat="47.29312" lon="7.67416">
        <ele>992.2</ele>
      </trkpt>
      <trkpt lat="47.2931" lon="7.67392">
        <ele>990.8</ele>
      </trkpt>
      <trkpt lat="47.29306" lon="7.67296">
        <ele>983.3</ele>
      </trkpt>
      <trkpt lat="47.29303" lon="7.67281">
        <ele>982.2</ele>
      </trkpt>
      <trkpt lat="47.29297" lon="7.67264">
        <ele>982.2</ele>
      </trkpt>
      <trkpt lat="47.29295" lon="7.67256">
        <ele>982</ele>
      </trkpt>
      <trkpt lat="47.29295" lon="7.67248">
        <ele>981.4</ele>
      </trkpt>
      <trkpt lat="47.29298" lon="7.67236">
        <ele>980.1</ele>
      </trkpt>
      <trkpt lat="47.29302" lon="7.67222">
        <ele>978</ele>
      </trkpt>
      <trkpt lat="47.29305" lon="7.67202">
        <ele>976.4</ele>
      </trkpt>
      <trkpt lat="47.29306" lon="7.67175">
        <ele>975.5</ele>
      </trkpt>
      <trkpt lat="47.29306" lon="7.67155">
        <ele>975.2</ele>
      </trkpt>
      <trkpt lat="47.29313" lon="7.67107">
        <ele>973.2</ele>
      </trkpt>
      <trkpt lat="47.29325" lon="7.6712">
        <ele>968.5</ele>
      </trkpt>
      <trkpt lat="47.29332" lon="7.67137">
        <ele>965.4</ele>
      </trkpt>
      <trkpt lat="47.29336" lon="7.67152">
        <ele>964.1</ele>
      </trkpt>
      <trkpt lat="47.29342" lon="7.67162">
        <ele>961.8</ele>
      </trkpt>
      <trkpt lat="47.29351" lon="7.67172">
        <ele>958.9</ele>
      </trkpt>
      <trkpt lat="47.29359" lon="7.67196">
        <ele>957.1</ele>
      </trkpt>
      <trkpt lat="47.29366" lon="7.67205">
        <ele>955.2</ele>
      </trkpt>
      <trkpt lat="47.2937" lon="7.6721">
        <ele>954.2</ele>
      </trkpt>
      <trkpt lat="47.29373" lon="7.67218">
        <ele>953.7</ele>
      </trkpt>
      <trkpt lat="47.29381" lon="7.67233">
        <ele>952.3</ele>
      </trkpt>
      <trkpt lat="47.29396" lon="7.67256">
        <ele>949.7</ele>
      </trkpt>
      <trkpt lat="47.29411" lon="7.67278">
        <ele>945.7</ele>
      </trkpt>
      <trkpt lat="47.29447" lon="7.67315">
        <ele>934.4</ele>
      </trkpt>
      <trkpt lat="47.29453" lon="7.67327">
        <ele>932.7</ele>
      </trkpt>
      <trkpt lat="47.29459" lon="7.67328">
        <ele>930.7</ele>
      </trkpt>
      <trkpt lat="47.29453" lon="7.673">
        <ele>931.9</ele>
      </trkpt>
      <trkpt lat="47.29453" lon="7.6725">
        <ele>930.3</ele>
      </trkpt>
      <trkpt lat="47.29453" lon="7.67266">
        <ele>930.7</ele>
      </trkpt>
      <trkpt lat="47.29455" lon="7.67284">
        <ele>930.5</ele>
      </trkpt>
      <trkpt lat="47.29457" lon="7.67292">
        <ele>930.3</ele>
      </trkpt>
      <trkpt lat="47.29456" lon="7.67297">
        <ele>930.7</ele>
      </trkpt>
      <trkpt lat="47.29453" lon="7.673">
        <ele>931.9</ele>
      </trkpt>
      <trkpt lat="47.29883" lon="7.67987">
        <ele>821.9</ele>
      </trkpt>
      <trkpt lat="47.29871" lon="7.67957">
        <ele>823.1</ele>
      </trkpt>
      <trkpt lat="47.29851" lon="7.6792">
        <ele>826.6</ele>
      </trkpt>
      <trkpt lat="47.29453" lon="7.6725">
        <ele>930.3</ele>
      </trkpt>
      <trkpt lat="47.29493" lon="7.67309">
        <ele>918.4</ele>
      </trkpt>
      <trkpt lat="47.29518" lon="7.67339">
        <ele>909.8</ele>
      </trkpt>
      <trkpt lat="47.29537" lon="7.67367">
        <ele>904</ele>
      </trkpt>
      <trkpt lat="47.29551" lon="7.67397">
        <ele>900.3</ele>
      </trkpt>
      <trkpt lat="47.29556" lon="7.67427">
        <ele>900</ele>
      </trkpt>
      <trkpt lat="47.29575" lon="7.6745">
        <ele>894.3</ele>
      </trkpt>
      <trkpt lat="47.29597" lon="7.67477">
        <ele>887.1</ele>
      </trkpt>
      <trkpt lat="47.29623" lon="7.67514">
        <ele>879.5</ele>
      </trkpt>
      <trkpt lat="47.29646" lon="7.67539">
        <ele>871.9</ele>
      </trkpt>
      <trkpt lat="47.2966" lon="7.6756">
        <ele>867.5</ele>
      </trkpt>
      <trkpt lat="47.29671" lon="7.67585">
        <ele>863.9</ele>
      </trkpt>
      <trkpt lat="47.29681" lon="7.6762">
        <ele>860.3</ele>
      </trkpt>
      <trkpt lat="47.29679" lon="7.67673">
        <ele>865.4</ele>
      </trkpt>
      <trkpt lat="47.29678" lon="7.67679">
        <ele>866.6</ele>
      </trkpt>
      <trkpt lat="47.2968" lon="7.67684">
        <ele>866.7</ele>
      </trkpt>
      <trkpt lat="47.29682" lon="7.67688">
        <ele>866.2</ele>
      </trkpt>
      <trkpt lat="47.29692" lon="7.67694">
        <ele>861.6</ele>
      </trkpt>
      <trkpt lat="47.297" lon="7.67697">
        <ele>858.1</ele>
      </trkpt>
      <trkpt lat="47.29713" lon="7.67697">
        <ele>851.3</ele>
      </trkpt>
      <trkpt lat="47.29719" lon="7.67699">
        <ele>848.7</ele>
      </trkpt>
      <trkpt lat="47.29727" lon="7.67706">
        <ele>845.7</ele>
      </trkpt>
      <trkpt lat="47.29742" lon="7.67727">
        <ele>842.3</ele>
      </trkpt>
      <trkpt lat="47.29851" lon="7.6792">
        <ele>826.6</ele>
      </trkpt>
      <trkpt lat="47.29873" lon="7.6794">
        <ele>820</ele>
      </trkpt>
      <trkpt lat="47.29891" lon="7.6796">
        <ele>814.4</ele>
      </trkpt>
      <trkpt lat="47.29926" lon="7.67981">
        <ele>801.9</ele>
      </trkpt>
      <trkpt lat="47.29976" lon="7.68011">
        <ele>783.1</ele>
      </trkpt>
      <trkpt lat="47.3003" lon="7.68055">
        <ele>763.1</ele>
      </trkpt>
      <trkpt lat="47.30039" lon="7.68056">
        <ele>759.4</ele>
      </trkpt>
      <trkpt lat="47.30046" lon="7.68056">
        <ele>755.9</ele>
      </trkpt>
      <trkpt lat="47.30057" lon="7.68062">
        <ele>751.6</ele>
      </trkpt>
      <trkpt lat="47.30063" lon="7.68071">
        <ele>750</ele>
      </trkpt>
      <trkpt lat="47.30135" lon="7.68115">
        <ele>721.2</ele>
      </trkpt>
      <trkpt lat="47.30145" lon="7.68118">
        <ele>716.9</ele>
      </trkpt>
      <trkpt lat="47.3018" lon="7.6814">
        <ele>703.4</ele>
      </trkpt>
      <trkpt lat="47.30191" lon="7.68149">
        <ele>699.2</ele>
      </trkpt>
      <trkpt lat="47.3021" lon="7.68155">
        <ele>690.9</ele>
      </trkpt>
      <trkpt lat="47.30221" lon="7.68167">
        <ele>687.4</ele>
      </trkpt>
      <trkpt lat="47.30234" lon="7.68168">
        <ele>681.5</ele>
      </trkpt>
      <trkpt lat="47.30251" lon="7.6817">
        <ele>674</ele>
      </trkpt>
      <trkpt lat="47.30271" lon="7.68184">
        <ele>664.6</ele>
      </trkpt>
      <trkpt lat="47.30272" lon="7.68165">
        <ele>662.9</ele>
      </trkpt>
      <trkpt lat="47.30269" lon="7.68151">
        <ele>662.7</ele>
      </trkpt>
      <trkpt lat="47.30263" lon="7.68139">
        <ele>664.3</ele>
      </trkpt>
      <trkpt lat="47.30245" lon="7.68112">
        <ele>669.1</ele>
      </trkpt>
      <trkpt lat="47.30241" lon="7.68094">
        <ele>668.8</ele>
      </trkpt>
      <trkpt lat="47.30244" lon="7.68083">
        <ele>665.8</ele>
      </trkpt>
      <trkpt lat="47.30248" lon="7.68075">
        <ele>663.2</ele>
      </trkpt>
      <trkpt lat="47.30257" lon="7.68068">
        <ele>658.7</ele>
      </trkpt>
      <trkpt lat="47.3027" lon="7.68058">
        <ele>652</ele>
      </trkpt>
      <trkpt lat="47.30273" lon="7.6805">
        <ele>649.7</ele>
      </trkpt>
      <trkpt lat="47.30271" lon="7.68039">
        <ele>649.6</ele>
      </trkpt>
      <trkpt lat="47.3026" lon="7.68013">
        <ele>651.8</ele>
      </trkpt>
      <trkpt lat="47.30257" lon="7.68008">
        <ele>652.5</ele>
      </trkpt>
      <trkpt lat="47.30243" lon="7.67984">
        <ele>657.3</ele>
      </trkpt>
      <trkpt lat="47.30239" lon="7.67974">
        <ele>658.5</ele>
      </trkpt>
      <trkpt lat="47.30239" lon="7.67967">
        <ele>657.8</ele>
      </trkpt>
      <trkpt lat="47.30249" lon="7.6794">
        <ele>651.4</ele>
      </trkpt>
      <trkpt lat="47.30254" lon="7.67915">
        <ele>646.9</ele>
      </trkpt>
      <trkpt lat="47.30255" lon="7.67882">
        <ele>641.7</ele>
      </trkpt>
      <trkpt lat="47.30254" lon="7.67849">
        <ele>638</ele>
      </trkpt>
      <trkpt lat="47.3025" lon="7.67819">
        <ele>635.7</ele>
      </trkpt>
      <trkpt lat="47.30238" lon="7.67786">
        <ele>635.1</ele>
      </trkpt>
      <trkpt lat="47.30225" lon="7.67757">
        <ele>636.5</ele>
      </trkpt>
      <trkpt lat="47.30222" lon="7.67737">
        <ele>634.4</ele>
      </trkpt>
      <trkpt lat="47.30223" lon="7.67726">
        <ele>632.2</ele>
      </trkpt>
      <trkpt lat="47.30225" lon="7.67709">
        <ele>628</ele>
      </trkpt>
      <trkpt lat="47.30226" lon="7.67694">
        <ele>624.9</ele>
      </trkpt>
      <trkpt lat="47.30225" lon="7.67682">
        <ele>623.3</ele>
      </trkpt>
      <trkpt lat="47.30224" lon="7.6767">
        <ele>621.6</ele>
      </trkpt>
      <trkpt lat="47.30227" lon="7.67665">
        <ele>619.4</ele>
      </trkpt>
      <trkpt lat="47.30232" lon="7.67664">
        <ele>617.4</ele>
      </trkpt>
      <trkpt lat="47.30236" lon="7.67668">
        <ele>616.6</ele>
      </trkpt>
      <trkpt lat="47.30237" lon="7.67679">
        <ele>617.8</ele>
      </trkpt>
      <trkpt lat="47.30237" lon="7.67699">
        <ele>621</ele>
      </trkpt>
      <trkpt lat="47.30238" lon="7.67723">
        <ele>624.5</ele>
      </trkpt>
      <trkpt lat="47.30242" lon="7.67735">
        <ele>624.8</ele>
      </trkpt>
      <trkpt lat="47.30247" lon="7.67743">
        <ele>623.7</ele>
      </trkpt>
      <trkpt lat="47.30279" lon="7.67765">
        <ele>610.9</ele>
      </trkpt>
      <trkpt lat="47.30304" lon="7.67786">
        <ele>602.3</ele>
      </trkpt>
      <trkpt lat="47.30319" lon="7.67814">
        <ele>600.3</ele>
      </trkpt>
      <trkpt lat="47.30337" lon="7.6785">
        <ele>597.3</ele>
      </trkpt>
      <trkpt lat="47.30346" lon="7.67892">
        <ele>597.5</ele>
      </trkpt>
      <trkpt lat="47.30354" lon="7.67907">
        <ele>595.2</ele>
      </trkpt>
      <trkpt lat="47.30381" lon="7.67935">
        <ele>585.6</ele>
      </trkpt>
      <trkpt lat="47.3041" lon="7.67979">
        <ele>578.5</ele>
      </trkpt>
      <trkpt lat="47.30439" lon="7.6804">
        <ele>569.9</ele>
      </trkpt>
      <trkpt lat="47.3045" lon="7.68058">
        <ele>565.3</ele>
      </trkpt>
      <trkpt lat="47.30452" lon="7.68067">
        <ele>565.6</ele>
      </trkpt>
      <trkpt lat="47.3045" lon="7.68079">
        <ele>568.3</ele>
      </trkpt>
      <trkpt lat="47.30446" lon="7.68094">
        <ele>572</ele>
      </trkpt>
      <trkpt lat="47.30446" lon="7.68106">
        <ele>573.5</ele>
      </trkpt>
      <trkpt lat="47.30453" lon="7.6811">
        <ele>570.3</ele>
      </trkpt>
      <trkpt lat="47.30457" lon="7.68107">
        <ele>567.5</ele>
      </trkpt>
      <trkpt lat="47.30458" lon="7.68099">
        <ele>566.2</ele>
      </trkpt>
      <trkpt lat="47.3046" lon="7.68085">
        <ele>563.1</ele>
      </trkpt>
      <trkpt lat="47.30464" lon="7.68056">
        <ele>557</ele>
      </trkpt>
      <trkpt lat="47.3046" lon="7.68028">
        <ele>555.5</ele>
      </trkpt>
      <trkpt lat="47.30442" lon="7.67916">
        <ele>548.5</ele>
      </trkpt>
      <trkpt lat="47.30433" lon="7.6786">
        <ele>545.8</ele>
      </trkpt>
      <trkpt lat="47.30427" lon="7.67806">
        <ele>542</ele>
      </trkpt>
      <trkpt lat="47.30421" lon="7.67784">
        <ele>542.7</ele>
      </trkpt>
      <trkpt lat="47.30414" lon="7.67768">
        <ele>544.4</ele>
      </trkpt>
      <trkpt lat="47.30414" lon="7.67756">
        <ele>543.3</ele>
      </trkpt>
      <trkpt lat="47.30415" lon="7.67753">
        <ele>542.2</ele>
      </trkpt>
      <trkpt lat="47.30419" lon="7.67756">
        <ele>540.7</ele>
      </trkpt>
      <trkpt lat="47.30423" lon="7.67766">
        <ele>539.5</ele>
      </trkpt>
      <trkpt lat="47.30432" lon="7.67788">
        <ele>536.7</ele>
      </trkpt>
      <trkpt lat="47.3046" lon="7.67843">
        <ele>527.5</ele>
      </trkpt>
      <trkpt lat="47.30472" lon="7.67871">
        <ele>524.2</ele>
      </trkpt>
      <trkpt lat="47.30489" lon="7.67911">
        <ele>519.3</ele>
      </trkpt>
      <trkpt lat="47.3051" lon="7.67951">
        <ele>514.2</ele>
      </trkpt>
      <trkpt lat="47.3052" lon="7.67978">
        <ele>513.4</ele>
      </trkpt>
      <trkpt lat="47.30527" lon="7.67998">
        <ele>512.6</ele>
      </trkpt>
      <trkpt lat="47.30533" lon="7.68009">
        <ele>511.3</ele>
      </trkpt>
      <trkpt lat="47.30541" lon="7.68021">
        <ele>508.5</ele>
      </trkpt>
      <trkpt lat="47.30553" lon="7.68031">
        <ele>502.7</ele>
      </trkpt>
      <trkpt lat="47.30563" lon="7.68041">
        <ele>498.3</ele>
      </trkpt>
      <trkpt lat="47.30571" lon="7.68059">
        <ele>495.4</ele>
      </trkpt>
      <trkpt lat="47.30573" lon="7.68073">
        <ele>495.3</ele>
      </trkpt>
      <trkpt lat="47.30576" lon="7.68105">
        <ele>496.1</ele>
      </trkpt>
      <trkpt lat="47.30579" lon="7.6811">
        <ele>494.7</ele>
      </trkpt>
      <trkpt lat="47.30589" lon="7.68041">
        <ele>486.4</ele>
      </trkpt>
      <trkpt lat="47.30585" lon="7.68053">
        <ele>487.6</ele>
      </trkpt>
      <trkpt lat="47.30582" lon="7.68078">
        <ele>490.4</ele>
      </trkpt>
      <trkpt lat="47.30579" lon="7.6811">
        <ele>494.7</ele>
      </trkpt>
      <trkpt lat="47.30579" lon="7.68118">
        <ele>494.6</ele>
      </trkpt>
      <trkpt lat="47.30581" lon="7.68133">
        <ele>494.5</ele>
      </trkpt>
      <trkpt lat="47.30582" lon="7.68145">
        <ele>494.4</ele>
      </trkpt>
      <trkpt lat="47.30588" lon="7.68177">
        <ele>494.7</ele>
      </trkpt>
      <trkpt lat="47.30599" lon="7.68238">
        <ele>496</ele>
      </trkpt>
      <trkpt lat="47.30603" lon="7.68262">
        <ele>496.3</ele>
      </trkpt>
      <trkpt lat="47.30606" lon="7.68279">
        <ele>496.4</ele>
      </trkpt>
      <trkpt lat="47.30612" lon="7.68306">
        <ele>496</ele>
      </trkpt>
      <trkpt lat="47.30617" lon="7.68329">
        <ele>495.5</ele>
      </trkpt>
      <trkpt lat="47.30622" lon="7.6835">
        <ele>495.7</ele>
      </trkpt>
      <trkpt lat="47.30625" lon="7.68372">
        <ele>496.3</ele>
      </trkpt>
      <trkpt lat="47.30634" lon="7.68431">
        <ele>496.5</ele>
      </trkpt>
      <trkpt lat="47.30635" lon="7.68435">
        <ele>496.4</ele>
      </trkpt>
      <trkpt lat="47.30637" lon="7.68445">
        <ele>496</ele>
      </trkpt>
      <trkpt lat="47.30641" lon="7.68463">
        <ele>495</ele>
      </trkpt>
      <trkpt lat="47.30645" lon="7.68482">
        <ele>494.3</ele>
      </trkpt>
      <trkpt lat="47.30649" lon="7.68498">
        <ele>493.5</ele>
      </trkpt>
      <trkpt lat="47.30653" lon="7.68517">
        <ele>492.7</ele>
      </trkpt>
      <trkpt lat="47.30656" lon="7.68534">
        <ele>492.3</ele>
      </trkpt>
      <trkpt lat="47.30662" lon="7.68575">
        <ele>491</ele>
      </trkpt>
      <trkpt lat="47.30666" lon="7.68592">
        <ele>490.4</ele>
      </trkpt>
      <trkpt lat="47.30669" lon="7.68609">
        <ele>490.9</ele>
      </trkpt>
      <trkpt lat="47.30671" lon="7.68615">
        <ele>491</ele>
      </trkpt>
      <trkpt lat="47.30674" lon="7.68624">
        <ele>491.3</ele>
      </trkpt>
      <trkpt lat="47.30678" lon="7.68638">
        <ele>491.6</ele>
      </trkpt>
      <trkpt lat="47.3068" lon="7.68646">
        <ele>491.7</ele>
      </trkpt>
      <trkpt lat="47.3068" lon="7.68649">
        <ele>491.9</ele>
      </trkpt>
      <trkpt lat="47.30682" lon="7.68657">
        <ele>492.1</ele>
      </trkpt>
      <trkpt lat="47.30684" lon="7.68673">
        <ele>492.5</ele>
      </trkpt>
      <trkpt lat="47.30686" lon="7.68692">
        <ele>492.5</ele>
      </trkpt>
      <trkpt lat="47.30688" lon="7.68712">
        <ele>492.5</ele>
      </trkpt>
      <trkpt lat="47.3069" lon="7.68728">
        <ele>492.5</ele>
      </trkpt>
      <trkpt lat="47.30692" lon="7.68748">
        <ele>492.5</ele>
      </trkpt>
      <trkpt lat="47.30694" lon="7.68763">
        <ele>491.4</ele>
      </trkpt>
      <trkpt lat="47.30697" lon="7.68772">
        <ele>490.5</ele>
      </trkpt>
      <trkpt lat="47.30699" lon="7.68779">
        <ele>489.7</ele>
      </trkpt>
      <trkpt lat="47.30702" lon="7.68786">
        <ele>488.8</ele>
      </trkpt>
      <trkpt lat="47.30705" lon="7.68793">
        <ele>488</ele>
      </trkpt>
      <trkpt lat="47.30709" lon="7.68798">
        <ele>487.2</ele>
      </trkpt>
      <trkpt lat="47.30713" lon="7.68804">
        <ele>486.3</ele>
      </trkpt>
      <trkpt lat="47.30715" lon="7.68806">
        <ele>485.9</ele>
      </trkpt>
      <trkpt lat="47.30722" lon="7.68816">
        <ele>484.4</ele>
      </trkpt>
      <trkpt lat="47.30726" lon="7.68819">
        <ele>483.8</ele>
      </trkpt>
      <trkpt lat="47.30733" lon="7.68838">
        <ele>482.2</ele>
      </trkpt>
      <trkpt lat="47.30738" lon="7.68853">
        <ele>480.9</ele>
      </trkpt>
      <trkpt lat="47.3074" lon="7.68855">
        <ele>480.7</ele>
      </trkpt>
      <trkpt lat="47.30749" lon="7.68882">
        <ele>478.9</ele>
      </trkpt>
      <trkpt lat="47.30747" lon="7.68885">
        <ele>479.1</ele>
      </trkpt>
      <trkpt lat="47.30745" lon="7.68887">
        <ele>479.2</ele>
      </trkpt>
      <trkpt lat="47.30743" lon="7.68888">
        <ele>479.2</ele>
      </trkpt>
      <trkpt lat="47.3074" lon="7.68892">
        <ele>479.4</ele>
      </trkpt>
      <trkpt lat="47.30732" lon="7.68903">
        <ele>479.4</ele>
      </trkpt>
      <trkpt lat="47.30723" lon="7.6892">
        <ele>479.3</ele>
      </trkpt>
      <trkpt lat="47.30741" lon="7.68951">
        <ele>478.8</ele>
      </trkpt>
      <trkpt lat="47.30744" lon="7.68958">
        <ele>478.7</ele>
      </trkpt>
      <trkpt lat="47.3075" lon="7.68983">
        <ele>478.8</ele>
      </trkpt>
      <trkpt lat="47.3075" lon="7.68993">
        <ele>478.9</ele>
      </trkpt>
      <trkpt lat="47.30748" lon="7.69001">
        <ele>479.1</ele>
      </trkpt>
      <trkpt lat="47.3075" lon="7.69007">
        <ele>479.4</ele>
      </trkpt>
      <trkpt lat="47.30767" lon="7.69062">
        <ele>481.9</ele>
      </trkpt>
      <trkpt lat="47.3077" lon="7.69071">
        <ele>482.1</ele>
      </trkpt>
      <trkpt lat="47.30771" lon="7.69082">
        <ele>482.4</ele>
      </trkpt>
      <trkpt lat="47.30773" lon="7.69092">
        <ele>483.2</ele>
      </trkpt>
      <trkpt lat="47.30776" lon="7.69119">
        <ele>485.3</ele>
      </trkpt>
      <trkpt lat="47.3078" lon="7.69135">
        <ele>486.3</ele>
      </trkpt>
      <trkpt lat="47.30785" lon="7.69152">
        <ele>486.9</ele>
      </trkpt>
      <trkpt lat="47.3079" lon="7.69153">
        <ele>486.4</ele>
      </trkpt>
      <trkpt lat="47.30805" lon="7.69159">
        <ele>484.3</ele>
      </trkpt>
      <trkpt lat="47.30811" lon="7.69161">
        <ele>483.5</ele>
      </trkpt>
      <trkpt lat="47.30815" lon="7.69161">
        <ele>482.9</ele>
      </trkpt>
      <trkpt lat="47.30823" lon="7.69158">
        <ele>481.4</ele>
      </trkpt>
      <trkpt lat="47.30866" lon="7.69141">
        <ele>481.1</ele>
      </trkpt>
      <trkpt lat="47.30897" lon="7.69133">
        <ele>482.5</ele>
      </trkpt>
      <trkpt lat="47.30902" lon="7.6913">
        <ele>482.8</ele>
      </trkpt>
      <trkpt lat="47.30924" lon="7.69169">
        <ele>483.9</ele>
      </trkpt>
      <trkpt lat="47.30935" lon="7.69184">
        <ele>483.6</ele>
      </trkpt>
      <trkpt lat="47.30938" lon="7.69189">
        <ele>483.5</ele>
      </trkpt>
      <trkpt lat="47.31061" lon="7.69359">
        <ele>485</ele>
      </trkpt>
      <trkpt lat="47.3107" lon="7.69371">
        <ele>485</ele>
      </trkpt>
      <trkpt lat="47.31105" lon="7.69424">
        <ele>485.8</ele>
      </trkpt>
      <trkpt lat="47.31125" lon="7.69454">
        <ele>486.7</ele>
      </trkpt>
      <trkpt lat="47.31145" lon="7.69483">
        <ele>487.8</ele>
      </trkpt>
      <trkpt lat="47.3115" lon="7.69475">
        <ele>488</ele>
      </trkpt>
      <trkpt lat="47.31182" lon="7.69427">
        <ele>488.2</ele>
      </trkpt>
      <trkpt lat="47.31204" lon="7.69394">
        <ele>488</ele>
      </trkpt>
      <trkpt lat="47.31208" lon="7.69389">
        <ele>488</ele>
      </trkpt>
      <trkpt lat="47.31226" lon="7.69365">
        <ele>488</ele>
      </trkpt>
      <trkpt lat="47.31238" lon="7.69348">
        <ele>488</ele>
      </trkpt>
      <trkpt lat="47.31244" lon="7.69347">
        <ele>488</ele>
      </trkpt>
      <trkpt lat="47.31248" lon="7.69346">
        <ele>488</ele>
      </trkpt>
      <trkpt lat="47.31253" lon="7.69346">
        <ele>488</ele>
      </trkpt>
      <trkpt lat="47.31258" lon="7.69348">
        <ele>488</ele>
      </trkpt>
      <trkpt lat="47.31266" lon="7.69356">
        <ele>487.9</ele>
      </trkpt>
      <trkpt lat="47.31279" lon="7.69371">
        <ele>487.8</ele>
      </trkpt>
      <trkpt lat="47.31294" lon="7.69383">
        <ele>487.7</ele>
      </trkpt>
      <trkpt lat="47.3133" lon="7.69443">
        <ele>487.4</ele>
      </trkpt>
      <trkpt lat="47.3133" lon="7.69443">
        <ele>487.4</ele>
      </trkpt>
      <trkpt lat="47.31338" lon="7.69458">
        <ele>487.6</ele>
      </trkpt>
      <trkpt lat="47.31344" lon="7.69468">
        <ele>487.9</ele>
      </trkpt>
      <trkpt lat="47.31349" lon="7.69478">
        <ele>488.1</ele>
      </trkpt>
      <trkpt lat="47.31353" lon="7.69484">
        <ele>488.3</ele>
      </trkpt>
      <trkpt lat="47.31359" lon="7.69496">
        <ele>488.6</ele>
      </trkpt>
      <trkpt lat="47.31364" lon="7.69504">
        <ele>488.8</ele>
      </trkpt>
      <trkpt lat="47.31374" lon="7.69532">
        <ele>489.4</ele>
      </trkpt>
      <trkpt lat="47.31383" lon="7.69555">
        <ele>489.9</ele>
      </trkpt>
      <trkpt lat="47.31384" lon="7.6956">
        <ele>489.9</ele>
      </trkpt>
      <trkpt lat="47.31383" lon="7.69564">
        <ele>489.9</ele>
      </trkpt>
      <trkpt lat="47.31362" lon="7.69587">
        <ele>489.8</ele>
      </trkpt>
      <trkpt lat="47.31349" lon="7.69602">
        <ele>489.8</ele>
      </trkpt>
      <trkpt lat="47.31343" lon="7.69606">
        <ele>489.7</ele>
      </trkpt>
      <trkpt lat="47.31385" lon="7.69652">
        <ele>491.4</ele>
      </trkpt>
      <trkpt lat="47.31397" lon="7.6967">
        <ele>491.8</ele>
      </trkpt>
      <trkpt lat="47.31406" lon="7.69687">
        <ele>492.1</ele>
      </trkpt>
      <trkpt lat="47.31463" lon="7.69807">
        <ele>494.6</ele>
      </trkpt>
      <trkpt lat="47.3144" lon="7.69835">
        <ele>494.6</ele>
      </trkpt>
      <trkpt lat="47.31398" lon="7.69881">
        <ele>495.4</ele>
      </trkpt>
      <trkpt lat="47.31455" lon="7.69969">
        <ele>498.3</ele>
      </trkpt>
      <trkpt lat="47.31476" lon="7.70011">
        <ele>499.5</ele>
      </trkpt>
      <trkpt lat="47.31452" lon="7.70041">
        <ele>502.9</ele>
      </trkpt>
      <trkpt lat="47.31437" lon="7.70059">
        <ele>505.5</ele>
      </trkpt>
      <trkpt lat="47.31431" lon="7.70068">
        <ele>507</ele>
      </trkpt>
      <trkpt lat="47.314" lon="7.70095">
        <ele>511.1</ele>
      </trkpt>
      <trkpt lat="47.31265" lon="7.70192">
        <ele>531.6</ele>
      </trkpt>
      <trkpt lat="47.31253" lon="7.70205">
        <ele>534.3</ele>
      </trkpt>
      <trkpt lat="47.31237" lon="7.70226">
        <ele>540.5</ele>
      </trkpt>
      <trkpt lat="47.31211" lon="7.70266">
        <ele>549.9</ele>
      </trkpt>
      <trkpt lat="47.31204" lon="7.70278">
        <ele>551.9</ele>
      </trkpt>
      <trkpt lat="47.312" lon="7.70287">
        <ele>552.7</ele>
      </trkpt>
      <trkpt lat="47.31196" lon="7.70293">
        <ele>553.6</ele>
      </trkpt>
      <trkpt lat="47.31191" lon="7.703">
        <ele>554.6</ele>
      </trkpt>
      <trkpt lat="47.31181" lon="7.70308">
        <ele>556.2</ele>
      </trkpt>
      <trkpt lat="47.31157" lon="7.70329">
        <ele>559.8</ele>
      </trkpt>
      <trkpt lat="47.3115" lon="7.70337">
        <ele>561</ele>
      </trkpt>
      <trkpt lat="47.31134" lon="7.70352">
        <ele>564.7</ele>
      </trkpt>
      <trkpt lat="47.31127" lon="7.7036">
        <ele>566.3</ele>
      </trkpt>
      <trkpt lat="47.31124" lon="7.70365">
        <ele>567.1</ele>
      </trkpt>
      <trkpt lat="47.31121" lon="7.70374">
        <ele>567.6</ele>
      </trkpt>
      <trkpt lat="47.31119" lon="7.70392">
        <ele>567.9</ele>
      </trkpt>
      <trkpt lat="47.31118" lon="7.70408">
        <ele>568</ele>
      </trkpt>
      <trkpt lat="47.3112" lon="7.7043">
        <ele>569.3</ele>
      </trkpt>
      <trkpt lat="47.31126" lon="7.70453">
        <ele>571.1</ele>
      </trkpt>
      <trkpt lat="47.31128" lon="7.70467">
        <ele>572.6</ele>
      </trkpt>
      <trkpt lat="47.31128" lon="7.70472">
        <ele>573.3</ele>
      </trkpt>
      <trkpt lat="47.31128" lon="7.70482">
        <ele>574.6</ele>
      </trkpt>
      <trkpt lat="47.31126" lon="7.70496">
        <ele>576.8</ele>
      </trkpt>
      <trkpt lat="47.31125" lon="7.7051">
        <ele>578.9</ele>
      </trkpt>
      <trkpt lat="47.31123" lon="7.70519">
        <ele>580.4</ele>
      </trkpt>
      <trkpt lat="47.31121" lon="7.70528">
        <ele>581.8</ele>
      </trkpt>
      <trkpt lat="47.31119" lon="7.70544">
        <ele>584.2</ele>
      </trkpt>
      <trkpt lat="47.3112" lon="7.70556">
        <ele>585.7</ele>
      </trkpt>
      <trkpt lat="47.31121" lon="7.70576">
        <ele>588.2</ele>
      </trkpt>
      <trkpt lat="47.31122" lon="7.70592">
        <ele>589.7</ele>
      </trkpt>
      <trkpt lat="47.31124" lon="7.70622">
        <ele>591.7</ele>
      </trkpt>
      <trkpt lat="47.31126" lon="7.70638">
        <ele>592.6</ele>
      </trkpt>
      <trkpt lat="47.31128" lon="7.70657">
        <ele>593.7</ele>
      </trkpt>
      <trkpt lat="47.31128" lon="7.70677">
        <ele>595.3</ele>
      </trkpt>
      <trkpt lat="47.3113" lon="7.7069">
        <ele>596.2</ele>
      </trkpt>
      <trkpt lat="47.31132" lon="7.70712">
        <ele>597.7</ele>
      </trkpt>
      <trkpt lat="47.31137" lon="7.70736">
        <ele>598.8</ele>
      </trkpt>
      <trkpt lat="47.31146" lon="7.70774">
        <ele>601.4</ele>
      </trkpt>
      <trkpt lat="47.31151" lon="7.70791">
        <ele>602.6</ele>
      </trkpt>
      <trkpt lat="47.31174" lon="7.70842">
        <ele>603.6</ele>
      </trkpt>
      <trkpt lat="47.31175" lon="7.70859">
        <ele>604.6</ele>
      </trkpt>
      <trkpt lat="47.31171" lon="7.709">
        <ele>608.5</ele>
      </trkpt>
      <trkpt lat="47.31169" lon="7.70939">
        <ele>613.8</ele>
      </trkpt>
      <trkpt lat="47.31172" lon="7.70961">
        <ele>616.1</ele>
      </trkpt>
      <trkpt lat="47.31196" lon="7.71017">
        <ele>616.4</ele>
      </trkpt>
      <trkpt lat="47.3121" lon="7.71042">
        <ele>616</ele>
      </trkpt>
      <trkpt lat="47.31222" lon="7.71061">
        <ele>615.7</ele>
      </trkpt>
      <trkpt lat="47.3123" lon="7.71088">
        <ele>617.6</ele>
      </trkpt>
      <trkpt lat="47.3123" lon="7.71121">
        <ele>620.2</ele>
      </trkpt>
      <trkpt lat="47.31225" lon="7.71146">
        <ele>623.9</ele>
      </trkpt>
      <trkpt lat="47.31227" lon="7.71174">
        <ele>625.1</ele>
      </trkpt>
      <trkpt lat="47.31231" lon="7.71212">
        <ele>624.1</ele>
      </trkpt>
      <trkpt lat="47.31232" lon="7.71236">
        <ele>624.1</ele>
      </trkpt>
      <trkpt lat="47.31214" lon="7.71294">
        <ele>634</ele>
      </trkpt>
      <trkpt lat="47.3121" lon="7.71308">
        <ele>636.4</ele>
      </trkpt>
      <trkpt lat="47.31206" lon="7.71319">
        <ele>638.5</ele>
      </trkpt>
      <trkpt lat="47.31203" lon="7.71325">
        <ele>640</ele>
      </trkpt>
      <trkpt lat="47.31199" lon="7.7133">
        <ele>641.5</ele>
      </trkpt>
      <trkpt lat="47.31193" lon="7.71335">
        <ele>643.5</ele>
      </trkpt>
      <trkpt lat="47.31189" lon="7.71335">
        <ele>644.7</ele>
      </trkpt>
      <trkpt lat="47.31185" lon="7.71336">
        <ele>645.9</ele>
      </trkpt>
      <trkpt lat="47.31181" lon="7.71334">
        <ele>646.9</ele>
      </trkpt>
      <trkpt lat="47.31176" lon="7.7133">
        <ele>648.1</ele>
      </trkpt>
      <trkpt lat="47.31171" lon="7.71325">
        <ele>649.2</ele>
      </trkpt>
      <trkpt lat="47.31169" lon="7.71321">
        <ele>649.7</ele>
      </trkpt>
      <trkpt lat="47.31168" lon="7.71317">
        <ele>649.9</ele>
      </trkpt>
      <trkpt lat="47.31166" lon="7.71309">
        <ele>650.1</ele>
      </trkpt>
      <trkpt lat="47.31165" lon="7.71302">
        <ele>650.1</ele>
      </trkpt>
      <trkpt lat="47.31164" lon="7.71295">
        <ele>649.9</ele>
      </trkpt>
      <trkpt lat="47.31164" lon="7.71272">
        <ele>648.7</ele>
      </trkpt>
      <trkpt lat="47.31167" lon="7.71217">
        <ele>645.4</ele>
      </trkpt>
      <trkpt lat="47.31164" lon="7.71192">
        <ele>644.6</ele>
      </trkpt>
      <trkpt lat="47.31161" lon="7.71179">
        <ele>644.5</ele>
      </trkpt>
      <trkpt lat="47.31156" lon="7.71171">
        <ele>644.7</ele>
      </trkpt>
      <trkpt lat="47.31149" lon="7.71167">
        <ele>645.3</ele>
      </trkpt>
      <trkpt lat="47.3114" lon="7.71162">
        <ele>646</ele>
      </trkpt>
      <trkpt lat="47.31128" lon="7.71206">
        <ele>651.7</ele>
      </trkpt>
      <trkpt lat="47.31107" lon="7.71232">
        <ele>658.6</ele>
      </trkpt>
      <trkpt lat="47.31085" lon="7.71283">
        <ele>670</ele>
      </trkpt>
      <trkpt lat="47.31061" lon="7.71304">
        <ele>678.1</ele>
      </trkpt>
      <trkpt lat="47.31045" lon="7.71337">
        <ele>687.6</ele>
      </trkpt>
      <trkpt lat="47.31059" lon="7.71355">
        <ele>687.9</ele>
      </trkpt>
      <trkpt lat="47.31067" lon="7.71383">
        <ele>690.1</ele>
      </trkpt>
      <trkpt lat="47.31069" lon="7.71467">
        <ele>707.4</ele>
      </trkpt>
      <trkpt lat="47.31057" lon="7.71452">
        <ele>710.9</ele>
      </trkpt>
      <trkpt lat="47.31057" lon="7.71486">
        <ele>719.3</ele>
      </trkpt>
      <trkpt lat="47.31067" lon="7.71539">
        <ele>723.4</ele>
      </trkpt>
      <trkpt lat="47.31069" lon="7.71613">
        <ele>731</ele>
      </trkpt>
      <trkpt lat="47.31054" lon="7.71577">
        <ele>734.5</ele>
      </trkpt>
      <trkpt lat="47.31024" lon="7.71523">
        <ele>742.6</ele>
      </trkpt>
      <trkpt lat="47.31019" lon="7.71498">
        <ele>744</ele>
      </trkpt>
      <trkpt lat="47.31014" lon="7.71487">
        <ele>744.8</ele>
      </trkpt>
      <trkpt lat="47.31008" lon="7.71481">
        <ele>747.3</ele>
      </trkpt>
      <trkpt lat="47.31005" lon="7.7148">
        <ele>748.5</ele>
      </trkpt>
      <trkpt lat="47.30992" lon="7.71475">
        <ele>752.8</ele>
      </trkpt>
      <trkpt lat="47.30971" lon="7.71472">
        <ele>757.7</ele>
      </trkpt>
      <trkpt lat="47.30963" lon="7.71471">
        <ele>759.6</ele>
      </trkpt>
      <trkpt lat="47.30954" lon="7.7147">
        <ele>762</ele>
      </trkpt>
      <trkpt lat="47.3093" lon="7.7146">
        <ele>766.6</ele>
      </trkpt>
      <trkpt lat="47.30912" lon="7.71453">
        <ele>771.2</ele>
      </trkpt>
      <trkpt lat="47.30901" lon="7.71447">
        <ele>775.1</ele>
      </trkpt>
      <trkpt lat="47.3088" lon="7.71436">
        <ele>782.6</ele>
      </trkpt>
      <trkpt lat="47.3087" lon="7.71428">
        <ele>786.2</ele>
      </trkpt>
      <trkpt lat="47.30857" lon="7.71415">
        <ele>790.7</ele>
      </trkpt>
      <trkpt lat="47.30852" lon="7.71411">
        <ele>792.4</ele>
      </trkpt>
      <trkpt lat="47.30846" lon="7.71405">
        <ele>794.1</ele>
      </trkpt>
      <trkpt lat="47.30849" lon="7.71424">
        <ele>794.6</ele>
      </trkpt>
      <trkpt lat="47.30859" lon="7.71477">
        <ele>794.8</ele>
      </trkpt>
      <trkpt lat="47.30864" lon="7.71502">
        <ele>794.8</ele>
      </trkpt>
      <trkpt lat="47.3087" lon="7.71522">
        <ele>795</ele>
      </trkpt>
      <trkpt lat="47.30873" lon="7.71536">
        <ele>795.8</ele>
      </trkpt>
      <trkpt lat="47.30868" lon="7.71545">
        <ele>798.4</ele>
      </trkpt>
      <trkpt lat="47.30854" lon="7.71551">
        <ele>803</ele>
      </trkpt>
      <trkpt lat="47.30834" lon="7.71556">
        <ele>808.4</ele>
      </trkpt>
      <trkpt lat="47.30807" lon="7.71562">
        <ele>809.4</ele>
      </trkpt>
      <trkpt lat="47.30757" lon="7.71571">
        <ele>810.9</ele>
      </trkpt>
      <trkpt lat="47.30733" lon="7.7158">
        <ele>813.9</ele>
      </trkpt>
      <trkpt lat="47.30725" lon="7.71582">
        <ele>815.1</ele>
      </trkpt>
      <trkpt lat="47.30718" lon="7.7158">
        <ele>815.8</ele>
      </trkpt>
      <trkpt lat="47.30713" lon="7.71576">
        <ele>816</ele>
      </trkpt>
      <trkpt lat="47.30707" lon="7.7157">
        <ele>815.9</ele>
      </trkpt>
      <trkpt lat="47.30679" lon="7.71537">
        <ele>813.6</ele>
      </trkpt>
      <trkpt lat="47.3066" lon="7.71593">
        <ele>826.8</ele>
      </trkpt>
      <trkpt lat="47.30648" lon="7.71637">
        <ele>839.5</ele>
      </trkpt>
      <trkpt lat="47.30637" lon="7.71691">
        <ele>851.8</ele>
      </trkpt>
      <trkpt lat="47.30636" lon="7.71715">
        <ele>855.3</ele>
      </trkpt>
      <trkpt lat="47.30627" lon="7.71766">
        <ele>862.8</ele>
      </trkpt>
      <trkpt lat="47.30619" lon="7.71814">
        <ele>867.5</ele>
      </trkpt>
      <trkpt lat="47.30617" lon="7.71865">
        <ele>875.8</ele>
      </trkpt>
      <trkpt lat="47.30614" lon="7.71882">
        <ele>880</ele>
      </trkpt>
      <trkpt lat="47.30613" lon="7.71889">
        <ele>881.7</ele>
      </trkpt>
      <trkpt lat="47.30612" lon="7.71889">
        <ele>881.8</ele>
      </trkpt>
      <trkpt lat="47.3061" lon="7.71889">
        <ele>882.2</ele>
      </trkpt>
      <trkpt lat="47.30608" lon="7.7189">
        <ele>882.9</ele>
      </trkpt>
      <trkpt lat="47.30605" lon="7.71887">
        <ele>882.7</ele>
      </trkpt>
      <trkpt lat="47.30603" lon="7.71906">
        <ele>887.1</ele>
      </trkpt>
      <trkpt lat="47.30601" lon="7.71917">
        <ele>890.1</ele>
      </trkpt>
      <trkpt lat="47.30602" lon="7.71926">
        <ele>892.5</ele>
      </trkpt>
      <trkpt lat="47.30608" lon="7.71944">
        <ele>896.7</ele>
      </trkpt>
      <trkpt lat="47.30614" lon="7.71964">
        <ele>901.4</ele>
      </trkpt>
      <trkpt lat="47.30621" lon="7.71984">
        <ele>905.7</ele>
      </trkpt>
      <trkpt lat="47.30623" lon="7.71997">
        <ele>909.2</ele>
      </trkpt>
      <trkpt lat="47.30624" lon="7.72007">
        <ele>911.9</ele>
      </trkpt>
      <trkpt lat="47.30626" lon="7.72021">
        <ele>915.3</ele>
      </trkpt>
      <trkpt lat="47.30623" lon="7.72021">
        <ele>915.9</ele>
      </trkpt>
      <trkpt lat="47.3061" lon="7.72014">
        <ele>916.6</ele>
      </trkpt>
      <trkpt lat="47.30611" lon="7.72025">
        <ele>919.3</ele>
      </trkpt>
      <trkpt lat="47.30614" lon="7.72038">
        <ele>922.7</ele>
      </trkpt>
      <trkpt lat="47.30614" lon="7.72046">
        <ele>924.7</ele>
      </trkpt>
      <trkpt lat="47.30608" lon="7.72043">
        <ele>925.3</ele>
      </trkpt>
      <trkpt lat="47.30601" lon="7.72043">
        <ele>926.5</ele>
      </trkpt>
      <trkpt lat="47.30609" lon="7.72074">
        <ele>933.7</ele>
      </trkpt>
      <trkpt lat="47.30612" lon="7.72084">
        <ele>935.9</ele>
      </trkpt>
      <trkpt lat="47.30615" lon="7.72094">
        <ele>937.6</ele>
      </trkpt>
      <trkpt lat="47.30619" lon="7.72103">
        <ele>939.1</ele>
      </trkpt>
      <trkpt lat="47.30619" lon="7.72118">
        <ele>942.6</ele>
      </trkpt>
      <trkpt lat="47.30616" lon="7.72117">
        <ele>943</ele>
      </trkpt>
      <trkpt lat="47.30609" lon="7.72113">
        <ele>943</ele>
      </trkpt>
      <trkpt lat="47.30592" lon="7.72104">
        <ele>944.1</ele>
      </trkpt>
      <trkpt lat="47.30597" lon="7.72129">
        <ele>948.4</ele>
      </trkpt>
      <trkpt lat="47.30601" lon="7.72152">
        <ele>952.5</ele>
      </trkpt>
      <trkpt lat="47.30606" lon="7.72183">
        <ele>955.9</ele>
      </trkpt>
      <trkpt lat="47.30613" lon="7.72216">
        <ele>957.2</ele>
      </trkpt>
      <trkpt lat="47.30615" lon="7.72244">
        <ele>958.7</ele>
      </trkpt>
      <trkpt lat="47.30613" lon="7.72275">
        <ele>961.6</ele>
      </trkpt>
      <trkpt lat="47.30611" lon="7.72287">
        <ele>962.6</ele>
      </trkpt>
      <trkpt lat="47.30612" lon="7.72295">
        <ele>963.6</ele>
      </trkpt>
      <trkpt lat="47.30612" lon="7.7231">
        <ele>965.2</ele>
      </trkpt>
      <trkpt lat="47.30612" lon="7.72316">
        <ele>965.9</ele>
      </trkpt>
      <trkpt lat="47.30611" lon="7.72329">
        <ele>967.2</ele>
      </trkpt>
      <trkpt lat="47.3061" lon="7.72331">
        <ele>967.3</ele>
      </trkpt>
      <trkpt lat="47.30612" lon="7.72344">
        <ele>968.1</ele>
      </trkpt>
      <trkpt lat="47.30616" lon="7.72359">
        <ele>969.2</ele>
      </trkpt>
      <trkpt lat="47.30621" lon="7.72372">
        <ele>970.7</ele>
      </trkpt>
      <trkpt lat="47.30623" lon="7.72384">
        <ele>971.5</ele>
      </trkpt>
      <trkpt lat="47.30627" lon="7.72397">
        <ele>972.9</ele>
      </trkpt>
      <trkpt lat="47.30625" lon="7.72412">
        <ele>973.2</ele>
      </trkpt>
      <trkpt lat="47.30626" lon="7.72424">
        <ele>973.5</ele>
      </trkpt>
      <trkpt lat="47.3063" lon="7.72434">
        <ele>974.2</ele>
      </trkpt>
      <trkpt lat="47.30634" lon="7.72446">
        <ele>974.8</ele>
      </trkpt>
      <trkpt lat="47.30644" lon="7.72475">
        <ele>977</ele>
      </trkpt>
      <trkpt lat="47.30653" lon="7.72491">
        <ele>979.5</ele>
      </trkpt>
      <trkpt lat="47.30663" lon="7.72522">
        <ele>980.1</ele>
      </trkpt>
      <trkpt lat="47.30672" lon="7.72544">
        <ele>977.7</ele>
      </trkpt>
      <trkpt lat="47.30681" lon="7.72562">
        <ele>975</ele>
      </trkpt>
      <trkpt lat="47.30688" lon="7.72572">
        <ele>974</ele>
      </trkpt>
      <trkpt lat="47.30692" lon="7.72586">
        <ele>973.8</ele>
      </trkpt>
      <trkpt lat="47.30706" lon="7.72617">
        <ele>976</ele>
      </trkpt>
      <trkpt lat="47.30717" lon="7.72632">
        <ele>978.2</ele>
      </trkpt>
      <trkpt lat="47.30726" lon="7.72651">
        <ele>981.5</ele>
      </trkpt>
      <trkpt lat="47.30744" lon="7.72672">
        <ele>986.9</ele>
      </trkpt>
      <trkpt lat="47.30756" lon="7.72684">
        <ele>986.2</ele>
      </trkpt>
      <trkpt lat="47.30762" lon="7.72694">
        <ele>984.3</ele>
      </trkpt>
      <trkpt lat="47.3077" lon="7.72717">
        <ele>983.7</ele>
      </trkpt>
      <trkpt lat="47.30772" lon="7.72728">
        <ele>984.6</ele>
      </trkpt>
      <trkpt lat="47.30779" lon="7.72739">
        <ele>984.7</ele>
      </trkpt>
      <trkpt lat="47.30784" lon="7.72756">
        <ele>985.7</ele>
      </trkpt>
      <trkpt lat="47.30791" lon="7.72787">
        <ele>985.6</ele>
      </trkpt>
      <trkpt lat="47.30796" lon="7.72836">
        <ele>987.4</ele>
      </trkpt>
      <trkpt lat="47.30801" lon="7.7287">
        <ele>983</ele>
      </trkpt>
      <trkpt lat="47.30808" lon="7.72895">
        <ele>981.1</ele>
      </trkpt>
      <trkpt lat="47.30815" lon="7.72907">
        <ele>981.4</ele>
      </trkpt>
      <trkpt lat="47.30824" lon="7.72915">
        <ele>983</ele>
      </trkpt>
      <trkpt lat="47.3084" lon="7.72923">
        <ele>983.6</ele>
      </trkpt>
      <trkpt lat="47.30856" lon="7.72934">
        <ele>980</ele>
      </trkpt>
      <trkpt lat="47.30868" lon="7.72944">
        <ele>977.8</ele>
      </trkpt>
      <trkpt lat="47.30878" lon="7.72958">
        <ele>976.4</ele>
      </trkpt>
      <trkpt lat="47.30892" lon="7.72974">
        <ele>976.5</ele>
      </trkpt>
      <trkpt lat="47.30914" lon="7.73009">
        <ele>979.3</ele>
      </trkpt>
      <trkpt lat="47.3096" lon="7.73065">
        <ele>973.2</ele>
      </trkpt>
      <trkpt lat="47.30988" lon="7.73099">
        <ele>975.2</ele>
      </trkpt>
      <trkpt lat="47.31004" lon="7.73112">
        <ele>974.4</ele>
      </trkpt>
      <trkpt lat="47.31019" lon="7.73137">
        <ele>970.8</ele>
      </trkpt>
      <trkpt lat="47.31036" lon="7.73149">
        <ele>969.6</ele>
      </trkpt>
      <trkpt lat="47.31058" lon="7.73189">
        <ele>969.7</ele>
      </trkpt>
      <trkpt lat="47.31068" lon="7.73203">
        <ele>969.9</ele>
      </trkpt>
      <trkpt lat="47.31096" lon="7.73244">
        <ele>970.8</ele>
      </trkpt>
      <trkpt lat="47.31099" lon="7.73247">
        <ele>970.7</ele>
      </trkpt>
      <trkpt lat="47.31122" lon="7.73311">
        <ele>968.2</ele>
      </trkpt>
      <trkpt lat="47.31137" lon="7.73348">
        <ele>969.8</ele>
      </trkpt>
      <trkpt lat="47.31141" lon="7.73375">
        <ele>968.4</ele>
      </trkpt>
      <trkpt lat="47.31144" lon="7.73405">
        <ele>966.6</ele>
      </trkpt>
      <trkpt lat="47.31141" lon="7.73431">
        <ele>964</ele>
      </trkpt>
      <trkpt lat="47.3114" lon="7.73433">
        <ele>963.6</ele>
      </trkpt>
      <trkpt lat="47.3114" lon="7.73461">
        <ele>962</ele>
      </trkpt>
      <trkpt lat="47.31146" lon="7.73485">
        <ele>962.4</ele>
      </trkpt>
      <trkpt lat="47.31148" lon="7.73507">
        <ele>962.2</ele>
      </trkpt>
      <trkpt lat="47.31157" lon="7.73556">
        <ele>964.2</ele>
      </trkpt>
      <trkpt lat="47.31177" lon="7.73602">
        <ele>967.2</ele>
      </trkpt>
      <trkpt lat="47.31181" lon="7.73615">
        <ele>966.5</ele>
      </trkpt>
      <trkpt lat="47.31187" lon="7.73626">
        <ele>966.4</ele>
      </trkpt>
      <trkpt lat="47.31192" lon="7.73641">
        <ele>965.8</ele>
      </trkpt>
      <trkpt lat="47.312" lon="7.7366">
        <ele>965.7</ele>
      </trkpt>
      <trkpt lat="47.31203" lon="7.73668">
        <ele>965.5</ele>
      </trkpt>
      <trkpt lat="47.31208" lon="7.73674">
        <ele>965.4</ele>
      </trkpt>
      <trkpt lat="47.31214" lon="7.7368">
        <ele>965.6</ele>
      </trkpt>
      <trkpt lat="47.31217" lon="7.73685">
        <ele>965.6</ele>
      </trkpt>
      <trkpt lat="47.31224" lon="7.73705">
        <ele>964.8</ele>
      </trkpt>
      <trkpt lat="47.31232" lon="7.7372">
        <ele>965.2</ele>
      </trkpt>
      <trkpt lat="47.31238" lon="7.73734">
        <ele>965.6</ele>
      </trkpt>
      <trkpt lat="47.31242" lon="7.73756">
        <ele>964.2</ele>
      </trkpt>
      <trkpt lat="47.31247" lon="7.73762">
        <ele>964.2</ele>
      </trkpt>
      <trkpt lat="47.31254" lon="7.73774">
        <ele>962.6</ele>
      </trkpt>
      <trkpt lat="47.31259" lon="7.73778">
        <ele>962</ele>
      </trkpt>
      <trkpt lat="47.31264" lon="7.73788">
        <ele>960.4</ele>
      </trkpt>
      <trkpt lat="47.31294" lon="7.73832">
        <ele>957.2</ele>
      </trkpt>
      <trkpt lat="47.3131" lon="7.73853">
        <ele>956.9</ele>
      </trkpt>
      <trkpt lat="47.3133" lon="7.73876">
        <ele>958.1</ele>
      </trkpt>
      <trkpt lat="47.31371" lon="7.73909">
        <ele>957.2</ele>
      </trkpt>
      <trkpt lat="47.31414" lon="7.73961">
        <ele>957.4</ele>
      </trkpt>
      <trkpt lat="47.31433" lon="7.73999">
        <ele>956.2</ele>
      </trkpt>
      <trkpt lat="47.31463" lon="7.74052">
        <ele>949.3</ele>
      </trkpt>
      <trkpt lat="47.31476" lon="7.74073">
        <ele>949.3</ele>
      </trkpt>
      <trkpt lat="47.31484" lon="7.74082">
        <ele>950.7</ele>
      </trkpt>
      <trkpt lat="47.31499" lon="7.74091">
        <ele>952.7</ele>
      </trkpt>
      <trkpt lat="47.31516" lon="7.74107">
        <ele>950.4</ele>
      </trkpt>
      <trkpt lat="47.31535" lon="7.74128">
        <ele>948</ele>
      </trkpt>
      <trkpt lat="47.31559" lon="7.74156">
        <ele>947.4</ele>
      </trkpt>
      <trkpt lat="47.31578" lon="7.74183">
        <ele>946.6</ele>
      </trkpt>
      <trkpt lat="47.31595" lon="7.74203">
        <ele>943.1</ele>
      </trkpt>
      <trkpt lat="47.31608" lon="7.74207">
        <ele>941.8</ele>
      </trkpt>
      <trkpt lat="47.31627" lon="7.74207">
        <ele>941.1</ele>
      </trkpt>
      <trkpt lat="47.31654" lon="7.74208">
        <ele>940</ele>
      </trkpt>
      <trkpt lat="47.31658" lon="7.74208">
        <ele>939.8</ele>
      </trkpt>
      <trkpt lat="47.31677" lon="7.74213">
        <ele>937.9</ele>
      </trkpt>
      <trkpt lat="47.31686" lon="7.74211">
        <ele>936.6</ele>
      </trkpt>
      <trkpt lat="47.31694" lon="7.74208">
        <ele>935.3</ele>
      </trkpt>
      <trkpt lat="47.31704" lon="7.74204">
        <ele>934</ele>
      </trkpt>
      <trkpt lat="47.31745" lon="7.74182">
        <ele>927.8</ele>
      </trkpt>
      <trkpt lat="47.31783" lon="7.74174">
        <ele>924.3</ele>
      </trkpt>
      <trkpt lat="47.31792" lon="7.7418">
        <ele>923.7</ele>
      </trkpt>
      <trkpt lat="47.31847" lon="7.74193">
        <ele>922.3</ele>
      </trkpt>
      <trkpt lat="47.31886" lon="7.7421">
        <ele>927.3</ele>
      </trkpt>
      <trkpt lat="47.31982" lon="7.74261">
        <ele>936.5</ele>
      </trkpt>
      <trkpt lat="47.31985" lon="7.74267">
        <ele>937.3</ele>
      </trkpt>
      <trkpt lat="47.32016" lon="7.74342">
        <ele>939.8</ele>
      </trkpt>
      <trkpt lat="47.32033" lon="7.74405">
        <ele>942.3</ele>
      </trkpt>
      <trkpt lat="47.32067" lon="7.74505">
        <ele>947.8</ele>
      </trkpt>
      <trkpt lat="47.32075" lon="7.74544">
        <ele>943.4</ele>
      </trkpt>
      <trkpt lat="47.32085" lon="7.74564">
        <ele>942.2</ele>
      </trkpt>
      <trkpt lat="47.32116" lon="7.74597">
        <ele>925.1</ele>
      </trkpt>
      <trkpt lat="47.32119" lon="7.74603">
        <ele>922.1</ele>
      </trkpt>
      <trkpt lat="47.32123" lon="7.74609">
        <ele>919.6</ele>
      </trkpt>
      <trkpt lat="47.32125" lon="7.74602">
        <ele>921.3</ele>
      </trkpt>
      <trkpt lat="47.32131" lon="7.74608">
        <ele>918.3</ele>
      </trkpt>
      <trkpt lat="47.32137" lon="7.74616">
        <ele>915</ele>
      </trkpt>
      <trkpt lat="47.3214" lon="7.74616">
        <ele>914.6</ele>
      </trkpt>
      <trkpt lat="47.32144" lon="7.74618">
        <ele>913.5</ele>
      </trkpt>
      <trkpt lat="47.32147" lon="7.74619">
        <ele>913</ele>
      </trkpt>
      <trkpt lat="47.32151" lon="7.74623">
        <ele>911.8</ele>
      </trkpt>
      <trkpt lat="47.32154" lon="7.74621">
        <ele>911.8</ele>
      </trkpt>
      <trkpt lat="47.32155" lon="7.74631">
        <ele>910</ele>
      </trkpt>
      <trkpt lat="47.32155" lon="7.7464">
        <ele>908.7</ele>
      </trkpt>
      <trkpt lat="47.32156" lon="7.74643">
        <ele>908.2</ele>
      </trkpt>
      <trkpt lat="47.32166" lon="7.74637">
        <ele>908.9</ele>
      </trkpt>
      <trkpt lat="47.32169" lon="7.74644">
        <ele>907.4</ele>
      </trkpt>
      <trkpt lat="47.32169" lon="7.74655">
        <ele>906.1</ele>
      </trkpt>
      <trkpt lat="47.32171" lon="7.74649">
        <ele>905.5</ele>
      </trkpt>
      <trkpt lat="47.32174" lon="7.74666">
        <ele>902.5</ele>
      </trkpt>
      <trkpt lat="47.32175" lon="7.74672">
        <ele>900.5</ele>
      </trkpt>
      <trkpt lat="47.32173" lon="7.7468">
        <ele>898.3</ele>
      </trkpt>
      <trkpt lat="47.32176" lon="7.7469">
        <ele>893.1</ele>
      </trkpt>
      <trkpt lat="47.32177" lon="7.74711">
        <ele>885.7</ele>
      </trkpt>
      <trkpt lat="47.32179" lon="7.74716">
        <ele>882.8</ele>
      </trkpt>
      <trkpt lat="47.32181" lon="7.7472">
        <ele>880.6</ele>
      </trkpt>
      <trkpt lat="47.32188" lon="7.74724">
        <ele>876.8</ele>
      </trkpt>
      <trkpt lat="47.32193" lon="7.74732">
        <ele>872.1</ele>
      </trkpt>
      <trkpt lat="47.32199" lon="7.74731">
        <ele>870.2</ele>
      </trkpt>
      <trkpt lat="47.32204" lon="7.74727">
        <ele>869.5</ele>
      </trkpt>
      <trkpt lat="47.3221" lon="7.74729">
        <ele>866.9</ele>
      </trkpt>
      <trkpt lat="47.32215" lon="7.74729">
        <ele>865.2</ele>
      </trkpt>
      <trkpt lat="47.32218" lon="7.74724">
        <ele>865.3</ele>
      </trkpt>
      <trkpt lat="47.32228" lon="7.74709">
        <ele>865.9</ele>
      </trkpt>
      <trkpt lat="47.32234" lon="7.74695">
        <ele>866.8</ele>
      </trkpt>
      <trkpt lat="47.32237" lon="7.74694">
        <ele>866</ele>
      </trkpt>
      <trkpt lat="47.32239" lon="7.74696">
        <ele>864.7</ele>
      </trkpt>
      <trkpt lat="47.32239" lon="7.74705">
        <ele>862.2</ele>
      </trkpt>
      <trkpt lat="47.32241" lon="7.74712">
        <ele>859.7</ele>
      </trkpt>
      <trkpt lat="47.32241" lon="7.74724">
        <ele>856.7</ele>
      </trkpt>
      <trkpt lat="47.32241" lon="7.74735">
        <ele>853.8</ele>
      </trkpt>
      <trkpt lat="47.32242" lon="7.74742">
        <ele>851.7</ele>
      </trkpt>
      <trkpt lat="47.32244" lon="7.74748">
        <ele>849.5</ele>
      </trkpt>
      <trkpt lat="47.32248" lon="7.7475">
        <ele>847.9</ele>
      </trkpt>
      <trkpt lat="47.32278" lon="7.74758">
        <ele>840.6</ele>
      </trkpt>
      <trkpt lat="47.32283" lon="7.74762">
        <ele>839.1</ele>
      </trkpt>
      <trkpt lat="47.32302" lon="7.7479">
        <ele>830.8</ele>
      </trkpt>
      <trkpt lat="47.32323" lon="7.74815">
        <ele>822.9</ele>
      </trkpt>
      <trkpt lat="47.32328" lon="7.7482">
        <ele>821.3</ele>
      </trkpt>
      <trkpt lat="47.32333" lon="7.7482">
        <ele>820.3</ele>
      </trkpt>
      <trkpt lat="47.32338" lon="7.7482">
        <ele>820.1</ele>
      </trkpt>
      <trkpt lat="47.32362" lon="7.7481">
        <ele>820.1</ele>
      </trkpt>
      <trkpt lat="47.32375" lon="7.74809">
        <ele>819.5</ele>
      </trkpt>
      <trkpt lat="47.32436" lon="7.74811">
        <ele>817.3</ele>
      </trkpt>
      <trkpt lat="47.32445" lon="7.74809">
        <ele>817.8</ele>
      </trkpt>
      <trkpt lat="47.32451" lon="7.74809">
        <ele>817.9</ele>
      </trkpt>
      <trkpt lat="47.32458" lon="7.74812">
        <ele>817.9</ele>
      </trkpt>
      <trkpt lat="47.32465" lon="7.74817">
        <ele>817.7</ele>
      </trkpt>
      <trkpt lat="47.32479" lon="7.74829">
        <ele>817.3</ele>
      </trkpt>
      <trkpt lat="47.32499" lon="7.7484">
        <ele>817</ele>
      </trkpt>
      <trkpt lat="47.32515" lon="7.74854">
        <ele>815.4</ele>
      </trkpt>
      <trkpt lat="47.32533" lon="7.74875">
        <ele>814.2</ele>
      </trkpt>
      <trkpt lat="47.32538" lon="7.74883">
        <ele>814</ele>
      </trkpt>
      <trkpt lat="47.3254" lon="7.74893">
        <ele>813.6</ele>
      </trkpt>
      <trkpt lat="47.32543" lon="7.74915">
        <ele>812.8</ele>
      </trkpt>
      <trkpt lat="47.3254" lon="7.74948">
        <ele>810.5</ele>
      </trkpt>
      <trkpt lat="47.32543" lon="7.74969">
        <ele>810</ele>
      </trkpt>
      <trkpt lat="47.32554" lon="7.75028">
        <ele>810.6</ele>
      </trkpt>
      <trkpt lat="47.32559" lon="7.75051">
        <ele>811.8</ele>
      </trkpt>
      <trkpt lat="47.32559" lon="7.75064">
        <ele>811.7</ele>
      </trkpt>
      <trkpt lat="47.32564" lon="7.75086">
        <ele>813</ele>
      </trkpt>
      <trkpt lat="47.32565" lon="7.75094">
        <ele>813.7</ele>
      </trkpt>
      <trkpt lat="47.32565" lon="7.75107">
        <ele>814.4</ele>
      </trkpt>
      <trkpt lat="47.32566" lon="7.75113">
        <ele>814.8</ele>
      </trkpt>
      <trkpt lat="47.32563" lon="7.75131">
        <ele>814.8</ele>
      </trkpt>
      <trkpt lat="47.32557" lon="7.75156">
        <ele>814</ele>
      </trkpt>
      <trkpt lat="47.32548" lon="7.75188">
        <ele>811.3</ele>
      </trkpt>
      <trkpt lat="47.32547" lon="7.75198">
        <ele>810.6</ele>
      </trkpt>
      <trkpt lat="47.32547" lon="7.75207">
        <ele>810.4</ele>
      </trkpt>
      <trkpt lat="47.32547" lon="7.75219">
        <ele>810.5</ele>
      </trkpt>
      <trkpt lat="47.32549" lon="7.75227">
        <ele>811.1</ele>
      </trkpt>
      <trkpt lat="47.32552" lon="7.75238">
        <ele>812</ele>
      </trkpt>
      <trkpt lat="47.32564" lon="7.7528">
        <ele>815.8</ele>
      </trkpt>
      <trkpt lat="47.32568" lon="7.75293">
        <ele>817.2</ele>
      </trkpt>
      <trkpt lat="47.32572" lon="7.75303">
        <ele>818.6</ele>
      </trkpt>
      <trkpt lat="47.32576" lon="7.75322">
        <ele>819.9</ele>
      </trkpt>
      <trkpt lat="47.32579" lon="7.75341">
        <ele>821.2</ele>
      </trkpt>
      <trkpt lat="47.32579" lon="7.75343">
        <ele>821.4</ele>
      </trkpt>
      <trkpt lat="47.32579" lon="7.75354">
        <ele>822.4</ele>
      </trkpt>
      <trkpt lat="47.32579" lon="7.75366">
        <ele>823.2</ele>
      </trkpt>
      <trkpt lat="47.32569" lon="7.75464">
        <ele>826.3</ele>
      </trkpt>
      <trkpt lat="47.32569" lon="7.75477">
        <ele>826.8</ele>
      </trkpt>
      <trkpt lat="47.32569" lon="7.75487">
        <ele>827.3</ele>
      </trkpt>
      <trkpt lat="47.32569" lon="7.75522">
        <ele>826.4</ele>
      </trkpt>
      <trkpt lat="47.3257" lon="7.7554">
        <ele>825.4</ele>
      </trkpt>
      <trkpt lat="47.32572" lon="7.75556">
        <ele>824.6</ele>
      </trkpt>
      <trkpt lat="47.32577" lon="7.75592">
        <ele>822.4</ele>
      </trkpt>
      <trkpt lat="47.32588" lon="7.75652">
        <ele>814.7</ele>
      </trkpt>
      <trkpt lat="47.32593" lon="7.75684">
        <ele>811.2</ele>
      </trkpt>
      <trkpt lat="47.32596" lon="7.757">
        <ele>809.8</ele>
      </trkpt>
      <trkpt lat="47.32596" lon="7.75709">
        <ele>809</ele>
      </trkpt>
      <trkpt lat="47.32596" lon="7.75716">
        <ele>808.2</ele>
      </trkpt>
      <trkpt lat="47.32596" lon="7.75727">
        <ele>807.1</ele>
      </trkpt>
      <trkpt lat="47.32595" lon="7.7574">
        <ele>806</ele>
      </trkpt>
      <trkpt lat="47.32592" lon="7.7575">
        <ele>805.3</ele>
      </trkpt>
      <trkpt lat="47.32594" lon="7.75759">
        <ele>804.6</ele>
      </trkpt>
      <trkpt lat="47.32596" lon="7.7577">
        <ele>803.8</ele>
      </trkpt>
      <trkpt lat="47.32598" lon="7.75777">
        <ele>803.3</ele>
      </trkpt>
      <trkpt lat="47.32601" lon="7.75791">
        <ele>802.3</ele>
      </trkpt>
      <trkpt lat="47.32604" lon="7.75807">
        <ele>801.2</ele>
      </trkpt>
      <trkpt lat="47.32609" lon="7.75827">
        <ele>799.8</ele>
      </trkpt>
      <trkpt lat="47.32615" lon="7.75848">
        <ele>799.5</ele>
      </trkpt>
      <trkpt lat="47.32618" lon="7.75856">
        <ele>799.6</ele>
      </trkpt>
      <trkpt lat="47.3262" lon="7.7586">
        <ele>799.6</ele>
      </trkpt>
      <trkpt lat="47.32623" lon="7.75861">
        <ele>799.6</ele>
      </trkpt>
      <trkpt lat="47.32626" lon="7.75861">
        <ele>799.5</ele>
      </trkpt>
      <trkpt lat="47.32629" lon="7.75861">
        <ele>799.3</ele>
      </trkpt>
      <trkpt lat="47.32632" lon="7.75858">
        <ele>799.1</ele>
      </trkpt>
      <trkpt lat="47.32635" lon="7.75853">
        <ele>798.8</ele>
      </trkpt>
      <trkpt lat="47.32638" lon="7.75856">
        <ele>798.8</ele>
      </trkpt>
      <trkpt lat="47.32642" lon="7.75868">
        <ele>799.2</ele>
      </trkpt>
      <trkpt lat="47.32645" lon="7.75878">
        <ele>799.7</ele>
      </trkpt>
      <trkpt lat="47.32649" lon="7.75892">
        <ele>800.4</ele>
      </trkpt>
      <trkpt lat="47.32654" lon="7.75916">
        <ele>801.8</ele>
      </trkpt>
      <trkpt lat="47.32657" lon="7.75933">
        <ele>802.9</ele>
      </trkpt>
      <trkpt lat="47.32661" lon="7.7596">
        <ele>804.8</ele>
      </trkpt>
      <trkpt lat="47.32674" lon="7.7603">
        <ele>808.7</ele>
      </trkpt>
      <trkpt lat="47.32682" lon="7.7607">
        <ele>810.3</ele>
      </trkpt>
      <trkpt lat="47.32684" lon="7.76087">
        <ele>810.9</ele>
      </trkpt>
      <trkpt lat="47.32687" lon="7.76114">
        <ele>810.9</ele>
      </trkpt>
      <trkpt lat="47.32692" lon="7.76148">
        <ele>811.1</ele>
      </trkpt>
      <trkpt lat="47.32695" lon="7.76182">
        <ele>811.6</ele>
      </trkpt>
      <trkpt lat="47.32698" lon="7.76197">
        <ele>811.3</ele>
      </trkpt>
      <trkpt lat="47.32702" lon="7.76218">
        <ele>811.2</ele>
      </trkpt>
      <trkpt lat="47.32703" lon="7.76231">
        <ele>811.4</ele>
      </trkpt>
      <trkpt lat="47.32703" lon="7.76252">
        <ele>812.3</ele>
      </trkpt>
      <trkpt lat="47.32703" lon="7.76267">
        <ele>813.8</ele>
      </trkpt>
      <trkpt lat="47.32704" lon="7.76278">
        <ele>815</ele>
      </trkpt>
      <trkpt lat="47.32706" lon="7.76292">
        <ele>816.4</ele>
      </trkpt>
      <trkpt lat="47.32706" lon="7.76297">
        <ele>816.9</ele>
      </trkpt>
      <trkpt lat="47.32708" lon="7.76308">
        <ele>818.1</ele>
      </trkpt>
      <trkpt lat="47.3271" lon="7.76327">
        <ele>820.3</ele>
      </trkpt>
      <trkpt lat="47.3271" lon="7.76336">
        <ele>821.2</ele>
      </trkpt>
      <trkpt lat="47.3271" lon="7.76367">
        <ele>823.3</ele>
      </trkpt>
      <trkpt lat="47.3271" lon="7.76412">
        <ele>826.3</ele>
      </trkpt>
      <trkpt lat="47.3271" lon="7.76462">
        <ele>827.5</ele>
      </trkpt>
      <trkpt lat="47.32714" lon="7.76504">
        <ele>828.8</ele>
      </trkpt>
      <trkpt lat="47.32724" lon="7.76547">
        <ele>830.8</ele>
      </trkpt>
      <trkpt lat="47.32733" lon="7.7662">
        <ele>833.9</ele>
      </trkpt>
      <trkpt lat="47.32738" lon="7.76649">
        <ele>835.7</ele>
      </trkpt>
      <trkpt lat="47.32752" lon="7.76714">
        <ele>839.5</ele>
      </trkpt>
      <trkpt lat="47.32759" lon="7.76779">
        <ele>840.7</ele>
      </trkpt>
      <trkpt lat="47.32765" lon="7.7684">
        <ele>841</ele>
      </trkpt>
      <trkpt lat="47.32767" lon="7.76843">
        <ele>840.6</ele>
      </trkpt>
      <trkpt lat="47.32779" lon="7.76864">
        <ele>839</ele>
      </trkpt>
      <trkpt lat="47.32795" lon="7.76911">
        <ele>838</ele>
      </trkpt>
      <trkpt lat="47.32801" lon="7.7693">
        <ele>837.1</ele>
      </trkpt>
      <trkpt lat="47.32825" lon="7.76977">
        <ele>838.4</ele>
      </trkpt>
      <trkpt lat="47.32883" lon="7.77076">
        <ele>844.4</ele>
      </trkpt>
      <trkpt lat="47.32914" lon="7.77151">
        <ele>858.1</ele>
      </trkpt>
      <trkpt lat="47.32921" lon="7.77168">
        <ele>860.8</ele>
      </trkpt>
      <trkpt lat="47.32943" lon="7.77197">
        <ele>861.2</ele>
      </trkpt>
      <trkpt lat="47.32951" lon="7.77217">
        <ele>862.4</ele>
      </trkpt>
      <trkpt lat="47.32964" lon="7.77262">
        <ele>864.2</ele>
      </trkpt>
      <trkpt lat="47.32977" lon="7.7729">
        <ele>863.1</ele>
      </trkpt>
      <trkpt lat="47.32997" lon="7.77322">
        <ele>863.9</ele>
      </trkpt>
      <trkpt lat="47.33017" lon="7.77359">
        <ele>857.3</ele>
      </trkpt>
      <trkpt lat="47.33033" lon="7.77397">
        <ele>852.1</ele>
      </trkpt>
      <trkpt lat="47.33062" lon="7.77459">
        <ele>848</ele>
      </trkpt>
      <trkpt lat="47.33078" lon="7.775">
        <ele>848.1</ele>
      </trkpt>
      <trkpt lat="47.33093" lon="7.77543">
        <ele>847.8</ele>
      </trkpt>
      <trkpt lat="47.33099" lon="7.77569">
        <ele>848.2</ele>
      </trkpt>
      <trkpt lat="47.33101" lon="7.77587">
        <ele>849.3</ele>
      </trkpt>
      <trkpt lat="47.33106" lon="7.77631">
        <ele>852.5</ele>
      </trkpt>
      <trkpt lat="47.33109" lon="7.7767">
        <ele>855.6</ele>
      </trkpt>
      <trkpt lat="47.33109" lon="7.77704">
        <ele>857.9</ele>
      </trkpt>
      <trkpt lat="47.33105" lon="7.7778">
        <ele>860.6</ele>
      </trkpt>
      <trkpt lat="47.33109" lon="7.77812">
        <ele>859.5</ele>
      </trkpt>
      <trkpt lat="47.33118" lon="7.77845">
        <ele>859.1</ele>
      </trkpt>
      <trkpt lat="47.33165" lon="7.77973">
        <ele>868.6</ele>
      </trkpt>
      <trkpt lat="47.33188" lon="7.78056">
        <ele>870.3</ele>
      </trkpt>
      <trkpt lat="47.33192" lon="7.781">
        <ele>871.7</ele>
      </trkpt>
      <trkpt lat="47.33196" lon="7.78135">
        <ele>873.8</ele>
      </trkpt>
      <trkpt lat="47.3328" lon="7.78267">
        <ele>883.2</ele>
      </trkpt>
      <trkpt lat="47.33296" lon="7.7828">
        <ele>884.5</ele>
      </trkpt>
      <trkpt lat="47.3335" lon="7.78277">
        <ele>897.2</ele>
      </trkpt>
      <trkpt lat="47.33359" lon="7.78271">
        <ele>900.1</ele>
      </trkpt>
      <trkpt lat="47.33383" lon="7.78236">
        <ele>906.5</ele>
      </trkpt>
      <trkpt lat="47.33395" lon="7.78223">
        <ele>908.7</ele>
      </trkpt>
      <trkpt lat="47.33415" lon="7.78204">
        <ele>913.2</ele>
      </trkpt>
      <trkpt lat="47.33423" lon="7.78199">
        <ele>913.9</ele>
      </trkpt>
      <trkpt lat="47.33431" lon="7.78198">
        <ele>914.9</ele>
      </trkpt>
      <trkpt lat="47.33445" lon="7.78207">
        <ele>917.1</ele>
      </trkpt>
      <trkpt lat="47.33489" lon="7.78283">
        <ele>919.5</ele>
      </trkpt>
      <trkpt lat="47.33508" lon="7.78301">
        <ele>915.1</ele>
      </trkpt>
      <trkpt lat="47.33522" lon="7.78334">
        <ele>908.2</ele>
      </trkpt>
      <trkpt lat="47.33546" lon="7.78374">
        <ele>900</ele>
      </trkpt>
      <trkpt lat="47.33556" lon="7.78397">
        <ele>897.1</ele>
      </trkpt>
      <trkpt lat="47.33569" lon="7.78419">
        <ele>893.6</ele>
      </trkpt>
      <trkpt lat="47.33578" lon="7.78427">
        <ele>891.3</ele>
      </trkpt>
      <trkpt lat="47.33585" lon="7.78442">
        <ele>889.5</ele>
      </trkpt>
      <trkpt lat="47.33595" lon="7.78456">
        <ele>884.3</ele>
      </trkpt>
      <trkpt lat="47.33616" lon="7.78484">
        <ele>874.2</ele>
      </trkpt>
      <trkpt lat="47.33622" lon="7.78483">
        <ele>870.9</ele>
      </trkpt>
      <trkpt lat="47.33628" lon="7.785">
        <ele>868.2</ele>
      </trkpt>
      <trkpt lat="47.33633" lon="7.78513">
        <ele>866.7</ele>
      </trkpt>
      <trkpt lat="47.33677" lon="7.78608">
        <ele>853.2</ele>
      </trkpt>
      <trkpt lat="47.33677" lon="7.78602">
        <ele>852.6</ele>
      </trkpt>
      <trkpt lat="47.33676" lon="7.78593">
        <ele>852.2</ele>
      </trkpt>
      <trkpt lat="47.3367" lon="7.78575">
        <ele>852.4</ele>
      </trkpt>
      <trkpt lat="47.33667" lon="7.78562">
        <ele>852.4</ele>
      </trkpt>
      <trkpt lat="47.33665" lon="7.78547">
        <ele>852.1</ele>
      </trkpt>
      <trkpt lat="47.33663" lon="7.7853">
        <ele>851.3</ele>
      </trkpt>
      <trkpt lat="47.33662" lon="7.78508">
        <ele>849.8</ele>
      </trkpt>
      <trkpt lat="47.33663" lon="7.78477">
        <ele>846.6</ele>
      </trkpt>
      <trkpt lat="47.33665" lon="7.7846">
        <ele>844</ele>
      </trkpt>
      <trkpt lat="47.33666" lon="7.78441">
        <ele>842.1</ele>
      </trkpt>
      <trkpt lat="47.33666" lon="7.78433">
        <ele>841.5</ele>
      </trkpt>
      <trkpt lat="47.3367" lon="7.7843">
        <ele>839.3</ele>
      </trkpt>
      <trkpt lat="47.33675" lon="7.78434">
        <ele>837.4</ele>
      </trkpt>
      <trkpt lat="47.33679" lon="7.7844">
        <ele>835.9</ele>
      </trkpt>
      <trkpt lat="47.33681" lon="7.78445">
        <ele>835.5</ele>
      </trkpt>
      <trkpt lat="47.33688" lon="7.78461">
        <ele>833</ele>
      </trkpt>
      <trkpt lat="47.33699" lon="7.7848">
        <ele>829.6</ele>
      </trkpt>
      <trkpt lat="47.33706" lon="7.78493">
        <ele>827</ele>
      </trkpt>
      <trkpt lat="47.33711" lon="7.78504">
        <ele>825.9</ele>
      </trkpt>
      <trkpt lat="47.33717" lon="7.78524">
        <ele>825</ele>
      </trkpt>
      <trkpt lat="47.33727" lon="7.78549">
        <ele>823.3</ele>
      </trkpt>
      <trkpt lat="47.3374" lon="7.78582">
        <ele>820.7</ele>
      </trkpt>
      <trkpt lat="47.33746" lon="7.78602">
        <ele>818.7</ele>
      </trkpt>
      <trkpt lat="47.33752" lon="7.78617">
        <ele>816.5</ele>
      </trkpt>
      <trkpt lat="47.33758" lon="7.78628">
        <ele>814.5</ele>
      </trkpt>
      <trkpt lat="47.33767" lon="7.78651">
        <ele>811.1</ele>
      </trkpt>
      <trkpt lat="47.33769" lon="7.78655">
        <ele>810.4</ele>
      </trkpt>
      <trkpt lat="47.33776" lon="7.78672">
        <ele>808.5</ele>
      </trkpt>
      <trkpt lat="47.33783" lon="7.78691">
        <ele>807.2</ele>
      </trkpt>
      <trkpt lat="47.33788" lon="7.78707">
        <ele>806.4</ele>
      </trkpt>
      <trkpt lat="47.33797" lon="7.78737">
        <ele>804.9</ele>
      </trkpt>
      <trkpt lat="47.33803" lon="7.78755">
        <ele>803.6</ele>
      </trkpt>
      <trkpt lat="47.33806" lon="7.78764">
        <ele>803</ele>
      </trkpt>
      <trkpt lat="47.33811" lon="7.78781">
        <ele>801.9</ele>
      </trkpt>
      <trkpt lat="47.33817" lon="7.78799">
        <ele>799.8</ele>
      </trkpt>
      <trkpt lat="47.3382" lon="7.78805">
        <ele>799</ele>
      </trkpt>
      <trkpt lat="47.33821" lon="7.78811">
        <ele>798.3</ele>
      </trkpt>
      <trkpt lat="47.33823" lon="7.78818">
        <ele>797.8</ele>
      </trkpt>
      <trkpt lat="47.33826" lon="7.78834">
        <ele>797</ele>
      </trkpt>
      <trkpt lat="47.33828" lon="7.78851">
        <ele>797.8</ele>
      </trkpt>
      <trkpt lat="47.3383" lon="7.78871">
        <ele>798.8</ele>
      </trkpt>
      <trkpt lat="47.33832" lon="7.78886">
        <ele>799.1</ele>
      </trkpt>
      <trkpt lat="47.33835" lon="7.78901">
        <ele>799.7</ele>
      </trkpt>
      <trkpt lat="47.33837" lon="7.7891">
        <ele>800.4</ele>
      </trkpt>
      <trkpt lat="47.3384" lon="7.78919">
        <ele>800.6</ele>
      </trkpt>
      <trkpt lat="47.33846" lon="7.78932">
        <ele>800.2</ele>
      </trkpt>
      <trkpt lat="47.3385" lon="7.78941">
        <ele>799.9</ele>
      </trkpt>
      <trkpt lat="47.33855" lon="7.78946">
        <ele>799.1</ele>
      </trkpt>
      <trkpt lat="47.33857" lon="7.78948">
        <ele>798.5</ele>
      </trkpt>
      <trkpt lat="47.3386" lon="7.78948">
        <ele>797.6</ele>
      </trkpt>
      <trkpt lat="47.33865" lon="7.78948">
        <ele>795.8</ele>
      </trkpt>
      <trkpt lat="47.33865" lon="7.78943">
        <ele>795.5</ele>
      </trkpt>
      <trkpt lat="47.33864" lon="7.78925">
        <ele>794.2</ele>
      </trkpt>
      <trkpt lat="47.33864" lon="7.78916">
        <ele>793.4</ele>
      </trkpt>
      <trkpt lat="47.33865" lon="7.78908">
        <ele>792.5</ele>
      </trkpt>
      <trkpt lat="47.33867" lon="7.78903">
        <ele>791.7</ele>
      </trkpt>
      <trkpt lat="47.33868" lon="7.78899">
        <ele>791.1</ele>
      </trkpt>
      <trkpt lat="47.33871" lon="7.78892">
        <ele>789.9</ele>
      </trkpt>
      <trkpt lat="47.33873" lon="7.78887">
        <ele>789</ele>
      </trkpt>
      <trkpt lat="47.33878" lon="7.78883">
        <ele>787.7</ele>
      </trkpt>
      <trkpt lat="47.33897" lon="7.78871">
        <ele>782.7</ele>
      </trkpt>
      <trkpt lat="47.33929" lon="7.78856">
        <ele>778.7</ele>
      </trkpt>
      <trkpt lat="47.3393" lon="7.78866">
        <ele>778.8</ele>
      </trkpt>
      <trkpt lat="47.33933" lon="7.78888">
        <ele>779.1</ele>
      </trkpt>
      <trkpt lat="47.33942" lon="7.78889">
        <ele>779.3</ele>
      </trkpt>
      <trkpt lat="47.33952" lon="7.78891">
        <ele>779.5</ele>
      </trkpt>
      <trkpt lat="47.3396" lon="7.78893">
        <ele>779.7</ele>
      </trkpt>
      <trkpt lat="47.33968" lon="7.78894">
        <ele>779.8</ele>
      </trkpt>
      <trkpt lat="47.33978" lon="7.78894">
        <ele>780.1</ele>
      </trkpt>
      <trkpt lat="47.33987" lon="7.78894">
        <ele>780.3</ele>
      </trkpt>
      <trkpt lat="47.33996" lon="7.78896">
        <ele>780.4</ele>
      </trkpt>
      <trkpt lat="47.34005" lon="7.78898">
        <ele>781.2</ele>
      </trkpt>
      <trkpt lat="47.34012" lon="7.78902">
        <ele>782.2</ele>
      </trkpt>
      <trkpt lat="47.34017" lon="7.78905">
        <ele>782.8</ele>
      </trkpt>
      <trkpt lat="47.3402" lon="7.78908">
        <ele>783.1</ele>
      </trkpt>
      <trkpt lat="47.34023" lon="7.78913">
        <ele>783.4</ele>
      </trkpt>
      <trkpt lat="47.34025" lon="7.78918">
        <ele>783.5</ele>
      </trkpt>
      <trkpt lat="47.34049" lon="7.7899">
        <ele>782.2</ele>
      </trkpt>
      <trkpt lat="47.34077" lon="7.79065">
        <ele>780.7</ele>
      </trkpt>
      <trkpt lat="47.34081" lon="7.79076">
        <ele>780.3</ele>
      </trkpt>
      <trkpt lat="47.34092" lon="7.7911">
        <ele>780.2</ele>
      </trkpt>
      <trkpt lat="47.34117" lon="7.79192">
        <ele>779.2</ele>
      </trkpt>
      <trkpt lat="47.34138" lon="7.7926">
        <ele>775.5</ele>
      </trkpt>
      <trkpt lat="47.34151" lon="7.79303">
        <ele>773.4</ele>
      </trkpt>
      <trkpt lat="47.34162" lon="7.79334">
        <ele>772.3</ele>
      </trkpt>
      <trkpt lat="47.34168" lon="7.79349">
        <ele>771.9</ele>
      </trkpt>
      <trkpt lat="47.34177" lon="7.79376">
        <ele>770.9</ele>
      </trkpt>
      <trkpt lat="47.34187" lon="7.79398">
        <ele>770.1</ele>
      </trkpt>
      <trkpt lat="47.34192" lon="7.79408">
        <ele>769.9</ele>
      </trkpt>
      <trkpt lat="47.34198" lon="7.79418">
        <ele>769.6</ele>
      </trkpt>
      <trkpt lat="47.34207" lon="7.79435">
        <ele>769.1</ele>
      </trkpt>
      <trkpt lat="47.34216" lon="7.79452">
        <ele>768.7</ele>
      </trkpt>
      <trkpt lat="47.3423" lon="7.79477">
        <ele>768.1</ele>
      </trkpt>
      <trkpt lat="47.34241" lon="7.79499">
        <ele>767.8</ele>
      </trkpt>
      <trkpt lat="47.3425" lon="7.79515">
        <ele>767.5</ele>
      </trkpt>
      <trkpt lat="47.34257" lon="7.79526">
        <ele>767</ele>
      </trkpt>
      <trkpt lat="47.34263" lon="7.79535">
        <ele>766.5</ele>
      </trkpt>
      <trkpt lat="47.34268" lon="7.7954">
        <ele>766.2</ele>
      </trkpt>
      <trkpt lat="47.34272" lon="7.79545">
        <ele>766</ele>
      </trkpt>
      <trkpt lat="47.3428" lon="7.79552">
        <ele>765.7</ele>
      </trkpt>
      <trkpt lat="47.34296" lon="7.79561">
        <ele>765.3</ele>
      </trkpt>
      <trkpt lat="47.34303" lon="7.79568">
        <ele>764.8</ele>
      </trkpt>
      <trkpt lat="47.34311" lon="7.79576">
        <ele>764.1</ele>
      </trkpt>
      <trkpt lat="47.34321" lon="7.79586">
        <ele>763.3</ele>
      </trkpt>
      <trkpt lat="47.3433" lon="7.79595">
        <ele>762.9</ele>
      </trkpt>
      <trkpt lat="47.34333" lon="7.79597">
        <ele>762.9</ele>
      </trkpt>
      <trkpt lat="47.34336" lon="7.79597">
        <ele>762.7</ele>
      </trkpt>
      <trkpt lat="47.34339" lon="7.79596">
        <ele>762.5</ele>
      </trkpt>
      <trkpt lat="47.34341" lon="7.79595">
        <ele>762.4</ele>
      </trkpt>
      <trkpt lat="47.34347" lon="7.79591">
        <ele>762.4</ele>
      </trkpt>
      <trkpt lat="47.34356" lon="7.79581">
        <ele>763.1</ele>
      </trkpt>
      <trkpt lat="47.34369" lon="7.79564">
        <ele>765.6</ele>
      </trkpt>
      <trkpt lat="47.34379" lon="7.79554">
        <ele>767.3</ele>
      </trkpt>
      <trkpt lat="47.34386" lon="7.79548">
        <ele>768.4</ele>
      </trkpt>
      <trkpt lat="47.34395" lon="7.79541">
        <ele>769.8</ele>
      </trkpt>
      <trkpt lat="47.34402" lon="7.79536">
        <ele>770.9</ele>
      </trkpt>
      <trkpt lat="47.3441" lon="7.79529">
        <ele>772.7</ele>
      </trkpt>
      <trkpt lat="47.34417" lon="7.79524">
        <ele>774</ele>
      </trkpt>
      <trkpt lat="47.34425" lon="7.79519">
        <ele>775.3</ele>
      </trkpt>
      <trkpt lat="47.34431" lon="7.79516">
        <ele>776.3</ele>
      </trkpt>
      <trkpt lat="47.34448" lon="7.79509">
        <ele>778.6</ele>
      </trkpt>
      <trkpt lat="47.34461" lon="7.79505">
        <ele>779.7</ele>
      </trkpt>
      <trkpt lat="47.34479" lon="7.79504">
        <ele>780.6</ele>
      </trkpt>
      <trkpt lat="47.34497" lon="7.79504">
        <ele>781</ele>
      </trkpt>
      <trkpt lat="47.34503" lon="7.79501">
        <ele>781.6</ele>
      </trkpt>
      <trkpt lat="47.34508" lon="7.79497">
        <ele>782.4</ele>
      </trkpt>
      <trkpt lat="47.34518" lon="7.79489">
        <ele>784.7</ele>
      </trkpt>
      <trkpt lat="47.34523" lon="7.79485">
        <ele>785.8</ele>
      </trkpt>
      <trkpt lat="47.34529" lon="7.79478">
        <ele>787.5</ele>
      </trkpt>
      <trkpt lat="47.34534" lon="7.79475">
        <ele>788.4</ele>
      </trkpt>
      <trkpt lat="47.34538" lon="7.79475">
        <ele>788.1</ele>
      </trkpt>
      <trkpt lat="47.34542" lon="7.79477">
        <ele>787.5</ele>
      </trkpt>
      <trkpt lat="47.34548" lon="7.79481">
        <ele>786</ele>
      </trkpt>
      <trkpt lat="47.34555" lon="7.79486">
        <ele>783.9</ele>
      </trkpt>
      <trkpt lat="47.34562" lon="7.79495">
        <ele>780.8</ele>
      </trkpt>
      <trkpt lat="47.3457" lon="7.79503">
        <ele>778.6</ele>
      </trkpt>
      <trkpt lat="47.34573" lon="7.79504">
        <ele>778.5</ele>
      </trkpt>
      <trkpt lat="47.34583" lon="7.79506">
        <ele>778.2</ele>
      </trkpt>
      <trkpt lat="47.34596" lon="7.79511">
        <ele>778.2</ele>
      </trkpt>
      <trkpt lat="47.34604" lon="7.79513">
        <ele>778.1</ele>
      </trkpt>
      <trkpt lat="47.34623" lon="7.79512">
        <ele>777.9</ele>
      </trkpt>
      <trkpt lat="47.34641" lon="7.7951">
        <ele>777.7</ele>
      </trkpt>
      <trkpt lat="47.34693" lon="7.79506">
        <ele>779.5</ele>
      </trkpt>
      <trkpt lat="47.34701" lon="7.79506">
        <ele>780</ele>
      </trkpt>
      <trkpt lat="47.34709" lon="7.795">
        <ele>780.6</ele>
      </trkpt>
      <trkpt lat="47.34752" lon="7.79462">
        <ele>790.9</ele>
      </trkpt>
      <trkpt lat="47.34768" lon="7.79448">
        <ele>796.6</ele>
      </trkpt>
      <trkpt lat="47.34776" lon="7.79436">
        <ele>799.3</ele>
      </trkpt>
      <trkpt lat="47.34784" lon="7.79425">
        <ele>801.3</ele>
      </trkpt>
      <trkpt lat="47.34788" lon="7.79413">
        <ele>802.8</ele>
      </trkpt>
      <trkpt lat="47.34795" lon="7.7939">
        <ele>806</ele>
      </trkpt>
      <trkpt lat="47.34796" lon="7.79388">
        <ele>806.2</ele>
      </trkpt>
      <trkpt lat="47.34798" lon="7.79385">
        <ele>806.6</ele>
      </trkpt>
      <trkpt lat="47.348" lon="7.79384">
        <ele>806.7</ele>
      </trkpt>
      <trkpt lat="47.34805" lon="7.79381">
        <ele>806.8</ele>
      </trkpt>
      <trkpt lat="47.34807" lon="7.79379">
        <ele>806.9</ele>
      </trkpt>
      <trkpt lat="47.34817" lon="7.79371">
        <ele>807</ele>
      </trkpt>
      <trkpt lat="47.34824" lon="7.79367">
        <ele>806.7</ele>
      </trkpt>
      <trkpt lat="47.34835" lon="7.79361">
        <ele>806.5</ele>
      </trkpt>
      <trkpt lat="47.34838" lon="7.79357">
        <ele>807.3</ele>
      </trkpt>
      <trkpt lat="47.34844" lon="7.79341">
        <ele>808.4</ele>
      </trkpt>
      <trkpt lat="47.34853" lon="7.79328">
        <ele>810.5</ele>
      </trkpt>
      <trkpt lat="47.34856" lon="7.7932">
        <ele>811.5</ele>
      </trkpt>
      <trkpt lat="47.34858" lon="7.79316">
        <ele>812.2</ele>
      </trkpt>
      <trkpt lat="47.34862" lon="7.79314">
        <ele>812.9</ele>
      </trkpt>
      <trkpt lat="47.34867" lon="7.79314">
        <ele>813.8</ele>
      </trkpt>
      <trkpt lat="47.34882" lon="7.79314">
        <ele>816.2</ele>
      </trkpt>
      <trkpt lat="47.34891" lon="7.79316">
        <ele>817.7</ele>
      </trkpt>
      <trkpt lat="47.34897" lon="7.79315">
        <ele>818.6</ele>
      </trkpt>
      <trkpt lat="47.34904" lon="7.79312">
        <ele>819.7</ele>
      </trkpt>
      <trkpt lat="47.34912" lon="7.79309">
        <ele>820.9</ele>
      </trkpt>
      <trkpt lat="47.34921" lon="7.79308">
        <ele>822</ele>
      </trkpt>
      <trkpt lat="47.34935" lon="7.79312">
        <ele>823.6</ele>
      </trkpt>
      <trkpt lat="47.34951" lon="7.79316">
        <ele>825.3</ele>
      </trkpt>
      <trkpt lat="47.34962" lon="7.7932">
        <ele>826.3</ele>
      </trkpt>
      <trkpt lat="47.34982" lon="7.7934">
        <ele>829.4</ele>
      </trkpt>
      <trkpt lat="47.35027" lon="7.79387">
        <ele>843.2</ele>
      </trkpt>
      <trkpt lat="47.35097" lon="7.79471">
        <ele>861.6</ele>
      </trkpt>
      <trkpt lat="47.35128" lon="7.7951">
        <ele>868.6</ele>
      </trkpt>
      <trkpt lat="47.3514" lon="7.79518">
        <ele>869.7</ele>
      </trkpt>
      <trkpt lat="47.35154" lon="7.7952">
        <ele>868</ele>
      </trkpt>
      <trkpt lat="47.3516" lon="7.79527">
        <ele>869.9</ele>
      </trkpt>
      <trkpt lat="47.35169" lon="7.79545">
        <ele>876.1</ele>
      </trkpt>
      <trkpt lat="47.35176" lon="7.79557">
        <ele>880.2</ele>
      </trkpt>
      <trkpt lat="47.35178" lon="7.79562">
        <ele>882</ele>
      </trkpt>
      <trkpt lat="47.35178" lon="7.79568">
        <ele>884.1</ele>
      </trkpt>
      <trkpt lat="47.35178" lon="7.79573">
        <ele>886.1</ele>
      </trkpt>
      <trkpt lat="47.35175" lon="7.79569">
        <ele>885.4</ele>
      </trkpt>
      <trkpt lat="47.35172" lon="7.79565">
        <ele>884.3</ele>
      </trkpt>
      <trkpt lat="47.35169" lon="7.79563">
        <ele>884.1</ele>
      </trkpt>
      <trkpt lat="47.35163" lon="7.79562">
        <ele>884.5</ele>
      </trkpt>
      <trkpt lat="47.35162" lon="7.79564">
        <ele>885.4</ele>
      </trkpt>
      <trkpt lat="47.35163" lon="7.79566">
        <ele>886.3</ele>
      </trkpt>
      <trkpt lat="47.35163" lon="7.79569">
        <ele>887.6</ele>
      </trkpt>
      <trkpt lat="47.35165" lon="7.79573">
        <ele>888.6</ele>
      </trkpt>
      <trkpt lat="47.35169" lon="7.79576">
        <ele>889.3</ele>
      </trkpt>
      <trkpt lat="47.35176" lon="7.79585">
        <ele>891.3</ele>
      </trkpt>
      <trkpt lat="47.35188" lon="7.79602">
        <ele>891.9</ele>
      </trkpt>
      <trkpt lat="47.35213" lon="7.79642">
        <ele>893</ele>
      </trkpt>
      <trkpt lat="47.3523" lon="7.79666">
        <ele>892.8</ele>
      </trkpt>
      <trkpt lat="47.35232" lon="7.79672">
        <ele>893.1</ele>
      </trkpt>
      <trkpt lat="47.35234" lon="7.79679">
        <ele>893.7</ele>
      </trkpt>
      <trkpt lat="47.35234" lon="7.7969">
        <ele>895.5</ele>
      </trkpt>
      <trkpt lat="47.35237" lon="7.79701">
        <ele>896.5</ele>
      </trkpt>
      <trkpt lat="47.35241" lon="7.79712">
        <ele>897.2</ele>
      </trkpt>
      <trkpt lat="47.35254" lon="7.79737">
        <ele>898.4</ele>
      </trkpt>
      <trkpt lat="47.35271" lon="7.79763">
        <ele>902</ele>
      </trkpt>
      <trkpt lat="47.35297" lon="7.79808">
        <ele>907.9</ele>
      </trkpt>
      <trkpt lat="47.3532" lon="7.79844">
        <ele>911.3</ele>
      </trkpt>
      <trkpt lat="47.35326" lon="7.79848">
        <ele>911.3</ele>
      </trkpt>
      <trkpt lat="47.35339" lon="7.79869">
        <ele>914.3</ele>
      </trkpt>
      <trkpt lat="47.35344" lon="7.79879">
        <ele>915.9</ele>
      </trkpt>
      <trkpt lat="47.35347" lon="7.79891">
        <ele>918</ele>
      </trkpt>
      <trkpt lat="47.35349" lon="7.79902">
        <ele>919.9</ele>
      </trkpt>
      <trkpt lat="47.35349" lon="7.79919">
        <ele>922.8</ele>
      </trkpt>
      <trkpt lat="47.35346" lon="7.79961">
        <ele>927.8</ele>
      </trkpt>
      <trkpt lat="47.35346" lon="7.7997">
        <ele>928.5</ele>
      </trkpt>
      <trkpt lat="47.35348" lon="7.7998">
        <ele>929.3</ele>
      </trkpt>
      <trkpt lat="47.35354" lon="7.79992">
        <ele>929.4</ele>
      </trkpt>
      <trkpt lat="47.35373" lon="7.8003">
        <ele>932.7</ele>
      </trkpt>
      <trkpt lat="47.35384" lon="7.80053">
        <ele>935.8</ele>
      </trkpt>
      <trkpt lat="47.35392" lon="7.80057">
        <ele>935.8</ele>
      </trkpt>
      <trkpt lat="47.35402" lon="7.80058">
        <ele>934.6</ele>
      </trkpt>
      <trkpt lat="47.35432" lon="7.80049">
        <ele>932.4</ele>
      </trkpt>
      <trkpt lat="47.35442" lon="7.80056">
        <ele>934.7</ele>
      </trkpt>
      <trkpt lat="47.35445" lon="7.80061">
        <ele>935.9</ele>
      </trkpt>
      <trkpt lat="47.35447" lon="7.80066">
        <ele>937</ele>
      </trkpt>
      <trkpt lat="47.35448" lon="7.80074">
        <ele>938.7</ele>
      </trkpt>
      <trkpt lat="47.35449" lon="7.80083">
        <ele>940.5</ele>
      </trkpt>
      <trkpt lat="47.35448" lon="7.80093">
        <ele>942.5</ele>
      </trkpt>
      <trkpt lat="47.35445" lon="7.80105">
        <ele>945</ele>
      </trkpt>
      <trkpt lat="47.35441" lon="7.80115">
        <ele>947</ele>
      </trkpt>
      <trkpt lat="47.35434" lon="7.80127">
        <ele>949.2</ele>
      </trkpt>
      <trkpt lat="47.35432" lon="7.80134">
        <ele>950.4</ele>
      </trkpt>
      <trkpt lat="47.3543" lon="7.80142">
        <ele>952</ele>
      </trkpt>
      <trkpt lat="47.35427" lon="7.8017">
        <ele>956.9</ele>
      </trkpt>
      <trkpt lat="47.35422" lon="7.80195">
        <ele>957.2</ele>
      </trkpt>
      <trkpt lat="47.35417" lon="7.80232">
        <ele>957.6</ele>
      </trkpt>
      <trkpt lat="47.35416" lon="7.80271">
        <ele>961.4</ele>
      </trkpt>
      <trkpt lat="47.35418" lon="7.80322">
        <ele>969.4</ele>
      </trkpt>
      <trkpt lat="47.3542" lon="7.80346">
        <ele>971.6</ele>
      </trkpt>
      <trkpt lat="47.35426" lon="7.80354">
        <ele>972.5</ele>
      </trkpt>
      <trkpt lat="47.35433" lon="7.80342">
        <ele>973.3</ele>
      </trkpt>
      <trkpt lat="47.35439" lon="7.80333">
        <ele>973.5</ele>
      </trkpt>
      <trkpt lat="47.35443" lon="7.80325">
        <ele>972.8</ele>
      </trkpt>
      <trkpt lat="47.35448" lon="7.8031">
        <ele>971.1</ele>
      </trkpt>
      <trkpt lat="47.35451" lon="7.80301">
        <ele>970.3</ele>
      </trkpt>
      <trkpt lat="47.35458" lon="7.80289">
        <ele>969.2</ele>
      </trkpt>
      <trkpt lat="47.35465" lon="7.80279">
        <ele>968.7</ele>
      </trkpt>
      <trkpt lat="47.3547" lon="7.80274">
        <ele>968.6</ele>
      </trkpt>
      <trkpt lat="47.35475" lon="7.80271">
        <ele>968.8</ele>
      </trkpt>
      <trkpt lat="47.35483" lon="7.80269">
        <ele>969.5</ele>
      </trkpt>
      <trkpt lat="47.35493" lon="7.80267">
        <ele>970.6</ele>
      </trkpt>
      <trkpt lat="47.35505" lon="7.80266">
        <ele>971.7</ele>
      </trkpt>
      <trkpt lat="47.35514" lon="7.80268">
        <ele>972.5</ele>
      </trkpt>
      <trkpt lat="47.35539" lon="7.80275">
        <ele>975.4</ele>
      </trkpt>
      <trkpt lat="47.35565" lon="7.80285">
        <ele>978.2</ele>
      </trkpt>
      <trkpt lat="47.35579" lon="7.8029">
        <ele>979.6</ele>
      </trkpt>
      <trkpt lat="47.3559" lon="7.80296">
        <ele>981.3</ele>
      </trkpt>
      <trkpt lat="47.35597" lon="7.80301">
        <ele>982.3</ele>
      </trkpt>
      <trkpt lat="47.35603" lon="7.80307">
        <ele>983.5</ele>
      </trkpt>
      <trkpt lat="47.35609" lon="7.80314">
        <ele>984.4</ele>
      </trkpt>
      <trkpt lat="47.35627" lon="7.80336">
        <ele>986.7</ele>
      </trkpt>
      <trkpt lat="47.35636" lon="7.80342">
        <ele>987.4</ele>
      </trkpt>
      <trkpt lat="47.35643" lon="7.80346">
        <ele>987.9</ele>
      </trkpt>
      <trkpt lat="47.35657" lon="7.80349">
        <ele>988.8</ele>
      </trkpt>
      <trkpt lat="47.35668" lon="7.80348">
        <ele>989.8</ele>
      </trkpt>
      <trkpt lat="47.35674" lon="7.80346">
        <ele>991.5</ele>
      </trkpt>
      <trkpt lat="47.35682" lon="7.80342">
        <ele>993.9</ele>
      </trkpt>
      <trkpt lat="47.35688" lon="7.80338">
        <ele>995.4</ele>
      </trkpt>
      <trkpt lat="47.35697" lon="7.80329">
        <ele>997.7</ele>
      </trkpt>
      <trkpt lat="47.3571" lon="7.80309">
        <ele>1000.6</ele>
      </trkpt>
      <trkpt lat="47.35734" lon="7.80268">
        <ele>1003.7</ele>
      </trkpt>
      <trkpt lat="47.35735" lon="7.80265">
        <ele>1003.7</ele>
      </trkpt>
      <trkpt lat="47.35739" lon="7.8025">
        <ele>1003.1</ele>
      </trkpt>
      <trkpt lat="47.3574" lon="7.80248">
        <ele>1003</ele>
      </trkpt>
      <trkpt lat="47.35741" lon="7.80247">
        <ele>1003</ele>
      </trkpt>
      <trkpt lat="47.35742" lon="7.80247">
        <ele>1003.2</ele>
      </trkpt>
      <trkpt lat="47.35743" lon="7.80248">
        <ele>1003.6</ele>
      </trkpt>
      <trkpt lat="47.35744" lon="7.80249">
        <ele>1004</ele>
      </trkpt>
      <trkpt lat="47.35747" lon="7.80253">
        <ele>1004.7</ele>
      </trkpt>
      <trkpt lat="47.35754" lon="7.80265">
        <ele>1004.1</ele>
      </trkpt>
      <trkpt lat="47.35763" lon="7.80277">
        <ele>1000.9</ele>
      </trkpt>
      <trkpt lat="47.35776" lon="7.80292">
        <ele>997.4</ele>
      </trkpt>
      <trkpt lat="47.3579" lon="7.80306">
        <ele>994</ele>
      </trkpt>
      <trkpt lat="47.35817" lon="7.8033">
        <ele>989.7</ele>
      </trkpt>
      <trkpt lat="47.35842" lon="7.80354">
        <ele>987</ele>
      </trkpt>
      <trkpt lat="47.35868" lon="7.80389">
        <ele>982.7</ele>
      </trkpt>
      <trkpt lat="47.35877" lon="7.80398">
        <ele>979.9</ele>
      </trkpt>
      <trkpt lat="47.35885" lon="7.80404">
        <ele>977.1</ele>
      </trkpt>
      <trkpt lat="47.35895" lon="7.80412">
        <ele>973.6</ele>
      </trkpt>
      <trkpt lat="47.35897" lon="7.80414">
        <ele>972.5</ele>
      </trkpt>
      <trkpt lat="47.359" lon="7.80418">
        <ele>971.8</ele>
      </trkpt>
      <trkpt lat="47.35907" lon="7.80429">
        <ele>970</ele>
      </trkpt>
      <trkpt lat="47.35916" lon="7.80441">
        <ele>966.9</ele>
      </trkpt>
      <trkpt lat="47.3593" lon="7.80454">
        <ele>968.2</ele>
      </trkpt>
      <trkpt lat="47.35938" lon="7.80462">
        <ele>968.8</ele>
      </trkpt>
      <trkpt lat="47.35951" lon="7.8052">
        <ele>977</ele>
      </trkpt>
      <trkpt lat="47.35958" lon="7.80551">
        <ele>980.3</ele>
      </trkpt>
      <trkpt lat="47.35961" lon="7.80569">
        <ele>982.1</ele>
      </trkpt>
      <trkpt lat="47.35966" lon="7.80601">
        <ele>987</ele>
      </trkpt>
      <trkpt lat="47.35983" lon="7.8071">
        <ele>1000.2</ele>
      </trkpt>
      <trkpt lat="47.35985" lon="7.80718">
        <ele>1000.2</ele>
      </trkpt>
      <trkpt lat="47.35987" lon="7.80724">
        <ele>1000</ele>
      </trkpt>
      <trkpt lat="47.35993" lon="7.80748">
        <ele>999.9</ele>
      </trkpt>
      <trkpt lat="47.35997" lon="7.8076">
        <ele>998.5</ele>
      </trkpt>
      <trkpt lat="47.36003" lon="7.80768">
        <ele>997.6</ele>
      </trkpt>
      <trkpt lat="47.36011" lon="7.80762">
        <ele>999.3</ele>
      </trkpt>
      <trkpt lat="47.36022" lon="7.80758">
        <ele>1001.7</ele>
      </trkpt>
      <trkpt lat="47.36025" lon="7.8076">
        <ele>1002.4</ele>
      </trkpt>
      <trkpt lat="47.36027" lon="7.8076">
        <ele>1002.9</ele>
      </trkpt>
      <trkpt lat="47.36029" lon="7.80761">
        <ele>1003.3</ele>
      </trkpt>
      <trkpt lat="47.36042" lon="7.80758">
        <ele>1006.3</ele>
      </trkpt>
      <trkpt lat="47.36047" lon="7.80757">
        <ele>1007.4</ele>
      </trkpt>
      <trkpt lat="47.36056" lon="7.80753">
        <ele>1009.6</ele>
      </trkpt>
      <trkpt lat="47.3606" lon="7.80745">
        <ele>1010.7</ele>
      </trkpt>
      <trkpt lat="47.36062" lon="7.80739">
        <ele>1011.3</ele>
      </trkpt>
      <trkpt lat="47.36066" lon="7.80738">
        <ele>1012.1</ele>
      </trkpt>
      <trkpt lat="47.36068" lon="7.8074">
        <ele>1012.6</ele>
      </trkpt>
      <trkpt lat="47.3607" lon="7.80745">
        <ele>1013.1</ele>
      </trkpt>
      <trkpt lat="47.36075" lon="7.80748">
        <ele>1014.1</ele>
      </trkpt>
      <trkpt lat="47.36079" lon="7.80746">
        <ele>1015.2</ele>
      </trkpt>
      <trkpt lat="47.36085" lon="7.80741">
        <ele>1017.5</ele>
      </trkpt>
      <trkpt lat="47.36089" lon="7.80735">
        <ele>1020.2</ele>
      </trkpt>
      <trkpt lat="47.36092" lon="7.80734">
        <ele>1022.5</ele>
      </trkpt>
      <trkpt lat="47.36094" lon="7.8074">
        <ele>1023.8</ele>
      </trkpt>
      <trkpt lat="47.36098" lon="7.80745">
        <ele>1025.8</ele>
      </trkpt>
      <trkpt lat="47.361" lon="7.80738">
        <ele>1027.9</ele>
      </trkpt>
      <trkpt lat="47.36103" lon="7.80729">
        <ele>1029.8</ele>
      </trkpt>
      <trkpt lat="47.36105" lon="7.80727">
        <ele>1031.1</ele>
      </trkpt>
      <trkpt lat="47.36105" lon="7.80727">
        <ele>1031.6</ele>
      </trkpt>
      <trkpt lat="47.36106" lon="7.80727">
        <ele>1032.2</ele>
      </trkpt>
      <trkpt lat="47.36107" lon="7.80728">
        <ele>1032.7</ele>
      </trkpt>
      <trkpt lat="47.36112" lon="7.80737">
        <ele>1035.9</ele>
      </trkpt>
      <trkpt lat="47.36113" lon="7.80738">
        <ele>1036.4</ele>
      </trkpt>
      <trkpt lat="47.36114" lon="7.80739">
        <ele>1036.8</ele>
      </trkpt>
      <trkpt lat="47.36115" lon="7.80744">
        <ele>1037.8</ele>
      </trkpt>
      <trkpt lat="47.36116" lon="7.80745">
        <ele>1038.1</ele>
      </trkpt>
      <trkpt lat="47.36116" lon="7.80746">
        <ele>1038.5</ele>
      </trkpt>
      <trkpt lat="47.36121" lon="7.8075">
        <ele>1041.5</ele>
      </trkpt>
      <trkpt lat="47.36121" lon="7.80751">
        <ele>1041.8</ele>
      </trkpt>
      <trkpt lat="47.36121" lon="7.80751">
        <ele>1041.9</ele>
      </trkpt>
      <trkpt lat="47.36122" lon="7.80755">
        <ele>1041.8</ele>
      </trkpt>
      <trkpt lat="47.36123" lon="7.80758">
        <ele>1041.9</ele>
      </trkpt>
      <trkpt lat="47.36124" lon="7.80761">
        <ele>1042.1</ele>
      </trkpt>
      <trkpt lat="47.36127" lon="7.80768">
        <ele>1043.2</ele>
      </trkpt>
      <trkpt lat="47.36131" lon="7.8078">
        <ele>1044.2</ele>
      </trkpt>
      <trkpt lat="47.3614" lon="7.80803">
        <ele>1046.9</ele>
      </trkpt>
      <trkpt lat="47.36145" lon="7.80811">
        <ele>1048.7</ele>
      </trkpt>
      <trkpt lat="47.36148" lon="7.80818">
        <ele>1049.3</ele>
      </trkpt>
      <trkpt lat="47.3615" lon="7.80822">
        <ele>1050.3</ele>
      </trkpt>
      <trkpt lat="47.36154" lon="7.80831">
        <ele>1051.2</ele>
      </trkpt>
      <trkpt lat="47.36156" lon="7.80836">
        <ele>1051.3</ele>
      </trkpt>
      <trkpt lat="47.36157" lon="7.80838">
        <ele>1051.3</ele>
      </trkpt>
      <trkpt lat="47.36155" lon="7.80839">
        <ele>1049.9</ele>
      </trkpt>
      <trkpt lat="47.36153" lon="7.80841">
        <ele>1048.4</ele>
      </trkpt>
      <trkpt lat="47.36152" lon="7.80844">
        <ele>1046.9</ele>
      </trkpt>
      <trkpt lat="47.36151" lon="7.80848">
        <ele>1045.6</ele>
      </trkpt>
      <trkpt lat="47.3615" lon="7.80853">
        <ele>1044.5</ele>
      </trkpt>
      <trkpt lat="47.36151" lon="7.80857">
        <ele>1043.8</ele>
      </trkpt>
      <trkpt lat="47.36153" lon="7.80868">
        <ele>1043.2</ele>
      </trkpt>
      <trkpt lat="47.36157" lon="7.80879">
        <ele>1042.9</ele>
      </trkpt>
      <trkpt lat="47.3616" lon="7.80887">
        <ele>1043</ele>
      </trkpt>
      <trkpt lat="47.36163" lon="7.80892">
        <ele>1043.4</ele>
      </trkpt>
      <trkpt lat="47.36166" lon="7.80896">
        <ele>1044.3</ele>
      </trkpt>
      <trkpt lat="47.3617" lon="7.80899">
        <ele>1044.5</ele>
      </trkpt>
      <trkpt lat="47.3618" lon="7.80905">
        <ele>1045.6</ele>
      </trkpt>
      <trkpt lat="47.36186" lon="7.80911">
        <ele>1045.9</ele>
      </trkpt>
      <trkpt lat="47.36194" lon="7.80919">
        <ele>1046.6</ele>
      </trkpt>
      <trkpt lat="47.36198" lon="7.80925">
        <ele>1047</ele>
      </trkpt>
      <trkpt lat="47.36201" lon="7.80929">
        <ele>1047.2</ele>
      </trkpt>
      <trkpt lat="47.36204" lon="7.80935">
        <ele>1047.3</ele>
      </trkpt>
      <trkpt lat="47.36205" lon="7.80939">
        <ele>1047.2</ele>
      </trkpt>
      <trkpt lat="47.36206" lon="7.80947">
        <ele>1046.8</ele>
      </trkpt>
      <trkpt lat="47.36207" lon="7.80955">
        <ele>1046.1</ele>
      </trkpt>
      <trkpt lat="47.36207" lon="7.80973">
        <ele>1044.3</ele>
      </trkpt>
      <trkpt lat="47.36209" lon="7.80997">
        <ele>1042.4</ele>
      </trkpt>
      <trkpt lat="47.36212" lon="7.81026">
        <ele>1040.3</ele>
      </trkpt>
      <trkpt lat="47.36216" lon="7.81069">
        <ele>1036.5</ele>
      </trkpt>
      <trkpt lat="47.36218" lon="7.81096">
        <ele>1033.5</ele>
      </trkpt>
      <trkpt lat="47.36223" lon="7.81152">
        <ele>1025</ele>
      </trkpt>
      <trkpt lat="47.36228" lon="7.81208">
        <ele>1017.3</ele>
      </trkpt>
      <trkpt lat="47.36231" lon="7.81227">
        <ele>1014.8</ele>
      </trkpt>
      <trkpt lat="47.36233" lon="7.81249">
        <ele>1011.4</ele>
      </trkpt>
      <trkpt lat="47.36236" lon="7.81302">
        <ele>1005.5</ele>
      </trkpt>
      <trkpt lat="47.36237" lon="7.81318">
        <ele>1004.1</ele>
      </trkpt>
      <trkpt lat="47.36242" lon="7.81341">
        <ele>1002.4</ele>
      </trkpt>
      <trkpt lat="47.36249" lon="7.81423">
        <ele>988.5</ele>
      </trkpt>
      <trkpt lat="47.36253" lon="7.8147">
        <ele>983.5</ele>
      </trkpt>
      <trkpt lat="47.36255" lon="7.815">
        <ele>979.8</ele>
      </trkpt>
      <trkpt lat="47.36261" lon="7.81608">
        <ele>969.7</ele>
      </trkpt>
      <trkpt lat="47.36263" lon="7.81616">
        <ele>968.5</ele>
      </trkpt>
      <trkpt lat="47.36265" lon="7.81624">
        <ele>967.3</ele>
      </trkpt>
      <trkpt lat="47.36271" lon="7.81646">
        <ele>964.1</ele>
      </trkpt>
      <trkpt lat="47.36272" lon="7.8165">
        <ele>963.6</ele>
      </trkpt>
      <trkpt lat="47.36274" lon="7.81668">
        <ele>961.5</ele>
      </trkpt>
      <trkpt lat="47.36275" lon="7.81681">
        <ele>960.2</ele>
      </trkpt>
      <trkpt lat="47.36276" lon="7.81693">
        <ele>959.1</ele>
      </trkpt>
      <trkpt lat="47.36277" lon="7.81702">
        <ele>958.2</ele>
      </trkpt>
      <trkpt lat="47.36278" lon="7.81711">
        <ele>957.4</ele>
      </trkpt>
      <trkpt lat="47.36279" lon="7.81725">
        <ele>956.2</ele>
      </trkpt>
      <trkpt lat="47.36282" lon="7.81764">
        <ele>953.1</ele>
      </trkpt>
      <trkpt lat="47.36284" lon="7.81789">
        <ele>951.7</ele>
      </trkpt>
      <trkpt lat="47.36285" lon="7.81802">
        <ele>951</ele>
      </trkpt>
      <trkpt lat="47.36286" lon="7.81812">
        <ele>950.4</ele>
      </trkpt>
      <trkpt lat="47.36287" lon="7.81816">
        <ele>950.1</ele>
      </trkpt>
      <trkpt lat="47.36289" lon="7.81821">
        <ele>949.8</ele>
      </trkpt>
      <trkpt lat="47.36293" lon="7.81829">
        <ele>949.2</ele>
      </trkpt>
      <trkpt lat="47.36297" lon="7.81836">
        <ele>948.6</ele>
      </trkpt>
      <trkpt lat="47.363" lon="7.81842">
        <ele>948.1</ele>
      </trkpt>
      <trkpt lat="47.36302" lon="7.81846">
        <ele>947.7</ele>
      </trkpt>
      <trkpt lat="47.36302" lon="7.81848">
        <ele>947.6</ele>
      </trkpt>
      <trkpt lat="47.36304" lon="7.81855">
        <ele>947.1</ele>
      </trkpt>
      <trkpt lat="47.36306" lon="7.81864">
        <ele>946.5</ele>
      </trkpt>
      <trkpt lat="47.3631" lon="7.81889">
        <ele>944.9</ele>
      </trkpt>
      <trkpt lat="47.36313" lon="7.81907">
        <ele>943.8</ele>
      </trkpt>
      <trkpt lat="47.36314" lon="7.81924">
        <ele>942.7</ele>
      </trkpt>
      <trkpt lat="47.36314" lon="7.81935">
        <ele>941.9</ele>
      </trkpt>
      <trkpt lat="47.36317" lon="7.81961">
        <ele>940.2</ele>
      </trkpt>
      <trkpt lat="47.36321" lon="7.8199">
        <ele>938.6</ele>
      </trkpt>
      <trkpt lat="47.36322" lon="7.82012">
        <ele>937.5</ele>
      </trkpt>
      <trkpt lat="47.36323" lon="7.8204">
        <ele>936.4</ele>
      </trkpt>
      <trkpt lat="47.36325" lon="7.8208">
        <ele>934.9</ele>
      </trkpt>
      <trkpt lat="47.36327" lon="7.821">
        <ele>934.2</ele>
      </trkpt>
      <trkpt lat="47.3633" lon="7.82117">
        <ele>933.9</ele>
      </trkpt>
      <trkpt lat="47.36332" lon="7.8213">
        <ele>934.1</ele>
      </trkpt>
      <trkpt lat="47.36335" lon="7.82137">
        <ele>933.6</ele>
      </trkpt>
      <trkpt lat="47.36338" lon="7.82143">
        <ele>932.6</ele>
      </trkpt>
      <trkpt lat="47.36342" lon="7.82149">
        <ele>931.4</ele>
      </trkpt>
      <trkpt lat="47.36347" lon="7.82154">
        <ele>930.2</ele>
      </trkpt>
      <trkpt lat="47.36354" lon="7.82159">
        <ele>928.5</ele>
      </trkpt>
      <trkpt lat="47.36361" lon="7.82163">
        <ele>927</ele>
      </trkpt>
      <trkpt lat="47.36366" lon="7.82167">
        <ele>925.9</ele>
      </trkpt>
      <trkpt lat="47.36369" lon="7.82172">
        <ele>924.7</ele>
      </trkpt>
      <trkpt lat="47.36372" lon="7.82177">
        <ele>923.6</ele>
      </trkpt>
      <trkpt lat="47.36373" lon="7.82184">
        <ele>922.7</ele>
      </trkpt>
      <trkpt lat="47.36375" lon="7.82194">
        <ele>921.5</ele>
      </trkpt>
      <trkpt lat="47.36375" lon="7.82207">
        <ele>920.1</ele>
      </trkpt>
      <trkpt lat="47.36376" lon="7.82223">
        <ele>918.6</ele>
      </trkpt>
      <trkpt lat="47.36375" lon="7.82237">
        <ele>917.2</ele>
      </trkpt>
      <trkpt lat="47.36374" lon="7.8225">
        <ele>916</ele>
      </trkpt>
      <trkpt lat="47.36373" lon="7.82262">
        <ele>915.1</ele>
      </trkpt>
      <trkpt lat="47.36372" lon="7.82283">
        <ele>913.6</ele>
      </trkpt>
      <trkpt lat="47.36376" lon="7.82304">
        <ele>912.9</ele>
      </trkpt>
      <trkpt lat="47.36378" lon="7.8233">
        <ele>912.1</ele>
      </trkpt>
      <trkpt lat="47.36382" lon="7.82369">
        <ele>915.1</ele>
      </trkpt>
      <trkpt lat="47.36382" lon="7.82381">
        <ele>916.1</ele>
      </trkpt>
      <trkpt lat="47.36382" lon="7.82392">
        <ele>916.6</ele>
      </trkpt>
      <trkpt lat="47.36381" lon="7.82407">
        <ele>917.1</ele>
      </trkpt>
      <trkpt lat="47.36377" lon="7.82443">
        <ele>917.7</ele>
      </trkpt>
      <trkpt lat="47.36377" lon="7.82457">
        <ele>918.3</ele>
      </trkpt>
      <trkpt lat="47.36377" lon="7.82502">
        <ele>921</ele>
      </trkpt>
      <trkpt lat="47.36379" lon="7.82526">
        <ele>920.9</ele>
      </trkpt>
      <trkpt lat="47.36381" lon="7.82552">
        <ele>921.1</ele>
      </trkpt>
      <trkpt lat="47.36383" lon="7.82583">
        <ele>921.4</ele>
      </trkpt>
      <trkpt lat="47.36384" lon="7.82599">
        <ele>921.6</ele>
      </trkpt>
      <trkpt lat="47.36385" lon="7.82636">
        <ele>922.4</ele>
      </trkpt>
      <trkpt lat="47.36386" lon="7.82645">
        <ele>922.9</ele>
      </trkpt>
      <trkpt lat="47.36387" lon="7.82656">
        <ele>923.7</ele>
      </trkpt>
      <trkpt lat="47.36389" lon="7.82663">
        <ele>924.7</ele>
      </trkpt>
      <trkpt lat="47.36392" lon="7.82669">
        <ele>926.2</ele>
      </trkpt>
      <trkpt lat="47.364" lon="7.82685">
        <ele>931</ele>
      </trkpt>
      <trkpt lat="47.36406" lon="7.82696">
        <ele>933.8</ele>
      </trkpt>
      <trkpt lat="47.36408" lon="7.82703">
        <ele>935.1</ele>
      </trkpt>
      <trkpt lat="47.36409" lon="7.82711">
        <ele>935.9</ele>
      </trkpt>
      <trkpt lat="47.3641" lon="7.82719">
        <ele>936.2</ele>
      </trkpt>
      <trkpt lat="47.36409" lon="7.82738">
        <ele>936.2</ele>
      </trkpt>
      <trkpt lat="47.36407" lon="7.8278">
        <ele>937.3</ele>
      </trkpt>
      <trkpt lat="47.36407" lon="7.82808">
        <ele>938.8</ele>
      </trkpt>
      <trkpt lat="47.36407" lon="7.82835">
        <ele>939.8</ele>
      </trkpt>
      <trkpt lat="47.36406" lon="7.82847">
        <ele>938.8</ele>
      </trkpt>
      <trkpt lat="47.36404" lon="7.82853">
        <ele>938.1</ele>
      </trkpt>
      <trkpt lat="47.36402" lon="7.8286">
        <ele>937.1</ele>
      </trkpt>
      <trkpt lat="47.364" lon="7.82866">
        <ele>935.9</ele>
      </trkpt>
      <trkpt lat="47.36397" lon="7.82871">
        <ele>934.8</ele>
      </trkpt>
      <trkpt lat="47.36391" lon="7.8288">
        <ele>932.6</ele>
      </trkpt>
      <trkpt lat="47.36386" lon="7.82886">
        <ele>931.2</ele>
      </trkpt>
      <trkpt lat="47.36368" lon="7.82903">
        <ele>926.5</ele>
      </trkpt>
      <trkpt lat="47.36364" lon="7.82908">
        <ele>925.6</ele>
      </trkpt>
      <trkpt lat="47.36361" lon="7.82912">
        <ele>925</ele>
      </trkpt>
      <trkpt lat="47.36358" lon="7.82918">
        <ele>924.6</ele>
      </trkpt>
      <trkpt lat="47.36355" lon="7.82925">
        <ele>924.1</ele>
      </trkpt>
      <trkpt lat="47.36354" lon="7.82932">
        <ele>923.8</ele>
      </trkpt>
      <trkpt lat="47.36353" lon="7.82941">
        <ele>923.6</ele>
      </trkpt>
      <trkpt lat="47.36352" lon="7.82951">
        <ele>923.6</ele>
      </trkpt>
      <trkpt lat="47.36352" lon="7.82963">
        <ele>923.7</ele>
      </trkpt>
      <trkpt lat="47.36353" lon="7.82974">
        <ele>924</ele>
      </trkpt>
      <trkpt lat="47.36355" lon="7.8299">
        <ele>924.7</ele>
      </trkpt>
      <trkpt lat="47.36358" lon="7.83005">
        <ele>925.2</ele>
      </trkpt>
      <trkpt lat="47.3636" lon="7.8301">
        <ele>925.2</ele>
      </trkpt>
      <trkpt lat="47.36362" lon="7.83016">
        <ele>925.4</ele>
      </trkpt>
      <trkpt lat="47.36365" lon="7.83021">
        <ele>925.7</ele>
      </trkpt>
      <trkpt lat="47.36373" lon="7.83033">
        <ele>926.4</ele>
      </trkpt>
      <trkpt lat="47.36399" lon="7.83073">
        <ele>927.1</ele>
      </trkpt>
      <trkpt lat="47.36405" lon="7.8308">
        <ele>927.1</ele>
      </trkpt>
      <trkpt lat="47.3641" lon="7.83088">
        <ele>926.7</ele>
      </trkpt>
      <trkpt lat="47.36414" lon="7.83097">
        <ele>925.8</ele>
      </trkpt>
      <trkpt lat="47.36417" lon="7.83107">
        <ele>924.8</ele>
      </trkpt>
      <trkpt lat="47.36421" lon="7.83122">
        <ele>923.9</ele>
      </trkpt>
      <trkpt lat="47.36425" lon="7.83141">
        <ele>922.4</ele>
      </trkpt>
      <trkpt lat="47.36428" lon="7.83152">
        <ele>921.7</ele>
      </trkpt>
      <trkpt lat="47.36433" lon="7.83172">
        <ele>920.6</ele>
      </trkpt>
      <trkpt lat="47.36435" lon="7.83184">
        <ele>920.3</ele>
      </trkpt>
      <trkpt lat="47.36435" lon="7.83193">
        <ele>919.9</ele>
      </trkpt>
      <trkpt lat="47.36435" lon="7.83206">
        <ele>919</ele>
      </trkpt>
      <trkpt lat="47.36435" lon="7.83221">
        <ele>917.8</ele>
      </trkpt>
      <trkpt lat="47.3643" lon="7.83288">
        <ele>913.4</ele>
      </trkpt>
      <trkpt lat="47.36427" lon="7.83315">
        <ele>911.9</ele>
      </trkpt>
      <trkpt lat="47.36425" lon="7.8334">
        <ele>910.4</ele>
      </trkpt>
      <trkpt lat="47.36424" lon="7.83355">
        <ele>909.3</ele>
      </trkpt>
      <trkpt lat="47.36424" lon="7.83363">
        <ele>908.7</ele>
      </trkpt>
      <trkpt lat="47.36424" lon="7.83372">
        <ele>908.1</ele>
      </trkpt>
      <trkpt lat="47.36425" lon="7.83383">
        <ele>907.5</ele>
      </trkpt>
      <trkpt lat="47.36427" lon="7.83394">
        <ele>906.9</ele>
      </trkpt>
      <trkpt lat="47.3643" lon="7.83406">
        <ele>906.4</ele>
      </trkpt>
      <trkpt lat="47.36433" lon="7.83416">
        <ele>906.2</ele>
      </trkpt>
      <trkpt lat="47.36435" lon="7.83423">
        <ele>904.8</ele>
      </trkpt>
      <trkpt lat="47.36438" lon="7.8343">
        <ele>903.4</ele>
      </trkpt>
      <trkpt lat="47.36443" lon="7.8344">
        <ele>901.4</ele>
      </trkpt>
      <trkpt lat="47.36451" lon="7.83453">
        <ele>899.3</ele>
      </trkpt>
      <trkpt lat="47.36467" lon="7.83484">
        <ele>893.8</ele>
      </trkpt>
      <trkpt lat="47.36471" lon="7.8349">
        <ele>893</ele>
      </trkpt>
      <trkpt lat="47.36475" lon="7.83494">
        <ele>892.5</ele>
      </trkpt>
      <trkpt lat="47.36478" lon="7.83497">
        <ele>892.4</ele>
      </trkpt>
      <trkpt lat="47.36482" lon="7.83498">
        <ele>892.7</ele>
      </trkpt>
      <trkpt lat="47.36486" lon="7.83499">
        <ele>893.1</ele>
      </trkpt>
      <trkpt lat="47.3649" lon="7.83498">
        <ele>894</ele>
      </trkpt>
      <trkpt lat="47.36495" lon="7.83496">
        <ele>895.1</ele>
      </trkpt>
      <trkpt lat="47.365" lon="7.83493">
        <ele>896.6</ele>
      </trkpt>
      <trkpt lat="47.36504" lon="7.83489">
        <ele>896.2</ele>
      </trkpt>
      <trkpt lat="47.36509" lon="7.83484">
        <ele>896</ele>
      </trkpt>
      <trkpt lat="47.36524" lon="7.83466">
        <ele>895.1</ele>
      </trkpt>
      <trkpt lat="47.36534" lon="7.83456">
        <ele>894.1</ele>
      </trkpt>
      <trkpt lat="47.36544" lon="7.83445">
        <ele>893.2</ele>
      </trkpt>
      <trkpt lat="47.36554" lon="7.83435">
        <ele>891.8</ele>
      </trkpt>
      <trkpt lat="47.3656" lon="7.83431">
        <ele>890.7</ele>
      </trkpt>
      <trkpt lat="47.36567" lon="7.83428">
        <ele>889.1</ele>
      </trkpt>
      <trkpt lat="47.36579" lon="7.83424">
        <ele>886</ele>
      </trkpt>
      <trkpt lat="47.36593" lon="7.83422">
        <ele>884.4</ele>
      </trkpt>
      <trkpt lat="47.36604" lon="7.8342">
        <ele>884.5</ele>
      </trkpt>
      <trkpt lat="47.36616" lon="7.83418">
        <ele>884.5</ele>
      </trkpt>
      <trkpt lat="47.36629" lon="7.83417">
        <ele>884.3</ele>
      </trkpt>
      <trkpt lat="47.36643" lon="7.83417">
        <ele>883.6</ele>
      </trkpt>
      <trkpt lat="47.36658" lon="7.83419">
        <ele>882.4</ele>
      </trkpt>
      <trkpt lat="47.36672" lon="7.83422">
        <ele>881.5</ele>
      </trkpt>
      <trkpt lat="47.36685" lon="7.83426">
        <ele>881.1</ele>
      </trkpt>
      <trkpt lat="47.36701" lon="7.83432">
        <ele>879.9</ele>
      </trkpt>
      <trkpt lat="47.36714" lon="7.83438">
        <ele>879</ele>
      </trkpt>
      <trkpt lat="47.36731" lon="7.83447">
        <ele>876.9</ele>
      </trkpt>
      <trkpt lat="47.36745" lon="7.83456">
        <ele>874.9</ele>
      </trkpt>
      <trkpt lat="47.36755" lon="7.83463">
        <ele>871.4</ele>
      </trkpt>
      <trkpt lat="47.36768" lon="7.83469">
        <ele>865.7</ele>
      </trkpt>
      <trkpt lat="47.3678" lon="7.83475">
        <ele>860.8</ele>
      </trkpt>
      <trkpt lat="47.36784" lon="7.83476">
        <ele>859.2</ele>
      </trkpt>
      <trkpt lat="47.36788" lon="7.83476">
        <ele>858.3</ele>
      </trkpt>
      <trkpt lat="47.36791" lon="7.83475">
        <ele>857.5</ele>
      </trkpt>
      <trkpt lat="47.36795" lon="7.83473">
        <ele>856.9</ele>
      </trkpt>
      <trkpt lat="47.368" lon="7.83469">
        <ele>856.6</ele>
      </trkpt>
      <trkpt lat="47.36804" lon="7.83464">
        <ele>856.6</ele>
      </trkpt>
      <trkpt lat="47.36808" lon="7.83459">
        <ele>856.7</ele>
      </trkpt>
      <trkpt lat="47.36814" lon="7.83447">
        <ele>857.5</ele>
      </trkpt>
      <trkpt lat="47.36826" lon="7.83423">
        <ele>857.9</ele>
      </trkpt>
      <trkpt lat="47.3683" lon="7.83416">
        <ele>857.3</ele>
      </trkpt>
      <trkpt lat="47.36834" lon="7.83412">
        <ele>856.2</ele>
      </trkpt>
      <trkpt lat="47.36837" lon="7.83408">
        <ele>855.8</ele>
      </trkpt>
      <trkpt lat="47.36842" lon="7.83405">
        <ele>855</ele>
      </trkpt>
      <trkpt lat="47.36846" lon="7.83403">
        <ele>854.3</ele>
      </trkpt>
      <trkpt lat="47.36851" lon="7.83402">
        <ele>853.5</ele>
      </trkpt>
      <trkpt lat="47.36853" lon="7.83402">
        <ele>853</ele>
      </trkpt>
      <trkpt lat="47.36855" lon="7.83403">
        <ele>852.6</ele>
      </trkpt>
      <trkpt lat="47.36858" lon="7.83405">
        <ele>852</ele>
      </trkpt>
      <trkpt lat="47.36861" lon="7.83407">
        <ele>851.4</ele>
      </trkpt>
      <trkpt lat="47.36864" lon="7.83411">
        <ele>850.8</ele>
      </trkpt>
      <trkpt lat="47.36879" lon="7.83436">
        <ele>846.7</ele>
      </trkpt>
      <trkpt lat="47.36888" lon="7.8345">
        <ele>844.7</ele>
      </trkpt>
      <trkpt lat="47.36895" lon="7.8346">
        <ele>843.4</ele>
      </trkpt>
      <trkpt lat="47.36902" lon="7.83467">
        <ele>842.5</ele>
      </trkpt>
      <trkpt lat="47.3691" lon="7.83476">
        <ele>841.7</ele>
      </trkpt>
      <trkpt lat="47.36911" lon="7.83468">
        <ele>841.8</ele>
      </trkpt>
      <trkpt lat="47.36921" lon="7.83431">
        <ele>841.7</ele>
      </trkpt>
      <trkpt lat="47.36923" lon="7.8342">
        <ele>841.6</ele>
      </trkpt>
      <trkpt lat="47.36933" lon="7.8343">
        <ele>841.3</ele>
      </trkpt>
      <trkpt lat="47.36955" lon="7.83458">
        <ele>842.6</ele>
      </trkpt>
      <trkpt lat="47.36965" lon="7.8347">
        <ele>844</ele>
      </trkpt>
      <trkpt lat="47.36968" lon="7.83475">
        <ele>844.7</ele>
      </trkpt>
      <trkpt lat="47.36972" lon="7.83484">
        <ele>845.9</ele>
      </trkpt>
      <trkpt lat="47.36979" lon="7.83503">
        <ele>848.5</ele>
      </trkpt>
      <trkpt lat="47.36985" lon="7.83528">
        <ele>850.3</ele>
      </trkpt>
      <trkpt lat="47.36987" lon="7.83545">
        <ele>851.6</ele>
      </trkpt>
      <trkpt lat="47.36988" lon="7.83563">
        <ele>852.7</ele>
      </trkpt>
      <trkpt lat="47.36987" lon="7.83578">
        <ele>853.2</ele>
      </trkpt>
      <trkpt lat="47.36987" lon="7.83594">
        <ele>852.7</ele>
      </trkpt>
      <trkpt lat="47.36987" lon="7.83617">
        <ele>852.1</ele>
      </trkpt>
      <trkpt lat="47.36989" lon="7.83631">
        <ele>852.5</ele>
      </trkpt>
      <trkpt lat="47.36997" lon="7.83669">
        <ele>855.4</ele>
      </trkpt>
      <trkpt lat="47.3701" lon="7.83705">
        <ele>857.8</ele>
      </trkpt>
      <trkpt lat="47.37028" lon="7.83744">
        <ele>862.4</ele>
      </trkpt>
      <trkpt lat="47.37046" lon="7.83782">
        <ele>862</ele>
      </trkpt>
      <trkpt lat="47.37062" lon="7.83808">
        <ele>862.1</ele>
      </trkpt>
      <trkpt lat="47.37081" lon="7.83827">
        <ele>864.8</ele>
      </trkpt>
      <trkpt lat="47.37099" lon="7.83839">
        <ele>869.1</ele>
      </trkpt>
      <trkpt lat="47.37137" lon="7.83868">
        <ele>875.5</ele>
      </trkpt>
      <trkpt lat="47.37181" lon="7.839">
        <ele>881.1</ele>
      </trkpt>
      <trkpt lat="47.37205" lon="7.83921">
        <ele>882.2</ele>
      </trkpt>
      <trkpt lat="47.37225" lon="7.83939">
        <ele>883.3</ele>
      </trkpt>
      <trkpt lat="47.37239" lon="7.83953">
        <ele>883.3</ele>
      </trkpt>
      <trkpt lat="47.37255" lon="7.83971">
        <ele>883.1</ele>
      </trkpt>
      <trkpt lat="47.37268" lon="7.83991">
        <ele>882.3</ele>
      </trkpt>
      <trkpt lat="47.37281" lon="7.84012">
        <ele>881.7</ele>
      </trkpt>
      <trkpt lat="47.37295" lon="7.8404">
        <ele>880.9</ele>
      </trkpt>
      <trkpt lat="47.37315" lon="7.84082">
        <ele>878.6</ele>
      </trkpt>
      <trkpt lat="47.37325" lon="7.84106">
        <ele>878.2</ele>
      </trkpt>
      <trkpt lat="47.37337" lon="7.84135">
        <ele>877.8</ele>
      </trkpt>
      <trkpt lat="47.37349" lon="7.8417">
        <ele>876.9</ele>
      </trkpt>
      <trkpt lat="47.37364" lon="7.84212">
        <ele>874.1</ele>
      </trkpt>
      <trkpt lat="47.37376" lon="7.84255">
        <ele>870.7</ele>
      </trkpt>
      <trkpt lat="47.37389" lon="7.84302">
        <ele>868.7</ele>
      </trkpt>
      <trkpt lat="47.37405" lon="7.84371">
        <ele>865.8</ele>
      </trkpt>
      <trkpt lat="47.37417" lon="7.8442">
        <ele>864.6</ele>
      </trkpt>
      <trkpt lat="47.3743" lon="7.84467">
        <ele>863</ele>
      </trkpt>
      <trkpt lat="47.37442" lon="7.84507">
        <ele>861.5</ele>
      </trkpt>
      <trkpt lat="47.37449" lon="7.8454">
        <ele>860.3</ele>
      </trkpt>
      <trkpt lat="47.37457" lon="7.84581">
        <ele>858.6</ele>
      </trkpt>
      <trkpt lat="47.37465" lon="7.84633">
        <ele>854.4</ele>
      </trkpt>
      <trkpt lat="47.37469" lon="7.84661">
        <ele>851.7</ele>
      </trkpt>
      <trkpt lat="47.37475" lon="7.84687">
        <ele>850.5</ele>
      </trkpt>
      <trkpt lat="47.37484" lon="7.84726">
        <ele>848.2</ele>
      </trkpt>
      <trkpt lat="47.37498" lon="7.84769">
        <ele>846.9</ele>
      </trkpt>
      <trkpt lat="47.37499" lon="7.84778">
        <ele>845.7</ele>
      </trkpt>
      <trkpt lat="47.37502" lon="7.8479">
        <ele>844.3</ele>
      </trkpt>
      <trkpt lat="47.37506" lon="7.848">
        <ele>843.7</ele>
      </trkpt>
      <trkpt lat="47.37539" lon="7.84868">
        <ele>843.1</ele>
      </trkpt>
      <trkpt lat="47.37544" lon="7.84882">
        <ele>843.2</ele>
      </trkpt>
      <trkpt lat="47.37552" lon="7.849">
        <ele>843.2</ele>
      </trkpt>
      <trkpt lat="47.37559" lon="7.84921">
        <ele>842.7</ele>
      </trkpt>
      <trkpt lat="47.37561" lon="7.84933">
        <ele>842.2</ele>
      </trkpt>
      <trkpt lat="47.37568" lon="7.84962">
        <ele>841.6</ele>
      </trkpt>
      <trkpt lat="47.37574" lon="7.84993">
        <ele>840.6</ele>
      </trkpt>
      <trkpt lat="47.37578" lon="7.85024">
        <ele>837.8</ele>
      </trkpt>
      <trkpt lat="47.37581" lon="7.8506">
        <ele>833.7</ele>
      </trkpt>
      <trkpt lat="47.37587" lon="7.85093">
        <ele>830.7</ele>
      </trkpt>
      <trkpt lat="47.37594" lon="7.85136">
        <ele>826.8</ele>
      </trkpt>
      <trkpt lat="47.37597" lon="7.85162">
        <ele>824.1</ele>
      </trkpt>
      <trkpt lat="47.37599" lon="7.85188">
        <ele>821.5</ele>
      </trkpt>
      <trkpt lat="47.37602" lon="7.85209">
        <ele>819.7</ele>
      </trkpt>
      <trkpt lat="47.37606" lon="7.85236">
        <ele>817.7</ele>
      </trkpt>
      <trkpt lat="47.37609" lon="7.85262">
        <ele>815.3</ele>
      </trkpt>
      <trkpt lat="47.37615" lon="7.85307">
        <ele>810.2</ele>
      </trkpt>
      <trkpt lat="47.37618" lon="7.85347">
        <ele>805.8</ele>
      </trkpt>
      <trkpt lat="47.37623" lon="7.85395">
        <ele>802.2</ele>
      </trkpt>
      <trkpt lat="47.37626" lon="7.85429">
        <ele>799.4</ele>
      </trkpt>
      <trkpt lat="47.37636" lon="7.85488">
        <ele>796.1</ele>
      </trkpt>
      <trkpt lat="47.37641" lon="7.85531">
        <ele>793.1</ele>
      </trkpt>
      <trkpt lat="47.37645" lon="7.85583">
        <ele>788.9</ele>
      </trkpt>
      <trkpt lat="47.37648" lon="7.85627">
        <ele>785.2</ele>
      </trkpt>
      <trkpt lat="47.37655" lon="7.85666">
        <ele>783.6</ele>
      </trkpt>
      <trkpt lat="47.37662" lon="7.85718">
        <ele>780.1</ele>
      </trkpt>
      <trkpt lat="47.37666" lon="7.85754">
        <ele>777.1</ele>
      </trkpt>
      <trkpt lat="47.37671" lon="7.85783">
        <ele>772.3</ele>
      </trkpt>
      <trkpt lat="47.37675" lon="7.8581">
        <ele>768</ele>
      </trkpt>
      <trkpt lat="47.37678" lon="7.85842">
        <ele>763.3</ele>
      </trkpt>
      <trkpt lat="47.37681" lon="7.85861">
        <ele>761.6</ele>
      </trkpt>
      <trkpt lat="47.37686" lon="7.85886">
        <ele>759.6</ele>
      </trkpt>
      <trkpt lat="47.37689" lon="7.85907">
        <ele>758</ele>
      </trkpt>
      <trkpt lat="47.37694" lon="7.85926">
        <ele>756.3</ele>
      </trkpt>
      <trkpt lat="47.37697" lon="7.85947">
        <ele>753.7</ele>
      </trkpt>
      <trkpt lat="47.37699" lon="7.8597">
        <ele>750.3</ele>
      </trkpt>
      <trkpt lat="47.37706" lon="7.85996">
        <ele>747.5</ele>
      </trkpt>
      <trkpt lat="47.3771" lon="7.86016">
        <ele>746.2</ele>
      </trkpt>
      <trkpt lat="47.37713" lon="7.86029">
        <ele>745.5</ele>
      </trkpt>
      <trkpt lat="47.37716" lon="7.86043">
        <ele>744.5</ele>
      </trkpt>
      <trkpt lat="47.3772" lon="7.8605">
        <ele>744.5</ele>
      </trkpt>
      <trkpt lat="47.37723" lon="7.86057">
        <ele>744.2</ele>
      </trkpt>
      <trkpt lat="47.37723" lon="7.86064">
        <ele>743.3</ele>
      </trkpt>
      <trkpt lat="47.3772" lon="7.86069">
        <ele>742.4</ele>
      </trkpt>
      <trkpt lat="47.37719" lon="7.86073">
        <ele>741.7</ele>
      </trkpt>
      <trkpt lat="47.37719" lon="7.86079">
        <ele>741</ele>
      </trkpt>
      <trkpt lat="47.37719" lon="7.86086">
        <ele>740</ele>
      </trkpt>
      <trkpt lat="47.37718" lon="7.861">
        <ele>737.9</ele>
      </trkpt>
      <trkpt lat="47.37716" lon="7.86112">
        <ele>735.8</ele>
      </trkpt>
      <trkpt lat="47.37717" lon="7.86119">
        <ele>734.9</ele>
      </trkpt>
      <trkpt lat="47.37719" lon="7.86129">
        <ele>733.7</ele>
      </trkpt>
      <trkpt lat="47.37724" lon="7.86139">
        <ele>733</ele>
      </trkpt>
      <trkpt lat="47.3773" lon="7.86152">
        <ele>732</ele>
      </trkpt>
      <trkpt lat="47.37736" lon="7.86168">
        <ele>730.7</ele>
      </trkpt>
      <trkpt lat="47.37739" lon="7.86178">
        <ele>730.5</ele>
      </trkpt>
      <trkpt lat="47.37745" lon="7.86188">
        <ele>731</ele>
      </trkpt>
      <trkpt lat="47.37753" lon="7.86203">
        <ele>730.5</ele>
      </trkpt>
      <trkpt lat="47.37765" lon="7.8622">
        <ele>726.8</ele>
      </trkpt>
      <trkpt lat="47.37772" lon="7.86234">
        <ele>724.4</ele>
      </trkpt>
      <trkpt lat="47.37778" lon="7.8625">
        <ele>722.3</ele>
      </trkpt>
      <trkpt lat="47.37782" lon="7.86273">
        <ele>720.3</ele>
      </trkpt>
      <trkpt lat="47.37785" lon="7.86291">
        <ele>718.8</ele>
      </trkpt>
      <trkpt lat="47.37792" lon="7.86318">
        <ele>715.6</ele>
      </trkpt>
      <trkpt lat="47.37799" lon="7.86345">
        <ele>712.3</ele>
      </trkpt>
      <trkpt lat="47.37804" lon="7.86363">
        <ele>709.7</ele>
      </trkpt>
      <trkpt lat="47.37808" lon="7.86376">
        <ele>708</ele>
      </trkpt>
      <trkpt lat="47.37813" lon="7.86393">
        <ele>705.6</ele>
      </trkpt>
      <trkpt lat="47.37818" lon="7.86413">
        <ele>703.2</ele>
      </trkpt>
      <trkpt lat="47.37822" lon="7.86429">
        <ele>701.1</ele>
      </trkpt>
      <trkpt lat="47.37823" lon="7.86431">
        <ele>700.6</ele>
      </trkpt>
      <trkpt lat="47.37823" lon="7.86441">
        <ele>699.8</ele>
      </trkpt>
      <trkpt lat="47.37821" lon="7.86499">
        <ele>694.9</ele>
      </trkpt>
      <trkpt lat="47.37821" lon="7.86512">
        <ele>694</ele>
      </trkpt>
      <trkpt lat="47.37823" lon="7.86528">
        <ele>693</ele>
      </trkpt>
      <trkpt lat="47.37825" lon="7.86554">
        <ele>691.1</ele>
      </trkpt>
      <trkpt lat="47.37826" lon="7.86568">
        <ele>690.2</ele>
      </trkpt>
      <trkpt lat="47.37824" lon="7.86579">
        <ele>689.9</ele>
      </trkpt>
      <trkpt lat="47.37823" lon="7.86587">
        <ele>689.6</ele>
      </trkpt>
      <trkpt lat="47.3782" lon="7.86606">
        <ele>689</ele>
      </trkpt>
      <trkpt lat="47.37806" lon="7.86651">
        <ele>689.4</ele>
      </trkpt>
      <trkpt lat="47.37803" lon="7.86659">
        <ele>689.6</ele>
      </trkpt>
      <trkpt lat="47.37802" lon="7.86665">
        <ele>689.5</ele>
      </trkpt>
      <trkpt lat="47.37802" lon="7.8667">
        <ele>689.5</ele>
      </trkpt>
      <trkpt lat="47.37802" lon="7.86676">
        <ele>689.3</ele>
      </trkpt>
      <trkpt lat="47.37803" lon="7.86689">
        <ele>688.7</ele>
      </trkpt>
      <trkpt lat="47.37806" lon="7.867">
        <ele>687.8</ele>
      </trkpt>
      <trkpt lat="47.37812" lon="7.8672">
        <ele>686</ele>
      </trkpt>
      <trkpt lat="47.37814" lon="7.86735">
        <ele>685.1</ele>
      </trkpt>
      <trkpt lat="47.37816" lon="7.86753">
        <ele>684.4</ele>
      </trkpt>
      <trkpt lat="47.37819" lon="7.86782">
        <ele>683.8</ele>
      </trkpt>
      <trkpt lat="47.37819" lon="7.86795">
        <ele>683.8</ele>
      </trkpt>
      <trkpt lat="47.37818" lon="7.86819">
        <ele>684.1</ele>
      </trkpt>
      <trkpt lat="47.37816" lon="7.86848">
        <ele>683.6</ele>
      </trkpt>
      <trkpt lat="47.37816" lon="7.86883">
        <ele>681.5</ele>
      </trkpt>
      <trkpt lat="47.37814" lon="7.86905">
        <ele>680.4</ele>
      </trkpt>
      <trkpt lat="47.37811" lon="7.86928">
        <ele>679.8</ele>
      </trkpt>
      <trkpt lat="47.37805" lon="7.8695">
        <ele>679.6</ele>
      </trkpt>
      <trkpt lat="47.37802" lon="7.86975">
        <ele>678.8</ele>
      </trkpt>
      <trkpt lat="47.37798" lon="7.87027">
        <ele>676.5</ele>
      </trkpt>
      <trkpt lat="47.37795" lon="7.8706">
        <ele>675</ele>
      </trkpt>
      <trkpt lat="47.37794" lon="7.87072">
        <ele>674.4</ele>
      </trkpt>
      <trkpt lat="47.37795" lon="7.8708">
        <ele>674.1</ele>
      </trkpt>
      <trkpt lat="47.37795" lon="7.87086">
        <ele>673.8</ele>
      </trkpt>
      <trkpt lat="47.37794" lon="7.87089">
        <ele>673.7</ele>
      </trkpt>
      <trkpt lat="47.37794" lon="7.8709">
        <ele>673.7</ele>
      </trkpt>
      <trkpt lat="47.37793" lon="7.87092">
        <ele>673.7</ele>
      </trkpt>
      <trkpt lat="47.37791" lon="7.87097">
        <ele>673.6</ele>
      </trkpt>
      <trkpt lat="47.37787" lon="7.87106">
        <ele>673.5</ele>
      </trkpt>
      <trkpt lat="47.37777" lon="7.87122">
        <ele>673.3</ele>
      </trkpt>
      <trkpt lat="47.37774" lon="7.87133">
        <ele>673</ele>
      </trkpt>
      <trkpt lat="47.37779" lon="7.8714">
        <ele>672.6</ele>
      </trkpt>
      <trkpt lat="47.37782" lon="7.87148">
        <ele>672.2</ele>
      </trkpt>
      <trkpt lat="47.37784" lon="7.87159">
        <ele>671.9</ele>
      </trkpt>
      <trkpt lat="47.37785" lon="7.87166">
        <ele>671.6</ele>
      </trkpt>
      <trkpt lat="47.37786" lon="7.87181">
        <ele>671.6</ele>
      </trkpt>
      <trkpt lat="47.37788" lon="7.87208">
        <ele>671.9</ele>
      </trkpt>
      <trkpt lat="47.37791" lon="7.87236">
        <ele>672.3</ele>
      </trkpt>
      <trkpt lat="47.37794" lon="7.87249">
        <ele>672.7</ele>
      </trkpt>
      <trkpt lat="47.37798" lon="7.87261">
        <ele>674</ele>
      </trkpt>
      <trkpt lat="47.37809" lon="7.87248">
        <ele>673.9</ele>
      </trkpt>
      <trkpt lat="47.37823" lon="7.87241">
        <ele>674.7</ele>
      </trkpt>
      <trkpt lat="47.37853" lon="7.87222">
        <ele>675.7</ele>
      </trkpt>
      <trkpt lat="47.37871" lon="7.87215">
        <ele>676.6</ele>
      </trkpt>
      <trkpt lat="47.37873" lon="7.87224">
        <ele>677.3</ele>
      </trkpt>
      <trkpt lat="47.37875" lon="7.87227">
        <ele>677.7</ele>
      </trkpt>
      <trkpt lat="47.37881" lon="7.87235">
        <ele>678.6</ele>
      </trkpt>
      <trkpt lat="47.37893" lon="7.8725">
        <ele>680.3</ele>
      </trkpt>
      <trkpt lat="47.37894" lon="7.8725">
        <ele>680.5</ele>
      </trkpt>
      <trkpt lat="47.37899" lon="7.87257">
        <ele>682.4</ele>
      </trkpt>
      <trkpt lat="47.3791" lon="7.87272">
        <ele>686.8</ele>
      </trkpt>
      <trkpt lat="47.3793" lon="7.87297">
        <ele>693.6</ele>
      </trkpt>
      <trkpt lat="47.37934" lon="7.87302">
        <ele>694.6</ele>
      </trkpt>
      <trkpt lat="47.37931" lon="7.87307">
        <ele>695.9</ele>
      </trkpt>
      <trkpt lat="47.37928" lon="7.8731">
        <ele>696.8</ele>
      </trkpt>
      <trkpt lat="47.37926" lon="7.87311">
        <ele>697.1</ele>
      </trkpt>
      <trkpt lat="47.37923" lon="7.87311">
        <ele>697.2</ele>
      </trkpt>
      <trkpt lat="47.37918" lon="7.87309">
        <ele>696.9</ele>
      </trkpt>
      <trkpt lat="47.37913" lon="7.87306">
        <ele>695.4</ele>
      </trkpt>
      <trkpt lat="47.37907" lon="7.87301">
        <ele>693.5</ele>
      </trkpt>
      <trkpt lat="47.37903" lon="7.87298">
        <ele>692.3</ele>
      </trkpt>
      <trkpt lat="47.37898" lon="7.87298">
        <ele>691.5</ele>
      </trkpt>
      <trkpt lat="47.37891" lon="7.87299">
        <ele>690.8</ele>
      </trkpt>
      <trkpt lat="47.37885" lon="7.873">
        <ele>690.4</ele>
      </trkpt>
      <trkpt lat="47.37879" lon="7.87305">
        <ele>690.4</ele>
      </trkpt>
      <trkpt lat="47.37872" lon="7.87311">
        <ele>690.5</ele>
      </trkpt>
      <trkpt lat="47.37865" lon="7.8732">
        <ele>691.2</ele>
      </trkpt>
      <trkpt lat="47.37858" lon="7.87331">
        <ele>692</ele>
      </trkpt>
      <trkpt lat="47.37854" lon="7.87338">
        <ele>692.9</ele>
      </trkpt>
      <trkpt lat="47.3785" lon="7.87347">
        <ele>694.2</ele>
      </trkpt>
      <trkpt lat="47.37843" lon="7.87364">
        <ele>697</ele>
      </trkpt>
      <trkpt lat="47.37835" lon="7.87385">
        <ele>700.2</ele>
      </trkpt>
      <trkpt lat="47.37831" lon="7.87401">
        <ele>702.6</ele>
      </trkpt>
      <trkpt lat="47.37825" lon="7.87423">
        <ele>705.4</ele>
      </trkpt>
      <trkpt lat="47.37818" lon="7.87447">
        <ele>708.1</ele>
      </trkpt>
      <trkpt lat="47.37812" lon="7.87467">
        <ele>710.2</ele>
      </trkpt>
      <trkpt lat="47.37807" lon="7.87485">
        <ele>712.1</ele>
      </trkpt>
      <trkpt lat="47.37802" lon="7.87499">
        <ele>713.1</ele>
      </trkpt>
      <trkpt lat="47.37795" lon="7.87513">
        <ele>714.1</ele>
      </trkpt>
      <trkpt lat="47.37786" lon="7.87529">
        <ele>715.1</ele>
      </trkpt>
      <trkpt lat="47.3778" lon="7.87538">
        <ele>715.3</ele>
      </trkpt>
      <trkpt lat="47.37772" lon="7.87555">
        <ele>716.7</ele>
      </trkpt>
      <trkpt lat="47.37764" lon="7.87569">
        <ele>717.9</ele>
      </trkpt>
      <trkpt lat="47.37758" lon="7.87578">
        <ele>718.2</ele>
      </trkpt>
      <trkpt lat="47.37751" lon="7.8759">
        <ele>718.7</ele>
      </trkpt>
      <trkpt lat="47.37739" lon="7.87604">
        <ele>720</ele>
      </trkpt>
      <trkpt lat="47.37716" lon="7.87631">
        <ele>722.6</ele>
      </trkpt>
      <trkpt lat="47.37718" lon="7.87644">
        <ele>725.6</ele>
      </trkpt>
      <trkpt lat="47.37717" lon="7.87661">
        <ele>729.2</ele>
      </trkpt>
      <trkpt lat="47.37716" lon="7.87674">
        <ele>730.9</ele>
      </trkpt>
      <trkpt lat="47.37721" lon="7.87681">
        <ele>732.4</ele>
      </trkpt>
      <trkpt lat="47.37733" lon="7.87706">
        <ele>736.9</ele>
      </trkpt>
      <trkpt lat="47.37736" lon="7.8771">
        <ele>738</ele>
      </trkpt>
      <trkpt lat="47.37743" lon="7.87712">
        <ele>739.6</ele>
      </trkpt>
      <trkpt lat="47.37766" lon="7.87699">
        <ele>743.3</ele>
      </trkpt>
      <trkpt lat="47.37774" lon="7.87694">
        <ele>745</ele>
      </trkpt>
      <trkpt lat="47.37781" lon="7.87691">
        <ele>746.3</ele>
      </trkpt>
      <trkpt lat="47.37785" lon="7.87691">
        <ele>747.3</ele>
      </trkpt>
      <trkpt lat="47.37791" lon="7.87693">
        <ele>749</ele>
      </trkpt>
      <trkpt lat="47.37798" lon="7.87693">
        <ele>750.7</ele>
      </trkpt>
      <trkpt lat="47.37808" lon="7.87692">
        <ele>753</ele>
      </trkpt>
      <trkpt lat="47.37824" lon="7.87689">
        <ele>756.6</ele>
      </trkpt>
      <trkpt lat="47.37846" lon="7.87685">
        <ele>760.5</ele>
      </trkpt>
      <trkpt lat="47.37853" lon="7.87684">
        <ele>761.7</ele>
      </trkpt>
      <trkpt lat="47.37861" lon="7.87687">
        <ele>763.3</ele>
      </trkpt>
      <trkpt lat="47.37867" lon="7.87692">
        <ele>765</ele>
      </trkpt>
      <trkpt lat="47.37873" lon="7.87698">
        <ele>766.8</ele>
      </trkpt>
      <trkpt lat="47.37879" lon="7.87704">
        <ele>768.5</ele>
      </trkpt>
      <trkpt lat="47.37899" lon="7.87729">
        <ele>774.2</ele>
      </trkpt>
      <trkpt lat="47.37902" lon="7.87736">
        <ele>775.5</ele>
      </trkpt>
      <trkpt lat="47.37909" lon="7.87751">
        <ele>778</ele>
      </trkpt>
      <trkpt lat="47.3791" lon="7.87755">
        <ele>778.7</ele>
      </trkpt>
      <trkpt lat="47.37911" lon="7.87761">
        <ele>779.5</ele>
      </trkpt>
      <trkpt lat="47.3791" lon="7.87767">
        <ele>780.3</ele>
      </trkpt>
      <trkpt lat="47.37909" lon="7.87774">
        <ele>781</ele>
      </trkpt>
      <trkpt lat="47.37908" lon="7.87783">
        <ele>782.1</ele>
      </trkpt>
      <trkpt lat="47.37908" lon="7.87793">
        <ele>783.4</ele>
      </trkpt>
      <trkpt lat="47.37906" lon="7.87813">
        <ele>785.7</ele>
      </trkpt>
      <trkpt lat="47.37904" lon="7.87821">
        <ele>786.5</ele>
      </trkpt>
      <trkpt lat="47.37902" lon="7.87827">
        <ele>786.7</ele>
      </trkpt>
      <trkpt lat="47.37899" lon="7.87832">
        <ele>787.1</ele>
      </trkpt>
      <trkpt lat="47.37896" lon="7.87837">
        <ele>786.4</ele>
      </trkpt>
      <trkpt lat="47.37892" lon="7.8784">
        <ele>785.4</ele>
      </trkpt>
      <trkpt lat="47.3789" lon="7.87845">
        <ele>784.4</ele>
      </trkpt>
      <trkpt lat="47.3789" lon="7.87849">
        <ele>783.9</ele>
      </trkpt>
      <trkpt lat="47.37892" lon="7.87854">
        <ele>783.8</ele>
      </trkpt>
      <trkpt lat="47.37895" lon="7.87857">
        <ele>784.2</ele>
      </trkpt>
      <trkpt lat="47.37928" lon="7.87889">
        <ele>789.8</ele>
      </trkpt>
      <trkpt lat="47.37944" lon="7.87901">
        <ele>790.6</ele>
      </trkpt>
      <trkpt lat="47.37954" lon="7.87907">
        <ele>791.4</ele>
      </trkpt>
      <trkpt lat="47.37958" lon="7.87911">
        <ele>791.8</ele>
      </trkpt>
      <trkpt lat="47.37964" lon="7.87919">
        <ele>792.3</ele>
      </trkpt>
      <trkpt lat="47.37972" lon="7.87931">
        <ele>792.2</ele>
      </trkpt>
      <trkpt lat="47.37977" lon="7.8794">
        <ele>792.4</ele>
      </trkpt>
      <trkpt lat="47.3798" lon="7.87946">
        <ele>792.7</ele>
      </trkpt>
      <trkpt lat="47.37983" lon="7.8795">
        <ele>793.1</ele>
      </trkpt>
      <trkpt lat="47.37986" lon="7.87951">
        <ele>793.5</ele>
      </trkpt>
      <trkpt lat="47.3799" lon="7.8795">
        <ele>794.2</ele>
      </trkpt>
      <trkpt lat="47.37994" lon="7.87948">
        <ele>794.8</ele>
      </trkpt>
      <trkpt lat="47.37998" lon="7.87943">
        <ele>795.4</ele>
      </trkpt>
      <trkpt lat="47.38002" lon="7.87942">
        <ele>795.6</ele>
      </trkpt>
      <trkpt lat="47.38005" lon="7.87943">
        <ele>795.7</ele>
      </trkpt>
      <trkpt lat="47.38012" lon="7.87951">
        <ele>796</ele>
      </trkpt>
      <trkpt lat="47.38017" lon="7.87956">
        <ele>796.4</ele>
      </trkpt>
      <trkpt lat="47.38022" lon="7.87957">
        <ele>796.6</ele>
      </trkpt>
      <trkpt lat="47.38027" lon="7.87956">
        <ele>796.7</ele>
      </trkpt>
      <trkpt lat="47.38033" lon="7.87954">
        <ele>796.7</ele>
      </trkpt>
      <trkpt lat="47.3804" lon="7.87952">
        <ele>796.7</ele>
      </trkpt>
      <trkpt lat="47.38043" lon="7.8795">
        <ele>796.7</ele>
      </trkpt>
      <trkpt lat="47.38046" lon="7.87951">
        <ele>796.8</ele>
      </trkpt>
      <trkpt lat="47.38049" lon="7.87956">
        <ele>797.3</ele>
      </trkpt>
      <trkpt lat="47.38077" lon="7.88019">
        <ele>800.9</ele>
      </trkpt>
      <trkpt lat="47.38086" lon="7.8804">
        <ele>798.3</ele>
      </trkpt>
      <trkpt lat="47.38091" lon="7.88054">
        <ele>795.9</ele>
      </trkpt>
      <trkpt lat="47.38094" lon="7.88058">
        <ele>795.2</ele>
      </trkpt>
      <trkpt lat="47.38097" lon="7.88061">
        <ele>794.6</ele>
      </trkpt>
      <trkpt lat="47.38101" lon="7.88063">
        <ele>794.1</ele>
      </trkpt>
      <trkpt lat="47.38104" lon="7.88063">
        <ele>793.8</ele>
      </trkpt>
      <trkpt lat="47.38116" lon="7.88062">
        <ele>792.7</ele>
      </trkpt>
      <trkpt lat="47.38121" lon="7.88063">
        <ele>792.3</ele>
      </trkpt>
      <trkpt lat="47.38125" lon="7.88065">
        <ele>791.8</ele>
      </trkpt>
      <trkpt lat="47.38129" lon="7.88069">
        <ele>791.5</ele>
      </trkpt>
      <trkpt lat="47.38133" lon="7.88073">
        <ele>791.2</ele>
      </trkpt>
      <trkpt lat="47.38142" lon="7.88084">
        <ele>790.8</ele>
      </trkpt>
      <trkpt lat="47.38146" lon="7.88087">
        <ele>789.9</ele>
      </trkpt>
      <trkpt lat="47.3815" lon="7.88089">
        <ele>789.4</ele>
      </trkpt>
      <trkpt lat="47.38154" lon="7.88091">
        <ele>789</ele>
      </trkpt>
      <trkpt lat="47.38158" lon="7.88091">
        <ele>788.9</ele>
      </trkpt>
      <trkpt lat="47.38163" lon="7.88093">
        <ele>788.4</ele>
      </trkpt>
      <trkpt lat="47.38166" lon="7.88097">
        <ele>787.7</ele>
      </trkpt>
      <trkpt lat="47.38168" lon="7.88099">
        <ele>787.2</ele>
      </trkpt>
      <trkpt lat="47.38173" lon="7.88106">
        <ele>784.9</ele>
      </trkpt>
      <trkpt lat="47.38176" lon="7.88108">
        <ele>784.1</ele>
      </trkpt>
      <trkpt lat="47.3818" lon="7.88112">
        <ele>782.7</ele>
      </trkpt>
      <trkpt lat="47.38191" lon="7.88121">
        <ele>779.4</ele>
      </trkpt>
      <trkpt lat="47.38197" lon="7.8813">
        <ele>777.5</ele>
      </trkpt>
      <trkpt lat="47.38199" lon="7.88132">
        <ele>776.9</ele>
      </trkpt>
      <trkpt lat="47.38202" lon="7.88132">
        <ele>776.5</ele>
      </trkpt>
      <trkpt lat="47.38205" lon="7.88131">
        <ele>776.1</ele>
      </trkpt>
      <trkpt lat="47.38218" lon="7.88121">
        <ele>774.7</ele>
      </trkpt>
      <trkpt lat="47.38224" lon="7.88114">
        <ele>773.9</ele>
      </trkpt>
      <trkpt lat="47.38238" lon="7.88097">
        <ele>771.7</ele>
      </trkpt>
      <trkpt lat="47.38249" lon="7.88134">
        <ele>769.1</ele>
      </trkpt>
      <trkpt lat="47.38264" lon="7.88183">
        <ele>770.5</ele>
      </trkpt>
      <trkpt lat="47.38273" lon="7.88211">
        <ele>771.5</ele>
      </trkpt>
      <trkpt lat="47.38277" lon="7.88223">
        <ele>771.7</ele>
      </trkpt>
      <trkpt lat="47.3828" lon="7.88227">
        <ele>771.7</ele>
      </trkpt>
      <trkpt lat="47.38284" lon="7.88229">
        <ele>771.7</ele>
      </trkpt>
      <trkpt lat="47.38348" lon="7.88252">
        <ele>770.1</ele>
      </trkpt>
      <trkpt lat="47.38358" lon="7.88254">
        <ele>770</ele>
      </trkpt>
      <trkpt lat="47.38367" lon="7.88256">
        <ele>770.1</ele>
      </trkpt>
      <trkpt lat="47.38374" lon="7.88256">
        <ele>770.2</ele>
      </trkpt>
      <trkpt lat="47.3838" lon="7.88258">
        <ele>770.2</ele>
      </trkpt>
      <trkpt lat="47.38385" lon="7.88261">
        <ele>770.1</ele>
      </trkpt>
      <trkpt lat="47.3839" lon="7.88266">
        <ele>769.8</ele>
      </trkpt>
      <trkpt lat="47.38401" lon="7.88277">
        <ele>769.2</ele>
      </trkpt>
      <trkpt lat="47.38426" lon="7.88299">
        <ele>768.7</ele>
      </trkpt>
      <trkpt lat="47.38432" lon="7.88305">
        <ele>768.5</ele>
      </trkpt>
      <trkpt lat="47.38438" lon="7.88311">
        <ele>768.3</ele>
      </trkpt>
      <trkpt lat="47.38444" lon="7.88319">
        <ele>768.2</ele>
      </trkpt>
      <trkpt lat="47.38453" lon="7.88331">
        <ele>768.2</ele>
      </trkpt>
      <trkpt lat="47.38466" lon="7.88351">
        <ele>769.3</ele>
      </trkpt>
      <trkpt lat="47.38496" lon="7.88394">
        <ele>774.1</ele>
      </trkpt>
      <trkpt lat="47.38505" lon="7.88406">
        <ele>776</ele>
      </trkpt>
      <trkpt lat="47.38521" lon="7.88427">
        <ele>778.5</ele>
      </trkpt>
      <trkpt lat="47.38525" lon="7.88436">
        <ele>778.8</ele>
      </trkpt>
      <trkpt lat="47.38529" lon="7.88449">
        <ele>778.9</ele>
      </trkpt>
      <trkpt lat="47.3853" lon="7.88459">
        <ele>778.8</ele>
      </trkpt>
      <trkpt lat="47.38531" lon="7.88476">
        <ele>778.4</ele>
      </trkpt>
      <trkpt lat="47.38531" lon="7.8852">
        <ele>776.6</ele>
      </trkpt>
      <trkpt lat="47.38531" lon="7.88555">
        <ele>774.8</ele>
      </trkpt>
      <trkpt lat="47.3853" lon="7.88577">
        <ele>773.7</ele>
      </trkpt>
      <trkpt lat="47.38529" lon="7.8859">
        <ele>773.1</ele>
      </trkpt>
      <trkpt lat="47.38527" lon="7.88606">
        <ele>772.6</ele>
      </trkpt>
      <trkpt lat="47.38526" lon="7.88611">
        <ele>772.4</ele>
      </trkpt>
      <trkpt lat="47.38525" lon="7.88621">
        <ele>772.2</ele>
      </trkpt>
      <trkpt lat="47.38522" lon="7.88632">
        <ele>771.9</ele>
      </trkpt>
      <trkpt lat="47.38514" lon="7.88653">
        <ele>771.6</ele>
      </trkpt>
      <trkpt lat="47.38501" lon="7.88688">
        <ele>773.2</ele>
      </trkpt>
      <trkpt lat="47.38498" lon="7.88698">
        <ele>773.6</ele>
      </trkpt>
      <trkpt lat="47.38495" lon="7.88708">
        <ele>773.8</ele>
      </trkpt>
      <trkpt lat="47.38495" lon="7.88713">
        <ele>774</ele>
      </trkpt>
      <trkpt lat="47.38494" lon="7.88722">
        <ele>774.5</ele>
      </trkpt>
      <trkpt lat="47.38494" lon="7.88732">
        <ele>775.1</ele>
      </trkpt>
      <trkpt lat="47.38493" lon="7.88764">
        <ele>777.6</ele>
      </trkpt>
      <trkpt lat="47.38493" lon="7.88774">
        <ele>778.6</ele>
      </trkpt>
      <trkpt lat="47.38492" lon="7.88785">
        <ele>779.7</ele>
      </trkpt>
      <trkpt lat="47.38491" lon="7.88794">
        <ele>780.5</ele>
      </trkpt>
      <trkpt lat="47.38488" lon="7.88805">
        <ele>781.4</ele>
      </trkpt>
      <trkpt lat="47.38485" lon="7.88814">
        <ele>782.3</ele>
      </trkpt>
      <trkpt lat="47.38486" lon="7.88829">
        <ele>784</ele>
      </trkpt>
      <trkpt lat="47.38487" lon="7.88845">
        <ele>785.9</ele>
      </trkpt>
      <trkpt lat="47.38492" lon="7.88876">
        <ele>789.3</ele>
      </trkpt>
      <trkpt lat="47.38501" lon="7.88918">
        <ele>793.2</ele>
      </trkpt>
      <trkpt lat="47.38509" lon="7.88953">
        <ele>798</ele>
      </trkpt>
      <trkpt lat="47.38514" lon="7.88977">
        <ele>801.3</ele>
      </trkpt>
      <trkpt lat="47.38516" lon="7.88998">
        <ele>804.1</ele>
      </trkpt>
      <trkpt lat="47.38518" lon="7.89016">
        <ele>806.1</ele>
      </trkpt>
      <trkpt lat="47.38518" lon="7.89036">
        <ele>808.1</ele>
      </trkpt>
      <trkpt lat="47.38518" lon="7.89057">
        <ele>810.3</ele>
      </trkpt>
      <trkpt lat="47.38516" lon="7.89076">
        <ele>812.4</ele>
      </trkpt>
      <trkpt lat="47.38512" lon="7.89108">
        <ele>816.1</ele>
      </trkpt>
      <trkpt lat="47.38508" lon="7.89139">
        <ele>819.7</ele>
      </trkpt>
      <trkpt lat="47.38503" lon="7.89158">
        <ele>822.5</ele>
      </trkpt>
      <trkpt lat="47.38496" lon="7.89179">
        <ele>825.6</ele>
      </trkpt>
      <trkpt lat="47.38479" lon="7.89212">
        <ele>830.9</ele>
      </trkpt>
      <trkpt lat="47.3847" lon="7.89227">
        <ele>833</ele>
      </trkpt>
      <trkpt lat="47.38455" lon="7.89254">
        <ele>834.5</ele>
      </trkpt>
      <trkpt lat="47.38447" lon="7.89268">
        <ele>835.1</ele>
      </trkpt>
      <trkpt lat="47.38437" lon="7.8928">
        <ele>836.2</ele>
      </trkpt>
      <trkpt lat="47.38421" lon="7.89303">
        <ele>838.1</ele>
      </trkpt>
      <trkpt lat="47.38403" lon="7.89329">
        <ele>835.8</ele>
      </trkpt>
      <trkpt lat="47.38381" lon="7.89366">
        <ele>831.4</ele>
      </trkpt>
      <trkpt lat="47.38379" lon="7.89381">
        <ele>830.6</ele>
      </trkpt>
      <trkpt lat="47.38378" lon="7.89392">
        <ele>829.9</ele>
      </trkpt>
      <trkpt lat="47.38375" lon="7.89405">
        <ele>829</ele>
      </trkpt>
      <trkpt lat="47.38376" lon="7.89417">
        <ele>828.6</ele>
      </trkpt>
      <trkpt lat="47.38375" lon="7.89436">
        <ele>828.6</ele>
      </trkpt>
      <trkpt lat="47.38373" lon="7.89459">
        <ele>828.8</ele>
      </trkpt>
      <trkpt lat="47.38369" lon="7.89482">
        <ele>829.3</ele>
      </trkpt>
      <trkpt lat="47.38364" lon="7.895">
        <ele>830.1</ele>
      </trkpt>
      <trkpt lat="47.38362" lon="7.89516">
        <ele>831.7</ele>
      </trkpt>
      <trkpt lat="47.38362" lon="7.89531">
        <ele>833.1</ele>
      </trkpt>
      <trkpt lat="47.38363" lon="7.89543">
        <ele>834.1</ele>
      </trkpt>
      <trkpt lat="47.38364" lon="7.89576">
        <ele>836.7</ele>
      </trkpt>
      <trkpt lat="47.38365" lon="7.89608">
        <ele>837.6</ele>
      </trkpt>
      <trkpt lat="47.38365" lon="7.89643">
        <ele>838</ele>
      </trkpt>
      <trkpt lat="47.38364" lon="7.89654">
        <ele>838.2</ele>
      </trkpt>
      <trkpt lat="47.38365" lon="7.89679">
        <ele>838.8</ele>
      </trkpt>
      <trkpt lat="47.38364" lon="7.89699">
        <ele>839.9</ele>
      </trkpt>
      <trkpt lat="47.38365" lon="7.89716">
        <ele>840.6</ele>
      </trkpt>
      <trkpt lat="47.38365" lon="7.89732">
        <ele>841.2</ele>
      </trkpt>
      <trkpt lat="47.38366" lon="7.89748">
        <ele>841.9</ele>
      </trkpt>
      <trkpt lat="47.38368" lon="7.89768">
        <ele>843.5</ele>
      </trkpt>
      <trkpt lat="47.38377" lon="7.8983">
        <ele>848.2</ele>
      </trkpt>
      <trkpt lat="47.3838" lon="7.89853">
        <ele>850.5</ele>
      </trkpt>
      <trkpt lat="47.38381" lon="7.89863">
        <ele>851.4</ele>
      </trkpt>
      <trkpt lat="47.38383" lon="7.89869">
        <ele>851.9</ele>
      </trkpt>
      <trkpt lat="47.38385" lon="7.89874">
        <ele>852.2</ele>
      </trkpt>
      <trkpt lat="47.38389" lon="7.89888">
        <ele>853.1</ele>
      </trkpt>
      <trkpt lat="47.38409" lon="7.89948">
        <ele>857.5</ele>
      </trkpt>
      <trkpt lat="47.38415" lon="7.89964">
        <ele>859</ele>
      </trkpt>
      <trkpt lat="47.38437" lon="7.90022">
        <ele>864.9</ele>
      </trkpt>
      <trkpt lat="47.38443" lon="7.90036">
        <ele>866.9</ele>
      </trkpt>
      <trkpt lat="47.38453" lon="7.9005">
        <ele>868.8</ele>
      </trkpt>
      <trkpt lat="47.38478" lon="7.90073">
        <ele>873.2</ele>
      </trkpt>
      <trkpt lat="47.38488" lon="7.90084">
        <ele>876.3</ele>
      </trkpt>
      <trkpt lat="47.38494" lon="7.90093">
        <ele>878.6</ele>
      </trkpt>
      <trkpt lat="47.38496" lon="7.90097">
        <ele>879.7</ele>
      </trkpt>
      <trkpt lat="47.38506" lon="7.90113">
        <ele>882.6</ele>
      </trkpt>
      <trkpt lat="47.38515" lon="7.90122">
        <ele>883.2</ele>
      </trkpt>
      <trkpt lat="47.38533" lon="7.90147">
        <ele>885.9</ele>
      </trkpt>
      <trkpt lat="47.3854" lon="7.90153">
        <ele>886.4</ele>
      </trkpt>
      <trkpt lat="47.38557" lon="7.90168">
        <ele>886.9</ele>
      </trkpt>
      <trkpt lat="47.38581" lon="7.90183">
        <ele>886.5</ele>
      </trkpt>
      <trkpt lat="47.3859" lon="7.90191">
        <ele>886.2</ele>
      </trkpt>
      <trkpt lat="47.38598" lon="7.90199">
        <ele>885.9</ele>
      </trkpt>
      <trkpt lat="47.38604" lon="7.90208">
        <ele>886.2</ele>
      </trkpt>
      <trkpt lat="47.38616" lon="7.90227">
        <ele>886.5</ele>
      </trkpt>
      <trkpt lat="47.38628" lon="7.90252">
        <ele>887.4</ele>
      </trkpt>
      <trkpt lat="47.38639" lon="7.90277">
        <ele>885.4</ele>
      </trkpt>
      <trkpt lat="47.3865" lon="7.90298">
        <ele>882.8</ele>
      </trkpt>
      <trkpt lat="47.3866" lon="7.90316">
        <ele>880.2</ele>
      </trkpt>
      <trkpt lat="47.38667" lon="7.90331">
        <ele>878.7</ele>
      </trkpt>
      <trkpt lat="47.38674" lon="7.90343">
        <ele>879.8</ele>
      </trkpt>
      <trkpt lat="47.38683" lon="7.90364">
        <ele>881.5</ele>
      </trkpt>
      <trkpt lat="47.38703" lon="7.90398">
        <ele>883.5</ele>
      </trkpt>
      <trkpt lat="47.38713" lon="7.90413">
        <ele>883.8</ele>
      </trkpt>
      <trkpt lat="47.38718" lon="7.90413">
        <ele>883.2</ele>
      </trkpt>
      <trkpt lat="47.38723" lon="7.90413">
        <ele>882.6</ele>
      </trkpt>
      <trkpt lat="47.38735" lon="7.90413">
        <ele>880.8</ele>
      </trkpt>
      <trkpt lat="47.38755" lon="7.90412">
        <ele>878.3</ele>
      </trkpt>
      <trkpt lat="47.38785" lon="7.90409">
        <ele>876.1</ele>
      </trkpt>
      <trkpt lat="47.388" lon="7.90406">
        <ele>875</ele>
      </trkpt>
      <trkpt lat="47.38815" lon="7.90401">
        <ele>874</ele>
      </trkpt>
      <trkpt lat="47.38827" lon="7.90395">
        <ele>873.3</ele>
      </trkpt>
      <trkpt lat="47.38831" lon="7.90392">
        <ele>873.1</ele>
      </trkpt>
      <trkpt lat="47.38837" lon="7.90389">
        <ele>872.3</ele>
      </trkpt>
      <trkpt lat="47.38838" lon="7.90389">
        <ele>872.2</ele>
      </trkpt>
      <trkpt lat="47.38843" lon="7.90391">
        <ele>871.3</ele>
      </trkpt>
      <trkpt lat="47.38848" lon="7.90393">
        <ele>870.3</ele>
      </trkpt>
      <trkpt lat="47.38863" lon="7.90401">
        <ele>867.7</ele>
      </trkpt>
      <trkpt lat="47.38869" lon="7.90407">
        <ele>866.6</ele>
      </trkpt>
      <trkpt lat="47.38885" lon="7.90418">
        <ele>863.8</ele>
      </trkpt>
      <trkpt lat="47.38893" lon="7.90424">
        <ele>862.5</ele>
      </trkpt>
      <trkpt lat="47.38908" lon="7.90436">
        <ele>860.1</ele>
      </trkpt>
      <trkpt lat="47.38918" lon="7.90443">
        <ele>858.2</ele>
      </trkpt>
      <trkpt lat="47.38941" lon="7.90457">
        <ele>853.2</ele>
      </trkpt>
      <trkpt lat="47.38977" lon="7.90478">
        <ele>844.6</ele>
      </trkpt>
      <trkpt lat="47.38981" lon="7.90481">
        <ele>843.6</ele>
      </trkpt>
      <trkpt lat="47.38984" lon="7.90485">
        <ele>842.6</ele>
      </trkpt>
      <trkpt lat="47.38987" lon="7.9049">
        <ele>841.7</ele>
      </trkpt>
      <trkpt lat="47.39006" lon="7.90526">
        <ele>835.4</ele>
      </trkpt>
      <trkpt lat="47.39007" lon="7.90528">
        <ele>835.1</ele>
      </trkpt>
      <trkpt lat="47.39008" lon="7.90528">
        <ele>835</ele>
      </trkpt>
      <trkpt lat="47.39009" lon="7.90528">
        <ele>834.9</ele>
      </trkpt>
      <trkpt lat="47.39017" lon="7.90546">
        <ele>832.1</ele>
      </trkpt>
      <trkpt lat="47.39035" lon="7.90574">
        <ele>826.7</ele>
      </trkpt>
      <trkpt lat="47.39047" lon="7.90596">
        <ele>823.9</ele>
      </trkpt>
      <trkpt lat="47.39054" lon="7.90604">
        <ele>823</ele>
      </trkpt>
      <trkpt lat="47.39066" lon="7.90619">
        <ele>821</ele>
      </trkpt>
      <trkpt lat="47.39073" lon="7.9063">
        <ele>820.2</ele>
      </trkpt>
      <trkpt lat="47.39075" lon="7.90634">
        <ele>819.9</ele>
      </trkpt>
      <trkpt lat="47.39078" lon="7.90639">
        <ele>819.5</ele>
      </trkpt>
      <trkpt lat="47.3908" lon="7.90642">
        <ele>819.2</ele>
      </trkpt>
      <trkpt lat="47.39083" lon="7.90643">
        <ele>818.6</ele>
      </trkpt>
      <trkpt lat="47.39089" lon="7.90634">
        <ele>817.1</ele>
      </trkpt>
      <trkpt lat="47.39091" lon="7.90632">
        <ele>816.6</ele>
      </trkpt>
      <trkpt lat="47.39093" lon="7.90628">
        <ele>816.2</ele>
      </trkpt>
      <trkpt lat="47.39095" lon="7.90624">
        <ele>815.6</ele>
      </trkpt>
      <trkpt lat="47.39098" lon="7.90619">
        <ele>814.9</ele>
      </trkpt>
      <trkpt lat="47.391" lon="7.90615">
        <ele>814.5</ele>
      </trkpt>
      <trkpt lat="47.39103" lon="7.90613">
        <ele>814.1</ele>
      </trkpt>
      <trkpt lat="47.39105" lon="7.9061">
        <ele>813.7</ele>
      </trkpt>
      <trkpt lat="47.39108" lon="7.90609">
        <ele>813.3</ele>
      </trkpt>
      <trkpt lat="47.39114" lon="7.90604">
        <ele>812.4</ele>
      </trkpt>
      <trkpt lat="47.3912" lon="7.906">
        <ele>811.6</ele>
      </trkpt>
      <trkpt lat="47.39125" lon="7.90597">
        <ele>811</ele>
      </trkpt>
      <trkpt lat="47.39131" lon="7.90591">
        <ele>810.3</ele>
      </trkpt>
      <trkpt lat="47.39135" lon="7.90586">
        <ele>810</ele>
      </trkpt>
      <trkpt lat="47.3914" lon="7.90585">
        <ele>809.6</ele>
      </trkpt>
      <trkpt lat="47.39142" lon="7.90585">
        <ele>809.3</ele>
      </trkpt>
      <trkpt lat="47.39146" lon="7.90585">
        <ele>809</ele>
      </trkpt>
      <trkpt lat="47.39154" lon="7.90585">
        <ele>808.2</ele>
      </trkpt>
      <trkpt lat="47.39163" lon="7.90586">
        <ele>807.3</ele>
      </trkpt>
      <trkpt lat="47.39166" lon="7.90586">
        <ele>807</ele>
      </trkpt>
      <trkpt lat="47.39168" lon="7.90586">
        <ele>806.9</ele>
      </trkpt>
      <trkpt lat="47.3917" lon="7.90586">
        <ele>806.8</ele>
      </trkpt>
      <trkpt lat="47.39173" lon="7.90589">
        <ele>806.7</ele>
      </trkpt>
      <trkpt lat="47.39178" lon="7.90593">
        <ele>806.5</ele>
      </trkpt>
      <trkpt lat="47.39179" lon="7.90601">
        <ele>806.2</ele>
      </trkpt>
      <trkpt lat="47.3918" lon="7.90605">
        <ele>806</ele>
      </trkpt>
      <trkpt lat="47.39182" lon="7.90613">
        <ele>805.6</ele>
      </trkpt>
      <trkpt lat="47.39186" lon="7.90625">
        <ele>805.2</ele>
      </trkpt>
      <trkpt lat="47.39191" lon="7.90632">
        <ele>805.1</ele>
      </trkpt>
      <trkpt lat="47.39192" lon="7.9064">
        <ele>804.8</ele>
      </trkpt>
      <trkpt lat="47.392" lon="7.90642">
        <ele>805.2</ele>
      </trkpt>
      <trkpt lat="47.39207" lon="7.90645">
        <ele>805.5</ele>
      </trkpt>
      <trkpt lat="47.39216" lon="7.90643">
        <ele>805.9</ele>
      </trkpt>
      <trkpt lat="47.39222" lon="7.90642">
        <ele>806.3</ele>
      </trkpt>
      <trkpt lat="47.3923" lon="7.9064">
        <ele>806.7</ele>
      </trkpt>
      <trkpt lat="47.3923" lon="7.90644">
        <ele>806.7</ele>
      </trkpt>
      <trkpt lat="47.39232" lon="7.90649">
        <ele>806.8</ele>
      </trkpt>
      <trkpt lat="47.39238" lon="7.90675">
        <ele>806.6</ele>
      </trkpt>
      <trkpt lat="47.39245" lon="7.90696">
        <ele>805.6</ele>
      </trkpt>
      <trkpt lat="47.3925" lon="7.90712">
        <ele>804.8</ele>
      </trkpt>
      <trkpt lat="47.39259" lon="7.90739">
        <ele>805.1</ele>
      </trkpt>
      <trkpt lat="47.39264" lon="7.90754">
        <ele>805.2</ele>
      </trkpt>
      <trkpt lat="47.39269" lon="7.90773">
        <ele>804.2</ele>
      </trkpt>
      <trkpt lat="47.39275" lon="7.90794">
        <ele>803.2</ele>
      </trkpt>
      <trkpt lat="47.39277" lon="7.90802">
        <ele>802.7</ele>
      </trkpt>
      <trkpt lat="47.39279" lon="7.90814">
        <ele>801.8</ele>
      </trkpt>
      <trkpt lat="47.39287" lon="7.90833">
        <ele>801.3</ele>
      </trkpt>
      <trkpt lat="47.39292" lon="7.90848">
        <ele>801.2</ele>
      </trkpt>
      <trkpt lat="47.393" lon="7.90868">
        <ele>800.9</ele>
      </trkpt>
      <trkpt lat="47.39307" lon="7.90886">
        <ele>800.5</ele>
      </trkpt>
      <trkpt lat="47.39311" lon="7.90894">
        <ele>800.3</ele>
      </trkpt>
      <trkpt lat="47.39313" lon="7.90902">
        <ele>799.9</ele>
      </trkpt>
      <trkpt lat="47.39318" lon="7.90914">
        <ele>799.4</ele>
      </trkpt>
      <trkpt lat="47.39318" lon="7.90928">
        <ele>799</ele>
      </trkpt>
      <trkpt lat="47.39316" lon="7.90951">
        <ele>798.2</ele>
      </trkpt>
      <trkpt lat="47.39316" lon="7.90977">
        <ele>797.8</ele>
      </trkpt>
      <trkpt lat="47.3932" lon="7.90981">
        <ele>798.9</ele>
      </trkpt>
      <trkpt lat="47.39322" lon="7.90983">
        <ele>799.3</ele>
      </trkpt>
      <trkpt lat="47.39341" lon="7.91">
        <ele>803.4</ele>
      </trkpt>
      <trkpt lat="47.39365" lon="7.91019">
        <ele>808.6</ele>
      </trkpt>
      <trkpt lat="47.39371" lon="7.91024">
        <ele>809.9</ele>
      </trkpt>
      <trkpt lat="47.39414" lon="7.91059">
        <ele>819.3</ele>
      </trkpt>
      <trkpt lat="47.39431" lon="7.91077">
        <ele>820.7</ele>
      </trkpt>
      <trkpt lat="47.39449" lon="7.91098">
        <ele>821</ele>
      </trkpt>
      <trkpt lat="47.39527" lon="7.91211">
        <ele>823.4</ele>
      </trkpt>
      <trkpt lat="47.39528" lon="7.91213">
        <ele>823.4</ele>
      </trkpt>
      <trkpt lat="47.3953" lon="7.91216">
        <ele>823.5</ele>
      </trkpt>
      <trkpt lat="47.39533" lon="7.91221">
        <ele>823.6</ele>
      </trkpt>
      <trkpt lat="47.39542" lon="7.9123">
        <ele>824</ele>
      </trkpt>
      <trkpt lat="47.39577" lon="7.91267">
        <ele>824</ele>
      </trkpt>
      <trkpt lat="47.39583" lon="7.91272">
        <ele>823.9</ele>
      </trkpt>
      <trkpt lat="47.39608" lon="7.91283">
        <ele>826</ele>
      </trkpt>
      <trkpt lat="47.39615" lon="7.91289">
        <ele>826.1</ele>
      </trkpt>
      <trkpt lat="47.39622" lon="7.91297">
        <ele>825.9</ele>
      </trkpt>
      <trkpt lat="47.39629" lon="7.91306">
        <ele>825.5</ele>
      </trkpt>
      <trkpt lat="47.39636" lon="7.91317">
        <ele>824.8</ele>
      </trkpt>
      <trkpt lat="47.39643" lon="7.9133">
        <ele>823.5</ele>
      </trkpt>
      <trkpt lat="47.39692" lon="7.91454">
        <ele>815.4</ele>
      </trkpt>
      <trkpt lat="47.39698" lon="7.91469">
        <ele>814.3</ele>
      </trkpt>
      <trkpt lat="47.39705" lon="7.91483">
        <ele>813.4</ele>
      </trkpt>
      <trkpt lat="47.39713" lon="7.91497">
        <ele>812.4</ele>
      </trkpt>
      <trkpt lat="47.39721" lon="7.9151">
        <ele>811.5</ele>
      </trkpt>
      <trkpt lat="47.39729" lon="7.91522">
        <ele>810.8</ele>
      </trkpt>
      <trkpt lat="47.39736" lon="7.91532">
        <ele>810.1</ele>
      </trkpt>
      <trkpt lat="47.39748" lon="7.91553">
        <ele>808.1</ele>
      </trkpt>
      <trkpt lat="47.39772" lon="7.91597">
        <ele>806.3</ele>
      </trkpt>
      <trkpt lat="47.39773" lon="7.916">
        <ele>806.3</ele>
      </trkpt>
      <trkpt lat="47.39774" lon="7.91601">
        <ele>806.3</ele>
      </trkpt>
      <trkpt lat="47.39779" lon="7.91611">
        <ele>806.1</ele>
      </trkpt>
      <trkpt lat="47.39785" lon="7.91624">
        <ele>805.7</ele>
      </trkpt>
      <trkpt lat="47.39857" lon="7.91781">
        <ele>802.6</ele>
      </trkpt>
      <trkpt lat="47.39901" lon="7.91864">
        <ele>800.6</ele>
      </trkpt>
      <trkpt lat="47.39912" lon="7.91883">
        <ele>799</ele>
      </trkpt>
      <trkpt lat="47.39918" lon="7.91891">
        <ele>798.6</ele>
      </trkpt>
      <trkpt lat="47.39926" lon="7.91898">
        <ele>800.1</ele>
      </trkpt>
      <trkpt lat="47.39931" lon="7.91906">
        <ele>800.8</ele>
      </trkpt>
      <trkpt lat="47.39953" lon="7.91943">
        <ele>805.7</ele>
      </trkpt>
      <trkpt lat="47.39959" lon="7.91957">
        <ele>807.2</ele>
      </trkpt>
      <trkpt lat="47.39966" lon="7.91976">
        <ele>808.9</ele>
      </trkpt>
      <trkpt lat="47.39977" lon="7.92012">
        <ele>810.6</ele>
      </trkpt>
      <trkpt lat="47.39978" lon="7.92027">
        <ele>809.7</ele>
      </trkpt>
      <trkpt lat="47.39977" lon="7.92048">
        <ele>808</ele>
      </trkpt>
      <trkpt lat="47.39973" lon="7.92105">
        <ele>797.9</ele>
      </trkpt>
      <trkpt lat="47.39969" lon="7.92123">
        <ele>791.8</ele>
      </trkpt>
      <trkpt lat="47.39968" lon="7.92132">
        <ele>788.8</ele>
      </trkpt>
      <trkpt lat="47.39967" lon="7.92139">
        <ele>787</ele>
      </trkpt>
      <trkpt lat="47.39969" lon="7.9215">
        <ele>784.5</ele>
      </trkpt>
      <trkpt lat="47.39973" lon="7.92158">
        <ele>783.8</ele>
      </trkpt>
      <trkpt lat="47.39985" lon="7.92165">
        <ele>785.1</ele>
      </trkpt>
      <trkpt lat="47.39992" lon="7.92168">
        <ele>786.3</ele>
      </trkpt>
      <trkpt lat="47.40024" lon="7.92175">
        <ele>791.8</ele>
      </trkpt>
      <trkpt lat="47.40053" lon="7.92175">
        <ele>798.5</ele>
      </trkpt>
      <trkpt lat="47.40066" lon="7.92174">
        <ele>801.9</ele>
      </trkpt>
      <trkpt lat="47.40077" lon="7.92177">
        <ele>803.4</ele>
      </trkpt>
      <trkpt lat="47.40083" lon="7.92182">
        <ele>802.7</ele>
      </trkpt>
      <trkpt lat="47.40096" lon="7.92181">
        <ele>806.9</ele>
      </trkpt>
      <trkpt lat="47.40103" lon="7.92184">
        <ele>807.7</ele>
      </trkpt>
      <trkpt lat="47.40111" lon="7.92186">
        <ele>809.3</ele>
      </trkpt>
      <trkpt lat="47.40117" lon="7.92191">
        <ele>808.8</ele>
      </trkpt>
      <trkpt lat="47.40121" lon="7.92197">
        <ele>807.8</ele>
      </trkpt>
      <trkpt lat="47.40124" lon="7.92202">
        <ele>806.5</ele>
      </trkpt>
      <trkpt lat="47.4013" lon="7.92214">
        <ele>803.4</ele>
      </trkpt>
      <trkpt lat="47.40133" lon="7.92221">
        <ele>801.3</ele>
      </trkpt>
      <trkpt lat="47.40137" lon="7.92227">
        <ele>800.1</ele>
      </trkpt>
      <trkpt lat="47.4014" lon="7.92231">
        <ele>799.3</ele>
      </trkpt>
      <trkpt lat="47.40146" lon="7.92236">
        <ele>799</ele>
      </trkpt>
      <trkpt lat="47.40151" lon="7.92241">
        <ele>798.5</ele>
      </trkpt>
      <trkpt lat="47.40165" lon="7.92257">
        <ele>798.2</ele>
      </trkpt>
      <trkpt lat="47.40172" lon="7.92269">
        <ele>798.6</ele>
      </trkpt>
      <trkpt lat="47.4019" lon="7.92281">
        <ele>800.6</ele>
      </trkpt>
      <trkpt lat="47.40197" lon="7.92286">
        <ele>801.2</ele>
      </trkpt>
      <trkpt lat="47.40203" lon="7.92289">
        <ele>801.9</ele>
      </trkpt>
      <trkpt lat="47.40206" lon="7.92291">
        <ele>802.2</ele>
      </trkpt>
      <trkpt lat="47.40209" lon="7.92294">
        <ele>802.5</ele>
      </trkpt>
      <trkpt lat="47.40211" lon="7.92299">
        <ele>802.3</ele>
      </trkpt>
      <trkpt lat="47.40212" lon="7.92303">
        <ele>802.1</ele>
      </trkpt>
      <trkpt lat="47.40213" lon="7.92307">
        <ele>802</ele>
      </trkpt>
      <trkpt lat="47.40221" lon="7.92319">
        <ele>802.3</ele>
      </trkpt>
      <trkpt lat="47.4023" lon="7.92327">
        <ele>802.8</ele>
      </trkpt>
      <trkpt lat="47.40245" lon="7.92345">
        <ele>805.1</ele>
      </trkpt>
      <trkpt lat="47.40255" lon="7.92357">
        <ele>805.3</ele>
      </trkpt>
      <trkpt lat="47.40263" lon="7.92369">
        <ele>804.5</ele>
      </trkpt>
      <trkpt lat="47.40268" lon="7.92373">
        <ele>803.8</ele>
      </trkpt>
      <trkpt lat="47.40271" lon="7.92376">
        <ele>803.4</ele>
      </trkpt>
      <trkpt lat="47.40274" lon="7.92376">
        <ele>802.7</ele>
      </trkpt>
      <trkpt lat="47.40279" lon="7.92394">
        <ele>803</ele>
      </trkpt>
      <trkpt lat="47.40282" lon="7.92414">
        <ele>803.8</ele>
      </trkpt>
      <trkpt lat="47.40287" lon="7.92427">
        <ele>803.8</ele>
      </trkpt>
      <trkpt lat="47.40304" lon="7.92453">
        <ele>803.7</ele>
      </trkpt>
      <trkpt lat="47.40327" lon="7.92484">
        <ele>803.9</ele>
      </trkpt>
      <trkpt lat="47.40339" lon="7.92503">
        <ele>803.6</ele>
      </trkpt>
      <trkpt lat="47.40353" lon="7.92531">
        <ele>802.3</ele>
      </trkpt>
      <trkpt lat="47.40363" lon="7.92564">
        <ele>801.9</ele>
      </trkpt>
      <trkpt lat="47.40374" lon="7.92598">
        <ele>801.4</ele>
      </trkpt>
      <trkpt lat="47.40385" lon="7.92624">
        <ele>800.4</ele>
      </trkpt>
      <trkpt lat="47.404" lon="7.92663">
        <ele>800.1</ele>
      </trkpt>
      <trkpt lat="47.40412" lon="7.92698">
        <ele>802</ele>
      </trkpt>
      <trkpt lat="47.40418" lon="7.92722">
        <ele>804.1</ele>
      </trkpt>
      <trkpt lat="47.40434" lon="7.92763">
        <ele>802.7</ele>
      </trkpt>
      <trkpt lat="47.40459" lon="7.92813">
        <ele>798.8</ele>
      </trkpt>
      <trkpt lat="47.40487" lon="7.92866">
        <ele>794.1</ele>
      </trkpt>
      <trkpt lat="47.40497" lon="7.92889">
        <ele>793.2</ele>
      </trkpt>
      <trkpt lat="47.40501" lon="7.92898">
        <ele>793</ele>
      </trkpt>
      <trkpt lat="47.40506" lon="7.92913">
        <ele>793.7</ele>
      </trkpt>
      <trkpt lat="47.40509" lon="7.92925">
        <ele>794.3</ele>
      </trkpt>
      <trkpt lat="47.40514" lon="7.92955">
        <ele>795.6</ele>
      </trkpt>
      <trkpt lat="47.40522" lon="7.92999">
        <ele>796.2</ele>
      </trkpt>
      <trkpt lat="47.40528" lon="7.93036">
        <ele>793.3</ele>
      </trkpt>
      <trkpt lat="47.40533" lon="7.93071">
        <ele>791.1</ele>
      </trkpt>
      <trkpt lat="47.40534" lon="7.93098">
        <ele>791.4</ele>
      </trkpt>
      <trkpt lat="47.40535" lon="7.93125">
        <ele>792.7</ele>
      </trkpt>
      <trkpt lat="47.40536" lon="7.9314">
        <ele>793.2</ele>
      </trkpt>
      <trkpt lat="47.4054" lon="7.93169">
        <ele>794.1</ele>
      </trkpt>
      <trkpt lat="47.4056" lon="7.93245">
        <ele>800.6</ele>
      </trkpt>
      <trkpt lat="47.40575" lon="7.93284">
        <ele>802.8</ele>
      </trkpt>
      <trkpt lat="47.40586" lon="7.93316">
        <ele>805.3</ele>
      </trkpt>
      <trkpt lat="47.40599" lon="7.93349">
        <ele>809.8</ele>
      </trkpt>
      <trkpt lat="47.40606" lon="7.93363">
        <ele>812.6</ele>
      </trkpt>
      <trkpt lat="47.40614" lon="7.93372">
        <ele>815.1</ele>
      </trkpt>
      <trkpt lat="47.40625" lon="7.93374">
        <ele>817.7</ele>
      </trkpt>
      <trkpt lat="47.40632" lon="7.93374">
        <ele>818.8</ele>
      </trkpt>
      <trkpt lat="47.40638" lon="7.93369">
        <ele>819.2</ele>
      </trkpt>
      <trkpt lat="47.40652" lon="7.93351">
        <ele>818.4</ele>
      </trkpt>
      <trkpt lat="47.40675" lon="7.93326">
        <ele>817.3</ele>
      </trkpt>
      <trkpt lat="47.40691" lon="7.93312">
        <ele>817.9</ele>
      </trkpt>
      <trkpt lat="47.4072" lon="7.93281">
        <ele>816.8</ele>
      </trkpt>
      <trkpt lat="47.40735" lon="7.93268">
        <ele>816.5</ele>
      </trkpt>
      <trkpt lat="47.40741" lon="7.93261">
        <ele>816.1</ele>
      </trkpt>
      <trkpt lat="47.40744" lon="7.93257">
        <ele>815.7</ele>
      </trkpt>
      <trkpt lat="47.40748" lon="7.93255">
        <ele>815.9</ele>
      </trkpt>
      <trkpt lat="47.40752" lon="7.93255">
        <ele>815.8</ele>
      </trkpt>
      <trkpt lat="47.40756" lon="7.93256">
        <ele>815.5</ele>
      </trkpt>
      <trkpt lat="47.4076" lon="7.9326">
        <ele>815.7</ele>
      </trkpt>
      <trkpt lat="47.40777" lon="7.93281">
        <ele>817.6</ele>
      </trkpt>
      <trkpt lat="47.40793" lon="7.93304">
        <ele>819.8</ele>
      </trkpt>
      <trkpt lat="47.40815" lon="7.93342">
        <ele>824.4</ele>
      </trkpt>
      <trkpt lat="47.40831" lon="7.93369">
        <ele>830.8</ele>
      </trkpt>
      <trkpt lat="47.40849" lon="7.93396">
        <ele>835.3</ele>
      </trkpt>
      <trkpt lat="47.40877" lon="7.9344">
        <ele>839.1</ele>
      </trkpt>
      <trkpt lat="47.40891" lon="7.93459">
        <ele>840.2</ele>
      </trkpt>
      <trkpt lat="47.40908" lon="7.93475">
        <ele>840.3</ele>
      </trkpt>
      <trkpt lat="47.40916" lon="7.93481">
        <ele>839.6</ele>
      </trkpt>
      <trkpt lat="47.40937" lon="7.93501">
        <ele>845.9</ele>
      </trkpt>
      <trkpt lat="47.40943" lon="7.93517">
        <ele>847.8</ele>
      </trkpt>
      <trkpt lat="47.40953" lon="7.93548">
        <ele>851.2</ele>
      </trkpt>
      <trkpt lat="47.40958" lon="7.93571">
        <ele>853.3</ele>
      </trkpt>
      <trkpt lat="47.40961" lon="7.93575">
        <ele>853.6</ele>
      </trkpt>
      <trkpt lat="47.41011" lon="7.93597">
        <ele>853.6</ele>
      </trkpt>
      <trkpt lat="47.41051" lon="7.93587">
        <ele>867.4</ele>
      </trkpt>
      <trkpt lat="47.4106" lon="7.93583">
        <ele>870.7</ele>
      </trkpt>
      <trkpt lat="47.41073" lon="7.93575">
        <ele>874.6</ele>
      </trkpt>
      <trkpt lat="47.41089" lon="7.93564">
        <ele>880.2</ele>
      </trkpt>
      <trkpt lat="47.41093" lon="7.93564">
        <ele>882</ele>
      </trkpt>
      <trkpt lat="47.41095" lon="7.93565">
        <ele>883.2</ele>
      </trkpt>
      <trkpt lat="47.41098" lon="7.93567">
        <ele>884.3</ele>
      </trkpt>
      <trkpt lat="47.41105" lon="7.93581">
        <ele>888.1</ele>
      </trkpt>
      <trkpt lat="47.41132" lon="7.93634">
        <ele>892.1</ele>
      </trkpt>
      <trkpt lat="47.41165" lon="7.937">
        <ele>892.9</ele>
      </trkpt>
      <trkpt lat="47.41192" lon="7.93756">
        <ele>887.8</ele>
      </trkpt>
      <trkpt lat="47.41226" lon="7.93818">
        <ele>883.4</ele>
      </trkpt>
      <trkpt lat="47.41252" lon="7.9387">
        <ele>879.9</ele>
      </trkpt>
      <trkpt lat="47.41265" lon="7.93892">
        <ele>878</ele>
      </trkpt>
      <trkpt lat="47.41282" lon="7.93909">
        <ele>879.2</ele>
      </trkpt>
      <trkpt lat="47.41287" lon="7.93916">
        <ele>879.6</ele>
      </trkpt>
      <trkpt lat="47.41292" lon="7.93925">
        <ele>879.7</ele>
      </trkpt>
      <trkpt lat="47.41308" lon="7.93972">
        <ele>878.6</ele>
      </trkpt>
      <trkpt lat="47.41332" lon="7.9405">
        <ele>876.9</ele>
      </trkpt>
      <trkpt lat="47.41335" lon="7.94066">
        <ele>874.5</ele>
      </trkpt>
      <trkpt lat="47.41344" lon="7.94128">
        <ele>862.5</ele>
      </trkpt>
      <trkpt lat="47.41361" lon="7.94177">
        <ele>855.4</ele>
      </trkpt>
      <trkpt lat="47.41383" lon="7.94236">
        <ele>849</ele>
      </trkpt>
      <trkpt lat="47.41396" lon="7.94257">
        <ele>848.8</ele>
      </trkpt>
      <trkpt lat="47.41412" lon="7.9428">
        <ele>847.1</ele>
      </trkpt>
      <trkpt lat="47.41419" lon="7.94296">
        <ele>843.1</ele>
      </trkpt>
      <trkpt lat="47.41426" lon="7.94323">
        <ele>833.3</ele>
      </trkpt>
      <trkpt lat="47.41432" lon="7.94357">
        <ele>823.4</ele>
      </trkpt>
      <trkpt lat="47.41435" lon="7.9439">
        <ele>815.2</ele>
      </trkpt>
      <trkpt lat="47.41437" lon="7.94458">
        <ele>803.5</ele>
      </trkpt>
      <trkpt lat="47.41437" lon="7.94474">
        <ele>801.6</ele>
      </trkpt>
      <trkpt lat="47.4144" lon="7.94508">
        <ele>798.3</ele>
      </trkpt>
      <trkpt lat="47.41443" lon="7.94517">
        <ele>798.3</ele>
      </trkpt>
      <trkpt lat="47.41447" lon="7.94527">
        <ele>798.4</ele>
      </trkpt>
      <trkpt lat="47.41455" lon="7.9454">
        <ele>798.4</ele>
      </trkpt>
      <trkpt lat="47.41467" lon="7.94559">
        <ele>798.3</ele>
      </trkpt>
      <trkpt lat="47.41484" lon="7.94583">
        <ele>797.8</ele>
      </trkpt>
      <trkpt lat="47.41482" lon="7.9462">
        <ele>793.4</ele>
      </trkpt>
      <trkpt lat="47.41479" lon="7.94665">
        <ele>787.7</ele>
      </trkpt>
      <trkpt lat="47.4148" lon="7.94674">
        <ele>786.9</ele>
      </trkpt>
      <trkpt lat="47.41485" lon="7.94685">
        <ele>786.4</ele>
      </trkpt>
      <trkpt lat="47.41493" lon="7.94693">
        <ele>786.9</ele>
      </trkpt>
      <trkpt lat="47.41502" lon="7.94697">
        <ele>787.8</ele>
      </trkpt>
      <trkpt lat="47.41513" lon="7.94699">
        <ele>787.5</ele>
      </trkpt>
      <trkpt lat="47.41519" lon="7.94702">
        <ele>787.2</ele>
      </trkpt>
      <trkpt lat="47.41534" lon="7.94689">
        <ele>787.8</ele>
      </trkpt>
      <trkpt lat="47.41571" lon="7.94651">
        <ele>788.7</ele>
      </trkpt>
      <trkpt lat="47.41599" lon="7.94619">
        <ele>788.7</ele>
      </trkpt>
      <trkpt lat="47.41607" lon="7.94613">
        <ele>788.8</ele>
      </trkpt>
      <trkpt lat="47.41613" lon="7.94612">
        <ele>788.8</ele>
      </trkpt>
      <trkpt lat="47.41617" lon="7.94601">
        <ele>788.7</ele>
      </trkpt>
      <trkpt lat="47.41628" lon="7.94586">
        <ele>788.5</ele>
      </trkpt>
      <trkpt lat="47.4164" lon="7.94572">
        <ele>788.3</ele>
      </trkpt>
      <trkpt lat="47.41648" lon="7.9456">
        <ele>788.2</ele>
      </trkpt>
      <trkpt lat="47.41656" lon="7.94547">
        <ele>788.1</ele>
      </trkpt>
      <trkpt lat="47.41664" lon="7.94533">
        <ele>788</ele>
      </trkpt>
      <trkpt lat="47.41674" lon="7.94512">
        <ele>787.4</ele>
      </trkpt>
      <trkpt lat="47.41695" lon="7.94462">
        <ele>785</ele>
      </trkpt>
      <trkpt lat="47.41698" lon="7.9447">
        <ele>784.9</ele>
      </trkpt>
      <trkpt lat="47.41698" lon="7.94476">
        <ele>785</ele>
      </trkpt>
      <trkpt lat="47.41692" lon="7.94566">
        <ele>786.6</ele>
      </trkpt>
      <trkpt lat="47.41692" lon="7.94581">
        <ele>786.8</ele>
      </trkpt>
      <trkpt lat="47.41693" lon="7.9459">
        <ele>787</ele>
      </trkpt>
      <trkpt lat="47.41694" lon="7.94595">
        <ele>787.2</ele>
      </trkpt>
      <trkpt lat="47.41698" lon="7.94602">
        <ele>787.3</ele>
      </trkpt>
      <trkpt lat="47.41705" lon="7.94612">
        <ele>787.5</ele>
      </trkpt>
      <trkpt lat="47.41722" lon="7.9463">
        <ele>787.8</ele>
      </trkpt>
      <trkpt lat="47.41729" lon="7.94639">
        <ele>788</ele>
      </trkpt>
      <trkpt lat="47.41734" lon="7.9465">
        <ele>788.4</ele>
      </trkpt>
      <trkpt lat="47.41745" lon="7.94675">
        <ele>789.9</ele>
      </trkpt>
      <trkpt lat="47.41754" lon="7.94706">
        <ele>792.8</ele>
      </trkpt>
      <trkpt lat="47.41769" lon="7.94809">
        <ele>798.7</ele>
      </trkpt>
      <trkpt lat="47.41777" lon="7.94841">
        <ele>799.8</ele>
      </trkpt>
      <trkpt lat="47.41793" lon="7.94881">
        <ele>801.3</ele>
      </trkpt>
      <trkpt lat="47.41801" lon="7.94905">
        <ele>802.5</ele>
      </trkpt>
      <trkpt lat="47.41804" lon="7.94917">
        <ele>803.1</ele>
      </trkpt>
      <trkpt lat="47.41807" lon="7.94942">
        <ele>805.2</ele>
      </trkpt>
      <trkpt lat="47.41807" lon="7.94962">
        <ele>807</ele>
      </trkpt>
      <trkpt lat="47.41804" lon="7.94985">
        <ele>809</ele>
      </trkpt>
      <trkpt lat="47.41799" lon="7.95014">
        <ele>810.9</ele>
      </trkpt>
      <trkpt lat="47.41797" lon="7.95033">
        <ele>812</ele>
      </trkpt>
      <trkpt lat="47.41797" lon="7.95054">
        <ele>813.1</ele>
      </trkpt>
      <trkpt lat="47.41798" lon="7.9508">
        <ele>814.5</ele>
      </trkpt>
      <trkpt lat="47.41805" lon="7.95117">
        <ele>818.6</ele>
      </trkpt>
      <trkpt lat="47.4181" lon="7.95137">
        <ele>821.2</ele>
      </trkpt>
      <trkpt lat="47.41815" lon="7.95151">
        <ele>823.2</ele>
      </trkpt>
      <trkpt lat="47.41829" lon="7.9518">
        <ele>828.3</ele>
      </trkpt>
      <trkpt lat="47.41838" lon="7.9521">
        <ele>832.6</ele>
      </trkpt>
      <trkpt lat="47.41844" lon="7.95234">
        <ele>835.5</ele>
      </trkpt>
      <trkpt lat="47.41845" lon="7.95247">
        <ele>837.2</ele>
      </trkpt>
      <trkpt lat="47.41847" lon="7.95264">
        <ele>840.4</ele>
      </trkpt>
      <trkpt lat="47.41851" lon="7.95279">
        <ele>843.4</ele>
      </trkpt>
      <trkpt lat="47.41861" lon="7.95296">
        <ele>846.6</ele>
      </trkpt>
      <trkpt lat="47.41853" lon="7.95327">
        <ele>853.2</ele>
      </trkpt>
      <trkpt lat="47.41848" lon="7.95338">
        <ele>856</ele>
      </trkpt>
      <trkpt lat="47.41849" lon="7.95347">
        <ele>858.8</ele>
      </trkpt>
      <trkpt lat="47.41847" lon="7.95351">
        <ele>860.1</ele>
      </trkpt>
      <trkpt lat="47.41835" lon="7.95384">
        <ele>869.7</ele>
      </trkpt>
      <trkpt lat="47.4183" lon="7.95418">
        <ele>877.8</ele>
      </trkpt>
      <trkpt lat="47.4183" lon="7.95436">
        <ele>881.1</ele>
      </trkpt>
      <trkpt lat="47.41835" lon="7.95438">
        <ele>883.3</ele>
      </trkpt>
      <trkpt lat="47.41853" lon="7.95433">
        <ele>883.6</ele>
      </trkpt>
      <trkpt lat="47.41879" lon="7.95433">
        <ele>885.7</ele>
      </trkpt>
      <trkpt lat="47.41893" lon="7.95448">
        <ele>890.5</ele>
      </trkpt>
      <trkpt lat="47.41872" lon="7.95484">
        <ele>896.9</ele>
      </trkpt>
      <trkpt lat="47.41865" lon="7.95507">
        <ele>901</ele>
      </trkpt>
      <trkpt lat="47.41859" lon="7.95531">
        <ele>904.6</ele>
      </trkpt>
      <trkpt lat="47.41858" lon="7.95537">
        <ele>905.5</ele>
      </trkpt>
      <trkpt lat="47.41859" lon="7.95548">
        <ele>907.7</ele>
      </trkpt>
      <trkpt lat="47.41888" lon="7.95548">
        <ele>914.9</ele>
      </trkpt>
      <trkpt lat="47.4187" lon="7.95571">
        <ele>915.1</ele>
      </trkpt>
      <trkpt lat="47.41864" lon="7.95585">
        <ele>916.2</ele>
      </trkpt>
      <trkpt lat="47.41872" lon="7.95582">
        <ele>918</ele>
      </trkpt>
      <trkpt lat="47.41867" lon="7.95594">
        <ele>919</ele>
      </trkpt>
      <trkpt lat="47.4186" lon="7.95604">
        <ele>919.2</ele>
      </trkpt>
      <trkpt lat="47.41857" lon="7.95617">
        <ele>920.8</ele>
      </trkpt>
      <trkpt lat="47.41854" lon="7.95649">
        <ele>926.4</ele>
      </trkpt>
      <trkpt lat="47.4187" lon="7.95637">
        <ele>929.6</ele>
      </trkpt>
      <trkpt lat="47.41885" lon="7.95633">
        <ele>934.1</ele>
      </trkpt>
      <trkpt lat="47.41897" lon="7.9563">
        <ele>937.7</ele>
      </trkpt>
      <trkpt lat="47.41893" lon="7.9564">
        <ele>938.7</ele>
      </trkpt>
      <trkpt lat="47.41892" lon="7.95652">
        <ele>941.1</ele>
      </trkpt>
      <trkpt lat="47.41897" lon="7.95659">
        <ele>944.8</ele>
      </trkpt>
      <trkpt lat="47.41904" lon="7.95664">
        <ele>948.4</ele>
      </trkpt>
      <trkpt lat="47.41912" lon="7.95657">
        <ele>949.7</ele>
      </trkpt>
      <trkpt lat="47.4193" lon="7.9565">
        <ele>947.4</ele>
      </trkpt>
      <trkpt lat="47.41953" lon="7.95651">
        <ele>944.1</ele>
      </trkpt>
      <trkpt lat="47.41966" lon="7.95656">
        <ele>943.2</ele>
      </trkpt>
      <trkpt lat="47.41972" lon="7.95659">
        <ele>943.1</ele>
      </trkpt>
      <trkpt lat="47.41979" lon="7.95667">
        <ele>944.4</ele>
      </trkpt>
      <trkpt lat="47.41982" lon="7.9567">
        <ele>944.4</ele>
      </trkpt>
      <trkpt lat="47.41985" lon="7.95676">
        <ele>945</ele>
      </trkpt>
      <trkpt lat="47.41988" lon="7.95689">
        <ele>946.9</ele>
      </trkpt>
      <trkpt lat="47.41989" lon="7.95702">
        <ele>949.2</ele>
      </trkpt>
      <trkpt lat="47.42004" lon="7.9573">
        <ele>952.1</ele>
      </trkpt>
      <trkpt lat="47.4201" lon="7.95743">
        <ele>952.3</ele>
      </trkpt>
      <trkpt lat="47.42018" lon="7.95755">
        <ele>950.3</ele>
      </trkpt>
      <trkpt lat="47.4203" lon="7.95777">
        <ele>947</ele>
      </trkpt>
      <trkpt lat="47.42034" lon="7.95791">
        <ele>946.8</ele>
      </trkpt>
      <trkpt lat="47.42041" lon="7.95802">
        <ele>946</ele>
      </trkpt>
      <trkpt lat="47.42045" lon="7.95819">
        <ele>946.9</ele>
      </trkpt>
      <trkpt lat="47.42052" lon="7.95837">
        <ele>947.7</ele>
      </trkpt>
      <trkpt lat="47.4206" lon="7.95857">
        <ele>947.5</ele>
      </trkpt>
      <trkpt lat="47.42064" lon="7.95875">
        <ele>948</ele>
      </trkpt>
      <trkpt lat="47.42068" lon="7.95885">
        <ele>948.3</ele>
      </trkpt>
      <trkpt lat="47.42071" lon="7.95895">
        <ele>948.7</ele>
      </trkpt>
      <trkpt lat="47.42073" lon="7.95912">
        <ele>949.9</ele>
      </trkpt>
      <trkpt lat="47.42076" lon="7.95921">
        <ele>950.1</ele>
      </trkpt>
      <trkpt lat="47.4208" lon="7.95928">
        <ele>949.8</ele>
      </trkpt>
      <trkpt lat="47.42082" lon="7.95936">
        <ele>949.5</ele>
      </trkpt>
      <trkpt lat="47.42084" lon="7.95948">
        <ele>949.1</ele>
      </trkpt>
      <trkpt lat="47.4209" lon="7.9596">
        <ele>946</ele>
      </trkpt>
      <trkpt lat="47.42093" lon="7.95969">
        <ele>944.7</ele>
      </trkpt>
      <trkpt lat="47.42097" lon="7.95978">
        <ele>942.8</ele>
      </trkpt>
      <trkpt lat="47.42101" lon="7.95996">
        <ele>941.4</ele>
      </trkpt>
      <trkpt lat="47.42106" lon="7.96009">
        <ele>938.5</ele>
      </trkpt>
      <trkpt lat="47.42114" lon="7.96033">
        <ele>933.6</ele>
      </trkpt>
      <trkpt lat="47.42116" lon="7.96036">
        <ele>932.7</ele>
      </trkpt>
      <trkpt lat="47.42122" lon="7.96051">
        <ele>929.8</ele>
      </trkpt>
      <trkpt lat="47.42124" lon="7.96061">
        <ele>928.3</ele>
      </trkpt>
      <trkpt lat="47.42129" lon="7.96071">
        <ele>926.5</ele>
      </trkpt>
      <trkpt lat="47.42138" lon="7.96096">
        <ele>922.6</ele>
      </trkpt>
      <trkpt lat="47.42142" lon="7.9611">
        <ele>920.7</ele>
      </trkpt>
      <trkpt lat="47.42145" lon="7.96118">
        <ele>919.5</ele>
      </trkpt>
      <trkpt lat="47.42149" lon="7.96124">
        <ele>918.4</ele>
      </trkpt>
      <trkpt lat="47.42154" lon="7.96126">
        <ele>917.3</ele>
      </trkpt>
      <trkpt lat="47.42157" lon="7.96129">
        <ele>916.5</ele>
      </trkpt>
      <trkpt lat="47.42161" lon="7.96135">
        <ele>915.5</ele>
      </trkpt>
      <trkpt lat="47.42168" lon="7.96151">
        <ele>913.5</ele>
      </trkpt>
      <trkpt lat="47.42169" lon="7.96162">
        <ele>912.5</ele>
      </trkpt>
      <trkpt lat="47.42172" lon="7.96167">
        <ele>911.4</ele>
      </trkpt>
      <trkpt lat="47.42177" lon="7.96172">
        <ele>910.3</ele>
      </trkpt>
      <trkpt lat="47.42186" lon="7.96192">
        <ele>909.4</ele>
      </trkpt>
      <trkpt lat="47.42189" lon="7.96197">
        <ele>908.9</ele>
      </trkpt>
      <trkpt lat="47.42194" lon="7.96209">
        <ele>909</ele>
      </trkpt>
      <trkpt lat="47.42198" lon="7.96217">
        <ele>908.9</ele>
      </trkpt>
      <trkpt lat="47.42205" lon="7.96225">
        <ele>908.6</ele>
      </trkpt>
      <trkpt lat="47.42206" lon="7.96232">
        <ele>909.2</ele>
      </trkpt>
      <trkpt lat="47.42207" lon="7.96237">
        <ele>909.6</ele>
      </trkpt>
      <trkpt lat="47.42209" lon="7.9624">
        <ele>909.8</ele>
      </trkpt>
      <trkpt lat="47.42211" lon="7.96244">
        <ele>910</ele>
      </trkpt>
      <trkpt lat="47.4221" lon="7.96249">
        <ele>910.7</ele>
      </trkpt>
      <trkpt lat="47.42208" lon="7.96255">
        <ele>911</ele>
      </trkpt>
      <trkpt lat="47.42206" lon="7.96261">
        <ele>911.1</ele>
      </trkpt>
      <trkpt lat="47.42208" lon="7.96266">
        <ele>910.8</ele>
      </trkpt>
      <trkpt lat="47.42218" lon="7.96271">
        <ele>909.8</ele>
      </trkpt>
      <trkpt lat="47.42221" lon="7.96274">
        <ele>909.6</ele>
      </trkpt>
      <trkpt lat="47.42228" lon="7.96294">
        <ele>909.2</ele>
      </trkpt>
      <trkpt lat="47.42231" lon="7.96298">
        <ele>909.1</ele>
      </trkpt>
      <trkpt lat="47.42234" lon="7.96305">
        <ele>909.2</ele>
      </trkpt>
      <trkpt lat="47.42237" lon="7.9632">
        <ele>909.5</ele>
      </trkpt>
      <trkpt lat="47.42236" lon="7.96328">
        <ele>909.7</ele>
      </trkpt>
      <trkpt lat="47.42234" lon="7.9634">
        <ele>909.7</ele>
      </trkpt>
      <trkpt lat="47.42232" lon="7.96354">
        <ele>909.3</ele>
      </trkpt>
      <trkpt lat="47.42231" lon="7.96363">
        <ele>909.1</ele>
      </trkpt>
      <trkpt lat="47.42231" lon="7.96375">
        <ele>908.8</ele>
      </trkpt>
      <trkpt lat="47.42232" lon="7.96387">
        <ele>908.7</ele>
      </trkpt>
      <trkpt lat="47.42233" lon="7.96398">
        <ele>908.5</ele>
      </trkpt>
      <trkpt lat="47.42232" lon="7.96428">
        <ele>907</ele>
      </trkpt>
      <trkpt lat="47.42232" lon="7.96451">
        <ele>905.3</ele>
      </trkpt>
      <trkpt lat="47.42235" lon="7.96466">
        <ele>904.8</ele>
      </trkpt>
      <trkpt lat="47.42244" lon="7.96487">
        <ele>905.4</ele>
      </trkpt>
      <trkpt lat="47.4225" lon="7.96508">
        <ele>904.9</ele>
      </trkpt>
      <trkpt lat="47.42254" lon="7.96534">
        <ele>900.6</ele>
      </trkpt>
      <trkpt lat="47.42263" lon="7.96573">
        <ele>894.9</ele>
      </trkpt>
      <trkpt lat="47.42267" lon="7.96587">
        <ele>893</ele>
      </trkpt>
      <trkpt lat="47.42276" lon="7.96603">
        <ele>891.6</ele>
      </trkpt>
      <trkpt lat="47.42286" lon="7.96622">
        <ele>890.2</ele>
      </trkpt>
      <trkpt lat="47.42295" lon="7.9664">
        <ele>889.1</ele>
      </trkpt>
      <trkpt lat="47.42301" lon="7.96656">
        <ele>888.4</ele>
      </trkpt>
      <trkpt lat="47.42306" lon="7.96671">
        <ele>887.8</ele>
      </trkpt>
      <trkpt lat="47.42321" lon="7.96706">
        <ele>887</ele>
      </trkpt>
      <trkpt lat="47.42328" lon="7.96728">
        <ele>886.9</ele>
      </trkpt>
      <trkpt lat="47.42331" lon="7.96756">
        <ele>886.3</ele>
      </trkpt>
      <trkpt lat="47.42336" lon="7.96809">
        <ele>882.2</ele>
      </trkpt>
      <trkpt lat="47.4234" lon="7.96833">
        <ele>879.9</ele>
      </trkpt>
      <trkpt lat="47.42346" lon="7.9687">
        <ele>877.2</ele>
      </trkpt>
      <trkpt lat="47.4236" lon="7.96904">
        <ele>875.2</ele>
      </trkpt>
      <trkpt lat="47.4237" lon="7.96932">
        <ele>874.2</ele>
      </trkpt>
      <trkpt lat="47.42375" lon="7.96967">
        <ele>872.6</ele>
      </trkpt>
      <trkpt lat="47.42381" lon="7.96982">
        <ele>872.5</ele>
      </trkpt>
      <trkpt lat="47.42401" lon="7.97017">
        <ele>873.5</ele>
      </trkpt>
      <trkpt lat="47.42409" lon="7.97039">
        <ele>873.4</ele>
      </trkpt>
      <trkpt lat="47.42416" lon="7.97057">
        <ele>873.4</ele>
      </trkpt>
      <trkpt lat="47.42419" lon="7.97075">
        <ele>872</ele>
      </trkpt>
      <trkpt lat="47.4242" lon="7.97096">
        <ele>870.4</ele>
      </trkpt>
      <trkpt lat="47.42419" lon="7.97106">
        <ele>869.9</ele>
      </trkpt>
      <trkpt lat="47.42418" lon="7.97119">
        <ele>869.3</ele>
      </trkpt>
      <trkpt lat="47.42416" lon="7.97142">
        <ele>867.6</ele>
      </trkpt>
      <trkpt lat="47.42412" lon="7.97168">
        <ele>864.9</ele>
      </trkpt>
      <trkpt lat="47.4241" lon="7.97188">
        <ele>863.6</ele>
      </trkpt>
      <trkpt lat="47.42408" lon="7.97202">
        <ele>862.8</ele>
      </trkpt>
      <trkpt lat="47.42407" lon="7.97227">
        <ele>861.7</ele>
      </trkpt>
      <trkpt lat="47.42409" lon="7.97255">
        <ele>861.2</ele>
      </trkpt>
      <trkpt lat="47.42412" lon="7.9729">
        <ele>860.4</ele>
      </trkpt>
      <trkpt lat="47.42414" lon="7.97332">
        <ele>859.3</ele>
      </trkpt>
      <trkpt lat="47.42415" lon="7.97358">
        <ele>858.7</ele>
      </trkpt>
      <trkpt lat="47.42417" lon="7.97379">
        <ele>858.4</ele>
      </trkpt>
      <trkpt lat="47.42418" lon="7.97403">
        <ele>857.5</ele>
      </trkpt>
      <trkpt lat="47.42418" lon="7.9741">
        <ele>857.3</ele>
      </trkpt>
      <trkpt lat="47.42433" lon="7.97439">
        <ele>857.5</ele>
      </trkpt>
      <trkpt lat="47.42448" lon="7.97466">
        <ele>858.2</ele>
      </trkpt>
      <trkpt lat="47.42464" lon="7.97489">
        <ele>859.3</ele>
      </trkpt>
      <trkpt lat="47.42476" lon="7.97512">
        <ele>860</ele>
      </trkpt>
      <trkpt lat="47.4248" lon="7.97529">
        <ele>860</ele>
      </trkpt>
      <trkpt lat="47.42506" lon="7.97578">
        <ele>859.7</ele>
      </trkpt>
      <trkpt lat="47.42554" lon="7.97678">
        <ele>853.7</ele>
      </trkpt>
      <trkpt lat="47.42572" lon="7.97709">
        <ele>852.9</ele>
      </trkpt>
      <trkpt lat="47.42576" lon="7.97711">
        <ele>852.9</ele>
      </trkpt>
      <trkpt lat="47.42589" lon="7.97725">
        <ele>852.6</ele>
      </trkpt>
      <trkpt lat="47.42601" lon="7.97743">
        <ele>852.3</ele>
      </trkpt>
      <trkpt lat="47.42611" lon="7.97755">
        <ele>852.5</ele>
      </trkpt>
      <trkpt lat="47.4262" lon="7.97768">
        <ele>853.2</ele>
      </trkpt>
      <trkpt lat="47.42628" lon="7.97779">
        <ele>853.7</ele>
      </trkpt>
      <trkpt lat="47.42634" lon="7.97798">
        <ele>854.7</ele>
      </trkpt>
      <trkpt lat="47.42642" lon="7.97822">
        <ele>855.9</ele>
      </trkpt>
      <trkpt lat="47.42649" lon="7.9784">
        <ele>856.9</ele>
      </trkpt>
      <trkpt lat="47.42656" lon="7.97842">
        <ele>857.1</ele>
      </trkpt>
      <trkpt lat="47.4266" lon="7.97855">
        <ele>857.9</ele>
      </trkpt>
      <trkpt lat="47.42666" lon="7.97859">
        <ele>858.2</ele>
      </trkpt>
      <trkpt lat="47.42673" lon="7.97868">
        <ele>857.9</ele>
      </trkpt>
      <trkpt lat="47.42681" lon="7.97891">
        <ele>858.3</ele>
      </trkpt>
      <trkpt lat="47.42702" lon="7.97961">
        <ele>860.5</ele>
      </trkpt>
      <trkpt lat="47.42709" lon="7.97984">
        <ele>861.5</ele>
      </trkpt>
      <trkpt lat="47.42718" lon="7.97997">
        <ele>861.9</ele>
      </trkpt>
      <trkpt lat="47.42727" lon="7.98011">
        <ele>862.6</ele>
      </trkpt>
      <trkpt lat="47.42736" lon="7.9803">
        <ele>863.7</ele>
      </trkpt>
      <trkpt lat="47.4274" lon="7.98038">
        <ele>864.2</ele>
      </trkpt>
      <trkpt lat="47.42745" lon="7.98051">
        <ele>865.2</ele>
      </trkpt>
      <trkpt lat="47.42746" lon="7.98057">
        <ele>865.8</ele>
      </trkpt>
      <trkpt lat="47.42747" lon="7.98062">
        <ele>866.2</ele>
      </trkpt>
      <trkpt lat="47.42745" lon="7.98075">
        <ele>867.2</ele>
      </trkpt>
      <trkpt lat="47.42745" lon="7.9809">
        <ele>867.9</ele>
      </trkpt>
      <trkpt lat="47.42744" lon="7.98103">
        <ele>868</ele>
      </trkpt>
      <trkpt lat="47.42742" lon="7.98141">
        <ele>868.4</ele>
      </trkpt>
      <trkpt lat="47.42772" lon="7.98186">
        <ele>865.7</ele>
      </trkpt>
      <trkpt lat="47.42782" lon="7.98211">
        <ele>864.4</ele>
      </trkpt>
      <trkpt lat="47.42785" lon="7.98225">
        <ele>864.1</ele>
      </trkpt>
      <trkpt lat="47.42805" lon="7.98267">
        <ele>861.5</ele>
      </trkpt>
      <trkpt lat="47.42814" lon="7.98289">
        <ele>859.9</ele>
      </trkpt>
      <trkpt lat="47.42815" lon="7.983">
        <ele>859.3</ele>
      </trkpt>
      <trkpt lat="47.42816" lon="7.98309">
        <ele>858.9</ele>
      </trkpt>
      <trkpt lat="47.42813" lon="7.9832">
        <ele>858.6</ele>
      </trkpt>
      <trkpt lat="47.42806" lon="7.98339">
        <ele>857.5</ele>
      </trkpt>
      <trkpt lat="47.42823" lon="7.98419">
        <ele>845.5</ele>
      </trkpt>
      <trkpt lat="47.42826" lon="7.9844">
        <ele>840.7</ele>
      </trkpt>
      <trkpt lat="47.42825" lon="7.9846">
        <ele>836.1</ele>
      </trkpt>
      <trkpt lat="47.4282" lon="7.98489">
        <ele>829.2</ele>
      </trkpt>
      <trkpt lat="47.42821" lon="7.98503">
        <ele>826.2</ele>
      </trkpt>
      <trkpt lat="47.42824" lon="7.98513">
        <ele>824.4</ele>
      </trkpt>
      <trkpt lat="47.42803" lon="7.98521">
        <ele>822.5</ele>
      </trkpt>
      <trkpt lat="47.42794" lon="7.98524">
        <ele>821.6</ele>
      </trkpt>
      <trkpt lat="47.42786" lon="7.98524">
        <ele>821.4</ele>
      </trkpt>
      <trkpt lat="47.4277" lon="7.98516">
        <ele>822.4</ele>
      </trkpt>
      <trkpt lat="47.42762" lon="7.98511">
        <ele>823.2</ele>
      </trkpt>
      <trkpt lat="47.42754" lon="7.98511">
        <ele>823</ele>
      </trkpt>
      <trkpt lat="47.42749" lon="7.98514">
        <ele>822.2</ele>
      </trkpt>
      <trkpt lat="47.42745" lon="7.98521">
        <ele>820.2</ele>
      </trkpt>
      <trkpt lat="47.42744" lon="7.98527">
        <ele>818.8</ele>
      </trkpt>
      <trkpt lat="47.42745" lon="7.98534">
        <ele>817.7</ele>
      </trkpt>
      <trkpt lat="47.42749" lon="7.98541">
        <ele>817</ele>
      </trkpt>
      <trkpt lat="47.42758" lon="7.9855">
        <ele>815.7</ele>
      </trkpt>
      <trkpt lat="47.42772" lon="7.98569">
        <ele>812.5</ele>
      </trkpt>
      <trkpt lat="47.42784" lon="7.98582">
        <ele>810.6</ele>
      </trkpt>
      <trkpt lat="47.42793" lon="7.98588">
        <ele>809.6</ele>
      </trkpt>
      <trkpt lat="47.42811" lon="7.98596">
        <ele>808.1</ele>
      </trkpt>
      <trkpt lat="47.42827" lon="7.98603">
        <ele>806.9</ele>
      </trkpt>
      <trkpt lat="47.42834" lon="7.98604">
        <ele>807.1</ele>
      </trkpt>
      <trkpt lat="47.42855" lon="7.98603">
        <ele>802.6</ele>
      </trkpt>
      <trkpt lat="47.42865" lon="7.98603">
        <ele>800.5</ele>
      </trkpt>
      <trkpt lat="47.42877" lon="7.98599">
        <ele>798.9</ele>
      </trkpt>
      <trkpt lat="47.42883" lon="7.98596">
        <ele>798.2</ele>
      </trkpt>
      <trkpt lat="47.42887" lon="7.98595">
        <ele>797.5</ele>
      </trkpt>
      <trkpt lat="47.42893" lon="7.98597">
        <ele>795.9</ele>
      </trkpt>
      <trkpt lat="47.42887" lon="7.98607">
        <ele>795.1</ele>
      </trkpt>
      <trkpt lat="47.42885" lon="7.98614">
        <ele>794.2</ele>
      </trkpt>
      <trkpt lat="47.42882" lon="7.98624">
        <ele>792.9</ele>
      </trkpt>
      <trkpt lat="47.42879" lon="7.98635">
        <ele>791.3</ele>
      </trkpt>
      <trkpt lat="47.42877" lon="7.98642">
        <ele>790.1</ele>
      </trkpt>
      <trkpt lat="47.42873" lon="7.98661">
        <ele>787</ele>
      </trkpt>
      <trkpt lat="47.42867" lon="7.98683">
        <ele>784.2</ele>
      </trkpt>
      <trkpt lat="47.42866" lon="7.98688">
        <ele>783.7</ele>
      </trkpt>
      <trkpt lat="47.42863" lon="7.98703">
        <ele>781.9</ele>
      </trkpt>
      <trkpt lat="47.42864" lon="7.98758">
        <ele>774.2</ele>
      </trkpt>
      <trkpt lat="47.42858" lon="7.98777">
        <ele>774.2</ele>
      </trkpt>
      <trkpt lat="47.42854" lon="7.98795">
        <ele>774.2</ele>
      </trkpt>
      <trkpt lat="47.42846" lon="7.9886">
        <ele>772.1</ele>
      </trkpt>
      <trkpt lat="47.42847" lon="7.9891">
        <ele>768</ele>
      </trkpt>
      <trkpt lat="47.42844" lon="7.98947">
        <ele>765.6</ele>
      </trkpt>
      <trkpt lat="47.42846" lon="7.98986">
        <ele>761.7</ele>
      </trkpt>
      <trkpt lat="47.42855" lon="7.99078">
        <ele>755.6</ele>
      </trkpt>
      <trkpt lat="47.42863" lon="7.9914">
        <ele>752.5</ele>
      </trkpt>
      <trkpt lat="47.42873" lon="7.99204">
        <ele>750.5</ele>
      </trkpt>
      <trkpt lat="47.42875" lon="7.99215">
        <ele>750.5</ele>
      </trkpt>
      <trkpt lat="47.42879" lon="7.99246">
        <ele>750.7</ele>
      </trkpt>
      <trkpt lat="47.42893" lon="7.99297">
        <ele>752.9</ele>
      </trkpt>
      <trkpt lat="47.42896" lon="7.99311">
        <ele>753.7</ele>
      </trkpt>
      <trkpt lat="47.42897" lon="7.99323">
        <ele>754.7</ele>
      </trkpt>
      <trkpt lat="47.42894" lon="7.99331">
        <ele>755.8</ele>
      </trkpt>
      <trkpt lat="47.42891" lon="7.99335">
        <ele>756.5</ele>
      </trkpt>
      <trkpt lat="47.42882" lon="7.99347">
        <ele>759.7</ele>
      </trkpt>
      <trkpt lat="47.42878" lon="7.99356">
        <ele>761.7</ele>
      </trkpt>
      <trkpt lat="47.42871" lon="7.99362">
        <ele>763.5</ele>
      </trkpt>
      <trkpt lat="47.42866" lon="7.99368">
        <ele>765</ele>
      </trkpt>
      <trkpt lat="47.42863" lon="7.99378">
        <ele>766.7</ele>
      </trkpt>
      <trkpt lat="47.42862" lon="7.99391">
        <ele>768.7</ele>
      </trkpt>
      <trkpt lat="47.42863" lon="7.99401">
        <ele>770.2</ele>
      </trkpt>
      <trkpt lat="47.42867" lon="7.99421">
        <ele>772.5</ele>
      </trkpt>
      <trkpt lat="47.42881" lon="7.99478">
        <ele>776.1</ele>
      </trkpt>
      <trkpt lat="47.42902" lon="7.99571">
        <ele>784.7</ele>
      </trkpt>
      <trkpt lat="47.42911" lon="7.99607">
        <ele>787.4</ele>
      </trkpt>
      <trkpt lat="47.42932" lon="7.99711">
        <ele>786.5</ele>
      </trkpt>
      <trkpt lat="47.42942" lon="7.99756">
        <ele>786.4</ele>
      </trkpt>
      <trkpt lat="47.42948" lon="7.99791">
        <ele>789</ele>
      </trkpt>
      <trkpt lat="47.42954" lon="7.99824">
        <ele>791.8</ele>
      </trkpt>
      <trkpt lat="47.42959" lon="7.99846">
        <ele>794</ele>
      </trkpt>
      <trkpt lat="47.42959" lon="7.99861">
        <ele>795.9</ele>
      </trkpt>
      <trkpt lat="47.42958" lon="7.9987">
        <ele>797.2</ele>
      </trkpt>
      <trkpt lat="47.42953" lon="7.99878">
        <ele>798.5</ele>
      </trkpt>
      <trkpt lat="47.42946" lon="7.9989">
        <ele>800.3</ele>
      </trkpt>
      <trkpt lat="47.42954" lon="7.9989">
        <ele>799.9</ele>
      </trkpt>
      <trkpt lat="47.4295" lon="7.99897">
        <ele>801</ele>
      </trkpt>
      <trkpt lat="47.42961" lon="7.99897">
        <ele>800.4</ele>
      </trkpt>
      <trkpt lat="47.42954" lon="7.99909">
        <ele>802.2</ele>
      </trkpt>
      <trkpt lat="47.42966" lon="7.99904">
        <ele>801</ele>
      </trkpt>
      <trkpt lat="47.42969" lon="7.99909">
        <ele>801.4</ele>
      </trkpt>
      <trkpt lat="47.42969" lon="7.99914">
        <ele>802.1</ele>
      </trkpt>
      <trkpt lat="47.4297" lon="7.9993">
        <ele>803.3</ele>
      </trkpt>
      <trkpt lat="47.4297" lon="7.99944">
        <ele>804.2</ele>
      </trkpt>
      <trkpt lat="47.42972" lon="7.99949">
        <ele>804.4</ele>
      </trkpt>
      <trkpt lat="47.42971" lon="7.99965">
        <ele>805.5</ele>
      </trkpt>
      <trkpt lat="47.42973" lon="7.99975">
        <ele>806.1</ele>
      </trkpt>
      <trkpt lat="47.42979" lon="8.00008">
        <ele>807.5</ele>
      </trkpt>
      <trkpt lat="47.42983" lon="8.00049">
        <ele>807.9</ele>
      </trkpt>
      <trkpt lat="47.42984" lon="8.00068">
        <ele>808.1</ele>
      </trkpt>
      <trkpt lat="47.42991" lon="8.0013">
        <ele>806.9</ele>
      </trkpt>
      <trkpt lat="47.42993" lon="8.00148">
        <ele>806.2</ele>
      </trkpt>
      <trkpt lat="47.42993" lon="8.00179">
        <ele>805.6</ele>
      </trkpt>
      <trkpt lat="47.42994" lon="8.00197">
        <ele>806.2</ele>
      </trkpt>
      <trkpt lat="47.42994" lon="8.00214">
        <ele>806.6</ele>
      </trkpt>
      <trkpt lat="47.42996" lon="8.00255">
        <ele>807.5</ele>
      </trkpt>
      <trkpt lat="47.42999" lon="8.0027">
        <ele>807.5</ele>
      </trkpt>
      <trkpt lat="47.43" lon="8.00279">
        <ele>807.3</ele>
      </trkpt>
      <trkpt lat="47.43003" lon="8.00307">
        <ele>805.7</ele>
      </trkpt>
      <trkpt lat="47.43004" lon="8.00348">
        <ele>803.8</ele>
      </trkpt>
      <trkpt lat="47.43005" lon="8.00361">
        <ele>802.6</ele>
      </trkpt>
      <trkpt lat="47.43008" lon="8.00377">
        <ele>800.5</ele>
      </trkpt>
      <trkpt lat="47.43015" lon="8.00467">
        <ele>795</ele>
      </trkpt>
      <trkpt lat="47.43018" lon="8.00504">
        <ele>793.3</ele>
      </trkpt>
      <trkpt lat="47.43018" lon="8.00539">
        <ele>792.8</ele>
      </trkpt>
      <trkpt lat="47.43018" lon="8.0056">
        <ele>792.5</ele>
      </trkpt>
      <trkpt lat="47.43017" lon="8.00581">
        <ele>792.5</ele>
      </trkpt>
      <trkpt lat="47.43018" lon="8.00599">
        <ele>792.3</ele>
      </trkpt>
      <trkpt lat="47.43019" lon="8.00619">
        <ele>792.1</ele>
      </trkpt>
      <trkpt lat="47.43018" lon="8.00635">
        <ele>792.4</ele>
      </trkpt>
      <trkpt lat="47.43018" lon="8.00653">
        <ele>792.3</ele>
      </trkpt>
      <trkpt lat="47.43017" lon="8.00671">
        <ele>792.6</ele>
      </trkpt>
      <trkpt lat="47.4302" lon="8.00711">
        <ele>791.5</ele>
      </trkpt>
      <trkpt lat="47.4302" lon="8.00741">
        <ele>791.3</ele>
      </trkpt>
      <trkpt lat="47.43022" lon="8.00754">
        <ele>790.8</ele>
      </trkpt>
      <trkpt lat="47.43022" lon="8.0077">
        <ele>791.1</ele>
      </trkpt>
      <trkpt lat="47.43024" lon="8.008">
        <ele>790.8</ele>
      </trkpt>
      <trkpt lat="47.43027" lon="8.00855">
        <ele>791.5</ele>
      </trkpt>
      <trkpt lat="47.4303" lon="8.00909">
        <ele>792.4</ele>
      </trkpt>
      <trkpt lat="47.43029" lon="8.00922">
        <ele>792.9</ele>
      </trkpt>
      <trkpt lat="47.43031" lon="8.00931">
        <ele>792.9</ele>
      </trkpt>
      <trkpt lat="47.4303" lon="8.00941">
        <ele>793.2</ele>
      </trkpt>
      <trkpt lat="47.43031" lon="8.00964">
        <ele>793.6</ele>
      </trkpt>
      <trkpt lat="47.43033" lon="8.00993">
        <ele>793.9</ele>
      </trkpt>
      <trkpt lat="47.43033" lon="8.01024">
        <ele>795</ele>
      </trkpt>
      <trkpt lat="47.43037" lon="8.0105">
        <ele>795.6</ele>
      </trkpt>
      <trkpt lat="47.43036" lon="8.0106">
        <ele>796.1</ele>
      </trkpt>
      <trkpt lat="47.43039" lon="8.01084">
        <ele>796.8</ele>
      </trkpt>
      <trkpt lat="47.43043" lon="8.01111">
        <ele>797.5</ele>
      </trkpt>
      <trkpt lat="47.43047" lon="8.01139">
        <ele>798.4</ele>
      </trkpt>
      <trkpt lat="47.43053" lon="8.01175">
        <ele>800</ele>
      </trkpt>
      <trkpt lat="47.43059" lon="8.01193">
        <ele>801.1</ele>
      </trkpt>
      <trkpt lat="47.43065" lon="8.01223">
        <ele>803.1</ele>
      </trkpt>
      <trkpt lat="47.4307" lon="8.01235">
        <ele>804.4</ele>
      </trkpt>
      <trkpt lat="47.43075" lon="8.01253">
        <ele>806.2</ele>
      </trkpt>
      <trkpt lat="47.43079" lon="8.01271">
        <ele>807.7</ele>
      </trkpt>
      <trkpt lat="47.43083" lon="8.01286">
        <ele>809</ele>
      </trkpt>
      <trkpt lat="47.43086" lon="8.01309">
        <ele>808.9</ele>
      </trkpt>
      <trkpt lat="47.43088" lon="8.0133">
        <ele>809.2</ele>
      </trkpt>
      <trkpt lat="47.4309" lon="8.01345">
        <ele>808</ele>
      </trkpt>
      <trkpt lat="47.43095" lon="8.0136">
        <ele>805.5</ele>
      </trkpt>
      <trkpt lat="47.43097" lon="8.01369">
        <ele>804.7</ele>
      </trkpt>
      <trkpt lat="47.431" lon="8.01377">
        <ele>803.3</ele>
      </trkpt>
      <trkpt lat="47.43102" lon="8.0139">
        <ele>802.9</ele>
      </trkpt>
      <trkpt lat="47.43104" lon="8.01404">
        <ele>802.3</ele>
      </trkpt>
      <trkpt lat="47.43106" lon="8.01413">
        <ele>801.3</ele>
      </trkpt>
      <trkpt lat="47.43107" lon="8.01427">
        <ele>801.6</ele>
      </trkpt>
      <trkpt lat="47.43107" lon="8.0144">
        <ele>802.4</ele>
      </trkpt>
      <trkpt lat="47.43108" lon="8.01453">
        <ele>803</ele>
      </trkpt>
      <trkpt lat="47.43106" lon="8.01474">
        <ele>805.2</ele>
      </trkpt>
      <trkpt lat="47.43103" lon="8.01488">
        <ele>807.3</ele>
      </trkpt>
      <trkpt lat="47.43102" lon="8.01502">
        <ele>808.4</ele>
      </trkpt>
      <trkpt lat="47.43103" lon="8.01525">
        <ele>808.3</ele>
      </trkpt>
      <trkpt lat="47.43113" lon="8.0155">
        <ele>804.5</ele>
      </trkpt>
      <trkpt lat="47.43121" lon="8.01577">
        <ele>802.2</ele>
      </trkpt>
      <trkpt lat="47.43136" lon="8.01619">
        <ele>799.2</ele>
      </trkpt>
      <trkpt lat="47.43153" lon="8.01668">
        <ele>797.1</ele>
      </trkpt>
      <trkpt lat="47.43167" lon="8.0171">
        <ele>796.2</ele>
      </trkpt>
      <trkpt lat="47.43168" lon="8.01662">
        <ele>792.2</ele>
      </trkpt>
      <trkpt lat="47.4317" lon="8.01591">
        <ele>785.4</ele>
      </trkpt>
      <trkpt lat="47.43176" lon="8.01582">
        <ele>780.6</ele>
      </trkpt>
      <trkpt lat="47.4318" lon="8.01573">
        <ele>777</ele>
      </trkpt>
      <trkpt lat="47.43189" lon="8.01544">
        <ele>769.2</ele>
      </trkpt>
      <trkpt lat="47.43191" lon="8.01542">
        <ele>767.9</ele>
      </trkpt>
      <trkpt lat="47.43193" lon="8.0154">
        <ele>766.2</ele>
      </trkpt>
      <trkpt lat="47.43197" lon="8.01542">
        <ele>763.6</ele>
      </trkpt>
      <trkpt lat="47.43204" lon="8.01554">
        <ele>759.8</ele>
      </trkpt>
      <trkpt lat="47.43215" lon="8.01574">
        <ele>753.4</ele>
      </trkpt>
      <trkpt lat="47.43233" lon="8.01619">
        <ele>746.5</ele>
      </trkpt>
      <trkpt lat="47.43231" lon="8.01566">
        <ele>741.6</ele>
      </trkpt>
      <trkpt lat="47.43226" lon="8.01545">
        <ele>743.9</ele>
      </trkpt>
      <trkpt lat="47.43224" lon="8.01529">
        <ele>744.2</ele>
      </trkpt>
      <trkpt lat="47.43226" lon="8.01516">
        <ele>742.1</ele>
      </trkpt>
      <trkpt lat="47.43234" lon="8.01499">
        <ele>734.8</ele>
      </trkpt>
      <trkpt lat="47.43264" lon="8.01649">
        <ele>734.1</ele>
      </trkpt>
      <trkpt lat="47.43262" lon="8.0165">
        <ele>734.9</ele>
      </trkpt>
      <trkpt lat="47.43261" lon="8.01653">
        <ele>735.5</ele>
      </trkpt>
      <trkpt lat="47.43261" lon="8.01657">
        <ele>736.1</ele>
      </trkpt>
      <trkpt lat="47.43262" lon="8.01661">
        <ele>736.6</ele>
      </trkpt>
      <trkpt lat="47.43266" lon="8.0168">
        <ele>735.8</ele>
      </trkpt>
      <trkpt lat="47.4327" lon="8.01697">
        <ele>734.8</ele>
      </trkpt>
      <trkpt lat="47.43278" lon="8.01735">
        <ele>733.5</ele>
      </trkpt>
      <trkpt lat="47.43285" lon="8.01764">
        <ele>733.9</ele>
      </trkpt>
      <trkpt lat="47.43298" lon="8.01799">
        <ele>736.5</ele>
      </trkpt>
      <trkpt lat="47.43302" lon="8.01809">
        <ele>737.3</ele>
      </trkpt>
      <trkpt lat="47.43307" lon="8.01816">
        <ele>737.7</ele>
      </trkpt>
      <trkpt lat="47.43314" lon="8.01823">
        <ele>737.5</ele>
      </trkpt>
      <trkpt lat="47.43322" lon="8.01829">
        <ele>737.1</ele>
      </trkpt>
      <trkpt lat="47.43336" lon="8.01835">
        <ele>735.9</ele>
      </trkpt>
      <trkpt lat="47.43346" lon="8.01841">
        <ele>735.2</ele>
      </trkpt>
      <trkpt lat="47.43352" lon="8.01846">
        <ele>735</ele>
      </trkpt>
      <trkpt lat="47.43361" lon="8.01858">
        <ele>735.5</ele>
      </trkpt>
      <trkpt lat="47.43379" lon="8.01882">
        <ele>736.9</ele>
      </trkpt>
      <trkpt lat="47.43408" lon="8.01923">
        <ele>739.7</ele>
      </trkpt>
      <trkpt lat="47.43412" lon="8.0193">
        <ele>740.5</ele>
      </trkpt>
      <trkpt lat="47.43415" lon="8.01938">
        <ele>741.5</ele>
      </trkpt>
      <trkpt lat="47.43424" lon="8.01963">
        <ele>746.8</ele>
      </trkpt>
      <trkpt lat="47.43427" lon="8.01969">
        <ele>748.3</ele>
      </trkpt>
      <trkpt lat="47.43432" lon="8.01979">
        <ele>750.4</ele>
      </trkpt>
      <trkpt lat="47.43443" lon="8.01998">
        <ele>754.3</ele>
      </trkpt>
      <trkpt lat="47.43447" lon="8.02012">
        <ele>755</ele>
      </trkpt>
      <trkpt lat="47.43452" lon="8.02052">
        <ele>756.1</ele>
      </trkpt>
      <trkpt lat="47.43453" lon="8.0207">
        <ele>756.5</ele>
      </trkpt>
      <trkpt lat="47.43455" lon="8.02079">
        <ele>756.8</ele>
      </trkpt>
      <trkpt lat="47.43457" lon="8.02087">
        <ele>756.6</ele>
      </trkpt>
      <trkpt lat="47.43465" lon="8.02105">
        <ele>755.4</ele>
      </trkpt>
      <trkpt lat="47.43472" lon="8.02123">
        <ele>754.2</ele>
      </trkpt>
      <trkpt lat="47.4348" lon="8.0214">
        <ele>753.3</ele>
      </trkpt>
      <trkpt lat="47.43487" lon="8.02151">
        <ele>753</ele>
      </trkpt>
      <trkpt lat="47.43501" lon="8.02169">
        <ele>753.2</ele>
      </trkpt>
      <trkpt lat="47.43509" lon="8.0218">
        <ele>754.7</ele>
      </trkpt>
      <trkpt lat="47.43518" lon="8.02201">
        <ele>756.1</ele>
      </trkpt>
      <trkpt lat="47.43524" lon="8.02221">
        <ele>756.1</ele>
      </trkpt>
      <trkpt lat="47.43531" lon="8.02261">
        <ele>755.3</ele>
      </trkpt>
      <trkpt lat="47.43539" lon="8.02303">
        <ele>755.1</ele>
      </trkpt>
      <trkpt lat="47.43542" lon="8.02316">
        <ele>755</ele>
      </trkpt>
      <trkpt lat="47.43553" lon="8.02337">
        <ele>756.1</ele>
      </trkpt>
      <trkpt lat="47.43574" lon="8.02367">
        <ele>757.5</ele>
      </trkpt>
      <trkpt lat="47.43581" lon="8.02382">
        <ele>757.3</ele>
      </trkpt>
      <trkpt lat="47.43584" lon="8.02391">
        <ele>756.5</ele>
      </trkpt>
      <trkpt lat="47.4359" lon="8.02411">
        <ele>752.3</ele>
      </trkpt>
      <trkpt lat="47.43594" lon="8.02439">
        <ele>747</ele>
      </trkpt>
      <trkpt lat="47.43598" lon="8.02512">
        <ele>734</ele>
      </trkpt>
      <trkpt lat="47.43599" lon="8.02559">
        <ele>728.3</ele>
      </trkpt>
      <trkpt lat="47.43599" lon="8.02589">
        <ele>724.8</ele>
      </trkpt>
      <trkpt lat="47.43599" lon="8.02622">
        <ele>720.7</ele>
      </trkpt>
      <trkpt lat="47.436" lon="8.02671">
        <ele>714.4</ele>
      </trkpt>
      <trkpt lat="47.43601" lon="8.02712">
        <ele>711</ele>
      </trkpt>
      <trkpt lat="47.43601" lon="8.02753">
        <ele>707.4</ele>
      </trkpt>
      <trkpt lat="47.43602" lon="8.02777">
        <ele>703.6</ele>
      </trkpt>
      <trkpt lat="47.43601" lon="8.02794">
        <ele>700.9</ele>
      </trkpt>
      <trkpt lat="47.43601" lon="8.02802">
        <ele>699.8</ele>
      </trkpt>
      <trkpt lat="47.436" lon="8.02816">
        <ele>698</ele>
      </trkpt>
      <trkpt lat="47.43598" lon="8.0283">
        <ele>696.4</ele>
      </trkpt>
      <trkpt lat="47.43595" lon="8.0284">
        <ele>695.3</ele>
      </trkpt>
      <trkpt lat="47.43593" lon="8.02849">
        <ele>694.1</ele>
      </trkpt>
      <trkpt lat="47.43589" lon="8.02858">
        <ele>693.1</ele>
      </trkpt>
      <trkpt lat="47.43586" lon="8.02868">
        <ele>691.9</ele>
      </trkpt>
      <trkpt lat="47.43582" lon="8.02877">
        <ele>690.8</ele>
      </trkpt>
      <trkpt lat="47.43577" lon="8.02885">
        <ele>689.2</ele>
      </trkpt>
      <trkpt lat="47.43573" lon="8.02893">
        <ele>688</ele>
      </trkpt>
      <trkpt lat="47.43569" lon="8.029">
        <ele>686.7</ele>
      </trkpt>
      <trkpt lat="47.43566" lon="8.02907">
        <ele>685.6</ele>
      </trkpt>
      <trkpt lat="47.43563" lon="8.02914">
        <ele>684.5</ele>
      </trkpt>
      <trkpt lat="47.4356" lon="8.02926">
        <ele>683.8</ele>
      </trkpt>
      <trkpt lat="47.43557" lon="8.02938">
        <ele>683.3</ele>
      </trkpt>
      <trkpt lat="47.43553" lon="8.02964">
        <ele>682</ele>
      </trkpt>
      <trkpt lat="47.43547" lon="8.02993">
        <ele>680.6</ele>
      </trkpt>
      <trkpt lat="47.43544" lon="8.03009">
        <ele>680.6</ele>
      </trkpt>
      <trkpt lat="47.43548" lon="8.03009">
        <ele>680.3</ele>
      </trkpt>
      <trkpt lat="47.4359" lon="8.03006">
        <ele>677.8</ele>
      </trkpt>
      <trkpt lat="47.43604" lon="8.03004">
        <ele>676.9</ele>
      </trkpt>
      <trkpt lat="47.43613" lon="8.03001">
        <ele>676.2</ele>
      </trkpt>
      <trkpt lat="47.4367" lon="8.0298">
        <ele>671.7</ele>
      </trkpt>
      <trkpt lat="47.43676" lon="8.02978">
        <ele>671.3</ele>
      </trkpt>
      <trkpt lat="47.43682" lon="8.02985">
        <ele>671.6</ele>
      </trkpt>
      <trkpt lat="47.43692" lon="8.02996">
        <ele>672</ele>
      </trkpt>
      <trkpt lat="47.4369" lon="8.03002">
        <ele>672.7</ele>
      </trkpt>
      <trkpt lat="47.43681" lon="8.03019">
        <ele>674.5</ele>
      </trkpt>
      <trkpt lat="47.43672" lon="8.03038">
        <ele>676.3</ele>
      </trkpt>
      <trkpt lat="47.43667" lon="8.03054">
        <ele>677.6</ele>
      </trkpt>
      <trkpt lat="47.43663" lon="8.03075">
        <ele>679.3</ele>
      </trkpt>
      <trkpt lat="47.4366" lon="8.03119">
        <ele>683.4</ele>
      </trkpt>
      <trkpt lat="47.43657" lon="8.03178">
        <ele>688.3</ele>
      </trkpt>
      <trkpt lat="47.43656" lon="8.03199">
        <ele>689.8</ele>
      </trkpt>
      <trkpt lat="47.43658" lon="8.03213">
        <ele>691.3</ele>
      </trkpt>
      <trkpt lat="47.4366" lon="8.03218">
        <ele>692.3</ele>
      </trkpt>
      <trkpt lat="47.4366" lon="8.03233">
        <ele>693.7</ele>
      </trkpt>
      <trkpt lat="47.4366" lon="8.03266">
        <ele>696.9</ele>
      </trkpt>
      <trkpt lat="47.4366" lon="8.03323">
        <ele>704.5</ele>
      </trkpt>
      <trkpt lat="47.43666" lon="8.03381">
        <ele>711.2</ele>
      </trkpt>
      <trkpt lat="47.43673" lon="8.0353">
        <ele>713.4</ele>
      </trkpt>
      <trkpt lat="47.43682" lon="8.03638">
        <ele>711.8</ele>
      </trkpt>
      <trkpt lat="47.43686" lon="8.0376">
        <ele>706.3</ele>
      </trkpt>
      <trkpt lat="47.4368" lon="8.03922">
        <ele>693.7</ele>
      </trkpt>
      <trkpt lat="47.43674" lon="8.03998">
        <ele>692.7</ele>
      </trkpt>
      <trkpt lat="47.4367" lon="8.0404">
        <ele>694.5</ele>
      </trkpt>
      <trkpt lat="47.43663" lon="8.04084">
        <ele>695</ele>
      </trkpt>
      <trkpt lat="47.4365" lon="8.04145">
        <ele>695.4</ele>
      </trkpt>
      <trkpt lat="47.43636" lon="8.04192">
        <ele>695.4</ele>
      </trkpt>
      <trkpt lat="47.43628" lon="8.04222">
        <ele>696.3</ele>
      </trkpt>
      <trkpt lat="47.43622" lon="8.04242">
        <ele>696.7</ele>
      </trkpt>
      <trkpt lat="47.4361" lon="8.04273">
        <ele>694.2</ele>
      </trkpt>
      <trkpt lat="47.43604" lon="8.04307">
        <ele>694.4</ele>
      </trkpt>
      <trkpt lat="47.436" lon="8.04356">
        <ele>694.6</ele>
      </trkpt>
      <trkpt lat="47.43599" lon="8.0441">
        <ele>695.5</ele>
      </trkpt>
      <trkpt lat="47.43605" lon="8.04466">
        <ele>694.2</ele>
      </trkpt>
      <trkpt lat="47.43607" lon="8.04489">
        <ele>693</ele>
      </trkpt>
      <trkpt lat="47.43612" lon="8.04508">
        <ele>693.1</ele>
      </trkpt>
      <trkpt lat="47.43616" lon="8.04522">
        <ele>693.1</ele>
      </trkpt>
      <trkpt lat="47.4363" lon="8.04542">
        <ele>694.9</ele>
      </trkpt>
      <trkpt lat="47.4362" lon="8.04537">
        <ele>693.2</ele>
      </trkpt>
      <trkpt lat="47.43615" lon="8.04543">
        <ele>691.8</ele>
      </trkpt>
      <trkpt lat="47.43613" lon="8.04547">
        <ele>691.2</ele>
      </trkpt>
      <trkpt lat="47.43612" lon="8.04555">
        <ele>690.7</ele>
      </trkpt>
      <trkpt lat="47.43613" lon="8.04587">
        <ele>689.1</ele>
      </trkpt>
      <trkpt lat="47.43613" lon="8.04593">
        <ele>688.5</ele>
      </trkpt>
      <trkpt lat="47.43612" lon="8.04599">
        <ele>687.7</ele>
      </trkpt>
      <trkpt lat="47.4361" lon="8.04603">
        <ele>686.9</ele>
      </trkpt>
      <trkpt lat="47.43606" lon="8.04602">
        <ele>686.3</ele>
      </trkpt>
      <trkpt lat="47.43604" lon="8.04599">
        <ele>686.2</ele>
      </trkpt>
      <trkpt lat="47.43598" lon="8.04593">
        <ele>685.8</ele>
      </trkpt>
      <trkpt lat="47.43593" lon="8.04592">
        <ele>684.9</ele>
      </trkpt>
      <trkpt lat="47.43592" lon="8.04594">
        <ele>684.4</ele>
      </trkpt>
      <trkpt lat="47.43591" lon="8.0461">
        <ele>682.5</ele>
      </trkpt>
      <trkpt lat="47.43586" lon="8.04628">
        <ele>679.8</ele>
      </trkpt>
      <trkpt lat="47.43582" lon="8.04638">
        <ele>677.8</ele>
      </trkpt>
      <trkpt lat="47.4358" lon="8.04652">
        <ele>676</ele>
      </trkpt>
      <trkpt lat="47.43566" lon="8.04697">
        <ele>668.1</ele>
      </trkpt>
      <trkpt lat="47.43563" lon="8.04731">
        <ele>662.6</ele>
      </trkpt>
      <trkpt lat="47.43561" lon="8.04763">
        <ele>658.1</ele>
      </trkpt>
      <trkpt lat="47.4356" lon="8.04832">
        <ele>652</ele>
      </trkpt>
      <trkpt lat="47.43562" lon="8.04837">
        <ele>652.5</ele>
      </trkpt>
      <trkpt lat="47.43563" lon="8.04845">
        <ele>652.3</ele>
      </trkpt>
      <trkpt lat="47.43564" lon="8.04862">
        <ele>651.6</ele>
      </trkpt>
      <trkpt lat="47.43566" lon="8.04878">
        <ele>651</ele>
      </trkpt>
      <trkpt lat="47.43567" lon="8.04899">
        <ele>650</ele>
      </trkpt>
      <trkpt lat="47.43568" lon="8.0492">
        <ele>648.7</ele>
      </trkpt>
      <trkpt lat="47.43568" lon="8.04938">
        <ele>648.1</ele>
      </trkpt>
      <trkpt lat="47.43566" lon="8.04959">
        <ele>646.9</ele>
      </trkpt>
      <trkpt lat="47.43566" lon="8.04975">
        <ele>646.3</ele>
      </trkpt>
      <trkpt lat="47.43566" lon="8.04988">
        <ele>646</ele>
      </trkpt>
      <trkpt lat="47.43567" lon="8.04999">
        <ele>645.9</ele>
      </trkpt>
      <trkpt lat="47.43569" lon="8.0501">
        <ele>646</ele>
      </trkpt>
      <trkpt lat="47.43571" lon="8.05028">
        <ele>645.8</ele>
      </trkpt>
      <trkpt lat="47.43573" lon="8.0505">
        <ele>645.2</ele>
      </trkpt>
      <trkpt lat="47.43575" lon="8.05086">
        <ele>644.3</ele>
      </trkpt>
      <trkpt lat="47.43579" lon="8.05114">
        <ele>643.3</ele>
      </trkpt>
      <trkpt lat="47.43583" lon="8.05157">
        <ele>641.6</ele>
      </trkpt>
      <trkpt lat="47.43586" lon="8.05183">
        <ele>640.5</ele>
      </trkpt>
      <trkpt lat="47.43588" lon="8.05206">
        <ele>639.2</ele>
      </trkpt>
      <trkpt lat="47.43593" lon="8.05273">
        <ele>635.1</ele>
      </trkpt>
      <trkpt lat="47.43601" lon="8.05365">
        <ele>631.1</ele>
      </trkpt>
      <trkpt lat="47.43605" lon="8.05406">
        <ele>629.4</ele>
      </trkpt>
      <trkpt lat="47.43578" lon="8.05424">
        <ele>627.2</ele>
      </trkpt>
      <trkpt lat="47.43557" lon="8.05439">
        <ele>625</ele>
      </trkpt>
      <trkpt lat="47.43544" lon="8.05448">
        <ele>623.8</ele>
      </trkpt>
      <trkpt lat="47.43498" lon="8.05478">
        <ele>620.5</ele>
      </trkpt>
      <trkpt lat="47.4349" lon="8.05486">
        <ele>619.5</ele>
      </trkpt>
      <trkpt lat="47.43476" lon="8.05501">
        <ele>618.1</ele>
      </trkpt>
      <trkpt lat="47.4347" lon="8.05513">
        <ele>617.4</ele>
      </trkpt>
      <trkpt lat="47.43475" lon="8.05525">
        <ele>617.9</ele>
      </trkpt>
      <trkpt lat="47.43478" lon="8.05537">
        <ele>618.3</ele>
      </trkpt>
      <trkpt lat="47.43503" lon="8.05642">
        <ele>619.8</ele>
      </trkpt>
      <trkpt lat="47.43508" lon="8.05664">
        <ele>619.4</ele>
      </trkpt>
      <trkpt lat="47.43509" lon="8.05673">
        <ele>619.6</ele>
      </trkpt>
      <trkpt lat="47.43511" lon="8.05689">
        <ele>620</ele>
      </trkpt>
      <trkpt lat="47.4351" lon="8.05708">
        <ele>620.8</ele>
      </trkpt>
      <trkpt lat="47.43504" lon="8.05752">
        <ele>622.6</ele>
      </trkpt>
      <trkpt lat="47.43491" lon="8.05837">
        <ele>620.2</ele>
      </trkpt>
      <trkpt lat="47.43476" lon="8.05936">
        <ele>613.3</ele>
      </trkpt>
      <trkpt lat="47.43468" lon="8.05985">
        <ele>611.6</ele>
      </trkpt>
      <trkpt lat="47.43463" lon="8.05985">
        <ele>612.2</ele>
      </trkpt>
      <trkpt lat="47.43447" lon="8.05984">
        <ele>614.1</ele>
      </trkpt>
      <trkpt lat="47.43439" lon="8.06006">
        <ele>614.1</ele>
      </trkpt>
      <trkpt lat="47.43434" lon="8.06005">
        <ele>614.8</ele>
      </trkpt>
      <trkpt lat="47.43428" lon="8.06009">
        <ele>615.4</ele>
      </trkpt>
      <trkpt lat="47.43421" lon="8.06033">
        <ele>615.7</ele>
      </trkpt>
      <trkpt lat="47.43415" lon="8.06042">
        <ele>616.1</ele>
      </trkpt>
      <trkpt lat="47.43389" lon="8.06051">
        <ele>618.4</ele>
      </trkpt>
      <trkpt lat="47.43382" lon="8.06044">
        <ele>619</ele>
      </trkpt>
      <trkpt lat="47.43373" lon="8.06052">
        <ele>619.9</ele>
      </trkpt>
      <trkpt lat="47.43369" lon="8.06059">
        <ele>620.5</ele>
      </trkpt>
      <trkpt lat="47.43362" lon="8.06135">
        <ele>624.4</ele>
      </trkpt>
      <trkpt lat="47.43356" lon="8.06177">
        <ele>627.5</ele>
      </trkpt>
      <trkpt lat="47.43354" lon="8.06197">
        <ele>628.8</ele>
      </trkpt>
      <trkpt lat="47.43343" lon="8.06384">
        <ele>639.8</ele>
      </trkpt>
      <trkpt lat="47.43335" lon="8.06457">
        <ele>643.9</ele>
      </trkpt>
      <trkpt lat="47.43333" lon="8.0648">
        <ele>645</ele>
      </trkpt>
      <trkpt lat="47.43333" lon="8.06497">
        <ele>645.8</ele>
      </trkpt>
      <trkpt lat="47.43336" lon="8.06507">
        <ele>646.6</ele>
      </trkpt>
      <trkpt lat="47.4334" lon="8.06514">
        <ele>647.1</ele>
      </trkpt>
      <trkpt lat="47.43348" lon="8.06521">
        <ele>647.5</ele>
      </trkpt>
      <trkpt lat="47.43355" lon="8.06526">
        <ele>647.8</ele>
      </trkpt>
      <trkpt lat="47.43377" lon="8.06532">
        <ele>647.7</ele>
      </trkpt>
      <trkpt lat="47.43389" lon="8.06531">
        <ele>647.2</ele>
      </trkpt>
      <trkpt lat="47.43402" lon="8.0653">
        <ele>646.7</ele>
      </trkpt>
      <trkpt lat="47.43424" lon="8.06524">
        <ele>645.8</ele>
      </trkpt>
      <trkpt lat="47.43441" lon="8.06519">
        <ele>645.8</ele>
      </trkpt>
      <trkpt lat="47.43466" lon="8.0651">
        <ele>645.7</ele>
      </trkpt>
      <trkpt lat="47.43475" lon="8.06509">
        <ele>645.9</ele>
      </trkpt>
      <trkpt lat="47.43479" lon="8.0651">
        <ele>646.2</ele>
      </trkpt>
      <trkpt lat="47.43485" lon="8.06514">
        <ele>646.7</ele>
      </trkpt>
      <trkpt lat="47.43491" lon="8.06524">
        <ele>647.8</ele>
      </trkpt>
      <trkpt lat="47.43495" lon="8.06539">
        <ele>649.1</ele>
      </trkpt>
      <trkpt lat="47.43501" lon="8.06563">
        <ele>651.3</ele>
      </trkpt>
      <trkpt lat="47.43513" lon="8.06621">
        <ele>654.9</ele>
      </trkpt>
      <trkpt lat="47.4352" lon="8.0662">
        <ele>654.7</ele>
      </trkpt>
      <trkpt lat="47.43529" lon="8.0662">
        <ele>654.5</ele>
      </trkpt>
      <trkpt lat="47.43543" lon="8.06623">
        <ele>654.4</ele>
      </trkpt>
      <trkpt lat="47.43562" lon="8.06627">
        <ele>654.1</ele>
      </trkpt>
      <trkpt lat="47.4359" lon="8.06633">
        <ele>654.9</ele>
      </trkpt>
      <trkpt lat="47.43598" lon="8.06636">
        <ele>656.1</ele>
      </trkpt>
      <trkpt lat="47.43626" lon="8.06643">
        <ele>660.1</ele>
      </trkpt>
      <trkpt lat="47.43653" lon="8.06652">
        <ele>663.5</ele>
      </trkpt>
      <trkpt lat="47.43658" lon="8.06657">
        <ele>664.1</ele>
      </trkpt>
      <trkpt lat="47.43661" lon="8.06661">
        <ele>664.4</ele>
      </trkpt>
      <trkpt lat="47.43665" lon="8.06667">
        <ele>664.8</ele>
      </trkpt>
      <trkpt lat="47.43671" lon="8.06672">
        <ele>666</ele>
      </trkpt>
      <trkpt lat="47.43679" lon="8.06686">
        <ele>667.4</ele>
      </trkpt>
      <trkpt lat="47.43684" lon="8.06696">
        <ele>668.1</ele>
      </trkpt>
      <trkpt lat="47.43688" lon="8.06711">
        <ele>668</ele>
      </trkpt>
      <trkpt lat="47.43691" lon="8.06729">
        <ele>667.3</ele>
      </trkpt>
      <trkpt lat="47.43694" lon="8.06753">
        <ele>665.9</ele>
      </trkpt>
      <trkpt lat="47.43697" lon="8.06776">
        <ele>663.2</ele>
      </trkpt>
      <trkpt lat="47.43698" lon="8.06779">
        <ele>662.8</ele>
      </trkpt>
      <trkpt lat="47.43704" lon="8.06785">
        <ele>662.3</ele>
      </trkpt>
      <trkpt lat="47.43708" lon="8.06787">
        <ele>662.3</ele>
      </trkpt>
      <trkpt lat="47.43713" lon="8.06787">
        <ele>662.6</ele>
      </trkpt>
      <trkpt lat="47.43721" lon="8.06784">
        <ele>663.7</ele>
      </trkpt>
      <trkpt lat="47.43733" lon="8.06767">
        <ele>668.5</ele>
      </trkpt>
      <trkpt lat="47.43753" lon="8.06741">
        <ele>675.8</ele>
      </trkpt>
      <trkpt lat="47.43766" lon="8.06726">
        <ele>676.1</ele>
      </trkpt>
      <trkpt lat="47.43781" lon="8.06709">
        <ele>676.9</ele>
      </trkpt>
      <trkpt lat="47.43809" lon="8.06691">
        <ele>677.3</ele>
      </trkpt>
      <trkpt lat="47.43828" lon="8.0668">
        <ele>678</ele>
      </trkpt>
      <trkpt lat="47.43844" lon="8.0667">
        <ele>678.4</ele>
      </trkpt>
      <trkpt lat="47.43859" lon="8.06665">
        <ele>677.5</ele>
      </trkpt>
      <trkpt lat="47.43872" lon="8.06667">
        <ele>674.8</ele>
      </trkpt>
      <trkpt lat="47.43894" lon="8.06683">
        <ele>669.8</ele>
      </trkpt>
      <trkpt lat="47.43905" lon="8.06696">
        <ele>667.5</ele>
      </trkpt>
      <trkpt lat="47.43917" lon="8.06711">
        <ele>666</ele>
      </trkpt>
      <trkpt lat="47.43923" lon="8.06724">
        <ele>667.2</ele>
      </trkpt>
      <trkpt lat="47.43937" lon="8.06756">
        <ele>670</ele>
      </trkpt>
      <trkpt lat="47.43946" lon="8.06781">
        <ele>671.5</ele>
      </trkpt>
      <trkpt lat="47.43964" lon="8.0683">
        <ele>676.2</ele>
      </trkpt>
      <trkpt lat="47.43974" lon="8.06871">
        <ele>678.5</ele>
      </trkpt>
      <trkpt lat="47.43978" lon="8.06899">
        <ele>679.3</ele>
      </trkpt>
      <trkpt lat="47.43981" lon="8.06925">
        <ele>679.5</ele>
      </trkpt>
      <trkpt lat="47.43983" lon="8.06957">
        <ele>678.8</ele>
      </trkpt>
      <trkpt lat="47.43984" lon="8.07019">
        <ele>676.9</ele>
      </trkpt>
      <trkpt lat="47.43986" lon="8.07066">
        <ele>676.7</ele>
      </trkpt>
      <trkpt lat="47.43988" lon="8.0715">
        <ele>676.2</ele>
      </trkpt>
      <trkpt lat="47.43996" lon="8.07237">
        <ele>681.2</ele>
      </trkpt>
      <trkpt lat="47.44004" lon="8.07315">
        <ele>684.1</ele>
      </trkpt>
      <trkpt lat="47.4401" lon="8.07316">
        <ele>687.3</ele>
      </trkpt>
      <trkpt lat="47.44017" lon="8.07321">
        <ele>691.4</ele>
      </trkpt>
      <trkpt lat="47.44021" lon="8.07328">
        <ele>693.6</ele>
      </trkpt>
      <trkpt lat="47.44024" lon="8.07339">
        <ele>695</ele>
      </trkpt>
      <trkpt lat="47.44031" lon="8.07393">
        <ele>697.7</ele>
      </trkpt>
      <trkpt lat="47.4404" lon="8.07451">
        <ele>702.9</ele>
      </trkpt>
      <trkpt lat="47.44048" lon="8.07498">
        <ele>708.7</ele>
      </trkpt>
      <trkpt lat="47.44058" lon="8.07551">
        <ele>708.7</ele>
      </trkpt>
      <trkpt lat="47.44062" lon="8.0757">
        <ele>709.3</ele>
      </trkpt>
      <trkpt lat="47.44071" lon="8.07586">
        <ele>712.6</ele>
      </trkpt>
      <trkpt lat="47.44077" lon="8.07602">
        <ele>715.8</ele>
      </trkpt>
      <trkpt lat="47.44078" lon="8.07611">
        <ele>716.4</ele>
      </trkpt>
      <trkpt lat="47.44077" lon="8.07616">
        <ele>715.3</ele>
      </trkpt>
      <trkpt lat="47.44073" lon="8.07632">
        <ele>712.5</ele>
      </trkpt>
      <trkpt lat="47.44071" lon="8.07644">
        <ele>711.1</ele>
      </trkpt>
      <trkpt lat="47.44071" lon="8.07665">
        <ele>710.9</ele>
      </trkpt>
      <trkpt lat="47.44075" lon="8.07692">
        <ele>711.6</ele>
      </trkpt>
      <trkpt lat="47.44082" lon="8.07723">
        <ele>714.2</ele>
      </trkpt>
      <trkpt lat="47.44094" lon="8.07763">
        <ele>717</ele>
      </trkpt>
      <trkpt lat="47.44103" lon="8.07789">
        <ele>719.3</ele>
      </trkpt>
      <trkpt lat="47.4411" lon="8.07804">
        <ele>721.5</ele>
      </trkpt>
      <trkpt lat="47.44113" lon="8.07816">
        <ele>722.2</ele>
      </trkpt>
      <trkpt lat="47.44119" lon="8.07819">
        <ele>724.6</ele>
      </trkpt>
      <trkpt lat="47.44125" lon="8.07819">
        <ele>727</ele>
      </trkpt>
      <trkpt lat="47.4413" lon="8.07817">
        <ele>728.9</ele>
      </trkpt>
      <trkpt lat="47.44135" lon="8.0781">
        <ele>730.8</ele>
      </trkpt>
      <trkpt lat="47.44136" lon="8.07793">
        <ele>731.7</ele>
      </trkpt>
      <trkpt lat="47.44135" lon="8.07781">
        <ele>731.2</ele>
      </trkpt>
      <trkpt lat="47.4413" lon="8.0776">
        <ele>730.1</ele>
      </trkpt>
      <trkpt lat="47.44126" lon="8.07724">
        <ele>729.5</ele>
      </trkpt>
      <trkpt lat="47.44123" lon="8.07706">
        <ele>729.2</ele>
      </trkpt>
      <trkpt lat="47.44123" lon="8.07696">
        <ele>729.6</ele>
      </trkpt>
      <trkpt lat="47.44127" lon="8.07684">
        <ele>731.2</ele>
      </trkpt>
      <trkpt lat="47.44132" lon="8.07675">
        <ele>732.8</ele>
      </trkpt>
      <trkpt lat="47.44139" lon="8.07667">
        <ele>735.5</ele>
      </trkpt>
      <trkpt lat="47.44149" lon="8.07676">
        <ele>738.2</ele>
      </trkpt>
      <trkpt lat="47.44159" lon="8.0769">
        <ele>741.2</ele>
      </trkpt>
      <trkpt lat="47.44167" lon="8.07697">
        <ele>743.7</ele>
      </trkpt>
      <trkpt lat="47.44183" lon="8.077">
        <ele>744.5</ele>
      </trkpt>
      <trkpt lat="47.44189" lon="8.07703">
        <ele>744.9</ele>
      </trkpt>
      <trkpt lat="47.44198" lon="8.07711">
        <ele>745.7</ele>
      </trkpt>
      <trkpt lat="47.44208" lon="8.07724">
        <ele>746.9</ele>
      </trkpt>
      <trkpt lat="47.44217" lon="8.07737">
        <ele>748.4</ele>
      </trkpt>
      <trkpt lat="47.44231" lon="8.07745">
        <ele>750.4</ele>
      </trkpt>
      <trkpt lat="47.44253" lon="8.07767">
        <ele>752.9</ele>
      </trkpt>
      <trkpt lat="47.44282" lon="8.07788">
        <ele>749.3</ele>
      </trkpt>
      <trkpt lat="47.44304" lon="8.07799">
        <ele>745.6</ele>
      </trkpt>
      <trkpt lat="47.44314" lon="8.07798">
        <ele>744.3</ele>
      </trkpt>
      <trkpt lat="47.44326" lon="8.07798">
        <ele>742.4</ele>
      </trkpt>
      <trkpt lat="47.44338" lon="8.07801">
        <ele>740.7</ele>
      </trkpt>
      <trkpt lat="47.44348" lon="8.078">
        <ele>740.1</ele>
      </trkpt>
      <trkpt lat="47.44358" lon="8.07793">
        <ele>740.2</ele>
      </trkpt>
      <trkpt lat="47.44366" lon="8.07782">
        <ele>741.2</ele>
      </trkpt>
      <trkpt lat="47.44386" lon="8.07754">
        <ele>744.7</ele>
      </trkpt>
      <trkpt lat="47.44401" lon="8.07744">
        <ele>745.1</ele>
      </trkpt>
      <trkpt lat="47.44417" lon="8.0774">
        <ele>745</ele>
      </trkpt>
      <trkpt lat="47.44429" lon="8.07738">
        <ele>747.9</ele>
      </trkpt>
      <trkpt lat="47.44441" lon="8.0774">
        <ele>750.7</ele>
      </trkpt>
      <trkpt lat="47.44458" lon="8.07747">
        <ele>754.5</ele>
      </trkpt>
      <trkpt lat="47.44463" lon="8.07754">
        <ele>755</ele>
      </trkpt>
      <trkpt lat="47.44467" lon="8.07762">
        <ele>754.6</ele>
      </trkpt>
      <trkpt lat="47.44471" lon="8.07774">
        <ele>753.9</ele>
      </trkpt>
      <trkpt lat="47.44479" lon="8.0786">
        <ele>744.1</ele>
      </trkpt>
      <trkpt lat="47.44483" lon="8.07894">
        <ele>740.9</ele>
      </trkpt>
      <trkpt lat="47.44492" lon="8.07942">
        <ele>739.4</ele>
      </trkpt>
      <trkpt lat="47.44498" lon="8.07973">
        <ele>739.2</ele>
      </trkpt>
      <trkpt lat="47.44503" lon="8.08014">
        <ele>738.2</ele>
      </trkpt>
      <trkpt lat="47.44507" lon="8.08062">
        <ele>735.3</ele>
      </trkpt>
      <trkpt lat="47.44517" lon="8.08176">
        <ele>726.8</ele>
      </trkpt>
      <trkpt lat="47.4453" lon="8.08336">
        <ele>712.4</ele>
      </trkpt>
      <trkpt lat="47.44533" lon="8.0834">
        <ele>713.6</ele>
      </trkpt>
      <trkpt lat="47.44537" lon="8.08349">
        <ele>715</ele>
      </trkpt>
      <trkpt lat="47.44544" lon="8.08371">
        <ele>716.4</ele>
      </trkpt>
      <trkpt lat="47.44549" lon="8.08402">
        <ele>716.3</ele>
      </trkpt>
      <trkpt lat="47.44552" lon="8.08413">
        <ele>716.8</ele>
      </trkpt>
      <trkpt lat="47.44565" lon="8.08447">
        <ele>719.5</ele>
      </trkpt>
      <trkpt lat="47.44571" lon="8.08458">
        <ele>721.2</ele>
      </trkpt>
      <trkpt lat="47.4458" lon="8.08468">
        <ele>724.6</ele>
      </trkpt>
      <trkpt lat="47.44592" lon="8.08488">
        <ele>726.4</ele>
      </trkpt>
      <trkpt lat="47.44598" lon="8.08502">
        <ele>726.6</ele>
      </trkpt>
      <trkpt lat="47.44611" lon="8.08529">
        <ele>727.4</ele>
      </trkpt>
      <trkpt lat="47.44631" lon="8.08569">
        <ele>729.7</ele>
      </trkpt>
      <trkpt lat="47.44645" lon="8.08602">
        <ele>731.2</ele>
      </trkpt>
      <trkpt lat="47.4467" lon="8.08683">
        <ele>730.8</ele>
      </trkpt>
      <trkpt lat="47.44689" lon="8.08743">
        <ele>723.2</ele>
      </trkpt>
      <trkpt lat="47.4471" lon="8.08805">
        <ele>717.4</ele>
      </trkpt>
      <trkpt lat="47.44722" lon="8.08826">
        <ele>716.5</ele>
      </trkpt>
      <trkpt lat="47.44744" lon="8.08859">
        <ele>716</ele>
      </trkpt>
      <trkpt lat="47.44761" lon="8.08875">
        <ele>716.1</ele>
      </trkpt>
      <trkpt lat="47.44773" lon="8.08885">
        <ele>716.3</ele>
      </trkpt>
      <trkpt lat="47.44777" lon="8.08909">
        <ele>714.2</ele>
      </trkpt>
      <trkpt lat="47.44779" lon="8.08947">
        <ele>710.8</ele>
      </trkpt>
      <trkpt lat="47.4478" lon="8.08971">
        <ele>708.7</ele>
      </trkpt>
      <trkpt lat="47.44781" lon="8.08992">
        <ele>707</ele>
      </trkpt>
      <trkpt lat="47.44783" lon="8.09005">
        <ele>705.9</ele>
      </trkpt>
      <trkpt lat="47.44798" lon="8.09064">
        <ele>702.2</ele>
      </trkpt>
      <trkpt lat="47.44814" lon="8.09122">
        <ele>698.1</ele>
      </trkpt>
      <trkpt lat="47.44829" lon="8.09175">
        <ele>694.4</ele>
      </trkpt>
      <trkpt lat="47.44843" lon="8.0923">
        <ele>687.5</ele>
      </trkpt>
      <trkpt lat="47.44848" lon="8.09265">
        <ele>683.7</ele>
      </trkpt>
      <trkpt lat="47.44856" lon="8.09344">
        <ele>677.7</ele>
      </trkpt>
      <trkpt lat="47.44862" lon="8.094">
        <ele>676.3</ele>
      </trkpt>
      <trkpt lat="47.44864" lon="8.09425">
        <ele>675.4</ele>
      </trkpt>
      <trkpt lat="47.44865" lon="8.09457">
        <ele>673.5</ele>
      </trkpt>
      <trkpt lat="47.4487" lon="8.0947">
        <ele>673.8</ele>
      </trkpt>
      <trkpt lat="47.44878" lon="8.09493">
        <ele>674.2</ele>
      </trkpt>
      <trkpt lat="47.44891" lon="8.09551">
        <ele>674.2</ele>
      </trkpt>
      <trkpt lat="47.44905" lon="8.09603">
        <ele>674.1</ele>
      </trkpt>
      <trkpt lat="47.44915" lon="8.09647">
        <ele>672.5</ele>
      </trkpt>
      <trkpt lat="47.4492" lon="8.09663">
        <ele>671.2</ele>
      </trkpt>
      <trkpt lat="47.44925" lon="8.09668">
        <ele>670.2</ele>
      </trkpt>
      <trkpt lat="47.44933" lon="8.09671">
        <ele>669</ele>
      </trkpt>
      <trkpt lat="47.44941" lon="8.09671">
        <ele>668.5</ele>
      </trkpt>
      <trkpt lat="47.44949" lon="8.09669">
        <ele>668.4</ele>
      </trkpt>
      <trkpt lat="47.44965" lon="8.09659">
        <ele>667.9</ele>
      </trkpt>
      <trkpt lat="47.44985" lon="8.09646">
        <ele>666.5</ele>
      </trkpt>
      <trkpt lat="47.4499" lon="8.09652">
        <ele>665.9</ele>
      </trkpt>
      <trkpt lat="47.45003" lon="8.09667">
        <ele>664.5</ele>
      </trkpt>
      <trkpt lat="47.45061" lon="8.09749">
        <ele>657.9</ele>
      </trkpt>
      <trkpt lat="47.45121" lon="8.09831">
        <ele>654</ele>
      </trkpt>
      <trkpt lat="47.45142" lon="8.0986">
        <ele>653.2</ele>
      </trkpt>
      <trkpt lat="47.45168" lon="8.09891">
        <ele>653.7</ele>
      </trkpt>
      <trkpt lat="47.45214" lon="8.09943">
        <ele>647.1</ele>
      </trkpt>
      <trkpt lat="47.45223" lon="8.09952">
        <ele>646.3</ele>
      </trkpt>
      <trkpt lat="47.4523" lon="8.09962">
        <ele>645.8</ele>
      </trkpt>
      <trkpt lat="47.45233" lon="8.0997">
        <ele>645.6</ele>
      </trkpt>
      <trkpt lat="47.45239" lon="8.09999">
        <ele>645.6</ele>
      </trkpt>
      <trkpt lat="47.45243" lon="8.10019">
        <ele>645.2</ele>
      </trkpt>
      <trkpt lat="47.45244" lon="8.1003">
        <ele>644.9</ele>
      </trkpt>
      <trkpt lat="47.45244" lon="8.10035">
        <ele>644.7</ele>
      </trkpt>
      <trkpt lat="47.45242" lon="8.10043">
        <ele>644.3</ele>
      </trkpt>
      <trkpt lat="47.45238" lon="8.10052">
        <ele>643.7</ele>
      </trkpt>
      <trkpt lat="47.45246" lon="8.10061">
        <ele>644.2</ele>
      </trkpt>
      <trkpt lat="47.45325" lon="8.10148">
        <ele>656.3</ele>
      </trkpt>
      <trkpt lat="47.45345" lon="8.10168">
        <ele>661.1</ele>
      </trkpt>
      <trkpt lat="47.45392" lon="8.10203">
        <ele>668.3</ele>
      </trkpt>
      <trkpt lat="47.45415" lon="8.10219">
        <ele>672.4</ele>
      </trkpt>
      <trkpt lat="47.45431" lon="8.10229">
        <ele>674.2</ele>
      </trkpt>
      <trkpt lat="47.45444" lon="8.10235">
        <ele>674.9</ele>
      </trkpt>
      <trkpt lat="47.45433" lon="8.10261">
        <ele>675.3</ele>
      </trkpt>
      <trkpt lat="47.45409" lon="8.10419">
        <ele>659.6</ele>
      </trkpt>
      <trkpt lat="47.45398" lon="8.10497">
        <ele>653.9</ele>
      </trkpt>
      <trkpt lat="47.45397" lon="8.10518">
        <ele>653.1</ele>
      </trkpt>
      <trkpt lat="47.45396" lon="8.10572">
        <ele>651.4</ele>
      </trkpt>
      <trkpt lat="47.45398" lon="8.10627">
        <ele>650.8</ele>
      </trkpt>
      <trkpt lat="47.45401" lon="8.10748">
        <ele>653.1</ele>
      </trkpt>
      <trkpt lat="47.45402" lon="8.10767">
        <ele>653</ele>
      </trkpt>
      <trkpt lat="47.45399" lon="8.10795">
        <ele>652.8</ele>
      </trkpt>
      <trkpt lat="47.45391" lon="8.10846">
        <ele>652.9</ele>
      </trkpt>
      <trkpt lat="47.4539" lon="8.10877">
        <ele>653.5</ele>
      </trkpt>
      <trkpt lat="47.45391" lon="8.10911">
        <ele>654.1</ele>
      </trkpt>
      <trkpt lat="47.45393" lon="8.10953">
        <ele>655.9</ele>
      </trkpt>
      <trkpt lat="47.45393" lon="8.10996">
        <ele>657.9</ele>
      </trkpt>
      <trkpt lat="47.45396" lon="8.11042">
        <ele>661.9</ele>
      </trkpt>
      <trkpt lat="47.45394" lon="8.11086">
        <ele>666.6</ele>
      </trkpt>
      <trkpt lat="47.45394" lon="8.11103">
        <ele>668.5</ele>
      </trkpt>
      <trkpt lat="47.45398" lon="8.11121">
        <ele>669.6</ele>
      </trkpt>
      <trkpt lat="47.45401" lon="8.1113">
        <ele>670</ele>
      </trkpt>
      <trkpt lat="47.4541" lon="8.11148">
        <ele>670.1</ele>
      </trkpt>
      <trkpt lat="47.45421" lon="8.11169">
        <ele>671.2</ele>
      </trkpt>
      <trkpt lat="47.45425" lon="8.11181">
        <ele>672.1</ele>
      </trkpt>
      <trkpt lat="47.4543" lon="8.11203">
        <ele>673.7</ele>
      </trkpt>
      <trkpt lat="47.45437" lon="8.1123">
        <ele>675.6</ele>
      </trkpt>
      <trkpt lat="47.45441" lon="8.11246">
        <ele>676.7</ele>
      </trkpt>
      <trkpt lat="47.45447" lon="8.11252">
        <ele>677</ele>
      </trkpt>
      <trkpt lat="47.45455" lon="8.11247">
        <ele>676.8</ele>
      </trkpt>
      <trkpt lat="47.45462" lon="8.11243">
        <ele>676.5</ele>
      </trkpt>
      <trkpt lat="47.4547" lon="8.11241">
        <ele>676.4</ele>
      </trkpt>
      <trkpt lat="47.45482" lon="8.11244">
        <ele>676.6</ele>
      </trkpt>
      <trkpt lat="47.45487" lon="8.11251">
        <ele>677</ele>
      </trkpt>
      <trkpt lat="47.45498" lon="8.11274">
        <ele>675.9</ele>
      </trkpt>
      <trkpt lat="47.45523" lon="8.11306">
        <ele>679.5</ele>
      </trkpt>
      <trkpt lat="47.45543" lon="8.11352">
        <ele>682.8</ele>
      </trkpt>
      <trkpt lat="47.45561" lon="8.11407">
        <ele>682.6</ele>
      </trkpt>
      <trkpt lat="47.45579" lon="8.11445">
        <ele>681.2</ele>
      </trkpt>
      <trkpt lat="47.45595" lon="8.11477">
        <ele>680.6</ele>
      </trkpt>
      <trkpt lat="47.45604" lon="8.11487">
        <ele>681.7</ele>
      </trkpt>
      <trkpt lat="47.45609" lon="8.11491">
        <ele>682.8</ele>
      </trkpt>
      <trkpt lat="47.45619" lon="8.11496">
        <ele>684.9</ele>
      </trkpt>
      <trkpt lat="47.45633" lon="8.11505">
        <ele>687.9</ele>
      </trkpt>
      <trkpt lat="47.45661" lon="8.1153">
        <ele>693.2</ele>
      </trkpt>
      <trkpt lat="47.45678" lon="8.11552">
        <ele>696.5</ele>
      </trkpt>
      <trkpt lat="47.45689" lon="8.11581">
        <ele>696.6</ele>
      </trkpt>
      <trkpt lat="47.45706" lon="8.11627">
        <ele>696.4</ele>
      </trkpt>
      <trkpt lat="47.45712" lon="8.11643">
        <ele>696.3</ele>
      </trkpt>
      <trkpt lat="47.45714" lon="8.11645">
        <ele>696.5</ele>
      </trkpt>
      <trkpt lat="47.45731" lon="8.11671">
        <ele>698.1</ele>
      </trkpt>
      <trkpt lat="47.45737" lon="8.11671">
        <ele>700.2</ele>
      </trkpt>
      <trkpt lat="47.45754" lon="8.11694">
        <ele>698.6</ele>
      </trkpt>
      <trkpt lat="47.45842" lon="8.11811">
        <ele>696.8</ele>
      </trkpt>
      <trkpt lat="47.4586" lon="8.11826">
        <ele>699.7</ele>
      </trkpt>
      <trkpt lat="47.45888" lon="8.11847">
        <ele>706.2</ele>
      </trkpt>
      <trkpt lat="47.45901" lon="8.11866">
        <ele>706.3</ele>
      </trkpt>
      <trkpt lat="47.45914" lon="8.11887">
        <ele>705.9</ele>
      </trkpt>
      <trkpt lat="47.45931" lon="8.11908">
        <ele>704</ele>
      </trkpt>
      <trkpt lat="47.45947" lon="8.11912">
        <ele>706.7</ele>
      </trkpt>
      <trkpt lat="47.45959" lon="8.11912">
        <ele>709.6</ele>
      </trkpt>
      <trkpt lat="47.45987" lon="8.11915">
        <ele>716</ele>
      </trkpt>
      <trkpt lat="47.45996" lon="8.11913">
        <ele>718.4</ele>
      </trkpt>
      <trkpt lat="47.46001" lon="8.11913">
        <ele>719.4</ele>
      </trkpt>
      <trkpt lat="47.46014" lon="8.11926">
        <ele>717.7</ele>
      </trkpt>
      <trkpt lat="47.46027" lon="8.11952">
        <ele>713.8</ele>
      </trkpt>
      <trkpt lat="47.46034" lon="8.11955">
        <ele>714</ele>
      </trkpt>
      <trkpt lat="47.46048" lon="8.11958">
        <ele>715.3</ele>
      </trkpt>
      <trkpt lat="47.46057" lon="8.11964">
        <ele>715.7</ele>
      </trkpt>
      <trkpt lat="47.46082" lon="8.11983">
        <ele>717.8</ele>
      </trkpt>
      <trkpt lat="47.46096" lon="8.12001">
        <ele>717.1</ele>
      </trkpt>
      <trkpt lat="47.46105" lon="8.12016">
        <ele>715.7</ele>
      </trkpt>
      <trkpt lat="47.46117" lon="8.12042">
        <ele>714</ele>
      </trkpt>
      <trkpt lat="47.46128" lon="8.12052">
        <ele>714.3</ele>
      </trkpt>
      <trkpt lat="47.46149" lon="8.12062">
        <ele>716.5</ele>
      </trkpt>
      <trkpt lat="47.46161" lon="8.12069">
        <ele>718</ele>
      </trkpt>
      <trkpt lat="47.46168" lon="8.12082">
        <ele>719.2</ele>
      </trkpt>
      <trkpt lat="47.46177" lon="8.12091">
        <ele>720.2</ele>
      </trkpt>
      <trkpt lat="47.46178" lon="8.12099">
        <ele>720</ele>
      </trkpt>
      <trkpt lat="47.46194" lon="8.12146">
        <ele>722</ele>
      </trkpt>
      <trkpt lat="47.46202" lon="8.12165">
        <ele>723.5</ele>
      </trkpt>
      <trkpt lat="47.4621" lon="8.12177">
        <ele>724.3</ele>
      </trkpt>
      <trkpt lat="47.46217" lon="8.12185">
        <ele>725.5</ele>
      </trkpt>
      <trkpt lat="47.46245" lon="8.12215">
        <ele>730.8</ele>
      </trkpt>
      <trkpt lat="47.46254" lon="8.12222">
        <ele>732</ele>
      </trkpt>
      <trkpt lat="47.46263" lon="8.12222">
        <ele>732.9</ele>
      </trkpt>
      <trkpt lat="47.46271" lon="8.12225">
        <ele>733.5</ele>
      </trkpt>
      <trkpt lat="47.46301" lon="8.12267">
        <ele>734</ele>
      </trkpt>
      <trkpt lat="47.46324" lon="8.12302">
        <ele>734.7</ele>
      </trkpt>
      <trkpt lat="47.46326" lon="8.12313">
        <ele>734.5</ele>
      </trkpt>
      <trkpt lat="47.46327" lon="8.12328">
        <ele>733.9</ele>
      </trkpt>
      <trkpt lat="47.46327" lon="8.12344">
        <ele>733.1</ele>
      </trkpt>
      <trkpt lat="47.4633" lon="8.12368">
        <ele>732.8</ele>
      </trkpt>
      <trkpt lat="47.46323" lon="8.12387">
        <ele>730.4</ele>
      </trkpt>
      <trkpt lat="47.46312" lon="8.12424">
        <ele>725.5</ele>
      </trkpt>
      <trkpt lat="47.46302" lon="8.1245">
        <ele>721.2</ele>
      </trkpt>
      <trkpt lat="47.46295" lon="8.12471">
        <ele>717.5</ele>
      </trkpt>
      <trkpt lat="47.46296" lon="8.12477">
        <ele>717.4</ele>
      </trkpt>
      <trkpt lat="47.46303" lon="8.12477">
        <ele>719.9</ele>
      </trkpt>
      <trkpt lat="47.46307" lon="8.12478">
        <ele>721.3</ele>
      </trkpt>
      <trkpt lat="47.46315" lon="8.12478">
        <ele>724.1</ele>
      </trkpt>
      <trkpt lat="47.46323" lon="8.12476">
        <ele>726.9</ele>
      </trkpt>
      <trkpt lat="47.46331" lon="8.12468">
        <ele>730</ele>
      </trkpt>
      <trkpt lat="47.46345" lon="8.12462">
        <ele>728.9</ele>
      </trkpt>
      <trkpt lat="47.46351" lon="8.1246">
        <ele>727.7</ele>
      </trkpt>
      <trkpt lat="47.46356" lon="8.12464">
        <ele>726.9</ele>
      </trkpt>
      <trkpt lat="47.4636" lon="8.12468">
        <ele>726.1</ele>
      </trkpt>
      <trkpt lat="47.46367" lon="8.12468">
        <ele>725</ele>
      </trkpt>
      <trkpt lat="47.46375" lon="8.12475">
        <ele>723.5</ele>
      </trkpt>
      <trkpt lat="47.46387" lon="8.12504">
        <ele>721.5</ele>
      </trkpt>
      <trkpt lat="47.46408" lon="8.12568">
        <ele>719.7</ele>
      </trkpt>
      <trkpt lat="47.46421" lon="8.12604">
        <ele>717.9</ele>
      </trkpt>
      <trkpt lat="47.46434" lon="8.12637">
        <ele>713.6</ele>
      </trkpt>
      <trkpt lat="47.46441" lon="8.12638">
        <ele>712.4</ele>
      </trkpt>
      <trkpt lat="47.46452" lon="8.12649">
        <ele>710.2</ele>
      </trkpt>
      <trkpt lat="47.46472" lon="8.12677">
        <ele>706.2</ele>
      </trkpt>
      <trkpt lat="47.46483" lon="8.12696">
        <ele>704.3</ele>
      </trkpt>
      <trkpt lat="47.46491" lon="8.12706">
        <ele>703.7</ele>
      </trkpt>
      <trkpt lat="47.46524" lon="8.1273">
        <ele>698.9</ele>
      </trkpt>
      <trkpt lat="47.46546" lon="8.12746">
        <ele>695.5</ele>
      </trkpt>
      <trkpt lat="47.46567" lon="8.12755">
        <ele>692.2</ele>
      </trkpt>
      <trkpt lat="47.4659" lon="8.12764">
        <ele>687.9</ele>
      </trkpt>
      <trkpt lat="47.46597" lon="8.1276">
        <ele>684.9</ele>
      </trkpt>
      <trkpt lat="47.46599" lon="8.12753">
        <ele>683.3</ele>
      </trkpt>
      <trkpt lat="47.46598" lon="8.12737">
        <ele>682.1</ele>
      </trkpt>
      <trkpt lat="47.46603" lon="8.12729">
        <ele>679.4</ele>
      </trkpt>
      <trkpt lat="47.46606" lon="8.12724">
        <ele>677.8</ele>
      </trkpt>
      <trkpt lat="47.46615" lon="8.12734">
        <ele>675.5</ele>
      </trkpt>
      <trkpt lat="47.46623" lon="8.12747">
        <ele>673.8</ele>
      </trkpt>
      <trkpt lat="47.46629" lon="8.12758">
        <ele>673</ele>
      </trkpt>
      <trkpt lat="47.46632" lon="8.12766">
        <ele>672.5</ele>
      </trkpt>
      <trkpt lat="47.46643" lon="8.12802">
        <ele>672.3</ele>
      </trkpt>
      <trkpt lat="47.46647" lon="8.12814">
        <ele>672</ele>
      </trkpt>
      <trkpt lat="47.4665" lon="8.1282">
        <ele>671.8</ele>
      </trkpt>
      <trkpt lat="47.46652" lon="8.12824">
        <ele>671.1</ele>
      </trkpt>
      <trkpt lat="47.46657" lon="8.12826">
        <ele>669.9</ele>
      </trkpt>
      <trkpt lat="47.46663" lon="8.12827">
        <ele>667.7</ele>
      </trkpt>
      <trkpt lat="47.46666" lon="8.12825">
        <ele>666.4</ele>
      </trkpt>
      <trkpt lat="47.4667" lon="8.12822">
        <ele>664.7</ele>
      </trkpt>
      <trkpt lat="47.46671" lon="8.12804">
        <ele>662.4</ele>
      </trkpt>
      <trkpt lat="47.4667" lon="8.12798">
        <ele>662.1</ele>
      </trkpt>
      <trkpt lat="47.4666" lon="8.12769">
        <ele>662.6</ele>
      </trkpt>
      <trkpt lat="47.46646" lon="8.1272">
        <ele>662.3</ele>
      </trkpt>
      <trkpt lat="47.46632" lon="8.12682">
        <ele>663.2</ele>
      </trkpt>
      <trkpt lat="47.4663" lon="8.12676">
        <ele>663.3</ele>
      </trkpt>
      <trkpt lat="47.46629" lon="8.12671">
        <ele>662.7</ele>
      </trkpt>
      <trkpt lat="47.4663" lon="8.12665">
        <ele>661.7</ele>
      </trkpt>
      <trkpt lat="47.46636" lon="8.12651">
        <ele>658.3</ele>
      </trkpt>
      <trkpt lat="47.46647" lon="8.12663">
        <ele>655.4</ele>
      </trkpt>
      <trkpt lat="47.46681" lon="8.12688">
        <ele>646.4</ele>
      </trkpt>
      <trkpt lat="47.46696" lon="8.12712">
        <ele>644.8</ele>
      </trkpt>
      <trkpt lat="47.46702" lon="8.12729">
        <ele>645.1</ele>
      </trkpt>
      <trkpt lat="47.46716" lon="8.12784">
        <ele>645.4</ele>
      </trkpt>
      <trkpt lat="47.46725" lon="8.12835">
        <ele>644</ele>
      </trkpt>
      <trkpt lat="47.46742" lon="8.12888">
        <ele>639.9</ele>
      </trkpt>
      <trkpt lat="47.46754" lon="8.12916">
        <ele>636.2</ele>
      </trkpt>
      <trkpt lat="47.46791" lon="8.12998">
        <ele>618.8</ele>
      </trkpt>
      <trkpt lat="47.46819" lon="8.13092">
        <ele>611.5</ele>
      </trkpt>
      <trkpt lat="47.46836" lon="8.13153">
        <ele>607.8</ele>
      </trkpt>
      <trkpt lat="47.4686" lon="8.13242">
        <ele>601.1</ele>
      </trkpt>
      <trkpt lat="47.46865" lon="8.13267">
        <ele>599.7</ele>
      </trkpt>
      <trkpt lat="47.46866" lon="8.13276">
        <ele>599.4</ele>
      </trkpt>
      <trkpt lat="47.46865" lon="8.13289">
        <ele>599.6</ele>
      </trkpt>
      <trkpt lat="47.46861" lon="8.13305">
        <ele>600.4</ele>
      </trkpt>
      <trkpt lat="47.46858" lon="8.13314">
        <ele>601.1</ele>
      </trkpt>
      <trkpt lat="47.46856" lon="8.13323">
        <ele>601.5</ele>
      </trkpt>
      <trkpt lat="47.46857" lon="8.13335">
        <ele>601.1</ele>
      </trkpt>
      <trkpt lat="47.4686" lon="8.13343">
        <ele>599.6</ele>
      </trkpt>
      <trkpt lat="47.46867" lon="8.1335">
        <ele>597.1</ele>
      </trkpt>
      <trkpt lat="47.46876" lon="8.13351">
        <ele>594.5</ele>
      </trkpt>
      <trkpt lat="47.46883" lon="8.13346">
        <ele>593.5</ele>
      </trkpt>
      <trkpt lat="47.46893" lon="8.13333">
        <ele>592.8</ele>
      </trkpt>
      <trkpt lat="47.46909" lon="8.13315">
        <ele>589.2</ele>
      </trkpt>
      <trkpt lat="47.4692" lon="8.13304">
        <ele>586.9</ele>
      </trkpt>
      <trkpt lat="47.4693" lon="8.13295">
        <ele>585.7</ele>
      </trkpt>
      <trkpt lat="47.46944" lon="8.13285">
        <ele>584.1</ele>
      </trkpt>
      <trkpt lat="47.46963" lon="8.13278">
        <ele>581.7</ele>
      </trkpt>
      <trkpt lat="47.4699" lon="8.1327">
        <ele>578.6</ele>
      </trkpt>
      <trkpt lat="47.47016" lon="8.13264">
        <ele>577.7</ele>
      </trkpt>
      <trkpt lat="47.47039" lon="8.13258">
        <ele>578.2</ele>
      </trkpt>
      <trkpt lat="47.4705" lon="8.13255">
        <ele>578.4</ele>
      </trkpt>
      <trkpt lat="47.47056" lon="8.13237">
        <ele>578.1</ele>
      </trkpt>
      <trkpt lat="47.47082" lon="8.1327">
        <ele>578.3</ele>
      </trkpt>
      <trkpt lat="47.47102" lon="8.13291">
        <ele>578.7</ele>
      </trkpt>
      <trkpt lat="47.47122" lon="8.13312">
        <ele>579.3</ele>
      </trkpt>
      <trkpt lat="47.47144" lon="8.13334">
        <ele>580.3</ele>
      </trkpt>
      <trkpt lat="47.4717" lon="8.13358">
        <ele>580.6</ele>
      </trkpt>
      <trkpt lat="47.47186" lon="8.13372">
        <ele>580.1</ele>
      </trkpt>
      <trkpt lat="47.47216" lon="8.13394">
        <ele>579.8</ele>
      </trkpt>
      <trkpt lat="47.47263" lon="8.13424">
        <ele>579.6</ele>
      </trkpt>
      <trkpt lat="47.47294" lon="8.13441">
        <ele>578.8</ele>
      </trkpt>
      <trkpt lat="47.47377" lon="8.13471">
        <ele>578.7</ele>
      </trkpt>
      <trkpt lat="47.47388" lon="8.13474">
        <ele>578.8</ele>
      </trkpt>
      <trkpt lat="47.47398" lon="8.13476">
        <ele>579</ele>
      </trkpt>
      <trkpt lat="47.47399" lon="8.13487">
        <ele>578.8</ele>
      </trkpt>
      <trkpt lat="47.47407" lon="8.13502">
        <ele>578.7</ele>
      </trkpt>
      <trkpt lat="47.47466" lon="8.13614">
        <ele>577.3</ele>
      </trkpt>
      <trkpt lat="47.47477" lon="8.13629">
        <ele>577.3</ele>
      </trkpt>
      <trkpt lat="47.47496" lon="8.13649">
        <ele>577.6</ele>
      </trkpt>
      <trkpt lat="47.47503" lon="8.13659">
        <ele>577.5</ele>
      </trkpt>
      <trkpt lat="47.47513" lon="8.13675">
        <ele>577</ele>
      </trkpt>
      <trkpt lat="47.47581" lon="8.138">
        <ele>577.6</ele>
      </trkpt>
      <trkpt lat="47.47642" lon="8.13903">
        <ele>581.5</ele>
      </trkpt>
      <trkpt lat="47.47647" lon="8.13915">
        <ele>582</ele>
      </trkpt>
      <trkpt lat="47.47694" lon="8.13977">
        <ele>583.1</ele>
      </trkpt>
      <trkpt lat="47.47713" lon="8.14002">
        <ele>582.9</ele>
      </trkpt>
      <trkpt lat="47.47741" lon="8.14035">
        <ele>582.1</ele>
      </trkpt>
      <trkpt lat="47.47759" lon="8.14061">
        <ele>581.3</ele>
      </trkpt>
      <trkpt lat="47.47795" lon="8.14125">
        <ele>578.7</ele>
      </trkpt>
      <trkpt lat="47.47881" lon="8.14299">
        <ele>571</ele>
      </trkpt>
      <trkpt lat="47.47903" lon="8.14335">
        <ele>568.1</ele>
      </trkpt>
      <trkpt lat="47.47932" lon="8.14369">
        <ele>565.9</ele>
      </trkpt>
      <trkpt lat="47.47961" lon="8.14394">
        <ele>562.6</ele>
      </trkpt>
      <trkpt lat="47.48022" lon="8.14438">
        <ele>555.9</ele>
      </trkpt>
      <trkpt lat="47.48035" lon="8.14449">
        <ele>555.2</ele>
      </trkpt>
      <trkpt lat="47.48063" lon="8.14467">
        <ele>553.8</ele>
      </trkpt>
      <trkpt lat="47.48075" lon="8.14469">
        <ele>553.4</ele>
      </trkpt>
      <trkpt lat="47.4809" lon="8.14458">
        <ele>553.1</ele>
      </trkpt>
      <trkpt lat="47.48101" lon="8.14454">
        <ele>552.6</ele>
      </trkpt>
      <trkpt lat="47.48104" lon="8.14455">
        <ele>552.4</ele>
      </trkpt>
      <trkpt lat="47.48113" lon="8.14461">
        <ele>551.6</ele>
      </trkpt>
      <trkpt lat="47.48112" lon="8.14468">
        <ele>551.4</ele>
      </trkpt>
      <trkpt lat="47.48111" lon="8.14476">
        <ele>551.2</ele>
      </trkpt>
      <trkpt lat="47.48113" lon="8.1451">
        <ele>549.9</ele>
      </trkpt>
      <trkpt lat="47.48113" lon="8.14542">
        <ele>548.9</ele>
      </trkpt>
      <trkpt lat="47.48113" lon="8.14565">
        <ele>548.2</ele>
      </trkpt>
      <trkpt lat="47.48111" lon="8.14581">
        <ele>547.8</ele>
      </trkpt>
      <trkpt lat="47.48106" lon="8.14606">
        <ele>547</ele>
      </trkpt>
      <trkpt lat="47.48098" lon="8.14625">
        <ele>546.5</ele>
      </trkpt>
      <trkpt lat="47.48083" lon="8.14652">
        <ele>545.7</ele>
      </trkpt>
      <trkpt lat="47.48075" lon="8.14672">
        <ele>545.1</ele>
      </trkpt>
      <trkpt lat="47.48063" lon="8.14708">
        <ele>544.3</ele>
      </trkpt>
      <trkpt lat="47.48058" lon="8.14721">
        <ele>543.8</ele>
      </trkpt>
      <trkpt lat="47.48057" lon="8.14736">
        <ele>543.2</ele>
      </trkpt>
      <trkpt lat="47.48053" lon="8.14752">
        <ele>542.5</ele>
      </trkpt>
      <trkpt lat="47.48046" lon="8.14779">
        <ele>541</ele>
      </trkpt>
      <trkpt lat="47.48044" lon="8.14793">
        <ele>540.1</ele>
      </trkpt>
      <trkpt lat="47.48042" lon="8.14819">
        <ele>538.4</ele>
      </trkpt>
      <trkpt lat="47.4804" lon="8.14842">
        <ele>536.6</ele>
      </trkpt>
      <trkpt lat="47.4804" lon="8.14872">
        <ele>534.1</ele>
      </trkpt>
      <trkpt lat="47.48041" lon="8.14884">
        <ele>533.1</ele>
      </trkpt>
      <trkpt lat="47.48051" lon="8.14923">
        <ele>531.3</ele>
      </trkpt>
      <trkpt lat="47.48056" lon="8.14941">
        <ele>530.8</ele>
      </trkpt>
      <trkpt lat="47.48061" lon="8.1498">
        <ele>529.1</ele>
      </trkpt>
      <trkpt lat="47.48067" lon="8.15014">
        <ele>528.6</ele>
      </trkpt>
      <trkpt lat="47.48069" lon="8.15027">
        <ele>528.8</ele>
      </trkpt>
      <trkpt lat="47.48068" lon="8.15053">
        <ele>528.5</ele>
      </trkpt>
      <trkpt lat="47.48067" lon="8.1508">
        <ele>528.2</ele>
      </trkpt>
      <trkpt lat="47.48064" lon="8.15128">
        <ele>526.5</ele>
      </trkpt>
      <trkpt lat="47.48063" lon="8.15158">
        <ele>525.4</ele>
      </trkpt>
      <trkpt lat="47.48061" lon="8.1517">
        <ele>524.6</ele>
      </trkpt>
      <trkpt lat="47.4806" lon="8.1518">
        <ele>524</ele>
      </trkpt>
      <trkpt lat="47.4806" lon="8.15189">
        <ele>523.6</ele>
      </trkpt>
      <trkpt lat="47.48062" lon="8.15205">
        <ele>523.2</ele>
      </trkpt>
      <trkpt lat="47.48045" lon="8.15227">
        <ele>520.5</ele>
      </trkpt>
      <trkpt lat="47.48032" lon="8.15243">
        <ele>518.8</ele>
      </trkpt>
      <trkpt lat="47.48013" lon="8.15277">
        <ele>516.9</ele>
      </trkpt>
      <trkpt lat="47.48002" lon="8.15301">
        <ele>516.1</ele>
      </trkpt>
      <trkpt lat="47.47996" lon="8.15311">
        <ele>515.7</ele>
      </trkpt>
      <trkpt lat="47.47966" lon="8.15347">
        <ele>514</ele>
      </trkpt>
      <trkpt lat="47.47898" lon="8.15407">
        <ele>509.5</ele>
      </trkpt>
      <trkpt lat="47.47887" lon="8.15418">
        <ele>508</ele>
      </trkpt>
      <trkpt lat="47.47878" lon="8.1543">
        <ele>507</ele>
      </trkpt>
      <trkpt lat="47.47868" lon="8.15448">
        <ele>506</ele>
      </trkpt>
      <trkpt lat="47.47859" lon="8.15472">
        <ele>505.8</ele>
      </trkpt>
      <trkpt lat="47.47855" lon="8.15489">
        <ele>506.1</ele>
      </trkpt>
      <trkpt lat="47.47852" lon="8.15514">
        <ele>506.3</ele>
      </trkpt>
      <trkpt lat="47.47843" lon="8.15664">
        <ele>507.4</ele>
      </trkpt>
      <trkpt lat="47.4784" lon="8.15682">
        <ele>507.5</ele>
      </trkpt>
      <trkpt lat="47.47856" lon="8.15702">
        <ele>508.4</ele>
      </trkpt>
      <trkpt lat="47.47933" lon="8.15785">
        <ele>510.8</ele>
      </trkpt>
      <trkpt lat="47.47957" lon="8.15812">
        <ele>510.5</ele>
      </trkpt>
      <trkpt lat="47.47968" lon="8.15817">
        <ele>510.4</ele>
      </trkpt>
      <trkpt lat="47.4801" lon="8.15842">
        <ele>509.7</ele>
      </trkpt>
      <trkpt lat="47.48034" lon="8.15852">
        <ele>509</ele>
      </trkpt>
      <trkpt lat="47.48031" lon="8.15867">
        <ele>509.3</ele>
      </trkpt>
      <trkpt lat="47.48023" lon="8.15927">
        <ele>510.4</ele>
      </trkpt>
      <trkpt lat="47.48027" lon="8.15932">
        <ele>510.5</ele>
      </trkpt>
      <trkpt lat="47.48019" lon="8.16002">
        <ele>512.6</ele>
      </trkpt>
      <trkpt lat="47.48015" lon="8.1604">
        <ele>513.2</ele>
      </trkpt>
      <trkpt lat="47.48012" lon="8.16069">
        <ele>513.7</ele>
      </trkpt>
      <trkpt lat="47.4801" lon="8.16099">
        <ele>513.6</ele>
      </trkpt>
      <trkpt lat="47.48009" lon="8.16123">
        <ele>513</ele>
      </trkpt>
      <trkpt lat="47.48005" lon="8.16289">
        <ele>505.3</ele>
      </trkpt>
      <trkpt lat="47.48006" lon="8.16313">
        <ele>504.3</ele>
      </trkpt>
      <trkpt lat="47.48009" lon="8.16337">
        <ele>503.1</ele>
      </trkpt>
      <trkpt lat="47.48021" lon="8.16414">
        <ele>498.7</ele>
      </trkpt>
      <trkpt lat="47.48035" lon="8.16496">
        <ele>497.4</ele>
      </trkpt>
      <trkpt lat="47.48053" lon="8.16608">
        <ele>494.4</ele>
      </trkpt>
      <trkpt lat="47.48055" lon="8.16624">
        <ele>494</ele>
      </trkpt>
      <trkpt lat="47.48057" lon="8.16635">
        <ele>493.8</ele>
      </trkpt>
      <trkpt lat="47.48061" lon="8.16665">
        <ele>493.2</ele>
      </trkpt>
      <trkpt lat="47.48062" lon="8.16675">
        <ele>493.2</ele>
      </trkpt>
      <trkpt lat="47.48061" lon="8.16687">
        <ele>493</ele>
      </trkpt>
      <trkpt lat="47.48054" lon="8.16713">
        <ele>491.7</ele>
      </trkpt>
      <trkpt lat="47.4805" lon="8.16734">
        <ele>490.9</ele>
      </trkpt>
      <trkpt lat="47.4805" lon="8.16748">
        <ele>490.6</ele>
      </trkpt>
      <trkpt lat="47.4805" lon="8.16755">
        <ele>489.9</ele>
      </trkpt>
      <trkpt lat="47.48055" lon="8.1677">
        <ele>488.9</ele>
      </trkpt>
      <trkpt lat="47.48061" lon="8.16779">
        <ele>488.4</ele>
      </trkpt>
      <trkpt lat="47.48068" lon="8.16787">
        <ele>488.6</ele>
      </trkpt>
      <trkpt lat="47.48077" lon="8.16794">
        <ele>489</ele>
      </trkpt>
      <trkpt lat="47.48089" lon="8.16804">
        <ele>489.2</ele>
      </trkpt>
      <trkpt lat="47.48096" lon="8.16812">
        <ele>488.9</ele>
      </trkpt>
      <trkpt lat="47.48104" lon="8.16823">
        <ele>488.2</ele>
      </trkpt>
      <trkpt lat="47.48109" lon="8.16832">
        <ele>487.6</ele>
      </trkpt>
      <trkpt lat="47.48117" lon="8.16852">
        <ele>486</ele>
      </trkpt>
      <trkpt lat="47.48121" lon="8.16864">
        <ele>485.1</ele>
      </trkpt>
      <trkpt lat="47.48122" lon="8.16872">
        <ele>484.1</ele>
      </trkpt>
      <trkpt lat="47.48123" lon="8.16879">
        <ele>483.3</ele>
      </trkpt>
      <trkpt lat="47.48123" lon="8.16889">
        <ele>482.1</ele>
      </trkpt>
      <trkpt lat="47.48121" lon="8.16922">
        <ele>477.8</ele>
      </trkpt>
      <trkpt lat="47.48121" lon="8.16933">
        <ele>476.8</ele>
      </trkpt>
      <trkpt lat="47.48121" lon="8.16942">
        <ele>476</ele>
      </trkpt>
      <trkpt lat="47.48123" lon="8.16951">
        <ele>475.5</ele>
      </trkpt>
      <trkpt lat="47.48129" lon="8.16977">
        <ele>474.3</ele>
      </trkpt>
      <trkpt lat="47.48143" lon="8.17035">
        <ele>472.4</ele>
      </trkpt>
      <trkpt lat="47.48156" lon="8.17087">
        <ele>470.5</ele>
      </trkpt>
      <trkpt lat="47.48177" lon="8.17171">
        <ele>468.9</ele>
      </trkpt>
      <trkpt lat="47.48184" lon="8.17191">
        <ele>469.5</ele>
      </trkpt>
      <trkpt lat="47.48195" lon="8.17194">
        <ele>470.6</ele>
      </trkpt>
      <trkpt lat="47.48186" lon="8.17284">
        <ele>468.9</ele>
      </trkpt>
      <trkpt lat="47.48188" lon="8.17316">
        <ele>468.2</ele>
      </trkpt>
      <trkpt lat="47.48204" lon="8.17418">
        <ele>462.5</ele>
      </trkpt>
      <trkpt lat="47.4821" lon="8.17435">
        <ele>461.6</ele>
      </trkpt>
      <trkpt lat="47.48211" lon="8.17449">
        <ele>460.5</ele>
      </trkpt>
      <trkpt lat="47.48213" lon="8.17458">
        <ele>459.9</ele>
      </trkpt>
      <trkpt lat="47.48229" lon="8.17485">
        <ele>458.8</ele>
      </trkpt>
      <trkpt lat="47.48233" lon="8.17495">
        <ele>458.3</ele>
      </trkpt>
      <trkpt lat="47.48236" lon="8.17507">
        <ele>457.4</ele>
      </trkpt>
      <trkpt lat="47.48238" lon="8.17522">
        <ele>456.4</ele>
      </trkpt>
      <trkpt lat="47.48239" lon="8.17536">
        <ele>455.4</ele>
      </trkpt>
      <trkpt lat="47.48253" lon="8.17559">
        <ele>455</ele>
      </trkpt>
      <trkpt lat="47.48282" lon="8.17593">
        <ele>455.6</ele>
      </trkpt>
      <trkpt lat="47.4831" lon="8.17616">
        <ele>457.3</ele>
      </trkpt>
      <trkpt lat="47.48347" lon="8.17636">
        <ele>460.7</ele>
      </trkpt>
      <trkpt lat="47.48345" lon="8.17645">
        <ele>460.1</ele>
      </trkpt>
      <trkpt lat="47.48355" lon="8.17658">
        <ele>460.7</ele>
      </trkpt>
      <trkpt lat="47.48361" lon="8.17673">
        <ele>460.9</ele>
      </trkpt>
      <trkpt lat="47.48364" lon="8.17687">
        <ele>461.1</ele>
      </trkpt>
      <trkpt lat="47.48366" lon="8.17708">
        <ele>460.9</ele>
      </trkpt>
      <trkpt lat="47.48367" lon="8.17719">
        <ele>460.9</ele>
      </trkpt>
      <trkpt lat="47.48368" lon="8.17736">
        <ele>460.7</ele>
      </trkpt>
      <trkpt lat="47.48367" lon="8.17759">
        <ele>460.4</ele>
      </trkpt>
      <trkpt lat="47.48365" lon="8.17778">
        <ele>460.2</ele>
      </trkpt>
      <trkpt lat="47.48358" lon="8.17818">
        <ele>459.5</ele>
      </trkpt>
      <trkpt lat="47.48353" lon="8.17846">
        <ele>458.4</ele>
      </trkpt>
      <trkpt lat="47.4835" lon="8.1787">
        <ele>457</ele>
      </trkpt>
      <trkpt lat="47.48348" lon="8.17892">
        <ele>455.8</ele>
      </trkpt>
      <trkpt lat="47.48345" lon="8.17969">
        <ele>451.3</ele>
      </trkpt>
      <trkpt lat="47.48345" lon="8.18025">
        <ele>447.8</ele>
      </trkpt>
      <trkpt lat="47.48346" lon="8.1805">
        <ele>446.1</ele>
      </trkpt>
      <trkpt lat="47.48347" lon="8.18068">
        <ele>444.8</ele>
      </trkpt>
      <trkpt lat="47.48346" lon="8.18084">
        <ele>443.6</ele>
      </trkpt>
      <trkpt lat="47.48344" lon="8.18108">
        <ele>440.7</ele>
      </trkpt>
      <trkpt lat="47.48344" lon="8.18124">
        <ele>438.9</ele>
      </trkpt>
      <trkpt lat="47.48345" lon="8.18143">
        <ele>436.9</ele>
      </trkpt>
      <trkpt lat="47.48348" lon="8.18163">
        <ele>435.1</ele>
      </trkpt>
      <trkpt lat="47.48359" lon="8.18207">
        <ele>428.9</ele>
      </trkpt>
      <trkpt lat="47.48365" lon="8.18232">
        <ele>425.3</ele>
      </trkpt>
      <trkpt lat="47.4837" lon="8.18244">
        <ele>423.8</ele>
      </trkpt>
      <trkpt lat="47.4838" lon="8.18267">
        <ele>421.8</ele>
      </trkpt>
      <trkpt lat="47.48384" lon="8.18277">
        <ele>420.9</ele>
      </trkpt>
      <trkpt lat="47.48387" lon="8.1829">
        <ele>419.5</ele>
      </trkpt>
      <trkpt lat="47.48398" lon="8.18336">
        <ele>414.1</ele>
      </trkpt>
      <trkpt lat="47.48404" lon="8.18371">
        <ele>410.9</ele>
      </trkpt>
      <trkpt lat="47.48414" lon="8.18439">
        <ele>405.7</ele>
      </trkpt>
      <trkpt lat="47.48416" lon="8.18456">
        <ele>405</ele>
      </trkpt>
      <trkpt lat="47.48419" lon="8.1849">
        <ele>403.4</ele>
      </trkpt>
      <trkpt lat="47.48429" lon="8.1857">
        <ele>398.1</ele>
      </trkpt>
      <trkpt lat="47.48433" lon="8.18653">
        <ele>395.5</ele>
      </trkpt>
      <trkpt lat="47.48411" lon="8.18663">
        <ele>394.2</ele>
      </trkpt>
      <trkpt lat="47.48412" lon="8.18671">
        <ele>394.2</ele>
      </trkpt>
      <trkpt lat="47.4841" lon="8.18683">
        <ele>394</ele>
      </trkpt>
      <trkpt lat="47.48408" lon="8.18698">
        <ele>393.6</ele>
      </trkpt>
      <trkpt lat="47.48405" lon="8.18723">
        <ele>392.9</ele>
      </trkpt>
      <trkpt lat="47.48402" lon="8.18748">
        <ele>392.3</ele>
      </trkpt>
      <trkpt lat="47.48402" lon="8.1877">
        <ele>391.6</ele>
      </trkpt>
      <trkpt lat="47.48405" lon="8.18806">
        <ele>391.2</ele>
      </trkpt>
      <trkpt lat="47.4841" lon="8.18833">
        <ele>391.4</ele>
      </trkpt>
      <trkpt lat="47.48418" lon="8.18875">
        <ele>391</ele>
      </trkpt>
      <trkpt lat="47.48422" lon="8.18894">
        <ele>390.4</ele>
      </trkpt>
      <trkpt lat="47.48428" lon="8.18919">
        <ele>389.9</ele>
      </trkpt>
      <trkpt lat="47.48446" lon="8.18979">
        <ele>389.5</ele>
      </trkpt>
      <trkpt lat="47.48465" lon="8.19044">
        <ele>392.2</ele>
      </trkpt>
      <trkpt lat="47.48471" lon="8.19056">
        <ele>393.5</ele>
      </trkpt>
      <trkpt lat="47.48492" lon="8.19069">
        <ele>399.4</ele>
      </trkpt>
      <trkpt lat="47.48512" lon="8.19092">
        <ele>402.1</ele>
      </trkpt>
      <trkpt lat="47.48532" lon="8.19136">
        <ele>401.5</ele>
      </trkpt>
      <trkpt lat="47.4854" lon="8.1917">
        <ele>401.1</ele>
      </trkpt>
      <trkpt lat="47.48553" lon="8.19252">
        <ele>401.6</ele>
      </trkpt>
      <trkpt lat="47.48557" lon="8.19291">
        <ele>402.8</ele>
      </trkpt>
      <trkpt lat="47.48575" lon="8.19381">
        <ele>408.5</ele>
      </trkpt>
      <trkpt lat="47.48586" lon="8.19425">
        <ele>411.8</ele>
      </trkpt>
      <trkpt lat="47.48593" lon="8.19455">
        <ele>410.9</ele>
      </trkpt>
      <trkpt lat="47.48601" lon="8.19467">
        <ele>411.5</ele>
      </trkpt>
      <trkpt lat="47.4862" lon="8.1952">
        <ele>413</ele>
      </trkpt>
      <trkpt lat="47.48625" lon="8.19574">
        <ele>411.8</ele>
      </trkpt>
      <trkpt lat="47.48626" lon="8.19597">
        <ele>411.9</ele>
      </trkpt>
      <trkpt lat="47.48631" lon="8.19662">
        <ele>413.9</ele>
      </trkpt>
      <trkpt lat="47.48634" lon="8.19717">
        <ele>413.3</ele>
      </trkpt>
      <trkpt lat="47.48635" lon="8.19724">
        <ele>413.4</ele>
      </trkpt>
      <trkpt lat="47.48636" lon="8.19745">
        <ele>413</ele>
      </trkpt>
      <trkpt lat="47.48639" lon="8.19792">
        <ele>410</ele>
      </trkpt>
      <trkpt lat="47.48643" lon="8.19833">
        <ele>407.3</ele>
      </trkpt>
      <trkpt lat="47.48652" lon="8.19859">
        <ele>409.2</ele>
      </trkpt>
      <trkpt lat="47.4866" lon="8.19883">
        <ele>410.9</ele>
      </trkpt>
      <trkpt lat="47.48675" lon="8.19939">
        <ele>410.1</ele>
      </trkpt>
      <trkpt lat="47.48681" lon="8.19951">
        <ele>409.5</ele>
      </trkpt>
      <trkpt lat="47.48686" lon="8.19948">
        <ele>410.4</ele>
      </trkpt>
      <trkpt lat="47.48702" lon="8.19944">
        <ele>412.4</ele>
      </trkpt>
      <trkpt lat="47.48721" lon="8.1994">
        <ele>414.4</ele>
      </trkpt>
      <trkpt lat="47.48734" lon="8.19943">
        <ele>415.7</ele>
      </trkpt>
      <trkpt lat="47.48749" lon="8.19954">
        <ele>417.6</ele>
      </trkpt>
      <trkpt lat="47.48772" lon="8.19981">
        <ele>417</ele>
      </trkpt>
      <trkpt lat="47.48776" lon="8.19994">
        <ele>416.8</ele>
      </trkpt>
      <trkpt lat="47.4879" lon="8.20037">
        <ele>416.4</ele>
      </trkpt>
      <trkpt lat="47.48776" lon="8.2011">
        <ele>418.5</ele>
      </trkpt>
      <trkpt lat="47.48763" lon="8.20191">
        <ele>414</ele>
      </trkpt>
      <trkpt lat="47.48761" lon="8.20215">
        <ele>411.2</ele>
      </trkpt>
      <trkpt lat="47.48762" lon="8.20233">
        <ele>409.4</ele>
      </trkpt>
      <trkpt lat="47.48771" lon="8.20273">
        <ele>406.9</ele>
      </trkpt>
      <trkpt lat="47.48772" lon="8.20277">
        <ele>406.8</ele>
      </trkpt>
      <trkpt lat="47.48784" lon="8.20328">
        <ele>404.7</ele>
      </trkpt>
      <trkpt lat="47.48787" lon="8.20354">
        <ele>403.6</ele>
      </trkpt>
      <trkpt lat="47.48791" lon="8.20365">
        <ele>404</ele>
      </trkpt>
      <trkpt lat="47.48794" lon="8.20372">
        <ele>404.4</ele>
      </trkpt>
      <trkpt lat="47.488" lon="8.20383">
        <ele>405.8</ele>
      </trkpt>
      <trkpt lat="47.48808" lon="8.20395">
        <ele>407.8</ele>
      </trkpt>
      <trkpt lat="47.48813" lon="8.20409">
        <ele>408.9</ele>
      </trkpt>
      <trkpt lat="47.48816" lon="8.20426">
        <ele>409</ele>
      </trkpt>
      <trkpt lat="47.4882" lon="8.20439">
        <ele>409.8</ele>
      </trkpt>
      <trkpt lat="47.48821" lon="8.20449">
        <ele>409.8</ele>
      </trkpt>
      <trkpt lat="47.48823" lon="8.20476">
        <ele>409.9</ele>
      </trkpt>
      <trkpt lat="47.48828" lon="8.2052">
        <ele>410.4</ele>
      </trkpt>
      <trkpt lat="47.48832" lon="8.20542">
        <ele>411.5</ele>
      </trkpt>
      <trkpt lat="47.48834" lon="8.20558">
        <ele>411.4</ele>
      </trkpt>
      <trkpt lat="47.48841" lon="8.20599">
        <ele>409.8</ele>
      </trkpt>
      <trkpt lat="47.48848" lon="8.20633">
        <ele>407.4</ele>
      </trkpt>
      <trkpt lat="47.48855" lon="8.20667">
        <ele>405.5</ele>
      </trkpt>
      <trkpt lat="47.48887" lon="8.20693">
        <ele>410.7</ele>
      </trkpt>
      <trkpt lat="47.48898" lon="8.2072">
        <ele>412.3</ele>
      </trkpt>
      <trkpt lat="47.48927" lon="8.20734">
        <ele>418.3</ele>
      </trkpt>
      <trkpt lat="47.48959" lon="8.20755">
        <ele>421.6</ele>
      </trkpt>
      <trkpt lat="47.48933" lon="8.20772">
        <ele>419.6</ele>
      </trkpt>
      <trkpt lat="47.4891" lon="8.20799">
        <ele>416.7</ele>
      </trkpt>
      <trkpt lat="47.48891" lon="8.2085">
        <ele>410.2</ele>
      </trkpt>
      <trkpt lat="47.4888" lon="8.20887">
        <ele>404.4</ele>
      </trkpt>
      <trkpt lat="47.48869" lon="8.20899">
        <ele>399</ele>
      </trkpt>
      <trkpt lat="47.48857" lon="8.20902">
        <ele>392.8</ele>
      </trkpt>
      <trkpt lat="47.48846" lon="8.20901">
        <ele>387.2</ele>
      </trkpt>
      <trkpt lat="47.48839" lon="8.20897">
        <ele>384.1</ele>
      </trkpt>
      <trkpt lat="47.48833" lon="8.20888">
        <ele>382.1</ele>
      </trkpt>
      <trkpt lat="47.48794" lon="8.20775">
        <ele>374.8</ele>
      </trkpt>
      <trkpt lat="47.48785" lon="8.20756">
        <ele>372.3</ele>
      </trkpt>
      <trkpt lat="47.48777" lon="8.20745">
        <ele>370</ele>
      </trkpt>
      <trkpt lat="47.48766" lon="8.20738">
        <ele>366.1</ele>
      </trkpt>
      <trkpt lat="47.48748" lon="8.20736">
        <ele>359.7</ele>
      </trkpt>
      <trkpt lat="47.48711" lon="8.20737">
        <ele>352.9</ele>
      </trkpt>
      <trkpt lat="47.48702" lon="8.20742">
        <ele>351.2</ele>
      </trkpt>
      <trkpt lat="47.48698" lon="8.2073">
        <ele>350.8</ele>
      </trkpt>
      <trkpt lat="47.48696" lon="8.20702">
        <ele>351.2</ele>
      </trkpt>
      <trkpt lat="47.48693" lon="8.20656">
        <ele>351.7</ele>
      </trkpt>
      <trkpt lat="47.48675" lon="8.2066">
        <ele>347</ele>
      </trkpt>
      <trkpt lat="47.48672" lon="8.20647">
        <ele>346.5</ele>
      </trkpt>
      <trkpt lat="47.48645" lon="8.20643">
        <ele>346.1</ele>
      </trkpt>
      <trkpt lat="47.48639" lon="8.20686">
        <ele>346.2</ele>
      </trkpt>
      <trkpt lat="47.48633" lon="8.20684">
        <ele>346.5</ele>
      </trkpt>
      <trkpt lat="47.48626" lon="8.20683">
        <ele>346.8</ele>
      </trkpt>
      <trkpt lat="47.48601" lon="8.20679">
        <ele>347.9</ele>
      </trkpt>
      <trkpt lat="47.48593" lon="8.2068">
        <ele>348.3</ele>
      </trkpt>
      <trkpt lat="47.48589" lon="8.20681">
        <ele>348.4</ele>
      </trkpt>
      <trkpt lat="47.48587" lon="8.20683">
        <ele>348.5</ele>
      </trkpt>
      <trkpt lat="47.48578" lon="8.20703">
        <ele>348.4</ele>
      </trkpt>
      <trkpt lat="47.48575" lon="8.20709">
        <ele>348.6</ele>
      </trkpt>
      <trkpt lat="47.48572" lon="8.2071">
        <ele>348.7</ele>
      </trkpt>
      <trkpt lat="47.48568" lon="8.20711">
        <ele>348.9</ele>
      </trkpt>
      <trkpt lat="47.48564" lon="8.20711">
        <ele>349.2</ele>
      </trkpt>
      <trkpt lat="47.48549" lon="8.20704">
        <ele>350.4</ele>
      </trkpt>
      <trkpt lat="47.4853" lon="8.20694">
        <ele>351.8</ele>
      </trkpt>
      <trkpt lat="47.48505" lon="8.20685">
        <ele>353.5</ele>
      </trkpt>
      <trkpt lat="47.48498" lon="8.20685">
        <ele>353.8</ele>
      </trkpt>
      <trkpt lat="47.48474" lon="8.20688">
        <ele>353.5</ele>
      </trkpt>
      <trkpt lat="47.48445" lon="8.20699">
        <ele>353.2</ele>
      </trkpt>
      <trkpt lat="47.48428" lon="8.20706">
        <ele>353.1</ele>
      </trkpt>
      <trkpt lat="47.48419" lon="8.20707">
        <ele>353</ele>
      </trkpt>
      <trkpt lat="47.48417" lon="8.20712">
        <ele>353</ele>
      </trkpt>
      <trkpt lat="47.48415" lon="8.20714">
        <ele>353</ele>
      </trkpt>
      <trkpt lat="47.48407" lon="8.20719">
        <ele>353.2</ele>
      </trkpt>
      <trkpt lat="47.48382" lon="8.2073">
        <ele>353.8</ele>
      </trkpt>
      <trkpt lat="47.4833" lon="8.20757">
        <ele>355</ele>
      </trkpt>
      <trkpt lat="47.48322" lon="8.20769">
        <ele>355</ele>
      </trkpt>
      <trkpt lat="47.48317" lon="8.20783">
        <ele>355.1</ele>
      </trkpt>
      <trkpt lat="47.48306" lon="8.20793">
        <ele>355.2</ele>
      </trkpt>
      <trkpt lat="47.48288" lon="8.2081">
        <ele>355.4</ele>
      </trkpt>
      <trkpt lat="47.48264" lon="8.20834">
        <ele>355.8</ele>
      </trkpt>
      <trkpt lat="47.48255" lon="8.20843">
        <ele>356.3</ele>
      </trkpt>
      <trkpt lat="47.48237" lon="8.20862">
        <ele>357.2</ele>
      </trkpt>
      <trkpt lat="47.48229" lon="8.20871">
        <ele>357.6</ele>
      </trkpt>
      <trkpt lat="47.48205" lon="8.20902">
        <ele>359</ele>
      </trkpt>
      <trkpt lat="47.48184" lon="8.20901">
        <ele>359.2</ele>
      </trkpt>
      <trkpt lat="47.48168" lon="8.20906">
        <ele>359.6</ele>
      </trkpt>
      <trkpt lat="47.48162" lon="8.20908">
        <ele>359.3</ele>
      </trkpt>
      <trkpt lat="47.48119" lon="8.20869">
        <ele>355.6</ele>
      </trkpt>
      <trkpt lat="47.48104" lon="8.20856">
        <ele>354.7</ele>
      </trkpt>
      <trkpt lat="47.48097" lon="8.2085">
        <ele>354.4</ele>
      </trkpt>
      <trkpt lat="47.48104" lon="8.20856">
        <ele>354.7</ele>
      </trkpt>
      <trkpt lat="47.48119" lon="8.20869">
        <ele>355.6</ele>
      </trkpt>
      <trkpt lat="47.48162" lon="8.20908">
        <ele>359.3</ele>
      </trkpt>
      <trkpt lat="47.48168" lon="8.20906">
        <ele>359.6</ele>
      </trkpt>
      <trkpt lat="47.48184" lon="8.20901">
        <ele>359.2</ele>
      </trkpt>
      <trkpt lat="47.48205" lon="8.20902">
        <ele>359</ele>
      </trkpt>
      <trkpt lat="47.48229" lon="8.20871">
        <ele>357.6</ele>
      </trkpt>
      <trkpt lat="47.48237" lon="8.20862">
        <ele>357.2</ele>
      </trkpt>
      <trkpt lat="47.48255" lon="8.20843">
        <ele>356.3</ele>
      </trkpt>
      <trkpt lat="47.48264" lon="8.20834">
        <ele>355.8</ele>
      </trkpt>
      <trkpt lat="47.48288" lon="8.2081">
        <ele>355.4</ele>
      </trkpt>
      <trkpt lat="47.48306" lon="8.20793">
        <ele>355.2</ele>
      </trkpt>
      <trkpt lat="47.48317" lon="8.20783">
        <ele>355.1</ele>
      </trkpt>
      <trkpt lat="47.48322" lon="8.20769">
        <ele>355</ele>
      </trkpt>
      <trkpt lat="47.4833" lon="8.20757">
        <ele>355</ele>
      </trkpt>
      <trkpt lat="47.48382" lon="8.2073">
        <ele>353.8</ele>
      </trkpt>
      <trkpt lat="47.48407" lon="8.20719">
        <ele>353.2</ele>
      </trkpt>
      <trkpt lat="47.48415" lon="8.20714">
        <ele>353</ele>
      </trkpt>
      <trkpt lat="47.48417" lon="8.20712">
        <ele>353</ele>
      </trkpt>
      <trkpt lat="47.48419" lon="8.20707">
        <ele>353</ele>
      </trkpt>
      <trkpt lat="47.48428" lon="8.20706">
        <ele>353.1</ele>
      </trkpt>
      <trkpt lat="47.48445" lon="8.20699">
        <ele>353.2</ele>
      </trkpt>
      <trkpt lat="47.48474" lon="8.20688">
        <ele>353.5</ele>
      </trkpt>
      <trkpt lat="47.48498" lon="8.20685">
        <ele>353.8</ele>
      </trkpt>
      <trkpt lat="47.48505" lon="8.20685">
        <ele>353.5</ele>
      </trkpt>
      <trkpt lat="47.4853" lon="8.20694">
        <ele>351.8</ele>
      </trkpt>
      <trkpt lat="47.48549" lon="8.20704">
        <ele>350.4</ele>
      </trkpt>
      <trkpt lat="47.48564" lon="8.20711">
        <ele>349.2</ele>
      </trkpt>
      <trkpt lat="47.48568" lon="8.20711">
        <ele>348.9</ele>
      </trkpt>
      <trkpt lat="47.48572" lon="8.2071">
        <ele>348.7</ele>
      </trkpt>
      <trkpt lat="47.48575" lon="8.20709">
        <ele>348.6</ele>
      </trkpt>
      <trkpt lat="47.48578" lon="8.20703">
        <ele>348.4</ele>
      </trkpt>
      <trkpt lat="47.48581" lon="8.20712">
        <ele>348.1</ele>
      </trkpt>
      <trkpt lat="47.4858" lon="8.20731">
        <ele>347.7</ele>
      </trkpt>
      <trkpt lat="47.48582" lon="8.20738">
        <ele>347.4</ele>
      </trkpt>
      <trkpt lat="47.48581" lon="8.20749">
        <ele>347.2</ele>
      </trkpt>
      <trkpt lat="47.48579" lon="8.20768">
        <ele>346.1</ele>
      </trkpt>
      <trkpt lat="47.48574" lon="8.20793">
        <ele>344.8</ele>
      </trkpt>
      <trkpt lat="47.4857" lon="8.2081">
        <ele>344</ele>
      </trkpt>
      <trkpt lat="47.48562" lon="8.20821">
        <ele>344.1</ele>
      </trkpt>
      <trkpt lat="47.48557" lon="8.20827">
        <ele>344.2</ele>
      </trkpt>
      <trkpt lat="47.48547" lon="8.20832">
        <ele>345</ele>
      </trkpt>
      <trkpt lat="47.48547" lon="8.2084">
        <ele>344.6</ele>
      </trkpt>
      <trkpt lat="47.48538" lon="8.20864">
        <ele>344.5</ele>
      </trkpt>
      <trkpt lat="47.48531" lon="8.20885">
        <ele>344.5</ele>
      </trkpt>
      <trkpt lat="47.48525" lon="8.2089">
        <ele>345.2</ele>
      </trkpt>
      <trkpt lat="47.48536" lon="8.20909">
        <ele>342.7</ele>
      </trkpt>
      <trkpt lat="47.48544" lon="8.20926">
        <ele>341.1</ele>
      </trkpt>
      <trkpt lat="47.48546" lon="8.20937">
        <ele>340.7</ele>
      </trkpt>
      <trkpt lat="47.48545" lon="8.20947">
        <ele>340.8</ele>
      </trkpt>
      <trkpt lat="47.4851" lon="8.21089">
        <ele>343.6</ele>
      </trkpt>
      <trkpt lat="47.48506" lon="8.21185">
        <ele>341.4</ele>
      </trkpt>
      <trkpt lat="47.48506" lon="8.21204">
        <ele>341.4</ele>
      </trkpt>
      <trkpt lat="47.48493" lon="8.21302">
        <ele>338.9</ele>
      </trkpt>
      <trkpt lat="47.48492" lon="8.21322">
        <ele>337.7</ele>
      </trkpt>
      <trkpt lat="47.4849" lon="8.21351">
        <ele>336.5</ele>
      </trkpt>
      <trkpt lat="47.48486" lon="8.21397">
        <ele>334.9</ele>
      </trkpt>
      <trkpt lat="47.48479" lon="8.21446">
        <ele>334.3</ele>
      </trkpt>
      <trkpt lat="47.48473" lon="8.21465">
        <ele>334.5</ele>
      </trkpt>
      <trkpt lat="47.48463" lon="8.2147">
        <ele>334.7</ele>
      </trkpt>
      <trkpt lat="47.48465" lon="8.21506">
        <ele>334.8</ele>
      </trkpt>
      <trkpt lat="47.48469" lon="8.21538">
        <ele>334.7</ele>
      </trkpt>
      <trkpt lat="47.48469" lon="8.21546">
        <ele>334.8</ele>
      </trkpt>
      <trkpt lat="47.48468" lon="8.21563">
        <ele>334.8</ele>
      </trkpt>
      <trkpt lat="47.48463" lon="8.21596">
        <ele>335</ele>
      </trkpt>
      <trkpt lat="47.48459" lon="8.21624">
        <ele>335.5</ele>
      </trkpt>
      <trkpt lat="47.48448" lon="8.21655">
        <ele>336.1</ele>
      </trkpt>
      <trkpt lat="47.48434" lon="8.21681">
        <ele>336.6</ele>
      </trkpt>
      <trkpt lat="47.48423" lon="8.21702">
        <ele>336.8</ele>
      </trkpt>
      <trkpt lat="47.48414" lon="8.2172">
        <ele>337.3</ele>
      </trkpt>
      <trkpt lat="47.48405" lon="8.21751">
        <ele>338.3</ele>
      </trkpt>
      <trkpt lat="47.48402" lon="8.21785">
        <ele>338.5</ele>
      </trkpt>
      <trkpt lat="47.48403" lon="8.21795">
        <ele>338.3</ele>
      </trkpt>
      <trkpt lat="47.48406" lon="8.21807">
        <ele>337.9</ele>
      </trkpt>
      <trkpt lat="47.48417" lon="8.21853">
        <ele>336</ele>
      </trkpt>
      <trkpt lat="47.48425" lon="8.21889">
        <ele>335.8</ele>
      </trkpt>
      <trkpt lat="47.48428" lon="8.21926">
        <ele>335.7</ele>
      </trkpt>
      <trkpt lat="47.4843" lon="8.21977">
        <ele>335.1</ele>
      </trkpt>
      <trkpt lat="47.48436" lon="8.22019">
        <ele>336.1</ele>
      </trkpt>
      <trkpt lat="47.48444" lon="8.22071">
        <ele>338.2</ele>
      </trkpt>
      <trkpt lat="47.48451" lon="8.22111">
        <ele>337.8</ele>
      </trkpt>
      <trkpt lat="47.48458" lon="8.22147">
        <ele>336.9</ele>
      </trkpt>
      <trkpt lat="47.48465" lon="8.22179">
        <ele>336.2</ele>
      </trkpt>
      <trkpt lat="47.48434" lon="8.22243">
        <ele>336.7</ele>
      </trkpt>
      <trkpt lat="47.48404" lon="8.22284">
        <ele>337.5</ele>
      </trkpt>
      <trkpt lat="47.48408" lon="8.22314">
        <ele>337.1</ele>
      </trkpt>
      <trkpt lat="47.48415" lon="8.22365">
        <ele>337.4</ele>
      </trkpt>
      <trkpt lat="47.48419" lon="8.22399">
        <ele>337.8</ele>
      </trkpt>
      <trkpt lat="47.48428" lon="8.2246">
        <ele>338.7</ele>
      </trkpt>
      <trkpt lat="47.48438" lon="8.22527">
        <ele>339.4</ele>
      </trkpt>
      <trkpt lat="47.48451" lon="8.22582">
        <ele>339.4</ele>
      </trkpt>
      <trkpt lat="47.48447" lon="8.22583">
        <ele>339.4</ele>
      </trkpt>
      <trkpt lat="47.48431" lon="8.2259">
        <ele>339.1</ele>
      </trkpt>
      <trkpt lat="47.48399" lon="8.22602">
        <ele>338.9</ele>
      </trkpt>
      <trkpt lat="47.48391" lon="8.22604">
        <ele>338.9</ele>
      </trkpt>
      <trkpt lat="47.48384" lon="8.22607">
        <ele>338.9</ele>
      </trkpt>
      <trkpt lat="47.48349" lon="8.22632">
        <ele>339.4</ele>
      </trkpt>
      <trkpt lat="47.48315" lon="8.22668">
        <ele>341.1</ele>
      </trkpt>
      <trkpt lat="47.48297" lon="8.22687">
        <ele>341.5</ele>
      </trkpt>
      <trkpt lat="47.4829" lon="8.22692">
        <ele>341.7</ele>
      </trkpt>
      <trkpt lat="47.48284" lon="8.22693">
        <ele>341.9</ele>
      </trkpt>
      <trkpt lat="47.48278" lon="8.22697">
        <ele>342</ele>
      </trkpt>
      <trkpt lat="47.4827" lon="8.22704">
        <ele>342</ele>
      </trkpt>
      <trkpt lat="47.48248" lon="8.22723">
        <ele>341.5</ele>
      </trkpt>
      <trkpt lat="47.4822" lon="8.22754">
        <ele>337.7</ele>
      </trkpt>
      <trkpt lat="47.48213" lon="8.22763">
        <ele>337</ele>
      </trkpt>
      <trkpt lat="47.48202" lon="8.2277">
        <ele>336.1</ele>
      </trkpt>
      <trkpt lat="47.48196" lon="8.22771">
        <ele>335.7</ele>
      </trkpt>
      <trkpt lat="47.48191" lon="8.22773">
        <ele>335.3</ele>
      </trkpt>
      <trkpt lat="47.48176" lon="8.22772">
        <ele>334.4</ele>
      </trkpt>
      <trkpt lat="47.48174" lon="8.22774">
        <ele>334.2</ele>
      </trkpt>
      <trkpt lat="47.48172" lon="8.22775">
        <ele>334</ele>
      </trkpt>
      <trkpt lat="47.48169" lon="8.22782">
        <ele>333.8</ele>
      </trkpt>
      <trkpt lat="47.48168" lon="8.2287">
        <ele>332.2</ele>
      </trkpt>
      <trkpt lat="47.48168" lon="8.22888">
        <ele>331.7</ele>
      </trkpt>
      <trkpt lat="47.48155" lon="8.22892">
        <ele>331.8</ele>
      </trkpt>
      <trkpt lat="47.4815" lon="8.22893">
        <ele>331.9</ele>
      </trkpt>
      <trkpt lat="47.48148" lon="8.22927">
        <ele>331.7</ele>
      </trkpt>
      <trkpt lat="47.48146" lon="8.22927">
        <ele>331.8</ele>
      </trkpt>
      <trkpt lat="47.48124" lon="8.22929">
        <ele>332.5</ele>
      </trkpt>
      <trkpt lat="47.4812" lon="8.22933">
        <ele>332.7</ele>
      </trkpt>
      <trkpt lat="47.48097" lon="8.23004">
        <ele>332.8</ele>
      </trkpt>
      <trkpt lat="47.48089" lon="8.23">
        <ele>332.9</ele>
      </trkpt>
      <trkpt lat="47.48019" lon="8.22963">
        <ele>337</ele>
      </trkpt>
      <trkpt lat="47.47985" lon="8.23109">
        <ele>340.7</ele>
      </trkpt>
      <trkpt lat="47.47972" lon="8.23192">
        <ele>342</ele>
      </trkpt>
      <trkpt lat="47.47974" lon="8.23214">
        <ele>342.7</ele>
      </trkpt>
      <trkpt lat="47.4798" lon="8.23245">
        <ele>343.6</ele>
      </trkpt>
      <trkpt lat="47.47998" lon="8.23311">
        <ele>344.2</ele>
      </trkpt>
      <trkpt lat="47.48011" lon="8.23347">
        <ele>343</ele>
      </trkpt>
      <trkpt lat="47.48034" lon="8.23393">
        <ele>340.7</ele>
      </trkpt>
      <trkpt lat="47.48047" lon="8.23429">
        <ele>340</ele>
      </trkpt>
      <trkpt lat="47.48051" lon="8.23457">
        <ele>341.4</ele>
      </trkpt>
      <trkpt lat="47.48048" lon="8.2346">
        <ele>342.1</ele>
      </trkpt>
      <trkpt lat="47.48053" lon="8.23474">
        <ele>342.3</ele>
      </trkpt>
      <trkpt lat="47.48055" lon="8.23482">
        <ele>342.5</ele>
      </trkpt>
      <trkpt lat="47.48057" lon="8.235">
        <ele>343.4</ele>
      </trkpt>
      <trkpt lat="47.48059" lon="8.2351">
        <ele>343.7</ele>
      </trkpt>
      <trkpt lat="47.48054" lon="8.23512">
        <ele>344.6</ele>
      </trkpt>
      <trkpt lat="47.48049" lon="8.23514">
        <ele>345.6</ele>
      </trkpt>
      <trkpt lat="47.48048" lon="8.23519">
        <ele>346</ele>
      </trkpt>
      <trkpt lat="47.48046" lon="8.2352">
        <ele>346.4</ele>
      </trkpt>
      <trkpt lat="47.48014" lon="8.23532">
        <ele>352.9</ele>
      </trkpt>
      <trkpt lat="47.4801" lon="8.23531">
        <ele>353.5</ele>
      </trkpt>
      <trkpt lat="47.47999" lon="8.23517">
        <ele>354.4</ele>
      </trkpt>
      <trkpt lat="47.47991" lon="8.235">
        <ele>355.1</ele>
      </trkpt>
      <trkpt lat="47.47985" lon="8.23498">
        <ele>356.5</ele>
      </trkpt>
      <trkpt lat="47.47981" lon="8.23504">
        <ele>357.9</ele>
      </trkpt>
      <trkpt lat="47.47983" lon="8.23551">
        <ele>360.5</ele>
      </trkpt>
      <trkpt lat="47.4798" lon="8.23582">
        <ele>363.4</ele>
      </trkpt>
      <trkpt lat="47.47977" lon="8.23616">
        <ele>366.4</ele>
      </trkpt>
      <trkpt lat="47.47977" lon="8.23634">
        <ele>367.7</ele>
      </trkpt>
      <trkpt lat="47.47976" lon="8.23651">
        <ele>369</ele>
      </trkpt>
      <trkpt lat="47.47971" lon="8.23656">
        <ele>370.2</ele>
      </trkpt>
      <trkpt lat="47.47974" lon="8.23662">
        <ele>370.1</ele>
      </trkpt>
      <trkpt lat="47.47979" lon="8.23676">
        <ele>369.7</ele>
      </trkpt>
      <trkpt lat="47.47983" lon="8.23688">
        <ele>369.2</ele>
      </trkpt>
      <trkpt lat="47.47985" lon="8.23697">
        <ele>368.9</ele>
      </trkpt>
      <trkpt lat="47.47993" lon="8.23727">
        <ele>368</ele>
      </trkpt>
      <trkpt lat="47.47998" lon="8.23759">
        <ele>367.5</ele>
      </trkpt>
      <trkpt lat="47.47999" lon="8.23785">
        <ele>367.5</ele>
      </trkpt>
      <trkpt lat="47.47998" lon="8.23815">
        <ele>368</ele>
      </trkpt>
      <trkpt lat="47.47994" lon="8.2385">
        <ele>368.9</ele>
      </trkpt>
      <trkpt lat="47.47988" lon="8.2387">
        <ele>369.7</ele>
      </trkpt>
      <trkpt lat="47.47982" lon="8.23888">
        <ele>370.5</ele>
      </trkpt>
      <trkpt lat="47.47972" lon="8.23914">
        <ele>371.6</ele>
      </trkpt>
      <trkpt lat="47.47969" lon="8.23929">
        <ele>372.2</ele>
      </trkpt>
      <trkpt lat="47.47969" lon="8.23939">
        <ele>372.4</ele>
      </trkpt>
      <trkpt lat="47.47975" lon="8.23964">
        <ele>372.4</ele>
      </trkpt>
      <trkpt lat="47.47998" lon="8.24014">
        <ele>371.6</ele>
      </trkpt>
      <trkpt lat="47.48009" lon="8.24032">
        <ele>371.5</ele>
      </trkpt>
      <trkpt lat="47.48017" lon="8.24038">
        <ele>371.2</ele>
      </trkpt>
      <trkpt lat="47.48027" lon="8.24036">
        <ele>370.4</ele>
      </trkpt>
      <trkpt lat="47.48032" lon="8.24063">
        <ele>371.7</ele>
      </trkpt>
      <trkpt lat="47.48036" lon="8.24093">
        <ele>372.8</ele>
      </trkpt>
      <trkpt lat="47.48037" lon="8.24104">
        <ele>372.9</ele>
      </trkpt>
      <trkpt lat="47.48036" lon="8.24115">
        <ele>373</ele>
      </trkpt>
      <trkpt lat="47.48035" lon="8.24125">
        <ele>373.2</ele>
      </trkpt>
      <trkpt lat="47.48034" lon="8.24134">
        <ele>373.3</ele>
      </trkpt>
      <trkpt lat="47.48032" lon="8.24143">
        <ele>373.4</ele>
      </trkpt>
      <trkpt lat="47.4803" lon="8.24149">
        <ele>373.5</ele>
      </trkpt>
      <trkpt lat="47.48027" lon="8.24154">
        <ele>373.6</ele>
      </trkpt>
      <trkpt lat="47.48011" lon="8.24171">
        <ele>373.9</ele>
      </trkpt>
      <trkpt lat="47.4797" lon="8.24207">
        <ele>376.1</ele>
      </trkpt>
      <trkpt lat="47.47958" lon="8.24221">
        <ele>376.9</ele>
      </trkpt>
      <trkpt lat="47.47948" lon="8.24237">
        <ele>377.4</ele>
      </trkpt>
      <trkpt lat="47.47937" lon="8.2428">
        <ele>379</ele>
      </trkpt>
      <trkpt lat="47.47931" lon="8.24326">
        <ele>380.7</ele>
      </trkpt>
      <trkpt lat="47.47947" lon="8.24337">
        <ele>379.9</ele>
      </trkpt>
      <trkpt lat="47.47951" lon="8.2434">
        <ele>379.7</ele>
      </trkpt>
      <trkpt lat="47.47955" lon="8.24345">
        <ele>379.5</ele>
      </trkpt>
      <trkpt lat="47.47961" lon="8.24352">
        <ele>379.3</ele>
      </trkpt>
      <trkpt lat="47.47971" lon="8.24366">
        <ele>379.1</ele>
      </trkpt>
      <trkpt lat="47.47978" lon="8.24377">
        <ele>379.1</ele>
      </trkpt>
      <trkpt lat="47.47984" lon="8.24388">
        <ele>379.3</ele>
      </trkpt>
      <trkpt lat="47.47992" lon="8.2441">
        <ele>379.9</ele>
      </trkpt>
      <trkpt lat="47.48017" lon="8.24445">
        <ele>382.2</ele>
      </trkpt>
      <trkpt lat="47.48022" lon="8.24454">
        <ele>382.9</ele>
      </trkpt>
      <trkpt lat="47.48022" lon="8.24463">
        <ele>383.6</ele>
      </trkpt>
      <trkpt lat="47.48018" lon="8.24479">
        <ele>384.7</ele>
      </trkpt>
      <trkpt lat="47.48014" lon="8.24494">
        <ele>385.8</ele>
      </trkpt>
      <trkpt lat="47.48017" lon="8.24499">
        <ele>386.1</ele>
      </trkpt>
      <trkpt lat="47.48027" lon="8.24501">
        <ele>386.4</ele>
      </trkpt>
      <trkpt lat="47.4804" lon="8.24505">
        <ele>386.8</ele>
      </trkpt>
      <trkpt lat="47.48048" lon="8.24518">
        <ele>387.8</ele>
      </trkpt>
      <trkpt lat="47.48084" lon="8.24512">
        <ele>388.4</ele>
      </trkpt>
      <trkpt lat="47.48107" lon="8.24514">
        <ele>389.6</ele>
      </trkpt>
      <trkpt lat="47.48116" lon="8.2452">
        <ele>390.6</ele>
      </trkpt>
      <trkpt lat="47.4812" lon="8.24527">
        <ele>391.5</ele>
      </trkpt>
      <trkpt lat="47.48123" lon="8.2454">
        <ele>393</ele>
      </trkpt>
      <trkpt lat="47.48142" lon="8.24575">
        <ele>397.3</ele>
      </trkpt>
      <trkpt lat="47.48152" lon="8.24598">
        <ele>401.1</ele>
      </trkpt>
      <trkpt lat="47.4816" lon="8.2461">
        <ele>403.9</ele>
      </trkpt>
      <trkpt lat="47.48188" lon="8.24626">
        <ele>410.7</ele>
      </trkpt>
      <trkpt lat="47.48198" lon="8.24637">
        <ele>414.6</ele>
      </trkpt>
      <trkpt lat="47.48197" lon="8.24645">
        <ele>415.9</ele>
      </trkpt>
      <trkpt lat="47.48192" lon="8.24652">
        <ele>416.4</ele>
      </trkpt>
      <trkpt lat="47.48185" lon="8.24658">
        <ele>416.4</ele>
      </trkpt>
      <trkpt lat="47.48172" lon="8.24663">
        <ele>415.2</ele>
      </trkpt>
      <trkpt lat="47.48128" lon="8.24671">
        <ele>413.8</ele>
      </trkpt>
      <trkpt lat="47.48112" lon="8.24678">
        <ele>414.6</ele>
      </trkpt>
      <trkpt lat="47.48102" lon="8.24688">
        <ele>416.9</ele>
      </trkpt>
      <trkpt lat="47.48106" lon="8.24699">
        <ele>419.9</ele>
      </trkpt>
      <trkpt lat="47.48137" lon="8.24723">
        <ele>426.5</ele>
      </trkpt>
      <trkpt lat="47.48166" lon="8.24767">
        <ele>437</ele>
      </trkpt>
      <trkpt lat="47.48177" lon="8.2478">
        <ele>441.6</ele>
      </trkpt>
      <trkpt lat="47.48202" lon="8.24816">
        <ele>452.6</ele>
      </trkpt>
      <trkpt lat="47.48215" lon="8.24826">
        <ele>455.5</ele>
      </trkpt>
      <trkpt lat="47.48228" lon="8.24829">
        <ele>456.5</ele>
      </trkpt>
      <trkpt lat="47.4824" lon="8.24827">
        <ele>456.4</ele>
      </trkpt>
      <trkpt lat="47.48251" lon="8.2482">
        <ele>455.5</ele>
      </trkpt>
      <trkpt lat="47.48262" lon="8.24809">
        <ele>456.1</ele>
      </trkpt>
      <trkpt lat="47.48274" lon="8.24797">
        <ele>456.9</ele>
      </trkpt>
      <trkpt lat="47.48286" lon="8.24767">
        <ele>454.9</ele>
      </trkpt>
      <trkpt lat="47.48301" lon="8.24711">
        <ele>451.9</ele>
      </trkpt>
      <trkpt lat="47.48313" lon="8.24689">
        <ele>453.2</ele>
      </trkpt>
      <trkpt lat="47.48324" lon="8.24685">
        <ele>456.8</ele>
      </trkpt>
      <trkpt lat="47.48333" lon="8.24685">
        <ele>459.6</ele>
      </trkpt>
      <trkpt lat="47.4835" lon="8.24687">
        <ele>460.7</ele>
      </trkpt>
      <trkpt lat="47.48366" lon="8.24696">
        <ele>462.8</ele>
      </trkpt>
      <trkpt lat="47.48377" lon="8.24702">
        <ele>464.3</ele>
      </trkpt>
      <trkpt lat="47.48389" lon="8.24696">
        <ele>464</ele>
      </trkpt>
      <trkpt lat="47.484" lon="8.24694">
        <ele>464.4</ele>
      </trkpt>
      <trkpt lat="47.48418" lon="8.247">
        <ele>466.5</ele>
      </trkpt>
      <trkpt lat="47.48432" lon="8.24707">
        <ele>467.5</ele>
      </trkpt>
      <trkpt lat="47.48447" lon="8.24725">
        <ele>470.9</ele>
      </trkpt>
      <trkpt lat="47.48464" lon="8.24742">
        <ele>474.3</ele>
      </trkpt>
      <trkpt lat="47.48508" lon="8.24756">
        <ele>476.6</ele>
      </trkpt>
      <trkpt lat="47.4853" lon="8.2476">
        <ele>475.8</ele>
      </trkpt>
      <trkpt lat="47.48542" lon="8.24762">
        <ele>475.4</ele>
      </trkpt>
      <trkpt lat="47.48569" lon="8.24772">
        <ele>477</ele>
      </trkpt>
      <trkpt lat="47.48594" lon="8.24777">
        <ele>477</ele>
      </trkpt>
      <trkpt lat="47.48616" lon="8.24772">
        <ele>474.1</ele>
      </trkpt>
      <trkpt lat="47.48644" lon="8.24769">
        <ele>471.8</ele>
      </trkpt>
      <trkpt lat="47.48665" lon="8.24772">
        <ele>471.9</ele>
      </trkpt>
      <trkpt lat="47.48683" lon="8.24779">
        <ele>469.9</ele>
      </trkpt>
      <trkpt lat="47.487" lon="8.24789">
        <ele>468.5</ele>
      </trkpt>
      <trkpt lat="47.4872" lon="8.24809">
        <ele>468.4</ele>
      </trkpt>
      <trkpt lat="47.48684" lon="8.24801">
        <ele>477.7</ele>
      </trkpt>
      <trkpt lat="47.48693" lon="8.24811">
        <ele>478.1</ele>
      </trkpt>
      <trkpt lat="47.48714" lon="8.24838">
        <ele>478.3</ele>
      </trkpt>
      <trkpt lat="47.48718" lon="8.24861">
        <ele>478.8</ele>
      </trkpt>
      <trkpt lat="47.48713" lon="8.24893">
        <ele>483.9</ele>
      </trkpt>
      <trkpt lat="47.48696" lon="8.2493">
        <ele>497.4</ele>
      </trkpt>
      <trkpt lat="47.48679" lon="8.24996">
        <ele>507.5</ele>
      </trkpt>
      <trkpt lat="47.48669" lon="8.25028">
        <ele>507.2</ele>
      </trkpt>
      <trkpt lat="47.48666" lon="8.24996">
        <ele>516</ele>
      </trkpt>
      <trkpt lat="47.48664" lon="8.24958">
        <ele>516.4</ele>
      </trkpt>
      <trkpt lat="47.48665" lon="8.24925">
        <ele>516.2</ele>
      </trkpt>
      <trkpt lat="47.48672" lon="8.24894">
        <ele>507.6</ele>
      </trkpt>
      <trkpt lat="47.48654" lon="8.24912">
        <ele>516.2</ele>
      </trkpt>
      <trkpt lat="47.48646" lon="8.24946">
        <ele>518.9</ele>
      </trkpt>
      <trkpt lat="47.48637" lon="8.24973">
        <ele>520.8</ele>
      </trkpt>
      <trkpt lat="47.48623" lon="8.24984">
        <ele>523.3</ele>
      </trkpt>
      <trkpt lat="47.48597" lon="8.24982">
        <ele>527.6</ele>
      </trkpt>
      <trkpt lat="47.48544" lon="8.24994">
        <ele>530.2</ele>
      </trkpt>
      <trkpt lat="47.48509" lon="8.25034">
        <ele>528.7</ele>
      </trkpt>
      <trkpt lat="47.48488" lon="8.25053">
        <ele>527.5</ele>
      </trkpt>
      <trkpt lat="47.48458" lon="8.25109">
        <ele>526.2</ele>
      </trkpt>
      <trkpt lat="47.48419" lon="8.25152">
        <ele>526.6</ele>
      </trkpt>
      <trkpt lat="47.48394" lon="8.25172">
        <ele>527.1</ele>
      </trkpt>
      <trkpt lat="47.48362" lon="8.25182">
        <ele>527.5</ele>
      </trkpt>
      <trkpt lat="47.48276" lon="8.25186">
        <ele>524.7</ele>
      </trkpt>
      <trkpt lat="47.48244" lon="8.25194">
        <ele>524.5</ele>
      </trkpt>
      <trkpt lat="47.48166" lon="8.2521">
        <ele>528.6</ele>
      </trkpt>
      <trkpt lat="47.48138" lon="8.25217">
        <ele>529.3</ele>
      </trkpt>
      <trkpt lat="47.48113" lon="8.25217">
        <ele>529.5</ele>
      </trkpt>
      <trkpt lat="47.48082" lon="8.25216">
        <ele>529.4</ele>
      </trkpt>
      <trkpt lat="47.48063" lon="8.25228">
        <ele>528.3</ele>
      </trkpt>
      <trkpt lat="47.48039" lon="8.25272">
        <ele>529</ele>
      </trkpt>
      <trkpt lat="47.48029" lon="8.25335">
        <ele>531.8</ele>
      </trkpt>
      <trkpt lat="47.48017" lon="8.25412">
        <ele>536.7</ele>
      </trkpt>
      <trkpt lat="47.48011" lon="8.2546">
        <ele>539.1</ele>
      </trkpt>
      <trkpt lat="47.4801" lon="8.25481">
        <ele>540.3</ele>
      </trkpt>
      <trkpt lat="47.47981" lon="8.25562">
        <ele>541.6</ele>
      </trkpt>
      <trkpt lat="47.47961" lon="8.2564">
        <ele>543.5</ele>
      </trkpt>
      <trkpt lat="47.47954" lon="8.25681">
        <ele>544.6</ele>
      </trkpt>
      <trkpt lat="47.47909" lon="8.25934">
        <ele>552</ele>
      </trkpt>
      <trkpt lat="47.47909" lon="8.25971">
        <ele>553.8</ele>
      </trkpt>
      <trkpt lat="47.47916" lon="8.26212">
        <ele>560.6</ele>
      </trkpt>
      <trkpt lat="47.47896" lon="8.26252">
        <ele>561.5</ele>
      </trkpt>
      <trkpt lat="47.47849" lon="8.26296">
        <ele>562.3</ele>
      </trkpt>
      <trkpt lat="47.47801" lon="8.26372">
        <ele>561.7</ele>
      </trkpt>
      <trkpt lat="47.47767" lon="8.26424">
        <ele>559.3</ele>
      </trkpt>
      <trkpt lat="47.47713" lon="8.26497">
        <ele>553.4</ele>
      </trkpt>
      <trkpt lat="47.47654" lon="8.26564">
        <ele>551</ele>
      </trkpt>
      <trkpt lat="47.4765" lon="8.26572">
        <ele>551.3</ele>
      </trkpt>
      <trkpt lat="47.47642" lon="8.26599">
        <ele>551.9</ele>
      </trkpt>
      <trkpt lat="47.47616" lon="8.26683">
        <ele>552.6</ele>
      </trkpt>
      <trkpt lat="47.47557" lon="8.26897">
        <ele>550.2</ele>
      </trkpt>
      <trkpt lat="47.47553" lon="8.26914">
        <ele>550.3</ele>
      </trkpt>
      <trkpt lat="47.47546" lon="8.26937">
        <ele>550.5</ele>
      </trkpt>
      <trkpt lat="47.47543" lon="8.26952">
        <ele>550.7</ele>
      </trkpt>
      <trkpt lat="47.4753" lon="8.27">
        <ele>551.1</ele>
      </trkpt>
      <trkpt lat="47.47516" lon="8.27052">
        <ele>551.1</ele>
      </trkpt>
      <trkpt lat="47.47507" lon="8.27109">
        <ele>552.7</ele>
      </trkpt>
      <trkpt lat="47.47502" lon="8.27184">
        <ele>556.4</ele>
      </trkpt>
      <trkpt lat="47.47496" lon="8.27215">
        <ele>557.2</ele>
      </trkpt>
      <trkpt lat="47.47491" lon="8.27236">
        <ele>557.6</ele>
      </trkpt>
      <trkpt lat="47.4748" lon="8.27238">
        <ele>557.5</ele>
      </trkpt>
      <trkpt lat="47.47483" lon="8.27257">
        <ele>557.8</ele>
      </trkpt>
      <trkpt lat="47.47463" lon="8.27334">
        <ele>558.5</ele>
      </trkpt>
      <trkpt lat="47.47463" lon="8.27351">
        <ele>558.7</ele>
      </trkpt>
      <trkpt lat="47.47458" lon="8.2737">
        <ele>558.9</ele>
      </trkpt>
      <trkpt lat="47.47457" lon="8.27375">
        <ele>559</ele>
      </trkpt>
      <trkpt lat="47.47456" lon="8.27379">
        <ele>559</ele>
      </trkpt>
      <trkpt lat="47.47461" lon="8.27389">
        <ele>559.2</ele>
      </trkpt>
      <trkpt lat="47.47462" lon="8.27397">
        <ele>559.3</ele>
      </trkpt>
      <trkpt lat="47.47461" lon="8.27401">
        <ele>559.3</ele>
      </trkpt>
      <trkpt lat="47.47459" lon="8.27425">
        <ele>559.9</ele>
      </trkpt>
      <trkpt lat="47.47454" lon="8.2745">
        <ele>560.8</ele>
      </trkpt>
      <trkpt lat="47.47445" lon="8.2751">
        <ele>562.9</ele>
      </trkpt>
      <trkpt lat="47.47444" lon="8.27542">
        <ele>563.5</ele>
      </trkpt>
      <trkpt lat="47.47445" lon="8.27567">
        <ele>564</ele>
      </trkpt>
      <trkpt lat="47.47438" lon="8.27609">
        <ele>564.4</ele>
      </trkpt>
      <trkpt lat="47.4744" lon="8.27633">
        <ele>564.5</ele>
      </trkpt>
      <trkpt lat="47.47407" lon="8.27736">
        <ele>565</ele>
      </trkpt>
      <trkpt lat="47.47364" lon="8.27886">
        <ele>565.8</ele>
      </trkpt>
      <trkpt lat="47.4736" lon="8.27894">
        <ele>565.7</ele>
      </trkpt>
      <trkpt lat="47.47364" lon="8.27917">
        <ele>565.3</ele>
      </trkpt>
      <trkpt lat="47.47368" lon="8.27943">
        <ele>563.9</ele>
      </trkpt>
      <trkpt lat="47.47367" lon="8.27947">
        <ele>563.7</ele>
      </trkpt>
      <trkpt lat="47.47367" lon="8.27965">
        <ele>562.9</ele>
      </trkpt>
      <trkpt lat="47.47362" lon="8.27988">
        <ele>561.9</ele>
      </trkpt>
      <trkpt lat="47.47355" lon="8.28">
        <ele>561.5</ele>
      </trkpt>
      <trkpt lat="47.4734" lon="8.28013">
        <ele>560.5</ele>
      </trkpt>
      <trkpt lat="47.47316" lon="8.28021">
        <ele>559.8</ele>
      </trkpt>
      <trkpt lat="47.47281" lon="8.28025">
        <ele>559.5</ele>
      </trkpt>
      <trkpt lat="47.47265" lon="8.28028">
        <ele>559.3</ele>
      </trkpt>
      <trkpt lat="47.47241" lon="8.28035">
        <ele>558.9</ele>
      </trkpt>
      <trkpt lat="47.4724" lon="8.28028">
        <ele>559.6</ele>
      </trkpt>
      <trkpt lat="47.47237" lon="8.28026">
        <ele>559.8</ele>
      </trkpt>
      <trkpt lat="47.4723" lon="8.28026">
        <ele>559.9</ele>
      </trkpt>
      <trkpt lat="47.47202" lon="8.28027">
        <ele>560.5</ele>
      </trkpt>
      <trkpt lat="47.47175" lon="8.2801">
        <ele>562.8</ele>
      </trkpt>
      <trkpt lat="47.47144" lon="8.2799">
        <ele>564.9</ele>
      </trkpt>
      <trkpt lat="47.4707" lon="8.27949">
        <ele>566.9</ele>
      </trkpt>
      <trkpt lat="47.47065" lon="8.27948">
        <ele>566.8</ele>
      </trkpt>
      <trkpt lat="47.47063" lon="8.27957">
        <ele>566.6</ele>
      </trkpt>
      <trkpt lat="47.47057" lon="8.27962">
        <ele>566.3</ele>
      </trkpt>
      <trkpt lat="47.47049" lon="8.28022">
        <ele>564.1</ele>
      </trkpt>
      <trkpt lat="47.47042" lon="8.28051">
        <ele>562.6</ele>
      </trkpt>
      <trkpt lat="47.47027" lon="8.28093">
        <ele>560.9</ele>
      </trkpt>
      <trkpt lat="47.47029" lon="8.28122">
        <ele>561.8</ele>
      </trkpt>
      <trkpt lat="47.47032" lon="8.28154">
        <ele>562.6</ele>
      </trkpt>
      <trkpt lat="47.47035" lon="8.28204">
        <ele>564.8</ele>
      </trkpt>
      <trkpt lat="47.47035" lon="8.28209">
        <ele>565.1</ele>
      </trkpt>
      <trkpt lat="47.47037" lon="8.2824">
        <ele>566.4</ele>
      </trkpt>
      <trkpt lat="47.47048" lon="8.28416">
        <ele>563.9</ele>
      </trkpt>
      <trkpt lat="47.47053" lon="8.28506">
        <ele>558.5</ele>
      </trkpt>
      <trkpt lat="47.47054" lon="8.28528">
        <ele>558</ele>
      </trkpt>
      <trkpt lat="47.47064" lon="8.28595">
        <ele>557.3</ele>
      </trkpt>
      <trkpt lat="47.47077" lon="8.28652">
        <ele>559.8</ele>
      </trkpt>
      <trkpt lat="47.47099" lon="8.28785">
        <ele>551.8</ele>
      </trkpt>
      <trkpt lat="47.47104" lon="8.2881">
        <ele>549.3</ele>
      </trkpt>
      <trkpt lat="47.47108" lon="8.28878">
        <ele>545.9</ele>
      </trkpt>
      <trkpt lat="47.47106" lon="8.28958">
        <ele>541.2</ele>
      </trkpt>
      <trkpt lat="47.47106" lon="8.28997">
        <ele>538.1</ele>
      </trkpt>
      <trkpt lat="47.4711" lon="8.29031">
        <ele>535.4</ele>
      </trkpt>
      <trkpt lat="47.47114" lon="8.29064">
        <ele>532.7</ele>
      </trkpt>
      <trkpt lat="47.47125" lon="8.29115">
        <ele>528.1</ele>
      </trkpt>
      <trkpt lat="47.47161" lon="8.29186">
        <ele>522.7</ele>
      </trkpt>
      <trkpt lat="47.47207" lon="8.2927">
        <ele>514.2</ele>
      </trkpt>
      <trkpt lat="47.47231" lon="8.29305">
        <ele>508.5</ele>
      </trkpt>
      <trkpt lat="47.47253" lon="8.29336">
        <ele>502.3</ele>
      </trkpt>
      <trkpt lat="47.47301" lon="8.29414">
        <ele>492.1</ele>
      </trkpt>
      <trkpt lat="47.47346" lon="8.29502">
        <ele>483.2</ele>
      </trkpt>
      <trkpt lat="47.47359" lon="8.29575">
        <ele>479.6</ele>
      </trkpt>
      <trkpt lat="47.47361" lon="8.2958">
        <ele>479.2</ele>
      </trkpt>
      <trkpt lat="47.47363" lon="8.29584">
        <ele>478.7</ele>
      </trkpt>
      <trkpt lat="47.47369" lon="8.29588">
        <ele>477.5</ele>
      </trkpt>
      <trkpt lat="47.47367" lon="8.2961">
        <ele>475.5</ele>
      </trkpt>
      <trkpt lat="47.47367" lon="8.29613">
        <ele>475.1</ele>
      </trkpt>
      <trkpt lat="47.47366" lon="8.29628">
        <ele>473.6</ele>
      </trkpt>
      <trkpt lat="47.47366" lon="8.29647">
        <ele>471.7</ele>
      </trkpt>
      <trkpt lat="47.47364" lon="8.29738">
        <ele>467.6</ele>
      </trkpt>
      <trkpt lat="47.47364" lon="8.29775">
        <ele>466.4</ele>
      </trkpt>
      <trkpt lat="47.47365" lon="8.29799">
        <ele>465.6</ele>
      </trkpt>
      <trkpt lat="47.47366" lon="8.29815">
        <ele>465.2</ele>
      </trkpt>
      <trkpt lat="47.4737" lon="8.29845">
        <ele>464.4</ele>
      </trkpt>
      <trkpt lat="47.47388" lon="8.29968">
        <ele>460.1</ele>
      </trkpt>
      <trkpt lat="47.47389" lon="8.29979">
        <ele>459.6</ele>
      </trkpt>
      <trkpt lat="47.4739" lon="8.29987">
        <ele>459.2</ele>
      </trkpt>
      <trkpt lat="47.47391" lon="8.30006">
        <ele>458</ele>
      </trkpt>
      <trkpt lat="47.47391" lon="8.30016">
        <ele>457</ele>
      </trkpt>
      <trkpt lat="47.47391" lon="8.30024">
        <ele>456.3</ele>
      </trkpt>
      <trkpt lat="47.47389" lon="8.30035">
        <ele>455.3</ele>
      </trkpt>
      <trkpt lat="47.47384" lon="8.3007">
        <ele>452.6</ele>
      </trkpt>
      <trkpt lat="47.47383" lon="8.30077">
        <ele>452.1</ele>
      </trkpt>
      <trkpt lat="47.4738" lon="8.30094">
        <ele>450.5</ele>
      </trkpt>
      <trkpt lat="47.47376" lon="8.30124">
        <ele>447.5</ele>
      </trkpt>
      <trkpt lat="47.4737" lon="8.30164">
        <ele>444.3</ele>
      </trkpt>
      <trkpt lat="47.47361" lon="8.30209">
        <ele>438.9</ele>
      </trkpt>
      <trkpt lat="47.47351" lon="8.30263">
        <ele>433.9</ele>
      </trkpt>
      <trkpt lat="47.47348" lon="8.30277">
        <ele>433.8</ele>
      </trkpt>
      <trkpt lat="47.47346" lon="8.30288">
        <ele>433.8</ele>
      </trkpt>
      <trkpt lat="47.47343" lon="8.30308">
        <ele>433.6</ele>
      </trkpt>
      <trkpt lat="47.47342" lon="8.30315">
        <ele>433.4</ele>
      </trkpt>
      <trkpt lat="47.47342" lon="8.30322">
        <ele>433.1</ele>
      </trkpt>
      <trkpt lat="47.47342" lon="8.30331">
        <ele>432.7</ele>
      </trkpt>
      <trkpt lat="47.47342" lon="8.3034">
        <ele>431.9</ele>
      </trkpt>
      <trkpt lat="47.47339" lon="8.30341">
        <ele>432.9</ele>
      </trkpt>
      <trkpt lat="47.47335" lon="8.30346">
        <ele>433.9</ele>
      </trkpt>
      <trkpt lat="47.47335" lon="8.30361">
        <ele>432.9</ele>
      </trkpt>
      <trkpt lat="47.47333" lon="8.3038">
        <ele>432.1</ele>
      </trkpt>
      <trkpt lat="47.47336" lon="8.30407">
        <ele>429.8</ele>
      </trkpt>
      <trkpt lat="47.47335" lon="8.30442">
        <ele>428.5</ele>
      </trkpt>
      <trkpt lat="47.47337" lon="8.30471">
        <ele>426.8</ele>
      </trkpt>
      <trkpt lat="47.47338" lon="8.305">
        <ele>425.6</ele>
      </trkpt>
      <trkpt lat="47.47337" lon="8.30511">
        <ele>424.8</ele>
      </trkpt>
      <trkpt lat="47.47332" lon="8.30517">
        <ele>424.9</ele>
      </trkpt>
      <trkpt lat="47.4733" lon="8.30502">
        <ele>426.1</ele>
      </trkpt>
      <trkpt lat="47.47325" lon="8.30504">
        <ele>425.1</ele>
      </trkpt>
      <trkpt lat="47.47326" lon="8.30524">
        <ele>422.9</ele>
      </trkpt>
      <trkpt lat="47.47325" lon="8.30531">
        <ele>422.1</ele>
      </trkpt>
      <trkpt lat="47.47323" lon="8.30537">
        <ele>421.1</ele>
      </trkpt>
      <trkpt lat="47.4732" lon="8.3054">
        <ele>420.3</ele>
      </trkpt>
      <trkpt lat="47.47314" lon="8.30537">
        <ele>419.4</ele>
      </trkpt>
      <trkpt lat="47.47317" lon="8.30557">
        <ele>417.9</ele>
      </trkpt>
      <trkpt lat="47.47318" lon="8.30587">
        <ele>414.7</ele>
      </trkpt>
      <trkpt lat="47.47317" lon="8.3061">
        <ele>409.6</ele>
      </trkpt>
      <trkpt lat="47.47319" lon="8.30626">
        <ele>406.6</ele>
      </trkpt>
      <trkpt lat="47.47319" lon="8.30628">
        <ele>406.1</ele>
      </trkpt>
      <trkpt lat="47.4732" lon="8.30631">
        <ele>405.6</ele>
      </trkpt>
      <trkpt lat="47.47314" lon="8.30632">
        <ele>404.7</ele>
      </trkpt>
      <trkpt lat="47.47311" lon="8.30621">
        <ele>406.7</ele>
      </trkpt>
      <trkpt lat="47.47307" lon="8.30621">
        <ele>406.1</ele>
      </trkpt>
      <trkpt lat="47.47307" lon="8.30629">
        <ele>404.4</ele>
      </trkpt>
      <trkpt lat="47.47307" lon="8.30648">
        <ele>400.8</ele>
      </trkpt>
      <trkpt lat="47.47315" lon="8.30704">
        <ele>394.9</ele>
      </trkpt>
      <trkpt lat="47.47306" lon="8.3072">
        <ele>393.4</ele>
      </trkpt>
      <trkpt lat="47.47304" lon="8.30744">
        <ele>391.7</ele>
      </trkpt>
      <trkpt lat="47.47302" lon="8.30743">
        <ele>391.7</ele>
      </trkpt>
      <trkpt lat="47.47299" lon="8.30739">
        <ele>391.9</ele>
      </trkpt>
      <trkpt lat="47.47291" lon="8.30748">
        <ele>391.1</ele>
      </trkpt>
      <trkpt lat="47.47277" lon="8.30757">
        <ele>390.2</ele>
      </trkpt>
      <trkpt lat="47.47279" lon="8.30769">
        <ele>389.6</ele>
      </trkpt>
      <trkpt lat="47.47278" lon="8.30787">
        <ele>388.4</ele>
      </trkpt>
      <trkpt lat="47.47278" lon="8.30795">
        <ele>387.9</ele>
      </trkpt>
      <trkpt lat="47.47286" lon="8.30801">
        <ele>387.8</ele>
      </trkpt>
      <trkpt lat="47.47291" lon="8.30803">
        <ele>387.8</ele>
      </trkpt>
      <trkpt lat="47.47293" lon="8.30803">
        <ele>387.8</ele>
      </trkpt>
      <trkpt lat="47.47304" lon="8.30798">
        <ele>388.4</ele>
      </trkpt>
      <trkpt lat="47.47313" lon="8.30794">
        <ele>388.9</ele>
      </trkpt>
      <trkpt lat="47.47317" lon="8.30792">
        <ele>389.1</ele>
      </trkpt>
      <trkpt lat="47.47326" lon="8.30786">
        <ele>389.7</ele>
      </trkpt>
      <trkpt lat="47.4733" lon="8.30784">
        <ele>389.9</ele>
      </trkpt>
      <trkpt lat="47.47355" lon="8.30762">
        <ele>390.3</ele>
      </trkpt>
      <trkpt lat="47.47369" lon="8.30775">
        <ele>389.2</ele>
      </trkpt>
      <trkpt lat="47.47418" lon="8.30791">
        <ele>387</ele>
      </trkpt>
      <trkpt lat="47.47439" lon="8.30797">
        <ele>387.1</ele>
      </trkpt>
      <trkpt lat="47.47439" lon="8.30801">
        <ele>387</ele>
      </trkpt>
      <trkpt lat="47.47464" lon="8.30815">
        <ele>387.2</ele>
      </trkpt>
      <trkpt lat="47.47501" lon="8.30838">
        <ele>387.6</ele>
      </trkpt>
      <trkpt lat="47.47558" lon="8.30875">
        <ele>385.4</ele>
      </trkpt>
      <trkpt lat="47.47579" lon="8.30888">
        <ele>384.6</ele>
      </trkpt>
      <trkpt lat="47.47575" lon="8.30903">
        <ele>383.1</ele>
      </trkpt>
      <trkpt lat="47.4757" lon="8.30923">
        <ele>380.8</ele>
      </trkpt>
      <trkpt lat="47.47568" lon="8.30939">
        <ele>378.4</ele>
      </trkpt>
      <trkpt lat="47.47567" lon="8.30954">
        <ele>376.3</ele>
      </trkpt>
      <trkpt lat="47.47542" lon="8.30946">
        <ele>376.5</ele>
      </trkpt>
      <trkpt lat="47.47497" lon="8.30946">
        <ele>374.5</ele>
      </trkpt>
      <trkpt lat="47.47456" lon="8.3095">
        <ele>371.1</ele>
      </trkpt>
      <trkpt lat="47.47422" lon="8.30953">
        <ele>368.2</ele>
      </trkpt>
      <trkpt lat="47.47419" lon="8.30954">
        <ele>368</ele>
      </trkpt>
      <trkpt lat="47.47384" lon="8.30961">
        <ele>367.8</ele>
      </trkpt>
      <trkpt lat="47.47355" lon="8.30972">
        <ele>366.8</ele>
      </trkpt>
      <trkpt lat="47.4734" lon="8.30966">
        <ele>368.4</ele>
      </trkpt>
      <trkpt lat="47.47324" lon="8.30975">
        <ele>367.1</ele>
      </trkpt>
      <trkpt lat="47.47274" lon="8.30993">
        <ele>366</ele>
      </trkpt>
      <trkpt lat="47.47255" lon="8.31001">
        <ele>365.7</ele>
      </trkpt>
      <trkpt lat="47.47252" lon="8.31002">
        <ele>365.7</ele>
      </trkpt>
      <trkpt lat="47.47254" lon="8.31007">
        <ele>365.2</ele>
      </trkpt>
      <trkpt lat="47.47258" lon="8.3102">
        <ele>364.1</ele>
      </trkpt>
      <trkpt lat="47.47264" lon="8.31039">
        <ele>362.5</ele>
      </trkpt>
      <trkpt lat="47.47277" lon="8.3109">
        <ele>360.4</ele>
      </trkpt>
      <trkpt lat="47.47277" lon="8.31091">
        <ele>360.6</ele>
      </trkpt>
      <trkpt lat="47.47279" lon="8.31099">
        <ele>361.7</ele>
      </trkpt>
      <trkpt lat="47.47278" lon="8.31108">
        <ele>362.7</ele>
      </trkpt>
      <trkpt lat="47.47277" lon="8.31114">
        <ele>363.4</ele>
      </trkpt>
      <trkpt lat="47.47274" lon="8.31119">
        <ele>363.9</ele>
      </trkpt>
      <trkpt lat="47.4727" lon="8.31125">
        <ele>364.3</ele>
      </trkpt>
      <trkpt lat="47.47274" lon="8.31141">
        <ele>366.6</ele>
      </trkpt>
      <trkpt lat="47.47276" lon="8.31145">
        <ele>367.1</ele>
      </trkpt>
      <trkpt lat="47.47278" lon="8.31147">
        <ele>367.5</ele>
      </trkpt>
      <trkpt lat="47.47289" lon="8.31163">
        <ele>370.7</ele>
      </trkpt>
      <trkpt lat="47.47292" lon="8.31164">
        <ele>371.1</ele>
      </trkpt>
      <trkpt lat="47.47292" lon="8.31165">
        <ele>371.3</ele>
      </trkpt>
      <trkpt lat="47.47292" lon="8.31166">
        <ele>371.5</ele>
      </trkpt>
      <trkpt lat="47.47291" lon="8.31167">
        <ele>371.5</ele>
      </trkpt>
      <trkpt lat="47.47291" lon="8.31167">
        <ele>371.4</ele>
      </trkpt>
      <trkpt lat="47.47288" lon="8.31165">
        <ele>370.9</ele>
      </trkpt>
      <trkpt lat="47.47284" lon="8.31167">
        <ele>370.7</ele>
      </trkpt>
      <trkpt lat="47.47291" lon="8.31174">
        <ele>372.9</ele>
      </trkpt>
      <trkpt lat="47.47289" lon="8.3118">
        <ele>373.8</ele>
      </trkpt>
      <trkpt lat="47.473" lon="8.31193">
        <ele>377.6</ele>
      </trkpt>
      <trkpt lat="47.4731" lon="8.31199">
        <ele>380.3</ele>
      </trkpt>
      <trkpt lat="47.47317" lon="8.31209">
        <ele>383.6</ele>
      </trkpt>
      <trkpt lat="47.47321" lon="8.31223">
        <ele>387.4</ele>
      </trkpt>
      <trkpt lat="47.47326" lon="8.31231">
        <ele>389.9</ele>
      </trkpt>
      <trkpt lat="47.4733" lon="8.31228">
        <ele>390.1</ele>
      </trkpt>
      <trkpt lat="47.47334" lon="8.31235">
        <ele>392.4</ele>
      </trkpt>
      <trkpt lat="47.47339" lon="8.31226">
        <ele>390.4</ele>
      </trkpt>
      <trkpt lat="47.47345" lon="8.31231">
        <ele>391.7</ele>
      </trkpt>
      <trkpt lat="47.47348" lon="8.3125">
        <ele>396.3</ele>
      </trkpt>
      <trkpt lat="47.47349" lon="8.31273">
        <ele>400.3</ele>
      </trkpt>
      <trkpt lat="47.47352" lon="8.31281">
        <ele>402.2</ele>
      </trkpt>
      <trkpt lat="47.47355" lon="8.31288">
        <ele>403.7</ele>
      </trkpt>
      <trkpt lat="47.47362" lon="8.31301">
        <ele>407.6</ele>
      </trkpt>
      <trkpt lat="47.47366" lon="8.31317">
        <ele>411.8</ele>
      </trkpt>
      <trkpt lat="47.47367" lon="8.31317">
        <ele>412.2</ele>
      </trkpt>
      <trkpt lat="47.47383" lon="8.31342">
        <ele>422.7</ele>
      </trkpt>
      <trkpt lat="47.47395" lon="8.31345">
        <ele>427.1</ele>
      </trkpt>
      <trkpt lat="47.47411" lon="8.31383">
        <ele>440.9</ele>
      </trkpt>
      <trkpt lat="47.47407" lon="8.31393">
        <ele>441.7</ele>
      </trkpt>
      <trkpt lat="47.47422" lon="8.314">
        <ele>445.8</ele>
      </trkpt>
      <trkpt lat="47.47412" lon="8.31423">
        <ele>450</ele>
      </trkpt>
      <trkpt lat="47.47416" lon="8.3143">
        <ele>452.5</ele>
      </trkpt>
      <trkpt lat="47.47425" lon="8.31432">
        <ele>451.8</ele>
      </trkpt>
      <trkpt lat="47.47433" lon="8.31445">
        <ele>452.8</ele>
      </trkpt>
      <trkpt lat="47.47436" lon="8.3144">
        <ele>451.7</ele>
      </trkpt>
      <trkpt lat="47.47446" lon="8.31449">
        <ele>452.2</ele>
      </trkpt>
      <trkpt lat="47.47456" lon="8.31456">
        <ele>453</ele>
      </trkpt>
      <trkpt lat="47.47499" lon="8.31493">
        <ele>463.3</ele>
      </trkpt>
      <trkpt lat="47.47534" lon="8.3152">
        <ele>456.7</ele>
      </trkpt>
      <trkpt lat="47.47541" lon="8.31526">
        <ele>454.8</ele>
      </trkpt>
      <trkpt lat="47.47545" lon="8.31535">
        <ele>456</ele>
      </trkpt>
      <trkpt lat="47.47552" lon="8.31546">
        <ele>456.3</ele>
      </trkpt>
      <trkpt lat="47.47572" lon="8.31564">
        <ele>453.7</ele>
      </trkpt>
      <trkpt lat="47.47592" lon="8.3158">
        <ele>451.7</ele>
      </trkpt>
      <trkpt lat="47.47607" lon="8.31597">
        <ele>450.7</ele>
      </trkpt>
      <trkpt lat="47.47615" lon="8.31614">
        <ele>451.2</ele>
      </trkpt>
      <trkpt lat="47.47619" lon="8.31633">
        <ele>453.1</ele>
      </trkpt>
      <trkpt lat="47.47622" lon="8.31643">
        <ele>453.8</ele>
      </trkpt>
      <trkpt lat="47.47621" lon="8.31656">
        <ele>456.1</ele>
      </trkpt>
      <trkpt lat="47.47619" lon="8.31674">
        <ele>460</ele>
      </trkpt>
      <trkpt lat="47.47614" lon="8.317">
        <ele>465.6</ele>
      </trkpt>
      <trkpt lat="47.47614" lon="8.31729">
        <ele>470.1</ele>
      </trkpt>
      <trkpt lat="47.47614" lon="8.31781">
        <ele>476.9</ele>
      </trkpt>
      <trkpt lat="47.47615" lon="8.31811">
        <ele>479.9</ele>
      </trkpt>
      <trkpt lat="47.47622" lon="8.31849">
        <ele>481.4</ele>
      </trkpt>
      <trkpt lat="47.47629" lon="8.31877">
        <ele>481.5</ele>
      </trkpt>
      <trkpt lat="47.4764" lon="8.31926">
        <ele>482.1</ele>
      </trkpt>
      <trkpt lat="47.47652" lon="8.31961">
        <ele>483.2</ele>
      </trkpt>
      <trkpt lat="47.47657" lon="8.31988">
        <ele>486.1</ele>
      </trkpt>
      <trkpt lat="47.47655" lon="8.32019">
        <ele>491.5</ele>
      </trkpt>
      <trkpt lat="47.47659" lon="8.32065">
        <ele>493.4</ele>
      </trkpt>
      <trkpt lat="47.47669" lon="8.32147">
        <ele>497.5</ele>
      </trkpt>
      <trkpt lat="47.47679" lon="8.32209">
        <ele>507</ele>
      </trkpt>
      <trkpt lat="47.47686" lon="8.32257">
        <ele>515.5</ele>
      </trkpt>
      <trkpt lat="47.47709" lon="8.32318">
        <ele>522</ele>
      </trkpt>
      <trkpt lat="47.47719" lon="8.32357">
        <ele>525.2</ele>
      </trkpt>
      <trkpt lat="47.47727" lon="8.32397">
        <ele>529.6</ele>
      </trkpt>
      <trkpt lat="47.47733" lon="8.32443">
        <ele>532.7</ele>
      </trkpt>
      <trkpt lat="47.47746" lon="8.32521">
        <ele>533.5</ele>
      </trkpt>
      <trkpt lat="47.47752" lon="8.32555">
        <ele>537.3</ele>
      </trkpt>
      <trkpt lat="47.47756" lon="8.32603">
        <ele>544.7</ele>
      </trkpt>
      <trkpt lat="47.47765" lon="8.32684">
        <ele>557.5</ele>
      </trkpt>
      <trkpt lat="47.47772" lon="8.32725">
        <ele>562.8</ele>
      </trkpt>
      <trkpt lat="47.47781" lon="8.32747">
        <ele>564.1</ele>
      </trkpt>
      <trkpt lat="47.47787" lon="8.32769">
        <ele>566.1</ele>
      </trkpt>
      <trkpt lat="47.4779" lon="8.32782">
        <ele>567.4</ele>
      </trkpt>
      <trkpt lat="47.47794" lon="8.32804">
        <ele>570</ele>
      </trkpt>
      <trkpt lat="47.478" lon="8.32833">
        <ele>572.9</ele>
      </trkpt>
      <trkpt lat="47.47805" lon="8.32886">
        <ele>577.1</ele>
      </trkpt>
      <trkpt lat="47.47807" lon="8.32925">
        <ele>580.9</ele>
      </trkpt>
      <trkpt lat="47.47806" lon="8.32979">
        <ele>588</ele>
      </trkpt>
      <trkpt lat="47.47814" lon="8.33019">
        <ele>591.2</ele>
      </trkpt>
      <trkpt lat="47.47818" lon="8.33045">
        <ele>594.3</ele>
      </trkpt>
      <trkpt lat="47.47826" lon="8.3311">
        <ele>602.2</ele>
      </trkpt>
      <trkpt lat="47.47835" lon="8.33185">
        <ele>610.9</ele>
      </trkpt>
      <trkpt lat="47.47843" lon="8.33246">
        <ele>616.4</ele>
      </trkpt>
      <trkpt lat="47.47853" lon="8.33289">
        <ele>619.6</ele>
      </trkpt>
      <trkpt lat="47.47861" lon="8.33354">
        <ele>626.5</ele>
      </trkpt>
      <trkpt lat="47.47866" lon="8.33378">
        <ele>628.6</ele>
      </trkpt>
      <trkpt lat="47.47882" lon="8.33418">
        <ele>630.6</ele>
      </trkpt>
      <trkpt lat="47.47894" lon="8.33473">
        <ele>634.5</ele>
      </trkpt>
      <trkpt lat="47.47911" lon="8.33544">
        <ele>639.4</ele>
      </trkpt>
      <trkpt lat="47.4793" lon="8.33609">
        <ele>643.6</ele>
      </trkpt>
      <trkpt lat="47.47942" lon="8.33674">
        <ele>650</ele>
      </trkpt>
      <trkpt lat="47.47974" lon="8.33898">
        <ele>669.4</ele>
      </trkpt>
      <trkpt lat="47.47985" lon="8.33984">
        <ele>674.8</ele>
      </trkpt>
      <trkpt lat="47.47988" lon="8.3401">
        <ele>676</ele>
      </trkpt>
      <trkpt lat="47.4802" lon="8.34104">
        <ele>673.6</ele>
      </trkpt>
      <trkpt lat="47.48024" lon="8.34154">
        <ele>678</ele>
      </trkpt>
      <trkpt lat="47.48028" lon="8.34225">
        <ele>684.3</ele>
      </trkpt>
      <trkpt lat="47.48031" lon="8.3429">
        <ele>690.6</ele>
      </trkpt>
      <trkpt lat="47.48034" lon="8.34356">
        <ele>697.9</ele>
      </trkpt>
      <trkpt lat="47.48038" lon="8.3439">
        <ele>701.6</ele>
      </trkpt>
      <trkpt lat="47.4804" lon="8.3442">
        <ele>705.2</ele>
      </trkpt>
      <trkpt lat="47.48037" lon="8.34444">
        <ele>709.3</ele>
      </trkpt>
      <trkpt lat="47.48034" lon="8.34459">
        <ele>712.2</ele>
      </trkpt>
      <trkpt lat="47.48057" lon="8.3457">
        <ele>717.4</ele>
      </trkpt>
      <trkpt lat="47.48076" lon="8.34678">
        <ele>720.5</ele>
      </trkpt>
      <trkpt lat="47.48085" lon="8.34759">
        <ele>719.6</ele>
      </trkpt>
      <trkpt lat="47.48082" lon="8.34825">
        <ele>720.8</ele>
      </trkpt>
      <trkpt lat="47.48078" lon="8.34872">
        <ele>724.3</ele>
      </trkpt>
      <trkpt lat="47.48071" lon="8.34909">
        <ele>729.9</ele>
      </trkpt>
      <trkpt lat="47.48061" lon="8.34943">
        <ele>737.4</ele>
      </trkpt>
      <trkpt lat="47.48056" lon="8.34975">
        <ele>742.5</ele>
      </trkpt>
      <trkpt lat="47.48051" lon="8.34995">
        <ele>746.2</ele>
      </trkpt>
      <trkpt lat="47.48045" lon="8.35012">
        <ele>750.7</ele>
      </trkpt>
      <trkpt lat="47.48034" lon="8.35057">
        <ele>758.7</ele>
      </trkpt>
      <trkpt lat="47.48029" lon="8.351">
        <ele>762.5</ele>
      </trkpt>
      <trkpt lat="47.48023" lon="8.35139">
        <ele>766.1</ele>
      </trkpt>
      <trkpt lat="47.48018" lon="8.35171">
        <ele>768.9</ele>
      </trkpt>
      <trkpt lat="47.48013" lon="8.35205">
        <ele>770.5</ele>
      </trkpt>
      <trkpt lat="47.48005" lon="8.35239">
        <ele>774.9</ele>
      </trkpt>
      <trkpt lat="47.47999" lon="8.35271">
        <ele>777.1</ele>
      </trkpt>
      <trkpt lat="47.47987" lon="8.35307">
        <ele>772.3</ele>
      </trkpt>
      <trkpt lat="47.4799" lon="8.35327">
        <ele>772.5</ele>
      </trkpt>
      <trkpt lat="47.4799" lon="8.35349">
        <ele>771.6</ele>
      </trkpt>
      <trkpt lat="47.47998" lon="8.35413">
        <ele>772.1</ele>
      </trkpt>
      <trkpt lat="47.47998" lon="8.35459">
        <ele>768.5</ele>
      </trkpt>
      <trkpt lat="47.47994" lon="8.35487">
        <ele>764.4</ele>
      </trkpt>
      <trkpt lat="47.47996" lon="8.35509">
        <ele>764.3</ele>
      </trkpt>
      <trkpt lat="47.48" lon="8.3552">
        <ele>766.7</ele>
      </trkpt>
      <trkpt lat="47.48003" lon="8.35544">
        <ele>766.3</ele>
      </trkpt>
      <trkpt lat="47.48006" lon="8.35643">
        <ele>770.1</ele>
      </trkpt>
      <trkpt lat="47.48003" lon="8.35664">
        <ele>772.5</ele>
      </trkpt>
      <trkpt lat="47.48007" lon="8.35701">
        <ele>773.1</ele>
      </trkpt>
      <trkpt lat="47.48013" lon="8.35932">
        <ele>784.6</ele>
      </trkpt>
      <trkpt lat="47.48026" lon="8.36034">
        <ele>793.2</ele>
      </trkpt>
      <trkpt lat="47.48035" lon="8.36114">
        <ele>803.5</ele>
      </trkpt>
      <trkpt lat="47.48039" lon="8.36148">
        <ele>807</ele>
      </trkpt>
      <trkpt lat="47.48043" lon="8.36167">
        <ele>808.9</ele>
      </trkpt>
      <trkpt lat="47.48047" lon="8.36185">
        <ele>812</ele>
      </trkpt>
      <trkpt lat="47.48051" lon="8.36216">
        <ele>818.1</ele>
      </trkpt>
      <trkpt lat="47.48052" lon="8.36231">
        <ele>821.2</ele>
      </trkpt>
      <trkpt lat="47.48056" lon="8.36263">
        <ele>826.7</ele>
      </trkpt>
      <trkpt lat="47.48057" lon="8.36276">
        <ele>828</ele>
      </trkpt>
      <trkpt lat="47.48061" lon="8.36283">
        <ele>829.7</ele>
      </trkpt>
      <trkpt lat="47.48073" lon="8.36314">
        <ele>835.8</ele>
      </trkpt>
      <trkpt lat="47.48075" lon="8.36321">
        <ele>837.1</ele>
      </trkpt>
      <trkpt lat="47.4808" lon="8.3633">
        <ele>839.7</ele>
      </trkpt>
      <trkpt lat="47.48085" lon="8.36333">
        <ele>840.4</ele>
      </trkpt>
      <trkpt lat="47.48085" lon="8.3634">
        <ele>840.2</ele>
      </trkpt>
      <trkpt lat="47.48088" lon="8.36347">
        <ele>839.1</ele>
      </trkpt>
      <trkpt lat="47.4809" lon="8.36363">
        <ele>838.1</ele>
      </trkpt>
      <trkpt lat="47.48088" lon="8.36383">
        <ele>838.5</ele>
      </trkpt>
      <trkpt lat="47.48096" lon="8.36426">
        <ele>835.5</ele>
      </trkpt>
      <trkpt lat="47.481" lon="8.36485">
        <ele>832.4</ele>
      </trkpt>
      <trkpt lat="47.48106" lon="8.36564">
        <ele>827.3</ele>
      </trkpt>
      <trkpt lat="47.48111" lon="8.36689">
        <ele>827.3</ele>
      </trkpt>
      <trkpt lat="47.48113" lon="8.36747">
        <ele>827.4</ele>
      </trkpt>
      <trkpt lat="47.48112" lon="8.36755">
        <ele>827.4</ele>
      </trkpt>
      <trkpt lat="47.4811" lon="8.36771">
        <ele>827.5</ele>
      </trkpt>
      <trkpt lat="47.48112" lon="8.36779">
        <ele>827.6</ele>
      </trkpt>
      <trkpt lat="47.48114" lon="8.3681">
        <ele>828</ele>
      </trkpt>
      <trkpt lat="47.48115" lon="8.36822">
        <ele>828.1</ele>
      </trkpt>
      <trkpt lat="47.48114" lon="8.36833">
        <ele>828.2</ele>
      </trkpt>
      <trkpt lat="47.48114" lon="8.36851">
        <ele>827.6</ele>
      </trkpt>
      <trkpt lat="47.48117" lon="8.36878">
        <ele>827</ele>
      </trkpt>
      <trkpt lat="47.4812" lon="8.36943">
        <ele>826.5</ele>
      </trkpt>
      <trkpt lat="47.48126" lon="8.37019">
        <ele>829.2</ele>
      </trkpt>
      <trkpt lat="47.48123" lon="8.37042">
        <ele>830</ele>
      </trkpt>
      <trkpt lat="47.48124" lon="8.37055">
        <ele>830.5</ele>
      </trkpt>
      <trkpt lat="47.48124" lon="8.3706">
        <ele>830.6</ele>
      </trkpt>
      <trkpt lat="47.48132" lon="8.37122">
        <ele>830.8</ele>
      </trkpt>
      <trkpt lat="47.48131" lon="8.37164">
        <ele>829.7</ele>
      </trkpt>
      <trkpt lat="47.48132" lon="8.37173">
        <ele>829.8</ele>
      </trkpt>
      <trkpt lat="47.48136" lon="8.37222">
        <ele>831.4</ele>
      </trkpt>
      <trkpt lat="47.48141" lon="8.37286">
        <ele>833.3</ele>
      </trkpt>
      <trkpt lat="47.48148" lon="8.3733">
        <ele>835.1</ele>
      </trkpt>
      <trkpt lat="47.48148" lon="8.3735">
        <ele>834.7</ele>
      </trkpt>
      <trkpt lat="47.48155" lon="8.37393">
        <ele>835.1</ele>
      </trkpt>
      <trkpt lat="47.48158" lon="8.37446">
        <ele>832.2</ele>
      </trkpt>
      <trkpt lat="47.48164" lon="8.37549">
        <ele>828.2</ele>
      </trkpt>
      <trkpt lat="47.48167" lon="8.37588">
        <ele>829</ele>
      </trkpt>
      <trkpt lat="47.48166" lon="8.3764">
        <ele>828.7</ele>
      </trkpt>
      <trkpt lat="47.48168" lon="8.37675">
        <ele>828.5</ele>
      </trkpt>
      <trkpt lat="47.4817" lon="8.37731">
        <ele>827.4</ele>
      </trkpt>
      <trkpt lat="47.4817" lon="8.37756">
        <ele>827.3</ele>
      </trkpt>
      <trkpt lat="47.48165" lon="8.3778">
        <ele>827.3</ele>
      </trkpt>
      <trkpt lat="47.48164" lon="8.37842">
        <ele>826.8</ele>
      </trkpt>
      <trkpt lat="47.48161" lon="8.37858">
        <ele>826.2</ele>
      </trkpt>
      <trkpt lat="47.48159" lon="8.37878">
        <ele>825.5</ele>
      </trkpt>
      <trkpt lat="47.48157" lon="8.37903">
        <ele>825</ele>
      </trkpt>
      <trkpt lat="47.48159" lon="8.37919">
        <ele>825.6</ele>
      </trkpt>
      <trkpt lat="47.48158" lon="8.37946">
        <ele>825.4</ele>
      </trkpt>
      <trkpt lat="47.4816" lon="8.37965">
        <ele>826.2</ele>
      </trkpt>
      <trkpt lat="47.4816" lon="8.37984">
        <ele>826.4</ele>
      </trkpt>
      <trkpt lat="47.48162" lon="8.38016">
        <ele>827.5</ele>
      </trkpt>
      <trkpt lat="47.48161" lon="8.38032">
        <ele>827.4</ele>
      </trkpt>
      <trkpt lat="47.48162" lon="8.38043">
        <ele>828.2</ele>
      </trkpt>
      <trkpt lat="47.48161" lon="8.38058">
        <ele>828.5</ele>
      </trkpt>
      <trkpt lat="47.48161" lon="8.38067">
        <ele>828.9</ele>
      </trkpt>
      <trkpt lat="47.48161" lon="8.38074">
        <ele>828.6</ele>
      </trkpt>
      <trkpt lat="47.48161" lon="8.38097">
        <ele>829.6</ele>
      </trkpt>
      <trkpt lat="47.48161" lon="8.38123">
        <ele>830.2</ele>
      </trkpt>
      <trkpt lat="47.48158" lon="8.38135">
        <ele>829</ele>
      </trkpt>
      <trkpt lat="47.48157" lon="8.3815">
        <ele>828.9</ele>
      </trkpt>
      <trkpt lat="47.48158" lon="8.38163">
        <ele>829.6</ele>
      </trkpt>
      <trkpt lat="47.48159" lon="8.38172">
        <ele>830.6</ele>
      </trkpt>
      <trkpt lat="47.48159" lon="8.38191">
        <ele>831.2</ele>
      </trkpt>
      <trkpt lat="47.48158" lon="8.38202">
        <ele>830.8</ele>
      </trkpt>
      <trkpt lat="47.4816" lon="8.38212">
        <ele>832.1</ele>
      </trkpt>
      <trkpt lat="47.48159" lon="8.38225">
        <ele>832.4</ele>
      </trkpt>
      <trkpt lat="47.48162" lon="8.38277">
        <ele>834.8</ele>
      </trkpt>
      <trkpt lat="47.48164" lon="8.38325">
        <ele>835.8</ele>
      </trkpt>
      <trkpt lat="47.48168" lon="8.38387">
        <ele>836.8</ele>
      </trkpt>
      <trkpt lat="47.48169" lon="8.38416">
        <ele>836.5</ele>
      </trkpt>
      <trkpt lat="47.48173" lon="8.38452">
        <ele>835.7</ele>
      </trkpt>
      <trkpt lat="47.48175" lon="8.38503">
        <ele>835.6</ele>
      </trkpt>
      <trkpt lat="47.48173" lon="8.38558">
        <ele>837.2</ele>
      </trkpt>
      <trkpt lat="47.48173" lon="8.38581">
        <ele>837.6</ele>
      </trkpt>
      <trkpt lat="47.48171" lon="8.38599">
        <ele>838.1</ele>
      </trkpt>
      <trkpt lat="47.48171" lon="8.38632">
        <ele>838</ele>
      </trkpt>
      <trkpt lat="47.4817" lon="8.38687">
        <ele>837.9</ele>
      </trkpt>
      <trkpt lat="47.48165" lon="8.38712">
        <ele>836.9</ele>
      </trkpt>
      <trkpt lat="47.48164" lon="8.38757">
        <ele>835.9</ele>
      </trkpt>
      <trkpt lat="47.4816" lon="8.38771">
        <ele>834.3</ele>
      </trkpt>
      <trkpt lat="47.4816" lon="8.38794">
        <ele>834.9</ele>
      </trkpt>
      <trkpt lat="47.4816" lon="8.38819">
        <ele>835.8</ele>
      </trkpt>
      <trkpt lat="47.48157" lon="8.38841">
        <ele>833.8</ele>
      </trkpt>
      <trkpt lat="47.48162" lon="8.38887">
        <ele>835.8</ele>
      </trkpt>
      <trkpt lat="47.48159" lon="8.38898">
        <ele>833.9</ele>
      </trkpt>
      <trkpt lat="47.48161" lon="8.38919">
        <ele>834.9</ele>
      </trkpt>
      <trkpt lat="47.4816" lon="8.38943">
        <ele>834.6</ele>
      </trkpt>
      <trkpt lat="47.48161" lon="8.38959">
        <ele>836.2</ele>
      </trkpt>
      <trkpt lat="47.48165" lon="8.38983">
        <ele>839.5</ele>
      </trkpt>
      <trkpt lat="47.48165" lon="8.39002">
        <ele>839.6</ele>
      </trkpt>
      <trkpt lat="47.48166" lon="8.39015">
        <ele>840.2</ele>
      </trkpt>
      <trkpt lat="47.48164" lon="8.39043">
        <ele>838.3</ele>
      </trkpt>
      <trkpt lat="47.48165" lon="8.39059">
        <ele>838.4</ele>
      </trkpt>
      <trkpt lat="47.48168" lon="8.3907">
        <ele>839.1</ele>
      </trkpt>
      <trkpt lat="47.48167" lon="8.39084">
        <ele>839</ele>
      </trkpt>
      <trkpt lat="47.48168" lon="8.39099">
        <ele>838.8</ele>
      </trkpt>
      <trkpt lat="47.48166" lon="8.39119">
        <ele>838.7</ele>
      </trkpt>
      <trkpt lat="47.48168" lon="8.39139">
        <ele>838.7</ele>
      </trkpt>
      <trkpt lat="47.4817" lon="8.39179">
        <ele>838.8</ele>
      </trkpt>
      <trkpt lat="47.48173" lon="8.39213">
        <ele>839.9</ele>
      </trkpt>
      <trkpt lat="47.48172" lon="8.39235">
        <ele>841.1</ele>
      </trkpt>
      <trkpt lat="47.48175" lon="8.39246">
        <ele>840.7</ele>
      </trkpt>
      <trkpt lat="47.48176" lon="8.39277">
        <ele>840.9</ele>
      </trkpt>
      <trkpt lat="47.48174" lon="8.39355">
        <ele>842.3</ele>
      </trkpt>
      <trkpt lat="47.48176" lon="8.39371">
        <ele>842.3</ele>
      </trkpt>
      <trkpt lat="47.4817" lon="8.39377">
        <ele>843.9</ele>
      </trkpt>
      <trkpt lat="47.48166" lon="8.39387">
        <ele>844.8</ele>
      </trkpt>
      <trkpt lat="47.48168" lon="8.39423">
        <ele>845.4</ele>
      </trkpt>
      <trkpt lat="47.48167" lon="8.39444">
        <ele>844.9</ele>
      </trkpt>
      <trkpt lat="47.48165" lon="8.39452">
        <ele>844</ele>
      </trkpt>
      <trkpt lat="47.48169" lon="8.39484">
        <ele>843.1</ele>
      </trkpt>
      <trkpt lat="47.48176" lon="8.39506">
        <ele>841</ele>
      </trkpt>
      <trkpt lat="47.48179" lon="8.39544">
        <ele>838.3</ele>
      </trkpt>
      <trkpt lat="47.48187" lon="8.39597">
        <ele>835</ele>
      </trkpt>
      <trkpt lat="47.48196" lon="8.39651">
        <ele>833.5</ele>
      </trkpt>
      <trkpt lat="47.48199" lon="8.39679">
        <ele>833</ele>
      </trkpt>
      <trkpt lat="47.482" lon="8.39709">
        <ele>832.6</ele>
      </trkpt>
      <trkpt lat="47.48199" lon="8.3972">
        <ele>832.6</ele>
      </trkpt>
      <trkpt lat="47.48197" lon="8.39753">
        <ele>832.6</ele>
      </trkpt>
      <trkpt lat="47.48197" lon="8.39803">
        <ele>832.8</ele>
      </trkpt>
      <trkpt lat="47.48193" lon="8.39851">
        <ele>833.9</ele>
      </trkpt>
      <trkpt lat="47.48192" lon="8.39905">
        <ele>835</ele>
      </trkpt>
      <trkpt lat="47.48193" lon="8.39946">
        <ele>835.8</ele>
      </trkpt>
      <trkpt lat="47.48195" lon="8.39964">
        <ele>835.7</ele>
      </trkpt>
      <trkpt lat="47.48199" lon="8.39981">
        <ele>835.1</ele>
      </trkpt>
      <trkpt lat="47.48199" lon="8.39994">
        <ele>835.3</ele>
      </trkpt>
      <trkpt lat="47.48195" lon="8.40012">
        <ele>836.2</ele>
      </trkpt>
      <trkpt lat="47.48192" lon="8.40034">
        <ele>836.2</ele>
      </trkpt>
      <trkpt lat="47.4819" lon="8.40042">
        <ele>836.3</ele>
      </trkpt>
      <trkpt lat="47.48187" lon="8.4005">
        <ele>837</ele>
      </trkpt>
      <trkpt lat="47.48182" lon="8.40059">
        <ele>838.2</ele>
      </trkpt>
      <trkpt lat="47.48173" lon="8.40078">
        <ele>840.3</ele>
      </trkpt>
      <trkpt lat="47.4817" lon="8.40097">
        <ele>840.9</ele>
      </trkpt>
      <trkpt lat="47.48164" lon="8.40113">
        <ele>841</ele>
      </trkpt>
      <trkpt lat="47.48163" lon="8.40123">
        <ele>840.7</ele>
      </trkpt>
      <trkpt lat="47.48165" lon="8.40146">
        <ele>841.3</ele>
      </trkpt>
      <trkpt lat="47.48172" lon="8.40181">
        <ele>840.9</ele>
      </trkpt>
      <trkpt lat="47.48174" lon="8.40195">
        <ele>840.8</ele>
      </trkpt>
      <trkpt lat="47.48174" lon="8.40206">
        <ele>840.8</ele>
      </trkpt>
      <trkpt lat="47.48174" lon="8.40224">
        <ele>841.3</ele>
      </trkpt>
      <trkpt lat="47.48172" lon="8.40252">
        <ele>842.6</ele>
      </trkpt>
      <trkpt lat="47.4817" lon="8.40279">
        <ele>843.7</ele>
      </trkpt>
      <trkpt lat="47.48169" lon="8.40293">
        <ele>844.3</ele>
      </trkpt>
      <trkpt lat="47.4817" lon="8.40309">
        <ele>844.5</ele>
      </trkpt>
      <trkpt lat="47.48171" lon="8.40338">
        <ele>844.5</ele>
      </trkpt>
      <trkpt lat="47.48175" lon="8.40369">
        <ele>842.8</ele>
      </trkpt>
      <trkpt lat="47.48179" lon="8.40408">
        <ele>840.7</ele>
      </trkpt>
      <trkpt lat="47.48181" lon="8.40435">
        <ele>839.7</ele>
      </trkpt>
      <trkpt lat="47.48181" lon="8.4045">
        <ele>839.5</ele>
      </trkpt>
      <trkpt lat="47.4818" lon="8.40465">
        <ele>839.7</ele>
      </trkpt>
      <trkpt lat="47.48176" lon="8.40485">
        <ele>841</ele>
      </trkpt>
      <trkpt lat="47.48167" lon="8.40526">
        <ele>843.1</ele>
      </trkpt>
      <trkpt lat="47.48163" lon="8.40544">
        <ele>840.4</ele>
      </trkpt>
      <trkpt lat="47.48163" lon="8.40549">
        <ele>840.1</ele>
      </trkpt>
      <trkpt lat="47.48161" lon="8.40574">
        <ele>838.6</ele>
      </trkpt>
      <trkpt lat="47.48164" lon="8.40598">
        <ele>838.1</ele>
      </trkpt>
      <trkpt lat="47.48175" lon="8.40652">
        <ele>831.5</ele>
      </trkpt>
      <trkpt lat="47.4818" lon="8.40679">
        <ele>829.1</ele>
      </trkpt>
      <trkpt lat="47.48183" lon="8.4069">
        <ele>828.8</ele>
      </trkpt>
      <trkpt lat="47.48185" lon="8.40753">
        <ele>829.3</ele>
      </trkpt>
      <trkpt lat="47.48178" lon="8.40818">
        <ele>826.1</ele>
      </trkpt>
      <trkpt lat="47.48177" lon="8.40829">
        <ele>825.6</ele>
      </trkpt>
      <trkpt lat="47.48173" lon="8.4088">
        <ele>824.1</ele>
      </trkpt>
      <trkpt lat="47.48166" lon="8.40935">
        <ele>822.4</ele>
      </trkpt>
      <trkpt lat="47.48164" lon="8.40951">
        <ele>820.5</ele>
      </trkpt>
      <trkpt lat="47.48162" lon="8.41011">
        <ele>815.7</ele>
      </trkpt>
      <trkpt lat="47.48161" lon="8.41043">
        <ele>812</ele>
      </trkpt>
      <trkpt lat="47.48159" lon="8.41076">
        <ele>807.9</ele>
      </trkpt>
      <trkpt lat="47.48157" lon="8.41099">
        <ele>805</ele>
      </trkpt>
      <trkpt lat="47.48157" lon="8.41135">
        <ele>801.4</ele>
      </trkpt>
      <trkpt lat="47.48157" lon="8.41182">
        <ele>797.7</ele>
      </trkpt>
      <trkpt lat="47.48155" lon="8.41263">
        <ele>794.9</ele>
      </trkpt>
      <trkpt lat="47.48152" lon="8.41282">
        <ele>794.5</ele>
      </trkpt>
      <trkpt lat="47.48149" lon="8.41304">
        <ele>794.1</ele>
      </trkpt>
      <trkpt lat="47.48144" lon="8.41335">
        <ele>793.2</ele>
      </trkpt>
      <trkpt lat="47.4814" lon="8.4136">
        <ele>791.9</ele>
      </trkpt>
      <trkpt lat="47.4814" lon="8.41374">
        <ele>792</ele>
      </trkpt>
      <trkpt lat="47.48144" lon="8.414">
        <ele>792.9</ele>
      </trkpt>
      <trkpt lat="47.48149" lon="8.41421">
        <ele>794.6</ele>
      </trkpt>
      <trkpt lat="47.4815" lon="8.41444">
        <ele>796.4</ele>
      </trkpt>
      <trkpt lat="47.48147" lon="8.41463">
        <ele>796.6</ele>
      </trkpt>
      <trkpt lat="47.48141" lon="8.41488">
        <ele>796.7</ele>
      </trkpt>
      <trkpt lat="47.48138" lon="8.415">
        <ele>796.8</ele>
      </trkpt>
      <trkpt lat="47.48134" lon="8.41557">
        <ele>795.6</ele>
      </trkpt>
      <trkpt lat="47.48136" lon="8.41607">
        <ele>795.9</ele>
      </trkpt>
      <trkpt lat="47.48149" lon="8.41665">
        <ele>797.4</ele>
      </trkpt>
      <trkpt lat="47.48148" lon="8.41692">
        <ele>796.5</ele>
      </trkpt>
      <trkpt lat="47.48137" lon="8.41718">
        <ele>794.4</ele>
      </trkpt>
      <trkpt lat="47.48104" lon="8.4175">
        <ele>790.8</ele>
      </trkpt>
      <trkpt lat="47.48099" lon="8.41757">
        <ele>790.2</ele>
      </trkpt>
      <trkpt lat="47.48085" lon="8.41775">
        <ele>788.9</ele>
      </trkpt>
      <trkpt lat="47.48073" lon="8.41793">
        <ele>787.1</ele>
      </trkpt>
      <trkpt lat="47.48063" lon="8.41799">
        <ele>785.5</ele>
      </trkpt>
      <trkpt lat="47.48056" lon="8.41797">
        <ele>784.5</ele>
      </trkpt>
      <trkpt lat="47.48029" lon="8.41757">
        <ele>780.6</ele>
      </trkpt>
      <trkpt lat="47.48022" lon="8.4175">
        <ele>779.4</ele>
      </trkpt>
      <trkpt lat="47.4801" lon="8.41743">
        <ele>777</ele>
      </trkpt>
      <trkpt lat="47.47992" lon="8.41738">
        <ele>774.3</ele>
      </trkpt>
      <trkpt lat="47.47963" lon="8.41742">
        <ele>772.8</ele>
      </trkpt>
      <trkpt lat="47.47972" lon="8.41757">
        <ele>773.9</ele>
      </trkpt>
      <trkpt lat="47.47977" lon="8.41782">
        <ele>774.3</ele>
      </trkpt>
      <trkpt lat="47.47973" lon="8.41824">
        <ele>773.8</ele>
      </trkpt>
      <trkpt lat="47.47973" lon="8.41872">
        <ele>772.5</ele>
      </trkpt>
      <trkpt lat="47.4799" lon="8.41946">
        <ele>770.7</ele>
      </trkpt>
      <trkpt lat="47.48005" lon="8.42005">
        <ele>767.4</ele>
      </trkpt>
      <trkpt lat="47.48034" lon="8.42153">
        <ele>759.5</ele>
      </trkpt>
      <trkpt lat="47.48049" lon="8.42206">
        <ele>756.6</ele>
      </trkpt>
      <trkpt lat="47.48058" lon="8.42243">
        <ele>754.4</ele>
      </trkpt>
      <trkpt lat="47.48065" lon="8.42283">
        <ele>751.8</ele>
      </trkpt>
      <trkpt lat="47.48076" lon="8.42319">
        <ele>750.2</ele>
      </trkpt>
      <trkpt lat="47.48089" lon="8.42339">
        <ele>749.5</ele>
      </trkpt>
      <trkpt lat="47.48096" lon="8.42349">
        <ele>748.6</ele>
      </trkpt>
      <trkpt lat="47.48102" lon="8.42356">
        <ele>747.9</ele>
      </trkpt>
      <trkpt lat="47.4811" lon="8.42361">
        <ele>747.4</ele>
      </trkpt>
      <trkpt lat="47.48121" lon="8.4236">
        <ele>747.7</ele>
      </trkpt>
      <trkpt lat="47.4813" lon="8.42353">
        <ele>748.7</ele>
      </trkpt>
      <trkpt lat="47.48142" lon="8.42344">
        <ele>750.1</ele>
      </trkpt>
      <trkpt lat="47.48157" lon="8.42343">
        <ele>750.5</ele>
      </trkpt>
      <trkpt lat="47.48169" lon="8.42355">
        <ele>748.8</ele>
      </trkpt>
      <trkpt lat="47.48208" lon="8.42391">
        <ele>738</ele>
      </trkpt>
      <trkpt lat="47.48221" lon="8.42409">
        <ele>734.4</ele>
      </trkpt>
      <trkpt lat="47.48226" lon="8.42425">
        <ele>732.3</ele>
      </trkpt>
      <trkpt lat="47.48226" lon="8.42447">
        <ele>730.1</ele>
      </trkpt>
      <trkpt lat="47.48216" lon="8.42477">
        <ele>728.6</ele>
      </trkpt>
      <trkpt lat="47.4819" lon="8.42557">
        <ele>725.4</ele>
      </trkpt>
      <trkpt lat="47.48185" lon="8.42576">
        <ele>724.5</ele>
      </trkpt>
      <trkpt lat="47.48182" lon="8.42603">
        <ele>722.7</ele>
      </trkpt>
      <trkpt lat="47.48184" lon="8.42656">
        <ele>717.9</ele>
      </trkpt>
      <trkpt lat="47.48201" lon="8.42767">
        <ele>704.7</ele>
      </trkpt>
      <trkpt lat="47.48207" lon="8.42816">
        <ele>699.3</ele>
      </trkpt>
      <trkpt lat="47.48211" lon="8.42843">
        <ele>696.3</ele>
      </trkpt>
      <trkpt lat="47.48216" lon="8.42895">
        <ele>691.1</ele>
      </trkpt>
      <trkpt lat="47.4822" lon="8.42951">
        <ele>686.2</ele>
      </trkpt>
      <trkpt lat="47.48224" lon="8.42982">
        <ele>683.6</ele>
      </trkpt>
      <trkpt lat="47.48232" lon="8.43012">
        <ele>681.2</ele>
      </trkpt>
      <trkpt lat="47.48242" lon="8.43047">
        <ele>679.2</ele>
      </trkpt>
      <trkpt lat="47.48247" lon="8.43084">
        <ele>677.8</ele>
      </trkpt>
      <trkpt lat="47.48248" lon="8.43096">
        <ele>676.5</ele>
      </trkpt>
      <trkpt lat="47.4825" lon="8.43127">
        <ele>673.3</ele>
      </trkpt>
      <trkpt lat="47.48254" lon="8.43209">
        <ele>663.5</ele>
      </trkpt>
      <trkpt lat="47.48255" lon="8.4324">
        <ele>659.6</ele>
      </trkpt>
      <trkpt lat="47.48251" lon="8.43258">
        <ele>657.8</ele>
      </trkpt>
      <trkpt lat="47.48248" lon="8.43261">
        <ele>657.2</ele>
      </trkpt>
      <trkpt lat="47.4824" lon="8.43286">
        <ele>652.7</ele>
      </trkpt>
      <trkpt lat="47.48206" lon="8.43307">
        <ele>643.7</ele>
      </trkpt>
      <trkpt lat="47.48185" lon="8.4331">
        <ele>639.3</ele>
      </trkpt>
      <trkpt lat="47.48147" lon="8.43318">
        <ele>630</ele>
      </trkpt>
      <trkpt lat="47.48148" lon="8.43331">
        <ele>627.3</ele>
      </trkpt>
      <trkpt lat="47.48154" lon="8.43401">
        <ele>614.4</ele>
      </trkpt>
      <trkpt lat="47.48156" lon="8.43413">
        <ele>612.4</ele>
      </trkpt>
      <trkpt lat="47.48163" lon="8.43444">
        <ele>608.3</ele>
      </trkpt>
      <trkpt lat="47.4817" lon="8.4347">
        <ele>604.4</ele>
      </trkpt>
      <trkpt lat="47.48178" lon="8.435">
        <ele>598.9</ele>
      </trkpt>
      <trkpt lat="47.48181" lon="8.43518">
        <ele>597.7</ele>
      </trkpt>
      <trkpt lat="47.48182" lon="8.43529">
        <ele>596.8</ele>
      </trkpt>
      <trkpt lat="47.48189" lon="8.43545">
        <ele>596</ele>
      </trkpt>
      <trkpt lat="47.48196" lon="8.43568">
        <ele>594.5</ele>
      </trkpt>
      <trkpt lat="47.48209" lon="8.43612">
        <ele>592.4</ele>
      </trkpt>
      <trkpt lat="47.48214" lon="8.43628">
        <ele>591.9</ele>
      </trkpt>
      <trkpt lat="47.48217" lon="8.43638">
        <ele>591.8</ele>
      </trkpt>
      <trkpt lat="47.48218" lon="8.4364">
        <ele>591.8</ele>
      </trkpt>
      <trkpt lat="47.48223" lon="8.43649">
        <ele>591.9</ele>
      </trkpt>
      <trkpt lat="47.48227" lon="8.43654">
        <ele>592.2</ele>
      </trkpt>
      <trkpt lat="47.4823" lon="8.43656">
        <ele>592.6</ele>
      </trkpt>
      <trkpt lat="47.48234" lon="8.43666">
        <ele>592.6</ele>
      </trkpt>
      <trkpt lat="47.48239" lon="8.4368">
        <ele>594</ele>
      </trkpt>
      <trkpt lat="47.48244" lon="8.43692">
        <ele>595.3</ele>
      </trkpt>
      <trkpt lat="47.48247" lon="8.43704">
        <ele>596.6</ele>
      </trkpt>
      <trkpt lat="47.48248" lon="8.43716">
        <ele>597.5</ele>
      </trkpt>
      <trkpt lat="47.48245" lon="8.43776">
        <ele>597.8</ele>
      </trkpt>
      <trkpt lat="47.48248" lon="8.43808">
        <ele>598.4</ele>
      </trkpt>
      <trkpt lat="47.4825" lon="8.4383">
        <ele>598.9</ele>
      </trkpt>
      <trkpt lat="47.48253" lon="8.43851">
        <ele>597.7</ele>
      </trkpt>
      <trkpt lat="47.48258" lon="8.43869">
        <ele>596.9</ele>
      </trkpt>
      <trkpt lat="47.48261" lon="8.4388">
        <ele>596.6</ele>
      </trkpt>
      <trkpt lat="47.48265" lon="8.43887">
        <ele>596.5</ele>
      </trkpt>
      <trkpt lat="47.4827" lon="8.43891">
        <ele>597.1</ele>
      </trkpt>
      <trkpt lat="47.48282" lon="8.43896">
        <ele>598.8</ele>
      </trkpt>
      <trkpt lat="47.4829" lon="8.43897">
        <ele>600</ele>
      </trkpt>
      <trkpt lat="47.48299" lon="8.43903">
        <ele>601.4</ele>
      </trkpt>
      <trkpt lat="47.48307" lon="8.43924">
        <ele>602.3</ele>
      </trkpt>
      <trkpt lat="47.48317" lon="8.43948">
        <ele>602.2</ele>
      </trkpt>
      <trkpt lat="47.48324" lon="8.43969">
        <ele>602.3</ele>
      </trkpt>
      <trkpt lat="47.48331" lon="8.44009">
        <ele>601.2</ele>
      </trkpt>
      <trkpt lat="47.48333" lon="8.4403">
        <ele>599.5</ele>
      </trkpt>
      <trkpt lat="47.48333" lon="8.44031">
        <ele>599.4</ele>
      </trkpt>
      <trkpt lat="47.48333" lon="8.44037">
        <ele>598.9</ele>
      </trkpt>
      <trkpt lat="47.48334" lon="8.44051">
        <ele>597.4</ele>
      </trkpt>
      <trkpt lat="47.48335" lon="8.44068">
        <ele>595.2</ele>
      </trkpt>
      <trkpt lat="47.48336" lon="8.44091">
        <ele>592.4</ele>
      </trkpt>
      <trkpt lat="47.48337" lon="8.4412">
        <ele>588.6</ele>
      </trkpt>
      <trkpt lat="47.48348" lon="8.44141">
        <ele>583.4</ele>
      </trkpt>
      <trkpt lat="47.48359" lon="8.44149">
        <ele>579.8</ele>
      </trkpt>
      <trkpt lat="47.48364" lon="8.44157">
        <ele>577.7</ele>
      </trkpt>
      <trkpt lat="47.48367" lon="8.44172">
        <ele>574.3</ele>
      </trkpt>
      <trkpt lat="47.4837" lon="8.44181">
        <ele>571.9</ele>
      </trkpt>
      <trkpt lat="47.48372" lon="8.44188">
        <ele>569.8</ele>
      </trkpt>
      <trkpt lat="47.48378" lon="8.4419">
        <ele>567.9</ele>
      </trkpt>
      <trkpt lat="47.48381" lon="8.44198">
        <ele>565.5</ele>
      </trkpt>
      <trkpt lat="47.4838" lon="8.44214">
        <ele>562.4</ele>
      </trkpt>
      <trkpt lat="47.4837" lon="8.44226">
        <ele>562.2</ele>
      </trkpt>
      <trkpt lat="47.48366" lon="8.44236">
        <ele>561</ele>
      </trkpt>
      <trkpt lat="47.48366" lon="8.44246">
        <ele>558.9</ele>
      </trkpt>
      <trkpt lat="47.48371" lon="8.44253">
        <ele>556.5</ele>
      </trkpt>
      <trkpt lat="47.4838" lon="8.44267">
        <ele>553.3</ele>
      </trkpt>
      <trkpt lat="47.48391" lon="8.4431">
        <ele>547.8</ele>
      </trkpt>
      <trkpt lat="47.48391" lon="8.44317">
        <ele>547.2</ele>
      </trkpt>
      <trkpt lat="47.4839" lon="8.44324">
        <ele>546.7</ele>
      </trkpt>
      <trkpt lat="47.48386" lon="8.44333">
        <ele>546.2</ele>
      </trkpt>
      <trkpt lat="47.48388" lon="8.44341">
        <ele>545.5</ele>
      </trkpt>
      <trkpt lat="47.48364" lon="8.44381">
        <ele>542.8</ele>
      </trkpt>
      <trkpt lat="47.48362" lon="8.44395">
        <ele>541.3</ele>
      </trkpt>
      <trkpt lat="47.48367" lon="8.44424">
        <ele>538.5</ele>
      </trkpt>
      <trkpt lat="47.48367" lon="8.44428">
        <ele>538.1</ele>
      </trkpt>
      <trkpt lat="47.48374" lon="8.44449">
        <ele>536.5</ele>
      </trkpt>
      <trkpt lat="47.4838" lon="8.44465">
        <ele>535.3</ele>
      </trkpt>
      <trkpt lat="47.4838" lon="8.44475">
        <ele>534.5</ele>
      </trkpt>
      <trkpt lat="47.48382" lon="8.4449">
        <ele>533.3</ele>
      </trkpt>
      <trkpt lat="47.48394" lon="8.44562">
        <ele>525</ele>
      </trkpt>
      <trkpt lat="47.48398" lon="8.44613">
        <ele>519</ele>
      </trkpt>
      <trkpt lat="47.48404" lon="8.44663">
        <ele>513.4</ele>
      </trkpt>
      <trkpt lat="47.48406" lon="8.44749">
        <ele>506.1</ele>
      </trkpt>
      <trkpt lat="47.48406" lon="8.44751">
        <ele>505.9</ele>
      </trkpt>
      <trkpt lat="47.48406" lon="8.44804">
        <ele>500.3</ele>
      </trkpt>
      <trkpt lat="47.48406" lon="8.44827">
        <ele>497.8</ele>
      </trkpt>
      <trkpt lat="47.48406" lon="8.44842">
        <ele>496.6</ele>
      </trkpt>
      <trkpt lat="47.48406" lon="8.44849">
        <ele>496.1</ele>
      </trkpt>
      <trkpt lat="47.48408" lon="8.44898">
        <ele>493</ele>
      </trkpt>
      <trkpt lat="47.48402" lon="8.44959">
        <ele>488</ele>
      </trkpt>
      <trkpt lat="47.484" lon="8.44985">
        <ele>485.7</ele>
      </trkpt>
      <trkpt lat="47.48394" lon="8.45036">
        <ele>481.1</ele>
      </trkpt>
      <trkpt lat="47.48393" lon="8.45042">
        <ele>480.6</ele>
      </trkpt>
      <trkpt lat="47.4839" lon="8.45076">
        <ele>477.4</ele>
      </trkpt>
      <trkpt lat="47.48385" lon="8.45129">
        <ele>471.4</ele>
      </trkpt>
      <trkpt lat="47.48373" lon="8.45187">
        <ele>464.5</ele>
      </trkpt>
      <trkpt lat="47.48361" lon="8.45189">
        <ele>463.5</ele>
      </trkpt>
      <trkpt lat="47.48362" lon="8.45196">
        <ele>462.9</ele>
      </trkpt>
      <trkpt lat="47.48358" lon="8.45234">
        <ele>459.5</ele>
      </trkpt>
      <trkpt lat="47.48363" lon="8.45257">
        <ele>458</ele>
      </trkpt>
      <trkpt lat="47.48356" lon="8.45262">
        <ele>457.4</ele>
      </trkpt>
      <trkpt lat="47.48359" lon="8.45268">
        <ele>457.1</ele>
      </trkpt>
      <trkpt lat="47.48361" lon="8.45274">
        <ele>456.9</ele>
      </trkpt>
      <trkpt lat="47.48354" lon="8.45279">
        <ele>456.3</ele>
      </trkpt>
      <trkpt lat="47.48344" lon="8.45289">
        <ele>455.4</ele>
      </trkpt>
      <trkpt lat="47.48339" lon="8.45295">
        <ele>455</ele>
      </trkpt>
      <trkpt lat="47.48339" lon="8.45299">
        <ele>454.8</ele>
      </trkpt>
      <trkpt lat="47.4834" lon="8.45302">
        <ele>454.6</ele>
      </trkpt>
      <trkpt lat="47.48347" lon="8.45317">
        <ele>454</ele>
      </trkpt>
      <trkpt lat="47.4835" lon="8.45325">
        <ele>453.7</ele>
      </trkpt>
      <trkpt lat="47.48357" lon="8.45348">
        <ele>452.3</ele>
      </trkpt>
      <trkpt lat="47.48358" lon="8.45352">
        <ele>452.1</ele>
      </trkpt>
      <trkpt lat="47.48357" lon="8.45356">
        <ele>451.9</ele>
      </trkpt>
      <trkpt lat="47.48357" lon="8.45362">
        <ele>451.5</ele>
      </trkpt>
      <trkpt lat="47.48355" lon="8.45375">
        <ele>450.6</ele>
      </trkpt>
      <trkpt lat="47.48352" lon="8.45388">
        <ele>449.8</ele>
      </trkpt>
      <trkpt lat="47.48352" lon="8.45392">
        <ele>449.5</ele>
      </trkpt>
      <trkpt lat="47.48352" lon="8.45397">
        <ele>449.2</ele>
      </trkpt>
      <trkpt lat="47.48352" lon="8.454">
        <ele>449</ele>
      </trkpt>
      <trkpt lat="47.48357" lon="8.4543">
        <ele>447.5</ele>
      </trkpt>
      <trkpt lat="47.48358" lon="8.45446">
        <ele>447</ele>
      </trkpt>
      <trkpt lat="47.48358" lon="8.45458">
        <ele>446.6</ele>
      </trkpt>
      <trkpt lat="47.48362" lon="8.45465">
        <ele>446.3</ele>
      </trkpt>
      <trkpt lat="47.48379" lon="8.45496">
        <ele>444.5</ele>
      </trkpt>
      <trkpt lat="47.48394" lon="8.45524">
        <ele>442.2</ele>
      </trkpt>
      <trkpt lat="47.48398" lon="8.45534">
        <ele>441.3</ele>
      </trkpt>
      <trkpt lat="47.48398" lon="8.4555">
        <ele>440.2</ele>
      </trkpt>
      <trkpt lat="47.48402" lon="8.45557">
        <ele>439.6</ele>
      </trkpt>
      <trkpt lat="47.48408" lon="8.45567">
        <ele>438.6</ele>
      </trkpt>
      <trkpt lat="47.48419" lon="8.45582">
        <ele>437</ele>
      </trkpt>
      <trkpt lat="47.48429" lon="8.45596">
        <ele>435.8</ele>
      </trkpt>
      <trkpt lat="47.48436" lon="8.45609">
        <ele>434.8</ele>
      </trkpt>
      <trkpt lat="47.48439" lon="8.45615">
        <ele>434.4</ele>
      </trkpt>
      <trkpt lat="47.48443" lon="8.45624">
        <ele>433.8</ele>
      </trkpt>
      <trkpt lat="47.4844" lon="8.45628">
        <ele>433.6</ele>
      </trkpt>
      <trkpt lat="47.48439" lon="8.45624">
        <ele>433.9</ele>
      </trkpt>
      <trkpt lat="47.48434" lon="8.45632">
        <ele>433.6</ele>
      </trkpt>
      <trkpt lat="47.48428" lon="8.45643">
        <ele>433.1</ele>
      </trkpt>
      <trkpt lat="47.48423" lon="8.45658">
        <ele>432.4</ele>
      </trkpt>
      <trkpt lat="47.4842" lon="8.45676">
        <ele>431.7</ele>
      </trkpt>
      <trkpt lat="47.48419" lon="8.45682">
        <ele>431.6</ele>
      </trkpt>
      <trkpt lat="47.48414" lon="8.45704">
        <ele>431.2</ele>
      </trkpt>
      <trkpt lat="47.48408" lon="8.45723">
        <ele>430.9</ele>
      </trkpt>
      <trkpt lat="47.48403" lon="8.45733">
        <ele>430.7</ele>
      </trkpt>
      <trkpt lat="47.48397" lon="8.45743">
        <ele>430.5</ele>
      </trkpt>
      <trkpt lat="47.48392" lon="8.4575">
        <ele>430.3</ele>
      </trkpt>
      <trkpt lat="47.48391" lon="8.45752">
        <ele>430.3</ele>
      </trkpt>
      <trkpt lat="47.48358" lon="8.4579">
        <ele>429.4</ele>
      </trkpt>
      <trkpt lat="47.48348" lon="8.45801">
        <ele>429.1</ele>
      </trkpt>
      <trkpt lat="47.4834" lon="8.45809">
        <ele>428.9</ele>
      </trkpt>
      <trkpt lat="47.48321" lon="8.45828">
        <ele>428.7</ele>
      </trkpt>
      <trkpt lat="47.48302" lon="8.45846">
        <ele>429</ele>
      </trkpt>
      <trkpt lat="47.48295" lon="8.45851">
        <ele>429.2</ele>
      </trkpt>
      <trkpt lat="47.48281" lon="8.45864">
        <ele>429.4</ele>
      </trkpt>
      <trkpt lat="47.48275" lon="8.45869">
        <ele>429.5</ele>
      </trkpt>
      <trkpt lat="47.48272" lon="8.45871">
        <ele>429.5</ele>
      </trkpt>
      <trkpt lat="47.4827" lon="8.45872">
        <ele>429.6</ele>
      </trkpt>
      <trkpt lat="47.48266" lon="8.45872">
        <ele>429.7</ele>
      </trkpt>
      <trkpt lat="47.48264" lon="8.4587">
        <ele>429.8</ele>
      </trkpt>
      <trkpt lat="47.48262" lon="8.45867">
        <ele>429.9</ele>
      </trkpt>
      <trkpt lat="47.48262" lon="8.45867">
        <ele>429.9</ele>
      </trkpt>
      <trkpt lat="47.48359" lon="8.47057">
        <ele>410.8</ele>
      </trkpt>
      <trkpt lat="47.48346" lon="8.47311">
        <ele>410.6</ele>
      </trkpt>
      <trkpt lat="47.48825" lon="8.47532">
        <ele>411.2</ele>
      </trkpt>
      <trkpt lat="47.49207" lon="8.47565">
        <ele>409.8</ele>
      </trkpt>
      <trkpt lat="47.49344" lon="8.47747">
        <ele>411.3</ele>
      </trkpt>
      <trkpt lat="47.49603" lon="8.48456">
        <ele>408.7</ele>
      </trkpt>
      <trkpt lat="47.50073" lon="8.49406">
        <ele>407.3</ele>
      </trkpt>
      <trkpt lat="47.50346" lon="8.49971">
        <ele>408.9</ele>
      </trkpt>
      <trkpt lat="47.5093" lon="8.50518">
        <ele>404.7</ele>
      </trkpt>
      <trkpt lat="47.51374" lon="8.51786">
        <ele>406</ele>
      </trkpt>
      <trkpt lat="47.5173" lon="8.53198">
        <ele>416</ele>
      </trkpt>
      <trkpt lat="47.5223" lon="8.53887">
        <ele>427</ele>
      </trkpt>
      <trkpt lat="47.5223" lon="8.53887">
        <ele>427</ele>
      </trkpt>
      <trkpt lat="47.52955" lon="8.53524">
        <ele>446.8</ele>
      </trkpt>
      <trkpt lat="47.53744" lon="8.53284">
        <ele>436.2</ele>
      </trkpt>
      <trkpt lat="47.55269" lon="8.52964">
        <ele>415.2</ele>
      </trkpt>
      <trkpt lat="47.55798" lon="8.52323">
        <ele>406.9</ele>
      </trkpt>
      <trkpt lat="47.57218" lon="8.52222">
        <ele>377.1</ele>
      </trkpt>
      <trkpt lat="47.57218" lon="8.52222">
        <ele>377.1</ele>
      </trkpt>
      <trkpt lat="47.5746" lon="8.52094">
        <ele>360.7</ele>
      </trkpt>
      <trkpt lat="47.57456" lon="8.52127">
        <ele>358.8</ele>
      </trkpt>
      <trkpt lat="47.57449" lon="8.52133">
        <ele>360.1</ele>
      </trkpt>
      <trkpt lat="47.57448" lon="8.52134">
        <ele>360.2</ele>
      </trkpt>
      <trkpt lat="47.57447" lon="8.52134">
        <ele>360.6</ele>
      </trkpt>
      <trkpt lat="47.57445" lon="8.52133">
        <ele>361</ele>
      </trkpt>
      <trkpt lat="47.57445" lon="8.52131">
        <ele>361.3</ele>
      </trkpt>
      <trkpt lat="47.57445" lon="8.52129">
        <ele>361.4</ele>
      </trkpt>
      <trkpt lat="47.57446" lon="8.52128">
        <ele>361.3</ele>
      </trkpt>
      <trkpt lat="47.57447" lon="8.52127">
        <ele>361</ele>
      </trkpt>
      <trkpt lat="47.57448" lon="8.52128">
        <ele>360.7</ele>
      </trkpt>
      <trkpt lat="47.57449" lon="8.52129">
        <ele>360.4</ele>
      </trkpt>
      <trkpt lat="47.57459" lon="8.52173">
        <ele>354.8</ele>
      </trkpt>
      <trkpt lat="47.5746" lon="8.52175">
        <ele>354.7</ele>
      </trkpt>
      <trkpt lat="47.57463" lon="8.52173">
        <ele>353.8</ele>
      </trkpt>
      <trkpt lat="47.57468" lon="8.52174">
        <ele>352.6</ele>
      </trkpt>
      <trkpt lat="47.5747" lon="8.52174">
        <ele>352.1</ele>
      </trkpt>
      <trkpt lat="47.5747" lon="8.52171">
        <ele>351.9</ele>
      </trkpt>
      <trkpt lat="47.57471" lon="8.52169">
        <ele>351.8</ele>
      </trkpt>
      <trkpt lat="47.57473" lon="8.5217">
        <ele>351.2</ele>
      </trkpt>
      <trkpt lat="47.57588" lon="8.52207">
        <ele>347.3</ele>
      </trkpt>
      <trkpt lat="47.57591" lon="8.52209">
        <ele>347.8</ele>
      </trkpt>
      <trkpt lat="47.57591" lon="8.52214">
        <ele>347.9</ele>
      </trkpt>
      <trkpt lat="47.57601" lon="8.52217">
        <ele>349.6</ele>
      </trkpt>
      <trkpt lat="47.57604" lon="8.52218">
        <ele>350.2</ele>
      </trkpt>
      <trkpt lat="47.57605" lon="8.5222">
        <ele>350.4</ele>
      </trkpt>
      <trkpt lat="47.57606" lon="8.52221">
        <ele>350.6</ele>
      </trkpt>
      <trkpt lat="47.57606" lon="8.52224">
        <ele>350.6</ele>
      </trkpt>
      <trkpt lat="47.57606" lon="8.52226">
        <ele>350.6</ele>
      </trkpt>
      <trkpt lat="47.57607" lon="8.52227">
        <ele>350.7</ele>
      </trkpt>
      <trkpt lat="47.57614" lon="8.52231">
        <ele>351.9</ele>
      </trkpt>
      <trkpt lat="47.57618" lon="8.52228">
        <ele>352.6</ele>
      </trkpt>
      <trkpt lat="47.57633" lon="8.52221">
        <ele>355.1</ele>
      </trkpt>
      <trkpt lat="47.57633" lon="8.52228">
        <ele>355.2</ele>
      </trkpt>
      <trkpt lat="47.57632" lon="8.52239">
        <ele>355.2</ele>
      </trkpt>
      <trkpt lat="47.57626" lon="8.52272">
        <ele>355.3</ele>
      </trkpt>
      <trkpt lat="47.57625" lon="8.52276">
        <ele>355.4</ele>
      </trkpt>
      <trkpt lat="47.57624" lon="8.52284">
        <ele>355.6</ele>
      </trkpt>
      <trkpt lat="47.57623" lon="8.52291">
        <ele>355.9</ele>
      </trkpt>
      <trkpt lat="47.57624" lon="8.52302">
        <ele>356.6</ele>
      </trkpt>
      <trkpt lat="47.57627" lon="8.52314">
        <ele>357.9</ele>
      </trkpt>
      <trkpt lat="47.57625" lon="8.52325">
        <ele>358</ele>
      </trkpt>
      <trkpt lat="47.57621" lon="8.52333">
        <ele>357.6</ele>
      </trkpt>
      <trkpt lat="47.57606" lon="8.52352">
        <ele>355.7</ele>
      </trkpt>
      <trkpt lat="47.576" lon="8.5236">
        <ele>355</ele>
      </trkpt>
      <trkpt lat="47.57593" lon="8.52372">
        <ele>354.5</ele>
      </trkpt>
      <trkpt lat="47.57587" lon="8.52393">
        <ele>354.8</ele>
      </trkpt>
      <trkpt lat="47.57584" lon="8.52407">
        <ele>355.3</ele>
      </trkpt>
      <trkpt lat="47.57584" lon="8.52411">
        <ele>355.6</ele>
      </trkpt>
      <trkpt lat="47.57583" lon="8.52419">
        <ele>356</ele>
      </trkpt>
      <trkpt lat="47.57583" lon="8.52428">
        <ele>356.4</ele>
      </trkpt>
      <trkpt lat="47.57582" lon="8.52438">
        <ele>356.7</ele>
      </trkpt>
      <trkpt lat="47.5758" lon="8.52453">
        <ele>357</ele>
      </trkpt>
      <trkpt lat="47.57568" lon="8.52506">
        <ele>357.5</ele>
      </trkpt>
      <trkpt lat="47.57563" lon="8.52534">
        <ele>357.8</ele>
      </trkpt>
      <trkpt lat="47.57559" lon="8.52553">
        <ele>357.9</ele>
      </trkpt>
      <trkpt lat="47.57556" lon="8.52565">
        <ele>357.9</ele>
      </trkpt>
      <trkpt lat="47.57553" lon="8.52582">
        <ele>357.9</ele>
      </trkpt>
      <trkpt lat="47.57551" lon="8.52594">
        <ele>358</ele>
      </trkpt>
      <trkpt lat="47.57545" lon="8.52635">
        <ele>358.3</ele>
      </trkpt>
      <trkpt lat="47.57542" lon="8.52662">
        <ele>358.5</ele>
      </trkpt>
      <trkpt lat="47.5754" lon="8.52695">
        <ele>359.2</ele>
      </trkpt>
      <trkpt lat="47.57539" lon="8.52703">
        <ele>359.4</ele>
      </trkpt>
      <trkpt lat="47.57538" lon="8.52726">
        <ele>360</ele>
      </trkpt>
      <trkpt lat="47.57538" lon="8.5274">
        <ele>360.7</ele>
      </trkpt>
      <trkpt lat="47.57539" lon="8.52746">
        <ele>361</ele>
      </trkpt>
      <trkpt lat="47.57541" lon="8.52753">
        <ele>361.5</ele>
      </trkpt>
      <trkpt lat="47.57544" lon="8.52758">
        <ele>362</ele>
      </trkpt>
      <trkpt lat="47.57547" lon="8.52764">
        <ele>362.7</ele>
      </trkpt>
      <trkpt lat="47.57552" lon="8.52771">
        <ele>363.7</ele>
      </trkpt>
      <trkpt lat="47.57549" lon="8.52783">
        <ele>363.8</ele>
      </trkpt>
      <trkpt lat="47.57547" lon="8.52792">
        <ele>363.9</ele>
      </trkpt>
      <trkpt lat="47.57548" lon="8.52841">
        <ele>366.1</ele>
      </trkpt>
      <trkpt lat="47.57542" lon="8.52882">
        <ele>367.5</ele>
      </trkpt>
      <trkpt lat="47.57529" lon="8.52949">
        <ele>369.1</ele>
      </trkpt>
      <trkpt lat="47.57519" lon="8.53005">
        <ele>371.1</ele>
      </trkpt>
      <trkpt lat="47.57502" lon="8.53056">
        <ele>368.6</ele>
      </trkpt>
      <trkpt lat="47.57487" lon="8.53108">
        <ele>367.8</ele>
      </trkpt>
      <trkpt lat="47.57478" lon="8.53138">
        <ele>367.5</ele>
      </trkpt>
      <trkpt lat="47.57472" lon="8.53163">
        <ele>367.5</ele>
      </trkpt>
      <trkpt lat="47.57469" lon="8.53183">
        <ele>367.2</ele>
      </trkpt>
      <trkpt lat="47.57467" lon="8.53211">
        <ele>367.5</ele>
      </trkpt>
      <trkpt lat="47.57477" lon="8.53219">
        <ele>370</ele>
      </trkpt>
      <trkpt lat="47.5749" lon="8.53228">
        <ele>373.3</ele>
      </trkpt>
      <trkpt lat="47.57524" lon="8.53244">
        <ele>382.2</ele>
      </trkpt>
      <trkpt lat="47.57547" lon="8.53264">
        <ele>389.9</ele>
      </trkpt>
      <trkpt lat="47.57564" lon="8.53283">
        <ele>395.4</ele>
      </trkpt>
      <trkpt lat="47.57574" lon="8.5329">
        <ele>397.9</ele>
      </trkpt>
      <trkpt lat="47.57584" lon="8.53293">
        <ele>400.1</ele>
      </trkpt>
      <trkpt lat="47.5759" lon="8.53297">
        <ele>401.3</ele>
      </trkpt>
      <trkpt lat="47.57594" lon="8.53305">
        <ele>402.4</ele>
      </trkpt>
      <trkpt lat="47.57593" lon="8.53315">
        <ele>402.5</ele>
      </trkpt>
      <trkpt lat="47.57588" lon="8.53324">
        <ele>402.2</ele>
      </trkpt>
      <trkpt lat="47.57567" lon="8.53332">
        <ele>399.5</ele>
      </trkpt>
      <trkpt lat="47.5756" lon="8.53331">
        <ele>398.4</ele>
      </trkpt>
      <trkpt lat="47.57554" lon="8.53326">
        <ele>397.2</ele>
      </trkpt>
      <trkpt lat="47.57543" lon="8.53321">
        <ele>394.8</ele>
      </trkpt>
      <trkpt lat="47.57526" lon="8.53318">
        <ele>391.7</ele>
      </trkpt>
      <trkpt lat="47.57516" lon="8.5332">
        <ele>390.4</ele>
      </trkpt>
      <trkpt lat="47.57509" lon="8.53325">
        <ele>389.9</ele>
      </trkpt>
      <trkpt lat="47.57512" lon="8.5333">
        <ele>391.2</ele>
      </trkpt>
      <trkpt lat="47.57516" lon="8.53333">
        <ele>392.2</ele>
      </trkpt>
      <trkpt lat="47.57528" lon="8.53332">
        <ele>393.9</ele>
      </trkpt>
      <trkpt lat="47.57537" lon="8.53335">
        <ele>395.8</ele>
      </trkpt>
      <trkpt lat="47.57547" lon="8.53343">
        <ele>399.6</ele>
      </trkpt>
      <trkpt lat="47.57561" lon="8.53356">
        <ele>405.4</ele>
      </trkpt>
      <trkpt lat="47.57585" lon="8.53359">
        <ele>409.4</ele>
      </trkpt>
      <trkpt lat="47.57606" lon="8.53364">
        <ele>412.2</ele>
      </trkpt>
      <trkpt lat="47.57618" lon="8.53372">
        <ele>414.3</ele>
      </trkpt>
      <trkpt lat="47.57639" lon="8.53388">
        <ele>417</ele>
      </trkpt>
      <trkpt lat="47.57643" lon="8.53399">
        <ele>418.2</ele>
      </trkpt>
      <trkpt lat="47.57641" lon="8.53406">
        <ele>419.2</ele>
      </trkpt>
      <trkpt lat="47.57635" lon="8.53407">
        <ele>419.7</ele>
      </trkpt>
      <trkpt lat="47.57616" lon="8.53396">
        <ele>418.8</ele>
      </trkpt>
      <trkpt lat="47.57604" lon="8.5339">
        <ele>418</ele>
      </trkpt>
      <trkpt lat="47.57593" lon="8.53391">
        <ele>418.4</ele>
      </trkpt>
      <trkpt lat="47.57579" lon="8.53387">
        <ele>416.8</ele>
      </trkpt>
      <trkpt lat="47.57563" lon="8.53385">
        <ele>414</ele>
      </trkpt>
      <trkpt lat="47.57549" lon="8.53389">
        <ele>413.5</ele>
      </trkpt>
      <trkpt lat="47.57526" lon="8.53401">
        <ele>414.3</ele>
      </trkpt>
      <trkpt lat="47.57503" lon="8.53416">
        <ele>416.1</ele>
      </trkpt>
      <trkpt lat="47.57492" lon="8.53432">
        <ele>416.5</ele>
      </trkpt>
      <trkpt lat="47.57486" lon="8.53451">
        <ele>418.9</ele>
      </trkpt>
      <trkpt lat="47.57481" lon="8.53472">
        <ele>422.5</ele>
      </trkpt>
      <trkpt lat="47.57477" lon="8.53495">
        <ele>425.9</ele>
      </trkpt>
      <trkpt lat="47.57475" lon="8.53506">
        <ele>427.1</ele>
      </trkpt>
      <trkpt lat="47.57466" lon="8.53545">
        <ele>428.1</ele>
      </trkpt>
      <trkpt lat="47.5746" lon="8.53562">
        <ele>427.4</ele>
      </trkpt>
      <trkpt lat="47.57452" lon="8.53583">
        <ele>426.8</ele>
      </trkpt>
      <trkpt lat="47.57448" lon="8.53605">
        <ele>427.8</ele>
      </trkpt>
      <trkpt lat="47.57444" lon="8.5364">
        <ele>431.3</ele>
      </trkpt>
      <trkpt lat="47.57441" lon="8.53656">
        <ele>432.3</ele>
      </trkpt>
      <trkpt lat="47.57433" lon="8.53679">
        <ele>432.2</ele>
      </trkpt>
      <trkpt lat="47.57426" lon="8.53705">
        <ele>432.8</ele>
      </trkpt>
      <trkpt lat="47.57423" lon="8.5372">
        <ele>433.7</ele>
      </trkpt>
      <trkpt lat="47.57398" lon="8.53825">
        <ele>436.8</ele>
      </trkpt>
      <trkpt lat="47.5738" lon="8.539">
        <ele>433.3</ele>
      </trkpt>
      <trkpt lat="47.57377" lon="8.53909">
        <ele>432.7</ele>
      </trkpt>
      <trkpt lat="47.57365" lon="8.53946">
        <ele>428.2</ele>
      </trkpt>
      <trkpt lat="47.57362" lon="8.53961">
        <ele>427.2</ele>
      </trkpt>
      <trkpt lat="47.57359" lon="8.5402">
        <ele>427.5</ele>
      </trkpt>
      <trkpt lat="47.5736" lon="8.54029">
        <ele>427.8</ele>
      </trkpt>
      <trkpt lat="47.5736" lon="8.54036">
        <ele>428.4</ele>
      </trkpt>
      <trkpt lat="47.57363" lon="8.54043">
        <ele>429.5</ele>
      </trkpt>
      <trkpt lat="47.57368" lon="8.54056">
        <ele>432.4</ele>
      </trkpt>
      <trkpt lat="47.57371" lon="8.54064">
        <ele>434</ele>
      </trkpt>
      <trkpt lat="47.57372" lon="8.54071">
        <ele>434.8</ele>
      </trkpt>
      <trkpt lat="47.57372" lon="8.54077">
        <ele>435</ele>
      </trkpt>
      <trkpt lat="47.57371" lon="8.54085">
        <ele>434.6</ele>
      </trkpt>
      <trkpt lat="47.57368" lon="8.54092">
        <ele>433.7</ele>
      </trkpt>
      <trkpt lat="47.57363" lon="8.54102">
        <ele>431.7</ele>
      </trkpt>
      <trkpt lat="47.57358" lon="8.5411">
        <ele>429.7</ele>
      </trkpt>
      <trkpt lat="47.57348" lon="8.54124">
        <ele>426</ele>
      </trkpt>
      <trkpt lat="47.57345" lon="8.54132">
        <ele>424.8</ele>
      </trkpt>
      <trkpt lat="47.57343" lon="8.54141">
        <ele>424.7</ele>
      </trkpt>
      <trkpt lat="47.57346" lon="8.54173">
        <ele>428.6</ele>
      </trkpt>
      <trkpt lat="47.57352" lon="8.54212">
        <ele>436.2</ele>
      </trkpt>
      <trkpt lat="47.57351" lon="8.54232">
        <ele>438.8</ele>
      </trkpt>
      <trkpt lat="47.57347" lon="8.54242">
        <ele>438.5</ele>
      </trkpt>
      <trkpt lat="47.57342" lon="8.54246">
        <ele>437</ele>
      </trkpt>
      <trkpt lat="47.57337" lon="8.54246">
        <ele>435</ele>
      </trkpt>
      <trkpt lat="47.57333" lon="8.54245">
        <ele>433.2</ele>
      </trkpt>
      <trkpt lat="47.57326" lon="8.54255">
        <ele>433.6</ele>
      </trkpt>
      <trkpt lat="47.57319" lon="8.54259">
        <ele>433.2</ele>
      </trkpt>
      <trkpt lat="47.57315" lon="8.54259">
        <ele>432.6</ele>
      </trkpt>
      <trkpt lat="47.57312" lon="8.54258">
        <ele>431.7</ele>
      </trkpt>
      <trkpt lat="47.57294" lon="8.54242">
        <ele>424.4</ele>
      </trkpt>
      <trkpt lat="47.57271" lon="8.54228">
        <ele>416.5</ele>
      </trkpt>
      <trkpt lat="47.57263" lon="8.54224">
        <ele>413.9</ele>
      </trkpt>
      <trkpt lat="47.57255" lon="8.54223">
        <ele>411.6</ele>
      </trkpt>
      <trkpt lat="47.57249" lon="8.54226">
        <ele>410.9</ele>
      </trkpt>
      <trkpt lat="47.57244" lon="8.54233">
        <ele>410.2</ele>
      </trkpt>
      <trkpt lat="47.57226" lon="8.54265">
        <ele>410.2</ele>
      </trkpt>
      <trkpt lat="47.5721" lon="8.54294">
        <ele>409.7</ele>
      </trkpt>
      <trkpt lat="47.57205" lon="8.54303">
        <ele>409.7</ele>
      </trkpt>
      <trkpt lat="47.57203" lon="8.54311">
        <ele>410.2</ele>
      </trkpt>
      <trkpt lat="47.57201" lon="8.5432">
        <ele>411.1</ele>
      </trkpt>
      <trkpt lat="47.5719" lon="8.54378">
        <ele>419.5</ele>
      </trkpt>
      <trkpt lat="47.57189" lon="8.54396">
        <ele>423.6</ele>
      </trkpt>
      <trkpt lat="47.57189" lon="8.5447">
        <ele>437.6</ele>
      </trkpt>
      <trkpt lat="47.57185" lon="8.5451">
        <ele>442.4</ele>
      </trkpt>
      <trkpt lat="47.57173" lon="8.54545">
        <ele>443.9</ele>
      </trkpt>
      <trkpt lat="47.57154" lon="8.54582">
        <ele>448.9</ele>
      </trkpt>
      <trkpt lat="47.57147" lon="8.54602">
        <ele>452.9</ele>
      </trkpt>
      <trkpt lat="47.57152" lon="8.54616">
        <ele>455.3</ele>
      </trkpt>
      <trkpt lat="47.57153" lon="8.54633">
        <ele>458.4</ele>
      </trkpt>
      <trkpt lat="47.57156" lon="8.54654">
        <ele>462</ele>
      </trkpt>
      <trkpt lat="47.57159" lon="8.54681">
        <ele>465.6</ele>
      </trkpt>
      <trkpt lat="47.57165" lon="8.54705">
        <ele>467.4</ele>
      </trkpt>
      <trkpt lat="47.57168" lon="8.54713">
        <ele>468.3</ele>
      </trkpt>
      <trkpt lat="47.57173" lon="8.54696">
        <ele>467.8</ele>
      </trkpt>
      <trkpt lat="47.57179" lon="8.54724">
        <ele>471.4</ele>
      </trkpt>
      <trkpt lat="47.5719" lon="8.54745">
        <ele>475</ele>
      </trkpt>
      <trkpt lat="47.57191" lon="8.54751">
        <ele>475.5</ele>
      </trkpt>
      <trkpt lat="47.57196" lon="8.54759">
        <ele>477.3</ele>
      </trkpt>
      <trkpt lat="47.572" lon="8.5477">
        <ele>479.1</ele>
      </trkpt>
      <trkpt lat="47.57202" lon="8.54778">
        <ele>480.3</ele>
      </trkpt>
      <trkpt lat="47.57208" lon="8.5479">
        <ele>482.3</ele>
      </trkpt>
      <trkpt lat="47.57216" lon="8.548">
        <ele>484.1</ele>
      </trkpt>
      <trkpt lat="47.57224" lon="8.54806">
        <ele>485.4</ele>
      </trkpt>
      <trkpt lat="47.57234" lon="8.54815">
        <ele>486.9</ele>
      </trkpt>
      <trkpt lat="47.57236" lon="8.54816">
        <ele>487.1</ele>
      </trkpt>
      <trkpt lat="47.57237" lon="8.54815">
        <ele>487.3</ele>
      </trkpt>
      <trkpt lat="47.57235" lon="8.54794">
        <ele>485.8</ele>
      </trkpt>
      <trkpt lat="47.57235" lon="8.54763">
        <ele>484</ele>
      </trkpt>
      <trkpt lat="47.57238" lon="8.54746">
        <ele>483.7</ele>
      </trkpt>
      <trkpt lat="47.57251" lon="8.54777">
        <ele>487</ele>
      </trkpt>
      <trkpt lat="47.57273" lon="8.54825">
        <ele>490.1</ele>
      </trkpt>
      <trkpt lat="47.57283" lon="8.54843">
        <ele>491.4</ele>
      </trkpt>
      <trkpt lat="47.57294" lon="8.54853">
        <ele>492.4</ele>
      </trkpt>
      <trkpt lat="47.57311" lon="8.54862">
        <ele>493.5</ele>
      </trkpt>
      <trkpt lat="47.5734" lon="8.54881">
        <ele>494.7</ele>
      </trkpt>
      <trkpt lat="47.57358" lon="8.54908">
        <ele>495.5</ele>
      </trkpt>
      <trkpt lat="47.57372" lon="8.54925">
        <ele>496</ele>
      </trkpt>
      <trkpt lat="47.57394" lon="8.54945">
        <ele>496.9</ele>
      </trkpt>
      <trkpt lat="47.57392" lon="8.54985">
        <ele>497.5</ele>
      </trkpt>
      <trkpt lat="47.57387" lon="8.55035">
        <ele>498.7</ele>
      </trkpt>
      <trkpt lat="47.57367" lon="8.55037">
        <ele>498</ele>
      </trkpt>
      <trkpt lat="47.57338" lon="8.55042">
        <ele>497.2</ele>
      </trkpt>
      <trkpt lat="47.57326" lon="8.55046">
        <ele>497.2</ele>
      </trkpt>
      <trkpt lat="47.57312" lon="8.55052">
        <ele>497.5</ele>
      </trkpt>
      <trkpt lat="47.57301" lon="8.55057">
        <ele>497.7</ele>
      </trkpt>
      <trkpt lat="47.57287" lon="8.55065">
        <ele>498.1</ele>
      </trkpt>
      <trkpt lat="47.5727" lon="8.55079">
        <ele>498.8</ele>
      </trkpt>
      <trkpt lat="47.57264" lon="8.55083">
        <ele>499</ele>
      </trkpt>
      <trkpt lat="47.5723" lon="8.55107">
        <ele>498.7</ele>
      </trkpt>
      <trkpt lat="47.57198" lon="8.55131">
        <ele>498</ele>
      </trkpt>
      <trkpt lat="47.57183" lon="8.55148">
        <ele>497.9</ele>
      </trkpt>
      <trkpt lat="47.57166" lon="8.55169">
        <ele>498</ele>
      </trkpt>
      <trkpt lat="47.57145" lon="8.55205">
        <ele>497.2</ele>
      </trkpt>
      <trkpt lat="47.57132" lon="8.55241">
        <ele>497.2</ele>
      </trkpt>
      <trkpt lat="47.57124" lon="8.55269">
        <ele>497.1</ele>
      </trkpt>
      <trkpt lat="47.57117" lon="8.55301">
        <ele>496.8</ele>
      </trkpt>
      <trkpt lat="47.57113" lon="8.55331">
        <ele>496.7</ele>
      </trkpt>
      <trkpt lat="47.57112" lon="8.55355">
        <ele>495.9</ele>
      </trkpt>
      <trkpt lat="47.57113" lon="8.55377">
        <ele>495.2</ele>
      </trkpt>
      <trkpt lat="47.57115" lon="8.55392">
        <ele>494.9</ele>
      </trkpt>
      <trkpt lat="47.57119" lon="8.55407">
        <ele>494.7</ele>
      </trkpt>
      <trkpt lat="47.57127" lon="8.55433">
        <ele>494.1</ele>
      </trkpt>
      <trkpt lat="47.57137" lon="8.55453">
        <ele>494</ele>
      </trkpt>
      <trkpt lat="47.57153" lon="8.55474">
        <ele>494.5</ele>
      </trkpt>
      <trkpt lat="47.57161" lon="8.55488">
        <ele>494.9</ele>
      </trkpt>
      <trkpt lat="47.57168" lon="8.55502">
        <ele>495</ele>
      </trkpt>
      <trkpt lat="47.57189" lon="8.55553">
        <ele>492.3</ele>
      </trkpt>
      <trkpt lat="47.57207" lon="8.55599">
        <ele>490.8</ele>
      </trkpt>
      <trkpt lat="47.57217" lon="8.55623">
        <ele>490</ele>
      </trkpt>
      <trkpt lat="47.57221" lon="8.55637">
        <ele>489.4</ele>
      </trkpt>
      <trkpt lat="47.57219" lon="8.55652">
        <ele>488.1</ele>
      </trkpt>
      <trkpt lat="47.57218" lon="8.55669">
        <ele>486.7</ele>
      </trkpt>
      <trkpt lat="47.57217" lon="8.55683">
        <ele>485.6</ele>
      </trkpt>
      <trkpt lat="47.57216" lon="8.55702">
        <ele>484.1</ele>
      </trkpt>
      <trkpt lat="47.57219" lon="8.5572">
        <ele>483</ele>
      </trkpt>
      <trkpt lat="47.5722" lon="8.55727">
        <ele>482.6</ele>
      </trkpt>
      <trkpt lat="47.57221" lon="8.55734">
        <ele>482.1</ele>
      </trkpt>
      <trkpt lat="47.57221" lon="8.55742">
        <ele>481.5</ele>
      </trkpt>
      <trkpt lat="47.57219" lon="8.55755">
        <ele>480.4</ele>
      </trkpt>
      <trkpt lat="47.57217" lon="8.55761">
        <ele>479.9</ele>
      </trkpt>
      <trkpt lat="47.57214" lon="8.55779">
        <ele>478.5</ele>
      </trkpt>
      <trkpt lat="47.5721" lon="8.55802">
        <ele>476.7</ele>
      </trkpt>
      <trkpt lat="47.5721" lon="8.55809">
        <ele>476.2</ele>
      </trkpt>
      <trkpt lat="47.57211" lon="8.55815">
        <ele>475.8</ele>
      </trkpt>
      <trkpt lat="47.57212" lon="8.5582">
        <ele>475.6</ele>
      </trkpt>
      <trkpt lat="47.57214" lon="8.55826">
        <ele>475.3</ele>
      </trkpt>
      <trkpt lat="47.57217" lon="8.55831">
        <ele>475.2</ele>
      </trkpt>
      <trkpt lat="47.57221" lon="8.55836">
        <ele>475.2</ele>
      </trkpt>
      <trkpt lat="47.57234" lon="8.55844">
        <ele>475.9</ele>
      </trkpt>
      <trkpt lat="47.57248" lon="8.55849">
        <ele>476.9</ele>
      </trkpt>
      <trkpt lat="47.5726" lon="8.55852">
        <ele>477.7</ele>
      </trkpt>
      <trkpt lat="47.57266" lon="8.55855">
        <ele>478.1</ele>
      </trkpt>
      <trkpt lat="47.5727" lon="8.55859">
        <ele>478.4</ele>
      </trkpt>
      <trkpt lat="47.57274" lon="8.55865">
        <ele>478.7</ele>
      </trkpt>
      <trkpt lat="47.57278" lon="8.55873">
        <ele>479</ele>
      </trkpt>
      <trkpt lat="47.57282" lon="8.55883">
        <ele>479.3</ele>
      </trkpt>
      <trkpt lat="47.57286" lon="8.55899">
        <ele>479.6</ele>
      </trkpt>
      <trkpt lat="47.57294" lon="8.55933">
        <ele>480.3</ele>
      </trkpt>
      <trkpt lat="47.57295" lon="8.55944">
        <ele>480.5</ele>
      </trkpt>
      <trkpt lat="47.57294" lon="8.5596">
        <ele>480.7</ele>
      </trkpt>
      <trkpt lat="47.57293" lon="8.55991">
        <ele>481</ele>
      </trkpt>
      <trkpt lat="47.57292" lon="8.56022">
        <ele>481.8</ele>
      </trkpt>
      <trkpt lat="47.57291" lon="8.5605">
        <ele>482.7</ele>
      </trkpt>
      <trkpt lat="47.5729" lon="8.56076">
        <ele>483.6</ele>
      </trkpt>
      <trkpt lat="47.57287" lon="8.56099">
        <ele>484</ele>
      </trkpt>
      <trkpt lat="47.57285" lon="8.56113">
        <ele>484.1</ele>
      </trkpt>
      <trkpt lat="47.5728" lon="8.56136">
        <ele>484.2</ele>
      </trkpt>
      <trkpt lat="47.57276" lon="8.56148">
        <ele>484.2</ele>
      </trkpt>
      <trkpt lat="47.57275" lon="8.56177">
        <ele>484.9</ele>
      </trkpt>
      <trkpt lat="47.57272" lon="8.56229">
        <ele>486</ele>
      </trkpt>
      <trkpt lat="47.57271" lon="8.56262">
        <ele>486.4</ele>
      </trkpt>
      <trkpt lat="47.57271" lon="8.56266">
        <ele>486.4</ele>
      </trkpt>
      <trkpt lat="47.57271" lon="8.56273">
        <ele>486.4</ele>
      </trkpt>
      <trkpt lat="47.57272" lon="8.56282">
        <ele>486.4</ele>
      </trkpt>
      <trkpt lat="47.57279" lon="8.56315">
        <ele>486.5</ele>
      </trkpt>
      <trkpt lat="47.57283" lon="8.56338">
        <ele>486.3</ele>
      </trkpt>
      <trkpt lat="47.57289" lon="8.56364">
        <ele>485</ele>
      </trkpt>
      <trkpt lat="47.57293" lon="8.56379">
        <ele>484.3</ele>
      </trkpt>
      <trkpt lat="47.57297" lon="8.56389">
        <ele>483.9</ele>
      </trkpt>
      <trkpt lat="47.57301" lon="8.56397">
        <ele>483.7</ele>
      </trkpt>
      <trkpt lat="47.57329" lon="8.56427">
        <ele>483</ele>
      </trkpt>
      <trkpt lat="47.57333" lon="8.56431">
        <ele>482.9</ele>
      </trkpt>
      <trkpt lat="47.57345" lon="8.56451">
        <ele>483</ele>
      </trkpt>
      <trkpt lat="47.57352" lon="8.56462">
        <ele>483</ele>
      </trkpt>
      <trkpt lat="47.57359" lon="8.56474">
        <ele>483.1</ele>
      </trkpt>
      <trkpt lat="47.57379" lon="8.56511">
        <ele>482.6</ele>
      </trkpt>
      <trkpt lat="47.57388" lon="8.56526">
        <ele>481.8</ele>
      </trkpt>
      <trkpt lat="47.57403" lon="8.56547">
        <ele>481.6</ele>
      </trkpt>
      <trkpt lat="47.57419" lon="8.56565">
        <ele>482.1</ele>
      </trkpt>
      <trkpt lat="47.57427" lon="8.56574">
        <ele>481.6</ele>
      </trkpt>
      <trkpt lat="47.57437" lon="8.56582">
        <ele>481.1</ele>
      </trkpt>
      <trkpt lat="47.57439" lon="8.56584">
        <ele>481</ele>
      </trkpt>
      <trkpt lat="47.57443" lon="8.56588">
        <ele>480.4</ele>
      </trkpt>
      <trkpt lat="47.57444" lon="8.5659">
        <ele>480.2</ele>
      </trkpt>
      <trkpt lat="47.57448" lon="8.56595">
        <ele>479.4</ele>
      </trkpt>
      <trkpt lat="47.57456" lon="8.56607">
        <ele>477.9</ele>
      </trkpt>
      <trkpt lat="47.57468" lon="8.5663">
        <ele>475.1</ele>
      </trkpt>
      <trkpt lat="47.57479" lon="8.5665">
        <ele>473</ele>
      </trkpt>
      <trkpt lat="47.57487" lon="8.56661">
        <ele>472.2</ele>
      </trkpt>
      <trkpt lat="47.57484" lon="8.56667">
        <ele>471</ele>
      </trkpt>
      <trkpt lat="47.57487" lon="8.56688">
        <ele>467.2</ele>
      </trkpt>
      <trkpt lat="47.57489" lon="8.56697">
        <ele>465.8</ele>
      </trkpt>
      <trkpt lat="47.57494" lon="8.56703">
        <ele>465.5</ele>
      </trkpt>
      <trkpt lat="47.57514" lon="8.56716">
        <ele>462.2</ele>
      </trkpt>
      <trkpt lat="47.57519" lon="8.56716">
        <ele>461.5</ele>
      </trkpt>
      <trkpt lat="47.57527" lon="8.56741">
        <ele>456.6</ele>
      </trkpt>
      <trkpt lat="47.5754" lon="8.56796">
        <ele>444.7</ele>
      </trkpt>
      <trkpt lat="47.5754" lon="8.56805">
        <ele>442.9</ele>
      </trkpt>
      <trkpt lat="47.57541" lon="8.56811">
        <ele>441.8</ele>
      </trkpt>
      <trkpt lat="47.57541" lon="8.56818">
        <ele>440.4</ele>
      </trkpt>
      <trkpt lat="47.57542" lon="8.56824">
        <ele>439.3</ele>
      </trkpt>
      <trkpt lat="47.57551" lon="8.56832">
        <ele>438.2</ele>
      </trkpt>
      <trkpt lat="47.57563" lon="8.56836">
        <ele>437.8</ele>
      </trkpt>
      <trkpt lat="47.57573" lon="8.5684">
        <ele>437.2</ele>
      </trkpt>
      <trkpt lat="47.57578" lon="8.56845">
        <ele>436</ele>
      </trkpt>
      <trkpt lat="47.57583" lon="8.56854">
        <ele>433.9</ele>
      </trkpt>
      <trkpt lat="47.57589" lon="8.56866">
        <ele>429.3</ele>
      </trkpt>
      <trkpt lat="47.57592" lon="8.56872">
        <ele>427.4</ele>
      </trkpt>
      <trkpt lat="47.57592" lon="8.56875">
        <ele>426.5</ele>
      </trkpt>
      <trkpt lat="47.57591" lon="8.56876">
        <ele>426.4</ele>
      </trkpt>
      <trkpt lat="47.57589" lon="8.56876">
        <ele>426.7</ele>
      </trkpt>
      <trkpt lat="47.57588" lon="8.56878">
        <ele>426</ele>
      </trkpt>
      <trkpt lat="47.57592" lon="8.56883">
        <ele>424.2</ele>
      </trkpt>
      <trkpt lat="47.57599" lon="8.56892">
        <ele>421.2</ele>
      </trkpt>
      <trkpt lat="47.57608" lon="8.569">
        <ele>418.6</ele>
      </trkpt>
      <trkpt lat="47.57622" lon="8.56911">
        <ele>415.4</ele>
      </trkpt>
      <trkpt lat="47.57628" lon="8.56916">
        <ele>414</ele>
      </trkpt>
      <trkpt lat="47.57633" lon="8.56921">
        <ele>412.7</ele>
      </trkpt>
      <trkpt lat="47.57639" lon="8.56925">
        <ele>411.3</ele>
      </trkpt>
      <trkpt lat="47.5765" lon="8.56932">
        <ele>409.3</ele>
      </trkpt>
      <trkpt lat="47.5766" lon="8.56938">
        <ele>407.9</ele>
      </trkpt>
      <trkpt lat="47.57668" lon="8.56942">
        <ele>406.9</ele>
      </trkpt>
      <trkpt lat="47.57683" lon="8.56959">
        <ele>402.7</ele>
      </trkpt>
      <trkpt lat="47.57683" lon="8.56961">
        <ele>402.2</ele>
      </trkpt>
      <trkpt lat="47.57688" lon="8.56962">
        <ele>401.7</ele>
      </trkpt>
      <trkpt lat="47.5769" lon="8.56963">
        <ele>401.6</ele>
      </trkpt>
      <trkpt lat="47.57693" lon="8.56969">
        <ele>400.3</ele>
      </trkpt>
      <trkpt lat="47.57722" lon="8.56996">
        <ele>395</ele>
      </trkpt>
      <trkpt lat="47.57726" lon="8.56999">
        <ele>394.7</ele>
      </trkpt>
      <trkpt lat="47.57735" lon="8.57002">
        <ele>394.3</ele>
      </trkpt>
      <trkpt lat="47.57742" lon="8.57004">
        <ele>394</ele>
      </trkpt>
      <trkpt lat="47.5775" lon="8.56976">
        <ele>398.7</ele>
      </trkpt>
      <trkpt lat="47.57752" lon="8.56971">
        <ele>399.5</ele>
      </trkpt>
      <trkpt lat="47.57754" lon="8.56968">
        <ele>399.9</ele>
      </trkpt>
      <trkpt lat="47.57757" lon="8.56967">
        <ele>400.1</ele>
      </trkpt>
      <trkpt lat="47.57756" lon="8.56986">
        <ele>397.2</ele>
      </trkpt>
      <trkpt lat="47.57756" lon="8.5699">
        <ele>396.5</ele>
      </trkpt>
      <trkpt lat="47.57756" lon="8.57">
        <ele>395</ele>
      </trkpt>
      <trkpt lat="47.57756" lon="8.57002">
        <ele>394.6</ele>
      </trkpt>
      <trkpt lat="47.57755" lon="8.57012">
        <ele>392.7</ele>
      </trkpt>
      <trkpt lat="47.57755" lon="8.57014">
        <ele>392.3</ele>
      </trkpt>
      <trkpt lat="47.57755" lon="8.57025">
        <ele>390.4</ele>
      </trkpt>
      <trkpt lat="47.57755" lon="8.57027">
        <ele>390</ele>
      </trkpt>
      <trkpt lat="47.57755" lon="8.57031">
        <ele>389.1</ele>
      </trkpt>
      <trkpt lat="47.57755" lon="8.57033">
        <ele>388.8</ele>
      </trkpt>
      <trkpt lat="47.57755" lon="8.57047">
        <ele>386.2</ele>
      </trkpt>
      <trkpt lat="47.57754" lon="8.57066">
        <ele>382.5</ele>
      </trkpt>
      <trkpt lat="47.57754" lon="8.57067">
        <ele>382.3</ele>
      </trkpt>
      <trkpt lat="47.5775" lon="8.57083">
        <ele>379.1</ele>
      </trkpt>
      <trkpt lat="47.57749" lon="8.57086">
        <ele>378.6</ele>
      </trkpt>
      <trkpt lat="47.57747" lon="8.57096">
        <ele>377.6</ele>
      </trkpt>
      <trkpt lat="47.57747" lon="8.57102">
        <ele>377.1</ele>
      </trkpt>
      <trkpt lat="47.57745" lon="8.57143">
        <ele>373.1</ele>
      </trkpt>
      <trkpt lat="47.57746" lon="8.5715">
        <ele>372.5</ele>
      </trkpt>
      <trkpt lat="47.57724" lon="8.57146">
        <ele>372.1</ele>
      </trkpt>
      <trkpt lat="47.57714" lon="8.57144">
        <ele>372</ele>
      </trkpt>
      <trkpt lat="47.57711" lon="8.57166">
        <ele>370.1</ele>
      </trkpt>
      <trkpt lat="47.57709" lon="8.57178">
        <ele>369</ele>
      </trkpt>
      <trkpt lat="47.57721" lon="8.5719">
        <ele>368.1</ele>
      </trkpt>
      <trkpt lat="47.57729" lon="8.57195">
        <ele>367.7</ele>
      </trkpt>
      <trkpt lat="47.57743" lon="8.572">
        <ele>367.4</ele>
      </trkpt>
      <trkpt lat="47.57743" lon="8.57219">
        <ele>365.3</ele>
      </trkpt>
      <trkpt lat="47.57743" lon="8.57241">
        <ele>363</ele>
      </trkpt>
      <trkpt lat="47.57741" lon="8.57267">
        <ele>359.6</ele>
      </trkpt>
      <trkpt lat="47.57733" lon="8.57308">
        <ele>353.6</ele>
      </trkpt>
      <trkpt lat="47.57725" lon="8.57325">
        <ele>351</ele>
      </trkpt>
      <trkpt lat="47.57688" lon="8.57318">
        <ele>351.8</ele>
      </trkpt>
      <trkpt lat="47.57669" lon="8.57314">
        <ele>352.2</ele>
      </trkpt>
      <trkpt lat="47.57637" lon="8.57306">
        <ele>351.3</ele>
      </trkpt>
      <trkpt lat="47.57638" lon="8.57334">
        <ele>346.9</ele>
      </trkpt>
      <trkpt lat="47.57645" lon="8.57357">
        <ele>345.8</ele>
      </trkpt>
      <trkpt lat="47.57659" lon="8.57391">
        <ele>344</ele>
      </trkpt>
      <trkpt lat="47.57673" lon="8.57424">
        <ele>342.4</ele>
      </trkpt>
      <trkpt lat="47.57679" lon="8.57431">
        <ele>342.7</ele>
      </trkpt>
      <trkpt lat="47.57679" lon="8.57444">
        <ele>343</ele>
      </trkpt>
      <trkpt lat="47.57681" lon="8.57475">
        <ele>343.9</ele>
      </trkpt>
      <trkpt lat="47.57683" lon="8.57494">
        <ele>344.3</ele>
      </trkpt>
      <trkpt lat="47.57688" lon="8.57512">
        <ele>344.3</ele>
      </trkpt>
      <trkpt lat="47.57699" lon="8.57544">
        <ele>343.9</ele>
      </trkpt>
      <trkpt lat="47.5771" lon="8.57572">
        <ele>343.4</ele>
      </trkpt>
      <trkpt lat="47.57717" lon="8.57585">
        <ele>343</ele>
      </trkpt>
      <trkpt lat="47.57728" lon="8.57606">
        <ele>342.3</ele>
      </trkpt>
      <trkpt lat="47.57735" lon="8.57619">
        <ele>342</ele>
      </trkpt>
      <trkpt lat="47.57737" lon="8.57625">
        <ele>342</ele>
      </trkpt>
      <trkpt lat="47.57739" lon="8.57634">
        <ele>341.9</ele>
      </trkpt>
      <trkpt lat="47.5774" lon="8.57644">
        <ele>342</ele>
      </trkpt>
      <trkpt lat="47.57739" lon="8.57656">
        <ele>342.1</ele>
      </trkpt>
      <trkpt lat="47.57733" lon="8.57679">
        <ele>342.3</ele>
      </trkpt>
      <trkpt lat="47.5773" lon="8.57701">
        <ele>342.6</ele>
      </trkpt>
      <trkpt lat="47.5773" lon="8.57733">
        <ele>342.8</ele>
      </trkpt>
      <trkpt lat="47.57725" lon="8.57735">
        <ele>342.9</ele>
      </trkpt>
      <trkpt lat="47.57713" lon="8.57738">
        <ele>342.9</ele>
      </trkpt>
      <trkpt lat="47.57682" lon="8.57746">
        <ele>343</ele>
      </trkpt>
      <trkpt lat="47.57677" lon="8.57748">
        <ele>343</ele>
      </trkpt>
      <trkpt lat="47.57674" lon="8.5775">
        <ele>343</ele>
      </trkpt>
      <trkpt lat="47.57668" lon="8.57756">
        <ele>343.2</ele>
      </trkpt>
      <trkpt lat="47.57663" lon="8.57759">
        <ele>343.2</ele>
      </trkpt>
      <trkpt lat="47.57655" lon="8.57762">
        <ele>343.1</ele>
      </trkpt>
      <trkpt lat="47.57601" lon="8.57778">
        <ele>342.4</ele>
      </trkpt>
      <trkpt lat="47.57543" lon="8.57795">
        <ele>348.1</ele>
      </trkpt>
      <trkpt lat="47.57539" lon="8.57797">
        <ele>348.6</ele>
      </trkpt>
      <trkpt lat="47.5754" lon="8.57801">
        <ele>348.4</ele>
      </trkpt>
      <trkpt lat="47.57541" lon="8.5783">
        <ele>348.2</ele>
      </trkpt>
      <trkpt lat="47.57545" lon="8.5786">
        <ele>347.8</ele>
      </trkpt>
      <trkpt lat="47.57546" lon="8.57887">
        <ele>347.8</ele>
      </trkpt>
      <trkpt lat="47.57545" lon="8.57912">
        <ele>348.1</ele>
      </trkpt>
      <trkpt lat="47.57542" lon="8.57948">
        <ele>348.1</ele>
      </trkpt>
      <trkpt lat="47.57539" lon="8.57972">
        <ele>348.1</ele>
      </trkpt>
      <trkpt lat="47.57533" lon="8.58007">
        <ele>348.6</ele>
      </trkpt>
      <trkpt lat="47.57527" lon="8.58051">
        <ele>350.5</ele>
      </trkpt>
      <trkpt lat="47.57522" lon="8.58088">
        <ele>351.9</ele>
      </trkpt>
      <trkpt lat="47.57518" lon="8.58105">
        <ele>351.9</ele>
      </trkpt>
      <trkpt lat="47.57509" lon="8.58146">
        <ele>351.8</ele>
      </trkpt>
      <trkpt lat="47.57508" lon="8.58151">
        <ele>351.8</ele>
      </trkpt>
      <trkpt lat="47.57508" lon="8.5816">
        <ele>351.5</ele>
      </trkpt>
      <trkpt lat="47.57512" lon="8.58166">
        <ele>351.2</ele>
      </trkpt>
      <trkpt lat="47.57523" lon="8.58174">
        <ele>350.2</ele>
      </trkpt>
      <trkpt lat="47.57526" lon="8.5818">
        <ele>349.8</ele>
      </trkpt>
      <trkpt lat="47.57528" lon="8.58181">
        <ele>349.7</ele>
      </trkpt>
      <trkpt lat="47.57545" lon="8.58189">
        <ele>348.1</ele>
      </trkpt>
      <trkpt lat="47.57546" lon="8.5819">
        <ele>347.9</ele>
      </trkpt>
      <trkpt lat="47.57573" lon="8.58196">
        <ele>345.5</ele>
      </trkpt>
      <trkpt lat="47.57583" lon="8.58199">
        <ele>344.5</ele>
      </trkpt>
      <trkpt lat="47.57599" lon="8.58205">
        <ele>344.4</ele>
      </trkpt>
      <trkpt lat="47.57628" lon="8.5822">
        <ele>344.3</ele>
      </trkpt>
      <trkpt lat="47.57687" lon="8.58253">
        <ele>344.2</ele>
      </trkpt>
      <trkpt lat="47.57747" lon="8.58284">
        <ele>343.8</ele>
      </trkpt>
      <trkpt lat="47.57748" lon="8.5828">
        <ele>343.9</ele>
      </trkpt>
      <trkpt lat="47.5775" lon="8.58272">
        <ele>344.2</ele>
      </trkpt>
      <trkpt lat="47.57751" lon="8.58268">
        <ele>344.4</ele>
      </trkpt>
      <trkpt lat="47.57808" lon="8.583">
        <ele>344.7</ele>
      </trkpt>
      <trkpt lat="47.57846" lon="8.58321">
        <ele>345.2</ele>
      </trkpt>
      <trkpt lat="47.5785" lon="8.58308">
        <ele>345.5</ele>
      </trkpt>
      <trkpt lat="47.57854" lon="8.58295">
        <ele>345.8</ele>
      </trkpt>
      <trkpt lat="47.57864" lon="8.5827">
        <ele>346.6</ele>
      </trkpt>
      <trkpt lat="47.57869" lon="8.58257">
        <ele>347.1</ele>
      </trkpt>
      <trkpt lat="47.57885" lon="8.58229">
        <ele>347.9</ele>
      </trkpt>
      <trkpt lat="47.57887" lon="8.58221">
        <ele>348.1</ele>
      </trkpt>
      <trkpt lat="47.57889" lon="8.58207">
        <ele>348.2</ele>
      </trkpt>
      <trkpt lat="47.57887" lon="8.582">
        <ele>348.2</ele>
      </trkpt>
      <trkpt lat="47.57885" lon="8.58165">
        <ele>348.1</ele>
      </trkpt>
      <trkpt lat="47.57885" lon="8.5814">
        <ele>346.9</ele>
      </trkpt>
      <trkpt lat="47.57885" lon="8.5813">
        <ele>346.4</ele>
      </trkpt>
      <trkpt lat="47.57884" lon="8.58118">
        <ele>345.9</ele>
      </trkpt>
      <trkpt lat="47.57891" lon="8.58114">
        <ele>345.8</ele>
      </trkpt>
      <trkpt lat="47.57907" lon="8.58101">
        <ele>345.6</ele>
      </trkpt>
      <trkpt lat="47.5794" lon="8.58083">
        <ele>345.3</ele>
      </trkpt>
      <trkpt lat="47.57971" lon="8.58066">
        <ele>345.4</ele>
      </trkpt>
      <trkpt lat="47.57994" lon="8.58052">
        <ele>345.5</ele>
      </trkpt>
      <trkpt lat="47.58" lon="8.58046">
        <ele>345.5</ele>
      </trkpt>
      <trkpt lat="47.58041" lon="8.58022">
        <ele>345.3</ele>
      </trkpt>
      <trkpt lat="47.58054" lon="8.58018">
        <ele>345.2</ele>
      </trkpt>
      <trkpt lat="47.58077" lon="8.58003">
        <ele>345</ele>
      </trkpt>
      <trkpt lat="47.58079" lon="8.58002">
        <ele>345</ele>
      </trkpt>
      <trkpt lat="47.58087" lon="8.58022">
        <ele>345.2</ele>
      </trkpt>
      <trkpt lat="47.58096" lon="8.58018">
        <ele>345</ele>
      </trkpt>
      <trkpt lat="47.58117" lon="8.58005">
        <ele>344.6</ele>
      </trkpt>
      <trkpt lat="47.5815" lon="8.57984">
        <ele>344</ele>
      </trkpt>
      <trkpt lat="47.58224" lon="8.5794">
        <ele>343.8</ele>
      </trkpt>
      <trkpt lat="47.58244" lon="8.57927">
        <ele>343.9</ele>
      </trkpt>
      <trkpt lat="47.58279" lon="8.57906">
        <ele>344</ele>
      </trkpt>
      <trkpt lat="47.58328" lon="8.57882">
        <ele>344.8</ele>
      </trkpt>
      <trkpt lat="47.58361" lon="8.5787">
        <ele>344.5</ele>
      </trkpt>
      <trkpt lat="47.58414" lon="8.57852">
        <ele>343.6</ele>
      </trkpt>
      <trkpt lat="47.58483" lon="8.57836">
        <ele>344.8</ele>
      </trkpt>
      <trkpt lat="47.58528" lon="8.57833">
        <ele>345</ele>
      </trkpt>
      <trkpt lat="47.58561" lon="8.57832">
        <ele>345</ele>
      </trkpt>
      <trkpt lat="47.58621" lon="8.57835">
        <ele>345.4</ele>
      </trkpt>
      <trkpt lat="47.58661" lon="8.57842">
        <ele>345.8</ele>
      </trkpt>
      <trkpt lat="47.58665" lon="8.57842">
        <ele>345.9</ele>
      </trkpt>
      <trkpt lat="47.58697" lon="8.5785">
        <ele>345.9</ele>
      </trkpt>
      <trkpt lat="47.58746" lon="8.57865">
        <ele>346.3</ele>
      </trkpt>
      <trkpt lat="47.58776" lon="8.57878">
        <ele>346.4</ele>
      </trkpt>
      <trkpt lat="47.58795" lon="8.57888">
        <ele>346.5</ele>
      </trkpt>
      <trkpt lat="47.58807" lon="8.57892">
        <ele>346.5</ele>
      </trkpt>
      <trkpt lat="47.58821" lon="8.579">
        <ele>346.6</ele>
      </trkpt>
      <trkpt lat="47.58851" lon="8.57918">
        <ele>347.5</ele>
      </trkpt>
      <trkpt lat="47.58879" lon="8.57934">
        <ele>348.8</ele>
      </trkpt>
      <trkpt lat="47.58902" lon="8.57949">
        <ele>349.9</ele>
      </trkpt>
      <trkpt lat="47.58919" lon="8.5796">
        <ele>350.5</ele>
      </trkpt>
      <trkpt lat="47.58966" lon="8.57999">
        <ele>350.2</ele>
      </trkpt>
      <trkpt lat="47.58995" lon="8.58026">
        <ele>350.1</ele>
      </trkpt>
      <trkpt lat="47.59032" lon="8.58065">
        <ele>350.4</ele>
      </trkpt>
      <trkpt lat="47.59061" lon="8.58098">
        <ele>350.9</ele>
      </trkpt>
      <trkpt lat="47.59084" lon="8.58128">
        <ele>351</ele>
      </trkpt>
      <trkpt lat="47.59135" lon="8.58201">
        <ele>348.7</ele>
      </trkpt>
      <trkpt lat="47.59146" lon="8.58218">
        <ele>348.4</ele>
      </trkpt>
      <trkpt lat="47.59166" lon="8.58251">
        <ele>348.1</ele>
      </trkpt>
      <trkpt lat="47.59179" lon="8.58275">
        <ele>347</ele>
      </trkpt>
      <trkpt lat="47.59194" lon="8.58306">
        <ele>346.1</ele>
      </trkpt>
      <trkpt lat="47.59206" lon="8.58329">
        <ele>345.6</ele>
      </trkpt>
      <trkpt lat="47.59215" lon="8.58347">
        <ele>345</ele>
      </trkpt>
      <trkpt lat="47.59233" lon="8.58389">
        <ele>343.3</ele>
      </trkpt>
      <trkpt lat="47.59266" lon="8.58471">
        <ele>343.2</ele>
      </trkpt>
      <trkpt lat="47.59279" lon="8.58515">
        <ele>344</ele>
      </trkpt>
      <trkpt lat="47.59283" lon="8.58541">
        <ele>344.5</ele>
      </trkpt>
      <trkpt lat="47.59284" lon="8.58561">
        <ele>344.9</ele>
      </trkpt>
      <trkpt lat="47.59284" lon="8.58569">
        <ele>345</ele>
      </trkpt>
      <trkpt lat="47.59284" lon="8.58582">
        <ele>345.3</ele>
      </trkpt>
      <trkpt lat="47.59283" lon="8.58609">
        <ele>346.1</ele>
      </trkpt>
      <trkpt lat="47.5928" lon="8.58635">
        <ele>346.9</ele>
      </trkpt>
      <trkpt lat="47.59278" lon="8.58672">
        <ele>347.9</ele>
      </trkpt>
      <trkpt lat="47.59276" lon="8.58687">
        <ele>348.7</ele>
      </trkpt>
      <trkpt lat="47.59276" lon="8.58716">
        <ele>350</ele>
      </trkpt>
      <trkpt lat="47.59274" lon="8.58747">
        <ele>351.4</ele>
      </trkpt>
      <trkpt lat="47.59272" lon="8.58759">
        <ele>351.6</ele>
      </trkpt>
      <trkpt lat="47.59273" lon="8.58803">
        <ele>351.7</ele>
      </trkpt>
      <trkpt lat="47.59268" lon="8.58867">
        <ele>352.7</ele>
      </trkpt>
      <trkpt lat="47.59267" lon="8.58879">
        <ele>353</ele>
      </trkpt>
      <trkpt lat="47.59264" lon="8.58919">
        <ele>354.5</ele>
      </trkpt>
      <trkpt lat="47.59258" lon="8.58981">
        <ele>358.2</ele>
      </trkpt>
      <trkpt lat="47.59256" lon="8.59008">
        <ele>359.3</ele>
      </trkpt>
      <trkpt lat="47.59252" lon="8.59028">
        <ele>358.8</ele>
      </trkpt>
      <trkpt lat="47.59247" lon="8.59055">
        <ele>357.7</ele>
      </trkpt>
      <trkpt lat="47.59243" lon="8.59067">
        <ele>357</ele>
      </trkpt>
      <trkpt lat="47.59238" lon="8.59077">
        <ele>356.1</ele>
      </trkpt>
      <trkpt lat="47.59234" lon="8.59094">
        <ele>355.4</ele>
      </trkpt>
      <trkpt lat="47.59231" lon="8.59105">
        <ele>354.9</ele>
      </trkpt>
      <trkpt lat="47.59223" lon="8.59132">
        <ele>353.5</ele>
      </trkpt>
      <trkpt lat="47.59219" lon="8.59157">
        <ele>352.6</ele>
      </trkpt>
      <trkpt lat="47.59213" lon="8.59174">
        <ele>351.8</ele>
      </trkpt>
      <trkpt lat="47.59202" lon="8.59207">
        <ele>350.5</ele>
      </trkpt>
      <trkpt lat="47.5919" lon="8.59241">
        <ele>349.1</ele>
      </trkpt>
      <trkpt lat="47.59169" lon="8.59283">
        <ele>348</ele>
      </trkpt>
      <trkpt lat="47.59152" lon="8.59308">
        <ele>347.7</ele>
      </trkpt>
      <trkpt lat="47.59124" lon="8.59346">
        <ele>346.4</ele>
      </trkpt>
      <trkpt lat="47.59084" lon="8.59404">
        <ele>343.2</ele>
      </trkpt>
      <trkpt lat="47.59068" lon="8.5943">
        <ele>343.6</ele>
      </trkpt>
      <trkpt lat="47.59058" lon="8.59447">
        <ele>344.2</ele>
      </trkpt>
      <trkpt lat="47.59044" lon="8.59473">
        <ele>344.9</ele>
      </trkpt>
      <trkpt lat="47.5903" lon="8.59503">
        <ele>345.4</ele>
      </trkpt>
      <trkpt lat="47.59022" lon="8.59525">
        <ele>345.6</ele>
      </trkpt>
      <trkpt lat="47.59009" lon="8.59559">
        <ele>345.4</ele>
      </trkpt>
      <trkpt lat="47.59" lon="8.59588">
        <ele>345.1</ele>
      </trkpt>
      <trkpt lat="47.58994" lon="8.59621">
        <ele>345.8</ele>
      </trkpt>
      <trkpt lat="47.5899" lon="8.59658">
        <ele>346.6</ele>
      </trkpt>
      <trkpt lat="47.58988" lon="8.59685">
        <ele>347.3</ele>
      </trkpt>
      <trkpt lat="47.58987" lon="8.59737">
        <ele>348.9</ele>
      </trkpt>
      <trkpt lat="47.58985" lon="8.59772">
        <ele>349.3</ele>
      </trkpt>
      <trkpt lat="47.58985" lon="8.5981">
        <ele>349.3</ele>
      </trkpt>
      <trkpt lat="47.58983" lon="8.59842">
        <ele>349.1</ele>
      </trkpt>
      <trkpt lat="47.5898" lon="8.59867">
        <ele>348.7</ele>
      </trkpt>
      <trkpt lat="47.58977" lon="8.59889">
        <ele>348.4</ele>
      </trkpt>
      <trkpt lat="47.58975" lon="8.59903">
        <ele>348.2</ele>
      </trkpt>
      <trkpt lat="47.59002" lon="8.59918">
        <ele>349.1</ele>
      </trkpt>
      <trkpt lat="47.59015" lon="8.59931">
        <ele>350</ele>
      </trkpt>
      <trkpt lat="47.59026" lon="8.59947">
        <ele>350.6</ele>
      </trkpt>
      <trkpt lat="47.5903" lon="8.59953">
        <ele>350.8</ele>
      </trkpt>
      <trkpt lat="47.59038" lon="8.59946">
        <ele>351.5</ele>
      </trkpt>
      <trkpt lat="47.59095" lon="8.599">
        <ele>354.7</ele>
      </trkpt>
      <trkpt lat="47.591" lon="8.59899">
        <ele>354.6</ele>
      </trkpt>
      <trkpt lat="47.59107" lon="8.59903">
        <ele>354.3</ele>
      </trkpt>
      <trkpt lat="47.59131" lon="8.59948">
        <ele>354.1</ele>
      </trkpt>
      <trkpt lat="47.59146" lon="8.59988">
        <ele>355.3</ele>
      </trkpt>
      <trkpt lat="47.5915" lon="8.6006">
        <ele>355.8</ele>
      </trkpt>
      <trkpt lat="47.59152" lon="8.60082">
        <ele>355.8</ele>
      </trkpt>
      <trkpt lat="47.59164" lon="8.60216">
        <ele>353</ele>
      </trkpt>
      <trkpt lat="47.5917" lon="8.60283">
        <ele>351.1</ele>
      </trkpt>
      <trkpt lat="47.5917" lon="8.60342">
        <ele>351.5</ele>
      </trkpt>
      <trkpt lat="47.59164" lon="8.60437">
        <ele>354.9</ele>
      </trkpt>
      <trkpt lat="47.5916" lon="8.60509">
        <ele>354.7</ele>
      </trkpt>
      <trkpt lat="47.59157" lon="8.60561">
        <ele>354.6</ele>
      </trkpt>
      <trkpt lat="47.59157" lon="8.606">
        <ele>355</ele>
      </trkpt>
      <trkpt lat="47.59159" lon="8.60621">
        <ele>355.6</ele>
      </trkpt>
      <trkpt lat="47.5916" lon="8.60636">
        <ele>356</ele>
      </trkpt>
      <trkpt lat="47.59166" lon="8.60652">
        <ele>356.6</ele>
      </trkpt>
      <trkpt lat="47.5918" lon="8.60673">
        <ele>356.8</ele>
      </trkpt>
      <trkpt lat="47.59192" lon="8.60684">
        <ele>356.6</ele>
      </trkpt>
      <trkpt lat="47.59219" lon="8.60696">
        <ele>356.1</ele>
      </trkpt>
      <trkpt lat="47.5925" lon="8.6071">
        <ele>355.5</ele>
      </trkpt>
      <trkpt lat="47.59275" lon="8.60717">
        <ele>354.9</ele>
      </trkpt>
      <trkpt lat="47.59337" lon="8.6074">
        <ele>353.7</ele>
      </trkpt>
      <trkpt lat="47.59346" lon="8.60744">
        <ele>353.6</ele>
      </trkpt>
      <trkpt lat="47.59346" lon="8.60726">
        <ele>353.1</ele>
      </trkpt>
      <trkpt lat="47.59347" lon="8.60697">
        <ele>352.4</ele>
      </trkpt>
      <trkpt lat="47.59346" lon="8.60676">
        <ele>351.9</ele>
      </trkpt>
      <trkpt lat="47.59344" lon="8.60667">
        <ele>351.8</ele>
      </trkpt>
      <trkpt lat="47.5934" lon="8.60659">
        <ele>352</ele>
      </trkpt>
      <trkpt lat="47.59345" lon="8.60659">
        <ele>351.9</ele>
      </trkpt>
      <trkpt lat="47.59446" lon="8.60663">
        <ele>352.7</ele>
      </trkpt>
      <trkpt lat="47.59449" lon="8.60663">
        <ele>353</ele>
      </trkpt>
      <trkpt lat="47.59449" lon="8.60669">
        <ele>353.1</ele>
      </trkpt>
      <trkpt lat="47.59443" lon="8.60675">
        <ele>352.6</ele>
      </trkpt>
      <trkpt lat="47.59442" lon="8.60676">
        <ele>352.6</ele>
      </trkpt>
      <trkpt lat="47.59441" lon="8.60682">
        <ele>352.6</ele>
      </trkpt>
      <trkpt lat="47.5944" lon="8.60655">
        <ele>352.1</ele>
      </trkpt>
      <trkpt lat="47.59441" lon="8.60642">
        <ele>352</ele>
      </trkpt>
      <trkpt lat="47.59443" lon="8.60565">
        <ele>350.8</ele>
      </trkpt>
      <trkpt lat="47.59443" lon="8.60533">
        <ele>350</ele>
      </trkpt>
      <trkpt lat="47.59446" lon="8.60274">
        <ele>349.3</ele>
      </trkpt>
      <trkpt lat="47.59448" lon="8.60261">
        <ele>349.3</ele>
      </trkpt>
      <trkpt lat="47.59457" lon="8.60253">
        <ele>349.5</ele>
      </trkpt>
      <trkpt lat="47.59467" lon="8.60242">
        <ele>349.6</ele>
      </trkpt>
      <trkpt lat="47.59471" lon="8.60238">
        <ele>349.6</ele>
      </trkpt>
      <trkpt lat="47.59477" lon="8.60237">
        <ele>349.8</ele>
      </trkpt>
      <trkpt lat="47.59483" lon="8.60238">
        <ele>349.8</ele>
      </trkpt>
      <trkpt lat="47.59492" lon="8.6024">
        <ele>350</ele>
      </trkpt>
      <trkpt lat="47.59501" lon="8.60243">
        <ele>350.1</ele>
      </trkpt>
      <trkpt lat="47.59511" lon="8.60246">
        <ele>350.6</ele>
      </trkpt>
      <trkpt lat="47.59523" lon="8.60241">
        <ele>351.1</ele>
      </trkpt>
      <trkpt lat="47.59532" lon="8.60237">
        <ele>351.5</ele>
      </trkpt>
      <trkpt lat="47.59557" lon="8.60216">
        <ele>352.3</ele>
      </trkpt>
      <trkpt lat="47.59573" lon="8.60206">
        <ele>352.6</ele>
      </trkpt>
      <trkpt lat="47.59579" lon="8.60201">
        <ele>352.7</ele>
      </trkpt>
      <trkpt lat="47.5958" lon="8.60141">
        <ele>352</ele>
      </trkpt>
      <trkpt lat="47.5958" lon="8.60116">
        <ele>352</ele>
      </trkpt>
      <trkpt lat="47.59582" lon="8.60103">
        <ele>352</ele>
      </trkpt>
      <trkpt lat="47.59586" lon="8.60099">
        <ele>352</ele>
      </trkpt>
      <trkpt lat="47.59597" lon="8.60098">
        <ele>352.2</ele>
      </trkpt>
      <trkpt lat="47.59603" lon="8.601">
        <ele>352.2</ele>
      </trkpt>
      <trkpt lat="47.5963" lon="8.6011">
        <ele>352.6</ele>
      </trkpt>
      <trkpt lat="47.59658" lon="8.60118">
        <ele>352.9</ele>
      </trkpt>
      <trkpt lat="47.59674" lon="8.60123">
        <ele>352.9</ele>
      </trkpt>
      <trkpt lat="47.59682" lon="8.60122">
        <ele>352.8</ele>
      </trkpt>
      <trkpt lat="47.59688" lon="8.60122">
        <ele>352.8</ele>
      </trkpt>
      <trkpt lat="47.59694" lon="8.6011">
        <ele>352.8</ele>
      </trkpt>
      <trkpt lat="47.59725" lon="8.60102">
        <ele>352.7</ele>
      </trkpt>
      <trkpt lat="47.59732" lon="8.60101">
        <ele>352.7</ele>
      </trkpt>
      <trkpt lat="47.59739" lon="8.60107">
        <ele>352.5</ele>
      </trkpt>
      <trkpt lat="47.5975" lon="8.60116">
        <ele>352.2</ele>
      </trkpt>
      <trkpt lat="47.59754" lon="8.60119">
        <ele>351.8</ele>
      </trkpt>
      <trkpt lat="47.59762" lon="8.60118">
        <ele>351.2</ele>
      </trkpt>
      <trkpt lat="47.59764" lon="8.60118">
        <ele>351.1</ele>
      </trkpt>
      <trkpt lat="47.59771" lon="8.60097">
        <ele>350.9</ele>
      </trkpt>
      <trkpt lat="47.59778" lon="8.60075">
        <ele>350.7</ele>
      </trkpt>
      <trkpt lat="47.59808" lon="8.59969">
        <ele>347.7</ele>
      </trkpt>
      <trkpt lat="47.59828" lon="8.59899">
        <ele>345.2</ele>
      </trkpt>
      <trkpt lat="47.59836" lon="8.59876">
        <ele>344.5</ele>
      </trkpt>
      <trkpt lat="47.59839" lon="8.59868">
        <ele>344.4</ele>
      </trkpt>
      <trkpt lat="47.5985" lon="8.59849">
        <ele>344.3</ele>
      </trkpt>
      <trkpt lat="47.59861" lon="8.5983">
        <ele>344.3</ele>
      </trkpt>
      <trkpt lat="47.59871" lon="8.59815">
        <ele>344.3</ele>
      </trkpt>
      <trkpt lat="47.59878" lon="8.59797">
        <ele>344.3</ele>
      </trkpt>
      <trkpt lat="47.59884" lon="8.59785">
        <ele>344.4</ele>
      </trkpt>
      <trkpt lat="47.59885" lon="8.59781">
        <ele>344.4</ele>
      </trkpt>
      <trkpt lat="47.59892" lon="8.59756">
        <ele>344.4</ele>
      </trkpt>
      <trkpt lat="47.59898" lon="8.59726">
        <ele>344.8</ele>
      </trkpt>
      <trkpt lat="47.59908" lon="8.59672">
        <ele>345.6</ele>
      </trkpt>
      <trkpt lat="47.59919" lon="8.59618">
        <ele>345.4</ele>
      </trkpt>
      <trkpt lat="47.59927" lon="8.59613">
        <ele>345.3</ele>
      </trkpt>
      <trkpt lat="47.60057" lon="8.59613">
        <ele>344.4</ele>
      </trkpt>
      <trkpt lat="47.6009" lon="8.59614">
        <ele>344.3</ele>
      </trkpt>
      <trkpt lat="47.60135" lon="8.59614">
        <ele>344.1</ele>
      </trkpt>
      <trkpt lat="47.60144" lon="8.59614">
        <ele>344.1</ele>
      </trkpt>
      <trkpt lat="47.60155" lon="8.59612">
        <ele>344</ele>
      </trkpt>
      <trkpt lat="47.60162" lon="8.59608">
        <ele>344</ele>
      </trkpt>
      <trkpt lat="47.60179" lon="8.59591">
        <ele>343.8</ele>
      </trkpt>
      <trkpt lat="47.60193" lon="8.59576">
        <ele>343.7</ele>
      </trkpt>
      <trkpt lat="47.6021" lon="8.59564">
        <ele>343.3</ele>
      </trkpt>
      <trkpt lat="47.60219" lon="8.59563">
        <ele>343.2</ele>
      </trkpt>
      <trkpt lat="47.60236" lon="8.59568">
        <ele>342.9</ele>
      </trkpt>
      <trkpt lat="47.60275" lon="8.59587">
        <ele>343.5</ele>
      </trkpt>
      <trkpt lat="47.60288" lon="8.59591">
        <ele>343.8</ele>
      </trkpt>
      <trkpt lat="47.60327" lon="8.59595">
        <ele>344.7</ele>
      </trkpt>
      <trkpt lat="47.60373" lon="8.596">
        <ele>346.4</ele>
      </trkpt>
      <trkpt lat="47.60409" lon="8.59608">
        <ele>347.5</ele>
      </trkpt>
      <trkpt lat="47.60449" lon="8.5962">
        <ele>348.3</ele>
      </trkpt>
      <trkpt lat="47.60469" lon="8.5963">
        <ele>348.7</ele>
      </trkpt>
      <trkpt lat="47.60473" lon="8.59638">
        <ele>348.6</ele>
      </trkpt>
      <trkpt lat="47.60479" lon="8.59642">
        <ele>348.7</ele>
      </trkpt>
      <trkpt lat="47.60507" lon="8.59661">
        <ele>348.9</ele>
      </trkpt>
      <trkpt lat="47.60506" lon="8.5968">
        <ele>348.8</ele>
      </trkpt>
      <trkpt lat="47.60516" lon="8.59693">
        <ele>348.4</ele>
      </trkpt>
      <trkpt lat="47.60521" lon="8.59694">
        <ele>348.2</ele>
      </trkpt>
      <trkpt lat="47.60527" lon="8.59691">
        <ele>348</ele>
      </trkpt>
      <trkpt lat="47.60548" lon="8.59678">
        <ele>347.3</ele>
      </trkpt>
      <trkpt lat="47.60554" lon="8.59678">
        <ele>347.1</ele>
      </trkpt>
      <trkpt lat="47.60562" lon="8.5968">
        <ele>346.8</ele>
      </trkpt>
      <trkpt lat="47.60569" lon="8.59687">
        <ele>346.5</ele>
      </trkpt>
      <trkpt lat="47.60578" lon="8.597">
        <ele>346.2</ele>
      </trkpt>
      <trkpt lat="47.6059" lon="8.59718">
        <ele>346.1</ele>
      </trkpt>
      <trkpt lat="47.60595" lon="8.59726">
        <ele>346.2</ele>
      </trkpt>
      <trkpt lat="47.60599" lon="8.59734">
        <ele>346.3</ele>
      </trkpt>
      <trkpt lat="47.60602" lon="8.59734">
        <ele>346.3</ele>
      </trkpt>
      <trkpt lat="47.60605" lon="8.59739">
        <ele>346.3</ele>
      </trkpt>
      <trkpt lat="47.60612" lon="8.5975">
        <ele>346.3</ele>
      </trkpt>
      <trkpt lat="47.60645" lon="8.59821">
        <ele>345.1</ele>
      </trkpt>
      <trkpt lat="47.60642" lon="8.59826">
        <ele>345</ele>
      </trkpt>
      <trkpt lat="47.60653" lon="8.59839">
        <ele>344.7</ele>
      </trkpt>
      <trkpt lat="47.60664" lon="8.59859">
        <ele>345</ele>
      </trkpt>
      <trkpt lat="47.6068" lon="8.59888">
        <ele>346</ele>
      </trkpt>
      <trkpt lat="47.60709" lon="8.59934">
        <ele>348.1</ele>
      </trkpt>
      <trkpt lat="47.60748" lon="8.60008">
        <ele>352.3</ele>
      </trkpt>
      <trkpt lat="47.60772" lon="8.60048">
        <ele>353.2</ele>
      </trkpt>
      <trkpt lat="47.60786" lon="8.6007">
        <ele>353.4</ele>
      </trkpt>
      <trkpt lat="47.60798" lon="8.60099">
        <ele>353.6</ele>
      </trkpt>
      <trkpt lat="47.60821" lon="8.60129">
        <ele>353.5</ele>
      </trkpt>
      <trkpt lat="47.60843" lon="8.60156">
        <ele>353.4</ele>
      </trkpt>
      <trkpt lat="47.60884" lon="8.60211">
        <ele>353.3</ele>
      </trkpt>
      <trkpt lat="47.60921" lon="8.6026">
        <ele>353.2</ele>
      </trkpt>
      <trkpt lat="47.60977" lon="8.60342">
        <ele>355.5</ele>
      </trkpt>
      <trkpt lat="47.61019" lon="8.60391">
        <ele>359.3</ele>
      </trkpt>
      <trkpt lat="47.61036" lon="8.60413">
        <ele>359.4</ele>
      </trkpt>
      <trkpt lat="47.6104" lon="8.6042">
        <ele>359.5</ele>
      </trkpt>
      <trkpt lat="47.61061" lon="8.60438">
        <ele>358.6</ele>
      </trkpt>
      <trkpt lat="47.61082" lon="8.60457">
        <ele>357.6</ele>
      </trkpt>
      <trkpt lat="47.6113" lon="8.60501">
        <ele>358.8</ele>
      </trkpt>
      <trkpt lat="47.61135" lon="8.60503">
        <ele>358.8</ele>
      </trkpt>
      <trkpt lat="47.61165" lon="8.60518">
        <ele>358.4</ele>
      </trkpt>
      <trkpt lat="47.61251" lon="8.60562">
        <ele>362.1</ele>
      </trkpt>
      <trkpt lat="47.61266" lon="8.60578">
        <ele>362.3</ele>
      </trkpt>
      <trkpt lat="47.61291" lon="8.60593">
        <ele>361</ele>
      </trkpt>
      <trkpt lat="47.61307" lon="8.60603">
        <ele>360.4</ele>
      </trkpt>
      <trkpt lat="47.61357" lon="8.60601">
        <ele>357.7</ele>
      </trkpt>
      <trkpt lat="47.61395" lon="8.60613">
        <ele>357.7</ele>
      </trkpt>
      <trkpt lat="47.61468" lon="8.60617">
        <ele>358.4</ele>
      </trkpt>
      <trkpt lat="47.61497" lon="8.6062">
        <ele>359.1</ele>
      </trkpt>
      <trkpt lat="47.61536" lon="8.60625">
        <ele>359</ele>
      </trkpt>
      <trkpt lat="47.61566" lon="8.60633">
        <ele>359.2</ele>
      </trkpt>
      <trkpt lat="47.61582" lon="8.60637">
        <ele>359.3</ele>
      </trkpt>
      <trkpt lat="47.61601" lon="8.6063">
        <ele>360</ele>
      </trkpt>
      <trkpt lat="47.61645" lon="8.60621">
        <ele>362.1</ele>
      </trkpt>
      <trkpt lat="47.61672" lon="8.60615">
        <ele>363.2</ele>
      </trkpt>
      <trkpt lat="47.61684" lon="8.6061">
        <ele>363.6</ele>
      </trkpt>
      <trkpt lat="47.61691" lon="8.60607">
        <ele>363.8</ele>
      </trkpt>
      <trkpt lat="47.61759" lon="8.6056">
        <ele>363.1</ele>
      </trkpt>
      <trkpt lat="47.61811" lon="8.60525">
        <ele>358</ele>
      </trkpt>
      <trkpt lat="47.61846" lon="8.60521">
        <ele>357.6</ele>
      </trkpt>
      <trkpt lat="47.61849" lon="8.60508">
        <ele>355.9</ele>
      </trkpt>
      <trkpt lat="47.61856" lon="8.60495">
        <ele>354.8</ele>
      </trkpt>
      <trkpt lat="47.61888" lon="8.60472">
        <ele>354.7</ele>
      </trkpt>
      <trkpt lat="47.61905" lon="8.60447">
        <ele>353.7</ele>
      </trkpt>
      <trkpt lat="47.61925" lon="8.60429">
        <ele>353.3</ele>
      </trkpt>
      <trkpt lat="47.61997" lon="8.60362">
        <ele>354.6</ele>
      </trkpt>
      <trkpt lat="47.6207" lon="8.60289">
        <ele>356.2</ele>
      </trkpt>
      <trkpt lat="47.62086" lon="8.60272">
        <ele>356.2</ele>
      </trkpt>
      <trkpt lat="47.62133" lon="8.60231">
        <ele>355.7</ele>
      </trkpt>
      <trkpt lat="47.62141" lon="8.60224">
        <ele>355.7</ele>
      </trkpt>
      <trkpt lat="47.62202" lon="8.60172">
        <ele>356.1</ele>
      </trkpt>
      <trkpt lat="47.62252" lon="8.6014">
        <ele>356.1</ele>
      </trkpt>
      <trkpt lat="47.6229" lon="8.60118">
        <ele>357.9</ele>
      </trkpt>
      <trkpt lat="47.62351" lon="8.60066">
        <ele>358.8</ele>
      </trkpt>
      <trkpt lat="47.62421" lon="8.60019">
        <ele>359.4</ele>
      </trkpt>
      <trkpt lat="47.62481" lon="8.5999">
        <ele>360</ele>
      </trkpt>
      <trkpt lat="47.62543" lon="8.59955">
        <ele>361.1</ele>
      </trkpt>
      <trkpt lat="47.62553" lon="8.59947">
        <ele>360.8</ele>
      </trkpt>
      <trkpt lat="47.62565" lon="8.59944">
        <ele>361.1</ele>
      </trkpt>
      <trkpt lat="47.62574" lon="8.59946">
        <ele>361.5</ele>
      </trkpt>
      <trkpt lat="47.62582" lon="8.59944">
        <ele>361.5</ele>
      </trkpt>
      <trkpt lat="47.62591" lon="8.59936">
        <ele>361.1</ele>
      </trkpt>
      <trkpt lat="47.62605" lon="8.59929">
        <ele>360.8</ele>
      </trkpt>
      <trkpt lat="47.62618" lon="8.59924">
        <ele>360.6</ele>
      </trkpt>
      <trkpt lat="47.62631" lon="8.59919">
        <ele>360.4</ele>
      </trkpt>
      <trkpt lat="47.6264" lon="8.59918">
        <ele>360.5</ele>
      </trkpt>
      <trkpt lat="47.62651" lon="8.59918">
        <ele>360.8</ele>
      </trkpt>
      <trkpt lat="47.62657" lon="8.59919">
        <ele>361.2</ele>
      </trkpt>
      <trkpt lat="47.62666" lon="8.59913">
        <ele>360.8</ele>
      </trkpt>
      <trkpt lat="47.62674" lon="8.59907">
        <ele>360.8</ele>
      </trkpt>
      <trkpt lat="47.62759" lon="8.5988">
        <ele>360.8</ele>
      </trkpt>
      <trkpt lat="47.62823" lon="8.59866">
        <ele>360.5</ele>
      </trkpt>
      <trkpt lat="47.62846" lon="8.59859">
        <ele>360</ele>
      </trkpt>
      <trkpt lat="47.62856" lon="8.59856">
        <ele>359.8</ele>
      </trkpt>
      <trkpt lat="47.62862" lon="8.59857">
        <ele>360</ele>
      </trkpt>
      <trkpt lat="47.62869" lon="8.59858">
        <ele>360.2</ele>
      </trkpt>
      <trkpt lat="47.62871" lon="8.59858">
        <ele>360.2</ele>
      </trkpt>
      <trkpt lat="47.62874" lon="8.59853">
        <ele>359.8</ele>
      </trkpt>
      <trkpt lat="47.62875" lon="8.59849">
        <ele>359.3</ele>
      </trkpt>
      <trkpt lat="47.62875" lon="8.59846">
        <ele>358.9</ele>
      </trkpt>
      <trkpt lat="47.62878" lon="8.59843">
        <ele>358.6</ele>
      </trkpt>
      <trkpt lat="47.62882" lon="8.59839">
        <ele>358.3</ele>
      </trkpt>
      <trkpt lat="47.62899" lon="8.59832">
        <ele>357.8</ele>
      </trkpt>
      <trkpt lat="47.62903" lon="8.5983">
        <ele>357.8</ele>
      </trkpt>
      <trkpt lat="47.62938" lon="8.59813">
        <ele>358.6</ele>
      </trkpt>
      <trkpt lat="47.63032" lon="8.59778">
        <ele>360</ele>
      </trkpt>
      <trkpt lat="47.63083" lon="8.59766">
        <ele>360.7</ele>
      </trkpt>
      <trkpt lat="47.63122" lon="8.59763">
        <ele>358.3</ele>
      </trkpt>
      <trkpt lat="47.63146" lon="8.59762">
        <ele>357</ele>
      </trkpt>
      <trkpt lat="47.63223" lon="8.59769">
        <ele>359.3</ele>
      </trkpt>
      <trkpt lat="47.63242" lon="8.59768">
        <ele>360</ele>
      </trkpt>
      <trkpt lat="47.63303" lon="8.59754">
        <ele>356.5</ele>
      </trkpt>
      <trkpt lat="47.63332" lon="8.59748">
        <ele>355</ele>
      </trkpt>
      <trkpt lat="47.63355" lon="8.59747">
        <ele>356.4</ele>
      </trkpt>
      <trkpt lat="47.63373" lon="8.59747">
        <ele>357.7</ele>
      </trkpt>
      <trkpt lat="47.63402" lon="8.59751">
        <ele>360.2</ele>
      </trkpt>
      <trkpt lat="47.6345" lon="8.59756">
        <ele>364</ele>
      </trkpt>
      <trkpt lat="47.63513" lon="8.59759">
        <ele>366.6</ele>
      </trkpt>
      <trkpt lat="47.63563" lon="8.59757">
        <ele>363.9</ele>
      </trkpt>
      <trkpt lat="47.63624" lon="8.59752">
        <ele>363.8</ele>
      </trkpt>
      <trkpt lat="47.63685" lon="8.59747">
        <ele>364.3</ele>
      </trkpt>
      <trkpt lat="47.63725" lon="8.59743">
        <ele>362.9</ele>
      </trkpt>
      <trkpt lat="47.63736" lon="8.59742">
        <ele>362.5</ele>
      </trkpt>
      <trkpt lat="47.63738" lon="8.5974">
        <ele>362.3</ele>
      </trkpt>
      <trkpt lat="47.6374" lon="8.59737">
        <ele>362</ele>
      </trkpt>
      <trkpt lat="47.63786" lon="8.59708">
        <ele>360.2</ele>
      </trkpt>
      <trkpt lat="47.63844" lon="8.59681">
        <ele>358.6</ele>
      </trkpt>
      <trkpt lat="47.6386" lon="8.59673">
        <ele>358.4</ele>
      </trkpt>
      <trkpt lat="47.63876" lon="8.59672">
        <ele>358.9</ele>
      </trkpt>
      <trkpt lat="47.63876" lon="8.59676">
        <ele>359.7</ele>
      </trkpt>
      <trkpt lat="47.6387" lon="8.59683">
        <ele>360.5</ele>
      </trkpt>
      <trkpt lat="47.63876" lon="8.59688">
        <ele>361.9</ele>
      </trkpt>
      <trkpt lat="47.6388" lon="8.59695">
        <ele>363.3</ele>
      </trkpt>
      <trkpt lat="47.63882" lon="8.5971">
        <ele>366</ele>
      </trkpt>
      <trkpt lat="47.63882" lon="8.59714">
        <ele>366.8</ele>
      </trkpt>
      <trkpt lat="47.63881" lon="8.59716">
        <ele>367.1</ele>
      </trkpt>
      <trkpt lat="47.63873" lon="8.5972">
        <ele>367.2</ele>
      </trkpt>
      <trkpt lat="47.6388" lon="8.59724">
        <ele>368.3</ele>
      </trkpt>
      <trkpt lat="47.63877" lon="8.59725">
        <ele>368.4</ele>
      </trkpt>
      <trkpt lat="47.63874" lon="8.59727">
        <ele>368.4</ele>
      </trkpt>
      <trkpt lat="47.6387" lon="8.59729">
        <ele>368.4</ele>
      </trkpt>
      <trkpt lat="47.63865" lon="8.59732">
        <ele>368.4</ele>
      </trkpt>
      <trkpt lat="47.63857" lon="8.59738">
        <ele>368.5</ele>
      </trkpt>
      <trkpt lat="47.63852" lon="8.59741">
        <ele>368.5</ele>
      </trkpt>
      <trkpt lat="47.63847" lon="8.59744">
        <ele>368.5</ele>
      </trkpt>
      <trkpt lat="47.63848" lon="8.59746">
        <ele>369</ele>
      </trkpt>
      <trkpt lat="47.63852" lon="8.59746">
        <ele>369.4</ele>
      </trkpt>
      <trkpt lat="47.63855" lon="8.59748">
        <ele>370</ele>
      </trkpt>
      <trkpt lat="47.63856" lon="8.59751">
        <ele>370.7</ele>
      </trkpt>
      <trkpt lat="47.63856" lon="8.59758">
        <ele>371.8</ele>
      </trkpt>
      <trkpt lat="47.63851" lon="8.59767">
        <ele>373</ele>
      </trkpt>
      <trkpt lat="47.63857" lon="8.59759">
        <ele>372.1</ele>
      </trkpt>
      <trkpt lat="47.63876" lon="8.59749">
        <ele>372.5</ele>
      </trkpt>
      <trkpt lat="47.63882" lon="8.59747">
        <ele>372.6</ele>
      </trkpt>
      <trkpt lat="47.63886" lon="8.59746">
        <ele>372.9</ele>
      </trkpt>
      <trkpt lat="47.63889" lon="8.59746">
        <ele>373.4</ele>
      </trkpt>
      <trkpt lat="47.63893" lon="8.59747">
        <ele>373.9</ele>
      </trkpt>
      <trkpt lat="47.63896" lon="8.59748">
        <ele>374.3</ele>
      </trkpt>
      <trkpt lat="47.63901" lon="8.59744">
        <ele>374.2</ele>
      </trkpt>
      <trkpt lat="47.63919" lon="8.59735">
        <ele>373.9</ele>
      </trkpt>
      <trkpt lat="47.63955" lon="8.59715">
        <ele>369.9</ele>
      </trkpt>
      <trkpt lat="47.63963" lon="8.59712">
        <ele>369.2</ele>
      </trkpt>
      <trkpt lat="47.63971" lon="8.59711">
        <ele>369</ele>
      </trkpt>
      <trkpt lat="47.63978" lon="8.59712">
        <ele>369.3</ele>
      </trkpt>
      <trkpt lat="47.63981" lon="8.59714">
        <ele>369.7</ele>
      </trkpt>
      <trkpt lat="47.63984" lon="8.5972">
        <ele>370.9</ele>
      </trkpt>
      <trkpt lat="47.63985" lon="8.59737">
        <ele>374.4</ele>
      </trkpt>
      <trkpt lat="47.63988" lon="8.59738">
        <ele>374.6</ele>
      </trkpt>
      <trkpt lat="47.64012" lon="8.59735">
        <ele>374.5</ele>
      </trkpt>
      <trkpt lat="47.64016" lon="8.59738">
        <ele>375.3</ele>
      </trkpt>
      <trkpt lat="47.6405" lon="8.59729">
        <ele>374.9</ele>
      </trkpt>
      <trkpt lat="47.64095" lon="8.59709">
        <ele>372.8</ele>
      </trkpt>
      <trkpt lat="47.64114" lon="8.59699">
        <ele>371.9</ele>
      </trkpt>
      <trkpt lat="47.64132" lon="8.59692">
        <ele>371.4</ele>
      </trkpt>
      <trkpt lat="47.64154" lon="8.59682">
        <ele>370.6</ele>
      </trkpt>
      <trkpt lat="47.6417" lon="8.59678">
        <ele>370.2</ele>
      </trkpt>
      <trkpt lat="47.64197" lon="8.59677">
        <ele>368.8</ele>
      </trkpt>
      <trkpt lat="47.6421" lon="8.5968">
        <ele>368.8</ele>
      </trkpt>
      <trkpt lat="47.64222" lon="8.59686">
        <ele>369.5</ele>
      </trkpt>
      <trkpt lat="47.64235" lon="8.59695">
        <ele>370.8</ele>
      </trkpt>
      <trkpt lat="47.6425" lon="8.59708">
        <ele>373</ele>
      </trkpt>
      <trkpt lat="47.64281" lon="8.59753">
        <ele>378.1</ele>
      </trkpt>
      <trkpt lat="47.64296" lon="8.59781">
        <ele>378.6</ele>
      </trkpt>
      <trkpt lat="47.64311" lon="8.59829">
        <ele>382.4</ele>
      </trkpt>
      <trkpt lat="47.6432" lon="8.5986">
        <ele>383.2</ele>
      </trkpt>
      <trkpt lat="47.64325" lon="8.59875">
        <ele>383.6</ele>
      </trkpt>
      <trkpt lat="47.64348" lon="8.59912">
        <ele>381.5</ele>
      </trkpt>
      <trkpt lat="47.64352" lon="8.59925">
        <ele>380.7</ele>
      </trkpt>
      <trkpt lat="47.64363" lon="8.59963">
        <ele>379.9</ele>
      </trkpt>
      <trkpt lat="47.6437" lon="8.59982">
        <ele>379.1</ele>
      </trkpt>
      <trkpt lat="47.64382" lon="8.60039">
        <ele>380.5</ele>
      </trkpt>
      <trkpt lat="47.64388" lon="8.60057">
        <ele>380.9</ele>
      </trkpt>
      <trkpt lat="47.64399" lon="8.60094">
        <ele>382.9</ele>
      </trkpt>
      <trkpt lat="47.64419" lon="8.60142">
        <ele>384.7</ele>
      </trkpt>
      <trkpt lat="47.64419" lon="8.60146">
        <ele>385.2</ele>
      </trkpt>
      <trkpt lat="47.64428" lon="8.60153">
        <ele>383.8</ele>
      </trkpt>
      <trkpt lat="47.64438" lon="8.60161">
        <ele>382.5</ele>
      </trkpt>
      <trkpt lat="47.64448" lon="8.60172">
        <ele>381</ele>
      </trkpt>
      <trkpt lat="47.64454" lon="8.60179">
        <ele>380</ele>
      </trkpt>
      <trkpt lat="47.64458" lon="8.60188">
        <ele>379.4</ele>
      </trkpt>
      <trkpt lat="47.64461" lon="8.60197">
        <ele>379.1</ele>
      </trkpt>
      <trkpt lat="47.64462" lon="8.60207">
        <ele>379</ele>
      </trkpt>
      <trkpt lat="47.64462" lon="8.60228">
        <ele>379.6</ele>
      </trkpt>
      <trkpt lat="47.6446" lon="8.60242">
        <ele>380</ele>
      </trkpt>
      <trkpt lat="47.64458" lon="8.60257">
        <ele>380.3</ele>
      </trkpt>
      <trkpt lat="47.64454" lon="8.60271">
        <ele>380.1</ele>
      </trkpt>
      <trkpt lat="47.64457" lon="8.60272">
        <ele>379.7</ele>
      </trkpt>
      <trkpt lat="47.64465" lon="8.60284">
        <ele>378</ele>
      </trkpt>
      <trkpt lat="47.64488" lon="8.60317">
        <ele>373.8</ele>
      </trkpt>
      <trkpt lat="47.64496" lon="8.60302">
        <ele>373.3</ele>
      </trkpt>
      <trkpt lat="47.64512" lon="8.60276">
        <ele>371.6</ele>
      </trkpt>
      <trkpt lat="47.6452" lon="8.60268">
        <ele>370.4</ele>
      </trkpt>
      <trkpt lat="47.64529" lon="8.60264">
        <ele>369</ele>
      </trkpt>
      <trkpt lat="47.64537" lon="8.60265">
        <ele>367.7</ele>
      </trkpt>
      <trkpt lat="47.64542" lon="8.60268">
        <ele>367</ele>
      </trkpt>
      <trkpt lat="47.64574" lon="8.60297">
        <ele>364.6</ele>
      </trkpt>
      <trkpt lat="47.64594" lon="8.60315">
        <ele>364.2</ele>
      </trkpt>
      <trkpt lat="47.64605" lon="8.6032">
        <ele>363.6</ele>
      </trkpt>
      <trkpt lat="47.64608" lon="8.60321">
        <ele>363.4</ele>
      </trkpt>
      <trkpt lat="47.64646" lon="8.60331">
        <ele>360.1</ele>
      </trkpt>
      <trkpt lat="47.64677" lon="8.6034">
        <ele>358.4</ele>
      </trkpt>
      <trkpt lat="47.64723" lon="8.6036">
        <ele>357.9</ele>
      </trkpt>
      <trkpt lat="47.64722" lon="8.60363">
        <ele>358.3</ele>
      </trkpt>
      <trkpt lat="47.64722" lon="8.60371">
        <ele>359.1</ele>
      </trkpt>
      <trkpt lat="47.64723" lon="8.60383">
        <ele>360.2</ele>
      </trkpt>
      <trkpt lat="47.64727" lon="8.60395">
        <ele>361.1</ele>
      </trkpt>
      <trkpt lat="47.64738" lon="8.6042">
        <ele>362.4</ele>
      </trkpt>
      <trkpt lat="47.64739" lon="8.60426">
        <ele>362.7</ele>
      </trkpt>
      <trkpt lat="47.64738" lon="8.60432">
        <ele>363.3</ele>
      </trkpt>
      <trkpt lat="47.64732" lon="8.60436">
        <ele>364.1</ele>
      </trkpt>
      <trkpt lat="47.64682" lon="8.60501">
        <ele>369.6</ele>
      </trkpt>
      <trkpt lat="47.64674" lon="8.60509">
        <ele>369.8</ele>
      </trkpt>
      <trkpt lat="47.64638" lon="8.60544">
        <ele>370.5</ele>
      </trkpt>
      <trkpt lat="47.64579" lon="8.60581">
        <ele>371.9</ele>
      </trkpt>
      <trkpt lat="47.6457" lon="8.60556">
        <ele>371.5</ele>
      </trkpt>
      <trkpt lat="47.64545" lon="8.60573">
        <ele>371.1</ele>
      </trkpt>
      <trkpt lat="47.64536" lon="8.60579">
        <ele>370.9</ele>
      </trkpt>
      <trkpt lat="47.64523" lon="8.60588">
        <ele>370.4</ele>
      </trkpt>
      <trkpt lat="47.64523" lon="8.60588">
        <ele>370.4</ele>
      </trkpt>
      <trkpt lat="47.6451" lon="8.60597">
        <ele>369.8</ele>
      </trkpt>
      <trkpt lat="47.64493" lon="8.60608">
        <ele>368.5</ele>
      </trkpt>
      <trkpt lat="47.64488" lon="8.60612">
        <ele>367.9</ele>
      </trkpt>
      <trkpt lat="47.64483" lon="8.60616">
        <ele>367.4</ele>
      </trkpt>
      <trkpt lat="47.6448" lon="8.60617">
        <ele>367.1</ele>
      </trkpt>
      <trkpt lat="47.64474" lon="8.60643">
        <ele>365.7</ele>
      </trkpt>
      <trkpt lat="47.64469" lon="8.60656">
        <ele>364.7</ele>
      </trkpt>
      <trkpt lat="47.64466" lon="8.60662">
        <ele>364.3</ele>
      </trkpt>
      <trkpt lat="47.64454" lon="8.60674">
        <ele>363</ele>
      </trkpt>
      <trkpt lat="47.64434" lon="8.60687">
        <ele>361.4</ele>
      </trkpt>
      <trkpt lat="47.64419" lon="8.60698">
        <ele>360.2</ele>
      </trkpt>
      <trkpt lat="47.64405" lon="8.60712">
        <ele>359.5</ele>
      </trkpt>
      <trkpt lat="47.64395" lon="8.60721">
        <ele>359.1</ele>
      </trkpt>
      <trkpt lat="47.64391" lon="8.60724">
        <ele>358.8</ele>
      </trkpt>
      <trkpt lat="47.64379" lon="8.60735">
        <ele>358.3</ele>
      </trkpt>
      <trkpt lat="47.64371" lon="8.60731">
        <ele>357.9</ele>
      </trkpt>
      <trkpt lat="47.64363" lon="8.6073">
        <ele>357.6</ele>
      </trkpt>
      <trkpt lat="47.64358" lon="8.60728">
        <ele>357.4</ele>
      </trkpt>
      <trkpt lat="47.64354" lon="8.60726">
        <ele>357.2</ele>
      </trkpt>
      <trkpt lat="47.64351" lon="8.60724">
        <ele>357.1</ele>
      </trkpt>
      <trkpt lat="47.64343" lon="8.60719">
        <ele>356.8</ele>
      </trkpt>
      <trkpt lat="47.64307" lon="8.60701">
        <ele>356.4</ele>
      </trkpt>
      <trkpt lat="47.64305" lon="8.60699">
        <ele>356.3</ele>
      </trkpt>
      <trkpt lat="47.64306" lon="8.60664">
        <ele>356.3</ele>
      </trkpt>
      <trkpt lat="47.64307" lon="8.60657">
        <ele>356.3</ele>
      </trkpt>
      <trkpt lat="47.64311" lon="8.6061">
        <ele>356.1</ele>
      </trkpt>
      <trkpt lat="47.64308" lon="8.60609">
        <ele>356</ele>
      </trkpt>
      <trkpt lat="47.6429" lon="8.60591">
        <ele>355</ele>
      </trkpt>
      <trkpt lat="47.64285" lon="8.60554">
        <ele>355</ele>
      </trkpt>
      <trkpt lat="47.64276" lon="8.60493">
        <ele>355.6</ele>
      </trkpt>
      <trkpt lat="47.64272" lon="8.60474">
        <ele>356</ele>
      </trkpt>
      <trkpt lat="47.64266" lon="8.60457">
        <ele>356.2</ele>
      </trkpt>
      <trkpt lat="47.64249" lon="8.60409">
        <ele>356.2</ele>
      </trkpt>
      <trkpt lat="47.6424" lon="8.60389">
        <ele>356.5</ele>
      </trkpt>
      <trkpt lat="47.64218" lon="8.60354">
        <ele>356.4</ele>
      </trkpt>
      <trkpt lat="47.6421" lon="8.60347">
        <ele>356.2</ele>
      </trkpt>
      <trkpt lat="47.64208" lon="8.60341">
        <ele>356.2</ele>
      </trkpt>
      <trkpt lat="47.64202" lon="8.60333">
        <ele>356.2</ele>
      </trkpt>
      <trkpt lat="47.64192" lon="8.60319">
        <ele>356.2</ele>
      </trkpt>
      <trkpt lat="47.64184" lon="8.60305">
        <ele>356.1</ele>
      </trkpt>
      <trkpt lat="47.64146" lon="8.6026">
        <ele>354.9</ele>
      </trkpt>
      <trkpt lat="47.64138" lon="8.60257">
        <ele>354.8</ele>
      </trkpt>
      <trkpt lat="47.64117" lon="8.60239">
        <ele>355.8</ele>
      </trkpt>
      <trkpt lat="47.64121" lon="8.60229">
        <ele>357.2</ele>
      </trkpt>
      <trkpt lat="47.64093" lon="8.60208">
        <ele>358.1</ele>
      </trkpt>
      <trkpt lat="47.64074" lon="8.60197">
        <ele>358.4</ele>
      </trkpt>
      <trkpt lat="47.64061" lon="8.60194">
        <ele>358.6</ele>
      </trkpt>
      <trkpt lat="47.64043" lon="8.60191">
        <ele>358.7</ele>
      </trkpt>
      <trkpt lat="47.64028" lon="8.6019">
        <ele>358.6</ele>
      </trkpt>
      <trkpt lat="47.64" lon="8.60196">
        <ele>358.3</ele>
      </trkpt>
      <trkpt lat="47.63976" lon="8.60216">
        <ele>358.4</ele>
      </trkpt>
      <trkpt lat="47.6397" lon="8.6022">
        <ele>358.3</ele>
      </trkpt>
      <trkpt lat="47.63963" lon="8.60226">
        <ele>358.3</ele>
      </trkpt>
      <trkpt lat="47.63956" lon="8.60236">
        <ele>358.1</ele>
      </trkpt>
      <trkpt lat="47.63948" lon="8.60228">
        <ele>358.5</ele>
      </trkpt>
      <trkpt lat="47.63939" lon="8.60224">
        <ele>358.8</ele>
      </trkpt>
      <trkpt lat="47.63932" lon="8.60219">
        <ele>359.2</ele>
      </trkpt>
      <trkpt lat="47.63937" lon="8.60185">
        <ele>360.5</ele>
      </trkpt>
      <trkpt lat="47.63943" lon="8.60154">
        <ele>363.6</ele>
      </trkpt>
      <trkpt lat="47.63942" lon="8.60129">
        <ele>368.7</ele>
      </trkpt>
      <trkpt lat="47.63925" lon="8.60133">
        <ele>369</ele>
      </trkpt>
      <trkpt lat="47.63919" lon="8.60132">
        <ele>369.3</ele>
      </trkpt>
      <trkpt lat="47.63914" lon="8.6013">
        <ele>370.2</ele>
      </trkpt>
      <trkpt lat="47.63911" lon="8.60127">
        <ele>371.3</ele>
      </trkpt>
      <trkpt lat="47.63912" lon="8.60118">
        <ele>373.1</ele>
      </trkpt>
      <trkpt lat="47.63913" lon="8.60114">
        <ele>373.8</ele>
      </trkpt>
      <trkpt lat="47.63916" lon="8.60112">
        <ele>373.9</ele>
      </trkpt>
      <trkpt lat="47.63917" lon="8.6011">
        <ele>374.3</ele>
      </trkpt>
      <trkpt lat="47.63918" lon="8.60107">
        <ele>374.8</ele>
      </trkpt>
      <trkpt lat="47.63917" lon="8.60105">
        <ele>375.2</ele>
      </trkpt>
      <trkpt lat="47.63914" lon="8.60105">
        <ele>375.5</ele>
      </trkpt>
      <trkpt lat="47.63908" lon="8.60105">
        <ele>376.3</ele>
      </trkpt>
      <trkpt lat="47.63908" lon="8.60104">
        <ele>376.5</ele>
      </trkpt>
      <trkpt lat="47.63906" lon="8.60102">
        <ele>377.1</ele>
      </trkpt>
      <trkpt lat="47.63903" lon="8.60091">
        <ele>379.6</ele>
      </trkpt>
      <trkpt lat="47.63898" lon="8.60101">
        <ele>378</ele>
      </trkpt>
      <trkpt lat="47.63885" lon="8.60112">
        <ele>377.5</ele>
      </trkpt>
      <trkpt lat="47.63858" lon="8.60134">
        <ele>377</ele>
      </trkpt>
      <trkpt lat="47.63844" lon="8.60152">
        <ele>376.3</ele>
      </trkpt>
      <trkpt lat="47.6384" lon="8.60179">
        <ele>373.3</ele>
      </trkpt>
      <trkpt lat="47.63817" lon="8.60217">
        <ele>371.9</ele>
      </trkpt>
      <trkpt lat="47.63804" lon="8.60237">
        <ele>372.1</ele>
      </trkpt>
      <trkpt lat="47.6379" lon="8.60286">
        <ele>372.6</ele>
      </trkpt>
      <trkpt lat="47.63777" lon="8.60317">
        <ele>373.6</ele>
      </trkpt>
      <trkpt lat="47.6377" lon="8.60327">
        <ele>374.2</ele>
      </trkpt>
      <trkpt lat="47.63766" lon="8.60332">
        <ele>374.6</ele>
      </trkpt>
      <trkpt lat="47.63763" lon="8.60338">
        <ele>374.9</ele>
      </trkpt>
      <trkpt lat="47.63759" lon="8.60347">
        <ele>375.4</ele>
      </trkpt>
      <trkpt lat="47.63752" lon="8.60357">
        <ele>376.4</ele>
      </trkpt>
      <trkpt lat="47.6375" lon="8.60354">
        <ele>376.8</ele>
      </trkpt>
      <trkpt lat="47.63747" lon="8.60354">
        <ele>377.2</ele>
      </trkpt>
      <trkpt lat="47.63737" lon="8.60358">
        <ele>379</ele>
      </trkpt>
      <trkpt lat="47.63731" lon="8.60363">
        <ele>379.8</ele>
      </trkpt>
      <trkpt lat="47.63723" lon="8.60366">
        <ele>381.1</ele>
      </trkpt>
      <trkpt lat="47.63718" lon="8.60367">
        <ele>381.9</ele>
      </trkpt>
      <trkpt lat="47.63715" lon="8.60372">
        <ele>382.4</ele>
      </trkpt>
      <trkpt lat="47.63703" lon="8.60391">
        <ele>384.2</ele>
      </trkpt>
      <trkpt lat="47.63697" lon="8.60403">
        <ele>385</ele>
      </trkpt>
      <trkpt lat="47.6369" lon="8.60419">
        <ele>385.9</ele>
      </trkpt>
      <trkpt lat="47.63681" lon="8.60433">
        <ele>386.9</ele>
      </trkpt>
      <trkpt lat="47.63676" lon="8.6045">
        <ele>387.3</ele>
      </trkpt>
      <trkpt lat="47.63671" lon="8.6047">
        <ele>387.8</ele>
      </trkpt>
      <trkpt lat="47.63668" lon="8.60489">
        <ele>388.1</ele>
      </trkpt>
      <trkpt lat="47.63663" lon="8.60509">
        <ele>387.7</ele>
      </trkpt>
      <trkpt lat="47.63655" lon="8.60522">
        <ele>387.6</ele>
      </trkpt>
      <trkpt lat="47.63651" lon="8.60534">
        <ele>387.4</ele>
      </trkpt>
      <trkpt lat="47.63648" lon="8.60544">
        <ele>387.2</ele>
      </trkpt>
      <trkpt lat="47.63643" lon="8.60552">
        <ele>387.4</ele>
      </trkpt>
      <trkpt lat="47.63639" lon="8.60558">
        <ele>387.6</ele>
      </trkpt>
      <trkpt lat="47.63639" lon="8.60573">
        <ele>387.1</ele>
      </trkpt>
      <trkpt lat="47.63638" lon="8.6058">
        <ele>386.9</ele>
      </trkpt>
      <trkpt lat="47.63635" lon="8.60592">
        <ele>387</ele>
      </trkpt>
      <trkpt lat="47.63635" lon="8.60609">
        <ele>386.6</ele>
      </trkpt>
      <trkpt lat="47.63632" lon="8.60622">
        <ele>386.9</ele>
      </trkpt>
      <trkpt lat="47.6363" lon="8.60638">
        <ele>386.9</ele>
      </trkpt>
      <trkpt lat="47.63625" lon="8.60644">
        <ele>387.8</ele>
      </trkpt>
      <trkpt lat="47.63622" lon="8.60652">
        <ele>388.3</ele>
      </trkpt>
      <trkpt lat="47.63624" lon="8.60659">
        <ele>387.9</ele>
      </trkpt>
      <trkpt lat="47.63627" lon="8.60666">
        <ele>387.2</ele>
      </trkpt>
      <trkpt lat="47.63627" lon="8.60678">
        <ele>386.3</ele>
      </trkpt>
      <trkpt lat="47.63625" lon="8.607">
        <ele>385.5</ele>
      </trkpt>
      <trkpt lat="47.63625" lon="8.60703">
        <ele>385.4</ele>
      </trkpt>
      <trkpt lat="47.63625" lon="8.6072">
        <ele>384.4</ele>
      </trkpt>
      <trkpt lat="47.63618" lon="8.60738">
        <ele>385.2</ele>
      </trkpt>
      <trkpt lat="47.63618" lon="8.60748">
        <ele>384.7</ele>
      </trkpt>
      <trkpt lat="47.63615" lon="8.60752">
        <ele>385.3</ele>
      </trkpt>
      <trkpt lat="47.63613" lon="8.60762">
        <ele>386.2</ele>
      </trkpt>
      <trkpt lat="47.63615" lon="8.60773">
        <ele>386.2</ele>
      </trkpt>
      <trkpt lat="47.63618" lon="8.60778">
        <ele>385.6</ele>
      </trkpt>
      <trkpt lat="47.63618" lon="8.60783">
        <ele>385.8</ele>
      </trkpt>
      <trkpt lat="47.6362" lon="8.60792">
        <ele>385.8</ele>
      </trkpt>
      <trkpt lat="47.63624" lon="8.60797">
        <ele>384.9</ele>
      </trkpt>
      <trkpt lat="47.63626" lon="8.60802">
        <ele>384.7</ele>
      </trkpt>
      <trkpt lat="47.63626" lon="8.60819">
        <ele>385.6</ele>
      </trkpt>
      <trkpt lat="47.63627" lon="8.60825">
        <ele>385.7</ele>
      </trkpt>
      <trkpt lat="47.63626" lon="8.6084">
        <ele>386.4</ele>
      </trkpt>
      <trkpt lat="47.63627" lon="8.60849">
        <ele>386.5</ele>
      </trkpt>
      <trkpt lat="47.63626" lon="8.60858">
        <ele>386.9</ele>
      </trkpt>
      <trkpt lat="47.63628" lon="8.60866">
        <ele>386.7</ele>
      </trkpt>
      <trkpt lat="47.63629" lon="8.60873">
        <ele>386.7</ele>
      </trkpt>
      <trkpt lat="47.63626" lon="8.60887">
        <ele>387.7</ele>
      </trkpt>
      <trkpt lat="47.63627" lon="8.60901">
        <ele>387.7</ele>
      </trkpt>
      <trkpt lat="47.63627" lon="8.60914">
        <ele>388.1</ele>
      </trkpt>
      <trkpt lat="47.63624" lon="8.60919">
        <ele>388.8</ele>
      </trkpt>
      <trkpt lat="47.63622" lon="8.60926">
        <ele>389.2</ele>
      </trkpt>
      <trkpt lat="47.63625" lon="8.60933">
        <ele>388.9</ele>
      </trkpt>
      <trkpt lat="47.63628" lon="8.60941">
        <ele>388.6</ele>
      </trkpt>
      <trkpt lat="47.63628" lon="8.6096">
        <ele>389.1</ele>
      </trkpt>
      <trkpt lat="47.6363" lon="8.60979">
        <ele>389.3</ele>
      </trkpt>
      <trkpt lat="47.63631" lon="8.60994">
        <ele>389.6</ele>
      </trkpt>
      <trkpt lat="47.63628" lon="8.60999">
        <ele>390.1</ele>
      </trkpt>
      <trkpt lat="47.63626" lon="8.61005">
        <ele>390.4</ele>
      </trkpt>
      <trkpt lat="47.63627" lon="8.61017">
        <ele>390.1</ele>
      </trkpt>
      <trkpt lat="47.63631" lon="8.61023">
        <ele>389.5</ele>
      </trkpt>
      <trkpt lat="47.63634" lon="8.6103">
        <ele>389</ele>
      </trkpt>
      <trkpt lat="47.63635" lon="8.6104">
        <ele>388.9</ele>
      </trkpt>
      <trkpt lat="47.63638" lon="8.61058">
        <ele>388.3</ele>
      </trkpt>
      <trkpt lat="47.63638" lon="8.61062">
        <ele>388.3</ele>
      </trkpt>
      <trkpt lat="47.63633" lon="8.61064">
        <ele>389.1</ele>
      </trkpt>
      <trkpt lat="47.63628" lon="8.61068">
        <ele>389.6</ele>
      </trkpt>
      <trkpt lat="47.63627" lon="8.61083">
        <ele>389.8</ele>
      </trkpt>
      <trkpt lat="47.63626" lon="8.61099">
        <ele>390.1</ele>
      </trkpt>
      <trkpt lat="47.63628" lon="8.61105">
        <ele>389.9</ele>
      </trkpt>
      <trkpt lat="47.63629" lon="8.61122">
        <ele>390.1</ele>
      </trkpt>
      <trkpt lat="47.63628" lon="8.61127">
        <ele>390.3</ele>
      </trkpt>
      <trkpt lat="47.63636" lon="8.61137">
        <ele>389.5</ele>
      </trkpt>
      <trkpt lat="47.63639" lon="8.6114">
        <ele>389.1</ele>
      </trkpt>
      <trkpt lat="47.63643" lon="8.61145">
        <ele>388.6</ele>
      </trkpt>
      <trkpt lat="47.63646" lon="8.6115">
        <ele>388.4</ele>
      </trkpt>
      <trkpt lat="47.63649" lon="8.61156">
        <ele>388.1</ele>
      </trkpt>
      <trkpt lat="47.63646" lon="8.61165">
        <ele>388.7</ele>
      </trkpt>
      <trkpt lat="47.63645" lon="8.61177">
        <ele>388.7</ele>
      </trkpt>
      <trkpt lat="47.63652" lon="8.61184">
        <ele>387.6</ele>
      </trkpt>
      <trkpt lat="47.63652" lon="8.61193">
        <ele>387.4</ele>
      </trkpt>
      <trkpt lat="47.63648" lon="8.612">
        <ele>387.7</ele>
      </trkpt>
      <trkpt lat="47.6365" lon="8.61206">
        <ele>387.4</ele>
      </trkpt>
      <trkpt lat="47.63654" lon="8.61213">
        <ele>386.6</ele>
      </trkpt>
      <trkpt lat="47.63655" lon="8.61222">
        <ele>386.3</ele>
      </trkpt>
      <trkpt lat="47.63661" lon="8.61229">
        <ele>385.3</ele>
      </trkpt>
      <trkpt lat="47.63661" lon="8.6124">
        <ele>385.1</ele>
      </trkpt>
      <trkpt lat="47.63663" lon="8.6125">
        <ele>384.5</ele>
      </trkpt>
      <trkpt lat="47.63661" lon="8.61261">
        <ele>384.3</ele>
      </trkpt>
      <trkpt lat="47.63659" lon="8.61272">
        <ele>384.1</ele>
      </trkpt>
      <trkpt lat="47.63662" lon="8.61277">
        <ele>383.4</ele>
      </trkpt>
      <trkpt lat="47.63662" lon="8.61286">
        <ele>383</ele>
      </trkpt>
      <trkpt lat="47.63668" lon="8.61298">
        <ele>381.5</ele>
      </trkpt>
      <trkpt lat="47.63672" lon="8.61312">
        <ele>380.1</ele>
      </trkpt>
      <trkpt lat="47.63669" lon="8.61322">
        <ele>380.1</ele>
      </trkpt>
      <trkpt lat="47.63665" lon="8.61328">
        <ele>380.5</ele>
      </trkpt>
      <trkpt lat="47.63661" lon="8.61334">
        <ele>380.9</ele>
      </trkpt>
      <trkpt lat="47.63658" lon="8.61339">
        <ele>381.5</ele>
      </trkpt>
      <trkpt lat="47.63661" lon="8.61346">
        <ele>381.3</ele>
      </trkpt>
      <trkpt lat="47.63667" lon="8.61348">
        <ele>380.5</ele>
      </trkpt>
      <trkpt lat="47.63667" lon="8.61353">
        <ele>380.6</ele>
      </trkpt>
      <trkpt lat="47.63664" lon="8.6136">
        <ele>381.4</ele>
      </trkpt>
      <trkpt lat="47.6366" lon="8.61368">
        <ele>382.2</ele>
      </trkpt>
      <trkpt lat="47.63659" lon="8.61372">
        <ele>382.5</ele>
      </trkpt>
      <trkpt lat="47.63661" lon="8.61376">
        <ele>382.4</ele>
      </trkpt>
      <trkpt lat="47.63663" lon="8.61381">
        <ele>382.2</ele>
      </trkpt>
      <trkpt lat="47.63667" lon="8.61383">
        <ele>381.7</ele>
      </trkpt>
      <trkpt lat="47.63668" lon="8.61386">
        <ele>381.7</ele>
      </trkpt>
      <trkpt lat="47.63667" lon="8.61389">
        <ele>382</ele>
      </trkpt>
      <trkpt lat="47.63663" lon="8.6139">
        <ele>382.5</ele>
      </trkpt>
      <trkpt lat="47.63657" lon="8.61396">
        <ele>383.5</ele>
      </trkpt>
      <trkpt lat="47.6365" lon="8.61404">
        <ele>384.6</ele>
      </trkpt>
      <trkpt lat="47.63647" lon="8.61408">
        <ele>385.1</ele>
      </trkpt>
      <trkpt lat="47.63646" lon="8.61412">
        <ele>385.3</ele>
      </trkpt>
      <trkpt lat="47.63646" lon="8.61416">
        <ele>385.5</ele>
      </trkpt>
      <trkpt lat="47.63645" lon="8.61422">
        <ele>385.5</ele>
      </trkpt>
      <trkpt lat="47.63645" lon="8.61426">
        <ele>385.6</ele>
      </trkpt>
      <trkpt lat="47.63645" lon="8.61429">
        <ele>385.5</ele>
      </trkpt>
      <trkpt lat="47.63648" lon="8.61432">
        <ele>385.2</ele>
      </trkpt>
      <trkpt lat="47.63649" lon="8.61435">
        <ele>385</ele>
      </trkpt>
      <trkpt lat="47.63651" lon="8.61443">
        <ele>384.8</ele>
      </trkpt>
      <trkpt lat="47.63654" lon="8.61446">
        <ele>384.5</ele>
      </trkpt>
      <trkpt lat="47.63656" lon="8.61449">
        <ele>384.1</ele>
      </trkpt>
      <trkpt lat="47.63658" lon="8.61451">
        <ele>383.9</ele>
      </trkpt>
      <trkpt lat="47.63662" lon="8.61459">
        <ele>383.5</ele>
      </trkpt>
      <trkpt lat="47.63662" lon="8.61461">
        <ele>383.5</ele>
      </trkpt>
      <trkpt lat="47.63661" lon="8.61464">
        <ele>383.6</ele>
      </trkpt>
      <trkpt lat="47.63657" lon="8.61471">
        <ele>384</ele>
      </trkpt>
      <trkpt lat="47.63655" lon="8.61486">
        <ele>384.1</ele>
      </trkpt>
      <trkpt lat="47.63656" lon="8.61494">
        <ele>384.1</ele>
      </trkpt>
      <trkpt lat="47.63654" lon="8.61505">
        <ele>384.4</ele>
      </trkpt>
      <trkpt lat="47.63654" lon="8.61512">
        <ele>384.7</ele>
      </trkpt>
      <trkpt lat="47.63657" lon="8.6152">
        <ele>384.7</ele>
      </trkpt>
      <trkpt lat="47.63664" lon="8.61531">
        <ele>384.7</ele>
      </trkpt>
      <trkpt lat="47.63667" lon="8.61539">
        <ele>384.9</ele>
      </trkpt>
      <trkpt lat="47.63669" lon="8.61548">
        <ele>384.9</ele>
      </trkpt>
      <trkpt lat="47.63673" lon="8.61554">
        <ele>384.2</ele>
      </trkpt>
      <trkpt lat="47.63676" lon="8.6156">
        <ele>383.9</ele>
      </trkpt>
      <trkpt lat="47.63681" lon="8.61569">
        <ele>383.4</ele>
      </trkpt>
      <trkpt lat="47.63685" lon="8.61575">
        <ele>383</ele>
      </trkpt>
      <trkpt lat="47.63686" lon="8.61582">
        <ele>383.2</ele>
      </trkpt>
      <trkpt lat="47.63684" lon="8.6159">
        <ele>384</ele>
      </trkpt>
      <trkpt lat="47.63681" lon="8.61596">
        <ele>384.6</ele>
      </trkpt>
      <trkpt lat="47.63681" lon="8.61606">
        <ele>384.9</ele>
      </trkpt>
      <trkpt lat="47.63679" lon="8.61614">
        <ele>385.6</ele>
      </trkpt>
      <trkpt lat="47.63678" lon="8.6162">
        <ele>386</ele>
      </trkpt>
      <trkpt lat="47.63681" lon="8.61627">
        <ele>385.6</ele>
      </trkpt>
      <trkpt lat="47.63683" lon="8.61633">
        <ele>385.4</ele>
      </trkpt>
      <trkpt lat="47.63687" lon="8.61634">
        <ele>384.7</ele>
      </trkpt>
      <trkpt lat="47.63693" lon="8.61632">
        <ele>383.3</ele>
      </trkpt>
      <trkpt lat="47.63697" lon="8.61632">
        <ele>382.4</ele>
      </trkpt>
      <trkpt lat="47.63699" lon="8.61634">
        <ele>382.2</ele>
      </trkpt>
      <trkpt lat="47.63698" lon="8.61641">
        <ele>382.7</ele>
      </trkpt>
      <trkpt lat="47.63695" lon="8.61651">
        <ele>383.5</ele>
      </trkpt>
      <trkpt lat="47.63693" lon="8.61658">
        <ele>384</ele>
      </trkpt>
      <trkpt lat="47.63693" lon="8.61661">
        <ele>384.1</ele>
      </trkpt>
      <trkpt lat="47.63696" lon="8.61664">
        <ele>383.6</ele>
      </trkpt>
      <trkpt lat="47.63699" lon="8.61668">
        <ele>383.2</ele>
      </trkpt>
      <trkpt lat="47.63698" lon="8.61672">
        <ele>383.3</ele>
      </trkpt>
      <trkpt lat="47.63698" lon="8.61677">
        <ele>383.6</ele>
      </trkpt>
      <trkpt lat="47.63698" lon="8.61682">
        <ele>383.7</ele>
      </trkpt>
      <trkpt lat="47.637" lon="8.61685">
        <ele>383.3</ele>
      </trkpt>
      <trkpt lat="47.63703" lon="8.61686">
        <ele>382.7</ele>
      </trkpt>
      <trkpt lat="47.63707" lon="8.61688">
        <ele>381.9</ele>
      </trkpt>
      <trkpt lat="47.6371" lon="8.61689">
        <ele>381.3</ele>
      </trkpt>
      <trkpt lat="47.63711" lon="8.61693">
        <ele>381.2</ele>
      </trkpt>
      <trkpt lat="47.6371" lon="8.61699">
        <ele>381.7</ele>
      </trkpt>
      <trkpt lat="47.63707" lon="8.61705">
        <ele>382.4</ele>
      </trkpt>
      <trkpt lat="47.63708" lon="8.61709">
        <ele>382.3</ele>
      </trkpt>
      <trkpt lat="47.63712" lon="8.61712">
        <ele>381.6</ele>
      </trkpt>
      <trkpt lat="47.63714" lon="8.61715">
        <ele>381.4</ele>
      </trkpt>
      <trkpt lat="47.63717" lon="8.61716">
        <ele>380.8</ele>
      </trkpt>
      <trkpt lat="47.63721" lon="8.61718">
        <ele>380.2</ele>
      </trkpt>
      <trkpt lat="47.63724" lon="8.61723">
        <ele>379.7</ele>
      </trkpt>
      <trkpt lat="47.63726" lon="8.61729">
        <ele>379.6</ele>
      </trkpt>
      <trkpt lat="47.63726" lon="8.61737">
        <ele>379.8</ele>
      </trkpt>
      <trkpt lat="47.63728" lon="8.61747">
        <ele>379.8</ele>
      </trkpt>
      <trkpt lat="47.6373" lon="8.61752">
        <ele>379.7</ele>
      </trkpt>
      <trkpt lat="47.63734" lon="8.61756">
        <ele>379.3</ele>
      </trkpt>
      <trkpt lat="47.63737" lon="8.61762">
        <ele>379.3</ele>
      </trkpt>
      <trkpt lat="47.63739" lon="8.61766">
        <ele>379.4</ele>
      </trkpt>
      <trkpt lat="47.63739" lon="8.61774">
        <ele>380</ele>
      </trkpt>
      <trkpt lat="47.63742" lon="8.61784">
        <ele>380.3</ele>
      </trkpt>
      <trkpt lat="47.63742" lon="8.61788">
        <ele>380.7</ele>
      </trkpt>
      <trkpt lat="47.6374" lon="8.618">
        <ele>382</ele>
      </trkpt>
      <trkpt lat="47.63742" lon="8.61814">
        <ele>382.9</ele>
      </trkpt>
      <trkpt lat="47.63744" lon="8.61817">
        <ele>383</ele>
      </trkpt>
      <trkpt lat="47.63751" lon="8.61822">
        <ele>382.8</ele>
      </trkpt>
      <trkpt lat="47.63751" lon="8.61827">
        <ele>383.2</ele>
      </trkpt>
      <trkpt lat="47.6375" lon="8.61832">
        <ele>383.9</ele>
      </trkpt>
      <trkpt lat="47.63755" lon="8.61847">
        <ele>383.6</ele>
      </trkpt>
      <trkpt lat="47.63756" lon="8.61855">
        <ele>383.8</ele>
      </trkpt>
      <trkpt lat="47.63759" lon="8.61859">
        <ele>383.4</ele>
      </trkpt>
      <trkpt lat="47.63761" lon="8.61861">
        <ele>383.1</ele>
      </trkpt>
      <trkpt lat="47.63762" lon="8.61863">
        <ele>383</ele>
      </trkpt>
      <trkpt lat="47.63762" lon="8.61869">
        <ele>383.2</ele>
      </trkpt>
      <trkpt lat="47.63764" lon="8.61878">
        <ele>383.3</ele>
      </trkpt>
      <trkpt lat="47.63764" lon="8.61892">
        <ele>383.8</ele>
      </trkpt>
      <trkpt lat="47.63764" lon="8.61904">
        <ele>384.3</ele>
      </trkpt>
      <trkpt lat="47.63762" lon="8.61914">
        <ele>385</ele>
      </trkpt>
      <trkpt lat="47.6376" lon="8.6192">
        <ele>385.5</ele>
      </trkpt>
      <trkpt lat="47.63761" lon="8.61926">
        <ele>385.6</ele>
      </trkpt>
      <trkpt lat="47.63764" lon="8.61929">
        <ele>385.3</ele>
      </trkpt>
      <trkpt lat="47.63767" lon="8.61931">
        <ele>384.9</ele>
      </trkpt>
      <trkpt lat="47.63771" lon="8.61932">
        <ele>384.4</ele>
      </trkpt>
      <trkpt lat="47.63775" lon="8.61936">
        <ele>384.1</ele>
      </trkpt>
      <trkpt lat="47.63775" lon="8.61941">
        <ele>384.3</ele>
      </trkpt>
      <trkpt lat="47.63774" lon="8.6195">
        <ele>384.9</ele>
      </trkpt>
      <trkpt lat="47.63775" lon="8.61957">
        <ele>385.1</ele>
      </trkpt>
      <trkpt lat="47.63778" lon="8.61964">
        <ele>385</ele>
      </trkpt>
      <trkpt lat="47.6378" lon="8.61966">
        <ele>385</ele>
      </trkpt>
      <trkpt lat="47.63786" lon="8.61969">
        <ele>384.5</ele>
      </trkpt>
      <trkpt lat="47.63791" lon="8.61973">
        <ele>384.3</ele>
      </trkpt>
      <trkpt lat="47.63794" lon="8.6198">
        <ele>384.5</ele>
      </trkpt>
      <trkpt lat="47.6396" lon="8.62301">
        <ele>380.9</ele>
      </trkpt>
      <trkpt lat="47.64211" lon="8.62596">
        <ele>381.5</ele>
      </trkpt>
      <trkpt lat="47.6445" lon="8.62803">
        <ele>394.8</ele>
      </trkpt>
      <trkpt lat="47.6445" lon="8.62803">
        <ele>394.8</ele>
      </trkpt>
      <trkpt lat="47.64749" lon="8.63028">
        <ele>397.4</ele>
      </trkpt>
      <trkpt lat="47.64749" lon="8.63028">
        <ele>397.4</ele>
      </trkpt>
      <trkpt lat="47.65129" lon="8.63137">
        <ele>387.3</ele>
      </trkpt>
      <trkpt lat="47.65129" lon="8.63137">
        <ele>387.3</ele>
      </trkpt>
      <trkpt lat="47.65243" lon="8.63107">
        <ele>392.8</ele>
      </trkpt>
      <trkpt lat="47.65243" lon="8.63107">
        <ele>392.8</ele>
      </trkpt>
      <trkpt lat="47.65301" lon="8.62906">
        <ele>366.6</ele>
      </trkpt>
      <trkpt lat="47.65301" lon="8.62906">
        <ele>366.6</ele>
      </trkpt>
      <trkpt lat="47.65571" lon="8.62736">
        <ele>373.7</ele>
      </trkpt>
      <trkpt lat="47.65571" lon="8.62736">
        <ele>373.7</ele>
      </trkpt>
      <trkpt lat="47.6575" lon="8.62439">
        <ele>376.1</ele>
      </trkpt>
      <trkpt lat="47.6575" lon="8.62439">
        <ele>376.1</ele>
      </trkpt>
      <trkpt lat="47.65914" lon="8.62178">
        <ele>379.2</ele>
      </trkpt>
      <trkpt lat="47.65914" lon="8.62178">
        <ele>379.2</ele>
      </trkpt>
      <trkpt lat="47.66151" lon="8.61686">
        <ele>371.8</ele>
      </trkpt>
      <trkpt lat="47.66151" lon="8.61686">
        <ele>371.8</ele>
      </trkpt>
      <trkpt lat="47.66437" lon="8.61128">
        <ele>376.3</ele>
      </trkpt>
      <trkpt lat="47.66437" lon="8.61128">
        <ele>376.3</ele>
      </trkpt>
      <trkpt lat="47.66646" lon="8.60946">
        <ele>374.1</ele>
      </trkpt>
      <trkpt lat="47.66646" lon="8.60946">
        <ele>374.1</ele>
      </trkpt>
      <trkpt lat="47.67019" lon="8.60984">
        <ele>373.5</ele>
      </trkpt>
      <trkpt lat="47.67042" lon="8.60831">
        <ele>370.8</ele>
      </trkpt>
      <trkpt lat="47.67347" lon="8.60888">
        <ele>379.8</ele>
      </trkpt>
      <trkpt lat="47.6751" lon="8.60959">
        <ele>375.8</ele>
      </trkpt>
      <trkpt lat="47.67566" lon="8.6097">
        <ele>374.8</ele>
      </trkpt>
      <trkpt lat="47.67597" lon="8.60985">
        <ele>372.1</ele>
      </trkpt>
      <trkpt lat="47.67633" lon="8.61015">
        <ele>368.8</ele>
      </trkpt>
      <trkpt lat="47.67771" lon="8.61078">
        <ele>366.2</ele>
      </trkpt>
      <trkpt lat="47.67927" lon="8.6118">
        <ele>371.9</ele>
      </trkpt>
      <trkpt lat="47.67988" lon="8.61403">
        <ele>374.4</ele>
      </trkpt>
      <trkpt lat="47.67864" lon="8.61573">
        <ele>377.9</ele>
      </trkpt>
      <trkpt lat="47.6787" lon="8.6161">
        <ele>384.1</ele>
      </trkpt>
      <trkpt lat="47.67876" lon="8.61612">
        <ele>384.9</ele>
      </trkpt>
      <trkpt lat="47.67884" lon="8.61634">
        <ele>389.1</ele>
      </trkpt>
      <trkpt lat="47.67883" lon="8.61643">
        <ele>390.6</ele>
      </trkpt>
      <trkpt lat="47.67876" lon="8.61651">
        <ele>391.4</ele>
      </trkpt>
      <trkpt lat="47.67872" lon="8.61669">
        <ele>394.1</ele>
      </trkpt>
      <trkpt lat="47.67861" lon="8.61679">
        <ele>394.9</ele>
      </trkpt>
      <trkpt lat="47.67858" lon="8.61693">
        <ele>396.7</ele>
      </trkpt>
      <trkpt lat="47.67851" lon="8.61702">
        <ele>397.8</ele>
      </trkpt>
      <trkpt lat="47.67837" lon="8.61706">
        <ele>398.2</ele>
      </trkpt>
      <trkpt lat="47.67823" lon="8.61708">
        <ele>396.8</ele>
      </trkpt>
      <trkpt lat="47.67792" lon="8.61729">
        <ele>395.6</ele>
      </trkpt>
      <trkpt lat="47.67741" lon="8.6177">
        <ele>394.4</ele>
      </trkpt>
      <trkpt lat="47.67695" lon="8.61815">
        <ele>392.8</ele>
      </trkpt>
      <trkpt lat="47.67685" lon="8.61817">
        <ele>391.3</ele>
      </trkpt>
      <trkpt lat="47.67675" lon="8.61817">
        <ele>389.8</ele>
      </trkpt>
      <trkpt lat="47.67665" lon="8.61818">
        <ele>388.3</ele>
      </trkpt>
      <trkpt lat="47.67653" lon="8.61821">
        <ele>387.2</ele>
      </trkpt>
      <trkpt lat="47.67591" lon="8.61873">
        <ele>381.5</ele>
      </trkpt>
      <trkpt lat="47.67583" lon="8.61896">
        <ele>380.8</ele>
      </trkpt>
      <trkpt lat="47.67578" lon="8.62011">
        <ele>384.3</ele>
      </trkpt>
      <trkpt lat="47.67579" lon="8.62023">
        <ele>384.4</ele>
      </trkpt>
      <trkpt lat="47.67591" lon="8.6208">
        <ele>386.2</ele>
      </trkpt>
      <trkpt lat="47.6761" lon="8.62106">
        <ele>388.7</ele>
      </trkpt>
      <trkpt lat="47.67644" lon="8.62202">
        <ele>390</ele>
      </trkpt>
      <trkpt lat="47.67654" lon="8.62278">
        <ele>389.2</ele>
      </trkpt>
      <trkpt lat="47.67671" lon="8.62349">
        <ele>388</ele>
      </trkpt>
      <trkpt lat="47.67703" lon="8.62432">
        <ele>387.9</ele>
      </trkpt>
      <trkpt lat="47.67754" lon="8.62516">
        <ele>387.6</ele>
      </trkpt>
      <trkpt lat="47.67784" lon="8.6255">
        <ele>388.2</ele>
      </trkpt>
      <trkpt lat="47.67803" lon="8.62566">
        <ele>388</ele>
      </trkpt>
      <trkpt lat="47.67856" lon="8.62593">
        <ele>386.5</ele>
      </trkpt>
      <trkpt lat="47.67913" lon="8.6262">
        <ele>385.6</ele>
      </trkpt>
      <trkpt lat="47.67925" lon="8.62624">
        <ele>385.8</ele>
      </trkpt>
      <trkpt lat="47.67974" lon="8.62644">
        <ele>386.5</ele>
      </trkpt>
      <trkpt lat="47.67983" lon="8.62645">
        <ele>386.7</ele>
      </trkpt>
      <trkpt lat="47.68003" lon="8.62644">
        <ele>387.2</ele>
      </trkpt>
      <trkpt lat="47.68144" lon="8.6264">
        <ele>389</ele>
      </trkpt>
      <trkpt lat="47.68149" lon="8.62638">
        <ele>388.9</ele>
      </trkpt>
      <trkpt lat="47.68181" lon="8.62624">
        <ele>388</ele>
      </trkpt>
      <trkpt lat="47.68203" lon="8.62612">
        <ele>387.4</ele>
      </trkpt>
      <trkpt lat="47.68214" lon="8.62597">
        <ele>387.6</ele>
      </trkpt>
      <trkpt lat="47.68217" lon="8.62588">
        <ele>387.9</ele>
      </trkpt>
      <trkpt lat="47.6822" lon="8.62585">
        <ele>387.9</ele>
      </trkpt>
      <trkpt lat="47.68223" lon="8.62597">
        <ele>387.5</ele>
      </trkpt>
      <trkpt lat="47.68259" lon="8.62729">
        <ele>384.1</ele>
      </trkpt>
      <trkpt lat="47.68269" lon="8.62768">
        <ele>386</ele>
      </trkpt>
      <trkpt lat="47.68274" lon="8.62789">
        <ele>387.5</ele>
      </trkpt>
      <trkpt lat="47.68297" lon="8.62782">
        <ele>388.2</ele>
      </trkpt>
      <trkpt lat="47.683" lon="8.62781">
        <ele>388.2</ele>
      </trkpt>
      <trkpt lat="47.6831" lon="8.62777">
        <ele>388.5</ele>
      </trkpt>
      <trkpt lat="47.68315" lon="8.62774">
        <ele>388.5</ele>
      </trkpt>
      <trkpt lat="47.68336" lon="8.62755">
        <ele>388.3</ele>
      </trkpt>
      <trkpt lat="47.68343" lon="8.62749">
        <ele>388.1</ele>
      </trkpt>
      <trkpt lat="47.6835" lon="8.62744">
        <ele>388</ele>
      </trkpt>
      <trkpt lat="47.68356" lon="8.62743">
        <ele>388</ele>
      </trkpt>
      <trkpt lat="47.68378" lon="8.62741">
        <ele>388.1</ele>
      </trkpt>
      <trkpt lat="47.6839" lon="8.6274">
        <ele>388.2</ele>
      </trkpt>
      <trkpt lat="47.68392" lon="8.62741">
        <ele>388.3</ele>
      </trkpt>
      <trkpt lat="47.68393" lon="8.62735">
        <ele>388.1</ele>
      </trkpt>
      <trkpt lat="47.68394" lon="8.62724">
        <ele>387.6</ele>
      </trkpt>
      <trkpt lat="47.68443" lon="8.62716">
        <ele>387.2</ele>
      </trkpt>
      <trkpt lat="47.68451" lon="8.62715">
        <ele>387.1</ele>
      </trkpt>
      <trkpt lat="47.68496" lon="8.62711">
        <ele>386.6</ele>
      </trkpt>
      <trkpt lat="47.68499" lon="8.62708">
        <ele>386.5</ele>
      </trkpt>
      <trkpt lat="47.68519" lon="8.62704">
        <ele>387.1</ele>
      </trkpt>
      <trkpt lat="47.68524" lon="8.62705">
        <ele>387.3</ele>
      </trkpt>
      <trkpt lat="47.68529" lon="8.62709">
        <ele>387.5</ele>
      </trkpt>
      <trkpt lat="47.68535" lon="8.62704">
        <ele>387.7</ele>
      </trkpt>
      <trkpt lat="47.68554" lon="8.627">
        <ele>388.4</ele>
      </trkpt>
      <trkpt lat="47.68557" lon="8.62699">
        <ele>388.5</ele>
      </trkpt>
      <trkpt lat="47.68559" lon="8.62694">
        <ele>388.6</ele>
      </trkpt>
      <trkpt lat="47.68558" lon="8.62684">
        <ele>388.5</ele>
      </trkpt>
      <trkpt lat="47.68559" lon="8.62679">
        <ele>388.6</ele>
      </trkpt>
      <trkpt lat="47.6857" lon="8.62673">
        <ele>389.2</ele>
      </trkpt>
      <trkpt lat="47.6858" lon="8.62671">
        <ele>389.7</ele>
      </trkpt>
      <trkpt lat="47.68591" lon="8.6267">
        <ele>389.9</ele>
      </trkpt>
      <trkpt lat="47.68596" lon="8.62663">
        <ele>389.8</ele>
      </trkpt>
      <trkpt lat="47.68616" lon="8.6266">
        <ele>389.4</ele>
      </trkpt>
      <trkpt lat="47.6862" lon="8.62666">
        <ele>389.5</ele>
      </trkpt>
      <trkpt lat="47.68622" lon="8.62686">
        <ele>389.7</ele>
      </trkpt>
      <trkpt lat="47.68622" lon="8.62689">
        <ele>389.8</ele>
      </trkpt>
      <trkpt lat="47.68624" lon="8.62729">
        <ele>390.2</ele>
      </trkpt>
      <trkpt lat="47.68624" lon="8.62734">
        <ele>390.3</ele>
      </trkpt>
      <trkpt lat="47.68622" lon="8.62738">
        <ele>390.3</ele>
      </trkpt>
      <trkpt lat="47.68621" lon="8.62741">
        <ele>390.3</ele>
      </trkpt>
      <trkpt lat="47.68619" lon="8.62742">
        <ele>390.2</ele>
      </trkpt>
      <trkpt lat="47.68622" lon="8.62756">
        <ele>390.8</ele>
      </trkpt>
      <trkpt lat="47.68669" lon="8.62739">
        <ele>391.7</ele>
      </trkpt>
      <trkpt lat="47.68718" lon="8.62724">
        <ele>392.5</ele>
      </trkpt>
      <trkpt lat="47.68721" lon="8.62723">
        <ele>392.5</ele>
      </trkpt>
      <trkpt lat="47.68723" lon="8.62725">
        <ele>392.6</ele>
      </trkpt>
      <trkpt lat="47.68724" lon="8.62727">
        <ele>392.8</ele>
      </trkpt>
      <trkpt lat="47.68725" lon="8.6273">
        <ele>392.9</ele>
      </trkpt>
      <trkpt lat="47.68742" lon="8.62725">
        <ele>393.2</ele>
      </trkpt>
      <trkpt lat="47.6877" lon="8.62703">
        <ele>393.8</ele>
      </trkpt>
      <trkpt lat="47.68774" lon="8.62701">
        <ele>393.9</ele>
      </trkpt>
      <trkpt lat="47.68797" lon="8.62692">
        <ele>394.6</ele>
      </trkpt>
      <trkpt lat="47.68822" lon="8.62682">
        <ele>395.3</ele>
      </trkpt>
      <trkpt lat="47.68847" lon="8.62676">
        <ele>395.6</ele>
      </trkpt>
      <trkpt lat="47.68875" lon="8.62669">
        <ele>395.2</ele>
      </trkpt>
      <trkpt lat="47.68906" lon="8.62661">
        <ele>394.7</ele>
      </trkpt>
      <trkpt lat="47.68916" lon="8.62658">
        <ele>394.5</ele>
      </trkpt>
      <trkpt lat="47.68923" lon="8.62655">
        <ele>394.6</ele>
      </trkpt>
      <trkpt lat="47.68955" lon="8.62635">
        <ele>394.2</ele>
      </trkpt>
      <trkpt lat="47.68966" lon="8.6263">
        <ele>393.9</ele>
      </trkpt>
      <trkpt lat="47.68972" lon="8.62628">
        <ele>393.8</ele>
      </trkpt>
      <trkpt lat="47.69008" lon="8.62622">
        <ele>393.6</ele>
      </trkpt>
      <trkpt lat="47.69035" lon="8.62619">
        <ele>393</ele>
      </trkpt>
      <trkpt lat="47.69067" lon="8.62592">
        <ele>388.6</ele>
      </trkpt>
      <trkpt lat="47.69069" lon="8.62588">
        <ele>387.9</ele>
      </trkpt>
      <trkpt lat="47.69071" lon="8.6258">
        <ele>387</ele>
      </trkpt>
      <trkpt lat="47.6907" lon="8.62564">
        <ele>386.3</ele>
      </trkpt>
      <trkpt lat="47.69084" lon="8.62561">
        <ele>385.8</ele>
      </trkpt>
      <trkpt lat="47.69094" lon="8.6256">
        <ele>385.2</ele>
      </trkpt>
      <trkpt lat="47.69103" lon="8.62563">
        <ele>384.6</ele>
      </trkpt>
      <trkpt lat="47.69111" lon="8.62567">
        <ele>384.1</ele>
      </trkpt>
      <trkpt lat="47.69118" lon="8.62572">
        <ele>383.5</ele>
      </trkpt>
      <trkpt lat="47.69122" lon="8.62578">
        <ele>382.9</ele>
      </trkpt>
      <trkpt lat="47.69124" lon="8.62579">
        <ele>382.7</ele>
      </trkpt>
      <trkpt lat="47.69137" lon="8.626">
        <ele>383.6</ele>
      </trkpt>
      <trkpt lat="47.69154" lon="8.62629">
        <ele>385.7</ele>
      </trkpt>
      <trkpt lat="47.69166" lon="8.6265">
        <ele>386.9</ele>
      </trkpt>
      <trkpt lat="47.69164" lon="8.6266">
        <ele>388.6</ele>
      </trkpt>
      <trkpt lat="47.69174" lon="8.62679">
        <ele>391.9</ele>
      </trkpt>
      <trkpt lat="47.69185" lon="8.62698">
        <ele>394.8</ele>
      </trkpt>
      <trkpt lat="47.69192" lon="8.62714">
        <ele>397</ele>
      </trkpt>
      <trkpt lat="47.69193" lon="8.62728">
        <ele>399.4</ele>
      </trkpt>
      <trkpt lat="47.69192" lon="8.62742">
        <ele>402.6</ele>
      </trkpt>
      <trkpt lat="47.6919" lon="8.62754">
        <ele>405.5</ele>
      </trkpt>
      <trkpt lat="47.69194" lon="8.62766">
        <ele>406</ele>
      </trkpt>
      <trkpt lat="47.692" lon="8.62777">
        <ele>405.1</ele>
      </trkpt>
      <trkpt lat="47.69212" lon="8.62819">
        <ele>405</ele>
      </trkpt>
      <trkpt lat="47.69213" lon="8.6282">
        <ele>404.9</ele>
      </trkpt>
      <trkpt lat="47.69207" lon="8.62835">
        <ele>409.3</ele>
      </trkpt>
      <trkpt lat="47.69205" lon="8.62849">
        <ele>411.5</ele>
      </trkpt>
      <trkpt lat="47.69205" lon="8.62864">
        <ele>412.5</ele>
      </trkpt>
      <trkpt lat="47.69213" lon="8.62907">
        <ele>411.4</ele>
      </trkpt>
      <trkpt lat="47.69217" lon="8.62946">
        <ele>408.5</ele>
      </trkpt>
      <trkpt lat="47.69217" lon="8.62975">
        <ele>407.9</ele>
      </trkpt>
      <trkpt lat="47.69214" lon="8.63024">
        <ele>408.6</ele>
      </trkpt>
      <trkpt lat="47.69215" lon="8.63039">
        <ele>407.7</ele>
      </trkpt>
      <trkpt lat="47.69207" lon="8.6305">
        <ele>410.9</ele>
      </trkpt>
      <trkpt lat="47.69207" lon="8.63065">
        <ele>410.5</ele>
      </trkpt>
      <trkpt lat="47.69213" lon="8.63104">
        <ele>408.4</ele>
      </trkpt>
      <trkpt lat="47.69221" lon="8.63138">
        <ele>406.4</ele>
      </trkpt>
      <trkpt lat="47.69229" lon="8.63183">
        <ele>404.7</ele>
      </trkpt>
      <trkpt lat="47.69231" lon="8.63218">
        <ele>404.6</ele>
      </trkpt>
      <trkpt lat="47.69234" lon="8.63273">
        <ele>406.5</ele>
      </trkpt>
      <trkpt lat="47.69237" lon="8.63294">
        <ele>407.3</ele>
      </trkpt>
      <trkpt lat="47.69242" lon="8.63344">
        <ele>410.2</ele>
      </trkpt>
      <trkpt lat="47.69243" lon="8.63423">
        <ele>410.7</ele>
      </trkpt>
      <trkpt lat="47.69246" lon="8.63452">
        <ele>410.6</ele>
      </trkpt>
      <trkpt lat="47.69274" lon="8.63583">
        <ele>401.5</ele>
      </trkpt>
      <trkpt lat="47.69294" lon="8.63662">
        <ele>400</ele>
      </trkpt>
      <trkpt lat="47.69314" lon="8.63779">
        <ele>404.3</ele>
      </trkpt>
      <trkpt lat="47.69355" lon="8.63899">
        <ele>402.9</ele>
      </trkpt>
      <trkpt lat="47.69505" lon="8.6441">
        <ele>392.4</ele>
      </trkpt>
      <trkpt lat="47.6948" lon="8.64501">
        <ele>395</ele>
      </trkpt>
      <trkpt lat="47.69455" lon="8.64586">
        <ele>394.7</ele>
      </trkpt>
      <trkpt lat="47.69457" lon="8.64593">
        <ele>394.7</ele>
      </trkpt>
      <trkpt lat="47.69432" lon="8.6466">
        <ele>394.1</ele>
      </trkpt>
      <trkpt lat="47.69405" lon="8.64736">
        <ele>392.9</ele>
      </trkpt>
      <trkpt lat="47.6938" lon="8.64807">
        <ele>395.6</ele>
      </trkpt>
      <trkpt lat="47.69367" lon="8.64843">
        <ele>396.8</ele>
      </trkpt>
      <trkpt lat="47.6932" lon="8.6497">
        <ele>395.9</ele>
      </trkpt>
      <trkpt lat="47.69282" lon="8.65058">
        <ele>400.3</ele>
      </trkpt>
      <trkpt lat="47.69264" lon="8.65094">
        <ele>402.8</ele>
      </trkpt>
      <trkpt lat="47.69233" lon="8.65157">
        <ele>403.1</ele>
      </trkpt>
      <trkpt lat="47.6921" lon="8.65194">
        <ele>401.9</ele>
      </trkpt>
      <trkpt lat="47.69197" lon="8.65202">
        <ele>400.3</ele>
      </trkpt>
      <trkpt lat="47.69104" lon="8.65316">
        <ele>395.4</ele>
      </trkpt>
      <trkpt lat="47.6898" lon="8.65476">
        <ele>394.8</ele>
      </trkpt>
      <trkpt lat="47.68927" lon="8.65563">
        <ele>394.7</ele>
      </trkpt>
      <trkpt lat="47.68898" lon="8.65618">
        <ele>396.7</ele>
      </trkpt>
      <trkpt lat="47.6887" lon="8.65683">
        <ele>398.4</ele>
      </trkpt>
      <trkpt lat="47.68811" lon="8.6584">
        <ele>397.3</ele>
      </trkpt>
      <trkpt lat="47.688" lon="8.65884">
        <ele>397.9</ele>
      </trkpt>
      <trkpt lat="47.6879" lon="8.65919">
        <ele>398.5</ele>
      </trkpt>
      <trkpt lat="47.68776" lon="8.65956">
        <ele>399.3</ele>
      </trkpt>
      <trkpt lat="47.68736" lon="8.66035">
        <ele>397.6</ele>
      </trkpt>
      <trkpt lat="47.68718" lon="8.66081">
        <ele>396.3</ele>
      </trkpt>
      <trkpt lat="47.68707" lon="8.66113">
        <ele>396.6</ele>
      </trkpt>
      <trkpt lat="47.68674" lon="8.66177">
        <ele>395.6</ele>
      </trkpt>
      <trkpt lat="47.68655" lon="8.66244">
        <ele>394.6</ele>
      </trkpt>
      <trkpt lat="47.68638" lon="8.66309">
        <ele>395.1</ele>
      </trkpt>
      <trkpt lat="47.68631" lon="8.6638">
        <ele>394.5</ele>
      </trkpt>
      <trkpt lat="47.68629" lon="8.66435">
        <ele>394</ele>
      </trkpt>
      <trkpt lat="47.68635" lon="8.66447">
        <ele>394</ele>
      </trkpt>
      <trkpt lat="47.68631" lon="8.66518">
        <ele>393.7</ele>
      </trkpt>
      <trkpt lat="47.68628" lon="8.66605">
        <ele>393.4</ele>
      </trkpt>
      <trkpt lat="47.68629" lon="8.66669">
        <ele>391.6</ele>
      </trkpt>
      <trkpt lat="47.6863" lon="8.66722">
        <ele>392.1</ele>
      </trkpt>
      <trkpt lat="47.68631" lon="8.66747">
        <ele>392.4</ele>
      </trkpt>
      <trkpt lat="47.68634" lon="8.66812">
        <ele>393</ele>
      </trkpt>
      <trkpt lat="47.68639" lon="8.66878">
        <ele>393.5</ele>
      </trkpt>
      <trkpt lat="47.6864" lon="8.66889">
        <ele>393.6</ele>
      </trkpt>
      <trkpt lat="47.6864" lon="8.66893">
        <ele>393.6</ele>
      </trkpt>
      <trkpt lat="47.68628" lon="8.66898">
        <ele>393.1</ele>
      </trkpt>
      <trkpt lat="47.68626" lon="8.66911">
        <ele>393</ele>
      </trkpt>
      <trkpt lat="47.68633" lon="8.66931">
        <ele>393.2</ele>
      </trkpt>
      <trkpt lat="47.68653" lon="8.6706">
        <ele>394.1</ele>
      </trkpt>
      <trkpt lat="47.68672" lon="8.67172">
        <ele>393.3</ele>
      </trkpt>
      <trkpt lat="47.68691" lon="8.67288">
        <ele>392.8</ele>
      </trkpt>
      <trkpt lat="47.68653" lon="8.67343">
        <ele>390.2</ele>
      </trkpt>
      <trkpt lat="47.68531" lon="8.67431">
        <ele>393.7</ele>
      </trkpt>
      <trkpt lat="47.6851" lon="8.67444">
        <ele>394</ele>
      </trkpt>
      <trkpt lat="47.68517" lon="8.67483">
        <ele>396.2</ele>
      </trkpt>
      <trkpt lat="47.68518" lon="8.67495">
        <ele>396.9</ele>
      </trkpt>
      <trkpt lat="47.68516" lon="8.67508">
        <ele>397.6</ele>
      </trkpt>
      <trkpt lat="47.68511" lon="8.67521">
        <ele>398.4</ele>
      </trkpt>
      <trkpt lat="47.68481" lon="8.67568">
        <ele>401.1</ele>
      </trkpt>
      <trkpt lat="47.68476" lon="8.6757">
        <ele>401.2</ele>
      </trkpt>
      <trkpt lat="47.68482" lon="8.67583">
        <ele>401.7</ele>
      </trkpt>
      <trkpt lat="47.68491" lon="8.67587">
        <ele>402</ele>
      </trkpt>
      <trkpt lat="47.68498" lon="8.67597">
        <ele>402.3</ele>
      </trkpt>
      <trkpt lat="47.6851" lon="8.67601">
        <ele>401.7</ele>
      </trkpt>
      <trkpt lat="47.68529" lon="8.67613">
        <ele>401.2</ele>
      </trkpt>
      <trkpt lat="47.68531" lon="8.67617">
        <ele>401.3</ele>
      </trkpt>
      <trkpt lat="47.68533" lon="8.67642">
        <ele>402.6</ele>
      </trkpt>
      <trkpt lat="47.68539" lon="8.67649">
        <ele>402.9</ele>
      </trkpt>
      <trkpt lat="47.6856" lon="8.67663">
        <ele>403.7</ele>
      </trkpt>
      <trkpt lat="47.68571" lon="8.67679">
        <ele>403.5</ele>
      </trkpt>
      <trkpt lat="47.68586" lon="8.67706">
        <ele>402.3</ele>
      </trkpt>
      <trkpt lat="47.68595" lon="8.67714">
        <ele>401.4</ele>
      </trkpt>
      <trkpt lat="47.68606" lon="8.6772">
        <ele>400.3</ele>
      </trkpt>
      <trkpt lat="47.6861" lon="8.67726">
        <ele>399.9</ele>
      </trkpt>
      <trkpt lat="47.68611" lon="8.67737">
        <ele>399.6</ele>
      </trkpt>
      <trkpt lat="47.68605" lon="8.67758">
        <ele>399.3</ele>
      </trkpt>
      <trkpt lat="47.68605" lon="8.67767">
        <ele>398.8</ele>
      </trkpt>
      <trkpt lat="47.68614" lon="8.67781">
        <ele>397.5</ele>
      </trkpt>
      <trkpt lat="47.68625" lon="8.67785">
        <ele>396.6</ele>
      </trkpt>
      <trkpt lat="47.68631" lon="8.6779">
        <ele>396.1</ele>
      </trkpt>
      <trkpt lat="47.6863" lon="8.678">
        <ele>395.6</ele>
      </trkpt>
      <trkpt lat="47.68626" lon="8.6782">
        <ele>394.7</ele>
      </trkpt>
      <trkpt lat="47.68601" lon="8.67874">
        <ele>395.2</ele>
      </trkpt>
      <trkpt lat="47.68577" lon="8.6793">
        <ele>396.1</ele>
      </trkpt>
      <trkpt lat="47.68571" lon="8.67943">
        <ele>396</ele>
      </trkpt>
      <trkpt lat="47.68568" lon="8.67962">
        <ele>396.1</ele>
      </trkpt>
      <trkpt lat="47.68563" lon="8.67981">
        <ele>396</ele>
      </trkpt>
      <trkpt lat="47.68557" lon="8.68001">
        <ele>395.7</ele>
      </trkpt>
      <trkpt lat="47.68558" lon="8.68054">
        <ele>396.5</ele>
      </trkpt>
      <trkpt lat="47.68607" lon="8.68129">
        <ele>395.5</ele>
      </trkpt>
      <trkpt lat="47.68641" lon="8.6811">
        <ele>395.6</ele>
      </trkpt>
      <trkpt lat="47.68672" lon="8.68071">
        <ele>395.8</ele>
      </trkpt>
      <trkpt lat="47.68748" lon="8.68001">
        <ele>394</ele>
      </trkpt>
      <trkpt lat="47.6875" lon="8.68">
        <ele>394</ele>
      </trkpt>
      <trkpt lat="47.6882" lon="8.68107">
        <ele>393</ele>
      </trkpt>
      <trkpt lat="47.68823" lon="8.68112">
        <ele>393</ele>
      </trkpt>
      <trkpt lat="47.68826" lon="8.68116">
        <ele>393</ele>
      </trkpt>
      <trkpt lat="47.68901" lon="8.68238">
        <ele>392.5</ele>
      </trkpt>
      <trkpt lat="47.68975" lon="8.68406">
        <ele>395.7</ele>
      </trkpt>
      <trkpt lat="47.68976" lon="8.68431">
        <ele>396.8</ele>
      </trkpt>
      <trkpt lat="47.68942" lon="8.68459">
        <ele>400</ele>
      </trkpt>
      <trkpt lat="47.68941" lon="8.68477">
        <ele>401.2</ele>
      </trkpt>
      <trkpt lat="47.68951" lon="8.68506">
        <ele>402.6</ele>
      </trkpt>
      <trkpt lat="47.68961" lon="8.68516">
        <ele>402.7</ele>
      </trkpt>
      <trkpt lat="47.68967" lon="8.68516">
        <ele>402.4</ele>
      </trkpt>
      <trkpt lat="47.68981" lon="8.68522">
        <ele>402.1</ele>
      </trkpt>
      <trkpt lat="47.6899" lon="8.68515">
        <ele>401.4</ele>
      </trkpt>
      <trkpt lat="47.69007" lon="8.68505">
        <ele>399.7</ele>
      </trkpt>
      <trkpt lat="47.69021" lon="8.68505">
        <ele>398.5</ele>
      </trkpt>
      <trkpt lat="47.69037" lon="8.68516">
        <ele>398.1</ele>
      </trkpt>
      <trkpt lat="47.69081" lon="8.6858">
        <ele>401.8</ele>
      </trkpt>
      <trkpt lat="47.69114" lon="8.68614">
        <ele>398.8</ele>
      </trkpt>
      <trkpt lat="47.69142" lon="8.68662">
        <ele>396.7</ele>
      </trkpt>
      <trkpt lat="47.69172" lon="8.68717">
        <ele>398.5</ele>
      </trkpt>
      <trkpt lat="47.692" lon="8.68736">
        <ele>396.6</ele>
      </trkpt>
      <trkpt lat="47.69224" lon="8.68749">
        <ele>395</ele>
      </trkpt>
      <trkpt lat="47.69236" lon="8.68758">
        <ele>394.1</ele>
      </trkpt>
      <trkpt lat="47.69247" lon="8.68773">
        <ele>393.7</ele>
      </trkpt>
      <trkpt lat="47.69254" lon="8.68777">
        <ele>393.3</ele>
      </trkpt>
      <trkpt lat="47.69264" lon="8.6878">
        <ele>392.9</ele>
      </trkpt>
      <trkpt lat="47.69272" lon="8.68783">
        <ele>392.6</ele>
      </trkpt>
      <trkpt lat="47.69274" lon="8.68786">
        <ele>392.6</ele>
      </trkpt>
      <trkpt lat="47.69272" lon="8.68793">
        <ele>393.1</ele>
      </trkpt>
      <trkpt lat="47.69275" lon="8.68801">
        <ele>393.4</ele>
      </trkpt>
      <trkpt lat="47.69279" lon="8.68806">
        <ele>393.3</ele>
      </trkpt>
      <trkpt lat="47.69295" lon="8.68814">
        <ele>392.7</ele>
      </trkpt>
      <trkpt lat="47.69299" lon="8.68822">
        <ele>392.9</ele>
      </trkpt>
      <trkpt lat="47.69302" lon="8.68824">
        <ele>392.8</ele>
      </trkpt>
      <trkpt lat="47.69308" lon="8.68833">
        <ele>392.8</ele>
      </trkpt>
      <trkpt lat="47.69313" lon="8.68836">
        <ele>392.6</ele>
      </trkpt>
      <trkpt lat="47.69318" lon="8.68842">
        <ele>392.5</ele>
      </trkpt>
      <trkpt lat="47.69333" lon="8.68857">
        <ele>392.2</ele>
      </trkpt>
      <trkpt lat="47.69339" lon="8.68861">
        <ele>392.8</ele>
      </trkpt>
      <trkpt lat="47.69347" lon="8.68864">
        <ele>393.6</ele>
      </trkpt>
      <trkpt lat="47.69354" lon="8.68869">
        <ele>394.3</ele>
      </trkpt>
      <trkpt lat="47.69441" lon="8.68971">
        <ele>395.2</ele>
      </trkpt>
      <trkpt lat="47.69445" lon="8.68986">
        <ele>394.7</ele>
      </trkpt>
      <trkpt lat="47.69447" lon="8.69006">
        <ele>394.1</ele>
      </trkpt>
      <trkpt lat="47.69446" lon="8.69042">
        <ele>392.8</ele>
      </trkpt>
      <trkpt lat="47.69445" lon="8.6907">
        <ele>391.8</ele>
      </trkpt>
      <trkpt lat="47.69444" lon="8.6911">
        <ele>391.1</ele>
      </trkpt>
      <trkpt lat="47.69441" lon="8.69158">
        <ele>390.8</ele>
      </trkpt>
      <trkpt lat="47.6944" lon="8.69179">
        <ele>391</ele>
      </trkpt>
      <trkpt lat="47.69434" lon="8.69195">
        <ele>391.6</ele>
      </trkpt>
      <trkpt lat="47.69422" lon="8.69236">
        <ele>393.3</ele>
      </trkpt>
      <trkpt lat="47.69417" lon="8.69242">
        <ele>393.7</ele>
      </trkpt>
      <trkpt lat="47.69405" lon="8.6925">
        <ele>395.4</ele>
      </trkpt>
      <trkpt lat="47.69396" lon="8.69261">
        <ele>396.1</ele>
      </trkpt>
      <trkpt lat="47.69394" lon="8.69276">
        <ele>396</ele>
      </trkpt>
      <trkpt lat="47.6939" lon="8.69297">
        <ele>395.8</ele>
      </trkpt>
      <trkpt lat="47.69388" lon="8.69319">
        <ele>395.5</ele>
      </trkpt>
      <trkpt lat="47.6936" lon="8.69385">
        <ele>398.3</ele>
      </trkpt>
      <trkpt lat="47.69351" lon="8.69394">
        <ele>399</ele>
      </trkpt>
      <trkpt lat="47.6934" lon="8.69399">
        <ele>400</ele>
      </trkpt>
      <trkpt lat="47.69301" lon="8.69396">
        <ele>403</ele>
      </trkpt>
      <trkpt lat="47.69297" lon="8.69438">
        <ele>402.4</ele>
      </trkpt>
      <trkpt lat="47.69281" lon="8.69506">
        <ele>402.1</ele>
      </trkpt>
      <trkpt lat="47.69269" lon="8.69642">
        <ele>401.9</ele>
      </trkpt>
      <trkpt lat="47.6926" lon="8.69704">
        <ele>401.4</ele>
      </trkpt>
      <trkpt lat="47.69237" lon="8.6974">
        <ele>401.6</ele>
      </trkpt>
      <trkpt lat="47.69217" lon="8.69851">
        <ele>401.7</ele>
      </trkpt>
      <trkpt lat="47.69213" lon="8.69897">
        <ele>401.7</ele>
      </trkpt>
      <trkpt lat="47.69199" lon="8.69931">
        <ele>403</ele>
      </trkpt>
      <trkpt lat="47.69179" lon="8.70019">
        <ele>407.2</ele>
      </trkpt>
      <trkpt lat="47.69141" lon="8.70118">
        <ele>407.3</ele>
      </trkpt>
      <trkpt lat="47.69136" lon="8.70126">
        <ele>407.1</ele>
      </trkpt>
      <trkpt lat="47.69126" lon="8.70143">
        <ele>406.7</ele>
      </trkpt>
      <trkpt lat="47.69118" lon="8.70156">
        <ele>406.5</ele>
      </trkpt>
      <trkpt lat="47.69097" lon="8.70181">
        <ele>406.6</ele>
      </trkpt>
      <trkpt lat="47.69075" lon="8.7023">
        <ele>405.9</ele>
      </trkpt>
      <trkpt lat="47.69067" lon="8.70255">
        <ele>405.1</ele>
      </trkpt>
      <trkpt lat="47.69043" lon="8.70276">
        <ele>404.7</ele>
      </trkpt>
      <trkpt lat="47.69016" lon="8.70306">
        <ele>405.2</ele>
      </trkpt>
      <trkpt lat="47.68979" lon="8.70325">
        <ele>406.9</ele>
      </trkpt>
      <trkpt lat="47.68968" lon="8.70333">
        <ele>407.1</ele>
      </trkpt>
      <trkpt lat="47.68919" lon="8.70407">
        <ele>407.9</ele>
      </trkpt>
      <trkpt lat="47.68889" lon="8.70577">
        <ele>404.4</ele>
      </trkpt>
      <trkpt lat="47.68854" lon="8.70742">
        <ele>402.9</ele>
      </trkpt>
      <trkpt lat="47.68836" lon="8.70873">
        <ele>401.1</ele>
      </trkpt>
      <trkpt lat="47.68829" lon="8.70979">
        <ele>403.7</ele>
      </trkpt>
      <trkpt lat="47.68838" lon="8.71043">
        <ele>405.9</ele>
      </trkpt>
      <trkpt lat="47.68838" lon="8.71083">
        <ele>408</ele>
      </trkpt>
      <trkpt lat="47.6884" lon="8.71089">
        <ele>407.1</ele>
      </trkpt>
      <trkpt lat="47.68847" lon="8.71096">
        <ele>405.3</ele>
      </trkpt>
      <trkpt lat="47.68853" lon="8.71111">
        <ele>403</ele>
      </trkpt>
      <trkpt lat="47.68859" lon="8.71139">
        <ele>400.5</ele>
      </trkpt>
      <trkpt lat="47.68859" lon="8.71169">
        <ele>398.8</ele>
      </trkpt>
      <trkpt lat="47.68854" lon="8.71203">
        <ele>398.8</ele>
      </trkpt>
      <trkpt lat="47.68862" lon="8.7124">
        <ele>397.4</ele>
      </trkpt>
      <trkpt lat="47.6887" lon="8.71283">
        <ele>398.6</ele>
      </trkpt>
      <trkpt lat="47.68871" lon="8.71335">
        <ele>401.8</ele>
      </trkpt>
      <trkpt lat="47.68878" lon="8.71385">
        <ele>404</ele>
      </trkpt>
      <trkpt lat="47.6888" lon="8.71474">
        <ele>407</ele>
      </trkpt>
      <trkpt lat="47.68884" lon="8.71505">
        <ele>407.2</ele>
      </trkpt>
      <trkpt lat="47.6891" lon="8.71766">
        <ele>409.8</ele>
      </trkpt>
      <trkpt lat="47.68931" lon="8.71807">
        <ele>409.6</ele>
      </trkpt>
      <trkpt lat="47.6894" lon="8.71835">
        <ele>409.2</ele>
      </trkpt>
      <trkpt lat="47.68962" lon="8.7186">
        <ele>407.6</ele>
      </trkpt>
      <trkpt lat="47.69003" lon="8.71928">
        <ele>406.9</ele>
      </trkpt>
      <trkpt lat="47.69024" lon="8.71957">
        <ele>404.9</ele>
      </trkpt>
      <trkpt lat="47.69045" lon="8.7197">
        <ele>402.1</ele>
      </trkpt>
      <trkpt lat="47.69083" lon="8.72033">
        <ele>398.2</ele>
      </trkpt>
      <trkpt lat="47.69116" lon="8.72121">
        <ele>400.1</ele>
      </trkpt>
      <trkpt lat="47.69133" lon="8.72168">
        <ele>399.8</ele>
      </trkpt>
      <trkpt lat="47.69201" lon="8.72469">
        <ele>400.6</ele>
      </trkpt>
      <trkpt lat="47.69213" lon="8.72621">
        <ele>401.2</ele>
      </trkpt>
      <trkpt lat="47.69221" lon="8.72699">
        <ele>402.7</ele>
      </trkpt>
      <trkpt lat="47.69221" lon="8.7279">
        <ele>405.6</ele>
      </trkpt>
      <trkpt lat="47.69229" lon="8.72841">
        <ele>407.1</ele>
      </trkpt>
      <trkpt lat="47.69222" lon="8.73013">
        <ele>405.5</ele>
      </trkpt>
      <trkpt lat="47.69218" lon="8.7313">
        <ele>405.4</ele>
      </trkpt>
      <trkpt lat="47.69218" lon="8.73186">
        <ele>403.2</ele>
      </trkpt>
      <trkpt lat="47.69219" lon="8.73223">
        <ele>400.3</ele>
      </trkpt>
      <trkpt lat="47.69217" lon="8.73264">
        <ele>398.9</ele>
      </trkpt>
      <trkpt lat="47.69226" lon="8.73302">
        <ele>398.8</ele>
      </trkpt>
      <trkpt lat="47.69227" lon="8.73308">
        <ele>399</ele>
      </trkpt>
      <trkpt lat="47.69229" lon="8.73392">
        <ele>397.7</ele>
      </trkpt>
      <trkpt lat="47.6923" lon="8.73399">
        <ele>397.4</ele>
      </trkpt>
      <trkpt lat="47.69227" lon="8.73403">
        <ele>397.3</ele>
      </trkpt>
      <trkpt lat="47.69219" lon="8.73409">
        <ele>397.4</ele>
      </trkpt>
      <trkpt lat="47.69222" lon="8.73416">
        <ele>397</ele>
      </trkpt>
      <trkpt lat="47.69221" lon="8.73423">
        <ele>396.9</ele>
      </trkpt>
      <trkpt lat="47.69241" lon="8.73438">
        <ele>396</ele>
      </trkpt>
      <trkpt lat="47.69237" lon="8.7348">
        <ele>395.6</ele>
      </trkpt>
      <trkpt lat="47.69233" lon="8.73538">
        <ele>394.4</ele>
      </trkpt>
      <trkpt lat="47.69229" lon="8.73565">
        <ele>393.9</ele>
      </trkpt>
      <trkpt lat="47.69224" lon="8.73591">
        <ele>394</ele>
      </trkpt>
      <trkpt lat="47.69212" lon="8.73637">
        <ele>395.1</ele>
      </trkpt>
      <trkpt lat="47.69205" lon="8.73638">
        <ele>395.5</ele>
      </trkpt>
      <trkpt lat="47.692" lon="8.73651">
        <ele>395.8</ele>
      </trkpt>
      <trkpt lat="47.6918" lon="8.73722">
        <ele>397.2</ele>
      </trkpt>
      <trkpt lat="47.6916" lon="8.73786">
        <ele>398.2</ele>
      </trkpt>
      <trkpt lat="47.6916" lon="8.73788">
        <ele>398.2</ele>
      </trkpt>
      <trkpt lat="47.69152" lon="8.73814">
        <ele>398.4</ele>
      </trkpt>
      <trkpt lat="47.69093" lon="8.74017">
        <ele>400.1</ele>
      </trkpt>
      <trkpt lat="47.6908" lon="8.74076">
        <ele>400.8</ele>
      </trkpt>
      <trkpt lat="47.6907" lon="8.74134">
        <ele>403.4</ele>
      </trkpt>
      <trkpt lat="47.69048" lon="8.74293">
        <ele>403</ele>
      </trkpt>
      <trkpt lat="47.6904" lon="8.74409">
        <ele>398</ele>
      </trkpt>
      <trkpt lat="47.69036" lon="8.74431">
        <ele>397.5</ele>
      </trkpt>
      <trkpt lat="47.69025" lon="8.74456">
        <ele>397.2</ele>
      </trkpt>
      <trkpt lat="47.69014" lon="8.74507">
        <ele>395.5</ele>
      </trkpt>
      <trkpt lat="47.69008" lon="8.74539">
        <ele>394.2</ele>
      </trkpt>
      <trkpt lat="47.69" lon="8.74561">
        <ele>393.1</ele>
      </trkpt>
      <trkpt lat="47.68978" lon="8.74599">
        <ele>394.1</ele>
      </trkpt>
      <trkpt lat="47.6897" lon="8.74613">
        <ele>394.8</ele>
      </trkpt>
      <trkpt lat="47.68967" lon="8.74621">
        <ele>394.9</ele>
      </trkpt>
      <trkpt lat="47.68957" lon="8.74657">
        <ele>395.2</ele>
      </trkpt>
      <trkpt lat="47.68953" lon="8.74686">
        <ele>395.9</ele>
      </trkpt>
      <trkpt lat="47.6895" lon="8.74707">
        <ele>396.6</ele>
      </trkpt>
      <trkpt lat="47.68948" lon="8.7472">
        <ele>396.9</ele>
      </trkpt>
      <trkpt lat="47.68968" lon="8.74723">
        <ele>397</ele>
      </trkpt>
      <trkpt lat="47.69003" lon="8.74729">
        <ele>397.4</ele>
      </trkpt>
      <trkpt lat="47.6901" lon="8.74729">
        <ele>397.3</ele>
      </trkpt>
      <trkpt lat="47.69021" lon="8.74733">
        <ele>397.3</ele>
      </trkpt>
      <trkpt lat="47.69026" lon="8.74736">
        <ele>397.4</ele>
      </trkpt>
      <trkpt lat="47.69029" lon="8.74742">
        <ele>397.6</ele>
      </trkpt>
      <trkpt lat="47.69031" lon="8.74748">
        <ele>397.8</ele>
      </trkpt>
      <trkpt lat="47.69031" lon="8.74798">
        <ele>398.8</ele>
      </trkpt>
      <trkpt lat="47.69031" lon="8.74826">
        <ele>399.2</ele>
      </trkpt>
      <trkpt lat="47.69033" lon="8.74844">
        <ele>399.3</ele>
      </trkpt>
      <trkpt lat="47.69035" lon="8.7489">
        <ele>399.8</ele>
      </trkpt>
      <trkpt lat="47.69036" lon="8.7493">
        <ele>400.4</ele>
      </trkpt>
      <trkpt lat="47.69037" lon="8.74954">
        <ele>401.1</ele>
      </trkpt>
      <trkpt lat="47.69038" lon="8.74981">
        <ele>401.8</ele>
      </trkpt>
      <trkpt lat="47.69037" lon="8.7499">
        <ele>402.2</ele>
      </trkpt>
      <trkpt lat="47.69033" lon="8.75009">
        <ele>402.8</ele>
      </trkpt>
      <trkpt lat="47.6903" lon="8.75039">
        <ele>402.9</ele>
      </trkpt>
      <trkpt lat="47.69028" lon="8.75054">
        <ele>403.1</ele>
      </trkpt>
      <trkpt lat="47.6903" lon="8.7506">
        <ele>402.9</ele>
      </trkpt>
      <trkpt lat="47.69029" lon="8.75068">
        <ele>403</ele>
      </trkpt>
      <trkpt lat="47.69029" lon="8.75119">
        <ele>402</ele>
      </trkpt>
      <trkpt lat="47.69028" lon="8.75131">
        <ele>401.8</ele>
      </trkpt>
      <trkpt lat="47.69027" lon="8.7514">
        <ele>401.7</ele>
      </trkpt>
      <trkpt lat="47.69023" lon="8.75159">
        <ele>401.7</ele>
      </trkpt>
      <trkpt lat="47.69021" lon="8.75192">
        <ele>401.2</ele>
      </trkpt>
      <trkpt lat="47.6902" lon="8.75207">
        <ele>401.1</ele>
      </trkpt>
      <trkpt lat="47.69017" lon="8.75219">
        <ele>401.1</ele>
      </trkpt>
      <trkpt lat="47.69006" lon="8.75266">
        <ele>401.4</ele>
      </trkpt>
      <trkpt lat="47.69002" lon="8.75281">
        <ele>401.5</ele>
      </trkpt>
      <trkpt lat="47.68997" lon="8.7531">
        <ele>401.6</ele>
      </trkpt>
      <trkpt lat="47.68993" lon="8.75324">
        <ele>401.8</ele>
      </trkpt>
      <trkpt lat="47.68987" lon="8.75345">
        <ele>402.1</ele>
      </trkpt>
      <trkpt lat="47.68978" lon="8.75371">
        <ele>402.5</ele>
      </trkpt>
      <trkpt lat="47.68978" lon="8.75377">
        <ele>402.5</ele>
      </trkpt>
      <trkpt lat="47.68973" lon="8.75386">
        <ele>402.8</ele>
      </trkpt>
      <trkpt lat="47.68972" lon="8.75404">
        <ele>402.6</ele>
      </trkpt>
      <trkpt lat="47.68976" lon="8.75416">
        <ele>402</ele>
      </trkpt>
      <trkpt lat="47.68973" lon="8.75431">
        <ele>402</ele>
      </trkpt>
      <trkpt lat="47.68962" lon="8.75472">
        <ele>401.7</ele>
      </trkpt>
      <trkpt lat="47.68944" lon="8.75523">
        <ele>399.8</ele>
      </trkpt>
      <trkpt lat="47.68935" lon="8.75529">
        <ele>399.5</ele>
      </trkpt>
      <trkpt lat="47.68921" lon="8.75582">
        <ele>396</ele>
      </trkpt>
      <trkpt lat="47.6891" lon="8.75627">
        <ele>396</ele>
      </trkpt>
      <trkpt lat="47.68896" lon="8.75693">
        <ele>396.8</ele>
      </trkpt>
      <trkpt lat="47.68885" lon="8.75755">
        <ele>397.9</ele>
      </trkpt>
      <trkpt lat="47.68866" lon="8.75792">
        <ele>400.5</ele>
      </trkpt>
      <trkpt lat="47.6887" lon="8.75798">
        <ele>400.2</ele>
      </trkpt>
      <trkpt lat="47.6887" lon="8.75806">
        <ele>400.2</ele>
      </trkpt>
      <trkpt lat="47.68865" lon="8.7582">
        <ele>400.9</ele>
      </trkpt>
      <trkpt lat="47.68856" lon="8.75842">
        <ele>401.5</ele>
      </trkpt>
      <trkpt lat="47.68838" lon="8.75906">
        <ele>399.5</ele>
      </trkpt>
      <trkpt lat="47.68822" lon="8.75949">
        <ele>398.5</ele>
      </trkpt>
      <trkpt lat="47.68806" lon="8.75994">
        <ele>397.6</ele>
      </trkpt>
      <trkpt lat="47.68778" lon="8.76073">
        <ele>395.9</ele>
      </trkpt>
      <trkpt lat="47.68721" lon="8.76203">
        <ele>397.4</ele>
      </trkpt>
      <trkpt lat="47.6871" lon="8.76238">
        <ele>398.5</ele>
      </trkpt>
      <trkpt lat="47.68699" lon="8.76258">
        <ele>399.5</ele>
      </trkpt>
      <trkpt lat="47.68684" lon="8.76296">
        <ele>399.7</ele>
      </trkpt>
      <trkpt lat="47.68674" lon="8.76337">
        <ele>398.1</ele>
      </trkpt>
      <trkpt lat="47.68649" lon="8.76385">
        <ele>396.9</ele>
      </trkpt>
      <trkpt lat="47.68637" lon="8.76406">
        <ele>396.7</ele>
      </trkpt>
      <trkpt lat="47.68625" lon="8.7644">
        <ele>396.4</ele>
      </trkpt>
      <trkpt lat="47.68621" lon="8.76456">
        <ele>396</ele>
      </trkpt>
      <trkpt lat="47.68615" lon="8.76473">
        <ele>395.5</ele>
      </trkpt>
      <trkpt lat="47.68603" lon="8.76503">
        <ele>394.2</ele>
      </trkpt>
      <trkpt lat="47.68592" lon="8.76548">
        <ele>393.1</ele>
      </trkpt>
      <trkpt lat="47.68562" lon="8.76617">
        <ele>394.3</ele>
      </trkpt>
      <trkpt lat="47.68548" lon="8.76645">
        <ele>394.6</ele>
      </trkpt>
      <trkpt lat="47.6853" lon="8.76685">
        <ele>394</ele>
      </trkpt>
      <trkpt lat="47.685" lon="8.76744">
        <ele>392.3</ele>
      </trkpt>
      <trkpt lat="47.68446" lon="8.76843">
        <ele>394.8</ele>
      </trkpt>
      <trkpt lat="47.68415" lon="8.769">
        <ele>393.1</ele>
      </trkpt>
      <trkpt lat="47.68392" lon="8.76938">
        <ele>393.3</ele>
      </trkpt>
      <trkpt lat="47.6837" lon="8.76964">
        <ele>393.9</ele>
      </trkpt>
      <trkpt lat="47.68356" lon="8.76974">
        <ele>394.1</ele>
      </trkpt>
      <trkpt lat="47.68342" lon="8.76994">
        <ele>394</ele>
      </trkpt>
      <trkpt lat="47.68278" lon="8.77025">
        <ele>396.6</ele>
      </trkpt>
      <trkpt lat="47.68226" lon="8.77081">
        <ele>393.7</ele>
      </trkpt>
      <trkpt lat="47.68127" lon="8.77212">
        <ele>394.3</ele>
      </trkpt>
      <trkpt lat="47.68077" lon="8.77289">
        <ele>394.5</ele>
      </trkpt>
      <trkpt lat="47.68033" lon="8.77369">
        <ele>395.9</ele>
      </trkpt>
      <trkpt lat="47.68028" lon="8.77395">
        <ele>396.2</ele>
      </trkpt>
      <trkpt lat="47.68001" lon="8.77493">
        <ele>392.5</ele>
      </trkpt>
      <trkpt lat="47.67996" lon="8.77506">
        <ele>392.3</ele>
      </trkpt>
      <trkpt lat="47.67971" lon="8.77563">
        <ele>393.6</ele>
      </trkpt>
      <trkpt lat="47.67962" lon="8.77579">
        <ele>393.9</ele>
      </trkpt>
      <trkpt lat="47.67955" lon="8.77591">
        <ele>394.5</ele>
      </trkpt>
      <trkpt lat="47.67941" lon="8.7766">
        <ele>396.9</ele>
      </trkpt>
      <trkpt lat="47.67922" lon="8.77728">
        <ele>394.2</ele>
      </trkpt>
      <trkpt lat="47.67892" lon="8.77802">
        <ele>392.6</ele>
      </trkpt>
      <trkpt lat="47.67854" lon="8.77866">
        <ele>394.3</ele>
      </trkpt>
      <trkpt lat="47.67825" lon="8.77929">
        <ele>397</ele>
      </trkpt>
      <trkpt lat="47.67775" lon="8.78026">
        <ele>395.8</ele>
      </trkpt>
      <trkpt lat="47.67741" lon="8.78105">
        <ele>393.8</ele>
      </trkpt>
      <trkpt lat="47.67723" lon="8.78137">
        <ele>395.2</ele>
      </trkpt>
      <trkpt lat="47.67712" lon="8.78134">
        <ele>396.4</ele>
      </trkpt>
      <trkpt lat="47.67704" lon="8.78154">
        <ele>396.8</ele>
      </trkpt>
      <trkpt lat="47.67706" lon="8.7817">
        <ele>396.1</ele>
      </trkpt>
      <trkpt lat="47.67695" lon="8.78199">
        <ele>395.6</ele>
      </trkpt>
      <trkpt lat="47.67693" lon="8.7822">
        <ele>394.6</ele>
      </trkpt>
      <trkpt lat="47.67681" lon="8.78245">
        <ele>394.3</ele>
      </trkpt>
      <trkpt lat="47.6765" lon="8.78306">
        <ele>395.2</ele>
      </trkpt>
      <trkpt lat="47.67598" lon="8.78385">
        <ele>400.1</ele>
      </trkpt>
      <trkpt lat="47.67584" lon="8.78418">
        <ele>399.8</ele>
      </trkpt>
      <trkpt lat="47.6758" lon="8.78442">
        <ele>398.5</ele>
      </trkpt>
      <trkpt lat="47.6758" lon="8.78454">
        <ele>397.4</ele>
      </trkpt>
      <trkpt lat="47.6759" lon="8.78502">
        <ele>392.1</ele>
      </trkpt>
      <trkpt lat="47.67586" lon="8.78521">
        <ele>393.2</ele>
      </trkpt>
      <trkpt lat="47.67573" lon="8.78581">
        <ele>397.8</ele>
      </trkpt>
      <trkpt lat="47.6757" lon="8.78584">
        <ele>398.1</ele>
      </trkpt>
      <trkpt lat="47.67552" lon="8.78601">
        <ele>398.8</ele>
      </trkpt>
      <trkpt lat="47.67528" lon="8.78625">
        <ele>400.4</ele>
      </trkpt>
      <trkpt lat="47.67523" lon="8.7864">
        <ele>400.6</ele>
      </trkpt>
      <trkpt lat="47.67509" lon="8.7868">
        <ele>401.3</ele>
      </trkpt>
      <trkpt lat="47.675" lon="8.78704">
        <ele>401.2</ele>
      </trkpt>
      <trkpt lat="47.67494" lon="8.78731">
        <ele>400.5</ele>
      </trkpt>
      <trkpt lat="47.67484" lon="8.78778">
        <ele>401</ele>
      </trkpt>
      <trkpt lat="47.67473" lon="8.78818">
        <ele>402.4</ele>
      </trkpt>
      <trkpt lat="47.67463" lon="8.78871">
        <ele>401.1</ele>
      </trkpt>
      <trkpt lat="47.67463" lon="8.78929">
        <ele>398.4</ele>
      </trkpt>
      <trkpt lat="47.67456" lon="8.7895">
        <ele>399.4</ele>
      </trkpt>
      <trkpt lat="47.67444" lon="8.78969">
        <ele>400.8</ele>
      </trkpt>
      <trkpt lat="47.6744" lon="8.79002">
        <ele>400.6</ele>
      </trkpt>
      <trkpt lat="47.67443" lon="8.79018">
        <ele>400.1</ele>
      </trkpt>
      <trkpt lat="47.67444" lon="8.79031">
        <ele>399.9</ele>
      </trkpt>
      <trkpt lat="47.67442" lon="8.79051">
        <ele>399.9</ele>
      </trkpt>
      <trkpt lat="47.67436" lon="8.79066">
        <ele>400.6</ele>
      </trkpt>
      <trkpt lat="47.67429" lon="8.79101">
        <ele>402.5</ele>
      </trkpt>
      <trkpt lat="47.67427" lon="8.79149">
        <ele>405.7</ele>
      </trkpt>
      <trkpt lat="47.67415" lon="8.79213">
        <ele>410.4</ele>
      </trkpt>
      <trkpt lat="47.67406" lon="8.79302">
        <ele>411.1</ele>
      </trkpt>
      <trkpt lat="47.67406" lon="8.7938">
        <ele>409.8</ele>
      </trkpt>
      <trkpt lat="47.67397" lon="8.79409">
        <ele>412.2</ele>
      </trkpt>
      <trkpt lat="47.67393" lon="8.79433">
        <ele>413</ele>
      </trkpt>
      <trkpt lat="47.67395" lon="8.79478">
        <ele>412.4</ele>
      </trkpt>
      <trkpt lat="47.67399" lon="8.79496">
        <ele>411.4</ele>
      </trkpt>
      <trkpt lat="47.67401" lon="8.79535">
        <ele>411.1</ele>
      </trkpt>
      <trkpt lat="47.67394" lon="8.79572">
        <ele>411.9</ele>
      </trkpt>
      <trkpt lat="47.67403" lon="8.79628">
        <ele>410</ele>
      </trkpt>
      <trkpt lat="47.67447" lon="8.79844">
        <ele>410.2</ele>
      </trkpt>
      <trkpt lat="47.67451" lon="8.79867">
        <ele>410.6</ele>
      </trkpt>
      <trkpt lat="47.6747" lon="8.79959">
        <ele>410.1</ele>
      </trkpt>
      <trkpt lat="47.67475" lon="8.79976">
        <ele>409.9</ele>
      </trkpt>
      <trkpt lat="47.67479" lon="8.7998">
        <ele>409.7</ele>
      </trkpt>
      <trkpt lat="47.67484" lon="8.79982">
        <ele>409.5</ele>
      </trkpt>
      <trkpt lat="47.67486" lon="8.79991">
        <ele>409.5</ele>
      </trkpt>
      <trkpt lat="47.6749" lon="8.79992">
        <ele>409.3</ele>
      </trkpt>
      <trkpt lat="47.67495" lon="8.79998">
        <ele>409.1</ele>
      </trkpt>
      <trkpt lat="47.67498" lon="8.80006">
        <ele>409.3</ele>
      </trkpt>
      <trkpt lat="47.67499" lon="8.80026">
        <ele>410</ele>
      </trkpt>
      <trkpt lat="47.67498" lon="8.80042">
        <ele>410.5</ele>
      </trkpt>
      <trkpt lat="47.67499" lon="8.80053">
        <ele>410.9</ele>
      </trkpt>
      <trkpt lat="47.67501" lon="8.80061">
        <ele>411.1</ele>
      </trkpt>
      <trkpt lat="47.67508" lon="8.80061">
        <ele>410.4</ele>
      </trkpt>
      <trkpt lat="47.67555" lon="8.80178">
        <ele>406.8</ele>
      </trkpt>
      <trkpt lat="47.6756" lon="8.80196">
        <ele>407.2</ele>
      </trkpt>
      <trkpt lat="47.67566" lon="8.80199">
        <ele>406.8</ele>
      </trkpt>
      <trkpt lat="47.67573" lon="8.80197">
        <ele>406.1</ele>
      </trkpt>
      <trkpt lat="47.67657" lon="8.80121">
        <ele>397.5</ele>
      </trkpt>
      <trkpt lat="47.67699" lon="8.80208">
        <ele>398.2</ele>
      </trkpt>
      <trkpt lat="47.67711" lon="8.80239">
        <ele>398.5</ele>
      </trkpt>
      <trkpt lat="47.67716" lon="8.80257">
        <ele>398.7</ele>
      </trkpt>
      <trkpt lat="47.67722" lon="8.80287">
        <ele>398.5</ele>
      </trkpt>
      <trkpt lat="47.67722" lon="8.8031">
        <ele>398.6</ele>
      </trkpt>
      <trkpt lat="47.67721" lon="8.80328">
        <ele>398.7</ele>
      </trkpt>
      <trkpt lat="47.67718" lon="8.80347">
        <ele>399.3</ele>
      </trkpt>
      <trkpt lat="47.67699" lon="8.80436">
        <ele>402.5</ele>
      </trkpt>
      <trkpt lat="47.67696" lon="8.80451">
        <ele>402.9</ele>
      </trkpt>
      <trkpt lat="47.6768" lon="8.80499">
        <ele>404.6</ele>
      </trkpt>
      <trkpt lat="47.6767" lon="8.80527">
        <ele>404.1</ele>
      </trkpt>
      <trkpt lat="47.67666" lon="8.80538">
        <ele>404.1</ele>
      </trkpt>
      <trkpt lat="47.6766" lon="8.80547">
        <ele>404</ele>
      </trkpt>
      <trkpt lat="47.67653" lon="8.80553">
        <ele>403.9</ele>
      </trkpt>
      <trkpt lat="47.67644" lon="8.80554">
        <ele>404</ele>
      </trkpt>
      <trkpt lat="47.67637" lon="8.80553">
        <ele>404.2</ele>
      </trkpt>
      <trkpt lat="47.67613" lon="8.80542">
        <ele>404.6</ele>
      </trkpt>
      <trkpt lat="47.67586" lon="8.80529">
        <ele>405</ele>
      </trkpt>
      <trkpt lat="47.67569" lon="8.80634">
        <ele>406.5</ele>
      </trkpt>
      <trkpt lat="47.6756" lon="8.8068">
        <ele>406.8</ele>
      </trkpt>
      <trkpt lat="47.67551" lon="8.80732">
        <ele>405.1</ele>
      </trkpt>
      <trkpt lat="47.67548" lon="8.8074">
        <ele>405</ele>
      </trkpt>
      <trkpt lat="47.67545" lon="8.80744">
        <ele>405</ele>
      </trkpt>
      <trkpt lat="47.6754" lon="8.80746">
        <ele>405.3</ele>
      </trkpt>
      <trkpt lat="47.67519" lon="8.80743">
        <ele>406.9</ele>
      </trkpt>
      <trkpt lat="47.67526" lon="8.80772">
        <ele>404.5</ele>
      </trkpt>
      <trkpt lat="47.67531" lon="8.80796">
        <ele>402.3</ele>
      </trkpt>
      <trkpt lat="47.67528" lon="8.80811">
        <ele>401.3</ele>
      </trkpt>
      <trkpt lat="47.67524" lon="8.80818">
        <ele>401</ele>
      </trkpt>
      <trkpt lat="47.67505" lon="8.80853">
        <ele>400.1</ele>
      </trkpt>
      <trkpt lat="47.67505" lon="8.80873">
        <ele>399.4</ele>
      </trkpt>
      <trkpt lat="47.67506" lon="8.80888">
        <ele>398.9</ele>
      </trkpt>
      <trkpt lat="47.67514" lon="8.80908">
        <ele>398.1</ele>
      </trkpt>
      <trkpt lat="47.67545" lon="8.80971">
        <ele>398.5</ele>
      </trkpt>
      <trkpt lat="47.67548" lon="8.80985">
        <ele>398.7</ele>
      </trkpt>
      <trkpt lat="47.67548" lon="8.80994">
        <ele>398.9</ele>
      </trkpt>
      <trkpt lat="47.67546" lon="8.81022">
        <ele>398.6</ele>
      </trkpt>
      <trkpt lat="47.67536" lon="8.81124">
        <ele>396.8</ele>
      </trkpt>
      <trkpt lat="47.67526" lon="8.81216">
        <ele>397.5</ele>
      </trkpt>
      <trkpt lat="47.67525" lon="8.81243">
        <ele>398.1</ele>
      </trkpt>
      <trkpt lat="47.67529" lon="8.81268">
        <ele>398</ele>
      </trkpt>
      <trkpt lat="47.67541" lon="8.8132">
        <ele>397.2</ele>
      </trkpt>
      <trkpt lat="47.67559" lon="8.81397">
        <ele>397.3</ele>
      </trkpt>
      <trkpt lat="47.67619" lon="8.8153">
        <ele>398.4</ele>
      </trkpt>
      <trkpt lat="47.67647" lon="8.81592">
        <ele>398.6</ele>
      </trkpt>
      <trkpt lat="47.6766" lon="8.81623">
        <ele>398</ele>
      </trkpt>
      <trkpt lat="47.67666" lon="8.81642">
        <ele>397.6</ele>
      </trkpt>
      <trkpt lat="47.67671" lon="8.81664">
        <ele>396.8</ele>
      </trkpt>
      <trkpt lat="47.67674" lon="8.81686">
        <ele>396.8</ele>
      </trkpt>
      <trkpt lat="47.67674" lon="8.81708">
        <ele>397</ele>
      </trkpt>
      <trkpt lat="47.67671" lon="8.81738">
        <ele>397.6</ele>
      </trkpt>
      <trkpt lat="47.67647" lon="8.81875">
        <ele>399.2</ele>
      </trkpt>
      <trkpt lat="47.67641" lon="8.81909">
        <ele>399.8</ele>
      </trkpt>
      <trkpt lat="47.67634" lon="8.8194">
        <ele>399.9</ele>
      </trkpt>
      <trkpt lat="47.67629" lon="8.81943">
        <ele>400.3</ele>
      </trkpt>
      <trkpt lat="47.67606" lon="8.81939">
        <ele>402.3</ele>
      </trkpt>
      <trkpt lat="47.67601" lon="8.8194">
        <ele>402.7</ele>
      </trkpt>
      <trkpt lat="47.67595" lon="8.81946">
        <ele>403.6</ele>
      </trkpt>
      <trkpt lat="47.67582" lon="8.81968">
        <ele>407.4</ele>
      </trkpt>
      <trkpt lat="47.67561" lon="8.81986">
        <ele>413.7</ele>
      </trkpt>
      <trkpt lat="47.67541" lon="8.82007">
        <ele>419.6</ele>
      </trkpt>
      <trkpt lat="47.67505" lon="8.82081">
        <ele>429.1</ele>
      </trkpt>
      <trkpt lat="47.67502" lon="8.82124">
        <ele>429</ele>
      </trkpt>
      <trkpt lat="47.67495" lon="8.82153">
        <ele>429.1</ele>
      </trkpt>
      <trkpt lat="47.67463" lon="8.82233">
        <ele>426</ele>
      </trkpt>
      <trkpt lat="47.67449" lon="8.82277">
        <ele>427.4</ele>
      </trkpt>
      <trkpt lat="47.67429" lon="8.82341">
        <ele>431</ele>
      </trkpt>
      <trkpt lat="47.67436" lon="8.82382">
        <ele>428.3</ele>
      </trkpt>
      <trkpt lat="47.67436" lon="8.82406">
        <ele>427.5</ele>
      </trkpt>
      <trkpt lat="47.67415" lon="8.82522">
        <ele>430.9</ele>
      </trkpt>
      <trkpt lat="47.67402" lon="8.82578">
        <ele>429.4</ele>
      </trkpt>
      <trkpt lat="47.67395" lon="8.82598">
        <ele>428.7</ele>
      </trkpt>
      <trkpt lat="47.6736" lon="8.82762">
        <ele>419.4</ele>
      </trkpt>
      <trkpt lat="47.6736" lon="8.82774">
        <ele>419</ele>
      </trkpt>
      <trkpt lat="47.67347" lon="8.82816">
        <ele>418.3</ele>
      </trkpt>
      <trkpt lat="47.6734" lon="8.82839">
        <ele>417.9</ele>
      </trkpt>
      <trkpt lat="47.67295" lon="8.82975">
        <ele>418.6</ele>
      </trkpt>
      <trkpt lat="47.67265" lon="8.8307">
        <ele>417</ele>
      </trkpt>
      <trkpt lat="47.67258" lon="8.83085">
        <ele>417</ele>
      </trkpt>
      <trkpt lat="47.67245" lon="8.831">
        <ele>417.3</ele>
      </trkpt>
      <trkpt lat="47.67191" lon="8.83143">
        <ele>417.3</ele>
      </trkpt>
      <trkpt lat="47.67171" lon="8.83162">
        <ele>417.8</ele>
      </trkpt>
      <trkpt lat="47.67167" lon="8.83163">
        <ele>417.8</ele>
      </trkpt>
      <trkpt lat="47.67161" lon="8.83164">
        <ele>418</ele>
      </trkpt>
      <trkpt lat="47.67161" lon="8.83168">
        <ele>418</ele>
      </trkpt>
      <trkpt lat="47.6715" lon="8.83212">
        <ele>415.5</ele>
      </trkpt>
      <trkpt lat="47.67113" lon="8.83231">
        <ele>416.2</ele>
      </trkpt>
      <trkpt lat="47.67103" lon="8.83234">
        <ele>416.5</ele>
      </trkpt>
      <trkpt lat="47.67095" lon="8.83233">
        <ele>417</ele>
      </trkpt>
      <trkpt lat="47.67089" lon="8.83223">
        <ele>417.7</ele>
      </trkpt>
      <trkpt lat="47.67082" lon="8.83212">
        <ele>418.3</ele>
      </trkpt>
      <trkpt lat="47.6708" lon="8.83195">
        <ele>418.8</ele>
      </trkpt>
      <trkpt lat="47.6708" lon="8.83181">
        <ele>419.3</ele>
      </trkpt>
      <trkpt lat="47.67077" lon="8.83167">
        <ele>419.7</ele>
      </trkpt>
      <trkpt lat="47.6707" lon="8.83163">
        <ele>419.2</ele>
      </trkpt>
      <trkpt lat="47.67061" lon="8.83157">
        <ele>418.7</ele>
      </trkpt>
      <trkpt lat="47.67043" lon="8.83138">
        <ele>417.7</ele>
      </trkpt>
      <trkpt lat="47.67035" lon="8.83152">
        <ele>417.6</ele>
      </trkpt>
      <trkpt lat="47.67021" lon="8.83169">
        <ele>416.9</ele>
      </trkpt>
      <trkpt lat="47.66998" lon="8.83189">
        <ele>415.1</ele>
      </trkpt>
      <trkpt lat="47.66983" lon="8.8319">
        <ele>414.7</ele>
      </trkpt>
      <trkpt lat="47.66966" lon="8.83192">
        <ele>414.3</ele>
      </trkpt>
      <trkpt lat="47.66953" lon="8.83197">
        <ele>413.8</ele>
      </trkpt>
      <trkpt lat="47.66944" lon="8.83204">
        <ele>413.5</ele>
      </trkpt>
      <trkpt lat="47.66929" lon="8.83219">
        <ele>413.2</ele>
      </trkpt>
      <trkpt lat="47.66919" lon="8.83231">
        <ele>413</ele>
      </trkpt>
      <trkpt lat="47.66908" lon="8.83246">
        <ele>413.2</ele>
      </trkpt>
      <trkpt lat="47.66964" lon="8.83303">
        <ele>412.5</ele>
      </trkpt>
      <trkpt lat="47.66975" lon="8.83318">
        <ele>411.8</ele>
      </trkpt>
      <trkpt lat="47.66984" lon="8.8334">
        <ele>411</ele>
      </trkpt>
      <trkpt lat="47.66991" lon="8.83366">
        <ele>410.8</ele>
      </trkpt>
      <trkpt lat="47.66995" lon="8.834">
        <ele>411</ele>
      </trkpt>
      <trkpt lat="47.66995" lon="8.83415">
        <ele>411.2</ele>
      </trkpt>
      <trkpt lat="47.66993" lon="8.83435">
        <ele>410.8</ele>
      </trkpt>
      <trkpt lat="47.66989" lon="8.83461">
        <ele>410.4</ele>
      </trkpt>
      <trkpt lat="47.66982" lon="8.83489">
        <ele>410.1</ele>
      </trkpt>
      <trkpt lat="47.66977" lon="8.83508">
        <ele>410</ele>
      </trkpt>
      <trkpt lat="47.66961" lon="8.83547">
        <ele>409.8</ele>
      </trkpt>
      <trkpt lat="47.66954" lon="8.83562">
        <ele>409.6</ele>
      </trkpt>
      <trkpt lat="47.66948" lon="8.83577">
        <ele>409.4</ele>
      </trkpt>
      <trkpt lat="47.66929" lon="8.83603">
        <ele>409.3</ele>
      </trkpt>
      <trkpt lat="47.66909" lon="8.83623">
        <ele>409.6</ele>
      </trkpt>
      <trkpt lat="47.66899" lon="8.83632">
        <ele>410.2</ele>
      </trkpt>
      <trkpt lat="47.66878" lon="8.83651">
        <ele>411.5</ele>
      </trkpt>
      <trkpt lat="47.66859" lon="8.8367">
        <ele>412.6</ele>
      </trkpt>
      <trkpt lat="47.66841" lon="8.83676">
        <ele>413.8</ele>
      </trkpt>
      <trkpt lat="47.66835" lon="8.83674">
        <ele>414.5</ele>
      </trkpt>
      <trkpt lat="47.66826" lon="8.8367">
        <ele>414.9</ele>
      </trkpt>
      <trkpt lat="47.6682" lon="8.83668">
        <ele>415.1</ele>
      </trkpt>
      <trkpt lat="47.66812" lon="8.83669">
        <ele>415.2</ele>
      </trkpt>
      <trkpt lat="47.66791" lon="8.83684">
        <ele>415</ele>
      </trkpt>
      <trkpt lat="47.66755" lon="8.83715">
        <ele>415.2</ele>
      </trkpt>
      <trkpt lat="47.66693" lon="8.83769">
        <ele>410.9</ele>
      </trkpt>
      <trkpt lat="47.66678" lon="8.83782">
        <ele>409.2</ele>
      </trkpt>
      <trkpt lat="47.66663" lon="8.83789">
        <ele>408.2</ele>
      </trkpt>
      <trkpt lat="47.66647" lon="8.8379">
        <ele>407.9</ele>
      </trkpt>
      <trkpt lat="47.66637" lon="8.83787">
        <ele>408</ele>
      </trkpt>
      <trkpt lat="47.66566" lon="8.8375">
        <ele>408.8</ele>
      </trkpt>
      <trkpt lat="47.66565" lon="8.83748">
        <ele>408.9</ele>
      </trkpt>
      <trkpt lat="47.66519" lon="8.8377">
        <ele>407.3</ele>
      </trkpt>
      <trkpt lat="47.66505" lon="8.83776">
        <ele>406.8</ele>
      </trkpt>
      <trkpt lat="47.66419" lon="8.83819">
        <ele>406.8</ele>
      </trkpt>
      <trkpt lat="47.6641" lon="8.83821">
        <ele>406.8</ele>
      </trkpt>
      <trkpt lat="47.66402" lon="8.83818">
        <ele>406.8</ele>
      </trkpt>
      <trkpt lat="47.66382" lon="8.83803">
        <ele>406.6</ele>
      </trkpt>
      <trkpt lat="47.66344" lon="8.83773">
        <ele>406.3</ele>
      </trkpt>
      <trkpt lat="47.66342" lon="8.83772">
        <ele>406.3</ele>
      </trkpt>
      <trkpt lat="47.66312" lon="8.8375">
        <ele>405.7</ele>
      </trkpt>
      <trkpt lat="47.66307" lon="8.83746">
        <ele>405.7</ele>
      </trkpt>
      <trkpt lat="47.66297" lon="8.83773">
        <ele>405.5</ele>
      </trkpt>
      <trkpt lat="47.66249" lon="8.83914">
        <ele>403</ele>
      </trkpt>
      <trkpt lat="47.66234" lon="8.83956">
        <ele>403.9</ele>
      </trkpt>
      <trkpt lat="47.66208" lon="8.84032">
        <ele>405.1</ele>
      </trkpt>
      <trkpt lat="47.66213" lon="8.84036">
        <ele>404.9</ele>
      </trkpt>
      <trkpt lat="47.66224" lon="8.84043">
        <ele>404.2</ele>
      </trkpt>
      <trkpt lat="47.66229" lon="8.84051">
        <ele>403.8</ele>
      </trkpt>
      <trkpt lat="47.66238" lon="8.84086">
        <ele>402.7</ele>
      </trkpt>
      <trkpt lat="47.66246" lon="8.84115">
        <ele>401.5</ele>
      </trkpt>
      <trkpt lat="47.66254" lon="8.84136">
        <ele>400.5</ele>
      </trkpt>
      <trkpt lat="47.66282" lon="8.84188">
        <ele>398.2</ele>
      </trkpt>
      <trkpt lat="47.66297" lon="8.84219">
        <ele>397.9</ele>
      </trkpt>
      <trkpt lat="47.66306" lon="8.84238">
        <ele>397.7</ele>
      </trkpt>
      <trkpt lat="47.66307" lon="8.84257">
        <ele>397.7</ele>
      </trkpt>
      <trkpt lat="47.663" lon="8.84268">
        <ele>398</ele>
      </trkpt>
      <trkpt lat="47.66271" lon="8.84312">
        <ele>400.3</ele>
      </trkpt>
      <trkpt lat="47.66259" lon="8.8434">
        <ele>401.1</ele>
      </trkpt>
      <trkpt lat="47.66243" lon="8.84381">
        <ele>397.5</ele>
      </trkpt>
      <trkpt lat="47.66225" lon="8.84434">
        <ele>396.1</ele>
      </trkpt>
      <trkpt lat="47.66217" lon="8.84473">
        <ele>397</ele>
      </trkpt>
      <trkpt lat="47.66213" lon="8.84522">
        <ele>397.1</ele>
      </trkpt>
      <trkpt lat="47.66208" lon="8.84578">
        <ele>397.1</ele>
      </trkpt>
      <trkpt lat="47.66207" lon="8.84614">
        <ele>397.3</ele>
      </trkpt>
      <trkpt lat="47.66211" lon="8.84638">
        <ele>396.9</ele>
      </trkpt>
      <trkpt lat="47.66211" lon="8.84653">
        <ele>397</ele>
      </trkpt>
      <trkpt lat="47.66207" lon="8.84687">
        <ele>397.7</ele>
      </trkpt>
      <trkpt lat="47.66202" lon="8.84698">
        <ele>398.4</ele>
      </trkpt>
      <trkpt lat="47.662" lon="8.84704">
        <ele>398.7</ele>
      </trkpt>
      <trkpt lat="47.66198" lon="8.84708">
        <ele>398.8</ele>
      </trkpt>
      <trkpt lat="47.66202" lon="8.84723">
        <ele>398.3</ele>
      </trkpt>
      <trkpt lat="47.66203" lon="8.8473">
        <ele>398.2</ele>
      </trkpt>
      <trkpt lat="47.66203" lon="8.84757">
        <ele>397.7</ele>
      </trkpt>
      <trkpt lat="47.66202" lon="8.84762">
        <ele>397.4</ele>
      </trkpt>
      <trkpt lat="47.66187" lon="8.84806">
        <ele>394.7</ele>
      </trkpt>
      <trkpt lat="47.66173" lon="8.84837">
        <ele>392</ele>
      </trkpt>
      <trkpt lat="47.66171" lon="8.8484">
        <ele>392</ele>
      </trkpt>
      <trkpt lat="47.66158" lon="8.84854">
        <ele>393.2</ele>
      </trkpt>
      <trkpt lat="47.66156" lon="8.84856">
        <ele>393.5</ele>
      </trkpt>
      <trkpt lat="47.66151" lon="8.84857">
        <ele>394.1</ele>
      </trkpt>
      <trkpt lat="47.66114" lon="8.84915">
        <ele>398.4</ele>
      </trkpt>
      <trkpt lat="47.66101" lon="8.84934">
        <ele>400.4</ele>
      </trkpt>
      <trkpt lat="47.66091" lon="8.84959">
        <ele>402.5</ele>
      </trkpt>
      <trkpt lat="47.66079" lon="8.84985">
        <ele>404.6</ele>
      </trkpt>
      <trkpt lat="47.66072" lon="8.85019">
        <ele>404.6</ele>
      </trkpt>
      <trkpt lat="47.66068" lon="8.85051">
        <ele>403.4</ele>
      </trkpt>
      <trkpt lat="47.66051" lon="8.85083">
        <ele>403.4</ele>
      </trkpt>
      <trkpt lat="47.66047" lon="8.85085">
        <ele>403.6</ele>
      </trkpt>
      <trkpt lat="47.66043" lon="8.85079">
        <ele>404.1</ele>
      </trkpt>
      <trkpt lat="47.6604" lon="8.85079">
        <ele>404.3</ele>
      </trkpt>
      <trkpt lat="47.66029" lon="8.85086">
        <ele>404.8</ele>
      </trkpt>
      <trkpt lat="47.66014" lon="8.85115">
        <ele>405.5</ele>
      </trkpt>
      <trkpt lat="47.66003" lon="8.85147">
        <ele>406</ele>
      </trkpt>
      <trkpt lat="47.65994" lon="8.8516">
        <ele>406.4</ele>
      </trkpt>
      <trkpt lat="47.65988" lon="8.85181">
        <ele>406.4</ele>
      </trkpt>
      <trkpt lat="47.65988" lon="8.85187">
        <ele>406.2</ele>
      </trkpt>
      <trkpt lat="47.65983" lon="8.85203">
        <ele>406.3</ele>
      </trkpt>
      <trkpt lat="47.65967" lon="8.85191">
        <ele>407.5</ele>
      </trkpt>
      <trkpt lat="47.6595" lon="8.85237">
        <ele>407.8</ele>
      </trkpt>
      <trkpt lat="47.65952" lon="8.85242">
        <ele>407.6</ele>
      </trkpt>
      <trkpt lat="47.65966" lon="8.85258">
        <ele>406.3</ele>
      </trkpt>
      <trkpt lat="47.65978" lon="8.8527">
        <ele>405.2</ele>
      </trkpt>
      <trkpt lat="47.65979" lon="8.85274">
        <ele>405</ele>
      </trkpt>
      <trkpt lat="47.65967" lon="8.85305">
        <ele>405.3</ele>
      </trkpt>
      <trkpt lat="47.65952" lon="8.85354">
        <ele>404.3</ele>
      </trkpt>
      <trkpt lat="47.65945" lon="8.85373">
        <ele>403.5</ele>
      </trkpt>
      <trkpt lat="47.6593" lon="8.85419">
        <ele>402</ele>
      </trkpt>
      <trkpt lat="47.65924" lon="8.85431">
        <ele>402.2</ele>
      </trkpt>
      <trkpt lat="47.65922" lon="8.85434">
        <ele>402.3</ele>
      </trkpt>
      <trkpt lat="47.65901" lon="8.85417">
        <ele>405</ele>
      </trkpt>
      <trkpt lat="47.65899" lon="8.85419">
        <ele>404.9</ele>
      </trkpt>
      <trkpt lat="47.65898" lon="8.85423">
        <ele>404.8</ele>
      </trkpt>
      <trkpt lat="47.6587" lon="8.85477">
        <ele>404.4</ele>
      </trkpt>
      <trkpt lat="47.65865" lon="8.85489">
        <ele>404.4</ele>
      </trkpt>
      <trkpt lat="47.65863" lon="8.85494">
        <ele>404.3</ele>
      </trkpt>
      <trkpt lat="47.65856" lon="8.85516">
        <ele>404</ele>
      </trkpt>
      <trkpt lat="47.65841" lon="8.85569">
        <ele>403.5</ele>
      </trkpt>
      <trkpt lat="47.65837" lon="8.85581">
        <ele>403.6</ele>
      </trkpt>
      <trkpt lat="47.65833" lon="8.8559">
        <ele>403.7</ele>
      </trkpt>
      <trkpt lat="47.65831" lon="8.85594">
        <ele>403.6</ele>
      </trkpt>
      <trkpt lat="47.65806" lon="8.85629">
        <ele>404.2</ele>
      </trkpt>
      <trkpt lat="47.65795" lon="8.8565">
        <ele>404.3</ele>
      </trkpt>
      <trkpt lat="47.65786" lon="8.85683">
        <ele>403.7</ele>
      </trkpt>
      <trkpt lat="47.65778" lon="8.85723">
        <ele>402.3</ele>
      </trkpt>
      <trkpt lat="47.65779" lon="8.85734">
        <ele>401.4</ele>
      </trkpt>
      <trkpt lat="47.65779" lon="8.85739">
        <ele>401.1</ele>
      </trkpt>
      <trkpt lat="47.65777" lon="8.85746">
        <ele>401</ele>
      </trkpt>
      <trkpt lat="47.65771" lon="8.85763">
        <ele>401.4</ele>
      </trkpt>
      <trkpt lat="47.6576" lon="8.85798">
        <ele>402.4</ele>
      </trkpt>
      <trkpt lat="47.65759" lon="8.85802">
        <ele>402.5</ele>
      </trkpt>
      <trkpt lat="47.65755" lon="8.85818">
        <ele>402.7</ele>
      </trkpt>
      <trkpt lat="47.65756" lon="8.85823">
        <ele>402.5</ele>
      </trkpt>
      <trkpt lat="47.65753" lon="8.85829">
        <ele>402.7</ele>
      </trkpt>
      <trkpt lat="47.6575" lon="8.85835">
        <ele>402.8</ele>
      </trkpt>
      <trkpt lat="47.65748" lon="8.8584">
        <ele>402.4</ele>
      </trkpt>
      <trkpt lat="47.65752" lon="8.85844">
        <ele>401.3</ele>
      </trkpt>
      <trkpt lat="47.65759" lon="8.85851">
        <ele>399.9</ele>
      </trkpt>
      <trkpt lat="47.65753" lon="8.85864">
        <ele>398.7</ele>
      </trkpt>
      <trkpt lat="47.65729" lon="8.85913">
        <ele>397.7</ele>
      </trkpt>
      <trkpt lat="47.65712" lon="8.85947">
        <ele>399.5</ele>
      </trkpt>
      <trkpt lat="47.65695" lon="8.85989">
        <ele>399</ele>
      </trkpt>
      <trkpt lat="47.65688" lon="8.86">
        <ele>398.7</ele>
      </trkpt>
      <trkpt lat="47.65681" lon="8.8601">
        <ele>399</ele>
      </trkpt>
      <trkpt lat="47.65667" lon="8.86042">
        <ele>398.4</ele>
      </trkpt>
      <trkpt lat="47.65664" lon="8.86049">
        <ele>398.3</ele>
      </trkpt>
      <trkpt lat="47.65643" lon="8.86075">
        <ele>397.9</ele>
      </trkpt>
      <trkpt lat="47.65632" lon="8.86087">
        <ele>398</ele>
      </trkpt>
      <trkpt lat="47.65626" lon="8.8609">
        <ele>398.2</ele>
      </trkpt>
      <trkpt lat="47.65611" lon="8.86102">
        <ele>398.7</ele>
      </trkpt>
      <trkpt lat="47.65594" lon="8.86118">
        <ele>399.4</ele>
      </trkpt>
      <trkpt lat="47.65527" lon="8.86185">
        <ele>399.8</ele>
      </trkpt>
      <trkpt lat="47.65517" lon="8.86195">
        <ele>400.1</ele>
      </trkpt>
      <trkpt lat="47.65499" lon="8.86219">
        <ele>401</ele>
      </trkpt>
      <trkpt lat="47.65497" lon="8.86223">
        <ele>401.1</ele>
      </trkpt>
      <trkpt lat="47.65486" lon="8.86239">
        <ele>401.7</ele>
      </trkpt>
      <trkpt lat="47.65479" lon="8.86246">
        <ele>402</ele>
      </trkpt>
      <trkpt lat="47.65456" lon="8.86315">
        <ele>399</ele>
      </trkpt>
      <trkpt lat="47.65425" lon="8.86393">
        <ele>401.9</ele>
      </trkpt>
      <trkpt lat="47.65403" lon="8.86456">
        <ele>398.5</ele>
      </trkpt>
      <trkpt lat="47.65401" lon="8.86462">
        <ele>398</ele>
      </trkpt>
      <trkpt lat="47.65392" lon="8.86484">
        <ele>396.3</ele>
      </trkpt>
      <trkpt lat="47.6537" lon="8.86516">
        <ele>397</ele>
      </trkpt>
      <trkpt lat="47.65361" lon="8.8653">
        <ele>397.7</ele>
      </trkpt>
      <trkpt lat="47.65347" lon="8.86582">
        <ele>398.7</ele>
      </trkpt>
      <trkpt lat="47.65317" lon="8.86643">
        <ele>400</ele>
      </trkpt>
      <trkpt lat="47.65314" lon="8.86647">
        <ele>400.1</ele>
      </trkpt>
      <trkpt lat="47.653" lon="8.86646">
        <ele>400.8</ele>
      </trkpt>
      <trkpt lat="47.65294" lon="8.86656">
        <ele>401</ele>
      </trkpt>
      <trkpt lat="47.6529" lon="8.86673">
        <ele>401.2</ele>
      </trkpt>
      <trkpt lat="47.65286" lon="8.86679">
        <ele>401.4</ele>
      </trkpt>
      <trkpt lat="47.65281" lon="8.86686">
        <ele>401.7</ele>
      </trkpt>
      <trkpt lat="47.6527" lon="8.86694">
        <ele>402.2</ele>
      </trkpt>
      <trkpt lat="47.6526" lon="8.86702">
        <ele>402.6</ele>
      </trkpt>
      <trkpt lat="47.65254" lon="8.86716">
        <ele>402.9</ele>
      </trkpt>
      <trkpt lat="47.6524" lon="8.86747">
        <ele>403.1</ele>
      </trkpt>
      <trkpt lat="47.65219" lon="8.86784">
        <ele>402.8</ele>
      </trkpt>
      <trkpt lat="47.65216" lon="8.8679">
        <ele>402.7</ele>
      </trkpt>
      <trkpt lat="47.65204" lon="8.86798">
        <ele>402.7</ele>
      </trkpt>
      <trkpt lat="47.65196" lon="8.86808">
        <ele>402.5</ele>
      </trkpt>
      <trkpt lat="47.65188" lon="8.86823">
        <ele>402.2</ele>
      </trkpt>
      <trkpt lat="47.6518" lon="8.86849">
        <ele>401.9</ele>
      </trkpt>
      <trkpt lat="47.65175" lon="8.86873">
        <ele>401.9</ele>
      </trkpt>
      <trkpt lat="47.65166" lon="8.86897">
        <ele>402</ele>
      </trkpt>
      <trkpt lat="47.6516" lon="8.86908">
        <ele>402.3</ele>
      </trkpt>
      <trkpt lat="47.65143" lon="8.86939">
        <ele>402.3</ele>
      </trkpt>
      <trkpt lat="47.65129" lon="8.87012">
        <ele>400.2</ele>
      </trkpt>
      <trkpt lat="47.65102" lon="8.87135">
        <ele>397</ele>
      </trkpt>
      <trkpt lat="47.65095" lon="8.87177">
        <ele>396.8</ele>
      </trkpt>
      <trkpt lat="47.65095" lon="8.87218">
        <ele>397.7</ele>
      </trkpt>
      <trkpt lat="47.65097" lon="8.87275">
        <ele>398.2</ele>
      </trkpt>
      <trkpt lat="47.65098" lon="8.87412">
        <ele>397.3</ele>
      </trkpt>
      <trkpt lat="47.65092" lon="8.87508">
        <ele>398.7</ele>
      </trkpt>
      <trkpt lat="47.65078" lon="8.87708">
        <ele>397.1</ele>
      </trkpt>
      <trkpt lat="47.65068" lon="8.87847">
        <ele>401.6</ele>
      </trkpt>
      <trkpt lat="47.65062" lon="8.87926">
        <ele>403.3</ele>
      </trkpt>
      <trkpt lat="47.65055" lon="8.87951">
        <ele>402.6</ele>
      </trkpt>
      <trkpt lat="47.65031" lon="8.88033">
        <ele>401.7</ele>
      </trkpt>
      <trkpt lat="47.65002" lon="8.88129">
        <ele>400.3</ele>
      </trkpt>
      <trkpt lat="47.6499" lon="8.88191">
        <ele>399.2</ele>
      </trkpt>
      <trkpt lat="47.64978" lon="8.88238">
        <ele>399.3</ele>
      </trkpt>
      <trkpt lat="47.64962" lon="8.88277">
        <ele>399.8</ele>
      </trkpt>
      <trkpt lat="47.64934" lon="8.88327">
        <ele>400.7</ele>
      </trkpt>
      <trkpt lat="47.6493" lon="8.88332">
        <ele>400.8</ele>
      </trkpt>
      <trkpt lat="47.649" lon="8.88376">
        <ele>401.7</ele>
      </trkpt>
      <trkpt lat="47.64838" lon="8.8847">
        <ele>401.3</ele>
      </trkpt>
      <trkpt lat="47.64723" lon="8.88665">
        <ele>400.7</ele>
      </trkpt>
      <trkpt lat="47.64677" lon="8.88739">
        <ele>398.4</ele>
      </trkpt>
      <trkpt lat="47.64629" lon="8.88797">
        <ele>397.3</ele>
      </trkpt>
      <trkpt lat="47.64565" lon="8.88852">
        <ele>400.2</ele>
      </trkpt>
      <trkpt lat="47.64523" lon="8.88886">
        <ele>400.1</ele>
      </trkpt>
      <trkpt lat="47.64508" lon="8.889">
        <ele>400</ele>
      </trkpt>
      <trkpt lat="47.64477" lon="8.88954">
        <ele>400</ele>
      </trkpt>
      <trkpt lat="47.64462" lon="8.88965">
        <ele>400</ele>
      </trkpt>
      <trkpt lat="47.64449" lon="8.88966">
        <ele>400</ele>
      </trkpt>
      <trkpt lat="47.64403" lon="8.8893">
        <ele>401.1</ele>
      </trkpt>
      <trkpt lat="47.64402" lon="8.88935">
        <ele>401.2</ele>
      </trkpt>
      <trkpt lat="47.64394" lon="8.88936">
        <ele>401.8</ele>
      </trkpt>
      <trkpt lat="47.64381" lon="8.88941">
        <ele>402.8</ele>
      </trkpt>
      <trkpt lat="47.64371" lon="8.88949">
        <ele>403.7</ele>
      </trkpt>
      <trkpt lat="47.64362" lon="8.88956">
        <ele>404.5</ele>
      </trkpt>
      <trkpt lat="47.64356" lon="8.88966">
        <ele>405.3</ele>
      </trkpt>
      <trkpt lat="47.64351" lon="8.88977">
        <ele>405.8</ele>
      </trkpt>
      <trkpt lat="47.64346" lon="8.88994">
        <ele>406.6</ele>
      </trkpt>
      <trkpt lat="47.64322" lon="8.89097">
        <ele>409.2</ele>
      </trkpt>
      <trkpt lat="47.64319" lon="8.89106">
        <ele>409.8</ele>
      </trkpt>
      <trkpt lat="47.64316" lon="8.89115">
        <ele>410.6</ele>
      </trkpt>
      <trkpt lat="47.64292" lon="8.89161">
        <ele>415.3</ele>
      </trkpt>
      <trkpt lat="47.64286" lon="8.89167">
        <ele>416.6</ele>
      </trkpt>
      <trkpt lat="47.64279" lon="8.8917">
        <ele>417.8</ele>
      </trkpt>
      <trkpt lat="47.64271" lon="8.89172">
        <ele>419.3</ele>
      </trkpt>
      <trkpt lat="47.64263" lon="8.89171">
        <ele>420.6</ele>
      </trkpt>
      <trkpt lat="47.64257" lon="8.89169">
        <ele>421.7</ele>
      </trkpt>
      <trkpt lat="47.64251" lon="8.89164">
        <ele>422.7</ele>
      </trkpt>
      <trkpt lat="47.6419" lon="8.89102">
        <ele>433.4</ele>
      </trkpt>
      <trkpt lat="47.64178" lon="8.89087">
        <ele>434.3</ele>
      </trkpt>
      <trkpt lat="47.64174" lon="8.89076">
        <ele>435.1</ele>
      </trkpt>
      <trkpt lat="47.64172" lon="8.89058">
        <ele>436</ele>
      </trkpt>
      <trkpt lat="47.64174" lon="8.89005">
        <ele>437.4</ele>
      </trkpt>
      <trkpt lat="47.6416" lon="8.89063">
        <ele>438.3</ele>
      </trkpt>
      <trkpt lat="47.64156" lon="8.89097">
        <ele>439.7</ele>
      </trkpt>
      <trkpt lat="47.6416" lon="8.89124">
        <ele>441.6</ele>
      </trkpt>
      <trkpt lat="47.64172" lon="8.89159">
        <ele>442</ele>
      </trkpt>
      <trkpt lat="47.64176" lon="8.89183">
        <ele>443.4</ele>
      </trkpt>
      <trkpt lat="47.64176" lon="8.89209">
        <ele>446.3</ele>
      </trkpt>
      <trkpt lat="47.64173" lon="8.89248">
        <ele>451.4</ele>
      </trkpt>
      <trkpt lat="47.64168" lon="8.89274">
        <ele>453.4</ele>
      </trkpt>
      <trkpt lat="47.64161" lon="8.89291">
        <ele>455.3</ele>
      </trkpt>
      <trkpt lat="47.6415" lon="8.89311">
        <ele>459.1</ele>
      </trkpt>
      <trkpt lat="47.64135" lon="8.89346">
        <ele>462.5</ele>
      </trkpt>
      <trkpt lat="47.6413" lon="8.89371">
        <ele>461.3</ele>
      </trkpt>
      <trkpt lat="47.64125" lon="8.89389">
        <ele>460.7</ele>
      </trkpt>
      <trkpt lat="47.64119" lon="8.894">
        <ele>461.8</ele>
      </trkpt>
      <trkpt lat="47.64097" lon="8.89436">
        <ele>467.4</ele>
      </trkpt>
      <trkpt lat="47.64077" lon="8.89463">
        <ele>473.1</ele>
      </trkpt>
      <trkpt lat="47.64063" lon="8.89478">
        <ele>476.2</ele>
      </trkpt>
      <trkpt lat="47.64055" lon="8.89483">
        <ele>477.8</ele>
      </trkpt>
      <trkpt lat="47.64057" lon="8.89499">
        <ele>476.2</ele>
      </trkpt>
      <trkpt lat="47.64057" lon="8.89514">
        <ele>475.9</ele>
      </trkpt>
      <trkpt lat="47.64051" lon="8.89525">
        <ele>477.7</ele>
      </trkpt>
      <trkpt lat="47.64045" lon="8.89533">
        <ele>479.6</ele>
      </trkpt>
      <trkpt lat="47.64047" lon="8.89538">
        <ele>479.2</ele>
      </trkpt>
      <trkpt lat="47.64059" lon="8.8955">
        <ele>475.5</ele>
      </trkpt>
      <trkpt lat="47.64065" lon="8.89559">
        <ele>473.2</ele>
      </trkpt>
      <trkpt lat="47.64069" lon="8.89571">
        <ele>471.9</ele>
      </trkpt>
      <trkpt lat="47.6407" lon="8.89583">
        <ele>471</ele>
      </trkpt>
      <trkpt lat="47.64067" lon="8.89599">
        <ele>472.4</ele>
      </trkpt>
      <trkpt lat="47.64055" lon="8.89607">
        <ele>476.9</ele>
      </trkpt>
      <trkpt lat="47.64039" lon="8.89615">
        <ele>483.9</ele>
      </trkpt>
      <trkpt lat="47.64028" lon="8.89618">
        <ele>488.5</ele>
      </trkpt>
      <trkpt lat="47.64013" lon="8.89621">
        <ele>495</ele>
      </trkpt>
      <trkpt lat="47.64002" lon="8.89618">
        <ele>499.6</ele>
      </trkpt>
      <trkpt lat="47.63991" lon="8.89614">
        <ele>502.2</ele>
      </trkpt>
      <trkpt lat="47.63978" lon="8.89612">
        <ele>504.4</ele>
      </trkpt>
      <trkpt lat="47.63963" lon="8.89609">
        <ele>507.4</ele>
      </trkpt>
      <trkpt lat="47.63955" lon="8.89615">
        <ele>509.6</ele>
      </trkpt>
      <trkpt lat="47.63942" lon="8.89625">
        <ele>513.5</ele>
      </trkpt>
      <trkpt lat="47.63933" lon="8.89641">
        <ele>517.6</ele>
      </trkpt>
      <trkpt lat="47.63927" lon="8.89657">
        <ele>521.1</ele>
      </trkpt>
      <trkpt lat="47.63921" lon="8.89679">
        <ele>525</ele>
      </trkpt>
      <trkpt lat="47.63915" lon="8.89692">
        <ele>527.8</ele>
      </trkpt>
      <trkpt lat="47.63905" lon="8.89707">
        <ele>531</ele>
      </trkpt>
      <trkpt lat="47.63899" lon="8.89724">
        <ele>533.9</ele>
      </trkpt>
      <trkpt lat="47.63889" lon="8.89747">
        <ele>538.1</ele>
      </trkpt>
      <trkpt lat="47.63881" lon="8.89761">
        <ele>538.9</ele>
      </trkpt>
      <trkpt lat="47.63872" lon="8.89782">
        <ele>539.1</ele>
      </trkpt>
      <trkpt lat="47.63866" lon="8.89803">
        <ele>539</ele>
      </trkpt>
      <trkpt lat="47.63857" lon="8.89816">
        <ele>540.4</ele>
      </trkpt>
      <trkpt lat="47.63855" lon="8.89816">
        <ele>541</ele>
      </trkpt>
      <trkpt lat="47.63846" lon="8.89823">
        <ele>543.2</ele>
      </trkpt>
      <trkpt lat="47.63837" lon="8.89831">
        <ele>545.2</ele>
      </trkpt>
      <trkpt lat="47.6383" lon="8.89843">
        <ele>545.6</ele>
      </trkpt>
      <trkpt lat="47.6382" lon="8.89862">
        <ele>545.4</ele>
      </trkpt>
      <trkpt lat="47.6381" lon="8.89873">
        <ele>546.4</ele>
      </trkpt>
      <trkpt lat="47.63802" lon="8.89877">
        <ele>547.5</ele>
      </trkpt>
      <trkpt lat="47.63787" lon="8.89887">
        <ele>550</ele>
      </trkpt>
      <trkpt lat="47.63781" lon="8.89897">
        <ele>551.1</ele>
      </trkpt>
      <trkpt lat="47.63777" lon="8.89908">
        <ele>551.6</ele>
      </trkpt>
      <trkpt lat="47.63772" lon="8.89915">
        <ele>552.6</ele>
      </trkpt>
      <trkpt lat="47.63772" lon="8.89917">
        <ele>552.8</ele>
      </trkpt>
      <trkpt lat="47.63765" lon="8.89917">
        <ele>554.3</ele>
      </trkpt>
      <trkpt lat="47.6376" lon="8.89917">
        <ele>555.7</ele>
      </trkpt>
      <trkpt lat="47.63763" lon="8.89935">
        <ele>555.5</ele>
      </trkpt>
      <trkpt lat="47.63758" lon="8.89961">
        <ele>557.4</ele>
      </trkpt>
      <trkpt lat="47.63749" lon="8.89989">
        <ele>560.8</ele>
      </trkpt>
      <trkpt lat="47.63734" lon="8.90043">
        <ele>565.2</ele>
      </trkpt>
      <trkpt lat="47.6371" lon="8.90127">
        <ele>571</ele>
      </trkpt>
      <trkpt lat="47.63699" lon="8.90151">
        <ele>572.9</ele>
      </trkpt>
      <trkpt lat="47.63689" lon="8.90171">
        <ele>574.5</ele>
      </trkpt>
      <trkpt lat="47.63657" lon="8.90237">
        <ele>577.6</ele>
      </trkpt>
      <trkpt lat="47.63613" lon="8.90327">
        <ele>581</ele>
      </trkpt>
      <trkpt lat="47.636" lon="8.90345">
        <ele>582.9</ele>
      </trkpt>
      <trkpt lat="47.63573" lon="8.90376">
        <ele>586.9</ele>
      </trkpt>
      <trkpt lat="47.63559" lon="8.90393">
        <ele>587.4</ele>
      </trkpt>
      <trkpt lat="47.63562" lon="8.90401">
        <ele>587.8</ele>
      </trkpt>
      <trkpt lat="47.63581" lon="8.90446">
        <ele>591.3</ele>
      </trkpt>
      <trkpt lat="47.63595" lon="8.90501">
        <ele>593</ele>
      </trkpt>
      <trkpt lat="47.63611" lon="8.90578">
        <ele>588.7</ele>
      </trkpt>
      <trkpt lat="47.63622" lon="8.90702">
        <ele>582.8</ele>
      </trkpt>
      <trkpt lat="47.63604" lon="8.90724">
        <ele>583.5</ele>
      </trkpt>
      <trkpt lat="47.6358" lon="8.90758">
        <ele>583.5</ele>
      </trkpt>
      <trkpt lat="47.63539" lon="8.90811">
        <ele>580.7</ele>
      </trkpt>
      <trkpt lat="47.63497" lon="8.90867">
        <ele>578.6</ele>
      </trkpt>
      <trkpt lat="47.63516" lon="8.90892">
        <ele>578.2</ele>
      </trkpt>
      <trkpt lat="47.6356" lon="8.90948">
        <ele>575.9</ele>
      </trkpt>
      <trkpt lat="47.63589" lon="8.90986">
        <ele>574.5</ele>
      </trkpt>
      <trkpt lat="47.63619" lon="8.91017">
        <ele>570.1</ele>
      </trkpt>
      <trkpt lat="47.63652" lon="8.91052">
        <ele>564.8</ele>
      </trkpt>
      <trkpt lat="47.63657" lon="8.91055">
        <ele>564.3</ele>
      </trkpt>
      <trkpt lat="47.63661" lon="8.91056">
        <ele>564</ele>
      </trkpt>
      <trkpt lat="47.63666" lon="8.91055">
        <ele>564</ele>
      </trkpt>
      <trkpt lat="47.6367" lon="8.91053">
        <ele>563.5</ele>
      </trkpt>
      <trkpt lat="47.63675" lon="8.91051">
        <ele>562.8</ele>
      </trkpt>
      <trkpt lat="47.63679" lon="8.91046">
        <ele>562.2</ele>
      </trkpt>
      <trkpt lat="47.63685" lon="8.91037">
        <ele>561.8</ele>
      </trkpt>
      <trkpt lat="47.6369" lon="8.91024">
        <ele>561.6</ele>
      </trkpt>
      <trkpt lat="47.63699" lon="8.91">
        <ele>561</ele>
      </trkpt>
      <trkpt lat="47.63715" lon="8.90959">
        <ele>559.5</ele>
      </trkpt>
      <trkpt lat="47.63728" lon="8.90932">
        <ele>558.5</ele>
      </trkpt>
      <trkpt lat="47.63736" lon="8.90923">
        <ele>557.4</ele>
      </trkpt>
      <trkpt lat="47.63742" lon="8.9092">
        <ele>556.3</ele>
      </trkpt>
      <trkpt lat="47.63751" lon="8.90919">
        <ele>554.7</ele>
      </trkpt>
      <trkpt lat="47.63759" lon="8.90922">
        <ele>553.1</ele>
      </trkpt>
      <trkpt lat="47.63769" lon="8.9093">
        <ele>550.9</ele>
      </trkpt>
      <trkpt lat="47.63776" lon="8.90937">
        <ele>549.4</ele>
      </trkpt>
      <trkpt lat="47.63781" lon="8.90943">
        <ele>548.3</ele>
      </trkpt>
      <trkpt lat="47.63787" lon="8.9095">
        <ele>547</ele>
      </trkpt>
      <trkpt lat="47.63792" lon="8.90959">
        <ele>545.9</ele>
      </trkpt>
      <trkpt lat="47.63799" lon="8.90976">
        <ele>544.2</ele>
      </trkpt>
      <trkpt lat="47.63805" lon="8.91013">
        <ele>541.2</ele>
      </trkpt>
      <trkpt lat="47.6381" lon="8.91041">
        <ele>537.9</ele>
      </trkpt>
      <trkpt lat="47.63812" lon="8.91064">
        <ele>535.3</ele>
      </trkpt>
      <trkpt lat="47.63808" lon="8.91085">
        <ele>533.8</ele>
      </trkpt>
      <trkpt lat="47.63801" lon="8.91105">
        <ele>532.1</ele>
      </trkpt>
      <trkpt lat="47.63787" lon="8.91126">
        <ele>531.9</ele>
      </trkpt>
      <trkpt lat="47.63772" lon="8.91158">
        <ele>531.2</ele>
      </trkpt>
      <trkpt lat="47.63771" lon="8.9118">
        <ele>529.7</ele>
      </trkpt>
      <trkpt lat="47.63774" lon="8.91202">
        <ele>527.7</ele>
      </trkpt>
      <trkpt lat="47.63787" lon="8.91236">
        <ele>520.9</ele>
      </trkpt>
      <trkpt lat="47.63794" lon="8.91253">
        <ele>517.2</ele>
      </trkpt>
      <trkpt lat="47.6381" lon="8.91319">
        <ele>513.9</ele>
      </trkpt>
      <trkpt lat="47.63821" lon="8.91349">
        <ele>509.1</ele>
      </trkpt>
      <trkpt lat="47.63834" lon="8.91372">
        <ele>503.3</ele>
      </trkpt>
      <trkpt lat="47.63848" lon="8.91398">
        <ele>499.3</ele>
      </trkpt>
      <trkpt lat="47.63859" lon="8.91404">
        <ele>495.8</ele>
      </trkpt>
      <trkpt lat="47.63877" lon="8.91398">
        <ele>490.4</ele>
      </trkpt>
      <trkpt lat="47.63884" lon="8.91391">
        <ele>487.9</ele>
      </trkpt>
      <trkpt lat="47.63926" lon="8.91373">
        <ele>476.7</ele>
      </trkpt>
      <trkpt lat="47.63938" lon="8.91375">
        <ele>474.8</ele>
      </trkpt>
      <trkpt lat="47.63978" lon="8.91391">
        <ele>469.2</ele>
      </trkpt>
      <trkpt lat="47.6399" lon="8.91396">
        <ele>467.7</ele>
      </trkpt>
      <trkpt lat="47.6401" lon="8.91407">
        <ele>465.1</ele>
      </trkpt>
      <trkpt lat="47.6405" lon="8.91416">
        <ele>459.2</ele>
      </trkpt>
      <trkpt lat="47.64089" lon="8.91423">
        <ele>452.6</ele>
      </trkpt>
      <trkpt lat="47.64101" lon="8.91423">
        <ele>450</ele>
      </trkpt>
      <trkpt lat="47.64106" lon="8.91409">
        <ele>448.9</ele>
      </trkpt>
      <trkpt lat="47.64107" lon="8.91384">
        <ele>447.5</ele>
      </trkpt>
      <trkpt lat="47.64107" lon="8.91357">
        <ele>446.5</ele>
      </trkpt>
      <trkpt lat="47.64109" lon="8.91348">
        <ele>445.8</ele>
      </trkpt>
      <trkpt lat="47.64112" lon="8.91342">
        <ele>444.8</ele>
      </trkpt>
      <trkpt lat="47.64124" lon="8.91345">
        <ele>442.7</ele>
      </trkpt>
      <trkpt lat="47.64139" lon="8.91358">
        <ele>440</ele>
      </trkpt>
      <trkpt lat="47.64163" lon="8.91364">
        <ele>435.5</ele>
      </trkpt>
      <trkpt lat="47.64203" lon="8.91361">
        <ele>429.4</ele>
      </trkpt>
      <trkpt lat="47.6422" lon="8.91359">
        <ele>426.9</ele>
      </trkpt>
      <trkpt lat="47.6424" lon="8.91356">
        <ele>424</ele>
      </trkpt>
      <trkpt lat="47.64255" lon="8.91358">
        <ele>422</ele>
      </trkpt>
      <trkpt lat="47.64266" lon="8.9136">
        <ele>420.7</ele>
      </trkpt>
      <trkpt lat="47.64286" lon="8.91373">
        <ele>418.7</ele>
      </trkpt>
      <trkpt lat="47.64297" lon="8.91385">
        <ele>417.6</ele>
      </trkpt>
      <trkpt lat="47.64303" lon="8.91404">
        <ele>417.3</ele>
      </trkpt>
      <trkpt lat="47.64305" lon="8.91404">
        <ele>417.1</ele>
      </trkpt>
      <trkpt lat="47.64316" lon="8.91412">
        <ele>416</ele>
      </trkpt>
      <trkpt lat="47.64325" lon="8.91423">
        <ele>415.2</ele>
      </trkpt>
      <trkpt lat="47.64342" lon="8.91445">
        <ele>414.3</ele>
      </trkpt>
      <trkpt lat="47.6435" lon="8.91456">
        <ele>414</ele>
      </trkpt>
      <trkpt lat="47.64355" lon="8.91468">
        <ele>414</ele>
      </trkpt>
      <trkpt lat="47.6437" lon="8.91503">
        <ele>413.8</ele>
      </trkpt>
      <trkpt lat="47.64376" lon="8.91521">
        <ele>413.6</ele>
      </trkpt>
      <trkpt lat="47.64382" lon="8.91531">
        <ele>413.3</ele>
      </trkpt>
      <trkpt lat="47.64394" lon="8.91536">
        <ele>412.9</ele>
      </trkpt>
      <trkpt lat="47.64411" lon="8.91551">
        <ele>412.5</ele>
      </trkpt>
      <trkpt lat="47.64418" lon="8.91555">
        <ele>412.3</ele>
      </trkpt>
      <trkpt lat="47.6444" lon="8.91552">
        <ele>411.6</ele>
      </trkpt>
      <trkpt lat="47.64445" lon="8.91551">
        <ele>411.5</ele>
      </trkpt>
      <trkpt lat="47.64443" lon="8.91647">
        <ele>413.1</ele>
      </trkpt>
      <trkpt lat="47.64386" lon="8.9166">
        <ele>416.3</ele>
      </trkpt>
      <trkpt lat="47.64356" lon="8.91667">
        <ele>417.9</ele>
      </trkpt>
      <trkpt lat="47.64318" lon="8.91677">
        <ele>421</ele>
      </trkpt>
      <trkpt lat="47.64313" lon="8.91688">
        <ele>422.6</ele>
      </trkpt>
      <trkpt lat="47.64308" lon="8.91697">
        <ele>424.1</ele>
      </trkpt>
      <trkpt lat="47.64313" lon="8.91709">
        <ele>424.9</ele>
      </trkpt>
      <trkpt lat="47.64315" lon="8.91716">
        <ele>425.4</ele>
      </trkpt>
      <trkpt lat="47.64323" lon="8.91737">
        <ele>426.5</ele>
      </trkpt>
      <trkpt lat="47.64332" lon="8.91765">
        <ele>426.5</ele>
      </trkpt>
      <trkpt lat="47.64337" lon="8.91795">
        <ele>426</ele>
      </trkpt>
      <trkpt lat="47.64344" lon="8.91817">
        <ele>425.3</ele>
      </trkpt>
      <trkpt lat="47.64344" lon="8.91825">
        <ele>425.3</ele>
      </trkpt>
      <trkpt lat="47.64354" lon="8.91876">
        <ele>425.5</ele>
      </trkpt>
      <trkpt lat="47.64358" lon="8.91906">
        <ele>425.9</ele>
      </trkpt>
      <trkpt lat="47.64363" lon="8.91957">
        <ele>427.4</ele>
      </trkpt>
      <trkpt lat="47.64369" lon="8.91982">
        <ele>427.6</ele>
      </trkpt>
      <trkpt lat="47.64394" lon="8.92053">
        <ele>426.2</ele>
      </trkpt>
      <trkpt lat="47.64394" lon="8.92069">
        <ele>426.8</ele>
      </trkpt>
      <trkpt lat="47.64389" lon="8.92072">
        <ele>427.8</ele>
      </trkpt>
      <trkpt lat="47.6436" lon="8.92088">
        <ele>434.1</ele>
      </trkpt>
      <trkpt lat="47.64353" lon="8.92099">
        <ele>436.4</ele>
      </trkpt>
      <trkpt lat="47.64343" lon="8.92108">
        <ele>439.1</ele>
      </trkpt>
      <trkpt lat="47.64329" lon="8.92111">
        <ele>442.1</ele>
      </trkpt>
      <trkpt lat="47.64315" lon="8.92106">
        <ele>444.5</ele>
      </trkpt>
      <trkpt lat="47.64298" lon="8.92084">
        <ele>446.7</ele>
      </trkpt>
      <trkpt lat="47.64291" lon="8.92078">
        <ele>447.9</ele>
      </trkpt>
      <trkpt lat="47.64283" lon="8.92075">
        <ele>449.5</ele>
      </trkpt>
      <trkpt lat="47.64274" lon="8.92076">
        <ele>451.5</ele>
      </trkpt>
      <trkpt lat="47.64268" lon="8.92082">
        <ele>453.1</ele>
      </trkpt>
      <trkpt lat="47.64264" lon="8.92093">
        <ele>454.3</ele>
      </trkpt>
      <trkpt lat="47.64259" lon="8.92128">
        <ele>456.4</ele>
      </trkpt>
      <trkpt lat="47.6426" lon="8.92148">
        <ele>456.9</ele>
      </trkpt>
      <trkpt lat="47.64263" lon="8.9219">
        <ele>462</ele>
      </trkpt>
      <trkpt lat="47.64269" lon="8.92189">
        <ele>460.7</ele>
      </trkpt>
      <trkpt lat="47.64269" lon="8.92182">
        <ele>459.2</ele>
      </trkpt>
      <trkpt lat="47.64274" lon="8.92183">
        <ele>458.6</ele>
      </trkpt>
      <trkpt lat="47.64277" lon="8.92187">
        <ele>458.9</ele>
      </trkpt>
      <trkpt lat="47.64282" lon="8.92202">
        <ele>460.9</ele>
      </trkpt>
      <trkpt lat="47.64288" lon="8.92223">
        <ele>463.7</ele>
      </trkpt>
      <trkpt lat="47.64298" lon="8.92254">
        <ele>467.4</ele>
      </trkpt>
      <trkpt lat="47.64323" lon="8.923">
        <ele>473</ele>
      </trkpt>
      <trkpt lat="47.64343" lon="8.92342">
        <ele>476.5</ele>
      </trkpt>
      <trkpt lat="47.64364" lon="8.92397">
        <ele>472.2</ele>
      </trkpt>
      <trkpt lat="47.64373" lon="8.92446">
        <ele>472.2</ele>
      </trkpt>
      <trkpt lat="47.6437" lon="8.92468">
        <ele>475.6</ele>
      </trkpt>
      <trkpt lat="47.64371" lon="8.92482">
        <ele>476.2</ele>
      </trkpt>
      <trkpt lat="47.64377" lon="8.92492">
        <ele>474</ele>
      </trkpt>
      <trkpt lat="47.64401" lon="8.92502">
        <ele>463.8</ele>
      </trkpt>
      <trkpt lat="47.64403" lon="8.92507">
        <ele>463.4</ele>
      </trkpt>
      <trkpt lat="47.64397" lon="8.92534">
        <ele>468.9</ele>
      </trkpt>
      <trkpt lat="47.64391" lon="8.92555">
        <ele>473.6</ele>
      </trkpt>
      <trkpt lat="47.64381" lon="8.92576">
        <ele>479.8</ele>
      </trkpt>
      <trkpt lat="47.64378" lon="8.92588">
        <ele>481.4</ele>
      </trkpt>
      <trkpt lat="47.64376" lon="8.92612">
        <ele>482.7</ele>
      </trkpt>
      <trkpt lat="47.64368" lon="8.92644">
        <ele>486</ele>
      </trkpt>
      <trkpt lat="47.64376" lon="8.92665">
        <ele>483.7</ele>
      </trkpt>
      <trkpt lat="47.64388" lon="8.92682">
        <ele>482.1</ele>
      </trkpt>
      <trkpt lat="47.64396" lon="8.92696">
        <ele>481.3</ele>
      </trkpt>
      <trkpt lat="47.64407" lon="8.92694">
        <ele>477.8</ele>
      </trkpt>
      <trkpt lat="47.64419" lon="8.92699">
        <ele>474.9</ele>
      </trkpt>
      <trkpt lat="47.64425" lon="8.92736">
        <ele>477.9</ele>
      </trkpt>
      <trkpt lat="47.64435" lon="8.92757">
        <ele>477.3</ele>
      </trkpt>
      <trkpt lat="47.64438" lon="8.92766">
        <ele>477.5</ele>
      </trkpt>
      <trkpt lat="47.64439" lon="8.92774">
        <ele>478.8</ele>
      </trkpt>
      <trkpt lat="47.64431" lon="8.92795">
        <ele>486.4</ele>
      </trkpt>
      <trkpt lat="47.64425" lon="8.92808">
        <ele>491.2</ele>
      </trkpt>
      <trkpt lat="47.64424" lon="8.92821">
        <ele>494.3</ele>
      </trkpt>
      <trkpt lat="47.6443" lon="8.92841">
        <ele>495.6</ele>
      </trkpt>
      <trkpt lat="47.64429" lon="8.92854">
        <ele>498.3</ele>
      </trkpt>
      <trkpt lat="47.64444" lon="8.92893">
        <ele>499.8</ele>
      </trkpt>
      <trkpt lat="47.64445" lon="8.92907">
        <ele>502</ele>
      </trkpt>
      <trkpt lat="47.64451" lon="8.92939">
        <ele>504.9</ele>
      </trkpt>
      <trkpt lat="47.64457" lon="8.92941">
        <ele>503.3</ele>
      </trkpt>
      <trkpt lat="47.64473" lon="8.92949">
        <ele>499.3</ele>
      </trkpt>
      <trkpt lat="47.6448" lon="8.92956">
        <ele>498.2</ele>
      </trkpt>
      <trkpt lat="47.64492" lon="8.92986">
        <ele>498.6</ele>
      </trkpt>
      <trkpt lat="47.64498" lon="8.93018">
        <ele>500.2</ele>
      </trkpt>
      <trkpt lat="47.64497" lon="8.93038">
        <ele>502.2</ele>
      </trkpt>
      <trkpt lat="47.64504" lon="8.93046">
        <ele>501.1</ele>
      </trkpt>
      <trkpt lat="47.64543" lon="8.93045">
        <ele>492</ele>
      </trkpt>
      <trkpt lat="47.64562" lon="8.93043">
        <ele>487.1</ele>
      </trkpt>
      <trkpt lat="47.64569" lon="8.93048">
        <ele>486.9</ele>
      </trkpt>
      <trkpt lat="47.64574" lon="8.93064">
        <ele>489.7</ele>
      </trkpt>
      <trkpt lat="47.64584" lon="8.93107">
        <ele>495.1</ele>
      </trkpt>
      <trkpt lat="47.64594" lon="8.93156">
        <ele>495.6</ele>
      </trkpt>
      <trkpt lat="47.64594" lon="8.93184">
        <ele>497.9</ele>
      </trkpt>
      <trkpt lat="47.64587" lon="8.93201">
        <ele>501</ele>
      </trkpt>
      <trkpt lat="47.64586" lon="8.93211">
        <ele>501.7</ele>
      </trkpt>
      <trkpt lat="47.64588" lon="8.93223">
        <ele>501.2</ele>
      </trkpt>
      <trkpt lat="47.64595" lon="8.93231">
        <ele>499.7</ele>
      </trkpt>
      <trkpt lat="47.64605" lon="8.93239">
        <ele>497.5</ele>
      </trkpt>
      <trkpt lat="47.64615" lon="8.93244">
        <ele>495.4</ele>
      </trkpt>
      <trkpt lat="47.64622" lon="8.93248">
        <ele>494.5</ele>
      </trkpt>
      <trkpt lat="47.64636" lon="8.93251">
        <ele>491.9</ele>
      </trkpt>
      <trkpt lat="47.64647" lon="8.93249">
        <ele>489.1</ele>
      </trkpt>
      <trkpt lat="47.64654" lon="8.93252">
        <ele>488.1</ele>
      </trkpt>
      <trkpt lat="47.64664" lon="8.93272">
        <ele>490.1</ele>
      </trkpt>
      <trkpt lat="47.64678" lon="8.93315">
        <ele>492.3</ele>
      </trkpt>
      <trkpt lat="47.64685" lon="8.93337">
        <ele>492.6</ele>
      </trkpt>
      <trkpt lat="47.64692" lon="8.9336">
        <ele>489.2</ele>
      </trkpt>
      <trkpt lat="47.64693" lon="8.93373">
        <ele>489.3</ele>
      </trkpt>
      <trkpt lat="47.6468" lon="8.93398">
        <ele>495.3</ele>
      </trkpt>
      <trkpt lat="47.64671" lon="8.93418">
        <ele>499.1</ele>
      </trkpt>
      <trkpt lat="47.64662" lon="8.93439">
        <ele>499.4</ele>
      </trkpt>
      <trkpt lat="47.64649" lon="8.93465">
        <ele>498.8</ele>
      </trkpt>
      <trkpt lat="47.64636" lon="8.93502">
        <ele>496.2</ele>
      </trkpt>
      <trkpt lat="47.64617" lon="8.93544">
        <ele>498.5</ele>
      </trkpt>
      <trkpt lat="47.64586" lon="8.93563">
        <ele>499.3</ele>
      </trkpt>
      <trkpt lat="47.64576" lon="8.93584">
        <ele>498.5</ele>
      </trkpt>
      <trkpt lat="47.6458" lon="8.93613">
        <ele>502.2</ele>
      </trkpt>
      <trkpt lat="47.64582" lon="8.93621">
        <ele>503.1</ele>
      </trkpt>
      <trkpt lat="47.64583" lon="8.93633">
        <ele>504.8</ele>
      </trkpt>
      <trkpt lat="47.64586" lon="8.93636">
        <ele>505.4</ele>
      </trkpt>
      <trkpt lat="47.64594" lon="8.93638">
        <ele>506.2</ele>
      </trkpt>
      <trkpt lat="47.64594" lon="8.93645">
        <ele>507.4</ele>
      </trkpt>
      <trkpt lat="47.64606" lon="8.93652">
        <ele>509.8</ele>
      </trkpt>
      <trkpt lat="47.64615" lon="8.93648">
        <ele>509.6</ele>
      </trkpt>
      <trkpt lat="47.64624" lon="8.93648">
        <ele>510.5</ele>
      </trkpt>
      <trkpt lat="47.64634" lon="8.9365">
        <ele>511.8</ele>
      </trkpt>
      <trkpt lat="47.64642" lon="8.93649">
        <ele>512.2</ele>
      </trkpt>
      <trkpt lat="47.64657" lon="8.93633">
        <ele>509.5</ele>
      </trkpt>
      <trkpt lat="47.6467" lon="8.93635">
        <ele>510.4</ele>
      </trkpt>
      <trkpt lat="47.64703" lon="8.93622">
        <ele>505.8</ele>
      </trkpt>
      <trkpt lat="47.64716" lon="8.93611">
        <ele>502.2</ele>
      </trkpt>
      <trkpt lat="47.64736" lon="8.93599">
        <ele>498</ele>
      </trkpt>
      <trkpt lat="47.64743" lon="8.93597">
        <ele>497.1</ele>
      </trkpt>
      <trkpt lat="47.64752" lon="8.93601">
        <ele>497.2</ele>
      </trkpt>
      <trkpt lat="47.64758" lon="8.93608">
        <ele>496.7</ele>
      </trkpt>
      <trkpt lat="47.64763" lon="8.93624">
        <ele>498.4</ele>
      </trkpt>
      <trkpt lat="47.64767" lon="8.93644">
        <ele>501.5</ele>
      </trkpt>
      <trkpt lat="47.64775" lon="8.93666">
        <ele>501.7</ele>
      </trkpt>
      <trkpt lat="47.64779" lon="8.93682">
        <ele>501.2</ele>
      </trkpt>
      <trkpt lat="47.6478" lon="8.93703">
        <ele>502.3</ele>
      </trkpt>
      <trkpt lat="47.64776" lon="8.93718">
        <ele>505.2</ele>
      </trkpt>
      <trkpt lat="47.64761" lon="8.93756">
        <ele>515.2</ele>
      </trkpt>
      <trkpt lat="47.64753" lon="8.93787">
        <ele>516.8</ele>
      </trkpt>
      <trkpt lat="47.64751" lon="8.93815">
        <ele>515.1</ele>
      </trkpt>
      <trkpt lat="47.6475" lon="8.93868">
        <ele>513.9</ele>
      </trkpt>
      <trkpt lat="47.64747" lon="8.93887">
        <ele>515.5</ele>
      </trkpt>
      <trkpt lat="47.64739" lon="8.93907">
        <ele>519</ele>
      </trkpt>
      <trkpt lat="47.64735" lon="8.93928">
        <ele>522.8</ele>
      </trkpt>
      <trkpt lat="47.64737" lon="8.93951">
        <ele>524.9</ele>
      </trkpt>
      <trkpt lat="47.64741" lon="8.9397">
        <ele>525.7</ele>
      </trkpt>
      <trkpt lat="47.64749" lon="8.93984">
        <ele>525</ele>
      </trkpt>
      <trkpt lat="47.64759" lon="8.93996">
        <ele>525.8</ele>
      </trkpt>
      <trkpt lat="47.6477" lon="8.94002">
        <ele>526</ele>
      </trkpt>
      <trkpt lat="47.6478" lon="8.94">
        <ele>525.3</ele>
      </trkpt>
      <trkpt lat="47.64799" lon="8.93991">
        <ele>522</ele>
      </trkpt>
      <trkpt lat="47.64806" lon="8.93975">
        <ele>518.2</ele>
      </trkpt>
      <trkpt lat="47.64816" lon="8.93956">
        <ele>512.9</ele>
      </trkpt>
      <trkpt lat="47.6484" lon="8.93935">
        <ele>505.6</ele>
      </trkpt>
      <trkpt lat="47.64856" lon="8.93925">
        <ele>504</ele>
      </trkpt>
      <trkpt lat="47.64863" lon="8.93925">
        <ele>504.2</ele>
      </trkpt>
      <trkpt lat="47.64871" lon="8.93944">
        <ele>507.3</ele>
      </trkpt>
      <trkpt lat="47.64876" lon="8.93962">
        <ele>509.8</ele>
      </trkpt>
      <trkpt lat="47.64875" lon="8.93972">
        <ele>511</ele>
      </trkpt>
      <trkpt lat="47.64879" lon="8.9399">
        <ele>513</ele>
      </trkpt>
      <trkpt lat="47.64885" lon="8.93973">
        <ele>510.3</ele>
      </trkpt>
      <trkpt lat="47.64888" lon="8.9397">
        <ele>509.8</ele>
      </trkpt>
      <trkpt lat="47.64896" lon="8.93969">
        <ele>509</ele>
      </trkpt>
      <trkpt lat="47.64899" lon="8.93984">
        <ele>509.9</ele>
      </trkpt>
      <trkpt lat="47.64899" lon="8.93994">
        <ele>510.5</ele>
      </trkpt>
      <trkpt lat="47.64901" lon="8.94001">
        <ele>510.5</ele>
      </trkpt>
      <trkpt lat="47.64901" lon="8.94008">
        <ele>509.9</ele>
      </trkpt>
      <trkpt lat="47.64896" lon="8.94026">
        <ele>508.9</ele>
      </trkpt>
      <trkpt lat="47.6489" lon="8.94039">
        <ele>509.1</ele>
      </trkpt>
      <trkpt lat="47.64877" lon="8.94046">
        <ele>511.2</ele>
      </trkpt>
      <trkpt lat="47.6487" lon="8.94054">
        <ele>512.3</ele>
      </trkpt>
      <trkpt lat="47.64861" lon="8.94061">
        <ele>514.1</ele>
      </trkpt>
      <trkpt lat="47.64854" lon="8.94072">
        <ele>515.2</ele>
      </trkpt>
      <trkpt lat="47.64849" lon="8.94084">
        <ele>515.9</ele>
      </trkpt>
      <trkpt lat="47.64847" lon="8.94092">
        <ele>515.8</ele>
      </trkpt>
      <trkpt lat="47.64842" lon="8.94107">
        <ele>516</ele>
      </trkpt>
      <trkpt lat="47.64822" lon="8.94141">
        <ele>518.2</ele>
      </trkpt>
      <trkpt lat="47.64821" lon="8.94147">
        <ele>518</ele>
      </trkpt>
      <trkpt lat="47.64821" lon="8.94153">
        <ele>517.4</ele>
      </trkpt>
      <trkpt lat="47.64822" lon="8.94158">
        <ele>516.7</ele>
      </trkpt>
      <trkpt lat="47.64836" lon="8.94177">
        <ele>513.3</ele>
      </trkpt>
      <trkpt lat="47.64843" lon="8.9418">
        <ele>512.4</ele>
      </trkpt>
      <trkpt lat="47.64854" lon="8.94179">
        <ele>510.5</ele>
      </trkpt>
      <trkpt lat="47.64858" lon="8.94182">
        <ele>510</ele>
      </trkpt>
      <trkpt lat="47.64865" lon="8.94184">
        <ele>509.2</ele>
      </trkpt>
      <trkpt lat="47.64867" lon="8.94196">
        <ele>510.3</ele>
      </trkpt>
      <trkpt lat="47.64869" lon="8.94203">
        <ele>510.9</ele>
      </trkpt>
      <trkpt lat="47.6487" lon="8.94212">
        <ele>511.9</ele>
      </trkpt>
      <trkpt lat="47.64868" lon="8.94226">
        <ele>514</ele>
      </trkpt>
      <trkpt lat="47.6487" lon="8.94229">
        <ele>514.2</ele>
      </trkpt>
      <trkpt lat="47.64877" lon="8.94232">
        <ele>513.8</ele>
      </trkpt>
      <trkpt lat="47.64888" lon="8.94229">
        <ele>512.1</ele>
      </trkpt>
      <trkpt lat="47.64901" lon="8.9422">
        <ele>509.2</ele>
      </trkpt>
      <trkpt lat="47.64917" lon="8.94216">
        <ele>506.4</ele>
      </trkpt>
      <trkpt lat="47.64925" lon="8.94214">
        <ele>503.9</ele>
      </trkpt>
      <trkpt lat="47.64929" lon="8.94214">
        <ele>502.7</ele>
      </trkpt>
      <trkpt lat="47.64939" lon="8.94212">
        <ele>499.7</ele>
      </trkpt>
      <trkpt lat="47.64946" lon="8.94215">
        <ele>498.4</ele>
      </trkpt>
      <trkpt lat="47.64949" lon="8.9422">
        <ele>498.5</ele>
      </trkpt>
      <trkpt lat="47.6495" lon="8.94246">
        <ele>502.8</ele>
      </trkpt>
      <trkpt lat="47.6495" lon="8.94258">
        <ele>504.6</ele>
      </trkpt>
      <trkpt lat="47.64946" lon="8.94272">
        <ele>507.4</ele>
      </trkpt>
      <trkpt lat="47.64946" lon="8.94281">
        <ele>508.6</ele>
      </trkpt>
      <trkpt lat="47.64947" lon="8.94287">
        <ele>509.1</ele>
      </trkpt>
      <trkpt lat="47.64949" lon="8.94293">
        <ele>509.2</ele>
      </trkpt>
      <trkpt lat="47.64962" lon="8.94309">
        <ele>507</ele>
      </trkpt>
      <trkpt lat="47.64973" lon="8.94328">
        <ele>504.8</ele>
      </trkpt>
      <trkpt lat="47.64974" lon="8.94335">
        <ele>505</ele>
      </trkpt>
      <trkpt lat="47.64976" lon="8.94348">
        <ele>506.3</ele>
      </trkpt>
      <trkpt lat="47.64975" lon="8.94355">
        <ele>507.4</ele>
      </trkpt>
      <trkpt lat="47.64974" lon="8.94371">
        <ele>510</ele>
      </trkpt>
      <trkpt lat="47.64976" lon="8.94387">
        <ele>511.3</ele>
      </trkpt>
      <trkpt lat="47.64985" lon="8.94409">
        <ele>510.7</ele>
      </trkpt>
      <trkpt lat="47.6499" lon="8.9442">
        <ele>510.3</ele>
      </trkpt>
      <trkpt lat="47.64999" lon="8.94434">
        <ele>507.9</ele>
      </trkpt>
      <trkpt lat="47.65008" lon="8.9445">
        <ele>504.4</ele>
      </trkpt>
      <trkpt lat="47.65012" lon="8.94464">
        <ele>502.8</ele>
      </trkpt>
      <trkpt lat="47.65018" lon="8.94495">
        <ele>501.3</ele>
      </trkpt>
      <trkpt lat="47.65023" lon="8.94539">
        <ele>499</ele>
      </trkpt>
      <trkpt lat="47.6504" lon="8.94591">
        <ele>490.4</ele>
      </trkpt>
      <trkpt lat="47.65046" lon="8.94613">
        <ele>488.3</ele>
      </trkpt>
      <trkpt lat="47.65049" lon="8.94637">
        <ele>488.7</ele>
      </trkpt>
      <trkpt lat="47.6505" lon="8.94645">
        <ele>488.5</ele>
      </trkpt>
      <trkpt lat="47.65051" lon="8.94646">
        <ele>488.5</ele>
      </trkpt>
      <trkpt lat="47.65053" lon="8.9465">
        <ele>487.4</ele>
      </trkpt>
      <trkpt lat="47.65056" lon="8.94654">
        <ele>486.7</ele>
      </trkpt>
      <trkpt lat="47.65056" lon="8.94664">
        <ele>487.4</ele>
      </trkpt>
      <trkpt lat="47.65058" lon="8.94672">
        <ele>486.7</ele>
      </trkpt>
      <trkpt lat="47.65061" lon="8.94681">
        <ele>485.5</ele>
      </trkpt>
      <trkpt lat="47.65067" lon="8.9469">
        <ele>482.9</ele>
      </trkpt>
      <trkpt lat="47.65069" lon="8.94698">
        <ele>482.6</ele>
      </trkpt>
      <trkpt lat="47.65068" lon="8.94704">
        <ele>482.8</ele>
      </trkpt>
      <trkpt lat="47.65071" lon="8.94711">
        <ele>482.2</ele>
      </trkpt>
      <trkpt lat="47.6507" lon="8.9472">
        <ele>482.7</ele>
      </trkpt>
      <trkpt lat="47.65068" lon="8.9473">
        <ele>483.6</ele>
      </trkpt>
      <trkpt lat="47.6507" lon="8.94735">
        <ele>483.2</ele>
      </trkpt>
      <trkpt lat="47.65074" lon="8.94741">
        <ele>481.9</ele>
      </trkpt>
      <trkpt lat="47.65079" lon="8.9475">
        <ele>480.6</ele>
      </trkpt>
      <trkpt lat="47.65088" lon="8.94762">
        <ele>475.9</ele>
      </trkpt>
      <trkpt lat="47.65091" lon="8.94775">
        <ele>473.3</ele>
      </trkpt>
      <trkpt lat="47.65091" lon="8.94781">
        <ele>472.8</ele>
      </trkpt>
      <trkpt lat="47.65088" lon="8.94796">
        <ele>473.2</ele>
      </trkpt>
      <trkpt lat="47.65083" lon="8.94808">
        <ele>474.3</ele>
      </trkpt>
      <trkpt lat="47.6508" lon="8.9481">
        <ele>475</ele>
      </trkpt>
      <trkpt lat="47.65079" lon="8.94817">
        <ele>474.8</ele>
      </trkpt>
      <trkpt lat="47.65071" lon="8.94843">
        <ele>474.7</ele>
      </trkpt>
      <trkpt lat="47.65072" lon="8.94856">
        <ele>472.9</ele>
      </trkpt>
      <trkpt lat="47.65071" lon="8.94868">
        <ele>471.6</ele>
      </trkpt>
      <trkpt lat="47.65072" lon="8.94876">
        <ele>470.1</ele>
      </trkpt>
      <trkpt lat="47.65075" lon="8.94879">
        <ele>468.9</ele>
      </trkpt>
      <trkpt lat="47.65077" lon="8.94879">
        <ele>468.3</ele>
      </trkpt>
      <trkpt lat="47.6508" lon="8.94874">
        <ele>468.2</ele>
      </trkpt>
      <trkpt lat="47.65082" lon="8.94863">
        <ele>468.8</ele>
      </trkpt>
      <trkpt lat="47.65097" lon="8.94834">
        <ele>467.2</ele>
      </trkpt>
      <trkpt lat="47.65099" lon="8.94834">
        <ele>466.4</ele>
      </trkpt>
      <trkpt lat="47.65098" lon="8.94846">
        <ele>465.8</ele>
      </trkpt>
      <trkpt lat="47.65099" lon="8.9485">
        <ele>465.4</ele>
      </trkpt>
      <trkpt lat="47.651" lon="8.94848">
        <ele>465.2</ele>
      </trkpt>
      <trkpt lat="47.65101" lon="8.94846">
        <ele>464.9</ele>
      </trkpt>
      <trkpt lat="47.65103" lon="8.94846">
        <ele>464.3</ele>
      </trkpt>
      <trkpt lat="47.65106" lon="8.9485">
        <ele>463.3</ele>
      </trkpt>
      <trkpt lat="47.6511" lon="8.94852">
        <ele>462</ele>
      </trkpt>
      <trkpt lat="47.65113" lon="8.94852">
        <ele>461.1</ele>
      </trkpt>
      <trkpt lat="47.65116" lon="8.94854">
        <ele>460.2</ele>
      </trkpt>
      <trkpt lat="47.65119" lon="8.94857">
        <ele>459.5</ele>
      </trkpt>
      <trkpt lat="47.65119" lon="8.94861">
        <ele>459.4</ele>
      </trkpt>
      <trkpt lat="47.6512" lon="8.94862">
        <ele>459</ele>
      </trkpt>
      <trkpt lat="47.65132" lon="8.94869">
        <ele>456.4</ele>
      </trkpt>
      <trkpt lat="47.65138" lon="8.94872">
        <ele>455.2</ele>
      </trkpt>
      <trkpt lat="47.65151" lon="8.9486">
        <ele>450.9</ele>
      </trkpt>
      <trkpt lat="47.65163" lon="8.94853">
        <ele>446.7</ele>
      </trkpt>
      <trkpt lat="47.65177" lon="8.94845">
        <ele>442.4</ele>
      </trkpt>
      <trkpt lat="47.6519" lon="8.94836">
        <ele>438.5</ele>
      </trkpt>
      <trkpt lat="47.65197" lon="8.94831">
        <ele>436.8</ele>
      </trkpt>
      <trkpt lat="47.65201" lon="8.94828">
        <ele>435.9</ele>
      </trkpt>
      <trkpt lat="47.65209" lon="8.94833">
        <ele>434.8</ele>
      </trkpt>
      <trkpt lat="47.65229" lon="8.94842">
        <ele>433.6</ele>
      </trkpt>
      <trkpt lat="47.6524" lon="8.94849">
        <ele>433.5</ele>
      </trkpt>
      <trkpt lat="47.65255" lon="8.94867">
        <ele>435.3</ele>
      </trkpt>
      <trkpt lat="47.65266" lon="8.94881">
        <ele>435.9</ele>
      </trkpt>
      <trkpt lat="47.65276" lon="8.94894">
        <ele>435.9</ele>
      </trkpt>
      <trkpt lat="47.65282" lon="8.94908">
        <ele>436.7</ele>
      </trkpt>
      <trkpt lat="47.65286" lon="8.94925">
        <ele>438.3</ele>
      </trkpt>
      <trkpt lat="47.65287" lon="8.94942">
        <ele>439.8</ele>
      </trkpt>
      <trkpt lat="47.653" lon="8.95005">
        <ele>441.4</ele>
      </trkpt>
      <trkpt lat="47.6531" lon="8.95048">
        <ele>437.6</ele>
      </trkpt>
      <trkpt lat="47.6531" lon="8.95061">
        <ele>437.5</ele>
      </trkpt>
      <trkpt lat="47.65309" lon="8.95088">
        <ele>438.1</ele>
      </trkpt>
      <trkpt lat="47.65311" lon="8.95103">
        <ele>438.3</ele>
      </trkpt>
      <trkpt lat="47.65313" lon="8.95114">
        <ele>438</ele>
      </trkpt>
      <trkpt lat="47.65315" lon="8.95156">
        <ele>439.2</ele>
      </trkpt>
      <trkpt lat="47.65312" lon="8.95205">
        <ele>447.8</ele>
      </trkpt>
      <trkpt lat="47.65321" lon="8.9524">
        <ele>450.9</ele>
      </trkpt>
      <trkpt lat="47.65325" lon="8.95264">
        <ele>454</ele>
      </trkpt>
      <trkpt lat="47.65328" lon="8.95274">
        <ele>455</ele>
      </trkpt>
      <trkpt lat="47.65341" lon="8.95295">
        <ele>453.8</ele>
      </trkpt>
      <trkpt lat="47.65347" lon="8.95309">
        <ele>453.3</ele>
      </trkpt>
      <trkpt lat="47.65358" lon="8.95354">
        <ele>454.2</ele>
      </trkpt>
      <trkpt lat="47.65377" lon="8.95399">
        <ele>448.9</ele>
      </trkpt>
      <trkpt lat="47.65389" lon="8.95426">
        <ele>445.2</ele>
      </trkpt>
      <trkpt lat="47.6541" lon="8.95464">
        <ele>435.7</ele>
      </trkpt>
      <trkpt lat="47.65418" lon="8.95475">
        <ele>432.3</ele>
      </trkpt>
      <trkpt lat="47.65432" lon="8.95488">
        <ele>428.2</ele>
      </trkpt>
      <trkpt lat="47.65444" lon="8.95496">
        <ele>425</ele>
      </trkpt>
      <trkpt lat="47.65423" lon="8.95515">
        <ele>430.1</ele>
      </trkpt>
      <trkpt lat="47.65415" lon="8.95532">
        <ele>431.4</ele>
      </trkpt>
      <trkpt lat="47.65406" lon="8.9556">
        <ele>433.4</ele>
      </trkpt>
      <trkpt lat="47.65395" lon="8.95578">
        <ele>437.6</ele>
      </trkpt>
      <trkpt lat="47.65374" lon="8.95607">
        <ele>446.1</ele>
      </trkpt>
      <trkpt lat="47.65352" lon="8.95639">
        <ele>452.7</ele>
      </trkpt>
      <trkpt lat="47.65339" lon="8.95668">
        <ele>454.6</ele>
      </trkpt>
      <trkpt lat="47.65318" lon="8.95718">
        <ele>455.3</ele>
      </trkpt>
      <trkpt lat="47.65281" lon="8.95769">
        <ele>460</ele>
      </trkpt>
      <trkpt lat="47.65274" lon="8.95778">
        <ele>461</ele>
      </trkpt>
      <trkpt lat="47.65223" lon="8.95867">
        <ele>466.4</ele>
      </trkpt>
      <trkpt lat="47.65227" lon="8.9588">
        <ele>464.2</ele>
      </trkpt>
      <trkpt lat="47.65225" lon="8.95896">
        <ele>463.3</ele>
      </trkpt>
      <trkpt lat="47.6522" lon="8.95914">
        <ele>463.1</ele>
      </trkpt>
      <trkpt lat="47.65212" lon="8.95955">
        <ele>463.8</ele>
      </trkpt>
      <trkpt lat="47.65214" lon="8.95966">
        <ele>463.2</ele>
      </trkpt>
      <trkpt lat="47.65218" lon="8.95972">
        <ele>462.5</ele>
      </trkpt>
      <trkpt lat="47.65223" lon="8.95973">
        <ele>462.1</ele>
      </trkpt>
      <trkpt lat="47.65227" lon="8.95971">
        <ele>461.6</ele>
      </trkpt>
      <trkpt lat="47.6523" lon="8.95963">
        <ele>461.1</ele>
      </trkpt>
      <trkpt lat="47.6523" lon="8.95957">
        <ele>460.9</ele>
      </trkpt>
      <trkpt lat="47.65238" lon="8.95947">
        <ele>459.3</ele>
      </trkpt>
      <trkpt lat="47.65246" lon="8.95948">
        <ele>457.9</ele>
      </trkpt>
      <trkpt lat="47.65247" lon="8.95958">
        <ele>458.4</ele>
      </trkpt>
      <trkpt lat="47.6525" lon="8.95975">
        <ele>459.3</ele>
      </trkpt>
      <trkpt lat="47.65253" lon="8.95977">
        <ele>459.9</ele>
      </trkpt>
      <trkpt lat="47.65266" lon="8.95974">
        <ele>461.7</ele>
      </trkpt>
      <trkpt lat="47.65273" lon="8.95967">
        <ele>462.2</ele>
      </trkpt>
      <trkpt lat="47.65282" lon="8.95972">
        <ele>464</ele>
      </trkpt>
      <trkpt lat="47.65303" lon="8.95942">
        <ele>462.8</ele>
      </trkpt>
      <trkpt lat="47.65326" lon="8.95935">
        <ele>463.9</ele>
      </trkpt>
      <trkpt lat="47.65358" lon="8.95933">
        <ele>463.6</ele>
      </trkpt>
      <trkpt lat="47.6536" lon="8.95946">
        <ele>465.9</ele>
      </trkpt>
      <trkpt lat="47.65383" lon="8.96094">
        <ele>478.9</ele>
      </trkpt>
      <trkpt lat="47.65396" lon="8.96253">
        <ele>483.6</ele>
      </trkpt>
      <trkpt lat="47.65413" lon="8.96477">
        <ele>476.2</ele>
      </trkpt>
      <trkpt lat="47.65439" lon="8.96636">
        <ele>481.1</ele>
      </trkpt>
      <trkpt lat="47.65445" lon="8.96648">
        <ele>479.4</ele>
      </trkpt>
      <trkpt lat="47.6545" lon="8.96649">
        <ele>477.3</ele>
      </trkpt>
      <trkpt lat="47.65456" lon="8.96654">
        <ele>474.9</ele>
      </trkpt>
      <trkpt lat="47.6546" lon="8.96666">
        <ele>473.6</ele>
      </trkpt>
      <trkpt lat="47.65481" lon="8.96756">
        <ele>466.4</ele>
      </trkpt>
      <trkpt lat="47.65506" lon="8.96839">
        <ele>458.7</ele>
      </trkpt>
      <trkpt lat="47.65534" lon="8.96921">
        <ele>457.6</ele>
      </trkpt>
      <trkpt lat="47.65548" lon="8.96974">
        <ele>459</ele>
      </trkpt>
      <trkpt lat="47.65571" lon="8.97085">
        <ele>457</ele>
      </trkpt>
      <trkpt lat="47.65601" lon="8.97078">
        <ele>453.5</ele>
      </trkpt>
      <trkpt lat="47.65613" lon="8.97179">
        <ele>453.1</ele>
      </trkpt>
      <trkpt lat="47.65621" lon="8.97252">
        <ele>453.4</ele>
      </trkpt>
      <trkpt lat="47.65622" lon="8.97271">
        <ele>453.6</ele>
      </trkpt>
      <trkpt lat="47.65622" lon="8.97275">
        <ele>453.6</ele>
      </trkpt>
      <trkpt lat="47.65621" lon="8.97301">
        <ele>454</ele>
      </trkpt>
      <trkpt lat="47.65618" lon="8.97374">
        <ele>455.9</ele>
      </trkpt>
      <trkpt lat="47.65615" lon="8.97429">
        <ele>457.9</ele>
      </trkpt>
      <trkpt lat="47.65613" lon="8.97446">
        <ele>458.6</ele>
      </trkpt>
      <trkpt lat="47.65592" lon="8.97552">
        <ele>465.2</ele>
      </trkpt>
      <trkpt lat="47.65592" lon="8.97564">
        <ele>465.8</ele>
      </trkpt>
      <trkpt lat="47.6558" lon="8.9757">
        <ele>468</ele>
      </trkpt>
      <trkpt lat="47.65589" lon="8.97613">
        <ele>467.2</ele>
      </trkpt>
      <trkpt lat="47.65616" lon="8.97793">
        <ele>471.4</ele>
      </trkpt>
      <trkpt lat="47.65621" lon="8.97825">
        <ele>472.3</ele>
      </trkpt>
      <trkpt lat="47.6563" lon="8.97858">
        <ele>470.7</ele>
      </trkpt>
      <trkpt lat="47.65667" lon="8.97829">
        <ele>463.1</ele>
      </trkpt>
      <trkpt lat="47.65699" lon="8.9781">
        <ele>456.6</ele>
      </trkpt>
      <trkpt lat="47.6574" lon="8.97791">
        <ele>447.7</ele>
      </trkpt>
      <trkpt lat="47.6574" lon="8.97749">
        <ele>447.4</ele>
      </trkpt>
      <trkpt lat="47.65737" lon="8.97718">
        <ele>447.7</ele>
      </trkpt>
      <trkpt lat="47.65746" lon="8.97692">
        <ele>445.8</ele>
      </trkpt>
      <trkpt lat="47.65768" lon="8.97664">
        <ele>441.1</ele>
      </trkpt>
      <trkpt lat="47.6579" lon="8.97685">
        <ele>436.4</ele>
      </trkpt>
      <trkpt lat="47.65825" lon="8.97686">
        <ele>428.8</ele>
      </trkpt>
      <trkpt lat="47.65874" lon="8.97705">
        <ele>424</ele>
      </trkpt>
      <trkpt lat="47.65898" lon="8.9772">
        <ele>422.6</ele>
      </trkpt>
      <trkpt lat="47.65924" lon="8.97702">
        <ele>420.6</ele>
      </trkpt>
      <trkpt lat="47.65927" lon="8.97693">
        <ele>420.3</ele>
      </trkpt>
      <trkpt lat="47.6594" lon="8.97676">
        <ele>419.4</ele>
      </trkpt>
      <trkpt lat="47.65944" lon="8.97668">
        <ele>419</ele>
      </trkpt>
      <trkpt lat="47.6596" lon="8.97636">
        <ele>418.4</ele>
      </trkpt>
      <trkpt lat="47.65971" lon="8.97609">
        <ele>417.6</ele>
      </trkpt>
      <trkpt lat="47.65976" lon="8.97596">
        <ele>417.2</ele>
      </trkpt>
      <trkpt lat="47.65986" lon="8.97591">
        <ele>416.3</ele>
      </trkpt>
      <trkpt lat="47.6599" lon="8.97578">
        <ele>415.9</ele>
      </trkpt>
      <trkpt lat="47.66016" lon="8.97569">
        <ele>414</ele>
      </trkpt>
      <trkpt lat="47.66023" lon="8.9757">
        <ele>413.5</ele>
      </trkpt>
      <trkpt lat="47.66028" lon="8.97577">
        <ele>413.3</ele>
      </trkpt>
      <trkpt lat="47.66045" lon="8.97603">
        <ele>413</ele>
      </trkpt>
      <trkpt lat="47.66068" lon="8.97622">
        <ele>412.6</ele>
      </trkpt>
      <trkpt lat="47.66084" lon="8.97647">
        <ele>413</ele>
      </trkpt>
      <trkpt lat="47.66126" lon="8.97711">
        <ele>412.5</ele>
      </trkpt>
      <trkpt lat="47.66132" lon="8.9772">
        <ele>412.2</ele>
      </trkpt>
      <trkpt lat="47.66143" lon="8.97731">
        <ele>411.6</ele>
      </trkpt>
      <trkpt lat="47.66153" lon="8.9774">
        <ele>410.9</ele>
      </trkpt>
      <trkpt lat="47.66155" lon="8.97741">
        <ele>410.8</ele>
      </trkpt>
      <trkpt lat="47.66164" lon="8.97744">
        <ele>410.2</ele>
      </trkpt>
      <trkpt lat="47.66168" lon="8.97751">
        <ele>409.9</ele>
      </trkpt>
      <trkpt lat="47.66177" lon="8.97764">
        <ele>409.3</ele>
      </trkpt>
      <trkpt lat="47.66202" lon="8.97785">
        <ele>407.8</ele>
      </trkpt>
      <trkpt lat="47.66246" lon="8.97828">
        <ele>406.1</ele>
      </trkpt>
      <trkpt lat="47.66257" lon="8.97846">
        <ele>405.8</ele>
      </trkpt>
      <trkpt lat="47.6627" lon="8.97877">
        <ele>405.4</ele>
      </trkpt>
      <trkpt lat="47.6628" lon="8.97906">
        <ele>405.2</ele>
      </trkpt>
      <trkpt lat="47.66288" lon="8.97942">
        <ele>405.4</ele>
      </trkpt>
      <trkpt lat="47.66295" lon="8.97978">
        <ele>405.7</ele>
      </trkpt>
      <trkpt lat="47.66339" lon="8.97967">
        <ele>404.4</ele>
      </trkpt>
      <trkpt lat="47.66354" lon="8.97987">
        <ele>404.1</ele>
      </trkpt>
      <trkpt lat="47.66388" lon="8.97962">
        <ele>402.3</ele>
      </trkpt>
      <trkpt lat="47.66396" lon="8.97959">
        <ele>401.9</ele>
      </trkpt>
      <trkpt lat="47.66398" lon="8.97967">
        <ele>402</ele>
      </trkpt>
      <trkpt lat="47.66412" lon="8.98004">
        <ele>402.2</ele>
      </trkpt>
      <trkpt lat="47.66412" lon="8.98016">
        <ele>402.3</ele>
      </trkpt>
      <trkpt lat="47.66433" lon="8.98049">
        <ele>402.2</ele>
      </trkpt>
      <trkpt lat="47.66434" lon="8.9805">
        <ele>402.2</ele>
      </trkpt>
      <trkpt lat="47.66446" lon="8.98062">
        <ele>402.2</ele>
      </trkpt>
      <trkpt lat="47.66454" lon="8.98074">
        <ele>402.4</ele>
      </trkpt>
      <trkpt lat="47.66467" lon="8.98095">
        <ele>402.7</ele>
      </trkpt>
      <trkpt lat="47.66471" lon="8.98102">
        <ele>402.8</ele>
      </trkpt>
      <trkpt lat="47.66471" lon="8.98102">
        <ele>402.8</ele>
      </trkpt>
      <trkpt lat="47.66481" lon="8.98111">
        <ele>402.9</ele>
      </trkpt>
      <trkpt lat="47.66515" lon="8.9817">
        <ele>403.5</ele>
      </trkpt>
      <trkpt lat="47.66539" lon="8.98214">
        <ele>403.7</ele>
      </trkpt>
      <trkpt lat="47.66545" lon="8.98224">
        <ele>403.8</ele>
      </trkpt>
      <trkpt lat="47.66529" lon="8.98257">
        <ele>404.8</ele>
      </trkpt>
      <trkpt lat="47.66531" lon="8.98262">
        <ele>404.9</ele>
      </trkpt>
      <trkpt lat="47.66533" lon="8.98267">
        <ele>404.9</ele>
      </trkpt>
      <trkpt lat="47.66534" lon="8.98269">
        <ele>405</ele>
      </trkpt>
      <trkpt lat="47.66549" lon="8.98295">
        <ele>405.2</ele>
      </trkpt>
      <trkpt lat="47.66562" lon="8.9832">
        <ele>405.3</ele>
      </trkpt>
      <trkpt lat="47.66573" lon="8.98341">
        <ele>405.2</ele>
      </trkpt>
      <trkpt lat="47.66583" lon="8.9837">
        <ele>404.6</ele>
      </trkpt>
      <trkpt lat="47.66588" lon="8.98391">
        <ele>404.3</ele>
      </trkpt>
      <trkpt lat="47.66591" lon="8.98398">
        <ele>404.2</ele>
      </trkpt>
      <trkpt lat="47.66587" lon="8.98402">
        <ele>404.2</ele>
      </trkpt>
      <trkpt lat="47.66555" lon="8.98433">
        <ele>405.4</ele>
      </trkpt>
      <trkpt lat="47.66562" lon="8.98444">
        <ele>405.2</ele>
      </trkpt>
      <trkpt lat="47.66573" lon="8.9846">
        <ele>404.9</ele>
      </trkpt>
      <trkpt lat="47.66578" lon="8.98471">
        <ele>404.8</ele>
      </trkpt>
      <trkpt lat="47.6659" lon="8.98505">
        <ele>405.1</ele>
      </trkpt>
      <trkpt lat="47.66586" lon="8.98516">
        <ele>405.7</ele>
      </trkpt>
      <trkpt lat="47.66558" lon="8.98597">
        <ele>409.8</ele>
      </trkpt>
      <trkpt lat="47.66553" lon="8.98618">
        <ele>410.3</ele>
      </trkpt>
      <trkpt lat="47.6655" lon="8.98642">
        <ele>410.8</ele>
      </trkpt>
      <trkpt lat="47.66552" lon="8.98669">
        <ele>411.2</ele>
      </trkpt>
      <trkpt lat="47.66568" lon="8.98731">
        <ele>413.5</ele>
      </trkpt>
      <trkpt lat="47.66584" lon="8.98784">
        <ele>417.3</ele>
      </trkpt>
      <trkpt lat="47.66604" lon="8.98841">
        <ele>420.1</ele>
      </trkpt>
      <trkpt lat="47.66608" lon="8.98856">
        <ele>420.9</ele>
      </trkpt>
      <trkpt lat="47.66605" lon="8.9887">
        <ele>422.2</ele>
      </trkpt>
      <trkpt lat="47.66606" lon="8.98881">
        <ele>423</ele>
      </trkpt>
      <trkpt lat="47.6662" lon="8.98877">
        <ele>421.2</ele>
      </trkpt>
      <trkpt lat="47.6663" lon="8.98879">
        <ele>420.3</ele>
      </trkpt>
      <trkpt lat="47.6664" lon="8.98886">
        <ele>419.8</ele>
      </trkpt>
      <trkpt lat="47.66646" lon="8.98894">
        <ele>420</ele>
      </trkpt>
      <trkpt lat="47.66681" lon="8.98963">
        <ele>424</ele>
      </trkpt>
      <trkpt lat="47.66712" lon="8.99024">
        <ele>427.3</ele>
      </trkpt>
      <trkpt lat="47.66741" lon="8.99085">
        <ele>433.5</ele>
      </trkpt>
      <trkpt lat="47.66778" lon="8.99184">
        <ele>436</ele>
      </trkpt>
      <trkpt lat="47.66779" lon="8.99195">
        <ele>437.1</ele>
      </trkpt>
      <trkpt lat="47.66775" lon="8.99214">
        <ele>440.5</ele>
      </trkpt>
      <trkpt lat="47.66779" lon="8.99224">
        <ele>441</ele>
      </trkpt>
      <trkpt lat="47.66792" lon="8.99231">
        <ele>438.7</ele>
      </trkpt>
      <trkpt lat="47.66803" lon="8.99244">
        <ele>437.9</ele>
      </trkpt>
      <trkpt lat="47.66813" lon="8.99257">
        <ele>438</ele>
      </trkpt>
      <trkpt lat="47.66824" lon="8.9928">
        <ele>440.1</ele>
      </trkpt>
      <trkpt lat="47.66833" lon="8.99314">
        <ele>445.7</ele>
      </trkpt>
      <trkpt lat="47.66843" lon="8.99356">
        <ele>447.5</ele>
      </trkpt>
      <trkpt lat="47.66852" lon="8.99403">
        <ele>448.6</ele>
      </trkpt>
      <trkpt lat="47.6686" lon="8.99453">
        <ele>448.3</ele>
      </trkpt>
      <trkpt lat="47.66868" lon="8.99505">
        <ele>448.1</ele>
      </trkpt>
      <trkpt lat="47.66878" lon="8.9954">
        <ele>448.6</ele>
      </trkpt>
      <trkpt lat="47.66911" lon="8.99637">
        <ele>451.7</ele>
      </trkpt>
      <trkpt lat="47.66928" lon="8.99685">
        <ele>448.9</ele>
      </trkpt>
      <trkpt lat="47.66945" lon="8.99701">
        <ele>443</ele>
      </trkpt>
      <trkpt lat="47.66954" lon="8.99722">
        <ele>441.1</ele>
      </trkpt>
      <trkpt lat="47.66963" lon="8.99749">
        <ele>440.5</ele>
      </trkpt>
      <trkpt lat="47.66981" lon="8.99776">
        <ele>437.1</ele>
      </trkpt>
      <trkpt lat="47.66994" lon="8.998">
        <ele>434.7</ele>
      </trkpt>
      <trkpt lat="47.66997" lon="8.99813">
        <ele>434.8</ele>
      </trkpt>
      <trkpt lat="47.66995" lon="8.99829">
        <ele>436.4</ele>
      </trkpt>
      <trkpt lat="47.66988" lon="8.99862">
        <ele>438.2</ele>
      </trkpt>
      <trkpt lat="47.66988" lon="8.99878">
        <ele>438</ele>
      </trkpt>
      <trkpt lat="47.66993" lon="8.99923">
        <ele>435.9</ele>
      </trkpt>
      <trkpt lat="47.66993" lon="8.99929">
        <ele>435.9</ele>
      </trkpt>
      <trkpt lat="47.66999" lon="8.99984">
        <ele>435.1</ele>
      </trkpt>
      <trkpt lat="47.67005" lon="9.00004">
        <ele>433.8</ele>
      </trkpt>
      <trkpt lat="47.67008" lon="9.0001">
        <ele>433.4</ele>
      </trkpt>
      <trkpt lat="47.67014" lon="9.00018">
        <ele>432.1</ele>
      </trkpt>
      <trkpt lat="47.67016" lon="9.00021">
        <ele>431.7</ele>
      </trkpt>
      <trkpt lat="47.67025" lon="9.00032">
        <ele>429.2</ele>
      </trkpt>
      <trkpt lat="47.67035" lon="9.00046">
        <ele>427</ele>
      </trkpt>
      <trkpt lat="47.67039" lon="9.0006">
        <ele>426.5</ele>
      </trkpt>
      <trkpt lat="47.67042" lon="9.00112">
        <ele>427.5</ele>
      </trkpt>
      <trkpt lat="47.67041" lon="9.00127">
        <ele>428.4</ele>
      </trkpt>
      <trkpt lat="47.6704" lon="9.00132">
        <ele>428.7</ele>
      </trkpt>
      <trkpt lat="47.67032" lon="9.00168">
        <ele>433.4</ele>
      </trkpt>
      <trkpt lat="47.67028" lon="9.00194">
        <ele>435.8</ele>
      </trkpt>
      <trkpt lat="47.67028" lon="9.0021">
        <ele>436.1</ele>
      </trkpt>
      <trkpt lat="47.67029" lon="9.00222">
        <ele>436</ele>
      </trkpt>
      <trkpt lat="47.6703" lon="9.00227">
        <ele>436</ele>
      </trkpt>
      <trkpt lat="47.67027" lon="9.00244">
        <ele>437.3</ele>
      </trkpt>
      <trkpt lat="47.67021" lon="9.0027">
        <ele>441.6</ele>
      </trkpt>
      <trkpt lat="47.67009" lon="9.00296">
        <ele>447.8</ele>
      </trkpt>
      <trkpt lat="47.66965" lon="9.00386">
        <ele>479.9</ele>
      </trkpt>
      <trkpt lat="47.66964" lon="9.00392">
        <ele>481.1</ele>
      </trkpt>
      <trkpt lat="47.66966" lon="9.004">
        <ele>481.6</ele>
      </trkpt>
      <trkpt lat="47.66982" lon="9.00413">
        <ele>478.8</ele>
      </trkpt>
      <trkpt lat="47.66995" lon="9.00418">
        <ele>475.7</ele>
      </trkpt>
      <trkpt lat="47.67028" lon="9.00424">
        <ele>466.7</ele>
      </trkpt>
      <trkpt lat="47.67036" lon="9.00438">
        <ele>467</ele>
      </trkpt>
      <trkpt lat="47.6704" lon="9.00459">
        <ele>469.8</ele>
      </trkpt>
      <trkpt lat="47.67045" lon="9.00493">
        <ele>473.9</ele>
      </trkpt>
      <trkpt lat="47.67054" lon="9.00507">
        <ele>471.2</ele>
      </trkpt>
      <trkpt lat="47.67066" lon="9.00536">
        <ele>466.2</ele>
      </trkpt>
      <trkpt lat="47.67075" lon="9.00573">
        <ele>463.9</ele>
      </trkpt>
      <trkpt lat="47.67084" lon="9.00612">
        <ele>460.5</ele>
      </trkpt>
      <trkpt lat="47.67092" lon="9.00657">
        <ele>455.9</ele>
      </trkpt>
      <trkpt lat="47.67099" lon="9.00681">
        <ele>450.6</ele>
      </trkpt>
      <trkpt lat="47.67102" lon="9.00699">
        <ele>447.7</ele>
      </trkpt>
      <trkpt lat="47.67098" lon="9.00715">
        <ele>450.1</ele>
      </trkpt>
      <trkpt lat="47.6708" lon="9.0073">
        <ele>459.8</ele>
      </trkpt>
      <trkpt lat="47.67069" lon="9.00743">
        <ele>461.5</ele>
      </trkpt>
      <trkpt lat="47.67061" lon="9.00755">
        <ele>462.4</ele>
      </trkpt>
      <trkpt lat="47.67058" lon="9.00769">
        <ele>462.4</ele>
      </trkpt>
      <trkpt lat="47.67062" lon="9.00786">
        <ele>460.1</ele>
      </trkpt>
      <trkpt lat="47.67075" lon="9.00801">
        <ele>455.7</ele>
      </trkpt>
      <trkpt lat="47.67097" lon="9.00829">
        <ele>445.3</ele>
      </trkpt>
      <trkpt lat="47.67113" lon="9.0086">
        <ele>440.2</ele>
      </trkpt>
      <trkpt lat="47.67119" lon="9.00883">
        <ele>439.8</ele>
      </trkpt>
      <trkpt lat="47.67128" lon="9.00926">
        <ele>439.4</ele>
      </trkpt>
      <trkpt lat="47.67137" lon="9.00956">
        <ele>435.4</ele>
      </trkpt>
      <trkpt lat="47.67143" lon="9.00988">
        <ele>433.3</ele>
      </trkpt>
      <trkpt lat="47.67144" lon="9.01025">
        <ele>431</ele>
      </trkpt>
      <trkpt lat="47.67147" lon="9.01064">
        <ele>427.5</ele>
      </trkpt>
      <trkpt lat="47.67153" lon="9.0112">
        <ele>424.9</ele>
      </trkpt>
      <trkpt lat="47.67158" lon="9.01154">
        <ele>424.5</ele>
      </trkpt>
      <trkpt lat="47.6716" lon="9.01183">
        <ele>425</ele>
      </trkpt>
      <trkpt lat="47.67164" lon="9.01203">
        <ele>424.8</ele>
      </trkpt>
      <trkpt lat="47.67172" lon="9.01258">
        <ele>424</ele>
      </trkpt>
      <trkpt lat="47.67178" lon="9.01276">
        <ele>421.8</ele>
      </trkpt>
      <trkpt lat="47.67187" lon="9.01296">
        <ele>418.5</ele>
      </trkpt>
      <trkpt lat="47.67191" lon="9.01311">
        <ele>417.1</ele>
      </trkpt>
      <trkpt lat="47.67194" lon="9.01322">
        <ele>416</ele>
      </trkpt>
      <trkpt lat="47.67204" lon="9.01339">
        <ele>412.3</ele>
      </trkpt>
      <trkpt lat="47.67211" lon="9.01357">
        <ele>410.5</ele>
      </trkpt>
      <trkpt lat="47.67215" lon="9.0137">
        <ele>409.9</ele>
      </trkpt>
      <trkpt lat="47.67219" lon="9.01381">
        <ele>409.6</ele>
      </trkpt>
      <trkpt lat="47.67222" lon="9.01397">
        <ele>410</ele>
      </trkpt>
      <trkpt lat="47.67224" lon="9.01416">
        <ele>411</ele>
      </trkpt>
      <trkpt lat="47.67226" lon="9.01436">
        <ele>410.8</ele>
      </trkpt>
      <trkpt lat="47.67225" lon="9.01456">
        <ele>411.3</ele>
      </trkpt>
      <trkpt lat="47.67223" lon="9.01481">
        <ele>412.2</ele>
      </trkpt>
      <trkpt lat="47.67224" lon="9.0149">
        <ele>412.1</ele>
      </trkpt>
      <trkpt lat="47.67231" lon="9.01509">
        <ele>410.4</ele>
      </trkpt>
      <trkpt lat="47.67249" lon="9.01541">
        <ele>406.3</ele>
      </trkpt>
      <trkpt lat="47.67258" lon="9.01566">
        <ele>405.9</ele>
      </trkpt>
      <trkpt lat="47.67263" lon="9.01583">
        <ele>405.9</ele>
      </trkpt>
      <trkpt lat="47.6727" lon="9.0163">
        <ele>405.5</ele>
      </trkpt>
      <trkpt lat="47.67271" lon="9.01636">
        <ele>405.4</ele>
      </trkpt>
      <trkpt lat="47.67278" lon="9.01674">
        <ele>405.2</ele>
      </trkpt>
      <trkpt lat="47.67284" lon="9.01713">
        <ele>405.7</ele>
      </trkpt>
      <trkpt lat="47.67287" lon="9.01758">
        <ele>406.5</ele>
      </trkpt>
      <trkpt lat="47.67292" lon="9.01784">
        <ele>406.8</ele>
      </trkpt>
      <trkpt lat="47.67314" lon="9.01836">
        <ele>406.5</ele>
      </trkpt>
      <trkpt lat="47.67326" lon="9.01865">
        <ele>406.6</ele>
      </trkpt>
      <trkpt lat="47.67333" lon="9.01884">
        <ele>406.8</ele>
      </trkpt>
      <trkpt lat="47.67344" lon="9.01934">
        <ele>406.9</ele>
      </trkpt>
      <trkpt lat="47.67349" lon="9.01957">
        <ele>406.2</ele>
      </trkpt>
      <trkpt lat="47.6735" lon="9.01969">
        <ele>406</ele>
      </trkpt>
      <trkpt lat="47.6735" lon="9.01978">
        <ele>405.9</ele>
      </trkpt>
      <trkpt lat="47.67348" lon="9.01989">
        <ele>405.9</ele>
      </trkpt>
      <trkpt lat="47.67345" lon="9.02">
        <ele>406</ele>
      </trkpt>
      <trkpt lat="47.67339" lon="9.02014">
        <ele>406.2</ele>
      </trkpt>
      <trkpt lat="47.67347" lon="9.02026">
        <ele>405.3</ele>
      </trkpt>
      <trkpt lat="47.67343" lon="9.02045">
        <ele>405.3</ele>
      </trkpt>
      <trkpt lat="47.67332" lon="9.02113">
        <ele>404.4</ele>
      </trkpt>
      <trkpt lat="47.67329" lon="9.0213">
        <ele>404.2</ele>
      </trkpt>
      <trkpt lat="47.67285" lon="9.02243">
        <ele>403.2</ele>
      </trkpt>
      <trkpt lat="47.67273" lon="9.02281">
        <ele>403.2</ele>
      </trkpt>
      <trkpt lat="47.67258" lon="9.0233">
        <ele>403.5</ele>
      </trkpt>
      <trkpt lat="47.67258" lon="9.02338">
        <ele>403.4</ele>
      </trkpt>
      <trkpt lat="47.67251" lon="9.02369">
        <ele>403.9</ele>
      </trkpt>
      <trkpt lat="47.67246" lon="9.02396">
        <ele>405.1</ele>
      </trkpt>
      <trkpt lat="47.67238" lon="9.02468">
        <ele>406.6</ele>
      </trkpt>
      <trkpt lat="47.67232" lon="9.02542">
        <ele>409.4</ele>
      </trkpt>
      <trkpt lat="47.6723" lon="9.02643">
        <ele>414</ele>
      </trkpt>
      <trkpt lat="47.67234" lon="9.02771">
        <ele>418.9</ele>
      </trkpt>
      <trkpt lat="47.67249" lon="9.0286">
        <ele>410.9</ele>
      </trkpt>
      <trkpt lat="47.67288" lon="9.03041">
        <ele>404.7</ele>
      </trkpt>
      <trkpt lat="47.67293" lon="9.03107">
        <ele>403.9</ele>
      </trkpt>
      <trkpt lat="47.67294" lon="9.03127">
        <ele>403.3</ele>
      </trkpt>
      <trkpt lat="47.67296" lon="9.03204">
        <ele>402.2</ele>
      </trkpt>
      <trkpt lat="47.67302" lon="9.03279">
        <ele>401.6</ele>
      </trkpt>
      <trkpt lat="47.67311" lon="9.03346">
        <ele>401.3</ele>
      </trkpt>
      <trkpt lat="47.6731" lon="9.03356">
        <ele>401.6</ele>
      </trkpt>
      <trkpt lat="47.67315" lon="9.03366">
        <ele>401.4</ele>
      </trkpt>
      <trkpt lat="47.67318" lon="9.03371">
        <ele>401.2</ele>
      </trkpt>
      <trkpt lat="47.67321" lon="9.03359">
        <ele>400.7</ele>
      </trkpt>
      <trkpt lat="47.67341" lon="9.03292">
        <ele>397.9</ele>
      </trkpt>
      <trkpt lat="47.67347" lon="9.03289">
        <ele>397.4</ele>
      </trkpt>
      <trkpt lat="47.67354" lon="9.03395">
        <ele>398.4</ele>
      </trkpt>
      <trkpt lat="47.67358" lon="9.03431">
        <ele>398.7</ele>
      </trkpt>
      <trkpt lat="47.67363" lon="9.03461">
        <ele>398.8</ele>
      </trkpt>
      <trkpt lat="47.67367" lon="9.03491">
        <ele>398.9</ele>
      </trkpt>
      <trkpt lat="47.67367" lon="9.03501">
        <ele>399.2</ele>
      </trkpt>
      <trkpt lat="47.67366" lon="9.03509">
        <ele>399.4</ele>
      </trkpt>
      <trkpt lat="47.67364" lon="9.03516">
        <ele>399.7</ele>
      </trkpt>
      <trkpt lat="47.67365" lon="9.03523">
        <ele>399.5</ele>
      </trkpt>
      <trkpt lat="47.67371" lon="9.03546">
        <ele>399</ele>
      </trkpt>
      <trkpt lat="47.67378" lon="9.03613">
        <ele>399.6</ele>
      </trkpt>
      <trkpt lat="47.67375" lon="9.03696">
        <ele>401.1</ele>
      </trkpt>
      <trkpt lat="47.67374" lon="9.03724">
        <ele>400.9</ele>
      </trkpt>
      <trkpt lat="47.67341" lon="9.03932">
        <ele>399.8</ele>
      </trkpt>
      <trkpt lat="47.67317" lon="9.04084">
        <ele>398</ele>
      </trkpt>
      <trkpt lat="47.67298" lon="9.0416">
        <ele>397.9</ele>
      </trkpt>
      <trkpt lat="47.67268" lon="9.04279">
        <ele>397.5</ele>
      </trkpt>
      <trkpt lat="47.67258" lon="9.04337">
        <ele>398.3</ele>
      </trkpt>
      <trkpt lat="47.67251" lon="9.04408">
        <ele>397.2</ele>
      </trkpt>
      <trkpt lat="47.67251" lon="9.04464">
        <ele>396.4</ele>
      </trkpt>
      <trkpt lat="47.67253" lon="9.04529">
        <ele>396.2</ele>
      </trkpt>
      <trkpt lat="47.67265" lon="9.04607">
        <ele>396.6</ele>
      </trkpt>
      <trkpt lat="47.67278" lon="9.04668">
        <ele>397</ele>
      </trkpt>
      <trkpt lat="47.67299" lon="9.04727">
        <ele>397.1</ele>
      </trkpt>
      <trkpt lat="47.67329" lon="9.048">
        <ele>397.5</ele>
      </trkpt>
      <trkpt lat="47.67345" lon="9.04839">
        <ele>398</ele>
      </trkpt>
      <trkpt lat="47.67354" lon="9.04861">
        <ele>398.6</ele>
      </trkpt>
      <trkpt lat="47.67362" lon="9.04876">
        <ele>398.8</ele>
      </trkpt>
      <trkpt lat="47.67379" lon="9.04879">
        <ele>398.5</ele>
      </trkpt>
      <trkpt lat="47.67392" lon="9.04881">
        <ele>398.2</ele>
      </trkpt>
      <trkpt lat="47.67409" lon="9.04886">
        <ele>397.8</ele>
      </trkpt>
      <trkpt lat="47.67417" lon="9.04901">
        <ele>397.8</ele>
      </trkpt>
      <trkpt lat="47.6742" lon="9.0491">
        <ele>397.7</ele>
      </trkpt>
      <trkpt lat="47.67422" lon="9.04923">
        <ele>397.7</ele>
      </trkpt>
      <trkpt lat="47.67422" lon="9.04939">
        <ele>397.9</ele>
      </trkpt>
      <trkpt lat="47.67422" lon="9.04952">
        <ele>398</ele>
      </trkpt>
      <trkpt lat="47.67422" lon="9.04956">
        <ele>398.1</ele>
      </trkpt>
      <trkpt lat="47.67422" lon="9.0496">
        <ele>398.1</ele>
      </trkpt>
      <trkpt lat="47.67422" lon="9.04971">
        <ele>398.2</ele>
      </trkpt>
      <trkpt lat="47.67421" lon="9.04979">
        <ele>398.4</ele>
      </trkpt>
      <trkpt lat="47.67417" lon="9.04987">
        <ele>398.8</ele>
      </trkpt>
      <trkpt lat="47.67412" lon="9.05001">
        <ele>399.3</ele>
      </trkpt>
      <trkpt lat="47.6741" lon="9.05007">
        <ele>399.3</ele>
      </trkpt>
      <trkpt lat="47.67409" lon="9.05014">
        <ele>399.3</ele>
      </trkpt>
      <trkpt lat="47.67409" lon="9.05023">
        <ele>399.2</ele>
      </trkpt>
      <trkpt lat="47.67409" lon="9.05025">
        <ele>399.2</ele>
      </trkpt>
      <trkpt lat="47.67406" lon="9.05058">
        <ele>399.1</ele>
      </trkpt>
      <trkpt lat="47.67393" lon="9.05054">
        <ele>399.9</ele>
      </trkpt>
      <trkpt lat="47.67388" lon="9.05052">
        <ele>400.3</ele>
      </trkpt>
      <trkpt lat="47.67388" lon="9.05058">
        <ele>400.3</ele>
      </trkpt>
      <trkpt lat="47.67388" lon="9.05066">
        <ele>400.2</ele>
      </trkpt>
      <trkpt lat="47.67388" lon="9.05094">
        <ele>399.7</ele>
      </trkpt>
      <trkpt lat="47.67388" lon="9.05101">
        <ele>399.6</ele>
      </trkpt>
      <trkpt lat="47.67386" lon="9.05125">
        <ele>399.1</ele>
      </trkpt>
      <trkpt lat="47.67381" lon="9.05152">
        <ele>398.6</ele>
      </trkpt>
      <trkpt lat="47.67378" lon="9.05171">
        <ele>398.3</ele>
      </trkpt>
      <trkpt lat="47.67371" lon="9.05214">
        <ele>398.5</ele>
      </trkpt>
      <trkpt lat="47.67369" lon="9.0522">
        <ele>398.6</ele>
      </trkpt>
      <trkpt lat="47.67368" lon="9.05223">
        <ele>398.7</ele>
      </trkpt>
      <trkpt lat="47.67365" lon="9.05224">
        <ele>398.8</ele>
      </trkpt>
      <trkpt lat="47.6735" lon="9.05232">
        <ele>399.8</ele>
      </trkpt>
      <trkpt lat="47.67348" lon="9.05253">
        <ele>399.9</ele>
      </trkpt>
      <trkpt lat="47.67348" lon="9.05261">
        <ele>399.9</ele>
      </trkpt>
      <trkpt lat="47.67343" lon="9.0526">
        <ele>400.2</ele>
      </trkpt>
      <trkpt lat="47.67339" lon="9.05259">
        <ele>400.5</ele>
      </trkpt>
      <trkpt lat="47.67343" lon="9.0526">
        <ele>400.2</ele>
      </trkpt>
      <trkpt lat="47.67342" lon="9.0527">
        <ele>400.2</ele>
      </trkpt>
      <trkpt lat="47.67336" lon="9.0528">
        <ele>400.4</ele>
      </trkpt>
      <trkpt lat="47.67334" lon="9.05284">
        <ele>400.6</ele>
      </trkpt>
      <trkpt lat="47.67332" lon="9.05286">
        <ele>400.8</ele>
      </trkpt>
      <trkpt lat="47.67323" lon="9.05294">
        <ele>402</ele>
      </trkpt>
      <trkpt lat="47.67319" lon="9.05294">
        <ele>402.6</ele>
      </trkpt>
      <trkpt lat="47.67305" lon="9.05294">
        <ele>404.5</ele>
      </trkpt>
      <trkpt lat="47.67299" lon="9.05295">
        <ele>405.4</ele>
      </trkpt>
      <trkpt lat="47.67292" lon="9.05296">
        <ele>406.4</ele>
      </trkpt>
      <trkpt lat="47.67291" lon="9.05296">
        <ele>406.6</ele>
      </trkpt>
      <trkpt lat="47.67277" lon="9.053">
        <ele>408.7</ele>
      </trkpt>
      <trkpt lat="47.67255" lon="9.05303">
        <ele>411.9</ele>
      </trkpt>
      <trkpt lat="47.67255" lon="9.05309">
        <ele>411.9</ele>
      </trkpt>
      <trkpt lat="47.67256" lon="9.0532">
        <ele>411.9</ele>
      </trkpt>
      <trkpt lat="47.67257" lon="9.05335">
        <ele>411.9</ele>
      </trkpt>
      <trkpt lat="47.67258" lon="9.0539">
        <ele>412.4</ele>
      </trkpt>
      <trkpt lat="47.67256" lon="9.0543">
        <ele>412.9</ele>
      </trkpt>
      <trkpt lat="47.6725" lon="9.05461">
        <ele>413.5</ele>
      </trkpt>
      <trkpt lat="47.6725" lon="9.05468">
        <ele>413.3</ele>
      </trkpt>
      <trkpt lat="47.67252" lon="9.05488">
        <ele>412.9</ele>
      </trkpt>
      <trkpt lat="47.67257" lon="9.05516">
        <ele>413.2</ele>
      </trkpt>
      <trkpt lat="47.67263" lon="9.05539">
        <ele>413.7</ele>
      </trkpt>
      <trkpt lat="47.67272" lon="9.05561">
        <ele>413.8</ele>
      </trkpt>
      <trkpt lat="47.67296" lon="9.05619">
        <ele>414.3</ele>
      </trkpt>
      <trkpt lat="47.67314" lon="9.05672">
        <ele>415.2</ele>
      </trkpt>
      <trkpt lat="47.67322" lon="9.05706">
        <ele>416.9</ele>
      </trkpt>
      <trkpt lat="47.67326" lon="9.05734">
        <ele>418.8</ele>
      </trkpt>
      <trkpt lat="47.67328" lon="9.05746">
        <ele>419.6</ele>
      </trkpt>
      <trkpt lat="47.67342" lon="9.05797">
        <ele>418.7</ele>
      </trkpt>
      <trkpt lat="47.67291" lon="9.05826">
        <ele>433</ele>
      </trkpt>
      <trkpt lat="47.67292" lon="9.05839">
        <ele>433.9</ele>
      </trkpt>
      <trkpt lat="47.67293" lon="9.05842">
        <ele>434</ele>
      </trkpt>
      <trkpt lat="47.67286" lon="9.05846">
        <ele>436.3</ele>
      </trkpt>
      <trkpt lat="47.6728" lon="9.05851">
        <ele>438.5</ele>
      </trkpt>
      <trkpt lat="47.67272" lon="9.05859">
        <ele>441.8</ele>
      </trkpt>
      <trkpt lat="47.67267" lon="9.05865">
        <ele>443.9</ele>
      </trkpt>
      <trkpt lat="47.67261" lon="9.05868">
        <ele>446</ele>
      </trkpt>
      <trkpt lat="47.67246" lon="9.05873">
        <ele>450.3</ele>
      </trkpt>
      <trkpt lat="47.67233" lon="9.05868">
        <ele>452</ele>
      </trkpt>
      <trkpt lat="47.67225" lon="9.05855">
        <ele>452.3</ele>
      </trkpt>
      <trkpt lat="47.67219" lon="9.05889">
        <ele>456.2</ele>
      </trkpt>
      <trkpt lat="47.67207" lon="9.05929">
        <ele>459.6</ele>
      </trkpt>
      <trkpt lat="47.67201" lon="9.05925">
        <ele>460.3</ele>
      </trkpt>
      <trkpt lat="47.67197" lon="9.05923">
        <ele>460.7</ele>
      </trkpt>
      <trkpt lat="47.67184" lon="9.05925">
        <ele>462</ele>
      </trkpt>
      <trkpt lat="47.67179" lon="9.05953">
        <ele>462</ele>
      </trkpt>
      <trkpt lat="47.67171" lon="9.05995">
        <ele>461.8</ele>
      </trkpt>
      <trkpt lat="47.67166" lon="9.06022">
        <ele>462.3</ele>
      </trkpt>
      <trkpt lat="47.67165" lon="9.06025">
        <ele>462.4</ele>
      </trkpt>
      <trkpt lat="47.67161" lon="9.06048">
        <ele>462.9</ele>
      </trkpt>
      <trkpt lat="47.67162" lon="9.06063">
        <ele>463</ele>
      </trkpt>
      <trkpt lat="47.67164" lon="9.06076">
        <ele>463</ele>
      </trkpt>
      <trkpt lat="47.67168" lon="9.06088">
        <ele>462.7</ele>
      </trkpt>
      <trkpt lat="47.67169" lon="9.06091">
        <ele>462.5</ele>
      </trkpt>
      <trkpt lat="47.67173" lon="9.06107">
        <ele>461.5</ele>
      </trkpt>
      <trkpt lat="47.67183" lon="9.06151">
        <ele>458.9</ele>
      </trkpt>
      <trkpt lat="47.67189" lon="9.06181">
        <ele>456.8</ele>
      </trkpt>
      <trkpt lat="47.67189" lon="9.06193">
        <ele>456.1</ele>
      </trkpt>
      <trkpt lat="47.67187" lon="9.06199">
        <ele>455.8</ele>
      </trkpt>
      <trkpt lat="47.67186" lon="9.06204">
        <ele>455.6</ele>
      </trkpt>
      <trkpt lat="47.67163" lon="9.06254">
        <ele>454.9</ele>
      </trkpt>
      <trkpt lat="47.67137" lon="9.06314">
        <ele>452.6</ele>
      </trkpt>
      <trkpt lat="47.67134" lon="9.06322">
        <ele>452.3</ele>
      </trkpt>
      <trkpt lat="47.67067" lon="9.06479">
        <ele>444.9</ele>
      </trkpt>
      <trkpt lat="47.67051" lon="9.06531">
        <ele>442</ele>
      </trkpt>
      <trkpt lat="47.67036" lon="9.06594">
        <ele>438.3</ele>
      </trkpt>
      <trkpt lat="47.66987" lon="9.06799">
        <ele>437.7</ele>
      </trkpt>
      <trkpt lat="47.66983" lon="9.0682">
        <ele>437.8</ele>
      </trkpt>
      <trkpt lat="47.66972" lon="9.06872">
        <ele>438.4</ele>
      </trkpt>
      <trkpt lat="47.6698" lon="9.06883">
        <ele>438</ele>
      </trkpt>
      <trkpt lat="47.67" lon="9.06907">
        <ele>437</ele>
      </trkpt>
      <trkpt lat="47.67009" lon="9.06918">
        <ele>435.5</ele>
      </trkpt>
      <trkpt lat="47.67012" lon="9.06927">
        <ele>434.5</ele>
      </trkpt>
      <trkpt lat="47.67014" lon="9.06936">
        <ele>433.7</ele>
      </trkpt>
      <trkpt lat="47.67013" lon="9.06945">
        <ele>433.4</ele>
      </trkpt>
      <trkpt lat="47.6701" lon="9.06956">
        <ele>433.5</ele>
      </trkpt>
      <trkpt lat="47.66989" lon="9.0702">
        <ele>433.4</ele>
      </trkpt>
      <trkpt lat="47.66969" lon="9.07082">
        <ele>431.2</ele>
      </trkpt>
      <trkpt lat="47.66962" lon="9.071">
        <ele>430.9</ele>
      </trkpt>
      <trkpt lat="47.66954" lon="9.07122">
        <ele>430.7</ele>
      </trkpt>
      <trkpt lat="47.66949" lon="9.07132">
        <ele>430.8</ele>
      </trkpt>
      <trkpt lat="47.66937" lon="9.07144">
        <ele>432.2</ele>
      </trkpt>
      <trkpt lat="47.66925" lon="9.07176">
        <ele>432.9</ele>
      </trkpt>
      <trkpt lat="47.66908" lon="9.07224">
        <ele>432.8</ele>
      </trkpt>
      <trkpt lat="47.66907" lon="9.07237">
        <ele>432.2</ele>
      </trkpt>
      <trkpt lat="47.66908" lon="9.07249">
        <ele>431.6</ele>
      </trkpt>
      <trkpt lat="47.66903" lon="9.07251">
        <ele>431.8</ele>
      </trkpt>
      <trkpt lat="47.66893" lon="9.07244">
        <ele>432.7</ele>
      </trkpt>
      <trkpt lat="47.66874" lon="9.07227">
        <ele>434.8</ele>
      </trkpt>
      <trkpt lat="47.66871" lon="9.07224">
        <ele>435.2</ele>
      </trkpt>
      <trkpt lat="47.66863" lon="9.07231">
        <ele>435.3</ele>
      </trkpt>
      <trkpt lat="47.66857" lon="9.0724">
        <ele>435.1</ele>
      </trkpt>
      <trkpt lat="47.66845" lon="9.07278">
        <ele>435.1</ele>
      </trkpt>
      <trkpt lat="47.66825" lon="9.07344">
        <ele>435.7</ele>
      </trkpt>
      <trkpt lat="47.66822" lon="9.07349">
        <ele>435.5</ele>
      </trkpt>
      <trkpt lat="47.66812" lon="9.07353">
        <ele>435.8</ele>
      </trkpt>
      <trkpt lat="47.66813" lon="9.07396">
        <ele>433.1</ele>
      </trkpt>
      <trkpt lat="47.66814" lon="9.07416">
        <ele>431.7</ele>
      </trkpt>
      <trkpt lat="47.66817" lon="9.07434">
        <ele>430.6</ele>
      </trkpt>
      <trkpt lat="47.66821" lon="9.07449">
        <ele>429.7</ele>
      </trkpt>
      <trkpt lat="47.66829" lon="9.0747">
        <ele>427.9</ele>
      </trkpt>
      <trkpt lat="47.66832" lon="9.07476">
        <ele>427.4</ele>
      </trkpt>
      <trkpt lat="47.66817" lon="9.07574">
        <ele>425.3</ele>
      </trkpt>
      <trkpt lat="47.66809" lon="9.07625">
        <ele>424.6</ele>
      </trkpt>
      <trkpt lat="47.66799" lon="9.07712">
        <ele>424.1</ele>
      </trkpt>
      <trkpt lat="47.66793" lon="9.0776">
        <ele>424.1</ele>
      </trkpt>
      <trkpt lat="47.66831" lon="9.07775">
        <ele>420.1</ele>
      </trkpt>
      <trkpt lat="47.66831" lon="9.07776">
        <ele>419.9</ele>
      </trkpt>
      <trkpt lat="47.66832" lon="9.07779">
        <ele>419.8</ele>
      </trkpt>
      <trkpt lat="47.66832" lon="9.07782">
        <ele>419.5</ele>
      </trkpt>
      <trkpt lat="47.66832" lon="9.07815">
        <ele>418.1</ele>
      </trkpt>
      <trkpt lat="47.66832" lon="9.07817">
        <ele>418</ele>
      </trkpt>
      <trkpt lat="47.6683" lon="9.07887">
        <ele>416.1</ele>
      </trkpt>
      <trkpt lat="47.66829" lon="9.07947">
        <ele>415.3</ele>
      </trkpt>
      <trkpt lat="47.66831" lon="9.0798">
        <ele>415.1</ele>
      </trkpt>
      <trkpt lat="47.66833" lon="9.08021">
        <ele>414.5</ele>
      </trkpt>
      <trkpt lat="47.66833" lon="9.08026">
        <ele>414.4</ele>
      </trkpt>
      <trkpt lat="47.66816" lon="9.08026">
        <ele>415</ele>
      </trkpt>
      <trkpt lat="47.6681" lon="9.08052">
        <ele>414.6</ele>
      </trkpt>
      <trkpt lat="47.66808" lon="9.08064">
        <ele>414.4</ele>
      </trkpt>
      <trkpt lat="47.66807" lon="9.08075">
        <ele>414.2</ele>
      </trkpt>
      <trkpt lat="47.66803" lon="9.08096">
        <ele>413.8</ele>
      </trkpt>
      <trkpt lat="47.66801" lon="9.08116">
        <ele>413.4</ele>
      </trkpt>
      <trkpt lat="47.66797" lon="9.08149">
        <ele>413</ele>
      </trkpt>
      <trkpt lat="47.66794" lon="9.0816">
        <ele>413</ele>
      </trkpt>
      <trkpt lat="47.66788" lon="9.08172">
        <ele>413.4</ele>
      </trkpt>
      <trkpt lat="47.6678" lon="9.08186">
        <ele>414.3</ele>
      </trkpt>
      <trkpt lat="47.66768" lon="9.0821">
        <ele>415.9</ele>
      </trkpt>
      <trkpt lat="47.66758" lon="9.08235">
        <ele>417.7</ele>
      </trkpt>
      <trkpt lat="47.66749" lon="9.08271">
        <ele>419.3</ele>
      </trkpt>
      <trkpt lat="47.66743" lon="9.08294">
        <ele>420.8</ele>
      </trkpt>
      <trkpt lat="47.66741" lon="9.08307">
        <ele>421.5</ele>
      </trkpt>
      <trkpt lat="47.6674" lon="9.08318">
        <ele>421.7</ele>
      </trkpt>
      <trkpt lat="47.66742" lon="9.08322">
        <ele>421.2</ele>
      </trkpt>
      <trkpt lat="47.66739" lon="9.08329">
        <ele>422.1</ele>
      </trkpt>
      <trkpt lat="47.66735" lon="9.08338">
        <ele>423</ele>
      </trkpt>
      <trkpt lat="47.66717" lon="9.08387">
        <ele>426.6</ele>
      </trkpt>
      <trkpt lat="47.66714" lon="9.08396">
        <ele>427.2</ele>
      </trkpt>
      <trkpt lat="47.66677" lon="9.0849">
        <ele>434.4</ele>
      </trkpt>
      <trkpt lat="47.66674" lon="9.08486">
        <ele>435.3</ele>
      </trkpt>
      <trkpt lat="47.66673" lon="9.0848">
        <ele>435.8</ele>
      </trkpt>
      <trkpt lat="47.66685" lon="9.08414">
        <ele>434.2</ele>
      </trkpt>
      <trkpt lat="47.66665" lon="9.08405">
        <ele>439.7</ele>
      </trkpt>
      <trkpt lat="47.66648" lon="9.08392">
        <ele>443.5</ele>
      </trkpt>
      <trkpt lat="47.66646" lon="9.08392">
        <ele>443.9</ele>
      </trkpt>
      <trkpt lat="47.6663" lon="9.0838">
        <ele>447.1</ele>
      </trkpt>
      <trkpt lat="47.66621" lon="9.08374">
        <ele>448.8</ele>
      </trkpt>
      <trkpt lat="47.66608" lon="9.08368">
        <ele>451.1</ele>
      </trkpt>
      <trkpt lat="47.66602" lon="9.08366">
        <ele>452.2</ele>
      </trkpt>
      <trkpt lat="47.66581" lon="9.08358">
        <ele>455.6</ele>
      </trkpt>
      <trkpt lat="47.66562" lon="9.08351">
        <ele>458.9</ele>
      </trkpt>
      <trkpt lat="47.66543" lon="9.0835">
        <ele>462.3</ele>
      </trkpt>
      <trkpt lat="47.66518" lon="9.08343">
        <ele>466.7</ele>
      </trkpt>
      <trkpt lat="47.66507" lon="9.08344">
        <ele>468.7</ele>
      </trkpt>
      <trkpt lat="47.66493" lon="9.08358">
        <ele>469</ele>
      </trkpt>
      <trkpt lat="47.6648" lon="9.0838">
        <ele>467.7</ele>
      </trkpt>
      <trkpt lat="47.66471" lon="9.08414">
        <ele>466.9</ele>
      </trkpt>
      <trkpt lat="47.66463" lon="9.08455">
        <ele>467.1</ele>
      </trkpt>
      <trkpt lat="47.66454" lon="9.08493">
        <ele>467.8</ele>
      </trkpt>
      <trkpt lat="47.66442" lon="9.08519">
        <ele>468.4</ele>
      </trkpt>
      <trkpt lat="47.66418" lon="9.08559">
        <ele>470.1</ele>
      </trkpt>
      <trkpt lat="47.66396" lon="9.08596">
        <ele>470.5</ele>
      </trkpt>
      <trkpt lat="47.66333" lon="9.08705">
        <ele>477.3</ele>
      </trkpt>
      <trkpt lat="47.66328" lon="9.08714">
        <ele>477.4</ele>
      </trkpt>
      <trkpt lat="47.66338" lon="9.08716">
        <ele>477.4</ele>
      </trkpt>
      <trkpt lat="47.66394" lon="9.08735">
        <ele>472.5</ele>
      </trkpt>
      <trkpt lat="47.66416" lon="9.08741">
        <ele>470.3</ele>
      </trkpt>
      <trkpt lat="47.66382" lon="9.08838">
        <ele>473.3</ele>
      </trkpt>
      <trkpt lat="47.6636" lon="9.08888">
        <ele>473.4</ele>
      </trkpt>
      <trkpt lat="47.66307" lon="9.09003">
        <ele>473.6</ele>
      </trkpt>
      <trkpt lat="47.66275" lon="9.09076">
        <ele>474.3</ele>
      </trkpt>
      <trkpt lat="47.66266" lon="9.09097">
        <ele>474.8</ele>
      </trkpt>
      <trkpt lat="47.6624" lon="9.09143">
        <ele>475.5</ele>
      </trkpt>
      <trkpt lat="47.66188" lon="9.09265">
        <ele>474</ele>
      </trkpt>
      <trkpt lat="47.66171" lon="9.09311">
        <ele>474.4</ele>
      </trkpt>
      <trkpt lat="47.66151" lon="9.09379">
        <ele>472.1</ele>
      </trkpt>
      <trkpt lat="47.6614" lon="9.09393">
        <ele>472.4</ele>
      </trkpt>
      <trkpt lat="47.66106" lon="9.09426">
        <ele>475.6</ele>
      </trkpt>
      <trkpt lat="47.66093" lon="9.09447">
        <ele>477.4</ele>
      </trkpt>
      <trkpt lat="47.66096" lon="9.09462">
        <ele>476.8</ele>
      </trkpt>
      <trkpt lat="47.66109" lon="9.09495">
        <ele>473.6</ele>
      </trkpt>
      <trkpt lat="47.66115" lon="9.0952">
        <ele>471.4</ele>
      </trkpt>
      <trkpt lat="47.6611" lon="9.09546">
        <ele>471.8</ele>
      </trkpt>
      <trkpt lat="47.66088" lon="9.09597">
        <ele>475.3</ele>
      </trkpt>
      <trkpt lat="47.66058" lon="9.09653">
        <ele>476.7</ele>
      </trkpt>
      <trkpt lat="47.66003" lon="9.09755">
        <ele>478.7</ele>
      </trkpt>
      <trkpt lat="47.6598" lon="9.09818">
        <ele>473.3</ele>
      </trkpt>
      <trkpt lat="47.65967" lon="9.09829">
        <ele>473.2</ele>
      </trkpt>
      <trkpt lat="47.6594" lon="9.09829">
        <ele>475.3</ele>
      </trkpt>
      <trkpt lat="47.6591" lon="9.09826">
        <ele>477.7</ele>
      </trkpt>
      <trkpt lat="47.65902" lon="9.09831">
        <ele>478.2</ele>
      </trkpt>
      <trkpt lat="47.65899" lon="9.09842">
        <ele>477.8</ele>
      </trkpt>
      <trkpt lat="47.65883" lon="9.09906">
        <ele>475.9</ele>
      </trkpt>
      <trkpt lat="47.65866" lon="9.09979">
        <ele>476.4</ele>
      </trkpt>
      <trkpt lat="47.6583" lon="9.1009">
        <ele>479.5</ele>
      </trkpt>
      <trkpt lat="47.65809" lon="9.10137">
        <ele>481.9</ele>
      </trkpt>
      <trkpt lat="47.65777" lon="9.10204">
        <ele>484</ele>
      </trkpt>
      <trkpt lat="47.65775" lon="9.10221">
        <ele>484.3</ele>
      </trkpt>
      <trkpt lat="47.65776" lon="9.10236">
        <ele>484.3</ele>
      </trkpt>
      <trkpt lat="47.65782" lon="9.10251">
        <ele>484.1</ele>
      </trkpt>
      <trkpt lat="47.65792" lon="9.10263">
        <ele>483.3</ele>
      </trkpt>
      <trkpt lat="47.65804" lon="9.10268">
        <ele>482.4</ele>
      </trkpt>
      <trkpt lat="47.6589" lon="9.10303">
        <ele>474.6</ele>
      </trkpt>
      <trkpt lat="47.65904" lon="9.10302">
        <ele>473.3</ele>
      </trkpt>
      <trkpt lat="47.65915" lon="9.1029">
        <ele>472.7</ele>
      </trkpt>
      <trkpt lat="47.65954" lon="9.1025">
        <ele>468.6</ele>
      </trkpt>
      <trkpt lat="47.65969" lon="9.10257">
        <ele>466.2</ele>
      </trkpt>
      <trkpt lat="47.65968" lon="9.10337">
        <ele>463</ele>
      </trkpt>
      <trkpt lat="47.65968" lon="9.10359">
        <ele>462.9</ele>
      </trkpt>
      <trkpt lat="47.65977" lon="9.10381">
        <ele>461.8</ele>
      </trkpt>
      <trkpt lat="47.65985" lon="9.10388">
        <ele>460.6</ele>
      </trkpt>
      <trkpt lat="47.65995" lon="9.10397">
        <ele>459.5</ele>
      </trkpt>
      <trkpt lat="47.66003" lon="9.10395">
        <ele>458.2</ele>
      </trkpt>
      <trkpt lat="47.66014" lon="9.10404">
        <ele>456.4</ele>
      </trkpt>
      <trkpt lat="47.66024" lon="9.10414">
        <ele>454.6</ele>
      </trkpt>
      <trkpt lat="47.66028" lon="9.10428">
        <ele>453.6</ele>
      </trkpt>
      <trkpt lat="47.66033" lon="9.10479">
        <ele>451.3</ele>
      </trkpt>
      <trkpt lat="47.66038" lon="9.10527">
        <ele>448.8</ele>
      </trkpt>
      <trkpt lat="47.6604" lon="9.10539">
        <ele>447.9</ele>
      </trkpt>
      <trkpt lat="47.66043" lon="9.10557">
        <ele>446.7</ele>
      </trkpt>
      <trkpt lat="47.6605" lon="9.10627">
        <ele>441.7</ele>
      </trkpt>
      <trkpt lat="47.66056" lon="9.10696">
        <ele>436.4</ele>
      </trkpt>
      <trkpt lat="47.66084" lon="9.10707">
        <ele>430</ele>
      </trkpt>
      <trkpt lat="47.66099" lon="9.1071">
        <ele>428.1</ele>
      </trkpt>
      <trkpt lat="47.66127" lon="9.10726">
        <ele>424.1</ele>
      </trkpt>
      <trkpt lat="47.66211" lon="9.10778">
        <ele>411.3</ele>
      </trkpt>
      <trkpt lat="47.66204" lon="9.10808">
        <ele>411.3</ele>
      </trkpt>
      <trkpt lat="47.66197" lon="9.10828">
        <ele>411.6</ele>
      </trkpt>
      <trkpt lat="47.6622" lon="9.10841">
        <ele>408.5</ele>
      </trkpt>
      <trkpt lat="47.66226" lon="9.10845">
        <ele>407.7</ele>
      </trkpt>
      <trkpt lat="47.66241" lon="9.10856">
        <ele>405.8</ele>
      </trkpt>
      <trkpt lat="47.66243" lon="9.10859">
        <ele>405.5</ele>
      </trkpt>
      <trkpt lat="47.66245" lon="9.1087">
        <ele>405.2</ele>
      </trkpt>
      <trkpt lat="47.66249" lon="9.10879">
        <ele>404.6</ele>
      </trkpt>
      <trkpt lat="47.66257" lon="9.10883">
        <ele>403.8</ele>
      </trkpt>
      <trkpt lat="47.66264" lon="9.10885">
        <ele>403.2</ele>
      </trkpt>
      <trkpt lat="47.66273" lon="9.10884">
        <ele>402.6</ele>
      </trkpt>
      <trkpt lat="47.66276" lon="9.10884">
        <ele>402.4</ele>
      </trkpt>
      <trkpt lat="47.66287" lon="9.10886">
        <ele>401.5</ele>
      </trkpt>
      <trkpt lat="47.66291" lon="9.10889">
        <ele>401.1</ele>
      </trkpt>
      <trkpt lat="47.66308" lon="9.10996">
        <ele>399.5</ele>
      </trkpt>
      <trkpt lat="47.66309" lon="9.11002">
        <ele>399.5</ele>
      </trkpt>
      <trkpt lat="47.66315" lon="9.11025">
        <ele>399.4</ele>
      </trkpt>
      <trkpt lat="47.66316" lon="9.11042">
        <ele>399.6</ele>
      </trkpt>
      <trkpt lat="47.66322" lon="9.11041">
        <ele>399.2</ele>
      </trkpt>
      <trkpt lat="47.66327" lon="9.11038">
        <ele>398.9</ele>
      </trkpt>
      <trkpt lat="47.66333" lon="9.11036">
        <ele>398.5</ele>
      </trkpt>
      <trkpt lat="47.66341" lon="9.1104">
        <ele>398.3</ele>
      </trkpt>
      <trkpt lat="47.66349" lon="9.11043">
        <ele>398.2</ele>
      </trkpt>
      <trkpt lat="47.66353" lon="9.11056">
        <ele>398.3</ele>
      </trkpt>
      <trkpt lat="47.66351" lon="9.11067">
        <ele>398.4</ele>
      </trkpt>
      <trkpt lat="47.66342" lon="9.11084">
        <ele>398.8</ele>
      </trkpt>
      <trkpt lat="47.66335" lon="9.11102">
        <ele>398.7</ele>
      </trkpt>
      <trkpt lat="47.66333" lon="9.11116">
        <ele>398.6</ele>
      </trkpt>
      <trkpt lat="47.66332" lon="9.11174">
        <ele>398</ele>
      </trkpt>
      <trkpt lat="47.66328" lon="9.11216">
        <ele>397.5</ele>
      </trkpt>
      <trkpt lat="47.66325" lon="9.11256">
        <ele>397.1</ele>
      </trkpt>
      <trkpt lat="47.66327" lon="9.1129">
        <ele>396.3</ele>
      </trkpt>
      <trkpt lat="47.66334" lon="9.1134">
        <ele>395.1</ele>
      </trkpt>
      <trkpt lat="47.66335" lon="9.1136">
        <ele>395.3</ele>
      </trkpt>
      <trkpt lat="47.66335" lon="9.1141">
        <ele>395.9</ele>
      </trkpt>
      <trkpt lat="47.6632" lon="9.1162">
        <ele>398.6</ele>
      </trkpt>
      <trkpt lat="47.66315" lon="9.11681">
        <ele>398.9</ele>
      </trkpt>
      <trkpt lat="47.66304" lon="9.11749">
        <ele>398.4</ele>
      </trkpt>
      <trkpt lat="47.66301" lon="9.11805">
        <ele>397.9</ele>
      </trkpt>
      <trkpt lat="47.66282" lon="9.12133">
        <ele>396.5</ele>
      </trkpt>
      <trkpt lat="47.66356" lon="9.12144">
        <ele>397.7</ele>
      </trkpt>
      <trkpt lat="47.66382" lon="9.1215">
        <ele>397</ele>
      </trkpt>
      <trkpt lat="47.66384" lon="9.12157">
        <ele>396.9</ele>
      </trkpt>
      <trkpt lat="47.66375" lon="9.12233">
        <ele>395.4</ele>
      </trkpt>
      <trkpt lat="47.66376" lon="9.1227">
        <ele>395</ele>
      </trkpt>
      <trkpt lat="47.6638" lon="9.1243">
        <ele>395.3</ele>
      </trkpt>
      <trkpt lat="47.66375" lon="9.12519">
        <ele>395.5</ele>
      </trkpt>
      <trkpt lat="47.66374" lon="9.12533">
        <ele>395.8</ele>
      </trkpt>
      <trkpt lat="47.6637" lon="9.12914">
        <ele>396.9</ele>
      </trkpt>
      <trkpt lat="47.6637" lon="9.12933">
        <ele>397.4</ele>
      </trkpt>
      <trkpt lat="47.6637" lon="9.12954">
        <ele>398</ele>
      </trkpt>
      <trkpt lat="47.66368" lon="9.13123">
        <ele>398.4</ele>
      </trkpt>
      <trkpt lat="47.66431" lon="9.13176">
        <ele>398.4</ele>
      </trkpt>
      <trkpt lat="47.6651" lon="9.13251">
        <ele>394.6</ele>
      </trkpt>
      <trkpt lat="47.66505" lon="9.13271">
        <ele>394.1</ele>
      </trkpt>
      <trkpt lat="47.66503" lon="9.13278">
        <ele>393.9</ele>
      </trkpt>
      <trkpt lat="47.66494" lon="9.13321">
        <ele>393</ele>
      </trkpt>
      <trkpt lat="47.66496" lon="9.13325">
        <ele>392.6</ele>
      </trkpt>
      <trkpt lat="47.66485" lon="9.13373">
        <ele>393.4</ele>
      </trkpt>
      <trkpt lat="47.66483" lon="9.13377">
        <ele>393.6</ele>
      </trkpt>
      <trkpt lat="47.66471" lon="9.13419">
        <ele>394.8</ele>
      </trkpt>
      <trkpt lat="47.66468" lon="9.13432">
        <ele>395.1</ele>
      </trkpt>
      <trkpt lat="47.66461" lon="9.13462">
        <ele>395.7</ele>
      </trkpt>
      <trkpt lat="47.66455" lon="9.13488">
        <ele>396.3</ele>
      </trkpt>
      <trkpt lat="47.66448" lon="9.13514">
        <ele>397.2</ele>
      </trkpt>
      <trkpt lat="47.66434" lon="9.13511">
        <ele>398.6</ele>
      </trkpt>
      <trkpt lat="47.66424" lon="9.13508">
        <ele>399.5</ele>
      </trkpt>
      <trkpt lat="47.66415" lon="9.13506">
        <ele>400.2</ele>
      </trkpt>
      <trkpt lat="47.66403" lon="9.13503">
        <ele>400.7</ele>
      </trkpt>
      <trkpt lat="47.66399" lon="9.13503">
        <ele>400.9</ele>
      </trkpt>
      <trkpt lat="47.66394" lon="9.13503">
        <ele>401.1</ele>
      </trkpt>
      <trkpt lat="47.66385" lon="9.13503">
        <ele>401.6</ele>
      </trkpt>
      <trkpt lat="47.66374" lon="9.13501">
        <ele>402.1</ele>
      </trkpt>
      <trkpt lat="47.66353" lon="9.13489">
        <ele>402.6</ele>
      </trkpt>
      <trkpt lat="47.66326" lon="9.13475">
        <ele>403</ele>
      </trkpt>
      <trkpt lat="47.66308" lon="9.13471">
        <ele>403.2</ele>
      </trkpt>
      <trkpt lat="47.66301" lon="9.13471">
        <ele>403.4</ele>
      </trkpt>
      <trkpt lat="47.66295" lon="9.13473">
        <ele>403.6</ele>
      </trkpt>
      <trkpt lat="47.66299" lon="9.13481">
        <ele>403.9</ele>
      </trkpt>
      <trkpt lat="47.66315" lon="9.13534">
        <ele>405.4</ele>
      </trkpt>
      <trkpt lat="47.66323" lon="9.1356">
        <ele>406.1</ele>
      </trkpt>
      <trkpt lat="47.66328" lon="9.1359">
        <ele>406.5</ele>
      </trkpt>
      <trkpt lat="47.6633" lon="9.13612">
        <ele>404.8</ele>
      </trkpt>
      <trkpt lat="47.66329" lon="9.13642">
        <ele>402.7</ele>
      </trkpt>
      <trkpt lat="47.66328" lon="9.13665">
        <ele>401</ele>
      </trkpt>
      <trkpt lat="47.66297" lon="9.13878">
        <ele>401.1</ele>
      </trkpt>
      <trkpt lat="47.66293" lon="9.13904">
        <ele>400.7</ele>
      </trkpt>
      <trkpt lat="47.66291" lon="9.13994">
        <ele>398.2</ele>
      </trkpt>
      <trkpt lat="47.66293" lon="9.14017">
        <ele>397.3</ele>
      </trkpt>
      <trkpt lat="47.66296" lon="9.14038">
        <ele>396.5</ele>
      </trkpt>
      <trkpt lat="47.66304" lon="9.14085">
        <ele>394.4</ele>
      </trkpt>
      <trkpt lat="47.66309" lon="9.14124">
        <ele>395.1</ele>
      </trkpt>
      <trkpt lat="47.66312" lon="9.14166">
        <ele>396</ele>
      </trkpt>
      <trkpt lat="47.66312" lon="9.14205">
        <ele>396.3</ele>
      </trkpt>
      <trkpt lat="47.66327" lon="9.14203">
        <ele>396.4</ele>
      </trkpt>
      <trkpt lat="47.6633" lon="9.14204">
        <ele>396.4</ele>
      </trkpt>
      <trkpt lat="47.66332" lon="9.14204">
        <ele>396.4</ele>
      </trkpt>
      <trkpt lat="47.66335" lon="9.14205">
        <ele>396.4</ele>
      </trkpt>
      <trkpt lat="47.66335" lon="9.1421">
        <ele>396.4</ele>
      </trkpt>
      <trkpt lat="47.66335" lon="9.14217">
        <ele>396.5</ele>
      </trkpt>
      <trkpt lat="47.66335" lon="9.14221">
        <ele>396.6</ele>
      </trkpt>
      <trkpt lat="47.66336" lon="9.14224">
        <ele>396.6</ele>
      </trkpt>
      <trkpt lat="47.66338" lon="9.14227">
        <ele>396.4</ele>
      </trkpt>
      <trkpt lat="47.66348" lon="9.1423">
        <ele>395.9</ele>
      </trkpt>
      <trkpt lat="47.66351" lon="9.14231">
        <ele>395.8</ele>
      </trkpt>
      <trkpt lat="47.66362" lon="9.14251">
        <ele>395.3</ele>
      </trkpt>
      <trkpt lat="47.6637" lon="9.14272">
        <ele>394.9</ele>
      </trkpt>
      <trkpt lat="47.66391" lon="9.14317">
        <ele>393.2</ele>
      </trkpt>
      <trkpt lat="47.66402" lon="9.14356">
        <ele>394.6</ele>
      </trkpt>
      <trkpt lat="47.66405" lon="9.14371">
        <ele>396</ele>
      </trkpt>
      <trkpt lat="47.66408" lon="9.14386">
        <ele>397.5</ele>
      </trkpt>
      <trkpt lat="47.66412" lon="9.14421">
        <ele>401.1</ele>
      </trkpt>
      <trkpt lat="47.66414" lon="9.14435">
        <ele>401.8</ele>
      </trkpt>
      <trkpt lat="47.66428" lon="9.14455">
        <ele>401.4</ele>
      </trkpt>
      <trkpt lat="47.66437" lon="9.14481">
        <ele>401.2</ele>
      </trkpt>
      <trkpt lat="47.66446" lon="9.14499">
        <ele>400.4</ele>
      </trkpt>
      <trkpt lat="47.66486" lon="9.14621">
        <ele>402</ele>
      </trkpt>
      <trkpt lat="47.66492" lon="9.14632">
        <ele>402.4</ele>
      </trkpt>
      <trkpt lat="47.66525" lon="9.14688">
        <ele>400.2</ele>
      </trkpt>
      <trkpt lat="47.66541" lon="9.14757">
        <ele>398</ele>
      </trkpt>
      <trkpt lat="47.66576" lon="9.14801">
        <ele>399.6</ele>
      </trkpt>
      <trkpt lat="47.66592" lon="9.14828">
        <ele>402.2</ele>
      </trkpt>
      <trkpt lat="47.66598" lon="9.14867">
        <ele>401.2</ele>
      </trkpt>
      <trkpt lat="47.66601" lon="9.14921">
        <ele>400</ele>
      </trkpt>
      <trkpt lat="47.66599" lon="9.1494">
        <ele>400.6</ele>
      </trkpt>
      <trkpt lat="47.66596" lon="9.14971">
        <ele>401.6</ele>
      </trkpt>
      <trkpt lat="47.66581" lon="9.15014">
        <ele>402.9</ele>
      </trkpt>
      <trkpt lat="47.66527" lon="9.15077">
        <ele>399.3</ele>
      </trkpt>
      <trkpt lat="47.66508" lon="9.15134">
        <ele>400.8</ele>
      </trkpt>
      <trkpt lat="47.66468" lon="9.15262">
        <ele>399.7</ele>
      </trkpt>
      <trkpt lat="47.66454" lon="9.15373">
        <ele>398.9</ele>
      </trkpt>
      <trkpt lat="47.66453" lon="9.15406">
        <ele>399.1</ele>
      </trkpt>
      <trkpt lat="47.66453" lon="9.1542">
        <ele>399</ele>
      </trkpt>
      <trkpt lat="47.66452" lon="9.15452">
        <ele>397.8</ele>
      </trkpt>
      <trkpt lat="47.6647" lon="9.15588">
        <ele>397.9</ele>
      </trkpt>
      <trkpt lat="47.66468" lon="9.15598">
        <ele>397.8</ele>
      </trkpt>
      <trkpt lat="47.66463" lon="9.15609">
        <ele>397.6</ele>
      </trkpt>
      <trkpt lat="47.66403" lon="9.1563">
        <ele>396.6</ele>
      </trkpt>
      <trkpt lat="47.66254" lon="9.1569">
        <ele>396.7</ele>
      </trkpt>
      <trkpt lat="47.66261" lon="9.15732">
        <ele>396.3</ele>
      </trkpt>
      <trkpt lat="47.66272" lon="9.15785">
        <ele>396.5</ele>
      </trkpt>
      <trkpt lat="47.66287" lon="9.15868">
        <ele>397.2</ele>
      </trkpt>
      <trkpt lat="47.66293" lon="9.1591">
        <ele>397.9</ele>
      </trkpt>
      <trkpt lat="47.66285" lon="9.15913">
        <ele>397.9</ele>
      </trkpt>
      <trkpt lat="47.66118" lon="9.15993">
        <ele>397</ele>
      </trkpt>
      <trkpt lat="47.66127" lon="9.16037">
        <ele>396.1</ele>
      </trkpt>
      <trkpt lat="47.66122" lon="9.16104">
        <ele>395.3</ele>
      </trkpt>
      <trkpt lat="47.66118" lon="9.16158">
        <ele>395.9</ele>
      </trkpt>
      <trkpt lat="47.66114" lon="9.16201">
        <ele>397.2</ele>
      </trkpt>
      <trkpt lat="47.66101" lon="9.16236">
        <ele>398.5</ele>
      </trkpt>
      <trkpt lat="47.66083" lon="9.16257">
        <ele>399.1</ele>
      </trkpt>
      <trkpt lat="47.66067" lon="9.16281">
        <ele>399.2</ele>
      </trkpt>
      <trkpt lat="47.66057" lon="9.16303">
        <ele>399.2</ele>
      </trkpt>
      <trkpt lat="47.66027" lon="9.16343">
        <ele>398.6</ele>
      </trkpt>
      <trkpt lat="47.65969" lon="9.16275">
        <ele>398.2</ele>
      </trkpt>
      <trkpt lat="47.65963" lon="9.16261">
        <ele>398.1</ele>
      </trkpt>
      <trkpt lat="47.65955" lon="9.16263">
        <ele>397.9</ele>
      </trkpt>
      <trkpt lat="47.65926" lon="9.16287">
        <ele>397.6</ele>
      </trkpt>
      <trkpt lat="47.65851" lon="9.16346">
        <ele>397</ele>
      </trkpt>
      <trkpt lat="47.65842" lon="9.16356">
        <ele>396.8</ele>
      </trkpt>
      <trkpt lat="47.65824" lon="9.16384">
        <ele>396.5</ele>
      </trkpt>
      <trkpt lat="47.65804" lon="9.16427">
        <ele>396.3</ele>
      </trkpt>
      <trkpt lat="47.65791" lon="9.16461">
        <ele>396.2</ele>
      </trkpt>
      <trkpt lat="47.65774" lon="9.16521">
        <ele>395.9</ele>
      </trkpt>
      <trkpt lat="47.65766" lon="9.16554">
        <ele>395.9</ele>
      </trkpt>
      <trkpt lat="47.6576" lon="9.16564">
        <ele>395.9</ele>
      </trkpt>
      <trkpt lat="47.6575" lon="9.16569">
        <ele>396</ele>
      </trkpt>
      <trkpt lat="47.65729" lon="9.16575">
        <ele>396.5</ele>
      </trkpt>
      <trkpt lat="47.65719" lon="9.16574">
        <ele>396.7</ele>
      </trkpt>
      <trkpt lat="47.65718" lon="9.16586">
        <ele>396.8</ele>
      </trkpt>
      <trkpt lat="47.65717" lon="9.16596">
        <ele>397.1</ele>
      </trkpt>
      <trkpt lat="47.65716" lon="9.16604">
        <ele>397.4</ele>
      </trkpt>
      <trkpt lat="47.65718" lon="9.16922">
        <ele>399.6</ele>
      </trkpt>
      <trkpt lat="47.65718" lon="9.16922">
        <ele>399.6</ele>
      </trkpt>
      <trkpt lat="47.66646" lon="9.17474">
        <ele>404.4</ele>
      </trkpt>
      <trkpt lat="47.66646" lon="9.17474">
        <ele>404.4</ele>
      </trkpt>
      <trkpt lat="47.66576" lon="9.1782">
        <ele>394</ele>
      </trkpt>
      <trkpt lat="47.66576" lon="9.1782">
        <ele>394</ele>
      </trkpt>
      <trkpt lat="47.66641" lon="9.17996">
        <ele>399.5</ele>
      </trkpt>
      <trkpt lat="47.66646" lon="9.1813">
        <ele>408.9</ele>
      </trkpt>
      <trkpt lat="47.66609" lon="9.18227">
        <ele>406.9</ele>
      </trkpt>
      <trkpt lat="47.66686" lon="9.18797">
        <ele>400.5</ele>
      </trkpt>
      <trkpt lat="47.66662" lon="9.19125">
        <ele>401</ele>
      </trkpt>
      <trkpt lat="47.66494" lon="9.19902">
        <ele>405.3</ele>
      </trkpt>
      <trkpt lat="47.66314" lon="9.20709">
        <ele>400.7</ele>
      </trkpt>
      <trkpt lat="47.66621" lon="9.21741">
        <ele>399.4</ele>
      </trkpt>
      <trkpt lat="47.66928" lon="9.21516">
        <ele>408.1</ele>
      </trkpt>
      <trkpt lat="47.67308" lon="9.21207">
        <ele>402</ele>
      </trkpt>
      <trkpt lat="47.67712" lon="9.20988">
        <ele>405.4</ele>
      </trkpt>
      <trkpt lat="47.67806" lon="9.20994">
        <ele>404.5</ele>
      </trkpt>
      <trkpt lat="47.68219" lon="9.21158">
        <ele>395.6</ele>
      </trkpt>
      <trkpt lat="47.68219" lon="9.21158">
        <ele>395.6</ele>
      </trkpt>
      <trkpt lat="47.68241" lon="9.21157">
        <ele>394.8</ele>
      </trkpt>
      <trkpt lat="47.68266" lon="9.21229">
        <ele>394.2</ele>
      </trkpt>
      <trkpt lat="47.68285" lon="9.21305">
        <ele>394.5</ele>
      </trkpt>
      <trkpt lat="47.68688" lon="9.22139">
        <ele>392</ele>
      </trkpt>
      <trkpt lat="47.69128" lon="9.23754">
        <ele>392</ele>
      </trkpt>
      <trkpt lat="47.69551" lon="9.25524">
        <ele>392</ele>
      </trkpt>
      <trkpt lat="47.69619" lon="9.25871">
        <ele>392</ele>
      </trkpt>
      <trkpt lat="47.6962" lon="9.26043">
        <ele>392</ele>
      </trkpt>
      <trkpt lat="47.69605" lon="9.26179">
        <ele>394.6</ele>
      </trkpt>
      <trkpt lat="47.69585" lon="9.26255">
        <ele>399</ele>
      </trkpt>
      <trkpt lat="47.69567" lon="9.26321">
        <ele>397</ele>
      </trkpt>
      <trkpt lat="47.6953" lon="9.26403">
        <ele>397.2</ele>
      </trkpt>
      <trkpt lat="47.69494" lon="9.26462">
        <ele>397.3</ele>
      </trkpt>
      <trkpt lat="47.69478" lon="9.26488">
        <ele>397.5</ele>
      </trkpt>
      <trkpt lat="47.69465" lon="9.26473">
        <ele>396.4</ele>
      </trkpt>
      <trkpt lat="47.69462" lon="9.26473">
        <ele>396.2</ele>
      </trkpt>
      <trkpt lat="47.69456" lon="9.26478">
        <ele>396.1</ele>
      </trkpt>
      <trkpt lat="47.69451" lon="9.26479">
        <ele>395.9</ele>
      </trkpt>
      <trkpt lat="47.69419" lon="9.2653">
        <ele>395.9</ele>
      </trkpt>
      <trkpt lat="47.69411" lon="9.2655">
        <ele>395.9</ele>
      </trkpt>
      <trkpt lat="47.69413" lon="9.26555">
        <ele>396.1</ele>
      </trkpt>
      <trkpt lat="47.69412" lon="9.26562">
        <ele>396.3</ele>
      </trkpt>
      <trkpt lat="47.6941" lon="9.26568">
        <ele>396.3</ele>
      </trkpt>
      <trkpt lat="47.69406" lon="9.26572">
        <ele>396.1</ele>
      </trkpt>
      <trkpt lat="47.69404" lon="9.26587">
        <ele>396.3</ele>
      </trkpt>
      <trkpt lat="47.69401" lon="9.26617">
        <ele>396.7</ele>
      </trkpt>
      <trkpt lat="47.69398" lon="9.26668">
        <ele>397.5</ele>
      </trkpt>
      <trkpt lat="47.69396" lon="9.26689">
        <ele>398.3</ele>
      </trkpt>
      <trkpt lat="47.69386" lon="9.26813">
        <ele>403.1</ele>
      </trkpt>
      <trkpt lat="47.69386" lon="9.26829">
        <ele>404</ele>
      </trkpt>
      <trkpt lat="47.6939" lon="9.26846">
        <ele>405.5</ele>
      </trkpt>
      <trkpt lat="47.69391" lon="9.26854">
        <ele>406.2</ele>
      </trkpt>
      <trkpt lat="47.69392" lon="9.26866">
        <ele>406.9</ele>
      </trkpt>
      <trkpt lat="47.69386" lon="9.26888">
        <ele>407.3</ele>
      </trkpt>
      <trkpt lat="47.69381" lon="9.26898">
        <ele>407.1</ele>
      </trkpt>
      <trkpt lat="47.69383" lon="9.26905">
        <ele>407.9</ele>
      </trkpt>
      <trkpt lat="47.69379" lon="9.2691">
        <ele>407.7</ele>
      </trkpt>
      <trkpt lat="47.69377" lon="9.26914">
        <ele>407.5</ele>
      </trkpt>
      <trkpt lat="47.69379" lon="9.2692">
        <ele>408.1</ele>
      </trkpt>
      <trkpt lat="47.69386" lon="9.26932">
        <ele>409.5</ele>
      </trkpt>
      <trkpt lat="47.6941" lon="9.26972">
        <ele>414.7</ele>
      </trkpt>
      <trkpt lat="47.69417" lon="9.26988">
        <ele>416.4</ele>
      </trkpt>
      <trkpt lat="47.6942" lon="9.27">
        <ele>418.1</ele>
      </trkpt>
      <trkpt lat="47.69422" lon="9.27014">
        <ele>419.8</ele>
      </trkpt>
      <trkpt lat="47.69421" lon="9.27035">
        <ele>421.8</ele>
      </trkpt>
      <trkpt lat="47.69416" lon="9.27111">
        <ele>428.2</ele>
      </trkpt>
      <trkpt lat="47.69416" lon="9.27114">
        <ele>428.5</ele>
      </trkpt>
      <trkpt lat="47.69417" lon="9.27119">
        <ele>428.9</ele>
      </trkpt>
      <trkpt lat="47.69417" lon="9.27124">
        <ele>429.5</ele>
      </trkpt>
      <trkpt lat="47.69418" lon="9.27127">
        <ele>429.9</ele>
      </trkpt>
      <trkpt lat="47.69421" lon="9.27135">
        <ele>431.1</ele>
      </trkpt>
      <trkpt lat="47.69432" lon="9.27151">
        <ele>434.3</ele>
      </trkpt>
      <trkpt lat="47.69448" lon="9.27202">
        <ele>439.4</ele>
      </trkpt>
      <trkpt lat="47.69457" lon="9.27234">
        <ele>441.1</ele>
      </trkpt>
      <trkpt lat="47.69454" lon="9.27241">
        <ele>441</ele>
      </trkpt>
      <trkpt lat="47.69462" lon="9.27248">
        <ele>441.7</ele>
      </trkpt>
      <trkpt lat="47.69464" lon="9.27257">
        <ele>442</ele>
      </trkpt>
      <trkpt lat="47.69467" lon="9.27272">
        <ele>442.4</ele>
      </trkpt>
      <trkpt lat="47.69477" lon="9.2729">
        <ele>443.4</ele>
      </trkpt>
      <trkpt lat="47.6948" lon="9.27295">
        <ele>443.7</ele>
      </trkpt>
      <trkpt lat="47.69483" lon="9.27301">
        <ele>444</ele>
      </trkpt>
      <trkpt lat="47.69483" lon="9.27307">
        <ele>444.2</ele>
      </trkpt>
      <trkpt lat="47.69492" lon="9.2731">
        <ele>444.9</ele>
      </trkpt>
      <trkpt lat="47.69495" lon="9.27308">
        <ele>445</ele>
      </trkpt>
      <trkpt lat="47.69499" lon="9.27315">
        <ele>445.5</ele>
      </trkpt>
      <trkpt lat="47.69504" lon="9.27319">
        <ele>446</ele>
      </trkpt>
      <trkpt lat="47.69496" lon="9.27365">
        <ele>447.2</ele>
      </trkpt>
      <trkpt lat="47.69499" lon="9.27363">
        <ele>447.4</ele>
      </trkpt>
      <trkpt lat="47.69502" lon="9.27362">
        <ele>447.6</ele>
      </trkpt>
      <trkpt lat="47.69505" lon="9.27362">
        <ele>447.9</ele>
      </trkpt>
      <trkpt lat="47.69507" lon="9.27363">
        <ele>448.2</ele>
      </trkpt>
      <trkpt lat="47.69509" lon="9.27365">
        <ele>448.5</ele>
      </trkpt>
      <trkpt lat="47.69512" lon="9.2737">
        <ele>449.1</ele>
      </trkpt>
      <trkpt lat="47.69515" lon="9.27374">
        <ele>449.6</ele>
      </trkpt>
      <trkpt lat="47.69519" lon="9.27385">
        <ele>450.7</ele>
      </trkpt>
      <trkpt lat="47.69523" lon="9.27402">
        <ele>452</ele>
      </trkpt>
      <trkpt lat="47.69527" lon="9.27422">
        <ele>453.4</ele>
      </trkpt>
      <trkpt lat="47.69528" lon="9.27423">
        <ele>453.5</ele>
      </trkpt>
      <trkpt lat="47.69531" lon="9.27422">
        <ele>453.9</ele>
      </trkpt>
      <trkpt lat="47.69533" lon="9.27422">
        <ele>454.1</ele>
      </trkpt>
      <trkpt lat="47.69534" lon="9.27428">
        <ele>454.4</ele>
      </trkpt>
      <trkpt lat="47.69537" lon="9.27455">
        <ele>455.4</ele>
      </trkpt>
      <trkpt lat="47.69538" lon="9.27473">
        <ele>456</ele>
      </trkpt>
      <trkpt lat="47.69538" lon="9.27488">
        <ele>456.5</ele>
      </trkpt>
      <trkpt lat="47.69538" lon="9.27491">
        <ele>456.5</ele>
      </trkpt>
      <trkpt lat="47.69537" lon="9.27509">
        <ele>456.8</ele>
      </trkpt>
      <trkpt lat="47.69534" lon="9.27535">
        <ele>457</ele>
      </trkpt>
      <trkpt lat="47.6953" lon="9.2756">
        <ele>456.9</ele>
      </trkpt>
      <trkpt lat="47.69522" lon="9.27593">
        <ele>456.6</ele>
      </trkpt>
      <trkpt lat="47.69513" lon="9.27634">
        <ele>456.4</ele>
      </trkpt>
      <trkpt lat="47.69511" lon="9.27649">
        <ele>456.6</ele>
      </trkpt>
      <trkpt lat="47.69512" lon="9.27667">
        <ele>457</ele>
      </trkpt>
      <trkpt lat="47.69516" lon="9.27682">
        <ele>457.9</ele>
      </trkpt>
      <trkpt lat="47.69524" lon="9.27692">
        <ele>458.9</ele>
      </trkpt>
      <trkpt lat="47.69541" lon="9.27701">
        <ele>460.7</ele>
      </trkpt>
      <trkpt lat="47.69556" lon="9.27709">
        <ele>462.2</ele>
      </trkpt>
      <trkpt lat="47.6956" lon="9.27711">
        <ele>462.7</ele>
      </trkpt>
      <trkpt lat="47.69565" lon="9.27719">
        <ele>463.3</ele>
      </trkpt>
      <trkpt lat="47.69594" lon="9.27768">
        <ele>466.8</ele>
      </trkpt>
      <trkpt lat="47.69634" lon="9.27832">
        <ele>468.6</ele>
      </trkpt>
      <trkpt lat="47.69657" lon="9.2787">
        <ele>468.9</ele>
      </trkpt>
      <trkpt lat="47.69686" lon="9.27918">
        <ele>470.3</ele>
      </trkpt>
      <trkpt lat="47.69691" lon="9.27926">
        <ele>470.4</ele>
      </trkpt>
      <trkpt lat="47.69695" lon="9.27932">
        <ele>470.3</ele>
      </trkpt>
      <trkpt lat="47.6971" lon="9.27957">
        <ele>469.9</ele>
      </trkpt>
      <trkpt lat="47.69727" lon="9.27975">
        <ele>469.4</ele>
      </trkpt>
      <trkpt lat="47.69738" lon="9.27985">
        <ele>469</ele>
      </trkpt>
      <trkpt lat="47.69743" lon="9.2799">
        <ele>468.8</ele>
      </trkpt>
      <trkpt lat="47.69755" lon="9.27992">
        <ele>468.8</ele>
      </trkpt>
      <trkpt lat="47.69765" lon="9.27992">
        <ele>469.1</ele>
      </trkpt>
      <trkpt lat="47.69769" lon="9.27991">
        <ele>469.3</ele>
      </trkpt>
      <trkpt lat="47.69778" lon="9.28001">
        <ele>469</ele>
      </trkpt>
      <trkpt lat="47.69786" lon="9.2801">
        <ele>469.3</ele>
      </trkpt>
      <trkpt lat="47.69789" lon="9.28019">
        <ele>469.4</ele>
      </trkpt>
      <trkpt lat="47.69809" lon="9.28034">
        <ele>470.3</ele>
      </trkpt>
      <trkpt lat="47.6983" lon="9.28049">
        <ele>471.4</ele>
      </trkpt>
      <trkpt lat="47.69866" lon="9.28076">
        <ele>473.1</ele>
      </trkpt>
      <trkpt lat="47.69882" lon="9.28091">
        <ele>473.9</ele>
      </trkpt>
      <trkpt lat="47.69899" lon="9.28109">
        <ele>474.7</ele>
      </trkpt>
      <trkpt lat="47.69916" lon="9.28128">
        <ele>475.5</ele>
      </trkpt>
      <trkpt lat="47.69923" lon="9.28137">
        <ele>476.4</ele>
      </trkpt>
      <trkpt lat="47.69944" lon="9.28168">
        <ele>479.3</ele>
      </trkpt>
      <trkpt lat="47.6996" lon="9.28202">
        <ele>481</ele>
      </trkpt>
      <trkpt lat="47.69975" lon="9.2824">
        <ele>482</ele>
      </trkpt>
      <trkpt lat="47.69998" lon="9.28345">
        <ele>482.8</ele>
      </trkpt>
      <trkpt lat="47.70016" lon="9.28405">
        <ele>485.1</ele>
      </trkpt>
      <trkpt lat="47.7004" lon="9.28452">
        <ele>488.3</ele>
      </trkpt>
      <trkpt lat="47.70077" lon="9.28498">
        <ele>491.5</ele>
      </trkpt>
      <trkpt lat="47.70086" lon="9.28498">
        <ele>492.2</ele>
      </trkpt>
      <trkpt lat="47.70096" lon="9.2851">
        <ele>492.9</ele>
      </trkpt>
      <trkpt lat="47.70088" lon="9.28518">
        <ele>492.5</ele>
      </trkpt>
      <trkpt lat="47.70076" lon="9.2853">
        <ele>491.7</ele>
      </trkpt>
      <trkpt lat="47.70037" lon="9.28568">
        <ele>488.5</ele>
      </trkpt>
      <trkpt lat="47.70017" lon="9.28591">
        <ele>487.1</ele>
      </trkpt>
      <trkpt lat="47.69995" lon="9.28617">
        <ele>486.5</ele>
      </trkpt>
      <trkpt lat="47.69963" lon="9.28662">
        <ele>485.3</ele>
      </trkpt>
      <trkpt lat="47.69945" lon="9.28694">
        <ele>485.2</ele>
      </trkpt>
      <trkpt lat="47.69934" lon="9.28717">
        <ele>485</ele>
      </trkpt>
      <trkpt lat="47.69927" lon="9.28733">
        <ele>484.8</ele>
      </trkpt>
      <trkpt lat="47.69922" lon="9.28735">
        <ele>484.1</ele>
      </trkpt>
      <trkpt lat="47.69917" lon="9.28732">
        <ele>483.1</ele>
      </trkpt>
      <trkpt lat="47.69899" lon="9.2872">
        <ele>480.6</ele>
      </trkpt>
      <trkpt lat="47.69889" lon="9.28718">
        <ele>479.5</ele>
      </trkpt>
      <trkpt lat="47.69878" lon="9.28779">
        <ele>480.4</ele>
      </trkpt>
      <trkpt lat="47.69867" lon="9.28847">
        <ele>481.1</ele>
      </trkpt>
      <trkpt lat="47.69871" lon="9.28849">
        <ele>481.6</ele>
      </trkpt>
      <trkpt lat="47.69873" lon="9.28852">
        <ele>482.1</ele>
      </trkpt>
      <trkpt lat="47.69874" lon="9.28859">
        <ele>482.4</ele>
      </trkpt>
      <trkpt lat="47.69866" lon="9.28894">
        <ele>481.6</ele>
      </trkpt>
      <trkpt lat="47.69861" lon="9.28919">
        <ele>481</ele>
      </trkpt>
      <trkpt lat="47.69847" lon="9.28988">
        <ele>478.5</ele>
      </trkpt>
      <trkpt lat="47.69843" lon="9.29005">
        <ele>478</ele>
      </trkpt>
      <trkpt lat="47.69831" lon="9.29043">
        <ele>478.4</ele>
      </trkpt>
      <trkpt lat="47.69806" lon="9.29093">
        <ele>479.5</ele>
      </trkpt>
      <trkpt lat="47.69787" lon="9.29139">
        <ele>480.6</ele>
      </trkpt>
      <trkpt lat="47.69772" lon="9.29186">
        <ele>481</ele>
      </trkpt>
      <trkpt lat="47.69759" lon="9.2924">
        <ele>481.6</ele>
      </trkpt>
      <trkpt lat="47.6974" lon="9.29294">
        <ele>480.4</ele>
      </trkpt>
      <trkpt lat="47.69732" lon="9.29323">
        <ele>479.4</ele>
      </trkpt>
      <trkpt lat="47.69726" lon="9.29328">
        <ele>479</ele>
      </trkpt>
      <trkpt lat="47.69719" lon="9.29325">
        <ele>478.7</ele>
      </trkpt>
      <trkpt lat="47.69715" lon="9.29321">
        <ele>478.6</ele>
      </trkpt>
      <trkpt lat="47.69709" lon="9.29321">
        <ele>478.3</ele>
      </trkpt>
      <trkpt lat="47.6969" lon="9.29344">
        <ele>476.7</ele>
      </trkpt>
      <trkpt lat="47.69666" lon="9.29375">
        <ele>474.5</ele>
      </trkpt>
      <trkpt lat="47.69655" lon="9.29392">
        <ele>474.2</ele>
      </trkpt>
      <trkpt lat="47.69656" lon="9.29399">
        <ele>473.9</ele>
      </trkpt>
      <trkpt lat="47.69655" lon="9.29406">
        <ele>473.6</ele>
      </trkpt>
      <trkpt lat="47.69648" lon="9.29427">
        <ele>472.9</ele>
      </trkpt>
      <trkpt lat="47.69638" lon="9.29453">
        <ele>472.2</ele>
      </trkpt>
      <trkpt lat="47.69633" lon="9.29474">
        <ele>471.5</ele>
      </trkpt>
      <trkpt lat="47.69629" lon="9.29497">
        <ele>470.7</ele>
      </trkpt>
      <trkpt lat="47.69631" lon="9.29508">
        <ele>470.8</ele>
      </trkpt>
      <trkpt lat="47.69633" lon="9.29525">
        <ele>471.4</ele>
      </trkpt>
      <trkpt lat="47.6964" lon="9.29544">
        <ele>472.1</ele>
      </trkpt>
      <trkpt lat="47.69654" lon="9.2958">
        <ele>473.6</ele>
      </trkpt>
      <trkpt lat="47.69659" lon="9.29605">
        <ele>474.3</ele>
      </trkpt>
      <trkpt lat="47.6966" lon="9.2962">
        <ele>474.7</ele>
      </trkpt>
      <trkpt lat="47.69661" lon="9.29633">
        <ele>475</ele>
      </trkpt>
      <trkpt lat="47.69655" lon="9.29675">
        <ele>475.5</ele>
      </trkpt>
      <trkpt lat="47.69651" lon="9.2972">
        <ele>474.9</ele>
      </trkpt>
      <trkpt lat="47.69647" lon="9.29772">
        <ele>475.1</ele>
      </trkpt>
      <trkpt lat="47.69642" lon="9.29772">
        <ele>474.9</ele>
      </trkpt>
      <trkpt lat="47.6964" lon="9.29794">
        <ele>475.4</ele>
      </trkpt>
      <trkpt lat="47.6964" lon="9.29829">
        <ele>476.3</ele>
      </trkpt>
      <trkpt lat="47.69643" lon="9.29882">
        <ele>475.4</ele>
      </trkpt>
      <trkpt lat="47.69642" lon="9.29909">
        <ele>474.7</ele>
      </trkpt>
      <trkpt lat="47.69638" lon="9.2995">
        <ele>474.4</ele>
      </trkpt>
      <trkpt lat="47.69636" lon="9.29978">
        <ele>474.1</ele>
      </trkpt>
      <trkpt lat="47.69636" lon="9.30013">
        <ele>473.9</ele>
      </trkpt>
      <trkpt lat="47.69637" lon="9.30044">
        <ele>474</ele>
      </trkpt>
      <trkpt lat="47.6964" lon="9.30075">
        <ele>474.4</ele>
      </trkpt>
      <trkpt lat="47.69644" lon="9.30097">
        <ele>474.9</ele>
      </trkpt>
      <trkpt lat="47.69649" lon="9.30109">
        <ele>475.5</ele>
      </trkpt>
      <trkpt lat="47.69657" lon="9.30119">
        <ele>476.4</ele>
      </trkpt>
      <trkpt lat="47.69667" lon="9.30124">
        <ele>477.5</ele>
      </trkpt>
      <trkpt lat="47.6968" lon="9.30129">
        <ele>478.4</ele>
      </trkpt>
      <trkpt lat="47.6971" lon="9.30138">
        <ele>480.3</ele>
      </trkpt>
      <trkpt lat="47.69721" lon="9.30144">
        <ele>480.9</ele>
      </trkpt>
      <trkpt lat="47.69731" lon="9.30155">
        <ele>481.3</ele>
      </trkpt>
      <trkpt lat="47.69737" lon="9.30165">
        <ele>481.4</ele>
      </trkpt>
      <trkpt lat="47.69741" lon="9.3018">
        <ele>481.6</ele>
      </trkpt>
      <trkpt lat="47.69744" lon="9.30223">
        <ele>481.7</ele>
      </trkpt>
      <trkpt lat="47.69746" lon="9.30285">
        <ele>481.4</ele>
      </trkpt>
      <trkpt lat="47.69748" lon="9.30308">
        <ele>481.3</ele>
      </trkpt>
      <trkpt lat="47.69752" lon="9.30328">
        <ele>481.1</ele>
      </trkpt>
      <trkpt lat="47.69757" lon="9.30344">
        <ele>481.2</ele>
      </trkpt>
      <trkpt lat="47.69795" lon="9.30453">
        <ele>484.4</ele>
      </trkpt>
      <trkpt lat="47.698" lon="9.30461">
        <ele>484.8</ele>
      </trkpt>
      <trkpt lat="47.69827" lon="9.30514">
        <ele>487.3</ele>
      </trkpt>
      <trkpt lat="47.69836" lon="9.30531">
        <ele>488.4</ele>
      </trkpt>
      <trkpt lat="47.69902" lon="9.30613">
        <ele>496.1</ele>
      </trkpt>
      <trkpt lat="47.69916" lon="9.30635">
        <ele>497</ele>
      </trkpt>
      <trkpt lat="47.69934" lon="9.30667">
        <ele>496.2</ele>
      </trkpt>
      <trkpt lat="47.69935" lon="9.30697">
        <ele>495.1</ele>
      </trkpt>
      <trkpt lat="47.69918" lon="9.3079">
        <ele>492.4</ele>
      </trkpt>
      <trkpt lat="47.69908" lon="9.30837">
        <ele>489</ele>
      </trkpt>
      <trkpt lat="47.69903" lon="9.30884">
        <ele>482.2</ele>
      </trkpt>
      <trkpt lat="47.6989" lon="9.31026">
        <ele>470.8</ele>
      </trkpt>
      <trkpt lat="47.69885" lon="9.31096">
        <ele>469.1</ele>
      </trkpt>
      <trkpt lat="47.69883" lon="9.31131">
        <ele>468.9</ele>
      </trkpt>
      <trkpt lat="47.69893" lon="9.31149">
        <ele>469.3</ele>
      </trkpt>
      <trkpt lat="47.69916" lon="9.31178">
        <ele>470.3</ele>
      </trkpt>
      <trkpt lat="47.69952" lon="9.31214">
        <ele>468.2</ele>
      </trkpt>
      <trkpt lat="47.69979" lon="9.31236">
        <ele>467.3</ele>
      </trkpt>
      <trkpt lat="47.70012" lon="9.31264">
        <ele>466.3</ele>
      </trkpt>
      <trkpt lat="47.70032" lon="9.31282">
        <ele>466</ele>
      </trkpt>
      <trkpt lat="47.70053" lon="9.31307">
        <ele>466.1</ele>
      </trkpt>
      <trkpt lat="47.70079" lon="9.31348">
        <ele>467.2</ele>
      </trkpt>
      <trkpt lat="47.70095" lon="9.31359">
        <ele>468.5</ele>
      </trkpt>
      <trkpt lat="47.70113" lon="9.31368">
        <ele>470.5</ele>
      </trkpt>
      <trkpt lat="47.70118" lon="9.31379">
        <ele>470.8</ele>
      </trkpt>
      <trkpt lat="47.70122" lon="9.31387">
        <ele>471</ele>
      </trkpt>
      <trkpt lat="47.70126" lon="9.31402">
        <ele>471</ele>
      </trkpt>
      <trkpt lat="47.70133" lon="9.31435">
        <ele>470.6</ele>
      </trkpt>
      <trkpt lat="47.70149" lon="9.31481">
        <ele>469.7</ele>
      </trkpt>
      <trkpt lat="47.70166" lon="9.31521">
        <ele>469.2</ele>
      </trkpt>
      <trkpt lat="47.70189" lon="9.31556">
        <ele>468.4</ele>
      </trkpt>
      <trkpt lat="47.70212" lon="9.31591">
        <ele>466.3</ele>
      </trkpt>
      <trkpt lat="47.70229" lon="9.31609">
        <ele>464.5</ele>
      </trkpt>
      <trkpt lat="47.70247" lon="9.31622">
        <ele>462.9</ele>
      </trkpt>
      <trkpt lat="47.7027" lon="9.31624">
        <ele>460.9</ele>
      </trkpt>
      <trkpt lat="47.70295" lon="9.31621">
        <ele>458.8</ele>
      </trkpt>
      <trkpt lat="47.70351" lon="9.316">
        <ele>455.4</ele>
      </trkpt>
      <trkpt lat="47.70407" lon="9.31569">
        <ele>452.1</ele>
      </trkpt>
      <trkpt lat="47.70442" lon="9.31546">
        <ele>451.3</ele>
      </trkpt>
      <trkpt lat="47.70458" lon="9.31527">
        <ele>451.1</ele>
      </trkpt>
      <trkpt lat="47.70466" lon="9.31516">
        <ele>450.8</ele>
      </trkpt>
      <trkpt lat="47.70473" lon="9.31507">
        <ele>450.4</ele>
      </trkpt>
      <trkpt lat="47.70479" lon="9.31498">
        <ele>450.1</ele>
      </trkpt>
      <trkpt lat="47.70484" lon="9.31495">
        <ele>449.7</ele>
      </trkpt>
      <trkpt lat="47.70487" lon="9.31494">
        <ele>449.5</ele>
      </trkpt>
      <trkpt lat="47.70491" lon="9.31496">
        <ele>448.9</ele>
      </trkpt>
      <trkpt lat="47.70497" lon="9.31503">
        <ele>448.3</ele>
      </trkpt>
      <trkpt lat="47.70501" lon="9.31514">
        <ele>447.9</ele>
      </trkpt>
      <trkpt lat="47.70512" lon="9.31549">
        <ele>447.3</ele>
      </trkpt>
      <trkpt lat="47.70516" lon="9.31562">
        <ele>447.2</ele>
      </trkpt>
      <trkpt lat="47.70514" lon="9.31581">
        <ele>447.3</ele>
      </trkpt>
      <trkpt lat="47.70506" lon="9.31593">
        <ele>447.8</ele>
      </trkpt>
      <trkpt lat="47.70503" lon="9.31597">
        <ele>447.9</ele>
      </trkpt>
      <trkpt lat="47.70525" lon="9.31649">
        <ele>447.3</ele>
      </trkpt>
      <trkpt lat="47.70533" lon="9.3166">
        <ele>447.1</ele>
      </trkpt>
      <trkpt lat="47.70557" lon="9.31682">
        <ele>446.9</ele>
      </trkpt>
      <trkpt lat="47.70578" lon="9.3171">
        <ele>447.1</ele>
      </trkpt>
      <trkpt lat="47.70589" lon="9.31726">
        <ele>447.8</ele>
      </trkpt>
      <trkpt lat="47.70593" lon="9.31732">
        <ele>448.2</ele>
      </trkpt>
      <trkpt lat="47.70598" lon="9.31738">
        <ele>448.6</ele>
      </trkpt>
      <trkpt lat="47.70626" lon="9.31779">
        <ele>451.4</ele>
      </trkpt>
      <trkpt lat="47.70657" lon="9.31828">
        <ele>453.7</ele>
      </trkpt>
      <trkpt lat="47.7066" lon="9.31834">
        <ele>453.9</ele>
      </trkpt>
      <trkpt lat="47.70664" lon="9.31845">
        <ele>455.4</ele>
      </trkpt>
      <trkpt lat="47.70673" lon="9.31869">
        <ele>458.1</ele>
      </trkpt>
      <trkpt lat="47.70689" lon="9.31917">
        <ele>460.2</ele>
      </trkpt>
      <trkpt lat="47.70702" lon="9.31958">
        <ele>455.9</ele>
      </trkpt>
      <trkpt lat="47.70715" lon="9.32003">
        <ele>451.6</ele>
      </trkpt>
      <trkpt lat="47.70727" lon="9.3205">
        <ele>450.8</ele>
      </trkpt>
      <trkpt lat="47.70737" lon="9.32081">
        <ele>451.6</ele>
      </trkpt>
      <trkpt lat="47.70742" lon="9.32102">
        <ele>455.2</ele>
      </trkpt>
      <trkpt lat="47.70749" lon="9.32147">
        <ele>464.1</ele>
      </trkpt>
      <trkpt lat="47.70753" lon="9.3218">
        <ele>468.7</ele>
      </trkpt>
      <trkpt lat="47.70761" lon="9.32207">
        <ele>470</ele>
      </trkpt>
      <trkpt lat="47.70767" lon="9.32237">
        <ele>471.6</ele>
      </trkpt>
      <trkpt lat="47.70771" lon="9.32259">
        <ele>472.1</ele>
      </trkpt>
      <trkpt lat="47.70753" lon="9.32269">
        <ele>473.3</ele>
      </trkpt>
      <trkpt lat="47.70733" lon="9.32272">
        <ele>474.2</ele>
      </trkpt>
      <trkpt lat="47.70733" lon="9.32281">
        <ele>473.8</ele>
      </trkpt>
      <trkpt lat="47.70737" lon="9.32294">
        <ele>473.2</ele>
      </trkpt>
      <trkpt lat="47.70743" lon="9.32309">
        <ele>472.6</ele>
      </trkpt>
      <trkpt lat="47.7075" lon="9.32326">
        <ele>472.2</ele>
      </trkpt>
      <trkpt lat="47.70758" lon="9.32348">
        <ele>470.3</ele>
      </trkpt>
      <trkpt lat="47.70765" lon="9.32367">
        <ele>468.1</ele>
      </trkpt>
      <trkpt lat="47.70767" lon="9.32386">
        <ele>465.9</ele>
      </trkpt>
      <trkpt lat="47.70766" lon="9.32409">
        <ele>463.9</ele>
      </trkpt>
      <trkpt lat="47.70762" lon="9.32426">
        <ele>463.1</ele>
      </trkpt>
      <trkpt lat="47.70762" lon="9.32454">
        <ele>461.8</ele>
      </trkpt>
      <trkpt lat="47.70762" lon="9.32457">
        <ele>461.6</ele>
      </trkpt>
      <trkpt lat="47.70764" lon="9.32464">
        <ele>461.1</ele>
      </trkpt>
      <trkpt lat="47.70768" lon="9.32476">
        <ele>460</ele>
      </trkpt>
      <trkpt lat="47.70772" lon="9.32489">
        <ele>458.9</ele>
      </trkpt>
      <trkpt lat="47.70777" lon="9.32507">
        <ele>457.5</ele>
      </trkpt>
      <trkpt lat="47.70779" lon="9.32521">
        <ele>456.5</ele>
      </trkpt>
      <trkpt lat="47.7078" lon="9.32532">
        <ele>455.9</ele>
      </trkpt>
      <trkpt lat="47.70779" lon="9.32542">
        <ele>455.5</ele>
      </trkpt>
      <trkpt lat="47.70782" lon="9.32561">
        <ele>454.1</ele>
      </trkpt>
      <trkpt lat="47.70778" lon="9.3257">
        <ele>454.3</ele>
      </trkpt>
      <trkpt lat="47.70774" lon="9.32581">
        <ele>454.4</ele>
      </trkpt>
      <trkpt lat="47.7077" lon="9.32594">
        <ele>454.7</ele>
      </trkpt>
      <trkpt lat="47.70774" lon="9.326">
        <ele>454</ele>
      </trkpt>
      <trkpt lat="47.7078" lon="9.32607">
        <ele>452.9</ele>
      </trkpt>
      <trkpt lat="47.7079" lon="9.32619">
        <ele>451.2</ele>
      </trkpt>
      <trkpt lat="47.70796" lon="9.32627">
        <ele>450</ele>
      </trkpt>
      <trkpt lat="47.70801" lon="9.32631">
        <ele>449.1</ele>
      </trkpt>
      <trkpt lat="47.70803" lon="9.32658">
        <ele>448.3</ele>
      </trkpt>
      <trkpt lat="47.70866" lon="9.32682">
        <ele>441.7</ele>
      </trkpt>
      <trkpt lat="47.70892" lon="9.32706">
        <ele>441.1</ele>
      </trkpt>
      <trkpt lat="47.70927" lon="9.32743">
        <ele>440.1</ele>
      </trkpt>
      <trkpt lat="47.70952" lon="9.32766">
        <ele>440.5</ele>
      </trkpt>
      <trkpt lat="47.70981" lon="9.32778">
        <ele>439.2</ele>
      </trkpt>
      <trkpt lat="47.71012" lon="9.32778">
        <ele>437.6</ele>
      </trkpt>
      <trkpt lat="47.71032" lon="9.32786">
        <ele>437.4</ele>
      </trkpt>
      <trkpt lat="47.71045" lon="9.32809">
        <ele>437.2</ele>
      </trkpt>
      <trkpt lat="47.71098" lon="9.32904">
        <ele>436.6</ele>
      </trkpt>
      <trkpt lat="47.71058" lon="9.32956">
        <ele>440.5</ele>
      </trkpt>
      <trkpt lat="47.71047" lon="9.3297">
        <ele>441</ele>
      </trkpt>
      <trkpt lat="47.71024" lon="9.32996">
        <ele>440.5</ele>
      </trkpt>
      <trkpt lat="47.7103" lon="9.33032">
        <ele>436.1</ele>
      </trkpt>
      <trkpt lat="47.71041" lon="9.33082">
        <ele>430.6</ele>
      </trkpt>
      <trkpt lat="47.71051" lon="9.33124">
        <ele>425.9</ele>
      </trkpt>
      <trkpt lat="47.7106" lon="9.33182">
        <ele>420.1</ele>
      </trkpt>
      <trkpt lat="47.71068" lon="9.33242">
        <ele>418.8</ele>
      </trkpt>
      <trkpt lat="47.7107" lon="9.33312">
        <ele>418.8</ele>
      </trkpt>
      <trkpt lat="47.7107" lon="9.33381">
        <ele>419.4</ele>
      </trkpt>
      <trkpt lat="47.71069" lon="9.33414">
        <ele>419.8</ele>
      </trkpt>
      <trkpt lat="47.71064" lon="9.33454">
        <ele>420.2</ele>
      </trkpt>
      <trkpt lat="47.71055" lon="9.33497">
        <ele>420.6</ele>
      </trkpt>
      <trkpt lat="47.7105" lon="9.33522">
        <ele>420.4</ele>
      </trkpt>
      <trkpt lat="47.71047" lon="9.33544">
        <ele>420.3</ele>
      </trkpt>
      <trkpt lat="47.71015" lon="9.33731">
        <ele>422.7</ele>
      </trkpt>
      <trkpt lat="47.71009" lon="9.33751">
        <ele>423.4</ele>
      </trkpt>
      <trkpt lat="47.71011" lon="9.33757">
        <ele>423.9</ele>
      </trkpt>
      <trkpt lat="47.71054" lon="9.33752">
        <ele>425.2</ele>
      </trkpt>
      <trkpt lat="47.71072" lon="9.33749">
        <ele>425.5</ele>
      </trkpt>
      <trkpt lat="47.71086" lon="9.33745">
        <ele>425.3</ele>
      </trkpt>
      <trkpt lat="47.71101" lon="9.33739">
        <ele>424</ele>
      </trkpt>
      <trkpt lat="47.71102" lon="9.33746">
        <ele>424.4</ele>
      </trkpt>
      <trkpt lat="47.71103" lon="9.33757">
        <ele>425.5</ele>
      </trkpt>
      <trkpt lat="47.71102" lon="9.33773">
        <ele>427.5</ele>
      </trkpt>
      <trkpt lat="47.71101" lon="9.33785">
        <ele>429.1</ele>
      </trkpt>
      <trkpt lat="47.711" lon="9.33808">
        <ele>432.2</ele>
      </trkpt>
      <trkpt lat="47.71102" lon="9.33828">
        <ele>434.3</ele>
      </trkpt>
      <trkpt lat="47.71107" lon="9.33846">
        <ele>433.9</ele>
      </trkpt>
      <trkpt lat="47.71113" lon="9.33864">
        <ele>432.6</ele>
      </trkpt>
      <trkpt lat="47.71121" lon="9.33881">
        <ele>431.2</ele>
      </trkpt>
      <trkpt lat="47.7113" lon="9.33895">
        <ele>429.8</ele>
      </trkpt>
      <trkpt lat="47.71139" lon="9.33906">
        <ele>428.7</ele>
      </trkpt>
      <trkpt lat="47.71149" lon="9.33916">
        <ele>427.7</ele>
      </trkpt>
      <trkpt lat="47.71159" lon="9.33926">
        <ele>426.7</ele>
      </trkpt>
      <trkpt lat="47.71168" lon="9.33935">
        <ele>425.9</ele>
      </trkpt>
      <trkpt lat="47.7118" lon="9.33947">
        <ele>425.5</ele>
      </trkpt>
      <trkpt lat="47.71192" lon="9.33959">
        <ele>425.3</ele>
      </trkpt>
      <trkpt lat="47.71198" lon="9.33965">
        <ele>425.2</ele>
      </trkpt>
      <trkpt lat="47.71203" lon="9.33973">
        <ele>425.3</ele>
      </trkpt>
      <trkpt lat="47.71207" lon="9.3398">
        <ele>425.4</ele>
      </trkpt>
      <trkpt lat="47.71211" lon="9.33989">
        <ele>425.7</ele>
      </trkpt>
      <trkpt lat="47.71219" lon="9.3401">
        <ele>426.5</ele>
      </trkpt>
      <trkpt lat="47.71223" lon="9.34022">
        <ele>427.2</ele>
      </trkpt>
      <trkpt lat="47.71227" lon="9.34033">
        <ele>427.8</ele>
      </trkpt>
      <trkpt lat="47.71231" lon="9.34046">
        <ele>428.5</ele>
      </trkpt>
      <trkpt lat="47.71234" lon="9.34062">
        <ele>429.5</ele>
      </trkpt>
      <trkpt lat="47.71237" lon="9.34076">
        <ele>430.3</ele>
      </trkpt>
      <trkpt lat="47.71237" lon="9.34089">
        <ele>430.4</ele>
      </trkpt>
      <trkpt lat="47.71236" lon="9.34102">
        <ele>429.9</ele>
      </trkpt>
      <trkpt lat="47.71234" lon="9.34115">
        <ele>429.4</ele>
      </trkpt>
      <trkpt lat="47.71232" lon="9.34127">
        <ele>429</ele>
      </trkpt>
      <trkpt lat="47.71227" lon="9.34146">
        <ele>428.6</ele>
      </trkpt>
      <trkpt lat="47.71218" lon="9.34167">
        <ele>428.7</ele>
      </trkpt>
      <trkpt lat="47.71212" lon="9.34186">
        <ele>428.8</ele>
      </trkpt>
      <trkpt lat="47.71204" lon="9.34211">
        <ele>429.2</ele>
      </trkpt>
      <trkpt lat="47.71203" lon="9.34218">
        <ele>429.3</ele>
      </trkpt>
      <trkpt lat="47.71216" lon="9.34262">
        <ele>427</ele>
      </trkpt>
      <trkpt lat="47.71236" lon="9.34299">
        <ele>425.2</ele>
      </trkpt>
      <trkpt lat="47.71259" lon="9.3434">
        <ele>426</ele>
      </trkpt>
      <trkpt lat="47.71281" lon="9.34381">
        <ele>428.5</ele>
      </trkpt>
      <trkpt lat="47.71301" lon="9.34422">
        <ele>431.4</ele>
      </trkpt>
      <trkpt lat="47.71318" lon="9.34459">
        <ele>435.1</ele>
      </trkpt>
      <trkpt lat="47.71328" lon="9.34491">
        <ele>437.3</ele>
      </trkpt>
      <trkpt lat="47.71343" lon="9.34517">
        <ele>438.3</ele>
      </trkpt>
      <trkpt lat="47.71353" lon="9.3453">
        <ele>438.4</ele>
      </trkpt>
      <trkpt lat="47.71374" lon="9.3455">
        <ele>437.9</ele>
      </trkpt>
      <trkpt lat="47.71388" lon="9.34567">
        <ele>437.5</ele>
      </trkpt>
      <trkpt lat="47.71424" lon="9.34605">
        <ele>437.5</ele>
      </trkpt>
      <trkpt lat="47.71451" lon="9.34632">
        <ele>438.5</ele>
      </trkpt>
      <trkpt lat="47.71454" lon="9.34641">
        <ele>438.8</ele>
      </trkpt>
      <trkpt lat="47.71455" lon="9.34647">
        <ele>439</ele>
      </trkpt>
      <trkpt lat="47.71455" lon="9.34655">
        <ele>439.3</ele>
      </trkpt>
      <trkpt lat="47.71453" lon="9.34678">
        <ele>439.9</ele>
      </trkpt>
      <trkpt lat="47.71451" lon="9.34711">
        <ele>440.2</ele>
      </trkpt>
      <trkpt lat="47.71444" lon="9.34773">
        <ele>441.6</ele>
      </trkpt>
      <trkpt lat="47.71441" lon="9.34833">
        <ele>443.4</ele>
      </trkpt>
      <trkpt lat="47.71441" lon="9.3487">
        <ele>444.5</ele>
      </trkpt>
      <trkpt lat="47.71464" lon="9.34949">
        <ele>443.6</ele>
      </trkpt>
      <trkpt lat="47.71472" lon="9.34999">
        <ele>441.7</ele>
      </trkpt>
      <trkpt lat="47.71475" lon="9.3502">
        <ele>439.9</ele>
      </trkpt>
      <trkpt lat="47.71471" lon="9.35047">
        <ele>438.9</ele>
      </trkpt>
      <trkpt lat="47.71445" lon="9.35155">
        <ele>441.9</ele>
      </trkpt>
      <trkpt lat="47.7143" lon="9.35215">
        <ele>443.9</ele>
      </trkpt>
      <trkpt lat="47.71417" lon="9.35283">
        <ele>444.2</ele>
      </trkpt>
      <trkpt lat="47.71407" lon="9.35338">
        <ele>444.8</ele>
      </trkpt>
      <trkpt lat="47.71403" lon="9.35366">
        <ele>445.2</ele>
      </trkpt>
      <trkpt lat="47.71398" lon="9.35393">
        <ele>445.5</ele>
      </trkpt>
      <trkpt lat="47.71411" lon="9.35397">
        <ele>442.7</ele>
      </trkpt>
      <trkpt lat="47.71413" lon="9.35408">
        <ele>442.1</ele>
      </trkpt>
      <trkpt lat="47.71416" lon="9.35421">
        <ele>440.9</ele>
      </trkpt>
      <trkpt lat="47.71423" lon="9.35435">
        <ele>439.9</ele>
      </trkpt>
      <trkpt lat="47.7145" lon="9.35475">
        <ele>437.9</ele>
      </trkpt>
      <trkpt lat="47.71463" lon="9.35495">
        <ele>437.5</ele>
      </trkpt>
      <trkpt lat="47.71472" lon="9.35504">
        <ele>437.4</ele>
      </trkpt>
      <trkpt lat="47.71488" lon="9.3551">
        <ele>437.5</ele>
      </trkpt>
      <trkpt lat="47.71507" lon="9.35516">
        <ele>437.9</ele>
      </trkpt>
      <trkpt lat="47.7153" lon="9.35528">
        <ele>438.8</ele>
      </trkpt>
      <trkpt lat="47.71545" lon="9.35543">
        <ele>439.6</ele>
      </trkpt>
      <trkpt lat="47.71555" lon="9.35559">
        <ele>440.2</ele>
      </trkpt>
      <trkpt lat="47.71564" lon="9.35577">
        <ele>440.8</ele>
      </trkpt>
      <trkpt lat="47.7157" lon="9.35603">
        <ele>440.8</ele>
      </trkpt>
      <trkpt lat="47.71573" lon="9.35619">
        <ele>440.7</ele>
      </trkpt>
      <trkpt lat="47.71575" lon="9.35638">
        <ele>440.5</ele>
      </trkpt>
      <trkpt lat="47.71576" lon="9.35666">
        <ele>440.2</ele>
      </trkpt>
      <trkpt lat="47.71576" lon="9.35721">
        <ele>440.2</ele>
      </trkpt>
      <trkpt lat="47.71583" lon="9.35784">
        <ele>440</ele>
      </trkpt>
      <trkpt lat="47.71587" lon="9.35807">
        <ele>439.8</ele>
      </trkpt>
      <trkpt lat="47.71594" lon="9.35831">
        <ele>439.3</ele>
      </trkpt>
      <trkpt lat="47.71603" lon="9.35854">
        <ele>438.8</ele>
      </trkpt>
      <trkpt lat="47.71627" lon="9.35914">
        <ele>437.4</ele>
      </trkpt>
      <trkpt lat="47.71657" lon="9.35993">
        <ele>435.3</ele>
      </trkpt>
      <trkpt lat="47.7168" lon="9.36052">
        <ele>435.1</ele>
      </trkpt>
      <trkpt lat="47.71687" lon="9.36062">
        <ele>435.4</ele>
      </trkpt>
      <trkpt lat="47.71676" lon="9.36073">
        <ele>435.2</ele>
      </trkpt>
      <trkpt lat="47.71658" lon="9.36087">
        <ele>434.9</ele>
      </trkpt>
      <trkpt lat="47.71645" lon="9.36098">
        <ele>434.9</ele>
      </trkpt>
      <trkpt lat="47.71638" lon="9.36107">
        <ele>434.9</ele>
      </trkpt>
      <trkpt lat="47.71624" lon="9.36119">
        <ele>435.1</ele>
      </trkpt>
      <trkpt lat="47.71613" lon="9.36126">
        <ele>435.3</ele>
      </trkpt>
      <trkpt lat="47.71602" lon="9.36132">
        <ele>435.6</ele>
      </trkpt>
      <trkpt lat="47.71588" lon="9.36137">
        <ele>435.9</ele>
      </trkpt>
      <trkpt lat="47.71574" lon="9.36139">
        <ele>437.1</ele>
      </trkpt>
      <trkpt lat="47.71559" lon="9.3614">
        <ele>438.9</ele>
      </trkpt>
      <trkpt lat="47.71544" lon="9.36139">
        <ele>440.6</ele>
      </trkpt>
      <trkpt lat="47.71532" lon="9.36139">
        <ele>442</ele>
      </trkpt>
      <trkpt lat="47.71522" lon="9.36141">
        <ele>443.3</ele>
      </trkpt>
      <trkpt lat="47.71511" lon="9.36145">
        <ele>445</ele>
      </trkpt>
      <trkpt lat="47.71502" lon="9.36151">
        <ele>446.9</ele>
      </trkpt>
      <trkpt lat="47.71491" lon="9.36162">
        <ele>449.8</ele>
      </trkpt>
      <trkpt lat="47.7147" lon="9.3618">
        <ele>454.8</ele>
      </trkpt>
      <trkpt lat="47.71431" lon="9.36237">
        <ele>461.9</ele>
      </trkpt>
      <trkpt lat="47.71413" lon="9.36255">
        <ele>463.1</ele>
      </trkpt>
      <trkpt lat="47.71386" lon="9.36275">
        <ele>463.3</ele>
      </trkpt>
      <trkpt lat="47.71365" lon="9.36291">
        <ele>463.5</ele>
      </trkpt>
      <trkpt lat="47.7129" lon="9.3635">
        <ele>463.1</ele>
      </trkpt>
      <trkpt lat="47.71301" lon="9.36566">
        <ele>455.2</ele>
      </trkpt>
      <trkpt lat="47.71314" lon="9.3685">
        <ele>443.9</ele>
      </trkpt>
      <trkpt lat="47.71319" lon="9.37129">
        <ele>438</ele>
      </trkpt>
      <trkpt lat="47.71321" lon="9.37131">
        <ele>437.9</ele>
      </trkpt>
      <trkpt lat="47.71323" lon="9.37137">
        <ele>437.6</ele>
      </trkpt>
      <trkpt lat="47.71322" lon="9.37145">
        <ele>437.1</ele>
      </trkpt>
      <trkpt lat="47.71323" lon="9.37162">
        <ele>436</ele>
      </trkpt>
      <trkpt lat="47.71341" lon="9.37229">
        <ele>431.4</ele>
      </trkpt>
      <trkpt lat="47.71342" lon="9.3724">
        <ele>430.7</ele>
      </trkpt>
      <trkpt lat="47.71399" lon="9.37329">
        <ele>430</ele>
      </trkpt>
      <trkpt lat="47.71422" lon="9.37367">
        <ele>429.5</ele>
      </trkpt>
      <trkpt lat="47.71473" lon="9.37449">
        <ele>427</ele>
      </trkpt>
      <trkpt lat="47.71487" lon="9.37471">
        <ele>426.5</ele>
      </trkpt>
      <trkpt lat="47.71499" lon="9.37486">
        <ele>426.2</ele>
      </trkpt>
      <trkpt lat="47.7152" lon="9.37515">
        <ele>425.1</ele>
      </trkpt>
      <trkpt lat="47.71536" lon="9.37535">
        <ele>424.4</ele>
      </trkpt>
      <trkpt lat="47.71549" lon="9.37554">
        <ele>424</ele>
      </trkpt>
      <trkpt lat="47.71552" lon="9.3756">
        <ele>423.9</ele>
      </trkpt>
      <trkpt lat="47.71569" lon="9.37594">
        <ele>423.8</ele>
      </trkpt>
      <trkpt lat="47.71585" lon="9.37621">
        <ele>424</ele>
      </trkpt>
      <trkpt lat="47.716" lon="9.37645">
        <ele>424.4</ele>
      </trkpt>
      <trkpt lat="47.71615" lon="9.37669">
        <ele>424.8</ele>
      </trkpt>
      <trkpt lat="47.7165" lon="9.37716">
        <ele>425.5</ele>
      </trkpt>
      <trkpt lat="47.71655" lon="9.37725">
        <ele>425.6</ele>
      </trkpt>
      <trkpt lat="47.71662" lon="9.3773">
        <ele>425.8</ele>
      </trkpt>
      <trkpt lat="47.71752" lon="9.37846">
        <ele>428.7</ele>
      </trkpt>
      <trkpt lat="47.71769" lon="9.37874">
        <ele>430.3</ele>
      </trkpt>
      <trkpt lat="47.71802" lon="9.37926">
        <ele>431.4</ele>
      </trkpt>
      <trkpt lat="47.71808" lon="9.37935">
        <ele>431.4</ele>
      </trkpt>
      <trkpt lat="47.71804" lon="9.37942">
        <ele>431.4</ele>
      </trkpt>
      <trkpt lat="47.7181" lon="9.37951">
        <ele>431.5</ele>
      </trkpt>
      <trkpt lat="47.71805" lon="9.37958">
        <ele>431.5</ele>
      </trkpt>
      <trkpt lat="47.71799" lon="9.37969">
        <ele>431.5</ele>
      </trkpt>
      <trkpt lat="47.71796" lon="9.37981">
        <ele>431.5</ele>
      </trkpt>
      <trkpt lat="47.71788" lon="9.38009">
        <ele>431.4</ele>
      </trkpt>
      <trkpt lat="47.71783" lon="9.38034">
        <ele>431.1</ele>
      </trkpt>
      <trkpt lat="47.71777" lon="9.38067">
        <ele>430.5</ele>
      </trkpt>
      <trkpt lat="47.71775" lon="9.38093">
        <ele>430.2</ele>
      </trkpt>
      <trkpt lat="47.71774" lon="9.38118">
        <ele>430.3</ele>
      </trkpt>
      <trkpt lat="47.71772" lon="9.38187">
        <ele>430.5</ele>
      </trkpt>
      <trkpt lat="47.71772" lon="9.38249">
        <ele>431</ele>
      </trkpt>
      <trkpt lat="47.71771" lon="9.38315">
        <ele>431.6</ele>
      </trkpt>
      <trkpt lat="47.71771" lon="9.38353">
        <ele>431.7</ele>
      </trkpt>
      <trkpt lat="47.7177" lon="9.38393">
        <ele>431.6</ele>
      </trkpt>
      <trkpt lat="47.7177" lon="9.38434">
        <ele>431.7</ele>
      </trkpt>
      <trkpt lat="47.7177" lon="9.38453">
        <ele>431.9</ele>
      </trkpt>
      <trkpt lat="47.7177" lon="9.38479">
        <ele>432.2</ele>
      </trkpt>
      <trkpt lat="47.71769" lon="9.38507">
        <ele>432.6</ele>
      </trkpt>
      <trkpt lat="47.71768" lon="9.3853">
        <ele>433.1</ele>
      </trkpt>
      <trkpt lat="47.71766" lon="9.38546">
        <ele>433.5</ele>
      </trkpt>
      <trkpt lat="47.71761" lon="9.38565">
        <ele>433.8</ele>
      </trkpt>
      <trkpt lat="47.71743" lon="9.38618">
        <ele>434.3</ele>
      </trkpt>
      <trkpt lat="47.71728" lon="9.3866">
        <ele>434.4</ele>
      </trkpt>
      <trkpt lat="47.71719" lon="9.38683">
        <ele>434.7</ele>
      </trkpt>
      <trkpt lat="47.71735" lon="9.38688">
        <ele>435.3</ele>
      </trkpt>
      <trkpt lat="47.71743" lon="9.38691">
        <ele>435.6</ele>
      </trkpt>
      <trkpt lat="47.71774" lon="9.38703">
        <ele>436.9</ele>
      </trkpt>
      <trkpt lat="47.71747" lon="9.38772">
        <ele>437.6</ele>
      </trkpt>
      <trkpt lat="47.71737" lon="9.38797">
        <ele>436.8</ele>
      </trkpt>
      <trkpt lat="47.71718" lon="9.38848">
        <ele>435.5</ele>
      </trkpt>
      <trkpt lat="47.71713" lon="9.38864">
        <ele>435.4</ele>
      </trkpt>
      <trkpt lat="47.71714" lon="9.38882">
        <ele>435.4</ele>
      </trkpt>
      <trkpt lat="47.71727" lon="9.38893">
        <ele>435.8</ele>
      </trkpt>
      <trkpt lat="47.71749" lon="9.38898">
        <ele>436.2</ele>
      </trkpt>
      <trkpt lat="47.71761" lon="9.38901">
        <ele>436.4</ele>
      </trkpt>
      <trkpt lat="47.71782" lon="9.38906">
        <ele>436.9</ele>
      </trkpt>
      <trkpt lat="47.71813" lon="9.38914">
        <ele>437.5</ele>
      </trkpt>
      <trkpt lat="47.71875" lon="9.38928">
        <ele>439.1</ele>
      </trkpt>
      <trkpt lat="47.71895" lon="9.38932">
        <ele>439.6</ele>
      </trkpt>
      <trkpt lat="47.71918" lon="9.38939">
        <ele>440.3</ele>
      </trkpt>
      <trkpt lat="47.71933" lon="9.38948">
        <ele>441.1</ele>
      </trkpt>
      <trkpt lat="47.71957" lon="9.38979">
        <ele>442.5</ele>
      </trkpt>
      <trkpt lat="47.71968" lon="9.38996">
        <ele>443.4</ele>
      </trkpt>
      <trkpt lat="47.71991" lon="9.3903">
        <ele>444.2</ele>
      </trkpt>
      <trkpt lat="47.7199" lon="9.39036">
        <ele>444.1</ele>
      </trkpt>
      <trkpt lat="47.71996" lon="9.39039">
        <ele>444.3</ele>
      </trkpt>
      <trkpt lat="47.72009" lon="9.39045">
        <ele>445.2</ele>
      </trkpt>
      <trkpt lat="47.72031" lon="9.39058">
        <ele>446.8</ele>
      </trkpt>
      <trkpt lat="47.72022" lon="9.39085">
        <ele>445.9</ele>
      </trkpt>
      <trkpt lat="47.72024" lon="9.39096">
        <ele>446.4</ele>
      </trkpt>
      <trkpt lat="47.72021" lon="9.3911">
        <ele>446.5</ele>
      </trkpt>
      <trkpt lat="47.72022" lon="9.39116">
        <ele>446.7</ele>
      </trkpt>
      <trkpt lat="47.72026" lon="9.39119">
        <ele>447.2</ele>
      </trkpt>
      <trkpt lat="47.72032" lon="9.39122">
        <ele>447.8</ele>
      </trkpt>
      <trkpt lat="47.72037" lon="9.39127">
        <ele>448.4</ele>
      </trkpt>
      <trkpt lat="47.72047" lon="9.39132">
        <ele>449.4</ele>
      </trkpt>
      <trkpt lat="47.72044" lon="9.3915">
        <ele>449.7</ele>
      </trkpt>
      <trkpt lat="47.72046" lon="9.39153">
        <ele>450</ele>
      </trkpt>
      <trkpt lat="47.72049" lon="9.39159">
        <ele>450.5</ele>
      </trkpt>
      <trkpt lat="47.72054" lon="9.3918">
        <ele>451.5</ele>
      </trkpt>
      <trkpt lat="47.72058" lon="9.39194">
        <ele>452.3</ele>
      </trkpt>
      <trkpt lat="47.72061" lon="9.39203">
        <ele>452.8</ele>
      </trkpt>
      <trkpt lat="47.72064" lon="9.39212">
        <ele>453.3</ele>
      </trkpt>
      <trkpt lat="47.72067" lon="9.39217">
        <ele>453.9</ele>
      </trkpt>
      <trkpt lat="47.72066" lon="9.39233">
        <ele>454.2</ele>
      </trkpt>
      <trkpt lat="47.72064" lon="9.39349">
        <ele>456.9</ele>
      </trkpt>
      <trkpt lat="47.72068" lon="9.39363">
        <ele>457.8</ele>
      </trkpt>
      <trkpt lat="47.7207" lon="9.39371">
        <ele>458.2</ele>
      </trkpt>
      <trkpt lat="47.7207" lon="9.39372">
        <ele>458.3</ele>
      </trkpt>
      <trkpt lat="47.72081" lon="9.39415">
        <ele>460.6</ele>
      </trkpt>
      <trkpt lat="47.72088" lon="9.3942">
        <ele>461</ele>
      </trkpt>
      <trkpt lat="47.72089" lon="9.39438">
        <ele>461.3</ele>
      </trkpt>
      <trkpt lat="47.72094" lon="9.39462">
        <ele>461.5</ele>
      </trkpt>
      <trkpt lat="47.72098" lon="9.39475">
        <ele>461.7</ele>
      </trkpt>
      <trkpt lat="47.72101" lon="9.39489">
        <ele>461.9</ele>
      </trkpt>
      <trkpt lat="47.72101" lon="9.39501">
        <ele>462</ele>
      </trkpt>
      <trkpt lat="47.72098" lon="9.39523">
        <ele>462.8</ele>
      </trkpt>
      <trkpt lat="47.72084" lon="9.39595">
        <ele>465.3</ele>
      </trkpt>
      <trkpt lat="47.72079" lon="9.39627">
        <ele>465.4</ele>
      </trkpt>
      <trkpt lat="47.72075" lon="9.39659">
        <ele>465.9</ele>
      </trkpt>
      <trkpt lat="47.72074" lon="9.39677">
        <ele>466</ele>
      </trkpt>
      <trkpt lat="47.72068" lon="9.39753">
        <ele>465.8</ele>
      </trkpt>
      <trkpt lat="47.72065" lon="9.39777">
        <ele>466.2</ele>
      </trkpt>
      <trkpt lat="47.72064" lon="9.39793">
        <ele>466.7</ele>
      </trkpt>
      <trkpt lat="47.72068" lon="9.39868">
        <ele>469.9</ele>
      </trkpt>
      <trkpt lat="47.72069" lon="9.39912">
        <ele>472.2</ele>
      </trkpt>
      <trkpt lat="47.72067" lon="9.39936">
        <ele>473.6</ele>
      </trkpt>
      <trkpt lat="47.72067" lon="9.39956">
        <ele>474.7</ele>
      </trkpt>
      <trkpt lat="47.72055" lon="9.40055">
        <ele>478.7</ele>
      </trkpt>
      <trkpt lat="47.72053" lon="9.40097">
        <ele>479.8</ele>
      </trkpt>
      <trkpt lat="47.72055" lon="9.40132">
        <ele>480.1</ele>
      </trkpt>
      <trkpt lat="47.72061" lon="9.40208">
        <ele>480.9</ele>
      </trkpt>
      <trkpt lat="47.72072" lon="9.40365">
        <ele>482.6</ele>
      </trkpt>
      <trkpt lat="47.72079" lon="9.40435">
        <ele>482.5</ele>
      </trkpt>
      <trkpt lat="47.72084" lon="9.40436">
        <ele>482.5</ele>
      </trkpt>
      <trkpt lat="47.72093" lon="9.40444">
        <ele>482.1</ele>
      </trkpt>
      <trkpt lat="47.72095" lon="9.40505">
        <ele>480.8</ele>
      </trkpt>
      <trkpt lat="47.7209" lon="9.40512">
        <ele>480.8</ele>
      </trkpt>
      <trkpt lat="47.72081" lon="9.40535">
        <ele>480.5</ele>
      </trkpt>
      <trkpt lat="47.72063" lon="9.40568">
        <ele>479.7</ele>
      </trkpt>
      <trkpt lat="47.72053" lon="9.40592">
        <ele>479.3</ele>
      </trkpt>
      <trkpt lat="47.72045" lon="9.4063">
        <ele>479.1</ele>
      </trkpt>
      <trkpt lat="47.72035" lon="9.4072">
        <ele>477.6</ele>
      </trkpt>
      <trkpt lat="47.72018" lon="9.40829">
        <ele>474.5</ele>
      </trkpt>
      <trkpt lat="47.71999" lon="9.40892">
        <ele>471.9</ele>
      </trkpt>
      <trkpt lat="47.71987" lon="9.40945">
        <ele>469.7</ele>
      </trkpt>
      <trkpt lat="47.71977" lon="9.40995">
        <ele>467.5</ele>
      </trkpt>
      <trkpt lat="47.71957" lon="9.41037">
        <ele>468.1</ele>
      </trkpt>
      <trkpt lat="47.7195" lon="9.4106">
        <ele>468.9</ele>
      </trkpt>
      <trkpt lat="47.71948" lon="9.41083">
        <ele>469.9</ele>
      </trkpt>
      <trkpt lat="47.71945" lon="9.41131">
        <ele>472.6</ele>
      </trkpt>
      <trkpt lat="47.71934" lon="9.41186">
        <ele>475.1</ele>
      </trkpt>
      <trkpt lat="47.7192" lon="9.41248">
        <ele>479.1</ele>
      </trkpt>
      <trkpt lat="47.71911" lon="9.4129">
        <ele>480.5</ele>
      </trkpt>
      <trkpt lat="47.71903" lon="9.41324">
        <ele>481.5</ele>
      </trkpt>
      <trkpt lat="47.71903" lon="9.41346">
        <ele>481.3</ele>
      </trkpt>
      <trkpt lat="47.71904" lon="9.41357">
        <ele>480.9</ele>
      </trkpt>
      <trkpt lat="47.71903" lon="9.4136">
        <ele>480.5</ele>
      </trkpt>
      <trkpt lat="47.71889" lon="9.4136">
        <ele>478.6</ele>
      </trkpt>
      <trkpt lat="47.71869" lon="9.41364">
        <ele>475.8</ele>
      </trkpt>
      <trkpt lat="47.71849" lon="9.41365">
        <ele>473</ele>
      </trkpt>
      <trkpt lat="47.71826" lon="9.41367">
        <ele>469.8</ele>
      </trkpt>
      <trkpt lat="47.71802" lon="9.41364">
        <ele>466.2</ele>
      </trkpt>
      <trkpt lat="47.71802" lon="9.4128">
        <ele>464.5</ele>
      </trkpt>
      <trkpt lat="47.71801" lon="9.41226">
        <ele>462.6</ele>
      </trkpt>
      <trkpt lat="47.71803" lon="9.41183">
        <ele>461.4</ele>
      </trkpt>
      <trkpt lat="47.71801" lon="9.41175">
        <ele>460.9</ele>
      </trkpt>
      <trkpt lat="47.71789" lon="9.4117">
        <ele>459.9</ele>
      </trkpt>
      <trkpt lat="47.71761" lon="9.41168">
        <ele>457.8</ele>
      </trkpt>
      <trkpt lat="47.71729" lon="9.4116">
        <ele>455.1</ele>
      </trkpt>
      <trkpt lat="47.71701" lon="9.41152">
        <ele>452.7</ele>
      </trkpt>
      <trkpt lat="47.71674" lon="9.41133">
        <ele>450.2</ele>
      </trkpt>
      <trkpt lat="47.71663" lon="9.41116">
        <ele>449.3</ele>
      </trkpt>
      <trkpt lat="47.71642" lon="9.41094">
        <ele>448.4</ele>
      </trkpt>
      <trkpt lat="47.71629" lon="9.41077">
        <ele>448.2</ele>
      </trkpt>
      <trkpt lat="47.71616" lon="9.41055">
        <ele>448.1</ele>
      </trkpt>
      <trkpt lat="47.71609" lon="9.41028">
        <ele>448.3</ele>
      </trkpt>
      <trkpt lat="47.71604" lon="9.40989">
        <ele>448.6</ele>
      </trkpt>
      <trkpt lat="47.71594" lon="9.40987">
        <ele>448.2</ele>
      </trkpt>
      <trkpt lat="47.71589" lon="9.40986">
        <ele>448</ele>
      </trkpt>
      <trkpt lat="47.71583" lon="9.40984">
        <ele>447.8</ele>
      </trkpt>
      <trkpt lat="47.71577" lon="9.40981">
        <ele>447.3</ele>
      </trkpt>
      <trkpt lat="47.71577" lon="9.40969">
        <ele>447.2</ele>
      </trkpt>
      <trkpt lat="47.71577" lon="9.40963">
        <ele>447.1</ele>
      </trkpt>
      <trkpt lat="47.71577" lon="9.40961">
        <ele>447.1</ele>
      </trkpt>
      <trkpt lat="47.71572" lon="9.40964">
        <ele>446.8</ele>
      </trkpt>
      <trkpt lat="47.71558" lon="9.40963">
        <ele>445.8</ele>
      </trkpt>
      <trkpt lat="47.71514" lon="9.40944">
        <ele>442.1</ele>
      </trkpt>
      <trkpt lat="47.71491" lon="9.40931">
        <ele>440.2</ele>
      </trkpt>
      <trkpt lat="47.7148" lon="9.40925">
        <ele>439.5</ele>
      </trkpt>
      <trkpt lat="47.71478" lon="9.40923">
        <ele>439.4</ele>
      </trkpt>
      <trkpt lat="47.71418" lon="9.4087">
        <ele>435.4</ele>
      </trkpt>
      <trkpt lat="47.71387" lon="9.40854">
        <ele>434.6</ele>
      </trkpt>
      <trkpt lat="47.71322" lon="9.40852">
        <ele>434</ele>
      </trkpt>
      <trkpt lat="47.71239" lon="9.40854">
        <ele>432.3</ele>
      </trkpt>
      <trkpt lat="47.71242" lon="9.40861">
        <ele>432.3</ele>
      </trkpt>
      <trkpt lat="47.71251" lon="9.40882">
        <ele>432.4</ele>
      </trkpt>
      <trkpt lat="47.71269" lon="9.40912">
        <ele>432.7</ele>
      </trkpt>
      <trkpt lat="47.7132" lon="9.41022">
        <ele>434.3</ele>
      </trkpt>
      <trkpt lat="47.71332" lon="9.41082">
        <ele>434.9</ele>
      </trkpt>
      <trkpt lat="47.71339" lon="9.41134">
        <ele>435.2</ele>
      </trkpt>
      <trkpt lat="47.71344" lon="9.41141">
        <ele>435.4</ele>
      </trkpt>
      <trkpt lat="47.71369" lon="9.41144">
        <ele>436.3</ele>
      </trkpt>
      <trkpt lat="47.71373" lon="9.41148">
        <ele>436.4</ele>
      </trkpt>
      <trkpt lat="47.71368" lon="9.41251">
        <ele>437.3</ele>
      </trkpt>
      <trkpt lat="47.71364" lon="9.4126">
        <ele>437.2</ele>
      </trkpt>
      <trkpt lat="47.71362" lon="9.41325">
        <ele>437.9</ele>
      </trkpt>
      <trkpt lat="47.71344" lon="9.41323">
        <ele>437.3</ele>
      </trkpt>
      <trkpt lat="47.71316" lon="9.41313">
        <ele>437.1</ele>
      </trkpt>
      <trkpt lat="47.71279" lon="9.41308">
        <ele>437.6</ele>
      </trkpt>
      <trkpt lat="47.71262" lon="9.41305">
        <ele>437.8</ele>
      </trkpt>
      <trkpt lat="47.71237" lon="9.41305">
        <ele>438.6</ele>
      </trkpt>
      <trkpt lat="47.7121" lon="9.41443">
        <ele>439.1</ele>
      </trkpt>
      <trkpt lat="47.7121" lon="9.41601">
        <ele>440.1</ele>
      </trkpt>
      <trkpt lat="47.71236" lon="9.41691">
        <ele>439.4</ele>
      </trkpt>
      <trkpt lat="47.71283" lon="9.41726">
        <ele>438.5</ele>
      </trkpt>
      <trkpt lat="47.71319" lon="9.41727">
        <ele>437.4</ele>
      </trkpt>
      <trkpt lat="47.71318" lon="9.41743">
        <ele>437.5</ele>
      </trkpt>
      <trkpt lat="47.71313" lon="9.41769">
        <ele>437.7</ele>
      </trkpt>
      <trkpt lat="47.71303" lon="9.41796">
        <ele>438.4</ele>
      </trkpt>
      <trkpt lat="47.7137" lon="9.41882">
        <ele>436.9</ele>
      </trkpt>
      <trkpt lat="47.71373" lon="9.4191">
        <ele>437</ele>
      </trkpt>
      <trkpt lat="47.71362" lon="9.41959">
        <ele>439.2</ele>
      </trkpt>
      <trkpt lat="47.71362" lon="9.41974">
        <ele>439.7</ele>
      </trkpt>
      <trkpt lat="47.71365" lon="9.41998">
        <ele>440.4</ele>
      </trkpt>
      <trkpt lat="47.71386" lon="9.4208">
        <ele>439.1</ele>
      </trkpt>
      <trkpt lat="47.71388" lon="9.42099">
        <ele>438.4</ele>
      </trkpt>
      <trkpt lat="47.71381" lon="9.42128">
        <ele>437.4</ele>
      </trkpt>
      <trkpt lat="47.71366" lon="9.42159">
        <ele>436.5</ele>
      </trkpt>
      <trkpt lat="47.7136" lon="9.42204">
        <ele>436.8</ele>
      </trkpt>
      <trkpt lat="47.71371" lon="9.42236">
        <ele>436.9</ele>
      </trkpt>
      <trkpt lat="47.71389" lon="9.4228">
        <ele>436.9</ele>
      </trkpt>
      <trkpt lat="47.71393" lon="9.42304">
        <ele>436.9</ele>
      </trkpt>
      <trkpt lat="47.71391" lon="9.42324">
        <ele>437.2</ele>
      </trkpt>
      <trkpt lat="47.71381" lon="9.42355">
        <ele>437.7</ele>
      </trkpt>
      <trkpt lat="47.71362" lon="9.42377">
        <ele>438.6</ele>
      </trkpt>
      <trkpt lat="47.71304" lon="9.42424">
        <ele>440.5</ele>
      </trkpt>
      <trkpt lat="47.71278" lon="9.42478">
        <ele>439.1</ele>
      </trkpt>
      <trkpt lat="47.71268" lon="9.42484">
        <ele>438.9</ele>
      </trkpt>
      <trkpt lat="47.71259" lon="9.42484">
        <ele>438.8</ele>
      </trkpt>
      <trkpt lat="47.71252" lon="9.42479">
        <ele>439</ele>
      </trkpt>
      <trkpt lat="47.71214" lon="9.42433">
        <ele>444.1</ele>
      </trkpt>
      <trkpt lat="47.71202" lon="9.42454">
        <ele>444</ele>
      </trkpt>
      <trkpt lat="47.71182" lon="9.42486">
        <ele>443.7</ele>
      </trkpt>
      <trkpt lat="47.71169" lon="9.42512">
        <ele>443.1</ele>
      </trkpt>
      <trkpt lat="47.7117" lon="9.4253">
        <ele>442</ele>
      </trkpt>
      <trkpt lat="47.71176" lon="9.42568">
        <ele>439.5</ele>
      </trkpt>
      <trkpt lat="47.71178" lon="9.42598">
        <ele>438.5</ele>
      </trkpt>
      <trkpt lat="47.71175" lon="9.42634">
        <ele>438.2</ele>
      </trkpt>
      <trkpt lat="47.71167" lon="9.42661">
        <ele>438.1</ele>
      </trkpt>
      <trkpt lat="47.71129" lon="9.42733">
        <ele>440.2</ele>
      </trkpt>
      <trkpt lat="47.71092" lon="9.42804">
        <ele>442.9</ele>
      </trkpt>
      <trkpt lat="47.71074" lon="9.42843">
        <ele>444.2</ele>
      </trkpt>
      <trkpt lat="47.71067" lon="9.42867">
        <ele>444</ele>
      </trkpt>
      <trkpt lat="47.71065" lon="9.4289">
        <ele>444.3</ele>
      </trkpt>
      <trkpt lat="47.71067" lon="9.42913">
        <ele>444.9</ele>
      </trkpt>
      <trkpt lat="47.71073" lon="9.42939">
        <ele>445.7</ele>
      </trkpt>
      <trkpt lat="47.71083" lon="9.42965">
        <ele>446.5</ele>
      </trkpt>
      <trkpt lat="47.71111" lon="9.43013">
        <ele>448.1</ele>
      </trkpt>
      <trkpt lat="47.7117" lon="9.43092">
        <ele>452</ele>
      </trkpt>
      <trkpt lat="47.71202" lon="9.43119">
        <ele>452.6</ele>
      </trkpt>
      <trkpt lat="47.71249" lon="9.4316">
        <ele>453.9</ele>
      </trkpt>
      <trkpt lat="47.71255" lon="9.43172">
        <ele>453.7</ele>
      </trkpt>
      <trkpt lat="47.71255" lon="9.43187">
        <ele>453.4</ele>
      </trkpt>
      <trkpt lat="47.71251" lon="9.4321">
        <ele>452.9</ele>
      </trkpt>
      <trkpt lat="47.71251" lon="9.43221">
        <ele>452.7</ele>
      </trkpt>
      <trkpt lat="47.71253" lon="9.43231">
        <ele>452.4</ele>
      </trkpt>
      <trkpt lat="47.7124" lon="9.43265">
        <ele>451</ele>
      </trkpt>
      <trkpt lat="47.71234" lon="9.43282">
        <ele>450</ele>
      </trkpt>
      <trkpt lat="47.71243" lon="9.43292">
        <ele>450.1</ele>
      </trkpt>
      <trkpt lat="47.7125" lon="9.43301">
        <ele>450.2</ele>
      </trkpt>
      <trkpt lat="47.71246" lon="9.43315">
        <ele>449.4</ele>
      </trkpt>
      <trkpt lat="47.71239" lon="9.43332">
        <ele>448.3</ele>
      </trkpt>
      <trkpt lat="47.71271" lon="9.43358">
        <ele>448.3</ele>
      </trkpt>
      <trkpt lat="47.71315" lon="9.43386">
        <ele>449.4</ele>
      </trkpt>
      <trkpt lat="47.71347" lon="9.43398">
        <ele>450.4</ele>
      </trkpt>
      <trkpt lat="47.71391" lon="9.43388">
        <ele>451.9</ele>
      </trkpt>
      <trkpt lat="47.71422" lon="9.43389">
        <ele>452.4</ele>
      </trkpt>
      <trkpt lat="47.71447" lon="9.43386">
        <ele>452.9</ele>
      </trkpt>
      <trkpt lat="47.71481" lon="9.43401">
        <ele>453</ele>
      </trkpt>
      <trkpt lat="47.71576" lon="9.43446">
        <ele>451.7</ele>
      </trkpt>
      <trkpt lat="47.71599" lon="9.43454">
        <ele>451.7</ele>
      </trkpt>
      <trkpt lat="47.71655" lon="9.43467">
        <ele>453</ele>
      </trkpt>
      <trkpt lat="47.7167" lon="9.43467">
        <ele>453.4</ele>
      </trkpt>
      <trkpt lat="47.7168" lon="9.43464">
        <ele>453.5</ele>
      </trkpt>
      <trkpt lat="47.71677" lon="9.43616">
        <ele>448.5</ele>
      </trkpt>
      <trkpt lat="47.71688" lon="9.43675">
        <ele>447.6</ele>
      </trkpt>
      <trkpt lat="47.71687" lon="9.43744">
        <ele>444</ele>
      </trkpt>
      <trkpt lat="47.71688" lon="9.43814">
        <ele>443.4</ele>
      </trkpt>
      <trkpt lat="47.71696" lon="9.4384">
        <ele>443.6</ele>
      </trkpt>
      <trkpt lat="47.71706" lon="9.43877">
        <ele>443.3</ele>
      </trkpt>
      <trkpt lat="47.71709" lon="9.43895">
        <ele>443</ele>
      </trkpt>
      <trkpt lat="47.71709" lon="9.43915">
        <ele>442.6</ele>
      </trkpt>
      <trkpt lat="47.71693" lon="9.44009">
        <ele>439.9</ele>
      </trkpt>
      <trkpt lat="47.7169" lon="9.44033">
        <ele>439.7</ele>
      </trkpt>
      <trkpt lat="47.71691" lon="9.44052">
        <ele>439.7</ele>
      </trkpt>
      <trkpt lat="47.71695" lon="9.44073">
        <ele>439.7</ele>
      </trkpt>
      <trkpt lat="47.71697" lon="9.44088">
        <ele>439.7</ele>
      </trkpt>
      <trkpt lat="47.71698" lon="9.44101">
        <ele>439.6</ele>
      </trkpt>
      <trkpt lat="47.71698" lon="9.44116">
        <ele>439.6</ele>
      </trkpt>
      <trkpt lat="47.71694" lon="9.44154">
        <ele>439.4</ele>
      </trkpt>
      <trkpt lat="47.71687" lon="9.44215">
        <ele>438.6</ele>
      </trkpt>
      <trkpt lat="47.71682" lon="9.44236">
        <ele>438.3</ele>
      </trkpt>
      <trkpt lat="47.71677" lon="9.44245">
        <ele>438.1</ele>
      </trkpt>
      <trkpt lat="47.7168" lon="9.44252">
        <ele>438</ele>
      </trkpt>
      <trkpt lat="47.7171" lon="9.44279">
        <ele>438.2</ele>
      </trkpt>
      <trkpt lat="47.71715" lon="9.44288">
        <ele>438.3</ele>
      </trkpt>
      <trkpt lat="47.71714" lon="9.44304">
        <ele>438.4</ele>
      </trkpt>
      <trkpt lat="47.71707" lon="9.44331">
        <ele>438.5</ele>
      </trkpt>
      <trkpt lat="47.71704" lon="9.44351">
        <ele>438.5</ele>
      </trkpt>
      <trkpt lat="47.71703" lon="9.44356">
        <ele>438.6</ele>
      </trkpt>
      <trkpt lat="47.71702" lon="9.44362">
        <ele>438.6</ele>
      </trkpt>
      <trkpt lat="47.71702" lon="9.44364">
        <ele>438.6</ele>
      </trkpt>
      <trkpt lat="47.71698" lon="9.44405">
        <ele>438.7</ele>
      </trkpt>
      <trkpt lat="47.71681" lon="9.44513">
        <ele>438.4</ele>
      </trkpt>
      <trkpt lat="47.71675" lon="9.44545">
        <ele>438.1</ele>
      </trkpt>
      <trkpt lat="47.71666" lon="9.44593">
        <ele>438.1</ele>
      </trkpt>
      <trkpt lat="47.71644" lon="9.44647">
        <ele>438.3</ele>
      </trkpt>
      <trkpt lat="47.71613" lon="9.4469">
        <ele>437.9</ele>
      </trkpt>
      <trkpt lat="47.7159" lon="9.44738">
        <ele>437.9</ele>
      </trkpt>
      <trkpt lat="47.71572" lon="9.44783">
        <ele>438.3</ele>
      </trkpt>
      <trkpt lat="47.71558" lon="9.44832">
        <ele>438.7</ele>
      </trkpt>
      <trkpt lat="47.7154" lon="9.44907">
        <ele>439.8</ele>
      </trkpt>
      <trkpt lat="47.71535" lon="9.44931">
        <ele>440.1</ele>
      </trkpt>
      <trkpt lat="47.71532" lon="9.44955">
        <ele>440.3</ele>
      </trkpt>
      <trkpt lat="47.71533" lon="9.44982">
        <ele>440.5</ele>
      </trkpt>
      <trkpt lat="47.71534" lon="9.45004">
        <ele>440.6</ele>
      </trkpt>
      <trkpt lat="47.71534" lon="9.45023">
        <ele>440.5</ele>
      </trkpt>
      <trkpt lat="47.7153" lon="9.45047">
        <ele>440.5</ele>
      </trkpt>
      <trkpt lat="47.71525" lon="9.45074">
        <ele>440.3</ele>
      </trkpt>
      <trkpt lat="47.71513" lon="9.4513">
        <ele>440.6</ele>
      </trkpt>
      <trkpt lat="47.7145" lon="9.45441">
        <ele>440.7</ele>
      </trkpt>
      <trkpt lat="47.71444" lon="9.45475">
        <ele>440.4</ele>
      </trkpt>
      <trkpt lat="47.71444" lon="9.45489">
        <ele>440.4</ele>
      </trkpt>
      <trkpt lat="47.71446" lon="9.45503">
        <ele>440.4</ele>
      </trkpt>
      <trkpt lat="47.71457" lon="9.45518">
        <ele>440.5</ele>
      </trkpt>
      <trkpt lat="47.71577" lon="9.45685">
        <ele>440.3</ele>
      </trkpt>
      <trkpt lat="47.71624" lon="9.45752">
        <ele>442</ele>
      </trkpt>
      <trkpt lat="47.71676" lon="9.45806">
        <ele>444.2</ele>
      </trkpt>
      <trkpt lat="47.71682" lon="9.45823">
        <ele>444.4</ele>
      </trkpt>
      <trkpt lat="47.7168" lon="9.45832">
        <ele>444.7</ele>
      </trkpt>
      <trkpt lat="47.71657" lon="9.45879">
        <ele>443.8</ele>
      </trkpt>
      <trkpt lat="47.71646" lon="9.45905">
        <ele>443.2</ele>
      </trkpt>
      <trkpt lat="47.71642" lon="9.45947">
        <ele>442.9</ele>
      </trkpt>
      <trkpt lat="47.71625" lon="9.45943">
        <ele>443</ele>
      </trkpt>
      <trkpt lat="47.71616" lon="9.45946">
        <ele>443.1</ele>
      </trkpt>
      <trkpt lat="47.71585" lon="9.45978">
        <ele>443.7</ele>
      </trkpt>
      <trkpt lat="47.71588" lon="9.45983">
        <ele>443.7</ele>
      </trkpt>
      <trkpt lat="47.71605" lon="9.46009">
        <ele>443.3</ele>
      </trkpt>
      <trkpt lat="47.71628" lon="9.46028">
        <ele>442.8</ele>
      </trkpt>
      <trkpt lat="47.7165" lon="9.46048">
        <ele>442.6</ele>
      </trkpt>
      <trkpt lat="47.71672" lon="9.46075">
        <ele>442.9</ele>
      </trkpt>
      <trkpt lat="47.71696" lon="9.46112">
        <ele>443</ele>
      </trkpt>
      <trkpt lat="47.71715" lon="9.4615">
        <ele>443</ele>
      </trkpt>
      <trkpt lat="47.71718" lon="9.46204">
        <ele>442.8</ele>
      </trkpt>
      <trkpt lat="47.71718" lon="9.46236">
        <ele>442.7</ele>
      </trkpt>
      <trkpt lat="47.71716" lon="9.46247">
        <ele>442.6</ele>
      </trkpt>
      <trkpt lat="47.71711" lon="9.46273">
        <ele>442.6</ele>
      </trkpt>
      <trkpt lat="47.71705" lon="9.463">
        <ele>442.4</ele>
      </trkpt>
      <trkpt lat="47.71697" lon="9.46321">
        <ele>442.1</ele>
      </trkpt>
      <trkpt lat="47.71651" lon="9.46431">
        <ele>443.4</ele>
      </trkpt>
      <trkpt lat="47.71637" lon="9.46477">
        <ele>444.1</ele>
      </trkpt>
      <trkpt lat="47.71629" lon="9.46521">
        <ele>444.6</ele>
      </trkpt>
      <trkpt lat="47.7162" lon="9.46596">
        <ele>445.4</ele>
      </trkpt>
      <trkpt lat="47.71619" lon="9.4662">
        <ele>446.1</ele>
      </trkpt>
      <trkpt lat="47.7162" lon="9.4664">
        <ele>446.5</ele>
      </trkpt>
      <trkpt lat="47.71624" lon="9.46659">
        <ele>446.8</ele>
      </trkpt>
      <trkpt lat="47.71629" lon="9.46674">
        <ele>447</ele>
      </trkpt>
      <trkpt lat="47.71636" lon="9.46687">
        <ele>447.1</ele>
      </trkpt>
      <trkpt lat="47.71645" lon="9.467">
        <ele>447.2</ele>
      </trkpt>
      <trkpt lat="47.71651" lon="9.4671">
        <ele>447.2</ele>
      </trkpt>
      <trkpt lat="47.71663" lon="9.46727">
        <ele>447.3</ele>
      </trkpt>
      <trkpt lat="47.71674" lon="9.46743">
        <ele>447.7</ele>
      </trkpt>
      <trkpt lat="47.71692" lon="9.46752">
        <ele>447.8</ele>
      </trkpt>
      <trkpt lat="47.71706" lon="9.46759">
        <ele>448</ele>
      </trkpt>
      <trkpt lat="47.71713" lon="9.46775">
        <ele>448.8</ele>
      </trkpt>
      <trkpt lat="47.71717" lon="9.4679">
        <ele>449.5</ele>
      </trkpt>
      <trkpt lat="47.71719" lon="9.46807">
        <ele>450.3</ele>
      </trkpt>
      <trkpt lat="47.71713" lon="9.46817">
        <ele>451</ele>
      </trkpt>
      <trkpt lat="47.71709" lon="9.46829">
        <ele>451.8</ele>
      </trkpt>
      <trkpt lat="47.71705" lon="9.46846">
        <ele>452.2</ele>
      </trkpt>
      <trkpt lat="47.71703" lon="9.46866">
        <ele>452.5</ele>
      </trkpt>
      <trkpt lat="47.71701" lon="9.46898">
        <ele>453</ele>
      </trkpt>
      <trkpt lat="47.71699" lon="9.46932">
        <ele>453.2</ele>
      </trkpt>
      <trkpt lat="47.71692" lon="9.4697">
        <ele>453.1</ele>
      </trkpt>
      <trkpt lat="47.71678" lon="9.47022">
        <ele>453.3</ele>
      </trkpt>
      <trkpt lat="47.71659" lon="9.47079">
        <ele>453.5</ele>
      </trkpt>
      <trkpt lat="47.71641" lon="9.4713">
        <ele>452.6</ele>
      </trkpt>
      <trkpt lat="47.71627" lon="9.47175">
        <ele>452.4</ele>
      </trkpt>
      <trkpt lat="47.71597" lon="9.47243">
        <ele>453.3</ele>
      </trkpt>
      <trkpt lat="47.71585" lon="9.47275">
        <ele>454.3</ele>
      </trkpt>
      <trkpt lat="47.71574" lon="9.47309">
        <ele>455.2</ele>
      </trkpt>
      <trkpt lat="47.71565" lon="9.47345">
        <ele>455.4</ele>
      </trkpt>
      <trkpt lat="47.71559" lon="9.47382">
        <ele>454.2</ele>
      </trkpt>
      <trkpt lat="47.71547" lon="9.47465">
        <ele>451.6</ele>
      </trkpt>
      <trkpt lat="47.7154" lon="9.47516">
        <ele>450.7</ele>
      </trkpt>
      <trkpt lat="47.71527" lon="9.47575">
        <ele>451.5</ele>
      </trkpt>
      <trkpt lat="47.71515" lon="9.4762">
        <ele>453.6</ele>
      </trkpt>
      <trkpt lat="47.71506" lon="9.47658">
        <ele>456.2</ele>
      </trkpt>
      <trkpt lat="47.71501" lon="9.47678">
        <ele>457.1</ele>
      </trkpt>
      <trkpt lat="47.71467" lon="9.47844">
        <ele>466.8</ele>
      </trkpt>
      <trkpt lat="47.71465" lon="9.47855">
        <ele>468.4</ele>
      </trkpt>
      <trkpt lat="47.71463" lon="9.47929">
        <ele>477.2</ele>
      </trkpt>
      <trkpt lat="47.71471" lon="9.48014">
        <ele>479.3</ele>
      </trkpt>
      <trkpt lat="47.71479" lon="9.48055">
        <ele>479.3</ele>
      </trkpt>
      <trkpt lat="47.71496" lon="9.48104">
        <ele>478.5</ele>
      </trkpt>
      <trkpt lat="47.71518" lon="9.48163">
        <ele>477.9</ele>
      </trkpt>
      <trkpt lat="47.7154" lon="9.48225">
        <ele>477.7</ele>
      </trkpt>
      <trkpt lat="47.71564" lon="9.48271">
        <ele>477.2</ele>
      </trkpt>
      <trkpt lat="47.71685" lon="9.48375">
        <ele>471.3</ele>
      </trkpt>
      <trkpt lat="47.71678" lon="9.48437">
        <ele>472.3</ele>
      </trkpt>
      <trkpt lat="47.71656" lon="9.48603">
        <ele>468.2</ele>
      </trkpt>
      <trkpt lat="47.71649" lon="9.48622">
        <ele>466.1</ele>
      </trkpt>
      <trkpt lat="47.71663" lon="9.48631">
        <ele>466.7</ele>
      </trkpt>
      <trkpt lat="47.71679" lon="9.48637">
        <ele>467.6</ele>
      </trkpt>
      <trkpt lat="47.71691" lon="9.48641">
        <ele>468.2</ele>
      </trkpt>
      <trkpt lat="47.71704" lon="9.48652">
        <ele>468.1</ele>
      </trkpt>
      <trkpt lat="47.71709" lon="9.48675">
        <ele>466.5</ele>
      </trkpt>
      <trkpt lat="47.71714" lon="9.48721">
        <ele>464.1</ele>
      </trkpt>
      <trkpt lat="47.71726" lon="9.48798">
        <ele>461.2</ele>
      </trkpt>
      <trkpt lat="47.71718" lon="9.48834">
        <ele>460</ele>
      </trkpt>
      <trkpt lat="47.71701" lon="9.48885">
        <ele>460.5</ele>
      </trkpt>
      <trkpt lat="47.71683" lon="9.48913">
        <ele>461.3</ele>
      </trkpt>
      <trkpt lat="47.71658" lon="9.48944">
        <ele>462.9</ele>
      </trkpt>
      <trkpt lat="47.7163" lon="9.48997">
        <ele>465.6</ele>
      </trkpt>
      <trkpt lat="47.71627" lon="9.49025">
        <ele>465.5</ele>
      </trkpt>
      <trkpt lat="47.71616" lon="9.49091">
        <ele>465</ele>
      </trkpt>
      <trkpt lat="47.71631" lon="9.49098">
        <ele>464.6</ele>
      </trkpt>
      <trkpt lat="47.71643" lon="9.49113">
        <ele>464.4</ele>
      </trkpt>
      <trkpt lat="47.71669" lon="9.49182">
        <ele>464.1</ele>
      </trkpt>
      <trkpt lat="47.71683" lon="9.49222">
        <ele>464.3</ele>
      </trkpt>
      <trkpt lat="47.71692" lon="9.49253">
        <ele>464.3</ele>
      </trkpt>
      <trkpt lat="47.71697" lon="9.49283">
        <ele>462.8</ele>
      </trkpt>
      <trkpt lat="47.71724" lon="9.49514">
        <ele>460.5</ele>
      </trkpt>
      <trkpt lat="47.71734" lon="9.4963">
        <ele>464.7</ele>
      </trkpt>
      <trkpt lat="47.71742" lon="9.49661">
        <ele>465.7</ele>
      </trkpt>
      <trkpt lat="47.71751" lon="9.49691">
        <ele>467.8</ele>
      </trkpt>
      <trkpt lat="47.71763" lon="9.49717">
        <ele>469.9</ele>
      </trkpt>
      <trkpt lat="47.71774" lon="9.49735">
        <ele>471.1</ele>
      </trkpt>
      <trkpt lat="47.71813" lon="9.49781">
        <ele>474.6</ele>
      </trkpt>
      <trkpt lat="47.71822" lon="9.49802">
        <ele>476.4</ele>
      </trkpt>
      <trkpt lat="47.71826" lon="9.49818">
        <ele>477.7</ele>
      </trkpt>
      <trkpt lat="47.71829" lon="9.49841">
        <ele>479.5</ele>
      </trkpt>
      <trkpt lat="47.71829" lon="9.49869">
        <ele>481.5</ele>
      </trkpt>
      <trkpt lat="47.71827" lon="9.49894">
        <ele>483.3</ele>
      </trkpt>
      <trkpt lat="47.71821" lon="9.4994">
        <ele>486</ele>
      </trkpt>
      <trkpt lat="47.71819" lon="9.49961">
        <ele>487.1</ele>
      </trkpt>
      <trkpt lat="47.71821" lon="9.49988">
        <ele>488.4</ele>
      </trkpt>
      <trkpt lat="47.71824" lon="9.50028">
        <ele>489.9</ele>
      </trkpt>
      <trkpt lat="47.7182" lon="9.50044">
        <ele>490.4</ele>
      </trkpt>
      <trkpt lat="47.71815" lon="9.50068">
        <ele>491.1</ele>
      </trkpt>
      <trkpt lat="47.71808" lon="9.50089">
        <ele>491.2</ele>
      </trkpt>
      <trkpt lat="47.71797" lon="9.50109">
        <ele>490.3</ele>
      </trkpt>
      <trkpt lat="47.71784" lon="9.50126">
        <ele>489.6</ele>
      </trkpt>
      <trkpt lat="47.71772" lon="9.50143">
        <ele>488.9</ele>
      </trkpt>
      <trkpt lat="47.71763" lon="9.50157">
        <ele>488.4</ele>
      </trkpt>
      <trkpt lat="47.71754" lon="9.5018">
        <ele>487.9</ele>
      </trkpt>
      <trkpt lat="47.71745" lon="9.50205">
        <ele>487.5</ele>
      </trkpt>
      <trkpt lat="47.71737" lon="9.50224">
        <ele>487.2</ele>
      </trkpt>
      <trkpt lat="47.71729" lon="9.50238">
        <ele>487.1</ele>
      </trkpt>
      <trkpt lat="47.7168" lon="9.50295">
        <ele>489.7</ele>
      </trkpt>
      <trkpt lat="47.71669" lon="9.50311">
        <ele>490.6</ele>
      </trkpt>
      <trkpt lat="47.71644" lon="9.50391">
        <ele>487.8</ele>
      </trkpt>
      <trkpt lat="47.71634" lon="9.50417">
        <ele>486.3</ele>
      </trkpt>
      <trkpt lat="47.71574" lon="9.5052">
        <ele>484.8</ele>
      </trkpt>
      <trkpt lat="47.71553" lon="9.50599">
        <ele>487.6</ele>
      </trkpt>
      <trkpt lat="47.71548" lon="9.50618">
        <ele>488</ele>
      </trkpt>
      <trkpt lat="47.71535" lon="9.50636">
        <ele>488.5</ele>
      </trkpt>
      <trkpt lat="47.71532" lon="9.50637">
        <ele>488.6</ele>
      </trkpt>
      <trkpt lat="47.71515" lon="9.50651">
        <ele>488.9</ele>
      </trkpt>
      <trkpt lat="47.71488" lon="9.5067">
        <ele>488.6</ele>
      </trkpt>
      <trkpt lat="47.71473" lon="9.50707">
        <ele>486.9</ele>
      </trkpt>
      <trkpt lat="47.7146" lon="9.50759">
        <ele>484.7</ele>
      </trkpt>
      <trkpt lat="47.7144" lon="9.50822">
        <ele>482</ele>
      </trkpt>
      <trkpt lat="47.71422" lon="9.50859">
        <ele>480.5</ele>
      </trkpt>
      <trkpt lat="47.71411" lon="9.50897">
        <ele>479.2</ele>
      </trkpt>
      <trkpt lat="47.7141" lon="9.50964">
        <ele>478.2</ele>
      </trkpt>
      <trkpt lat="47.71409" lon="9.50991">
        <ele>477.8</ele>
      </trkpt>
      <trkpt lat="47.71388" lon="9.51076">
        <ele>475.5</ele>
      </trkpt>
      <trkpt lat="47.71388" lon="9.51146">
        <ele>475.8</ele>
      </trkpt>
      <trkpt lat="47.7138" lon="9.51202">
        <ele>476.4</ele>
      </trkpt>
      <trkpt lat="47.7136" lon="9.5129">
        <ele>476.7</ele>
      </trkpt>
      <trkpt lat="47.71365" lon="9.51307">
        <ele>476.3</ele>
      </trkpt>
      <trkpt lat="47.71374" lon="9.51346">
        <ele>475.5</ele>
      </trkpt>
      <trkpt lat="47.7137" lon="9.51418">
        <ele>475</ele>
      </trkpt>
      <trkpt lat="47.71364" lon="9.51469">
        <ele>475</ele>
      </trkpt>
      <trkpt lat="47.71367" lon="9.51477">
        <ele>475</ele>
      </trkpt>
      <trkpt lat="47.71376" lon="9.51472">
        <ele>475</ele>
      </trkpt>
      <trkpt lat="47.71379" lon="9.51478">
        <ele>475</ele>
      </trkpt>
      <trkpt lat="47.71395" lon="9.51493">
        <ele>475</ele>
      </trkpt>
      <trkpt lat="47.71405" lon="9.5151">
        <ele>474.6</ele>
      </trkpt>
      <trkpt lat="47.71395" lon="9.51606">
        <ele>471.7</ele>
      </trkpt>
      <trkpt lat="47.71398" lon="9.51728">
        <ele>471</ele>
      </trkpt>
      <trkpt lat="47.71395" lon="9.51782">
        <ele>469.9</ele>
      </trkpt>
      <trkpt lat="47.71383" lon="9.51822">
        <ele>468.4</ele>
      </trkpt>
      <trkpt lat="47.71346" lon="9.519">
        <ele>465.6</ele>
      </trkpt>
      <trkpt lat="47.71336" lon="9.51936">
        <ele>464.8</ele>
      </trkpt>
      <trkpt lat="47.71324" lon="9.51967">
        <ele>464.7</ele>
      </trkpt>
      <trkpt lat="47.71323" lon="9.5198">
        <ele>464.6</ele>
      </trkpt>
      <trkpt lat="47.71323" lon="9.51995">
        <ele>464.4</ele>
      </trkpt>
      <trkpt lat="47.7136" lon="9.52023">
        <ele>464.4</ele>
      </trkpt>
      <trkpt lat="47.71383" lon="9.52041">
        <ele>464.9</ele>
      </trkpt>
      <trkpt lat="47.71397" lon="9.52056">
        <ele>465.3</ele>
      </trkpt>
      <trkpt lat="47.71407" lon="9.52071">
        <ele>465.6</ele>
      </trkpt>
      <trkpt lat="47.71416" lon="9.52085">
        <ele>466</ele>
      </trkpt>
      <trkpt lat="47.71406" lon="9.5209">
        <ele>465.7</ele>
      </trkpt>
      <trkpt lat="47.71395" lon="9.52091">
        <ele>465.4</ele>
      </trkpt>
      <trkpt lat="47.71381" lon="9.5209">
        <ele>465.1</ele>
      </trkpt>
      <trkpt lat="47.7137" lon="9.52091">
        <ele>464.8</ele>
      </trkpt>
      <trkpt lat="47.71365" lon="9.52095">
        <ele>464.6</ele>
      </trkpt>
      <trkpt lat="47.7136" lon="9.52102">
        <ele>464.4</ele>
      </trkpt>
      <trkpt lat="47.71354" lon="9.52118">
        <ele>464.1</ele>
      </trkpt>
      <trkpt lat="47.71346" lon="9.5214">
        <ele>463.6</ele>
      </trkpt>
      <trkpt lat="47.71338" lon="9.52157">
        <ele>463.2</ele>
      </trkpt>
      <trkpt lat="47.71325" lon="9.52184">
        <ele>461.8</ele>
      </trkpt>
      <trkpt lat="47.7129" lon="9.52257">
        <ele>457.2</ele>
      </trkpt>
      <trkpt lat="47.71279" lon="9.52279">
        <ele>456.1</ele>
      </trkpt>
      <trkpt lat="47.7127" lon="9.52292">
        <ele>455.6</ele>
      </trkpt>
      <trkpt lat="47.71259" lon="9.52304">
        <ele>455.3</ele>
      </trkpt>
      <trkpt lat="47.71249" lon="9.52315">
        <ele>455.2</ele>
      </trkpt>
      <trkpt lat="47.71212" lon="9.52352">
        <ele>453.9</ele>
      </trkpt>
      <trkpt lat="47.71204" lon="9.52356">
        <ele>453.6</ele>
      </trkpt>
      <trkpt lat="47.71197" lon="9.52357">
        <ele>453.4</ele>
      </trkpt>
      <trkpt lat="47.71196" lon="9.52372">
        <ele>452.8</ele>
      </trkpt>
      <trkpt lat="47.71192" lon="9.52392">
        <ele>451.9</ele>
      </trkpt>
      <trkpt lat="47.71187" lon="9.52414">
        <ele>450.8</ele>
      </trkpt>
      <trkpt lat="47.71181" lon="9.52433">
        <ele>450</ele>
      </trkpt>
      <trkpt lat="47.71174" lon="9.52455">
        <ele>449.1</ele>
      </trkpt>
      <trkpt lat="47.71168" lon="9.52472">
        <ele>448.7</ele>
      </trkpt>
      <trkpt lat="47.7116" lon="9.5249">
        <ele>448.1</ele>
      </trkpt>
      <trkpt lat="47.7115" lon="9.52504">
        <ele>447.6</ele>
      </trkpt>
      <trkpt lat="47.71143" lon="9.52515">
        <ele>447.3</ele>
      </trkpt>
      <trkpt lat="47.71119" lon="9.52542">
        <ele>446.6</ele>
      </trkpt>
      <trkpt lat="47.71093" lon="9.52574">
        <ele>446.1</ele>
      </trkpt>
      <trkpt lat="47.71066" lon="9.52608">
        <ele>445.5</ele>
      </trkpt>
      <trkpt lat="47.71045" lon="9.52636">
        <ele>445</ele>
      </trkpt>
      <trkpt lat="47.70998" lon="9.52721">
        <ele>445</ele>
      </trkpt>
      <trkpt lat="47.70982" lon="9.52751">
        <ele>444.8</ele>
      </trkpt>
      <trkpt lat="47.70976" lon="9.52765">
        <ele>445.2</ele>
      </trkpt>
      <trkpt lat="47.70973" lon="9.52776">
        <ele>445.5</ele>
      </trkpt>
      <trkpt lat="47.70971" lon="9.52788">
        <ele>445.9</ele>
      </trkpt>
      <trkpt lat="47.70971" lon="9.52799">
        <ele>446.2</ele>
      </trkpt>
      <trkpt lat="47.70972" lon="9.52812">
        <ele>446.6</ele>
      </trkpt>
      <trkpt lat="47.70971" lon="9.52846">
        <ele>447.9</ele>
      </trkpt>
      <trkpt lat="47.70965" lon="9.52877">
        <ele>449.1</ele>
      </trkpt>
      <trkpt lat="47.70914" lon="9.53007">
        <ele>453.4</ele>
      </trkpt>
      <trkpt lat="47.70891" lon="9.53081">
        <ele>455.7</ele>
      </trkpt>
      <trkpt lat="47.70813" lon="9.53163">
        <ele>446.2</ele>
      </trkpt>
      <trkpt lat="47.7079" lon="9.53279">
        <ele>442.1</ele>
      </trkpt>
      <trkpt lat="47.70772" lon="9.53308">
        <ele>441.6</ele>
      </trkpt>
      <trkpt lat="47.70747" lon="9.53322">
        <ele>441</ele>
      </trkpt>
      <trkpt lat="47.70728" lon="9.53332">
        <ele>439.7</ele>
      </trkpt>
      <trkpt lat="47.70729" lon="9.53335">
        <ele>439.8</ele>
      </trkpt>
      <trkpt lat="47.70749" lon="9.53437">
        <ele>444.2</ele>
      </trkpt>
      <trkpt lat="47.70786" lon="9.53557">
        <ele>443.4</ele>
      </trkpt>
      <trkpt lat="47.70832" lon="9.53757">
        <ele>440.2</ele>
      </trkpt>
      <trkpt lat="47.70889" lon="9.53966">
        <ele>438.8</ele>
      </trkpt>
      <trkpt lat="47.7079" lon="9.54111">
        <ele>435.8</ele>
      </trkpt>
      <trkpt lat="47.7072" lon="9.54191">
        <ele>427.4</ele>
      </trkpt>
      <trkpt lat="47.7067" lon="9.54206">
        <ele>419.5</ele>
      </trkpt>
      <trkpt lat="47.70662" lon="9.54193">
        <ele>419.2</ele>
      </trkpt>
      <trkpt lat="47.70657" lon="9.54185">
        <ele>419.1</ele>
      </trkpt>
      <trkpt lat="47.70651" lon="9.5418">
        <ele>419</ele>
      </trkpt>
      <trkpt lat="47.70646" lon="9.54176">
        <ele>418.8</ele>
      </trkpt>
      <trkpt lat="47.70639" lon="9.54174">
        <ele>418.5</ele>
      </trkpt>
      <trkpt lat="47.70633" lon="9.54173">
        <ele>418.3</ele>
      </trkpt>
      <trkpt lat="47.70626" lon="9.54174">
        <ele>417.9</ele>
      </trkpt>
      <trkpt lat="47.70621" lon="9.54175">
        <ele>417.7</ele>
      </trkpt>
      <trkpt lat="47.70618" lon="9.54177">
        <ele>417.5</ele>
      </trkpt>
      <trkpt lat="47.70615" lon="9.54181">
        <ele>417.3</ele>
      </trkpt>
      <trkpt lat="47.70613" lon="9.54187">
        <ele>417.1</ele>
      </trkpt>
      <trkpt lat="47.70611" lon="9.54194">
        <ele>416.9</ele>
      </trkpt>
      <trkpt lat="47.70609" lon="9.542">
        <ele>416.7</ele>
      </trkpt>
      <trkpt lat="47.70602" lon="9.54208">
        <ele>416.3</ele>
      </trkpt>
      <trkpt lat="47.70596" lon="9.54215">
        <ele>415.9</ele>
      </trkpt>
      <trkpt lat="47.70589" lon="9.54221">
        <ele>415.6</ele>
      </trkpt>
      <trkpt lat="47.70581" lon="9.54225">
        <ele>415.3</ele>
      </trkpt>
      <trkpt lat="47.70571" lon="9.54228">
        <ele>415.2</ele>
      </trkpt>
      <trkpt lat="47.70566" lon="9.54231">
        <ele>415.1</ele>
      </trkpt>
      <trkpt lat="47.70564" lon="9.54234">
        <ele>415.1</ele>
      </trkpt>
      <trkpt lat="47.70555" lon="9.54255">
        <ele>415</ele>
      </trkpt>
      <trkpt lat="47.70554" lon="9.54261">
        <ele>415</ele>
      </trkpt>
      <trkpt lat="47.70554" lon="9.5427">
        <ele>415</ele>
      </trkpt>
      <trkpt lat="47.70551" lon="9.54284">
        <ele>415</ele>
      </trkpt>
      <trkpt lat="47.70547" lon="9.54293">
        <ele>415</ele>
      </trkpt>
      <trkpt lat="47.7054" lon="9.54308">
        <ele>415</ele>
      </trkpt>
      <trkpt lat="47.70538" lon="9.54314">
        <ele>415</ele>
      </trkpt>
      <trkpt lat="47.70538" lon="9.54324">
        <ele>415</ele>
      </trkpt>
      <trkpt lat="47.70538" lon="9.54337">
        <ele>415</ele>
      </trkpt>
      <trkpt lat="47.70538" lon="9.54349">
        <ele>415.1</ele>
      </trkpt>
      <trkpt lat="47.70539" lon="9.54358">
        <ele>415.1</ele>
      </trkpt>
      <trkpt lat="47.70541" lon="9.54377">
        <ele>415.3</ele>
      </trkpt>
      <trkpt lat="47.70541" lon="9.54382">
        <ele>415.3</ele>
      </trkpt>
      <trkpt lat="47.7054" lon="9.54392">
        <ele>415.3</ele>
      </trkpt>
      <trkpt lat="47.70549" lon="9.54394">
        <ele>415.4</ele>
      </trkpt>
      <trkpt lat="47.7055" lon="9.54415">
        <ele>415.6</ele>
      </trkpt>
      <trkpt lat="47.70549" lon="9.54426">
        <ele>415.4</ele>
      </trkpt>
      <trkpt lat="47.70545" lon="9.54466">
        <ele>414.6</ele>
      </trkpt>
      <trkpt lat="47.70544" lon="9.5447">
        <ele>414.5</ele>
      </trkpt>
      <trkpt lat="47.70542" lon="9.54492">
        <ele>414.1</ele>
      </trkpt>
      <trkpt lat="47.70539" lon="9.54508">
        <ele>413.9</ele>
      </trkpt>
      <trkpt lat="47.70536" lon="9.5452">
        <ele>413.6</ele>
      </trkpt>
      <trkpt lat="47.70535" lon="9.54525">
        <ele>413.5</ele>
      </trkpt>
      <trkpt lat="47.70533" lon="9.54533">
        <ele>413.4</ele>
      </trkpt>
      <trkpt lat="47.70532" lon="9.54587">
        <ele>412.3</ele>
      </trkpt>
      <trkpt lat="47.70531" lon="9.54596">
        <ele>412.2</ele>
      </trkpt>
      <trkpt lat="47.70531" lon="9.546">
        <ele>412.2</ele>
      </trkpt>
      <trkpt lat="47.70532" lon="9.54604">
        <ele>412.1</ele>
      </trkpt>
      <trkpt lat="47.70538" lon="9.54615">
        <ele>412.1</ele>
      </trkpt>
      <trkpt lat="47.70542" lon="9.54624">
        <ele>412</ele>
      </trkpt>
      <trkpt lat="47.70552" lon="9.54667">
        <ele>411.6</ele>
      </trkpt>
      <trkpt lat="47.70557" lon="9.54689">
        <ele>411.8</ele>
      </trkpt>
      <trkpt lat="47.7056" lon="9.54714">
        <ele>411.9</ele>
      </trkpt>
      <trkpt lat="47.70566" lon="9.54736">
        <ele>412</ele>
      </trkpt>
      <trkpt lat="47.7057" lon="9.54745">
        <ele>412</ele>
      </trkpt>
      <trkpt lat="47.70578" lon="9.54756">
        <ele>412</ele>
      </trkpt>
      <trkpt lat="47.70582" lon="9.5476">
        <ele>412</ele>
      </trkpt>
      <trkpt lat="47.70586" lon="9.54762">
        <ele>412</ele>
      </trkpt>
      <trkpt lat="47.70589" lon="9.54762">
        <ele>412</ele>
      </trkpt>
      <trkpt lat="47.70589" lon="9.54772">
        <ele>412</ele>
      </trkpt>
      <trkpt lat="47.70588" lon="9.54778">
        <ele>412</ele>
      </trkpt>
      <trkpt lat="47.70584" lon="9.54784">
        <ele>412</ele>
      </trkpt>
      <trkpt lat="47.70569" lon="9.54796">
        <ele>412</ele>
      </trkpt>
      <trkpt lat="47.70561" lon="9.54802">
        <ele>412</ele>
      </trkpt>
      <trkpt lat="47.70549" lon="9.5481">
        <ele>412</ele>
      </trkpt>
      <trkpt lat="47.70538" lon="9.54814">
        <ele>412</ele>
      </trkpt>
      <trkpt lat="47.70474" lon="9.54829">
        <ele>412</ele>
      </trkpt>
      <trkpt lat="47.70461" lon="9.54832">
        <ele>412</ele>
      </trkpt>
      <trkpt lat="47.70454" lon="9.54837">
        <ele>412</ele>
      </trkpt>
      <trkpt lat="47.70446" lon="9.54843">
        <ele>412</ele>
      </trkpt>
      <trkpt lat="47.70436" lon="9.54856">
        <ele>412</ele>
      </trkpt>
      <trkpt lat="47.70442" lon="9.54863">
        <ele>412</ele>
      </trkpt>
      <trkpt lat="47.70448" lon="9.54874">
        <ele>412</ele>
      </trkpt>
      <trkpt lat="47.70453" lon="9.54884">
        <ele>412</ele>
      </trkpt>
      <trkpt lat="47.70457" lon="9.549">
        <ele>412</ele>
      </trkpt>
      <trkpt lat="47.70437" lon="9.54912">
        <ele>412</ele>
      </trkpt>
      <trkpt lat="47.70424" lon="9.54912">
        <ele>412</ele>
      </trkpt>
      <trkpt lat="47.70415" lon="9.54923">
        <ele>412</ele>
      </trkpt>
      <trkpt lat="47.70396" lon="9.54939">
        <ele>412</ele>
      </trkpt>
      <trkpt lat="47.70385" lon="9.54955">
        <ele>412.1</ele>
      </trkpt>
      <trkpt lat="47.70375" lon="9.54959">
        <ele>412</ele>
      </trkpt>
      <trkpt lat="47.70365" lon="9.54963">
        <ele>411.9</ele>
      </trkpt>
      <trkpt lat="47.70358" lon="9.54961">
        <ele>411.8</ele>
      </trkpt>
      <trkpt lat="47.70356" lon="9.54969">
        <ele>411.9</ele>
      </trkpt>
      <trkpt lat="47.70365" lon="9.54978">
        <ele>412.1</ele>
      </trkpt>
      <trkpt lat="47.70374" lon="9.54976">
        <ele>412.2</ele>
      </trkpt>
      <trkpt lat="47.70384" lon="9.54973">
        <ele>412.3</ele>
      </trkpt>
      <trkpt lat="47.70389" lon="9.54974">
        <ele>412.4</ele>
      </trkpt>
      <trkpt lat="47.70398" lon="9.54984">
        <ele>412.6</ele>
      </trkpt>
      <trkpt lat="47.70403" lon="9.54987">
        <ele>412.7</ele>
      </trkpt>
      <trkpt lat="47.70416" lon="9.54984">
        <ele>412.8</ele>
      </trkpt>
      <trkpt lat="47.70425" lon="9.54983">
        <ele>412.6</ele>
      </trkpt>
      <trkpt lat="47.70448" lon="9.54976">
        <ele>411.9</ele>
      </trkpt>
      <trkpt lat="47.7047" lon="9.54972">
        <ele>411.4</ele>
      </trkpt>
      <trkpt lat="47.70468" lon="9.54995">
        <ele>411.2</ele>
      </trkpt>
      <trkpt lat="47.70464" lon="9.55035">
        <ele>411</ele>
      </trkpt>
      <trkpt lat="47.70462" lon="9.55057">
        <ele>410.8</ele>
      </trkpt>
      <trkpt lat="47.70461" lon="9.55071">
        <ele>410.7</ele>
      </trkpt>
      <trkpt lat="47.70462" lon="9.55085">
        <ele>410.5</ele>
      </trkpt>
      <trkpt lat="47.70465" lon="9.55107">
        <ele>410.2</ele>
      </trkpt>
      <trkpt lat="47.7047" lon="9.55124">
        <ele>410</ele>
      </trkpt>
      <trkpt lat="47.70475" lon="9.55139">
        <ele>409.8</ele>
      </trkpt>
      <trkpt lat="47.7048" lon="9.55152">
        <ele>409.8</ele>
      </trkpt>
      <trkpt lat="47.70489" lon="9.55165">
        <ele>409.8</ele>
      </trkpt>
      <trkpt lat="47.70508" lon="9.55189">
        <ele>409.5</ele>
      </trkpt>
      <trkpt lat="47.70537" lon="9.55219">
        <ele>409.3</ele>
      </trkpt>
      <trkpt lat="47.70567" lon="9.55252">
        <ele>409.6</ele>
      </trkpt>
      <trkpt lat="47.70584" lon="9.5527">
        <ele>409.8</ele>
      </trkpt>
      <trkpt lat="47.70589" lon="9.55273">
        <ele>409.8</ele>
      </trkpt>
      <trkpt lat="47.70595" lon="9.55274">
        <ele>409.8</ele>
      </trkpt>
      <trkpt lat="47.70605" lon="9.55282">
        <ele>409.8</ele>
      </trkpt>
      <trkpt lat="47.70634" lon="9.55302">
        <ele>409.6</ele>
      </trkpt>
      <trkpt lat="47.70647" lon="9.55307">
        <ele>409.6</ele>
      </trkpt>
      <trkpt lat="47.70665" lon="9.55312">
        <ele>409.5</ele>
      </trkpt>
      <trkpt lat="47.70678" lon="9.55318">
        <ele>409.3</ele>
      </trkpt>
      <trkpt lat="47.70684" lon="9.55321">
        <ele>409.2</ele>
      </trkpt>
      <trkpt lat="47.70691" lon="9.55326">
        <ele>409.1</ele>
      </trkpt>
      <trkpt lat="47.70699" lon="9.55331">
        <ele>409</ele>
      </trkpt>
      <trkpt lat="47.70708" lon="9.55338">
        <ele>409</ele>
      </trkpt>
      <trkpt lat="47.70719" lon="9.55342">
        <ele>409</ele>
      </trkpt>
      <trkpt lat="47.70744" lon="9.55345">
        <ele>409</ele>
      </trkpt>
      <trkpt lat="47.70779" lon="9.55359">
        <ele>409</ele>
      </trkpt>
      <trkpt lat="47.70814" lon="9.55378">
        <ele>409</ele>
      </trkpt>
      <trkpt lat="47.7083" lon="9.55396">
        <ele>409</ele>
      </trkpt>
      <trkpt lat="47.70844" lon="9.55416">
        <ele>409</ele>
      </trkpt>
      <trkpt lat="47.70868" lon="9.55457">
        <ele>408.6</ele>
      </trkpt>
      <trkpt lat="47.70873" lon="9.55461">
        <ele>408.5</ele>
      </trkpt>
      <trkpt lat="47.7089" lon="9.55447">
        <ele>408.5</ele>
      </trkpt>
      <trkpt lat="47.7091" lon="9.55429">
        <ele>408.7</ele>
      </trkpt>
      <trkpt lat="47.70938" lon="9.55401">
        <ele>409.6</ele>
      </trkpt>
      <trkpt lat="47.70966" lon="9.55373">
        <ele>410.4</ele>
      </trkpt>
      <trkpt lat="47.70979" lon="9.55359">
        <ele>410.7</ele>
      </trkpt>
      <trkpt lat="47.70984" lon="9.5534">
        <ele>410.8</ele>
      </trkpt>
      <trkpt lat="47.70987" lon="9.55301">
        <ele>411</ele>
      </trkpt>
      <trkpt lat="47.70981" lon="9.55278">
        <ele>411.1</ele>
      </trkpt>
      <trkpt lat="47.7098" lon="9.55243">
        <ele>411.4</ele>
      </trkpt>
      <trkpt lat="47.70983" lon="9.55207">
        <ele>412</ele>
      </trkpt>
      <trkpt lat="47.70988" lon="9.55179">
        <ele>412.6</ele>
      </trkpt>
      <trkpt lat="47.70999" lon="9.5515">
        <ele>412.6</ele>
      </trkpt>
      <trkpt lat="47.71022" lon="9.55127">
        <ele>411.6</ele>
      </trkpt>
      <trkpt lat="47.71038" lon="9.55115">
        <ele>411.2</ele>
      </trkpt>
      <trkpt lat="47.71052" lon="9.55108">
        <ele>411</ele>
      </trkpt>
      <trkpt lat="47.71087" lon="9.55111">
        <ele>410.7</ele>
      </trkpt>
      <trkpt lat="47.71134" lon="9.55115">
        <ele>410.5</ele>
      </trkpt>
      <trkpt lat="47.71146" lon="9.5513">
        <ele>410.5</ele>
      </trkpt>
      <trkpt lat="47.7117" lon="9.55137">
        <ele>410.7</ele>
      </trkpt>
      <trkpt lat="47.71176" lon="9.55131">
        <ele>410.8</ele>
      </trkpt>
      <trkpt lat="47.7118" lon="9.55123">
        <ele>410.8</ele>
      </trkpt>
      <trkpt lat="47.712" lon="9.55125">
        <ele>411.3</ele>
      </trkpt>
      <trkpt lat="47.71221" lon="9.55138">
        <ele>411.8</ele>
      </trkpt>
      <trkpt lat="47.71235" lon="9.55139">
        <ele>412</ele>
      </trkpt>
      <trkpt lat="47.71246" lon="9.55141">
        <ele>412.2</ele>
      </trkpt>
      <trkpt lat="47.71251" lon="9.55138">
        <ele>412.4</ele>
      </trkpt>
      <trkpt lat="47.71262" lon="9.55128">
        <ele>412.8</ele>
      </trkpt>
      <trkpt lat="47.71278" lon="9.55124">
        <ele>413.2</ele>
      </trkpt>
      <trkpt lat="47.71293" lon="9.55117">
        <ele>413.6</ele>
      </trkpt>
      <trkpt lat="47.71318" lon="9.55101">
        <ele>414.4</ele>
      </trkpt>
      <trkpt lat="47.71341" lon="9.55093">
        <ele>415.2</ele>
      </trkpt>
      <trkpt lat="47.71357" lon="9.55082">
        <ele>416.2</ele>
      </trkpt>
      <trkpt lat="47.71396" lon="9.55042">
        <ele>417.7</ele>
      </trkpt>
      <trkpt lat="47.71415" lon="9.55029">
        <ele>418.3</ele>
      </trkpt>
      <trkpt lat="47.71422" lon="9.55044">
        <ele>418.6</ele>
      </trkpt>
      <trkpt lat="47.71429" lon="9.55054">
        <ele>418.8</ele>
      </trkpt>
      <trkpt lat="47.71446" lon="9.55073">
        <ele>419.3</ele>
      </trkpt>
      <trkpt lat="47.71479" lon="9.55103">
        <ele>419.2</ele>
      </trkpt>
      <trkpt lat="47.71573" lon="9.55187">
        <ele>418.9</ele>
      </trkpt>
      <trkpt lat="47.71653" lon="9.55257">
        <ele>422.5</ele>
      </trkpt>
      <trkpt lat="47.71824" lon="9.55406">
        <ele>427.6</ele>
      </trkpt>
      <trkpt lat="47.71849" lon="9.55426">
        <ele>428.5</ele>
      </trkpt>
      <trkpt lat="47.71871" lon="9.5544">
        <ele>428.9</ele>
      </trkpt>
      <trkpt lat="47.71887" lon="9.55449">
        <ele>429.1</ele>
      </trkpt>
      <trkpt lat="47.71952" lon="9.55473">
        <ele>430.3</ele>
      </trkpt>
      <trkpt lat="47.72022" lon="9.55511">
        <ele>429.2</ele>
      </trkpt>
      <trkpt lat="47.72054" lon="9.55529">
        <ele>428.3</ele>
      </trkpt>
      <trkpt lat="47.72093" lon="9.55546">
        <ele>427.9</ele>
      </trkpt>
      <trkpt lat="47.7211" lon="9.55556">
        <ele>427.9</ele>
      </trkpt>
      <trkpt lat="47.72125" lon="9.55568">
        <ele>428</ele>
      </trkpt>
      <trkpt lat="47.72148" lon="9.5559">
        <ele>428.6</ele>
      </trkpt>
      <trkpt lat="47.7216" lon="9.55605">
        <ele>428.9</ele>
      </trkpt>
      <trkpt lat="47.72211" lon="9.55677">
        <ele>429.5</ele>
      </trkpt>
      <trkpt lat="47.72248" lon="9.55724">
        <ele>430.6</ele>
      </trkpt>
      <trkpt lat="47.72272" lon="9.55755">
        <ele>431</ele>
      </trkpt>
      <trkpt lat="47.72283" lon="9.55768">
        <ele>431</ele>
      </trkpt>
      <trkpt lat="47.72304" lon="9.55781">
        <ele>431</ele>
      </trkpt>
      <trkpt lat="47.7232" lon="9.55791">
        <ele>431</ele>
      </trkpt>
      <trkpt lat="47.72334" lon="9.55804">
        <ele>431</ele>
      </trkpt>
      <trkpt lat="47.72348" lon="9.5582">
        <ele>431.2</ele>
      </trkpt>
      <trkpt lat="47.72354" lon="9.55825">
        <ele>431.2</ele>
      </trkpt>
      <trkpt lat="47.72363" lon="9.55833">
        <ele>431.4</ele>
      </trkpt>
      <trkpt lat="47.7237" lon="9.55835">
        <ele>431.4</ele>
      </trkpt>
      <trkpt lat="47.72381" lon="9.55835">
        <ele>431.5</ele>
      </trkpt>
      <trkpt lat="47.72389" lon="9.55832">
        <ele>431.7</ele>
      </trkpt>
      <trkpt lat="47.72417" lon="9.55808">
        <ele>432</ele>
      </trkpt>
      <trkpt lat="47.72445" lon="9.55791">
        <ele>432</ele>
      </trkpt>
      <trkpt lat="47.72491" lon="9.55771">
        <ele>432</ele>
      </trkpt>
      <trkpt lat="47.72518" lon="9.55765">
        <ele>432.4</ele>
      </trkpt>
      <trkpt lat="47.72532" lon="9.55763">
        <ele>432.7</ele>
      </trkpt>
      <trkpt lat="47.72547" lon="9.55762">
        <ele>433</ele>
      </trkpt>
      <trkpt lat="47.72558" lon="9.55763">
        <ele>433.2</ele>
      </trkpt>
      <trkpt lat="47.72568" lon="9.55767">
        <ele>433.3</ele>
      </trkpt>
      <trkpt lat="47.7258" lon="9.55754">
        <ele>433.8</ele>
      </trkpt>
      <trkpt lat="47.72595" lon="9.55751">
        <ele>434.4</ele>
      </trkpt>
      <trkpt lat="47.72611" lon="9.55749">
        <ele>435</ele>
      </trkpt>
      <trkpt lat="47.72621" lon="9.55749">
        <ele>435.4</ele>
      </trkpt>
      <trkpt lat="47.72594" lon="9.55575">
        <ele>443.3</ele>
      </trkpt>
      <trkpt lat="47.72591" lon="9.55533">
        <ele>444.3</ele>
      </trkpt>
      <trkpt lat="47.72597" lon="9.55505">
        <ele>445.5</ele>
      </trkpt>
      <trkpt lat="47.72722" lon="9.5515">
        <ele>449.7</ele>
      </trkpt>
      <trkpt lat="47.72738" lon="9.55124">
        <ele>449.3</ele>
      </trkpt>
      <trkpt lat="47.72786" lon="9.55106">
        <ele>446.4</ele>
      </trkpt>
      <trkpt lat="47.73103" lon="9.55">
        <ele>442.2</ele>
      </trkpt>
      <trkpt lat="47.73144" lon="9.54986">
        <ele>443.1</ele>
      </trkpt>
      <trkpt lat="47.73231" lon="9.55003">
        <ele>443.8</ele>
      </trkpt>
      <trkpt lat="47.73283" lon="9.55025">
        <ele>444.8</ele>
      </trkpt>
      <trkpt lat="47.73318" lon="9.5503">
        <ele>445.6</ele>
      </trkpt>
      <trkpt lat="47.73345" lon="9.54996">
        <ele>446.2</ele>
      </trkpt>
      <trkpt lat="47.73386" lon="9.54945">
        <ele>447.7</ele>
      </trkpt>
      <trkpt lat="47.73425" lon="9.5489">
        <ele>449.6</ele>
      </trkpt>
      <trkpt lat="47.73434" lon="9.54876">
        <ele>450.4</ele>
      </trkpt>
      <trkpt lat="47.73471" lon="9.54825">
        <ele>452.9</ele>
      </trkpt>
      <trkpt lat="47.73505" lon="9.54777">
        <ele>455</ele>
      </trkpt>
      <trkpt lat="47.73543" lon="9.54724">
        <ele>454.7</ele>
      </trkpt>
      <trkpt lat="47.73553" lon="9.5471">
        <ele>454.5</ele>
      </trkpt>
      <trkpt lat="47.73584" lon="9.54666">
        <ele>454</ele>
      </trkpt>
      <trkpt lat="47.73616" lon="9.54622">
        <ele>455.7</ele>
      </trkpt>
      <trkpt lat="47.7364" lon="9.54592">
        <ele>456.9</ele>
      </trkpt>
      <trkpt lat="47.73692" lon="9.54519">
        <ele>458.8</ele>
      </trkpt>
      <trkpt lat="47.73703" lon="9.54502">
        <ele>459.3</ele>
      </trkpt>
      <trkpt lat="47.7372" lon="9.54544">
        <ele>459.3</ele>
      </trkpt>
      <trkpt lat="47.73798" lon="9.54707">
        <ele>457.2</ele>
      </trkpt>
      <trkpt lat="47.73847" lon="9.54804">
        <ele>454.6</ele>
      </trkpt>
      <trkpt lat="47.73879" lon="9.54839">
        <ele>453.1</ele>
      </trkpt>
      <trkpt lat="47.73903" lon="9.5485">
        <ele>452</ele>
      </trkpt>
      <trkpt lat="47.73924" lon="9.54861">
        <ele>451.2</ele>
      </trkpt>
      <trkpt lat="47.73959" lon="9.54875">
        <ele>451.3</ele>
      </trkpt>
      <trkpt lat="47.73994" lon="9.54888">
        <ele>451.8</ele>
      </trkpt>
      <trkpt lat="47.74015" lon="9.54893">
        <ele>451.8</ele>
      </trkpt>
      <trkpt lat="47.74028" lon="9.54887">
        <ele>451.9</ele>
      </trkpt>
      <trkpt lat="47.74056" lon="9.54882">
        <ele>452</ele>
      </trkpt>
      <trkpt lat="47.74068" lon="9.54877">
        <ele>452</ele>
      </trkpt>
      <trkpt lat="47.74095" lon="9.54859">
        <ele>453.5</ele>
      </trkpt>
      <trkpt lat="47.7411" lon="9.5486">
        <ele>454.8</ele>
      </trkpt>
      <trkpt lat="47.74143" lon="9.54871">
        <ele>457.8</ele>
      </trkpt>
      <trkpt lat="47.74166" lon="9.54887">
        <ele>459.9</ele>
      </trkpt>
      <trkpt lat="47.74233" lon="9.55005">
        <ele>461.6</ele>
      </trkpt>
      <trkpt lat="47.74339" lon="9.55193">
        <ele>458.1</ele>
      </trkpt>
      <trkpt lat="47.74393" lon="9.55307">
        <ele>455.6</ele>
      </trkpt>
      <trkpt lat="47.74452" lon="9.55418">
        <ele>454.8</ele>
      </trkpt>
      <trkpt lat="47.74521" lon="9.55542">
        <ele>457.3</ele>
      </trkpt>
      <trkpt lat="47.74595" lon="9.55675">
        <ele>456.8</ele>
      </trkpt>
      <trkpt lat="47.74656" lon="9.55787">
        <ele>458.6</ele>
      </trkpt>
      <trkpt lat="47.7475" lon="9.55953">
        <ele>456.1</ele>
      </trkpt>
      <trkpt lat="47.74781" lon="9.56019">
        <ele>452.8</ele>
      </trkpt>
      <trkpt lat="47.74792" lon="9.56042">
        <ele>452.3</ele>
      </trkpt>
      <trkpt lat="47.74824" lon="9.56074">
        <ele>454.2</ele>
      </trkpt>
      <trkpt lat="47.74862" lon="9.56112">
        <ele>454.9</ele>
      </trkpt>
      <trkpt lat="47.74893" lon="9.56124">
        <ele>455.8</ele>
      </trkpt>
      <trkpt lat="47.74926" lon="9.56138">
        <ele>456.6</ele>
      </trkpt>
      <trkpt lat="47.74951" lon="9.56163">
        <ele>456.3</ele>
      </trkpt>
      <trkpt lat="47.74974" lon="9.56208">
        <ele>455.7</ele>
      </trkpt>
      <trkpt lat="47.74986" lon="9.56229">
        <ele>455</ele>
      </trkpt>
      <trkpt lat="47.75022" lon="9.56297">
        <ele>453</ele>
      </trkpt>
      <trkpt lat="47.75039" lon="9.56321">
        <ele>452</ele>
      </trkpt>
      <trkpt lat="47.75057" lon="9.56331">
        <ele>451.4</ele>
      </trkpt>
      <trkpt lat="47.75081" lon="9.5633">
        <ele>451.2</ele>
      </trkpt>
      <trkpt lat="47.75095" lon="9.56315">
        <ele>451.2</ele>
      </trkpt>
      <trkpt lat="47.75117" lon="9.563">
        <ele>450.3</ele>
      </trkpt>
      <trkpt lat="47.7513" lon="9.56298">
        <ele>449.3</ele>
      </trkpt>
      <trkpt lat="47.75145" lon="9.56309">
        <ele>447.6</ele>
      </trkpt>
      <trkpt lat="47.75151" lon="9.56324">
        <ele>446.5</ele>
      </trkpt>
      <trkpt lat="47.75161" lon="9.5636">
        <ele>445</ele>
      </trkpt>
      <trkpt lat="47.75176" lon="9.56387">
        <ele>444.8</ele>
      </trkpt>
      <trkpt lat="47.75203" lon="9.56409">
        <ele>446.2</ele>
      </trkpt>
      <trkpt lat="47.75212" lon="9.56418">
        <ele>446.7</ele>
      </trkpt>
      <trkpt lat="47.75225" lon="9.56432">
        <ele>447.5</ele>
      </trkpt>
      <trkpt lat="47.75231" lon="9.56435">
        <ele>447.9</ele>
      </trkpt>
      <trkpt lat="47.75254" lon="9.56435">
        <ele>449.4</ele>
      </trkpt>
      <trkpt lat="47.75288" lon="9.56438">
        <ele>453</ele>
      </trkpt>
      <trkpt lat="47.75466" lon="9.56476">
        <ele>462.9</ele>
      </trkpt>
      <trkpt lat="47.75498" lon="9.56491">
        <ele>464.9</ele>
      </trkpt>
      <trkpt lat="47.75522" lon="9.56519">
        <ele>464.9</ele>
      </trkpt>
      <trkpt lat="47.75562" lon="9.56562">
        <ele>464.3</ele>
      </trkpt>
      <trkpt lat="47.75584" lon="9.56575">
        <ele>464.4</ele>
      </trkpt>
      <trkpt lat="47.75638" lon="9.5657">
        <ele>462.2</ele>
      </trkpt>
      <trkpt lat="47.75675" lon="9.56607">
        <ele>459.5</ele>
      </trkpt>
      <trkpt lat="47.75687" lon="9.56611">
        <ele>459.3</ele>
      </trkpt>
      <trkpt lat="47.75701" lon="9.56608">
        <ele>459</ele>
      </trkpt>
      <trkpt lat="47.75739" lon="9.56605">
        <ele>458.2</ele>
      </trkpt>
      <trkpt lat="47.75789" lon="9.56617">
        <ele>459.2</ele>
      </trkpt>
      <trkpt lat="47.75812" lon="9.56612">
        <ele>460.2</ele>
      </trkpt>
      <trkpt lat="47.75837" lon="9.56598">
        <ele>462</ele>
      </trkpt>
      <trkpt lat="47.75872" lon="9.56577">
        <ele>463.9</ele>
      </trkpt>
      <trkpt lat="47.75897" lon="9.56574">
        <ele>464.4</ele>
      </trkpt>
      <trkpt lat="47.75914" lon="9.56585">
        <ele>463.9</ele>
      </trkpt>
      <trkpt lat="47.75931" lon="9.56613">
        <ele>463.6</ele>
      </trkpt>
      <trkpt lat="47.75943" lon="9.56683">
        <ele>462.6</ele>
      </trkpt>
      <trkpt lat="47.75959" lon="9.5674">
        <ele>463.5</ele>
      </trkpt>
      <trkpt lat="47.75984" lon="9.56815">
        <ele>462.1</ele>
      </trkpt>
      <trkpt lat="47.76004" lon="9.56867">
        <ele>460.8</ele>
      </trkpt>
      <trkpt lat="47.75982" lon="9.56871">
        <ele>460.1</ele>
      </trkpt>
      <trkpt lat="47.75968" lon="9.56875">
        <ele>459.5</ele>
      </trkpt>
      <trkpt lat="47.7594" lon="9.56904">
        <ele>457.9</ele>
      </trkpt>
      <trkpt lat="47.75922" lon="9.56925">
        <ele>457</ele>
      </trkpt>
      <trkpt lat="47.75905" lon="9.56955">
        <ele>454.9</ele>
      </trkpt>
      <trkpt lat="47.75897" lon="9.56979">
        <ele>453.3</ele>
      </trkpt>
      <trkpt lat="47.7589" lon="9.57003">
        <ele>451.7</ele>
      </trkpt>
      <trkpt lat="47.75909" lon="9.57022">
        <ele>452.5</ele>
      </trkpt>
      <trkpt lat="47.75913" lon="9.57031">
        <ele>452.1</ele>
      </trkpt>
      <trkpt lat="47.75918" lon="9.57038">
        <ele>451.9</ele>
      </trkpt>
      <trkpt lat="47.75933" lon="9.5705">
        <ele>451.8</ele>
      </trkpt>
      <trkpt lat="47.75942" lon="9.57063">
        <ele>451.2</ele>
      </trkpt>
      <trkpt lat="47.75954" lon="9.57071">
        <ele>451.4</ele>
      </trkpt>
      <trkpt lat="47.75988" lon="9.57067">
        <ele>454.5</ele>
      </trkpt>
      <trkpt lat="47.7602" lon="9.57061">
        <ele>456.1</ele>
      </trkpt>
      <trkpt lat="47.76041" lon="9.57062">
        <ele>456.3</ele>
      </trkpt>
      <trkpt lat="47.76052" lon="9.57082">
        <ele>454.7</ele>
      </trkpt>
      <trkpt lat="47.76067" lon="9.57111">
        <ele>456.3</ele>
      </trkpt>
      <trkpt lat="47.76086" lon="9.57134">
        <ele>458.1</ele>
      </trkpt>
      <trkpt lat="47.76164" lon="9.5716">
        <ele>459.8</ele>
      </trkpt>
      <trkpt lat="47.76243" lon="9.57176">
        <ele>460</ele>
      </trkpt>
      <trkpt lat="47.76294" lon="9.57138">
        <ele>459.3</ele>
      </trkpt>
      <trkpt lat="47.7634" lon="9.57091">
        <ele>456.6</ele>
      </trkpt>
      <trkpt lat="47.76361" lon="9.57085">
        <ele>457.1</ele>
      </trkpt>
      <trkpt lat="47.76377" lon="9.57092">
        <ele>457.9</ele>
      </trkpt>
      <trkpt lat="47.76373" lon="9.57111">
        <ele>458.6</ele>
      </trkpt>
      <trkpt lat="47.76366" lon="9.57129">
        <ele>459.1</ele>
      </trkpt>
      <trkpt lat="47.76358" lon="9.57151">
        <ele>459.9</ele>
      </trkpt>
      <trkpt lat="47.76352" lon="9.57173">
        <ele>460.8</ele>
      </trkpt>
      <trkpt lat="47.7635" lon="9.57191">
        <ele>461.6</ele>
      </trkpt>
      <trkpt lat="47.76351" lon="9.57205">
        <ele>462.2</ele>
      </trkpt>
      <trkpt lat="47.76351" lon="9.5722">
        <ele>463</ele>
      </trkpt>
      <trkpt lat="47.76354" lon="9.57235">
        <ele>463.8</ele>
      </trkpt>
      <trkpt lat="47.76362" lon="9.57229">
        <ele>463.7</ele>
      </trkpt>
      <trkpt lat="47.76385" lon="9.57218">
        <ele>463.7</ele>
      </trkpt>
      <trkpt lat="47.76406" lon="9.57208">
        <ele>463.7</ele>
      </trkpt>
      <trkpt lat="47.7642" lon="9.57203">
        <ele>463.8</ele>
      </trkpt>
      <trkpt lat="47.76442" lon="9.57204">
        <ele>464.1</ele>
      </trkpt>
      <trkpt lat="47.76487" lon="9.57216">
        <ele>465.2</ele>
      </trkpt>
      <trkpt lat="47.76512" lon="9.57232">
        <ele>466.5</ele>
      </trkpt>
      <trkpt lat="47.76618" lon="9.57326">
        <ele>470.6</ele>
      </trkpt>
      <trkpt lat="47.76648" lon="9.57356">
        <ele>471.6</ele>
      </trkpt>
      <trkpt lat="47.76705" lon="9.57406">
        <ele>472.8</ele>
      </trkpt>
      <trkpt lat="47.76772" lon="9.57427">
        <ele>475.4</ele>
      </trkpt>
      <trkpt lat="47.76807" lon="9.57435">
        <ele>474.7</ele>
      </trkpt>
      <trkpt lat="47.7684" lon="9.57467">
        <ele>472.5</ele>
      </trkpt>
      <trkpt lat="47.76854" lon="9.5749">
        <ele>470.9</ele>
      </trkpt>
      <trkpt lat="47.76886" lon="9.57577">
        <ele>464.5</ele>
      </trkpt>
      <trkpt lat="47.7691" lon="9.57623">
        <ele>458.6</ele>
      </trkpt>
      <trkpt lat="47.76924" lon="9.57645">
        <ele>454.5</ele>
      </trkpt>
      <trkpt lat="47.76931" lon="9.57653">
        <ele>452.6</ele>
      </trkpt>
      <trkpt lat="47.76945" lon="9.57668">
        <ele>449.9</ele>
      </trkpt>
      <trkpt lat="47.76957" lon="9.5767">
        <ele>449</ele>
      </trkpt>
      <trkpt lat="47.76959" lon="9.57687">
        <ele>448.5</ele>
      </trkpt>
      <trkpt lat="47.76958" lon="9.57716">
        <ele>447.8</ele>
      </trkpt>
      <trkpt lat="47.76951" lon="9.57746">
        <ele>447.3</ele>
      </trkpt>
      <trkpt lat="47.76932" lon="9.57777">
        <ele>447.8</ele>
      </trkpt>
      <trkpt lat="47.76929" lon="9.57782">
        <ele>448</ele>
      </trkpt>
      <trkpt lat="47.76926" lon="9.57789">
        <ele>448.2</ele>
      </trkpt>
      <trkpt lat="47.76923" lon="9.57798">
        <ele>448.3</ele>
      </trkpt>
      <trkpt lat="47.76922" lon="9.57807">
        <ele>448.5</ele>
      </trkpt>
      <trkpt lat="47.76924" lon="9.57816">
        <ele>448.5</ele>
      </trkpt>
      <trkpt lat="47.76942" lon="9.57847">
        <ele>448.4</ele>
      </trkpt>
      <trkpt lat="47.76953" lon="9.57873">
        <ele>449.1</ele>
      </trkpt>
      <trkpt lat="47.76963" lon="9.57884">
        <ele>449.3</ele>
      </trkpt>
      <trkpt lat="47.76973" lon="9.57892">
        <ele>449.3</ele>
      </trkpt>
      <trkpt lat="47.77025" lon="9.57913">
        <ele>450.1</ele>
      </trkpt>
      <trkpt lat="47.77066" lon="9.57938">
        <ele>451.7</ele>
      </trkpt>
      <trkpt lat="47.77078" lon="9.57931">
        <ele>451.6</ele>
      </trkpt>
      <trkpt lat="47.77084" lon="9.57924">
        <ele>451.3</ele>
      </trkpt>
      <trkpt lat="47.77089" lon="9.57925">
        <ele>451.1</ele>
      </trkpt>
      <trkpt lat="47.77092" lon="9.57934">
        <ele>451.4</ele>
      </trkpt>
      <trkpt lat="47.77095" lon="9.57945">
        <ele>452.1</ele>
      </trkpt>
      <trkpt lat="47.77115" lon="9.57965">
        <ele>453.4</ele>
      </trkpt>
      <trkpt lat="47.77142" lon="9.57995">
        <ele>457.7</ele>
      </trkpt>
      <trkpt lat="47.77168" lon="9.58034">
        <ele>461.2</ele>
      </trkpt>
      <trkpt lat="47.77172" lon="9.58031">
        <ele>461</ele>
      </trkpt>
      <trkpt lat="47.77176" lon="9.5803">
        <ele>460.9</ele>
      </trkpt>
      <trkpt lat="47.77184" lon="9.58031">
        <ele>460.7</ele>
      </trkpt>
      <trkpt lat="47.77191" lon="9.58037">
        <ele>460.9</ele>
      </trkpt>
      <trkpt lat="47.772" lon="9.58049">
        <ele>461.6</ele>
      </trkpt>
      <trkpt lat="47.77209" lon="9.58064">
        <ele>462.6</ele>
      </trkpt>
      <trkpt lat="47.7724" lon="9.58125">
        <ele>463.6</ele>
      </trkpt>
      <trkpt lat="47.77261" lon="9.58177">
        <ele>462.7</ele>
      </trkpt>
      <trkpt lat="47.77288" lon="9.58209">
        <ele>462.9</ele>
      </trkpt>
      <trkpt lat="47.77347" lon="9.58249">
        <ele>466.1</ele>
      </trkpt>
      <trkpt lat="47.7736" lon="9.58257">
        <ele>466.2</ele>
      </trkpt>
      <trkpt lat="47.77377" lon="9.58273">
        <ele>466.2</ele>
      </trkpt>
      <trkpt lat="47.77386" lon="9.58281">
        <ele>466.4</ele>
      </trkpt>
      <trkpt lat="47.77392" lon="9.58284">
        <ele>466.5</ele>
      </trkpt>
      <trkpt lat="47.77601" lon="9.5837">
        <ele>467.8</ele>
      </trkpt>
      <trkpt lat="47.77682" lon="9.58405">
        <ele>462.3</ele>
      </trkpt>
      <trkpt lat="47.77678" lon="9.58431">
        <ele>462.2</ele>
      </trkpt>
      <trkpt lat="47.77667" lon="9.58482">
        <ele>460.8</ele>
      </trkpt>
      <trkpt lat="47.77657" lon="9.58535">
        <ele>459.7</ele>
      </trkpt>
      <trkpt lat="47.77646" lon="9.58591">
        <ele>458.2</ele>
      </trkpt>
      <trkpt lat="47.77633" lon="9.58637">
        <ele>455.8</ele>
      </trkpt>
      <trkpt lat="47.77616" lon="9.58673">
        <ele>454.2</ele>
      </trkpt>
      <trkpt lat="47.77614" lon="9.58676">
        <ele>454.2</ele>
      </trkpt>
      <trkpt lat="47.77609" lon="9.58688">
        <ele>454.3</ele>
      </trkpt>
      <trkpt lat="47.77598" lon="9.58726">
        <ele>454.5</ele>
      </trkpt>
      <trkpt lat="47.77597" lon="9.58738">
        <ele>454.5</ele>
      </trkpt>
      <trkpt lat="47.77599" lon="9.58752">
        <ele>454.5</ele>
      </trkpt>
      <trkpt lat="47.77602" lon="9.58761">
        <ele>454.5</ele>
      </trkpt>
      <trkpt lat="47.77599" lon="9.58772">
        <ele>454.8</ele>
      </trkpt>
      <trkpt lat="47.77577" lon="9.58843">
        <ele>455.8</ele>
      </trkpt>
      <trkpt lat="47.77585" lon="9.58859">
        <ele>455.7</ele>
      </trkpt>
      <trkpt lat="47.77637" lon="9.58912">
        <ele>455.6</ele>
      </trkpt>
      <trkpt lat="47.77689" lon="9.58961">
        <ele>456.9</ele>
      </trkpt>
      <trkpt lat="47.77734" lon="9.5899">
        <ele>459.1</ele>
      </trkpt>
      <trkpt lat="47.77728" lon="9.59">
        <ele>458.9</ele>
      </trkpt>
      <trkpt lat="47.77716" lon="9.59039">
        <ele>458.9</ele>
      </trkpt>
      <trkpt lat="47.77707" lon="9.59074">
        <ele>458.8</ele>
      </trkpt>
      <trkpt lat="47.77697" lon="9.5912">
        <ele>457.1</ele>
      </trkpt>
      <trkpt lat="47.77766" lon="9.5916">
        <ele>459.6</ele>
      </trkpt>
      <trkpt lat="47.77765" lon="9.59187">
        <ele>457.8</ele>
      </trkpt>
      <trkpt lat="47.77772" lon="9.59211">
        <ele>456.2</ele>
      </trkpt>
      <trkpt lat="47.77783" lon="9.59234">
        <ele>454.6</ele>
      </trkpt>
      <trkpt lat="47.77805" lon="9.5926">
        <ele>452.8</ele>
      </trkpt>
      <trkpt lat="47.7784" lon="9.59287">
        <ele>451.7</ele>
      </trkpt>
      <trkpt lat="47.77853" lon="9.59294">
        <ele>451.9</ele>
      </trkpt>
      <trkpt lat="47.77863" lon="9.59297">
        <ele>452.1</ele>
      </trkpt>
      <trkpt lat="47.77887" lon="9.59307">
        <ele>452.7</ele>
      </trkpt>
      <trkpt lat="47.77986" lon="9.59312">
        <ele>456.9</ele>
      </trkpt>
      <trkpt lat="47.77993" lon="9.59313">
        <ele>457.2</ele>
      </trkpt>
      <trkpt lat="47.78001" lon="9.59319">
        <ele>457.4</ele>
      </trkpt>
      <trkpt lat="47.78003" lon="9.59321">
        <ele>457.3</ele>
      </trkpt>
      <trkpt lat="47.78006" lon="9.59326">
        <ele>457.2</ele>
      </trkpt>
      <trkpt lat="47.78011" lon="9.59338">
        <ele>456.6</ele>
      </trkpt>
      <trkpt lat="47.78014" lon="9.59353">
        <ele>455.2</ele>
      </trkpt>
      <trkpt lat="47.78018" lon="9.59388">
        <ele>452.3</ele>
      </trkpt>
      <trkpt lat="47.78022" lon="9.59407">
        <ele>450.9</ele>
      </trkpt>
      <trkpt lat="47.78031" lon="9.59423">
        <ele>449.8</ele>
      </trkpt>
      <trkpt lat="47.78039" lon="9.59431">
        <ele>449.4</ele>
      </trkpt>
      <trkpt lat="47.78049" lon="9.59437">
        <ele>449.3</ele>
      </trkpt>
      <trkpt lat="47.78057" lon="9.59439">
        <ele>449.5</ele>
      </trkpt>
      <trkpt lat="47.78065" lon="9.59497">
        <ele>444.2</ele>
      </trkpt>
      <trkpt lat="47.78081" lon="9.59586">
        <ele>437.7</ele>
      </trkpt>
      <trkpt lat="47.78099" lon="9.59651">
        <ele>434.9</ele>
      </trkpt>
      <trkpt lat="47.78104" lon="9.59661">
        <ele>434.5</ele>
      </trkpt>
      <trkpt lat="47.7811" lon="9.5967">
        <ele>434.1</ele>
      </trkpt>
      <trkpt lat="47.78108" lon="9.59675">
        <ele>433.9</ele>
      </trkpt>
      <trkpt lat="47.78108" lon="9.5968">
        <ele>433.6</ele>
      </trkpt>
      <trkpt lat="47.78109" lon="9.59685">
        <ele>433.3</ele>
      </trkpt>
      <trkpt lat="47.78112" lon="9.59688">
        <ele>433.2</ele>
      </trkpt>
      <trkpt lat="47.78116" lon="9.59688">
        <ele>433.1</ele>
      </trkpt>
      <trkpt lat="47.78119" lon="9.59687">
        <ele>433.3</ele>
      </trkpt>
      <trkpt lat="47.78131" lon="9.59725">
        <ele>431</ele>
      </trkpt>
      <trkpt lat="47.78144" lon="9.59759">
        <ele>428.7</ele>
      </trkpt>
      <trkpt lat="47.7815" lon="9.59771">
        <ele>427.8</ele>
      </trkpt>
      <trkpt lat="47.78157" lon="9.5978">
        <ele>427.1</ele>
      </trkpt>
      <trkpt lat="47.78172" lon="9.59791">
        <ele>426.2</ele>
      </trkpt>
      <trkpt lat="47.7818" lon="9.59798">
        <ele>426</ele>
      </trkpt>
      <trkpt lat="47.78188" lon="9.5981">
        <ele>425.6</ele>
      </trkpt>
      <trkpt lat="47.78193" lon="9.59826">
        <ele>425</ele>
      </trkpt>
      <trkpt lat="47.78198" lon="9.59848">
        <ele>425</ele>
      </trkpt>
      <trkpt lat="47.78204" lon="9.5988">
        <ele>425.6</ele>
      </trkpt>
      <trkpt lat="47.78207" lon="9.5989">
        <ele>425.8</ele>
      </trkpt>
      <trkpt lat="47.78212" lon="9.59906">
        <ele>426</ele>
      </trkpt>
      <trkpt lat="47.78215" lon="9.59918">
        <ele>426.2</ele>
      </trkpt>
      <trkpt lat="47.78216" lon="9.59933">
        <ele>426.3</ele>
      </trkpt>
      <trkpt lat="47.78217" lon="9.59951">
        <ele>426.5</ele>
      </trkpt>
      <trkpt lat="47.78221" lon="9.59964">
        <ele>426.7</ele>
      </trkpt>
      <trkpt lat="47.78227" lon="9.59976">
        <ele>427</ele>
      </trkpt>
      <trkpt lat="47.78232" lon="9.5999">
        <ele>427.3</ele>
      </trkpt>
      <trkpt lat="47.78236" lon="9.60007">
        <ele>427.5</ele>
      </trkpt>
      <trkpt lat="47.78239" lon="9.60032">
        <ele>427.4</ele>
      </trkpt>
      <trkpt lat="47.7824" lon="9.60055">
        <ele>427.2</ele>
      </trkpt>
      <trkpt lat="47.78242" lon="9.60082">
        <ele>427</ele>
      </trkpt>
      <trkpt lat="47.78246" lon="9.60099">
        <ele>427</ele>
      </trkpt>
      <trkpt lat="47.78245" lon="9.60117">
        <ele>427</ele>
      </trkpt>
      <trkpt lat="47.78244" lon="9.60139">
        <ele>427.1</ele>
      </trkpt>
      <trkpt lat="47.78237" lon="9.60181">
        <ele>427.9</ele>
      </trkpt>
      <trkpt lat="47.78235" lon="9.6019">
        <ele>428.4</ele>
      </trkpt>
      <trkpt lat="47.7823" lon="9.60211">
        <ele>429.4</ele>
      </trkpt>
      <trkpt lat="47.78237" lon="9.60212">
        <ele>429.3</ele>
      </trkpt>
      <trkpt lat="47.7824" lon="9.60213">
        <ele>429.3</ele>
      </trkpt>
      <trkpt lat="47.78249" lon="9.60216">
        <ele>429.4</ele>
      </trkpt>
      <trkpt lat="47.78254" lon="9.60219">
        <ele>429.4</ele>
      </trkpt>
      <trkpt lat="47.78259" lon="9.60225">
        <ele>429.6</ele>
      </trkpt>
      <trkpt lat="47.78261" lon="9.60227">
        <ele>429.6</ele>
      </trkpt>
      <trkpt lat="47.78268" lon="9.60241">
        <ele>430</ele>
      </trkpt>
      <trkpt lat="47.7827" lon="9.60245">
        <ele>430.1</ele>
      </trkpt>
      <trkpt lat="47.78275" lon="9.60266">
        <ele>430.7</ele>
      </trkpt>
      <trkpt lat="47.78278" lon="9.6032">
        <ele>432.8</ele>
      </trkpt>
      <trkpt lat="47.78279" lon="9.60349">
        <ele>433.4</ele>
      </trkpt>
      <trkpt lat="47.7828" lon="9.60382">
        <ele>433.6</ele>
      </trkpt>
      <trkpt lat="47.78284" lon="9.60403">
        <ele>433.6</ele>
      </trkpt>
      <trkpt lat="47.78295" lon="9.60419">
        <ele>433.4</ele>
      </trkpt>
      <trkpt lat="47.78318" lon="9.60433">
        <ele>432.6</ele>
      </trkpt>
      <trkpt lat="47.78326" lon="9.60438">
        <ele>432.4</ele>
      </trkpt>
      <trkpt lat="47.78348" lon="9.60469">
        <ele>432.3</ele>
      </trkpt>
      <trkpt lat="47.78363" lon="9.60483">
        <ele>432.2</ele>
      </trkpt>
      <trkpt lat="47.7838" lon="9.60498">
        <ele>431.9</ele>
      </trkpt>
      <trkpt lat="47.78397" lon="9.60509">
        <ele>431.5</ele>
      </trkpt>
      <trkpt lat="47.78408" lon="9.60517">
        <ele>431.4</ele>
      </trkpt>
      <trkpt lat="47.78418" lon="9.60523">
        <ele>431.3</ele>
      </trkpt>
      <trkpt lat="47.78425" lon="9.60529">
        <ele>431.2</ele>
      </trkpt>
      <trkpt lat="47.78423" lon="9.60534">
        <ele>431.3</ele>
      </trkpt>
      <trkpt lat="47.78421" lon="9.6054">
        <ele>431.4</ele>
      </trkpt>
      <trkpt lat="47.78417" lon="9.60556">
        <ele>431.7</ele>
      </trkpt>
      <trkpt lat="47.78416" lon="9.60558">
        <ele>431.7</ele>
      </trkpt>
      <trkpt lat="47.78409" lon="9.60584">
        <ele>432</ele>
      </trkpt>
      <trkpt lat="47.78411" lon="9.60585">
        <ele>432</ele>
      </trkpt>
      <trkpt lat="47.78411" lon="9.60588">
        <ele>432.1</ele>
      </trkpt>
      <trkpt lat="47.7841" lon="9.60591">
        <ele>432.2</ele>
      </trkpt>
      <trkpt lat="47.78408" lon="9.6059">
        <ele>432.1</ele>
      </trkpt>
      <trkpt lat="47.78403" lon="9.60607">
        <ele>432.5</ele>
      </trkpt>
      <trkpt lat="47.78402" lon="9.6061">
        <ele>432.6</ele>
      </trkpt>
      <trkpt lat="47.78401" lon="9.60628">
        <ele>433</ele>
      </trkpt>
      <trkpt lat="47.784" lon="9.60632">
        <ele>433.1</ele>
      </trkpt>
      <trkpt lat="47.78399" lon="9.60637">
        <ele>433.1</ele>
      </trkpt>
      <trkpt lat="47.78408" lon="9.60642">
        <ele>433.3</ele>
      </trkpt>
      <trkpt lat="47.7841" lon="9.60645">
        <ele>433.4</ele>
      </trkpt>
      <trkpt lat="47.78413" lon="9.60648">
        <ele>433.5</ele>
      </trkpt>
      <trkpt lat="47.78414" lon="9.60652">
        <ele>433.6</ele>
      </trkpt>
      <trkpt lat="47.78415" lon="9.60657">
        <ele>433.8</ele>
      </trkpt>
      <trkpt lat="47.78399" lon="9.60717">
        <ele>433.9</ele>
      </trkpt>
      <trkpt lat="47.784" lon="9.60732">
        <ele>434</ele>
      </trkpt>
      <trkpt lat="47.78397" lon="9.60742">
        <ele>434</ele>
      </trkpt>
      <trkpt lat="47.78378" lon="9.60805">
        <ele>436</ele>
      </trkpt>
      <trkpt lat="47.78356" lon="9.60885">
        <ele>437.9</ele>
      </trkpt>
      <trkpt lat="47.78341" lon="9.60937">
        <ele>439.3</ele>
      </trkpt>
      <trkpt lat="47.78338" lon="9.60954">
        <ele>439.8</ele>
      </trkpt>
      <trkpt lat="47.78335" lon="9.60973">
        <ele>440.3</ele>
      </trkpt>
      <trkpt lat="47.78315" lon="9.61064">
        <ele>443.3</ele>
      </trkpt>
      <trkpt lat="47.783" lon="9.61144">
        <ele>446.9</ele>
      </trkpt>
      <trkpt lat="47.78299" lon="9.61157">
        <ele>447.5</ele>
      </trkpt>
      <trkpt lat="47.78293" lon="9.61239">
        <ele>450.1</ele>
      </trkpt>
      <trkpt lat="47.78287" lon="9.61272">
        <ele>451.4</ele>
      </trkpt>
      <trkpt lat="47.78286" lon="9.61287">
        <ele>451.9</ele>
      </trkpt>
      <trkpt lat="47.78283" lon="9.61327">
        <ele>453.4</ele>
      </trkpt>
      <trkpt lat="47.78277" lon="9.61325">
        <ele>453.8</ele>
      </trkpt>
      <trkpt lat="47.78275" lon="9.61328">
        <ele>454</ele>
      </trkpt>
      <trkpt lat="47.78276" lon="9.61333">
        <ele>454.2</ele>
      </trkpt>
      <trkpt lat="47.78282" lon="9.61336">
        <ele>453.7</ele>
      </trkpt>
      <trkpt lat="47.78282" lon="9.61346">
        <ele>454</ele>
      </trkpt>
      <trkpt lat="47.78299" lon="9.61354">
        <ele>453</ele>
      </trkpt>
      <trkpt lat="47.78308" lon="9.61362">
        <ele>452.5</ele>
      </trkpt>
      <trkpt lat="47.78315" lon="9.6137">
        <ele>452.2</ele>
      </trkpt>
      <trkpt lat="47.78319" lon="9.61374">
        <ele>452</ele>
      </trkpt>
      <trkpt lat="47.7833" lon="9.61392">
        <ele>451.6</ele>
      </trkpt>
      <trkpt lat="47.78334" lon="9.61404">
        <ele>451.6</ele>
      </trkpt>
      <trkpt lat="47.78338" lon="9.6142">
        <ele>451.8</ele>
      </trkpt>
      <trkpt lat="47.78329" lon="9.61449">
        <ele>452.3</ele>
      </trkpt>
      <trkpt lat="47.78327" lon="9.61463">
        <ele>452.4</ele>
      </trkpt>
      <trkpt lat="47.78327" lon="9.61465">
        <ele>452.4</ele>
      </trkpt>
      <trkpt lat="47.78317" lon="9.61497">
        <ele>452.8</ele>
      </trkpt>
      <trkpt lat="47.78312" lon="9.61511">
        <ele>453.4</ele>
      </trkpt>
      <trkpt lat="47.78322" lon="9.61524">
        <ele>453.4</ele>
      </trkpt>
      <trkpt lat="47.78326" lon="9.61532">
        <ele>453.5</ele>
      </trkpt>
      <trkpt lat="47.7833" lon="9.61537">
        <ele>453.5</ele>
      </trkpt>
      <trkpt lat="47.78334" lon="9.61531">
        <ele>453.1</ele>
      </trkpt>
      <trkpt lat="47.78339" lon="9.61528">
        <ele>452.9</ele>
      </trkpt>
      <trkpt lat="47.78342" lon="9.6153">
        <ele>453</ele>
      </trkpt>
      <trkpt lat="47.78346" lon="9.61536">
        <ele>453.1</ele>
      </trkpt>
      <trkpt lat="47.78348" lon="9.6154">
        <ele>453.2</ele>
      </trkpt>
      <trkpt lat="47.78345" lon="9.6156">
        <ele>453.9</ele>
      </trkpt>
      <trkpt lat="47.78339" lon="9.6161">
        <ele>455.5</ele>
      </trkpt>
      <trkpt lat="47.78337" lon="9.61627">
        <ele>456</ele>
      </trkpt>
      <trkpt lat="47.78335" lon="9.61646">
        <ele>456.5</ele>
      </trkpt>
      <trkpt lat="47.78331" lon="9.6167">
        <ele>457.1</ele>
      </trkpt>
      <trkpt lat="47.78321" lon="9.61744">
        <ele>459.3</ele>
      </trkpt>
      <trkpt lat="47.78322" lon="9.61868">
        <ele>466.9</ele>
      </trkpt>
      <trkpt lat="47.78324" lon="9.61885">
        <ele>467.6</ele>
      </trkpt>
      <trkpt lat="47.78286" lon="9.62001">
        <ele>472.7</ele>
      </trkpt>
      <trkpt lat="47.78271" lon="9.62037">
        <ele>475.9</ele>
      </trkpt>
      <trkpt lat="47.7825" lon="9.62079">
        <ele>481.5</ele>
      </trkpt>
      <trkpt lat="47.78242" lon="9.62096">
        <ele>483.6</ele>
      </trkpt>
      <trkpt lat="47.78206" lon="9.62153">
        <ele>490.7</ele>
      </trkpt>
      <trkpt lat="47.78181" lon="9.62199">
        <ele>495.8</ele>
      </trkpt>
      <trkpt lat="47.78161" lon="9.62236">
        <ele>500.2</ele>
      </trkpt>
      <trkpt lat="47.78149" lon="9.62263">
        <ele>504.7</ele>
      </trkpt>
      <trkpt lat="47.78143" lon="9.62276">
        <ele>507</ele>
      </trkpt>
      <trkpt lat="47.78131" lon="9.62315">
        <ele>512.1</ele>
      </trkpt>
      <trkpt lat="47.78116" lon="9.62375">
        <ele>515.1</ele>
      </trkpt>
      <trkpt lat="47.78088" lon="9.62465">
        <ele>518.3</ele>
      </trkpt>
      <trkpt lat="47.78071" lon="9.62504">
        <ele>520</ele>
      </trkpt>
      <trkpt lat="47.78026" lon="9.62604">
        <ele>526.9</ele>
      </trkpt>
      <trkpt lat="47.7802" lon="9.62619">
        <ele>528.5</ele>
      </trkpt>
      <trkpt lat="47.78017" lon="9.62634">
        <ele>529.9</ele>
      </trkpt>
      <trkpt lat="47.78016" lon="9.62655">
        <ele>532</ele>
      </trkpt>
      <trkpt lat="47.78017" lon="9.62681">
        <ele>533.7</ele>
      </trkpt>
      <trkpt lat="47.7802" lon="9.62704">
        <ele>534.7</ele>
      </trkpt>
      <trkpt lat="47.78015" lon="9.62705">
        <ele>535.1</ele>
      </trkpt>
      <trkpt lat="47.78009" lon="9.62705">
        <ele>535.3</ele>
      </trkpt>
      <trkpt lat="47.7789" lon="9.62702">
        <ele>540.1</ele>
      </trkpt>
      <trkpt lat="47.77868" lon="9.62698">
        <ele>541</ele>
      </trkpt>
      <trkpt lat="47.77851" lon="9.62704">
        <ele>541.5</ele>
      </trkpt>
      <trkpt lat="47.77837" lon="9.62716">
        <ele>541.7</ele>
      </trkpt>
      <trkpt lat="47.77806" lon="9.62754">
        <ele>541.6</ele>
      </trkpt>
      <trkpt lat="47.77799" lon="9.62759">
        <ele>541.7</ele>
      </trkpt>
      <trkpt lat="47.77806" lon="9.62802">
        <ele>541</ele>
      </trkpt>
      <trkpt lat="47.7781" lon="9.62831">
        <ele>540.6</ele>
      </trkpt>
      <trkpt lat="47.77805" lon="9.62876">
        <ele>540</ele>
      </trkpt>
      <trkpt lat="47.77795" lon="9.62925">
        <ele>539.7</ele>
      </trkpt>
      <trkpt lat="47.77792" lon="9.6295">
        <ele>540.3</ele>
      </trkpt>
      <trkpt lat="47.77793" lon="9.63021">
        <ele>542.7</ele>
      </trkpt>
      <trkpt lat="47.77793" lon="9.63044">
        <ele>544.1</ele>
      </trkpt>
      <trkpt lat="47.77813" lon="9.6311">
        <ele>547.3</ele>
      </trkpt>
      <trkpt lat="47.7782" lon="9.6315">
        <ele>550.3</ele>
      </trkpt>
      <trkpt lat="47.77823" lon="9.63248">
        <ele>553</ele>
      </trkpt>
      <trkpt lat="47.77828" lon="9.63349">
        <ele>559.2</ele>
      </trkpt>
      <trkpt lat="47.77832" lon="9.63354">
        <ele>560</ele>
      </trkpt>
      <trkpt lat="47.77868" lon="9.6338">
        <ele>562.3</ele>
      </trkpt>
      <trkpt lat="47.77932" lon="9.63426">
        <ele>563.2</ele>
      </trkpt>
      <trkpt lat="47.78035" lon="9.63493">
        <ele>562.8</ele>
      </trkpt>
      <trkpt lat="47.78128" lon="9.6353">
        <ele>561.3</ele>
      </trkpt>
      <trkpt lat="47.78149" lon="9.63547">
        <ele>562.1</ele>
      </trkpt>
      <trkpt lat="47.78168" lon="9.63573">
        <ele>564</ele>
      </trkpt>
      <trkpt lat="47.78191" lon="9.63629">
        <ele>565.2</ele>
      </trkpt>
      <trkpt lat="47.7822" lon="9.63677">
        <ele>565.1</ele>
      </trkpt>
      <trkpt lat="47.78274" lon="9.63742">
        <ele>562.4</ele>
      </trkpt>
      <trkpt lat="47.78333" lon="9.63816">
        <ele>571.7</ele>
      </trkpt>
      <trkpt lat="47.78349" lon="9.63836">
        <ele>576</ele>
      </trkpt>
      <trkpt lat="47.78343" lon="9.6385">
        <ele>578.5</ele>
      </trkpt>
      <trkpt lat="47.7834" lon="9.63868">
        <ele>581.9</ele>
      </trkpt>
      <trkpt lat="47.78337" lon="9.63914">
        <ele>590.6</ele>
      </trkpt>
      <trkpt lat="47.78335" lon="9.63945">
        <ele>594.7</ele>
      </trkpt>
      <trkpt lat="47.78332" lon="9.63975">
        <ele>598.8</ele>
      </trkpt>
      <trkpt lat="47.78334" lon="9.63999">
        <ele>601.8</ele>
      </trkpt>
      <trkpt lat="47.78338" lon="9.64023">
        <ele>603.2</ele>
      </trkpt>
      <trkpt lat="47.78344" lon="9.64046">
        <ele>604.3</ele>
      </trkpt>
      <trkpt lat="47.78348" lon="9.64072">
        <ele>605.7</ele>
      </trkpt>
      <trkpt lat="47.78347" lon="9.6409">
        <ele>606.1</ele>
      </trkpt>
      <trkpt lat="47.7836" lon="9.64168">
        <ele>602.3</ele>
      </trkpt>
      <trkpt lat="47.78443" lon="9.64322">
        <ele>591.3</ele>
      </trkpt>
      <trkpt lat="47.78453" lon="9.64365">
        <ele>589.9</ele>
      </trkpt>
      <trkpt lat="47.78462" lon="9.64439">
        <ele>590.1</ele>
      </trkpt>
      <trkpt lat="47.78494" lon="9.64555">
        <ele>597</ele>
      </trkpt>
      <trkpt lat="47.78529" lon="9.64675">
        <ele>605.6</ele>
      </trkpt>
      <trkpt lat="47.78548" lon="9.64739">
        <ele>605.1</ele>
      </trkpt>
      <trkpt lat="47.78559" lon="9.64784">
        <ele>602.9</ele>
      </trkpt>
      <trkpt lat="47.78582" lon="9.64843">
        <ele>600.2</ele>
      </trkpt>
      <trkpt lat="47.78585" lon="9.64856">
        <ele>599.5</ele>
      </trkpt>
      <trkpt lat="47.78587" lon="9.6485">
        <ele>600.1</ele>
      </trkpt>
      <trkpt lat="47.78635" lon="9.6478">
        <ele>605.3</ele>
      </trkpt>
      <trkpt lat="47.7864" lon="9.64772">
        <ele>605.5</ele>
      </trkpt>
      <trkpt lat="47.78685" lon="9.64731">
        <ele>606.8</ele>
      </trkpt>
      <trkpt lat="47.78715" lon="9.64702">
        <ele>608</ele>
      </trkpt>
      <trkpt lat="47.78731" lon="9.64686">
        <ele>608.5</ele>
      </trkpt>
      <trkpt lat="47.78807" lon="9.64678">
        <ele>605.5</ele>
      </trkpt>
      <trkpt lat="47.78867" lon="9.64682">
        <ele>600.7</ele>
      </trkpt>
      <trkpt lat="47.78946" lon="9.64734">
        <ele>598.7</ele>
      </trkpt>
      <trkpt lat="47.79022" lon="9.64783">
        <ele>596.3</ele>
      </trkpt>
      <trkpt lat="47.79061" lon="9.64791">
        <ele>594.9</ele>
      </trkpt>
      <trkpt lat="47.79112" lon="9.64778">
        <ele>593.2</ele>
      </trkpt>
      <trkpt lat="47.79125" lon="9.64775">
        <ele>592.9</ele>
      </trkpt>
      <trkpt lat="47.79181" lon="9.64762">
        <ele>591.2</ele>
      </trkpt>
      <trkpt lat="47.79238" lon="9.64753">
        <ele>589.5</ele>
      </trkpt>
      <trkpt lat="47.79284" lon="9.64745">
        <ele>589.2</ele>
      </trkpt>
      <trkpt lat="47.79335" lon="9.64738">
        <ele>589.8</ele>
      </trkpt>
      <trkpt lat="47.79353" lon="9.64728">
        <ele>590.4</ele>
      </trkpt>
      <trkpt lat="47.79377" lon="9.64713">
        <ele>591.2</ele>
      </trkpt>
      <trkpt lat="47.79402" lon="9.647">
        <ele>592.1</ele>
      </trkpt>
      <trkpt lat="47.79446" lon="9.64678">
        <ele>588.9</ele>
      </trkpt>
      <trkpt lat="47.79465" lon="9.6467">
        <ele>586.3</ele>
      </trkpt>
      <trkpt lat="47.79489" lon="9.64666">
        <ele>583.3</ele>
      </trkpt>
      <trkpt lat="47.79505" lon="9.64656">
        <ele>581.2</ele>
      </trkpt>
      <trkpt lat="47.79528" lon="9.6463">
        <ele>579.3</ele>
      </trkpt>
      <trkpt lat="47.79565" lon="9.64572">
        <ele>575.4</ele>
      </trkpt>
      <trkpt lat="47.79604" lon="9.64568">
        <ele>572.2</ele>
      </trkpt>
      <trkpt lat="47.79634" lon="9.64565">
        <ele>567.1</ele>
      </trkpt>
      <trkpt lat="47.79671" lon="9.64575">
        <ele>563.9</ele>
      </trkpt>
      <trkpt lat="47.79696" lon="9.64586">
        <ele>560.8</ele>
      </trkpt>
      <trkpt lat="47.79741" lon="9.6459">
        <ele>551.7</ele>
      </trkpt>
      <trkpt lat="47.79781" lon="9.6459">
        <ele>546</ele>
      </trkpt>
      <trkpt lat="47.79829" lon="9.64585">
        <ele>538.8</ele>
      </trkpt>
      <trkpt lat="47.79831" lon="9.64571">
        <ele>536.8</ele>
      </trkpt>
      <trkpt lat="47.79843" lon="9.64558">
        <ele>534.4</ele>
      </trkpt>
      <trkpt lat="47.79865" lon="9.6454">
        <ele>530.9</ele>
      </trkpt>
      <trkpt lat="47.79889" lon="9.64524">
        <ele>527.3</ele>
      </trkpt>
      <trkpt lat="47.79918" lon="9.64494">
        <ele>521.5</ele>
      </trkpt>
      <trkpt lat="47.79963" lon="9.64453">
        <ele>519.1</ele>
      </trkpt>
      <trkpt lat="47.79978" lon="9.6444">
        <ele>518.4</ele>
      </trkpt>
      <trkpt lat="47.79993" lon="9.64429">
        <ele>517.8</ele>
      </trkpt>
      <trkpt lat="47.80016" lon="9.64417">
        <ele>517</ele>
      </trkpt>
      <trkpt lat="47.80055" lon="9.64403">
        <ele>516.1</ele>
      </trkpt>
      <trkpt lat="47.80072" lon="9.64398">
        <ele>515.9</ele>
      </trkpt>
      <trkpt lat="47.80079" lon="9.64396">
        <ele>515.8</ele>
      </trkpt>
      <trkpt lat="47.80094" lon="9.64392">
        <ele>515.5</ele>
      </trkpt>
      <trkpt lat="47.80105" lon="9.64387">
        <ele>515.2</ele>
      </trkpt>
      <trkpt lat="47.8012" lon="9.64379">
        <ele>514.9</ele>
      </trkpt>
      <trkpt lat="47.80129" lon="9.64368">
        <ele>514.5</ele>
      </trkpt>
      <trkpt lat="47.80135" lon="9.64361">
        <ele>514.3</ele>
      </trkpt>
      <trkpt lat="47.8016" lon="9.64332">
        <ele>513.8</ele>
      </trkpt>
      <trkpt lat="47.80191" lon="9.643">
        <ele>512.6</ele>
      </trkpt>
      <trkpt lat="47.80212" lon="9.64282">
        <ele>512.2</ele>
      </trkpt>
      <trkpt lat="47.80226" lon="9.64269">
        <ele>512</ele>
      </trkpt>
      <trkpt lat="47.80245" lon="9.64253">
        <ele>512</ele>
      </trkpt>
      <trkpt lat="47.80264" lon="9.64239">
        <ele>511.7</ele>
      </trkpt>
      <trkpt lat="47.80287" lon="9.64221">
        <ele>511</ele>
      </trkpt>
      <trkpt lat="47.80307" lon="9.642">
        <ele>510.2</ele>
      </trkpt>
      <trkpt lat="47.80322" lon="9.64176">
        <ele>509.5</ele>
      </trkpt>
      <trkpt lat="47.80334" lon="9.64161">
        <ele>508.6</ele>
      </trkpt>
      <trkpt lat="47.80342" lon="9.64158">
        <ele>506.7</ele>
      </trkpt>
      <trkpt lat="47.80348" lon="9.64156">
        <ele>505.1</ele>
      </trkpt>
      <trkpt lat="47.80371" lon="9.64162">
        <ele>500.5</ele>
      </trkpt>
      <trkpt lat="47.80388" lon="9.6417">
        <ele>497.3</ele>
      </trkpt>
      <trkpt lat="47.80416" lon="9.64182">
        <ele>492.1</ele>
      </trkpt>
      <trkpt lat="47.80436" lon="9.64189">
        <ele>486.6</ele>
      </trkpt>
      <trkpt lat="47.80461" lon="9.64199">
        <ele>479.9</ele>
      </trkpt>
      <trkpt lat="47.80469" lon="9.64202">
        <ele>477.7</ele>
      </trkpt>
      <trkpt lat="47.80487" lon="9.64207">
        <ele>472.9</ele>
      </trkpt>
      <trkpt lat="47.805" lon="9.64208">
        <ele>469</ele>
      </trkpt>
      <trkpt lat="47.80522" lon="9.64206">
        <ele>468.3</ele>
      </trkpt>
      <trkpt lat="47.80538" lon="9.64202">
        <ele>467.8</ele>
      </trkpt>
      <trkpt lat="47.80545" lon="9.64196">
        <ele>467.4</ele>
      </trkpt>
      <trkpt lat="47.80551" lon="9.64211">
        <ele>467.9</ele>
      </trkpt>
      <trkpt lat="47.80559" lon="9.64207">
        <ele>467.5</ele>
      </trkpt>
      <trkpt lat="47.80574" lon="9.64204">
        <ele>467.1</ele>
      </trkpt>
      <trkpt lat="47.80578" lon="9.64205">
        <ele>467</ele>
      </trkpt>
      <trkpt lat="47.80594" lon="9.64216">
        <ele>467.6</ele>
      </trkpt>
      <trkpt lat="47.80606" lon="9.64224">
        <ele>468.3</ele>
      </trkpt>
      <trkpt lat="47.80617" lon="9.64231">
        <ele>468.8</ele>
      </trkpt>
      <trkpt lat="47.80639" lon="9.64243">
        <ele>469.9</ele>
      </trkpt>
      <trkpt lat="47.80657" lon="9.64252">
        <ele>470.6</ele>
      </trkpt>
      <trkpt lat="47.80664" lon="9.64256">
        <ele>470.9</ele>
      </trkpt>
      <trkpt lat="47.80672" lon="9.64261">
        <ele>471</ele>
      </trkpt>
      <trkpt lat="47.80695" lon="9.64273">
        <ele>470.9</ele>
      </trkpt>
      <trkpt lat="47.80734" lon="9.64295">
        <ele>470.6</ele>
      </trkpt>
      <trkpt lat="47.80745" lon="9.643">
        <ele>470.4</ele>
      </trkpt>
      <trkpt lat="47.80747" lon="9.64301">
        <ele>470.4</ele>
      </trkpt>
      <trkpt lat="47.80761" lon="9.64304">
        <ele>470.6</ele>
      </trkpt>
      <trkpt lat="47.80775" lon="9.64306">
        <ele>470.8</ele>
      </trkpt>
      <trkpt lat="47.80788" lon="9.64307">
        <ele>471.1</ele>
      </trkpt>
      <trkpt lat="47.80787" lon="9.64314">
        <ele>471.2</ele>
      </trkpt>
      <trkpt lat="47.80788" lon="9.64321">
        <ele>471.2</ele>
      </trkpt>
      <trkpt lat="47.80789" lon="9.64325">
        <ele>471.3</ele>
      </trkpt>
      <trkpt lat="47.80792" lon="9.64328">
        <ele>471.4</ele>
      </trkpt>
      <trkpt lat="47.80794" lon="9.6433">
        <ele>471.5</ele>
      </trkpt>
      <trkpt lat="47.808" lon="9.64337">
        <ele>472.1</ele>
      </trkpt>
      <trkpt lat="47.80824" lon="9.6436">
        <ele>475.6</ele>
      </trkpt>
      <trkpt lat="47.80834" lon="9.64356">
        <ele>475.8</ele>
      </trkpt>
      <trkpt lat="47.80838" lon="9.64351">
        <ele>475.4</ele>
      </trkpt>
      <trkpt lat="47.80842" lon="9.64345">
        <ele>475</ele>
      </trkpt>
      <trkpt lat="47.80847" lon="9.64336">
        <ele>474.3</ele>
      </trkpt>
      <trkpt lat="47.80857" lon="9.64326">
        <ele>474.3</ele>
      </trkpt>
      <trkpt lat="47.80864" lon="9.64322">
        <ele>474.5</ele>
      </trkpt>
      <trkpt lat="47.80873" lon="9.64318">
        <ele>474.7</ele>
      </trkpt>
      <trkpt lat="47.80875" lon="9.64316">
        <ele>474.7</ele>
      </trkpt>
      <trkpt lat="47.80886" lon="9.64305">
        <ele>474.5</ele>
      </trkpt>
      <trkpt lat="47.80891" lon="9.643">
        <ele>474.3</ele>
      </trkpt>
      <trkpt lat="47.80894" lon="9.64299">
        <ele>474.3</ele>
      </trkpt>
      <trkpt lat="47.80906" lon="9.64304">
        <ele>475.4</ele>
      </trkpt>
      <trkpt lat="47.80916" lon="9.64316">
        <ele>477.1</ele>
      </trkpt>
      <trkpt lat="47.80935" lon="9.64344">
        <ele>478.8</ele>
      </trkpt>
      <trkpt lat="47.80951" lon="9.64366">
        <ele>480.3</ele>
      </trkpt>
      <trkpt lat="47.80957" lon="9.6437">
        <ele>480.2</ele>
      </trkpt>
      <trkpt lat="47.80988" lon="9.64378">
        <ele>477.8</ele>
      </trkpt>
      <trkpt lat="47.80994" lon="9.6438">
        <ele>477.2</ele>
      </trkpt>
      <trkpt lat="47.81013" lon="9.64391">
        <ele>476.6</ele>
      </trkpt>
      <trkpt lat="47.8102" lon="9.64394">
        <ele>476.3</ele>
      </trkpt>
      <trkpt lat="47.81031" lon="9.64397">
        <ele>475.4</ele>
      </trkpt>
      <trkpt lat="47.81034" lon="9.64436">
        <ele>476.7</ele>
      </trkpt>
      <trkpt lat="47.81026" lon="9.64517">
        <ele>478.1</ele>
      </trkpt>
      <trkpt lat="47.81021" lon="9.64531">
        <ele>478.5</ele>
      </trkpt>
      <trkpt lat="47.81017" lon="9.64554">
        <ele>478.3</ele>
      </trkpt>
      <trkpt lat="47.81013" lon="9.64571">
        <ele>478</ele>
      </trkpt>
      <trkpt lat="47.81025" lon="9.64613">
        <ele>479</ele>
      </trkpt>
      <trkpt lat="47.81026" lon="9.6463">
        <ele>479.9</ele>
      </trkpt>
      <trkpt lat="47.81023" lon="9.64647">
        <ele>480.8</ele>
      </trkpt>
      <trkpt lat="47.81015" lon="9.64666">
        <ele>481.5</ele>
      </trkpt>
      <trkpt lat="47.81009" lon="9.64678">
        <ele>482.3</ele>
      </trkpt>
      <trkpt lat="47.81007" lon="9.64694">
        <ele>483.5</ele>
      </trkpt>
      <trkpt lat="47.81008" lon="9.64709">
        <ele>484.8</ele>
      </trkpt>
      <trkpt lat="47.81011" lon="9.64717">
        <ele>485.5</ele>
      </trkpt>
      <trkpt lat="47.81014" lon="9.64725">
        <ele>486.3</ele>
      </trkpt>
      <trkpt lat="47.81022" lon="9.64739">
        <ele>487.6</ele>
      </trkpt>
      <trkpt lat="47.81065" lon="9.64807">
        <ele>492.1</ele>
      </trkpt>
      <trkpt lat="47.81074" lon="9.64818">
        <ele>492.9</ele>
      </trkpt>
      <trkpt lat="47.81071" lon="9.64841">
        <ele>493.8</ele>
      </trkpt>
      <trkpt lat="47.8107" lon="9.64846">
        <ele>494</ele>
      </trkpt>
      <trkpt lat="47.8106" lon="9.64892">
        <ele>495.7</ele>
      </trkpt>
      <trkpt lat="47.81052" lon="9.64928">
        <ele>497.3</ele>
      </trkpt>
      <trkpt lat="47.81036" lon="9.64997">
        <ele>500.6</ele>
      </trkpt>
      <trkpt lat="47.81033" lon="9.6501">
        <ele>500.9</ele>
      </trkpt>
      <trkpt lat="47.81032" lon="9.65015">
        <ele>501</ele>
      </trkpt>
      <trkpt lat="47.81028" lon="9.65031">
        <ele>501.3</ele>
      </trkpt>
      <trkpt lat="47.81026" lon="9.65036">
        <ele>501.4</ele>
      </trkpt>
      <trkpt lat="47.81025" lon="9.6504">
        <ele>501.5</ele>
      </trkpt>
      <trkpt lat="47.81024" lon="9.65045">
        <ele>501.6</ele>
      </trkpt>
      <trkpt lat="47.81017" lon="9.65069">
        <ele>502.1</ele>
      </trkpt>
      <trkpt lat="47.81016" lon="9.65072">
        <ele>502.2</ele>
      </trkpt>
      <trkpt lat="47.81011" lon="9.65092">
        <ele>502.8</ele>
      </trkpt>
      <trkpt lat="47.81005" lon="9.65116">
        <ele>503.8</ele>
      </trkpt>
      <trkpt lat="47.81003" lon="9.65125">
        <ele>504.1</ele>
      </trkpt>
      <trkpt lat="47.80997" lon="9.65167">
        <ele>506.2</ele>
      </trkpt>
      <trkpt lat="47.80996" lon="9.65178">
        <ele>507</ele>
      </trkpt>
      <trkpt lat="47.80996" lon="9.65193">
        <ele>508</ele>
      </trkpt>
      <trkpt lat="47.80992" lon="9.65268">
        <ele>512.8</ele>
      </trkpt>
      <trkpt lat="47.80991" lon="9.65282">
        <ele>513.1</ele>
      </trkpt>
      <trkpt lat="47.80988" lon="9.65317">
        <ele>514</ele>
      </trkpt>
      <trkpt lat="47.80978" lon="9.65424">
        <ele>517.3</ele>
      </trkpt>
      <trkpt lat="47.80975" lon="9.65452">
        <ele>518.3</ele>
      </trkpt>
      <trkpt lat="47.80963" lon="9.65535">
        <ele>520.4</ele>
      </trkpt>
      <trkpt lat="47.80941" lon="9.65626">
        <ele>523</ele>
      </trkpt>
      <trkpt lat="47.80935" lon="9.65644">
        <ele>523.8</ele>
      </trkpt>
      <trkpt lat="47.80941" lon="9.65649">
        <ele>524</ele>
      </trkpt>
      <trkpt lat="47.80944" lon="9.65653">
        <ele>524.1</ele>
      </trkpt>
      <trkpt lat="47.80949" lon="9.65659">
        <ele>524.3</ele>
      </trkpt>
      <trkpt lat="47.80958" lon="9.65675">
        <ele>525</ele>
      </trkpt>
      <trkpt lat="47.80966" lon="9.65698">
        <ele>526.1</ele>
      </trkpt>
      <trkpt lat="47.80968" lon="9.65708">
        <ele>526.6</ele>
      </trkpt>
      <trkpt lat="47.8097" lon="9.65761">
        <ele>529.1</ele>
      </trkpt>
      <trkpt lat="47.80969" lon="9.65811">
        <ele>530.7</ele>
      </trkpt>
      <trkpt lat="47.8097" lon="9.65862">
        <ele>533.5</ele>
      </trkpt>
      <trkpt lat="47.80971" lon="9.65924">
        <ele>538.7</ele>
      </trkpt>
      <trkpt lat="47.80974" lon="9.65955">
        <ele>543.4</ele>
      </trkpt>
      <trkpt lat="47.80987" lon="9.65972">
        <ele>543.4</ele>
      </trkpt>
      <trkpt lat="47.81059" lon="9.66056">
        <ele>546.4</ele>
      </trkpt>
      <trkpt lat="47.81069" lon="9.66068">
        <ele>546.1</ele>
      </trkpt>
      <trkpt lat="47.811" lon="9.66105">
        <ele>547.1</ele>
      </trkpt>
      <trkpt lat="47.81109" lon="9.66115">
        <ele>547.8</ele>
      </trkpt>
      <trkpt lat="47.81129" lon="9.66139">
        <ele>548.8</ele>
      </trkpt>
      <trkpt lat="47.81141" lon="9.66151">
        <ele>548.7</ele>
      </trkpt>
      <trkpt lat="47.81148" lon="9.66159">
        <ele>548.6</ele>
      </trkpt>
      <trkpt lat="47.81188" lon="9.66201">
        <ele>548.8</ele>
      </trkpt>
      <trkpt lat="47.81202" lon="9.66216">
        <ele>549</ele>
      </trkpt>
      <trkpt lat="47.81213" lon="9.66224">
        <ele>548.7</ele>
      </trkpt>
      <trkpt lat="47.81224" lon="9.66229">
        <ele>548</ele>
      </trkpt>
      <trkpt lat="47.81231" lon="9.6626">
        <ele>550.4</ele>
      </trkpt>
      <trkpt lat="47.81246" lon="9.6629">
        <ele>553.4</ele>
      </trkpt>
      <trkpt lat="47.81277" lon="9.66345">
        <ele>558</ele>
      </trkpt>
      <trkpt lat="47.81298" lon="9.66363">
        <ele>557.4</ele>
      </trkpt>
      <trkpt lat="47.81338" lon="9.66396">
        <ele>556.5</ele>
      </trkpt>
      <trkpt lat="47.81354" lon="9.66417">
        <ele>556.6</ele>
      </trkpt>
      <trkpt lat="47.8138" lon="9.66449">
        <ele>556.3</ele>
      </trkpt>
      <trkpt lat="47.81397" lon="9.6647">
        <ele>556.3</ele>
      </trkpt>
      <trkpt lat="47.81419" lon="9.66515">
        <ele>557.9</ele>
      </trkpt>
      <trkpt lat="47.81445" lon="9.66555">
        <ele>558.9</ele>
      </trkpt>
      <trkpt lat="47.81453" lon="9.66571">
        <ele>559.4</ele>
      </trkpt>
      <trkpt lat="47.81458" lon="9.66594">
        <ele>560.7</ele>
      </trkpt>
      <trkpt lat="47.81458" lon="9.66622">
        <ele>562.3</ele>
      </trkpt>
      <trkpt lat="47.81457" lon="9.66682">
        <ele>565.6</ele>
      </trkpt>
      <trkpt lat="47.81456" lon="9.66731">
        <ele>567.5</ele>
      </trkpt>
      <trkpt lat="47.81457" lon="9.66746">
        <ele>568</ele>
      </trkpt>
      <trkpt lat="47.81461" lon="9.66758">
        <ele>568.4</ele>
      </trkpt>
      <trkpt lat="47.81468" lon="9.6677">
        <ele>569</ele>
      </trkpt>
      <trkpt lat="47.81482" lon="9.66792">
        <ele>569.8</ele>
      </trkpt>
      <trkpt lat="47.81512" lon="9.66835">
        <ele>571.5</ele>
      </trkpt>
      <trkpt lat="47.81587" lon="9.6694">
        <ele>573.9</ele>
      </trkpt>
      <trkpt lat="47.81617" lon="9.66977">
        <ele>573.5</ele>
      </trkpt>
      <trkpt lat="47.81635" lon="9.6699">
        <ele>572.4</ele>
      </trkpt>
      <trkpt lat="47.81661" lon="9.67006">
        <ele>570.8</ele>
      </trkpt>
      <trkpt lat="47.8168" lon="9.67025">
        <ele>571</ele>
      </trkpt>
      <trkpt lat="47.8172" lon="9.67082">
        <ele>572.7</ele>
      </trkpt>
      <trkpt lat="47.81747" lon="9.67125">
        <ele>574.1</ele>
      </trkpt>
      <trkpt lat="47.81756" lon="9.67143">
        <ele>574.6</ele>
      </trkpt>
      <trkpt lat="47.81761" lon="9.67153">
        <ele>574.8</ele>
      </trkpt>
      <trkpt lat="47.81765" lon="9.67167">
        <ele>575.3</ele>
      </trkpt>
      <trkpt lat="47.81766" lon="9.67181">
        <ele>575.4</ele>
      </trkpt>
      <trkpt lat="47.81766" lon="9.6719">
        <ele>575.5</ele>
      </trkpt>
      <trkpt lat="47.8178" lon="9.67206">
        <ele>575.2</ele>
      </trkpt>
      <trkpt lat="47.81791" lon="9.67224">
        <ele>575</ele>
      </trkpt>
      <trkpt lat="47.81799" lon="9.67235">
        <ele>574.9</ele>
      </trkpt>
      <trkpt lat="47.81807" lon="9.67249">
        <ele>574.9</ele>
      </trkpt>
      <trkpt lat="47.81815" lon="9.67267">
        <ele>575</ele>
      </trkpt>
      <trkpt lat="47.81838" lon="9.67324">
        <ele>575.7</ele>
      </trkpt>
      <trkpt lat="47.81851" lon="9.67357">
        <ele>575.4</ele>
      </trkpt>
      <trkpt lat="47.81859" lon="9.67369">
        <ele>575.2</ele>
      </trkpt>
      <trkpt lat="47.81868" lon="9.67379">
        <ele>575.1</ele>
      </trkpt>
      <trkpt lat="47.81875" lon="9.67382">
        <ele>575</ele>
      </trkpt>
      <trkpt lat="47.81883" lon="9.67384">
        <ele>574.9</ele>
      </trkpt>
      <trkpt lat="47.81892" lon="9.67384">
        <ele>574.8</ele>
      </trkpt>
      <trkpt lat="47.81899" lon="9.67382">
        <ele>574.8</ele>
      </trkpt>
      <trkpt lat="47.81918" lon="9.67408">
        <ele>574.9</ele>
      </trkpt>
      <trkpt lat="47.81952" lon="9.67434">
        <ele>575.6</ele>
      </trkpt>
      <trkpt lat="47.81978" lon="9.67456">
        <ele>576.4</ele>
      </trkpt>
      <trkpt lat="47.81995" lon="9.67475">
        <ele>577.1</ele>
      </trkpt>
      <trkpt lat="47.82034" lon="9.6752">
        <ele>577.8</ele>
      </trkpt>
      <trkpt lat="47.82049" lon="9.67537">
        <ele>578</ele>
      </trkpt>
      <trkpt lat="47.82068" lon="9.67558">
        <ele>578.3</ele>
      </trkpt>
      <trkpt lat="47.82094" lon="9.67579">
        <ele>578.5</ele>
      </trkpt>
      <trkpt lat="47.82157" lon="9.67645">
        <ele>576.9</ele>
      </trkpt>
      <trkpt lat="47.82182" lon="9.67678">
        <ele>575.7</ele>
      </trkpt>
      <trkpt lat="47.822" lon="9.67711">
        <ele>573.8</ele>
      </trkpt>
      <trkpt lat="47.8221" lon="9.67756">
        <ele>572.3</ele>
      </trkpt>
      <trkpt lat="47.8221" lon="9.67798">
        <ele>571.8</ele>
      </trkpt>
      <trkpt lat="47.82229" lon="9.67823">
        <ele>570</ele>
      </trkpt>
      <trkpt lat="47.82286" lon="9.679">
        <ele>569</ele>
      </trkpt>
      <trkpt lat="47.82295" lon="9.67911">
        <ele>569.1</ele>
      </trkpt>
      <trkpt lat="47.82377" lon="9.68042">
        <ele>565.6</ele>
      </trkpt>
      <trkpt lat="47.82386" lon="9.6806">
        <ele>565.6</ele>
      </trkpt>
      <trkpt lat="47.82433" lon="9.68148">
        <ele>565.3</ele>
      </trkpt>
      <trkpt lat="47.82469" lon="9.68186">
        <ele>562.8</ele>
      </trkpt>
      <trkpt lat="47.82481" lon="9.68201">
        <ele>561.8</ele>
      </trkpt>
      <trkpt lat="47.82495" lon="9.68204">
        <ele>560.9</ele>
      </trkpt>
      <trkpt lat="47.82524" lon="9.68192">
        <ele>562</ele>
      </trkpt>
      <trkpt lat="47.82541" lon="9.68195">
        <ele>562.8</ele>
      </trkpt>
      <trkpt lat="47.82548" lon="9.68204">
        <ele>562.9</ele>
      </trkpt>
      <trkpt lat="47.82558" lon="9.68226">
        <ele>562.8</ele>
      </trkpt>
      <trkpt lat="47.82565" lon="9.68236">
        <ele>562.8</ele>
      </trkpt>
      <trkpt lat="47.82581" lon="9.68239">
        <ele>563.3</ele>
      </trkpt>
      <trkpt lat="47.82607" lon="9.68223">
        <ele>567.7</ele>
      </trkpt>
      <trkpt lat="47.82636" lon="9.68206">
        <ele>572.8</ele>
      </trkpt>
      <trkpt lat="47.82651" lon="9.68211">
        <ele>575</ele>
      </trkpt>
      <trkpt lat="47.82664" lon="9.68215">
        <ele>576.9</ele>
      </trkpt>
      <trkpt lat="47.8268" lon="9.68216">
        <ele>575.7</ele>
      </trkpt>
      <trkpt lat="47.82714" lon="9.68253">
        <ele>572.4</ele>
      </trkpt>
      <trkpt lat="47.82724" lon="9.68278">
        <ele>571.4</ele>
      </trkpt>
      <trkpt lat="47.82731" lon="9.68309">
        <ele>570.9</ele>
      </trkpt>
      <trkpt lat="47.82741" lon="9.68346">
        <ele>571.1</ele>
      </trkpt>
      <trkpt lat="47.82755" lon="9.68371">
        <ele>571.7</ele>
      </trkpt>
      <trkpt lat="47.82783" lon="9.68384">
        <ele>569.3</ele>
      </trkpt>
      <trkpt lat="47.82813" lon="9.68401">
        <ele>567.1</ele>
      </trkpt>
      <trkpt lat="47.82836" lon="9.68429">
        <ele>566.8</ele>
      </trkpt>
      <trkpt lat="47.82888" lon="9.68512">
        <ele>567.2</ele>
      </trkpt>
      <trkpt lat="47.82894" lon="9.68547">
        <ele>568.3</ele>
      </trkpt>
      <trkpt lat="47.82901" lon="9.68577">
        <ele>568.9</ele>
      </trkpt>
      <trkpt lat="47.82915" lon="9.68605">
        <ele>567.5</ele>
      </trkpt>
      <trkpt lat="47.82917" lon="9.68617">
        <ele>567.4</ele>
      </trkpt>
      <trkpt lat="47.8293" lon="9.68642">
        <ele>565.8</ele>
      </trkpt>
      <trkpt lat="47.82936" lon="9.68669">
        <ele>565.4</ele>
      </trkpt>
      <trkpt lat="47.82925" lon="9.68712">
        <ele>568</ele>
      </trkpt>
      <trkpt lat="47.8293" lon="9.68738">
        <ele>568.1</ele>
      </trkpt>
      <trkpt lat="47.82929" lon="9.68766">
        <ele>568.9</ele>
      </trkpt>
      <trkpt lat="47.8295" lon="9.68821">
        <ele>567.7</ele>
      </trkpt>
      <trkpt lat="47.82977" lon="9.68863">
        <ele>565.5</ele>
      </trkpt>
      <trkpt lat="47.82985" lon="9.6887">
        <ele>564.9</ele>
      </trkpt>
      <trkpt lat="47.82991" lon="9.68888">
        <ele>564.8</ele>
      </trkpt>
      <trkpt lat="47.83002" lon="9.68912">
        <ele>564.5</ele>
      </trkpt>
      <trkpt lat="47.83022" lon="9.6897">
        <ele>563.6</ele>
      </trkpt>
      <trkpt lat="47.83036" lon="9.68967">
        <ele>561.2</ele>
      </trkpt>
      <trkpt lat="47.83053" lon="9.68966">
        <ele>558.6</ele>
      </trkpt>
      <trkpt lat="47.83083" lon="9.6897">
        <ele>554.2</ele>
      </trkpt>
      <trkpt lat="47.83096" lon="9.68984">
        <ele>552.5</ele>
      </trkpt>
      <trkpt lat="47.83108" lon="9.69004">
        <ele>550.9</ele>
      </trkpt>
      <trkpt lat="47.83119" lon="9.6902">
        <ele>549.6</ele>
      </trkpt>
      <trkpt lat="47.83134" lon="9.69036">
        <ele>547.8</ele>
      </trkpt>
      <trkpt lat="47.83153" lon="9.69035">
        <ele>543.8</ele>
      </trkpt>
      <trkpt lat="47.83168" lon="9.69032">
        <ele>540.4</ele>
      </trkpt>
      <trkpt lat="47.83186" lon="9.69035">
        <ele>536.7</ele>
      </trkpt>
      <trkpt lat="47.83208" lon="9.69048">
        <ele>532.8</ele>
      </trkpt>
      <trkpt lat="47.83221" lon="9.69063">
        <ele>531.3</ele>
      </trkpt>
      <trkpt lat="47.83238" lon="9.69079">
        <ele>529.1</ele>
      </trkpt>
      <trkpt lat="47.83271" lon="9.69078">
        <ele>522.3</ele>
      </trkpt>
      <trkpt lat="47.83273" lon="9.69078">
        <ele>521.8</ele>
      </trkpt>
      <trkpt lat="47.83276" lon="9.69077">
        <ele>521.2</ele>
      </trkpt>
      <trkpt lat="47.83308" lon="9.6909">
        <ele>516</ele>
      </trkpt>
      <trkpt lat="47.83349" lon="9.69129">
        <ele>515.4</ele>
      </trkpt>
      <trkpt lat="47.83374" lon="9.69152">
        <ele>516.9</ele>
      </trkpt>
      <trkpt lat="47.83406" lon="9.69177">
        <ele>517.2</ele>
      </trkpt>
      <trkpt lat="47.83431" lon="9.69194">
        <ele>516.9</ele>
      </trkpt>
      <trkpt lat="47.83486" lon="9.6924">
        <ele>513.6</ele>
      </trkpt>
      <trkpt lat="47.83495" lon="9.69257">
        <ele>512.8</ele>
      </trkpt>
      <trkpt lat="47.83502" lon="9.69278">
        <ele>512.7</ele>
      </trkpt>
      <trkpt lat="47.83509" lon="9.69375">
        <ele>517.2</ele>
      </trkpt>
      <trkpt lat="47.83519" lon="9.69418">
        <ele>519.1</ele>
      </trkpt>
      <trkpt lat="47.83532" lon="9.69448">
        <ele>517.4</ele>
      </trkpt>
      <trkpt lat="47.83563" lon="9.69506">
        <ele>512.6</ele>
      </trkpt>
      <trkpt lat="47.83574" lon="9.6953">
        <ele>510.5</ele>
      </trkpt>
      <trkpt lat="47.83584" lon="9.69533">
        <ele>508.8</ele>
      </trkpt>
      <trkpt lat="47.83599" lon="9.69574">
        <ele>507.2</ele>
      </trkpt>
      <trkpt lat="47.836" lon="9.69611">
        <ele>506.3</ele>
      </trkpt>
      <trkpt lat="47.83602" lon="9.6964">
        <ele>505</ele>
      </trkpt>
      <trkpt lat="47.8365" lon="9.69725">
        <ele>499.4</ele>
      </trkpt>
      <trkpt lat="47.83659" lon="9.69757">
        <ele>498.8</ele>
      </trkpt>
      <trkpt lat="47.83681" lon="9.69754">
        <ele>500.1</ele>
      </trkpt>
      <trkpt lat="47.83687" lon="9.69752">
        <ele>501</ele>
      </trkpt>
      <trkpt lat="47.83712" lon="9.69746">
        <ele>504.6</ele>
      </trkpt>
      <trkpt lat="47.83705" lon="9.69692">
        <ele>504</ele>
      </trkpt>
      <trkpt lat="47.8369" lon="9.69612">
        <ele>501.5</ele>
      </trkpt>
      <trkpt lat="47.83708" lon="9.69606">
        <ele>505.2</ele>
      </trkpt>
      <trkpt lat="47.83725" lon="9.69611">
        <ele>508.8</ele>
      </trkpt>
      <trkpt lat="47.8375" lon="9.6962">
        <ele>514.2</ele>
      </trkpt>
      <trkpt lat="47.83768" lon="9.69637">
        <ele>517.8</ele>
      </trkpt>
      <trkpt lat="47.83786" lon="9.69656">
        <ele>522.1</ele>
      </trkpt>
      <trkpt lat="47.83802" lon="9.69669">
        <ele>526.1</ele>
      </trkpt>
      <trkpt lat="47.8383" lon="9.69683">
        <ele>533</ele>
      </trkpt>
      <trkpt lat="47.83842" lon="9.69692">
        <ele>534.5</ele>
      </trkpt>
      <trkpt lat="47.8386" lon="9.69723">
        <ele>535.6</ele>
      </trkpt>
      <trkpt lat="47.83868" lon="9.69738">
        <ele>536.1</ele>
      </trkpt>
      <trkpt lat="47.83875" lon="9.69753">
        <ele>536.5</ele>
      </trkpt>
      <trkpt lat="47.83884" lon="9.69766">
        <ele>537.2</ele>
      </trkpt>
      <trkpt lat="47.83894" lon="9.69775">
        <ele>538</ele>
      </trkpt>
      <trkpt lat="47.83911" lon="9.69795">
        <ele>539.6</ele>
      </trkpt>
      <trkpt lat="47.83922" lon="9.69812">
        <ele>540.8</ele>
      </trkpt>
      <trkpt lat="47.83941" lon="9.69833">
        <ele>542.2</ele>
      </trkpt>
      <trkpt lat="47.83956" lon="9.6985">
        <ele>543.3</ele>
      </trkpt>
      <trkpt lat="47.83952" lon="9.69886">
        <ele>543.9</ele>
      </trkpt>
      <trkpt lat="47.83948" lon="9.69953">
        <ele>545.8</ele>
      </trkpt>
      <trkpt lat="47.83949" lon="9.69976">
        <ele>546.9</ele>
      </trkpt>
      <trkpt lat="47.83947" lon="9.69999">
        <ele>547.8</ele>
      </trkpt>
      <trkpt lat="47.83946" lon="9.70017">
        <ele>548</ele>
      </trkpt>
      <trkpt lat="47.83941" lon="9.70034">
        <ele>547.8</ele>
      </trkpt>
      <trkpt lat="47.83936" lon="9.7005">
        <ele>547.4</ele>
      </trkpt>
      <trkpt lat="47.83925" lon="9.70072">
        <ele>546.1</ele>
      </trkpt>
      <trkpt lat="47.83918" lon="9.70084">
        <ele>545.2</ele>
      </trkpt>
      <trkpt lat="47.83914" lon="9.70103">
        <ele>544.3</ele>
      </trkpt>
      <trkpt lat="47.83911" lon="9.70122">
        <ele>543.8</ele>
      </trkpt>
      <trkpt lat="47.8391" lon="9.70148">
        <ele>543.4</ele>
      </trkpt>
      <trkpt lat="47.83957" lon="9.70179">
        <ele>550</ele>
      </trkpt>
      <trkpt lat="47.8398" lon="9.70191">
        <ele>553.2</ele>
      </trkpt>
      <trkpt lat="47.84012" lon="9.70215">
        <ele>558.5</ele>
      </trkpt>
      <trkpt lat="47.84035" lon="9.70245">
        <ele>563.4</ele>
      </trkpt>
      <trkpt lat="47.84036" lon="9.70246">
        <ele>563.5</ele>
      </trkpt>
      <trkpt lat="47.84064" lon="9.70264">
        <ele>568.7</ele>
      </trkpt>
      <trkpt lat="47.84081" lon="9.70275">
        <ele>571.6</ele>
      </trkpt>
      <trkpt lat="47.84103" lon="9.70288">
        <ele>575.1</ele>
      </trkpt>
      <trkpt lat="47.84125" lon="9.7029">
        <ele>578.5</ele>
      </trkpt>
      <trkpt lat="47.84148" lon="9.70298">
        <ele>581.8</ele>
      </trkpt>
      <trkpt lat="47.84154" lon="9.70293">
        <ele>583</ele>
      </trkpt>
      <trkpt lat="47.84181" lon="9.70281">
        <ele>585.6</ele>
      </trkpt>
      <trkpt lat="47.84192" lon="9.70278">
        <ele>585.7</ele>
      </trkpt>
      <trkpt lat="47.84197" lon="9.70278">
        <ele>585.6</ele>
      </trkpt>
      <trkpt lat="47.84204" lon="9.70285">
        <ele>585.3</ele>
      </trkpt>
      <trkpt lat="47.8421" lon="9.70298">
        <ele>584.8</ele>
      </trkpt>
      <trkpt lat="47.8422" lon="9.70313">
        <ele>584.4</ele>
      </trkpt>
      <trkpt lat="47.84299" lon="9.70254">
        <ele>584.1</ele>
      </trkpt>
      <trkpt lat="47.84346" lon="9.70215">
        <ele>583</ele>
      </trkpt>
      <trkpt lat="47.84384" lon="9.70182">
        <ele>584.5</ele>
      </trkpt>
      <trkpt lat="47.844" lon="9.70183">
        <ele>585.6</ele>
      </trkpt>
      <trkpt lat="47.84413" lon="9.70187">
        <ele>586.5</ele>
      </trkpt>
      <trkpt lat="47.8443" lon="9.70197">
        <ele>587.5</ele>
      </trkpt>
      <trkpt lat="47.84448" lon="9.70215">
        <ele>588</ele>
      </trkpt>
      <trkpt lat="47.8446" lon="9.70227">
        <ele>587.9</ele>
      </trkpt>
      <trkpt lat="47.84493" lon="9.7026">
        <ele>586.8</ele>
      </trkpt>
      <trkpt lat="47.84526" lon="9.70291">
        <ele>585.8</ele>
      </trkpt>
      <trkpt lat="47.84549" lon="9.70314">
        <ele>585.2</ele>
      </trkpt>
      <trkpt lat="47.84575" lon="9.70336">
        <ele>584.7</ele>
      </trkpt>
      <trkpt lat="47.84614" lon="9.70359">
        <ele>587.8</ele>
      </trkpt>
      <trkpt lat="47.84641" lon="9.70369">
        <ele>590.1</ele>
      </trkpt>
      <trkpt lat="47.84673" lon="9.70387">
        <ele>592.5</ele>
      </trkpt>
      <trkpt lat="47.84697" lon="9.70397">
        <ele>593.7</ele>
      </trkpt>
      <trkpt lat="47.84716" lon="9.7041">
        <ele>594.7</ele>
      </trkpt>
      <trkpt lat="47.84722" lon="9.70415">
        <ele>595</ele>
      </trkpt>
      <trkpt lat="47.84727" lon="9.70418">
        <ele>595.2</ele>
      </trkpt>
      <trkpt lat="47.84739" lon="9.70428">
        <ele>595.8</ele>
      </trkpt>
      <trkpt lat="47.84758" lon="9.70447">
        <ele>595.5</ele>
      </trkpt>
      <trkpt lat="47.84793" lon="9.70479">
        <ele>592.2</ele>
      </trkpt>
      <trkpt lat="47.84807" lon="9.70502">
        <ele>590.9</ele>
      </trkpt>
      <trkpt lat="47.84816" lon="9.70521">
        <ele>590.2</ele>
      </trkpt>
      <trkpt lat="47.84831" lon="9.70526">
        <ele>588.3</ele>
      </trkpt>
      <trkpt lat="47.84863" lon="9.70516">
        <ele>586.2</ele>
      </trkpt>
      <trkpt lat="47.84898" lon="9.70507">
        <ele>584.1</ele>
      </trkpt>
      <trkpt lat="47.8493" lon="9.70508">
        <ele>583.8</ele>
      </trkpt>
      <trkpt lat="47.84946" lon="9.70512">
        <ele>584.9</ele>
      </trkpt>
      <trkpt lat="47.84964" lon="9.70523">
        <ele>586.2</ele>
      </trkpt>
      <trkpt lat="47.84997" lon="9.70546">
        <ele>588.9</ele>
      </trkpt>
      <trkpt lat="47.85057" lon="9.707">
        <ele>602</ele>
      </trkpt>
      <trkpt lat="47.85098" lon="9.70801">
        <ele>609.3</ele>
      </trkpt>
      <trkpt lat="47.85125" lon="9.70867">
        <ele>611.2</ele>
      </trkpt>
      <trkpt lat="47.85146" lon="9.70916">
        <ele>611</ele>
      </trkpt>
      <trkpt lat="47.85161" lon="9.70954">
        <ele>613</ele>
      </trkpt>
      <trkpt lat="47.85168" lon="9.70948">
        <ele>613</ele>
      </trkpt>
      <trkpt lat="47.85193" lon="9.70953">
        <ele>611.3</ele>
      </trkpt>
      <trkpt lat="47.85207" lon="9.70956">
        <ele>610.2</ele>
      </trkpt>
      <trkpt lat="47.85296" lon="9.70983">
        <ele>608</ele>
      </trkpt>
      <trkpt lat="47.85332" lon="9.70994">
        <ele>607.9</ele>
      </trkpt>
      <trkpt lat="47.85354" lon="9.70993">
        <ele>609.4</ele>
      </trkpt>
      <trkpt lat="47.85369" lon="9.70986">
        <ele>610.4</ele>
      </trkpt>
      <trkpt lat="47.85397" lon="9.70964">
        <ele>612.1</ele>
      </trkpt>
      <trkpt lat="47.85415" lon="9.70951">
        <ele>613.3</ele>
      </trkpt>
      <trkpt lat="47.85448" lon="9.70909">
        <ele>612.7</ele>
      </trkpt>
      <trkpt lat="47.85482" lon="9.70873">
        <ele>609.9</ele>
      </trkpt>
      <trkpt lat="47.85502" lon="9.70843">
        <ele>606.9</ele>
      </trkpt>
      <trkpt lat="47.85507" lon="9.70849">
        <ele>607.6</ele>
      </trkpt>
      <trkpt lat="47.85519" lon="9.70863">
        <ele>609.1</ele>
      </trkpt>
      <trkpt lat="47.85532" lon="9.709">
        <ele>611.9</ele>
      </trkpt>
      <trkpt lat="47.8554" lon="9.70934">
        <ele>613.5</ele>
      </trkpt>
      <trkpt lat="47.85541" lon="9.7096">
        <ele>614.3</ele>
      </trkpt>
      <trkpt lat="47.85538" lon="9.70987">
        <ele>615.3</ele>
      </trkpt>
      <trkpt lat="47.85535" lon="9.71007">
        <ele>616.4</ele>
      </trkpt>
      <trkpt lat="47.85528" lon="9.71032">
        <ele>618.6</ele>
      </trkpt>
      <trkpt lat="47.85528" lon="9.71047">
        <ele>619.7</ele>
      </trkpt>
      <trkpt lat="47.85531" lon="9.71068">
        <ele>621.1</ele>
      </trkpt>
      <trkpt lat="47.85539" lon="9.71086">
        <ele>622.3</ele>
      </trkpt>
      <trkpt lat="47.85545" lon="9.71102">
        <ele>624.1</ele>
      </trkpt>
      <trkpt lat="47.85557" lon="9.71115">
        <ele>625.7</ele>
      </trkpt>
      <trkpt lat="47.85574" lon="9.71138">
        <ele>628.8</ele>
      </trkpt>
      <trkpt lat="47.85588" lon="9.71153">
        <ele>631.1</ele>
      </trkpt>
      <trkpt lat="47.856" lon="9.71164">
        <ele>632.8</ele>
      </trkpt>
      <trkpt lat="47.85616" lon="9.71171">
        <ele>633.6</ele>
      </trkpt>
      <trkpt lat="47.85642" lon="9.71195">
        <ele>633.8</ele>
      </trkpt>
      <trkpt lat="47.85671" lon="9.7122">
        <ele>632</ele>
      </trkpt>
      <trkpt lat="47.85701" lon="9.71242">
        <ele>630.3</ele>
      </trkpt>
      <trkpt lat="47.85741" lon="9.71271">
        <ele>626.5</ele>
      </trkpt>
      <trkpt lat="47.85771" lon="9.71291">
        <ele>624.6</ele>
      </trkpt>
      <trkpt lat="47.85794" lon="9.71304">
        <ele>623.9</ele>
      </trkpt>
      <trkpt lat="47.85806" lon="9.71308">
        <ele>623.8</ele>
      </trkpt>
      <trkpt lat="47.8582" lon="9.71313">
        <ele>623.7</ele>
      </trkpt>
      <trkpt lat="47.85842" lon="9.71318">
        <ele>623.6</ele>
      </trkpt>
      <trkpt lat="47.85892" lon="9.71337">
        <ele>621.9</ele>
      </trkpt>
      <trkpt lat="47.85913" lon="9.71344">
        <ele>620.7</ele>
      </trkpt>
      <trkpt lat="47.85929" lon="9.71348">
        <ele>619.3</ele>
      </trkpt>
      <trkpt lat="47.85981" lon="9.71365">
        <ele>613.9</ele>
      </trkpt>
      <trkpt lat="47.86" lon="9.71371">
        <ele>612.1</ele>
      </trkpt>
      <trkpt lat="47.86005" lon="9.71385">
        <ele>610.1</ele>
      </trkpt>
      <trkpt lat="47.8601" lon="9.71396">
        <ele>608.4</ele>
      </trkpt>
      <trkpt lat="47.86004" lon="9.71484">
        <ele>603.2</ele>
      </trkpt>
      <trkpt lat="47.85998" lon="9.71555">
        <ele>602.4</ele>
      </trkpt>
      <trkpt lat="47.85991" lon="9.71638">
        <ele>600.9</ele>
      </trkpt>
      <trkpt lat="47.85989" lon="9.71658">
        <ele>600.5</ele>
      </trkpt>
      <trkpt lat="47.85984" lon="9.71685">
        <ele>599.9</ele>
      </trkpt>
      <trkpt lat="47.85992" lon="9.71747">
        <ele>598.2</ele>
      </trkpt>
      <trkpt lat="47.86009" lon="9.71829">
        <ele>594.7</ele>
      </trkpt>
      <trkpt lat="47.86018" lon="9.71852">
        <ele>594.7</ele>
      </trkpt>
      <trkpt lat="47.86024" lon="9.71862">
        <ele>594.9</ele>
      </trkpt>
      <trkpt lat="47.86034" lon="9.71883">
        <ele>594.9</ele>
      </trkpt>
      <trkpt lat="47.86039" lon="9.71896">
        <ele>594.9</ele>
      </trkpt>
      <trkpt lat="47.86042" lon="9.71908">
        <ele>594.7</ele>
      </trkpt>
      <trkpt lat="47.86044" lon="9.7192">
        <ele>594.5</ele>
      </trkpt>
      <trkpt lat="47.86048" lon="9.71951">
        <ele>594.2</ele>
      </trkpt>
      <trkpt lat="47.8605" lon="9.71979">
        <ele>593.9</ele>
      </trkpt>
      <trkpt lat="47.86055" lon="9.72012">
        <ele>593</ele>
      </trkpt>
      <trkpt lat="47.86057" lon="9.72038">
        <ele>591.7</ele>
      </trkpt>
      <trkpt lat="47.86057" lon="9.72082">
        <ele>589.4</ele>
      </trkpt>
      <trkpt lat="47.86061" lon="9.72146">
        <ele>587.8</ele>
      </trkpt>
      <trkpt lat="47.86063" lon="9.72161">
        <ele>587.4</ele>
      </trkpt>
      <trkpt lat="47.86068" lon="9.7218">
        <ele>587</ele>
      </trkpt>
      <trkpt lat="47.86075" lon="9.72199">
        <ele>586.7</ele>
      </trkpt>
      <trkpt lat="47.8609" lon="9.72228">
        <ele>586.3</ele>
      </trkpt>
      <trkpt lat="47.86106" lon="9.72251">
        <ele>586.3</ele>
      </trkpt>
      <trkpt lat="47.8612" lon="9.72271">
        <ele>586.2</ele>
      </trkpt>
      <trkpt lat="47.86125" lon="9.7229">
        <ele>586</ele>
      </trkpt>
      <trkpt lat="47.86127" lon="9.72301">
        <ele>585.9</ele>
      </trkpt>
      <trkpt lat="47.86127" lon="9.72321">
        <ele>585.7</ele>
      </trkpt>
      <trkpt lat="47.86124" lon="9.72341">
        <ele>585.1</ele>
      </trkpt>
      <trkpt lat="47.86118" lon="9.72402">
        <ele>581.8</ele>
      </trkpt>
      <trkpt lat="47.86116" lon="9.72413">
        <ele>581.2</ele>
      </trkpt>
      <trkpt lat="47.86104" lon="9.72462">
        <ele>579.4</ele>
      </trkpt>
      <trkpt lat="47.86097" lon="9.72499">
        <ele>578.5</ele>
      </trkpt>
      <trkpt lat="47.86095" lon="9.72515">
        <ele>578.2</ele>
      </trkpt>
      <trkpt lat="47.8609" lon="9.72548">
        <ele>577.6</ele>
      </trkpt>
      <trkpt lat="47.8609" lon="9.72563">
        <ele>577.4</ele>
      </trkpt>
      <trkpt lat="47.86083" lon="9.72644">
        <ele>578.5</ele>
      </trkpt>
      <trkpt lat="47.86083" lon="9.72675">
        <ele>579.5</ele>
      </trkpt>
      <trkpt lat="47.86083" lon="9.72701">
        <ele>581</ele>
      </trkpt>
      <trkpt lat="47.8608" lon="9.72718">
        <ele>581.9</ele>
      </trkpt>
      <trkpt lat="47.86074" lon="9.72746">
        <ele>582.9</ele>
      </trkpt>
      <trkpt lat="47.86047" lon="9.7286">
        <ele>586.6</ele>
      </trkpt>
      <trkpt lat="47.86005" lon="9.72997">
        <ele>588.8</ele>
      </trkpt>
      <trkpt lat="47.86001" lon="9.73018">
        <ele>588.8</ele>
      </trkpt>
      <trkpt lat="47.85995" lon="9.73028">
        <ele>588.3</ele>
      </trkpt>
      <trkpt lat="47.85985" lon="9.73065">
        <ele>587.5</ele>
      </trkpt>
      <trkpt lat="47.8598" lon="9.73094">
        <ele>587.4</ele>
      </trkpt>
      <trkpt lat="47.85978" lon="9.73108">
        <ele>587.6</ele>
      </trkpt>
      <trkpt lat="47.85976" lon="9.73127">
        <ele>587.8</ele>
      </trkpt>
      <trkpt lat="47.85976" lon="9.73138">
        <ele>588</ele>
      </trkpt>
      <trkpt lat="47.85975" lon="9.73145">
        <ele>588.1</ele>
      </trkpt>
      <trkpt lat="47.85972" lon="9.7319">
        <ele>588.6</ele>
      </trkpt>
      <trkpt lat="47.85971" lon="9.73202">
        <ele>588.7</ele>
      </trkpt>
      <trkpt lat="47.85969" lon="9.73212">
        <ele>588.9</ele>
      </trkpt>
      <trkpt lat="47.85973" lon="9.7322">
        <ele>589</ele>
      </trkpt>
      <trkpt lat="47.86004" lon="9.73244">
        <ele>589</ele>
      </trkpt>
      <trkpt lat="47.86028" lon="9.73255">
        <ele>588.6</ele>
      </trkpt>
      <trkpt lat="47.86046" lon="9.7326">
        <ele>588.3</ele>
      </trkpt>
      <trkpt lat="47.86062" lon="9.73262">
        <ele>588.1</ele>
      </trkpt>
      <trkpt lat="47.8608" lon="9.73263">
        <ele>587.9</ele>
      </trkpt>
      <trkpt lat="47.86101" lon="9.73262">
        <ele>587.5</ele>
      </trkpt>
      <trkpt lat="47.86111" lon="9.73262">
        <ele>587.3</ele>
      </trkpt>
      <trkpt lat="47.86132" lon="9.73261">
        <ele>586.9</ele>
      </trkpt>
      <trkpt lat="47.86157" lon="9.73267">
        <ele>586.4</ele>
      </trkpt>
      <trkpt lat="47.86177" lon="9.73275">
        <ele>586.4</ele>
      </trkpt>
      <trkpt lat="47.86195" lon="9.73286">
        <ele>586.6</ele>
      </trkpt>
      <trkpt lat="47.86212" lon="9.73302">
        <ele>586.8</ele>
      </trkpt>
      <trkpt lat="47.86245" lon="9.73329">
        <ele>587</ele>
      </trkpt>
      <trkpt lat="47.86276" lon="9.7335">
        <ele>587.9</ele>
      </trkpt>
      <trkpt lat="47.86306" lon="9.7337">
        <ele>588.6</ele>
      </trkpt>
      <trkpt lat="47.8632" lon="9.73387">
        <ele>588.9</ele>
      </trkpt>
      <trkpt lat="47.86344" lon="9.73425">
        <ele>589.2</ele>
      </trkpt>
      <trkpt lat="47.86369" lon="9.73471">
        <ele>590.5</ele>
      </trkpt>
      <trkpt lat="47.86382" lon="9.73488">
        <ele>591</ele>
      </trkpt>
      <trkpt lat="47.86392" lon="9.73495">
        <ele>591.1</ele>
      </trkpt>
      <trkpt lat="47.86403" lon="9.73499">
        <ele>591.1</ele>
      </trkpt>
      <trkpt lat="47.86483" lon="9.73518">
        <ele>589.8</ele>
      </trkpt>
      <trkpt lat="47.86513" lon="9.73531">
        <ele>590</ele>
      </trkpt>
      <trkpt lat="47.8655" lon="9.7356">
        <ele>590.9</ele>
      </trkpt>
      <trkpt lat="47.86601" lon="9.73595">
        <ele>591.3</ele>
      </trkpt>
      <trkpt lat="47.86649" lon="9.73624">
        <ele>592.3</ele>
      </trkpt>
      <trkpt lat="47.86698" lon="9.73646">
        <ele>592.7</ele>
      </trkpt>
      <trkpt lat="47.86742" lon="9.7366">
        <ele>592.9</ele>
      </trkpt>
      <trkpt lat="47.86743" lon="9.7366">
        <ele>592.9</ele>
      </trkpt>
      <trkpt lat="47.86757" lon="9.73666">
        <ele>593</ele>
      </trkpt>
      <trkpt lat="47.86777" lon="9.73671">
        <ele>593</ele>
      </trkpt>
      <trkpt lat="47.86799" lon="9.73678">
        <ele>593.1</ele>
      </trkpt>
      <trkpt lat="47.86807" lon="9.7366">
        <ele>592.9</ele>
      </trkpt>
      <trkpt lat="47.86815" lon="9.73644">
        <ele>592.7</ele>
      </trkpt>
      <trkpt lat="47.86828" lon="9.7363">
        <ele>592.6</ele>
      </trkpt>
      <trkpt lat="47.86844" lon="9.736">
        <ele>592.2</ele>
      </trkpt>
      <trkpt lat="47.86861" lon="9.73575">
        <ele>591.9</ele>
      </trkpt>
      <trkpt lat="47.8687" lon="9.73569">
        <ele>591.9</ele>
      </trkpt>
      <trkpt lat="47.86877" lon="9.73565">
        <ele>591.9</ele>
      </trkpt>
      <trkpt lat="47.86887" lon="9.73555">
        <ele>592</ele>
      </trkpt>
      <trkpt lat="47.86903" lon="9.73535">
        <ele>592.3</ele>
      </trkpt>
      <trkpt lat="47.86909" lon="9.73526">
        <ele>592.5</ele>
      </trkpt>
      <trkpt lat="47.86914" lon="9.73518">
        <ele>592.7</ele>
      </trkpt>
      <trkpt lat="47.86922" lon="9.73498">
        <ele>593.5</ele>
      </trkpt>
      <trkpt lat="47.86934" lon="9.73482">
        <ele>594.7</ele>
      </trkpt>
      <trkpt lat="47.86926" lon="9.7346">
        <ele>594.3</ele>
      </trkpt>
      <trkpt lat="47.86917" lon="9.73444">
        <ele>593.7</ele>
      </trkpt>
      <trkpt lat="47.86904" lon="9.73423">
        <ele>593</ele>
      </trkpt>
      <trkpt lat="47.86896" lon="9.73409">
        <ele>592.5</ele>
      </trkpt>
      <trkpt lat="47.86892" lon="9.73397">
        <ele>592.2</ele>
      </trkpt>
      <trkpt lat="47.86888" lon="9.73383">
        <ele>592</ele>
      </trkpt>
      <trkpt lat="47.86888" lon="9.73369">
        <ele>591.9</ele>
      </trkpt>
      <trkpt lat="47.86888" lon="9.73357">
        <ele>591.9</ele>
      </trkpt>
      <trkpt lat="47.86893" lon="9.73334">
        <ele>592.3</ele>
      </trkpt>
      <trkpt lat="47.86894" lon="9.73326">
        <ele>592.1</ele>
      </trkpt>
      <trkpt lat="47.86921" lon="9.73231">
        <ele>590.8</ele>
      </trkpt>
      <trkpt lat="47.86945" lon="9.73157">
        <ele>590.8</ele>
      </trkpt>
      <trkpt lat="47.86972" lon="9.73105">
        <ele>590.8</ele>
      </trkpt>
      <trkpt lat="47.87011" lon="9.73054">
        <ele>589.7</ele>
      </trkpt>
      <trkpt lat="47.87048" lon="9.73021">
        <ele>588.8</ele>
      </trkpt>
      <trkpt lat="47.87084" lon="9.73012">
        <ele>589.2</ele>
      </trkpt>
      <trkpt lat="47.8712" lon="9.73002">
        <ele>589.9</ele>
      </trkpt>
      <trkpt lat="47.87158" lon="9.72993">
        <ele>591.7</ele>
      </trkpt>
      <trkpt lat="47.87187" lon="9.72992">
        <ele>592.5</ele>
      </trkpt>
      <trkpt lat="47.87219" lon="9.72996">
        <ele>592.7</ele>
      </trkpt>
      <trkpt lat="47.87259" lon="9.73007">
        <ele>593.5</ele>
      </trkpt>
      <trkpt lat="47.87315" lon="9.73031">
        <ele>594.3</ele>
      </trkpt>
      <trkpt lat="47.87379" lon="9.73059">
        <ele>594.5</ele>
      </trkpt>
      <trkpt lat="47.87405" lon="9.73065">
        <ele>594.2</ele>
      </trkpt>
      <trkpt lat="47.87447" lon="9.73071">
        <ele>593.3</ele>
      </trkpt>
      <trkpt lat="47.87489" lon="9.73066">
        <ele>592.4</ele>
      </trkpt>
      <trkpt lat="47.87536" lon="9.73051">
        <ele>591.9</ele>
      </trkpt>
      <trkpt lat="47.87616" lon="9.73025">
        <ele>591.5</ele>
      </trkpt>
      <trkpt lat="47.87686" lon="9.72992">
        <ele>590.6</ele>
      </trkpt>
      <trkpt lat="47.87737" lon="9.72977">
        <ele>591.5</ele>
      </trkpt>
      <trkpt lat="47.87776" lon="9.72973">
        <ele>591.6</ele>
      </trkpt>
      <trkpt lat="47.8783" lon="9.72968">
        <ele>591.2</ele>
      </trkpt>
      <trkpt lat="47.87909" lon="9.7297">
        <ele>589.5</ele>
      </trkpt>
      <trkpt lat="47.87993" lon="9.72981">
        <ele>589.3</ele>
      </trkpt>
      <trkpt lat="47.88029" lon="9.7299">
        <ele>589.4</ele>
      </trkpt>
      <trkpt lat="47.88058" lon="9.73011">
        <ele>589.6</ele>
      </trkpt>
      <trkpt lat="47.88066" lon="9.73012">
        <ele>589.5</ele>
      </trkpt>
      <trkpt lat="47.88098" lon="9.73018">
        <ele>590.5</ele>
      </trkpt>
      <trkpt lat="47.88105" lon="9.7302">
        <ele>591.1</ele>
      </trkpt>
      <trkpt lat="47.88133" lon="9.73027">
        <ele>593.4</ele>
      </trkpt>
      <trkpt lat="47.88137" lon="9.73027">
        <ele>593.7</ele>
      </trkpt>
      <trkpt lat="47.88139" lon="9.73027">
        <ele>593.9</ele>
      </trkpt>
      <trkpt lat="47.8816" lon="9.7303">
        <ele>595.5</ele>
      </trkpt>
      <trkpt lat="47.88162" lon="9.73037">
        <ele>595.9</ele>
      </trkpt>
      <trkpt lat="47.88167" lon="9.73045">
        <ele>596.6</ele>
      </trkpt>
      <trkpt lat="47.88165" lon="9.73052">
        <ele>596.7</ele>
      </trkpt>
      <trkpt lat="47.88173" lon="9.73055">
        <ele>597</ele>
      </trkpt>
      <trkpt lat="47.88202" lon="9.73052">
        <ele>596.7</ele>
      </trkpt>
      <trkpt lat="47.88206" lon="9.73055">
        <ele>596.8</ele>
      </trkpt>
      <trkpt lat="47.88207" lon="9.73062">
        <ele>597.1</ele>
      </trkpt>
      <trkpt lat="47.88208" lon="9.73112">
        <ele>598.9</ele>
      </trkpt>
      <trkpt lat="47.8821" lon="9.73131">
        <ele>599.5</ele>
      </trkpt>
      <trkpt lat="47.88217" lon="9.73176">
        <ele>600.8</ele>
      </trkpt>
      <trkpt lat="47.88218" lon="9.73185">
        <ele>600.8</ele>
      </trkpt>
      <trkpt lat="47.88219" lon="9.7319">
        <ele>600.8</ele>
      </trkpt>
      <trkpt lat="47.88222" lon="9.7321">
        <ele>600.8</ele>
      </trkpt>
      <trkpt lat="47.88232" lon="9.73237">
        <ele>601.2</ele>
      </trkpt>
      <trkpt lat="47.88244" lon="9.73259">
        <ele>601.7</ele>
      </trkpt>
      <trkpt lat="47.88261" lon="9.73281">
        <ele>602.5</ele>
      </trkpt>
      <trkpt lat="47.88274" lon="9.73296">
        <ele>603.1</ele>
      </trkpt>
      <trkpt lat="47.88317" lon="9.73332">
        <ele>605.2</ele>
      </trkpt>
      <trkpt lat="47.88391" lon="9.73381">
        <ele>606.6</ele>
      </trkpt>
      <trkpt lat="47.88437" lon="9.73401">
        <ele>607.6</ele>
      </trkpt>
      <trkpt lat="47.88446" lon="9.73405">
        <ele>607.6</ele>
      </trkpt>
      <trkpt lat="47.88479" lon="9.7341">
        <ele>607.9</ele>
      </trkpt>
      <trkpt lat="47.88513" lon="9.73412">
        <ele>608</ele>
      </trkpt>
      <trkpt lat="47.88609" lon="9.73407">
        <ele>609</ele>
      </trkpt>
      <trkpt lat="47.8863" lon="9.73411">
        <ele>609.7</ele>
      </trkpt>
      <trkpt lat="47.88682" lon="9.73432">
        <ele>610.5</ele>
      </trkpt>
      <trkpt lat="47.88742" lon="9.73473">
        <ele>610</ele>
      </trkpt>
      <trkpt lat="47.88792" lon="9.73521">
        <ele>609.9</ele>
      </trkpt>
      <trkpt lat="47.888" lon="9.73545">
        <ele>609.7</ele>
      </trkpt>
      <trkpt lat="47.88814" lon="9.73565">
        <ele>609.4</ele>
      </trkpt>
      <trkpt lat="47.88827" lon="9.73581">
        <ele>609.1</ele>
      </trkpt>
      <trkpt lat="47.88831" lon="9.73586">
        <ele>609</ele>
      </trkpt>
      <trkpt lat="47.88879" lon="9.73646">
        <ele>607.9</ele>
      </trkpt>
      <trkpt lat="47.88909" lon="9.73682">
        <ele>607.5</ele>
      </trkpt>
      <trkpt lat="47.88928" lon="9.73706">
        <ele>607</ele>
      </trkpt>
      <trkpt lat="47.88945" lon="9.73726">
        <ele>606.3</ele>
      </trkpt>
      <trkpt lat="47.8896" lon="9.73745">
        <ele>605.6</ele>
      </trkpt>
      <trkpt lat="47.88968" lon="9.73759">
        <ele>605.1</ele>
      </trkpt>
      <trkpt lat="47.89005" lon="9.73756">
        <ele>604.8</ele>
      </trkpt>
      <trkpt lat="47.89015" lon="9.73755">
        <ele>604.9</ele>
      </trkpt>
      <trkpt lat="47.89029" lon="9.73753">
        <ele>604.9</ele>
      </trkpt>
      <trkpt lat="47.89073" lon="9.73762">
        <ele>604.9</ele>
      </trkpt>
      <trkpt lat="47.89078" lon="9.73765">
        <ele>605</ele>
      </trkpt>
      <trkpt lat="47.89091" lon="9.73775">
        <ele>605.2</ele>
      </trkpt>
      <trkpt lat="47.89096" lon="9.73782">
        <ele>605.5</ele>
      </trkpt>
      <trkpt lat="47.89113" lon="9.73802">
        <ele>606.4</ele>
      </trkpt>
      <trkpt lat="47.89127" lon="9.7383">
        <ele>607.5</ele>
      </trkpt>
      <trkpt lat="47.89145" lon="9.7385">
        <ele>608.4</ele>
      </trkpt>
      <trkpt lat="47.89159" lon="9.73863">
        <ele>608.9</ele>
      </trkpt>
      <trkpt lat="47.89179" lon="9.73877">
        <ele>609.8</ele>
      </trkpt>
      <trkpt lat="47.89194" lon="9.73882">
        <ele>610.6</ele>
      </trkpt>
      <trkpt lat="47.8921" lon="9.73881">
        <ele>611.6</ele>
      </trkpt>
      <trkpt lat="47.89219" lon="9.73878">
        <ele>612.3</ele>
      </trkpt>
      <trkpt lat="47.89238" lon="9.7387">
        <ele>614</ele>
      </trkpt>
      <trkpt lat="47.89252" lon="9.73866">
        <ele>615.1</ele>
      </trkpt>
      <trkpt lat="47.8926" lon="9.73865">
        <ele>615.5</ele>
      </trkpt>
      <trkpt lat="47.89271" lon="9.73869">
        <ele>615.7</ele>
      </trkpt>
      <trkpt lat="47.89292" lon="9.73882">
        <ele>615.9</ele>
      </trkpt>
      <trkpt lat="47.89332" lon="9.73906">
        <ele>617.2</ele>
      </trkpt>
      <trkpt lat="47.89345" lon="9.73912">
        <ele>617.1</ele>
      </trkpt>
      <trkpt lat="47.8937" lon="9.73922">
        <ele>616.7</ele>
      </trkpt>
      <trkpt lat="47.89404" lon="9.7393">
        <ele>616.2</ele>
      </trkpt>
      <trkpt lat="47.8954" lon="9.73969">
        <ele>618.7</ele>
      </trkpt>
      <trkpt lat="47.89578" lon="9.7398">
        <ele>619.5</ele>
      </trkpt>
      <trkpt lat="47.89611" lon="9.73985">
        <ele>621.3</ele>
      </trkpt>
      <trkpt lat="47.89708" lon="9.73989">
        <ele>628</ele>
      </trkpt>
      <trkpt lat="47.89745" lon="9.73994">
        <ele>630.4</ele>
      </trkpt>
      <trkpt lat="47.89786" lon="9.74001">
        <ele>630.9</ele>
      </trkpt>
      <trkpt lat="47.89865" lon="9.74017">
        <ele>636.9</ele>
      </trkpt>
      <trkpt lat="47.89897" lon="9.7403">
        <ele>641.6</ele>
      </trkpt>
      <trkpt lat="47.89903" lon="9.74033">
        <ele>642.5</ele>
      </trkpt>
      <trkpt lat="47.89922" lon="9.74074">
        <ele>645.4</ele>
      </trkpt>
      <trkpt lat="47.89937" lon="9.7408">
        <ele>647.2</ele>
      </trkpt>
      <trkpt lat="47.89951" lon="9.74087">
        <ele>648.9</ele>
      </trkpt>
      <trkpt lat="47.89961" lon="9.74092">
        <ele>650.2</ele>
      </trkpt>
      <trkpt lat="47.90002" lon="9.74112">
        <ele>654.5</ele>
      </trkpt>
      <trkpt lat="47.90032" lon="9.74132">
        <ele>652.7</ele>
      </trkpt>
      <trkpt lat="47.9005" lon="9.7415">
        <ele>652.3</ele>
      </trkpt>
      <trkpt lat="47.90073" lon="9.74177">
        <ele>652.1</ele>
      </trkpt>
      <trkpt lat="47.90101" lon="9.74202">
        <ele>651.7</ele>
      </trkpt>
      <trkpt lat="47.90134" lon="9.74225">
        <ele>650.3</ele>
      </trkpt>
      <trkpt lat="47.90178" lon="9.74249">
        <ele>647</ele>
      </trkpt>
      <trkpt lat="47.90225" lon="9.74261">
        <ele>642.1</ele>
      </trkpt>
      <trkpt lat="47.90248" lon="9.74262">
        <ele>640.3</ele>
      </trkpt>
      <trkpt lat="47.90265" lon="9.74265">
        <ele>640</ele>
      </trkpt>
      <trkpt lat="47.9027" lon="9.74269">
        <ele>639.8</ele>
      </trkpt>
      <trkpt lat="47.90287" lon="9.74276">
        <ele>639.7</ele>
      </trkpt>
      <trkpt lat="47.90307" lon="9.74291">
        <ele>639.7</ele>
      </trkpt>
      <trkpt lat="47.9034" lon="9.74334">
        <ele>641.4</ele>
      </trkpt>
      <trkpt lat="47.9037" lon="9.74366">
        <ele>642.9</ele>
      </trkpt>
      <trkpt lat="47.90393" lon="9.74377">
        <ele>645.1</ele>
      </trkpt>
      <trkpt lat="47.90401" lon="9.74383">
        <ele>646</ele>
      </trkpt>
      <trkpt lat="47.90403" lon="9.74384">
        <ele>646.2</ele>
      </trkpt>
      <trkpt lat="47.90405" lon="9.74384">
        <ele>646.3</ele>
      </trkpt>
      <trkpt lat="47.90436" lon="9.74403">
        <ele>648.6</ele>
      </trkpt>
      <trkpt lat="47.90478" lon="9.74422">
        <ele>651.2</ele>
      </trkpt>
      <trkpt lat="47.90505" lon="9.74448">
        <ele>653.2</ele>
      </trkpt>
      <trkpt lat="47.90561" lon="9.74522">
        <ele>654.2</ele>
      </trkpt>
      <trkpt lat="47.90617" lon="9.74575">
        <ele>654.7</ele>
      </trkpt>
      <trkpt lat="47.90648" lon="9.74609">
        <ele>655.4</ele>
      </trkpt>
      <trkpt lat="47.90684" lon="9.74708">
        <ele>655</ele>
      </trkpt>
      <trkpt lat="47.907" lon="9.74754">
        <ele>652.4</ele>
      </trkpt>
      <trkpt lat="47.90717" lon="9.748">
        <ele>649.1</ele>
      </trkpt>
      <trkpt lat="47.90732" lon="9.74828">
        <ele>646.7</ele>
      </trkpt>
      <trkpt lat="47.90831" lon="9.74998">
        <ele>634.1</ele>
      </trkpt>
      <trkpt lat="47.90851" lon="9.75013">
        <ele>633.4</ele>
      </trkpt>
      <trkpt lat="47.90902" lon="9.7505">
        <ele>633.1</ele>
      </trkpt>
      <trkpt lat="47.90923" lon="9.75066">
        <ele>633.3</ele>
      </trkpt>
      <trkpt lat="47.90933" lon="9.75074">
        <ele>632.9</ele>
      </trkpt>
      <trkpt lat="47.90956" lon="9.75093">
        <ele>631.4</ele>
      </trkpt>
      <trkpt lat="47.90962" lon="9.75098">
        <ele>631</ele>
      </trkpt>
      <trkpt lat="47.90958" lon="9.75109">
        <ele>631.1</ele>
      </trkpt>
      <trkpt lat="47.90962" lon="9.75112">
        <ele>630.8</ele>
      </trkpt>
      <trkpt lat="47.90977" lon="9.75122">
        <ele>630.2</ele>
      </trkpt>
      <trkpt lat="47.9102" lon="9.75154">
        <ele>628.7</ele>
      </trkpt>
      <trkpt lat="47.91043" lon="9.75169">
        <ele>627.3</ele>
      </trkpt>
      <trkpt lat="47.91051" lon="9.75175">
        <ele>626.7</ele>
      </trkpt>
      <trkpt lat="47.91054" lon="9.75167">
        <ele>626.7</ele>
      </trkpt>
      <trkpt lat="47.91094" lon="9.75195">
        <ele>624.4</ele>
      </trkpt>
      <trkpt lat="47.9113" lon="9.75217">
        <ele>623.3</ele>
      </trkpt>
      <trkpt lat="47.91134" lon="9.75227">
        <ele>623.1</ele>
      </trkpt>
      <trkpt lat="47.91131" lon="9.75223">
        <ele>623.2</ele>
      </trkpt>
      <trkpt lat="47.9113" lon="9.75217">
        <ele>623.3</ele>
      </trkpt>
      <trkpt lat="47.91133" lon="9.75212">
        <ele>623.3</ele>
      </trkpt>
      <trkpt lat="47.91137" lon="9.75211">
        <ele>623.2</ele>
      </trkpt>
      <trkpt lat="47.9114" lon="9.75215">
        <ele>623.1</ele>
      </trkpt>
      <trkpt lat="47.91141" lon="9.75222">
        <ele>623</ele>
      </trkpt>
      <trkpt lat="47.91138" lon="9.75227">
        <ele>623</ele>
      </trkpt>
      <trkpt lat="47.91134" lon="9.75227">
        <ele>623.1</ele>
      </trkpt>
      <trkpt lat="47.91141" lon="9.75222">
        <ele>623</ele>
      </trkpt>
      <trkpt lat="47.91177" lon="9.75242">
        <ele>621.7</ele>
      </trkpt>
      <trkpt lat="47.91213" lon="9.75258">
        <ele>620.3</ele>
      </trkpt>
      <trkpt lat="47.91229" lon="9.75261">
        <ele>619.8</ele>
      </trkpt>
      <trkpt lat="47.91234" lon="9.75262">
        <ele>619.7</ele>
      </trkpt>
      <trkpt lat="47.91252" lon="9.75263">
        <ele>619.2</ele>
      </trkpt>
      <trkpt lat="47.91277" lon="9.75264">
        <ele>619.4</ele>
      </trkpt>
      <trkpt lat="47.91287" lon="9.75264">
        <ele>619.5</ele>
      </trkpt>
      <trkpt lat="47.91329" lon="9.75246">
        <ele>620</ele>
      </trkpt>
      <trkpt lat="47.9137" lon="9.75233">
        <ele>620.9</ele>
      </trkpt>
      <trkpt lat="47.914" lon="9.7522">
        <ele>621.5</ele>
      </trkpt>
      <trkpt lat="47.91427" lon="9.75209">
        <ele>622</ele>
      </trkpt>
      <trkpt lat="47.91457" lon="9.75187">
        <ele>622.3</ele>
      </trkpt>
      <trkpt lat="47.91465" lon="9.75179">
        <ele>622.3</ele>
      </trkpt>
      <trkpt lat="47.91474" lon="9.75166">
        <ele>622.3</ele>
      </trkpt>
      <trkpt lat="47.91485" lon="9.75147">
        <ele>622.2</ele>
      </trkpt>
      <trkpt lat="47.91494" lon="9.75124">
        <ele>622.1</ele>
      </trkpt>
      <trkpt lat="47.91518" lon="9.75058">
        <ele>620.6</ele>
      </trkpt>
      <trkpt lat="47.91535" lon="9.75">
        <ele>618.7</ele>
      </trkpt>
      <trkpt lat="47.91541" lon="9.74979">
        <ele>618.1</ele>
      </trkpt>
      <trkpt lat="47.91558" lon="9.74928">
        <ele>616.8</ele>
      </trkpt>
      <trkpt lat="47.91572" lon="9.74893">
        <ele>615.8</ele>
      </trkpt>
      <trkpt lat="47.91593" lon="9.74847">
        <ele>614.1</ele>
      </trkpt>
      <trkpt lat="47.91595" lon="9.74843">
        <ele>613.9</ele>
      </trkpt>
      <trkpt lat="47.91631" lon="9.7492">
        <ele>615.4</ele>
      </trkpt>
      <trkpt lat="47.91639" lon="9.74939">
        <ele>615.4</ele>
      </trkpt>
      <trkpt lat="47.91642" lon="9.74935">
        <ele>615.4</ele>
      </trkpt>
      <trkpt lat="47.91644" lon="9.74934">
        <ele>615.3</ele>
      </trkpt>
      <trkpt lat="47.91648" lon="9.74929">
        <ele>615.3</ele>
      </trkpt>
      <trkpt lat="47.91659" lon="9.74923">
        <ele>615.1</ele>
      </trkpt>
      <trkpt lat="47.91682" lon="9.74891">
        <ele>613.1</ele>
      </trkpt>
      <trkpt lat="47.91701" lon="9.74869">
        <ele>610.4</ele>
      </trkpt>
      <trkpt lat="47.91723" lon="9.74863">
        <ele>608.2</ele>
      </trkpt>
      <trkpt lat="47.91741" lon="9.74866">
        <ele>606.9</ele>
      </trkpt>
      <trkpt lat="47.91757" lon="9.74878">
        <ele>606.2</ele>
      </trkpt>
      <trkpt lat="47.91773" lon="9.74889">
        <ele>604.2</ele>
      </trkpt>
      <trkpt lat="47.91794" lon="9.74911">
        <ele>601.2</ele>
      </trkpt>
      <trkpt lat="47.91826" lon="9.74936">
        <ele>594.9</ele>
      </trkpt>
      <trkpt lat="47.91853" lon="9.74949">
        <ele>592.6</ele>
      </trkpt>
      <trkpt lat="47.9186" lon="9.74952">
        <ele>592.4</ele>
      </trkpt>
      <trkpt lat="47.91875" lon="9.7497">
        <ele>591.7</ele>
      </trkpt>
      <trkpt lat="47.9196" lon="9.75021">
        <ele>587.3</ele>
      </trkpt>
      <trkpt lat="47.91967" lon="9.75023">
        <ele>587.2</ele>
      </trkpt>
      <trkpt lat="47.91976" lon="9.75024">
        <ele>587</ele>
      </trkpt>
      <trkpt lat="47.91985" lon="9.75022">
        <ele>586.8</ele>
      </trkpt>
      <trkpt lat="47.91998" lon="9.75013">
        <ele>586.4</ele>
      </trkpt>
      <trkpt lat="47.92012" lon="9.75007">
        <ele>586.3</ele>
      </trkpt>
      <trkpt lat="47.92022" lon="9.75007">
        <ele>586.4</ele>
      </trkpt>
      <trkpt lat="47.92034" lon="9.75009">
        <ele>586.6</ele>
      </trkpt>
      <trkpt lat="47.92038" lon="9.75011">
        <ele>586.7</ele>
      </trkpt>
      <trkpt lat="47.92044" lon="9.75025">
        <ele>587</ele>
      </trkpt>
      <trkpt lat="47.9205" lon="9.7504">
        <ele>587.3</ele>
      </trkpt>
      <trkpt lat="47.92056" lon="9.75054">
        <ele>587.5</ele>
      </trkpt>
      <trkpt lat="47.9206" lon="9.75067">
        <ele>587.7</ele>
      </trkpt>
      <trkpt lat="47.92065" lon="9.75088">
        <ele>587.9</ele>
      </trkpt>
      <trkpt lat="47.92059" lon="9.75094">
        <ele>587.8</ele>
      </trkpt>
      <trkpt lat="47.92054" lon="9.75099">
        <ele>587.8</ele>
      </trkpt>
      <trkpt lat="47.92057" lon="9.75106">
        <ele>587.6</ele>
      </trkpt>
      <trkpt lat="47.9206" lon="9.75114">
        <ele>587.5</ele>
      </trkpt>
      <trkpt lat="47.9207" lon="9.7513">
        <ele>587.3</ele>
      </trkpt>
      <trkpt lat="47.92085" lon="9.75148">
        <ele>587.3</ele>
      </trkpt>
      <trkpt lat="47.92092" lon="9.75155">
        <ele>587.3</ele>
      </trkpt>
      <trkpt lat="47.92094" lon="9.75158">
        <ele>587.3</ele>
      </trkpt>
      <trkpt lat="47.92105" lon="9.7517">
        <ele>587.6</ele>
      </trkpt>
      <trkpt lat="47.92117" lon="9.75183">
        <ele>588.4</ele>
      </trkpt>
      <trkpt lat="47.92122" lon="9.7519">
        <ele>588.6</ele>
      </trkpt>
      <trkpt lat="47.92124" lon="9.75194">
        <ele>588.8</ele>
      </trkpt>
      <trkpt lat="47.92131" lon="9.75208">
        <ele>589.3</ele>
      </trkpt>
      <trkpt lat="47.92133" lon="9.75218">
        <ele>589.6</ele>
      </trkpt>
      <trkpt lat="47.92128" lon="9.75226">
        <ele>589.8</ele>
      </trkpt>
      <trkpt lat="47.92124" lon="9.75234">
        <ele>590</ele>
      </trkpt>
      <trkpt lat="47.92118" lon="9.75255">
        <ele>590.6</ele>
      </trkpt>
      <trkpt lat="47.92114" lon="9.75272">
        <ele>590.5</ele>
      </trkpt>
      <trkpt lat="47.92113" lon="9.75284">
        <ele>590.5</ele>
      </trkpt>
      <trkpt lat="47.92106" lon="9.75315">
        <ele>590.5</ele>
      </trkpt>
      <trkpt lat="47.92107" lon="9.75332">
        <ele>590.4</ele>
      </trkpt>
      <trkpt lat="47.92106" lon="9.7534">
        <ele>590.5</ele>
      </trkpt>
      <trkpt lat="47.921" lon="9.75364">
        <ele>590.8</ele>
      </trkpt>
      <trkpt lat="47.92092" lon="9.75408">
        <ele>591.5</ele>
      </trkpt>
      <trkpt lat="47.92091" lon="9.75414">
        <ele>591.6</ele>
      </trkpt>
      <trkpt lat="47.9209" lon="9.75419">
        <ele>591.7</ele>
      </trkpt>
      <trkpt lat="47.92087" lon="9.75437">
        <ele>592</ele>
      </trkpt>
      <trkpt lat="47.92078" lon="9.75469">
        <ele>592.4</ele>
      </trkpt>
      <trkpt lat="47.9208" lon="9.75478">
        <ele>592.6</ele>
      </trkpt>
      <trkpt lat="47.92079" lon="9.75483">
        <ele>592.6</ele>
      </trkpt>
      <trkpt lat="47.92079" lon="9.75484">
        <ele>592.6</ele>
      </trkpt>
      <trkpt lat="47.92126" lon="9.75528">
        <ele>588.4</ele>
      </trkpt>
      <trkpt lat="47.92132" lon="9.75533">
        <ele>587.8</ele>
      </trkpt>
      <trkpt lat="47.92135" lon="9.75535">
        <ele>587.6</ele>
      </trkpt>
      <trkpt lat="47.92164" lon="9.75563">
        <ele>585.2</ele>
      </trkpt>
      <trkpt lat="47.92167" lon="9.75568">
        <ele>585</ele>
      </trkpt>
      <trkpt lat="47.92175" lon="9.75554">
        <ele>584.7</ele>
      </trkpt>
      <trkpt lat="47.92181" lon="9.75542">
        <ele>584.5</ele>
      </trkpt>
      <trkpt lat="47.92188" lon="9.75518">
        <ele>584.2</ele>
      </trkpt>
      <trkpt lat="47.9219" lon="9.75512">
        <ele>584.1</ele>
      </trkpt>
      <trkpt lat="47.92191" lon="9.75501">
        <ele>584.1</ele>
      </trkpt>
      <trkpt lat="47.92183" lon="9.75442">
        <ele>586.1</ele>
      </trkpt>
      <trkpt lat="47.92182" lon="9.75432">
        <ele>586.4</ele>
      </trkpt>
      <trkpt lat="47.92187" lon="9.75408">
        <ele>586.6</ele>
      </trkpt>
      <trkpt lat="47.92207" lon="9.7536">
        <ele>585.5</ele>
      </trkpt>
      <trkpt lat="47.92218" lon="9.75332">
        <ele>584.8</ele>
      </trkpt>
      <trkpt lat="47.92222" lon="9.75327">
        <ele>584.7</ele>
      </trkpt>
      <trkpt lat="47.9223" lon="9.7532">
        <ele>584.6</ele>
      </trkpt>
      <trkpt lat="47.92237" lon="9.75317">
        <ele>584.3</ele>
      </trkpt>
      <trkpt lat="47.92239" lon="9.75318">
        <ele>584.1</ele>
      </trkpt>
      <trkpt lat="47.92249" lon="9.75322">
        <ele>583.1</ele>
      </trkpt>
      <trkpt lat="47.92261" lon="9.75324">
        <ele>582.8</ele>
      </trkpt>
      <trkpt lat="47.92285" lon="9.75315">
        <ele>583.7</ele>
      </trkpt>
      <trkpt lat="47.92296" lon="9.75305">
        <ele>584.6</ele>
      </trkpt>
      <trkpt lat="47.92311" lon="9.75292">
        <ele>585.8</ele>
      </trkpt>
      <trkpt lat="47.92331" lon="9.75279">
        <ele>587.2</ele>
      </trkpt>
      <trkpt lat="47.92361" lon="9.75256">
        <ele>589.9</ele>
      </trkpt>
      <trkpt lat="47.92375" lon="9.75246">
        <ele>590.8</ele>
      </trkpt>
      <trkpt lat="47.92384" lon="9.75244">
        <ele>591</ele>
      </trkpt>
      <trkpt lat="47.92394" lon="9.7525">
        <ele>590.7</ele>
      </trkpt>
      <trkpt lat="47.92402" lon="9.75257">
        <ele>590.6</ele>
      </trkpt>
      <trkpt lat="47.92412" lon="9.7528">
        <ele>590.1</ele>
      </trkpt>
      <trkpt lat="47.92419" lon="9.75303">
        <ele>589.9</ele>
      </trkpt>
      <trkpt lat="47.92431" lon="9.75356">
        <ele>589.7</ele>
      </trkpt>
      <trkpt lat="47.92442" lon="9.75404">
        <ele>589.7</ele>
      </trkpt>
      <trkpt lat="47.92449" lon="9.75428">
        <ele>589.8</ele>
      </trkpt>
      <trkpt lat="47.92452" lon="9.75443">
        <ele>589.6</ele>
      </trkpt>
      <trkpt lat="47.92456" lon="9.75441">
        <ele>590.1</ele>
      </trkpt>
      <trkpt lat="47.92464" lon="9.75468">
        <ele>590</ele>
      </trkpt>
      <trkpt lat="47.92459" lon="9.75473">
        <ele>589.4</ele>
      </trkpt>
      <trkpt lat="47.92454" lon="9.75478">
        <ele>588.8</ele>
      </trkpt>
      <trkpt lat="47.92453" lon="9.75486">
        <ele>588.4</ele>
      </trkpt>
      <trkpt lat="47.92454" lon="9.75496">
        <ele>588.2</ele>
      </trkpt>
      <trkpt lat="47.92456" lon="9.75503">
        <ele>588.2</ele>
      </trkpt>
      <trkpt lat="47.92458" lon="9.75508">
        <ele>588.3</ele>
      </trkpt>
      <trkpt lat="47.92465" lon="9.75512">
        <ele>588.7</ele>
      </trkpt>
      <trkpt lat="47.92469" lon="9.75514">
        <ele>589</ele>
      </trkpt>
      <trkpt lat="47.92486" lon="9.75525">
        <ele>590</ele>
      </trkpt>
      <trkpt lat="47.92493" lon="9.75531">
        <ele>590.4</ele>
      </trkpt>
      <trkpt lat="47.92499" lon="9.75542">
        <ele>590.4</ele>
      </trkpt>
      <trkpt lat="47.92505" lon="9.75557">
        <ele>590.3</ele>
      </trkpt>
      <trkpt lat="47.9251" lon="9.75576">
        <ele>590</ele>
      </trkpt>
      <trkpt lat="47.92512" lon="9.75597">
        <ele>589.7</ele>
      </trkpt>
      <trkpt lat="47.92511" lon="9.75623">
        <ele>589.1</ele>
      </trkpt>
      <trkpt lat="47.92509" lon="9.75643">
        <ele>588.5</ele>
      </trkpt>
      <trkpt lat="47.92509" lon="9.75651">
        <ele>588.3</ele>
      </trkpt>
      <trkpt lat="47.9251" lon="9.75659">
        <ele>588.3</ele>
      </trkpt>
      <trkpt lat="47.92512" lon="9.75668">
        <ele>588.3</ele>
      </trkpt>
      <trkpt lat="47.92515" lon="9.75677">
        <ele>589</ele>
      </trkpt>
      <trkpt lat="47.92521" lon="9.75692">
        <ele>590.1</ele>
      </trkpt>
      <trkpt lat="47.92537" lon="9.75715">
        <ele>592</ele>
      </trkpt>
      <trkpt lat="47.92547" lon="9.7573">
        <ele>593</ele>
      </trkpt>
      <trkpt lat="47.92555" lon="9.75747">
        <ele>593.6</ele>
      </trkpt>
      <trkpt lat="47.9256" lon="9.75763">
        <ele>593.8</ele>
      </trkpt>
      <trkpt lat="47.92567" lon="9.75762">
        <ele>594.1</ele>
      </trkpt>
      <trkpt lat="47.92571" lon="9.75769">
        <ele>594.2</ele>
      </trkpt>
      <trkpt lat="47.92573" lon="9.75782">
        <ele>594.1</ele>
      </trkpt>
      <trkpt lat="47.92573" lon="9.75814">
        <ele>593.8</ele>
      </trkpt>
      <trkpt lat="47.92574" lon="9.7584">
        <ele>593.7</ele>
      </trkpt>
      <trkpt lat="47.92577" lon="9.75845">
        <ele>593.9</ele>
      </trkpt>
      <trkpt lat="47.92597" lon="9.7585">
        <ele>594.9</ele>
      </trkpt>
      <trkpt lat="47.92602" lon="9.75852">
        <ele>595.1</ele>
      </trkpt>
      <trkpt lat="47.92602" lon="9.75862">
        <ele>595.1</ele>
      </trkpt>
      <trkpt lat="47.92605" lon="9.75886">
        <ele>595.1</ele>
      </trkpt>
      <trkpt lat="47.9262" lon="9.75894">
        <ele>595.3</ele>
      </trkpt>
      <trkpt lat="47.92619" lon="9.759">
        <ele>595.2</ele>
      </trkpt>
      <trkpt lat="47.9262" lon="9.75906">
        <ele>595.2</ele>
      </trkpt>
      <trkpt lat="47.92622" lon="9.75911">
        <ele>595.1</ele>
      </trkpt>
      <trkpt lat="47.92631" lon="9.75924">
        <ele>595</ele>
      </trkpt>
      <trkpt lat="47.92642" lon="9.75938">
        <ele>595</ele>
      </trkpt>
      <trkpt lat="47.9265" lon="9.7595">
        <ele>594.8</ele>
      </trkpt>
      <trkpt lat="47.92662" lon="9.75972">
        <ele>594.5</ele>
      </trkpt>
      <trkpt lat="47.92673" lon="9.75994">
        <ele>594.6</ele>
      </trkpt>
      <trkpt lat="47.92684" lon="9.76017">
        <ele>595.5</ele>
      </trkpt>
      <trkpt lat="47.9269" lon="9.76031">
        <ele>595.8</ele>
      </trkpt>
      <trkpt lat="47.92706" lon="9.76076">
        <ele>595.7</ele>
      </trkpt>
      <trkpt lat="47.92717" lon="9.76108">
        <ele>595.8</ele>
      </trkpt>
      <trkpt lat="47.92736" lon="9.76174">
        <ele>595.6</ele>
      </trkpt>
      <trkpt lat="47.92739" lon="9.76178">
        <ele>595.6</ele>
      </trkpt>
      <trkpt lat="47.92746" lon="9.76186">
        <ele>595.3</ele>
      </trkpt>
      <trkpt lat="47.92746" lon="9.76195">
        <ele>595.7</ele>
      </trkpt>
      <trkpt lat="47.92748" lon="9.76201">
        <ele>595.8</ele>
      </trkpt>
      <trkpt lat="47.92759" lon="9.76229">
        <ele>597.3</ele>
      </trkpt>
      <trkpt lat="47.92773" lon="9.76261">
        <ele>599.3</ele>
      </trkpt>
      <trkpt lat="47.92775" lon="9.76267">
        <ele>599.7</ele>
      </trkpt>
      <trkpt lat="47.92792" lon="9.763">
        <ele>601.9</ele>
      </trkpt>
      <trkpt lat="47.92806" lon="9.76327">
        <ele>603.7</ele>
      </trkpt>
      <trkpt lat="47.9282" lon="9.76346">
        <ele>605</ele>
      </trkpt>
      <trkpt lat="47.92833" lon="9.7636">
        <ele>605.9</ele>
      </trkpt>
      <trkpt lat="47.92838" lon="9.76368">
        <ele>606.4</ele>
      </trkpt>
      <trkpt lat="47.92845" lon="9.76374">
        <ele>606.9</ele>
      </trkpt>
      <trkpt lat="47.92938" lon="9.7644">
        <ele>611.5</ele>
      </trkpt>
      <trkpt lat="47.92951" lon="9.7645">
        <ele>611.8</ele>
      </trkpt>
      <trkpt lat="47.92972" lon="9.76466">
        <ele>612.3</ele>
      </trkpt>
      <trkpt lat="47.92976" lon="9.76466">
        <ele>612.4</ele>
      </trkpt>
      <trkpt lat="47.92981" lon="9.76466">
        <ele>612.5</ele>
      </trkpt>
      <trkpt lat="47.92983" lon="9.76479">
        <ele>612.6</ele>
      </trkpt>
      <trkpt lat="47.92994" lon="9.76486">
        <ele>612.9</ele>
      </trkpt>
      <trkpt lat="47.93002" lon="9.76492">
        <ele>612.9</ele>
      </trkpt>
      <trkpt lat="47.9301" lon="9.76499">
        <ele>612.5</ele>
      </trkpt>
      <trkpt lat="47.93059" lon="9.76547">
        <ele>609.8</ele>
      </trkpt>
      <trkpt lat="47.93077" lon="9.76566">
        <ele>609.2</ele>
      </trkpt>
      <trkpt lat="47.93139" lon="9.76447">
        <ele>608.4</ele>
      </trkpt>
      <trkpt lat="47.93183" lon="9.76354">
        <ele>606.8</ele>
      </trkpt>
      <trkpt lat="47.93197" lon="9.7634">
        <ele>606.1</ele>
      </trkpt>
      <trkpt lat="47.9321" lon="9.7634">
        <ele>605.7</ele>
      </trkpt>
      <trkpt lat="47.93219" lon="9.76347">
        <ele>605.7</ele>
      </trkpt>
      <trkpt lat="47.93247" lon="9.76376">
        <ele>606.6</ele>
      </trkpt>
      <trkpt lat="47.93288" lon="9.76428">
        <ele>606.9</ele>
      </trkpt>
      <trkpt lat="47.93303" lon="9.7644">
        <ele>606.3</ele>
      </trkpt>
      <trkpt lat="47.93314" lon="9.76441">
        <ele>605.7</ele>
      </trkpt>
      <trkpt lat="47.93323" lon="9.76439">
        <ele>605.1</ele>
      </trkpt>
      <trkpt lat="47.93334" lon="9.76425">
        <ele>604.2</ele>
      </trkpt>
      <trkpt lat="47.93346" lon="9.76409">
        <ele>604.1</ele>
      </trkpt>
      <trkpt lat="47.93355" lon="9.76388">
        <ele>604.2</ele>
      </trkpt>
      <trkpt lat="47.93362" lon="9.7637">
        <ele>604.2</ele>
      </trkpt>
      <trkpt lat="47.9337" lon="9.76341">
        <ele>604.1</ele>
      </trkpt>
      <trkpt lat="47.9338" lon="9.76322">
        <ele>603.7</ele>
      </trkpt>
      <trkpt lat="47.93394" lon="9.76308">
        <ele>603.3</ele>
      </trkpt>
      <trkpt lat="47.93435" lon="9.76265">
        <ele>603.5</ele>
      </trkpt>
      <trkpt lat="47.93447" lon="9.76252">
        <ele>604.1</ele>
      </trkpt>
      <trkpt lat="47.93478" lon="9.76216">
        <ele>606.2</ele>
      </trkpt>
      <trkpt lat="47.93487" lon="9.76203">
        <ele>607</ele>
      </trkpt>
      <trkpt lat="47.93505" lon="9.76217">
        <ele>607.2</ele>
      </trkpt>
      <trkpt lat="47.93512" lon="9.76222">
        <ele>607.1</ele>
      </trkpt>
      <trkpt lat="47.93551" lon="9.76249">
        <ele>606.6</ele>
      </trkpt>
      <trkpt lat="47.93572" lon="9.76266">
        <ele>606.5</ele>
      </trkpt>
      <trkpt lat="47.93599" lon="9.76287">
        <ele>606</ele>
      </trkpt>
      <trkpt lat="47.93628" lon="9.76309">
        <ele>605.7</ele>
      </trkpt>
      <trkpt lat="47.93654" lon="9.76335">
        <ele>605.8</ele>
      </trkpt>
      <trkpt lat="47.93714" lon="9.76398">
        <ele>605.7</ele>
      </trkpt>
      <trkpt lat="47.9377" lon="9.7629">
        <ele>606.3</ele>
      </trkpt>
      <trkpt lat="47.93786" lon="9.76274">
        <ele>606.3</ele>
      </trkpt>
      <trkpt lat="47.9379" lon="9.7627">
        <ele>606.3</ele>
      </trkpt>
      <trkpt lat="47.93794" lon="9.76266">
        <ele>606.3</ele>
      </trkpt>
      <trkpt lat="47.93795" lon="9.76261">
        <ele>606.3</ele>
      </trkpt>
      <trkpt lat="47.93794" lon="9.76255">
        <ele>606.4</ele>
      </trkpt>
      <trkpt lat="47.93801" lon="9.76249">
        <ele>606.4</ele>
      </trkpt>
      <trkpt lat="47.93805" lon="9.76246">
        <ele>606.3</ele>
      </trkpt>
      <trkpt lat="47.93808" lon="9.76251">
        <ele>606.3</ele>
      </trkpt>
      <trkpt lat="47.93811" lon="9.76253">
        <ele>606.2</ele>
      </trkpt>
      <trkpt lat="47.93815" lon="9.76251">
        <ele>606.2</ele>
      </trkpt>
      <trkpt lat="47.93849" lon="9.76224">
        <ele>604.9</ele>
      </trkpt>
      <trkpt lat="47.93857" lon="9.76219">
        <ele>604.6</ele>
      </trkpt>
      <trkpt lat="47.93857" lon="9.76213">
        <ele>604.5</ele>
      </trkpt>
      <trkpt lat="47.93856" lon="9.76207">
        <ele>604.4</ele>
      </trkpt>
      <trkpt lat="47.93829" lon="9.76076">
        <ele>602.9</ele>
      </trkpt>
      <trkpt lat="47.93828" lon="9.76071">
        <ele>602.8</ele>
      </trkpt>
      <trkpt lat="47.93803" lon="9.75941">
        <ele>601.7</ele>
      </trkpt>
      <trkpt lat="47.93803" lon="9.7593">
        <ele>601.7</ele>
      </trkpt>
      <trkpt lat="47.93803" lon="9.75919">
        <ele>601.7</ele>
      </trkpt>
      <trkpt lat="47.93814" lon="9.75846">
        <ele>600.4</ele>
      </trkpt>
      <trkpt lat="47.93815" lon="9.75838">
        <ele>600.3</ele>
      </trkpt>
      <trkpt lat="47.93819" lon="9.75833">
        <ele>600.2</ele>
      </trkpt>
      <trkpt lat="47.93827" lon="9.75831">
        <ele>600.1</ele>
      </trkpt>
      <trkpt lat="47.93902" lon="9.75821">
        <ele>602.5</ele>
      </trkpt>
      <trkpt lat="47.93949" lon="9.75819">
        <ele>605.6</ele>
      </trkpt>
      <trkpt lat="47.93955" lon="9.75815">
        <ele>605.9</ele>
      </trkpt>
      <trkpt lat="47.93959" lon="9.75818">
        <ele>606.4</ele>
      </trkpt>
      <trkpt lat="47.93972" lon="9.75829">
        <ele>608</ele>
      </trkpt>
      <trkpt lat="47.94014" lon="9.7585">
        <ele>613</ele>
      </trkpt>
      <trkpt lat="47.94068" lon="9.75866">
        <ele>618.3</ele>
      </trkpt>
      <trkpt lat="47.94096" lon="9.75866">
        <ele>619.8</ele>
      </trkpt>
      <trkpt lat="47.94119" lon="9.75855">
        <ele>620</ele>
      </trkpt>
      <trkpt lat="47.94165" lon="9.75833">
        <ele>620.9</ele>
      </trkpt>
      <trkpt lat="47.94182" lon="9.75829">
        <ele>619.3</ele>
      </trkpt>
      <trkpt lat="47.9421" lon="9.75835">
        <ele>616.8</ele>
      </trkpt>
      <trkpt lat="47.94299" lon="9.75863">
        <ele>613.1</ele>
      </trkpt>
      <trkpt lat="47.9432" lon="9.759">
        <ele>615.9</ele>
      </trkpt>
      <trkpt lat="47.94332" lon="9.75914">
        <ele>617.7</ele>
      </trkpt>
      <trkpt lat="47.94356" lon="9.75938">
        <ele>622</ele>
      </trkpt>
      <trkpt lat="47.94373" lon="9.75971">
        <ele>625</ele>
      </trkpt>
      <trkpt lat="47.94394" lon="9.75998">
        <ele>629.4</ele>
      </trkpt>
      <trkpt lat="47.94399" lon="9.76005">
        <ele>630</ele>
      </trkpt>
      <trkpt lat="47.94413" lon="9.76044">
        <ele>630.9</ele>
      </trkpt>
      <trkpt lat="47.94426" lon="9.76066">
        <ele>631.5</ele>
      </trkpt>
      <trkpt lat="47.94482" lon="9.76119">
        <ele>632.1</ele>
      </trkpt>
      <trkpt lat="47.94546" lon="9.7618">
        <ele>625.9</ele>
      </trkpt>
      <trkpt lat="47.94583" lon="9.76237">
        <ele>622.3</ele>
      </trkpt>
      <trkpt lat="47.94601" lon="9.76245">
        <ele>621.4</ele>
      </trkpt>
      <trkpt lat="47.94672" lon="9.76239">
        <ele>618.2</ele>
      </trkpt>
      <trkpt lat="47.94695" lon="9.76236">
        <ele>617.8</ele>
      </trkpt>
      <trkpt lat="47.94718" lon="9.76234">
        <ele>617.4</ele>
      </trkpt>
      <trkpt lat="47.9475" lon="9.7623">
        <ele>617</ele>
      </trkpt>
      <trkpt lat="47.94809" lon="9.76232">
        <ele>614.9</ele>
      </trkpt>
      <trkpt lat="47.94816" lon="9.76221">
        <ele>614.5</ele>
      </trkpt>
      <trkpt lat="47.94825" lon="9.76211">
        <ele>614.2</ele>
      </trkpt>
      <trkpt lat="47.94873" lon="9.7617">
        <ele>616.4</ele>
      </trkpt>
      <trkpt lat="47.94898" lon="9.76142">
        <ele>617.2</ele>
      </trkpt>
      <trkpt lat="47.94925" lon="9.76115">
        <ele>617</ele>
      </trkpt>
      <trkpt lat="47.94962" lon="9.76071">
        <ele>617.8</ele>
      </trkpt>
      <trkpt lat="47.94965" lon="9.76067">
        <ele>617.8</ele>
      </trkpt>
      <trkpt lat="47.94974" lon="9.76075">
        <ele>618.7</ele>
      </trkpt>
      <trkpt lat="47.94981" lon="9.76082">
        <ele>619.5</ele>
      </trkpt>
      <trkpt lat="47.94991" lon="9.761">
        <ele>620.8</ele>
      </trkpt>
      <trkpt lat="47.95002" lon="9.76114">
        <ele>621.7</ele>
      </trkpt>
      <trkpt lat="47.95019" lon="9.76125">
        <ele>621.8</ele>
      </trkpt>
      <trkpt lat="47.95034" lon="9.76139">
        <ele>621.9</ele>
      </trkpt>
      <trkpt lat="47.95074" lon="9.76172">
        <ele>622.2</ele>
      </trkpt>
      <trkpt lat="47.95111" lon="9.76195">
        <ele>621.7</ele>
      </trkpt>
      <trkpt lat="47.95152" lon="9.76217">
        <ele>621.6</ele>
      </trkpt>
      <trkpt lat="47.95171" lon="9.76225">
        <ele>621.8</ele>
      </trkpt>
      <trkpt lat="47.95185" lon="9.7623">
        <ele>621.8</ele>
      </trkpt>
      <trkpt lat="47.95185" lon="9.76237">
        <ele>622.1</ele>
      </trkpt>
      <trkpt lat="47.95179" lon="9.76326">
        <ele>626.8</ele>
      </trkpt>
      <trkpt lat="47.95179" lon="9.7636">
        <ele>628.5</ele>
      </trkpt>
      <trkpt lat="47.95186" lon="9.76397">
        <ele>631.2</ele>
      </trkpt>
      <trkpt lat="47.95202" lon="9.76447">
        <ele>635.1</ele>
      </trkpt>
      <trkpt lat="47.95243" lon="9.76555">
        <ele>637.7</ele>
      </trkpt>
      <trkpt lat="47.95252" lon="9.76586">
        <ele>636.3</ele>
      </trkpt>
      <trkpt lat="47.95256" lon="9.76611">
        <ele>637.4</ele>
      </trkpt>
      <trkpt lat="47.95259" lon="9.76642">
        <ele>638.3</ele>
      </trkpt>
      <trkpt lat="47.95263" lon="9.76698">
        <ele>638.1</ele>
      </trkpt>
      <trkpt lat="47.95295" lon="9.76697">
        <ele>642.6</ele>
      </trkpt>
      <trkpt lat="47.95347" lon="9.76705">
        <ele>648.2</ele>
      </trkpt>
      <trkpt lat="47.95371" lon="9.76705">
        <ele>649.7</ele>
      </trkpt>
      <trkpt lat="47.95381" lon="9.76702">
        <ele>650.5</ele>
      </trkpt>
      <trkpt lat="47.95392" lon="9.76689">
        <ele>651.6</ele>
      </trkpt>
      <trkpt lat="47.95399" lon="9.76681">
        <ele>652.2</ele>
      </trkpt>
      <trkpt lat="47.95406" lon="9.76678">
        <ele>652.5</ele>
      </trkpt>
      <trkpt lat="47.95412" lon="9.76678">
        <ele>652.7</ele>
      </trkpt>
      <trkpt lat="47.95426" lon="9.76681">
        <ele>653.8</ele>
      </trkpt>
      <trkpt lat="47.95452" lon="9.76697">
        <ele>655.7</ele>
      </trkpt>
      <trkpt lat="47.95487" lon="9.76707">
        <ele>658.1</ele>
      </trkpt>
      <trkpt lat="47.95509" lon="9.76707">
        <ele>659.8</ele>
      </trkpt>
      <trkpt lat="47.95513" lon="9.76704">
        <ele>660.3</ele>
      </trkpt>
      <trkpt lat="47.95515" lon="9.767">
        <ele>660.8</ele>
      </trkpt>
      <trkpt lat="47.95516" lon="9.76691">
        <ele>661.5</ele>
      </trkpt>
      <trkpt lat="47.95516" lon="9.76671">
        <ele>663</ele>
      </trkpt>
      <trkpt lat="47.95517" lon="9.76654">
        <ele>663.6</ele>
      </trkpt>
      <trkpt lat="47.95548" lon="9.76656">
        <ele>666</ele>
      </trkpt>
      <trkpt lat="47.95577" lon="9.76651">
        <ele>668.1</ele>
      </trkpt>
      <trkpt lat="47.95599" lon="9.76641">
        <ele>668.8</ele>
      </trkpt>
      <trkpt lat="47.95619" lon="9.76631">
        <ele>669.1</ele>
      </trkpt>
      <trkpt lat="47.95659" lon="9.76632">
        <ele>670.1</ele>
      </trkpt>
      <trkpt lat="47.95715" lon="9.76638">
        <ele>666.7</ele>
      </trkpt>
      <trkpt lat="47.95776" lon="9.76648">
        <ele>663.7</ele>
      </trkpt>
      <trkpt lat="47.95785" lon="9.76654">
        <ele>664</ele>
      </trkpt>
      <trkpt lat="47.95797" lon="9.76671">
        <ele>664.6</ele>
      </trkpt>
      <trkpt lat="47.95811" lon="9.76698">
        <ele>661.7</ele>
      </trkpt>
      <trkpt lat="47.95814" lon="9.76701">
        <ele>661.5</ele>
      </trkpt>
      <trkpt lat="47.95817" lon="9.76702">
        <ele>661.5</ele>
      </trkpt>
      <trkpt lat="47.95823" lon="9.76701">
        <ele>661.6</ele>
      </trkpt>
      <trkpt lat="47.95884" lon="9.76713">
        <ele>661.3</ele>
      </trkpt>
      <trkpt lat="47.95955" lon="9.76726">
        <ele>660.7</ele>
      </trkpt>
      <trkpt lat="47.96087" lon="9.76757">
        <ele>661.2</ele>
      </trkpt>
      <trkpt lat="47.96132" lon="9.76749">
        <ele>662</ele>
      </trkpt>
      <trkpt lat="47.96153" lon="9.7674">
        <ele>662.4</ele>
      </trkpt>
      <trkpt lat="47.96171" lon="9.76735">
        <ele>662.4</ele>
      </trkpt>
      <trkpt lat="47.96193" lon="9.76739">
        <ele>660.5</ele>
      </trkpt>
      <trkpt lat="47.96208" lon="9.76748">
        <ele>659.1</ele>
      </trkpt>
      <trkpt lat="47.9628" lon="9.76779">
        <ele>648.4</ele>
      </trkpt>
      <trkpt lat="47.96291" lon="9.76781">
        <ele>647.1</ele>
      </trkpt>
      <trkpt lat="47.9631" lon="9.76783">
        <ele>645</ele>
      </trkpt>
      <trkpt lat="47.96328" lon="9.76784">
        <ele>643.1</ele>
      </trkpt>
      <trkpt lat="47.96355" lon="9.76783">
        <ele>641.9</ele>
      </trkpt>
      <trkpt lat="47.96369" lon="9.76785">
        <ele>641.5</ele>
      </trkpt>
      <trkpt lat="47.96416" lon="9.76793">
        <ele>640.7</ele>
      </trkpt>
      <trkpt lat="47.96439" lon="9.76796">
        <ele>641</ele>
      </trkpt>
      <trkpt lat="47.96468" lon="9.76801">
        <ele>641.7</ele>
      </trkpt>
      <trkpt lat="47.96481" lon="9.76806">
        <ele>642.2</ele>
      </trkpt>
      <trkpt lat="47.96495" lon="9.76812">
        <ele>642.9</ele>
      </trkpt>
      <trkpt lat="47.96515" lon="9.76824">
        <ele>645.5</ele>
      </trkpt>
      <trkpt lat="47.96523" lon="9.76828">
        <ele>646.6</ele>
      </trkpt>
      <trkpt lat="47.9653" lon="9.76844">
        <ele>648.2</ele>
      </trkpt>
      <trkpt lat="47.96551" lon="9.76887">
        <ele>650.2</ele>
      </trkpt>
      <trkpt lat="47.96555" lon="9.76896">
        <ele>650.3</ele>
      </trkpt>
      <trkpt lat="47.96558" lon="9.7691">
        <ele>650.3</ele>
      </trkpt>
      <trkpt lat="47.96559" lon="9.76934">
        <ele>650.6</ele>
      </trkpt>
      <trkpt lat="47.96555" lon="9.76994">
        <ele>651.9</ele>
      </trkpt>
      <trkpt lat="47.96555" lon="9.77058">
        <ele>650.2</ele>
      </trkpt>
      <trkpt lat="47.96559" lon="9.77124">
        <ele>646.6</ele>
      </trkpt>
      <trkpt lat="47.96561" lon="9.77191">
        <ele>640.5</ele>
      </trkpt>
      <trkpt lat="47.96564" lon="9.77246">
        <ele>633.1</ele>
      </trkpt>
      <trkpt lat="47.9657" lon="9.7734">
        <ele>628</ele>
      </trkpt>
      <trkpt lat="47.96574" lon="9.77376">
        <ele>627.4</ele>
      </trkpt>
      <trkpt lat="47.96581" lon="9.7741">
        <ele>627</ele>
      </trkpt>
      <trkpt lat="47.96595" lon="9.77451">
        <ele>628.1</ele>
      </trkpt>
      <trkpt lat="47.96622" lon="9.77513">
        <ele>629</ele>
      </trkpt>
      <trkpt lat="47.96645" lon="9.7759">
        <ele>628</ele>
      </trkpt>
      <trkpt lat="47.96652" lon="9.77603">
        <ele>627.8</ele>
      </trkpt>
      <trkpt lat="47.96659" lon="9.77611">
        <ele>627.6</ele>
      </trkpt>
      <trkpt lat="47.96669" lon="9.77616">
        <ele>627.6</ele>
      </trkpt>
      <trkpt lat="47.96709" lon="9.77637">
        <ele>630.5</ele>
      </trkpt>
      <trkpt lat="47.96737" lon="9.77661">
        <ele>632.1</ele>
      </trkpt>
      <trkpt lat="47.96753" lon="9.77683">
        <ele>632.6</ele>
      </trkpt>
      <trkpt lat="47.96766" lon="9.77715">
        <ele>631.8</ele>
      </trkpt>
      <trkpt lat="47.96786" lon="9.77778">
        <ele>628.2</ele>
      </trkpt>
      <trkpt lat="47.96795" lon="9.77811">
        <ele>625.4</ele>
      </trkpt>
      <trkpt lat="47.96796" lon="9.77825">
        <ele>624.1</ele>
      </trkpt>
      <trkpt lat="47.96788" lon="9.77853">
        <ele>622.6</ele>
      </trkpt>
      <trkpt lat="47.96773" lon="9.77889">
        <ele>621.4</ele>
      </trkpt>
      <trkpt lat="47.96782" lon="9.77899">
        <ele>620.6</ele>
      </trkpt>
      <trkpt lat="47.96795" lon="9.77909">
        <ele>619.8</ele>
      </trkpt>
      <trkpt lat="47.96806" lon="9.77915">
        <ele>619.1</ele>
      </trkpt>
      <trkpt lat="47.96823" lon="9.77922">
        <ele>618.2</ele>
      </trkpt>
      <trkpt lat="47.96846" lon="9.77931">
        <ele>616.5</ele>
      </trkpt>
      <trkpt lat="47.96865" lon="9.77935">
        <ele>615.1</ele>
      </trkpt>
      <trkpt lat="47.96888" lon="9.77941">
        <ele>613.4</ele>
      </trkpt>
      <trkpt lat="47.96929" lon="9.77948">
        <ele>611.1</ele>
      </trkpt>
      <trkpt lat="47.96941" lon="9.7795">
        <ele>611</ele>
      </trkpt>
      <trkpt lat="47.9696" lon="9.77948">
        <ele>611.1</ele>
      </trkpt>
      <trkpt lat="47.97006" lon="9.77939">
        <ele>611.8</ele>
      </trkpt>
      <trkpt lat="47.97032" lon="9.77932">
        <ele>612.9</ele>
      </trkpt>
      <trkpt lat="47.97038" lon="9.7793">
        <ele>613.2</ele>
      </trkpt>
      <trkpt lat="47.97049" lon="9.77921">
        <ele>614</ele>
      </trkpt>
      <trkpt lat="47.97072" lon="9.77904">
        <ele>613.8</ele>
      </trkpt>
      <trkpt lat="47.97129" lon="9.77862">
        <ele>610.6</ele>
      </trkpt>
      <trkpt lat="47.97145" lon="9.77854">
        <ele>610.1</ele>
      </trkpt>
      <trkpt lat="47.9725" lon="9.77831">
        <ele>609.7</ele>
      </trkpt>
      <trkpt lat="47.97334" lon="9.778">
        <ele>601.3</ele>
      </trkpt>
      <trkpt lat="47.97354" lon="9.77793">
        <ele>597.2</ele>
      </trkpt>
      <trkpt lat="47.974" lon="9.77778">
        <ele>589.7</ele>
      </trkpt>
      <trkpt lat="47.97402" lon="9.77777">
        <ele>589.5</ele>
      </trkpt>
      <trkpt lat="47.97479" lon="9.77737">
        <ele>584.8</ele>
      </trkpt>
      <trkpt lat="47.97559" lon="9.77698">
        <ele>586</ele>
      </trkpt>
      <trkpt lat="47.9757" lon="9.77692">
        <ele>586.6</ele>
      </trkpt>
      <trkpt lat="47.97594" lon="9.77681">
        <ele>587.1</ele>
      </trkpt>
      <trkpt lat="47.9761" lon="9.77674">
        <ele>587</ele>
      </trkpt>
      <trkpt lat="47.9764" lon="9.7766">
        <ele>587</ele>
      </trkpt>
      <trkpt lat="47.97697" lon="9.77639">
        <ele>586.1</ele>
      </trkpt>
      <trkpt lat="47.97763" lon="9.77617">
        <ele>585.8</ele>
      </trkpt>
      <trkpt lat="47.97772" lon="9.77623">
        <ele>585.3</ele>
      </trkpt>
      <trkpt lat="47.97799" lon="9.77626">
        <ele>584.9</ele>
      </trkpt>
      <trkpt lat="47.97811" lon="9.77631">
        <ele>584.4</ele>
      </trkpt>
      <trkpt lat="47.97825" lon="9.7764">
        <ele>583.7</ele>
      </trkpt>
      <trkpt lat="47.97839" lon="9.77647">
        <ele>583.1</ele>
      </trkpt>
      <trkpt lat="47.97854" lon="9.77653">
        <ele>582.6</ele>
      </trkpt>
      <trkpt lat="47.97895" lon="9.77658">
        <ele>581.8</ele>
      </trkpt>
      <trkpt lat="47.9793" lon="9.77656">
        <ele>581.6</ele>
      </trkpt>
      <trkpt lat="47.97993" lon="9.77645">
        <ele>581.6</ele>
      </trkpt>
      <trkpt lat="47.98056" lon="9.77631">
        <ele>580.9</ele>
      </trkpt>
      <trkpt lat="47.98078" lon="9.77625">
        <ele>580.6</ele>
      </trkpt>
      <trkpt lat="47.98095" lon="9.77633">
        <ele>580.4</ele>
      </trkpt>
      <trkpt lat="47.98118" lon="9.77651">
        <ele>580.4</ele>
      </trkpt>
      <trkpt lat="47.98138" lon="9.7767">
        <ele>580.7</ele>
      </trkpt>
      <trkpt lat="47.98148" lon="9.77678">
        <ele>580.9</ele>
      </trkpt>
      <trkpt lat="47.98157" lon="9.77681">
        <ele>581</ele>
      </trkpt>
      <trkpt lat="47.98166" lon="9.77684">
        <ele>581.2</ele>
      </trkpt>
      <trkpt lat="47.98176" lon="9.77682">
        <ele>581.2</ele>
      </trkpt>
      <trkpt lat="47.98183" lon="9.77677">
        <ele>581.1</ele>
      </trkpt>
      <trkpt lat="47.982" lon="9.77655">
        <ele>581</ele>
      </trkpt>
      <trkpt lat="47.98216" lon="9.77633">
        <ele>581.1</ele>
      </trkpt>
      <trkpt lat="47.98222" lon="9.77626">
        <ele>581.2</ele>
      </trkpt>
      <trkpt lat="47.98229" lon="9.7762">
        <ele>581.3</ele>
      </trkpt>
      <trkpt lat="47.98238" lon="9.77615">
        <ele>581.5</ele>
      </trkpt>
      <trkpt lat="47.98258" lon="9.77605">
        <ele>582</ele>
      </trkpt>
      <trkpt lat="47.98267" lon="9.77602">
        <ele>582.4</ele>
      </trkpt>
      <trkpt lat="47.9828" lon="9.77597">
        <ele>582.9</ele>
      </trkpt>
      <trkpt lat="47.98294" lon="9.77591">
        <ele>583.5</ele>
      </trkpt>
      <trkpt lat="47.98316" lon="9.77577">
        <ele>584.4</ele>
      </trkpt>
      <trkpt lat="47.9833" lon="9.77568">
        <ele>584.9</ele>
      </trkpt>
      <trkpt lat="47.98341" lon="9.77557">
        <ele>584.9</ele>
      </trkpt>
      <trkpt lat="47.98353" lon="9.7755">
        <ele>584.8</ele>
      </trkpt>
      <trkpt lat="47.98366" lon="9.77546">
        <ele>584.6</ele>
      </trkpt>
      <trkpt lat="47.98385" lon="9.77542">
        <ele>584.4</ele>
      </trkpt>
      <trkpt lat="47.98402" lon="9.77536">
        <ele>584.2</ele>
      </trkpt>
      <trkpt lat="47.98414" lon="9.77534">
        <ele>584</ele>
      </trkpt>
      <trkpt lat="47.98428" lon="9.77534">
        <ele>584</ele>
      </trkpt>
      <trkpt lat="47.98441" lon="9.77537">
        <ele>584</ele>
      </trkpt>
      <trkpt lat="47.98451" lon="9.77543">
        <ele>584</ele>
      </trkpt>
      <trkpt lat="47.98461" lon="9.77548">
        <ele>584</ele>
      </trkpt>
      <trkpt lat="47.9847" lon="9.77555">
        <ele>584</ele>
      </trkpt>
      <trkpt lat="47.98479" lon="9.77561">
        <ele>584</ele>
      </trkpt>
      <trkpt lat="47.98488" lon="9.77566">
        <ele>584</ele>
      </trkpt>
      <trkpt lat="47.98497" lon="9.77565">
        <ele>584</ele>
      </trkpt>
      <trkpt lat="47.98497" lon="9.77547">
        <ele>584</ele>
      </trkpt>
      <trkpt lat="47.98496" lon="9.77507">
        <ele>584</ele>
      </trkpt>
      <trkpt lat="47.98497" lon="9.77487">
        <ele>584</ele>
      </trkpt>
      <trkpt lat="47.98499" lon="9.77468">
        <ele>584</ele>
      </trkpt>
      <trkpt lat="47.98505" lon="9.77433">
        <ele>584</ele>
      </trkpt>
      <trkpt lat="47.98519" lon="9.77374">
        <ele>584.2</ele>
      </trkpt>
      <trkpt lat="47.98524" lon="9.77353">
        <ele>584.3</ele>
      </trkpt>
      <trkpt lat="47.9852" lon="9.77338">
        <ele>584.2</ele>
      </trkpt>
      <trkpt lat="47.98518" lon="9.77331">
        <ele>584.2</ele>
      </trkpt>
      <trkpt lat="47.98515" lon="9.77326">
        <ele>584</ele>
      </trkpt>
      <trkpt lat="47.9851" lon="9.77325">
        <ele>583.9</ele>
      </trkpt>
      <trkpt lat="47.98496" lon="9.77326">
        <ele>583.9</ele>
      </trkpt>
      <trkpt lat="47.98492" lon="9.77324">
        <ele>583.9</ele>
      </trkpt>
      <trkpt lat="47.98489" lon="9.77321">
        <ele>583.9</ele>
      </trkpt>
      <trkpt lat="47.98487" lon="9.77316">
        <ele>583.8</ele>
      </trkpt>
      <trkpt lat="47.98484" lon="9.77294">
        <ele>583.4</ele>
      </trkpt>
      <trkpt lat="47.98484" lon="9.77281">
        <ele>583.2</ele>
      </trkpt>
      <trkpt lat="47.98474" lon="9.77282">
        <ele>583.5</ele>
      </trkpt>
      <trkpt lat="47.98463" lon="9.77285">
        <ele>583.8</ele>
      </trkpt>
      <trkpt lat="47.98453" lon="9.77289">
        <ele>584.1</ele>
      </trkpt>
      <trkpt lat="47.98363" lon="9.76866">
        <ele>591</ele>
      </trkpt>
      <trkpt lat="47.98317" lon="9.76658">
        <ele>605.9</ele>
      </trkpt>
      <trkpt lat="47.98304" lon="9.76581">
        <ele>618.8</ele>
      </trkpt>
      <trkpt lat="47.98304" lon="9.76567">
        <ele>620.6</ele>
      </trkpt>
      <trkpt lat="47.98304" lon="9.76545">
        <ele>623.2</ele>
      </trkpt>
      <trkpt lat="47.98304" lon="9.7651">
        <ele>627.5</ele>
      </trkpt>
      <trkpt lat="47.98306" lon="9.76476">
        <ele>628.9</ele>
      </trkpt>
      <trkpt lat="47.98312" lon="9.76471">
        <ele>629</ele>
      </trkpt>
      <trkpt lat="47.98314" lon="9.76469">
        <ele>629.1</ele>
      </trkpt>
      <trkpt lat="47.98321" lon="9.76459">
        <ele>629.3</ele>
      </trkpt>
      <trkpt lat="47.9833" lon="9.76446">
        <ele>629.6</ele>
      </trkpt>
      <trkpt lat="47.98336" lon="9.76431">
        <ele>630</ele>
      </trkpt>
      <trkpt lat="47.98342" lon="9.76408">
        <ele>630.2</ele>
      </trkpt>
      <trkpt lat="47.98347" lon="9.76385">
        <ele>629.7</ele>
      </trkpt>
      <trkpt lat="47.9835" lon="9.76361">
        <ele>628.9</ele>
      </trkpt>
      <trkpt lat="47.98362" lon="9.7631">
        <ele>625.3</ele>
      </trkpt>
      <trkpt lat="47.9837" lon="9.76276">
        <ele>621.8</ele>
      </trkpt>
      <trkpt lat="47.98385" lon="9.76235">
        <ele>618.9</ele>
      </trkpt>
      <trkpt lat="47.98376" lon="9.76213">
        <ele>618.6</ele>
      </trkpt>
      <trkpt lat="47.98363" lon="9.76197">
        <ele>617.4</ele>
      </trkpt>
      <trkpt lat="47.98343" lon="9.76182">
        <ele>614.6</ele>
      </trkpt>
      <trkpt lat="47.98312" lon="9.76166">
        <ele>612.2</ele>
      </trkpt>
      <trkpt lat="47.98304" lon="9.76156">
        <ele>611</ele>
      </trkpt>
      <trkpt lat="47.98326" lon="9.76122">
        <ele>607</ele>
      </trkpt>
      <trkpt lat="47.9833" lon="9.76114">
        <ele>606.2</ele>
      </trkpt>
      <trkpt lat="47.98358" lon="9.76056">
        <ele>606.1</ele>
      </trkpt>
      <trkpt lat="47.98379" lon="9.76008">
        <ele>606.3</ele>
      </trkpt>
      <trkpt lat="47.98383" lon="9.7595">
        <ele>604.8</ele>
      </trkpt>
      <trkpt lat="47.98384" lon="9.75913">
        <ele>603.9</ele>
      </trkpt>
      <trkpt lat="47.98381" lon="9.75793">
        <ele>601.7</ele>
      </trkpt>
      <trkpt lat="47.98492" lon="9.75789">
        <ele>616</ele>
      </trkpt>
      <trkpt lat="47.98479" lon="9.75692">
        <ele>613.3</ele>
      </trkpt>
      <trkpt lat="47.98476" lon="9.75639">
        <ele>613</ele>
      </trkpt>
      <trkpt lat="47.98477" lon="9.75613">
        <ele>612.9</ele>
      </trkpt>
      <trkpt lat="47.98478" lon="9.75554">
        <ele>611.4</ele>
      </trkpt>
      <trkpt lat="47.98479" lon="9.7551">
        <ele>609.4</ele>
      </trkpt>
      <trkpt lat="47.98472" lon="9.75456">
        <ele>606.5</ele>
      </trkpt>
      <trkpt lat="47.98467" lon="9.75396">
        <ele>603.3</ele>
      </trkpt>
      <trkpt lat="47.98465" lon="9.75333">
        <ele>598.5</ele>
      </trkpt>
      <trkpt lat="47.98464" lon="9.75284">
        <ele>597.3</ele>
      </trkpt>
      <trkpt lat="47.98459" lon="9.75196">
        <ele>597.4</ele>
      </trkpt>
      <trkpt lat="47.98457" lon="9.75154">
        <ele>597.7</ele>
      </trkpt>
      <trkpt lat="47.98461" lon="9.75136">
        <ele>597.6</ele>
      </trkpt>
      <trkpt lat="47.98462" lon="9.75117">
        <ele>597.3</ele>
      </trkpt>
      <trkpt lat="47.98465" lon="9.75048">
        <ele>594.9</ele>
      </trkpt>
      <trkpt lat="47.9847" lon="9.74997">
        <ele>592.2</ele>
      </trkpt>
      <trkpt lat="47.98525" lon="9.75033">
        <ele>595.7</ele>
      </trkpt>
      <trkpt lat="47.98659" lon="9.75047">
        <ele>598.6</ele>
      </trkpt>
      <trkpt lat="47.98658" lon="9.75036">
        <ele>597.3</ele>
      </trkpt>
      <trkpt lat="47.98681" lon="9.75036">
        <ele>598.4</ele>
      </trkpt>
      <trkpt lat="47.98701" lon="9.75045">
        <ele>601.1</ele>
      </trkpt>
      <trkpt lat="47.98738" lon="9.75044">
        <ele>603.9</ele>
      </trkpt>
      <trkpt lat="47.98786" lon="9.75011">
        <ele>602.6</ele>
      </trkpt>
      <trkpt lat="47.98808" lon="9.75005">
        <ele>603.9</ele>
      </trkpt>
      <trkpt lat="47.98827" lon="9.75003">
        <ele>605.6</ele>
      </trkpt>
      <trkpt lat="47.98845" lon="9.75">
        <ele>604.8</ele>
      </trkpt>
      <trkpt lat="47.98861" lon="9.75003">
        <ele>603.7</ele>
      </trkpt>
      <trkpt lat="47.98873" lon="9.75009">
        <ele>603</ele>
      </trkpt>
      <trkpt lat="47.98886" lon="9.75022">
        <ele>603</ele>
      </trkpt>
      <trkpt lat="47.98898" lon="9.75045">
        <ele>603.4</ele>
      </trkpt>
      <trkpt lat="47.98935" lon="9.75171">
        <ele>615.4</ele>
      </trkpt>
      <trkpt lat="47.98995" lon="9.75213">
        <ele>611.7</ele>
      </trkpt>
      <trkpt lat="47.9904" lon="9.75244">
        <ele>613.4</ele>
      </trkpt>
      <trkpt lat="47.99054" lon="9.75246">
        <ele>613</ele>
      </trkpt>
      <trkpt lat="47.99162" lon="9.75192">
        <ele>611.2</ele>
      </trkpt>
      <trkpt lat="47.99166" lon="9.75183">
        <ele>610.9</ele>
      </trkpt>
      <trkpt lat="47.99249" lon="9.74953">
        <ele>615</ele>
      </trkpt>
      <trkpt lat="47.99262" lon="9.74911">
        <ele>612.7</ele>
      </trkpt>
      <trkpt lat="47.99283" lon="9.74873">
        <ele>611</ele>
      </trkpt>
      <trkpt lat="47.99298" lon="9.74853">
        <ele>609.8</ele>
      </trkpt>
      <trkpt lat="47.99325" lon="9.74829">
        <ele>608</ele>
      </trkpt>
      <trkpt lat="47.99375" lon="9.74785">
        <ele>606.6</ele>
      </trkpt>
      <trkpt lat="47.9939" lon="9.74767">
        <ele>605.9</ele>
      </trkpt>
      <trkpt lat="47.99405" lon="9.74746">
        <ele>605.2</ele>
      </trkpt>
      <trkpt lat="47.99428" lon="9.74712">
        <ele>603.9</ele>
      </trkpt>
      <trkpt lat="47.99504" lon="9.74601">
        <ele>594.7</ele>
      </trkpt>
      <trkpt lat="47.99531" lon="9.74619">
        <ele>596.6</ele>
      </trkpt>
      <trkpt lat="47.99562" lon="9.74645">
        <ele>599.3</ele>
      </trkpt>
      <trkpt lat="47.99586" lon="9.74662">
        <ele>601.1</ele>
      </trkpt>
      <trkpt lat="47.99604" lon="9.74677">
        <ele>602.6</ele>
      </trkpt>
      <trkpt lat="47.99615" lon="9.74687">
        <ele>602.9</ele>
      </trkpt>
      <trkpt lat="47.99623" lon="9.74699">
        <ele>603.3</ele>
      </trkpt>
      <trkpt lat="47.99632" lon="9.7472">
        <ele>603.6</ele>
      </trkpt>
      <trkpt lat="47.99642" lon="9.74746">
        <ele>603.2</ele>
      </trkpt>
      <trkpt lat="47.9966" lon="9.74798">
        <ele>605</ele>
      </trkpt>
      <trkpt lat="47.99661" lon="9.74803">
        <ele>605.3</ele>
      </trkpt>
      <trkpt lat="47.99699" lon="9.74884">
        <ele>604.8</ele>
      </trkpt>
      <trkpt lat="47.99713" lon="9.74911">
        <ele>602.2</ele>
      </trkpt>
      <trkpt lat="47.99733" lon="9.74948">
        <ele>598.2</ele>
      </trkpt>
      <trkpt lat="47.99762" lon="9.75005">
        <ele>594.5</ele>
      </trkpt>
      <trkpt lat="47.99774" lon="9.75027">
        <ele>593</ele>
      </trkpt>
      <trkpt lat="47.9979" lon="9.75048">
        <ele>590.9</ele>
      </trkpt>
      <trkpt lat="47.99818" lon="9.75078">
        <ele>587</ele>
      </trkpt>
      <trkpt lat="47.99993" lon="9.74868">
        <ele>585.3</ele>
      </trkpt>
      <trkpt lat="48.00154" lon="9.74675">
        <ele>586</ele>
      </trkpt>
      <trkpt lat="48.00159" lon="9.74669">
        <ele>586.1</ele>
      </trkpt>
      <trkpt lat="48.00164" lon="9.74665">
        <ele>586</ele>
      </trkpt>
      <trkpt lat="48.00171" lon="9.74665">
        <ele>585.8</ele>
      </trkpt>
      <trkpt lat="48.00175" lon="9.74667">
        <ele>585.7</ele>
      </trkpt>
      <trkpt lat="48.00175" lon="9.7466">
        <ele>585.7</ele>
      </trkpt>
      <trkpt lat="48.00174" lon="9.74648">
        <ele>585.7</ele>
      </trkpt>
      <trkpt lat="48.0017" lon="9.74625">
        <ele>585.9</ele>
      </trkpt>
      <trkpt lat="48.00164" lon="9.74589">
        <ele>586.1</ele>
      </trkpt>
      <trkpt lat="48.00163" lon="9.74571">
        <ele>586.3</ele>
      </trkpt>
      <trkpt lat="48.00162" lon="9.74558">
        <ele>586.5</ele>
      </trkpt>
      <trkpt lat="48.00166" lon="9.74548">
        <ele>586.5</ele>
      </trkpt>
      <trkpt lat="48.00179" lon="9.74505">
        <ele>586.5</ele>
      </trkpt>
      <trkpt lat="48.00195" lon="9.74449">
        <ele>587.4</ele>
      </trkpt>
      <trkpt lat="48.00206" lon="9.74414">
        <ele>588.2</ele>
      </trkpt>
      <trkpt lat="48.00208" lon="9.74407">
        <ele>588.4</ele>
      </trkpt>
      <trkpt lat="48.00205" lon="9.74395">
        <ele>589</ele>
      </trkpt>
      <trkpt lat="48.00194" lon="9.74372">
        <ele>590.3</ele>
      </trkpt>
      <trkpt lat="48.00181" lon="9.74349">
        <ele>591.8</ele>
      </trkpt>
      <trkpt lat="48.0017" lon="9.74341">
        <ele>592.5</ele>
      </trkpt>
      <trkpt lat="48.00142" lon="9.74336">
        <ele>597.9</ele>
      </trkpt>
      <trkpt lat="48.00133" lon="9.74333">
        <ele>599.9</ele>
      </trkpt>
      <trkpt lat="48.00127" lon="9.74326">
        <ele>602.1</ele>
      </trkpt>
      <trkpt lat="48.00112" lon="9.74305">
        <ele>607.9</ele>
      </trkpt>
      <trkpt lat="48.00104" lon="9.74296">
        <ele>610.7</ele>
      </trkpt>
      <trkpt lat="48.00097" lon="9.74286">
        <ele>613.2</ele>
      </trkpt>
      <trkpt lat="48.00088" lon="9.74278">
        <ele>615.7</ele>
      </trkpt>
      <trkpt lat="48.0008" lon="9.74274">
        <ele>617</ele>
      </trkpt>
      <trkpt lat="48.00072" lon="9.74269">
        <ele>617.1</ele>
      </trkpt>
      <trkpt lat="48.00057" lon="9.74258">
        <ele>617.8</ele>
      </trkpt>
      <trkpt lat="48.00049" lon="9.7425">
        <ele>618.3</ele>
      </trkpt>
      <trkpt lat="48.00041" lon="9.74237">
        <ele>617.9</ele>
      </trkpt>
      <trkpt lat="48.00032" lon="9.74211">
        <ele>617.9</ele>
      </trkpt>
      <trkpt lat="48.00042" lon="9.74211">
        <ele>617.8</ele>
      </trkpt>
      <trkpt lat="48.00059" lon="9.74205">
        <ele>617.3</ele>
      </trkpt>
      <trkpt lat="48.00085" lon="9.74207">
        <ele>616.8</ele>
      </trkpt>
      <trkpt lat="48.00114" lon="9.74214">
        <ele>614.5</ele>
      </trkpt>
      <trkpt lat="48.0013" lon="9.74215">
        <ele>612.9</ele>
      </trkpt>
      <trkpt lat="48.00149" lon="9.74214">
        <ele>611.2</ele>
      </trkpt>
      <trkpt lat="48.00181" lon="9.74207">
        <ele>607.8</ele>
      </trkpt>
      <trkpt lat="48.00195" lon="9.742">
        <ele>606.3</ele>
      </trkpt>
      <trkpt lat="48.00203" lon="9.74192">
        <ele>605.5</ele>
      </trkpt>
      <trkpt lat="48.00212" lon="9.74177">
        <ele>605.2</ele>
      </trkpt>
      <trkpt lat="48.00219" lon="9.74154">
        <ele>604.6</ele>
      </trkpt>
      <trkpt lat="48.00223" lon="9.74125">
        <ele>603.7</ele>
      </trkpt>
      <trkpt lat="48.00226" lon="9.74098">
        <ele>603.3</ele>
      </trkpt>
      <trkpt lat="48.00227" lon="9.74077">
        <ele>602.5</ele>
      </trkpt>
      <trkpt lat="48.00226" lon="9.74052">
        <ele>599.5</ele>
      </trkpt>
      <trkpt lat="48.00225" lon="9.74013">
        <ele>594.7</ele>
      </trkpt>
      <trkpt lat="48.00226" lon="9.73997">
        <ele>592.9</ele>
      </trkpt>
      <trkpt lat="48.00227" lon="9.73985">
        <ele>591.9</ele>
      </trkpt>
      <trkpt lat="48.00228" lon="9.73978">
        <ele>591.4</ele>
      </trkpt>
      <trkpt lat="48.00258" lon="9.73967">
        <ele>590.7</ele>
      </trkpt>
      <trkpt lat="48.00286" lon="9.73956">
        <ele>591.1</ele>
      </trkpt>
      <trkpt lat="48.00295" lon="9.7396">
        <ele>591.7</ele>
      </trkpt>
      <trkpt lat="48.00304" lon="9.73961">
        <ele>592.2</ele>
      </trkpt>
      <trkpt lat="48.0033" lon="9.73945">
        <ele>591.7</ele>
      </trkpt>
      <trkpt lat="48.00335" lon="9.73931">
        <ele>590.4</ele>
      </trkpt>
      <trkpt lat="48.00336" lon="9.73914">
        <ele>589</ele>
      </trkpt>
      <trkpt lat="48.00336" lon="9.73894">
        <ele>588.3</ele>
      </trkpt>
      <trkpt lat="48.00333" lon="9.73884">
        <ele>587.8</ele>
      </trkpt>
      <trkpt lat="48.00341" lon="9.73886">
        <ele>588.1</ele>
      </trkpt>
      <trkpt lat="48.00399" lon="9.73863">
        <ele>587.4</ele>
      </trkpt>
      <trkpt lat="48.00425" lon="9.73867">
        <ele>588.3</ele>
      </trkpt>
      <trkpt lat="48.00445" lon="9.73881">
        <ele>591.3</ele>
      </trkpt>
      <trkpt lat="48.00467" lon="9.73888">
        <ele>594</ele>
      </trkpt>
      <trkpt lat="48.00489" lon="9.73874">
        <ele>593.6</ele>
      </trkpt>
      <trkpt lat="48.0051" lon="9.73862">
        <ele>591.3</ele>
      </trkpt>
      <trkpt lat="48.00525" lon="9.73857">
        <ele>589.2</ele>
      </trkpt>
      <trkpt lat="48.00552" lon="9.73885">
        <ele>590</ele>
      </trkpt>
      <trkpt lat="48.00565" lon="9.7391">
        <ele>590.5</ele>
      </trkpt>
      <trkpt lat="48.00574" lon="9.73934">
        <ele>588.7</ele>
      </trkpt>
      <trkpt lat="48.00581" lon="9.73957">
        <ele>586.1</ele>
      </trkpt>
      <trkpt lat="48.00591" lon="9.73979">
        <ele>582.6</ele>
      </trkpt>
      <trkpt lat="48.00601" lon="9.7399">
        <ele>579.6</ele>
      </trkpt>
      <trkpt lat="48.0061" lon="9.73994">
        <ele>577.3</ele>
      </trkpt>
      <trkpt lat="48.00618" lon="9.74002">
        <ele>574.8</ele>
      </trkpt>
      <trkpt lat="48.00631" lon="9.7406">
        <ele>568</ele>
      </trkpt>
      <trkpt lat="48.00632" lon="9.74084">
        <ele>566.4</ele>
      </trkpt>
      <trkpt lat="48.00634" lon="9.74093">
        <ele>565.4</ele>
      </trkpt>
      <trkpt lat="48.00674" lon="9.74101">
        <ele>560.3</ele>
      </trkpt>
      <trkpt lat="48.00688" lon="9.74106">
        <ele>559.8</ele>
      </trkpt>
      <trkpt lat="48.00698" lon="9.74111">
        <ele>559.5</ele>
      </trkpt>
      <trkpt lat="48.00703" lon="9.74085">
        <ele>559.7</ele>
      </trkpt>
      <trkpt lat="48.00708" lon="9.7407">
        <ele>559.7</ele>
      </trkpt>
      <trkpt lat="48.00713" lon="9.74066">
        <ele>559.5</ele>
      </trkpt>
      <trkpt lat="48.00718" lon="9.74064">
        <ele>559.3</ele>
      </trkpt>
      <trkpt lat="48.00724" lon="9.74063">
        <ele>559</ele>
      </trkpt>
      <trkpt lat="48.00725" lon="9.74038">
        <ele>559</ele>
      </trkpt>
      <trkpt lat="48.00724" lon="9.7402">
        <ele>559.1</ele>
      </trkpt>
      <trkpt lat="48.00724" lon="9.73999">
        <ele>559.2</ele>
      </trkpt>
      <trkpt lat="48.00723" lon="9.7398">
        <ele>559.6</ele>
      </trkpt>
      <trkpt lat="48.00724" lon="9.73967">
        <ele>559.7</ele>
      </trkpt>
      <trkpt lat="48.00783" lon="9.7387">
        <ele>556.2</ele>
      </trkpt>
      <trkpt lat="48.0079" lon="9.73861">
        <ele>556.1</ele>
      </trkpt>
      <trkpt lat="48.0083" lon="9.73798">
        <ele>556.4</ele>
      </trkpt>
      <trkpt lat="48.00855" lon="9.73758">
        <ele>557.7</ele>
      </trkpt>
      <trkpt lat="48.0087" lon="9.73733">
        <ele>558.2</ele>
      </trkpt>
      <trkpt lat="48.00885" lon="9.73719">
        <ele>558.5</ele>
      </trkpt>
      <trkpt lat="48.009" lon="9.73705">
        <ele>558.6</ele>
      </trkpt>
      <trkpt lat="48.0091" lon="9.73695">
        <ele>558.6</ele>
      </trkpt>
      <trkpt lat="48.00927" lon="9.73681">
        <ele>559.8</ele>
      </trkpt>
      <trkpt lat="48.00932" lon="9.73676">
        <ele>560.3</ele>
      </trkpt>
      <trkpt lat="48.00914" lon="9.73625">
        <ele>558</ele>
      </trkpt>
      <trkpt lat="48.00894" lon="9.73581">
        <ele>558.9</ele>
      </trkpt>
      <trkpt lat="48.00876" lon="9.73547">
        <ele>560.3</ele>
      </trkpt>
      <trkpt lat="48.00881" lon="9.73503">
        <ele>561.2</ele>
      </trkpt>
      <trkpt lat="48.00888" lon="9.73447">
        <ele>561.9</ele>
      </trkpt>
      <trkpt lat="48.0089" lon="9.73421">
        <ele>562.3</ele>
      </trkpt>
      <trkpt lat="48.00888" lon="9.73379">
        <ele>565.9</ele>
      </trkpt>
      <trkpt lat="48.00876" lon="9.73325">
        <ele>569.2</ele>
      </trkpt>
      <trkpt lat="48.00863" lon="9.73298">
        <ele>570.2</ele>
      </trkpt>
      <trkpt lat="48.00829" lon="9.73223">
        <ele>572.3</ele>
      </trkpt>
      <trkpt lat="48.00803" lon="9.73155">
        <ele>576</ele>
      </trkpt>
      <trkpt lat="48.00798" lon="9.73115">
        <ele>577.6</ele>
      </trkpt>
      <trkpt lat="48.00796" lon="9.7307">
        <ele>579.5</ele>
      </trkpt>
      <trkpt lat="48.00797" lon="9.73031">
        <ele>580.7</ele>
      </trkpt>
      <trkpt lat="48.00802" lon="9.72988">
        <ele>582.7</ele>
      </trkpt>
      <trkpt lat="48.00809" lon="9.72947">
        <ele>586</ele>
      </trkpt>
      <trkpt lat="48.00819" lon="9.72896">
        <ele>589.4</ele>
      </trkpt>
      <trkpt lat="48.00826" lon="9.7287">
        <ele>590.5</ele>
      </trkpt>
      <trkpt lat="48.00832" lon="9.7282">
        <ele>592.4</ele>
      </trkpt>
      <trkpt lat="48.00825" lon="9.72755">
        <ele>593.8</ele>
      </trkpt>
      <trkpt lat="48.00809" lon="9.72688">
        <ele>591.8</ele>
      </trkpt>
      <trkpt lat="48.00803" lon="9.72663">
        <ele>591.1</ele>
      </trkpt>
      <trkpt lat="48.00787" lon="9.72575">
        <ele>590.8</ele>
      </trkpt>
      <trkpt lat="48.0076" lon="9.72509">
        <ele>590</ele>
      </trkpt>
      <trkpt lat="48.00739" lon="9.72447">
        <ele>588.8</ele>
      </trkpt>
      <trkpt lat="48.0073" lon="9.72388">
        <ele>588.5</ele>
      </trkpt>
      <trkpt lat="48.00728" lon="9.72339">
        <ele>588.2</ele>
      </trkpt>
      <trkpt lat="48.0073" lon="9.72289">
        <ele>588</ele>
      </trkpt>
      <trkpt lat="48.00731" lon="9.72216">
        <ele>589.6</ele>
      </trkpt>
      <trkpt lat="48.00755" lon="9.72111">
        <ele>594.8</ele>
      </trkpt>
      <trkpt lat="48.00785" lon="9.71995">
        <ele>595.3</ele>
      </trkpt>
      <trkpt lat="48.00797" lon="9.71933">
        <ele>588.3</ele>
      </trkpt>
      <trkpt lat="48.00813" lon="9.71893">
        <ele>587.3</ele>
      </trkpt>
      <trkpt lat="48.00829" lon="9.71866">
        <ele>589.2</ele>
      </trkpt>
      <trkpt lat="48.00847" lon="9.71825">
        <ele>592.2</ele>
      </trkpt>
      <trkpt lat="48.00858" lon="9.71774">
        <ele>600</ele>
      </trkpt>
      <trkpt lat="48.00865" lon="9.71738">
        <ele>604.1</ele>
      </trkpt>
      <trkpt lat="48.00931" lon="9.71562">
        <ele>605</ele>
      </trkpt>
      <trkpt lat="48.00968" lon="9.71471">
        <ele>604.4</ele>
      </trkpt>
      <trkpt lat="48.00994" lon="9.71424">
        <ele>605.7</ele>
      </trkpt>
      <trkpt lat="48.01012" lon="9.71386">
        <ele>606.9</ele>
      </trkpt>
      <trkpt lat="48.01021" lon="9.71364">
        <ele>607.4</ele>
      </trkpt>
      <trkpt lat="48.0105" lon="9.71274">
        <ele>609.6</ele>
      </trkpt>
      <trkpt lat="48.01091" lon="9.71137">
        <ele>614.5</ele>
      </trkpt>
      <trkpt lat="48.01116" lon="9.71051">
        <ele>615.4</ele>
      </trkpt>
      <trkpt lat="48.0112" lon="9.71047">
        <ele>615.4</ele>
      </trkpt>
      <trkpt lat="48.01179" lon="9.70971">
        <ele>616.3</ele>
      </trkpt>
      <trkpt lat="48.01225" lon="9.70861">
        <ele>618.4</ele>
      </trkpt>
      <trkpt lat="48.0124" lon="9.70812">
        <ele>618.9</ele>
      </trkpt>
      <trkpt lat="48.01266" lon="9.7076">
        <ele>619.9</ele>
      </trkpt>
      <trkpt lat="48.01304" lon="9.70658">
        <ele>623.7</ele>
      </trkpt>
      <trkpt lat="48.01305" lon="9.70644">
        <ele>623.5</ele>
      </trkpt>
      <trkpt lat="48.01318" lon="9.70543">
        <ele>620.7</ele>
      </trkpt>
      <trkpt lat="48.01323" lon="9.70508">
        <ele>618.6</ele>
      </trkpt>
      <trkpt lat="48.01372" lon="9.7045">
        <ele>620.3</ele>
      </trkpt>
      <trkpt lat="48.01385" lon="9.70436">
        <ele>620.1</ele>
      </trkpt>
      <trkpt lat="48.01396" lon="9.70422">
        <ele>619.4</ele>
      </trkpt>
      <trkpt lat="48.01407" lon="9.70409">
        <ele>618.5</ele>
      </trkpt>
      <trkpt lat="48.01434" lon="9.70377">
        <ele>616.5</ele>
      </trkpt>
      <trkpt lat="48.01452" lon="9.70348">
        <ele>614.3</ele>
      </trkpt>
      <trkpt lat="48.01478" lon="9.70274">
        <ele>607.9</ele>
      </trkpt>
      <trkpt lat="48.01479" lon="9.70273">
        <ele>607.7</ele>
      </trkpt>
      <trkpt lat="48.0148" lon="9.70271">
        <ele>607.5</ele>
      </trkpt>
      <trkpt lat="48.01491" lon="9.70253">
        <ele>604.6</ele>
      </trkpt>
      <trkpt lat="48.01498" lon="9.7024">
        <ele>602.2</ele>
      </trkpt>
      <trkpt lat="48.01513" lon="9.70213">
        <ele>597.7</ele>
      </trkpt>
      <trkpt lat="48.01522" lon="9.70199">
        <ele>596</ele>
      </trkpt>
      <trkpt lat="48.01532" lon="9.70191">
        <ele>595.1</ele>
      </trkpt>
      <trkpt lat="48.01544" lon="9.70185">
        <ele>594.5</ele>
      </trkpt>
      <trkpt lat="48.01559" lon="9.7018">
        <ele>594.2</ele>
      </trkpt>
      <trkpt lat="48.01564" lon="9.70178">
        <ele>594.2</ele>
      </trkpt>
      <trkpt lat="48.01586" lon="9.70176">
        <ele>594.2</ele>
      </trkpt>
      <trkpt lat="48.01631" lon="9.70175">
        <ele>595.9</ele>
      </trkpt>
      <trkpt lat="48.01662" lon="9.70115">
        <ele>601.8</ele>
      </trkpt>
      <trkpt lat="48.01675" lon="9.70086">
        <ele>605.1</ele>
      </trkpt>
      <trkpt lat="48.01678" lon="9.70062">
        <ele>604.7</ele>
      </trkpt>
      <trkpt lat="48.01681" lon="9.70042">
        <ele>604.2</ele>
      </trkpt>
      <trkpt lat="48.01689" lon="9.69989">
        <ele>603.1</ele>
      </trkpt>
      <trkpt lat="48.01717" lon="9.69915">
        <ele>601</ele>
      </trkpt>
      <trkpt lat="48.01729" lon="9.69891">
        <ele>601.7</ele>
      </trkpt>
      <trkpt lat="48.01754" lon="9.69832">
        <ele>602.2</ele>
      </trkpt>
      <trkpt lat="48.01763" lon="9.69793">
        <ele>604.2</ele>
      </trkpt>
      <trkpt lat="48.01764" lon="9.69769">
        <ele>605.1</ele>
      </trkpt>
      <trkpt lat="48.01767" lon="9.69742">
        <ele>606.3</ele>
      </trkpt>
      <trkpt lat="48.0177" lon="9.69711">
        <ele>607.5</ele>
      </trkpt>
      <trkpt lat="48.01772" lon="9.69691">
        <ele>608.2</ele>
      </trkpt>
      <trkpt lat="48.01771" lon="9.69655">
        <ele>609.4</ele>
      </trkpt>
      <trkpt lat="48.0177" lon="9.69634">
        <ele>610.1</ele>
      </trkpt>
      <trkpt lat="48.01756" lon="9.69564">
        <ele>612.9</ele>
      </trkpt>
      <trkpt lat="48.01733" lon="9.69442">
        <ele>612.1</ele>
      </trkpt>
      <trkpt lat="48.01698" lon="9.69341">
        <ele>613.2</ele>
      </trkpt>
      <trkpt lat="48.01681" lon="9.6929">
        <ele>615.9</ele>
      </trkpt>
      <trkpt lat="48.01653" lon="9.69208">
        <ele>618.5</ele>
      </trkpt>
      <trkpt lat="48.01642" lon="9.69182">
        <ele>618.8</ele>
      </trkpt>
      <trkpt lat="48.01636" lon="9.69162">
        <ele>619.3</ele>
      </trkpt>
      <trkpt lat="48.01629" lon="9.69146">
        <ele>619.5</ele>
      </trkpt>
      <trkpt lat="48.01619" lon="9.69125">
        <ele>620.3</ele>
      </trkpt>
      <trkpt lat="48.01609" lon="9.69109">
        <ele>621.1</ele>
      </trkpt>
      <trkpt lat="48.01584" lon="9.6907">
        <ele>623.7</ele>
      </trkpt>
      <trkpt lat="48.01568" lon="9.69046">
        <ele>622.3</ele>
      </trkpt>
      <trkpt lat="48.01543" lon="9.69009">
        <ele>621</ele>
      </trkpt>
      <trkpt lat="48.01504" lon="9.68957">
        <ele>617.4</ele>
      </trkpt>
      <trkpt lat="48.01483" lon="9.68924">
        <ele>615.7</ele>
      </trkpt>
      <trkpt lat="48.01451" lon="9.68879">
        <ele>609.2</ele>
      </trkpt>
      <trkpt lat="48.01476" lon="9.68855">
        <ele>610.1</ele>
      </trkpt>
      <trkpt lat="48.01489" lon="9.68841">
        <ele>610.4</ele>
      </trkpt>
      <trkpt lat="48.01515" lon="9.68849">
        <ele>612.8</ele>
      </trkpt>
      <trkpt lat="48.01542" lon="9.68858">
        <ele>614.6</ele>
      </trkpt>
      <trkpt lat="48.01564" lon="9.68865">
        <ele>616.3</ele>
      </trkpt>
      <trkpt lat="48.01586" lon="9.68873">
        <ele>618.3</ele>
      </trkpt>
      <trkpt lat="48.01604" lon="9.68872">
        <ele>618.6</ele>
      </trkpt>
      <trkpt lat="48.01616" lon="9.68876">
        <ele>619.4</ele>
      </trkpt>
      <trkpt lat="48.01633" lon="9.68876">
        <ele>619.8</ele>
      </trkpt>
      <trkpt lat="48.01651" lon="9.68869">
        <ele>619.6</ele>
      </trkpt>
      <trkpt lat="48.01674" lon="9.68853">
        <ele>618.6</ele>
      </trkpt>
      <trkpt lat="48.01699" lon="9.68827">
        <ele>616.4</ele>
      </trkpt>
      <trkpt lat="48.01717" lon="9.6878">
        <ele>610</ele>
      </trkpt>
      <trkpt lat="48.01731" lon="9.68737">
        <ele>604.8</ele>
      </trkpt>
      <trkpt lat="48.01734" lon="9.68722">
        <ele>603</ele>
      </trkpt>
      <trkpt lat="48.01739" lon="9.68701">
        <ele>600.2</ele>
      </trkpt>
      <trkpt lat="48.01741" lon="9.68676">
        <ele>596.9</ele>
      </trkpt>
      <trkpt lat="48.01749" lon="9.68639">
        <ele>593.6</ele>
      </trkpt>
      <trkpt lat="48.01807" lon="9.68706">
        <ele>594.8</ele>
      </trkpt>
      <trkpt lat="48.01828" lon="9.68737">
        <ele>596.7</ele>
      </trkpt>
      <trkpt lat="48.0185" lon="9.68779">
        <ele>598.4</ele>
      </trkpt>
      <trkpt lat="48.01857" lon="9.68796">
        <ele>598.8</ele>
      </trkpt>
      <trkpt lat="48.01863" lon="9.6881">
        <ele>599.1</ele>
      </trkpt>
      <trkpt lat="48.01932" lon="9.68827">
        <ele>587.9</ele>
      </trkpt>
      <trkpt lat="48.01997" lon="9.68846">
        <ele>588.7</ele>
      </trkpt>
      <trkpt lat="48.02024" lon="9.68851">
        <ele>593.9</ele>
      </trkpt>
      <trkpt lat="48.02031" lon="9.68854">
        <ele>595.4</ele>
      </trkpt>
      <trkpt lat="48.02038" lon="9.68864">
        <ele>596.7</ele>
      </trkpt>
      <trkpt lat="48.02051" lon="9.68891">
        <ele>598.9</ele>
      </trkpt>
      <trkpt lat="48.02068" lon="9.68922">
        <ele>601.4</ele>
      </trkpt>
      <trkpt lat="48.02079" lon="9.68943">
        <ele>602.8</ele>
      </trkpt>
      <trkpt lat="48.02089" lon="9.68944">
        <ele>604.4</ele>
      </trkpt>
      <trkpt lat="48.02108" lon="9.6895">
        <ele>606.2</ele>
      </trkpt>
      <trkpt lat="48.02154" lon="9.68963">
        <ele>609.6</ele>
      </trkpt>
      <trkpt lat="48.02165" lon="9.68967">
        <ele>610</ele>
      </trkpt>
      <trkpt lat="48.02209" lon="9.68999">
        <ele>605.1</ele>
      </trkpt>
      <trkpt lat="48.0223" lon="9.6902">
        <ele>602.8</ele>
      </trkpt>
      <trkpt lat="48.02267" lon="9.6902">
        <ele>599.4</ele>
      </trkpt>
      <trkpt lat="48.02302" lon="9.69022">
        <ele>592.9</ele>
      </trkpt>
      <trkpt lat="48.02316" lon="9.69025">
        <ele>590.5</ele>
      </trkpt>
      <trkpt lat="48.02308" lon="9.69349">
        <ele>581.7</ele>
      </trkpt>
      <trkpt lat="48.02432" lon="9.69368">
        <ele>583.2</ele>
      </trkpt>
      <trkpt lat="48.02485" lon="9.69376">
        <ele>582.2</ele>
      </trkpt>
      <trkpt lat="48.02497" lon="9.69422">
        <ele>581.2</ele>
      </trkpt>
      <trkpt lat="48.02507" lon="9.69422">
        <ele>581.2</ele>
      </trkpt>
      <trkpt lat="48.02514" lon="9.69421">
        <ele>581.3</ele>
      </trkpt>
      <trkpt lat="48.02516" lon="9.69417">
        <ele>581.2</ele>
      </trkpt>
      <trkpt lat="48.02518" lon="9.69413">
        <ele>581.3</ele>
      </trkpt>
      <trkpt lat="48.02525" lon="9.69407">
        <ele>581.5</ele>
      </trkpt>
      <trkpt lat="48.02532" lon="9.69405">
        <ele>581.6</ele>
      </trkpt>
      <trkpt lat="48.02626" lon="9.69442">
        <ele>581.8</ele>
      </trkpt>
      <trkpt lat="48.02693" lon="9.69468">
        <ele>583</ele>
      </trkpt>
      <trkpt lat="48.02694" lon="9.69457">
        <ele>582.6</ele>
      </trkpt>
      <trkpt lat="48.0272" lon="9.69465">
        <ele>583</ele>
      </trkpt>
      <trkpt lat="48.02744" lon="9.69467">
        <ele>583.2</ele>
      </trkpt>
      <trkpt lat="48.02752" lon="9.69468">
        <ele>583.1</ele>
      </trkpt>
      <trkpt lat="48.02763" lon="9.69469">
        <ele>582.8</ele>
      </trkpt>
      <trkpt lat="48.02778" lon="9.69472">
        <ele>582.3</ele>
      </trkpt>
      <trkpt lat="48.02789" lon="9.69476">
        <ele>582</ele>
      </trkpt>
      <trkpt lat="48.02795" lon="9.6948">
        <ele>581.9</ele>
      </trkpt>
      <trkpt lat="48.028" lon="9.69485">
        <ele>581.9</ele>
      </trkpt>
      <trkpt lat="48.02818" lon="9.69505">
        <ele>581.6</ele>
      </trkpt>
      <trkpt lat="48.02858" lon="9.6955">
        <ele>581</ele>
      </trkpt>
      <trkpt lat="48.02863" lon="9.69558">
        <ele>581</ele>
      </trkpt>
      <trkpt lat="48.02887" lon="9.69602">
        <ele>580.7</ele>
      </trkpt>
      <trkpt lat="48.02923" lon="9.69635">
        <ele>579.8</ele>
      </trkpt>
      <trkpt lat="48.02949" lon="9.69601">
        <ele>579.5</ele>
      </trkpt>
      <trkpt lat="48.02952" lon="9.69597">
        <ele>579.4</ele>
      </trkpt>
      <trkpt lat="48.02958" lon="9.69593">
        <ele>579.4</ele>
      </trkpt>
      <trkpt lat="48.02963" lon="9.69594">
        <ele>579.3</ele>
      </trkpt>
      <trkpt lat="48.02975" lon="9.69602">
        <ele>579</ele>
      </trkpt>
      <trkpt lat="48.02982" lon="9.69611">
        <ele>578.7</ele>
      </trkpt>
      <trkpt lat="48.02989" lon="9.69617">
        <ele>578.4</ele>
      </trkpt>
      <trkpt lat="48.02994" lon="9.69621">
        <ele>578.2</ele>
      </trkpt>
      <trkpt lat="48.03013" lon="9.69629">
        <ele>577.9</ele>
      </trkpt>
      <trkpt lat="48.03011" lon="9.69644">
        <ele>577.5</ele>
      </trkpt>
      <trkpt lat="48.03011" lon="9.69664">
        <ele>577.1</ele>
      </trkpt>
      <trkpt lat="48.03013" lon="9.69682">
        <ele>577.3</ele>
      </trkpt>
      <trkpt lat="48.03021" lon="9.69701">
        <ele>577.6</ele>
      </trkpt>
      <trkpt lat="48.03031" lon="9.69717">
        <ele>577.8</ele>
      </trkpt>
      <trkpt lat="48.03054" lon="9.69762">
        <ele>577.7</ele>
      </trkpt>
      <trkpt lat="48.0306" lon="9.69774">
        <ele>577.5</ele>
      </trkpt>
      <trkpt lat="48.03065" lon="9.69784">
        <ele>577.3</ele>
      </trkpt>
      <trkpt lat="48.03108" lon="9.69841">
        <ele>576.1</ele>
      </trkpt>
      <trkpt lat="48.03112" lon="9.69843">
        <ele>576.1</ele>
      </trkpt>
      <trkpt lat="48.03115" lon="9.69841">
        <ele>576.1</ele>
      </trkpt>
      <trkpt lat="48.03149" lon="9.69803">
        <ele>577.8</ele>
      </trkpt>
      <trkpt lat="48.03193" lon="9.69843">
        <ele>577.6</ele>
      </trkpt>
      <trkpt lat="48.03247" lon="9.69894">
        <ele>577.6</ele>
      </trkpt>
      <trkpt lat="48.03309" lon="9.69949">
        <ele>577.4</ele>
      </trkpt>
      <trkpt lat="48.03328" lon="9.69966">
        <ele>577.4</ele>
      </trkpt>
      <trkpt lat="48.03435" lon="9.70062">
        <ele>575.8</ele>
      </trkpt>
      <trkpt lat="48.03561" lon="9.70173">
        <ele>572.2</ele>
      </trkpt>
      <trkpt lat="48.03569" lon="9.70182">
        <ele>572</ele>
      </trkpt>
      <trkpt lat="48.03466" lon="9.70296">
        <ele>570.2</ele>
      </trkpt>
      <trkpt lat="48.03491" lon="9.70385">
        <ele>570.8</ele>
      </trkpt>
      <trkpt lat="48.03492" lon="9.70434">
        <ele>570.8</ele>
      </trkpt>
      <trkpt lat="48.03487" lon="9.70486">
        <ele>570.7</ele>
      </trkpt>
      <trkpt lat="48.03487" lon="9.70512">
        <ele>570.7</ele>
      </trkpt>
      <trkpt lat="48.0349" lon="9.70537">
        <ele>570.8</ele>
      </trkpt>
      <trkpt lat="48.03517" lon="9.7067">
        <ele>571.2</ele>
      </trkpt>
      <trkpt lat="48.0353" lon="9.70716">
        <ele>571.1</ele>
      </trkpt>
      <trkpt lat="48.03527" lon="9.7072">
        <ele>571.1</ele>
      </trkpt>
      <trkpt lat="48.03533" lon="9.70735">
        <ele>571.1</ele>
      </trkpt>
      <trkpt lat="48.03558" lon="9.70782">
        <ele>571</ele>
      </trkpt>
      <trkpt lat="48.03571" lon="9.70803">
        <ele>571</ele>
      </trkpt>
      <trkpt lat="48.03581" lon="9.70816">
        <ele>571</ele>
      </trkpt>
      <trkpt lat="48.03611" lon="9.70841">
        <ele>570.9</ele>
      </trkpt>
      <trkpt lat="48.03622" lon="9.70857">
        <ele>570.8</ele>
      </trkpt>
      <trkpt lat="48.03627" lon="9.70866">
        <ele>570.8</ele>
      </trkpt>
      <trkpt lat="48.03637" lon="9.70886">
        <ele>570.8</ele>
      </trkpt>
      <trkpt lat="48.03646" lon="9.70909">
        <ele>570.8</ele>
      </trkpt>
      <trkpt lat="48.03652" lon="9.70928">
        <ele>570.6</ele>
      </trkpt>
      <trkpt lat="48.03657" lon="9.70949">
        <ele>570.2</ele>
      </trkpt>
      <trkpt lat="48.03659" lon="9.7096">
        <ele>570</ele>
      </trkpt>
      <trkpt lat="48.03653" lon="9.70973">
        <ele>569.7</ele>
      </trkpt>
      <trkpt lat="48.03663" lon="9.70986">
        <ele>569.4</ele>
      </trkpt>
      <trkpt lat="48.0367" lon="9.71">
        <ele>569</ele>
      </trkpt>
      <trkpt lat="48.03682" lon="9.71028">
        <ele>568.9</ele>
      </trkpt>
      <trkpt lat="48.0369" lon="9.71043">
        <ele>568.9</ele>
      </trkpt>
      <trkpt lat="48.037" lon="9.71054">
        <ele>568.7</ele>
      </trkpt>
      <trkpt lat="48.03696" lon="9.71065">
        <ele>568.7</ele>
      </trkpt>
      <trkpt lat="48.03696" lon="9.71073">
        <ele>568.7</ele>
      </trkpt>
      <trkpt lat="48.03699" lon="9.71084">
        <ele>568.6</ele>
      </trkpt>
      <trkpt lat="48.03701" lon="9.71088">
        <ele>568.7</ele>
      </trkpt>
      <trkpt lat="48.03707" lon="9.71097">
        <ele>568.9</ele>
      </trkpt>
      <trkpt lat="48.03711" lon="9.71101">
        <ele>569</ele>
      </trkpt>
      <trkpt lat="48.03722" lon="9.71109">
        <ele>569</ele>
      </trkpt>
      <trkpt lat="48.03743" lon="9.71112">
        <ele>568.8</ele>
      </trkpt>
      <trkpt lat="48.03755" lon="9.71112">
        <ele>568.7</ele>
      </trkpt>
      <trkpt lat="48.03762" lon="9.71113">
        <ele>568.7</ele>
      </trkpt>
      <trkpt lat="48.03756" lon="9.71149">
        <ele>569.5</ele>
      </trkpt>
      <trkpt lat="48.03749" lon="9.71178">
        <ele>570</ele>
      </trkpt>
      <trkpt lat="48.03743" lon="9.71196">
        <ele>570.1</ele>
      </trkpt>
      <trkpt lat="48.03735" lon="9.71228">
        <ele>570.2</ele>
      </trkpt>
      <trkpt lat="48.03732" lon="9.71236">
        <ele>570.3</ele>
      </trkpt>
      <trkpt lat="48.03726" lon="9.71251">
        <ele>570.3</ele>
      </trkpt>
      <trkpt lat="48.03736" lon="9.71273">
        <ele>570.3</ele>
      </trkpt>
      <trkpt lat="48.03743" lon="9.71296">
        <ele>570.5</ele>
      </trkpt>
      <trkpt lat="48.03747" lon="9.71314">
        <ele>570.7</ele>
      </trkpt>
      <trkpt lat="48.03752" lon="9.71346">
        <ele>570.7</ele>
      </trkpt>
      <trkpt lat="48.03759" lon="9.7139">
        <ele>569.4</ele>
      </trkpt>
      <trkpt lat="48.0376" lon="9.71413">
        <ele>568.9</ele>
      </trkpt>
      <trkpt lat="48.03759" lon="9.71448">
        <ele>567.7</ele>
      </trkpt>
      <trkpt lat="48.03757" lon="9.71487">
        <ele>566.4</ele>
      </trkpt>
      <trkpt lat="48.03756" lon="9.71505">
        <ele>565.9</ele>
      </trkpt>
      <trkpt lat="48.03753" lon="9.71523">
        <ele>566</ele>
      </trkpt>
      <trkpt lat="48.03748" lon="9.7154">
        <ele>566.1</ele>
      </trkpt>
      <trkpt lat="48.03739" lon="9.71559">
        <ele>566.4</ele>
      </trkpt>
      <trkpt lat="48.03737" lon="9.7157">
        <ele>566.4</ele>
      </trkpt>
      <trkpt lat="48.03739" lon="9.71579">
        <ele>566.3</ele>
      </trkpt>
      <trkpt lat="48.03744" lon="9.71588">
        <ele>566.3</ele>
      </trkpt>
      <trkpt lat="48.03749" lon="9.71595">
        <ele>566.3</ele>
      </trkpt>
      <trkpt lat="48.0376" lon="9.7157">
        <ele>565.8</ele>
      </trkpt>
      <trkpt lat="48.03799" lon="9.71491">
        <ele>565.7</ele>
      </trkpt>
      <trkpt lat="48.03824" lon="9.71441">
        <ele>566.6</ele>
      </trkpt>
      <trkpt lat="48.03839" lon="9.71416">
        <ele>567.2</ele>
      </trkpt>
      <trkpt lat="48.03851" lon="9.71403">
        <ele>567.9</ele>
      </trkpt>
      <trkpt lat="48.03856" lon="9.714">
        <ele>568.1</ele>
      </trkpt>
      <trkpt lat="48.03862" lon="9.714">
        <ele>568.3</ele>
      </trkpt>
      <trkpt lat="48.03869" lon="9.71405">
        <ele>568.4</ele>
      </trkpt>
      <trkpt lat="48.03871" lon="9.7141">
        <ele>568.4</ele>
      </trkpt>
      <trkpt lat="48.03889" lon="9.71445">
        <ele>568.3</ele>
      </trkpt>
      <trkpt lat="48.03905" lon="9.71486">
        <ele>567.9</ele>
      </trkpt>
      <trkpt lat="48.03907" lon="9.71494">
        <ele>567.8</ele>
      </trkpt>
      <trkpt lat="48.03915" lon="9.71523">
        <ele>567.6</ele>
      </trkpt>
      <trkpt lat="48.03937" lon="9.71626">
        <ele>567.5</ele>
      </trkpt>
      <trkpt lat="48.03961" lon="9.71741">
        <ele>568.1</ele>
      </trkpt>
      <trkpt lat="48.0397" lon="9.7178">
        <ele>568</ele>
      </trkpt>
      <trkpt lat="48.03975" lon="9.7182">
        <ele>567.8</ele>
      </trkpt>
      <trkpt lat="48.03976" lon="9.71848">
        <ele>567.7</ele>
      </trkpt>
      <trkpt lat="48.03977" lon="9.71863">
        <ele>567.7</ele>
      </trkpt>
      <trkpt lat="48.03978" lon="9.71881">
        <ele>567.7</ele>
      </trkpt>
      <trkpt lat="48.03978" lon="9.71883">
        <ele>567.7</ele>
      </trkpt>
      <trkpt lat="48.0398" lon="9.71951">
        <ele>567.2</ele>
      </trkpt>
      <trkpt lat="48.03983" lon="9.72011">
        <ele>566.5</ele>
      </trkpt>
      <trkpt lat="48.03987" lon="9.72039">
        <ele>566.6</ele>
      </trkpt>
      <trkpt lat="48.03993" lon="9.72065">
        <ele>566.7</ele>
      </trkpt>
      <trkpt lat="48.03997" lon="9.72085">
        <ele>567</ele>
      </trkpt>
      <trkpt lat="48.04019" lon="9.72145">
        <ele>568.5</ele>
      </trkpt>
      <trkpt lat="48.04044" lon="9.72227">
        <ele>569</ele>
      </trkpt>
      <trkpt lat="48.04058" lon="9.72295">
        <ele>568.6</ele>
      </trkpt>
      <trkpt lat="48.04068" lon="9.72356">
        <ele>568.5</ele>
      </trkpt>
      <trkpt lat="48.03888" lon="9.7244">
        <ele>567.4</ele>
      </trkpt>
      <trkpt lat="48.03934" lon="9.72601">
        <ele>577.6</ele>
      </trkpt>
      <trkpt lat="48.03967" lon="9.72682">
        <ele>581.7</ele>
      </trkpt>
      <trkpt lat="48.03975" lon="9.72695">
        <ele>582.7</ele>
      </trkpt>
      <trkpt lat="48.0401" lon="9.72748">
        <ele>586.2</ele>
      </trkpt>
      <trkpt lat="48.04018" lon="9.72772">
        <ele>587.6</ele>
      </trkpt>
      <trkpt lat="48.0402" lon="9.72789">
        <ele>588.8</ele>
      </trkpt>
      <trkpt lat="48.04022" lon="9.72816">
        <ele>590.8</ele>
      </trkpt>
      <trkpt lat="48.04027" lon="9.72863">
        <ele>593.6</ele>
      </trkpt>
      <trkpt lat="48.04032" lon="9.72901">
        <ele>595.4</ele>
      </trkpt>
      <trkpt lat="48.04034" lon="9.72922">
        <ele>596.4</ele>
      </trkpt>
      <trkpt lat="48.04037" lon="9.72944">
        <ele>597.3</ele>
      </trkpt>
      <trkpt lat="48.04045" lon="9.72959">
        <ele>597.7</ele>
      </trkpt>
      <trkpt lat="48.04053" lon="9.7297">
        <ele>597.9</ele>
      </trkpt>
      <trkpt lat="48.04055" lon="9.72978">
        <ele>598.1</ele>
      </trkpt>
      <trkpt lat="48.04037" lon="9.7298">
        <ele>598.8</ele>
      </trkpt>
      <trkpt lat="48.04009" lon="9.72984">
        <ele>599.9</ele>
      </trkpt>
      <trkpt lat="48.03982" lon="9.72985">
        <ele>600.9</ele>
      </trkpt>
      <trkpt lat="48.03989" lon="9.73032">
        <ele>603.2</ele>
      </trkpt>
      <trkpt lat="48.03994" lon="9.73062">
        <ele>604.8</ele>
      </trkpt>
      <trkpt lat="48.04" lon="9.7312">
        <ele>606.4</ele>
      </trkpt>
      <trkpt lat="48.04002" lon="9.73133">
        <ele>606.5</ele>
      </trkpt>
      <trkpt lat="48.04014" lon="9.73131">
        <ele>606.2</ele>
      </trkpt>
      <trkpt lat="48.04031" lon="9.73129">
        <ele>605.8</ele>
      </trkpt>
      <trkpt lat="48.04049" lon="9.7313">
        <ele>605.4</ele>
      </trkpt>
      <trkpt lat="48.04069" lon="9.73134">
        <ele>605</ele>
      </trkpt>
      <trkpt lat="48.04085" lon="9.73134">
        <ele>604.5</ele>
      </trkpt>
      <trkpt lat="48.04102" lon="9.73132">
        <ele>603.5</ele>
      </trkpt>
      <trkpt lat="48.04109" lon="9.73131">
        <ele>603.1</ele>
      </trkpt>
      <trkpt lat="48.04134" lon="9.73128">
        <ele>601.6</ele>
      </trkpt>
      <trkpt lat="48.04142" lon="9.73127">
        <ele>601.1</ele>
      </trkpt>
      <trkpt lat="48.0415" lon="9.73123">
        <ele>600.4</ele>
      </trkpt>
      <trkpt lat="48.04163" lon="9.73113">
        <ele>599</ele>
      </trkpt>
      <trkpt lat="48.0417" lon="9.73108">
        <ele>598.5</ele>
      </trkpt>
      <trkpt lat="48.0418" lon="9.73104">
        <ele>598.2</ele>
      </trkpt>
      <trkpt lat="48.04188" lon="9.73098">
        <ele>597.8</ele>
      </trkpt>
      <trkpt lat="48.04193" lon="9.73094">
        <ele>597.6</ele>
      </trkpt>
      <trkpt lat="48.04199" lon="9.73104">
        <ele>598.1</ele>
      </trkpt>
      <trkpt lat="48.04215" lon="9.73131">
        <ele>599.5</ele>
      </trkpt>
      <trkpt lat="48.04214" lon="9.73141">
        <ele>600.1</ele>
      </trkpt>
      <trkpt lat="48.04226" lon="9.73213">
        <ele>602.9</ele>
      </trkpt>
      <trkpt lat="48.04231" lon="9.73245">
        <ele>603.8</ele>
      </trkpt>
      <trkpt lat="48.04235" lon="9.73268">
        <ele>603.9</ele>
      </trkpt>
      <trkpt lat="48.04236" lon="9.73275">
        <ele>603.9</ele>
      </trkpt>
      <trkpt lat="48.04243" lon="9.73305">
        <ele>603.9</ele>
      </trkpt>
      <trkpt lat="48.04252" lon="9.73343">
        <ele>604.2</ele>
      </trkpt>
      <trkpt lat="48.04264" lon="9.73383">
        <ele>604.7</ele>
      </trkpt>
      <trkpt lat="48.04269" lon="9.73403">
        <ele>604.9</ele>
      </trkpt>
      <trkpt lat="48.04284" lon="9.73449">
        <ele>603.9</ele>
      </trkpt>
      <trkpt lat="48.04295" lon="9.73486">
        <ele>603.1</ele>
      </trkpt>
      <trkpt lat="48.0433" lon="9.73612">
        <ele>601.7</ele>
      </trkpt>
      <trkpt lat="48.04359" lon="9.73724">
        <ele>600.8</ele>
      </trkpt>
      <trkpt lat="48.04406" lon="9.73915">
        <ele>605.5</ele>
      </trkpt>
      <trkpt lat="48.04453" lon="9.74104">
        <ele>614.9</ele>
      </trkpt>
      <trkpt lat="48.04471" lon="9.74193">
        <ele>621</ele>
      </trkpt>
      <trkpt lat="48.0448" lon="9.74218">
        <ele>623</ele>
      </trkpt>
      <trkpt lat="48.0455" lon="9.74198">
        <ele>619.2</ele>
      </trkpt>
      <trkpt lat="48.04571" lon="9.74195">
        <ele>618.4</ele>
      </trkpt>
      <trkpt lat="48.04583" lon="9.74193">
        <ele>617.9</ele>
      </trkpt>
      <trkpt lat="48.04611" lon="9.74188">
        <ele>615.4</ele>
      </trkpt>
      <trkpt lat="48.04681" lon="9.7418">
        <ele>610.3</ele>
      </trkpt>
      <trkpt lat="48.04743" lon="9.74171">
        <ele>607.3</ele>
      </trkpt>
      <trkpt lat="48.04799" lon="9.74162">
        <ele>604.5</ele>
      </trkpt>
      <trkpt lat="48.04834" lon="9.74267">
        <ele>602.8</ele>
      </trkpt>
      <trkpt lat="48.04864" lon="9.74358">
        <ele>601.9</ele>
      </trkpt>
      <trkpt lat="48.04878" lon="9.74399">
        <ele>602.8</ele>
      </trkpt>
      <trkpt lat="48.04881" lon="9.74406">
        <ele>603</ele>
      </trkpt>
      <trkpt lat="48.04901" lon="9.74465">
        <ele>606</ele>
      </trkpt>
      <trkpt lat="48.04932" lon="9.74555">
        <ele>606.3</ele>
      </trkpt>
      <trkpt lat="48.04957" lon="9.74632">
        <ele>605.8</ele>
      </trkpt>
      <trkpt lat="48.04965" lon="9.74631">
        <ele>606.5</ele>
      </trkpt>
      <trkpt lat="48.04998" lon="9.74619">
        <ele>609.3</ele>
      </trkpt>
      <trkpt lat="48.05012" lon="9.74615">
        <ele>609.9</ele>
      </trkpt>
      <trkpt lat="48.05044" lon="9.74606">
        <ele>611.2</ele>
      </trkpt>
      <trkpt lat="48.05102" lon="9.74604">
        <ele>611.6</ele>
      </trkpt>
      <trkpt lat="48.05106" lon="9.74604">
        <ele>611.2</ele>
      </trkpt>
      <trkpt lat="48.0512" lon="9.74604">
        <ele>610.1</ele>
      </trkpt>
      <trkpt lat="48.05174" lon="9.74605">
        <ele>607.3</ele>
      </trkpt>
      <trkpt lat="48.05201" lon="9.74608">
        <ele>610.2</ele>
      </trkpt>
      <trkpt lat="48.05223" lon="9.74619">
        <ele>612.3</ele>
      </trkpt>
      <trkpt lat="48.05259" lon="9.74651">
        <ele>615.6</ele>
      </trkpt>
      <trkpt lat="48.05311" lon="9.74711">
        <ele>614.3</ele>
      </trkpt>
      <trkpt lat="48.05325" lon="9.7473">
        <ele>613.3</ele>
      </trkpt>
      <trkpt lat="48.05388" lon="9.74787">
        <ele>617.7</ele>
      </trkpt>
      <trkpt lat="48.05397" lon="9.74788">
        <ele>618.7</ele>
      </trkpt>
      <trkpt lat="48.05413" lon="9.74789">
        <ele>620.6</ele>
      </trkpt>
      <trkpt lat="48.05474" lon="9.7481">
        <ele>620.9</ele>
      </trkpt>
      <trkpt lat="48.05539" lon="9.74885">
        <ele>618.6</ele>
      </trkpt>
      <trkpt lat="48.05569" lon="9.74911">
        <ele>618.6</ele>
      </trkpt>
      <trkpt lat="48.05612" lon="9.74972">
        <ele>615.6</ele>
      </trkpt>
      <trkpt lat="48.05634" lon="9.74998">
        <ele>614.7</ele>
      </trkpt>
      <trkpt lat="48.05687" lon="9.75043">
        <ele>613.5</ele>
      </trkpt>
      <trkpt lat="48.05706" lon="9.75059">
        <ele>612.4</ele>
      </trkpt>
      <trkpt lat="48.05776" lon="9.75114">
        <ele>607.8</ele>
      </trkpt>
      <trkpt lat="48.05779" lon="9.75119">
        <ele>607.3</ele>
      </trkpt>
      <trkpt lat="48.05786" lon="9.75138">
        <ele>605.9</ele>
      </trkpt>
      <trkpt lat="48.05799" lon="9.75162">
        <ele>604</ele>
      </trkpt>
      <trkpt lat="48.05805" lon="9.7517">
        <ele>603.3</ele>
      </trkpt>
      <trkpt lat="48.05821" lon="9.75177">
        <ele>602.9</ele>
      </trkpt>
      <trkpt lat="48.05856" lon="9.75181">
        <ele>601.3</ele>
      </trkpt>
      <trkpt lat="48.05913" lon="9.75188">
        <ele>597</ele>
      </trkpt>
      <trkpt lat="48.05918" lon="9.75202">
        <ele>595.1</ele>
      </trkpt>
      <trkpt lat="48.05931" lon="9.75256">
        <ele>588.7</ele>
      </trkpt>
      <trkpt lat="48.05944" lon="9.75305">
        <ele>584.9</ele>
      </trkpt>
      <trkpt lat="48.05958" lon="9.75366">
        <ele>580.5</ele>
      </trkpt>
      <trkpt lat="48.06069" lon="9.75376">
        <ele>576.2</ele>
      </trkpt>
      <trkpt lat="48.06138" lon="9.75383">
        <ele>571.9</ele>
      </trkpt>
      <trkpt lat="48.062" lon="9.75388">
        <ele>568.4</ele>
      </trkpt>
      <trkpt lat="48.06234" lon="9.75569">
        <ele>562</ele>
      </trkpt>
      <trkpt lat="48.06255" lon="9.75571">
        <ele>562.5</ele>
      </trkpt>
      <trkpt lat="48.06345" lon="9.75594">
        <ele>562.1</ele>
      </trkpt>
      <trkpt lat="48.06384" lon="9.75623">
        <ele>561.1</ele>
      </trkpt>
      <trkpt lat="48.06387" lon="9.75625">
        <ele>561</ele>
      </trkpt>
      <trkpt lat="48.0641" lon="9.75643">
        <ele>559.6</ele>
      </trkpt>
      <trkpt lat="48.06423" lon="9.75657">
        <ele>559</ele>
      </trkpt>
      <trkpt lat="48.06431" lon="9.75667">
        <ele>559</ele>
      </trkpt>
      <trkpt lat="48.06436" lon="9.75674">
        <ele>559.1</ele>
      </trkpt>
      <trkpt lat="48.06457" lon="9.75709">
        <ele>558.5</ele>
      </trkpt>
      <trkpt lat="48.06479" lon="9.75746">
        <ele>556.6</ele>
      </trkpt>
      <trkpt lat="48.06484" lon="9.75756">
        <ele>556.1</ele>
      </trkpt>
      <trkpt lat="48.06489" lon="9.7577">
        <ele>555.7</ele>
      </trkpt>
      <trkpt lat="48.06494" lon="9.75784">
        <ele>555.4</ele>
      </trkpt>
      <trkpt lat="48.06497" lon="9.758">
        <ele>555.2</ele>
      </trkpt>
      <trkpt lat="48.06502" lon="9.75798">
        <ele>555</ele>
      </trkpt>
      <trkpt lat="48.06509" lon="9.75796">
        <ele>555.1</ele>
      </trkpt>
      <trkpt lat="48.0651" lon="9.75796">
        <ele>555.1</ele>
      </trkpt>
      <trkpt lat="48.06515" lon="9.75796">
        <ele>555.1</ele>
      </trkpt>
      <trkpt lat="48.06522" lon="9.75798">
        <ele>555.2</ele>
      </trkpt>
      <trkpt lat="48.0653" lon="9.75802">
        <ele>555.2</ele>
      </trkpt>
      <trkpt lat="48.0656" lon="9.75825">
        <ele>554.6</ele>
      </trkpt>
      <trkpt lat="48.06575" lon="9.75835">
        <ele>554.1</ele>
      </trkpt>
      <trkpt lat="48.06584" lon="9.75844">
        <ele>554</ele>
      </trkpt>
      <trkpt lat="48.06592" lon="9.75855">
        <ele>554.2</ele>
      </trkpt>
      <trkpt lat="48.06615" lon="9.75905">
        <ele>554.2</ele>
      </trkpt>
      <trkpt lat="48.06626" lon="9.75925">
        <ele>553.9</ele>
      </trkpt>
      <trkpt lat="48.06636" lon="9.75943">
        <ele>553.7</ele>
      </trkpt>
      <trkpt lat="48.06643" lon="9.75952">
        <ele>553.5</ele>
      </trkpt>
      <trkpt lat="48.06649" lon="9.75959">
        <ele>553.3</ele>
      </trkpt>
      <trkpt lat="48.06658" lon="9.75971">
        <ele>552.9</ele>
      </trkpt>
      <trkpt lat="48.06675" lon="9.75991">
        <ele>552.5</ele>
      </trkpt>
      <trkpt lat="48.06707" lon="9.7603">
        <ele>552.9</ele>
      </trkpt>
      <trkpt lat="48.06711" lon="9.76037">
        <ele>552.9</ele>
      </trkpt>
      <trkpt lat="48.06714" lon="9.76041">
        <ele>552.8</ele>
      </trkpt>
      <trkpt lat="48.06715" lon="9.76045">
        <ele>552.7</ele>
      </trkpt>
      <trkpt lat="48.06718" lon="9.76051">
        <ele>552.6</ele>
      </trkpt>
      <trkpt lat="48.06722" lon="9.76058">
        <ele>552.4</ele>
      </trkpt>
      <trkpt lat="48.06728" lon="9.76063">
        <ele>552.2</ele>
      </trkpt>
      <trkpt lat="48.06736" lon="9.7607">
        <ele>551.9</ele>
      </trkpt>
      <trkpt lat="48.06748" lon="9.76076">
        <ele>551.4</ele>
      </trkpt>
      <trkpt lat="48.0676" lon="9.76081">
        <ele>551</ele>
      </trkpt>
      <trkpt lat="48.0677" lon="9.76084">
        <ele>550.8</ele>
      </trkpt>
      <trkpt lat="48.06781" lon="9.76085">
        <ele>550.6</ele>
      </trkpt>
      <trkpt lat="48.06792" lon="9.76086">
        <ele>550.5</ele>
      </trkpt>
      <trkpt lat="48.06819" lon="9.76082">
        <ele>550.2</ele>
      </trkpt>
      <trkpt lat="48.06854" lon="9.76078">
        <ele>549.8</ele>
      </trkpt>
      <trkpt lat="48.06872" lon="9.76076">
        <ele>549.3</ele>
      </trkpt>
      <trkpt lat="48.06884" lon="9.76075">
        <ele>549</ele>
      </trkpt>
      <trkpt lat="48.06892" lon="9.76075">
        <ele>548.8</ele>
      </trkpt>
      <trkpt lat="48.069" lon="9.76075">
        <ele>548.6</ele>
      </trkpt>
      <trkpt lat="48.0691" lon="9.76078">
        <ele>548.2</ele>
      </trkpt>
      <trkpt lat="48.06918" lon="9.76083">
        <ele>548.1</ele>
      </trkpt>
      <trkpt lat="48.06927" lon="9.76088">
        <ele>548.7</ele>
      </trkpt>
      <trkpt lat="48.06939" lon="9.76097">
        <ele>549.4</ele>
      </trkpt>
      <trkpt lat="48.06949" lon="9.76106">
        <ele>549.9</ele>
      </trkpt>
      <trkpt lat="48.06957" lon="9.76116">
        <ele>550.4</ele>
      </trkpt>
      <trkpt lat="48.06972" lon="9.76133">
        <ele>551</ele>
      </trkpt>
      <trkpt lat="48.06978" lon="9.76143">
        <ele>551.2</ele>
      </trkpt>
      <trkpt lat="48.06985" lon="9.76155">
        <ele>551.4</ele>
      </trkpt>
      <trkpt lat="48.06998" lon="9.76177">
        <ele>551.3</ele>
      </trkpt>
      <trkpt lat="48.07011" lon="9.76208">
        <ele>551.5</ele>
      </trkpt>
      <trkpt lat="48.07017" lon="9.76221">
        <ele>551.5</ele>
      </trkpt>
      <trkpt lat="48.07026" lon="9.76239">
        <ele>551.8</ele>
      </trkpt>
      <trkpt lat="48.07058" lon="9.76295">
        <ele>553.9</ele>
      </trkpt>
      <trkpt lat="48.07096" lon="9.76359">
        <ele>551.7</ele>
      </trkpt>
      <trkpt lat="48.07106" lon="9.76374">
        <ele>550.5</ele>
      </trkpt>
      <trkpt lat="48.07113" lon="9.76381">
        <ele>549.9</ele>
      </trkpt>
      <trkpt lat="48.07137" lon="9.76403">
        <ele>548.5</ele>
      </trkpt>
      <trkpt lat="48.07169" lon="9.76441">
        <ele>547.5</ele>
      </trkpt>
      <trkpt lat="48.07189" lon="9.76474">
        <ele>546.7</ele>
      </trkpt>
      <trkpt lat="48.07225" lon="9.76543">
        <ele>542.4</ele>
      </trkpt>
      <trkpt lat="48.07242" lon="9.76571">
        <ele>540.7</ele>
      </trkpt>
      <trkpt lat="48.07258" lon="9.76594">
        <ele>540.9</ele>
      </trkpt>
      <trkpt lat="48.07316" lon="9.76661">
        <ele>541.6</ele>
      </trkpt>
      <trkpt lat="48.07358" lon="9.76708">
        <ele>542.9</ele>
      </trkpt>
      <trkpt lat="48.07364" lon="9.76715">
        <ele>543.1</ele>
      </trkpt>
      <trkpt lat="48.07367" lon="9.76708">
        <ele>543.2</ele>
      </trkpt>
      <trkpt lat="48.07371" lon="9.76699">
        <ele>543.4</ele>
      </trkpt>
      <trkpt lat="48.07377" lon="9.767">
        <ele>543.7</ele>
      </trkpt>
      <trkpt lat="48.074" lon="9.76725">
        <ele>543.8</ele>
      </trkpt>
      <trkpt lat="48.07436" lon="9.76758">
        <ele>542.7</ele>
      </trkpt>
      <trkpt lat="48.07483" lon="9.76786">
        <ele>543</ele>
      </trkpt>
      <trkpt lat="48.07526" lon="9.76805">
        <ele>543.1</ele>
      </trkpt>
      <trkpt lat="48.07573" lon="9.76812">
        <ele>542</ele>
      </trkpt>
      <trkpt lat="48.07784" lon="9.76814">
        <ele>546.1</ele>
      </trkpt>
      <trkpt lat="48.08031" lon="9.76811">
        <ele>539.4</ele>
      </trkpt>
      <trkpt lat="48.08088" lon="9.76809">
        <ele>538.1</ele>
      </trkpt>
      <trkpt lat="48.08187" lon="9.76804">
        <ele>539.5</ele>
      </trkpt>
      <trkpt lat="48.08419" lon="9.7679">
        <ele>540.7</ele>
      </trkpt>
      <trkpt lat="48.08453" lon="9.76791">
        <ele>542.3</ele>
      </trkpt>
      <trkpt lat="48.08506" lon="9.76803">
        <ele>544.3</ele>
      </trkpt>
      <trkpt lat="48.08542" lon="9.7683">
        <ele>546.2</ele>
      </trkpt>
      <trkpt lat="48.08568" lon="9.76857">
        <ele>545.4</ele>
      </trkpt>
      <trkpt lat="48.08589" lon="9.76886">
        <ele>542.9</ele>
      </trkpt>
      <trkpt lat="48.08679" lon="9.77008">
        <ele>537.4</ele>
      </trkpt>
      <trkpt lat="48.08791" lon="9.77164">
        <ele>536.7</ele>
      </trkpt>
      <trkpt lat="48.08874" lon="9.77258">
        <ele>533.9</ele>
      </trkpt>
      <trkpt lat="48.08961" lon="9.77335">
        <ele>531.5</ele>
      </trkpt>
      <trkpt lat="48.09088" lon="9.77419">
        <ele>531.2</ele>
      </trkpt>
      <trkpt lat="48.09104" lon="9.77429">
        <ele>531.8</ele>
      </trkpt>
      <trkpt lat="48.09172" lon="9.77488">
        <ele>534.8</ele>
      </trkpt>
      <trkpt lat="48.09199" lon="9.77525">
        <ele>534.5</ele>
      </trkpt>
      <trkpt lat="48.09217" lon="9.77553">
        <ele>533.2</ele>
      </trkpt>
      <trkpt lat="48.09244" lon="9.77605">
        <ele>531.9</ele>
      </trkpt>
      <trkpt lat="48.09286" lon="9.77603">
        <ele>534.5</ele>
      </trkpt>
      <trkpt lat="48.09295" lon="9.776">
        <ele>535.2</ele>
      </trkpt>
      <trkpt lat="48.09298" lon="9.77614">
        <ele>535.7</ele>
      </trkpt>
      <trkpt lat="48.09299" lon="9.7765">
        <ele>536.6</ele>
      </trkpt>
      <trkpt lat="48.09303" lon="9.77686">
        <ele>536.7</ele>
      </trkpt>
      <trkpt lat="48.09311" lon="9.77715">
        <ele>536.1</ele>
      </trkpt>
      <trkpt lat="48.09318" lon="9.77735">
        <ele>535.6</ele>
      </trkpt>
      <trkpt lat="48.09324" lon="9.77741">
        <ele>535.4</ele>
      </trkpt>
      <trkpt lat="48.09346" lon="9.77757">
        <ele>535.5</ele>
      </trkpt>
      <trkpt lat="48.09355" lon="9.77766">
        <ele>535.8</ele>
      </trkpt>
      <trkpt lat="48.09363" lon="9.7777">
        <ele>536.1</ele>
      </trkpt>
      <trkpt lat="48.09371" lon="9.77777">
        <ele>536.3</ele>
      </trkpt>
      <trkpt lat="48.09378" lon="9.77786">
        <ele>536.4</ele>
      </trkpt>
      <trkpt lat="48.09396" lon="9.77816">
        <ele>536</ele>
      </trkpt>
      <trkpt lat="48.0942" lon="9.77867">
        <ele>534.6</ele>
      </trkpt>
      <trkpt lat="48.09428" lon="9.77883">
        <ele>534.4</ele>
      </trkpt>
      <trkpt lat="48.09436" lon="9.77903">
        <ele>534.2</ele>
      </trkpt>
      <trkpt lat="48.09445" lon="9.77945">
        <ele>534</ele>
      </trkpt>
      <trkpt lat="48.09455" lon="9.77983">
        <ele>534.7</ele>
      </trkpt>
      <trkpt lat="48.09475" lon="9.78038">
        <ele>536.2</ele>
      </trkpt>
      <trkpt lat="48.09485" lon="9.78061">
        <ele>536.5</ele>
      </trkpt>
      <trkpt lat="48.09504" lon="9.78109">
        <ele>536.7</ele>
      </trkpt>
      <trkpt lat="48.09513" lon="9.78129">
        <ele>536.9</ele>
      </trkpt>
      <trkpt lat="48.09523" lon="9.78151">
        <ele>537.2</ele>
      </trkpt>
      <trkpt lat="48.0953" lon="9.7818">
        <ele>537.3</ele>
      </trkpt>
      <trkpt lat="48.09534" lon="9.78218">
        <ele>537.2</ele>
      </trkpt>
      <trkpt lat="48.09537" lon="9.78235">
        <ele>537.2</ele>
      </trkpt>
      <trkpt lat="48.09537" lon="9.78239">
        <ele>537.3</ele>
      </trkpt>
      <trkpt lat="48.09549" lon="9.78308">
        <ele>537.5</ele>
      </trkpt>
      <trkpt lat="48.09551" lon="9.78315">
        <ele>537.5</ele>
      </trkpt>
      <trkpt lat="48.09562" lon="9.78336">
        <ele>537.4</ele>
      </trkpt>
      <trkpt lat="48.09572" lon="9.78389">
        <ele>536.6</ele>
      </trkpt>
      <trkpt lat="48.0955" lon="9.78407">
        <ele>536.1</ele>
      </trkpt>
      <trkpt lat="48.09551" lon="9.78412">
        <ele>536.1</ele>
      </trkpt>
      <trkpt lat="48.09554" lon="9.78422">
        <ele>536</ele>
      </trkpt>
      <trkpt lat="48.09558" lon="9.78426">
        <ele>535.9</ele>
      </trkpt>
      <trkpt lat="48.09562" lon="9.78428">
        <ele>535.9</ele>
      </trkpt>
      <trkpt lat="48.09561" lon="9.78444">
        <ele>535.8</ele>
      </trkpt>
      <trkpt lat="48.09566" lon="9.78464">
        <ele>535.8</ele>
      </trkpt>
      <trkpt lat="48.09579" lon="9.78492">
        <ele>535.9</ele>
      </trkpt>
      <trkpt lat="48.09589" lon="9.7851">
        <ele>536.2</ele>
      </trkpt>
      <trkpt lat="48.09595" lon="9.78515">
        <ele>536.4</ele>
      </trkpt>
      <trkpt lat="48.0962" lon="9.78534">
        <ele>537.2</ele>
      </trkpt>
      <trkpt lat="48.09628" lon="9.7854">
        <ele>537.4</ele>
      </trkpt>
      <trkpt lat="48.09631" lon="9.78543">
        <ele>537.5</ele>
      </trkpt>
      <trkpt lat="48.09646" lon="9.78554">
        <ele>537.7</ele>
      </trkpt>
      <trkpt lat="48.09656" lon="9.78564">
        <ele>537.6</ele>
      </trkpt>
      <trkpt lat="48.09653" lon="9.78569">
        <ele>537.3</ele>
      </trkpt>
      <trkpt lat="48.09659" lon="9.78576">
        <ele>537.2</ele>
      </trkpt>
      <trkpt lat="48.09673" lon="9.78594">
        <ele>537.2</ele>
      </trkpt>
      <trkpt lat="48.09682" lon="9.78608">
        <ele>537.3</ele>
      </trkpt>
      <trkpt lat="48.09687" lon="9.78616">
        <ele>537.2</ele>
      </trkpt>
      <trkpt lat="48.09705" lon="9.78654">
        <ele>535.8</ele>
      </trkpt>
      <trkpt lat="48.0972" lon="9.78668">
        <ele>535.3</ele>
      </trkpt>
      <trkpt lat="48.09728" lon="9.78674">
        <ele>535.3</ele>
      </trkpt>
      <trkpt lat="48.09749" lon="9.787">
        <ele>534.8</ele>
      </trkpt>
      <trkpt lat="48.09757" lon="9.78721">
        <ele>534.2</ele>
      </trkpt>
      <trkpt lat="48.09768" lon="9.78741">
        <ele>533.7</ele>
      </trkpt>
      <trkpt lat="48.09777" lon="9.78755">
        <ele>533.8</ele>
      </trkpt>
      <trkpt lat="48.09798" lon="9.78788">
        <ele>535</ele>
      </trkpt>
      <trkpt lat="48.09813" lon="9.78813">
        <ele>535.6</ele>
      </trkpt>
      <trkpt lat="48.09828" lon="9.78834">
        <ele>536</ele>
      </trkpt>
      <trkpt lat="48.09852" lon="9.78852">
        <ele>536</ele>
      </trkpt>
      <trkpt lat="48.09873" lon="9.78887">
        <ele>535.9</ele>
      </trkpt>
      <trkpt lat="48.09891" lon="9.7896">
        <ele>534.6</ele>
      </trkpt>
      <trkpt lat="48.099" lon="9.78986">
        <ele>533.7</ele>
      </trkpt>
      <trkpt lat="48.09903" lon="9.78996">
        <ele>533.4</ele>
      </trkpt>
      <trkpt lat="48.09905" lon="9.79003">
        <ele>533.3</ele>
      </trkpt>
      <trkpt lat="48.09909" lon="9.79007">
        <ele>533.2</ele>
      </trkpt>
      <trkpt lat="48.09914" lon="9.79018">
        <ele>533.1</ele>
      </trkpt>
      <trkpt lat="48.09926" lon="9.79069">
        <ele>533</ele>
      </trkpt>
      <trkpt lat="48.09948" lon="9.79057">
        <ele>533</ele>
      </trkpt>
      <trkpt lat="48.09968" lon="9.79128">
        <ele>533.7</ele>
      </trkpt>
      <trkpt lat="48.09974" lon="9.79147">
        <ele>534</ele>
      </trkpt>
      <trkpt lat="48.09988" lon="9.79189">
        <ele>534.4</ele>
      </trkpt>
      <trkpt lat="48.0999" lon="9.79188">
        <ele>534.3</ele>
      </trkpt>
      <trkpt lat="48.09999" lon="9.7921">
        <ele>534.5</ele>
      </trkpt>
      <trkpt lat="48.10016" lon="9.79248">
        <ele>534.4</ele>
      </trkpt>
      <trkpt lat="48.10018" lon="9.79256">
        <ele>534.3</ele>
      </trkpt>
      <trkpt lat="48.10015" lon="9.79261">
        <ele>534.4</ele>
      </trkpt>
      <trkpt lat="48.10025" lon="9.79298">
        <ele>533.7</ele>
      </trkpt>
      <trkpt lat="48.1004" lon="9.7935">
        <ele>532.7</ele>
      </trkpt>
      <trkpt lat="48.10042" lon="9.79363">
        <ele>532.5</ele>
      </trkpt>
      <trkpt lat="48.10043" lon="9.79368">
        <ele>532.3</ele>
      </trkpt>
      <trkpt lat="48.10029" lon="9.79379">
        <ele>532.4</ele>
      </trkpt>
      <trkpt lat="48.10044" lon="9.79418">
        <ele>531.5</ele>
      </trkpt>
      <trkpt lat="48.10055" lon="9.79434">
        <ele>531.5</ele>
      </trkpt>
      <trkpt lat="48.10065" lon="9.79467">
        <ele>531.8</ele>
      </trkpt>
      <trkpt lat="48.10072" lon="9.79462">
        <ele>531.7</ele>
      </trkpt>
      <trkpt lat="48.10074" lon="9.7947">
        <ele>531.7</ele>
      </trkpt>
      <trkpt lat="48.10092" lon="9.79529">
        <ele>532.6</ele>
      </trkpt>
      <trkpt lat="48.10098" lon="9.79543">
        <ele>532.9</ele>
      </trkpt>
      <trkpt lat="48.10103" lon="9.79553">
        <ele>533</ele>
      </trkpt>
      <trkpt lat="48.10109" lon="9.79561">
        <ele>533.2</ele>
      </trkpt>
      <trkpt lat="48.10109" lon="9.79568">
        <ele>533.3</ele>
      </trkpt>
      <trkpt lat="48.10116" lon="9.79594">
        <ele>533.8</ele>
      </trkpt>
      <trkpt lat="48.10119" lon="9.79602">
        <ele>534</ele>
      </trkpt>
      <trkpt lat="48.10124" lon="9.79605">
        <ele>534</ele>
      </trkpt>
      <trkpt lat="48.1013" lon="9.79607">
        <ele>534</ele>
      </trkpt>
      <trkpt lat="48.1013" lon="9.79618">
        <ele>534.3</ele>
      </trkpt>
      <trkpt lat="48.1013" lon="9.79628">
        <ele>534.6</ele>
      </trkpt>
      <trkpt lat="48.10138" lon="9.79642">
        <ele>535</ele>
      </trkpt>
      <trkpt lat="48.10139" lon="9.79648">
        <ele>535.1</ele>
      </trkpt>
      <trkpt lat="48.10139" lon="9.79656">
        <ele>535.4</ele>
      </trkpt>
      <trkpt lat="48.10154" lon="9.79655">
        <ele>535.5</ele>
      </trkpt>
      <trkpt lat="48.10161" lon="9.79657">
        <ele>535.6</ele>
      </trkpt>
      <trkpt lat="48.10167" lon="9.79659">
        <ele>535.7</ele>
      </trkpt>
      <trkpt lat="48.10172" lon="9.79661">
        <ele>535.8</ele>
      </trkpt>
      <trkpt lat="48.10176" lon="9.79664">
        <ele>535.9</ele>
      </trkpt>
      <trkpt lat="48.10185" lon="9.79677">
        <ele>536.8</ele>
      </trkpt>
      <trkpt lat="48.1019" lon="9.79685">
        <ele>537.4</ele>
      </trkpt>
      <trkpt lat="48.10197" lon="9.79699">
        <ele>538.5</ele>
      </trkpt>
      <trkpt lat="48.102" lon="9.79715">
        <ele>539.6</ele>
      </trkpt>
      <trkpt lat="48.10202" lon="9.79744">
        <ele>541.7</ele>
      </trkpt>
      <trkpt lat="48.102" lon="9.79761">
        <ele>542.8</ele>
      </trkpt>
      <trkpt lat="48.10194" lon="9.79777">
        <ele>543.9</ele>
      </trkpt>
      <trkpt lat="48.10198" lon="9.79782">
        <ele>544</ele>
      </trkpt>
      <trkpt lat="48.10212" lon="9.79794">
        <ele>544.3</ele>
      </trkpt>
      <trkpt lat="48.10223" lon="9.79808">
        <ele>544.6</ele>
      </trkpt>
      <trkpt lat="48.10229" lon="9.79817">
        <ele>544.9</ele>
      </trkpt>
      <trkpt lat="48.1024" lon="9.79834">
        <ele>545.5</ele>
      </trkpt>
      <trkpt lat="48.10253" lon="9.79855">
        <ele>547.8</ele>
      </trkpt>
      <trkpt lat="48.10264" lon="9.79886">
        <ele>551.6</ele>
      </trkpt>
      <trkpt lat="48.10272" lon="9.79898">
        <ele>552.9</ele>
      </trkpt>
      <trkpt lat="48.10284" lon="9.79916">
        <ele>555.1</ele>
      </trkpt>
      <trkpt lat="48.10297" lon="9.79953">
        <ele>562.4</ele>
      </trkpt>
      <trkpt lat="48.10314" lon="9.7998">
        <ele>567.8</ele>
      </trkpt>
      <trkpt lat="48.10316" lon="9.79987">
        <ele>569.3</ele>
      </trkpt>
      <trkpt lat="48.10316" lon="9.79996">
        <ele>571.2</ele>
      </trkpt>
      <trkpt lat="48.10317" lon="9.8001">
        <ele>572.7</ele>
      </trkpt>
      <trkpt lat="48.10337" lon="9.80031">
        <ele>574</ele>
      </trkpt>
      <trkpt lat="48.10337" lon="9.80041">
        <ele>574.6</ele>
      </trkpt>
      <trkpt lat="48.10351" lon="9.80051">
        <ele>574.4</ele>
      </trkpt>
      <trkpt lat="48.10361" lon="9.80062">
        <ele>574.5</ele>
      </trkpt>
      <trkpt lat="48.10369" lon="9.80075">
        <ele>575.1</ele>
      </trkpt>
      <trkpt lat="48.1038" lon="9.80093">
        <ele>575.7</ele>
      </trkpt>
      <trkpt lat="48.10403" lon="9.80135">
        <ele>577.2</ele>
      </trkpt>
      <trkpt lat="48.10415" lon="9.80157">
        <ele>578.4</ele>
      </trkpt>
      <trkpt lat="48.10437" lon="9.80204">
        <ele>582.2</ele>
      </trkpt>
      <trkpt lat="48.10475" lon="9.80279">
        <ele>586.8</ele>
      </trkpt>
      <trkpt lat="48.10484" lon="9.80289">
        <ele>586.8</ele>
      </trkpt>
      <trkpt lat="48.10491" lon="9.80291">
        <ele>586.7</ele>
      </trkpt>
      <trkpt lat="48.10497" lon="9.803">
        <ele>586.7</ele>
      </trkpt>
      <trkpt lat="48.10515" lon="9.80336">
        <ele>588</ele>
      </trkpt>
      <trkpt lat="48.10534" lon="9.80365">
        <ele>590.3</ele>
      </trkpt>
      <trkpt lat="48.1054" lon="9.80357">
        <ele>590.3</ele>
      </trkpt>
      <trkpt lat="48.10621" lon="9.80409">
        <ele>592</ele>
      </trkpt>
      <trkpt lat="48.10666" lon="9.80435">
        <ele>590.4</ele>
      </trkpt>
      <trkpt lat="48.1068" lon="9.80442">
        <ele>589.3</ele>
      </trkpt>
      <trkpt lat="48.10714" lon="9.8046">
        <ele>586.6</ele>
      </trkpt>
      <trkpt lat="48.10724" lon="9.80467">
        <ele>585.8</ele>
      </trkpt>
      <trkpt lat="48.10723" lon="9.8048">
        <ele>585.4</ele>
      </trkpt>
      <trkpt lat="48.10713" lon="9.80536">
        <ele>584.8</ele>
      </trkpt>
      <trkpt lat="48.10711" lon="9.80552">
        <ele>584.7</ele>
      </trkpt>
      <trkpt lat="48.10709" lon="9.80573">
        <ele>584.6</ele>
      </trkpt>
      <trkpt lat="48.10707" lon="9.80578">
        <ele>584.6</ele>
      </trkpt>
      <trkpt lat="48.10692" lon="9.80695">
        <ele>585.1</ele>
      </trkpt>
      <trkpt lat="48.1069" lon="9.80706">
        <ele>585.1</ele>
      </trkpt>
      <trkpt lat="48.10689" lon="9.8072">
        <ele>584.9</ele>
      </trkpt>
      <trkpt lat="48.10677" lon="9.80823">
        <ele>581.5</ele>
      </trkpt>
      <trkpt lat="48.10665" lon="9.80921">
        <ele>581.2</ele>
      </trkpt>
      <trkpt lat="48.10641" lon="9.81095">
        <ele>590.6</ele>
      </trkpt>
      <trkpt lat="48.10713" lon="9.81088">
        <ele>586.6</ele>
      </trkpt>
      <trkpt lat="48.10732" lon="9.81461">
        <ele>582.7</ele>
      </trkpt>
      <trkpt lat="48.10734" lon="9.81517">
        <ele>583.3</ele>
      </trkpt>
      <trkpt lat="48.10734" lon="9.81539">
        <ele>584</ele>
      </trkpt>
      <trkpt lat="48.10733" lon="9.81541">
        <ele>584.1</ele>
      </trkpt>
      <trkpt lat="48.10731" lon="9.81562">
        <ele>584.7</ele>
      </trkpt>
      <trkpt lat="48.10718" lon="9.81625">
        <ele>586.4</ele>
      </trkpt>
      <trkpt lat="48.10712" lon="9.81652">
        <ele>587.2</ele>
      </trkpt>
      <trkpt lat="48.10704" lon="9.81679">
        <ele>587.4</ele>
      </trkpt>
      <trkpt lat="48.10697" lon="9.81699">
        <ele>587.3</ele>
      </trkpt>
      <trkpt lat="48.10685" lon="9.81732">
        <ele>587.3</ele>
      </trkpt>
      <trkpt lat="48.10669" lon="9.81777">
        <ele>588</ele>
      </trkpt>
      <trkpt lat="48.10666" lon="9.81789">
        <ele>588.4</ele>
      </trkpt>
      <trkpt lat="48.10666" lon="9.81799">
        <ele>588.8</ele>
      </trkpt>
      <trkpt lat="48.10669" lon="9.81848">
        <ele>589.9</ele>
      </trkpt>
      <trkpt lat="48.1067" lon="9.81871">
        <ele>589.6</ele>
      </trkpt>
      <trkpt lat="48.10681" lon="9.81894">
        <ele>589.6</ele>
      </trkpt>
      <trkpt lat="48.10694" lon="9.81914">
        <ele>589.7</ele>
      </trkpt>
      <trkpt lat="48.10707" lon="9.81933">
        <ele>589.8</ele>
      </trkpt>
      <trkpt lat="48.10739" lon="9.81971">
        <ele>590.6</ele>
      </trkpt>
      <trkpt lat="48.10757" lon="9.81987">
        <ele>591.5</ele>
      </trkpt>
      <trkpt lat="48.10816" lon="9.82031">
        <ele>596.7</ele>
      </trkpt>
      <trkpt lat="48.10822" lon="9.82033">
        <ele>597.1</ele>
      </trkpt>
      <trkpt lat="48.10826" lon="9.82033">
        <ele>597.4</ele>
      </trkpt>
      <trkpt lat="48.1083" lon="9.82032">
        <ele>597.6</ele>
      </trkpt>
      <trkpt lat="48.10835" lon="9.82028">
        <ele>597.7</ele>
      </trkpt>
      <trkpt lat="48.10839" lon="9.82022">
        <ele>597.7</ele>
      </trkpt>
      <trkpt lat="48.10843" lon="9.82024">
        <ele>597.9</ele>
      </trkpt>
      <trkpt lat="48.10848" lon="9.82028">
        <ele>598.1</ele>
      </trkpt>
      <trkpt lat="48.10851" lon="9.8203">
        <ele>598.3</ele>
      </trkpt>
      <trkpt lat="48.10853" lon="9.82035">
        <ele>598.4</ele>
      </trkpt>
      <trkpt lat="48.10853" lon="9.82041">
        <ele>598.6</ele>
      </trkpt>
      <trkpt lat="48.10855" lon="9.82049">
        <ele>598.8</ele>
      </trkpt>
      <trkpt lat="48.10857" lon="9.82054">
        <ele>599</ele>
      </trkpt>
      <trkpt lat="48.1086" lon="9.82057">
        <ele>599.1</ele>
      </trkpt>
      <trkpt lat="48.10857" lon="9.82068">
        <ele>599.2</ele>
      </trkpt>
      <trkpt lat="48.10854" lon="9.82078">
        <ele>599.4</ele>
      </trkpt>
      <trkpt lat="48.10872" lon="9.82088">
        <ele>600.2</ele>
      </trkpt>
      <trkpt lat="48.10881" lon="9.82092">
        <ele>600.6</ele>
      </trkpt>
      <trkpt lat="48.1089" lon="9.82095">
        <ele>600.9</ele>
      </trkpt>
      <trkpt lat="48.10926" lon="9.82117">
        <ele>602.5</ele>
      </trkpt>
      <trkpt lat="48.10918" lon="9.82153">
        <ele>604.3</ele>
      </trkpt>
      <trkpt lat="48.10909" lon="9.8219">
        <ele>604.6</ele>
      </trkpt>
      <trkpt lat="48.10909" lon="9.82195">
        <ele>604.5</ele>
      </trkpt>
      <trkpt lat="48.10915" lon="9.82228">
        <ele>604.3</ele>
      </trkpt>
      <trkpt lat="48.10926" lon="9.82285">
        <ele>604.4</ele>
      </trkpt>
      <trkpt lat="48.10934" lon="9.82326">
        <ele>604.7</ele>
      </trkpt>
      <trkpt lat="48.10958" lon="9.82349">
        <ele>604.9</ele>
      </trkpt>
      <trkpt lat="48.10935" lon="9.82403">
        <ele>606.4</ele>
      </trkpt>
      <trkpt lat="48.11031" lon="9.82485">
        <ele>605.2</ele>
      </trkpt>
      <trkpt lat="48.11106" lon="9.82553">
        <ele>605.2</ele>
      </trkpt>
      <trkpt lat="48.1113" lon="9.82564">
        <ele>604.7</ele>
      </trkpt>
      <trkpt lat="48.11153" lon="9.82578">
        <ele>604.4</ele>
      </trkpt>
      <trkpt lat="48.11159" lon="9.82579">
        <ele>604.2</ele>
      </trkpt>
      <trkpt lat="48.11163" lon="9.8258">
        <ele>604.1</ele>
      </trkpt>
      <trkpt lat="48.11167" lon="9.82582">
        <ele>604</ele>
      </trkpt>
      <trkpt lat="48.11181" lon="9.82591">
        <ele>604.4</ele>
      </trkpt>
      <trkpt lat="48.11189" lon="9.82596">
        <ele>604.7</ele>
      </trkpt>
      <trkpt lat="48.11197" lon="9.82601">
        <ele>605</ele>
      </trkpt>
      <trkpt lat="48.11194" lon="9.82614">
        <ele>605.4</ele>
      </trkpt>
      <trkpt lat="48.11181" lon="9.82675">
        <ele>607.3</ele>
      </trkpt>
      <trkpt lat="48.11173" lon="9.82706">
        <ele>607.6</ele>
      </trkpt>
      <trkpt lat="48.11172" lon="9.82714">
        <ele>607.7</ele>
      </trkpt>
      <trkpt lat="48.11173" lon="9.82721">
        <ele>607.8</ele>
      </trkpt>
      <trkpt lat="48.11176" lon="9.82728">
        <ele>607.9</ele>
      </trkpt>
      <trkpt lat="48.1122" lon="9.82797">
        <ele>610.5</ele>
      </trkpt>
      <trkpt lat="48.11248" lon="9.82839">
        <ele>613.6</ele>
      </trkpt>
      <trkpt lat="48.11255" lon="9.82848">
        <ele>614.8</ele>
      </trkpt>
      <trkpt lat="48.11265" lon="9.8286">
        <ele>616.3</ele>
      </trkpt>
      <trkpt lat="48.11282" lon="9.82872">
        <ele>617.7</ele>
      </trkpt>
      <trkpt lat="48.11322" lon="9.82898">
        <ele>619.8</ele>
      </trkpt>
      <trkpt lat="48.11395" lon="9.83025">
        <ele>610.6</ele>
      </trkpt>
      <trkpt lat="48.11403" lon="9.83056">
        <ele>608.9</ele>
      </trkpt>
      <trkpt lat="48.11426" lon="9.83121">
        <ele>606.4</ele>
      </trkpt>
      <trkpt lat="48.11435" lon="9.83131">
        <ele>606.1</ele>
      </trkpt>
      <trkpt lat="48.11453" lon="9.83129">
        <ele>604.9</ele>
      </trkpt>
      <trkpt lat="48.11503" lon="9.83119">
        <ele>601.8</ele>
      </trkpt>
      <trkpt lat="48.11537" lon="9.83106">
        <ele>600.3</ele>
      </trkpt>
      <trkpt lat="48.11615" lon="9.83055">
        <ele>596.9</ele>
      </trkpt>
      <trkpt lat="48.11637" lon="9.83123">
        <ele>596.6</ele>
      </trkpt>
      <trkpt lat="48.1164" lon="9.83134">
        <ele>596.6</ele>
      </trkpt>
      <trkpt lat="48.11628" lon="9.8314">
        <ele>597.3</ele>
      </trkpt>
      <trkpt lat="48.11617" lon="9.83147">
        <ele>598.1</ele>
      </trkpt>
      <trkpt lat="48.1169" lon="9.83389">
        <ele>593.1</ele>
      </trkpt>
      <trkpt lat="48.11698" lon="9.83447">
        <ele>591.3</ele>
      </trkpt>
      <trkpt lat="48.11703" lon="9.83509">
        <ele>591.5</ele>
      </trkpt>
      <trkpt lat="48.11703" lon="9.83604">
        <ele>601.4</ele>
      </trkpt>
      <trkpt lat="48.11694" lon="9.83626">
        <ele>602.7</ele>
      </trkpt>
      <trkpt lat="48.11699" lon="9.83727">
        <ele>606.4</ele>
      </trkpt>
      <trkpt lat="48.11717" lon="9.83767">
        <ele>608.7</ele>
      </trkpt>
      <trkpt lat="48.11731" lon="9.83838">
        <ele>611.3</ele>
      </trkpt>
      <trkpt lat="48.11716" lon="9.83854">
        <ele>611.9</ele>
      </trkpt>
      <trkpt lat="48.1171" lon="9.83861">
        <ele>612.3</ele>
      </trkpt>
      <trkpt lat="48.11553" lon="9.84071">
        <ele>618.3</ele>
      </trkpt>
      <trkpt lat="48.11541" lon="9.8411">
        <ele>618.1</ele>
      </trkpt>
      <trkpt lat="48.11542" lon="9.84155">
        <ele>618.5</ele>
      </trkpt>
      <trkpt lat="48.11555" lon="9.84189">
        <ele>619.2</ele>
      </trkpt>
      <trkpt lat="48.11624" lon="9.84242">
        <ele>624.5</ele>
      </trkpt>
      <trkpt lat="48.11655" lon="9.84279">
        <ele>625.4</ele>
      </trkpt>
      <trkpt lat="48.11681" lon="9.84337">
        <ele>622.6</ele>
      </trkpt>
      <trkpt lat="48.11649" lon="9.8437">
        <ele>619.6</ele>
      </trkpt>
      <trkpt lat="48.11612" lon="9.84399">
        <ele>616.2</ele>
      </trkpt>
      <trkpt lat="48.11572" lon="9.84432">
        <ele>610.8</ele>
      </trkpt>
      <trkpt lat="48.11557" lon="9.84445">
        <ele>608.3</ele>
      </trkpt>
      <trkpt lat="48.11548" lon="9.84453">
        <ele>606.9</ele>
      </trkpt>
      <trkpt lat="48.11544" lon="9.84452">
        <ele>606.8</ele>
      </trkpt>
      <trkpt lat="48.11539" lon="9.84449">
        <ele>606.8</ele>
      </trkpt>
      <trkpt lat="48.11529" lon="9.84431">
        <ele>607.6</ele>
      </trkpt>
      <trkpt lat="48.11526" lon="9.84428">
        <ele>607.6</ele>
      </trkpt>
      <trkpt lat="48.11523" lon="9.8443">
        <ele>607.2</ele>
      </trkpt>
      <trkpt lat="48.1151" lon="9.84442">
        <ele>605.4</ele>
      </trkpt>
      <trkpt lat="48.11501" lon="9.84448">
        <ele>604.6</ele>
      </trkpt>
      <trkpt lat="48.11487" lon="9.84454">
        <ele>604.1</ele>
      </trkpt>
      <trkpt lat="48.1149" lon="9.84457">
        <ele>604</ele>
      </trkpt>
      <trkpt lat="48.11495" lon="9.8446">
        <ele>603.9</ele>
      </trkpt>
      <trkpt lat="48.11501" lon="9.84464">
        <ele>603.8</ele>
      </trkpt>
      <trkpt lat="48.11513" lon="9.84479">
        <ele>603.3</ele>
      </trkpt>
      <trkpt lat="48.11535" lon="9.8451">
        <ele>601.9</ele>
      </trkpt>
      <trkpt lat="48.11545" lon="9.8453">
        <ele>601.6</ele>
      </trkpt>
      <trkpt lat="48.11554" lon="9.84555">
        <ele>601.3</ele>
      </trkpt>
      <trkpt lat="48.11565" lon="9.84592">
        <ele>601.1</ele>
      </trkpt>
      <trkpt lat="48.11581" lon="9.84653">
        <ele>601.8</ele>
      </trkpt>
      <trkpt lat="48.11586" lon="9.84681">
        <ele>602.1</ele>
      </trkpt>
      <trkpt lat="48.11582" lon="9.84737">
        <ele>602.8</ele>
      </trkpt>
      <trkpt lat="48.11576" lon="9.84764">
        <ele>602.8</ele>
      </trkpt>
      <trkpt lat="48.1157" lon="9.84788">
        <ele>602.6</ele>
      </trkpt>
      <trkpt lat="48.11562" lon="9.84808">
        <ele>602.6</ele>
      </trkpt>
      <trkpt lat="48.1155" lon="9.84835">
        <ele>602.7</ele>
      </trkpt>
      <trkpt lat="48.11537" lon="9.84857">
        <ele>602.5</ele>
      </trkpt>
      <trkpt lat="48.11551" lon="9.84872">
        <ele>601.4</ele>
      </trkpt>
      <trkpt lat="48.11583" lon="9.84916">
        <ele>597</ele>
      </trkpt>
      <trkpt lat="48.11599" lon="9.84939">
        <ele>596.2</ele>
      </trkpt>
      <trkpt lat="48.1161" lon="9.84957">
        <ele>595.6</ele>
      </trkpt>
      <trkpt lat="48.11616" lon="9.84973">
        <ele>595</ele>
      </trkpt>
      <trkpt lat="48.11623" lon="9.8499">
        <ele>594.4</ele>
      </trkpt>
      <trkpt lat="48.1163" lon="9.8502">
        <ele>593.4</ele>
      </trkpt>
      <trkpt lat="48.11635" lon="9.85055">
        <ele>592.6</ele>
      </trkpt>
      <trkpt lat="48.11642" lon="9.85116">
        <ele>592.9</ele>
      </trkpt>
      <trkpt lat="48.11649" lon="9.85184">
        <ele>594.2</ele>
      </trkpt>
      <trkpt lat="48.11659" lon="9.8523">
        <ele>593.4</ele>
      </trkpt>
      <trkpt lat="48.11662" lon="9.8525">
        <ele>592.9</ele>
      </trkpt>
      <trkpt lat="48.11663" lon="9.85263">
        <ele>592.7</ele>
      </trkpt>
      <trkpt lat="48.11664" lon="9.85284">
        <ele>592.2</ele>
      </trkpt>
      <trkpt lat="48.11662" lon="9.85376">
        <ele>590.6</ele>
      </trkpt>
      <trkpt lat="48.11664" lon="9.85385">
        <ele>590.4</ele>
      </trkpt>
      <trkpt lat="48.11669" lon="9.85387">
        <ele>590.4</ele>
      </trkpt>
      <trkpt lat="48.11674" lon="9.85387">
        <ele>590.4</ele>
      </trkpt>
      <trkpt lat="48.11714" lon="9.85384">
        <ele>590.7</ele>
      </trkpt>
      <trkpt lat="48.11727" lon="9.85384">
        <ele>590.8</ele>
      </trkpt>
      <trkpt lat="48.11739" lon="9.85388">
        <ele>590.9</ele>
      </trkpt>
      <trkpt lat="48.11766" lon="9.85399">
        <ele>591.3</ele>
      </trkpt>
      <trkpt lat="48.11815" lon="9.8542">
        <ele>592.5</ele>
      </trkpt>
      <trkpt lat="48.11846" lon="9.85434">
        <ele>593</ele>
      </trkpt>
      <trkpt lat="48.11859" lon="9.85445">
        <ele>592.9</ele>
      </trkpt>
      <trkpt lat="48.11864" lon="9.85456">
        <ele>592.8</ele>
      </trkpt>
      <trkpt lat="48.11864" lon="9.85467">
        <ele>592.8</ele>
      </trkpt>
      <trkpt lat="48.11864" lon="9.85544">
        <ele>591.4</ele>
      </trkpt>
      <trkpt lat="48.11865" lon="9.8562">
        <ele>589.4</ele>
      </trkpt>
      <trkpt lat="48.11865" lon="9.8569">
        <ele>587.5</ele>
      </trkpt>
      <trkpt lat="48.11871" lon="9.85727">
        <ele>586.6</ele>
      </trkpt>
      <trkpt lat="48.11882" lon="9.85773">
        <ele>585.4</ele>
      </trkpt>
      <trkpt lat="48.11906" lon="9.85851">
        <ele>584.2</ele>
      </trkpt>
      <trkpt lat="48.1192" lon="9.85888">
        <ele>584.4</ele>
      </trkpt>
      <trkpt lat="48.11934" lon="9.85925">
        <ele>584.2</ele>
      </trkpt>
      <trkpt lat="48.11959" lon="9.85985">
        <ele>583</ele>
      </trkpt>
      <trkpt lat="48.11975" lon="9.86018">
        <ele>581.6</ele>
      </trkpt>
      <trkpt lat="48.11988" lon="9.86041">
        <ele>580.4</ele>
      </trkpt>
      <trkpt lat="48.12001" lon="9.86062">
        <ele>579.3</ele>
      </trkpt>
      <trkpt lat="48.12012" lon="9.86082">
        <ele>578.1</ele>
      </trkpt>
      <trkpt lat="48.12025" lon="9.86099">
        <ele>577.3</ele>
      </trkpt>
      <trkpt lat="48.12054" lon="9.8613">
        <ele>575.6</ele>
      </trkpt>
      <trkpt lat="48.12058" lon="9.86131">
        <ele>575.5</ele>
      </trkpt>
      <trkpt lat="48.12062" lon="9.86133">
        <ele>575.3</ele>
      </trkpt>
      <trkpt lat="48.1206" lon="9.86152">
        <ele>574.3</ele>
      </trkpt>
      <trkpt lat="48.12055" lon="9.86192">
        <ele>572.1</ele>
      </trkpt>
      <trkpt lat="48.12047" lon="9.86259">
        <ele>568.5</ele>
      </trkpt>
      <trkpt lat="48.12045" lon="9.86289">
        <ele>567.3</ele>
      </trkpt>
      <trkpt lat="48.12045" lon="9.86306">
        <ele>566.6</ele>
      </trkpt>
      <trkpt lat="48.12045" lon="9.86318">
        <ele>566.1</ele>
      </trkpt>
      <trkpt lat="48.12045" lon="9.86337">
        <ele>565.4</ele>
      </trkpt>
      <trkpt lat="48.12047" lon="9.8637">
        <ele>564.9</ele>
      </trkpt>
      <trkpt lat="48.12051" lon="9.86404">
        <ele>564.4</ele>
      </trkpt>
      <trkpt lat="48.12052" lon="9.86408">
        <ele>564.4</ele>
      </trkpt>
      <trkpt lat="48.12052" lon="9.86411">
        <ele>564.3</ele>
      </trkpt>
      <trkpt lat="48.12059" lon="9.86455">
        <ele>563.6</ele>
      </trkpt>
      <trkpt lat="48.12063" lon="9.86473">
        <ele>563.2</ele>
      </trkpt>
      <trkpt lat="48.12066" lon="9.8648">
        <ele>562.9</ele>
      </trkpt>
      <trkpt lat="48.12069" lon="9.86488">
        <ele>562.7</ele>
      </trkpt>
      <trkpt lat="48.12103" lon="9.86522">
        <ele>561.8</ele>
      </trkpt>
      <trkpt lat="48.12106" lon="9.86517">
        <ele>561.7</ele>
      </trkpt>
      <trkpt lat="48.12112" lon="9.86506">
        <ele>561.4</ele>
      </trkpt>
      <trkpt lat="48.12118" lon="9.86494">
        <ele>561.5</ele>
      </trkpt>
      <trkpt lat="48.12124" lon="9.86481">
        <ele>562.1</ele>
      </trkpt>
      <trkpt lat="48.1213" lon="9.86472">
        <ele>562.6</ele>
      </trkpt>
      <trkpt lat="48.12133" lon="9.8647">
        <ele>562.8</ele>
      </trkpt>
      <trkpt lat="48.12137" lon="9.86467">
        <ele>562.9</ele>
      </trkpt>
      <trkpt lat="48.12142" lon="9.86464">
        <ele>563.1</ele>
      </trkpt>
      <trkpt lat="48.1215" lon="9.86462">
        <ele>563.2</ele>
      </trkpt>
      <trkpt lat="48.12158" lon="9.86462">
        <ele>563.2</ele>
      </trkpt>
      <trkpt lat="48.12166" lon="9.86463">
        <ele>563.1</ele>
      </trkpt>
      <trkpt lat="48.12175" lon="9.86467">
        <ele>562.8</ele>
      </trkpt>
      <trkpt lat="48.12177" lon="9.86462">
        <ele>563.1</ele>
      </trkpt>
      <trkpt lat="48.1218" lon="9.86453">
        <ele>563.8</ele>
      </trkpt>
      <trkpt lat="48.12185" lon="9.86439">
        <ele>564.8</ele>
      </trkpt>
      <trkpt lat="48.12188" lon="9.86427">
        <ele>565.7</ele>
      </trkpt>
      <trkpt lat="48.1219" lon="9.86386">
        <ele>566.7</ele>
      </trkpt>
      <trkpt lat="48.12194" lon="9.8636">
        <ele>567</ele>
      </trkpt>
      <trkpt lat="48.12196" lon="9.86352">
        <ele>567.1</ele>
      </trkpt>
      <trkpt lat="48.122" lon="9.86341">
        <ele>567.3</ele>
      </trkpt>
      <trkpt lat="48.12206" lon="9.86329">
        <ele>567.6</ele>
      </trkpt>
      <trkpt lat="48.1221" lon="9.86319">
        <ele>567.8</ele>
      </trkpt>
      <trkpt lat="48.12213" lon="9.86309">
        <ele>568</ele>
      </trkpt>
      <trkpt lat="48.12214" lon="9.863">
        <ele>568.2</ele>
      </trkpt>
      <trkpt lat="48.12214" lon="9.86288">
        <ele>568.4</ele>
      </trkpt>
      <trkpt lat="48.1221" lon="9.8626">
        <ele>568.9</ele>
      </trkpt>
      <trkpt lat="48.12208" lon="9.86244">
        <ele>569.2</ele>
      </trkpt>
      <trkpt lat="48.12207" lon="9.8623">
        <ele>569.6</ele>
      </trkpt>
      <trkpt lat="48.12207" lon="9.86221">
        <ele>569.8</ele>
      </trkpt>
      <trkpt lat="48.12209" lon="9.86213">
        <ele>570.1</ele>
      </trkpt>
      <trkpt lat="48.12214" lon="9.86198">
        <ele>570.6</ele>
      </trkpt>
      <trkpt lat="48.12234" lon="9.86149">
        <ele>573.1</ele>
      </trkpt>
      <trkpt lat="48.12255" lon="9.8611">
        <ele>575.9</ele>
      </trkpt>
      <trkpt lat="48.12258" lon="9.86103">
        <ele>576.3</ele>
      </trkpt>
      <trkpt lat="48.12283" lon="9.8603">
        <ele>581.3</ele>
      </trkpt>
      <trkpt lat="48.12287" lon="9.86019">
        <ele>582</ele>
      </trkpt>
      <trkpt lat="48.12291" lon="9.86013">
        <ele>582.4</ele>
      </trkpt>
      <trkpt lat="48.12296" lon="9.86008">
        <ele>582.7</ele>
      </trkpt>
      <trkpt lat="48.12312" lon="9.85995">
        <ele>583.1</ele>
      </trkpt>
      <trkpt lat="48.12324" lon="9.85985">
        <ele>583.2</ele>
      </trkpt>
      <trkpt lat="48.12341" lon="9.85968">
        <ele>583.4</ele>
      </trkpt>
      <trkpt lat="48.12356" lon="9.85951">
        <ele>583.5</ele>
      </trkpt>
      <trkpt lat="48.12387" lon="9.85919">
        <ele>584.2</ele>
      </trkpt>
      <trkpt lat="48.12465" lon="9.85878">
        <ele>583.4</ele>
      </trkpt>
      <trkpt lat="48.1251" lon="9.85846">
        <ele>584.8</ele>
      </trkpt>
      <trkpt lat="48.1253" lon="9.85827">
        <ele>587.3</ele>
      </trkpt>
      <trkpt lat="48.12578" lon="9.85798">
        <ele>590</ele>
      </trkpt>
      <trkpt lat="48.12631" lon="9.85749">
        <ele>591.1</ele>
      </trkpt>
      <trkpt lat="48.12744" lon="9.85641">
        <ele>602.4</ele>
      </trkpt>
      <trkpt lat="48.12896" lon="9.8549">
        <ele>605</ele>
      </trkpt>
      <trkpt lat="48.12895" lon="9.85483">
        <ele>605.1</ele>
      </trkpt>
      <trkpt lat="48.12887" lon="9.85448">
        <ele>606.1</ele>
      </trkpt>
      <trkpt lat="48.12862" lon="9.85353">
        <ele>604.5</ele>
      </trkpt>
      <trkpt lat="48.12848" lon="9.85303">
        <ele>600.9</ele>
      </trkpt>
      <trkpt lat="48.12849" lon="9.85238">
        <ele>594.5</ele>
      </trkpt>
      <trkpt lat="48.12869" lon="9.85197">
        <ele>589.9</ele>
      </trkpt>
      <trkpt lat="48.12877" lon="9.85186">
        <ele>588.5</ele>
      </trkpt>
      <trkpt lat="48.1291" lon="9.85181">
        <ele>587.7</ele>
      </trkpt>
      <trkpt lat="48.13002" lon="9.8512">
        <ele>587.6</ele>
      </trkpt>
      <trkpt lat="48.13027" lon="9.85116">
        <ele>587.7</ele>
      </trkpt>
      <trkpt lat="48.13056" lon="9.85118">
        <ele>588.5</ele>
      </trkpt>
      <trkpt lat="48.13172" lon="9.85166">
        <ele>585.8</ele>
      </trkpt>
      <trkpt lat="48.13276" lon="9.85211">
        <ele>580.3</ele>
      </trkpt>
      <trkpt lat="48.13308" lon="9.85213">
        <ele>578.2</ele>
      </trkpt>
      <trkpt lat="48.13339" lon="9.85204">
        <ele>575.4</ele>
      </trkpt>
      <trkpt lat="48.13363" lon="9.85187">
        <ele>571.2</ele>
      </trkpt>
      <trkpt lat="48.13373" lon="9.85175">
        <ele>569.7</ele>
      </trkpt>
      <trkpt lat="48.13412" lon="9.85109">
        <ele>571.7</ele>
      </trkpt>
      <trkpt lat="48.13416" lon="9.85101">
        <ele>572.5</ele>
      </trkpt>
      <trkpt lat="48.13435" lon="9.85066">
        <ele>576.2</ele>
      </trkpt>
      <trkpt lat="48.13478" lon="9.85016">
        <ele>579.5</ele>
      </trkpt>
      <trkpt lat="48.135" lon="9.84993">
        <ele>580.3</ele>
      </trkpt>
      <trkpt lat="48.13732" lon="9.8514">
        <ele>575.6</ele>
      </trkpt>
      <trkpt lat="48.13795" lon="9.85166">
        <ele>573.9</ele>
      </trkpt>
      <trkpt lat="48.13823" lon="9.85174">
        <ele>572.8</ele>
      </trkpt>
      <trkpt lat="48.13855" lon="9.85181">
        <ele>570.9</ele>
      </trkpt>
      <trkpt lat="48.13895" lon="9.85185">
        <ele>568.4</ele>
      </trkpt>
      <trkpt lat="48.13938" lon="9.85187">
        <ele>566.3</ele>
      </trkpt>
      <trkpt lat="48.13956" lon="9.85185">
        <ele>565.8</ele>
      </trkpt>
      <trkpt lat="48.13971" lon="9.85181">
        <ele>565.5</ele>
      </trkpt>
      <trkpt lat="48.13986" lon="9.8517">
        <ele>565.4</ele>
      </trkpt>
      <trkpt lat="48.13997" lon="9.85159">
        <ele>566</ele>
      </trkpt>
      <trkpt lat="48.14021" lon="9.85128">
        <ele>568</ele>
      </trkpt>
      <trkpt lat="48.14089" lon="9.85035">
        <ele>570.1</ele>
      </trkpt>
      <trkpt lat="48.14131" lon="9.84978">
        <ele>567.9</ele>
      </trkpt>
      <trkpt lat="48.1415" lon="9.84947">
        <ele>564.9</ele>
      </trkpt>
      <trkpt lat="48.14163" lon="9.84947">
        <ele>562.6</ele>
      </trkpt>
      <trkpt lat="48.14196" lon="9.84942">
        <ele>561.7</ele>
      </trkpt>
      <trkpt lat="48.14229" lon="9.84937">
        <ele>561.3</ele>
      </trkpt>
      <trkpt lat="48.14257" lon="9.84937">
        <ele>560.9</ele>
      </trkpt>
      <trkpt lat="48.14309" lon="9.84944">
        <ele>559.8</ele>
      </trkpt>
      <trkpt lat="48.14322" lon="9.84943">
        <ele>559.6</ele>
      </trkpt>
      <trkpt lat="48.14333" lon="9.84939">
        <ele>559.5</ele>
      </trkpt>
      <trkpt lat="48.14344" lon="9.84932">
        <ele>559.4</ele>
      </trkpt>
      <trkpt lat="48.14357" lon="9.84923">
        <ele>559.3</ele>
      </trkpt>
      <trkpt lat="48.14369" lon="9.8491">
        <ele>558.9</ele>
      </trkpt>
      <trkpt lat="48.1438" lon="9.84904">
        <ele>558.5</ele>
      </trkpt>
      <trkpt lat="48.14391" lon="9.84901">
        <ele>558.2</ele>
      </trkpt>
      <trkpt lat="48.14404" lon="9.84902">
        <ele>557.9</ele>
      </trkpt>
      <trkpt lat="48.14474" lon="9.84913">
        <ele>556.5</ele>
      </trkpt>
      <trkpt lat="48.14513" lon="9.84915">
        <ele>556</ele>
      </trkpt>
      <trkpt lat="48.14547" lon="9.84919">
        <ele>556</ele>
      </trkpt>
      <trkpt lat="48.1456" lon="9.84922">
        <ele>556</ele>
      </trkpt>
      <trkpt lat="48.14572" lon="9.84928">
        <ele>555.9</ele>
      </trkpt>
      <trkpt lat="48.14683" lon="9.84984">
        <ele>555</ele>
      </trkpt>
      <trkpt lat="48.14699" lon="9.84995">
        <ele>555</ele>
      </trkpt>
      <trkpt lat="48.14767" lon="9.85038">
        <ele>553.8</ele>
      </trkpt>
      <trkpt lat="48.14793" lon="9.85058">
        <ele>552.9</ele>
      </trkpt>
      <trkpt lat="48.14833" lon="9.85099">
        <ele>551.4</ele>
      </trkpt>
      <trkpt lat="48.149" lon="9.85169">
        <ele>551.3</ele>
      </trkpt>
      <trkpt lat="48.14926" lon="9.85191">
        <ele>549.8</ele>
      </trkpt>
      <trkpt lat="48.15048" lon="9.85287">
        <ele>541.3</ele>
      </trkpt>
      <trkpt lat="48.15086" lon="9.85313">
        <ele>540.8</ele>
      </trkpt>
      <trkpt lat="48.15149" lon="9.8536">
        <ele>536.5</ele>
      </trkpt>
      <trkpt lat="48.15162" lon="9.85371">
        <ele>535.7</ele>
      </trkpt>
      <trkpt lat="48.15167" lon="9.85382">
        <ele>535.4</ele>
      </trkpt>
      <trkpt lat="48.15175" lon="9.85397">
        <ele>535.1</ele>
      </trkpt>
      <trkpt lat="48.15179" lon="9.85406">
        <ele>534.9</ele>
      </trkpt>
      <trkpt lat="48.15181" lon="9.85415">
        <ele>534.8</ele>
      </trkpt>
      <trkpt lat="48.15183" lon="9.85426">
        <ele>534.6</ele>
      </trkpt>
      <trkpt lat="48.15183" lon="9.8543">
        <ele>534.5</ele>
      </trkpt>
      <trkpt lat="48.15183" lon="9.85435">
        <ele>534.4</ele>
      </trkpt>
      <trkpt lat="48.15196" lon="9.8544">
        <ele>534.3</ele>
      </trkpt>
      <trkpt lat="48.15206" lon="9.85445">
        <ele>534.2</ele>
      </trkpt>
      <trkpt lat="48.15219" lon="9.85454">
        <ele>534</ele>
      </trkpt>
      <trkpt lat="48.15235" lon="9.85468">
        <ele>534</ele>
      </trkpt>
      <trkpt lat="48.15259" lon="9.85484">
        <ele>533.8</ele>
      </trkpt>
      <trkpt lat="48.1529" lon="9.85505">
        <ele>532.9</ele>
      </trkpt>
      <trkpt lat="48.15308" lon="9.85518">
        <ele>532.1</ele>
      </trkpt>
      <trkpt lat="48.15319" lon="9.85528">
        <ele>531.6</ele>
      </trkpt>
      <trkpt lat="48.15325" lon="9.85535">
        <ele>531.3</ele>
      </trkpt>
      <trkpt lat="48.15328" lon="9.85539">
        <ele>531.2</ele>
      </trkpt>
      <trkpt lat="48.1533" lon="9.85544">
        <ele>531</ele>
      </trkpt>
      <trkpt lat="48.15341" lon="9.85535">
        <ele>531.1</ele>
      </trkpt>
      <trkpt lat="48.15351" lon="9.85526">
        <ele>531.2</ele>
      </trkpt>
      <trkpt lat="48.15355" lon="9.85532">
        <ele>531</ele>
      </trkpt>
      <trkpt lat="48.1536" lon="9.85539">
        <ele>530.8</ele>
      </trkpt>
      <trkpt lat="48.1537" lon="9.85548">
        <ele>530.4</ele>
      </trkpt>
      <trkpt lat="48.15379" lon="9.85557">
        <ele>530.1</ele>
      </trkpt>
      <trkpt lat="48.154" lon="9.85586">
        <ele>529.2</ele>
      </trkpt>
      <trkpt lat="48.15412" lon="9.85605">
        <ele>528.6</ele>
      </trkpt>
      <trkpt lat="48.15426" lon="9.85628">
        <ele>528.1</ele>
      </trkpt>
      <trkpt lat="48.15434" lon="9.85639">
        <ele>527.9</ele>
      </trkpt>
      <trkpt lat="48.15445" lon="9.85651">
        <ele>527.7</ele>
      </trkpt>
      <trkpt lat="48.15453" lon="9.85656">
        <ele>527.7</ele>
      </trkpt>
      <trkpt lat="48.15461" lon="9.85658">
        <ele>527.7</ele>
      </trkpt>
      <trkpt lat="48.15482" lon="9.85665">
        <ele>527.8</ele>
      </trkpt>
      <trkpt lat="48.15499" lon="9.85671">
        <ele>527.9</ele>
      </trkpt>
      <trkpt lat="48.15518" lon="9.85679">
        <ele>528</ele>
      </trkpt>
      <trkpt lat="48.15539" lon="9.85687">
        <ele>527.9</ele>
      </trkpt>
      <trkpt lat="48.15565" lon="9.857">
        <ele>527.5</ele>
      </trkpt>
      <trkpt lat="48.15637" lon="9.85732">
        <ele>525.7</ele>
      </trkpt>
      <trkpt lat="48.15649" lon="9.85735">
        <ele>525.6</ele>
      </trkpt>
      <trkpt lat="48.15659" lon="9.85733">
        <ele>525.6</ele>
      </trkpt>
      <trkpt lat="48.1567" lon="9.8573">
        <ele>525.7</ele>
      </trkpt>
      <trkpt lat="48.15691" lon="9.85721">
        <ele>525.8</ele>
      </trkpt>
      <trkpt lat="48.1571" lon="9.85712">
        <ele>525.9</ele>
      </trkpt>
      <trkpt lat="48.15736" lon="9.85698">
        <ele>526</ele>
      </trkpt>
      <trkpt lat="48.15748" lon="9.8569">
        <ele>526.2</ele>
      </trkpt>
      <trkpt lat="48.15761" lon="9.85678">
        <ele>526.2</ele>
      </trkpt>
      <trkpt lat="48.15798" lon="9.85635">
        <ele>525.3</ele>
      </trkpt>
      <trkpt lat="48.158" lon="9.8563">
        <ele>525.2</ele>
      </trkpt>
      <trkpt lat="48.15802" lon="9.85626">
        <ele>525.1</ele>
      </trkpt>
      <trkpt lat="48.15804" lon="9.85621">
        <ele>525.1</ele>
      </trkpt>
      <trkpt lat="48.15815" lon="9.85591">
        <ele>524.6</ele>
      </trkpt>
      <trkpt lat="48.15829" lon="9.85556">
        <ele>524.5</ele>
      </trkpt>
      <trkpt lat="48.15856" lon="9.85478">
        <ele>524.7</ele>
      </trkpt>
      <trkpt lat="48.15892" lon="9.85362">
        <ele>523.8</ele>
      </trkpt>
      <trkpt lat="48.15908" lon="9.85313">
        <ele>523.4</ele>
      </trkpt>
      <trkpt lat="48.15912" lon="9.85299">
        <ele>523.2</ele>
      </trkpt>
      <trkpt lat="48.15929" lon="9.8526">
        <ele>522.1</ele>
      </trkpt>
      <trkpt lat="48.15944" lon="9.85233">
        <ele>520.9</ele>
      </trkpt>
      <trkpt lat="48.15954" lon="9.85216">
        <ele>520.2</ele>
      </trkpt>
      <trkpt lat="48.15979" lon="9.85197">
        <ele>519.1</ele>
      </trkpt>
      <trkpt lat="48.15992" lon="9.85188">
        <ele>518.8</ele>
      </trkpt>
      <trkpt lat="48.16007" lon="9.85181">
        <ele>518.9</ele>
      </trkpt>
      <trkpt lat="48.16022" lon="9.85176">
        <ele>519.5</ele>
      </trkpt>
      <trkpt lat="48.16041" lon="9.85173">
        <ele>520.3</ele>
      </trkpt>
      <trkpt lat="48.16062" lon="9.85175">
        <ele>521</ele>
      </trkpt>
      <trkpt lat="48.16084" lon="9.85179">
        <ele>521.6</ele>
      </trkpt>
      <trkpt lat="48.16132" lon="9.85194">
        <ele>523.3</ele>
      </trkpt>
      <trkpt lat="48.16315" lon="9.85248">
        <ele>526.2</ele>
      </trkpt>
      <trkpt lat="48.16331" lon="9.85251">
        <ele>526</ele>
      </trkpt>
      <trkpt lat="48.1636" lon="9.8525">
        <ele>526</ele>
      </trkpt>
      <trkpt lat="48.16381" lon="9.85246">
        <ele>526</ele>
      </trkpt>
      <trkpt lat="48.16404" lon="9.85238">
        <ele>526</ele>
      </trkpt>
      <trkpt lat="48.16428" lon="9.85226">
        <ele>526.1</ele>
      </trkpt>
      <trkpt lat="48.16447" lon="9.85211">
        <ele>526.4</ele>
      </trkpt>
      <trkpt lat="48.16465" lon="9.85194">
        <ele>526.6</ele>
      </trkpt>
      <trkpt lat="48.16481" lon="9.85175">
        <ele>526.8</ele>
      </trkpt>
      <trkpt lat="48.16495" lon="9.85154">
        <ele>526.9</ele>
      </trkpt>
      <trkpt lat="48.16503" lon="9.85141">
        <ele>527</ele>
      </trkpt>
      <trkpt lat="48.1651" lon="9.85128">
        <ele>527.1</ele>
      </trkpt>
      <trkpt lat="48.16524" lon="9.85095">
        <ele>527.2</ele>
      </trkpt>
      <trkpt lat="48.16533" lon="9.85066">
        <ele>527.3</ele>
      </trkpt>
      <trkpt lat="48.16542" lon="9.85031">
        <ele>526.9</ele>
      </trkpt>
      <trkpt lat="48.16548" lon="9.85001">
        <ele>526.1</ele>
      </trkpt>
      <trkpt lat="48.16555" lon="9.84934">
        <ele>521.2</ele>
      </trkpt>
      <trkpt lat="48.16562" lon="9.84883">
        <ele>518.4</ele>
      </trkpt>
      <trkpt lat="48.16575" lon="9.84833">
        <ele>516.4</ele>
      </trkpt>
      <trkpt lat="48.16592" lon="9.84791">
        <ele>516.3</ele>
      </trkpt>
      <trkpt lat="48.16621" lon="9.8475">
        <ele>516.4</ele>
      </trkpt>
      <trkpt lat="48.16657" lon="9.84695">
        <ele>516.2</ele>
      </trkpt>
      <trkpt lat="48.16691" lon="9.84641">
        <ele>516</ele>
      </trkpt>
      <trkpt lat="48.16715" lon="9.84593">
        <ele>516</ele>
      </trkpt>
      <trkpt lat="48.16752" lon="9.84519">
        <ele>516.7</ele>
      </trkpt>
      <trkpt lat="48.16782" lon="9.84461">
        <ele>516.3</ele>
      </trkpt>
      <trkpt lat="48.16796" lon="9.84415">
        <ele>516.6</ele>
      </trkpt>
      <trkpt lat="48.16812" lon="9.84327">
        <ele>516.6</ele>
      </trkpt>
      <trkpt lat="48.16823" lon="9.84237">
        <ele>515.6</ele>
      </trkpt>
      <trkpt lat="48.16842" lon="9.84164">
        <ele>514.9</ele>
      </trkpt>
      <trkpt lat="48.16856" lon="9.84122">
        <ele>515.3</ele>
      </trkpt>
      <trkpt lat="48.16872" lon="9.84088">
        <ele>516.3</ele>
      </trkpt>
      <trkpt lat="48.16889" lon="9.84065">
        <ele>516.8</ele>
      </trkpt>
      <trkpt lat="48.16904" lon="9.84056">
        <ele>517.2</ele>
      </trkpt>
      <trkpt lat="48.16987" lon="9.84022">
        <ele>516.8</ele>
      </trkpt>
      <trkpt lat="48.17033" lon="9.83994">
        <ele>517.5</ele>
      </trkpt>
      <trkpt lat="48.17071" lon="9.83977">
        <ele>517.5</ele>
      </trkpt>
      <trkpt lat="48.17087" lon="9.83971">
        <ele>517.3</ele>
      </trkpt>
      <trkpt lat="48.17227" lon="9.83908">
        <ele>515.4</ele>
      </trkpt>
      <trkpt lat="48.17238" lon="9.83903">
        <ele>515.4</ele>
      </trkpt>
      <trkpt lat="48.17385" lon="9.83857">
        <ele>513.8</ele>
      </trkpt>
      <trkpt lat="48.17398" lon="9.83854">
        <ele>513.5</ele>
      </trkpt>
      <trkpt lat="48.17438" lon="9.83847">
        <ele>513</ele>
      </trkpt>
      <trkpt lat="48.17475" lon="9.83839">
        <ele>513</ele>
      </trkpt>
      <trkpt lat="48.17486" lon="9.83836">
        <ele>513</ele>
      </trkpt>
      <trkpt lat="48.1751" lon="9.83828">
        <ele>512.8</ele>
      </trkpt>
      <trkpt lat="48.17538" lon="9.83814">
        <ele>512.5</ele>
      </trkpt>
      <trkpt lat="48.17566" lon="9.83791">
        <ele>512.8</ele>
      </trkpt>
      <trkpt lat="48.17634" lon="9.8373">
        <ele>515.8</ele>
      </trkpt>
      <trkpt lat="48.17675" lon="9.83704">
        <ele>516.6</ele>
      </trkpt>
      <trkpt lat="48.17712" lon="9.83671">
        <ele>517.7</ele>
      </trkpt>
      <trkpt lat="48.17829" lon="9.83537">
        <ele>517.5</ele>
      </trkpt>
      <trkpt lat="48.17837" lon="9.83528">
        <ele>517.4</ele>
      </trkpt>
      <trkpt lat="48.17863" lon="9.83504">
        <ele>517.2</ele>
      </trkpt>
      <trkpt lat="48.17869" lon="9.83503">
        <ele>517.4</ele>
      </trkpt>
      <trkpt lat="48.17875" lon="9.83505">
        <ele>517.7</ele>
      </trkpt>
      <trkpt lat="48.17882" lon="9.83512">
        <ele>518.2</ele>
      </trkpt>
      <trkpt lat="48.17918" lon="9.83554">
        <ele>520.2</ele>
      </trkpt>
      <trkpt lat="48.18014" lon="9.8366">
        <ele>517</ele>
      </trkpt>
      <trkpt lat="48.18071" lon="9.8373">
        <ele>515.2</ele>
      </trkpt>
      <trkpt lat="48.18086" lon="9.83743">
        <ele>514.8</ele>
      </trkpt>
      <trkpt lat="48.18099" lon="9.83743">
        <ele>514.6</ele>
      </trkpt>
      <trkpt lat="48.18138" lon="9.83737">
        <ele>514</ele>
      </trkpt>
      <trkpt lat="48.18175" lon="9.83728">
        <ele>512.9</ele>
      </trkpt>
      <trkpt lat="48.18196" lon="9.83725">
        <ele>511.6</ele>
      </trkpt>
      <trkpt lat="48.18236" lon="9.83721">
        <ele>509.2</ele>
      </trkpt>
      <trkpt lat="48.18251" lon="9.8372">
        <ele>508.4</ele>
      </trkpt>
      <trkpt lat="48.18256" lon="9.83725">
        <ele>508.4</ele>
      </trkpt>
      <trkpt lat="48.18262" lon="9.83734">
        <ele>508.4</ele>
      </trkpt>
      <trkpt lat="48.18281" lon="9.83709">
        <ele>508.9</ele>
      </trkpt>
      <trkpt lat="48.18337" lon="9.8364">
        <ele>509</ele>
      </trkpt>
      <trkpt lat="48.1836" lon="9.83614">
        <ele>509.1</ele>
      </trkpt>
      <trkpt lat="48.18374" lon="9.83599">
        <ele>509.1</ele>
      </trkpt>
      <trkpt lat="48.18429" lon="9.8355">
        <ele>508.9</ele>
      </trkpt>
      <trkpt lat="48.1851" lon="9.83481">
        <ele>508.2</ele>
      </trkpt>
      <trkpt lat="48.18562" lon="9.8344">
        <ele>508.7</ele>
      </trkpt>
      <trkpt lat="48.18601" lon="9.83408">
        <ele>508.8</ele>
      </trkpt>
      <trkpt lat="48.18611" lon="9.83399">
        <ele>508.6</ele>
      </trkpt>
      <trkpt lat="48.18624" lon="9.83388">
        <ele>508.3</ele>
      </trkpt>
      <trkpt lat="48.1868" lon="9.83339">
        <ele>507.2</ele>
      </trkpt>
      <trkpt lat="48.18709" lon="9.83309">
        <ele>507.8</ele>
      </trkpt>
      <trkpt lat="48.18735" lon="9.83281">
        <ele>508.4</ele>
      </trkpt>
      <trkpt lat="48.18788" lon="9.83218">
        <ele>508.6</ele>
      </trkpt>
      <trkpt lat="48.18834" lon="9.83163">
        <ele>509</ele>
      </trkpt>
      <trkpt lat="48.1885" lon="9.83137">
        <ele>508.8</ele>
      </trkpt>
      <trkpt lat="48.18857" lon="9.83118">
        <ele>508.7</ele>
      </trkpt>
      <trkpt lat="48.18861" lon="9.83099">
        <ele>508.8</ele>
      </trkpt>
      <trkpt lat="48.18863" lon="9.83084">
        <ele>508.9</ele>
      </trkpt>
      <trkpt lat="48.18866" lon="9.8307">
        <ele>508.9</ele>
      </trkpt>
      <trkpt lat="48.18867" lon="9.83053">
        <ele>508.9</ele>
      </trkpt>
      <trkpt lat="48.18867" lon="9.83038">
        <ele>508.9</ele>
      </trkpt>
      <trkpt lat="48.18866" lon="9.83011">
        <ele>509</ele>
      </trkpt>
      <trkpt lat="48.18865" lon="9.82978">
        <ele>509.4</ele>
      </trkpt>
      <trkpt lat="48.18862" lon="9.82922">
        <ele>510.3</ele>
      </trkpt>
      <trkpt lat="48.18862" lon="9.82912">
        <ele>510.3</ele>
      </trkpt>
      <trkpt lat="48.18861" lon="9.82895">
        <ele>509.9</ele>
      </trkpt>
      <trkpt lat="48.18861" lon="9.82885">
        <ele>509.7</ele>
      </trkpt>
      <trkpt lat="48.1886" lon="9.82876">
        <ele>509.5</ele>
      </trkpt>
      <trkpt lat="48.1886" lon="9.82871">
        <ele>509.4</ele>
      </trkpt>
      <trkpt lat="48.18858" lon="9.82837">
        <ele>508.8</ele>
      </trkpt>
      <trkpt lat="48.18854" lon="9.82837">
        <ele>508.8</ele>
      </trkpt>
      <trkpt lat="48.18851" lon="9.828">
        <ele>509</ele>
      </trkpt>
      <trkpt lat="48.18849" lon="9.82785">
        <ele>509.2</ele>
      </trkpt>
      <trkpt lat="48.18847" lon="9.82763">
        <ele>509.4</ele>
      </trkpt>
      <trkpt lat="48.18856" lon="9.8276">
        <ele>509.1</ele>
      </trkpt>
      <trkpt lat="48.1887" lon="9.82753">
        <ele>508.7</ele>
      </trkpt>
      <trkpt lat="48.18886" lon="9.8274">
        <ele>508.1</ele>
      </trkpt>
      <trkpt lat="48.18925" lon="9.82713">
        <ele>507.7</ele>
      </trkpt>
      <trkpt lat="48.18943" lon="9.82698">
        <ele>508.2</ele>
      </trkpt>
      <trkpt lat="48.18961" lon="9.8268">
        <ele>508.5</ele>
      </trkpt>
      <trkpt lat="48.18967" lon="9.8267">
        <ele>508.6</ele>
      </trkpt>
      <trkpt lat="48.18975" lon="9.82663">
        <ele>508.7</ele>
      </trkpt>
      <trkpt lat="48.18987" lon="9.82652">
        <ele>508.8</ele>
      </trkpt>
      <trkpt lat="48.18988" lon="9.82643">
        <ele>508.9</ele>
      </trkpt>
      <trkpt lat="48.18989" lon="9.82625">
        <ele>508.9</ele>
      </trkpt>
      <trkpt lat="48.1899" lon="9.82605">
        <ele>508.9</ele>
      </trkpt>
      <trkpt lat="48.18998" lon="9.82566">
        <ele>509.2</ele>
      </trkpt>
      <trkpt lat="48.18999" lon="9.82561">
        <ele>509.3</ele>
      </trkpt>
      <trkpt lat="48.19003" lon="9.82525">
        <ele>509.7</ele>
      </trkpt>
      <trkpt lat="48.19003" lon="9.82499">
        <ele>510</ele>
      </trkpt>
      <trkpt lat="48.19009" lon="9.82503">
        <ele>509.7</ele>
      </trkpt>
      <trkpt lat="48.19015" lon="9.82504">
        <ele>509.6</ele>
      </trkpt>
      <trkpt lat="48.1902" lon="9.825">
        <ele>509.5</ele>
      </trkpt>
      <trkpt lat="48.1903" lon="9.8248">
        <ele>509.9</ele>
      </trkpt>
      <trkpt lat="48.19061" lon="9.82426">
        <ele>511.6</ele>
      </trkpt>
      <trkpt lat="48.1907" lon="9.82412">
        <ele>512.6</ele>
      </trkpt>
      <trkpt lat="48.19082" lon="9.82399">
        <ele>514.2</ele>
      </trkpt>
      <trkpt lat="48.19093" lon="9.82396">
        <ele>515.9</ele>
      </trkpt>
      <trkpt lat="48.19117" lon="9.82402">
        <ele>518.1</ele>
      </trkpt>
      <trkpt lat="48.19149" lon="9.82413">
        <ele>520.5</ele>
      </trkpt>
      <trkpt lat="48.19156" lon="9.82407">
        <ele>522.2</ele>
      </trkpt>
      <trkpt lat="48.19185" lon="9.82422">
        <ele>524.6</ele>
      </trkpt>
      <trkpt lat="48.19196" lon="9.82426">
        <ele>525.8</ele>
      </trkpt>
      <trkpt lat="48.19232" lon="9.82449">
        <ele>528.9</ele>
      </trkpt>
      <trkpt lat="48.1924" lon="9.82448">
        <ele>530.3</ele>
      </trkpt>
      <trkpt lat="48.19249" lon="9.82441">
        <ele>532.5</ele>
      </trkpt>
      <trkpt lat="48.19273" lon="9.82418">
        <ele>533.4</ele>
      </trkpt>
      <trkpt lat="48.19277" lon="9.82411">
        <ele>533.2</ele>
      </trkpt>
      <trkpt lat="48.19279" lon="9.82404">
        <ele>533</ele>
      </trkpt>
      <trkpt lat="48.19277" lon="9.82386">
        <ele>533.5</ele>
      </trkpt>
      <trkpt lat="48.1927" lon="9.82348">
        <ele>535.4</ele>
      </trkpt>
      <trkpt lat="48.19266" lon="9.82315">
        <ele>536.3</ele>
      </trkpt>
      <trkpt lat="48.19265" lon="9.82277">
        <ele>536.2</ele>
      </trkpt>
      <trkpt lat="48.19262" lon="9.82254">
        <ele>536.6</ele>
      </trkpt>
      <trkpt lat="48.19239" lon="9.82076">
        <ele>538.7</ele>
      </trkpt>
      <trkpt lat="48.19542" lon="9.82002">
        <ele>511.5</ele>
      </trkpt>
      <trkpt lat="48.19634" lon="9.8198">
        <ele>512.3</ele>
      </trkpt>
      <trkpt lat="48.19732" lon="9.81954">
        <ele>513.8</ele>
      </trkpt>
      <trkpt lat="48.19859" lon="9.81925">
        <ele>516.7</ele>
      </trkpt>
      <trkpt lat="48.19876" lon="9.81924">
        <ele>516.5</ele>
      </trkpt>
      <trkpt lat="48.20049" lon="9.81926">
        <ele>514</ele>
      </trkpt>
      <trkpt lat="48.20238" lon="9.81929">
        <ele>513.2</ele>
      </trkpt>
      <trkpt lat="48.20416" lon="9.81969">
        <ele>510.8</ele>
      </trkpt>
      <trkpt lat="48.20487" lon="9.81985">
        <ele>512.6</ele>
      </trkpt>
      <trkpt lat="48.20511" lon="9.8199">
        <ele>512.8</ele>
      </trkpt>
      <trkpt lat="48.20517" lon="9.81992">
        <ele>512.7</ele>
      </trkpt>
      <trkpt lat="48.20526" lon="9.81996">
        <ele>512.6</ele>
      </trkpt>
      <trkpt lat="48.20783" lon="9.8213">
        <ele>505</ele>
      </trkpt>
      <trkpt lat="48.20796" lon="9.82136">
        <ele>504.9</ele>
      </trkpt>
      <trkpt lat="48.20834" lon="9.82175">
        <ele>505.2</ele>
      </trkpt>
      <trkpt lat="48.20903" lon="9.82245">
        <ele>504.5</ele>
      </trkpt>
      <trkpt lat="48.20938" lon="9.82281">
        <ele>504.9</ele>
      </trkpt>
      <trkpt lat="48.20944" lon="9.82286">
        <ele>505.1</ele>
      </trkpt>
      <trkpt lat="48.20947" lon="9.82294">
        <ele>505.4</ele>
      </trkpt>
      <trkpt lat="48.2095" lon="9.82311">
        <ele>506.1</ele>
      </trkpt>
      <trkpt lat="48.20951" lon="9.8232">
        <ele>506.4</ele>
      </trkpt>
      <trkpt lat="48.2097" lon="9.82316">
        <ele>506.2</ele>
      </trkpt>
      <trkpt lat="48.20979" lon="9.82314">
        <ele>506.1</ele>
      </trkpt>
      <trkpt lat="48.20989" lon="9.82313">
        <ele>506.1</ele>
      </trkpt>
      <trkpt lat="48.21004" lon="9.82314">
        <ele>506</ele>
      </trkpt>
      <trkpt lat="48.21016" lon="9.82315">
        <ele>506</ele>
      </trkpt>
      <trkpt lat="48.21029" lon="9.82317">
        <ele>505.9</ele>
      </trkpt>
      <trkpt lat="48.21042" lon="9.8232">
        <ele>506</ele>
      </trkpt>
      <trkpt lat="48.21053" lon="9.82324">
        <ele>506</ele>
      </trkpt>
      <trkpt lat="48.21063" lon="9.82329">
        <ele>506.1</ele>
      </trkpt>
      <trkpt lat="48.21077" lon="9.82336">
        <ele>506.1</ele>
      </trkpt>
      <trkpt lat="48.21091" lon="9.82345">
        <ele>506</ele>
      </trkpt>
      <trkpt lat="48.21099" lon="9.82351">
        <ele>505.8</ele>
      </trkpt>
      <trkpt lat="48.21124" lon="9.82374">
        <ele>505.3</ele>
      </trkpt>
      <trkpt lat="48.21136" lon="9.82387">
        <ele>505</ele>
      </trkpt>
      <trkpt lat="48.2115" lon="9.82404">
        <ele>504.6</ele>
      </trkpt>
      <trkpt lat="48.21158" lon="9.82412">
        <ele>504.3</ele>
      </trkpt>
      <trkpt lat="48.21164" lon="9.82417">
        <ele>504.1</ele>
      </trkpt>
      <trkpt lat="48.21197" lon="9.82469">
        <ele>505.6</ele>
      </trkpt>
      <trkpt lat="48.21232" lon="9.82521">
        <ele>505.5</ele>
      </trkpt>
      <trkpt lat="48.21244" lon="9.82545">
        <ele>505.2</ele>
      </trkpt>
      <trkpt lat="48.21258" lon="9.8258">
        <ele>504.9</ele>
      </trkpt>
      <trkpt lat="48.21264" lon="9.82598">
        <ele>505</ele>
      </trkpt>
      <trkpt lat="48.21267" lon="9.8261">
        <ele>505</ele>
      </trkpt>
      <trkpt lat="48.2127" lon="9.82625">
        <ele>505.1</ele>
      </trkpt>
      <trkpt lat="48.21273" lon="9.8264">
        <ele>505.2</ele>
      </trkpt>
      <trkpt lat="48.21276" lon="9.82659">
        <ele>505.3</ele>
      </trkpt>
      <trkpt lat="48.21277" lon="9.82676">
        <ele>505.5</ele>
      </trkpt>
      <trkpt lat="48.21278" lon="9.82693">
        <ele>505.6</ele>
      </trkpt>
      <trkpt lat="48.2128" lon="9.82705">
        <ele>505.7</ele>
      </trkpt>
      <trkpt lat="48.21283" lon="9.82719">
        <ele>505.7</ele>
      </trkpt>
      <trkpt lat="48.21289" lon="9.82737">
        <ele>505.6</ele>
      </trkpt>
      <trkpt lat="48.21295" lon="9.82755">
        <ele>505.4</ele>
      </trkpt>
      <trkpt lat="48.21301" lon="9.82771">
        <ele>505.5</ele>
      </trkpt>
      <trkpt lat="48.21308" lon="9.82783">
        <ele>505.7</ele>
      </trkpt>
      <trkpt lat="48.21318" lon="9.82772">
        <ele>504.9</ele>
      </trkpt>
      <trkpt lat="48.21326" lon="9.82762">
        <ele>504.1</ele>
      </trkpt>
      <trkpt lat="48.2133" lon="9.82756">
        <ele>503.5</ele>
      </trkpt>
      <trkpt lat="48.21333" lon="9.82752">
        <ele>503.1</ele>
      </trkpt>
      <trkpt lat="48.21353" lon="9.82723">
        <ele>503.3</ele>
      </trkpt>
      <trkpt lat="48.21364" lon="9.82707">
        <ele>503.5</ele>
      </trkpt>
      <trkpt lat="48.21368" lon="9.82704">
        <ele>503.6</ele>
      </trkpt>
      <trkpt lat="48.21377" lon="9.82694">
        <ele>503.7</ele>
      </trkpt>
      <trkpt lat="48.21385" lon="9.82688">
        <ele>503.7</ele>
      </trkpt>
      <trkpt lat="48.21395" lon="9.82683">
        <ele>503.8</ele>
      </trkpt>
      <trkpt lat="48.21404" lon="9.82678">
        <ele>503.9</ele>
      </trkpt>
      <trkpt lat="48.21413" lon="9.82675">
        <ele>503.9</ele>
      </trkpt>
      <trkpt lat="48.21429" lon="9.82673">
        <ele>504.2</ele>
      </trkpt>
      <trkpt lat="48.21438" lon="9.82672">
        <ele>504.5</ele>
      </trkpt>
      <trkpt lat="48.2145" lon="9.82671">
        <ele>504.8</ele>
      </trkpt>
      <trkpt lat="48.2146" lon="9.82673">
        <ele>505</ele>
      </trkpt>
      <trkpt lat="48.21468" lon="9.82676">
        <ele>505.2</ele>
      </trkpt>
      <trkpt lat="48.21474" lon="9.82678">
        <ele>505.3</ele>
      </trkpt>
      <trkpt lat="48.21478" lon="9.82681">
        <ele>505.4</ele>
      </trkpt>
      <trkpt lat="48.21482" lon="9.82686">
        <ele>505.5</ele>
      </trkpt>
      <trkpt lat="48.21488" lon="9.82695">
        <ele>505.7</ele>
      </trkpt>
      <trkpt lat="48.21492" lon="9.82707">
        <ele>505.8</ele>
      </trkpt>
      <trkpt lat="48.21501" lon="9.82736">
        <ele>506</ele>
      </trkpt>
      <trkpt lat="48.21503" lon="9.82743">
        <ele>506.1</ele>
      </trkpt>
      <trkpt lat="48.21506" lon="9.82747">
        <ele>506.2</ele>
      </trkpt>
      <trkpt lat="48.21509" lon="9.82751">
        <ele>506.3</ele>
      </trkpt>
      <trkpt lat="48.21514" lon="9.82754">
        <ele>506.4</ele>
      </trkpt>
      <trkpt lat="48.21518" lon="9.82755">
        <ele>506.5</ele>
      </trkpt>
      <trkpt lat="48.21533" lon="9.82758">
        <ele>507</ele>
      </trkpt>
      <trkpt lat="48.2156" lon="9.82764">
        <ele>507.8</ele>
      </trkpt>
      <trkpt lat="48.21578" lon="9.82769">
        <ele>508.3</ele>
      </trkpt>
      <trkpt lat="48.21612" lon="9.82781">
        <ele>509.1</ele>
      </trkpt>
      <trkpt lat="48.21644" lon="9.82793">
        <ele>509.8</ele>
      </trkpt>
      <trkpt lat="48.21651" lon="9.82796">
        <ele>510</ele>
      </trkpt>
      <trkpt lat="48.21665" lon="9.82799">
        <ele>510.4</ele>
      </trkpt>
      <trkpt lat="48.21671" lon="9.82799">
        <ele>510.4</ele>
      </trkpt>
      <trkpt lat="48.21689" lon="9.82797">
        <ele>510.1</ele>
      </trkpt>
      <trkpt lat="48.2171" lon="9.82794">
        <ele>509.7</ele>
      </trkpt>
      <trkpt lat="48.21731" lon="9.82791">
        <ele>509.3</ele>
      </trkpt>
      <trkpt lat="48.21748" lon="9.82791">
        <ele>509</ele>
      </trkpt>
      <trkpt lat="48.21767" lon="9.82793">
        <ele>508.5</ele>
      </trkpt>
      <trkpt lat="48.21807" lon="9.82799">
        <ele>507.4</ele>
      </trkpt>
      <trkpt lat="48.21817" lon="9.828">
        <ele>507.1</ele>
      </trkpt>
      <trkpt lat="48.21826" lon="9.828">
        <ele>506.8</ele>
      </trkpt>
      <trkpt lat="48.21849" lon="9.82795">
        <ele>506.9</ele>
      </trkpt>
      <trkpt lat="48.21877" lon="9.82786">
        <ele>507.5</ele>
      </trkpt>
      <trkpt lat="48.21905" lon="9.8278">
        <ele>508.3</ele>
      </trkpt>
      <trkpt lat="48.21932" lon="9.82776">
        <ele>509.4</ele>
      </trkpt>
      <trkpt lat="48.21989" lon="9.82768">
        <ele>511.7</ele>
      </trkpt>
      <trkpt lat="48.22011" lon="9.82766">
        <ele>512.4</ele>
      </trkpt>
      <trkpt lat="48.2201" lon="9.82758">
        <ele>512.3</ele>
      </trkpt>
      <trkpt lat="48.22033" lon="9.82755">
        <ele>512.8</ele>
      </trkpt>
      <trkpt lat="48.22042" lon="9.82756">
        <ele>513</ele>
      </trkpt>
      <trkpt lat="48.22051" lon="9.82759">
        <ele>513.2</ele>
      </trkpt>
      <trkpt lat="48.2206" lon="9.82764">
        <ele>513.4</ele>
      </trkpt>
      <trkpt lat="48.22079" lon="9.82768">
        <ele>513.7</ele>
      </trkpt>
      <trkpt lat="48.2211" lon="9.82777">
        <ele>513.4</ele>
      </trkpt>
      <trkpt lat="48.22145" lon="9.82785">
        <ele>512.8</ele>
      </trkpt>
      <trkpt lat="48.22167" lon="9.8279">
        <ele>512.5</ele>
      </trkpt>
      <trkpt lat="48.22181" lon="9.82796">
        <ele>511.9</ele>
      </trkpt>
      <trkpt lat="48.222" lon="9.82804">
        <ele>511.3</ele>
      </trkpt>
      <trkpt lat="48.22241" lon="9.82819">
        <ele>510.1</ele>
      </trkpt>
      <trkpt lat="48.22261" lon="9.82824">
        <ele>509.1</ele>
      </trkpt>
      <trkpt lat="48.22274" lon="9.82823">
        <ele>508.2</ele>
      </trkpt>
      <trkpt lat="48.22285" lon="9.82822">
        <ele>507.4</ele>
      </trkpt>
      <trkpt lat="48.22293" lon="9.82819">
        <ele>506.8</ele>
      </trkpt>
      <trkpt lat="48.22345" lon="9.82793">
        <ele>503.7</ele>
      </trkpt>
      <trkpt lat="48.22389" lon="9.82771">
        <ele>503</ele>
      </trkpt>
      <trkpt lat="48.22399" lon="9.82767">
        <ele>502.9</ele>
      </trkpt>
      <trkpt lat="48.2243" lon="9.82756">
        <ele>503.2</ele>
      </trkpt>
      <trkpt lat="48.22461" lon="9.8275">
        <ele>504.1</ele>
      </trkpt>
      <trkpt lat="48.22473" lon="9.82746">
        <ele>504.5</ele>
      </trkpt>
      <trkpt lat="48.22479" lon="9.82746">
        <ele>504.7</ele>
      </trkpt>
      <trkpt lat="48.22486" lon="9.82747">
        <ele>504.8</ele>
      </trkpt>
      <trkpt lat="48.22487" lon="9.82728">
        <ele>505.8</ele>
      </trkpt>
      <trkpt lat="48.22492" lon="9.82724">
        <ele>506</ele>
      </trkpt>
      <trkpt lat="48.22497" lon="9.82721">
        <ele>506.3</ele>
      </trkpt>
      <trkpt lat="48.22539" lon="9.82695">
        <ele>507.6</ele>
      </trkpt>
      <trkpt lat="48.22548" lon="9.82691">
        <ele>507.8</ele>
      </trkpt>
      <trkpt lat="48.22558" lon="9.82684">
        <ele>508.2</ele>
      </trkpt>
      <trkpt lat="48.22591" lon="9.82665">
        <ele>509</ele>
      </trkpt>
      <trkpt lat="48.22621" lon="9.82648">
        <ele>509.4</ele>
      </trkpt>
      <trkpt lat="48.22671" lon="9.8261">
        <ele>511.4</ele>
      </trkpt>
      <trkpt lat="48.22676" lon="9.82603">
        <ele>511.8</ele>
      </trkpt>
      <trkpt lat="48.22683" lon="9.82602">
        <ele>511.8</ele>
      </trkpt>
      <trkpt lat="48.22688" lon="9.826">
        <ele>511.9</ele>
      </trkpt>
      <trkpt lat="48.22699" lon="9.82595">
        <ele>512.1</ele>
      </trkpt>
      <trkpt lat="48.22729" lon="9.82577">
        <ele>512.3</ele>
      </trkpt>
      <trkpt lat="48.22769" lon="9.82554">
        <ele>512.3</ele>
      </trkpt>
      <trkpt lat="48.22784" lon="9.82543">
        <ele>512.1</ele>
      </trkpt>
      <trkpt lat="48.22805" lon="9.82525">
        <ele>511.5</ele>
      </trkpt>
      <trkpt lat="48.22816" lon="9.82515">
        <ele>511</ele>
      </trkpt>
      <trkpt lat="48.22846" lon="9.82486">
        <ele>508.8</ele>
      </trkpt>
      <trkpt lat="48.22855" lon="9.82476">
        <ele>507.9</ele>
      </trkpt>
      <trkpt lat="48.22861" lon="9.82471">
        <ele>507.4</ele>
      </trkpt>
      <trkpt lat="48.22876" lon="9.82453">
        <ele>506.1</ele>
      </trkpt>
      <trkpt lat="48.22894" lon="9.82499">
        <ele>506.3</ele>
      </trkpt>
      <trkpt lat="48.2291" lon="9.82523">
        <ele>506.5</ele>
      </trkpt>
      <trkpt lat="48.2294" lon="9.8257">
        <ele>506.9</ele>
      </trkpt>
      <trkpt lat="48.22973" lon="9.8262">
        <ele>506.4</ele>
      </trkpt>
      <trkpt lat="48.22984" lon="9.82639">
        <ele>506.6</ele>
      </trkpt>
      <trkpt lat="48.22989" lon="9.82651">
        <ele>506.8</ele>
      </trkpt>
      <trkpt lat="48.23004" lon="9.82697">
        <ele>507.6</ele>
      </trkpt>
      <trkpt lat="48.23011" lon="9.82712">
        <ele>507.6</ele>
      </trkpt>
      <trkpt lat="48.23016" lon="9.82718">
        <ele>507.5</ele>
      </trkpt>
      <trkpt lat="48.23015" lon="9.82727">
        <ele>507.7</ele>
      </trkpt>
      <trkpt lat="48.23019" lon="9.82738">
        <ele>507.7</ele>
      </trkpt>
      <trkpt lat="48.23035" lon="9.82821">
        <ele>507.3</ele>
      </trkpt>
      <trkpt lat="48.23037" lon="9.8283">
        <ele>507.2</ele>
      </trkpt>
      <trkpt lat="48.23054" lon="9.82821">
        <ele>506.3</ele>
      </trkpt>
      <trkpt lat="48.23058" lon="9.82813">
        <ele>506</ele>
      </trkpt>
      <trkpt lat="48.23069" lon="9.82804">
        <ele>505.4</ele>
      </trkpt>
      <trkpt lat="48.23073" lon="9.82815">
        <ele>505.3</ele>
      </trkpt>
      <trkpt lat="48.23078" lon="9.82821">
        <ele>505.1</ele>
      </trkpt>
      <trkpt lat="48.23085" lon="9.82824">
        <ele>504.9</ele>
      </trkpt>
      <trkpt lat="48.23093" lon="9.82825">
        <ele>504.8</ele>
      </trkpt>
      <trkpt lat="48.23093" lon="9.8284">
        <ele>504.6</ele>
      </trkpt>
      <trkpt lat="48.23094" lon="9.82852">
        <ele>504.2</ele>
      </trkpt>
      <trkpt lat="48.23098" lon="9.82861">
        <ele>503.8</ele>
      </trkpt>
      <trkpt lat="48.231" lon="9.82866">
        <ele>503.6</ele>
      </trkpt>
      <trkpt lat="48.23105" lon="9.82876">
        <ele>503.2</ele>
      </trkpt>
      <trkpt lat="48.23116" lon="9.829">
        <ele>502.2</ele>
      </trkpt>
      <trkpt lat="48.23121" lon="9.82915">
        <ele>501.6</ele>
      </trkpt>
      <trkpt lat="48.23121" lon="9.82919">
        <ele>501.5</ele>
      </trkpt>
      <trkpt lat="48.23126" lon="9.82919">
        <ele>501.5</ele>
      </trkpt>
      <trkpt lat="48.2313" lon="9.82919">
        <ele>501.4</ele>
      </trkpt>
      <trkpt lat="48.23135" lon="9.82921">
        <ele>501.3</ele>
      </trkpt>
      <trkpt lat="48.23144" lon="9.82925">
        <ele>501.2</ele>
      </trkpt>
      <trkpt lat="48.23163" lon="9.82938">
        <ele>500.8</ele>
      </trkpt>
      <trkpt lat="48.23177" lon="9.82948">
        <ele>500.5</ele>
      </trkpt>
      <trkpt lat="48.23182" lon="9.82952">
        <ele>500.3</ele>
      </trkpt>
      <trkpt lat="48.2319" lon="9.82955">
        <ele>500.2</ele>
      </trkpt>
      <trkpt lat="48.23228" lon="9.83002">
        <ele>497.8</ele>
      </trkpt>
      <trkpt lat="48.2324" lon="9.83018">
        <ele>497.3</ele>
      </trkpt>
      <trkpt lat="48.23255" lon="9.83025">
        <ele>497.1</ele>
      </trkpt>
      <trkpt lat="48.23338" lon="9.83037">
        <ele>497.9</ele>
      </trkpt>
      <trkpt lat="48.23393" lon="9.83043">
        <ele>497.3</ele>
      </trkpt>
      <trkpt lat="48.23451" lon="9.83053">
        <ele>497.4</ele>
      </trkpt>
      <trkpt lat="48.23511" lon="9.83062">
        <ele>498.1</ele>
      </trkpt>
      <trkpt lat="48.23546" lon="9.83068">
        <ele>498.5</ele>
      </trkpt>
      <trkpt lat="48.23601" lon="9.83078">
        <ele>498.3</ele>
      </trkpt>
      <trkpt lat="48.2374" lon="9.83097">
        <ele>497.6</ele>
      </trkpt>
      <trkpt lat="48.2374" lon="9.83084">
        <ele>497.8</ele>
      </trkpt>
      <trkpt lat="48.23741" lon="9.83006">
        <ele>498.7</ele>
      </trkpt>
      <trkpt lat="48.23743" lon="9.82898">
        <ele>499.9</ele>
      </trkpt>
      <trkpt lat="48.23743" lon="9.82886">
        <ele>499.9</ele>
      </trkpt>
      <trkpt lat="48.23744" lon="9.82833">
        <ele>500</ele>
      </trkpt>
      <trkpt lat="48.23751" lon="9.82831">
        <ele>500</ele>
      </trkpt>
      <trkpt lat="48.23753" lon="9.82831">
        <ele>500</ele>
      </trkpt>
      <trkpt lat="48.23757" lon="9.82829">
        <ele>500.1</ele>
      </trkpt>
      <trkpt lat="48.23783" lon="9.82848">
        <ele>500.9</ele>
      </trkpt>
      <trkpt lat="48.23793" lon="9.82858">
        <ele>501.2</ele>
      </trkpt>
      <trkpt lat="48.23818" lon="9.82888">
        <ele>502.2</ele>
      </trkpt>
      <trkpt lat="48.23822" lon="9.82896">
        <ele>502.4</ele>
      </trkpt>
      <trkpt lat="48.23826" lon="9.82905">
        <ele>502.6</ele>
      </trkpt>
      <trkpt lat="48.23827" lon="9.82914">
        <ele>502.8</ele>
      </trkpt>
      <trkpt lat="48.23827" lon="9.82929">
        <ele>502.5</ele>
      </trkpt>
      <trkpt lat="48.23825" lon="9.82954">
        <ele>501.9</ele>
      </trkpt>
      <trkpt lat="48.23825" lon="9.82977">
        <ele>501.3</ele>
      </trkpt>
      <trkpt lat="48.23826" lon="9.82995">
        <ele>500.9</ele>
      </trkpt>
      <trkpt lat="48.23833" lon="9.83001">
        <ele>500.9</ele>
      </trkpt>
      <trkpt lat="48.23842" lon="9.83012">
        <ele>500.8</ele>
      </trkpt>
      <trkpt lat="48.23847" lon="9.83017">
        <ele>500.7</ele>
      </trkpt>
      <trkpt lat="48.23851" lon="9.83018">
        <ele>500.8</ele>
      </trkpt>
      <trkpt lat="48.23856" lon="9.83016">
        <ele>501</ele>
      </trkpt>
      <trkpt lat="48.23858" lon="9.83011">
        <ele>501.2</ele>
      </trkpt>
      <trkpt lat="48.23859" lon="9.83006">
        <ele>501.4</ele>
      </trkpt>
      <trkpt lat="48.23859" lon="9.82993">
        <ele>501.8</ele>
      </trkpt>
      <trkpt lat="48.23858" lon="9.82987">
        <ele>501.9</ele>
      </trkpt>
      <trkpt lat="48.23856" lon="9.82981">
        <ele>501.9</ele>
      </trkpt>
      <trkpt lat="48.23855" lon="9.82975">
        <ele>502</ele>
      </trkpt>
      <trkpt lat="48.23855" lon="9.82969">
        <ele>502.2</ele>
      </trkpt>
      <trkpt lat="48.23857" lon="9.82965">
        <ele>502.3</ele>
      </trkpt>
      <trkpt lat="48.23861" lon="9.82962">
        <ele>502.4</ele>
      </trkpt>
      <trkpt lat="48.23876" lon="9.82957">
        <ele>502.8</ele>
      </trkpt>
      <trkpt lat="48.23891" lon="9.82956">
        <ele>503.1</ele>
      </trkpt>
      <trkpt lat="48.23929" lon="9.82948">
        <ele>503.4</ele>
      </trkpt>
      <trkpt lat="48.23922" lon="9.82849">
        <ele>504.8</ele>
      </trkpt>
      <trkpt lat="48.2392" lon="9.82816">
        <ele>505</ele>
      </trkpt>
      <trkpt lat="48.23914" lon="9.8273">
        <ele>504.9</ele>
      </trkpt>
      <trkpt lat="48.23927" lon="9.82723">
        <ele>505</ele>
      </trkpt>
      <trkpt lat="48.23933" lon="9.82716">
        <ele>504.9</ele>
      </trkpt>
      <trkpt lat="48.23942" lon="9.82711">
        <ele>504.9</ele>
      </trkpt>
      <trkpt lat="48.24016" lon="9.82704">
        <ele>504.6</ele>
      </trkpt>
      <trkpt lat="48.24069" lon="9.82703">
        <ele>505.3</ele>
      </trkpt>
      <trkpt lat="48.24107" lon="9.82704">
        <ele>505.5</ele>
      </trkpt>
      <trkpt lat="48.24137" lon="9.82707">
        <ele>505.5</ele>
      </trkpt>
      <trkpt lat="48.24165" lon="9.82711">
        <ele>505.5</ele>
      </trkpt>
      <trkpt lat="48.24175" lon="9.82719">
        <ele>504.9</ele>
      </trkpt>
      <trkpt lat="48.24184" lon="9.82723">
        <ele>504.3</ele>
      </trkpt>
      <trkpt lat="48.24192" lon="9.82724">
        <ele>503.8</ele>
      </trkpt>
      <trkpt lat="48.24186" lon="9.82698">
        <ele>504.4</ele>
      </trkpt>
      <trkpt lat="48.24184" lon="9.82672">
        <ele>504.9</ele>
      </trkpt>
      <trkpt lat="48.242" lon="9.82677">
        <ele>503.9</ele>
      </trkpt>
      <trkpt lat="48.2421" lon="9.82683">
        <ele>503.2</ele>
      </trkpt>
      <trkpt lat="48.24218" lon="9.82686">
        <ele>502.7</ele>
      </trkpt>
      <trkpt lat="48.24252" lon="9.82689">
        <ele>500.7</ele>
      </trkpt>
      <trkpt lat="48.24347" lon="9.82693">
        <ele>498.2</ele>
      </trkpt>
      <trkpt lat="48.24415" lon="9.82687">
        <ele>495.8</ele>
      </trkpt>
      <trkpt lat="48.2448" lon="9.82672">
        <ele>495.9</ele>
      </trkpt>
      <trkpt lat="48.24527" lon="9.82653">
        <ele>495.7</ele>
      </trkpt>
      <trkpt lat="48.24563" lon="9.82635">
        <ele>496</ele>
      </trkpt>
      <trkpt lat="48.2457" lon="9.82629">
        <ele>496.2</ele>
      </trkpt>
      <trkpt lat="48.24578" lon="9.82618">
        <ele>496.4</ele>
      </trkpt>
      <trkpt lat="48.24586" lon="9.82612">
        <ele>496.6</ele>
      </trkpt>
      <trkpt lat="48.24596" lon="9.8261">
        <ele>496.5</ele>
      </trkpt>
      <trkpt lat="48.246" lon="9.82609">
        <ele>496.5</ele>
      </trkpt>
      <trkpt lat="48.24625" lon="9.82597">
        <ele>496.3</ele>
      </trkpt>
      <trkpt lat="48.24646" lon="9.8258">
        <ele>496.2</ele>
      </trkpt>
      <trkpt lat="48.2467" lon="9.82559">
        <ele>496</ele>
      </trkpt>
      <trkpt lat="48.24691" lon="9.8254">
        <ele>496</ele>
      </trkpt>
      <trkpt lat="48.24797" lon="9.82407">
        <ele>498.6</ele>
      </trkpt>
      <trkpt lat="48.24865" lon="9.82313">
        <ele>501.4</ele>
      </trkpt>
      <trkpt lat="48.24885" lon="9.82286">
        <ele>502.4</ele>
      </trkpt>
      <trkpt lat="48.24896" lon="9.82262">
        <ele>503.1</ele>
      </trkpt>
      <trkpt lat="48.2492" lon="9.82257">
        <ele>504</ele>
      </trkpt>
      <trkpt lat="48.24935" lon="9.82248">
        <ele>504.2</ele>
      </trkpt>
      <trkpt lat="48.24963" lon="9.82226">
        <ele>504.9</ele>
      </trkpt>
      <trkpt lat="48.25133" lon="9.82137">
        <ele>510.5</ele>
      </trkpt>
      <trkpt lat="48.25148" lon="9.82127">
        <ele>511.2</ele>
      </trkpt>
      <trkpt lat="48.25153" lon="9.82124">
        <ele>511.4</ele>
      </trkpt>
      <trkpt lat="48.25195" lon="9.82106">
        <ele>510.6</ele>
      </trkpt>
      <trkpt lat="48.25256" lon="9.82087">
        <ele>507.7</ele>
      </trkpt>
      <trkpt lat="48.2533" lon="9.82051">
        <ele>504.4</ele>
      </trkpt>
      <trkpt lat="48.25562" lon="9.81939">
        <ele>499.8</ele>
      </trkpt>
      <trkpt lat="48.25619" lon="9.81916">
        <ele>498.6</ele>
      </trkpt>
      <trkpt lat="48.25649" lon="9.81887">
        <ele>497.4</ele>
      </trkpt>
      <trkpt lat="48.25653" lon="9.81882">
        <ele>497.1</ele>
      </trkpt>
      <trkpt lat="48.25729" lon="9.81864">
        <ele>494.3</ele>
      </trkpt>
      <trkpt lat="48.25808" lon="9.81844">
        <ele>493.1</ele>
      </trkpt>
      <trkpt lat="48.25857" lon="9.81838">
        <ele>492.7</ele>
      </trkpt>
      <trkpt lat="48.25911" lon="9.81838">
        <ele>492.1</ele>
      </trkpt>
      <trkpt lat="48.26002" lon="9.81859">
        <ele>492</ele>
      </trkpt>
      <trkpt lat="48.26003" lon="9.81863">
        <ele>492</ele>
      </trkpt>
      <trkpt lat="48.26004" lon="9.81868">
        <ele>492</ele>
      </trkpt>
      <trkpt lat="48.2604" lon="9.81885">
        <ele>492.2</ele>
      </trkpt>
      <trkpt lat="48.2604" lon="9.81896">
        <ele>492.1</ele>
      </trkpt>
      <trkpt lat="48.26043" lon="9.81901">
        <ele>492.1</ele>
      </trkpt>
      <trkpt lat="48.26055" lon="9.81906">
        <ele>492.1</ele>
      </trkpt>
      <trkpt lat="48.26079" lon="9.81919">
        <ele>491.9</ele>
      </trkpt>
      <trkpt lat="48.26112" lon="9.81944">
        <ele>492.6</ele>
      </trkpt>
      <trkpt lat="48.26155" lon="9.81978">
        <ele>493.3</ele>
      </trkpt>
      <trkpt lat="48.262" lon="9.82022">
        <ele>493.2</ele>
      </trkpt>
      <trkpt lat="48.2624" lon="9.82072">
        <ele>492.3</ele>
      </trkpt>
      <trkpt lat="48.26261" lon="9.82101">
        <ele>491.7</ele>
      </trkpt>
      <trkpt lat="48.26282" lon="9.82137">
        <ele>491.2</ele>
      </trkpt>
      <trkpt lat="48.26311" lon="9.82188">
        <ele>491.2</ele>
      </trkpt>
      <trkpt lat="48.26331" lon="9.82232">
        <ele>491.1</ele>
      </trkpt>
      <trkpt lat="48.26351" lon="9.82287">
        <ele>490.6</ele>
      </trkpt>
      <trkpt lat="48.26373" lon="9.82356">
        <ele>490.2</ele>
      </trkpt>
      <trkpt lat="48.26376" lon="9.82373">
        <ele>490.2</ele>
      </trkpt>
      <trkpt lat="48.26378" lon="9.82397">
        <ele>490.4</ele>
      </trkpt>
      <trkpt lat="48.26382" lon="9.82414">
        <ele>490.6</ele>
      </trkpt>
      <trkpt lat="48.26392" lon="9.82417">
        <ele>490.7</ele>
      </trkpt>
      <trkpt lat="48.26399" lon="9.82416">
        <ele>490.8</ele>
      </trkpt>
      <trkpt lat="48.2642" lon="9.82495">
        <ele>491.9</ele>
      </trkpt>
      <trkpt lat="48.26429" lon="9.82535">
        <ele>492.3</ele>
      </trkpt>
      <trkpt lat="48.26437" lon="9.8257">
        <ele>492.4</ele>
      </trkpt>
      <trkpt lat="48.26453" lon="9.82643">
        <ele>492.8</ele>
      </trkpt>
      <trkpt lat="48.26465" lon="9.82679">
        <ele>492.8</ele>
      </trkpt>
      <trkpt lat="48.26468" lon="9.82686">
        <ele>492.7</ele>
      </trkpt>
      <trkpt lat="48.2647" lon="9.82688">
        <ele>492.6</ele>
      </trkpt>
      <trkpt lat="48.26478" lon="9.82703">
        <ele>492.4</ele>
      </trkpt>
      <trkpt lat="48.265" lon="9.82739">
        <ele>492.1</ele>
      </trkpt>
      <trkpt lat="48.26504" lon="9.82745">
        <ele>492</ele>
      </trkpt>
      <trkpt lat="48.26513" lon="9.82761">
        <ele>491.9</ele>
      </trkpt>
      <trkpt lat="48.26519" lon="9.8277">
        <ele>491.8</ele>
      </trkpt>
      <trkpt lat="48.26521" lon="9.82781">
        <ele>491.8</ele>
      </trkpt>
      <trkpt lat="48.26523" lon="9.82803">
        <ele>491.9</ele>
      </trkpt>
      <trkpt lat="48.26522" lon="9.82811">
        <ele>491.9</ele>
      </trkpt>
      <trkpt lat="48.2652" lon="9.82834">
        <ele>492</ele>
      </trkpt>
      <trkpt lat="48.26519" lon="9.82877">
        <ele>492.2</ele>
      </trkpt>
      <trkpt lat="48.26519" lon="9.82882">
        <ele>492.3</ele>
      </trkpt>
      <trkpt lat="48.26518" lon="9.82901">
        <ele>492.4</ele>
      </trkpt>
      <trkpt lat="48.26518" lon="9.82909">
        <ele>492.4</ele>
      </trkpt>
      <trkpt lat="48.26519" lon="9.82921">
        <ele>492.5</ele>
      </trkpt>
      <trkpt lat="48.26523" lon="9.82923">
        <ele>492.6</ele>
      </trkpt>
      <trkpt lat="48.26528" lon="9.82926">
        <ele>492.8</ele>
      </trkpt>
      <trkpt lat="48.26533" lon="9.82931">
        <ele>493</ele>
      </trkpt>
      <trkpt lat="48.26537" lon="9.82939">
        <ele>493.2</ele>
      </trkpt>
      <trkpt lat="48.26542" lon="9.8295">
        <ele>493.6</ele>
      </trkpt>
      <trkpt lat="48.26547" lon="9.82963">
        <ele>494</ele>
      </trkpt>
      <trkpt lat="48.26556" lon="9.82991">
        <ele>495.1</ele>
      </trkpt>
      <trkpt lat="48.26564" lon="9.83018">
        <ele>495.1</ele>
      </trkpt>
      <trkpt lat="48.26578" lon="9.83059">
        <ele>494</ele>
      </trkpt>
      <trkpt lat="48.26589" lon="9.83087">
        <ele>492.9</ele>
      </trkpt>
      <trkpt lat="48.26594" lon="9.83101">
        <ele>492.5</ele>
      </trkpt>
      <trkpt lat="48.26602" lon="9.83118">
        <ele>492.1</ele>
      </trkpt>
      <trkpt lat="48.26608" lon="9.83126">
        <ele>492</ele>
      </trkpt>
      <trkpt lat="48.26614" lon="9.83131">
        <ele>491.9</ele>
      </trkpt>
      <trkpt lat="48.26619" lon="9.83134">
        <ele>491.9</ele>
      </trkpt>
      <trkpt lat="48.26626" lon="9.83134">
        <ele>491.9</ele>
      </trkpt>
      <trkpt lat="48.26629" lon="9.83132">
        <ele>491.9</ele>
      </trkpt>
      <trkpt lat="48.26632" lon="9.8313">
        <ele>491.9</ele>
      </trkpt>
      <trkpt lat="48.26636" lon="9.83127">
        <ele>492</ele>
      </trkpt>
      <trkpt lat="48.26638" lon="9.83123">
        <ele>492</ele>
      </trkpt>
      <trkpt lat="48.26648" lon="9.83106">
        <ele>492.1</ele>
      </trkpt>
      <trkpt lat="48.26661" lon="9.83084">
        <ele>492.1</ele>
      </trkpt>
      <trkpt lat="48.26666" lon="9.83076">
        <ele>492.2</ele>
      </trkpt>
      <trkpt lat="48.26685" lon="9.83118">
        <ele>492.4</ele>
      </trkpt>
      <trkpt lat="48.26688" lon="9.83124">
        <ele>492.5</ele>
      </trkpt>
      <trkpt lat="48.26687" lon="9.83129">
        <ele>492.5</ele>
      </trkpt>
      <trkpt lat="48.26697" lon="9.83147">
        <ele>493.1</ele>
      </trkpt>
      <trkpt lat="48.26713" lon="9.83176">
        <ele>494.5</ele>
      </trkpt>
      <trkpt lat="48.2674" lon="9.8321">
        <ele>497</ele>
      </trkpt>
      <trkpt lat="48.26766" lon="9.83242">
        <ele>499.8</ele>
      </trkpt>
      <trkpt lat="48.26771" lon="9.83238">
        <ele>499.9</ele>
      </trkpt>
      <trkpt lat="48.26781" lon="9.83221">
        <ele>499.8</ele>
      </trkpt>
      <trkpt lat="48.26792" lon="9.83204">
        <ele>499.5</ele>
      </trkpt>
      <trkpt lat="48.26799" lon="9.83194">
        <ele>499.3</ele>
      </trkpt>
      <trkpt lat="48.26812" lon="9.83172">
        <ele>498.6</ele>
      </trkpt>
      <trkpt lat="48.2683" lon="9.83144">
        <ele>497.2</ele>
      </trkpt>
      <trkpt lat="48.26836" lon="9.83134">
        <ele>496.6</ele>
      </trkpt>
      <trkpt lat="48.26846" lon="9.8312">
        <ele>495.4</ele>
      </trkpt>
      <trkpt lat="48.26864" lon="9.83102">
        <ele>494.1</ele>
      </trkpt>
      <trkpt lat="48.26879" lon="9.83087">
        <ele>493.2</ele>
      </trkpt>
      <trkpt lat="48.26894" lon="9.83077">
        <ele>492.8</ele>
      </trkpt>
      <trkpt lat="48.26896" lon="9.83076">
        <ele>492.8</ele>
      </trkpt>
      <trkpt lat="48.26918" lon="9.83066">
        <ele>492.6</ele>
      </trkpt>
      <trkpt lat="48.26931" lon="9.8306">
        <ele>492.7</ele>
      </trkpt>
      <trkpt lat="48.26939" lon="9.83058">
        <ele>492.8</ele>
      </trkpt>
      <trkpt lat="48.26992" lon="9.83039">
        <ele>492.8</ele>
      </trkpt>
      <trkpt lat="48.27009" lon="9.83032">
        <ele>492.4</ele>
      </trkpt>
      <trkpt lat="48.27031" lon="9.83021">
        <ele>491.5</ele>
      </trkpt>
      <trkpt lat="48.27032" lon="9.83021">
        <ele>491.4</ele>
      </trkpt>
      <trkpt lat="48.27054" lon="9.8301">
        <ele>490.7</ele>
      </trkpt>
      <trkpt lat="48.27067" lon="9.83003">
        <ele>490.3</ele>
      </trkpt>
      <trkpt lat="48.27082" lon="9.82996">
        <ele>490</ele>
      </trkpt>
      <trkpt lat="48.2709" lon="9.82992">
        <ele>490</ele>
      </trkpt>
      <trkpt lat="48.27097" lon="9.82989">
        <ele>490</ele>
      </trkpt>
      <trkpt lat="48.2711" lon="9.82984">
        <ele>490.1</ele>
      </trkpt>
      <trkpt lat="48.27132" lon="9.82976">
        <ele>490.2</ele>
      </trkpt>
      <trkpt lat="48.27152" lon="9.82968">
        <ele>490.3</ele>
      </trkpt>
      <trkpt lat="48.27153" lon="9.82968">
        <ele>490.3</ele>
      </trkpt>
      <trkpt lat="48.27171" lon="9.82966">
        <ele>490.3</ele>
      </trkpt>
      <trkpt lat="48.27173" lon="9.82968">
        <ele>490.3</ele>
      </trkpt>
      <trkpt lat="48.27214" lon="9.82947">
        <ele>489.7</ele>
      </trkpt>
      <trkpt lat="48.27221" lon="9.82943">
        <ele>489.6</ele>
      </trkpt>
      <trkpt lat="48.27239" lon="9.8293">
        <ele>489.2</ele>
      </trkpt>
      <trkpt lat="48.27262" lon="9.8291">
        <ele>488.7</ele>
      </trkpt>
      <trkpt lat="48.27265" lon="9.82909">
        <ele>488.6</ele>
      </trkpt>
      <trkpt lat="48.27269" lon="9.82909">
        <ele>488.6</ele>
      </trkpt>
      <trkpt lat="48.27275" lon="9.82907">
        <ele>488.4</ele>
      </trkpt>
      <trkpt lat="48.2728" lon="9.82903">
        <ele>488.3</ele>
      </trkpt>
      <trkpt lat="48.27297" lon="9.82942">
        <ele>488.2</ele>
      </trkpt>
      <trkpt lat="48.27302" lon="9.82937">
        <ele>488.1</ele>
      </trkpt>
      <trkpt lat="48.27339" lon="9.83016">
        <ele>488.7</ele>
      </trkpt>
      <trkpt lat="48.27371" lon="9.8307">
        <ele>487.6</ele>
      </trkpt>
      <trkpt lat="48.27385" lon="9.83083">
        <ele>487.4</ele>
      </trkpt>
      <trkpt lat="48.27392" lon="9.83091">
        <ele>487.3</ele>
      </trkpt>
      <trkpt lat="48.274" lon="9.83103">
        <ele>487.2</ele>
      </trkpt>
      <trkpt lat="48.27417" lon="9.83116">
        <ele>487</ele>
      </trkpt>
      <trkpt lat="48.2742" lon="9.83123">
        <ele>486.9</ele>
      </trkpt>
      <trkpt lat="48.27428" lon="9.83139">
        <ele>486.8</ele>
      </trkpt>
      <trkpt lat="48.27435" lon="9.83151">
        <ele>486.7</ele>
      </trkpt>
      <trkpt lat="48.27459" lon="9.83179">
        <ele>486.5</ele>
      </trkpt>
      <trkpt lat="48.27506" lon="9.83241">
        <ele>487</ele>
      </trkpt>
      <trkpt lat="48.27524" lon="9.83264">
        <ele>487.1</ele>
      </trkpt>
      <trkpt lat="48.27534" lon="9.83271">
        <ele>487</ele>
      </trkpt>
      <trkpt lat="48.27547" lon="9.83276">
        <ele>487.1</ele>
      </trkpt>
      <trkpt lat="48.27557" lon="9.83286">
        <ele>486.9</ele>
      </trkpt>
      <trkpt lat="48.27569" lon="9.83302">
        <ele>486.7</ele>
      </trkpt>
      <trkpt lat="48.27581" lon="9.83316">
        <ele>486.4</ele>
      </trkpt>
      <trkpt lat="48.2761" lon="9.83343">
        <ele>485.9</ele>
      </trkpt>
      <trkpt lat="48.27668" lon="9.83401">
        <ele>484.4</ele>
      </trkpt>
      <trkpt lat="48.27747" lon="9.83494">
        <ele>486.8</ele>
      </trkpt>
      <trkpt lat="48.2781" lon="9.83582">
        <ele>484.9</ele>
      </trkpt>
      <trkpt lat="48.27817" lon="9.83587">
        <ele>484.5</ele>
      </trkpt>
      <trkpt lat="48.27823" lon="9.83588">
        <ele>484.3</ele>
      </trkpt>
      <trkpt lat="48.27827" lon="9.83591">
        <ele>484.1</ele>
      </trkpt>
      <trkpt lat="48.2783" lon="9.83594">
        <ele>484</ele>
      </trkpt>
      <trkpt lat="48.27833" lon="9.83596">
        <ele>483.9</ele>
      </trkpt>
      <trkpt lat="48.27838" lon="9.83609">
        <ele>483.7</ele>
      </trkpt>
      <trkpt lat="48.27841" lon="9.83623">
        <ele>483.6</ele>
      </trkpt>
      <trkpt lat="48.27846" lon="9.83633">
        <ele>483.6</ele>
      </trkpt>
      <trkpt lat="48.27852" lon="9.83643">
        <ele>483.6</ele>
      </trkpt>
      <trkpt lat="48.27871" lon="9.8367">
        <ele>483.9</ele>
      </trkpt>
      <trkpt lat="48.27901" lon="9.83719">
        <ele>484.2</ele>
      </trkpt>
      <trkpt lat="48.27946" lon="9.838">
        <ele>483.5</ele>
      </trkpt>
      <trkpt lat="48.27983" lon="9.83869">
        <ele>484.3</ele>
      </trkpt>
      <trkpt lat="48.28012" lon="9.8392">
        <ele>484.7</ele>
      </trkpt>
      <trkpt lat="48.28025" lon="9.83939">
        <ele>484.4</ele>
      </trkpt>
      <trkpt lat="48.28034" lon="9.8395">
        <ele>484.2</ele>
      </trkpt>
      <trkpt lat="48.28043" lon="9.83956">
        <ele>484</ele>
      </trkpt>
      <trkpt lat="48.2805" lon="9.83959">
        <ele>483.8</ele>
      </trkpt>
      <trkpt lat="48.2806" lon="9.83965">
        <ele>483.6</ele>
      </trkpt>
      <trkpt lat="48.28064" lon="9.8397">
        <ele>483.5</ele>
      </trkpt>
      <trkpt lat="48.28068" lon="9.83978">
        <ele>483.4</ele>
      </trkpt>
      <trkpt lat="48.28075" lon="9.84">
        <ele>483.2</ele>
      </trkpt>
      <trkpt lat="48.28086" lon="9.84013">
        <ele>483</ele>
      </trkpt>
      <trkpt lat="48.2814" lon="9.84075">
        <ele>484.2</ele>
      </trkpt>
      <trkpt lat="48.28166" lon="9.84101">
        <ele>484.8</ele>
      </trkpt>
      <trkpt lat="48.28191" lon="9.84125">
        <ele>484.2</ele>
      </trkpt>
      <trkpt lat="48.2824" lon="9.84168">
        <ele>483.1</ele>
      </trkpt>
      <trkpt lat="48.28274" lon="9.84203">
        <ele>483.2</ele>
      </trkpt>
      <trkpt lat="48.28286" lon="9.84216">
        <ele>483.2</ele>
      </trkpt>
      <trkpt lat="48.28294" lon="9.84223">
        <ele>483.2</ele>
      </trkpt>
      <trkpt lat="48.28303" lon="9.84226">
        <ele>483.2</ele>
      </trkpt>
      <trkpt lat="48.28311" lon="9.84231">
        <ele>483.2</ele>
      </trkpt>
      <trkpt lat="48.28318" lon="9.84236">
        <ele>483.1</ele>
      </trkpt>
      <trkpt lat="48.28323" lon="9.84251">
        <ele>483</ele>
      </trkpt>
      <trkpt lat="48.28329" lon="9.84271">
        <ele>482.8</ele>
      </trkpt>
      <trkpt lat="48.28419" lon="9.84375">
        <ele>481.5</ele>
      </trkpt>
      <trkpt lat="48.28524" lon="9.84492">
        <ele>481.8</ele>
      </trkpt>
      <trkpt lat="48.28679" lon="9.84671">
        <ele>482</ele>
      </trkpt>
      <trkpt lat="48.28794" lon="9.84794">
        <ele>481.8</ele>
      </trkpt>
      <trkpt lat="48.28813" lon="9.84818">
        <ele>482.5</ele>
      </trkpt>
      <trkpt lat="48.28837" lon="9.84844">
        <ele>483</ele>
      </trkpt>
      <trkpt lat="48.28873" lon="9.84878">
        <ele>482.8</ele>
      </trkpt>
      <trkpt lat="48.28883" lon="9.84884">
        <ele>482.8</ele>
      </trkpt>
      <trkpt lat="48.28895" lon="9.84888">
        <ele>482.7</ele>
      </trkpt>
      <trkpt lat="48.28898" lon="9.84893">
        <ele>482.8</ele>
      </trkpt>
      <trkpt lat="48.28899" lon="9.84896">
        <ele>482.8</ele>
      </trkpt>
      <trkpt lat="48.28898" lon="9.84904">
        <ele>482.9</ele>
      </trkpt>
      <trkpt lat="48.28932" lon="9.84944">
        <ele>483.1</ele>
      </trkpt>
      <trkpt lat="48.2894" lon="9.84954">
        <ele>483.2</ele>
      </trkpt>
      <trkpt lat="48.28939" lon="9.84961">
        <ele>483.3</ele>
      </trkpt>
      <trkpt lat="48.28942" lon="9.84965">
        <ele>483.3</ele>
      </trkpt>
      <trkpt lat="48.28961" lon="9.84986">
        <ele>483.3</ele>
      </trkpt>
      <trkpt lat="48.28964" lon="9.84989">
        <ele>483.3</ele>
      </trkpt>
      <trkpt lat="48.28984" lon="9.85012">
        <ele>483.1</ele>
      </trkpt>
      <trkpt lat="48.28996" lon="9.85025">
        <ele>482.8</ele>
      </trkpt>
      <trkpt lat="48.29029" lon="9.85062">
        <ele>482.5</ele>
      </trkpt>
      <trkpt lat="48.29033" lon="9.85069">
        <ele>482.5</ele>
      </trkpt>
      <trkpt lat="48.29049" lon="9.85092">
        <ele>482.7</ele>
      </trkpt>
      <trkpt lat="48.29051" lon="9.85094">
        <ele>482.7</ele>
      </trkpt>
      <trkpt lat="48.29066" lon="9.85116">
        <ele>483.2</ele>
      </trkpt>
      <trkpt lat="48.29073" lon="9.85124">
        <ele>483.4</ele>
      </trkpt>
      <trkpt lat="48.29076" lon="9.85127">
        <ele>483.4</ele>
      </trkpt>
      <trkpt lat="48.29078" lon="9.8513">
        <ele>483.5</ele>
      </trkpt>
      <trkpt lat="48.29088" lon="9.85138">
        <ele>483.6</ele>
      </trkpt>
      <trkpt lat="48.29096" lon="9.85141">
        <ele>483.5</ele>
      </trkpt>
      <trkpt lat="48.29105" lon="9.85142">
        <ele>483.3</ele>
      </trkpt>
      <trkpt lat="48.2911" lon="9.85143">
        <ele>483.3</ele>
      </trkpt>
      <trkpt lat="48.29119" lon="9.85141">
        <ele>483.1</ele>
      </trkpt>
      <trkpt lat="48.29128" lon="9.85137">
        <ele>483</ele>
      </trkpt>
      <trkpt lat="48.2916" lon="9.85115">
        <ele>482.7</ele>
      </trkpt>
      <trkpt lat="48.29174" lon="9.85105">
        <ele>482.6</ele>
      </trkpt>
      <trkpt lat="48.29181" lon="9.85099">
        <ele>482.5</ele>
      </trkpt>
      <trkpt lat="48.29203" lon="9.85081">
        <ele>482.2</ele>
      </trkpt>
      <trkpt lat="48.2921" lon="9.85082">
        <ele>482</ele>
      </trkpt>
      <trkpt lat="48.29237" lon="9.85055">
        <ele>481.7</ele>
      </trkpt>
      <trkpt lat="48.29278" lon="9.8501">
        <ele>482.2</ele>
      </trkpt>
      <trkpt lat="48.29301" lon="9.84988">
        <ele>482.7</ele>
      </trkpt>
      <trkpt lat="48.29322" lon="9.84973">
        <ele>482.9</ele>
      </trkpt>
      <trkpt lat="48.29343" lon="9.84965">
        <ele>483</ele>
      </trkpt>
      <trkpt lat="48.29392" lon="9.84954">
        <ele>482.6</ele>
      </trkpt>
      <trkpt lat="48.29434" lon="9.84947">
        <ele>482.8</ele>
      </trkpt>
      <trkpt lat="48.29485" lon="9.84933">
        <ele>484.3</ele>
      </trkpt>
      <trkpt lat="48.29524" lon="9.84915">
        <ele>484.1</ele>
      </trkpt>
      <trkpt lat="48.29573" lon="9.84885">
        <ele>482.6</ele>
      </trkpt>
      <trkpt lat="48.296" lon="9.84862">
        <ele>482.5</ele>
      </trkpt>
      <trkpt lat="48.29616" lon="9.84849">
        <ele>482.5</ele>
      </trkpt>
      <trkpt lat="48.29624" lon="9.8484">
        <ele>482.5</ele>
      </trkpt>
      <trkpt lat="48.29627" lon="9.84834">
        <ele>482.5</ele>
      </trkpt>
      <trkpt lat="48.29637" lon="9.84825">
        <ele>482.2</ele>
      </trkpt>
      <trkpt lat="48.29699" lon="9.84774">
        <ele>483.9</ele>
      </trkpt>
      <trkpt lat="48.2976" lon="9.84726">
        <ele>486.6</ele>
      </trkpt>
      <trkpt lat="48.29799" lon="9.84698">
        <ele>483.6</ele>
      </trkpt>
      <trkpt lat="48.29839" lon="9.84687">
        <ele>481.6</ele>
      </trkpt>
      <trkpt lat="48.29863" lon="9.8467">
        <ele>481.8</ele>
      </trkpt>
      <trkpt lat="48.29878" lon="9.84655">
        <ele>481.9</ele>
      </trkpt>
      <trkpt lat="48.29887" lon="9.84649">
        <ele>482</ele>
      </trkpt>
      <trkpt lat="48.29916" lon="9.84634">
        <ele>482.6</ele>
      </trkpt>
      <trkpt lat="48.2993" lon="9.84625">
        <ele>482.2</ele>
      </trkpt>
      <trkpt lat="48.29939" lon="9.84618">
        <ele>481.9</ele>
      </trkpt>
      <trkpt lat="48.29937" lon="9.84615">
        <ele>481.9</ele>
      </trkpt>
      <trkpt lat="48.29933" lon="9.84608">
        <ele>481.9</ele>
      </trkpt>
      <trkpt lat="48.29817" lon="9.84481">
        <ele>480.7</ele>
      </trkpt>
      <trkpt lat="48.29802" lon="9.84465">
        <ele>481.1</ele>
      </trkpt>
      <trkpt lat="48.29709" lon="9.84364">
        <ele>480.8</ele>
      </trkpt>
      <trkpt lat="48.29707" lon="9.84353">
        <ele>480.9</ele>
      </trkpt>
      <trkpt lat="48.29788" lon="9.84235">
        <ele>481.5</ele>
      </trkpt>
      <trkpt lat="48.29811" lon="9.84191">
        <ele>481.7</ele>
      </trkpt>
      <trkpt lat="48.29821" lon="9.8416">
        <ele>481.8</ele>
      </trkpt>
      <trkpt lat="48.29828" lon="9.84103">
        <ele>481.2</ele>
      </trkpt>
      <trkpt lat="48.29819" lon="9.84008">
        <ele>480.8</ele>
      </trkpt>
      <trkpt lat="48.29816" lon="9.8398">
        <ele>480.6</ele>
      </trkpt>
      <trkpt lat="48.29813" lon="9.8397">
        <ele>480.5</ele>
      </trkpt>
      <trkpt lat="48.29789" lon="9.83909">
        <ele>480</ele>
      </trkpt>
      <trkpt lat="48.29788" lon="9.8389">
        <ele>480</ele>
      </trkpt>
      <trkpt lat="48.29792" lon="9.83847">
        <ele>480</ele>
      </trkpt>
      <trkpt lat="48.29808" lon="9.83696">
        <ele>481.3</ele>
      </trkpt>
      <trkpt lat="48.29815" lon="9.83643">
        <ele>481.7</ele>
      </trkpt>
      <trkpt lat="48.29823" lon="9.83627">
        <ele>482</ele>
      </trkpt>
      <trkpt lat="48.29847" lon="9.83622">
        <ele>482.5</ele>
      </trkpt>
      <trkpt lat="48.29885" lon="9.83632">
        <ele>483.3</ele>
      </trkpt>
      <trkpt lat="48.29905" lon="9.83642">
        <ele>483.6</ele>
      </trkpt>
      <trkpt lat="48.29919" lon="9.83638">
        <ele>484</ele>
      </trkpt>
      <trkpt lat="48.29923" lon="9.83653">
        <ele>483.6</ele>
      </trkpt>
      <trkpt lat="48.29931" lon="9.83649">
        <ele>483.7</ele>
      </trkpt>
      <trkpt lat="48.2994" lon="9.83651">
        <ele>483.7</ele>
      </trkpt>
      <trkpt lat="48.30014" lon="9.8366">
        <ele>484.4</ele>
      </trkpt>
      <trkpt lat="48.30037" lon="9.83663">
        <ele>484.9</ele>
      </trkpt>
      <trkpt lat="48.30064" lon="9.83667">
        <ele>485.5</ele>
      </trkpt>
      <trkpt lat="48.30112" lon="9.83674">
        <ele>486.9</ele>
      </trkpt>
      <trkpt lat="48.30124" lon="9.83676">
        <ele>487.2</ele>
      </trkpt>
      <trkpt lat="48.30134" lon="9.8368">
        <ele>487.5</ele>
      </trkpt>
      <trkpt lat="48.30151" lon="9.83682">
        <ele>488</ele>
      </trkpt>
      <trkpt lat="48.3018" lon="9.83686">
        <ele>488.7</ele>
      </trkpt>
      <trkpt lat="48.30184" lon="9.8365">
        <ele>489.2</ele>
      </trkpt>
      <trkpt lat="48.30185" lon="9.83632">
        <ele>489.1</ele>
      </trkpt>
      <trkpt lat="48.30186" lon="9.83627">
        <ele>489.1</ele>
      </trkpt>
      <trkpt lat="48.3019" lon="9.83587">
        <ele>489</ele>
      </trkpt>
      <trkpt lat="48.3019" lon="9.83584">
        <ele>489</ele>
      </trkpt>
      <trkpt lat="48.30194" lon="9.83545">
        <ele>489.1</ele>
      </trkpt>
      <trkpt lat="48.30199" lon="9.83493">
        <ele>489.3</ele>
      </trkpt>
      <trkpt lat="48.30203" lon="9.83455">
        <ele>488.9</ele>
      </trkpt>
      <trkpt lat="48.30203" lon="9.83445">
        <ele>488.8</ele>
      </trkpt>
      <trkpt lat="48.30208" lon="9.83446">
        <ele>488.8</ele>
      </trkpt>
      <trkpt lat="48.30214" lon="9.83448">
        <ele>488.9</ele>
      </trkpt>
      <trkpt lat="48.30215" lon="9.83449">
        <ele>489</ele>
      </trkpt>
      <trkpt lat="48.30226" lon="9.83456">
        <ele>489.2</ele>
      </trkpt>
      <trkpt lat="48.30256" lon="9.83477">
        <ele>490.4</ele>
      </trkpt>
      <trkpt lat="48.30264" lon="9.83483">
        <ele>491.3</ele>
      </trkpt>
      <trkpt lat="48.30276" lon="9.83492">
        <ele>493</ele>
      </trkpt>
      <trkpt lat="48.30286" lon="9.835">
        <ele>494.3</ele>
      </trkpt>
      <trkpt lat="48.30303" lon="9.83512">
        <ele>496.4</ele>
      </trkpt>
      <trkpt lat="48.30319" lon="9.83523">
        <ele>498.4</ele>
      </trkpt>
      <trkpt lat="48.30322" lon="9.83537">
        <ele>498.9</ele>
      </trkpt>
      <trkpt lat="48.30323" lon="9.83548">
        <ele>499.1</ele>
      </trkpt>
      <trkpt lat="48.30322" lon="9.83554">
        <ele>499.1</ele>
      </trkpt>
      <trkpt lat="48.30321" lon="9.83561">
        <ele>499.1</ele>
      </trkpt>
      <trkpt lat="48.30318" lon="9.83603">
        <ele>498.7</ele>
      </trkpt>
      <trkpt lat="48.30319" lon="9.83613">
        <ele>498.7</ele>
      </trkpt>
      <trkpt lat="48.30319" lon="9.83622">
        <ele>498.7</ele>
      </trkpt>
      <trkpt lat="48.30321" lon="9.83631">
        <ele>498.8</ele>
      </trkpt>
      <trkpt lat="48.30324" lon="9.83642">
        <ele>499.1</ele>
      </trkpt>
      <trkpt lat="48.30331" lon="9.83655">
        <ele>499.9</ele>
      </trkpt>
      <trkpt lat="48.30355" lon="9.83686">
        <ele>503.7</ele>
      </trkpt>
      <trkpt lat="48.30375" lon="9.83708">
        <ele>506.7</ele>
      </trkpt>
      <trkpt lat="48.30384" lon="9.83719">
        <ele>507.9</ele>
      </trkpt>
      <trkpt lat="48.30399" lon="9.83737">
        <ele>509.5</ele>
      </trkpt>
      <trkpt lat="48.30418" lon="9.83773">
        <ele>512.5</ele>
      </trkpt>
      <trkpt lat="48.30439" lon="9.83813">
        <ele>516.4</ele>
      </trkpt>
      <trkpt lat="48.30452" lon="9.83836">
        <ele>518.1</ele>
      </trkpt>
      <trkpt lat="48.3048" lon="9.83886">
        <ele>519.9</ele>
      </trkpt>
      <trkpt lat="48.30492" lon="9.83904">
        <ele>520.6</ele>
      </trkpt>
      <trkpt lat="48.30498" lon="9.83911">
        <ele>520.9</ele>
      </trkpt>
      <trkpt lat="48.30504" lon="9.83919">
        <ele>521.2</ele>
      </trkpt>
      <trkpt lat="48.30506" lon="9.83923">
        <ele>521.4</ele>
      </trkpt>
      <trkpt lat="48.30508" lon="9.83931">
        <ele>521.5</ele>
      </trkpt>
      <trkpt lat="48.30518" lon="9.83947">
        <ele>522.1</ele>
      </trkpt>
      <trkpt lat="48.30577" lon="9.84092">
        <ele>523.5</ele>
      </trkpt>
      <trkpt lat="48.30593" lon="9.84134">
        <ele>524.4</ele>
      </trkpt>
      <trkpt lat="48.306" lon="9.84157">
        <ele>524.9</ele>
      </trkpt>
      <trkpt lat="48.30609" lon="9.84187">
        <ele>525.7</ele>
      </trkpt>
      <trkpt lat="48.3062" lon="9.84208">
        <ele>526.7</ele>
      </trkpt>
      <trkpt lat="48.30638" lon="9.84232">
        <ele>528.4</ele>
      </trkpt>
      <trkpt lat="48.30654" lon="9.84256">
        <ele>529.9</ele>
      </trkpt>
      <trkpt lat="48.30667" lon="9.8428">
        <ele>531.8</ele>
      </trkpt>
      <trkpt lat="48.30689" lon="9.84322">
        <ele>533.9</ele>
      </trkpt>
      <trkpt lat="48.30704" lon="9.84355">
        <ele>534.2</ele>
      </trkpt>
      <trkpt lat="48.30743" lon="9.84448">
        <ele>535.5</ele>
      </trkpt>
      <trkpt lat="48.30762" lon="9.84484">
        <ele>536.6</ele>
      </trkpt>
      <trkpt lat="48.30781" lon="9.84528">
        <ele>536.6</ele>
      </trkpt>
      <trkpt lat="48.30802" lon="9.84574">
        <ele>536.4</ele>
      </trkpt>
      <trkpt lat="48.30835" lon="9.84633">
        <ele>536.2</ele>
      </trkpt>
      <trkpt lat="48.30872" lon="9.84697">
        <ele>534.4</ele>
      </trkpt>
      <trkpt lat="48.30921" lon="9.84777">
        <ele>532.6</ele>
      </trkpt>
      <trkpt lat="48.3097" lon="9.84851">
        <ele>529.2</ele>
      </trkpt>
      <trkpt lat="48.31013" lon="9.84917">
        <ele>527.9</ele>
      </trkpt>
      <trkpt lat="48.31032" lon="9.84951">
        <ele>524.5</ele>
      </trkpt>
      <trkpt lat="48.31052" lon="9.84981">
        <ele>521.9</ele>
      </trkpt>
      <trkpt lat="48.31061" lon="9.84993">
        <ele>521.1</ele>
      </trkpt>
      <trkpt lat="48.31067" lon="9.84999">
        <ele>520.6</ele>
      </trkpt>
      <trkpt lat="48.31073" lon="9.85004">
        <ele>520.4</ele>
      </trkpt>
      <trkpt lat="48.31081" lon="9.85008">
        <ele>520.1</ele>
      </trkpt>
      <trkpt lat="48.3109" lon="9.85009">
        <ele>520.3</ele>
      </trkpt>
      <trkpt lat="48.31107" lon="9.85007">
        <ele>521.1</ele>
      </trkpt>
      <trkpt lat="48.31118" lon="9.85008">
        <ele>521.6</ele>
      </trkpt>
      <trkpt lat="48.31124" lon="9.85011">
        <ele>521.9</ele>
      </trkpt>
      <trkpt lat="48.31129" lon="9.85015">
        <ele>522.1</ele>
      </trkpt>
      <trkpt lat="48.31135" lon="9.85025">
        <ele>522.3</ele>
      </trkpt>
      <trkpt lat="48.31137" lon="9.85045">
        <ele>522.2</ele>
      </trkpt>
      <trkpt lat="48.3114" lon="9.85061">
        <ele>522.2</ele>
      </trkpt>
      <trkpt lat="48.3115" lon="9.85092">
        <ele>522.3</ele>
      </trkpt>
      <trkpt lat="48.31164" lon="9.85128">
        <ele>522.4</ele>
      </trkpt>
      <trkpt lat="48.31182" lon="9.85165">
        <ele>522.4</ele>
      </trkpt>
      <trkpt lat="48.31196" lon="9.85194">
        <ele>522.2</ele>
      </trkpt>
      <trkpt lat="48.3121" lon="9.85216">
        <ele>522.2</ele>
      </trkpt>
      <trkpt lat="48.31222" lon="9.85233">
        <ele>522.3</ele>
      </trkpt>
      <trkpt lat="48.31232" lon="9.85244">
        <ele>522.4</ele>
      </trkpt>
      <trkpt lat="48.31241" lon="9.85254">
        <ele>522.5</ele>
      </trkpt>
      <trkpt lat="48.31278" lon="9.8529">
        <ele>522.9</ele>
      </trkpt>
      <trkpt lat="48.31329" lon="9.85361">
        <ele>525.6</ele>
      </trkpt>
      <trkpt lat="48.31347" lon="9.85389">
        <ele>526.1</ele>
      </trkpt>
      <trkpt lat="48.31386" lon="9.85462">
        <ele>525.1</ele>
      </trkpt>
      <trkpt lat="48.31407" lon="9.85503">
        <ele>524.7</ele>
      </trkpt>
      <trkpt lat="48.31425" lon="9.85551">
        <ele>523.6</ele>
      </trkpt>
      <trkpt lat="48.31427" lon="9.85562">
        <ele>523.1</ele>
      </trkpt>
      <trkpt lat="48.31427" lon="9.85575">
        <ele>522.9</ele>
      </trkpt>
      <trkpt lat="48.31426" lon="9.85602">
        <ele>521.7</ele>
      </trkpt>
      <trkpt lat="48.31419" lon="9.85619">
        <ele>521.2</ele>
      </trkpt>
      <trkpt lat="48.31416" lon="9.85624">
        <ele>521</ele>
      </trkpt>
      <trkpt lat="48.3141" lon="9.85637">
        <ele>519.9</ele>
      </trkpt>
      <trkpt lat="48.31405" lon="9.85645">
        <ele>519.2</ele>
      </trkpt>
      <trkpt lat="48.31401" lon="9.85652">
        <ele>518.7</ele>
      </trkpt>
      <trkpt lat="48.31392" lon="9.85667">
        <ele>517.4</ele>
      </trkpt>
      <trkpt lat="48.31388" lon="9.85673">
        <ele>516.7</ele>
      </trkpt>
      <trkpt lat="48.31384" lon="9.8568">
        <ele>516</ele>
      </trkpt>
      <trkpt lat="48.3138" lon="9.8569">
        <ele>515.1</ele>
      </trkpt>
      <trkpt lat="48.31377" lon="9.85702">
        <ele>514.1</ele>
      </trkpt>
      <trkpt lat="48.31376" lon="9.85713">
        <ele>513.1</ele>
      </trkpt>
      <trkpt lat="48.31375" lon="9.85725">
        <ele>512.1</ele>
      </trkpt>
      <trkpt lat="48.31375" lon="9.85734">
        <ele>511.4</ele>
      </trkpt>
      <trkpt lat="48.31377" lon="9.8574">
        <ele>510.8</ele>
      </trkpt>
      <trkpt lat="48.31395" lon="9.85766">
        <ele>507.9</ele>
      </trkpt>
      <trkpt lat="48.314" lon="9.85777">
        <ele>506.7</ele>
      </trkpt>
      <trkpt lat="48.31404" lon="9.85789">
        <ele>505.5</ele>
      </trkpt>
      <trkpt lat="48.31406" lon="9.85802">
        <ele>504.1</ele>
      </trkpt>
      <trkpt lat="48.31412" lon="9.85837">
        <ele>500.8</ele>
      </trkpt>
      <trkpt lat="48.31419" lon="9.85877">
        <ele>498.9</ele>
      </trkpt>
      <trkpt lat="48.31424" lon="9.85919">
        <ele>496.7</ele>
      </trkpt>
      <trkpt lat="48.31428" lon="9.85951">
        <ele>494.4</ele>
      </trkpt>
      <trkpt lat="48.31431" lon="9.85976">
        <ele>492.6</ele>
      </trkpt>
      <trkpt lat="48.3143" lon="9.85991">
        <ele>491.6</ele>
      </trkpt>
      <trkpt lat="48.3143" lon="9.85997">
        <ele>491.2</ele>
      </trkpt>
      <trkpt lat="48.31427" lon="9.86009">
        <ele>490.7</ele>
      </trkpt>
      <trkpt lat="48.31425" lon="9.86017">
        <ele>490.3</ele>
      </trkpt>
      <trkpt lat="48.31423" lon="9.86023">
        <ele>490.1</ele>
      </trkpt>
      <trkpt lat="48.31411" lon="9.86059">
        <ele>488.1</ele>
      </trkpt>
      <trkpt lat="48.31408" lon="9.86066">
        <ele>487.7</ele>
      </trkpt>
      <trkpt lat="48.31405" lon="9.86076">
        <ele>487</ele>
      </trkpt>
      <trkpt lat="48.31413" lon="9.86102">
        <ele>486.9</ele>
      </trkpt>
      <trkpt lat="48.31423" lon="9.86118">
        <ele>487.8</ele>
      </trkpt>
      <trkpt lat="48.31426" lon="9.86123">
        <ele>488.4</ele>
      </trkpt>
      <trkpt lat="48.31436" lon="9.86128">
        <ele>489.9</ele>
      </trkpt>
      <trkpt lat="48.31445" lon="9.86137">
        <ele>491.8</ele>
      </trkpt>
      <trkpt lat="48.31452" lon="9.86145">
        <ele>493.4</ele>
      </trkpt>
      <trkpt lat="48.31474" lon="9.86136">
        <ele>496.6</ele>
      </trkpt>
      <trkpt lat="48.31502" lon="9.86116">
        <ele>498.5</ele>
      </trkpt>
      <trkpt lat="48.31507" lon="9.86114">
        <ele>498.9</ele>
      </trkpt>
      <trkpt lat="48.31527" lon="9.86105">
        <ele>500.2</ele>
      </trkpt>
      <trkpt lat="48.31554" lon="9.86094">
        <ele>502</ele>
      </trkpt>
      <trkpt lat="48.3162" lon="9.86089">
        <ele>509.5</ele>
      </trkpt>
      <trkpt lat="48.31648" lon="9.86098">
        <ele>513.5</ele>
      </trkpt>
      <trkpt lat="48.31652" lon="9.86099">
        <ele>514</ele>
      </trkpt>
      <trkpt lat="48.31665" lon="9.86099">
        <ele>515.4</ele>
      </trkpt>
      <trkpt lat="48.31675" lon="9.86095">
        <ele>516.6</ele>
      </trkpt>
      <trkpt lat="48.31674" lon="9.8614">
        <ele>517.8</ele>
      </trkpt>
      <trkpt lat="48.31675" lon="9.86173">
        <ele>519.2</ele>
      </trkpt>
      <trkpt lat="48.31679" lon="9.86201">
        <ele>521.7</ele>
      </trkpt>
      <trkpt lat="48.31683" lon="9.86226">
        <ele>523.8</ele>
      </trkpt>
      <trkpt lat="48.317" lon="9.86256">
        <ele>526.6</ele>
      </trkpt>
      <trkpt lat="48.31713" lon="9.86268">
        <ele>527.7</ele>
      </trkpt>
      <trkpt lat="48.31729" lon="9.86283">
        <ele>528.6</ele>
      </trkpt>
      <trkpt lat="48.31736" lon="9.86298">
        <ele>529.2</ele>
      </trkpt>
      <trkpt lat="48.31745" lon="9.86333">
        <ele>530.2</ele>
      </trkpt>
      <trkpt lat="48.31745" lon="9.86335">
        <ele>530.2</ele>
      </trkpt>
      <trkpt lat="48.31753" lon="9.8636">
        <ele>530.9</ele>
      </trkpt>
      <trkpt lat="48.3176" lon="9.86393">
        <ele>532</ele>
      </trkpt>
      <trkpt lat="48.31788" lon="9.86479">
        <ele>533.6</ele>
      </trkpt>
      <trkpt lat="48.31796" lon="9.86507">
        <ele>534.1</ele>
      </trkpt>
      <trkpt lat="48.31808" lon="9.86567">
        <ele>535.1</ele>
      </trkpt>
      <trkpt lat="48.31832" lon="9.8667">
        <ele>536.9</ele>
      </trkpt>
      <trkpt lat="48.31872" lon="9.86842">
        <ele>534.1</ele>
      </trkpt>
      <trkpt lat="48.31887" lon="9.86913">
        <ele>533.1</ele>
      </trkpt>
      <trkpt lat="48.3193" lon="9.87187">
        <ele>528.6</ele>
      </trkpt>
      <trkpt lat="48.31799" lon="9.87247">
        <ele>525.8</ele>
      </trkpt>
      <trkpt lat="48.31799" lon="9.8726">
        <ele>525</ele>
      </trkpt>
      <trkpt lat="48.31801" lon="9.87278">
        <ele>523.4</ele>
      </trkpt>
      <trkpt lat="48.31806" lon="9.87301">
        <ele>522.1</ele>
      </trkpt>
      <trkpt lat="48.31873" lon="9.8745">
        <ele>524.2</ele>
      </trkpt>
      <trkpt lat="48.31893" lon="9.87482">
        <ele>526.3</ele>
      </trkpt>
      <trkpt lat="48.31901" lon="9.87506">
        <ele>527.1</ele>
      </trkpt>
      <trkpt lat="48.31904" lon="9.87524">
        <ele>526.3</ele>
      </trkpt>
      <trkpt lat="48.31914" lon="9.87551">
        <ele>526.3</ele>
      </trkpt>
      <trkpt lat="48.31918" lon="9.87557">
        <ele>526.6</ele>
      </trkpt>
      <trkpt lat="48.31917" lon="9.8756">
        <ele>526.4</ele>
      </trkpt>
      <trkpt lat="48.31949" lon="9.87641">
        <ele>525.2</ele>
      </trkpt>
      <trkpt lat="48.31958" lon="9.87685">
        <ele>524.9</ele>
      </trkpt>
      <trkpt lat="48.3196" lon="9.87749">
        <ele>523.4</ele>
      </trkpt>
      <trkpt lat="48.31958" lon="9.87787">
        <ele>521.4</ele>
      </trkpt>
      <trkpt lat="48.31961" lon="9.87799">
        <ele>521.4</ele>
      </trkpt>
      <trkpt lat="48.31966" lon="9.87812">
        <ele>521.8</ele>
      </trkpt>
      <trkpt lat="48.31984" lon="9.87842">
        <ele>524.1</ele>
      </trkpt>
      <trkpt lat="48.32012" lon="9.87868">
        <ele>526.9</ele>
      </trkpt>
      <trkpt lat="48.32019" lon="9.87888">
        <ele>526.4</ele>
      </trkpt>
      <trkpt lat="48.32047" lon="9.87998">
        <ele>523</ele>
      </trkpt>
      <trkpt lat="48.32063" lon="9.8806">
        <ele>520.7</ele>
      </trkpt>
      <trkpt lat="48.32081" lon="9.88081">
        <ele>522.6</ele>
      </trkpt>
      <trkpt lat="48.3209" lon="9.88083">
        <ele>523.7</ele>
      </trkpt>
      <trkpt lat="48.32107" lon="9.88081">
        <ele>525.3</ele>
      </trkpt>
      <trkpt lat="48.32202" lon="9.88052">
        <ele>526.1</ele>
      </trkpt>
      <trkpt lat="48.32217" lon="9.88069">
        <ele>524.6</ele>
      </trkpt>
      <trkpt lat="48.32246" lon="9.88105">
        <ele>521.7</ele>
      </trkpt>
      <trkpt lat="48.32278" lon="9.88146">
        <ele>520.8</ele>
      </trkpt>
      <trkpt lat="48.32289" lon="9.88161">
        <ele>520.9</ele>
      </trkpt>
      <trkpt lat="48.32302" lon="9.88178">
        <ele>520.6</ele>
      </trkpt>
      <trkpt lat="48.32307" lon="9.88185">
        <ele>520.5</ele>
      </trkpt>
      <trkpt lat="48.32317" lon="9.88203">
        <ele>520.4</ele>
      </trkpt>
      <trkpt lat="48.32323" lon="9.88218">
        <ele>520.5</ele>
      </trkpt>
      <trkpt lat="48.32329" lon="9.88236">
        <ele>520.7</ele>
      </trkpt>
      <trkpt lat="48.32332" lon="9.88247">
        <ele>520.9</ele>
      </trkpt>
      <trkpt lat="48.32332" lon="9.8825">
        <ele>521</ele>
      </trkpt>
      <trkpt lat="48.32336" lon="9.88267">
        <ele>520.6</ele>
      </trkpt>
      <trkpt lat="48.3234" lon="9.88291">
        <ele>520.2</ele>
      </trkpt>
      <trkpt lat="48.32359" lon="9.88283">
        <ele>517.5</ele>
      </trkpt>
      <trkpt lat="48.3236" lon="9.88295">
        <ele>517.6</ele>
      </trkpt>
      <trkpt lat="48.32364" lon="9.88383">
        <ele>518.9</ele>
      </trkpt>
      <trkpt lat="48.32373" lon="9.88463">
        <ele>519.9</ele>
      </trkpt>
      <trkpt lat="48.32381" lon="9.88471">
        <ele>519</ele>
      </trkpt>
      <trkpt lat="48.3239" lon="9.88479">
        <ele>518.1</ele>
      </trkpt>
      <trkpt lat="48.32432" lon="9.88536">
        <ele>515.1</ele>
      </trkpt>
      <trkpt lat="48.32485" lon="9.88622">
        <ele>510.8</ele>
      </trkpt>
      <trkpt lat="48.32556" lon="9.88741">
        <ele>505.3</ele>
      </trkpt>
      <trkpt lat="48.32594" lon="9.88832">
        <ele>502</ele>
      </trkpt>
      <trkpt lat="48.32615" lon="9.8888">
        <ele>498.9</ele>
      </trkpt>
      <trkpt lat="48.32626" lon="9.88906">
        <ele>497.7</ele>
      </trkpt>
      <trkpt lat="48.32652" lon="9.88968">
        <ele>494.2</ele>
      </trkpt>
      <trkpt lat="48.32658" lon="9.88981">
        <ele>493.3</ele>
      </trkpt>
      <trkpt lat="48.32654" lon="9.88993">
        <ele>493.1</ele>
      </trkpt>
      <trkpt lat="48.32655" lon="9.89012">
        <ele>492.3</ele>
      </trkpt>
      <trkpt lat="48.32655" lon="9.89018">
        <ele>492</ele>
      </trkpt>
      <trkpt lat="48.32655" lon="9.89025">
        <ele>491.6</ele>
      </trkpt>
      <trkpt lat="48.32656" lon="9.89053">
        <ele>490.2</ele>
      </trkpt>
      <trkpt lat="48.32656" lon="9.89058">
        <ele>490</ele>
      </trkpt>
      <trkpt lat="48.32656" lon="9.89067">
        <ele>489.5</ele>
      </trkpt>
      <trkpt lat="48.32656" lon="9.89072">
        <ele>489.3</ele>
      </trkpt>
      <trkpt lat="48.32656" lon="9.89093">
        <ele>488.2</ele>
      </trkpt>
      <trkpt lat="48.32656" lon="9.89116">
        <ele>486.9</ele>
      </trkpt>
      <trkpt lat="48.32654" lon="9.89132">
        <ele>486.1</ele>
      </trkpt>
      <trkpt lat="48.32653" lon="9.8914">
        <ele>485.6</ele>
      </trkpt>
      <trkpt lat="48.32645" lon="9.89202">
        <ele>482.3</ele>
      </trkpt>
      <trkpt lat="48.32645" lon="9.89207">
        <ele>482</ele>
      </trkpt>
      <trkpt lat="48.32642" lon="9.89225">
        <ele>481.2</ele>
      </trkpt>
      <trkpt lat="48.32641" lon="9.8924">
        <ele>480.5</ele>
      </trkpt>
      <trkpt lat="48.32638" lon="9.89269">
        <ele>480.2</ele>
      </trkpt>
      <trkpt lat="48.32673" lon="9.89275">
        <ele>480.3</ele>
      </trkpt>
      <trkpt lat="48.32679" lon="9.89276">
        <ele>480.3</ele>
      </trkpt>
      <trkpt lat="48.32693" lon="9.89278">
        <ele>480.2</ele>
      </trkpt>
      <trkpt lat="48.32698" lon="9.89278">
        <ele>480.2</ele>
      </trkpt>
      <trkpt lat="48.32714" lon="9.8928">
        <ele>480.2</ele>
      </trkpt>
      <trkpt lat="48.3272" lon="9.89279">
        <ele>480.1</ele>
      </trkpt>
      <trkpt lat="48.32724" lon="9.89277">
        <ele>480.1</ele>
      </trkpt>
      <trkpt lat="48.32729" lon="9.89273">
        <ele>480.1</ele>
      </trkpt>
      <trkpt lat="48.32736" lon="9.89265">
        <ele>480</ele>
      </trkpt>
      <trkpt lat="48.32742" lon="9.89258">
        <ele>480</ele>
      </trkpt>
      <trkpt lat="48.32749" lon="9.89247">
        <ele>480</ele>
      </trkpt>
      <trkpt lat="48.32756" lon="9.89235">
        <ele>480</ele>
      </trkpt>
      <trkpt lat="48.32764" lon="9.89224">
        <ele>480.1</ele>
      </trkpt>
      <trkpt lat="48.32765" lon="9.89222">
        <ele>480.1</ele>
      </trkpt>
      <trkpt lat="48.3277" lon="9.89217">
        <ele>480.1</ele>
      </trkpt>
      <trkpt lat="48.32775" lon="9.89213">
        <ele>480.1</ele>
      </trkpt>
      <trkpt lat="48.3278" lon="9.89212">
        <ele>480.2</ele>
      </trkpt>
      <trkpt lat="48.32787" lon="9.89211">
        <ele>480.2</ele>
      </trkpt>
      <trkpt lat="48.32788" lon="9.89221">
        <ele>480.2</ele>
      </trkpt>
      <trkpt lat="48.3279" lon="9.89232">
        <ele>480.1</ele>
      </trkpt>
      <trkpt lat="48.32795" lon="9.8924">
        <ele>480.1</ele>
      </trkpt>
      <trkpt lat="48.32802" lon="9.89252">
        <ele>480</ele>
      </trkpt>
      <trkpt lat="48.32819" lon="9.89285">
        <ele>480</ele>
      </trkpt>
      <trkpt lat="48.32826" lon="9.89298">
        <ele>480</ele>
      </trkpt>
      <trkpt lat="48.3284" lon="9.89329">
        <ele>480.3</ele>
      </trkpt>
      <trkpt lat="48.32843" lon="9.89334">
        <ele>480.3</ele>
      </trkpt>
      <trkpt lat="48.32845" lon="9.8934">
        <ele>480.4</ele>
      </trkpt>
      <trkpt lat="48.32851" lon="9.89357">
        <ele>480.6</ele>
      </trkpt>
      <trkpt lat="48.32853" lon="9.89368">
        <ele>480.7</ele>
      </trkpt>
      <trkpt lat="48.32854" lon="9.89374">
        <ele>480.7</ele>
      </trkpt>
      <trkpt lat="48.32855" lon="9.89387">
        <ele>480.8</ele>
      </trkpt>
      <trkpt lat="48.32857" lon="9.89411">
        <ele>480.8</ele>
      </trkpt>
      <trkpt lat="48.32856" lon="9.89425">
        <ele>480.9</ele>
      </trkpt>
      <trkpt lat="48.32855" lon="9.8944">
        <ele>481</ele>
      </trkpt>
      <trkpt lat="48.32852" lon="9.89459">
        <ele>481.1</ele>
      </trkpt>
      <trkpt lat="48.32849" lon="9.89475">
        <ele>481.1</ele>
      </trkpt>
      <trkpt lat="48.32847" lon="9.89484">
        <ele>481.2</ele>
      </trkpt>
      <trkpt lat="48.32842" lon="9.89503">
        <ele>481.2</ele>
      </trkpt>
      <trkpt lat="48.32841" lon="9.8951">
        <ele>481.2</ele>
      </trkpt>
      <trkpt lat="48.32839" lon="9.89516">
        <ele>481.1</ele>
      </trkpt>
      <trkpt lat="48.32846" lon="9.89522">
        <ele>481.3</ele>
      </trkpt>
      <trkpt lat="48.32845" lon="9.89534">
        <ele>481.2</ele>
      </trkpt>
      <trkpt lat="48.32846" lon="9.89546">
        <ele>481.2</ele>
      </trkpt>
      <trkpt lat="48.32851" lon="9.89557">
        <ele>481.3</ele>
      </trkpt>
      <trkpt lat="48.32875" lon="9.89585">
        <ele>481.5</ele>
      </trkpt>
      <trkpt lat="48.32881" lon="9.89579">
        <ele>481.6</ele>
      </trkpt>
      <trkpt lat="48.32902" lon="9.89565">
        <ele>482</ele>
      </trkpt>
      <trkpt lat="48.32915" lon="9.89556">
        <ele>482.3</ele>
      </trkpt>
      <trkpt lat="48.3292" lon="9.89553">
        <ele>482.4</ele>
      </trkpt>
      <trkpt lat="48.3293" lon="9.89547">
        <ele>482.7</ele>
      </trkpt>
      <trkpt lat="48.32933" lon="9.89545">
        <ele>482.7</ele>
      </trkpt>
      <trkpt lat="48.32938" lon="9.89542">
        <ele>482.9</ele>
      </trkpt>
      <trkpt lat="48.32948" lon="9.89536">
        <ele>483.2</ele>
      </trkpt>
      <trkpt lat="48.32952" lon="9.89534">
        <ele>483.3</ele>
      </trkpt>
      <trkpt lat="48.32965" lon="9.89527">
        <ele>483.6</ele>
      </trkpt>
      <trkpt lat="48.32975" lon="9.89521">
        <ele>484</ele>
      </trkpt>
      <trkpt lat="48.32977" lon="9.89521">
        <ele>484</ele>
      </trkpt>
      <trkpt lat="48.32995" lon="9.89515">
        <ele>484.5</ele>
      </trkpt>
      <trkpt lat="48.33017" lon="9.89508">
        <ele>486.7</ele>
      </trkpt>
      <trkpt lat="48.33021" lon="9.89507">
        <ele>487.2</ele>
      </trkpt>
      <trkpt lat="48.33032" lon="9.89503">
        <ele>488.4</ele>
      </trkpt>
      <trkpt lat="48.33036" lon="9.89502">
        <ele>488.9</ele>
      </trkpt>
      <trkpt lat="48.33047" lon="9.89499">
        <ele>490.1</ele>
      </trkpt>
      <trkpt lat="48.33057" lon="9.89496">
        <ele>491.2</ele>
      </trkpt>
      <trkpt lat="48.33058" lon="9.89496">
        <ele>491.4</ele>
      </trkpt>
      <trkpt lat="48.33066" lon="9.89496">
        <ele>492.3</ele>
      </trkpt>
      <trkpt lat="48.33071" lon="9.89497">
        <ele>492.8</ele>
      </trkpt>
      <trkpt lat="48.33076" lon="9.89497">
        <ele>493.3</ele>
      </trkpt>
      <trkpt lat="48.33085" lon="9.89499">
        <ele>494.2</ele>
      </trkpt>
      <trkpt lat="48.33097" lon="9.89503">
        <ele>495.6</ele>
      </trkpt>
      <trkpt lat="48.33099" lon="9.89504">
        <ele>495.8</ele>
      </trkpt>
      <trkpt lat="48.33101" lon="9.89505">
        <ele>496.1</ele>
      </trkpt>
      <trkpt lat="48.33111" lon="9.89508">
        <ele>497.3</ele>
      </trkpt>
      <trkpt lat="48.3312" lon="9.89511">
        <ele>498.2</ele>
      </trkpt>
      <trkpt lat="48.33135" lon="9.89516">
        <ele>500</ele>
      </trkpt>
      <trkpt lat="48.33146" lon="9.8952">
        <ele>501.3</ele>
      </trkpt>
      <trkpt lat="48.33167" lon="9.89528">
        <ele>503.7</ele>
      </trkpt>
      <trkpt lat="48.33179" lon="9.89535">
        <ele>505.1</ele>
      </trkpt>
      <trkpt lat="48.33181" lon="9.89536">
        <ele>505.2</ele>
      </trkpt>
      <trkpt lat="48.33198" lon="9.8955">
        <ele>507.2</ele>
      </trkpt>
      <trkpt lat="48.33209" lon="9.89561">
        <ele>508.3</ele>
      </trkpt>
      <trkpt lat="48.33222" lon="9.89574">
        <ele>509.7</ele>
      </trkpt>
      <trkpt lat="48.33227" lon="9.89583">
        <ele>510.3</ele>
      </trkpt>
      <trkpt lat="48.33234" lon="9.89597">
        <ele>510.9</ele>
      </trkpt>
      <trkpt lat="48.33244" lon="9.89623">
        <ele>511.8</ele>
      </trkpt>
      <trkpt lat="48.3325" lon="9.89637">
        <ele>512.4</ele>
      </trkpt>
      <trkpt lat="48.33256" lon="9.89654">
        <ele>512.7</ele>
      </trkpt>
      <trkpt lat="48.33267" lon="9.89682">
        <ele>512.6</ele>
      </trkpt>
      <trkpt lat="48.33269" lon="9.89687">
        <ele>512.5</ele>
      </trkpt>
      <trkpt lat="48.33283" lon="9.89714">
        <ele>512.4</ele>
      </trkpt>
      <trkpt lat="48.33285" lon="9.89716">
        <ele>512.4</ele>
      </trkpt>
      <trkpt lat="48.3329" lon="9.89724">
        <ele>512.6</ele>
      </trkpt>
      <trkpt lat="48.33299" lon="9.89734">
        <ele>513</ele>
      </trkpt>
      <trkpt lat="48.33301" lon="9.89736">
        <ele>513.2</ele>
      </trkpt>
      <trkpt lat="48.33315" lon="9.89745">
        <ele>514.3</ele>
      </trkpt>
      <trkpt lat="48.33337" lon="9.89758">
        <ele>515.9</ele>
      </trkpt>
      <trkpt lat="48.33345" lon="9.89763">
        <ele>516.4</ele>
      </trkpt>
      <trkpt lat="48.33353" lon="9.89768">
        <ele>516.9</ele>
      </trkpt>
      <trkpt lat="48.33362" lon="9.89774">
        <ele>517.6</ele>
      </trkpt>
      <trkpt lat="48.33367" lon="9.89777">
        <ele>518</ele>
      </trkpt>
      <trkpt lat="48.33368" lon="9.89778">
        <ele>518</ele>
      </trkpt>
      <trkpt lat="48.33375" lon="9.89781">
        <ele>518.6</ele>
      </trkpt>
      <trkpt lat="48.33382" lon="9.89785">
        <ele>519.1</ele>
      </trkpt>
      <trkpt lat="48.33385" lon="9.89787">
        <ele>519.4</ele>
      </trkpt>
      <trkpt lat="48.33395" lon="9.89791">
        <ele>520.3</ele>
      </trkpt>
      <trkpt lat="48.33407" lon="9.89795">
        <ele>521.5</ele>
      </trkpt>
      <trkpt lat="48.33409" lon="9.89807">
        <ele>521.5</ele>
      </trkpt>
      <trkpt lat="48.33407" lon="9.89801">
        <ele>521.3</ele>
      </trkpt>
      <trkpt lat="48.33407" lon="9.89795">
        <ele>521.5</ele>
      </trkpt>
      <trkpt lat="48.33409" lon="9.8979">
        <ele>521.8</ele>
      </trkpt>
      <trkpt lat="48.33412" lon="9.89787">
        <ele>522.1</ele>
      </trkpt>
      <trkpt lat="48.33416" lon="9.89787">
        <ele>522.5</ele>
      </trkpt>
      <trkpt lat="48.33419" lon="9.89789">
        <ele>522.7</ele>
      </trkpt>
      <trkpt lat="48.33421" lon="9.89791">
        <ele>522.9</ele>
      </trkpt>
      <trkpt lat="48.33422" lon="9.89796">
        <ele>522.9</ele>
      </trkpt>
      <trkpt lat="48.33422" lon="9.89801">
        <ele>522.8</ele>
      </trkpt>
      <trkpt lat="48.33421" lon="9.89806">
        <ele>522.6</ele>
      </trkpt>
      <trkpt lat="48.33417" lon="9.8981">
        <ele>522.3</ele>
      </trkpt>
      <trkpt lat="48.33413" lon="9.8981">
        <ele>521.9</ele>
      </trkpt>
      <trkpt lat="48.33409" lon="9.89807">
        <ele>521.5</ele>
      </trkpt>
      <trkpt lat="48.33422" lon="9.89796">
        <ele>522.9</ele>
      </trkpt>
      <trkpt lat="48.33439" lon="9.89791">
        <ele>524.3</ele>
      </trkpt>
      <trkpt lat="48.33444" lon="9.89791">
        <ele>524.7</ele>
      </trkpt>
      <trkpt lat="48.33454" lon="9.89792">
        <ele>525.4</ele>
      </trkpt>
      <trkpt lat="48.33476" lon="9.89793">
        <ele>527.1</ele>
      </trkpt>
      <trkpt lat="48.33491" lon="9.89796">
        <ele>528.2</ele>
      </trkpt>
      <trkpt lat="48.33502" lon="9.89798">
        <ele>528.9</ele>
      </trkpt>
      <trkpt lat="48.3352" lon="9.89803">
        <ele>529.5</ele>
      </trkpt>
      <trkpt lat="48.33522" lon="9.89803">
        <ele>529.6</ele>
      </trkpt>
      <trkpt lat="48.33546" lon="9.89815">
        <ele>530.4</ele>
      </trkpt>
      <trkpt lat="48.33559" lon="9.89822">
        <ele>530.9</ele>
      </trkpt>
      <trkpt lat="48.33581" lon="9.89835">
        <ele>531.8</ele>
      </trkpt>
      <trkpt lat="48.33583" lon="9.89836">
        <ele>531.9</ele>
      </trkpt>
      <trkpt lat="48.33585" lon="9.89837">
        <ele>531.9</ele>
      </trkpt>
      <trkpt lat="48.33611" lon="9.89854">
        <ele>531.6</ele>
      </trkpt>
      <trkpt lat="48.33632" lon="9.89877">
        <ele>531.3</ele>
      </trkpt>
      <trkpt lat="48.33663" lon="9.89907">
        <ele>531.1</ele>
      </trkpt>
      <trkpt lat="48.33681" lon="9.89929">
        <ele>530.7</ele>
      </trkpt>
      <trkpt lat="48.3371" lon="9.89963">
        <ele>530.2</ele>
      </trkpt>
      <trkpt lat="48.33737" lon="9.89989">
        <ele>530</ele>
      </trkpt>
      <trkpt lat="48.33779" lon="9.90027">
        <ele>529.4</ele>
      </trkpt>
      <trkpt lat="48.33821" lon="9.9007">
        <ele>529.6</ele>
      </trkpt>
      <trkpt lat="48.3384" lon="9.90171">
        <ele>528.9</ele>
      </trkpt>
      <trkpt lat="48.33863" lon="9.90273">
        <ele>526.5</ele>
      </trkpt>
      <trkpt lat="48.33885" lon="9.9032">
        <ele>526.4</ele>
      </trkpt>
      <trkpt lat="48.33911" lon="9.90358">
        <ele>526.7</ele>
      </trkpt>
      <trkpt lat="48.33938" lon="9.90387">
        <ele>526</ele>
      </trkpt>
      <trkpt lat="48.34001" lon="9.90465">
        <ele>524.8</ele>
      </trkpt>
      <trkpt lat="48.34046" lon="9.90522">
        <ele>522.7</ele>
      </trkpt>
      <trkpt lat="48.34072" lon="9.90558">
        <ele>522.1</ele>
      </trkpt>
      <trkpt lat="48.34075" lon="9.90562">
        <ele>522.1</ele>
      </trkpt>
      <trkpt lat="48.34081" lon="9.90571">
        <ele>522</ele>
      </trkpt>
      <trkpt lat="48.34112" lon="9.90606">
        <ele>518.6</ele>
      </trkpt>
      <trkpt lat="48.34131" lon="9.90618">
        <ele>516.3</ele>
      </trkpt>
      <trkpt lat="48.34146" lon="9.90621">
        <ele>514.8</ele>
      </trkpt>
      <trkpt lat="48.34196" lon="9.90626">
        <ele>508.8</ele>
      </trkpt>
      <trkpt lat="48.34205" lon="9.90629">
        <ele>507.6</ele>
      </trkpt>
      <trkpt lat="48.34223" lon="9.90651">
        <ele>504.7</ele>
      </trkpt>
      <trkpt lat="48.34236" lon="9.90659">
        <ele>502.9</ele>
      </trkpt>
      <trkpt lat="48.34258" lon="9.90668">
        <ele>501.9</ele>
      </trkpt>
      <trkpt lat="48.34289" lon="9.90678">
        <ele>505</ele>
      </trkpt>
      <trkpt lat="48.34299" lon="9.90684">
        <ele>505.9</ele>
      </trkpt>
      <trkpt lat="48.34325" lon="9.907">
        <ele>508</ele>
      </trkpt>
      <trkpt lat="48.34354" lon="9.90726">
        <ele>510</ele>
      </trkpt>
      <trkpt lat="48.34366" lon="9.90733">
        <ele>510.9</ele>
      </trkpt>
      <trkpt lat="48.34373" lon="9.90737">
        <ele>511.7</ele>
      </trkpt>
      <trkpt lat="48.3438" lon="9.90738">
        <ele>512.3</ele>
      </trkpt>
      <trkpt lat="48.34384" lon="9.90736">
        <ele>512.8</ele>
      </trkpt>
      <trkpt lat="48.34387" lon="9.90732">
        <ele>513.2</ele>
      </trkpt>
      <trkpt lat="48.3439" lon="9.90725">
        <ele>513.6</ele>
      </trkpt>
      <trkpt lat="48.34404" lon="9.90756">
        <ele>514.5</ele>
      </trkpt>
      <trkpt lat="48.34437" lon="9.90787">
        <ele>515.3</ele>
      </trkpt>
      <trkpt lat="48.34493" lon="9.90831">
        <ele>514.9</ele>
      </trkpt>
      <trkpt lat="48.34554" lon="9.90854">
        <ele>517.1</ele>
      </trkpt>
      <trkpt lat="48.34566" lon="9.90856">
        <ele>517.7</ele>
      </trkpt>
      <trkpt lat="48.34613" lon="9.90862">
        <ele>518.9</ele>
      </trkpt>
      <trkpt lat="48.34686" lon="9.90867">
        <ele>518.8</ele>
      </trkpt>
      <trkpt lat="48.34752" lon="9.90863">
        <ele>517.6</ele>
      </trkpt>
      <trkpt lat="48.3487" lon="9.90893">
        <ele>509.1</ele>
      </trkpt>
      <trkpt lat="48.34924" lon="9.9089">
        <ele>505.1</ele>
      </trkpt>
      <trkpt lat="48.34945" lon="9.9089">
        <ele>503.6</ele>
      </trkpt>
      <trkpt lat="48.35018" lon="9.90895">
        <ele>498.3</ele>
      </trkpt>
      <trkpt lat="48.35032" lon="9.90893">
        <ele>497.4</ele>
      </trkpt>
      <trkpt lat="48.35063" lon="9.90888">
        <ele>495.1</ele>
      </trkpt>
      <trkpt lat="48.351" lon="9.90879">
        <ele>492.3</ele>
      </trkpt>
      <trkpt lat="48.35112" lon="9.90887">
        <ele>491.5</ele>
      </trkpt>
      <trkpt lat="48.35183" lon="9.90872">
        <ele>486.8</ele>
      </trkpt>
      <trkpt lat="48.35189" lon="9.90872">
        <ele>486.5</ele>
      </trkpt>
      <trkpt lat="48.35216" lon="9.90867">
        <ele>485.2</ele>
      </trkpt>
      <trkpt lat="48.35223" lon="9.90865">
        <ele>484.9</ele>
      </trkpt>
      <trkpt lat="48.35252" lon="9.90861">
        <ele>483.7</ele>
      </trkpt>
      <trkpt lat="48.35256" lon="9.90888">
        <ele>483.4</ele>
      </trkpt>
      <trkpt lat="48.35254" lon="9.90926">
        <ele>482.8</ele>
      </trkpt>
      <trkpt lat="48.3525" lon="9.90959">
        <ele>482</ele>
      </trkpt>
      <trkpt lat="48.35256" lon="9.90959">
        <ele>482.1</ele>
      </trkpt>
      <trkpt lat="48.3526" lon="9.9096">
        <ele>482.1</ele>
      </trkpt>
      <trkpt lat="48.35263" lon="9.90963">
        <ele>482.1</ele>
      </trkpt>
      <trkpt lat="48.35266" lon="9.90966">
        <ele>482</ele>
      </trkpt>
      <trkpt lat="48.35269" lon="9.90971">
        <ele>481.9</ele>
      </trkpt>
      <trkpt lat="48.35271" lon="9.90976">
        <ele>481.8</ele>
      </trkpt>
      <trkpt lat="48.35273" lon="9.90981">
        <ele>481.7</ele>
      </trkpt>
      <trkpt lat="48.35273" lon="9.90985">
        <ele>481.6</ele>
      </trkpt>
      <trkpt lat="48.35276" lon="9.90985">
        <ele>481.7</ele>
      </trkpt>
      <trkpt lat="48.35282" lon="9.90985">
        <ele>481.7</ele>
      </trkpt>
      <trkpt lat="48.35286" lon="9.90985">
        <ele>481.8</ele>
      </trkpt>
      <trkpt lat="48.35301" lon="9.90985">
        <ele>482</ele>
      </trkpt>
      <trkpt lat="48.35324" lon="9.90983">
        <ele>482.3</ele>
      </trkpt>
      <trkpt lat="48.35365" lon="9.91019">
        <ele>484.4</ele>
      </trkpt>
      <trkpt lat="48.35372" lon="9.91044">
        <ele>485.1</ele>
      </trkpt>
      <trkpt lat="48.35373" lon="9.91046">
        <ele>485.1</ele>
      </trkpt>
      <trkpt lat="48.35378" lon="9.91066">
        <ele>485.6</ele>
      </trkpt>
      <trkpt lat="48.35388" lon="9.91108">
        <ele>486.7</ele>
      </trkpt>
      <trkpt lat="48.35389" lon="9.91113">
        <ele>486.8</ele>
      </trkpt>
      <trkpt lat="48.35394" lon="9.91144">
        <ele>487.6</ele>
      </trkpt>
      <trkpt lat="48.35405" lon="9.9118">
        <ele>488.1</ele>
      </trkpt>
      <trkpt lat="48.35424" lon="9.91223">
        <ele>488.2</ele>
      </trkpt>
      <trkpt lat="48.35434" lon="9.91244">
        <ele>488.4</ele>
      </trkpt>
      <trkpt lat="48.35436" lon="9.91251">
        <ele>488.4</ele>
      </trkpt>
      <trkpt lat="48.35442" lon="9.91264">
        <ele>488.9</ele>
      </trkpt>
      <trkpt lat="48.35455" lon="9.91321">
        <ele>490.2</ele>
      </trkpt>
      <trkpt lat="48.35456" lon="9.91322">
        <ele>490.3</ele>
      </trkpt>
      <trkpt lat="48.35462" lon="9.91349">
        <ele>490.6</ele>
      </trkpt>
      <trkpt lat="48.35522" lon="9.91363">
        <ele>493.4</ele>
      </trkpt>
      <trkpt lat="48.35555" lon="9.9137">
        <ele>495</ele>
      </trkpt>
      <trkpt lat="48.35669" lon="9.91393">
        <ele>500.4</ele>
      </trkpt>
      <trkpt lat="48.35681" lon="9.91393">
        <ele>501.1</ele>
      </trkpt>
      <trkpt lat="48.35682" lon="9.91387">
        <ele>501.3</ele>
      </trkpt>
      <trkpt lat="48.35687" lon="9.91382">
        <ele>501.6</ele>
      </trkpt>
      <trkpt lat="48.35691" lon="9.91383">
        <ele>501.8</ele>
      </trkpt>
      <trkpt lat="48.35694" lon="9.91386">
        <ele>502</ele>
      </trkpt>
      <trkpt lat="48.35696" lon="9.91395">
        <ele>502</ele>
      </trkpt>
      <trkpt lat="48.35695" lon="9.914">
        <ele>501.9</ele>
      </trkpt>
      <trkpt lat="48.35692" lon="9.91404">
        <ele>501.6</ele>
      </trkpt>
      <trkpt lat="48.35693" lon="9.9142">
        <ele>501.6</ele>
      </trkpt>
      <trkpt lat="48.35691" lon="9.91445">
        <ele>501.5</ele>
      </trkpt>
      <trkpt lat="48.35688" lon="9.91475">
        <ele>501.4</ele>
      </trkpt>
      <trkpt lat="48.3568" lon="9.91547">
        <ele>500.9</ele>
      </trkpt>
      <trkpt lat="48.35679" lon="9.91559">
        <ele>500.8</ele>
      </trkpt>
      <trkpt lat="48.35673" lon="9.91617">
        <ele>500</ele>
      </trkpt>
      <trkpt lat="48.35668" lon="9.91664">
        <ele>499.1</ele>
      </trkpt>
      <trkpt lat="48.35663" lon="9.91713">
        <ele>500</ele>
      </trkpt>
      <trkpt lat="48.35667" lon="9.91714">
        <ele>500.1</ele>
      </trkpt>
      <trkpt lat="48.35694" lon="9.91719">
        <ele>501.7</ele>
      </trkpt>
      <trkpt lat="48.35699" lon="9.91712">
        <ele>501.8</ele>
      </trkpt>
      <trkpt lat="48.35707" lon="9.91707">
        <ele>502.1</ele>
      </trkpt>
      <trkpt lat="48.35715" lon="9.91709">
        <ele>502.6</ele>
      </trkpt>
      <trkpt lat="48.35771" lon="9.9172">
        <ele>504.9</ele>
      </trkpt>
      <trkpt lat="48.35782" lon="9.91839">
        <ele>503.5</ele>
      </trkpt>
      <trkpt lat="48.35785" lon="9.91848">
        <ele>503.3</ele>
      </trkpt>
      <trkpt lat="48.35864" lon="9.92019">
        <ele>498.6</ele>
      </trkpt>
      <trkpt lat="48.3591" lon="9.92123">
        <ele>495.6</ele>
      </trkpt>
      <trkpt lat="48.35927" lon="9.92171">
        <ele>495.3</ele>
      </trkpt>
      <trkpt lat="48.35945" lon="9.92188">
        <ele>495.9</ele>
      </trkpt>
      <trkpt lat="48.35967" lon="9.92192">
        <ele>496.7</ele>
      </trkpt>
      <trkpt lat="48.35987" lon="9.92188">
        <ele>497.5</ele>
      </trkpt>
      <trkpt lat="48.36004" lon="9.92174">
        <ele>498.2</ele>
      </trkpt>
      <trkpt lat="48.36035" lon="9.92138">
        <ele>499.3</ele>
      </trkpt>
      <trkpt lat="48.36041" lon="9.92134">
        <ele>499.5</ele>
      </trkpt>
      <trkpt lat="48.36046" lon="9.92134">
        <ele>499.6</ele>
      </trkpt>
      <trkpt lat="48.36077" lon="9.92181">
        <ele>500.8</ele>
      </trkpt>
      <trkpt lat="48.3617" lon="9.92321">
        <ele>506.2</ele>
      </trkpt>
      <trkpt lat="48.3627" lon="9.92479">
        <ele>516.8</ele>
      </trkpt>
      <trkpt lat="48.36284" lon="9.92498">
        <ele>519.4</ele>
      </trkpt>
      <trkpt lat="48.36292" lon="9.9251">
        <ele>520.7</ele>
      </trkpt>
      <trkpt lat="48.36312" lon="9.92536">
        <ele>523.8</ele>
      </trkpt>
      <trkpt lat="48.36333" lon="9.92549">
        <ele>526.6</ele>
      </trkpt>
      <trkpt lat="48.36362" lon="9.92569">
        <ele>527</ele>
      </trkpt>
      <trkpt lat="48.36387" lon="9.926">
        <ele>526.6</ele>
      </trkpt>
      <trkpt lat="48.36409" lon="9.92623">
        <ele>525.7</ele>
      </trkpt>
      <trkpt lat="48.36423" lon="9.92631">
        <ele>525.2</ele>
      </trkpt>
      <trkpt lat="48.36471" lon="9.92631">
        <ele>524</ele>
      </trkpt>
      <trkpt lat="48.365" lon="9.92638">
        <ele>523</ele>
      </trkpt>
      <trkpt lat="48.36516" lon="9.92651">
        <ele>523</ele>
      </trkpt>
      <trkpt lat="48.36536" lon="9.92684">
        <ele>521.5</ele>
      </trkpt>
      <trkpt lat="48.36552" lon="9.92719">
        <ele>520.1</ele>
      </trkpt>
      <trkpt lat="48.3657" lon="9.92759">
        <ele>518.6</ele>
      </trkpt>
      <trkpt lat="48.3659" lon="9.92788">
        <ele>513.6</ele>
      </trkpt>
      <trkpt lat="48.36625" lon="9.92821">
        <ele>503.4</ele>
      </trkpt>
      <trkpt lat="48.36634" lon="9.92839">
        <ele>499.8</ele>
      </trkpt>
      <trkpt lat="48.36667" lon="9.929">
        <ele>490.6</ele>
      </trkpt>
      <trkpt lat="48.36687" lon="9.92938">
        <ele>489.1</ele>
      </trkpt>
      <trkpt lat="48.36779" lon="9.93054">
        <ele>492.2</ele>
      </trkpt>
      <trkpt lat="48.368" lon="9.93085">
        <ele>493.5</ele>
      </trkpt>
      <trkpt lat="48.36809" lon="9.93105">
        <ele>495.8</ele>
      </trkpt>
      <trkpt lat="48.36819" lon="9.93133">
        <ele>498.7</ele>
      </trkpt>
      <trkpt lat="48.36821" lon="9.93143">
        <ele>499.6</ele>
      </trkpt>
      <trkpt lat="48.36824" lon="9.93166">
        <ele>501.7</ele>
      </trkpt>
      <trkpt lat="48.36827" lon="9.93187">
        <ele>503.5</ele>
      </trkpt>
      <trkpt lat="48.36838" lon="9.93223">
        <ele>507</ele>
      </trkpt>
      <trkpt lat="48.36851" lon="9.93247">
        <ele>509.8</ele>
      </trkpt>
      <trkpt lat="48.36884" lon="9.93306">
        <ele>515.1</ele>
      </trkpt>
      <trkpt lat="48.3693" lon="9.93361">
        <ele>518.8</ele>
      </trkpt>
      <trkpt lat="48.36934" lon="9.93364">
        <ele>518.8</ele>
      </trkpt>
      <trkpt lat="48.36939" lon="9.93367">
        <ele>518.7</ele>
      </trkpt>
      <trkpt lat="48.36956" lon="9.93379">
        <ele>518.2</ele>
      </trkpt>
      <trkpt lat="48.37013" lon="9.93409">
        <ele>516.1</ele>
      </trkpt>
      <trkpt lat="48.37027" lon="9.93416">
        <ele>515.7</ele>
      </trkpt>
      <trkpt lat="48.37035" lon="9.93419">
        <ele>515.5</ele>
      </trkpt>
      <trkpt lat="48.3708" lon="9.93441">
        <ele>514.7</ele>
      </trkpt>
      <trkpt lat="48.37125" lon="9.93497">
        <ele>515.1</ele>
      </trkpt>
      <trkpt lat="48.37155" lon="9.9357">
        <ele>512.9</ele>
      </trkpt>
      <trkpt lat="48.37158" lon="9.9359">
        <ele>512.3</ele>
      </trkpt>
      <trkpt lat="48.37143" lon="9.93603">
        <ele>511</ele>
      </trkpt>
      <trkpt lat="48.37098" lon="9.93644">
        <ele>508</ele>
      </trkpt>
      <trkpt lat="48.36974" lon="9.93742">
        <ele>504.3</ele>
      </trkpt>
      <trkpt lat="48.36694" lon="9.93992">
        <ele>483.3</ele>
      </trkpt>
      <trkpt lat="48.36658" lon="9.9403">
        <ele>479</ele>
      </trkpt>
      <trkpt lat="48.36598" lon="9.94122">
        <ele>475.3</ele>
      </trkpt>
      <trkpt lat="48.36547" lon="9.94198">
        <ele>475.9</ele>
      </trkpt>
      <trkpt lat="48.36452" lon="9.94366">
        <ele>477.1</ele>
      </trkpt>
      <trkpt lat="48.36289" lon="9.94647">
        <ele>475.6</ele>
      </trkpt>
      <trkpt lat="48.36207" lon="9.94777">
        <ele>475.2</ele>
      </trkpt>
      <trkpt lat="48.36221" lon="9.94831">
        <ele>474.7</ele>
      </trkpt>
      <trkpt lat="48.36246" lon="9.94908">
        <ele>471.5</ele>
      </trkpt>
      <trkpt lat="48.36281" lon="9.95008">
        <ele>471.4</ele>
      </trkpt>
      <trkpt lat="48.36355" lon="9.95126">
        <ele>473.8</ele>
      </trkpt>
      <trkpt lat="48.36381" lon="9.95147">
        <ele>474</ele>
      </trkpt>
      <trkpt lat="48.36372" lon="9.95171">
        <ele>474.1</ele>
      </trkpt>
      <trkpt lat="48.36327" lon="9.95271">
        <ele>474.9</ele>
      </trkpt>
      <trkpt lat="48.3628" lon="9.95369">
        <ele>474.8</ele>
      </trkpt>
      <trkpt lat="48.36226" lon="9.95479">
        <ele>475.1</ele>
      </trkpt>
      <trkpt lat="48.36185" lon="9.95551">
        <ele>474.5</ele>
      </trkpt>
      <trkpt lat="48.36157" lon="9.95587">
        <ele>473.7</ele>
      </trkpt>
      <trkpt lat="48.36142" lon="9.95595">
        <ele>473.3</ele>
      </trkpt>
      <trkpt lat="48.36172" lon="9.95793">
        <ele>474.5</ele>
      </trkpt>
      <trkpt lat="48.3623" lon="9.96039">
        <ele>473.3</ele>
      </trkpt>
      <trkpt lat="48.36272" lon="9.96194">
        <ele>473</ele>
      </trkpt>
      <trkpt lat="48.36284" lon="9.96251">
        <ele>473</ele>
      </trkpt>
      <trkpt lat="48.36284" lon="9.96251">
        <ele>473</ele>
      </trkpt>
      <trkpt lat="48.36284" lon="9.96251">
        <ele>473</ele>
      </trkpt>
      <trkpt lat="48.36284" lon="9.96251">
        <ele>473</ele>
      </trkpt>
      <trkpt lat="48.36284" lon="9.96251">
        <ele>473</ele>
      </trkpt>
      <trkpt lat="48.36284" lon="9.96251">
        <ele>473</ele>
      </trkpt>
      <trkpt lat="48.36284" lon="9.96251">
        <ele>473</ele>
      </trkpt>
      <trkpt lat="48.36284" lon="9.96251">
        <ele>473</ele>
      </trkpt>
      <trkpt lat="48.36305" lon="9.96328">
        <ele>473</ele>
      </trkpt>
      <trkpt lat="48.36336" lon="9.9644">
        <ele>473.2</ele>
      </trkpt>
      <trkpt lat="48.36352" lon="9.96457">
        <ele>472.9</ele>
      </trkpt>
      <trkpt lat="48.36382" lon="9.96459">
        <ele>472</ele>
      </trkpt>
      <trkpt lat="48.36436" lon="9.96454">
        <ele>471.2</ele>
      </trkpt>
      <trkpt lat="48.36498" lon="9.96447">
        <ele>472</ele>
      </trkpt>
      <trkpt lat="48.36498" lon="9.96447">
        <ele>472</ele>
      </trkpt>
      <trkpt lat="48.36498" lon="9.96447">
        <ele>472</ele>
      </trkpt>
      <trkpt lat="48.36498" lon="9.96447">
        <ele>472</ele>
      </trkpt>
      <trkpt lat="48.36498" lon="9.96447">
        <ele>472</ele>
      </trkpt>
      <trkpt lat="48.36498" lon="9.96447">
        <ele>472</ele>
      </trkpt>
      <trkpt lat="48.36498" lon="9.96447">
        <ele>472</ele>
      </trkpt>
      <trkpt lat="48.365" lon="9.96495">
        <ele>472</ele>
      </trkpt>
      <trkpt lat="48.36502" lon="9.96517">
        <ele>472.5</ele>
      </trkpt>
      <trkpt lat="48.36647" lon="9.96493">
        <ele>474</ele>
      </trkpt>
      <trkpt lat="48.36733" lon="9.96476">
        <ele>473.7</ele>
      </trkpt>
      <trkpt lat="48.36962" lon="9.96435">
        <ele>475.7</ele>
      </trkpt>
      <trkpt lat="48.37362" lon="9.96349">
        <ele>474.9</ele>
      </trkpt>
      <trkpt lat="48.375" lon="9.96369">
        <ele>473</ele>
      </trkpt>
      <trkpt lat="48.37711" lon="9.9647">
        <ele>475.3</ele>
      </trkpt>
      <trkpt lat="48.37896" lon="9.96685">
        <ele>472.4</ele>
      </trkpt>
      <trkpt lat="48.38048" lon="9.97003">
        <ele>474.9</ele>
      </trkpt>
      <trkpt lat="48.38156" lon="9.97329">
        <ele>474.3</ele>
      </trkpt>
      <trkpt lat="48.38238" lon="9.97504">
        <ele>475.8</ele>
      </trkpt>
      <trkpt lat="48.38341" lon="9.97752">
        <ele>471.2</ele>
      </trkpt>
      <trkpt lat="48.38506" lon="9.98135">
        <ele>471.9</ele>
      </trkpt>
      <trkpt lat="48.38657" lon="9.98389">
        <ele>472</ele>
      </trkpt>
      <trkpt lat="48.38795" lon="9.98539">
        <ele>470.7</ele>
      </trkpt>
      <trkpt lat="48.39005" lon="9.98693">
        <ele>475</ele>
      </trkpt>
      <trkpt lat="48.39196" lon="9.98778">
        <ele>470.6</ele>
      </trkpt>
      <trkpt lat="48.39342" lon="9.98921">
        <ele>465.4</ele>
      </trkpt>
      <trkpt lat="48.39468" lon="9.99207">
        <ele>467.7</ele>
      </trkpt>
      <trkpt lat="48.39584" lon="9.99636">
        <ele>472.5</ele>
      </trkpt>
      <trkpt lat="48.3977" lon="10.00124">
        <ele>470</ele>
      </trkpt>
      <trkpt lat="48.40025" lon="10.00736">
        <ele>472.3</ele>
      </trkpt>
      <trkpt lat="48.40178" lon="10.01108">
        <ele>473.8</ele>
      </trkpt>
      <trkpt lat="48.40415" lon="10.01479">
        <ele>468.8</ele>
      </trkpt>
      <trkpt lat="48.4064" lon="10.01687">
        <ele>467</ele>
      </trkpt>
      <trkpt lat="48.4102" lon="10.01694">
        <ele>468.7</ele>
      </trkpt>
      <trkpt lat="48.41594" lon="10.01641">
        <ele>470.5</ele>
      </trkpt>
      <trkpt lat="48.4181" lon="10.01713">
        <ele>470.3</ele>
      </trkpt>
      <trkpt lat="48.4209" lon="10.02191">
        <ele>469.4</ele>
      </trkpt>
      <trkpt lat="48.42518" lon="10.02965">
        <ele>464.8</ele>
      </trkpt>
      <trkpt lat="48.42826" lon="10.03535">
        <ele>464.8</ele>
      </trkpt>
      <trkpt lat="48.42964" lon="10.04095">
        <ele>466</ele>
      </trkpt>
      <trkpt lat="48.43175" lon="10.04843">
        <ele>464.7</ele>
      </trkpt>
      <trkpt lat="48.43287" lon="10.0533">
        <ele>462.8</ele>
      </trkpt>
      <trkpt lat="48.43516" lon="10.07113">
        <ele>460.9</ele>
      </trkpt>
      <trkpt lat="48.44195" lon="10.12607">
        <ele>456.3</ele>
      </trkpt>
      <trkpt lat="48.44472" lon="10.14807">
        <ele>455.4</ele>
      </trkpt>
      <trkpt lat="48.44464" lon="10.15347">
        <ele>456.7</ele>
      </trkpt>
      <trkpt lat="48.44369" lon="10.16192">
        <ele>455.3</ele>
      </trkpt>
      <trkpt lat="48.442" lon="10.1683">
        <ele>455</ele>
      </trkpt>
      <trkpt lat="48.44019" lon="10.1737">
        <ele>453</ele>
      </trkpt>
      <trkpt lat="48.43967" lon="10.18079">
        <ele>452.6</ele>
      </trkpt>
      <trkpt lat="48.44222" lon="10.19198">
        <ele>451.1</ele>
      </trkpt>
      <trkpt lat="48.44321" lon="10.19445">
        <ele>451.5</ele>
      </trkpt>
      <trkpt lat="48.44422" lon="10.19797">
        <ele>451.3</ele>
      </trkpt>
      <trkpt lat="48.44569" lon="10.20266">
        <ele>452.4</ele>
      </trkpt>
      <trkpt lat="48.44772" lon="10.20812">
        <ele>452.4</ele>
      </trkpt>
      <trkpt lat="48.45204" lon="10.21667">
        <ele>450</ele>
      </trkpt>
      <trkpt lat="48.45426" lon="10.22244">
        <ele>452.8</ele>
      </trkpt>
      <trkpt lat="48.45873" lon="10.23619">
        <ele>449.5</ele>
      </trkpt>
      <trkpt lat="48.46068" lon="10.24331">
        <ele>449.8</ele>
      </trkpt>
      <trkpt lat="48.46197" lon="10.25795">
        <ele>446.3</ele>
      </trkpt>
      <trkpt lat="48.45966" lon="10.26366">
        <ele>445.6</ele>
      </trkpt>
      <trkpt lat="48.45883" lon="10.26743">
        <ele>446</ele>
      </trkpt>
      <trkpt lat="48.46086" lon="10.27217">
        <ele>446.6</ele>
      </trkpt>
      <trkpt lat="48.46493" lon="10.28012">
        <ele>445.2</ele>
      </trkpt>
      <trkpt lat="48.46539" lon="10.28388">
        <ele>445.7</ele>
      </trkpt>
      <trkpt lat="48.46521" lon="10.29043">
        <ele>446.3</ele>
      </trkpt>
      <trkpt lat="48.4653" lon="10.29392">
        <ele>443.7</ele>
      </trkpt>
      <trkpt lat="48.46606" lon="10.29728">
        <ele>443.9</ele>
      </trkpt>
      <trkpt lat="48.46771" lon="10.30351">
        <ele>442.1</ele>
      </trkpt>
      <trkpt lat="48.46974" lon="10.31133">
        <ele>448.4</ele>
      </trkpt>
      <trkpt lat="48.47237" lon="10.3154">
        <ele>436.3</ele>
      </trkpt>
      <trkpt lat="48.47808" lon="10.32533">
        <ele>433</ele>
      </trkpt>
      <trkpt lat="48.48281" lon="10.33122">
        <ele>432.2</ele>
      </trkpt>
      <trkpt lat="48.48581" lon="10.33779">
        <ele>438.1</ele>
      </trkpt>
      <trkpt lat="48.48731" lon="10.34515">
        <ele>442.4</ele>
      </trkpt>
      <trkpt lat="48.49024" lon="10.3592">
        <ele>442.6</ele>
      </trkpt>
      <trkpt lat="48.49123" lon="10.3637">
        <ele>441.3</ele>
      </trkpt>
      <trkpt lat="48.49245" lon="10.36916">
        <ele>438.4</ele>
      </trkpt>
      <trkpt lat="48.4944" lon="10.37415">
        <ele>436.1</ele>
      </trkpt>
      <trkpt lat="48.49673" lon="10.37868">
        <ele>436.4</ele>
      </trkpt>
      <trkpt lat="48.49988" lon="10.38208">
        <ele>433.9</ele>
      </trkpt>
      <trkpt lat="48.50393" lon="10.38502">
        <ele>432.1</ele>
      </trkpt>
      <trkpt lat="48.50738" lon="10.38706">
        <ele>433.7</ele>
      </trkpt>
      <trkpt lat="48.51158" lon="10.38765">
        <ele>435.4</ele>
      </trkpt>
      <trkpt lat="48.51548" lon="10.38765">
        <ele>435.7</ele>
      </trkpt>
      <trkpt lat="48.51938" lon="10.38708">
        <ele>433.6</ele>
      </trkpt>
      <trkpt lat="48.5235" lon="10.38742">
        <ele>433.8</ele>
      </trkpt>
      <trkpt lat="48.5303" lon="10.38949">
        <ele>433.2</ele>
      </trkpt>
      <trkpt lat="48.54267" lon="10.39584">
        <ele>427</ele>
      </trkpt>
      <trkpt lat="48.55098" lon="10.40007">
        <ele>427</ele>
      </trkpt>
      <trkpt lat="48.55713" lon="10.40947">
        <ele>427</ele>
      </trkpt>
      <trkpt lat="48.55855" lon="10.41287">
        <ele>428.6</ele>
      </trkpt>
      <trkpt lat="48.56024" lon="10.42062">
        <ele>430.4</ele>
      </trkpt>
      <trkpt lat="48.56129" lon="10.42606">
        <ele>429.4</ele>
      </trkpt>
      <trkpt lat="48.56257" lon="10.42945">
        <ele>431.9</ele>
      </trkpt>
      <trkpt lat="48.56462" lon="10.43181">
        <ele>430.6</ele>
      </trkpt>
      <trkpt lat="48.56695" lon="10.43282">
        <ele>424.3</ele>
      </trkpt>
      <trkpt lat="48.56844" lon="10.43294">
        <ele>427.6</ele>
      </trkpt>
      <trkpt lat="48.57024" lon="10.436">
        <ele>425.6</ele>
      </trkpt>
      <trkpt lat="48.57092" lon="10.44143">
        <ele>427.5</ele>
      </trkpt>
      <trkpt lat="48.57017" lon="10.44585">
        <ele>429.6</ele>
      </trkpt>
      <trkpt lat="48.56702" lon="10.45196">
        <ele>429.1</ele>
      </trkpt>
      <trkpt lat="48.56455" lon="10.45717">
        <ele>426.5</ele>
      </trkpt>
      <trkpt lat="48.56507" lon="10.46623">
        <ele>423.7</ele>
      </trkpt>
      <trkpt lat="48.56676" lon="10.48834">
        <ele>423.1</ele>
      </trkpt>
      <trkpt lat="48.56774" lon="10.49864">
        <ele>425</ele>
      </trkpt>
      <trkpt lat="48.56868" lon="10.50762">
        <ele>422.2</ele>
      </trkpt>
      <trkpt lat="48.5707" lon="10.51362">
        <ele>423.4</ele>
      </trkpt>
      <trkpt lat="48.57475" lon="10.52279">
        <ele>420.3</ele>
      </trkpt>
      <trkpt lat="48.57865" lon="10.53197">
        <ele>421.2</ele>
      </trkpt>
      <trkpt lat="48.58307" lon="10.53933">
        <ele>419.2</ele>
      </trkpt>
      <trkpt lat="48.58893" lon="10.54469">
        <ele>421.7</ele>
      </trkpt>
      <trkpt lat="48.59298" lon="10.55069">
        <ele>418.6</ele>
      </trkpt>
      <trkpt lat="48.59605" lon="10.55817">
        <ele>414.5</ele>
      </trkpt>
      <trkpt lat="48.59792" lon="10.56496">
        <ele>414.5</ele>
      </trkpt>
      <trkpt lat="48.60234" lon="10.58119">
        <ele>416.1</ele>
      </trkpt>
      <trkpt lat="48.60518" lon="10.59184">
        <ele>413.2</ele>
      </trkpt>
      <trkpt lat="48.60818" lon="10.60181">
        <ele>417.7</ele>
      </trkpt>
      <trkpt lat="48.61205" lon="10.61634">
        <ele>415.5</ele>
      </trkpt>
      <trkpt lat="48.61385" lon="10.62268">
        <ele>414</ele>
      </trkpt>
      <trkpt lat="48.61655" lon="10.62812">
        <ele>414.4</ele>
      </trkpt>
      <trkpt lat="48.61947" lon="10.63491">
        <ele>413.8</ele>
      </trkpt>
      <trkpt lat="48.62366" lon="10.6416">
        <ele>412.4</ele>
      </trkpt>
      <trkpt lat="48.62725" lon="10.64749">
        <ele>410.9</ele>
      </trkpt>
      <trkpt lat="48.63182" lon="10.65281">
        <ele>410.3</ele>
      </trkpt>
      <trkpt lat="48.63608" lon="10.65757">
        <ele>407.8</ele>
      </trkpt>
      <trkpt lat="48.6417" lon="10.66708">
        <ele>407</ele>
      </trkpt>
      <trkpt lat="48.64507" lon="10.67671">
        <ele>408.1</ele>
      </trkpt>
      <trkpt lat="48.64798" lon="10.68814">
        <ele>403.3</ele>
      </trkpt>
      <trkpt lat="48.65023" lon="10.69675">
        <ele>404.5</ele>
      </trkpt>
      <trkpt lat="48.65285" lon="10.70321">
        <ele>403.9</ele>
      </trkpt>
      <trkpt lat="48.65539" lon="10.70593">
        <ele>406.4</ele>
      </trkpt>
      <trkpt lat="48.65913" lon="10.7074">
        <ele>407.5</ele>
      </trkpt>
      <trkpt lat="48.66179" lon="10.70661">
        <ele>405.6</ele>
      </trkpt>
      <trkpt lat="48.66433" lon="10.70525">
        <ele>404.2</ele>
      </trkpt>
      <trkpt lat="48.66635" lon="10.70332">
        <ele>405.4</ele>
      </trkpt>
      <trkpt lat="48.66912" lon="10.7031">
        <ele>406.1</ele>
      </trkpt>
      <trkpt lat="48.67376" lon="10.70672">
        <ele>402</ele>
      </trkpt>
      <trkpt lat="48.67734" lon="10.71137">
        <ele>405.4</ele>
      </trkpt>
      <trkpt lat="48.67996" lon="10.71465">
        <ele>403.2</ele>
      </trkpt>
      <trkpt lat="48.68176" lon="10.72099">
        <ele>401.1</ele>
      </trkpt>
      <trkpt lat="48.68437" lon="10.72847">
        <ele>401.2</ele>
      </trkpt>
      <trkpt lat="48.68748" lon="10.73635">
        <ele>401</ele>
      </trkpt>
      <trkpt lat="48.68927" lon="10.74178">
        <ele>401.2</ele>
      </trkpt>
      <trkpt lat="48.69002" lon="10.74937">
        <ele>401.1</ele>
      </trkpt>
      <trkpt lat="48.69069" lon="10.75333">
        <ele>401</ele>
      </trkpt>
      <trkpt lat="48.69286" lon="10.75684">
        <ele>401.5</ele>
      </trkpt>
      <trkpt lat="48.69488" lon="10.75684">
        <ele>401</ele>
      </trkpt>
      <trkpt lat="48.69675" lon="10.76126">
        <ele>401.2</ele>
      </trkpt>
      <trkpt lat="48.69884" lon="10.76817">
        <ele>402.2</ele>
      </trkpt>
      <trkpt lat="48.70049" lon="10.77179">
        <ele>398.6</ele>
      </trkpt>
      <trkpt lat="48.70278" lon="10.77398">
        <ele>401.2</ele>
      </trkpt>
      <trkpt lat="48.70524" lon="10.77488">
        <ele>402.4</ele>
      </trkpt>
      <trkpt lat="48.70831" lon="10.77568">
        <ele>404.8</ele>
      </trkpt>
      <trkpt lat="48.71137" lon="10.77692">
        <ele>402.2</ele>
      </trkpt>
      <trkpt lat="48.71294" lon="10.77817">
        <ele>401.7</ele>
      </trkpt>
      <trkpt lat="48.71444" lon="10.77964">
        <ele>403.2</ele>
      </trkpt>
      <trkpt lat="48.71511" lon="10.78247">
        <ele>399.4</ele>
      </trkpt>
      <trkpt lat="48.71541" lon="10.78474">
        <ele>402.9</ele>
      </trkpt>
      <trkpt lat="48.71533" lon="10.78643">
        <ele>404</ele>
      </trkpt>
      <trkpt lat="48.71458" lon="10.7887">
        <ele>402.6</ele>
      </trkpt>
      <trkpt lat="48.71339" lon="10.79097">
        <ele>402.8</ele>
      </trkpt>
      <trkpt lat="48.71137" lon="10.79323">
        <ele>400.6</ele>
      </trkpt>
      <trkpt lat="48.70995" lon="10.79436">
        <ele>398.7</ele>
      </trkpt>
      <trkpt lat="48.70958" lon="10.79663">
        <ele>397.5</ele>
      </trkpt>
      <trkpt lat="48.70965" lon="10.79957">
        <ele>396.8</ele>
      </trkpt>
      <trkpt lat="48.71033" lon="10.80161">
        <ele>397</ele>
      </trkpt>
      <trkpt lat="48.71227" lon="10.80478">
        <ele>398.5</ele>
      </trkpt>
      <trkpt lat="48.71429" lon="10.80875">
        <ele>398.8</ele>
      </trkpt>
      <trkpt lat="48.71503" lon="10.8109">
        <ele>400</ele>
      </trkpt>
      <trkpt lat="48.71526" lon="10.81588">
        <ele>401</ele>
      </trkpt>
      <trkpt lat="48.71554" lon="10.82251">
        <ele>400</ele>
      </trkpt>
      <trkpt lat="48.71554" lon="10.82851">
        <ele>399.3</ele>
      </trkpt>
      <trkpt lat="48.71558" lon="10.83418">
        <ele>398</ele>
      </trkpt>
      <trkpt lat="48.71558" lon="10.83857">
        <ele>399.3</ele>
      </trkpt>
      <trkpt lat="48.71623" lon="10.84276">
        <ele>398.5</ele>
      </trkpt>
      <trkpt lat="48.71678" lon="10.84537">
        <ele>398.4</ele>
      </trkpt>
      <trkpt lat="48.71772" lon="10.84769">
        <ele>397.6</ele>
      </trkpt>
      <trkpt lat="48.71951" lon="10.84974">
        <ele>398.1</ele>
      </trkpt>
      <trkpt lat="48.72175" lon="10.85183">
        <ele>401.8</ele>
      </trkpt>
      <trkpt lat="48.72415" lon="10.85413">
        <ele>397.1</ele>
      </trkpt>
      <trkpt lat="48.72624" lon="10.85596">
        <ele>399.3</ele>
      </trkpt>
      <trkpt lat="48.72752" lon="10.85887">
        <ele>396.4</ele>
      </trkpt>
      <trkpt lat="48.72824" lon="10.86215">
        <ele>397</ele>
      </trkpt>
      <trkpt lat="48.728" lon="10.8653">
        <ele>397.2</ele>
      </trkpt>
      <trkpt lat="48.72696" lon="10.87149">
        <ele>397.9</ele>
      </trkpt>
      <trkpt lat="48.7264" lon="10.87574">
        <ele>398.4</ele>
      </trkpt>
      <trkpt lat="48.72656" lon="10.87938">
        <ele>398.2</ele>
      </trkpt>
      <trkpt lat="48.7268" lon="10.8829">
        <ele>396.5</ele>
      </trkpt>
      <trkpt lat="48.72808" lon="10.8863">
        <ele>398.6</ele>
      </trkpt>
      <trkpt lat="48.73" lon="10.88873">
        <ele>396.1</ele>
      </trkpt>
      <trkpt lat="48.73451" lon="10.89223">
        <ele>394.4</ele>
      </trkpt>
      <trkpt lat="48.73659" lon="10.89369">
        <ele>394.9</ele>
      </trkpt>
      <trkpt lat="48.73851" lon="10.89709">
        <ele>394.6</ele>
      </trkpt>
      <trkpt lat="48.73955" lon="10.90109">
        <ele>393.7</ele>
      </trkpt>
      <trkpt lat="48.73988" lon="10.90498">
        <ele>395.7</ele>
      </trkpt>
      <trkpt lat="48.73963" lon="10.90753">
        <ele>398.9</ele>
      </trkpt>
      <trkpt lat="48.73851" lon="10.91008">
        <ele>398.6</ele>
      </trkpt>
      <trkpt lat="48.73651" lon="10.91505">
        <ele>397.8</ele>
      </trkpt>
      <trkpt lat="48.73563" lon="10.91821">
        <ele>400</ele>
      </trkpt>
      <trkpt lat="48.73507" lon="10.92258">
        <ele>395.6</ele>
      </trkpt>
      <trkpt lat="48.73531" lon="10.92828">
        <ele>398.5</ele>
      </trkpt>
      <trkpt lat="48.73531" lon="10.93969">
        <ele>396.7</ele>
      </trkpt>
      <trkpt lat="48.73494" lon="10.94429">
        <ele>393.8</ele>
      </trkpt>
      <trkpt lat="48.73334" lon="10.94999">
        <ele>394</ele>
      </trkpt>
      <trkpt lat="48.73118" lon="10.95679">
        <ele>395.3</ele>
      </trkpt>
      <trkpt lat="48.73022" lon="10.96177">
        <ele>396.8</ele>
      </trkpt>
      <trkpt lat="48.73022" lon="10.96917">
        <ele>393.7</ele>
      </trkpt>
      <trkpt lat="48.73094" lon="10.97548">
        <ele>390.5</ele>
      </trkpt>
      <trkpt lat="48.73334" lon="10.9841">
        <ele>390</ele>
      </trkpt>
      <trkpt lat="48.73598" lon="10.99054">
        <ele>390</ele>
      </trkpt>
      <trkpt lat="48.73774" lon="10.99709">
        <ele>390</ele>
      </trkpt>
      <trkpt lat="48.73745" lon="11.00194">
        <ele>390</ele>
      </trkpt>
      <trkpt lat="48.73568" lon="11.01375">
        <ele>390</ele>
      </trkpt>
      <trkpt lat="48.73488" lon="11.02358">
        <ele>392.5</ele>
      </trkpt>
      <trkpt lat="48.73432" lon="11.03791">
        <ele>391.4</ele>
      </trkpt>
      <trkpt lat="48.7344" lon="11.0458">
        <ele>389.9</ele>
      </trkpt>
      <trkpt lat="48.73536" lon="11.0526">
        <ele>391.3</ele>
      </trkpt>
      <trkpt lat="48.73717" lon="11.05928">
        <ele>388.2</ele>
      </trkpt>
      <trkpt lat="48.73877" lon="11.06365">
        <ele>391.9</ele>
      </trkpt>
      <trkpt lat="48.73961" lon="11.06803">
        <ele>392.2</ele>
      </trkpt>
      <trkpt lat="48.73905" lon="11.07204">
        <ele>392.2</ele>
      </trkpt>
      <trkpt lat="48.73779" lon="11.07447">
        <ele>396.1</ele>
      </trkpt>
      <trkpt lat="48.73494" lon="11.07722">
        <ele>385.3</ele>
      </trkpt>
      <trkpt lat="48.73089" lon="11.08367">
        <ele>392.4</ele>
      </trkpt>
      <trkpt lat="48.72992" lon="11.08916">
        <ele>395.5</ele>
      </trkpt>
      <trkpt lat="48.73048" lon="11.0955">
        <ele>395.6</ele>
      </trkpt>
      <trkpt lat="48.73208" lon="11.1011">
        <ele>391.5</ele>
      </trkpt>
      <trkpt lat="48.73494" lon="11.10744">
        <ele>380.5</ele>
      </trkpt>
      <trkpt lat="48.73661" lon="11.11304">
        <ele>383</ele>
      </trkpt>
      <trkpt lat="48.73786" lon="11.11864">
        <ele>383</ele>
      </trkpt>
      <trkpt lat="48.73828" lon="11.12361">
        <ele>383</ele>
      </trkpt>
      <trkpt lat="48.73759" lon="11.12762">
        <ele>384</ele>
      </trkpt>
      <trkpt lat="48.73515" lon="11.13576">
        <ele>383</ele>
      </trkpt>
      <trkpt lat="48.7341" lon="11.14073">
        <ele>382.1</ele>
      </trkpt>
      <trkpt lat="48.73403" lon="11.14643">
        <ele>382.8</ele>
      </trkpt>
      <trkpt lat="48.73473" lon="11.15108">
        <ele>389</ele>
      </trkpt>
      <trkpt lat="48.73636" lon="11.15529">
        <ele>386.4</ele>
      </trkpt>
      <trkpt lat="48.73811" lon="11.16015">
        <ele>383.5</ele>
      </trkpt>
      <trkpt lat="48.73943" lon="11.16406">
        <ele>382.3</ele>
      </trkpt>
      <trkpt lat="48.7388" lon="11.16924">
        <ele>383.5</ele>
      </trkpt>
      <trkpt lat="48.73804" lon="11.17452">
        <ele>381.3</ele>
      </trkpt>
      <trkpt lat="48.73838" lon="11.17833">
        <ele>386.7</ele>
      </trkpt>
      <trkpt lat="48.73894" lon="11.1797">
        <ele>382.4</ele>
      </trkpt>
      <trkpt lat="48.73936" lon="11.18287">
        <ele>382.7</ele>
      </trkpt>
      <trkpt lat="48.73978" lon="11.18519">
        <ele>380.7</ele>
      </trkpt>
      <trkpt lat="48.74082" lon="11.18657">
        <ele>381</ele>
      </trkpt>
      <trkpt lat="48.74229" lon="11.18773">
        <ele>381.1</ele>
      </trkpt>
      <trkpt lat="48.74326" lon="11.19048">
        <ele>381.2</ele>
      </trkpt>
      <trkpt lat="48.74354" lon="11.19397">
        <ele>383.4</ele>
      </trkpt>
      <trkpt lat="48.7434" lon="11.2002">
        <ele>381.3</ele>
      </trkpt>
      <trkpt lat="48.74215" lon="11.20591">
        <ele>382.7</ele>
      </trkpt>
      <trkpt lat="48.74103" lon="11.21013">
        <ele>380.5</ele>
      </trkpt>
      <trkpt lat="48.7411" lon="11.21499">
        <ele>378.6</ele>
      </trkpt>
      <trkpt lat="48.74201" lon="11.21996">
        <ele>379.8</ele>
      </trkpt>
      <trkpt lat="48.74403" lon="11.22619">
        <ele>378.2</ele>
      </trkpt>
      <trkpt lat="48.74675" lon="11.23507">
        <ele>378.1</ele>
      </trkpt>
      <trkpt lat="48.74898" lon="11.24352">
        <ele>377.7</ele>
      </trkpt>
      <trkpt lat="48.75141" lon="11.25251">
        <ele>377.7</ele>
      </trkpt>
      <trkpt lat="48.75143" lon="11.26051">
        <ele>377</ele>
      </trkpt>
      <trkpt lat="48.75088" lon="11.26643">
        <ele>377</ele>
      </trkpt>
      <trkpt lat="48.75039" lon="11.27129">
        <ele>375.6</ele>
      </trkpt>
      <trkpt lat="48.74955" lon="11.27573">
        <ele>375.5</ele>
      </trkpt>
      <trkpt lat="48.74189" lon="11.30426">
        <ele>377.9</ele>
      </trkpt>
      <trkpt lat="48.74133" lon="11.30996">
        <ele>375.9</ele>
      </trkpt>
      <trkpt lat="48.74062" lon="11.31625">
        <ele>377.1</ele>
      </trkpt>
      <trkpt lat="48.73902" lon="11.32375">
        <ele>376.6</ele>
      </trkpt>
      <trkpt lat="48.73721" lon="11.33295">
        <ele>377.1</ele>
      </trkpt>
      <trkpt lat="48.73679" lon="11.34045">
        <ele>375.2</ele>
      </trkpt>
      <trkpt lat="48.73714" lon="11.34848">
        <ele>376.4</ele>
      </trkpt>
      <trkpt lat="48.73867" lon="11.36053">
        <ele>371.9</ele>
      </trkpt>
      <trkpt lat="48.74006" lon="11.37004">
        <ele>369.2</ele>
      </trkpt>
      <trkpt lat="48.74236" lon="11.38261">
        <ele>369</ele>
      </trkpt>
      <trkpt lat="48.74452" lon="11.39191">
        <ele>369</ele>
      </trkpt>
      <trkpt lat="48.7457" lon="11.39917">
        <ele>369</ele>
      </trkpt>
      <trkpt lat="48.74849" lon="11.40804">
        <ele>369</ele>
      </trkpt>
      <trkpt lat="48.75071" lon="11.41407">
        <ele>365.3</ele>
      </trkpt>
      <trkpt lat="48.7535" lon="11.41967">
        <ele>370</ele>
      </trkpt>
      <trkpt lat="48.75622" lon="11.42379">
        <ele>369.6</ele>
      </trkpt>
      <trkpt lat="48.76019" lon="11.42865">
        <ele>369</ele>
      </trkpt>
      <trkpt lat="48.76242" lon="11.43066">
        <ele>366.4</ele>
      </trkpt>
      <trkpt lat="48.76383" lon="11.43391">
        <ele>367.3</ele>
      </trkpt>
      <trkpt lat="48.76431" lon="11.43994">
        <ele>366.2</ele>
      </trkpt>
      <trkpt lat="48.76396" lon="11.44786">
        <ele>366.7</ele>
      </trkpt>
      <trkpt lat="48.76369" lon="11.45769">
        <ele>367.5</ele>
      </trkpt>
      <trkpt lat="48.76215" lon="11.46731">
        <ele>363</ele>
      </trkpt>
      <trkpt lat="48.76097" lon="11.47491">
        <ele>368.8</ele>
      </trkpt>
      <trkpt lat="48.75952" lon="11.48532">
        <ele>364.5</ele>
      </trkpt>
      <trkpt lat="48.75799" lon="11.49853">
        <ele>364.9</ele>
      </trkpt>
      <trkpt lat="48.75785" lon="11.50921">
        <ele>367.1</ele>
      </trkpt>
      <trkpt lat="48.75778" lon="11.51914">
        <ele>360</ele>
      </trkpt>
      <trkpt lat="48.75861" lon="11.52484">
        <ele>360</ele>
      </trkpt>
      <trkpt lat="48.75896" lon="11.53552">
        <ele>360.9</ele>
      </trkpt>
      <trkpt lat="48.7607" lon="11.54408">
        <ele>359</ele>
      </trkpt>
      <trkpt lat="48.76321" lon="11.55443">
        <ele>359</ele>
      </trkpt>
      <trkpt lat="48.76676" lon="11.56637">
        <ele>359.1</ele>
      </trkpt>
      <trkpt lat="48.76948" lon="11.5744">
        <ele>356</ele>
      </trkpt>
      <trkpt lat="48.77217" lon="11.58231">
        <ele>356</ele>
      </trkpt>
      <trkpt lat="48.77537" lon="11.59012">
        <ele>355</ele>
      </trkpt>
      <trkpt lat="48.77732" lon="11.59816">
        <ele>355</ele>
      </trkpt>
      <trkpt lat="48.77705" lon="11.60291">
        <ele>357.6</ele>
      </trkpt>
      <trkpt lat="48.77636" lon="11.60585">
        <ele>362.5</ele>
      </trkpt>
      <trkpt lat="48.77462" lon="11.61007">
        <ele>358.9</ele>
      </trkpt>
      <trkpt lat="48.77385" lon="11.61366">
        <ele>357.9</ele>
      </trkpt>
      <trkpt lat="48.77336" lon="11.62">
        <ele>357.1</ele>
      </trkpt>
      <trkpt lat="48.77308" lon="11.62782">
        <ele>358.1</ele>
      </trkpt>
      <trkpt lat="48.77357" lon="11.63638">
        <ele>357.9</ele>
      </trkpt>
      <trkpt lat="48.77476" lon="11.64283">
        <ele>359.7</ele>
      </trkpt>
      <trkpt lat="48.77691" lon="11.64674">
        <ele>356.8</ele>
      </trkpt>
      <trkpt lat="48.78061" lon="11.65054">
        <ele>356.7</ele>
      </trkpt>
      <trkpt lat="48.78339" lon="11.65477">
        <ele>355.5</ele>
      </trkpt>
      <trkpt lat="48.7852" lon="11.66058">
        <ele>354.4</ele>
      </trkpt>
      <trkpt lat="48.78659" lon="11.66639">
        <ele>354.1</ele>
      </trkpt>
      <trkpt lat="48.78743" lon="11.67316">
        <ele>355</ele>
      </trkpt>
      <trkpt lat="48.78819" lon="11.67825">
        <ele>356.8</ele>
      </trkpt>
      <trkpt lat="48.7893" lon="11.68269">
        <ele>357.4</ele>
      </trkpt>
      <trkpt lat="48.7916" lon="11.68618">
        <ele>355.8</ele>
      </trkpt>
      <trkpt lat="48.79661" lon="11.6941">
        <ele>357.1</ele>
      </trkpt>
      <trkpt lat="48.80127" lon="11.7015">
        <ele>355.1</ele>
      </trkpt>
      <trkpt lat="48.8042" lon="11.70657">
        <ele>351.5</ele>
      </trkpt>
      <trkpt lat="48.80663" lon="11.71122">
        <ele>353.5</ele>
      </trkpt>
      <trkpt lat="48.80851" lon="11.71576">
        <ele>358.7</ele>
      </trkpt>
      <trkpt lat="48.81081" lon="11.72263">
        <ele>351.7</ele>
      </trkpt>
      <trkpt lat="48.81276" lon="11.72844">
        <ele>354.3</ele>
      </trkpt>
      <trkpt lat="48.81533" lon="11.7369">
        <ele>351.8</ele>
      </trkpt>
      <trkpt lat="48.8186" lon="11.74535">
        <ele>350.3</ele>
      </trkpt>
      <trkpt lat="48.82097" lon="11.75021">
        <ele>353.1</ele>
      </trkpt>
      <trkpt lat="48.82297" lon="11.75338">
        <ele>350.5</ele>
      </trkpt>
      <trkpt lat="48.82513" lon="11.75496">
        <ele>351.9</ele>
      </trkpt>
      <trkpt lat="48.82812" lon="11.75634">
        <ele>351.7</ele>
      </trkpt>
      <trkpt lat="48.83076" lon="11.75708">
        <ele>352.6</ele>
      </trkpt>
      <trkpt lat="48.83565" lon="11.75794">
        <ele>354.8</ele>
      </trkpt>
      <trkpt lat="48.83952" lon="11.76105">
        <ele>351.9</ele>
      </trkpt>
      <trkpt lat="48.84191" lon="11.76258">
        <ele>352.3</ele>
      </trkpt>
      <trkpt lat="48.84726" lon="11.76433">
        <ele>350.5</ele>
      </trkpt>
      <trkpt lat="48.85048" lon="11.76489">
        <ele>348.2</ele>
      </trkpt>
      <trkpt lat="48.85295" lon="11.76516">
        <ele>347.3</ele>
      </trkpt>
      <trkpt lat="48.85598" lon="11.76795">
        <ele>347.7</ele>
      </trkpt>
      <trkpt lat="48.85974" lon="11.7713">
        <ele>348.5</ele>
      </trkpt>
      <trkpt lat="48.86332" lon="11.77534">
        <ele>347.4</ele>
      </trkpt>
      <trkpt lat="48.86625" lon="11.7805">
        <ele>347.2</ele>
      </trkpt>
      <trkpt lat="48.86891" lon="11.78371">
        <ele>349.2</ele>
      </trkpt>
      <trkpt lat="48.87148" lon="11.78357">
        <ele>348.5</ele>
      </trkpt>
      <trkpt lat="48.88083" lon="11.785">
        <ele>347</ele>
      </trkpt>
      <trkpt lat="48.88331" lon="11.78528">
        <ele>345.8</ele>
      </trkpt>
      <trkpt lat="48.88698" lon="11.78779">
        <ele>346.8</ele>
      </trkpt>
      <trkpt lat="48.89037" lon="11.79128">
        <ele>348.6</ele>
      </trkpt>
      <trkpt lat="48.89165" lon="11.79365">
        <ele>350.1</ele>
      </trkpt>
      <trkpt lat="48.89138" lon="11.79978">
        <ele>352.7</ele>
      </trkpt>
      <trkpt lat="48.88973" lon="11.80745">
        <ele>354.4</ele>
      </trkpt>
      <trkpt lat="48.88899" lon="11.814">
        <ele>344.8</ele>
      </trkpt>
      <trkpt lat="48.88991" lon="11.81944">
        <ele>348.2</ele>
      </trkpt>
      <trkpt lat="48.89147" lon="11.82195">
        <ele>347.2</ele>
      </trkpt>
      <trkpt lat="48.8933" lon="11.82223">
        <ele>349.9</ele>
      </trkpt>
      <trkpt lat="48.8955" lon="11.81972">
        <ele>357.6</ele>
      </trkpt>
      <trkpt lat="48.89853" lon="11.81791">
        <ele>348</ele>
      </trkpt>
      <trkpt lat="48.8999" lon="11.81902">
        <ele>354.9</ele>
      </trkpt>
      <trkpt lat="48.89954" lon="11.82125">
        <ele>355.6</ele>
      </trkpt>
      <trkpt lat="48.89789" lon="11.82418">
        <ele>356</ele>
      </trkpt>
      <trkpt lat="48.89715" lon="11.82599">
        <ele>382.9</ele>
      </trkpt>
      <trkpt lat="48.89844" lon="11.82892">
        <ele>355.2</ele>
      </trkpt>
      <trkpt lat="48.89862" lon="11.8306">
        <ele>366.2</ele>
      </trkpt>
      <trkpt lat="48.89816" lon="11.83283">
        <ele>369.5</ele>
      </trkpt>
      <trkpt lat="48.8986" lon="11.83448">
        <ele>365</ele>
      </trkpt>
      <trkpt lat="48.90008" lon="11.83635">
        <ele>356.7</ele>
      </trkpt>
      <trkpt lat="48.9024" lon="11.84187">
        <ele>353.6</ele>
      </trkpt>
      <trkpt lat="48.90453" lon="11.84649">
        <ele>351.7</ele>
      </trkpt>
      <trkpt lat="48.90693" lon="11.85077">
        <ele>354.8</ele>
      </trkpt>
      <trkpt lat="48.90845" lon="11.85262">
        <ele>344.3</ele>
      </trkpt>
      <trkpt lat="48.9094" lon="11.85275">
        <ele>356</ele>
      </trkpt>
      <trkpt lat="48.91291" lon="11.85291">
        <ele>347.7</ele>
      </trkpt>
      <trkpt lat="48.91453" lon="11.854">
        <ele>356.7</ele>
      </trkpt>
      <trkpt lat="48.91576" lon="11.85666">
        <ele>353.3</ele>
      </trkpt>
      <trkpt lat="48.91628" lon="11.85981">
        <ele>354.3</ele>
      </trkpt>
      <trkpt lat="48.91589" lon="11.86415">
        <ele>342.2</ele>
      </trkpt>
      <trkpt lat="48.91466" lon="11.86908">
        <ele>346.4</ele>
      </trkpt>
      <trkpt lat="48.91265" lon="11.87441">
        <ele>345.4</ele>
      </trkpt>
      <trkpt lat="48.90974" lon="11.88052">
        <ele>343.6</ele>
      </trkpt>
      <trkpt lat="48.90831" lon="11.88732">
        <ele>345.2</ele>
      </trkpt>
      <trkpt lat="48.90766" lon="11.8958">
        <ele>346.8</ele>
      </trkpt>
      <trkpt lat="48.90818" lon="11.9026">
        <ele>341.5</ele>
      </trkpt>
      <trkpt lat="48.91" lon="11.90793">
        <ele>332.1</ele>
      </trkpt>
      <trkpt lat="48.91097" lon="11.91522">
        <ele>340.6</ele>
      </trkpt>
      <trkpt lat="48.91155" lon="11.92637">
        <ele>342.7</ele>
      </trkpt>
      <trkpt lat="48.91165" lon="11.93132">
        <ele>345.1</ele>
      </trkpt>
      <trkpt lat="48.90944" lon="11.93714">
        <ele>344.2</ele>
      </trkpt>
      <trkpt lat="48.90601" lon="11.94601">
        <ele>339</ele>
      </trkpt>
      <trkpt lat="48.90426" lon="11.95291">
        <ele>339.1</ele>
      </trkpt>
      <trkpt lat="48.90426" lon="11.96001">
        <ele>338.9</ele>
      </trkpt>
      <trkpt lat="48.90679" lon="11.96543">
        <ele>338.1</ele>
      </trkpt>
      <trkpt lat="48.90944" lon="11.96898">
        <ele>337.5</ele>
      </trkpt>
      <trkpt lat="48.91171" lon="11.96977">
        <ele>337</ele>
      </trkpt>
      <trkpt lat="48.91482" lon="11.96997">
        <ele>337</ele>
      </trkpt>
      <trkpt lat="48.91845" lon="11.97085">
        <ele>337</ele>
      </trkpt>
      <trkpt lat="48.92284" lon="11.97434">
        <ele>339.9</ele>
      </trkpt>
      <trkpt lat="48.92725" lon="11.98262">
        <ele>336</ele>
      </trkpt>
      <trkpt lat="48.93055" lon="11.991">
        <ele>335</ele>
      </trkpt>
      <trkpt lat="48.93172" lon="11.99475">
        <ele>338.7</ele>
      </trkpt>
      <trkpt lat="48.9299" lon="12.00274">
        <ele>335.6</ele>
      </trkpt>
      <trkpt lat="48.9275" lon="12.01082">
        <ele>335</ele>
      </trkpt>
      <trkpt lat="48.9264" lon="12.01467">
        <ele>336.1</ele>
      </trkpt>
      <trkpt lat="48.9285" lon="12.02204">
        <ele>335.4</ele>
      </trkpt>
      <trkpt lat="48.93051" lon="12.02786">
        <ele>337.3</ele>
      </trkpt>
      <trkpt lat="48.93323" lon="12.03279">
        <ele>334.9</ele>
      </trkpt>
      <trkpt lat="48.93485" lon="12.03604">
        <ele>335.6</ele>
      </trkpt>
      <trkpt lat="48.93783" lon="12.03782">
        <ele>335.7</ele>
      </trkpt>
      <trkpt lat="48.93958" lon="12.03801">
        <ele>335.7</ele>
      </trkpt>
      <trkpt lat="48.9412" lon="12.03437">
        <ele>339.7</ele>
      </trkpt>
      <trkpt lat="48.94405" lon="12.0248">
        <ele>337.7</ele>
      </trkpt>
      <trkpt lat="48.94631" lon="12.01751">
        <ele>334.4</ele>
      </trkpt>
      <trkpt lat="48.94968" lon="12.00922">
        <ele>334.2</ele>
      </trkpt>
      <trkpt lat="48.95052" lon="12.00548">
        <ele>334</ele>
      </trkpt>
      <trkpt lat="48.95033" lon="11.99936">
        <ele>339.3</ele>
      </trkpt>
      <trkpt lat="48.94987" lon="11.99562">
        <ele>334</ele>
      </trkpt>
      <trkpt lat="48.95052" lon="11.99197">
        <ele>333.5</ele>
      </trkpt>
      <trkpt lat="48.95184" lon="11.98859">
        <ele>333.6</ele>
      </trkpt>
      <trkpt lat="48.95385" lon="11.98731">
        <ele>333.7</ele>
      </trkpt>
      <trkpt lat="48.9576" lon="11.9881">
        <ele>337.4</ele>
      </trkpt>
      <trkpt lat="48.96103" lon="11.99115">
        <ele>334.1</ele>
      </trkpt>
      <trkpt lat="48.96434" lon="11.99766">
        <ele>333.6</ele>
      </trkpt>
      <trkpt lat="48.96634" lon="12.00565">
        <ele>336.6</ele>
      </trkpt>
      <trkpt lat="48.9677" lon="12.01019">
        <ele>333.7</ele>
      </trkpt>
      <trkpt lat="48.96848" lon="12.01689">
        <ele>333.2</ele>
      </trkpt>
      <trkpt lat="48.9699" lon="12.02301">
        <ele>332.5</ele>
      </trkpt>
      <trkpt lat="48.97217" lon="12.02951">
        <ele>332.1</ele>
      </trkpt>
      <trkpt lat="48.97488" lon="12.03395">
        <ele>332.5</ele>
      </trkpt>
      <trkpt lat="48.98103" lon="12.04056">
        <ele>329.6</ele>
      </trkpt>
      <trkpt lat="48.98433" lon="12.04302">
        <ele>329</ele>
      </trkpt>
      <trkpt lat="48.98836" lon="12.04565">
        <ele>328.4</ele>
      </trkpt>
      <trkpt lat="48.99081" lon="12.04575">
        <ele>328.4</ele>
      </trkpt>
      <trkpt lat="48.99334" lon="12.04467">
        <ele>330.4</ele>
      </trkpt>
      <trkpt lat="48.99612" lon="12.0427">
        <ele>328.3</ele>
      </trkpt>
      <trkpt lat="48.99884" lon="12.04053">
        <ele>329.6</ele>
      </trkpt>
      <trkpt lat="49.0033" lon="12.03461">
        <ele>331</ele>
      </trkpt>
      <trkpt lat="49.00646" lon="12.03083">
        <ele>329</ele>
      </trkpt>
      <trkpt lat="49.00963" lon="12.02836">
        <ele>328.5</ele>
      </trkpt>
      <trkpt lat="49.0117" lon="12.02856">
        <ele>330.1</ele>
      </trkpt>
      <trkpt lat="49.01409" lon="12.03034">
        <ele>328.4</ele>
      </trkpt>
      <trkpt lat="49.01888" lon="12.03438">
        <ele>331.9</ele>
      </trkpt>
      <trkpt lat="49.02218" lon="12.04059">
        <ele>325.2</ele>
      </trkpt>
      <trkpt lat="49.02715" lon="12.04796">
        <ele>329.8</ele>
      </trkpt>
      <trkpt lat="49.03039" lon="12.05674">
        <ele>329.3</ele>
      </trkpt>
      <trkpt lat="49.03149" lon="12.06374">
        <ele>325.3</ele>
      </trkpt>
      <trkpt lat="49.03045" lon="12.07054">
        <ele>328.1</ele>
      </trkpt>
      <trkpt lat="49.0289" lon="12.07507">
        <ele>327.4</ele>
      </trkpt>
      <trkpt lat="49.02392" lon="12.08227">
        <ele>329</ele>
      </trkpt>
      <trkpt lat="49.02231" lon="12.09046">
        <ele>330</ele>
      </trkpt>
      <trkpt lat="49.02095" lon="12.10189">
        <ele>327.3</ele>
      </trkpt>
      <trkpt lat="49.01978" lon="12.1085">
        <ele>329.2</ele>
      </trkpt>
      <trkpt lat="49.01927" lon="12.1151">
        <ele>325.8</ele>
      </trkpt>
      <trkpt lat="49.02017" lon="12.12063">
        <ele>326.4</ele>
      </trkpt>
      <trkpt lat="49.02147" lon="12.12516">
        <ele>329.1</ele>
      </trkpt>
      <trkpt lat="49.02237" lon="12.13039">
        <ele>325.3</ele>
      </trkpt>
      <trkpt lat="49.02282" lon="12.1366">
        <ele>326.9</ele>
      </trkpt>
      <trkpt lat="49.02275" lon="12.14231">
        <ele>325</ele>
      </trkpt>
      <trkpt lat="49.0214" lon="12.14695">
        <ele>326.1</ele>
      </trkpt>
      <trkpt lat="49.01913" lon="12.15266">
        <ele>324.6</ele>
      </trkpt>
      <trkpt lat="49.01629" lon="12.16045">
        <ele>325.4</ele>
      </trkpt>
      <trkpt lat="49.01532" lon="12.16657">
        <ele>328.3</ele>
      </trkpt>
      <trkpt lat="49.01357" lon="12.17357">
        <ele>326.5</ele>
      </trkpt>
      <trkpt lat="49.00937" lon="12.17879">
        <ele>324.3</ele>
      </trkpt>
      <trkpt lat="49.00723" lon="12.18343">
        <ele>328.3</ele>
      </trkpt>
      <trkpt lat="49.00788" lon="12.19112">
        <ele>327.7</ele>
      </trkpt>
      <trkpt lat="49.01131" lon="12.19466">
        <ele>325.3</ele>
      </trkpt>
      <trkpt lat="49.01739" lon="12.19826">
        <ele>324.1</ele>
      </trkpt>
      <trkpt lat="49.02167" lon="12.20289">
        <ele>324</ele>
      </trkpt>
      <trkpt lat="49.02581" lon="12.21107">
        <ele>324</ele>
      </trkpt>
      <trkpt lat="49.02807" lon="12.21916">
        <ele>324</ele>
      </trkpt>
      <trkpt lat="49.02723" lon="12.22517">
        <ele>324.6</ele>
      </trkpt>
      <trkpt lat="49.02272" lon="12.24328">
        <ele>324</ele>
      </trkpt>
      <trkpt lat="49.0213" lon="12.25166">
        <ele>324</ele>
      </trkpt>
      <trkpt lat="49.01878" lon="12.25816">
        <ele>324</ele>
      </trkpt>
      <trkpt lat="49.01341" lon="12.2625">
        <ele>324</ele>
      </trkpt>
      <trkpt lat="49.00985" lon="12.26763">
        <ele>324.2</ele>
      </trkpt>
      <trkpt lat="49.01218" lon="12.28054">
        <ele>324.2</ele>
      </trkpt>
      <trkpt lat="49.01483" lon="12.2906">
        <ele>324</ele>
      </trkpt>
      <trkpt lat="49.01487" lon="12.30304">
        <ele>324</ele>
      </trkpt>
      <trkpt lat="49.01364" lon="12.31477">
        <ele>324</ele>
      </trkpt>
      <trkpt lat="49.01092" lon="12.32414">
        <ele>324</ele>
      </trkpt>
      <trkpt lat="49.00491" lon="12.33321">
        <ele>324</ele>
      </trkpt>
      <trkpt lat="48.99789" lon="12.3443">
        <ele>324</ele>
      </trkpt>
      <trkpt lat="48.99446" lon="12.34411">
        <ele>324</ele>
      </trkpt>
      <trkpt lat="48.99077" lon="12.34174">
        <ele>323.9</ele>
      </trkpt>
      <trkpt lat="48.98838" lon="12.33849">
        <ele>323</ele>
      </trkpt>
      <trkpt lat="48.98625" lon="12.33208">
        <ele>323</ele>
      </trkpt>
      <trkpt lat="48.98398" lon="12.32784">
        <ele>323</ele>
      </trkpt>
      <trkpt lat="48.98184" lon="12.32623">
        <ele>323</ele>
      </trkpt>
      <trkpt lat="48.97906" lon="12.32918">
        <ele>322.9</ele>
      </trkpt>
      <trkpt lat="48.9764" lon="12.33745">
        <ele>322</ele>
      </trkpt>
      <trkpt lat="48.97568" lon="12.34831">
        <ele>322</ele>
      </trkpt>
      <trkpt lat="48.97598" lon="12.35484">
        <ele>321.2</ele>
      </trkpt>
      <trkpt lat="48.97515" lon="12.36044">
        <ele>321.1</ele>
      </trkpt>
      <trkpt lat="48.9731" lon="12.36403">
        <ele>321</ele>
      </trkpt>
      <trkpt lat="48.97112" lon="12.36893">
        <ele>320.2</ele>
      </trkpt>
      <trkpt lat="48.97154" lon="12.37335">
        <ele>320</ele>
      </trkpt>
      <trkpt lat="48.97287" lon="12.3774">
        <ele>320.5</ele>
      </trkpt>
      <trkpt lat="48.97744" lon="12.38061">
        <ele>320.2</ele>
      </trkpt>
      <trkpt lat="48.97967" lon="12.38346">
        <ele>321</ele>
      </trkpt>
      <trkpt lat="48.98058" lon="12.38954">
        <ele>319.7</ele>
      </trkpt>
      <trkpt lat="48.98233" lon="12.40665">
        <ele>320.6</ele>
      </trkpt>
      <trkpt lat="48.98009" lon="12.41244">
        <ele>320.5</ele>
      </trkpt>
      <trkpt lat="48.97774" lon="12.41704">
        <ele>318.3</ele>
      </trkpt>
      <trkpt lat="48.97413" lon="12.42849">
        <ele>318</ele>
      </trkpt>
      <trkpt lat="48.97081" lon="12.43778">
        <ele>318</ele>
      </trkpt>
      <trkpt lat="48.96749" lon="12.44625">
        <ele>317.1</ele>
      </trkpt>
      <trkpt lat="48.96731" lon="12.45269">
        <ele>317.2</ele>
      </trkpt>
      <trkpt lat="48.96685" lon="12.46199">
        <ele>318.4</ele>
      </trkpt>
      <trkpt lat="48.96564" lon="12.4665">
        <ele>317</ele>
      </trkpt>
      <trkpt lat="48.96135" lon="12.46815">
        <ele>317.4</ele>
      </trkpt>
      <trkpt lat="48.9561" lon="12.46682">
        <ele>318.4</ele>
      </trkpt>
      <trkpt lat="48.95278" lon="12.46958">
        <ele>317</ele>
      </trkpt>
      <trkpt lat="48.95151" lon="12.47491">
        <ele>316.2</ele>
      </trkpt>
      <trkpt lat="48.95356" lon="12.47924">
        <ele>316</ele>
      </trkpt>
      <trkpt lat="48.95761" lon="12.48246">
        <ele>316</ele>
      </trkpt>
      <trkpt lat="48.96027" lon="12.48503">
        <ele>316.3</ele>
      </trkpt>
      <trkpt lat="48.96014" lon="12.48972">
        <ele>316</ele>
      </trkpt>
      <trkpt lat="48.95779" lon="12.49589">
        <ele>316</ele>
      </trkpt>
      <trkpt lat="48.95489" lon="12.49727">
        <ele>316</ele>
      </trkpt>
      <trkpt lat="48.95151" lon="12.49782">
        <ele>316.1</ele>
      </trkpt>
      <trkpt lat="48.94879" lon="12.50113">
        <ele>316</ele>
      </trkpt>
      <trkpt lat="48.94613" lon="12.50941">
        <ele>316</ele>
      </trkpt>
      <trkpt lat="48.94649" lon="12.51686">
        <ele>316</ele>
      </trkpt>
      <trkpt lat="48.94474" lon="12.52155">
        <ele>316</ele>
      </trkpt>
      <trkpt lat="48.94047" lon="12.52287">
        <ele>316</ele>
      </trkpt>
      <trkpt lat="48.93811" lon="12.51892">
        <ele>316</ele>
      </trkpt>
      <trkpt lat="48.93449" lon="12.51202">
        <ele>316</ele>
      </trkpt>
      <trkpt lat="48.93231" lon="12.50926">
        <ele>316</ele>
      </trkpt>
      <trkpt lat="48.92675" lon="12.51055">
        <ele>316</ele>
      </trkpt>
      <trkpt lat="48.92155" lon="12.51395">
        <ele>316</ele>
      </trkpt>
      <trkpt lat="48.91073" lon="12.52001">
        <ele>315</ele>
      </trkpt>
      <trkpt lat="48.90571" lon="12.52581">
        <ele>315</ele>
      </trkpt>
      <trkpt lat="48.90039" lon="12.53657">
        <ele>315</ele>
      </trkpt>
      <trkpt lat="48.89858" lon="12.55212">
        <ele>315.4</ele>
      </trkpt>
      <trkpt lat="48.89845" lon="12.56481">
        <ele>315</ele>
      </trkpt>
      <trkpt lat="48.89849" lon="12.5721">
        <ele>315.1</ele>
      </trkpt>
      <trkpt lat="48.89806" lon="12.57587">
        <ele>315.3</ele>
      </trkpt>
      <trkpt lat="48.89679" lon="12.58415">
        <ele>314</ele>
      </trkpt>
      <trkpt lat="48.89746" lon="12.58866">
        <ele>314.9</ele>
      </trkpt>
      <trkpt lat="48.89952" lon="12.5917">
        <ele>314.1</ele>
      </trkpt>
      <trkpt lat="48.90175" lon="12.594">
        <ele>314.2</ele>
      </trkpt>
      <trkpt lat="48.90248" lon="12.5985">
        <ele>314.2</ele>
      </trkpt>
      <trkpt lat="48.90145" lon="12.60264">
        <ele>314.2</ele>
      </trkpt>
      <trkpt lat="48.89784" lon="12.61094">
        <ele>314.7</ele>
      </trkpt>
      <trkpt lat="48.89663" lon="12.61425">
        <ele>315.1</ele>
      </trkpt>
      <trkpt lat="48.89754" lon="12.61858">
        <ele>314.3</ele>
      </trkpt>
      <trkpt lat="48.89978" lon="12.62106">
        <ele>314.3</ele>
      </trkpt>
      <trkpt lat="48.90661" lon="12.62409">
        <ele>314</ele>
      </trkpt>
      <trkpt lat="48.90836" lon="12.6286">
        <ele>313.4</ele>
      </trkpt>
      <trkpt lat="48.90854" lon="12.63403">
        <ele>313.3</ele>
      </trkpt>
      <trkpt lat="48.9058" lon="12.63911">
        <ele>313.2</ele>
      </trkpt>
      <trkpt lat="48.90483" lon="12.64242">
        <ele>313.2</ele>
      </trkpt>
      <trkpt lat="48.90567" lon="12.64647">
        <ele>313.6</ele>
      </trkpt>
      <trkpt lat="48.90761" lon="12.64969">
        <ele>313.3</ele>
      </trkpt>
      <trkpt lat="48.90815" lon="12.65484">
        <ele>313</ele>
      </trkpt>
      <trkpt lat="48.90688" lon="12.66202">
        <ele>313.5</ele>
      </trkpt>
      <trkpt lat="48.90465" lon="12.66974">
        <ele>313.7</ele>
      </trkpt>
      <trkpt lat="48.90416" lon="12.67738">
        <ele>313</ele>
      </trkpt>
      <trkpt lat="48.90265" lon="12.6852">
        <ele>313</ele>
      </trkpt>
      <trkpt lat="48.89969" lon="12.69127">
        <ele>313</ele>
      </trkpt>
      <trkpt lat="48.89515" lon="12.69964">
        <ele>313.1</ele>
      </trkpt>
      <trkpt lat="48.89334" lon="12.70574">
        <ele>313</ele>
      </trkpt>
      <trkpt lat="48.89197" lon="12.7099">
        <ele>313.3</ele>
      </trkpt>
      <trkpt lat="48.88992" lon="12.71394">
        <ele>312.2</ele>
      </trkpt>
      <trkpt lat="48.88804" lon="12.71615">
        <ele>313</ele>
      </trkpt>
      <trkpt lat="48.88684" lon="12.71914">
        <ele>312</ele>
      </trkpt>
      <trkpt lat="48.88521" lon="12.72682">
        <ele>312.6</ele>
      </trkpt>
      <trkpt lat="48.88504" lon="12.73202">
        <ele>312</ele>
      </trkpt>
      <trkpt lat="48.88282" lon="12.73865">
        <ele>312.6</ele>
      </trkpt>
      <trkpt lat="48.87974" lon="12.74607">
        <ele>312.9</ele>
      </trkpt>
      <trkpt lat="48.87597" lon="12.74997">
        <ele>312</ele>
      </trkpt>
      <trkpt lat="48.87152" lon="12.75374">
        <ele>312.2</ele>
      </trkpt>
      <trkpt lat="48.86681" lon="12.76071">
        <ele>313.8</ele>
      </trkpt>
      <trkpt lat="48.86339" lon="12.76058">
        <ele>312.6</ele>
      </trkpt>
      <trkpt lat="48.85654" lon="12.76241">
        <ele>312.2</ele>
      </trkpt>
      <trkpt lat="48.85089" lon="12.76458">
        <ele>312</ele>
      </trkpt>
      <trkpt lat="48.84562" lon="12.76361">
        <ele>312</ele>
      </trkpt>
      <trkpt lat="48.84179" lon="12.76434">
        <ele>312</ele>
      </trkpt>
      <trkpt lat="48.8343" lon="12.77535">
        <ele>312.1</ele>
      </trkpt>
      <trkpt lat="48.82855" lon="12.78749">
        <ele>312</ele>
      </trkpt>
      <trkpt lat="48.82463" lon="12.80399">
        <ele>312.1</ele>
      </trkpt>
      <trkpt lat="48.82487" lon="12.82293">
        <ele>311.1</ele>
      </trkpt>
      <trkpt lat="48.82767" lon="12.83033">
        <ele>311</ele>
      </trkpt>
      <trkpt lat="48.83198" lon="12.83834">
        <ele>311</ele>
      </trkpt>
      <trkpt lat="48.83694" lon="12.84271">
        <ele>311</ele>
      </trkpt>
      <trkpt lat="48.84173" lon="12.8489">
        <ele>311.5</ele>
      </trkpt>
      <trkpt lat="48.84341" lon="12.85898">
        <ele>311</ele>
      </trkpt>
      <trkpt lat="48.84147" lon="12.87432">
        <ele>311</ele>
      </trkpt>
      <trkpt lat="48.84155" lon="12.88439">
        <ele>311.3</ele>
      </trkpt>
      <trkpt lat="48.84386" lon="12.89337">
        <ele>311.8</ele>
      </trkpt>
      <trkpt lat="48.84453" lon="12.9074">
        <ele>311</ele>
      </trkpt>
      <trkpt lat="48.84261" lon="12.91359">
        <ele>311</ele>
      </trkpt>
      <trkpt lat="48.8379" lon="12.92391">
        <ele>311</ele>
      </trkpt>
      <trkpt lat="48.83222" lon="12.93938">
        <ele>311.3</ele>
      </trkpt>
      <trkpt lat="48.82702" lon="12.95273">
        <ele>310</ele>
      </trkpt>
      <trkpt lat="48.82255" lon="12.96292">
        <ele>310.9</ele>
      </trkpt>
      <trkpt lat="48.82055" lon="12.96685">
        <ele>310.1</ele>
      </trkpt>
      <trkpt lat="48.81559" lon="12.96879">
        <ele>310.6</ele>
      </trkpt>
      <trkpt lat="48.81056" lon="12.96989">
        <ele>310</ele>
      </trkpt>
      <trkpt lat="48.80608" lon="12.97207">
        <ele>310.4</ele>
      </trkpt>
      <trkpt lat="48.80328" lon="12.97729">
        <ele>310.4</ele>
      </trkpt>
      <trkpt lat="48.79434" lon="12.9933">
        <ele>310.2</ele>
      </trkpt>
      <trkpt lat="48.7893" lon="13.00228">
        <ele>310</ele>
      </trkpt>
      <trkpt lat="48.78515" lon="13.00629">
        <ele>310.3</ele>
      </trkpt>
      <trkpt lat="48.78003" lon="13.00665">
        <ele>310</ele>
      </trkpt>
      <trkpt lat="48.77259" lon="13.00836">
        <ele>312.6</ele>
      </trkpt>
      <trkpt lat="48.76771" lon="13.01479">
        <ele>310.4</ele>
      </trkpt>
      <trkpt lat="48.7629" lon="13.02082">
        <ele>310.9</ele>
      </trkpt>
      <trkpt lat="48.75785" lon="13.0241">
        <ele>310.1</ele>
      </trkpt>
      <trkpt lat="48.75553" lon="13.02847">
        <ele>310</ele>
      </trkpt>
      <trkpt lat="48.74849" lon="13.03648">
        <ele>309.4</ele>
      </trkpt>
      <trkpt lat="48.74009" lon="13.03745">
        <ele>308.8</ele>
      </trkpt>
      <trkpt lat="48.73448" lon="13.03187">
        <ele>308.8</ele>
      </trkpt>
      <trkpt lat="48.7316" lon="13.027">
        <ele>308</ele>
      </trkpt>
      <trkpt lat="48.7288" lon="13.01814">
        <ele>308.2</ele>
      </trkpt>
      <trkpt lat="48.72664" lon="13.01511">
        <ele>307</ele>
      </trkpt>
      <trkpt lat="48.72391" lon="13.01426">
        <ele>307.2</ele>
      </trkpt>
      <trkpt lat="48.72055" lon="13.01486">
        <ele>309.2</ele>
      </trkpt>
      <trkpt lat="48.71767" lon="13.01972">
        <ele>307.3</ele>
      </trkpt>
      <trkpt lat="48.71623" lon="13.02494">
        <ele>308</ele>
      </trkpt>
      <trkpt lat="48.71711" lon="13.03368">
        <ele>307.6</ele>
      </trkpt>
      <trkpt lat="48.71887" lon="13.03817">
        <ele>307.8</ele>
      </trkpt>
      <trkpt lat="48.72319" lon="13.04363">
        <ele>306.3</ele>
      </trkpt>
      <trkpt lat="48.72591" lon="13.04594">
        <ele>306.4</ele>
      </trkpt>
      <trkpt lat="48.72696" lon="13.04873">
        <ele>306.9</ele>
      </trkpt>
      <trkpt lat="48.72664" lon="13.05358">
        <ele>306.4</ele>
      </trkpt>
      <trkpt lat="48.72503" lon="13.05698">
        <ele>306.5</ele>
      </trkpt>
      <trkpt lat="48.72215" lon="13.05917">
        <ele>306.4</ele>
      </trkpt>
      <trkpt lat="48.71647" lon="13.06609">
        <ele>306.2</ele>
      </trkpt>
      <trkpt lat="48.71598" lon="13.07106">
        <ele>306.4</ele>
      </trkpt>
      <trkpt lat="48.71711" lon="13.0764">
        <ele>307.2</ele>
      </trkpt>
      <trkpt lat="48.71759" lon="13.08053">
        <ele>306.4</ele>
      </trkpt>
      <trkpt lat="48.71639" lon="13.08526">
        <ele>307.7</ele>
      </trkpt>
      <trkpt lat="48.7143" lon="13.08793">
        <ele>306.3</ele>
      </trkpt>
      <trkpt lat="48.7103" lon="13.09291">
        <ele>306</ele>
      </trkpt>
      <trkpt lat="48.70497" lon="13.09822">
        <ele>305.9</ele>
      </trkpt>
      <trkpt lat="48.70201" lon="13.09785">
        <ele>305</ele>
      </trkpt>
      <trkpt lat="48.6992" lon="13.09652">
        <ele>305.4</ele>
      </trkpt>
      <trkpt lat="48.69584" lon="13.09385">
        <ele>305.6</ele>
      </trkpt>
      <trkpt lat="48.69159" lon="13.08827">
        <ele>304.1</ele>
      </trkpt>
      <trkpt lat="48.68855" lon="13.08608">
        <ele>304.2</ele>
      </trkpt>
      <trkpt lat="48.68494" lon="13.08669">
        <ele>305.1</ele>
      </trkpt>
      <trkpt lat="48.68358" lon="13.09203">
        <ele>304.6</ele>
      </trkpt>
      <trkpt lat="48.68422" lon="13.1004">
        <ele>304.5</ele>
      </trkpt>
      <trkpt lat="48.6855" lon="13.10684">
        <ele>304.1</ele>
      </trkpt>
      <trkpt lat="48.6851" lon="13.11133">
        <ele>304</ele>
      </trkpt>
      <trkpt lat="48.68238" lon="13.11327">
        <ele>304</ele>
      </trkpt>
      <trkpt lat="48.66756" lon="13.11446">
        <ele>302</ele>
      </trkpt>
      <trkpt lat="48.66469" lon="13.11635">
        <ele>302.9</ele>
      </trkpt>
      <trkpt lat="48.66241" lon="13.12109">
        <ele>302</ele>
      </trkpt>
      <trkpt lat="48.66176" lon="13.12838">
        <ele>302.2</ele>
      </trkpt>
      <trkpt lat="48.6615" lon="13.13834">
        <ele>302</ele>
      </trkpt>
      <trkpt lat="48.66032" lon="13.14731">
        <ele>302.5</ele>
      </trkpt>
      <trkpt lat="48.65752" lon="13.15145">
        <ele>304</ele>
      </trkpt>
      <trkpt lat="48.65426" lon="13.15807">
        <ele>302.3</ele>
      </trkpt>
      <trkpt lat="48.64912" lon="13.16596">
        <ele>302.9</ele>
      </trkpt>
      <trkpt lat="48.64586" lon="13.17128">
        <ele>302</ele>
      </trkpt>
      <trkpt lat="48.64056" lon="13.17924">
        <ele>301</ele>
      </trkpt>
      <trkpt lat="48.63691" lon="13.18683">
        <ele>300.1</ele>
      </trkpt>
      <trkpt lat="48.63235" lon="13.1955">
        <ele>300.4</ele>
      </trkpt>
      <trkpt lat="48.6274" lon="13.2096">
        <ele>300.6</ele>
      </trkpt>
      <trkpt lat="48.62323" lon="13.21532">
        <ele>300.5</ele>
      </trkpt>
      <trkpt lat="48.61314" lon="13.23562">
        <ele>301.1</ele>
      </trkpt>
      <trkpt lat="48.61001" lon="13.24361">
        <ele>300.7</ele>
      </trkpt>
      <trkpt lat="48.60694" lon="13.25317">
        <ele>300</ele>
      </trkpt>
      <trkpt lat="48.60675" lon="13.26293">
        <ele>300</ele>
      </trkpt>
      <trkpt lat="48.60869" lon="13.27059">
        <ele>300.4</ele>
      </trkpt>
      <trkpt lat="48.61097" lon="13.27759">
        <ele>300.1</ele>
      </trkpt>
      <trkpt lat="48.61143" lon="13.28499">
        <ele>300</ele>
      </trkpt>
      <trkpt lat="48.60803" lon="13.30323">
        <ele>300</ele>
      </trkpt>
      <trkpt lat="48.60529" lon="13.31033">
        <ele>300</ele>
      </trkpt>
      <trkpt lat="48.60151" lon="13.33557">
        <ele>299.5</ele>
      </trkpt>
      <trkpt lat="48.6006" lon="13.34849">
        <ele>300.8</ele>
      </trkpt>
      <trkpt lat="48.59838" lon="13.36801">
        <ele>297</ele>
      </trkpt>
      <trkpt lat="48.59547" lon="13.38266">
        <ele>297.2</ele>
      </trkpt>
      <trkpt lat="48.59033" lon="13.39043">
        <ele>294.9</ele>
      </trkpt>
      <trkpt lat="48.58381" lon="13.40298">
        <ele>296.2</ele>
      </trkpt>
      <trkpt lat="48.57748" lon="13.41045">
        <ele>294.2</ele>
      </trkpt>
      <trkpt lat="48.57451" lon="13.41972">
        <ele>295.9</ele>
      </trkpt>
      <trkpt lat="48.57471" lon="13.42749">
        <ele>294.7</ele>
      </trkpt>
      <trkpt lat="48.57491" lon="13.43227">
        <ele>294.2</ele>
      </trkpt>
      <trkpt lat="48.57392" lon="13.44034">
        <ele>296.1</ele>
      </trkpt>
      <trkpt lat="48.5755" lon="13.44721">
        <ele>296.2</ele>
      </trkpt>
      <trkpt lat="48.5757" lon="13.45469">
        <ele>295.5</ele>
      </trkpt>
      <trkpt lat="48.5757" lon="13.46186">
        <ele>310.6</ele>
      </trkpt>
      <trkpt lat="48.57372" lon="13.47382">
        <ele>300.6</ele>
      </trkpt>
      <trkpt lat="48.57254" lon="13.48846">
        <ele>298.7</ele>
      </trkpt>
      <trkpt lat="48.5761" lon="13.49713">
        <ele>293.1</ele>
      </trkpt>
      <trkpt lat="48.57867" lon="13.50071">
        <ele>292.5</ele>
      </trkpt>
      <trkpt lat="48.58223" lon="13.50161">
        <ele>291</ele>
      </trkpt>
      <trkpt lat="48.58737" lon="13.5049">
        <ele>291</ele>
      </trkpt>
      <trkpt lat="48.59033" lon="13.50699">
        <ele>295</ele>
      </trkpt>
      <trkpt lat="48.59152" lon="13.51088">
        <ele>302.3</ele>
      </trkpt>
      <trkpt lat="48.58915" lon="13.52104">
        <ele>291.2</ele>
      </trkpt>
      <trkpt lat="48.58559" lon="13.52911">
        <ele>290</ele>
      </trkpt>
      <trkpt lat="48.58005" lon="13.53628">
        <ele>291.3</ele>
      </trkpt>
      <trkpt lat="48.57214" lon="13.54764">
        <ele>290</ele>
      </trkpt>
      <trkpt lat="48.56621" lon="13.559">
        <ele>290.2</ele>
      </trkpt>
      <trkpt lat="48.56067" lon="13.56976">
        <ele>290.4</ele>
      </trkpt>
      <trkpt lat="48.55968" lon="13.57543">
        <ele>290</ele>
      </trkpt>
      <trkpt lat="48.55968" lon="13.58111">
        <ele>295.6</ele>
      </trkpt>
      <trkpt lat="48.56245" lon="13.5853">
        <ele>306.8</ele>
      </trkpt>
      <trkpt lat="48.5672" lon="13.58888">
        <ele>290</ele>
      </trkpt>
      <trkpt lat="48.56937" lon="13.59367">
        <ele>290</ele>
      </trkpt>
      <trkpt lat="48.56917" lon="13.59934">
        <ele>290.1</ele>
      </trkpt>
      <trkpt lat="48.56499" lon="13.60818">
        <ele>290</ele>
      </trkpt>
      <trkpt lat="48.56024" lon="13.61618">
        <ele>289.4</ele>
      </trkpt>
      <trkpt lat="48.55721" lon="13.62018">
        <ele>289</ele>
      </trkpt>
      <trkpt lat="48.55482" lon="13.62732">
        <ele>289.4</ele>
      </trkpt>
      <trkpt lat="48.55287" lon="13.63672">
        <ele>287</ele>
      </trkpt>
      <trkpt lat="48.55092" lon="13.64623">
        <ele>286</ele>
      </trkpt>
      <trkpt lat="48.54882" lon="13.65133">
        <ele>286.8</ele>
      </trkpt>
      <trkpt lat="48.54687" lon="13.6562">
        <ele>290.7</ele>
      </trkpt>
      <trkpt lat="48.54107" lon="13.65819">
        <ele>285</ele>
      </trkpt>
      <trkpt lat="48.53604" lon="13.66261">
        <ele>285.5</ele>
      </trkpt>
      <trkpt lat="48.5291" lon="13.67987">
        <ele>285.1</ele>
      </trkpt>
      <trkpt lat="48.5207" lon="13.70173">
        <ele>286.8</ele>
      </trkpt>
      <trkpt lat="48.51679" lon="13.70671">
        <ele>284</ele>
      </trkpt>
      <trkpt lat="48.51379" lon="13.72257">
        <ele>281.5</ele>
      </trkpt>
      <trkpt lat="48.51102" lon="13.72981">
        <ele>279</ele>
      </trkpt>
      <trkpt lat="48.50195" lon="13.73849">
        <ele>279.7</ele>
      </trkpt>
      <trkpt lat="48.4955" lon="13.742">
        <ele>279</ele>
      </trkpt>
      <trkpt lat="48.48792" lon="13.75106">
        <ele>279.1</ele>
      </trkpt>
      <trkpt lat="48.48086" lon="13.76397">
        <ele>278.3</ele>
      </trkpt>
      <trkpt lat="48.47403" lon="13.77348">
        <ele>276.4</ele>
      </trkpt>
      <trkpt lat="48.46939" lon="13.77743">
        <ele>276.1</ele>
      </trkpt>
      <trkpt lat="48.46631" lon="13.79068">
        <ele>276</ele>
      </trkpt>
      <trkpt lat="48.46503" lon="13.80144">
        <ele>276.1</ele>
      </trkpt>
      <trkpt lat="48.46008" lon="13.81231">
        <ele>276.4</ele>
      </trkpt>
      <trkpt lat="48.45151" lon="13.82262">
        <ele>276</ele>
      </trkpt>
      <trkpt lat="48.44012" lon="13.8376">
        <ele>276</ele>
      </trkpt>
      <trkpt lat="48.42682" lon="13.8615">
        <ele>276</ele>
      </trkpt>
      <trkpt lat="48.42622" lon="13.87248">
        <ele>276</ele>
      </trkpt>
      <trkpt lat="48.42863" lon="13.8752">
        <ele>277.5</ele>
      </trkpt>
      <trkpt lat="48.43178" lon="13.87441">
        <ele>278.5</ele>
      </trkpt>
      <trkpt lat="48.43494" lon="13.8692">
        <ele>276.2</ele>
      </trkpt>
      <trkpt lat="48.43817" lon="13.85969">
        <ele>276</ele>
      </trkpt>
      <trkpt lat="48.44245" lon="13.85436">
        <ele>276.2</ele>
      </trkpt>
      <trkpt lat="48.44741" lon="13.85289">
        <ele>281.7</ele>
      </trkpt>
      <trkpt lat="48.44981" lon="13.85685">
        <ele>276.1</ele>
      </trkpt>
      <trkpt lat="48.45034" lon="13.86263">
        <ele>276.9</ele>
      </trkpt>
      <trkpt lat="48.44839" lon="13.86841">
        <ele>276.8</ele>
      </trkpt>
      <trkpt lat="48.44508" lon="13.87622">
        <ele>276</ele>
      </trkpt>
      <trkpt lat="48.44478" lon="13.88641">
        <ele>278.2</ele>
      </trkpt>
      <trkpt lat="48.45072" lon="13.89831">
        <ele>276</ele>
      </trkpt>
      <trkpt lat="48.45337" lon="13.90119">
        <ele>279.3</ele>
      </trkpt>
      <trkpt lat="48.45467" lon="13.90552">
        <ele>276</ele>
      </trkpt>
      <trkpt lat="48.45411" lon="13.90956">
        <ele>276.1</ele>
      </trkpt>
      <trkpt lat="48.45254" lon="13.91249">
        <ele>276.2</ele>
      </trkpt>
      <trkpt lat="48.44976" lon="13.91723">
        <ele>277</ele>
      </trkpt>
      <trkpt lat="48.4469" lon="13.92085">
        <ele>276.1</ele>
      </trkpt>
      <trkpt lat="48.44347" lon="13.91988">
        <ele>276</ele>
      </trkpt>
      <trkpt lat="48.44005" lon="13.92002">
        <ele>276.3</ele>
      </trkpt>
      <trkpt lat="48.43644" lon="13.92016">
        <ele>276.2</ele>
      </trkpt>
      <trkpt lat="48.43348" lon="13.92308">
        <ele>276</ele>
      </trkpt>
      <trkpt lat="48.43015" lon="13.92559">
        <ele>276</ele>
      </trkpt>
      <trkpt lat="48.4259" lon="13.92559">
        <ele>276.1</ele>
      </trkpt>
      <trkpt lat="48.42229" lon="13.9249">
        <ele>276.3</ele>
      </trkpt>
      <trkpt lat="48.41738" lon="13.92713">
        <ele>276</ele>
      </trkpt>
      <trkpt lat="48.41396" lon="13.92964">
        <ele>276</ele>
      </trkpt>
      <trkpt lat="48.40739" lon="13.93535">
        <ele>276</ele>
      </trkpt>
      <trkpt lat="48.40443" lon="13.93968">
        <ele>276.4</ele>
      </trkpt>
      <trkpt lat="48.40322" lon="13.94539">
        <ele>280.5</ele>
      </trkpt>
      <trkpt lat="48.40563" lon="13.94902">
        <ele>276</ele>
      </trkpt>
      <trkpt lat="48.41229" lon="13.9525">
        <ele>276</ele>
      </trkpt>
      <trkpt lat="48.41544" lon="13.95348">
        <ele>276</ele>
      </trkpt>
      <trkpt lat="48.41794" lon="13.95669">
        <ele>276</ele>
      </trkpt>
      <trkpt lat="48.41729" lon="13.9631">
        <ele>276</ele>
      </trkpt>
      <trkpt lat="48.41664" lon="13.96979">
        <ele>276</ele>
      </trkpt>
      <trkpt lat="48.41942" lon="13.97677">
        <ele>276</ele>
      </trkpt>
      <trkpt lat="48.42173" lon="13.98178">
        <ele>276</ele>
      </trkpt>
      <trkpt lat="48.4206" lon="13.98903">
        <ele>276</ele>
      </trkpt>
      <trkpt lat="48.41764" lon="13.99545">
        <ele>276.1</ele>
      </trkpt>
      <trkpt lat="48.4145" lon="13.99949">
        <ele>276</ele>
      </trkpt>
      <trkpt lat="48.41024" lon="14.00061">
        <ele>276.9</ele>
      </trkpt>
      <trkpt lat="48.40459" lon="14.00465">
        <ele>274.2</ele>
      </trkpt>
      <trkpt lat="48.39557" lon="14.01403">
        <ele>272.1</ele>
      </trkpt>
      <trkpt lat="48.38723" lon="14.02156">
        <ele>270.1</ele>
      </trkpt>
      <trkpt lat="48.37973" lon="14.02798">
        <ele>270</ele>
      </trkpt>
      <trkpt lat="48.37312" lon="14.03129">
        <ele>270</ele>
      </trkpt>
      <trkpt lat="48.36766" lon="14.02794">
        <ele>270</ele>
      </trkpt>
      <trkpt lat="48.3583" lon="14.0239">
        <ele>268</ele>
      </trkpt>
      <trkpt lat="48.35107" lon="14.02209">
        <ele>267</ele>
      </trkpt>
      <trkpt lat="48.34325" lon="14.02225">
        <ele>265.9</ele>
      </trkpt>
      <trkpt lat="48.3388" lon="14.0249">
        <ele>264.1</ele>
      </trkpt>
      <trkpt lat="48.3311" lon="14.03522">
        <ele>262</ele>
      </trkpt>
      <trkpt lat="48.32461" lon="14.0539">
        <ele>261</ele>
      </trkpt>
      <trkpt lat="48.31822" lon="14.07175">
        <ele>261</ele>
      </trkpt>
      <trkpt lat="48.31646" lon="14.08639">
        <ele>261</ele>
      </trkpt>
      <trkpt lat="48.3121" lon="14.10577">
        <ele>261</ele>
      </trkpt>
      <trkpt lat="48.30913" lon="14.11567">
        <ele>261</ele>
      </trkpt>
      <trkpt lat="48.31136" lon="14.12948">
        <ele>259</ele>
      </trkpt>
      <trkpt lat="48.31607" lon="14.14424">
        <ele>259</ele>
      </trkpt>
      <trkpt lat="48.3194" lon="14.15414">
        <ele>258</ele>
      </trkpt>
      <trkpt lat="48.32423" lon="14.16335">
        <ele>256</ele>
      </trkpt>
      <trkpt lat="48.32728" lon="14.17171">
        <ele>256</ele>
      </trkpt>
      <trkpt lat="48.33053" lon="14.17854">
        <ele>256.6</ele>
      </trkpt>
      <trkpt lat="48.33173" lon="14.1851">
        <ele>256.1</ele>
      </trkpt>
      <trkpt lat="48.3309" lon="14.19054">
        <ele>256</ele>
      </trkpt>
      <trkpt lat="48.3271" lon="14.19556">
        <ele>256</ele>
      </trkpt>
      <trkpt lat="48.32385" lon="14.1989">
        <ele>256</ele>
      </trkpt>
      <trkpt lat="48.3207" lon="14.20504">
        <ele>256</ele>
      </trkpt>
      <trkpt lat="48.31681" lon="14.2095">
        <ele>256.1</ele>
      </trkpt>
      <trkpt lat="48.31161" lon="14.21772">
        <ele>256</ele>
      </trkpt>
      <trkpt lat="48.30855" lon="14.22525">
        <ele>256</ele>
      </trkpt>
      <trkpt lat="48.30865" lon="14.23906">
        <ele>256</ele>
      </trkpt>
      <trkpt lat="48.30957" lon="14.24882">
        <ele>256</ele>
      </trkpt>
      <trkpt lat="48.30838" lon="14.25744">
        <ele>256</ele>
      </trkpt>
      <trkpt lat="48.30681" lon="14.26483">
        <ele>256</ele>
      </trkpt>
      <trkpt lat="48.30542" lon="14.27083">
        <ele>256</ele>
      </trkpt>
      <trkpt lat="48.30542" lon="14.27599">
        <ele>256.3</ele>
      </trkpt>
      <trkpt lat="48.30736" lon="14.28198">
        <ele>254.3</ele>
      </trkpt>
      <trkpt lat="48.31042" lon="14.28923">
        <ele>253</ele>
      </trkpt>
      <trkpt lat="48.31534" lon="14.29439">
        <ele>253</ele>
      </trkpt>
      <trkpt lat="48.31942" lon="14.29844">
        <ele>252</ele>
      </trkpt>
      <trkpt lat="48.32183" lon="14.30597">
        <ele>251</ele>
      </trkpt>
      <trkpt lat="48.32219" lon="14.31283">
        <ele>251</ele>
      </trkpt>
      <trkpt lat="48.3195" lon="14.31827">
        <ele>251</ele>
      </trkpt>
      <trkpt lat="48.3156" lon="14.32329">
        <ele>251</ele>
      </trkpt>
      <trkpt lat="48.31069" lon="14.33012">
        <ele>251</ele>
      </trkpt>
      <trkpt lat="48.30651" lon="14.33374">
        <ele>251</ele>
      </trkpt>
      <trkpt lat="48.3003" lon="14.33644">
        <ele>250.9</ele>
      </trkpt>
      <trkpt lat="48.29705" lon="14.33923">
        <ele>251</ele>
      </trkpt>
      <trkpt lat="48.28981" lon="14.34091">
        <ele>251</ele>
      </trkpt>
      <trkpt lat="48.28425" lon="14.34397">
        <ele>250</ele>
      </trkpt>
      <trkpt lat="48.27828" lon="14.35003">
        <ele>250</ele>
      </trkpt>
      <trkpt lat="48.27411" lon="14.35812">
        <ele>250</ele>
      </trkpt>
      <trkpt lat="48.27067" lon="14.37011">
        <ele>250</ele>
      </trkpt>
      <trkpt lat="48.26974" lon="14.37848">
        <ele>250</ele>
      </trkpt>
      <trkpt lat="48.2664" lon="14.38615">
        <ele>249</ele>
      </trkpt>
      <trkpt lat="48.25695" lon="14.40233">
        <ele>248</ele>
      </trkpt>
      <trkpt lat="48.25575" lon="14.41349">
        <ele>247</ele>
      </trkpt>
      <trkpt lat="48.24739" lon="14.43398">
        <ele>244</ele>
      </trkpt>
      <trkpt lat="48.24498" lon="14.44207">
        <ele>244</ele>
      </trkpt>
      <trkpt lat="48.24247" lon="14.44695">
        <ele>244</ele>
      </trkpt>
      <trkpt lat="48.23857" lon="14.45016">
        <ele>244</ele>
      </trkpt>
      <trkpt lat="48.23597" lon="14.45671">
        <ele>244.7</ele>
      </trkpt>
      <trkpt lat="48.23569" lon="14.46689">
        <ele>244</ele>
      </trkpt>
      <trkpt lat="48.2381" lon="14.47776">
        <ele>243</ele>
      </trkpt>
      <trkpt lat="48.24135" lon="14.48501">
        <ele>242</ele>
      </trkpt>
      <trkpt lat="48.24358" lon="14.49561">
        <ele>241</ele>
      </trkpt>
      <trkpt lat="48.24386" lon="14.50244">
        <ele>241</ele>
      </trkpt>
      <trkpt lat="48.2413" lon="14.51086">
        <ele>241</ele>
      </trkpt>
      <trkpt lat="48.23758" lon="14.51908">
        <ele>241</ele>
      </trkpt>
      <trkpt lat="48.23786" lon="14.52898">
        <ele>239</ele>
      </trkpt>
      <trkpt lat="48.23666" lon="14.53846">
        <ele>239</ele>
      </trkpt>
      <trkpt lat="48.23415" lon="14.54864">
        <ele>239</ele>
      </trkpt>
      <trkpt lat="48.22747" lon="14.57315">
        <ele>237</ele>
      </trkpt>
      <trkpt lat="48.22506" lon="14.58015">
        <ele>237</ele>
      </trkpt>
      <trkpt lat="48.22047" lon="14.58904">
        <ele>237</ele>
      </trkpt>
      <trkpt lat="48.21592" lon="14.59235">
        <ele>237</ele>
      </trkpt>
      <trkpt lat="48.2086" lon="14.59742">
        <ele>237</ele>
      </trkpt>
      <trkpt lat="48.19958" lon="14.60799">
        <ele>237</ele>
      </trkpt>
      <trkpt lat="48.1955" lon="14.61243">
        <ele>237</ele>
      </trkpt>
      <trkpt lat="48.19194" lon="14.62135">
        <ele>237</ele>
      </trkpt>
      <trkpt lat="48.18701" lon="14.62896">
        <ele>235.1</ele>
      </trkpt>
      <trkpt lat="48.18025" lon="14.63487">
        <ele>235</ele>
      </trkpt>
      <trkpt lat="48.17376" lon="14.64565">
        <ele>234.2</ele>
      </trkpt>
      <trkpt lat="48.16742" lon="14.66066">
        <ele>234</ele>
      </trkpt>
      <trkpt lat="48.16531" lon="14.67545">
        <ele>234</ele>
      </trkpt>
      <trkpt lat="48.16784" lon="14.69278">
        <ele>233</ele>
      </trkpt>
      <trkpt lat="48.17284" lon="14.71509">
        <ele>232</ele>
      </trkpt>
      <trkpt lat="48.17495" lon="14.73305">
        <ele>231</ele>
      </trkpt>
      <trkpt lat="48.17538" lon="14.7489">
        <ele>229</ele>
      </trkpt>
      <trkpt lat="48.1782" lon="14.76222">
        <ele>229</ele>
      </trkpt>
      <trkpt lat="48.18045" lon="14.77955">
        <ele>229.2</ele>
      </trkpt>
      <trkpt lat="48.18513" lon="14.79804">
        <ele>230.9</ele>
      </trkpt>
      <trkpt lat="48.18767" lon="14.80839">
        <ele>227.9</ele>
      </trkpt>
      <trkpt lat="48.18866" lon="14.8234">
        <ele>233.6</ele>
      </trkpt>
      <trkpt lat="48.19006" lon="14.83312">
        <ele>227</ele>
      </trkpt>
      <trkpt lat="48.19401" lon="14.84242">
        <ele>227</ele>
      </trkpt>
      <trkpt lat="48.19683" lon="14.84622">
        <ele>227</ele>
      </trkpt>
      <trkpt lat="48.20359" lon="14.84939">
        <ele>227.2</ele>
      </trkpt>
      <trkpt lat="48.20725" lon="14.85341">
        <ele>227</ele>
      </trkpt>
      <trkpt lat="48.21133" lon="14.85742">
        <ele>227</ele>
      </trkpt>
      <trkpt lat="48.21612" lon="14.85848">
        <ele>245.3</ele>
      </trkpt>
      <trkpt lat="48.22049" lon="14.85637">
        <ele>227</ele>
      </trkpt>
      <trkpt lat="48.22485" lon="14.85742">
        <ele>227</ele>
      </trkpt>
      <trkpt lat="48.22668" lon="14.86059">
        <ele>227</ele>
      </trkpt>
      <trkpt lat="48.22795" lon="14.86736">
        <ele>227.3</ele>
      </trkpt>
      <trkpt lat="48.22781" lon="14.87169">
        <ele>227.8</ele>
      </trkpt>
      <trkpt lat="48.22936" lon="14.87486">
        <ele>230.2</ele>
      </trkpt>
      <trkpt lat="48.23189" lon="14.8793">
        <ele>227.5</ele>
      </trkpt>
      <trkpt lat="48.23246" lon="14.88331">
        <ele>227.2</ele>
      </trkpt>
      <trkpt lat="48.23231" lon="14.88838">
        <ele>227.4</ele>
      </trkpt>
      <trkpt lat="48.22922" lon="14.89198">
        <ele>230.3</ele>
      </trkpt>
      <trkpt lat="48.22753" lon="14.89346">
        <ele>227</ele>
      </trkpt>
      <trkpt lat="48.22837" lon="14.89726">
        <ele>227</ele>
      </trkpt>
      <trkpt lat="48.23034" lon="14.90191">
        <ele>231.6</ele>
      </trkpt>
      <trkpt lat="48.23133" lon="14.90614">
        <ele>227</ele>
      </trkpt>
      <trkpt lat="48.23147" lon="14.90867">
        <ele>227.1</ele>
      </trkpt>
      <trkpt lat="48.23231" lon="14.91332">
        <ele>230.3</ele>
      </trkpt>
      <trkpt lat="48.23274" lon="14.91501">
        <ele>228.4</ele>
      </trkpt>
      <trkpt lat="48.23203" lon="14.91966">
        <ele>227</ele>
      </trkpt>
      <trkpt lat="48.23161" lon="14.92854">
        <ele>231.4</ele>
      </trkpt>
      <trkpt lat="48.23133" lon="14.93932">
        <ele>230.5</ele>
      </trkpt>
      <trkpt lat="48.22697" lon="14.94333">
        <ele>227</ele>
      </trkpt>
      <trkpt lat="48.22049" lon="14.94946">
        <ele>227</ele>
      </trkpt>
      <trkpt lat="48.209" lon="14.95651">
        <ele>227</ele>
      </trkpt>
      <trkpt lat="48.20435" lon="14.95905">
        <ele>227</ele>
      </trkpt>
      <trkpt lat="48.20182" lon="14.96539">
        <ele>227</ele>
      </trkpt>
      <trkpt lat="48.199" lon="14.97575">
        <ele>227</ele>
      </trkpt>
      <trkpt lat="48.19505" lon="14.99329">
        <ele>227</ele>
      </trkpt>
      <trkpt lat="48.19336" lon="15.00766">
        <ele>226</ele>
      </trkpt>
      <trkpt lat="48.19336" lon="15.0233">
        <ele>223</ele>
      </trkpt>
      <trkpt lat="48.19548" lon="15.0383">
        <ele>225.5</ele>
      </trkpt>
      <trkpt lat="48.19674" lon="15.04887">
        <ele>218</ele>
      </trkpt>
      <trkpt lat="48.19559" lon="15.05599">
        <ele>218.5</ele>
      </trkpt>
      <trkpt lat="48.19376" lon="15.06423">
        <ele>218</ele>
      </trkpt>
      <trkpt lat="48.1884" lon="15.07311">
        <ele>218</ele>
      </trkpt>
      <trkpt lat="48.18164" lon="15.08347">
        <ele>217</ele>
      </trkpt>
      <trkpt lat="48.17502" lon="15.09213">
        <ele>217</ele>
      </trkpt>
      <trkpt lat="48.1722" lon="15.09847">
        <ele>216</ele>
      </trkpt>
      <trkpt lat="48.17121" lon="15.11073">
        <ele>216</ele>
      </trkpt>
      <trkpt lat="48.17474" lon="15.11707">
        <ele>216</ele>
      </trkpt>
      <trkpt lat="48.1808" lon="15.11876">
        <ele>216</ele>
      </trkpt>
      <trkpt lat="48.19024" lon="15.11305">
        <ele>215</ele>
      </trkpt>
      <trkpt lat="48.20052" lon="15.11179">
        <ele>214</ele>
      </trkpt>
      <trkpt lat="48.20601" lon="15.12172">
        <ele>214.8</ele>
      </trkpt>
      <trkpt lat="48.20996" lon="15.13229">
        <ele>213</ele>
      </trkpt>
      <trkpt lat="48.21193" lon="15.14623">
        <ele>212</ele>
      </trkpt>
      <trkpt lat="48.21582" lon="15.18046">
        <ele>211</ele>
      </trkpt>
      <trkpt lat="48.21455" lon="15.20011">
        <ele>210</ele>
      </trkpt>
      <trkpt lat="48.21568" lon="15.22716">
        <ele>209</ele>
      </trkpt>
      <trkpt lat="48.22117" lon="15.2502">
        <ele>209</ele>
      </trkpt>
      <trkpt lat="48.22483" lon="15.27408">
        <ele>208</ele>
      </trkpt>
      <trkpt lat="48.22343" lon="15.29247">
        <ele>208</ele>
      </trkpt>
      <trkpt lat="48.22582" lon="15.30895">
        <ele>208</ele>
      </trkpt>
      <trkpt lat="48.23253" lon="15.32255">
        <ele>208</ele>
      </trkpt>
      <trkpt lat="48.23619" lon="15.331">
        <ele>208</ele>
      </trkpt>
      <trkpt lat="48.24048" lon="15.34045">
        <ele>207</ele>
      </trkpt>
      <trkpt lat="48.24613" lon="15.35356">
        <ele>207.2</ele>
      </trkpt>
      <trkpt lat="48.25163" lon="15.36375">
        <ele>207</ele>
      </trkpt>
      <trkpt lat="48.25648" lon="15.36982">
        <ele>206</ele>
      </trkpt>
      <trkpt lat="48.26262" lon="15.3754">
        <ele>206</ele>
      </trkpt>
      <trkpt lat="48.26795" lon="15.3788">
        <ele>206</ele>
      </trkpt>
      <trkpt lat="48.27216" lon="15.38196">
        <ele>206</ele>
      </trkpt>
      <trkpt lat="48.27555" lon="15.38851">
        <ele>205.1</ele>
      </trkpt>
      <trkpt lat="48.28088" lon="15.39677">
        <ele>205</ele>
      </trkpt>
      <trkpt lat="48.28363" lon="15.40089">
        <ele>204</ele>
      </trkpt>
      <trkpt lat="48.28809" lon="15.40284">
        <ele>204</ele>
      </trkpt>
      <trkpt lat="48.29455" lon="15.40624">
        <ele>204</ele>
      </trkpt>
      <trkpt lat="48.30069" lon="15.40867">
        <ele>203</ele>
      </trkpt>
      <trkpt lat="48.30796" lon="15.40964">
        <ele>203</ele>
      </trkpt>
      <trkpt lat="48.31506" lon="15.41085">
        <ele>202</ele>
      </trkpt>
      <trkpt lat="48.32136" lon="15.41085">
        <ele>202</ele>
      </trkpt>
      <trkpt lat="48.32765" lon="15.40891">
        <ele>201.9</ele>
      </trkpt>
      <trkpt lat="48.33475" lon="15.40697">
        <ele>201</ele>
      </trkpt>
      <trkpt lat="48.34537" lon="15.40685">
        <ele>201</ele>
      </trkpt>
      <trkpt lat="48.35344" lon="15.41001">
        <ele>200</ele>
      </trkpt>
      <trkpt lat="48.35828" lon="15.41292">
        <ele>200</ele>
      </trkpt>
      <trkpt lat="48.3644" lon="15.42433">
        <ele>199</ele>
      </trkpt>
      <trkpt lat="48.36811" lon="15.43525">
        <ele>199</ele>
      </trkpt>
      <trkpt lat="48.37273" lon="15.44792">
        <ele>198</ele>
      </trkpt>
      <trkpt lat="48.38111" lon="15.45836">
        <ele>198</ele>
      </trkpt>
      <trkpt lat="48.38934" lon="15.46662">
        <ele>197</ele>
      </trkpt>
      <trkpt lat="48.39627" lon="15.4756">
        <ele>197</ele>
      </trkpt>
      <trkpt lat="48.404" lon="15.48482">
        <ele>196</ele>
      </trkpt>
      <trkpt lat="48.40674" lon="15.49016">
        <ele>196</ele>
      </trkpt>
      <trkpt lat="48.40948" lon="15.49842">
        <ele>196.5</ele>
      </trkpt>
      <trkpt lat="48.40852" lon="15.50449">
        <ele>195.6</ele>
      </trkpt>
      <trkpt lat="48.40481" lon="15.51031">
        <ele>195</ele>
      </trkpt>
      <trkpt lat="48.40143" lon="15.51493">
        <ele>195</ele>
      </trkpt>
      <trkpt lat="48.39498" lon="15.51735">
        <ele>194</ele>
      </trkpt>
      <trkpt lat="48.38853" lon="15.52124">
        <ele>194</ele>
      </trkpt>
      <trkpt lat="48.38498" lon="15.52755">
        <ele>193</ele>
      </trkpt>
      <trkpt lat="48.38418" lon="15.53799">
        <ele>193</ele>
      </trkpt>
      <trkpt lat="48.38724" lon="15.55085">
        <ele>192</ele>
      </trkpt>
      <trkpt lat="48.39288" lon="15.56421">
        <ele>191</ele>
      </trkpt>
      <trkpt lat="48.39885" lon="15.57974">
        <ele>190</ele>
      </trkpt>
      <trkpt lat="48.40126" lon="15.59043">
        <ele>190</ele>
      </trkpt>
      <trkpt lat="48.40223" lon="15.60499">
        <ele>189</ele>
      </trkpt>
      <trkpt lat="48.40336" lon="15.62223">
        <ele>188</ele>
      </trkpt>
      <trkpt lat="48.40191" lon="15.63777">
        <ele>188</ele>
      </trkpt>
      <trkpt lat="48.39496" lon="15.65157">
        <ele>188</ele>
      </trkpt>
      <trkpt lat="48.389" lon="15.6557">
        <ele>188.1</ele>
      </trkpt>
      <trkpt lat="48.384" lon="15.66322">
        <ele>188</ele>
      </trkpt>
      <trkpt lat="48.3811" lon="15.67123">
        <ele>188</ele>
      </trkpt>
      <trkpt lat="48.38207" lon="15.67924">
        <ele>188</ele>
      </trkpt>
      <trkpt lat="48.38545" lon="15.6926">
        <ele>188.1</ele>
      </trkpt>
      <trkpt lat="48.38803" lon="15.69988">
        <ele>188</ele>
      </trkpt>
      <trkpt lat="48.38819" lon="15.71032">
        <ele>187</ele>
      </trkpt>
      <trkpt lat="48.38529" lon="15.721">
        <ele>187</ele>
      </trkpt>
      <trkpt lat="48.37852" lon="15.73071">
        <ele>187</ele>
      </trkpt>
      <trkpt lat="48.37481" lon="15.73848">
        <ele>187</ele>
      </trkpt>
      <trkpt lat="48.37126" lon="15.74698">
        <ele>187</ele>
      </trkpt>
      <trkpt lat="48.37304" lon="15.76251">
        <ele>186</ele>
      </trkpt>
      <trkpt lat="48.37642" lon="15.77562">
        <ele>186</ele>
      </trkpt>
      <trkpt lat="48.37965" lon="15.78727">
        <ele>185</ele>
      </trkpt>
      <trkpt lat="48.38158" lon="15.79577">
        <ele>185</ele>
      </trkpt>
      <trkpt lat="48.37911" lon="15.81432">
        <ele>185</ele>
      </trkpt>
      <trkpt lat="48.38049" lon="15.83436">
        <ele>185</ele>
      </trkpt>
      <trkpt lat="48.38014" lon="15.84373">
        <ele>185</ele>
      </trkpt>
      <trkpt lat="48.37634" lon="15.85413">
        <ele>184</ele>
      </trkpt>
      <trkpt lat="48.37375" lon="15.86402">
        <ele>178</ele>
      </trkpt>
      <trkpt lat="48.37237" lon="15.87131">
        <ele>178</ele>
      </trkpt>
      <trkpt lat="48.36637" lon="15.87835">
        <ele>178</ele>
      </trkpt>
      <trkpt lat="48.35859" lon="15.8846">
        <ele>178</ele>
      </trkpt>
      <trkpt lat="48.35496" lon="15.89214">
        <ele>178</ele>
      </trkpt>
      <trkpt lat="48.35202" lon="15.89813">
        <ele>178</ele>
      </trkpt>
      <trkpt lat="48.3496" lon="15.9088">
        <ele>178</ele>
      </trkpt>
      <trkpt lat="48.34735" lon="15.92129">
        <ele>177</ele>
      </trkpt>
      <trkpt lat="48.34354" lon="15.93273">
        <ele>175</ele>
      </trkpt>
      <trkpt lat="48.34043" lon="15.9408">
        <ele>174</ele>
      </trkpt>
      <trkpt lat="48.33939" lon="15.95121">
        <ele>174</ele>
      </trkpt>
      <trkpt lat="48.34009" lon="15.97306">
        <ele>174</ele>
      </trkpt>
      <trkpt lat="48.34164" lon="15.9892">
        <ele>174</ele>
      </trkpt>
      <trkpt lat="48.34176" lon="16.00609">
        <ele>174</ele>
      </trkpt>
      <trkpt lat="48.33761" lon="16.0152">
        <ele>174</ele>
      </trkpt>
      <trkpt lat="48.33553" lon="16.02587">
        <ele>174.7</ele>
      </trkpt>
      <trkpt lat="48.33484" lon="16.04356">
        <ele>171.7</ele>
      </trkpt>
      <trkpt lat="48.3357" lon="16.06411">
        <ele>171</ele>
      </trkpt>
      <trkpt lat="48.33499" lon="16.08652">
        <ele>171</ele>
      </trkpt>
      <trkpt lat="48.33396" lon="16.10916">
        <ele>171</ele>
      </trkpt>
      <trkpt lat="48.33586" lon="16.12659">
        <ele>171</ele>
      </trkpt>
      <trkpt lat="48.33811" lon="16.14741">
        <ele>171</ele>
      </trkpt>
      <trkpt lat="48.34036" lon="16.16926">
        <ele>171</ele>
      </trkpt>
      <trkpt lat="48.34343" lon="16.1849">
        <ele>171</ele>
      </trkpt>
      <trkpt lat="48.34706" lon="16.19947">
        <ele>171</ele>
      </trkpt>
      <trkpt lat="48.34914" lon="16.20779">
        <ele>171</ele>
      </trkpt>
      <trkpt lat="48.35221" lon="16.23213">
        <ele>171</ele>
      </trkpt>
      <trkpt lat="48.35429" lon="16.23994">
        <ele>169.1</ele>
      </trkpt>
      <trkpt lat="48.35411" lon="16.25451">
        <ele>166</ele>
      </trkpt>
      <trkpt lat="48.35308" lon="16.267">
        <ele>166</ele>
      </trkpt>
      <trkpt lat="48.35187" lon="16.28183">
        <ele>163</ele>
      </trkpt>
      <trkpt lat="48.34979" lon="16.28729">
        <ele>162.1</ele>
      </trkpt>
      <trkpt lat="48.34495" lon="16.30034">
        <ele>162</ele>
      </trkpt>
      <trkpt lat="48.33769" lon="16.31751">
        <ele>161</ele>
      </trkpt>
      <trkpt lat="48.33215" lon="16.32844">
        <ele>160.1</ele>
      </trkpt>
      <trkpt lat="48.32224" lon="16.33467">
        <ele>158</ele>
      </trkpt>
      <trkpt lat="48.31394" lon="16.34066">
        <ele>158</ele>
      </trkpt>
      <trkpt lat="48.30274" lon="16.34301">
        <ele>156.3</ele>
      </trkpt>
      <trkpt lat="48.29478" lon="16.34639">
        <ele>154</ele>
      </trkpt>
      <trkpt lat="48.28154" lon="16.35546">
        <ele>154</ele>
      </trkpt>
      <trkpt lat="48.26526" lon="16.36847">
        <ele>154</ele>
      </trkpt>
      <trkpt lat="48.2489" lon="16.38188">
        <ele>154</ele>
      </trkpt>
      <trkpt lat="48.23383" lon="16.39957">
        <ele>154</ele>
      </trkpt>
      <trkpt lat="48.21608" lon="16.42164">
        <ele>154</ele>
      </trkpt>
      <trkpt lat="48.19601" lon="16.45099">
        <ele>154</ele>
      </trkpt>
      <trkpt lat="48.16693" lon="16.49614">
        <ele>150.1</ele>
      </trkpt>
      <trkpt lat="48.16346" lon="16.50264">
        <ele>149</ele>
      </trkpt>
      <trkpt lat="48.15809" lon="16.51638">
        <ele>148.9</ele>
      </trkpt>
      <trkpt lat="48.15573" lon="16.52179">
        <ele>148.1</ele>
      </trkpt>
      <trkpt lat="48.15133" lon="16.53065">
        <ele>147</ele>
      </trkpt>
      <trkpt lat="48.14582" lon="16.53971">
        <ele>150.8</ele>
      </trkpt>
      <trkpt lat="48.1406" lon="16.55053">
        <ele>149.1</ele>
      </trkpt>
      <trkpt lat="48.14038" lon="16.55851">
        <ele>148</ele>
      </trkpt>
      <trkpt lat="48.13282" lon="16.5861">
        <ele>147</ele>
      </trkpt>
      <trkpt lat="48.13206" lon="16.60433">
        <ele>147.5</ele>
      </trkpt>
      <trkpt lat="48.13198" lon="16.61611">
        <ele>145.5</ele>
      </trkpt>
      <trkpt lat="48.13106" lon="16.62625">
        <ele>146.1</ele>
      </trkpt>
      <trkpt lat="48.12993" lon="16.63682">
        <ele>144.2</ele>
      </trkpt>
      <trkpt lat="48.12852" lon="16.64612">
        <ele>144</ele>
      </trkpt>
      <trkpt lat="48.12654" lon="16.65668">
        <ele>144.1</ele>
      </trkpt>
      <trkpt lat="48.124" lon="16.66725">
        <ele>144</ele>
      </trkpt>
      <trkpt lat="48.12005" lon="16.67908">
        <ele>144</ele>
      </trkpt>
      <trkpt lat="48.11836" lon="16.6981">
        <ele>144</ele>
      </trkpt>
      <trkpt lat="48.12062" lon="16.70698">
        <ele>144</ele>
      </trkpt>
      <trkpt lat="48.12231" lon="16.71797">
        <ele>144.6</ele>
      </trkpt>
      <trkpt lat="48.12683" lon="16.72896">
        <ele>144</ele>
      </trkpt>
      <trkpt lat="48.12908" lon="16.73699">
        <ele>144</ele>
      </trkpt>
      <trkpt lat="48.1288" lon="16.74544">
        <ele>145.2</ele>
      </trkpt>
      <trkpt lat="48.12598" lon="16.75686">
        <ele>144</ele>
      </trkpt>
      <trkpt lat="48.1209" lon="16.77419">
        <ele>144</ele>
      </trkpt>
      <trkpt lat="48.11667" lon="16.78687">
        <ele>144</ele>
      </trkpt>
      <trkpt lat="48.11554" lon="16.79955">
        <ele>143</ele>
      </trkpt>
      <trkpt lat="48.11921" lon="16.81476">
        <ele>143</ele>
      </trkpt>
      <trkpt lat="48.12175" lon="16.83125">
        <ele>142</ele>
      </trkpt>
      <trkpt lat="48.12621" lon="16.85569">
        <ele>142</ele>
      </trkpt>
      <trkpt lat="48.12847" lon="16.87049">
        <ele>141</ele>
      </trkpt>
      <trkpt lat="48.13721" lon="16.89416">
        <ele>139.4</ele>
      </trkpt>
      <trkpt lat="48.14314" lon="16.90134">
        <ele>138</ele>
      </trkpt>
      <trkpt lat="48.14652" lon="16.90811">
        <ele>136</ele>
      </trkpt>
      <trkpt lat="48.14709" lon="16.9191">
        <ele>136</ele>
      </trkpt>
      <trkpt lat="48.14765" lon="16.93178">
        <ele>136.3</ele>
      </trkpt>
      <trkpt lat="48.15172" lon="16.94252">
        <ele>136</ele>
      </trkpt>
      <trkpt lat="48.15736" lon="16.94759">
        <ele>135.1</ele>
      </trkpt>
      <trkpt lat="48.16469" lon="16.95267">
        <ele>134</ele>
      </trkpt>
      <trkpt lat="48.16976" lon="16.95943">
        <ele>134.8</ele>
      </trkpt>
      <trkpt lat="48.17258" lon="16.96746">
        <ele>134</ele>
      </trkpt>
      <trkpt lat="48.17258" lon="16.97507">
        <ele>134</ele>
      </trkpt>
      <trkpt lat="48.16779" lon="16.98521">
        <ele>134.5</ele>
      </trkpt>
      <trkpt lat="48.16131" lon="16.99367">
        <ele>135</ele>
      </trkpt>
      <trkpt lat="48.15171" lon="17.01321">
        <ele>134</ele>
      </trkpt>
      <trkpt lat="48.14678" lon="17.01913">
        <ele>134</ele>
      </trkpt>
      <trkpt lat="48.14142" lon="17.0261">
        <ele>134.6</ele>
      </trkpt>
      <trkpt lat="48.14015" lon="17.03498">
        <ele>134.2</ele>
      </trkpt>
      <trkpt lat="48.14367" lon="17.06266">
        <ele>134</ele>
      </trkpt>
      <trkpt lat="48.14142" lon="17.07788">
        <ele>134</ele>
      </trkpt>
      <trkpt lat="48.13874" lon="17.09415">
        <ele>134</ele>
      </trkpt>
      <trkpt lat="48.13832" lon="17.11296">
        <ele>133.4</ele>
      </trkpt>
      <trkpt lat="48.13747" lon="17.12564">
        <ele>132</ele>
      </trkpt>
      <trkpt lat="48.1331" lon="17.14255">
        <ele>131</ele>
      </trkpt>
      <trkpt lat="48.12816" lon="17.14445">
        <ele>130</ele>
      </trkpt>
      <trkpt lat="48.12052" lon="17.1452">
        <ele>129</ele>
      </trkpt>
      <trkpt lat="48.11276" lon="17.14055">
        <ele>129</ele>
      </trkpt>
      <trkpt lat="48.10811" lon="17.13844">
        <ele>128</ele>
      </trkpt>
      <trkpt lat="48.09232" lon="17.1453">
        <ele>128</ele>
      </trkpt>
      <trkpt lat="48.08286" lon="17.15206">
        <ele>127</ele>
      </trkpt>
      <trkpt lat="48.07354" lon="17.1584">
        <ele>126</ele>
      </trkpt>
      <trkpt lat="48.06761" lon="17.16305">
        <ele>126</ele>
      </trkpt>
      <trkpt lat="48.06122" lon="17.16912">
        <ele>125</ele>
      </trkpt>
      <trkpt lat="48.05797" lon="17.17546">
        <ele>124</ele>
      </trkpt>
      <trkpt lat="48.05373" lon="17.18856">
        <ele>123</ele>
      </trkpt>
      <trkpt lat="48.04624" lon="17.20547">
        <ele>123</ele>
      </trkpt>
      <trkpt lat="48.03647" lon="17.23511">
        <ele>123</ele>
      </trkpt>
      <trkpt lat="48.02954" lon="17.24716">
        <ele>123</ele>
      </trkpt>
      <trkpt lat="48.01795" lon="17.26449">
        <ele>123</ele>
      </trkpt>
      <trkpt lat="48.01032" lon="17.27654">
        <ele>123</ele>
      </trkpt>
      <trkpt lat="48.00162" lon="17.30861">
        <ele>123</ele>
      </trkpt>
      <trkpt lat="47.9995" lon="17.33482">
        <ele>123</ele>
      </trkpt>
      <trkpt lat="47.99568" lon="17.35532">
        <ele>123</ele>
      </trkpt>
      <trkpt lat="47.98932" lon="17.36652">
        <ele>123.1</ele>
      </trkpt>
      <trkpt lat="47.9855" lon="17.37687">
        <ele>123</ele>
      </trkpt>
      <trkpt lat="47.97396" lon="17.39604">
        <ele>123</ele>
      </trkpt>
      <trkpt lat="47.95924" lon="17.4195">
        <ele>123</ele>
      </trkpt>
      <trkpt lat="47.9448" lon="17.44275">
        <ele>123</ele>
      </trkpt>
      <trkpt lat="47.92445" lon="17.47842">
        <ele>123.3</ele>
      </trkpt>
      <trkpt lat="47.90617" lon="17.50695">
        <ele>123</ele>
      </trkpt>
      <trkpt lat="47.88824" lon="17.53074">
        <ele>123</ele>
      </trkpt>
      <trkpt lat="47.87619" lon="17.54278">
        <ele>109</ele>
      </trkpt>
      <trkpt lat="47.85804" lon="17.56415">
        <ele>109</ele>
      </trkpt>
      <trkpt lat="47.83564" lon="17.59258">
        <ele>109</ele>
      </trkpt>
      <trkpt lat="47.82324" lon="17.60577">
        <ele>109</ele>
      </trkpt>
      <trkpt lat="47.81652" lon="17.61514">
        <ele>109</ele>
      </trkpt>
      <trkpt lat="47.80252" lon="17.6342">
        <ele>109</ele>
      </trkpt>
      <trkpt lat="47.78866" lon="17.66159">
        <ele>109</ele>
      </trkpt>
      <trkpt lat="47.77308" lon="17.69139">
        <ele>109</ele>
      </trkpt>
      <trkpt lat="47.76418" lon="17.70243">
        <ele>109</ele>
      </trkpt>
      <trkpt lat="47.75577" lon="17.71016">
        <ele>109.6</ele>
      </trkpt>
      <trkpt lat="47.75404" lon="17.71973">
        <ele>109.5</ele>
      </trkpt>
      <trkpt lat="47.75013" lon="17.74416">
        <ele>109</ele>
      </trkpt>
      <trkpt lat="47.74914" lon="17.75814">
        <ele>109</ele>
      </trkpt>
      <trkpt lat="47.74766" lon="17.76624">
        <ele>109.1</ele>
      </trkpt>
      <trkpt lat="47.74197" lon="17.77213">
        <ele>109.6</ele>
      </trkpt>
      <trkpt lat="47.73826" lon="17.78059">
        <ele>114</ele>
      </trkpt>
      <trkpt lat="47.739" lon="17.79126">
        <ele>107.7</ele>
      </trkpt>
      <trkpt lat="47.74222" lon="17.79935">
        <ele>108</ele>
      </trkpt>
      <trkpt lat="47.74395" lon="17.80892">
        <ele>107</ele>
      </trkpt>
      <trkpt lat="47.74073" lon="17.81702">
        <ele>107.3</ele>
      </trkpt>
      <trkpt lat="47.73999" lon="17.82511">
        <ele>107</ele>
      </trkpt>
      <trkpt lat="47.74098" lon="17.83836">
        <ele>107</ele>
      </trkpt>
      <trkpt lat="47.7437" lon="17.85345">
        <ele>106</ele>
      </trkpt>
      <trkpt lat="47.74543" lon="17.86448">
        <ele>104</ele>
      </trkpt>
      <trkpt lat="47.74436" lon="17.86974">
        <ele>104</ele>
      </trkpt>
      <trkpt lat="47.74139" lon="17.88444">
        <ele>104</ele>
      </trkpt>
      <trkpt lat="47.73911" lon="17.8955">
        <ele>104</ele>
      </trkpt>
      <trkpt lat="47.74148" lon="17.90838">
        <ele>104.3</ele>
      </trkpt>
      <trkpt lat="47.74439" lon="17.92373">
        <ele>104</ele>
      </trkpt>
      <trkpt lat="47.74404" lon="17.94207">
        <ele>104</ele>
      </trkpt>
      <trkpt lat="47.74692" lon="17.95118">
        <ele>104</ele>
      </trkpt>
      <trkpt lat="47.7548" lon="17.96185">
        <ele>104</ele>
      </trkpt>
      <trkpt lat="47.75751" lon="17.97134">
        <ele>104</ele>
      </trkpt>
      <trkpt lat="47.7562" lon="17.97876">
        <ele>103.5</ele>
      </trkpt>
      <trkpt lat="47.74788" lon="17.99639">
        <ele>103</ele>
      </trkpt>
      <trkpt lat="47.74613" lon="18.00459">
        <ele>103</ele>
      </trkpt>
      <trkpt lat="47.75435" lon="18.02475">
        <ele>103</ele>
      </trkpt>
      <trkpt lat="47.75689" lon="18.03516">
        <ele>103</ele>
      </trkpt>
      <trkpt lat="47.75672" lon="18.04895">
        <ele>103</ele>
      </trkpt>
      <trkpt lat="47.75648" lon="18.08921">
        <ele>103</ele>
      </trkpt>
      <trkpt lat="47.75237" lon="18.11106">
        <ele>103</ele>
      </trkpt>
      <trkpt lat="47.74771" lon="18.14983">
        <ele>103</ele>
      </trkpt>
      <trkpt lat="47.74281" lon="18.16895">
        <ele>103</ele>
      </trkpt>
      <trkpt lat="47.73923" lon="18.1873">
        <ele>103</ele>
      </trkpt>
      <trkpt lat="47.74159" lon="18.2059">
        <ele>103</ele>
      </trkpt>
      <trkpt lat="47.74264" lon="18.22099">
        <ele>103</ele>
      </trkpt>
      <trkpt lat="47.73861" lon="18.26282">
        <ele>103</ele>
      </trkpt>
      <trkpt lat="47.73283" lon="18.27817">
        <ele>102</ele>
      </trkpt>
      <trkpt lat="47.7317" lon="18.29301">
        <ele>102</ele>
      </trkpt>
      <trkpt lat="47.7359" lon="18.32683">
        <ele>102</ele>
      </trkpt>
      <trkpt lat="47.74263" lon="18.3587">
        <ele>102</ele>
      </trkpt>
      <trkpt lat="47.74482" lon="18.37627">
        <ele>102</ele>
      </trkpt>
      <trkpt lat="47.74989" lon="18.38693">
        <ele>102</ele>
      </trkpt>
      <trkpt lat="47.75225" lon="18.40059">
        <ele>102</ele>
      </trkpt>
      <trkpt lat="47.75243" lon="18.41126">
        <ele>102</ele>
      </trkpt>
      <trkpt lat="47.75707" lon="18.43143">
        <ele>102</ele>
      </trkpt>
      <trkpt lat="47.76334" lon="18.44298">
        <ele>102</ele>
      </trkpt>
      <trkpt lat="47.76509" lon="18.45273">
        <ele>102</ele>
      </trkpt>
      <trkpt lat="47.7643" lon="18.46405">
        <ele>102</ele>
      </trkpt>
      <trkpt lat="47.75731" lon="18.47979">
        <ele>102</ele>
      </trkpt>
      <trkpt lat="47.75372" lon="18.48981">
        <ele>102</ele>
      </trkpt>
      <trkpt lat="47.75462" lon="18.51131">
        <ele>102</ele>
      </trkpt>
      <trkpt lat="47.75838" lon="18.52549">
        <ele>102</ele>
      </trkpt>
      <trkpt lat="47.76669" lon="18.54474">
        <ele>102</ele>
      </trkpt>
      <trkpt lat="47.76966" lon="18.55658">
        <ele>102</ele>
      </trkpt>
      <trkpt lat="47.76756" lon="18.57245">
        <ele>102</ele>
      </trkpt>
      <trkpt lat="47.76266" lon="18.59248">
        <ele>102</ele>
      </trkpt>
      <trkpt lat="47.75766" lon="18.61332">
        <ele>102</ele>
      </trkpt>
      <trkpt lat="47.75836" lon="18.6288">
        <ele>102</ele>
      </trkpt>
      <trkpt lat="47.76168" lon="18.66496">
        <ele>101</ele>
      </trkpt>
      <trkpt lat="47.76256" lon="18.67485">
        <ele>101</ele>
      </trkpt>
      <trkpt lat="47.77123" lon="18.69162">
        <ele>101</ele>
      </trkpt>
      <trkpt lat="47.77893" lon="18.70827">
        <ele>101</ele>
      </trkpt>
      <trkpt lat="47.78522" lon="18.71998">
        <ele>101</ele>
      </trkpt>
      <trkpt lat="47.79204" lon="18.72739">
        <ele>101</ele>
      </trkpt>
      <trkpt lat="47.79833" lon="18.72882">
        <ele>101</ele>
      </trkpt>
      <trkpt lat="47.80754" lon="18.73293">
        <ele>101</ele>
      </trkpt>
      <trkpt lat="47.81261" lon="18.73722">
        <ele>101</ele>
      </trkpt>
      <trkpt lat="47.81619" lon="18.7475">
        <ele>101</ele>
      </trkpt>
      <trkpt lat="47.81785" lon="18.7635">
        <ele>101</ele>
      </trkpt>
      <trkpt lat="47.81837" lon="18.77443">
        <ele>101</ele>
      </trkpt>
      <trkpt lat="47.81811" lon="18.79225">
        <ele>101</ele>
      </trkpt>
      <trkpt lat="47.81767" lon="18.81151">
        <ele>101</ele>
      </trkpt>
      <trkpt lat="47.81484" lon="18.83186">
        <ele>101</ele>
      </trkpt>
      <trkpt lat="47.81301" lon="18.84435">
        <ele>101</ele>
      </trkpt>
      <trkpt lat="47.81196" lon="18.85957">
        <ele>101</ele>
      </trkpt>
      <trkpt lat="47.81065" lon="18.8692">
        <ele>102.7</ele>
      </trkpt>
      <trkpt lat="47.80816" lon="18.88487">
        <ele>101</ele>
      </trkpt>
      <trkpt lat="47.80423" lon="18.89567">
        <ele>101</ele>
      </trkpt>
      <trkpt lat="47.79907" lon="18.90205">
        <ele>101</ele>
      </trkpt>
      <trkpt lat="47.7805" lon="18.90577">
        <ele>100</ele>
      </trkpt>
      <trkpt lat="47.77263" lon="18.90928">
        <ele>100</ele>
      </trkpt>
      <trkpt lat="47.7673" lon="18.91566">
        <ele>100</ele>
      </trkpt>
      <trkpt lat="47.76415" lon="18.92489">
        <ele>100</ele>
      </trkpt>
      <trkpt lat="47.76328" lon="18.9353">
        <ele>100</ele>
      </trkpt>
      <trkpt lat="47.76616" lon="18.94662">
        <ele>100</ele>
      </trkpt>
      <trkpt lat="47.77368" lon="18.95416">
        <ele>100</ele>
      </trkpt>
      <trkpt lat="47.78225" lon="18.9608">
        <ele>100</ele>
      </trkpt>
      <trkpt lat="47.79597" lon="18.9708">
        <ele>99.8</ele>
      </trkpt>
      <trkpt lat="47.80838" lon="18.98251">
        <ele>99</ele>
      </trkpt>
      <trkpt lat="47.81572" lon="18.99513">
        <ele>99</ele>
      </trkpt>
      <trkpt lat="47.82009" lon="19.01581">
        <ele>99.4</ele>
      </trkpt>
      <trkpt lat="47.81766" lon="19.04803">
        <ele>99</ele>
      </trkpt>
      <trkpt lat="47.81312" lon="19.06364">
        <ele>99</ele>
      </trkpt>
      <trkpt lat="47.80078" lon="19.08919">
        <ele>99</ele>
      </trkpt>
      <trkpt lat="47.78985" lon="19.1074">
        <ele>99.3</ele>
      </trkpt>
      <trkpt lat="47.78177" lon="19.11852">
        <ele>99</ele>
      </trkpt>
      <trkpt lat="47.77335" lon="19.1234">
        <ele>98</ele>
      </trkpt>
      <trkpt lat="47.76495" lon="19.12783">
        <ele>98</ele>
      </trkpt>
      <trkpt lat="47.75645" lon="19.13087">
        <ele>98</ele>
      </trkpt>
      <trkpt lat="47.7429" lon="19.13233">
        <ele>98</ele>
      </trkpt>
      <trkpt lat="47.73213" lon="19.12942">
        <ele>98</ele>
      </trkpt>
      <trkpt lat="47.71776" lon="19.12577">
        <ele>98</ele>
      </trkpt>
      <trkpt lat="47.69962" lon="19.12666">
        <ele>98</ele>
      </trkpt>
      <trkpt lat="47.68868" lon="19.12471">
        <ele>98</ele>
      </trkpt>
      <trkpt lat="47.6738" lon="19.12156">
        <ele>98</ele>
      </trkpt>
      <trkpt lat="47.66334" lon="19.11695">
        <ele>99.3</ele>
      </trkpt>
      <trkpt lat="47.64127" lon="19.11525">
        <ele>98</ele>
      </trkpt>
      <trkpt lat="47.63096" lon="19.10918">
        <ele>98</ele>
      </trkpt>
      <trkpt lat="47.61247" lon="19.09834">
        <ele>97</ele>
      </trkpt>
      <trkpt lat="47.60346" lon="19.08717">
        <ele>97</ele>
      </trkpt>
      <trkpt lat="47.58991" lon="19.07594">
        <ele>97</ele>
      </trkpt>
      <trkpt lat="47.57943" lon="19.06938">
        <ele>97</ele>
      </trkpt>
      <trkpt lat="47.56414" lon="19.06785">
        <ele>97</ele>
      </trkpt>
      <trkpt lat="47.55496" lon="19.06494">
        <ele>96</ele>
      </trkpt>
      <trkpt lat="47.54009" lon="19.05595">
        <ele>96</ele>
      </trkpt>
      <trkpt lat="47.53452" lon="19.05619">
        <ele>96</ele>
      </trkpt>
      <trkpt lat="47.52813" lon="19.05401">
        <ele>96</ele>
      </trkpt>
      <trkpt lat="47.51944" lon="19.04818">
        <ele>96</ele>
      </trkpt>
      <trkpt lat="47.51288" lon="19.04527">
        <ele>96.5</ele>
      </trkpt>
      <trkpt lat="47.5059" lon="19.04176">
        <ele>96</ele>
      </trkpt>
      <trkpt lat="47.49655" lon="19.04491">
        <ele>96</ele>
      </trkpt>
      <trkpt lat="47.4895" lon="19.04928">
        <ele>96.5</ele>
      </trkpt>
      <trkpt lat="47.47969" lon="19.06413">
        <ele>96</ele>
      </trkpt>
      <trkpt lat="47.47197" lon="19.0668">
        <ele>96</ele>
      </trkpt>
      <trkpt lat="47.46623" lon="19.06704">
        <ele>95</ele>
      </trkpt>
      <trkpt lat="47.45526" lon="19.05827">
        <ele>95</ele>
      </trkpt>
      <trkpt lat="47.44672" lon="19.05269">
        <ele>95</ele>
      </trkpt>
      <trkpt lat="47.42804" lon="19.04693">
        <ele>95</ele>
      </trkpt>
      <trkpt lat="47.41999" lon="19.04474">
        <ele>94</ele>
      </trkpt>
      <trkpt lat="47.40833" lon="19.04353">
        <ele>94</ele>
      </trkpt>
      <trkpt lat="47.39831" lon="19.0343">
        <ele>93</ele>
      </trkpt>
      <trkpt lat="47.39173" lon="19.02289">
        <ele>92</ele>
      </trkpt>
      <trkpt lat="47.38655" lon="18.99176">
        <ele>92</ele>
      </trkpt>
      <trkpt lat="47.37981" lon="18.96967">
        <ele>92</ele>
      </trkpt>
      <trkpt lat="47.37159" lon="18.96044">
        <ele>92</ele>
      </trkpt>
      <trkpt lat="47.35456" lon="18.94807">
        <ele>92</ele>
      </trkpt>
      <trkpt lat="47.34404" lon="18.94953">
        <ele>92</ele>
      </trkpt>
      <trkpt lat="47.33465" lon="18.95274">
        <ele>92</ele>
      </trkpt>
      <trkpt lat="47.32544" lon="18.94109">
        <ele>92</ele>
      </trkpt>
      <trkpt lat="47.30649" lon="18.9274">
        <ele>92</ele>
      </trkpt>
      <trkpt lat="47.29101" lon="18.91817">
        <ele>92</ele>
      </trkpt>
      <trkpt lat="47.27836" lon="18.91746">
        <ele>92</ele>
      </trkpt>
      <trkpt lat="47.26782" lon="18.91989">
        <ele>92</ele>
      </trkpt>
      <trkpt lat="47.25842" lon="18.91844">
        <ele>92</ele>
      </trkpt>
      <trkpt lat="47.24531" lon="18.91194">
        <ele>92</ele>
      </trkpt>
      <trkpt lat="47.23773" lon="18.9117">
        <ele>92</ele>
      </trkpt>
      <trkpt lat="47.22998" lon="18.91">
        <ele>92</ele>
      </trkpt>
      <trkpt lat="47.21726" lon="18.89819">
        <ele>92</ele>
      </trkpt>
      <trkpt lat="47.20555" lon="18.88726">
        <ele>92</ele>
      </trkpt>
      <trkpt lat="47.19506" lon="18.88158">
        <ele>92</ele>
      </trkpt>
      <trkpt lat="47.17526" lon="18.87721">
        <ele>92</ele>
      </trkpt>
      <trkpt lat="47.16189" lon="18.87429">
        <ele>92</ele>
      </trkpt>
      <trkpt lat="47.14863" lon="18.87513">
        <ele>92</ele>
      </trkpt>
      <trkpt lat="47.12799" lon="18.88023">
        <ele>92</ele>
      </trkpt>
      <trkpt lat="47.1101" lon="18.88519">
        <ele>92</ele>
      </trkpt>
      <trkpt lat="47.08994" lon="18.89345">
        <ele>92</ele>
      </trkpt>
      <trkpt lat="47.07424" lon="18.8983">
        <ele>92</ele>
      </trkpt>
      <trkpt lat="47.06861" lon="18.90899">
        <ele>92</ele>
      </trkpt>
      <trkpt lat="47.05968" lon="18.92889">
        <ele>92</ele>
      </trkpt>
      <trkpt lat="47.05059" lon="18.94394">
        <ele>92</ele>
      </trkpt>
      <trkpt lat="47.04324" lon="18.9554">
        <ele>92</ele>
      </trkpt>
      <trkpt lat="47.03249" lon="18.96414">
        <ele>92</ele>
      </trkpt>
      <trkpt lat="47.02289" lon="18.96948">
        <ele>92</ele>
      </trkpt>
      <trkpt lat="47.01528" lon="18.96802">
        <ele>92</ele>
      </trkpt>
      <trkpt lat="47.0085" lon="18.96694">
        <ele>92</ele>
      </trkpt>
      <trkpt lat="47.00085" lon="18.95884">
        <ele>92</ele>
      </trkpt>
      <trkpt lat="46.99196" lon="18.95115">
        <ele>92</ele>
      </trkpt>
      <trkpt lat="46.98256" lon="18.95065">
        <ele>92</ele>
      </trkpt>
      <trkpt lat="46.96951" lon="18.95268">
        <ele>92</ele>
      </trkpt>
      <trkpt lat="46.95608" lon="18.95899">
        <ele>92</ele>
      </trkpt>
      <trkpt lat="46.93764" lon="18.96499">
        <ele>92</ele>
      </trkpt>
      <trkpt lat="46.9252" lon="18.96535">
        <ele>91</ele>
      </trkpt>
      <trkpt lat="46.90721" lon="18.95874">
        <ele>90</ele>
      </trkpt>
      <trkpt lat="46.89313" lon="18.94973">
        <ele>90</ele>
      </trkpt>
      <trkpt lat="46.87489" lon="18.93235">
        <ele>90</ele>
      </trkpt>
      <trkpt lat="46.86591" lon="18.92624">
        <ele>90</ele>
      </trkpt>
      <trkpt lat="46.84808" lon="18.92482">
        <ele>90</ele>
      </trkpt>
      <trkpt lat="46.82515" lon="18.92573">
        <ele>90</ele>
      </trkpt>
      <trkpt lat="46.81722" lon="18.92526">
        <ele>89</ele>
      </trkpt>
      <trkpt lat="46.80761" lon="18.93772">
        <ele>89</ele>
      </trkpt>
      <trkpt lat="46.80032" lon="18.95199">
        <ele>89</ele>
      </trkpt>
      <trkpt lat="46.79304" lon="18.95765">
        <ele>89</ele>
      </trkpt>
      <trkpt lat="46.77944" lon="18.97077">
        <ele>89</ele>
      </trkpt>
      <trkpt lat="46.7644" lon="18.98673">
        <ele>90.1</ele>
      </trkpt>
      <trkpt lat="46.75369" lon="18.98559">
        <ele>89</ele>
      </trkpt>
      <trkpt lat="46.73625" lon="18.9849">
        <ele>89</ele>
      </trkpt>
      <trkpt lat="46.72243" lon="18.99577">
        <ele>89</ele>
      </trkpt>
      <trkpt lat="46.7111" lon="19.00642">
        <ele>88</ele>
      </trkpt>
      <trkpt lat="46.70168" lon="19.00941">
        <ele>88</ele>
      </trkpt>
      <trkpt lat="46.69112" lon="19.00466">
        <ele>87.2</ele>
      </trkpt>
      <trkpt lat="46.68211" lon="18.9931">
        <ele>87</ele>
      </trkpt>
      <trkpt lat="46.65817" lon="18.97068">
        <ele>87</ele>
      </trkpt>
      <trkpt lat="46.64579" lon="18.9521">
        <ele>87</ele>
      </trkpt>
      <trkpt lat="46.63724" lon="18.93443">
        <ele>87</ele>
      </trkpt>
      <trkpt lat="46.63584" lon="18.91087">
        <ele>86</ele>
      </trkpt>
      <trkpt lat="46.63708" lon="18.89253">
        <ele>86</ele>
      </trkpt>
      <trkpt lat="46.63615" lon="18.88505">
        <ele>86</ele>
      </trkpt>
      <trkpt lat="46.62468" lon="18.87037">
        <ele>86</ele>
      </trkpt>
      <trkpt lat="46.6169" lon="18.86131">
        <ele>86</ele>
      </trkpt>
      <trkpt lat="46.60395" lon="18.85776">
        <ele>86</ele>
      </trkpt>
      <trkpt lat="46.59508" lon="18.86274">
        <ele>86</ele>
      </trkpt>
      <trkpt lat="46.58543" lon="18.87407">
        <ele>86</ele>
      </trkpt>
      <trkpt lat="46.57291" lon="18.88713">
        <ele>86</ele>
      </trkpt>
      <trkpt lat="46.5631" lon="18.8937">
        <ele>86</ele>
      </trkpt>
      <trkpt lat="46.55406" lon="18.89529">
        <ele>86</ele>
      </trkpt>
      <trkpt lat="46.53832" lon="18.89536">
        <ele>86</ele>
      </trkpt>
      <trkpt lat="46.52585" lon="18.89309">
        <ele>86</ele>
      </trkpt>
      <trkpt lat="46.51104" lon="18.90032">
        <ele>86</ele>
      </trkpt>
      <trkpt lat="46.49358" lon="18.91595">
        <ele>85</ele>
      </trkpt>
      <trkpt lat="46.48438" lon="18.91958">
        <ele>85</ele>
      </trkpt>
      <trkpt lat="46.47056" lon="18.92278">
        <ele>85</ele>
      </trkpt>
      <trkpt lat="46.46254" lon="18.92396">
        <ele>85</ele>
      </trkpt>
      <trkpt lat="46.45045" lon="18.92041">
        <ele>85</ele>
      </trkpt>
      <trkpt lat="46.43255" lon="18.90801">
        <ele>85</ele>
      </trkpt>
      <trkpt lat="46.42127" lon="18.89776">
        <ele>85</ele>
      </trkpt>
      <trkpt lat="46.40774" lon="18.88523">
        <ele>85</ele>
      </trkpt>
      <trkpt lat="46.39835" lon="18.88542">
        <ele>85</ele>
      </trkpt>
      <trkpt lat="46.37286" lon="18.89261">
        <ele>85</ele>
      </trkpt>
      <trkpt lat="46.35477" lon="18.89636">
        <ele>85</ele>
      </trkpt>
      <trkpt lat="46.34191" lon="18.89569">
        <ele>85</ele>
      </trkpt>
      <trkpt lat="46.33034" lon="18.90161">
        <ele>85</ele>
      </trkpt>
      <trkpt lat="46.31945" lon="18.91383">
        <ele>85</ele>
      </trkpt>
      <trkpt lat="46.31331" lon="18.92024">
        <ele>85</ele>
      </trkpt>
      <trkpt lat="46.30325" lon="18.92125">
        <ele>85</ele>
      </trkpt>
      <trkpt lat="46.27622" lon="18.91171">
        <ele>85</ele>
      </trkpt>
      <trkpt lat="46.26273" lon="18.91198">
        <ele>85</ele>
      </trkpt>
      <trkpt lat="46.24352" lon="18.91627">
        <ele>88.4</ele>
      </trkpt>
      <trkpt lat="46.22654" lon="18.91085">
        <ele>85.2</ele>
      </trkpt>
      <trkpt lat="46.21844" lon="18.90806">
        <ele>85</ele>
      </trkpt>
      <trkpt lat="46.20493" lon="18.91838">
        <ele>85</ele>
      </trkpt>
      <trkpt lat="46.19547" lon="18.92702">
        <ele>85</ele>
      </trkpt>
      <trkpt lat="46.18525" lon="18.92577">
        <ele>85</ele>
      </trkpt>
      <trkpt lat="46.17425" lon="18.91769">
        <ele>85</ele>
      </trkpt>
      <trkpt lat="46.16864" lon="18.90374">
        <ele>85</ele>
      </trkpt>
      <trkpt lat="46.16807" lon="18.87837">
        <ele>85</ele>
      </trkpt>
      <trkpt lat="46.17135" lon="18.86191">
        <ele>84</ele>
      </trkpt>
      <trkpt lat="46.1698" lon="18.84964">
        <ele>84</ele>
      </trkpt>
      <trkpt lat="46.16845" lon="18.84323">
        <ele>84</ele>
      </trkpt>
      <trkpt lat="46.16166" lon="18.83882">
        <ele>84</ele>
      </trkpt>
      <trkpt lat="46.15374" lon="18.84105">
        <ele>84</ele>
      </trkpt>
      <trkpt lat="46.14524" lon="18.83993">
        <ele>84</ele>
      </trkpt>
      <trkpt lat="46.13886" lon="18.8377">
        <ele>84</ele>
      </trkpt>
      <trkpt lat="46.13364" lon="18.82878">
        <ele>84</ele>
      </trkpt>
      <trkpt lat="46.12533" lon="18.81762">
        <ele>84</ele>
      </trkpt>
      <trkpt lat="46.11315" lon="18.80864">
        <ele>84</ele>
      </trkpt>
      <trkpt lat="46.106" lon="18.80334">
        <ele>84.8</ele>
      </trkpt>
      <trkpt lat="46.10136" lon="18.7933">
        <ele>84</ele>
      </trkpt>
      <trkpt lat="46.09807" lon="18.7802">
        <ele>84</ele>
      </trkpt>
      <trkpt lat="46.09548" lon="18.7713">
        <ele>84</ele>
      </trkpt>
      <trkpt lat="46.09277" lon="18.76768">
        <ele>84</ele>
      </trkpt>
      <trkpt lat="46.08851" lon="18.76573">
        <ele>84</ele>
      </trkpt>
      <trkpt lat="46.08078" lon="18.7635">
        <ele>84</ele>
      </trkpt>
      <trkpt lat="46.06975" lon="18.75708">
        <ele>84</ele>
      </trkpt>
      <trkpt lat="46.0593" lon="18.74927">
        <ele>84</ele>
      </trkpt>
      <trkpt lat="46.04556" lon="18.73421">
        <ele>84</ele>
      </trkpt>
      <trkpt lat="46.0413" lon="18.7225">
        <ele>84</ele>
      </trkpt>
      <trkpt lat="46.03259" lon="18.70075">
        <ele>84</ele>
      </trkpt>
      <trkpt lat="46.02848" lon="18.68828">
        <ele>84</ele>
      </trkpt>
      <trkpt lat="46.02286" lon="18.68493">
        <ele>84</ele>
      </trkpt>
      <trkpt lat="46.01667" lon="18.68159">
        <ele>84</ele>
      </trkpt>
      <trkpt lat="46.00563" lon="18.68465">
        <ele>84.1</ele>
      </trkpt>
      <trkpt lat="45.98501" lon="18.70993">
        <ele>84</ele>
      </trkpt>
      <trkpt lat="45.98085" lon="18.71799">
        <ele>84</ele>
      </trkpt>
      <trkpt lat="45.97398" lon="18.7284">
        <ele>83</ele>
      </trkpt>
      <trkpt lat="45.96603" lon="18.73907">
        <ele>83</ele>
      </trkpt>
      <trkpt lat="45.96169" lon="18.75494">
        <ele>82</ele>
      </trkpt>
      <trkpt lat="45.95318" lon="18.76535">
        <ele>82</ele>
      </trkpt>
      <trkpt lat="45.94504" lon="18.76665">
        <ele>82</ele>
      </trkpt>
      <trkpt lat="45.92879" lon="18.78056">
        <ele>82.3</ele>
      </trkpt>
      <trkpt lat="45.92001" lon="18.79658">
        <ele>82</ele>
      </trkpt>
      <trkpt lat="45.91427" lon="18.80775">
        <ele>82.2</ele>
      </trkpt>
      <trkpt lat="45.90491" lon="18.81946">
        <ele>82</ele>
      </trkpt>
      <trkpt lat="45.89695" lon="18.8234">
        <ele>82</ele>
      </trkpt>
      <trkpt lat="45.88707" lon="18.82813">
        <ele>82</ele>
      </trkpt>
      <trkpt lat="45.87637" lon="18.82853">
        <ele>82</ele>
      </trkpt>
      <trkpt lat="45.86895" lon="18.83011">
        <ele>82</ele>
      </trkpt>
      <trkpt lat="45.86195" lon="18.85302">
        <ele>82</ele>
      </trkpt>
      <trkpt lat="45.85535" lon="18.85776">
        <ele>82</ele>
      </trkpt>
      <trkpt lat="45.84052" lon="18.85697">
        <ele>81</ele>
      </trkpt>
      <trkpt lat="45.82264" lon="18.85275">
        <ele>81</ele>
      </trkpt>
      <trkpt lat="45.81549" lon="18.84604">
        <ele>81.4</ele>
      </trkpt>
      <trkpt lat="45.80394" lon="18.8492">
        <ele>81</ele>
      </trkpt>
      <trkpt lat="45.79405" lon="18.85353">
        <ele>81</ele>
      </trkpt>
      <trkpt lat="45.78717" lon="18.86261">
        <ele>81</ele>
      </trkpt>
      <trkpt lat="45.78497" lon="18.87286">
        <ele>81</ele>
      </trkpt>
      <trkpt lat="45.78085" lon="18.88627">
        <ele>92.3</ele>
      </trkpt>
      <trkpt lat="45.77149" lon="18.89061">
        <ele>81</ele>
      </trkpt>
      <trkpt lat="45.74841" lon="18.89681">
        <ele>81</ele>
      </trkpt>
      <trkpt lat="45.72148" lon="18.89973">
        <ele>81</ele>
      </trkpt>
      <trkpt lat="45.70606" lon="18.90801">
        <ele>80</ele>
      </trkpt>
      <trkpt lat="45.69384" lon="18.91871">
        <ele>80</ele>
      </trkpt>
      <trkpt lat="45.68433" lon="18.93637">
        <ele>80</ele>
      </trkpt>
      <trkpt lat="45.67687" lon="18.95772">
        <ele>80</ele>
      </trkpt>
      <trkpt lat="45.6695" lon="18.96635">
        <ele>80</ele>
      </trkpt>
      <trkpt lat="45.66282" lon="18.96672">
        <ele>80</ele>
      </trkpt>
      <trkpt lat="45.65587" lon="18.95936">
        <ele>80</ele>
      </trkpt>
      <trkpt lat="45.64918" lon="18.94574">
        <ele>80</ele>
      </trkpt>
      <trkpt lat="45.63373" lon="18.93449">
        <ele>80</ele>
      </trkpt>
      <trkpt lat="45.62781" lon="18.93008">
        <ele>80.2</ele>
      </trkpt>
      <trkpt lat="45.62344" lon="18.91536">
        <ele>80</ele>
      </trkpt>
      <trkpt lat="45.61984" lon="18.90579">
        <ele>80</ele>
      </trkpt>
      <trkpt lat="45.61108" lon="18.90579">
        <ele>80</ele>
      </trkpt>
      <trkpt lat="45.60388" lon="18.908">
        <ele>80</ele>
      </trkpt>
      <trkpt lat="45.59714" lon="18.91383">
        <ele>80</ele>
      </trkpt>
      <trkpt lat="45.59277" lon="18.91212">
        <ele>80</ele>
      </trkpt>
      <trkpt lat="45.58543" lon="18.89979">
        <ele>80</ele>
      </trkpt>
      <trkpt lat="45.57899" lon="18.89133">
        <ele>80</ele>
      </trkpt>
      <trkpt lat="45.57014" lon="18.88746">
        <ele>80</ele>
      </trkpt>
      <trkpt lat="45.56293" lon="18.89078">
        <ele>80</ele>
      </trkpt>
      <trkpt lat="45.55713" lon="18.902">
        <ele>80</ele>
      </trkpt>
      <trkpt lat="45.55468" lon="18.91653">
        <ele>79</ele>
      </trkpt>
      <trkpt lat="45.55262" lon="18.92205">
        <ele>79.1</ele>
      </trkpt>
      <trkpt lat="45.54605" lon="18.92739">
        <ele>79</ele>
      </trkpt>
      <trkpt lat="45.5418" lon="18.93254">
        <ele>79</ele>
      </trkpt>
      <trkpt lat="45.53535" lon="18.94358">
        <ele>79</ele>
      </trkpt>
      <trkpt lat="45.53445" lon="18.96198">
        <ele>79</ele>
      </trkpt>
      <trkpt lat="45.53535" lon="18.97706">
        <ele>78</ele>
      </trkpt>
      <trkpt lat="45.54038" lon="18.99013">
        <ele>78</ele>
      </trkpt>
      <trkpt lat="45.54824" lon="19.00043">
        <ele>78</ele>
      </trkpt>
      <trkpt lat="45.55477" lon="19.00789">
        <ele>78</ele>
      </trkpt>
      <trkpt lat="45.55773" lon="19.01249">
        <ele>78</ele>
      </trkpt>
      <trkpt lat="45.55696" lon="19.01985">
        <ele>78</ele>
      </trkpt>
      <trkpt lat="45.55348" lon="19.02684">
        <ele>78</ele>
      </trkpt>
      <trkpt lat="45.54226" lon="19.02992">
        <ele>78</ele>
      </trkpt>
      <trkpt lat="45.53453" lon="19.03544">
        <ele>78</ele>
      </trkpt>
      <trkpt lat="45.53273" lon="19.05273">
        <ele>78</ele>
      </trkpt>
      <trkpt lat="45.52796" lon="19.0772">
        <ele>78</ele>
      </trkpt>
      <trkpt lat="45.52293" lon="19.08585">
        <ele>78</ele>
      </trkpt>
      <trkpt lat="45.51756" lon="19.09826">
        <ele>78</ele>
      </trkpt>
      <trkpt lat="45.51151" lon="19.10157">
        <ele>78</ele>
      </trkpt>
      <trkpt lat="45.50138" lon="19.10183">
        <ele>78.3</ele>
      </trkpt>
      <trkpt lat="45.49412" lon="19.09528">
        <ele>78.1</ele>
      </trkpt>
      <trkpt lat="45.48849" lon="19.08556">
        <ele>78</ele>
      </trkpt>
      <trkpt lat="45.48612" lon="19.06379">
        <ele>78</ele>
      </trkpt>
      <trkpt lat="45.48464" lon="19.0471">
        <ele>78</ele>
      </trkpt>
      <trkpt lat="45.49234" lon="19.0192">
        <ele>78.2</ele>
      </trkpt>
      <trkpt lat="45.4956" lon="19.01328">
        <ele>78</ele>
      </trkpt>
      <trkpt lat="45.49605" lon="19.00589">
        <ele>78</ele>
      </trkpt>
      <trkpt lat="45.49353" lon="19.00018">
        <ele>78</ele>
      </trkpt>
      <trkpt lat="45.48479" lon="18.99342">
        <ele>78</ele>
      </trkpt>
      <trkpt lat="45.47296" lon="18.99176">
        <ele>78</ele>
      </trkpt>
      <trkpt lat="45.46454" lon="18.99141">
        <ele>78</ele>
      </trkpt>
      <trkpt lat="45.45394" lon="18.98867">
        <ele>77</ele>
      </trkpt>
      <trkpt lat="45.44623" lon="18.99004">
        <ele>77</ele>
      </trkpt>
      <trkpt lat="45.43853" lon="18.99622">
        <ele>77</ele>
      </trkpt>
      <trkpt lat="45.43178" lon="19.01167">
        <ele>77</ele>
      </trkpt>
      <trkpt lat="45.42503" lon="19.02437">
        <ele>77</ele>
      </trkpt>
      <trkpt lat="45.41829" lon="19.03021">
        <ele>77</ele>
      </trkpt>
      <trkpt lat="45.41009" lon="19.03021">
        <ele>77</ele>
      </trkpt>
      <trkpt lat="45.40407" lon="19.0254">
        <ele>77.1</ele>
      </trkpt>
      <trkpt lat="45.40045" lon="19.01751">
        <ele>76.5</ele>
      </trkpt>
      <trkpt lat="45.40141" lon="19.00515">
        <ele>79.1</ele>
      </trkpt>
      <trkpt lat="45.39973" lon="18.9897">
        <ele>75</ele>
      </trkpt>
      <trkpt lat="45.39322" lon="18.97528">
        <ele>75</ele>
      </trkpt>
      <trkpt lat="45.38816" lon="18.96875">
        <ele>77.4</ele>
      </trkpt>
      <trkpt lat="45.37954" lon="18.97014">
        <ele>75</ele>
      </trkpt>
      <trkpt lat="45.37375" lon="18.97288">
        <ele>75.3</ele>
      </trkpt>
      <trkpt lat="45.36892" lon="18.98421">
        <ele>75.1</ele>
      </trkpt>
      <trkpt lat="45.36193" lon="18.99245">
        <ele>74</ele>
      </trkpt>
      <trkpt lat="45.35662" lon="19.0055">
        <ele>73</ele>
      </trkpt>
      <trkpt lat="45.34914" lon="19.01546">
        <ele>73</ele>
      </trkpt>
      <trkpt lat="45.34239" lon="19.03125">
        <ele>75.8</ele>
      </trkpt>
      <trkpt lat="45.34311" lon="19.05357">
        <ele>73</ele>
      </trkpt>
      <trkpt lat="45.34215" lon="19.06661">
        <ele>73</ele>
      </trkpt>
      <trkpt lat="45.33997" lon="19.08206">
        <ele>73</ele>
      </trkpt>
      <trkpt lat="45.33466" lon="19.09442">
        <ele>73</ele>
      </trkpt>
      <trkpt lat="45.32064" lon="19.09826">
        <ele>73</ele>
      </trkpt>
      <trkpt lat="45.31002" lon="19.09895">
        <ele>73</ele>
      </trkpt>
      <trkpt lat="45.30109" lon="19.10341">
        <ele>73</ele>
      </trkpt>
      <trkpt lat="45.2907" lon="19.11886">
        <ele>73.2</ele>
      </trkpt>
      <trkpt lat="45.28007" lon="19.14599">
        <ele>73</ele>
      </trkpt>
      <trkpt lat="45.26955" lon="19.18018">
        <ele>73</ele>
      </trkpt>
      <trkpt lat="45.26424" lon="19.19357">
        <ele>73.7</ele>
      </trkpt>
      <trkpt lat="45.25868" lon="19.21246">
        <ele>73</ele>
      </trkpt>
      <trkpt lat="45.24587" lon="19.24885">
        <ele>73.1</ele>
      </trkpt>
      <trkpt lat="45.24007" lon="19.27425">
        <ele>73</ele>
      </trkpt>
      <trkpt lat="45.23644" lon="19.30309">
        <ele>73</ele>
      </trkpt>
      <trkpt lat="45.23177" lon="19.34632">
        <ele>73</ele>
      </trkpt>
      <trkpt lat="45.23274" lon="19.40468">
        <ele>73</ele>
      </trkpt>
      <trkpt lat="45.23613" lon="19.43764">
        <ele>73.6</ele>
      </trkpt>
      <trkpt lat="45.23778" lon="19.46666">
        <ele>73</ele>
      </trkpt>
      <trkpt lat="45.23875" lon="19.48554">
        <ele>73</ele>
      </trkpt>
      <trkpt lat="45.24044" lon="19.49515">
        <ele>73</ele>
      </trkpt>
      <trkpt lat="45.24527" lon="19.50373">
        <ele>73</ele>
      </trkpt>
      <trkpt lat="45.2518" lon="19.52159">
        <ele>73</ele>
      </trkpt>
      <trkpt lat="45.25349" lon="19.53532">
        <ele>73</ele>
      </trkpt>
      <trkpt lat="45.25204" lon="19.54459">
        <ele>73</ele>
      </trkpt>
      <trkpt lat="45.24769" lon="19.55283">
        <ele>73</ele>
      </trkpt>
      <trkpt lat="45.23826" lon="19.55935">
        <ele>73</ele>
      </trkpt>
      <trkpt lat="45.22738" lon="19.56382">
        <ele>73</ele>
      </trkpt>
      <trkpt lat="45.21505" lon="19.57137">
        <ele>73</ele>
      </trkpt>
      <trkpt lat="45.20924" lon="19.58476">
        <ele>73.6</ele>
      </trkpt>
      <trkpt lat="45.21215" lon="19.60295">
        <ele>74.2</ele>
      </trkpt>
      <trkpt lat="45.21747" lon="19.61531">
        <ele>73</ele>
      </trkpt>
      <trkpt lat="45.22037" lon="19.62733">
        <ele>73</ele>
      </trkpt>
      <trkpt lat="45.2223" lon="19.64484">
        <ele>74.5</ele>
      </trkpt>
      <trkpt lat="45.22424" lon="19.67438">
        <ele>73</ele>
      </trkpt>
      <trkpt lat="45.22859" lon="19.69772">
        <ele>73</ele>
      </trkpt>
      <trkpt lat="45.23222" lon="19.71352">
        <ele>72</ele>
      </trkpt>
      <trkpt lat="45.23052" lon="19.73583">
        <ele>72</ele>
      </trkpt>
      <trkpt lat="45.22593" lon="19.76536">
        <ele>72</ele>
      </trkpt>
      <trkpt lat="45.22037" lon="19.80038">
        <ele>70</ele>
      </trkpt>
      <trkpt lat="45.22037" lon="19.81205">
        <ele>70</ele>
      </trkpt>
      <trkpt lat="45.22606" lon="19.83685">
        <ele>70</ele>
      </trkpt>
      <trkpt lat="45.23549" lon="19.85093">
        <ele>70</ele>
      </trkpt>
      <trkpt lat="45.24154" lon="19.8578">
        <ele>70</ele>
      </trkpt>
      <trkpt lat="45.25048" lon="19.85883">
        <ele>70</ele>
      </trkpt>
      <trkpt lat="45.25725" lon="19.8578">
        <ele>70</ele>
      </trkpt>
      <trkpt lat="45.26257" lon="19.86054">
        <ele>70</ele>
      </trkpt>
      <trkpt lat="45.26522" lon="19.86844">
        <ele>70</ele>
      </trkpt>
      <trkpt lat="45.2616" lon="19.88389">
        <ele>70</ele>
      </trkpt>
      <trkpt lat="45.25459" lon="19.9014">
        <ele>70</ele>
      </trkpt>
      <trkpt lat="45.24807" lon="19.91376">
        <ele>70</ele>
      </trkpt>
      <trkpt lat="45.23791" lon="19.91719">
        <ele>70</ele>
      </trkpt>
      <trkpt lat="45.228" lon="19.9244">
        <ele>70</ele>
      </trkpt>
      <trkpt lat="45.21857" lon="19.93333">
        <ele>70</ele>
      </trkpt>
      <trkpt lat="45.20853" lon="19.94382">
        <ele>70</ele>
      </trkpt>
      <trkpt lat="45.19692" lon="19.95309">
        <ele>70</ele>
      </trkpt>
      <trkpt lat="45.18482" lon="19.96819">
        <ele>70</ele>
      </trkpt>
      <trkpt lat="45.17877" lon="19.98879">
        <ele>70</ele>
      </trkpt>
      <trkpt lat="45.17393" lon="20.02072">
        <ele>69</ele>
      </trkpt>
      <trkpt lat="45.16885" lon="20.04269">
        <ele>69</ele>
      </trkpt>
      <trkpt lat="45.16909" lon="20.06295">
        <ele>69</ele>
      </trkpt>
      <trkpt lat="45.16974" lon="20.10292">
        <ele>69</ele>
      </trkpt>
      <trkpt lat="45.16877" lon="20.12421">
        <ele>69</ele>
      </trkpt>
      <trkpt lat="45.17434" lon="20.14206">
        <ele>69</ele>
      </trkpt>
      <trkpt lat="45.1816" lon="20.16506">
        <ele>69</ele>
      </trkpt>
      <trkpt lat="45.18499" lon="20.17502">
        <ele>69</ele>
      </trkpt>
      <trkpt lat="45.18136" lon="20.19424">
        <ele>69</ele>
      </trkpt>
      <trkpt lat="45.1664" lon="20.22777">
        <ele>69</ele>
      </trkpt>
      <trkpt lat="45.15817" lon="20.24184">
        <ele>69</ele>
      </trkpt>
      <trkpt lat="45.14505" lon="20.26051">
        <ele>69</ele>
      </trkpt>
      <trkpt lat="45.12058" lon="20.28557">
        <ele>68</ele>
      </trkpt>
      <trkpt lat="45.09247" lon="20.31166">
        <ele>68</ele>
      </trkpt>
      <trkpt lat="45.07502" lon="20.33123">
        <ele>68</ele>
      </trkpt>
      <trkpt lat="45.06314" lon="20.34977">
        <ele>68</ele>
      </trkpt>
      <trkpt lat="45.03799" lon="20.3615">
        <ele>68</ele>
      </trkpt>
      <trkpt lat="45.02319" lon="20.36184">
        <ele>67</ele>
      </trkpt>
      <trkpt lat="45.01106" lon="20.35291">
        <ele>69.5</ele>
      </trkpt>
      <trkpt lat="45.00159" lon="20.34364">
        <ele>68.1</ele>
      </trkpt>
      <trkpt lat="44.99916" lon="20.32407">
        <ele>67.1</ele>
      </trkpt>
      <trkpt lat="44.99358" lon="20.30416">
        <ele>67</ele>
      </trkpt>
      <trkpt lat="44.98355" lon="20.28969">
        <ele>67</ele>
      </trkpt>
      <trkpt lat="44.96776" lon="20.28694">
        <ele>67</ele>
      </trkpt>
      <trkpt lat="44.94614" lon="20.29793">
        <ele>67</ele>
      </trkpt>
      <trkpt lat="44.93399" lon="20.30926">
        <ele>67</ele>
      </trkpt>
      <trkpt lat="44.9152" lon="20.33719">
        <ele>67.2</ele>
      </trkpt>
      <trkpt lat="44.88918" lon="20.35298">
        <ele>67</ele>
      </trkpt>
      <trkpt lat="44.87176" lon="20.36628">
        <ele>67</ele>
      </trkpt>
      <trkpt lat="44.8604" lon="20.39153">
        <ele>67</ele>
      </trkpt>
      <trkpt lat="44.85077" lon="20.4158">
        <ele>67</ele>
      </trkpt>
      <trkpt lat="44.837" lon="20.44542">
        <ele>67</ele>
      </trkpt>
      <trkpt lat="44.83045" lon="20.47358">
        <ele>67</ele>
      </trkpt>
      <trkpt lat="44.82667" lon="20.51291">
        <ele>67</ele>
      </trkpt>
      <trkpt lat="44.84457" lon="20.56195">
        <ele>67</ele>
      </trkpt>
      <trkpt lat="44.85008" lon="20.57846">
        <ele>67</ele>
      </trkpt>
      <trkpt lat="44.84216" lon="20.59399">
        <ele>67</ele>
      </trkpt>
      <trkpt lat="44.83906" lon="20.61633">
        <ele>67.4</ele>
      </trkpt>
      <trkpt lat="44.83596" lon="20.63623">
        <ele>67</ele>
      </trkpt>
      <trkpt lat="44.82701" lon="20.64594">
        <ele>67</ele>
      </trkpt>
      <trkpt lat="44.81702" lon="20.64497">
        <ele>67</ele>
      </trkpt>
      <trkpt lat="44.80634" lon="20.63526">
        <ele>67</ele>
      </trkpt>
      <trkpt lat="44.7905" lon="20.62798">
        <ele>66</ele>
      </trkpt>
      <trkpt lat="44.7663" lon="20.62769">
        <ele>66</ele>
      </trkpt>
      <trkpt lat="44.75354" lon="20.63594">
        <ele>66</ele>
      </trkpt>
      <trkpt lat="44.73768" lon="20.66264">
        <ele>66</ele>
      </trkpt>
      <trkpt lat="44.73354" lon="20.67818">
        <ele>66</ele>
      </trkpt>
      <trkpt lat="44.7194" lon="20.68546">
        <ele>66</ele>
      </trkpt>
      <trkpt lat="44.69195" lon="20.71316">
        <ele>66</ele>
      </trkpt>
      <trkpt lat="44.67607" lon="20.7384">
        <ele>66.9</ele>
      </trkpt>
      <trkpt lat="44.66226" lon="20.76754">
        <ele>66</ele>
      </trkpt>
      <trkpt lat="44.65777" lon="20.79521">
        <ele>66</ele>
      </trkpt>
      <trkpt lat="44.65708" lon="20.83988">
        <ele>66</ele>
      </trkpt>
      <trkpt lat="44.66329" lon="20.87969">
        <ele>66</ele>
      </trkpt>
      <trkpt lat="44.66502" lon="20.90349">
        <ele>65</ele>
      </trkpt>
      <trkpt lat="44.67365" lon="20.92582">
        <ele>65</ele>
      </trkpt>
      <trkpt lat="44.68746" lon="20.94718">
        <ele>65.1</ele>
      </trkpt>
      <trkpt lat="44.70334" lon="20.96806">
        <ele>65</ele>
      </trkpt>
      <trkpt lat="44.71956" lon="20.99816">
        <ele>65</ele>
      </trkpt>
      <trkpt lat="44.72233" lon="21.03051">
        <ele>65</ele>
      </trkpt>
      <trkpt lat="44.71785" lon="21.05576">
        <ele>65</ele>
      </trkpt>
      <trkpt lat="44.72268" lon="21.08538">
        <ele>65</ele>
      </trkpt>
      <trkpt lat="44.73096" lon="21.11354">
        <ele>65</ele>
      </trkpt>
      <trkpt lat="44.73682" lon="21.14364">
        <ele>65</ele>
      </trkpt>
      <trkpt lat="44.75248" lon="21.16449">
        <ele>65</ele>
      </trkpt>
      <trkpt lat="44.76558" lon="21.18683">
        <ele>65</ele>
      </trkpt>
      <trkpt lat="44.76868" lon="21.19994">
        <ele>65</ele>
      </trkpt>
      <trkpt lat="44.77937" lon="21.21402">
        <ele>65</ele>
      </trkpt>
      <trkpt lat="44.78557" lon="21.22422">
        <ele>65</ele>
      </trkpt>
      <trkpt lat="44.79005" lon="21.24412">
        <ele>65</ele>
      </trkpt>
      <trkpt lat="44.79522" lon="21.2752">
        <ele>65</ele>
      </trkpt>
      <trkpt lat="44.81555" lon="21.30967">
        <ele>65</ele>
      </trkpt>
      <trkpt lat="44.82416" lon="21.33297">
        <ele>65</ele>
      </trkpt>
      <trkpt lat="44.8214" lon="21.36696">
        <ele>65</ele>
      </trkpt>
      <trkpt lat="44.80709" lon="21.3875">
        <ele>65</ele>
      </trkpt>
      <trkpt lat="44.78056" lon="21.3943">
        <ele>65</ele>
      </trkpt>
      <trkpt lat="44.77332" lon="21.40644">
        <ele>65</ele>
      </trkpt>
      <trkpt lat="44.77504" lon="21.44431">
        <ele>65</ele>
      </trkpt>
      <trkpt lat="44.77676" lon="21.47684">
        <ele>65</ele>
      </trkpt>
      <trkpt lat="44.77125" lon="21.51131">
        <ele>65</ele>
      </trkpt>
      <trkpt lat="44.77056" lon="21.55207">
        <ele>65</ele>
      </trkpt>
      <trkpt lat="44.75849" lon="21.58751">
        <ele>65</ele>
      </trkpt>
      <trkpt lat="44.73987" lon="21.60305">
        <ele>65</ele>
      </trkpt>
      <trkpt lat="44.71503" lon="21.61373">
        <ele>65</ele>
      </trkpt>
      <trkpt lat="44.68742" lon="21.6113">
        <ele>65</ele>
      </trkpt>
      <trkpt lat="44.66533" lon="21.62441">
        <ele>65</ele>
      </trkpt>
      <trkpt lat="44.66153" lon="21.65354">
        <ele>65</ele>
      </trkpt>
      <trkpt lat="44.66602" lon="21.67248">
        <ele>65</ele>
      </trkpt>
      <trkpt lat="44.66636" lon="21.68704">
        <ele>65</ele>
      </trkpt>
      <trkpt lat="44.66015" lon="21.70112">
        <ele>67.2</ele>
      </trkpt>
      <trkpt lat="44.65558" lon="21.7148">
        <ele>65</ele>
      </trkpt>
      <trkpt lat="44.65385" lon="21.72791">
        <ele>65</ele>
      </trkpt>
      <trkpt lat="44.65627" lon="21.74927">
        <ele>65</ele>
      </trkpt>
      <trkpt lat="44.66145" lon="21.77209">
        <ele>65</ele>
      </trkpt>
      <trkpt lat="44.66041" lon="21.79054">
        <ele>65</ele>
      </trkpt>
      <trkpt lat="44.65088" lon="21.81319">
        <ele>65</ele>
      </trkpt>
      <trkpt lat="44.65191" lon="21.83844">
        <ele>65</ele>
      </trkpt>
      <trkpt lat="44.65295" lon="21.86369">
        <ele>65</ele>
      </trkpt>
      <trkpt lat="44.64501" lon="21.90884">
        <ele>65</ele>
      </trkpt>
      <trkpt lat="44.63499" lon="21.95982">
        <ele>65</ele>
      </trkpt>
      <trkpt lat="44.63344" lon="21.98648">
        <ele>65</ele>
      </trkpt>
      <trkpt lat="44.63137" lon="21.9962">
        <ele>65</ele>
      </trkpt>
      <trkpt lat="44.61205" lon="22.0026">
        <ele>65</ele>
      </trkpt>
      <trkpt lat="44.60203" lon="22.00697">
        <ele>100</ele>
      </trkpt>
      <trkpt lat="44.59338" lon="22.02153">
        <ele>69.5</ele>
      </trkpt>
      <trkpt lat="44.58094" lon="22.02687">
        <ele>65</ele>
      </trkpt>
      <trkpt lat="44.56952" lon="22.02639">
        <ele>65</ele>
      </trkpt>
      <trkpt lat="44.55451" lon="22.03174">
        <ele>65</ele>
      </trkpt>
      <trkpt lat="44.53721" lon="22.0429">
        <ele>65</ele>
      </trkpt>
      <trkpt lat="44.53202" lon="22.06087">
        <ele>65</ele>
      </trkpt>
      <trkpt lat="44.52371" lon="22.07301">
        <ele>65</ele>
      </trkpt>
      <trkpt lat="44.50778" lon="22.07058">
        <ele>64</ele>
      </trkpt>
      <trkpt lat="44.48683" lon="22.10039">
        <ele>64</ele>
      </trkpt>
      <trkpt lat="44.47471" lon="22.13001">
        <ele>64</ele>
      </trkpt>
      <trkpt lat="44.4754" lon="22.17517">
        <ele>64</ele>
      </trkpt>
      <trkpt lat="44.49168" lon="22.19604">
        <ele>64</ele>
      </trkpt>
      <trkpt lat="44.51523" lon="22.20139">
        <ele>64</ele>
      </trkpt>
      <trkpt lat="44.54984" lon="22.22323">
        <ele>64</ele>
      </trkpt>
      <trkpt lat="44.58014" lon="22.24685">
        <ele>64</ele>
      </trkpt>
      <trkpt lat="44.59294" lon="22.2619">
        <ele>63</ele>
      </trkpt>
      <trkpt lat="44.60608" lon="22.26967">
        <ele>63</ele>
      </trkpt>
      <trkpt lat="44.62128" lon="22.27453">
        <ele>63</ele>
      </trkpt>
      <trkpt lat="44.6275" lon="22.27259">
        <ele>63</ele>
      </trkpt>
      <trkpt lat="44.63096" lon="22.28667">
        <ele>63</ele>
      </trkpt>
      <trkpt lat="44.63683" lon="22.29929">
        <ele>63.1</ele>
      </trkpt>
      <trkpt lat="44.64754" lon="22.30512">
        <ele>111</ele>
      </trkpt>
      <trkpt lat="44.65756" lon="22.30706">
        <ele>62</ele>
      </trkpt>
      <trkpt lat="44.66999" lon="22.32891">
        <ele>62</ele>
      </trkpt>
      <trkpt lat="44.67194" lon="22.35456">
        <ele>62</ele>
      </trkpt>
      <trkpt lat="44.68023" lon="22.38806">
        <ele>62</ele>
      </trkpt>
      <trkpt lat="44.69542" lon="22.4104">
        <ele>62</ele>
      </trkpt>
      <trkpt lat="44.70888" lon="22.42885">
        <ele>62</ele>
      </trkpt>
      <trkpt lat="44.71336" lon="22.45069">
        <ele>61</ele>
      </trkpt>
      <trkpt lat="44.71267" lon="22.47303">
        <ele>61</ele>
      </trkpt>
      <trkpt lat="44.69714" lon="22.49245">
        <ele>61</ele>
      </trkpt>
      <trkpt lat="44.66918" lon="22.53372">
        <ele>41</ele>
      </trkpt>
      <trkpt lat="44.63395" lon="22.57548">
        <ele>40</ele>
      </trkpt>
      <trkpt lat="44.61875" lon="22.61189">
        <ele>40</ele>
      </trkpt>
      <trkpt lat="44.61529" lon="22.64345">
        <ele>39</ele>
      </trkpt>
      <trkpt lat="44.61883" lon="22.67118">
        <ele>39</ele>
      </trkpt>
      <trkpt lat="44.61641" lon="22.68332">
        <ele>38</ele>
      </trkpt>
      <trkpt lat="44.60984" lon="22.69497">
        <ele>38.6</ele>
      </trkpt>
      <trkpt lat="44.59671" lon="22.71682">
        <ele>38</ele>
      </trkpt>
      <trkpt lat="44.57734" lon="22.74061">
        <ele>38</ele>
      </trkpt>
      <trkpt lat="44.54719" lon="22.76737">
        <ele>38</ele>
      </trkpt>
      <trkpt lat="44.5382" lon="22.76349">
        <ele>38</ele>
      </trkpt>
      <trkpt lat="44.5285" lon="22.74115">
        <ele>38</ele>
      </trkpt>
      <trkpt lat="44.51847" lon="22.70279">
        <ele>38</ele>
      </trkpt>
      <trkpt lat="44.52435" lon="22.68094">
        <ele>38</ele>
      </trkpt>
      <trkpt lat="44.54719" lon="22.6353">
        <ele>38</ele>
      </trkpt>
      <trkpt lat="44.55169" lon="22.59209">
        <ele>37</ele>
      </trkpt>
      <trkpt lat="44.54546" lon="22.57219">
        <ele>37</ele>
      </trkpt>
      <trkpt lat="44.52712" lon="22.5615">
        <ele>37</ele>
      </trkpt>
      <trkpt lat="44.50496" lon="22.56005">
        <ele>37</ele>
      </trkpt>
      <trkpt lat="44.47732" lon="22.53898">
        <ele>37</ele>
      </trkpt>
      <trkpt lat="44.47616" lon="22.50488">
        <ele>37</ele>
      </trkpt>
      <trkpt lat="44.47953" lon="22.46781">
        <ele>37</ele>
      </trkpt>
      <trkpt lat="44.47756" lon="22.45953">
        <ele>37</ele>
      </trkpt>
      <trkpt lat="44.46406" lon="22.45756">
        <ele>37</ele>
      </trkpt>
      <trkpt lat="44.45026" lon="22.46426">
        <ele>37</ele>
      </trkpt>
      <trkpt lat="44.42745" lon="22.48832">
        <ele>37</ele>
      </trkpt>
      <trkpt lat="44.41309" lon="22.49779">
        <ele>36</ele>
      </trkpt>
      <trkpt lat="44.38786" lon="22.5016">
        <ele>36</ele>
      </trkpt>
      <trkpt lat="44.35037" lon="22.51895">
        <ele>36</ele>
      </trkpt>
      <trkpt lat="44.33373" lon="22.53118">
        <ele>36</ele>
      </trkpt>
      <trkpt lat="44.31934" lon="22.5505">
        <ele>36</ele>
      </trkpt>
      <trkpt lat="44.30297" lon="22.57101">
        <ele>36</ele>
      </trkpt>
      <trkpt lat="44.29705" lon="22.60256">
        <ele>35</ele>
      </trkpt>
      <trkpt lat="44.29112" lon="22.64831">
        <ele>35</ele>
      </trkpt>
      <trkpt lat="44.28336" lon="22.67604">
        <ele>35</ele>
      </trkpt>
      <trkpt lat="44.27122" lon="22.68235">
        <ele>34</ele>
      </trkpt>
      <trkpt lat="44.2554" lon="22.68787">
        <ele>34</ele>
      </trkpt>
      <trkpt lat="44.2393" lon="22.67841">
        <ele>33</ele>
      </trkpt>
      <trkpt lat="44.22687" lon="22.67249">
        <ele>33</ele>
      </trkpt>
      <trkpt lat="44.21217" lon="22.67762">
        <ele>33</ele>
      </trkpt>
      <trkpt lat="44.20567" lon="22.69142">
        <ele>33</ele>
      </trkpt>
      <trkpt lat="44.20228" lon="22.72534">
        <ele>32</ele>
      </trkpt>
      <trkpt lat="44.19662" lon="22.75768">
        <ele>32.6</ele>
      </trkpt>
      <trkpt lat="44.18022" lon="22.76912">
        <ele>32</ele>
      </trkpt>
      <trkpt lat="44.15646" lon="22.80619">
        <ele>32</ele>
      </trkpt>
      <trkpt lat="44.14174" lon="22.85272">
        <ele>32</ele>
      </trkpt>
      <trkpt lat="44.12674" lon="22.88112">
        <ele>32</ele>
      </trkpt>
      <trkpt lat="44.10381" lon="22.92056">
        <ele>32</ele>
      </trkpt>
      <trkpt lat="44.10041" lon="22.94698">
        <ele>32</ele>
      </trkpt>
      <trkpt lat="44.09665" lon="23.007">
        <ele>32</ele>
      </trkpt>
      <trkpt lat="44.0856" lon="23.03421">
        <ele>32</ele>
      </trkpt>
      <trkpt lat="44.06776" lon="23.0488">
        <ele>32</ele>
      </trkpt>
      <trkpt lat="44.05188" lon="23.04249">
        <ele>32</ele>
      </trkpt>
      <trkpt lat="44.02675" lon="23.02468">
        <ele>32</ele>
      </trkpt>
      <trkpt lat="44.01654" lon="22.98524">
        <ele>32</ele>
      </trkpt>
      <trkpt lat="44.00548" lon="22.94028">
        <ele>32</ele>
      </trkpt>
      <trkpt lat="43.99555" lon="22.91228">
        <ele>32</ele>
      </trkpt>
      <trkpt lat="43.98619" lon="22.88665">
        <ele>31</ele>
      </trkpt>
      <trkpt lat="43.97538" lon="22.87481">
        <ele>31</ele>
      </trkpt>
      <trkpt lat="43.95807" lon="22.87205">
        <ele>31</ele>
      </trkpt>
      <trkpt lat="43.93876" lon="22.86534">
        <ele>31</ele>
      </trkpt>
      <trkpt lat="43.91973" lon="22.85627">
        <ele>28</ele>
      </trkpt>
      <trkpt lat="43.88957" lon="22.84077">
        <ele>28</ele>
      </trkpt>
      <trkpt lat="43.87252" lon="22.83998">
        <ele>28</ele>
      </trkpt>
      <trkpt lat="43.84949" lon="22.85418">
        <ele>28</ele>
      </trkpt>
      <trkpt lat="43.83213" lon="22.88021">
        <ele>28</ele>
      </trkpt>
      <trkpt lat="43.82132" lon="22.93227">
        <ele>28</ele>
      </trkpt>
      <trkpt lat="43.81136" lon="22.96973">
        <ele>28</ele>
      </trkpt>
      <trkpt lat="43.80539" lon="23.0068">
        <ele>26.8</ele>
      </trkpt>
      <trkpt lat="43.80226" lon="23.03402">
        <ele>26</ele>
      </trkpt>
      <trkpt lat="43.79713" lon="23.04703">
        <ele>26</ele>
      </trkpt>
      <trkpt lat="43.8013" lon="23.11286">
        <ele>26</ele>
      </trkpt>
      <trkpt lat="43.80984" lon="23.15269">
        <ele>26.1</ele>
      </trkpt>
      <trkpt lat="43.82876" lon="23.19396">
        <ele>26</ele>
      </trkpt>
      <trkpt lat="43.83929" lon="23.23616">
        <ele>26</ele>
      </trkpt>
      <trkpt lat="43.84786" lon="23.27207">
        <ele>26</ele>
      </trkpt>
      <trkpt lat="43.84928" lon="23.30441">
        <ele>26</ele>
      </trkpt>
      <trkpt lat="43.84958" lon="23.36645">
        <ele>26</ele>
      </trkpt>
      <trkpt lat="43.85072" lon="23.40628">
        <ele>26</ele>
      </trkpt>
      <trkpt lat="43.84987" lon="23.43941">
        <ele>26</ele>
      </trkpt>
      <trkpt lat="43.84076" lon="23.47687">
        <ele>26</ele>
      </trkpt>
      <trkpt lat="43.8262" lon="23.51172">
        <ele>26</ele>
      </trkpt>
      <trkpt lat="43.81168" lon="23.53815">
        <ele>26</ele>
      </trkpt>
      <trkpt lat="43.80457" lon="23.56181">
        <ele>26</ele>
      </trkpt>
      <trkpt lat="43.79774" lon="23.58902">
        <ele>29.8</ele>
      </trkpt>
      <trkpt lat="43.79318" lon="23.61308">
        <ele>26</ele>
      </trkpt>
      <trkpt lat="43.79461" lon="23.63398">
        <ele>29.4</ele>
      </trkpt>
      <trkpt lat="43.80429" lon="23.68539">
        <ele>26</ele>
      </trkpt>
      <trkpt lat="43.80515" lon="23.72641">
        <ele>26</ele>
      </trkpt>
      <trkpt lat="43.80259" lon="23.75086">
        <ele>26</ele>
      </trkpt>
      <trkpt lat="43.79034" lon="23.76072">
        <ele>26</ele>
      </trkpt>
      <trkpt lat="43.78152" lon="23.7765">
        <ele>26</ele>
      </trkpt>
      <trkpt lat="43.77611" lon="23.80055">
        <ele>26</ele>
      </trkpt>
      <trkpt lat="43.75388" lon="23.87179">
        <ele>26</ele>
      </trkpt>
      <trkpt lat="43.74477" lon="23.9266">
        <ele>26</ele>
      </trkpt>
      <trkpt lat="43.74417" lon="23.96415">
        <ele>26</ele>
      </trkpt>
      <trkpt lat="43.73449" lon="24.00398">
        <ele>26</ele>
      </trkpt>
      <trkpt lat="43.71142" lon="24.07765">
        <ele>25</ele>
      </trkpt>
      <trkpt lat="43.7043" lon="24.07765">
        <ele>25</ele>
      </trkpt>
      <trkpt lat="43.70088" lon="24.09934">
        <ele>25</ele>
      </trkpt>
      <trkpt lat="43.69803" lon="24.12497">
        <ele>25</ele>
      </trkpt>
      <trkpt lat="43.68947" lon="24.14666">
        <ele>25</ele>
      </trkpt>
      <trkpt lat="43.68263" lon="24.17309">
        <ele>25</ele>
      </trkpt>
      <trkpt lat="43.68548" lon="24.21213">
        <ele>25</ele>
      </trkpt>
      <trkpt lat="43.69261" lon="24.25551">
        <ele>25</ele>
      </trkpt>
      <trkpt lat="43.69774" lon="24.2985">
        <ele>25</ele>
      </trkpt>
      <trkpt lat="43.69831" lon="24.32295">
        <ele>25</ele>
      </trkpt>
      <trkpt lat="43.6966" lon="24.33873">
        <ele>25</ele>
      </trkpt>
      <trkpt lat="43.70316" lon="24.36554">
        <ele>25</ele>
      </trkpt>
      <trkpt lat="43.71314" lon="24.38092">
        <ele>25</ele>
      </trkpt>
      <trkpt lat="43.71713" lon="24.40892">
        <ele>25</ele>
      </trkpt>
      <trkpt lat="43.73366" lon="24.43732">
        <ele>25</ele>
      </trkpt>
      <trkpt lat="43.74676" lon="24.45664">
        <ele>24</ele>
      </trkpt>
      <trkpt lat="43.76044" lon="24.48662">
        <ele>24</ele>
      </trkpt>
      <trkpt lat="43.76124" lon="24.51868">
        <ele>23</ele>
      </trkpt>
      <trkpt lat="43.75611" lon="24.55062">
        <ele>23</ele>
      </trkpt>
      <trkpt lat="43.75269" lon="24.5806">
        <ele>22</ele>
      </trkpt>
      <trkpt lat="43.74643" lon="24.60307">
        <ele>22</ele>
      </trkpt>
      <trkpt lat="43.7336" lon="24.63462">
        <ele>22</ele>
      </trkpt>
      <trkpt lat="43.71992" lon="24.66105">
        <ele>22</ele>
      </trkpt>
      <trkpt lat="43.70287" lon="24.68656">
        <ele>22</ele>
      </trkpt>
      <trkpt lat="43.68491" lon="24.72876">
        <ele>22</ele>
      </trkpt>
      <trkpt lat="43.68776" lon="24.75558">
        <ele>22</ele>
      </trkpt>
      <trkpt lat="43.70002" lon="24.78516">
        <ele>22</ele>
      </trkpt>
      <trkpt lat="43.70971" lon="24.80566">
        <ele>22</ele>
      </trkpt>
      <trkpt lat="43.71257" lon="24.82775">
        <ele>21</ele>
      </trkpt>
      <trkpt lat="43.70971" lon="24.85299">
        <ele>21</ele>
      </trkpt>
      <trkpt lat="43.70772" lon="24.8802">
        <ele>21</ele>
      </trkpt>
      <trkpt lat="43.71456" lon="24.91412">
        <ele>21</ele>
      </trkpt>
      <trkpt lat="43.7186" lon="24.95237">
        <ele>21</ele>
      </trkpt>
      <trkpt lat="43.72117" lon="24.97643">
        <ele>21</ele>
      </trkpt>
      <trkpt lat="43.71347" lon="24.99614">
        <ele>21</ele>
      </trkpt>
      <trkpt lat="43.71062" lon="25.01152">
        <ele>21</ele>
      </trkpt>
      <trkpt lat="43.71119" lon="25.02099">
        <ele>20</ele>
      </trkpt>
      <trkpt lat="43.70521" lon="25.03755">
        <ele>19.9</ele>
      </trkpt>
      <trkpt lat="43.69608" lon="25.05017">
        <ele>19</ele>
      </trkpt>
      <trkpt lat="43.68919" lon="25.07936">
        <ele>17</ele>
      </trkpt>
      <trkpt lat="43.68405" lon="25.10775">
        <ele>16</ele>
      </trkpt>
      <trkpt lat="43.69204" lon="25.14364">
        <ele>15.3</ele>
      </trkpt>
      <trkpt lat="43.69774" lon="25.16849">
        <ele>15</ele>
      </trkpt>
      <trkpt lat="43.69974" lon="25.18663">
        <ele>15</ele>
      </trkpt>
      <trkpt lat="43.68776" lon="25.23119">
        <ele>15</ele>
      </trkpt>
      <trkpt lat="43.67588" lon="25.26743">
        <ele>22.7</ele>
      </trkpt>
      <trkpt lat="43.65619" lon="25.28755">
        <ele>15</ele>
      </trkpt>
      <trkpt lat="43.64621" lon="25.31555">
        <ele>15</ele>
      </trkpt>
      <trkpt lat="43.63422" lon="25.33921">
        <ele>15</ele>
      </trkpt>
      <trkpt lat="43.62252" lon="25.3676">
        <ele>15</ele>
      </trkpt>
      <trkpt lat="43.61766" lon="25.40665">
        <ele>15</ele>
      </trkpt>
      <trkpt lat="43.63022" lon="25.44845">
        <ele>15</ele>
      </trkpt>
      <trkpt lat="43.64478" lon="25.48789">
        <ele>15</ele>
      </trkpt>
      <trkpt lat="43.64535" lon="25.5289">
        <ele>15</ele>
      </trkpt>
      <trkpt lat="43.64298" lon="25.56475">
        <ele>15</ele>
      </trkpt>
      <trkpt lat="43.66067" lon="25.59867">
        <ele>15</ele>
      </trkpt>
      <trkpt lat="43.68691" lon="25.65822">
        <ele>15</ele>
      </trkpt>
      <trkpt lat="43.69347" lon="25.69529">
        <ele>15</ele>
      </trkpt>
      <trkpt lat="43.69394" lon="25.74067">
        <ele>15</ele>
      </trkpt>
      <trkpt lat="43.70934" lon="25.77932">
        <ele>15</ele>
      </trkpt>
      <trkpt lat="43.73157" lon="25.80022">
        <ele>15.2</ele>
      </trkpt>
      <trkpt lat="43.74525" lon="25.81008">
        <ele>15</ele>
      </trkpt>
      <trkpt lat="43.75265" lon="25.83966">
        <ele>15</ele>
      </trkpt>
      <trkpt lat="43.76348" lon="25.85977">
        <ele>15</ele>
      </trkpt>
      <trkpt lat="43.77231" lon="25.87042">
        <ele>15</ele>
      </trkpt>
      <trkpt lat="43.78426" lon="25.88541">
        <ele>15.9</ele>
      </trkpt>
      <trkpt lat="43.79537" lon="25.88856">
        <ele>15</ele>
      </trkpt>
      <trkpt lat="43.82004" lon="25.91678">
        <ele>15</ele>
      </trkpt>
      <trkpt lat="43.84081" lon="25.93217">
        <ele>15</ele>
      </trkpt>
      <trkpt lat="43.85531" lon="25.94755">
        <ele>15</ele>
      </trkpt>
      <trkpt lat="43.86868" lon="25.97081">
        <ele>15</ele>
      </trkpt>
      <trkpt lat="43.88317" lon="26.00039">
        <ele>15</ele>
      </trkpt>
      <trkpt lat="43.89596" lon="26.03036">
        <ele>15</ele>
      </trkpt>
      <trkpt lat="43.90877" lon="26.05922">
        <ele>15</ele>
      </trkpt>
      <trkpt lat="43.93393" lon="26.07792">
        <ele>15</ele>
      </trkpt>
      <trkpt lat="43.94898" lon="26.08265">
        <ele>15</ele>
      </trkpt>
      <trkpt lat="43.96318" lon="26.1">
        <ele>15</ele>
      </trkpt>
      <trkpt lat="43.97879" lon="26.12958">
        <ele>17.2</ele>
      </trkpt>
      <trkpt lat="43.98673" lon="26.15285">
        <ele>15</ele>
      </trkpt>
      <trkpt lat="43.9873" lon="26.18085">
        <ele>15</ele>
      </trkpt>
      <trkpt lat="43.98617" lon="26.19938">
        <ele>15</ele>
      </trkpt>
      <trkpt lat="43.99524" lon="26.23251">
        <ele>15</ele>
      </trkpt>
      <trkpt lat="44.01368" lon="26.28378">
        <ele>14</ele>
      </trkpt>
      <trkpt lat="44.02503" lon="26.30547">
        <ele>14</ele>
      </trkpt>
      <trkpt lat="44.03386" lon="26.34066">
        <ele>14</ele>
      </trkpt>
      <trkpt lat="44.04067" lon="26.37063">
        <ele>18.6</ele>
      </trkpt>
      <trkpt lat="44.0401" lon="26.40573">
        <ele>12</ele>
      </trkpt>
      <trkpt lat="44.03613" lon="26.43334">
        <ele>12</ele>
      </trkpt>
      <trkpt lat="44.04767" lon="26.50883">
        <ele>12</ele>
      </trkpt>
      <trkpt lat="44.05249" lon="26.53998">
        <ele>11</ele>
      </trkpt>
      <trkpt lat="44.05221" lon="26.57823">
        <ele>11</ele>
      </trkpt>
      <trkpt lat="44.05476" lon="26.60978">
        <ele>11</ele>
      </trkpt>
      <trkpt lat="44.06156" lon="26.64725">
        <ele>11</ele>
      </trkpt>
      <trkpt lat="44.06524" lon="26.66776">
        <ele>11</ele>
      </trkpt>
      <trkpt lat="44.07403" lon="26.68629">
        <ele>11</ele>
      </trkpt>
      <trkpt lat="44.07244" lon="26.70658">
        <ele>11.2</ele>
      </trkpt>
      <trkpt lat="44.07187" lon="26.73458">
        <ele>11</ele>
      </trkpt>
      <trkpt lat="44.07923" lon="26.76849">
        <ele>11</ele>
      </trkpt>
      <trkpt lat="44.09255" lon="26.80083">
        <ele>11</ele>
      </trkpt>
      <trkpt lat="44.11379" lon="26.84855">
        <ele>11</ele>
      </trkpt>
      <trkpt lat="44.12787" lon="26.8923">
        <ele>11</ele>
      </trkpt>
      <trkpt lat="44.13325" lon="26.91438">
        <ele>11</ele>
      </trkpt>
      <trkpt lat="44.13382" lon="26.95185">
        <ele>10</ele>
      </trkpt>
      <trkpt lat="44.13438" lon="26.99168">
        <ele>10</ele>
      </trkpt>
      <trkpt lat="44.14033" lon="27.01929">
        <ele>10</ele>
      </trkpt>
      <trkpt lat="44.14486" lon="27.04808">
        <ele>10</ele>
      </trkpt>
      <trkpt lat="44.14853" lon="27.06503">
        <ele>10</ele>
      </trkpt>
      <trkpt lat="44.14658" lon="27.08335">
        <ele>10</ele>
      </trkpt>
      <trkpt lat="44.13858" lon="27.09339">
        <ele>10</ele>
      </trkpt>
      <trkpt lat="44.13938" lon="27.11793">
        <ele>10</ele>
      </trkpt>
      <trkpt lat="44.14058" lon="27.13913">
        <ele>10</ele>
      </trkpt>
      <trkpt lat="44.12176" lon="27.16701">
        <ele>10.8</ele>
      </trkpt>
      <trkpt lat="44.11936" lon="27.19044">
        <ele>9</ele>
      </trkpt>
      <trkpt lat="44.11456" lon="27.22223">
        <ele>9</ele>
      </trkpt>
      <trkpt lat="44.12056" lon="27.2529">
        <ele>9</ele>
      </trkpt>
      <trkpt lat="44.13017" lon="27.27967">
        <ele>9</ele>
      </trkpt>
      <trkpt lat="44.14058" lon="27.30756">
        <ele>9</ele>
      </trkpt>
      <trkpt lat="44.13978" lon="27.32875">
        <ele>8</ele>
      </trkpt>
      <trkpt lat="44.13257" lon="27.3466">
        <ele>8</ele>
      </trkpt>
      <trkpt lat="44.12697" lon="27.36166">
        <ele>8</ele>
      </trkpt>
      <trkpt lat="44.13017" lon="27.39345">
        <ele>16</ele>
      </trkpt>
      <trkpt lat="44.13017" lon="27.41018">
        <ele>8</ele>
      </trkpt>
      <trkpt lat="44.12537" lon="27.43417">
        <ele>8</ele>
      </trkpt>
      <trkpt lat="44.12631" lon="27.45458">
        <ele>8</ele>
      </trkpt>
      <trkpt lat="44.14192" lon="27.48358">
        <ele>7</ele>
      </trkpt>
      <trkpt lat="44.15032" lon="27.50422">
        <ele>7</ele>
      </trkpt>
      <trkpt lat="44.16713" lon="27.52262">
        <ele>7</ele>
      </trkpt>
      <trkpt lat="44.17873" lon="27.54884">
        <ele>7</ele>
      </trkpt>
      <trkpt lat="44.1964" lon="27.59081">
        <ele>7</ele>
      </trkpt>
      <trkpt lat="44.2004" lon="27.612">
        <ele>8.1</ele>
      </trkpt>
      <trkpt lat="44.2032" lon="27.6265">
        <ele>7.3</ele>
      </trkpt>
      <trkpt lat="44.2064" lon="27.6371">
        <ele>7</ele>
      </trkpt>
      <trkpt lat="44.20474" lon="27.64993">
        <ele>7</ele>
      </trkpt>
      <trkpt lat="44.20164" lon="27.67558">
        <ele>7</ele>
      </trkpt>
      <trkpt lat="44.19742" lon="27.69904">
        <ele>7</ele>
      </trkpt>
      <trkpt lat="44.19632" lon="27.71926">
        <ele>7</ele>
      </trkpt>
      <trkpt lat="44.20172" lon="27.7385">
        <ele>7</ele>
      </trkpt>
      <trkpt lat="44.21612" lon="27.75524">
        <ele>7.2</ele>
      </trkpt>
      <trkpt lat="44.23812" lon="27.79522">
        <ele>6</ele>
      </trkpt>
      <trkpt lat="44.24111" lon="27.80637">
        <ele>6</ele>
      </trkpt>
      <trkpt lat="44.24511" lon="27.82464">
        <ele>6</ele>
      </trkpt>
      <trkpt lat="44.24669" lon="27.83456">
        <ele>6</ele>
      </trkpt>
      <trkpt lat="44.24569" lon="27.84725">
        <ele>6</ele>
      </trkpt>
      <trkpt lat="44.24449" lon="27.8577">
        <ele>6</ele>
      </trkpt>
      <trkpt lat="44.24559" lon="27.86663">
        <ele>6</ele>
      </trkpt>
      <trkpt lat="44.25008" lon="27.88378">
        <ele>6</ele>
      </trkpt>
      <trkpt lat="44.25018" lon="27.89633">
        <ele>6</ele>
      </trkpt>
      <trkpt lat="44.2478" lon="27.91346">
        <ele>6</ele>
      </trkpt>
      <trkpt lat="44.249" lon="27.9313">
        <ele>6</ele>
      </trkpt>
      <trkpt lat="44.25668" lon="27.95083">
        <ele>6</ele>
      </trkpt>
      <trkpt lat="44.26847" lon="27.96254">
        <ele>6</ele>
      </trkpt>
      <trkpt lat="44.28439" lon="27.97331">
        <ele>6</ele>
      </trkpt>
      <trkpt lat="44.29277" lon="27.9807">
        <ele>6</ele>
      </trkpt>
      <trkpt lat="44.3077" lon="27.99837">
        <ele>6</ele>
      </trkpt>
      <trkpt lat="44.31588" lon="28.0066">
        <ele>6</ele>
      </trkpt>
      <trkpt lat="44.32268" lon="28.01367">
        <ele>5</ele>
      </trkpt>
      <trkpt lat="44.33245" lon="28.01535">
        <ele>5</ele>
      </trkpt>
      <trkpt lat="44.34741" lon="28.01911">
        <ele>5</ele>
      </trkpt>
      <trkpt lat="44.3571" lon="28.02218">
        <ele>5</ele>
      </trkpt>
      <trkpt lat="44.36806" lon="28.02804">
        <ele>5</ele>
      </trkpt>
      <trkpt lat="44.37374" lon="28.03334">
        <ele>5</ele>
      </trkpt>
      <trkpt lat="44.38697" lon="28.04536">
        <ele>5</ele>
      </trkpt>
      <trkpt lat="44.39634" lon="28.06098">
        <ele>5</ele>
      </trkpt>
      <trkpt lat="44.40211" lon="28.0685">
        <ele>5</ele>
      </trkpt>
      <trkpt lat="44.40939" lon="28.07004">
        <ele>5</ele>
      </trkpt>
      <trkpt lat="44.4148" lon="28.07364">
        <ele>5</ele>
      </trkpt>
      <trkpt lat="44.42008" lon="28.08521">
        <ele>6.2</ele>
      </trkpt>
      <trkpt lat="44.42771" lon="28.10322">
        <ele>5</ele>
      </trkpt>
      <trkpt lat="44.43697" lon="28.10908">
        <ele>5</ele>
      </trkpt>
      <trkpt lat="44.44324" lon="28.1095">
        <ele>5</ele>
      </trkpt>
      <trkpt lat="44.44862" lon="28.10434">
        <ele>5</ele>
      </trkpt>
      <trkpt lat="44.45549" lon="28.0989">
        <ele>4</ele>
      </trkpt>
      <trkpt lat="44.48573" lon="28.09109">
        <ele>4</ele>
      </trkpt>
      <trkpt lat="44.49459" lon="28.08398">
        <ele>4</ele>
      </trkpt>
      <trkpt lat="44.50155" lon="28.0692">
        <ele>4</ele>
      </trkpt>
      <trkpt lat="44.50672" lon="28.05777">
        <ele>4</ele>
      </trkpt>
      <trkpt lat="44.51308" lon="28.05073">
        <ele>4</ele>
      </trkpt>
      <trkpt lat="44.52709" lon="28.0446">
        <ele>4</ele>
      </trkpt>
      <trkpt lat="44.54032" lon="28.03908">
        <ele>4</ele>
      </trkpt>
      <trkpt lat="44.54887" lon="28.03503">
        <ele>4</ele>
      </trkpt>
      <trkpt lat="44.55463" lon="28.02792">
        <ele>4</ele>
      </trkpt>
      <trkpt lat="44.56139" lon="28.01997">
        <ele>4</ele>
      </trkpt>
      <trkpt lat="44.56745" lon="28.01691">
        <ele>4</ele>
      </trkpt>
      <trkpt lat="44.57715" lon="28.01143">
        <ele>4</ele>
      </trkpt>
      <trkpt lat="44.5845" lon="28.01491">
        <ele>4</ele>
      </trkpt>
      <trkpt lat="44.59373" lon="28.02146">
        <ele>4</ele>
      </trkpt>
      <trkpt lat="44.61034" lon="28.03638">
        <ele>4</ele>
      </trkpt>
      <trkpt lat="44.61739" lon="28.03401">
        <ele>4.1</ele>
      </trkpt>
      <trkpt lat="44.62652" lon="28.03025">
        <ele>4</ele>
      </trkpt>
      <trkpt lat="44.63426" lon="28.02361">
        <ele>4</ele>
      </trkpt>
      <trkpt lat="44.64279" lon="28.01956">
        <ele>4</ele>
      </trkpt>
      <trkpt lat="44.65212" lon="28.01203">
        <ele>4</ele>
      </trkpt>
      <trkpt lat="44.65569" lon="28.00381">
        <ele>4.5</ele>
      </trkpt>
      <trkpt lat="44.66124" lon="27.99237">
        <ele>4</ele>
      </trkpt>
      <trkpt lat="44.66937" lon="27.98429">
        <ele>4</ele>
      </trkpt>
      <trkpt lat="44.67839" lon="27.96838">
        <ele>4</ele>
      </trkpt>
      <trkpt lat="44.68028" lon="27.96043">
        <ele>4</ele>
      </trkpt>
      <trkpt lat="44.67819" lon="27.949">
        <ele>4</ele>
      </trkpt>
      <trkpt lat="44.68147" lon="27.93296">
        <ele>4</ele>
      </trkpt>
      <trkpt lat="44.68612" lon="27.92683">
        <ele>4</ele>
      </trkpt>
      <trkpt lat="44.69277" lon="27.92029">
        <ele>4</ele>
      </trkpt>
      <trkpt lat="44.69941" lon="27.90676">
        <ele>4.1</ele>
      </trkpt>
      <trkpt lat="44.70159" lon="27.89686">
        <ele>4</ele>
      </trkpt>
      <trkpt lat="44.7056" lon="27.88618">
        <ele>4</ele>
      </trkpt>
      <trkpt lat="44.71818" lon="27.87474">
        <ele>4</ele>
      </trkpt>
      <trkpt lat="44.73046" lon="27.87042">
        <ele>4</ele>
      </trkpt>
      <trkpt lat="44.74275" lon="27.8746">
        <ele>4</ele>
      </trkpt>
      <trkpt lat="44.75795" lon="27.87888">
        <ele>4</ele>
      </trkpt>
      <trkpt lat="44.76993" lon="27.88515">
        <ele>8.8</ele>
      </trkpt>
      <trkpt lat="44.77431" lon="27.87416">
        <ele>4</ele>
      </trkpt>
      <trkpt lat="44.7756" lon="27.86203">
        <ele>4</ele>
      </trkpt>
      <trkpt lat="44.77817" lon="27.8347">
        <ele>4</ele>
      </trkpt>
      <trkpt lat="44.78273" lon="27.82662">
        <ele>4</ele>
      </trkpt>
      <trkpt lat="44.79401" lon="27.8209">
        <ele>4</ele>
      </trkpt>
      <trkpt lat="44.80202" lon="27.82215">
        <ele>4</ele>
      </trkpt>
      <trkpt lat="44.8108" lon="27.82729">
        <ele>4</ele>
      </trkpt>
      <trkpt lat="44.82396" lon="27.82784">
        <ele>4</ele>
      </trkpt>
      <trkpt lat="44.83325" lon="27.83063">
        <ele>4.4</ele>
      </trkpt>
      <trkpt lat="44.84115" lon="27.83444">
        <ele>4</ele>
      </trkpt>
      <trkpt lat="44.85064" lon="27.83876">
        <ele>4</ele>
      </trkpt>
      <trkpt lat="44.85924" lon="27.83932">
        <ele>3</ele>
      </trkpt>
      <trkpt lat="44.86784" lon="27.83667">
        <ele>3</ele>
      </trkpt>
      <trkpt lat="44.87684" lon="27.84499">
        <ele>3</ele>
      </trkpt>
      <trkpt lat="44.88237" lon="27.86089">
        <ele>3</ele>
      </trkpt>
      <trkpt lat="44.88662" lon="27.87483">
        <ele>3</ele>
      </trkpt>
      <trkpt lat="44.89492" lon="27.88194">
        <ele>3</ele>
      </trkpt>
      <trkpt lat="44.90618" lon="27.88919">
        <ele>3</ele>
      </trkpt>
      <trkpt lat="44.91358" lon="27.89658">
        <ele>3</ele>
      </trkpt>
      <trkpt lat="44.92612" lon="27.89951">
        <ele>3</ele>
      </trkpt>
      <trkpt lat="44.93966" lon="27.90599">
        <ele>3</ele>
      </trkpt>
      <trkpt lat="44.951" lon="27.90748">
        <ele>3</ele>
      </trkpt>
      <trkpt lat="44.96122" lon="27.90292">
        <ele>3</ele>
      </trkpt>
      <trkpt lat="44.96885" lon="27.90104">
        <ele>3</ele>
      </trkpt>
      <trkpt lat="44.98329" lon="27.90377">
        <ele>3</ele>
      </trkpt>
      <trkpt lat="44.99129" lon="27.90321">
        <ele>3</ele>
      </trkpt>
      <trkpt lat="44.99906" lon="27.89824">
        <ele>3</ele>
      </trkpt>
      <trkpt lat="45.00246" lon="27.88794">
        <ele>3</ele>
      </trkpt>
      <trkpt lat="45.00926" lon="27.8821">
        <ele>3</ele>
      </trkpt>
      <trkpt lat="45.01581" lon="27.8845">
        <ele>3</ele>
      </trkpt>
      <trkpt lat="45.02103" lon="27.8924">
        <ele>3.1</ele>
      </trkpt>
      <trkpt lat="45.026" lon="27.90115">
        <ele>3</ele>
      </trkpt>
      <trkpt lat="45.0328" lon="27.90321">
        <ele>3</ele>
      </trkpt>
      <trkpt lat="45.04384" lon="27.90115">
        <ele>3</ele>
      </trkpt>
      <trkpt lat="45.05863" lon="27.90339">
        <ele>3</ele>
      </trkpt>
      <trkpt lat="45.0676" lon="27.90991">
        <ele>3</ele>
      </trkpt>
      <trkpt lat="45.07894" lon="27.92093">
        <ele>3</ele>
      </trkpt>
      <trkpt lat="45.09239" lon="27.93364">
        <ele>3</ele>
      </trkpt>
      <trkpt lat="45.10294" lon="27.94273">
        <ele>3</ele>
      </trkpt>
      <trkpt lat="45.11306" lon="27.95266">
        <ele>3</ele>
      </trkpt>
      <trkpt lat="45.1213" lon="27.95832">
        <ele>3</ele>
      </trkpt>
      <trkpt lat="45.12651" lon="27.96116">
        <ele>3</ele>
      </trkpt>
      <trkpt lat="45.13378" lon="27.96562">
        <ele>3</ele>
      </trkpt>
      <trkpt lat="45.13947" lon="27.96648">
        <ele>3</ele>
      </trkpt>
      <trkpt lat="45.14218" lon="27.96478">
        <ele>3</ele>
      </trkpt>
      <trkpt lat="45.15478" lon="27.95242">
        <ele>3</ele>
      </trkpt>
      <trkpt lat="45.16586" lon="27.94401">
        <ele>3</ele>
      </trkpt>
      <trkpt lat="45.18099" lon="27.94298">
        <ele>3</ele>
      </trkpt>
      <trkpt lat="45.19623" lon="27.95071">
        <ele>3</ele>
      </trkpt>
      <trkpt lat="45.20639" lon="27.95981">
        <ele>3</ele>
      </trkpt>
      <trkpt lat="45.21216" lon="27.96303">
        <ele>3</ele>
      </trkpt>
      <trkpt lat="45.21615" lon="27.96114">
        <ele>3.3</ele>
      </trkpt>
      <trkpt lat="45.22135" lon="27.95719">
        <ele>3.4</ele>
      </trkpt>
      <trkpt lat="45.22824" lon="27.95565">
        <ele>3</ele>
      </trkpt>
      <trkpt lat="45.23598" lon="27.95942">
        <ele>3</ele>
      </trkpt>
      <trkpt lat="45.24202" lon="27.96629">
        <ele>3</ele>
      </trkpt>
      <trkpt lat="45.25304" lon="27.97051">
        <ele>3</ele>
      </trkpt>
      <trkpt lat="45.26198" lon="27.97411">
        <ele>3</ele>
      </trkpt>
      <trkpt lat="45.26669" lon="27.98132">
        <ele>3</ele>
      </trkpt>
      <trkpt lat="45.27817" lon="27.98887">
        <ele>3</ele>
      </trkpt>
      <trkpt lat="45.28518" lon="27.99248">
        <ele>3</ele>
      </trkpt>
      <trkpt lat="45.30618" lon="28.00051">
        <ele>3</ele>
      </trkpt>
      <trkpt lat="45.32078" lon="28.00824">
        <ele>3</ele>
      </trkpt>
      <trkpt lat="45.34336" lon="28.0184">
        <ele>3</ele>
      </trkpt>
      <trkpt lat="45.35904" lon="28.02406">
        <ele>3</ele>
      </trkpt>
      <trkpt lat="45.39954" lon="28.0286">
        <ele>3</ele>
      </trkpt>
      <trkpt lat="45.414" lon="28.04037">
        <ele>3</ele>
      </trkpt>
      <trkpt lat="45.43027" lon="28.06613">
        <ele>2</ele>
      </trkpt>
      <trkpt lat="45.44163" lon="28.09446">
        <ele>2.7</ele>
      </trkpt>
      <trkpt lat="45.44086" lon="28.11912">
        <ele>2.1</ele>
      </trkpt>
      <trkpt lat="45.43518" lon="28.1342">
        <ele>2</ele>
      </trkpt>
      <trkpt lat="45.42433" lon="28.15591">
        <ele>2</ele>
      </trkpt>
      <trkpt lat="45.41504" lon="28.17689">
        <ele>2</ele>
      </trkpt>
      <trkpt lat="45.414" lon="28.1883">
        <ele>2</ele>
      </trkpt>
      <trkpt lat="45.41762" lon="28.19565">
        <ele>2</ele>
      </trkpt>
      <trkpt lat="45.42614" lon="28.19345">
        <ele>2</ele>
      </trkpt>
      <trkpt lat="45.43983" lon="28.19198">
        <ele>2</ele>
      </trkpt>
      <trkpt lat="45.45196" lon="28.19713">
        <ele>2</ele>
      </trkpt>
      <trkpt lat="45.46022" lon="28.21442">
        <ele>2</ele>
      </trkpt>
      <trkpt lat="45.46409" lon="28.22804">
        <ele>2</ele>
      </trkpt>
      <trkpt lat="45.46022" lon="28.24643">
        <ele>2</ele>
      </trkpt>
      <trkpt lat="45.45093" lon="28.27366">
        <ele>2</ele>
      </trkpt>
      <trkpt lat="45.43931" lon="28.28286">
        <ele>2</ele>
      </trkpt>
      <trkpt lat="45.42708" lon="28.28905">
        <ele>4.7</ele>
      </trkpt>
      <trkpt lat="45.40952" lon="28.28353">
        <ele>2</ele>
      </trkpt>
      <trkpt lat="45.39634" lon="28.28758">
        <ele>2</ele>
      </trkpt>
      <trkpt lat="45.38019" lon="28.30164">
        <ele>2</ele>
      </trkpt>
      <trkpt lat="45.36132" lon="28.31415">
        <ele>2</ele>
      </trkpt>
      <trkpt lat="45.34074" lon="28.32664">
        <ele>2</ele>
      </trkpt>
      <trkpt lat="45.32471" lon="28.34393">
        <ele>2</ele>
      </trkpt>
      <trkpt lat="45.31565" lon="28.36454">
        <ele>2</ele>
      </trkpt>
      <trkpt lat="45.30478" lon="28.39324">
        <ele>1</ele>
      </trkpt>
      <trkpt lat="45.28895" lon="28.44842">
        <ele>1</ele>
      </trkpt>
      <trkpt lat="45.27341" lon="28.49625">
        <ele>1</ele>
      </trkpt>
      <trkpt lat="45.25917" lon="28.54298">
        <ele>1</ele>
      </trkpt>
      <trkpt lat="45.24673" lon="28.56837">
        <ele>1</ele>
      </trkpt>
      <trkpt lat="45.2444" lon="28.61511">
        <ele>1</ele>
      </trkpt>
      <trkpt lat="45.23715" lon="28.66588">
        <ele>1</ele>
      </trkpt>
      <trkpt lat="45.22756" lon="28.69495">
        <ele>1</ele>
      </trkpt>
      <trkpt lat="45.22264" lon="28.71409">
        <ele>1</ele>
      </trkpt>
      <trkpt lat="45.22704" lon="28.73028">
        <ele>1</ele>
      </trkpt>
      <trkpt lat="45.22806" lon="28.73909">
        <ele>1</ele>
      </trkpt>
      <trkpt lat="45.22345" lon="28.74438">
        <ele>1</ele>
      </trkpt>
      <trkpt lat="45.21809" lon="28.74712">
        <ele>1.7</ele>
      </trkpt>
      <trkpt lat="45.21571" lon="28.75811">
        <ele>1</ele>
      </trkpt>
      <trkpt lat="45.21407" lon="28.78305">
        <ele>1</ele>
      </trkpt>
      <trkpt lat="45.21124" lon="28.79024">
        <ele>1</ele>
      </trkpt>
      <trkpt lat="45.20737" lon="28.79341">
        <ele>1</ele>
      </trkpt>
      <trkpt lat="45.20082" lon="28.79151">
        <ele>2.4</ele>
      </trkpt>
      <trkpt lat="45.1898" lon="28.79087">
        <ele>1</ele>
      </trkpt>
      <trkpt lat="45.18324" lon="28.79362">
        <ele>1</ele>
      </trkpt>
      <trkpt lat="45.18205" lon="28.80081">
        <ele>1</ele>
      </trkpt>
      <trkpt lat="45.18533" lon="28.80482">
        <ele>1</ele>
      </trkpt>
      <trkpt lat="45.19337" lon="28.80989">
        <ele>1</ele>
      </trkpt>
      <trkpt lat="45.19918" lon="28.823">
        <ele>1</ele>
      </trkpt>
      <trkpt lat="45.20305" lon="28.83758">
        <ele>1</ele>
      </trkpt>
      <trkpt lat="45.20156" lon="28.85808">
        <ele>1</ele>
      </trkpt>
      <trkpt lat="45.19739" lon="28.86886">
        <ele>1.4</ele>
      </trkpt>
      <trkpt lat="45.19114" lon="28.88175">
        <ele>1</ele>
      </trkpt>
      <trkpt lat="45.18697" lon="28.88957">
        <ele>1</ele>
      </trkpt>
      <trkpt lat="45.18711" lon="28.89549">
        <ele>7</ele>
      </trkpt>
      <trkpt lat="45.1886" lon="28.90457">
        <ele>4.9</ele>
      </trkpt>
      <trkpt lat="45.19009" lon="28.91218">
        <ele>4.8</ele>
      </trkpt>
      <trkpt lat="45.18994" lon="28.92359">
        <ele>5.7</ele>
      </trkpt>
      <trkpt lat="45.19049" lon="28.93194">
        <ele>2.3</ele>
      </trkpt>
      <trkpt lat="45.19243" lon="28.93786">
        <ele>4.7</ele>
      </trkpt>
      <trkpt lat="45.19377" lon="28.948">
        <ele>3.8</ele>
      </trkpt>
      <trkpt lat="45.19392" lon="28.96174">
        <ele>1</ele>
      </trkpt>
      <trkpt lat="45.19288" lon="28.97273">
        <ele>2</ele>
      </trkpt>
      <trkpt lat="45.1893" lon="28.97886">
        <ele>2</ele>
      </trkpt>
      <trkpt lat="45.18185" lon="28.98985">
        <ele>1.8</ele>
      </trkpt>
      <trkpt lat="45.17649" lon="28.99724">
        <ele>2.6</ele>
      </trkpt>
      <trkpt lat="45.17277" lon="29.00696">
        <ele>3</ele>
      </trkpt>
      <trkpt lat="45.17143" lon="29.0169">
      </trkpt>
      <trkpt lat="45.17247" lon="29.03063">
      </trkpt>
      <trkpt lat="45.17411" lon="29.04416">
        <ele>2</ele>
      </trkpt>
      <trkpt lat="45.17455" lon="29.05557">
        <ele>1.1</ele>
      </trkpt>
      <trkpt lat="45.1753" lon="29.06656">
        <ele>1.4</ele>
      </trkpt>
      <trkpt lat="45.17545" lon="29.08009">
        <ele>1</ele>
      </trkpt>
      <trkpt lat="45.1756" lon="29.09065">
        <ele>1.4</ele>
      </trkpt>
      <trkpt lat="45.17476" lon="29.09872">
        <ele>1.2</ele>
      </trkpt>
      <trkpt lat="45.17387" lon="29.11266">
        <ele>1</ele>
      </trkpt>
      <trkpt lat="45.17312" lon="29.12429">
        <ele>1</ele>
      </trkpt>
      <trkpt lat="45.17267" lon="29.13359">
        <ele>3.6</ele>
      </trkpt>
      <trkpt lat="45.17357" lon="29.13803">
        <ele>3.1</ele>
      </trkpt>
      <trkpt lat="45.17774" lon="29.1543">
        <ele>1</ele>
      </trkpt>
      <trkpt lat="45.18102" lon="29.16952">
      </trkpt>
      <trkpt lat="45.18236" lon="29.1786">
      </trkpt>
      <trkpt lat="45.18349" lon="29.19802">
        <ele>2.4</ele>
      </trkpt>
      <trkpt lat="45.1823" lon="29.20647">
        <ele>2</ele>
      </trkpt>
      <trkpt lat="45.17947" lon="29.21746">
        <ele>3.9</ele>
      </trkpt>
      <trkpt lat="45.17843" lon="29.22633">
        <ele>3.2</ele>
      </trkpt>
      <trkpt lat="45.17813" lon="29.24134">
      </trkpt>
      <trkpt lat="45.17768" lon="29.26881">
        <ele>3.6</ele>
      </trkpt>
      <trkpt lat="45.17727" lon="29.28716">
        <ele>1.4</ele>
      </trkpt>
      <trkpt lat="45.17607" lon="29.32414">
        <ele>1.8</ele>
      </trkpt>
      <trkpt lat="45.17596" lon="29.34935">
        <ele>2</ele>
      </trkpt>
      <trkpt lat="45.17462" lon="29.38824">
        <ele>4.9</ele>
      </trkpt>
      <trkpt lat="45.17388" lon="29.4286">
        <ele>1</ele>
      </trkpt>
      <trkpt lat="45.17321" lon="29.4586">
      </trkpt>
      <trkpt lat="45.17247" lon="29.47614">
        <ele>1</ele>
      </trkpt>
      <trkpt lat="45.17217" lon="29.50129">
        <ele>1.4</ele>
      </trkpt>
      <trkpt lat="45.1725" lon="29.50683">
        <ele>1</ele>
      </trkpt>
      <trkpt lat="45.17456" lon="29.51079">
      </trkpt>
      <trkpt lat="45.17672" lon="29.51303">
        <ele>1</ele>
      </trkpt>
      <trkpt lat="45.17924" lon="29.51572">
        <ele>1</ele>
      </trkpt>
      <trkpt lat="45.18114" lon="29.51916">
      </trkpt>
      <trkpt lat="45.18251" lon="29.52394">
        <ele>2.5</ele>
      </trkpt>
      <trkpt lat="45.18356" lon="29.52917">
        <ele>2</ele>
      </trkpt>
      <trkpt lat="45.18404" lon="29.53478">
      </trkpt>
      <trkpt lat="45.18377" lon="29.53993">
      </trkpt>
      <trkpt lat="45.1823" lon="29.54584">
      </trkpt>
      <trkpt lat="45.17988" lon="29.55376">
        <ele>1</ele>
      </trkpt>
      <trkpt lat="45.17577" lon="29.5631">
        <ele>1</ele>
      </trkpt>
      <trkpt lat="45.17292" lon="29.56863">
      </trkpt>
      <trkpt lat="45.17066" lon="29.57266">
      </trkpt>
      <trkpt lat="45.16824" lon="29.57804">
        <ele>2</ele>
      </trkpt>
      <trkpt lat="45.16692" lon="29.58402">
      </trkpt>
      <trkpt lat="45.16602" lon="29.59007">
      </trkpt>
      <trkpt lat="45.16465" lon="29.59425">
      </trkpt>
      <trkpt lat="45.16297" lon="29.60008">
      </trkpt>
      <trkpt lat="45.16112" lon="29.60599">
        <ele>2</ele>
      </trkpt>
      <trkpt lat="45.1597" lon="29.61159">
      </trkpt>
      <trkpt lat="45.15928" lon="29.61503">
        <ele>1.2</ele>
      </trkpt>
      <trkpt lat="45.1596" lon="29.61981">
        <ele>2</ele>
      </trkpt>
      <trkpt lat="45.16007" lon="29.62526">
        <ele>1.7</ele>
      </trkpt>
      <trkpt lat="45.15981" lon="29.63012">
        <ele>1.1</ele>
      </trkpt>
      <trkpt lat="45.1587" lon="29.6361">
        <ele>1</ele>
      </trkpt>
      <trkpt lat="45.15759" lon="29.64469">
        <ele>1</ele>
      </trkpt>
      <trkpt lat="45.15728" lon="29.64878">
        <ele>1.1</ele>
      </trkpt>
      <trkpt lat="45.15691" lon="29.65364">
        <ele>1.2</ele>
      </trkpt>
      <trkpt lat="45.15691" lon="29.65962">
        <ele>2</ele>
      </trkpt>
      <trkpt lat="45.15722" lon="29.66522">
        <ele>1</ele>
      </trkpt>
      <trkpt lat="45.15812" lon="29.6712">
      </trkpt>
      <trkpt lat="45.15969" lon="29.67698">
        <ele>1</ele>
      </trkpt>
      <trkpt lat="45.1609" lon="29.68213">
        <ele>1</ele>
      </trkpt>
      <trkpt lat="45.16185" lon="29.68617">
      </trkpt>
      <trkpt lat="45.16343" lon="29.69357">
        <ele>1</ele>
      </trkpt>
      <trkpt lat="45.16422" lon="29.69783">
      </trkpt>
      <trkpt lat="45.16517" lon="29.70156">
      </trkpt>
      <trkpt lat="45.16583" lon="29.70701">
      </trkpt>
      <trkpt lat="45.16583" lon="29.71239">
        <ele>1</ele>
      </trkpt>
      <trkpt lat="45.16536" lon="29.71688">
      </trkpt>
      <trkpt lat="45.16393" lon="29.7251">
      </trkpt>
      <trkpt lat="45.16193" lon="29.73063">
      </trkpt>
      <trkpt lat="45.15844" lon="29.73884">
      </trkpt>
      <trkpt lat="45.15364" lon="29.74975">
      </trkpt>
      <trkpt lat="45.14864" lon="29.76095">
      </trkpt>
      <trkpt lat="45.14584" lon="29.7679">
      </trkpt>
      <trkpt lat="45.15318" lon="29.75175">
      </trkpt>
      <trkpt lat="45.15928" lon="29.738">
      </trkpt>
      <trkpt lat="45.16251" lon="29.73059">
      </trkpt>
      <trkpt lat="45.16364" lon="29.7276">
      </trkpt>
      <trkpt lat="45.16548" lon="29.72026">
      </trkpt>
      <trkpt lat="45.16589" lon="29.7174">
      </trkpt>
      <trkpt lat="45.16619" lon="29.71063">
      </trkpt>
      <trkpt lat="45.16613" lon="29.70585">
      </trkpt>
      <trkpt lat="45.16524" lon="29.70003">
      </trkpt>
      <trkpt lat="45.16432" lon="29.69644">
        <ele>1</ele>
      </trkpt>
      <trkpt lat="45.16085" lon="29.67969">
        <ele>1</ele>
      </trkpt>
      <trkpt lat="45.15938" lon="29.67441">
      </trkpt>
      <trkpt lat="45.15826" lon="29.67016">
      </trkpt>
      <trkpt lat="45.15786" lon="29.66699">
        <ele>1</ele>
      </trkpt>
      <trkpt lat="45.15733" lon="29.65724">
        <ele>1.3</ele>
      </trkpt>
      <trkpt lat="45.15761" lon="29.6498">
        <ele>1</ele>
      </trkpt>
      <trkpt lat="45.15817" lon="29.6423">
        <ele>1</ele>
      </trkpt>
      <trkpt lat="45.15919" lon="29.63573">
        <ele>1</ele>
      </trkpt>
      <trkpt lat="45.15979" lon="29.63182">
        <ele>1</ele>
      </trkpt>
      <trkpt lat="45.16047" lon="29.627">
        <ele>3</ele>
      </trkpt>
      <trkpt lat="45.15955" lon="29.61556">
        <ele>1.5</ele>
      </trkpt>
      <trkpt lat="45.16025" lon="29.61081">
        <ele>3</ele>
      </trkpt>
      <trkpt lat="45.16265" lon="29.60249">
        <ele>1</ele>
      </trkpt>
      <trkpt lat="45.16624" lon="29.59084">
        <ele>1</ele>
      </trkpt>
      <trkpt lat="45.1668" lon="29.58838">
      </trkpt>
      <trkpt lat="45.16716" lon="29.5849">
      </trkpt>
      <trkpt lat="45.16846" lon="29.57838">
        <ele>1</ele>
      </trkpt>
      <trkpt lat="45.17097" lon="29.57325">
        <ele>1</ele>
      </trkpt>
      <trkpt lat="45.178" lon="29.55918">
        <ele>1</ele>
      </trkpt>
      <trkpt lat="45.17971" lon="29.55483">
        <ele>1</ele>
      </trkpt>
      <trkpt lat="45.18016" lon="29.55386">
        <ele>1</ele>
      </trkpt>
      <trkpt lat="45.18052" lon="29.5524">
      </trkpt>
      <trkpt lat="45.18296" lon="29.5443">
      </trkpt>
      <trkpt lat="45.18394" lon="29.54026">
      </trkpt>
      <trkpt lat="45.18427" lon="29.53375">
        <ele>1</ele>
      </trkpt>
      <trkpt lat="45.18373" lon="29.52907">
        <ele>2</ele>
      </trkpt>
      <trkpt lat="45.18242" lon="29.52242">
        <ele>1</ele>
      </trkpt>
      <trkpt lat="45.18132" lon="29.51903">
      </trkpt>
      <trkpt lat="45.17932" lon="29.51538">
        <ele>1</ele>
      </trkpt>
      <trkpt lat="45.17483" lon="29.51032">
      </trkpt>
      <trkpt lat="45.17297" lon="29.50704">
        <ele>1</ele>
      </trkpt>
      <trkpt lat="45.17241" lon="29.50167">
        <ele>1.2</ele>
      </trkpt>
      <trkpt lat="45.17265" lon="29.47705">
        <ele>1</ele>
      </trkpt>
      <trkpt lat="45.17356" lon="29.45533">
        <ele>1.6</ele>
      </trkpt>
      <trkpt lat="45.17419" lon="29.43279">
      </trkpt>
      <trkpt lat="45.17495" lon="29.39959">
      </trkpt>
      <trkpt lat="45.17493" lon="29.38578">
        <ele>3.1</ele>
      </trkpt>
      <trkpt lat="45.17519" lon="29.38013">
        <ele>1.2</ele>
      </trkpt>
      <trkpt lat="45.17542" lon="29.35181">
        <ele>1</ele>
      </trkpt>
      <trkpt lat="45.17561" lon="29.33146">
        <ele>2</ele>
      </trkpt>
      <trkpt lat="45.17618" lon="29.31093">
        <ele>2</ele>
      </trkpt>
      <trkpt lat="45.17684" lon="29.29004">
        <ele>1.1</ele>
      </trkpt>
      <trkpt lat="45.17725" lon="29.27118">
      </trkpt>
      <trkpt lat="45.17762" lon="29.25274">
        <ele>2.6</ele>
      </trkpt>
      <trkpt lat="45.17802" lon="29.23634">
        <ele>2.6</ele>
      </trkpt>
      <trkpt lat="45.17847" lon="29.22123">
      </trkpt>
      <trkpt lat="45.179" lon="29.21813">
        <ele>3.5</ele>
      </trkpt>
      <trkpt lat="45.18202" lon="29.20692">
      </trkpt>
      <trkpt lat="45.18244" lon="29.2041">
        <ele>3.9</ele>
      </trkpt>
      <trkpt lat="45.18299" lon="29.20034">
        <ele>1</ele>
      </trkpt>
      <trkpt lat="45.18309" lon="29.19729">
      </trkpt>
      <trkpt lat="45.18302" lon="29.19281">
        <ele>1</ele>
      </trkpt>
      <trkpt lat="45.1826" lon="29.18501">
      </trkpt>
      <trkpt lat="45.18225" lon="29.17983">
      </trkpt>
      <trkpt lat="45.18162" lon="29.1754">
        <ele>1.5</ele>
      </trkpt>
      <trkpt lat="45.18126" lon="29.17306">
        <ele>1</ele>
      </trkpt>
      <trkpt lat="45.1804" lon="29.16736">
        <ele>1</ele>
      </trkpt>
      <trkpt lat="45.17929" lon="29.16217">
      </trkpt>
      <trkpt lat="45.17777" lon="29.15523">
        <ele>1</ele>
      </trkpt>
      <trkpt lat="45.17611" lon="29.14827">
        <ele>2</ele>
      </trkpt>
      <trkpt lat="45.17503" lon="29.14429">
        <ele>2</ele>
      </trkpt>
      <trkpt lat="45.17363" lon="29.1389">
        <ele>2</ele>
      </trkpt>
      <trkpt lat="45.17258" lon="29.13395">
        <ele>3.2</ele>
      </trkpt>
      <trkpt lat="45.17254" lon="29.13084">
        <ele>1.2</ele>
      </trkpt>
      <trkpt lat="45.17288" lon="29.12565">
        <ele>1.8</ele>
      </trkpt>
      <trkpt lat="45.17402" lon="29.10844">
        <ele>2</ele>
      </trkpt>
      <trkpt lat="45.17443" lon="29.10193">
        <ele>1.7</ele>
      </trkpt>
      <trkpt lat="45.1748" lon="29.09662">
        <ele>1</ele>
      </trkpt>
      <trkpt lat="45.17543" lon="29.09072">
        <ele>1.8</ele>
      </trkpt>
      <trkpt lat="45.17536" lon="29.08327">
        <ele>1</ele>
      </trkpt>
      <trkpt lat="45.17498" lon="29.06617">
        <ele>1.1</ele>
      </trkpt>
      <trkpt lat="45.17397" lon="29.0481">
      </trkpt>
      <trkpt lat="45.17364" lon="29.04419">
        <ele>2</ele>
      </trkpt>
      <trkpt lat="45.17123" lon="29.02149">
        <ele>1</ele>
      </trkpt>
      <trkpt lat="45.17108" lon="29.01668">
      </trkpt>
      <trkpt lat="45.1723" lon="29.00757">
      </trkpt>
      <trkpt lat="45.17361" lon="29.00311">
        <ele>2</ele>
      </trkpt>
      <trkpt lat="45.17618" lon="28.9972">
        <ele>2.7</ele>
      </trkpt>
      <trkpt lat="45.18175" lon="28.98907">
        <ele>1</ele>
      </trkpt>
      <trkpt lat="45.1879" lon="28.98034">
      </trkpt>
      <trkpt lat="45.19244" lon="28.97273">
        <ele>1</ele>
      </trkpt>
      <trkpt lat="45.19351" lon="28.96217">
        <ele>1</ele>
      </trkpt>
      <trkpt lat="45.19344" lon="28.94822">
        <ele>3.2</ele>
      </trkpt>
      <trkpt lat="45.19213" lon="28.93861">
        <ele>2.5</ele>
      </trkpt>
      <trkpt lat="45.19041" lon="28.93212">
        <ele>2.5</ele>
      </trkpt>
      <trkpt lat="45.18978" lon="28.92462">
        <ele>3.9</ele>
      </trkpt>
      <trkpt lat="45.18986" lon="28.91268">
        <ele>4.1</ele>
      </trkpt>
      <trkpt lat="45.18672" lon="28.89478">
        <ele>4.1</ele>
      </trkpt>
      <trkpt lat="45.18653" lon="28.89002">
        <ele>1</ele>
      </trkpt>
      <trkpt lat="45.19004" lon="28.88212">
        <ele>1</ele>
      </trkpt>
      <trkpt lat="45.19476" lon="28.87346">
        <ele>1.7</ele>
      </trkpt>
      <trkpt lat="45.1964" lon="28.87008">
        <ele>3.5</ele>
      </trkpt>
      <trkpt lat="45.19744" lon="28.8676">
        <ele>1.4</ele>
      </trkpt>
      <trkpt lat="45.19829" lon="28.86511">
        <ele>1.1</ele>
      </trkpt>
      <trkpt lat="45.20121" lon="28.85801">
        <ele>1</ele>
      </trkpt>
      <trkpt lat="45.2027" lon="28.83799">
        <ele>1</ele>
      </trkpt>
      <trkpt lat="45.19913" lon="28.82395">
        <ele>1</ele>
      </trkpt>
      <trkpt lat="45.19328" lon="28.81068">
        <ele>1</ele>
      </trkpt>
      <trkpt lat="45.19287" lon="28.81182">
        <ele>1.6</ele>
      </trkpt>
      <trkpt lat="45.19248" lon="28.81257">
        <ele>2.1</ele>
      </trkpt>
      <trkpt lat="45.19248" lon="28.81257">
        <ele>2.1</ele>
      </trkpt>
      <trkpt lat="45.19248" lon="28.81257">
        <ele>2.1</ele>
      </trkpt>
      <trkpt lat="45.19248" lon="28.81257">
        <ele>2.1</ele>
      </trkpt>
      <trkpt lat="45.19248" lon="28.81257">
        <ele>2.1</ele>
      </trkpt>
      <trkpt lat="45.19248" lon="28.81257">
        <ele>2.1</ele>
      </trkpt>
      <trkpt lat="45.19248" lon="28.81257">
        <ele>2.1</ele>
      </trkpt>
      <trkpt lat="45.19248" lon="28.81257">
        <ele>2.1</ele>
      </trkpt>
      <trkpt lat="45.19248" lon="28.81257">
        <ele>2.1</ele>
      </trkpt>
      <trkpt lat="45.19248" lon="28.81257">
        <ele>2.1</ele>
      </trkpt>
      <trkpt lat="45.19248" lon="28.81257">
        <ele>2.1</ele>
      </trkpt>
      <trkpt lat="45.19248" lon="28.81257">
        <ele>2.1</ele>
      </trkpt>
      <trkpt lat="45.19248" lon="28.81257">
        <ele>2.1</ele>
      </trkpt>
      <trkpt lat="45.19248" lon="28.81257">
        <ele>2.1</ele>
      </trkpt>
      <trkpt lat="45.19248" lon="28.81257">
        <ele>2.1</ele>
      </trkpt>
      <trkpt lat="45.19248" lon="28.81257">
        <ele>2.1</ele>
      </trkpt>
      <trkpt lat="45.19248" lon="28.81257">
        <ele>2.1</ele>
      </trkpt>
      <trkpt lat="45.19248" lon="28.81257">
        <ele>2.1</ele>
      </trkpt>
      <trkpt lat="45.19248" lon="28.81257">
        <ele>2.1</ele>
      </trkpt>
      <trkpt lat="45.19248" lon="28.81257">
        <ele>2.1</ele>
      </trkpt>
      <trkpt lat="45.19248" lon="28.81257">
        <ele>2.1</ele>
      </trkpt>
      <trkpt lat="45.19248" lon="28.81257">
        <ele>2.1</ele>
      </trkpt>
      <trkpt lat="45.19248" lon="28.81257">
        <ele>2.1</ele>
      </trkpt>
      <trkpt lat="45.19248" lon="28.81257">
        <ele>2.1</ele>
      </trkpt>
      <trkpt lat="45.19248" lon="28.81257">
        <ele>2.1</ele>
      </trkpt>
      <trkpt lat="45.19248" lon="28.81257">
        <ele>2.1</ele>
      </trkpt>
      <trkpt lat="45.19248" lon="28.81257">
        <ele>2.1</ele>
      </trkpt>
      <trkpt lat="45.19248" lon="28.81257">
        <ele>2.1</ele>
      </trkpt>
      <trkpt lat="45.19248" lon="28.81257">
        <ele>2.1</ele>
      </trkpt>
      <trkpt lat="45.19248" lon="28.81257">
        <ele>2.1</ele>
      </trkpt>
      <trkpt lat="45.19248" lon="28.81257">
        <ele>2.1</ele>
      </trkpt>
      <trkpt lat="45.19248" lon="28.81257">
        <ele>2.1</ele>
      </trkpt>
      <trkpt lat="45.19248" lon="28.81257">
        <ele>2.1</ele>
      </trkpt>
      <trkpt lat="45.19248" lon="28.81257">
        <ele>2.1</ele>
      </trkpt>
      <trkpt lat="45.19231" lon="28.81279">
        <ele>2.6</ele>
      </trkpt>
      <trkpt lat="45.19207" lon="28.81281">
        <ele>2.9</ele>
      </trkpt>
      <trkpt lat="45.19189" lon="28.81307">
        <ele>3.4</ele>
      </trkpt>
      <trkpt lat="45.19153" lon="28.81346">
        <ele>3.9</ele>
      </trkpt>
      <trkpt lat="45.19132" lon="28.81372">
        <ele>3.9</ele>
      </trkpt>
      <trkpt lat="45.19114" lon="28.8139">
        <ele>4.1</ele>
      </trkpt>
      <trkpt lat="45.19077" lon="28.81423">
        <ele>5</ele>
      </trkpt>
      <trkpt lat="45.18983" lon="28.81517">
        <ele>4.6</ele>
      </trkpt>
      <trkpt lat="45.18903" lon="28.81569">
        <ele>2.3</ele>
      </trkpt>
      <trkpt lat="45.18827" lon="28.81628">
        <ele>2.6</ele>
      </trkpt>
      <trkpt lat="45.18804" lon="28.81679">
        <ele>2.8</ele>
      </trkpt>
      <trkpt lat="45.18764" lon="28.81776">
        <ele>3.9</ele>
      </trkpt>
      <trkpt lat="45.18725" lon="28.81814">
        <ele>3.8</ele>
      </trkpt>
      <trkpt lat="45.18685" lon="28.81832">
        <ele>3.2</ele>
      </trkpt>
      <trkpt lat="45.18627" lon="28.81847">
        <ele>2.8</ele>
      </trkpt>
      <trkpt lat="45.18572" lon="28.81836">
        <ele>2.7</ele>
      </trkpt>
      <trkpt lat="45.18511" lon="28.81795">
        <ele>2.3</ele>
      </trkpt>
      <trkpt lat="45.18453" lon="28.81668">
        <ele>4.7</ele>
      </trkpt>
      <trkpt lat="45.18398" lon="28.81549">
        <ele>3.9</ele>
      </trkpt>
      <trkpt lat="45.18335" lon="28.8144">
        <ele>2.8</ele>
      </trkpt>
      <trkpt lat="45.1829" lon="28.8138">
        <ele>4.1</ele>
      </trkpt>
      <trkpt lat="45.18243" lon="28.81369">
        <ele>4.3</ele>
      </trkpt>
      <trkpt lat="45.18172" lon="28.81388">
        <ele>5.3</ele>
      </trkpt>
      <trkpt lat="45.18103" lon="28.81429">
        <ele>3.6</ele>
      </trkpt>
      <trkpt lat="45.18045" lon="28.81466">
        <ele>5.2</ele>
      </trkpt>
      <trkpt lat="45.18011" lon="28.8153">
        <ele>4.3</ele>
      </trkpt>
      <trkpt lat="45.17992" lon="28.81634">
        <ele>4.9</ele>
      </trkpt>
      <trkpt lat="45.17982" lon="28.81683">
        <ele>5.9</ele>
      </trkpt>
      <trkpt lat="45.17929" lon="28.81758">
        <ele>5.5</ele>
      </trkpt>
      <trkpt lat="45.1785" lon="28.81788">
        <ele>6.7</ele>
      </trkpt>
      <trkpt lat="45.17742" lon="28.81769">
        <ele>6.3</ele>
      </trkpt>
      <trkpt lat="45.17695" lon="28.81765">
        <ele>5.7</ele>
      </trkpt>
      <trkpt lat="45.17648" lon="28.81806">
        <ele>3.4</ele>
      </trkpt>
      <trkpt lat="45.17587" lon="28.81866">
        <ele>3.1</ele>
      </trkpt>
      <trkpt lat="45.17542" lon="28.81967">
        <ele>6.6</ele>
      </trkpt>
      <trkpt lat="45.175" lon="28.82019">
        <ele>4.1</ele>
      </trkpt>
      <trkpt lat="45.17442" lon="28.82079">
        <ele>4.3</ele>
      </trkpt>
      <trkpt lat="45.17305" lon="28.82175">
        <ele>5.9</ele>
      </trkpt>
      <trkpt lat="45.17253" lon="28.82164">
        <ele>7.3</ele>
      </trkpt>
      <trkpt lat="45.1716" lon="28.82112">
        <ele>4.8</ele>
      </trkpt>
      <trkpt lat="45.1711" lon="28.82097">
        <ele>3.6</ele>
      </trkpt>
      <trkpt lat="45.17047" lon="28.82116">
        <ele>2.7</ele>
      </trkpt>
      <trkpt lat="45.16963" lon="28.82168">
        <ele>3.3</ele>
      </trkpt>
      <trkpt lat="45.16879" lon="28.82243">
        <ele>4.3</ele>
      </trkpt>
      <trkpt lat="45.16807" lon="28.82265">
        <ele>6.3</ele>
      </trkpt>
      <trkpt lat="45.16728" lon="28.82276">
        <ele>7.3</ele>
      </trkpt>
      <trkpt lat="45.16647" lon="28.82269">
        <ele>5.8</ele>
      </trkpt>
      <trkpt lat="45.16602" lon="28.82157">
        <ele>6.1</ele>
      </trkpt>
      <trkpt lat="45.16584" lon="28.82067">
        <ele>5.2</ele>
      </trkpt>
      <trkpt lat="45.16567" lon="28.81927">
        <ele>6.7</ele>
      </trkpt>
      <trkpt lat="45.16569" lon="28.81748">
        <ele>9.7</ele>
      </trkpt>
      <trkpt lat="45.16562" lon="28.81696">
        <ele>10.5</ele>
      </trkpt>
      <trkpt lat="45.16527" lon="28.81692">
        <ele>10.3</ele>
      </trkpt>
      <trkpt lat="45.1644" lon="28.81681">
        <ele>9.8</ele>
      </trkpt>
      <trkpt lat="45.1628" lon="28.8164">
        <ele>12.4</ele>
      </trkpt>
      <trkpt lat="45.16174" lon="28.81595">
        <ele>10.4</ele>
      </trkpt>
      <trkpt lat="45.16098" lon="28.81565">
        <ele>9</ele>
      </trkpt>
      <trkpt lat="45.16006" lon="28.81584">
        <ele>8.9</ele>
      </trkpt>
      <trkpt lat="45.15874" lon="28.81655">
        <ele>9.4</ele>
      </trkpt>
      <trkpt lat="45.15784" lon="28.81752">
        <ele>10.9</ele>
      </trkpt>
      <trkpt lat="45.15698" lon="28.81915">
        <ele>15.5</ele>
      </trkpt>
      <trkpt lat="45.15661" lon="28.82075">
        <ele>18.6</ele>
      </trkpt>
      <trkpt lat="45.15587" lon="28.82348">
        <ele>25.5</ele>
      </trkpt>
      <trkpt lat="45.15547" lon="28.82438">
        <ele>25.7</ele>
      </trkpt>
      <trkpt lat="45.15473" lon="28.82538">
        <ele>26.1</ele>
      </trkpt>
      <trkpt lat="45.1534" lon="28.82649">
        <ele>28</ele>
      </trkpt>
      <trkpt lat="45.14952" lon="28.8297">
        <ele>35.2</ele>
      </trkpt>
      <trkpt lat="45.14429" lon="28.83406">
        <ele>46</ele>
      </trkpt>
      <trkpt lat="45.14183" lon="28.83618">
        <ele>56.7</ele>
      </trkpt>
      <trkpt lat="45.14074" lon="28.83685">
        <ele>56.5</ele>
      </trkpt>
      <trkpt lat="45.13861" lon="28.8374">
        <ele>57.1</ele>
      </trkpt>
      <trkpt lat="45.13762" lon="28.83766">
        <ele>59.2</ele>
      </trkpt>
      <trkpt lat="45.13656" lon="28.83811">
        <ele>66.6</ele>
      </trkpt>
      <trkpt lat="45.13553" lon="28.83867">
        <ele>72.4</ele>
      </trkpt>
      <trkpt lat="45.13445" lon="28.8395">
        <ele>77.2</ele>
      </trkpt>
      <trkpt lat="45.13314" lon="28.84006">
        <ele>80.9</ele>
      </trkpt>
      <trkpt lat="45.13232" lon="28.84062">
        <ele>84.3</ele>
      </trkpt>
      <trkpt lat="45.13026" lon="28.84121">
        <ele>89.3</ele>
      </trkpt>
      <trkpt lat="45.12819" lon="28.84168">
        <ele>97.5</ele>
      </trkpt>
      <trkpt lat="45.12407" lon="28.8422">
        <ele>111.9</ele>
      </trkpt>
      <trkpt lat="45.12199" lon="28.84212">
        <ele>120.2</ele>
      </trkpt>
      <trkpt lat="45.11979" lon="28.84265">
        <ele>125.4</ele>
      </trkpt>
      <trkpt lat="45.11782" lon="28.84284">
        <ele>131.3</ele>
      </trkpt>
      <trkpt lat="45.11555" lon="28.84392">
        <ele>133.6</ele>
      </trkpt>
      <trkpt lat="45.11481" lon="28.84456">
        <ele>133.7</ele>
      </trkpt>
      <trkpt lat="45.11218" lon="28.84747">
        <ele>132.4</ele>
      </trkpt>
      <trkpt lat="45.10683" lon="28.85344">
        <ele>115.3</ele>
      </trkpt>
      <trkpt lat="45.10298" lon="28.85752">
        <ele>111.6</ele>
      </trkpt>
      <trkpt lat="45.09897" lon="28.86192">
        <ele>112.1</ele>
      </trkpt>
      <trkpt lat="45.09224" lon="28.86913">
        <ele>94.1</ele>
      </trkpt>
      <trkpt lat="45.08293" lon="28.87922">
        <ele>97.6</ele>
      </trkpt>
      <trkpt lat="45.07686" lon="28.88576">
        <ele>93.6</ele>
      </trkpt>
      <trkpt lat="45.07544" lon="28.88654">
        <ele>90.8</ele>
      </trkpt>
      <trkpt lat="45.07452" lon="28.88658">
        <ele>87.7</ele>
      </trkpt>
      <trkpt lat="45.0733" lon="28.88632">
        <ele>81.8</ele>
      </trkpt>
      <trkpt lat="45.07103" lon="28.88598">
        <ele>69.4</ele>
      </trkpt>
      <trkpt lat="45.06758" lon="28.88557">
        <ele>63.1</ele>
      </trkpt>
      <trkpt lat="45.06148" lon="28.8846">
        <ele>60.8</ele>
      </trkpt>
      <trkpt lat="45.0561" lon="28.88385">
        <ele>50.5</ele>
      </trkpt>
      <trkpt lat="45.05066" lon="28.88299">
        <ele>39.1</ele>
      </trkpt>
      <trkpt lat="45.04567" lon="28.8821">
        <ele>30.4</ele>
      </trkpt>
      <trkpt lat="45.03968" lon="28.88139">
        <ele>20.6</ele>
      </trkpt>
      <trkpt lat="45.03696" lon="28.88158">
        <ele>15.9</ele>
      </trkpt>
      <trkpt lat="45.03585" lon="28.88161">
        <ele>11.9</ele>
      </trkpt>
      <trkpt lat="45.03501" lon="28.8815">
        <ele>7.6</ele>
      </trkpt>
      <trkpt lat="45.03421" lon="28.8809">
        <ele>5.1</ele>
      </trkpt>
      <trkpt lat="45.03358" lon="28.87997">
        <ele>5.8</ele>
      </trkpt>
      <trkpt lat="45.03289" lon="28.87956">
        <ele>6.3</ele>
      </trkpt>
      <trkpt lat="45.03229" lon="28.87926">
        <ele>6</ele>
      </trkpt>
      <trkpt lat="45.03144" lon="28.87889">
        <ele>6.1</ele>
      </trkpt>
      <trkpt lat="45.03094" lon="28.87896">
        <ele>6.2</ele>
      </trkpt>
      <trkpt lat="45.02924" lon="28.87969">
        <ele>9.9</ele>
      </trkpt>
      <trkpt lat="45.02743" lon="28.88001">
        <ele>14.3</ele>
      </trkpt>
      <trkpt lat="45.02598" lon="28.88068">
        <ele>17.7</ele>
      </trkpt>
      <trkpt lat="45.02447" lon="28.88158">
        <ele>17.3</ele>
      </trkpt>
      <trkpt lat="45.02384" lon="28.88199">
        <ele>17.3</ele>
      </trkpt>
      <trkpt lat="45.02215" lon="28.88243">
        <ele>18.2</ele>
      </trkpt>
      <trkpt lat="45.01903" lon="28.88288">
        <ele>19.1</ele>
      </trkpt>
      <trkpt lat="45.01381" lon="28.88378">
        <ele>17.9</ele>
      </trkpt>
      <trkpt lat="45.01024" lon="28.88434">
        <ele>18.2</ele>
      </trkpt>
      <trkpt lat="45.00591" lon="28.88512">
        <ele>15.9</ele>
      </trkpt>
      <trkpt lat="45.00287" lon="28.88565">
        <ele>12.9</ele>
      </trkpt>
      <trkpt lat="44.99914" lon="28.88613">
        <ele>12.3</ele>
      </trkpt>
      <trkpt lat="44.99632" lon="28.88666">
        <ele>15</ele>
      </trkpt>
      <trkpt lat="44.99476" lon="28.88643">
        <ele>13.5</ele>
      </trkpt>
      <trkpt lat="44.99101" lon="28.88561">
        <ele>12</ele>
      </trkpt>
      <trkpt lat="44.98785" lon="28.88467">
        <ele>12.9</ele>
      </trkpt>
      <trkpt lat="44.98421" lon="28.884">
        <ele>11.3</ele>
      </trkpt>
      <trkpt lat="44.98128" lon="28.88326">
        <ele>11.1</ele>
      </trkpt>
      <trkpt lat="44.98038" lon="28.88293">
        <ele>10.7</ele>
      </trkpt>
      <trkpt lat="44.97905" lon="28.88306">
        <ele>9.9</ele>
      </trkpt>
      <trkpt lat="44.97783" lon="28.88293">
        <ele>8.4</ele>
      </trkpt>
      <trkpt lat="44.9767" lon="28.88303">
        <ele>6.4</ele>
      </trkpt>
      <trkpt lat="44.97594" lon="28.88251">
        <ele>6.1</ele>
      </trkpt>
      <trkpt lat="44.97528" lon="28.88232">
        <ele>5.3</ele>
      </trkpt>
      <trkpt lat="44.97461" lon="28.88199">
        <ele>4.2</ele>
      </trkpt>
      <trkpt lat="44.97399" lon="28.88023">
        <ele>4.3</ele>
      </trkpt>
      <trkpt lat="44.97226" lon="28.87604">
        <ele>4.1</ele>
      </trkpt>
      <trkpt lat="44.97017" lon="28.87178">
        <ele>6.2</ele>
      </trkpt>
      <trkpt lat="44.96876" lon="28.86875">
        <ele>7.8</ele>
      </trkpt>
      <trkpt lat="44.96406" lon="28.86296">
        <ele>7.9</ele>
      </trkpt>
      <trkpt lat="44.96167" lon="28.86049">
        <ele>8.8</ele>
      </trkpt>
      <trkpt lat="44.95878" lon="28.85773">
        <ele>9.5</ele>
      </trkpt>
      <trkpt lat="44.9564" lon="28.85631">
        <ele>13.7</ele>
      </trkpt>
      <trkpt lat="44.95586" lon="28.85482">
        <ele>18.9</ele>
      </trkpt>
      <trkpt lat="44.95522" lon="28.85207">
        <ele>29</ele>
      </trkpt>
      <trkpt lat="44.955" lon="28.85152">
        <ele>30.4</ele>
      </trkpt>
      <trkpt lat="44.95447" lon="28.85134">
        <ele>31.4</ele>
      </trkpt>
      <trkpt lat="44.9535" lon="28.85139">
        <ele>31.4</ele>
      </trkpt>
      <trkpt lat="44.95228" lon="28.8513">
        <ele>33.5</ele>
      </trkpt>
      <trkpt lat="44.95111" lon="28.85145">
        <ele>34.8</ele>
      </trkpt>
      <trkpt lat="44.95045" lon="28.85148">
        <ele>34.3</ele>
      </trkpt>
      <trkpt lat="44.94937" lon="28.8517">
        <ele>33.9</ele>
      </trkpt>
      <trkpt lat="44.94808" lon="28.85224">
        <ele>32.2</ele>
      </trkpt>
      <trkpt lat="44.94676" lon="28.85274">
        <ele>31.7</ele>
      </trkpt>
      <trkpt lat="44.94576" lon="28.85313">
        <ele>30.5</ele>
      </trkpt>
      <trkpt lat="44.94471" lon="28.85352">
        <ele>30.2</ele>
      </trkpt>
      <trkpt lat="44.94418" lon="28.85369">
        <ele>29</ele>
      </trkpt>
      <trkpt lat="44.94351" lon="28.85379">
        <ele>27.8</ele>
      </trkpt>
      <trkpt lat="44.94314" lon="28.85372">
        <ele>27.4</ele>
      </trkpt>
      <trkpt lat="44.94306" lon="28.85345">
        <ele>27.6</ele>
      </trkpt>
      <trkpt lat="44.94311" lon="28.85263">
        <ele>28</ele>
      </trkpt>
      <trkpt lat="44.94319" lon="28.85153">
        <ele>26.3</ele>
      </trkpt>
      <trkpt lat="44.94342" lon="28.8487">
        <ele>22.2</ele>
      </trkpt>
      <trkpt lat="44.94373" lon="28.84467">
        <ele>19.3</ele>
      </trkpt>
      <trkpt lat="44.94363" lon="28.84445">
        <ele>19.1</ele>
      </trkpt>
      <trkpt lat="44.94337" lon="28.84432">
        <ele>19</ele>
      </trkpt>
      <trkpt lat="44.94198" lon="28.84351">
        <ele>18.2</ele>
      </trkpt>
      <trkpt lat="44.94034" lon="28.8425">
        <ele>16.6</ele>
      </trkpt>
      <trkpt lat="44.93862" lon="28.84152">
        <ele>14.2</ele>
      </trkpt>
      <trkpt lat="44.93681" lon="28.84045">
        <ele>12.6</ele>
      </trkpt>
      <trkpt lat="44.93527" lon="28.8395">
        <ele>12.1</ele>
      </trkpt>
      <trkpt lat="44.9348" lon="28.83941">
        <ele>12.2</ele>
      </trkpt>
      <trkpt lat="44.93355" lon="28.83921">
        <ele>11.5</ele>
      </trkpt>
      <trkpt lat="44.93195" lon="28.83879">
        <ele>10.5</ele>
      </trkpt>
      <trkpt lat="44.93057" lon="28.8386">
        <ele>8.5</ele>
      </trkpt>
      <trkpt lat="44.92967" lon="28.83834">
        <ele>9.4</ele>
      </trkpt>
      <trkpt lat="44.92852" lon="28.83814">
        <ele>8.2</ele>
      </trkpt>
      <trkpt lat="44.92753" lon="28.83792">
        <ele>6.1</ele>
      </trkpt>
      <trkpt lat="44.92659" lon="28.83776">
        <ele>3.7</ele>
      </trkpt>
      <trkpt lat="44.92524" lon="28.83749">
        <ele>6.4</ele>
      </trkpt>
      <trkpt lat="44.91972" lon="28.83642">
        <ele>6.4</ele>
      </trkpt>
      <trkpt lat="44.91571" lon="28.83554">
        <ele>3.6</ele>
      </trkpt>
      <trkpt lat="44.91244" lon="28.8349">
        <ele>1.9</ele>
      </trkpt>
      <trkpt lat="44.90998" lon="28.83327">
        <ele>1</ele>
      </trkpt>
      <trkpt lat="44.90843" lon="28.83223">
        <ele>1</ele>
      </trkpt>
      <trkpt lat="44.90766" lon="28.83156">
        <ele>1</ele>
      </trkpt>
      <trkpt lat="44.90637" lon="28.83063">
        <ele>1.4</ele>
      </trkpt>
      <trkpt lat="44.90252" lon="28.82786">
        <ele>3.6</ele>
      </trkpt>
      <trkpt lat="44.8995" lon="28.8257">
        <ele>3.5</ele>
      </trkpt>
      <trkpt lat="44.89815" lon="28.82466">
        <ele>3.3</ele>
      </trkpt>
      <trkpt lat="44.89791" lon="28.82458">
        <ele>2.5</ele>
      </trkpt>
      <trkpt lat="44.89522" lon="28.82511">
        <ele>1</ele>
      </trkpt>
      <trkpt lat="44.89367" lon="28.82531">
        <ele>1</ele>
      </trkpt>
      <trkpt lat="44.89254" lon="28.82566">
        <ele>1</ele>
      </trkpt>
      <trkpt lat="44.89121" lon="28.826">
        <ele>1.8</ele>
      </trkpt>
      <trkpt lat="44.88985" lon="28.82638">
        <ele>1.2</ele>
      </trkpt>
      <trkpt lat="44.88951" lon="28.82651">
        <ele>2</ele>
      </trkpt>
      <trkpt lat="44.88912" lon="28.82711">
        <ele>2.6</ele>
      </trkpt>
      <trkpt lat="44.88891" lon="28.82741">
        <ele>2.8</ele>
      </trkpt>
      <trkpt lat="44.88858" lon="28.82738">
        <ele>3.8</ele>
      </trkpt>
      <trkpt lat="44.88834" lon="28.82714">
        <ele>5.3</ele>
      </trkpt>
      <trkpt lat="44.88805" lon="28.82698">
        <ele>6.6</ele>
      </trkpt>
      <trkpt lat="44.88771" lon="28.82699">
        <ele>7.4</ele>
      </trkpt>
      <trkpt lat="44.8862" lon="28.82717">
        <ele>15.7</ele>
      </trkpt>
      <trkpt lat="44.88552" lon="28.82726">
        <ele>22.2</ele>
      </trkpt>
      <trkpt lat="44.88525" lon="28.82714">
        <ele>24.7</ele>
      </trkpt>
      <trkpt lat="44.88487" lon="28.82577">
        <ele>25.4</ele>
      </trkpt>
      <trkpt lat="44.88421" lon="28.82375">
        <ele>32.7</ele>
      </trkpt>
      <trkpt lat="44.88402" lon="28.82327">
        <ele>34.4</ele>
      </trkpt>
      <trkpt lat="44.88357" lon="28.82296">
        <ele>39.2</ele>
      </trkpt>
      <trkpt lat="44.88191" lon="28.82207">
        <ele>39.3</ele>
      </trkpt>
      <trkpt lat="44.87995" lon="28.82105">
        <ele>30.5</ele>
      </trkpt>
      <trkpt lat="44.87958" lon="28.82079">
        <ele>27.6</ele>
      </trkpt>
      <trkpt lat="44.87911" lon="28.8198">
        <ele>20.5</ele>
      </trkpt>
      <trkpt lat="44.87905" lon="28.81965">
        <ele>20.3</ele>
      </trkpt>
      <trkpt lat="44.87826" lon="28.82042">
        <ele>26</ele>
      </trkpt>
      <trkpt lat="44.8763" lon="28.82226">
        <ele>40.4</ele>
      </trkpt>
      <trkpt lat="44.87501" lon="28.82343">
        <ele>46.3</ele>
      </trkpt>
      <trkpt lat="44.87451" lon="28.82399">
        <ele>46.6</ele>
      </trkpt>
      <trkpt lat="44.87181" lon="28.82898">
        <ele>53.4</ele>
      </trkpt>
      <trkpt lat="44.86967" lon="28.83314">
        <ele>45.8</ele>
      </trkpt>
      <trkpt lat="44.86914" lon="28.83519">
        <ele>36.2</ele>
      </trkpt>
      <trkpt lat="44.86837" lon="28.83851">
        <ele>27.7</ele>
      </trkpt>
      <trkpt lat="44.86826" lon="28.84189">
        <ele>22.7</ele>
      </trkpt>
      <trkpt lat="44.86803" lon="28.84446">
        <ele>19.2</ele>
      </trkpt>
      <trkpt lat="44.8672" lon="28.84719">
        <ele>16.4</ele>
      </trkpt>
      <trkpt lat="44.86496" lon="28.85405">
        <ele>16.8</ele>
      </trkpt>
      <trkpt lat="44.8633" lon="28.85877">
        <ele>18.2</ele>
      </trkpt>
      <trkpt lat="44.86127" lon="28.86322">
        <ele>19.5</ele>
      </trkpt>
      <trkpt lat="44.85828" lon="28.86781">
        <ele>25.8</ele>
      </trkpt>
      <trkpt lat="44.85529" lon="28.87025">
        <ele>33.7</ele>
      </trkpt>
      <trkpt lat="44.85354" lon="28.87187">
        <ele>40.6</ele>
      </trkpt>
      <trkpt lat="44.85037" lon="28.87474">
        <ele>70</ele>
      </trkpt>
      <trkpt lat="44.84921" lon="28.87551">
        <ele>74.2</ele>
      </trkpt>
      <trkpt lat="44.84814" lon="28.87625">
        <ele>71.3</ele>
      </trkpt>
      <trkpt lat="44.84741" lon="28.87646">
        <ele>70.1</ele>
      </trkpt>
      <trkpt lat="44.8449" lon="28.87747">
        <ele>64.7</ele>
      </trkpt>
      <trkpt lat="44.84146" lon="28.87868">
        <ele>54.6</ele>
      </trkpt>
      <trkpt lat="44.8373" lon="28.88016">
        <ele>47.2</ele>
      </trkpt>
      <trkpt lat="44.83172" lon="28.88227">
        <ele>36.4</ele>
      </trkpt>
      <trkpt lat="44.82591" lon="28.88447">
        <ele>27.6</ele>
      </trkpt>
      <trkpt lat="44.82148" lon="28.88601">
        <ele>22.2</ele>
      </trkpt>
      <trkpt lat="44.81493" lon="28.88856">
        <ele>15.2</ele>
      </trkpt>
      <trkpt lat="44.80685" lon="28.89149">
        <ele>9.2</ele>
      </trkpt>
      <trkpt lat="44.80346" lon="28.89271">
        <ele>8.3</ele>
      </trkpt>
      <trkpt lat="44.80229" lon="28.89345">
        <ele>7.9</ele>
      </trkpt>
      <trkpt lat="44.80051" lon="28.8945">
        <ele>8.6</ele>
      </trkpt>
      <trkpt lat="44.79961" lon="28.89487">
        <ele>8.1</ele>
      </trkpt>
      <trkpt lat="44.79817" lon="28.89543">
        <ele>7.4</ele>
      </trkpt>
      <trkpt lat="44.79735" lon="28.89554">
        <ele>6.8</ele>
      </trkpt>
      <trkpt lat="44.79686" lon="28.89569">
        <ele>6.8</ele>
      </trkpt>
      <trkpt lat="44.7959" lon="28.89543">
        <ele>7</ele>
      </trkpt>
      <trkpt lat="44.79393" lon="28.89447">
        <ele>9</ele>
      </trkpt>
      <trkpt lat="44.79288" lon="28.89373">
        <ele>10.6</ele>
      </trkpt>
      <trkpt lat="44.78939" lon="28.89133">
        <ele>15.5</ele>
      </trkpt>
      <trkpt lat="44.78534" lon="28.8883">
        <ele>22.7</ele>
      </trkpt>
      <trkpt lat="44.7809" lon="28.88521">
        <ele>47.8</ele>
      </trkpt>
      <trkpt lat="44.77512" lon="28.88117">
        <ele>58.7</ele>
      </trkpt>
      <trkpt lat="44.77317" lon="28.87982">
        <ele>56.8</ele>
      </trkpt>
      <trkpt lat="44.77257" lon="28.87947">
        <ele>55.5</ele>
      </trkpt>
      <trkpt lat="44.76903" lon="28.87842">
        <ele>47.4</ele>
      </trkpt>
      <trkpt lat="44.76514" lon="28.87715">
        <ele>35.7</ele>
      </trkpt>
      <trkpt lat="44.76207" lon="28.87634">
        <ele>30.6</ele>
      </trkpt>
      <trkpt lat="44.76067" lon="28.87581">
        <ele>26.8</ele>
      </trkpt>
      <trkpt lat="44.75947" lon="28.87576">
        <ele>24.6</ele>
      </trkpt>
      <trkpt lat="44.75849" lon="28.87573">
        <ele>22.2</ele>
      </trkpt>
      <trkpt lat="44.75823" lon="28.87121">
        <ele>18.7</ele>
      </trkpt>
      <trkpt lat="44.75747" lon="28.86451">
        <ele>23.4</ele>
      </trkpt>
      <trkpt lat="44.75696" lon="28.86052">
        <ele>24.5</ele>
      </trkpt>
      <trkpt lat="44.7568" lon="28.85911">
        <ele>24.2</ele>
      </trkpt>
      <trkpt lat="44.75669" lon="28.85594">
        <ele>26.1</ele>
      </trkpt>
      <trkpt lat="44.7566" lon="28.8511">
        <ele>22.1</ele>
      </trkpt>
      <trkpt lat="44.75648" lon="28.8455">
        <ele>12.4</ele>
      </trkpt>
      <trkpt lat="44.75641" lon="28.8437">
        <ele>9.7</ele>
      </trkpt>
      <trkpt lat="44.7562" lon="28.84146">
        <ele>10.7</ele>
      </trkpt>
      <trkpt lat="44.75612" lon="28.84027">
        <ele>11.5</ele>
      </trkpt>
      <trkpt lat="44.75576" lon="28.83906">
        <ele>11.2</ele>
      </trkpt>
      <trkpt lat="44.75481" lon="28.83686">
        <ele>12.5</ele>
      </trkpt>
      <trkpt lat="44.75314" lon="28.83256">
        <ele>17.4</ele>
      </trkpt>
      <trkpt lat="44.75065" lon="28.82645">
        <ele>18.9</ele>
      </trkpt>
      <trkpt lat="44.74785" lon="28.81915">
        <ele>22</ele>
      </trkpt>
      <trkpt lat="44.74583" lon="28.814">
        <ele>23</ele>
      </trkpt>
      <trkpt lat="44.7434" lon="28.80716">
        <ele>17.1</ele>
      </trkpt>
      <trkpt lat="44.7418" lon="28.80238">
        <ele>15.6</ele>
      </trkpt>
      <trkpt lat="44.73845" lon="28.79248">
        <ele>9.1</ele>
      </trkpt>
      <trkpt lat="44.73578" lon="28.78484">
        <ele>5.6</ele>
      </trkpt>
      <trkpt lat="44.73398" lon="28.77978">
        <ele>3</ele>
      </trkpt>
      <trkpt lat="44.73328" lon="28.77767">
        <ele>3.2</ele>
      </trkpt>
      <trkpt lat="44.73306" lon="28.77669">
        <ele>3</ele>
      </trkpt>
      <trkpt lat="44.73296" lon="28.775">
        <ele>3.6</ele>
      </trkpt>
      <trkpt lat="44.73317" lon="28.77286">
        <ele>5.5</ele>
      </trkpt>
      <trkpt lat="44.73334" lon="28.77149">
        <ele>7.8</ele>
      </trkpt>
      <trkpt lat="44.7334" lon="28.77086">
        <ele>7</ele>
      </trkpt>
      <trkpt lat="44.73347" lon="28.76929">
        <ele>6.9</ele>
      </trkpt>
      <trkpt lat="44.73377" lon="28.76712">
        <ele>7</ele>
      </trkpt>
      <trkpt lat="44.73596" lon="28.75779">
        <ele>6.6</ele>
      </trkpt>
      <trkpt lat="44.74052" lon="28.73793">
        <ele>8</ele>
      </trkpt>
      <trkpt lat="44.74219" lon="28.73079">
        <ele>8.9</ele>
      </trkpt>
      <trkpt lat="44.74237" lon="28.72954">
        <ele>7.9</ele>
      </trkpt>
      <trkpt lat="44.74237" lon="28.72804">
        <ele>6.1</ele>
      </trkpt>
      <trkpt lat="44.74227" lon="28.72657">
        <ele>5.6</ele>
      </trkpt>
      <trkpt lat="44.74231" lon="28.72495">
        <ele>5.8</ele>
      </trkpt>
      <trkpt lat="44.74254" lon="28.72434">
        <ele>6</ele>
      </trkpt>
      <trkpt lat="44.74292" lon="28.72372">
        <ele>6.3</ele>
      </trkpt>
      <trkpt lat="44.74308" lon="28.72312">
        <ele>5.9</ele>
      </trkpt>
      <trkpt lat="44.74334" lon="28.72267">
        <ele>4.6</ele>
      </trkpt>
      <trkpt lat="44.74372" lon="28.72227">
        <ele>4.5</ele>
      </trkpt>
      <trkpt lat="44.74416" lon="28.72145">
        <ele>4.7</ele>
      </trkpt>
      <trkpt lat="44.74459" lon="28.72069">
        <ele>4.3</ele>
      </trkpt>
      <trkpt lat="44.74519" lon="28.71961">
        <ele>5</ele>
      </trkpt>
      <trkpt lat="44.74558" lon="28.71878">
        <ele>4.4</ele>
      </trkpt>
      <trkpt lat="44.74614" lon="28.71816">
        <ele>4.2</ele>
      </trkpt>
      <trkpt lat="44.74735" lon="28.717">
        <ele>4.4</ele>
      </trkpt>
      <trkpt lat="44.74998" lon="28.71434">
        <ele>5.2</ele>
      </trkpt>
      <trkpt lat="44.75472" lon="28.70945">
        <ele>6.9</ele>
      </trkpt>
      <trkpt lat="44.76028" lon="28.70388">
        <ele>7.2</ele>
      </trkpt>
      <trkpt lat="44.76607" lon="28.69788">
        <ele>9.1</ele>
      </trkpt>
      <trkpt lat="44.77049" lon="28.69341">
        <ele>12.7</ele>
      </trkpt>
      <trkpt lat="44.77426" lon="28.68954">
        <ele>13.9</ele>
      </trkpt>
      <trkpt lat="44.7748" lon="28.68931">
        <ele>14</ele>
      </trkpt>
      <trkpt lat="44.77516" lon="28.68931">
        <ele>14.6</ele>
      </trkpt>
      <trkpt lat="44.77531" lon="28.68891">
        <ele>13.8</ele>
      </trkpt>
      <trkpt lat="44.77518" lon="28.68863">
        <ele>12.5</ele>
      </trkpt>
      <trkpt lat="44.77408" lon="28.68863">
        <ele>12.7</ele>
      </trkpt>
      <trkpt lat="44.76782" lon="28.68814">
        <ele>8.4</ele>
      </trkpt>
      <trkpt lat="44.75883" lon="28.68741">
        <ele>19.2</ele>
      </trkpt>
      <trkpt lat="44.75231" lon="28.68685">
        <ele>24.5</ele>
      </trkpt>
      <trkpt lat="44.75038" lon="28.68668">
        <ele>23</ele>
      </trkpt>
      <trkpt lat="44.74793" lon="28.68612">
        <ele>22.5</ele>
      </trkpt>
      <trkpt lat="44.74193" lon="28.68453">
        <ele>15.2</ele>
      </trkpt>
      <trkpt lat="44.7367" lon="28.68315">
        <ele>12</ele>
      </trkpt>
      <trkpt lat="44.73188" lon="28.6819">
        <ele>13</ele>
      </trkpt>
      <trkpt lat="44.72719" lon="28.68062">
        <ele>12.9</ele>
      </trkpt>
      <trkpt lat="44.72521" lon="28.68008">
        <ele>11.6</ele>
      </trkpt>
      <trkpt lat="44.72447" lon="28.67983">
        <ele>9.7</ele>
      </trkpt>
      <trkpt lat="44.72324" lon="28.67963">
        <ele>8</ele>
      </trkpt>
      <trkpt lat="44.72202" lon="28.67932">
        <ele>8.8</ele>
      </trkpt>
      <trkpt lat="44.72103" lon="28.67935">
        <ele>10.3</ele>
      </trkpt>
      <trkpt lat="44.72019" lon="28.67952">
        <ele>9.8</ele>
      </trkpt>
      <trkpt lat="44.7185" lon="28.68045">
        <ele>9.8</ele>
      </trkpt>
      <trkpt lat="44.71703" lon="28.68128">
        <ele>15</ele>
      </trkpt>
      <trkpt lat="44.71543" lon="28.68207">
        <ele>19.3</ele>
      </trkpt>
      <trkpt lat="44.71491" lon="28.6823">
        <ele>19.9</ele>
      </trkpt>
      <trkpt lat="44.71376" lon="28.68224">
        <ele>24.7</ele>
      </trkpt>
      <trkpt lat="44.70974" lon="28.68188">
        <ele>39.4</ele>
      </trkpt>
      <trkpt lat="44.70532" lon="28.68133">
        <ele>57.5</ele>
      </trkpt>
      <trkpt lat="44.7011" lon="28.68098">
        <ele>75.3</ele>
      </trkpt>
      <trkpt lat="44.69679" lon="28.68048">
        <ele>87.9</ele>
      </trkpt>
      <trkpt lat="44.6929" lon="28.68023">
        <ele>92.4</ele>
      </trkpt>
      <trkpt lat="44.68982" lon="28.67977">
        <ele>96.1</ele>
      </trkpt>
      <trkpt lat="44.68917" lon="28.67977">
        <ele>95.6</ele>
      </trkpt>
      <trkpt lat="44.68816" lon="28.68011">
        <ele>94.8</ele>
      </trkpt>
      <trkpt lat="44.68585" lon="28.68105">
        <ele>90.1</ele>
      </trkpt>
      <trkpt lat="44.68245" lon="28.68242">
        <ele>81.3</ele>
      </trkpt>
      <trkpt lat="44.67901" lon="28.68388">
        <ele>75.5</ele>
      </trkpt>
      <trkpt lat="44.67722" lon="28.68462">
        <ele>74.3</ele>
      </trkpt>
      <trkpt lat="44.67607" lon="28.68504">
        <ele>74.4</ele>
      </trkpt>
      <trkpt lat="44.67523" lon="28.68499">
        <ele>75.4</ele>
      </trkpt>
      <trkpt lat="44.67229" lon="28.68425">
        <ele>74.2</ele>
      </trkpt>
      <trkpt lat="44.66945" lon="28.68332">
        <ele>72.6</ele>
      </trkpt>
      <trkpt lat="44.6681" lon="28.68283">
        <ele>73.2</ele>
      </trkpt>
      <trkpt lat="44.66716" lon="28.68259">
        <ele>73.3</ele>
      </trkpt>
      <trkpt lat="44.66581" lon="28.68095">
        <ele>77</ele>
      </trkpt>
      <trkpt lat="44.66415" lon="28.67929">
        <ele>79</ele>
      </trkpt>
      <trkpt lat="44.66276" lon="28.67792">
        <ele>80</ele>
      </trkpt>
      <trkpt lat="44.66167" lon="28.67669">
        <ele>81</ele>
      </trkpt>
      <trkpt lat="44.66047" lon="28.67593">
        <ele>79.9</ele>
      </trkpt>
      <trkpt lat="44.65885" lon="28.67477">
        <ele>79.7</ele>
      </trkpt>
      <trkpt lat="44.65587" lon="28.67273">
        <ele>80</ele>
      </trkpt>
      <trkpt lat="44.65284" lon="28.67066">
        <ele>73.8</ele>
      </trkpt>
      <trkpt lat="44.65271" lon="28.67062">
        <ele>73.5</ele>
      </trkpt>
      <trkpt lat="44.65258" lon="28.67094">
        <ele>73.2</ele>
      </trkpt>
      <trkpt lat="44.65192" lon="28.6722">
        <ele>71.7</ele>
      </trkpt>
      <trkpt lat="44.6513" lon="28.67339">
        <ele>69.7</ele>
      </trkpt>
      <trkpt lat="44.65035" lon="28.67526">
        <ele>66.5</ele>
      </trkpt>
      <trkpt lat="44.64915" lon="28.67755">
        <ele>65.9</ele>
      </trkpt>
      <trkpt lat="44.64836" lon="28.67911">
        <ele>62.2</ele>
      </trkpt>
      <trkpt lat="44.64666" lon="28.68242">
        <ele>58</ele>
      </trkpt>
      <trkpt lat="44.64516" lon="28.68538">
        <ele>53.2</ele>
      </trkpt>
      <trkpt lat="44.6442" lon="28.68719">
        <ele>52</ele>
      </trkpt>
      <trkpt lat="44.6428" lon="28.68994">
        <ele>47.8</ele>
      </trkpt>
      <trkpt lat="44.64186" lon="28.69179">
        <ele>47.3</ele>
      </trkpt>
      <trkpt lat="44.64069" lon="28.69408">
        <ele>44</ele>
      </trkpt>
      <trkpt lat="44.64051" lon="28.69443">
        <ele>44.3</ele>
      </trkpt>
      <trkpt lat="44.64035" lon="28.69479">
        <ele>44.8</ele>
      </trkpt>
      <trkpt lat="44.64025" lon="28.69521">
        <ele>44.8</ele>
      </trkpt>
      <trkpt lat="44.63967" lon="28.69757">
        <ele>41.9</ele>
      </trkpt>
      <trkpt lat="44.63905" lon="28.70006">
        <ele>37.7</ele>
      </trkpt>
      <trkpt lat="44.63832" lon="28.70297">
        <ele>34</ele>
      </trkpt>
      <trkpt lat="44.63727" lon="28.70723">
        <ele>28.4</ele>
      </trkpt>
      <trkpt lat="44.6367" lon="28.70952">
        <ele>25.9</ele>
      </trkpt>
      <trkpt lat="44.63613" lon="28.71185">
        <ele>23.2</ele>
      </trkpt>
      <trkpt lat="44.63497" lon="28.71649">
        <ele>15.2</ele>
      </trkpt>
      <trkpt lat="44.63464" lon="28.71778">
        <ele>15.8</ele>
      </trkpt>
      <trkpt lat="44.63422" lon="28.71959">
        <ele>16</ele>
      </trkpt>
      <trkpt lat="44.63352" lon="28.7223">
        <ele>15.6</ele>
      </trkpt>
      <trkpt lat="44.63241" lon="28.72668">
        <ele>17.7</ele>
      </trkpt>
      <trkpt lat="44.63225" lon="28.72739">
        <ele>17.3</ele>
      </trkpt>
      <trkpt lat="44.63216" lon="28.72776">
        <ele>17.2</ele>
      </trkpt>
      <trkpt lat="44.63204" lon="28.72797">
        <ele>16.9</ele>
      </trkpt>
      <trkpt lat="44.63161" lon="28.72868">
        <ele>15.9</ele>
      </trkpt>
      <trkpt lat="44.63089" lon="28.72985">
        <ele>15.1</ele>
      </trkpt>
      <trkpt lat="44.63005" lon="28.73125">
        <ele>13.6</ele>
      </trkpt>
      <trkpt lat="44.62988" lon="28.73151">
        <ele>13.6</ele>
      </trkpt>
      <trkpt lat="44.62969" lon="28.7318">
        <ele>13.3</ele>
      </trkpt>
      <trkpt lat="44.6295" lon="28.73197">
        <ele>13</ele>
      </trkpt>
      <trkpt lat="44.62909" lon="28.73208">
        <ele>12.4</ele>
      </trkpt>
      <trkpt lat="44.62878" lon="28.73203">
        <ele>12</ele>
      </trkpt>
      <trkpt lat="44.62815" lon="28.73207">
        <ele>11</ele>
      </trkpt>
      <trkpt lat="44.62726" lon="28.73206">
        <ele>9.5</ele>
      </trkpt>
      <trkpt lat="44.62687" lon="28.73209">
        <ele>9.5</ele>
      </trkpt>
      <trkpt lat="44.62641" lon="28.73206">
        <ele>9.7</ele>
      </trkpt>
      <trkpt lat="44.62601" lon="28.73199">
        <ele>9.9</ele>
      </trkpt>
      <trkpt lat="44.62539" lon="28.73146">
        <ele>9.5</ele>
      </trkpt>
      <trkpt lat="44.62403" lon="28.73035">
        <ele>11.4</ele>
      </trkpt>
      <trkpt lat="44.62172" lon="28.7284">
        <ele>13.8</ele>
      </trkpt>
      <trkpt lat="44.62004" lon="28.72715">
        <ele>17.8</ele>
      </trkpt>
      <trkpt lat="44.61914" lon="28.72666">
        <ele>22</ele>
      </trkpt>
      <trkpt lat="44.61726" lon="28.72586">
        <ele>25</ele>
      </trkpt>
      <trkpt lat="44.61463" lon="28.72471">
        <ele>25.4</ele>
      </trkpt>
      <trkpt lat="44.61165" lon="28.72348">
        <ele>27.5</ele>
      </trkpt>
      <trkpt lat="44.60858" lon="28.72205">
        <ele>31.7</ele>
      </trkpt>
      <trkpt lat="44.60524" lon="28.72068">
        <ele>35.9</ele>
      </trkpt>
      <trkpt lat="44.60294" lon="28.71959">
        <ele>40.4</ele>
      </trkpt>
      <trkpt lat="44.60087" lon="28.71881">
        <ele>43.8</ele>
      </trkpt>
      <trkpt lat="44.59876" lon="28.71792">
        <ele>47</ele>
      </trkpt>
      <trkpt lat="44.5967" lon="28.71725">
        <ele>46.3</ele>
      </trkpt>
      <trkpt lat="44.59371" lon="28.71625">
        <ele>41.2</ele>
      </trkpt>
      <trkpt lat="44.59038" lon="28.71493">
        <ele>36</ele>
      </trkpt>
      <trkpt lat="44.58767" lon="28.71403">
        <ele>34.2</ele>
      </trkpt>
      <trkpt lat="44.58344" lon="28.71254">
        <ele>32</ele>
      </trkpt>
      <trkpt lat="44.57982" lon="28.71125">
        <ele>28</ele>
      </trkpt>
      <trkpt lat="44.57782" lon="28.71056">
        <ele>27.9</ele>
      </trkpt>
      <trkpt lat="44.57685" lon="28.71018">
        <ele>27.8</ele>
      </trkpt>
      <trkpt lat="44.57441" lon="28.70891">
        <ele>24.8</ele>
      </trkpt>
      <trkpt lat="44.57194" lon="28.70767">
        <ele>22.1</ele>
      </trkpt>
      <trkpt lat="44.56944" lon="28.70588">
        <ele>23.7</ele>
      </trkpt>
      <trkpt lat="44.56768" lon="28.70501">
        <ele>23.8</ele>
      </trkpt>
      <trkpt lat="44.56603" lon="28.70399">
        <ele>25.7</ele>
      </trkpt>
      <trkpt lat="44.56442" lon="28.70311">
        <ele>28.5</ele>
      </trkpt>
      <trkpt lat="44.56217" lon="28.70174">
        <ele>29.5</ele>
      </trkpt>
      <trkpt lat="44.55875" lon="28.69984">
        <ele>24.6</ele>
      </trkpt>
      <trkpt lat="44.55548" lon="28.69801">
        <ele>16.7</ele>
      </trkpt>
      <trkpt lat="44.55246" lon="28.69607">
        <ele>12.6</ele>
      </trkpt>
      <trkpt lat="44.54792" lon="28.69374">
        <ele>7.5</ele>
      </trkpt>
      <trkpt lat="44.54411" lon="28.69152">
        <ele>5.2</ele>
      </trkpt>
      <trkpt lat="44.53717" lon="28.68755">
        <ele>2.5</ele>
      </trkpt>
      <trkpt lat="44.53375" lon="28.68549">
        <ele>2.4</ele>
      </trkpt>
      <trkpt lat="44.53211" lon="28.6848">
        <ele>3.2</ele>
      </trkpt>
      <trkpt lat="44.52883" lon="28.68392">
        <ele>2.5</ele>
      </trkpt>
      <trkpt lat="44.51836" lon="28.68084">
        <ele>11</ele>
      </trkpt>
      <trkpt lat="44.51343" lon="28.67956">
        <ele>22.3</ele>
      </trkpt>
      <trkpt lat="44.51118" lon="28.67878">
        <ele>25.9</ele>
      </trkpt>
      <trkpt lat="44.51083" lon="28.67878">
        <ele>26.5</ele>
      </trkpt>
      <trkpt lat="44.50936" lon="28.67574">
        <ele>30</ele>
      </trkpt>
      <trkpt lat="44.50312" lon="28.66347">
        <ele>43.3</ele>
      </trkpt>
      <trkpt lat="44.50197" lon="28.66219">
        <ele>41.6</ele>
      </trkpt>
      <trkpt lat="44.49677" lon="28.65818">
        <ele>37.2</ele>
      </trkpt>
      <trkpt lat="44.49231" lon="28.65442">
        <ele>59.6</ele>
      </trkpt>
      <trkpt lat="44.48993" lon="28.65236">
        <ele>55.7</ele>
      </trkpt>
      <trkpt lat="44.4898" lon="28.65047">
        <ele>50.9</ele>
      </trkpt>
      <trkpt lat="44.48997" lon="28.64491">
        <ele>52</ele>
      </trkpt>
      <trkpt lat="44.48719" lon="28.64512">
        <ele>46.5</ele>
      </trkpt>
      <trkpt lat="44.4872" lon="28.64435">
        <ele>46.9</ele>
      </trkpt>
      <trkpt lat="44.48622" lon="28.64456">
        <ele>45.2</ele>
      </trkpt>
      <trkpt lat="44.48546" lon="28.64535">
        <ele>44.5</ele>
      </trkpt>
      <trkpt lat="44.48399" lon="28.64572">
        <ele>47.8</ele>
      </trkpt>
      <trkpt lat="44.47949" lon="28.64832">
        <ele>71.1</ele>
      </trkpt>
      <trkpt lat="44.4738" lon="28.65083">
        <ele>94.2</ele>
      </trkpt>
      <trkpt lat="44.47061" lon="28.65184">
        <ele>103.3</ele>
      </trkpt>
      <trkpt lat="44.46407" lon="28.65422">
        <ele>109.8</ele>
      </trkpt>
      <trkpt lat="44.46297" lon="28.65486">
        <ele>108.2</ele>
      </trkpt>
      <trkpt lat="44.46074" lon="28.65486">
        <ele>104.8</ele>
      </trkpt>
      <trkpt lat="44.45378" lon="28.65607">
        <ele>80.9</ele>
      </trkpt>
      <trkpt lat="44.44883" lon="28.65661">
        <ele>67</ele>
      </trkpt>
      <trkpt lat="44.44179" lon="28.6573">
        <ele>57.9</ele>
      </trkpt>
      <trkpt lat="44.43599" lon="28.65812">
        <ele>47.7</ele>
      </trkpt>
      <trkpt lat="44.42761" lon="28.65922">
        <ele>36.3</ele>
      </trkpt>
      <trkpt lat="44.42289" lon="28.66025">
        <ele>25.5</ele>
      </trkpt>
      <trkpt lat="44.42002" lon="28.66104">
        <ele>22</ele>
      </trkpt>
      <trkpt lat="44.41885" lon="28.66078">
        <ele>20.5</ele>
      </trkpt>
      <trkpt lat="44.41553" lon="28.66115">
        <ele>19.9</ele>
      </trkpt>
      <trkpt lat="44.41065" lon="28.66153">
        <ele>18.7</ele>
      </trkpt>
      <trkpt lat="44.4076" lon="28.66193">
        <ele>19.3</ele>
      </trkpt>
      <trkpt lat="44.40613" lon="28.66182">
        <ele>21.2</ele>
      </trkpt>
      <trkpt lat="44.4053" lon="28.66145">
        <ele>20.7</ele>
      </trkpt>
      <trkpt lat="44.40447" lon="28.66161">
        <ele>19.6</ele>
      </trkpt>
      <trkpt lat="44.40288" lon="28.66166">
        <ele>18.9</ele>
      </trkpt>
      <trkpt lat="44.39863" lon="28.66183">
        <ele>16.8</ele>
      </trkpt>
      <trkpt lat="44.39532" lon="28.66189">
        <ele>12.9</ele>
      </trkpt>
      <trkpt lat="44.39036" lon="28.66216">
        <ele>10</ele>
      </trkpt>
      <trkpt lat="44.38444" lon="28.66235">
        <ele>8.1</ele>
      </trkpt>
      <trkpt lat="44.38192" lon="28.66237">
        <ele>6.7</ele>
      </trkpt>
      <trkpt lat="44.38041" lon="28.66242">
        <ele>4.9</ele>
      </trkpt>
      <trkpt lat="44.37951" lon="28.66258">
        <ele>5.7</ele>
      </trkpt>
      <trkpt lat="44.37826" lon="28.66327">
        <ele>6.9</ele>
      </trkpt>
      <trkpt lat="44.37663" lon="28.66371">
        <ele>6.4</ele>
      </trkpt>
      <trkpt lat="44.37493" lon="28.66387">
        <ele>4.9</ele>
      </trkpt>
      <trkpt lat="44.37357" lon="28.66472">
        <ele>4.7</ele>
      </trkpt>
      <trkpt lat="44.36615" lon="28.67192">
        <ele>5.6</ele>
      </trkpt>
      <trkpt lat="44.36503" lon="28.67276">
        <ele>3.8</ele>
      </trkpt>
      <trkpt lat="44.36128" lon="28.67536">
        <ele>2.6</ele>
      </trkpt>
      <trkpt lat="44.35991" lon="28.67628">
        <ele>2.6</ele>
      </trkpt>
      <trkpt lat="44.3567" lon="28.67509">
        <ele>1.2</ele>
      </trkpt>
      <trkpt lat="44.35578" lon="28.67415">
        <ele>1.1</ele>
      </trkpt>
      <trkpt lat="44.35519" lon="28.67324">
        <ele>3</ele>
      </trkpt>
      <trkpt lat="44.35392" lon="28.66368">
        <ele>1</ele>
      </trkpt>
      <trkpt lat="44.35386" lon="28.6607">
        <ele>1.9</ele>
      </trkpt>
      <trkpt lat="44.35349" lon="28.65641">
        <ele>1</ele>
      </trkpt>
      <trkpt lat="44.35314" lon="28.65495">
        <ele>3.7</ele>
      </trkpt>
      <trkpt lat="44.35245" lon="28.65368">
        <ele>3</ele>
      </trkpt>
      <trkpt lat="44.35162" lon="28.64991">
        <ele>2</ele>
      </trkpt>
      <trkpt lat="44.35151" lon="28.64894">
        <ele>1.9</ele>
      </trkpt>
      <trkpt lat="44.35065" lon="28.64782">
        <ele>1</ele>
      </trkpt>
      <trkpt lat="44.349" lon="28.64628">
        <ele>1.3</ele>
      </trkpt>
      <trkpt lat="44.34745" lon="28.64475">
        <ele>3.3</ele>
      </trkpt>
      <trkpt lat="44.34417" lon="28.64184">
        <ele>2</ele>
      </trkpt>
      <trkpt lat="44.34164" lon="28.63955">
        <ele>1.97</ele>
      </trkpt>
      <trkpt lat="44.3362" lon="28.63453">
        <ele>1.2</ele>
      </trkpt>
      <trkpt lat="44.33234" lon="28.63108">
        <ele>1</ele>
      </trkpt>
      <trkpt lat="44.32917" lon="28.6282">
        <ele>1.5</ele>
      </trkpt>
      <trkpt lat="44.3254" lon="28.62477">
        <ele>3.4</ele>
      </trkpt>
      <trkpt lat="44.32329" lon="28.62274">
        <ele>7.8</ele>
      </trkpt>
      <trkpt lat="44.32247" lon="28.62214">
        <ele>10.3</ele>
      </trkpt>
      <trkpt lat="44.3198" lon="28.62662">
        <ele>4.8</ele>
      </trkpt>
      <trkpt lat="44.31913" lon="28.62752">
        <ele>3</ele>
      </trkpt>
      <trkpt lat="44.31874" lon="28.62787">
        <ele>2.3</ele>
      </trkpt>
      <trkpt lat="44.31751" lon="28.62765">
        <ele>1.8</ele>
      </trkpt>
      <trkpt lat="44.31534" lon="28.62671">
        <ele>1.4</ele>
      </trkpt>
      <trkpt lat="44.31369" lon="28.62619">
        <ele>2.9</ele>
      </trkpt>
      <trkpt lat="44.31123" lon="28.62518">
        <ele>2.9</ele>
      </trkpt>
      <trkpt lat="44.31024" lon="28.62454">
        <ele>2.6</ele>
      </trkpt>
      <trkpt lat="44.3092" lon="28.62353">
        <ele>4</ele>
      </trkpt>
      <trkpt lat="44.3082" lon="28.62225">
        <ele>3.9</ele>
      </trkpt>
      <trkpt lat="44.30681" lon="28.62128">
        <ele>5.4</ele>
      </trkpt>
      <trkpt lat="44.3052" lon="28.62102">
        <ele>4.9</ele>
      </trkpt>
      <trkpt lat="44.30226" lon="28.61993">
        <ele>7</ele>
      </trkpt>
      <trkpt lat="44.29935" lon="28.61948">
        <ele>8.1</ele>
      </trkpt>
      <trkpt lat="44.29663" lon="28.61945">
        <ele>5</ele>
      </trkpt>
      <trkpt lat="44.29484" lon="28.61942">
        <ele>5.9</ele>
      </trkpt>
      <trkpt lat="44.29266" lon="28.61939">
        <ele>2.4</ele>
      </trkpt>
      <trkpt lat="44.29122" lon="28.61916">
        <ele>2.5</ele>
      </trkpt>
      <trkpt lat="44.28986" lon="28.61842">
        <ele>5.5</ele>
      </trkpt>
      <trkpt lat="44.28871" lon="28.61708">
        <ele>4.7</ele>
      </trkpt>
      <trkpt lat="44.28786" lon="28.61625">
        <ele>3.5</ele>
      </trkpt>
      <trkpt lat="44.28641" lon="28.61658">
      </trkpt>
      <trkpt lat="44.28509" lon="28.61736">
        <ele>1.89</ele>
      </trkpt>
      <trkpt lat="44.28397" lon="28.61814">
        <ele>1.8</ele>
      </trkpt>
      <trkpt lat="44.28311" lon="28.61846">
        <ele>2</ele>
      </trkpt>
      <trkpt lat="44.28124" lon="28.61819">
        <ele>1.4</ele>
      </trkpt>
      <trkpt lat="44.27936" lon="28.61745">
        <ele>2</ele>
      </trkpt>
      <trkpt lat="44.27811" lon="28.61727">
        <ele>1.73</ele>
      </trkpt>
      <trkpt lat="44.27633" lon="28.61759">
        <ele>1.1</ele>
      </trkpt>
      <trkpt lat="44.27323" lon="28.61787">
        <ele>1.1</ele>
      </trkpt>
      <trkpt lat="44.27143" lon="28.61732">
        <ele>1.2</ele>
      </trkpt>
      <trkpt lat="44.26993" lon="28.61738">
        <ele>2</ele>
      </trkpt>
      <trkpt lat="44.26794" lon="28.61766">
        <ele>1.1</ele>
      </trkpt>
      <trkpt lat="44.26629" lon="28.61815">
        <ele>1.4</ele>
      </trkpt>
      <trkpt lat="44.26404" lon="28.61829">
        <ele>3.2</ele>
      </trkpt>
      <trkpt lat="44.26224" lon="28.61808">
        <ele>1.9</ele>
      </trkpt>
      <trkpt lat="44.25891" lon="28.61823">
        <ele>1.6</ele>
      </trkpt>
      <trkpt lat="44.25647" lon="28.61865">
        <ele>3.2</ele>
      </trkpt>
      <trkpt lat="44.25407" lon="28.619">
        <ele>2.5</ele>
      </trkpt>
      <trkpt lat="44.24937" lon="28.61947">
        <ele>3.9</ele>
      </trkpt>
      <trkpt lat="44.24702" lon="28.61954">
        <ele>4.2</ele>
      </trkpt>
      <trkpt lat="44.24265" lon="28.62066">
        <ele>1.5</ele>
      </trkpt>
      <trkpt lat="44.23861" lon="28.62177">
        <ele>4.6</ele>
      </trkpt>
      <trkpt lat="44.23689" lon="28.62241">
        <ele>4.4</ele>
      </trkpt>
      <trkpt lat="44.23564" lon="28.62332">
        <ele>4.3</ele>
      </trkpt>
      <trkpt lat="44.23369" lon="28.62422">
        <ele>3.1</ele>
      </trkpt>
      <trkpt lat="44.2321" lon="28.62527">
        <ele>5.4</ele>
      </trkpt>
      <trkpt lat="44.22975" lon="28.62631">
        <ele>2.1</ele>
      </trkpt>
      <trkpt lat="44.22815" lon="28.62673">
        <ele>4.1</ele>
      </trkpt>
      <trkpt lat="44.22635" lon="28.6275">
        <ele>3.6</ele>
      </trkpt>
      <trkpt lat="44.22479" lon="28.62836">
        <ele>3</ele>
      </trkpt>
      <trkpt lat="44.22299" lon="28.62864">
        <ele>4.4</ele>
      </trkpt>
      <trkpt lat="44.22049" lon="28.62955">
        <ele>4.1</ele>
      </trkpt>
      <trkpt lat="44.21944" lon="28.63024">
        <ele>3.5</ele>
      </trkpt>
      <trkpt lat="44.21859" lon="28.63206">
        <ele>3</ele>
      </trkpt>
      <trkpt lat="44.21764" lon="28.63666">
        <ele>7</ele>
      </trkpt>
      <trkpt lat="44.21679" lon="28.63986">
        <ele>1</ele>
      </trkpt>
      <trkpt lat="44.2159" lon="28.64168">
        <ele>1</ele>
      </trkpt>
      <trkpt lat="44.21233" lon="28.64297">
        <ele>5.7</ele>
      </trkpt>
      <trkpt lat="44.20818" lon="28.64338">
        <ele>4.4</ele>
      </trkpt>
      <trkpt lat="44.20573" lon="28.64401">
        <ele>5.1</ele>
      </trkpt>
      <trkpt lat="44.20324" lon="28.64512">
        <ele>7.1</ele>
      </trkpt>
      <trkpt lat="44.19886" lon="28.64727">
        <ele>13.5</ele>
      </trkpt>
      <trkpt lat="44.19396" lon="28.64978">
        <ele>24.6</ele>
      </trkpt>
      <trkpt lat="44.19116" lon="28.65069">
        <ele>26.9</ele>
      </trkpt>
      <trkpt lat="44.18862" lon="28.65086">
        <ele>31.3</ele>
      </trkpt>
      <trkpt lat="44.18602" lon="28.64821">
        <ele>38.2</ele>
      </trkpt>
      <trkpt lat="44.18527" lon="28.64619">
        <ele>42.2</ele>
      </trkpt>
      <trkpt lat="44.18472" lon="28.64549">
        <ele>44.5</ele>
      </trkpt>
      <trkpt lat="44.18392" lon="28.64459">
        <ele>43.7</ele>
      </trkpt>
      <trkpt lat="44.18277" lon="28.64312">
        <ele>44.3</ele>
      </trkpt>
      <trkpt lat="44.18217" lon="28.64187">
        <ele>45.1</ele>
      </trkpt>
      <trkpt lat="44.18122" lon="28.64173">
        <ele>44.8</ele>
      </trkpt>
      <trkpt lat="44.17946" lon="28.6415">
        <ele>41.8</ele>
      </trkpt>
      <trkpt lat="44.17791" lon="28.64129">
        <ele>40.5</ele>
      </trkpt>
      <trkpt lat="44.17711" lon="28.64143">
        <ele>40</ele>
      </trkpt>
      <trkpt lat="44.17626" lon="28.64258">
        <ele>39</ele>
      </trkpt>
      <trkpt lat="44.17496" lon="28.64405">
        <ele>38.2</ele>
      </trkpt>
      <trkpt lat="44.17456" lon="28.64349">
        <ele>39.7</ele>
      </trkpt>
      <trkpt lat="44.17326" lon="28.64161">
        <ele>41.3</ele>
      </trkpt>
      <trkpt lat="44.17261" lon="28.64056">
        <ele>45.2</ele>
      </trkpt>
      <trkpt lat="44.17156" lon="28.63903">
        <ele>43.7</ele>
      </trkpt>
      <trkpt lat="44.17046" lon="28.63777">
        <ele>42</ele>
      </trkpt>
      <trkpt lat="44.17021" lon="28.63694">
        <ele>39.9</ele>
      </trkpt>
      <trkpt lat="44.16962" lon="28.63731">
        <ele>38.9</ele>
      </trkpt>
      <trkpt lat="44.16877" lon="28.6371">
        <ele>36.5</ele>
      </trkpt>
      <trkpt lat="44.16797" lon="28.63619">
        <ele>35.6</ele>
      </trkpt>
      <trkpt lat="44.16747" lon="28.63528">
        <ele>33</ele>
      </trkpt>
      <trkpt lat="44.16553" lon="28.63357">
        <ele>31.6</ele>
      </trkpt>
      <trkpt lat="44.16418" lon="28.63287">
        <ele>29.7</ele>
      </trkpt>
      <trkpt lat="44.16278" lon="28.63217">
        <ele>28.3</ele>
      </trkpt>
      <trkpt lat="44.16075" lon="28.63171">
        <ele>25.9</ele>
      </trkpt>
      <trkpt lat="44.15905" lon="28.6315">
        <ele>25.4</ele>
      </trkpt>
      <trkpt lat="44.15777" lon="28.63151">
        <ele>28.9</ele>
      </trkpt>
      <trkpt lat="44.15707" lon="28.63081">
        <ele>32</ele>
      </trkpt>
      <trkpt lat="44.15572" lon="28.62977">
        <ele>38.3</ele>
      </trkpt>
      <trkpt lat="44.15414" lon="28.62874">
        <ele>44.5</ele>
      </trkpt>
      <trkpt lat="44.15229" lon="28.62784">
        <ele>42.8</ele>
      </trkpt>
      <trkpt lat="44.15039" lon="28.62701">
        <ele>40.8</ele>
      </trkpt>
      <trkpt lat="44.14784" lon="28.62547">
        <ele>36.2</ele>
      </trkpt>
      <trkpt lat="44.14553" lon="28.6246">
        <ele>32.2</ele>
      </trkpt>
      <trkpt lat="44.14276" lon="28.62314">
        <ele>31.8</ele>
      </trkpt>
      <trkpt lat="44.13986" lon="28.62162">
        <ele>33.7</ele>
      </trkpt>
      <trkpt lat="44.1362" lon="28.61995">
        <ele>38.6</ele>
      </trkpt>
      <trkpt lat="44.1319" lon="28.61786">
        <ele>41.1</ele>
      </trkpt>
      <trkpt lat="44.12198" lon="28.61303">
        <ele>30.5</ele>
      </trkpt>
      <trkpt lat="44.11489" lon="28.61068">
        <ele>12.1</ele>
      </trkpt>
      <trkpt lat="44.10947" lon="28.60912">
        <ele>19.7</ele>
      </trkpt>
      <trkpt lat="44.10237" lon="28.60834">
        <ele>15.3</ele>
      </trkpt>
      <trkpt lat="44.09826" lon="28.60834">
        <ele>19.9</ele>
      </trkpt>
      <trkpt lat="44.09191" lon="28.6112">
        <ele>8</ele>
      </trkpt>
      <trkpt lat="44.08723" lon="28.61146">
        <ele>18.9</ele>
      </trkpt>
      <trkpt lat="44.082" lon="28.61771">
        <ele>36.1</ele>
      </trkpt>
      <trkpt lat="44.07602" lon="28.62421">
        <ele>30.9</ele>
      </trkpt>
      <trkpt lat="44.0734" lon="28.62734">
        <ele>29</ele>
      </trkpt>
      <trkpt lat="44.06892" lon="28.62786">
        <ele>17.3</ele>
      </trkpt>
      <trkpt lat="44.06244" lon="28.63088">
        <ele>17</ele>
      </trkpt>
      <trkpt lat="44.05788" lon="28.63247">
        <ele>6.8</ele>
      </trkpt>
      <trkpt lat="44.05788" lon="28.63677">
        <ele>3.2</ele>
      </trkpt>
      <trkpt lat="44.05593" lon="28.6404">
        <ele>1.5</ele>
      </trkpt>
      <trkpt lat="44.05202" lon="28.64311">
        <ele>1.43</ele>
      </trkpt>
      <trkpt lat="44.0421" lon="28.64544">
        <ele>5.7</ele>
      </trkpt>
      <trkpt lat="44.03428" lon="28.64657">
        <ele>17.7</ele>
      </trkpt>
      <trkpt lat="44.03242" lon="28.64653">
        <ele>9.2</ele>
      </trkpt>
      <trkpt lat="44.03063" lon="28.64835">
        <ele>12.6</ele>
      </trkpt>
      <trkpt lat="44.02688" lon="28.64653">
        <ele>9.5</ele>
      </trkpt>
      <trkpt lat="44.02248" lon="28.64495">
        <ele>13.8</ele>
      </trkpt>
      <trkpt lat="44.01884" lon="28.64367">
        <ele>17</ele>
      </trkpt>
      <trkpt lat="44.01444" lon="28.64185">
        <ele>10.3</ele>
      </trkpt>
      <trkpt lat="44.01227" lon="28.64084">
        <ele>7.5</ele>
      </trkpt>
      <trkpt lat="44.01055" lon="28.64016">
        <ele>4.7</ele>
      </trkpt>
      <trkpt lat="44.00826" lon="28.64007">
        <ele>5.3</ele>
      </trkpt>
      <trkpt lat="44.00561" lon="28.63895">
        <ele>3.6</ele>
      </trkpt>
      <trkpt lat="44.00376" lon="28.63758">
        <ele>6.3</ele>
      </trkpt>
      <trkpt lat="44.00085" lon="28.63569">
        <ele>10.4</ele>
      </trkpt>
      <trkpt lat="43.99505" lon="28.63046">
        <ele>22.8</ele>
      </trkpt>
      <trkpt lat="43.98771" lon="28.62454">
        <ele>42.9</ele>
      </trkpt>
      <trkpt lat="43.98431" lon="28.62257">
        <ele>46.7</ele>
      </trkpt>
      <trkpt lat="43.97932" lon="28.6195">
        <ele>43.1</ele>
      </trkpt>
      <trkpt lat="43.96841" lon="28.61324">
        <ele>30.1</ele>
      </trkpt>
      <trkpt lat="43.95803" lon="28.60672">
        <ele>24.9</ele>
      </trkpt>
      <trkpt lat="43.95368" lon="28.60394">
        <ele>29.3</ele>
      </trkpt>
      <trkpt lat="43.94287" lon="28.59747">
        <ele>41.5</ele>
      </trkpt>
      <trkpt lat="43.93487" lon="28.59257">
        <ele>42.8</ele>
      </trkpt>
      <trkpt lat="43.92666" lon="28.58746">
        <ele>29</ele>
      </trkpt>
      <trkpt lat="43.91662" lon="28.58132">
        <ele>19</ele>
      </trkpt>
      <trkpt lat="43.91146" lon="28.57789">
        <ele>23.1</ele>
      </trkpt>
      <trkpt lat="43.9075" lon="28.57343">
        <ele>14</ele>
      </trkpt>
      <trkpt lat="43.90651" lon="28.57163">
        <ele>11.2</ele>
      </trkpt>
      <trkpt lat="43.90249" lon="28.57092">
        <ele>5.7</ele>
      </trkpt>
      <trkpt lat="43.89717" lon="28.57127">
        <ele>17.8</ele>
      </trkpt>
      <trkpt lat="43.89014" lon="28.57264">
        <ele>31.3</ele>
      </trkpt>
      <trkpt lat="43.88586" lon="28.57347">
        <ele>34.8</ele>
      </trkpt>
      <trkpt lat="43.88345" lon="28.57295">
        <ele>34.5</ele>
      </trkpt>
      <trkpt lat="43.87992" lon="28.57373">
        <ele>33.1</ele>
      </trkpt>
      <trkpt lat="43.87202" lon="28.57434">
        <ele>34.6</ele>
      </trkpt>
      <trkpt lat="43.86153" lon="28.57572">
        <ele>36</ele>
      </trkpt>
      <trkpt lat="43.85708" lon="28.57572">
        <ele>31.6</ele>
      </trkpt>
      <trkpt lat="43.85504" lon="28.57615">
        <ele>30</ele>
      </trkpt>
      <trkpt lat="43.85053" lon="28.57577">
        <ele>21.6</ele>
      </trkpt>
      <trkpt lat="43.84434" lon="28.5756">
        <ele>11.6</ele>
      </trkpt>
      <trkpt lat="43.84093" lon="28.5762">
        <ele>10.8</ele>
      </trkpt>
      <trkpt lat="43.83821" lon="28.57611">
        <ele>6.4</ele>
      </trkpt>
      <trkpt lat="43.83443" lon="28.57782">
        <ele>6.3</ele>
      </trkpt>
      <trkpt lat="43.83121" lon="28.57903">
        <ele>6.9</ele>
      </trkpt>
      <trkpt lat="43.82886" lon="28.58057">
        <ele>11.5</ele>
      </trkpt>
      <trkpt lat="43.82494" lon="28.582">
        <ele>12.9</ele>
      </trkpt>
      <trkpt lat="43.82215" lon="28.58278">
        <ele>13.4</ele>
      </trkpt>
      <trkpt lat="43.818" lon="28.58312">
        <ele>13.5</ele>
      </trkpt>
      <trkpt lat="43.81689" lon="28.58303">
        <ele>14.6</ele>
      </trkpt>
      <trkpt lat="43.81695" lon="28.58123">
        <ele>16.7</ele>
      </trkpt>
      <trkpt lat="43.81608" lon="28.57934">
        <ele>17</ele>
      </trkpt>
      <trkpt lat="43.81434" lon="28.57566">
        <ele>18.8</ele>
      </trkpt>
      <trkpt lat="43.81353" lon="28.5738">
        <ele>18.9</ele>
      </trkpt>
      <trkpt lat="43.81282" lon="28.57292">
        <ele>18.7</ele>
      </trkpt>
      <trkpt lat="43.81211" lon="28.57234">
        <ele>18.6</ele>
      </trkpt>
      <trkpt lat="43.81063" lon="28.57178">
        <ele>16.9</ele>
      </trkpt>
      <trkpt lat="43.80976" lon="28.57174">
        <ele>15.5</ele>
      </trkpt>
      <trkpt lat="43.80869" lon="28.57194">
        <ele>13.4</ele>
      </trkpt>
      <trkpt lat="43.80804" lon="28.5722">
        <ele>12.2</ele>
      </trkpt>
      <trkpt lat="43.80773" lon="28.57103">
        <ele>13.4</ele>
      </trkpt>
      <trkpt lat="43.80779" lon="28.56978">
        <ele>13</ele>
      </trkpt>
      <trkpt lat="43.80796" lon="28.56619">
        <ele>13</ele>
      </trkpt>
      <trkpt lat="43.80803" lon="28.56418">
        <ele>14.2</ele>
      </trkpt>
      <trkpt lat="43.80806" lon="28.56272">
        <ele>16.1</ele>
      </trkpt>
      <trkpt lat="43.80796" lon="28.56188">
        <ele>16.6</ele>
      </trkpt>
      <trkpt lat="43.80758" lon="28.5616">
        <ele>15.2</ele>
      </trkpt>
      <trkpt lat="43.80679" lon="28.56108">
        <ele>13.8</ele>
      </trkpt>
      <trkpt lat="43.80579" lon="28.56086">
        <ele>10.6</ele>
      </trkpt>
      <trkpt lat="43.80454" lon="28.56047">
        <ele>3.1</ele>
      </trkpt>
      <trkpt lat="43.80345" lon="28.56013">
      </trkpt>
      <trkpt lat="43.8017" lon="28.55965">
        <ele>11</ele>
      </trkpt>
      <trkpt lat="43.80022" lon="28.55922">
        <ele>5.8</ele>
      </trkpt>
      <trkpt lat="43.7995" lon="28.55917">
        <ele>9</ele>
      </trkpt>
      <trkpt lat="43.79874" lon="28.55919">
        <ele>15.1</ele>
      </trkpt>
      <trkpt lat="43.79775" lon="28.55947">
        <ele>19.8</ele>
      </trkpt>
      <trkpt lat="43.79563" lon="28.56015">
        <ele>21.2</ele>
      </trkpt>
      <trkpt lat="43.79387" lon="28.56079">
        <ele>25.6</ele>
      </trkpt>
      <trkpt lat="43.79321" lon="28.56137">
        <ele>26.8</ele>
      </trkpt>
      <trkpt lat="43.79303" lon="28.56203">
        <ele>24.6</ele>
      </trkpt>
      <trkpt lat="43.79299" lon="28.56287">
        <ele>21.7</ele>
      </trkpt>
      <trkpt lat="43.79319" lon="28.56344">
        <ele>21.3</ele>
      </trkpt>
      <trkpt lat="43.79354" lon="28.5654">
        <ele>17.5</ele>
      </trkpt>
      <trkpt lat="43.79393" lon="28.56735">
        <ele>15.5</ele>
      </trkpt>
      <trkpt lat="43.79459" lon="28.57057">
        <ele>8.8</ele>
      </trkpt>
      <trkpt lat="43.7947" lon="28.57172">
        <ele>9</ele>
      </trkpt>
      <trkpt lat="43.79448" lon="28.57291">
        <ele>6.9</ele>
      </trkpt>
      <trkpt lat="43.79402" lon="28.57442">
        <ele>5.5</ele>
      </trkpt>
      <trkpt lat="43.79373" lon="28.57524">
        <ele>6.4</ele>
      </trkpt>
      <trkpt lat="43.79308" lon="28.57576">
        <ele>5.8</ele>
      </trkpt>
      <trkpt lat="43.79185" lon="28.57694">
        <ele>5.6</ele>
      </trkpt>
      <trkpt lat="43.78897" lon="28.57749">
        <ele>5.8</ele>
      </trkpt>
      <trkpt lat="43.7872" lon="28.57772">
        <ele>5.3</ele>
      </trkpt>
      <trkpt lat="43.78539" lon="28.57795">
        <ele>10.3</ele>
      </trkpt>
      <trkpt lat="43.78287" lon="28.57813">
        <ele>16</ele>
      </trkpt>
      <trkpt lat="43.78107" lon="28.57813">
        <ele>17.7</ele>
      </trkpt>
      <trkpt lat="43.77866" lon="28.57825">
        <ele>20.5</ele>
      </trkpt>
      <trkpt lat="43.77786" lon="28.57825">
        <ele>19.8</ele>
      </trkpt>
      <trkpt lat="43.77706" lon="28.57808">
        <ele>18.5</ele>
      </trkpt>
      <trkpt lat="43.77516" lon="28.57748">
        <ele>15.2</ele>
      </trkpt>
      <trkpt lat="43.77188" lon="28.57628">
        <ele>15.2</ele>
      </trkpt>
      <trkpt lat="43.76814" lon="28.57484">
        <ele>17.3</ele>
      </trkpt>
      <trkpt lat="43.76529" lon="28.57407">
        <ele>18.7</ele>
      </trkpt>
      <trkpt lat="43.76346" lon="28.57369">
        <ele>20.2</ele>
      </trkpt>
      <trkpt lat="43.76126" lon="28.57321">
        <ele>16.1</ele>
      </trkpt>
      <trkpt lat="43.75832" lon="28.57253">
        <ele>9</ele>
      </trkpt>
      <trkpt lat="43.75559" lon="28.57197">
        <ele>3.7</ele>
      </trkpt>
      <trkpt lat="43.75358" lon="28.57149">
        <ele>6.8</ele>
      </trkpt>
      <trkpt lat="43.75231" lon="28.57121">
        <ele>10.6</ele>
      </trkpt>
      <trkpt lat="43.75158" lon="28.5713">
        <ele>12</ele>
      </trkpt>
      <trkpt lat="43.74972" lon="28.57106">
        <ele>13.4</ele>
      </trkpt>
      <trkpt lat="43.74868" lon="28.57091">
        <ele>14.4</ele>
      </trkpt>
      <trkpt lat="43.74776" lon="28.57048">
        <ele>17.4</ele>
      </trkpt>
      <trkpt lat="43.74669" lon="28.56956">
        <ele>20.6</ele>
      </trkpt>
      <trkpt lat="43.74498" lon="28.56753">
        <ele>24.9</ele>
      </trkpt>
      <trkpt lat="43.74322" lon="28.56538">
        <ele>26.7</ele>
      </trkpt>
      <trkpt lat="43.74111" lon="28.56306">
        <ele>27</ele>
      </trkpt>
      <trkpt lat="43.74018" lon="28.56192">
        <ele>28.1</ele>
      </trkpt>
      <trkpt lat="43.73948" lon="28.56087">
        <ele>29.2</ele>
      </trkpt>
      <trkpt lat="43.73794" lon="28.55952">
        <ele>29</ele>
      </trkpt>
      <trkpt lat="43.73675" lon="28.55853">
        <ele>31.4</ele>
      </trkpt>
      <trkpt lat="43.73564" lon="28.55768">
        <ele>29.5</ele>
      </trkpt>
      <trkpt lat="43.73387" lon="28.55651">
        <ele>27.5</ele>
      </trkpt>
      <trkpt lat="43.7313" lon="28.55456">
        <ele>29.1</ele>
      </trkpt>
      <trkpt lat="43.72967" lon="28.55349">
        <ele>30.3</ele>
      </trkpt>
      <trkpt lat="43.72811" lon="28.55244">
        <ele>32</ele>
      </trkpt>
      <trkpt lat="43.72651" lon="28.55146">
        <ele>33.9</ele>
      </trkpt>
      <trkpt lat="43.72402" lon="28.54998">
        <ele>31.8</ele>
      </trkpt>
      <trkpt lat="43.72144" lon="28.54841">
        <ele>25.5</ele>
      </trkpt>
      <trkpt lat="43.71913" lon="28.54717">
        <ele>22.8</ele>
      </trkpt>
      <trkpt lat="43.71659" lon="28.54551">
        <ele>21.6</ele>
      </trkpt>
      <trkpt lat="43.71325" lon="28.54364">
        <ele>28.3</ele>
      </trkpt>
      <trkpt lat="43.71048" lon="28.54207">
        <ele>22.9</ele>
      </trkpt>
      <trkpt lat="43.70783" lon="28.54038">
        <ele>24.3</ele>
      </trkpt>
      <trkpt lat="43.70507" lon="28.53889">
        <ele>29.3</ele>
      </trkpt>
      <trkpt lat="43.7036" lon="28.53791">
        <ele>29.5</ele>
      </trkpt>
      <trkpt lat="43.70032" lon="28.53604">
        <ele>26</ele>
      </trkpt>
      <trkpt lat="43.69856" lon="28.53488">
        <ele>27.7</ele>
      </trkpt>
      <trkpt lat="43.69668" lon="28.53402">
        <ele>30.2</ele>
      </trkpt>
      <trkpt lat="43.69519" lon="28.53354">
        <ele>27.8</ele>
      </trkpt>
      <trkpt lat="43.69212" lon="28.53269">
        <ele>20.5</ele>
      </trkpt>
      <trkpt lat="43.68721" lon="28.53102">
        <ele>5.6</ele>
      </trkpt>
      <trkpt lat="43.68717" lon="28.53104">
        <ele>5.6</ele>
      </trkpt>
      <trkpt lat="43.68714" lon="28.53107">
        <ele>5.5</ele>
      </trkpt>
      <trkpt lat="43.68712" lon="28.53112">
        <ele>5.3</ele>
      </trkpt>
      <trkpt lat="43.68711" lon="28.53118">
        <ele>5.2</ele>
      </trkpt>
      <trkpt lat="43.68677" lon="28.53108">
        <ele>5.2</ele>
      </trkpt>
      <trkpt lat="43.68599" lon="28.53086">
        <ele>6.7</ele>
      </trkpt>
      <trkpt lat="43.68526" lon="28.53065">
        <ele>8.4</ele>
      </trkpt>
      <trkpt lat="43.68383" lon="28.53023">
        <ele>12.9</ele>
      </trkpt>
      <trkpt lat="43.68372" lon="28.5302">
        <ele>13.2</ele>
      </trkpt>
      <trkpt lat="43.68273" lon="28.52991">
        <ele>15</ele>
      </trkpt>
      <trkpt lat="43.6821" lon="28.52973">
        <ele>16.6</ele>
      </trkpt>
      <trkpt lat="43.68114" lon="28.52946">
        <ele>17</ele>
      </trkpt>
      <trkpt lat="43.67923" lon="28.52892">
        <ele>16.6</ele>
      </trkpt>
      <trkpt lat="43.676" lon="28.52802">
        <ele>17.5</ele>
      </trkpt>
      <trkpt lat="43.67535" lon="28.52782">
        <ele>18.2</ele>
      </trkpt>
      <trkpt lat="43.67494" lon="28.5277">
        <ele>18.6</ele>
      </trkpt>
      <trkpt lat="43.67469" lon="28.52761">
        <ele>18.3</ele>
      </trkpt>
      <trkpt lat="43.6745" lon="28.52753">
        <ele>18</ele>
      </trkpt>
      <trkpt lat="43.67427" lon="28.52743">
        <ele>17.4</ele>
      </trkpt>
      <trkpt lat="43.67403" lon="28.52731">
        <ele>17</ele>
      </trkpt>
      <trkpt lat="43.67385" lon="28.52721">
        <ele>16.8</ele>
      </trkpt>
      <trkpt lat="43.67367" lon="28.5271">
        <ele>16.9</ele>
      </trkpt>
      <trkpt lat="43.67349" lon="28.52697">
        <ele>17</ele>
      </trkpt>
      <trkpt lat="43.67335" lon="28.52687">
        <ele>17.3</ele>
      </trkpt>
      <trkpt lat="43.6718" lon="28.52575">
        <ele>12.1</ele>
      </trkpt>
      <trkpt lat="43.67021" lon="28.5246">
        <ele>8.3</ele>
      </trkpt>
      <trkpt lat="43.66964" lon="28.52418">
        <ele>6.6</ele>
      </trkpt>
      <trkpt lat="43.66907" lon="28.52377">
        <ele>5.8</ele>
      </trkpt>
      <trkpt lat="43.66757" lon="28.52268">
        <ele>10.6</ele>
      </trkpt>
      <trkpt lat="43.66605" lon="28.52156">
        <ele>15.6</ele>
      </trkpt>
      <trkpt lat="43.66588" lon="28.52144">
        <ele>16.2</ele>
      </trkpt>
      <trkpt lat="43.6657" lon="28.5213">
        <ele>16.1</ele>
      </trkpt>
      <trkpt lat="43.66542" lon="28.52107">
        <ele>15.9</ele>
      </trkpt>
      <trkpt lat="43.66517" lon="28.52085">
        <ele>16.2</ele>
      </trkpt>
      <trkpt lat="43.66495" lon="28.52065">
        <ele>16</ele>
      </trkpt>
      <trkpt lat="43.66461" lon="28.52032">
        <ele>15.6</ele>
      </trkpt>
      <trkpt lat="43.66432" lon="28.52004">
        <ele>16</ele>
      </trkpt>
      <trkpt lat="43.664" lon="28.5197">
        <ele>16.4</ele>
      </trkpt>
      <trkpt lat="43.66272" lon="28.51829">
        <ele>21.1</ele>
      </trkpt>
      <trkpt lat="43.66121" lon="28.51663">
        <ele>23</ele>
      </trkpt>
      <trkpt lat="43.65954" lon="28.51479">
        <ele>25.6</ele>
      </trkpt>
      <trkpt lat="43.65788" lon="28.51297">
        <ele>27.1</ele>
      </trkpt>
      <trkpt lat="43.6567" lon="28.51167">
        <ele>30</ele>
      </trkpt>
      <trkpt lat="43.65521" lon="28.51001">
        <ele>26.7</ele>
      </trkpt>
      <trkpt lat="43.65298" lon="28.50754">
        <ele>24.4</ele>
      </trkpt>
      <trkpt lat="43.65204" lon="28.50651">
        <ele>26.4</ele>
      </trkpt>
      <trkpt lat="43.65147" lon="28.50587">
        <ele>27.7</ele>
      </trkpt>
      <trkpt lat="43.65053" lon="28.50484">
        <ele>27.1</ele>
      </trkpt>
      <trkpt lat="43.64958" lon="28.50378">
        <ele>28.2</ele>
      </trkpt>
      <trkpt lat="43.64942" lon="28.50362">
        <ele>28.9</ele>
      </trkpt>
      <trkpt lat="43.64926" lon="28.50347">
        <ele>29.5</ele>
      </trkpt>
      <trkpt lat="43.64911" lon="28.50334">
        <ele>30</ele>
      </trkpt>
      <trkpt lat="43.64895" lon="28.50322">
        <ele>30</ele>
      </trkpt>
      <trkpt lat="43.64878" lon="28.50311">
        <ele>30.1</ele>
      </trkpt>
      <trkpt lat="43.64861" lon="28.50304">
        <ele>30.2</ele>
      </trkpt>
      <trkpt lat="43.64845" lon="28.50299">
        <ele>30.4</ele>
      </trkpt>
      <trkpt lat="43.64827" lon="28.50296">
        <ele>30.4</ele>
      </trkpt>
      <trkpt lat="43.64807" lon="28.50296">
        <ele>30.5</ele>
      </trkpt>
      <trkpt lat="43.64792" lon="28.50297">
        <ele>30.4</ele>
      </trkpt>
      <trkpt lat="43.64777" lon="28.50301">
        <ele>30.4</ele>
      </trkpt>
      <trkpt lat="43.6476" lon="28.50306">
        <ele>30.3</ele>
      </trkpt>
      <trkpt lat="43.64744" lon="28.50313">
        <ele>30.1</ele>
      </trkpt>
      <trkpt lat="43.64728" lon="28.50321">
        <ele>29.6</ele>
      </trkpt>
      <trkpt lat="43.64702" lon="28.50339">
        <ele>28.7</ele>
      </trkpt>
      <trkpt lat="43.64579" lon="28.50427">
        <ele>23.7</ele>
      </trkpt>
      <trkpt lat="43.64512" lon="28.50475">
        <ele>22.2</ele>
      </trkpt>
      <trkpt lat="43.64357" lon="28.50583">
        <ele>20.2</ele>
      </trkpt>
      <trkpt lat="43.64292" lon="28.5063">
        <ele>20.9</ele>
      </trkpt>
      <trkpt lat="43.64228" lon="28.50678">
        <ele>21.2</ele>
      </trkpt>
      <trkpt lat="43.64194" lon="28.507">
        <ele>20.1</ele>
      </trkpt>
      <trkpt lat="43.64155" lon="28.50725">
        <ele>18.4</ele>
      </trkpt>
      <trkpt lat="43.64091" lon="28.5076">
        <ele>13.6</ele>
      </trkpt>
      <trkpt lat="43.63998" lon="28.50813">
        <ele>11.3</ele>
      </trkpt>
      <trkpt lat="43.63874" lon="28.50881">
        <ele>16.6</ele>
      </trkpt>
      <trkpt lat="43.63749" lon="28.50948">
        <ele>19.9</ele>
      </trkpt>
      <trkpt lat="43.63698" lon="28.50976">
        <ele>23.1</ele>
      </trkpt>
      <trkpt lat="43.63643" lon="28.51005">
        <ele>24.9</ele>
      </trkpt>
      <trkpt lat="43.63549" lon="28.51053">
        <ele>26.4</ele>
      </trkpt>
      <trkpt lat="43.62897" lon="28.51376">
        <ele>35.9</ele>
      </trkpt>
      <trkpt lat="43.62715" lon="28.51466">
        <ele>41.4</ele>
      </trkpt>
      <trkpt lat="43.62422" lon="28.5161">
        <ele>45</ele>
      </trkpt>
      <trkpt lat="43.62406" lon="28.51618">
        <ele>45.2</ele>
      </trkpt>
      <trkpt lat="43.62373" lon="28.51634">
        <ele>45.8</ele>
      </trkpt>
      <trkpt lat="43.62365" lon="28.51638">
        <ele>46</ele>
      </trkpt>
      <trkpt lat="43.62338" lon="28.51653">
        <ele>46.7</ele>
      </trkpt>
      <trkpt lat="43.62311" lon="28.51667">
        <ele>46.5</ele>
      </trkpt>
      <trkpt lat="43.61866" lon="28.51891">
        <ele>38.4</ele>
      </trkpt>
      <trkpt lat="43.61718" lon="28.51964">
        <ele>37.7</ele>
      </trkpt>
      <trkpt lat="43.61617" lon="28.52016">
        <ele>38.2</ele>
      </trkpt>
      <trkpt lat="43.61464" lon="28.52093">
        <ele>37.4</ele>
      </trkpt>
      <trkpt lat="43.61312" lon="28.52171">
        <ele>37.7</ele>
      </trkpt>
      <trkpt lat="43.61165" lon="28.52244">
        <ele>37.1</ele>
      </trkpt>
      <trkpt lat="43.61014" lon="28.52321">
        <ele>37.4</ele>
      </trkpt>
      <trkpt lat="43.60827" lon="28.52415">
        <ele>37.9</ele>
      </trkpt>
      <trkpt lat="43.60737" lon="28.52461">
        <ele>35.7</ele>
      </trkpt>
      <trkpt lat="43.60645" lon="28.52508">
        <ele>34.1</ele>
      </trkpt>
      <trkpt lat="43.6007" lon="28.52798">
        <ele>28.2</ele>
      </trkpt>
      <trkpt lat="43.5998" lon="28.52843">
        <ele>25.8</ele>
      </trkpt>
      <trkpt lat="43.59889" lon="28.52889">
        <ele>24.2</ele>
      </trkpt>
      <trkpt lat="43.59837" lon="28.52914">
        <ele>23.1</ele>
      </trkpt>
      <trkpt lat="43.59793" lon="28.52933">
        <ele>22.1</ele>
      </trkpt>
      <trkpt lat="43.59754" lon="28.52948">
        <ele>21.5</ele>
      </trkpt>
      <trkpt lat="43.59715" lon="28.52962">
        <ele>20.2</ele>
      </trkpt>
      <trkpt lat="43.59696" lon="28.52968">
        <ele>19.5</ele>
      </trkpt>
      <trkpt lat="43.59652" lon="28.5298">
        <ele>18</ele>
      </trkpt>
      <trkpt lat="43.59627" lon="28.52987">
        <ele>17.4</ele>
      </trkpt>
      <trkpt lat="43.59598" lon="28.52993">
        <ele>16.6</ele>
      </trkpt>
      <trkpt lat="43.5958" lon="28.52997">
        <ele>16.2</ele>
      </trkpt>
      <trkpt lat="43.5956" lon="28.53">
        <ele>16.3</ele>
      </trkpt>
      <trkpt lat="43.5934" lon="28.53027">
        <ele>21.9</ele>
      </trkpt>
      <trkpt lat="43.59236" lon="28.53039">
        <ele>22.3</ele>
      </trkpt>
      <trkpt lat="43.59063" lon="28.53059">
        <ele>16.1</ele>
      </trkpt>
      <trkpt lat="43.58973" lon="28.5307">
        <ele>13</ele>
      </trkpt>
      <trkpt lat="43.58948" lon="28.53072">
        <ele>12.5</ele>
      </trkpt>
      <trkpt lat="43.58894" lon="28.53079">
        <ele>12.2</ele>
      </trkpt>
      <trkpt lat="43.58702" lon="28.53102">
        <ele>14.6</ele>
      </trkpt>
      <trkpt lat="43.5852" lon="28.53122">
        <ele>18.6</ele>
      </trkpt>
      <trkpt lat="43.58239" lon="28.53156">
        <ele>21.6</ele>
      </trkpt>
      <trkpt lat="43.58122" lon="28.53169">
        <ele>24.5</ele>
      </trkpt>
      <trkpt lat="43.58011" lon="28.53182">
        <ele>24.5</ele>
      </trkpt>
      <trkpt lat="43.57792" lon="28.53207">
        <ele>27.3</ele>
      </trkpt>
      <trkpt lat="43.575" lon="28.53243">
        <ele>28.9</ele>
      </trkpt>
      <trkpt lat="43.57238" lon="28.53273">
        <ele>28.3</ele>
      </trkpt>
      <trkpt lat="43.56918" lon="28.53311">
        <ele>30.7</ele>
      </trkpt>
      <trkpt lat="43.56818" lon="28.53323">
        <ele>32</ele>
      </trkpt>
      <trkpt lat="43.56772" lon="28.53329">
        <ele>32.5</ele>
      </trkpt>
      <trkpt lat="43.56749" lon="28.5333">
        <ele>32.8</ele>
      </trkpt>
      <trkpt lat="43.56725" lon="28.53331">
        <ele>33.5</ele>
      </trkpt>
      <trkpt lat="43.56701" lon="28.53331">
        <ele>34.1</ele>
      </trkpt>
      <trkpt lat="43.56671" lon="28.53332">
        <ele>34.9</ele>
      </trkpt>
      <trkpt lat="43.5663" lon="28.5333">
        <ele>35.4</ele>
      </trkpt>
      <trkpt lat="43.56609" lon="28.53329">
        <ele>35.7</ele>
      </trkpt>
      <trkpt lat="43.56586" lon="28.53328">
        <ele>36</ele>
      </trkpt>
      <trkpt lat="43.56549" lon="28.53323">
        <ele>36</ele>
      </trkpt>
      <trkpt lat="43.56515" lon="28.53319">
        <ele>36</ele>
      </trkpt>
      <trkpt lat="43.56453" lon="28.53308">
        <ele>36.2</ele>
      </trkpt>
      <trkpt lat="43.56156" lon="28.53258">
        <ele>37.4</ele>
      </trkpt>
      <trkpt lat="43.55857" lon="28.53207">
        <ele>40</ele>
      </trkpt>
      <trkpt lat="43.55821" lon="28.53201">
        <ele>39.9</ele>
      </trkpt>
      <trkpt lat="43.55786" lon="28.53196">
        <ele>39.4</ele>
      </trkpt>
      <trkpt lat="43.55758" lon="28.53193">
        <ele>38.8</ele>
      </trkpt>
      <trkpt lat="43.55731" lon="28.53191">
        <ele>38.8</ele>
      </trkpt>
      <trkpt lat="43.55698" lon="28.53188">
        <ele>38.9</ele>
      </trkpt>
      <trkpt lat="43.55666" lon="28.53187">
        <ele>39</ele>
      </trkpt>
      <trkpt lat="43.55573" lon="28.53184">
        <ele>39.6</ele>
      </trkpt>
      <trkpt lat="43.55553" lon="28.53184">
        <ele>39.6</ele>
      </trkpt>
      <trkpt lat="43.55527" lon="28.53183">
        <ele>39.6</ele>
      </trkpt>
      <trkpt lat="43.55481" lon="28.53182">
        <ele>39.6</ele>
      </trkpt>
      <trkpt lat="43.55395" lon="28.5318">
        <ele>38.8</ele>
      </trkpt>
      <trkpt lat="43.55309" lon="28.53177">
        <ele>36.8</ele>
      </trkpt>
      <trkpt lat="43.55287" lon="28.53176">
        <ele>37.5</ele>
      </trkpt>
      <trkpt lat="43.55272" lon="28.53172">
        <ele>38</ele>
      </trkpt>
      <trkpt lat="43.55255" lon="28.53166">
        <ele>38.8</ele>
      </trkpt>
      <trkpt lat="43.5524" lon="28.5316">
        <ele>38.9</ele>
      </trkpt>
      <trkpt lat="43.55226" lon="28.53153">
        <ele>38.7</ele>
      </trkpt>
      <trkpt lat="43.55212" lon="28.53145">
        <ele>38.5</ele>
      </trkpt>
      <trkpt lat="43.55199" lon="28.53136">
        <ele>38.2</ele>
      </trkpt>
      <trkpt lat="43.55182" lon="28.53124">
        <ele>37.6</ele>
      </trkpt>
      <trkpt lat="43.55169" lon="28.53113">
        <ele>37.1</ele>
      </trkpt>
      <trkpt lat="43.55157" lon="28.53133">
        <ele>37.8</ele>
      </trkpt>
      <trkpt lat="43.55152" lon="28.53148">
        <ele>38.2</ele>
      </trkpt>
      <trkpt lat="43.5514" lon="28.53157">
        <ele>38.4</ele>
      </trkpt>
      <trkpt lat="43.55131" lon="28.53163">
        <ele>38.5</ele>
      </trkpt>
      <trkpt lat="43.55123" lon="28.53167">
        <ele>38.5</ele>
      </trkpt>
      <trkpt lat="43.55113" lon="28.5317">
        <ele>38.2</ele>
      </trkpt>
      <trkpt lat="43.55102" lon="28.53172">
        <ele>38.1</ele>
      </trkpt>
      <trkpt lat="43.5509" lon="28.53172">
        <ele>37.9</ele>
      </trkpt>
      <trkpt lat="43.55071" lon="28.53173">
        <ele>38</ele>
      </trkpt>
      <trkpt lat="43.55068" lon="28.53172">
        <ele>38</ele>
      </trkpt>
      <trkpt lat="43.55019" lon="28.53171">
        <ele>38.5</ele>
      </trkpt>
      <trkpt lat="43.54968" lon="28.5317">
        <ele>38.5</ele>
      </trkpt>
      <trkpt lat="43.54962" lon="28.5317">
        <ele>38.4</ele>
      </trkpt>
      <trkpt lat="43.54957" lon="28.53169">
        <ele>38.4</ele>
      </trkpt>
      <trkpt lat="43.54922" lon="28.53169">
        <ele>38</ele>
      </trkpt>
      <trkpt lat="43.54831" lon="28.53167">
        <ele>39</ele>
      </trkpt>
      <trkpt lat="43.54816" lon="28.53167">
        <ele>39</ele>
      </trkpt>
      <trkpt lat="43.54621" lon="28.5317">
        <ele>39.9</ele>
      </trkpt>
      <trkpt lat="43.54425" lon="28.53174">
        <ele>35.7</ele>
      </trkpt>
      <trkpt lat="43.54247" lon="28.53177">
        <ele>34.9</ele>
      </trkpt>
      <trkpt lat="43.54234" lon="28.53176">
        <ele>34.9</ele>
      </trkpt>
      <trkpt lat="43.54221" lon="28.53174">
        <ele>34.9</ele>
      </trkpt>
      <trkpt lat="43.54208" lon="28.5317">
        <ele>35</ele>
      </trkpt>
      <trkpt lat="43.54177" lon="28.53162">
        <ele>35</ele>
      </trkpt>
      <trkpt lat="43.54159" lon="28.53157">
        <ele>35</ele>
      </trkpt>
      <trkpt lat="43.54105" lon="28.53143">
        <ele>34.8</ele>
      </trkpt>
      <trkpt lat="43.5408" lon="28.53136">
        <ele>34.5</ele>
      </trkpt>
      <trkpt lat="43.54063" lon="28.53133">
        <ele>33.6</ele>
      </trkpt>
      <trkpt lat="43.5405" lon="28.53132">
        <ele>33</ele>
      </trkpt>
      <trkpt lat="43.54037" lon="28.53131">
        <ele>32.4</ele>
      </trkpt>
      <trkpt lat="43.54018" lon="28.5313">
        <ele>31.4</ele>
      </trkpt>
      <trkpt lat="43.53979" lon="28.5313">
        <ele>30.2</ele>
      </trkpt>
      <trkpt lat="43.53882" lon="28.53128">
        <ele>27.7</ele>
      </trkpt>
      <trkpt lat="43.5382" lon="28.53127">
        <ele>26</ele>
      </trkpt>
      <trkpt lat="43.53809" lon="28.53126">
        <ele>26</ele>
      </trkpt>
      <trkpt lat="43.53756" lon="28.53126">
        <ele>26</ele>
      </trkpt>
      <trkpt lat="43.53656" lon="28.53125">
        <ele>26.4</ele>
      </trkpt>
      <trkpt lat="43.53621" lon="28.53124">
        <ele>25.9</ele>
      </trkpt>
      <trkpt lat="43.53609" lon="28.53121">
        <ele>25.8</ele>
      </trkpt>
      <trkpt lat="43.536" lon="28.53118">
        <ele>25.6</ele>
      </trkpt>
      <trkpt lat="43.53589" lon="28.53112">
        <ele>25.4</ele>
      </trkpt>
      <trkpt lat="43.53578" lon="28.53105">
        <ele>25.2</ele>
      </trkpt>
      <trkpt lat="43.53565" lon="28.53095">
        <ele>24.9</ele>
      </trkpt>
      <trkpt lat="43.53565" lon="28.53103">
        <ele>25</ele>
      </trkpt>
      <trkpt lat="43.53566" lon="28.53112">
        <ele>25.1</ele>
      </trkpt>
      <trkpt lat="43.53568" lon="28.5312">
        <ele>25.2</ele>
      </trkpt>
      <trkpt lat="43.53589" lon="28.53159">
        <ele>26</ele>
      </trkpt>
      <trkpt lat="43.53633" lon="28.53235">
        <ele>27.4</ele>
      </trkpt>
      <trkpt lat="43.53663" lon="28.53287">
        <ele>26.2</ele>
      </trkpt>
      <trkpt lat="43.53696" lon="28.53344">
        <ele>23.7</ele>
      </trkpt>
      <trkpt lat="43.53769" lon="28.5347">
        <ele>23.7</ele>
      </trkpt>
      <trkpt lat="43.53795" lon="28.53516">
        <ele>23.6</ele>
      </trkpt>
      <trkpt lat="43.538" lon="28.53524">
        <ele>23.5</ele>
      </trkpt>
      <trkpt lat="43.53806" lon="28.53533">
        <ele>23.4</ele>
      </trkpt>
      <trkpt lat="43.53815" lon="28.53543">
        <ele>23.4</ele>
      </trkpt>
      <trkpt lat="43.53831" lon="28.5356">
        <ele>23.5</ele>
      </trkpt>
      <trkpt lat="43.53872" lon="28.53605">
        <ele>22.9</ele>
      </trkpt>
      <trkpt lat="43.53918" lon="28.53654">
        <ele>21.6</ele>
      </trkpt>
      <trkpt lat="43.54013" lon="28.53756">
        <ele>19</ele>
      </trkpt>
      <trkpt lat="43.54135" lon="28.53888">
        <ele>18.3</ele>
      </trkpt>
      <trkpt lat="43.54177" lon="28.53933">
        <ele>18.6</ele>
      </trkpt>
      <trkpt lat="43.54203" lon="28.5396">
        <ele>18.7</ele>
      </trkpt>
      <trkpt lat="43.54211" lon="28.5397">
        <ele>18.9</ele>
      </trkpt>
      <trkpt lat="43.54219" lon="28.53979">
        <ele>19.1</ele>
      </trkpt>
      <trkpt lat="43.54225" lon="28.53991">
        <ele>19.4</ele>
      </trkpt>
      <trkpt lat="43.54231" lon="28.54">
        <ele>19.6</ele>
      </trkpt>
      <trkpt lat="43.54236" lon="28.54013">
        <ele>19.8</ele>
      </trkpt>
      <trkpt lat="43.5424" lon="28.54026">
        <ele>19.9</ele>
      </trkpt>
      <trkpt lat="43.54248" lon="28.54056">
        <ele>20.2</ele>
      </trkpt>
      <trkpt lat="43.54276" lon="28.54174">
        <ele>19.4</ele>
      </trkpt>
      <trkpt lat="43.54306" lon="28.543">
        <ele>17.3</ele>
      </trkpt>
      <trkpt lat="43.54336" lon="28.54426">
        <ele>15.4</ele>
      </trkpt>
      <trkpt lat="43.54351" lon="28.54485">
        <ele>11.8</ele>
      </trkpt>
      <trkpt lat="43.54365" lon="28.54545">
        <ele>10.4</ele>
      </trkpt>
      <trkpt lat="43.54381" lon="28.54604">
        <ele>10.8</ele>
      </trkpt>
      <trkpt lat="43.54387" lon="28.54629">
        <ele>12.5</ele>
      </trkpt>
      <trkpt lat="43.54394" lon="28.54654">
        <ele>14.3</ele>
      </trkpt>
      <trkpt lat="43.544" lon="28.54683">
        <ele>15.4</ele>
      </trkpt>
      <trkpt lat="43.54406" lon="28.54715">
        <ele>15.6</ele>
      </trkpt>
      <trkpt lat="43.54411" lon="28.54748">
        <ele>16</ele>
      </trkpt>
      <trkpt lat="43.54414" lon="28.54778">
        <ele>16</ele>
      </trkpt>
      <trkpt lat="43.54415" lon="28.5481">
        <ele>16</ele>
      </trkpt>
      <trkpt lat="43.54414" lon="28.54843">
        <ele>16</ele>
      </trkpt>
      <trkpt lat="43.54413" lon="28.54869">
        <ele>16</ele>
      </trkpt>
      <trkpt lat="43.54406" lon="28.54968">
        <ele>15.8</ele>
      </trkpt>
      <trkpt lat="43.54389" lon="28.55201">
        <ele>12.8</ele>
      </trkpt>
      <trkpt lat="43.54382" lon="28.55295">
        <ele>11.2</ele>
      </trkpt>
      <trkpt lat="43.54354" lon="28.55668">
        <ele>14.2</ele>
      </trkpt>
      <trkpt lat="43.54274" lon="28.56764">
        <ele>25.2</ele>
      </trkpt>
      <trkpt lat="43.54233" lon="28.57325">
        <ele>17.6</ele>
      </trkpt>
      <trkpt lat="43.54176" lon="28.58115">
        <ele>16.4</ele>
      </trkpt>
      <trkpt lat="43.54175" lon="28.58123">
        <ele>16.4</ele>
      </trkpt>
      <trkpt lat="43.54138" lon="28.58622">
        <ele>22.5</ele>
      </trkpt>
      <trkpt lat="43.54131" lon="28.58698">
        <ele>23</ele>
      </trkpt>
      <trkpt lat="43.54114" lon="28.58925">
        <ele>23.8</ele>
      </trkpt>
      <trkpt lat="43.54113" lon="28.58939">
        <ele>24</ele>
      </trkpt>
      <trkpt lat="43.5407" lon="28.59528">
        <ele>16.8</ele>
      </trkpt>
      <trkpt lat="43.54058" lon="28.59707">
        <ele>16.2</ele>
      </trkpt>
      <trkpt lat="43.54028" lon="28.60107">
        <ele>9</ele>
      </trkpt>
      <trkpt lat="43.54025" lon="28.60141">
        <ele>8</ele>
      </trkpt>
      <trkpt lat="43.54022" lon="28.60172">
        <ele>7.2</ele>
      </trkpt>
      <trkpt lat="43.54014" lon="28.60202">
        <ele>7.1</ele>
      </trkpt>
      <trkpt lat="43.54005" lon="28.60226">
        <ele>7</ele>
      </trkpt>
      <trkpt lat="43.53995" lon="28.60249">
        <ele>6.9</ele>
      </trkpt>
      <trkpt lat="43.53984" lon="28.60273">
        <ele>6.6</ele>
      </trkpt>
      <trkpt lat="43.53972" lon="28.60294">
        <ele>6.3</ele>
      </trkpt>
      <trkpt lat="43.53958" lon="28.60313">
        <ele>6.1</ele>
      </trkpt>
      <trkpt lat="43.53944" lon="28.6033">
        <ele>6</ele>
      </trkpt>
      <trkpt lat="43.53929" lon="28.60345">
        <ele>5.8</ele>
      </trkpt>
      <trkpt lat="43.53912" lon="28.6036">
        <ele>5.6</ele>
      </trkpt>
      <trkpt lat="43.53895" lon="28.60371">
        <ele>5.2</ele>
      </trkpt>
      <trkpt lat="43.53878" lon="28.60381">
        <ele>4.7</ele>
      </trkpt>
      <trkpt lat="43.53862" lon="28.60387">
        <ele>4.3</ele>
      </trkpt>
      <trkpt lat="43.53847" lon="28.60391">
        <ele>3.9</ele>
      </trkpt>
      <trkpt lat="43.53829" lon="28.60394">
        <ele>3.5</ele>
      </trkpt>
      <trkpt lat="43.53809" lon="28.60397">
        <ele>3.2</ele>
      </trkpt>
      <trkpt lat="43.53794" lon="28.60398">
        <ele>3.1</ele>
      </trkpt>
      <trkpt lat="43.53778" lon="28.60396">
        <ele>3</ele>
      </trkpt>
      <trkpt lat="43.53749" lon="28.60393">
        <ele>2.9</ele>
      </trkpt>
      <trkpt lat="43.5362" lon="28.60375">
        <ele>6.4</ele>
      </trkpt>
      <trkpt lat="43.53436" lon="28.60349">
        <ele>7.7</ele>
      </trkpt>
      <trkpt lat="43.53403" lon="28.60345">
        <ele>7.9</ele>
      </trkpt>
      <trkpt lat="43.53351" lon="28.60331">
        <ele>8.2</ele>
      </trkpt>
      <trkpt lat="43.53287" lon="28.60299">
        <ele>6.6</ele>
      </trkpt>
      <trkpt lat="43.53088" lon="28.6019">
        <ele>5.2</ele>
      </trkpt>
      <trkpt lat="43.53016" lon="28.6015">
        <ele>5.4</ele>
      </trkpt>
      <trkpt lat="43.52536" lon="28.59886">
        <ele>8.8</ele>
      </trkpt>
      <trkpt lat="43.52497" lon="28.59865">
        <ele>9.2</ele>
      </trkpt>
      <trkpt lat="43.5246" lon="28.59844">
        <ele>9.3</ele>
      </trkpt>
      <trkpt lat="43.52451" lon="28.59839">
        <ele>9.3</ele>
      </trkpt>
      <trkpt lat="43.52269" lon="28.59738">
        <ele>11.4</ele>
      </trkpt>
      <trkpt lat="43.51611" lon="28.59378">
        <ele>14.2</ele>
      </trkpt>
      <trkpt lat="43.51606" lon="28.59375">
        <ele>14.4</ele>
      </trkpt>
      <trkpt lat="43.5152" lon="28.59327">
        <ele>18.6</ele>
      </trkpt>
      <trkpt lat="43.51492" lon="28.59312">
        <ele>19.1</ele>
      </trkpt>
      <trkpt lat="43.51193" lon="28.59148">
        <ele>16.3</ele>
      </trkpt>
      <trkpt lat="43.50892" lon="28.58983">
        <ele>15.3</ele>
      </trkpt>
      <trkpt lat="43.50759" lon="28.5891">
        <ele>13.4</ele>
      </trkpt>
      <trkpt lat="43.50628" lon="28.58839">
        <ele>12.9</ele>
      </trkpt>
      <trkpt lat="43.50527" lon="28.58784">
        <ele>12.8</ele>
      </trkpt>
      <trkpt lat="43.50424" lon="28.58728">
        <ele>13.3</ele>
      </trkpt>
      <trkpt lat="43.50382" lon="28.58705">
        <ele>13.8</ele>
      </trkpt>
      <trkpt lat="43.50284" lon="28.58651">
        <ele>15.6</ele>
      </trkpt>
      <trkpt lat="43.50262" lon="28.58639">
        <ele>15.4</ele>
      </trkpt>
      <trkpt lat="43.50236" lon="28.58625">
        <ele>14.7</ele>
      </trkpt>
      <trkpt lat="43.50214" lon="28.58609">
        <ele>13.9</ele>
      </trkpt>
      <trkpt lat="43.50193" lon="28.5859">
        <ele>13.4</ele>
      </trkpt>
      <trkpt lat="43.50172" lon="28.58569">
        <ele>13.6</ele>
      </trkpt>
      <trkpt lat="43.50157" lon="28.58548">
        <ele>14.5</ele>
      </trkpt>
      <trkpt lat="43.50141" lon="28.58525">
        <ele>15.4</ele>
      </trkpt>
      <trkpt lat="43.50128" lon="28.58501">
        <ele>16</ele>
      </trkpt>
      <trkpt lat="43.50116" lon="28.58477">
        <ele>15.9</ele>
      </trkpt>
      <trkpt lat="43.50105" lon="28.58452">
        <ele>15.7</ele>
      </trkpt>
      <trkpt lat="43.5001" lon="28.58225">
        <ele>22.6</ele>
      </trkpt>
      <trkpt lat="43.49994" lon="28.58188">
        <ele>24.1</ele>
      </trkpt>
      <trkpt lat="43.49929" lon="28.58031">
        <ele>26.3</ele>
      </trkpt>
      <trkpt lat="43.49884" lon="28.57926">
        <ele>27.9</ele>
      </trkpt>
      <trkpt lat="43.49861" lon="28.57872">
        <ele>28.5</ele>
      </trkpt>
      <trkpt lat="43.49849" lon="28.57847">
        <ele>29.2</ele>
      </trkpt>
      <trkpt lat="43.49837" lon="28.57825">
        <ele>30</ele>
      </trkpt>
      <trkpt lat="43.49824" lon="28.57805">
        <ele>30.2</ele>
      </trkpt>
      <trkpt lat="43.49805" lon="28.57784">
        <ele>30.1</ele>
      </trkpt>
      <trkpt lat="43.49795" lon="28.57776">
        <ele>30.1</ele>
      </trkpt>
      <trkpt lat="43.49769" lon="28.57758">
        <ele>30.1</ele>
      </trkpt>
      <trkpt lat="43.49754" lon="28.57749">
        <ele>30</ele>
      </trkpt>
      <trkpt lat="43.49737" lon="28.57743">
        <ele>29.8</ele>
      </trkpt>
      <trkpt lat="43.49717" lon="28.57739">
        <ele>29.6</ele>
      </trkpt>
      <trkpt lat="43.49689" lon="28.5774">
        <ele>29.3</ele>
      </trkpt>
      <trkpt lat="43.49654" lon="28.57743">
        <ele>28.8</ele>
      </trkpt>
      <trkpt lat="43.49605" lon="28.57746">
        <ele>28.2</ele>
      </trkpt>
      <trkpt lat="43.49564" lon="28.5775">
        <ele>28</ele>
      </trkpt>
      <trkpt lat="43.49538" lon="28.57753">
        <ele>27.9</ele>
      </trkpt>
      <trkpt lat="43.49524" lon="28.57755">
        <ele>27.8</ele>
      </trkpt>
      <trkpt lat="43.49481" lon="28.57759">
        <ele>27.4</ele>
      </trkpt>
      <trkpt lat="43.49414" lon="28.57765">
        <ele>26.6</ele>
      </trkpt>
      <trkpt lat="43.49401" lon="28.57767">
        <ele>26.3</ele>
      </trkpt>
      <trkpt lat="43.49387" lon="28.57771">
        <ele>26</ele>
      </trkpt>
      <trkpt lat="43.49347" lon="28.57785">
        <ele>25.2</ele>
      </trkpt>
      <trkpt lat="43.49326" lon="28.57792">
        <ele>24.9</ele>
      </trkpt>
      <trkpt lat="43.49309" lon="28.57797">
        <ele>24.5</ele>
      </trkpt>
      <trkpt lat="43.49292" lon="28.57801">
        <ele>24.2</ele>
      </trkpt>
      <trkpt lat="43.49272" lon="28.57804">
        <ele>23.8</ele>
      </trkpt>
      <trkpt lat="43.49254" lon="28.57805">
        <ele>23.4</ele>
      </trkpt>
      <trkpt lat="43.49235" lon="28.57806">
        <ele>22.9</ele>
      </trkpt>
      <trkpt lat="43.49161" lon="28.5781">
        <ele>21</ele>
      </trkpt>
      <trkpt lat="43.49127" lon="28.57811">
        <ele>20.8</ele>
      </trkpt>
      <trkpt lat="43.49074" lon="28.57814">
        <ele>20.5</ele>
      </trkpt>
      <trkpt lat="43.4904" lon="28.57816">
        <ele>20.4</ele>
      </trkpt>
      <trkpt lat="43.49019" lon="28.57815">
        <ele>20.4</ele>
      </trkpt>
      <trkpt lat="43.48998" lon="28.57814">
        <ele>20.5</ele>
      </trkpt>
      <trkpt lat="43.48981" lon="28.57811">
        <ele>20.7</ele>
      </trkpt>
      <trkpt lat="43.48965" lon="28.57806">
        <ele>20.9</ele>
      </trkpt>
      <trkpt lat="43.48952" lon="28.57802">
        <ele>21.1</ele>
      </trkpt>
      <trkpt lat="43.48936" lon="28.57794">
        <ele>21.3</ele>
      </trkpt>
      <trkpt lat="43.4892" lon="28.57785">
        <ele>21.6</ele>
      </trkpt>
      <trkpt lat="43.48909" lon="28.57779">
        <ele>21.7</ele>
      </trkpt>
      <trkpt lat="43.48898" lon="28.5777">
        <ele>21.9</ele>
      </trkpt>
      <trkpt lat="43.48872" lon="28.57749">
        <ele>22.5</ele>
      </trkpt>
      <trkpt lat="43.48784" lon="28.57671">
        <ele>23</ele>
      </trkpt>
      <trkpt lat="43.48686" lon="28.57586">
        <ele>24.5</ele>
      </trkpt>
      <trkpt lat="43.48629" lon="28.57537">
        <ele>23.8</ele>
      </trkpt>
      <trkpt lat="43.48444" lon="28.57376">
        <ele>24.3</ele>
      </trkpt>
      <trkpt lat="43.47999" lon="28.56987">
        <ele>26.2</ele>
      </trkpt>
      <trkpt lat="43.47783" lon="28.56798">
        <ele>28.8</ele>
      </trkpt>
      <trkpt lat="43.47464" lon="28.56518">
        <ele>31.9</ele>
      </trkpt>
      <trkpt lat="43.47204" lon="28.5629">
        <ele>32.7</ele>
      </trkpt>
      <trkpt lat="43.47023" lon="28.56132">
        <ele>32.5</ele>
      </trkpt>
      <trkpt lat="43.46801" lon="28.55938">
        <ele>34.3</ele>
      </trkpt>
      <trkpt lat="43.46582" lon="28.55748">
        <ele>34</ele>
      </trkpt>
      <trkpt lat="43.46483" lon="28.55662">
        <ele>32.9</ele>
      </trkpt>
      <trkpt lat="43.46312" lon="28.55512">
        <ele>35.6</ele>
      </trkpt>
      <trkpt lat="43.46172" lon="28.5539">
        <ele>36.7</ele>
      </trkpt>
      <trkpt lat="43.46157" lon="28.55378">
        <ele>36.9</ele>
      </trkpt>
      <trkpt lat="43.46087" lon="28.55316">
        <ele>37.8</ele>
      </trkpt>
      <trkpt lat="43.46051" lon="28.55285">
        <ele>37.1</ele>
      </trkpt>
      <trkpt lat="43.46016" lon="28.55254">
        <ele>37</ele>
      </trkpt>
      <trkpt lat="43.45975" lon="28.55222">
        <ele>38.3</ele>
      </trkpt>
      <trkpt lat="43.45948" lon="28.55203">
        <ele>39.4</ele>
      </trkpt>
      <trkpt lat="43.4591" lon="28.55182">
        <ele>40.5</ele>
      </trkpt>
      <trkpt lat="43.45883" lon="28.55168">
        <ele>40.2</ele>
      </trkpt>
      <trkpt lat="43.45857" lon="28.55158">
        <ele>39.7</ele>
      </trkpt>
      <trkpt lat="43.45822" lon="28.55145">
        <ele>39.3</ele>
      </trkpt>
      <trkpt lat="43.45802" lon="28.55139">
        <ele>39.5</ele>
      </trkpt>
      <trkpt lat="43.4578" lon="28.55133">
        <ele>39.7</ele>
      </trkpt>
      <trkpt lat="43.4575" lon="28.55126">
        <ele>40</ele>
      </trkpt>
      <trkpt lat="43.45714" lon="28.55121">
        <ele>40.1</ele>
      </trkpt>
      <trkpt lat="43.45699" lon="28.55119">
        <ele>40.1</ele>
      </trkpt>
      <trkpt lat="43.45673" lon="28.55116">
        <ele>40.2</ele>
      </trkpt>
      <trkpt lat="43.45568" lon="28.5511">
        <ele>39.2</ele>
      </trkpt>
      <trkpt lat="43.45501" lon="28.55073">
        <ele>39.1</ele>
      </trkpt>
      <trkpt lat="43.45461" lon="28.55027">
        <ele>39.4</ele>
      </trkpt>
      <trkpt lat="43.45274" lon="28.54535">
        <ele>46</ele>
      </trkpt>
      <trkpt lat="43.44309" lon="28.51839">
        <ele>72.2</ele>
      </trkpt>
      <trkpt lat="43.43527" lon="28.49539">
        <ele>69.8</ele>
      </trkpt>
      <trkpt lat="43.43477" lon="28.49102">
        <ele>60.4</ele>
      </trkpt>
      <trkpt lat="43.43467" lon="28.49">
        <ele>59.4</ele>
      </trkpt>
      <trkpt lat="43.4294" lon="28.4778">
        <ele>67.8</ele>
      </trkpt>
      <trkpt lat="43.42329" lon="28.46297">
        <ele>75.6</ele>
      </trkpt>
      <trkpt lat="43.4178" lon="28.4497">
        <ele>75.1</ele>
      </trkpt>
      <trkpt lat="43.40635" lon="28.42193">
        <ele>88</ele>
      </trkpt>
      <trkpt lat="43.40601" lon="28.42032">
        <ele>89.1</ele>
      </trkpt>
      <trkpt lat="43.40585" lon="28.41816">
        <ele>86.8</ele>
      </trkpt>
      <trkpt lat="43.40551" lon="28.41581">
        <ele>88.6</ele>
      </trkpt>
      <trkpt lat="43.40225" lon="28.41298">
        <ele>88</ele>
      </trkpt>
      <trkpt lat="43.40335" lon="28.41063">
        <ele>90.7</ele>
      </trkpt>
      <trkpt lat="43.40527" lon="28.40825">
        <ele>93.1</ele>
      </trkpt>
      <trkpt lat="43.40583" lon="28.40751">
        <ele>93</ele>
      </trkpt>
      <trkpt lat="43.4063" lon="28.40682">
        <ele>95.2</ele>
      </trkpt>
      <trkpt lat="43.40674" lon="28.40572">
        <ele>96</ele>
      </trkpt>
      <trkpt lat="43.40821" lon="28.40342">
        <ele>98.6</ele>
      </trkpt>
      <trkpt lat="43.4123" lon="28.39738">
        <ele>103.6</ele>
      </trkpt>
      <trkpt lat="43.41377" lon="28.3949">
        <ele>104.5</ele>
      </trkpt>
      <trkpt lat="43.42289" lon="28.37853">
        <ele>113.9</ele>
      </trkpt>
      <trkpt lat="43.42733" lon="28.37044">
        <ele>117.7</ele>
      </trkpt>
      <trkpt lat="43.43661" lon="28.35375">
        <ele>123.4</ele>
      </trkpt>
      <trkpt lat="43.43677" lon="28.35316">
        <ele>123.9</ele>
      </trkpt>
      <trkpt lat="43.43553" lon="28.34838">
        <ele>121.7</ele>
      </trkpt>
      <trkpt lat="43.43516" lon="28.34447">
        <ele>127.8</ele>
      </trkpt>
      <trkpt lat="43.4351" lon="28.34359">
        <ele>128.4</ele>
      </trkpt>
      <trkpt lat="43.43583" lon="28.33637">
        <ele>132</ele>
      </trkpt>
      <trkpt lat="43.43593" lon="28.33508">
        <ele>133.6</ele>
      </trkpt>
      <trkpt lat="43.43563" lon="28.32759">
        <ele>135.5</ele>
      </trkpt>
      <trkpt lat="43.43521" lon="28.31286">
        <ele>134.8</ele>
      </trkpt>
      <trkpt lat="43.43494" lon="28.3107">
        <ele>134</ele>
      </trkpt>
      <trkpt lat="43.43397" lon="28.30775">
        <ele>132.7</ele>
      </trkpt>
      <trkpt lat="43.43447" lon="28.30573">
        <ele>135.8</ele>
      </trkpt>
      <trkpt lat="43.4346" lon="28.30521">
        <ele>136.6</ele>
      </trkpt>
      <trkpt lat="43.43387" lon="28.3047">
        <ele>137.2</ele>
      </trkpt>
      <trkpt lat="43.43277" lon="28.30294">
        <ele>139.3</ele>
      </trkpt>
      <trkpt lat="43.4317" lon="28.30036">
        <ele>138.9</ele>
      </trkpt>
      <trkpt lat="43.42662" lon="28.28592">
        <ele>142.1</ele>
      </trkpt>
      <trkpt lat="43.42319" lon="28.26626">
        <ele>154.2</ele>
      </trkpt>
      <trkpt lat="43.42219" lon="28.26644">
        <ele>153.7</ele>
      </trkpt>
      <trkpt lat="43.42106" lon="28.26637">
        <ele>147.9</ele>
      </trkpt>
      <trkpt lat="43.42033" lon="28.26635">
        <ele>146.1</ele>
      </trkpt>
      <trkpt lat="43.41947" lon="28.26668">
        <ele>145.1</ele>
      </trkpt>
      <trkpt lat="43.41841" lon="28.26728">
        <ele>136.9</ele>
      </trkpt>
      <trkpt lat="43.41807" lon="28.26744">
        <ele>133.6</ele>
      </trkpt>
      <trkpt lat="43.41779" lon="28.26744">
        <ele>132.3</ele>
      </trkpt>
      <trkpt lat="43.41735" lon="28.26734">
        <ele>130.5</ele>
      </trkpt>
      <trkpt lat="43.41689" lon="28.26707">
        <ele>128.5</ele>
      </trkpt>
      <trkpt lat="43.41642" lon="28.26702">
        <ele>126.8</ele>
      </trkpt>
      <trkpt lat="43.41613" lon="28.26721">
        <ele>125.1</ele>
      </trkpt>
      <trkpt lat="43.41606" lon="28.26743">
        <ele>122.9</ele>
      </trkpt>
      <trkpt lat="43.41589" lon="28.26815">
        <ele>114.2</ele>
      </trkpt>
      <trkpt lat="43.41587" lon="28.26872">
        <ele>103.8</ele>
      </trkpt>
      <trkpt lat="43.41577" lon="28.26923">
        <ele>94</ele>
      </trkpt>
      <trkpt lat="43.41556" lon="28.26961">
        <ele>86.4</ele>
      </trkpt>
      <trkpt lat="43.41527" lon="28.26973">
        <ele>86.9</ele>
      </trkpt>
      <trkpt lat="43.41495" lon="28.26984">
        <ele>86.3</ele>
      </trkpt>
      <trkpt lat="43.4147" lon="28.2697">
        <ele>82</ele>
      </trkpt>
      <trkpt lat="43.41451" lon="28.26951">
        <ele>80.1</ele>
      </trkpt>
      <trkpt lat="43.41434" lon="28.26916">
        <ele>81</ele>
      </trkpt>
      <trkpt lat="43.414" lon="28.26787">
        <ele>78.5</ele>
      </trkpt>
      <trkpt lat="43.4132" lon="28.26482">
        <ele>70.1</ele>
      </trkpt>
      <trkpt lat="43.41301" lon="28.2636">
        <ele>69.5</ele>
      </trkpt>
      <trkpt lat="43.41292" lon="28.26286">
        <ele>70.4</ele>
      </trkpt>
      <trkpt lat="43.41278" lon="28.26248">
        <ele>67.2</ele>
      </trkpt>
      <trkpt lat="43.4121" lon="28.26107">
        <ele>57.4</ele>
      </trkpt>
      <trkpt lat="43.41159" lon="28.26009">
        <ele>50.6</ele>
      </trkpt>
      <trkpt lat="43.41122" lon="28.25962">
        <ele>46.6</ele>
      </trkpt>
      <trkpt lat="43.41077" lon="28.25912">
        <ele>40.5</ele>
      </trkpt>
      <trkpt lat="43.41035" lon="28.25852">
        <ele>38.9</ele>
      </trkpt>
      <trkpt lat="43.40987" lon="28.25751">
        <ele>38.9</ele>
      </trkpt>
      <trkpt lat="43.40978" lon="28.25696">
        <ele>36</ele>
      </trkpt>
      <trkpt lat="43.41006" lon="28.25579">
        <ele>40.1</ele>
      </trkpt>
      <trkpt lat="43.41005" lon="28.2554">
        <ele>41.3</ele>
      </trkpt>
      <trkpt lat="43.40931" lon="28.25389">
        <ele>34</ele>
      </trkpt>
      <trkpt lat="43.40873" lon="28.25264">
        <ele>26.7</ele>
      </trkpt>
      <trkpt lat="43.40858" lon="28.25205">
        <ele>26.1</ele>
      </trkpt>
      <trkpt lat="43.40851" lon="28.25154">
        <ele>26.8</ele>
      </trkpt>
      <trkpt lat="43.4085" lon="28.25079">
        <ele>29.8</ele>
      </trkpt>
      <trkpt lat="43.40858" lon="28.25013">
        <ele>37.2</ele>
      </trkpt>
      <trkpt lat="43.40882" lon="28.24917">
        <ele>44.3</ele>
      </trkpt>
      <trkpt lat="43.4089" lon="28.24877">
        <ele>42.6</ele>
      </trkpt>
      <trkpt lat="43.40921" lon="28.24821">
        <ele>42.7</ele>
      </trkpt>
      <trkpt lat="43.40974" lon="28.2475">
        <ele>42.3</ele>
      </trkpt>
      <trkpt lat="43.40999" lon="28.24694">
        <ele>43.5</ele>
      </trkpt>
      <trkpt lat="43.41008" lon="28.24664">
        <ele>43.3</ele>
      </trkpt>
      <trkpt lat="43.41006" lon="28.2462">
        <ele>43.5</ele>
      </trkpt>
      <trkpt lat="43.40996" lon="28.24449">
        <ele>52</ele>
      </trkpt>
      <trkpt lat="43.40987" lon="28.2439">
        <ele>56</ele>
      </trkpt>
      <trkpt lat="43.40973" lon="28.24313">
        <ele>59.1</ele>
      </trkpt>
      <trkpt lat="43.40959" lon="28.24249">
        <ele>63.3</ele>
      </trkpt>
      <trkpt lat="43.40935" lon="28.24172">
        <ele>67.4</ele>
      </trkpt>
      <trkpt lat="43.40934" lon="28.24128">
        <ele>69.1</ele>
      </trkpt>
      <trkpt lat="43.4093" lon="28.24092">
        <ele>69.5</ele>
      </trkpt>
      <trkpt lat="43.40935" lon="28.24055">
        <ele>71.7</ele>
      </trkpt>
      <trkpt lat="43.40954" lon="28.24036">
        <ele>77.1</ele>
      </trkpt>
      <trkpt lat="43.40988" lon="28.24">
        <ele>86</ele>
      </trkpt>
      <trkpt lat="43.40999" lon="28.23961">
        <ele>89.3</ele>
      </trkpt>
      <trkpt lat="43.40998" lon="28.23928">
        <ele>89.3</ele>
      </trkpt>
      <trkpt lat="43.40982" lon="28.23857">
        <ele>87.9</ele>
      </trkpt>
      <trkpt lat="43.40856" lon="28.23334">
        <ele>95.2</ele>
      </trkpt>
      <trkpt lat="43.40805" lon="28.23163">
        <ele>98.8</ele>
      </trkpt>
      <trkpt lat="43.40733" lon="28.22882">
        <ele>101.5</ele>
      </trkpt>
      <trkpt lat="43.40727" lon="28.22842">
        <ele>104.4</ele>
      </trkpt>
      <trkpt lat="43.40726" lon="28.22756">
        <ele>103.5</ele>
      </trkpt>
      <trkpt lat="43.40733" lon="28.22662">
        <ele>100.2</ele>
      </trkpt>
      <trkpt lat="43.40743" lon="28.22474">
        <ele>93.4</ele>
      </trkpt>
      <trkpt lat="43.40743" lon="28.22389">
        <ele>89.1</ele>
      </trkpt>
      <trkpt lat="43.40734" lon="28.22247">
        <ele>86</ele>
      </trkpt>
      <trkpt lat="43.40729" lon="28.22226">
        <ele>86</ele>
      </trkpt>
      <trkpt lat="43.40715" lon="28.22181">
        <ele>85.5</ele>
      </trkpt>
      <trkpt lat="43.40685" lon="28.22094">
        <ele>82.8</ele>
      </trkpt>
      <trkpt lat="43.40624" lon="28.2194">
        <ele>78</ele>
      </trkpt>
      <trkpt lat="43.40608" lon="28.21876">
        <ele>76.2</ele>
      </trkpt>
      <trkpt lat="43.40606" lon="28.21827">
        <ele>74.3</ele>
      </trkpt>
      <trkpt lat="43.40649" lon="28.217">
        <ele>69</ele>
      </trkpt>
      <trkpt lat="43.40657" lon="28.21655">
        <ele>65.9</ele>
      </trkpt>
      <trkpt lat="43.40657" lon="28.21605">
        <ele>64.9</ele>
      </trkpt>
      <trkpt lat="43.40635" lon="28.21553">
        <ele>64.3</ele>
      </trkpt>
      <trkpt lat="43.40589" lon="28.21488">
        <ele>62.8</ele>
      </trkpt>
      <trkpt lat="43.4057" lon="28.21441">
        <ele>62.9</ele>
      </trkpt>
      <trkpt lat="43.40559" lon="28.21392">
        <ele>63.5</ele>
      </trkpt>
      <trkpt lat="43.40548" lon="28.2127">
        <ele>66.3</ele>
      </trkpt>
      <trkpt lat="43.40527" lon="28.21216">
        <ele>66.4</ele>
      </trkpt>
      <trkpt lat="43.40503" lon="28.21188">
        <ele>65.7</ele>
      </trkpt>
      <trkpt lat="43.40492" lon="28.21136">
        <ele>66.7</ele>
      </trkpt>
      <trkpt lat="43.4049" lon="28.21062">
        <ele>66.3</ele>
      </trkpt>
      <trkpt lat="43.40485" lon="28.2102">
        <ele>66.1</ele>
      </trkpt>
      <trkpt lat="43.40472" lon="28.20985">
        <ele>66.1</ele>
      </trkpt>
      <trkpt lat="43.40428" lon="28.20947">
        <ele>65.5</ele>
      </trkpt>
      <trkpt lat="43.40386" lon="28.20908">
        <ele>65.9</ele>
      </trkpt>
      <trkpt lat="43.40372" lon="28.20887">
        <ele>66.6</ele>
      </trkpt>
      <trkpt lat="43.40359" lon="28.20829">
        <ele>67.7</ele>
      </trkpt>
      <trkpt lat="43.40361" lon="28.20759">
        <ele>68.3</ele>
      </trkpt>
      <trkpt lat="43.4036" lon="28.20722">
        <ele>68</ele>
      </trkpt>
      <trkpt lat="43.40356" lon="28.20689">
        <ele>67.3</ele>
      </trkpt>
      <trkpt lat="43.40345" lon="28.20653">
        <ele>66.1</ele>
      </trkpt>
      <trkpt lat="43.40311" lon="28.20588">
        <ele>61.6</ele>
      </trkpt>
      <trkpt lat="43.40279" lon="28.20531">
        <ele>59.7</ele>
      </trkpt>
      <trkpt lat="43.40264" lon="28.20506">
        <ele>59.9</ele>
      </trkpt>
      <trkpt lat="43.40243" lon="28.20483">
        <ele>59.4</ele>
      </trkpt>
      <trkpt lat="43.40204" lon="28.20431">
        <ele>55.9</ele>
      </trkpt>
      <trkpt lat="43.40166" lon="28.20273">
        <ele>51</ele>
      </trkpt>
      <trkpt lat="43.40154" lon="28.20189">
        <ele>52.1</ele>
      </trkpt>
      <trkpt lat="43.40142" lon="28.20072">
        <ele>53.7</ele>
      </trkpt>
      <trkpt lat="43.40124" lon="28.20017">
        <ele>53.8</ele>
      </trkpt>
      <trkpt lat="43.40101" lon="28.19957">
        <ele>53.7</ele>
      </trkpt>
      <trkpt lat="43.40034" lon="28.19819">
        <ele>55.3</ele>
      </trkpt>
      <trkpt lat="43.4001" lon="28.19739">
        <ele>54.9</ele>
      </trkpt>
      <trkpt lat="43.40002" lon="28.19666">
        <ele>54</ele>
      </trkpt>
      <trkpt lat="43.39978" lon="28.19425">
        <ele>48.4</ele>
      </trkpt>
      <trkpt lat="43.3997" lon="28.19404">
        <ele>47.5</ele>
      </trkpt>
      <trkpt lat="43.39946" lon="28.19394">
        <ele>45.6</ele>
      </trkpt>
      <trkpt lat="43.39879" lon="28.19371">
        <ele>35.2</ele>
      </trkpt>
      <trkpt lat="43.39858" lon="28.19338">
        <ele>30.5</ele>
      </trkpt>
      <trkpt lat="43.39847" lon="28.19287">
        <ele>29.2</ele>
      </trkpt>
      <trkpt lat="43.39836" lon="28.192">
        <ele>27.5</ele>
      </trkpt>
      <trkpt lat="43.39832" lon="28.19096">
        <ele>20</ele>
      </trkpt>
      <trkpt lat="43.39836" lon="28.19031">
        <ele>15</ele>
      </trkpt>
      <trkpt lat="43.3985" lon="28.18837">
        <ele>12.7</ele>
      </trkpt>
      <trkpt lat="43.39851" lon="28.18736">
        <ele>13</ele>
      </trkpt>
      <trkpt lat="43.3985" lon="28.1868">
        <ele>13.9</ele>
      </trkpt>
      <trkpt lat="43.39843" lon="28.18593">
        <ele>14</ele>
      </trkpt>
      <trkpt lat="43.39843" lon="28.18544">
        <ele>13.4</ele>
      </trkpt>
      <trkpt lat="43.39872" lon="28.18396">
        <ele>19.7</ele>
      </trkpt>
      <trkpt lat="43.39882" lon="28.1837">
        <ele>21.8</ele>
      </trkpt>
      <trkpt lat="43.39902" lon="28.18335">
        <ele>26.1</ele>
      </trkpt>
      <trkpt lat="43.39921" lon="28.18314">
        <ele>30.5</ele>
      </trkpt>
      <trkpt lat="43.39934" lon="28.18288">
        <ele>33.6</ele>
      </trkpt>
      <trkpt lat="43.39949" lon="28.1822">
        <ele>36.4</ele>
      </trkpt>
      <trkpt lat="43.39955" lon="28.18126">
        <ele>35.2</ele>
      </trkpt>
      <trkpt lat="43.39955" lon="28.18068">
        <ele>32.7</ele>
      </trkpt>
      <trkpt lat="43.39936" lon="28.17988">
        <ele>24.4</ele>
      </trkpt>
      <trkpt lat="43.39925" lon="28.17915">
        <ele>20.4</ele>
      </trkpt>
      <trkpt lat="43.39922" lon="28.17856">
        <ele>16.1</ele>
      </trkpt>
      <trkpt lat="43.3993" lon="28.17805">
        <ele>14.1</ele>
      </trkpt>
      <trkpt lat="43.39955" lon="28.17734">
        <ele>13.9</ele>
      </trkpt>
      <trkpt lat="43.39989" lon="28.17671">
        <ele>15</ele>
      </trkpt>
      <trkpt lat="43.40006" lon="28.17612">
        <ele>14.3</ele>
      </trkpt>
      <trkpt lat="43.40019" lon="28.17558">
        <ele>13.5</ele>
      </trkpt>
      <trkpt lat="43.40038" lon="28.17503">
        <ele>12.3</ele>
      </trkpt>
      <trkpt lat="43.40063" lon="28.17464">
        <ele>10.2</ele>
      </trkpt>
      <trkpt lat="43.40142" lon="28.17393">
        <ele>10.8</ele>
      </trkpt>
      <trkpt lat="43.40236" lon="28.17295">
        <ele>10.8</ele>
      </trkpt>
      <trkpt lat="43.40389" lon="28.17149">
        <ele>18.9</ele>
      </trkpt>
      <trkpt lat="43.40414" lon="28.17104">
        <ele>18.2</ele>
      </trkpt>
      <trkpt lat="43.40437" lon="28.17036">
        <ele>17.2</ele>
      </trkpt>
      <trkpt lat="43.40454" lon="28.16916">
        <ele>10</ele>
      </trkpt>
      <trkpt lat="43.4054" lon="28.16555">
        <ele>10.3</ele>
      </trkpt>
      <trkpt lat="43.40587" lon="28.1628">
        <ele>13.2</ele>
      </trkpt>
      <trkpt lat="43.40611" lon="28.16022">
        <ele>12.1</ele>
      </trkpt>
      <trkpt lat="43.40671" lon="28.15902">
        <ele>20.2</ele>
      </trkpt>
      <trkpt lat="43.4068" lon="28.15874">
        <ele>24.7</ele>
      </trkpt>
      <trkpt lat="43.40685" lon="28.15832">
        <ele>29.1</ele>
      </trkpt>
      <trkpt lat="43.40718" lon="28.15747">
        <ele>39.6</ele>
      </trkpt>
      <trkpt lat="43.40749" lon="28.15686">
        <ele>44.1</ele>
      </trkpt>
      <trkpt lat="43.40784" lon="28.15649">
        <ele>50.4</ele>
      </trkpt>
      <trkpt lat="43.40815" lon="28.15593">
        <ele>55.4</ele>
      </trkpt>
      <trkpt lat="43.4085" lon="28.15464">
        <ele>61.3</ele>
      </trkpt>
      <trkpt lat="43.4086" lon="28.1541">
        <ele>62.3</ele>
      </trkpt>
      <trkpt lat="43.40846" lon="28.15302">
        <ele>54.7</ele>
      </trkpt>
      <trkpt lat="43.40832" lon="28.15222">
        <ele>56.3</ele>
      </trkpt>
      <trkpt lat="43.40744" lon="28.15148">
        <ele>51.8</ele>
      </trkpt>
      <trkpt lat="43.4073" lon="28.15048">
        <ele>56.2</ele>
      </trkpt>
      <trkpt lat="43.40733" lon="28.1498">
        <ele>54.8</ele>
      </trkpt>
      <trkpt lat="43.40775" lon="28.14799">
        <ele>52.6</ele>
      </trkpt>
      <trkpt lat="43.40811" lon="28.14733">
        <ele>53.1</ele>
      </trkpt>
      <trkpt lat="43.40945" lon="28.1453">
        <ele>51.5</ele>
      </trkpt>
      <trkpt lat="43.40975" lon="28.14507">
        <ele>53.1</ele>
      </trkpt>
      <trkpt lat="43.40965" lon="28.14383">
        <ele>52.9</ele>
      </trkpt>
      <trkpt lat="43.40905" lon="28.14237">
        <ele>62.7</ele>
      </trkpt>
      <trkpt lat="43.40832" lon="28.14177">
        <ele>69.9</ele>
      </trkpt>
      <trkpt lat="43.40702" lon="28.14162">
        <ele>73.5</ele>
      </trkpt>
      <trkpt lat="43.40474" lon="28.14117">
        <ele>76.3</ele>
      </trkpt>
      <trkpt lat="43.40341" lon="28.1402">
        <ele>75.8</ele>
      </trkpt>
      <trkpt lat="43.40208" lon="28.13845">
        <ele>75.7</ele>
      </trkpt>
      <trkpt lat="43.40107" lon="28.13508">
        <ele>67.6</ele>
      </trkpt>
      <trkpt lat="43.40047" lon="28.13344">
        <ele>58.1</ele>
      </trkpt>
      <trkpt lat="43.39977" lon="28.13236">
        <ele>59.7</ele>
      </trkpt>
      <trkpt lat="43.39662" lon="28.12869">
        <ele>70.3</ele>
      </trkpt>
      <trkpt lat="43.39583" lon="28.12754">
        <ele>76.7</ele>
      </trkpt>
      <trkpt lat="43.39491" lon="28.126">
        <ele>79.2</ele>
      </trkpt>
      <trkpt lat="43.39109" lon="28.11778">
        <ele>93.1</ele>
      </trkpt>
      <trkpt lat="43.38772" lon="28.11386">
        <ele>78.6</ele>
      </trkpt>
      <trkpt lat="43.38685" lon="28.11236">
        <ele>80.1</ele>
      </trkpt>
      <trkpt lat="43.38585" lon="28.10941">
        <ele>95.8</ele>
      </trkpt>
      <trkpt lat="43.38465" lon="28.10739">
        <ele>93.3</ele>
      </trkpt>
      <trkpt lat="43.38291" lon="28.10216">
        <ele>94.2</ele>
      </trkpt>
      <trkpt lat="43.38275" lon="28.10131">
        <ele>94.7</ele>
      </trkpt>
      <trkpt lat="43.38281" lon="28.10011">
        <ele>91.2</ele>
      </trkpt>
      <trkpt lat="43.38354" lon="28.09873">
        <ele>92.2</ele>
      </trkpt>
      <trkpt lat="43.3846" lon="28.09645">
        <ele>90.3</ele>
      </trkpt>
      <trkpt lat="43.38492" lon="28.09518">
        <ele>89.8</ele>
      </trkpt>
      <trkpt lat="43.38465" lon="28.09354">
        <ele>88.9</ele>
      </trkpt>
      <trkpt lat="43.38392" lon="28.09253">
        <ele>97.9</ele>
      </trkpt>
      <trkpt lat="43.3831" lon="28.09193">
        <ele>104.9</ele>
      </trkpt>
      <trkpt lat="43.38145" lon="28.09189">
        <ele>105.9</ele>
      </trkpt>
      <trkpt lat="43.37963" lon="28.09137">
        <ele>109.7</ele>
      </trkpt>
      <trkpt lat="43.37876" lon="28.09088">
        <ele>108.5</ele>
      </trkpt>
      <trkpt lat="43.37694" lon="28.08902">
        <ele>97.1</ele>
      </trkpt>
      <trkpt lat="43.37482" lon="28.08439">
        <ele>84.2</ele>
      </trkpt>
      <trkpt lat="43.37201" lon="28.07779">
        <ele>55.2</ele>
      </trkpt>
      <trkpt lat="43.3677" lon="28.06621">
        <ele>14.3</ele>
      </trkpt>
      <trkpt lat="43.36799" lon="28.0658">
        <ele>14.7</ele>
      </trkpt>
      <trkpt lat="43.36802" lon="28.06498">
        <ele>13.9</ele>
      </trkpt>
      <trkpt lat="43.36783" lon="28.06449">
        <ele>13.9</ele>
      </trkpt>
      <trkpt lat="43.3674" lon="28.06438">
        <ele>13.1</ele>
      </trkpt>
      <trkpt lat="43.36688" lon="28.06438">
        <ele>10.9</ele>
      </trkpt>
      <trkpt lat="43.36577" lon="28.064">
        <ele>7.9</ele>
      </trkpt>
      <trkpt lat="43.36501" lon="28.06318">
        <ele>8.7</ele>
      </trkpt>
      <trkpt lat="43.36113" lon="28.05955">
        <ele>13.4</ele>
      </trkpt>
      <trkpt lat="43.35065" lon="28.04986">
        <ele>25.6</ele>
      </trkpt>
      <trkpt lat="43.34827" lon="28.05013">
        <ele>29.6</ele>
      </trkpt>
      <trkpt lat="43.34582" lon="28.05053">
        <ele>20.2</ele>
      </trkpt>
      <trkpt lat="43.34384" lon="28.05109">
        <ele>16.4</ele>
      </trkpt>
      <trkpt lat="43.34267" lon="28.05197">
        <ele>24</ele>
      </trkpt>
      <trkpt lat="43.34186" lon="28.05318">
        <ele>34.1</ele>
      </trkpt>
      <trkpt lat="43.34096" lon="28.05639">
        <ele>53</ele>
      </trkpt>
      <trkpt lat="43.34061" lon="28.05803">
        <ele>56.3</ele>
      </trkpt>
      <trkpt lat="43.33896" lon="28.06088">
        <ele>76.4</ele>
      </trkpt>
      <trkpt lat="43.33869" lon="28.06067">
        <ele>82.5</ele>
      </trkpt>
      <trkpt lat="43.33885" lon="28.06004">
        <ele>83.6</ele>
      </trkpt>
      <trkpt lat="43.33912" lon="28.0594">
        <ele>81.7</ele>
      </trkpt>
      <trkpt lat="43.33896" lon="28.05903">
        <ele>85.4</ele>
      </trkpt>
      <trkpt lat="43.33865" lon="28.05935">
        <ele>88.9</ele>
      </trkpt>
      <trkpt lat="43.338" lon="28.0603">
        <ele>94.3</ele>
      </trkpt>
      <trkpt lat="43.33689" lon="28.06157">
        <ele>99.6</ele>
      </trkpt>
      <trkpt lat="43.33589" lon="28.06198">
        <ele>107.6</ele>
      </trkpt>
      <trkpt lat="43.3339" lon="28.06198">
        <ele>103.7</ele>
      </trkpt>
      <trkpt lat="43.33274" lon="28.06287">
        <ele>92.7</ele>
      </trkpt>
      <trkpt lat="43.32914" lon="28.0637">
        <ele>83.2</ele>
      </trkpt>
      <trkpt lat="43.32784" lon="28.0637">
        <ele>80.2</ele>
      </trkpt>
      <trkpt lat="43.32626" lon="28.06264">
        <ele>82.4</ele>
      </trkpt>
      <trkpt lat="43.32271" lon="28.0614">
        <ele>75.2</ele>
      </trkpt>
      <trkpt lat="43.31749" lon="28.0568">
        <ele>78.9</ele>
      </trkpt>
      <trkpt lat="43.31581" lon="28.05522">
        <ele>74.6</ele>
      </trkpt>
      <trkpt lat="43.3148" lon="28.05446">
        <ele>76</ele>
      </trkpt>
      <trkpt lat="43.31353" lon="28.05365">
        <ele>72.4</ele>
      </trkpt>
      <trkpt lat="43.31262" lon="28.05323">
        <ele>65.4</ele>
      </trkpt>
      <trkpt lat="43.31172" lon="28.05295">
        <ele>63</ele>
      </trkpt>
      <trkpt lat="43.31075" lon="28.05265">
        <ele>63</ele>
      </trkpt>
      <trkpt lat="43.31004" lon="28.05241">
        <ele>65.2</ele>
      </trkpt>
      <trkpt lat="43.30855" lon="28.0521">
        <ele>55.8</ele>
      </trkpt>
      <trkpt lat="43.30818" lon="28.0518">
        <ele>55.8</ele>
      </trkpt>
      <trkpt lat="43.30769" lon="28.05137">
        <ele>56.6</ele>
      </trkpt>
      <trkpt lat="43.30718" lon="28.05095">
        <ele>55.1</ele>
      </trkpt>
      <trkpt lat="43.30637" lon="28.05074">
        <ele>50.7</ele>
      </trkpt>
      <trkpt lat="43.30561" lon="28.05061">
        <ele>46.6</ele>
      </trkpt>
      <trkpt lat="43.30506" lon="28.05036">
        <ele>45.5</ele>
      </trkpt>
      <trkpt lat="43.30413" lon="28.05">
        <ele>40.3</ele>
      </trkpt>
      <trkpt lat="43.30263" lon="28.04885">
        <ele>32.6</ele>
      </trkpt>
      <trkpt lat="43.30146" lon="28.04778">
        <ele>40.9</ele>
      </trkpt>
      <trkpt lat="43.30106" lon="28.04748">
        <ele>44.9</ele>
      </trkpt>
      <trkpt lat="43.30031" lon="28.04712">
        <ele>45.3</ele>
      </trkpt>
      <trkpt lat="43.29992" lon="28.04687">
        <ele>46.9</ele>
      </trkpt>
      <trkpt lat="43.29963" lon="28.04657">
        <ele>47.4</ele>
      </trkpt>
      <trkpt lat="43.29921" lon="28.04572">
        <ele>50.5</ele>
      </trkpt>
      <trkpt lat="43.29868" lon="28.0447">
        <ele>55.1</ele>
      </trkpt>
      <trkpt lat="43.2984" lon="28.04421">
        <ele>57.9</ele>
      </trkpt>
      <trkpt lat="43.29795" lon="28.044">
        <ele>56.5</ele>
      </trkpt>
      <trkpt lat="43.29758" lon="28.04376">
        <ele>55.5</ele>
      </trkpt>
      <trkpt lat="43.29679" lon="28.04349">
        <ele>53.9</ele>
      </trkpt>
      <trkpt lat="43.29602" lon="28.04328">
        <ele>52.1</ele>
      </trkpt>
      <trkpt lat="43.29503" lon="28.04297">
        <ele>52.6</ele>
      </trkpt>
      <trkpt lat="43.29428" lon="28.04294">
        <ele>50.9</ele>
      </trkpt>
      <trkpt lat="43.29358" lon="28.04306">
        <ele>49.6</ele>
      </trkpt>
      <trkpt lat="43.2932" lon="28.043">
        <ele>49.7</ele>
      </trkpt>
      <trkpt lat="43.29221" lon="28.04206">
        <ele>51.4</ele>
      </trkpt>
      <trkpt lat="43.29174" lon="28.04155">
        <ele>50</ele>
      </trkpt>
      <trkpt lat="43.29152" lon="28.04079">
        <ele>52.6</ele>
      </trkpt>
      <trkpt lat="43.29126" lon="28.03952">
        <ele>55</ele>
      </trkpt>
      <trkpt lat="43.29088" lon="28.03888">
        <ele>53.3</ele>
      </trkpt>
      <trkpt lat="43.29024" lon="28.03855">
        <ele>54.7</ele>
      </trkpt>
      <trkpt lat="43.28912" lon="28.03827">
        <ele>55.3</ele>
      </trkpt>
      <trkpt lat="43.28828" lon="28.03776">
        <ele>53.6</ele>
      </trkpt>
      <trkpt lat="43.28781" lon="28.03718">
        <ele>52.2</ele>
      </trkpt>
      <trkpt lat="43.28755" lon="28.03621">
        <ele>61.8</ele>
      </trkpt>
      <trkpt lat="43.28728" lon="28.03585">
        <ele>68.5</ele>
      </trkpt>
      <trkpt lat="43.28653" lon="28.03569">
        <ele>69.8</ele>
      </trkpt>
      <trkpt lat="43.28598" lon="28.03554">
        <ele>71.3</ele>
      </trkpt>
      <trkpt lat="43.2851" lon="28.03448">
        <ele>77.2</ele>
      </trkpt>
      <trkpt lat="43.28422" lon="28.03343">
        <ele>81.6</ele>
      </trkpt>
      <trkpt lat="43.28335" lon="28.03316">
        <ele>83.6</ele>
      </trkpt>
      <trkpt lat="43.28185" lon="28.03265">
        <ele>83.4</ele>
      </trkpt>
      <trkpt lat="43.28086" lon="28.03219">
        <ele>86.4</ele>
      </trkpt>
      <trkpt lat="43.27995" lon="28.03095">
        <ele>94.4</ele>
      </trkpt>
      <trkpt lat="43.27953" lon="28.03057">
        <ele>97.1</ele>
      </trkpt>
      <trkpt lat="43.27902" lon="28.03026">
        <ele>101.1</ele>
      </trkpt>
      <trkpt lat="43.27844" lon="28.02993">
        <ele>107.5</ele>
      </trkpt>
      <trkpt lat="43.27785" lon="28.03011">
        <ele>110.7</ele>
      </trkpt>
      <trkpt lat="43.27719" lon="28.03072">
        <ele>108</ele>
      </trkpt>
      <trkpt lat="43.27663" lon="28.03057">
        <ele>115.2</ele>
      </trkpt>
      <trkpt lat="43.27573" lon="28.03023">
        <ele>118.2</ele>
      </trkpt>
      <trkpt lat="43.27524" lon="28.02999">
        <ele>120</ele>
      </trkpt>
      <trkpt lat="43.27475" lon="28.02947">
        <ele>126.9</ele>
      </trkpt>
      <trkpt lat="43.27458" lon="28.02881">
        <ele>129.8</ele>
      </trkpt>
      <trkpt lat="43.27469" lon="28.02823">
        <ele>130</ele>
      </trkpt>
      <trkpt lat="43.27515" lon="28.02781">
        <ele>133.6</ele>
      </trkpt>
      <trkpt lat="43.27579" lon="28.0269">
        <ele>136.8</ele>
      </trkpt>
      <trkpt lat="43.27615" lon="28.02641">
        <ele>140</ele>
      </trkpt>
      <trkpt lat="43.2765" lon="28.02589">
        <ele>144.8</ele>
      </trkpt>
      <trkpt lat="43.27666" lon="28.02546">
        <ele>147.8</ele>
      </trkpt>
      <trkpt lat="43.27667" lon="28.02477">
        <ele>150.4</ele>
      </trkpt>
      <trkpt lat="43.27663" lon="28.02299">
        <ele>161.9</ele>
      </trkpt>
      <trkpt lat="43.27663" lon="28.02265">
        <ele>164.1</ele>
      </trkpt>
      <trkpt lat="43.27673" lon="28.022">
        <ele>170.9</ele>
      </trkpt>
      <trkpt lat="43.27678" lon="28.02146">
        <ele>177.2</ele>
      </trkpt>
      <trkpt lat="43.27665" lon="28.02073">
        <ele>182.4</ele>
      </trkpt>
      <trkpt lat="43.27654" lon="28.02027">
        <ele>187.8</ele>
      </trkpt>
      <trkpt lat="43.27613" lon="28.01935">
        <ele>192.6</ele>
      </trkpt>
      <trkpt lat="43.2758" lon="28.01848">
        <ele>193.8</ele>
      </trkpt>
      <trkpt lat="43.27562" lon="28.01789">
        <ele>197.6</ele>
      </trkpt>
      <trkpt lat="43.2756" lon="28.01775">
        <ele>199</ele>
      </trkpt>
      <trkpt lat="43.27567" lon="28.01755">
        <ele>202.2</ele>
      </trkpt>
      <trkpt lat="43.27578" lon="28.01744">
        <ele>205</ele>
      </trkpt>
      <trkpt lat="43.27589" lon="28.01745">
        <ele>206.3</ele>
      </trkpt>
      <trkpt lat="43.27625" lon="28.01772">
        <ele>207.1</ele>
      </trkpt>
      <trkpt lat="43.27665" lon="28.01806">
        <ele>208.5</ele>
      </trkpt>
      <trkpt lat="43.27679" lon="28.01839">
        <ele>207.6</ele>
      </trkpt>
      <trkpt lat="43.27691" lon="28.01864">
        <ele>208.5</ele>
      </trkpt>
      <trkpt lat="43.27703" lon="28.01876">
        <ele>210.1</ele>
      </trkpt>
      <trkpt lat="43.27712" lon="28.01881">
        <ele>211.5</ele>
      </trkpt>
      <trkpt lat="43.27724" lon="28.0188">
        <ele>213.6</ele>
      </trkpt>
      <trkpt lat="43.27735" lon="28.0187">
        <ele>215.5</ele>
      </trkpt>
      <trkpt lat="43.2774" lon="28.01842">
        <ele>216.5</ele>
      </trkpt>
      <trkpt lat="43.27745" lon="28.01796">
        <ele>220.3</ele>
      </trkpt>
      <trkpt lat="43.27744" lon="28.01786">
        <ele>221.1</ele>
      </trkpt>
      <trkpt lat="43.27735" lon="28.01766">
        <ele>221.6</ele>
      </trkpt>
      <trkpt lat="43.27723" lon="28.01741">
        <ele>222.6</ele>
      </trkpt>
      <trkpt lat="43.27677" lon="28.01682">
        <ele>225.1</ele>
      </trkpt>
      <trkpt lat="43.27647" lon="28.01642">
        <ele>226.2</ele>
      </trkpt>
      <trkpt lat="43.27629" lon="28.01609">
        <ele>227.6</ele>
      </trkpt>
      <trkpt lat="43.2762" lon="28.01582">
        <ele>229.6</ele>
      </trkpt>
      <trkpt lat="43.27606" lon="28.01561">
        <ele>230.4</ele>
      </trkpt>
      <trkpt lat="43.27559" lon="28.01517">
        <ele>230.6</ele>
      </trkpt>
      <trkpt lat="43.27508" lon="28.01472">
        <ele>228.8</ele>
      </trkpt>
      <trkpt lat="43.27463" lon="28.01402">
        <ele>228.8</ele>
      </trkpt>
      <trkpt lat="43.27431" lon="28.01354">
        <ele>229.2</ele>
      </trkpt>
      <trkpt lat="43.2739" lon="28.01314">
        <ele>227.9</ele>
      </trkpt>
      <trkpt lat="43.27373" lon="28.01286">
        <ele>228.9</ele>
      </trkpt>
      <trkpt lat="43.27353" lon="28.01237">
        <ele>231.7</ele>
      </trkpt>
      <trkpt lat="43.27312" lon="28.01161">
        <ele>234</ele>
      </trkpt>
      <trkpt lat="43.27296" lon="28.01141">
        <ele>234.9</ele>
      </trkpt>
      <trkpt lat="43.27286" lon="28.0113">
        <ele>235.4</ele>
      </trkpt>
      <trkpt lat="43.27272" lon="28.01123">
        <ele>235.1</ele>
      </trkpt>
      <trkpt lat="43.27232" lon="28.01109">
        <ele>234.1</ele>
      </trkpt>
      <trkpt lat="43.27202" lon="28.01091">
        <ele>233.8</ele>
      </trkpt>
      <trkpt lat="43.27186" lon="28.01075">
        <ele>234</ele>
      </trkpt>
      <trkpt lat="43.27173" lon="28.01054">
        <ele>234.6</ele>
      </trkpt>
      <trkpt lat="43.27163" lon="28.01031">
        <ele>235.6</ele>
      </trkpt>
      <trkpt lat="43.27153" lon="28.01024">
        <ele>235.8</ele>
      </trkpt>
      <trkpt lat="43.27142" lon="28.01019">
        <ele>235.8</ele>
      </trkpt>
      <trkpt lat="43.271" lon="28.01026">
        <ele>233.7</ele>
      </trkpt>
      <trkpt lat="43.27056" lon="28.01035">
        <ele>231.9</ele>
      </trkpt>
      <trkpt lat="43.27031" lon="28.01036">
        <ele>231.5</ele>
      </trkpt>
      <trkpt lat="43.26998" lon="28.01031">
        <ele>231.9</ele>
      </trkpt>
      <trkpt lat="43.26965" lon="28.01028">
        <ele>233.8</ele>
      </trkpt>
      <trkpt lat="43.26939" lon="28.0103">
        <ele>234.5</ele>
      </trkpt>
      <trkpt lat="43.26915" lon="28.01037">
        <ele>234.4</ele>
      </trkpt>
      <trkpt lat="43.26851" lon="28.01048">
        <ele>236.9</ele>
      </trkpt>
      <trkpt lat="43.26806" lon="28.01058">
        <ele>236.9</ele>
      </trkpt>
      <trkpt lat="43.26779" lon="28.01076">
        <ele>234.7</ele>
      </trkpt>
      <trkpt lat="43.26751" lon="28.01088">
        <ele>232.8</ele>
      </trkpt>
      <trkpt lat="43.26731" lon="28.01089">
        <ele>231.2</ele>
      </trkpt>
      <trkpt lat="43.26715" lon="28.01074">
        <ele>232.9</ele>
      </trkpt>
      <trkpt lat="43.26688" lon="28.01043">
        <ele>236</ele>
      </trkpt>
      <trkpt lat="43.26654" lon="28.00994">
        <ele>240.1</ele>
      </trkpt>
      <trkpt lat="43.26618" lon="28.00947">
        <ele>238.9</ele>
      </trkpt>
      <trkpt lat="43.26582" lon="28.00904">
        <ele>238.6</ele>
      </trkpt>
      <trkpt lat="43.26561" lon="28.00883">
        <ele>237.8</ele>
      </trkpt>
      <trkpt lat="43.26539" lon="28.00861">
        <ele>237.2</ele>
      </trkpt>
      <trkpt lat="43.26513" lon="28.00817">
        <ele>239.5</ele>
      </trkpt>
      <trkpt lat="43.26474" lon="28.00741">
        <ele>243.9</ele>
      </trkpt>
      <trkpt lat="43.26425" lon="28.00673">
        <ele>244.6</ele>
      </trkpt>
      <trkpt lat="43.26379" lon="28.00624">
        <ele>245.9</ele>
      </trkpt>
      <trkpt lat="43.26346" lon="28.00579">
        <ele>247.1</ele>
      </trkpt>
      <trkpt lat="43.26297" lon="28.0051">
        <ele>248.4</ele>
      </trkpt>
      <trkpt lat="43.26252" lon="28.00442">
        <ele>246.7</ele>
      </trkpt>
      <trkpt lat="43.26209" lon="28.00376">
        <ele>243.1</ele>
      </trkpt>
      <trkpt lat="43.26193" lon="28.00348">
        <ele>241.7</ele>
      </trkpt>
      <trkpt lat="43.2616" lon="28.00246">
        <ele>238.7</ele>
      </trkpt>
      <trkpt lat="43.26114" lon="28.00126">
        <ele>233.8</ele>
      </trkpt>
      <trkpt lat="43.26065" lon="28.00007">
        <ele>234.1</ele>
      </trkpt>
      <trkpt lat="43.26045" lon="27.99961">
        <ele>236.5</ele>
      </trkpt>
      <trkpt lat="43.26018" lon="27.99924">
        <ele>235</ele>
      </trkpt>
      <trkpt lat="43.25995" lon="27.99898">
        <ele>234.3</ele>
      </trkpt>
      <trkpt lat="43.25946" lon="27.99868">
        <ele>232.2</ele>
      </trkpt>
      <trkpt lat="43.25919" lon="27.99852">
        <ele>230.2</ele>
      </trkpt>
      <trkpt lat="43.2589" lon="27.99826">
        <ele>230.3</ele>
      </trkpt>
      <trkpt lat="43.25871" lon="27.99815">
        <ele>229.5</ele>
      </trkpt>
      <trkpt lat="43.25852" lon="27.99808">
        <ele>228.2</ele>
      </trkpt>
      <trkpt lat="43.25826" lon="27.99803">
        <ele>226</ele>
      </trkpt>
      <trkpt lat="43.2578" lon="27.99796">
        <ele>224.2</ele>
      </trkpt>
      <trkpt lat="43.25757" lon="27.99798">
        <ele>222.3</ele>
      </trkpt>
      <trkpt lat="43.25715" lon="27.99809">
        <ele>219.1</ele>
      </trkpt>
      <trkpt lat="43.25696" lon="27.99817">
        <ele>217.6</ele>
      </trkpt>
      <trkpt lat="43.25637" lon="27.99841">
        <ele>213.4</ele>
      </trkpt>
      <trkpt lat="43.2561" lon="27.99853">
        <ele>210.7</ele>
      </trkpt>
      <trkpt lat="43.25592" lon="27.99858">
        <ele>209.5</ele>
      </trkpt>
      <trkpt lat="43.2558" lon="27.99857">
        <ele>208.9</ele>
      </trkpt>
      <trkpt lat="43.25568" lon="27.99853">
        <ele>208.1</ele>
      </trkpt>
      <trkpt lat="43.25556" lon="27.99847">
        <ele>207.4</ele>
      </trkpt>
      <trkpt lat="43.25545" lon="27.99835">
        <ele>207.7</ele>
      </trkpt>
      <trkpt lat="43.25537" lon="27.99817">
        <ele>208.1</ele>
      </trkpt>
      <trkpt lat="43.25526" lon="27.99795">
        <ele>208.7</ele>
      </trkpt>
      <trkpt lat="43.25515" lon="27.99776">
        <ele>209.1</ele>
      </trkpt>
      <trkpt lat="43.25501" lon="27.99766">
        <ele>208.4</ele>
      </trkpt>
      <trkpt lat="43.25478" lon="27.99758">
        <ele>207.7</ele>
      </trkpt>
      <trkpt lat="43.2546" lon="27.9976">
        <ele>206.5</ele>
      </trkpt>
      <trkpt lat="43.25443" lon="27.99768">
        <ele>205</ele>
      </trkpt>
      <trkpt lat="43.25427" lon="27.99784">
        <ele>203.6</ele>
      </trkpt>
      <trkpt lat="43.25393" lon="27.99828">
        <ele>204.3</ele>
      </trkpt>
      <trkpt lat="43.25362" lon="27.99871">
        <ele>202.7</ele>
      </trkpt>
      <trkpt lat="43.25339" lon="27.99904">
        <ele>201</ele>
      </trkpt>
      <trkpt lat="43.25312" lon="27.99936">
        <ele>199.3</ele>
      </trkpt>
      <trkpt lat="43.25276" lon="27.99975">
        <ele>195.9</ele>
      </trkpt>
      <trkpt lat="43.25238" lon="28.00007">
        <ele>191.8</ele>
      </trkpt>
      <trkpt lat="43.25219" lon="28.00017">
        <ele>190.2</ele>
      </trkpt>
      <trkpt lat="43.25204" lon="28.00019">
        <ele>189.8</ele>
      </trkpt>
      <trkpt lat="43.25158" lon="28.00013">
        <ele>190</ele>
      </trkpt>
      <trkpt lat="43.25124" lon="28.00008">
        <ele>190.4</ele>
      </trkpt>
      <trkpt lat="43.25105" lon="28.00012">
        <ele>189.7</ele>
      </trkpt>
      <trkpt lat="43.25086" lon="28.00023">
        <ele>188</ele>
      </trkpt>
      <trkpt lat="43.25049" lon="28.00055">
        <ele>183.9</ele>
      </trkpt>
      <trkpt lat="43.24999" lon="28.00093">
        <ele>181.9</ele>
      </trkpt>
      <trkpt lat="43.24986" lon="28.00104">
        <ele>179.3</ele>
      </trkpt>
      <trkpt lat="43.24972" lon="28.00108">
        <ele>177.5</ele>
      </trkpt>
      <trkpt lat="43.24959" lon="28.00103">
        <ele>176.1</ele>
      </trkpt>
      <trkpt lat="43.24954" lon="28.00094">
        <ele>175.4</ele>
      </trkpt>
      <trkpt lat="43.24952" lon="28.00077">
        <ele>174.6</ele>
      </trkpt>
      <trkpt lat="43.2496" lon="28.00037">
        <ele>174.5</ele>
      </trkpt>
      <trkpt lat="43.24981" lon="27.99968">
        <ele>178.1</ele>
      </trkpt>
      <trkpt lat="43.24989" lon="27.99921">
        <ele>178.2</ele>
      </trkpt>
      <trkpt lat="43.24996" lon="27.99863">
        <ele>175.4</ele>
      </trkpt>
      <trkpt lat="43.25009" lon="27.9983">
        <ele>175.9</ele>
      </trkpt>
      <trkpt lat="43.25037" lon="27.99782">
        <ele>175.6</ele>
      </trkpt>
      <trkpt lat="43.2509" lon="27.99682">
        <ele>170</ele>
      </trkpt>
      <trkpt lat="43.25117" lon="27.99631">
        <ele>166.5</ele>
      </trkpt>
      <trkpt lat="43.25132" lon="27.99612">
        <ele>165.5</ele>
      </trkpt>
      <trkpt lat="43.25173" lon="27.99564">
        <ele>163.1</ele>
      </trkpt>
      <trkpt lat="43.2519" lon="27.99525">
        <ele>161</ele>
      </trkpt>
      <trkpt lat="43.25206" lon="27.99449">
        <ele>159.2</ele>
      </trkpt>
      <trkpt lat="43.25219" lon="27.99346">
        <ele>157.3</ele>
      </trkpt>
      <trkpt lat="43.25219" lon="27.99277">
        <ele>153.9</ele>
      </trkpt>
      <trkpt lat="43.2519" lon="27.99162">
        <ele>149.6</ele>
      </trkpt>
      <trkpt lat="43.25165" lon="27.99087">
        <ele>148.8</ele>
      </trkpt>
      <trkpt lat="43.25122" lon="27.98955">
        <ele>142.8</ele>
      </trkpt>
      <trkpt lat="43.25076" lon="27.98873">
        <ele>137.8</ele>
      </trkpt>
      <trkpt lat="43.24988" lon="27.98773">
        <ele>139.9</ele>
      </trkpt>
      <trkpt lat="43.24945" lon="27.98722">
        <ele>143.4</ele>
      </trkpt>
      <trkpt lat="43.24908" lon="27.98628">
        <ele>148.3</ele>
      </trkpt>
      <trkpt lat="43.24854" lon="27.9848">
        <ele>147.9</ele>
      </trkpt>
      <trkpt lat="43.24783" lon="27.9834">
        <ele>147.4</ele>
      </trkpt>
      <trkpt lat="43.24686" lon="27.98252">
        <ele>147.4</ele>
      </trkpt>
      <trkpt lat="43.24508" lon="27.98086">
        <ele>149</ele>
      </trkpt>
      <trkpt lat="43.24347" lon="27.97917">
        <ele>153</ele>
      </trkpt>
      <trkpt lat="43.24212" lon="27.97761">
        <ele>158</ele>
      </trkpt>
      <trkpt lat="43.24067" lon="27.97603">
        <ele>161.3</ele>
      </trkpt>
      <trkpt lat="43.24022" lon="27.97528">
        <ele>161.5</ele>
      </trkpt>
      <trkpt lat="43.2398" lon="27.97369">
        <ele>164.4</ele>
      </trkpt>
      <trkpt lat="43.23829" lon="27.97064">
        <ele>167.5</ele>
      </trkpt>
      <trkpt lat="43.23758" lon="27.96892">
        <ele>177.2</ele>
      </trkpt>
      <trkpt lat="43.23712" lon="27.9685">
        <ele>178.6</ele>
      </trkpt>
      <trkpt lat="43.23608" lon="27.9682">
        <ele>177.4</ele>
      </trkpt>
      <trkpt lat="43.23198" lon="27.9679">
        <ele>177.6</ele>
      </trkpt>
      <trkpt lat="43.23011" lon="27.96768">
        <ele>171.1</ele>
      </trkpt>
      <trkpt lat="43.22971" lon="27.96745">
        <ele>169.8</ele>
      </trkpt>
      <trkpt lat="43.22938" lon="27.9666">
        <ele>170.4</ele>
      </trkpt>
      <trkpt lat="43.22933" lon="27.96628">
        <ele>171.7</ele>
      </trkpt>
      <trkpt lat="43.22796" lon="27.96563">
        <ele>169.7</ele>
      </trkpt>
      <trkpt lat="43.22724" lon="27.96488">
        <ele>167.6</ele>
      </trkpt>
      <trkpt lat="43.22675" lon="27.9639">
        <ele>168.8</ele>
      </trkpt>
      <trkpt lat="43.22649" lon="27.9627">
        <ele>169.3</ele>
      </trkpt>
      <trkpt lat="43.22644" lon="27.96153">
        <ele>171.5</ele>
      </trkpt>
      <trkpt lat="43.22617" lon="27.96094">
        <ele>170.3</ele>
      </trkpt>
      <trkpt lat="43.22574" lon="27.96048">
        <ele>166.8</ele>
      </trkpt>
      <trkpt lat="43.22553" lon="27.95999">
        <ele>163.6</ele>
      </trkpt>
      <trkpt lat="43.22565" lon="27.95944">
        <ele>159.9</ele>
      </trkpt>
      <trkpt lat="43.22624" lon="27.95866">
        <ele>158</ele>
      </trkpt>
      <trkpt lat="43.227" lon="27.95749">
        <ele>153.3</ele>
      </trkpt>
      <trkpt lat="43.22721" lon="27.95661">
        <ele>152.8</ele>
      </trkpt>
      <trkpt lat="43.22712" lon="27.95573">
        <ele>152.7</ele>
      </trkpt>
      <trkpt lat="43.22659" lon="27.95495">
        <ele>151.9</ele>
      </trkpt>
      <trkpt lat="43.2265" lon="27.95391">
        <ele>149.3</ele>
      </trkpt>
      <trkpt lat="43.22635" lon="27.94986">
        <ele>152.6</ele>
      </trkpt>
      <trkpt lat="43.22616" lon="27.9453">
        <ele>136.8</ele>
      </trkpt>
      <trkpt lat="43.22599" lon="27.94413">
        <ele>129.5</ele>
      </trkpt>
      <trkpt lat="43.2253" lon="27.94264">
        <ele>117.4</ele>
      </trkpt>
      <trkpt lat="43.22438" lon="27.94137">
        <ele>106.7</ele>
      </trkpt>
      <trkpt lat="43.22293" lon="27.93978">
        <ele>95.5</ele>
      </trkpt>
      <trkpt lat="43.22234" lon="27.93908">
        <ele>88.1</ele>
      </trkpt>
      <trkpt lat="43.22241" lon="27.93892">
        <ele>88.3</ele>
      </trkpt>
      <trkpt lat="43.22217" lon="27.93867">
        <ele>87</ele>
      </trkpt>
      <trkpt lat="43.22144" lon="27.9379">
        <ele>83.1</ele>
      </trkpt>
      <trkpt lat="43.22067" lon="27.93709">
        <ele>77</ele>
      </trkpt>
      <trkpt lat="43.22048" lon="27.93694">
        <ele>75.1</ele>
      </trkpt>
      <trkpt lat="43.2202" lon="27.93646">
        <ele>71.7</ele>
      </trkpt>
      <trkpt lat="43.22009" lon="27.93627">
        <ele>70.4</ele>
      </trkpt>
      <trkpt lat="43.21998" lon="27.93592">
        <ele>69.1</ele>
      </trkpt>
      <trkpt lat="43.21973" lon="27.93535">
        <ele>70.2</ele>
      </trkpt>
      <trkpt lat="43.21947" lon="27.93475">
        <ele>70.7</ele>
      </trkpt>
      <trkpt lat="43.21937" lon="27.93442">
        <ele>70.3</ele>
      </trkpt>
      <trkpt lat="43.21938" lon="27.93405">
        <ele>70.5</ele>
      </trkpt>
      <trkpt lat="43.219" lon="27.93397">
        <ele>69</ele>
      </trkpt>
      <trkpt lat="43.21877" lon="27.93393">
        <ele>68.3</ele>
      </trkpt>
      <trkpt lat="43.21853" lon="27.93361">
        <ele>67.8</ele>
      </trkpt>
      <trkpt lat="43.2169" lon="27.93067">
        <ele>64.3</ele>
      </trkpt>
      <trkpt lat="43.21561" lon="27.92832">
        <ele>57.2</ele>
      </trkpt>
      <trkpt lat="43.21518" lon="27.92755">
        <ele>58.8</ele>
      </trkpt>
      <trkpt lat="43.21452" lon="27.92626">
        <ele>55.1</ele>
      </trkpt>
      <trkpt lat="43.21388" lon="27.92548">
        <ele>48.8</ele>
      </trkpt>
      <trkpt lat="43.21311" lon="27.92464">
        <ele>46.1</ele>
      </trkpt>
      <trkpt lat="43.21267" lon="27.92413">
        <ele>45.3</ele>
      </trkpt>
      <trkpt lat="43.21241" lon="27.92455">
        <ele>44.9</ele>
      </trkpt>
      <trkpt lat="43.21201" lon="27.92394">
        <ele>45.3</ele>
      </trkpt>
      <trkpt lat="43.21072" lon="27.92222">
        <ele>42.1</ele>
      </trkpt>
      <trkpt lat="43.21059" lon="27.92231">
        <ele>42.2</ele>
      </trkpt>
      <trkpt lat="43.21038" lon="27.92196">
        <ele>40.8</ele>
      </trkpt>
      <trkpt lat="43.21024" lon="27.92196">
        <ele>40.5</ele>
      </trkpt>
      <trkpt lat="43.20991" lon="27.92154">
        <ele>38.8</ele>
      </trkpt>
      <trkpt lat="43.20991" lon="27.92123">
        <ele>38.7</ele>
      </trkpt>
      <trkpt lat="43.20987" lon="27.92102">
        <ele>38.6</ele>
      </trkpt>
      <trkpt lat="43.20979" lon="27.92062">
        <ele>38.7</ele>
      </trkpt>
      <trkpt lat="43.20899" lon="27.9195">
        <ele>37</ele>
      </trkpt>
      <trkpt lat="43.20821" lon="27.91848">
        <ele>36.1</ele>
      </trkpt>
      <trkpt lat="43.20746" lon="27.91746">
        <ele>42.2</ele>
      </trkpt>
      <trkpt lat="43.20695" lon="27.91619">
        <ele>33.9</ele>
      </trkpt>
      <trkpt lat="43.20545" lon="27.9122">
        <ele>34.1</ele>
      </trkpt>
      <trkpt lat="43.20495" lon="27.91077">
        <ele>34.9</ele>
      </trkpt>
      <trkpt lat="43.20467" lon="27.90826">
        <ele>31.6</ele>
      </trkpt>
      <trkpt lat="43.20451" lon="27.90661">
        <ele>33.2</ele>
      </trkpt>
      <trkpt lat="43.20402" lon="27.90406">
        <ele>28.7</ele>
      </trkpt>
      <trkpt lat="43.20391" lon="27.90235">
        <ele>29.4</ele>
      </trkpt>
      <trkpt lat="43.20374" lon="27.90094">
        <ele>19.1</ele>
      </trkpt>
      <trkpt lat="43.2035" lon="27.89965">
        <ele>17</ele>
      </trkpt>
      <trkpt lat="43.20292" lon="27.89819">
        <ele>16.6</ele>
      </trkpt>
      <trkpt lat="43.2025" lon="27.89714">
        <ele>8.3</ele>
      </trkpt>
      <trkpt lat="43.20177" lon="27.89637">
        <ele>5.9</ele>
      </trkpt>
      <trkpt lat="43.201" lon="27.8959">
        <ele>6</ele>
      </trkpt>
      <trkpt lat="43.20048" lon="27.89588">
        <ele>5.5</ele>
      </trkpt>
      <trkpt lat="43.19914" lon="27.89608">
        <ele>3.6</ele>
      </trkpt>
      <trkpt lat="43.19815" lon="27.8961">
        <ele>5</ele>
      </trkpt>
      <trkpt lat="43.19735" lon="27.8958">
        <ele>2.5</ele>
      </trkpt>
      <trkpt lat="43.19662" lon="27.89536">
        <ele>5</ele>
      </trkpt>
      <trkpt lat="43.19587" lon="27.89468">
        <ele>3.3</ele>
      </trkpt>
      <trkpt lat="43.1952" lon="27.89362">
        <ele>8.8</ele>
      </trkpt>
      <trkpt lat="43.19372" lon="27.89106">
        <ele>10.7</ele>
      </trkpt>
      <trkpt lat="43.19225" lon="27.88835">
        <ele>5</ele>
      </trkpt>
      <trkpt lat="43.19022" lon="27.88469">
      </trkpt>
      <trkpt lat="43.18863" lon="27.88178">
        <ele>19.7</ele>
      </trkpt>
      <trkpt lat="43.18704" lon="27.87889">
        <ele>37.5</ele>
      </trkpt>
      <trkpt lat="43.18687" lon="27.87821">
        <ele>39.8</ele>
      </trkpt>
      <trkpt lat="43.18658" lon="27.87742">
        <ele>41.1</ele>
      </trkpt>
      <trkpt lat="43.18632" lon="27.87709">
        <ele>41.9</ele>
      </trkpt>
      <trkpt lat="43.18577" lon="27.87697">
        <ele>43.3</ele>
      </trkpt>
      <trkpt lat="43.1854" lon="27.87724">
        <ele>44.2</ele>
      </trkpt>
      <trkpt lat="43.18518" lon="27.87755">
        <ele>43.2</ele>
      </trkpt>
      <trkpt lat="43.18495" lon="27.87806">
        <ele>42.4</ele>
      </trkpt>
      <trkpt lat="43.18485" lon="27.87862">
        <ele>43.3</ele>
      </trkpt>
      <trkpt lat="43.18485" lon="27.87937">
        <ele>41.5</ele>
      </trkpt>
      <trkpt lat="43.18496" lon="27.88004">
        <ele>35.4</ele>
      </trkpt>
      <trkpt lat="43.18503" lon="27.88097">
        <ele>28.6</ele>
      </trkpt>
      <trkpt lat="43.18487" lon="27.88161">
        <ele>27.7</ele>
      </trkpt>
      <trkpt lat="43.18457" lon="27.88247">
        <ele>24.2</ele>
      </trkpt>
      <trkpt lat="43.18328" lon="27.88519">
        <ele>19.7</ele>
      </trkpt>
      <trkpt lat="43.18319" lon="27.88614">
        <ele>14.9</ele>
      </trkpt>
      <trkpt lat="43.18341" lon="27.88713">
        <ele>12.5</ele>
      </trkpt>
      <trkpt lat="43.18371" lon="27.88805">
        <ele>9.1</ele>
      </trkpt>
      <trkpt lat="43.18388" lon="27.88902">
        <ele>9.2</ele>
      </trkpt>
      <trkpt lat="43.18387" lon="27.8899">
        <ele>9.8</ele>
      </trkpt>
      <trkpt lat="43.18375" lon="27.89096">
        <ele>6.7</ele>
      </trkpt>
      <trkpt lat="43.18372" lon="27.89208">
        <ele>4.2</ele>
      </trkpt>
      <trkpt lat="43.18377" lon="27.89276">
        <ele>3.2</ele>
      </trkpt>
      <trkpt lat="43.18359" lon="27.893">
        <ele>2.9</ele>
      </trkpt>
      <trkpt lat="43.18349" lon="27.89344">
        <ele>2.8</ele>
      </trkpt>
      <trkpt lat="43.18305" lon="27.89421">
        <ele>3.8</ele>
      </trkpt>
      <trkpt lat="43.18233" lon="27.89516">
        <ele>6.1</ele>
      </trkpt>
      <trkpt lat="43.18176" lon="27.89592">
        <ele>6.8</ele>
      </trkpt>
      <trkpt lat="43.18076" lon="27.89692">
        <ele>9.6</ele>
      </trkpt>
      <trkpt lat="43.18016" lon="27.89729">
        <ele>12.2</ele>
      </trkpt>
      <trkpt lat="43.17905" lon="27.89665">
        <ele>14.1</ele>
      </trkpt>
      <trkpt lat="43.17794" lon="27.89522">
        <ele>21.9</ele>
      </trkpt>
      <trkpt lat="43.17704" lon="27.89355">
        <ele>31.3</ele>
      </trkpt>
      <trkpt lat="43.17636" lon="27.89138">
        <ele>44.1</ele>
      </trkpt>
      <trkpt lat="43.17571" lon="27.88921">
        <ele>55.3</ele>
      </trkpt>
      <trkpt lat="43.17485" lon="27.88763">
        <ele>63.8</ele>
      </trkpt>
      <trkpt lat="43.17362" lon="27.88655">
        <ele>76.1</ele>
      </trkpt>
      <trkpt lat="43.17173" lon="27.88508">
        <ele>95.9</ele>
      </trkpt>
      <trkpt lat="43.17011" lon="27.88458">
        <ele>105.2</ele>
      </trkpt>
      <trkpt lat="43.16693" lon="27.88302">
        <ele>125.3</ele>
      </trkpt>
      <trkpt lat="43.16452" lon="27.88169">
        <ele>137.6</ele>
      </trkpt>
      <trkpt lat="43.16078" lon="27.87967">
        <ele>153.5</ele>
      </trkpt>
      <trkpt lat="43.15898" lon="27.87888">
        <ele>165</ele>
      </trkpt>
      <trkpt lat="43.1584" lon="27.87878">
        <ele>171.2</ele>
      </trkpt>
      <trkpt lat="43.15736" lon="27.87903">
        <ele>180.6</ele>
      </trkpt>
      <trkpt lat="43.15599" lon="27.87986">
        <ele>189</ele>
      </trkpt>
      <trkpt lat="43.1538" lon="27.88174">
        <ele>203.1</ele>
      </trkpt>
      <trkpt lat="43.1511" lon="27.88228">
        <ele>220.3</ele>
      </trkpt>
      <trkpt lat="43.14987" lon="27.88253">
        <ele>221.3</ele>
      </trkpt>
      <trkpt lat="43.14926" lon="27.88149">
        <ele>221</ele>
      </trkpt>
      <trkpt lat="43.14825" lon="27.87927">
        <ele>218.8</ele>
      </trkpt>
      <trkpt lat="43.14814" lon="27.87528">
        <ele>214.3</ele>
      </trkpt>
      <trkpt lat="43.14824" lon="27.87455">
        <ele>215.2</ele>
      </trkpt>
      <trkpt lat="43.14778" lon="27.87223">
        <ele>215.4</ele>
      </trkpt>
      <trkpt lat="43.14717" lon="27.86991">
        <ele>210.9</ele>
      </trkpt>
      <trkpt lat="43.14655" lon="27.86912">
        <ele>204.1</ele>
      </trkpt>
      <trkpt lat="43.14377" lon="27.86744">
        <ele>186.3</ele>
      </trkpt>
      <trkpt lat="43.14302" lon="27.86576">
        <ele>186.6</ele>
      </trkpt>
      <trkpt lat="43.14162" lon="27.86157">
        <ele>190.1</ele>
      </trkpt>
      <trkpt lat="43.14036" lon="27.85773">
        <ele>191</ele>
      </trkpt>
      <trkpt lat="43.14014" lon="27.85659">
        <ele>187.4</ele>
      </trkpt>
      <trkpt lat="43.13988" lon="27.84456">
        <ele>197.2</ele>
      </trkpt>
      <trkpt lat="43.13961" lon="27.83557">
        <ele>214.2</ele>
      </trkpt>
      <trkpt lat="43.1413" lon="27.82659">
        <ele>211.4</ele>
      </trkpt>
      <trkpt lat="43.14131" lon="27.82551">
        <ele>208</ele>
      </trkpt>
      <trkpt lat="43.14065" lon="27.82357">
        <ele>201.4</ele>
      </trkpt>
      <trkpt lat="43.14003" lon="27.82169">
        <ele>200</ele>
      </trkpt>
      <trkpt lat="43.13968" lon="27.82072">
        <ele>199.4</ele>
      </trkpt>
      <trkpt lat="43.13963" lon="27.81957">
        <ele>201.2</ele>
      </trkpt>
      <trkpt lat="43.13906" lon="27.81914">
        <ele>202.3</ele>
      </trkpt>
      <trkpt lat="43.1383" lon="27.8189">
        <ele>205.3</ele>
      </trkpt>
      <trkpt lat="43.13523" lon="27.81676">
        <ele>210</ele>
      </trkpt>
      <trkpt lat="43.12974" lon="27.81288">
        <ele>189.7</ele>
      </trkpt>
      <trkpt lat="43.12837" lon="27.81185">
        <ele>192.4</ele>
      </trkpt>
      <trkpt lat="43.12775" lon="27.81075">
        <ele>193.8</ele>
      </trkpt>
      <trkpt lat="43.12726" lon="27.80936">
        <ele>197.5</ele>
      </trkpt>
      <trkpt lat="43.12673" lon="27.80857">
        <ele>200</ele>
      </trkpt>
      <trkpt lat="43.12584" lon="27.80808">
        <ele>201.9</ele>
      </trkpt>
      <trkpt lat="43.12509" lon="27.80833">
        <ele>200.1</ele>
      </trkpt>
      <trkpt lat="43.12434" lon="27.80899">
        <ele>201.7</ele>
      </trkpt>
      <trkpt lat="43.12336" lon="27.81051">
        <ele>203.3</ele>
      </trkpt>
      <trkpt lat="43.11931" lon="27.81552">
        <ele>193.6</ele>
      </trkpt>
      <trkpt lat="43.11784" lon="27.81917">
        <ele>189.8</ele>
      </trkpt>
      <trkpt lat="43.11663" lon="27.82209">
        <ele>194.9</ele>
      </trkpt>
      <trkpt lat="43.11596" lon="27.82342">
        <ele>194.6</ele>
      </trkpt>
      <trkpt lat="43.11304" lon="27.82743">
        <ele>200.8</ele>
      </trkpt>
      <trkpt lat="43.11198" lon="27.82811">
        <ele>197.1</ele>
      </trkpt>
      <trkpt lat="43.1099" lon="27.82883">
        <ele>194.3</ele>
      </trkpt>
      <trkpt lat="43.10866" lon="27.82993">
        <ele>194.2</ele>
      </trkpt>
      <trkpt lat="43.10656" lon="27.83177">
        <ele>191.1</ele>
      </trkpt>
      <trkpt lat="43.1051" lon="27.83341">
        <ele>186.1</ele>
      </trkpt>
      <trkpt lat="43.10315" lon="27.83602">
        <ele>189.5</ele>
      </trkpt>
      <trkpt lat="43.10044" lon="27.83936">
        <ele>188.6</ele>
      </trkpt>
      <trkpt lat="43.09849" lon="27.84094">
        <ele>179.2</ele>
      </trkpt>
      <trkpt lat="43.09348" lon="27.84548">
        <ele>167.1</ele>
      </trkpt>
      <trkpt lat="43.08885" lon="27.84942">
        <ele>157.4</ele>
      </trkpt>
      <trkpt lat="43.0838" lon="27.85396">
        <ele>154.6</ele>
      </trkpt>
      <trkpt lat="43.08087" lon="27.85493">
        <ele>147.9</ele>
      </trkpt>
      <trkpt lat="43.07805" lon="27.85574">
        <ele>142.5</ele>
      </trkpt>
      <trkpt lat="43.07499" lon="27.85592">
        <ele>130.8</ele>
      </trkpt>
      <trkpt lat="43.07056" lon="27.85624">
        <ele>124.9</ele>
      </trkpt>
      <trkpt lat="43.06745" lon="27.85642">
        <ele>129.4</ele>
      </trkpt>
      <trkpt lat="43.06541" lon="27.85703">
        <ele>128.6</ele>
      </trkpt>
      <trkpt lat="43.06238" lon="27.85828">
        <ele>122.4</ele>
      </trkpt>
      <trkpt lat="43.05941" lon="27.85955">
        <ele>108.5</ele>
      </trkpt>
      <trkpt lat="43.05675" lon="27.86095">
        <ele>100.9</ele>
      </trkpt>
      <trkpt lat="43.05511" lon="27.8607">
        <ele>97.4</ele>
      </trkpt>
      <trkpt lat="43.05117" lon="27.8594">
        <ele>79.6</ele>
      </trkpt>
      <trkpt lat="43.05015" lon="27.8594">
        <ele>74.2</ele>
      </trkpt>
      <trkpt lat="43.04838" lon="27.85843">
        <ele>65.4</ele>
      </trkpt>
      <trkpt lat="43.04762" lon="27.85727">
        <ele>58.4</ele>
      </trkpt>
      <trkpt lat="43.04687" lon="27.85551">
        <ele>50.5</ele>
      </trkpt>
      <trkpt lat="43.04652" lon="27.85458">
        <ele>48.3</ele>
      </trkpt>
      <trkpt lat="43.04567" lon="27.8527">
        <ele>40.3</ele>
      </trkpt>
      <trkpt lat="43.04448" lon="27.85167">
        <ele>28.7</ele>
      </trkpt>
      <trkpt lat="43.04341" lon="27.851">
        <ele>23</ele>
      </trkpt>
      <trkpt lat="43.0415" lon="27.85021">
        <ele>19.4</ele>
      </trkpt>
      <trkpt lat="43.03938" lon="27.84936">
        <ele>11.9</ele>
      </trkpt>
      <trkpt lat="43.03844" lon="27.84833">
        <ele>9</ele>
      </trkpt>
      <trkpt lat="43.03729" lon="27.84645">
        <ele>5.8</ele>
      </trkpt>
      <trkpt lat="43.03645" lon="27.84463">
        <ele>8.9</ele>
      </trkpt>
      <trkpt lat="43.03556" lon="27.84329">
        <ele>10.8</ele>
      </trkpt>
      <trkpt lat="43.03427" lon="27.84202">
        <ele>17.3</ele>
      </trkpt>
      <trkpt lat="43.02879" lon="27.83945">
        <ele>43.2</ele>
      </trkpt>
      <trkpt lat="43.02635" lon="27.83818">
        <ele>52.8</ele>
      </trkpt>
      <trkpt lat="43.02573" lon="27.83751">
        <ele>51.3</ele>
      </trkpt>
      <trkpt lat="43.0252" lon="27.83648">
        <ele>46.3</ele>
      </trkpt>
      <trkpt lat="43.02498" lon="27.8352">
        <ele>41.2</ele>
      </trkpt>
      <trkpt lat="43.02493" lon="27.83253">
        <ele>33.6</ele>
      </trkpt>
      <trkpt lat="43.02484" lon="27.83132">
        <ele>24.6</ele>
      </trkpt>
      <trkpt lat="43.02445" lon="27.8298">
        <ele>12.5</ele>
      </trkpt>
      <trkpt lat="43.02161" lon="27.8247">
        <ele>11.7</ele>
      </trkpt>
      <trkpt lat="43.01872" lon="27.81942">
        <ele>13.3</ele>
      </trkpt>
      <trkpt lat="43.01703" lon="27.81669">
        <ele>12.9</ele>
      </trkpt>
      <trkpt lat="43.0127" lon="27.81183">
        <ele>13.5</ele>
      </trkpt>
      <trkpt lat="43.00787" lon="27.80682">
        <ele>15.9</ele>
      </trkpt>
      <trkpt lat="43.00561" lon="27.8044">
        <ele>4.1</ele>
      </trkpt>
      <trkpt lat="43.0021" lon="27.80082">
        <ele>1.5</ele>
      </trkpt>
      <trkpt lat="42.99908" lon="27.79766">
        <ele>2</ele>
      </trkpt>
      <trkpt lat="42.9978" lon="27.79645">
        <ele>1.6</ele>
      </trkpt>
      <trkpt lat="42.99673" lon="27.79596">
        <ele>1.1</ele>
      </trkpt>
      <trkpt lat="42.99482" lon="27.79541">
        <ele>3.2</ele>
      </trkpt>
      <trkpt lat="42.99196" lon="27.79519">
        <ele>6.3</ele>
      </trkpt>
      <trkpt lat="42.98961" lon="27.79446">
        <ele>16.4</ele>
      </trkpt>
      <trkpt lat="42.989" lon="27.79417">
        <ele>19.6</ele>
      </trkpt>
      <trkpt lat="42.98862" lon="27.79383">
        <ele>21.9</ele>
      </trkpt>
      <trkpt lat="42.9884" lon="27.79337">
        <ele>24.5</ele>
      </trkpt>
      <trkpt lat="42.98835" lon="27.7921">
        <ele>33.7</ele>
      </trkpt>
      <trkpt lat="42.98833" lon="27.78949">
        <ele>43.2</ele>
      </trkpt>
      <trkpt lat="42.98821" lon="27.78896">
        <ele>44.6</ele>
      </trkpt>
      <trkpt lat="42.98794" lon="27.78836">
        <ele>46.3</ele>
      </trkpt>
      <trkpt lat="42.98748" lon="27.78799">
        <ele>47.9</ele>
      </trkpt>
      <trkpt lat="42.98701" lon="27.78797">
        <ele>52.1</ele>
      </trkpt>
      <trkpt lat="42.98664" lon="27.78816">
        <ele>56.5</ele>
      </trkpt>
      <trkpt lat="42.98622" lon="27.7887">
        <ele>61.7</ele>
      </trkpt>
      <trkpt lat="42.98577" lon="27.78953">
        <ele>67.3</ele>
      </trkpt>
      <trkpt lat="42.9853" lon="27.78995">
        <ele>71.7</ele>
      </trkpt>
      <trkpt lat="42.98455" lon="27.78981">
        <ele>74.6</ele>
      </trkpt>
      <trkpt lat="42.98229" lon="27.78951">
        <ele>82.8</ele>
      </trkpt>
      <trkpt lat="42.98136" lon="27.78934">
        <ele>92.4</ele>
      </trkpt>
      <trkpt lat="42.98084" lon="27.78903">
        <ele>100.3</ele>
      </trkpt>
      <trkpt lat="42.98022" lon="27.78867">
        <ele>105.8</ele>
      </trkpt>
      <trkpt lat="42.97972" lon="27.78852">
        <ele>108.9</ele>
      </trkpt>
      <trkpt lat="42.97839" lon="27.78863">
        <ele>113.2</ele>
      </trkpt>
      <trkpt lat="42.97785" lon="27.78872">
        <ele>111.2</ele>
      </trkpt>
      <trkpt lat="42.97735" lon="27.78832">
        <ele>111.6</ele>
      </trkpt>
      <trkpt lat="42.97696" lon="27.78798">
        <ele>109.9</ele>
      </trkpt>
      <trkpt lat="42.97667" lon="27.78756">
        <ele>108.1</ele>
      </trkpt>
      <trkpt lat="42.97652" lon="27.78691">
        <ele>110.9</ele>
      </trkpt>
      <trkpt lat="42.97642" lon="27.78566">
        <ele>116.2</ele>
      </trkpt>
      <trkpt lat="42.97634" lon="27.78444">
        <ele>117.9</ele>
      </trkpt>
      <trkpt lat="42.97609" lon="27.78354">
        <ele>117.7</ele>
      </trkpt>
      <trkpt lat="42.97576" lon="27.78311">
        <ele>119.2</ele>
      </trkpt>
      <trkpt lat="42.97513" lon="27.78279">
        <ele>124.3</ele>
      </trkpt>
      <trkpt lat="42.9744" lon="27.78291">
        <ele>130.6</ele>
      </trkpt>
      <trkpt lat="42.97355" lon="27.78316">
        <ele>136.5</ele>
      </trkpt>
      <trkpt lat="42.97276" lon="27.78339">
        <ele>141.7</ele>
      </trkpt>
      <trkpt lat="42.97221" lon="27.78334">
        <ele>144.6</ele>
      </trkpt>
      <trkpt lat="42.97165" lon="27.78317">
        <ele>148.6</ele>
      </trkpt>
      <trkpt lat="42.97119" lon="27.78286">
        <ele>151.4</ele>
      </trkpt>
      <trkpt lat="42.96998" lon="27.78221">
        <ele>155.1</ele>
      </trkpt>
      <trkpt lat="42.96861" lon="27.78143">
        <ele>164.4</ele>
      </trkpt>
      <trkpt lat="42.96778" lon="27.78115">
        <ele>174.3</ele>
      </trkpt>
      <trkpt lat="42.96687" lon="27.78098">
        <ele>176.6</ele>
      </trkpt>
      <trkpt lat="42.96603" lon="27.7806">
        <ele>174.5</ele>
      </trkpt>
      <trkpt lat="42.96549" lon="27.78012">
        <ele>177.3</ele>
      </trkpt>
      <trkpt lat="42.96482" lon="27.77944">
        <ele>180</ele>
      </trkpt>
      <trkpt lat="42.96443" lon="27.77899">
        <ele>179.4</ele>
      </trkpt>
      <trkpt lat="42.96418" lon="27.77834">
        <ele>179.1</ele>
      </trkpt>
      <trkpt lat="42.96406" lon="27.7778">
        <ele>180.9</ele>
      </trkpt>
      <trkpt lat="42.96397" lon="27.77695">
        <ele>182</ele>
      </trkpt>
      <trkpt lat="42.96397" lon="27.77593">
        <ele>179.7</ele>
      </trkpt>
      <trkpt lat="42.96397" lon="27.77411">
        <ele>175</ele>
      </trkpt>
      <trkpt lat="42.96401" lon="27.77173">
        <ele>170.9</ele>
      </trkpt>
      <trkpt lat="42.96382" lon="27.77105">
        <ele>173.5</ele>
      </trkpt>
      <trkpt lat="42.96353" lon="27.77043">
        <ele>177.1</ele>
      </trkpt>
      <trkpt lat="42.96307" lon="27.76983">
        <ele>179.5</ele>
      </trkpt>
      <trkpt lat="42.96187" lon="27.76862">
        <ele>178.4</ele>
      </trkpt>
      <trkpt lat="42.96141" lon="27.76826">
        <ele>177.3</ele>
      </trkpt>
      <trkpt lat="42.96087" lon="27.76826">
        <ele>174.7</ele>
      </trkpt>
      <trkpt lat="42.96037" lon="27.76829">
        <ele>173.1</ele>
      </trkpt>
      <trkpt lat="42.95969" lon="27.76854">
        <ele>170.1</ele>
      </trkpt>
      <trkpt lat="42.95871" lon="27.76894">
        <ele>168.1</ele>
      </trkpt>
      <trkpt lat="42.95818" lon="27.76911">
        <ele>167.7</ele>
      </trkpt>
      <trkpt lat="42.95766" lon="27.76968">
        <ele>167.1</ele>
      </trkpt>
      <trkpt lat="42.95657" lon="27.77075">
        <ele>166.3</ele>
      </trkpt>
      <trkpt lat="42.95504" lon="27.77238">
        <ele>161.1</ele>
      </trkpt>
      <trkpt lat="42.95328" lon="27.77439">
        <ele>155.7</ele>
      </trkpt>
      <trkpt lat="42.95262" lon="27.77488">
        <ele>154.3</ele>
      </trkpt>
      <trkpt lat="42.95131" lon="27.77569">
        <ele>150.4</ele>
      </trkpt>
      <trkpt lat="42.94932" lon="27.77662">
        <ele>146.1</ele>
      </trkpt>
      <trkpt lat="42.94712" lon="27.77781">
        <ele>140</ele>
      </trkpt>
      <trkpt lat="42.94498" lon="27.77899">
        <ele>122.8</ele>
      </trkpt>
      <trkpt lat="42.94396" lon="27.78029">
        <ele>115.8</ele>
      </trkpt>
      <trkpt lat="42.94242" lon="27.78266">
        <ele>103.8</ele>
      </trkpt>
      <trkpt lat="42.94055" lon="27.78546">
        <ele>95.9</ele>
      </trkpt>
      <trkpt lat="42.93995" lon="27.78594">
        <ele>94.9</ele>
      </trkpt>
      <trkpt lat="42.93935" lon="27.78605">
        <ele>92.9</ele>
      </trkpt>
      <trkpt lat="42.9368" lon="27.78611">
        <ele>80.1</ele>
      </trkpt>
      <trkpt lat="42.93361" lon="27.78617">
        <ele>65.4</ele>
      </trkpt>
      <trkpt lat="42.93309" lon="27.78617">
        <ele>62.8</ele>
      </trkpt>
      <trkpt lat="42.93241" lon="27.78609">
        <ele>59.7</ele>
      </trkpt>
      <trkpt lat="42.93158" lon="27.78586">
        <ele>60.6</ele>
      </trkpt>
      <trkpt lat="42.93036" lon="27.78561">
        <ele>57</ele>
      </trkpt>
      <trkpt lat="42.92976" lon="27.78589">
        <ele>56.5</ele>
      </trkpt>
      <trkpt lat="42.92762" lon="27.78742">
        <ele>64.6</ele>
      </trkpt>
      <trkpt lat="42.92618" lon="27.78854">
        <ele>75.7</ele>
      </trkpt>
      <trkpt lat="42.92587" lon="27.78905">
        <ele>78.4</ele>
      </trkpt>
      <trkpt lat="42.92527" lon="27.79007">
        <ele>86.5</ele>
      </trkpt>
      <trkpt lat="42.92399" lon="27.79178">
        <ele>101.9</ele>
      </trkpt>
      <trkpt lat="42.92283" lon="27.79308">
        <ele>107.8</ele>
      </trkpt>
      <trkpt lat="42.92248" lon="27.79362">
        <ele>109.7</ele>
      </trkpt>
      <trkpt lat="42.92223" lon="27.79453">
        <ele>116.7</ele>
      </trkpt>
      <trkpt lat="42.922" lon="27.79591">
        <ele>124.2</ele>
      </trkpt>
      <trkpt lat="42.92168" lon="27.79769">
        <ele>130.2</ele>
      </trkpt>
      <trkpt lat="42.9211" lon="27.79959">
        <ele>140.1</ele>
      </trkpt>
      <trkpt lat="42.92068" lon="27.80072">
        <ele>143.6</ele>
      </trkpt>
      <trkpt lat="42.92062" lon="27.80177">
        <ele>147.4</ele>
      </trkpt>
      <trkpt lat="42.92072" lon="27.80375">
        <ele>153.1</ele>
      </trkpt>
      <trkpt lat="42.92093" lon="27.80511">
        <ele>158.2</ele>
      </trkpt>
      <trkpt lat="42.92062" lon="27.8063">
        <ele>162.4</ele>
      </trkpt>
      <trkpt lat="42.92027" lon="27.80729">
        <ele>164.7</ele>
      </trkpt>
      <trkpt lat="42.91983" lon="27.80799">
        <ele>166.6</ele>
      </trkpt>
      <trkpt lat="42.91931" lon="27.80904">
        <ele>165.4</ele>
      </trkpt>
      <trkpt lat="42.91906" lon="27.81034">
        <ele>169.8</ele>
      </trkpt>
      <trkpt lat="42.919" lon="27.81218">
        <ele>175.4</ele>
      </trkpt>
      <trkpt lat="42.91886" lon="27.81448">
        <ele>184.9</ele>
      </trkpt>
      <trkpt lat="42.91863" lon="27.81606">
        <ele>190.6</ele>
      </trkpt>
      <trkpt lat="42.91836" lon="27.8177">
        <ele>196.4</ele>
      </trkpt>
      <trkpt lat="42.91803" lon="27.81872">
        <ele>200.2</ele>
      </trkpt>
      <trkpt lat="42.91709" lon="27.82042">
        <ele>203.3</ele>
      </trkpt>
      <trkpt lat="42.91564" lon="27.82345">
        <ele>212.7</ele>
      </trkpt>
      <trkpt lat="42.91529" lon="27.82456">
        <ele>216.3</ele>
      </trkpt>
      <trkpt lat="42.91514" lon="27.82518">
        <ele>216.6</ele>
      </trkpt>
      <trkpt lat="42.91504" lon="27.82651">
        <ele>218.7</ele>
      </trkpt>
      <trkpt lat="42.91477" lon="27.82813">
        <ele>220.4</ele>
      </trkpt>
      <trkpt lat="42.91462" lon="27.82889">
        <ele>219.3</ele>
      </trkpt>
      <trkpt lat="42.91369" lon="27.83121">
        <ele>213.8</ele>
      </trkpt>
      <trkpt lat="42.91261" lon="27.83423">
        <ele>212.8</ele>
      </trkpt>
      <trkpt lat="42.91202" lon="27.83545">
        <ele>209.6</ele>
      </trkpt>
      <trkpt lat="42.91146" lon="27.83675">
        <ele>206.5</ele>
      </trkpt>
      <trkpt lat="42.9112" lon="27.83763">
        <ele>202.9</ele>
      </trkpt>
      <trkpt lat="42.91096" lon="27.83882">
        <ele>198.2</ele>
      </trkpt>
      <trkpt lat="42.91032" lon="27.84006">
        <ele>192.9</ele>
      </trkpt>
      <trkpt lat="42.90997" lon="27.8406">
        <ele>191.4</ele>
      </trkpt>
      <trkpt lat="42.90936" lon="27.84086">
        <ele>186.6</ele>
      </trkpt>
      <trkpt lat="42.90824" lon="27.84125">
        <ele>181.6</ele>
      </trkpt>
      <trkpt lat="42.90731" lon="27.8417">
        <ele>180</ele>
      </trkpt>
      <trkpt lat="42.90588" lon="27.84264">
        <ele>177.6</ele>
      </trkpt>
      <trkpt lat="42.90419" lon="27.84363">
        <ele>177</ele>
      </trkpt>
      <trkpt lat="42.90305" lon="27.84447">
        <ele>179.4</ele>
      </trkpt>
      <trkpt lat="42.90262" lon="27.8449">
        <ele>181.4</ele>
      </trkpt>
      <trkpt lat="42.90144" lon="27.84659">
        <ele>182.9</ele>
      </trkpt>
      <trkpt lat="42.90022" lon="27.84885">
        <ele>183.4</ele>
      </trkpt>
      <trkpt lat="42.89907" lon="27.85086">
        <ele>178</ele>
      </trkpt>
      <trkpt lat="42.89847" lon="27.85199">
        <ele>176.4</ele>
      </trkpt>
      <trkpt lat="42.8983" lon="27.85256">
        <ele>175.6</ele>
      </trkpt>
      <trkpt lat="42.8982" lon="27.85318">
        <ele>176</ele>
      </trkpt>
      <trkpt lat="42.89813" lon="27.85423">
        <ele>172.4</ele>
      </trkpt>
      <trkpt lat="42.89802" lon="27.8552">
        <ele>169.4</ele>
      </trkpt>
      <trkpt lat="42.89758" lon="27.85622">
        <ele>164.8</ele>
      </trkpt>
      <trkpt lat="42.89711" lon="27.85659">
        <ele>163.1</ele>
      </trkpt>
      <trkpt lat="42.89642" lon="27.8571">
        <ele>160.3</ele>
      </trkpt>
      <trkpt lat="42.89595" lon="27.85752">
        <ele>158.6</ele>
      </trkpt>
      <trkpt lat="42.89555" lon="27.85789">
        <ele>157.9</ele>
      </trkpt>
      <trkpt lat="42.89478" lon="27.85914">
        <ele>156.9</ele>
      </trkpt>
      <trkpt lat="42.8937" lon="27.86071">
        <ele>153.1</ele>
      </trkpt>
      <trkpt lat="42.89332" lon="27.86139">
        <ele>152.4</ele>
      </trkpt>
      <trkpt lat="42.8931" lon="27.86224">
        <ele>151.7</ele>
      </trkpt>
      <trkpt lat="42.89262" lon="27.86354">
        <ele>153.7</ele>
      </trkpt>
      <trkpt lat="42.89229" lon="27.86442">
        <ele>148.8</ele>
      </trkpt>
      <trkpt lat="42.89193" lon="27.86515">
        <ele>148.1</ele>
      </trkpt>
      <trkpt lat="42.89081" lon="27.86738">
        <ele>146.1</ele>
      </trkpt>
      <trkpt lat="42.89042" lon="27.86823">
        <ele>138.7</ele>
      </trkpt>
      <trkpt lat="42.88996" lon="27.86942">
        <ele>133.3</ele>
      </trkpt>
      <trkpt lat="42.88911" lon="27.87187">
        <ele>128.3</ele>
      </trkpt>
      <trkpt lat="42.88834" lon="27.874">
        <ele>120</ele>
      </trkpt>
      <trkpt lat="42.88736" lon="27.87603">
        <ele>117</ele>
      </trkpt>
      <trkpt lat="42.88682" lon="27.87733">
        <ele>114.5</ele>
      </trkpt>
      <trkpt lat="42.88624" lon="27.87844">
        <ele>114.3</ele>
      </trkpt>
      <trkpt lat="42.8856" lon="27.88022">
        <ele>114</ele>
      </trkpt>
      <trkpt lat="42.88514" lon="27.8815">
        <ele>112.5</ele>
      </trkpt>
      <trkpt lat="42.88475" lon="27.88198">
        <ele>111.8</ele>
      </trkpt>
      <trkpt lat="42.88431" lon="27.88223">
        <ele>110.7</ele>
      </trkpt>
      <trkpt lat="42.88301" lon="27.88207">
        <ele>108.2</ele>
      </trkpt>
      <trkpt lat="42.88164" lon="27.88179">
        <ele>109</ele>
      </trkpt>
      <trkpt lat="42.88" lon="27.88122">
        <ele>111.7</ele>
      </trkpt>
      <trkpt lat="42.8785" lon="27.88078">
        <ele>113.8</ele>
      </trkpt>
      <trkpt lat="42.87693" lon="27.88069">
        <ele>112.8</ele>
      </trkpt>
      <trkpt lat="42.87543" lon="27.88065">
        <ele>117.9</ele>
      </trkpt>
      <trkpt lat="42.87452" lon="27.88096">
        <ele>116.7</ele>
      </trkpt>
      <trkpt lat="42.87317" lon="27.88173">
        <ele>111.7</ele>
      </trkpt>
      <trkpt lat="42.87203" lon="27.88232">
        <ele>111.1</ele>
      </trkpt>
      <trkpt lat="42.8693" lon="27.88384">
        <ele>107.6</ele>
      </trkpt>
      <trkpt lat="42.8655" lon="27.88614">
        <ele>99.8</ele>
      </trkpt>
      <trkpt lat="42.86452" lon="27.88651">
        <ele>92.3</ele>
      </trkpt>
      <trkpt lat="42.86354" lon="27.8872">
        <ele>87.8</ele>
      </trkpt>
      <trkpt lat="42.86267" lon="27.8872">
        <ele>83.8</ele>
      </trkpt>
      <trkpt lat="42.86037" lon="27.8866">
        <ele>66</ele>
      </trkpt>
      <trkpt lat="42.85745" lon="27.8857">
        <ele>52.6</ele>
      </trkpt>
      <trkpt lat="42.85238" lon="27.88402">
        <ele>30.8</ele>
      </trkpt>
      <trkpt lat="42.85034" lon="27.88339">
        <ele>32.3</ele>
      </trkpt>
      <trkpt lat="42.8491" lon="27.88292">
        <ele>29.4</ele>
      </trkpt>
      <trkpt lat="42.84774" lon="27.88194">
        <ele>30</ele>
      </trkpt>
      <trkpt lat="42.8462" lon="27.88029">
        <ele>32.7</ele>
      </trkpt>
      <trkpt lat="42.84373" lon="27.87747">
        <ele>23.1</ele>
      </trkpt>
      <trkpt lat="42.84269" lon="27.87656">
        <ele>9.3</ele>
      </trkpt>
      <trkpt lat="42.84159" lon="27.87617">
        <ele>3.2</ele>
      </trkpt>
      <trkpt lat="42.83872" lon="27.87627">
        <ele>1</ele>
      </trkpt>
      <trkpt lat="42.83531" lon="27.87647">
        <ele>1.8</ele>
      </trkpt>
      <trkpt lat="42.83197" lon="27.87663">
        <ele>1</ele>
      </trkpt>
      <trkpt lat="42.82696" lon="27.87688">
        <ele>1.8</ele>
      </trkpt>
      <trkpt lat="42.8257" lon="27.87689">
        <ele>3.4</ele>
      </trkpt>
      <trkpt lat="42.82491" lon="27.87726">
        <ele>6</ele>
      </trkpt>
      <trkpt lat="42.82395" lon="27.87794">
        <ele>10</ele>
      </trkpt>
      <trkpt lat="42.82285" lon="27.87862">
        <ele>15.1</ele>
      </trkpt>
      <trkpt lat="42.82229" lon="27.8787">
        <ele>17.7</ele>
      </trkpt>
      <trkpt lat="42.82181" lon="27.87887">
        <ele>19.9</ele>
      </trkpt>
      <trkpt lat="42.82049" lon="27.88005">
        <ele>23.9</ele>
      </trkpt>
      <trkpt lat="42.81971" lon="27.87997">
        <ele>28.9</ele>
      </trkpt>
      <trkpt lat="42.81775" lon="27.87991">
        <ele>36</ele>
      </trkpt>
      <trkpt lat="42.81595" lon="27.87827">
        <ele>43.1</ele>
      </trkpt>
      <trkpt lat="42.81461" lon="27.87856">
        <ele>45.9</ele>
      </trkpt>
      <trkpt lat="42.81378" lon="27.87837">
        <ele>48.8</ele>
      </trkpt>
      <trkpt lat="42.81132" lon="27.87669">
        <ele>54.9</ele>
      </trkpt>
      <trkpt lat="42.80958" lon="27.87571">
        <ele>55.9</ele>
      </trkpt>
      <trkpt lat="42.80666" lon="27.87511">
        <ele>58.1</ele>
      </trkpt>
      <trkpt lat="42.80575" lon="27.87595">
        <ele>54.4</ele>
      </trkpt>
      <trkpt lat="42.8021" lon="27.88163">
        <ele>27.1</ele>
      </trkpt>
      <trkpt lat="42.80124" lon="27.88183">
        <ele>28.9</ele>
      </trkpt>
      <trkpt lat="42.80011" lon="27.8804">
        <ele>38</ele>
      </trkpt>
      <trkpt lat="42.79763" lon="27.87757">
        <ele>56.3</ele>
      </trkpt>
      <trkpt lat="42.79358" lon="27.8754">
        <ele>79.1</ele>
      </trkpt>
      <trkpt lat="42.79305" lon="27.87538">
        <ele>83.5</ele>
      </trkpt>
      <trkpt lat="42.79175" lon="27.87685">
        <ele>89</ele>
      </trkpt>
      <trkpt lat="42.79066" lon="27.87848">
        <ele>102.4</ele>
      </trkpt>
      <trkpt lat="42.78921" lon="27.8806">
        <ele>110.6</ele>
      </trkpt>
      <trkpt lat="42.78806" lon="27.88144">
        <ele>115.3</ele>
      </trkpt>
      <trkpt lat="42.78744" lon="27.88129">
        <ele>119.1</ele>
      </trkpt>
      <trkpt lat="42.78708" lon="27.8805">
        <ele>123.4</ele>
      </trkpt>
      <trkpt lat="42.78596" lon="27.87789">
        <ele>123.9</ele>
      </trkpt>
      <trkpt lat="42.78599" lon="27.87212">
        <ele>119.1</ele>
      </trkpt>
      <trkpt lat="42.78596" lon="27.87163">
        <ele>117.5</ele>
      </trkpt>
      <trkpt lat="42.78549" lon="27.87143">
        <ele>119.2</ele>
      </trkpt>
      <trkpt lat="42.78509" lon="27.87178">
        <ele>119.5</ele>
      </trkpt>
      <trkpt lat="42.78462" lon="27.87222">
        <ele>123.2</ele>
      </trkpt>
      <trkpt lat="42.78437" lon="27.87301">
        <ele>121.6</ele>
      </trkpt>
      <trkpt lat="42.78386" lon="27.8734">
        <ele>124.9</ele>
      </trkpt>
      <trkpt lat="42.7829" lon="27.87403">
        <ele>130.2</ele>
      </trkpt>
      <trkpt lat="42.78203" lon="27.87526">
        <ele>131.3</ele>
      </trkpt>
      <trkpt lat="42.78095" lon="27.87654">
        <ele>136.1</ele>
      </trkpt>
      <trkpt lat="42.78026" lon="27.87654">
        <ele>140.4</ele>
      </trkpt>
      <trkpt lat="42.7799" lon="27.876">
        <ele>143.2</ele>
      </trkpt>
      <trkpt lat="42.77961" lon="27.87472">
        <ele>145.3</ele>
      </trkpt>
      <trkpt lat="42.77881" lon="27.87102">
        <ele>148</ele>
      </trkpt>
      <trkpt lat="42.77811" lon="27.87035">
        <ele>148.7</ele>
      </trkpt>
      <trkpt lat="42.77767" lon="27.87035">
        <ele>146.6</ele>
      </trkpt>
      <trkpt lat="42.77717" lon="27.87064">
        <ele>144</ele>
      </trkpt>
      <trkpt lat="42.77684" lon="27.87104">
        <ele>141.6</ele>
      </trkpt>
      <trkpt lat="42.7748" lon="27.8731">
        <ele>133.6</ele>
      </trkpt>
      <trkpt lat="42.77227" lon="27.87665">
        <ele>123.9</ele>
      </trkpt>
      <trkpt lat="42.76908" lon="27.88074">
        <ele>116.4</ele>
      </trkpt>
      <trkpt lat="42.76821" lon="27.88084">
        <ele>115.6</ele>
      </trkpt>
      <trkpt lat="42.76771" lon="27.88054">
        <ele>113.7</ele>
      </trkpt>
      <trkpt lat="42.76706" lon="27.87956">
        <ele>108.3</ele>
      </trkpt>
      <trkpt lat="42.7655" lon="27.87719">
        <ele>91.4</ele>
      </trkpt>
      <trkpt lat="42.76514" lon="27.87463">
        <ele>80.6</ele>
      </trkpt>
      <trkpt lat="42.7628" lon="27.86759">
        <ele>32</ele>
      </trkpt>
      <trkpt lat="42.76247" lon="27.86492">
        <ele>31.4</ele>
      </trkpt>
      <trkpt lat="42.76417" lon="27.86073">
        <ele>34.8</ele>
      </trkpt>
      <trkpt lat="42.76573" lon="27.85709">
        <ele>38.1</ele>
      </trkpt>
      <trkpt lat="42.76461" lon="27.85378">
        <ele>39.1</ele>
      </trkpt>
      <trkpt lat="42.76475" lon="27.8528">
        <ele>45.4</ele>
      </trkpt>
      <trkpt lat="42.76696" lon="27.84974">
        <ele>62.9</ele>
      </trkpt>
      <trkpt lat="42.76783" lon="27.84649">
        <ele>81.2</ele>
      </trkpt>
      <trkpt lat="42.76761" lon="27.83954">
        <ele>106.9</ele>
      </trkpt>
      <trkpt lat="42.77247" lon="27.8308">
        <ele>141.9</ele>
      </trkpt>
      <trkpt lat="42.77381" lon="27.82775">
        <ele>151.4</ele>
      </trkpt>
      <trkpt lat="42.77526" lon="27.82479">
        <ele>161.2</ele>
      </trkpt>
      <trkpt lat="42.77575" lon="27.81997">
        <ele>176.7</ele>
      </trkpt>
      <trkpt lat="42.77525" lon="27.81745">
        <ele>182.3</ele>
      </trkpt>
      <trkpt lat="42.77442" lon="27.81637">
        <ele>186.5</ele>
      </trkpt>
      <trkpt lat="42.77326" lon="27.81592">
        <ele>193.7</ele>
      </trkpt>
      <trkpt lat="42.77217" lon="27.81612">
        <ele>196.8</ele>
      </trkpt>
      <trkpt lat="42.77116" lon="27.81691">
        <ele>196.9</ele>
      </trkpt>
      <trkpt lat="42.77065" lon="27.81716">
        <ele>197.6</ele>
      </trkpt>
      <trkpt lat="42.77054" lon="27.81671">
        <ele>201.7</ele>
      </trkpt>
      <trkpt lat="42.77062" lon="27.81617">
        <ele>206.9</ele>
      </trkpt>
      <trkpt lat="42.77112" lon="27.81573">
        <ele>207.5</ele>
      </trkpt>
      <trkpt lat="42.77156" lon="27.81538">
        <ele>207.6</ele>
      </trkpt>
      <trkpt lat="42.77296" lon="27.81106">
        <ele>222</ele>
      </trkpt>
      <trkpt lat="42.7777" lon="27.79775">
        <ele>236.6</ele>
      </trkpt>
      <trkpt lat="42.77809" lon="27.79578">
        <ele>236.8</ele>
      </trkpt>
      <trkpt lat="42.7778" lon="27.7942">
        <ele>234.6</ele>
      </trkpt>
      <trkpt lat="42.77668" lon="27.79233">
        <ele>242.3</ele>
      </trkpt>
      <trkpt lat="42.77563" lon="27.79104">
        <ele>253.5</ele>
      </trkpt>
      <trkpt lat="42.7748" lon="27.79178">
        <ele>258.3</ele>
      </trkpt>
      <trkpt lat="42.77379" lon="27.79169">
        <ele>268</ele>
      </trkpt>
      <trkpt lat="42.77296" lon="27.79124">
        <ele>280.7</ele>
      </trkpt>
      <trkpt lat="42.77274" lon="27.79159">
        <ele>277.8</ele>
      </trkpt>
      <trkpt lat="42.77252" lon="27.79203">
        <ele>280.5</ele>
      </trkpt>
      <trkpt lat="42.77259" lon="27.79292">
        <ele>283.8</ele>
      </trkpt>
      <trkpt lat="42.77274" lon="27.79385">
        <ele>281.7</ele>
      </trkpt>
      <trkpt lat="42.77238" lon="27.79425">
        <ele>284.7</ele>
      </trkpt>
      <trkpt lat="42.77169" lon="27.79435">
        <ele>287.7</ele>
      </trkpt>
      <trkpt lat="42.77147" lon="27.79366">
        <ele>292.5</ele>
      </trkpt>
      <trkpt lat="42.77078" lon="27.79243">
        <ele>302.5</ele>
      </trkpt>
      <trkpt lat="42.76955" lon="27.79302">
        <ele>308.8</ele>
      </trkpt>
      <trkpt lat="42.76876" lon="27.79341">
        <ele>306.7</ele>
      </trkpt>
      <trkpt lat="42.76832" lon="27.79247">
        <ele>319.2</ele>
      </trkpt>
      <trkpt lat="42.76711" lon="27.78914">
        <ele>338.3</ele>
      </trkpt>
      <trkpt lat="42.76625" lon="27.7881">
        <ele>349.5</ele>
      </trkpt>
      <trkpt lat="42.76567" lon="27.78776">
        <ele>351</ele>
      </trkpt>
      <trkpt lat="42.76556" lon="27.78702">
        <ele>357.1</ele>
      </trkpt>
      <trkpt lat="42.76635" lon="27.78638">
        <ele>363.2</ele>
      </trkpt>
      <trkpt lat="42.76749" lon="27.7856">
        <ele>371</ele>
      </trkpt>
      <trkpt lat="42.76823" lon="27.78466">
        <ele>374.2</ele>
      </trkpt>
      <trkpt lat="42.76945" lon="27.78378">
        <ele>383.3</ele>
      </trkpt>
      <trkpt lat="42.77008" lon="27.78265">
        <ele>385</ele>
      </trkpt>
      <trkpt lat="42.77362" lon="27.77562">
        <ele>398.3</ele>
      </trkpt>
      <trkpt lat="42.77544" lon="27.77179">
        <ele>404.9</ele>
      </trkpt>
      <trkpt lat="42.77556" lon="27.77091">
        <ele>410.9</ele>
      </trkpt>
      <trkpt lat="42.77546" lon="27.77022">
        <ele>412.8</ele>
      </trkpt>
      <trkpt lat="42.77513" lon="27.7693">
        <ele>416.8</ele>
      </trkpt>
      <trkpt lat="42.77406" lon="27.76755">
        <ele>432.6</ele>
      </trkpt>
      <trkpt lat="42.77363" lon="27.76746">
        <ele>433.2</ele>
      </trkpt>
      <trkpt lat="42.77299" lon="27.76763">
        <ele>431.9</ele>
      </trkpt>
      <trkpt lat="42.77171" lon="27.76817">
        <ele>429.6</ele>
      </trkpt>
      <trkpt lat="42.77131" lon="27.76783">
        <ele>427.2</ele>
      </trkpt>
      <trkpt lat="42.77129" lon="27.76726">
        <ele>427</ele>
      </trkpt>
      <trkpt lat="42.7714" lon="27.76659">
        <ele>426.5</ele>
      </trkpt>
      <trkpt lat="42.77205" lon="27.76531">
        <ele>423</ele>
      </trkpt>
      <trkpt lat="42.77214" lon="27.76467">
        <ele>420.4</ele>
      </trkpt>
      <trkpt lat="42.77213" lon="27.76398">
        <ele>417.7</ele>
      </trkpt>
      <trkpt lat="42.77115" lon="27.76247">
        <ele>404.7</ele>
      </trkpt>
      <trkpt lat="42.77063" lon="27.7619">
        <ele>400.6</ele>
      </trkpt>
      <trkpt lat="42.7702" lon="27.76158">
        <ele>397.2</ele>
      </trkpt>
      <trkpt lat="42.76985" lon="27.76121">
        <ele>395.3</ele>
      </trkpt>
      <trkpt lat="42.76927" lon="27.7605">
        <ele>394.3</ele>
      </trkpt>
      <trkpt lat="42.7688" lon="27.76022">
        <ele>396</ele>
      </trkpt>
      <trkpt lat="42.76846" lon="27.76011">
        <ele>398.5</ele>
      </trkpt>
      <trkpt lat="42.76625" lon="27.76174">
        <ele>411.6</ele>
      </trkpt>
      <trkpt lat="42.76593" lon="27.76167">
        <ele>415.2</ele>
      </trkpt>
      <trkpt lat="42.76575" lon="27.76142">
        <ele>415.8</ele>
      </trkpt>
      <trkpt lat="42.76568" lon="27.76105">
        <ele>416.8</ele>
      </trkpt>
      <trkpt lat="42.76586" lon="27.76024">
        <ele>423.8</ele>
      </trkpt>
      <trkpt lat="42.76613" lon="27.75903">
        <ele>428.4</ele>
      </trkpt>
      <trkpt lat="42.76611" lon="27.75836">
        <ele>430.3</ele>
      </trkpt>
      <trkpt lat="42.76599" lon="27.7581">
        <ele>431.5</ele>
      </trkpt>
      <trkpt lat="42.76552" lon="27.758">
        <ele>433.6</ele>
      </trkpt>
      <trkpt lat="42.76501" lon="27.75798">
        <ele>436.1</ele>
      </trkpt>
      <trkpt lat="42.7647" lon="27.75778">
        <ele>436.5</ele>
      </trkpt>
      <trkpt lat="42.76452" lon="27.75734">
        <ele>436.9</ele>
      </trkpt>
      <trkpt lat="42.76438" lon="27.75655">
        <ele>435.4</ele>
      </trkpt>
      <trkpt lat="42.76443" lon="27.75603">
        <ele>434.5</ele>
      </trkpt>
      <trkpt lat="42.76476" lon="27.75514">
        <ele>432.8</ele>
      </trkpt>
      <trkpt lat="42.76508" lon="27.75401">
        <ele>429.5</ele>
      </trkpt>
      <trkpt lat="42.76467" lon="27.75334">
        <ele>425.6</ele>
      </trkpt>
      <trkpt lat="42.76432" lon="27.75305">
        <ele>426.3</ele>
      </trkpt>
      <trkpt lat="42.76393" lon="27.75307">
        <ele>426.7</ele>
      </trkpt>
      <trkpt lat="42.76215" lon="27.75314">
        <ele>434.8</ele>
      </trkpt>
      <trkpt lat="42.76135" lon="27.75289">
        <ele>439.1</ele>
      </trkpt>
      <trkpt lat="42.75992" lon="27.75233">
        <ele>446.3</ele>
      </trkpt>
      <trkpt lat="42.7594" lon="27.75233">
        <ele>448.7</ele>
      </trkpt>
      <trkpt lat="42.75859" lon="27.75284">
        <ele>447.3</ele>
      </trkpt>
      <trkpt lat="42.75807" lon="27.75324">
        <ele>445.4</ele>
      </trkpt>
      <trkpt lat="42.75734" lon="27.75371">
        <ele>444</ele>
      </trkpt>
      <trkpt lat="42.75685" lon="27.75442">
        <ele>444.9</ele>
      </trkpt>
      <trkpt lat="42.75516" lon="27.75479">
        <ele>449.6</ele>
      </trkpt>
      <trkpt lat="42.75402" lon="27.75524">
        <ele>451.4</ele>
      </trkpt>
      <trkpt lat="42.75355" lon="27.75531">
        <ele>450.4</ele>
      </trkpt>
      <trkpt lat="42.75323" lon="27.75506">
        <ele>446.5</ele>
      </trkpt>
      <trkpt lat="42.75314" lon="27.75469">
        <ele>444</ele>
      </trkpt>
      <trkpt lat="42.75323" lon="27.75437">
        <ele>442.2</ele>
      </trkpt>
      <trkpt lat="42.75372" lon="27.75339">
        <ele>433.7</ele>
      </trkpt>
      <trkpt lat="42.75376" lon="27.75314">
        <ele>430.3</ele>
      </trkpt>
      <trkpt lat="42.75365" lon="27.75297">
        <ele>429</ele>
      </trkpt>
      <trkpt lat="42.75313" lon="27.75294">
        <ele>431</ele>
      </trkpt>
      <trkpt lat="42.75112" lon="27.75301">
        <ele>421.6</ele>
      </trkpt>
      <trkpt lat="42.75041" lon="27.75304">
        <ele>415</ele>
      </trkpt>
      <trkpt lat="42.74946" lon="27.75343">
        <ele>405.8</ele>
      </trkpt>
      <trkpt lat="42.74843" lon="27.75347">
        <ele>402.5</ele>
      </trkpt>
      <trkpt lat="42.74693" lon="27.7533">
        <ele>398.5</ele>
      </trkpt>
      <trkpt lat="42.74686" lon="27.75288">
        <ele>396.4</ele>
      </trkpt>
      <trkpt lat="42.74706" lon="27.75237">
        <ele>393.9</ele>
      </trkpt>
      <trkpt lat="42.74767" lon="27.75143">
        <ele>388.6</ele>
      </trkpt>
      <trkpt lat="42.74836" lon="27.74961">
        <ele>379</ele>
      </trkpt>
      <trkpt lat="42.74832" lon="27.74887">
        <ele>375.1</ele>
      </trkpt>
      <trkpt lat="42.74809" lon="27.74766">
        <ele>365.2</ele>
      </trkpt>
      <trkpt lat="42.74789" lon="27.74707">
        <ele>360.9</ele>
      </trkpt>
      <trkpt lat="42.74738" lon="27.74618">
        <ele>356.1</ele>
      </trkpt>
      <trkpt lat="42.74626" lon="27.7442">
        <ele>348.1</ele>
      </trkpt>
      <trkpt lat="42.74602" lon="27.74368">
        <ele>345.2</ele>
      </trkpt>
      <trkpt lat="42.74572" lon="27.74269">
        <ele>342.8</ele>
      </trkpt>
      <trkpt lat="42.74523" lon="27.74144">
        <ele>342</ele>
      </trkpt>
      <trkpt lat="42.74438" lon="27.73976">
        <ele>340.1</ele>
      </trkpt>
      <trkpt lat="42.74313" lon="27.73926">
        <ele>331.1</ele>
      </trkpt>
      <trkpt lat="42.74137" lon="27.73875">
        <ele>318.6</ele>
      </trkpt>
      <trkpt lat="42.73935" lon="27.73854">
        <ele>305.2</ele>
      </trkpt>
      <trkpt lat="42.73768" lon="27.73853">
        <ele>296.2</ele>
      </trkpt>
      <trkpt lat="42.73687" lon="27.73897">
        <ele>280.9</ele>
      </trkpt>
      <trkpt lat="42.736" lon="27.73932">
        <ele>268.4</ele>
      </trkpt>
      <trkpt lat="42.73509" lon="27.7386">
        <ele>274.5</ele>
      </trkpt>
      <trkpt lat="42.73451" lon="27.73868">
        <ele>265.5</ele>
      </trkpt>
      <trkpt lat="42.73415" lon="27.73885">
        <ele>255.2</ele>
      </trkpt>
      <trkpt lat="42.73321" lon="27.73868">
        <ele>257.5</ele>
      </trkpt>
      <trkpt lat="42.73234" lon="27.73895">
        <ele>248.6</ele>
      </trkpt>
      <trkpt lat="42.73142" lon="27.73946">
        <ele>233.6</ele>
      </trkpt>
      <trkpt lat="42.73026" lon="27.73986">
        <ele>223.1</ele>
      </trkpt>
      <trkpt lat="42.72957" lon="27.73981">
        <ele>218.3</ele>
      </trkpt>
      <trkpt lat="42.72802" lon="27.73924">
        <ele>211.2</ele>
      </trkpt>
      <trkpt lat="42.72721" lon="27.73921">
        <ele>204.5</ele>
      </trkpt>
      <trkpt lat="42.72657" lon="27.73956">
        <ele>189.1</ele>
      </trkpt>
      <trkpt lat="42.72614" lon="27.73948">
        <ele>185</ele>
      </trkpt>
      <trkpt lat="42.72576" lon="27.73916">
        <ele>185.8</ele>
      </trkpt>
      <trkpt lat="42.72558" lon="27.73867">
        <ele>184.3</ele>
      </trkpt>
      <trkpt lat="42.72552" lon="27.73808">
        <ele>185.1</ele>
      </trkpt>
      <trkpt lat="42.72556" lon="27.73759">
        <ele>185.8</ele>
      </trkpt>
      <trkpt lat="42.72548" lon="27.73745">
        <ele>182.9</ele>
      </trkpt>
      <trkpt lat="42.7253" lon="27.73755">
        <ele>178</ele>
      </trkpt>
      <trkpt lat="42.72521" lon="27.73785">
        <ele>175.4</ele>
      </trkpt>
      <trkpt lat="42.7252" lon="27.73923">
        <ele>167.5</ele>
      </trkpt>
      <trkpt lat="42.72502" lon="27.73938">
        <ele>158.8</ele>
      </trkpt>
      <trkpt lat="42.72489" lon="27.73919">
        <ele>160</ele>
      </trkpt>
      <trkpt lat="42.72475" lon="27.73869">
        <ele>160.8</ele>
      </trkpt>
      <trkpt lat="42.72461" lon="27.73684">
        <ele>153.9</ele>
      </trkpt>
      <trkpt lat="42.72452" lon="27.73369">
        <ele>134.9</ele>
      </trkpt>
      <trkpt lat="42.72422" lon="27.73238">
        <ele>130</ele>
      </trkpt>
      <trkpt lat="42.72412" lon="27.7317">
        <ele>122.8</ele>
      </trkpt>
      <trkpt lat="42.72401" lon="27.73055">
        <ele>118.2</ele>
      </trkpt>
      <trkpt lat="42.72375" lon="27.72973">
        <ele>113.3</ele>
      </trkpt>
      <trkpt lat="42.72343" lon="27.72924">
        <ele>109.1</ele>
      </trkpt>
      <trkpt lat="42.72278" lon="27.72886">
        <ele>104</ele>
      </trkpt>
      <trkpt lat="42.7221" lon="27.72852">
        <ele>99.2</ele>
      </trkpt>
      <trkpt lat="42.72105" lon="27.72761">
        <ele>89.1</ele>
      </trkpt>
      <trkpt lat="42.72006" lon="27.7267">
        <ele>80.5</ele>
      </trkpt>
      <trkpt lat="42.71927" lon="27.72534">
        <ele>69.3</ele>
      </trkpt>
      <trkpt lat="42.71761" lon="27.72404">
        <ele>57.5</ele>
      </trkpt>
      <trkpt lat="42.71729" lon="27.7231">
        <ele>51.8</ele>
      </trkpt>
      <trkpt lat="42.7169" lon="27.72254">
        <ele>47.3</ele>
      </trkpt>
      <trkpt lat="42.71641" lon="27.72211">
        <ele>42.3</ele>
      </trkpt>
      <trkpt lat="42.71467" lon="27.7223">
        <ele>30.1</ele>
      </trkpt>
      <trkpt lat="42.7143" lon="27.72238">
        <ele>27.5</ele>
      </trkpt>
      <trkpt lat="42.71396" lon="27.72287">
        <ele>25.3</ele>
      </trkpt>
      <trkpt lat="42.71346" lon="27.7235">
        <ele>22.5</ele>
      </trkpt>
      <trkpt lat="42.71291" lon="27.72384">
        <ele>22.1</ele>
      </trkpt>
      <trkpt lat="42.71219" lon="27.72412">
        <ele>19.1</ele>
      </trkpt>
      <trkpt lat="42.71161" lon="27.72407">
        <ele>12.7</ele>
      </trkpt>
      <trkpt lat="42.7111" lon="27.72375">
        <ele>7.4</ele>
      </trkpt>
      <trkpt lat="42.71056" lon="27.72293">
        <ele>3.7</ele>
      </trkpt>
      <trkpt lat="42.71032" lon="27.72184">
        <ele>1.4</ele>
      </trkpt>
      <trkpt lat="42.70996" lon="27.71971">
        <ele>1.1</ele>
      </trkpt>
      <trkpt lat="42.70946" lon="27.71796">
      </trkpt>
      <trkpt lat="42.70891" lon="27.71648">
        <ele>1</ele>
      </trkpt>
      <trkpt lat="42.70829" lon="27.71493">
        <ele>1</ele>
      </trkpt>
      <trkpt lat="42.70764" lon="27.71357">
      </trkpt>
      <trkpt lat="42.70694" lon="27.71198">
      </trkpt>
      <trkpt lat="42.70637" lon="27.71095">
        <ele>1</ele>
      </trkpt>
      <trkpt lat="42.70552" lon="27.7095">
        <ele>1</ele>
      </trkpt>
      <trkpt lat="42.70498" lon="27.70863">
        <ele>2.3</ele>
      </trkpt>
      <trkpt lat="42.70417" lon="27.70737">
        <ele>1</ele>
      </trkpt>
      <trkpt lat="42.70335" lon="27.70643">
        <ele>2</ele>
      </trkpt>
      <trkpt lat="42.70264" lon="27.7058">
        <ele>1</ele>
      </trkpt>
      <trkpt lat="42.70189" lon="27.70526">
        <ele>1</ele>
      </trkpt>
      <trkpt lat="42.70067" lon="27.70453">
        <ele>1.2</ele>
      </trkpt>
      <trkpt lat="42.69902" lon="27.70373">
        <ele>2.1</ele>
      </trkpt>
      <trkpt lat="42.69429" lon="27.70142">
        <ele>3.57</ele>
      </trkpt>
      <trkpt lat="42.69195" lon="27.7003">
      </trkpt>
      <trkpt lat="42.69018" lon="27.6999">
      </trkpt>
      <trkpt lat="42.68838" lon="27.69987">
        <ele>2</ele>
      </trkpt>
      <trkpt lat="42.68279" lon="27.69988">
        <ele>3.6</ele>
      </trkpt>
      <trkpt lat="42.68147" lon="27.69982">
        <ele>3</ele>
      </trkpt>
      <trkpt lat="42.67913" lon="27.69905">
        <ele>1</ele>
      </trkpt>
      <trkpt lat="42.67868" lon="27.69887">
        <ele>1</ele>
      </trkpt>
      <trkpt lat="42.67353" lon="27.69683">
        <ele>1</ele>
      </trkpt>
      <trkpt lat="42.66894" lon="27.69507">
        <ele>1</ele>
      </trkpt>
      <trkpt lat="42.66327" lon="27.69282">
        <ele>7.4</ele>
      </trkpt>
      <trkpt lat="42.66055" lon="27.69162">
        <ele>17.4</ele>
      </trkpt>
      <trkpt lat="42.65996" lon="27.69067">
        <ele>18.8</ele>
      </trkpt>
      <trkpt lat="42.65751" lon="27.68316">
        <ele>17.4</ele>
      </trkpt>
      <trkpt lat="42.65573" lon="27.67783">
        <ele>26.6</ele>
      </trkpt>
      <trkpt lat="42.65199" lon="27.66804">
        <ele>37.4</ele>
      </trkpt>
      <trkpt lat="42.6517" lon="27.66634">
        <ele>38.5</ele>
      </trkpt>
      <trkpt lat="42.65203" lon="27.66487">
        <ele>38.8</ele>
      </trkpt>
      <trkpt lat="42.6537" lon="27.66204">
        <ele>36.9</ele>
      </trkpt>
      <trkpt lat="42.65549" lon="27.65904">
        <ele>37.3</ele>
      </trkpt>
      <trkpt lat="42.65645" lon="27.65593">
        <ele>34.8</ele>
      </trkpt>
      <trkpt lat="42.65653" lon="27.65315">
        <ele>30.9</ele>
      </trkpt>
      <trkpt lat="42.65574" lon="27.6459">
        <ele>17.8</ele>
      </trkpt>
      <trkpt lat="42.65528" lon="27.64341">
        <ele>15.5</ele>
      </trkpt>
      <trkpt lat="42.65411" lon="27.64086">
        <ele>13</ele>
      </trkpt>
      <trkpt lat="42.65299" lon="27.6386">
        <ele>12.1</ele>
      </trkpt>
      <trkpt lat="42.65178" lon="27.63758">
        <ele>11.2</ele>
      </trkpt>
      <trkpt lat="42.64768" lon="27.63661">
        <ele>9.1</ele>
      </trkpt>
      <trkpt lat="42.64584" lon="27.63677">
        <ele>9</ele>
      </trkpt>
      <trkpt lat="42.64602" lon="27.63509">
        <ele>10.8</ele>
      </trkpt>
      <trkpt lat="42.64708" lon="27.6302">
        <ele>13.4</ele>
      </trkpt>
      <trkpt lat="42.64843" lon="27.62307">
        <ele>20.7</ele>
      </trkpt>
      <trkpt lat="42.64997" lon="27.61595">
        <ele>30.9</ele>
      </trkpt>
      <trkpt lat="42.65044" lon="27.61314">
        <ele>34.9</ele>
      </trkpt>
      <trkpt lat="42.6502" lon="27.61122">
        <ele>41.7</ele>
      </trkpt>
      <trkpt lat="42.64955" lon="27.60602">
        <ele>55.6</ele>
      </trkpt>
      <trkpt lat="42.64955" lon="27.60281">
        <ele>60</ele>
      </trkpt>
      <trkpt lat="42.6497" lon="27.59747">
        <ele>66.7</ele>
      </trkpt>
      <trkpt lat="42.65" lon="27.59506">
        <ele>70</ele>
      </trkpt>
      <trkpt lat="42.65017" lon="27.59394">
        <ele>72.1</ele>
      </trkpt>
      <trkpt lat="42.65153" lon="27.58978">
        <ele>83.8</ele>
      </trkpt>
      <trkpt lat="42.6543" lon="27.58209">
        <ele>102.5</ele>
      </trkpt>
      <trkpt lat="42.65654" lon="27.57617">
        <ele>117.4</ele>
      </trkpt>
      <trkpt lat="42.65648" lon="27.57448">
        <ele>120</ele>
      </trkpt>
      <trkpt lat="42.65577" lon="27.57328">
        <ele>118.8</ele>
      </trkpt>
      <trkpt lat="42.65459" lon="27.568">
        <ele>121.2</ele>
      </trkpt>
      <trkpt lat="42.65241" lon="27.56623">
        <ele>115.4</ele>
      </trkpt>
      <trkpt lat="42.64669" lon="27.5628">
        <ele>101.5</ele>
      </trkpt>
      <trkpt lat="42.6391" lon="27.55799">
        <ele>93</ele>
      </trkpt>
      <trkpt lat="42.63574" lon="27.55591">
        <ele>84.6</ele>
      </trkpt>
      <trkpt lat="42.63326" lon="27.55359">
        <ele>72.7</ele>
      </trkpt>
      <trkpt lat="42.62806" lon="27.54844">
        <ele>42.3</ele>
      </trkpt>
      <trkpt lat="42.62441" lon="27.54531">
        <ele>34.1</ele>
      </trkpt>
      <trkpt lat="42.62282" lon="27.54403">
        <ele>30.2</ele>
      </trkpt>
      <trkpt lat="42.6207" lon="27.54099">
        <ele>23.5</ele>
      </trkpt>
      <trkpt lat="42.61676" lon="27.53859">
        <ele>17.2</ele>
      </trkpt>
      <trkpt lat="42.6095" lon="27.53514">
        <ele>8.3</ele>
      </trkpt>
      <trkpt lat="42.60526" lon="27.53314">
        <ele>7.4</ele>
      </trkpt>
      <trkpt lat="42.60384" lon="27.53178">
        <ele>6.1</ele>
      </trkpt>
      <trkpt lat="42.6016" lon="27.52962">
        <ele>7.7</ele>
      </trkpt>
      <trkpt lat="42.60024" lon="27.52773">
        <ele>6.7</ele>
      </trkpt>
      <trkpt lat="42.59841" lon="27.52653">
        <ele>9.3</ele>
      </trkpt>
      <trkpt lat="42.59705" lon="27.52557">
        <ele>8.7</ele>
      </trkpt>
      <trkpt lat="42.59552" lon="27.52333">
        <ele>6.8</ele>
      </trkpt>
      <trkpt lat="42.59284" lon="27.51871">
        <ele>8.1</ele>
      </trkpt>
      <trkpt lat="42.59119" lon="27.51623">
        <ele>7.7</ele>
      </trkpt>
      <trkpt lat="42.5869" lon="27.51256">
        <ele>14.3</ele>
      </trkpt>
      <trkpt lat="42.58383" lon="27.50936">
        <ele>12.6</ele>
      </trkpt>
      <trkpt lat="42.57863" lon="27.50473">
        <ele>15.8</ele>
      </trkpt>
      <trkpt lat="42.57509" lon="27.5024">
        <ele>12.8</ele>
      </trkpt>
      <trkpt lat="42.56686" lon="27.49721">
        <ele>12.6</ele>
      </trkpt>
      <trkpt lat="42.56314" lon="27.49464">
        <ele>11.9</ele>
      </trkpt>
      <trkpt lat="42.55831" lon="27.49168">
        <ele>11.1</ele>
      </trkpt>
      <trkpt lat="42.55618" lon="27.49048">
        <ele>8.2</ele>
      </trkpt>
      <trkpt lat="42.55465" lon="27.49096">
        <ele>11.1</ele>
      </trkpt>
      <trkpt lat="42.5535" lon="27.49163">
        <ele>13.9</ele>
      </trkpt>
      <trkpt lat="42.55283" lon="27.49182">
        <ele>15.2</ele>
      </trkpt>
      <trkpt lat="42.55213" lon="27.4915">
        <ele>14.7</ele>
      </trkpt>
      <trkpt lat="42.55158" lon="27.49042">
        <ele>10.5</ele>
      </trkpt>
      <trkpt lat="42.55156" lon="27.48919">
        <ele>8.7</ele>
      </trkpt>
      <trkpt lat="42.55196" lon="27.48857">
        <ele>9.6</ele>
      </trkpt>
      <trkpt lat="42.55247" lon="27.48756">
        <ele>5.3</ele>
      </trkpt>
      <trkpt lat="42.55354" lon="27.48792">
        <ele>5.1</ele>
      </trkpt>
      <trkpt lat="42.55381" lon="27.48818">
        <ele>5.1</ele>
      </trkpt>
      <trkpt lat="42.55338" lon="27.48909">
        <ele>8.7</ele>
      </trkpt>
      <trkpt lat="42.55283" lon="27.49016">
        <ele>11.8</ele>
      </trkpt>
      <trkpt lat="42.55182" lon="27.49039">
        <ele>10.9</ele>
      </trkpt>
      <trkpt lat="42.551" lon="27.49029">
        <ele>10.1</ele>
      </trkpt>
      <trkpt lat="42.5505" lon="27.48958">
        <ele>8.2</ele>
      </trkpt>
      <trkpt lat="42.55012" lon="27.48889">
        <ele>6.3</ele>
      </trkpt>
      <trkpt lat="42.54987" lon="27.48856">
        <ele>4.1</ele>
      </trkpt>
      <trkpt lat="42.54817" lon="27.48885">
        <ele>3.8</ele>
      </trkpt>
      <trkpt lat="42.54492" lon="27.48932">
        <ele>3.9</ele>
      </trkpt>
      <trkpt lat="42.54267" lon="27.48974">
        <ele>5.2</ele>
      </trkpt>
      <trkpt lat="42.54168" lon="27.49">
        <ele>5</ele>
      </trkpt>
      <trkpt lat="42.5395" lon="27.49082">
        <ele>4.4</ele>
      </trkpt>
      <trkpt lat="42.53703" lon="27.49194">
        <ele>3.8</ele>
      </trkpt>
      <trkpt lat="42.53369" lon="27.49327">
        <ele>2.3</ele>
      </trkpt>
      <trkpt lat="42.53241" lon="27.49275">
        <ele>1.2</ele>
      </trkpt>
      <trkpt lat="42.53068" lon="27.49187">
        <ele>1</ele>
      </trkpt>
      <trkpt lat="42.5281" lon="27.49049">
        <ele>2.1</ele>
      </trkpt>
      <trkpt lat="42.52752" lon="27.49003">
        <ele>4.8</ele>
      </trkpt>
      <trkpt lat="42.52615" lon="27.48935">
        <ele>1</ele>
      </trkpt>
      <trkpt lat="42.52522" lon="27.48899">
        <ele>1.1</ele>
      </trkpt>
      <trkpt lat="42.5245" lon="27.48867">
        <ele>1</ele>
      </trkpt>
      <trkpt lat="42.5231" lon="27.48806">
        <ele>1</ele>
      </trkpt>
      <trkpt lat="42.52139" lon="27.48744">
      </trkpt>
      <trkpt lat="42.51746" lon="27.48616">
      </trkpt>
      <trkpt lat="42.51428" lon="27.48523">
        <ele>1</ele>
      </trkpt>
      <trkpt lat="42.51217" lon="27.48468">
        <ele>1.9</ele>
      </trkpt>
      <trkpt lat="42.51038" lon="27.48413">
        <ele>4</ele>
      </trkpt>
      <trkpt lat="42.50962" lon="27.48389">
        <ele>3.9</ele>
      </trkpt>
      <trkpt lat="42.50926" lon="27.484">
        <ele>3.4</ele>
      </trkpt>
      <trkpt lat="42.50813" lon="27.48387">
        <ele>4.7</ele>
      </trkpt>
      <trkpt lat="42.50686" lon="27.48367">
        <ele>5.1</ele>
      </trkpt>
      <trkpt lat="42.50359" lon="27.48337">
        <ele>6.75</ele>
      </trkpt>
      <trkpt lat="42.50093" lon="27.48344">
        <ele>11.88</ele>
      </trkpt>
      <trkpt lat="42.49745" lon="27.48348">
        <ele>16</ele>
      </trkpt>
      <trkpt lat="42.49565" lon="27.48332">
        <ele>11.2</ele>
      </trkpt>
      <trkpt lat="42.4952" lon="27.48315">
        <ele>13.7</ele>
      </trkpt>
      <trkpt lat="42.49477" lon="27.48293">
        <ele>15.8</ele>
      </trkpt>
      <trkpt lat="42.49397" lon="27.48289">
        <ele>10.6</ele>
      </trkpt>
      <trkpt lat="42.4935" lon="27.48226">
        <ele>11.8</ele>
      </trkpt>
      <trkpt lat="42.49269" lon="27.48151">
        <ele>13.1</ele>
      </trkpt>
      <trkpt lat="42.49113" lon="27.48063">
        <ele>11.9</ele>
      </trkpt>
      <trkpt lat="42.49082" lon="27.48164">
        <ele>10</ele>
      </trkpt>
      <trkpt lat="42.48952" lon="27.48053">
        <ele>8</ele>
      </trkpt>
      <trkpt lat="42.49063" lon="27.47897">
        <ele>9.4</ele>
      </trkpt>
      <trkpt lat="42.49063" lon="27.47533">
        <ele>7.9</ele>
      </trkpt>
      <trkpt lat="42.49132" lon="27.4753">
        <ele>8.8</ele>
      </trkpt>
      <trkpt lat="42.49127" lon="27.47211">
        <ele>11.1</ele>
      </trkpt>
      <trkpt lat="42.4908" lon="27.46958">
        <ele>14.1</ele>
      </trkpt>
      <trkpt lat="42.49031" lon="27.46731">
        <ele>11.7</ele>
      </trkpt>
      <trkpt lat="42.49029" lon="27.46631">
        <ele>12.5</ele>
      </trkpt>
      <trkpt lat="42.49058" lon="27.46467">
        <ele>12.5</ele>
      </trkpt>
      <trkpt lat="42.49107" lon="27.46288">
        <ele>11.6</ele>
      </trkpt>
      <trkpt lat="42.49162" lon="27.46121">
        <ele>9.9</ele>
      </trkpt>
      <trkpt lat="42.49137" lon="27.45994">
        <ele>6.1</ele>
      </trkpt>
      <trkpt lat="42.4906" lon="27.45584">
        <ele>6.7</ele>
      </trkpt>
      <trkpt lat="42.49013" lon="27.45447">
        <ele>4.4</ele>
      </trkpt>
      <trkpt lat="42.48719" lon="27.44959">
        <ele>3.3</ele>
      </trkpt>
      <trkpt lat="42.48399" lon="27.4441">
        <ele>5.6</ele>
      </trkpt>
      <trkpt lat="42.48278" lon="27.44206">
        <ele>4.9</ele>
      </trkpt>
      <trkpt lat="42.48187" lon="27.44117">
        <ele>3</ele>
      </trkpt>
      <trkpt lat="42.48051" lon="27.44062">
        <ele>4.5</ele>
      </trkpt>
      <trkpt lat="42.47847" lon="27.4398">
        <ele>2.8</ele>
      </trkpt>
      <trkpt lat="42.47653" lon="27.43907">
        <ele>4.1</ele>
      </trkpt>
      <trkpt lat="42.47601" lon="27.43856">
        <ele>4.6</ele>
      </trkpt>
      <trkpt lat="42.47518" lon="27.43765">
        <ele>4.2</ele>
      </trkpt>
      <trkpt lat="42.47423" lon="27.43621">
        <ele>2.9</ele>
      </trkpt>
      <trkpt lat="42.47385" lon="27.43647">
        <ele>2.6</ele>
      </trkpt>
      <trkpt lat="42.47329" lon="27.43626">
        <ele>2</ele>
      </trkpt>
      <trkpt lat="42.46978" lon="27.43698">
        <ele>2.6</ele>
      </trkpt>
      <trkpt lat="42.465" lon="27.43839">
        <ele>4.9</ele>
      </trkpt>
      <trkpt lat="42.45974" lon="27.44001">
        <ele>5</ele>
      </trkpt>
      <trkpt lat="42.4586" lon="27.44031">
        <ele>3.9</ele>
      </trkpt>
      <trkpt lat="42.45716" lon="27.44082">
        <ele>3.2</ele>
      </trkpt>
      <trkpt lat="42.45643" lon="27.44128">
        <ele>2.2</ele>
      </trkpt>
      <trkpt lat="42.45565" lon="27.44193">
        <ele>2.9</ele>
      </trkpt>
      <trkpt lat="42.45461" lon="27.44345">
        <ele>3</ele>
      </trkpt>
      <trkpt lat="42.44801" lon="27.45606">
        <ele>1.1</ele>
      </trkpt>
      <trkpt lat="42.44504" lon="27.46172">
        <ele>2.1</ele>
      </trkpt>
      <trkpt lat="42.44417" lon="27.46335">
        <ele>4</ele>
      </trkpt>
      <trkpt lat="42.44368" lon="27.46469">
        <ele>1.7</ele>
      </trkpt>
      <trkpt lat="42.44356" lon="27.46502">
        <ele>1</ele>
      </trkpt>
      <trkpt lat="42.4439" lon="27.46649">
        <ele>1</ele>
      </trkpt>
      <trkpt lat="42.44366" lon="27.46717">
        <ele>1</ele>
      </trkpt>
      <trkpt lat="42.44368" lon="27.46738">
        <ele>1</ele>
      </trkpt>
      <trkpt lat="42.44353" lon="27.46755">
        <ele>1</ele>
      </trkpt>
      <trkpt lat="42.44335" lon="27.46799">
        <ele>1</ele>
      </trkpt>
      <trkpt lat="42.44301" lon="27.46901">
        <ele>5.9</ele>
      </trkpt>
      <trkpt lat="42.44274" lon="27.4696">
        <ele>10.4</ele>
      </trkpt>
      <trkpt lat="42.4426" lon="27.46984">
        <ele>11.6</ele>
      </trkpt>
      <trkpt lat="42.44225" lon="27.47217">
        <ele>8.5</ele>
      </trkpt>
      <trkpt lat="42.44184" lon="27.47457">
        <ele>8.2</ele>
      </trkpt>
      <trkpt lat="42.44174" lon="27.47548">
        <ele>7.5</ele>
      </trkpt>
      <trkpt lat="42.44166" lon="27.47762">
        <ele>10</ele>
      </trkpt>
      <trkpt lat="42.44115" lon="27.47863">
        <ele>12.2</ele>
      </trkpt>
      <trkpt lat="42.44016" lon="27.48038">
        <ele>17.3</ele>
      </trkpt>
      <trkpt lat="42.44002" lon="27.48046">
        <ele>17.3</ele>
      </trkpt>
      <trkpt lat="42.43964" lon="27.48024">
        <ele>14.9</ele>
      </trkpt>
      <trkpt lat="42.4394" lon="27.48017">
        <ele>13.7</ele>
      </trkpt>
      <trkpt lat="42.43927" lon="27.48035">
        <ele>14.1</ele>
      </trkpt>
      <trkpt lat="42.43841" lon="27.48271">
        <ele>22.4</ele>
      </trkpt>
      <trkpt lat="42.43817" lon="27.48312">
        <ele>23.4</ele>
      </trkpt>
      <trkpt lat="42.43706" lon="27.48431">
        <ele>29.2</ele>
      </trkpt>
      <trkpt lat="42.43623" lon="27.48581">
        <ele>34.3</ele>
      </trkpt>
      <trkpt lat="42.43514" lon="27.48852">
        <ele>41.6</ele>
      </trkpt>
      <trkpt lat="42.43308" lon="27.4958">
        <ele>41.8</ele>
      </trkpt>
      <trkpt lat="42.43306" lon="27.49629">
        <ele>41.3</ele>
      </trkpt>
      <trkpt lat="42.43341" lon="27.49724">
        <ele>40.8</ele>
      </trkpt>
      <trkpt lat="42.43351" lon="27.49801">
        <ele>36.6</ele>
      </trkpt>
      <trkpt lat="42.43328" lon="27.49875">
        <ele>32.6</ele>
      </trkpt>
      <trkpt lat="42.43282" lon="27.49899">
        <ele>32.2</ele>
      </trkpt>
      <trkpt lat="42.43113" lon="27.50058">
        <ele>24.1</ele>
      </trkpt>
      <trkpt lat="42.43024" lon="27.50116">
        <ele>18.5</ele>
      </trkpt>
      <trkpt lat="42.42997" lon="27.5017">
        <ele>16.1</ele>
      </trkpt>
      <trkpt lat="42.42918" lon="27.50391">
        <ele>14.2</ele>
      </trkpt>
      <trkpt lat="42.42895" lon="27.50483">
        <ele>13</ele>
      </trkpt>
      <trkpt lat="42.42775" lon="27.51382">
        <ele>17.4</ele>
      </trkpt>
      <trkpt lat="42.42813" lon="27.51594">
        <ele>17.6</ele>
      </trkpt>
      <trkpt lat="42.42809" lon="27.51613">
        <ele>17</ele>
      </trkpt>
      <trkpt lat="42.42765" lon="27.51674">
        <ele>17</ele>
      </trkpt>
      <trkpt lat="42.42752" lon="27.51719">
        <ele>16</ele>
      </trkpt>
      <trkpt lat="42.42774" lon="27.51847">
        <ele>12.7</ele>
      </trkpt>
      <trkpt lat="42.42905" lon="27.52184">
        <ele>13</ele>
      </trkpt>
      <trkpt lat="42.43023" lon="27.52328">
        <ele>19.7</ele>
      </trkpt>
      <trkpt lat="42.43244" lon="27.5253">
        <ele>31.5</ele>
      </trkpt>
      <trkpt lat="42.43268" lon="27.52587">
        <ele>31.9</ele>
      </trkpt>
      <trkpt lat="42.43313" lon="27.5268">
        <ele>28.4</ele>
      </trkpt>
      <trkpt lat="42.43325" lon="27.5279">
        <ele>26.4</ele>
      </trkpt>
      <trkpt lat="42.43313" lon="27.52875">
        <ele>24.6</ele>
      </trkpt>
      <trkpt lat="42.4324" lon="27.53092">
        <ele>18.8</ele>
      </trkpt>
      <trkpt lat="42.43205" lon="27.53124">
        <ele>18.1</ele>
      </trkpt>
      <trkpt lat="42.43174" lon="27.53143">
        <ele>17.9</ele>
      </trkpt>
      <trkpt lat="42.43055" lon="27.53285">
        <ele>16.7</ele>
      </trkpt>
      <trkpt lat="42.42987" lon="27.53433">
        <ele>14.7</ele>
      </trkpt>
      <trkpt lat="42.43" lon="27.5361">
        <ele>17</ele>
      </trkpt>
      <trkpt lat="42.43091" lon="27.53674">
        <ele>17</ele>
      </trkpt>
      <trkpt lat="42.43054" lon="27.53696">
        <ele>16.6</ele>
      </trkpt>
      <trkpt lat="42.42972" lon="27.54065">
        <ele>17</ele>
      </trkpt>
      <trkpt lat="42.42982" lon="27.54253">
        <ele>23.7</ele>
      </trkpt>
      <trkpt lat="42.42964" lon="27.54314">
        <ele>24.9</ele>
      </trkpt>
      <trkpt lat="42.42908" lon="27.54432">
        <ele>20.7</ele>
      </trkpt>
      <trkpt lat="42.42888" lon="27.54572">
        <ele>25.3</ele>
      </trkpt>
      <trkpt lat="42.42863" lon="27.546">
        <ele>26.2</ele>
      </trkpt>
      <trkpt lat="42.42831" lon="27.54641">
        <ele>27.3</ele>
      </trkpt>
      <trkpt lat="42.42816" lon="27.54674">
        <ele>28.3</ele>
      </trkpt>
      <trkpt lat="42.42814" lon="27.54701">
        <ele>28.6</ele>
      </trkpt>
      <trkpt lat="42.42816" lon="27.54744">
        <ele>29.8</ele>
      </trkpt>
      <trkpt lat="42.4283" lon="27.54813">
        <ele>31</ele>
      </trkpt>
      <trkpt lat="42.42852" lon="27.5491">
        <ele>32.6</ele>
      </trkpt>
      <trkpt lat="42.42869" lon="27.54962">
        <ele>32.8</ele>
      </trkpt>
      <trkpt lat="42.43001" lon="27.5519">
        <ele>40</ele>
      </trkpt>
      <trkpt lat="42.43186" lon="27.55506">
        <ele>47.6</ele>
      </trkpt>
      <trkpt lat="42.43218" lon="27.55545">
        <ele>50.5</ele>
      </trkpt>
      <trkpt lat="42.43291" lon="27.55617">
        <ele>54.7</ele>
      </trkpt>
      <trkpt lat="42.43308" lon="27.55645">
        <ele>55.4</ele>
      </trkpt>
      <trkpt lat="42.43334" lon="27.55699">
        <ele>57.2</ele>
      </trkpt>
      <trkpt lat="42.4335" lon="27.5575">
        <ele>59.6</ele>
      </trkpt>
      <trkpt lat="42.43362" lon="27.55766">
        <ele>60.6</ele>
      </trkpt>
      <trkpt lat="42.43383" lon="27.55774">
        <ele>61.4</ele>
      </trkpt>
      <trkpt lat="42.43414" lon="27.55791">
        <ele>62.4</ele>
      </trkpt>
      <trkpt lat="42.43482" lon="27.5585">
        <ele>63.5</ele>
      </trkpt>
      <trkpt lat="42.43503" lon="27.55881">
        <ele>64.3</ele>
      </trkpt>
      <trkpt lat="42.43542" lon="27.55973">
        <ele>67.5</ele>
      </trkpt>
      <trkpt lat="42.4356" lon="27.56">
        <ele>67.7</ele>
      </trkpt>
      <trkpt lat="42.43645" lon="27.56124">
        <ele>63.2</ele>
      </trkpt>
      <trkpt lat="42.43698" lon="27.56169">
        <ele>61.3</ele>
      </trkpt>
      <trkpt lat="42.43771" lon="27.56218">
        <ele>57.2</ele>
      </trkpt>
      <trkpt lat="42.43888" lon="27.56277">
        <ele>50.8</ele>
      </trkpt>
      <trkpt lat="42.44068" lon="27.56362">
        <ele>40.3</ele>
      </trkpt>
      <trkpt lat="42.44154" lon="27.56405">
        <ele>37</ele>
      </trkpt>
      <trkpt lat="42.44172" lon="27.56414">
        <ele>35.9</ele>
      </trkpt>
      <trkpt lat="42.44194" lon="27.56435">
        <ele>33.6</ele>
      </trkpt>
      <trkpt lat="42.44275" lon="27.56539">
        <ele>26.6</ele>
      </trkpt>
      <trkpt lat="42.44338" lon="27.56656">
        <ele>21.2</ele>
      </trkpt>
      <trkpt lat="42.44358" lon="27.5669">
        <ele>19.7</ele>
      </trkpt>
      <trkpt lat="42.44399" lon="27.56806">
        <ele>15.4</ele>
      </trkpt>
      <trkpt lat="42.44424" lon="27.5692">
        <ele>13.1</ele>
      </trkpt>
      <trkpt lat="42.44434" lon="27.56989">
        <ele>10.4</ele>
      </trkpt>
      <trkpt lat="42.44437" lon="27.57042">
        <ele>9.8</ele>
      </trkpt>
      <trkpt lat="42.44411" lon="27.57683">
        <ele>8.7</ele>
      </trkpt>
      <trkpt lat="42.44382" lon="27.58389">
        <ele>7.3</ele>
      </trkpt>
      <trkpt lat="42.44366" lon="27.58868">
        <ele>9</ele>
      </trkpt>
      <trkpt lat="42.44352" lon="27.59261">
        <ele>7.1</ele>
      </trkpt>
      <trkpt lat="42.44346" lon="27.59462">
        <ele>8.8</ele>
      </trkpt>
      <trkpt lat="42.44342" lon="27.59576">
        <ele>10.5</ele>
      </trkpt>
      <trkpt lat="42.44333" lon="27.59815">
        <ele>15.1</ele>
      </trkpt>
      <trkpt lat="42.4433" lon="27.59905">
        <ele>15.1</ele>
      </trkpt>
      <trkpt lat="42.4433" lon="27.59948">
        <ele>14.6</ele>
      </trkpt>
      <trkpt lat="42.44338" lon="27.6003">
        <ele>13.7</ele>
      </trkpt>
      <trkpt lat="42.44362" lon="27.60331">
        <ele>10</ele>
      </trkpt>
      <trkpt lat="42.44378" lon="27.60567">
        <ele>10.5</ele>
      </trkpt>
      <trkpt lat="42.44394" lon="27.60778">
        <ele>9.4</ele>
      </trkpt>
      <trkpt lat="42.44394" lon="27.60818">
        <ele>9.1</ele>
      </trkpt>
      <trkpt lat="42.44388" lon="27.60884">
        <ele>7</ele>
      </trkpt>
      <trkpt lat="42.44351" lon="27.61312">
        <ele>4.4</ele>
      </trkpt>
      <trkpt lat="42.44321" lon="27.61767">
        <ele>8.7</ele>
      </trkpt>
      <trkpt lat="42.44342" lon="27.62027">
        <ele>8.6</ele>
      </trkpt>
      <trkpt lat="42.44391" lon="27.62197">
        <ele>9.7</ele>
      </trkpt>
      <trkpt lat="42.44479" lon="27.62469">
        <ele>11.1</ele>
      </trkpt>
      <trkpt lat="42.4456" lon="27.62703">
        <ele>15.6</ele>
      </trkpt>
      <trkpt lat="42.44534" lon="27.63356">
        <ele>29.5</ele>
      </trkpt>
      <trkpt lat="42.44292" lon="27.63425">
        <ele>40.9</ele>
      </trkpt>
      <trkpt lat="42.44068" lon="27.6362">
        <ele>46.8</ele>
      </trkpt>
      <trkpt lat="42.44028" lon="27.63717">
        <ele>45.7</ele>
      </trkpt>
      <trkpt lat="42.43933" lon="27.63674">
        <ele>42.8</ele>
      </trkpt>
      <trkpt lat="42.43802" lon="27.63685">
        <ele>37.4</ele>
      </trkpt>
      <trkpt lat="42.43749" lon="27.63706">
        <ele>37.1</ele>
      </trkpt>
      <trkpt lat="42.4371" lon="27.63726">
        <ele>35.5</ele>
      </trkpt>
      <trkpt lat="42.4348" lon="27.63758">
        <ele>33.4</ele>
      </trkpt>
      <trkpt lat="42.43385" lon="27.63784">
        <ele>31.1</ele>
      </trkpt>
      <trkpt lat="42.43089" lon="27.6393">
        <ele>21.3</ele>
      </trkpt>
      <trkpt lat="42.42965" lon="27.63989">
        <ele>18.1</ele>
      </trkpt>
      <trkpt lat="42.42769" lon="27.64119">
        <ele>12.8</ele>
      </trkpt>
      <trkpt lat="42.4245" lon="27.64265">
        <ele>4.7</ele>
      </trkpt>
      <trkpt lat="42.42281" lon="27.64344">
        <ele>5.9</ele>
      </trkpt>
      <trkpt lat="42.42158" lon="27.64438">
        <ele>5.4</ele>
      </trkpt>
      <trkpt lat="42.41873" lon="27.64653">
        <ele>4.9</ele>
      </trkpt>
      <trkpt lat="42.41772" lon="27.64741">
        <ele>5.1</ele>
      </trkpt>
      <trkpt lat="42.41631" lon="27.64808">
        <ele>4.8</ele>
      </trkpt>
      <trkpt lat="42.41362" lon="27.65115">
        <ele>5.6</ele>
      </trkpt>
      <trkpt lat="42.41059" lon="27.65567">
        <ele>5.2</ele>
      </trkpt>
      <trkpt lat="42.40582" lon="27.66319">
        <ele>5.3</ele>
      </trkpt>
      <trkpt lat="42.40513" lon="27.66431">
        <ele>5</ele>
      </trkpt>
      <trkpt lat="42.40533" lon="27.66624">
        <ele>5.3</ele>
      </trkpt>
      <trkpt lat="42.40592" lon="27.67131">
        <ele>6.4</ele>
      </trkpt>
      <trkpt lat="42.40709" lon="27.67382">
        <ele>16.6</ele>
      </trkpt>
      <trkpt lat="42.40825" lon="27.67457">
        <ele>13.8</ele>
      </trkpt>
      <trkpt lat="42.4086" lon="27.6751">
        <ele>12.1</ele>
      </trkpt>
      <trkpt lat="42.40861" lon="27.67669">
        <ele>17.6</ele>
      </trkpt>
      <trkpt lat="42.40884" lon="27.6771">
        <ele>20.4</ele>
      </trkpt>
      <trkpt lat="42.41066" lon="27.67783">
        <ele>21</ele>
      </trkpt>
      <trkpt lat="42.41172" lon="27.67758">
        <ele>16.3</ele>
      </trkpt>
      <trkpt lat="42.41272" lon="27.67847">
        <ele>13</ele>
      </trkpt>
      <trkpt lat="42.41299" lon="27.68126">
        <ele>10</ele>
      </trkpt>
      <trkpt lat="42.41242" lon="27.68225">
        <ele>11.8</ele>
      </trkpt>
      <trkpt lat="42.41236" lon="27.68302">
        <ele>12.5</ele>
      </trkpt>
      <trkpt lat="42.41267" lon="27.68439">
        <ele>17.5</ele>
      </trkpt>
      <trkpt lat="42.41361" lon="27.68557">
        <ele>12.1</ele>
      </trkpt>
      <trkpt lat="42.41397" lon="27.68651">
        <ele>15</ele>
      </trkpt>
      <trkpt lat="42.41431" lon="27.68675">
        <ele>14.9</ele>
      </trkpt>
      <trkpt lat="42.41509" lon="27.68666">
        <ele>12</ele>
      </trkpt>
      <trkpt lat="42.41545" lon="27.68675">
        <ele>13.2</ele>
      </trkpt>
      <trkpt lat="42.41593" lon="27.68726">
        <ele>17.2</ele>
      </trkpt>
      <trkpt lat="42.41609" lon="27.68797">
        <ele>20.5</ele>
      </trkpt>
      <trkpt lat="42.41628" lon="27.68883">
        <ele>24.6</ele>
      </trkpt>
      <trkpt lat="42.41709" lon="27.68979">
        <ele>26.3</ele>
      </trkpt>
      <trkpt lat="42.41826" lon="27.69119">
        <ele>20.9</ele>
      </trkpt>
      <trkpt lat="42.41902" lon="27.69348">
        <ele>17.1</ele>
      </trkpt>
      <trkpt lat="42.419" lon="27.69417">
        <ele>19</ele>
      </trkpt>
      <trkpt lat="42.41867" lon="27.6948">
        <ele>23.8</ele>
      </trkpt>
      <trkpt lat="42.41733" lon="27.69642">
        <ele>20.8</ele>
      </trkpt>
      <trkpt lat="42.41537" lon="27.697">
        <ele>13</ele>
      </trkpt>
      <trkpt lat="42.41325" lon="27.69787">
        <ele>9.9</ele>
      </trkpt>
      <trkpt lat="42.41222" lon="27.69858">
        <ele>9.9</ele>
      </trkpt>
      <trkpt lat="42.41192" lon="27.69922">
        <ele>10.7</ele>
      </trkpt>
      <trkpt lat="42.41187" lon="27.70009">
        <ele>11.7</ele>
      </trkpt>
      <trkpt lat="42.41175" lon="27.70085">
        <ele>13.4</ele>
      </trkpt>
      <trkpt lat="42.41139" lon="27.70157">
        <ele>12.8</ele>
      </trkpt>
      <trkpt lat="42.41061" lon="27.70244">
        <ele>13</ele>
      </trkpt>
      <trkpt lat="42.40945" lon="27.7032">
        <ele>14.9</ele>
      </trkpt>
      <trkpt lat="42.40855" lon="27.7042">
        <ele>14.9</ele>
      </trkpt>
      <trkpt lat="42.40806" lon="27.7051">
        <ele>16.2</ele>
      </trkpt>
      <trkpt lat="42.40754" lon="27.70653">
        <ele>19.5</ele>
      </trkpt>
      <trkpt lat="42.40707" lon="27.70679">
        <ele>25</ele>
      </trkpt>
      <trkpt lat="42.40624" lon="27.70733">
        <ele>30.5</ele>
      </trkpt>
      <trkpt lat="42.40579" lon="27.70738">
        <ele>32.4</ele>
      </trkpt>
      <trkpt lat="42.40541" lon="27.70721">
        <ele>33.4</ele>
      </trkpt>
      <trkpt lat="42.40513" lon="27.70745">
        <ele>33.7</ele>
      </trkpt>
      <trkpt lat="42.40474" lon="27.70789">
        <ele>33.8</ele>
      </trkpt>
      <trkpt lat="42.40425" lon="27.70827">
        <ele>35.5</ele>
      </trkpt>
      <trkpt lat="42.40371" lon="27.7085">
        <ele>35.7</ele>
      </trkpt>
      <trkpt lat="42.40313" lon="27.70859">
        <ele>35.9</ele>
      </trkpt>
      <trkpt lat="42.40246" lon="27.70845">
        <ele>34.5</ele>
      </trkpt>
      <trkpt lat="42.40186" lon="27.70818">
        <ele>29.1</ele>
      </trkpt>
      <trkpt lat="42.40118" lon="27.70748">
        <ele>23.1</ele>
      </trkpt>
      <trkpt lat="42.40053" lon="27.70649">
        <ele>18.4</ele>
      </trkpt>
      <trkpt lat="42.3995" lon="27.70494">
        <ele>15.6</ele>
      </trkpt>
      <trkpt lat="42.39872" lon="27.70408">
        <ele>17.5</ele>
      </trkpt>
      <trkpt lat="42.39844" lon="27.70386">
        <ele>17.6</ele>
      </trkpt>
      <trkpt lat="42.39765" lon="27.70349">
        <ele>15.2</ele>
      </trkpt>
      <trkpt lat="42.39661" lon="27.70318">
        <ele>14.9</ele>
      </trkpt>
      <trkpt lat="42.39606" lon="27.70304">
        <ele>14.3</ele>
      </trkpt>
      <trkpt lat="42.39501" lon="27.70318">
        <ele>12.5</ele>
      </trkpt>
      <trkpt lat="42.39315" lon="27.70363">
        <ele>10.1</ele>
      </trkpt>
      <trkpt lat="42.3903" lon="27.70429">
        <ele>12.5</ele>
      </trkpt>
      <trkpt lat="42.38692" lon="27.70501">
        <ele>9.6</ele>
      </trkpt>
      <trkpt lat="42.38592" lon="27.70531">
        <ele>9.8</ele>
      </trkpt>
      <trkpt lat="42.38444" lon="27.7062">
        <ele>9.1</ele>
      </trkpt>
      <trkpt lat="42.38341" lon="27.70742">
        <ele>11.7</ele>
      </trkpt>
      <trkpt lat="42.38274" lon="27.70856">
        <ele>16.9</ele>
      </trkpt>
      <trkpt lat="42.38239" lon="27.70958">
        <ele>21.7</ele>
      </trkpt>
      <trkpt lat="42.38168" lon="27.71224">
        <ele>25.2</ele>
      </trkpt>
      <trkpt lat="42.38139" lon="27.71275">
        <ele>26.7</ele>
      </trkpt>
      <trkpt lat="42.38061" lon="27.71377">
        <ele>38</ele>
      </trkpt>
      <trkpt lat="42.3805" lon="27.71447">
        <ele>37.4</ele>
      </trkpt>
      <trkpt lat="42.38045" lon="27.71586">
        <ele>37.3</ele>
      </trkpt>
      <trkpt lat="42.38043" lon="27.71655">
        <ele>34.8</ele>
      </trkpt>
      <trkpt lat="42.3799" lon="27.71783">
        <ele>36</ele>
      </trkpt>
      <trkpt lat="42.37902" lon="27.71967">
        <ele>38.6</ele>
      </trkpt>
      <trkpt lat="42.37878" lon="27.71984">
        <ele>37.4</ele>
      </trkpt>
      <trkpt lat="42.37843" lon="27.71973">
        <ele>38.3</ele>
      </trkpt>
      <trkpt lat="42.37824" lon="27.71926">
        <ele>37</ele>
      </trkpt>
      <trkpt lat="42.37799" lon="27.71716">
        <ele>35.9</ele>
      </trkpt>
      <trkpt lat="42.37726" lon="27.71549">
        <ele>34.7</ele>
      </trkpt>
      <trkpt lat="42.37692" lon="27.7151">
        <ele>34.4</ele>
      </trkpt>
      <trkpt lat="42.37605" lon="27.71467">
        <ele>30</ele>
      </trkpt>
      <trkpt lat="42.37531" lon="27.71443">
        <ele>27.7</ele>
      </trkpt>
      <trkpt lat="42.3739" lon="27.71463">
        <ele>18.3</ele>
      </trkpt>
      <trkpt lat="42.37361" lon="27.71447">
        <ele>19.6</ele>
      </trkpt>
      <trkpt lat="42.37348" lon="27.71401">
        <ele>21</ele>
      </trkpt>
      <trkpt lat="42.3736" lon="27.71326">
        <ele>18.2</ele>
      </trkpt>
      <trkpt lat="42.37387" lon="27.71202">
        <ele>14</ele>
      </trkpt>
      <trkpt lat="42.37376" lon="27.71155">
        <ele>12.5</ele>
      </trkpt>
      <trkpt lat="42.37199" lon="27.70919">
        <ele>9.7</ele>
      </trkpt>
      <trkpt lat="42.37156" lon="27.70901">
        <ele>9</ele>
      </trkpt>
      <trkpt lat="42.36941" lon="27.70824">
        <ele>3.6</ele>
      </trkpt>
      <trkpt lat="42.36834" lon="27.70788">
        <ele>2.1</ele>
      </trkpt>
      <trkpt lat="42.36781" lon="27.70784">
        <ele>2.8</ele>
      </trkpt>
      <trkpt lat="42.3673" lon="27.70797">
        <ele>2.9</ele>
      </trkpt>
      <trkpt lat="42.36578" lon="27.70867">
        <ele>3.1</ele>
      </trkpt>
      <trkpt lat="42.36275" lon="27.71047">
        <ele>2.5</ele>
      </trkpt>
      <trkpt lat="42.36115" lon="27.71175">
        <ele>3</ele>
      </trkpt>
      <trkpt lat="42.35813" lon="27.71426">
        <ele>1.5</ele>
      </trkpt>
      <trkpt lat="42.35571" lon="27.71624">
        <ele>2.5</ele>
      </trkpt>
      <trkpt lat="42.35274" lon="27.71867">
        <ele>1.71</ele>
      </trkpt>
      <trkpt lat="42.34709" lon="27.72323">
        <ele>10.3</ele>
      </trkpt>
      <trkpt lat="42.34696" lon="27.72321">
        <ele>10.2</ele>
      </trkpt>
      <trkpt lat="42.34664" lon="27.72318">
        <ele>10.6</ele>
      </trkpt>
      <trkpt lat="42.34626" lon="27.72295">
        <ele>11.1</ele>
      </trkpt>
      <trkpt lat="42.34597" lon="27.72259">
        <ele>10.8</ele>
      </trkpt>
      <trkpt lat="42.34577" lon="27.7221">
        <ele>9.4</ele>
      </trkpt>
      <trkpt lat="42.34569" lon="27.72167">
        <ele>7.9</ele>
      </trkpt>
      <trkpt lat="42.34568" lon="27.72117">
        <ele>7.3</ele>
      </trkpt>
      <trkpt lat="42.3465" lon="27.7176">
        <ele>4.1</ele>
      </trkpt>
      <trkpt lat="42.34655" lon="27.71715">
        <ele>5.6</ele>
      </trkpt>
      <trkpt lat="42.34651" lon="27.7166">
        <ele>7.6</ele>
      </trkpt>
      <trkpt lat="42.34641" lon="27.71615">
        <ele>7.3</ele>
      </trkpt>
      <trkpt lat="42.34622" lon="27.71578">
        <ele>7.7</ele>
      </trkpt>
      <trkpt lat="42.34591" lon="27.71531">
        <ele>9.2</ele>
      </trkpt>
      <trkpt lat="42.34576" lon="27.7149">
        <ele>10.8</ele>
      </trkpt>
      <trkpt lat="42.34574" lon="27.71475">
        <ele>11.3</ele>
      </trkpt>
      <trkpt lat="42.34492" lon="27.71508">
        <ele>16.5</ele>
      </trkpt>
      <trkpt lat="42.34319" lon="27.71583">
        <ele>24.8</ele>
      </trkpt>
      <trkpt lat="42.34151" lon="27.71653">
        <ele>31.8</ele>
      </trkpt>
      <trkpt lat="42.3396" lon="27.71731">
        <ele>38.7</ele>
      </trkpt>
      <trkpt lat="42.33818" lon="27.71794">
        <ele>43</ele>
      </trkpt>
      <trkpt lat="42.33722" lon="27.71845">
        <ele>44.1</ele>
      </trkpt>
      <trkpt lat="42.33672" lon="27.71892">
        <ele>43.9</ele>
      </trkpt>
      <trkpt lat="42.33627" lon="27.71949">
        <ele>39.9</ele>
      </trkpt>
      <trkpt lat="42.33456" lon="27.72298">
        <ele>28.3</ele>
      </trkpt>
      <trkpt lat="42.33321" lon="27.72585">
        <ele>12.1</ele>
      </trkpt>
      <trkpt lat="42.33235" lon="27.72726">
        <ele>8.7</ele>
      </trkpt>
      <trkpt lat="42.33161" lon="27.72815">
        <ele>7.1</ele>
      </trkpt>
      <trkpt lat="42.33052" lon="27.72906">
        <ele>10.4</ele>
      </trkpt>
      <trkpt lat="42.32993" lon="27.72944">
        <ele>9</ele>
      </trkpt>
      <trkpt lat="42.32836" lon="27.73012">
        <ele>10</ele>
      </trkpt>
      <trkpt lat="42.32705" lon="27.73061">
        <ele>9.6</ele>
      </trkpt>
      <trkpt lat="42.32609" lon="27.73064">
        <ele>13.2</ele>
      </trkpt>
      <trkpt lat="42.3248" lon="27.73043">
        <ele>12.1</ele>
      </trkpt>
      <trkpt lat="42.32339" lon="27.73018">
        <ele>15.4</ele>
      </trkpt>
      <trkpt lat="42.32209" lon="27.73026">
        <ele>24.8</ele>
      </trkpt>
      <trkpt lat="42.32122" lon="27.73025">
        <ele>28.4</ele>
      </trkpt>
      <trkpt lat="42.32098" lon="27.73038">
        <ele>27.6</ele>
      </trkpt>
      <trkpt lat="42.32069" lon="27.73081">
        <ele>21.4</ele>
      </trkpt>
      <trkpt lat="42.32021" lon="27.73118">
        <ele>17.4</ele>
      </trkpt>
      <trkpt lat="42.31891" lon="27.73178">
        <ele>9.4</ele>
      </trkpt>
      <trkpt lat="42.31843" lon="27.73182">
        <ele>9.6</ele>
      </trkpt>
      <trkpt lat="42.31797" lon="27.73159">
        <ele>10.1</ele>
      </trkpt>
      <trkpt lat="42.31761" lon="27.73122">
        <ele>11.3</ele>
      </trkpt>
      <trkpt lat="42.31556" lon="27.72907">
        <ele>5.1</ele>
      </trkpt>
      <trkpt lat="42.31505" lon="27.7285">
        <ele>4</ele>
      </trkpt>
      <trkpt lat="42.31412" lon="27.72762">
        <ele>5.8</ele>
      </trkpt>
      <trkpt lat="42.31298" lon="27.72684">
        <ele>13.2</ele>
      </trkpt>
      <trkpt lat="42.31209" lon="27.72583">
        <ele>18.2</ele>
      </trkpt>
      <trkpt lat="42.3112" lon="27.72527">
        <ele>12.6</ele>
      </trkpt>
      <trkpt lat="42.31028" lon="27.72451">
        <ele>16.2</ele>
      </trkpt>
      <trkpt lat="42.31002" lon="27.72437">
        <ele>15.5</ele>
      </trkpt>
      <trkpt lat="42.30771" lon="27.7236">
        <ele>12.8</ele>
      </trkpt>
      <trkpt lat="42.30662" lon="27.72325">
        <ele>11.6</ele>
      </trkpt>
      <trkpt lat="42.30606" lon="27.72277">
        <ele>12.2</ele>
      </trkpt>
      <trkpt lat="42.30578" lon="27.72251">
        <ele>11.8</ele>
      </trkpt>
      <trkpt lat="42.30531" lon="27.72245">
        <ele>11.3</ele>
      </trkpt>
      <trkpt lat="42.30493" lon="27.72239">
        <ele>11.4</ele>
      </trkpt>
      <trkpt lat="42.30432" lon="27.72277">
        <ele>13.2</ele>
      </trkpt>
      <trkpt lat="42.30388" lon="27.72353">
        <ele>11.9</ele>
      </trkpt>
      <trkpt lat="42.30333" lon="27.72476">
        <ele>6.9</ele>
      </trkpt>
      <trkpt lat="42.30225" lon="27.72643">
        <ele>13</ele>
      </trkpt>
      <trkpt lat="42.30176" lon="27.72891">
        <ele>13.4</ele>
      </trkpt>
      <trkpt lat="42.30136" lon="27.72927">
        <ele>13.7</ele>
      </trkpt>
      <trkpt lat="42.29994" lon="27.72937">
        <ele>12.9</ele>
      </trkpt>
      <trkpt lat="42.29805" lon="27.72957">
        <ele>25.7</ele>
      </trkpt>
      <trkpt lat="42.29539" lon="27.72986">
        <ele>45.1</ele>
      </trkpt>
      <trkpt lat="42.2941" lon="27.73">
        <ele>48.9</ele>
      </trkpt>
      <trkpt lat="42.29356" lon="27.73034">
        <ele>50.8</ele>
      </trkpt>
      <trkpt lat="42.29306" lon="27.73107">
        <ele>52.8</ele>
      </trkpt>
      <trkpt lat="42.29165" lon="27.73378">
        <ele>52.4</ele>
      </trkpt>
      <trkpt lat="42.2913" lon="27.73414">
        <ele>51.1</ele>
      </trkpt>
      <trkpt lat="42.29035" lon="27.73463">
        <ele>48.7</ele>
      </trkpt>
      <trkpt lat="42.28628" lon="27.73621">
        <ele>31</ele>
      </trkpt>
      <trkpt lat="42.27165" lon="27.74203">
        <ele>25.1</ele>
      </trkpt>
      <trkpt lat="42.26635" lon="27.74278">
        <ele>10.6</ele>
      </trkpt>
      <trkpt lat="42.26563" lon="27.7446">
        <ele>13</ele>
      </trkpt>
      <trkpt lat="42.26568" lon="27.74769">
        <ele>17.2</ele>
      </trkpt>
      <trkpt lat="42.26527" lon="27.74785">
        <ele>17.5</ele>
      </trkpt>
      <trkpt lat="42.26399" lon="27.75019">
        <ele>9.8</ele>
      </trkpt>
      <trkpt lat="42.26317" lon="27.75048">
        <ele>9.4</ele>
      </trkpt>
      <trkpt lat="42.25562" lon="27.7483">
        <ele>2.3</ele>
      </trkpt>
      <trkpt lat="42.254" lon="27.74882">
        <ele>2.4</ele>
      </trkpt>
      <trkpt lat="42.25138" lon="27.74977">
        <ele>4.1</ele>
      </trkpt>
      <trkpt lat="42.24953" lon="27.7519">
        <ele>6.55</ele>
      </trkpt>
      <trkpt lat="42.24748" lon="27.75304">
        <ele>4.4</ele>
      </trkpt>
      <trkpt lat="42.24613" lon="27.75477">
        <ele>7.8</ele>
      </trkpt>
      <trkpt lat="42.24519" lon="27.75542">
        <ele>14</ele>
      </trkpt>
      <trkpt lat="42.2449" lon="27.75711">
        <ele>18</ele>
      </trkpt>
      <trkpt lat="42.24339" lon="27.76012">
        <ele>26.4</ele>
      </trkpt>
      <trkpt lat="42.24274" lon="27.76162">
        <ele>24.6</ele>
      </trkpt>
      <trkpt lat="42.24293" lon="27.76334">
        <ele>24.9</ele>
      </trkpt>
      <trkpt lat="42.24298" lon="27.76461">
        <ele>17.8</ele>
      </trkpt>
      <trkpt lat="42.24247" lon="27.76519">
        <ele>16.6</ele>
      </trkpt>
      <trkpt lat="42.24175" lon="27.76516">
        <ele>14.7</ele>
      </trkpt>
      <trkpt lat="42.24093" lon="27.7651">
        <ele>10.9</ele>
      </trkpt>
      <trkpt lat="42.24043" lon="27.76477">
        <ele>11.1</ele>
      </trkpt>
      <trkpt lat="42.23949" lon="27.76491">
        <ele>8</ele>
      </trkpt>
      <trkpt lat="42.23896" lon="27.76591">
        <ele>10.6</ele>
      </trkpt>
      <trkpt lat="42.23913" lon="27.76787">
        <ele>16.2</ele>
      </trkpt>
      <trkpt lat="42.23792" lon="27.77027">
        <ele>21.5</ele>
      </trkpt>
      <trkpt lat="42.23449" lon="27.77132">
        <ele>26</ele>
      </trkpt>
      <trkpt lat="42.23451" lon="27.7682">
        <ele>35.4</ele>
      </trkpt>
      <trkpt lat="42.23326" lon="27.7668">
        <ele>34.6</ele>
      </trkpt>
      <trkpt lat="42.2328" lon="27.76596">
        <ele>37.6</ele>
      </trkpt>
      <trkpt lat="42.23302" lon="27.76531">
        <ele>36.2</ele>
      </trkpt>
      <trkpt lat="42.23357" lon="27.7657">
        <ele>34.3</ele>
      </trkpt>
      <trkpt lat="42.23333" lon="27.76661">
        <ele>34.9</ele>
      </trkpt>
      <trkpt lat="42.23223" lon="27.76849">
        <ele>22.7</ele>
      </trkpt>
      <trkpt lat="42.22969" lon="27.77279">
        <ele>6.2</ele>
      </trkpt>
      <trkpt lat="42.22841" lon="27.77413">
        <ele>7.2</ele>
      </trkpt>
      <trkpt lat="42.22652" lon="27.77569">
        <ele>5.5</ele>
      </trkpt>
      <trkpt lat="42.22447" lon="27.7774">
        <ele>5.8</ele>
      </trkpt>
      <trkpt lat="42.22343" lon="27.77815">
        <ele>10</ele>
      </trkpt>
      <trkpt lat="42.2223" lon="27.77839">
        <ele>12.4</ele>
      </trkpt>
      <trkpt lat="42.22223" lon="27.77877">
        <ele>15.5</ele>
      </trkpt>
      <trkpt lat="42.22204" lon="27.77858">
        <ele>14.1</ele>
      </trkpt>
      <trkpt lat="42.22167" lon="27.77846">
        <ele>13.2</ele>
      </trkpt>
      <trkpt lat="42.22095" lon="27.77846">
        <ele>12.3</ele>
      </trkpt>
      <trkpt lat="42.21995" lon="27.77852">
        <ele>12.2</ele>
      </trkpt>
      <trkpt lat="42.21952" lon="27.77887">
        <ele>13.2</ele>
      </trkpt>
      <trkpt lat="42.21918" lon="27.77919">
        <ele>12.3</ele>
      </trkpt>
      <trkpt lat="42.21894" lon="27.77934">
        <ele>12.8</ele>
      </trkpt>
      <trkpt lat="42.21871" lon="27.77966">
        <ele>14</ele>
      </trkpt>
      <trkpt lat="42.21864" lon="27.78023">
        <ele>16</ele>
      </trkpt>
      <trkpt lat="42.2184" lon="27.78076">
        <ele>15.4</ele>
      </trkpt>
      <trkpt lat="42.21838" lon="27.78128">
        <ele>18</ele>
      </trkpt>
      <trkpt lat="42.21856" lon="27.78279">
        <ele>23.3</ele>
      </trkpt>
      <trkpt lat="42.21819" lon="27.78388">
        <ele>21</ele>
      </trkpt>
      <trkpt lat="42.21786" lon="27.78507">
        <ele>24.2</ele>
      </trkpt>
      <trkpt lat="42.21762" lon="27.78532">
        <ele>24.8</ele>
      </trkpt>
      <trkpt lat="42.21716" lon="27.78541">
        <ele>23.8</ele>
      </trkpt>
      <trkpt lat="42.21624" lon="27.78541">
        <ele>20.5</ele>
      </trkpt>
      <trkpt lat="42.21592" lon="27.78541">
        <ele>19.4</ele>
      </trkpt>
      <trkpt lat="42.21576" lon="27.78557">
        <ele>18.5</ele>
      </trkpt>
      <trkpt lat="42.21568" lon="27.78599">
        <ele>17.5</ele>
      </trkpt>
      <trkpt lat="42.21571" lon="27.78666">
        <ele>16.9</ele>
      </trkpt>
      <trkpt lat="42.21593" lon="27.78769">
        <ele>14.1</ele>
      </trkpt>
      <trkpt lat="42.21588" lon="27.78841">
        <ele>13.5</ele>
      </trkpt>
      <trkpt lat="42.2156" lon="27.78878">
        <ele>14</ele>
      </trkpt>
      <trkpt lat="42.21505" lon="27.78916">
        <ele>14</ele>
      </trkpt>
      <trkpt lat="42.21463" lon="27.78907">
        <ele>13.9</ele>
      </trkpt>
      <trkpt lat="42.21443" lon="27.78895">
        <ele>14.1</ele>
      </trkpt>
      <trkpt lat="42.21416" lon="27.78904">
        <ele>13.5</ele>
      </trkpt>
      <trkpt lat="42.21401" lon="27.78924">
        <ele>13.6</ele>
      </trkpt>
      <trkpt lat="42.21392" lon="27.78959">
        <ele>13.9</ele>
      </trkpt>
      <trkpt lat="42.21387" lon="27.79013">
        <ele>13.7</ele>
      </trkpt>
      <trkpt lat="42.21333" lon="27.79131">
        <ele>9.7</ele>
      </trkpt>
      <trkpt lat="42.2128" lon="27.79205">
        <ele>9.2</ele>
      </trkpt>
      <trkpt lat="42.21171" lon="27.79339">
        <ele>15.9</ele>
      </trkpt>
      <trkpt lat="42.21056" lon="27.79481">
        <ele>27.3</ele>
      </trkpt>
      <trkpt lat="42.2102" lon="27.79534">
        <ele>25.3</ele>
      </trkpt>
      <trkpt lat="42.20986" lon="27.79639">
        <ele>18.2</ele>
      </trkpt>
      <trkpt lat="42.20902" lon="27.79935">
        <ele>11.5</ele>
      </trkpt>
      <trkpt lat="42.20906" lon="27.80004">
        <ele>10.1</ele>
      </trkpt>
      <trkpt lat="42.20926" lon="27.80152">
        <ele>8.7</ele>
      </trkpt>
      <trkpt lat="42.20929" lon="27.80457">
        <ele>18</ele>
      </trkpt>
      <trkpt lat="42.20792" lon="27.80754">
        <ele>21.9</ele>
      </trkpt>
      <trkpt lat="42.20731" lon="27.80883">
        <ele>20.4</ele>
      </trkpt>
      <trkpt lat="42.207" lon="27.80866">
        <ele>20.8</ele>
      </trkpt>
      <trkpt lat="42.2069" lon="27.80894">
        <ele>19.4</ele>
      </trkpt>
      <trkpt lat="42.20655" lon="27.80905">
        <ele>18.7</ele>
      </trkpt>
      <trkpt lat="42.20602" lon="27.8097">
        <ele>19.5</ele>
      </trkpt>
      <trkpt lat="42.20442" lon="27.81188">
        <ele>29.3</ele>
      </trkpt>
      <trkpt lat="42.20312" lon="27.81345">
        <ele>19.9</ele>
      </trkpt>
      <trkpt lat="42.20257" lon="27.81399">
        <ele>16</ele>
      </trkpt>
      <trkpt lat="42.20192" lon="27.81511">
        <ele>13.5</ele>
      </trkpt>
      <trkpt lat="42.20029" lon="27.8162">
        <ele>10.3</ele>
      </trkpt>
      <trkpt lat="42.19882" lon="27.81718">
        <ele>9.5</ele>
      </trkpt>
      <trkpt lat="42.19752" lon="27.81806">
        <ele>9</ele>
      </trkpt>
      <trkpt lat="42.1971" lon="27.81839">
        <ele>10.6</ele>
      </trkpt>
      <trkpt lat="42.19688" lon="27.81867">
        <ele>12.4</ele>
      </trkpt>
      <trkpt lat="42.19674" lon="27.81922">
        <ele>14.9</ele>
      </trkpt>
      <trkpt lat="42.19659" lon="27.8199">
        <ele>18.8</ele>
      </trkpt>
      <trkpt lat="42.19632" lon="27.82025">
        <ele>19.6</ele>
      </trkpt>
      <trkpt lat="42.19384" lon="27.82279">
        <ele>29.3</ele>
      </trkpt>
      <trkpt lat="42.19324" lon="27.82326">
        <ele>27.8</ele>
      </trkpt>
      <trkpt lat="42.19244" lon="27.82436">
        <ele>20.7</ele>
      </trkpt>
      <trkpt lat="42.19207" lon="27.8249">
        <ele>17.4</ele>
      </trkpt>
      <trkpt lat="42.19177" lon="27.82502">
        <ele>17</ele>
      </trkpt>
      <trkpt lat="42.1909" lon="27.82526">
        <ele>19.7</ele>
      </trkpt>
      <trkpt lat="42.1902" lon="27.82614">
        <ele>25.1</ele>
      </trkpt>
      <trkpt lat="42.18882" lon="27.82769">
        <ele>30.9</ele>
      </trkpt>
      <trkpt lat="42.18835" lon="27.82821">
        <ele>31.1</ele>
      </trkpt>
      <trkpt lat="42.18752" lon="27.82889">
        <ele>27.1</ele>
      </trkpt>
      <trkpt lat="42.18718" lon="27.82907">
        <ele>25.4</ele>
      </trkpt>
      <trkpt lat="42.18619" lon="27.83026">
        <ele>19.7</ele>
      </trkpt>
      <trkpt lat="42.18558" lon="27.83094">
        <ele>14.7</ele>
      </trkpt>
      <trkpt lat="42.18491" lon="27.83212">
        <ele>10.1</ele>
      </trkpt>
      <trkpt lat="42.18457" lon="27.83262">
        <ele>11.2</ele>
      </trkpt>
      <trkpt lat="42.18411" lon="27.83318">
        <ele>13.7</ele>
      </trkpt>
      <trkpt lat="42.1835" lon="27.83323">
        <ele>14.6</ele>
      </trkpt>
      <trkpt lat="42.18263" lon="27.83317">
        <ele>21</ele>
      </trkpt>
      <trkpt lat="42.18243" lon="27.83327">
        <ele>23</ele>
      </trkpt>
      <trkpt lat="42.18225" lon="27.83361">
        <ele>25.6</ele>
      </trkpt>
      <trkpt lat="42.18209" lon="27.83427">
        <ele>29.7</ele>
      </trkpt>
      <trkpt lat="42.18201" lon="27.83479">
        <ele>31</ele>
      </trkpt>
      <trkpt lat="42.18154" lon="27.83572">
        <ele>29.7</ele>
      </trkpt>
      <trkpt lat="42.18108" lon="27.8368">
        <ele>25.7</ele>
      </trkpt>
      <trkpt lat="42.1807" lon="27.83798">
        <ele>25.6</ele>
      </trkpt>
      <trkpt lat="42.17983" lon="27.839">
        <ele>25.9</ele>
      </trkpt>
      <trkpt lat="42.17883" lon="27.83996">
        <ele>25.7</ele>
      </trkpt>
      <trkpt lat="42.17831" lon="27.84029">
        <ele>24.6</ele>
      </trkpt>
      <trkpt lat="42.17775" lon="27.84029">
        <ele>22.3</ele>
      </trkpt>
      <trkpt lat="42.1764" lon="27.84001">
        <ele>15.7</ele>
      </trkpt>
      <trkpt lat="42.1761" lon="27.83985">
        <ele>15.6</ele>
      </trkpt>
      <trkpt lat="42.17573" lon="27.83989">
        <ele>16.3</ele>
      </trkpt>
      <trkpt lat="42.17525" lon="27.84017">
        <ele>20.6</ele>
      </trkpt>
      <trkpt lat="42.17442" lon="27.84125">
        <ele>26.3</ele>
      </trkpt>
      <trkpt lat="42.17381" lon="27.84205">
        <ele>30.9</ele>
      </trkpt>
      <trkpt lat="42.17355" lon="27.84317">
        <ele>33.7</ele>
      </trkpt>
      <trkpt lat="42.17347" lon="27.84363">
        <ele>33.7</ele>
      </trkpt>
      <trkpt lat="42.17326" lon="27.84395">
        <ele>34.1</ele>
      </trkpt>
      <trkpt lat="42.1726" lon="27.84428">
        <ele>35.3</ele>
      </trkpt>
      <trkpt lat="42.1722" lon="27.84432">
        <ele>34.1</ele>
      </trkpt>
      <trkpt lat="42.17132" lon="27.84412">
        <ele>33.5</ele>
      </trkpt>
      <trkpt lat="42.16989" lon="27.84511">
        <ele>36.6</ele>
      </trkpt>
      <trkpt lat="42.16712" lon="27.84719">
        <ele>15.1</ele>
      </trkpt>
      <trkpt lat="42.16601" lon="27.84466">
        <ele>17.7</ele>
      </trkpt>
      <trkpt lat="42.16412" lon="27.84048">
        <ele>21.4</ele>
      </trkpt>
      <trkpt lat="42.16371" lon="27.84108">
        <ele>21.3</ele>
      </trkpt>
      <trkpt lat="42.16308" lon="27.84292">
        <ele>27.2</ele>
      </trkpt>
      <trkpt lat="42.16137" lon="27.84848">
        <ele>41.6</ele>
      </trkpt>
      <trkpt lat="42.16005" lon="27.85296">
        <ele>31.6</ele>
      </trkpt>
      <trkpt lat="42.15944" lon="27.85445">
        <ele>25.4</ele>
      </trkpt>
      <trkpt lat="42.15852" lon="27.85606">
        <ele>13.6</ele>
      </trkpt>
      <trkpt lat="42.15612" lon="27.85895">
        <ele>9.8</ele>
      </trkpt>
      <trkpt lat="42.15491" lon="27.86053">
        <ele>20.7</ele>
      </trkpt>
      <trkpt lat="42.15386" lon="27.86215">
        <ele>24</ele>
      </trkpt>
      <trkpt lat="42.15089" lon="27.86869">
        <ele>32.4</ele>
      </trkpt>
      <trkpt lat="42.14926" lon="27.8724">
        <ele>17.1</ele>
      </trkpt>
      <trkpt lat="42.1487" lon="27.87259">
        <ele>15.3</ele>
      </trkpt>
      <trkpt lat="42.14774" lon="27.87296">
        <ele>16</ele>
      </trkpt>
      <trkpt lat="42.14599" lon="27.87483">
        <ele>11.1</ele>
      </trkpt>
      <trkpt lat="42.14599" lon="27.87538">
        <ele>11.7</ele>
      </trkpt>
      <trkpt lat="42.14648" lon="27.87656">
        <ele>12.1</ele>
      </trkpt>
      <trkpt lat="42.14631" lon="27.87749">
        <ele>12.3</ele>
      </trkpt>
      <trkpt lat="42.14683" lon="27.88242">
        <ele>11.3</ele>
      </trkpt>
      <trkpt lat="42.14672" lon="27.88303">
        <ele>10.6</ele>
      </trkpt>
      <trkpt lat="42.14614" lon="27.88353">
        <ele>9.1</ele>
      </trkpt>
      <trkpt lat="42.14501" lon="27.88335">
        <ele>10.9</ele>
      </trkpt>
      <trkpt lat="42.14412" lon="27.88312">
        <ele>17.1</ele>
      </trkpt>
      <trkpt lat="42.14365" lon="27.88321">
        <ele>21</ele>
      </trkpt>
      <trkpt lat="42.14192" lon="27.88486">
        <ele>23.8</ele>
      </trkpt>
      <trkpt lat="42.14159" lon="27.88553">
        <ele>25.6</ele>
      </trkpt>
      <trkpt lat="42.14154" lon="27.88636">
        <ele>24.4</ele>
      </trkpt>
      <trkpt lat="42.14222" lon="27.88992">
        <ele>21</ele>
      </trkpt>
      <trkpt lat="42.14217" lon="27.89073">
        <ele>18.4</ele>
      </trkpt>
      <trkpt lat="42.14098" lon="27.89381">
        <ele>14.7</ele>
      </trkpt>
      <trkpt lat="42.14045" lon="27.89455">
        <ele>16.3</ele>
      </trkpt>
      <trkpt lat="42.13784" lon="27.89717">
        <ele>17.5</ele>
      </trkpt>
      <trkpt lat="42.13728" lon="27.89719">
        <ele>17.2</ele>
      </trkpt>
      <trkpt lat="42.13575" lon="27.89637">
        <ele>12.4</ele>
      </trkpt>
      <trkpt lat="42.13452" lon="27.8966">
        <ele>8.7</ele>
      </trkpt>
      <trkpt lat="42.13385" lon="27.89748">
        <ele>8.8</ele>
      </trkpt>
      <trkpt lat="42.13324" lon="27.89751">
        <ele>10.7</ele>
      </trkpt>
      <trkpt lat="42.12959" lon="27.89684">
        <ele>30</ele>
      </trkpt>
      <trkpt lat="42.12346" lon="27.89841">
        <ele>34.8</ele>
      </trkpt>
      <trkpt lat="42.12282" lon="27.89833">
        <ele>37.4</ele>
      </trkpt>
      <trkpt lat="42.12215" lon="27.8998">
        <ele>36.7</ele>
      </trkpt>
      <trkpt lat="42.12171" lon="27.90032">
        <ele>34.3</ele>
      </trkpt>
      <trkpt lat="42.12047" lon="27.90014">
        <ele>28.6</ele>
      </trkpt>
      <trkpt lat="42.12014" lon="27.90014">
        <ele>26.6</ele>
      </trkpt>
      <trkpt lat="42.1198" lon="27.90101">
        <ele>23.6</ele>
      </trkpt>
      <trkpt lat="42.11975" lon="27.90255">
        <ele>19.4</ele>
      </trkpt>
      <trkpt lat="42.11931" lon="27.9037">
        <ele>14.6</ele>
      </trkpt>
      <trkpt lat="42.11934" lon="27.90439">
        <ele>13.2</ele>
      </trkpt>
      <trkpt lat="42.11828" lon="27.9077">
        <ele>7.6</ele>
      </trkpt>
      <trkpt lat="42.11729" lon="27.9108">
        <ele>11.5</ele>
      </trkpt>
      <trkpt lat="42.11631" lon="27.91223">
        <ele>10.7</ele>
      </trkpt>
      <trkpt lat="42.11497" lon="27.91334">
        <ele>8.9</ele>
      </trkpt>
      <trkpt lat="42.11421" lon="27.9135">
        <ele>8.7</ele>
      </trkpt>
      <trkpt lat="42.11181" lon="27.91204">
        <ele>6.2</ele>
      </trkpt>
      <trkpt lat="42.11111" lon="27.91228">
        <ele>7</ele>
      </trkpt>
      <trkpt lat="42.1108" lon="27.9127">
        <ele>7.8</ele>
      </trkpt>
      <trkpt lat="42.11055" lon="27.91444">
        <ele>14.8</ele>
      </trkpt>
      <trkpt lat="42.10431" lon="27.9206">
        <ele>18.7</ele>
      </trkpt>
      <trkpt lat="42.10257" lon="27.92222">
        <ele>16.5</ele>
      </trkpt>
      <trkpt lat="42.09496" lon="27.92803">
        <ele>33.4</ele>
      </trkpt>
      <trkpt lat="42.0946" lon="27.92897">
        <ele>32.3</ele>
      </trkpt>
      <trkpt lat="42.09532" lon="27.9318">
        <ele>22.7</ele>
      </trkpt>
      <trkpt lat="42.0961" lon="27.93302">
        <ele>24.9</ele>
      </trkpt>
      <trkpt lat="42.09871" lon="27.93633">
        <ele>30.4</ele>
      </trkpt>
      <trkpt lat="42.09863" lon="27.93772">
        <ele>29.1</ele>
      </trkpt>
      <trkpt lat="42.09806" lon="27.9387">
        <ele>28.1</ele>
      </trkpt>
      <trkpt lat="42.09667" lon="27.94016">
        <ele>23.2</ele>
      </trkpt>
      <trkpt lat="42.09563" lon="27.93985">
        <ele>18</ele>
      </trkpt>
      <trkpt lat="42.09563" lon="27.93946">
        <ele>19.1</ele>
      </trkpt>
      <trkpt lat="42.09572" lon="27.93903">
        <ele>20.7</ele>
      </trkpt>
      <trkpt lat="42.09588" lon="27.93865">
        <ele>21.9</ele>
      </trkpt>
      <trkpt lat="42.09592" lon="27.9382">
        <ele>23</ele>
      </trkpt>
      <trkpt lat="42.09586" lon="27.938">
        <ele>23.4</ele>
      </trkpt>
      <trkpt lat="42.09476" lon="27.93702">
        <ele>23</ele>
      </trkpt>
      <trkpt lat="42.09308" lon="27.93552">
        <ele>30.6</ele>
      </trkpt>
      <trkpt lat="42.0923" lon="27.93483">
        <ele>34.1</ele>
      </trkpt>
      <trkpt lat="42.08896" lon="27.93178">
        <ele>44.5</ele>
      </trkpt>
      <trkpt lat="42.08775" lon="27.93063">
        <ele>48.6</ele>
      </trkpt>
      <trkpt lat="42.08743" lon="27.93021">
        <ele>49.1</ele>
      </trkpt>
      <trkpt lat="42.08676" lon="27.93017">
        <ele>50.6</ele>
      </trkpt>
      <trkpt lat="42.08611" lon="27.92959">
        <ele>51.3</ele>
      </trkpt>
      <trkpt lat="42.08548" lon="27.92851">
        <ele>54.4</ele>
      </trkpt>
      <trkpt lat="42.08423" lon="27.92696">
        <ele>59.7</ele>
      </trkpt>
      <trkpt lat="42.08349" lon="27.92616">
        <ele>64.2</ele>
      </trkpt>
      <trkpt lat="42.08331" lon="27.92582">
        <ele>65.1</ele>
      </trkpt>
      <trkpt lat="42.08203" lon="27.92526">
        <ele>70.6</ele>
      </trkpt>
      <trkpt lat="42.08131" lon="27.92504">
        <ele>75.4</ele>
      </trkpt>
      <trkpt lat="42.08054" lon="27.9254">
        <ele>80.6</ele>
      </trkpt>
      <trkpt lat="42.08034" lon="27.92493">
        <ele>81.7</ele>
      </trkpt>
      <trkpt lat="42.08016" lon="27.92357">
        <ele>80.9</ele>
      </trkpt>
      <trkpt lat="42.08056" lon="27.92289">
        <ele>80.6</ele>
      </trkpt>
      <trkpt lat="42.08047" lon="27.92099">
        <ele>85.5</ele>
      </trkpt>
      <trkpt lat="42.08025" lon="27.91829">
        <ele>91.1</ele>
      </trkpt>
      <trkpt lat="42.08036" lon="27.91431">
        <ele>94.7</ele>
      </trkpt>
      <trkpt lat="42.0799" lon="27.91251">
        <ele>104.4</ele>
      </trkpt>
      <trkpt lat="42.07986" lon="27.9119">
        <ele>104.9</ele>
      </trkpt>
      <trkpt lat="42.07989" lon="27.9114">
        <ele>104.5</ele>
      </trkpt>
      <trkpt lat="42.07971" lon="27.91095">
        <ele>102.6</ele>
      </trkpt>
      <trkpt lat="42.07963" lon="27.91007">
        <ele>103</ele>
      </trkpt>
      <trkpt lat="42.07949" lon="27.9093">
        <ele>106.2</ele>
      </trkpt>
      <trkpt lat="42.07889" lon="27.90846">
        <ele>108.6</ele>
      </trkpt>
      <trkpt lat="42.07834" lon="27.90767">
        <ele>112.2</ele>
      </trkpt>
      <trkpt lat="42.07789" lon="27.90644">
        <ele>110.9</ele>
      </trkpt>
      <trkpt lat="42.07782" lon="27.90601">
        <ele>108.9</ele>
      </trkpt>
      <trkpt lat="42.0777" lon="27.90498">
        <ele>107</ele>
      </trkpt>
      <trkpt lat="42.07755" lon="27.90465">
        <ele>106.2</ele>
      </trkpt>
      <trkpt lat="42.07725" lon="27.90362">
        <ele>104.2</ele>
      </trkpt>
      <trkpt lat="42.07736" lon="27.90253">
        <ele>98.5</ele>
      </trkpt>
      <trkpt lat="42.07698" lon="27.90216">
        <ele>99.5</ele>
      </trkpt>
      <trkpt lat="42.07678" lon="27.90208">
        <ele>99.5</ele>
      </trkpt>
      <trkpt lat="42.07656" lon="27.90161">
        <ele>100.2</ele>
      </trkpt>
      <trkpt lat="42.07642" lon="27.90112">
        <ele>103.8</ele>
      </trkpt>
      <trkpt lat="42.07612" lon="27.90069">
        <ele>107.8</ele>
      </trkpt>
      <trkpt lat="42.07562" lon="27.89893">
        <ele>118.9</ele>
      </trkpt>
      <trkpt lat="42.07568" lon="27.89848">
        <ele>119.7</ele>
      </trkpt>
      <trkpt lat="42.07643" lon="27.89728">
        <ele>123.2</ele>
      </trkpt>
      <trkpt lat="42.07665" lon="27.89616">
        <ele>127.7</ele>
      </trkpt>
      <trkpt lat="42.07734" lon="27.89512">
        <ele>130.9</ele>
      </trkpt>
      <trkpt lat="42.07845" lon="27.89407">
        <ele>137</ele>
      </trkpt>
      <trkpt lat="42.07878" lon="27.89302">
        <ele>139.1</ele>
      </trkpt>
      <trkpt lat="42.07912" lon="27.89265">
        <ele>143</ele>
      </trkpt>
      <trkpt lat="42.07928" lon="27.89149">
        <ele>148.7</ele>
      </trkpt>
      <trkpt lat="42.07934" lon="27.8897">
        <ele>155.2</ele>
      </trkpt>
      <trkpt lat="42.08032" lon="27.88812">
        <ele>152.2</ele>
      </trkpt>
      <trkpt lat="42.08104" lon="27.88774">
        <ele>158.3</ele>
      </trkpt>
      <trkpt lat="42.0811" lon="27.88636">
        <ele>152.8</ele>
      </trkpt>
      <trkpt lat="42.08168" lon="27.8858">
        <ele>158.7</ele>
      </trkpt>
      <trkpt lat="42.08221" lon="27.88472">
        <ele>149.3</ele>
      </trkpt>
      <trkpt lat="42.08318" lon="27.88397">
        <ele>151.6</ele>
      </trkpt>
      <trkpt lat="42.0831" lon="27.88324">
        <ele>139.2</ele>
      </trkpt>
      <trkpt lat="42.08346" lon="27.88215">
        <ele>131.5</ele>
      </trkpt>
      <trkpt lat="42.08385" lon="27.88167">
        <ele>135.9</ele>
      </trkpt>
      <trkpt lat="42.08396" lon="27.8798">
        <ele>124.6</ele>
      </trkpt>
      <trkpt lat="42.08437" lon="27.87842">
        <ele>122.8</ele>
      </trkpt>
      <trkpt lat="42.08434" lon="27.87689">
        <ele>101.3</ele>
      </trkpt>
      <trkpt lat="42.08484" lon="27.87606">
        <ele>104.7</ele>
      </trkpt>
      <trkpt lat="42.08515" lon="27.87431">
        <ele>87.3</ele>
      </trkpt>
      <trkpt lat="42.08581" lon="27.87345">
        <ele>96.1</ele>
      </trkpt>
      <trkpt lat="42.08562" lon="27.87262">
        <ele>80.8</ele>
      </trkpt>
      <trkpt lat="42.08567" lon="27.87161">
        <ele>78.6</ele>
      </trkpt>
      <trkpt lat="42.08614" lon="27.8697">
        <ele>66.8</ele>
      </trkpt>
      <trkpt lat="42.0865" lon="27.86907">
        <ele>71.9</ele>
      </trkpt>
      <trkpt lat="42.08614" lon="27.86832">
        <ele>56.3</ele>
      </trkpt>
      <trkpt lat="42.08609" lon="27.86783">
        <ele>49.8</ele>
      </trkpt>
      <trkpt lat="42.08639" lon="27.86705">
        <ele>55.3</ele>
      </trkpt>
      <trkpt lat="42.08661" lon="27.86645">
        <ele>55.9</ele>
      </trkpt>
      <trkpt lat="42.08639" lon="27.86582">
        <ele>41.3</ele>
      </trkpt>
      <trkpt lat="42.08639" lon="27.8644">
        <ele>26.8</ele>
      </trkpt>
      <trkpt lat="42.08664" lon="27.86279">
        <ele>15.9</ele>
      </trkpt>
      <trkpt lat="42.08695" lon="27.86212">
        <ele>15.7</ele>
      </trkpt>
      <trkpt lat="42.08798" lon="27.8596">
        <ele>26.5</ele>
      </trkpt>
      <trkpt lat="42.08837" lon="27.85946">
        <ele>30.5</ele>
      </trkpt>
      <trkpt lat="42.08862" lon="27.85912">
        <ele>32.6</ele>
      </trkpt>
      <trkpt lat="42.08868" lon="27.85867">
        <ele>35</ele>
      </trkpt>
      <trkpt lat="42.08859" lon="27.85818">
        <ele>35.3</ele>
      </trkpt>
      <trkpt lat="42.08805" lon="27.85748">
        <ele>31.6</ele>
      </trkpt>
      <trkpt lat="42.08819" lon="27.8562">
        <ele>30.1</ele>
      </trkpt>
      <trkpt lat="42.08805" lon="27.85479">
        <ele>23.6</ele>
      </trkpt>
      <trkpt lat="42.08774" lon="27.85381">
        <ele>16.1</ele>
      </trkpt>
      <trkpt lat="42.08774" lon="27.85253">
        <ele>11.7</ele>
      </trkpt>
      <trkpt lat="42.08783" lon="27.85067">
        <ele>15.4</ele>
      </trkpt>
      <trkpt lat="42.08786" lon="27.85041">
        <ele>16.2</ele>
      </trkpt>
      <trkpt lat="42.08798" lon="27.84997">
        <ele>19</ele>
      </trkpt>
      <trkpt lat="42.08811" lon="27.8497">
        <ele>20.6</ele>
      </trkpt>
      <trkpt lat="42.08865" lon="27.84904">
        <ele>25.3</ele>
      </trkpt>
      <trkpt lat="42.0892" lon="27.84881">
        <ele>29.9</ele>
      </trkpt>
      <trkpt lat="42.09022" lon="27.84905">
        <ele>42</ele>
      </trkpt>
      <trkpt lat="42.09066" lon="27.84869">
        <ele>44.1</ele>
      </trkpt>
      <trkpt lat="42.09172" lon="27.84773">
        <ele>52.2</ele>
      </trkpt>
      <trkpt lat="42.09202" lon="27.84753">
        <ele>54.9</ele>
      </trkpt>
      <trkpt lat="42.09259" lon="27.84712">
        <ele>59.1</ele>
      </trkpt>
      <trkpt lat="42.09279" lon="27.84689">
        <ele>60.1</ele>
      </trkpt>
      <trkpt lat="42.09302" lon="27.84645">
        <ele>61.9</ele>
      </trkpt>
      <trkpt lat="42.09317" lon="27.84575">
        <ele>63.2</ele>
      </trkpt>
      <trkpt lat="42.09323" lon="27.84551">
        <ele>63.4</ele>
      </trkpt>
      <trkpt lat="42.09339" lon="27.84531">
        <ele>65</ele>
      </trkpt>
      <trkpt lat="42.09418" lon="27.84479">
        <ele>71.3</ele>
      </trkpt>
      <trkpt lat="42.09454" lon="27.84423">
        <ele>71.4</ele>
      </trkpt>
      <trkpt lat="42.09582" lon="27.84185">
        <ele>92.8</ele>
      </trkpt>
      <trkpt lat="42.09587" lon="27.84169">
        <ele>95.8</ele>
      </trkpt>
      <trkpt lat="42.09588" lon="27.84136">
        <ele>98.8</ele>
      </trkpt>
      <trkpt lat="42.09573" lon="27.84068">
        <ele>97.9</ele>
      </trkpt>
      <trkpt lat="42.09584" lon="27.84011">
        <ele>102.1</ele>
      </trkpt>
      <trkpt lat="42.09614" lon="27.83942">
        <ele>106.9</ele>
      </trkpt>
      <trkpt lat="42.09632" lon="27.83911">
        <ele>109.6</ele>
      </trkpt>
      <trkpt lat="42.09656" lon="27.83889">
        <ele>114.1</ele>
      </trkpt>
      <trkpt lat="42.09672" lon="27.83893">
        <ele>119</ele>
      </trkpt>
      <trkpt lat="42.09678" lon="27.83909">
        <ele>122.5</ele>
      </trkpt>
      <trkpt lat="42.09674" lon="27.83922">
        <ele>123.2</ele>
      </trkpt>
      <trkpt lat="42.09638" lon="27.83954">
        <ele>116</ele>
      </trkpt>
      <trkpt lat="42.09627" lon="27.83979">
        <ele>114.9</ele>
      </trkpt>
      <trkpt lat="42.09623" lon="27.84031">
        <ele>115.8</ele>
      </trkpt>
      <trkpt lat="42.09628" lon="27.84075">
        <ele>118.1</ele>
      </trkpt>
      <trkpt lat="42.0965" lon="27.84136">
        <ele>117.7</ele>
      </trkpt>
      <trkpt lat="42.09667" lon="27.84144">
        <ele>121.1</ele>
      </trkpt>
      <trkpt lat="42.09678" lon="27.8414">
        <ele>124.1</ele>
      </trkpt>
      <trkpt lat="42.09677" lon="27.84123">
        <ele>127</ele>
      </trkpt>
      <trkpt lat="42.09653" lon="27.84098">
        <ele>124.8</ele>
      </trkpt>
      <trkpt lat="42.09648" lon="27.84083">
        <ele>125.1</ele>
      </trkpt>
      <trkpt lat="42.09648" lon="27.84061">
        <ele>125</ele>
      </trkpt>
      <trkpt lat="42.09656" lon="27.84032">
        <ele>127.6</ele>
      </trkpt>
      <trkpt lat="42.09666" lon="27.8401">
        <ele>130.8</ele>
      </trkpt>
      <trkpt lat="42.09741" lon="27.83921">
        <ele>137.6</ele>
      </trkpt>
      <trkpt lat="42.09761" lon="27.83912">
        <ele>140.5</ele>
      </trkpt>
      <trkpt lat="42.09773" lon="27.83921">
        <ele>143.3</ele>
      </trkpt>
      <trkpt lat="42.09773" lon="27.83942">
        <ele>146</ele>
      </trkpt>
      <trkpt lat="42.09727" lon="27.84005">
        <ele>145.6</ele>
      </trkpt>
      <trkpt lat="42.09719" lon="27.84025">
        <ele>143.9</ele>
      </trkpt>
      <trkpt lat="42.0972" lon="27.84055">
        <ele>144.4</ele>
      </trkpt>
      <trkpt lat="42.09733" lon="27.84071">
        <ele>147.8</ele>
      </trkpt>
      <trkpt lat="42.09746" lon="27.84077">
        <ele>150.8</ele>
      </trkpt>
      <trkpt lat="42.09771" lon="27.84071">
        <ele>150.9</ele>
      </trkpt>
      <trkpt lat="42.09807" lon="27.84028">
        <ele>153.6</ele>
      </trkpt>
      <trkpt lat="42.09826" lon="27.84001">
        <ele>158</ele>
      </trkpt>
      <trkpt lat="42.09876" lon="27.8396">
        <ele>158.5</ele>
      </trkpt>
      <trkpt lat="42.09975" lon="27.83929">
        <ele>164.8</ele>
      </trkpt>
      <trkpt lat="42.1004" lon="27.83853">
        <ele>172</ele>
      </trkpt>
      <trkpt lat="42.10075" lon="27.83782">
        <ele>177.4</ele>
      </trkpt>
      <trkpt lat="42.10088" lon="27.83729">
        <ele>182.6</ele>
      </trkpt>
      <trkpt lat="42.10098" lon="27.83671">
        <ele>187.3</ele>
      </trkpt>
      <trkpt lat="42.10109" lon="27.83636">
        <ele>190.6</ele>
      </trkpt>
      <trkpt lat="42.10137" lon="27.83593">
        <ele>194.2</ele>
      </trkpt>
      <trkpt lat="42.10227" lon="27.83523">
        <ele>199.8</ele>
      </trkpt>
      <trkpt lat="42.103" lon="27.83444">
        <ele>206.1</ele>
      </trkpt>
      <trkpt lat="42.10397" lon="27.83197">
        <ele>215.9</ele>
      </trkpt>
      <trkpt lat="42.10414" lon="27.83162">
        <ele>215</ele>
      </trkpt>
      <trkpt lat="42.10454" lon="27.83143">
        <ele>217.8</ele>
      </trkpt>
      <trkpt lat="42.10493" lon="27.83153">
        <ele>221.4</ele>
      </trkpt>
      <trkpt lat="42.10583" lon="27.83235">
        <ele>227.3</ele>
      </trkpt>
      <trkpt lat="42.10638" lon="27.83235">
        <ele>234.2</ele>
      </trkpt>
      <trkpt lat="42.10823" lon="27.83195">
        <ele>254</ele>
      </trkpt>
      <trkpt lat="42.10918" lon="27.83155">
        <ele>261.8</ele>
      </trkpt>
      <trkpt lat="42.10973" lon="27.83131">
        <ele>263.5</ele>
      </trkpt>
      <trkpt lat="42.11028" lon="27.83157">
        <ele>263.4</ele>
      </trkpt>
      <trkpt lat="42.11037" lon="27.83135">
        <ele>263.5</ele>
      </trkpt>
      <trkpt lat="42.11039" lon="27.83117">
        <ele>263.5</ele>
      </trkpt>
      <trkpt lat="42.11025" lon="27.8309">
        <ele>263.7</ele>
      </trkpt>
      <trkpt lat="42.11004" lon="27.83008">
        <ele>269.4</ele>
      </trkpt>
      <trkpt lat="42.11024" lon="27.82874">
        <ele>276.6</ele>
      </trkpt>
      <trkpt lat="42.1097" lon="27.82679">
        <ele>286.6</ele>
      </trkpt>
      <trkpt lat="42.10963" lon="27.82593">
        <ele>286.5</ele>
      </trkpt>
      <trkpt lat="42.10949" lon="27.82513">
        <ele>283.5</ele>
      </trkpt>
      <trkpt lat="42.1095" lon="27.82475">
        <ele>283.2</ele>
      </trkpt>
      <trkpt lat="42.10988" lon="27.82352">
        <ele>293.6</ele>
      </trkpt>
      <trkpt lat="42.11109" lon="27.82123">
        <ele>330.5</ele>
      </trkpt>
      <trkpt lat="42.11092" lon="27.82071">
        <ele>329.6</ele>
      </trkpt>
      <trkpt lat="42.11082" lon="27.82035">
        <ele>327.4</ele>
      </trkpt>
      <trkpt lat="42.11085" lon="27.82066">
        <ele>329.7</ele>
      </trkpt>
      <trkpt lat="42.1108" lon="27.82085">
        <ele>330.5</ele>
      </trkpt>
      <trkpt lat="42.11074" lon="27.82091">
        <ele>329.5</ele>
      </trkpt>
      <trkpt lat="42.1107" lon="27.82074">
        <ele>328.1</ele>
      </trkpt>
      <trkpt lat="42.1106" lon="27.82067">
        <ele>326.2</ele>
      </trkpt>
      <trkpt lat="42.11058" lon="27.82044">
        <ele>324.5</ele>
      </trkpt>
      <trkpt lat="42.11044" lon="27.82024">
        <ele>321.5</ele>
      </trkpt>
      <trkpt lat="42.1105" lon="27.82004">
        <ele>321.2</ele>
      </trkpt>
      <trkpt lat="42.11069" lon="27.81991">
        <ele>322.5</ele>
      </trkpt>
      <trkpt lat="42.11051" lon="27.8193">
        <ele>315.3</ele>
      </trkpt>
      <trkpt lat="42.11036" lon="27.81928">
        <ele>313.8</ele>
      </trkpt>
      <trkpt lat="42.11023" lon="27.81919">
        <ele>312.1</ele>
      </trkpt>
      <trkpt lat="42.11018" lon="27.81901">
        <ele>311.7</ele>
      </trkpt>
      <trkpt lat="42.11019" lon="27.8189">
        <ele>311.9</ele>
      </trkpt>
      <trkpt lat="42.11039" lon="27.8189">
        <ele>312.9</ele>
      </trkpt>
      <trkpt lat="42.11024" lon="27.81844">
        <ele>312.4</ele>
      </trkpt>
      <trkpt lat="42.11012" lon="27.81801">
        <ele>316</ele>
      </trkpt>
      <trkpt lat="42.10988" lon="27.81737">
        <ele>323.6</ele>
      </trkpt>
      <trkpt lat="42.10983" lon="27.81655">
        <ele>335.1</ele>
      </trkpt>
      <trkpt lat="42.10991" lon="27.81597">
        <ele>345.8</ele>
      </trkpt>
      <trkpt lat="42.11006" lon="27.81544">
        <ele>349.6</ele>
      </trkpt>
      <trkpt lat="42.11077" lon="27.81454">
        <ele>343.1</ele>
      </trkpt>
      <trkpt lat="42.11078" lon="27.81435">
        <ele>342.1</ele>
      </trkpt>
      <trkpt lat="42.11086" lon="27.81412">
        <ele>339.7</ele>
      </trkpt>
      <trkpt lat="42.11079" lon="27.81397">
        <ele>338.4</ele>
      </trkpt>
      <trkpt lat="42.11081" lon="27.81372">
        <ele>335.2</ele>
      </trkpt>
      <trkpt lat="42.11094" lon="27.81307">
        <ele>324.9</ele>
      </trkpt>
      <trkpt lat="42.11076" lon="27.81288">
        <ele>324.2</ele>
      </trkpt>
      <trkpt lat="42.11087" lon="27.81258">
        <ele>320.4</ele>
      </trkpt>
      <trkpt lat="42.11076" lon="27.81056">
        <ele>308.9</ele>
      </trkpt>
      <trkpt lat="42.11121" lon="27.81039">
        <ele>304.9</ele>
      </trkpt>
      <trkpt lat="42.11118" lon="27.81009">
        <ele>302.3</ele>
      </trkpt>
      <trkpt lat="42.1109" lon="27.80998">
        <ele>303.1</ele>
      </trkpt>
      <trkpt lat="42.11125" lon="27.8085">
        <ele>266.8</ele>
      </trkpt>
      <trkpt lat="42.11159" lon="27.80807">
        <ele>257.4</ele>
      </trkpt>
      <trkpt lat="42.11175" lon="27.80721">
        <ele>247.8</ele>
      </trkpt>
      <trkpt lat="42.11284" lon="27.80359">
        <ele>236.9</ele>
      </trkpt>
      <trkpt lat="42.11295" lon="27.8029">
        <ele>232.6</ele>
      </trkpt>
      <trkpt lat="42.11322" lon="27.80268">
        <ele>232.1</ele>
      </trkpt>
      <trkpt lat="42.11377" lon="27.80273">
        <ele>232.9</ele>
      </trkpt>
      <trkpt lat="42.11395" lon="27.80227">
        <ele>231.3</ele>
      </trkpt>
      <trkpt lat="42.11417" lon="27.80227">
        <ele>232.3</ele>
      </trkpt>
      <trkpt lat="42.11424" lon="27.80187">
        <ele>233.5</ele>
      </trkpt>
      <trkpt lat="42.11435" lon="27.80167">
        <ele>235.5</ele>
      </trkpt>
      <trkpt lat="42.11419" lon="27.79999">
        <ele>234.3</ele>
      </trkpt>
      <trkpt lat="42.11443" lon="27.79966">
        <ele>236.6</ele>
      </trkpt>
      <trkpt lat="42.11479" lon="27.79946">
        <ele>240.7</ele>
      </trkpt>
      <trkpt lat="42.11639" lon="27.79909">
        <ele>250.3</ele>
      </trkpt>
      <trkpt lat="42.11747" lon="27.79823">
        <ele>253.6</ele>
      </trkpt>
      <trkpt lat="42.11728" lon="27.7978">
        <ele>255</ele>
      </trkpt>
      <trkpt lat="42.11732" lon="27.79757">
        <ele>256.2</ele>
      </trkpt>
      <trkpt lat="42.11818" lon="27.79726">
        <ele>261.6</ele>
      </trkpt>
      <trkpt lat="42.11822" lon="27.79705">
        <ele>262.1</ele>
      </trkpt>
      <trkpt lat="42.11764" lon="27.79623">
        <ele>258.6</ele>
      </trkpt>
      <trkpt lat="42.11779" lon="27.79603">
        <ele>258.5</ele>
      </trkpt>
      <trkpt lat="42.11832" lon="27.79577">
        <ele>260.8</ele>
      </trkpt>
      <trkpt lat="42.1183" lon="27.79564">
        <ele>260.5</ele>
      </trkpt>
      <trkpt lat="42.1181" lon="27.79547">
        <ele>258.6</ele>
      </trkpt>
      <trkpt lat="42.11809" lon="27.79511">
        <ele>257.4</ele>
      </trkpt>
      <trkpt lat="42.11833" lon="27.79477">
        <ele>259.2</ele>
      </trkpt>
      <trkpt lat="42.11879" lon="27.7947">
        <ele>259.1</ele>
      </trkpt>
      <trkpt lat="42.11887" lon="27.79528">
        <ele>261.2</ele>
      </trkpt>
      <trkpt lat="42.11916" lon="27.79548">
        <ele>262.1</ele>
      </trkpt>
      <trkpt lat="42.11914" lon="27.79478">
        <ele>259.6</ele>
      </trkpt>
      <trkpt lat="42.11937" lon="27.79462">
        <ele>256.8</ele>
      </trkpt>
      <trkpt lat="42.11973" lon="27.79305">
        <ele>241.3</ele>
      </trkpt>
      <trkpt lat="42.11955" lon="27.79225">
        <ele>237.9</ele>
      </trkpt>
      <trkpt lat="42.11951" lon="27.79189">
        <ele>237.8</ele>
      </trkpt>
      <trkpt lat="42.11915" lon="27.79188">
        <ele>238.7</ele>
      </trkpt>
      <trkpt lat="42.11883" lon="27.79056">
        <ele>242.1</ele>
      </trkpt>
      <trkpt lat="42.11921" lon="27.78966">
        <ele>243.3</ele>
      </trkpt>
      <trkpt lat="42.11919" lon="27.78862">
        <ele>239.8</ele>
      </trkpt>
      <trkpt lat="42.11948" lon="27.78823">
        <ele>240.2</ele>
      </trkpt>
      <trkpt lat="42.11965" lon="27.78725">
        <ele>238.1</ele>
      </trkpt>
      <trkpt lat="42.11994" lon="27.78703">
        <ele>241.1</ele>
      </trkpt>
      <trkpt lat="42.1202" lon="27.78694">
        <ele>241.4</ele>
      </trkpt>
      <trkpt lat="42.12029" lon="27.78721">
        <ele>241.6</ele>
      </trkpt>
      <trkpt lat="42.12021" lon="27.7875">
        <ele>242.3</ele>
      </trkpt>
      <trkpt lat="42.11979" lon="27.78771">
        <ele>241.4</ele>
      </trkpt>
      <trkpt lat="42.11973" lon="27.7882">
        <ele>242.3</ele>
      </trkpt>
      <trkpt lat="42.1196" lon="27.7883">
        <ele>241.5</ele>
      </trkpt>
      <trkpt lat="42.1196" lon="27.78851">
        <ele>241.5</ele>
      </trkpt>
      <trkpt lat="42.11976" lon="27.78853">
        <ele>242.4</ele>
      </trkpt>
      <trkpt lat="42.11997" lon="27.78835">
        <ele>244.6</ele>
      </trkpt>
      <trkpt lat="42.12007" lon="27.78863">
        <ele>242.5</ele>
      </trkpt>
      <trkpt lat="42.12036" lon="27.78856">
        <ele>241.6</ele>
      </trkpt>
      <trkpt lat="42.1204" lon="27.78811">
        <ele>242.3</ele>
      </trkpt>
      <trkpt lat="42.12065" lon="27.78815">
        <ele>241</ele>
      </trkpt>
      <trkpt lat="42.12072" lon="27.78744">
        <ele>240.5</ele>
      </trkpt>
      <trkpt lat="42.12047" lon="27.78689">
        <ele>241.1</ele>
      </trkpt>
      <trkpt lat="42.12086" lon="27.78617">
        <ele>243.4</ele>
      </trkpt>
      <trkpt lat="42.12076" lon="27.78558">
        <ele>242.7</ele>
      </trkpt>
      <trkpt lat="42.12092" lon="27.78548">
        <ele>243.2</ele>
      </trkpt>
      <trkpt lat="42.12115" lon="27.78612">
        <ele>243.7</ele>
      </trkpt>
      <trkpt lat="42.12148" lon="27.7863">
        <ele>243.2</ele>
      </trkpt>
      <trkpt lat="42.12151" lon="27.78652">
        <ele>242.4</ele>
      </trkpt>
      <trkpt lat="42.12185" lon="27.78661">
        <ele>241.1</ele>
      </trkpt>
      <trkpt lat="42.12201" lon="27.78648">
        <ele>240.6</ele>
      </trkpt>
      <trkpt lat="42.12209" lon="27.78614">
        <ele>241.4</ele>
      </trkpt>
      <trkpt lat="42.12224" lon="27.78589">
        <ele>241.4</ele>
      </trkpt>
      <trkpt lat="42.12242" lon="27.78596">
        <ele>240</ele>
      </trkpt>
      <trkpt lat="42.12225" lon="27.7863">
        <ele>239.8</ele>
      </trkpt>
      <trkpt lat="42.12216" lon="27.78669">
        <ele>238.9</ele>
      </trkpt>
      <trkpt lat="42.12169" lon="27.78744">
        <ele>236.3</ele>
      </trkpt>
      <trkpt lat="42.1217" lon="27.78768">
        <ele>235.4</ele>
      </trkpt>
      <trkpt lat="42.12264" lon="27.78709">
        <ele>232.2</ele>
      </trkpt>
      <trkpt lat="42.12286" lon="27.78681">
        <ele>231.1</ele>
      </trkpt>
      <trkpt lat="42.12324" lon="27.78566">
        <ele>229.1</ele>
      </trkpt>
      <trkpt lat="42.1235" lon="27.78532">
        <ele>228.4</ele>
      </trkpt>
      <trkpt lat="42.12381" lon="27.78515">
        <ele>231.9</ele>
      </trkpt>
      <trkpt lat="42.1236" lon="27.78441">
        <ele>236.1</ele>
      </trkpt>
      <trkpt lat="42.12313" lon="27.78292">
        <ele>242.2</ele>
      </trkpt>
      <trkpt lat="42.12308" lon="27.78236">
        <ele>244.7</ele>
      </trkpt>
      <trkpt lat="42.12318" lon="27.78185">
        <ele>249.3</ele>
      </trkpt>
      <trkpt lat="42.12399" lon="27.7781">
        <ele>261.7</ele>
      </trkpt>
      <trkpt lat="42.12434" lon="27.77756">
        <ele>259.7</ele>
      </trkpt>
      <trkpt lat="42.12499" lon="27.7769">
        <ele>259.5</ele>
      </trkpt>
      <trkpt lat="42.12502" lon="27.77639">
        <ele>257.6</ele>
      </trkpt>
      <trkpt lat="42.12497" lon="27.77593">
        <ele>257.1</ele>
      </trkpt>
      <trkpt lat="42.12475" lon="27.77543">
        <ele>259.3</ele>
      </trkpt>
      <trkpt lat="42.12449" lon="27.77519">
        <ele>258.1</ele>
      </trkpt>
      <trkpt lat="42.12357" lon="27.77488">
        <ele>254.5</ele>
      </trkpt>
      <trkpt lat="42.12297" lon="27.77451">
        <ele>255.2</ele>
      </trkpt>
      <trkpt lat="42.12209" lon="27.77397">
        <ele>252.2</ele>
      </trkpt>
      <trkpt lat="42.12102" lon="27.77137">
        <ele>236.8</ele>
      </trkpt>
      <trkpt lat="42.12106" lon="27.76961">
        <ele>228.5</ele>
      </trkpt>
      <trkpt lat="42.12089" lon="27.76906">
        <ele>225.4</ele>
      </trkpt>
      <trkpt lat="42.12065" lon="27.7688">
        <ele>226</ele>
      </trkpt>
      <trkpt lat="42.12037" lon="27.76867">
        <ele>228.1</ele>
      </trkpt>
      <trkpt lat="42.11967" lon="27.76875">
        <ele>231.6</ele>
      </trkpt>
      <trkpt lat="42.11872" lon="27.76847">
        <ele>240.6</ele>
      </trkpt>
      <trkpt lat="42.11809" lon="27.76857">
        <ele>243</ele>
      </trkpt>
      <trkpt lat="42.11764" lon="27.76831">
        <ele>244.3</ele>
      </trkpt>
      <trkpt lat="42.11739" lon="27.76748">
        <ele>247.8</ele>
      </trkpt>
      <trkpt lat="42.11788" lon="27.76605">
        <ele>248.6</ele>
      </trkpt>
      <trkpt lat="42.11791" lon="27.76521">
        <ele>247.3</ele>
      </trkpt>
      <trkpt lat="42.11772" lon="27.76461">
        <ele>247.9</ele>
      </trkpt>
      <trkpt lat="42.11714" lon="27.76316">
        <ele>244.5</ele>
      </trkpt>
      <trkpt lat="42.11611" lon="27.75915">
        <ele>246.4</ele>
      </trkpt>
      <trkpt lat="42.11583" lon="27.75867">
        <ele>247.2</ele>
      </trkpt>
      <trkpt lat="42.11448" lon="27.75794">
        <ele>245.6</ele>
      </trkpt>
      <trkpt lat="42.1134" lon="27.75668">
        <ele>241.3</ele>
      </trkpt>
      <trkpt lat="42.11203" lon="27.75633">
        <ele>244</ele>
      </trkpt>
      <trkpt lat="42.11179" lon="27.75583">
        <ele>244.2</ele>
      </trkpt>
      <trkpt lat="42.11166" lon="27.75503">
        <ele>248.9</ele>
      </trkpt>
      <trkpt lat="42.11139" lon="27.75476">
        <ele>251.8</ele>
      </trkpt>
      <trkpt lat="42.10952" lon="27.75434">
        <ele>257.9</ele>
      </trkpt>
      <trkpt lat="42.10815" lon="27.75379">
        <ele>263</ele>
      </trkpt>
      <trkpt lat="42.10632" lon="27.75214">
        <ele>266.6</ele>
      </trkpt>
      <trkpt lat="42.10592" lon="27.75192">
        <ele>270.3</ele>
      </trkpt>
      <trkpt lat="42.105" lon="27.75197">
        <ele>279.8</ele>
      </trkpt>
      <trkpt lat="42.10447" lon="27.75085">
        <ele>285.2</ele>
      </trkpt>
      <trkpt lat="42.10418" lon="27.75057">
        <ele>288.2</ele>
      </trkpt>
      <trkpt lat="42.1031" lon="27.75068">
        <ele>289.8</ele>
      </trkpt>
      <trkpt lat="42.10283" lon="27.75041">
        <ele>291.4</ele>
      </trkpt>
      <trkpt lat="42.1024" lon="27.74834">
        <ele>297.9</ele>
      </trkpt>
      <trkpt lat="42.10215" lon="27.74782">
        <ele>299.8</ele>
      </trkpt>
      <trkpt lat="42.10106" lon="27.74707">
        <ele>307.3</ele>
      </trkpt>
      <trkpt lat="42.10085" lon="27.74667">
        <ele>309</ele>
      </trkpt>
      <trkpt lat="42.10046" lon="27.74499">
        <ele>305.8</ele>
      </trkpt>
      <trkpt lat="42.09887" lon="27.74222">
        <ele>315.4</ele>
      </trkpt>
      <trkpt lat="42.09768" lon="27.74115">
        <ele>321.5</ele>
      </trkpt>
      <trkpt lat="42.09764" lon="27.73972">
        <ele>318.5</ele>
      </trkpt>
      <trkpt lat="42.09757" lon="27.73943">
        <ele>317.8</ele>
      </trkpt>
      <trkpt lat="42.09666" lon="27.7388">
        <ele>316.5</ele>
      </trkpt>
      <trkpt lat="42.09645" lon="27.73855">
        <ele>316</ele>
      </trkpt>
      <trkpt lat="42.09612" lon="27.73745">
        <ele>314</ele>
      </trkpt>
      <trkpt lat="42.09542" lon="27.73643">
        <ele>313.9</ele>
      </trkpt>
      <trkpt lat="42.09414" lon="27.73467">
        <ele>321.1</ele>
      </trkpt>
      <trkpt lat="42.09344" lon="27.73405">
        <ele>319.6</ele>
      </trkpt>
      <trkpt lat="42.09247" lon="27.73334">
        <ele>316.5</ele>
      </trkpt>
      <trkpt lat="42.09232" lon="27.73311">
        <ele>313.4</ele>
      </trkpt>
      <trkpt lat="42.09227" lon="27.73279">
        <ele>311.3</ele>
      </trkpt>
      <trkpt lat="42.09237" lon="27.73247">
        <ele>310.9</ele>
      </trkpt>
      <trkpt lat="42.09279" lon="27.73188">
        <ele>309.6</ele>
      </trkpt>
      <trkpt lat="42.09312" lon="27.73162">
        <ele>307.9</ele>
      </trkpt>
      <trkpt lat="42.0939" lon="27.73189">
        <ele>309</ele>
      </trkpt>
      <trkpt lat="42.09437" lon="27.73201">
        <ele>309.1</ele>
      </trkpt>
      <trkpt lat="42.09462" lon="27.73196">
        <ele>308.2</ele>
      </trkpt>
      <trkpt lat="42.09526" lon="27.73121">
        <ele>304</ele>
      </trkpt>
      <trkpt lat="42.09563" lon="27.73068">
        <ele>304.8</ele>
      </trkpt>
      <trkpt lat="42.0961" lon="27.72892">
        <ele>307.1</ele>
      </trkpt>
      <trkpt lat="42.09599" lon="27.72854">
        <ele>306.9</ele>
      </trkpt>
      <trkpt lat="42.09551" lon="27.72794">
        <ele>303</ele>
      </trkpt>
      <trkpt lat="42.09546" lon="27.72751">
        <ele>304.2</ele>
      </trkpt>
      <trkpt lat="42.09576" lon="27.726">
        <ele>304.8</ele>
      </trkpt>
      <trkpt lat="42.09503" lon="27.7207">
        <ele>301.7</ele>
      </trkpt>
      <trkpt lat="42.09498" lon="27.72015">
        <ele>300.1</ele>
      </trkpt>
      <trkpt lat="42.09507" lon="27.71901">
        <ele>301.7</ele>
      </trkpt>
      <trkpt lat="42.095" lon="27.71862">
        <ele>302.3</ele>
      </trkpt>
      <trkpt lat="42.09466" lon="27.71814">
        <ele>300.8</ele>
      </trkpt>
      <trkpt lat="42.09394" lon="27.7173">
        <ele>298.7</ele>
      </trkpt>
      <trkpt lat="42.09303" lon="27.71666">
        <ele>296.9</ele>
      </trkpt>
      <trkpt lat="42.09211" lon="27.71615">
        <ele>296.4</ele>
      </trkpt>
      <trkpt lat="42.09191" lon="27.71575">
        <ele>296.9</ele>
      </trkpt>
      <trkpt lat="42.09163" lon="27.71471">
        <ele>291</ele>
      </trkpt>
      <trkpt lat="42.09142" lon="27.71436">
        <ele>288.7</ele>
      </trkpt>
      <trkpt lat="42.09058" lon="27.71361">
        <ele>287.3</ele>
      </trkpt>
      <trkpt lat="42.09045" lon="27.71339">
        <ele>288.3</ele>
      </trkpt>
      <trkpt lat="42.09001" lon="27.71225">
        <ele>297.1</ele>
      </trkpt>
      <trkpt lat="42.09" lon="27.71186">
        <ele>300.4</ele>
      </trkpt>
      <trkpt lat="42.09066" lon="27.71062">
        <ele>306.6</ele>
      </trkpt>
      <trkpt lat="42.09168" lon="27.70883">
        <ele>307.5</ele>
      </trkpt>
      <trkpt lat="42.09313" lon="27.70711">
        <ele>303.5</ele>
      </trkpt>
      <trkpt lat="42.09462" lon="27.70531">
        <ele>294.9</ele>
      </trkpt>
      <trkpt lat="42.09625" lon="27.70336">
        <ele>292.9</ele>
      </trkpt>
      <trkpt lat="42.09682" lon="27.7029">
        <ele>293.6</ele>
      </trkpt>
      <trkpt lat="42.09828" lon="27.70192">
        <ele>296.5</ele>
      </trkpt>
      <trkpt lat="42.09866" lon="27.70106">
        <ele>294.8</ele>
      </trkpt>
      <trkpt lat="42.09894" lon="27.69961">
        <ele>286.8</ele>
      </trkpt>
      <trkpt lat="42.09894" lon="27.69928">
        <ele>283.4</ele>
      </trkpt>
      <trkpt lat="42.09875" lon="27.69899">
        <ele>280.4</ele>
      </trkpt>
      <trkpt lat="42.09843" lon="27.69889">
        <ele>279.3</ele>
      </trkpt>
      <trkpt lat="42.09818" lon="27.69912">
        <ele>279.5</ele>
      </trkpt>
      <trkpt lat="42.09771" lon="27.69982">
        <ele>281.3</ele>
      </trkpt>
      <trkpt lat="42.09748" lon="27.69989">
        <ele>279.1</ele>
      </trkpt>
      <trkpt lat="42.09631" lon="27.69915">
        <ele>266.7</ele>
      </trkpt>
      <trkpt lat="42.09566" lon="27.69867">
        <ele>263.7</ele>
      </trkpt>
      <trkpt lat="42.09477" lon="27.69876">
        <ele>269.7</ele>
      </trkpt>
      <trkpt lat="42.09453" lon="27.69854">
        <ele>273.9</ele>
      </trkpt>
      <trkpt lat="42.09419" lon="27.69725">
        <ele>286.9</ele>
      </trkpt>
      <trkpt lat="42.09423" lon="27.69682">
        <ele>288.4</ele>
      </trkpt>
      <trkpt lat="42.09486" lon="27.69588">
        <ele>288.4</ele>
      </trkpt>
      <trkpt lat="42.09481" lon="27.69542">
        <ele>290.7</ele>
      </trkpt>
      <trkpt lat="42.09442" lon="27.69506">
        <ele>297.2</ele>
      </trkpt>
      <trkpt lat="42.09405" lon="27.69478">
        <ele>302</ele>
      </trkpt>
      <trkpt lat="42.09389" lon="27.69432">
        <ele>303.3</ele>
      </trkpt>
      <trkpt lat="42.09388" lon="27.69364">
        <ele>303.4</ele>
      </trkpt>
      <trkpt lat="42.09419" lon="27.68605">
        <ele>322.5</ele>
      </trkpt>
      <trkpt lat="42.09397" lon="27.6856">
        <ele>325.2</ele>
      </trkpt>
      <trkpt lat="42.09217" lon="27.68525">
        <ele>330</ele>
      </trkpt>
      <trkpt lat="42.09191" lon="27.68502">
        <ele>332.1</ele>
      </trkpt>
      <trkpt lat="42.09083" lon="27.68314">
        <ele>329.4</ele>
      </trkpt>
      <trkpt lat="42.09009" lon="27.68155">
        <ele>319.9</ele>
      </trkpt>
      <trkpt lat="42.09007" lon="27.68117">
        <ele>320.3</ele>
      </trkpt>
      <trkpt lat="42.09025" lon="27.68095">
        <ele>320</ele>
      </trkpt>
      <trkpt lat="42.09056" lon="27.68086">
        <ele>318.5</ele>
      </trkpt>
      <trkpt lat="42.09117" lon="27.68143">
        <ele>320.2</ele>
      </trkpt>
      <trkpt lat="42.09148" lon="27.68161">
        <ele>318.5</ele>
      </trkpt>
      <trkpt lat="42.09207" lon="27.68138">
        <ele>313.9</ele>
      </trkpt>
      <trkpt lat="42.09262" lon="27.68152">
        <ele>314.3</ele>
      </trkpt>
      <trkpt lat="42.0932" lon="27.68171">
        <ele>311.3</ele>
      </trkpt>
      <trkpt lat="42.09353" lon="27.6813">
        <ele>306.9</ele>
      </trkpt>
      <trkpt lat="42.09439" lon="27.67975">
        <ele>311.2</ele>
      </trkpt>
      <trkpt lat="42.09457" lon="27.6791">
        <ele>313.3</ele>
      </trkpt>
      <trkpt lat="42.09482" lon="27.67592">
        <ele>319.6</ele>
      </trkpt>
      <trkpt lat="42.09493" lon="27.67558">
        <ele>320.9</ele>
      </trkpt>
      <trkpt lat="42.09589" lon="27.67449">
        <ele>318.1</ele>
      </trkpt>
      <trkpt lat="42.0965" lon="27.67386">
        <ele>319.9</ele>
      </trkpt>
      <trkpt lat="42.09654" lon="27.67317">
        <ele>318.7</ele>
      </trkpt>
      <trkpt lat="42.09607" lon="27.67017">
        <ele>324.1</ele>
      </trkpt>
      <trkpt lat="42.09619" lon="27.66984">
        <ele>324.8</ele>
      </trkpt>
      <trkpt lat="42.0975" lon="27.66873">
        <ele>320.9</ele>
      </trkpt>
      <trkpt lat="42.09867" lon="27.66868">
        <ele>322.2</ele>
      </trkpt>
      <trkpt lat="42.09931" lon="27.66823">
        <ele>324.9</ele>
      </trkpt>
      <trkpt lat="42.10006" lon="27.66762">
        <ele>335.2</ele>
      </trkpt>
      <trkpt lat="42.10095" lon="27.66754">
        <ele>337.8</ele>
      </trkpt>
      <trkpt lat="42.10142" lon="27.66727">
        <ele>338.8</ele>
      </trkpt>
      <trkpt lat="42.10148" lon="27.66671">
        <ele>344.5</ele>
      </trkpt>
      <trkpt lat="42.10151" lon="27.66603">
        <ele>347.4</ele>
      </trkpt>
      <trkpt lat="42.10168" lon="27.66504">
        <ele>347.7</ele>
      </trkpt>
      <trkpt lat="42.10155" lon="27.66461">
        <ele>346.9</ele>
      </trkpt>
      <trkpt lat="42.1006" lon="27.66308">
        <ele>340.4</ele>
      </trkpt>
      <trkpt lat="42.09959" lon="27.66239">
        <ele>332.3</ele>
      </trkpt>
      <trkpt lat="42.0982" lon="27.66228">
        <ele>324.1</ele>
      </trkpt>
      <trkpt lat="42.09803" lon="27.66199">
        <ele>323.6</ele>
      </trkpt>
      <trkpt lat="42.098" lon="27.66149">
        <ele>323.7</ele>
      </trkpt>
      <trkpt lat="42.09775" lon="27.66087">
        <ele>319.1</ele>
      </trkpt>
      <trkpt lat="42.09761" lon="27.6606">
        <ele>316.9</ele>
      </trkpt>
      <trkpt lat="42.0976" lon="27.66009">
        <ele>315.9</ele>
      </trkpt>
      <trkpt lat="42.09783" lon="27.65923">
        <ele>312.4</ele>
      </trkpt>
      <trkpt lat="42.09775" lon="27.65887">
        <ele>311.6</ele>
      </trkpt>
      <trkpt lat="42.09731" lon="27.65859">
        <ele>309.1</ele>
      </trkpt>
      <trkpt lat="42.09657" lon="27.65835">
        <ele>300.1</ele>
      </trkpt>
      <trkpt lat="42.09644" lon="27.65801">
        <ele>297.4</ele>
      </trkpt>
      <trkpt lat="42.09642" lon="27.65769">
        <ele>296.7</ele>
      </trkpt>
      <trkpt lat="42.09673" lon="27.65716">
        <ele>301.2</ele>
      </trkpt>
      <trkpt lat="42.09673" lon="27.65683">
        <ele>299.5</ele>
      </trkpt>
      <trkpt lat="42.09664" lon="27.65638">
        <ele>294.8</ele>
      </trkpt>
      <trkpt lat="42.09686" lon="27.65562">
        <ele>290.4</ele>
      </trkpt>
      <trkpt lat="42.09697" lon="27.65419">
        <ele>282.9</ele>
      </trkpt>
      <trkpt lat="42.09709" lon="27.65354">
        <ele>282.8</ele>
      </trkpt>
      <trkpt lat="42.09969" lon="27.64734">
        <ele>290.5</ele>
      </trkpt>
      <trkpt lat="42.10085" lon="27.64451">
        <ele>291.8</ele>
      </trkpt>
      <trkpt lat="42.1009" lon="27.64396">
        <ele>290.4</ele>
      </trkpt>
      <trkpt lat="42.10066" lon="27.64352">
        <ele>289.4</ele>
      </trkpt>
      <trkpt lat="42.09858" lon="27.64145">
        <ele>289.4</ele>
      </trkpt>
      <trkpt lat="42.0982" lon="27.64126">
        <ele>287.2</ele>
      </trkpt>
      <trkpt lat="42.09713" lon="27.64104">
        <ele>277.6</ele>
      </trkpt>
      <trkpt lat="42.09595" lon="27.64019">
        <ele>275</ele>
      </trkpt>
      <trkpt lat="42.09462" lon="27.63982">
        <ele>275.7</ele>
      </trkpt>
      <trkpt lat="42.09407" lon="27.63986">
        <ele>275.6</ele>
      </trkpt>
      <trkpt lat="42.09312" lon="27.64007">
        <ele>278.2</ele>
      </trkpt>
      <trkpt lat="42.09133" lon="27.63943">
        <ele>283.3</ele>
      </trkpt>
      <trkpt lat="42.08851" lon="27.63954">
        <ele>284.9</ele>
      </trkpt>
      <trkpt lat="42.08729" lon="27.63969">
        <ele>289.8</ele>
      </trkpt>
      <trkpt lat="42.08702" lon="27.63984">
        <ele>289.4</ele>
      </trkpt>
      <trkpt lat="42.08646" lon="27.64071">
        <ele>290.8</ele>
      </trkpt>
      <trkpt lat="42.08615" lon="27.64108">
        <ele>290.6</ele>
      </trkpt>
      <trkpt lat="42.08558" lon="27.64117">
        <ele>290.7</ele>
      </trkpt>
      <trkpt lat="42.08461" lon="27.64064">
        <ele>293</ele>
      </trkpt>
      <trkpt lat="42.08073" lon="27.64018">
        <ele>303.6</ele>
      </trkpt>
      <trkpt lat="42.08013" lon="27.64029">
        <ele>304.7</ele>
      </trkpt>
      <trkpt lat="42.07953" lon="27.64069">
        <ele>309.1</ele>
      </trkpt>
      <trkpt lat="42.07785" lon="27.64091">
        <ele>314.6</ele>
      </trkpt>
      <trkpt lat="42.07752" lon="27.64089">
        <ele>313.7</ele>
      </trkpt>
      <trkpt lat="42.07672" lon="27.64036">
        <ele>316.7</ele>
      </trkpt>
      <trkpt lat="42.07475" lon="27.64067">
        <ele>322.9</ele>
      </trkpt>
      <trkpt lat="42.07444" lon="27.64068">
        <ele>320</ele>
      </trkpt>
      <trkpt lat="42.07415" lon="27.64032">
        <ele>321.4</ele>
      </trkpt>
      <trkpt lat="42.07398" lon="27.63972">
        <ele>326</ele>
      </trkpt>
      <trkpt lat="42.07369" lon="27.63919">
        <ele>327</ele>
      </trkpt>
      <trkpt lat="42.07259" lon="27.63788">
        <ele>328.4</ele>
      </trkpt>
      <trkpt lat="42.07218" lon="27.63752">
        <ele>328.6</ele>
      </trkpt>
      <trkpt lat="42.07138" lon="27.63711">
        <ele>325.1</ele>
      </trkpt>
      <trkpt lat="42.07104" lon="27.63706">
        <ele>322.5</ele>
      </trkpt>
      <trkpt lat="42.0694" lon="27.63816">
        <ele>318.7</ele>
      </trkpt>
      <trkpt lat="42.06857" lon="27.63881">
        <ele>320</ele>
      </trkpt>
      <trkpt lat="42.06718" lon="27.64019">
        <ele>321.6</ele>
      </trkpt>
      <trkpt lat="42.06697" lon="27.64086">
        <ele>323.2</ele>
      </trkpt>
      <trkpt lat="42.06664" lon="27.64499">
        <ele>331.8</ele>
      </trkpt>
      <trkpt lat="42.06639" lon="27.64738">
        <ele>332</ele>
      </trkpt>
      <trkpt lat="42.06601" lon="27.64806">
        <ele>331.4</ele>
      </trkpt>
      <trkpt lat="42.06573" lon="27.64902">
        <ele>324.8</ele>
      </trkpt>
      <trkpt lat="42.06549" lon="27.64961">
        <ele>318.9</ele>
      </trkpt>
      <trkpt lat="42.06416" lon="27.65034">
        <ele>314.8</ele>
      </trkpt>
      <trkpt lat="42.06365" lon="27.65058">
        <ele>305.7</ele>
      </trkpt>
      <trkpt lat="42.06331" lon="27.65046">
        <ele>304.3</ele>
      </trkpt>
      <trkpt lat="42.06287" lon="27.64984">
        <ele>304.4</ele>
      </trkpt>
      <trkpt lat="42.06239" lon="27.64966">
        <ele>299.1</ele>
      </trkpt>
      <trkpt lat="42.06179" lon="27.64966">
        <ele>295.9</ele>
      </trkpt>
      <trkpt lat="42.06066" lon="27.64924">
        <ele>286.8</ele>
      </trkpt>
      <trkpt lat="42.05903" lon="27.64848">
        <ele>275.7</ele>
      </trkpt>
      <trkpt lat="42.05874" lon="27.64842">
        <ele>275.4</ele>
      </trkpt>
      <trkpt lat="42.05801" lon="27.64875">
        <ele>269.3</ele>
      </trkpt>
      <trkpt lat="42.05731" lon="27.64909">
        <ele>266.6</ele>
      </trkpt>
      <trkpt lat="42.05568" lon="27.64899">
        <ele>255.3</ele>
      </trkpt>
      <trkpt lat="42.05488" lon="27.64892">
        <ele>250</ele>
      </trkpt>
      <trkpt lat="42.05266" lon="27.64918">
        <ele>240.4</ele>
      </trkpt>
      <trkpt lat="42.05236" lon="27.64906">
        <ele>238.8</ele>
      </trkpt>
      <trkpt lat="42.05145" lon="27.64817">
        <ele>233.5</ele>
      </trkpt>
      <trkpt lat="42.05063" lon="27.64802">
        <ele>229.1</ele>
      </trkpt>
      <trkpt lat="42.04862" lon="27.64749">
        <ele>218.6</ele>
      </trkpt>
      <trkpt lat="42.04788" lon="27.64752">
        <ele>214.7</ele>
      </trkpt>
      <trkpt lat="42.0455" lon="27.64788">
        <ele>212.8</ele>
      </trkpt>
      <trkpt lat="42.0435" lon="27.64754">
        <ele>217.7</ele>
      </trkpt>
      <trkpt lat="42.0428" lon="27.64745">
        <ele>220.7</ele>
      </trkpt>
      <trkpt lat="42.0426" lon="27.64754">
        <ele>221.3</ele>
      </trkpt>
      <trkpt lat="42.04221" lon="27.6483">
        <ele>219.7</ele>
      </trkpt>
      <trkpt lat="42.04171" lon="27.64918">
        <ele>217.7</ele>
      </trkpt>
      <trkpt lat="42.04027" lon="27.6499">
        <ele>212.9</ele>
      </trkpt>
      <trkpt lat="42.03995" lon="27.64989">
        <ele>212.8</ele>
      </trkpt>
      <trkpt lat="42.03855" lon="27.64923">
        <ele>211.5</ele>
      </trkpt>
      <trkpt lat="42.03777" lon="27.64925">
        <ele>208.4</ele>
      </trkpt>
      <trkpt lat="42.03673" lon="27.64937">
        <ele>201.2</ele>
      </trkpt>
      <trkpt lat="42.03574" lon="27.64887">
        <ele>190.9</ele>
      </trkpt>
      <trkpt lat="42.03525" lon="27.64848">
        <ele>183.8</ele>
      </trkpt>
      <trkpt lat="42.03484" lon="27.64801">
        <ele>181.7</ele>
      </trkpt>
      <trkpt lat="42.03312" lon="27.64808">
        <ele>164.9</ele>
      </trkpt>
      <trkpt lat="42.0326" lon="27.64777">
        <ele>161.5</ele>
      </trkpt>
      <trkpt lat="42.03148" lon="27.64682">
        <ele>149.1</ele>
      </trkpt>
      <trkpt lat="42.03011" lon="27.64618">
        <ele>134.3</ele>
      </trkpt>
      <trkpt lat="42.02976" lon="27.646">
        <ele>132.7</ele>
      </trkpt>
      <trkpt lat="42.02903" lon="27.64584">
        <ele>129.3</ele>
      </trkpt>
      <trkpt lat="42.02844" lon="27.64563">
        <ele>122</ele>
      </trkpt>
      <trkpt lat="42.02849" lon="27.64531">
        <ele>121.7</ele>
      </trkpt>
      <trkpt lat="42.02924" lon="27.64525">
        <ele>124</ele>
      </trkpt>
      <trkpt lat="42.03019" lon="27.64515">
        <ele>123.9</ele>
      </trkpt>
      <trkpt lat="42.03043" lon="27.64493">
        <ele>122.1</ele>
      </trkpt>
      <trkpt lat="42.03076" lon="27.64408">
        <ele>116.2</ele>
      </trkpt>
      <trkpt lat="42.03077" lon="27.64325">
        <ele>109.4</ele>
      </trkpt>
      <trkpt lat="42.03071" lon="27.6426">
        <ele>103.8</ele>
      </trkpt>
      <trkpt lat="42.03091" lon="27.64196">
        <ele>96.3</ele>
      </trkpt>
      <trkpt lat="42.03153" lon="27.64176">
        <ele>106.5</ele>
      </trkpt>
      <trkpt lat="42.03207" lon="27.64058">
        <ele>99.3</ele>
      </trkpt>
      <trkpt lat="42.03228" lon="27.63993">
        <ele>93.6</ele>
      </trkpt>
      <trkpt lat="42.0332" lon="27.6388">
        <ele>95.7</ele>
      </trkpt>
      <trkpt lat="42.03325" lon="27.63798">
        <ele>84.5</ele>
      </trkpt>
      <trkpt lat="42.03327" lon="27.63762">
        <ele>81.6</ele>
      </trkpt>
      <trkpt lat="42.03357" lon="27.63697">
        <ele>86.4</ele>
      </trkpt>
      <trkpt lat="42.03362" lon="27.63479">
        <ele>70.7</ele>
      </trkpt>
      <trkpt lat="42.03349" lon="27.63436">
        <ele>72.3</ele>
      </trkpt>
      <trkpt lat="42.032" lon="27.63121">
        <ele>79</ele>
      </trkpt>
      <trkpt lat="42.03065" lon="27.6288">
        <ele>82.5</ele>
      </trkpt>
      <trkpt lat="42.02988" lon="27.62813">
        <ele>77.8</ele>
      </trkpt>
      <trkpt lat="42.02924" lon="27.62726">
        <ele>77.1</ele>
      </trkpt>
      <trkpt lat="42.02869" lon="27.6266">
        <ele>74.1</ele>
      </trkpt>
      <trkpt lat="42.02806" lon="27.62584">
        <ele>71.7</ele>
      </trkpt>
      <trkpt lat="42.02774" lon="27.62529">
        <ele>68.6</ele>
      </trkpt>
      <trkpt lat="42.02702" lon="27.62393">
        <ele>64.1</ele>
      </trkpt>
      <trkpt lat="42.02669" lon="27.62324">
        <ele>68.1</ele>
      </trkpt>
      <trkpt lat="42.02655" lon="27.62287">
        <ele>70.9</ele>
      </trkpt>
      <trkpt lat="42.02609" lon="27.62001">
        <ele>75</ele>
      </trkpt>
      <trkpt lat="42.02613" lon="27.61961">
        <ele>72.4</ele>
      </trkpt>
      <trkpt lat="42.02629" lon="27.61942">
        <ele>71.2</ele>
      </trkpt>
      <trkpt lat="42.02651" lon="27.61929">
        <ele>71.2</ele>
      </trkpt>
      <trkpt lat="42.02687" lon="27.61935">
        <ele>75.9</ele>
      </trkpt>
      <trkpt lat="42.02778" lon="27.61997">
        <ele>86</ele>
      </trkpt>
      <trkpt lat="42.02813" lon="27.62029">
        <ele>88.1</ele>
      </trkpt>
      <trkpt lat="42.02876" lon="27.62122">
        <ele>87.7</ele>
      </trkpt>
      <trkpt lat="42.02935" lon="27.62174">
        <ele>90.1</ele>
      </trkpt>
      <trkpt lat="42.03025" lon="27.6224">
        <ele>92.8</ele>
      </trkpt>
      <trkpt lat="42.03061" lon="27.62251">
        <ele>95.6</ele>
      </trkpt>
      <trkpt lat="42.03111" lon="27.62257">
        <ele>99.1</ele>
      </trkpt>
      <trkpt lat="42.03169" lon="27.62262">
        <ele>100.6</ele>
      </trkpt>
      <trkpt lat="42.03188" lon="27.62238">
        <ele>101</ele>
      </trkpt>
      <trkpt lat="42.03195" lon="27.62209">
        <ele>101.3</ele>
      </trkpt>
      <trkpt lat="42.03183" lon="27.62178">
        <ele>104.5</ele>
      </trkpt>
      <trkpt lat="42.03159" lon="27.62162">
        <ele>107.8</ele>
      </trkpt>
      <trkpt lat="42.03076" lon="27.62151">
        <ele>113.3</ele>
      </trkpt>
      <trkpt lat="42.03013" lon="27.62136">
        <ele>114</ele>
      </trkpt>
      <trkpt lat="42.02962" lon="27.62117">
        <ele>109.4</ele>
      </trkpt>
      <trkpt lat="42.02894" lon="27.62026">
        <ele>109.3</ele>
      </trkpt>
      <trkpt lat="42.02867" lon="27.61918">
        <ele>111.7</ele>
      </trkpt>
      <trkpt lat="42.02823" lon="27.61741">
        <ele>118.2</ele>
      </trkpt>
      <trkpt lat="42.02804" lon="27.61715">
        <ele>120.4</ele>
      </trkpt>
      <trkpt lat="42.0274" lon="27.6166">
        <ele>133.8</ele>
      </trkpt>
      <trkpt lat="42.02592" lon="27.61584">
        <ele>141.4</ele>
      </trkpt>
      <trkpt lat="42.02517" lon="27.61485">
        <ele>159.8</ele>
      </trkpt>
      <trkpt lat="42.02496" lon="27.61471">
        <ele>162.9</ele>
      </trkpt>
      <trkpt lat="42.02438" lon="27.61515">
        <ele>155.2</ele>
      </trkpt>
      <trkpt lat="42.02268" lon="27.61476">
        <ele>157</ele>
      </trkpt>
      <trkpt lat="42.02262" lon="27.61395">
        <ele>174.6</ele>
      </trkpt>
      <trkpt lat="42.02235" lon="27.61356">
        <ele>182.6</ele>
      </trkpt>
      <trkpt lat="42.02206" lon="27.61354">
        <ele>184.9</ele>
      </trkpt>
      <trkpt lat="42.0213" lon="27.61388">
        <ele>173.3</ele>
      </trkpt>
      <trkpt lat="42.02104" lon="27.61391">
        <ele>171.7</ele>
      </trkpt>
      <trkpt lat="42.02038" lon="27.6131">
        <ele>168.9</ele>
      </trkpt>
      <trkpt lat="42.02042" lon="27.61276">
        <ele>170.8</ele>
      </trkpt>
      <trkpt lat="42.02088" lon="27.61244">
        <ele>189.3</ele>
      </trkpt>
      <trkpt lat="42.02125" lon="27.61181">
        <ele>201.1</ele>
      </trkpt>
      <trkpt lat="42.02126" lon="27.61153">
        <ele>203.5</ele>
      </trkpt>
      <trkpt lat="42.02055" lon="27.61057">
        <ele>204.6</ele>
      </trkpt>
      <trkpt lat="42.01988" lon="27.61065">
        <ele>193.4</ele>
      </trkpt>
      <trkpt lat="42.01968" lon="27.6104">
        <ele>198.6</ele>
      </trkpt>
      <trkpt lat="42.01953" lon="27.61001">
        <ele>209.4</ele>
      </trkpt>
      <trkpt lat="42.01843" lon="27.60944">
        <ele>226.5</ele>
      </trkpt>
      <trkpt lat="42.01822" lon="27.60954">
        <ele>227.9</ele>
      </trkpt>
      <trkpt lat="42.01791" lon="27.61041">
        <ele>213.3</ele>
      </trkpt>
      <trkpt lat="42.01748" lon="27.6109">
        <ele>212.3</ele>
      </trkpt>
      <trkpt lat="42.01707" lon="27.61104">
        <ele>206.8</ele>
      </trkpt>
      <trkpt lat="42.01654" lon="27.61076">
        <ele>215.9</ele>
      </trkpt>
      <trkpt lat="42.01611" lon="27.6103">
        <ele>223.8</ele>
      </trkpt>
      <trkpt lat="42.01558" lon="27.6101">
        <ele>218.5</ele>
      </trkpt>
      <trkpt lat="42.01539" lon="27.60981">
        <ele>218.7</ele>
      </trkpt>
      <trkpt lat="42.01559" lon="27.6086">
        <ele>233.5</ele>
      </trkpt>
      <trkpt lat="42.01595" lon="27.60771">
        <ele>238.3</ele>
      </trkpt>
      <trkpt lat="42.01627" lon="27.6073">
        <ele>248</ele>
      </trkpt>
      <trkpt lat="42.01648" lon="27.60623">
        <ele>256.3</ele>
      </trkpt>
      <trkpt lat="42.01621" lon="27.60585">
        <ele>258.5</ele>
      </trkpt>
      <trkpt lat="42.01596" lon="27.60594">
        <ele>255.1</ele>
      </trkpt>
      <trkpt lat="42.01572" lon="27.60613">
        <ele>251.8</ele>
      </trkpt>
      <trkpt lat="42.01523" lon="27.60632">
        <ele>257.6</ele>
      </trkpt>
      <trkpt lat="42.01477" lon="27.60654">
        <ele>261.2</ele>
      </trkpt>
      <trkpt lat="42.01398" lon="27.60704">
        <ele>261.8</ele>
      </trkpt>
      <trkpt lat="42.01353" lon="27.60724">
        <ele>259.4</ele>
      </trkpt>
      <trkpt lat="42.01322" lon="27.60687">
        <ele>260.7</ele>
      </trkpt>
      <trkpt lat="42.01312" lon="27.60616">
        <ele>262.4</ele>
      </trkpt>
      <trkpt lat="42.01324" lon="27.6037">
        <ele>280.8</ele>
      </trkpt>
      <trkpt lat="42.01307" lon="27.60328">
        <ele>282.5</ele>
      </trkpt>
      <trkpt lat="42.01269" lon="27.60321">
        <ele>278</ele>
      </trkpt>
      <trkpt lat="42.01202" lon="27.60308">
        <ele>276.1</ele>
      </trkpt>
      <trkpt lat="42.01171" lon="27.60272">
        <ele>278.3</ele>
      </trkpt>
      <trkpt lat="42.01129" lon="27.60061">
        <ele>287.8</ele>
      </trkpt>
      <trkpt lat="42.01096" lon="27.60022">
        <ele>289.4</ele>
      </trkpt>
      <trkpt lat="42.01062" lon="27.59988">
        <ele>292.8</ele>
      </trkpt>
      <trkpt lat="42.01037" lon="27.5986">
        <ele>299.6</ele>
      </trkpt>
      <trkpt lat="42.0103" lon="27.5975">
        <ele>301.7</ele>
      </trkpt>
      <trkpt lat="42.00995" lon="27.59699">
        <ele>302.4</ele>
      </trkpt>
      <trkpt lat="42.00977" lon="27.59614">
        <ele>299.6</ele>
      </trkpt>
      <trkpt lat="42.00992" lon="27.59433">
        <ele>302.7</ele>
      </trkpt>
      <trkpt lat="42.00988" lon="27.59291">
        <ele>311.2</ele>
      </trkpt>
      <trkpt lat="42.00967" lon="27.59223">
        <ele>320.9</ele>
      </trkpt>
      <trkpt lat="42.00984" lon="27.59113">
        <ele>327.7</ele>
      </trkpt>
      <trkpt lat="42.01009" lon="27.5901">
        <ele>332.9</ele>
      </trkpt>
      <trkpt lat="42.01039" lon="27.58946">
        <ele>324.8</ele>
      </trkpt>
      <trkpt lat="42.01024" lon="27.58885">
        <ele>326.2</ele>
      </trkpt>
      <trkpt lat="42.00973" lon="27.58813">
        <ele>334.4</ele>
      </trkpt>
      <trkpt lat="42.00968" lon="27.58786">
        <ele>334.3</ele>
      </trkpt>
      <trkpt lat="42.00992" lon="27.58728">
        <ele>328.3</ele>
      </trkpt>
      <trkpt lat="42.00988" lon="27.58689">
        <ele>329.6</ele>
      </trkpt>
      <trkpt lat="42.00968" lon="27.58674">
        <ele>330.2</ele>
      </trkpt>
      <trkpt lat="42.00942" lon="27.58683">
        <ele>331.6</ele>
      </trkpt>
      <trkpt lat="42.00897" lon="27.5871">
        <ele>338.6</ele>
      </trkpt>
      <trkpt lat="42.00858" lon="27.58706">
        <ele>341.8</ele>
      </trkpt>
      <trkpt lat="42.00831" lon="27.58687">
        <ele>341.5</ele>
      </trkpt>
      <trkpt lat="42.00721" lon="27.58636">
        <ele>348.2</ele>
      </trkpt>
      <trkpt lat="42.00679" lon="27.58595">
        <ele>351.3</ele>
      </trkpt>
      <trkpt lat="42.00673" lon="27.58553">
        <ele>352.3</ele>
      </trkpt>
      <trkpt lat="42.00681" lon="27.58509">
        <ele>350.8</ele>
      </trkpt>
      <trkpt lat="42.00659" lon="27.58446">
        <ele>353.6</ele>
      </trkpt>
      <trkpt lat="42.00581" lon="27.58254">
        <ele>355.3</ele>
      </trkpt>
      <trkpt lat="42.00553" lon="27.58234">
        <ele>353.3</ele>
      </trkpt>
      <trkpt lat="42.00487" lon="27.5821">
        <ele>352</ele>
      </trkpt>
      <trkpt lat="42.00388" lon="27.58103">
        <ele>352.1</ele>
      </trkpt>
      <trkpt lat="42.00346" lon="27.58">
        <ele>350.2</ele>
      </trkpt>
      <trkpt lat="42.00314" lon="27.57979">
        <ele>346.8</ele>
      </trkpt>
      <trkpt lat="42.00215" lon="27.57951">
        <ele>346</ele>
      </trkpt>
      <trkpt lat="42.00162" lon="27.5796">
        <ele>349.1</ele>
      </trkpt>
      <trkpt lat="42.00132" lon="27.57959">
        <ele>347.2</ele>
      </trkpt>
      <trkpt lat="42.00088" lon="27.57931">
        <ele>348.8</ele>
      </trkpt>
      <trkpt lat="42.00049" lon="27.5786">
        <ele>349.3</ele>
      </trkpt>
      <trkpt lat="41.99981" lon="27.57707">
        <ele>356.7</ele>
      </trkpt>
      <trkpt lat="41.9997" lon="27.57624">
        <ele>360</ele>
      </trkpt>
      <trkpt lat="41.99941" lon="27.5758">
        <ele>365.3</ele>
      </trkpt>
      <trkpt lat="41.99902" lon="27.57546">
        <ele>374.1</ele>
      </trkpt>
      <trkpt lat="41.99893" lon="27.57488">
        <ele>379.2</ele>
      </trkpt>
      <trkpt lat="41.99906" lon="27.57455">
        <ele>378.5</ele>
      </trkpt>
      <trkpt lat="41.99953" lon="27.57412">
        <ele>375.3</ele>
      </trkpt>
      <trkpt lat="41.99969" lon="27.57352">
        <ele>375.8</ele>
      </trkpt>
      <trkpt lat="41.99945" lon="27.57312">
        <ele>376.2</ele>
      </trkpt>
      <trkpt lat="41.99912" lon="27.57321">
        <ele>377.5</ele>
      </trkpt>
      <trkpt lat="41.99878" lon="27.57398">
        <ele>381.9</ele>
      </trkpt>
      <trkpt lat="41.99834" lon="27.57535">
        <ele>389.9</ele>
      </trkpt>
      <trkpt lat="41.99804" lon="27.5757">
        <ele>390.4</ele>
      </trkpt>
      <trkpt lat="41.99728" lon="27.57557">
        <ele>399.7</ele>
      </trkpt>
      <trkpt lat="41.99599" lon="27.57612">
        <ele>407.7</ele>
      </trkpt>
      <trkpt lat="41.99518" lon="27.57647">
        <ele>424.6</ele>
      </trkpt>
      <trkpt lat="41.99507" lon="27.57632">
        <ele>428.4</ele>
      </trkpt>
      <trkpt lat="41.99511" lon="27.5761">
        <ele>428.3</ele>
      </trkpt>
      <trkpt lat="41.99609" lon="27.57569">
        <ele>410.9</ele>
      </trkpt>
      <trkpt lat="41.99658" lon="27.57545">
        <ele>407.6</ele>
      </trkpt>
      <trkpt lat="41.99677" lon="27.57523">
        <ele>407.4</ele>
      </trkpt>
      <trkpt lat="41.99662" lon="27.57495">
        <ele>409.8</ele>
      </trkpt>
      <trkpt lat="41.99645" lon="27.57482">
        <ele>409.4</ele>
      </trkpt>
      <trkpt lat="41.99622" lon="27.57507">
        <ele>412.9</ele>
      </trkpt>
      <trkpt lat="41.99599" lon="27.57543">
        <ele>413.1</ele>
      </trkpt>
      <trkpt lat="41.99535" lon="27.57494">
        <ele>423</ele>
      </trkpt>
      <trkpt lat="41.99469" lon="27.57477">
        <ele>433.9</ele>
      </trkpt>
      <trkpt lat="41.99448" lon="27.57395">
        <ele>429.8</ele>
      </trkpt>
      <trkpt lat="41.99416" lon="27.57377">
        <ele>432.2</ele>
      </trkpt>
      <trkpt lat="41.99386" lon="27.57393">
        <ele>432.3</ele>
      </trkpt>
      <trkpt lat="41.99347" lon="27.57423">
        <ele>435.2</ele>
      </trkpt>
      <trkpt lat="41.9929" lon="27.57512">
        <ele>447.5</ele>
      </trkpt>
      <trkpt lat="41.99121" lon="27.57611">
        <ele>452.6</ele>
      </trkpt>
      <trkpt lat="41.99097" lon="27.5768">
        <ele>460.9</ele>
      </trkpt>
      <trkpt lat="41.99076" lon="27.57724">
        <ele>465.7</ele>
      </trkpt>
      <trkpt lat="41.99038" lon="27.57741">
        <ele>466.5</ele>
      </trkpt>
      <trkpt lat="41.98964" lon="27.57716">
        <ele>464</ele>
      </trkpt>
      <trkpt lat="41.98845" lon="27.57661">
        <ele>467.6</ele>
      </trkpt>
      <trkpt lat="41.98831" lon="27.57629">
        <ele>469.8</ele>
      </trkpt>
      <trkpt lat="41.98838" lon="27.57585">
        <ele>471</ele>
      </trkpt>
      <trkpt lat="41.9886" lon="27.57518">
        <ele>464.9</ele>
      </trkpt>
      <trkpt lat="41.9883" lon="27.57499">
        <ele>471.3</ele>
      </trkpt>
      <trkpt lat="41.98782" lon="27.57497">
        <ele>478.4</ele>
      </trkpt>
      <trkpt lat="41.98758" lon="27.57455">
        <ele>482.4</ele>
      </trkpt>
      <trkpt lat="41.98742" lon="27.5742">
        <ele>486</ele>
      </trkpt>
      <trkpt lat="41.98669" lon="27.5736">
        <ele>495.1</ele>
      </trkpt>
      <trkpt lat="41.98654" lon="27.57335">
        <ele>496.8</ele>
      </trkpt>
      <trkpt lat="41.98658" lon="27.5731">
        <ele>496.3</ele>
      </trkpt>
      <trkpt lat="41.98727" lon="27.57263">
        <ele>493.4</ele>
      </trkpt>
      <trkpt lat="41.98763" lon="27.57213">
        <ele>490.4</ele>
      </trkpt>
      <trkpt lat="41.98774" lon="27.57175">
        <ele>489.2</ele>
      </trkpt>
      <trkpt lat="41.98787" lon="27.57094">
        <ele>491.3</ele>
      </trkpt>
      <trkpt lat="41.98839" lon="27.57044">
        <ele>488.2</ele>
      </trkpt>
      <trkpt lat="41.98865" lon="27.56968">
        <ele>484.5</ele>
      </trkpt>
      <trkpt lat="41.98857" lon="27.56913">
        <ele>486.3</ele>
      </trkpt>
      <trkpt lat="41.98788" lon="27.56813">
        <ele>480.5</ele>
      </trkpt>
      <trkpt lat="41.98741" lon="27.56763">
        <ele>479.2</ele>
      </trkpt>
      <trkpt lat="41.98693" lon="27.56677">
        <ele>476.7</ele>
      </trkpt>
      <trkpt lat="41.98688" lon="27.56636">
        <ele>477.5</ele>
      </trkpt>
      <trkpt lat="41.98697" lon="27.56599">
        <ele>478.9</ele>
      </trkpt>
      <trkpt lat="41.98741" lon="27.56548">
        <ele>481.2</ele>
      </trkpt>
      <trkpt lat="41.98747" lon="27.5645">
        <ele>485.9</ele>
      </trkpt>
      <trkpt lat="41.9876" lon="27.56414">
        <ele>486.9</ele>
      </trkpt>
      <trkpt lat="41.98785" lon="27.56387">
        <ele>485.7</ele>
      </trkpt>
      <trkpt lat="41.98864" lon="27.5636">
        <ele>477.6</ele>
      </trkpt>
      <trkpt lat="41.98908" lon="27.56276">
        <ele>475.4</ele>
      </trkpt>
      <trkpt lat="41.98933" lon="27.56186">
        <ele>473.8</ele>
      </trkpt>
      <trkpt lat="41.98961" lon="27.56143">
        <ele>473.8</ele>
      </trkpt>
      <trkpt lat="41.991" lon="27.56081">
        <ele>483.9</ele>
      </trkpt>
      <trkpt lat="41.99158" lon="27.56052">
        <ele>487.9</ele>
      </trkpt>
      <trkpt lat="41.99221" lon="27.56027">
        <ele>489</ele>
      </trkpt>
      <trkpt lat="41.99236" lon="27.56004">
        <ele>491.5</ele>
      </trkpt>
      <trkpt lat="41.99234" lon="27.55955">
        <ele>498</ele>
      </trkpt>
      <trkpt lat="41.99338" lon="27.55775">
        <ele>491.6</ele>
      </trkpt>
      <trkpt lat="41.99346" lon="27.55698">
        <ele>491.5</ele>
      </trkpt>
      <trkpt lat="41.9934" lon="27.55585">
        <ele>490.4</ele>
      </trkpt>
      <trkpt lat="41.99335" lon="27.55536">
        <ele>486.5</ele>
      </trkpt>
      <trkpt lat="41.99305" lon="27.55469">
        <ele>483.9</ele>
      </trkpt>
      <trkpt lat="41.99298" lon="27.55361">
        <ele>477.6</ele>
      </trkpt>
      <trkpt lat="41.99284" lon="27.55298">
        <ele>478.7</ele>
      </trkpt>
      <trkpt lat="41.99304" lon="27.55209">
        <ele>471.9</ele>
      </trkpt>
      <trkpt lat="41.99296" lon="27.55115">
        <ele>469.9</ele>
      </trkpt>
      <trkpt lat="41.99312" lon="27.55064">
        <ele>466.3</ele>
      </trkpt>
      <trkpt lat="41.99334" lon="27.55032">
        <ele>463.1</ele>
      </trkpt>
      <trkpt lat="41.99427" lon="27.55027">
        <ele>454.1</ele>
      </trkpt>
      <trkpt lat="41.9944" lon="27.54997">
        <ele>453.6</ele>
      </trkpt>
      <trkpt lat="41.99421" lon="27.54927">
        <ele>452.4</ele>
      </trkpt>
      <trkpt lat="41.99383" lon="27.54832">
        <ele>448.2</ele>
      </trkpt>
      <trkpt lat="41.99303" lon="27.54785">
        <ele>442</ele>
      </trkpt>
      <trkpt lat="41.99242" lon="27.54725">
        <ele>431.8</ele>
      </trkpt>
      <trkpt lat="41.99233" lon="27.54682">
        <ele>431.7</ele>
      </trkpt>
      <trkpt lat="41.99201" lon="27.54601">
        <ele>426.2</ele>
      </trkpt>
      <trkpt lat="41.99193" lon="27.54541">
        <ele>421</ele>
      </trkpt>
      <trkpt lat="41.9924" lon="27.545">
        <ele>420.2</ele>
      </trkpt>
      <trkpt lat="41.99266" lon="27.54504">
        <ele>423.9</ele>
      </trkpt>
      <trkpt lat="41.9929" lon="27.54478">
        <ele>424.3</ele>
      </trkpt>
      <trkpt lat="41.99298" lon="27.54441">
        <ele>421.6</ele>
      </trkpt>
      <trkpt lat="41.99292" lon="27.5439">
        <ele>417.1</ele>
      </trkpt>
      <trkpt lat="41.99279" lon="27.54362">
        <ele>414.8</ele>
      </trkpt>
      <trkpt lat="41.99258" lon="27.54357">
        <ele>412.8</ele>
      </trkpt>
      <trkpt lat="41.99152" lon="27.54368">
        <ele>403.4</ele>
      </trkpt>
      <trkpt lat="41.99052" lon="27.54369">
        <ele>394.3</ele>
      </trkpt>
      <trkpt lat="41.99028" lon="27.54363">
        <ele>393.2</ele>
      </trkpt>
      <trkpt lat="41.98942" lon="27.5432">
        <ele>387.6</ele>
      </trkpt>
      <trkpt lat="41.98909" lon="27.54311">
        <ele>385.6</ele>
      </trkpt>
      <trkpt lat="41.98835" lon="27.54271">
        <ele>379.3</ele>
      </trkpt>
      <trkpt lat="41.98716" lon="27.54189">
        <ele>377.1</ele>
      </trkpt>
      <trkpt lat="41.98701" lon="27.54192">
        <ele>377.3</ele>
      </trkpt>
      <trkpt lat="41.98655" lon="27.54211">
        <ele>377.4</ele>
      </trkpt>
      <trkpt lat="41.98568" lon="27.54264">
        <ele>377</ele>
      </trkpt>
      <trkpt lat="41.98445" lon="27.54291">
        <ele>378.2</ele>
      </trkpt>
      <trkpt lat="41.98412" lon="27.54288">
        <ele>377.9</ele>
      </trkpt>
      <trkpt lat="41.98365" lon="27.54265">
        <ele>375.6</ele>
      </trkpt>
      <trkpt lat="41.98294" lon="27.54062">
        <ele>378.7</ele>
      </trkpt>
      <trkpt lat="41.98237" lon="27.53828">
        <ele>372.9</ele>
      </trkpt>
      <trkpt lat="41.98228" lon="27.53802">
        <ele>371.7</ele>
      </trkpt>
      <trkpt lat="41.982" lon="27.53748">
        <ele>368.1</ele>
      </trkpt>
      <trkpt lat="41.98157" lon="27.53706">
        <ele>363.8</ele>
      </trkpt>
      <trkpt lat="41.98061" lon="27.53621">
        <ele>357.1</ele>
      </trkpt>
      <trkpt lat="41.97982" lon="27.53553">
        <ele>353</ele>
      </trkpt>
      <trkpt lat="41.9785" lon="27.5344">
        <ele>349.3</ele>
      </trkpt>
      <trkpt lat="41.97745" lon="27.53349">
        <ele>348.1</ele>
      </trkpt>
      <trkpt lat="41.9772" lon="27.53308">
        <ele>350</ele>
      </trkpt>
      <trkpt lat="41.97698" lon="27.53256">
        <ele>351.5</ele>
      </trkpt>
      <trkpt lat="41.97681" lon="27.53176">
        <ele>355.6</ele>
      </trkpt>
      <trkpt lat="41.97645" lon="27.52943">
        <ele>366.1</ele>
      </trkpt>
      <trkpt lat="41.9763" lon="27.52895">
        <ele>367.5</ele>
      </trkpt>
      <trkpt lat="41.97605" lon="27.52843">
        <ele>368.1</ele>
      </trkpt>
      <trkpt lat="41.97569" lon="27.52806">
        <ele>368.9</ele>
      </trkpt>
      <trkpt lat="41.97456" lon="27.52746">
        <ele>370.6</ele>
      </trkpt>
      <trkpt lat="41.97421" lon="27.52739">
        <ele>370.9</ele>
      </trkpt>
      <trkpt lat="41.97324" lon="27.52759">
        <ele>372.7</ele>
      </trkpt>
      <trkpt lat="41.97224" lon="27.52779">
        <ele>373.2</ele>
      </trkpt>
      <trkpt lat="41.9718" lon="27.52766">
        <ele>373.9</ele>
      </trkpt>
      <trkpt lat="41.97126" lon="27.52729">
        <ele>376</ele>
      </trkpt>
      <trkpt lat="41.97083" lon="27.52627">
        <ele>379.9</ele>
      </trkpt>
      <trkpt lat="41.97071" lon="27.52503">
        <ele>384.4</ele>
      </trkpt>
      <trkpt lat="41.97091" lon="27.52429">
        <ele>385.7</ele>
      </trkpt>
      <trkpt lat="41.9721" lon="27.52273">
        <ele>395</ele>
      </trkpt>
      <trkpt lat="41.97442" lon="27.51989">
        <ele>417</ele>
      </trkpt>
      <trkpt lat="41.975" lon="27.51913">
        <ele>412.9</ele>
      </trkpt>
      <trkpt lat="41.97505" lon="27.51871">
        <ele>410.9</ele>
      </trkpt>
      <trkpt lat="41.97491" lon="27.51809">
        <ele>414</ele>
      </trkpt>
      <trkpt lat="41.9749" lon="27.51769">
        <ele>413.1</ele>
      </trkpt>
      <trkpt lat="41.97509" lon="27.51706">
        <ele>416.3</ele>
      </trkpt>
      <trkpt lat="41.97575" lon="27.51654">
        <ele>409.4</ele>
      </trkpt>
      <trkpt lat="41.97631" lon="27.51635">
        <ele>409.9</ele>
      </trkpt>
      <trkpt lat="41.97689" lon="27.51654">
        <ele>404.2</ele>
      </trkpt>
      <trkpt lat="41.97735" lon="27.51648">
        <ele>404.4</ele>
      </trkpt>
      <trkpt lat="41.97762" lon="27.51624">
        <ele>403.5</ele>
      </trkpt>
      <trkpt lat="41.97775" lon="27.51577">
        <ele>402</ele>
      </trkpt>
      <trkpt lat="41.97767" lon="27.5149">
        <ele>408.5</ele>
      </trkpt>
      <trkpt lat="41.97732" lon="27.51407">
        <ele>416.3</ele>
      </trkpt>
      <trkpt lat="41.97684" lon="27.5134">
        <ele>420.8</ele>
      </trkpt>
      <trkpt lat="41.97622" lon="27.51294">
        <ele>425.5</ele>
      </trkpt>
      <trkpt lat="41.97594" lon="27.51265">
        <ele>427.5</ele>
      </trkpt>
      <trkpt lat="41.97573" lon="27.51219">
        <ele>429.5</ele>
      </trkpt>
      <trkpt lat="41.97551" lon="27.5116">
        <ele>432.6</ele>
      </trkpt>
      <trkpt lat="41.97525" lon="27.51103">
        <ele>437.3</ele>
      </trkpt>
      <trkpt lat="41.97514" lon="27.51058">
        <ele>442</ele>
      </trkpt>
      <trkpt lat="41.97547" lon="27.50984">
        <ele>444.5</ele>
      </trkpt>
      <trkpt lat="41.97547" lon="27.50941">
        <ele>447.9</ele>
      </trkpt>
      <trkpt lat="41.97521" lon="27.50868">
        <ele>455.9</ele>
      </trkpt>
      <trkpt lat="41.97515" lon="27.5081">
        <ele>459.4</ele>
      </trkpt>
      <trkpt lat="41.97544" lon="27.50729">
        <ele>463.5</ele>
      </trkpt>
      <trkpt lat="41.97605" lon="27.50666">
        <ele>465.7</ele>
      </trkpt>
      <trkpt lat="41.97611" lon="27.50589">
        <ele>468.2</ele>
      </trkpt>
      <trkpt lat="41.97591" lon="27.50534">
        <ele>469.1</ele>
      </trkpt>
      <trkpt lat="41.97503" lon="27.50474">
        <ele>477.6</ele>
      </trkpt>
      <trkpt lat="41.97447" lon="27.50423">
        <ele>486.6</ele>
      </trkpt>
      <trkpt lat="41.97444" lon="27.5038">
        <ele>487.1</ele>
      </trkpt>
      <trkpt lat="41.97462" lon="27.50283">
        <ele>488.2</ele>
      </trkpt>
      <trkpt lat="41.97481" lon="27.50238">
        <ele>486.6</ele>
      </trkpt>
      <trkpt lat="41.97459" lon="27.50182">
        <ele>492.5</ele>
      </trkpt>
      <trkpt lat="41.97417" lon="27.5007">
        <ele>499.1</ele>
      </trkpt>
      <trkpt lat="41.97368" lon="27.49962">
        <ele>510.3</ele>
      </trkpt>
      <trkpt lat="41.97345" lon="27.49903">
        <ele>517</ele>
      </trkpt>
      <trkpt lat="41.97363" lon="27.4976">
        <ele>532.3</ele>
      </trkpt>
      <trkpt lat="41.97376" lon="27.49697">
        <ele>541.6</ele>
      </trkpt>
      <trkpt lat="41.97537" lon="27.49617">
        <ele>541.4</ele>
      </trkpt>
      <trkpt lat="41.97568" lon="27.49547">
        <ele>546</ele>
      </trkpt>
      <trkpt lat="41.97563" lon="27.4945">
        <ele>549.1</ele>
      </trkpt>
      <trkpt lat="41.97521" lon="27.49425">
        <ele>551.9</ele>
      </trkpt>
      <trkpt lat="41.97436" lon="27.49467">
        <ele>558.2</ele>
      </trkpt>
      <trkpt lat="41.97376" lon="27.49488">
        <ele>568.9</ele>
      </trkpt>
      <trkpt lat="41.97355" lon="27.49443">
        <ele>573</ele>
      </trkpt>
      <trkpt lat="41.97347" lon="27.49331">
        <ele>575.7</ele>
      </trkpt>
      <trkpt lat="41.97329" lon="27.49171">
        <ele>573.5</ele>
      </trkpt>
      <trkpt lat="41.97322" lon="27.4908">
        <ele>572.5</ele>
      </trkpt>
      <trkpt lat="41.97335" lon="27.49007">
        <ele>569.3</ele>
      </trkpt>
      <trkpt lat="41.97381" lon="27.48892">
        <ele>560.9</ele>
      </trkpt>
      <trkpt lat="41.97376" lon="27.48819">
        <ele>558.5</ele>
      </trkpt>
      <trkpt lat="41.9735" lon="27.48766">
        <ele>557.1</ele>
      </trkpt>
      <trkpt lat="41.97254" lon="27.487">
        <ele>569.2</ele>
      </trkpt>
      <trkpt lat="41.97225" lon="27.48617">
        <ele>574.3</ele>
      </trkpt>
      <trkpt lat="41.9723" lon="27.48477">
        <ele>568</ele>
      </trkpt>
      <trkpt lat="41.9724" lon="27.48331">
        <ele>559.6</ele>
      </trkpt>
      <trkpt lat="41.97178" lon="27.4816">
        <ele>555</ele>
      </trkpt>
      <trkpt lat="41.97129" lon="27.47944">
        <ele>560.7</ele>
      </trkpt>
      <trkpt lat="41.9716" lon="27.47791">
        <ele>570.8</ele>
      </trkpt>
      <trkpt lat="41.9707" lon="27.47574">
        <ele>582.1</ele>
      </trkpt>
      <trkpt lat="41.97059" lon="27.47515">
        <ele>588</ele>
      </trkpt>
      <trkpt lat="41.97095" lon="27.47476">
        <ele>589.3</ele>
      </trkpt>
      <trkpt lat="41.97155" lon="27.47417">
        <ele>594.2</ele>
      </trkpt>
      <trkpt lat="41.97145" lon="27.47358">
        <ele>596.4</ele>
      </trkpt>
      <trkpt lat="41.97095" lon="27.4726">
        <ele>605.4</ele>
      </trkpt>
      <trkpt lat="41.97075" lon="27.47204">
        <ele>608.1</ele>
      </trkpt>
      <trkpt lat="41.97195" lon="27.4704">
        <ele>613.6</ele>
      </trkpt>
      <trkpt lat="41.9726" lon="27.46921">
        <ele>614.8</ele>
      </trkpt>
      <trkpt lat="41.97265" lon="27.46813">
        <ele>622.2</ele>
      </trkpt>
      <trkpt lat="41.97203" lon="27.46736">
        <ele>629.3</ele>
      </trkpt>
      <trkpt lat="41.97156" lon="27.46705">
        <ele>626</ele>
      </trkpt>
      <trkpt lat="41.97154" lon="27.46614">
        <ele>628.2</ele>
      </trkpt>
      <trkpt lat="41.97187" lon="27.46464">
        <ele>635.2</ele>
      </trkpt>
      <trkpt lat="41.97185" lon="27.46395">
        <ele>641.4</ele>
      </trkpt>
      <trkpt lat="41.97079" lon="27.46359">
        <ele>642.9</ele>
      </trkpt>
      <trkpt lat="41.97035" lon="27.46331">
        <ele>642.5</ele>
      </trkpt>
      <trkpt lat="41.97027" lon="27.46258">
        <ele>650.9</ele>
      </trkpt>
      <trkpt lat="41.97027" lon="27.46192">
        <ele>659.3</ele>
      </trkpt>
      <trkpt lat="41.96978" lon="27.46164">
        <ele>656.1</ele>
      </trkpt>
      <trkpt lat="41.96873" lon="27.46095">
        <ele>657.4</ele>
      </trkpt>
      <trkpt lat="41.96873" lon="27.46095">
        <ele>657.4</ele>
      </trkpt>
      <trkpt lat="41.96873" lon="27.46095">
        <ele>657.4</ele>
      </trkpt>
      <trkpt lat="41.96873" lon="27.46095">
        <ele>657.4</ele>
      </trkpt>
      <trkpt lat="41.96873" lon="27.46095">
        <ele>657.4</ele>
      </trkpt>
      <trkpt lat="41.96873" lon="27.46095">
        <ele>657.4</ele>
      </trkpt>
      <trkpt lat="41.96873" lon="27.46095">
        <ele>657.4</ele>
      </trkpt>
      <trkpt lat="41.96873" lon="27.46095">
        <ele>657.4</ele>
      </trkpt>
      <trkpt lat="41.96873" lon="27.46095">
        <ele>657.4</ele>
      </trkpt>
      <trkpt lat="41.96873" lon="27.46095">
        <ele>657.4</ele>
      </trkpt>
      <trkpt lat="41.96873" lon="27.46095">
        <ele>657.4</ele>
      </trkpt>
      <trkpt lat="41.96787" lon="27.45983">
        <ele>653.2</ele>
      </trkpt>
      <trkpt lat="41.96751" lon="27.45885">
        <ele>645.9</ele>
      </trkpt>
      <trkpt lat="41.96702" lon="27.45767">
        <ele>635.5</ele>
      </trkpt>
      <trkpt lat="41.9666" lon="27.45641">
        <ele>626.4</ele>
      </trkpt>
      <trkpt lat="41.96598" lon="27.45579">
        <ele>620.7</ele>
      </trkpt>
      <trkpt lat="41.96577" lon="27.45519">
        <ele>617.7</ele>
      </trkpt>
      <trkpt lat="41.9659" lon="27.45415">
        <ele>619.6</ele>
      </trkpt>
      <trkpt lat="41.96564" lon="27.45366">
        <ele>618.6</ele>
      </trkpt>
      <trkpt lat="41.96346" lon="27.45265">
        <ele>601.8</ele>
      </trkpt>
      <trkpt lat="41.96331" lon="27.45206">
        <ele>601.7</ele>
      </trkpt>
      <trkpt lat="41.96349" lon="27.45133">
        <ele>603.3</ele>
      </trkpt>
      <trkpt lat="41.96388" lon="27.45073">
        <ele>604.3</ele>
      </trkpt>
      <trkpt lat="41.9638" lon="27.44993">
        <ele>599.6</ele>
      </trkpt>
      <trkpt lat="41.96336" lon="27.4492">
        <ele>594.3</ele>
      </trkpt>
      <trkpt lat="41.96313" lon="27.44847">
        <ele>587.3</ele>
      </trkpt>
      <trkpt lat="41.96372" lon="27.44756">
        <ele>578.8</ele>
      </trkpt>
      <trkpt lat="41.96484" lon="27.44693">
        <ele>576.4</ele>
      </trkpt>
      <trkpt lat="41.96556" lon="27.44638">
        <ele>578.2</ele>
      </trkpt>
      <trkpt lat="41.96675" lon="27.44606">
        <ele>586.1</ele>
      </trkpt>
      <trkpt lat="41.96745" lon="27.44568">
        <ele>588.7</ele>
      </trkpt>
      <trkpt lat="41.96758" lon="27.44495">
        <ele>590.7</ele>
      </trkpt>
      <trkpt lat="41.96709" lon="27.44407">
        <ele>600.5</ele>
      </trkpt>
      <trkpt lat="41.96688" lon="27.44371">
        <ele>598.7</ele>
      </trkpt>
      <trkpt lat="41.9669" lon="27.44298">
        <ele>598.2</ele>
      </trkpt>
      <trkpt lat="41.96739" lon="27.44246">
        <ele>606.4</ele>
      </trkpt>
      <trkpt lat="41.96882" lon="27.44145">
        <ele>624.3</ele>
      </trkpt>
      <trkpt lat="41.97001" lon="27.44033">
        <ele>636.9</ele>
      </trkpt>
      <trkpt lat="41.97079" lon="27.43963">
        <ele>645.5</ele>
      </trkpt>
      <trkpt lat="41.97188" lon="27.43814">
        <ele>655.7</ele>
      </trkpt>
      <trkpt lat="41.9725" lon="27.43712">
        <ele>663.8</ele>
      </trkpt>
      <trkpt lat="41.97237" lon="27.43622">
        <ele>667.6</ele>
      </trkpt>
      <trkpt lat="41.97159" lon="27.43531">
        <ele>671</ele>
      </trkpt>
      <trkpt lat="41.97074" lon="27.43364">
        <ele>685.5</ele>
      </trkpt>
      <trkpt lat="41.97063" lon="27.43228">
        <ele>680.9</ele>
      </trkpt>
      <trkpt lat="41.9711" lon="27.43085">
        <ele>677.7</ele>
      </trkpt>
      <trkpt lat="41.97149" lon="27.42963">
        <ele>673.8</ele>
      </trkpt>
      <trkpt lat="41.97124" lon="27.42803">
        <ele>664.9</ele>
      </trkpt>
      <trkpt lat="41.97059" lon="27.4267">
        <ele>652.6</ele>
      </trkpt>
      <trkpt lat="41.96978" lon="27.42454">
        <ele>655.5</ele>
      </trkpt>
      <trkpt lat="41.9696" lon="27.42297">
        <ele>657</ele>
      </trkpt>
      <trkpt lat="41.96947" lon="27.42116">
        <ele>649.9</ele>
      </trkpt>
      <trkpt lat="41.96875" lon="27.41837">
        <ele>647.1</ele>
      </trkpt>
      <trkpt lat="41.96872" lon="27.4175">
        <ele>640.5</ele>
      </trkpt>
      <trkpt lat="41.96898" lon="27.41658">
        <ele>636.3</ele>
      </trkpt>
      <trkpt lat="41.97005" lon="27.41564">
        <ele>623.5</ele>
      </trkpt>
      <trkpt lat="41.97054" lon="27.41498">
        <ele>618.4</ele>
      </trkpt>
      <trkpt lat="41.9708" lon="27.414">
        <ele>615.1</ele>
      </trkpt>
      <trkpt lat="41.97112" lon="27.41183">
        <ele>611</ele>
      </trkpt>
      <trkpt lat="41.972" lon="27.41026">
        <ele>591.2</ele>
      </trkpt>
      <trkpt lat="41.97197" lon="27.40964">
        <ele>586.9</ele>
      </trkpt>
      <trkpt lat="41.97166" lon="27.40824">
        <ele>575.4</ele>
      </trkpt>
      <trkpt lat="41.97112" lon="27.40681">
        <ele>567.4</ele>
      </trkpt>
      <trkpt lat="41.96793" lon="27.40129">
        <ele>544.6</ele>
      </trkpt>
      <trkpt lat="41.96683" lon="27.40012">
        <ele>537.6</ele>
      </trkpt>
      <trkpt lat="41.96587" lon="27.3997">
        <ele>540.5</ele>
      </trkpt>
      <trkpt lat="41.96473" lon="27.39893">
        <ele>538.8</ele>
      </trkpt>
      <trkpt lat="41.95999" lon="27.39415">
        <ele>529.8</ele>
      </trkpt>
      <trkpt lat="41.95936" lon="27.39255">
        <ele>527.4</ele>
      </trkpt>
      <trkpt lat="41.95872" lon="27.38969">
        <ele>522.8</ele>
      </trkpt>
      <trkpt lat="41.95815" lon="27.3876">
        <ele>520.8</ele>
      </trkpt>
      <trkpt lat="41.95605" lon="27.38341">
        <ele>505.2</ele>
      </trkpt>
      <trkpt lat="41.95504" lon="27.38174">
        <ele>498.8</ele>
      </trkpt>
      <trkpt lat="41.95198" lon="27.37616">
        <ele>484.4</ele>
      </trkpt>
      <trkpt lat="41.94999" lon="27.37473">
        <ele>475.5</ele>
      </trkpt>
      <trkpt lat="41.94953" lon="27.37431">
        <ele>473.4</ele>
      </trkpt>
      <trkpt lat="41.94795" lon="27.3726">
        <ele>471.5</ele>
      </trkpt>
      <trkpt lat="41.94665" lon="27.37117">
        <ele>472.2</ele>
      </trkpt>
      <trkpt lat="41.9455" lon="27.37067">
        <ele>475.2</ele>
      </trkpt>
      <trkpt lat="41.94537" lon="27.37063">
        <ele>475.3</ele>
      </trkpt>
      <trkpt lat="41.94489" lon="27.37037">
        <ele>477.5</ele>
      </trkpt>
      <trkpt lat="41.94489" lon="27.37037">
        <ele>477.5</ele>
      </trkpt>
      <trkpt lat="41.94235" lon="27.36922">
        <ele>476.8</ele>
      </trkpt>
      <trkpt lat="41.94087" lon="27.36831">
        <ele>480.6</ele>
      </trkpt>
      <trkpt lat="41.93975" lon="27.36733">
        <ele>479.2</ele>
      </trkpt>
      <trkpt lat="41.939" lon="27.36657">
        <ele>483.9</ele>
      </trkpt>
      <trkpt lat="41.93765" lon="27.36409">
        <ele>485.2</ele>
      </trkpt>
      <trkpt lat="41.93515" lon="27.3586">
        <ele>458.4</ele>
      </trkpt>
      <trkpt lat="41.93328" lon="27.35661">
        <ele>465.8</ele>
      </trkpt>
      <trkpt lat="41.93071" lon="27.35407">
        <ele>502.3</ele>
      </trkpt>
      <trkpt lat="41.92975" lon="27.35356">
        <ele>507.8</ele>
      </trkpt>
      <trkpt lat="41.92885" lon="27.35342">
        <ele>512.3</ele>
      </trkpt>
      <trkpt lat="41.92734" lon="27.35422">
        <ele>508.7</ele>
      </trkpt>
      <trkpt lat="41.92381" lon="27.35633">
        <ele>507.4</ele>
      </trkpt>
      <trkpt lat="41.92235" lon="27.35691">
        <ele>507.3</ele>
      </trkpt>
      <trkpt lat="41.9189" lon="27.35726">
        <ele>489.2</ele>
      </trkpt>
      <trkpt lat="41.91812" lon="27.35761">
        <ele>481.7</ele>
      </trkpt>
      <trkpt lat="41.91532" lon="27.35974">
        <ele>453.9</ele>
      </trkpt>
      <trkpt lat="41.91273" lon="27.36158">
        <ele>464.1</ele>
      </trkpt>
      <trkpt lat="41.91169" lon="27.36193">
        <ele>468.4</ele>
      </trkpt>
      <trkpt lat="41.90814" lon="27.3619">
        <ele>494.3</ele>
      </trkpt>
      <trkpt lat="41.9037" lon="27.36195">
        <ele>524.6</ele>
      </trkpt>
      <trkpt lat="41.90269" lon="27.36133">
        <ele>521.6</ele>
      </trkpt>
      <trkpt lat="41.90248" lon="27.36091">
        <ele>521.5</ele>
      </trkpt>
      <trkpt lat="41.90241" lon="27.35955">
        <ele>519.3</ele>
      </trkpt>
      <trkpt lat="41.90223" lon="27.35891">
        <ele>518.9</ele>
      </trkpt>
      <trkpt lat="41.90166" lon="27.35779">
        <ele>521.7</ele>
      </trkpt>
      <trkpt lat="41.9011" lon="27.35684">
        <ele>525.1</ele>
      </trkpt>
      <trkpt lat="41.90072" lon="27.35594">
        <ele>526.8</ele>
      </trkpt>
      <trkpt lat="41.90033" lon="27.3548">
        <ele>523.6</ele>
      </trkpt>
      <trkpt lat="41.89947" lon="27.35338">
        <ele>516.3</ele>
      </trkpt>
      <trkpt lat="41.89858" lon="27.3522">
        <ele>516.2</ele>
      </trkpt>
      <trkpt lat="41.89803" lon="27.3515">
        <ele>517.4</ele>
      </trkpt>
      <trkpt lat="41.89717" lon="27.35125">
        <ele>521.5</ele>
      </trkpt>
      <trkpt lat="41.89637" lon="27.35111">
        <ele>525.5</ele>
      </trkpt>
      <trkpt lat="41.89505" lon="27.35123">
        <ele>528</ele>
      </trkpt>
      <trkpt lat="41.8945" lon="27.35114">
        <ele>529.4</ele>
      </trkpt>
      <trkpt lat="41.89406" lon="27.35089">
        <ele>530.3</ele>
      </trkpt>
      <trkpt lat="41.89306" lon="27.35026">
        <ele>533.3</ele>
      </trkpt>
      <trkpt lat="41.89058" lon="27.34889">
        <ele>538.7</ele>
      </trkpt>
      <trkpt lat="41.88976" lon="27.34837">
        <ele>545.6</ele>
      </trkpt>
      <trkpt lat="41.88961" lon="27.3481">
        <ele>547.1</ele>
      </trkpt>
      <trkpt lat="41.88945" lon="27.34763">
        <ele>548.5</ele>
      </trkpt>
      <trkpt lat="41.88942" lon="27.34703">
        <ele>550.9</ele>
      </trkpt>
      <trkpt lat="41.88955" lon="27.34586">
        <ele>555.5</ele>
      </trkpt>
      <trkpt lat="41.88939" lon="27.34528">
        <ele>557.2</ele>
      </trkpt>
      <trkpt lat="41.88902" lon="27.3448">
        <ele>557</ele>
      </trkpt>
      <trkpt lat="41.8887" lon="27.34453">
        <ele>555.3</ele>
      </trkpt>
      <trkpt lat="41.88811" lon="27.3444">
        <ele>552.5</ele>
      </trkpt>
      <trkpt lat="41.88692" lon="27.34381">
        <ele>550.5</ele>
      </trkpt>
      <trkpt lat="41.88603" lon="27.34318">
        <ele>545.4</ele>
      </trkpt>
      <trkpt lat="41.88577" lon="27.34253">
        <ele>543</ele>
      </trkpt>
      <trkpt lat="41.88543" lon="27.34122">
        <ele>546.8</ele>
      </trkpt>
      <trkpt lat="41.88511" lon="27.34063">
        <ele>547.7</ele>
      </trkpt>
      <trkpt lat="41.88432" lon="27.3394">
        <ele>544.8</ele>
      </trkpt>
      <trkpt lat="41.88338" lon="27.33795">
        <ele>540.1</ele>
      </trkpt>
      <trkpt lat="41.88242" lon="27.33716">
        <ele>535.9</ele>
      </trkpt>
      <trkpt lat="41.87987" lon="27.33527">
        <ele>540.5</ele>
      </trkpt>
      <trkpt lat="41.87916" lon="27.33464">
        <ele>544.1</ele>
      </trkpt>
      <trkpt lat="41.87884" lon="27.33412">
        <ele>547.7</ele>
      </trkpt>
      <trkpt lat="41.87878" lon="27.33349">
        <ele>550.3</ele>
      </trkpt>
      <trkpt lat="41.87872" lon="27.33314">
        <ele>550.9</ele>
      </trkpt>
      <trkpt lat="41.87801" lon="27.33225">
        <ele>548.6</ele>
      </trkpt>
      <trkpt lat="41.87668" lon="27.33192">
        <ele>548.9</ele>
      </trkpt>
      <trkpt lat="41.87646" lon="27.33172">
        <ele>548.4</ele>
      </trkpt>
      <trkpt lat="41.8761" lon="27.33003">
        <ele>540.8</ele>
      </trkpt>
      <trkpt lat="41.8757" lon="27.32951">
        <ele>536.4</ele>
      </trkpt>
      <trkpt lat="41.87494" lon="27.32894">
        <ele>530.8</ele>
      </trkpt>
      <trkpt lat="41.87402" lon="27.32835">
        <ele>532.4</ele>
      </trkpt>
      <trkpt lat="41.87259" lon="27.32796">
        <ele>531.1</ele>
      </trkpt>
      <trkpt lat="41.87105" lon="27.32739">
        <ele>522.3</ele>
      </trkpt>
      <trkpt lat="41.8705" lon="27.32748">
        <ele>517.1</ele>
      </trkpt>
      <trkpt lat="41.86972" lon="27.32768">
        <ele>511.8</ele>
      </trkpt>
      <trkpt lat="41.8688" lon="27.32731">
        <ele>507.2</ele>
      </trkpt>
      <trkpt lat="41.86818" lon="27.3269">
        <ele>503.1</ele>
      </trkpt>
      <trkpt lat="41.86735" lon="27.32521">
        <ele>496.8</ele>
      </trkpt>
      <trkpt lat="41.86637" lon="27.32299">
        <ele>498.4</ele>
      </trkpt>
      <trkpt lat="41.86606" lon="27.3217">
        <ele>497.3</ele>
      </trkpt>
      <trkpt lat="41.8657" lon="27.32131">
        <ele>496.7</ele>
      </trkpt>
      <trkpt lat="41.86489" lon="27.32087">
        <ele>492.6</ele>
      </trkpt>
      <trkpt lat="41.8646" lon="27.32047">
        <ele>487.7</ele>
      </trkpt>
      <trkpt lat="41.86307" lon="27.31992">
        <ele>477</ele>
      </trkpt>
      <trkpt lat="41.86182" lon="27.3195">
        <ele>465.8</ele>
      </trkpt>
      <trkpt lat="41.86222" lon="27.31909">
        <ele>466.8</ele>
      </trkpt>
      <trkpt lat="41.86277" lon="27.31844">
        <ele>466.9</ele>
      </trkpt>
      <trkpt lat="41.86396" lon="27.31659">
        <ele>481.1</ele>
      </trkpt>
      <trkpt lat="41.8643" lon="27.31636">
        <ele>484</ele>
      </trkpt>
      <trkpt lat="41.86532" lon="27.31633">
        <ele>487</ele>
      </trkpt>
      <trkpt lat="41.86556" lon="27.31626">
        <ele>487.6</ele>
      </trkpt>
      <trkpt lat="41.86583" lon="27.31612">
        <ele>488.6</ele>
      </trkpt>
      <trkpt lat="41.86588" lon="27.31591">
        <ele>489.6</ele>
      </trkpt>
      <trkpt lat="41.86556" lon="27.31507">
        <ele>493.6</ele>
      </trkpt>
      <trkpt lat="41.86522" lon="27.31427">
        <ele>498</ele>
      </trkpt>
      <trkpt lat="41.86513" lon="27.31403">
        <ele>498.9</ele>
      </trkpt>
      <trkpt lat="41.86522" lon="27.31346">
        <ele>501.7</ele>
      </trkpt>
      <trkpt lat="41.86558" lon="27.31196">
        <ele>512.2</ele>
      </trkpt>
      <trkpt lat="41.8657" lon="27.31143">
        <ele>513.5</ele>
      </trkpt>
      <trkpt lat="41.86579" lon="27.31058">
        <ele>515.3</ele>
      </trkpt>
      <trkpt lat="41.86575" lon="27.31008">
        <ele>518.1</ele>
      </trkpt>
      <trkpt lat="41.86554" lon="27.3095">
        <ele>517.8</ele>
      </trkpt>
      <trkpt lat="41.86504" lon="27.30826">
        <ele>519.7</ele>
      </trkpt>
      <trkpt lat="41.8647" lon="27.30785">
        <ele>521.1</ele>
      </trkpt>
      <trkpt lat="41.86405" lon="27.30724">
        <ele>519.8</ele>
      </trkpt>
      <trkpt lat="41.8639" lon="27.30716">
        <ele>518.9</ele>
      </trkpt>
      <trkpt lat="41.86368" lon="27.30717">
        <ele>519</ele>
      </trkpt>
      <trkpt lat="41.86274" lon="27.30726">
        <ele>522.4</ele>
      </trkpt>
      <trkpt lat="41.86238" lon="27.30711">
        <ele>522.5</ele>
      </trkpt>
      <trkpt lat="41.86191" lon="27.30676">
        <ele>523.4</ele>
      </trkpt>
      <trkpt lat="41.86139" lon="27.30603">
        <ele>525.2</ele>
      </trkpt>
      <trkpt lat="41.86128" lon="27.30569">
        <ele>525.3</ele>
      </trkpt>
      <trkpt lat="41.86124" lon="27.30532">
        <ele>523.5</ele>
      </trkpt>
      <trkpt lat="41.86098" lon="27.30473">
        <ele>522.1</ele>
      </trkpt>
      <trkpt lat="41.86014" lon="27.30398">
        <ele>518.7</ele>
      </trkpt>
      <trkpt lat="41.85984" lon="27.30353">
        <ele>517.2</ele>
      </trkpt>
      <trkpt lat="41.85976" lon="27.30321">
        <ele>516.6</ele>
      </trkpt>
      <trkpt lat="41.85992" lon="27.30278">
        <ele>515.9</ele>
      </trkpt>
      <trkpt lat="41.86074" lon="27.30155">
        <ele>516</ele>
      </trkpt>
      <trkpt lat="41.86127" lon="27.30071">
        <ele>520.2</ele>
      </trkpt>
      <trkpt lat="41.8617" lon="27.30033">
        <ele>522</ele>
      </trkpt>
      <trkpt lat="41.86204" lon="27.30027">
        <ele>520.5</ele>
      </trkpt>
      <trkpt lat="41.86224" lon="27.30001">
        <ele>520.8</ele>
      </trkpt>
      <trkpt lat="41.8625" lon="27.29847">
        <ele>510.9</ele>
      </trkpt>
      <trkpt lat="41.86284" lon="27.29774">
        <ele>501.3</ele>
      </trkpt>
      <trkpt lat="41.86308" lon="27.29681">
        <ele>493.9</ele>
      </trkpt>
      <trkpt lat="41.86325" lon="27.29656">
        <ele>491.1</ele>
      </trkpt>
      <trkpt lat="41.86359" lon="27.29642">
        <ele>486.8</ele>
      </trkpt>
      <trkpt lat="41.8648" lon="27.29647">
        <ele>480.7</ele>
      </trkpt>
      <trkpt lat="41.86524" lon="27.29637">
        <ele>479</ele>
      </trkpt>
      <trkpt lat="41.86557" lon="27.29622">
        <ele>477.6</ele>
      </trkpt>
      <trkpt lat="41.86586" lon="27.29585">
        <ele>474</ele>
      </trkpt>
      <trkpt lat="41.86604" lon="27.29546">
        <ele>469.2</ele>
      </trkpt>
      <trkpt lat="41.86695" lon="27.29413">
        <ele>459.6</ele>
      </trkpt>
      <trkpt lat="41.86701" lon="27.29384">
        <ele>456.2</ele>
      </trkpt>
      <trkpt lat="41.86699" lon="27.29364">
        <ele>454.4</ele>
      </trkpt>
      <trkpt lat="41.86682" lon="27.29343">
        <ele>453.7</ele>
      </trkpt>
      <trkpt lat="41.86644" lon="27.29322">
        <ele>450.9</ele>
      </trkpt>
      <trkpt lat="41.86627" lon="27.29287">
        <ele>445.3</ele>
      </trkpt>
      <trkpt lat="41.86633" lon="27.29257">
        <ele>441.8</ele>
      </trkpt>
      <trkpt lat="41.86653" lon="27.29204">
        <ele>438.6</ele>
      </trkpt>
      <trkpt lat="41.86655" lon="27.29182">
        <ele>437</ele>
      </trkpt>
      <trkpt lat="41.86641" lon="27.29083">
        <ele>427.1</ele>
      </trkpt>
      <trkpt lat="41.8665" lon="27.29001">
        <ele>422.5</ele>
      </trkpt>
      <trkpt lat="41.86648" lon="27.2897">
        <ele>419.6</ele>
      </trkpt>
      <trkpt lat="41.86637" lon="27.28927">
        <ele>415.7</ele>
      </trkpt>
      <trkpt lat="41.86644" lon="27.28899">
        <ele>412.2</ele>
      </trkpt>
      <trkpt lat="41.86661" lon="27.28894">
        <ele>411.4</ele>
      </trkpt>
      <trkpt lat="41.86727" lon="27.28899">
        <ele>405.5</ele>
      </trkpt>
      <trkpt lat="41.86753" lon="27.28892">
        <ele>402</ele>
      </trkpt>
      <trkpt lat="41.86765" lon="27.2887">
        <ele>398.6</ele>
      </trkpt>
      <trkpt lat="41.86769" lon="27.28836">
        <ele>395.4</ele>
      </trkpt>
      <trkpt lat="41.86761" lon="27.28803">
        <ele>391.5</ele>
      </trkpt>
      <trkpt lat="41.86708" lon="27.28708">
        <ele>380</ele>
      </trkpt>
      <trkpt lat="41.86686" lon="27.28657">
        <ele>373.7</ele>
      </trkpt>
      <trkpt lat="41.86635" lon="27.28565">
        <ele>365</ele>
      </trkpt>
      <trkpt lat="41.86594" lon="27.28513">
        <ele>360.7</ele>
      </trkpt>
      <trkpt lat="41.86561" lon="27.28483">
        <ele>358.3</ele>
      </trkpt>
      <trkpt lat="41.86547" lon="27.28446">
        <ele>355.7</ele>
      </trkpt>
      <trkpt lat="41.86537" lon="27.28395">
        <ele>356</ele>
      </trkpt>
      <trkpt lat="41.86471" lon="27.283">
        <ele>361.9</ele>
      </trkpt>
      <trkpt lat="41.8644" lon="27.28225">
        <ele>364.9</ele>
      </trkpt>
      <trkpt lat="41.86433" lon="27.2813">
        <ele>372</ele>
      </trkpt>
      <trkpt lat="41.86442" lon="27.2811">
        <ele>374.7</ele>
      </trkpt>
      <trkpt lat="41.8649" lon="27.28102">
        <ele>381.2</ele>
      </trkpt>
      <trkpt lat="41.86574" lon="27.28102">
        <ele>384.8</ele>
      </trkpt>
      <trkpt lat="41.8668" lon="27.28063">
        <ele>387.6</ele>
      </trkpt>
      <trkpt lat="41.86712" lon="27.27995">
        <ele>385.9</ele>
      </trkpt>
      <trkpt lat="41.86755" lon="27.27946">
        <ele>384.5</ele>
      </trkpt>
      <trkpt lat="41.86798" lon="27.27855">
        <ele>382.9</ele>
      </trkpt>
      <trkpt lat="41.86791" lon="27.27762">
        <ele>381.1</ele>
      </trkpt>
      <trkpt lat="41.86801" lon="27.27706">
        <ele>379</ele>
      </trkpt>
      <trkpt lat="41.86835" lon="27.27656">
        <ele>378.3</ele>
      </trkpt>
      <trkpt lat="41.86825" lon="27.27602">
        <ele>378.1</ele>
      </trkpt>
      <trkpt lat="41.86828" lon="27.2753">
        <ele>379.1</ele>
      </trkpt>
      <trkpt lat="41.86857" lon="27.2746">
        <ele>380.9</ele>
      </trkpt>
      <trkpt lat="41.86848" lon="27.2743">
        <ele>380.7</ele>
      </trkpt>
      <trkpt lat="41.86823" lon="27.27407">
        <ele>379.4</ele>
      </trkpt>
      <trkpt lat="41.86809" lon="27.27374">
        <ele>376.9</ele>
      </trkpt>
      <trkpt lat="41.86818" lon="27.27248">
        <ele>367.4</ele>
      </trkpt>
      <trkpt lat="41.86801" lon="27.27189">
        <ele>360.7</ele>
      </trkpt>
      <trkpt lat="41.868" lon="27.27155">
        <ele>356.8</ele>
      </trkpt>
      <trkpt lat="41.86827" lon="27.27128">
        <ele>355.5</ele>
      </trkpt>
      <trkpt lat="41.86899" lon="27.27111">
        <ele>352.9</ele>
      </trkpt>
      <trkpt lat="41.86943" lon="27.27106">
        <ele>352.2</ele>
      </trkpt>
      <trkpt lat="41.8702" lon="27.27071">
        <ele>349.8</ele>
      </trkpt>
      <trkpt lat="41.87028" lon="27.27034">
        <ele>347.3</ele>
      </trkpt>
      <trkpt lat="41.8704" lon="27.2698">
        <ele>345</ele>
      </trkpt>
      <trkpt lat="41.87059" lon="27.26889">
        <ele>347.4</ele>
      </trkpt>
      <trkpt lat="41.87078" lon="27.26852">
        <ele>349.9</ele>
      </trkpt>
      <trkpt lat="41.87096" lon="27.26841">
        <ele>350.9</ele>
      </trkpt>
      <trkpt lat="41.87129" lon="27.26838">
        <ele>351.8</ele>
      </trkpt>
      <trkpt lat="41.87151" lon="27.26811">
        <ele>356</ele>
      </trkpt>
      <trkpt lat="41.87153" lon="27.26754">
        <ele>364.5</ele>
      </trkpt>
      <trkpt lat="41.87139" lon="27.26728">
        <ele>368.5</ele>
      </trkpt>
      <trkpt lat="41.87111" lon="27.26732">
        <ele>369.2</ele>
      </trkpt>
      <trkpt lat="41.87067" lon="27.26749">
        <ele>365.6</ele>
      </trkpt>
      <trkpt lat="41.87024" lon="27.2674">
        <ele>365.5</ele>
      </trkpt>
      <trkpt lat="41.87009" lon="27.26727">
        <ele>366.6</ele>
      </trkpt>
      <trkpt lat="41.87001" lon="27.267">
        <ele>369.6</ele>
      </trkpt>
      <trkpt lat="41.87005" lon="27.26666">
        <ele>374.8</ele>
      </trkpt>
      <trkpt lat="41.8701" lon="27.26632">
        <ele>377.1</ele>
      </trkpt>
      <trkpt lat="41.87026" lon="27.26597">
        <ele>381</ele>
      </trkpt>
      <trkpt lat="41.87076" lon="27.26535">
        <ele>390.1</ele>
      </trkpt>
      <trkpt lat="41.87123" lon="27.26477">
        <ele>393.6</ele>
      </trkpt>
      <trkpt lat="41.87133" lon="27.26442">
        <ele>396.8</ele>
      </trkpt>
      <trkpt lat="41.87133" lon="27.26367">
        <ele>403.9</ele>
      </trkpt>
      <trkpt lat="41.87141" lon="27.26318">
        <ele>408.6</ele>
      </trkpt>
      <trkpt lat="41.87153" lon="27.2627">
        <ele>413.3</ele>
      </trkpt>
      <trkpt lat="41.87159" lon="27.26206">
        <ele>420.2</ele>
      </trkpt>
      <trkpt lat="41.87173" lon="27.2618">
        <ele>421.5</ele>
      </trkpt>
      <trkpt lat="41.8719" lon="27.26159">
        <ele>420.6</ele>
      </trkpt>
      <trkpt lat="41.87186" lon="27.26135">
        <ele>422.8</ele>
      </trkpt>
      <trkpt lat="41.87163" lon="27.26106">
        <ele>428.7</ele>
      </trkpt>
      <trkpt lat="41.87134" lon="27.26095">
        <ele>432.9</ele>
      </trkpt>
      <trkpt lat="41.87051" lon="27.26091">
        <ele>439.4</ele>
      </trkpt>
      <trkpt lat="41.87019" lon="27.26075">
        <ele>442</ele>
      </trkpt>
      <trkpt lat="41.86978" lon="27.26037">
        <ele>449</ele>
      </trkpt>
      <trkpt lat="41.86891" lon="27.2597">
        <ele>462</ele>
      </trkpt>
      <trkpt lat="41.86845" lon="27.2596">
        <ele>465</ele>
      </trkpt>
      <trkpt lat="41.86765" lon="27.25945">
        <ele>466.4</ele>
      </trkpt>
      <trkpt lat="41.8674" lon="27.25919">
        <ele>467.2</ele>
      </trkpt>
      <trkpt lat="41.8666" lon="27.25809">
        <ele>461.8</ele>
      </trkpt>
      <trkpt lat="41.86367" lon="27.25648">
        <ele>460.2</ele>
      </trkpt>
      <trkpt lat="41.8633" lon="27.25646">
        <ele>461.7</ele>
      </trkpt>
      <trkpt lat="41.86231" lon="27.25656">
        <ele>465</ele>
      </trkpt>
      <trkpt lat="41.86163" lon="27.25639">
        <ele>466.2</ele>
      </trkpt>
      <trkpt lat="41.85925" lon="27.25509">
        <ele>471.7</ele>
      </trkpt>
      <trkpt lat="41.8581" lon="27.25447">
        <ele>473.7</ele>
      </trkpt>
      <trkpt lat="41.85667" lon="27.25374">
        <ele>477.5</ele>
      </trkpt>
      <trkpt lat="41.85566" lon="27.25365">
        <ele>480.6</ele>
      </trkpt>
      <trkpt lat="41.8539" lon="27.25217">
        <ele>483.6</ele>
      </trkpt>
      <trkpt lat="41.8531" lon="27.25147">
        <ele>491.6</ele>
      </trkpt>
      <trkpt lat="41.85224" lon="27.25094">
        <ele>488.5</ele>
      </trkpt>
      <trkpt lat="41.85082" lon="27.24852">
        <ele>480.3</ele>
      </trkpt>
      <trkpt lat="41.85052" lon="27.24779">
        <ele>479.2</ele>
      </trkpt>
      <trkpt lat="41.84927" lon="27.24671">
        <ele>477.1</ele>
      </trkpt>
      <trkpt lat="41.84903" lon="27.24611">
        <ele>475.8</ele>
      </trkpt>
      <trkpt lat="41.84898" lon="27.24568">
        <ele>475.8</ele>
      </trkpt>
      <trkpt lat="41.84829" lon="27.24423">
        <ele>475.2</ele>
      </trkpt>
      <trkpt lat="41.84779" lon="27.2437">
        <ele>473.8</ele>
      </trkpt>
      <trkpt lat="41.84577" lon="27.24255">
        <ele>477</ele>
      </trkpt>
      <trkpt lat="41.84549" lon="27.2425">
        <ele>478.3</ele>
      </trkpt>
      <trkpt lat="41.84523" lon="27.24274">
        <ele>478.6</ele>
      </trkpt>
      <trkpt lat="41.84497" lon="27.24349">
        <ele>478.5</ele>
      </trkpt>
      <trkpt lat="41.84473" lon="27.24366">
        <ele>478.6</ele>
      </trkpt>
      <trkpt lat="41.84346" lon="27.24375">
        <ele>488.3</ele>
      </trkpt>
      <trkpt lat="41.84323" lon="27.24386">
        <ele>490.5</ele>
      </trkpt>
      <trkpt lat="41.84302" lon="27.24462">
        <ele>484.9</ele>
      </trkpt>
      <trkpt lat="41.84271" lon="27.2449">
        <ele>486.4</ele>
      </trkpt>
      <trkpt lat="41.84238" lon="27.24511">
        <ele>487.1</ele>
      </trkpt>
      <trkpt lat="41.84213" lon="27.24535">
        <ele>484.7</ele>
      </trkpt>
      <trkpt lat="41.84153" lon="27.24542">
        <ele>487.9</ele>
      </trkpt>
      <trkpt lat="41.84077" lon="27.24492">
        <ele>496.6</ele>
      </trkpt>
      <trkpt lat="41.84051" lon="27.24443">
        <ele>505.2</ele>
      </trkpt>
      <trkpt lat="41.84031" lon="27.2444">
        <ele>504.8</ele>
      </trkpt>
      <trkpt lat="41.83999" lon="27.24532">
        <ele>489.7</ele>
      </trkpt>
      <trkpt lat="41.8398" lon="27.24541">
        <ele>487.7</ele>
      </trkpt>
      <trkpt lat="41.8396" lon="27.24519">
        <ele>489.5</ele>
      </trkpt>
      <trkpt lat="41.83925" lon="27.24449">
        <ele>497.2</ele>
      </trkpt>
      <trkpt lat="41.83905" lon="27.24439">
        <ele>497.7</ele>
      </trkpt>
      <trkpt lat="41.83874" lon="27.24438">
        <ele>496.8</ele>
      </trkpt>
      <trkpt lat="41.83834" lon="27.24404">
        <ele>497.9</ele>
      </trkpt>
      <trkpt lat="41.83791" lon="27.24394">
        <ele>501.2</ele>
      </trkpt>
      <trkpt lat="41.83742" lon="27.24387">
        <ele>503.8</ele>
      </trkpt>
      <trkpt lat="41.83715" lon="27.24361">
        <ele>504.3</ele>
      </trkpt>
      <trkpt lat="41.83656" lon="27.24341">
        <ele>504.1</ele>
      </trkpt>
      <trkpt lat="41.83553" lon="27.24343">
        <ele>503.7</ele>
      </trkpt>
      <trkpt lat="41.83413" lon="27.24364">
        <ele>497.8</ele>
      </trkpt>
      <trkpt lat="41.83324" lon="27.24373">
        <ele>492.6</ele>
      </trkpt>
      <trkpt lat="41.83254" lon="27.24328">
        <ele>488.8</ele>
      </trkpt>
      <trkpt lat="41.83161" lon="27.24203">
        <ele>475.2</ele>
      </trkpt>
      <trkpt lat="41.83084" lon="27.24099">
        <ele>471.4</ele>
      </trkpt>
      <trkpt lat="41.83053" lon="27.24091">
        <ele>470.3</ele>
      </trkpt>
      <trkpt lat="41.8299" lon="27.24103">
        <ele>469.5</ele>
      </trkpt>
      <trkpt lat="41.82925" lon="27.24136">
        <ele>464.2</ele>
      </trkpt>
      <trkpt lat="41.82907" lon="27.24168">
        <ele>464.2</ele>
      </trkpt>
      <trkpt lat="41.82891" lon="27.24223">
        <ele>465</ele>
      </trkpt>
      <trkpt lat="41.8285" lon="27.24248">
        <ele>464.5</ele>
      </trkpt>
      <trkpt lat="41.82802" lon="27.24245">
        <ele>465.1</ele>
      </trkpt>
      <trkpt lat="41.82761" lon="27.24207">
        <ele>464.8</ele>
      </trkpt>
      <trkpt lat="41.82689" lon="27.2413">
        <ele>464.1</ele>
      </trkpt>
      <trkpt lat="41.82569" lon="27.24108">
        <ele>468.6</ele>
      </trkpt>
      <trkpt lat="41.82504" lon="27.24105">
        <ele>469.7</ele>
      </trkpt>
      <trkpt lat="41.82428" lon="27.2412">
        <ele>466.9</ele>
      </trkpt>
      <trkpt lat="41.82309" lon="27.24155">
        <ele>460.4</ele>
      </trkpt>
      <trkpt lat="41.8215" lon="27.24236">
        <ele>447.1</ele>
      </trkpt>
      <trkpt lat="41.82046" lon="27.24254">
        <ele>446.9</ele>
      </trkpt>
      <trkpt lat="41.81946" lon="27.24266">
        <ele>445.4</ele>
      </trkpt>
      <trkpt lat="41.81833" lon="27.24228">
        <ele>438.2</ele>
      </trkpt>
      <trkpt lat="41.81798" lon="27.24235">
        <ele>436.4</ele>
      </trkpt>
      <trkpt lat="41.81684" lon="27.24313">
        <ele>430.5</ele>
      </trkpt>
      <trkpt lat="41.8162" lon="27.24315">
        <ele>426.2</ele>
      </trkpt>
      <trkpt lat="41.81508" lon="27.24273">
        <ele>419.2</ele>
      </trkpt>
      <trkpt lat="41.81388" lon="27.242">
        <ele>417.2</ele>
      </trkpt>
      <trkpt lat="41.81264" lon="27.24141">
        <ele>415.9</ele>
      </trkpt>
      <trkpt lat="41.81102" lon="27.24124">
        <ele>410.1</ele>
      </trkpt>
      <trkpt lat="41.80966" lon="27.24106">
        <ele>408.7</ele>
      </trkpt>
      <trkpt lat="41.80812" lon="27.24083">
        <ele>409.7</ele>
      </trkpt>
      <trkpt lat="41.80705" lon="27.24053">
        <ele>408.6</ele>
      </trkpt>
      <trkpt lat="41.80574" lon="27.24012">
        <ele>411.1</ele>
      </trkpt>
      <trkpt lat="41.80445" lon="27.23926">
        <ele>418.8</ele>
      </trkpt>
      <trkpt lat="41.80372" lon="27.2388">
        <ele>421.3</ele>
      </trkpt>
      <trkpt lat="41.8027" lon="27.23871">
        <ele>422.9</ele>
      </trkpt>
      <trkpt lat="41.80049" lon="27.23856">
        <ele>417.9</ele>
      </trkpt>
      <trkpt lat="41.79804" lon="27.23833">
        <ele>400.9</ele>
      </trkpt>
      <trkpt lat="41.79661" lon="27.23846">
        <ele>390.5</ele>
      </trkpt>
      <trkpt lat="41.79548" lon="27.23898">
        <ele>383.7</ele>
      </trkpt>
      <trkpt lat="41.79492" lon="27.23904">
        <ele>378.6</ele>
      </trkpt>
      <trkpt lat="41.79427" lon="27.23879">
        <ele>370.1</ele>
      </trkpt>
      <trkpt lat="41.79267" lon="27.2379">
        <ele>355.1</ele>
      </trkpt>
      <trkpt lat="41.79245" lon="27.23752">
        <ele>351.8</ele>
      </trkpt>
      <trkpt lat="41.79216" lon="27.23625">
        <ele>352.6</ele>
      </trkpt>
      <trkpt lat="41.79191" lon="27.23587">
        <ele>351.3</ele>
      </trkpt>
      <trkpt lat="41.79134" lon="27.23555">
        <ele>347.8</ele>
      </trkpt>
      <trkpt lat="41.79115" lon="27.23548">
        <ele>347</ele>
      </trkpt>
      <trkpt lat="41.79073" lon="27.23567">
        <ele>343.9</ele>
      </trkpt>
      <trkpt lat="41.79046" lon="27.2355">
        <ele>342.8</ele>
      </trkpt>
      <trkpt lat="41.78935" lon="27.23453">
        <ele>338.6</ele>
      </trkpt>
      <trkpt lat="41.78814" lon="27.23385">
        <ele>334.2</ele>
      </trkpt>
      <trkpt lat="41.78576" lon="27.23257">
        <ele>319.5</ele>
      </trkpt>
      <trkpt lat="41.78279" lon="27.23096">
        <ele>303.1</ele>
      </trkpt>
      <trkpt lat="41.78213" lon="27.23066">
        <ele>300.2</ele>
      </trkpt>
      <trkpt lat="41.78156" lon="27.23045">
        <ele>297.8</ele>
      </trkpt>
      <trkpt lat="41.78079" lon="27.22991">
        <ele>294.8</ele>
      </trkpt>
      <trkpt lat="41.77961" lon="27.22915">
        <ele>287.2</ele>
      </trkpt>
      <trkpt lat="41.77882" lon="27.22853">
        <ele>282.6</ele>
      </trkpt>
      <trkpt lat="41.77826" lon="27.22793">
        <ele>280.4</ele>
      </trkpt>
      <trkpt lat="41.77657" lon="27.22729">
        <ele>280.3</ele>
      </trkpt>
      <trkpt lat="41.77508" lon="27.22658">
        <ele>279.5</ele>
      </trkpt>
      <trkpt lat="41.77462" lon="27.22674">
        <ele>281.3</ele>
      </trkpt>
      <trkpt lat="41.77369" lon="27.22646">
        <ele>282.2</ele>
      </trkpt>
      <trkpt lat="41.77321" lon="27.22604">
        <ele>279.9</ele>
      </trkpt>
      <trkpt lat="41.77239" lon="27.2257">
        <ele>278.8</ele>
      </trkpt>
      <trkpt lat="41.77206" lon="27.22546">
        <ele>276.7</ele>
      </trkpt>
      <trkpt lat="41.77163" lon="27.22531">
        <ele>275.4</ele>
      </trkpt>
      <trkpt lat="41.77116" lon="27.22523">
        <ele>274.1</ele>
      </trkpt>
      <trkpt lat="41.76952" lon="27.22519">
        <ele>273.5</ele>
      </trkpt>
      <trkpt lat="41.76659" lon="27.22403">
        <ele>265.3</ele>
      </trkpt>
      <trkpt lat="41.76525" lon="27.22317">
        <ele>259.6</ele>
      </trkpt>
      <trkpt lat="41.76332" lon="27.22206">
        <ele>253.5</ele>
      </trkpt>
      <trkpt lat="41.7625" lon="27.22156">
        <ele>253.2</ele>
      </trkpt>
      <trkpt lat="41.76161" lon="27.22131">
        <ele>253.1</ele>
      </trkpt>
      <trkpt lat="41.76032" lon="27.22091">
        <ele>249.6</ele>
      </trkpt>
      <trkpt lat="41.75891" lon="27.21978">
        <ele>245.2</ele>
      </trkpt>
      <trkpt lat="41.75697" lon="27.21845">
        <ele>241.5</ele>
      </trkpt>
      <trkpt lat="41.75591" lon="27.21766">
        <ele>236.5</ele>
      </trkpt>
      <trkpt lat="41.75529" lon="27.21763">
        <ele>234.3</ele>
      </trkpt>
      <trkpt lat="41.75504" lon="27.2174">
        <ele>233.1</ele>
      </trkpt>
      <trkpt lat="41.75492" lon="27.21707">
        <ele>233</ele>
      </trkpt>
      <trkpt lat="41.75414" lon="27.2174">
        <ele>232.8</ele>
      </trkpt>
      <trkpt lat="41.75155" lon="27.21863">
        <ele>232.7</ele>
      </trkpt>
      <trkpt lat="41.75081" lon="27.21887">
        <ele>232.7</ele>
      </trkpt>
      <trkpt lat="41.75065" lon="27.21901">
        <ele>232.9</ele>
      </trkpt>
      <trkpt lat="41.75025" lon="27.21919">
        <ele>233.1</ele>
      </trkpt>
      <trkpt lat="41.74796" lon="27.21955">
        <ele>239.7</ele>
      </trkpt>
      <trkpt lat="41.74643" lon="27.2198">
        <ele>238.4</ele>
      </trkpt>
      <trkpt lat="41.74607" lon="27.21977">
        <ele>238.1</ele>
      </trkpt>
      <trkpt lat="41.74536" lon="27.21928">
        <ele>235.5</ele>
      </trkpt>
      <trkpt lat="41.74494" lon="27.21897">
        <ele>234.6</ele>
      </trkpt>
      <trkpt lat="41.74447" lon="27.2187">
        <ele>233.8</ele>
      </trkpt>
      <trkpt lat="41.74321" lon="27.21759">
        <ele>234.8</ele>
      </trkpt>
      <trkpt lat="41.7407" lon="27.21651">
        <ele>230.9</ele>
      </trkpt>
      <trkpt lat="41.7403" lon="27.21651">
        <ele>230.5</ele>
      </trkpt>
      <trkpt lat="41.73951" lon="27.2168">
        <ele>230.4</ele>
      </trkpt>
      <trkpt lat="41.73849" lon="27.21736">
        <ele>229</ele>
      </trkpt>
      <trkpt lat="41.73749" lon="27.21817">
        <ele>226.6</ele>
      </trkpt>
      <trkpt lat="41.73715" lon="27.21863">
        <ele>225.8</ele>
      </trkpt>
      <trkpt lat="41.7364" lon="27.22071">
        <ele>222.2</ele>
      </trkpt>
      <trkpt lat="41.7357" lon="27.22433">
        <ele>215.3</ele>
      </trkpt>
      <trkpt lat="41.73395" lon="27.22522">
        <ele>214.8</ele>
      </trkpt>
      <trkpt lat="41.73444" lon="27.22655">
        <ele>217.6</ele>
      </trkpt>
      <trkpt lat="41.73452" lon="27.22748">
        <ele>219.6</ele>
      </trkpt>
      <trkpt lat="41.73454" lon="27.22841">
        <ele>220.4</ele>
      </trkpt>
      <trkpt lat="41.73445" lon="27.22895">
        <ele>220.7</ele>
      </trkpt>
      <trkpt lat="41.73398" lon="27.23058">
        <ele>218.9</ele>
      </trkpt>
      <trkpt lat="41.73371" lon="27.23152">
        <ele>217.3</ele>
      </trkpt>
      <trkpt lat="41.73304" lon="27.2341">
        <ele>217.1</ele>
      </trkpt>
      <trkpt lat="41.73241" lon="27.23534">
        <ele>216.9</ele>
      </trkpt>
      <trkpt lat="41.73171" lon="27.23648">
        <ele>216.7</ele>
      </trkpt>
      <trkpt lat="41.73104" lon="27.23748">
        <ele>216.5</ele>
      </trkpt>
      <trkpt lat="41.73072" lon="27.23794">
        <ele>215.5</ele>
      </trkpt>
      <trkpt lat="41.73049" lon="27.23803">
        <ele>214.5</ele>
      </trkpt>
      <trkpt lat="41.73028" lon="27.23801">
        <ele>213.6</ele>
      </trkpt>
      <trkpt lat="41.73002" lon="27.2379">
        <ele>212.6</ele>
      </trkpt>
      <trkpt lat="41.72977" lon="27.23733">
        <ele>211.9</ele>
      </trkpt>
      <trkpt lat="41.7287" lon="27.23145">
        <ele>204.2</ele>
      </trkpt>
      <trkpt lat="41.72766" lon="27.2248">
        <ele>205</ele>
      </trkpt>
      <trkpt lat="41.72763" lon="27.22428">
        <ele>205.1</ele>
      </trkpt>
      <trkpt lat="41.72636" lon="27.22428">
        <ele>202.6</ele>
      </trkpt>
      <trkpt lat="41.72421" lon="27.22406">
        <ele>198.2</ele>
      </trkpt>
      <trkpt lat="41.72328" lon="27.22406">
        <ele>196.9</ele>
      </trkpt>
      <trkpt lat="41.72218" lon="27.22462">
        <ele>194</ele>
      </trkpt>
      <trkpt lat="41.72112" lon="27.22474">
        <ele>194.2</ele>
      </trkpt>
      <trkpt lat="41.72057" lon="27.22519">
        <ele>195.4</ele>
      </trkpt>
      <trkpt lat="41.71939" lon="27.2261">
        <ele>195.3</ele>
      </trkpt>
      <trkpt lat="41.71498" lon="27.2291">
        <ele>195.9</ele>
      </trkpt>
      <trkpt lat="41.71371" lon="27.23012">
        <ele>193</ele>
      </trkpt>
      <trkpt lat="41.7127" lon="27.23114">
        <ele>193.1</ele>
      </trkpt>
      <trkpt lat="41.70981" lon="27.23328">
        <ele>185.3</ele>
      </trkpt>
      <trkpt lat="41.70816" lon="27.23367">
        <ele>183.1</ele>
      </trkpt>
      <trkpt lat="41.70731" lon="27.23367">
        <ele>184</ele>
      </trkpt>
      <trkpt lat="41.70596" lon="27.23447">
        <ele>188.3</ele>
      </trkpt>
      <trkpt lat="41.70516" lon="27.23492">
        <ele>188.2</ele>
      </trkpt>
      <trkpt lat="41.70401" lon="27.23503">
        <ele>186.9</ele>
      </trkpt>
      <trkpt lat="41.70275" lon="27.23526">
        <ele>184.8</ele>
      </trkpt>
      <trkpt lat="41.70194" lon="27.23549">
        <ele>183.9</ele>
      </trkpt>
      <trkpt lat="41.70114" lon="27.236">
        <ele>181.3</ele>
      </trkpt>
      <trkpt lat="41.69913" lon="27.2369">
        <ele>180.5</ele>
      </trkpt>
      <trkpt lat="41.69731" lon="27.23735">
        <ele>176.5</ele>
      </trkpt>
      <trkpt lat="41.6952" lon="27.23758">
        <ele>168.4</ele>
      </trkpt>
      <trkpt lat="41.6941" lon="27.23746">
        <ele>167</ele>
      </trkpt>
      <trkpt lat="41.69271" lon="27.23786">
        <ele>166</ele>
      </trkpt>
      <trkpt lat="41.6895" lon="27.23901">
        <ele>165.5</ele>
      </trkpt>
      <trkpt lat="41.68747" lon="27.23947">
        <ele>156.9</ele>
      </trkpt>
      <trkpt lat="41.68573" lon="27.24014">
        <ele>152.5</ele>
      </trkpt>
      <trkpt lat="41.68334" lon="27.24133">
        <ele>150.4</ele>
      </trkpt>
      <trkpt lat="41.68224" lon="27.24145">
        <ele>149.1</ele>
      </trkpt>
      <trkpt lat="41.67986" lon="27.24124">
        <ele>148.8</ele>
      </trkpt>
      <trkpt lat="41.67767" lon="27.24039">
        <ele>146.7</ele>
      </trkpt>
      <trkpt lat="41.67462" lon="27.23937">
        <ele>145.2</ele>
      </trkpt>
      <trkpt lat="41.67259" lon="27.23926">
        <ele>145</ele>
      </trkpt>
      <trkpt lat="41.67111" lon="27.23898">
        <ele>144.1</ele>
      </trkpt>
      <trkpt lat="41.66988" lon="27.23796">
        <ele>144.3</ele>
      </trkpt>
      <trkpt lat="41.66849" lon="27.23654">
        <ele>142.5</ele>
      </trkpt>
      <trkpt lat="41.66627" lon="27.23524">
        <ele>139.7</ele>
      </trkpt>
      <trkpt lat="41.66273" lon="27.23343">
        <ele>138.7</ele>
      </trkpt>
      <trkpt lat="41.6595" lon="27.23161">
        <ele>130.3</ele>
      </trkpt>
      <trkpt lat="41.65846" lon="27.23078">
        <ele>132</ele>
      </trkpt>
      <trkpt lat="41.65909" lon="27.22813">
        <ele>139.2</ele>
      </trkpt>
      <trkpt lat="41.66044" lon="27.22116">
        <ele>159.9</ele>
      </trkpt>
      <trkpt lat="41.66044" lon="27.2199">
        <ele>161.1</ele>
      </trkpt>
      <trkpt lat="41.65981" lon="27.21558">
        <ele>160.8</ele>
      </trkpt>
      <trkpt lat="41.65898" lon="27.21056">
        <ele>161.2</ele>
      </trkpt>
      <trkpt lat="41.65836" lon="27.20429">
        <ele>163.9</ele>
      </trkpt>
      <trkpt lat="41.65825" lon="27.20317">
        <ele>164.7</ele>
      </trkpt>
      <trkpt lat="41.65638" lon="27.19955">
        <ele>167.5</ele>
      </trkpt>
      <trkpt lat="41.65492" lon="27.19648">
        <ele>169.2</ele>
      </trkpt>
      <trkpt lat="41.65169" lon="27.19355">
        <ele>172</ele>
      </trkpt>
      <trkpt lat="41.6494" lon="27.1909">
        <ele>174.2</ele>
      </trkpt>
      <trkpt lat="41.64873" lon="27.19077">
        <ele>173.1</ele>
      </trkpt>
      <trkpt lat="41.64825" lon="27.19028">
        <ele>173.3</ele>
      </trkpt>
      <trkpt lat="41.6461" lon="27.18847">
        <ele>172.4</ele>
      </trkpt>
      <trkpt lat="41.64448" lon="27.18702">
        <ele>172.7</ele>
      </trkpt>
      <trkpt lat="41.64384" lon="27.18634">
        <ele>173.2</ele>
      </trkpt>
      <trkpt lat="41.64267" lon="27.18481">
        <ele>172.4</ele>
      </trkpt>
      <trkpt lat="41.63981" lon="27.18637">
        <ele>168.4</ele>
      </trkpt>
      <trkpt lat="41.63492" lon="27.18869">
        <ele>159.6</ele>
      </trkpt>
      <trkpt lat="41.63326" lon="27.18934">
        <ele>157.5</ele>
      </trkpt>
      <trkpt lat="41.63144" lon="27.18979">
        <ele>152.6</ele>
      </trkpt>
      <trkpt lat="41.6297" lon="27.19007">
        <ele>148.3</ele>
      </trkpt>
      <trkpt lat="41.62746" lon="27.19058">
        <ele>146</ele>
      </trkpt>
      <trkpt lat="41.6267" lon="27.1907">
        <ele>146</ele>
      </trkpt>
      <trkpt lat="41.62577" lon="27.19149">
        <ele>147.2</ele>
      </trkpt>
      <trkpt lat="41.6211" lon="27.1956">
        <ele>137.2</ele>
      </trkpt>
      <trkpt lat="41.61793" lon="27.19826">
        <ele>132.7</ele>
      </trkpt>
      <trkpt lat="41.61699" lon="27.19871">
        <ele>129.2</ele>
      </trkpt>
      <trkpt lat="41.61526" lon="27.19882">
        <ele>122.9</ele>
      </trkpt>
      <trkpt lat="41.61259" lon="27.19888">
        <ele>119.8</ele>
      </trkpt>
      <trkpt lat="41.61217" lon="27.19956">
        <ele>116.3</ele>
      </trkpt>
      <trkpt lat="41.60789" lon="27.20811">
        <ele>108.1</ele>
      </trkpt>
      <trkpt lat="41.60692" lon="27.20856">
        <ele>107.4</ele>
      </trkpt>
      <trkpt lat="41.60541" lon="27.20862">
        <ele>107.3</ele>
      </trkpt>
      <trkpt lat="41.60397" lon="27.2076">
        <ele>106.8</ele>
      </trkpt>
      <trkpt lat="41.60146" lon="27.20657">
        <ele>103.8</ele>
      </trkpt>
      <trkpt lat="41.60036" lon="27.20606">
        <ele>102.7</ele>
      </trkpt>
      <trkpt lat="41.59947" lon="27.20543">
        <ele>102.8</ele>
      </trkpt>
      <trkpt lat="41.59803" lon="27.20515">
        <ele>103.8</ele>
      </trkpt>
      <trkpt lat="41.59666" lon="27.20496">
        <ele>103</ele>
      </trkpt>
      <trkpt lat="41.59441" lon="27.20451">
        <ele>104.7</ele>
      </trkpt>
      <trkpt lat="41.59255" lon="27.20293">
        <ele>104</ele>
      </trkpt>
      <trkpt lat="41.59162" lon="27.20157">
        <ele>101.1</ele>
      </trkpt>
      <trkpt lat="41.59098" lon="27.2006">
        <ele>101.3</ele>
      </trkpt>
      <trkpt lat="41.59013" lon="27.19998">
        <ele>100.8</ele>
      </trkpt>
      <trkpt lat="41.58869" lon="27.19919">
        <ele>100.2</ele>
      </trkpt>
      <trkpt lat="41.58513" lon="27.19708">
        <ele>98.7</ele>
      </trkpt>
      <trkpt lat="41.58412" lon="27.19674">
        <ele>97.6</ele>
      </trkpt>
      <trkpt lat="41.58263" lon="27.19526">
        <ele>99.4</ele>
      </trkpt>
      <trkpt lat="41.58212" lon="27.19516">
        <ele>100.5</ele>
      </trkpt>
      <trkpt lat="41.58198" lon="27.19582">
        <ele>103.2</ele>
      </trkpt>
      <trkpt lat="41.58177" lon="27.19622">
        <ele>106.4</ele>
      </trkpt>
      <trkpt lat="41.58177" lon="27.19735">
        <ele>114.1</ele>
      </trkpt>
      <trkpt lat="41.58153" lon="27.19859">
        <ele>118.9</ele>
      </trkpt>
      <trkpt lat="41.58099" lon="27.19867">
        <ele>120.6</ele>
      </trkpt>
      <trkpt lat="41.5803" lon="27.19867">
        <ele>123</ele>
      </trkpt>
      <trkpt lat="41.57991" lon="27.19863">
        <ele>124.7</ele>
      </trkpt>
      <trkpt lat="41.5794" lon="27.19891">
        <ele>127</ele>
      </trkpt>
      <trkpt lat="41.57887" lon="27.19927">
        <ele>129.2</ele>
      </trkpt>
      <trkpt lat="41.57857" lon="27.19935">
        <ele>130.3</ele>
      </trkpt>
      <trkpt lat="41.57857" lon="27.19979">
        <ele>130.6</ele>
      </trkpt>
      <trkpt lat="41.5789" lon="27.20039">
        <ele>131.3</ele>
      </trkpt>
      <trkpt lat="41.5789" lon="27.20107">
        <ele>134</ele>
      </trkpt>
      <trkpt lat="41.57878" lon="27.20315">
        <ele>144</ele>
      </trkpt>
      <trkpt lat="41.57878" lon="27.20395">
        <ele>147.1</ele>
      </trkpt>
      <trkpt lat="41.57818" lon="27.20423">
        <ele>147.9</ele>
      </trkpt>
      <trkpt lat="41.57669" lon="27.20432">
        <ele>150.2</ele>
      </trkpt>
      <trkpt lat="41.57564" lon="27.20408">
        <ele>152.8</ele>
      </trkpt>
      <trkpt lat="41.57519" lon="27.20428">
        <ele>155</ele>
      </trkpt>
      <trkpt lat="41.57527" lon="27.20577">
        <ele>154.9</ele>
      </trkpt>
      <trkpt lat="41.57488" lon="27.20689">
        <ele>157.6</ele>
      </trkpt>
      <trkpt lat="41.57443" lon="27.20849">
        <ele>157.2</ele>
      </trkpt>
      <trkpt lat="41.57413" lon="27.21045">
        <ele>155</ele>
      </trkpt>
      <trkpt lat="41.57401" lon="27.21205">
        <ele>153.7</ele>
      </trkpt>
      <trkpt lat="41.57407" lon="27.21337">
        <ele>151.9</ele>
      </trkpt>
      <trkpt lat="41.57497" lon="27.21445">
        <ele>149.6</ele>
      </trkpt>
      <trkpt lat="41.57524" lon="27.21473">
        <ele>148.2</ele>
      </trkpt>
      <trkpt lat="41.575" lon="27.21534">
        <ele>146.2</ele>
      </trkpt>
      <trkpt lat="41.57446" lon="27.21554">
        <ele>145.7</ele>
      </trkpt>
      <trkpt lat="41.57399" lon="27.21593">
        <ele>145.3</ele>
      </trkpt>
      <trkpt lat="41.57401" lon="27.21681">
        <ele>148.3</ele>
      </trkpt>
      <trkpt lat="41.57387" lon="27.21813">
        <ele>149.2</ele>
      </trkpt>
      <trkpt lat="41.57366" lon="27.21881">
        <ele>146.2</ele>
      </trkpt>
      <trkpt lat="41.57369" lon="27.21989">
        <ele>142.2</ele>
      </trkpt>
      <trkpt lat="41.57366" lon="27.22018">
        <ele>141.1</ele>
      </trkpt>
      <trkpt lat="41.57339" lon="27.22034">
        <ele>139.9</ele>
      </trkpt>
      <trkpt lat="41.57327" lon="27.22102">
        <ele>138.2</ele>
      </trkpt>
      <trkpt lat="41.57322" lon="27.22191">
        <ele>139.7</ele>
      </trkpt>
      <trkpt lat="41.57271" lon="27.22243">
        <ele>142.2</ele>
      </trkpt>
      <trkpt lat="41.57196" lon="27.22263">
        <ele>144.5</ele>
      </trkpt>
      <trkpt lat="41.5714" lon="27.22279">
        <ele>145.3</ele>
      </trkpt>
      <trkpt lat="41.57044" lon="27.22283">
        <ele>145.9</ele>
      </trkpt>
      <trkpt lat="41.56957" lon="27.22299">
        <ele>147.7</ele>
      </trkpt>
      <trkpt lat="41.56891" lon="27.22319">
        <ele>149.3</ele>
      </trkpt>
      <trkpt lat="41.56813" lon="27.22375">
        <ele>150.1</ele>
      </trkpt>
      <trkpt lat="41.56711" lon="27.22443">
        <ele>151.5</ele>
      </trkpt>
      <trkpt lat="41.56642" lon="27.22487">
        <ele>153</ele>
      </trkpt>
      <trkpt lat="41.5657" lon="27.22515">
        <ele>154.3</ele>
      </trkpt>
      <trkpt lat="41.56452" lon="27.22529">
        <ele>153.8</ele>
      </trkpt>
      <trkpt lat="41.56153" lon="27.22577">
        <ele>147.8</ele>
      </trkpt>
      <trkpt lat="41.5609" lon="27.22613">
        <ele>145.1</ele>
      </trkpt>
      <trkpt lat="41.55938" lon="27.22757">
        <ele>138.3</ele>
      </trkpt>
      <trkpt lat="41.55895" lon="27.22788">
        <ele>138.8</ele>
      </trkpt>
      <trkpt lat="41.55797" lon="27.22767">
        <ele>139.8</ele>
      </trkpt>
      <trkpt lat="41.55387" lon="27.2267">
        <ele>139.8</ele>
      </trkpt>
      <trkpt lat="41.55058" lon="27.22535">
        <ele>140.6</ele>
      </trkpt>
      <trkpt lat="41.54605" lon="27.22365">
        <ele>143.6</ele>
      </trkpt>
      <trkpt lat="41.54156" lon="27.22188">
        <ele>145.4</ele>
      </trkpt>
      <trkpt lat="41.53756" lon="27.22037">
        <ele>149</ele>
      </trkpt>
      <trkpt lat="41.53412" lon="27.21932">
        <ele>145.4</ele>
      </trkpt>
      <trkpt lat="41.52988" lon="27.21961">
        <ele>142.4</ele>
      </trkpt>
      <trkpt lat="41.52811" lon="27.21971">
        <ele>140.6</ele>
      </trkpt>
      <trkpt lat="41.52668" lon="27.21913">
        <ele>141</ele>
      </trkpt>
      <trkpt lat="41.52371" lon="27.21764">
        <ele>139.5</ele>
      </trkpt>
      <trkpt lat="41.52035" lon="27.21594">
        <ele>136.7</ele>
      </trkpt>
      <trkpt lat="41.51868" lon="27.21561">
        <ele>136.5</ele>
      </trkpt>
      <trkpt lat="41.51268" lon="27.21437">
        <ele>132.7</ele>
      </trkpt>
      <trkpt lat="41.50695" lon="27.21324">
        <ele>128.9</ele>
      </trkpt>
      <trkpt lat="41.50598" lon="27.21027">
        <ele>127.5</ele>
      </trkpt>
      <trkpt lat="41.50513" lon="27.20857">
        <ele>132.9</ele>
      </trkpt>
      <trkpt lat="41.50454" lon="27.20727">
        <ele>136.9</ele>
      </trkpt>
      <trkpt lat="41.5035" lon="27.2043">
        <ele>136.9</ele>
      </trkpt>
      <trkpt lat="41.50241" lon="27.20124">
        <ele>141.5</ele>
      </trkpt>
      <trkpt lat="41.50208" lon="27.20076">
        <ele>141.6</ele>
      </trkpt>
      <trkpt lat="41.50053" lon="27.20014">
        <ele>140.9</ele>
      </trkpt>
      <trkpt lat="41.49612" lon="27.19852">
        <ele>133.7</ele>
      </trkpt>
      <trkpt lat="41.49281" lon="27.19731">
        <ele>137.7</ele>
      </trkpt>
      <trkpt lat="41.48983" lon="27.19621">
        <ele>137.3</ele>
      </trkpt>
      <trkpt lat="41.48682" lon="27.19479">
        <ele>135.7</ele>
      </trkpt>
      <trkpt lat="41.48373" lon="27.19337">
        <ele>133.4</ele>
      </trkpt>
      <trkpt lat="41.47914" lon="27.19112">
        <ele>133</ele>
      </trkpt>
      <trkpt lat="41.47649" lon="27.18872">
        <ele>129.6</ele>
      </trkpt>
      <trkpt lat="41.47399" lon="27.18703">
        <ele>127.5</ele>
      </trkpt>
      <trkpt lat="41.47304" lon="27.1864">
        <ele>125.9</ele>
      </trkpt>
      <trkpt lat="41.47175" lon="27.18598">
        <ele>126.7</ele>
      </trkpt>
      <trkpt lat="41.47043" lon="27.18536">
        <ele>127.3</ele>
      </trkpt>
      <trkpt lat="41.4692" lon="27.18462">
        <ele>125.6</ele>
      </trkpt>
      <trkpt lat="41.4671" lon="27.18281">
        <ele>123</ele>
      </trkpt>
      <trkpt lat="41.46477" lon="27.18095">
        <ele>113.7</ele>
      </trkpt>
      <trkpt lat="41.4625" lon="27.1793">
        <ele>111.1</ele>
      </trkpt>
      <trkpt lat="41.46091" lon="27.17848">
        <ele>106.4</ele>
      </trkpt>
      <trkpt lat="41.45868" lon="27.17735">
        <ele>103.9</ele>
      </trkpt>
      <trkpt lat="41.45721" lon="27.17666">
        <ele>99.6</ele>
      </trkpt>
      <trkpt lat="41.45498" lon="27.17471">
        <ele>92.6</ele>
      </trkpt>
      <trkpt lat="41.45229" lon="27.17185">
        <ele>87.9</ele>
      </trkpt>
      <trkpt lat="41.45116" lon="27.1706">
        <ele>86.7</ele>
      </trkpt>
      <trkpt lat="41.44934" lon="27.16924">
        <ele>87</ele>
      </trkpt>
      <trkpt lat="41.44798" lon="27.16808">
        <ele>85.5</ele>
      </trkpt>
      <trkpt lat="41.44677" lon="27.16658">
        <ele>84.8</ele>
      </trkpt>
      <trkpt lat="41.44578" lon="27.16531">
        <ele>81</ele>
      </trkpt>
      <trkpt lat="41.44539" lon="27.16494">
        <ele>81.4</ele>
      </trkpt>
      <trkpt lat="41.44461" lon="27.16466">
        <ele>81</ele>
      </trkpt>
      <trkpt lat="41.44431" lon="27.16423">
        <ele>80.9</ele>
      </trkpt>
      <trkpt lat="41.44402" lon="27.16342">
        <ele>81.5</ele>
      </trkpt>
      <trkpt lat="41.4437" lon="27.16271">
        <ele>79.8</ele>
      </trkpt>
      <trkpt lat="41.44315" lon="27.16204">
        <ele>78.8</ele>
      </trkpt>
      <trkpt lat="41.4415" lon="27.15957">
        <ele>75</ele>
      </trkpt>
      <trkpt lat="41.44129" lon="27.15895">
        <ele>75</ele>
      </trkpt>
      <trkpt lat="41.44017" lon="27.15782">
        <ele>73.7</ele>
      </trkpt>
      <trkpt lat="41.43801" lon="27.15591">
        <ele>71.2</ele>
      </trkpt>
      <trkpt lat="41.43455" lon="27.15294">
        <ele>62.7</ele>
      </trkpt>
      <trkpt lat="41.43405" lon="27.15242">
        <ele>63.7</ele>
      </trkpt>
      <trkpt lat="41.43193" lon="27.14928">
        <ele>53.2</ele>
      </trkpt>
      <trkpt lat="41.43025" lon="27.14769">
        <ele>48.9</ele>
      </trkpt>
      <trkpt lat="41.42996" lon="27.14703">
        <ele>49</ele>
      </trkpt>
      <trkpt lat="41.42824" lon="27.14578">
        <ele>48.1</ele>
      </trkpt>
      <trkpt lat="41.42762" lon="27.14536">
        <ele>48.7</ele>
      </trkpt>
      <trkpt lat="41.42682" lon="27.14504">
        <ele>48.1</ele>
      </trkpt>
      <trkpt lat="41.42239" lon="27.14389">
        <ele>46.4</ele>
      </trkpt>
      <trkpt lat="41.42195" lon="27.14499">
        <ele>47.3</ele>
      </trkpt>
      <trkpt lat="41.42116" lon="27.14506">
        <ele>48.1</ele>
      </trkpt>
      <trkpt lat="41.41883" lon="27.14449">
        <ele>47.8</ele>
      </trkpt>
      <trkpt lat="41.41798" lon="27.14466">
        <ele>48.9</ele>
      </trkpt>
      <trkpt lat="41.41573" lon="27.14636">
        <ele>61.1</ele>
      </trkpt>
      <trkpt lat="41.41471" lon="27.14946">
        <ele>71.6</ele>
      </trkpt>
      <trkpt lat="41.41374" lon="27.15144">
        <ele>77.4</ele>
      </trkpt>
      <trkpt lat="41.4103" lon="27.15858">
        <ele>72.5</ele>
      </trkpt>
      <trkpt lat="41.40322" lon="27.15914">
        <ele>56.4</ele>
      </trkpt>
      <trkpt lat="41.39831" lon="27.15939">
        <ele>47.6</ele>
      </trkpt>
      <trkpt lat="41.39665" lon="27.15997">
        <ele>44.9</ele>
      </trkpt>
      <trkpt lat="41.3946" lon="27.16023">
        <ele>44</ele>
      </trkpt>
      <trkpt lat="41.39402" lon="27.16017">
        <ele>44.2</ele>
      </trkpt>
      <trkpt lat="41.37594" lon="27.14854">
        <ele>39.2</ele>
      </trkpt>
      <trkpt lat="41.36673" lon="27.14254">
        <ele>38.2</ele>
      </trkpt>
      <trkpt lat="41.36715" lon="27.13864">
        <ele>32.6</ele>
      </trkpt>
      <trkpt lat="41.36725" lon="27.13711">
        <ele>37.7</ele>
      </trkpt>
      <trkpt lat="41.36641" lon="27.13585">
        <ele>39.2</ele>
      </trkpt>
      <trkpt lat="41.36401" lon="27.13543">
        <ele>30.6</ele>
      </trkpt>
      <trkpt lat="41.36223" lon="27.13599">
        <ele>31.3</ele>
      </trkpt>
      <trkpt lat="41.35607" lon="27.14126">
        <ele>34.1</ele>
      </trkpt>
      <trkpt lat="41.35241" lon="27.14363">
        <ele>44.7</ele>
      </trkpt>
      <trkpt lat="41.34736" lon="27.14185">
        <ele>52</ele>
      </trkpt>
      <trkpt lat="41.34793" lon="27.14293">
        <ele>51.2</ele>
      </trkpt>
      <trkpt lat="41.34896" lon="27.14575">
        <ele>50.2</ele>
      </trkpt>
      <trkpt lat="41.34945" lon="27.14807">
        <ele>42.2</ele>
      </trkpt>
      <trkpt lat="41.34969" lon="27.14895">
        <ele>36.6</ele>
      </trkpt>
      <trkpt lat="41.34963" lon="27.14968">
        <ele>36</ele>
      </trkpt>
      <trkpt lat="41.3489" lon="27.14988">
        <ele>38.7</ele>
      </trkpt>
      <trkpt lat="41.34836" lon="27.14988">
        <ele>40.5</ele>
      </trkpt>
      <trkpt lat="41.348" lon="27.15008">
        <ele>40.5</ele>
      </trkpt>
      <trkpt lat="41.34767" lon="27.15024">
        <ele>40.3</ele>
      </trkpt>
      <trkpt lat="41.34713" lon="27.14964">
        <ele>40.4</ele>
      </trkpt>
      <trkpt lat="41.34656" lon="27.14992">
        <ele>45.3</ele>
      </trkpt>
      <trkpt lat="41.34638" lon="27.15132">
        <ele>46.5</ele>
      </trkpt>
      <trkpt lat="41.34626" lon="27.15352">
        <ele>45.9</ele>
      </trkpt>
      <trkpt lat="41.34539" lon="27.15428">
        <ele>46.3</ele>
      </trkpt>
      <trkpt lat="41.34412" lon="27.15496">
        <ele>46.2</ele>
      </trkpt>
      <trkpt lat="41.34388" lon="27.15536">
        <ele>47</ele>
      </trkpt>
      <trkpt lat="41.34382" lon="27.1564">
        <ele>47.7</ele>
      </trkpt>
      <trkpt lat="41.34306" lon="27.1583">
        <ele>41.1</ele>
      </trkpt>
      <trkpt lat="41.34204" lon="27.15954">
        <ele>39.3</ele>
      </trkpt>
      <trkpt lat="41.3409" lon="27.16115">
        <ele>35.6</ele>
      </trkpt>
      <trkpt lat="41.34014" lon="27.16218">
        <ele>34.2</ele>
      </trkpt>
      <trkpt lat="41.33852" lon="27.16278">
        <ele>37.2</ele>
      </trkpt>
      <trkpt lat="41.33737" lon="27.16368">
        <ele>37.2</ele>
      </trkpt>
      <trkpt lat="41.33443" lon="27.1666">
        <ele>36.6</ele>
      </trkpt>
      <trkpt lat="41.33368" lon="27.16712">
        <ele>38.5</ele>
      </trkpt>
      <trkpt lat="41.33242" lon="27.16956">
        <ele>39</ele>
      </trkpt>
      <trkpt lat="41.33161" lon="27.17128">
        <ele>37.9</ele>
      </trkpt>
      <trkpt lat="41.33049" lon="27.17264">
        <ele>37.3</ele>
      </trkpt>
      <trkpt lat="41.32968" lon="27.17344">
        <ele>36.7</ele>
      </trkpt>
      <trkpt lat="41.32957" lon="27.17387">
        <ele>36.7</ele>
      </trkpt>
      <trkpt lat="41.3299" lon="27.17687">
        <ele>34</ele>
      </trkpt>
      <trkpt lat="41.33002" lon="27.17811">
        <ele>33</ele>
      </trkpt>
      <trkpt lat="41.32984" lon="27.18019">
        <ele>35.3</ele>
      </trkpt>
      <trkpt lat="41.32993" lon="27.1808">
        <ele>35.8</ele>
      </trkpt>
      <trkpt lat="41.33054" lon="27.18204">
        <ele>35.6</ele>
      </trkpt>
      <trkpt lat="41.32984" lon="27.18332">
        <ele>34.2</ele>
      </trkpt>
      <trkpt lat="41.32829" lon="27.18598">
        <ele>35.7</ele>
      </trkpt>
      <trkpt lat="41.32512" lon="27.18973">
        <ele>35.1</ele>
      </trkpt>
      <trkpt lat="41.32107" lon="27.19477">
        <ele>39.2</ele>
      </trkpt>
      <trkpt lat="41.32002" lon="27.19509">
        <ele>43.8</ele>
      </trkpt>
      <trkpt lat="41.31963" lon="27.19545">
        <ele>42.6</ele>
      </trkpt>
      <trkpt lat="41.3193" lon="27.19685">
        <ele>42.3</ele>
      </trkpt>
      <trkpt lat="41.31872" lon="27.19848">
        <ele>43.6</ele>
      </trkpt>
      <trkpt lat="41.31829" lon="27.1994">
        <ele>45</ele>
      </trkpt>
      <trkpt lat="41.31784" lon="27.20164">
        <ele>45</ele>
      </trkpt>
      <trkpt lat="41.31638" lon="27.20721">
        <ele>53.2</ele>
      </trkpt>
      <trkpt lat="41.31527" lon="27.21121">
        <ele>55.7</ele>
      </trkpt>
      <trkpt lat="41.31335" lon="27.21638">
        <ele>55.7</ele>
      </trkpt>
      <trkpt lat="41.31019" lon="27.22329">
        <ele>58</ele>
      </trkpt>
      <trkpt lat="41.30752" lon="27.2298">
        <ele>61.5</ele>
      </trkpt>
      <trkpt lat="41.307" lon="27.23072">
        <ele>62.9</ele>
      </trkpt>
      <trkpt lat="41.30628" lon="27.23105">
        <ele>64.1</ele>
      </trkpt>
      <trkpt lat="41.30557" lon="27.23143">
        <ele>65.3</ele>
      </trkpt>
      <trkpt lat="41.30521" lon="27.23202">
        <ele>65.9</ele>
      </trkpt>
      <trkpt lat="41.30474" lon="27.23261">
        <ele>66.5</ele>
      </trkpt>
      <trkpt lat="41.30338" lon="27.23393">
        <ele>69.9</ele>
      </trkpt>
      <trkpt lat="41.30231" lon="27.23483">
        <ele>68.3</ele>
      </trkpt>
      <trkpt lat="41.30165" lon="27.23512">
        <ele>67</ele>
      </trkpt>
      <trkpt lat="41.30082" lon="27.23543">
        <ele>66</ele>
      </trkpt>
      <trkpt lat="41.29932" lon="27.23607">
        <ele>68.1</ele>
      </trkpt>
      <trkpt lat="41.29496" lon="27.23681">
        <ele>66.1</ele>
      </trkpt>
      <trkpt lat="41.28891" lon="27.23795">
        <ele>66.2</ele>
      </trkpt>
      <trkpt lat="41.28296" lon="27.23911">
        <ele>62</ele>
      </trkpt>
      <trkpt lat="41.28074" lon="27.23947">
        <ele>63.4</ele>
      </trkpt>
      <trkpt lat="41.27854" lon="27.23926">
        <ele>62.5</ele>
      </trkpt>
      <trkpt lat="41.27532" lon="27.23906">
        <ele>63.8</ele>
      </trkpt>
      <trkpt lat="41.2707" lon="27.2387">
        <ele>65.1</ele>
      </trkpt>
      <trkpt lat="41.26927" lon="27.23853">
        <ele>66.6</ele>
      </trkpt>
      <trkpt lat="41.26855" lon="27.23807">
        <ele>66.9</ele>
      </trkpt>
      <trkpt lat="41.26772" lon="27.23734">
        <ele>66.9</ele>
      </trkpt>
      <trkpt lat="41.26699" lon="27.23669">
        <ele>64.8</ele>
      </trkpt>
      <trkpt lat="41.26573" lon="27.2359">
        <ele>61.3</ele>
      </trkpt>
      <trkpt lat="41.26521" lon="27.23545">
        <ele>59.9</ele>
      </trkpt>
      <trkpt lat="41.26518" lon="27.23501">
        <ele>60.8</ele>
      </trkpt>
      <trkpt lat="41.26436" lon="27.23555">
        <ele>56.6</ele>
      </trkpt>
      <trkpt lat="41.26358" lon="27.23634">
        <ele>53.7</ele>
      </trkpt>
      <trkpt lat="41.26295" lon="27.23683">
        <ele>56.1</ele>
      </trkpt>
      <trkpt lat="41.26247" lon="27.23772">
        <ele>60.8</ele>
      </trkpt>
      <trkpt lat="41.26218" lon="27.23813">
        <ele>62.4</ele>
      </trkpt>
      <trkpt lat="41.26189" lon="27.23839">
        <ele>63.2</ele>
      </trkpt>
      <trkpt lat="41.26155" lon="27.23809">
        <ele>63</ele>
      </trkpt>
      <trkpt lat="41.26126" lon="27.23776">
        <ele>63.3</ele>
      </trkpt>
      <trkpt lat="41.26072" lon="27.23785">
        <ele>64.6</ele>
      </trkpt>
      <trkpt lat="41.25994" lon="27.23834">
        <ele>66</ele>
      </trkpt>
      <trkpt lat="41.2594" lon="27.23882">
        <ele>66.3</ele>
      </trkpt>
      <trkpt lat="41.2587" lon="27.23961">
        <ele>65.5</ele>
      </trkpt>
      <trkpt lat="41.2574" lon="27.24061">
        <ele>67.4</ele>
      </trkpt>
      <trkpt lat="41.25579" lon="27.24186">
        <ele>68.7</ele>
      </trkpt>
      <trkpt lat="41.25499" lon="27.24228">
        <ele>66.3</ele>
      </trkpt>
      <trkpt lat="41.25308" lon="27.24278">
        <ele>64.8</ele>
      </trkpt>
      <trkpt lat="41.24891" lon="27.24384">
        <ele>54.8</ele>
      </trkpt>
      <trkpt lat="41.24669" lon="27.24442">
        <ele>53.3</ele>
      </trkpt>
      <trkpt lat="41.24559" lon="27.24489">
        <ele>54</ele>
      </trkpt>
      <trkpt lat="41.24464" lon="27.24539">
        <ele>55.5</ele>
      </trkpt>
      <trkpt lat="41.24429" lon="27.24561">
        <ele>57.2</ele>
      </trkpt>
      <trkpt lat="41.24327" lon="27.2468">
        <ele>66.1</ele>
      </trkpt>
      <trkpt lat="41.24195" lon="27.24783">
        <ele>72.3</ele>
      </trkpt>
      <trkpt lat="41.24081" lon="27.24814">
        <ele>70.6</ele>
      </trkpt>
      <trkpt lat="41.23774" lon="27.24862">
        <ele>72</ele>
      </trkpt>
      <trkpt lat="41.23336" lon="27.24928">
        <ele>73.3</ele>
      </trkpt>
      <trkpt lat="41.22958" lon="27.2499">
        <ele>79.3</ele>
      </trkpt>
      <trkpt lat="41.22872" lon="27.24956">
        <ele>78.7</ele>
      </trkpt>
      <trkpt lat="41.22686" lon="27.24774">
        <ele>77.2</ele>
      </trkpt>
      <trkpt lat="41.22673" lon="27.24777">
        <ele>77.1</ele>
      </trkpt>
      <trkpt lat="41.22677" lon="27.24722">
        <ele>76.8</ele>
      </trkpt>
      <trkpt lat="41.22657" lon="27.24689">
        <ele>76.2</ele>
      </trkpt>
      <trkpt lat="41.22632" lon="27.24665">
        <ele>76</ele>
      </trkpt>
      <trkpt lat="41.22581" lon="27.24598">
        <ele>74.4</ele>
      </trkpt>
      <trkpt lat="41.22528" lon="27.24525">
        <ele>74.8</ele>
      </trkpt>
      <trkpt lat="41.22468" lon="27.245">
        <ele>75.8</ele>
      </trkpt>
      <trkpt lat="41.22431" lon="27.24383">
        <ele>75.1</ele>
      </trkpt>
      <trkpt lat="41.22377" lon="27.2427">
        <ele>75</ele>
      </trkpt>
      <trkpt lat="41.22292" lon="27.24188">
        <ele>75.9</ele>
      </trkpt>
      <trkpt lat="41.22235" lon="27.24164">
        <ele>75.7</ele>
      </trkpt>
      <trkpt lat="41.22183" lon="27.24124">
        <ele>74.9</ele>
      </trkpt>
      <trkpt lat="41.22099" lon="27.23971">
        <ele>71.3</ele>
      </trkpt>
      <trkpt lat="41.22015" lon="27.23789">
        <ele>68.3</ele>
      </trkpt>
      <trkpt lat="41.21905" lon="27.23587">
        <ele>64.1</ele>
      </trkpt>
      <trkpt lat="41.21853" lon="27.23378">
        <ele>62.9</ele>
      </trkpt>
      <trkpt lat="41.21806" lon="27.23141">
        <ele>63.3</ele>
      </trkpt>
      <trkpt lat="41.21774" lon="27.22939">
        <ele>64.6</ele>
      </trkpt>
      <trkpt lat="41.2174" lon="27.22622">
        <ele>62.3</ele>
      </trkpt>
      <trkpt lat="41.21745" lon="27.22288">
        <ele>57.5</ele>
      </trkpt>
      <trkpt lat="41.21745" lon="27.21946">
        <ele>53.8</ele>
      </trkpt>
      <trkpt lat="41.21797" lon="27.21479">
        <ele>52.1</ele>
      </trkpt>
      <trkpt lat="41.21839" lon="27.21235">
        <ele>52.8</ele>
      </trkpt>
      <trkpt lat="41.21813" lon="27.20893">
        <ele>51.7</ele>
      </trkpt>
      <trkpt lat="41.21782" lon="27.20552">
        <ele>50.8</ele>
      </trkpt>
      <trkpt lat="41.21733" lon="27.20227">
        <ele>52.6</ele>
      </trkpt>
      <trkpt lat="41.2166" lon="27.20144">
        <ele>54.9</ele>
      </trkpt>
      <trkpt lat="41.21595" lon="27.20144">
        <ele>55.7</ele>
      </trkpt>
      <trkpt lat="41.21412" lon="27.20005">
        <ele>54.9</ele>
      </trkpt>
      <trkpt lat="41.2126" lon="27.19879">
        <ele>57.1</ele>
      </trkpt>
      <trkpt lat="41.21139" lon="27.19872">
        <ele>56.4</ele>
      </trkpt>
      <trkpt lat="41.20824" lon="27.1975">
        <ele>54.9</ele>
      </trkpt>
      <trkpt lat="41.2051" lon="27.19562">
        <ele>54.8</ele>
      </trkpt>
      <trkpt lat="41.2031" lon="27.19499">
        <ele>56.7</ele>
      </trkpt>
      <trkpt lat="41.20143" lon="27.19423">
        <ele>57</ele>
      </trkpt>
      <trkpt lat="41.19959" lon="27.19311">
        <ele>60.2</ele>
      </trkpt>
      <trkpt lat="41.19781" lon="27.19485">
        <ele>57.4</ele>
      </trkpt>
      <trkpt lat="41.19606" lon="27.19096">
        <ele>74.8</ele>
      </trkpt>
      <trkpt lat="41.19317" lon="27.18664">
        <ele>106.1</ele>
      </trkpt>
      <trkpt lat="41.19055" lon="27.18329">
        <ele>123.3</ele>
      </trkpt>
      <trkpt lat="41.18986" lon="27.18182">
        <ele>127.5</ele>
      </trkpt>
      <trkpt lat="41.19002" lon="27.18064">
        <ele>132.6</ele>
      </trkpt>
      <trkpt lat="41.1906" lon="27.17938">
        <ele>134.5</ele>
      </trkpt>
      <trkpt lat="41.1895" lon="27.17911">
        <ele>134.7</ele>
      </trkpt>
      <trkpt lat="41.18776" lon="27.17886">
        <ele>134.6</ele>
      </trkpt>
      <trkpt lat="41.18304" lon="27.1797">
        <ele>133.8</ele>
      </trkpt>
      <trkpt lat="41.17689" lon="27.18128">
        <ele>136.2</ele>
      </trkpt>
      <trkpt lat="41.17129" lon="27.18242">
        <ele>143.8</ele>
      </trkpt>
      <trkpt lat="41.1655" lon="27.18225">
        <ele>141.1</ele>
      </trkpt>
      <trkpt lat="41.16414" lon="27.18239">
        <ele>142</ele>
      </trkpt>
      <trkpt lat="41.1591" lon="27.18004">
        <ele>141.4</ele>
      </trkpt>
      <trkpt lat="41.15614" lon="27.17928">
        <ele>145.5</ele>
      </trkpt>
      <trkpt lat="41.15252" lon="27.17921">
        <ele>148</ele>
      </trkpt>
      <trkpt lat="41.15" lon="27.17886">
        <ele>143.3</ele>
      </trkpt>
      <trkpt lat="41.14517" lon="27.17719">
        <ele>147.3</ele>
      </trkpt>
      <trkpt lat="41.14247" lon="27.17637">
        <ele>149</ele>
      </trkpt>
      <trkpt lat="41.13838" lon="27.17489">
        <ele>140.6</ele>
      </trkpt>
      <trkpt lat="41.13584" lon="27.17703">
        <ele>150.4</ele>
      </trkpt>
      <trkpt lat="41.13005" lon="27.18068">
        <ele>163.3</ele>
      </trkpt>
      <trkpt lat="41.12771" lon="27.18171">
        <ele>158.8</ele>
      </trkpt>
      <trkpt lat="41.1194" lon="27.18365">
        <ele>156.4</ele>
      </trkpt>
      <trkpt lat="41.1133" lon="27.18216">
        <ele>164.1</ele>
      </trkpt>
      <trkpt lat="41.10969" lon="27.18124">
        <ele>168.7</ele>
      </trkpt>
      <trkpt lat="41.10782" lon="27.1806">
        <ele>169.2</ele>
      </trkpt>
      <trkpt lat="41.10463" lon="27.17922">
        <ele>171.5</ele>
      </trkpt>
      <trkpt lat="41.10255" lon="27.17811">
        <ele>176.2</ele>
      </trkpt>
      <trkpt lat="41.09895" lon="27.17508">
        <ele>165.3</ele>
      </trkpt>
      <trkpt lat="41.09472" lon="27.17177">
        <ele>153.7</ele>
      </trkpt>
      <trkpt lat="41.09343" lon="27.17195">
        <ele>153.3</ele>
      </trkpt>
      <trkpt lat="41.09163" lon="27.17314">
        <ele>135.1</ele>
      </trkpt>
      <trkpt lat="41.08976" lon="27.17434">
        <ele>118.7</ele>
      </trkpt>
      <trkpt lat="41.08651" lon="27.18059">
        <ele>156.1</ele>
      </trkpt>
      <trkpt lat="41.08048" lon="27.18983">
        <ele>175.2</ele>
      </trkpt>
      <trkpt lat="41.07882" lon="27.19204">
        <ele>182.2</ele>
      </trkpt>
      <trkpt lat="41.0769" lon="27.19195">
        <ele>177.5</ele>
      </trkpt>
      <trkpt lat="41.07516" lon="27.19158">
        <ele>170</ele>
      </trkpt>
      <trkpt lat="41.07336" lon="27.19158">
        <ele>153</ele>
      </trkpt>
      <trkpt lat="41.07197" lon="27.1914">
        <ele>143.7</ele>
      </trkpt>
      <trkpt lat="41.07079" lon="27.19076">
        <ele>134</ele>
      </trkpt>
      <trkpt lat="41.06962" lon="27.1914">
        <ele>127.6</ele>
      </trkpt>
      <trkpt lat="41.06775" lon="27.19053">
        <ele>138.2</ele>
      </trkpt>
      <trkpt lat="41.06683" lon="27.19025">
        <ele>147.5</ele>
      </trkpt>
      <trkpt lat="41.06634" lon="27.19023">
        <ele>150.9</ele>
      </trkpt>
      <trkpt lat="41.06525" lon="27.18957">
        <ele>161.2</ele>
      </trkpt>
      <trkpt lat="41.06395" lon="27.18892">
        <ele>177.2</ele>
      </trkpt>
      <trkpt lat="41.06278" lon="27.18873">
        <ele>185.9</ele>
      </trkpt>
      <trkpt lat="41.06163" lon="27.18929">
        <ele>190.3</ele>
      </trkpt>
      <trkpt lat="41.06105" lon="27.18972">
        <ele>193.1</ele>
      </trkpt>
      <trkpt lat="41.06017" lon="27.19173">
        <ele>195</ele>
      </trkpt>
      <trkpt lat="41.05763" lon="27.19792">
        <ele>201.3</ele>
      </trkpt>
      <trkpt lat="41.05715" lon="27.19866">
        <ele>201.2</ele>
      </trkpt>
      <trkpt lat="41.05381" lon="27.20251">
        <ele>208.6</ele>
      </trkpt>
      <trkpt lat="41.04777" lon="27.20953">
        <ele>222.9</ele>
      </trkpt>
      <trkpt lat="41.0432" lon="27.21478">
        <ele>230.2</ele>
      </trkpt>
      <trkpt lat="41.04404" lon="27.21902">
        <ele>234.4</ele>
      </trkpt>
      <trkpt lat="41.04419" lon="27.2207">
        <ele>234.2</ele>
      </trkpt>
      <trkpt lat="41.04341" lon="27.22272">
        <ele>232.5</ele>
      </trkpt>
      <trkpt lat="41.04095" lon="27.22835">
        <ele>234.7</ele>
      </trkpt>
      <trkpt lat="41.0356" lon="27.24072">
        <ele>237.2</ele>
      </trkpt>
      <trkpt lat="41.03497" lon="27.24165">
        <ele>235.9</ele>
      </trkpt>
      <trkpt lat="41.03434" lon="27.24165">
        <ele>232</ele>
      </trkpt>
      <trkpt lat="41.03334" lon="27.24072">
        <ele>225.2</ele>
      </trkpt>
      <trkpt lat="41.03177" lon="27.24072">
        <ele>218.4</ele>
      </trkpt>
      <trkpt lat="41.02612" lon="27.24">
        <ele>208.3</ele>
      </trkpt>
      <trkpt lat="41.02515" lon="27.24024">
        <ele>203.4</ele>
      </trkpt>
      <trkpt lat="41.02521" lon="27.23829">
        <ele>203.1</ele>
      </trkpt>
      <trkpt lat="41.02398" lon="27.23518">
        <ele>193.6</ele>
      </trkpt>
      <trkpt lat="41.0235" lon="27.2341">
        <ele>192.3</ele>
      </trkpt>
      <trkpt lat="41.02324" lon="27.23094">
        <ele>190.8</ele>
      </trkpt>
      <trkpt lat="41.02275" lon="27.22941">
        <ele>190</ele>
      </trkpt>
      <trkpt lat="41.02208" lon="27.22734">
        <ele>193.8</ele>
      </trkpt>
      <trkpt lat="41.02138" lon="27.22433">
        <ele>195.5</ele>
      </trkpt>
      <trkpt lat="41.02056" lon="27.2231">
        <ele>194.3</ele>
      </trkpt>
      <trkpt lat="41.01922" lon="27.22153">
        <ele>201.4</ele>
      </trkpt>
      <trkpt lat="41.01799" lon="27.22054">
        <ele>204.1</ele>
      </trkpt>
      <trkpt lat="41.0164" lon="27.21756">
        <ele>196.8</ele>
      </trkpt>
      <trkpt lat="41.01536" lon="27.21579">
        <ele>192.2</ele>
      </trkpt>
      <trkpt lat="41.01472" lon="27.21445">
        <ele>188.5</ele>
      </trkpt>
      <trkpt lat="41.01439" lon="27.21258">
        <ele>185.1</ele>
      </trkpt>
      <trkpt lat="41.01376" lon="27.20923">
        <ele>179.7</ele>
      </trkpt>
      <trkpt lat="41.0122" lon="27.20737">
        <ele>167.8</ele>
      </trkpt>
      <trkpt lat="41.00866" lon="27.20381">
        <ele>146</ele>
      </trkpt>
      <trkpt lat="41.0039" lon="27.19878">
        <ele>137.9</ele>
      </trkpt>
      <trkpt lat="41.00177" lon="27.19591">
        <ele>136.9</ele>
      </trkpt>
      <trkpt lat="40.99917" lon="27.19266">
        <ele>123.6</ele>
      </trkpt>
      <trkpt lat="40.99567" lon="27.18842">
        <ele>128.1</ele>
      </trkpt>
      <trkpt lat="40.99497" lon="27.18755">
        <ele>126.8</ele>
      </trkpt>
      <trkpt lat="40.99425" lon="27.18676">
        <ele>122.8</ele>
      </trkpt>
      <trkpt lat="40.99321" lon="27.18554">
        <ele>113.2</ele>
      </trkpt>
      <trkpt lat="40.9927" lon="27.18401">
        <ele>107.5</ele>
      </trkpt>
      <trkpt lat="40.99254" lon="27.18359">
        <ele>105.5</ele>
      </trkpt>
      <trkpt lat="40.99162" lon="27.18454">
        <ele>102.1</ele>
      </trkpt>
      <trkpt lat="40.99062" lon="27.18501">
        <ele>103.7</ele>
      </trkpt>
      <trkpt lat="40.98974" lon="27.18507">
        <ele>102.9</ele>
      </trkpt>
      <trkpt lat="40.98847" lon="27.18485">
        <ele>105</ele>
      </trkpt>
      <trkpt lat="40.98767" lon="27.18438">
        <ele>106.9</ele>
      </trkpt>
      <trkpt lat="40.98676" lon="27.18361">
        <ele>110.8</ele>
      </trkpt>
      <trkpt lat="40.98584" lon="27.18339">
        <ele>111.2</ele>
      </trkpt>
      <trkpt lat="40.98461" lon="27.18392">
        <ele>113.6</ele>
      </trkpt>
      <trkpt lat="40.98318" lon="27.18498">
        <ele>122.2</ele>
      </trkpt>
      <trkpt lat="40.98119" lon="27.18588">
        <ele>129.7</ele>
      </trkpt>
      <trkpt lat="40.9798" lon="27.18662">
        <ele>136.6</ele>
      </trkpt>
      <trkpt lat="40.97816" lon="27.18678">
        <ele>149.7</ele>
      </trkpt>
      <trkpt lat="40.97748" lon="27.18736">
        <ele>158.5</ele>
      </trkpt>
      <trkpt lat="40.97632" lon="27.18831">
        <ele>178.8</ele>
      </trkpt>
      <trkpt lat="40.97529" lon="27.18927">
        <ele>191.8</ele>
      </trkpt>
      <trkpt lat="40.97413" lon="27.18974">
        <ele>204.6</ele>
      </trkpt>
      <trkpt lat="40.97261" lon="27.18921">
        <ele>216.9</ele>
      </trkpt>
      <trkpt lat="40.97164" lon="27.18874">
        <ele>221.5</ele>
      </trkpt>
      <trkpt lat="40.97109" lon="27.18895">
        <ele>222.2</ele>
      </trkpt>
      <trkpt lat="40.97045" lon="27.18805">
        <ele>215</ele>
      </trkpt>
      <trkpt lat="40.96929" lon="27.1889">
        <ele>212.8</ele>
      </trkpt>
      <trkpt lat="40.9678" lon="27.1883">
        <ele>221.1</ele>
      </trkpt>
      <trkpt lat="40.96628" lon="27.18745">
        <ele>226.6</ele>
      </trkpt>
      <trkpt lat="40.96441" lon="27.18397">
        <ele>237.3</ele>
      </trkpt>
      <trkpt lat="40.96306" lon="27.18291">
        <ele>240.5</ele>
      </trkpt>
      <trkpt lat="40.96059" lon="27.18207">
        <ele>238.3</ele>
      </trkpt>
      <trkpt lat="40.95871" lon="27.18106">
        <ele>220.6</ele>
      </trkpt>
      <trkpt lat="40.95736" lon="27.18011">
        <ele>204.9</ele>
      </trkpt>
      <trkpt lat="40.9556" lon="27.17924">
        <ele>188.5</ele>
      </trkpt>
      <trkpt lat="40.95456" lon="27.17872">
        <ele>179.3</ele>
      </trkpt>
      <trkpt lat="40.95364" lon="27.17787">
        <ele>172.6</ele>
      </trkpt>
      <trkpt lat="40.95289" lon="27.17782">
        <ele>169.7</ele>
      </trkpt>
      <trkpt lat="40.95133" lon="27.17804">
        <ele>171</ele>
      </trkpt>
      <trkpt lat="40.95017" lon="27.17888">
        <ele>173.4</ele>
      </trkpt>
      <trkpt lat="40.94798" lon="27.18058">
        <ele>169.2</ele>
      </trkpt>
      <trkpt lat="40.94581" lon="27.18219">
        <ele>165.9</ele>
      </trkpt>
      <trkpt lat="40.94374" lon="27.18389">
        <ele>165.3</ele>
      </trkpt>
      <trkpt lat="40.94269" lon="27.18499">
        <ele>168.1</ele>
      </trkpt>
      <trkpt lat="40.94185" lon="27.18763">
        <ele>158.1</ele>
      </trkpt>
      <trkpt lat="40.94042" lon="27.1908">
        <ele>153.1</ele>
      </trkpt>
      <trkpt lat="40.93946" lon="27.19302">
        <ele>148.1</ele>
      </trkpt>
      <trkpt lat="40.93842" lon="27.19371">
        <ele>142.9</ele>
      </trkpt>
      <trkpt lat="40.9381" lon="27.19445">
        <ele>141.3</ele>
      </trkpt>
      <trkpt lat="40.9381" lon="27.19582">
        <ele>142</ele>
      </trkpt>
      <trkpt lat="40.93691" lon="27.19772">
        <ele>151.8</ele>
      </trkpt>
      <trkpt lat="40.93663" lon="27.19831">
        <ele>152.7</ele>
      </trkpt>
      <trkpt lat="40.93639" lon="27.19931">
        <ele>147.1</ele>
      </trkpt>
      <trkpt lat="40.93539" lon="27.2">
        <ele>137.3</ele>
      </trkpt>
      <trkpt lat="40.93426" lon="27.20016">
        <ele>131.2</ele>
      </trkpt>
      <trkpt lat="40.93283" lon="27.20029">
        <ele>131.6</ele>
      </trkpt>
      <trkpt lat="40.93214" lon="27.20133">
        <ele>131.5</ele>
      </trkpt>
      <trkpt lat="40.93047" lon="27.20361">
        <ele>133.5</ele>
      </trkpt>
      <trkpt lat="40.92644" lon="27.2066">
        <ele>139.9</ele>
      </trkpt>
      <trkpt lat="40.91939" lon="27.20367">
        <ele>150.5</ele>
      </trkpt>
      <trkpt lat="40.91789" lon="27.20319">
        <ele>144.5</ele>
      </trkpt>
      <trkpt lat="40.91503" lon="27.20423">
        <ele>143.6</ele>
      </trkpt>
      <trkpt lat="40.91258" lon="27.20462">
        <ele>150.5</ele>
      </trkpt>
      <trkpt lat="40.90982" lon="27.20254">
        <ele>163.7</ele>
      </trkpt>
      <trkpt lat="40.90638" lon="27.2002">
        <ele>164.9</ele>
      </trkpt>
      <trkpt lat="40.90029" lon="27.2008">
        <ele>174.2</ele>
      </trkpt>
      <trkpt lat="40.89823" lon="27.20211">
        <ele>173.2</ele>
      </trkpt>
      <trkpt lat="40.89715" lon="27.20093">
        <ele>174.3</ele>
      </trkpt>
      <trkpt lat="40.89371" lon="27.20133">
        <ele>168.9</ele>
      </trkpt>
      <trkpt lat="40.89085" lon="27.20133">
        <ele>178</ele>
      </trkpt>
      <trkpt lat="40.88987" lon="27.20028">
        <ele>172.3</ele>
      </trkpt>
      <trkpt lat="40.8881" lon="27.20028">
        <ele>184.3</ele>
      </trkpt>
      <trkpt lat="40.88539" lon="27.20005">
        <ele>183.5</ele>
      </trkpt>
      <trkpt lat="40.88254" lon="27.20031">
        <ele>185.7</ele>
      </trkpt>
      <trkpt lat="40.88087" lon="27.20109">
        <ele>187.8</ele>
      </trkpt>
      <trkpt lat="40.87988" lon="27.20239">
        <ele>189.2</ele>
      </trkpt>
      <trkpt lat="40.8788" lon="27.20395">
        <ele>192</ele>
      </trkpt>
      <trkpt lat="40.87762" lon="27.20772">
        <ele>199.1</ele>
      </trkpt>
      <trkpt lat="40.87666" lon="27.20799">
        <ele>195.2</ele>
      </trkpt>
      <trkpt lat="40.87551" lon="27.2073">
        <ele>200</ele>
      </trkpt>
      <trkpt lat="40.8735" lon="27.2067">
        <ele>211.4</ele>
      </trkpt>
      <trkpt lat="40.87214" lon="27.20591">
        <ele>221.2</ele>
      </trkpt>
      <trkpt lat="40.86943" lon="27.20526">
        <ele>238.8</ele>
      </trkpt>
      <trkpt lat="40.86539" lon="27.20126">
        <ele>253</ele>
      </trkpt>
      <trkpt lat="40.86399" lon="27.1999">
        <ele>250.1</ele>
      </trkpt>
      <trkpt lat="40.86319" lon="27.19963">
        <ele>247.2</ele>
      </trkpt>
      <trkpt lat="40.86222" lon="27.19747">
        <ele>235.5</ele>
      </trkpt>
      <trkpt lat="40.86131" lon="27.19618">
        <ele>232.8</ele>
      </trkpt>
      <trkpt lat="40.86096" lon="27.19503">
        <ele>229.8</ele>
      </trkpt>
      <trkpt lat="40.86065" lon="27.19388">
        <ele>221.2</ele>
      </trkpt>
      <trkpt lat="40.86062" lon="27.1931">
        <ele>218</ele>
      </trkpt>
      <trkpt lat="40.86103" lon="27.19153">
        <ele>208.7</ele>
      </trkpt>
      <trkpt lat="40.86135" lon="27.19071">
        <ele>203.2</ele>
      </trkpt>
      <trkpt lat="40.86079" lon="27.189">
        <ele>194.2</ele>
      </trkpt>
      <trkpt lat="40.8603" lon="27.18859">
        <ele>187.4</ele>
      </trkpt>
      <trkpt lat="40.85953" lon="27.18859">
        <ele>186.4</ele>
      </trkpt>
      <trkpt lat="40.85853" lon="27.18896">
        <ele>197.4</ele>
      </trkpt>
      <trkpt lat="40.85821" lon="27.18891">
        <ele>200.4</ele>
      </trkpt>
      <trkpt lat="40.85734" lon="27.18735">
        <ele>194.6</ele>
      </trkpt>
      <trkpt lat="40.85661" lon="27.18501">
        <ele>188.5</ele>
      </trkpt>
      <trkpt lat="40.85616" lon="27.18428">
        <ele>191.4</ele>
      </trkpt>
      <trkpt lat="40.85487" lon="27.1834">
        <ele>198.1</ele>
      </trkpt>
      <trkpt lat="40.85278" lon="27.184">
        <ele>207.7</ele>
      </trkpt>
      <trkpt lat="40.85068" lon="27.18288">
        <ele>193.2</ele>
      </trkpt>
      <trkpt lat="40.84992" lon="27.18265">
        <ele>194.5</ele>
      </trkpt>
      <trkpt lat="40.84922" lon="27.18311">
        <ele>199.1</ele>
      </trkpt>
      <trkpt lat="40.84887" lon="27.18292">
        <ele>200.2</ele>
      </trkpt>
      <trkpt lat="40.84891" lon="27.18242">
        <ele>197.6</ele>
      </trkpt>
      <trkpt lat="40.84933" lon="27.18168">
        <ele>202.7</ele>
      </trkpt>
      <trkpt lat="40.84981" lon="27.18113">
        <ele>203.7</ele>
      </trkpt>
      <trkpt lat="40.84985" lon="27.17998">
        <ele>204.2</ele>
      </trkpt>
      <trkpt lat="40.84919" lon="27.17832">
        <ele>203.9</ele>
      </trkpt>
      <trkpt lat="40.84846" lon="27.17849">
        <ele>212</ele>
      </trkpt>
      <trkpt lat="40.84715" lon="27.17805">
        <ele>221.8</ele>
      </trkpt>
      <trkpt lat="40.84637" lon="27.17761">
        <ele>223.4</ele>
      </trkpt>
      <trkpt lat="40.84581" lon="27.17775">
        <ele>229.9</ele>
      </trkpt>
      <trkpt lat="40.84503" lon="27.17884">
        <ele>234.2</ele>
      </trkpt>
      <trkpt lat="40.84413" lon="27.18012">
        <ele>232.1</ele>
      </trkpt>
      <trkpt lat="40.8432" lon="27.18076">
        <ele>233.2</ele>
      </trkpt>
      <trkpt lat="40.84227" lon="27.18155">
        <ele>231.1</ele>
      </trkpt>
      <trkpt lat="40.84178" lon="27.18254">
        <ele>231.6</ele>
      </trkpt>
      <trkpt lat="40.84156" lon="27.18367">
        <ele>234.4</ele>
      </trkpt>
      <trkpt lat="40.84167" lon="27.1852">
        <ele>238.9</ele>
      </trkpt>
      <trkpt lat="40.83952" lon="27.18976">
        <ele>250.8</ele>
      </trkpt>
      <trkpt lat="40.83823" lon="27.19156">
        <ele>250.6</ele>
      </trkpt>
      <trkpt lat="40.83689" lon="27.19274">
        <ele>251.3</ele>
      </trkpt>
      <trkpt lat="40.83595" lon="27.19388">
        <ele>251</ele>
      </trkpt>
      <trkpt lat="40.83322" lon="27.19508">
        <ele>252.9</ele>
      </trkpt>
      <trkpt lat="40.8318" lon="27.19523">
        <ele>259.6</ele>
      </trkpt>
      <trkpt lat="40.82912" lon="27.1938">
        <ele>264.3</ele>
      </trkpt>
      <trkpt lat="40.82702" lon="27.19028">
        <ele>257.9</ele>
      </trkpt>
      <trkpt lat="40.82429" lon="27.18535">
        <ele>249.1</ele>
      </trkpt>
      <trkpt lat="40.82403" lon="27.18372">
        <ele>247.5</ele>
      </trkpt>
      <trkpt lat="40.82396" lon="27.18091">
        <ele>241.8</ele>
      </trkpt>
      <trkpt lat="40.82359" lon="27.1784">
        <ele>241</ele>
      </trkpt>
      <trkpt lat="40.82262" lon="27.17628">
        <ele>240.7</ele>
      </trkpt>
      <trkpt lat="40.82161" lon="27.17449">
        <ele>240.7</ele>
      </trkpt>
      <trkpt lat="40.82113" lon="27.17341">
        <ele>241.7</ele>
      </trkpt>
      <trkpt lat="40.82001" lon="27.17237">
        <ele>239.2</ele>
      </trkpt>
      <trkpt lat="40.81874" lon="27.17213">
        <ele>241.8</ele>
      </trkpt>
      <trkpt lat="40.81743" lon="27.17282">
        <ele>243.2</ele>
      </trkpt>
      <trkpt lat="40.8162" lon="27.17267">
        <ele>240.5</ele>
      </trkpt>
      <trkpt lat="40.81378" lon="27.17163">
        <ele>232.5</ele>
      </trkpt>
      <trkpt lat="40.81229" lon="27.17083">
        <ele>224.5</ele>
      </trkpt>
      <trkpt lat="40.81143" lon="27.17092">
        <ele>218.4</ele>
      </trkpt>
      <trkpt lat="40.81132" lon="27.17166">
        <ele>212.2</ele>
      </trkpt>
      <trkpt lat="40.81177" lon="27.1728">
        <ele>203.7</ele>
      </trkpt>
      <trkpt lat="40.81181" lon="27.17428">
        <ele>197.6</ele>
      </trkpt>
      <trkpt lat="40.81151" lon="27.17679">
        <ele>185.9</ele>
      </trkpt>
      <trkpt lat="40.81113" lon="27.17728">
        <ele>180.5</ele>
      </trkpt>
      <trkpt lat="40.80996" lon="27.17598">
        <ele>174.1</ele>
      </trkpt>
      <trkpt lat="40.80631" lon="27.17263">
        <ele>172.9</ele>
      </trkpt>
      <trkpt lat="40.80422" lon="27.17051">
        <ele>173.1</ele>
      </trkpt>
      <trkpt lat="40.80145" lon="27.16791">
        <ele>168.6</ele>
      </trkpt>
      <trkpt lat="40.80115" lon="27.16697">
        <ele>167.8</ele>
      </trkpt>
      <trkpt lat="40.80018" lon="27.16302">
        <ele>167.7</ele>
      </trkpt>
      <trkpt lat="40.79985" lon="27.16263">
        <ele>168.5</ele>
      </trkpt>
      <trkpt lat="40.79731" lon="27.16233">
        <ele>159.7</ele>
      </trkpt>
      <trkpt lat="40.79283" lon="27.16147">
        <ele>164.2</ele>
      </trkpt>
      <trkpt lat="40.79216" lon="27.16173">
        <ele>160.2</ele>
      </trkpt>
      <trkpt lat="40.79149" lon="27.16229">
        <ele>155</ele>
      </trkpt>
      <trkpt lat="40.79031" lon="27.16449">
        <ele>154.8</ele>
      </trkpt>
      <trkpt lat="40.78934" lon="27.16521">
        <ele>167.1</ele>
      </trkpt>
      <trkpt lat="40.78828" lon="27.16585">
        <ele>179.4</ele>
      </trkpt>
      <trkpt lat="40.78731" lon="27.16665">
        <ele>195.3</ele>
      </trkpt>
      <trkpt lat="40.78687" lon="27.16696">
        <ele>196.1</ele>
      </trkpt>
      <trkpt lat="40.78627" lon="27.16717">
        <ele>196.3</ele>
      </trkpt>
      <trkpt lat="40.78572" lon="27.16708">
        <ele>199.3</ele>
      </trkpt>
      <trkpt lat="40.78487" lon="27.16678">
        <ele>204</ele>
      </trkpt>
      <trkpt lat="40.7843" lon="27.1665">
        <ele>205.8</ele>
      </trkpt>
      <trkpt lat="40.78372" lon="27.16672">
        <ele>206.7</ele>
      </trkpt>
      <trkpt lat="40.78299" lon="27.16656">
        <ele>212</ele>
      </trkpt>
      <trkpt lat="40.78227" lon="27.16605">
        <ele>215.5</ele>
      </trkpt>
      <trkpt lat="40.78204" lon="27.16602">
        <ele>215.3</ele>
      </trkpt>
      <trkpt lat="40.78165" lon="27.16629">
        <ele>216.3</ele>
      </trkpt>
      <trkpt lat="40.78126" lon="27.16587">
        <ele>215.2</ele>
      </trkpt>
      <trkpt lat="40.7805" lon="27.16532">
        <ele>213.6</ele>
      </trkpt>
      <trkpt lat="40.77977" lon="27.16472">
        <ele>215.4</ele>
      </trkpt>
      <trkpt lat="40.77931" lon="27.1645">
        <ele>212.6</ele>
      </trkpt>
      <trkpt lat="40.77837" lon="27.16483">
        <ele>205.4</ele>
      </trkpt>
      <trkpt lat="40.77759" lon="27.16528">
        <ele>194.4</ele>
      </trkpt>
      <trkpt lat="40.77722" lon="27.16598">
        <ele>195.1</ele>
      </trkpt>
      <trkpt lat="40.77672" lon="27.16647">
        <ele>193.8</ele>
      </trkpt>
      <trkpt lat="40.7764" lon="27.16659">
        <ele>195.6</ele>
      </trkpt>
      <trkpt lat="40.7758" lon="27.16635">
        <ele>201.1</ele>
      </trkpt>
      <trkpt lat="40.7752" lon="27.16562">
        <ele>211</ele>
      </trkpt>
      <trkpt lat="40.77412" lon="27.16489">
        <ele>225.8</ele>
      </trkpt>
      <trkpt lat="40.77293" lon="27.16417">
        <ele>232.9</ele>
      </trkpt>
      <trkpt lat="40.77203" lon="27.16374">
        <ele>233.1</ele>
      </trkpt>
      <trkpt lat="40.77171" lon="27.16359">
        <ele>232.6</ele>
      </trkpt>
      <trkpt lat="40.77121" lon="27.16398">
        <ele>232.6</ele>
      </trkpt>
      <trkpt lat="40.76929" lon="27.16388">
        <ele>229.9</ele>
      </trkpt>
      <trkpt lat="40.76886" lon="27.16312">
        <ele>231.5</ele>
      </trkpt>
      <trkpt lat="40.7681" lon="27.16139">
        <ele>243.9</ele>
      </trkpt>
      <trkpt lat="40.76755" lon="27.16103">
        <ele>245.7</ele>
      </trkpt>
      <trkpt lat="40.76667" lon="27.16003">
        <ele>246.2</ele>
      </trkpt>
      <trkpt lat="40.76596" lon="27.1599">
        <ele>249.5</ele>
      </trkpt>
      <trkpt lat="40.76571" lon="27.15975">
        <ele>250.2</ele>
      </trkpt>
      <trkpt lat="40.76578" lon="27.15927">
        <ele>246</ele>
      </trkpt>
      <trkpt lat="40.76578" lon="27.15878">
        <ele>244.2</ele>
      </trkpt>
      <trkpt lat="40.76525" lon="27.15805">
        <ele>251.6</ele>
      </trkpt>
      <trkpt lat="40.76467" lon="27.15705">
        <ele>255.5</ele>
      </trkpt>
      <trkpt lat="40.76325" lon="27.15606">
        <ele>267.8</ele>
      </trkpt>
      <trkpt lat="40.76154" lon="27.15515">
        <ele>280.9</ele>
      </trkpt>
      <trkpt lat="40.76092" lon="27.15485">
        <ele>286.8</ele>
      </trkpt>
      <trkpt lat="40.76042" lon="27.15479">
        <ele>291.2</ele>
      </trkpt>
      <trkpt lat="40.7604" lon="27.15557">
        <ele>303.5</ele>
      </trkpt>
      <trkpt lat="40.76049" lon="27.15618">
        <ele>310.3</ele>
      </trkpt>
      <trkpt lat="40.76017" lon="27.15661">
        <ele>317.4</ele>
      </trkpt>
      <trkpt lat="40.7598" lon="27.15727">
        <ele>325.8</ele>
      </trkpt>
      <trkpt lat="40.75952" lon="27.15752">
        <ele>327.7</ele>
      </trkpt>
      <trkpt lat="40.75899" lon="27.15724">
        <ele>330.8</ele>
      </trkpt>
      <trkpt lat="40.75863" lon="27.15721">
        <ele>334.9</ele>
      </trkpt>
      <trkpt lat="40.75833" lon="27.15682">
        <ele>338</ele>
      </trkpt>
      <trkpt lat="40.75768" lon="27.15709">
        <ele>340</ele>
      </trkpt>
      <trkpt lat="40.75724" lon="27.15646">
        <ele>337.2</ele>
      </trkpt>
      <trkpt lat="40.75656" lon="27.15582">
        <ele>344.7</ele>
      </trkpt>
      <trkpt lat="40.75538" lon="27.15546">
        <ele>362.8</ele>
      </trkpt>
      <trkpt lat="40.75481" lon="27.15601">
        <ele>380.8</ele>
      </trkpt>
      <trkpt lat="40.75472" lon="27.15585">
        <ele>379.8</ele>
      </trkpt>
      <trkpt lat="40.7546" lon="27.15534">
        <ele>373.6</ele>
      </trkpt>
      <trkpt lat="40.75242" lon="27.15359">
        <ele>387.6</ele>
      </trkpt>
      <trkpt lat="40.75129" lon="27.15286">
        <ele>395.2</ele>
      </trkpt>
      <trkpt lat="40.75058" lon="27.1521">
        <ele>401.9</ele>
      </trkpt>
      <trkpt lat="40.74993" lon="27.15149">
        <ele>404.4</ele>
      </trkpt>
      <trkpt lat="40.74933" lon="27.15114">
        <ele>407.2</ele>
      </trkpt>
      <trkpt lat="40.74868" lon="27.15029">
        <ele>404.9</ele>
      </trkpt>
      <trkpt lat="40.74824" lon="27.14944">
        <ele>403.5</ele>
      </trkpt>
      <trkpt lat="40.74765" lon="27.14868">
        <ele>401.9</ele>
      </trkpt>
      <trkpt lat="40.74634" lon="27.14732">
        <ele>404.3</ele>
      </trkpt>
      <trkpt lat="40.74542" lon="27.14644">
        <ele>401.1</ele>
      </trkpt>
      <trkpt lat="40.74468" lon="27.14559">
        <ele>394.4</ele>
      </trkpt>
      <trkpt lat="40.74436" lon="27.1449">
        <ele>391.1</ele>
      </trkpt>
      <trkpt lat="40.74422" lon="27.14414">
        <ele>385.4</ele>
      </trkpt>
      <trkpt lat="40.74432" lon="27.14265">
        <ele>376.4</ele>
      </trkpt>
      <trkpt lat="40.74437" lon="27.14164">
        <ele>371.1</ele>
      </trkpt>
      <trkpt lat="40.74424" lon="27.14126">
        <ele>369.1</ele>
      </trkpt>
      <trkpt lat="40.7438" lon="27.14098">
        <ele>367.6</ele>
      </trkpt>
      <trkpt lat="40.74336" lon="27.14038">
        <ele>364.2</ele>
      </trkpt>
      <trkpt lat="40.74294" lon="27.13993">
        <ele>361.2</ele>
      </trkpt>
      <trkpt lat="40.74276" lon="27.13943">
        <ele>359.5</ele>
      </trkpt>
      <trkpt lat="40.74254" lon="27.13761">
        <ele>354.1</ele>
      </trkpt>
      <trkpt lat="40.74287" lon="27.13711">
        <ele>351.7</ele>
      </trkpt>
      <trkpt lat="40.74326" lon="27.13647">
        <ele>350.5</ele>
      </trkpt>
      <trkpt lat="40.74355" lon="27.13548">
        <ele>346.5</ele>
      </trkpt>
      <trkpt lat="40.74409" lon="27.13426">
        <ele>343</ele>
      </trkpt>
      <trkpt lat="40.74454" lon="27.13368">
        <ele>338.6</ele>
      </trkpt>
      <trkpt lat="40.74484" lon="27.1328">
        <ele>334.4</ele>
      </trkpt>
      <trkpt lat="40.74429" lon="27.13006">
        <ele>320.7</ele>
      </trkpt>
      <trkpt lat="40.74348" lon="27.12665">
        <ele>311</ele>
      </trkpt>
      <trkpt lat="40.74248" lon="27.12312">
        <ele>307.6</ele>
      </trkpt>
      <trkpt lat="40.7425" lon="27.12203">
        <ele>307</ele>
      </trkpt>
      <trkpt lat="40.74295" lon="27.12031">
        <ele>314.5</ele>
      </trkpt>
      <trkpt lat="40.74331" lon="27.11823">
        <ele>317.1</ele>
      </trkpt>
      <trkpt lat="40.74318" lon="27.11619">
        <ele>315.5</ele>
      </trkpt>
      <trkpt lat="40.74258" lon="27.11404">
        <ele>311.6</ele>
      </trkpt>
      <trkpt lat="40.74211" lon="27.11293">
        <ele>314.2</ele>
      </trkpt>
      <trkpt lat="40.74114" lon="27.11138">
        <ele>312.9</ele>
      </trkpt>
      <trkpt lat="40.74054" lon="27.10997">
        <ele>304.3</ele>
      </trkpt>
      <trkpt lat="40.74026" lon="27.10922">
        <ele>302.6</ele>
      </trkpt>
      <trkpt lat="40.74011" lon="27.10811">
        <ele>301.6</ele>
      </trkpt>
      <trkpt lat="40.74013" lon="27.10673">
        <ele>300.3</ele>
      </trkpt>
      <trkpt lat="40.74045" lon="27.1052">
        <ele>294.1</ele>
      </trkpt>
      <trkpt lat="40.74081" lon="27.10345">
        <ele>286.8</ele>
      </trkpt>
      <trkpt lat="40.7398" lon="27.10365">
        <ele>292.6</ele>
      </trkpt>
      <trkpt lat="40.73868" lon="27.10381">
        <ele>299.6</ele>
      </trkpt>
      <trkpt lat="40.73803" lon="27.10327">
        <ele>302.7</ele>
      </trkpt>
      <trkpt lat="40.7369" lon="27.10233">
        <ele>309.9</ele>
      </trkpt>
      <trkpt lat="40.73572" lon="27.10191">
        <ele>313.9</ele>
      </trkpt>
      <trkpt lat="40.73467" lon="27.10201">
        <ele>324.1</ele>
      </trkpt>
      <trkpt lat="40.73351" lon="27.10212">
        <ele>330.6</ele>
      </trkpt>
      <trkpt lat="40.73263" lon="27.10249">
        <ele>334.5</ele>
      </trkpt>
      <trkpt lat="40.73131" lon="27.10229">
        <ele>342.1</ele>
      </trkpt>
      <trkpt lat="40.73063" lon="27.10195">
        <ele>344.8</ele>
      </trkpt>
      <trkpt lat="40.73039" lon="27.10128">
        <ele>344.7</ele>
      </trkpt>
      <trkpt lat="40.72903" lon="27.09561">
        <ele>333.7</ele>
      </trkpt>
      <trkpt lat="40.72805" lon="27.09465">
        <ele>335.7</ele>
      </trkpt>
      <trkpt lat="40.72743" lon="27.09431">
        <ele>334.2</ele>
      </trkpt>
      <trkpt lat="40.72644" lon="27.09438">
        <ele>327.3</ele>
      </trkpt>
      <trkpt lat="40.72412" lon="27.09474">
        <ele>304.8</ele>
      </trkpt>
      <trkpt lat="40.72284" lon="27.09488">
        <ele>293.3</ele>
      </trkpt>
      <trkpt lat="40.72126" lon="27.09488">
        <ele>279.8</ele>
      </trkpt>
      <trkpt lat="40.71914" lon="27.0956">
        <ele>267.5</ele>
      </trkpt>
      <trkpt lat="40.71826" lon="27.09605">
        <ele>260.8</ele>
      </trkpt>
      <trkpt lat="40.71509" lon="27.09641">
        <ele>245.1</ele>
      </trkpt>
      <trkpt lat="40.71307" lon="27.09727">
        <ele>236.5</ele>
      </trkpt>
      <trkpt lat="40.71174" lon="27.09748">
        <ele>230.3</ele>
      </trkpt>
      <trkpt lat="40.71043" lon="27.0973">
        <ele>219.6</ele>
      </trkpt>
      <trkpt lat="40.70972" lon="27.0973">
        <ele>214</ele>
      </trkpt>
      <trkpt lat="40.70886" lon="27.09794">
        <ele>204.7</ele>
      </trkpt>
      <trkpt lat="40.70817" lon="27.0983">
        <ele>196.6</ele>
      </trkpt>
      <trkpt lat="40.70751" lon="27.09848">
        <ele>191.4</ele>
      </trkpt>
      <trkpt lat="40.70665" lon="27.09924">
        <ele>183.9</ele>
      </trkpt>
      <trkpt lat="40.70575" lon="27.09948">
        <ele>175.4</ele>
      </trkpt>
      <trkpt lat="40.70386" lon="27.09905">
        <ele>165.2</ele>
      </trkpt>
      <trkpt lat="40.70147" lon="27.09802">
        <ele>150</ele>
      </trkpt>
      <trkpt lat="40.69947" lon="27.09726">
        <ele>138.6</ele>
      </trkpt>
      <trkpt lat="40.69793" lon="27.0972">
        <ele>135.1</ele>
      </trkpt>
      <trkpt lat="40.69558" lon="27.0966">
        <ele>125.7</ele>
      </trkpt>
      <trkpt lat="40.69395" lon="27.09611">
        <ele>117.5</ele>
      </trkpt>
      <trkpt lat="40.69257" lon="27.0952">
        <ele>114.1</ele>
      </trkpt>
      <trkpt lat="40.69181" lon="27.09544">
        <ele>112.3</ele>
      </trkpt>
      <trkpt lat="40.69105" lon="27.09611">
        <ele>114.6</ele>
      </trkpt>
      <trkpt lat="40.68951" lon="27.09599">
        <ele>114.3</ele>
      </trkpt>
      <trkpt lat="40.68695" lon="27.09566">
        <ele>118.6</ele>
      </trkpt>
      <trkpt lat="40.68518" lon="27.09502">
        <ele>120.8</ele>
      </trkpt>
      <trkpt lat="40.684" lon="27.09466">
        <ele>130.3</ele>
      </trkpt>
      <trkpt lat="40.68331" lon="27.09308">
        <ele>132.6</ele>
      </trkpt>
      <trkpt lat="40.6815" lon="27.08865">
        <ele>131.7</ele>
      </trkpt>
      <trkpt lat="40.67973" lon="27.08412">
        <ele>141.6</ele>
      </trkpt>
      <trkpt lat="40.67838" lon="27.08267">
        <ele>154.1</ele>
      </trkpt>
      <trkpt lat="40.6776" lon="27.08203">
        <ele>162.5</ele>
      </trkpt>
      <trkpt lat="40.67732" lon="27.08203">
        <ele>166.3</ele>
      </trkpt>
      <trkpt lat="40.67721" lon="27.08224">
        <ele>168.1</ele>
      </trkpt>
      <trkpt lat="40.67698" lon="27.08249">
        <ele>172.4</ele>
      </trkpt>
      <trkpt lat="40.67719" lon="27.08416">
        <ele>180.3</ele>
      </trkpt>
      <trkpt lat="40.67767" lon="27.08722">
        <ele>194.2</ele>
      </trkpt>
      <trkpt lat="40.67737" lon="27.08807">
        <ele>200</ele>
      </trkpt>
      <trkpt lat="40.67682" lon="27.08837">
        <ele>206.8</ele>
      </trkpt>
      <trkpt lat="40.67623" lon="27.08834">
        <ele>211.6</ele>
      </trkpt>
      <trkpt lat="40.67561" lon="27.08792">
        <ele>217.4</ele>
      </trkpt>
      <trkpt lat="40.67496" lon="27.0877">
        <ele>221</ele>
      </trkpt>
      <trkpt lat="40.67443" lon="27.08777">
        <ele>227.9</ele>
      </trkpt>
      <trkpt lat="40.67404" lon="27.08819">
        <ele>231.7</ele>
      </trkpt>
      <trkpt lat="40.6731" lon="27.08974">
        <ele>228.3</ele>
      </trkpt>
      <trkpt lat="40.67221" lon="27.09018">
        <ele>229.6</ele>
      </trkpt>
      <trkpt lat="40.67026" lon="27.09165">
        <ele>225.5</ele>
      </trkpt>
      <trkpt lat="40.66904" lon="27.09277">
        <ele>218.9</ele>
      </trkpt>
      <trkpt lat="40.66769" lon="27.09465">
        <ele>211.2</ele>
      </trkpt>
      <trkpt lat="40.66723" lon="27.09559">
        <ele>208.9</ele>
      </trkpt>
      <trkpt lat="40.66564" lon="27.09611">
        <ele>193.4</ele>
      </trkpt>
      <trkpt lat="40.66465" lon="27.09675">
        <ele>184.2</ele>
      </trkpt>
      <trkpt lat="40.66417" lon="27.09678">
        <ele>183.5</ele>
      </trkpt>
      <trkpt lat="40.66355" lon="27.09675">
        <ele>181.1</ele>
      </trkpt>
      <trkpt lat="40.66311" lon="27.09699">
        <ele>179.3</ele>
      </trkpt>
      <trkpt lat="40.66286" lon="27.09772">
        <ele>178.7</ele>
      </trkpt>
      <trkpt lat="40.66258" lon="27.0986">
        <ele>175.9</ele>
      </trkpt>
      <trkpt lat="40.66177" lon="27.09848">
        <ele>175.4</ele>
      </trkpt>
      <trkpt lat="40.66053" lon="27.0982">
        <ele>169.2</ele>
      </trkpt>
      <trkpt lat="40.65961" lon="27.09817">
        <ele>164.2</ele>
      </trkpt>
      <trkpt lat="40.65843" lon="27.09792">
        <ele>157.9</ele>
      </trkpt>
      <trkpt lat="40.65774" lon="27.09768">
        <ele>153</ele>
      </trkpt>
      <trkpt lat="40.65697" lon="27.09764">
        <ele>150.5</ele>
      </trkpt>
      <trkpt lat="40.65552" lon="27.09818">
        <ele>145.3</ele>
      </trkpt>
      <trkpt lat="40.65365" lon="27.09761">
        <ele>135</ele>
      </trkpt>
      <trkpt lat="40.64995" lon="27.09649">
        <ele>118.5</ele>
      </trkpt>
      <trkpt lat="40.64788" lon="27.09461">
        <ele>104.8</ele>
      </trkpt>
      <trkpt lat="40.64545" lon="27.09402">
        <ele>78.5</ele>
      </trkpt>
      <trkpt lat="40.64467" lon="27.09472">
        <ele>78.4</ele>
      </trkpt>
      <trkpt lat="40.64368" lon="27.0963">
        <ele>86.1</ele>
      </trkpt>
      <trkpt lat="40.64283" lon="27.09663">
        <ele>82.2</ele>
      </trkpt>
      <trkpt lat="40.64101" lon="27.09716">
        <ele>76.8</ele>
      </trkpt>
      <trkpt lat="40.64014" lon="27.09774">
        <ele>81.3</ele>
      </trkpt>
      <trkpt lat="40.63949" lon="27.09847">
        <ele>87.1</ele>
      </trkpt>
      <trkpt lat="40.63809" lon="27.10031">
        <ele>81.9</ele>
      </trkpt>
      <trkpt lat="40.63744" lon="27.1007">
        <ele>78.1</ele>
      </trkpt>
      <trkpt lat="40.63657" lon="27.10067">
        <ele>84.5</ele>
      </trkpt>
      <trkpt lat="40.63576" lon="27.10007">
        <ele>78.6</ele>
      </trkpt>
      <trkpt lat="40.63458" lon="27.09884">
        <ele>64.8</ele>
      </trkpt>
      <trkpt lat="40.63313" lon="27.09872">
        <ele>52.8</ele>
      </trkpt>
      <trkpt lat="40.62881" lon="27.09853">
        <ele>41.1</ele>
      </trkpt>
      <trkpt lat="40.62487" lon="27.0981">
        <ele>32.3</ele>
      </trkpt>
      <trkpt lat="40.62393" lon="27.09831">
        <ele>27.3</ele>
      </trkpt>
      <trkpt lat="40.62271" lon="27.09831">
        <ele>23.6</ele>
      </trkpt>
      <trkpt lat="40.62061" lon="27.09895">
        <ele>20.7</ele>
      </trkpt>
      <trkpt lat="40.61756" lon="27.09966">
        <ele>17.3</ele>
      </trkpt>
      <trkpt lat="40.61671" lon="27.09907">
        <ele>14.1</ele>
      </trkpt>
      <trkpt lat="40.61543" lon="27.09826">
        <ele>12.6</ele>
      </trkpt>
      <trkpt lat="40.61442" lon="27.09754">
        <ele>11.6</ele>
      </trkpt>
      <trkpt lat="40.61269" lon="27.09354">
        <ele>8.8</ele>
      </trkpt>
      <trkpt lat="40.61256" lon="27.09179">
        <ele>9.2</ele>
      </trkpt>
      <trkpt lat="40.61155" lon="27.08609">
        <ele>11</ele>
      </trkpt>
      <trkpt lat="40.61128" lon="27.08349">
        <ele>10.4</ele>
      </trkpt>
      <trkpt lat="40.61039" lon="27.08225">
        <ele>11.3</ele>
      </trkpt>
      <trkpt lat="40.60893" lon="27.0802">
        <ele>9.3</ele>
      </trkpt>
      <trkpt lat="40.60757" lon="27.07708">
        <ele>6.4</ele>
      </trkpt>
      <trkpt lat="40.60687" lon="27.07386">
        <ele>6.8</ele>
      </trkpt>
      <trkpt lat="40.60566" lon="27.06898">
        <ele>8.8</ele>
      </trkpt>
      <trkpt lat="40.60555" lon="27.06704">
        <ele>10.6</ele>
      </trkpt>
      <trkpt lat="40.60513" lon="27.06456">
        <ele>13.2</ele>
      </trkpt>
      <trkpt lat="40.60407" lon="27.06206">
        <ele>11.1</ele>
      </trkpt>
      <trkpt lat="40.60402" lon="27.06125">
        <ele>11.1</ele>
      </trkpt>
      <trkpt lat="40.60429" lon="27.06034">
        <ele>11.5</ele>
      </trkpt>
      <trkpt lat="40.6039" lon="27.05295">
        <ele>42.1</ele>
      </trkpt>
      <trkpt lat="40.60253" lon="27.04786">
        <ele>60</ele>
      </trkpt>
      <trkpt lat="40.60239" lon="27.04542">
        <ele>69.5</ele>
      </trkpt>
      <trkpt lat="40.60249" lon="27.04425">
        <ele>69.3</ele>
      </trkpt>
      <trkpt lat="40.60263" lon="27.04347">
        <ele>63.1</ele>
      </trkpt>
      <trkpt lat="40.59999" lon="27.04077">
        <ele>31.3</ele>
      </trkpt>
      <trkpt lat="40.59846" lon="27.03833">
        <ele>13.5</ele>
      </trkpt>
      <trkpt lat="40.59714" lon="27.03604">
        <ele>11.8</ele>
      </trkpt>
      <trkpt lat="40.59613" lon="27.0336">
        <ele>28.8</ele>
      </trkpt>
      <trkpt lat="40.59577" lon="27.03154">
        <ele>44.9</ele>
      </trkpt>
      <trkpt lat="40.59601" lon="27.02938">
        <ele>59.8</ele>
      </trkpt>
      <trkpt lat="40.59665" lon="27.02579">
        <ele>93.2</ele>
      </trkpt>
      <trkpt lat="40.59685" lon="27.02452">
        <ele>105.3</ele>
      </trkpt>
      <trkpt lat="40.59778" lon="27.02246">
        <ele>109.3</ele>
      </trkpt>
      <trkpt lat="40.59926" lon="27.0187">
        <ele>114.8</ele>
      </trkpt>
      <trkpt lat="40.59902" lon="27.01511">
        <ele>119</ele>
      </trkpt>
      <trkpt lat="40.5987" lon="27.01099">
        <ele>126.1</ele>
      </trkpt>
      <trkpt lat="40.59979" lon="27.00972">
        <ele>131.5</ele>
      </trkpt>
      <trkpt lat="40.60151" lon="27.00856">
        <ele>149</ele>
      </trkpt>
      <trkpt lat="40.60215" lon="27.00856">
        <ele>151.5</ele>
      </trkpt>
      <trkpt lat="40.6032" lon="27.00718">
        <ele>161.7</ele>
      </trkpt>
      <trkpt lat="40.60372" lon="27.00613">
        <ele>164.5</ele>
      </trkpt>
      <trkpt lat="40.6042" lon="27.00539">
        <ele>167.5</ele>
      </trkpt>
      <trkpt lat="40.6058" lon="27.00433">
        <ele>179.5</ele>
      </trkpt>
      <trkpt lat="40.60665" lon="27.00238">
        <ele>192.5</ele>
      </trkpt>
      <trkpt lat="40.60774" lon="27.0009">
        <ele>205.2</ele>
      </trkpt>
      <trkpt lat="40.60841" lon="27.00031">
        <ele>210.4</ele>
      </trkpt>
      <trkpt lat="40.60744" lon="26.99992">
        <ele>204.7</ele>
      </trkpt>
      <trkpt lat="40.60639" lon="26.99893">
        <ele>201.3</ele>
      </trkpt>
      <trkpt lat="40.60542" lon="26.99726">
        <ele>199</ele>
      </trkpt>
      <trkpt lat="40.60463" lon="26.99553">
        <ele>197.5</ele>
      </trkpt>
      <trkpt lat="40.60377" lon="26.99371">
        <ele>183.5</ele>
      </trkpt>
      <trkpt lat="40.60307" lon="26.9937">
        <ele>183.6</ele>
      </trkpt>
      <trkpt lat="40.60191" lon="26.99326">
        <ele>187.8</ele>
      </trkpt>
      <trkpt lat="40.60119" lon="26.99286">
        <ele>189</ele>
      </trkpt>
      <trkpt lat="40.599" lon="26.99193">
        <ele>184.7</ele>
      </trkpt>
      <trkpt lat="40.59761" lon="26.9909">
        <ele>182.1</ele>
      </trkpt>
      <trkpt lat="40.59667" lon="26.98991">
        <ele>176.4</ele>
      </trkpt>
      <trkpt lat="40.59591" lon="26.98909">
        <ele>171.4</ele>
      </trkpt>
      <trkpt lat="40.59452" lon="26.98805">
        <ele>164.5</ele>
      </trkpt>
      <trkpt lat="40.59246" lon="26.98603">
        <ele>155.5</ele>
      </trkpt>
      <trkpt lat="40.59112" lon="26.98485">
        <ele>146.4</ele>
      </trkpt>
      <trkpt lat="40.58906" lon="26.98352">
        <ele>131.1</ele>
      </trkpt>
      <trkpt lat="40.58856" lon="26.98334">
        <ele>128.4</ele>
      </trkpt>
      <trkpt lat="40.58774" lon="26.98368">
        <ele>123.7</ele>
      </trkpt>
      <trkpt lat="40.58722" lon="26.98378">
        <ele>121.1</ele>
      </trkpt>
      <trkpt lat="40.5871" lon="26.98482">
        <ele>120.1</ele>
      </trkpt>
      <trkpt lat="40.58632" lon="26.98492">
        <ele>116.8</ele>
      </trkpt>
      <trkpt lat="40.58579" lon="26.98526">
        <ele>113.8</ele>
      </trkpt>
      <trkpt lat="40.58371" lon="26.98633">
        <ele>104.9</ele>
      </trkpt>
      <trkpt lat="40.58154" lon="26.98657">
        <ele>97.8</ele>
      </trkpt>
      <trkpt lat="40.58026" lon="26.98642">
        <ele>91.5</ele>
      </trkpt>
      <trkpt lat="40.57699" lon="26.98698">
        <ele>86.7</ele>
      </trkpt>
      <trkpt lat="40.57493" lon="26.9854">
        <ele>79.2</ele>
      </trkpt>
      <trkpt lat="40.57388" lon="26.98422">
        <ele>75.2</ele>
      </trkpt>
      <trkpt lat="40.57242" lon="26.98274">
        <ele>64.1</ele>
      </trkpt>
      <trkpt lat="40.5705" lon="26.98117">
        <ele>50.6</ele>
      </trkpt>
      <trkpt lat="40.56979" lon="26.98058">
        <ele>44.8</ele>
      </trkpt>
      <trkpt lat="40.56923" lon="26.97959">
        <ele>41.3</ele>
      </trkpt>
      <trkpt lat="40.56856" lon="26.97826">
        <ele>42.9</ele>
      </trkpt>
      <trkpt lat="40.56807" lon="26.97664">
        <ele>42.6</ele>
      </trkpt>
      <trkpt lat="40.56803" lon="26.97506">
        <ele>34.6</ele>
      </trkpt>
      <trkpt lat="40.56773" lon="26.97378">
        <ele>35</ele>
      </trkpt>
      <trkpt lat="40.56717" lon="26.97097">
        <ele>48.4</ele>
      </trkpt>
      <trkpt lat="40.56713" lon="26.96855">
        <ele>56.6</ele>
      </trkpt>
      <trkpt lat="40.56836" lon="26.96176">
        <ele>55.9</ele>
      </trkpt>
      <trkpt lat="40.57072" lon="26.94993">
        <ele>66.2</ele>
      </trkpt>
      <trkpt lat="40.57173" lon="26.94135">
        <ele>69.9</ele>
      </trkpt>
      <trkpt lat="40.57203" lon="26.93982">
        <ele>73.5</ele>
      </trkpt>
      <trkpt lat="40.57274" lon="26.93824">
        <ele>78</ele>
      </trkpt>
      <trkpt lat="40.57371" lon="26.93632">
        <ele>82.4</ele>
      </trkpt>
      <trkpt lat="40.5745" lon="26.9346">
        <ele>80.3</ele>
      </trkpt>
      <trkpt lat="40.57453" lon="26.93238">
        <ele>73.9</ele>
      </trkpt>
      <trkpt lat="40.57357" lon="26.93003">
        <ele>71.4</ele>
      </trkpt>
      <trkpt lat="40.57342" lon="26.92894">
        <ele>71.5</ele>
      </trkpt>
      <trkpt lat="40.57346" lon="26.92746">
        <ele>71.3</ele>
      </trkpt>
      <trkpt lat="40.57372" lon="26.92559">
        <ele>65.3</ele>
      </trkpt>
      <trkpt lat="40.57413" lon="26.92406">
        <ele>58.7</ele>
      </trkpt>
      <trkpt lat="40.57465" lon="26.92041">
        <ele>49.9</ele>
      </trkpt>
      <trkpt lat="40.57454" lon="26.91864">
        <ele>46.1</ele>
      </trkpt>
      <trkpt lat="40.5742" lon="26.91691">
        <ele>42.9</ele>
      </trkpt>
      <trkpt lat="40.57424" lon="26.91568">
        <ele>38.5</ele>
      </trkpt>
      <trkpt lat="40.5745" lon="26.91415">
        <ele>34.4</ele>
      </trkpt>
      <trkpt lat="40.57435" lon="26.91233">
        <ele>35</ele>
      </trkpt>
      <trkpt lat="40.57464" lon="26.91163">
        <ele>35.6</ele>
      </trkpt>
      <trkpt lat="40.57617" lon="26.91054">
        <ele>37.7</ele>
      </trkpt>
      <trkpt lat="40.5776" lon="26.90941">
        <ele>40.1</ele>
      </trkpt>
      <trkpt lat="40.57823" lon="26.90966">
        <ele>41.4</ele>
      </trkpt>
      <trkpt lat="40.581" lon="26.90749">
        <ele>47.7</ele>
      </trkpt>
      <trkpt lat="40.58234" lon="26.90528">
        <ele>52.4</ele>
      </trkpt>
      <trkpt lat="40.58324" lon="26.90336">
        <ele>58.4</ele>
      </trkpt>
      <trkpt lat="40.58395" lon="26.90227">
        <ele>64.5</ele>
      </trkpt>
      <trkpt lat="40.58455" lon="26.90144">
        <ele>66.6</ele>
      </trkpt>
      <trkpt lat="40.58526" lon="26.90144">
        <ele>67.4</ele>
      </trkpt>
      <trkpt lat="40.58571" lon="26.90079">
        <ele>67.2</ele>
      </trkpt>
      <trkpt lat="40.58638" lon="26.89996">
        <ele>67.5</ele>
      </trkpt>
      <trkpt lat="40.58713" lon="26.89932">
        <ele>70.6</ele>
      </trkpt>
      <trkpt lat="40.58762" lon="26.89789">
        <ele>73.6</ele>
      </trkpt>
      <trkpt lat="40.58814" lon="26.89695">
        <ele>74.7</ele>
      </trkpt>
      <trkpt lat="40.58932" lon="26.89356">
        <ele>82</ele>
      </trkpt>
      <trkpt lat="40.59224" lon="26.88987">
        <ele>96.2</ele>
      </trkpt>
      <trkpt lat="40.59523" lon="26.88893">
        <ele>84.3</ele>
      </trkpt>
      <trkpt lat="40.59594" lon="26.88789">
        <ele>82.1</ele>
      </trkpt>
      <trkpt lat="40.59843" lon="26.886">
        <ele>74.9</ele>
      </trkpt>
      <trkpt lat="40.59993" lon="26.88491">
        <ele>68.8</ele>
      </trkpt>
      <trkpt lat="40.60016" lon="26.88469">
        <ele>67.8</ele>
      </trkpt>
      <trkpt lat="40.59996" lon="26.88402">
        <ele>65.8</ele>
      </trkpt>
      <trkpt lat="40.59979" lon="26.88189">
        <ele>55.2</ele>
      </trkpt>
      <trkpt lat="40.59982" lon="26.87953">
        <ele>39.5</ele>
      </trkpt>
      <trkpt lat="40.59999" lon="26.87468">
        <ele>24.4</ele>
      </trkpt>
      <trkpt lat="40.60022" lon="26.87113">
        <ele>11.7</ele>
      </trkpt>
      <trkpt lat="40.60044" lon="26.87001">
        <ele>9</ele>
      </trkpt>
      <trkpt lat="40.59985" lon="26.86937">
        <ele>9.1</ele>
      </trkpt>
      <trkpt lat="40.59795" lon="26.86766">
        <ele>20</ele>
      </trkpt>
      <trkpt lat="40.59679" lon="26.86594">
        <ele>25.3</ele>
      </trkpt>
      <trkpt lat="40.59597" lon="26.86486">
        <ele>23.6</ele>
      </trkpt>
      <trkpt lat="40.59475" lon="26.8625">
        <ele>17.3</ele>
      </trkpt>
      <trkpt lat="40.5934" lon="26.86084">
        <ele>14</ele>
      </trkpt>
      <trkpt lat="40.59204" lon="26.85935">
        <ele>12.7</ele>
      </trkpt>
      <trkpt lat="40.59039" lon="26.85688">
        <ele>10.2</ele>
      </trkpt>
      <trkpt lat="40.58608" lon="26.84982">
        <ele>10.7</ele>
      </trkpt>
      <trkpt lat="40.58217" lon="26.84325">
        <ele>17.1</ele>
      </trkpt>
      <trkpt lat="40.58088" lon="26.84108">
        <ele>17.5</ele>
      </trkpt>
      <trkpt lat="40.57884" lon="26.83795">
        <ele>21.5</ele>
      </trkpt>
      <trkpt lat="40.57742" lon="26.8357">
        <ele>23.3</ele>
      </trkpt>
      <trkpt lat="40.57668" lon="26.83511">
        <ele>25.2</ele>
      </trkpt>
      <trkpt lat="40.576" lon="26.83556">
        <ele>32.6</ele>
      </trkpt>
      <trkpt lat="40.57515" lon="26.83593">
        <ele>40.4</ele>
      </trkpt>
      <trkpt lat="40.5743" lon="26.83623">
        <ele>47.1</ele>
      </trkpt>
      <trkpt lat="40.57356" lon="26.83675">
        <ele>52.3</ele>
      </trkpt>
      <trkpt lat="40.57254" lon="26.83765">
        <ele>60.8</ele>
      </trkpt>
      <trkpt lat="40.57237" lon="26.83877">
        <ele>66.5</ele>
      </trkpt>
      <trkpt lat="40.57277" lon="26.83996">
        <ele>70.5</ele>
      </trkpt>
      <trkpt lat="40.57294" lon="26.84064">
        <ele>74.9</ele>
      </trkpt>
      <trkpt lat="40.57266" lon="26.84176">
        <ele>74.9</ele>
      </trkpt>
      <trkpt lat="40.57187" lon="26.84263">
        <ele>79.2</ele>
      </trkpt>
      <trkpt lat="40.5713" lon="26.84308">
        <ele>84.7</ele>
      </trkpt>
      <trkpt lat="40.57045" lon="26.84315">
        <ele>88.8</ele>
      </trkpt>
      <trkpt lat="40.56898" lon="26.84427">
        <ele>94.8</ele>
      </trkpt>
      <trkpt lat="40.56688" lon="26.84606">
        <ele>115.7</ele>
      </trkpt>
      <trkpt lat="40.56574" lon="26.84636">
        <ele>127.7</ele>
      </trkpt>
      <trkpt lat="40.56506" lon="26.84726">
        <ele>137.7</ele>
      </trkpt>
      <trkpt lat="40.56393" lon="26.84801">
        <ele>150</ele>
      </trkpt>
      <trkpt lat="40.56279" lon="26.84898">
        <ele>166.7</ele>
      </trkpt>
      <trkpt lat="40.56239" lon="26.84967">
        <ele>177.7</ele>
      </trkpt>
      <trkpt lat="40.56255" lon="26.85057">
        <ele>180.2</ele>
      </trkpt>
      <trkpt lat="40.56114" lon="26.85094">
        <ele>199.4</ele>
      </trkpt>
      <trkpt lat="40.56026" lon="26.85115">
        <ele>212.4</ele>
      </trkpt>
      <trkpt lat="40.55966" lon="26.85195">
        <ele>218.9</ele>
      </trkpt>
      <trkpt lat="40.55958" lon="26.85358">
        <ele>228.2</ele>
      </trkpt>
      <trkpt lat="40.55966" lon="26.85432">
        <ele>233.6</ele>
      </trkpt>
      <trkpt lat="40.56002" lon="26.85522">
        <ele>240</ele>
      </trkpt>
      <trkpt lat="40.56002" lon="26.85596">
        <ele>246.6</ele>
      </trkpt>
      <trkpt lat="40.55946" lon="26.85681">
        <ele>258.2</ele>
      </trkpt>
      <trkpt lat="40.55906" lon="26.85755">
        <ele>260.8</ele>
      </trkpt>
      <trkpt lat="40.5595" lon="26.85871">
        <ele>252.1</ele>
      </trkpt>
      <trkpt lat="40.55946" lon="26.85977">
        <ele>237.6</ele>
      </trkpt>
      <trkpt lat="40.55942" lon="26.86109">
        <ele>218.7</ele>
      </trkpt>
      <trkpt lat="40.55845" lon="26.86167">
        <ele>188.2</ele>
      </trkpt>
      <trkpt lat="40.55801" lon="26.86278">
        <ele>174.7</ele>
      </trkpt>
      <trkpt lat="40.55726" lon="26.86535">
        <ele>163.3</ele>
      </trkpt>
      <trkpt lat="40.5569" lon="26.86773">
        <ele>139.5</ele>
      </trkpt>
      <trkpt lat="40.55658" lon="26.86937">
        <ele>131.6</ele>
      </trkpt>
      <trkpt lat="40.55682" lon="26.87037">
        <ele>125.3</ele>
      </trkpt>
      <trkpt lat="40.55694" lon="26.87133">
        <ele>120</ele>
      </trkpt>
      <trkpt lat="40.5565" lon="26.87243">
        <ele>113.8</ele>
      </trkpt>
      <trkpt lat="40.55594" lon="26.87327">
        <ele>110.7</ele>
      </trkpt>
      <trkpt lat="40.5547" lon="26.87427">
        <ele>103.4</ele>
      </trkpt>
      <trkpt lat="40.55426" lon="26.87486">
        <ele>101.5</ele>
      </trkpt>
      <trkpt lat="40.55357" lon="26.87522">
        <ele>100.6</ele>
      </trkpt>
      <trkpt lat="40.55194" lon="26.87557">
        <ele>96.7</ele>
      </trkpt>
      <trkpt lat="40.5511" lon="26.87568">
        <ele>95.1</ele>
      </trkpt>
      <trkpt lat="40.55001" lon="26.87663">
        <ele>86.2</ele>
      </trkpt>
      <trkpt lat="40.54714" lon="26.87928">
        <ele>69</ele>
      </trkpt>
      <trkpt lat="40.54521" lon="26.88117">
        <ele>59.1</ele>
      </trkpt>
      <trkpt lat="40.54388" lon="26.88249">
        <ele>54.6</ele>
      </trkpt>
      <trkpt lat="40.54324" lon="26.88296">
        <ele>51.7</ele>
      </trkpt>
      <trkpt lat="40.54277" lon="26.88265">
        <ele>50.4</ele>
      </trkpt>
      <trkpt lat="40.54233" lon="26.88207">
        <ele>53.2</ele>
      </trkpt>
      <trkpt lat="40.5416" lon="26.88128">
        <ele>56.4</ele>
      </trkpt>
      <trkpt lat="40.54108" lon="26.87985">
        <ele>55.3</ele>
      </trkpt>
      <trkpt lat="40.54044" lon="26.87821">
        <ele>61.6</ele>
      </trkpt>
      <trkpt lat="40.53996" lon="26.87705">
        <ele>63.8</ele>
      </trkpt>
      <trkpt lat="40.53972" lon="26.8761">
        <ele>63.6</ele>
      </trkpt>
      <trkpt lat="40.53972" lon="26.87467">
        <ele>62.2</ele>
      </trkpt>
      <trkpt lat="40.53943" lon="26.87383">
        <ele>65.2</ele>
      </trkpt>
      <trkpt lat="40.53927" lon="26.8723">
        <ele>71.1</ele>
      </trkpt>
      <trkpt lat="40.53939" lon="26.87129">
        <ele>73.8</ele>
      </trkpt>
      <trkpt lat="40.53983" lon="26.86987">
        <ele>77</ele>
      </trkpt>
      <trkpt lat="40.54004" lon="26.86907">
        <ele>78.6</ele>
      </trkpt>
      <trkpt lat="40.54036" lon="26.86788">
        <ele>83.2</ele>
      </trkpt>
      <trkpt lat="40.54052" lon="26.86653">
        <ele>86.7</ele>
      </trkpt>
      <trkpt lat="40.54049" lon="26.86555">
        <ele>89.8</ele>
      </trkpt>
      <trkpt lat="40.53994" lon="26.86335">
        <ele>101.9</ele>
      </trkpt>
      <trkpt lat="40.53965" lon="26.86252">
        <ele>105.1</ele>
      </trkpt>
      <trkpt lat="40.53909" lon="26.86177">
        <ele>107.1</ele>
      </trkpt>
      <trkpt lat="40.53854" lon="26.85984">
        <ele>103.7</ele>
      </trkpt>
      <trkpt lat="40.53762" lon="26.85658">
        <ele>106.3</ele>
      </trkpt>
      <trkpt lat="40.53707" lon="26.85516">
        <ele>106.2</ele>
      </trkpt>
      <trkpt lat="40.53639" lon="26.85374">
        <ele>106.3</ele>
      </trkpt>
      <trkpt lat="40.53583" lon="26.85301">
        <ele>104.5</ele>
      </trkpt>
      <trkpt lat="40.53483" lon="26.85205">
        <ele>106</ele>
      </trkpt>
      <trkpt lat="40.5334" lon="26.84926">
        <ele>102.5</ele>
      </trkpt>
      <trkpt lat="40.5323" lon="26.84685">
        <ele>92.2</ele>
      </trkpt>
      <trkpt lat="40.53224" lon="26.84372">
        <ele>83.5</ele>
      </trkpt>
      <trkpt lat="40.53181" lon="26.84286">
        <ele>86.9</ele>
      </trkpt>
      <trkpt lat="40.53158" lon="26.84153">
        <ele>92.1</ele>
      </trkpt>
      <trkpt lat="40.53044" lon="26.83874">
        <ele>94.1</ele>
      </trkpt>
      <trkpt lat="40.52757" lon="26.83685">
        <ele>80.6</ele>
      </trkpt>
      <trkpt lat="40.52745" lon="26.83655">
        <ele>79</ele>
      </trkpt>
      <trkpt lat="40.52752" lon="26.83616">
        <ele>76.5</ele>
      </trkpt>
      <trkpt lat="40.5281" lon="26.83496">
        <ele>68.5</ele>
      </trkpt>
      <trkpt lat="40.52732" lon="26.83406">
        <ele>68.6</ele>
      </trkpt>
      <trkpt lat="40.52549" lon="26.8323">
        <ele>76.4</ele>
      </trkpt>
      <trkpt lat="40.52471" lon="26.82973">
        <ele>79.6</ele>
      </trkpt>
      <trkpt lat="40.52406" lon="26.82543">
        <ele>85.9</ele>
      </trkpt>
      <trkpt lat="40.5209" lon="26.82217">
        <ele>76.7</ele>
      </trkpt>
      <trkpt lat="40.52073" lon="26.82183">
        <ele>75</ele>
      </trkpt>
      <trkpt lat="40.52142" lon="26.82033">
        <ele>72.1</ele>
      </trkpt>
      <trkpt lat="40.52047" lon="26.81784">
        <ele>83.1</ele>
      </trkpt>
      <trkpt lat="40.52044" lon="26.81707">
        <ele>83.2</ele>
      </trkpt>
      <trkpt lat="40.5207" lon="26.81586">
        <ele>84.2</ele>
      </trkpt>
      <trkpt lat="40.51839" lon="26.81175">
        <ele>87.9</ele>
      </trkpt>
      <trkpt lat="40.5165" lon="26.80947">
        <ele>76.1</ele>
      </trkpt>
      <trkpt lat="40.51549" lon="26.80604">
        <ele>61.7</ele>
      </trkpt>
      <trkpt lat="40.51412" lon="26.80531">
        <ele>60</ele>
      </trkpt>
      <trkpt lat="40.51185" lon="26.80316">
        <ele>59.7</ele>
      </trkpt>
      <trkpt lat="40.51192" lon="26.80247">
        <ele>62.5</ele>
      </trkpt>
      <trkpt lat="40.51251" lon="26.8002">
        <ele>60</ele>
      </trkpt>
      <trkpt lat="40.51424" lon="26.79818">
        <ele>56.7</ele>
      </trkpt>
      <trkpt lat="40.51342" lon="26.79771">
        <ele>57.1</ele>
      </trkpt>
      <trkpt lat="40.51295" lon="26.79666">
        <ele>61.9</ele>
      </trkpt>
      <trkpt lat="40.51279" lon="26.79537">
        <ele>70.1</ele>
      </trkpt>
      <trkpt lat="40.51286" lon="26.79379">
        <ele>77.8</ele>
      </trkpt>
      <trkpt lat="40.51279" lon="26.7925">
        <ele>81.5</ele>
      </trkpt>
      <trkpt lat="40.51299" lon="26.79177">
        <ele>85.8</ele>
      </trkpt>
      <trkpt lat="40.5143" lon="26.7883">
        <ele>81.8</ele>
      </trkpt>
      <trkpt lat="40.51205" lon="26.78688">
        <ele>70.8</ele>
      </trkpt>
      <trkpt lat="40.51263" lon="26.78508">
        <ele>59.5</ele>
      </trkpt>
      <trkpt lat="40.51292" lon="26.78268">
        <ele>44.8</ele>
      </trkpt>
      <trkpt lat="40.51273" lon="26.78053">
        <ele>29.1</ele>
      </trkpt>
      <trkpt lat="40.51234" lon="26.77873">
        <ele>19.3</ele>
      </trkpt>
      <trkpt lat="40.51247" lon="26.7783">
        <ele>20.1</ele>
      </trkpt>
      <trkpt lat="40.51322" lon="26.77805">
        <ele>21.1</ele>
      </trkpt>
      <trkpt lat="40.51548" lon="26.7769">
        <ele>29.9</ele>
      </trkpt>
      <trkpt lat="40.51663" lon="26.7769">
        <ele>31.5</ele>
      </trkpt>
      <trkpt lat="40.51738" lon="26.7775">
        <ele>31.8</ele>
      </trkpt>
      <trkpt lat="40.51813" lon="26.77853">
        <ele>29</ele>
      </trkpt>
      <trkpt lat="40.52008" lon="26.77977">
        <ele>27.6</ele>
      </trkpt>
      <trkpt lat="40.52108" lon="26.77926">
        <ele>28.7</ele>
      </trkpt>
      <trkpt lat="40.5218" lon="26.77879">
        <ele>27.9</ele>
      </trkpt>
      <trkpt lat="40.52288" lon="26.77896">
        <ele>27.3</ele>
      </trkpt>
      <trkpt lat="40.52323" lon="26.77823">
        <ele>30.6</ele>
      </trkpt>
      <trkpt lat="40.52408" lon="26.77308">
        <ele>42.5</ele>
      </trkpt>
      <trkpt lat="40.52372" lon="26.77085">
        <ele>47.3</ele>
      </trkpt>
      <trkpt lat="40.52392" lon="26.76982">
        <ele>44.9</ele>
      </trkpt>
      <trkpt lat="40.52356" lon="26.76819">
        <ele>45.6</ele>
      </trkpt>
      <trkpt lat="40.52323" lon="26.76587">
        <ele>47</ele>
      </trkpt>
      <trkpt lat="40.52183" lon="26.76437">
        <ele>55.4</ele>
      </trkpt>
      <trkpt lat="40.52072" lon="26.76316">
        <ele>59.2</ele>
      </trkpt>
      <trkpt lat="40.51909" lon="26.7608">
        <ele>65.4</ele>
      </trkpt>
      <trkpt lat="40.51843" lon="26.75904">
        <ele>70.9</ele>
      </trkpt>
      <trkpt lat="40.51785" lon="26.7581">
        <ele>78.2</ele>
      </trkpt>
      <trkpt lat="40.51533" lon="26.75737">
        <ele>100.4</ele>
      </trkpt>
      <trkpt lat="40.51495" lon="26.75721">
        <ele>103.1</ele>
      </trkpt>
      <trkpt lat="40.51455" lon="26.75756">
        <ele>107.6</ele>
      </trkpt>
      <trkpt lat="40.51346" lon="26.75839">
        <ele>115.1</ele>
      </trkpt>
      <trkpt lat="40.51216" lon="26.75941">
        <ele>117.1</ele>
      </trkpt>
      <trkpt lat="40.51195" lon="26.75956">
        <ele>117.6</ele>
      </trkpt>
      <trkpt lat="40.51152" lon="26.75861">
        <ele>123</ele>
      </trkpt>
      <trkpt lat="40.51131" lon="26.75795">
        <ele>124</ele>
      </trkpt>
      <trkpt lat="40.51128" lon="26.75729">
        <ele>125.5</ele>
      </trkpt>
      <trkpt lat="40.51165" lon="26.75633">
        <ele>131.1</ele>
      </trkpt>
      <trkpt lat="40.51241" lon="26.75466">
        <ele>128.7</ele>
      </trkpt>
      <trkpt lat="40.51234" lon="26.75451">
        <ele>128.4</ele>
      </trkpt>
      <trkpt lat="40.51166" lon="26.75436">
        <ele>127.3</ele>
      </trkpt>
      <trkpt lat="40.51136" lon="26.75439">
        <ele>126.2</ele>
      </trkpt>
      <trkpt lat="40.51107" lon="26.75466">
        <ele>126.1</ele>
      </trkpt>
      <trkpt lat="40.51076" lon="26.75462">
        <ele>124.6</ele>
      </trkpt>
      <trkpt lat="40.50986" lon="26.7542">
        <ele>121.5</ele>
      </trkpt>
      <trkpt lat="40.509" lon="26.75404">
        <ele>115.4</ele>
      </trkpt>
      <trkpt lat="40.50813" lon="26.75398">
        <ele>109.4</ele>
      </trkpt>
      <trkpt lat="40.50722" lon="26.75427">
        <ele>107.2</ele>
      </trkpt>
      <trkpt lat="40.5066" lon="26.75445">
        <ele>105</ele>
      </trkpt>
      <trkpt lat="40.50606" lon="26.75451">
        <ele>102.3</ele>
      </trkpt>
      <trkpt lat="40.50494" lon="26.7543">
        <ele>96.8</ele>
      </trkpt>
      <trkpt lat="40.50375" lon="26.75413">
        <ele>93.8</ele>
      </trkpt>
      <trkpt lat="40.50179" lon="26.75383">
        <ele>92.6</ele>
      </trkpt>
      <trkpt lat="40.50129" lon="26.75377">
        <ele>93.9</ele>
      </trkpt>
      <trkpt lat="40.50062" lon="26.75405">
        <ele>94</ele>
      </trkpt>
      <trkpt lat="40.49941" lon="26.75431">
        <ele>88.3</ele>
      </trkpt>
      <trkpt lat="40.49884" lon="26.7544">
        <ele>85.1</ele>
      </trkpt>
      <trkpt lat="40.49818" lon="26.75434">
        <ele>82.6</ele>
      </trkpt>
      <trkpt lat="40.49743" lon="26.75398">
        <ele>78.9</ele>
      </trkpt>
      <trkpt lat="40.49703" lon="26.75369">
        <ele>76.8</ele>
      </trkpt>
      <trkpt lat="40.49625" lon="26.75319">
        <ele>70.5</ele>
      </trkpt>
      <trkpt lat="40.49513" lon="26.75295">
        <ele>60.6</ele>
      </trkpt>
      <trkpt lat="40.49426" lon="26.75272">
        <ele>55.9</ele>
      </trkpt>
      <trkpt lat="40.49396" lon="26.7526">
        <ele>54.2</ele>
      </trkpt>
      <trkpt lat="40.49356" lon="26.75219">
        <ele>48.5</ele>
      </trkpt>
      <trkpt lat="40.49317" lon="26.7519">
        <ele>44.3</ele>
      </trkpt>
      <trkpt lat="40.49262" lon="26.75167">
        <ele>41.9</ele>
      </trkpt>
      <trkpt lat="40.49213" lon="26.75163">
        <ele>38.5</ele>
      </trkpt>
      <trkpt lat="40.49148" lon="26.75157">
        <ele>33.6</ele>
      </trkpt>
      <trkpt lat="40.49094" lon="26.75139">
        <ele>30.3</ele>
      </trkpt>
      <trkpt lat="40.49056" lon="26.75126">
        <ele>29.4</ele>
      </trkpt>
      <trkpt lat="40.49036" lon="26.7507">
        <ele>25.6</ele>
      </trkpt>
      <trkpt lat="40.4902" lon="26.75034">
        <ele>26.7</ele>
      </trkpt>
      <trkpt lat="40.48975" lon="26.75023">
        <ele>24.4</ele>
      </trkpt>
      <trkpt lat="40.48835" lon="26.74985">
        <ele>19.9</ele>
      </trkpt>
      <trkpt lat="40.48756" lon="26.74974">
        <ele>21.7</ele>
      </trkpt>
      <trkpt lat="40.48646" lon="26.74985">
        <ele>18.4</ele>
      </trkpt>
      <trkpt lat="40.48591" lon="26.74991">
        <ele>15.2</ele>
      </trkpt>
      <trkpt lat="40.48548" lon="26.74951">
        <ele>15.8</ele>
      </trkpt>
      <trkpt lat="40.48448" lon="26.74799">
        <ele>16.3</ele>
      </trkpt>
      <trkpt lat="40.483" lon="26.74583">
        <ele>12.1</ele>
      </trkpt>
      <trkpt lat="40.48257" lon="26.74522">
        <ele>9.7</ele>
      </trkpt>
      <trkpt lat="40.48223" lon="26.74461">
        <ele>12.2</ele>
      </trkpt>
      <trkpt lat="40.48166" lon="26.74397">
        <ele>11.1</ele>
      </trkpt>
      <trkpt lat="40.47965" lon="26.74215">
        <ele>10.8</ele>
      </trkpt>
      <trkpt lat="40.47911" lon="26.74121">
        <ele>12.9</ele>
      </trkpt>
      <trkpt lat="40.47843" lon="26.74051">
        <ele>16.5</ele>
      </trkpt>
      <trkpt lat="40.4774" lon="26.73951">
        <ele>10.8</ele>
      </trkpt>
      <trkpt lat="40.47675" lon="26.73885">
        <ele>10.2</ele>
      </trkpt>
      <trkpt lat="40.47614" lon="26.73801">
        <ele>11.4</ele>
      </trkpt>
      <trkpt lat="40.47495" lon="26.73662">
        <ele>10.6</ele>
      </trkpt>
      <trkpt lat="40.47464" lon="26.73625">
        <ele>8.5</ele>
      </trkpt>
      <trkpt lat="40.47442" lon="26.73547">
        <ele>10.6</ele>
      </trkpt>
      <trkpt lat="40.47376" lon="26.73421">
        <ele>10</ele>
      </trkpt>
      <trkpt lat="40.47354" lon="26.73347">
        <ele>9</ele>
      </trkpt>
      <trkpt lat="40.47344" lon="26.73291">
        <ele>8.8</ele>
      </trkpt>
      <trkpt lat="40.47314" lon="26.73236">
        <ele>7.3</ele>
      </trkpt>
      <trkpt lat="40.47272" lon="26.73168">
        <ele>6.6</ele>
      </trkpt>
      <trkpt lat="40.47235" lon="26.73126">
        <ele>7.1</ele>
      </trkpt>
      <trkpt lat="40.47176" lon="26.73077">
        <ele>9.7</ele>
      </trkpt>
      <trkpt lat="40.47097" lon="26.73028">
        <ele>12.6</ele>
      </trkpt>
      <trkpt lat="40.4703" lon="26.72999">
        <ele>13.2</ele>
      </trkpt>
      <trkpt lat="40.46936" lon="26.72996">
        <ele>13.2</ele>
      </trkpt>
      <trkpt lat="40.4686" lon="26.72916">
        <ele>15.3</ele>
      </trkpt>
      <trkpt lat="40.46803" lon="26.72864">
        <ele>13.6</ele>
      </trkpt>
      <trkpt lat="40.46754" lon="26.72786">
        <ele>10.3</ele>
      </trkpt>
      <trkpt lat="40.46717" lon="26.72715">
        <ele>11</ele>
      </trkpt>
      <trkpt lat="40.4667" lon="26.72666">
        <ele>10.4</ele>
      </trkpt>
      <trkpt lat="40.46618" lon="26.72641">
        <ele>10.5</ele>
      </trkpt>
      <trkpt lat="40.46563" lon="26.72585">
        <ele>13.1</ele>
      </trkpt>
      <trkpt lat="40.46501" lon="26.72576">
        <ele>11.7</ele>
      </trkpt>
      <trkpt lat="40.46457" lon="26.72546">
        <ele>12.3</ele>
      </trkpt>
      <trkpt lat="40.46405" lon="26.72498">
        <ele>13.4</ele>
      </trkpt>
      <trkpt lat="40.4636" lon="26.72423">
        <ele>12.1</ele>
      </trkpt>
      <trkpt lat="40.46338" lon="26.72348">
        <ele>11.2</ele>
      </trkpt>
      <trkpt lat="40.46331" lon="26.72254">
        <ele>13.6</ele>
      </trkpt>
      <trkpt lat="40.46263" lon="26.72147">
        <ele>16.5</ele>
      </trkpt>
      <trkpt lat="40.46193" lon="26.72128">
        <ele>11.4</ele>
      </trkpt>
      <trkpt lat="40.46166" lon="26.72079">
        <ele>11.5</ele>
      </trkpt>
      <trkpt lat="40.46151" lon="26.72046">
        <ele>13.8</ele>
      </trkpt>
      <trkpt lat="40.46046" lon="26.71924">
        <ele>13.4</ele>
      </trkpt>
      <trkpt lat="40.4599" lon="26.71842">
        <ele>15.7</ele>
      </trkpt>
      <trkpt lat="40.45935" lon="26.71741">
        <ele>18.4</ele>
      </trkpt>
      <trkpt lat="40.4592" lon="26.71667">
        <ele>23.4</ele>
      </trkpt>
      <trkpt lat="40.45806" lon="26.71494">
        <ele>20.3</ele>
      </trkpt>
      <trkpt lat="40.45747" lon="26.71403">
        <ele>19.4</ele>
      </trkpt>
      <trkpt lat="40.45653" lon="26.7125">
        <ele>14</ele>
      </trkpt>
      <trkpt lat="40.45653" lon="26.71144">
        <ele>12.7</ele>
      </trkpt>
      <trkpt lat="40.45653" lon="26.71089">
        <ele>12.1</ele>
      </trkpt>
      <trkpt lat="40.45643" lon="26.71011">
        <ele>11.1</ele>
      </trkpt>
      <trkpt lat="40.45655" lon="26.70926">
        <ele>11.1</ele>
      </trkpt>
      <trkpt lat="40.45675" lon="26.70829">
        <ele>12.7</ele>
      </trkpt>
      <trkpt lat="40.45671" lon="26.70546">
        <ele>12.7</ele>
      </trkpt>
      <trkpt lat="40.45669" lon="26.70361">
        <ele>9.1</ele>
      </trkpt>
      <trkpt lat="40.45669" lon="26.70234">
        <ele>12.9</ele>
      </trkpt>
      <trkpt lat="40.45614" lon="26.69993">
        <ele>12</ele>
      </trkpt>
      <trkpt lat="40.45508" lon="26.69723">
        <ele>6.5</ele>
      </trkpt>
      <trkpt lat="40.45379" lon="26.69613">
        <ele>6.8</ele>
      </trkpt>
      <trkpt lat="40.45288" lon="26.69506">
        <ele>5</ele>
      </trkpt>
      <trkpt lat="40.45092" lon="26.69226">
        <ele>4.7</ele>
      </trkpt>
      <trkpt lat="40.44726" lon="26.69106">
        <ele>5.2</ele>
      </trkpt>
      <trkpt lat="40.43742" lon="26.68697">
        <ele>5.2</ele>
      </trkpt>
      <trkpt lat="40.42905" lon="26.68402">
        <ele>16.4</ele>
      </trkpt>
      <trkpt lat="40.42276" lon="26.68334">
        <ele>30.3</ele>
      </trkpt>
      <trkpt lat="40.42123" lon="26.68248">
        <ele>27.9</ele>
      </trkpt>
      <trkpt lat="40.41855" lon="26.68055">
        <ele>13.8</ele>
      </trkpt>
      <trkpt lat="40.4173" lon="26.68035">
        <ele>9.2</ele>
      </trkpt>
      <trkpt lat="40.41591" lon="26.67934">
        <ele>10.5</ele>
      </trkpt>
      <trkpt lat="40.41504" lon="26.67899">
        <ele>8.8</ele>
      </trkpt>
      <trkpt lat="40.4122" lon="26.67906">
        <ele>16</ele>
      </trkpt>
      <trkpt lat="40.40816" lon="26.67707">
        <ele>30.4</ele>
      </trkpt>
      <trkpt lat="40.40672" lon="26.67615">
        <ele>30.1</ele>
      </trkpt>
      <trkpt lat="40.40566" lon="26.6756">
        <ele>26</ele>
      </trkpt>
      <trkpt lat="40.40497" lon="26.67542">
        <ele>22.3</ele>
      </trkpt>
      <trkpt lat="40.40438" lon="26.67462">
        <ele>17.7</ele>
      </trkpt>
      <trkpt lat="40.40436" lon="26.67354">
        <ele>11.8</ele>
      </trkpt>
      <trkpt lat="40.40529" lon="26.67232">
        <ele>12.2</ele>
      </trkpt>
      <trkpt lat="40.40608" lon="26.67065">
        <ele>7.9</ele>
      </trkpt>
      <trkpt lat="40.40579" lon="26.66995">
        <ele>6.9</ele>
      </trkpt>
      <trkpt lat="40.34757" lon="26.68498">
        <ele>8.4</ele>
      </trkpt>
      <trkpt lat="40.34677" lon="26.68453">
        <ele>9.6</ele>
      </trkpt>
      <trkpt lat="40.34557" lon="26.68426">
        <ele>12.2</ele>
      </trkpt>
      <trkpt lat="40.34451" lon="26.68384">
        <ele>12.8</ele>
      </trkpt>
      <trkpt lat="40.3427" lon="26.68207">
        <ele>9.6</ele>
      </trkpt>
      <trkpt lat="40.33572" lon="26.67279">
        <ele>9.4</ele>
      </trkpt>
      <trkpt lat="40.33267" lon="26.66447">
        <ele>7.3</ele>
      </trkpt>
      <trkpt lat="40.30528" lon="26.63932">
        <ele>38.1</ele>
      </trkpt>
      <trkpt lat="40.28862" lon="26.62399">
        <ele>53.5</ele>
      </trkpt>
      <trkpt lat="40.26782" lon="26.59588">
        <ele>8.7</ele>
      </trkpt>
      <trkpt lat="40.24492" lon="26.56471">
        <ele>69.4</ele>
      </trkpt>
      <trkpt lat="40.19669" lon="26.51733">
        <ele>21.5</ele>
      </trkpt>
      <trkpt lat="40.15385" lon="26.45586">
        <ele>59</ele>
      </trkpt>
      <trkpt lat="40.14388" lon="26.45243">
        <ele>13.3</ele>
      </trkpt>
      <trkpt lat="40.13679" lon="26.45003">
        <ele>21.9</ele>
      </trkpt>
      <trkpt lat="40.13311" lon="26.44488">
        <ele>27</ele>
      </trkpt>
      <trkpt lat="40.13154" lon="26.43733">
        <ele>24.6</ele>
      </trkpt>
      <trkpt lat="40.13075" lon="26.42909">
        <ele>12.8</ele>
      </trkpt>
      <trkpt lat="40.12726" lon="26.42304">
        <ele>20.4</ele>
      </trkpt>
      <trkpt lat="40.12437" lon="26.42166">
        <ele>29</ele>
      </trkpt>
      <trkpt lat="40.11912" lon="26.41274">
        <ele>9.2</ele>
      </trkpt>
      <trkpt lat="40.10993" lon="26.40827">
        <ele>17.1</ele>
      </trkpt>
      <trkpt lat="40.10153" lon="26.40518">
        <ele>29.3</ele>
      </trkpt>
      <trkpt lat="40.09444" lon="26.40106">
        <ele>40.1</ele>
      </trkpt>
      <trkpt lat="40.08157" lon="26.38424">
        <ele>21.9</ele>
      </trkpt>
      <trkpt lat="40.07494" lon="26.37971">
        <ele>60.7</ele>
      </trkpt>
      <trkpt lat="40.07289" lon="26.37787">
        <ele>67.4</ele>
      </trkpt>
      <trkpt lat="40.07092" lon="26.37444">
        <ele>50.1</ele>
      </trkpt>
      <trkpt lat="40.06974" lon="26.36894">
        <ele>32.7</ele>
      </trkpt>
      <trkpt lat="40.06855" lon="26.36448">
        <ele>26.3</ele>
      </trkpt>
      <trkpt lat="40.06553" lon="26.36113">
        <ele>37.8</ele>
      </trkpt>
      <trkpt lat="40.05101" lon="26.35611">
        <ele>17</ele>
      </trkpt>
      <trkpt lat="40.04861" lon="26.35491">
        <ele>18.2</ele>
      </trkpt>
      <trkpt lat="40.04375" lon="26.35097">
        <ele>36.1</ele>
      </trkpt>
      <trkpt lat="40.04145" lon="26.35011">
        <ele>52.4</ele>
      </trkpt>
      <trkpt lat="40.03902" lon="26.35019">
        <ele>54.8</ele>
      </trkpt>
      <trkpt lat="40.03659" lon="26.35157">
        <ele>59.5</ele>
      </trkpt>
      <trkpt lat="40.03455" lon="26.35105">
        <ele>88.8</ele>
      </trkpt>
      <trkpt lat="40.03317" lon="26.34916">
        <ele>93</ele>
      </trkpt>
      <trkpt lat="40.03153" lon="26.34616">
        <ele>109.2</ele>
      </trkpt>
      <trkpt lat="40.02798" lon="26.34352">
        <ele>155.5</ele>
      </trkpt>
      <trkpt lat="40.02502" lon="26.34094">
        <ele>168.5</ele>
      </trkpt>
      <trkpt lat="40.02397" lon="26.33914">
        <ele>173.6</ele>
      </trkpt>
      <trkpt lat="40.02305" lon="26.33923">
        <ele>168</ele>
      </trkpt>
      <trkpt lat="40.02121" lon="26.3406">
        <ele>171.6</ele>
      </trkpt>
      <trkpt lat="40.02042" lon="26.33991">
        <ele>178.5</ele>
      </trkpt>
      <trkpt lat="40.01825" lon="26.33391">
        <ele>144.2</ele>
      </trkpt>
      <trkpt lat="40.01648" lon="26.33082">
        <ele>132.9</ele>
      </trkpt>
      <trkpt lat="40.01273" lon="26.32773">
        <ele>128.4</ele>
      </trkpt>
      <trkpt lat="40.00742" lon="26.32462">
        <ele>132.5</ele>
      </trkpt>
      <trkpt lat="40.0044" lon="26.32221">
        <ele>115.6</ele>
      </trkpt>
      <trkpt lat="39.9964" lon="26.31301">
        <ele>73.1</ele>
      </trkpt>
      <trkpt lat="39.98484" lon="26.30433">
        <ele>65.1</ele>
      </trkpt>
      <trkpt lat="39.97331" lon="26.30004">
        <ele>40</ele>
      </trkpt>
      <trkpt lat="39.95665" lon="26.29279">
        <ele>108.7</ele>
      </trkpt>
      <trkpt lat="39.95401" lon="26.29269">
        <ele>97.8</ele>
      </trkpt>
      <trkpt lat="39.95129" lon="26.29289">
        <ele>84.9</ele>
      </trkpt>
      <trkpt lat="39.93265" lon="26.29874">
        <ele>54.8</ele>
      </trkpt>
      <trkpt lat="39.91629" lon="26.30069">
        <ele>39.4</ele>
      </trkpt>
      <trkpt lat="39.91147" lon="26.30362">
        <ele>34.7</ele>
      </trkpt>
      <trkpt lat="39.89864" lon="26.31479">
        <ele>127.2</ele>
      </trkpt>
      <trkpt lat="39.89307" lon="26.31785">
        <ele>149.3</ele>
      </trkpt>
      <trkpt lat="39.88837" lon="26.32482">
        <ele>171.8</ele>
      </trkpt>
      <trkpt lat="39.88334" lon="26.32552">
        <ele>192.4</ele>
      </trkpt>
      <trkpt lat="39.8774" lon="26.32546">
        <ele>148.9</ele>
      </trkpt>
      <trkpt lat="39.86884" lon="26.32337">
        <ele>93.9</ele>
      </trkpt>
      <trkpt lat="39.86263" lon="26.3196">
        <ele>42.9</ele>
      </trkpt>
      <trkpt lat="39.8592" lon="26.32156">
        <ele>42.4</ele>
      </trkpt>
      <trkpt lat="39.85685" lon="26.321">
        <ele>53.1</ele>
      </trkpt>
      <trkpt lat="39.85255" lon="26.31684">
        <ele>37</ele>
      </trkpt>
      <trkpt lat="39.84911" lon="26.31668">
        <ele>43.8</ele>
      </trkpt>
      <trkpt lat="39.84517" lon="26.31957">
        <ele>48.8</ele>
      </trkpt>
      <trkpt lat="39.84087" lon="26.31844">
        <ele>44.7</ele>
      </trkpt>
      <trkpt lat="39.83926" lon="26.32176">
        <ele>40.6</ele>
      </trkpt>
      <trkpt lat="39.83788" lon="26.32445">
        <ele>45</ele>
      </trkpt>
      <trkpt lat="39.83525" lon="26.32572">
        <ele>41.9</ele>
      </trkpt>
      <trkpt lat="39.83111" lon="26.32534">
        <ele>43.3</ele>
      </trkpt>
      <trkpt lat="39.82693" lon="26.32597">
        <ele>41.4</ele>
      </trkpt>
      <trkpt lat="39.82085" lon="26.32731">
        <ele>42.2</ele>
      </trkpt>
      <trkpt lat="39.81632" lon="26.33045">
        <ele>46.8</ele>
      </trkpt>
      <trkpt lat="39.81437" lon="26.33207">
        <ele>49.7</ele>
      </trkpt>
      <trkpt lat="39.80917" lon="26.33293">
        <ele>44.5</ele>
      </trkpt>
      <trkpt lat="39.80402" lon="26.33378">
        <ele>47.1</ele>
      </trkpt>
      <trkpt lat="39.79945" lon="26.33593">
        <ele>44.4</ele>
      </trkpt>
      <trkpt lat="39.78408" lon="26.34417">
        <ele>53</ele>
      </trkpt>
      <trkpt lat="39.77546" lon="26.34905">
        <ele>61.2</ele>
      </trkpt>
      <trkpt lat="39.77045" lon="26.35103">
        <ele>78.1</ele>
      </trkpt>
      <trkpt lat="39.76622" lon="26.35163">
        <ele>78.1</ele>
      </trkpt>
      <trkpt lat="39.76279" lon="26.35378">
        <ele>76.1</ele>
      </trkpt>
      <trkpt lat="39.7585" lon="26.36244">
        <ele>86.1</ele>
      </trkpt>
      <trkpt lat="39.75425" lon="26.36958">
        <ele>65.2</ele>
      </trkpt>
      <trkpt lat="39.75194" lon="26.37061">
        <ele>61.6</ele>
      </trkpt>
      <trkpt lat="39.74956" lon="26.37035">
        <ele>65.9</ele>
      </trkpt>
      <trkpt lat="39.74441" lon="26.36924">
        <ele>72.7</ele>
      </trkpt>
      <trkpt lat="39.73589" lon="26.36728">
        <ele>75.8</ele>
      </trkpt>
      <trkpt lat="39.73312" lon="26.36754">
        <ele>75.2</ele>
      </trkpt>
      <trkpt lat="39.72617" lon="26.36882">
        <ele>76.1</ele>
      </trkpt>
      <trkpt lat="39.71785" lon="26.36857">
        <ele>78.9</ele>
      </trkpt>
      <trkpt lat="39.71544" lon="26.36943">
        <ele>79.1</ele>
      </trkpt>
      <trkpt lat="39.70864" lon="26.37407">
        <ele>81.6</ele>
      </trkpt>
      <trkpt lat="39.69979" lon="26.38279">
        <ele>91.1</ele>
      </trkpt>
      <trkpt lat="39.6955" lon="26.38511">
        <ele>89</ele>
      </trkpt>
      <trkpt lat="39.69173" lon="26.38923">
        <ele>92.1</ele>
      </trkpt>
      <trkpt lat="39.68867" lon="26.39045">
        <ele>93</ele>
      </trkpt>
      <trkpt lat="39.68213" lon="26.38933">
        <ele>111.4</ele>
      </trkpt>
      <trkpt lat="39.67896" lon="26.38951">
        <ele>117.8</ele>
      </trkpt>
      <trkpt lat="39.67354" lon="26.3917">
        <ele>124.5</ele>
      </trkpt>
      <trkpt lat="39.66535" lon="26.3911">
        <ele>144.3</ele>
      </trkpt>
      <trkpt lat="39.66143" lon="26.39351">
        <ele>159.2</ele>
      </trkpt>
      <trkpt lat="39.658" lon="26.39686">
        <ele>166.5</ele>
      </trkpt>
      <trkpt lat="39.65422" lon="26.4017">
        <ele>178.3</ele>
      </trkpt>
      <trkpt lat="39.65177" lon="26.4035">
        <ele>195.6</ele>
      </trkpt>
      <trkpt lat="39.64893" lon="26.40359">
        <ele>200.5</ele>
      </trkpt>
      <trkpt lat="39.64028" lon="26.40203">
        <ele>225.9</ele>
      </trkpt>
      <trkpt lat="39.63334" lon="26.40066">
        <ele>247</ele>
      </trkpt>
      <trkpt lat="39.63023" lon="26.40229">
        <ele>263.8</ele>
      </trkpt>
      <trkpt lat="39.62798" lon="26.40538">
        <ele>273</ele>
      </trkpt>
      <trkpt lat="39.62613" lon="26.40718">
        <ele>280.8</ele>
      </trkpt>
      <trkpt lat="39.62181" lon="26.40727">
        <ele>289</ele>
      </trkpt>
      <trkpt lat="39.60713" lon="26.41225">
        <ele>268.2</ele>
      </trkpt>
      <trkpt lat="39.59999" lon="26.42967">
        <ele>256.2</ele>
      </trkpt>
      <trkpt lat="39.59463" lon="26.44263">
        <ele>270</ele>
      </trkpt>
      <trkpt lat="39.5939" lon="26.44667">
        <ele>283.4</ele>
      </trkpt>
      <trkpt lat="39.5945" lon="26.45139">
        <ele>318.2</ele>
      </trkpt>
      <trkpt lat="39.59595" lon="26.45748">
        <ele>345.9</ele>
      </trkpt>
      <trkpt lat="39.59524" lon="26.46235">
        <ele>341.5</ele>
      </trkpt>
      <trkpt lat="39.59293" lon="26.46784">
        <ele>352.4</ele>
      </trkpt>
      <trkpt lat="39.58903" lon="26.4729">
        <ele>350</ele>
      </trkpt>
      <trkpt lat="39.58784" lon="26.47582">
        <ele>344.6</ele>
      </trkpt>
      <trkpt lat="39.58618" lon="26.48234">
        <ele>379</ele>
      </trkpt>
      <trkpt lat="39.58392" lon="26.48684">
        <ele>383.4</ele>
      </trkpt>
      <trkpt lat="39.58259" lon="26.5004">
        <ele>401.3</ele>
      </trkpt>
      <trkpt lat="39.58173" lon="26.51087">
        <ele>421.8</ele>
      </trkpt>
      <trkpt lat="39.58208" lon="26.51888">
        <ele>410.3</ele>
      </trkpt>
      <trkpt lat="39.58144" lon="26.52216">
        <ele>418</ele>
      </trkpt>
      <trkpt lat="39.5811" lon="26.52404">
        <ele>427.3</ele>
      </trkpt>
      <trkpt lat="39.58147" lon="26.52648">
        <ele>441.9</ele>
      </trkpt>
      <trkpt lat="39.58292" lon="26.52853">
        <ele>451</ele>
      </trkpt>
      <trkpt lat="39.58304" lon="26.53101">
        <ele>454.3</ele>
      </trkpt>
      <trkpt lat="39.58162" lon="26.53301">
        <ele>453.8</ele>
      </trkpt>
      <trkpt lat="39.58039" lon="26.53537">
        <ele>445.5</ele>
      </trkpt>
      <trkpt lat="39.57928" lon="26.53782">
        <ele>427.4</ele>
      </trkpt>
      <trkpt lat="39.57948" lon="26.53926">
        <ele>424</ele>
      </trkpt>
      <trkpt lat="39.58087" lon="26.54006">
        <ele>423.2</ele>
      </trkpt>
      <trkpt lat="39.58108" lon="26.5427">
        <ele>414</ele>
      </trkpt>
      <trkpt lat="39.58034" lon="26.54434">
        <ele>401.9</ele>
      </trkpt>
      <trkpt lat="39.57855" lon="26.54434">
        <ele>392.3</ele>
      </trkpt>
      <trkpt lat="39.5766" lon="26.54396">
        <ele>387.5</ele>
      </trkpt>
      <trkpt lat="39.57487" lon="26.54263">
        <ele>361</ele>
      </trkpt>
      <trkpt lat="39.57305" lon="26.54344">
        <ele>346.4</ele>
      </trkpt>
      <trkpt lat="39.57144" lon="26.54516">
        <ele>330.7</ele>
      </trkpt>
      <trkpt lat="39.57076" lon="26.54552">
        <ele>318.7</ele>
      </trkpt>
      <trkpt lat="39.56949" lon="26.5444">
        <ele>307.3</ele>
      </trkpt>
      <trkpt lat="39.56906" lon="26.54472">
        <ele>302.9</ele>
      </trkpt>
      <trkpt lat="39.56921" lon="26.54552">
        <ele>301.3</ele>
      </trkpt>
      <trkpt lat="39.57032" lon="26.54636">
        <ele>308.9</ele>
      </trkpt>
      <trkpt lat="39.57008" lon="26.54768">
        <ele>299.4</ele>
      </trkpt>
      <trkpt lat="39.56998" lon="26.5488">
        <ele>290</ele>
      </trkpt>
      <trkpt lat="39.57032" lon="26.55004">
        <ele>298.1</ele>
      </trkpt>
      <trkpt lat="39.56974" lon="26.55068">
        <ele>291.6</ele>
      </trkpt>
      <trkpt lat="39.56943" lon="26.55189">
        <ele>307.8</ele>
      </trkpt>
      <trkpt lat="39.56838" lon="26.55221">
        <ele>307.8</ele>
      </trkpt>
      <trkpt lat="39.56742" lon="26.55201">
        <ele>312.2</ele>
      </trkpt>
      <trkpt lat="39.56684" lon="26.55173">
        <ele>307.6</ele>
      </trkpt>
      <trkpt lat="39.56585" lon="26.55281">
        <ele>327.3</ele>
      </trkpt>
      <trkpt lat="39.56483" lon="26.55245">
        <ele>324.1</ele>
      </trkpt>
      <trkpt lat="39.56387" lon="26.55313">
        <ele>334.5</ele>
      </trkpt>
      <trkpt lat="39.56338" lon="26.55365">
        <ele>344.7</ele>
      </trkpt>
      <trkpt lat="39.56193" lon="26.55385">
        <ele>352.4</ele>
      </trkpt>
      <trkpt lat="39.561" lon="26.55365">
        <ele>350.7</ele>
      </trkpt>
      <trkpt lat="39.56026" lon="26.55425">
        <ele>367.6</ele>
      </trkpt>
      <trkpt lat="39.55931" lon="26.55443">
        <ele>362</ele>
      </trkpt>
      <trkpt lat="39.55823" lon="26.55595">
        <ele>355.4</ele>
      </trkpt>
      <trkpt lat="39.55718" lon="26.55579">
        <ele>351.8</ele>
      </trkpt>
      <trkpt lat="39.5557" lon="26.55499">
        <ele>329.3</ele>
      </trkpt>
      <trkpt lat="39.55496" lon="26.55543">
        <ele>320</ele>
      </trkpt>
      <trkpt lat="39.55527" lon="26.55683">
        <ele>326.5</ele>
      </trkpt>
      <trkpt lat="39.5545" lon="26.55852">
        <ele>305.7</ele>
      </trkpt>
      <trkpt lat="39.55447" lon="26.5598">
        <ele>295</ele>
      </trkpt>
      <trkpt lat="39.55544" lon="26.56032">
        <ele>293.9</ele>
      </trkpt>
      <trkpt lat="39.5566" lon="26.5605">
        <ele>294.3</ele>
      </trkpt>
      <trkpt lat="39.55694" lon="26.56072">
        <ele>288.6</ele>
      </trkpt>
      <trkpt lat="39.55695" lon="26.56127">
        <ele>286.8</ele>
      </trkpt>
      <trkpt lat="39.55668" lon="26.5616">
        <ele>282.3</ele>
      </trkpt>
      <trkpt lat="39.55591" lon="26.56183">
        <ele>274.9</ele>
      </trkpt>
      <trkpt lat="39.55544" lon="26.56183">
        <ele>272.7</ele>
      </trkpt>
      <trkpt lat="39.55376" lon="26.56134">
        <ele>260</ele>
      </trkpt>
      <trkpt lat="39.55283" lon="26.56178">
        <ele>242.5</ele>
      </trkpt>
      <trkpt lat="39.55141" lon="26.56263">
        <ele>232.1</ele>
      </trkpt>
      <trkpt lat="39.5486" lon="26.56375">
        <ele>203.6</ele>
      </trkpt>
      <trkpt lat="39.54714" lon="26.56439">
        <ele>187.4</ele>
      </trkpt>
      <trkpt lat="39.54667" lon="26.56521">
        <ele>180.5</ele>
      </trkpt>
      <trkpt lat="39.54694" lon="26.56657">
        <ele>177.2</ele>
      </trkpt>
      <trkpt lat="39.5469" lon="26.56727">
        <ele>173.5</ele>
      </trkpt>
      <trkpt lat="39.54615" lon="26.56858">
        <ele>162.8</ele>
      </trkpt>
      <trkpt lat="39.54559" lon="26.57028">
        <ele>149.9</ele>
      </trkpt>
      <trkpt lat="39.54552" lon="26.57098">
        <ele>145.5</ele>
      </trkpt>
      <trkpt lat="39.54578" lon="26.57171">
        <ele>140.8</ele>
      </trkpt>
      <trkpt lat="39.54647" lon="26.57192">
        <ele>144.1</ele>
      </trkpt>
      <trkpt lat="39.54717" lon="26.57308">
        <ele>134.3</ele>
      </trkpt>
      <trkpt lat="39.547" lon="26.57592">
        <ele>102.3</ele>
      </trkpt>
      <trkpt lat="39.54753" lon="26.57617">
        <ele>102.4</ele>
      </trkpt>
      <trkpt lat="39.54823" lon="26.57489">
        <ele>108.6</ele>
      </trkpt>
      <trkpt lat="39.54906" lon="26.57493">
        <ele>107.1</ele>
      </trkpt>
      <trkpt lat="39.54992" lon="26.57677">
        <ele>84.8</ele>
      </trkpt>
      <trkpt lat="39.55035" lon="26.57656">
        <ele>85.2</ele>
      </trkpt>
      <trkpt lat="39.55104" lon="26.57549">
        <ele>89</ele>
      </trkpt>
      <trkpt lat="39.55157" lon="26.57536">
        <ele>91.4</ele>
      </trkpt>
      <trkpt lat="39.55223" lon="26.57682">
        <ele>70.4</ele>
      </trkpt>
      <trkpt lat="39.55478" lon="26.57682">
        <ele>69</ele>
      </trkpt>
      <trkpt lat="39.55531" lon="26.57737">
        <ele>62</ele>
      </trkpt>
      <trkpt lat="39.55498" lon="26.57832">
        <ele>61.8</ele>
      </trkpt>
      <trkpt lat="39.5515" lon="26.57911">
        <ele>49.4</ele>
      </trkpt>
      <trkpt lat="39.54902" lon="26.5807">
        <ele>32.3</ele>
      </trkpt>
      <trkpt lat="39.54608" lon="26.58242">
        <ele>23</ele>
      </trkpt>
      <trkpt lat="39.54528" lon="26.58383">
        <ele>16</ele>
      </trkpt>
      <trkpt lat="39.54512" lon="26.58525">
        <ele>11.8</ele>
      </trkpt>
      <trkpt lat="39.548" lon="26.60391">
        <ele>6.7</ele>
      </trkpt>
      <trkpt lat="39.54803" lon="26.61305">
        <ele>7.2</ele>
      </trkpt>
      <trkpt lat="39.54927" lon="26.61675">
        <ele>7.1</ele>
      </trkpt>
      <trkpt lat="39.55494" lon="26.63073">
        <ele>4.1</ele>
      </trkpt>
      <trkpt lat="39.55573" lon="26.63561">
        <ele>4.9</ele>
      </trkpt>
      <trkpt lat="39.5554" lon="26.64861">
        <ele>5.3</ele>
      </trkpt>
      <trkpt lat="39.5557" lon="26.65474">
        <ele>4.9</ele>
      </trkpt>
      <trkpt lat="39.55646" lon="26.66139">
        <ele>4.4</ele>
      </trkpt>
      <trkpt lat="39.55779" lon="26.66624">
        <ele>5.2</ele>
      </trkpt>
      <trkpt lat="39.55852" lon="26.67413">
        <ele>4.8</ele>
      </trkpt>
      <trkpt lat="39.5597" lon="26.6936">
        <ele>9.5</ele>
      </trkpt>
      <trkpt lat="39.56354" lon="26.71609">
        <ele>6.6</ele>
      </trkpt>
      <trkpt lat="39.5664" lon="26.72409">
        <ele>5.5</ele>
      </trkpt>
      <trkpt lat="39.56812" lon="26.72941">
        <ele>5.6</ele>
      </trkpt>
      <trkpt lat="39.56818" lon="26.741">
        <ele>10.1</ele>
      </trkpt>
      <trkpt lat="39.57168" lon="26.77403">
        <ele>8.4</ele>
      </trkpt>
      <trkpt lat="39.57095" lon="26.77832">
        <ele>6.9</ele>
      </trkpt>
      <trkpt lat="39.57049" lon="26.78184">
        <ele>5.3</ele>
      </trkpt>
      <trkpt lat="39.57049" lon="26.7869">
        <ele>10.3</ele>
      </trkpt>
      <trkpt lat="39.5693" lon="26.79514">
        <ele>9.9</ele>
      </trkpt>
      <trkpt lat="39.56847" lon="26.82251">
        <ele>6.5</ele>
      </trkpt>
      <trkpt lat="39.5684" lon="26.82715">
        <ele>6.7</ele>
      </trkpt>
      <trkpt lat="39.56893" lon="26.83101">
        <ele>10.2</ele>
      </trkpt>
      <trkpt lat="39.57803" lon="26.85501">
        <ele>31.7</ele>
      </trkpt>
      <trkpt lat="39.58631" lon="26.87671">
        <ele>6.6</ele>
      </trkpt>
      <trkpt lat="39.58664" lon="26.88052">
        <ele>5.9</ele>
      </trkpt>
      <trkpt lat="39.58525" lon="26.90318">
        <ele>4.9</ele>
      </trkpt>
      <trkpt lat="39.58511" lon="26.91088">
        <ele>5.9</ele>
      </trkpt>
      <trkpt lat="39.58875" lon="26.92552">
        <ele>6.5</ele>
      </trkpt>
      <trkpt lat="39.5918" lon="26.93139">
        <ele>10.6</ele>
      </trkpt>
      <trkpt lat="39.59539" lon="26.94308">
        <ele>10.3</ele>
      </trkpt>
      <trkpt lat="39.59661" lon="26.95042">
        <ele>13.4</ele>
      </trkpt>
      <trkpt lat="39.59639" lon="26.96447">
        <ele>13.3</ele>
      </trkpt>
      <trkpt lat="39.59643" lon="26.96864">
        <ele>14.1</ele>
      </trkpt>
      <trkpt lat="39.59973" lon="26.98915">
        <ele>23</ele>
      </trkpt>
      <trkpt lat="39.59973" lon="26.99839">
        <ele>26.3</ele>
      </trkpt>
      <trkpt lat="39.5992" lon="27.00193">
        <ele>24.3</ele>
      </trkpt>
      <trkpt lat="39.5979" lon="27.0059">
        <ele>18.4</ele>
      </trkpt>
      <trkpt lat="39.58897" lon="27.01585">
        <ele>21.2</ele>
      </trkpt>
      <trkpt lat="39.58575" lon="27.01981">
        <ele>19.5</ele>
      </trkpt>
      <trkpt lat="39.58381" lon="27.02528">
        <ele>21.5</ele>
      </trkpt>
      <trkpt lat="39.58222" lon="27.03104">
        <ele>24.5</ele>
      </trkpt>
      <trkpt lat="39.57847" lon="27.03701">
        <ele>25.5</ele>
      </trkpt>
      <trkpt lat="39.56979" lon="27.04512">
        <ele>24.8</ele>
      </trkpt>
      <trkpt lat="39.56417" lon="27.03593">
        <ele>22.1</ele>
      </trkpt>
      <trkpt lat="39.56053" lon="27.03284">
        <ele>20.5</ele>
      </trkpt>
      <trkpt lat="39.55745" lon="27.02518">
        <ele>17.3</ele>
      </trkpt>
      <trkpt lat="39.55083" lon="27.0178">
        <ele>15.4</ele>
      </trkpt>
      <trkpt lat="39.52715" lon="27.00487">
        <ele>9</ele>
      </trkpt>
      <trkpt lat="39.52483" lon="27.00272">
        <ele>9</ele>
      </trkpt>
      <trkpt lat="39.51434" lon="26.97906">
        <ele>9.9</ele>
      </trkpt>
      <trkpt lat="39.51189" lon="26.97503">
        <ele>13</ele>
      </trkpt>
      <trkpt lat="39.50021" lon="26.96776">
        <ele>14.7</ele>
      </trkpt>
      <trkpt lat="39.49086" lon="26.9617">
        <ele>18.9</ele>
      </trkpt>
      <trkpt lat="39.48854" lon="26.95741">
        <ele>21.2</ele>
      </trkpt>
      <trkpt lat="39.48589" lon="26.94385">
        <ele>8</ele>
      </trkpt>
      <trkpt lat="39.48318" lon="26.93149">
        <ele>2.5</ele>
      </trkpt>
      <trkpt lat="39.48081" lon="26.92586">
        <ele>6.1</ele>
      </trkpt>
      <trkpt lat="39.47386" lon="26.91628">
        <ele>13.2</ele>
      </trkpt>
      <trkpt lat="39.46701" lon="26.90899">
        <ele>39.7</ele>
      </trkpt>
      <trkpt lat="39.46331" lon="26.90263">
        <ele>63.1</ele>
      </trkpt>
      <trkpt lat="39.46099" lon="26.89394">
        <ele>73.4</ele>
      </trkpt>
      <trkpt lat="39.45783" lon="26.88848">
        <ele>66.9</ele>
      </trkpt>
      <trkpt lat="39.45376" lon="26.88457">
        <ele>68.9</ele>
      </trkpt>
      <trkpt lat="39.45041" lon="26.88152">
        <ele>53</ele>
      </trkpt>
      <trkpt lat="39.4475" lon="26.87511">
        <ele>70.7</ele>
      </trkpt>
      <trkpt lat="39.44395" lon="26.87176">
        <ele>55.7</ele>
      </trkpt>
      <trkpt lat="39.44321" lon="26.86665">
        <ele>37.2</ele>
      </trkpt>
      <trkpt lat="39.44095" lon="26.8626">
        <ele>24.9</ele>
      </trkpt>
      <trkpt lat="39.42964" lon="26.86065">
        <ele>52.8</ele>
      </trkpt>
      <trkpt lat="39.42434" lon="26.86097">
        <ele>44.3</ele>
      </trkpt>
      <trkpt lat="39.40108" lon="26.84689">
        <ele>14.7</ele>
      </trkpt>
      <trkpt lat="39.39223" lon="26.8399">
        <ele>13.3</ele>
      </trkpt>
      <trkpt lat="39.38447" lon="26.83279">
        <ele>13</ele>
      </trkpt>
      <trkpt lat="39.37855" lon="26.83028">
        <ele>13.3</ele>
      </trkpt>
      <trkpt lat="39.36574" lon="26.81639">
        <ele>36.5</ele>
      </trkpt>
      <trkpt lat="39.35284" lon="26.80073">
        <ele>87.8</ele>
      </trkpt>
      <trkpt lat="39.34992" lon="26.7932">
        <ele>80</ele>
      </trkpt>
      <trkpt lat="39.34723" lon="26.78483">
        <ele>69.3</ele>
      </trkpt>
      <trkpt lat="39.34564" lon="26.77661">
        <ele>67.6</ele>
      </trkpt>
      <trkpt lat="39.34337" lon="26.7649">
        <ele>46.9</ele>
      </trkpt>
      <trkpt lat="39.34132" lon="26.75383">
        <ele>38.6</ele>
      </trkpt>
      <trkpt lat="39.33712" lon="26.741">
        <ele>36.7</ele>
      </trkpt>
      <trkpt lat="39.33119" lon="26.73166">
        <ele>24.1</ele>
      </trkpt>
      <trkpt lat="39.31234" lon="26.71842">
        <ele>11.2</ele>
      </trkpt>
      <trkpt lat="39.30421" lon="26.71328">
        <ele>9.1</ele>
      </trkpt>
      <trkpt lat="39.27872" lon="26.70396">
        <ele>3</ele>
      </trkpt>
      <trkpt lat="39.27095" lon="26.7027">
        <ele>2.5</ele>
      </trkpt>
      <trkpt lat="39.26386" lon="26.70786">
        <ele>8.6</ele>
      </trkpt>
      <trkpt lat="39.25688" lon="26.72215">
        <ele>4.7</ele>
      </trkpt>
      <trkpt lat="39.24954" lon="26.72954">
        <ele>7.8</ele>
      </trkpt>
      <trkpt lat="39.24425" lon="26.74067">
        <ele>3.4</ele>
      </trkpt>
      <trkpt lat="39.21596" lon="26.81094">
        <ele>20</ele>
      </trkpt>
      <trkpt lat="39.21034" lon="26.81679">
        <ele>23.4</ele>
      </trkpt>
      <trkpt lat="39.20537" lon="26.81735">
        <ele>23.6</ele>
      </trkpt>
      <trkpt lat="39.19205" lon="26.81245">
        <ele>18.4</ele>
      </trkpt>
      <trkpt lat="39.18903" lon="26.81371">
        <ele>17.1</ele>
      </trkpt>
      <trkpt lat="39.17476" lon="26.83253">
        <ele>18.6</ele>
      </trkpt>
      <trkpt lat="39.1631" lon="26.84348">
        <ele>30.2</ele>
      </trkpt>
      <trkpt lat="39.15552" lon="26.84882">
        <ele>30.6</ele>
      </trkpt>
      <trkpt lat="39.12065" lon="26.8904">
        <ele>19</ele>
      </trkpt>
      <trkpt lat="39.11558" lon="26.89422">
        <ele>12.7</ele>
      </trkpt>
      <trkpt lat="39.10627" lon="26.90167">
        <ele>5.5</ele>
      </trkpt>
      <trkpt lat="39.10135" lon="26.90434">
        <ele>6.8</ele>
      </trkpt>
      <trkpt lat="39.09801" lon="26.90626">
        <ele>6.3</ele>
      </trkpt>
      <trkpt lat="39.09383" lon="26.9099">
        <ele>7.5</ele>
      </trkpt>
      <trkpt lat="39.08537" lon="26.91756">
        <ele>13.3</ele>
      </trkpt>
      <trkpt lat="39.08158" lon="26.92131">
        <ele>15</ele>
      </trkpt>
      <trkpt lat="39.08055" lon="26.92303">
        <ele>15.3</ele>
      </trkpt>
      <trkpt lat="39.08034" lon="26.92296">
        <ele>15.6</ele>
      </trkpt>
      <trkpt lat="39.0802" lon="26.92225">
        <ele>16</ele>
      </trkpt>
      <trkpt lat="39.08058" lon="26.92106">
        <ele>16</ele>
      </trkpt>
      <trkpt lat="39.0816" lon="26.91806">
        <ele>14.8</ele>
      </trkpt>
      <trkpt lat="39.08265" lon="26.91111">
        <ele>9.3</ele>
      </trkpt>
      <trkpt lat="39.08381" lon="26.90893">
        <ele>8.4</ele>
      </trkpt>
      <trkpt lat="39.08622" lon="26.90456">
        <ele>13.7</ele>
      </trkpt>
      <trkpt lat="39.08619" lon="26.90292">
        <ele>13.2</ele>
      </trkpt>
      <trkpt lat="39.08592" lon="26.90094">
        <ele>11.1</ele>
      </trkpt>
      <trkpt lat="39.08523" lon="26.89957">
        <ele>7.8</ele>
      </trkpt>
      <trkpt lat="39.08428" lon="26.89887">
        <ele>7.1</ele>
      </trkpt>
      <trkpt lat="39.08019" lon="26.89679">
        <ele>4.4</ele>
      </trkpt>
      <trkpt lat="39.07904" lon="26.89618">
        <ele>3.9</ele>
      </trkpt>
      <trkpt lat="39.07857" lon="26.89566">
        <ele>5.3</ele>
      </trkpt>
      <trkpt lat="39.0781" lon="26.89501">
        <ele>5.3</ele>
      </trkpt>
      <trkpt lat="39.07803" lon="26.8953">
        <ele>6.3</ele>
      </trkpt>
      <trkpt lat="39.07801" lon="26.89706">
        <ele>8</ele>
      </trkpt>
      <trkpt lat="39.07797" lon="26.8983">
        <ele>9.7</ele>
      </trkpt>
      <trkpt lat="39.07782" lon="26.89927">
        <ele>11.5</ele>
      </trkpt>
      <trkpt lat="39.07756" lon="26.90045">
        <ele>8.8</ele>
      </trkpt>
      <trkpt lat="39.0773" lon="26.90128">
        <ele>7.1</ele>
      </trkpt>
      <trkpt lat="39.07664" lon="26.90282">
        <ele>8.4</ele>
      </trkpt>
      <trkpt lat="39.07617" lon="26.90365">
        <ele>11</ele>
      </trkpt>
      <trkpt lat="39.0756" lon="26.90494">
        <ele>7.5</ele>
      </trkpt>
      <trkpt lat="39.07545" lon="26.90519">
        <ele>8.5</ele>
      </trkpt>
      <trkpt lat="39.07482" lon="26.90556">
        <ele>13.4</ele>
      </trkpt>
      <trkpt lat="39.07421" lon="26.90601">
        <ele>18.1</ele>
      </trkpt>
      <trkpt lat="39.07278" lon="26.90649">
        <ele>20.4</ele>
      </trkpt>
      <trkpt lat="39.07205" lon="26.90716">
        <ele>25.7</ele>
      </trkpt>
      <trkpt lat="39.07168" lon="26.90775">
        <ele>27.7</ele>
      </trkpt>
      <trkpt lat="39.07144" lon="26.90791">
        <ele>28.4</ele>
      </trkpt>
      <trkpt lat="39.07096" lon="26.90896">
        <ele>28</ele>
      </trkpt>
      <trkpt lat="39.07049" lon="26.91021">
        <ele>26.2</ele>
      </trkpt>
      <trkpt lat="39.07026" lon="26.91115">
        <ele>27.6</ele>
      </trkpt>
      <trkpt lat="39.07019" lon="26.91164">
        <ele>27.6</ele>
      </trkpt>
      <trkpt lat="39.07044" lon="26.91376">
        <ele>30.4</ele>
      </trkpt>
      <trkpt lat="39.07053" lon="26.91471">
        <ele>25.1</ele>
      </trkpt>
      <trkpt lat="39.07062" lon="26.91542">
        <ele>21.4</ele>
      </trkpt>
      <trkpt lat="39.07055" lon="26.91749">
        <ele>14</ele>
      </trkpt>
      <trkpt lat="39.0703" lon="26.91858">
        <ele>12.8</ele>
      </trkpt>
      <trkpt lat="39.07" lon="26.91941">
        <ele>11.7</ele>
      </trkpt>
      <trkpt lat="39.06961" lon="26.92093">
        <ele>10.2</ele>
      </trkpt>
      <trkpt lat="39.06899" lon="26.9231">
        <ele>10.2</ele>
      </trkpt>
      <trkpt lat="39.0683" lon="26.92582">
        <ele>12</ele>
      </trkpt>
      <trkpt lat="39.06786" lon="26.92721">
        <ele>12.1</ele>
      </trkpt>
      <trkpt lat="39.06747" lon="26.92825">
        <ele>12.1</ele>
      </trkpt>
      <trkpt lat="39.06725" lon="26.9298">
        <ele>11.7</ele>
      </trkpt>
      <trkpt lat="39.06723" lon="26.93141">
        <ele>13.5</ele>
      </trkpt>
      <trkpt lat="39.06749" lon="26.93239">
        <ele>13.1</ele>
      </trkpt>
      <trkpt lat="39.06781" lon="26.93327">
        <ele>12.7</ele>
      </trkpt>
      <trkpt lat="39.0675" lon="26.93356">
        <ele>11.5</ele>
      </trkpt>
      <trkpt lat="39.06742" lon="26.93405">
        <ele>10.4</ele>
      </trkpt>
      <trkpt lat="39.06754" lon="26.93575">
        <ele>11</ele>
      </trkpt>
      <trkpt lat="39.06782" lon="26.93691">
        <ele>11.1</ele>
      </trkpt>
      <trkpt lat="39.0683" lon="26.93757">
        <ele>12</ele>
      </trkpt>
      <trkpt lat="39.06878" lon="26.93906">
        <ele>12.5</ele>
      </trkpt>
      <trkpt lat="39.06893" lon="26.94026">
        <ele>13.1</ele>
      </trkpt>
      <trkpt lat="39.06904" lon="26.94137">
        <ele>13.2</ele>
      </trkpt>
      <trkpt lat="39.06895" lon="26.94336">
        <ele>12.7</ele>
      </trkpt>
      <trkpt lat="39.06796" lon="26.94352">
        <ele>12.1</ele>
      </trkpt>
      <trkpt lat="39.06546" lon="26.94401">
        <ele>11.3</ele>
      </trkpt>
      <trkpt lat="39.06466" lon="26.94421">
        <ele>10.5</ele>
      </trkpt>
      <trkpt lat="39.06407" lon="26.94406">
        <ele>9.9</ele>
      </trkpt>
      <trkpt lat="39.06324" lon="26.94415">
        <ele>8.9</ele>
      </trkpt>
      <trkpt lat="39.06263" lon="26.94441">
        <ele>8.4</ele>
      </trkpt>
      <trkpt lat="39.06208" lon="26.9447">
        <ele>8.6</ele>
      </trkpt>
      <trkpt lat="39.06138" lon="26.94532">
        <ele>8.5</ele>
      </trkpt>
      <trkpt lat="39.05812" lon="26.94958">
        <ele>6.5</ele>
      </trkpt>
      <trkpt lat="39.05288" lon="26.95635">
        <ele>6.2</ele>
      </trkpt>
      <trkpt lat="39.04899" lon="26.96149">
        <ele>4.8</ele>
      </trkpt>
      <trkpt lat="39.04754" lon="26.96339">
        <ele>7.9</ele>
      </trkpt>
      <trkpt lat="39.04729" lon="26.96388">
        <ele>7</ele>
      </trkpt>
      <trkpt lat="39.04645" lon="26.96489">
        <ele>5.1</ele>
      </trkpt>
      <trkpt lat="39.04325" lon="26.96904">
        <ele>6.7</ele>
      </trkpt>
      <trkpt lat="39.03967" lon="26.97366">
        <ele>5.9</ele>
      </trkpt>
      <trkpt lat="39.0373" lon="26.97673">
        <ele>7.2</ele>
      </trkpt>
      <trkpt lat="39.03502" lon="26.9798">
        <ele>6</ele>
      </trkpt>
      <trkpt lat="39.03408" lon="26.98093">
        <ele>5.9</ele>
      </trkpt>
      <trkpt lat="39.03273" lon="26.98135">
        <ele>4.8</ele>
      </trkpt>
      <trkpt lat="39.02968" lon="26.98082">
        <ele>5.4</ele>
      </trkpt>
      <trkpt lat="39.02775" lon="26.98059">
        <ele>6.9</ele>
      </trkpt>
      <trkpt lat="39.02783" lon="26.98097">
        <ele>6.4</ele>
      </trkpt>
      <trkpt lat="39.02966" lon="26.98467">
        <ele>5.6</ele>
      </trkpt>
      <trkpt lat="39.03263" lon="26.9908">
        <ele>6</ele>
      </trkpt>
      <trkpt lat="39.03603" lon="27.00101">
        <ele>5.2</ele>
      </trkpt>
      <trkpt lat="39.03853" lon="27.00854">
        <ele>4.5</ele>
      </trkpt>
      <trkpt lat="39.04383" lon="27.0259">
        <ele>5</ele>
      </trkpt>
      <trkpt lat="39.04176" lon="27.02805">
        <ele>5.5</ele>
      </trkpt>
      <trkpt lat="39.04075" lon="27.02916">
        <ele>8.1</ele>
      </trkpt>
      <trkpt lat="39.03615" lon="27.03586">
        <ele>6.4</ele>
      </trkpt>
      <trkpt lat="39.03327" lon="27.04028">
        <ele>7.7</ele>
      </trkpt>
      <trkpt lat="39.03217" lon="27.04167">
        <ele>8.4</ele>
      </trkpt>
      <trkpt lat="39.03189" lon="27.04235">
        <ele>9.3</ele>
      </trkpt>
      <trkpt lat="39.03171" lon="27.0428">
        <ele>9.9</ele>
      </trkpt>
      <trkpt lat="39.03196" lon="27.04349">
        <ele>9.8</ele>
      </trkpt>
      <trkpt lat="39.03126" lon="27.0442">
        <ele>9.5</ele>
      </trkpt>
      <trkpt lat="39.03093" lon="27.04376">
        <ele>9.9</ele>
      </trkpt>
      <trkpt lat="39.03045" lon="27.04404">
        <ele>9.5</ele>
      </trkpt>
      <trkpt lat="39.03016" lon="27.04374">
        <ele>9.2</ele>
      </trkpt>
      <trkpt lat="39.02921" lon="27.04341">
        <ele>8.1</ele>
      </trkpt>
      <trkpt lat="39.02906" lon="27.04311">
        <ele>8.2</ele>
      </trkpt>
      <trkpt lat="39.02744" lon="27.04417">
        <ele>9</ele>
      </trkpt>
      <trkpt lat="39.02739" lon="27.04474">
        <ele>8.4</ele>
      </trkpt>
      <trkpt lat="39.02671" lon="27.04472">
        <ele>9</ele>
      </trkpt>
      <trkpt lat="39.02565" lon="27.04439">
        <ele>7.2</ele>
      </trkpt>
      <trkpt lat="39.02433" lon="27.04672">
        <ele>6.8</ele>
      </trkpt>
      <trkpt lat="39.02293" lon="27.0454">
        <ele>7.5</ele>
      </trkpt>
      <trkpt lat="39.02271" lon="27.04564">
        <ele>7.7</ele>
      </trkpt>
      <trkpt lat="39.02201" lon="27.045">
        <ele>7.4</ele>
      </trkpt>
      <trkpt lat="39.02137" lon="27.04601">
        <ele>6.4</ele>
      </trkpt>
      <trkpt lat="39.02064" lon="27.04604">
        <ele>7</ele>
      </trkpt>
      <trkpt lat="39.0193" lon="27.0447">
        <ele>6.6</ele>
      </trkpt>
      <trkpt lat="39.01775" lon="27.04634">
        <ele>7.1</ele>
      </trkpt>
      <trkpt lat="39.01718" lon="27.04617">
        <ele>6.4</ele>
      </trkpt>
      <trkpt lat="39.0162" lon="27.04543">
        <ele>7</ele>
      </trkpt>
      <trkpt lat="39.01489" lon="27.04541">
        <ele>6.7</ele>
      </trkpt>
      <trkpt lat="39.01393" lon="27.04555">
        <ele>8.4</ele>
      </trkpt>
      <trkpt lat="39.00973" lon="27.04552">
        <ele>8.5</ele>
      </trkpt>
      <trkpt lat="39.00958" lon="27.04574">
        <ele>8.4</ele>
      </trkpt>
      <trkpt lat="39.01033" lon="27.04923">
        <ele>9</ele>
      </trkpt>
      <trkpt lat="39.01005" lon="27.04951">
        <ele>9.4</ele>
      </trkpt>
      <trkpt lat="39.00883" lon="27.04963">
        <ele>9.7</ele>
      </trkpt>
      <trkpt lat="39.00712" lon="27.04911">
        <ele>8.4</ele>
      </trkpt>
      <trkpt lat="39.00407" lon="27.04767">
        <ele>6.8</ele>
      </trkpt>
      <trkpt lat="39.00261" lon="27.04651">
        <ele>6.3</ele>
      </trkpt>
      <trkpt lat="38.99919" lon="27.04295">
        <ele>7</ele>
      </trkpt>
      <trkpt lat="38.99101" lon="27.03952">
        <ele>8.2</ele>
      </trkpt>
      <trkpt lat="38.98914" lon="27.03916">
        <ele>7.9</ele>
      </trkpt>
      <trkpt lat="38.98631" lon="27.03956">
        <ele>4.4</ele>
      </trkpt>
      <trkpt lat="38.98289" lon="27.04046">
        <ele>6.2</ele>
      </trkpt>
      <trkpt lat="38.9804" lon="27.04014">
        <ele>3.5</ele>
      </trkpt>
      <trkpt lat="38.97752" lon="27.03844">
        <ele>4</ele>
      </trkpt>
      <trkpt lat="38.97689" lon="27.03804">
        <ele>4.1</ele>
      </trkpt>
      <trkpt lat="38.97621" lon="27.03828">
        <ele>4.5</ele>
      </trkpt>
      <trkpt lat="38.97462" lon="27.03989">
        <ele>6.9</ele>
      </trkpt>
      <trkpt lat="38.97452" lon="27.04012">
        <ele>7.2</ele>
      </trkpt>
      <trkpt lat="38.97439" lon="27.04003">
        <ele>7.1</ele>
      </trkpt>
      <trkpt lat="38.97429" lon="27.03966">
        <ele>6.6</ele>
      </trkpt>
      <trkpt lat="38.97426" lon="27.03934">
        <ele>6.2</ele>
      </trkpt>
      <trkpt lat="38.97491" lon="27.03822">
        <ele>5.2</ele>
      </trkpt>
      <trkpt lat="38.9751" lon="27.03727">
        <ele>5.3</ele>
      </trkpt>
      <trkpt lat="38.97499" lon="27.03643">
        <ele>4.3</ele>
      </trkpt>
      <trkpt lat="38.97415" lon="27.03391">
        <ele>5</ele>
      </trkpt>
      <trkpt lat="38.97368" lon="27.03313">
        <ele>4.5</ele>
      </trkpt>
      <trkpt lat="38.97079" lon="27.02961">
        <ele>4.6</ele>
      </trkpt>
      <trkpt lat="38.96993" lon="27.02855">
        <ele>5.1</ele>
      </trkpt>
      <trkpt lat="38.96986" lon="27.02832">
        <ele>5.2</ele>
      </trkpt>
      <trkpt lat="38.96935" lon="27.02784">
        <ele>5.9</ele>
      </trkpt>
      <trkpt lat="38.96847" lon="27.02502">
        <ele>8.8</ele>
      </trkpt>
      <trkpt lat="38.96805" lon="27.02464">
        <ele>8.5</ele>
      </trkpt>
      <trkpt lat="38.96792" lon="27.02402">
        <ele>7.1</ele>
      </trkpt>
      <trkpt lat="38.96771" lon="27.02365">
        <ele>6.8</ele>
      </trkpt>
      <trkpt lat="38.96706" lon="27.02312">
        <ele>6.6</ele>
      </trkpt>
      <trkpt lat="38.96613" lon="27.02244">
        <ele>7</ele>
      </trkpt>
      <trkpt lat="38.96554" lon="27.02097">
        <ele>5</ele>
      </trkpt>
      <trkpt lat="38.9633" lon="27.01543">
        <ele>5.5</ele>
      </trkpt>
      <trkpt lat="38.96282" lon="27.01497">
        <ele>4.4</ele>
      </trkpt>
      <trkpt lat="38.96268" lon="27.01478">
        <ele>4</ele>
      </trkpt>
      <trkpt lat="38.96163" lon="27.01418">
        <ele>4.1</ele>
      </trkpt>
      <trkpt lat="38.96115" lon="27.01378">
        <ele>4.2</ele>
      </trkpt>
      <trkpt lat="38.95938" lon="27.0136">
        <ele>4.3</ele>
      </trkpt>
      <trkpt lat="38.95617" lon="27.01475">
        <ele>6</ele>
      </trkpt>
      <trkpt lat="38.95599" lon="27.01491">
        <ele>5.6</ele>
      </trkpt>
      <trkpt lat="38.95576" lon="27.01487">
        <ele>5.5</ele>
      </trkpt>
      <trkpt lat="38.95564" lon="27.01467">
        <ele>6.1</ele>
      </trkpt>
      <trkpt lat="38.95532" lon="27.01431">
        <ele>6.8</ele>
      </trkpt>
      <trkpt lat="38.95521" lon="27.01423">
        <ele>6.9</ele>
      </trkpt>
      <trkpt lat="38.95455" lon="27.01387">
        <ele>6.9</ele>
      </trkpt>
      <trkpt lat="38.95429" lon="27.01358">
        <ele>7.8</ele>
      </trkpt>
      <trkpt lat="38.95421" lon="27.01312">
        <ele>8.4</ele>
      </trkpt>
      <trkpt lat="38.95403" lon="27.01335">
        <ele>8.9</ele>
      </trkpt>
      <trkpt lat="38.95339" lon="27.01426">
        <ele>8.3</ele>
      </trkpt>
      <trkpt lat="38.95229" lon="27.01642">
        <ele>19.6</ele>
      </trkpt>
      <trkpt lat="38.9522" lon="27.01683">
        <ele>21</ele>
      </trkpt>
      <trkpt lat="38.95137" lon="27.01692">
        <ele>23.3</ele>
      </trkpt>
      <trkpt lat="38.95096" lon="27.0176">
        <ele>26</ele>
      </trkpt>
      <trkpt lat="38.95089" lon="27.01789">
        <ele>26.8</ele>
      </trkpt>
      <trkpt lat="38.95097" lon="27.01821">
        <ele>27.5</ele>
      </trkpt>
      <trkpt lat="38.95093" lon="27.01865">
        <ele>28</ele>
      </trkpt>
      <trkpt lat="38.95083" lon="27.01904">
        <ele>28</ele>
      </trkpt>
      <trkpt lat="38.95062" lon="27.01945">
        <ele>25.8</ele>
      </trkpt>
      <trkpt lat="38.95058" lon="27.01999">
        <ele>24</ele>
      </trkpt>
      <trkpt lat="38.95052" lon="27.02024">
        <ele>22.6</ele>
      </trkpt>
      <trkpt lat="38.95032" lon="27.02059">
        <ele>20.3</ele>
      </trkpt>
      <trkpt lat="38.95009" lon="27.02135">
        <ele>16.1</ele>
      </trkpt>
      <trkpt lat="38.9497" lon="27.02177">
        <ele>11.8</ele>
      </trkpt>
      <trkpt lat="38.94945" lon="27.02216">
        <ele>10.2</ele>
      </trkpt>
      <trkpt lat="38.94922" lon="27.02258">
        <ele>9.5</ele>
      </trkpt>
      <trkpt lat="38.94896" lon="27.02324">
        <ele>11</ele>
      </trkpt>
      <trkpt lat="38.94878" lon="27.02347">
        <ele>11.2</ele>
      </trkpt>
      <trkpt lat="38.94866" lon="27.02339">
        <ele>10.4</ele>
      </trkpt>
      <trkpt lat="38.94757" lon="27.02225">
        <ele>6.1</ele>
      </trkpt>
      <trkpt lat="38.94675" lon="27.02198">
        <ele>4.9</ele>
      </trkpt>
      <trkpt lat="38.94626" lon="27.02208">
        <ele>4</ele>
      </trkpt>
      <trkpt lat="38.9466" lon="27.02408">
        <ele>5.7</ele>
      </trkpt>
      <trkpt lat="38.94661" lon="27.02481">
        <ele>5.1</ele>
      </trkpt>
      <trkpt lat="38.94624" lon="27.02511">
        <ele>5</ele>
      </trkpt>
      <trkpt lat="38.94589" lon="27.02567">
        <ele>5.9</ele>
      </trkpt>
      <trkpt lat="38.94541" lon="27.02658">
        <ele>5.9</ele>
      </trkpt>
      <trkpt lat="38.94511" lon="27.02752">
        <ele>5.2</ele>
      </trkpt>
      <trkpt lat="38.94508" lon="27.02806">
        <ele>4</ele>
      </trkpt>
      <trkpt lat="38.94486" lon="27.02919">
        <ele>1.8</ele>
      </trkpt>
      <trkpt lat="38.94476" lon="27.03004">
        <ele>1</ele>
      </trkpt>
      <trkpt lat="38.94499" lon="27.03084">
        <ele>2</ele>
      </trkpt>
      <trkpt lat="38.945" lon="27.03119">
        <ele>2.4</ele>
      </trkpt>
      <trkpt lat="38.9453" lon="27.03186">
        <ele>3</ele>
      </trkpt>
      <trkpt lat="38.94598" lon="27.03262">
        <ele>2.7</ele>
      </trkpt>
      <trkpt lat="38.9472" lon="27.03405">
        <ele>3.4</ele>
      </trkpt>
      <trkpt lat="38.94656" lon="27.03483">
        <ele>1.2</ele>
      </trkpt>
      <trkpt lat="38.94617" lon="27.03527">
        <ele>1.3</ele>
      </trkpt>
      <trkpt lat="38.94554" lon="27.03627">
        <ele>1.8</ele>
      </trkpt>
      <trkpt lat="38.94503" lon="27.03674">
        <ele>1.1</ele>
      </trkpt>
      <trkpt lat="38.94442" lon="27.03782">
        <ele>1</ele>
      </trkpt>
      <trkpt lat="38.94409" lon="27.03843">
        <ele>1.3</ele>
      </trkpt>
      <trkpt lat="38.94387" lon="27.03925">
        <ele>3.1</ele>
      </trkpt>
      <trkpt lat="38.94412" lon="27.03972">
        <ele>5.1</ele>
      </trkpt>
      <trkpt lat="38.94412" lon="27.04012">
        <ele>5.7</ele>
      </trkpt>
      <trkpt lat="38.94401" lon="27.04049">
        <ele>5.3</ele>
      </trkpt>
      <trkpt lat="38.94423" lon="27.04092">
        <ele>6.2</ele>
      </trkpt>
      <trkpt lat="38.94434" lon="27.04143">
        <ele>5.9</ele>
      </trkpt>
      <trkpt lat="38.94446" lon="27.04293">
        <ele>4.7</ele>
      </trkpt>
      <trkpt lat="38.94476" lon="27.04392">
        <ele>6.8</ele>
      </trkpt>
      <trkpt lat="38.94448" lon="27.04478">
        <ele>9</ele>
      </trkpt>
      <trkpt lat="38.94436" lon="27.04523">
        <ele>9</ele>
      </trkpt>
      <trkpt lat="38.94381" lon="27.0463">
        <ele>7.2</ele>
      </trkpt>
      <trkpt lat="38.94466" lon="27.04736">
        <ele>14.4</ele>
      </trkpt>
      <trkpt lat="38.94383" lon="27.04781">
        <ele>11.8</ele>
      </trkpt>
      <trkpt lat="38.94158" lon="27.04962">
        <ele>8.3</ele>
      </trkpt>
      <trkpt lat="38.93901" lon="27.05109">
        <ele>3.1</ele>
      </trkpt>
      <trkpt lat="38.93702" lon="27.05235">
        <ele>4.3</ele>
      </trkpt>
      <trkpt lat="38.93502" lon="27.05451">
        <ele>4.2</ele>
      </trkpt>
      <trkpt lat="38.93367" lon="27.05625">
        <ele>5.4</ele>
      </trkpt>
      <trkpt lat="38.93009" lon="27.05831">
        <ele>7.1</ele>
      </trkpt>
      <trkpt lat="38.92642" lon="27.06013">
        <ele>10</ele>
      </trkpt>
      <trkpt lat="38.9257" lon="27.06046">
        <ele>10.2</ele>
      </trkpt>
      <trkpt lat="38.92529" lon="27.06025">
        <ele>10.1</ele>
      </trkpt>
      <trkpt lat="38.92515" lon="27.06">
        <ele>9.8</ele>
      </trkpt>
      <trkpt lat="38.92499" lon="27.05878">
        <ele>7.1</ele>
      </trkpt>
      <trkpt lat="38.92442" lon="27.05671">
        <ele>4.4</ele>
      </trkpt>
      <trkpt lat="38.92398" lon="27.0554">
        <ele>1.2</ele>
      </trkpt>
      <trkpt lat="38.92361" lon="27.0544">
        <ele>1</ele>
      </trkpt>
      <trkpt lat="38.92344" lon="27.05442">
        <ele>1</ele>
      </trkpt>
      <trkpt lat="38.92284" lon="27.05472">
        <ele>1.4</ele>
      </trkpt>
      <trkpt lat="38.92267" lon="27.05472">
        <ele>1.5</ele>
      </trkpt>
      <trkpt lat="38.92246" lon="27.05455">
        <ele>1.5</ele>
      </trkpt>
      <trkpt lat="38.92192" lon="27.05474">
        <ele>1.7</ele>
      </trkpt>
      <trkpt lat="38.92165" lon="27.05484">
        <ele>2</ele>
      </trkpt>
      <trkpt lat="38.92132" lon="27.05475">
        <ele>2</ele>
      </trkpt>
      <trkpt lat="38.92107" lon="27.05461">
        <ele>2</ele>
      </trkpt>
      <trkpt lat="38.92067" lon="27.05475">
        <ele>1.8</ele>
      </trkpt>
      <trkpt lat="38.92001" lon="27.05519">
        <ele>1.7</ele>
      </trkpt>
      <trkpt lat="38.91946" lon="27.0556">
        <ele>2.2</ele>
      </trkpt>
      <trkpt lat="38.91904" lon="27.05595">
        <ele>2.2</ele>
      </trkpt>
      <trkpt lat="38.91779" lon="27.05669">
        <ele>1.3</ele>
      </trkpt>
      <trkpt lat="38.91697" lon="27.05701">
        <ele>1</ele>
      </trkpt>
      <trkpt lat="38.91688" lon="27.05695">
        <ele>1</ele>
      </trkpt>
      <trkpt lat="38.91599" lon="27.05723">
        <ele>1.5</ele>
      </trkpt>
      <trkpt lat="38.91627" lon="27.05818">
        <ele>2.7</ele>
      </trkpt>
      <trkpt lat="38.91619" lon="27.05825">
        <ele>3</ele>
      </trkpt>
      <trkpt lat="38.91622" lon="27.05845">
        <ele>3.1</ele>
      </trkpt>
      <trkpt lat="38.91546" lon="27.0589">
        <ele>4.1</ele>
      </trkpt>
      <trkpt lat="38.91551" lon="27.05901">
        <ele>4.1</ele>
      </trkpt>
      <trkpt lat="38.91476" lon="27.05925">
        <ele>5.8</ele>
      </trkpt>
      <trkpt lat="38.91462" lon="27.05973">
        <ele>8.3</ele>
      </trkpt>
      <trkpt lat="38.91426" lon="27.05921">
        <ele>8.6</ele>
      </trkpt>
      <trkpt lat="38.91384" lon="27.05955">
        <ele>13.4</ele>
      </trkpt>
      <trkpt lat="38.91435" lon="27.0605">
        <ele>11.8</ele>
      </trkpt>
      <trkpt lat="38.91431" lon="27.06109">
        <ele>12.5</ele>
      </trkpt>
      <trkpt lat="38.91385" lon="27.06144">
        <ele>14.6</ele>
      </trkpt>
      <trkpt lat="38.91316" lon="27.06149">
        <ele>15.8</ele>
      </trkpt>
      <trkpt lat="38.91292" lon="27.06162">
        <ele>14.2</ele>
      </trkpt>
      <trkpt lat="38.91185" lon="27.06119">
        <ele>11.3</ele>
      </trkpt>
      <trkpt lat="38.91133" lon="27.06072">
        <ele>10.2</ele>
      </trkpt>
      <trkpt lat="38.91098" lon="27.06008">
        <ele>8.8</ele>
      </trkpt>
      <trkpt lat="38.91077" lon="27.05912">
        <ele>6.9</ele>
      </trkpt>
      <trkpt lat="38.9106" lon="27.0586">
        <ele>6.3</ele>
      </trkpt>
      <trkpt lat="38.91066" lon="27.05811">
        <ele>6.6</ele>
      </trkpt>
      <trkpt lat="38.91118" lon="27.05732">
        <ele>10.3</ele>
      </trkpt>
      <trkpt lat="38.9116" lon="27.0567">
        <ele>10.6</ele>
      </trkpt>
      <trkpt lat="38.91188" lon="27.05599">
        <ele>5.1</ele>
      </trkpt>
      <trkpt lat="38.91171" lon="27.05559">
        <ele>4.8</ele>
      </trkpt>
      <trkpt lat="38.91094" lon="27.05419">
        <ele>11.2</ele>
      </trkpt>
      <trkpt lat="38.91048" lon="27.05355">
        <ele>14.2</ele>
      </trkpt>
      <trkpt lat="38.9101" lon="27.05271">
        <ele>15.6</ele>
      </trkpt>
      <trkpt lat="38.90898" lon="27.05156">
        <ele>15.5</ele>
      </trkpt>
      <trkpt lat="38.90861" lon="27.04973">
        <ele>6.8</ele>
      </trkpt>
      <trkpt lat="38.90723" lon="27.04655">
        <ele>4.6</ele>
      </trkpt>
      <trkpt lat="38.90704" lon="27.0464">
        <ele>4.8</ele>
      </trkpt>
      <trkpt lat="38.9067" lon="27.04643">
        <ele>4.7</ele>
      </trkpt>
      <trkpt lat="38.90524" lon="27.04727">
        <ele>10.3</ele>
      </trkpt>
      <trkpt lat="38.90475" lon="27.04728">
        <ele>12.1</ele>
      </trkpt>
      <trkpt lat="38.90409" lon="27.04689">
        <ele>17</ele>
      </trkpt>
      <trkpt lat="38.90333" lon="27.04585">
        <ele>24.9</ele>
      </trkpt>
      <trkpt lat="38.9025" lon="27.04536">
        <ele>22</ele>
      </trkpt>
      <trkpt lat="38.90149" lon="27.04553">
        <ele>17.5</ele>
      </trkpt>
      <trkpt lat="38.90043" lon="27.04501">
        <ele>12</ele>
      </trkpt>
      <trkpt lat="38.89966" lon="27.04407">
        <ele>11.5</ele>
      </trkpt>
      <trkpt lat="38.89917" lon="27.04382">
        <ele>11.4</ele>
      </trkpt>
      <trkpt lat="38.8989" lon="27.04363">
        <ele>10.7</ele>
      </trkpt>
      <trkpt lat="38.89836" lon="27.04345">
        <ele>9</ele>
      </trkpt>
      <trkpt lat="38.89773" lon="27.04276">
        <ele>7.9</ele>
      </trkpt>
      <trkpt lat="38.89687" lon="27.04236">
        <ele>9.2</ele>
      </trkpt>
      <trkpt lat="38.89558" lon="27.0409">
        <ele>8.3</ele>
      </trkpt>
      <trkpt lat="38.89539" lon="27.04085">
        <ele>7.9</ele>
      </trkpt>
      <trkpt lat="38.89503" lon="27.04125">
        <ele>7</ele>
      </trkpt>
      <trkpt lat="38.89424" lon="27.04219">
        <ele>8.1</ele>
      </trkpt>
      <trkpt lat="38.89395" lon="27.04273">
        <ele>10.8</ele>
      </trkpt>
      <trkpt lat="38.89321" lon="27.04388">
        <ele>8.6</ele>
      </trkpt>
      <trkpt lat="38.89228" lon="27.04497">
        <ele>4.2</ele>
      </trkpt>
      <trkpt lat="38.89278" lon="27.04571">
        <ele>2.5</ele>
      </trkpt>
      <trkpt lat="38.8933" lon="27.04608">
        <ele>3.3</ele>
      </trkpt>
      <trkpt lat="38.89349" lon="27.04636">
        <ele>2.7</ele>
      </trkpt>
      <trkpt lat="38.89375" lon="27.04756">
        <ele>1</ele>
      </trkpt>
      <trkpt lat="38.89395" lon="27.04889">
      </trkpt>
      <trkpt lat="38.89391" lon="27.04923">
      </trkpt>
      <trkpt lat="38.89395" lon="27.04964">
      </trkpt>
      <trkpt lat="38.89411" lon="27.05035">
      </trkpt>
      <trkpt lat="38.89405" lon="27.05083">
      </trkpt>
      <trkpt lat="38.89351" lon="27.05244">
        <ele>2.6</ele>
      </trkpt>
      <trkpt lat="38.89299" lon="27.05403">
        <ele>1.8</ele>
      </trkpt>
      <trkpt lat="38.89272" lon="27.05485">
        <ele>2</ele>
      </trkpt>
      <trkpt lat="38.89258" lon="27.05519">
        <ele>2</ele>
      </trkpt>
      <trkpt lat="38.89209" lon="27.056">
        <ele>1.2</ele>
      </trkpt>
      <trkpt lat="38.89146" lon="27.05739">
        <ele>1.1</ele>
      </trkpt>
      <trkpt lat="38.89096" lon="27.05739">
        <ele>1.1</ele>
      </trkpt>
      <trkpt lat="38.89009" lon="27.05859">
        <ele>1.5</ele>
      </trkpt>
      <trkpt lat="38.88963" lon="27.05923">
        <ele>2.9</ele>
      </trkpt>
      <trkpt lat="38.88825" lon="27.06057">
        <ele>1</ele>
      </trkpt>
      <trkpt lat="38.88707" lon="27.0617">
        <ele>1</ele>
      </trkpt>
      <trkpt lat="38.88666" lon="27.06197">
        <ele>1.7</ele>
      </trkpt>
      <trkpt lat="38.88531" lon="27.06259">
        <ele>2.6</ele>
      </trkpt>
      <trkpt lat="38.88407" lon="27.0627">
        <ele>1.5</ele>
      </trkpt>
      <trkpt lat="38.8831" lon="27.06297">
        <ele>1.8</ele>
      </trkpt>
      <trkpt lat="38.88254" lon="27.06287">
        <ele>1</ele>
      </trkpt>
      <trkpt lat="38.88186" lon="27.06389">
        <ele>1.7</ele>
      </trkpt>
      <trkpt lat="38.88004" lon="27.06582">
        <ele>1</ele>
      </trkpt>
      <trkpt lat="38.88056" lon="27.06641">
        <ele>1.7</ele>
      </trkpt>
      <trkpt lat="38.88032" lon="27.06665">
        <ele>2</ele>
      </trkpt>
      <trkpt lat="38.88022" lon="27.06686">
        <ele>1.9</ele>
      </trkpt>
      <trkpt lat="38.88029" lon="27.06855">
        <ele>8.9</ele>
      </trkpt>
      <trkpt lat="38.87977" lon="27.06852">
        <ele>10.5</ele>
      </trkpt>
      <trkpt lat="38.87844" lon="27.068">
        <ele>10.4</ele>
      </trkpt>
      <trkpt lat="38.87525" lon="27.06642">
        <ele>7.3</ele>
      </trkpt>
      <trkpt lat="38.87137" lon="27.06449">
        <ele>4.2</ele>
      </trkpt>
      <trkpt lat="38.86905" lon="27.0628">
        <ele>4</ele>
      </trkpt>
      <trkpt lat="38.86819" lon="27.06213">
        <ele>6.1</ele>
      </trkpt>
      <trkpt lat="38.86637" lon="27.06013">
        <ele>5.2</ele>
      </trkpt>
      <trkpt lat="38.86408" lon="27.05806">
        <ele>5.9</ele>
      </trkpt>
      <trkpt lat="38.86143" lon="27.05565">
        <ele>13.4</ele>
      </trkpt>
      <trkpt lat="38.85856" lon="27.05299">
        <ele>47.4</ele>
      </trkpt>
      <trkpt lat="38.85738" lon="27.05188">
        <ele>44.6</ele>
      </trkpt>
      <trkpt lat="38.85689" lon="27.05123">
        <ele>40.2</ele>
      </trkpt>
      <trkpt lat="38.85644" lon="27.05042">
        <ele>36.9</ele>
      </trkpt>
      <trkpt lat="38.85599" lon="27.04935">
        <ele>33.2</ele>
      </trkpt>
      <trkpt lat="38.85578" lon="27.04852">
        <ele>28.2</ele>
      </trkpt>
      <trkpt lat="38.85564" lon="27.04781">
        <ele>24</ele>
      </trkpt>
      <trkpt lat="38.85553" lon="27.04586">
        <ele>18.5</ele>
      </trkpt>
      <trkpt lat="38.85523" lon="27.04208">
        <ele>9.4</ele>
      </trkpt>
      <trkpt lat="38.85493" lon="27.03913">
        <ele>2.5</ele>
      </trkpt>
      <trkpt lat="38.85445" lon="27.03674">
        <ele>1</ele>
      </trkpt>
      <trkpt lat="38.85339" lon="27.03283">
      </trkpt>
      <trkpt lat="38.85293" lon="27.03101">
        <ele>10.3</ele>
      </trkpt>
      <trkpt lat="38.85255" lon="27.02927">
        <ele>20.5</ele>
      </trkpt>
      <trkpt lat="38.85207" lon="27.0271">
        <ele>13.2</ele>
      </trkpt>
      <trkpt lat="38.85167" lon="27.02571">
        <ele>10.2</ele>
      </trkpt>
      <trkpt lat="38.85123" lon="27.02454">
        <ele>12.4</ele>
      </trkpt>
      <trkpt lat="38.8494" lon="27.02125">
        <ele>1.72</ele>
      </trkpt>
      <trkpt lat="38.84719" lon="27.0175">
        <ele>1.4</ele>
      </trkpt>
      <trkpt lat="38.84384" lon="27.01185">
        <ele>8.9</ele>
      </trkpt>
      <trkpt lat="38.84119" lon="27.00729">
        <ele>2.8</ele>
      </trkpt>
      <trkpt lat="38.84049" lon="27.00576">
        <ele>1</ele>
      </trkpt>
      <trkpt lat="38.83981" lon="27.00382">
      </trkpt>
      <trkpt lat="38.839" lon="27.0011">
        <ele>1.3</ele>
      </trkpt>
      <trkpt lat="38.83851" lon="26.99947">
        <ele>2.21</ele>
      </trkpt>
      <trkpt lat="38.83817" lon="26.99868">
        <ele>1.3</ele>
      </trkpt>
      <trkpt lat="38.83538" lon="26.99">
        <ele>2.1</ele>
      </trkpt>
      <trkpt lat="38.83426" lon="26.98642">
        <ele>5.1</ele>
      </trkpt>
      <trkpt lat="38.83391" lon="26.98537">
        <ele>2.1</ele>
      </trkpt>
      <trkpt lat="38.83314" lon="26.98416">
        <ele>2.6</ele>
      </trkpt>
      <trkpt lat="38.83247" lon="26.98355">
        <ele>6.2</ele>
      </trkpt>
      <trkpt lat="38.83164" lon="26.98307">
        <ele>12.4</ele>
      </trkpt>
      <trkpt lat="38.83077" lon="26.98284">
        <ele>11.8</ele>
      </trkpt>
      <trkpt lat="38.83006" lon="26.98284">
        <ele>9</ele>
      </trkpt>
      <trkpt lat="38.82932" lon="26.98292">
        <ele>7.4</ele>
      </trkpt>
      <trkpt lat="38.82815" lon="26.98322">
        <ele>4.9</ele>
      </trkpt>
      <trkpt lat="38.82797" lon="26.98275">
        <ele>4.1</ele>
      </trkpt>
      <trkpt lat="38.82792" lon="26.98237">
        <ele>3.1</ele>
      </trkpt>
      <trkpt lat="38.82771" lon="26.98248">
        <ele>2.7</ele>
      </trkpt>
      <trkpt lat="38.8273" lon="26.98293">
        <ele>3.4</ele>
      </trkpt>
      <trkpt lat="38.82654" lon="26.98357">
        <ele>5.3</ele>
      </trkpt>
      <trkpt lat="38.82631" lon="26.98371">
        <ele>4.6</ele>
      </trkpt>
      <trkpt lat="38.82605" lon="26.98384">
        <ele>3.9</ele>
      </trkpt>
      <trkpt lat="38.82551" lon="26.98401">
        <ele>3.1</ele>
      </trkpt>
      <trkpt lat="38.82538" lon="26.98401">
        <ele>3</ele>
      </trkpt>
      <trkpt lat="38.82517" lon="26.98406">
        <ele>2.9</ele>
      </trkpt>
      <trkpt lat="38.82448" lon="26.9841">
        <ele>2.38</ele>
      </trkpt>
      <trkpt lat="38.8241" lon="26.98405">
        <ele>2.08</ele>
      </trkpt>
      <trkpt lat="38.82301" lon="26.98383">
        <ele>3.38</ele>
      </trkpt>
      <trkpt lat="38.82193" lon="26.98361">
        <ele>4</ele>
      </trkpt>
      <trkpt lat="38.82145" lon="26.98356">
        <ele>3.2</ele>
      </trkpt>
      <trkpt lat="38.82055" lon="26.98332">
        <ele>3</ele>
      </trkpt>
      <trkpt lat="38.82042" lon="26.9833">
        <ele>3</ele>
      </trkpt>
      <trkpt lat="38.8198" lon="26.98305">
        <ele>2</ele>
      </trkpt>
      <trkpt lat="38.81884" lon="26.98265">
        <ele>1.4</ele>
      </trkpt>
      <trkpt lat="38.81846" lon="26.98251">
        <ele>1</ele>
      </trkpt>
      <trkpt lat="38.81739" lon="26.98191">
        <ele>1.7</ele>
      </trkpt>
      <trkpt lat="38.81687" lon="26.98157">
        <ele>1</ele>
      </trkpt>
      <trkpt lat="38.81639" lon="26.98127">
        <ele>1.7</ele>
      </trkpt>
      <trkpt lat="38.81615" lon="26.98116">
        <ele>2.1</ele>
      </trkpt>
      <trkpt lat="38.8155" lon="26.98071">
        <ele>1.6</ele>
      </trkpt>
      <trkpt lat="38.81486" lon="26.98012">
        <ele>3.8</ele>
      </trkpt>
      <trkpt lat="38.81462" lon="26.97993">
        <ele>4</ele>
      </trkpt>
      <trkpt lat="38.81411" lon="26.97955">
        <ele>3.6</ele>
      </trkpt>
      <trkpt lat="38.81337" lon="26.979">
        <ele>3</ele>
      </trkpt>
      <trkpt lat="38.81288" lon="26.97866">
        <ele>2</ele>
      </trkpt>
      <trkpt lat="38.81232" lon="26.97837">
        <ele>1.4</ele>
      </trkpt>
      <trkpt lat="38.81183" lon="26.97815">
        <ele>1.8</ele>
      </trkpt>
      <trkpt lat="38.81111" lon="26.97797">
        <ele>2</ele>
      </trkpt>
      <trkpt lat="38.81056" lon="26.97782">
        <ele>2.65</ele>
      </trkpt>
      <trkpt lat="38.81041" lon="26.97777">
        <ele>3.02</ele>
      </trkpt>
      <trkpt lat="38.80976" lon="26.97754">
        <ele>2.2</ele>
      </trkpt>
      <trkpt lat="38.80928" lon="26.97734">
        <ele>2</ele>
      </trkpt>
      <trkpt lat="38.8092" lon="26.9773">
        <ele>2</ele>
      </trkpt>
      <trkpt lat="38.80902" lon="26.97731">
        <ele>2.2</ele>
      </trkpt>
      <trkpt lat="38.80891" lon="26.97739">
        <ele>2.7</ele>
      </trkpt>
      <trkpt lat="38.8086" lon="26.97744">
        <ele>3.8</ele>
      </trkpt>
      <trkpt lat="38.80827" lon="26.97739">
        <ele>5.1</ele>
      </trkpt>
      <trkpt lat="38.80787" lon="26.97708">
        <ele>6.3</ele>
      </trkpt>
      <trkpt lat="38.8074" lon="26.97669">
        <ele>4.5</ele>
      </trkpt>
      <trkpt lat="38.8074" lon="26.97669">
        <ele>4.5</ele>
      </trkpt>
      <trkpt lat="38.8074" lon="26.97669">
        <ele>4.5</ele>
      </trkpt>
      <trkpt lat="38.80743" lon="26.97656">
        <ele>3.6</ele>
      </trkpt>
      <trkpt lat="38.80743" lon="26.97653">
        <ele>3.5</ele>
      </trkpt>
      <trkpt lat="38.80694" lon="26.97608">
        <ele>4.7</ele>
      </trkpt>
      <trkpt lat="38.80698" lon="26.97589">
        <ele>3.1</ele>
      </trkpt>
      <trkpt lat="38.80621" lon="26.97483">
        <ele>3.6</ele>
      </trkpt>
      <trkpt lat="38.80605" lon="26.97498">
        <ele>4.2</ele>
      </trkpt>
      <trkpt lat="38.80608" lon="26.97483">
        <ele>4.1</ele>
      </trkpt>
      <trkpt lat="38.80535" lon="26.97342">
        <ele>3.1</ele>
      </trkpt>
      <trkpt lat="38.80552" lon="26.97318">
        <ele>2.2</ele>
      </trkpt>
      <trkpt lat="38.80503" lon="26.97249">
        <ele>2</ele>
      </trkpt>
      <trkpt lat="38.805" lon="26.97234">
        <ele>1.8</ele>
      </trkpt>
      <trkpt lat="38.80509" lon="26.97213">
        <ele>1.6</ele>
      </trkpt>
      <trkpt lat="38.80389" lon="26.97066">
        <ele>6</ele>
      </trkpt>
      <trkpt lat="38.80343" lon="26.97129">
        <ele>7</ele>
      </trkpt>
      <trkpt lat="38.8029" lon="26.97071">
        <ele>7.9</ele>
      </trkpt>
      <trkpt lat="38.79964" lon="26.96674">
        <ele>10.1</ele>
      </trkpt>
      <trkpt lat="38.79769" lon="26.96438">
        <ele>8.6</ele>
      </trkpt>
      <trkpt lat="38.79748" lon="26.96428">
        <ele>8.5</ele>
      </trkpt>
      <trkpt lat="38.79644" lon="26.96408">
        <ele>13.5</ele>
      </trkpt>
      <trkpt lat="38.796" lon="26.96391">
        <ele>16.1</ele>
      </trkpt>
      <trkpt lat="38.79506" lon="26.9627">
        <ele>22.1</ele>
      </trkpt>
      <trkpt lat="38.79408" lon="26.96221">
        <ele>23.1</ele>
      </trkpt>
      <trkpt lat="38.79392" lon="26.96202">
        <ele>22.9</ele>
      </trkpt>
      <trkpt lat="38.79379" lon="26.96192">
        <ele>22.7</ele>
      </trkpt>
      <trkpt lat="38.7936" lon="26.96213">
        <ele>21.7</ele>
      </trkpt>
      <trkpt lat="38.79364" lon="26.96245">
        <ele>21.2</ele>
      </trkpt>
      <trkpt lat="38.79352" lon="26.96336">
        <ele>21.8</ele>
      </trkpt>
      <trkpt lat="38.79192" lon="26.97089">
        <ele>36.2</ele>
      </trkpt>
      <trkpt lat="38.79143" lon="26.97135">
        <ele>39.6</ele>
      </trkpt>
      <trkpt lat="38.79093" lon="26.97138">
        <ele>41.3</ele>
      </trkpt>
      <trkpt lat="38.78954" lon="26.97046">
        <ele>42.7</ele>
      </trkpt>
      <trkpt lat="38.78674" lon="26.96815">
        <ele>43.5</ele>
      </trkpt>
      <trkpt lat="38.78471" lon="26.96589">
        <ele>52.2</ele>
      </trkpt>
      <trkpt lat="38.78317" lon="26.96358">
        <ele>62.9</ele>
      </trkpt>
      <trkpt lat="38.78145" lon="26.96092">
        <ele>65.1</ele>
      </trkpt>
      <trkpt lat="38.78002" lon="26.95875">
        <ele>55.5</ele>
      </trkpt>
      <trkpt lat="38.77746" lon="26.95625">
        <ele>39.6</ele>
      </trkpt>
      <trkpt lat="38.77637" lon="26.9554">
        <ele>37.3</ele>
      </trkpt>
      <trkpt lat="38.77633" lon="26.95514">
        <ele>36.2</ele>
      </trkpt>
      <trkpt lat="38.77659" lon="26.95144">
        <ele>29.8</ele>
      </trkpt>
      <trkpt lat="38.77674" lon="26.94978">
        <ele>30</ele>
      </trkpt>
      <trkpt lat="38.77633" lon="26.94978">
        <ele>28.9</ele>
      </trkpt>
      <trkpt lat="38.7753" lon="26.9496">
        <ele>27.5</ele>
      </trkpt>
      <trkpt lat="38.77368" lon="26.94913">
        <ele>24.8</ele>
      </trkpt>
      <trkpt lat="38.7712" lon="26.94816">
        <ele>22.3</ele>
      </trkpt>
      <trkpt lat="38.76817" lon="26.94702">
        <ele>16.4</ele>
      </trkpt>
      <trkpt lat="38.76636" lon="26.94644">
        <ele>15.4</ele>
      </trkpt>
      <trkpt lat="38.76585" lon="26.94636">
        <ele>16.6</ele>
      </trkpt>
      <trkpt lat="38.76467" lon="26.94603">
        <ele>9.9</ele>
      </trkpt>
      <trkpt lat="38.7631" lon="26.94558">
        <ele>6.7</ele>
      </trkpt>
      <trkpt lat="38.76287" lon="26.94553">
        <ele>6.3</ele>
      </trkpt>
      <trkpt lat="38.76122" lon="26.94594">
        <ele>3.3</ele>
      </trkpt>
      <trkpt lat="38.7611" lon="26.94573">
        <ele>2.5</ele>
      </trkpt>
      <trkpt lat="38.76118" lon="26.94535">
        <ele>3.2</ele>
      </trkpt>
      <trkpt lat="38.76104" lon="26.9449">
        <ele>4.9</ele>
      </trkpt>
      <trkpt lat="38.76128" lon="26.94474">
        <ele>8.6</ele>
      </trkpt>
      <trkpt lat="38.76197" lon="26.94461">
        <ele>10.9</ele>
      </trkpt>
      <trkpt lat="38.76232" lon="26.9443">
        <ele>10.9</ele>
      </trkpt>
      <trkpt lat="38.76259" lon="26.94385">
        <ele>9.7</ele>
      </trkpt>
      <trkpt lat="38.76276" lon="26.94296">
        <ele>11.7</ele>
      </trkpt>
      <trkpt lat="38.76284" lon="26.94243">
        <ele>13.1</ele>
      </trkpt>
      <trkpt lat="38.7632" lon="26.94152">
        <ele>5.6</ele>
      </trkpt>
      <trkpt lat="38.76294" lon="26.94039">
        <ele>7.6</ele>
      </trkpt>
      <trkpt lat="38.76314" lon="26.93932">
        <ele>2.5</ele>
      </trkpt>
      <trkpt lat="38.76277" lon="26.93895">
        <ele>2</ele>
      </trkpt>
      <trkpt lat="38.7624" lon="26.93867">
        <ele>2.3</ele>
      </trkpt>
      <trkpt lat="38.76222" lon="26.93838">
        <ele>2.1</ele>
      </trkpt>
      <trkpt lat="38.76189" lon="26.93826">
        <ele>1.9</ele>
      </trkpt>
      <trkpt lat="38.76098" lon="26.93731">
        <ele>4.28</ele>
      </trkpt>
      <trkpt lat="38.76006" lon="26.93645">
        <ele>1</ele>
      </trkpt>
      <trkpt lat="38.75935" lon="26.93642">
        <ele>1</ele>
      </trkpt>
      <trkpt lat="38.75888" lon="26.9362">
        <ele>1.3</ele>
      </trkpt>
      <trkpt lat="38.75845" lon="26.93534">
        <ele>1</ele>
      </trkpt>
      <trkpt lat="38.7583" lon="26.93493">
        <ele>5.9</ele>
      </trkpt>
      <trkpt lat="38.75731" lon="26.93486">
        <ele>8.7</ele>
      </trkpt>
      <trkpt lat="38.75715" lon="26.93465">
        <ele>10.6</ele>
      </trkpt>
      <trkpt lat="38.757" lon="26.93362">
        <ele>9.1</ele>
      </trkpt>
      <trkpt lat="38.75674" lon="26.93262">
        <ele>2.9</ele>
      </trkpt>
      <trkpt lat="38.75629" lon="26.93139">
        <ele>1</ele>
      </trkpt>
      <trkpt lat="38.75561" lon="26.93133">
        <ele>1.4</ele>
      </trkpt>
      <trkpt lat="38.75511" lon="26.93187">
        <ele>1.1</ele>
      </trkpt>
      <trkpt lat="38.75358" lon="26.93208">
        <ele>2</ele>
      </trkpt>
      <trkpt lat="38.7532" lon="26.93172">
        <ele>2.1</ele>
      </trkpt>
      <trkpt lat="38.75287" lon="26.93193">
        <ele>3.4</ele>
      </trkpt>
      <trkpt lat="38.75268" lon="26.93225">
        <ele>6</ele>
      </trkpt>
      <trkpt lat="38.75254" lon="26.93218">
        <ele>6.2</ele>
      </trkpt>
      <trkpt lat="38.75217" lon="26.93191">
        <ele>6.6</ele>
      </trkpt>
      <trkpt lat="38.75137" lon="26.93151">
        <ele>7.6</ele>
      </trkpt>
      <trkpt lat="38.75056" lon="26.93127">
        <ele>9.1</ele>
      </trkpt>
      <trkpt lat="38.7499" lon="26.9297">
        <ele>9.8</ele>
      </trkpt>
      <trkpt lat="38.74918" lon="26.92884">
        <ele>11.1</ele>
      </trkpt>
      <trkpt lat="38.74864" lon="26.92822">
        <ele>11.2</ele>
      </trkpt>
      <trkpt lat="38.74823" lon="26.92779">
        <ele>9.5</ele>
      </trkpt>
      <trkpt lat="38.74764" lon="26.92728">
        <ele>10.6</ele>
      </trkpt>
      <trkpt lat="38.74681" lon="26.92591">
        <ele>14.5</ele>
      </trkpt>
      <trkpt lat="38.74664" lon="26.92551">
        <ele>17.3</ele>
      </trkpt>
      <trkpt lat="38.74621" lon="26.9238">
        <ele>18.1</ele>
      </trkpt>
      <trkpt lat="38.74668" lon="26.92346">
        <ele>15.6</ele>
      </trkpt>
      <trkpt lat="38.74831" lon="26.92092">
        <ele>8.3</ele>
      </trkpt>
      <trkpt lat="38.74907" lon="26.91964">
        <ele>12.5</ele>
      </trkpt>
      <trkpt lat="38.74907" lon="26.91852">
        <ele>16.7</ele>
      </trkpt>
      <trkpt lat="38.74923" lon="26.91768">
        <ele>18.8</ele>
      </trkpt>
      <trkpt lat="38.74939" lon="26.9165">
        <ele>22</ele>
      </trkpt>
      <trkpt lat="38.74903" lon="26.91515">
        <ele>25.8</ele>
      </trkpt>
      <trkpt lat="38.74823" lon="26.91397">
        <ele>35.5</ele>
      </trkpt>
      <trkpt lat="38.74792" lon="26.91293">
        <ele>34.6</ele>
      </trkpt>
      <trkpt lat="38.74751" lon="26.91223">
        <ele>33.6</ele>
      </trkpt>
      <trkpt lat="38.74711" lon="26.91191">
        <ele>37</ele>
      </trkpt>
      <trkpt lat="38.74697" lon="26.91177">
        <ele>37.6</ele>
      </trkpt>
      <trkpt lat="38.74683" lon="26.9114">
        <ele>37.5</ele>
      </trkpt>
      <trkpt lat="38.74675" lon="26.91114">
        <ele>37.3</ele>
      </trkpt>
      <trkpt lat="38.74666" lon="26.91091">
        <ele>37.4</ele>
      </trkpt>
      <trkpt lat="38.74634" lon="26.91033">
        <ele>37.9</ele>
      </trkpt>
      <trkpt lat="38.74649" lon="26.91011">
        <ele>35.7</ele>
      </trkpt>
      <trkpt lat="38.74622" lon="26.90955">
        <ele>36.4</ele>
      </trkpt>
      <trkpt lat="38.74575" lon="26.90896">
        <ele>37.9</ele>
      </trkpt>
      <trkpt lat="38.74464" lon="26.90816">
        <ele>34</ele>
      </trkpt>
      <trkpt lat="38.74389" lon="26.90769">
        <ele>28.9</ele>
      </trkpt>
      <trkpt lat="38.74313" lon="26.90677">
        <ele>21.3</ele>
      </trkpt>
      <trkpt lat="38.74216" lon="26.90542">
        <ele>14.4</ele>
      </trkpt>
      <trkpt lat="38.741" lon="26.90457">
        <ele>9.3</ele>
      </trkpt>
      <trkpt lat="38.74043" lon="26.90384">
        <ele>6.1</ele>
      </trkpt>
      <trkpt lat="38.73978" lon="26.90281">
        <ele>3.4</ele>
      </trkpt>
      <trkpt lat="38.73951" lon="26.90232">
        <ele>3.5</ele>
      </trkpt>
      <trkpt lat="38.73882" lon="26.9028">
        <ele>5.3</ele>
      </trkpt>
      <trkpt lat="38.73803" lon="26.90347">
        <ele>7.8</ele>
      </trkpt>
      <trkpt lat="38.73719" lon="26.90391">
        <ele>11.1</ele>
      </trkpt>
      <trkpt lat="38.73646" lon="26.90408">
        <ele>12.7</ele>
      </trkpt>
      <trkpt lat="38.73522" lon="26.9049">
        <ele>12.9</ele>
      </trkpt>
      <trkpt lat="38.73509" lon="26.90471">
        <ele>13.5</ele>
      </trkpt>
      <trkpt lat="38.73456" lon="26.90174">
        <ele>10.5</ele>
      </trkpt>
      <trkpt lat="38.7344" lon="26.89934">
        <ele>6.8</ele>
      </trkpt>
      <trkpt lat="38.7342" lon="26.89798">
        <ele>3.2</ele>
      </trkpt>
      <trkpt lat="38.73373" lon="26.89642">
        <ele>2.4</ele>
      </trkpt>
      <trkpt lat="38.73369" lon="26.89521">
        <ele>1.3</ele>
      </trkpt>
      <trkpt lat="38.73299" lon="26.89253">
        <ele>1</ele>
      </trkpt>
      <trkpt lat="38.73275" lon="26.89163">
        <ele>1.1</ele>
      </trkpt>
      <trkpt lat="38.73225" lon="26.88919">
        <ele>1.3</ele>
      </trkpt>
      <trkpt lat="38.73205" lon="26.88831">
      </trkpt>
      <trkpt lat="38.73207" lon="26.88732">
        <ele>2</ele>
      </trkpt>
      <trkpt lat="38.73224" lon="26.886">
        <ele>2</ele>
      </trkpt>
      <trkpt lat="38.73218" lon="26.88541">
        <ele>2</ele>
      </trkpt>
      <trkpt lat="38.73242" lon="26.88448">
        <ele>1.2</ele>
      </trkpt>
      <trkpt lat="38.73283" lon="26.88281">
        <ele>4.8</ele>
      </trkpt>
      <trkpt lat="38.73294" lon="26.88213">
        <ele>10.9</ele>
      </trkpt>
      <trkpt lat="38.73338" lon="26.88171">
        <ele>9.5</ele>
      </trkpt>
      <trkpt lat="38.73359" lon="26.88134">
        <ele>14.1</ele>
      </trkpt>
      <trkpt lat="38.73408" lon="26.88032">
        <ele>7.5</ele>
      </trkpt>
      <trkpt lat="38.73439" lon="26.87902">
        <ele>13.1</ele>
      </trkpt>
      <trkpt lat="38.73467" lon="26.87802">
        <ele>10.3</ele>
      </trkpt>
      <trkpt lat="38.73495" lon="26.87703">
        <ele>10.2</ele>
      </trkpt>
      <trkpt lat="38.73555" lon="26.87566">
        <ele>13</ele>
      </trkpt>
      <trkpt lat="38.73618" lon="26.87461">
        <ele>11.5</ele>
      </trkpt>
      <trkpt lat="38.73696" lon="26.87363">
        <ele>11.4</ele>
      </trkpt>
      <trkpt lat="38.73819" lon="26.87238">
        <ele>11.9</ele>
      </trkpt>
      <trkpt lat="38.7389" lon="26.87167">
        <ele>21.3</ele>
      </trkpt>
      <trkpt lat="38.73976" lon="26.87052">
        <ele>20.4</ele>
      </trkpt>
      <trkpt lat="38.74059" lon="26.86907">
        <ele>11.8</ele>
      </trkpt>
      <trkpt lat="38.74186" lon="26.8662">
        <ele>14.4</ele>
      </trkpt>
      <trkpt lat="38.74255" lon="26.8649">
        <ele>6.8</ele>
      </trkpt>
      <trkpt lat="38.74318" lon="26.86429">
        <ele>3.9</ele>
      </trkpt>
      <trkpt lat="38.7439" lon="26.86378">
        <ele>3.6</ele>
      </trkpt>
      <trkpt lat="38.74479" lon="26.8635">
        <ele>5.8</ele>
      </trkpt>
      <trkpt lat="38.74615" lon="26.86338">
        <ele>10.3</ele>
      </trkpt>
      <trkpt lat="38.74686" lon="26.86295">
        <ele>17.1</ele>
      </trkpt>
      <trkpt lat="38.74747" lon="26.86218">
        <ele>23.7</ele>
      </trkpt>
      <trkpt lat="38.74771" lon="26.86153">
        <ele>26.3</ele>
      </trkpt>
      <trkpt lat="38.74786" lon="26.8608">
        <ele>26.1</ele>
      </trkpt>
      <trkpt lat="38.74786" lon="26.85991">
        <ele>27.5</ele>
      </trkpt>
      <trkpt lat="38.74754" lon="26.85725">
        <ele>30.1</ele>
      </trkpt>
      <trkpt lat="38.74728" lon="26.85463">
        <ele>18.4</ele>
      </trkpt>
      <trkpt lat="38.74728" lon="26.85252">
        <ele>14.5</ele>
      </trkpt>
      <trkpt lat="38.74723" lon="26.84906">
        <ele>15.8</ele>
      </trkpt>
      <trkpt lat="38.7471" lon="26.84795">
        <ele>12.9</ele>
      </trkpt>
      <trkpt lat="38.74678" lon="26.84688">
        <ele>8.3</ele>
      </trkpt>
      <trkpt lat="38.74604" lon="26.84591">
        <ele>11.3</ele>
      </trkpt>
      <trkpt lat="38.74567" lon="26.84556">
        <ele>13.8</ele>
      </trkpt>
      <trkpt lat="38.74534" lon="26.8445">
        <ele>7.7</ele>
      </trkpt>
      <trkpt lat="38.74504" lon="26.84396">
        <ele>5.3</ele>
      </trkpt>
      <trkpt lat="38.7432" lon="26.84206">
        <ele>1.7</ele>
      </trkpt>
      <trkpt lat="38.7427" lon="26.84161">
        <ele>2.4</ele>
      </trkpt>
      <trkpt lat="38.7423" lon="26.84094">
        <ele>1.2</ele>
      </trkpt>
      <trkpt lat="38.74147" lon="26.83974">
        <ele>1.1</ele>
      </trkpt>
      <trkpt lat="38.74157" lon="26.83868">
        <ele>1.2</ele>
      </trkpt>
      <trkpt lat="38.74183" lon="26.83754">
        <ele>1</ele>
      </trkpt>
      <trkpt lat="38.74145" lon="26.83748">
        <ele>1.8</ele>
      </trkpt>
      <trkpt lat="38.74178" lon="26.8367">
        <ele>2.9</ele>
      </trkpt>
      <trkpt lat="38.74294" lon="26.83439">
        <ele>1</ele>
      </trkpt>
      <trkpt lat="38.74415" lon="26.8332">
        <ele>2.97</ele>
      </trkpt>
      <trkpt lat="38.74565" lon="26.83179">
        <ele>6.2</ele>
      </trkpt>
      <trkpt lat="38.74624" lon="26.83103">
        <ele>9.4</ele>
      </trkpt>
      <trkpt lat="38.74664" lon="26.83026">
        <ele>10.5</ele>
      </trkpt>
      <trkpt lat="38.74732" lon="26.82946">
        <ele>9.5</ele>
      </trkpt>
      <trkpt lat="38.74749" lon="26.82907">
        <ele>9.7</ele>
      </trkpt>
      <trkpt lat="38.74777" lon="26.82879">
        <ele>9.5</ele>
      </trkpt>
      <trkpt lat="38.74829" lon="26.82813">
        <ele>10.8</ele>
      </trkpt>
      <trkpt lat="38.74865" lon="26.82719">
        <ele>18.5</ele>
      </trkpt>
      <trkpt lat="38.74913" lon="26.8252">
        <ele>27.5</ele>
      </trkpt>
      <trkpt lat="38.7497" lon="26.82226">
        <ele>65.4</ele>
      </trkpt>
      <trkpt lat="38.74986" lon="26.82081">
        <ele>73.3</ele>
      </trkpt>
      <trkpt lat="38.75016" lon="26.81742">
        <ele>77.1</ele>
      </trkpt>
      <trkpt lat="38.75023" lon="26.81694">
        <ele>81.6</ele>
      </trkpt>
      <trkpt lat="38.75046" lon="26.81637">
        <ele>84.1</ele>
      </trkpt>
      <trkpt lat="38.75088" lon="26.81604">
        <ele>78.1</ele>
      </trkpt>
      <trkpt lat="38.75139" lon="26.8154">
        <ele>67.8</ele>
      </trkpt>
      <trkpt lat="38.75142" lon="26.81487">
        <ele>66.8</ele>
      </trkpt>
      <trkpt lat="38.75122" lon="26.8143">
        <ele>62.6</ele>
      </trkpt>
      <trkpt lat="38.75086" lon="26.81404">
        <ele>65.4</ele>
      </trkpt>
      <trkpt lat="38.74992" lon="26.81345">
        <ele>62.3</ele>
      </trkpt>
      <trkpt lat="38.74957" lon="26.81293">
        <ele>65.6</ele>
      </trkpt>
      <trkpt lat="38.74949" lon="26.81253">
        <ele>67.1</ele>
      </trkpt>
      <trkpt lat="38.74957" lon="26.81203">
        <ele>69</ele>
      </trkpt>
      <trkpt lat="38.74969" lon="26.81149">
        <ele>69.1</ele>
      </trkpt>
      <trkpt lat="38.74966" lon="26.81116">
        <ele>69.6</ele>
      </trkpt>
      <trkpt lat="38.7495" lon="26.81081">
        <ele>71.8</ele>
      </trkpt>
      <trkpt lat="38.7492" lon="26.81059">
        <ele>77.1</ele>
      </trkpt>
      <trkpt lat="38.74883" lon="26.8106">
        <ele>74</ele>
      </trkpt>
      <trkpt lat="38.74848" lon="26.81073">
        <ele>70.7</ele>
      </trkpt>
      <trkpt lat="38.74811" lon="26.81076">
        <ele>71.2</ele>
      </trkpt>
      <trkpt lat="38.74775" lon="26.81051">
        <ele>72.4</ele>
      </trkpt>
      <trkpt lat="38.74756" lon="26.81011">
        <ele>71.3</ele>
      </trkpt>
      <trkpt lat="38.74738" lon="26.80917">
        <ele>66.6</ele>
      </trkpt>
      <trkpt lat="38.74698" lon="26.80673">
        <ele>61.7</ele>
      </trkpt>
      <trkpt lat="38.74698" lon="26.80593">
        <ele>59</ele>
      </trkpt>
      <trkpt lat="38.74735" lon="26.80316">
        <ele>60.9</ele>
      </trkpt>
      <trkpt lat="38.74738" lon="26.8022">
        <ele>61.1</ele>
      </trkpt>
      <trkpt lat="38.74723" lon="26.80115">
        <ele>55.8</ele>
      </trkpt>
      <trkpt lat="38.74682" lon="26.80021">
        <ele>49.1</ele>
      </trkpt>
      <trkpt lat="38.74643" lon="26.79963">
        <ele>42.7</ele>
      </trkpt>
      <trkpt lat="38.74595" lon="26.79916">
        <ele>37.3</ele>
      </trkpt>
      <trkpt lat="38.74523" lon="26.79878">
        <ele>31.3</ele>
      </trkpt>
      <trkpt lat="38.74477" lon="26.79861">
        <ele>29.3</ele>
      </trkpt>
      <trkpt lat="38.74429" lon="26.79834">
        <ele>25.2</ele>
      </trkpt>
      <trkpt lat="38.74401" lon="26.79798">
        <ele>22.8</ele>
      </trkpt>
      <trkpt lat="38.74385" lon="26.79764">
        <ele>19.8</ele>
      </trkpt>
      <trkpt lat="38.74375" lon="26.79716">
        <ele>14.5</ele>
      </trkpt>
      <trkpt lat="38.74378" lon="26.79658">
        <ele>8.6</ele>
      </trkpt>
      <trkpt lat="38.74394" lon="26.79611">
        <ele>8.6</ele>
      </trkpt>
      <trkpt lat="38.74435" lon="26.79539">
        <ele>12.6</ele>
      </trkpt>
      <trkpt lat="38.74524" lon="26.79402">
        <ele>21.9</ele>
      </trkpt>
      <trkpt lat="38.74601" lon="26.79317">
        <ele>27.7</ele>
      </trkpt>
      <trkpt lat="38.74649" lon="26.79302">
        <ele>24.8</ele>
      </trkpt>
      <trkpt lat="38.74706" lon="26.79299">
        <ele>20.3</ele>
      </trkpt>
      <trkpt lat="38.74723" lon="26.79272">
        <ele>23.7</ele>
      </trkpt>
      <trkpt lat="38.74723" lon="26.79239">
        <ele>27.1</ele>
      </trkpt>
      <trkpt lat="38.74699" lon="26.7921">
        <ele>26.7</ele>
      </trkpt>
      <trkpt lat="38.74632" lon="26.79216">
        <ele>34.6</ele>
      </trkpt>
      <trkpt lat="38.74575" lon="26.79193">
        <ele>41.5</ele>
      </trkpt>
      <trkpt lat="38.74507" lon="26.79159">
        <ele>51.1</ele>
      </trkpt>
      <trkpt lat="38.7444" lon="26.79146">
        <ele>56.3</ele>
      </trkpt>
      <trkpt lat="38.74305" lon="26.79145">
        <ele>69.9</ele>
      </trkpt>
      <trkpt lat="38.74127" lon="26.79144">
        <ele>91.5</ele>
      </trkpt>
      <trkpt lat="38.7407" lon="26.79144">
        <ele>93.5</ele>
      </trkpt>
      <trkpt lat="38.73996" lon="26.79098">
        <ele>89.1</ele>
      </trkpt>
      <trkpt lat="38.73947" lon="26.79059">
        <ele>86.7</ele>
      </trkpt>
      <trkpt lat="38.7389" lon="26.79044">
        <ele>83.2</ele>
      </trkpt>
      <trkpt lat="38.73732" lon="26.79064">
        <ele>78.5</ele>
      </trkpt>
      <trkpt lat="38.73683" lon="26.79037">
        <ele>77.1</ele>
      </trkpt>
      <trkpt lat="38.7356" lon="26.78805">
        <ele>77.6</ele>
      </trkpt>
      <trkpt lat="38.73556" lon="26.78759">
        <ele>72.5</ele>
      </trkpt>
      <trkpt lat="38.73567" lon="26.7871">
        <ele>70.5</ele>
      </trkpt>
      <trkpt lat="38.7359" lon="26.78675">
        <ele>70.7</ele>
      </trkpt>
      <trkpt lat="38.73753" lon="26.78551">
        <ele>54.3</ele>
      </trkpt>
      <trkpt lat="38.73777" lon="26.78508">
        <ele>51.4</ele>
      </trkpt>
      <trkpt lat="38.73794" lon="26.78443">
        <ele>46.8</ele>
      </trkpt>
      <trkpt lat="38.73787" lon="26.78361">
        <ele>44.1</ele>
      </trkpt>
      <trkpt lat="38.73748" lon="26.78296">
        <ele>40.7</ele>
      </trkpt>
      <trkpt lat="38.73701" lon="26.78261">
        <ele>34.1</ele>
      </trkpt>
      <trkpt lat="38.73664" lon="26.78249">
        <ele>31.5</ele>
      </trkpt>
      <trkpt lat="38.73616" lon="26.78257">
        <ele>31.4</ele>
      </trkpt>
      <trkpt lat="38.73564" lon="26.78275">
        <ele>31</ele>
      </trkpt>
      <trkpt lat="38.73459" lon="26.78329">
        <ele>20.5</ele>
      </trkpt>
      <trkpt lat="38.73402" lon="26.78339">
        <ele>12.8</ele>
      </trkpt>
      <trkpt lat="38.73365" lon="26.78313">
        <ele>7.7</ele>
      </trkpt>
      <trkpt lat="38.73344" lon="26.78262">
        <ele>5.2</ele>
      </trkpt>
      <trkpt lat="38.73338" lon="26.78215">
        <ele>5.3</ele>
      </trkpt>
      <trkpt lat="38.7335" lon="26.78175">
        <ele>5.5</ele>
      </trkpt>
      <trkpt lat="38.73371" lon="26.78142">
        <ele>5.2</ele>
      </trkpt>
      <trkpt lat="38.73486" lon="26.7802">
        <ele>9.1</ele>
      </trkpt>
      <trkpt lat="38.73539" lon="26.77938">
        <ele>8.3</ele>
      </trkpt>
      <trkpt lat="38.73658" lon="26.77675">
        <ele>27.2</ele>
      </trkpt>
      <trkpt lat="38.73678" lon="26.77595">
        <ele>27</ele>
      </trkpt>
      <trkpt lat="38.7369" lon="26.77497">
        <ele>24</ele>
      </trkpt>
      <trkpt lat="38.73662" lon="26.77401">
        <ele>16.8</ele>
      </trkpt>
      <trkpt lat="38.73521" lon="26.77158">
        <ele>10.3</ele>
      </trkpt>
      <trkpt lat="38.73376" lon="26.76925">
        <ele>4.2</ele>
      </trkpt>
      <trkpt lat="38.73372" lon="26.76859">
        <ele>3.8</ele>
      </trkpt>
      <trkpt lat="38.7338" lon="26.76801">
        <ele>5.6</ele>
      </trkpt>
      <trkpt lat="38.73455" lon="26.76745">
        <ele>8.2</ele>
      </trkpt>
      <trkpt lat="38.7355" lon="26.76669">
        <ele>15.9</ele>
      </trkpt>
      <trkpt lat="38.73593" lon="26.7659">
        <ele>16.1</ele>
      </trkpt>
      <trkpt lat="38.73608" lon="26.76522">
        <ele>15</ele>
      </trkpt>
      <trkpt lat="38.73599" lon="26.76437">
        <ele>16.4</ele>
      </trkpt>
      <trkpt lat="38.73553" lon="26.76254">
        <ele>11.2</ele>
      </trkpt>
      <trkpt lat="38.73528" lon="26.75727">
        <ele>7.9</ele>
      </trkpt>
      <trkpt lat="38.73537" lon="26.7554">
        <ele>25</ele>
      </trkpt>
      <trkpt lat="38.73561" lon="26.75402">
        <ele>29.5</ele>
      </trkpt>
      <trkpt lat="38.73611" lon="26.75247">
        <ele>46.4</ele>
      </trkpt>
      <trkpt lat="38.73687" lon="26.75057">
        <ele>54.2</ele>
      </trkpt>
      <trkpt lat="38.73924" lon="26.74493">
        <ele>60.7</ele>
      </trkpt>
      <trkpt lat="38.73935" lon="26.74433">
        <ele>56.6</ele>
      </trkpt>
      <trkpt lat="38.73913" lon="26.74364">
        <ele>58</ele>
      </trkpt>
      <trkpt lat="38.73882" lon="26.74327">
        <ele>54.9</ele>
      </trkpt>
      <trkpt lat="38.73826" lon="26.7432">
        <ele>51.6</ele>
      </trkpt>
      <trkpt lat="38.73361" lon="26.74343">
        <ele>10.5</ele>
      </trkpt>
      <trkpt lat="38.73286" lon="26.74368">
        <ele>7.3</ele>
      </trkpt>
      <trkpt lat="38.73127" lon="26.74456">
        <ele>6.4</ele>
      </trkpt>
      <trkpt lat="38.73057" lon="26.74449">
        <ele>3.2</ele>
      </trkpt>
      <trkpt lat="38.73019" lon="26.74412">
        <ele>2.2</ele>
      </trkpt>
      <trkpt lat="38.72996" lon="26.74358">
        <ele>1.9</ele>
      </trkpt>
      <trkpt lat="38.72992" lon="26.74299">
        <ele>4.6</ele>
      </trkpt>
      <trkpt lat="38.73021" lon="26.74198">
        <ele>10.2</ele>
      </trkpt>
      <trkpt lat="38.73087" lon="26.74039">
        <ele>14.5</ele>
      </trkpt>
      <trkpt lat="38.73106" lon="26.73933">
        <ele>23.3</ele>
      </trkpt>
      <trkpt lat="38.73098" lon="26.73854">
        <ele>26.4</ele>
      </trkpt>
      <trkpt lat="38.73076" lon="26.738">
        <ele>27.2</ele>
      </trkpt>
      <trkpt lat="38.73037" lon="26.7375">
        <ele>28.8</ele>
      </trkpt>
      <trkpt lat="38.72995" lon="26.73717">
        <ele>32.1</ele>
      </trkpt>
      <trkpt lat="38.72949" lon="26.73703">
        <ele>32.2</ele>
      </trkpt>
      <trkpt lat="38.72893" lon="26.73707">
        <ele>36.6</ele>
      </trkpt>
      <trkpt lat="38.72838" lon="26.73717">
        <ele>41.5</ele>
      </trkpt>
      <trkpt lat="38.72819" lon="26.73717">
        <ele>44.9</ele>
      </trkpt>
      <trkpt lat="38.72781" lon="26.73689">
        <ele>49.3</ele>
      </trkpt>
      <trkpt lat="38.72756" lon="26.73642">
        <ele>53</ele>
      </trkpt>
      <trkpt lat="38.72777" lon="26.73514">
        <ele>53.6</ele>
      </trkpt>
      <trkpt lat="38.72754" lon="26.73434">
        <ele>53.2</ele>
      </trkpt>
      <trkpt lat="38.72707" lon="26.73377">
        <ele>53.9</ele>
      </trkpt>
      <trkpt lat="38.72639" lon="26.7334">
        <ele>60.2</ele>
      </trkpt>
      <trkpt lat="38.7238" lon="26.73264">
        <ele>48.3</ele>
      </trkpt>
      <trkpt lat="38.7231" lon="26.7326">
        <ele>39.2</ele>
      </trkpt>
      <trkpt lat="38.7226" lon="26.73284">
        <ele>33.4</ele>
      </trkpt>
      <trkpt lat="38.72119" lon="26.73417">
        <ele>16.1</ele>
      </trkpt>
      <trkpt lat="38.72066" lon="26.73444">
        <ele>14.5</ele>
      </trkpt>
      <trkpt lat="38.72002" lon="26.73445">
        <ele>9.9</ele>
      </trkpt>
      <trkpt lat="38.71929" lon="26.73402">
        <ele>11.3</ele>
      </trkpt>
      <trkpt lat="38.71822" lon="26.73285">
        <ele>23.9</ele>
      </trkpt>
      <trkpt lat="38.71747" lon="26.73257">
        <ele>20.9</ele>
      </trkpt>
      <trkpt lat="38.71514" lon="26.73221">
        <ele>15.5</ele>
      </trkpt>
      <trkpt lat="38.71352" lon="26.73175">
        <ele>15.9</ele>
      </trkpt>
      <trkpt lat="38.71271" lon="26.73168">
        <ele>21.9</ele>
      </trkpt>
      <trkpt lat="38.71175" lon="26.73188">
        <ele>21.7</ele>
      </trkpt>
      <trkpt lat="38.7097" lon="26.733">
        <ele>14.9</ele>
      </trkpt>
      <trkpt lat="38.70666" lon="26.73494">
        <ele>28</ele>
      </trkpt>
      <trkpt lat="38.70506" lon="26.73591">
        <ele>36.6</ele>
      </trkpt>
      <trkpt lat="38.70417" lon="26.73629">
        <ele>47.2</ele>
      </trkpt>
      <trkpt lat="38.70277" lon="26.73696">
        <ele>54.5</ele>
      </trkpt>
      <trkpt lat="38.7022" lon="26.73727">
        <ele>52</ele>
      </trkpt>
      <trkpt lat="38.70189" lon="26.73759">
        <ele>49.2</ele>
      </trkpt>
      <trkpt lat="38.70126" lon="26.73879">
        <ele>43.3</ele>
      </trkpt>
      <trkpt lat="38.70034" lon="26.73967">
        <ele>30.2</ele>
      </trkpt>
      <trkpt lat="38.69989" lon="26.73982">
        <ele>24.2</ele>
      </trkpt>
      <trkpt lat="38.69947" lon="26.73948">
        <ele>22.3</ele>
      </trkpt>
      <trkpt lat="38.69933" lon="26.73894">
        <ele>24</ele>
      </trkpt>
      <trkpt lat="38.69962" lon="26.73793">
        <ele>21.3</ele>
      </trkpt>
      <trkpt lat="38.6996" lon="26.73733">
        <ele>19</ele>
      </trkpt>
      <trkpt lat="38.69864" lon="26.7352">
        <ele>12.6</ele>
      </trkpt>
      <trkpt lat="38.69806" lon="26.73468">
        <ele>10.7</ele>
      </trkpt>
      <trkpt lat="38.69685" lon="26.73412">
        <ele>10.1</ele>
      </trkpt>
      <trkpt lat="38.69624" lon="26.73355">
        <ele>12.7</ele>
      </trkpt>
      <trkpt lat="38.69561" lon="26.73243">
        <ele>19.3</ele>
      </trkpt>
      <trkpt lat="38.69512" lon="26.73202">
        <ele>17.6</ele>
      </trkpt>
      <trkpt lat="38.69445" lon="26.73177">
        <ele>12.7</ele>
      </trkpt>
      <trkpt lat="38.69387" lon="26.73187">
        <ele>9.7</ele>
      </trkpt>
      <trkpt lat="38.69326" lon="26.73224">
        <ele>5.1</ele>
      </trkpt>
      <trkpt lat="38.6927" lon="26.73312">
        <ele>2.8</ele>
      </trkpt>
      <trkpt lat="38.69175" lon="26.73534">
        <ele>4.4</ele>
      </trkpt>
      <trkpt lat="38.69076" lon="26.73679">
        <ele>13</ele>
      </trkpt>
      <trkpt lat="38.68773" lon="26.73949">
        <ele>4.7</ele>
      </trkpt>
      <trkpt lat="38.68502" lon="26.74172">
        <ele>5.3</ele>
      </trkpt>
      <trkpt lat="38.68272" lon="26.74342">
        <ele>7</ele>
      </trkpt>
      <trkpt lat="38.68139" lon="26.74543">
        <ele>19.5</ele>
      </trkpt>
      <trkpt lat="38.681" lon="26.74594">
        <ele>17.2</ele>
      </trkpt>
      <trkpt lat="38.67869" lon="26.74802">
        <ele>3.9</ele>
      </trkpt>
      <trkpt lat="38.67754" lon="26.74873">
        <ele>3.1</ele>
      </trkpt>
      <trkpt lat="38.67671" lon="26.74931">
        <ele>2.7</ele>
      </trkpt>
      <trkpt lat="38.67596" lon="26.75024">
        <ele>1</ele>
      </trkpt>
      <trkpt lat="38.67544" lon="26.75135">
        <ele>1</ele>
      </trkpt>
      <trkpt lat="38.67526" lon="26.75188">
        <ele>1.6</ele>
      </trkpt>
      <trkpt lat="38.67501" lon="26.75218">
        <ele>1.6</ele>
      </trkpt>
      <trkpt lat="38.67389" lon="26.75373">
        <ele>2.6</ele>
      </trkpt>
      <trkpt lat="38.67247" lon="26.75481">
        <ele>2.94</ele>
      </trkpt>
      <trkpt lat="38.67137" lon="26.75504">
        <ele>1.1</ele>
      </trkpt>
      <trkpt lat="38.66985" lon="26.75505">
        <ele>1.7</ele>
      </trkpt>
      <trkpt lat="38.66869" lon="26.75533">
        <ele>4</ele>
      </trkpt>
      <trkpt lat="38.66872" lon="26.7547">
        <ele>4.2</ele>
      </trkpt>
      <trkpt lat="38.66895" lon="26.75461">
        <ele>3.9</ele>
      </trkpt>
      <trkpt lat="38.66941" lon="26.7541">
        <ele>3.4</ele>
      </trkpt>
      <trkpt lat="38.6702" lon="26.75363">
        <ele>6</ele>
      </trkpt>
      <trkpt lat="38.67039" lon="26.75306">
        <ele>6</ele>
      </trkpt>
      <trkpt lat="38.67032" lon="26.75286">
        <ele>6</ele>
      </trkpt>
      <trkpt lat="38.67002" lon="26.75228">
        <ele>5.5</ele>
      </trkpt>
      <trkpt lat="38.66989" lon="26.75157">
        <ele>5</ele>
      </trkpt>
      <trkpt lat="38.66978" lon="26.75106">
        <ele>4.2</ele>
      </trkpt>
      <trkpt lat="38.6696" lon="26.75075">
        <ele>4.41</ele>
      </trkpt>
      <trkpt lat="38.66941" lon="26.75066">
        <ele>5.55</ele>
      </trkpt>
      <trkpt lat="38.66912" lon="26.7506">
        <ele>6.76</ele>
      </trkpt>
      <trkpt lat="38.66871" lon="26.75065">
        <ele>4.79</ele>
      </trkpt>
      <trkpt lat="38.6683" lon="26.75075">
        <ele>2.96</ele>
      </trkpt>
      <trkpt lat="38.6679" lon="26.75129">
        <ele>3.3</ele>
      </trkpt>
      <trkpt lat="38.66779" lon="26.75163">
        <ele>3.6</ele>
      </trkpt>
      <trkpt lat="38.66754" lon="26.75212">
        <ele>3.1</ele>
      </trkpt>
      <trkpt lat="38.66737" lon="26.75236">
        <ele>2.7</ele>
      </trkpt>
      <trkpt lat="38.66645" lon="26.75345">
        <ele>2.3</ele>
      </trkpt>
      <trkpt lat="38.66625" lon="26.75361">
        <ele>2.7</ele>
      </trkpt>
      <trkpt lat="38.66652" lon="26.75384">
        <ele>3.2</ele>
      </trkpt>
      <trkpt lat="38.66665" lon="26.7541">
        <ele>3.8</ele>
      </trkpt>
      <trkpt lat="38.66663" lon="26.75436">
        <ele>4.2</ele>
      </trkpt>
      <trkpt lat="38.66621" lon="26.7554">
        <ele>5.2</ele>
      </trkpt>
      <trkpt lat="38.66564" lon="26.75661">
        <ele>7.9</ele>
      </trkpt>
      <trkpt lat="38.66447" lon="26.75902">
        <ele>9.2</ele>
      </trkpt>
      <trkpt lat="38.6641" lon="26.75964">
        <ele>9.2</ele>
      </trkpt>
      <trkpt lat="38.6632" lon="26.76081">
        <ele>13.8</ele>
      </trkpt>
      <trkpt lat="38.66181" lon="26.76272">
        <ele>19.3</ele>
      </trkpt>
      <trkpt lat="38.66069" lon="26.76417">
        <ele>30.2</ele>
      </trkpt>
      <trkpt lat="38.65928" lon="26.76596">
        <ele>44.4</ele>
      </trkpt>
      <trkpt lat="38.65865" lon="26.76679">
        <ele>52.8</ele>
      </trkpt>
      <trkpt lat="38.65792" lon="26.76753">
        <ele>65.8</ele>
      </trkpt>
      <trkpt lat="38.65739" lon="26.76793">
        <ele>72.3</ele>
      </trkpt>
      <trkpt lat="38.65684" lon="26.76824">
        <ele>77.1</ele>
      </trkpt>
      <trkpt lat="38.65582" lon="26.76851">
        <ele>84.9</ele>
      </trkpt>
      <trkpt lat="38.65499" lon="26.76867">
        <ele>84.5</ele>
      </trkpt>
      <trkpt lat="38.65351" lon="26.76874">
        <ele>99.8</ele>
      </trkpt>
      <trkpt lat="38.6529" lon="26.76881">
        <ele>107.5</ele>
      </trkpt>
      <trkpt lat="38.65233" lon="26.76897">
        <ele>112.6</ele>
      </trkpt>
      <trkpt lat="38.6518" lon="26.76941">
        <ele>110.2</ele>
      </trkpt>
      <trkpt lat="38.65149" lon="26.76987">
        <ele>104.6</ele>
      </trkpt>
      <trkpt lat="38.6513" lon="26.77047">
        <ele>97</ele>
      </trkpt>
      <trkpt lat="38.65121" lon="26.77141">
        <ele>92.6</ele>
      </trkpt>
      <trkpt lat="38.65133" lon="26.77205">
        <ele>93.2</ele>
      </trkpt>
      <trkpt lat="38.65176" lon="26.77447">
        <ele>73.4</ele>
      </trkpt>
      <trkpt lat="38.65218" lon="26.77701">
        <ele>67.1</ele>
      </trkpt>
      <trkpt lat="38.65253" lon="26.77898">
        <ele>45.5</ele>
      </trkpt>
      <trkpt lat="38.65257" lon="26.77938">
        <ele>45.7</ele>
      </trkpt>
      <trkpt lat="38.65257" lon="26.78045">
        <ele>44.8</ele>
      </trkpt>
      <trkpt lat="38.65238" lon="26.78148">
        <ele>35</ele>
      </trkpt>
      <trkpt lat="38.65203" lon="26.78247">
        <ele>27.3</ele>
      </trkpt>
      <trkpt lat="38.65147" lon="26.78372">
        <ele>28.3</ele>
      </trkpt>
      <trkpt lat="38.65112" lon="26.78446">
        <ele>33.5</ele>
      </trkpt>
      <trkpt lat="38.65068" lon="26.78539">
        <ele>36.6</ele>
      </trkpt>
      <trkpt lat="38.65045" lon="26.7862">
        <ele>34.9</ele>
      </trkpt>
      <trkpt lat="38.6502" lon="26.78748">
        <ele>32.6</ele>
      </trkpt>
      <trkpt lat="38.65015" lon="26.78829">
        <ele>31.6</ele>
      </trkpt>
      <trkpt lat="38.65031" lon="26.78952">
        <ele>30.7</ele>
      </trkpt>
      <trkpt lat="38.65099" lon="26.79227">
        <ele>30</ele>
      </trkpt>
      <trkpt lat="38.65173" lon="26.79524">
        <ele>41.5</ele>
      </trkpt>
      <trkpt lat="38.65209" lon="26.79667">
        <ele>48</ele>
      </trkpt>
      <trkpt lat="38.65249" lon="26.79777">
        <ele>55.7</ele>
      </trkpt>
      <trkpt lat="38.65292" lon="26.79849">
        <ele>60.7</ele>
      </trkpt>
      <trkpt lat="38.65399" lon="26.79969">
        <ele>70.7</ele>
      </trkpt>
      <trkpt lat="38.65524" lon="26.80088">
        <ele>79.5</ele>
      </trkpt>
      <trkpt lat="38.65596" lon="26.80179">
        <ele>80.3</ele>
      </trkpt>
      <trkpt lat="38.65639" lon="26.80269">
        <ele>75.5</ele>
      </trkpt>
      <trkpt lat="38.65658" lon="26.80347">
        <ele>72.3</ele>
      </trkpt>
      <trkpt lat="38.65667" lon="26.80511">
        <ele>68.5</ele>
      </trkpt>
      <trkpt lat="38.65666" lon="26.80666">
        <ele>65</ele>
      </trkpt>
      <trkpt lat="38.65653" lon="26.81371">
        <ele>54.7</ele>
      </trkpt>
      <trkpt lat="38.65656" lon="26.8148">
        <ele>51.8</ele>
      </trkpt>
      <trkpt lat="38.65678" lon="26.81596">
        <ele>50.7</ele>
      </trkpt>
      <trkpt lat="38.65742" lon="26.81774">
        <ele>49.7</ele>
      </trkpt>
      <trkpt lat="38.6584" lon="26.82003">
        <ele>47.2</ele>
      </trkpt>
      <trkpt lat="38.65867" lon="26.82019">
        <ele>47.5</ele>
      </trkpt>
      <trkpt lat="38.65925" lon="26.82128">
        <ele>43.3</ele>
      </trkpt>
      <trkpt lat="38.66009" lon="26.82283">
        <ele>37.1</ele>
      </trkpt>
      <trkpt lat="38.66086" lon="26.8236">
        <ele>37.2</ele>
      </trkpt>
      <trkpt lat="38.6609" lon="26.82384">
        <ele>37.5</ele>
      </trkpt>
      <trkpt lat="38.66066" lon="26.82633">
        <ele>35.2</ele>
      </trkpt>
      <trkpt lat="38.66092" lon="26.82708">
        <ele>35.7</ele>
      </trkpt>
      <trkpt lat="38.66095" lon="26.82743">
        <ele>36.1</ele>
      </trkpt>
      <trkpt lat="38.66067" lon="26.82851">
        <ele>35</ele>
      </trkpt>
      <trkpt lat="38.6604" lon="26.82914">
        <ele>35.4</ele>
      </trkpt>
      <trkpt lat="38.65992" lon="26.82946">
        <ele>36.1</ele>
      </trkpt>
      <trkpt lat="38.65955" lon="26.82975">
        <ele>34.9</ele>
      </trkpt>
      <trkpt lat="38.65886" lon="26.83055">
        <ele>31.6</ele>
      </trkpt>
      <trkpt lat="38.65848" lon="26.83095">
        <ele>27.2</ele>
      </trkpt>
      <trkpt lat="38.65807" lon="26.83158">
        <ele>24.7</ele>
      </trkpt>
      <trkpt lat="38.65781" lon="26.83175">
        <ele>23.5</ele>
      </trkpt>
      <trkpt lat="38.65763" lon="26.83212">
        <ele>22.6</ele>
      </trkpt>
      <trkpt lat="38.65861" lon="26.83846">
        <ele>17.7</ele>
      </trkpt>
      <trkpt lat="38.65928" lon="26.84261">
        <ele>12.2</ele>
      </trkpt>
      <trkpt lat="38.65953" lon="26.84452">
        <ele>9.4</ele>
      </trkpt>
      <trkpt lat="38.65957" lon="26.84601">
        <ele>7.9</ele>
      </trkpt>
      <trkpt lat="38.65944" lon="26.84778">
        <ele>9.2</ele>
      </trkpt>
      <trkpt lat="38.65962" lon="26.84907">
        <ele>13.2</ele>
      </trkpt>
      <trkpt lat="38.65955" lon="26.84981">
        <ele>13.2</ele>
      </trkpt>
      <trkpt lat="38.65934" lon="26.85111">
        <ele>13.5</ele>
      </trkpt>
      <trkpt lat="38.65917" lon="26.85296">
        <ele>11.9</ele>
      </trkpt>
      <trkpt lat="38.65842" lon="26.85587">
        <ele>12.4</ele>
      </trkpt>
      <trkpt lat="38.6583" lon="26.85647">
        <ele>10.8</ele>
      </trkpt>
      <trkpt lat="38.65849" lon="26.85751">
        <ele>8.6</ele>
      </trkpt>
      <trkpt lat="38.65994" lon="26.86127">
        <ele>6.5</ele>
      </trkpt>
      <trkpt lat="38.65982" lon="26.86208">
        <ele>5.9</ele>
      </trkpt>
      <trkpt lat="38.65998" lon="26.86304">
        <ele>5.7</ele>
      </trkpt>
      <trkpt lat="38.66032" lon="26.86455">
        <ele>7.9</ele>
      </trkpt>
      <trkpt lat="38.66027" lon="26.86617">
        <ele>8.8</ele>
      </trkpt>
      <trkpt lat="38.66019" lon="26.86723">
        <ele>8.5</ele>
      </trkpt>
      <trkpt lat="38.6603" lon="26.86845">
        <ele>8.1</ele>
      </trkpt>
      <trkpt lat="38.6601" lon="26.86931">
        <ele>7.6</ele>
      </trkpt>
      <trkpt lat="38.66022" lon="26.87059">
        <ele>6.3</ele>
      </trkpt>
      <trkpt lat="38.65996" lon="26.87249">
        <ele>4.9</ele>
      </trkpt>
      <trkpt lat="38.65811" lon="26.87777">
        <ele>2.7</ele>
      </trkpt>
      <trkpt lat="38.65456" lon="26.88785">
        <ele>4.5</ele>
      </trkpt>
      <trkpt lat="38.65387" lon="26.8892">
        <ele>4.9</ele>
      </trkpt>
      <trkpt lat="38.65105" lon="26.89463">
        <ele>4.2</ele>
      </trkpt>
      <trkpt lat="38.6489" lon="26.89882">
        <ele>2.9</ele>
      </trkpt>
      <trkpt lat="38.64674" lon="26.90278">
        <ele>4.9</ele>
      </trkpt>
      <trkpt lat="38.64611" lon="26.90372">
        <ele>5.2</ele>
      </trkpt>
      <trkpt lat="38.6445" lon="26.90324">
        <ele>4.3</ele>
      </trkpt>
      <trkpt lat="38.64414" lon="26.90332">
        <ele>4</ele>
      </trkpt>
      <trkpt lat="38.64358" lon="26.90475">
        <ele>4</ele>
      </trkpt>
      <trkpt lat="38.6433" lon="26.90529">
        <ele>4.7</ele>
      </trkpt>
      <trkpt lat="38.63961" lon="26.90986">
        <ele>6.2</ele>
      </trkpt>
      <trkpt lat="38.6394" lon="26.91018">
        <ele>6.5</ele>
      </trkpt>
      <trkpt lat="38.63809" lon="26.91692">
        <ele>3.6</ele>
      </trkpt>
      <trkpt lat="38.63789" lon="26.91716">
        <ele>3.7</ele>
      </trkpt>
      <trkpt lat="38.63338" lon="26.91566">
        <ele>3.3</ele>
      </trkpt>
      <trkpt lat="38.63245" lon="26.91585">
        <ele>3.2</ele>
      </trkpt>
      <trkpt lat="38.63154" lon="26.91635">
        <ele>8.1</ele>
      </trkpt>
      <trkpt lat="38.63141" lon="26.91665">
        <ele>10.3</ele>
      </trkpt>
      <trkpt lat="38.63155" lon="26.91767">
        <ele>8.9</ele>
      </trkpt>
      <trkpt lat="38.63158" lon="26.91918">
        <ele>8.4</ele>
      </trkpt>
      <trkpt lat="38.63125" lon="26.92068">
        <ele>12.2</ele>
      </trkpt>
      <trkpt lat="38.63108" lon="26.92219">
        <ele>11.2</ele>
      </trkpt>
      <trkpt lat="38.63062" lon="26.9237">
        <ele>18.2</ele>
      </trkpt>
      <trkpt lat="38.63003" lon="26.92502">
        <ele>19.6</ele>
      </trkpt>
      <trkpt lat="38.62962" lon="26.92636">
        <ele>13.9</ele>
      </trkpt>
      <trkpt lat="38.629" lon="26.92701">
        <ele>10.2</ele>
      </trkpt>
      <trkpt lat="38.6277" lon="26.92856">
        <ele>7.1</ele>
      </trkpt>
      <trkpt lat="38.62714" lon="26.92891">
        <ele>7.6</ele>
      </trkpt>
      <trkpt lat="38.62599" lon="26.92927">
        <ele>7.1</ele>
      </trkpt>
      <trkpt lat="38.62531" lon="26.92933">
        <ele>6.6</ele>
      </trkpt>
      <trkpt lat="38.62432" lon="26.92898">
        <ele>5.9</ele>
      </trkpt>
      <trkpt lat="38.6239" lon="26.92875">
        <ele>6</ele>
      </trkpt>
      <trkpt lat="38.62348" lon="26.92788">
        <ele>9.7</ele>
      </trkpt>
      <trkpt lat="38.62289" lon="26.92768">
        <ele>9.3</ele>
      </trkpt>
      <trkpt lat="38.6224" lon="26.92788">
        <ele>9.8</ele>
      </trkpt>
      <trkpt lat="38.62173" lon="26.92899">
        <ele>11.9</ele>
      </trkpt>
      <trkpt lat="38.6218" lon="26.92929">
        <ele>11.8</ele>
      </trkpt>
      <trkpt lat="38.62243" lon="26.93008">
        <ele>10.9</ele>
      </trkpt>
      <trkpt lat="38.6228" lon="26.93168">
        <ele>18.3</ele>
      </trkpt>
      <trkpt lat="38.62281" lon="26.9323">
        <ele>17.1</ele>
      </trkpt>
      <trkpt lat="38.62253" lon="26.93383">
        <ele>17</ele>
      </trkpt>
      <trkpt lat="38.62225" lon="26.93476">
        <ele>14.8</ele>
      </trkpt>
      <trkpt lat="38.62218" lon="26.93545">
        <ele>10.8</ele>
      </trkpt>
      <trkpt lat="38.62246" lon="26.93637">
        <ele>6.8</ele>
      </trkpt>
      <trkpt lat="38.62325" lon="26.93916">
        <ele>6.9</ele>
      </trkpt>
      <trkpt lat="38.62342" lon="26.9404">
        <ele>10</ele>
      </trkpt>
      <trkpt lat="38.62331" lon="26.94137">
        <ele>10.9</ele>
      </trkpt>
      <trkpt lat="38.62317" lon="26.94287">
        <ele>9.7</ele>
      </trkpt>
      <trkpt lat="38.62314" lon="26.94349">
        <ele>9.1</ele>
      </trkpt>
      <trkpt lat="38.62283" lon="26.94414">
        <ele>13.9</ele>
      </trkpt>
      <trkpt lat="38.62274" lon="26.94483">
        <ele>13</ele>
      </trkpt>
      <trkpt lat="38.62289" lon="26.9457">
        <ele>13.1</ele>
      </trkpt>
      <trkpt lat="38.6234" lon="26.94662">
        <ele>6.6</ele>
      </trkpt>
      <trkpt lat="38.62357" lon="26.94736">
        <ele>9.7</ele>
      </trkpt>
      <trkpt lat="38.6234" lon="26.94782">
        <ele>10.9</ele>
      </trkpt>
      <trkpt lat="38.62287" lon="26.94872">
        <ele>9.1</ele>
      </trkpt>
      <trkpt lat="38.62224" lon="26.94938">
        <ele>4.4</ele>
      </trkpt>
      <trkpt lat="38.62092" lon="26.95085">
        <ele>3.9</ele>
      </trkpt>
      <trkpt lat="38.61657" lon="26.94694">
        <ele>6.4</ele>
      </trkpt>
      <trkpt lat="38.61436" lon="26.94243">
        <ele>3.9</ele>
      </trkpt>
      <trkpt lat="38.61355" lon="26.94127">
        <ele>6.8</ele>
      </trkpt>
      <trkpt lat="38.61232" lon="26.94056">
        <ele>5.4</ele>
      </trkpt>
      <trkpt lat="38.6081" lon="26.93865">
        <ele>2.4</ele>
      </trkpt>
      <trkpt lat="38.60609" lon="26.93797">
        <ele>2</ele>
      </trkpt>
      <trkpt lat="38.59659" lon="26.93581">
        <ele>4</ele>
      </trkpt>
      <trkpt lat="38.59355" lon="26.9351">
        <ele>4.9</ele>
      </trkpt>
      <trkpt lat="38.59195" lon="26.93551">
        <ele>4.5</ele>
      </trkpt>
      <trkpt lat="38.59071" lon="26.93629">
        <ele>4.2</ele>
      </trkpt>
      <trkpt lat="38.58749" lon="26.9404">
        <ele>2.5</ele>
      </trkpt>
      <trkpt lat="38.58619" lon="26.94186">
        <ele>3.4</ele>
      </trkpt>
      <trkpt lat="38.58526" lon="26.94272">
        <ele>2.7</ele>
      </trkpt>
      <trkpt lat="38.58421" lon="26.94305">
        <ele>2</ele>
      </trkpt>
      <trkpt lat="38.58339" lon="26.9432">
        <ele>1.2</ele>
      </trkpt>
      <trkpt lat="38.58295" lon="26.94384">
        <ele>3.4</ele>
      </trkpt>
      <trkpt lat="38.58327" lon="26.94668">
        <ele>4</ele>
      </trkpt>
      <trkpt lat="38.58313" lon="26.95">
        <ele>5</ele>
      </trkpt>
      <trkpt lat="38.58257" lon="26.95314">
        <ele>3.3</ele>
      </trkpt>
      <trkpt lat="38.58278" lon="26.95523">
        <ele>4.4</ele>
      </trkpt>
      <trkpt lat="38.58345" lon="26.95773">
        <ele>5.3</ele>
      </trkpt>
      <trkpt lat="38.58383" lon="26.95871">
        <ele>4.8</ele>
      </trkpt>
      <trkpt lat="38.5839" lon="26.9597">
        <ele>4</ele>
      </trkpt>
      <trkpt lat="38.58355" lon="26.96064">
        <ele>5.2</ele>
      </trkpt>
      <trkpt lat="38.58271" lon="26.96246">
        <ele>4.6</ele>
      </trkpt>
      <trkpt lat="38.58204" lon="26.96493">
        <ele>6.1</ele>
      </trkpt>
      <trkpt lat="38.58209" lon="26.96769">
        <ele>5.2</ele>
      </trkpt>
      <trkpt lat="38.58157" lon="26.96919">
        <ele>3.9</ele>
      </trkpt>
      <trkpt lat="38.58177" lon="26.97117">
        <ele>5.1</ele>
      </trkpt>
      <trkpt lat="38.5816" lon="26.97423">
        <ele>6</ele>
      </trkpt>
      <trkpt lat="38.58069" lon="26.97501">
        <ele>5.8</ele>
      </trkpt>
      <trkpt lat="38.58011" lon="26.97546">
        <ele>5.5</ele>
      </trkpt>
      <trkpt lat="38.57885" lon="26.97572">
        <ele>6.2</ele>
      </trkpt>
      <trkpt lat="38.57768" lon="26.97572">
        <ele>4.2</ele>
      </trkpt>
      <trkpt lat="38.57649" lon="26.97498">
        <ele>4.6</ele>
      </trkpt>
      <trkpt lat="38.57554" lon="26.97097">
        <ele>5.9</ele>
      </trkpt>
      <trkpt lat="38.57461" lon="26.96772">
        <ele>4</ele>
      </trkpt>
      <trkpt lat="38.57167" lon="26.96109">
        <ele>4.7</ele>
      </trkpt>
      <trkpt lat="38.56653" lon="26.94846">
        <ele>3.8</ele>
      </trkpt>
      <trkpt lat="38.56566" lon="26.94684">
        <ele>3.3</ele>
      </trkpt>
      <trkpt lat="38.56194" lon="26.93789">
        <ele>4.5</ele>
      </trkpt>
      <trkpt lat="38.56095" lon="26.93553">
        <ele>4</ele>
      </trkpt>
      <trkpt lat="38.55987" lon="26.93411">
        <ele>3.3</ele>
      </trkpt>
      <trkpt lat="38.55812" lon="26.93538">
        <ele>3.9</ele>
      </trkpt>
      <trkpt lat="38.55736" lon="26.9359">
        <ele>3.8</ele>
      </trkpt>
      <trkpt lat="38.55654" lon="26.93693">
        <ele>3</ele>
      </trkpt>
      <trkpt lat="38.55321" lon="26.94336">
        <ele>3</ele>
      </trkpt>
      <trkpt lat="38.55196" lon="26.94188">
        <ele>1.4</ele>
      </trkpt>
      <trkpt lat="38.55117" lon="26.94057">
        <ele>3.2</ele>
      </trkpt>
      <trkpt lat="38.5507" lon="26.93984">
        <ele>4.1</ele>
      </trkpt>
      <trkpt lat="38.55035" lon="26.93954">
        <ele>4.3</ele>
      </trkpt>
      <trkpt lat="38.55017" lon="26.93928">
        <ele>4.1</ele>
      </trkpt>
      <trkpt lat="38.55" lon="26.93864">
        <ele>4</ele>
      </trkpt>
      <trkpt lat="38.5504" lon="26.93827">
        <ele>3.9</ele>
      </trkpt>
      <trkpt lat="38.55026" lon="26.9376">
        <ele>3.1</ele>
      </trkpt>
      <trkpt lat="38.54991" lon="26.93687">
        <ele>2.1</ele>
      </trkpt>
      <trkpt lat="38.54921" lon="26.93558">
        <ele>2.3</ele>
      </trkpt>
      <trkpt lat="38.54853" lon="26.93369">
        <ele>3.1</ele>
      </trkpt>
      <trkpt lat="38.54811" lon="26.93227">
        <ele>3</ele>
      </trkpt>
      <trkpt lat="38.54784" lon="26.9308">
        <ele>3.9</ele>
      </trkpt>
      <trkpt lat="38.54793" lon="26.92948">
        <ele>2.5</ele>
      </trkpt>
      <trkpt lat="38.54813" lon="26.92725">
        <ele>2.8</ele>
      </trkpt>
      <trkpt lat="38.54795" lon="26.92636">
        <ele>2.3</ele>
      </trkpt>
      <trkpt lat="38.54759" lon="26.92334">
        <ele>2.9</ele>
      </trkpt>
      <trkpt lat="38.54732" lon="26.92265">
        <ele>2.8</ele>
      </trkpt>
      <trkpt lat="38.54671" lon="26.92187">
        <ele>2.7</ele>
      </trkpt>
      <trkpt lat="38.54549" lon="26.92047">
        <ele>2.2</ele>
      </trkpt>
      <trkpt lat="38.5452" lon="26.91984">
        <ele>2.4</ele>
      </trkpt>
      <trkpt lat="38.54339" lon="26.91763">
        <ele>1.1</ele>
      </trkpt>
      <trkpt lat="38.54124" lon="26.91498">
        <ele>2</ele>
      </trkpt>
      <trkpt lat="38.53905" lon="26.91339">
        <ele>2</ele>
      </trkpt>
      <trkpt lat="38.53857" lon="26.91301">
        <ele>1.7</ele>
      </trkpt>
      <trkpt lat="38.53814" lon="26.91246">
        <ele>1.3</ele>
      </trkpt>
      <trkpt lat="38.53756" lon="26.91214">
        <ele>1.6</ele>
      </trkpt>
      <trkpt lat="38.53677" lon="26.9118">
        <ele>2.6</ele>
      </trkpt>
      <trkpt lat="38.53638" lon="26.91167">
        <ele>3.3</ele>
      </trkpt>
      <trkpt lat="38.53603" lon="26.91107">
        <ele>3</ele>
      </trkpt>
      <trkpt lat="38.53566" lon="26.91086">
        <ele>2.8</ele>
      </trkpt>
      <trkpt lat="38.53524" lon="26.91077">
        <ele>2.2</ele>
      </trkpt>
      <trkpt lat="38.53493" lon="26.9104">
        <ele>1.5</ele>
      </trkpt>
      <trkpt lat="38.53443" lon="26.91032">
        <ele>1.8</ele>
      </trkpt>
      <trkpt lat="38.53252" lon="26.90921">
        <ele>1</ele>
      </trkpt>
      <trkpt lat="38.53181" lon="26.90897">
        <ele>1</ele>
      </trkpt>
      <trkpt lat="38.53128" lon="26.90892">
        <ele>1</ele>
      </trkpt>
      <trkpt lat="38.53055" lon="26.90916">
        <ele>1.7</ele>
      </trkpt>
      <trkpt lat="38.53019" lon="26.90811">
        <ele>1.2</ele>
      </trkpt>
      <trkpt lat="38.52956" lon="26.90575">
        <ele>1.9</ele>
      </trkpt>
      <trkpt lat="38.52965" lon="26.90469">
        <ele>1</ele>
      </trkpt>
      <trkpt lat="38.52961" lon="26.90419">
        <ele>1</ele>
      </trkpt>
      <trkpt lat="38.53118" lon="26.90195">
      </trkpt>
      <trkpt lat="38.5325" lon="26.89983">
        <ele>2</ele>
      </trkpt>
      <trkpt lat="38.53264" lon="26.89933">
        <ele>2</ele>
      </trkpt>
      <trkpt lat="38.53262" lon="26.89853">
        <ele>2.7</ele>
      </trkpt>
      <trkpt lat="38.53216" lon="26.89874">
        <ele>1.9</ele>
      </trkpt>
      <trkpt lat="38.53178" lon="26.89913">
        <ele>1.1</ele>
      </trkpt>
      <trkpt lat="38.53159" lon="26.90035">
      </trkpt>
      <trkpt lat="38.53141" lon="26.90102">
      </trkpt>
      <trkpt lat="38.53076" lon="26.90203">
      </trkpt>
      <trkpt lat="38.52802" lon="26.90623">
        <ele>1</ele>
      </trkpt>
      <trkpt lat="38.52226" lon="26.91495">
      </trkpt>
      <trkpt lat="38.51862" lon="26.92034">
      </trkpt>
      <trkpt lat="38.51427" lon="26.92665">
        <ele>1</ele>
      </trkpt>
      <trkpt lat="38.50806" lon="26.93572">
        <ele>1.9</ele>
      </trkpt>
      <trkpt lat="38.50611" lon="26.93865">
      </trkpt>
      <trkpt lat="38.5057" lon="26.93912">
      </trkpt>
      <trkpt lat="38.50517" lon="26.93949">
      </trkpt>
      <trkpt lat="38.50396" lon="26.93988">
      </trkpt>
      <trkpt lat="38.49903" lon="26.94142">
        <ele>2</ele>
      </trkpt>
      <trkpt lat="38.49513" lon="26.94276">
        <ele>2.5</ele>
      </trkpt>
      <trkpt lat="38.49034" lon="26.94431">
        <ele>2.4</ele>
      </trkpt>
      <trkpt lat="38.49055" lon="26.94656">
        <ele>1.1</ele>
      </trkpt>
      <trkpt lat="38.49129" lon="26.95218">
        <ele>3.3</ele>
      </trkpt>
      <trkpt lat="38.49183" lon="26.95651">
        <ele>3.5</ele>
      </trkpt>
      <trkpt lat="38.49221" lon="26.95857">
        <ele>3.5</ele>
      </trkpt>
      <trkpt lat="38.49356" lon="26.96922">
        <ele>3.1</ele>
      </trkpt>
      <trkpt lat="38.49466" lon="26.97735">
        <ele>4.5</ele>
      </trkpt>
      <trkpt lat="38.49501" lon="26.98076">
        <ele>3.9</ele>
      </trkpt>
      <trkpt lat="38.4948" lon="26.98852">
        <ele>2.8</ele>
      </trkpt>
      <trkpt lat="38.49466" lon="26.99681">
        <ele>1</ele>
      </trkpt>
      <trkpt lat="38.49435" lon="27.00968">
        <ele>1</ele>
      </trkpt>
      <trkpt lat="38.4943" lon="27.00986">
        <ele>1</ele>
      </trkpt>
      <trkpt lat="38.49394" lon="27.00979">
        <ele>1</ele>
      </trkpt>
      <trkpt lat="38.48933" lon="27.00979">
        <ele>1.1</ele>
      </trkpt>
      <trkpt lat="38.48821" lon="27.00975">
        <ele>1</ele>
      </trkpt>
      <trkpt lat="38.48538" lon="27.00977">
        <ele>1</ele>
      </trkpt>
      <trkpt lat="38.48295" lon="27.00965">
        <ele>2</ele>
      </trkpt>
      <trkpt lat="38.48108" lon="27.00966">
        <ele>2.5</ele>
      </trkpt>
      <trkpt lat="38.47889" lon="27.00954">
        <ele>1.5</ele>
      </trkpt>
      <trkpt lat="38.47841" lon="27.00957">
        <ele>1.5</ele>
      </trkpt>
      <trkpt lat="38.478" lon="27.01005">
        <ele>1.7</ele>
      </trkpt>
      <trkpt lat="38.47762" lon="27.01046">
        <ele>1.8</ele>
      </trkpt>
      <trkpt lat="38.47743" lon="27.01082">
        <ele>1</ele>
      </trkpt>
      <trkpt lat="38.47739" lon="27.01105">
        <ele>1</ele>
      </trkpt>
      <trkpt lat="38.47747" lon="27.01149">
        <ele>1</ele>
      </trkpt>
      <trkpt lat="38.47734" lon="27.01194">
        <ele>1</ele>
      </trkpt>
      <trkpt lat="38.47728" lon="27.01222">
        <ele>1</ele>
      </trkpt>
      <trkpt lat="38.47717" lon="27.01397">
        <ele>1.39</ele>
      </trkpt>
      <trkpt lat="38.47704" lon="27.01464">
      </trkpt>
      <trkpt lat="38.47659" lon="27.01666">
      </trkpt>
      <trkpt lat="38.47603" lon="27.0193">
      </trkpt>
      <trkpt lat="38.47547" lon="27.0218">
        <ele>2</ele>
      </trkpt>
      <trkpt lat="38.47509" lon="27.02353">
      </trkpt>
      <trkpt lat="38.47455" lon="27.02589">
      </trkpt>
      <trkpt lat="38.47402" lon="27.02808">
      </trkpt>
      <trkpt lat="38.47367" lon="27.02946">
      </trkpt>
      <trkpt lat="38.47319" lon="27.03116">
      </trkpt>
      <trkpt lat="38.47268" lon="27.03299">
        <ele>1</ele>
      </trkpt>
      <trkpt lat="38.4725" lon="27.03353">
        <ele>1</ele>
      </trkpt>
      <trkpt lat="38.47226" lon="27.03411">
        <ele>1</ele>
      </trkpt>
      <trkpt lat="38.472" lon="27.03528">
      </trkpt>
      <trkpt lat="38.47168" lon="27.03723">
      </trkpt>
      <trkpt lat="38.47156" lon="27.03898">
        <ele>1</ele>
      </trkpt>
      <trkpt lat="38.47137" lon="27.04066">
        <ele>2</ele>
      </trkpt>
      <trkpt lat="38.4712" lon="27.04265">
        <ele>2.5</ele>
      </trkpt>
      <trkpt lat="38.47105" lon="27.0446">
        <ele>2</ele>
      </trkpt>
      <trkpt lat="38.47102" lon="27.04544">
        <ele>1.5</ele>
      </trkpt>
      <trkpt lat="38.4712" lon="27.04668">
      </trkpt>
      <trkpt lat="38.47158" lon="27.04816">
        <ele>1</ele>
      </trkpt>
      <trkpt lat="38.4725" lon="27.0515">
        <ele>1.8</ele>
      </trkpt>
      <trkpt lat="38.47291" lon="27.05297">
      </trkpt>
      <trkpt lat="38.47311" lon="27.05434">
      </trkpt>
      <trkpt lat="38.47316" lon="27.05514">
      </trkpt>
      <trkpt lat="38.47313" lon="27.0555">
      </trkpt>
      <trkpt lat="38.47336" lon="27.05574">
      </trkpt>
      <trkpt lat="38.47379" lon="27.05577">
      </trkpt>
      <trkpt lat="38.47404" lon="27.05577">
      </trkpt>
      <trkpt lat="38.4743" lon="27.05734">
      </trkpt>
      <trkpt lat="38.47458" lon="27.05922">
        <ele>1</ele>
      </trkpt>
      <trkpt lat="38.47479" lon="27.05991">
        <ele>1</ele>
      </trkpt>
      <trkpt lat="38.4751" lon="27.06081">
      </trkpt>
      <trkpt lat="38.47556" lon="27.06206">
      </trkpt>
      <trkpt lat="38.47579" lon="27.06265">
      </trkpt>
      <trkpt lat="38.47617" lon="27.06404">
      </trkpt>
      <trkpt lat="38.47678" lon="27.06606">
        <ele>3.2</ele>
      </trkpt>
      <trkpt lat="38.47662" lon="27.06643">
        <ele>4.3</ele>
      </trkpt>
      <trkpt lat="38.47648" lon="27.06657">
        <ele>4.4</ele>
      </trkpt>
      <trkpt lat="38.47611" lon="27.06668">
        <ele>3.7</ele>
      </trkpt>
      <trkpt lat="38.47601" lon="27.06662">
        <ele>3.4</ele>
      </trkpt>
      <trkpt lat="38.47593" lon="27.06638">
        <ele>2.8</ele>
      </trkpt>
      <trkpt lat="38.47582" lon="27.06631">
        <ele>2.5</ele>
      </trkpt>
      <trkpt lat="38.47542" lon="27.0662">
        <ele>2</ele>
      </trkpt>
      <trkpt lat="38.47416" lon="27.06593">
        <ele>1.01</ele>
      </trkpt>
      <trkpt lat="38.47342" lon="27.0657">
      </trkpt>
      <trkpt lat="38.47274" lon="27.06549">
      </trkpt>
      <trkpt lat="38.47212" lon="27.06538">
      </trkpt>
      <trkpt lat="38.47092" lon="27.0653">
      </trkpt>
      <trkpt lat="38.46939" lon="27.06528">
      </trkpt>
      <trkpt lat="38.46847" lon="27.06531">
      </trkpt>
      <trkpt lat="38.46813" lon="27.06549">
      </trkpt>
      <trkpt lat="38.4675" lon="27.0659">
        <ele>1</ele>
      </trkpt>
      <trkpt lat="38.46616" lon="27.06688">
        <ele>3</ele>
      </trkpt>
      <trkpt lat="38.46614" lon="27.06716">
        <ele>3</ele>
      </trkpt>
      <trkpt lat="38.46614" lon="27.06965">
      </trkpt>
      <trkpt lat="38.46635" lon="27.06971">
      </trkpt>
      <trkpt lat="38.46714" lon="27.06969">
        <ele>4.4</ele>
      </trkpt>
      <trkpt lat="38.46728" lon="27.06984">
        <ele>4.2</ele>
      </trkpt>
      <trkpt lat="38.46721" lon="27.07349">
        <ele>1.34</ele>
      </trkpt>
      <trkpt lat="38.46724" lon="27.07707">
        <ele>2.5</ele>
      </trkpt>
      <trkpt lat="38.46728" lon="27.07729">
        <ele>2.8</ele>
      </trkpt>
      <trkpt lat="38.46752" lon="27.0775">
        <ele>3</ele>
      </trkpt>
      <trkpt lat="38.46769" lon="27.07799">
        <ele>2.7</ele>
      </trkpt>
      <trkpt lat="38.46759" lon="27.07856">
        <ele>2.3</ele>
      </trkpt>
      <trkpt lat="38.46759" lon="27.07871">
        <ele>2.3</ele>
      </trkpt>
      <trkpt lat="38.46783" lon="27.07911">
        <ele>3.5</ele>
      </trkpt>
      <trkpt lat="38.46739" lon="27.08">
        <ele>4.5</ele>
      </trkpt>
      <trkpt lat="38.46697" lon="27.07994">
        <ele>2.4</ele>
      </trkpt>
      <trkpt lat="38.46663" lon="27.08008">
        <ele>1.1</ele>
      </trkpt>
      <trkpt lat="38.46633" lon="27.08047">
        <ele>1.3</ele>
      </trkpt>
      <trkpt lat="38.46612" lon="27.08102">
        <ele>1.7</ele>
      </trkpt>
      <trkpt lat="38.46581" lon="27.08123">
        <ele>1.5</ele>
      </trkpt>
      <trkpt lat="38.46556" lon="27.08144">
        <ele>2</ele>
      </trkpt>
      <trkpt lat="38.46541" lon="27.0817">
        <ele>2.5</ele>
      </trkpt>
      <trkpt lat="38.46525" lon="27.08216">
        <ele>2.9</ele>
      </trkpt>
      <trkpt lat="38.46502" lon="27.08232">
        <ele>3</ele>
      </trkpt>
      <trkpt lat="38.46461" lon="27.0828">
        <ele>2.3</ele>
      </trkpt>
      <trkpt lat="38.46395" lon="27.08355">
        <ele>2.6</ele>
      </trkpt>
      <trkpt lat="38.46349" lon="27.08346">
        <ele>2.3</ele>
      </trkpt>
      <trkpt lat="38.46291" lon="27.0836">
        <ele>3</ele>
      </trkpt>
      <trkpt lat="38.4625" lon="27.08386">
        <ele>6.99</ele>
      </trkpt>
      <trkpt lat="38.46221" lon="27.08466">
        <ele>4.8</ele>
      </trkpt>
      <trkpt lat="38.4621" lon="27.08528">
        <ele>4</ele>
      </trkpt>
      <trkpt lat="38.46165" lon="27.08576">
        <ele>4</ele>
      </trkpt>
      <trkpt lat="38.46043" lon="27.08692">
        <ele>3.5</ele>
      </trkpt>
      <trkpt lat="38.46024" lon="27.08705">
        <ele>3.5</ele>
      </trkpt>
      <trkpt lat="38.45989" lon="27.08715">
        <ele>3.3</ele>
      </trkpt>
      <trkpt lat="38.45929" lon="27.08783">
        <ele>2.5</ele>
      </trkpt>
      <trkpt lat="38.45901" lon="27.08817">
        <ele>2.8</ele>
      </trkpt>
      <trkpt lat="38.45887" lon="27.0883">
        <ele>3</ele>
      </trkpt>
      <trkpt lat="38.45866" lon="27.08877">
        <ele>2.5</ele>
      </trkpt>
      <trkpt lat="38.45838" lon="27.08914">
        <ele>2</ele>
      </trkpt>
      <trkpt lat="38.45789" lon="27.08969">
        <ele>2.3</ele>
      </trkpt>
      <trkpt lat="38.45737" lon="27.09048">
        <ele>3</ele>
      </trkpt>
      <trkpt lat="38.45699" lon="27.09116">
        <ele>4.1</ele>
      </trkpt>
      <trkpt lat="38.45686" lon="27.09138">
        <ele>4.6</ele>
      </trkpt>
      <trkpt lat="38.4567" lon="27.0917">
        <ele>5.1</ele>
      </trkpt>
      <trkpt lat="38.45661" lon="27.09183">
        <ele>4.9</ele>
      </trkpt>
      <trkpt lat="38.45634" lon="27.09255">
        <ele>4.1</ele>
      </trkpt>
      <trkpt lat="38.45594" lon="27.09369">
        <ele>2.9</ele>
      </trkpt>
      <trkpt lat="38.45563" lon="27.09352">
        <ele>2.5</ele>
      </trkpt>
      <trkpt lat="38.45546" lon="27.09389">
        <ele>2.9</ele>
      </trkpt>
      <trkpt lat="38.45526" lon="27.09397">
        <ele>2.6</ele>
      </trkpt>
      <trkpt lat="38.45518" lon="27.09406">
        <ele>2.5</ele>
      </trkpt>
      <trkpt lat="38.4547" lon="27.09549">
        <ele>5.5</ele>
      </trkpt>
      <trkpt lat="38.4546" lon="27.09566">
        <ele>5.1</ele>
      </trkpt>
      <trkpt lat="38.45433" lon="27.09641">
        <ele>2.8</ele>
      </trkpt>
      <trkpt lat="38.45427" lon="27.09665">
        <ele>2.4</ele>
      </trkpt>
      <trkpt lat="38.4543" lon="27.09682">
        <ele>2.7</ele>
      </trkpt>
      <trkpt lat="38.4545" lon="27.09715">
        <ele>3.7</ele>
      </trkpt>
      <trkpt lat="38.45455" lon="27.09727">
        <ele>3.8</ele>
      </trkpt>
      <trkpt lat="38.45426" lon="27.09795">
        <ele>3.1</ele>
      </trkpt>
      <trkpt lat="38.45357" lon="27.09944">
        <ele>4.7</ele>
      </trkpt>
      <trkpt lat="38.45318" lon="27.10025">
        <ele>6.3</ele>
      </trkpt>
      <trkpt lat="38.45252" lon="27.10163">
        <ele>8.9</ele>
      </trkpt>
      <trkpt lat="38.45199" lon="27.10272">
        <ele>6.3</ele>
      </trkpt>
      <trkpt lat="38.45189" lon="27.10284">
        <ele>6.1</ele>
      </trkpt>
      <trkpt lat="38.45154" lon="27.10321">
        <ele>6.5</ele>
      </trkpt>
      <trkpt lat="38.45148" lon="27.10334">
        <ele>7</ele>
      </trkpt>
      <trkpt lat="38.45149" lon="27.10353">
        <ele>6.8</ele>
      </trkpt>
      <trkpt lat="38.45146" lon="27.10369">
        <ele>6.6</ele>
      </trkpt>
      <trkpt lat="38.4513" lon="27.10405">
        <ele>5.5</ele>
      </trkpt>
      <trkpt lat="38.45117" lon="27.10439">
        <ele>5</ele>
      </trkpt>
      <trkpt lat="38.45087" lon="27.10506">
        <ele>4.5</ele>
      </trkpt>
      <trkpt lat="38.45067" lon="27.1056">
        <ele>5.9</ele>
      </trkpt>
      <trkpt lat="38.45053" lon="27.10611">
        <ele>5.7</ele>
      </trkpt>
      <trkpt lat="38.45029" lon="27.10733">
        <ele>6.7</ele>
      </trkpt>
      <trkpt lat="38.45006" lon="27.10847">
        <ele>2.4</ele>
      </trkpt>
      <trkpt lat="38.44976" lon="27.10986">
        <ele>2.9</ele>
      </trkpt>
      <trkpt lat="38.44959" lon="27.11088">
        <ele>2.2</ele>
      </trkpt>
      <trkpt lat="38.44955" lon="27.11118">
        <ele>2.9</ele>
      </trkpt>
      <trkpt lat="38.44957" lon="27.11153">
        <ele>4</ele>
      </trkpt>
      <trkpt lat="38.44967" lon="27.11191">
        <ele>4.5</ele>
      </trkpt>
      <trkpt lat="38.44993" lon="27.11244">
        <ele>4</ele>
      </trkpt>
      <trkpt lat="38.45074" lon="27.11389">
        <ele>3.3</ele>
      </trkpt>
      <trkpt lat="38.45138" lon="27.11506">
        <ele>5.8</ele>
      </trkpt>
      <trkpt lat="38.4519" lon="27.11597">
        <ele>3.8</ele>
      </trkpt>
      <trkpt lat="38.45207" lon="27.11619">
        <ele>4.3</ele>
      </trkpt>
      <trkpt lat="38.45286" lon="27.11697">
        <ele>5</ele>
      </trkpt>
      <trkpt lat="38.45333" lon="27.1175">
        <ele>7</ele>
      </trkpt>
      <trkpt lat="38.45367" lon="27.11796">
        <ele>4.1</ele>
      </trkpt>
      <trkpt lat="38.45392" lon="27.11838">
        <ele>4.4</ele>
      </trkpt>
      <trkpt lat="38.45414" lon="27.11861">
        <ele>4.6</ele>
      </trkpt>
      <trkpt lat="38.45452" lon="27.11913">
        <ele>5.4</ele>
      </trkpt>
      <trkpt lat="38.45472" lon="27.11941">
        <ele>6.1</ele>
      </trkpt>
      <trkpt lat="38.45493" lon="27.1196">
        <ele>6.1</ele>
      </trkpt>
      <trkpt lat="38.4552" lon="27.11997">
        <ele>3.4</ele>
      </trkpt>
      <trkpt lat="38.45543" lon="27.12043">
        <ele>3.2</ele>
      </trkpt>
      <trkpt lat="38.45549" lon="27.12069">
        <ele>3.1</ele>
      </trkpt>
      <trkpt lat="38.45556" lon="27.12122">
        <ele>3</ele>
      </trkpt>
      <trkpt lat="38.45551" lon="27.12163">
        <ele>3</ele>
      </trkpt>
      <trkpt lat="38.45555" lon="27.12294">
        <ele>3.9</ele>
      </trkpt>
      <trkpt lat="38.45557" lon="27.12348">
        <ele>2.6</ele>
      </trkpt>
      <trkpt lat="38.45601" lon="27.12433">
        <ele>2.7</ele>
      </trkpt>
      <trkpt lat="38.45624" lon="27.12457">
        <ele>3.8</ele>
      </trkpt>
      <trkpt lat="38.4569" lon="27.12495">
        <ele>3.8</ele>
      </trkpt>
      <trkpt lat="38.45772" lon="27.12556">
        <ele>5.6</ele>
      </trkpt>
      <trkpt lat="38.45853" lon="27.12612">
        <ele>7.6</ele>
      </trkpt>
      <trkpt lat="38.45865" lon="27.12612">
        <ele>7.4</ele>
      </trkpt>
      <trkpt lat="38.45907" lon="27.12645">
        <ele>3.9</ele>
      </trkpt>
      <trkpt lat="38.45981" lon="27.12698">
        <ele>4.4</ele>
      </trkpt>
      <trkpt lat="38.46017" lon="27.12726">
        <ele>3.9</ele>
      </trkpt>
      <trkpt lat="38.46023" lon="27.12766">
        <ele>2.3</ele>
      </trkpt>
      <trkpt lat="38.46055" lon="27.12799">
        <ele>2</ele>
      </trkpt>
      <trkpt lat="38.461" lon="27.12842">
        <ele>1.3</ele>
      </trkpt>
      <trkpt lat="38.46113" lon="27.12842">
        <ele>1.4</ele>
      </trkpt>
      <trkpt lat="38.46118" lon="27.12833">
        <ele>1.4</ele>
      </trkpt>
      <trkpt lat="38.46134" lon="27.1281">
        <ele>2.8</ele>
      </trkpt>
      <trkpt lat="38.46143" lon="27.12802">
        <ele>3.4</ele>
      </trkpt>
      <trkpt lat="38.46178" lon="27.12801">
        <ele>4.2</ele>
      </trkpt>
      <trkpt lat="38.462" lon="27.12801">
        <ele>4.7</ele>
      </trkpt>
      <trkpt lat="38.46223" lon="27.12804">
        <ele>5.1</ele>
      </trkpt>
      <trkpt lat="38.46263" lon="27.12835">
        <ele>3.8</ele>
      </trkpt>
      <trkpt lat="38.46304" lon="27.12873">
        <ele>2.2</ele>
      </trkpt>
      <trkpt lat="38.4636" lon="27.12927">
        <ele>1</ele>
      </trkpt>
      <trkpt lat="38.46385" lon="27.12948">
        <ele>1</ele>
      </trkpt>
      <trkpt lat="38.46417" lon="27.12962">
        <ele>1</ele>
      </trkpt>
      <trkpt lat="38.46482" lon="27.12981">
        <ele>2.7</ele>
      </trkpt>
      <trkpt lat="38.46529" lon="27.12994">
        <ele>4.1</ele>
      </trkpt>
      <trkpt lat="38.46545" lon="27.13002">
        <ele>4.6</ele>
      </trkpt>
      <trkpt lat="38.46558" lon="27.13023">
        <ele>4.8</ele>
      </trkpt>
      <trkpt lat="38.46565" lon="27.13049">
        <ele>4.8</ele>
      </trkpt>
      <trkpt lat="38.46559" lon="27.13089">
        <ele>4.2</ele>
      </trkpt>
      <trkpt lat="38.46553" lon="27.13138">
        <ele>4.6</ele>
      </trkpt>
      <trkpt lat="38.46553" lon="27.13149">
        <ele>4.8</ele>
      </trkpt>
      <trkpt lat="38.46546" lon="27.1316">
        <ele>4.9</ele>
      </trkpt>
      <trkpt lat="38.4654" lon="27.13166">
        <ele>5</ele>
      </trkpt>
      <trkpt lat="38.46541" lon="27.13185">
        <ele>5.4</ele>
      </trkpt>
      <trkpt lat="38.46538" lon="27.13251">
        <ele>6.9</ele>
      </trkpt>
      <trkpt lat="38.46536" lon="27.13306">
        <ele>6.6</ele>
      </trkpt>
      <trkpt lat="38.46532" lon="27.13368">
        <ele>6.4</ele>
      </trkpt>
      <trkpt lat="38.46524" lon="27.13451">
        <ele>6.8</ele>
      </trkpt>
      <trkpt lat="38.46513" lon="27.13596">
        <ele>5</ele>
      </trkpt>
      <trkpt lat="38.465" lon="27.13742">
        <ele>3.9</ele>
      </trkpt>
      <trkpt lat="38.46488" lon="27.1389">
        <ele>5</ele>
      </trkpt>
      <trkpt lat="38.46481" lon="27.1398">
        <ele>7.3</ele>
      </trkpt>
      <trkpt lat="38.4648" lon="27.14056">
        <ele>9.3</ele>
      </trkpt>
      <trkpt lat="38.46481" lon="27.14111">
        <ele>9.3</ele>
      </trkpt>
      <trkpt lat="38.46488" lon="27.14176">
        <ele>7.4</ele>
      </trkpt>
      <trkpt lat="38.465" lon="27.14238">
        <ele>3.7</ele>
      </trkpt>
      <trkpt lat="38.46516" lon="27.14306">
        <ele>11</ele>
      </trkpt>
      <trkpt lat="38.46545" lon="27.14401">
        <ele>6.5</ele>
      </trkpt>
      <trkpt lat="38.46576" lon="27.14502">
        <ele>1</ele>
      </trkpt>
      <trkpt lat="38.46614" lon="27.1464">
        <ele>3.1</ele>
      </trkpt>
      <trkpt lat="38.46632" lon="27.14702">
        <ele>3.4</ele>
      </trkpt>
      <trkpt lat="38.4664" lon="27.14711">
        <ele>3.7</ele>
      </trkpt>
      <trkpt lat="38.46669" lon="27.14806">
        <ele>4.3</ele>
      </trkpt>
      <trkpt lat="38.4668" lon="27.14851">
        <ele>4.4</ele>
      </trkpt>
      <trkpt lat="38.46699" lon="27.14922">
        <ele>6</ele>
      </trkpt>
      <trkpt lat="38.4671" lon="27.14953">
        <ele>4.9</ele>
      </trkpt>
      <trkpt lat="38.46721" lon="27.14964">
        <ele>4.7</ele>
      </trkpt>
      <trkpt lat="38.46727" lon="27.14966">
        <ele>4.7</ele>
      </trkpt>
      <trkpt lat="38.46736" lon="27.15047">
        <ele>4</ele>
      </trkpt>
      <trkpt lat="38.46739" lon="27.15064">
        <ele>3.9</ele>
      </trkpt>
      <trkpt lat="38.46768" lon="27.15106">
        <ele>4.1</ele>
      </trkpt>
      <trkpt lat="38.46784" lon="27.15155">
        <ele>4.4</ele>
      </trkpt>
      <trkpt lat="38.46812" lon="27.15271">
        <ele>4.9</ele>
      </trkpt>
      <trkpt lat="38.4683" lon="27.15329">
        <ele>4</ele>
      </trkpt>
      <trkpt lat="38.46845" lon="27.15435">
        <ele>12.5</ele>
      </trkpt>
      <trkpt lat="38.46852" lon="27.15514">
        <ele>15.7</ele>
      </trkpt>
      <trkpt lat="38.46845" lon="27.15602">
        <ele>8.5</ele>
      </trkpt>
      <trkpt lat="38.46837" lon="27.15652">
        <ele>6.4</ele>
      </trkpt>
      <trkpt lat="38.46819" lon="27.15714">
        <ele>4.9</ele>
      </trkpt>
      <trkpt lat="38.46795" lon="27.15784">
        <ele>4</ele>
      </trkpt>
      <trkpt lat="38.4676" lon="27.1585">
        <ele>4.8</ele>
      </trkpt>
      <trkpt lat="38.46751" lon="27.15869">
        <ele>5</ele>
      </trkpt>
      <trkpt lat="38.4674" lon="27.15873">
        <ele>4.6</ele>
      </trkpt>
      <trkpt lat="38.46728" lon="27.15864">
        <ele>4</ele>
      </trkpt>
      <trkpt lat="38.46726" lon="27.15854">
        <ele>3.9</ele>
      </trkpt>
      <trkpt lat="38.46731" lon="27.15831">
        <ele>4.1</ele>
      </trkpt>
      <trkpt lat="38.46748" lon="27.15785">
        <ele>3.8</ele>
      </trkpt>
      <trkpt lat="38.46731" lon="27.15774">
        <ele>3</ele>
      </trkpt>
      <trkpt lat="38.46721" lon="27.15787">
        <ele>2.9</ele>
      </trkpt>
      <trkpt lat="38.46709" lon="27.15826">
        <ele>2.9</ele>
      </trkpt>
      <trkpt lat="38.46706" lon="27.15843">
        <ele>2.9</ele>
      </trkpt>
      <trkpt lat="38.46709" lon="27.15907">
        <ele>3.5</ele>
      </trkpt>
      <trkpt lat="38.46709" lon="27.15923">
        <ele>3.6</ele>
      </trkpt>
      <trkpt lat="38.46697" lon="27.15949">
        <ele>3.5</ele>
      </trkpt>
      <trkpt lat="38.46664" lon="27.15988">
        <ele>4.5</ele>
      </trkpt>
      <trkpt lat="38.46648" lon="27.15989">
        <ele>3.8</ele>
      </trkpt>
      <trkpt lat="38.46635" lon="27.16004">
        <ele>3.5</ele>
      </trkpt>
      <trkpt lat="38.46618" lon="27.16022">
        <ele>2.6</ele>
      </trkpt>
      <trkpt lat="38.46591" lon="27.1606">
        <ele>1.3</ele>
      </trkpt>
      <trkpt lat="38.46547" lon="27.16106">
        <ele>1.7</ele>
      </trkpt>
      <trkpt lat="38.4653" lon="27.16122">
        <ele>2.1</ele>
      </trkpt>
      <trkpt lat="38.46503" lon="27.16149">
        <ele>2.6</ele>
      </trkpt>
      <trkpt lat="38.46477" lon="27.16163">
        <ele>2.4</ele>
      </trkpt>
      <trkpt lat="38.46453" lon="27.16171">
        <ele>2</ele>
      </trkpt>
      <trkpt lat="38.46431" lon="27.16183">
        <ele>1.7</ele>
      </trkpt>
      <trkpt lat="38.46425" lon="27.16201">
        <ele>2</ele>
      </trkpt>
      <trkpt lat="38.46425" lon="27.16212">
        <ele>2.3</ele>
      </trkpt>
      <trkpt lat="38.46412" lon="27.16227">
        <ele>2.4</ele>
      </trkpt>
      <trkpt lat="38.464" lon="27.16236">
        <ele>2.3</ele>
      </trkpt>
      <trkpt lat="38.4638" lon="27.16245">
        <ele>2.1</ele>
      </trkpt>
      <trkpt lat="38.4637" lon="27.16266">
        <ele>2.3</ele>
      </trkpt>
      <trkpt lat="38.46358" lon="27.1629">
        <ele>2.7</ele>
      </trkpt>
      <trkpt lat="38.46323" lon="27.16313">
        <ele>3</ele>
      </trkpt>
      <trkpt lat="38.46261" lon="27.16348">
        <ele>1.6</ele>
      </trkpt>
      <trkpt lat="38.46248" lon="27.16359">
        <ele>1.3</ele>
      </trkpt>
      <trkpt lat="38.46224" lon="27.1637">
        <ele>1.4</ele>
      </trkpt>
      <trkpt lat="38.46186" lon="27.16395">
        <ele>1.7</ele>
      </trkpt>
      <trkpt lat="38.46145" lon="27.16409">
        <ele>2.26</ele>
      </trkpt>
      <trkpt lat="38.46131" lon="27.16417">
        <ele>2.4</ele>
      </trkpt>
      <trkpt lat="38.46117" lon="27.16419">
        <ele>2.6</ele>
      </trkpt>
      <trkpt lat="38.46032" lon="27.16394">
        <ele>3</ele>
      </trkpt>
      <trkpt lat="38.46017" lon="27.16389">
        <ele>3</ele>
      </trkpt>
      <trkpt lat="38.46004" lon="27.16395">
        <ele>3</ele>
      </trkpt>
      <trkpt lat="38.45977" lon="27.16409">
        <ele>3</ele>
      </trkpt>
      <trkpt lat="38.45957" lon="27.1642">
        <ele>3</ele>
      </trkpt>
      <trkpt lat="38.45938" lon="27.16471">
        <ele>2.3</ele>
      </trkpt>
      <trkpt lat="38.45895" lon="27.16495">
      </trkpt>
      <trkpt lat="38.45875" lon="27.16504">
      </trkpt>
      <trkpt lat="38.45859" lon="27.16542">
      </trkpt>
      <trkpt lat="38.45845" lon="27.16567">
      </trkpt>
      <trkpt lat="38.45787" lon="27.16597">
        <ele>1</ele>
      </trkpt>
      <trkpt lat="38.45746" lon="27.16591">
      </trkpt>
      <trkpt lat="38.45698" lon="27.16617">
      </trkpt>
      <trkpt lat="38.45693" lon="27.16627">
      </trkpt>
      <trkpt lat="38.45692" lon="27.16652">
      </trkpt>
      <trkpt lat="38.45654" lon="27.16674">
        <ele>3</ele>
      </trkpt>
      <trkpt lat="38.4563" lon="27.16683">
        <ele>3</ele>
      </trkpt>
      <trkpt lat="38.4561" lon="27.16689">
        <ele>3</ele>
      </trkpt>
      <trkpt lat="38.4555" lon="27.16719">
      </trkpt>
      <trkpt lat="38.4544" lon="27.16775">
      </trkpt>
      <trkpt lat="38.45291" lon="27.16852">
      </trkpt>
      <trkpt lat="38.45186" lon="27.16905">
      </trkpt>
      <trkpt lat="38.45083" lon="27.16966">
        <ele>1.6</ele>
      </trkpt>
      <trkpt lat="38.45034" lon="27.16996">
        <ele>1.9</ele>
      </trkpt>
      <trkpt lat="38.44866" lon="27.17083">
      </trkpt>
      <trkpt lat="38.44819" lon="27.17102">
        <ele>1</ele>
      </trkpt>
      <trkpt lat="38.44746" lon="27.17124">
        <ele>1</ele>
      </trkpt>
      <trkpt lat="38.44717" lon="27.17124">
        <ele>1.2</ele>
      </trkpt>
      <trkpt lat="38.44702" lon="27.17116">
        <ele>1.2</ele>
      </trkpt>
      <trkpt lat="38.4465" lon="27.17115">
        <ele>1.4</ele>
      </trkpt>
      <trkpt lat="38.44612" lon="27.17108">
        <ele>1.3</ele>
      </trkpt>
      <trkpt lat="38.44598" lon="27.171">
        <ele>1.2</ele>
      </trkpt>
      <trkpt lat="38.44572" lon="27.17087">
      </trkpt>
      <trkpt lat="38.44541" lon="27.17073">
      </trkpt>
      <trkpt lat="38.44527" lon="27.17067">
      </trkpt>
      <trkpt lat="38.44511" lon="27.17067">
      </trkpt>
      <trkpt lat="38.44501" lon="27.1707">
      </trkpt>
      <trkpt lat="38.44494" lon="27.17085">
        <ele>3</ele>
      </trkpt>
      <trkpt lat="38.44475" lon="27.17092">
        <ele>3.2</ele>
      </trkpt>
      <trkpt lat="38.44456" lon="27.17097">
        <ele>3.3</ele>
      </trkpt>
      <trkpt lat="38.44428" lon="27.17107">
        <ele>3.6</ele>
      </trkpt>
      <trkpt lat="38.44364" lon="27.17096">
        <ele>3.2</ele>
      </trkpt>
      <trkpt lat="38.44293" lon="27.1708">
        <ele>2.02</ele>
      </trkpt>
      <trkpt lat="38.44259" lon="27.17073">
        <ele>1.2</ele>
      </trkpt>
      <trkpt lat="38.44205" lon="27.17045">
        <ele>1</ele>
      </trkpt>
      <trkpt lat="38.44134" lon="27.17004">
        <ele>2</ele>
      </trkpt>
      <trkpt lat="38.44066" lon="27.16949">
        <ele>1.8</ele>
      </trkpt>
      <trkpt lat="38.44028" lon="27.16896">
        <ele>2.2</ele>
      </trkpt>
      <trkpt lat="38.43974" lon="27.168">
        <ele>1</ele>
      </trkpt>
      <trkpt lat="38.43948" lon="27.1673">
      </trkpt>
      <trkpt lat="38.4393" lon="27.1667">
      </trkpt>
      <trkpt lat="38.43903" lon="27.16478">
        <ele>5.1</ele>
      </trkpt>
      <trkpt lat="38.43896" lon="27.16378">
        <ele>4.6</ele>
      </trkpt>
      <trkpt lat="38.43901" lon="27.16293">
        <ele>3</ele>
      </trkpt>
      <trkpt lat="38.43926" lon="27.16171">
        <ele>1.33</ele>
      </trkpt>
      <trkpt lat="38.43951" lon="27.16069">
        <ele>3.8</ele>
      </trkpt>
      <trkpt lat="38.4398" lon="27.15963">
        <ele>4.6</ele>
      </trkpt>
      <trkpt lat="38.44037" lon="27.15751">
        <ele>2.2</ele>
      </trkpt>
      <trkpt lat="38.44101" lon="27.15478">
        <ele>3.8</ele>
      </trkpt>
      <trkpt lat="38.44113" lon="27.15412">
        <ele>3.6</ele>
      </trkpt>
      <trkpt lat="38.44104" lon="27.15336">
        <ele>2.8</ele>
      </trkpt>
      <trkpt lat="38.44091" lon="27.15274">
        <ele>1.6</ele>
      </trkpt>
      <trkpt lat="38.44066" lon="27.15134">
        <ele>2.1</ele>
      </trkpt>
      <trkpt lat="38.44052" lon="27.15072">
        <ele>2</ele>
      </trkpt>
      <trkpt lat="38.43973" lon="27.14826">
        <ele>3</ele>
      </trkpt>
      <trkpt lat="38.43963" lon="27.14778">
        <ele>3.3</ele>
      </trkpt>
      <trkpt lat="38.4396" lon="27.14752">
        <ele>3.5</ele>
      </trkpt>
      <trkpt lat="38.43974" lon="27.14727">
        <ele>3.3</ele>
      </trkpt>
      <trkpt lat="38.43987" lon="27.14708">
        <ele>2.9</ele>
      </trkpt>
      <trkpt lat="38.44007" lon="27.14698">
        <ele>2.4</ele>
      </trkpt>
      <trkpt lat="38.44114" lon="27.14646">
        <ele>2.5</ele>
      </trkpt>
      <trkpt lat="38.44159" lon="27.14599">
        <ele>3.6</ele>
      </trkpt>
      <trkpt lat="38.44219" lon="27.14529">
        <ele>2.3</ele>
      </trkpt>
      <trkpt lat="38.44237" lon="27.14444">
        <ele>5.1</ele>
      </trkpt>
      <trkpt lat="38.44238" lon="27.14414">
        <ele>6.9</ele>
      </trkpt>
      <trkpt lat="38.4423" lon="27.14388">
        <ele>5.6</ele>
      </trkpt>
      <trkpt lat="38.44235" lon="27.14379">
        <ele>5.2</ele>
      </trkpt>
      <trkpt lat="38.44222" lon="27.143">
        <ele>3</ele>
      </trkpt>
      <trkpt lat="38.44221" lon="27.14275">
        <ele>3</ele>
      </trkpt>
      <trkpt lat="38.44185" lon="27.14245">
      </trkpt>
      <trkpt lat="38.44166" lon="27.14234">
        <ele>2</ele>
      </trkpt>
      <trkpt lat="38.44072" lon="27.14202">
        <ele>2.53</ele>
      </trkpt>
      <trkpt lat="38.4395" lon="27.14153">
      </trkpt>
      <trkpt lat="38.43857" lon="27.14114">
        <ele>3</ele>
      </trkpt>
      <trkpt lat="38.43764" lon="27.14077">
      </trkpt>
      <trkpt lat="38.43698" lon="27.14042">
        <ele>2</ele>
      </trkpt>
      <trkpt lat="38.43685" lon="27.14034">
        <ele>2</ele>
      </trkpt>
      <trkpt lat="38.43627" lon="27.1398">
        <ele>1</ele>
      </trkpt>
      <trkpt lat="38.43629" lon="27.13969">
        <ele>1</ele>
      </trkpt>
      <trkpt lat="38.43623" lon="27.13952">
        <ele>1</ele>
      </trkpt>
      <trkpt lat="38.43563" lon="27.13896">
        <ele>3</ele>
      </trkpt>
      <trkpt lat="38.43534" lon="27.13881">
        <ele>3</ele>
      </trkpt>
      <trkpt lat="38.43527" lon="27.13891">
        <ele>3</ele>
      </trkpt>
      <trkpt lat="38.43445" lon="27.13807">
        <ele>2</ele>
      </trkpt>
      <trkpt lat="38.43347" lon="27.13716">
        <ele>1</ele>
      </trkpt>
      <trkpt lat="38.43237" lon="27.13613">
        <ele>1.7</ele>
      </trkpt>
      <trkpt lat="38.43188" lon="27.13565">
        <ele>1</ele>
      </trkpt>
      <trkpt lat="38.43168" lon="27.13543">
        <ele>1</ele>
      </trkpt>
      <trkpt lat="38.43105" lon="27.13454">
        <ele>2</ele>
      </trkpt>
      <trkpt lat="38.43065" lon="27.134">
      </trkpt>
      <trkpt lat="38.43052" lon="27.13389">
      </trkpt>
      <trkpt lat="38.43043" lon="27.13381">
      </trkpt>
      <trkpt lat="38.42998" lon="27.13423">
        <ele>3.4</ele>
      </trkpt>
      <trkpt lat="38.42988" lon="27.13433">
        <ele>4.1</ele>
      </trkpt>
      <trkpt lat="38.42973" lon="27.13432">
        <ele>4.3</ele>
      </trkpt>
      <trkpt lat="38.4294" lon="27.13403">
        <ele>2.7</ele>
      </trkpt>
      <trkpt lat="38.42855" lon="27.13321">
        <ele>7.9</ele>
      </trkpt>
      <trkpt lat="38.42808" lon="27.13277">
        <ele>7.1</ele>
      </trkpt>
      <trkpt lat="38.42767" lon="27.13239">
        <ele>5</ele>
      </trkpt>
      <trkpt lat="38.42744" lon="27.13232">
        <ele>4.4</ele>
      </trkpt>
      <trkpt lat="38.42653" lon="27.13208">
        <ele>4.9</ele>
      </trkpt>
      <trkpt lat="38.42477" lon="27.13158">
        <ele>2.84</ele>
      </trkpt>
      <trkpt lat="38.42355" lon="27.13097">
        <ele>4</ele>
      </trkpt>
      <trkpt lat="38.42275" lon="27.13048">
        <ele>4.5</ele>
      </trkpt>
      <trkpt lat="38.42251" lon="27.13038">
        <ele>4.8</ele>
      </trkpt>
      <trkpt lat="38.42238" lon="27.13029">
        <ele>4.8</ele>
      </trkpt>
      <trkpt lat="38.4222" lon="27.13025">
        <ele>5.3</ele>
      </trkpt>
      <trkpt lat="38.42213" lon="27.13014">
        <ele>5.2</ele>
      </trkpt>
      <trkpt lat="38.42184" lon="27.12986">
        <ele>5.6</ele>
      </trkpt>
      <trkpt lat="38.42176" lon="27.12965">
        <ele>5.1</ele>
      </trkpt>
      <trkpt lat="38.42144" lon="27.12866">
        <ele>1.9</ele>
      </trkpt>
      <trkpt lat="38.42127" lon="27.1285">
        <ele>1.5</ele>
      </trkpt>
      <trkpt lat="38.42092" lon="27.12813">
        <ele>1</ele>
      </trkpt>
      <trkpt lat="38.42058" lon="27.12777">
        <ele>2.3</ele>
      </trkpt>
      <trkpt lat="38.42047" lon="27.12764">
        <ele>2.3</ele>
      </trkpt>
      <trkpt lat="38.41968" lon="27.12708">
        <ele>2.5</ele>
      </trkpt>
      <trkpt lat="38.41945" lon="27.12686">
        <ele>2.7</ele>
      </trkpt>
      <trkpt lat="38.41923" lon="27.1266">
        <ele>2.9</ele>
      </trkpt>
      <trkpt lat="38.41884" lon="27.12639">
        <ele>4.4</ele>
      </trkpt>
      <trkpt lat="38.4185" lon="27.12635">
        <ele>6</ele>
      </trkpt>
      <trkpt lat="38.4184" lon="27.12621">
        <ele>6.8</ele>
      </trkpt>
      <trkpt lat="38.41831" lon="27.12589">
        <ele>7.8</ele>
      </trkpt>
      <trkpt lat="38.41789" lon="27.12567">
        <ele>5.9</ele>
      </trkpt>
      <trkpt lat="38.41744" lon="27.12479">
        <ele>1.2</ele>
      </trkpt>
      <trkpt lat="38.41754" lon="27.1238">
      </trkpt>
      <trkpt lat="38.41705" lon="27.12295">
      </trkpt>
      <trkpt lat="38.41565" lon="27.12282">
        <ele>5</ele>
      </trkpt>
      <trkpt lat="38.41529" lon="27.12258">
        <ele>5</ele>
      </trkpt>
      <trkpt lat="38.41458" lon="27.12171">
        <ele>9</ele>
      </trkpt>
      <trkpt lat="38.41434" lon="27.12142">
      </trkpt>
      <trkpt lat="38.41407" lon="27.12119">
        <ele>2</ele>
      </trkpt>
      <trkpt lat="38.41371" lon="27.12098">
        <ele>2</ele>
      </trkpt>
      <trkpt lat="38.4131" lon="27.12076">
        <ele>4</ele>
      </trkpt>
      <trkpt lat="38.41242" lon="27.12048">
        <ele>3.4</ele>
      </trkpt>
      <trkpt lat="38.41159" lon="27.12004">
        <ele>2.8</ele>
      </trkpt>
      <trkpt lat="38.41118" lon="27.11964">
        <ele>5</ele>
      </trkpt>
      <trkpt lat="38.41082" lon="27.11914">
        <ele>5.2</ele>
      </trkpt>
      <trkpt lat="38.41055" lon="27.11841">
        <ele>7.8</ele>
      </trkpt>
      <trkpt lat="38.41039" lon="27.11796">
        <ele>7.1</ele>
      </trkpt>
      <trkpt lat="38.41006" lon="27.11583">
        <ele>5</ele>
      </trkpt>
      <trkpt lat="38.40995" lon="27.11429">
        <ele>2.1</ele>
      </trkpt>
      <trkpt lat="38.40996" lon="27.11373">
        <ele>2.8</ele>
      </trkpt>
      <trkpt lat="38.41005" lon="27.11248">
        <ele>3.9</ele>
      </trkpt>
      <trkpt lat="38.41008" lon="27.11132">
        <ele>1</ele>
      </trkpt>
      <trkpt lat="38.41001" lon="27.11085">
        <ele>1</ele>
      </trkpt>
      <trkpt lat="38.40979" lon="27.1103">
        <ele>12.5</ele>
      </trkpt>
      <trkpt lat="38.40936" lon="27.10934">
        <ele>8.4</ele>
      </trkpt>
      <trkpt lat="38.40901" lon="27.10855">
        <ele>5.3</ele>
      </trkpt>
      <trkpt lat="38.40877" lon="27.10812">
        <ele>4.4</ele>
      </trkpt>
      <trkpt lat="38.40851" lon="27.10728">
        <ele>2.5</ele>
      </trkpt>
      <trkpt lat="38.40841" lon="27.10685">
        <ele>1.4</ele>
      </trkpt>
      <trkpt lat="38.40833" lon="27.10631">
        <ele>1</ele>
      </trkpt>
      <trkpt lat="38.40829" lon="27.10593">
        <ele>1.3</ele>
      </trkpt>
      <trkpt lat="38.40826" lon="27.10494">
        <ele>2.3</ele>
      </trkpt>
      <trkpt lat="38.40818" lon="27.10416">
        <ele>9</ele>
      </trkpt>
      <trkpt lat="38.40807" lon="27.10361">
        <ele>6.3</ele>
      </trkpt>
      <trkpt lat="38.40785" lon="27.10285">
        <ele>3.3</ele>
      </trkpt>
      <trkpt lat="38.40765" lon="27.10224">
        <ele>2</ele>
      </trkpt>
      <trkpt lat="38.40735" lon="27.10139">
        <ele>12.3</ele>
      </trkpt>
      <trkpt lat="38.40697" lon="27.10036">
        <ele>6.7</ele>
      </trkpt>
      <trkpt lat="38.40645" lon="27.09906">
        <ele>5.8</ele>
      </trkpt>
      <trkpt lat="38.40627" lon="27.09876">
        <ele>7.9</ele>
      </trkpt>
      <trkpt lat="38.40547" lon="27.09751">
        <ele>5.6</ele>
      </trkpt>
      <trkpt lat="38.40444" lon="27.09639">
        <ele>4.1</ele>
      </trkpt>
      <trkpt lat="38.40346" lon="27.09555">
        <ele>3.55</ele>
      </trkpt>
      <trkpt lat="38.40271" lon="27.09451">
        <ele>4.7</ele>
      </trkpt>
      <trkpt lat="38.4025" lon="27.09388">
        <ele>4.8</ele>
      </trkpt>
      <trkpt lat="38.40244" lon="27.09357">
        <ele>9.2</ele>
      </trkpt>
      <trkpt lat="38.40229" lon="27.09316">
        <ele>10.5</ele>
      </trkpt>
      <trkpt lat="38.40189" lon="27.09253">
        <ele>5.3</ele>
      </trkpt>
      <trkpt lat="38.40137" lon="27.09199">
        <ele>4.4</ele>
      </trkpt>
      <trkpt lat="38.40101" lon="27.0917">
        <ele>5.8</ele>
      </trkpt>
      <trkpt lat="38.4009" lon="27.09167">
        <ele>6.5</ele>
      </trkpt>
      <trkpt lat="38.40052" lon="27.09131">
        <ele>6.2</ele>
      </trkpt>
      <trkpt lat="38.40021" lon="27.09092">
        <ele>4.5</ele>
      </trkpt>
      <trkpt lat="38.39982" lon="27.09037">
        <ele>4</ele>
      </trkpt>
      <trkpt lat="38.39958" lon="27.08999">
        <ele>4.5</ele>
      </trkpt>
      <trkpt lat="38.39935" lon="27.08952">
        <ele>4.8</ele>
      </trkpt>
      <trkpt lat="38.39915" lon="27.08904">
        <ele>3.8</ele>
      </trkpt>
      <trkpt lat="38.3989" lon="27.088">
        <ele>4.7</ele>
      </trkpt>
      <trkpt lat="38.39882" lon="27.08755">
        <ele>5.9</ele>
      </trkpt>
      <trkpt lat="38.3986" lon="27.08689">
        <ele>5.3</ele>
      </trkpt>
      <trkpt lat="38.39849" lon="27.08617">
        <ele>3.8</ele>
      </trkpt>
      <trkpt lat="38.3985" lon="27.0859">
        <ele>3.2</ele>
      </trkpt>
      <trkpt lat="38.39854" lon="27.08565">
        <ele>3.4</ele>
      </trkpt>
      <trkpt lat="38.3987" lon="27.08514">
        <ele>3.6</ele>
      </trkpt>
      <trkpt lat="38.39885" lon="27.08475">
        <ele>3</ele>
      </trkpt>
      <trkpt lat="38.39891" lon="27.0845">
        <ele>2.7</ele>
      </trkpt>
      <trkpt lat="38.39912" lon="27.0841">
        <ele>1.4</ele>
      </trkpt>
      <trkpt lat="38.39912" lon="27.0839">
        <ele>1.4</ele>
      </trkpt>
      <trkpt lat="38.39924" lon="27.08365">
        <ele>1</ele>
      </trkpt>
      <trkpt lat="38.39929" lon="27.08358">
        <ele>1</ele>
      </trkpt>
      <trkpt lat="38.39938" lon="27.08351">
        <ele>1</ele>
      </trkpt>
      <trkpt lat="38.39953" lon="27.08312">
        <ele>1</ele>
      </trkpt>
      <trkpt lat="38.39957" lon="27.08294">
        <ele>1</ele>
      </trkpt>
      <trkpt lat="38.39979" lon="27.08223">
        <ele>4</ele>
      </trkpt>
      <trkpt lat="38.40004" lon="27.08162">
      </trkpt>
      <trkpt lat="38.40018" lon="27.08121">
      </trkpt>
      <trkpt lat="38.40051" lon="27.07986">
        <ele>1.3</ele>
      </trkpt>
      <trkpt lat="38.40055" lon="27.07953">
        <ele>2.1</ele>
      </trkpt>
      <trkpt lat="38.4007" lon="27.07874">
        <ele>3.5</ele>
      </trkpt>
      <trkpt lat="38.40069" lon="27.07839">
        <ele>3.9</ele>
      </trkpt>
      <trkpt lat="38.40069" lon="27.07824">
        <ele>3.9</ele>
      </trkpt>
      <trkpt lat="38.40077" lon="27.07778">
        <ele>3.3</ele>
      </trkpt>
      <trkpt lat="38.40082" lon="27.0774">
        <ele>2.8</ele>
      </trkpt>
      <trkpt lat="38.40095" lon="27.07675">
        <ele>1</ele>
      </trkpt>
      <trkpt lat="38.40108" lon="27.07631">
        <ele>1</ele>
      </trkpt>
      <trkpt lat="38.40128" lon="27.07567">
        <ele>1.1</ele>
      </trkpt>
      <trkpt lat="38.40166" lon="27.07494">
        <ele>1</ele>
      </trkpt>
      <trkpt lat="38.40188" lon="27.07456">
        <ele>1</ele>
      </trkpt>
      <trkpt lat="38.40256" lon="27.07352">
      </trkpt>
      <trkpt lat="38.40317" lon="27.07255">
        <ele>1</ele>
      </trkpt>
      <trkpt lat="38.40349" lon="27.07192">
        <ele>1</ele>
      </trkpt>
      <trkpt lat="38.40368" lon="27.07145">
        <ele>1.3</ele>
      </trkpt>
      <trkpt lat="38.40389" lon="27.07085">
        <ele>1.6</ele>
      </trkpt>
      <trkpt lat="38.4045" lon="27.06978">
        <ele>3.4</ele>
      </trkpt>
      <trkpt lat="38.4047" lon="27.06942">
        <ele>3.6</ele>
      </trkpt>
      <trkpt lat="38.40503" lon="27.06897">
        <ele>4</ele>
      </trkpt>
      <trkpt lat="38.40515" lon="27.06881">
        <ele>4</ele>
      </trkpt>
      <trkpt lat="38.40512" lon="27.06867">
        <ele>4</ele>
      </trkpt>
      <trkpt lat="38.40499" lon="27.06855">
        <ele>4</ele>
      </trkpt>
      <trkpt lat="38.40533" lon="27.06784">
        <ele>4.6</ele>
      </trkpt>
      <trkpt lat="38.40575" lon="27.06695">
        <ele>6.5</ele>
      </trkpt>
      <trkpt lat="38.4059" lon="27.0663">
        <ele>6.9</ele>
      </trkpt>
      <trkpt lat="38.40584" lon="27.06536">
        <ele>4.2</ele>
      </trkpt>
      <trkpt lat="38.40616" lon="27.06519">
        <ele>3.5</ele>
      </trkpt>
      <trkpt lat="38.40661" lon="27.06493">
        <ele>3.9</ele>
      </trkpt>
      <trkpt lat="38.40693" lon="27.06458">
        <ele>3.5</ele>
      </trkpt>
      <trkpt lat="38.40706" lon="27.06434">
        <ele>2.9</ele>
      </trkpt>
      <trkpt lat="38.40729" lon="27.06375">
        <ele>2.3</ele>
      </trkpt>
      <trkpt lat="38.40758" lon="27.06355">
        <ele>1.9</ele>
      </trkpt>
      <trkpt lat="38.40832" lon="27.06308">
        <ele>3.3</ele>
      </trkpt>
      <trkpt lat="38.40928" lon="27.06248">
        <ele>1</ele>
      </trkpt>
      <trkpt lat="38.41031" lon="27.06183">
        <ele>2.8</ele>
      </trkpt>
      <trkpt lat="38.41148" lon="27.06108">
        <ele>2.2</ele>
      </trkpt>
      <trkpt lat="38.41273" lon="27.06031">
        <ele>1.5</ele>
      </trkpt>
      <trkpt lat="38.41347" lon="27.05978">
        <ele>1.3</ele>
      </trkpt>
      <trkpt lat="38.41423" lon="27.0593">
        <ele>2.7</ele>
      </trkpt>
      <trkpt lat="38.4144" lon="27.05909">
        <ele>2.9</ele>
      </trkpt>
      <trkpt lat="38.41463" lon="27.0586">
        <ele>2.3</ele>
      </trkpt>
      <trkpt lat="38.41465" lon="27.05819">
        <ele>1.9</ele>
      </trkpt>
      <trkpt lat="38.41448" lon="27.05758">
        <ele>1.7</ele>
      </trkpt>
      <trkpt lat="38.41439" lon="27.0573">
        <ele>1.73</ele>
      </trkpt>
      <trkpt lat="38.41431" lon="27.05705">
        <ele>1.83</ele>
      </trkpt>
      <trkpt lat="38.41417" lon="27.05698">
        <ele>2</ele>
      </trkpt>
      <trkpt lat="38.41405" lon="27.05662">
        <ele>3.9</ele>
      </trkpt>
      <trkpt lat="38.41383" lon="27.05573">
        <ele>2.7</ele>
      </trkpt>
      <trkpt lat="38.41343" lon="27.0543">
        <ele>2.4</ele>
      </trkpt>
      <trkpt lat="38.41313" lon="27.05309">
        <ele>1.5</ele>
      </trkpt>
      <trkpt lat="38.41304" lon="27.05266">
        <ele>1.71</ele>
      </trkpt>
      <trkpt lat="38.41305" lon="27.05241">
      </trkpt>
      <trkpt lat="38.41301" lon="27.05219">
      </trkpt>
      <trkpt lat="38.41291" lon="27.05188">
      </trkpt>
      <trkpt lat="38.41278" lon="27.05171">
      </trkpt>
      <trkpt lat="38.41261" lon="27.05159">
        <ele>1</ele>
      </trkpt>
      <trkpt lat="38.41252" lon="27.0515">
        <ele>1</ele>
      </trkpt>
      <trkpt lat="38.41251" lon="27.05126">
        <ele>1</ele>
      </trkpt>
      <trkpt lat="38.41256" lon="27.05048">
        <ele>1</ele>
      </trkpt>
      <trkpt lat="38.41253" lon="27.04923">
        <ele>1</ele>
      </trkpt>
      <trkpt lat="38.41264" lon="27.04883">
        <ele>1.7</ele>
      </trkpt>
      <trkpt lat="38.41265" lon="27.04868">
        <ele>2</ele>
      </trkpt>
      <trkpt lat="38.41258" lon="27.0486">
        <ele>2.2</ele>
      </trkpt>
      <trkpt lat="38.41251" lon="27.04844">
        <ele>2.7</ele>
      </trkpt>
      <trkpt lat="38.41247" lon="27.04789">
        <ele>3</ele>
      </trkpt>
      <trkpt lat="38.41226" lon="27.04602">
        <ele>1.9</ele>
      </trkpt>
      <trkpt lat="38.41246" lon="27.04577">
        <ele>1.1</ele>
      </trkpt>
      <trkpt lat="38.41234" lon="27.04543">
        <ele>1.4</ele>
      </trkpt>
      <trkpt lat="38.41205" lon="27.04439">
        <ele>2</ele>
      </trkpt>
      <trkpt lat="38.41173" lon="27.04326">
        <ele>2.9</ele>
      </trkpt>
      <trkpt lat="38.4113" lon="27.04136">
        <ele>2</ele>
      </trkpt>
      <trkpt lat="38.41123" lon="27.04109">
        <ele>2.5</ele>
      </trkpt>
      <trkpt lat="38.41106" lon="27.04064">
        <ele>2.8</ele>
      </trkpt>
      <trkpt lat="38.4107" lon="27.03793">
        <ele>1.6</ele>
      </trkpt>
      <trkpt lat="38.41083" lon="27.03743">
        <ele>1</ele>
      </trkpt>
      <trkpt lat="38.41074" lon="27.0364">
        <ele>1.4</ele>
      </trkpt>
      <trkpt lat="38.4105" lon="27.03616">
        <ele>2.4</ele>
      </trkpt>
      <trkpt lat="38.41017" lon="27.03602">
        <ele>3.6</ele>
      </trkpt>
      <trkpt lat="38.40866" lon="27.03596">
        <ele>8.3</ele>
      </trkpt>
      <trkpt lat="38.40864" lon="27.03517">
        <ele>9</ele>
      </trkpt>
      <trkpt lat="38.40826" lon="27.0354">
        <ele>9.5</ele>
      </trkpt>
      <trkpt lat="38.40657" lon="27.0356">
        <ele>10.2</ele>
      </trkpt>
      <trkpt lat="38.40692" lon="27.03462">
        <ele>9.8</ele>
      </trkpt>
      <trkpt lat="38.40726" lon="27.0318">
        <ele>7.5</ele>
      </trkpt>
      <trkpt lat="38.40729" lon="27.02805">
        <ele>8.7</ele>
      </trkpt>
      <trkpt lat="38.4072" lon="27.02729">
        <ele>8.5</ele>
      </trkpt>
      <trkpt lat="38.40709" lon="27.02645">
        <ele>8.9</ele>
      </trkpt>
      <trkpt lat="38.40708" lon="27.02564">
        <ele>8.6</ele>
      </trkpt>
      <trkpt lat="38.40742" lon="27.02475">
        <ele>9.6</ele>
      </trkpt>
      <trkpt lat="38.40717" lon="27.0213">
        <ele>9.5</ele>
      </trkpt>
      <trkpt lat="38.407" lon="27.01998">
        <ele>9.4</ele>
      </trkpt>
      <trkpt lat="38.40716" lon="27.01967">
        <ele>9.2</ele>
      </trkpt>
      <trkpt lat="38.40755" lon="27.01944">
        <ele>9.3</ele>
      </trkpt>
      <trkpt lat="38.4091" lon="27.01895">
        <ele>7.4</ele>
      </trkpt>
      <trkpt lat="38.4099" lon="27.01835">
        <ele>7.1</ele>
      </trkpt>
      <trkpt lat="38.41188" lon="27.01737">
        <ele>5.2</ele>
      </trkpt>
      <trkpt lat="38.41173" lon="27.01476">
        <ele>5.7</ele>
      </trkpt>
      <trkpt lat="38.41142" lon="27.0138">
        <ele>5.3</ele>
      </trkpt>
      <trkpt lat="38.40971" lon="27.01181">
        <ele>3.5</ele>
      </trkpt>
      <trkpt lat="38.40873" lon="27.01053">
        <ele>4.2</ele>
      </trkpt>
      <trkpt lat="38.40835" lon="27.0097">
        <ele>3.2</ele>
      </trkpt>
      <trkpt lat="38.40813" lon="27.00827">
        <ele>3</ele>
      </trkpt>
      <trkpt lat="38.40831" lon="27.0066">
        <ele>4.2</ele>
      </trkpt>
      <trkpt lat="38.40876" lon="27.00403">
        <ele>4.8</ele>
      </trkpt>
      <trkpt lat="38.40845" lon="27.00354">
        <ele>6.4</ele>
      </trkpt>
      <trkpt lat="38.40829" lon="27.00291">
        <ele>5</ele>
      </trkpt>
      <trkpt lat="38.40826" lon="27.00204">
        <ele>2</ele>
      </trkpt>
      <trkpt lat="38.408" lon="27.0007">
        <ele>3.2</ele>
      </trkpt>
      <trkpt lat="38.40757" lon="26.99975">
        <ele>3.4</ele>
      </trkpt>
      <trkpt lat="38.40643" lon="26.99827">
        <ele>4.7</ele>
      </trkpt>
      <trkpt lat="38.40625" lon="26.99767">
        <ele>4.5</ele>
      </trkpt>
      <trkpt lat="38.40607" lon="26.99557">
        <ele>2.1</ele>
      </trkpt>
      <trkpt lat="38.40587" lon="26.99508">
        <ele>2.8</ele>
      </trkpt>
      <trkpt lat="38.40527" lon="26.99442">
        <ele>5.7</ele>
      </trkpt>
      <trkpt lat="38.40498" lon="26.9946">
        <ele>7</ele>
      </trkpt>
      <trkpt lat="38.40411" lon="26.99518">
        <ele>7.4</ele>
      </trkpt>
      <trkpt lat="38.40332" lon="26.99579">
        <ele>11.9</ele>
      </trkpt>
      <trkpt lat="38.40329" lon="26.99598">
        <ele>11.7</ele>
      </trkpt>
      <trkpt lat="38.40264" lon="26.99595">
        <ele>12.5</ele>
      </trkpt>
      <trkpt lat="38.40208" lon="26.99559">
        <ele>12.1</ele>
      </trkpt>
      <trkpt lat="38.40111" lon="26.9958">
        <ele>10.6</ele>
      </trkpt>
      <trkpt lat="38.39811" lon="26.9967">
        <ele>16.2</ele>
      </trkpt>
      <trkpt lat="38.39753" lon="26.99287">
        <ele>13.7</ele>
      </trkpt>
      <trkpt lat="38.39734" lon="26.99176">
        <ele>12.8</ele>
      </trkpt>
      <trkpt lat="38.39697" lon="26.98958">
        <ele>14.2</ele>
      </trkpt>
      <trkpt lat="38.3966" lon="26.98655">
        <ele>16.1</ele>
      </trkpt>
      <trkpt lat="38.39627" lon="26.98281">
        <ele>8.2</ele>
      </trkpt>
      <trkpt lat="38.39609" lon="26.98156">
        <ele>8</ele>
      </trkpt>
      <trkpt lat="38.39607" lon="26.98121">
        <ele>7.8</ele>
      </trkpt>
      <trkpt lat="38.39604" lon="26.98009">
        <ele>6.9</ele>
      </trkpt>
      <trkpt lat="38.3959" lon="26.9789">
        <ele>6.7</ele>
      </trkpt>
      <trkpt lat="38.39522" lon="26.97363">
        <ele>6.4</ele>
      </trkpt>
      <trkpt lat="38.39489" lon="26.97128">
        <ele>5.3</ele>
      </trkpt>
      <trkpt lat="38.39439" lon="26.96879">
        <ele>5.7</ele>
      </trkpt>
      <trkpt lat="38.39311" lon="26.96354">
        <ele>2.1</ele>
      </trkpt>
      <trkpt lat="38.39095" lon="26.95496">
        <ele>3.6</ele>
      </trkpt>
      <trkpt lat="38.39063" lon="26.95397">
        <ele>2.6</ele>
      </trkpt>
      <trkpt lat="38.38864" lon="26.9488">
        <ele>3.7</ele>
      </trkpt>
      <trkpt lat="38.38753" lon="26.9465">
        <ele>3.6</ele>
      </trkpt>
      <trkpt lat="38.38697" lon="26.94558">
        <ele>5.6</ele>
      </trkpt>
      <trkpt lat="38.38638" lon="26.94487">
        <ele>7.5</ele>
      </trkpt>
      <trkpt lat="38.38608" lon="26.94423">
        <ele>7.3</ele>
      </trkpt>
      <trkpt lat="38.38521" lon="26.94237">
        <ele>5</ele>
      </trkpt>
      <trkpt lat="38.38471" lon="26.94005">
        <ele>3.5</ele>
      </trkpt>
      <trkpt lat="38.38387" lon="26.9364">
        <ele>3.8</ele>
      </trkpt>
      <trkpt lat="38.38358" lon="26.93534">
        <ele>3.4</ele>
      </trkpt>
      <trkpt lat="38.38346" lon="26.93505">
        <ele>3.6</ele>
      </trkpt>
      <trkpt lat="38.38342" lon="26.93446">
        <ele>2.6</ele>
      </trkpt>
      <trkpt lat="38.38308" lon="26.93298">
        <ele>1.7</ele>
      </trkpt>
      <trkpt lat="38.38304" lon="26.93276">
        <ele>2</ele>
      </trkpt>
      <trkpt lat="38.38299" lon="26.93199">
        <ele>2.5</ele>
      </trkpt>
      <trkpt lat="38.3831" lon="26.93059">
        <ele>2.2</ele>
      </trkpt>
      <trkpt lat="38.38318" lon="26.9287">
        <ele>3.9</ele>
      </trkpt>
      <trkpt lat="38.3835" lon="26.92732">
        <ele>5.2</ele>
      </trkpt>
      <trkpt lat="38.3839" lon="26.92561">
        <ele>3.2</ele>
      </trkpt>
      <trkpt lat="38.38414" lon="26.92469">
        <ele>2.1</ele>
      </trkpt>
      <trkpt lat="38.38424" lon="26.92386">
        <ele>1.9</ele>
      </trkpt>
      <trkpt lat="38.38424" lon="26.92275">
        <ele>1.3</ele>
      </trkpt>
      <trkpt lat="38.38413" lon="26.92162">
        <ele>1.2</ele>
      </trkpt>
      <trkpt lat="38.3838" lon="26.92052">
        <ele>3.1</ele>
      </trkpt>
      <trkpt lat="38.38335" lon="26.91954">
        <ele>2.5</ele>
      </trkpt>
      <trkpt lat="38.38224" lon="26.91616">
        <ele>1.8</ele>
      </trkpt>
      <trkpt lat="38.38087" lon="26.91117">
        <ele>1</ele>
      </trkpt>
      <trkpt lat="38.38058" lon="26.91002">
        <ele>1.6</ele>
      </trkpt>
      <trkpt lat="38.37997" lon="26.90703">
        <ele>2.7</ele>
      </trkpt>
      <trkpt lat="38.37872" lon="26.90069">
        <ele>1.4</ele>
      </trkpt>
      <trkpt lat="38.37851" lon="26.89766">
        <ele>3.7</ele>
      </trkpt>
      <trkpt lat="38.37835" lon="26.89348">
        <ele>2.8</ele>
      </trkpt>
      <trkpt lat="38.37748" lon="26.88781">
        <ele>3</ele>
      </trkpt>
      <trkpt lat="38.37654" lon="26.88052">
        <ele>1.6</ele>
      </trkpt>
      <trkpt lat="38.37598" lon="26.87716">
        <ele>1</ele>
      </trkpt>
      <trkpt lat="38.37549" lon="26.87431">
        <ele>1.2</ele>
      </trkpt>
      <trkpt lat="38.37479" lon="26.87102">
        <ele>1.25</ele>
      </trkpt>
      <trkpt lat="38.374" lon="26.86666">
        <ele>2</ele>
      </trkpt>
      <trkpt lat="38.37317" lon="26.8627">
        <ele>1</ele>
      </trkpt>
      <trkpt lat="38.37214" lon="26.85726">
        <ele>1.9</ele>
      </trkpt>
      <trkpt lat="38.37149" lon="26.85413">
        <ele>1.2</ele>
      </trkpt>
      <trkpt lat="38.37113" lon="26.85197">
        <ele>1.4</ele>
      </trkpt>
      <trkpt lat="38.37088" lon="26.84856">
      </trkpt>
      <trkpt lat="38.37049" lon="26.84367">
        <ele>1</ele>
      </trkpt>
      <trkpt lat="38.37009" lon="26.83884">
        <ele>1</ele>
      </trkpt>
      <trkpt lat="38.37011" lon="26.83783">
        <ele>1.6</ele>
      </trkpt>
      <trkpt lat="38.36977" lon="26.83596">
        <ele>7.5</ele>
      </trkpt>
      <trkpt lat="38.36919" lon="26.83354">
        <ele>10.4</ele>
      </trkpt>
      <trkpt lat="38.368" lon="26.83113">
        <ele>5</ele>
      </trkpt>
      <trkpt lat="38.36748" lon="26.82993">
        <ele>15.8</ele>
      </trkpt>
      <trkpt lat="38.36713" lon="26.82821">
      </trkpt>
      <trkpt lat="38.36667" lon="26.82703">
        <ele>3.5</ele>
      </trkpt>
      <trkpt lat="38.36611" lon="26.82479">
        <ele>9.2</ele>
      </trkpt>
      <trkpt lat="38.36531" lon="26.82265">
        <ele>5.2</ele>
      </trkpt>
      <trkpt lat="38.36419" lon="26.8207">
        <ele>1</ele>
      </trkpt>
      <trkpt lat="38.36276" lon="26.8189">
        <ele>6.7</ele>
      </trkpt>
      <trkpt lat="38.36003" lon="26.81597">
        <ele>3.7</ele>
      </trkpt>
      <trkpt lat="38.3566" lon="26.81206">
        <ele>4.1</ele>
      </trkpt>
      <trkpt lat="38.35573" lon="26.81018">
        <ele>2.5</ele>
      </trkpt>
      <trkpt lat="38.35535" lon="26.80945">
        <ele>2</ele>
      </trkpt>
      <trkpt lat="38.35545" lon="26.80929">
        <ele>2</ele>
      </trkpt>
      <trkpt lat="38.35533" lon="26.80805">
        <ele>1</ele>
      </trkpt>
      <trkpt lat="38.35473" lon="26.80338">
        <ele>1.1</ele>
      </trkpt>
      <trkpt lat="38.35403" lon="26.7983">
        <ele>2.2</ele>
      </trkpt>
      <trkpt lat="38.35421" lon="26.79713">
        <ele>2.1</ele>
      </trkpt>
      <trkpt lat="38.35581" lon="26.7918">
        <ele>1.8</ele>
      </trkpt>
      <trkpt lat="38.35626" lon="26.79028">
        <ele>2.8</ele>
      </trkpt>
      <trkpt lat="38.35653" lon="26.78899">
        <ele>2.3</ele>
      </trkpt>
      <trkpt lat="38.35811" lon="26.78568">
        <ele>1.3</ele>
      </trkpt>
      <trkpt lat="38.35865" lon="26.78443">
        <ele>1.3</ele>
      </trkpt>
      <trkpt lat="38.3596" lon="26.78255">
        <ele>1.1</ele>
      </trkpt>
      <trkpt lat="38.36067" lon="26.78025">
        <ele>3.7</ele>
      </trkpt>
      <trkpt lat="38.36218" lon="26.77607">
        <ele>2.5</ele>
      </trkpt>
      <trkpt lat="38.36278" lon="26.77388">
        <ele>1</ele>
      </trkpt>
      <trkpt lat="38.36231" lon="26.77243">
        <ele>3.4</ele>
      </trkpt>
      <trkpt lat="38.36224" lon="26.77172">
        <ele>4.6</ele>
      </trkpt>
      <trkpt lat="38.36295" lon="26.7697">
        <ele>3.1</ele>
      </trkpt>
      <trkpt lat="38.36376" lon="26.76843">
        <ele>4.7</ele>
      </trkpt>
      <trkpt lat="38.36394" lon="26.76726">
        <ele>11.1</ele>
      </trkpt>
      <trkpt lat="38.36418" lon="26.76688">
        <ele>10.2</ele>
      </trkpt>
      <trkpt lat="38.36515" lon="26.76559">
        <ele>10.1</ele>
      </trkpt>
      <trkpt lat="38.36658" lon="26.76378">
        <ele>10.6</ele>
      </trkpt>
      <trkpt lat="38.36734" lon="26.76294">
        <ele>14.7</ele>
      </trkpt>
      <trkpt lat="38.36775" lon="26.76268">
        <ele>15.4</ele>
      </trkpt>
      <trkpt lat="38.36823" lon="26.76228">
        <ele>18.2</ele>
      </trkpt>
      <trkpt lat="38.36867" lon="26.76241">
        <ele>13.8</ele>
      </trkpt>
      <trkpt lat="38.3698" lon="26.7621">
        <ele>12.3</ele>
      </trkpt>
      <trkpt lat="38.37098" lon="26.7619">
        <ele>8</ele>
      </trkpt>
      <trkpt lat="38.37208" lon="26.76187">
        <ele>3.3</ele>
      </trkpt>
      <trkpt lat="38.37302" lon="26.76195">
        <ele>2.1</ele>
      </trkpt>
      <trkpt lat="38.37361" lon="26.76156">
        <ele>4.3</ele>
      </trkpt>
      <trkpt lat="38.37411" lon="26.76138">
        <ele>7</ele>
      </trkpt>
      <trkpt lat="38.37471" lon="26.76139">
        <ele>7.4</ele>
      </trkpt>
      <trkpt lat="38.37515" lon="26.7615">
        <ele>5.2</ele>
      </trkpt>
      <trkpt lat="38.37553" lon="26.7614">
        <ele>5.2</ele>
      </trkpt>
      <trkpt lat="38.37626" lon="26.7608">
        <ele>9.2</ele>
      </trkpt>
      <trkpt lat="38.3771" lon="26.76016">
        <ele>20</ele>
      </trkpt>
      <trkpt lat="38.37835" lon="26.7595">
        <ele>33.9</ele>
      </trkpt>
      <trkpt lat="38.37934" lon="26.75854">
        <ele>29.3</ele>
      </trkpt>
      <trkpt lat="38.38" lon="26.75777">
        <ele>20.3</ele>
      </trkpt>
      <trkpt lat="38.38034" lon="26.75678">
        <ele>19.7</ele>
      </trkpt>
      <trkpt lat="38.38045" lon="26.75618">
        <ele>18.9</ele>
      </trkpt>
      <trkpt lat="38.38027" lon="26.75539">
        <ele>21.2</ele>
      </trkpt>
      <trkpt lat="38.38008" lon="26.75474">
        <ele>22.5</ele>
      </trkpt>
      <trkpt lat="38.37963" lon="26.75446">
        <ele>28.7</ele>
      </trkpt>
      <trkpt lat="38.37895" lon="26.75418">
        <ele>36.9</ele>
      </trkpt>
      <trkpt lat="38.3779" lon="26.75394">
        <ele>48.4</ele>
      </trkpt>
      <trkpt lat="38.37728" lon="26.75379">
        <ele>53.5</ele>
      </trkpt>
      <trkpt lat="38.3768" lon="26.75347">
        <ele>54.2</ele>
      </trkpt>
      <trkpt lat="38.37613" lon="26.75267">
        <ele>55.4</ele>
      </trkpt>
      <trkpt lat="38.37564" lon="26.75253">
        <ele>62</ele>
      </trkpt>
      <trkpt lat="38.37518" lon="26.7521">
        <ele>64.3</ele>
      </trkpt>
      <trkpt lat="38.3744" lon="26.75119">
        <ele>60.5</ele>
      </trkpt>
      <trkpt lat="38.37415" lon="26.75104">
        <ele>60.9</ele>
      </trkpt>
      <trkpt lat="38.3735" lon="26.75082">
        <ele>63.4</ele>
      </trkpt>
      <trkpt lat="38.37339" lon="26.75064">
        <ele>64.6</ele>
      </trkpt>
      <trkpt lat="38.37341" lon="26.75025">
        <ele>64.5</ele>
      </trkpt>
      <trkpt lat="38.37367" lon="26.74959">
        <ele>69.7</ele>
      </trkpt>
      <trkpt lat="38.37362" lon="26.74946">
        <ele>71.8</ele>
      </trkpt>
      <trkpt lat="38.37243" lon="26.74861">
        <ele>92.4</ele>
      </trkpt>
      <trkpt lat="38.37228" lon="26.74818">
        <ele>98.8</ele>
      </trkpt>
      <trkpt lat="38.37214" lon="26.74756">
        <ele>107.8</ele>
      </trkpt>
      <trkpt lat="38.37188" lon="26.74769">
        <ele>108.9</ele>
      </trkpt>
      <trkpt lat="38.37177" lon="26.74803">
        <ele>106.7</ele>
      </trkpt>
      <trkpt lat="38.37173" lon="26.74845">
        <ele>103.7</ele>
      </trkpt>
      <trkpt lat="38.37138" lon="26.74884">
        <ele>107.6</ele>
      </trkpt>
      <trkpt lat="38.37094" lon="26.749">
        <ele>111.3</ele>
      </trkpt>
      <trkpt lat="38.37065" lon="26.74893">
        <ele>115.6</ele>
      </trkpt>
      <trkpt lat="38.3703" lon="26.74876">
        <ele>122.5</ele>
      </trkpt>
      <trkpt lat="38.36978" lon="26.7486">
        <ele>130.4</ele>
      </trkpt>
      <trkpt lat="38.36939" lon="26.74837">
        <ele>137.6</ele>
      </trkpt>
      <trkpt lat="38.36908" lon="26.74859">
        <ele>132.9</ele>
      </trkpt>
      <trkpt lat="38.36866" lon="26.74861">
        <ele>134.7</ele>
      </trkpt>
      <trkpt lat="38.36766" lon="26.74842">
        <ele>140.6</ele>
      </trkpt>
      <trkpt lat="38.36725" lon="26.74773">
        <ele>157.4</ele>
      </trkpt>
      <trkpt lat="38.36706" lon="26.74737">
        <ele>163.7</ele>
      </trkpt>
      <trkpt lat="38.36688" lon="26.74731">
        <ele>163.7</ele>
      </trkpt>
      <trkpt lat="38.36659" lon="26.74766">
        <ele>158.5</ele>
      </trkpt>
      <trkpt lat="38.36558" lon="26.74869">
        <ele>161.6</ele>
      </trkpt>
      <trkpt lat="38.36526" lon="26.74868">
        <ele>166.3</ele>
      </trkpt>
      <trkpt lat="38.36477" lon="26.74839">
        <ele>174.9</ele>
      </trkpt>
      <trkpt lat="38.3642" lon="26.74773">
        <ele>183.8</ele>
      </trkpt>
      <trkpt lat="38.36353" lon="26.74692">
        <ele>192</ele>
      </trkpt>
      <trkpt lat="38.36337" lon="26.74658">
        <ele>195</ele>
      </trkpt>
      <trkpt lat="38.3634" lon="26.74631">
        <ele>194.9</ele>
      </trkpt>
      <trkpt lat="38.36407" lon="26.74609">
        <ele>199.2</ele>
      </trkpt>
      <trkpt lat="38.36437" lon="26.74571">
        <ele>200.9</ele>
      </trkpt>
      <trkpt lat="38.36457" lon="26.74514">
        <ele>200.2</ele>
      </trkpt>
      <trkpt lat="38.36471" lon="26.74452">
        <ele>195.2</ele>
      </trkpt>
      <trkpt lat="38.36511" lon="26.74414">
        <ele>194.1</ele>
      </trkpt>
      <trkpt lat="38.366" lon="26.74379">
        <ele>198.7</ele>
      </trkpt>
      <trkpt lat="38.36602" lon="26.74198">
        <ele>199.7</ele>
      </trkpt>
      <trkpt lat="38.36647" lon="26.74052">
        <ele>210</ele>
      </trkpt>
      <trkpt lat="38.36749" lon="26.73919">
        <ele>223.9</ele>
      </trkpt>
      <trkpt lat="38.36775" lon="26.73904">
        <ele>222.6</ele>
      </trkpt>
      <trkpt lat="38.37022" lon="26.73846">
        <ele>205.9</ele>
      </trkpt>
      <trkpt lat="38.37072" lon="26.73853">
        <ele>204.3</ele>
      </trkpt>
      <trkpt lat="38.37107" lon="26.73887">
        <ele>205.8</ele>
      </trkpt>
      <trkpt lat="38.3716" lon="26.73897">
        <ele>201.5</ele>
      </trkpt>
      <trkpt lat="38.37207" lon="26.73862">
        <ele>196.2</ele>
      </trkpt>
      <trkpt lat="38.37245" lon="26.7386">
        <ele>194</ele>
      </trkpt>
      <trkpt lat="38.37283" lon="26.73818">
        <ele>194</ele>
      </trkpt>
      <trkpt lat="38.37346" lon="26.73721">
        <ele>184.6</ele>
      </trkpt>
      <trkpt lat="38.37373" lon="26.7369">
        <ele>182.6</ele>
      </trkpt>
      <trkpt lat="38.37388" lon="26.73659">
        <ele>179.7</ele>
      </trkpt>
      <trkpt lat="38.37467" lon="26.73543">
        <ele>172.9</ele>
      </trkpt>
      <trkpt lat="38.37559" lon="26.73432">
        <ele>169.8</ele>
      </trkpt>
      <trkpt lat="38.37561" lon="26.73397">
        <ele>168.5</ele>
      </trkpt>
      <trkpt lat="38.37518" lon="26.7337">
        <ele>166</ele>
      </trkpt>
      <trkpt lat="38.37475" lon="26.73278">
        <ele>163</ele>
      </trkpt>
      <trkpt lat="38.37357" lon="26.73173">
        <ele>152.6</ele>
      </trkpt>
      <trkpt lat="38.37329" lon="26.73014">
        <ele>151.7</ele>
      </trkpt>
      <trkpt lat="38.37303" lon="26.72978">
        <ele>150.5</ele>
      </trkpt>
      <trkpt lat="38.37284" lon="26.72896">
        <ele>150.6</ele>
      </trkpt>
      <trkpt lat="38.37221" lon="26.72785">
        <ele>144</ele>
      </trkpt>
      <trkpt lat="38.37149" lon="26.7276">
        <ele>143.8</ele>
      </trkpt>
      <trkpt lat="38.37116" lon="26.72641">
        <ele>139.8</ele>
      </trkpt>
      <trkpt lat="38.37019" lon="26.72527">
        <ele>136.2</ele>
      </trkpt>
      <trkpt lat="38.36946" lon="26.72434">
        <ele>132.7</ele>
      </trkpt>
      <trkpt lat="38.36914" lon="26.72362">
        <ele>123.3</ele>
      </trkpt>
      <trkpt lat="38.36844" lon="26.72334">
        <ele>119.8</ele>
      </trkpt>
      <trkpt lat="38.36832" lon="26.72248">
        <ele>110.9</ele>
      </trkpt>
      <trkpt lat="38.36788" lon="26.72131">
        <ele>105.3</ele>
      </trkpt>
      <trkpt lat="38.36795" lon="26.72017">
        <ele>100.2</ele>
      </trkpt>
      <trkpt lat="38.3678" lon="26.71887">
        <ele>94.1</ele>
      </trkpt>
      <trkpt lat="38.36756" lon="26.71724">
        <ele>91.5</ele>
      </trkpt>
      <trkpt lat="38.36782" lon="26.71657">
        <ele>92.8</ele>
      </trkpt>
      <trkpt lat="38.36848" lon="26.71592">
        <ele>90.8</ele>
      </trkpt>
      <trkpt lat="38.36904" lon="26.71495">
        <ele>87.2</ele>
      </trkpt>
      <trkpt lat="38.36912" lon="26.71423">
        <ele>82.7</ele>
      </trkpt>
      <trkpt lat="38.36917" lon="26.7134">
        <ele>78.3</ele>
      </trkpt>
      <trkpt lat="38.36894" lon="26.71276">
        <ele>79.1</ele>
      </trkpt>
      <trkpt lat="38.36824" lon="26.71179">
        <ele>72.3</ele>
      </trkpt>
      <trkpt lat="38.36762" lon="26.71123">
        <ele>72.7</ele>
      </trkpt>
      <trkpt lat="38.36744" lon="26.71045">
        <ele>68.8</ele>
      </trkpt>
      <trkpt lat="38.36697" lon="26.70977">
        <ele>69.4</ele>
      </trkpt>
      <trkpt lat="38.36585" lon="26.7068">
        <ele>54.9</ele>
      </trkpt>
      <trkpt lat="38.36544" lon="26.70701">
        <ele>56.5</ele>
      </trkpt>
      <trkpt lat="38.36529" lon="26.70728">
        <ele>59.7</ele>
      </trkpt>
      <trkpt lat="38.36429" lon="26.70721">
        <ele>58.2</ele>
      </trkpt>
      <trkpt lat="38.36332" lon="26.70713">
        <ele>55.8</ele>
      </trkpt>
      <trkpt lat="38.36249" lon="26.70652">
        <ele>50.5</ele>
      </trkpt>
      <trkpt lat="38.36205" lon="26.70662">
        <ele>52.5</ele>
      </trkpt>
      <trkpt lat="38.36167" lon="26.70704">
        <ele>55.4</ele>
      </trkpt>
      <trkpt lat="38.36118" lon="26.70778">
        <ele>63.2</ele>
      </trkpt>
      <trkpt lat="38.36172" lon="26.70578">
        <ele>52.6</ele>
      </trkpt>
      <trkpt lat="38.36167" lon="26.70319">
        <ele>48.2</ele>
      </trkpt>
      <trkpt lat="38.3608" lon="26.70261">
        <ele>44.3</ele>
      </trkpt>
      <trkpt lat="38.35836" lon="26.70176">
        <ele>30.7</ele>
      </trkpt>
      <trkpt lat="38.35716" lon="26.70039">
        <ele>29.4</ele>
      </trkpt>
      <trkpt lat="38.35662" lon="26.69928">
        <ele>26.2</ele>
      </trkpt>
      <trkpt lat="38.35529" lon="26.69838">
        <ele>23.4</ele>
      </trkpt>
      <trkpt lat="38.35467" lon="26.69855">
        <ele>24.6</ele>
      </trkpt>
      <trkpt lat="38.35422" lon="26.69765">
        <ele>19</ele>
      </trkpt>
      <trkpt lat="38.35378" lon="26.69739">
        <ele>17.3</ele>
      </trkpt>
      <trkpt lat="38.35286" lon="26.69711">
        <ele>15.4</ele>
      </trkpt>
      <trkpt lat="38.35228" lon="26.69716">
        <ele>14.2</ele>
      </trkpt>
      <trkpt lat="38.35154" lon="26.69702">
        <ele>12.9</ele>
      </trkpt>
      <trkpt lat="38.35019" lon="26.69709">
        <ele>11.4</ele>
      </trkpt>
      <trkpt lat="38.349" lon="26.69659">
        <ele>14.7</ele>
      </trkpt>
      <trkpt lat="38.34698" lon="26.69644">
        <ele>20.8</ele>
      </trkpt>
      <trkpt lat="38.3466" lon="26.69658">
        <ele>21.2</ele>
      </trkpt>
      <trkpt lat="38.34546" lon="26.69615">
        <ele>20.8</ele>
      </trkpt>
      <trkpt lat="38.34448" lon="26.69596">
        <ele>18</ele>
      </trkpt>
      <trkpt lat="38.34358" lon="26.69539">
        <ele>13.5</ele>
      </trkpt>
      <trkpt lat="38.34323" lon="26.69536">
        <ele>13.7</ele>
      </trkpt>
      <trkpt lat="38.34242" lon="26.69445">
        <ele>6.2</ele>
      </trkpt>
      <trkpt lat="38.34224" lon="26.69445">
        <ele>5.7</ele>
      </trkpt>
      <trkpt lat="38.34184" lon="26.6948">
        <ele>7.1</ele>
      </trkpt>
      <trkpt lat="38.34115" lon="26.69511">
        <ele>7.1</ele>
      </trkpt>
      <trkpt lat="38.34065" lon="26.69532">
        <ele>5.8</ele>
      </trkpt>
      <trkpt lat="38.34039" lon="26.69541">
        <ele>4.5</ele>
      </trkpt>
      <trkpt lat="38.3396" lon="26.69568">
        <ele>2</ele>
      </trkpt>
      <trkpt lat="38.33935" lon="26.69594">
        <ele>1.9</ele>
      </trkpt>
      <trkpt lat="38.33918" lon="26.69672">
        <ele>1.1</ele>
      </trkpt>
      <trkpt lat="38.33873" lon="26.69681">
        <ele>5.8</ele>
      </trkpt>
      <trkpt lat="38.33863" lon="26.69758">
        <ele>6.7</ele>
      </trkpt>
      <trkpt lat="38.33828" lon="26.69809">
        <ele>7.2</ele>
      </trkpt>
      <trkpt lat="38.33771" lon="26.69849">
        <ele>7.8</ele>
      </trkpt>
      <trkpt lat="38.33706" lon="26.6992">
        <ele>7.6</ele>
      </trkpt>
      <trkpt lat="38.33659" lon="26.69914">
        <ele>8.7</ele>
      </trkpt>
      <trkpt lat="38.33621" lon="26.69917">
        <ele>6.8</ele>
      </trkpt>
      <trkpt lat="38.33593" lon="26.69908">
        <ele>6.2</ele>
      </trkpt>
      <trkpt lat="38.33397" lon="26.6995">
        <ele>1.4</ele>
      </trkpt>
      <trkpt lat="38.33354" lon="26.69958">
        <ele>1.5</ele>
      </trkpt>
      <trkpt lat="38.33326" lon="26.69967">
        <ele>1</ele>
      </trkpt>
      <trkpt lat="38.3327" lon="26.70031">
        <ele>1</ele>
      </trkpt>
      <trkpt lat="38.33216" lon="26.70055">
        <ele>1</ele>
      </trkpt>
      <trkpt lat="38.33172" lon="26.70062">
        <ele>1</ele>
      </trkpt>
      <trkpt lat="38.33109" lon="26.70095">
      </trkpt>
      <trkpt lat="38.32961" lon="26.70137">
        <ele>1</ele>
      </trkpt>
      <trkpt lat="38.32939" lon="26.70178">
        <ele>1</ele>
      </trkpt>
      <trkpt lat="38.32891" lon="26.702">
        <ele>1</ele>
      </trkpt>
      <trkpt lat="38.32834" lon="26.70244">
        <ele>1</ele>
      </trkpt>
      <trkpt lat="38.32764" lon="26.70199">
        <ele>1</ele>
      </trkpt>
      <trkpt lat="38.3267" lon="26.70166">
      </trkpt>
      <trkpt lat="38.32635" lon="26.70172">
        <ele>1.38</ele>
      </trkpt>
      <trkpt lat="38.32582" lon="26.70167">
        <ele>2</ele>
      </trkpt>
      <trkpt lat="38.32488" lon="26.70122">
        <ele>1.5</ele>
      </trkpt>
      <trkpt lat="38.3246" lon="26.70122">
        <ele>1.5</ele>
      </trkpt>
      <trkpt lat="38.32313" lon="26.70166">
        <ele>1.74</ele>
      </trkpt>
      <trkpt lat="38.32284" lon="26.70191">
        <ele>3</ele>
      </trkpt>
      <trkpt lat="38.32268" lon="26.702">
        <ele>3.5</ele>
      </trkpt>
      <trkpt lat="38.32186" lon="26.70382">
        <ele>1.5</ele>
      </trkpt>
      <trkpt lat="38.32144" lon="26.70461">
        <ele>1.5</ele>
      </trkpt>
      <trkpt lat="38.32108" lon="26.70514">
        <ele>2</ele>
      </trkpt>
      <trkpt lat="38.32064" lon="26.70493">
        <ele>1.9</ele>
      </trkpt>
      <trkpt lat="38.3192" lon="26.70397">
        <ele>1.7</ele>
      </trkpt>
      <trkpt lat="38.31793" lon="26.7033">
        <ele>2.9</ele>
      </trkpt>
      <trkpt lat="38.31764" lon="26.70309">
        <ele>3.9</ele>
      </trkpt>
      <trkpt lat="38.31697" lon="26.70314">
        <ele>4</ele>
      </trkpt>
      <trkpt lat="38.31561" lon="26.70259">
        <ele>2.1</ele>
      </trkpt>
      <trkpt lat="38.3148" lon="26.70166">
        <ele>1.25</ele>
      </trkpt>
      <trkpt lat="38.31406" lon="26.70023">
      </trkpt>
      <trkpt lat="38.31291" lon="26.69744">
        <ele>3</ele>
      </trkpt>
      <trkpt lat="38.31201" lon="26.69508">
        <ele>1.9</ele>
      </trkpt>
      <trkpt lat="38.31163" lon="26.69306">
        <ele>1</ele>
      </trkpt>
      <trkpt lat="38.31118" lon="26.69179">
        <ele>1</ele>
      </trkpt>
      <trkpt lat="38.31003" lon="26.69238">
        <ele>1</ele>
      </trkpt>
      <trkpt lat="38.30906" lon="26.69295">
        <ele>2.1</ele>
      </trkpt>
      <trkpt lat="38.30883" lon="26.69279">
        <ele>2.1</ele>
      </trkpt>
      <trkpt lat="38.30799" lon="26.69311">
        <ele>2.8</ele>
      </trkpt>
      <trkpt lat="38.3055" lon="26.69431">
        <ele>3.1</ele>
      </trkpt>
      <trkpt lat="38.30447" lon="26.69485">
        <ele>2.9</ele>
      </trkpt>
      <trkpt lat="38.30113" lon="26.6958">
        <ele>6</ele>
      </trkpt>
      <trkpt lat="38.30018" lon="26.69617">
        <ele>6.8</ele>
      </trkpt>
      <trkpt lat="38.29971" lon="26.69684">
        <ele>8</ele>
      </trkpt>
      <trkpt lat="38.29915" lon="26.69995">
        <ele>10.1</ele>
      </trkpt>
      <trkpt lat="38.29888" lon="26.70145">
        <ele>12.9</ele>
      </trkpt>
      <trkpt lat="38.29845" lon="26.70235">
        <ele>15.9</ele>
      </trkpt>
      <trkpt lat="38.29841" lon="26.70297">
        <ele>16.5</ele>
      </trkpt>
      <trkpt lat="38.29796" lon="26.70378">
        <ele>16.9</ele>
      </trkpt>
      <trkpt lat="38.29719" lon="26.70449">
        <ele>18.1</ele>
      </trkpt>
      <trkpt lat="38.29627" lon="26.70523">
        <ele>22.5</ele>
      </trkpt>
      <trkpt lat="38.2958" lon="26.70622">
        <ele>22.4</ele>
      </trkpt>
      <trkpt lat="38.29562" lon="26.70654">
        <ele>21.7</ele>
      </trkpt>
      <trkpt lat="38.29475" lon="26.70659">
        <ele>24.4</ele>
      </trkpt>
      <trkpt lat="38.29374" lon="26.70728">
        <ele>24.2</ele>
      </trkpt>
      <trkpt lat="38.29229" lon="26.70781">
        <ele>25.9</ele>
      </trkpt>
      <trkpt lat="38.29119" lon="26.7076">
        <ele>28.9</ele>
      </trkpt>
      <trkpt lat="38.29096" lon="26.70938">
        <ele>24.3</ele>
      </trkpt>
      <trkpt lat="38.29024" lon="26.71009">
        <ele>25.2</ele>
      </trkpt>
      <trkpt lat="38.28883" lon="26.71306">
        <ele>24.5</ele>
      </trkpt>
      <trkpt lat="38.288" lon="26.71431">
        <ele>24.6</ele>
      </trkpt>
      <trkpt lat="38.28787" lon="26.71642">
        <ele>24.5</ele>
      </trkpt>
      <trkpt lat="38.28814" lon="26.71739">
        <ele>24.7</ele>
      </trkpt>
      <trkpt lat="38.28729" lon="26.71838">
        <ele>26.4</ele>
      </trkpt>
      <trkpt lat="38.28688" lon="26.71981">
        <ele>26.1</ele>
      </trkpt>
      <trkpt lat="38.28643" lon="26.7219">
        <ele>28.6</ele>
      </trkpt>
      <trkpt lat="38.28549" lon="26.72342">
        <ele>31.2</ele>
      </trkpt>
      <trkpt lat="38.28497" lon="26.72517">
        <ele>32</ele>
      </trkpt>
      <trkpt lat="38.28428" lon="26.72717">
        <ele>35.2</ele>
      </trkpt>
      <trkpt lat="38.28475" lon="26.72772">
        <ele>36</ele>
      </trkpt>
      <trkpt lat="38.2847" lon="26.72857">
        <ele>37.2</ele>
      </trkpt>
      <trkpt lat="38.28389" lon="26.73202">
        <ele>38.5</ele>
      </trkpt>
      <trkpt lat="38.28384" lon="26.7329">
        <ele>38.8</ele>
      </trkpt>
      <trkpt lat="38.2831" lon="26.73363">
        <ele>40.1</ele>
      </trkpt>
      <trkpt lat="38.28226" lon="26.73416">
        <ele>41.3</ele>
      </trkpt>
      <trkpt lat="38.28288" lon="26.7357">
        <ele>39.2</ele>
      </trkpt>
      <trkpt lat="38.28273" lon="26.73605">
        <ele>39.1</ele>
      </trkpt>
      <trkpt lat="38.28203" lon="26.73658">
        <ele>39.2</ele>
      </trkpt>
      <trkpt lat="38.28165" lon="26.73782">
        <ele>40.8</ele>
      </trkpt>
      <trkpt lat="38.28131" lon="26.73817">
        <ele>41.6</ele>
      </trkpt>
      <trkpt lat="38.28043" lon="26.73923">
        <ele>43</ele>
      </trkpt>
      <trkpt lat="38.27939" lon="26.73992">
        <ele>42</ele>
      </trkpt>
      <trkpt lat="38.27869" lon="26.74109">
        <ele>43.6</ele>
      </trkpt>
      <trkpt lat="38.27802" lon="26.74202">
        <ele>44.1</ele>
      </trkpt>
      <trkpt lat="38.27729" lon="26.74289">
        <ele>43.4</ele>
      </trkpt>
      <trkpt lat="38.27615" lon="26.74479">
        <ele>43.5</ele>
      </trkpt>
      <trkpt lat="38.27537" lon="26.74588">
        <ele>45.4</ele>
      </trkpt>
      <trkpt lat="38.27316" lon="26.74833">
        <ele>43</ele>
      </trkpt>
      <trkpt lat="38.27256" lon="26.74785">
        <ele>42.4</ele>
      </trkpt>
      <trkpt lat="38.27179" lon="26.74732">
        <ele>44.8</ele>
      </trkpt>
      <trkpt lat="38.27104" lon="26.74745">
        <ele>45.1</ele>
      </trkpt>
      <trkpt lat="38.27071" lon="26.74769">
        <ele>46</ele>
      </trkpt>
      <trkpt lat="38.26928" lon="26.74748">
        <ele>43.1</ele>
      </trkpt>
      <trkpt lat="38.26799" lon="26.74788">
        <ele>41.5</ele>
      </trkpt>
      <trkpt lat="38.26684" lon="26.74822">
        <ele>41</ele>
      </trkpt>
      <trkpt lat="38.26599" lon="26.74836">
        <ele>41</ele>
      </trkpt>
      <trkpt lat="38.26471" lon="26.74854">
        <ele>39.5</ele>
      </trkpt>
      <trkpt lat="38.26431" lon="26.74841">
        <ele>40.5</ele>
      </trkpt>
      <trkpt lat="38.2639" lon="26.74809">
        <ele>46.4</ele>
      </trkpt>
      <trkpt lat="38.26359" lon="26.74843">
        <ele>44.4</ele>
      </trkpt>
      <trkpt lat="38.26256" lon="26.74878">
        <ele>51.2</ele>
      </trkpt>
      <trkpt lat="38.26205" lon="26.74947">
        <ele>50.2</ele>
      </trkpt>
      <trkpt lat="38.26157" lon="26.75021">
        <ele>48.6</ele>
      </trkpt>
      <trkpt lat="38.26084" lon="26.75089">
        <ele>47.9</ele>
      </trkpt>
      <trkpt lat="38.25982" lon="26.75157">
        <ele>43.9</ele>
      </trkpt>
      <trkpt lat="38.2589" lon="26.75197">
        <ele>40.8</ele>
      </trkpt>
      <trkpt lat="38.25807" lon="26.75178">
        <ele>40.8</ele>
      </trkpt>
      <trkpt lat="38.25741" lon="26.75131">
        <ele>40.6</ele>
      </trkpt>
      <trkpt lat="38.25714" lon="26.75086">
        <ele>42.3</ele>
      </trkpt>
      <trkpt lat="38.25716" lon="26.75015">
        <ele>43.4</ele>
      </trkpt>
      <trkpt lat="38.25666" lon="26.74959">
        <ele>39.4</ele>
      </trkpt>
      <trkpt lat="38.25623" lon="26.74893">
        <ele>39.9</ele>
      </trkpt>
      <trkpt lat="38.25604" lon="26.74872">
        <ele>38.7</ele>
      </trkpt>
      <trkpt lat="38.25583" lon="26.74883">
        <ele>37.6</ele>
      </trkpt>
      <trkpt lat="38.25565" lon="26.74933">
        <ele>36.1</ele>
      </trkpt>
      <trkpt lat="38.25534" lon="26.7494">
        <ele>33.3</ele>
      </trkpt>
      <trkpt lat="38.2552" lon="26.74919">
        <ele>31.9</ele>
      </trkpt>
      <trkpt lat="38.25495" lon="26.74964">
        <ele>30.3</ele>
      </trkpt>
      <trkpt lat="38.25468" lon="26.75017">
        <ele>28.6</ele>
      </trkpt>
      <trkpt lat="38.25414" lon="26.75019">
        <ele>25.7</ele>
      </trkpt>
      <trkpt lat="38.25364" lon="26.74999">
        <ele>24.1</ele>
      </trkpt>
      <trkpt lat="38.25304" lon="26.75033">
        <ele>22.4</ele>
      </trkpt>
      <trkpt lat="38.25282" lon="26.75139">
        <ele>29.1</ele>
      </trkpt>
      <trkpt lat="38.25237" lon="26.75153">
        <ele>31.3</ele>
      </trkpt>
      <trkpt lat="38.25147" lon="26.75152">
        <ele>32.9</ele>
      </trkpt>
      <trkpt lat="38.25097" lon="26.75088">
        <ele>23.7</ele>
      </trkpt>
      <trkpt lat="38.25058" lon="26.75081">
        <ele>21.9</ele>
      </trkpt>
      <trkpt lat="38.24971" lon="26.75144">
        <ele>26.7</ele>
      </trkpt>
      <trkpt lat="38.24802" lon="26.75176">
        <ele>24.2</ele>
      </trkpt>
      <trkpt lat="38.24598" lon="26.75167">
        <ele>21.1</ele>
      </trkpt>
      <trkpt lat="38.24437" lon="26.75141">
        <ele>19.2</ele>
      </trkpt>
      <trkpt lat="38.24297" lon="26.75096">
        <ele>15.1</ele>
      </trkpt>
      <trkpt lat="38.24171" lon="26.75135">
        <ele>19.2</ele>
      </trkpt>
      <trkpt lat="38.24077" lon="26.75159">
        <ele>16.4</ele>
      </trkpt>
      <trkpt lat="38.23969" lon="26.75143">
        <ele>14.5</ele>
      </trkpt>
      <trkpt lat="38.23729" lon="26.7525">
        <ele>14.8</ele>
      </trkpt>
      <trkpt lat="38.23507" lon="26.7536">
        <ele>13.8</ele>
      </trkpt>
      <trkpt lat="38.23392" lon="26.7536">
        <ele>11.1</ele>
      </trkpt>
      <trkpt lat="38.23328" lon="26.75415">
        <ele>9.6</ele>
      </trkpt>
      <trkpt lat="38.23261" lon="26.75519">
        <ele>12.5</ele>
      </trkpt>
      <trkpt lat="38.23203" lon="26.75574">
        <ele>15.1</ele>
      </trkpt>
      <trkpt lat="38.23156" lon="26.75649">
        <ele>18</ele>
      </trkpt>
      <trkpt lat="38.23072" lon="26.75688">
        <ele>19.2</ele>
      </trkpt>
      <trkpt lat="38.22944" lon="26.75791">
        <ele>16</ele>
      </trkpt>
      <trkpt lat="38.22844" lon="26.75826">
        <ele>15.6</ele>
      </trkpt>
      <trkpt lat="38.22612" lon="26.75904">
        <ele>10</ele>
      </trkpt>
      <trkpt lat="38.22599" lon="26.76051">
        <ele>2.2</ele>
      </trkpt>
      <trkpt lat="38.2259" lon="26.76163">
        <ele>3</ele>
      </trkpt>
      <trkpt lat="38.22621" lon="26.76291">
        <ele>4.3</ele>
      </trkpt>
      <trkpt lat="38.22635" lon="26.7635">
        <ele>4.2</ele>
      </trkpt>
      <trkpt lat="38.22621" lon="26.76409">
        <ele>4.9</ele>
      </trkpt>
      <trkpt lat="38.22613" lon="26.76552">
        <ele>5.9</ele>
      </trkpt>
      <trkpt lat="38.22594" lon="26.76599">
        <ele>6.2</ele>
      </trkpt>
      <trkpt lat="38.22567" lon="26.76612">
        <ele>6.4</ele>
      </trkpt>
      <trkpt lat="38.22569" lon="26.76742">
        <ele>6.7</ele>
      </trkpt>
      <trkpt lat="38.22575" lon="26.76814">
        <ele>6.1</ele>
      </trkpt>
      <trkpt lat="38.22606" lon="26.76841">
        <ele>6.3</ele>
      </trkpt>
      <trkpt lat="38.22728" lon="26.77063">
        <ele>7.9</ele>
      </trkpt>
      <trkpt lat="38.22774" lon="26.77107">
        <ele>9.7</ele>
      </trkpt>
      <trkpt lat="38.22809" lon="26.77137">
        <ele>10</ele>
      </trkpt>
      <trkpt lat="38.22821" lon="26.77215">
        <ele>11.2</ele>
      </trkpt>
      <trkpt lat="38.22799" lon="26.77346">
        <ele>20</ele>
      </trkpt>
      <trkpt lat="38.22791" lon="26.77397">
        <ele>22.4</ele>
      </trkpt>
      <trkpt lat="38.22791" lon="26.7753">
        <ele>26.3</ele>
      </trkpt>
      <trkpt lat="38.22769" lon="26.77604">
        <ele>33.9</ele>
      </trkpt>
      <trkpt lat="38.22769" lon="26.77671">
        <ele>39.1</ele>
      </trkpt>
      <trkpt lat="38.2282" lon="26.77764">
        <ele>41.2</ele>
      </trkpt>
      <trkpt lat="38.22853" lon="26.77783">
        <ele>40.8</ele>
      </trkpt>
      <trkpt lat="38.22955" lon="26.77758">
        <ele>27.8</ele>
      </trkpt>
      <trkpt lat="38.23002" lon="26.77778">
        <ele>27.8</ele>
      </trkpt>
      <trkpt lat="38.23201" lon="26.77853">
        <ele>16.2</ele>
      </trkpt>
      <trkpt lat="38.2327" lon="26.77904">
        <ele>17.8</ele>
      </trkpt>
      <trkpt lat="38.23609" lon="26.78106">
        <ele>18.5</ele>
      </trkpt>
      <trkpt lat="38.23664" lon="26.78185">
        <ele>20.6</ele>
      </trkpt>
      <trkpt lat="38.23751" lon="26.78261">
        <ele>18.5</ele>
      </trkpt>
      <trkpt lat="38.23833" lon="26.78415">
        <ele>21.9</ele>
      </trkpt>
      <trkpt lat="38.23889" lon="26.78489">
        <ele>21</ele>
      </trkpt>
      <trkpt lat="38.23906" lon="26.78543">
        <ele>20.5</ele>
      </trkpt>
      <trkpt lat="38.23881" lon="26.78656">
        <ele>22.6</ele>
      </trkpt>
      <trkpt lat="38.23783" lon="26.78724">
        <ele>26.1</ele>
      </trkpt>
      <trkpt lat="38.23779" lon="26.78781">
        <ele>21.7</ele>
      </trkpt>
      <trkpt lat="38.2387" lon="26.7897">
        <ele>22</ele>
      </trkpt>
      <trkpt lat="38.23826" lon="26.79081">
        <ele>23.7</ele>
      </trkpt>
      <trkpt lat="38.23812" lon="26.7912">
        <ele>24</ele>
      </trkpt>
      <trkpt lat="38.23779" lon="26.79149">
        <ele>27</ele>
      </trkpt>
      <trkpt lat="38.23743" lon="26.79231">
        <ele>21.7</ele>
      </trkpt>
      <trkpt lat="38.23719" lon="26.79276">
        <ele>19.4</ele>
      </trkpt>
      <trkpt lat="38.23654" lon="26.79344">
        <ele>19.3</ele>
      </trkpt>
      <trkpt lat="38.23632" lon="26.79415">
        <ele>20.5</ele>
      </trkpt>
      <trkpt lat="38.23597" lon="26.795">
        <ele>21.4</ele>
      </trkpt>
      <trkpt lat="38.23563" lon="26.79551">
        <ele>24.6</ele>
      </trkpt>
      <trkpt lat="38.23466" lon="26.79642">
        <ele>24.4</ele>
      </trkpt>
      <trkpt lat="38.23317" lon="26.79863">
        <ele>21.3</ele>
      </trkpt>
      <trkpt lat="38.2327" lon="26.79908">
        <ele>23</ele>
      </trkpt>
      <trkpt lat="38.23237" lon="26.79917">
        <ele>24.8</ele>
      </trkpt>
      <trkpt lat="38.23213" lon="26.80002">
        <ele>24.2</ele>
      </trkpt>
      <trkpt lat="38.23173" lon="26.8005">
        <ele>24.9</ele>
      </trkpt>
      <trkpt lat="38.23159" lon="26.8016">
        <ele>24.1</ele>
      </trkpt>
      <trkpt lat="38.23101" lon="26.80221">
        <ele>28.3</ele>
      </trkpt>
      <trkpt lat="38.23045" lon="26.80311">
        <ele>33.8</ele>
      </trkpt>
      <trkpt lat="38.22994" lon="26.8043">
        <ele>36.8</ele>
      </trkpt>
      <trkpt lat="38.22887" lon="26.80539">
        <ele>30.8</ele>
      </trkpt>
      <trkpt lat="38.228" lon="26.80596">
        <ele>27.5</ele>
      </trkpt>
      <trkpt lat="38.22727" lon="26.80593">
        <ele>27.8</ele>
      </trkpt>
      <trkpt lat="38.22602" lon="26.80621">
        <ele>30.2</ele>
      </trkpt>
      <trkpt lat="38.22498" lon="26.80689">
        <ele>29.7</ele>
      </trkpt>
      <trkpt lat="38.22433" lon="26.80706">
        <ele>29.5</ele>
      </trkpt>
      <trkpt lat="38.22411" lon="26.80762">
        <ele>28.9</ele>
      </trkpt>
      <trkpt lat="38.22416" lon="26.80859">
        <ele>28</ele>
      </trkpt>
      <trkpt lat="38.22387" lon="26.80938">
        <ele>29.1</ele>
      </trkpt>
      <trkpt lat="38.22182" lon="26.80942">
        <ele>33.7</ele>
      </trkpt>
      <trkpt lat="38.22" lon="26.8108">
        <ele>41.8</ele>
      </trkpt>
      <trkpt lat="38.21845" lon="26.81203">
        <ele>49.1</ele>
      </trkpt>
      <trkpt lat="38.21752" lon="26.81338">
        <ele>57.4</ele>
      </trkpt>
      <trkpt lat="38.21682" lon="26.8158">
        <ele>61</ele>
      </trkpt>
      <trkpt lat="38.21752" lon="26.81718">
        <ele>67.8</ele>
      </trkpt>
      <trkpt lat="38.21744" lon="26.81831">
        <ele>68.9</ele>
      </trkpt>
      <trkpt lat="38.21647" lon="26.82225">
        <ele>61.7</ele>
      </trkpt>
      <trkpt lat="38.21791" lon="26.82403">
        <ele>57.8</ele>
      </trkpt>
      <trkpt lat="38.21829" lon="26.82704">
        <ele>59.3</ele>
      </trkpt>
      <trkpt lat="38.21443" lon="26.82828">
        <ele>50.1</ele>
      </trkpt>
      <trkpt lat="38.20656" lon="26.83109">
        <ele>33.8</ele>
      </trkpt>
      <trkpt lat="38.20234" lon="26.83259">
        <ele>29.6</ele>
      </trkpt>
      <trkpt lat="38.19885" lon="26.83377">
        <ele>27.3</ele>
      </trkpt>
      <trkpt lat="38.19429" lon="26.83421">
        <ele>26.3</ele>
      </trkpt>
      <trkpt lat="38.19069" lon="26.83438">
        <ele>26.5</ele>
      </trkpt>
      <trkpt lat="38.18396" lon="26.83618">
        <ele>24.2</ele>
      </trkpt>
      <trkpt lat="38.18304" lon="26.83654">
        <ele>24.2</ele>
      </trkpt>
      <trkpt lat="38.18215" lon="26.8371">
        <ele>25.8</ele>
      </trkpt>
      <trkpt lat="38.18106" lon="26.83802">
        <ele>25.3</ele>
      </trkpt>
      <trkpt lat="38.17986" lon="26.83886">
        <ele>26.9</ele>
      </trkpt>
      <trkpt lat="38.17918" lon="26.83921">
        <ele>31.9</ele>
      </trkpt>
      <trkpt lat="38.17845" lon="26.83946">
        <ele>36</ele>
      </trkpt>
      <trkpt lat="38.17772" lon="26.83953">
        <ele>38.6</ele>
      </trkpt>
      <trkpt lat="38.17656" lon="26.83955">
        <ele>38.2</ele>
      </trkpt>
      <trkpt lat="38.17267" lon="26.83924">
        <ele>45</ele>
      </trkpt>
      <trkpt lat="38.17145" lon="26.83914">
        <ele>47.5</ele>
      </trkpt>
      <trkpt lat="38.17043" lon="26.83917">
        <ele>48.6</ele>
      </trkpt>
      <trkpt lat="38.16828" lon="26.83971">
        <ele>53.3</ele>
      </trkpt>
      <trkpt lat="38.16745" lon="26.84016">
        <ele>61.1</ele>
      </trkpt>
      <trkpt lat="38.16572" lon="26.84115">
        <ele>67.7</ele>
      </trkpt>
      <trkpt lat="38.16404" lon="26.84201">
        <ele>66.7</ele>
      </trkpt>
      <trkpt lat="38.16323" lon="26.8433">
        <ele>69.5</ele>
      </trkpt>
      <trkpt lat="38.16265" lon="26.84482">
        <ele>73.1</ele>
      </trkpt>
      <trkpt lat="38.16247" lon="26.84507">
        <ele>71.7</ele>
      </trkpt>
      <trkpt lat="38.16112" lon="26.84683">
        <ele>83.5</ele>
      </trkpt>
      <trkpt lat="38.16093" lon="26.84783">
        <ele>84.3</ele>
      </trkpt>
      <trkpt lat="38.1611" lon="26.84933">
        <ele>91.9</ele>
      </trkpt>
      <trkpt lat="38.16073" lon="26.85028">
        <ele>91.9</ele>
      </trkpt>
      <trkpt lat="38.15976" lon="26.85134">
        <ele>98.1</ele>
      </trkpt>
      <trkpt lat="38.15887" lon="26.85193">
        <ele>102.9</ele>
      </trkpt>
      <trkpt lat="38.15828" lon="26.85385">
        <ele>113.1</ele>
      </trkpt>
      <trkpt lat="38.15608" lon="26.85732">
        <ele>111.7</ele>
      </trkpt>
      <trkpt lat="38.15502" lon="26.85914">
        <ele>111.1</ele>
      </trkpt>
      <trkpt lat="38.15325" lon="26.86106">
        <ele>114.9</ele>
      </trkpt>
      <trkpt lat="38.15271" lon="26.86214">
        <ele>120</ele>
      </trkpt>
      <trkpt lat="38.15243" lon="26.8634">
        <ele>120.8</ele>
      </trkpt>
      <trkpt lat="38.15133" lon="26.86601">
        <ele>109.2</ele>
      </trkpt>
      <trkpt lat="38.15046" lon="26.87065">
        <ele>121</ele>
      </trkpt>
      <trkpt lat="38.15024" lon="26.87563">
        <ele>138.4</ele>
      </trkpt>
      <trkpt lat="38.14971" lon="26.87663">
        <ele>144.4</ele>
      </trkpt>
      <trkpt lat="38.14875" lon="26.87729">
        <ele>131.4</ele>
      </trkpt>
      <trkpt lat="38.14752" lon="26.87747">
        <ele>123.5</ele>
      </trkpt>
      <trkpt lat="38.14727" lon="26.87837">
        <ele>108.1</ele>
      </trkpt>
      <trkpt lat="38.14733" lon="26.87917">
        <ele>101.5</ele>
      </trkpt>
      <trkpt lat="38.14708" lon="26.87963">
        <ele>94.4</ele>
      </trkpt>
      <trkpt lat="38.14566" lon="26.87966">
        <ele>84.1</ele>
      </trkpt>
      <trkpt lat="38.14456" lon="26.87966">
        <ele>80.6</ele>
      </trkpt>
      <trkpt lat="38.14379" lon="26.88039">
        <ele>77</ele>
      </trkpt>
      <trkpt lat="38.14322" lon="26.88186">
        <ele>73.1</ele>
      </trkpt>
      <trkpt lat="38.14349" lon="26.88315">
        <ele>71</ele>
      </trkpt>
      <trkpt lat="38.14352" lon="26.88447">
        <ele>69.8</ele>
      </trkpt>
      <trkpt lat="38.14275" lon="26.88687">
        <ele>62.2</ele>
      </trkpt>
      <trkpt lat="38.14236" lon="26.88882">
        <ele>63.9</ele>
      </trkpt>
      <trkpt lat="38.14231" lon="26.8908">
        <ele>65.1</ele>
      </trkpt>
      <trkpt lat="38.14282" lon="26.89236">
        <ele>57.5</ele>
      </trkpt>
      <trkpt lat="38.14277" lon="26.89487">
        <ele>54.4</ele>
      </trkpt>
      <trkpt lat="38.14218" lon="26.89626">
        <ele>56.4</ele>
      </trkpt>
      <trkpt lat="38.14125" lon="26.89748">
        <ele>50.9</ele>
      </trkpt>
      <trkpt lat="38.13892" lon="26.90009">
        <ele>54.1</ele>
      </trkpt>
      <trkpt lat="38.13784" lon="26.90259">
        <ele>58.2</ele>
      </trkpt>
      <trkpt lat="38.13644" lon="26.90329">
        <ele>53.4</ele>
      </trkpt>
      <trkpt lat="38.13473" lon="26.90416">
        <ele>58.7</ele>
      </trkpt>
      <trkpt lat="38.13368" lon="26.90484">
        <ele>62.9</ele>
      </trkpt>
      <trkpt lat="38.13117" lon="26.90825">
        <ele>57</ele>
      </trkpt>
      <trkpt lat="38.13024" lon="26.90879">
        <ele>56.2</ele>
      </trkpt>
      <trkpt lat="38.12858" lon="26.90898">
        <ele>53.9</ele>
      </trkpt>
      <trkpt lat="38.12717" lon="26.91029">
        <ele>47.9</ele>
      </trkpt>
      <trkpt lat="38.12598" lon="26.91056">
        <ele>51.7</ele>
      </trkpt>
      <trkpt lat="38.12452" lon="26.9092">
        <ele>59.1</ele>
      </trkpt>
      <trkpt lat="38.12314" lon="26.90851">
        <ele>60.8</ele>
      </trkpt>
      <trkpt lat="38.12001" lon="26.9074">
        <ele>54.8</ele>
      </trkpt>
      <trkpt lat="38.1184" lon="26.90736">
        <ele>47.8</ele>
      </trkpt>
      <trkpt lat="38.11594" lon="26.90753">
        <ele>39.2</ele>
      </trkpt>
      <trkpt lat="38.11151" lon="26.90784">
        <ele>32.6</ele>
      </trkpt>
      <trkpt lat="38.10916" lon="26.90843">
        <ele>34.6</ele>
      </trkpt>
      <trkpt lat="38.10717" lon="26.90887">
        <ele>24.9</ele>
      </trkpt>
      <trkpt lat="38.10489" lon="26.90819">
        <ele>20.2</ele>
      </trkpt>
      <trkpt lat="38.10089" lon="26.90656">
        <ele>20.3</ele>
      </trkpt>
      <trkpt lat="38.09841" lon="26.9064">
        <ele>28</ele>
      </trkpt>
      <trkpt lat="38.09124" lon="26.90672">
        <ele>16.8</ele>
      </trkpt>
      <trkpt lat="38.08812" lon="26.90685">
        <ele>13.5</ele>
      </trkpt>
      <trkpt lat="38.08677" lon="26.90728">
        <ele>13.2</ele>
      </trkpt>
      <trkpt lat="38.08488" lon="26.90784">
        <ele>15.5</ele>
      </trkpt>
      <trkpt lat="38.08295" lon="26.90848">
        <ele>15.5</ele>
      </trkpt>
      <trkpt lat="38.08136" lon="26.9088">
        <ele>15.5</ele>
      </trkpt>
      <trkpt lat="38.07801" lon="26.90807">
        <ele>14</ele>
      </trkpt>
      <trkpt lat="38.07514" lon="26.90805">
        <ele>10.2</ele>
      </trkpt>
      <trkpt lat="38.06933" lon="26.90887">
        <ele>6.7</ele>
      </trkpt>
      <trkpt lat="38.07045" lon="26.91479">
        <ele>5.9</ele>
      </trkpt>
      <trkpt lat="38.07335" lon="26.92642">
        <ele>6.3</ele>
      </trkpt>
      <trkpt lat="38.07584" lon="26.93208">
        <ele>8.5</ele>
      </trkpt>
      <trkpt lat="38.07692" lon="26.93848">
        <ele>6</ele>
      </trkpt>
      <trkpt lat="38.07807" lon="26.94529">
        <ele>4.9</ele>
      </trkpt>
      <trkpt lat="38.07814" lon="26.95182">
        <ele>6.8</ele>
      </trkpt>
      <trkpt lat="38.07799" lon="26.95812">
        <ele>7.4</ele>
      </trkpt>
      <trkpt lat="38.07886" lon="26.96189">
        <ele>11.4</ele>
      </trkpt>
      <trkpt lat="38.07986" lon="26.96653">
        <ele>9.8</ele>
      </trkpt>
      <trkpt lat="38.0796" lon="26.96939">
        <ele>11.2</ele>
      </trkpt>
      <trkpt lat="38.07815" lon="26.9732">
        <ele>13.6</ele>
      </trkpt>
      <trkpt lat="38.07718" lon="26.97868">
        <ele>11.7</ele>
      </trkpt>
      <trkpt lat="38.07663" lon="26.98452">
        <ele>7.9</ele>
      </trkpt>
      <trkpt lat="38.07613" lon="26.9887">
        <ele>5</ele>
      </trkpt>
      <trkpt lat="38.07366" lon="26.99441">
        <ele>3.7</ele>
      </trkpt>
      <trkpt lat="38.07095" lon="26.99937">
        <ele>15.4</ele>
      </trkpt>
      <trkpt lat="38.06878" lon="27.00259">
        <ele>12.5</ele>
      </trkpt>
      <trkpt lat="38.06612" lon="27.00547">
        <ele>4.4</ele>
      </trkpt>
      <trkpt lat="38.06192" lon="27.01">
        <ele>4</ele>
      </trkpt>
      <trkpt lat="38.06087" lon="27.01197">
        <ele>4.7</ele>
      </trkpt>
      <trkpt lat="38.05793" lon="27.01908">
        <ele>4.9</ele>
      </trkpt>
      <trkpt lat="38.05728" lon="27.02151">
        <ele>5.8</ele>
      </trkpt>
      <trkpt lat="38.05676" lon="27.02444">
        <ele>4.6</ele>
      </trkpt>
      <trkpt lat="38.05648" lon="27.02785">
        <ele>4.6</ele>
      </trkpt>
      <trkpt lat="38.05596" lon="27.03511">
        <ele>4.4</ele>
      </trkpt>
      <trkpt lat="38.05576" lon="27.03765">
        <ele>7.3</ele>
      </trkpt>
      <trkpt lat="38.05554" lon="27.04048">
        <ele>6.3</ele>
      </trkpt>
      <trkpt lat="38.05527" lon="27.04274">
        <ele>4.6</ele>
      </trkpt>
      <trkpt lat="38.05471" lon="27.04462">
        <ele>3.8</ele>
      </trkpt>
      <trkpt lat="38.05393" lon="27.04608">
        <ele>3.5</ele>
      </trkpt>
      <trkpt lat="38.05207" lon="27.04878">
        <ele>6.3</ele>
      </trkpt>
      <trkpt lat="38.0466" lon="27.0563">
        <ele>7.9</ele>
      </trkpt>
      <trkpt lat="38.04425" lon="27.05937">
        <ele>14.1</ele>
      </trkpt>
      <trkpt lat="38.04271" lon="27.06125">
        <ele>24.6</ele>
      </trkpt>
      <trkpt lat="38.04043" lon="27.06334">
        <ele>25.1</ele>
      </trkpt>
      <trkpt lat="38.03973" lon="27.06394">
        <ele>19.4</ele>
      </trkpt>
      <trkpt lat="38.03833" lon="27.06578">
        <ele>20.5</ele>
      </trkpt>
      <trkpt lat="38.03786" lon="27.06669">
        <ele>25.5</ele>
      </trkpt>
      <trkpt lat="38.03723" lon="27.06864">
        <ele>26.6</ele>
      </trkpt>
      <trkpt lat="38.03652" lon="27.07088">
        <ele>21.2</ele>
      </trkpt>
      <trkpt lat="38.03586" lon="27.07197">
        <ele>22.3</ele>
      </trkpt>
      <trkpt lat="38.0347" lon="27.07298">
        <ele>19.9</ele>
      </trkpt>
      <trkpt lat="38.03392" lon="27.07376">
        <ele>19.7</ele>
      </trkpt>
      <trkpt lat="38.03264" lon="27.07613">
        <ele>20.7</ele>
      </trkpt>
      <trkpt lat="38.03182" lon="27.07806">
        <ele>35.4</ele>
      </trkpt>
      <trkpt lat="38.03108" lon="27.07905">
        <ele>35.6</ele>
      </trkpt>
      <trkpt lat="38.0306" lon="27.0796">
        <ele>34.7</ele>
      </trkpt>
      <trkpt lat="38.02891" lon="27.08105">
        <ele>32.3</ele>
      </trkpt>
      <trkpt lat="38.02611" lon="27.08343">
        <ele>29.5</ele>
      </trkpt>
      <trkpt lat="38.0256" lon="27.08398">
        <ele>31.8</ele>
      </trkpt>
      <trkpt lat="38.0253" lon="27.08447">
        <ele>32.4</ele>
      </trkpt>
      <trkpt lat="38.02493" lon="27.08541">
        <ele>33.4</ele>
      </trkpt>
      <trkpt lat="38.02405" lon="27.08727">
        <ele>38</ele>
      </trkpt>
      <trkpt lat="38.02336" lon="27.08798">
        <ele>28.1</ele>
      </trkpt>
      <trkpt lat="38.02223" lon="27.08893">
        <ele>25.3</ele>
      </trkpt>
      <trkpt lat="38.02182" lon="27.08985">
        <ele>25.3</ele>
      </trkpt>
      <trkpt lat="38.02165" lon="27.09127">
        <ele>25.4</ele>
      </trkpt>
      <trkpt lat="38.02164" lon="27.09291">
        <ele>23.7</ele>
      </trkpt>
      <trkpt lat="38.02145" lon="27.09436">
        <ele>16.8</ele>
      </trkpt>
      <trkpt lat="38.02118" lon="27.09516">
        <ele>15.7</ele>
      </trkpt>
      <trkpt lat="38.01861" lon="27.09955">
        <ele>16.3</ele>
      </trkpt>
      <trkpt lat="38.01754" lon="27.10096">
        <ele>14.9</ele>
      </trkpt>
      <trkpt lat="38.01677" lon="27.1019">
        <ele>10.9</ele>
      </trkpt>
      <trkpt lat="38.01573" lon="27.10263">
        <ele>10.6</ele>
      </trkpt>
      <trkpt lat="38.01472" lon="27.10328">
        <ele>11</ele>
      </trkpt>
      <trkpt lat="38.01332" lon="27.10357">
        <ele>14.3</ele>
      </trkpt>
      <trkpt lat="38.012" lon="27.10366">
        <ele>17.6</ele>
      </trkpt>
      <trkpt lat="38.01158" lon="27.10385">
        <ele>18.6</ele>
      </trkpt>
      <trkpt lat="38.01109" lon="27.10449">
        <ele>16.3</ele>
      </trkpt>
      <trkpt lat="38.01087" lon="27.1053">
        <ele>11.9</ele>
      </trkpt>
      <trkpt lat="38.01091" lon="27.10645">
        <ele>6</ele>
      </trkpt>
      <trkpt lat="38.01071" lon="27.10981">
        <ele>14.8</ele>
      </trkpt>
      <trkpt lat="38.01044" lon="27.11075">
        <ele>16.9</ele>
      </trkpt>
      <trkpt lat="38.00946" lon="27.11321">
        <ele>39.5</ele>
      </trkpt>
      <trkpt lat="38.00788" lon="27.11729">
        <ele>24.3</ele>
      </trkpt>
      <trkpt lat="38.00715" lon="27.11844">
        <ele>21.1</ele>
      </trkpt>
      <trkpt lat="38.00612" lon="27.11954">
        <ele>17.6</ele>
      </trkpt>
      <trkpt lat="38.00489" lon="27.1206">
        <ele>15.6</ele>
      </trkpt>
      <trkpt lat="37.99804" lon="27.12646">
        <ele>16.4</ele>
      </trkpt>
      <trkpt lat="37.99683" lon="27.12782">
        <ele>22.7</ele>
      </trkpt>
      <trkpt lat="37.99558" lon="27.13012">
        <ele>15.7</ele>
      </trkpt>
      <trkpt lat="37.99053" lon="27.13987">
        <ele>35.2</ele>
      </trkpt>
      <trkpt lat="37.98961" lon="27.1417">
        <ele>40.6</ele>
      </trkpt>
      <trkpt lat="37.98894" lon="27.14214">
        <ele>45.5</ele>
      </trkpt>
      <trkpt lat="37.98723" lon="27.14302">
        <ele>61.4</ele>
      </trkpt>
      <trkpt lat="37.98609" lon="27.14305">
        <ele>57.1</ele>
      </trkpt>
      <trkpt lat="37.98565" lon="27.14325">
        <ele>55</ele>
      </trkpt>
      <trkpt lat="37.98525" lon="27.14452">
        <ele>57.6</ele>
      </trkpt>
      <trkpt lat="37.98554" lon="27.14563">
        <ele>64.1</ele>
      </trkpt>
      <trkpt lat="37.98631" lon="27.14664">
        <ele>58.2</ele>
      </trkpt>
      <trkpt lat="37.98711" lon="27.14728">
        <ele>48.1</ele>
      </trkpt>
      <trkpt lat="37.9881" lon="27.1475">
        <ele>46.8</ele>
      </trkpt>
      <trkpt lat="37.98957" lon="27.14857">
        <ele>54.1</ele>
      </trkpt>
      <trkpt lat="37.99001" lon="27.14989">
        <ele>55.9</ele>
      </trkpt>
      <trkpt lat="37.98988" lon="27.15102">
        <ele>52.9</ele>
      </trkpt>
      <trkpt lat="37.98954" lon="27.15243">
        <ele>40.8</ele>
      </trkpt>
      <trkpt lat="37.98949" lon="27.15361">
        <ele>39.9</ele>
      </trkpt>
      <trkpt lat="37.98987" lon="27.1545">
        <ele>33.3</ele>
      </trkpt>
      <trkpt lat="37.99048" lon="27.15524">
        <ele>29</ele>
      </trkpt>
      <trkpt lat="37.99067" lon="27.15625">
        <ele>28.2</ele>
      </trkpt>
      <trkpt lat="37.99039" lon="27.157">
        <ele>37.4</ele>
      </trkpt>
      <trkpt lat="37.98974" lon="27.15738">
        <ele>47.2</ele>
      </trkpt>
      <trkpt lat="37.98821" lon="27.15749">
        <ele>57.8</ele>
      </trkpt>
      <trkpt lat="37.98698" lon="27.15763">
        <ele>64.4</ele>
      </trkpt>
      <trkpt lat="37.98626" lon="27.15759">
        <ele>61.6</ele>
      </trkpt>
      <trkpt lat="37.98585" lon="27.15787">
        <ele>64.8</ele>
      </trkpt>
      <trkpt lat="37.98541" lon="27.1585">
        <ele>58.7</ele>
      </trkpt>
      <trkpt lat="37.98508" lon="27.15905">
        <ele>55.9</ele>
      </trkpt>
      <trkpt lat="37.98474" lon="27.16006">
        <ele>64.6</ele>
      </trkpt>
      <trkpt lat="37.9841" lon="27.16087">
        <ele>58.1</ele>
      </trkpt>
      <trkpt lat="37.98372" lon="27.1616">
        <ele>62.7</ele>
      </trkpt>
      <trkpt lat="37.98356" lon="27.16247">
        <ele>67.9</ele>
      </trkpt>
      <trkpt lat="37.98342" lon="27.16476">
        <ele>72.3</ele>
      </trkpt>
      <trkpt lat="37.98338" lon="27.16573">
        <ele>74.2</ele>
      </trkpt>
      <trkpt lat="37.98364" lon="27.16617">
        <ele>72.4</ele>
      </trkpt>
      <trkpt lat="37.98486" lon="27.16626">
        <ele>79</ele>
      </trkpt>
      <trkpt lat="37.98526" lon="27.1668">
        <ele>74.1</ele>
      </trkpt>
      <trkpt lat="37.98575" lon="27.16775">
        <ele>63</ele>
      </trkpt>
      <trkpt lat="37.98702" lon="27.16892">
        <ele>57.6</ele>
      </trkpt>
      <trkpt lat="37.98718" lon="27.16951">
        <ele>52.9</ele>
      </trkpt>
      <trkpt lat="37.98677" lon="27.1701">
        <ele>42.3</ele>
      </trkpt>
      <trkpt lat="37.98603" lon="27.17042">
        <ele>43.5</ele>
      </trkpt>
      <trkpt lat="37.98537" lon="27.17083">
        <ele>40.8</ele>
      </trkpt>
      <trkpt lat="37.98499" lon="27.17135">
        <ele>38.9</ele>
      </trkpt>
      <trkpt lat="37.98469" lon="27.17241">
        <ele>40</ele>
      </trkpt>
      <trkpt lat="37.98492" lon="27.17344">
        <ele>31.7</ele>
      </trkpt>
      <trkpt lat="37.98563" lon="27.17414">
        <ele>29.4</ele>
      </trkpt>
      <trkpt lat="37.98667" lon="27.17439">
        <ele>30.8</ele>
      </trkpt>
      <trkpt lat="37.98837" lon="27.17489">
        <ele>19.7</ele>
      </trkpt>
      <trkpt lat="37.9905" lon="27.17549">
        <ele>26.4</ele>
      </trkpt>
      <trkpt lat="37.99101" lon="27.17591">
        <ele>22.9</ele>
      </trkpt>
      <trkpt lat="37.99161" lon="27.17761">
        <ele>12.9</ele>
      </trkpt>
      <trkpt lat="37.99183" lon="27.17837">
        <ele>13.4</ele>
      </trkpt>
      <trkpt lat="37.99146" lon="27.17905">
        <ele>16.7</ele>
      </trkpt>
      <trkpt lat="37.99094" lon="27.17925">
        <ele>20</ele>
      </trkpt>
      <trkpt lat="37.99018" lon="27.17917">
        <ele>22.7</ele>
      </trkpt>
      <trkpt lat="37.98967" lon="27.17902">
        <ele>20.2</ele>
      </trkpt>
      <trkpt lat="37.98911" lon="27.17953">
        <ele>25.9</ele>
      </trkpt>
      <trkpt lat="37.98797" lon="27.18109">
        <ele>25.9</ele>
      </trkpt>
      <trkpt lat="37.98797" lon="27.18194">
        <ele>29.3</ele>
      </trkpt>
      <trkpt lat="37.98831" lon="27.18245">
        <ele>31.8</ele>
      </trkpt>
      <trkpt lat="37.98959" lon="27.18354">
        <ele>36.6</ele>
      </trkpt>
      <trkpt lat="37.99095" lon="27.18476">
        <ele>24.9</ele>
      </trkpt>
      <trkpt lat="37.99292" lon="27.18538">
        <ele>19.8</ele>
      </trkpt>
      <trkpt lat="37.99379" lon="27.18625">
        <ele>4.7</ele>
      </trkpt>
      <trkpt lat="37.99428" lon="27.18721">
        <ele>3.1</ele>
      </trkpt>
      <trkpt lat="37.9943" lon="27.18837">
        <ele>3</ele>
      </trkpt>
      <trkpt lat="37.99454" lon="27.19109">
        <ele>4.3</ele>
      </trkpt>
      <trkpt lat="37.99503" lon="27.19411">
        <ele>5.9</ele>
      </trkpt>
      <trkpt lat="37.99756" lon="27.20156">
        <ele>47.7</ele>
      </trkpt>
      <trkpt lat="37.99728" lon="27.2032">
        <ele>57.9</ele>
      </trkpt>
      <trkpt lat="37.99715" lon="27.20548">
        <ele>70.5</ele>
      </trkpt>
      <trkpt lat="37.99661" lon="27.20604">
        <ele>72.8</ele>
      </trkpt>
      <trkpt lat="37.99503" lon="27.20616">
        <ele>76.5</ele>
      </trkpt>
      <trkpt lat="37.9944" lon="27.20676">
        <ele>77</ele>
      </trkpt>
      <trkpt lat="37.99428" lon="27.20832">
        <ele>87.6</ele>
      </trkpt>
      <trkpt lat="37.99481" lon="27.20901">
        <ele>80.6</ele>
      </trkpt>
      <trkpt lat="37.99586" lon="27.20933">
        <ele>84.3</ele>
      </trkpt>
      <trkpt lat="37.9963" lon="27.21025">
        <ele>84.6</ele>
      </trkpt>
      <trkpt lat="37.99586" lon="27.21145">
        <ele>81.2</ele>
      </trkpt>
      <trkpt lat="37.99519" lon="27.21473">
        <ele>64.9</ele>
      </trkpt>
      <trkpt lat="37.99586" lon="27.21661">
        <ele>51.9</ele>
      </trkpt>
      <trkpt lat="37.99544" lon="27.21785">
        <ele>50.2</ele>
      </trkpt>
      <trkpt lat="37.99485" lon="27.21834">
        <ele>55.4</ele>
      </trkpt>
      <trkpt lat="37.99368" lon="27.2183">
        <ele>50.4</ele>
      </trkpt>
      <trkpt lat="37.9909" lon="27.21998">
        <ele>68.6</ele>
      </trkpt>
      <trkpt lat="37.99046" lon="27.22094">
        <ele>60.2</ele>
      </trkpt>
      <trkpt lat="37.99084" lon="27.22226">
        <ele>62.4</ele>
      </trkpt>
      <trkpt lat="37.99049" lon="27.22402">
        <ele>66.3</ele>
      </trkpt>
      <trkpt lat="37.98967" lon="27.22442">
        <ele>64.5</ele>
      </trkpt>
      <trkpt lat="37.98901" lon="27.22502">
        <ele>64.4</ele>
      </trkpt>
      <trkpt lat="37.98809" lon="27.22738">
        <ele>68.5</ele>
      </trkpt>
      <trkpt lat="37.98688" lon="27.23168">
        <ele>57</ele>
      </trkpt>
      <trkpt lat="37.98669" lon="27.23337">
        <ele>40.1</ele>
      </trkpt>
      <trkpt lat="37.9871" lon="27.23469">
        <ele>34.8</ele>
      </trkpt>
      <trkpt lat="37.9882" lon="27.23509">
        <ele>40.6</ele>
      </trkpt>
      <trkpt lat="37.98953" lon="27.23477">
        <ele>40.6</ele>
      </trkpt>
      <trkpt lat="37.9907" lon="27.23449">
        <ele>35.3</ele>
      </trkpt>
      <trkpt lat="37.99171" lon="27.23485">
        <ele>25.9</ele>
      </trkpt>
      <trkpt lat="37.99215" lon="27.23569">
        <ele>19.3</ele>
      </trkpt>
      <trkpt lat="37.99212" lon="27.23697">
        <ele>19.1</ele>
      </trkpt>
      <trkpt lat="37.99079" lon="27.23865">
        <ele>19.5</ele>
      </trkpt>
      <trkpt lat="37.98947" lon="27.2403">
        <ele>22.2</ele>
      </trkpt>
      <trkpt lat="37.98953" lon="27.24118">
        <ele>26.2</ele>
      </trkpt>
      <trkpt lat="37.99073" lon="27.24226">
        <ele>34.8</ele>
      </trkpt>
      <trkpt lat="37.99104" lon="27.24306">
        <ele>31.8</ele>
      </trkpt>
      <trkpt lat="37.98994" lon="27.24486">
        <ele>34.3</ele>
      </trkpt>
      <trkpt lat="37.98753" lon="27.24811">
        <ele>47</ele>
      </trkpt>
      <trkpt lat="37.98636" lon="27.24855">
        <ele>40.6</ele>
      </trkpt>
      <trkpt lat="37.9845" lon="27.24871">
        <ele>28.2</ele>
      </trkpt>
      <trkpt lat="37.98378" lon="27.24939">
        <ele>27.1</ele>
      </trkpt>
      <trkpt lat="37.98232" lon="27.25135">
        <ele>33.5</ele>
      </trkpt>
      <trkpt lat="37.98207" lon="27.25187">
        <ele>30.4</ele>
      </trkpt>
      <trkpt lat="37.98213" lon="27.25279">
        <ele>30.6</ele>
      </trkpt>
      <trkpt lat="37.98213" lon="27.25307">
        <ele>28.7</ele>
      </trkpt>
      <trkpt lat="37.9833" lon="27.25624">
        <ele>21.8</ele>
      </trkpt>
      <trkpt lat="37.98314" lon="27.25702">
        <ele>11</ele>
      </trkpt>
      <trkpt lat="37.98267" lon="27.25784">
        <ele>17.1</ele>
      </trkpt>
      <trkpt lat="37.98199" lon="27.25819">
        <ele>22.7</ele>
      </trkpt>
      <trkpt lat="37.98122" lon="27.25834">
        <ele>20.5</ele>
      </trkpt>
      <trkpt lat="37.98056" lon="27.2582">
        <ele>17.3</ele>
      </trkpt>
      <trkpt lat="37.97944" lon="27.25778">
        <ele>18.9</ele>
      </trkpt>
      <trkpt lat="37.97872" lon="27.25782">
        <ele>25.2</ele>
      </trkpt>
      <trkpt lat="37.97792" lon="27.25808">
        <ele>27.5</ele>
      </trkpt>
      <trkpt lat="37.97728" lon="27.25869">
        <ele>24.3</ele>
      </trkpt>
      <trkpt lat="37.97664" lon="27.26005">
        <ele>20.3</ele>
      </trkpt>
      <trkpt lat="37.97597" lon="27.2631">
        <ele>20.3</ele>
      </trkpt>
      <trkpt lat="37.97644" lon="27.26321">
        <ele>19.2</ele>
      </trkpt>
      <trkpt lat="37.97719" lon="27.26342">
        <ele>18.1</ele>
      </trkpt>
      <trkpt lat="37.97776" lon="27.26373">
        <ele>14.6</ele>
      </trkpt>
      <trkpt lat="37.97833" lon="27.26376">
        <ele>15.8</ele>
      </trkpt>
      <trkpt lat="37.97851" lon="27.26427">
        <ele>12.9</ele>
      </trkpt>
      <trkpt lat="37.97856" lon="27.26504">
        <ele>8.5</ele>
      </trkpt>
      <trkpt lat="37.97918" lon="27.26612">
        <ele>9.1</ele>
      </trkpt>
      <trkpt lat="37.97975" lon="27.26654">
        <ele>11</ele>
      </trkpt>
      <trkpt lat="37.97987" lon="27.2673">
        <ele>10.7</ele>
      </trkpt>
      <trkpt lat="37.97992" lon="27.26817">
        <ele>5.9</ele>
      </trkpt>
      <trkpt lat="37.98033" lon="27.26875">
        <ele>6.5</ele>
      </trkpt>
      <trkpt lat="37.98164" lon="27.26897">
        <ele>11.6</ele>
      </trkpt>
      <trkpt lat="37.98244" lon="27.26923">
        <ele>9.1</ele>
      </trkpt>
      <trkpt lat="37.9836" lon="27.26998">
        <ele>5.4</ele>
      </trkpt>
      <trkpt lat="37.9841" lon="27.27002">
        <ele>6.6</ele>
      </trkpt>
      <trkpt lat="37.98601" lon="27.27218">
        <ele>6</ele>
      </trkpt>
      <trkpt lat="37.98632" lon="27.27347">
        <ele>8.1</ele>
      </trkpt>
      <trkpt lat="37.98663" lon="27.27377">
        <ele>9</ele>
      </trkpt>
      <trkpt lat="37.98739" lon="27.27399">
        <ele>13.8</ele>
      </trkpt>
      <trkpt lat="37.98742" lon="27.27485">
        <ele>9.8</ele>
      </trkpt>
      <trkpt lat="37.9878" lon="27.27539">
        <ele>11.7</ele>
      </trkpt>
      <trkpt lat="37.98814" lon="27.27665">
        <ele>10.2</ele>
      </trkpt>
      <trkpt lat="37.98813" lon="27.27691">
        <ele>11.7</ele>
      </trkpt>
      <trkpt lat="37.9876" lon="27.27736">
        <ele>7.1</ele>
      </trkpt>
      <trkpt lat="37.98746" lon="27.27874">
        <ele>6.8</ele>
      </trkpt>
      <trkpt lat="37.98763" lon="27.27934">
        <ele>7.1</ele>
      </trkpt>
      <trkpt lat="37.98828" lon="27.28014">
        <ele>8.3</ele>
      </trkpt>
      <trkpt lat="37.98919" lon="27.28091">
        <ele>5.2</ele>
      </trkpt>
      <trkpt lat="37.98976" lon="27.28154">
        <ele>9.4</ele>
      </trkpt>
      <trkpt lat="37.99003" lon="27.28191">
        <ele>9.7</ele>
      </trkpt>
      <trkpt lat="37.99068" lon="27.28201">
        <ele>12.3</ele>
      </trkpt>
      <trkpt lat="37.99117" lon="27.28257">
        <ele>8.2</ele>
      </trkpt>
      <trkpt lat="37.99083" lon="27.28302">
        <ele>4.8</ele>
      </trkpt>
      <trkpt lat="37.99053" lon="27.28461">
        <ele>5.9</ele>
      </trkpt>
      <trkpt lat="37.98984" lon="27.28539">
        <ele>6</ele>
      </trkpt>
      <trkpt lat="37.98831" lon="27.2863">
        <ele>2</ele>
      </trkpt>
      <trkpt lat="37.98434" lon="27.28856">
        <ele>2.7</ele>
      </trkpt>
      <trkpt lat="37.9825" lon="27.28966">
        <ele>5.9</ele>
      </trkpt>
      <trkpt lat="37.97969" lon="27.29115">
        <ele>3.8</ele>
      </trkpt>
      <trkpt lat="37.97845" lon="27.29156">
        <ele>5</ele>
      </trkpt>
      <trkpt lat="37.97704" lon="27.29231">
        <ele>8.6</ele>
      </trkpt>
      <trkpt lat="37.97657" lon="27.29248">
        <ele>7.3</ele>
      </trkpt>
      <trkpt lat="37.97589" lon="27.29311">
        <ele>3.3</ele>
      </trkpt>
      <trkpt lat="37.97522" lon="27.2942">
        <ele>1.7</ele>
      </trkpt>
      <trkpt lat="37.97452" lon="27.29485">
        <ele>1.2</ele>
      </trkpt>
      <trkpt lat="37.97332" lon="27.29625">
        <ele>2</ele>
      </trkpt>
      <trkpt lat="37.97237" lon="27.29729">
        <ele>2</ele>
      </trkpt>
      <trkpt lat="37.97154" lon="27.2978">
        <ele>1.9</ele>
      </trkpt>
      <trkpt lat="37.97141" lon="27.29852">
        <ele>1.9</ele>
      </trkpt>
      <trkpt lat="37.97253" lon="27.30107">
        <ele>2.7</ele>
      </trkpt>
      <trkpt lat="37.97289" lon="27.30595">
        <ele>2.5</ele>
      </trkpt>
      <trkpt lat="37.97346" lon="27.30803">
        <ele>1.1</ele>
      </trkpt>
      <trkpt lat="37.97341" lon="27.31128">
        <ele>4.4</ele>
      </trkpt>
      <trkpt lat="37.97361" lon="27.31492">
        <ele>3.8</ele>
      </trkpt>
      <trkpt lat="37.97412" lon="27.3183">
        <ele>3</ele>
      </trkpt>
      <trkpt lat="37.97484" lon="27.32559">
        <ele>3.9</ele>
      </trkpt>
      <trkpt lat="37.97597" lon="27.33693">
        <ele>4.7</ele>
      </trkpt>
      <trkpt lat="37.97618" lon="27.33875">
        <ele>3.7</ele>
      </trkpt>
      <trkpt lat="37.97797" lon="27.34311">
        <ele>6</ele>
      </trkpt>
      <trkpt lat="37.97812" lon="27.34467">
        <ele>12.4</ele>
      </trkpt>
      <trkpt lat="37.97746" lon="27.34623">
        <ele>7.9</ele>
      </trkpt>
      <trkpt lat="37.97771" lon="27.35091">
        <ele>3.3</ele>
      </trkpt>
      <trkpt lat="37.97725" lon="27.35176">
        <ele>4.3</ele>
      </trkpt>
      <trkpt lat="37.97735" lon="27.35267">
        <ele>4.8</ele>
      </trkpt>
      <trkpt lat="37.97624" lon="27.3534">
        <ele>4.6</ele>
      </trkpt>
      <trkpt lat="37.97599" lon="27.35424">
        <ele>5.8</ele>
      </trkpt>
      <trkpt lat="37.97533" lon="27.35548">
        <ele>7.8</ele>
      </trkpt>
      <trkpt lat="37.97507" lon="27.35649">
        <ele>9</ele>
      </trkpt>
      <trkpt lat="37.97482" lon="27.35701">
        <ele>6.8</ele>
      </trkpt>
      <trkpt lat="37.97352" lon="27.35779">
        <ele>4</ele>
      </trkpt>
      <trkpt lat="37.97188" lon="27.35841">
        <ele>4.8</ele>
      </trkpt>
      <trkpt lat="37.97098" lon="27.35876">
        <ele>4.8</ele>
      </trkpt>
      <trkpt lat="37.97069" lon="27.35904">
        <ele>4.8</ele>
      </trkpt>
      <trkpt lat="37.97015" lon="27.3593">
        <ele>4.3</ele>
      </trkpt>
      <trkpt lat="37.96716" lon="27.36105">
        <ele>3.3</ele>
      </trkpt>
      <trkpt lat="37.96506" lon="27.36168">
        <ele>6.9</ele>
      </trkpt>
      <trkpt lat="37.96482" lon="27.36336">
        <ele>6.8</ele>
      </trkpt>
      <trkpt lat="37.96485" lon="27.36589">
        <ele>7.7</ele>
      </trkpt>
      <trkpt lat="37.96397" lon="27.36829">
        <ele>8.3</ele>
      </trkpt>
      <trkpt lat="37.96299" lon="27.36936">
        <ele>8.6</ele>
      </trkpt>
      <trkpt lat="37.96083" lon="27.37202">
        <ele>15.5</ele>
      </trkpt>
      <trkpt lat="37.96" lon="27.37236">
        <ele>12.8</ele>
      </trkpt>
      <trkpt lat="37.95523" lon="27.37154">
        <ele>15.8</ele>
      </trkpt>
      <trkpt lat="37.95317" lon="27.37112">
        <ele>16.6</ele>
      </trkpt>
      <trkpt lat="37.94801" lon="27.36833">
        <ele>15.2</ele>
      </trkpt>
      <trkpt lat="37.9343" lon="27.36208">
        <ele>21</ele>
      </trkpt>
      <trkpt lat="37.92726" lon="27.36173">
        <ele>31.4</ele>
      </trkpt>
      <trkpt lat="37.91678" lon="27.36351">
        <ele>61.2</ele>
      </trkpt>
      <trkpt lat="37.906" lon="27.36546">
        <ele>115.7</ele>
      </trkpt>
      <trkpt lat="37.90271" lon="27.36676">
        <ele>128.2</ele>
      </trkpt>
      <trkpt lat="37.89851" lon="27.36858">
        <ele>159.3</ele>
      </trkpt>
      <trkpt lat="37.89614" lon="27.36845">
        <ele>171.4</ele>
      </trkpt>
      <trkpt lat="37.89399" lon="27.36663">
        <ele>185.5</ele>
      </trkpt>
      <trkpt lat="37.89163" lon="27.36702">
        <ele>210.7</ele>
      </trkpt>
      <trkpt lat="37.88988" lon="27.36676">
        <ele>223.5</ele>
      </trkpt>
      <trkpt lat="37.8884" lon="27.3679">
        <ele>237.3</ele>
      </trkpt>
      <trkpt lat="37.88829" lon="27.36998">
        <ele>252.9</ele>
      </trkpt>
      <trkpt lat="37.88871" lon="27.37376">
        <ele>278.5</ele>
      </trkpt>
      <trkpt lat="37.88727" lon="27.37847">
        <ele>249.5</ele>
      </trkpt>
      <trkpt lat="37.88378" lon="27.38498">
        <ele>223.7</ele>
      </trkpt>
      <trkpt lat="37.88316" lon="27.3881">
        <ele>220.3</ele>
      </trkpt>
      <trkpt lat="37.88306" lon="27.39382">
        <ele>215.2</ele>
      </trkpt>
      <trkpt lat="37.88337" lon="27.40891">
        <ele>266.3</ele>
      </trkpt>
      <trkpt lat="37.88296" lon="27.41633">
        <ele>221.6</ele>
      </trkpt>
      <trkpt lat="37.88091" lon="27.42088">
        <ele>199.5</ele>
      </trkpt>
      <trkpt lat="37.87927" lon="27.42612">
        <ele>171</ele>
      </trkpt>
      <trkpt lat="37.88245" lon="27.43224">
        <ele>150.6</ele>
      </trkpt>
      <trkpt lat="37.88214" lon="27.43497">
        <ele>145.6</ele>
      </trkpt>
      <trkpt lat="37.88379" lon="27.43809">
        <ele>141.7</ele>
      </trkpt>
      <trkpt lat="37.88851" lon="27.44798">
        <ele>137</ele>
      </trkpt>
      <trkpt lat="37.89097" lon="27.44993">
        <ele>146.5</ele>
      </trkpt>
      <trkpt lat="37.8918" lon="27.45357">
        <ele>129.7</ele>
      </trkpt>
      <trkpt lat="37.89467" lon="27.45747">
        <ele>147.3</ele>
      </trkpt>
      <trkpt lat="37.89457" lon="27.45995">
        <ele>137.2</ele>
      </trkpt>
      <trkpt lat="37.89397" lon="27.4621">
        <ele>129.1</ele>
      </trkpt>
      <trkpt lat="37.89459" lon="27.46678">
        <ele>117.2</ele>
      </trkpt>
      <trkpt lat="37.89449" lon="27.46978">
        <ele>112.6</ele>
      </trkpt>
      <trkpt lat="37.89592" lon="27.47641">
        <ele>96.5</ele>
      </trkpt>
      <trkpt lat="37.89469" lon="27.47979">
        <ele>81.8</ele>
      </trkpt>
      <trkpt lat="37.88473" lon="27.49723">
        <ele>57.6</ele>
      </trkpt>
      <trkpt lat="37.88322" lon="27.50523">
        <ele>55.2</ele>
      </trkpt>
      <trkpt lat="37.88091" lon="27.50551">
        <ele>53.7</ele>
      </trkpt>
      <trkpt lat="37.87853" lon="27.50606">
        <ele>48</ele>
      </trkpt>
      <trkpt lat="37.87573" lon="27.50829">
        <ele>43.2</ele>
      </trkpt>
      <trkpt lat="37.87056" lon="27.51281">
        <ele>36.8</ele>
      </trkpt>
      <trkpt lat="37.85794" lon="27.52186">
        <ele>32.8</ele>
      </trkpt>
      <trkpt lat="37.85651" lon="27.52283">
        <ele>31.6</ele>
      </trkpt>
      <trkpt lat="37.85502" lon="27.52465">
        <ele>31</ele>
      </trkpt>
      <trkpt lat="37.85326" lon="27.52848">
        <ele>32.8</ele>
      </trkpt>
      <trkpt lat="37.85354" lon="27.53004">
        <ele>27.6</ele>
      </trkpt>
      <trkpt lat="37.85404" lon="27.53241">
        <ele>31</ele>
      </trkpt>
      <trkpt lat="37.85481" lon="27.53318">
        <ele>32.6</ele>
      </trkpt>
      <trkpt lat="37.85613" lon="27.53269">
        <ele>32.1</ele>
      </trkpt>
      <trkpt lat="37.85437" lon="27.53394">
        <ele>31.5</ele>
      </trkpt>
      <trkpt lat="37.85409" lon="27.53799">
        <ele>34</ele>
      </trkpt>
      <trkpt lat="37.8532" lon="27.53895">
        <ele>34.8</ele>
      </trkpt>
      <trkpt lat="37.85311" lon="27.53951">
        <ele>36.2</ele>
      </trkpt>
      <trkpt lat="37.85335" lon="27.54022">
        <ele>39.5</ele>
      </trkpt>
      <trkpt lat="37.85302" lon="27.54224">
        <ele>43.5</ele>
      </trkpt>
      <trkpt lat="37.85219" lon="27.54438">
        <ele>64.3</ele>
      </trkpt>
      <trkpt lat="37.85224" lon="27.54496">
        <ele>68.1</ele>
      </trkpt>
      <trkpt lat="37.85243" lon="27.54546">
        <ele>68.7</ele>
      </trkpt>
      <trkpt lat="37.85246" lon="27.54606">
        <ele>68.6</ele>
      </trkpt>
      <trkpt lat="37.85226" lon="27.54698">
        <ele>68.3</ele>
      </trkpt>
      <trkpt lat="37.85197" lon="27.5475">
        <ele>69.3</ele>
      </trkpt>
      <trkpt lat="37.85202" lon="27.54828">
        <ele>73.7</ele>
      </trkpt>
      <trkpt lat="37.85208" lon="27.5489">
        <ele>78.5</ele>
      </trkpt>
      <trkpt lat="37.85177" lon="27.54979">
        <ele>84.9</ele>
      </trkpt>
      <trkpt lat="37.85124" lon="27.55036">
        <ele>91</ele>
      </trkpt>
      <trkpt lat="37.85081" lon="27.55078">
        <ele>96</ele>
      </trkpt>
      <trkpt lat="37.85084" lon="27.5521">
        <ele>98.5</ele>
      </trkpt>
      <trkpt lat="37.85084" lon="27.5535">
        <ele>103.6</ele>
      </trkpt>
      <trkpt lat="37.85064" lon="27.55518">
        <ele>111.5</ele>
      </trkpt>
      <trkpt lat="37.85092" lon="27.55644">
        <ele>103.2</ele>
      </trkpt>
      <trkpt lat="37.85099" lon="27.557">
        <ele>101.2</ele>
      </trkpt>
      <trkpt lat="37.85129" lon="27.55756">
        <ele>96.6</ele>
      </trkpt>
      <trkpt lat="37.85114" lon="27.55826">
        <ele>94.9</ele>
      </trkpt>
      <trkpt lat="37.85092" lon="27.5586">
        <ele>95.2</ele>
      </trkpt>
      <trkpt lat="37.85056" lon="27.56018">
        <ele>86</ele>
      </trkpt>
      <trkpt lat="37.85057" lon="27.56068">
        <ele>82.4</ele>
      </trkpt>
      <trkpt lat="37.85021" lon="27.56168">
        <ele>80.3</ele>
      </trkpt>
      <trkpt lat="37.85067" lon="27.5628">
        <ele>85.2</ele>
      </trkpt>
      <trkpt lat="37.85079" lon="27.56488">
        <ele>69.6</ele>
      </trkpt>
      <trkpt lat="37.85058" lon="27.566">
        <ele>65.4</ele>
      </trkpt>
      <trkpt lat="37.85063" lon="27.5666">
        <ele>63.6</ele>
      </trkpt>
      <trkpt lat="37.85036" lon="27.56778">
        <ele>62.3</ele>
      </trkpt>
      <trkpt lat="37.84827" lon="27.56836">
        <ele>75.9</ele>
      </trkpt>
      <trkpt lat="37.84772" lon="27.56919">
        <ele>79.5</ele>
      </trkpt>
      <trkpt lat="37.84706" lon="27.56934">
        <ele>80.5</ele>
      </trkpt>
      <trkpt lat="37.84652" lon="27.57023">
        <ele>74.6</ele>
      </trkpt>
      <trkpt lat="37.84544" lon="27.57075">
        <ele>65.4</ele>
      </trkpt>
      <trkpt lat="37.84351" lon="27.57063">
        <ele>56.7</ele>
      </trkpt>
      <trkpt lat="37.84278" lon="27.57011">
        <ele>52.6</ele>
      </trkpt>
      <trkpt lat="37.84022" lon="27.56963">
        <ele>45.6</ele>
      </trkpt>
      <trkpt lat="37.8388" lon="27.56902">
        <ele>46.5</ele>
      </trkpt>
      <trkpt lat="37.83692" lon="27.56915">
        <ele>35</ele>
      </trkpt>
      <trkpt lat="37.83493" lon="27.56855">
        <ele>31.7</ele>
      </trkpt>
      <trkpt lat="37.83388" lon="27.56839">
        <ele>30.3</ele>
      </trkpt>
      <trkpt lat="37.83248" lon="27.56864">
        <ele>25.3</ele>
      </trkpt>
      <trkpt lat="37.83134" lon="27.5694">
        <ele>23.6</ele>
      </trkpt>
      <trkpt lat="37.8303" lon="27.57068">
        <ele>23.5</ele>
      </trkpt>
      <trkpt lat="37.82992" lon="27.57232">
        <ele>21.1</ele>
      </trkpt>
      <trkpt lat="37.82979" lon="27.5746">
        <ele>19.7</ele>
      </trkpt>
      <trkpt lat="37.82998" lon="27.57749">
        <ele>19.1</ele>
      </trkpt>
      <trkpt lat="37.83008" lon="27.58093">
        <ele>21.3</ele>
      </trkpt>
      <trkpt lat="37.82929" lon="27.58337">
        <ele>19.3</ele>
      </trkpt>
      <trkpt lat="37.82897" lon="27.58641">
        <ele>21.7</ele>
      </trkpt>
      <trkpt lat="37.82787" lon="27.58637">
        <ele>21.1</ele>
      </trkpt>
      <trkpt lat="37.82736" lon="27.58702">
        <ele>20.4</ele>
      </trkpt>
      <trkpt lat="37.826" lon="27.58712">
        <ele>20</ele>
      </trkpt>
      <trkpt lat="37.81362" lon="27.58678">
        <ele>16.3</ele>
      </trkpt>
      <trkpt lat="37.81234" lon="27.58737">
        <ele>16.2</ele>
      </trkpt>
      <trkpt lat="37.81191" lon="27.58896">
        <ele>16.2</ele>
      </trkpt>
      <trkpt lat="37.80826" lon="27.59046">
        <ele>16.4</ele>
      </trkpt>
      <trkpt lat="37.80703" lon="27.58798">
        <ele>17.2</ele>
      </trkpt>
      <trkpt lat="37.80613" lon="27.58758">
        <ele>16.6</ele>
      </trkpt>
      <trkpt lat="37.8051" lon="27.58767">
        <ele>16.9</ele>
      </trkpt>
      <trkpt lat="37.80363" lon="27.58834">
        <ele>15.3</ele>
      </trkpt>
      <trkpt lat="37.79865" lon="27.59071">
        <ele>16.5</ele>
      </trkpt>
      <trkpt lat="37.79712" lon="27.59164">
        <ele>18</ele>
      </trkpt>
      <trkpt lat="37.79614" lon="27.59252">
        <ele>16.6</ele>
      </trkpt>
      <trkpt lat="37.79421" lon="27.59256">
        <ele>17</ele>
      </trkpt>
      <trkpt lat="37.79204" lon="27.59388">
        <ele>16.2</ele>
      </trkpt>
      <trkpt lat="37.79116" lon="27.59488">
        <ele>16.9</ele>
      </trkpt>
      <trkpt lat="37.78872" lon="27.59589">
        <ele>18</ele>
      </trkpt>
      <trkpt lat="37.78746" lon="27.59669">
        <ele>17</ele>
      </trkpt>
      <trkpt lat="37.78606" lon="27.59521">
        <ele>17</ele>
      </trkpt>
      <trkpt lat="37.78385" lon="27.59392">
        <ele>15.8</ele>
      </trkpt>
      <trkpt lat="37.77931" lon="27.59577">
        <ele>15.2</ele>
      </trkpt>
      <trkpt lat="37.77494" lon="27.59754">
        <ele>16.1</ele>
      </trkpt>
      <trkpt lat="37.77453" lon="27.59806">
        <ele>16.9</ele>
      </trkpt>
      <trkpt lat="37.7715" lon="27.59914">
        <ele>16</ele>
      </trkpt>
      <trkpt lat="37.76884" lon="27.59942">
        <ele>17.4</ele>
      </trkpt>
      <trkpt lat="37.76703" lon="27.60026">
        <ele>22.6</ele>
      </trkpt>
      <trkpt lat="37.76735" lon="27.60102">
        <ele>27.7</ele>
      </trkpt>
      <trkpt lat="37.7682" lon="27.60166">
        <ele>23.6</ele>
      </trkpt>
      <trkpt lat="37.76808" lon="27.60222">
        <ele>36.1</ele>
      </trkpt>
      <trkpt lat="37.76839" lon="27.60294">
        <ele>44</ele>
      </trkpt>
      <trkpt lat="37.76783" lon="27.60278">
        <ele>54.8</ele>
      </trkpt>
      <trkpt lat="37.76738" lon="27.60222">
        <ele>52.2</ele>
      </trkpt>
      <trkpt lat="37.76684" lon="27.60194">
        <ele>52.2</ele>
      </trkpt>
      <trkpt lat="37.76593" lon="27.6025">
        <ele>53.9</ele>
      </trkpt>
      <trkpt lat="37.76634" lon="27.60555">
        <ele>77.6</ele>
      </trkpt>
      <trkpt lat="37.7664" lon="27.60591">
        <ele>79.5</ele>
      </trkpt>
      <trkpt lat="37.76608" lon="27.60671">
        <ele>80.7</ele>
      </trkpt>
      <trkpt lat="37.76558" lon="27.60627">
        <ele>73.9</ele>
      </trkpt>
      <trkpt lat="37.76517" lon="27.60723">
        <ele>80.1</ele>
      </trkpt>
      <trkpt lat="37.76548" lon="27.60791">
        <ele>88.6</ele>
      </trkpt>
      <trkpt lat="37.76529" lon="27.60843">
        <ele>90.6</ele>
      </trkpt>
      <trkpt lat="37.76418" lon="27.60899">
        <ele>100.6</ele>
      </trkpt>
      <trkpt lat="37.76365" lon="27.60847">
        <ele>107.4</ele>
      </trkpt>
      <trkpt lat="37.76298" lon="27.60879">
        <ele>111.2</ele>
      </trkpt>
      <trkpt lat="37.76191" lon="27.6076">
        <ele>125.7</ele>
      </trkpt>
      <trkpt lat="37.7614" lon="27.6078">
        <ele>127.8</ele>
      </trkpt>
      <trkpt lat="37.76039" lon="27.60648">
        <ele>136.8</ele>
      </trkpt>
      <trkpt lat="37.75937" lon="27.60584">
        <ele>140.8</ele>
      </trkpt>
      <trkpt lat="37.75896" lon="27.60488">
        <ele>146.1</ele>
      </trkpt>
      <trkpt lat="37.75871" lon="27.6048">
        <ele>147</ele>
      </trkpt>
      <trkpt lat="37.75779" lon="27.60508">
        <ele>148.3</ele>
      </trkpt>
      <trkpt lat="37.75672" lon="27.60572">
        <ele>150.3</ele>
      </trkpt>
      <trkpt lat="37.75627" lon="27.60544">
        <ele>154.6</ele>
      </trkpt>
      <trkpt lat="37.75548" lon="27.60628">
        <ele>172.4</ele>
      </trkpt>
      <trkpt lat="37.75599" lon="27.60684">
        <ele>162.7</ele>
      </trkpt>
      <trkpt lat="37.75602" lon="27.60756">
        <ele>165.7</ele>
      </trkpt>
      <trkpt lat="37.75523" lon="27.60812">
        <ele>184.3</ele>
      </trkpt>
      <trkpt lat="37.75583" lon="27.60856">
        <ele>172.1</ele>
      </trkpt>
      <trkpt lat="37.75469" lon="27.60989">
        <ele>186.1</ele>
      </trkpt>
      <trkpt lat="37.75435" lon="27.60968">
        <ele>187.5</ele>
      </trkpt>
      <trkpt lat="37.75363" lon="27.60763">
        <ele>205.6</ele>
      </trkpt>
      <trkpt lat="37.75312" lon="27.60759">
        <ele>204.4</ele>
      </trkpt>
      <trkpt lat="37.7516" lon="27.60651">
        <ele>215</ele>
      </trkpt>
      <trkpt lat="37.75121" lon="27.60655">
        <ele>224.9</ele>
      </trkpt>
      <trkpt lat="37.7509" lon="27.60711">
        <ele>231.3</ele>
      </trkpt>
      <trkpt lat="37.75092" lon="27.60756">
        <ele>228.9</ele>
      </trkpt>
      <trkpt lat="37.7505" lon="27.60782">
        <ele>232.7</ele>
      </trkpt>
      <trkpt lat="37.74993" lon="27.60781">
        <ele>239.3</ele>
      </trkpt>
      <trkpt lat="37.74888" lon="27.60663">
        <ele>258.2</ele>
      </trkpt>
      <trkpt lat="37.74863" lon="27.60665">
        <ele>260.5</ele>
      </trkpt>
      <trkpt lat="37.74853" lon="27.60683">
        <ele>260.6</ele>
      </trkpt>
      <trkpt lat="37.74866" lon="27.60719">
        <ele>257</ele>
      </trkpt>
      <trkpt lat="37.749" lon="27.60756">
        <ele>246.8</ele>
      </trkpt>
      <trkpt lat="37.7489" lon="27.60805">
        <ele>246.7</ele>
      </trkpt>
      <trkpt lat="37.7486" lon="27.6082">
        <ele>251</ele>
      </trkpt>
      <trkpt lat="37.74752" lon="27.60797">
        <ele>273.1</ele>
      </trkpt>
      <trkpt lat="37.7472" lon="27.60795">
        <ele>281.4</ele>
      </trkpt>
      <trkpt lat="37.74721" lon="27.60827">
        <ele>279.1</ele>
      </trkpt>
      <trkpt lat="37.74761" lon="27.60896">
        <ele>270.1</ele>
      </trkpt>
      <trkpt lat="37.74755" lon="27.60947">
        <ele>271.6</ele>
      </trkpt>
      <trkpt lat="37.74721" lon="27.60965">
        <ele>279</ele>
      </trkpt>
      <trkpt lat="37.74695" lon="27.60922">
        <ele>286.5</ele>
      </trkpt>
      <trkpt lat="37.74674" lon="27.6093">
        <ele>291</ele>
      </trkpt>
      <trkpt lat="37.74669" lon="27.60977">
        <ele>290.9</ele>
      </trkpt>
      <trkpt lat="37.74684" lon="27.6101">
        <ele>287.2</ele>
      </trkpt>
      <trkpt lat="37.74665" lon="27.61036">
        <ele>292.2</ele>
      </trkpt>
      <trkpt lat="37.7463" lon="27.61042">
        <ele>299.1</ele>
      </trkpt>
      <trkpt lat="37.74625" lon="27.61068">
        <ele>300</ele>
      </trkpt>
      <trkpt lat="37.74649" lon="27.61117">
        <ele>297.2</ele>
      </trkpt>
      <trkpt lat="37.74624" lon="27.6127">
        <ele>291.7</ele>
      </trkpt>
      <trkpt lat="37.74579" lon="27.61335">
        <ele>286.9</ele>
      </trkpt>
      <trkpt lat="37.74522" lon="27.61384">
        <ele>284.5</ele>
      </trkpt>
      <trkpt lat="37.74478" lon="27.61479">
        <ele>282.2</ele>
      </trkpt>
      <trkpt lat="37.74308" lon="27.61526">
        <ele>275.5</ele>
      </trkpt>
      <trkpt lat="37.74268" lon="27.61589">
        <ele>279.1</ele>
      </trkpt>
      <trkpt lat="37.74228" lon="27.61583">
        <ele>278</ele>
      </trkpt>
      <trkpt lat="37.74057" lon="27.61621">
        <ele>276</ele>
      </trkpt>
      <trkpt lat="37.73957" lon="27.61643">
        <ele>281.7</ele>
      </trkpt>
      <trkpt lat="37.73945" lon="27.61714">
        <ele>282.4</ele>
      </trkpt>
      <trkpt lat="37.73942" lon="27.61774">
        <ele>279.8</ele>
      </trkpt>
      <trkpt lat="37.73908" lon="27.61795">
        <ele>282.8</ele>
      </trkpt>
      <trkpt lat="37.73859" lon="27.61821">
        <ele>286.9</ele>
      </trkpt>
      <trkpt lat="37.73802" lon="27.61836">
        <ele>292.5</ele>
      </trkpt>
      <trkpt lat="37.73794" lon="27.61901">
        <ele>287.9</ele>
      </trkpt>
      <trkpt lat="37.73775" lon="27.61918">
        <ele>288.9</ele>
      </trkpt>
      <trkpt lat="37.73747" lon="27.61925">
        <ele>291</ele>
      </trkpt>
      <trkpt lat="37.7371" lon="27.61968">
        <ele>287.8</ele>
      </trkpt>
      <trkpt lat="37.73658" lon="27.62028">
        <ele>293.2</ele>
      </trkpt>
      <trkpt lat="37.73642" lon="27.62118">
        <ele>302.1</ele>
      </trkpt>
      <trkpt lat="37.73706" lon="27.62155">
        <ele>305.9</ele>
      </trkpt>
      <trkpt lat="37.73695" lon="27.62189">
        <ele>310.4</ele>
      </trkpt>
      <trkpt lat="37.73647" lon="27.62308">
        <ele>318.3</ele>
      </trkpt>
      <trkpt lat="37.73665" lon="27.62376">
        <ele>319.6</ele>
      </trkpt>
      <trkpt lat="37.73653" lon="27.62404">
        <ele>320.8</ele>
      </trkpt>
      <trkpt lat="37.73605" lon="27.62492">
        <ele>327.6</ele>
      </trkpt>
      <trkpt lat="37.73577" lon="27.6252">
        <ele>335</ele>
      </trkpt>
      <trkpt lat="37.73534" lon="27.62635">
        <ele>356.5</ele>
      </trkpt>
      <trkpt lat="37.73389" lon="27.62619">
        <ele>379.4</ele>
      </trkpt>
      <trkpt lat="37.73371" lon="27.62662">
        <ele>386.8</ele>
      </trkpt>
      <trkpt lat="37.73386" lon="27.62678">
        <ele>386.6</ele>
      </trkpt>
      <trkpt lat="37.73417" lon="27.62654">
        <ele>377.3</ele>
      </trkpt>
      <trkpt lat="37.73479" lon="27.62688">
        <ele>374.9</ele>
      </trkpt>
      <trkpt lat="37.73529" lon="27.62712">
        <ele>368.2</ele>
      </trkpt>
      <trkpt lat="37.73523" lon="27.62736">
        <ele>373.1</ele>
      </trkpt>
      <trkpt lat="37.73485" lon="27.62761">
        <ele>387.4</ele>
      </trkpt>
      <trkpt lat="37.73481" lon="27.62826">
        <ele>398</ele>
      </trkpt>
      <trkpt lat="37.73482" lon="27.62934">
        <ele>415.7</ele>
      </trkpt>
      <trkpt lat="37.73537" lon="27.62987">
        <ele>411.7</ele>
      </trkpt>
      <trkpt lat="37.73572" lon="27.63095">
        <ele>413.4</ele>
      </trkpt>
      <trkpt lat="37.73535" lon="27.63193">
        <ele>429.9</ele>
      </trkpt>
      <trkpt lat="37.73509" lon="27.63317">
        <ele>433.5</ele>
      </trkpt>
      <trkpt lat="37.73501" lon="27.63418">
        <ele>442.4</ele>
      </trkpt>
      <trkpt lat="37.73534" lon="27.6346">
        <ele>452.2</ele>
      </trkpt>
      <trkpt lat="37.73559" lon="27.63544">
        <ele>460.7</ele>
      </trkpt>
      <trkpt lat="37.73523" lon="27.63554">
        <ele>462.6</ele>
      </trkpt>
      <trkpt lat="37.73498" lon="27.63491">
        <ele>455.6</ele>
      </trkpt>
      <trkpt lat="37.73471" lon="27.63491">
        <ele>458</ele>
      </trkpt>
      <trkpt lat="37.73498" lon="27.63554">
        <ele>463.6</ele>
      </trkpt>
      <trkpt lat="37.73529" lon="27.63672">
        <ele>469.7</ele>
      </trkpt>
      <trkpt lat="37.73474" lon="27.63728">
        <ele>475.8</ele>
      </trkpt>
      <trkpt lat="37.73449" lon="27.63861">
        <ele>481</ele>
      </trkpt>
      <trkpt lat="37.73424" lon="27.63902">
        <ele>487</ele>
      </trkpt>
      <trkpt lat="37.73375" lon="27.63941">
        <ele>499.2</ele>
      </trkpt>
      <trkpt lat="37.7336" lon="27.63959">
        <ele>502.6</ele>
      </trkpt>
      <trkpt lat="37.73379" lon="27.64017">
        <ele>495.2</ele>
      </trkpt>
      <trkpt lat="37.73358" lon="27.64046">
        <ele>498</ele>
      </trkpt>
      <trkpt lat="37.73341" lon="27.64023">
        <ele>504.8</ele>
      </trkpt>
      <trkpt lat="37.73315" lon="27.63976">
        <ele>512.6</ele>
      </trkpt>
      <trkpt lat="37.73315" lon="27.63938">
        <ele>513.4</ele>
      </trkpt>
      <trkpt lat="37.73274" lon="27.63947">
        <ele>521.5</ele>
      </trkpt>
      <trkpt lat="37.73256" lon="27.63948">
        <ele>525</ele>
      </trkpt>
      <trkpt lat="37.73237" lon="27.63935">
        <ele>529.4</ele>
      </trkpt>
      <trkpt lat="37.73196" lon="27.63938">
        <ele>537.4</ele>
      </trkpt>
      <trkpt lat="37.73152" lon="27.63943">
        <ele>543.5</ele>
      </trkpt>
      <trkpt lat="37.73102" lon="27.63973">
        <ele>546.5</ele>
      </trkpt>
      <trkpt lat="37.73073" lon="27.63997">
        <ele>550.5</ele>
      </trkpt>
      <trkpt lat="37.73052" lon="27.64043">
        <ele>552.6</ele>
      </trkpt>
      <trkpt lat="37.73057" lon="27.64084">
        <ele>552.1</ele>
      </trkpt>
      <trkpt lat="37.73012" lon="27.64102">
        <ele>554.2</ele>
      </trkpt>
      <trkpt lat="37.73006" lon="27.64116">
        <ele>553.9</ele>
      </trkpt>
      <trkpt lat="37.72936" lon="27.64153">
        <ele>567.3</ele>
      </trkpt>
      <trkpt lat="37.72906" lon="27.64155">
        <ele>574.5</ele>
      </trkpt>
      <trkpt lat="37.72877" lon="27.64195">
        <ele>581.1</ele>
      </trkpt>
      <trkpt lat="37.72843" lon="27.6421">
        <ele>590.7</ele>
      </trkpt>
      <trkpt lat="37.72829" lon="27.64252">
        <ele>595.2</ele>
      </trkpt>
      <trkpt lat="37.72792" lon="27.64253">
        <ele>601.8</ele>
      </trkpt>
      <trkpt lat="37.72795" lon="27.64291">
        <ele>605.7</ele>
      </trkpt>
      <trkpt lat="37.72783" lon="27.64342">
        <ele>612.3</ele>
      </trkpt>
      <trkpt lat="37.72784" lon="27.64358">
        <ele>613.5</ele>
      </trkpt>
      <trkpt lat="37.72811" lon="27.64413">
        <ele>617.2</ele>
      </trkpt>
      <trkpt lat="37.72825" lon="27.64436">
        <ele>617.8</ele>
      </trkpt>
      <trkpt lat="37.72827" lon="27.645">
        <ele>619.9</ele>
      </trkpt>
      <trkpt lat="37.72845" lon="27.64569">
        <ele>620.3</ele>
      </trkpt>
      <trkpt lat="37.72828" lon="27.64621">
        <ele>627.6</ele>
      </trkpt>
      <trkpt lat="37.72828" lon="27.64655">
        <ele>631.9</ele>
      </trkpt>
      <trkpt lat="37.72841" lon="27.64696">
        <ele>635.9</ele>
      </trkpt>
      <trkpt lat="37.72868" lon="27.64733">
        <ele>634.2</ele>
      </trkpt>
      <trkpt lat="37.72869" lon="27.64762">
        <ele>634.1</ele>
      </trkpt>
      <trkpt lat="37.72861" lon="27.64789">
        <ele>633.8</ele>
      </trkpt>
      <trkpt lat="37.72847" lon="27.64804">
        <ele>636.1</ele>
      </trkpt>
      <trkpt lat="37.72831" lon="27.64812">
        <ele>639.4</ele>
      </trkpt>
      <trkpt lat="37.72782" lon="27.64812">
        <ele>645.4</ele>
      </trkpt>
      <trkpt lat="37.72766" lon="27.64816">
        <ele>647.1</ele>
      </trkpt>
      <trkpt lat="37.72744" lon="27.64847">
        <ele>647.3</ele>
      </trkpt>
      <trkpt lat="37.72731" lon="27.64886">
        <ele>644.9</ele>
      </trkpt>
      <trkpt lat="37.72709" lon="27.6491">
        <ele>644.2</ele>
      </trkpt>
      <trkpt lat="37.72675" lon="27.64923">
        <ele>645.9</ele>
      </trkpt>
      <trkpt lat="37.72649" lon="27.64957">
        <ele>643</ele>
      </trkpt>
      <trkpt lat="37.72634" lon="27.64986">
        <ele>641.3</ele>
      </trkpt>
      <trkpt lat="37.72629" lon="27.65012">
        <ele>642.7</ele>
      </trkpt>
      <trkpt lat="37.72644" lon="27.65052">
        <ele>648.6</ele>
      </trkpt>
      <trkpt lat="37.72665" lon="27.65193">
        <ele>658.6</ele>
      </trkpt>
      <trkpt lat="37.72698" lon="27.65296">
        <ele>658.1</ele>
      </trkpt>
      <trkpt lat="37.72731" lon="27.65381">
        <ele>659.4</ele>
      </trkpt>
      <trkpt lat="37.72728" lon="27.65423">
        <ele>661.6</ele>
      </trkpt>
      <trkpt lat="37.72718" lon="27.65461">
        <ele>665.7</ele>
      </trkpt>
      <trkpt lat="37.72711" lon="27.65519">
        <ele>670.8</ele>
      </trkpt>
      <trkpt lat="37.72701" lon="27.65556">
        <ele>672.8</ele>
      </trkpt>
      <trkpt lat="37.72666" lon="27.65628">
        <ele>678.4</ele>
      </trkpt>
      <trkpt lat="37.72628" lon="27.65746">
        <ele>670.6</ele>
      </trkpt>
      <trkpt lat="37.72624" lon="27.6579">
        <ele>672</ele>
      </trkpt>
      <trkpt lat="37.72623" lon="27.65837">
        <ele>673.9</ele>
      </trkpt>
      <trkpt lat="37.72598" lon="27.65875">
        <ele>679</ele>
      </trkpt>
      <trkpt lat="37.72567" lon="27.65899">
        <ele>682.1</ele>
      </trkpt>
      <trkpt lat="37.72554" lon="27.65931">
        <ele>683.6</ele>
      </trkpt>
      <trkpt lat="37.72556" lon="27.65959">
        <ele>685.4</ele>
      </trkpt>
      <trkpt lat="37.72561" lon="27.65984">
        <ele>686.7</ele>
      </trkpt>
      <trkpt lat="37.72559" lon="27.66009">
        <ele>688</ele>
      </trkpt>
      <trkpt lat="37.72552" lon="27.6603">
        <ele>689.4</ele>
      </trkpt>
      <trkpt lat="37.72531" lon="27.66076">
        <ele>693.3</ele>
      </trkpt>
      <trkpt lat="37.72508" lon="27.66102">
        <ele>695.4</ele>
      </trkpt>
      <trkpt lat="37.72458" lon="27.66141">
        <ele>700.5</ele>
      </trkpt>
      <trkpt lat="37.72436" lon="27.66152">
        <ele>703.7</ele>
      </trkpt>
      <trkpt lat="37.72413" lon="27.66155">
        <ele>707.2</ele>
      </trkpt>
      <trkpt lat="37.72349" lon="27.66185">
        <ele>719.4</ele>
      </trkpt>
      <trkpt lat="37.72324" lon="27.66198">
        <ele>724.6</ele>
      </trkpt>
      <trkpt lat="37.72309" lon="27.66212">
        <ele>729</ele>
      </trkpt>
      <trkpt lat="37.72296" lon="27.66237">
        <ele>732.6</ele>
      </trkpt>
      <trkpt lat="37.7229" lon="27.66279">
        <ele>738.2</ele>
      </trkpt>
      <trkpt lat="37.72293" lon="27.66303">
        <ele>740.8</ele>
      </trkpt>
      <trkpt lat="37.72287" lon="27.66334">
        <ele>746.2</ele>
      </trkpt>
      <trkpt lat="37.72281" lon="27.66371">
        <ele>751.5</ele>
      </trkpt>
      <trkpt lat="37.72286" lon="27.66403">
        <ele>754</ele>
      </trkpt>
      <trkpt lat="37.72287" lon="27.66426">
        <ele>756.1</ele>
      </trkpt>
      <trkpt lat="37.72281" lon="27.66439">
        <ele>758.1</ele>
      </trkpt>
      <trkpt lat="37.72239" lon="27.66462">
        <ele>765.8</ele>
      </trkpt>
      <trkpt lat="37.7223" lon="27.66491">
        <ele>767.5</ele>
      </trkpt>
      <trkpt lat="37.72231" lon="27.66519">
        <ele>770.3</ele>
      </trkpt>
      <trkpt lat="37.72242" lon="27.66629">
        <ele>782</ele>
      </trkpt>
      <trkpt lat="37.7224" lon="27.66648">
        <ele>783.8</ele>
      </trkpt>
      <trkpt lat="37.72229" lon="27.66677">
        <ele>786.1</ele>
      </trkpt>
      <trkpt lat="37.72217" lon="27.66695">
        <ele>787.1</ele>
      </trkpt>
      <trkpt lat="37.72201" lon="27.66712">
        <ele>788.8</ele>
      </trkpt>
      <trkpt lat="37.72165" lon="27.66725">
        <ele>792.5</ele>
      </trkpt>
      <trkpt lat="37.72087" lon="27.66753">
        <ele>800.3</ele>
      </trkpt>
      <trkpt lat="37.72056" lon="27.66761">
        <ele>802.3</ele>
      </trkpt>
      <trkpt lat="37.72019" lon="27.66762">
        <ele>805.8</ele>
      </trkpt>
      <trkpt lat="37.71995" lon="27.66759">
        <ele>807.1</ele>
      </trkpt>
      <trkpt lat="37.71972" lon="27.66775">
        <ele>804.5</ele>
      </trkpt>
      <trkpt lat="37.71951" lon="27.66804">
        <ele>803.3</ele>
      </trkpt>
      <trkpt lat="37.71865" lon="27.66838">
        <ele>794.9</ele>
      </trkpt>
      <trkpt lat="37.71829" lon="27.66866">
        <ele>792.2</ele>
      </trkpt>
      <trkpt lat="37.71804" lon="27.66877">
        <ele>794.6</ele>
      </trkpt>
      <trkpt lat="37.71776" lon="27.66879">
        <ele>796.8</ele>
      </trkpt>
      <trkpt lat="37.71636" lon="27.66849">
        <ele>804.2</ele>
      </trkpt>
      <trkpt lat="37.71595" lon="27.66854">
        <ele>806.6</ele>
      </trkpt>
      <trkpt lat="37.7147" lon="27.66821">
        <ele>810.8</ele>
      </trkpt>
      <trkpt lat="37.7137" lon="27.6682">
        <ele>810.3</ele>
      </trkpt>
      <trkpt lat="37.71356" lon="27.66824">
        <ele>809.9</ele>
      </trkpt>
      <trkpt lat="37.71347" lon="27.66829">
        <ele>810.2</ele>
      </trkpt>
      <trkpt lat="37.7133" lon="27.66863">
        <ele>813.4</ele>
      </trkpt>
      <trkpt lat="37.71317" lon="27.66884">
        <ele>812.5</ele>
      </trkpt>
      <trkpt lat="37.71286" lon="27.66947">
        <ele>813.2</ele>
      </trkpt>
      <trkpt lat="37.71266" lon="27.66963">
        <ele>811.1</ele>
      </trkpt>
      <trkpt lat="37.71236" lon="27.66971">
        <ele>809.2</ele>
      </trkpt>
      <trkpt lat="37.71211" lon="27.66965">
        <ele>808.3</ele>
      </trkpt>
      <trkpt lat="37.71174" lon="27.66963">
        <ele>808.4</ele>
      </trkpt>
      <trkpt lat="37.71142" lon="27.66973">
        <ele>807.9</ele>
      </trkpt>
      <trkpt lat="37.71092" lon="27.67025">
        <ele>808.5</ele>
      </trkpt>
      <trkpt lat="37.71051" lon="27.67056">
        <ele>808</ele>
      </trkpt>
      <trkpt lat="37.7101" lon="27.67076">
        <ele>807.2</ele>
      </trkpt>
      <trkpt lat="37.70969" lon="27.67084">
        <ele>805.9</ele>
      </trkpt>
      <trkpt lat="37.70925" lon="27.67101">
        <ele>804.3</ele>
      </trkpt>
      <trkpt lat="37.70895" lon="27.67114">
        <ele>804.6</ele>
      </trkpt>
      <trkpt lat="37.70878" lon="27.67113">
        <ele>805.1</ele>
      </trkpt>
      <trkpt lat="37.70831" lon="27.6718">
        <ele>806.8</ele>
      </trkpt>
      <trkpt lat="37.70814" lon="27.67233">
        <ele>807.1</ele>
      </trkpt>
      <trkpt lat="37.70729" lon="27.67384">
        <ele>814.3</ele>
      </trkpt>
      <trkpt lat="37.70687" lon="27.67446">
        <ele>811.6</ele>
      </trkpt>
      <trkpt lat="37.70655" lon="27.6757">
        <ele>812.6</ele>
      </trkpt>
      <trkpt lat="37.7062" lon="27.67582">
        <ele>812.1</ele>
      </trkpt>
      <trkpt lat="37.70596" lon="27.67639">
        <ele>817.5</ele>
      </trkpt>
      <trkpt lat="37.70462" lon="27.67692">
        <ele>833.2</ele>
      </trkpt>
      <trkpt lat="37.70413" lon="27.67782">
        <ele>844.7</ele>
      </trkpt>
      <trkpt lat="37.70341" lon="27.67864">
        <ele>860.6</ele>
      </trkpt>
      <trkpt lat="37.70343" lon="27.67965">
        <ele>857.2</ele>
      </trkpt>
      <trkpt lat="37.70308" lon="27.68025">
        <ele>861.1</ele>
      </trkpt>
      <trkpt lat="37.70299" lon="27.68137">
        <ele>858.6</ele>
      </trkpt>
      <trkpt lat="37.70279" lon="27.68239">
        <ele>856.9</ele>
      </trkpt>
      <trkpt lat="37.70214" lon="27.6842">
        <ele>846.1</ele>
      </trkpt>
      <trkpt lat="37.70188" lon="27.68468">
        <ele>839</ele>
      </trkpt>
      <trkpt lat="37.70197" lon="27.68588">
        <ele>836.6</ele>
      </trkpt>
      <trkpt lat="37.70133" lon="27.68671">
        <ele>841</ele>
      </trkpt>
      <trkpt lat="37.7002" lon="27.68851">
        <ele>828.1</ele>
      </trkpt>
      <trkpt lat="37.69886" lon="27.69009">
        <ele>818.5</ele>
      </trkpt>
      <trkpt lat="37.69802" lon="27.68998">
        <ele>817.2</ele>
      </trkpt>
      <trkpt lat="37.69664" lon="27.69008">
        <ele>817.1</ele>
      </trkpt>
      <trkpt lat="37.69538" lon="27.69068">
        <ele>819.3</ele>
      </trkpt>
      <trkpt lat="37.695" lon="27.69107">
        <ele>816.1</ele>
      </trkpt>
      <trkpt lat="37.69396" lon="27.69105">
        <ele>808.4</ele>
      </trkpt>
      <trkpt lat="37.69371" lon="27.69119">
        <ele>807.6</ele>
      </trkpt>
      <trkpt lat="37.69307" lon="27.69091">
        <ele>803.4</ele>
      </trkpt>
      <trkpt lat="37.69372" lon="27.69209">
        <ele>808.2</ele>
      </trkpt>
      <trkpt lat="37.6947" lon="27.69281">
        <ele>810.5</ele>
      </trkpt>
      <trkpt lat="37.69432" lon="27.69317">
        <ele>811.2</ele>
      </trkpt>
      <trkpt lat="37.69343" lon="27.69464">
        <ele>818.8</ele>
      </trkpt>
      <trkpt lat="37.69304" lon="27.69494">
        <ele>818.7</ele>
      </trkpt>
      <trkpt lat="37.69274" lon="27.69495">
        <ele>817.8</ele>
      </trkpt>
      <trkpt lat="37.69174" lon="27.69477">
        <ele>815.9</ele>
      </trkpt>
      <trkpt lat="37.69048" lon="27.69518">
        <ele>815.8</ele>
      </trkpt>
      <trkpt lat="37.68972" lon="27.69495">
        <ele>812.8</ele>
      </trkpt>
      <trkpt lat="37.68732" lon="27.69247">
        <ele>804.6</ele>
      </trkpt>
      <trkpt lat="37.68682" lon="27.69195">
        <ele>803.2</ele>
      </trkpt>
      <trkpt lat="37.6858" lon="27.69227">
        <ele>801</ele>
      </trkpt>
      <trkpt lat="37.68459" lon="27.69264">
        <ele>798.2</ele>
      </trkpt>
      <trkpt lat="37.68323" lon="27.69473">
        <ele>792.2</ele>
      </trkpt>
      <trkpt lat="37.68175" lon="27.69574">
        <ele>791.1</ele>
      </trkpt>
      <trkpt lat="37.68096" lon="27.69591">
        <ele>788</ele>
      </trkpt>
      <trkpt lat="37.67998" lon="27.69684">
        <ele>784.6</ele>
      </trkpt>
      <trkpt lat="37.68016" lon="27.69811">
        <ele>781.5</ele>
      </trkpt>
      <trkpt lat="37.67871" lon="27.69965">
        <ele>770.5</ele>
      </trkpt>
      <trkpt lat="37.6771" lon="27.69981">
        <ele>779.6</ele>
      </trkpt>
      <trkpt lat="37.67544" lon="27.70041">
        <ele>793.7</ele>
      </trkpt>
      <trkpt lat="37.6747" lon="27.7003">
        <ele>788.1</ele>
      </trkpt>
      <trkpt lat="37.67387" lon="27.70116">
        <ele>778.4</ele>
      </trkpt>
      <trkpt lat="37.67443" lon="27.70243">
        <ele>780.2</ele>
      </trkpt>
      <trkpt lat="37.67472" lon="27.70382">
        <ele>772</ele>
      </trkpt>
      <trkpt lat="37.67465" lon="27.70414">
        <ele>768.4</ele>
      </trkpt>
      <trkpt lat="37.67435" lon="27.70445">
        <ele>763.5</ele>
      </trkpt>
      <trkpt lat="37.67444" lon="27.70487">
        <ele>762</ele>
      </trkpt>
      <trkpt lat="37.67471" lon="27.70508">
        <ele>762.2</ele>
      </trkpt>
      <trkpt lat="37.67535" lon="27.70512">
        <ele>760.7</ele>
      </trkpt>
      <trkpt lat="37.67574" lon="27.70543">
        <ele>756.3</ele>
      </trkpt>
      <trkpt lat="37.67574" lon="27.70605">
        <ele>756.5</ele>
      </trkpt>
      <trkpt lat="37.67533" lon="27.70672">
        <ele>752</ele>
      </trkpt>
      <trkpt lat="37.67501" lon="27.70756">
        <ele>748</ele>
      </trkpt>
      <trkpt lat="37.67436" lon="27.70804">
        <ele>743.1</ele>
      </trkpt>
      <trkpt lat="37.67374" lon="27.70812">
        <ele>743.6</ele>
      </trkpt>
      <trkpt lat="37.67316" lon="27.7081">
        <ele>743.1</ele>
      </trkpt>
      <trkpt lat="37.67192" lon="27.70861">
        <ele>738.6</ele>
      </trkpt>
      <trkpt lat="37.67143" lon="27.70835">
        <ele>742.9</ele>
      </trkpt>
      <trkpt lat="37.67084" lon="27.70865">
        <ele>737.5</ele>
      </trkpt>
      <trkpt lat="37.66982" lon="27.70866">
        <ele>732.1</ele>
      </trkpt>
      <trkpt lat="37.66948" lon="27.70914">
        <ele>730.2</ele>
      </trkpt>
      <trkpt lat="37.66897" lon="27.71059">
        <ele>728.7</ele>
      </trkpt>
      <trkpt lat="37.66873" lon="27.71216">
        <ele>729.7</ele>
      </trkpt>
      <trkpt lat="37.66767" lon="27.71312">
        <ele>717.4</ele>
      </trkpt>
      <trkpt lat="37.66771" lon="27.7134">
        <ele>716.8</ele>
      </trkpt>
      <trkpt lat="37.66889" lon="27.71384">
        <ele>720</ele>
      </trkpt>
      <trkpt lat="37.66897" lon="27.71418">
        <ele>716.2</ele>
      </trkpt>
      <trkpt lat="37.66837" lon="27.71471">
        <ele>708.9</ele>
      </trkpt>
      <trkpt lat="37.66802" lon="27.71508">
        <ele>702.3</ele>
      </trkpt>
      <trkpt lat="37.66791" lon="27.71538">
        <ele>704.5</ele>
      </trkpt>
      <trkpt lat="37.66715" lon="27.71543">
        <ele>699.7</ele>
      </trkpt>
      <trkpt lat="37.66665" lon="27.71557">
        <ele>700</ele>
      </trkpt>
      <trkpt lat="37.66583" lon="27.71536">
        <ele>689.6</ele>
      </trkpt>
      <trkpt lat="37.66444" lon="27.7158">
        <ele>681.8</ele>
      </trkpt>
      <trkpt lat="37.66401" lon="27.71661">
        <ele>686.1</ele>
      </trkpt>
      <trkpt lat="37.66339" lon="27.71686">
        <ele>677.4</ele>
      </trkpt>
      <trkpt lat="37.6629" lon="27.71691">
        <ele>668.6</ele>
      </trkpt>
      <trkpt lat="37.66239" lon="27.71741">
        <ele>665.1</ele>
      </trkpt>
      <trkpt lat="37.66217" lon="27.71824">
        <ele>659.6</ele>
      </trkpt>
      <trkpt lat="37.66266" lon="27.71891">
        <ele>668.7</ele>
      </trkpt>
      <trkpt lat="37.66259" lon="27.7193">
        <ele>664.1</ele>
      </trkpt>
      <trkpt lat="37.66186" lon="27.72008">
        <ele>645.9</ele>
      </trkpt>
      <trkpt lat="37.6617" lon="27.72079">
        <ele>645.5</ele>
      </trkpt>
      <trkpt lat="37.66202" lon="27.72167">
        <ele>646.6</ele>
      </trkpt>
      <trkpt lat="37.66177" lon="27.72275">
        <ele>640.6</ele>
      </trkpt>
      <trkpt lat="37.66077" lon="27.72293">
        <ele>622.8</ele>
      </trkpt>
      <trkpt lat="37.66049" lon="27.72328">
        <ele>619.7</ele>
      </trkpt>
      <trkpt lat="37.66069" lon="27.72374">
        <ele>620.1</ele>
      </trkpt>
      <trkpt lat="37.66114" lon="27.72417">
        <ele>626.7</ele>
      </trkpt>
      <trkpt lat="37.66134" lon="27.72486">
        <ele>620</ele>
      </trkpt>
      <trkpt lat="37.66209" lon="27.7256">
        <ele>622.7</ele>
      </trkpt>
      <trkpt lat="37.66231" lon="27.72601">
        <ele>622.2</ele>
      </trkpt>
      <trkpt lat="37.66256" lon="27.72606">
        <ele>624.3</ele>
      </trkpt>
      <trkpt lat="37.66247" lon="27.7265">
        <ele>623.9</ele>
      </trkpt>
      <trkpt lat="37.66167" lon="27.72627">
        <ele>622.8</ele>
      </trkpt>
      <trkpt lat="37.66136" lon="27.72594">
        <ele>615.8</ele>
      </trkpt>
      <trkpt lat="37.66042" lon="27.72555">
        <ele>604.5</ele>
      </trkpt>
      <trkpt lat="37.65958" lon="27.72539">
        <ele>592.1</ele>
      </trkpt>
      <trkpt lat="37.65938" lon="27.72532">
        <ele>588.7</ele>
      </trkpt>
      <trkpt lat="37.65901" lon="27.72547">
        <ele>585.5</ele>
      </trkpt>
      <trkpt lat="37.65852" lon="27.72636">
        <ele>581.9</ele>
      </trkpt>
      <trkpt lat="37.65827" lon="27.72715">
        <ele>582.3</ele>
      </trkpt>
      <trkpt lat="37.65765" lon="27.72761">
        <ele>579.7</ele>
      </trkpt>
      <trkpt lat="37.65736" lon="27.72848">
        <ele>580.9</ele>
      </trkpt>
      <trkpt lat="37.65701" lon="27.72889">
        <ele>582.3</ele>
      </trkpt>
      <trkpt lat="37.65674" lon="27.72908">
        <ele>582.3</ele>
      </trkpt>
      <trkpt lat="37.65626" lon="27.72885">
        <ele>577.2</ele>
      </trkpt>
      <trkpt lat="37.65524" lon="27.72871">
        <ele>573.4</ele>
      </trkpt>
      <trkpt lat="37.65461" lon="27.72873">
        <ele>572.1</ele>
      </trkpt>
      <trkpt lat="37.65439" lon="27.72818">
        <ele>564.3</ele>
      </trkpt>
      <trkpt lat="37.6542" lon="27.72806">
        <ele>561.9</ele>
      </trkpt>
      <trkpt lat="37.65356" lon="27.72848">
        <ele>569.1</ele>
      </trkpt>
      <trkpt lat="37.65269" lon="27.72805">
        <ele>562.7</ele>
      </trkpt>
      <trkpt lat="37.65228" lon="27.72834">
        <ele>566.2</ele>
      </trkpt>
      <trkpt lat="37.65197" lon="27.72877">
        <ele>567.8</ele>
      </trkpt>
      <trkpt lat="37.65143" lon="27.72888">
        <ele>565.9</ele>
      </trkpt>
      <trkpt lat="37.65086" lon="27.72973">
        <ele>564.3</ele>
      </trkpt>
      <trkpt lat="37.65055" lon="27.73063">
        <ele>557.2</ele>
      </trkpt>
      <trkpt lat="37.6506" lon="27.73122">
        <ele>559.5</ele>
      </trkpt>
      <trkpt lat="37.64999" lon="27.73124">
        <ele>552.3</ele>
      </trkpt>
      <trkpt lat="37.64922" lon="27.73158">
        <ele>543.2</ele>
      </trkpt>
      <trkpt lat="37.64866" lon="27.73261">
        <ele>537.1</ele>
      </trkpt>
      <trkpt lat="37.64844" lon="27.73341">
        <ele>529</ele>
      </trkpt>
      <trkpt lat="37.64781" lon="27.73445">
        <ele>520</ele>
      </trkpt>
      <trkpt lat="37.64734" lon="27.73564">
        <ele>510.8</ele>
      </trkpt>
      <trkpt lat="37.64677" lon="27.73659">
        <ele>494.7</ele>
      </trkpt>
      <trkpt lat="37.64659" lon="27.73767">
        <ele>490.2</ele>
      </trkpt>
      <trkpt lat="37.64606" lon="27.73859">
        <ele>477.6</ele>
      </trkpt>
      <trkpt lat="37.64556" lon="27.73939">
        <ele>466.3</ele>
      </trkpt>
      <trkpt lat="37.64587" lon="27.74028">
        <ele>464.7</ele>
      </trkpt>
      <trkpt lat="37.64598" lon="27.74143">
        <ele>469.4</ele>
      </trkpt>
      <trkpt lat="37.64533" lon="27.74216">
        <ele>481.1</ele>
      </trkpt>
      <trkpt lat="37.64528" lon="27.74322">
        <ele>481.8</ele>
      </trkpt>
      <trkpt lat="37.64459" lon="27.7442">
        <ele>491.4</ele>
      </trkpt>
      <trkpt lat="37.64388" lon="27.7443">
        <ele>496.2</ele>
      </trkpt>
      <trkpt lat="37.6434" lon="27.7446">
        <ele>495.1</ele>
      </trkpt>
      <trkpt lat="37.64353" lon="27.74547">
        <ele>502.6</ele>
      </trkpt>
      <trkpt lat="37.64297" lon="27.74565">
        <ele>500.6</ele>
      </trkpt>
      <trkpt lat="37.64244" lon="27.74646">
        <ele>498.5</ele>
      </trkpt>
      <trkpt lat="37.6426" lon="27.74722">
        <ele>500.7</ele>
      </trkpt>
      <trkpt lat="37.64242" lon="27.7477">
        <ele>496.4</ele>
      </trkpt>
      <trkpt lat="37.64273" lon="27.74814">
        <ele>502</ele>
      </trkpt>
      <trkpt lat="37.64287" lon="27.74945">
        <ele>489.7</ele>
      </trkpt>
      <trkpt lat="37.64371" lon="27.75005">
        <ele>493.2</ele>
      </trkpt>
      <trkpt lat="37.64435" lon="27.7506">
        <ele>496.2</ele>
      </trkpt>
      <trkpt lat="37.64435" lon="27.75083">
        <ele>493.4</ele>
      </trkpt>
      <trkpt lat="37.64389" lon="27.75087">
        <ele>492</ele>
      </trkpt>
      <trkpt lat="37.64351" lon="27.75071">
        <ele>489.7</ele>
      </trkpt>
      <trkpt lat="37.643" lon="27.75074">
        <ele>486</ele>
      </trkpt>
      <trkpt lat="37.64246" lon="27.7511">
        <ele>489.4</ele>
      </trkpt>
      <trkpt lat="37.64178" lon="27.75103">
        <ele>481.6</ele>
      </trkpt>
      <trkpt lat="37.64134" lon="27.75146">
        <ele>486.5</ele>
      </trkpt>
      <trkpt lat="37.64092" lon="27.75182">
        <ele>487.4</ele>
      </trkpt>
      <trkpt lat="37.64084" lon="27.75203">
        <ele>489</ele>
      </trkpt>
      <trkpt lat="37.64037" lon="27.75237">
        <ele>484.9</ele>
      </trkpt>
      <trkpt lat="37.63986" lon="27.75223">
        <ele>474.5</ele>
      </trkpt>
      <trkpt lat="37.63963" lon="27.75233">
        <ele>472</ele>
      </trkpt>
      <trkpt lat="37.63932" lon="27.75263">
        <ele>470.2</ele>
      </trkpt>
      <trkpt lat="37.63864" lon="27.75305">
        <ele>459.3</ele>
      </trkpt>
      <trkpt lat="37.63858" lon="27.75285">
        <ele>456.4</ele>
      </trkpt>
      <trkpt lat="37.6387" lon="27.75255">
        <ele>456.8</ele>
      </trkpt>
      <trkpt lat="37.63861" lon="27.75222">
        <ele>453</ele>
      </trkpt>
      <trkpt lat="37.63817" lon="27.75183">
        <ele>444.4</ele>
      </trkpt>
      <trkpt lat="37.63714" lon="27.75128">
        <ele>431.3</ele>
      </trkpt>
      <trkpt lat="37.63685" lon="27.7511">
        <ele>428.8</ele>
      </trkpt>
      <trkpt lat="37.63654" lon="27.75108">
        <ele>427.2</ele>
      </trkpt>
      <trkpt lat="37.63583" lon="27.74999">
        <ele>421</ele>
      </trkpt>
      <trkpt lat="37.63509" lon="27.74943">
        <ele>423.9</ele>
      </trkpt>
      <trkpt lat="37.63491" lon="27.74858">
        <ele>420.9</ele>
      </trkpt>
      <trkpt lat="37.63472" lon="27.74728">
        <ele>419.3</ele>
      </trkpt>
      <trkpt lat="37.63472" lon="27.74646">
        <ele>415.6</ele>
      </trkpt>
      <trkpt lat="37.63428" lon="27.74557">
        <ele>412</ele>
      </trkpt>
      <trkpt lat="37.6337" lon="27.745">
        <ele>406.5</ele>
      </trkpt>
      <trkpt lat="37.63275" lon="27.74503">
        <ele>403</ele>
      </trkpt>
      <trkpt lat="37.6314" lon="27.74494">
        <ele>406</ele>
      </trkpt>
      <trkpt lat="37.63066" lon="27.74279">
        <ele>391.5</ele>
      </trkpt>
      <trkpt lat="37.6302" lon="27.74272">
        <ele>391.1</ele>
      </trkpt>
      <trkpt lat="37.62924" lon="27.74308">
        <ele>390.1</ele>
      </trkpt>
      <trkpt lat="37.62877" lon="27.74311">
        <ele>387.4</ele>
      </trkpt>
      <trkpt lat="37.62844" lon="27.74386">
        <ele>383</ele>
      </trkpt>
      <trkpt lat="37.62824" lon="27.7455">
        <ele>388</ele>
      </trkpt>
      <trkpt lat="37.62761" lon="27.74604">
        <ele>385.7</ele>
      </trkpt>
      <trkpt lat="37.62654" lon="27.74609">
        <ele>378.7</ele>
      </trkpt>
      <trkpt lat="37.6256" lon="27.74663">
        <ele>377.3</ele>
      </trkpt>
      <trkpt lat="37.62525" lon="27.74693">
        <ele>377.6</ele>
      </trkpt>
      <trkpt lat="37.62472" lon="27.74782">
        <ele>376.7</ele>
      </trkpt>
      <trkpt lat="37.62461" lon="27.74811">
        <ele>375.2</ele>
      </trkpt>
      <trkpt lat="37.62461" lon="27.74851">
        <ele>377</ele>
      </trkpt>
      <trkpt lat="37.62433" lon="27.74895">
        <ele>376.7</ele>
      </trkpt>
      <trkpt lat="37.62433" lon="27.74947">
        <ele>383</ele>
      </trkpt>
      <trkpt lat="37.62394" lon="27.74961">
        <ele>379.7</ele>
      </trkpt>
      <trkpt lat="37.62379" lon="27.75001">
        <ele>383.6</ele>
      </trkpt>
      <trkpt lat="37.62334" lon="27.75021">
        <ele>378.5</ele>
      </trkpt>
      <trkpt lat="37.62277" lon="27.75114">
        <ele>372.9</ele>
      </trkpt>
      <trkpt lat="37.62244" lon="27.75141">
        <ele>369.3</ele>
      </trkpt>
      <trkpt lat="37.62211" lon="27.7524">
        <ele>364.8</ele>
      </trkpt>
      <trkpt lat="37.62132" lon="27.75255">
        <ele>361.3</ele>
      </trkpt>
      <trkpt lat="37.62101" lon="27.75309">
        <ele>358.5</ele>
      </trkpt>
      <trkpt lat="37.62031" lon="27.75499">
        <ele>357.1</ele>
      </trkpt>
      <trkpt lat="37.61996" lon="27.75563">
        <ele>351.7</ele>
      </trkpt>
      <trkpt lat="37.6197" lon="27.75662">
        <ele>352.7</ele>
      </trkpt>
      <trkpt lat="37.61861" lon="27.75746">
        <ele>350.8</ele>
      </trkpt>
      <trkpt lat="37.61849" lon="27.75783">
        <ele>348.9</ele>
      </trkpt>
      <trkpt lat="37.61865" lon="27.75817">
        <ele>348.5</ele>
      </trkpt>
      <trkpt lat="37.619" lon="27.75874">
        <ele>346.7</ele>
      </trkpt>
      <trkpt lat="37.61929" lon="27.75891">
        <ele>347.6</ele>
      </trkpt>
      <trkpt lat="37.61976" lon="27.76007">
        <ele>341.7</ele>
      </trkpt>
      <trkpt lat="37.61953" lon="27.76041">
        <ele>343.1</ele>
      </trkpt>
      <trkpt lat="37.61916" lon="27.76128">
        <ele>348.3</ele>
      </trkpt>
      <trkpt lat="37.61861" lon="27.76189">
        <ele>349</ele>
      </trkpt>
      <trkpt lat="37.61773" lon="27.76224">
        <ele>346.4</ele>
      </trkpt>
      <trkpt lat="37.61681" lon="27.76194">
        <ele>340.2</ele>
      </trkpt>
      <trkpt lat="37.61613" lon="27.76246">
        <ele>339.3</ele>
      </trkpt>
      <trkpt lat="37.61628" lon="27.76294">
        <ele>338.6</ele>
      </trkpt>
      <trkpt lat="37.61635" lon="27.76347">
        <ele>336.1</ele>
      </trkpt>
      <trkpt lat="37.61675" lon="27.76422">
        <ele>331.6</ele>
      </trkpt>
      <trkpt lat="37.61666" lon="27.76512">
        <ele>329.3</ele>
      </trkpt>
      <trkpt lat="37.61681" lon="27.76659">
        <ele>338.2</ele>
      </trkpt>
      <trkpt lat="37.61624" lon="27.76781">
        <ele>336.6</ele>
      </trkpt>
      <trkpt lat="37.6158" lon="27.76897">
        <ele>332.8</ele>
      </trkpt>
      <trkpt lat="37.61468" lon="27.77019">
        <ele>327.3</ele>
      </trkpt>
      <trkpt lat="37.61403" lon="27.77148">
        <ele>325.4</ele>
      </trkpt>
      <trkpt lat="37.61365" lon="27.77192">
        <ele>325.1</ele>
      </trkpt>
      <trkpt lat="37.6132" lon="27.77291">
        <ele>323.7</ele>
      </trkpt>
      <trkpt lat="37.6131" lon="27.77362">
        <ele>322</ele>
      </trkpt>
      <trkpt lat="37.61297" lon="27.77412">
        <ele>319.8</ele>
      </trkpt>
      <trkpt lat="37.61292" lon="27.77546">
        <ele>325.4</ele>
      </trkpt>
      <trkpt lat="37.61221" lon="27.77646">
        <ele>329.8</ele>
      </trkpt>
      <trkpt lat="37.61198" lon="27.77799">
        <ele>329.2</ele>
      </trkpt>
      <trkpt lat="37.61167" lon="27.77816">
        <ele>327.2</ele>
      </trkpt>
      <trkpt lat="37.61126" lon="27.77791">
        <ele>325.2</ele>
      </trkpt>
      <trkpt lat="37.6107" lon="27.77791">
        <ele>323.4</ele>
      </trkpt>
      <trkpt lat="37.61043" lon="27.77807">
        <ele>322.5</ele>
      </trkpt>
      <trkpt lat="37.61027" lon="27.77912">
        <ele>323.6</ele>
      </trkpt>
      <trkpt lat="37.6102" lon="27.77976">
        <ele>320.7</ele>
      </trkpt>
      <trkpt lat="37.61038" lon="27.78042">
        <ele>321.4</ele>
      </trkpt>
      <trkpt lat="37.61" lon="27.7805">
        <ele>320.2</ele>
      </trkpt>
      <trkpt lat="37.60945" lon="27.7807">
        <ele>319.1</ele>
      </trkpt>
      <trkpt lat="37.60958" lon="27.78195">
        <ele>323.3</ele>
      </trkpt>
      <trkpt lat="37.60925" lon="27.78206">
        <ele>322.3</ele>
      </trkpt>
      <trkpt lat="37.60872" lon="27.78233">
        <ele>323</ele>
      </trkpt>
      <trkpt lat="37.60837" lon="27.78204">
        <ele>322.4</ele>
      </trkpt>
      <trkpt lat="37.60826" lon="27.7812">
        <ele>321.6</ele>
      </trkpt>
      <trkpt lat="37.60805" lon="27.78061">
        <ele>320.3</ele>
      </trkpt>
      <trkpt lat="37.60758" lon="27.78061">
        <ele>323.5</ele>
      </trkpt>
      <trkpt lat="37.60609" lon="27.78085">
        <ele>318.8</ele>
      </trkpt>
      <trkpt lat="37.59133" lon="27.80648">
        <ele>145.5</ele>
      </trkpt>
      <trkpt lat="37.59029" lon="27.80663">
        <ele>139.3</ele>
      </trkpt>
      <trkpt lat="37.58967" lon="27.80739">
        <ele>130.4</ele>
      </trkpt>
      <trkpt lat="37.5893" lon="27.80759">
        <ele>132.8</ele>
      </trkpt>
      <trkpt lat="37.58924" lon="27.80811">
        <ele>126</ele>
      </trkpt>
      <trkpt lat="37.59002" lon="27.81003">
        <ele>102.8</ele>
      </trkpt>
      <trkpt lat="37.58969" lon="27.81055">
        <ele>102</ele>
      </trkpt>
      <trkpt lat="37.58916" lon="27.81102">
        <ele>101.9</ele>
      </trkpt>
      <trkpt lat="37.5887" lon="27.81173">
        <ele>98.9</ele>
      </trkpt>
      <trkpt lat="37.58751" lon="27.812">
        <ele>100</ele>
      </trkpt>
      <trkpt lat="37.58716" lon="27.81262">
        <ele>97</ele>
      </trkpt>
      <trkpt lat="37.58747" lon="27.81398">
        <ele>97.9</ele>
      </trkpt>
      <trkpt lat="37.58745" lon="27.81427">
        <ele>97.6</ele>
      </trkpt>
      <trkpt lat="37.58822" lon="27.81499">
        <ele>97.7</ele>
      </trkpt>
      <trkpt lat="37.58882" lon="27.81642">
        <ele>98</ele>
      </trkpt>
      <trkpt lat="37.58972" lon="27.81947">
        <ele>101.1</ele>
      </trkpt>
      <trkpt lat="37.58869" lon="27.82058">
        <ele>101.6</ele>
      </trkpt>
      <trkpt lat="37.58852" lon="27.82111">
        <ele>101</ele>
      </trkpt>
      <trkpt lat="37.58808" lon="27.82182">
        <ele>100.9</ele>
      </trkpt>
      <trkpt lat="37.5875" lon="27.82201">
        <ele>100.5</ele>
      </trkpt>
      <trkpt lat="37.58649" lon="27.82249">
        <ele>95</ele>
      </trkpt>
      <trkpt lat="37.5853" lon="27.82246">
        <ele>90.4</ele>
      </trkpt>
      <trkpt lat="37.5846" lon="27.82343">
        <ele>89</ele>
      </trkpt>
      <trkpt lat="37.58387" lon="27.82466">
        <ele>90.5</ele>
      </trkpt>
      <trkpt lat="37.58346" lon="27.82631">
        <ele>89.4</ele>
      </trkpt>
      <trkpt lat="37.58185" lon="27.82625">
        <ele>88.2</ele>
      </trkpt>
      <trkpt lat="37.57773" lon="27.82612">
        <ele>88.6</ele>
      </trkpt>
      <trkpt lat="37.57391" lon="27.82619">
        <ele>91</ele>
      </trkpt>
      <trkpt lat="37.57236" lon="27.82677">
        <ele>92.9</ele>
      </trkpt>
      <trkpt lat="37.57118" lon="27.82781">
        <ele>93.2</ele>
      </trkpt>
      <trkpt lat="37.57017" lon="27.82862">
        <ele>96.2</ele>
      </trkpt>
      <trkpt lat="37.56893" lon="27.82934">
        <ele>96.9</ele>
      </trkpt>
      <trkpt lat="37.56769" lon="27.82981">
        <ele>97.2</ele>
      </trkpt>
      <trkpt lat="37.56421" lon="27.83075">
        <ele>102.7</ele>
      </trkpt>
      <trkpt lat="37.56321" lon="27.83142">
        <ele>107</ele>
      </trkpt>
      <trkpt lat="37.56247" lon="27.83298">
        <ele>110.3</ele>
      </trkpt>
      <trkpt lat="37.56247" lon="27.83454">
        <ele>104.7</ele>
      </trkpt>
      <trkpt lat="37.56174" lon="27.83591">
        <ele>95.7</ele>
      </trkpt>
      <trkpt lat="37.56025" lon="27.83585">
        <ele>95</ele>
      </trkpt>
      <trkpt lat="37.55922" lon="27.83624">
        <ele>95.4</ele>
      </trkpt>
      <trkpt lat="37.55857" lon="27.83611">
        <ele>94.5</ele>
      </trkpt>
      <trkpt lat="37.55826" lon="27.83552">
        <ele>96.5</ele>
      </trkpt>
      <trkpt lat="37.55666" lon="27.8328">
        <ele>105.5</ele>
      </trkpt>
      <trkpt lat="37.55666" lon="27.8328">
        <ele>105.5</ele>
      </trkpt>
      <trkpt lat="37.55666" lon="27.8328">
        <ele>105.5</ele>
      </trkpt>
      <trkpt lat="37.55666" lon="27.8328">
        <ele>105.5</ele>
      </trkpt>
      <trkpt lat="37.55666" lon="27.8328">
        <ele>105.5</ele>
      </trkpt>
      <trkpt lat="37.55666" lon="27.8328">
        <ele>105.5</ele>
      </trkpt>
      <trkpt lat="37.55666" lon="27.8328">
        <ele>105.5</ele>
      </trkpt>
      <trkpt lat="37.55666" lon="27.8328">
        <ele>105.5</ele>
      </trkpt>
      <trkpt lat="37.55666" lon="27.8328">
        <ele>105.5</ele>
      </trkpt>
      <trkpt lat="37.55666" lon="27.8328">
        <ele>105.5</ele>
      </trkpt>
      <trkpt lat="37.55666" lon="27.8328">
        <ele>105.5</ele>
      </trkpt>
      <trkpt lat="37.55666" lon="27.8328">
        <ele>105.5</ele>
      </trkpt>
      <trkpt lat="37.55666" lon="27.8328">
        <ele>105.5</ele>
      </trkpt>
      <trkpt lat="37.55666" lon="27.8328">
        <ele>105.5</ele>
      </trkpt>
      <trkpt lat="37.55666" lon="27.8328">
        <ele>105.5</ele>
      </trkpt>
      <trkpt lat="37.55666" lon="27.8328">
        <ele>105.5</ele>
      </trkpt>
      <trkpt lat="37.55666" lon="27.8328">
        <ele>105.5</ele>
      </trkpt>
      <trkpt lat="37.55666" lon="27.8328">
        <ele>105.5</ele>
      </trkpt>
      <trkpt lat="37.55666" lon="27.8328">
        <ele>105.5</ele>
      </trkpt>
      <trkpt lat="37.55666" lon="27.8328">
        <ele>105.5</ele>
      </trkpt>
      <trkpt lat="37.55666" lon="27.8328">
        <ele>105.5</ele>
      </trkpt>
      <trkpt lat="37.55666" lon="27.8328">
        <ele>105.5</ele>
      </trkpt>
      <trkpt lat="37.55666" lon="27.8328">
        <ele>105.5</ele>
      </trkpt>
      <trkpt lat="37.55666" lon="27.8328">
        <ele>105.5</ele>
      </trkpt>
      <trkpt lat="37.55666" lon="27.8328">
        <ele>105.5</ele>
      </trkpt>
      <trkpt lat="37.55666" lon="27.8328">
        <ele>105.5</ele>
      </trkpt>
      <trkpt lat="37.55666" lon="27.8328">
        <ele>105.5</ele>
      </trkpt>
      <trkpt lat="37.55666" lon="27.8328">
        <ele>105.5</ele>
      </trkpt>
      <trkpt lat="37.55666" lon="27.8328">
        <ele>105.5</ele>
      </trkpt>
      <trkpt lat="37.55666" lon="27.8328">
        <ele>105.5</ele>
      </trkpt>
      <trkpt lat="37.55666" lon="27.8328">
        <ele>105.5</ele>
      </trkpt>
      <trkpt lat="37.55666" lon="27.8328">
        <ele>105.5</ele>
      </trkpt>
      <trkpt lat="37.55666" lon="27.8328">
        <ele>105.5</ele>
      </trkpt>
      <trkpt lat="37.55666" lon="27.8328">
        <ele>105.5</ele>
      </trkpt>
      <trkpt lat="37.55666" lon="27.8328">
        <ele>105.5</ele>
      </trkpt>
      <trkpt lat="37.55666" lon="27.8328">
        <ele>105.5</ele>
      </trkpt>
      <trkpt lat="37.55666" lon="27.8328">
        <ele>105.5</ele>
      </trkpt>
      <trkpt lat="37.55666" lon="27.8328">
        <ele>105.5</ele>
      </trkpt>
      <trkpt lat="37.55666" lon="27.8328">
        <ele>105.5</ele>
      </trkpt>
      <trkpt lat="37.55666" lon="27.8328">
        <ele>105.5</ele>
      </trkpt>
      <trkpt lat="37.55666" lon="27.8328">
        <ele>105.5</ele>
      </trkpt>
      <trkpt lat="37.55666" lon="27.8328">
        <ele>105.5</ele>
      </trkpt>
      <trkpt lat="37.55666" lon="27.8328">
        <ele>105.5</ele>
      </trkpt>
      <trkpt lat="37.55666" lon="27.8328">
        <ele>105.5</ele>
      </trkpt>
      <trkpt lat="37.55666" lon="27.8328">
        <ele>105.5</ele>
      </trkpt>
      <trkpt lat="37.55666" lon="27.8328">
        <ele>105.5</ele>
      </trkpt>
      <trkpt lat="37.55666" lon="27.8328">
        <ele>105.5</ele>
      </trkpt>
      <trkpt lat="37.55666" lon="27.8328">
        <ele>105.5</ele>
      </trkpt>
      <trkpt lat="37.55666" lon="27.8328">
        <ele>105.5</ele>
      </trkpt>
      <trkpt lat="37.55662" lon="27.83272">
        <ele>105.7</ele>
      </trkpt>
      <trkpt lat="37.55664" lon="27.83264">
        <ele>106.2</ele>
      </trkpt>
      <trkpt lat="37.55666" lon="27.83266">
        <ele>106.2</ele>
      </trkpt>
      <trkpt lat="37.55668" lon="27.8326">
        <ele>106.6</ele>
      </trkpt>
      <trkpt lat="37.55662" lon="27.83245">
        <ele>106.9</ele>
      </trkpt>
      <trkpt lat="37.5565" lon="27.83231">
        <ele>106.7</ele>
      </trkpt>
      <trkpt lat="37.55639" lon="27.83205">
        <ele>106.7</ele>
      </trkpt>
      <trkpt lat="37.55639" lon="27.83199">
        <ele>107</ele>
      </trkpt>
      <trkpt lat="37.55646" lon="27.83192">
        <ele>107.7</ele>
      </trkpt>
      <trkpt lat="37.55655" lon="27.83191">
        <ele>108.3</ele>
      </trkpt>
      <trkpt lat="37.5567" lon="27.83191">
        <ele>109.5</ele>
      </trkpt>
      <trkpt lat="37.55683" lon="27.83179">
        <ele>111.9</ele>
      </trkpt>
      <trkpt lat="37.557" lon="27.83181">
        <ele>114</ele>
      </trkpt>
      <trkpt lat="37.55711" lon="27.83178">
        <ele>115.7</ele>
      </trkpt>
      <trkpt lat="37.55712" lon="27.83163">
        <ele>116.9</ele>
      </trkpt>
      <trkpt lat="37.55714" lon="27.83132">
        <ele>120.3</ele>
      </trkpt>
      <trkpt lat="37.55711" lon="27.83112">
        <ele>121.7</ele>
      </trkpt>
      <trkpt lat="37.55715" lon="27.83088">
        <ele>124.8</ele>
      </trkpt>
      <trkpt lat="37.55717" lon="27.83078">
        <ele>126.3</ele>
      </trkpt>
      <trkpt lat="37.55708" lon="27.83052">
        <ele>128.1</ele>
      </trkpt>
      <trkpt lat="37.55706" lon="27.83045">
        <ele>128.7</ele>
      </trkpt>
      <trkpt lat="37.55705" lon="27.83038">
        <ele>129.2</ele>
      </trkpt>
      <trkpt lat="37.55702" lon="27.83028">
        <ele>130.2</ele>
      </trkpt>
      <trkpt lat="37.55703" lon="27.83025">
        <ele>130.8</ele>
      </trkpt>
      <trkpt lat="37.55714" lon="27.83015">
        <ele>134.1</ele>
      </trkpt>
      <trkpt lat="37.5572" lon="27.83014">
        <ele>135.1</ele>
      </trkpt>
      <trkpt lat="37.55721" lon="27.83015">
        <ele>135.1</ele>
      </trkpt>
      <trkpt lat="37.5572" lon="27.8301">
        <ele>135.8</ele>
      </trkpt>
      <trkpt lat="37.5572" lon="27.83005">
        <ele>136.2</ele>
      </trkpt>
      <trkpt lat="37.55718" lon="27.83003">
        <ele>136.2</ele>
      </trkpt>
      <trkpt lat="37.55719" lon="27.82996">
        <ele>137.3</ele>
      </trkpt>
      <trkpt lat="37.55716" lon="27.82985">
        <ele>138.4</ele>
      </trkpt>
      <trkpt lat="37.55718" lon="27.82982">
        <ele>139</ele>
      </trkpt>
      <trkpt lat="37.55717" lon="27.82981">
        <ele>139.1</ele>
      </trkpt>
      <trkpt lat="37.55714" lon="27.82978">
        <ele>139</ele>
      </trkpt>
      <trkpt lat="37.55713" lon="27.82982">
        <ele>138.3</ele>
      </trkpt>
      <trkpt lat="37.5571" lon="27.82981">
        <ele>137.9</ele>
      </trkpt>
      <trkpt lat="37.5571" lon="27.82982">
        <ele>137.8</ele>
      </trkpt>
      <trkpt lat="37.55706" lon="27.82982">
        <ele>137.3</ele>
      </trkpt>
      <trkpt lat="37.557" lon="27.82981">
        <ele>136.5</ele>
      </trkpt>
      <trkpt lat="37.55701" lon="27.82981">
        <ele>136.6</ele>
      </trkpt>
      <trkpt lat="37.55708" lon="27.82974">
        <ele>138.7</ele>
      </trkpt>
      <trkpt lat="37.55708" lon="27.82958">
        <ele>141.1</ele>
      </trkpt>
      <trkpt lat="37.55717" lon="27.82954">
        <ele>142.7</ele>
      </trkpt>
      <trkpt lat="37.55717" lon="27.82953">
        <ele>142.8</ele>
      </trkpt>
      <trkpt lat="37.55713" lon="27.8295">
        <ele>142.8</ele>
      </trkpt>
      <trkpt lat="37.55705" lon="27.82948">
        <ele>142.1</ele>
      </trkpt>
      <trkpt lat="37.55699" lon="27.82934">
        <ele>143.5</ele>
      </trkpt>
      <trkpt lat="37.55697" lon="27.82928">
        <ele>144.2</ele>
      </trkpt>
      <trkpt lat="37.55698" lon="27.82927">
        <ele>144.5</ele>
      </trkpt>
      <trkpt lat="37.55701" lon="27.82925">
        <ele>145.1</ele>
      </trkpt>
      <trkpt lat="37.55713" lon="27.82918">
        <ele>147.3</ele>
      </trkpt>
      <trkpt lat="37.55722" lon="27.82916">
        <ele>148.6</ele>
      </trkpt>
      <trkpt lat="37.55735" lon="27.82914">
        <ele>150</ele>
      </trkpt>
      <trkpt lat="37.55737" lon="27.82915">
        <ele>150.1</ele>
      </trkpt>
      <trkpt lat="37.55737" lon="27.82915">
        <ele>150</ele>
      </trkpt>
      <trkpt lat="37.55739" lon="27.82914">
        <ele>150.6</ele>
      </trkpt>
      <trkpt lat="37.55739" lon="27.82911">
        <ele>151.2</ele>
      </trkpt>
      <trkpt lat="37.5574" lon="27.82902">
        <ele>153.1</ele>
      </trkpt>
      <trkpt lat="37.5574" lon="27.82891">
        <ele>155.3</ele>
      </trkpt>
      <trkpt lat="37.55742" lon="27.82883">
        <ele>157.1</ele>
      </trkpt>
      <trkpt lat="37.55742" lon="27.82882">
        <ele>157.4</ele>
      </trkpt>
      <trkpt lat="37.55745" lon="27.82879">
        <ele>158.4</ele>
      </trkpt>
      <trkpt lat="37.55754" lon="27.82878">
        <ele>160.5</ele>
      </trkpt>
      <trkpt lat="37.55759" lon="27.82878">
        <ele>162.1</ele>
      </trkpt>
      <trkpt lat="37.5577" lon="27.82873">
        <ele>166.5</ele>
      </trkpt>
      <trkpt lat="37.55774" lon="27.82871">
        <ele>167.9</ele>
      </trkpt>
      <trkpt lat="37.55773" lon="27.82864">
        <ele>169.6</ele>
      </trkpt>
      <trkpt lat="37.55777" lon="27.82861">
        <ele>171.4</ele>
      </trkpt>
      <trkpt lat="37.55788" lon="27.82853">
        <ele>176.5</ele>
      </trkpt>
      <trkpt lat="37.55807" lon="27.82858">
        <ele>181.1</ele>
      </trkpt>
      <trkpt lat="37.55811" lon="27.82858">
        <ele>182.4</ele>
      </trkpt>
      <trkpt lat="37.55815" lon="27.82859">
        <ele>183.2</ele>
      </trkpt>
      <trkpt lat="37.55816" lon="27.8286">
        <ele>183.3</ele>
      </trkpt>
      <trkpt lat="37.55823" lon="27.82874">
        <ele>182</ele>
      </trkpt>
      <trkpt lat="37.55829" lon="27.82869">
        <ele>185</ele>
      </trkpt>
      <trkpt lat="37.55829" lon="27.82869">
        <ele>185.1</ele>
      </trkpt>
      <trkpt lat="37.55834" lon="27.82867">
        <ele>187.1</ele>
      </trkpt>
      <trkpt lat="37.55841" lon="27.82869">
        <ele>187.9</ele>
      </trkpt>
      <trkpt lat="37.55843" lon="27.82871">
        <ele>187.8</ele>
      </trkpt>
      <trkpt lat="37.55849" lon="27.82883">
        <ele>186.1</ele>
      </trkpt>
      <trkpt lat="37.55851" lon="27.82906">
        <ele>180.6</ele>
      </trkpt>
      <trkpt lat="37.55856" lon="27.8292">
        <ele>178.3</ele>
      </trkpt>
      <trkpt lat="37.5586" lon="27.82936">
        <ele>176.8</ele>
      </trkpt>
      <trkpt lat="37.55867" lon="27.8294">
        <ele>177.2</ele>
      </trkpt>
      <trkpt lat="37.55875" lon="27.82937">
        <ele>178.7</ele>
      </trkpt>
      <trkpt lat="37.55879" lon="27.82929">
        <ele>180.6</ele>
      </trkpt>
      <trkpt lat="37.55883" lon="27.82929">
        <ele>181.2</ele>
      </trkpt>
      <trkpt lat="37.5589" lon="27.8293">
        <ele>182</ele>
      </trkpt>
      <trkpt lat="37.55892" lon="27.82935">
        <ele>181.3</ele>
      </trkpt>
      <trkpt lat="37.55897" lon="27.82935">
        <ele>182</ele>
      </trkpt>
      <trkpt lat="37.55899" lon="27.82926">
        <ele>184.2</ele>
      </trkpt>
      <trkpt lat="37.55898" lon="27.82905">
        <ele>189.1</ele>
      </trkpt>
      <trkpt lat="37.55896" lon="27.82901">
        <ele>189.7</ele>
      </trkpt>
      <trkpt lat="37.55895" lon="27.82895">
        <ele>191.2</ele>
      </trkpt>
      <trkpt lat="37.55896" lon="27.8289">
        <ele>192.8</ele>
      </trkpt>
      <trkpt lat="37.55898" lon="27.82887">
        <ele>194.3</ele>
      </trkpt>
      <trkpt lat="37.559" lon="27.82885">
        <ele>195</ele>
      </trkpt>
      <trkpt lat="37.55907" lon="27.8288">
        <ele>197.8</ele>
      </trkpt>
      <trkpt lat="37.55916" lon="27.82876">
        <ele>200.7</ele>
      </trkpt>
      <trkpt lat="37.55924" lon="27.82863">
        <ele>204.1</ele>
      </trkpt>
      <trkpt lat="37.55923" lon="27.82857">
        <ele>206</ele>
      </trkpt>
      <trkpt lat="37.55917" lon="27.82851">
        <ele>208</ele>
      </trkpt>
      <trkpt lat="37.55915" lon="27.82846">
        <ele>209</ele>
      </trkpt>
      <trkpt lat="37.55907" lon="27.82838">
        <ele>209.8</ele>
      </trkpt>
      <trkpt lat="37.55908" lon="27.82837">
        <ele>210</ele>
      </trkpt>
      <trkpt lat="37.55917" lon="27.82834">
        <ele>212.8</ele>
      </trkpt>
      <trkpt lat="37.55923" lon="27.82829">
        <ele>214.7</ele>
      </trkpt>
      <trkpt lat="37.55919" lon="27.82826">
        <ele>216.4</ele>
      </trkpt>
      <trkpt lat="37.55917" lon="27.82823">
        <ele>217.8</ele>
      </trkpt>
      <trkpt lat="37.55917" lon="27.82822">
        <ele>218.1</ele>
      </trkpt>
      <trkpt lat="37.5592" lon="27.8282">
        <ele>218.6</ele>
      </trkpt>
      <trkpt lat="37.55923" lon="27.82816">
        <ele>220.2</ele>
      </trkpt>
      <trkpt lat="37.55914" lon="27.82811">
        <ele>222.2</ele>
      </trkpt>
      <trkpt lat="37.55911" lon="27.82807">
        <ele>223.5</ele>
      </trkpt>
      <trkpt lat="37.55909" lon="27.82804">
        <ele>224</ele>
      </trkpt>
      <trkpt lat="37.55908" lon="27.82801">
        <ele>225.3</ele>
      </trkpt>
      <trkpt lat="37.55914" lon="27.82796">
        <ele>228.8</ele>
      </trkpt>
      <trkpt lat="37.55923" lon="27.82788">
        <ele>232.3</ele>
      </trkpt>
      <trkpt lat="37.55925" lon="27.82789">
        <ele>231.7</ele>
      </trkpt>
      <trkpt lat="37.55935" lon="27.82789">
        <ele>230.3</ele>
      </trkpt>
      <trkpt lat="37.55936" lon="27.82785">
        <ele>231.8</ele>
      </trkpt>
      <trkpt lat="37.55933" lon="27.82784">
        <ele>232.9</ele>
      </trkpt>
      <trkpt lat="37.55923" lon="27.82778">
        <ele>236.6</ele>
      </trkpt>
      <trkpt lat="37.5592" lon="27.82777">
        <ele>237.7</ele>
      </trkpt>
      <trkpt lat="37.55917" lon="27.82776">
        <ele>238.3</ele>
      </trkpt>
      <trkpt lat="37.55915" lon="27.82776">
        <ele>237.9</ele>
      </trkpt>
      <trkpt lat="37.55913" lon="27.82777">
        <ele>237</ele>
      </trkpt>
      <trkpt lat="37.5591" lon="27.82776">
        <ele>236.6</ele>
      </trkpt>
      <trkpt lat="37.55904" lon="27.82774">
        <ele>236</ele>
      </trkpt>
      <trkpt lat="37.55892" lon="27.82768">
        <ele>235.4</ele>
      </trkpt>
      <trkpt lat="37.55892" lon="27.82768">
        <ele>235.3</ele>
      </trkpt>
      <trkpt lat="37.55889" lon="27.82759">
        <ele>238.3</ele>
      </trkpt>
      <trkpt lat="37.55889" lon="27.82757">
        <ele>239.3</ele>
      </trkpt>
      <trkpt lat="37.55887" lon="27.82751">
        <ele>240.9</ele>
      </trkpt>
      <trkpt lat="37.55886" lon="27.82749">
        <ele>241.6</ele>
      </trkpt>
      <trkpt lat="37.55881" lon="27.82742">
        <ele>241.3</ele>
      </trkpt>
      <trkpt lat="37.55884" lon="27.82732">
        <ele>244.1</ele>
      </trkpt>
      <trkpt lat="37.55884" lon="27.82714">
        <ele>247.8</ele>
      </trkpt>
      <trkpt lat="37.55884" lon="27.82711">
        <ele>248.2</ele>
      </trkpt>
      <trkpt lat="37.55875" lon="27.82698">
        <ele>247.6</ele>
      </trkpt>
      <trkpt lat="37.55864" lon="27.82697">
        <ele>243.9</ele>
      </trkpt>
      <trkpt lat="37.55846" lon="27.82702">
        <ele>236.3</ele>
      </trkpt>
      <trkpt lat="37.55845" lon="27.82702">
        <ele>236.1</ele>
      </trkpt>
      <trkpt lat="37.55845" lon="27.82703">
        <ele>236</ele>
      </trkpt>
      <trkpt lat="37.55847" lon="27.82702">
        <ele>236.6</ele>
      </trkpt>
      <trkpt lat="37.55851" lon="27.82694">
        <ele>239.2</ele>
      </trkpt>
      <trkpt lat="37.55851" lon="27.82692">
        <ele>239.6</ele>
      </trkpt>
      <trkpt lat="37.55866" lon="27.82689">
        <ele>245.8</ele>
      </trkpt>
      <trkpt lat="37.55868" lon="27.82687">
        <ele>247.2</ele>
      </trkpt>
      <trkpt lat="37.55869" lon="27.82681">
        <ele>248.4</ele>
      </trkpt>
      <trkpt lat="37.5587" lon="27.82681">
        <ele>248.7</ele>
      </trkpt>
      <trkpt lat="37.55873" lon="27.82681">
        <ele>249.9</ele>
      </trkpt>
      <trkpt lat="37.55881" lon="27.82685">
        <ele>252.6</ele>
      </trkpt>
      <trkpt lat="37.55882" lon="27.82683">
        <ele>253.2</ele>
      </trkpt>
      <trkpt lat="37.55881" lon="27.8268">
        <ele>253.4</ele>
      </trkpt>
      <trkpt lat="37.55885" lon="27.82678">
        <ele>255.5</ele>
      </trkpt>
      <trkpt lat="37.55894" lon="27.82683">
        <ele>257.9</ele>
      </trkpt>
      <trkpt lat="37.55899" lon="27.82693">
        <ele>257.6</ele>
      </trkpt>
      <trkpt lat="37.559" lon="27.82694">
        <ele>257.7</ele>
      </trkpt>
      <trkpt lat="37.55905" lon="27.82695">
        <ele>259.3</ele>
      </trkpt>
      <trkpt lat="37.55911" lon="27.82697">
        <ele>261.2</ele>
      </trkpt>
      <trkpt lat="37.55918" lon="27.82703">
        <ele>261.8</ele>
      </trkpt>
      <trkpt lat="37.55923" lon="27.82704">
        <ele>260.1</ele>
      </trkpt>
      <trkpt lat="37.55932" lon="27.82705">
        <ele>257.6</ele>
      </trkpt>
      <trkpt lat="37.55935" lon="27.82705">
        <ele>256.9</ele>
      </trkpt>
      <trkpt lat="37.55933" lon="27.82704">
        <ele>257.5</ele>
      </trkpt>
      <trkpt lat="37.55932" lon="27.82701">
        <ele>258.5</ele>
      </trkpt>
      <trkpt lat="37.55936" lon="27.82694">
        <ele>259.2</ele>
      </trkpt>
      <trkpt lat="37.55945" lon="27.82694">
        <ele>257.1</ele>
      </trkpt>
      <trkpt lat="37.55944" lon="27.82694">
        <ele>257</ele>
      </trkpt>
      <trkpt lat="37.55949" lon="27.8269">
        <ele>256.8</ele>
      </trkpt>
      <trkpt lat="37.55952" lon="27.82687">
        <ele>256.7</ele>
      </trkpt>
      <trkpt lat="37.55957" lon="27.82676">
        <ele>257.6</ele>
      </trkpt>
      <trkpt lat="37.55959" lon="27.82671">
        <ele>258.1</ele>
      </trkpt>
      <trkpt lat="37.5596" lon="27.82666">
        <ele>258.7</ele>
      </trkpt>
      <trkpt lat="37.55961" lon="27.82659">
        <ele>258.8</ele>
      </trkpt>
      <trkpt lat="37.5596" lon="27.82654">
        <ele>259.5</ele>
      </trkpt>
      <trkpt lat="37.55959" lon="27.8264">
        <ele>260.7</ele>
      </trkpt>
      <trkpt lat="37.55959" lon="27.8264">
        <ele>260.7</ele>
      </trkpt>
      <trkpt lat="37.55946" lon="27.82631">
        <ele>264.7</ele>
      </trkpt>
      <trkpt lat="37.55945" lon="27.82628">
        <ele>265.4</ele>
      </trkpt>
      <trkpt lat="37.55937" lon="27.82621">
        <ele>267.9</ele>
      </trkpt>
      <trkpt lat="37.55937" lon="27.8262">
        <ele>268</ele>
      </trkpt>
      <trkpt lat="37.55936" lon="27.82621">
        <ele>268.3</ele>
      </trkpt>
      <trkpt lat="37.55938" lon="27.82615">
        <ele>268.2</ele>
      </trkpt>
      <trkpt lat="37.55936" lon="27.82611">
        <ele>268.9</ele>
      </trkpt>
      <trkpt lat="37.55929" lon="27.82593">
        <ele>272</ele>
      </trkpt>
      <trkpt lat="37.55919" lon="27.8258">
        <ele>275.5</ele>
      </trkpt>
      <trkpt lat="37.5591" lon="27.82558">
        <ele>273.9</ele>
      </trkpt>
      <trkpt lat="37.55912" lon="27.82544">
        <ele>274.9</ele>
      </trkpt>
      <trkpt lat="37.55913" lon="27.82531">
        <ele>275.5</ele>
      </trkpt>
      <trkpt lat="37.5591" lon="27.82509">
        <ele>275.2</ele>
      </trkpt>
      <trkpt lat="37.55909" lon="27.82502">
        <ele>275.2</ele>
      </trkpt>
      <trkpt lat="37.55909" lon="27.825">
        <ele>275.1</ele>
      </trkpt>
      <trkpt lat="37.55904" lon="27.8248">
        <ele>274.6</ele>
      </trkpt>
      <trkpt lat="37.55899" lon="27.82463">
        <ele>274.5</ele>
      </trkpt>
      <trkpt lat="37.55897" lon="27.82447">
        <ele>274.9</ele>
      </trkpt>
      <trkpt lat="37.55897" lon="27.82444">
        <ele>275.1</ele>
      </trkpt>
      <trkpt lat="37.55903" lon="27.82438">
        <ele>275.6</ele>
      </trkpt>
      <trkpt lat="37.55903" lon="27.82437">
        <ele>275.6</ele>
      </trkpt>
      <trkpt lat="37.559" lon="27.82429">
        <ele>275.8</ele>
      </trkpt>
      <trkpt lat="37.55885" lon="27.82417">
        <ele>276.3</ele>
      </trkpt>
      <trkpt lat="37.55868" lon="27.82403">
        <ele>277.8</ele>
      </trkpt>
      <trkpt lat="37.5586" lon="27.82388">
        <ele>279.8</ele>
      </trkpt>
      <trkpt lat="37.55859" lon="27.82383">
        <ele>280.6</ele>
      </trkpt>
      <trkpt lat="37.55857" lon="27.82382">
        <ele>281</ele>
      </trkpt>
      <trkpt lat="37.55853" lon="27.8237">
        <ele>283</ele>
      </trkpt>
      <trkpt lat="37.55842" lon="27.82356">
        <ele>286.9</ele>
      </trkpt>
      <trkpt lat="37.55834" lon="27.82345">
        <ele>290.6</ele>
      </trkpt>
      <trkpt lat="37.55834" lon="27.82344">
        <ele>290.9</ele>
      </trkpt>
      <trkpt lat="37.5583" lon="27.82334">
        <ele>292.6</ele>
      </trkpt>
      <trkpt lat="37.55822" lon="27.82334">
        <ele>292.4</ele>
      </trkpt>
      <trkpt lat="37.5582" lon="27.82321">
        <ele>293.6</ele>
      </trkpt>
      <trkpt lat="37.55817" lon="27.82323">
        <ele>293.3</ele>
      </trkpt>
      <trkpt lat="37.55815" lon="27.82325">
        <ele>293</ele>
      </trkpt>
      <trkpt lat="37.55806" lon="27.82326">
        <ele>292.4</ele>
      </trkpt>
      <trkpt lat="37.55801" lon="27.82324">
        <ele>292.4</ele>
      </trkpt>
      <trkpt lat="37.558" lon="27.82322">
        <ele>292.6</ele>
      </trkpt>
      <trkpt lat="37.55803" lon="27.82309">
        <ele>294.2</ele>
      </trkpt>
      <trkpt lat="37.55803" lon="27.82302">
        <ele>295</ele>
      </trkpt>
      <trkpt lat="37.55802" lon="27.82299">
        <ele>295.3</ele>
      </trkpt>
      <trkpt lat="37.55799" lon="27.82299">
        <ele>295.2</ele>
      </trkpt>
      <trkpt lat="37.55797" lon="27.823">
        <ele>295</ele>
      </trkpt>
      <trkpt lat="37.55795" lon="27.82302">
        <ele>294.7</ele>
      </trkpt>
      <trkpt lat="37.55794" lon="27.82303">
        <ele>294.5</ele>
      </trkpt>
      <trkpt lat="37.55794" lon="27.82301">
        <ele>294.8</ele>
      </trkpt>
      <trkpt lat="37.55795" lon="27.823">
        <ele>295</ele>
      </trkpt>
      <trkpt lat="37.55794" lon="27.82296">
        <ele>295.3</ele>
      </trkpt>
      <trkpt lat="37.55799" lon="27.82286">
        <ele>296.7</ele>
      </trkpt>
      <trkpt lat="37.55805" lon="27.82269">
        <ele>298.6</ele>
      </trkpt>
      <trkpt lat="37.55808" lon="27.82255">
        <ele>300.2</ele>
      </trkpt>
      <trkpt lat="37.55812" lon="27.8224">
        <ele>301</ele>
      </trkpt>
      <trkpt lat="37.55813" lon="27.82225">
        <ele>301.4</ele>
      </trkpt>
      <trkpt lat="37.55816" lon="27.82212">
        <ele>301.9</ele>
      </trkpt>
      <trkpt lat="37.55816" lon="27.82212">
        <ele>302</ele>
      </trkpt>
      <trkpt lat="37.55821" lon="27.82208">
        <ele>302.4</ele>
      </trkpt>
      <trkpt lat="37.55825" lon="27.82194">
        <ele>303.5</ele>
      </trkpt>
      <trkpt lat="37.55831" lon="27.82175">
        <ele>305.1</ele>
      </trkpt>
      <trkpt lat="37.55837" lon="27.82164">
        <ele>304.7</ele>
      </trkpt>
      <trkpt lat="37.55845" lon="27.82149">
        <ele>302.3</ele>
      </trkpt>
      <trkpt lat="37.55852" lon="27.82137">
        <ele>300.1</ele>
      </trkpt>
      <trkpt lat="37.55852" lon="27.82132">
        <ele>300.1</ele>
      </trkpt>
      <trkpt lat="37.55852" lon="27.82128">
        <ele>300.1</ele>
      </trkpt>
      <trkpt lat="37.55857" lon="27.8212">
        <ele>299</ele>
      </trkpt>
      <trkpt lat="37.55857" lon="27.82115">
        <ele>298.9</ele>
      </trkpt>
      <trkpt lat="37.55862" lon="27.82098">
        <ele>298.1</ele>
      </trkpt>
      <trkpt lat="37.55864" lon="27.82081">
        <ele>297.4</ele>
      </trkpt>
      <trkpt lat="37.55866" lon="27.82076">
        <ele>296.3</ele>
      </trkpt>
      <trkpt lat="37.55867" lon="27.82072">
        <ele>295.5</ele>
      </trkpt>
      <trkpt lat="37.55867" lon="27.82071">
        <ele>295.3</ele>
      </trkpt>
      <trkpt lat="37.55871" lon="27.8207">
        <ele>294.3</ele>
      </trkpt>
      <trkpt lat="37.55872" lon="27.82065">
        <ele>293.6</ele>
      </trkpt>
      <trkpt lat="37.55882" lon="27.82067">
        <ele>292</ele>
      </trkpt>
      <trkpt lat="37.55882" lon="27.82065">
        <ele>291.7</ele>
      </trkpt>
      <trkpt lat="37.5588" lon="27.82051">
        <ele>290.2</ele>
      </trkpt>
      <trkpt lat="37.5588" lon="27.82042">
        <ele>288.9</ele>
      </trkpt>
      <trkpt lat="37.5588" lon="27.82034">
        <ele>288</ele>
      </trkpt>
      <trkpt lat="37.5588" lon="27.82032">
        <ele>287.6</ele>
      </trkpt>
      <trkpt lat="37.55877" lon="27.8202">
        <ele>286.4</ele>
      </trkpt>
      <trkpt lat="37.55878" lon="27.82005">
        <ele>284.3</ele>
      </trkpt>
      <trkpt lat="37.55879" lon="27.8199">
        <ele>283.2</ele>
      </trkpt>
      <trkpt lat="37.5588" lon="27.81988">
        <ele>283</ele>
      </trkpt>
      <trkpt lat="37.5588" lon="27.81988">
        <ele>283.1</ele>
      </trkpt>
      <trkpt lat="37.55877" lon="27.8198">
        <ele>283.4</ele>
      </trkpt>
      <trkpt lat="37.55876" lon="27.81977">
        <ele>283.4</ele>
      </trkpt>
      <trkpt lat="37.55868" lon="27.81965">
        <ele>283.7</ele>
      </trkpt>
      <trkpt lat="37.55867" lon="27.81959">
        <ele>283.6</ele>
      </trkpt>
      <trkpt lat="37.55868" lon="27.81956">
        <ele>283.4</ele>
      </trkpt>
      <trkpt lat="37.55873" lon="27.81937">
        <ele>282.6</ele>
      </trkpt>
      <trkpt lat="37.55878" lon="27.8192">
        <ele>282.1</ele>
      </trkpt>
      <trkpt lat="37.55883" lon="27.81908">
        <ele>283.9</ele>
      </trkpt>
      <trkpt lat="37.55882" lon="27.81893">
        <ele>287</ele>
      </trkpt>
      <trkpt lat="37.55884" lon="27.81877">
        <ele>290.5</ele>
      </trkpt>
      <trkpt lat="37.55884" lon="27.81877">
        <ele>290.5</ele>
      </trkpt>
      <trkpt lat="37.55881" lon="27.81869">
        <ele>292</ele>
      </trkpt>
      <trkpt lat="37.55875" lon="27.81855">
        <ele>295</ele>
      </trkpt>
      <trkpt lat="37.55862" lon="27.81851">
        <ele>295.4</ele>
      </trkpt>
      <trkpt lat="37.5584" lon="27.81863">
        <ele>292.5</ele>
      </trkpt>
      <trkpt lat="37.55823" lon="27.81871">
        <ele>289.6</ele>
      </trkpt>
      <trkpt lat="37.55811" lon="27.81878">
        <ele>286.9</ele>
      </trkpt>
      <trkpt lat="37.55806" lon="27.81877">
        <ele>286.5</ele>
      </trkpt>
      <trkpt lat="37.55794" lon="27.81879">
        <ele>284.9</ele>
      </trkpt>
      <trkpt lat="37.55788" lon="27.81879">
        <ele>284.2</ele>
      </trkpt>
      <trkpt lat="37.55786" lon="27.81877">
        <ele>284.3</ele>
      </trkpt>
      <trkpt lat="37.55784" lon="27.81873">
        <ele>284.6</ele>
      </trkpt>
      <trkpt lat="37.55779" lon="27.81865">
        <ele>285.4</ele>
      </trkpt>
      <trkpt lat="37.55767" lon="27.81846">
        <ele>286.6</ele>
      </trkpt>
      <trkpt lat="37.55754" lon="27.81826">
        <ele>288.6</ele>
      </trkpt>
      <trkpt lat="37.5574" lon="27.81803">
        <ele>292.7</ele>
      </trkpt>
      <trkpt lat="37.55721" lon="27.81792">
        <ele>292.9</ele>
      </trkpt>
      <trkpt lat="37.55706" lon="27.81791">
        <ele>291.2</ele>
      </trkpt>
      <trkpt lat="37.55691" lon="27.81793">
        <ele>288.5</ele>
      </trkpt>
      <trkpt lat="37.55678" lon="27.81797">
        <ele>286</ele>
      </trkpt>
      <trkpt lat="37.55656" lon="27.81799">
        <ele>283</ele>
      </trkpt>
      <trkpt lat="37.55638" lon="27.81794">
        <ele>282.5</ele>
      </trkpt>
      <trkpt lat="37.55619" lon="27.81787">
        <ele>281.9</ele>
      </trkpt>
      <trkpt lat="37.55601" lon="27.81784">
        <ele>280.5</ele>
      </trkpt>
      <trkpt lat="37.55585" lon="27.81781">
        <ele>279.2</ele>
      </trkpt>
      <trkpt lat="37.5558" lon="27.81781">
        <ele>278.7</ele>
      </trkpt>
      <trkpt lat="37.55561" lon="27.81775">
        <ele>277.1</ele>
      </trkpt>
      <trkpt lat="37.55551" lon="27.81763">
        <ele>276.7</ele>
      </trkpt>
      <trkpt lat="37.55543" lon="27.81743">
        <ele>276.7</ele>
      </trkpt>
      <trkpt lat="37.55541" lon="27.81722">
        <ele>277.8</ele>
      </trkpt>
      <trkpt lat="37.55535" lon="27.81705">
        <ele>277.7</ele>
      </trkpt>
      <trkpt lat="37.55541" lon="27.81709">
        <ele>278.8</ele>
      </trkpt>
      <trkpt lat="37.55535" lon="27.81689">
        <ele>278.6</ele>
      </trkpt>
      <trkpt lat="37.55527" lon="27.81668">
        <ele>277.6</ele>
      </trkpt>
      <trkpt lat="37.55519" lon="27.8165">
        <ele>278.1</ele>
      </trkpt>
      <trkpt lat="37.55512" lon="27.8163">
        <ele>278.6</ele>
      </trkpt>
      <trkpt lat="37.55496" lon="27.81608">
        <ele>276.6</ele>
      </trkpt>
      <trkpt lat="37.55481" lon="27.81593">
        <ele>274.6</ele>
      </trkpt>
      <trkpt lat="37.55463" lon="27.81578">
        <ele>272.2</ele>
      </trkpt>
      <trkpt lat="37.55448" lon="27.8157">
        <ele>270.4</ele>
      </trkpt>
      <trkpt lat="37.55428" lon="27.81563">
        <ele>267.2</ele>
      </trkpt>
      <trkpt lat="37.55402" lon="27.81558">
        <ele>262.7</ele>
      </trkpt>
      <trkpt lat="37.55384" lon="27.81545">
        <ele>263.1</ele>
      </trkpt>
      <trkpt lat="37.55366" lon="27.81527">
        <ele>264.7</ele>
      </trkpt>
      <trkpt lat="37.55346" lon="27.81524">
        <ele>261.6</ele>
      </trkpt>
      <trkpt lat="37.55328" lon="27.8153">
        <ele>257.1</ele>
      </trkpt>
      <trkpt lat="37.55308" lon="27.81537">
        <ele>254.3</ele>
      </trkpt>
      <trkpt lat="37.5529" lon="27.81552">
        <ele>249.7</ele>
      </trkpt>
      <trkpt lat="37.55275" lon="27.81553">
        <ele>248.9</ele>
      </trkpt>
      <trkpt lat="37.55253" lon="27.81549">
        <ele>249.4</ele>
      </trkpt>
      <trkpt lat="37.55236" lon="27.81547">
        <ele>249.5</ele>
      </trkpt>
      <trkpt lat="37.55233" lon="27.81547">
        <ele>249.3</ele>
      </trkpt>
      <trkpt lat="37.55233" lon="27.81547">
        <ele>249.3</ele>
      </trkpt>
      <trkpt lat="37.5523" lon="27.81546">
        <ele>249.6</ele>
      </trkpt>
      <trkpt lat="37.55232" lon="27.81532">
        <ele>253.2</ele>
      </trkpt>
      <trkpt lat="37.55227" lon="27.81528">
        <ele>254.3</ele>
      </trkpt>
      <trkpt lat="37.55226" lon="27.81529">
        <ele>254.1</ele>
      </trkpt>
      <trkpt lat="37.55216" lon="27.81528">
        <ele>254.3</ele>
      </trkpt>
      <trkpt lat="37.55215" lon="27.81528">
        <ele>254.2</ele>
      </trkpt>
      <trkpt lat="37.55213" lon="27.8153">
        <ele>253.8</ele>
      </trkpt>
      <trkpt lat="37.55212" lon="27.81533">
        <ele>252.9</ele>
      </trkpt>
      <trkpt lat="37.55205" lon="27.81536">
        <ele>251.9</ele>
      </trkpt>
      <trkpt lat="37.55195" lon="27.8153">
        <ele>253.5</ele>
      </trkpt>
      <trkpt lat="37.55189" lon="27.81524">
        <ele>255.4</ele>
      </trkpt>
      <trkpt lat="37.55176" lon="27.81523">
        <ele>255.9</ele>
      </trkpt>
      <trkpt lat="37.55166" lon="27.81523">
        <ele>256.1</ele>
      </trkpt>
      <trkpt lat="37.55159" lon="27.81518">
        <ele>257.8</ele>
      </trkpt>
      <trkpt lat="37.55152" lon="27.81516">
        <ele>258.5</ele>
      </trkpt>
      <trkpt lat="37.55141" lon="27.81521">
        <ele>256.6</ele>
      </trkpt>
      <trkpt lat="37.55139" lon="27.81521">
        <ele>256.3</ele>
      </trkpt>
      <trkpt lat="37.5513" lon="27.81521">
        <ele>256.4</ele>
      </trkpt>
      <trkpt lat="37.55122" lon="27.8152">
        <ele>256.5</ele>
      </trkpt>
      <trkpt lat="37.55111" lon="27.8152">
        <ele>256.5</ele>
      </trkpt>
      <trkpt lat="37.55101" lon="27.81512">
        <ele>259.2</ele>
      </trkpt>
      <trkpt lat="37.55089" lon="27.81502">
        <ele>262.6</ele>
      </trkpt>
      <trkpt lat="37.55088" lon="27.81499">
        <ele>263.3</ele>
      </trkpt>
      <trkpt lat="37.55087" lon="27.81499">
        <ele>263.5</ele>
      </trkpt>
      <trkpt lat="37.55074" lon="27.81487">
        <ele>265.2</ele>
      </trkpt>
      <trkpt lat="37.55068" lon="27.81476">
        <ele>267.6</ele>
      </trkpt>
      <trkpt lat="37.5506" lon="27.81465">
        <ele>269.4</ele>
      </trkpt>
      <trkpt lat="37.55052" lon="27.81457">
        <ele>270.1</ele>
      </trkpt>
      <trkpt lat="37.55052" lon="27.81452">
        <ele>271.5</ele>
      </trkpt>
      <trkpt lat="37.55049" lon="27.81445">
        <ele>273</ele>
      </trkpt>
      <trkpt lat="37.5504" lon="27.8144">
        <ele>272.4</ele>
      </trkpt>
      <trkpt lat="37.55034" lon="27.81433">
        <ele>273.3</ele>
      </trkpt>
      <trkpt lat="37.55029" lon="27.81422">
        <ele>275.8</ele>
      </trkpt>
      <trkpt lat="37.55029" lon="27.81419">
        <ele>276.4</ele>
      </trkpt>
      <trkpt lat="37.55023" lon="27.81416">
        <ele>275.8</ele>
      </trkpt>
      <trkpt lat="37.55015" lon="27.81408">
        <ele>275.5</ele>
      </trkpt>
      <trkpt lat="37.55013" lon="27.81404">
        <ele>275.8</ele>
      </trkpt>
      <trkpt lat="37.55003" lon="27.81402">
        <ele>273.9</ele>
      </trkpt>
      <trkpt lat="37.54995" lon="27.81401">
        <ele>272.2</ele>
      </trkpt>
      <trkpt lat="37.54993" lon="27.814">
        <ele>272.1</ele>
      </trkpt>
      <trkpt lat="37.54983" lon="27.81397">
        <ele>270.3</ele>
      </trkpt>
      <trkpt lat="37.54969" lon="27.8139">
        <ele>268.7</ele>
      </trkpt>
      <trkpt lat="37.54958" lon="27.81376">
        <ele>269.2</ele>
      </trkpt>
      <trkpt lat="37.54949" lon="27.81363">
        <ele>270.1</ele>
      </trkpt>
      <trkpt lat="37.54942" lon="27.81352">
        <ele>270.9</ele>
      </trkpt>
      <trkpt lat="37.54931" lon="27.81339">
        <ele>271</ele>
      </trkpt>
      <trkpt lat="37.54926" lon="27.81337">
        <ele>270.4</ele>
      </trkpt>
      <trkpt lat="37.54923" lon="27.81335">
        <ele>270</ele>
      </trkpt>
      <trkpt lat="37.54916" lon="27.8132">
        <ele>271.2</ele>
      </trkpt>
      <trkpt lat="37.54915" lon="27.81318">
        <ele>271.4</ele>
      </trkpt>
      <trkpt lat="37.54908" lon="27.81307">
        <ele>271.5</ele>
      </trkpt>
      <trkpt lat="37.54909" lon="27.81295">
        <ele>273.6</ele>
      </trkpt>
      <trkpt lat="37.54908" lon="27.81288">
        <ele>274.6</ele>
      </trkpt>
      <trkpt lat="37.54913" lon="27.81274">
        <ele>278</ele>
      </trkpt>
      <trkpt lat="37.54911" lon="27.81263">
        <ele>279.4</ele>
      </trkpt>
      <trkpt lat="37.549" lon="27.81255">
        <ele>278.2</ele>
      </trkpt>
      <trkpt lat="37.54892" lon="27.8125">
        <ele>277.2</ele>
      </trkpt>
      <trkpt lat="37.54882" lon="27.81251">
        <ele>274.6</ele>
      </trkpt>
      <trkpt lat="37.54874" lon="27.81244">
        <ele>274.1</ele>
      </trkpt>
      <trkpt lat="37.54864" lon="27.81238">
        <ele>273.5</ele>
      </trkpt>
      <trkpt lat="37.54859" lon="27.81229">
        <ele>274.3</ele>
      </trkpt>
      <trkpt lat="37.54856" lon="27.81225">
        <ele>274.4</ele>
      </trkpt>
      <trkpt lat="37.54854" lon="27.81224">
        <ele>274.5</ele>
      </trkpt>
      <trkpt lat="37.54852" lon="27.81215">
        <ele>276.2</ele>
      </trkpt>
      <trkpt lat="37.54844" lon="27.81209">
        <ele>275.7</ele>
      </trkpt>
      <trkpt lat="37.54841" lon="27.81202">
        <ele>276.8</ele>
      </trkpt>
      <trkpt lat="37.54839" lon="27.81196">
        <ele>277.9</ele>
      </trkpt>
      <trkpt lat="37.54838" lon="27.81194">
        <ele>278.2</ele>
      </trkpt>
      <trkpt lat="37.54835" lon="27.81188">
        <ele>279</ele>
      </trkpt>
      <trkpt lat="37.54827" lon="27.81183">
        <ele>277.9</ele>
      </trkpt>
      <trkpt lat="37.5482" lon="27.81179">
        <ele>277</ele>
      </trkpt>
      <trkpt lat="37.54812" lon="27.81166">
        <ele>277.7</ele>
      </trkpt>
      <trkpt lat="37.54808" lon="27.81163">
        <ele>277</ele>
      </trkpt>
      <trkpt lat="37.54804" lon="27.81157">
        <ele>277</ele>
      </trkpt>
      <trkpt lat="37.54797" lon="27.81144">
        <ele>277.1</ele>
      </trkpt>
      <trkpt lat="37.54794" lon="27.8114">
        <ele>277</ele>
      </trkpt>
      <trkpt lat="37.54789" lon="27.81134">
        <ele>276.5</ele>
      </trkpt>
      <trkpt lat="37.54787" lon="27.81136">
        <ele>275.6</ele>
      </trkpt>
      <trkpt lat="37.54785" lon="27.81133">
        <ele>275.5</ele>
      </trkpt>
      <trkpt lat="37.54778" lon="27.81129">
        <ele>274.3</ele>
      </trkpt>
      <trkpt lat="37.5477" lon="27.81124">
        <ele>273</ele>
      </trkpt>
      <trkpt lat="37.54767" lon="27.81122">
        <ele>272.5</ele>
      </trkpt>
      <trkpt lat="37.5476" lon="27.8112">
        <ele>270.8</ele>
      </trkpt>
      <trkpt lat="37.54756" lon="27.81114">
        <ele>270.7</ele>
      </trkpt>
      <trkpt lat="37.54749" lon="27.81101">
        <ele>271.4</ele>
      </trkpt>
      <trkpt lat="37.54748" lon="27.811">
        <ele>271.5</ele>
      </trkpt>
      <trkpt lat="37.54745" lon="27.81097">
        <ele>271.3</ele>
      </trkpt>
      <trkpt lat="37.54736" lon="27.81082">
        <ele>272.3</ele>
      </trkpt>
      <trkpt lat="37.54733" lon="27.81078">
        <ele>272.1</ele>
      </trkpt>
      <trkpt lat="37.54732" lon="27.81079">
        <ele>271.8</ele>
      </trkpt>
      <trkpt lat="37.54729" lon="27.81077">
        <ele>271.3</ele>
      </trkpt>
      <trkpt lat="37.54725" lon="27.8107">
        <ele>271.7</ele>
      </trkpt>
      <trkpt lat="37.54721" lon="27.81066">
        <ele>271.5</ele>
      </trkpt>
      <trkpt lat="37.54719" lon="27.81055">
        <ele>272.7</ele>
      </trkpt>
      <trkpt lat="37.54714" lon="27.81055">
        <ele>271.8</ele>
      </trkpt>
      <trkpt lat="37.54708" lon="27.81058">
        <ele>270.2</ele>
      </trkpt>
      <trkpt lat="37.54704" lon="27.8106">
        <ele>268.9</ele>
      </trkpt>
      <trkpt lat="37.547" lon="27.81059">
        <ele>268.4</ele>
      </trkpt>
      <trkpt lat="37.54689" lon="27.81057">
        <ele>267</ele>
      </trkpt>
      <trkpt lat="37.54687" lon="27.81058">
        <ele>266.3</ele>
      </trkpt>
      <trkpt lat="37.54677" lon="27.81053">
        <ele>265.3</ele>
      </trkpt>
      <trkpt lat="37.54686" lon="27.81065">
        <ele>264.7</ele>
      </trkpt>
      <trkpt lat="37.54685" lon="27.81071">
        <ele>263.3</ele>
      </trkpt>
      <trkpt lat="37.54684" lon="27.81072">
        <ele>263.1</ele>
      </trkpt>
      <trkpt lat="37.54681" lon="27.8107">
        <ele>262.7</ele>
      </trkpt>
      <trkpt lat="37.54679" lon="27.81081">
        <ele>260.1</ele>
      </trkpt>
      <trkpt lat="37.54677" lon="27.81086">
        <ele>258.6</ele>
      </trkpt>
      <trkpt lat="37.5467" lon="27.81088">
        <ele>256.4</ele>
      </trkpt>
      <trkpt lat="37.54663" lon="27.81094">
        <ele>254.3</ele>
      </trkpt>
      <trkpt lat="37.54657" lon="27.81095">
        <ele>253.7</ele>
      </trkpt>
      <trkpt lat="37.54652" lon="27.81096">
        <ele>253.5</ele>
      </trkpt>
      <trkpt lat="37.5464" lon="27.81093">
        <ele>254</ele>
      </trkpt>
      <trkpt lat="37.54635" lon="27.81094">
        <ele>253.4</ele>
      </trkpt>
      <trkpt lat="37.54623" lon="27.811">
        <ele>251.8</ele>
      </trkpt>
      <trkpt lat="37.54608" lon="27.81102">
        <ele>250.8</ele>
      </trkpt>
      <trkpt lat="37.54595" lon="27.81102">
        <ele>250.3</ele>
      </trkpt>
      <trkpt lat="37.54585" lon="27.81102">
        <ele>250</ele>
      </trkpt>
      <trkpt lat="37.54571" lon="27.81103">
        <ele>247.4</ele>
      </trkpt>
      <trkpt lat="37.5457" lon="27.81103">
        <ele>247.2</ele>
      </trkpt>
      <trkpt lat="37.54564" lon="27.81095">
        <ele>247.6</ele>
      </trkpt>
      <trkpt lat="37.54559" lon="27.81084">
        <ele>249</ele>
      </trkpt>
      <trkpt lat="37.54559" lon="27.81081">
        <ele>249.6</ele>
      </trkpt>
      <trkpt lat="37.54555" lon="27.8107">
        <ele>250.7</ele>
      </trkpt>
      <trkpt lat="37.54552" lon="27.81061">
        <ele>251.9</ele>
      </trkpt>
      <trkpt lat="37.54544" lon="27.81054">
        <ele>250.9</ele>
      </trkpt>
      <trkpt lat="37.54542" lon="27.81056">
        <ele>250</ele>
      </trkpt>
      <trkpt lat="37.54542" lon="27.81034">
        <ele>253.9</ele>
      </trkpt>
      <trkpt lat="37.54546" lon="27.81019">
        <ele>257.8</ele>
      </trkpt>
      <trkpt lat="37.54546" lon="27.81012">
        <ele>259.3</ele>
      </trkpt>
      <trkpt lat="37.54545" lon="27.81004">
        <ele>260.6</ele>
      </trkpt>
      <trkpt lat="37.54547" lon="27.80985">
        <ele>264.3</ele>
      </trkpt>
      <trkpt lat="37.54545" lon="27.80968">
        <ele>266.5</ele>
      </trkpt>
      <trkpt lat="37.54545" lon="27.80963">
        <ele>267.1</ele>
      </trkpt>
      <trkpt lat="37.54545" lon="27.80959">
        <ele>267.8</ele>
      </trkpt>
      <trkpt lat="37.54545" lon="27.80958">
        <ele>268</ele>
      </trkpt>
      <trkpt lat="37.54545" lon="27.80956">
        <ele>268.1</ele>
      </trkpt>
      <trkpt lat="37.54546" lon="27.80944">
        <ele>270.4</ele>
      </trkpt>
      <trkpt lat="37.54541" lon="27.8093">
        <ele>271</ele>
      </trkpt>
      <trkpt lat="37.54539" lon="27.80928">
        <ele>271</ele>
      </trkpt>
      <trkpt lat="37.54533" lon="27.80913">
        <ele>271.5</ele>
      </trkpt>
      <trkpt lat="37.54527" lon="27.80903">
        <ele>272</ele>
      </trkpt>
      <trkpt lat="37.54519" lon="27.80893">
        <ele>272.1</ele>
      </trkpt>
      <trkpt lat="37.54517" lon="27.80897">
        <ele>270.5</ele>
      </trkpt>
      <trkpt lat="37.54517" lon="27.80893">
        <ele>271.6</ele>
      </trkpt>
      <trkpt lat="37.54506" lon="27.80888">
        <ele>269.6</ele>
      </trkpt>
      <trkpt lat="37.54507" lon="27.80881">
        <ele>271.2</ele>
      </trkpt>
      <trkpt lat="37.54511" lon="27.80871">
        <ele>274.9</ele>
      </trkpt>
      <trkpt lat="37.5451" lon="27.8087">
        <ele>274.8</ele>
      </trkpt>
      <trkpt lat="37.54509" lon="27.80864">
        <ele>275.9</ele>
      </trkpt>
      <trkpt lat="37.54508" lon="27.80855">
        <ele>277.7</ele>
      </trkpt>
      <trkpt lat="37.54497" lon="27.80844">
        <ele>277.9</ele>
      </trkpt>
      <trkpt lat="37.54487" lon="27.80833">
        <ele>278.4</ele>
      </trkpt>
      <trkpt lat="37.5448" lon="27.80819">
        <ele>280</ele>
      </trkpt>
      <trkpt lat="37.54477" lon="27.80805">
        <ele>282.1</ele>
      </trkpt>
      <trkpt lat="37.54473" lon="27.80788">
        <ele>284.9</ele>
      </trkpt>
      <trkpt lat="37.54464" lon="27.80772">
        <ele>285.9</ele>
      </trkpt>
      <trkpt lat="37.54463" lon="27.80762">
        <ele>287.5</ele>
      </trkpt>
      <trkpt lat="37.54459" lon="27.80757">
        <ele>287.8</ele>
      </trkpt>
      <trkpt lat="37.54449" lon="27.80744">
        <ele>288.1</ele>
      </trkpt>
      <trkpt lat="37.54447" lon="27.8074">
        <ele>288.3</ele>
      </trkpt>
      <trkpt lat="37.54447" lon="27.80731">
        <ele>290.1</ele>
      </trkpt>
      <trkpt lat="37.54449" lon="27.80724">
        <ele>292.1</ele>
      </trkpt>
      <trkpt lat="37.54444" lon="27.80708">
        <ele>294.1</ele>
      </trkpt>
      <trkpt lat="37.54439" lon="27.80691">
        <ele>295.6</ele>
      </trkpt>
      <trkpt lat="37.54429" lon="27.80679">
        <ele>294.9</ele>
      </trkpt>
      <trkpt lat="37.54429" lon="27.80676">
        <ele>295.6</ele>
      </trkpt>
      <trkpt lat="37.54431" lon="27.80673">
        <ele>296.7</ele>
      </trkpt>
      <trkpt lat="37.54433" lon="27.80663">
        <ele>298.8</ele>
      </trkpt>
      <trkpt lat="37.54436" lon="27.80659">
        <ele>300.6</ele>
      </trkpt>
      <trkpt lat="37.54433" lon="27.80642">
        <ele>302.3</ele>
      </trkpt>
      <trkpt lat="37.54433" lon="27.80638">
        <ele>302.8</ele>
      </trkpt>
      <trkpt lat="37.54426" lon="27.80624">
        <ele>302.8</ele>
      </trkpt>
      <trkpt lat="37.54425" lon="27.80618">
        <ele>303.4</ele>
      </trkpt>
      <trkpt lat="37.5442" lon="27.80613">
        <ele>302.6</ele>
      </trkpt>
      <trkpt lat="37.5441" lon="27.80599">
        <ele>302.6</ele>
      </trkpt>
      <trkpt lat="37.54412" lon="27.80577">
        <ele>306.3</ele>
      </trkpt>
      <trkpt lat="37.54413" lon="27.80575">
        <ele>306.7</ele>
      </trkpt>
      <trkpt lat="37.54414" lon="27.8056">
        <ele>310</ele>
      </trkpt>
      <trkpt lat="37.54416" lon="27.80555">
        <ele>311.3</ele>
      </trkpt>
      <trkpt lat="37.54416" lon="27.80553">
        <ele>311.6</ele>
      </trkpt>
      <trkpt lat="37.54414" lon="27.80539">
        <ele>313.9</ele>
      </trkpt>
      <trkpt lat="37.5441" lon="27.80533">
        <ele>314</ele>
      </trkpt>
      <trkpt lat="37.54404" lon="27.80522">
        <ele>314.9</ele>
      </trkpt>
      <trkpt lat="37.54401" lon="27.80519">
        <ele>314.6</ele>
      </trkpt>
      <trkpt lat="37.54388" lon="27.80514">
        <ele>312.8</ele>
      </trkpt>
      <trkpt lat="37.54381" lon="27.80504">
        <ele>312.7</ele>
      </trkpt>
      <trkpt lat="37.54373" lon="27.80493">
        <ele>313.2</ele>
      </trkpt>
      <trkpt lat="37.54371" lon="27.80492">
        <ele>312.7</ele>
      </trkpt>
      <trkpt lat="37.54359" lon="27.80486">
        <ele>311.2</ele>
      </trkpt>
      <trkpt lat="37.54359" lon="27.8049">
        <ele>310.4</ele>
      </trkpt>
      <trkpt lat="37.54353" lon="27.80481">
        <ele>310.9</ele>
      </trkpt>
      <trkpt lat="37.54351" lon="27.80468">
        <ele>313.1</ele>
      </trkpt>
      <trkpt lat="37.54348" lon="27.80459">
        <ele>314.1</ele>
      </trkpt>
      <trkpt lat="37.54346" lon="27.80455">
        <ele>314.8</ele>
      </trkpt>
      <trkpt lat="37.54342" lon="27.80439">
        <ele>317.2</ele>
      </trkpt>
      <trkpt lat="37.54341" lon="27.80425">
        <ele>319.9</ele>
      </trkpt>
      <trkpt lat="37.54339" lon="27.80411">
        <ele>322.5</ele>
      </trkpt>
      <trkpt lat="37.54336" lon="27.80405">
        <ele>323.3</ele>
      </trkpt>
      <trkpt lat="37.54331" lon="27.80393">
        <ele>325.5</ele>
      </trkpt>
      <trkpt lat="37.54326" lon="27.80385">
        <ele>327.8</ele>
      </trkpt>
      <trkpt lat="37.54326" lon="27.8038">
        <ele>328.9</ele>
      </trkpt>
      <trkpt lat="37.5433" lon="27.80378">
        <ele>329.1</ele>
      </trkpt>
      <trkpt lat="37.54342" lon="27.80384">
        <ele>329.2</ele>
      </trkpt>
      <trkpt lat="37.5435" lon="27.80381">
        <ele>331.5</ele>
      </trkpt>
      <trkpt lat="37.54348" lon="27.80377">
        <ele>332.1</ele>
      </trkpt>
      <trkpt lat="37.54343" lon="27.80363">
        <ele>334</ele>
      </trkpt>
      <trkpt lat="37.54335" lon="27.8035">
        <ele>335.4</ele>
      </trkpt>
      <trkpt lat="37.54332" lon="27.80345">
        <ele>336.4</ele>
      </trkpt>
      <trkpt lat="37.54331" lon="27.80342">
        <ele>337</ele>
      </trkpt>
      <trkpt lat="37.54334" lon="27.80326">
        <ele>340.4</ele>
      </trkpt>
      <trkpt lat="37.54333" lon="27.80324">
        <ele>340.7</ele>
      </trkpt>
      <trkpt lat="37.54332" lon="27.80311">
        <ele>343</ele>
      </trkpt>
      <trkpt lat="37.54324" lon="27.80299">
        <ele>344.7</ele>
      </trkpt>
      <trkpt lat="37.54314" lon="27.80288">
        <ele>346</ele>
      </trkpt>
      <trkpt lat="37.5431" lon="27.80273">
        <ele>348.1</ele>
      </trkpt>
      <trkpt lat="37.54308" lon="27.80255">
        <ele>350.5</ele>
      </trkpt>
      <trkpt lat="37.54305" lon="27.80239">
        <ele>352.9</ele>
      </trkpt>
      <trkpt lat="37.54302" lon="27.80231">
        <ele>354</ele>
      </trkpt>
      <trkpt lat="37.543" lon="27.80226">
        <ele>354.4</ele>
      </trkpt>
      <trkpt lat="37.54299" lon="27.80221">
        <ele>355.2</ele>
      </trkpt>
      <trkpt lat="37.54296" lon="27.80207">
        <ele>357.1</ele>
      </trkpt>
      <trkpt lat="37.54288" lon="27.80188">
        <ele>359</ele>
      </trkpt>
      <trkpt lat="37.54284" lon="27.80172">
        <ele>360.7</ele>
      </trkpt>
      <trkpt lat="37.54287" lon="27.80153">
        <ele>363.9</ele>
      </trkpt>
      <trkpt lat="37.54296" lon="27.80133">
        <ele>367.7</ele>
      </trkpt>
      <trkpt lat="37.54308" lon="27.80111">
        <ele>371.2</ele>
      </trkpt>
      <trkpt lat="37.54308" lon="27.80109">
        <ele>371.4</ele>
      </trkpt>
      <trkpt lat="37.54315" lon="27.80102">
        <ele>372.6</ele>
      </trkpt>
      <trkpt lat="37.54324" lon="27.80105">
        <ele>373.2</ele>
      </trkpt>
      <trkpt lat="37.5434" lon="27.80107">
        <ele>375.5</ele>
      </trkpt>
      <trkpt lat="37.54342" lon="27.80105">
        <ele>376</ele>
      </trkpt>
      <trkpt lat="37.54338" lon="27.80099">
        <ele>375.5</ele>
      </trkpt>
      <trkpt lat="37.54328" lon="27.80087">
        <ele>374.5</ele>
      </trkpt>
      <trkpt lat="37.54328" lon="27.80088">
        <ele>374.5</ele>
      </trkpt>
      <trkpt lat="37.5433" lon="27.80086">
        <ele>374.7</ele>
      </trkpt>
      <trkpt lat="37.54329" lon="27.8009">
        <ele>374.5</ele>
      </trkpt>
      <trkpt lat="37.54331" lon="27.8009">
        <ele>374.5</ele>
      </trkpt>
      <trkpt lat="37.54327" lon="27.8008">
        <ele>375.2</ele>
      </trkpt>
      <trkpt lat="37.54329" lon="27.80072">
        <ele>376.3</ele>
      </trkpt>
      <trkpt lat="37.54335" lon="27.80058">
        <ele>378.5</ele>
      </trkpt>
      <trkpt lat="37.54343" lon="27.80038">
        <ele>382.9</ele>
      </trkpt>
      <trkpt lat="37.54345" lon="27.80021">
        <ele>385.4</ele>
      </trkpt>
      <trkpt lat="37.54344" lon="27.80016">
        <ele>385.6</ele>
      </trkpt>
      <trkpt lat="37.54339" lon="27.80006">
        <ele>385.6</ele>
      </trkpt>
      <trkpt lat="37.54334" lon="27.79994">
        <ele>385.7</ele>
      </trkpt>
      <trkpt lat="37.54331" lon="27.79978">
        <ele>387.4</ele>
      </trkpt>
      <trkpt lat="37.54328" lon="27.79966">
        <ele>388.7</ele>
      </trkpt>
      <trkpt lat="37.54326" lon="27.79955">
        <ele>389.9</ele>
      </trkpt>
      <trkpt lat="37.54326" lon="27.79955">
        <ele>389.9</ele>
      </trkpt>
      <trkpt lat="37.54327" lon="27.79945">
        <ele>390.8</ele>
      </trkpt>
      <trkpt lat="37.54327" lon="27.79941">
        <ele>391.1</ele>
      </trkpt>
      <trkpt lat="37.54323" lon="27.79925">
        <ele>392.9</ele>
      </trkpt>
      <trkpt lat="37.54323" lon="27.79899">
        <ele>394.4</ele>
      </trkpt>
      <trkpt lat="37.54324" lon="27.79884">
        <ele>395</ele>
      </trkpt>
      <trkpt lat="37.54325" lon="27.79875">
        <ele>395.3</ele>
      </trkpt>
      <trkpt lat="37.54327" lon="27.79859">
        <ele>395.9</ele>
      </trkpt>
      <trkpt lat="37.54324" lon="27.79848">
        <ele>396.5</ele>
      </trkpt>
      <trkpt lat="37.54318" lon="27.79831">
        <ele>397.4</ele>
      </trkpt>
      <trkpt lat="37.54313" lon="27.79816">
        <ele>399.1</ele>
      </trkpt>
      <trkpt lat="37.54313" lon="27.79815">
        <ele>399.2</ele>
      </trkpt>
      <trkpt lat="37.54306" lon="27.79803">
        <ele>400.1</ele>
      </trkpt>
      <trkpt lat="37.54293" lon="27.79785">
        <ele>400.8</ele>
      </trkpt>
      <trkpt lat="37.54285" lon="27.79767">
        <ele>401.2</ele>
      </trkpt>
      <trkpt lat="37.54274" lon="27.79751">
        <ele>400.5</ele>
      </trkpt>
      <trkpt lat="37.54273" lon="27.79747">
        <ele>400.8</ele>
      </trkpt>
      <trkpt lat="37.54274" lon="27.79746">
        <ele>400.9</ele>
      </trkpt>
      <trkpt lat="37.54278" lon="27.79739">
        <ele>402.6</ele>
      </trkpt>
      <trkpt lat="37.54274" lon="27.79731">
        <ele>403</ele>
      </trkpt>
      <trkpt lat="37.54266" lon="27.79712">
        <ele>404.2</ele>
      </trkpt>
      <trkpt lat="37.54267" lon="27.79705">
        <ele>405.2</ele>
      </trkpt>
      <trkpt lat="37.54265" lon="27.79689">
        <ele>406.9</ele>
      </trkpt>
      <trkpt lat="37.54263" lon="27.79676">
        <ele>408.1</ele>
      </trkpt>
      <trkpt lat="37.54264" lon="27.79669">
        <ele>409.2</ele>
      </trkpt>
      <trkpt lat="37.54267" lon="27.7966">
        <ele>410.7</ele>
      </trkpt>
      <trkpt lat="37.54267" lon="27.79636">
        <ele>412.3</ele>
      </trkpt>
      <trkpt lat="37.54266" lon="27.79626">
        <ele>412.7</ele>
      </trkpt>
      <trkpt lat="37.54259" lon="27.79613">
        <ele>411.6</ele>
      </trkpt>
      <trkpt lat="37.54253" lon="27.79597">
        <ele>411.1</ele>
      </trkpt>
      <trkpt lat="37.54253" lon="27.79582">
        <ele>411.9</ele>
      </trkpt>
      <trkpt lat="37.54255" lon="27.79581">
        <ele>412.6</ele>
      </trkpt>
      <trkpt lat="37.54261" lon="27.7957">
        <ele>415.4</ele>
      </trkpt>
      <trkpt lat="37.54262" lon="27.79563">
        <ele>416.3</ele>
      </trkpt>
      <trkpt lat="37.54262" lon="27.79551">
        <ele>417.7</ele>
      </trkpt>
      <trkpt lat="37.54263" lon="27.79551">
        <ele>417.8</ele>
      </trkpt>
      <trkpt lat="37.54268" lon="27.79542">
        <ele>420.3</ele>
      </trkpt>
      <trkpt lat="37.5427" lon="27.79537">
        <ele>421.2</ele>
      </trkpt>
      <trkpt lat="37.5427" lon="27.7953">
        <ele>421.7</ele>
      </trkpt>
      <trkpt lat="37.54269" lon="27.7952">
        <ele>422.5</ele>
      </trkpt>
      <trkpt lat="37.54268" lon="27.79511">
        <ele>423.2</ele>
      </trkpt>
      <trkpt lat="37.54271" lon="27.79486">
        <ele>424.8</ele>
      </trkpt>
      <trkpt lat="37.54277" lon="27.79467">
        <ele>426.1</ele>
      </trkpt>
      <trkpt lat="37.54284" lon="27.79448">
        <ele>427.3</ele>
      </trkpt>
      <trkpt lat="37.54285" lon="27.79444">
        <ele>427.2</ele>
      </trkpt>
      <trkpt lat="37.54281" lon="27.79427">
        <ele>426.1</ele>
      </trkpt>
      <trkpt lat="37.54286" lon="27.79406">
        <ele>428</ele>
      </trkpt>
      <trkpt lat="37.54283" lon="27.79386">
        <ele>430.1</ele>
      </trkpt>
      <trkpt lat="37.54284" lon="27.79366">
        <ele>432.9</ele>
      </trkpt>
      <trkpt lat="37.54282" lon="27.79357">
        <ele>433.8</ele>
      </trkpt>
      <trkpt lat="37.54274" lon="27.7936">
        <ele>432.3</ele>
      </trkpt>
      <trkpt lat="37.5427" lon="27.79362">
        <ele>431.6</ele>
      </trkpt>
      <trkpt lat="37.54267" lon="27.79362">
        <ele>431.1</ele>
      </trkpt>
      <trkpt lat="37.5427" lon="27.79356">
        <ele>432.4</ele>
      </trkpt>
      <trkpt lat="37.54266" lon="27.79351">
        <ele>432.6</ele>
      </trkpt>
      <trkpt lat="37.54254" lon="27.79347">
        <ele>431.6</ele>
      </trkpt>
      <trkpt lat="37.54252" lon="27.79346">
        <ele>431.5</ele>
      </trkpt>
      <trkpt lat="37.5424" lon="27.79334">
        <ele>432.9</ele>
      </trkpt>
      <trkpt lat="37.54231" lon="27.79326">
        <ele>435.1</ele>
      </trkpt>
      <trkpt lat="37.54228" lon="27.79318">
        <ele>437.7</ele>
      </trkpt>
      <trkpt lat="37.54225" lon="27.79312">
        <ele>439.6</ele>
      </trkpt>
      <trkpt lat="37.54222" lon="27.79305">
        <ele>441.9</ele>
      </trkpt>
      <trkpt lat="37.54216" lon="27.79294">
        <ele>445</ele>
      </trkpt>
      <trkpt lat="37.54205" lon="27.7929">
        <ele>446.3</ele>
      </trkpt>
      <trkpt lat="37.54193" lon="27.79288">
        <ele>446.9</ele>
      </trkpt>
      <trkpt lat="37.54185" lon="27.79289">
        <ele>446.3</ele>
      </trkpt>
      <trkpt lat="37.54189" lon="27.79282">
        <ele>448.6</ele>
      </trkpt>
      <trkpt lat="37.54191" lon="27.79275">
        <ele>450.7</ele>
      </trkpt>
      <trkpt lat="37.54198" lon="27.79265">
        <ele>453.9</ele>
      </trkpt>
      <trkpt lat="37.54204" lon="27.79253">
        <ele>457.5</ele>
      </trkpt>
      <trkpt lat="37.54202" lon="27.79248">
        <ele>458.8</ele>
      </trkpt>
      <trkpt lat="37.54198" lon="27.79249">
        <ele>458.6</ele>
      </trkpt>
      <trkpt lat="37.54188" lon="27.7925">
        <ele>458.4</ele>
      </trkpt>
      <trkpt lat="37.54186" lon="27.79249">
        <ele>458.6</ele>
      </trkpt>
      <trkpt lat="37.54172" lon="27.7925">
        <ele>458</ele>
      </trkpt>
      <trkpt lat="37.54168" lon="27.79256">
        <ele>456.1</ele>
      </trkpt>
      <trkpt lat="37.54161" lon="27.79257">
        <ele>455.9</ele>
      </trkpt>
      <trkpt lat="37.5415" lon="27.79253">
        <ele>456.4</ele>
      </trkpt>
      <trkpt lat="37.54142" lon="27.79246">
        <ele>458.1</ele>
      </trkpt>
      <trkpt lat="37.54142" lon="27.79247">
        <ele>457.8</ele>
      </trkpt>
      <trkpt lat="37.5414" lon="27.7924">
        <ele>459.5</ele>
      </trkpt>
      <trkpt lat="37.54146" lon="27.79224">
        <ele>463.9</ele>
      </trkpt>
      <trkpt lat="37.54145" lon="27.79222">
        <ele>464.3</ele>
      </trkpt>
      <trkpt lat="37.54133" lon="27.79208">
        <ele>467.5</ele>
      </trkpt>
      <trkpt lat="37.54129" lon="27.79207">
        <ele>467.7</ele>
      </trkpt>
      <trkpt lat="37.54121" lon="27.79192">
        <ele>471.4</ele>
      </trkpt>
      <trkpt lat="37.5412" lon="27.79188">
        <ele>472.3</ele>
      </trkpt>
      <trkpt lat="37.54118" lon="27.79184">
        <ele>473.3</ele>
      </trkpt>
      <trkpt lat="37.54115" lon="27.79179">
        <ele>474.6</ele>
      </trkpt>
      <trkpt lat="37.54115" lon="27.79177">
        <ele>475</ele>
      </trkpt>
      <trkpt lat="37.54111" lon="27.79166">
        <ele>477.7</ele>
      </trkpt>
      <trkpt lat="37.5411" lon="27.79166">
        <ele>477.8</ele>
      </trkpt>
      <trkpt lat="37.54105" lon="27.79163">
        <ele>478.3</ele>
      </trkpt>
      <trkpt lat="37.54105" lon="27.79155">
        <ele>480.2</ele>
      </trkpt>
      <trkpt lat="37.54104" lon="27.79146">
        <ele>482.2</ele>
      </trkpt>
      <trkpt lat="37.54104" lon="27.79144">
        <ele>482.7</ele>
      </trkpt>
      <trkpt lat="37.54101" lon="27.79129">
        <ele>486</ele>
      </trkpt>
      <trkpt lat="37.54099" lon="27.79124">
        <ele>487</ele>
      </trkpt>
      <trkpt lat="37.54097" lon="27.7912">
        <ele>488</ele>
      </trkpt>
      <trkpt lat="37.54097" lon="27.79116">
        <ele>488.9</ele>
      </trkpt>
      <trkpt lat="37.54104" lon="27.79108">
        <ele>491</ele>
      </trkpt>
      <trkpt lat="37.54112" lon="27.791">
        <ele>493.4</ele>
      </trkpt>
      <trkpt lat="37.541" lon="27.79096">
        <ele>493.6</ele>
      </trkpt>
      <trkpt lat="37.54097" lon="27.79102">
        <ele>492</ele>
      </trkpt>
      <trkpt lat="37.54096" lon="27.79105">
        <ele>491.2</ele>
      </trkpt>
      <trkpt lat="37.54097" lon="27.79105">
        <ele>491.2</ele>
      </trkpt>
      <trkpt lat="37.54095" lon="27.79094">
        <ele>493.7</ele>
      </trkpt>
      <trkpt lat="37.54095" lon="27.79094">
        <ele>493.6</ele>
      </trkpt>
      <trkpt lat="37.54092" lon="27.79088">
        <ele>494.7</ele>
      </trkpt>
      <trkpt lat="37.54091" lon="27.79074">
        <ele>498.5</ele>
      </trkpt>
      <trkpt lat="37.54082" lon="27.79082">
        <ele>495.6</ele>
      </trkpt>
      <trkpt lat="37.54081" lon="27.79084">
        <ele>495.2</ele>
      </trkpt>
      <trkpt lat="37.54077" lon="27.79084">
        <ele>495.6</ele>
      </trkpt>
      <trkpt lat="37.54074" lon="27.79082">
        <ele>496.5</ele>
      </trkpt>
      <trkpt lat="37.54072" lon="27.79074">
        <ele>499.1</ele>
      </trkpt>
      <trkpt lat="37.54064" lon="27.79064">
        <ele>502.5</ele>
      </trkpt>
      <trkpt lat="37.54059" lon="27.79061">
        <ele>503.7</ele>
      </trkpt>
      <trkpt lat="37.54058" lon="27.79061">
        <ele>503.9</ele>
      </trkpt>
      <trkpt lat="37.5406" lon="27.79059">
        <ele>504.2</ele>
      </trkpt>
      <trkpt lat="37.54053" lon="27.79056">
        <ele>505.4</ele>
      </trkpt>
      <trkpt lat="37.5405" lon="27.79052">
        <ele>506.9</ele>
      </trkpt>
      <trkpt lat="37.54056" lon="27.79049">
        <ele>507.3</ele>
      </trkpt>
      <trkpt lat="37.54056" lon="27.79044">
        <ele>508.6</ele>
      </trkpt>
      <trkpt lat="37.54055" lon="27.79042">
        <ele>509</ele>
      </trkpt>
      <trkpt lat="37.54048" lon="27.79032">
        <ele>512.2</ele>
      </trkpt>
      <trkpt lat="37.54039" lon="27.79023">
        <ele>514.9</ele>
      </trkpt>
      <trkpt lat="37.54034" lon="27.79023">
        <ele>514.9</ele>
      </trkpt>
      <trkpt lat="37.54016" lon="27.79036">
        <ele>512.8</ele>
      </trkpt>
      <trkpt lat="37.54013" lon="27.79032">
        <ele>513.8</ele>
      </trkpt>
      <trkpt lat="37.54013" lon="27.7903">
        <ele>514.2</ele>
      </trkpt>
      <trkpt lat="37.5401" lon="27.79019">
        <ele>516.7</ele>
      </trkpt>
      <trkpt lat="37.54006" lon="27.79018">
        <ele>517.2</ele>
      </trkpt>
      <trkpt lat="37.54003" lon="27.79015">
        <ele>517.9</ele>
      </trkpt>
      <trkpt lat="37.53997" lon="27.79013">
        <ele>518.8</ele>
      </trkpt>
      <trkpt lat="37.53996" lon="27.79011">
        <ele>519.1</ele>
      </trkpt>
      <trkpt lat="37.53991" lon="27.79021">
        <ele>517.8</ele>
      </trkpt>
      <trkpt lat="37.5399" lon="27.79015">
        <ele>519.1</ele>
      </trkpt>
      <trkpt lat="37.53988" lon="27.79007">
        <ele>521</ele>
      </trkpt>
      <trkpt lat="37.53987" lon="27.78996">
        <ele>523.6</ele>
      </trkpt>
      <trkpt lat="37.53985" lon="27.78986">
        <ele>526.5</ele>
      </trkpt>
      <trkpt lat="37.53992" lon="27.78973">
        <ele>528.9</ele>
      </trkpt>
      <trkpt lat="37.53996" lon="27.78968">
        <ele>529.7</ele>
      </trkpt>
      <trkpt lat="37.54003" lon="27.78952">
        <ele>533</ele>
      </trkpt>
      <trkpt lat="37.54006" lon="27.78941">
        <ele>535.7</ele>
      </trkpt>
      <trkpt lat="37.54008" lon="27.78925">
        <ele>539.9</ele>
      </trkpt>
      <trkpt lat="37.54007" lon="27.78925">
        <ele>539.8</ele>
      </trkpt>
      <trkpt lat="37.54007" lon="27.78917">
        <ele>541.8</ele>
      </trkpt>
      <trkpt lat="37.54013" lon="27.78888">
        <ele>547.9</ele>
      </trkpt>
      <trkpt lat="37.5402" lon="27.78878">
        <ele>549.7</ele>
      </trkpt>
      <trkpt lat="37.54021" lon="27.78877">
        <ele>549.8</ele>
      </trkpt>
      <trkpt lat="37.5404" lon="27.7888">
        <ele>548.2</ele>
      </trkpt>
      <trkpt lat="37.54061" lon="27.78888">
        <ele>545.9</ele>
      </trkpt>
      <trkpt lat="37.54066" lon="27.78887">
        <ele>545.7</ele>
      </trkpt>
      <trkpt lat="37.54068" lon="27.78881">
        <ele>546.5</ele>
      </trkpt>
      <trkpt lat="37.54066" lon="27.78876">
        <ele>547.5</ele>
      </trkpt>
      <trkpt lat="37.54058" lon="27.78862">
        <ele>550.1</ele>
      </trkpt>
      <trkpt lat="37.54056" lon="27.78859">
        <ele>550.7</ele>
      </trkpt>
      <trkpt lat="37.54049" lon="27.78838">
        <ele>554.9</ele>
      </trkpt>
      <trkpt lat="37.54047" lon="27.78835">
        <ele>555.7</ele>
      </trkpt>
      <trkpt lat="37.54037" lon="27.78814">
        <ele>559.1</ele>
      </trkpt>
      <trkpt lat="37.54035" lon="27.78818">
        <ele>558.8</ele>
      </trkpt>
      <trkpt lat="37.54034" lon="27.78819">
        <ele>558.9</ele>
      </trkpt>
      <trkpt lat="37.54034" lon="27.78812">
        <ele>559.6</ele>
      </trkpt>
      <trkpt lat="37.54036" lon="27.78796">
        <ele>561</ele>
      </trkpt>
      <trkpt lat="37.54036" lon="27.7878">
        <ele>562.7</ele>
      </trkpt>
      <trkpt lat="37.54035" lon="27.78774">
        <ele>563.5</ele>
      </trkpt>
      <trkpt lat="37.54028" lon="27.78762">
        <ele>565.7</ele>
      </trkpt>
      <trkpt lat="37.54022" lon="27.78753">
        <ele>567.5</ele>
      </trkpt>
      <trkpt lat="37.5401" lon="27.78751">
        <ele>569.3</ele>
      </trkpt>
      <trkpt lat="37.54002" lon="27.78759">
        <ele>569.6</ele>
      </trkpt>
      <trkpt lat="37.53997" lon="27.78763">
        <ele>569.6</ele>
      </trkpt>
      <trkpt lat="37.53985" lon="27.78765">
        <ele>570</ele>
      </trkpt>
      <trkpt lat="37.53978" lon="27.78758">
        <ele>571.2</ele>
      </trkpt>
      <trkpt lat="37.53969" lon="27.78747">
        <ele>572.8</ele>
      </trkpt>
      <trkpt lat="37.53962" lon="27.78735">
        <ele>573.9</ele>
      </trkpt>
      <trkpt lat="37.53957" lon="27.78719">
        <ele>575.3</ele>
      </trkpt>
      <trkpt lat="37.53962" lon="27.78696">
        <ele>576.7</ele>
      </trkpt>
      <trkpt lat="37.53959" lon="27.78681">
        <ele>578</ele>
      </trkpt>
      <trkpt lat="37.53959" lon="27.78664">
        <ele>579</ele>
      </trkpt>
      <trkpt lat="37.53958" lon="27.78642">
        <ele>579.3</ele>
      </trkpt>
      <trkpt lat="37.53962" lon="27.78635">
        <ele>579.3</ele>
      </trkpt>
      <trkpt lat="37.53963" lon="27.78617">
        <ele>579.4</ele>
      </trkpt>
      <trkpt lat="37.53963" lon="27.78617">
        <ele>579.4</ele>
      </trkpt>
      <trkpt lat="37.53955" lon="27.78591">
        <ele>580</ele>
      </trkpt>
      <trkpt lat="37.53955" lon="27.78591">
        <ele>580</ele>
      </trkpt>
      <trkpt lat="37.53955" lon="27.78591">
        <ele>580</ele>
      </trkpt>
      <trkpt lat="37.53955" lon="27.78591">
        <ele>580</ele>
      </trkpt>
      <trkpt lat="37.53955" lon="27.78591">
        <ele>580</ele>
      </trkpt>
      <trkpt lat="37.53938" lon="27.78575">
        <ele>580.5</ele>
      </trkpt>
      <trkpt lat="37.53938" lon="27.78575">
        <ele>580.5</ele>
      </trkpt>
      <trkpt lat="37.5393" lon="27.78566">
        <ele>580.9</ele>
      </trkpt>
      <trkpt lat="37.53919" lon="27.78549">
        <ele>581.7</ele>
      </trkpt>
      <trkpt lat="37.53912" lon="27.78533">
        <ele>582.2</ele>
      </trkpt>
      <trkpt lat="37.53912" lon="27.78533">
        <ele>582.2</ele>
      </trkpt>
      <trkpt lat="37.53912" lon="27.78533">
        <ele>582.2</ele>
      </trkpt>
      <trkpt lat="37.53912" lon="27.78533">
        <ele>582.2</ele>
      </trkpt>
      <trkpt lat="37.53912" lon="27.78533">
        <ele>582.2</ele>
      </trkpt>
      <trkpt lat="37.53912" lon="27.78533">
        <ele>582.2</ele>
      </trkpt>
      <trkpt lat="37.53912" lon="27.78533">
        <ele>582.2</ele>
      </trkpt>
      <trkpt lat="37.53912" lon="27.78533">
        <ele>582.2</ele>
      </trkpt>
      <trkpt lat="37.53912" lon="27.78533">
        <ele>582.2</ele>
      </trkpt>
      <trkpt lat="37.53912" lon="27.78533">
        <ele>582.2</ele>
      </trkpt>
      <trkpt lat="37.53912" lon="27.78533">
        <ele>582.2</ele>
      </trkpt>
      <trkpt lat="37.53912" lon="27.78533">
        <ele>582.2</ele>
      </trkpt>
      <trkpt lat="37.53912" lon="27.78533">
        <ele>582.2</ele>
      </trkpt>
      <trkpt lat="37.53912" lon="27.78533">
        <ele>582.2</ele>
      </trkpt>
      <trkpt lat="37.53912" lon="27.78533">
        <ele>582.2</ele>
      </trkpt>
      <trkpt lat="37.53912" lon="27.78533">
        <ele>582.2</ele>
      </trkpt>
      <trkpt lat="37.53912" lon="27.78533">
        <ele>582.2</ele>
      </trkpt>
      <trkpt lat="37.53912" lon="27.78533">
        <ele>582.2</ele>
      </trkpt>
      <trkpt lat="37.53912" lon="27.78533">
        <ele>582.2</ele>
      </trkpt>
      <trkpt lat="37.5391" lon="27.78528">
        <ele>582.4</ele>
      </trkpt>
      <trkpt lat="37.53909" lon="27.78523">
        <ele>582.6</ele>
      </trkpt>
      <trkpt lat="37.53904" lon="27.78504">
        <ele>583.6</ele>
      </trkpt>
      <trkpt lat="37.53906" lon="27.78478">
        <ele>583.5</ele>
      </trkpt>
      <trkpt lat="37.53906" lon="27.78473">
        <ele>583.5</ele>
      </trkpt>
      <trkpt lat="37.53915" lon="27.78437">
        <ele>581.7</ele>
      </trkpt>
      <trkpt lat="37.53918" lon="27.7843">
        <ele>581.2</ele>
      </trkpt>
      <trkpt lat="37.53925" lon="27.78407">
        <ele>578.9</ele>
      </trkpt>
      <trkpt lat="37.53929" lon="27.78393">
        <ele>577</ele>
      </trkpt>
      <trkpt lat="37.53934" lon="27.78373">
        <ele>574.6</ele>
      </trkpt>
      <trkpt lat="37.53936" lon="27.78368">
        <ele>573.9</ele>
      </trkpt>
      <trkpt lat="37.53939" lon="27.78358">
        <ele>572.8</ele>
      </trkpt>
      <trkpt lat="37.53948" lon="27.78329">
        <ele>569.6</ele>
      </trkpt>
      <trkpt lat="37.53948" lon="27.78326">
        <ele>569.2</ele>
      </trkpt>
      <trkpt lat="37.53946" lon="27.78303">
        <ele>566.9</ele>
      </trkpt>
      <trkpt lat="37.53943" lon="27.7829">
        <ele>566</ele>
      </trkpt>
      <trkpt lat="37.53938" lon="27.7827">
        <ele>564.5</ele>
      </trkpt>
      <trkpt lat="37.53927" lon="27.78228">
        <ele>560.1</ele>
      </trkpt>
      <trkpt lat="37.53923" lon="27.78212">
        <ele>558.1</ele>
      </trkpt>
      <trkpt lat="37.53915" lon="27.78181">
        <ele>554.6</ele>
      </trkpt>
      <trkpt lat="37.53913" lon="27.78173">
        <ele>554.1</ele>
      </trkpt>
      <trkpt lat="37.53899" lon="27.78142">
        <ele>552.9</ele>
      </trkpt>
      <trkpt lat="37.53897" lon="27.78126">
        <ele>550.8</ele>
      </trkpt>
      <trkpt lat="37.53896" lon="27.7809">
        <ele>545</ele>
      </trkpt>
      <trkpt lat="37.53895" lon="27.78081">
        <ele>544</ele>
      </trkpt>
      <trkpt lat="37.53878" lon="27.78045">
        <ele>545.2</ele>
      </trkpt>
      <trkpt lat="37.53874" lon="27.78002">
        <ele>541.3</ele>
      </trkpt>
      <trkpt lat="37.53873" lon="27.77977">
        <ele>540.5</ele>
      </trkpt>
      <trkpt lat="37.5388" lon="27.77958">
        <ele>539.3</ele>
      </trkpt>
      <trkpt lat="37.53915" lon="27.77951">
        <ele>536.5</ele>
      </trkpt>
      <trkpt lat="37.53925" lon="27.77951">
        <ele>537.1</ele>
      </trkpt>
      <trkpt lat="37.53929" lon="27.77953">
        <ele>537.4</ele>
      </trkpt>
      <trkpt lat="37.53931" lon="27.77954">
        <ele>537.5</ele>
      </trkpt>
      <trkpt lat="37.53938" lon="27.77956">
        <ele>538.1</ele>
      </trkpt>
      <trkpt lat="37.53944" lon="27.77959">
        <ele>538.4</ele>
      </trkpt>
      <trkpt lat="37.53952" lon="27.77956">
        <ele>539.3</ele>
      </trkpt>
      <trkpt lat="37.53961" lon="27.77953">
        <ele>540.3</ele>
      </trkpt>
      <trkpt lat="37.5397" lon="27.77949">
        <ele>541.3</ele>
      </trkpt>
      <trkpt lat="37.53975" lon="27.77943">
        <ele>542.1</ele>
      </trkpt>
      <trkpt lat="37.53982" lon="27.77938">
        <ele>543</ele>
      </trkpt>
      <trkpt lat="37.53987" lon="27.77932">
        <ele>543.9</ele>
      </trkpt>
      <trkpt lat="37.5399" lon="27.77925">
        <ele>544.5</ele>
      </trkpt>
      <trkpt lat="37.53995" lon="27.77919">
        <ele>545.4</ele>
      </trkpt>
      <trkpt lat="37.54001" lon="27.77913">
        <ele>546.4</ele>
      </trkpt>
      <trkpt lat="37.54008" lon="27.77908">
        <ele>547.8</ele>
      </trkpt>
      <trkpt lat="37.54014" lon="27.77902">
        <ele>549.1</ele>
      </trkpt>
      <trkpt lat="37.54019" lon="27.77895">
        <ele>550.3</ele>
      </trkpt>
      <trkpt lat="37.54025" lon="27.77889">
        <ele>551.5</ele>
      </trkpt>
      <trkpt lat="37.5403" lon="27.77882">
        <ele>552.7</ele>
      </trkpt>
      <trkpt lat="37.54034" lon="27.77874">
        <ele>553.7</ele>
      </trkpt>
      <trkpt lat="37.54041" lon="27.7787">
        <ele>555</ele>
      </trkpt>
      <trkpt lat="37.54048" lon="27.77871">
        <ele>555.9</ele>
      </trkpt>
      <trkpt lat="37.54054" lon="27.77874">
        <ele>556.6</ele>
      </trkpt>
      <trkpt lat="37.54061" lon="27.77877">
        <ele>557.3</ele>
      </trkpt>
      <trkpt lat="37.5407" lon="27.7788">
        <ele>558.3</ele>
      </trkpt>
      <trkpt lat="37.54077" lon="27.77883">
        <ele>559.1</ele>
      </trkpt>
      <trkpt lat="37.54084" lon="27.77887">
        <ele>559.7</ele>
      </trkpt>
      <trkpt lat="37.54091" lon="27.77888">
        <ele>559.1</ele>
      </trkpt>
      <trkpt lat="37.54099" lon="27.77885">
        <ele>558.6</ele>
      </trkpt>
      <trkpt lat="37.54107" lon="27.77882">
        <ele>558.2</ele>
      </trkpt>
      <trkpt lat="37.54116" lon="27.77877">
        <ele>557.9</ele>
      </trkpt>
      <trkpt lat="37.5412" lon="27.77869">
        <ele>558.1</ele>
      </trkpt>
      <trkpt lat="37.54125" lon="27.77861">
        <ele>558.3</ele>
      </trkpt>
      <trkpt lat="37.54129" lon="27.77854">
        <ele>558.6</ele>
      </trkpt>
      <trkpt lat="37.54129" lon="27.77844">
        <ele>559.4</ele>
      </trkpt>
      <trkpt lat="37.54129" lon="27.77835">
        <ele>560.1</ele>
      </trkpt>
      <trkpt lat="37.54133" lon="27.77826">
        <ele>560.8</ele>
      </trkpt>
      <trkpt lat="37.54136" lon="27.77818">
        <ele>561.7</ele>
      </trkpt>
      <trkpt lat="37.54137" lon="27.7781">
        <ele>562.6</ele>
      </trkpt>
      <trkpt lat="37.54138" lon="27.77801">
        <ele>563.5</ele>
      </trkpt>
      <trkpt lat="37.54141" lon="27.77793">
        <ele>564.5</ele>
      </trkpt>
      <trkpt lat="37.54145" lon="27.77785">
        <ele>565.3</ele>
      </trkpt>
      <trkpt lat="37.54146" lon="27.77776">
        <ele>566.2</ele>
      </trkpt>
      <trkpt lat="37.54151" lon="27.77768">
        <ele>567.2</ele>
      </trkpt>
      <trkpt lat="37.54153" lon="27.7776">
        <ele>568.1</ele>
      </trkpt>
      <trkpt lat="37.54158" lon="27.77754">
        <ele>568.7</ele>
      </trkpt>
      <trkpt lat="37.54163" lon="27.77746">
        <ele>569.4</ele>
      </trkpt>
      <trkpt lat="37.54165" lon="27.77738">
        <ele>570.1</ele>
      </trkpt>
      <trkpt lat="37.54167" lon="27.77731">
        <ele>570.6</ele>
      </trkpt>
      <trkpt lat="37.54171" lon="27.77722">
        <ele>570.9</ele>
      </trkpt>
      <trkpt lat="37.54177" lon="27.77715">
        <ele>570.8</ele>
      </trkpt>
      <trkpt lat="37.54179" lon="27.77706">
        <ele>571.2</ele>
      </trkpt>
      <trkpt lat="37.54181" lon="27.77698">
        <ele>571.6</ele>
      </trkpt>
      <trkpt lat="37.54177" lon="27.7769">
        <ele>572.7</ele>
      </trkpt>
      <trkpt lat="37.54172" lon="27.77683">
        <ele>573.9</ele>
      </trkpt>
      <trkpt lat="37.54167" lon="27.77677">
        <ele>575.1</ele>
      </trkpt>
      <trkpt lat="37.54161" lon="27.77671">
        <ele>576.1</ele>
      </trkpt>
      <trkpt lat="37.54156" lon="27.77665">
        <ele>577.1</ele>
      </trkpt>
      <trkpt lat="37.5415" lon="27.77661">
        <ele>577.9</ele>
      </trkpt>
      <trkpt lat="37.54146" lon="27.77652">
        <ele>579</ele>
      </trkpt>
      <trkpt lat="37.54146" lon="27.77642">
        <ele>579.9</ele>
      </trkpt>
      <trkpt lat="37.54144" lon="27.77632">
        <ele>581</ele>
      </trkpt>
      <trkpt lat="37.5414" lon="27.77624">
        <ele>581.9</ele>
      </trkpt>
      <trkpt lat="37.54137" lon="27.77617">
        <ele>582.9</ele>
      </trkpt>
      <trkpt lat="37.54135" lon="27.77606">
        <ele>584</ele>
      </trkpt>
      <trkpt lat="37.54132" lon="27.77596">
        <ele>585.2</ele>
      </trkpt>
      <trkpt lat="37.54131" lon="27.77586">
        <ele>586.2</ele>
      </trkpt>
      <trkpt lat="37.54131" lon="27.77577">
        <ele>586.6</ele>
      </trkpt>
      <trkpt lat="37.5413" lon="27.77567">
        <ele>586.8</ele>
      </trkpt>
      <trkpt lat="37.54128" lon="27.77556">
        <ele>587.2</ele>
      </trkpt>
      <trkpt lat="37.54127" lon="27.77546">
        <ele>587.5</ele>
      </trkpt>
      <trkpt lat="37.5413" lon="27.77539">
        <ele>587.2</ele>
      </trkpt>
      <trkpt lat="37.54115" lon="27.77519">
        <ele>589.4</ele>
      </trkpt>
      <trkpt lat="37.54115" lon="27.77507">
        <ele>589.6</ele>
      </trkpt>
      <trkpt lat="37.54115" lon="27.77506">
        <ele>589.7</ele>
      </trkpt>
      <trkpt lat="37.54109" lon="27.77486">
        <ele>590.5</ele>
      </trkpt>
      <trkpt lat="37.54101" lon="27.77461">
        <ele>591.1</ele>
      </trkpt>
      <trkpt lat="37.54093" lon="27.77436">
        <ele>591.5</ele>
      </trkpt>
      <trkpt lat="37.54079" lon="27.77403">
        <ele>594.6</ele>
      </trkpt>
      <trkpt lat="37.54071" lon="27.77384">
        <ele>598.2</ele>
      </trkpt>
      <trkpt lat="37.54075" lon="27.77367">
        <ele>599.3</ele>
      </trkpt>
      <trkpt lat="37.54091" lon="27.7736">
        <ele>598.3</ele>
      </trkpt>
      <trkpt lat="37.54105" lon="27.77358">
        <ele>597.6</ele>
      </trkpt>
      <trkpt lat="37.54125" lon="27.77353">
        <ele>596.8</ele>
      </trkpt>
      <trkpt lat="37.54142" lon="27.77337">
        <ele>598</ele>
      </trkpt>
      <trkpt lat="37.54145" lon="27.77334">
        <ele>598.3</ele>
      </trkpt>
      <trkpt lat="37.54163" lon="27.77314">
        <ele>600.6</ele>
      </trkpt>
      <trkpt lat="37.54181" lon="27.77298">
        <ele>602.1</ele>
      </trkpt>
      <trkpt lat="37.54195" lon="27.77283">
        <ele>603.4</ele>
      </trkpt>
      <trkpt lat="37.54259" lon="27.7722">
        <ele>604.7</ele>
      </trkpt>
      <trkpt lat="37.5426" lon="27.77216">
        <ele>604.7</ele>
      </trkpt>
      <trkpt lat="37.54257" lon="27.77196">
        <ele>606</ele>
      </trkpt>
      <trkpt lat="37.54257" lon="27.77196">
        <ele>606</ele>
      </trkpt>
      <trkpt lat="37.54255" lon="27.77194">
        <ele>606.5</ele>
      </trkpt>
      <trkpt lat="37.54243" lon="27.77179">
        <ele>609.4</ele>
      </trkpt>
      <trkpt lat="37.54227" lon="27.77167">
        <ele>612.8</ele>
      </trkpt>
      <trkpt lat="37.54213" lon="27.77155">
        <ele>614.3</ele>
      </trkpt>
      <trkpt lat="37.54199" lon="27.77138">
        <ele>615.4</ele>
      </trkpt>
      <trkpt lat="37.54184" lon="27.77122">
        <ele>616.6</ele>
      </trkpt>
      <trkpt lat="37.54167" lon="27.77109">
        <ele>618.1</ele>
      </trkpt>
      <trkpt lat="37.54151" lon="27.77098">
        <ele>619.6</ele>
      </trkpt>
      <trkpt lat="37.54149" lon="27.77097">
        <ele>619.9</ele>
      </trkpt>
      <trkpt lat="37.54148" lon="27.77095">
        <ele>619.9</ele>
      </trkpt>
      <trkpt lat="37.54133" lon="27.77094">
        <ele>622.1</ele>
      </trkpt>
      <trkpt lat="37.54123" lon="27.77103">
        <ele>623.6</ele>
      </trkpt>
      <trkpt lat="37.54117" lon="27.77119">
        <ele>624.1</ele>
      </trkpt>
      <trkpt lat="37.54108" lon="27.77117">
        <ele>625.1</ele>
      </trkpt>
      <trkpt lat="37.54095" lon="27.77108">
        <ele>627.1</ele>
      </trkpt>
      <trkpt lat="37.54092" lon="27.77093">
        <ele>628.7</ele>
      </trkpt>
      <trkpt lat="37.54087" lon="27.77072">
        <ele>630</ele>
      </trkpt>
      <trkpt lat="37.54082" lon="27.7707">
        <ele>630.6</ele>
      </trkpt>
      <trkpt lat="37.54075" lon="27.77066">
        <ele>631</ele>
      </trkpt>
      <trkpt lat="37.54067" lon="27.77053">
        <ele>631.4</ele>
      </trkpt>
      <trkpt lat="37.5406" lon="27.77037">
        <ele>631.9</ele>
      </trkpt>
      <trkpt lat="37.54055" lon="27.77033">
        <ele>632.4</ele>
      </trkpt>
      <trkpt lat="37.54052" lon="27.7703">
        <ele>632.7</ele>
      </trkpt>
      <trkpt lat="37.54048" lon="27.77029">
        <ele>633.2</ele>
      </trkpt>
      <trkpt lat="37.54042" lon="27.77017">
        <ele>634.2</ele>
      </trkpt>
      <trkpt lat="37.54041" lon="27.77013">
        <ele>634.3</ele>
      </trkpt>
      <trkpt lat="37.54033" lon="27.76994">
        <ele>635.7</ele>
      </trkpt>
      <trkpt lat="37.54033" lon="27.76994">
        <ele>635.6</ele>
      </trkpt>
      <trkpt lat="37.54031" lon="27.76992">
        <ele>635.9</ele>
      </trkpt>
      <trkpt lat="37.54018" lon="27.76981">
        <ele>637.9</ele>
      </trkpt>
      <trkpt lat="37.54003" lon="27.76963">
        <ele>640.4</ele>
      </trkpt>
      <trkpt lat="37.53989" lon="27.76945">
        <ele>642.6</ele>
      </trkpt>
      <trkpt lat="37.53979" lon="27.76928">
        <ele>644.1</ele>
      </trkpt>
      <trkpt lat="37.53965" lon="27.76895">
        <ele>644</ele>
      </trkpt>
      <trkpt lat="37.53952" lon="27.76875">
        <ele>644.2</ele>
      </trkpt>
      <trkpt lat="37.53935" lon="27.76858">
        <ele>645.9</ele>
      </trkpt>
      <trkpt lat="37.5392" lon="27.7684">
        <ele>647.8</ele>
      </trkpt>
      <trkpt lat="37.53912" lon="27.76833">
        <ele>648</ele>
      </trkpt>
      <trkpt lat="37.53909" lon="27.76829">
        <ele>647.9</ele>
      </trkpt>
      <trkpt lat="37.53903" lon="27.76823">
        <ele>647.7</ele>
      </trkpt>
      <trkpt lat="37.5389" lon="27.76805">
        <ele>647.7</ele>
      </trkpt>
      <trkpt lat="37.53878" lon="27.76789">
        <ele>648.3</ele>
      </trkpt>
      <trkpt lat="37.53869" lon="27.76767">
        <ele>649.2</ele>
      </trkpt>
      <trkpt lat="37.53866" lon="27.76747">
        <ele>649.9</ele>
      </trkpt>
      <trkpt lat="37.5386" lon="27.76737">
        <ele>651.3</ele>
      </trkpt>
      <trkpt lat="37.53859" lon="27.76735">
        <ele>651.5</ele>
      </trkpt>
      <trkpt lat="37.53845" lon="27.76715">
        <ele>654.5</ele>
      </trkpt>
      <trkpt lat="37.53825" lon="27.76701">
        <ele>657</ele>
      </trkpt>
      <trkpt lat="37.53806" lon="27.7669">
        <ele>658</ele>
      </trkpt>
      <trkpt lat="37.53786" lon="27.76671">
        <ele>659.8</ele>
      </trkpt>
      <trkpt lat="37.53769" lon="27.76653">
        <ele>661.2</ele>
      </trkpt>
      <trkpt lat="37.53755" lon="27.76633">
        <ele>663.1</ele>
      </trkpt>
      <trkpt lat="37.53748" lon="27.76612">
        <ele>664.9</ele>
      </trkpt>
      <trkpt lat="37.53744" lon="27.76582">
        <ele>666.9</ele>
      </trkpt>
      <trkpt lat="37.53738" lon="27.76556">
        <ele>667</ele>
      </trkpt>
      <trkpt lat="37.53736" lon="27.76534">
        <ele>667.2</ele>
      </trkpt>
      <trkpt lat="37.53734" lon="27.76509">
        <ele>667.3</ele>
      </trkpt>
      <trkpt lat="37.53736" lon="27.7649">
        <ele>667.9</ele>
      </trkpt>
      <trkpt lat="37.53731" lon="27.7647">
        <ele>668.6</ele>
      </trkpt>
      <trkpt lat="37.53725" lon="27.76441">
        <ele>670</ele>
      </trkpt>
      <trkpt lat="37.53724" lon="27.7642">
        <ele>671.1</ele>
      </trkpt>
      <trkpt lat="37.53726" lon="27.764">
        <ele>674.1</ele>
      </trkpt>
      <trkpt lat="37.53733" lon="27.76391">
        <ele>675.2</ele>
      </trkpt>
      <trkpt lat="37.53741" lon="27.76379">
        <ele>676.9</ele>
      </trkpt>
      <trkpt lat="37.53757" lon="27.76362">
        <ele>678.4</ele>
      </trkpt>
      <trkpt lat="37.53772" lon="27.76351">
        <ele>678.9</ele>
      </trkpt>
      <trkpt lat="37.53778" lon="27.76334">
        <ele>681.1</ele>
      </trkpt>
      <trkpt lat="37.53779" lon="27.76327">
        <ele>681.2</ele>
      </trkpt>
      <trkpt lat="37.53783" lon="27.76326">
        <ele>680.9</ele>
      </trkpt>
      <trkpt lat="37.53786" lon="27.76318">
        <ele>680.6</ele>
      </trkpt>
      <trkpt lat="37.53786" lon="27.76319">
        <ele>680.6</ele>
      </trkpt>
      <trkpt lat="37.53785" lon="27.76317">
        <ele>680.7</ele>
      </trkpt>
      <trkpt lat="37.53799" lon="27.76304">
        <ele>679.2</ele>
      </trkpt>
      <trkpt lat="37.53816" lon="27.76294">
        <ele>677.1</ele>
      </trkpt>
      <trkpt lat="37.5384" lon="27.76286">
        <ele>674.2</ele>
      </trkpt>
      <trkpt lat="37.53857" lon="27.76289">
        <ele>672.3</ele>
      </trkpt>
      <trkpt lat="37.53873" lon="27.76284">
        <ele>670.5</ele>
      </trkpt>
      <trkpt lat="37.53883" lon="27.76269">
        <ele>669.1</ele>
      </trkpt>
      <trkpt lat="37.53896" lon="27.76263">
        <ele>667.6</ele>
      </trkpt>
      <trkpt lat="37.53911" lon="27.76268">
        <ele>666</ele>
      </trkpt>
      <trkpt lat="37.53917" lon="27.76269">
        <ele>665.5</ele>
      </trkpt>
      <trkpt lat="37.5393" lon="27.76279">
        <ele>665.2</ele>
      </trkpt>
      <trkpt lat="37.5394" lon="27.76292">
        <ele>664.4</ele>
      </trkpt>
      <trkpt lat="37.53946" lon="27.76306">
        <ele>663.6</ele>
      </trkpt>
      <trkpt lat="37.53958" lon="27.76312">
        <ele>662.2</ele>
      </trkpt>
      <trkpt lat="37.53971" lon="27.76319">
        <ele>660.3</ele>
      </trkpt>
      <trkpt lat="37.53984" lon="27.76327">
        <ele>658</ele>
      </trkpt>
      <trkpt lat="37.54002" lon="27.76329">
        <ele>655.8</ele>
      </trkpt>
      <trkpt lat="37.54016" lon="27.76324">
        <ele>657.5</ele>
      </trkpt>
      <trkpt lat="37.54031" lon="27.76315">
        <ele>659.7</ele>
      </trkpt>
      <trkpt lat="37.54031" lon="27.76315">
        <ele>659.7</ele>
      </trkpt>
      <trkpt lat="37.54034" lon="27.76309">
        <ele>661</ele>
      </trkpt>
      <trkpt lat="37.54035" lon="27.76309">
        <ele>660.9</ele>
      </trkpt>
      <trkpt lat="37.54036" lon="27.76305">
        <ele>661.6</ele>
      </trkpt>
      <trkpt lat="37.54036" lon="27.76306">
        <ele>661.6</ele>
      </trkpt>
      <trkpt lat="37.54034" lon="27.76304">
        <ele>661.5</ele>
      </trkpt>
      <trkpt lat="37.54027" lon="27.76298">
        <ele>661.9</ele>
      </trkpt>
      <trkpt lat="37.5402" lon="27.76281">
        <ele>663.6</ele>
      </trkpt>
      <trkpt lat="37.54008" lon="27.7626">
        <ele>665.4</ele>
      </trkpt>
      <trkpt lat="37.53997" lon="27.76241">
        <ele>666.9</ele>
      </trkpt>
      <trkpt lat="37.53988" lon="27.76225">
        <ele>668.4</ele>
      </trkpt>
      <trkpt lat="37.53988" lon="27.76224">
        <ele>668.4</ele>
      </trkpt>
      <trkpt lat="37.53988" lon="27.76223">
        <ele>668.5</ele>
      </trkpt>
      <trkpt lat="37.53989" lon="27.76223">
        <ele>668.5</ele>
      </trkpt>
      <trkpt lat="37.5399" lon="27.76199">
        <ele>670.9</ele>
      </trkpt>
      <trkpt lat="37.53993" lon="27.76184">
        <ele>672.7</ele>
      </trkpt>
      <trkpt lat="37.53999" lon="27.76167">
        <ele>674.9</ele>
      </trkpt>
      <trkpt lat="37.54009" lon="27.76156">
        <ele>675.2</ele>
      </trkpt>
      <trkpt lat="37.54017" lon="27.76144">
        <ele>675.1</ele>
      </trkpt>
      <trkpt lat="37.54011" lon="27.76116">
        <ele>675.6</ele>
      </trkpt>
      <trkpt lat="37.54013" lon="27.76102">
        <ele>675.7</ele>
      </trkpt>
      <trkpt lat="37.54013" lon="27.76081">
        <ele>676</ele>
      </trkpt>
      <trkpt lat="37.54017" lon="27.76068">
        <ele>676.1</ele>
      </trkpt>
      <trkpt lat="37.54037" lon="27.76057">
        <ele>674.3</ele>
      </trkpt>
      <trkpt lat="37.54041" lon="27.76041">
        <ele>674.1</ele>
      </trkpt>
      <trkpt lat="37.54038" lon="27.76017">
        <ele>674.8</ele>
      </trkpt>
      <trkpt lat="37.54042" lon="27.75994">
        <ele>674.5</ele>
      </trkpt>
      <trkpt lat="37.54045" lon="27.75979">
        <ele>673.8</ele>
      </trkpt>
      <trkpt lat="37.54054" lon="27.75967">
        <ele>672.2</ele>
      </trkpt>
      <trkpt lat="37.54054" lon="27.75958">
        <ele>672.1</ele>
      </trkpt>
      <trkpt lat="37.54046" lon="27.7594">
        <ele>673.4</ele>
      </trkpt>
      <trkpt lat="37.54044" lon="27.75919">
        <ele>673.6</ele>
      </trkpt>
      <trkpt lat="37.54045" lon="27.75892">
        <ele>673.2</ele>
      </trkpt>
      <trkpt lat="37.54044" lon="27.75887">
        <ele>673.5</ele>
      </trkpt>
      <trkpt lat="37.54037" lon="27.75868">
        <ele>675.2</ele>
      </trkpt>
      <trkpt lat="37.54046" lon="27.75853">
        <ele>672.9</ele>
      </trkpt>
      <trkpt lat="37.5406" lon="27.75844">
        <ele>669.4</ele>
      </trkpt>
      <trkpt lat="37.54062" lon="27.7583">
        <ele>668.8</ele>
      </trkpt>
      <trkpt lat="37.54052" lon="27.75818">
        <ele>672.3</ele>
      </trkpt>
      <trkpt lat="37.54051" lon="27.75801">
        <ele>673.9</ele>
      </trkpt>
      <trkpt lat="37.5405" lon="27.75782">
        <ele>675.5</ele>
      </trkpt>
      <trkpt lat="37.54049" lon="27.75764">
        <ele>677.1</ele>
      </trkpt>
      <trkpt lat="37.54056" lon="27.75756">
        <ele>675.7</ele>
      </trkpt>
      <trkpt lat="37.54062" lon="27.7575">
        <ele>674.6</ele>
      </trkpt>
      <trkpt lat="37.54062" lon="27.7575">
        <ele>674.6</ele>
      </trkpt>
      <trkpt lat="37.54061" lon="27.75751">
        <ele>674.9</ele>
      </trkpt>
      <trkpt lat="37.54069" lon="27.75742">
        <ele>674</ele>
      </trkpt>
      <trkpt lat="37.54083" lon="27.75737">
        <ele>671</ele>
      </trkpt>
      <trkpt lat="37.54095" lon="27.75731">
        <ele>669.8</ele>
      </trkpt>
      <trkpt lat="37.54112" lon="27.75718">
        <ele>668.5</ele>
      </trkpt>
      <trkpt lat="37.54117" lon="27.75703">
        <ele>669.6</ele>
      </trkpt>
      <trkpt lat="37.54114" lon="27.75687">
        <ele>672.3</ele>
      </trkpt>
      <trkpt lat="37.54108" lon="27.75675">
        <ele>674.8</ele>
      </trkpt>
      <trkpt lat="37.54106" lon="27.75654">
        <ele>677.4</ele>
      </trkpt>
      <trkpt lat="37.54103" lon="27.75631">
        <ele>679.6</ele>
      </trkpt>
      <trkpt lat="37.54114" lon="27.75621">
        <ele>679.2</ele>
      </trkpt>
      <trkpt lat="37.54124" lon="27.7561">
        <ele>679.4</ele>
      </trkpt>
      <trkpt lat="37.54126" lon="27.75608">
        <ele>679.5</ele>
      </trkpt>
      <trkpt lat="37.54127" lon="27.75607">
        <ele>679.5</ele>
      </trkpt>
      <trkpt lat="37.5412" lon="27.75603">
        <ele>680.5</ele>
      </trkpt>
      <trkpt lat="37.54118" lon="27.756">
        <ele>681</ele>
      </trkpt>
      <trkpt lat="37.54119" lon="27.75591">
        <ele>681.9</ele>
      </trkpt>
      <trkpt lat="37.54128" lon="27.75578">
        <ele>683.6</ele>
      </trkpt>
      <trkpt lat="37.54137" lon="27.75566">
        <ele>686.2</ele>
      </trkpt>
      <trkpt lat="37.5415" lon="27.7556">
        <ele>687.7</ele>
      </trkpt>
      <trkpt lat="37.54156" lon="27.75553">
        <ele>689.5</ele>
      </trkpt>
      <trkpt lat="37.54157" lon="27.75546">
        <ele>691.5</ele>
      </trkpt>
      <trkpt lat="37.54156" lon="27.75542">
        <ele>692.5</ele>
      </trkpt>
      <trkpt lat="37.54154" lon="27.75537">
        <ele>693.8</ele>
      </trkpt>
      <trkpt lat="37.54151" lon="27.75517">
        <ele>698.7</ele>
      </trkpt>
      <trkpt lat="37.54153" lon="27.75515">
        <ele>699.3</ele>
      </trkpt>
      <trkpt lat="37.54162" lon="27.75517">
        <ele>699.7</ele>
      </trkpt>
      <trkpt lat="37.54174" lon="27.75521">
        <ele>698.4</ele>
      </trkpt>
      <trkpt lat="37.54172" lon="27.75511">
        <ele>701.5</ele>
      </trkpt>
      <trkpt lat="37.54169" lon="27.75503">
        <ele>704</ele>
      </trkpt>
      <trkpt lat="37.54167" lon="27.75485">
        <ele>709.1</ele>
      </trkpt>
      <trkpt lat="37.54174" lon="27.75486">
        <ele>708.3</ele>
      </trkpt>
      <trkpt lat="37.54181" lon="27.7549">
        <ele>706.3</ele>
      </trkpt>
      <trkpt lat="37.54189" lon="27.75486">
        <ele>706.8</ele>
      </trkpt>
      <trkpt lat="37.54191" lon="27.75484">
        <ele>707.2</ele>
      </trkpt>
      <trkpt lat="37.54198" lon="27.75473">
        <ele>709.2</ele>
      </trkpt>
      <trkpt lat="37.54199" lon="27.75467">
        <ele>710.5</ele>
      </trkpt>
      <trkpt lat="37.54201" lon="27.75464">
        <ele>711</ele>
      </trkpt>
      <trkpt lat="37.54204" lon="27.75461">
        <ele>711.3</ele>
      </trkpt>
      <trkpt lat="37.54204" lon="27.75451">
        <ele>713.8</ele>
      </trkpt>
      <trkpt lat="37.542" lon="27.75451">
        <ele>714.4</ele>
      </trkpt>
      <trkpt lat="37.54192" lon="27.75453">
        <ele>714.9</ele>
      </trkpt>
      <trkpt lat="37.54192" lon="27.75453">
        <ele>714.8</ele>
      </trkpt>
      <trkpt lat="37.5419" lon="27.75447">
        <ele>716.5</ele>
      </trkpt>
      <trkpt lat="37.5419" lon="27.75443">
        <ele>717.6</ele>
      </trkpt>
      <trkpt lat="37.54189" lon="27.75437">
        <ele>719.4</ele>
      </trkpt>
      <trkpt lat="37.54188" lon="27.75434">
        <ele>720.2</ele>
      </trkpt>
      <trkpt lat="37.54188" lon="27.75433">
        <ele>720.5</ele>
      </trkpt>
      <trkpt lat="37.54182" lon="27.7543">
        <ele>722.3</ele>
      </trkpt>
      <trkpt lat="37.54179" lon="27.75419">
        <ele>725.4</ele>
      </trkpt>
      <trkpt lat="37.54181" lon="27.75415">
        <ele>726</ele>
      </trkpt>
      <trkpt lat="37.54183" lon="27.75415">
        <ele>725.7</ele>
      </trkpt>
      <trkpt lat="37.54185" lon="27.75409">
        <ele>726.3</ele>
      </trkpt>
      <trkpt lat="37.54184" lon="27.75397">
        <ele>728.5</ele>
      </trkpt>
      <trkpt lat="37.54179" lon="27.75382">
        <ele>731.5</ele>
      </trkpt>
      <trkpt lat="37.54179" lon="27.75375">
        <ele>732.6</ele>
      </trkpt>
      <trkpt lat="37.5418" lon="27.75368">
        <ele>733.7</ele>
      </trkpt>
      <trkpt lat="37.54173" lon="27.75352">
        <ele>737.3</ele>
      </trkpt>
      <trkpt lat="37.54173" lon="27.7535">
        <ele>737.6</ele>
      </trkpt>
      <trkpt lat="37.54173" lon="27.75333">
        <ele>740.2</ele>
      </trkpt>
      <trkpt lat="37.54173" lon="27.75314">
        <ele>742.9</ele>
      </trkpt>
      <trkpt lat="37.54175" lon="27.75308">
        <ele>743.8</ele>
      </trkpt>
      <trkpt lat="37.54178" lon="27.75305">
        <ele>743.6</ele>
      </trkpt>
      <trkpt lat="37.5418" lon="27.75301">
        <ele>744.2</ele>
      </trkpt>
      <trkpt lat="37.54183" lon="27.75296">
        <ele>744.5</ele>
      </trkpt>
      <trkpt lat="37.5418" lon="27.75284">
        <ele>746.5</ele>
      </trkpt>
      <trkpt lat="37.54169" lon="27.75267">
        <ele>750.3</ele>
      </trkpt>
      <trkpt lat="37.5417" lon="27.75259">
        <ele>751.3</ele>
      </trkpt>
      <trkpt lat="37.54169" lon="27.75237">
        <ele>755.1</ele>
      </trkpt>
      <trkpt lat="37.54168" lon="27.75224">
        <ele>757.6</ele>
      </trkpt>
      <trkpt lat="37.54163" lon="27.7521">
        <ele>760.7</ele>
      </trkpt>
      <trkpt lat="37.54163" lon="27.75208">
        <ele>761.2</ele>
      </trkpt>
      <trkpt lat="37.54161" lon="27.75204">
        <ele>762.1</ele>
      </trkpt>
      <trkpt lat="37.54158" lon="27.75189">
        <ele>765</ele>
      </trkpt>
      <trkpt lat="37.54158" lon="27.75188">
        <ele>765.2</ele>
      </trkpt>
      <trkpt lat="37.54162" lon="27.75189">
        <ele>764.5</ele>
      </trkpt>
      <trkpt lat="37.54161" lon="27.75179">
        <ele>766.4</ele>
      </trkpt>
      <trkpt lat="37.54158" lon="27.75167">
        <ele>768.8</ele>
      </trkpt>
      <trkpt lat="37.54154" lon="27.75155">
        <ele>770.5</ele>
      </trkpt>
      <trkpt lat="37.54154" lon="27.75154">
        <ele>770.6</ele>
      </trkpt>
      <trkpt lat="37.54154" lon="27.75153">
        <ele>770.7</ele>
      </trkpt>
      <trkpt lat="37.54151" lon="27.75155">
        <ele>770.8</ele>
      </trkpt>
      <trkpt lat="37.54148" lon="27.75146">
        <ele>771.9</ele>
      </trkpt>
      <trkpt lat="37.54147" lon="27.75141">
        <ele>772.4</ele>
      </trkpt>
      <trkpt lat="37.54143" lon="27.75137">
        <ele>773.1</ele>
      </trkpt>
      <trkpt lat="37.5414" lon="27.75135">
        <ele>773.4</ele>
      </trkpt>
      <trkpt lat="37.54137" lon="27.75133">
        <ele>773.8</ele>
      </trkpt>
      <trkpt lat="37.54134" lon="27.75132">
        <ele>774.2</ele>
      </trkpt>
      <trkpt lat="37.54137" lon="27.75119">
        <ele>775</ele>
      </trkpt>
      <trkpt lat="37.54136" lon="27.75116">
        <ele>775.2</ele>
      </trkpt>
      <trkpt lat="37.54134" lon="27.75114">
        <ele>775.5</ele>
      </trkpt>
      <trkpt lat="37.54143" lon="27.75106">
        <ele>775.7</ele>
      </trkpt>
      <trkpt lat="37.54157" lon="27.75099">
        <ele>775.7</ele>
      </trkpt>
      <trkpt lat="37.54155" lon="27.75099">
        <ele>775.8</ele>
      </trkpt>
      <trkpt lat="37.54163" lon="27.75099">
        <ele>775.4</ele>
      </trkpt>
      <trkpt lat="37.54165" lon="27.7509">
        <ele>776.4</ele>
      </trkpt>
      <trkpt lat="37.54167" lon="27.75086">
        <ele>776.7</ele>
      </trkpt>
      <trkpt lat="37.54168" lon="27.75085">
        <ele>776.9</ele>
      </trkpt>
      <trkpt lat="37.54176" lon="27.75079">
        <ele>777.1</ele>
      </trkpt>
      <trkpt lat="37.54169" lon="27.75074">
        <ele>777.2</ele>
      </trkpt>
      <trkpt lat="37.54168" lon="27.75071">
        <ele>777.3</ele>
      </trkpt>
      <trkpt lat="37.54183" lon="27.75073">
        <ele>777.3</ele>
      </trkpt>
      <trkpt lat="37.54193" lon="27.75072">
        <ele>777.3</ele>
      </trkpt>
      <trkpt lat="37.54195" lon="27.75069">
        <ele>777.4</ele>
      </trkpt>
      <trkpt lat="37.54196" lon="27.75071">
        <ele>777.3</ele>
      </trkpt>
      <trkpt lat="37.54204" lon="27.75076">
        <ele>777.2</ele>
      </trkpt>
      <trkpt lat="37.5421" lon="27.75069">
        <ele>777.4</ele>
      </trkpt>
      <trkpt lat="37.54216" lon="27.75064">
        <ele>777.6</ele>
      </trkpt>
      <trkpt lat="37.5422" lon="27.75064">
        <ele>777.6</ele>
      </trkpt>
      <trkpt lat="37.54233" lon="27.75065">
        <ele>777.6</ele>
      </trkpt>
      <trkpt lat="37.54251" lon="27.75061">
        <ele>777.8</ele>
      </trkpt>
      <trkpt lat="37.54261" lon="27.75066">
        <ele>777</ele>
      </trkpt>
      <trkpt lat="37.54278" lon="27.75063">
        <ele>776.1</ele>
      </trkpt>
      <trkpt lat="37.54297" lon="27.75054">
        <ele>775.5</ele>
      </trkpt>
      <trkpt lat="37.543" lon="27.75049">
        <ele>775.5</ele>
      </trkpt>
      <trkpt lat="37.54297" lon="27.75038">
        <ele>776.1</ele>
      </trkpt>
      <trkpt lat="37.54293" lon="27.75031">
        <ele>776.7</ele>
      </trkpt>
      <trkpt lat="37.54293" lon="27.75019">
        <ele>777.1</ele>
      </trkpt>
      <trkpt lat="37.54291" lon="27.75009">
        <ele>777.7</ele>
      </trkpt>
      <trkpt lat="37.54294" lon="27.74991">
        <ele>776.3</ele>
      </trkpt>
      <trkpt lat="37.543" lon="27.74977">
        <ele>773.7</ele>
      </trkpt>
      <trkpt lat="37.543" lon="27.74976">
        <ele>773.4</ele>
      </trkpt>
      <trkpt lat="37.54301" lon="27.74964">
        <ele>771.4</ele>
      </trkpt>
      <trkpt lat="37.54302" lon="27.7496">
        <ele>770.6</ele>
      </trkpt>
      <trkpt lat="37.54303" lon="27.74959">
        <ele>770.5</ele>
      </trkpt>
      <trkpt lat="37.54303" lon="27.74954">
        <ele>769.7</ele>
      </trkpt>
      <trkpt lat="37.54301" lon="27.7495">
        <ele>769.1</ele>
      </trkpt>
      <trkpt lat="37.54287" lon="27.74958">
        <ele>770.9</ele>
      </trkpt>
      <trkpt lat="37.54283" lon="27.74959">
        <ele>771.2</ele>
      </trkpt>
      <trkpt lat="37.54282" lon="27.74959">
        <ele>771.2</ele>
      </trkpt>
      <trkpt lat="37.54278" lon="27.74958">
        <ele>771</ele>
      </trkpt>
      <trkpt lat="37.54272" lon="27.74946">
        <ele>769</ele>
      </trkpt>
      <trkpt lat="37.54271" lon="27.74943">
        <ele>768.5</ele>
      </trkpt>
      <trkpt lat="37.54268" lon="27.74938">
        <ele>767.7</ele>
      </trkpt>
      <trkpt lat="37.54262" lon="27.74933">
        <ele>766.9</ele>
      </trkpt>
      <trkpt lat="37.54256" lon="27.74923">
        <ele>765.2</ele>
      </trkpt>
      <trkpt lat="37.54242" lon="27.74909">
        <ele>762.4</ele>
      </trkpt>
      <trkpt lat="37.54228" lon="27.74899">
        <ele>760.7</ele>
      </trkpt>
      <trkpt lat="37.54218" lon="27.74898">
        <ele>760.9</ele>
      </trkpt>
      <trkpt lat="37.54217" lon="27.74899">
        <ele>761.1</ele>
      </trkpt>
      <trkpt lat="37.54214" lon="27.74902">
        <ele>761.8</ele>
      </trkpt>
      <trkpt lat="37.5421" lon="27.74901">
        <ele>761.7</ele>
      </trkpt>
      <trkpt lat="37.54209" lon="27.74888">
        <ele>759.3</ele>
      </trkpt>
      <trkpt lat="37.54209" lon="27.74869">
        <ele>755.5</ele>
      </trkpt>
      <trkpt lat="37.54208" lon="27.74845">
        <ele>750.8</ele>
      </trkpt>
      <trkpt lat="37.542" lon="27.74823">
        <ele>747.1</ele>
      </trkpt>
      <trkpt lat="37.54201" lon="27.74803">
        <ele>742.3</ele>
      </trkpt>
      <trkpt lat="37.54191" lon="27.74786">
        <ele>739.2</ele>
      </trkpt>
      <trkpt lat="37.54177" lon="27.74775">
        <ele>737.5</ele>
      </trkpt>
      <trkpt lat="37.54161" lon="27.74777">
        <ele>738.9</ele>
      </trkpt>
      <trkpt lat="37.54144" lon="27.74787">
        <ele>741</ele>
      </trkpt>
      <trkpt lat="37.54133" lon="27.74775">
        <ele>738.4</ele>
      </trkpt>
      <trkpt lat="37.54121" lon="27.74768">
        <ele>737.2</ele>
      </trkpt>
      <trkpt lat="37.54106" lon="27.74771">
        <ele>738</ele>
      </trkpt>
      <trkpt lat="37.54107" lon="27.74768">
        <ele>737.5</ele>
      </trkpt>
      <trkpt lat="37.54112" lon="27.74765">
        <ele>737.1</ele>
      </trkpt>
      <trkpt lat="37.54104" lon="27.7476">
        <ele>736.5</ele>
      </trkpt>
      <trkpt lat="37.54101" lon="27.74757">
        <ele>736.1</ele>
      </trkpt>
      <trkpt lat="37.54086" lon="27.74749">
        <ele>735.7</ele>
      </trkpt>
      <trkpt lat="37.54069" lon="27.74753">
        <ele>737</ele>
      </trkpt>
      <trkpt lat="37.54052" lon="27.74764">
        <ele>739</ele>
      </trkpt>
      <trkpt lat="37.54043" lon="27.74767">
        <ele>739.9</ele>
      </trkpt>
      <trkpt lat="37.54041" lon="27.74774">
        <ele>740.7</ele>
      </trkpt>
      <trkpt lat="37.54032" lon="27.74765">
        <ele>740.2</ele>
      </trkpt>
      <trkpt lat="37.54027" lon="27.7475">
        <ele>738.7</ele>
      </trkpt>
      <trkpt lat="37.54019" lon="27.74732">
        <ele>737.3</ele>
      </trkpt>
      <trkpt lat="37.54019" lon="27.74705">
        <ele>734.6</ele>
      </trkpt>
      <trkpt lat="37.54021" lon="27.74684">
        <ele>732.4</ele>
      </trkpt>
      <trkpt lat="37.54025" lon="27.74658">
        <ele>729.4</ele>
      </trkpt>
      <trkpt lat="37.54028" lon="27.74637">
        <ele>726.5</ele>
      </trkpt>
      <trkpt lat="37.54037" lon="27.74615">
        <ele>723.2</ele>
      </trkpt>
      <trkpt lat="37.54041" lon="27.74596">
        <ele>720.6</ele>
      </trkpt>
      <trkpt lat="37.54036" lon="27.74589">
        <ele>719.9</ele>
      </trkpt>
      <trkpt lat="37.54023" lon="27.74576">
        <ele>718.8</ele>
      </trkpt>
      <trkpt lat="37.5401" lon="27.74564">
        <ele>717.8</ele>
      </trkpt>
      <trkpt lat="37.53996" lon="27.74574">
        <ele>719.5</ele>
      </trkpt>
      <trkpt lat="37.53989" lon="27.74585">
        <ele>720.6</ele>
      </trkpt>
      <trkpt lat="37.53984" lon="27.74591">
        <ele>721.2</ele>
      </trkpt>
      <trkpt lat="37.53983" lon="27.74585">
        <ele>720.2</ele>
      </trkpt>
      <trkpt lat="37.53974" lon="27.74561">
        <ele>716.2</ele>
      </trkpt>
      <trkpt lat="37.5397" lon="27.74555">
        <ele>715.1</ele>
      </trkpt>
      <trkpt lat="37.53972" lon="27.74542">
        <ele>713.4</ele>
      </trkpt>
      <trkpt lat="37.53971" lon="27.74524">
        <ele>710.7</ele>
      </trkpt>
      <trkpt lat="37.53974" lon="27.7452">
        <ele>710.4</ele>
      </trkpt>
      <trkpt lat="37.53987" lon="27.74503">
        <ele>708.6</ele>
      </trkpt>
      <trkpt lat="37.53986" lon="27.74497">
        <ele>707.7</ele>
      </trkpt>
      <trkpt lat="37.53982" lon="27.7448">
        <ele>704.7</ele>
      </trkpt>
      <trkpt lat="37.53994" lon="27.74464">
        <ele>703</ele>
      </trkpt>
      <trkpt lat="37.54007" lon="27.74449">
        <ele>700.5</ele>
      </trkpt>
      <trkpt lat="37.54007" lon="27.74446">
        <ele>700.2</ele>
      </trkpt>
      <trkpt lat="37.54014" lon="27.7443">
        <ele>696.9</ele>
      </trkpt>
      <trkpt lat="37.54032" lon="27.74412">
        <ele>692.8</ele>
      </trkpt>
      <trkpt lat="37.54036" lon="27.7439">
        <ele>690.2</ele>
      </trkpt>
      <trkpt lat="37.54033" lon="27.74374">
        <ele>688.8</ele>
      </trkpt>
      <trkpt lat="37.54025" lon="27.74355">
        <ele>687.5</ele>
      </trkpt>
      <trkpt lat="37.54017" lon="27.74334">
        <ele>686.3</ele>
      </trkpt>
      <trkpt lat="37.54021" lon="27.74317">
        <ele>683.7</ele>
      </trkpt>
      <trkpt lat="37.54031" lon="27.74299">
        <ele>680.5</ele>
      </trkpt>
      <trkpt lat="37.54033" lon="27.74283">
        <ele>678.4</ele>
      </trkpt>
      <trkpt lat="37.54044" lon="27.74278">
        <ele>677.1</ele>
      </trkpt>
      <trkpt lat="37.54053" lon="27.74273">
        <ele>675.9</ele>
      </trkpt>
      <trkpt lat="37.5407" lon="27.74271">
        <ele>674.7</ele>
      </trkpt>
      <trkpt lat="37.54085" lon="27.74256">
        <ele>672.4</ele>
      </trkpt>
      <trkpt lat="37.54088" lon="27.74238">
        <ele>671.1</ele>
      </trkpt>
      <trkpt lat="37.54088" lon="27.74232">
        <ele>670.6</ele>
      </trkpt>
      <trkpt lat="37.54087" lon="27.74216">
        <ele>669.9</ele>
      </trkpt>
      <trkpt lat="37.54084" lon="27.74213">
        <ele>670.1</ele>
      </trkpt>
      <trkpt lat="37.54075" lon="27.74203">
        <ele>669.6</ele>
      </trkpt>
      <trkpt lat="37.54062" lon="27.74199">
        <ele>669.2</ele>
      </trkpt>
      <trkpt lat="37.54041" lon="27.742">
        <ele>668.9</ele>
      </trkpt>
      <trkpt lat="37.54027" lon="27.74205">
        <ele>669.2</ele>
      </trkpt>
      <trkpt lat="37.54021" lon="27.74205">
        <ele>669.2</ele>
      </trkpt>
      <trkpt lat="37.54016" lon="27.7419">
        <ele>667.1</ele>
      </trkpt>
      <trkpt lat="37.54009" lon="27.74173">
        <ele>664.4</ele>
      </trkpt>
      <trkpt lat="37.53998" lon="27.74154">
        <ele>662</ele>
      </trkpt>
      <trkpt lat="37.53989" lon="27.74144">
        <ele>660.3</ele>
      </trkpt>
      <trkpt lat="37.53985" lon="27.74138">
        <ele>659.3</ele>
      </trkpt>
      <trkpt lat="37.53975" lon="27.74132">
        <ele>657.5</ele>
      </trkpt>
      <trkpt lat="37.53967" lon="27.74134">
        <ele>656.5</ele>
      </trkpt>
      <trkpt lat="37.53966" lon="27.74135">
        <ele>656.5</ele>
      </trkpt>
      <trkpt lat="37.53958" lon="27.74132">
        <ele>655.1</ele>
      </trkpt>
      <trkpt lat="37.53943" lon="27.74123">
        <ele>652.1</ele>
      </trkpt>
      <trkpt lat="37.53941" lon="27.74122">
        <ele>651.7</ele>
      </trkpt>
      <trkpt lat="37.53931" lon="27.74117">
        <ele>649.7</ele>
      </trkpt>
      <trkpt lat="37.53922" lon="27.74103">
        <ele>646.4</ele>
      </trkpt>
      <trkpt lat="37.53906" lon="27.74085">
        <ele>643.4</ele>
      </trkpt>
      <trkpt lat="37.53901" lon="27.74078">
        <ele>642.7</ele>
      </trkpt>
      <trkpt lat="37.53887" lon="27.74071">
        <ele>642.3</ele>
      </trkpt>
      <trkpt lat="37.53874" lon="27.74059">
        <ele>641.6</ele>
      </trkpt>
      <trkpt lat="37.53865" lon="27.74053">
        <ele>641.4</ele>
      </trkpt>
      <trkpt lat="37.53865" lon="27.74041">
        <ele>640.5</ele>
      </trkpt>
      <trkpt lat="37.53869" lon="27.74021">
        <ele>638.9</ele>
      </trkpt>
      <trkpt lat="37.53874" lon="27.74008">
        <ele>637.6</ele>
      </trkpt>
      <trkpt lat="37.53876" lon="27.73995">
        <ele>636.6</ele>
      </trkpt>
      <trkpt lat="37.53876" lon="27.73991">
        <ele>636.3</ele>
      </trkpt>
      <trkpt lat="37.53873" lon="27.73975">
        <ele>635.2</ele>
      </trkpt>
      <trkpt lat="37.53871" lon="27.73957">
        <ele>633.9</ele>
      </trkpt>
      <trkpt lat="37.53872" lon="27.73948">
        <ele>633.2</ele>
      </trkpt>
      <trkpt lat="37.53872" lon="27.73936">
        <ele>632.3</ele>
      </trkpt>
      <trkpt lat="37.53874" lon="27.73914">
        <ele>630.7</ele>
      </trkpt>
      <trkpt lat="37.53877" lon="27.73897">
        <ele>629.2</ele>
      </trkpt>
      <trkpt lat="37.53874" lon="27.73876">
        <ele>627.4</ele>
      </trkpt>
      <trkpt lat="37.53872" lon="27.73871">
        <ele>626.9</ele>
      </trkpt>
      <trkpt lat="37.53866" lon="27.73859">
        <ele>626</ele>
      </trkpt>
      <trkpt lat="37.53868" lon="27.7385">
        <ele>625.2</ele>
      </trkpt>
      <trkpt lat="37.53867" lon="27.73847">
        <ele>624.9</ele>
      </trkpt>
      <trkpt lat="37.53866" lon="27.73844">
        <ele>624.7</ele>
      </trkpt>
      <trkpt lat="37.53867" lon="27.73838">
        <ele>624.2</ele>
      </trkpt>
      <trkpt lat="37.53862" lon="27.7382">
        <ele>621.9</ele>
      </trkpt>
      <trkpt lat="37.53848" lon="27.7381">
        <ele>620.6</ele>
      </trkpt>
      <trkpt lat="37.53839" lon="27.73808">
        <ele>620.6</ele>
      </trkpt>
      <trkpt lat="37.53824" lon="27.7381">
        <ele>619.8</ele>
      </trkpt>
      <trkpt lat="37.53808" lon="27.73815">
        <ele>618.2</ele>
      </trkpt>
      <trkpt lat="37.53802" lon="27.73828">
        <ele>619.5</ele>
      </trkpt>
      <trkpt lat="37.53791" lon="27.73835">
        <ele>619</ele>
      </trkpt>
      <trkpt lat="37.53785" lon="27.73846">
        <ele>619.7</ele>
      </trkpt>
      <trkpt lat="37.53776" lon="27.73865">
        <ele>621.2</ele>
      </trkpt>
      <trkpt lat="37.53771" lon="27.73868">
        <ele>621.2</ele>
      </trkpt>
      <trkpt lat="37.53771" lon="27.73869">
        <ele>621.4</ele>
      </trkpt>
      <trkpt lat="37.53769" lon="27.73868">
        <ele>620.9</ele>
      </trkpt>
      <trkpt lat="37.53758" lon="27.7386">
        <ele>618.7</ele>
      </trkpt>
      <trkpt lat="37.53747" lon="27.73847">
        <ele>615</ele>
      </trkpt>
      <trkpt lat="37.53732" lon="27.73834">
        <ele>611.5</ele>
      </trkpt>
      <trkpt lat="37.53718" lon="27.73831">
        <ele>609.7</ele>
      </trkpt>
      <trkpt lat="37.53704" lon="27.73833">
        <ele>608.6</ele>
      </trkpt>
      <trkpt lat="37.53695" lon="27.73833">
        <ele>607.7</ele>
      </trkpt>
      <trkpt lat="37.5369" lon="27.7383">
        <ele>606.9</ele>
      </trkpt>
      <trkpt lat="37.53683" lon="27.7382">
        <ele>605.1</ele>
      </trkpt>
      <trkpt lat="37.53681" lon="27.73804">
        <ele>603.2</ele>
      </trkpt>
      <trkpt lat="37.53678" lon="27.73779">
        <ele>600.4</ele>
      </trkpt>
      <trkpt lat="37.53671" lon="27.73759">
        <ele>598</ele>
      </trkpt>
      <trkpt lat="37.53668" lon="27.73754">
        <ele>597.4</ele>
      </trkpt>
      <trkpt lat="37.53666" lon="27.73747">
        <ele>596.8</ele>
      </trkpt>
      <trkpt lat="37.53667" lon="27.73742">
        <ele>596.6</ele>
      </trkpt>
      <trkpt lat="37.53668" lon="27.73729">
        <ele>596</ele>
      </trkpt>
      <trkpt lat="37.53671" lon="27.73714">
        <ele>595.2</ele>
      </trkpt>
      <trkpt lat="37.53669" lon="27.73699">
        <ele>594.5</ele>
      </trkpt>
      <trkpt lat="37.53671" lon="27.73682">
        <ele>593.5</ele>
      </trkpt>
      <trkpt lat="37.53671" lon="27.73676">
        <ele>593.3</ele>
      </trkpt>
      <trkpt lat="37.53668" lon="27.73669">
        <ele>593</ele>
      </trkpt>
      <trkpt lat="37.53667" lon="27.7365">
        <ele>591.4</ele>
      </trkpt>
      <trkpt lat="37.53669" lon="27.73637">
        <ele>590</ele>
      </trkpt>
      <trkpt lat="37.5367" lon="27.73616">
        <ele>587.9</ele>
      </trkpt>
      <trkpt lat="37.53671" lon="27.73613">
        <ele>587.6</ele>
      </trkpt>
      <trkpt lat="37.53665" lon="27.73595">
        <ele>586</ele>
      </trkpt>
      <trkpt lat="37.53662" lon="27.73586">
        <ele>585.1</ele>
      </trkpt>
      <trkpt lat="37.53659" lon="27.73578">
        <ele>584</ele>
      </trkpt>
      <trkpt lat="37.53664" lon="27.73574">
        <ele>583.5</ele>
      </trkpt>
      <trkpt lat="37.53664" lon="27.73569">
        <ele>582.9</ele>
      </trkpt>
      <trkpt lat="37.53671" lon="27.73562">
        <ele>581.9</ele>
      </trkpt>
      <trkpt lat="37.53679" lon="27.73556">
        <ele>581.1</ele>
      </trkpt>
      <trkpt lat="37.53671" lon="27.73548">
        <ele>580</ele>
      </trkpt>
      <trkpt lat="37.53662" lon="27.73553">
        <ele>580.5</ele>
      </trkpt>
      <trkpt lat="37.53656" lon="27.73545">
        <ele>579.3</ele>
      </trkpt>
      <trkpt lat="37.53664" lon="27.73536">
        <ele>578.2</ele>
      </trkpt>
      <trkpt lat="37.53661" lon="27.73521">
        <ele>575.9</ele>
      </trkpt>
      <trkpt lat="37.53654" lon="27.73507">
        <ele>573.8</ele>
      </trkpt>
      <trkpt lat="37.53653" lon="27.73502">
        <ele>573.1</ele>
      </trkpt>
      <trkpt lat="37.53641" lon="27.73494">
        <ele>572.3</ele>
      </trkpt>
      <trkpt lat="37.53637" lon="27.73493">
        <ele>572.2</ele>
      </trkpt>
      <trkpt lat="37.53631" lon="27.73489">
        <ele>571.9</ele>
      </trkpt>
      <trkpt lat="37.53628" lon="27.73488">
        <ele>571.7</ele>
      </trkpt>
      <trkpt lat="37.5362" lon="27.73481">
        <ele>571.1</ele>
      </trkpt>
      <trkpt lat="37.53615" lon="27.7347">
        <ele>570.2</ele>
      </trkpt>
      <trkpt lat="37.5361" lon="27.73458">
        <ele>569.2</ele>
      </trkpt>
      <trkpt lat="37.53602" lon="27.73446">
        <ele>568.1</ele>
      </trkpt>
      <trkpt lat="37.53592" lon="27.73439">
        <ele>567.2</ele>
      </trkpt>
      <trkpt lat="37.53591" lon="27.73434">
        <ele>566.8</ele>
      </trkpt>
      <trkpt lat="37.53587" lon="27.73428">
        <ele>566.1</ele>
      </trkpt>
      <trkpt lat="37.53586" lon="27.73428">
        <ele>566.1</ele>
      </trkpt>
      <trkpt lat="37.53586" lon="27.73428">
        <ele>566.1</ele>
      </trkpt>
      <trkpt lat="37.53584" lon="27.73427">
        <ele>565.9</ele>
      </trkpt>
      <trkpt lat="37.53582" lon="27.73428">
        <ele>566.2</ele>
      </trkpt>
      <trkpt lat="37.53578" lon="27.73429">
        <ele>566.8</ele>
      </trkpt>
      <trkpt lat="37.53572" lon="27.73426">
        <ele>567.5</ele>
      </trkpt>
      <trkpt lat="37.53572" lon="27.73415">
        <ele>566.8</ele>
      </trkpt>
      <trkpt lat="37.53569" lon="27.7341">
        <ele>567</ele>
      </trkpt>
      <trkpt lat="37.53566" lon="27.73393">
        <ele>566.7</ele>
      </trkpt>
      <trkpt lat="37.53564" lon="27.73391">
        <ele>566.8</ele>
      </trkpt>
      <trkpt lat="37.53561" lon="27.73386">
        <ele>567</ele>
      </trkpt>
      <trkpt lat="37.53557" lon="27.73378">
        <ele>567</ele>
      </trkpt>
      <trkpt lat="37.53546" lon="27.73364">
        <ele>567.3</ele>
      </trkpt>
      <trkpt lat="37.53542" lon="27.73352">
        <ele>566.9</ele>
      </trkpt>
      <trkpt lat="37.53541" lon="27.73354">
        <ele>567.2</ele>
      </trkpt>
      <trkpt lat="37.53542" lon="27.73345">
        <ele>566.3</ele>
      </trkpt>
      <trkpt lat="37.53544" lon="27.73333">
        <ele>565.3</ele>
      </trkpt>
      <trkpt lat="37.53547" lon="27.73316">
        <ele>564.4</ele>
      </trkpt>
      <trkpt lat="37.53553" lon="27.73302">
        <ele>563.7</ele>
      </trkpt>
      <trkpt lat="37.5356" lon="27.73297">
        <ele>563.3</ele>
      </trkpt>
      <trkpt lat="37.53562" lon="27.7329">
        <ele>563.1</ele>
      </trkpt>
      <trkpt lat="37.5356" lon="27.73285">
        <ele>563.1</ele>
      </trkpt>
      <trkpt lat="37.53558" lon="27.73273">
        <ele>562.9</ele>
      </trkpt>
      <trkpt lat="37.53558" lon="27.73271">
        <ele>562.8</ele>
      </trkpt>
      <trkpt lat="37.53553" lon="27.73257">
        <ele>562.5</ele>
      </trkpt>
      <trkpt lat="37.53552" lon="27.73247">
        <ele>562</ele>
      </trkpt>
      <trkpt lat="37.5355" lon="27.7323">
        <ele>560.6</ele>
      </trkpt>
      <trkpt lat="37.53554" lon="27.73217">
        <ele>559.6</ele>
      </trkpt>
      <trkpt lat="37.53551" lon="27.73204">
        <ele>558.6</ele>
      </trkpt>
      <trkpt lat="37.53544" lon="27.73186">
        <ele>557</ele>
      </trkpt>
      <trkpt lat="37.53543" lon="27.73175">
        <ele>556.2</ele>
      </trkpt>
      <trkpt lat="37.53548" lon="27.73161">
        <ele>554.9</ele>
      </trkpt>
      <trkpt lat="37.53551" lon="27.73154">
        <ele>554.2</ele>
      </trkpt>
      <trkpt lat="37.53553" lon="27.73138">
        <ele>552.5</ele>
      </trkpt>
      <trkpt lat="37.53552" lon="27.73122">
        <ele>550.8</ele>
      </trkpt>
      <trkpt lat="37.53561" lon="27.73115">
        <ele>550.2</ele>
      </trkpt>
      <trkpt lat="37.53569" lon="27.73116">
        <ele>550.3</ele>
      </trkpt>
      <trkpt lat="37.5356" lon="27.73105">
        <ele>549.1</ele>
      </trkpt>
      <trkpt lat="37.53559" lon="27.73099">
        <ele>548.4</ele>
      </trkpt>
      <trkpt lat="37.53559" lon="27.73082">
        <ele>546.5</ele>
      </trkpt>
      <trkpt lat="37.53563" lon="27.73062">
        <ele>544.3</ele>
      </trkpt>
      <trkpt lat="37.53568" lon="27.7305">
        <ele>543.2</ele>
      </trkpt>
      <trkpt lat="37.5357" lon="27.73041">
        <ele>542.3</ele>
      </trkpt>
      <trkpt lat="37.5357" lon="27.73038">
        <ele>542</ele>
      </trkpt>
      <trkpt lat="37.53574" lon="27.73019">
        <ele>540.2</ele>
      </trkpt>
      <trkpt lat="37.53576" lon="27.73">
        <ele>538.4</ele>
      </trkpt>
      <trkpt lat="37.53578" lon="27.72989">
        <ele>538</ele>
      </trkpt>
      <trkpt lat="37.53579" lon="27.72972">
        <ele>537.1</ele>
      </trkpt>
      <trkpt lat="37.5358" lon="27.72961">
        <ele>536.7</ele>
      </trkpt>
      <trkpt lat="37.53582" lon="27.72946">
        <ele>536.2</ele>
      </trkpt>
      <trkpt lat="37.53582" lon="27.7293">
        <ele>535.4</ele>
      </trkpt>
      <trkpt lat="37.5358" lon="27.72916">
        <ele>534.4</ele>
      </trkpt>
      <trkpt lat="37.53581" lon="27.72903">
        <ele>532.7</ele>
      </trkpt>
      <trkpt lat="37.53577" lon="27.72892">
        <ele>530.6</ele>
      </trkpt>
      <trkpt lat="37.53578" lon="27.72884">
        <ele>529.6</ele>
      </trkpt>
      <trkpt lat="37.53588" lon="27.72875">
        <ele>528.4</ele>
      </trkpt>
      <trkpt lat="37.53591" lon="27.7287">
        <ele>527.4</ele>
      </trkpt>
      <trkpt lat="37.5358" lon="27.72864">
        <ele>527</ele>
      </trkpt>
      <trkpt lat="37.53579" lon="27.72862">
        <ele>526.7</ele>
      </trkpt>
      <trkpt lat="37.5358" lon="27.72854">
        <ele>525.7</ele>
      </trkpt>
      <trkpt lat="37.53586" lon="27.72842">
        <ele>524</ele>
      </trkpt>
      <trkpt lat="37.53616" lon="27.7284">
        <ele>520.3</ele>
      </trkpt>
      <trkpt lat="37.53656" lon="27.72827">
        <ele>514.7</ele>
      </trkpt>
      <trkpt lat="37.53688" lon="27.72814">
        <ele>512.9</ele>
      </trkpt>
      <trkpt lat="37.53711" lon="27.72795">
        <ele>511.4</ele>
      </trkpt>
      <trkpt lat="37.5375" lon="27.72789">
        <ele>510.7</ele>
      </trkpt>
      <trkpt lat="37.53807" lon="27.72764">
        <ele>515.1</ele>
      </trkpt>
      <trkpt lat="37.53835" lon="27.72764">
        <ele>518.4</ele>
      </trkpt>
      <trkpt lat="37.53899" lon="27.72739">
        <ele>509.9</ele>
      </trkpt>
      <trkpt lat="37.53952" lon="27.72717">
        <ele>502.3</ele>
      </trkpt>
      <trkpt lat="37.53974" lon="27.72698">
        <ele>499.4</ele>
      </trkpt>
      <trkpt lat="37.53973" lon="27.72688">
        <ele>498.5</ele>
      </trkpt>
      <trkpt lat="37.53949" lon="27.72649">
        <ele>499.7</ele>
      </trkpt>
      <trkpt lat="37.53923" lon="27.72596">
        <ele>506.9</ele>
      </trkpt>
      <trkpt lat="37.53895" lon="27.72524">
        <ele>512.8</ele>
      </trkpt>
      <trkpt lat="37.53868" lon="27.72453">
        <ele>516.4</ele>
      </trkpt>
      <trkpt lat="37.5384" lon="27.72395">
        <ele>516.8</ele>
      </trkpt>
      <trkpt lat="37.53811" lon="27.72328">
        <ele>518.6</ele>
      </trkpt>
      <trkpt lat="37.53785" lon="27.72266">
        <ele>520.7</ele>
      </trkpt>
      <trkpt lat="37.53786" lon="27.72243">
        <ele>522.2</ele>
      </trkpt>
      <trkpt lat="37.5379" lon="27.72207">
        <ele>524.2</ele>
      </trkpt>
      <trkpt lat="37.53767" lon="27.72154">
        <ele>523.6</ele>
      </trkpt>
      <trkpt lat="37.53768" lon="27.72114">
        <ele>521.9</ele>
      </trkpt>
      <trkpt lat="37.53783" lon="27.72077">
        <ele>522</ele>
      </trkpt>
      <trkpt lat="37.53787" lon="27.72009">
        <ele>524.6</ele>
      </trkpt>
      <trkpt lat="37.53794" lon="27.71977">
        <ele>528.2</ele>
      </trkpt>
      <trkpt lat="37.53786" lon="27.71927">
        <ele>532.7</ele>
      </trkpt>
      <trkpt lat="37.53758" lon="27.71887">
        <ele>533.8</ele>
      </trkpt>
      <trkpt lat="37.53742" lon="27.71852">
        <ele>537</ele>
      </trkpt>
      <trkpt lat="37.53731" lon="27.71815">
        <ele>536.9</ele>
      </trkpt>
      <trkpt lat="37.53721" lon="27.71772">
        <ele>532.9</ele>
      </trkpt>
      <trkpt lat="37.53703" lon="27.71749">
        <ele>530</ele>
      </trkpt>
      <trkpt lat="37.5369" lon="27.71738">
        <ele>527.8</ele>
      </trkpt>
      <trkpt lat="37.53683" lon="27.71737">
        <ele>527.3</ele>
      </trkpt>
      <trkpt lat="37.53698" lon="27.71726">
        <ele>526.8</ele>
      </trkpt>
      <trkpt lat="37.53705" lon="27.71709">
        <ele>525.1</ele>
      </trkpt>
      <trkpt lat="37.53709" lon="27.71694">
        <ele>523.4</ele>
      </trkpt>
      <trkpt lat="37.53718" lon="27.71673">
        <ele>521.5</ele>
      </trkpt>
      <trkpt lat="37.53722" lon="27.71652">
        <ele>519.9</ele>
      </trkpt>
      <trkpt lat="37.53725" lon="27.71633">
        <ele>518.7</ele>
      </trkpt>
      <trkpt lat="37.53727" lon="27.71624">
        <ele>518.2</ele>
      </trkpt>
      <trkpt lat="37.5373" lon="27.71618">
        <ele>517.9</ele>
      </trkpt>
      <trkpt lat="37.53732" lon="27.71614">
        <ele>517.7</ele>
      </trkpt>
      <trkpt lat="37.53739" lon="27.71596">
        <ele>517</ele>
      </trkpt>
      <trkpt lat="37.53747" lon="27.71581">
        <ele>516.7</ele>
      </trkpt>
      <trkpt lat="37.53759" lon="27.71561">
        <ele>516.8</ele>
      </trkpt>
      <trkpt lat="37.53761" lon="27.71558">
        <ele>516.8</ele>
      </trkpt>
      <trkpt lat="37.53763" lon="27.71555">
        <ele>516.7</ele>
      </trkpt>
      <trkpt lat="37.53771" lon="27.71539">
        <ele>516.4</ele>
      </trkpt>
      <trkpt lat="37.53771" lon="27.71537">
        <ele>516.3</ele>
      </trkpt>
      <trkpt lat="37.53777" lon="27.71529">
        <ele>516.1</ele>
      </trkpt>
      <trkpt lat="37.53787" lon="27.71517">
        <ele>515.8</ele>
      </trkpt>
      <trkpt lat="37.53793" lon="27.71511">
        <ele>515.5</ele>
      </trkpt>
      <trkpt lat="37.53796" lon="27.71507">
        <ele>515.3</ele>
      </trkpt>
      <trkpt lat="37.53803" lon="27.71495">
        <ele>515</ele>
      </trkpt>
      <trkpt lat="37.53808" lon="27.71485">
        <ele>514.9</ele>
      </trkpt>
      <trkpt lat="37.53812" lon="27.71472">
        <ele>514.9</ele>
      </trkpt>
      <trkpt lat="37.53812" lon="27.71471">
        <ele>514.9</ele>
      </trkpt>
      <trkpt lat="37.53812" lon="27.71471">
        <ele>514.9</ele>
      </trkpt>
      <trkpt lat="37.53813" lon="27.71467">
        <ele>514.9</ele>
      </trkpt>
      <trkpt lat="37.5381" lon="27.71466">
        <ele>514.9</ele>
      </trkpt>
      <trkpt lat="37.53814" lon="27.71461">
        <ele>514.9</ele>
      </trkpt>
      <trkpt lat="37.53809" lon="27.71463">
        <ele>514.9</ele>
      </trkpt>
      <trkpt lat="37.53804" lon="27.71465">
        <ele>514.9</ele>
      </trkpt>
      <trkpt lat="37.53791" lon="27.71465">
        <ele>514.8</ele>
      </trkpt>
      <trkpt lat="37.53764" lon="27.71433">
        <ele>514.3</ele>
      </trkpt>
      <trkpt lat="37.53752" lon="27.71373">
        <ele>515.6</ele>
      </trkpt>
      <trkpt lat="37.5373" lon="27.71355">
        <ele>516.1</ele>
      </trkpt>
      <trkpt lat="37.53712" lon="27.71359">
        <ele>515.8</ele>
      </trkpt>
      <trkpt lat="37.53685" lon="27.71355">
        <ele>515.8</ele>
      </trkpt>
      <trkpt lat="37.53658" lon="27.71319">
        <ele>516.6</ele>
      </trkpt>
      <trkpt lat="37.53631" lon="27.71259">
        <ele>516.2</ele>
      </trkpt>
      <trkpt lat="37.53603" lon="27.71223">
        <ele>516.6</ele>
      </trkpt>
      <trkpt lat="37.53587" lon="27.71205">
        <ele>516.7</ele>
      </trkpt>
      <trkpt lat="37.53566" lon="27.71195">
        <ele>516.1</ele>
      </trkpt>
      <trkpt lat="37.53537" lon="27.7119">
        <ele>514.5</ele>
      </trkpt>
      <trkpt lat="37.53477" lon="27.71188">
        <ele>511.9</ele>
      </trkpt>
      <trkpt lat="37.53469" lon="27.71187">
        <ele>511.9</ele>
      </trkpt>
      <trkpt lat="37.53436" lon="27.71166">
        <ele>511.5</ele>
      </trkpt>
      <trkpt lat="37.53389" lon="27.71115">
        <ele>513.5</ele>
      </trkpt>
      <trkpt lat="37.53376" lon="27.71096">
        <ele>513.9</ele>
      </trkpt>
      <trkpt lat="37.53361" lon="27.71041">
        <ele>516.6</ele>
      </trkpt>
      <trkpt lat="37.53361" lon="27.71029">
        <ele>517.3</ele>
      </trkpt>
      <trkpt lat="37.53361" lon="27.71018">
        <ele>517.9</ele>
      </trkpt>
      <trkpt lat="37.53362" lon="27.70988">
        <ele>520.7</ele>
      </trkpt>
      <trkpt lat="37.53361" lon="27.70981">
        <ele>521.7</ele>
      </trkpt>
      <trkpt lat="37.53356" lon="27.70951">
        <ele>525.6</ele>
      </trkpt>
      <trkpt lat="37.53357" lon="27.70856">
        <ele>532.7</ele>
      </trkpt>
      <trkpt lat="37.53317" lon="27.7083">
        <ele>529.2</ele>
      </trkpt>
      <trkpt lat="37.53327" lon="27.70765">
        <ele>532.1</ele>
      </trkpt>
      <trkpt lat="37.53345" lon="27.70727">
        <ele>534.3</ele>
      </trkpt>
      <trkpt lat="37.53355" lon="27.70717">
        <ele>534.7</ele>
      </trkpt>
      <trkpt lat="37.53372" lon="27.70698">
        <ele>535.2</ele>
      </trkpt>
      <trkpt lat="37.53383" lon="27.70668">
        <ele>536.2</ele>
      </trkpt>
      <trkpt lat="37.5339" lon="27.70611">
        <ele>538.2</ele>
      </trkpt>
      <trkpt lat="37.53388" lon="27.70603">
        <ele>538.6</ele>
      </trkpt>
      <trkpt lat="37.53387" lon="27.70589">
        <ele>539.2</ele>
      </trkpt>
      <trkpt lat="37.53376" lon="27.70564">
        <ele>540.2</ele>
      </trkpt>
      <trkpt lat="37.5337" lon="27.70532">
        <ele>541.1</ele>
      </trkpt>
      <trkpt lat="37.5337" lon="27.70506">
        <ele>541.9</ele>
      </trkpt>
      <trkpt lat="37.53384" lon="27.70465">
        <ele>543.8</ele>
      </trkpt>
      <trkpt lat="37.53422" lon="27.70423">
        <ele>547.6</ele>
      </trkpt>
      <trkpt lat="37.53434" lon="27.70408">
        <ele>547.9</ele>
      </trkpt>
      <trkpt lat="37.53439" lon="27.70399">
        <ele>548.1</ele>
      </trkpt>
      <trkpt lat="37.53449" lon="27.7036">
        <ele>550.1</ele>
      </trkpt>
      <trkpt lat="37.53442" lon="27.70301">
        <ele>555.3</ele>
      </trkpt>
      <trkpt lat="37.53442" lon="27.70294">
        <ele>556.1</ele>
      </trkpt>
      <trkpt lat="37.53436" lon="27.70277">
        <ele>557.8</ele>
      </trkpt>
      <trkpt lat="37.53427" lon="27.70271">
        <ele>558.3</ele>
      </trkpt>
      <trkpt lat="37.53423" lon="27.70265">
        <ele>558.8</ele>
      </trkpt>
      <trkpt lat="37.53402" lon="27.70221">
        <ele>559.5</ele>
      </trkpt>
      <trkpt lat="37.53401" lon="27.70191">
        <ele>560.5</ele>
      </trkpt>
      <trkpt lat="37.53401" lon="27.70177">
        <ele>561.1</ele>
      </trkpt>
      <trkpt lat="37.53401" lon="27.70177">
        <ele>561.1</ele>
      </trkpt>
      <trkpt lat="37.53387" lon="27.70123">
        <ele>559.9</ele>
      </trkpt>
      <trkpt lat="37.53386" lon="27.70119">
        <ele>559.8</ele>
      </trkpt>
      <trkpt lat="37.53401" lon="27.70108">
        <ele>560.6</ele>
      </trkpt>
      <trkpt lat="37.53413" lon="27.70103">
        <ele>561.3</ele>
      </trkpt>
      <trkpt lat="37.53423" lon="27.70095">
        <ele>561.6</ele>
      </trkpt>
      <trkpt lat="37.53429" lon="27.70072">
        <ele>561.8</ele>
      </trkpt>
      <trkpt lat="37.53431" lon="27.70065">
        <ele>562</ele>
      </trkpt>
      <trkpt lat="37.53433" lon="27.70062">
        <ele>562.2</ele>
      </trkpt>
      <trkpt lat="37.53429" lon="27.70048">
        <ele>562</ele>
      </trkpt>
      <trkpt lat="37.53423" lon="27.70033">
        <ele>561.6</ele>
      </trkpt>
      <trkpt lat="37.53409" lon="27.70027">
        <ele>560.7</ele>
      </trkpt>
      <trkpt lat="37.53395" lon="27.70022">
        <ele>560.3</ele>
      </trkpt>
      <trkpt lat="37.5339" lon="27.70008">
        <ele>560.3</ele>
      </trkpt>
      <trkpt lat="37.53384" lon="27.69999">
        <ele>560.3</ele>
      </trkpt>
      <trkpt lat="37.53364" lon="27.69985">
        <ele>561</ele>
      </trkpt>
      <trkpt lat="37.53358" lon="27.69973">
        <ele>561.8</ele>
      </trkpt>
      <trkpt lat="37.53353" lon="27.69959">
        <ele>562.6</ele>
      </trkpt>
      <trkpt lat="37.53349" lon="27.69946">
        <ele>563.4</ele>
      </trkpt>
      <trkpt lat="37.53348" lon="27.69932">
        <ele>564.3</ele>
      </trkpt>
      <trkpt lat="37.53347" lon="27.69921">
        <ele>565</ele>
      </trkpt>
      <trkpt lat="37.5334" lon="27.69911">
        <ele>565.5</ele>
      </trkpt>
      <trkpt lat="37.5333" lon="27.69906">
        <ele>565.2</ele>
      </trkpt>
      <trkpt lat="37.53323" lon="27.69895">
        <ele>566.5</ele>
      </trkpt>
      <trkpt lat="37.53322" lon="27.69883">
        <ele>567.8</ele>
      </trkpt>
      <trkpt lat="37.53317" lon="27.69865">
        <ele>569.7</ele>
      </trkpt>
      <trkpt lat="37.53313" lon="27.69848">
        <ele>571.4</ele>
      </trkpt>
      <trkpt lat="37.53312" lon="27.69847">
        <ele>571.6</ele>
      </trkpt>
      <trkpt lat="37.53307" lon="27.69833">
        <ele>572.9</ele>
      </trkpt>
      <trkpt lat="37.53308" lon="27.69825">
        <ele>574.6</ele>
      </trkpt>
      <trkpt lat="37.53301" lon="27.69818">
        <ele>575.5</ele>
      </trkpt>
      <trkpt lat="37.53298" lon="27.69812">
        <ele>576.8</ele>
      </trkpt>
      <trkpt lat="37.53297" lon="27.6981">
        <ele>577</ele>
      </trkpt>
      <trkpt lat="37.53297" lon="27.69808">
        <ele>577.5</ele>
      </trkpt>
      <trkpt lat="37.53294" lon="27.69804">
        <ele>578.1</ele>
      </trkpt>
      <trkpt lat="37.53292" lon="27.69803">
        <ele>578.3</ele>
      </trkpt>
      <trkpt lat="37.5329" lon="27.69793">
        <ele>580.1</ele>
      </trkpt>
      <trkpt lat="37.53287" lon="27.6979">
        <ele>580.5</ele>
      </trkpt>
      <trkpt lat="37.5328" lon="27.69791">
        <ele>579.9</ele>
      </trkpt>
      <trkpt lat="37.53278" lon="27.69791">
        <ele>579.8</ele>
      </trkpt>
      <trkpt lat="37.53276" lon="27.69788">
        <ele>580.4</ele>
      </trkpt>
      <trkpt lat="37.53282" lon="27.69782">
        <ele>581.9</ele>
      </trkpt>
      <trkpt lat="37.53291" lon="27.69777">
        <ele>583.6</ele>
      </trkpt>
      <trkpt lat="37.533" lon="27.69769">
        <ele>585.7</ele>
      </trkpt>
      <trkpt lat="37.53299" lon="27.69757">
        <ele>588.2</ele>
      </trkpt>
      <trkpt lat="37.53297" lon="27.69754">
        <ele>588.5</ele>
      </trkpt>
      <trkpt lat="37.53295" lon="27.6975">
        <ele>589.3</ele>
      </trkpt>
      <trkpt lat="37.533" lon="27.69745">
        <ele>590.9</ele>
      </trkpt>
      <trkpt lat="37.53306" lon="27.69743">
        <ele>592.1</ele>
      </trkpt>
      <trkpt lat="37.5331" lon="27.69738">
        <ele>593.6</ele>
      </trkpt>
      <trkpt lat="37.53311" lon="27.69736">
        <ele>594.4</ele>
      </trkpt>
      <trkpt lat="37.53318" lon="27.69718">
        <ele>599.9</ele>
      </trkpt>
      <trkpt lat="37.53319" lon="27.69711">
        <ele>601.9</ele>
      </trkpt>
      <trkpt lat="37.53312" lon="27.69711">
        <ele>601.6</ele>
      </trkpt>
      <trkpt lat="37.53305" lon="27.69721">
        <ele>598.1</ele>
      </trkpt>
      <trkpt lat="37.53303" lon="27.69721">
        <ele>598</ele>
      </trkpt>
      <trkpt lat="37.53292" lon="27.69716">
        <ele>598.3</ele>
      </trkpt>
      <trkpt lat="37.53287" lon="27.69719">
        <ele>597.3</ele>
      </trkpt>
      <trkpt lat="37.53274" lon="27.69714">
        <ele>597.6</ele>
      </trkpt>
      <trkpt lat="37.53274" lon="27.69712">
        <ele>598.1</ele>
      </trkpt>
      <trkpt lat="37.53274" lon="27.69711">
        <ele>598.4</ele>
      </trkpt>
      <trkpt lat="37.5328" lon="27.69713">
        <ele>598.2</ele>
      </trkpt>
      <trkpt lat="37.53285" lon="27.69707">
        <ele>600.2</ele>
      </trkpt>
      <trkpt lat="37.5328" lon="27.69693">
        <ele>603.8</ele>
      </trkpt>
      <trkpt lat="37.53267" lon="27.69683">
        <ele>605.3</ele>
      </trkpt>
      <trkpt lat="37.53258" lon="27.69668">
        <ele>608.5</ele>
      </trkpt>
      <trkpt lat="37.53246" lon="27.69652">
        <ele>611</ele>
      </trkpt>
      <trkpt lat="37.53237" lon="27.6965">
        <ele>609.2</ele>
      </trkpt>
      <trkpt lat="37.53229" lon="27.69637">
        <ele>610.7</ele>
      </trkpt>
      <trkpt lat="37.53225" lon="27.69632">
        <ele>611.5</ele>
      </trkpt>
      <trkpt lat="37.53223" lon="27.69627">
        <ele>612.5</ele>
      </trkpt>
      <trkpt lat="37.53221" lon="27.69618">
        <ele>614.4</ele>
      </trkpt>
      <trkpt lat="37.53215" lon="27.69606">
        <ele>616.3</ele>
      </trkpt>
      <trkpt lat="37.53206" lon="27.69599">
        <ele>616.2</ele>
      </trkpt>
      <trkpt lat="37.53195" lon="27.69587">
        <ele>616.9</ele>
      </trkpt>
      <trkpt lat="37.53182" lon="27.69579">
        <ele>616</ele>
      </trkpt>
      <trkpt lat="37.53179" lon="27.69572">
        <ele>616.5</ele>
      </trkpt>
      <trkpt lat="37.53178" lon="27.69567">
        <ele>617.2</ele>
      </trkpt>
      <trkpt lat="37.53178" lon="27.6956">
        <ele>618.5</ele>
      </trkpt>
      <trkpt lat="37.53179" lon="27.69551">
        <ele>620.3</ele>
      </trkpt>
      <trkpt lat="37.53179" lon="27.69551">
        <ele>620.3</ele>
      </trkpt>
      <trkpt lat="37.53179" lon="27.69547">
        <ele>620.9</ele>
      </trkpt>
      <trkpt lat="37.53174" lon="27.69532">
        <ele>622.7</ele>
      </trkpt>
      <trkpt lat="37.53166" lon="27.69519">
        <ele>623.4</ele>
      </trkpt>
      <trkpt lat="37.53162" lon="27.69513">
        <ele>623.5</ele>
      </trkpt>
      <trkpt lat="37.53153" lon="27.69497">
        <ele>624.5</ele>
      </trkpt>
      <trkpt lat="37.53152" lon="27.69491">
        <ele>625.5</ele>
      </trkpt>
      <trkpt lat="37.53151" lon="27.69486">
        <ele>626.3</ele>
      </trkpt>
      <trkpt lat="37.53148" lon="27.6948">
        <ele>626.9</ele>
      </trkpt>
      <trkpt lat="37.53144" lon="27.6947">
        <ele>627.7</ele>
      </trkpt>
      <trkpt lat="37.53143" lon="27.69464">
        <ele>628.8</ele>
      </trkpt>
      <trkpt lat="37.53141" lon="27.69449">
        <ele>631.1</ele>
      </trkpt>
      <trkpt lat="37.53133" lon="27.69429">
        <ele>633.2</ele>
      </trkpt>
      <trkpt lat="37.53131" lon="27.69419">
        <ele>634.6</ele>
      </trkpt>
      <trkpt lat="37.53114" lon="27.69408">
        <ele>632.2</ele>
      </trkpt>
      <trkpt lat="37.53112" lon="27.6941">
        <ele>631.1</ele>
      </trkpt>
      <trkpt lat="37.5311" lon="27.69411">
        <ele>630.4</ele>
      </trkpt>
      <trkpt lat="37.53112" lon="27.69405">
        <ele>632.1</ele>
      </trkpt>
      <trkpt lat="37.53108" lon="27.69395">
        <ele>632.6</ele>
      </trkpt>
      <trkpt lat="37.53103" lon="27.69377">
        <ele>634.1</ele>
      </trkpt>
      <trkpt lat="37.53098" lon="27.69357">
        <ele>635.9</ele>
      </trkpt>
      <trkpt lat="37.53095" lon="27.69339">
        <ele>638</ele>
      </trkpt>
      <trkpt lat="37.53092" lon="27.69321">
        <ele>640.6</ele>
      </trkpt>
      <trkpt lat="37.53095" lon="27.69311">
        <ele>642.9</ele>
      </trkpt>
      <trkpt lat="37.53096" lon="27.69309">
        <ele>643.4</ele>
      </trkpt>
      <trkpt lat="37.53103" lon="27.69305">
        <ele>645.5</ele>
      </trkpt>
      <trkpt lat="37.53101" lon="27.69291">
        <ele>647.3</ele>
      </trkpt>
      <trkpt lat="37.531" lon="27.69285">
        <ele>648.2</ele>
      </trkpt>
      <trkpt lat="37.531" lon="27.69278">
        <ele>649.2</ele>
      </trkpt>
      <trkpt lat="37.53089" lon="27.69278">
        <ele>648.5</ele>
      </trkpt>
      <trkpt lat="37.53086" lon="27.69269">
        <ele>650</ele>
      </trkpt>
      <trkpt lat="37.53088" lon="27.69267">
        <ele>650.6</ele>
      </trkpt>
      <trkpt lat="37.53093" lon="27.69263">
        <ele>651.4</ele>
      </trkpt>
      <trkpt lat="37.53097" lon="27.69254">
        <ele>653.2</ele>
      </trkpt>
      <trkpt lat="37.53097" lon="27.69251">
        <ele>653.7</ele>
      </trkpt>
      <trkpt lat="37.53098" lon="27.69245">
        <ele>655</ele>
      </trkpt>
      <trkpt lat="37.531" lon="27.69239">
        <ele>656.3</ele>
      </trkpt>
      <trkpt lat="37.53102" lon="27.69239">
        <ele>656.4</ele>
      </trkpt>
      <trkpt lat="37.53105" lon="27.69232">
        <ele>657.7</ele>
      </trkpt>
      <trkpt lat="37.53105" lon="27.69229">
        <ele>658.5</ele>
      </trkpt>
      <trkpt lat="37.53113" lon="27.69223">
        <ele>659.4</ele>
      </trkpt>
      <trkpt lat="37.53117" lon="27.69206">
        <ele>662.5</ele>
      </trkpt>
      <trkpt lat="37.53119" lon="27.69201">
        <ele>663.4</ele>
      </trkpt>
      <trkpt lat="37.53118" lon="27.69196">
        <ele>664.4</ele>
      </trkpt>
      <trkpt lat="37.53109" lon="27.69197">
        <ele>665.1</ele>
      </trkpt>
      <trkpt lat="37.53109" lon="27.69197">
        <ele>665.2</ele>
      </trkpt>
      <trkpt lat="37.53105" lon="27.69204">
        <ele>664</ele>
      </trkpt>
      <trkpt lat="37.53105" lon="27.69203">
        <ele>664.2</ele>
      </trkpt>
      <trkpt lat="37.53088" lon="27.69204">
        <ele>665.7</ele>
      </trkpt>
      <trkpt lat="37.53078" lon="27.69196">
        <ele>667.9</ele>
      </trkpt>
      <trkpt lat="37.53072" lon="27.69195">
        <ele>667.6</ele>
      </trkpt>
      <trkpt lat="37.53061" lon="27.69188">
        <ele>668.5</ele>
      </trkpt>
      <trkpt lat="37.53044" lon="27.69175">
        <ele>670.5</ele>
      </trkpt>
      <trkpt lat="37.5303" lon="27.69159">
        <ele>673.2</ele>
      </trkpt>
      <trkpt lat="37.5302" lon="27.69154">
        <ele>673.3</ele>
      </trkpt>
      <trkpt lat="37.53019" lon="27.69154">
        <ele>673.3</ele>
      </trkpt>
      <trkpt lat="37.53021" lon="27.69154">
        <ele>673.3</ele>
      </trkpt>
      <trkpt lat="37.53018" lon="27.69151">
        <ele>673.7</ele>
      </trkpt>
      <trkpt lat="37.53007" lon="27.69138">
        <ele>675.7</ele>
      </trkpt>
      <trkpt lat="37.53" lon="27.69129">
        <ele>677.1</ele>
      </trkpt>
      <trkpt lat="37.53001" lon="27.69129">
        <ele>677.3</ele>
      </trkpt>
      <trkpt lat="37.53004" lon="27.69124">
        <ele>678.5</ele>
      </trkpt>
      <trkpt lat="37.53002" lon="27.69129">
        <ele>677.2</ele>
      </trkpt>
      <trkpt lat="37.53003" lon="27.69123">
        <ele>678.6</ele>
      </trkpt>
      <trkpt lat="37.53002" lon="27.69123">
        <ele>678.6</ele>
      </trkpt>
      <trkpt lat="37.52999" lon="27.69116">
        <ele>679.8</ele>
      </trkpt>
      <trkpt lat="37.53002" lon="27.6911">
        <ele>681.3</ele>
      </trkpt>
      <trkpt lat="37.53002" lon="27.69111">
        <ele>681.2</ele>
      </trkpt>
      <trkpt lat="37.53002" lon="27.6911">
        <ele>681.3</ele>
      </trkpt>
      <trkpt lat="37.53003" lon="27.69109">
        <ele>681.5</ele>
      </trkpt>
      <trkpt lat="37.53005" lon="27.69109">
        <ele>681.7</ele>
      </trkpt>
      <trkpt lat="37.53017" lon="27.69103">
        <ele>683.7</ele>
      </trkpt>
      <trkpt lat="37.53035" lon="27.69103">
        <ele>684.8</ele>
      </trkpt>
      <trkpt lat="37.53038" lon="27.69104">
        <ele>684.8</ele>
      </trkpt>
      <trkpt lat="37.53036" lon="27.69107">
        <ele>684.1</ele>
      </trkpt>
      <trkpt lat="37.53036" lon="27.69113">
        <ele>682.8</ele>
      </trkpt>
      <trkpt lat="37.53036" lon="27.69113">
        <ele>682.8</ele>
      </trkpt>
      <trkpt lat="37.53044" lon="27.69114">
        <ele>683.1</ele>
      </trkpt>
      <trkpt lat="37.53054" lon="27.69113">
        <ele>683.9</ele>
      </trkpt>
      <trkpt lat="37.53057" lon="27.69099">
        <ele>686.7</ele>
      </trkpt>
      <trkpt lat="37.53055" lon="27.69093">
        <ele>687.9</ele>
      </trkpt>
      <trkpt lat="37.53057" lon="27.69085">
        <ele>689.5</ele>
      </trkpt>
      <trkpt lat="37.53057" lon="27.69064">
        <ele>691.3</ele>
      </trkpt>
      <trkpt lat="37.53056" lon="27.69059">
        <ele>691.7</ele>
      </trkpt>
      <trkpt lat="37.53052" lon="27.69049">
        <ele>692.6</ele>
      </trkpt>
      <trkpt lat="37.53048" lon="27.69048">
        <ele>692.7</ele>
      </trkpt>
      <trkpt lat="37.53043" lon="27.69036">
        <ele>694</ele>
      </trkpt>
      <trkpt lat="37.53041" lon="27.6903">
        <ele>694.8</ele>
      </trkpt>
      <trkpt lat="37.53037" lon="27.69021">
        <ele>696</ele>
      </trkpt>
      <trkpt lat="37.53038" lon="27.6902">
        <ele>696</ele>
      </trkpt>
      <trkpt lat="37.53038" lon="27.69017">
        <ele>696.4</ele>
      </trkpt>
      <trkpt lat="37.53043" lon="27.69016">
        <ele>696.2</ele>
      </trkpt>
      <trkpt lat="37.53048" lon="27.69019">
        <ele>695.5</ele>
      </trkpt>
      <trkpt lat="37.5305" lon="27.69019">
        <ele>695.4</ele>
      </trkpt>
      <trkpt lat="37.53055" lon="27.69021">
        <ele>694.9</ele>
      </trkpt>
      <trkpt lat="37.53056" lon="27.69021">
        <ele>694.9</ele>
      </trkpt>
      <trkpt lat="37.53057" lon="27.69021">
        <ele>694.9</ele>
      </trkpt>
      <trkpt lat="37.53057" lon="27.6902">
        <ele>694.9</ele>
      </trkpt>
      <trkpt lat="37.53054" lon="27.69021">
        <ele>695</ele>
      </trkpt>
      <trkpt lat="37.53058" lon="27.69012">
        <ele>695.6</ele>
      </trkpt>
      <trkpt lat="37.5306" lon="27.69001">
        <ele>696.2</ele>
      </trkpt>
      <trkpt lat="37.53061" lon="27.68995">
        <ele>696.7</ele>
      </trkpt>
      <trkpt lat="37.5306" lon="27.68993">
        <ele>696.8</ele>
      </trkpt>
      <trkpt lat="37.53054" lon="27.68978">
        <ele>699</ele>
      </trkpt>
      <trkpt lat="37.53043" lon="27.68966">
        <ele>701.6</ele>
      </trkpt>
      <trkpt lat="37.53042" lon="27.68962">
        <ele>702.3</ele>
      </trkpt>
      <trkpt lat="37.53039" lon="27.68947">
        <ele>704.6</ele>
      </trkpt>
      <trkpt lat="37.53036" lon="27.68929">
        <ele>707.1</ele>
      </trkpt>
      <trkpt lat="37.53034" lon="27.68917">
        <ele>708.9</ele>
      </trkpt>
      <trkpt lat="37.53032" lon="27.68898">
        <ele>711.5</ele>
      </trkpt>
      <trkpt lat="37.53031" lon="27.68892">
        <ele>712.3</ele>
      </trkpt>
      <trkpt lat="37.53032" lon="27.68881">
        <ele>713.4</ele>
      </trkpt>
      <trkpt lat="37.53029" lon="27.68865">
        <ele>715.4</ele>
      </trkpt>
      <trkpt lat="37.53032" lon="27.68851">
        <ele>716.6</ele>
      </trkpt>
      <trkpt lat="37.53029" lon="27.68842">
        <ele>717.7</ele>
      </trkpt>
      <trkpt lat="37.53022" lon="27.68825">
        <ele>720.3</ele>
      </trkpt>
      <trkpt lat="37.53018" lon="27.68817">
        <ele>721.5</ele>
      </trkpt>
      <trkpt lat="37.53012" lon="27.68805">
        <ele>723.5</ele>
      </trkpt>
      <trkpt lat="37.53009" lon="27.68805">
        <ele>723.6</ele>
      </trkpt>
      <trkpt lat="37.53001" lon="27.68794">
        <ele>725.2</ele>
      </trkpt>
      <trkpt lat="37.52997" lon="27.6879">
        <ele>725.8</ele>
      </trkpt>
      <trkpt lat="37.52992" lon="27.68785">
        <ele>726.6</ele>
      </trkpt>
      <trkpt lat="37.52992" lon="27.6878">
        <ele>727.2</ele>
      </trkpt>
      <trkpt lat="37.52994" lon="27.68777">
        <ele>727.6</ele>
      </trkpt>
      <trkpt lat="37.52996" lon="27.6876">
        <ele>729.8</ele>
      </trkpt>
      <trkpt lat="37.53002" lon="27.68744">
        <ele>732.5</ele>
      </trkpt>
      <trkpt lat="37.52999" lon="27.68731">
        <ele>735.5</ele>
      </trkpt>
      <trkpt lat="37.52996" lon="27.68723">
        <ele>737.3</ele>
      </trkpt>
      <trkpt lat="37.52995" lon="27.68719">
        <ele>738.3</ele>
      </trkpt>
      <trkpt lat="37.52994" lon="27.68714">
        <ele>739.4</ele>
      </trkpt>
      <trkpt lat="37.5299" lon="27.68703">
        <ele>742.2</ele>
      </trkpt>
      <trkpt lat="37.5299" lon="27.68698">
        <ele>743.3</ele>
      </trkpt>
      <trkpt lat="37.52989" lon="27.68691">
        <ele>745.1</ele>
      </trkpt>
      <trkpt lat="37.52986" lon="27.68683">
        <ele>747.1</ele>
      </trkpt>
      <trkpt lat="37.52984" lon="27.68674">
        <ele>749.3</ele>
      </trkpt>
      <trkpt lat="37.52979" lon="27.68665">
        <ele>751.5</ele>
      </trkpt>
      <trkpt lat="37.52976" lon="27.68653">
        <ele>753.8</ele>
      </trkpt>
      <trkpt lat="37.52975" lon="27.68647">
        <ele>755.2</ele>
      </trkpt>
      <trkpt lat="37.52975" lon="27.68639">
        <ele>756.6</ele>
      </trkpt>
      <trkpt lat="37.52974" lon="27.68628">
        <ele>758.6</ele>
      </trkpt>
      <trkpt lat="37.52973" lon="27.68625">
        <ele>759.2</ele>
      </trkpt>
      <trkpt lat="37.5297" lon="27.68621">
        <ele>760.3</ele>
      </trkpt>
      <trkpt lat="37.52965" lon="27.68617">
        <ele>761.6</ele>
      </trkpt>
      <trkpt lat="37.52966" lon="27.68612">
        <ele>762.4</ele>
      </trkpt>
      <trkpt lat="37.52966" lon="27.6861">
        <ele>762.8</ele>
      </trkpt>
      <trkpt lat="37.5296" lon="27.68603">
        <ele>764.5</ele>
      </trkpt>
      <trkpt lat="37.52958" lon="27.68604">
        <ele>764.6</ele>
      </trkpt>
      <trkpt lat="37.52957" lon="27.68604">
        <ele>764.7</ele>
      </trkpt>
      <trkpt lat="37.52955" lon="27.68602">
        <ele>765.2</ele>
      </trkpt>
      <trkpt lat="37.52954" lon="27.6859">
        <ele>767.8</ele>
      </trkpt>
      <trkpt lat="37.52953" lon="27.68583">
        <ele>769.1</ele>
      </trkpt>
      <trkpt lat="37.52952" lon="27.68579">
        <ele>769.5</ele>
      </trkpt>
      <trkpt lat="37.52946" lon="27.6857">
        <ele>770.9</ele>
      </trkpt>
      <trkpt lat="37.52945" lon="27.68562">
        <ele>771.6</ele>
      </trkpt>
      <trkpt lat="37.52938" lon="27.68546">
        <ele>773.1</ele>
      </trkpt>
      <trkpt lat="37.52937" lon="27.68542">
        <ele>773.4</ele>
      </trkpt>
      <trkpt lat="37.52931" lon="27.68535">
        <ele>773.9</ele>
      </trkpt>
      <trkpt lat="37.52921" lon="27.68522">
        <ele>774.5</ele>
      </trkpt>
      <trkpt lat="37.52918" lon="27.68515">
        <ele>774.7</ele>
      </trkpt>
      <trkpt lat="37.52914" lon="27.68509">
        <ele>775.3</ele>
      </trkpt>
      <trkpt lat="37.52909" lon="27.68502">
        <ele>776.5</ele>
      </trkpt>
      <trkpt lat="37.5291" lon="27.68496">
        <ele>777.3</ele>
      </trkpt>
      <trkpt lat="37.52911" lon="27.68493">
        <ele>777.6</ele>
      </trkpt>
      <trkpt lat="37.52913" lon="27.68489">
        <ele>778.2</ele>
      </trkpt>
      <trkpt lat="37.52915" lon="27.68477">
        <ele>780.6</ele>
      </trkpt>
      <trkpt lat="37.52915" lon="27.68471">
        <ele>782</ele>
      </trkpt>
      <trkpt lat="37.52917" lon="27.68465">
        <ele>783.1</ele>
      </trkpt>
      <trkpt lat="37.52922" lon="27.68456">
        <ele>785.3</ele>
      </trkpt>
      <trkpt lat="37.52926" lon="27.68458">
        <ele>785.4</ele>
      </trkpt>
      <trkpt lat="37.52935" lon="27.68463">
        <ele>784.7</ele>
      </trkpt>
      <trkpt lat="37.52937" lon="27.68462">
        <ele>785.3</ele>
      </trkpt>
      <trkpt lat="37.52946" lon="27.68466">
        <ele>785</ele>
      </trkpt>
      <trkpt lat="37.52951" lon="27.68473">
        <ele>783.4</ele>
      </trkpt>
      <trkpt lat="37.52953" lon="27.68477">
        <ele>782.7</ele>
      </trkpt>
      <trkpt lat="37.52959" lon="27.68478">
        <ele>782.8</ele>
      </trkpt>
      <trkpt lat="37.52967" lon="27.68473">
        <ele>784.6</ele>
      </trkpt>
      <trkpt lat="37.52972" lon="27.68469">
        <ele>785.8</ele>
      </trkpt>
      <trkpt lat="37.52972" lon="27.68469">
        <ele>786</ele>
      </trkpt>
      <trkpt lat="37.52981" lon="27.68473">
        <ele>785.6</ele>
      </trkpt>
      <trkpt lat="37.52983" lon="27.68476">
        <ele>784.7</ele>
      </trkpt>
      <trkpt lat="37.52991" lon="27.68476">
        <ele>785.4</ele>
      </trkpt>
      <trkpt lat="37.52998" lon="27.68474">
        <ele>786.4</ele>
      </trkpt>
      <trkpt lat="37.52998" lon="27.68476">
        <ele>785.7</ele>
      </trkpt>
      <trkpt lat="37.53" lon="27.68482">
        <ele>784.3</ele>
      </trkpt>
      <trkpt lat="37.53003" lon="27.68468">
        <ele>788.7</ele>
      </trkpt>
      <trkpt lat="37.53001" lon="27.68462">
        <ele>790.2</ele>
      </trkpt>
      <trkpt lat="37.52997" lon="27.68461">
        <ele>790</ele>
      </trkpt>
      <trkpt lat="37.52995" lon="27.68461">
        <ele>789.8</ele>
      </trkpt>
      <trkpt lat="37.52992" lon="27.68456">
        <ele>791.1</ele>
      </trkpt>
      <trkpt lat="37.52992" lon="27.68453">
        <ele>791.9</ele>
      </trkpt>
      <trkpt lat="37.52991" lon="27.68449">
        <ele>793</ele>
      </trkpt>
      <trkpt lat="37.5299" lon="27.68445">
        <ele>793.9</ele>
      </trkpt>
      <trkpt lat="37.52998" lon="27.68436">
        <ele>797.3</ele>
      </trkpt>
      <trkpt lat="37.52999" lon="27.68435">
        <ele>797.6</ele>
      </trkpt>
      <trkpt lat="37.52992" lon="27.68429">
        <ele>798.6</ele>
      </trkpt>
      <trkpt lat="37.52983" lon="27.68421">
        <ele>800</ele>
      </trkpt>
      <trkpt lat="37.52972" lon="27.68416">
        <ele>800.2</ele>
      </trkpt>
      <trkpt lat="37.52958" lon="27.68402">
        <ele>802.6</ele>
      </trkpt>
      <trkpt lat="37.52951" lon="27.684">
        <ele>802.2</ele>
      </trkpt>
      <trkpt lat="37.52935" lon="27.68383">
        <ele>804.8</ele>
      </trkpt>
      <trkpt lat="37.52926" lon="27.68377">
        <ele>805.2</ele>
      </trkpt>
      <trkpt lat="37.52918" lon="27.68375">
        <ele>804.7</ele>
      </trkpt>
      <trkpt lat="37.52906" lon="27.68374">
        <ele>805.5</ele>
      </trkpt>
      <trkpt lat="37.529" lon="27.68372">
        <ele>806.3</ele>
      </trkpt>
      <trkpt lat="37.52898" lon="27.68372">
        <ele>806.3</ele>
      </trkpt>
      <trkpt lat="37.52899" lon="27.68369">
        <ele>806.9</ele>
      </trkpt>
      <trkpt lat="37.52897" lon="27.68375">
        <ele>805.6</ele>
      </trkpt>
      <trkpt lat="37.52897" lon="27.68376">
        <ele>805.5</ele>
      </trkpt>
      <trkpt lat="37.52896" lon="27.68377">
        <ele>805.2</ele>
      </trkpt>
      <trkpt lat="37.52894" lon="27.68379">
        <ele>805</ele>
      </trkpt>
      <trkpt lat="37.52894" lon="27.68379">
        <ele>805.1</ele>
      </trkpt>
      <trkpt lat="37.52888" lon="27.68384">
        <ele>804.4</ele>
      </trkpt>
      <trkpt lat="37.52888" lon="27.68384">
        <ele>804.4</ele>
      </trkpt>
      <trkpt lat="37.52885" lon="27.68383">
        <ele>804.7</ele>
      </trkpt>
      <trkpt lat="37.52883" lon="27.68386">
        <ele>804.3</ele>
      </trkpt>
      <trkpt lat="37.52872" lon="27.68396">
        <ele>803.3</ele>
      </trkpt>
      <trkpt lat="37.52874" lon="27.68398">
        <ele>802.8</ele>
      </trkpt>
      <trkpt lat="37.52864" lon="27.684">
        <ele>803.2</ele>
      </trkpt>
      <trkpt lat="37.52845" lon="27.68407">
        <ele>804.1</ele>
      </trkpt>
      <trkpt lat="37.52844" lon="27.68407">
        <ele>804.1</ele>
      </trkpt>
      <trkpt lat="37.52834" lon="27.68411">
        <ele>804.6</ele>
      </trkpt>
      <trkpt lat="37.52834" lon="27.68413">
        <ele>804.5</ele>
      </trkpt>
      <trkpt lat="37.52832" lon="27.68409">
        <ele>805</ele>
      </trkpt>
      <trkpt lat="37.52815" lon="27.68406">
        <ele>806.3</ele>
      </trkpt>
      <trkpt lat="37.52812" lon="27.68405">
        <ele>806.5</ele>
      </trkpt>
      <trkpt lat="37.52812" lon="27.68405">
        <ele>806.6</ele>
      </trkpt>
      <trkpt lat="37.52812" lon="27.68402">
        <ele>806.9</ele>
      </trkpt>
      <trkpt lat="37.52806" lon="27.68398">
        <ele>807.8</ele>
      </trkpt>
      <trkpt lat="37.52801" lon="27.68391">
        <ele>808.9</ele>
      </trkpt>
      <trkpt lat="37.52798" lon="27.68389">
        <ele>809.3</ele>
      </trkpt>
      <trkpt lat="37.52799" lon="27.68389">
        <ele>809.3</ele>
      </trkpt>
      <trkpt lat="37.52796" lon="27.68386">
        <ele>809.9</ele>
      </trkpt>
      <trkpt lat="37.52795" lon="27.68385">
        <ele>810</ele>
      </trkpt>
      <trkpt lat="37.52796" lon="27.68383">
        <ele>810.3</ele>
      </trkpt>
      <trkpt lat="37.52793" lon="27.68378">
        <ele>811.1</ele>
      </trkpt>
      <trkpt lat="37.52791" lon="27.68377">
        <ele>811.2</ele>
      </trkpt>
      <trkpt lat="37.52792" lon="27.68377">
        <ele>811.2</ele>
      </trkpt>
      <trkpt lat="37.52767" lon="27.68339">
        <ele>817.5</ele>
      </trkpt>
      <trkpt lat="37.52759" lon="27.68343">
        <ele>817.3</ele>
      </trkpt>
      <trkpt lat="37.52758" lon="27.68352">
        <ele>816.1</ele>
      </trkpt>
      <trkpt lat="37.52754" lon="27.68354">
        <ele>816.1</ele>
      </trkpt>
      <trkpt lat="37.52752" lon="27.68355">
        <ele>816.1</ele>
      </trkpt>
      <trkpt lat="37.52749" lon="27.68358">
        <ele>815.6</ele>
      </trkpt>
      <trkpt lat="37.52749" lon="27.68355">
        <ele>816</ele>
      </trkpt>
      <trkpt lat="37.52755" lon="27.6834">
        <ele>817.9</ele>
      </trkpt>
      <trkpt lat="37.5276" lon="27.68325">
        <ele>819.2</ele>
      </trkpt>
      <trkpt lat="37.52764" lon="27.68306">
        <ele>820.7</ele>
      </trkpt>
      <trkpt lat="37.52771" lon="27.6829">
        <ele>821.6</ele>
      </trkpt>
      <trkpt lat="37.52783" lon="27.68273">
        <ele>822.5</ele>
      </trkpt>
      <trkpt lat="37.52789" lon="27.68261">
        <ele>823.2</ele>
      </trkpt>
      <trkpt lat="37.52795" lon="27.6825">
        <ele>823.8</ele>
      </trkpt>
      <trkpt lat="37.52795" lon="27.6825">
        <ele>823.8</ele>
      </trkpt>
      <trkpt lat="37.52795" lon="27.68251">
        <ele>823.8</ele>
      </trkpt>
      <trkpt lat="37.52801" lon="27.68251">
        <ele>823.5</ele>
      </trkpt>
      <trkpt lat="37.52814" lon="27.68247">
        <ele>822.8</ele>
      </trkpt>
      <trkpt lat="37.52826" lon="27.6824">
        <ele>821.9</ele>
      </trkpt>
      <trkpt lat="37.52827" lon="27.68239">
        <ele>821.9</ele>
      </trkpt>
      <trkpt lat="37.52829" lon="27.68238">
        <ele>821.7</ele>
      </trkpt>
      <trkpt lat="37.52836" lon="27.68234">
        <ele>821.4</ele>
      </trkpt>
      <trkpt lat="37.52846" lon="27.6822">
        <ele>821.2</ele>
      </trkpt>
      <trkpt lat="37.52849" lon="27.68214">
        <ele>821</ele>
      </trkpt>
      <trkpt lat="37.52858" lon="27.6821">
        <ele>821.3</ele>
      </trkpt>
      <trkpt lat="37.52865" lon="27.68207">
        <ele>821.4</ele>
      </trkpt>
      <trkpt lat="37.52875" lon="27.682">
        <ele>821.6</ele>
      </trkpt>
      <trkpt lat="37.52881" lon="27.68191">
        <ele>821.5</ele>
      </trkpt>
      <trkpt lat="37.52891" lon="27.68176">
        <ele>821.2</ele>
      </trkpt>
      <trkpt lat="37.52898" lon="27.68173">
        <ele>821.4</ele>
      </trkpt>
      <trkpt lat="37.52908" lon="27.68163">
        <ele>821</ele>
      </trkpt>
      <trkpt lat="37.52912" lon="27.68138">
        <ele>816.5</ele>
      </trkpt>
      <trkpt lat="37.52912" lon="27.68138">
        <ele>816.4</ele>
      </trkpt>
      <trkpt lat="37.52914" lon="27.68146">
        <ele>817.9</ele>
      </trkpt>
      <trkpt lat="37.52922" lon="27.68139">
        <ele>817.7</ele>
      </trkpt>
      <trkpt lat="37.52932" lon="27.68126">
        <ele>816.5</ele>
      </trkpt>
      <trkpt lat="37.52942" lon="27.68122">
        <ele>816.8</ele>
      </trkpt>
      <trkpt lat="37.52944" lon="27.6811">
        <ele>814.3</ele>
      </trkpt>
      <trkpt lat="37.52949" lon="27.68108">
        <ele>814.4</ele>
      </trkpt>
      <trkpt lat="37.52954" lon="27.68107">
        <ele>814.8</ele>
      </trkpt>
      <trkpt lat="37.52955" lon="27.68107">
        <ele>814.7</ele>
      </trkpt>
      <trkpt lat="37.52964" lon="27.68103">
        <ele>814.8</ele>
      </trkpt>
      <trkpt lat="37.52974" lon="27.68106">
        <ele>816.7</ele>
      </trkpt>
      <trkpt lat="37.5298" lon="27.68107">
        <ele>817.8</ele>
      </trkpt>
      <trkpt lat="37.52981" lon="27.68107">
        <ele>818</ele>
      </trkpt>
      <trkpt lat="37.52986" lon="27.68095">
        <ele>814.7</ele>
      </trkpt>
      <trkpt lat="37.52994" lon="27.68093">
        <ele>814.6</ele>
      </trkpt>
      <trkpt lat="37.53006" lon="27.68088">
        <ele>815.4</ele>
      </trkpt>
      <trkpt lat="37.5301" lon="27.68083">
        <ele>815.1</ele>
      </trkpt>
      <trkpt lat="37.5302" lon="27.6807">
        <ele>815.3</ele>
      </trkpt>
      <trkpt lat="37.53022" lon="27.68064">
        <ele>814.8</ele>
      </trkpt>
      <trkpt lat="37.53026" lon="27.68059">
        <ele>815</ele>
      </trkpt>
      <trkpt lat="37.53035" lon="27.68049">
        <ele>815.2</ele>
      </trkpt>
      <trkpt lat="37.53045" lon="27.68039">
        <ele>815.7</ele>
      </trkpt>
      <trkpt lat="37.53044" lon="27.68022">
        <ele>811</ele>
      </trkpt>
      <trkpt lat="37.53047" lon="27.68015">
        <ele>810.1</ele>
      </trkpt>
      <trkpt lat="37.53061" lon="27.6801">
        <ele>811.9</ele>
      </trkpt>
      <trkpt lat="37.53062" lon="27.68001">
        <ele>809.7</ele>
      </trkpt>
      <trkpt lat="37.53067" lon="27.67992">
        <ele>808.3</ele>
      </trkpt>
      <trkpt lat="37.53069" lon="27.67986">
        <ele>807</ele>
      </trkpt>
      <trkpt lat="37.53074" lon="27.67977">
        <ele>805</ele>
      </trkpt>
      <trkpt lat="37.53079" lon="27.67965">
        <ele>802.3</ele>
      </trkpt>
      <trkpt lat="37.53081" lon="27.67948">
        <ele>797.3</ele>
      </trkpt>
      <trkpt lat="37.53079" lon="27.67941">
        <ele>794.9</ele>
      </trkpt>
      <trkpt lat="37.53075" lon="27.67938">
        <ele>793.5</ele>
      </trkpt>
      <trkpt lat="37.53076" lon="27.67932">
        <ele>791.8</ele>
      </trkpt>
      <trkpt lat="37.53077" lon="27.67936">
        <ele>793.2</ele>
      </trkpt>
      <trkpt lat="37.5308" lon="27.67939">
        <ele>794.6</ele>
      </trkpt>
      <trkpt lat="37.53085" lon="27.67951">
        <ele>798.7</ele>
      </trkpt>
      <trkpt lat="37.53086" lon="27.67951">
        <ele>799</ele>
      </trkpt>
      <trkpt lat="37.53098" lon="27.67954">
        <ele>800.5</ele>
      </trkpt>
      <trkpt lat="37.53099" lon="27.67954">
        <ele>800.5</ele>
      </trkpt>
      <trkpt lat="37.53106" lon="27.67958">
        <ele>802.2</ele>
      </trkpt>
      <trkpt lat="37.5312" lon="27.67958">
        <ele>803.3</ele>
      </trkpt>
      <trkpt lat="37.53125" lon="27.67956">
        <ele>802.7</ele>
      </trkpt>
      <trkpt lat="37.53134" lon="27.67947">
        <ele>800</ele>
      </trkpt>
      <trkpt lat="37.53133" lon="27.67948">
        <ele>800.1</ele>
      </trkpt>
      <trkpt lat="37.53143" lon="27.6795">
        <ele>801.5</ele>
      </trkpt>
      <trkpt lat="37.53147" lon="27.67944">
        <ele>799.3</ele>
      </trkpt>
      <trkpt lat="37.53149" lon="27.67941">
        <ele>798.1</ele>
      </trkpt>
      <trkpt lat="37.53158" lon="27.67932">
        <ele>794.4</ele>
      </trkpt>
      <trkpt lat="37.53165" lon="27.67921">
        <ele>789.8</ele>
      </trkpt>
      <trkpt lat="37.53166" lon="27.67906">
        <ele>783.9</ele>
      </trkpt>
      <trkpt lat="37.53168" lon="27.67897">
        <ele>780.8</ele>
      </trkpt>
      <trkpt lat="37.5317" lon="27.679">
        <ele>782.3</ele>
      </trkpt>
      <trkpt lat="37.53177" lon="27.67891">
        <ele>779.6</ele>
      </trkpt>
      <trkpt lat="37.53185" lon="27.67896">
        <ele>782.1</ele>
      </trkpt>
      <trkpt lat="37.53199" lon="27.67893">
        <ele>782.3</ele>
      </trkpt>
      <trkpt lat="37.53211" lon="27.67892">
        <ele>783.2</ele>
      </trkpt>
      <trkpt lat="37.53226" lon="27.67897">
        <ele>786.2</ele>
      </trkpt>
      <trkpt lat="37.53235" lon="27.679">
        <ele>788.2</ele>
      </trkpt>
      <trkpt lat="37.53238" lon="27.67895">
        <ele>786.7</ele>
      </trkpt>
      <trkpt lat="37.53247" lon="27.6789">
        <ele>786.1</ele>
      </trkpt>
      <trkpt lat="37.53259" lon="27.6789">
        <ele>789.6</ele>
      </trkpt>
      <trkpt lat="37.53274" lon="27.67887">
        <ele>794.1</ele>
      </trkpt>
      <trkpt lat="37.53278" lon="27.67884">
        <ele>794.4</ele>
      </trkpt>
      <trkpt lat="37.53282" lon="27.67872">
        <ele>792.6</ele>
      </trkpt>
      <trkpt lat="37.53281" lon="27.67857">
        <ele>787.7</ele>
      </trkpt>
      <trkpt lat="37.53283" lon="27.67848">
        <ele>785.9</ele>
      </trkpt>
      <trkpt lat="37.53281" lon="27.67849">
        <ele>785.5</ele>
      </trkpt>
      <trkpt lat="37.53286" lon="27.67838">
        <ele>784.2</ele>
      </trkpt>
      <trkpt lat="37.53288" lon="27.67822">
        <ele>782.5</ele>
      </trkpt>
      <trkpt lat="37.53293" lon="27.67801">
        <ele>781.6</ele>
      </trkpt>
      <trkpt lat="37.53299" lon="27.678">
        <ele>783.6</ele>
      </trkpt>
      <trkpt lat="37.533" lon="27.67793">
        <ele>783.3</ele>
      </trkpt>
      <trkpt lat="37.53307" lon="27.67778">
        <ele>783.3</ele>
      </trkpt>
      <trkpt lat="37.53309" lon="27.6777">
        <ele>782.8</ele>
      </trkpt>
      <trkpt lat="37.53312" lon="27.6776">
        <ele>782.3</ele>
      </trkpt>
      <trkpt lat="37.53319" lon="27.67752">
        <ele>783.6</ele>
      </trkpt>
      <trkpt lat="37.53327" lon="27.67746">
        <ele>785.6</ele>
      </trkpt>
      <trkpt lat="37.53334" lon="27.67731">
        <ele>786.6</ele>
      </trkpt>
      <trkpt lat="37.53332" lon="27.67728">
        <ele>785.7</ele>
      </trkpt>
      <trkpt lat="37.53329" lon="27.67715">
        <ele>783.9</ele>
      </trkpt>
      <trkpt lat="37.53331" lon="27.67704">
        <ele>783.3</ele>
      </trkpt>
      <trkpt lat="37.53333" lon="27.67691">
        <ele>783.1</ele>
      </trkpt>
      <trkpt lat="37.53336" lon="27.67683">
        <ele>782.9</ele>
      </trkpt>
      <trkpt lat="37.53338" lon="27.67679">
        <ele>782.9</ele>
      </trkpt>
      <trkpt lat="37.5334" lon="27.67667">
        <ele>782.2</ele>
      </trkpt>
      <trkpt lat="37.53346" lon="27.67656">
        <ele>782.2</ele>
      </trkpt>
      <trkpt lat="37.53348" lon="27.67639">
        <ele>781</ele>
      </trkpt>
      <trkpt lat="37.53343" lon="27.67633">
        <ele>779.9</ele>
      </trkpt>
      <trkpt lat="37.53343" lon="27.67631">
        <ele>779.8</ele>
      </trkpt>
      <trkpt lat="37.53351" lon="27.6763">
        <ele>780.7</ele>
      </trkpt>
      <trkpt lat="37.53355" lon="27.67622">
        <ele>780.4</ele>
      </trkpt>
      <trkpt lat="37.53364" lon="27.67617">
        <ele>781</ele>
      </trkpt>
      <trkpt lat="37.53373" lon="27.67607">
        <ele>781</ele>
      </trkpt>
      <trkpt lat="37.5338" lon="27.67608">
        <ele>781.8</ele>
      </trkpt>
      <trkpt lat="37.53382" lon="27.67608">
        <ele>782</ele>
      </trkpt>
      <trkpt lat="37.53388" lon="27.67592">
        <ele>780.6</ele>
      </trkpt>
      <trkpt lat="37.53392" lon="27.67577">
        <ele>778.8</ele>
      </trkpt>
      <trkpt lat="37.53391" lon="27.67553">
        <ele>774.5</ele>
      </trkpt>
      <trkpt lat="37.53393" lon="27.67552">
        <ele>774.3</ele>
      </trkpt>
      <trkpt lat="37.53396" lon="27.67542">
        <ele>772.7</ele>
      </trkpt>
      <trkpt lat="37.53399" lon="27.67533">
        <ele>771.2</ele>
      </trkpt>
      <trkpt lat="37.53406" lon="27.67523">
        <ele>769.4</ele>
      </trkpt>
      <trkpt lat="37.53417" lon="27.67512">
        <ele>767.3</ele>
      </trkpt>
      <trkpt lat="37.53417" lon="27.67499">
        <ele>764.8</ele>
      </trkpt>
      <trkpt lat="37.53426" lon="27.67488">
        <ele>763</ele>
      </trkpt>
      <trkpt lat="37.5343" lon="27.67475">
        <ele>761.1</ele>
      </trkpt>
      <trkpt lat="37.53428" lon="27.6747">
        <ele>760.5</ele>
      </trkpt>
      <trkpt lat="37.53427" lon="27.67468">
        <ele>760.2</ele>
      </trkpt>
      <trkpt lat="37.53435" lon="27.67463">
        <ele>759.1</ele>
      </trkpt>
      <trkpt lat="37.53438" lon="27.6745">
        <ele>757</ele>
      </trkpt>
      <trkpt lat="37.53442" lon="27.67439">
        <ele>754.9</ele>
      </trkpt>
      <trkpt lat="37.53448" lon="27.67424">
        <ele>752.2</ele>
      </trkpt>
      <trkpt lat="37.53447" lon="27.6741">
        <ele>750.1</ele>
      </trkpt>
      <trkpt lat="37.53442" lon="27.67396">
        <ele>748.8</ele>
      </trkpt>
      <trkpt lat="37.53437" lon="27.67384">
        <ele>747.8</ele>
      </trkpt>
      <trkpt lat="37.53436" lon="27.67382">
        <ele>747.6</ele>
      </trkpt>
      <trkpt lat="37.53437" lon="27.6738">
        <ele>747.2</ele>
      </trkpt>
      <trkpt lat="37.53436" lon="27.6737">
        <ele>746.1</ele>
      </trkpt>
      <trkpt lat="37.53435" lon="27.6737">
        <ele>746</ele>
      </trkpt>
      <trkpt lat="37.53439" lon="27.67359">
        <ele>744.2</ele>
      </trkpt>
      <trkpt lat="37.53446" lon="27.67347">
        <ele>741.8</ele>
      </trkpt>
      <trkpt lat="37.53462" lon="27.67341">
        <ele>738.6</ele>
      </trkpt>
      <trkpt lat="37.53467" lon="27.67342">
        <ele>738.1</ele>
      </trkpt>
      <trkpt lat="37.53467" lon="27.67342">
        <ele>738.1</ele>
      </trkpt>
      <trkpt lat="37.53466" lon="27.67343">
        <ele>738.3</ele>
      </trkpt>
      <trkpt lat="37.53472" lon="27.67337">
        <ele>736.5</ele>
      </trkpt>
      <trkpt lat="37.53474" lon="27.67336">
        <ele>736.1</ele>
      </trkpt>
      <trkpt lat="37.53483" lon="27.6733">
        <ele>733.9</ele>
      </trkpt>
      <trkpt lat="37.53483" lon="27.6733">
        <ele>733.9</ele>
      </trkpt>
      <trkpt lat="37.53482" lon="27.67329">
        <ele>733.9</ele>
      </trkpt>
      <trkpt lat="37.53481" lon="27.67328">
        <ele>733.8</ele>
      </trkpt>
      <trkpt lat="37.53484" lon="27.67321">
        <ele>732.2</ele>
      </trkpt>
      <trkpt lat="37.53481" lon="27.67316">
        <ele>731.7</ele>
      </trkpt>
      <trkpt lat="37.53484" lon="27.67312">
        <ele>730.5</ele>
      </trkpt>
      <trkpt lat="37.53479" lon="27.67305">
        <ele>730.1</ele>
      </trkpt>
      <trkpt lat="37.53479" lon="27.67304">
        <ele>729.9</ele>
      </trkpt>
      <trkpt lat="37.53482" lon="27.673">
        <ele>728.9</ele>
      </trkpt>
      <trkpt lat="37.53478" lon="27.67293">
        <ele>728</ele>
      </trkpt>
      <trkpt lat="37.5348" lon="27.67285">
        <ele>726.4</ele>
      </trkpt>
      <trkpt lat="37.53479" lon="27.67271">
        <ele>724.3</ele>
      </trkpt>
      <trkpt lat="37.5348" lon="27.67269">
        <ele>723.6</ele>
      </trkpt>
      <trkpt lat="37.53484" lon="27.67266">
        <ele>722.5</ele>
      </trkpt>
      <trkpt lat="37.53482" lon="27.6726">
        <ele>721.7</ele>
      </trkpt>
      <trkpt lat="37.53482" lon="27.67249">
        <ele>719.8</ele>
      </trkpt>
      <trkpt lat="37.53482" lon="27.67245">
        <ele>718.9</ele>
      </trkpt>
      <trkpt lat="37.53479" lon="27.67234">
        <ele>717.5</ele>
      </trkpt>
      <trkpt lat="37.53478" lon="27.67234">
        <ele>717.5</ele>
      </trkpt>
      <trkpt lat="37.53476" lon="27.67225">
        <ele>716.1</ele>
      </trkpt>
      <trkpt lat="37.53475" lon="27.67218">
        <ele>714.8</ele>
      </trkpt>
      <trkpt lat="37.53476" lon="27.6721">
        <ele>713.1</ele>
      </trkpt>
      <trkpt lat="37.53475" lon="27.67201">
        <ele>711.5</ele>
      </trkpt>
      <trkpt lat="37.53473" lon="27.67198">
        <ele>711.1</ele>
      </trkpt>
      <trkpt lat="37.53477" lon="27.67198">
        <ele>710.5</ele>
      </trkpt>
      <trkpt lat="37.53477" lon="27.67197">
        <ele>710.4</ele>
      </trkpt>
      <trkpt lat="37.53482" lon="27.67198">
        <ele>709.8</ele>
      </trkpt>
      <trkpt lat="37.53486" lon="27.67194">
        <ele>708.4</ele>
      </trkpt>
      <trkpt lat="37.5349" lon="27.67194">
        <ele>707.7</ele>
      </trkpt>
      <trkpt lat="37.53496" lon="27.67189">
        <ele>705.9</ele>
      </trkpt>
      <trkpt lat="37.53501" lon="27.67193">
        <ele>705.8</ele>
      </trkpt>
      <trkpt lat="37.5351" lon="27.67196">
        <ele>704.8</ele>
      </trkpt>
      <trkpt lat="37.53519" lon="27.67193">
        <ele>702.5</ele>
      </trkpt>
      <trkpt lat="37.53522" lon="27.67188">
        <ele>701</ele>
      </trkpt>
      <trkpt lat="37.53528" lon="27.67194">
        <ele>701.2</ele>
      </trkpt>
      <trkpt lat="37.53533" lon="27.67191">
        <ele>699.7</ele>
      </trkpt>
      <trkpt lat="37.53534" lon="27.67185">
        <ele>698.4</ele>
      </trkpt>
      <trkpt lat="37.53531" lon="27.67172">
        <ele>696.5</ele>
      </trkpt>
      <trkpt lat="37.53527" lon="27.67166">
        <ele>696</ele>
      </trkpt>
      <trkpt lat="37.53529" lon="27.6716">
        <ele>694.4</ele>
      </trkpt>
      <trkpt lat="37.53525" lon="27.67147">
        <ele>692.4</ele>
      </trkpt>
      <trkpt lat="37.53518" lon="27.67131">
        <ele>690.1</ele>
      </trkpt>
      <trkpt lat="37.53517" lon="27.67128">
        <ele>689.8</ele>
      </trkpt>
      <trkpt lat="37.53515" lon="27.67117">
        <ele>687.9</ele>
      </trkpt>
      <trkpt lat="37.53512" lon="27.67099">
        <ele>684.3</ele>
      </trkpt>
      <trkpt lat="37.53517" lon="27.67098">
        <ele>683.4</ele>
      </trkpt>
      <trkpt lat="37.53525" lon="27.6709">
        <ele>680.5</ele>
      </trkpt>
      <trkpt lat="37.53524" lon="27.67089">
        <ele>680.4</ele>
      </trkpt>
      <trkpt lat="37.53533" lon="27.67086">
        <ele>678.3</ele>
      </trkpt>
      <trkpt lat="37.53536" lon="27.67084">
        <ele>677.5</ele>
      </trkpt>
      <trkpt lat="37.53542" lon="27.67076">
        <ele>675</ele>
      </trkpt>
      <trkpt lat="37.53545" lon="27.67068">
        <ele>673.1</ele>
      </trkpt>
      <trkpt lat="37.53546" lon="27.67067">
        <ele>672.9</ele>
      </trkpt>
      <trkpt lat="37.53548" lon="27.67065">
        <ele>672.2</ele>
      </trkpt>
      <trkpt lat="37.53548" lon="27.6706">
        <ele>671.3</ele>
      </trkpt>
      <trkpt lat="37.53554" lon="27.67052">
        <ele>669.1</ele>
      </trkpt>
      <trkpt lat="37.53556" lon="27.67049">
        <ele>668.1</ele>
      </trkpt>
      <trkpt lat="37.53562" lon="27.67038">
        <ele>665.7</ele>
      </trkpt>
      <trkpt lat="37.53564" lon="27.67027">
        <ele>663.4</ele>
      </trkpt>
      <trkpt lat="37.53562" lon="27.67014">
        <ele>661.5</ele>
      </trkpt>
      <trkpt lat="37.53564" lon="27.67009">
        <ele>660.4</ele>
      </trkpt>
      <trkpt lat="37.53566" lon="27.66999">
        <ele>658.6</ele>
      </trkpt>
      <trkpt lat="37.53565" lon="27.66994">
        <ele>658</ele>
      </trkpt>
      <trkpt lat="37.53564" lon="27.66991">
        <ele>657.7</ele>
      </trkpt>
      <trkpt lat="37.53561" lon="27.66986">
        <ele>657.3</ele>
      </trkpt>
      <trkpt lat="37.53562" lon="27.6698">
        <ele>656.5</ele>
      </trkpt>
      <trkpt lat="37.53557" lon="27.6697">
        <ele>655.5</ele>
      </trkpt>
      <trkpt lat="37.53556" lon="27.66963">
        <ele>654.5</ele>
      </trkpt>
      <trkpt lat="37.53551" lon="27.66954">
        <ele>653.6</ele>
      </trkpt>
      <trkpt lat="37.53553" lon="27.66952">
        <ele>653.3</ele>
      </trkpt>
      <trkpt lat="37.53554" lon="27.66949">
        <ele>652.8</ele>
      </trkpt>
      <trkpt lat="37.53558" lon="27.66936">
        <ele>650.9</ele>
      </trkpt>
      <trkpt lat="37.53556" lon="27.66937">
        <ele>651</ele>
      </trkpt>
      <trkpt lat="37.53564" lon="27.66931">
        <ele>650.1</ele>
      </trkpt>
      <trkpt lat="37.5357" lon="27.66923">
        <ele>648.9</ele>
      </trkpt>
      <trkpt lat="37.53569" lon="27.66915">
        <ele>648</ele>
      </trkpt>
      <trkpt lat="37.5357" lon="27.66911">
        <ele>647.7</ele>
      </trkpt>
      <trkpt lat="37.5357" lon="27.66897">
        <ele>646.7</ele>
      </trkpt>
      <trkpt lat="37.53561" lon="27.66887">
        <ele>646.3</ele>
      </trkpt>
      <trkpt lat="37.53561" lon="27.66883">
        <ele>646.1</ele>
      </trkpt>
      <trkpt lat="37.53563" lon="27.66873">
        <ele>645.3</ele>
      </trkpt>
      <trkpt lat="37.53563" lon="27.66869">
        <ele>645.1</ele>
      </trkpt>
      <trkpt lat="37.53559" lon="27.66867">
        <ele>645.1</ele>
      </trkpt>
      <trkpt lat="37.53558" lon="27.66866">
        <ele>645.2</ele>
      </trkpt>
      <trkpt lat="37.53561" lon="27.6686">
        <ele>644.6</ele>
      </trkpt>
      <trkpt lat="37.53568" lon="27.66853">
        <ele>643.7</ele>
      </trkpt>
      <trkpt lat="37.53566" lon="27.66845">
        <ele>643.3</ele>
      </trkpt>
      <trkpt lat="37.53569" lon="27.66839">
        <ele>642.6</ele>
      </trkpt>
      <trkpt lat="37.53564" lon="27.66836">
        <ele>642.8</ele>
      </trkpt>
      <trkpt lat="37.5357" lon="27.66832">
        <ele>642.2</ele>
      </trkpt>
      <trkpt lat="37.53573" lon="27.66827">
        <ele>642.4</ele>
      </trkpt>
      <trkpt lat="37.53579" lon="27.66813">
        <ele>643.1</ele>
      </trkpt>
      <trkpt lat="37.53574" lon="27.66813">
        <ele>643.5</ele>
      </trkpt>
      <trkpt lat="37.53577" lon="27.6681">
        <ele>643.5</ele>
      </trkpt>
      <trkpt lat="37.53589" lon="27.66808">
        <ele>642.8</ele>
      </trkpt>
      <trkpt lat="37.5359" lon="27.66807">
        <ele>642.9</ele>
      </trkpt>
      <trkpt lat="37.53592" lon="27.66799">
        <ele>643.3</ele>
      </trkpt>
      <trkpt lat="37.53601" lon="27.66792">
        <ele>643.2</ele>
      </trkpt>
      <trkpt lat="37.5361" lon="27.66784">
        <ele>643</ele>
      </trkpt>
      <trkpt lat="37.53611" lon="27.66783">
        <ele>643</ele>
      </trkpt>
      <trkpt lat="37.53613" lon="27.66782">
        <ele>643</ele>
      </trkpt>
      <trkpt lat="37.53613" lon="27.66782">
        <ele>643</ele>
      </trkpt>
      <trkpt lat="37.53612" lon="27.66783">
        <ele>643</ele>
      </trkpt>
      <trkpt lat="37.53621" lon="27.66778">
        <ele>642.5</ele>
      </trkpt>
      <trkpt lat="37.53624" lon="27.6677">
        <ele>642.6</ele>
      </trkpt>
      <trkpt lat="37.53628" lon="27.66764">
        <ele>642.5</ele>
      </trkpt>
      <trkpt lat="37.53637" lon="27.66753">
        <ele>642.1</ele>
      </trkpt>
      <trkpt lat="37.53642" lon="27.66743">
        <ele>642.6</ele>
      </trkpt>
      <trkpt lat="37.53644" lon="27.6673">
        <ele>643.7</ele>
      </trkpt>
      <trkpt lat="37.53648" lon="27.66723">
        <ele>644</ele>
      </trkpt>
      <trkpt lat="37.53651" lon="27.66722">
        <ele>643.9</ele>
      </trkpt>
      <trkpt lat="37.53663" lon="27.66711">
        <ele>643.6</ele>
      </trkpt>
      <trkpt lat="37.53662" lon="27.66709">
        <ele>644</ele>
      </trkpt>
      <trkpt lat="37.5367" lon="27.66706">
        <ele>643.6</ele>
      </trkpt>
      <trkpt lat="37.53671" lon="27.66705">
        <ele>643.6</ele>
      </trkpt>
      <trkpt lat="37.53677" lon="27.66699">
        <ele>643.7</ele>
      </trkpt>
      <trkpt lat="37.53683" lon="27.66689">
        <ele>644.3</ele>
      </trkpt>
      <trkpt lat="37.53693" lon="27.66677">
        <ele>644.5</ele>
      </trkpt>
      <trkpt lat="37.537" lon="27.66668">
        <ele>644.7</ele>
      </trkpt>
      <trkpt lat="37.53711" lon="27.66653">
        <ele>643.9</ele>
      </trkpt>
      <trkpt lat="37.53712" lon="27.66652">
        <ele>643.8</ele>
      </trkpt>
      <trkpt lat="37.53712" lon="27.66651">
        <ele>643.8</ele>
      </trkpt>
      <trkpt lat="37.53715" lon="27.66648">
        <ele>643.4</ele>
      </trkpt>
      <trkpt lat="37.53727" lon="27.66639">
        <ele>642</ele>
      </trkpt>
      <trkpt lat="37.53736" lon="27.66625">
        <ele>640.5</ele>
      </trkpt>
      <trkpt lat="37.53735" lon="27.66618">
        <ele>640.5</ele>
      </trkpt>
      <trkpt lat="37.53733" lon="27.66608">
        <ele>640.7</ele>
      </trkpt>
      <trkpt lat="37.53727" lon="27.66596">
        <ele>641.6</ele>
      </trkpt>
      <trkpt lat="37.53727" lon="27.66592">
        <ele>641.5</ele>
      </trkpt>
      <trkpt lat="37.53726" lon="27.66581">
        <ele>641.7</ele>
      </trkpt>
      <trkpt lat="37.53725" lon="27.66573">
        <ele>641.9</ele>
      </trkpt>
      <trkpt lat="37.53724" lon="27.66562">
        <ele>642.3</ele>
      </trkpt>
      <trkpt lat="37.53725" lon="27.66562">
        <ele>642.2</ele>
      </trkpt>
      <trkpt lat="37.53722" lon="27.66549">
        <ele>643</ele>
      </trkpt>
      <trkpt lat="37.53721" lon="27.66547">
        <ele>643.2</ele>
      </trkpt>
      <trkpt lat="37.53717" lon="27.66542">
        <ele>643.9</ele>
      </trkpt>
      <trkpt lat="37.53711" lon="27.66534">
        <ele>645.1</ele>
      </trkpt>
      <trkpt lat="37.53706" lon="27.66524">
        <ele>646.1</ele>
      </trkpt>
      <trkpt lat="37.53703" lon="27.6652">
        <ele>646.6</ele>
      </trkpt>
      <trkpt lat="37.53704" lon="27.66516">
        <ele>646.5</ele>
      </trkpt>
      <trkpt lat="37.53702" lon="27.66506">
        <ele>647</ele>
      </trkpt>
      <trkpt lat="37.53699" lon="27.66498">
        <ele>647.7</ele>
      </trkpt>
      <trkpt lat="37.53699" lon="27.66493">
        <ele>648.1</ele>
      </trkpt>
      <trkpt lat="37.53699" lon="27.66489">
        <ele>648.5</ele>
      </trkpt>
      <trkpt lat="37.537" lon="27.66483">
        <ele>648.9</ele>
      </trkpt>
      <trkpt lat="37.53701" lon="27.66483">
        <ele>648.7</ele>
      </trkpt>
      <trkpt lat="37.53707" lon="27.66477">
        <ele>648.5</ele>
      </trkpt>
      <trkpt lat="37.53708" lon="27.66476">
        <ele>648.4</ele>
      </trkpt>
      <trkpt lat="37.53711" lon="27.66472">
        <ele>648.6</ele>
      </trkpt>
      <trkpt lat="37.53711" lon="27.66472">
        <ele>648.6</ele>
      </trkpt>
      <trkpt lat="37.53716" lon="27.66473">
        <ele>647.9</ele>
      </trkpt>
      <trkpt lat="37.53724" lon="27.66474">
        <ele>646.8</ele>
      </trkpt>
      <trkpt lat="37.53729" lon="27.66471">
        <ele>646.7</ele>
      </trkpt>
      <trkpt lat="37.53736" lon="27.66469">
        <ele>646.1</ele>
      </trkpt>
      <trkpt lat="37.53739" lon="27.66469">
        <ele>645.9</ele>
      </trkpt>
      <trkpt lat="37.53746" lon="27.66464">
        <ele>645.9</ele>
      </trkpt>
      <trkpt lat="37.53749" lon="27.66458">
        <ele>646.7</ele>
      </trkpt>
      <trkpt lat="37.53755" lon="27.66454">
        <ele>647.4</ele>
      </trkpt>
      <trkpt lat="37.53762" lon="27.66444">
        <ele>649.1</ele>
      </trkpt>
      <trkpt lat="37.53775" lon="27.66445">
        <ele>649.2</ele>
      </trkpt>
      <trkpt lat="37.53781" lon="27.66438">
        <ele>650.4</ele>
      </trkpt>
      <trkpt lat="37.5379" lon="27.66429">
        <ele>652</ele>
      </trkpt>
      <trkpt lat="37.53793" lon="27.66427">
        <ele>652.3</ele>
      </trkpt>
      <trkpt lat="37.53796" lon="27.66427">
        <ele>652.3</ele>
      </trkpt>
      <trkpt lat="37.53802" lon="27.66435">
        <ele>651.2</ele>
      </trkpt>
      <trkpt lat="37.53812" lon="27.66441">
        <ele>650.3</ele>
      </trkpt>
      <trkpt lat="37.53818" lon="27.66446">
        <ele>649.6</ele>
      </trkpt>
      <trkpt lat="37.5382" lon="27.66447">
        <ele>649.4</ele>
      </trkpt>
      <trkpt lat="37.53822" lon="27.66432">
        <ele>651.7</ele>
      </trkpt>
      <trkpt lat="37.53822" lon="27.66419">
        <ele>653.6</ele>
      </trkpt>
      <trkpt lat="37.53831" lon="27.66406">
        <ele>654.9</ele>
      </trkpt>
      <trkpt lat="37.53835" lon="27.66393">
        <ele>655.7</ele>
      </trkpt>
      <trkpt lat="37.53836" lon="27.66387">
        <ele>656.1</ele>
      </trkpt>
      <trkpt lat="37.53836" lon="27.66369">
        <ele>657.7</ele>
      </trkpt>
      <trkpt lat="37.53837" lon="27.66365">
        <ele>657.8</ele>
      </trkpt>
      <trkpt lat="37.5384" lon="27.66351">
        <ele>658.6</ele>
      </trkpt>
      <trkpt lat="37.53845" lon="27.6635">
        <ele>657.9</ele>
      </trkpt>
      <trkpt lat="37.53848" lon="27.66354">
        <ele>657.2</ele>
      </trkpt>
      <trkpt lat="37.53852" lon="27.66363">
        <ele>655.9</ele>
      </trkpt>
      <trkpt lat="37.53859" lon="27.66362">
        <ele>655</ele>
      </trkpt>
      <trkpt lat="37.53865" lon="27.66367">
        <ele>653.7</ele>
      </trkpt>
      <trkpt lat="37.53869" lon="27.66361">
        <ele>653.7</ele>
      </trkpt>
      <trkpt lat="37.53879" lon="27.6636">
        <ele>652.4</ele>
      </trkpt>
      <trkpt lat="37.53892" lon="27.66341">
        <ele>652</ele>
      </trkpt>
      <trkpt lat="37.53896" lon="27.66319">
        <ele>652.3</ele>
      </trkpt>
      <trkpt lat="37.53915" lon="27.6632">
        <ele>649.5</ele>
      </trkpt>
      <trkpt lat="37.53921" lon="27.66325">
        <ele>648.4</ele>
      </trkpt>
      <trkpt lat="37.53924" lon="27.66328">
        <ele>647.8</ele>
      </trkpt>
      <trkpt lat="37.53924" lon="27.66329">
        <ele>647.8</ele>
      </trkpt>
      <trkpt lat="37.53927" lon="27.66328">
        <ele>647.3</ele>
      </trkpt>
      <trkpt lat="37.53932" lon="27.66327">
        <ele>646.4</ele>
      </trkpt>
      <trkpt lat="37.53948" lon="27.6632">
        <ele>643.6</ele>
      </trkpt>
      <trkpt lat="37.5396" lon="27.66306">
        <ele>641.9</ele>
      </trkpt>
      <trkpt lat="37.53964" lon="27.66289">
        <ele>641.5</ele>
      </trkpt>
      <trkpt lat="37.53972" lon="27.66276">
        <ele>640.7</ele>
      </trkpt>
      <trkpt lat="37.53981" lon="27.66259">
        <ele>639.8</ele>
      </trkpt>
      <trkpt lat="37.53978" lon="27.66261">
        <ele>640.2</ele>
      </trkpt>
      <trkpt lat="37.53985" lon="27.66249">
        <ele>639.4</ele>
      </trkpt>
      <trkpt lat="37.53995" lon="27.66236">
        <ele>638.1</ele>
      </trkpt>
      <trkpt lat="37.54002" lon="27.66223">
        <ele>637.4</ele>
      </trkpt>
      <trkpt lat="37.53998" lon="27.66205">
        <ele>638.4</ele>
      </trkpt>
      <trkpt lat="37.54003" lon="27.66188">
        <ele>638.1</ele>
      </trkpt>
      <trkpt lat="37.54013" lon="27.66172">
        <ele>637.5</ele>
      </trkpt>
      <trkpt lat="37.54018" lon="27.66161">
        <ele>637.6</ele>
      </trkpt>
      <trkpt lat="37.54017" lon="27.66149">
        <ele>638.2</ele>
      </trkpt>
      <trkpt lat="37.54024" lon="27.66137">
        <ele>638.2</ele>
      </trkpt>
      <trkpt lat="37.54026" lon="27.66133">
        <ele>638.2</ele>
      </trkpt>
      <trkpt lat="37.54027" lon="27.66132">
        <ele>638.2</ele>
      </trkpt>
      <trkpt lat="37.5403" lon="27.6613">
        <ele>638.1</ele>
      </trkpt>
      <trkpt lat="37.54048" lon="27.66129">
        <ele>636.8</ele>
      </trkpt>
      <trkpt lat="37.54053" lon="27.66126">
        <ele>636.7</ele>
      </trkpt>
      <trkpt lat="37.54062" lon="27.66112">
        <ele>637</ele>
      </trkpt>
      <trkpt lat="37.54067" lon="27.66099">
        <ele>637.6</ele>
      </trkpt>
      <trkpt lat="37.54071" lon="27.66077">
        <ele>639</ele>
      </trkpt>
      <trkpt lat="37.54081" lon="27.66059">
        <ele>639.6</ele>
      </trkpt>
      <trkpt lat="37.54082" lon="27.66056">
        <ele>639.8</ele>
      </trkpt>
      <trkpt lat="37.5408" lon="27.66043">
        <ele>640.6</ele>
      </trkpt>
      <trkpt lat="37.54084" lon="27.66026">
        <ele>641.4</ele>
      </trkpt>
      <trkpt lat="37.54095" lon="27.66018">
        <ele>641.1</ele>
      </trkpt>
      <trkpt lat="37.54105" lon="27.66003">
        <ele>641.2</ele>
      </trkpt>
      <trkpt lat="37.54108" lon="27.65998">
        <ele>641.3</ele>
      </trkpt>
      <trkpt lat="37.54127" lon="27.66011">
        <ele>639.2</ele>
      </trkpt>
      <trkpt lat="37.54144" lon="27.66023">
        <ele>637.3</ele>
      </trkpt>
      <trkpt lat="37.54159" lon="27.66029">
        <ele>635.8</ele>
      </trkpt>
      <trkpt lat="37.5418" lon="27.66029">
        <ele>633.9</ele>
      </trkpt>
      <trkpt lat="37.54201" lon="27.66027">
        <ele>631.9</ele>
      </trkpt>
      <trkpt lat="37.54214" lon="27.66024">
        <ele>631</ele>
      </trkpt>
      <trkpt lat="37.54225" lon="27.66019">
        <ele>630.3</ele>
      </trkpt>
      <trkpt lat="37.54237" lon="27.66014">
        <ele>629.7</ele>
      </trkpt>
      <trkpt lat="37.54254" lon="27.65999">
        <ele>630</ele>
      </trkpt>
      <trkpt lat="37.54273" lon="27.6599">
        <ele>629.9</ele>
      </trkpt>
      <trkpt lat="37.54276" lon="27.65989">
        <ele>629.9</ele>
      </trkpt>
      <trkpt lat="37.54293" lon="27.65986">
        <ele>629.4</ele>
      </trkpt>
      <trkpt lat="37.543" lon="27.65984">
        <ele>629.3</ele>
      </trkpt>
      <trkpt lat="37.54307" lon="27.65966">
        <ele>629.6</ele>
      </trkpt>
      <trkpt lat="37.54309" lon="27.65959">
        <ele>629.6</ele>
      </trkpt>
      <trkpt lat="37.54311" lon="27.6594">
        <ele>630</ele>
      </trkpt>
      <trkpt lat="37.54308" lon="27.65917">
        <ele>630.8</ele>
      </trkpt>
      <trkpt lat="37.54305" lon="27.65895">
        <ele>629.9</ele>
      </trkpt>
      <trkpt lat="37.54303" lon="27.65879">
        <ele>629.2</ele>
      </trkpt>
      <trkpt lat="37.54298" lon="27.65857">
        <ele>628.4</ele>
      </trkpt>
      <trkpt lat="37.5429" lon="27.65833">
        <ele>627.6</ele>
      </trkpt>
      <trkpt lat="37.54293" lon="27.65816">
        <ele>627.6</ele>
      </trkpt>
      <trkpt lat="37.54301" lon="27.65793">
        <ele>627.5</ele>
      </trkpt>
      <trkpt lat="37.54313" lon="27.6577">
        <ele>627.4</ele>
      </trkpt>
      <trkpt lat="37.54328" lon="27.65756">
        <ele>627.1</ele>
      </trkpt>
      <trkpt lat="37.54342" lon="27.65738">
        <ele>626.2</ele>
      </trkpt>
      <trkpt lat="37.54346" lon="27.65734">
        <ele>625.9</ele>
      </trkpt>
      <trkpt lat="37.54351" lon="27.6573">
        <ele>625.6</ele>
      </trkpt>
      <trkpt lat="37.54351" lon="27.65729">
        <ele>625.5</ele>
      </trkpt>
      <trkpt lat="37.54358" lon="27.65716">
        <ele>625.1</ele>
      </trkpt>
      <trkpt lat="37.54373" lon="27.6571">
        <ele>624.4</ele>
      </trkpt>
      <trkpt lat="37.54379" lon="27.65709">
        <ele>624</ele>
      </trkpt>
      <trkpt lat="37.54391" lon="27.65707">
        <ele>623.4</ele>
      </trkpt>
      <trkpt lat="37.54402" lon="27.65696">
        <ele>623.3</ele>
      </trkpt>
      <trkpt lat="37.54408" lon="27.65675">
        <ele>623.9</ele>
      </trkpt>
      <trkpt lat="37.54412" lon="27.65652">
        <ele>623.5</ele>
      </trkpt>
      <trkpt lat="37.5441" lon="27.65631">
        <ele>622.6</ele>
      </trkpt>
      <trkpt lat="37.54409" lon="27.65614">
        <ele>621.9</ele>
      </trkpt>
      <trkpt lat="37.54401" lon="27.65589">
        <ele>620.4</ele>
      </trkpt>
      <trkpt lat="37.54397" lon="27.65568">
        <ele>619.3</ele>
      </trkpt>
      <trkpt lat="37.54393" lon="27.65547">
        <ele>618.2</ele>
      </trkpt>
      <trkpt lat="37.54387" lon="27.6552">
        <ele>616.6</ele>
      </trkpt>
      <trkpt lat="37.54386" lon="27.65498">
        <ele>615.6</ele>
      </trkpt>
      <trkpt lat="37.54385" lon="27.65472">
        <ele>614.7</ele>
      </trkpt>
      <trkpt lat="37.54386" lon="27.65448">
        <ele>614</ele>
      </trkpt>
      <trkpt lat="37.54387" lon="27.65434">
        <ele>613.7</ele>
      </trkpt>
      <trkpt lat="37.54388" lon="27.65432">
        <ele>613.8</ele>
      </trkpt>
      <trkpt lat="37.54385" lon="27.65422">
        <ele>613.2</ele>
      </trkpt>
      <trkpt lat="37.54381" lon="27.65418">
        <ele>612.6</ele>
      </trkpt>
      <trkpt lat="37.54379" lon="27.65412">
        <ele>611.8</ele>
      </trkpt>
      <trkpt lat="37.54371" lon="27.65396">
        <ele>609.6</ele>
      </trkpt>
      <trkpt lat="37.5436" lon="27.6539">
        <ele>608.1</ele>
      </trkpt>
      <trkpt lat="37.54356" lon="27.65387">
        <ele>607.5</ele>
      </trkpt>
      <trkpt lat="37.54343" lon="27.65383">
        <ele>606.2</ele>
      </trkpt>
      <trkpt lat="37.54344" lon="27.65385">
        <ele>606.5</ele>
      </trkpt>
      <trkpt lat="37.54338" lon="27.65376">
        <ele>605.4</ele>
      </trkpt>
      <trkpt lat="37.54333" lon="27.65368">
        <ele>604.4</ele>
      </trkpt>
      <trkpt lat="37.54332" lon="27.65365">
        <ele>604.3</ele>
      </trkpt>
      <trkpt lat="37.54327" lon="27.65357">
        <ele>603.6</ele>
      </trkpt>
      <trkpt lat="37.54326" lon="27.65349">
        <ele>603</ele>
      </trkpt>
      <trkpt lat="37.54327" lon="27.65341">
        <ele>602.5</ele>
      </trkpt>
      <trkpt lat="37.54327" lon="27.65333">
        <ele>601.8</ele>
      </trkpt>
      <trkpt lat="37.54329" lon="27.65316">
        <ele>599.5</ele>
      </trkpt>
      <trkpt lat="37.54325" lon="27.65314">
        <ele>599.1</ele>
      </trkpt>
      <trkpt lat="37.54324" lon="27.65314">
        <ele>599.1</ele>
      </trkpt>
      <trkpt lat="37.54324" lon="27.65307">
        <ele>598.2</ele>
      </trkpt>
      <trkpt lat="37.54323" lon="27.65299">
        <ele>597</ele>
      </trkpt>
      <trkpt lat="37.54324" lon="27.6528">
        <ele>594.4</ele>
      </trkpt>
      <trkpt lat="37.54326" lon="27.65278">
        <ele>594</ele>
      </trkpt>
      <trkpt lat="37.54326" lon="27.65275">
        <ele>593.7</ele>
      </trkpt>
      <trkpt lat="37.54331" lon="27.6526">
        <ele>591.5</ele>
      </trkpt>
      <trkpt lat="37.54335" lon="27.65248">
        <ele>590.1</ele>
      </trkpt>
      <trkpt lat="37.54334" lon="27.65243">
        <ele>590.4</ele>
      </trkpt>
      <trkpt lat="37.5434" lon="27.65237">
        <ele>590.9</ele>
      </trkpt>
      <trkpt lat="37.54344" lon="27.6523">
        <ele>591.3</ele>
      </trkpt>
      <trkpt lat="37.54344" lon="27.6522">
        <ele>591.8</ele>
      </trkpt>
      <trkpt lat="37.54342" lon="27.65208">
        <ele>592.4</ele>
      </trkpt>
      <trkpt lat="37.54341" lon="27.65204">
        <ele>592.7</ele>
      </trkpt>
      <trkpt lat="37.54343" lon="27.65184">
        <ele>593.7</ele>
      </trkpt>
      <trkpt lat="37.54345" lon="27.65179">
        <ele>594</ele>
      </trkpt>
      <trkpt lat="37.54342" lon="27.65164">
        <ele>595.5</ele>
      </trkpt>
      <trkpt lat="37.54347" lon="27.65158">
        <ele>596.9</ele>
      </trkpt>
      <trkpt lat="37.54348" lon="27.65152">
        <ele>598.6</ele>
      </trkpt>
      <trkpt lat="37.54358" lon="27.65146">
        <ele>599.9</ele>
      </trkpt>
      <trkpt lat="37.54358" lon="27.65137">
        <ele>602.1</ele>
      </trkpt>
      <trkpt lat="37.54353" lon="27.65128">
        <ele>604.8</ele>
      </trkpt>
      <trkpt lat="37.54346" lon="27.65124">
        <ele>606.3</ele>
      </trkpt>
      <trkpt lat="37.54336" lon="27.65122">
        <ele>607.2</ele>
      </trkpt>
      <trkpt lat="37.54334" lon="27.65119">
        <ele>608.2</ele>
      </trkpt>
      <trkpt lat="37.54334" lon="27.65116">
        <ele>608.9</ele>
      </trkpt>
      <trkpt lat="37.5434" lon="27.65102">
        <ele>612.5</ele>
      </trkpt>
      <trkpt lat="37.54343" lon="27.651">
        <ele>613</ele>
      </trkpt>
      <trkpt lat="37.54348" lon="27.65096">
        <ele>613.8</ele>
      </trkpt>
      <trkpt lat="37.54354" lon="27.6509">
        <ele>615.3</ele>
      </trkpt>
      <trkpt lat="37.54353" lon="27.65086">
        <ele>616.2</ele>
      </trkpt>
      <trkpt lat="37.54341" lon="27.6508">
        <ele>618.3</ele>
      </trkpt>
      <trkpt lat="37.54334" lon="27.65079">
        <ele>618.9</ele>
      </trkpt>
      <trkpt lat="37.54324" lon="27.6507">
        <ele>620.7</ele>
      </trkpt>
      <trkpt lat="37.5432" lon="27.65063">
        <ele>622.1</ele>
      </trkpt>
      <trkpt lat="37.54317" lon="27.65054">
        <ele>624</ele>
      </trkpt>
      <trkpt lat="37.54313" lon="27.65039">
        <ele>627</ele>
      </trkpt>
      <trkpt lat="37.54304" lon="27.65023">
        <ele>630.3</ele>
      </trkpt>
      <trkpt lat="37.54301" lon="27.65001">
        <ele>634.8</ele>
      </trkpt>
      <trkpt lat="37.54299" lon="27.64986">
        <ele>635.8</ele>
      </trkpt>
      <trkpt lat="37.54301" lon="27.64987">
        <ele>635.7</ele>
      </trkpt>
      <trkpt lat="37.543" lon="27.64975">
        <ele>636.5</ele>
      </trkpt>
      <trkpt lat="37.54295" lon="27.64956">
        <ele>637.8</ele>
      </trkpt>
      <trkpt lat="37.54304" lon="27.64929">
        <ele>638.8</ele>
      </trkpt>
      <trkpt lat="37.543" lon="27.64921">
        <ele>639.5</ele>
      </trkpt>
      <trkpt lat="37.54299" lon="27.64919">
        <ele>639.8</ele>
      </trkpt>
      <trkpt lat="37.54299" lon="27.64919">
        <ele>639.7</ele>
      </trkpt>
      <trkpt lat="37.54292" lon="27.6491">
        <ele>640</ele>
      </trkpt>
      <trkpt lat="37.54291" lon="27.64904">
        <ele>639.9</ele>
      </trkpt>
      <trkpt lat="37.54284" lon="27.64885">
        <ele>639.5</ele>
      </trkpt>
      <trkpt lat="37.54281" lon="27.64881">
        <ele>639.7</ele>
      </trkpt>
      <trkpt lat="37.54279" lon="27.64869">
        <ele>639.2</ele>
      </trkpt>
      <trkpt lat="37.54267" lon="27.6485">
        <ele>639.7</ele>
      </trkpt>
      <trkpt lat="37.54262" lon="27.64839">
        <ele>639.8</ele>
      </trkpt>
      <trkpt lat="37.54259" lon="27.64835">
        <ele>640</ele>
      </trkpt>
      <trkpt lat="37.54249" lon="27.64824">
        <ele>640.6</ele>
      </trkpt>
      <trkpt lat="37.54239" lon="27.64808">
        <ele>640.1</ele>
      </trkpt>
      <trkpt lat="37.54224" lon="27.64796">
        <ele>640.1</ele>
      </trkpt>
      <trkpt lat="37.54216" lon="27.64794">
        <ele>640.3</ele>
      </trkpt>
      <trkpt lat="37.54208" lon="27.6479">
        <ele>640.4</ele>
      </trkpt>
      <trkpt lat="37.54191" lon="27.64784">
        <ele>640.9</ele>
      </trkpt>
      <trkpt lat="37.54178" lon="27.6478">
        <ele>641.3</ele>
      </trkpt>
      <trkpt lat="37.54174" lon="27.64779">
        <ele>641.4</ele>
      </trkpt>
      <trkpt lat="37.54175" lon="27.64779">
        <ele>641.4</ele>
      </trkpt>
      <trkpt lat="37.54171" lon="27.64774">
        <ele>641.4</ele>
      </trkpt>
      <trkpt lat="37.5417" lon="27.64772">
        <ele>641.4</ele>
      </trkpt>
      <trkpt lat="37.5417" lon="27.64766">
        <ele>641.2</ele>
      </trkpt>
      <trkpt lat="37.54167" lon="27.64761">
        <ele>641.2</ele>
      </trkpt>
      <trkpt lat="37.54166" lon="27.64757">
        <ele>641.2</ele>
      </trkpt>
      <trkpt lat="37.54166" lon="27.64757">
        <ele>641.2</ele>
      </trkpt>
      <trkpt lat="37.54167" lon="27.64744">
        <ele>641.1</ele>
      </trkpt>
      <trkpt lat="37.54166" lon="27.6473">
        <ele>641.5</ele>
      </trkpt>
      <trkpt lat="37.54166" lon="27.64702">
        <ele>642.2</ele>
      </trkpt>
      <trkpt lat="37.54165" lon="27.64702">
        <ele>642.3</ele>
      </trkpt>
      <trkpt lat="37.54168" lon="27.64685">
        <ele>642.4</ele>
      </trkpt>
      <trkpt lat="37.54167" lon="27.6467">
        <ele>642.9</ele>
      </trkpt>
      <trkpt lat="37.54168" lon="27.64655">
        <ele>642.5</ele>
      </trkpt>
      <trkpt lat="37.54173" lon="27.64634">
        <ele>641.4</ele>
      </trkpt>
      <trkpt lat="37.54181" lon="27.64618">
        <ele>639.9</ele>
      </trkpt>
      <trkpt lat="37.5418" lon="27.64596">
        <ele>639.6</ele>
      </trkpt>
      <trkpt lat="37.5418" lon="27.64576">
        <ele>638.7</ele>
      </trkpt>
      <trkpt lat="37.54179" lon="27.64556">
        <ele>637.4</ele>
      </trkpt>
      <trkpt lat="37.54173" lon="27.64534">
        <ele>636.6</ele>
      </trkpt>
      <trkpt lat="37.54168" lon="27.64517">
        <ele>636.1</ele>
      </trkpt>
      <trkpt lat="37.54166" lon="27.64504">
        <ele>635.3</ele>
      </trkpt>
      <trkpt lat="37.54167" lon="27.64487">
        <ele>633.6</ele>
      </trkpt>
      <trkpt lat="37.54164" lon="27.64476">
        <ele>632.5</ele>
      </trkpt>
      <trkpt lat="37.54151" lon="27.64464">
        <ele>631.5</ele>
      </trkpt>
      <trkpt lat="37.54145" lon="27.64463">
        <ele>631.5</ele>
      </trkpt>
      <trkpt lat="37.54135" lon="27.64451">
        <ele>630</ele>
      </trkpt>
      <trkpt lat="37.54124" lon="27.64435">
        <ele>627.2</ele>
      </trkpt>
      <trkpt lat="37.54125" lon="27.64429">
        <ele>626.1</ele>
      </trkpt>
      <trkpt lat="37.5413" lon="27.64427">
        <ele>625.9</ele>
      </trkpt>
      <trkpt lat="37.54145" lon="27.6442">
        <ele>625.4</ele>
      </trkpt>
      <trkpt lat="37.54153" lon="27.64406">
        <ele>623.7</ele>
      </trkpt>
      <trkpt lat="37.54152" lon="27.64385">
        <ele>620.5</ele>
      </trkpt>
      <trkpt lat="37.54143" lon="27.6437">
        <ele>617.5</ele>
      </trkpt>
      <trkpt lat="37.54143" lon="27.64355">
        <ele>615.1</ele>
      </trkpt>
      <trkpt lat="37.54141" lon="27.64349">
        <ele>614.1</ele>
      </trkpt>
      <trkpt lat="37.54142" lon="27.64333">
        <ele>611.7</ele>
      </trkpt>
      <trkpt lat="37.54141" lon="27.64318">
        <ele>609</ele>
      </trkpt>
      <trkpt lat="37.54137" lon="27.64302">
        <ele>605.7</ele>
      </trkpt>
      <trkpt lat="37.54138" lon="27.64289">
        <ele>603.7</ele>
      </trkpt>
      <trkpt lat="37.54136" lon="27.64284">
        <ele>602.5</ele>
      </trkpt>
      <trkpt lat="37.54139" lon="27.64271">
        <ele>600.6</ele>
      </trkpt>
      <trkpt lat="37.54141" lon="27.64267">
        <ele>600.1</ele>
      </trkpt>
      <trkpt lat="37.54141" lon="27.64265">
        <ele>599.7</ele>
      </trkpt>
      <trkpt lat="37.54144" lon="27.64257">
        <ele>598.5</ele>
      </trkpt>
      <trkpt lat="37.5416" lon="27.64246">
        <ele>598.2</ele>
      </trkpt>
      <trkpt lat="37.54177" lon="27.64235">
        <ele>597.7</ele>
      </trkpt>
      <trkpt lat="37.54198" lon="27.64224">
        <ele>596.8</ele>
      </trkpt>
      <trkpt lat="37.54211" lon="27.64204">
        <ele>595.5</ele>
      </trkpt>
      <trkpt lat="37.54218" lon="27.64176">
        <ele>593.8</ele>
      </trkpt>
      <trkpt lat="37.54221" lon="27.64169">
        <ele>593.4</ele>
      </trkpt>
      <trkpt lat="37.54222" lon="27.64169">
        <ele>593.5</ele>
      </trkpt>
      <trkpt lat="37.54228" lon="27.64158">
        <ele>593.2</ele>
      </trkpt>
      <trkpt lat="37.54234" lon="27.64144">
        <ele>592.9</ele>
      </trkpt>
      <trkpt lat="37.5424" lon="27.64128">
        <ele>592.3</ele>
      </trkpt>
      <trkpt lat="37.5425" lon="27.64112">
        <ele>591.4</ele>
      </trkpt>
      <trkpt lat="37.5427" lon="27.64108">
        <ele>591.6</ele>
      </trkpt>
      <trkpt lat="37.5427" lon="27.64109">
        <ele>591.7</ele>
      </trkpt>
      <trkpt lat="37.54267" lon="27.64109">
        <ele>591.6</ele>
      </trkpt>
      <trkpt lat="37.54271" lon="27.64109">
        <ele>591.7</ele>
      </trkpt>
      <trkpt lat="37.54294" lon="27.64108">
        <ele>592.1</ele>
      </trkpt>
      <trkpt lat="37.54299" lon="27.64103">
        <ele>592.1</ele>
      </trkpt>
      <trkpt lat="37.54308" lon="27.641">
        <ele>592.3</ele>
      </trkpt>
      <trkpt lat="37.5433" lon="27.64105">
        <ele>592.9</ele>
      </trkpt>
      <trkpt lat="37.54357" lon="27.64113">
        <ele>594.3</ele>
      </trkpt>
      <trkpt lat="37.54366" lon="27.64113">
        <ele>594.7</ele>
      </trkpt>
      <trkpt lat="37.54362" lon="27.64113">
        <ele>594.5</ele>
      </trkpt>
      <trkpt lat="37.54359" lon="27.64116">
        <ele>594.4</ele>
      </trkpt>
      <trkpt lat="37.54375" lon="27.64115">
        <ele>595.2</ele>
      </trkpt>
      <trkpt lat="37.54416" lon="27.64105">
        <ele>597</ele>
      </trkpt>
      <trkpt lat="37.54448" lon="27.64102">
        <ele>598</ele>
      </trkpt>
      <trkpt lat="37.54455" lon="27.64101">
        <ele>598.3</ele>
      </trkpt>
      <trkpt lat="37.54452" lon="27.64103">
        <ele>598.2</ele>
      </trkpt>
      <trkpt lat="37.54448" lon="27.64102">
        <ele>598.1</ele>
      </trkpt>
      <trkpt lat="37.54453" lon="27.64106">
        <ele>598.3</ele>
      </trkpt>
      <trkpt lat="37.54461" lon="27.64109">
        <ele>598.7</ele>
      </trkpt>
      <trkpt lat="37.54474" lon="27.64103">
        <ele>599.1</ele>
      </trkpt>
      <trkpt lat="37.54512" lon="27.64076">
        <ele>601.3</ele>
      </trkpt>
      <trkpt lat="37.54521" lon="27.64068">
        <ele>602.2</ele>
      </trkpt>
      <trkpt lat="37.54519" lon="27.64071">
        <ele>601.9</ele>
      </trkpt>
      <trkpt lat="37.54523" lon="27.64059">
        <ele>602.7</ele>
      </trkpt>
      <trkpt lat="37.54527" lon="27.64042">
        <ele>603.6</ele>
      </trkpt>
      <trkpt lat="37.54534" lon="27.64006">
        <ele>605.2</ele>
      </trkpt>
      <trkpt lat="37.54547" lon="27.6396">
        <ele>605.6</ele>
      </trkpt>
      <trkpt lat="37.54548" lon="27.63949">
        <ele>605.6</ele>
      </trkpt>
      <trkpt lat="37.54551" lon="27.63948">
        <ele>605.6</ele>
      </trkpt>
      <trkpt lat="37.5455" lon="27.63949">
        <ele>605.6</ele>
      </trkpt>
      <trkpt lat="37.54556" lon="27.63928">
        <ele>605.7</ele>
      </trkpt>
      <trkpt lat="37.54556" lon="27.63928">
        <ele>605.7</ele>
      </trkpt>
      <trkpt lat="37.54556" lon="27.63927">
        <ele>605.7</ele>
      </trkpt>
      <trkpt lat="37.54564" lon="27.63916">
        <ele>605.8</ele>
      </trkpt>
      <trkpt lat="37.54556" lon="27.63905">
        <ele>605.6</ele>
      </trkpt>
      <trkpt lat="37.54532" lon="27.6388">
        <ele>604.8</ele>
      </trkpt>
      <trkpt lat="37.54528" lon="27.63871">
        <ele>604.6</ele>
      </trkpt>
      <trkpt lat="37.545" lon="27.63842">
        <ele>603.2</ele>
      </trkpt>
      <trkpt lat="37.54479" lon="27.63832">
        <ele>601.3</ele>
      </trkpt>
      <trkpt lat="37.54454" lon="27.63818">
        <ele>599.7</ele>
      </trkpt>
      <trkpt lat="37.54422" lon="27.63803">
        <ele>597.5</ele>
      </trkpt>
      <trkpt lat="37.54393" lon="27.6378">
        <ele>596.4</ele>
      </trkpt>
      <trkpt lat="37.54374" lon="27.63756">
        <ele>595.8</ele>
      </trkpt>
      <trkpt lat="37.54366" lon="27.63721">
        <ele>595.7</ele>
      </trkpt>
      <trkpt lat="37.54367" lon="27.63707">
        <ele>595.9</ele>
      </trkpt>
      <trkpt lat="37.54364" lon="27.63695">
        <ele>595.9</ele>
      </trkpt>
      <trkpt lat="37.54363" lon="27.63693">
        <ele>595.8</ele>
      </trkpt>
      <trkpt lat="37.54365" lon="27.63691">
        <ele>596</ele>
      </trkpt>
      <trkpt lat="37.54364" lon="27.63692">
        <ele>595.9</ele>
      </trkpt>
      <trkpt lat="37.54359" lon="27.63719">
        <ele>595.2</ele>
      </trkpt>
      <trkpt lat="37.54363" lon="27.63717">
        <ele>595.5</ele>
      </trkpt>
      <trkpt lat="37.54368" lon="27.63699">
        <ele>596.1</ele>
      </trkpt>
      <trkpt lat="37.54367" lon="27.63677">
        <ele>596.3</ele>
      </trkpt>
      <trkpt lat="37.54364" lon="27.63657">
        <ele>596.4</ele>
      </trkpt>
      <trkpt lat="37.54362" lon="27.63633">
        <ele>596.6</ele>
      </trkpt>
      <trkpt lat="37.54366" lon="27.63609">
        <ele>597.3</ele>
      </trkpt>
      <trkpt lat="37.54373" lon="27.63578">
        <ele>598.6</ele>
      </trkpt>
      <trkpt lat="37.54374" lon="27.63554">
        <ele>599.7</ele>
      </trkpt>
      <trkpt lat="37.54364" lon="27.63532">
        <ele>599.8</ele>
      </trkpt>
      <trkpt lat="37.5435" lon="27.63515">
        <ele>599.6</ele>
      </trkpt>
      <trkpt lat="37.54346" lon="27.63493">
        <ele>600.6</ele>
      </trkpt>
      <trkpt lat="37.54341" lon="27.63474">
        <ele>602.2</ele>
      </trkpt>
      <trkpt lat="37.54341" lon="27.63474">
        <ele>602.2</ele>
      </trkpt>
      <trkpt lat="37.54341" lon="27.63475">
        <ele>602.2</ele>
      </trkpt>
      <trkpt lat="37.54344" lon="27.63474">
        <ele>602.4</ele>
      </trkpt>
      <trkpt lat="37.54343" lon="27.63475">
        <ele>602.3</ele>
      </trkpt>
      <trkpt lat="37.54343" lon="27.63475">
        <ele>602.4</ele>
      </trkpt>
      <trkpt lat="37.54342" lon="27.63474">
        <ele>602.4</ele>
      </trkpt>
      <trkpt lat="37.54342" lon="27.63473">
        <ele>602.4</ele>
      </trkpt>
      <trkpt lat="37.5434" lon="27.63468">
        <ele>602.8</ele>
      </trkpt>
      <trkpt lat="37.5434" lon="27.63464">
        <ele>603.2</ele>
      </trkpt>
      <trkpt lat="37.54339" lon="27.6346">
        <ele>603.4</ele>
      </trkpt>
      <trkpt lat="37.54337" lon="27.63456">
        <ele>603.7</ele>
      </trkpt>
      <trkpt lat="37.54336" lon="27.63451">
        <ele>604</ele>
      </trkpt>
      <trkpt lat="37.54334" lon="27.63447">
        <ele>604.1</ele>
      </trkpt>
      <trkpt lat="37.54331" lon="27.63445">
        <ele>604.2</ele>
      </trkpt>
      <trkpt lat="37.54327" lon="27.63443">
        <ele>604.2</ele>
      </trkpt>
      <trkpt lat="37.54324" lon="27.63439">
        <ele>604.4</ele>
      </trkpt>
      <trkpt lat="37.54321" lon="27.63436">
        <ele>604.5</ele>
      </trkpt>
      <trkpt lat="37.54316" lon="27.63433">
        <ele>604.6</ele>
      </trkpt>
      <trkpt lat="37.54311" lon="27.63432">
        <ele>604.6</ele>
      </trkpt>
      <trkpt lat="37.54307" lon="27.63432">
        <ele>604.4</ele>
      </trkpt>
      <trkpt lat="37.54303" lon="27.63432">
        <ele>604.1</ele>
      </trkpt>
      <trkpt lat="37.54298" lon="27.63433">
        <ele>603.8</ele>
      </trkpt>
      <trkpt lat="37.54294" lon="27.63435">
        <ele>603.5</ele>
      </trkpt>
      <trkpt lat="37.5429" lon="27.63435">
        <ele>603.2</ele>
      </trkpt>
      <trkpt lat="37.54285" lon="27.63435">
        <ele>603</ele>
      </trkpt>
      <trkpt lat="37.5428" lon="27.63435">
        <ele>602.8</ele>
      </trkpt>
      <trkpt lat="37.54276" lon="27.63433">
        <ele>602.8</ele>
      </trkpt>
      <trkpt lat="37.54273" lon="27.63431">
        <ele>602.8</ele>
      </trkpt>
      <trkpt lat="37.54268" lon="27.63429">
        <ele>602.8</ele>
      </trkpt>
      <trkpt lat="37.54263" lon="27.63427">
        <ele>602.7</ele>
      </trkpt>
      <trkpt lat="37.54259" lon="27.63427">
        <ele>602.5</ele>
      </trkpt>
      <trkpt lat="37.54255" lon="27.63427">
        <ele>602.3</ele>
      </trkpt>
      <trkpt lat="37.5425" lon="27.63427">
        <ele>602.1</ele>
      </trkpt>
      <trkpt lat="37.54246" lon="27.63427">
        <ele>601.9</ele>
      </trkpt>
      <trkpt lat="37.54242" lon="27.63427">
        <ele>601.7</ele>
      </trkpt>
      <trkpt lat="37.54238" lon="27.63426">
        <ele>601.6</ele>
      </trkpt>
      <trkpt lat="37.54235" lon="27.63423">
        <ele>601.6</ele>
      </trkpt>
      <trkpt lat="37.54231" lon="27.6342">
        <ele>601.6</ele>
      </trkpt>
      <trkpt lat="37.54222" lon="27.63419">
        <ele>601.2</ele>
      </trkpt>
      <trkpt lat="37.54222" lon="27.63419">
        <ele>601.2</ele>
      </trkpt>
      <trkpt lat="37.54222" lon="27.63419">
        <ele>601.2</ele>
      </trkpt>
      <trkpt lat="37.54227" lon="27.63412">
        <ele>602.2</ele>
      </trkpt>
      <trkpt lat="37.54229" lon="27.63413">
        <ele>602.2</ele>
      </trkpt>
      <trkpt lat="37.54235" lon="27.63415">
        <ele>602.2</ele>
      </trkpt>
      <trkpt lat="37.54239" lon="27.6342">
        <ele>602.1</ele>
      </trkpt>
      <trkpt lat="37.5425" lon="27.63429">
        <ele>602</ele>
      </trkpt>
      <trkpt lat="37.54253" lon="27.6343">
        <ele>602</ele>
      </trkpt>
      <trkpt lat="37.54256" lon="27.63431">
        <ele>602.1</ele>
      </trkpt>
      <trkpt lat="37.5426" lon="27.63433">
        <ele>602.1</ele>
      </trkpt>
      <trkpt lat="37.54265" lon="27.63436">
        <ele>602.1</ele>
      </trkpt>
      <trkpt lat="37.54269" lon="27.63438">
        <ele>602</ele>
      </trkpt>
      <trkpt lat="37.54273" lon="27.63441">
        <ele>602</ele>
      </trkpt>
      <trkpt lat="37.54278" lon="27.63442">
        <ele>602.1</ele>
      </trkpt>
      <trkpt lat="37.54285" lon="27.63444">
        <ele>602.3</ele>
      </trkpt>
      <trkpt lat="37.54289" lon="27.63446">
        <ele>602.2</ele>
      </trkpt>
      <trkpt lat="37.54293" lon="27.63445">
        <ele>602.5</ele>
      </trkpt>
      <trkpt lat="37.54296" lon="27.63444">
        <ele>602.8</ele>
      </trkpt>
      <trkpt lat="37.54298" lon="27.63441">
        <ele>603.1</ele>
      </trkpt>
      <trkpt lat="37.543" lon="27.63437">
        <ele>603.6</ele>
      </trkpt>
      <trkpt lat="37.54302" lon="27.63433">
        <ele>604</ele>
        <time>2020-12-22T18:43:47Z</time>
      </trkpt>
      <trkpt lat="37.54301" lon="27.63433">
        <ele>601.4</ele>
        <time>2020-11-18T13:52:53Z</time>
      </trkpt>
      <trkpt lat="37.54301" lon="27.63432">
        <ele>601.4</ele>
        <time>2020-11-18T13:52:52Z</time>
      </trkpt>
      <trkpt lat="37.54301" lon="27.63431">
        <ele>601.4</ele>
        <time>2020-11-18T13:52:51Z</time>
      </trkpt>
      <trkpt lat="37.54302" lon="27.6343">
        <ele>601.2</ele>
        <time>2020-11-18T13:52:50Z</time>
      </trkpt>
      <trkpt lat="37.54303" lon="27.63429">
        <ele>601.2</ele>
        <time>2020-11-18T13:52:49Z</time>
      </trkpt>
      <trkpt lat="37.54303" lon="27.63429">
        <ele>601.2</ele>
        <time>2020-11-18T13:52:48Z</time>
      </trkpt>
      <trkpt lat="37.54304" lon="27.63428">
        <ele>601.4</ele>
        <time>2020-11-18T13:52:47Z</time>
      </trkpt>
      <trkpt lat="37.54304" lon="27.63428">
        <ele>601.2</ele>
        <time>2020-11-18T13:52:46Z</time>
      </trkpt>
      <trkpt lat="37.54304" lon="27.63428">
        <ele>601.2</ele>
        <time>2020-11-18T13:52:45Z</time>
      </trkpt>
      <trkpt lat="37.54304" lon="27.63428">
        <ele>601.2</ele>
        <time>2020-11-18T13:52:44Z</time>
      </trkpt>
      <trkpt lat="37.54306" lon="27.63426">
        <ele>601.2</ele>
        <time>2020-11-18T13:52:43Z</time>
      </trkpt>
      <trkpt lat="37.54306" lon="27.63426">
        <ele>601.2</ele>
        <time>2020-11-18T13:52:42Z</time>
      </trkpt>
      <trkpt lat="37.54307" lon="27.63425">
        <ele>601</ele>
        <time>2020-11-18T13:52:41Z</time>
      </trkpt>
      <trkpt lat="37.54307" lon="27.63425">
        <ele>601</ele>
        <time>2020-11-18T13:52:40Z</time>
      </trkpt>
      <trkpt lat="37.54309" lon="27.63425">
        <ele>601</ele>
        <time>2020-11-18T13:52:39Z</time>
      </trkpt>
      <trkpt lat="37.54309" lon="27.63425">
        <ele>600.8</ele>
        <time>2020-11-18T13:52:38Z</time>
      </trkpt>
      <trkpt lat="37.54309" lon="27.63425">
        <ele>600.4</ele>
        <time>2020-11-18T13:52:37Z</time>
      </trkpt>
      <trkpt lat="37.54311" lon="27.63424">
        <ele>600</ele>
        <time>2020-11-18T13:52:36Z</time>
      </trkpt>
      <trkpt lat="37.54311" lon="27.63424">
        <ele>599.4</ele>
        <time>2020-11-18T13:52:35Z</time>
      </trkpt>
      <trkpt lat="37.54311" lon="27.63424">
        <ele>599.4</ele>
        <time>2020-11-18T13:52:34Z</time>
      </trkpt>
      <trkpt lat="37.54313" lon="27.63424">
        <ele>599</ele>
        <time>2020-11-18T13:52:33Z</time>
      </trkpt>
      <trkpt lat="37.54315" lon="27.63424">
        <ele>599</ele>
        <time>2020-11-18T13:52:32Z</time>
      </trkpt>
      <trkpt lat="37.54316" lon="27.63425">
        <ele>598.8</ele>
        <time>2020-11-18T13:52:31Z</time>
      </trkpt>
      <trkpt lat="37.54317" lon="27.63425">
        <ele>598.6</ele>
        <time>2020-11-18T13:52:30Z</time>
      </trkpt>
      <trkpt lat="37.54319" lon="27.63426">
        <ele>598.6</ele>
        <time>2020-11-18T13:52:29Z</time>
      </trkpt>
      <trkpt lat="37.5432" lon="27.63426">
        <ele>598.4</ele>
        <time>2020-11-18T13:52:28Z</time>
      </trkpt>
      <trkpt lat="37.54322" lon="27.63427">
        <ele>598.4</ele>
        <time>2020-11-18T13:52:27Z</time>
      </trkpt>
      <trkpt lat="37.54323" lon="27.63427">
        <ele>598.4</ele>
        <time>2020-11-18T13:52:26Z</time>
      </trkpt>
      <trkpt lat="37.54324" lon="27.63427">
        <ele>598.4</ele>
        <time>2020-11-18T13:52:25Z</time>
      </trkpt>
      <trkpt lat="37.54325" lon="27.63428">
        <ele>598.4</ele>
        <time>2020-11-18T13:52:24Z</time>
      </trkpt>
      <trkpt lat="37.54326" lon="27.63428">
        <ele>598.4</ele>
        <time>2020-11-18T13:52:23Z</time>
      </trkpt>
      <trkpt lat="37.54327" lon="27.63428">
        <ele>598.4</ele>
        <time>2020-11-18T13:52:22Z</time>
      </trkpt>
      <trkpt lat="37.54329" lon="27.63428">
        <ele>598.4</ele>
        <time>2020-11-18T13:52:21Z</time>
      </trkpt>
      <trkpt lat="37.5433" lon="27.63428">
        <ele>598.2</ele>
        <time>2020-11-18T13:52:20Z</time>
      </trkpt>
      <trkpt lat="37.54331" lon="27.63428">
        <ele>598.2</ele>
        <time>2020-11-18T13:52:19Z</time>
      </trkpt>
      <trkpt lat="37.54332" lon="27.63428">
        <ele>598.4</ele>
        <time>2020-11-18T13:52:18Z</time>
      </trkpt>
      <trkpt lat="37.54333" lon="27.63428">
        <ele>598.6</ele>
        <time>2020-11-18T13:52:17Z</time>
      </trkpt>
      <trkpt lat="37.54334" lon="27.63428">
        <ele>599</ele>
        <time>2020-11-18T13:52:16Z</time>
      </trkpt>
      <trkpt lat="37.54336" lon="27.63428">
        <ele>598.8</ele>
        <time>2020-11-18T13:52:15Z</time>
      </trkpt>
      <trkpt lat="37.54337" lon="27.63427">
        <ele>598.6</ele>
        <time>2020-11-18T13:52:14Z</time>
      </trkpt>
      <trkpt lat="37.54338" lon="27.63427">
        <ele>598.8</ele>
        <time>2020-11-18T13:52:13Z</time>
      </trkpt>
      <trkpt lat="37.54339" lon="27.63427">
        <ele>598.8</ele>
        <time>2020-11-18T13:52:12Z</time>
      </trkpt>
      <trkpt lat="37.5434" lon="27.63427">
        <ele>598.6</ele>
        <time>2020-11-18T13:52:11Z</time>
      </trkpt>
      <trkpt lat="37.54341" lon="27.63427">
        <ele>598.6</ele>
        <time>2020-11-18T13:52:10Z</time>
      </trkpt>
      <trkpt lat="37.54342" lon="27.63427">
        <ele>598.6</ele>
        <time>2020-11-18T13:52:09Z</time>
      </trkpt>
      <trkpt lat="37.54344" lon="27.63428">
        <ele>598.6</ele>
        <time>2020-11-18T13:52:08Z</time>
      </trkpt>
      <trkpt lat="37.54345" lon="27.63428">
        <ele>598.6</ele>
        <time>2020-11-18T13:52:07Z</time>
      </trkpt>
      <trkpt lat="37.54346" lon="27.63428">
        <ele>598.6</ele>
        <time>2020-11-18T13:52:06Z</time>
      </trkpt>
      <trkpt lat="37.54347" lon="27.63428">
        <ele>598.6</ele>
        <time>2020-11-18T13:52:05Z</time>
      </trkpt>
      <trkpt lat="37.54348" lon="27.63429">
        <ele>598.8</ele>
        <time>2020-11-18T13:52:04Z</time>
      </trkpt>
      <trkpt lat="37.54349" lon="27.63429">
        <ele>598.6</ele>
        <time>2020-11-18T13:52:03Z</time>
      </trkpt>
      <trkpt lat="37.54351" lon="27.63429">
        <ele>598.6</ele>
        <time>2020-11-18T13:52:02Z</time>
      </trkpt>
      <trkpt lat="37.54352" lon="27.63429">
        <ele>598.8</ele>
        <time>2020-11-18T13:52:01Z</time>
      </trkpt>
      <trkpt lat="37.54353" lon="27.63429">
        <ele>598.8</ele>
        <time>2020-11-18T13:52:00Z</time>
      </trkpt>
      <trkpt lat="37.54355" lon="27.6343">
        <ele>599.4</ele>
        <time>2020-11-18T13:51:59Z</time>
      </trkpt>
      <trkpt lat="37.54356" lon="27.6343">
        <ele>599.4</ele>
        <time>2020-11-18T13:51:58Z</time>
      </trkpt>
      <trkpt lat="37.54358" lon="27.6343">
        <ele>599.4</ele>
        <time>2020-11-18T13:51:57Z</time>
      </trkpt>
      <trkpt lat="37.54359" lon="27.6343">
        <ele>599.6</ele>
        <time>2020-11-18T13:51:56Z</time>
      </trkpt>
      <trkpt lat="37.5436" lon="27.6343">
        <ele>599.8</ele>
        <time>2020-11-18T13:51:55Z</time>
      </trkpt>
      <trkpt lat="37.54361" lon="27.6343">
        <ele>599.8</ele>
        <time>2020-11-18T13:51:54Z</time>
      </trkpt>
      <trkpt lat="37.54363" lon="27.6343">
        <ele>599.8</ele>
        <time>2020-11-18T13:51:53Z</time>
      </trkpt>
      <trkpt lat="37.54364" lon="27.6343">
        <ele>600</ele>
        <time>2020-11-18T13:51:52Z</time>
      </trkpt>
      <trkpt lat="37.54365" lon="27.63429">
        <ele>600.6</ele>
        <time>2020-11-18T13:51:51Z</time>
      </trkpt>
      <trkpt lat="37.54366" lon="27.63429">
        <ele>600.6</ele>
        <time>2020-11-18T13:51:50Z</time>
      </trkpt>
      <trkpt lat="37.54368" lon="27.63429">
        <ele>600.8</ele>
        <time>2020-11-18T13:51:49Z</time>
      </trkpt>
      <trkpt lat="37.54369" lon="27.63429">
        <ele>601</ele>
        <time>2020-11-18T13:51:48Z</time>
      </trkpt>
      <trkpt lat="37.54369" lon="27.63429">
        <ele>601</ele>
        <time>2020-11-18T13:51:47Z</time>
      </trkpt>
      <trkpt lat="37.54369" lon="27.63429">
        <ele>601</ele>
        <time>2020-11-18T13:51:46Z</time>
      </trkpt>
      <trkpt lat="37.54369" lon="27.63429">
        <ele>601.2</ele>
        <time>2020-11-18T13:51:45Z</time>
      </trkpt>
      <trkpt lat="37.54371" lon="27.63426">
        <ele>601.2</ele>
        <time>2020-11-18T13:51:44Z</time>
      </trkpt>
      <trkpt lat="37.54371" lon="27.63426">
        <ele>601.2</ele>
        <time>2020-11-18T13:51:43Z</time>
      </trkpt>
      <trkpt lat="37.54372" lon="27.63424">
        <ele>601.2</ele>
        <time>2020-11-18T13:51:42Z</time>
      </trkpt>
      <trkpt lat="37.54372" lon="27.63424">
        <ele>601.2</ele>
        <time>2020-11-18T13:51:41Z</time>
      </trkpt>
      <trkpt lat="37.54374" lon="27.63423">
        <ele>601.4</ele>
        <time>2020-11-18T13:51:40Z</time>
      </trkpt>
      <trkpt lat="37.54374" lon="27.63423">
        <ele>601.4</ele>
        <time>2020-11-18T13:51:39Z</time>
      </trkpt>
      <trkpt lat="37.54377" lon="27.63419">
        <ele>601.4</ele>
        <time>2020-11-18T13:51:38Z</time>
      </trkpt>
      <trkpt lat="37.54377" lon="27.63419">
        <ele>601.6</ele>
        <time>2020-11-18T13:51:37Z</time>
      </trkpt>
      <trkpt lat="37.54377" lon="27.63418">
        <ele>601.6</ele>
        <time>2020-11-18T13:51:36Z</time>
      </trkpt>
      <trkpt lat="37.54378" lon="27.63417">
        <ele>601.8</ele>
        <time>2020-11-18T13:51:35Z</time>
      </trkpt>
      <trkpt lat="37.54379" lon="27.63417">
        <ele>601.8</ele>
        <time>2020-11-18T13:51:34Z</time>
      </trkpt>
      <trkpt lat="37.5438" lon="27.63416">
        <ele>602</ele>
        <time>2020-11-18T13:51:33Z</time>
      </trkpt>
      <trkpt lat="37.54381" lon="27.63415">
        <ele>602</ele>
        <time>2020-11-18T13:51:32Z</time>
      </trkpt>
      <trkpt lat="37.54382" lon="27.63414">
        <ele>602</ele>
        <time>2020-11-18T13:51:31Z</time>
      </trkpt>
      <trkpt lat="37.54382" lon="27.63413">
        <ele>602.4</ele>
        <time>2020-11-18T13:51:30Z</time>
      </trkpt>
      <trkpt lat="37.54383" lon="27.63413">
        <ele>602.4</ele>
        <time>2020-11-18T13:51:29Z</time>
      </trkpt>
      <trkpt lat="37.54384" lon="27.63412">
        <ele>602.4</ele>
        <time>2020-11-18T13:51:28Z</time>
      </trkpt>
      <trkpt lat="37.54385" lon="27.63411">
        <ele>602.4</ele>
        <time>2020-11-18T13:51:27Z</time>
      </trkpt>
      <trkpt lat="37.54385" lon="27.63409">
        <ele>603</ele>
        <time>2020-11-18T13:51:26Z</time>
      </trkpt>
      <trkpt lat="37.54386" lon="27.63408">
        <ele>603.2</ele>
        <time>2020-11-18T13:51:25Z</time>
      </trkpt>
      <trkpt lat="37.54386" lon="27.63407">
        <ele>603.4</ele>
        <time>2020-11-18T13:51:24Z</time>
      </trkpt>
      <trkpt lat="37.54387" lon="27.63405">
        <ele>603.6</ele>
        <time>2020-11-18T13:51:23Z</time>
      </trkpt>
      <trkpt lat="37.54388" lon="27.63404">
        <ele>604</ele>
        <time>2020-11-18T13:51:22Z</time>
      </trkpt>
      <trkpt lat="37.54388" lon="27.63403">
        <ele>604</ele>
        <time>2020-11-18T13:51:21Z</time>
      </trkpt>
      <trkpt lat="37.54389" lon="27.63401">
        <ele>604</ele>
        <time>2020-11-18T13:51:20Z</time>
      </trkpt>
      <trkpt lat="37.54389" lon="27.634">
        <ele>604.4</ele>
        <time>2020-11-18T13:51:19Z</time>
      </trkpt>
      <trkpt lat="37.5439" lon="27.63398">
        <ele>604.6</ele>
        <time>2020-11-18T13:51:18Z</time>
      </trkpt>
      <trkpt lat="37.5439" lon="27.63397">
        <ele>604.8</ele>
        <time>2020-11-18T13:51:17Z</time>
      </trkpt>
      <trkpt lat="37.54391" lon="27.63396">
        <ele>604.8</ele>
        <time>2020-11-18T13:51:16Z</time>
      </trkpt>
      <trkpt lat="37.54392" lon="27.63394">
        <ele>605</ele>
        <time>2020-11-18T13:51:15Z</time>
      </trkpt>
      <trkpt lat="37.54392" lon="27.63393">
        <ele>605.2</ele>
        <time>2020-11-18T13:51:14Z</time>
      </trkpt>
      <trkpt lat="37.54393" lon="27.63391">
        <ele>605.2</ele>
        <time>2020-11-18T13:51:13Z</time>
      </trkpt>
      <trkpt lat="37.54393" lon="27.6339">
        <ele>605.6</ele>
        <time>2020-11-18T13:51:12Z</time>
      </trkpt>
      <trkpt lat="37.54394" lon="27.63388">
        <ele>605.6</ele>
        <time>2020-11-18T13:51:11Z</time>
      </trkpt>
      <trkpt lat="37.54395" lon="27.63386">
        <ele>605.4</ele>
        <time>2020-11-18T13:51:10Z</time>
      </trkpt>
      <trkpt lat="37.54396" lon="27.63385">
        <ele>605.4</ele>
        <time>2020-11-18T13:51:09Z</time>
      </trkpt>
      <trkpt lat="37.54396" lon="27.63383">
        <ele>605.4</ele>
        <time>2020-11-18T13:51:08Z</time>
      </trkpt>
      <trkpt lat="37.54397" lon="27.63381">
        <ele>605.2</ele>
        <time>2020-11-18T13:51:06Z</time>
      </trkpt>
      <trkpt lat="37.54398" lon="27.6338">
        <ele>605.4</ele>
        <time>2020-11-18T13:51:05Z</time>
      </trkpt>
      <trkpt lat="37.54397" lon="27.6338">
        <ele>605.6</ele>
        <time>2020-11-18T13:51:04Z</time>
      </trkpt>
      <trkpt lat="37.54396" lon="27.6338">
        <ele>605.4</ele>
        <time>2020-11-18T13:51:03Z</time>
      </trkpt>
      <trkpt lat="37.54396" lon="27.6338">
        <ele>605.6</ele>
        <time>2020-11-18T13:51:02Z</time>
      </trkpt>
      <trkpt lat="37.54395" lon="27.6338">
        <ele>606</ele>
        <time>2020-11-18T13:51:01Z</time>
      </trkpt>
      <trkpt lat="37.54394" lon="27.6338">
        <ele>606</ele>
        <time>2020-11-18T13:51:00Z</time>
      </trkpt>
      <trkpt lat="37.54393" lon="27.6338">
        <ele>606.2</ele>
        <time>2020-11-18T13:50:59Z</time>
      </trkpt>
      <trkpt lat="37.54393" lon="27.6338">
        <ele>606.4</ele>
        <time>2020-11-18T13:50:58Z</time>
      </trkpt>
      <trkpt lat="37.54392" lon="27.6338">
        <ele>606.4</ele>
        <time>2020-11-18T13:50:57Z</time>
      </trkpt>
      <trkpt lat="37.54391" lon="27.6338">
        <ele>606.6</ele>
        <time>2020-11-18T13:50:56Z</time>
      </trkpt>
      <trkpt lat="37.5439" lon="27.6338">
        <ele>606.8</ele>
        <time>2020-11-18T13:50:55Z</time>
      </trkpt>
      <trkpt lat="37.5439" lon="27.6338">
        <ele>607</ele>
        <time>2020-11-18T13:50:54Z</time>
      </trkpt>
      <trkpt lat="37.54389" lon="27.6338">
        <ele>607.4</ele>
        <time>2020-11-18T13:50:53Z</time>
      </trkpt>
      <trkpt lat="37.54388" lon="27.63381">
        <ele>607.8</ele>
        <time>2020-11-18T13:50:52Z</time>
      </trkpt>
      <trkpt lat="37.54387" lon="27.6338">
        <ele>607.6</ele>
        <time>2020-11-18T13:50:51Z</time>
      </trkpt>
      <trkpt lat="37.54386" lon="27.6338">
        <ele>608</ele>
        <time>2020-11-18T13:50:50Z</time>
      </trkpt>
      <trkpt lat="37.54386" lon="27.6338">
        <ele>608.4</ele>
        <time>2020-11-18T13:50:49Z</time>
      </trkpt>
      <trkpt lat="37.54385" lon="27.63379">
        <ele>608.6</ele>
        <time>2020-11-18T13:50:48Z</time>
      </trkpt>
      <trkpt lat="37.54384" lon="27.63379">
        <ele>608.8</ele>
        <time>2020-11-18T13:50:47Z</time>
      </trkpt>
      <trkpt lat="37.54383" lon="27.63379">
        <ele>609</ele>
        <time>2020-11-18T13:50:46Z</time>
      </trkpt>
      <trkpt lat="37.54383" lon="27.63378">
        <ele>609</ele>
        <time>2020-11-18T13:50:45Z</time>
      </trkpt>
      <trkpt lat="37.54382" lon="27.63378">
        <ele>609.2</ele>
        <time>2020-11-18T13:50:44Z</time>
      </trkpt>
      <trkpt lat="37.54381" lon="27.63378">
        <ele>609.4</ele>
        <time>2020-11-18T13:50:43Z</time>
      </trkpt>
      <trkpt lat="37.5438" lon="27.63377">
        <ele>609.4</ele>
        <time>2020-11-18T13:50:42Z</time>
      </trkpt>
      <trkpt lat="37.54379" lon="27.63377">
        <ele>609.6</ele>
        <time>2020-11-18T13:50:41Z</time>
      </trkpt>
      <trkpt lat="37.54379" lon="27.63377">
        <ele>609.8</ele>
        <time>2020-11-18T13:50:40Z</time>
      </trkpt>
      <trkpt lat="37.54379" lon="27.63376">
        <ele>609.8</ele>
        <time>2020-11-18T13:50:39Z</time>
      </trkpt>
      <trkpt lat="37.54378" lon="27.63375">
        <ele>609.6</ele>
        <time>2020-11-18T13:50:38Z</time>
      </trkpt>
      <trkpt lat="37.54378" lon="27.63375">
        <ele>610</ele>
        <time>2020-11-18T13:50:37Z</time>
      </trkpt>
      <trkpt lat="37.54377" lon="27.63374">
        <ele>610</ele>
        <time>2020-11-18T13:50:36Z</time>
      </trkpt>
      <trkpt lat="37.54377" lon="27.63374">
        <ele>610</ele>
        <time>2020-11-18T13:50:35Z</time>
      </trkpt>
      <trkpt lat="37.54377" lon="27.63373">
        <ele>610.2</ele>
        <time>2020-11-18T13:50:34Z</time>
      </trkpt>
      <trkpt lat="37.54376" lon="27.63373">
        <ele>610.6</ele>
        <time>2020-11-18T13:50:33Z</time>
      </trkpt>
      <trkpt lat="37.54376" lon="27.63372">
        <ele>610.4</ele>
        <time>2020-11-18T13:50:32Z</time>
      </trkpt>
      <trkpt lat="37.54376" lon="27.63372">
        <ele>610.6</ele>
        <time>2020-11-18T13:50:31Z</time>
      </trkpt>
      <trkpt lat="37.54375" lon="27.63371">
        <ele>610.4</ele>
        <time>2020-11-18T13:50:30Z</time>
      </trkpt>
      <trkpt lat="37.54375" lon="27.63371">
        <ele>610.4</ele>
        <time>2020-11-18T13:50:29Z</time>
      </trkpt>
      <trkpt lat="37.54374" lon="27.6337">
        <ele>610.4</ele>
        <time>2020-11-18T13:50:28Z</time>
      </trkpt>
      <trkpt lat="37.54374" lon="27.6337">
        <ele>610.4</ele>
        <time>2020-11-18T13:50:27Z</time>
      </trkpt>
      <trkpt lat="37.54374" lon="27.63369">
        <ele>610.4</ele>
        <time>2020-11-18T13:50:26Z</time>
      </trkpt>
      <trkpt lat="37.54373" lon="27.63369">
        <ele>610.6</ele>
        <time>2020-11-18T13:50:25Z</time>
      </trkpt>
      <trkpt lat="37.54373" lon="27.63368">
        <ele>610.8</ele>
        <time>2020-11-18T13:50:24Z</time>
      </trkpt>
      <trkpt lat="37.54373" lon="27.63368">
        <ele>610.6</ele>
        <time>2020-11-18T13:50:23Z</time>
      </trkpt>
      <trkpt lat="37.54372" lon="27.63368">
        <ele>610.6</ele>
        <time>2020-11-18T13:50:22Z</time>
      </trkpt>
      <trkpt lat="37.54372" lon="27.63367">
        <ele>610.4</ele>
        <time>2020-11-18T13:50:21Z</time>
      </trkpt>
      <trkpt lat="37.54372" lon="27.63367">
        <ele>610.8</ele>
        <time>2020-11-18T13:50:20Z</time>
      </trkpt>
      <trkpt lat="37.54371" lon="27.63366">
        <ele>611.2</ele>
        <time>2020-11-18T13:50:19Z</time>
      </trkpt>
      <trkpt lat="37.54371" lon="27.63366">
        <ele>611.2</ele>
        <time>2020-11-18T13:50:18Z</time>
      </trkpt>
      <trkpt lat="37.54371" lon="27.63366">
        <ele>611.4</ele>
        <time>2020-11-18T13:50:17Z</time>
      </trkpt>
      <trkpt lat="37.5437" lon="27.63365">
        <ele>611.6</ele>
        <time>2020-11-18T13:50:16Z</time>
      </trkpt>
      <trkpt lat="37.5437" lon="27.63365">
        <ele>612</ele>
        <time>2020-11-18T13:50:15Z</time>
      </trkpt>
      <trkpt lat="37.5437" lon="27.63364">
        <ele>612.2</ele>
        <time>2020-11-18T13:50:14Z</time>
      </trkpt>
      <trkpt lat="37.54369" lon="27.63364">
        <ele>612.2</ele>
        <time>2020-11-18T13:50:13Z</time>
      </trkpt>
      <trkpt lat="37.54369" lon="27.63364">
        <ele>612.4</ele>
        <time>2020-11-18T13:50:12Z</time>
      </trkpt>
      <trkpt lat="37.54369" lon="27.63363">
        <ele>612.6</ele>
        <time>2020-11-18T13:50:11Z</time>
      </trkpt>
      <trkpt lat="37.54368" lon="27.63363">
        <ele>612.6</ele>
        <time>2020-11-18T13:50:10Z</time>
      </trkpt>
      <trkpt lat="37.54368" lon="27.63362">
        <ele>612.8</ele>
        <time>2020-11-18T13:50:09Z</time>
      </trkpt>
      <trkpt lat="37.54368" lon="27.63362">
        <ele>612.6</ele>
        <time>2020-11-18T13:50:08Z</time>
      </trkpt>
      <trkpt lat="37.54367" lon="27.63362">
        <ele>612.6</ele>
        <time>2020-11-18T13:50:07Z</time>
      </trkpt>
      <trkpt lat="37.54367" lon="27.63361">
        <ele>612.6</ele>
        <time>2020-11-18T13:50:06Z</time>
      </trkpt>
      <trkpt lat="37.54367" lon="27.63361">
        <ele>612.8</ele>
        <time>2020-11-18T13:50:05Z</time>
      </trkpt>
      <trkpt lat="37.54365" lon="27.6336">
        <ele>612.8</ele>
        <time>2020-11-18T13:50:04Z</time>
      </trkpt>
      <trkpt lat="37.54363" lon="27.6336">
        <ele>613</ele>
        <time>2020-11-18T13:50:03Z</time>
      </trkpt>
      <trkpt lat="37.54361" lon="27.63359">
        <ele>613.4</ele>
        <time>2020-11-18T13:50:02Z</time>
      </trkpt>
      <trkpt lat="37.5436" lon="27.63358">
        <ele>613.4</ele>
        <time>2020-11-18T13:50:01Z</time>
      </trkpt>
      <trkpt lat="37.54358" lon="27.63358">
        <ele>613.8</ele>
        <time>2020-11-18T13:49:59Z</time>
      </trkpt>
      <trkpt lat="37.54357" lon="27.63357">
        <ele>613.6</ele>
        <time>2020-11-18T13:49:58Z</time>
      </trkpt>
      <trkpt lat="37.54357" lon="27.63357">
        <ele>613.8</ele>
        <time>2020-11-18T13:49:57Z</time>
      </trkpt>
      <trkpt lat="37.54357" lon="27.63357">
        <ele>614.2</ele>
        <time>2020-11-18T13:49:56Z</time>
      </trkpt>
      <trkpt lat="37.54356" lon="27.63356">
        <ele>614.2</ele>
        <time>2020-11-18T13:49:55Z</time>
      </trkpt>
      <trkpt lat="37.54356" lon="27.63356">
        <ele>614.2</ele>
        <time>2020-11-18T13:49:54Z</time>
      </trkpt>
      <trkpt lat="37.54356" lon="27.63356">
        <ele>614.2</ele>
        <time>2020-11-18T13:49:53Z</time>
      </trkpt>
      <trkpt lat="37.54355" lon="27.63355">
        <ele>614.2</ele>
        <time>2020-11-18T13:49:52Z</time>
      </trkpt>
      <trkpt lat="37.54355" lon="27.63355">
        <ele>614.4</ele>
        <time>2020-11-18T13:49:51Z</time>
      </trkpt>
      <trkpt lat="37.54354" lon="27.63354">
        <ele>614.4</ele>
        <time>2020-11-18T13:49:50Z</time>
      </trkpt>
      <trkpt lat="37.54354" lon="27.63354">
        <ele>614.4</ele>
        <time>2020-11-18T13:49:49Z</time>
      </trkpt>
      <trkpt lat="37.54354" lon="27.63354">
        <ele>614.2</ele>
        <time>2020-11-18T13:49:48Z</time>
      </trkpt>
      <trkpt lat="37.54353" lon="27.63353">
        <ele>614.4</ele>
        <time>2020-11-18T13:49:47Z</time>
      </trkpt>
      <trkpt lat="37.54353" lon="27.63353">
        <ele>614.6</ele>
        <time>2020-11-18T13:49:46Z</time>
      </trkpt>
      <trkpt lat="37.54353" lon="27.63352">
        <ele>614.6</ele>
        <time>2020-11-18T13:49:45Z</time>
      </trkpt>
      <trkpt lat="37.54352" lon="27.63352">
        <ele>614.8</ele>
        <time>2020-11-18T13:49:44Z</time>
      </trkpt>
      <trkpt lat="37.54352" lon="27.63352">
        <ele>615</ele>
        <time>2020-11-18T13:49:43Z</time>
      </trkpt>
      <trkpt lat="37.54351" lon="27.63351">
        <ele>614.8</ele>
        <time>2020-11-18T13:49:42Z</time>
      </trkpt>
      <trkpt lat="37.54351" lon="27.63351">
        <ele>614.8</ele>
        <time>2020-11-18T13:49:41Z</time>
      </trkpt>
      <trkpt lat="37.54351" lon="27.63351">
        <ele>614.8</ele>
        <time>2020-11-18T13:49:40Z</time>
      </trkpt>
      <trkpt lat="37.54351" lon="27.6335">
        <ele>614.6</ele>
        <time>2020-11-18T13:49:39Z</time>
      </trkpt>
      <trkpt lat="37.5435" lon="27.6335">
        <ele>614.6</ele>
        <time>2020-11-18T13:49:38Z</time>
      </trkpt>
      <trkpt lat="37.5435" lon="27.6335">
        <ele>614.6</ele>
        <time>2020-11-18T13:49:37Z</time>
      </trkpt>
      <trkpt lat="37.5435" lon="27.63349">
        <ele>614.6</ele>
        <time>2020-11-18T13:49:36Z</time>
      </trkpt>
      <trkpt lat="37.5435" lon="27.63349">
        <ele>614.6</ele>
        <time>2020-11-18T13:49:35Z</time>
      </trkpt>
      <trkpt lat="37.54349" lon="27.63349">
        <ele>614.6</ele>
        <time>2020-11-18T13:49:34Z</time>
      </trkpt>
      <trkpt lat="37.54349" lon="27.63349">
        <ele>614.8</ele>
        <time>2020-11-18T13:49:33Z</time>
      </trkpt>
      <trkpt lat="37.54349" lon="27.63348">
        <ele>615</ele>
        <time>2020-11-18T13:49:32Z</time>
      </trkpt>
      <trkpt lat="37.54349" lon="27.63348">
        <ele>615.2</ele>
        <time>2020-11-18T13:49:31Z</time>
      </trkpt>
      <trkpt lat="37.54348" lon="27.63348">
        <ele>615.4</ele>
        <time>2020-11-18T13:49:30Z</time>
      </trkpt>
      <trkpt lat="37.54348" lon="27.63348">
        <ele>615</ele>
        <time>2020-11-18T13:49:29Z</time>
      </trkpt>
      <trkpt lat="37.54348" lon="27.63347">
        <ele>614.8</ele>
        <time>2020-11-18T13:49:28Z</time>
      </trkpt>
      <trkpt lat="37.54348" lon="27.63347">
        <ele>615</ele>
        <time>2020-11-18T13:49:27Z</time>
      </trkpt>
      <trkpt lat="37.54347" lon="27.63347">
        <ele>615.2</ele>
        <time>2020-11-18T13:49:26Z</time>
      </trkpt>
      <trkpt lat="37.54347" lon="27.63347">
        <ele>615.2</ele>
        <time>2020-11-18T13:49:25Z</time>
      </trkpt>
      <trkpt lat="37.54347" lon="27.63346">
        <ele>615</ele>
        <time>2020-11-18T13:49:24Z</time>
      </trkpt>
      <trkpt lat="37.54347" lon="27.63346">
        <ele>615.2</ele>
        <time>2020-11-18T13:49:23Z</time>
      </trkpt>
      <trkpt lat="37.54346" lon="27.63346">
        <ele>615.2</ele>
        <time>2020-11-18T13:49:22Z</time>
      </trkpt>
      <trkpt lat="37.54346" lon="27.63345">
        <ele>615.2</ele>
        <time>2020-11-18T13:49:21Z</time>
      </trkpt>
      <trkpt lat="37.54346" lon="27.63345">
        <ele>615.4</ele>
        <time>2020-11-18T13:49:20Z</time>
      </trkpt>
      <trkpt lat="37.54346" lon="27.63345">
        <ele>615.4</ele>
        <time>2020-11-18T13:49:19Z</time>
      </trkpt>
      <trkpt lat="37.54346" lon="27.63345">
        <ele>615.6</ele>
        <time>2020-11-18T13:49:18Z</time>
      </trkpt>
      <trkpt lat="37.54345" lon="27.63344">
        <ele>615.4</ele>
        <time>2020-11-18T13:49:17Z</time>
      </trkpt>
      <trkpt lat="37.54345" lon="27.63344">
        <ele>615.8</ele>
        <time>2020-11-18T13:49:16Z</time>
      </trkpt>
      <trkpt lat="37.54345" lon="27.63344">
        <ele>616</ele>
        <time>2020-11-18T13:49:15Z</time>
      </trkpt>
      <trkpt lat="37.54345" lon="27.63344">
        <ele>616</ele>
        <time>2020-11-18T13:49:14Z</time>
      </trkpt>
      <trkpt lat="37.54344" lon="27.63343">
        <ele>615.8</ele>
        <time>2020-11-18T13:49:13Z</time>
      </trkpt>
      <trkpt lat="37.54344" lon="27.63343">
        <ele>615.6</ele>
        <time>2020-11-18T13:49:12Z</time>
      </trkpt>
      <trkpt lat="37.54344" lon="27.63343">
        <ele>615.8</ele>
        <time>2020-11-18T13:49:11Z</time>
      </trkpt>
      <trkpt lat="37.54343" lon="27.63342">
        <ele>616</ele>
        <time>2020-11-18T13:49:10Z</time>
      </trkpt>
      <trkpt lat="37.54343" lon="27.63341">
        <ele>616</ele>
        <time>2020-11-18T13:49:09Z</time>
      </trkpt>
      <trkpt lat="37.54343" lon="27.6334">
        <ele>615.8</ele>
        <time>2020-11-18T13:49:08Z</time>
      </trkpt>
      <trkpt lat="37.54342" lon="27.63339">
        <ele>616</ele>
        <time>2020-11-18T13:49:07Z</time>
      </trkpt>
      <trkpt lat="37.54342" lon="27.63338">
        <ele>616</ele>
        <time>2020-11-18T13:49:06Z</time>
      </trkpt>
      <trkpt lat="37.54342" lon="27.63337">
        <ele>616</ele>
        <time>2020-11-18T13:49:05Z</time>
      </trkpt>
      <trkpt lat="37.54341" lon="27.63336">
        <ele>615.8</ele>
        <time>2020-11-18T13:49:04Z</time>
      </trkpt>
      <trkpt lat="37.54341" lon="27.63336">
        <ele>616.4</ele>
        <time>2020-11-18T13:49:03Z</time>
      </trkpt>
      <trkpt lat="37.5434" lon="27.63335">
        <ele>616.4</ele>
        <time>2020-11-18T13:49:02Z</time>
      </trkpt>
      <trkpt lat="37.5434" lon="27.63334">
        <ele>616.6</ele>
        <time>2020-11-18T13:49:01Z</time>
      </trkpt>
      <trkpt lat="37.5434" lon="27.63333">
        <ele>616.8</ele>
        <time>2020-11-18T13:49:00Z</time>
      </trkpt>
      <trkpt lat="37.54339" lon="27.63332">
        <ele>617.4</ele>
        <time>2020-11-18T13:48:59Z</time>
      </trkpt>
      <trkpt lat="37.54339" lon="27.63332">
        <ele>617.8</ele>
        <time>2020-11-18T13:48:58Z</time>
      </trkpt>
      <trkpt lat="37.54339" lon="27.63332">
        <ele>618.4</ele>
        <time>2020-11-18T13:48:57Z</time>
      </trkpt>
      <trkpt lat="37.54339" lon="27.63332">
        <ele>618.4</ele>
        <time>2020-11-18T13:48:56Z</time>
      </trkpt>
      <trkpt lat="37.54339" lon="27.63329">
        <ele>617.8</ele>
        <time>2020-11-18T13:48:55Z</time>
      </trkpt>
      <trkpt lat="37.54339" lon="27.63328">
        <ele>618</ele>
        <time>2020-11-18T13:48:54Z</time>
      </trkpt>
      <trkpt lat="37.5434" lon="27.63327">
        <ele>618</ele>
        <time>2020-11-18T13:48:53Z</time>
      </trkpt>
      <trkpt lat="37.5434" lon="27.63326">
        <ele>617.6</ele>
        <time>2020-11-18T13:48:52Z</time>
      </trkpt>
      <trkpt lat="37.5434" lon="27.63325">
        <ele>618.4</ele>
        <time>2020-11-18T13:48:51Z</time>
      </trkpt>
      <trkpt lat="37.54341" lon="27.63324">
        <ele>618.2</ele>
        <time>2020-11-18T13:48:50Z</time>
      </trkpt>
      <trkpt lat="37.54341" lon="27.63323">
        <ele>618.6</ele>
        <time>2020-11-18T13:48:49Z</time>
      </trkpt>
      <trkpt lat="37.54341" lon="27.63322">
        <ele>618.6</ele>
        <time>2020-11-18T13:48:48Z</time>
      </trkpt>
      <trkpt lat="37.54342" lon="27.63321">
        <ele>618.4</ele>
        <time>2020-11-18T13:48:47Z</time>
      </trkpt>
      <trkpt lat="37.54342" lon="27.6332">
        <ele>618.4</ele>
        <time>2020-11-18T13:48:46Z</time>
      </trkpt>
      <trkpt lat="37.54342" lon="27.63319">
        <ele>618.6</ele>
        <time>2020-11-18T13:48:45Z</time>
      </trkpt>
      <trkpt lat="37.54343" lon="27.63318">
        <ele>618.8</ele>
        <time>2020-11-18T13:48:44Z</time>
      </trkpt>
      <trkpt lat="37.54343" lon="27.63317">
        <ele>619.2</ele>
        <time>2020-11-18T13:48:43Z</time>
      </trkpt>
      <trkpt lat="37.54343" lon="27.63315">
        <ele>619.4</ele>
        <time>2020-11-18T13:48:42Z</time>
      </trkpt>
      <trkpt lat="37.54343" lon="27.63314">
        <ele>619.4</ele>
        <time>2020-11-18T13:48:41Z</time>
      </trkpt>
      <trkpt lat="37.54344" lon="27.63313">
        <ele>619.8</ele>
        <time>2020-11-18T13:48:40Z</time>
      </trkpt>
      <trkpt lat="37.54344" lon="27.63312">
        <ele>620</ele>
        <time>2020-11-18T13:48:39Z</time>
      </trkpt>
      <trkpt lat="37.54344" lon="27.6331">
        <ele>620.2</ele>
        <time>2020-11-18T13:48:38Z</time>
      </trkpt>
      <trkpt lat="37.54344" lon="27.63309">
        <ele>620.2</ele>
        <time>2020-11-18T13:48:37Z</time>
      </trkpt>
      <trkpt lat="37.54344" lon="27.63309">
        <ele>620.6</ele>
        <time>2020-11-18T13:48:36Z</time>
      </trkpt>
      <trkpt lat="37.54344" lon="27.63308">
        <ele>621</ele>
        <time>2020-11-18T13:48:35Z</time>
      </trkpt>
      <trkpt lat="37.54344" lon="27.63308">
        <ele>621</ele>
        <time>2020-11-18T13:48:34Z</time>
      </trkpt>
      <trkpt lat="37.54343" lon="27.63308">
        <ele>621.4</ele>
        <time>2020-11-18T13:48:33Z</time>
      </trkpt>
      <trkpt lat="37.54343" lon="27.63307">
        <ele>622</ele>
        <time>2020-11-18T13:48:32Z</time>
      </trkpt>
      <trkpt lat="37.54343" lon="27.63307">
        <ele>622</ele>
        <time>2020-11-18T13:48:31Z</time>
      </trkpt>
      <trkpt lat="37.54342" lon="27.63307">
        <ele>622.4</ele>
        <time>2020-11-18T13:48:30Z</time>
      </trkpt>
      <trkpt lat="37.54342" lon="27.63306">
        <ele>622.2</ele>
        <time>2020-11-18T13:48:29Z</time>
      </trkpt>
      <trkpt lat="37.54342" lon="27.63306">
        <ele>622.4</ele>
        <time>2020-11-18T13:48:28Z</time>
      </trkpt>
      <trkpt lat="37.54342" lon="27.63306">
        <ele>622.4</ele>
        <time>2020-11-18T13:48:27Z</time>
      </trkpt>
      <trkpt lat="37.54341" lon="27.63305">
        <ele>622.4</ele>
        <time>2020-11-18T13:48:26Z</time>
      </trkpt>
      <trkpt lat="37.54341" lon="27.63305">
        <ele>623</ele>
        <time>2020-11-18T13:48:25Z</time>
      </trkpt>
      <trkpt lat="37.54341" lon="27.63305">
        <ele>623.2</ele>
        <time>2020-11-18T13:48:24Z</time>
      </trkpt>
      <trkpt lat="37.54341" lon="27.63304">
        <ele>623.2</ele>
        <time>2020-11-18T13:48:23Z</time>
      </trkpt>
      <trkpt lat="37.5434" lon="27.63304">
        <ele>623.4</ele>
        <time>2020-11-18T13:48:22Z</time>
      </trkpt>
      <trkpt lat="37.5434" lon="27.63304">
        <ele>623.8</ele>
        <time>2020-11-18T13:48:21Z</time>
      </trkpt>
      <trkpt lat="37.5434" lon="27.63303">
        <ele>623.8</ele>
        <time>2020-11-18T13:48:20Z</time>
      </trkpt>
      <trkpt lat="37.54339" lon="27.63303">
        <ele>623.8</ele>
        <time>2020-11-18T13:48:19Z</time>
      </trkpt>
      <trkpt lat="37.54339" lon="27.63303">
        <ele>624</ele>
        <time>2020-11-18T13:48:18Z</time>
      </trkpt>
      <trkpt lat="37.54339" lon="27.63302">
        <ele>624</ele>
        <time>2020-11-18T13:48:17Z</time>
      </trkpt>
      <trkpt lat="37.54339" lon="27.63302">
        <ele>624.4</ele>
        <time>2020-11-18T13:48:16Z</time>
      </trkpt>
      <trkpt lat="37.54338" lon="27.63302">
        <ele>624</ele>
        <time>2020-11-18T13:48:15Z</time>
      </trkpt>
      <trkpt lat="37.54338" lon="27.63301">
        <ele>624.2</ele>
        <time>2020-11-18T13:48:14Z</time>
      </trkpt>
      <trkpt lat="37.54338" lon="27.63301">
        <ele>624.4</ele>
        <time>2020-11-18T13:48:13Z</time>
      </trkpt>
      <trkpt lat="37.54338" lon="27.63301">
        <ele>624.6</ele>
        <time>2020-11-18T13:48:12Z</time>
      </trkpt>
      <trkpt lat="37.54338" lon="27.63301">
        <ele>624.6</ele>
        <time>2020-11-18T13:48:11Z</time>
      </trkpt>
      <trkpt lat="37.54338" lon="27.63301">
        <ele>624.8</ele>
        <time>2020-11-18T13:48:10Z</time>
      </trkpt>
      <trkpt lat="37.5434" lon="27.63297">
        <ele>625.2</ele>
        <time>2020-11-18T13:48:09Z</time>
      </trkpt>
      <trkpt lat="37.5434" lon="27.63297">
        <ele>625.2</ele>
        <time>2020-11-18T13:48:08Z</time>
      </trkpt>
      <trkpt lat="37.5434" lon="27.63295">
        <ele>625.2</ele>
        <time>2020-11-18T13:48:07Z</time>
      </trkpt>
      <trkpt lat="37.5434" lon="27.63294">
        <ele>625.4</ele>
        <time>2020-11-18T13:48:06Z</time>
      </trkpt>
      <trkpt lat="37.5434" lon="27.63293">
        <ele>625.6</ele>
        <time>2020-11-18T13:48:05Z</time>
      </trkpt>
      <trkpt lat="37.54341" lon="27.63292">
        <ele>625.8</ele>
        <time>2020-11-18T13:48:04Z</time>
      </trkpt>
      <trkpt lat="37.54341" lon="27.6329">
        <ele>626</ele>
        <time>2020-11-18T13:48:03Z</time>
      </trkpt>
      <trkpt lat="37.54341" lon="27.63289">
        <ele>626.4</ele>
        <time>2020-11-18T13:48:02Z</time>
      </trkpt>
      <trkpt lat="37.54341" lon="27.63288">
        <ele>626.6</ele>
        <time>2020-11-18T13:48:01Z</time>
      </trkpt>
      <trkpt lat="37.54341" lon="27.63286">
        <ele>626.4</ele>
        <time>2020-11-18T13:48:00Z</time>
      </trkpt>
      <trkpt lat="37.54341" lon="27.63286">
        <ele>626.6</ele>
        <time>2020-11-18T13:47:59Z</time>
      </trkpt>
      <trkpt lat="37.54341" lon="27.63286">
        <ele>626.8</ele>
        <time>2020-11-18T13:47:58Z</time>
      </trkpt>
      <trkpt lat="37.54341" lon="27.63286">
        <ele>626.8</ele>
        <time>2020-11-18T13:47:57Z</time>
      </trkpt>
      <trkpt lat="37.54341" lon="27.63284">
        <ele>627</ele>
        <time>2020-11-18T13:47:56Z</time>
      </trkpt>
      <trkpt lat="37.54341" lon="27.63284">
        <ele>627</ele>
        <time>2020-11-18T13:47:55Z</time>
      </trkpt>
      <trkpt lat="37.54341" lon="27.63284">
        <ele>627.2</ele>
        <time>2020-11-18T13:47:54Z</time>
      </trkpt>
      <trkpt lat="37.5434" lon="27.63279">
        <ele>627.4</ele>
        <time>2020-11-18T13:47:53Z</time>
      </trkpt>
      <trkpt lat="37.5434" lon="27.63279">
        <ele>627.4</ele>
        <time>2020-11-18T13:47:52Z</time>
      </trkpt>
      <trkpt lat="37.5434" lon="27.63279">
        <ele>627.8</ele>
        <time>2020-11-18T13:47:51Z</time>
      </trkpt>
      <trkpt lat="37.54337" lon="27.63277">
        <ele>627.8</ele>
        <time>2020-11-18T13:47:50Z</time>
      </trkpt>
      <trkpt lat="37.54337" lon="27.63277">
        <ele>627.6</ele>
        <time>2020-11-18T13:47:49Z</time>
      </trkpt>
      <trkpt lat="37.54337" lon="27.63277">
        <ele>627.8</ele>
        <time>2020-11-18T13:47:48Z</time>
      </trkpt>
      <trkpt lat="37.54336" lon="27.63275">
        <ele>627.8</ele>
        <time>2020-11-18T13:47:47Z</time>
      </trkpt>
      <trkpt lat="37.54336" lon="27.63275">
        <ele>628</ele>
        <time>2020-11-18T13:47:46Z</time>
      </trkpt>
      <trkpt lat="37.54335" lon="27.63273">
        <ele>628.2</ele>
        <time>2020-11-18T13:47:45Z</time>
      </trkpt>
      <trkpt lat="37.54335" lon="27.63273">
        <ele>628.2</ele>
        <time>2020-11-18T13:47:44Z</time>
      </trkpt>
      <trkpt lat="37.54335" lon="27.63273">
        <ele>628.4</ele>
        <time>2020-11-18T13:47:43Z</time>
      </trkpt>
      <trkpt lat="37.54333" lon="27.63271">
        <ele>628.4</ele>
        <time>2020-11-18T13:47:42Z</time>
      </trkpt>
      <trkpt lat="37.54333" lon="27.63271">
        <ele>628.6</ele>
        <time>2020-11-18T13:47:41Z</time>
      </trkpt>
      <trkpt lat="37.54333" lon="27.63271">
        <ele>628.8</ele>
        <time>2020-11-18T13:47:40Z</time>
      </trkpt>
      <trkpt lat="37.54333" lon="27.63267">
        <ele>628.8</ele>
        <time>2020-11-18T13:47:39Z</time>
      </trkpt>
      <trkpt lat="37.54333" lon="27.63267">
        <ele>628.8</ele>
        <time>2020-11-18T13:47:38Z</time>
      </trkpt>
      <trkpt lat="37.54333" lon="27.63267">
        <ele>629</ele>
        <time>2020-11-18T13:47:37Z</time>
      </trkpt>
      <trkpt lat="37.54333" lon="27.63267">
        <ele>629.2</ele>
        <time>2020-11-18T13:47:36Z</time>
      </trkpt>
      <trkpt lat="37.54333" lon="27.63265">
        <ele>629.2</ele>
        <time>2020-11-18T13:47:35Z</time>
      </trkpt>
      <trkpt lat="37.54333" lon="27.63265">
        <ele>629.2</ele>
        <time>2020-11-18T13:47:34Z</time>
      </trkpt>
      <trkpt lat="37.54333" lon="27.63265">
        <ele>629.4</ele>
        <time>2020-11-18T13:47:33Z</time>
      </trkpt>
      <trkpt lat="37.54333" lon="27.63262">
        <ele>629.6</ele>
        <time>2020-11-18T13:47:32Z</time>
      </trkpt>
      <trkpt lat="37.54333" lon="27.63262">
        <ele>630</ele>
        <time>2020-11-18T13:47:31Z</time>
      </trkpt>
      <trkpt lat="37.54334" lon="27.6326">
        <ele>630</ele>
        <time>2020-11-18T13:47:30Z</time>
      </trkpt>
      <trkpt lat="37.54334" lon="27.6326">
        <ele>629.8</ele>
        <time>2020-11-18T13:47:29Z</time>
      </trkpt>
      <trkpt lat="37.54336" lon="27.63258">
        <ele>630</ele>
        <time>2020-11-18T13:47:28Z</time>
      </trkpt>
      <trkpt lat="37.54336" lon="27.63258">
        <ele>630.2</ele>
        <time>2020-11-18T13:47:27Z</time>
      </trkpt>
      <trkpt lat="37.54337" lon="27.63254">
        <ele>630.2</ele>
        <time>2020-11-18T13:47:26Z</time>
      </trkpt>
      <trkpt lat="37.54337" lon="27.63254">
        <ele>630.4</ele>
        <time>2020-11-18T13:47:25Z</time>
      </trkpt>
      <trkpt lat="37.54337" lon="27.63254">
        <ele>630.8</ele>
        <time>2020-11-18T13:47:24Z</time>
      </trkpt>
      <trkpt lat="37.54337" lon="27.63254">
        <ele>631</ele>
        <time>2020-11-18T13:47:23Z</time>
      </trkpt>
      <trkpt lat="37.54337" lon="27.63254">
        <ele>631</ele>
        <time>2020-11-18T13:47:22Z</time>
      </trkpt>
      <trkpt lat="37.54337" lon="27.63254">
        <ele>631.2</ele>
        <time>2020-11-18T13:47:21Z</time>
      </trkpt>
      <trkpt lat="37.54337" lon="27.63254">
        <ele>631.4</ele>
        <time>2020-11-18T13:47:20Z</time>
      </trkpt>
      <trkpt lat="37.54337" lon="27.63253">
        <ele>631.2</ele>
        <time>2020-11-18T13:47:19Z</time>
      </trkpt>
      <trkpt lat="37.54338" lon="27.63251">
        <ele>631.4</ele>
        <time>2020-11-18T13:47:18Z</time>
      </trkpt>
      <trkpt lat="37.54338" lon="27.6325">
        <ele>631.6</ele>
        <time>2020-11-18T13:47:17Z</time>
      </trkpt>
      <trkpt lat="37.54339" lon="27.63249">
        <ele>631.6</ele>
        <time>2020-11-18T13:47:16Z</time>
      </trkpt>
      <trkpt lat="37.54339" lon="27.63247">
        <ele>631.6</ele>
        <time>2020-11-18T13:47:15Z</time>
      </trkpt>
      <trkpt lat="37.5434" lon="27.63246">
        <ele>631.6</ele>
        <time>2020-11-18T13:47:14Z</time>
      </trkpt>
      <trkpt lat="37.5434" lon="27.63246">
        <ele>631.6</ele>
        <time>2020-11-18T13:47:13Z</time>
      </trkpt>
      <trkpt lat="37.5434" lon="27.63246">
        <ele>631.8</ele>
        <time>2020-11-18T13:47:12Z</time>
      </trkpt>
      <trkpt lat="37.5434" lon="27.63246">
        <ele>632</ele>
        <time>2020-11-18T13:47:11Z</time>
      </trkpt>
      <trkpt lat="37.54341" lon="27.63244">
        <ele>631.8</ele>
        <time>2020-11-18T13:47:10Z</time>
      </trkpt>
      <trkpt lat="37.54342" lon="27.63243">
        <ele>631.8</ele>
        <time>2020-11-18T13:47:09Z</time>
      </trkpt>
      <trkpt lat="37.54343" lon="27.63241">
        <ele>631.8</ele>
        <time>2020-11-18T13:47:08Z</time>
      </trkpt>
      <trkpt lat="37.54344" lon="27.6324">
        <ele>632</ele>
        <time>2020-11-18T13:47:07Z</time>
      </trkpt>
      <trkpt lat="37.54344" lon="27.63238">
        <ele>632.2</ele>
        <time>2020-11-18T13:47:06Z</time>
      </trkpt>
      <trkpt lat="37.54345" lon="27.63237">
        <ele>632</ele>
        <time>2020-11-18T13:47:05Z</time>
      </trkpt>
      <trkpt lat="37.54345" lon="27.63235">
        <ele>632</ele>
        <time>2020-11-18T13:47:04Z</time>
      </trkpt>
      <trkpt lat="37.54345" lon="27.63234">
        <ele>632.2</ele>
        <time>2020-11-18T13:47:03Z</time>
      </trkpt>
      <trkpt lat="37.54345" lon="27.63233">
        <ele>632.2</ele>
        <time>2020-11-18T13:47:02Z</time>
      </trkpt>
      <trkpt lat="37.54345" lon="27.63232">
        <ele>632.4</ele>
        <time>2020-11-18T13:47:01Z</time>
      </trkpt>
      <trkpt lat="37.54345" lon="27.63231">
        <ele>632.4</ele>
        <time>2020-11-18T13:47:00Z</time>
      </trkpt>
      <trkpt lat="37.54345" lon="27.6323">
        <ele>632.4</ele>
        <time>2020-11-18T13:46:59Z</time>
      </trkpt>
      <trkpt lat="37.54345" lon="27.63228">
        <ele>632.6</ele>
        <time>2020-11-18T13:46:58Z</time>
      </trkpt>
      <trkpt lat="37.54345" lon="27.63227">
        <ele>632.4</ele>
        <time>2020-11-18T13:46:57Z</time>
      </trkpt>
      <trkpt lat="37.54345" lon="27.63226">
        <ele>632.4</ele>
        <time>2020-11-18T13:46:56Z</time>
      </trkpt>
      <trkpt lat="37.54345" lon="27.63225">
        <ele>632.6</ele>
        <time>2020-11-18T13:46:55Z</time>
      </trkpt>
      <trkpt lat="37.54345" lon="27.63224">
        <ele>632.8</ele>
        <time>2020-11-18T13:46:54Z</time>
      </trkpt>
      <trkpt lat="37.54345" lon="27.63223">
        <ele>632.8</ele>
        <time>2020-11-18T13:46:53Z</time>
      </trkpt>
      <trkpt lat="37.54345" lon="27.63222">
        <ele>633.2</ele>
        <time>2020-11-18T13:46:52Z</time>
      </trkpt>
      <trkpt lat="37.54345" lon="27.63221">
        <ele>633.2</ele>
        <time>2020-11-18T13:46:51Z</time>
      </trkpt>
      <trkpt lat="37.54345" lon="27.6322">
        <ele>633.4</ele>
        <time>2020-11-18T13:46:50Z</time>
      </trkpt>
      <trkpt lat="37.54345" lon="27.63219">
        <ele>633.4</ele>
        <time>2020-11-18T13:46:49Z</time>
      </trkpt>
      <trkpt lat="37.54345" lon="27.63218">
        <ele>633.4</ele>
        <time>2020-11-18T13:46:48Z</time>
      </trkpt>
      <trkpt lat="37.54345" lon="27.63217">
        <ele>633.4</ele>
        <time>2020-11-18T13:46:47Z</time>
      </trkpt>
      <trkpt lat="37.54345" lon="27.63217">
        <ele>633.8</ele>
        <time>2020-11-18T13:46:46Z</time>
      </trkpt>
      <trkpt lat="37.54345" lon="27.63216">
        <ele>633.6</ele>
        <time>2020-11-18T13:46:45Z</time>
      </trkpt>
      <trkpt lat="37.54345" lon="27.63215">
        <ele>633.6</ele>
        <time>2020-11-18T13:46:44Z</time>
      </trkpt>
      <trkpt lat="37.54345" lon="27.63214">
        <ele>633.6</ele>
        <time>2020-11-18T13:46:43Z</time>
      </trkpt>
      <trkpt lat="37.54344" lon="27.63213">
        <ele>633.8</ele>
        <time>2020-11-18T13:46:42Z</time>
      </trkpt>
      <trkpt lat="37.54344" lon="27.63213">
        <ele>633.6</ele>
        <time>2020-11-18T13:46:41Z</time>
      </trkpt>
      <trkpt lat="37.54344" lon="27.63213">
        <ele>633.6</ele>
        <time>2020-11-18T13:46:40Z</time>
      </trkpt>
      <trkpt lat="37.54344" lon="27.63213">
        <ele>633.8</ele>
        <time>2020-11-18T13:46:39Z</time>
      </trkpt>
      <trkpt lat="37.54343" lon="27.63209">
        <ele>634.2</ele>
        <time>2020-11-18T13:46:38Z</time>
      </trkpt>
      <trkpt lat="37.54343" lon="27.63209">
        <ele>634.2</ele>
        <time>2020-11-18T13:46:37Z</time>
      </trkpt>
      <trkpt lat="37.54343" lon="27.63209">
        <ele>634.4</ele>
        <time>2020-11-18T13:46:36Z</time>
      </trkpt>
      <trkpt lat="37.54343" lon="27.63209">
        <ele>634.6</ele>
        <time>2020-11-18T13:46:35Z</time>
      </trkpt>
      <trkpt lat="37.54343" lon="27.63209">
        <ele>634.6</ele>
        <time>2020-11-18T13:46:34Z</time>
      </trkpt>
      <trkpt lat="37.5434" lon="27.63207">
        <ele>634.8</ele>
        <time>2020-11-18T13:46:33Z</time>
      </trkpt>
      <trkpt lat="37.5434" lon="27.63207">
        <ele>635</ele>
        <time>2020-11-18T13:46:32Z</time>
      </trkpt>
      <trkpt lat="37.5434" lon="27.63207">
        <ele>635.4</ele>
        <time>2020-11-18T13:46:31Z</time>
      </trkpt>
      <trkpt lat="37.5434" lon="27.63207">
        <ele>635.4</ele>
        <time>2020-11-18T13:46:30Z</time>
      </trkpt>
      <trkpt lat="37.5434" lon="27.63207">
        <ele>635.8</ele>
        <time>2020-11-18T13:46:29Z</time>
      </trkpt>
      <trkpt lat="37.54341" lon="27.63205">
        <ele>635.8</ele>
        <time>2020-11-18T13:46:28Z</time>
      </trkpt>
      <trkpt lat="37.54341" lon="27.63205">
        <ele>636</ele>
        <time>2020-11-18T13:46:27Z</time>
      </trkpt>
      <trkpt lat="37.54341" lon="27.63202">
        <ele>635.8</ele>
        <time>2020-11-18T13:46:26Z</time>
      </trkpt>
      <trkpt lat="37.54341" lon="27.63202">
        <ele>635.8</ele>
        <time>2020-11-18T13:46:25Z</time>
      </trkpt>
      <trkpt lat="37.54341" lon="27.63202">
        <ele>636</ele>
        <time>2020-11-18T13:46:24Z</time>
      </trkpt>
      <trkpt lat="37.54342" lon="27.632">
        <ele>636</ele>
        <time>2020-11-18T13:46:23Z</time>
      </trkpt>
      <trkpt lat="37.54342" lon="27.632">
        <ele>636.2</ele>
        <time>2020-11-18T13:46:22Z</time>
      </trkpt>
      <trkpt lat="37.54342" lon="27.632">
        <ele>636.4</ele>
        <time>2020-11-18T13:46:21Z</time>
      </trkpt>
      <trkpt lat="37.54342" lon="27.632">
        <ele>636.8</ele>
        <time>2020-11-18T13:46:20Z</time>
      </trkpt>
      <trkpt lat="37.54342" lon="27.632">
        <ele>636.8</ele>
        <time>2020-11-18T13:46:19Z</time>
      </trkpt>
      <trkpt lat="37.54342" lon="27.632">
        <ele>636.8</ele>
        <time>2020-11-18T13:46:18Z</time>
      </trkpt>
      <trkpt lat="37.54342" lon="27.632">
        <ele>637</ele>
        <time>2020-11-18T13:46:17Z</time>
      </trkpt>
      <trkpt lat="37.54342" lon="27.63199">
        <ele>637.2</ele>
        <time>2020-11-18T13:46:16Z</time>
      </trkpt>
      <trkpt lat="37.54342" lon="27.63198">
        <ele>637.8</ele>
        <time>2020-11-18T13:46:15Z</time>
      </trkpt>
      <trkpt lat="37.54343" lon="27.63197">
        <ele>638.2</ele>
        <time>2020-11-18T13:46:14Z</time>
      </trkpt>
      <trkpt lat="37.54343" lon="27.63196">
        <ele>638.4</ele>
        <time>2020-11-18T13:46:13Z</time>
      </trkpt>
      <trkpt lat="37.54343" lon="27.63195">
        <ele>638.4</ele>
        <time>2020-11-18T13:46:12Z</time>
      </trkpt>
      <trkpt lat="37.54343" lon="27.63194">
        <ele>638.8</ele>
        <time>2020-11-18T13:46:11Z</time>
      </trkpt>
      <trkpt lat="37.54343" lon="27.63193">
        <ele>639.2</ele>
        <time>2020-11-18T13:46:10Z</time>
      </trkpt>
      <trkpt lat="37.54343" lon="27.63193">
        <ele>639.6</ele>
        <time>2020-11-18T13:46:09Z</time>
      </trkpt>
      <trkpt lat="37.54343" lon="27.63193">
        <ele>639.8</ele>
        <time>2020-11-18T13:46:08Z</time>
      </trkpt>
      <trkpt lat="37.54343" lon="27.63193">
        <ele>640</ele>
        <time>2020-11-18T13:46:07Z</time>
      </trkpt>
      <trkpt lat="37.54344" lon="27.63191">
        <ele>640.2</ele>
        <time>2020-11-18T13:46:06Z</time>
      </trkpt>
      <trkpt lat="37.54344" lon="27.63191">
        <ele>640.6</ele>
        <time>2020-11-18T13:46:05Z</time>
      </trkpt>
      <trkpt lat="37.54344" lon="27.63191">
        <ele>640.4</ele>
        <time>2020-11-18T13:46:04Z</time>
      </trkpt>
      <trkpt lat="37.54344" lon="27.63188">
        <ele>640.4</ele>
        <time>2020-11-18T13:46:03Z</time>
      </trkpt>
      <trkpt lat="37.54344" lon="27.63188">
        <ele>640.4</ele>
        <time>2020-11-18T13:46:02Z</time>
      </trkpt>
      <trkpt lat="37.54344" lon="27.63188">
        <ele>640.6</ele>
        <time>2020-11-18T13:46:01Z</time>
      </trkpt>
      <trkpt lat="37.54343" lon="27.63186">
        <ele>641</ele>
        <time>2020-11-18T13:46:00Z</time>
      </trkpt>
      <trkpt lat="37.54343" lon="27.63186">
        <ele>641.4</ele>
        <time>2020-11-18T13:45:59Z</time>
      </trkpt>
      <trkpt lat="37.54342" lon="27.63183">
        <ele>641.4</ele>
        <time>2020-11-18T13:45:58Z</time>
      </trkpt>
      <trkpt lat="37.54342" lon="27.63183">
        <ele>641.8</ele>
        <time>2020-11-18T13:45:57Z</time>
      </trkpt>
      <trkpt lat="37.54343" lon="27.63179">
        <ele>640.153</ele>
      </trkpt>
      <trkpt lat="37.54347" lon="27.63179">
        <ele>640.576</ele>
      </trkpt>
      <trkpt lat="37.5435" lon="27.63179">
        <ele>640.891</ele>
      </trkpt>
      <trkpt lat="37.54355" lon="27.63179">
        <ele>641.335</ele>
      </trkpt>
      <trkpt lat="37.54366" lon="27.6318">
        <ele>642.267</ele>
      </trkpt>
      <trkpt lat="37.54373" lon="27.63182">
        <ele>642.776</ele>
      </trkpt>
      <trkpt lat="37.54375" lon="27.63167">
        <ele>641.57</ele>
      </trkpt>
      <trkpt lat="37.54377" lon="27.63157">
        <ele>640.494</ele>
      </trkpt>
      <trkpt lat="37.54378" lon="27.63151">
        <ele>639.935</ele>
      </trkpt>
      <trkpt lat="37.54379" lon="27.63136">
        <ele>638.626</ele>
      </trkpt>
      <trkpt lat="37.54382" lon="27.63129">
        <ele>638.758</ele>
      </trkpt>
      <trkpt lat="37.54383" lon="27.63128">
        <ele>638.78</ele>
      </trkpt>
      <trkpt lat="37.54386" lon="27.63122">
        <ele>638.883</ele>
      </trkpt>
      <trkpt lat="37.54386" lon="27.63111">
        <ele>638.907</ele>
      </trkpt>
      <trkpt lat="37.54388" lon="27.63099">
        <ele>639.392</ele>
      </trkpt>
      <trkpt lat="37.54388" lon="27.63098">
        <ele>639.443</ele>
      </trkpt>
      <trkpt lat="37.54394" lon="27.63085">
        <ele>640.447</ele>
      </trkpt>
      <trkpt lat="37.54401" lon="27.63078">
        <ele>641.456</ele>
      </trkpt>
      <trkpt lat="37.54403" lon="27.63073">
        <ele>641.863</ele>
      </trkpt>
      <trkpt lat="37.54405" lon="27.63066">
        <ele>642.329</ele>
      </trkpt>
      <trkpt lat="37.54405" lon="27.63064">
        <ele>642.478</ele>
      </trkpt>
      <trkpt lat="37.54408" lon="27.63059">
        <ele>642.88</ele>
      </trkpt>
      <trkpt lat="37.54415" lon="27.63046">
        <ele>644.21</ele>
      </trkpt>
      <trkpt lat="37.54416" lon="27.63042">
        <ele>644.441</ele>
      </trkpt>
      <trkpt lat="37.54425" lon="27.63032">
        <ele>645.758</ele>
      </trkpt>
      <trkpt lat="37.54433" lon="27.63017">
        <ele>647.888</ele>
      </trkpt>
      <trkpt lat="37.54433" lon="27.63016">
        <ele>648.091</ele>
      </trkpt>
      <trkpt lat="37.54437" lon="27.63002">
        <ele>649.938</ele>
      </trkpt>
      <trkpt lat="37.54439" lon="27.6299">
        <ele>650.939</ele>
      </trkpt>
      <trkpt lat="37.54444" lon="27.62972">
        <ele>651.967</ele>
      </trkpt>
      <trkpt lat="37.54449" lon="27.62961">
        <ele>652.293</ele>
      </trkpt>
      <trkpt lat="37.54455" lon="27.62956">
        <ele>652.784</ele>
      </trkpt>
      <trkpt lat="37.54459" lon="27.62952">
        <ele>653.059</ele>
      </trkpt>
      <trkpt lat="37.54465" lon="27.62941">
        <ele>653.296</ele>
      </trkpt>
      <trkpt lat="37.54473" lon="27.62928">
        <ele>653.045</ele>
      </trkpt>
      <trkpt lat="37.54477" lon="27.62915">
        <ele>652.944</ele>
      </trkpt>
      <trkpt lat="37.54477" lon="27.62903">
        <ele>653.782</ele>
      </trkpt>
      <trkpt lat="37.54482" lon="27.62882">
        <ele>655.695</ele>
      </trkpt>
      <trkpt lat="37.54484" lon="27.6287">
        <ele>656.484</ele>
      </trkpt>
      <trkpt lat="37.54485" lon="27.62855">
        <ele>657.675</ele>
      </trkpt>
      <trkpt lat="37.54485" lon="27.6285">
        <ele>658.136</ele>
      </trkpt>
      <trkpt lat="37.54487" lon="27.62842">
        <ele>659.1</ele>
      </trkpt>
      <trkpt lat="37.54489" lon="27.62832">
        <ele>660.069</ele>
      </trkpt>
      <trkpt lat="37.5449" lon="27.62824">
        <ele>660.4</ele>
      </trkpt>
      <trkpt lat="37.54491" lon="27.62813">
        <ele>660.735</ele>
      </trkpt>
      <trkpt lat="37.54493" lon="27.62805">
        <ele>660.677</ele>
      </trkpt>
      <trkpt lat="37.54494" lon="27.62795">
        <ele>660.152</ele>
      </trkpt>
      <trkpt lat="37.54503" lon="27.62795">
        <ele>659.769</ele>
      </trkpt>
      <trkpt lat="37.54504" lon="27.62796">
        <ele>659.922</ele>
      </trkpt>
      <trkpt lat="37.54513" lon="27.62785">
        <ele>659.827</ele>
      </trkpt>
      <trkpt lat="37.5452" lon="27.62767">
        <ele>658.5</ele>
      </trkpt>
      <trkpt lat="37.5452" lon="27.6275">
        <ele>656.696</ele>
      </trkpt>
      <trkpt lat="37.54521" lon="27.62744">
        <ele>656.375</ele>
      </trkpt>
      <trkpt lat="37.54524" lon="27.62745">
        <ele>656.495</ele>
      </trkpt>
      <trkpt lat="37.54525" lon="27.62748">
        <ele>656.752</ele>
      </trkpt>
      <trkpt lat="37.54524" lon="27.6274">
        <ele>656.176</ele>
      </trkpt>
      <trkpt lat="37.54528" lon="27.62722">
        <ele>655.073</ele>
      </trkpt>
      <trkpt lat="37.54528" lon="27.62721">
        <ele>655.159</ele>
      </trkpt>
      <trkpt lat="37.54529" lon="27.62712">
        <ele>655.856</ele>
      </trkpt>
      <trkpt lat="37.54533" lon="27.627">
        <ele>657.375</ele>
      </trkpt>
      <trkpt lat="37.54536" lon="27.62687">
        <ele>658.512</ele>
      </trkpt>
      <trkpt lat="37.54537" lon="27.6268">
        <ele>658.962</ele>
      </trkpt>
      <trkpt lat="37.54535" lon="27.62674">
        <ele>658.878</ele>
      </trkpt>
      <trkpt lat="37.54534" lon="27.62673">
        <ele>658.836</ele>
      </trkpt>
      <trkpt lat="37.54534" lon="27.62671">
        <ele>658.868</ele>
      </trkpt>
      <trkpt lat="37.54536" lon="27.62652">
        <ele>660.245</ele>
      </trkpt>
      <trkpt lat="37.54538" lon="27.62645">
        <ele>660.779</ele>
      </trkpt>
      <trkpt lat="37.5454" lon="27.62629">
        <ele>661.606</ele>
      </trkpt>
      <trkpt lat="37.54542" lon="27.62622">
        <ele>662.077</ele>
      </trkpt>
      <trkpt lat="37.5454" lon="27.62616">
        <ele>662.074</ele>
      </trkpt>
      <trkpt lat="37.54541" lon="27.62612">
        <ele>662.347</ele>
      </trkpt>
      <trkpt lat="37.54543" lon="27.62603">
        <ele>663.562</ele>
      </trkpt>
      <trkpt lat="37.54549" lon="27.62602">
        <ele>664.757</ele>
      </trkpt>
      <trkpt lat="37.54549" lon="27.62595">
        <ele>665.577</ele>
      </trkpt>
      <trkpt lat="37.54548" lon="27.62584">
        <ele>666.525</ele>
      </trkpt>
      <trkpt lat="37.54547" lon="27.62579">
        <ele>666.827</ele>
      </trkpt>
      <trkpt lat="37.54547" lon="27.62579">
        <ele>666.833</ele>
      </trkpt>
      <trkpt lat="37.5455" lon="27.62567">
        <ele>668.286</ele>
      </trkpt>
      <trkpt lat="37.54554" lon="27.62561">
        <ele>669.36</ele>
      </trkpt>
      <trkpt lat="37.54558" lon="27.62548">
        <ele>670.239</ele>
      </trkpt>
      <trkpt lat="37.5456" lon="27.62535">
        <ele>670.525</ele>
      </trkpt>
      <trkpt lat="37.54564" lon="27.62529">
        <ele>670.915</ele>
      </trkpt>
      <trkpt lat="37.54566" lon="27.62519">
        <ele>670.68</ele>
      </trkpt>
      <trkpt lat="37.54567" lon="27.62506">
        <ele>670.278</ele>
      </trkpt>
      <trkpt lat="37.54568" lon="27.62493">
        <ele>670.182</ele>
      </trkpt>
      <trkpt lat="37.54571" lon="27.6249">
        <ele>670.602</ele>
      </trkpt>
      <trkpt lat="37.54575" lon="27.62484">
        <ele>671.078</ele>
      </trkpt>
      <trkpt lat="37.54579" lon="27.62473">
        <ele>671.351</ele>
      </trkpt>
      <trkpt lat="37.54579" lon="27.6247">
        <ele>671.323</ele>
      </trkpt>
      <trkpt lat="37.5458" lon="27.62469">
        <ele>671.515</ele>
      </trkpt>
      <trkpt lat="37.54583" lon="27.6246">
        <ele>671.891</ele>
      </trkpt>
      <trkpt lat="37.54591" lon="27.62447">
        <ele>673.319</ele>
      </trkpt>
      <trkpt lat="37.54594" lon="27.62443">
        <ele>673.982</ele>
      </trkpt>
      <trkpt lat="37.54592" lon="27.62436">
        <ele>673.941</ele>
      </trkpt>
      <trkpt lat="37.54592" lon="27.62426">
        <ele>674.485</ele>
      </trkpt>
      <trkpt lat="37.54587" lon="27.62417">
        <ele>674.43</ele>
      </trkpt>
      <trkpt lat="37.54592" lon="27.62409">
        <ele>674.884</ele>
      </trkpt>
      <trkpt lat="37.54597" lon="27.62398">
        <ele>675.181</ele>
      </trkpt>
      <trkpt lat="37.54603" lon="27.62386">
        <ele>675.25</ele>
      </trkpt>
      <trkpt lat="37.54601" lon="27.62377">
        <ele>674.716</ele>
      </trkpt>
      <trkpt lat="37.546" lon="27.62369">
        <ele>674.173</ele>
      </trkpt>
      <trkpt lat="37.546" lon="27.62361">
        <ele>673.853</ele>
      </trkpt>
      <trkpt lat="37.54602" lon="27.62358">
        <ele>673.966</ele>
      </trkpt>
      <trkpt lat="37.54602" lon="27.62356">
        <ele>673.899</ele>
      </trkpt>
      <trkpt lat="37.54603" lon="27.62354">
        <ele>673.898</ele>
      </trkpt>
      <trkpt lat="37.54601" lon="27.62351">
        <ele>673.697</ele>
      </trkpt>
      <trkpt lat="37.54601" lon="27.62351">
        <ele>673.679</ele>
      </trkpt>
      <trkpt lat="37.54599" lon="27.62322">
        <ele>673.565</ele>
      </trkpt>
      <trkpt lat="37.54596" lon="27.62315">
        <ele>673.591</ele>
      </trkpt>
      <trkpt lat="37.54599" lon="27.62308">
        <ele>675.6</ele>
      </trkpt>
      <trkpt lat="37.54597" lon="27.62309">
        <ele>675.3</ele>
      </trkpt>
      <trkpt lat="37.54595" lon="27.62308">
        <ele>675.1</ele>
      </trkpt>
      <trkpt lat="37.54594" lon="27.62307">
        <ele>675</ele>
      </trkpt>
      <trkpt lat="37.54593" lon="27.62306">
        <ele>674.9</ele>
      </trkpt>
      <trkpt lat="37.54591" lon="27.62305">
        <ele>674.7</ele>
      </trkpt>
      <trkpt lat="37.5459" lon="27.62304">
        <ele>674.6</ele>
      </trkpt>
      <trkpt lat="37.54588" lon="27.62303">
        <ele>674.4</ele>
      </trkpt>
      <trkpt lat="37.54587" lon="27.62303">
        <ele>674.2</ele>
      </trkpt>
      <trkpt lat="37.54585" lon="27.62303">
        <ele>674</ele>
      </trkpt>
      <trkpt lat="37.54584" lon="27.62302">
        <ele>673.8</ele>
      </trkpt>
      <trkpt lat="37.54582" lon="27.62302">
        <ele>673.8</ele>
      </trkpt>
      <trkpt lat="37.5458" lon="27.62301">
        <ele>673.9</ele>
      </trkpt>
      <trkpt lat="37.54579" lon="27.62301">
        <ele>674</ele>
      </trkpt>
      <trkpt lat="37.54577" lon="27.623">
        <ele>674.1</ele>
      </trkpt>
      <trkpt lat="37.54575" lon="27.623">
        <ele>674.2</ele>
      </trkpt>
      <trkpt lat="37.54573" lon="27.623">
        <ele>674.3</ele>
      </trkpt>
      <trkpt lat="37.54571" lon="27.623">
        <ele>674.4</ele>
      </trkpt>
      <trkpt lat="37.54569" lon="27.623">
        <ele>674.5</ele>
      </trkpt>
      <trkpt lat="37.54567" lon="27.623">
        <ele>674.6</ele>
      </trkpt>
      <trkpt lat="37.54565" lon="27.62301">
        <ele>674.7</ele>
      </trkpt>
      <trkpt lat="37.54563" lon="27.62301">
        <ele>674.8</ele>
      </trkpt>
      <trkpt lat="37.54561" lon="27.62301">
        <ele>674.9</ele>
      </trkpt>
      <trkpt lat="37.5456" lon="27.62301">
        <ele>675</ele>
      </trkpt>
      <trkpt lat="37.54558" lon="27.62301">
        <ele>675.1</ele>
      </trkpt>
      <trkpt lat="37.54556" lon="27.62301">
        <ele>675.2</ele>
      </trkpt>
      <trkpt lat="37.54554" lon="27.62301">
        <ele>675.3</ele>
      </trkpt>
      <trkpt lat="37.54552" lon="27.62302">
        <ele>675.3</ele>
      </trkpt>
      <trkpt lat="37.54551" lon="27.62302">
        <ele>675.4</ele>
      </trkpt>
      <trkpt lat="37.54549" lon="27.62303">
        <ele>675.5</ele>
      </trkpt>
      <trkpt lat="37.54548" lon="27.62303">
        <ele>675.6</ele>
      </trkpt>
      <trkpt lat="37.54546" lon="27.62304">
        <ele>675.6</ele>
      </trkpt>
      <trkpt lat="37.54544" lon="27.62304">
        <ele>675.7</ele>
      </trkpt>
      <trkpt lat="37.54542" lon="27.62304">
        <ele>675.8</ele>
      </trkpt>
      <trkpt lat="37.5454" lon="27.62304">
        <ele>675.9</ele>
      </trkpt>
      <trkpt lat="37.54538" lon="27.62304">
        <ele>676</ele>
      </trkpt>
      <trkpt lat="37.54537" lon="27.62304">
        <ele>676.1</ele>
      </trkpt>
      <trkpt lat="37.54535" lon="27.62304">
        <ele>676.2</ele>
      </trkpt>
      <trkpt lat="37.54532" lon="27.62304">
        <ele>676.3</ele>
      </trkpt>
      <trkpt lat="37.5453" lon="27.62304">
        <ele>676.4</ele>
      </trkpt>
      <trkpt lat="37.54529" lon="27.62304">
        <ele>676.5</ele>
      </trkpt>
      <trkpt lat="37.54527" lon="27.62304">
        <ele>676.6</ele>
      </trkpt>
      <trkpt lat="37.54524" lon="27.62303">
        <ele>676.8</ele>
      </trkpt>
      <trkpt lat="37.54522" lon="27.62303">
        <ele>676.9</ele>
      </trkpt>
      <trkpt lat="37.5452" lon="27.62303">
        <ele>677</ele>
      </trkpt>
      <trkpt lat="37.54518" lon="27.62302">
        <ele>677.1</ele>
      </trkpt>
      <trkpt lat="37.54517" lon="27.62302">
        <ele>677.2</ele>
        <time>2020-12-13T07:06:23Z</time>
      </trkpt>
      <trkpt lat="37.54514" lon="27.62301">
        <ele>667.4</ele>
        <time>2020-12-02T12:49:25Z</time>
      </trkpt>
      <trkpt lat="37.54511" lon="27.62298">
        <ele>667.6</ele>
        <time>2020-12-02T12:49:24Z</time>
      </trkpt>
      <trkpt lat="37.54511" lon="27.62298">
        <ele>667.8</ele>
        <time>2020-12-02T12:49:23Z</time>
      </trkpt>
      <trkpt lat="37.54508" lon="27.62296">
        <ele>667.8</ele>
        <time>2020-12-02T12:49:22Z</time>
      </trkpt>
      <trkpt lat="37.54508" lon="27.62296">
        <ele>668</ele>
        <time>2020-12-02T12:49:21Z</time>
      </trkpt>
      <trkpt lat="37.54507" lon="27.62292">
        <ele>668</ele>
        <time>2020-12-02T12:49:20Z</time>
      </trkpt>
      <trkpt lat="37.54507" lon="27.62292">
        <ele>668</ele>
        <time>2020-12-02T12:49:19Z</time>
      </trkpt>
      <trkpt lat="37.54505" lon="27.6229">
        <ele>668.2</ele>
        <time>2020-12-02T12:49:18Z</time>
      </trkpt>
      <trkpt lat="37.54505" lon="27.6229">
        <ele>668.2</ele>
        <time>2020-12-02T12:49:17Z</time>
      </trkpt>
      <trkpt lat="37.54503" lon="27.62286">
        <ele>668.2</ele>
        <time>2020-12-02T12:49:16Z</time>
      </trkpt>
      <trkpt lat="37.54503" lon="27.62286">
        <ele>668.4</ele>
        <time>2020-12-02T12:49:15Z</time>
      </trkpt>
      <trkpt lat="37.54503" lon="27.62286">
        <ele>668.4</ele>
        <time>2020-12-02T12:49:14Z</time>
      </trkpt>
      <trkpt lat="37.545" lon="27.62283">
        <ele>668.6</ele>
        <time>2020-12-02T12:49:13Z</time>
      </trkpt>
      <trkpt lat="37.545" lon="27.62283">
        <ele>668.6</ele>
        <time>2020-12-02T12:49:12Z</time>
      </trkpt>
      <trkpt lat="37.54499" lon="27.62282">
        <ele>668.6</ele>
        <time>2020-12-02T12:49:11Z</time>
      </trkpt>
      <trkpt lat="37.54499" lon="27.62282">
        <ele>668.8</ele>
        <time>2020-12-02T12:49:10Z</time>
      </trkpt>
      <trkpt lat="37.54496" lon="27.62279">
        <ele>668.8</ele>
        <time>2020-12-02T12:49:09Z</time>
      </trkpt>
      <trkpt lat="37.54496" lon="27.62279">
        <ele>668.8</ele>
        <time>2020-12-02T12:49:08Z</time>
      </trkpt>
      <trkpt lat="37.54496" lon="27.62279">
        <ele>668.8</ele>
        <time>2020-12-02T12:49:07Z</time>
      </trkpt>
      <trkpt lat="37.54495" lon="27.62278">
        <ele>669</ele>
        <time>2020-12-02T12:49:06Z</time>
      </trkpt>
      <trkpt lat="37.54494" lon="27.62278">
        <ele>669.2</ele>
        <time>2020-12-02T12:49:05Z</time>
      </trkpt>
      <trkpt lat="37.54494" lon="27.62278">
        <ele>669.2</ele>
        <time>2020-12-02T12:49:04Z</time>
      </trkpt>
      <trkpt lat="37.54493" lon="27.62278">
        <ele>669</ele>
        <time>2020-12-02T12:49:03Z</time>
      </trkpt>
      <trkpt lat="37.54492" lon="27.62278">
        <ele>669.2</ele>
        <time>2020-12-02T12:49:02Z</time>
      </trkpt>
      <trkpt lat="37.54492" lon="27.62278">
        <ele>669.2</ele>
        <time>2020-12-02T12:49:01Z</time>
      </trkpt>
      <trkpt lat="37.54491" lon="27.62277">
        <ele>669.2</ele>
        <time>2020-12-02T12:49:00Z</time>
      </trkpt>
      <trkpt lat="37.5449" lon="27.62277">
        <ele>669</ele>
        <time>2020-12-02T12:48:59Z</time>
      </trkpt>
      <trkpt lat="37.5449" lon="27.62277">
        <ele>669</ele>
        <time>2020-12-02T12:48:58Z</time>
      </trkpt>
      <trkpt lat="37.54489" lon="27.62277">
        <ele>669.2</ele>
        <time>2020-12-02T12:48:57Z</time>
      </trkpt>
      <trkpt lat="37.54488" lon="27.62277">
        <ele>669</ele>
        <time>2020-12-02T12:48:56Z</time>
      </trkpt>
      <trkpt lat="37.54488" lon="27.62277">
        <ele>669</ele>
        <time>2020-12-02T12:48:55Z</time>
      </trkpt>
      <trkpt lat="37.54487" lon="27.62276">
        <ele>669</ele>
        <time>2020-12-02T12:48:54Z</time>
      </trkpt>
      <trkpt lat="37.54486" lon="27.62276">
        <ele>669</ele>
        <time>2020-12-02T12:48:53Z</time>
      </trkpt>
      <trkpt lat="37.54486" lon="27.62276">
        <ele>669</ele>
        <time>2020-12-02T12:48:52Z</time>
      </trkpt>
      <trkpt lat="37.54486" lon="27.62276">
        <ele>669.2</ele>
        <time>2020-12-02T12:48:51Z</time>
      </trkpt>
      <trkpt lat="37.54484" lon="27.62274">
        <ele>669</ele>
        <time>2020-12-02T12:48:50Z</time>
      </trkpt>
      <trkpt lat="37.54484" lon="27.62274">
        <ele>669.2</ele>
        <time>2020-12-02T12:48:49Z</time>
      </trkpt>
      <trkpt lat="37.54484" lon="27.62274">
        <ele>669.4</ele>
        <time>2020-12-02T12:48:48Z</time>
      </trkpt>
      <trkpt lat="37.54483" lon="27.62271">
        <ele>669.4</ele>
        <time>2020-12-02T12:48:47Z</time>
      </trkpt>
      <trkpt lat="37.54483" lon="27.62271">
        <ele>669.6</ele>
        <time>2020-12-02T12:48:46Z</time>
      </trkpt>
      <trkpt lat="37.54481" lon="27.62269">
        <ele>669.8</ele>
        <time>2020-12-02T12:48:45Z</time>
      </trkpt>
      <trkpt lat="37.54481" lon="27.62269">
        <ele>669.8</ele>
        <time>2020-12-02T12:48:44Z</time>
      </trkpt>
      <trkpt lat="37.54481" lon="27.62269">
        <ele>670</ele>
        <time>2020-12-02T12:48:43Z</time>
      </trkpt>
      <trkpt lat="37.54479" lon="27.62271">
        <ele>670.2</ele>
        <time>2020-12-02T12:48:42Z</time>
      </trkpt>
      <trkpt lat="37.54479" lon="27.62271">
        <ele>670.2</ele>
        <time>2020-12-02T12:48:41Z</time>
      </trkpt>
      <trkpt lat="37.54479" lon="27.62271">
        <ele>670.4</ele>
        <time>2020-12-02T12:48:40Z</time>
      </trkpt>
      <trkpt lat="37.54476" lon="27.62271">
        <ele>670.4</ele>
        <time>2020-12-02T12:48:39Z</time>
      </trkpt>
      <trkpt lat="37.54476" lon="27.62271">
        <ele>670.6</ele>
        <time>2020-12-02T12:48:38Z</time>
      </trkpt>
      <trkpt lat="37.54475" lon="27.62271">
        <ele>670.6</ele>
        <time>2020-12-02T12:48:37Z</time>
      </trkpt>
      <trkpt lat="37.54475" lon="27.62271">
        <ele>670.8</ele>
        <time>2020-12-02T12:48:36Z</time>
      </trkpt>
      <trkpt lat="37.54474" lon="27.62269">
        <ele>670.8</ele>
        <time>2020-12-02T12:48:35Z</time>
      </trkpt>
      <trkpt lat="37.54474" lon="27.62269">
        <ele>671</ele>
        <time>2020-12-02T12:48:34Z</time>
      </trkpt>
      <trkpt lat="37.54473" lon="27.62266">
        <ele>671.2</ele>
        <time>2020-12-02T12:48:33Z</time>
      </trkpt>
      <trkpt lat="37.54473" lon="27.62266">
        <ele>671.2</ele>
        <time>2020-12-02T12:48:32Z</time>
      </trkpt>
      <trkpt lat="37.54471" lon="27.62264">
        <ele>671</ele>
        <time>2020-12-02T12:48:31Z</time>
      </trkpt>
      <trkpt lat="37.54471" lon="27.62264">
        <ele>671.2</ele>
        <time>2020-12-02T12:48:30Z</time>
      </trkpt>
      <trkpt lat="37.54472" lon="27.62263">
        <ele>670.2</ele>
        <time>2020-12-02T11:46:23Z</time>
      </trkpt>
      <trkpt lat="37.54472" lon="27.62262">
        <ele>670.2</ele>
        <time>2020-12-02T11:46:22Z</time>
      </trkpt>
      <trkpt lat="37.54471" lon="27.62264">
        <ele>671.2</ele>
        <time>2020-12-02T12:48:30Z</time>
      </trkpt>
      <trkpt lat="37.54469" lon="27.62262">
        <ele>671.4</ele>
        <time>2020-12-02T12:48:29Z</time>
      </trkpt>
      <trkpt lat="37.54469" lon="27.62262">
        <ele>671.4</ele>
        <time>2020-12-02T12:48:28Z</time>
      </trkpt>
      <trkpt lat="37.54468" lon="27.6226">
        <ele>671.6</ele>
        <time>2020-12-02T12:48:27Z</time>
      </trkpt>
      <trkpt lat="37.54468" lon="27.6226">
        <ele>671.8</ele>
        <time>2020-12-02T12:48:26Z</time>
      </trkpt>
      <trkpt lat="37.54467" lon="27.62257">
        <ele>671.8</ele>
        <time>2020-12-02T12:48:25Z</time>
      </trkpt>
      <trkpt lat="37.54466" lon="27.62255">
        <ele>671.8</ele>
        <time>2020-12-02T12:48:24Z</time>
      </trkpt>
      <trkpt lat="37.54465" lon="27.62253">
        <ele>672</ele>
        <time>2020-12-02T12:48:23Z</time>
      </trkpt>
      <trkpt lat="37.54464" lon="27.62252">
        <ele>672</ele>
        <time>2020-12-02T12:48:22Z</time>
      </trkpt>
      <trkpt lat="37.54463" lon="27.6225">
        <ele>672.2</ele>
        <time>2020-12-02T12:48:21Z</time>
      </trkpt>
      <trkpt lat="37.54463" lon="27.6225">
        <ele>672.2</ele>
        <time>2020-12-02T12:48:20Z</time>
      </trkpt>
      <trkpt lat="37.54461" lon="27.62248">
        <ele>672.2</ele>
        <time>2020-12-02T12:48:19Z</time>
      </trkpt>
      <trkpt lat="37.54461" lon="27.62248">
        <ele>672</ele>
        <time>2020-12-02T12:48:18Z</time>
      </trkpt>
      <trkpt lat="37.54461" lon="27.62248">
        <ele>672</ele>
        <time>2020-12-02T12:48:17Z</time>
      </trkpt>
      <trkpt lat="37.54459" lon="27.62248">
        <ele>672</ele>
        <time>2020-12-02T12:48:16Z</time>
      </trkpt>
      <trkpt lat="37.54459" lon="27.62248">
        <ele>672</ele>
        <time>2020-12-02T12:48:15Z</time>
      </trkpt>
      <trkpt lat="37.54459" lon="27.62248">
        <ele>672</ele>
        <time>2020-12-02T12:48:14Z</time>
      </trkpt>
      <trkpt lat="37.54456" lon="27.62249">
        <ele>672</ele>
        <time>2020-12-02T12:48:13Z</time>
      </trkpt>
      <trkpt lat="37.54456" lon="27.62249">
        <ele>672</ele>
        <time>2020-12-02T12:48:12Z</time>
      </trkpt>
      <trkpt lat="37.54456" lon="27.62249">
        <ele>672</ele>
        <time>2020-12-02T12:48:11Z</time>
      </trkpt>
      <trkpt lat="37.54456" lon="27.62249">
        <ele>672</ele>
        <time>2020-12-02T12:48:10Z</time>
      </trkpt>
      <trkpt lat="37.54456" lon="27.62249">
        <ele>672</ele>
        <time>2020-12-02T12:48:09Z</time>
      </trkpt>
      <trkpt lat="37.54456" lon="27.62249">
        <ele>671.8</ele>
        <time>2020-12-02T12:48:08Z</time>
      </trkpt>
      <trkpt lat="37.54456" lon="27.62249">
        <ele>671.8</ele>
        <time>2020-12-02T12:48:07Z</time>
      </trkpt>
      <trkpt lat="37.54456" lon="27.62249">
        <ele>671.8</ele>
        <time>2020-12-02T12:48:06Z</time>
      </trkpt>
      <trkpt lat="37.54456" lon="27.62249">
        <ele>671.8</ele>
        <time>2020-12-02T12:48:05Z</time>
      </trkpt>
      <trkpt lat="37.54456" lon="27.62249">
        <ele>671.8</ele>
        <time>2020-12-02T12:48:04Z</time>
      </trkpt>
      <trkpt lat="37.54456" lon="27.62249">
        <ele>671.8</ele>
        <time>2020-12-02T12:48:03Z</time>
      </trkpt>
      <trkpt lat="37.54456" lon="27.62249">
        <ele>672</ele>
        <time>2020-12-02T12:48:02Z</time>
      </trkpt>
      <trkpt lat="37.54456" lon="27.62249">
        <ele>671.8</ele>
        <time>2020-12-02T12:48:01Z</time>
      </trkpt>
      <trkpt lat="37.54456" lon="27.62249">
        <ele>672</ele>
        <time>2020-12-02T12:48:00Z</time>
      </trkpt>
      <trkpt lat="37.54456" lon="27.62249">
        <ele>672</ele>
        <time>2020-12-02T12:47:59Z</time>
      </trkpt>
      <trkpt lat="37.54454" lon="27.62249">
        <ele>672</ele>
        <time>2020-12-02T12:47:58Z</time>
      </trkpt>
      <trkpt lat="37.54454" lon="27.62249">
        <ele>672</ele>
        <time>2020-12-02T12:47:57Z</time>
      </trkpt>
      <trkpt lat="37.54454" lon="27.62249">
        <ele>672.2</ele>
        <time>2020-12-02T12:47:56Z</time>
      </trkpt>
      <trkpt lat="37.54452" lon="27.62248">
        <ele>672.2</ele>
        <time>2020-12-02T12:47:55Z</time>
      </trkpt>
      <trkpt lat="37.54452" lon="27.62248">
        <ele>672.4</ele>
        <time>2020-12-02T12:47:54Z</time>
      </trkpt>
      <trkpt lat="37.5445" lon="27.62247">
        <ele>672.6</ele>
        <time>2020-12-02T12:47:53Z</time>
      </trkpt>
      <trkpt lat="37.5445" lon="27.62247">
        <ele>672.6</ele>
        <time>2020-12-02T12:47:52Z</time>
      </trkpt>
      <trkpt lat="37.54448" lon="27.62245">
        <ele>672.8</ele>
        <time>2020-12-02T12:47:51Z</time>
      </trkpt>
      <trkpt lat="37.54448" lon="27.62245">
        <ele>673</ele>
        <time>2020-12-02T12:47:50Z</time>
      </trkpt>
      <trkpt lat="37.54448" lon="27.62245">
        <ele>673</ele>
        <time>2020-12-02T12:47:49Z</time>
      </trkpt>
      <trkpt lat="37.54447" lon="27.62243">
        <ele>673.2</ele>
        <time>2020-12-02T12:47:48Z</time>
      </trkpt>
      <trkpt lat="37.54447" lon="27.62243">
        <ele>673.4</ele>
        <time>2020-12-02T12:47:47Z</time>
      </trkpt>
      <trkpt lat="37.54447" lon="27.62243">
        <ele>673.4</ele>
        <time>2020-12-02T12:47:46Z</time>
      </trkpt>
      <trkpt lat="37.54446" lon="27.6224">
        <ele>673.6</ele>
        <time>2020-12-02T12:47:45Z</time>
      </trkpt>
      <trkpt lat="37.54446" lon="27.6224">
        <ele>673.8</ele>
        <time>2020-12-02T12:47:44Z</time>
      </trkpt>
      <trkpt lat="37.54446" lon="27.6224">
        <ele>674</ele>
        <time>2020-12-02T12:47:43Z</time>
      </trkpt>
      <trkpt lat="37.54444" lon="27.62238">
        <ele>674</ele>
        <time>2020-12-02T12:47:42Z</time>
      </trkpt>
      <trkpt lat="37.54444" lon="27.62238">
        <ele>674</ele>
        <time>2020-12-02T12:47:41Z</time>
      </trkpt>
      <trkpt lat="37.54444" lon="27.62238">
        <ele>674</ele>
        <time>2020-12-02T12:47:40Z</time>
      </trkpt>
      <trkpt lat="37.54443" lon="27.62236">
        <ele>674</ele>
        <time>2020-12-02T12:47:39Z</time>
      </trkpt>
      <trkpt lat="37.54443" lon="27.62236">
        <ele>674.2</ele>
        <time>2020-12-02T12:47:38Z</time>
      </trkpt>
      <trkpt lat="37.54441" lon="27.62235">
        <ele>674.2</ele>
        <time>2020-12-02T12:47:37Z</time>
      </trkpt>
      <trkpt lat="37.54441" lon="27.62235">
        <ele>674.4</ele>
        <time>2020-12-02T12:47:36Z</time>
      </trkpt>
      <trkpt lat="37.54439" lon="27.62232">
        <ele>674.6</ele>
        <time>2020-12-02T12:47:35Z</time>
      </trkpt>
      <trkpt lat="37.54439" lon="27.62232">
        <ele>674.6</ele>
        <time>2020-12-02T12:47:34Z</time>
      </trkpt>
      <trkpt lat="37.54439" lon="27.62232">
        <ele>674.8</ele>
        <time>2020-12-02T12:47:33Z</time>
      </trkpt>
      <trkpt lat="37.54437" lon="27.62231">
        <ele>675</ele>
        <time>2020-12-02T12:47:32Z</time>
      </trkpt>
      <trkpt lat="37.54437" lon="27.62231">
        <ele>675.2</ele>
        <time>2020-12-02T12:47:31Z</time>
      </trkpt>
      <trkpt lat="37.54436" lon="27.6223">
        <ele>675.2</ele>
        <time>2020-12-02T12:47:30Z</time>
      </trkpt>
      <trkpt lat="37.54436" lon="27.6223">
        <ele>675</ele>
        <time>2020-12-02T12:47:29Z</time>
      </trkpt>
      <trkpt lat="37.54436" lon="27.6223">
        <ele>675.2</ele>
        <time>2020-12-02T12:47:28Z</time>
      </trkpt>
      <trkpt lat="37.54435" lon="27.62229">
        <ele>675.2</ele>
        <time>2020-12-02T12:47:27Z</time>
      </trkpt>
      <trkpt lat="37.54435" lon="27.62229">
        <ele>675.2</ele>
        <time>2020-12-02T12:47:26Z</time>
      </trkpt>
      <trkpt lat="37.54435" lon="27.62229">
        <ele>675.2</ele>
        <time>2020-12-02T12:47:25Z</time>
      </trkpt>
      <trkpt lat="37.54434" lon="27.62229">
        <ele>675</ele>
        <time>2020-12-02T12:47:24Z</time>
      </trkpt>
      <trkpt lat="37.54434" lon="27.62228">
        <ele>674.8</ele>
        <time>2020-12-02T12:47:23Z</time>
      </trkpt>
      <trkpt lat="37.54433" lon="27.62228">
        <ele>674.8</ele>
        <time>2020-12-02T12:47:22Z</time>
      </trkpt>
      <trkpt lat="37.54433" lon="27.62228">
        <ele>674.6</ele>
        <time>2020-12-02T12:47:21Z</time>
      </trkpt>
      <trkpt lat="37.54433" lon="27.62227">
        <ele>674.4</ele>
        <time>2020-12-02T12:47:20Z</time>
      </trkpt>
      <trkpt lat="37.54432" lon="27.62227">
        <ele>674.4</ele>
        <time>2020-12-02T12:47:19Z</time>
      </trkpt>
      <trkpt lat="37.54432" lon="27.62227">
        <ele>674.4</ele>
        <time>2020-12-02T12:47:18Z</time>
      </trkpt>
      <trkpt lat="37.54432" lon="27.62227">
        <ele>674.2</ele>
        <time>2020-12-02T12:47:17Z</time>
      </trkpt>
      <trkpt lat="37.54431" lon="27.62228">
        <ele>674</ele>
        <time>2020-12-02T12:47:16Z</time>
      </trkpt>
      <trkpt lat="37.54431" lon="27.62229">
        <ele>673.8</ele>
        <time>2020-12-02T12:47:15Z</time>
      </trkpt>
      <trkpt lat="37.54431" lon="27.6223">
        <ele>673.6</ele>
        <time>2020-12-02T12:47:14Z</time>
      </trkpt>
      <trkpt lat="37.54431" lon="27.6223">
        <ele>673.6</ele>
        <time>2020-12-02T12:47:13Z</time>
      </trkpt>
      <trkpt lat="37.54431" lon="27.62231">
        <ele>673.8</ele>
        <time>2020-12-02T12:47:12Z</time>
      </trkpt>
      <trkpt lat="37.54431" lon="27.62232">
        <ele>673.8</ele>
        <time>2020-12-02T12:47:11Z</time>
      </trkpt>
      <trkpt lat="37.5443" lon="27.62233">
        <ele>673.6</ele>
        <time>2020-12-02T12:47:10Z</time>
      </trkpt>
      <trkpt lat="37.5443" lon="27.62233">
        <ele>673.8</ele>
        <time>2020-12-02T12:47:09Z</time>
      </trkpt>
      <trkpt lat="37.5443" lon="27.62234">
        <ele>673.8</ele>
        <time>2020-12-02T12:47:08Z</time>
      </trkpt>
      <trkpt lat="37.5443" lon="27.62235">
        <ele>674</ele>
        <time>2020-12-02T12:47:07Z</time>
      </trkpt>
      <trkpt lat="37.5443" lon="27.62235">
        <ele>674</ele>
        <time>2020-12-02T12:47:06Z</time>
      </trkpt>
      <trkpt lat="37.5443" lon="27.62236">
        <ele>674.2</ele>
        <time>2020-12-02T12:47:05Z</time>
      </trkpt>
      <trkpt lat="37.54429" lon="27.62237">
        <ele>674.2</ele>
        <time>2020-12-02T12:47:04Z</time>
      </trkpt>
      <trkpt lat="37.54429" lon="27.62238">
        <ele>674.4</ele>
        <time>2020-12-02T12:47:03Z</time>
      </trkpt>
      <trkpt lat="37.54429" lon="27.62238">
        <ele>674.6</ele>
        <time>2020-12-02T12:47:02Z</time>
      </trkpt>
      <trkpt lat="37.54428" lon="27.62239">
        <ele>675</ele>
        <time>2020-12-02T12:47:01Z</time>
      </trkpt>
      <trkpt lat="37.54428" lon="27.62239">
        <ele>675.2</ele>
        <time>2020-12-02T12:47:00Z</time>
      </trkpt>
      <trkpt lat="37.54428" lon="27.62239">
        <ele>675.4</ele>
        <time>2020-12-02T12:46:59Z</time>
      </trkpt>
      <trkpt lat="37.54425" lon="27.62239">
        <ele>675.6</ele>
        <time>2020-12-02T12:46:58Z</time>
      </trkpt>
      <trkpt lat="37.54425" lon="27.62239">
        <ele>675.8</ele>
        <time>2020-12-02T12:46:57Z</time>
      </trkpt>
      <trkpt lat="37.54423" lon="27.62238">
        <ele>676</ele>
        <time>2020-12-02T12:46:56Z</time>
      </trkpt>
      <trkpt lat="37.54423" lon="27.62238">
        <ele>676.2</ele>
        <time>2020-12-02T12:46:55Z</time>
      </trkpt>
      <trkpt lat="37.54421" lon="27.62241">
        <ele>676.2</ele>
        <time>2020-12-02T12:46:54Z</time>
      </trkpt>
      <trkpt lat="37.54421" lon="27.62241">
        <ele>676.4</ele>
        <time>2020-12-02T12:46:53Z</time>
      </trkpt>
      <trkpt lat="37.54421" lon="27.62241">
        <ele>676.8</ele>
        <time>2020-12-02T12:46:52Z</time>
      </trkpt>
      <trkpt lat="37.54421" lon="27.62241">
        <ele>677</ele>
        <time>2020-12-02T12:46:51Z</time>
      </trkpt>
      <trkpt lat="37.54421" lon="27.62241">
        <ele>677.2</ele>
        <time>2020-12-02T12:46:50Z</time>
      </trkpt>
      <trkpt lat="37.54421" lon="27.62241">
        <ele>677.4</ele>
        <time>2020-12-02T12:46:49Z</time>
      </trkpt>
      <trkpt lat="37.54421" lon="27.62241">
        <ele>677.6</ele>
        <time>2020-12-02T12:46:48Z</time>
      </trkpt>
      <trkpt lat="37.54421" lon="27.62245">
        <ele>677.6</ele>
        <time>2020-12-02T12:46:47Z</time>
      </trkpt>
      <trkpt lat="37.54421" lon="27.62245">
        <ele>677.8</ele>
        <time>2020-12-02T12:46:46Z</time>
      </trkpt>
      <trkpt lat="37.54421" lon="27.62245">
        <ele>678</ele>
        <time>2020-12-02T12:46:45Z</time>
      </trkpt>
      <trkpt lat="37.54419" lon="27.62247">
        <ele>678</ele>
        <time>2020-12-02T12:46:44Z</time>
      </trkpt>
      <trkpt lat="37.54419" lon="27.62247">
        <ele>678.2</ele>
        <time>2020-12-02T12:46:43Z</time>
      </trkpt>
      <trkpt lat="37.54419" lon="27.62247">
        <ele>678.4</ele>
        <time>2020-12-02T12:46:42Z</time>
      </trkpt>
      <trkpt lat="37.54419" lon="27.62247">
        <ele>678.6</ele>
        <time>2020-12-02T12:46:41Z</time>
      </trkpt>
      <trkpt lat="37.54419" lon="27.62247">
        <ele>678.6</ele>
        <time>2020-12-02T12:46:40Z</time>
      </trkpt>
      <trkpt lat="37.54417" lon="27.62247">
        <ele>678.6</ele>
        <time>2020-12-02T12:46:39Z</time>
      </trkpt>
      <trkpt lat="37.54417" lon="27.62246">
        <ele>678.6</ele>
        <time>2020-12-02T12:46:38Z</time>
      </trkpt>
      <trkpt lat="37.54416" lon="27.62246">
        <ele>678.8</ele>
        <time>2020-12-02T12:46:37Z</time>
      </trkpt>
      <trkpt lat="37.54415" lon="27.62245">
        <ele>678.8</ele>
        <time>2020-12-02T12:46:36Z</time>
      </trkpt>
      <trkpt lat="37.54414" lon="27.62245">
        <ele>678.8</ele>
        <time>2020-12-02T12:46:35Z</time>
      </trkpt>
      <trkpt lat="37.54414" lon="27.62245">
        <ele>679</ele>
        <time>2020-12-02T12:46:34Z</time>
      </trkpt>
      <trkpt lat="37.54413" lon="27.62244">
        <ele>679.2</ele>
        <time>2020-12-02T12:46:33Z</time>
      </trkpt>
      <trkpt lat="37.54412" lon="27.62244">
        <ele>679.4</ele>
        <time>2020-12-02T12:46:32Z</time>
      </trkpt>
      <trkpt lat="37.54411" lon="27.62243">
        <ele>679.6</ele>
        <time>2020-12-02T12:46:31Z</time>
      </trkpt>
      <trkpt lat="37.54411" lon="27.62243">
        <ele>680</ele>
        <time>2020-12-02T12:46:30Z</time>
      </trkpt>
      <trkpt lat="37.5441" lon="27.62243">
        <ele>680.2</ele>
        <time>2020-12-02T12:46:29Z</time>
      </trkpt>
      <trkpt lat="37.54409" lon="27.62242">
        <ele>680.6</ele>
        <time>2020-12-02T12:46:28Z</time>
      </trkpt>
      <trkpt lat="37.54408" lon="27.62242">
        <ele>680.8</ele>
        <time>2020-12-02T12:46:27Z</time>
      </trkpt>
      <trkpt lat="37.54408" lon="27.62241">
        <ele>681</ele>
        <time>2020-12-02T12:46:26Z</time>
      </trkpt>
      <trkpt lat="37.54408" lon="27.62241">
        <ele>681.2</ele>
        <time>2020-12-02T12:46:25Z</time>
      </trkpt>
      <trkpt lat="37.54406" lon="27.62243">
        <ele>681.2</ele>
        <time>2020-12-02T12:46:24Z</time>
      </trkpt>
      <trkpt lat="37.54406" lon="27.62243">
        <ele>681.4</ele>
        <time>2020-12-02T12:46:23Z</time>
      </trkpt>
      <trkpt lat="37.54406" lon="27.62243">
        <ele>681.8</ele>
        <time>2020-12-02T12:46:22Z</time>
      </trkpt>
      <trkpt lat="37.54404" lon="27.62244">
        <ele>682</ele>
        <time>2020-12-02T12:46:21Z</time>
      </trkpt>
      <trkpt lat="37.54404" lon="27.62244">
        <ele>682.2</ele>
        <time>2020-12-02T12:46:20Z</time>
      </trkpt>
      <trkpt lat="37.54404" lon="27.62244">
        <ele>682.6</ele>
        <time>2020-12-02T12:46:19Z</time>
      </trkpt>
      <trkpt lat="37.54403" lon="27.62246">
        <ele>682.6</ele>
        <time>2020-12-02T12:46:18Z</time>
      </trkpt>
      <trkpt lat="37.54403" lon="27.62246">
        <ele>682.8</ele>
        <time>2020-12-02T12:46:17Z</time>
      </trkpt>
      <trkpt lat="37.54403" lon="27.62246">
        <ele>683</ele>
        <time>2020-12-02T12:46:16Z</time>
      </trkpt>
      <trkpt lat="37.54403" lon="27.62246">
        <ele>683.2</ele>
        <time>2020-12-02T12:46:15Z</time>
      </trkpt>
      <trkpt lat="37.54402" lon="27.62248">
        <ele>683.4</ele>
        <time>2020-12-02T12:46:14Z</time>
      </trkpt>
      <trkpt lat="37.54402" lon="27.62248">
        <ele>683.4</ele>
        <time>2020-12-02T12:46:13Z</time>
      </trkpt>
      <trkpt lat="37.54401" lon="27.62251">
        <ele>683.6</ele>
        <time>2020-12-02T12:46:12Z</time>
      </trkpt>
      <trkpt lat="37.54401" lon="27.62251">
        <ele>683.8</ele>
        <time>2020-12-02T12:46:11Z</time>
      </trkpt>
      <trkpt lat="37.54401" lon="27.62251">
        <ele>683.8</ele>
        <time>2020-12-02T12:46:10Z</time>
      </trkpt>
      <trkpt lat="37.54398" lon="27.62252">
        <ele>683.8</ele>
        <time>2020-12-02T12:46:09Z</time>
      </trkpt>
      <trkpt lat="37.54398" lon="27.62252">
        <ele>684</ele>
        <time>2020-12-02T12:46:08Z</time>
      </trkpt>
      <trkpt lat="37.54398" lon="27.62252">
        <ele>684</ele>
        <time>2020-12-02T12:46:07Z</time>
      </trkpt>
      <trkpt lat="37.54398" lon="27.62252">
        <ele>684</ele>
        <time>2020-12-02T12:46:06Z</time>
      </trkpt>
      <trkpt lat="37.54398" lon="27.62252">
        <ele>684</ele>
        <time>2020-12-02T12:46:05Z</time>
      </trkpt>
      <trkpt lat="37.54398" lon="27.62252">
        <ele>684</ele>
        <time>2020-12-02T12:46:04Z</time>
      </trkpt>
      <trkpt lat="37.54398" lon="27.62252">
        <ele>684</ele>
        <time>2020-12-02T12:46:03Z</time>
      </trkpt>
      <trkpt lat="37.54398" lon="27.62252">
        <ele>684.2</ele>
        <time>2020-12-02T12:46:02Z</time>
      </trkpt>
      <trkpt lat="37.54398" lon="27.62252">
        <ele>684.4</ele>
        <time>2020-12-02T12:46:01Z</time>
      </trkpt>
      <trkpt lat="37.54398" lon="27.62252">
        <ele>684.4</ele>
        <time>2020-12-02T12:46:00Z</time>
      </trkpt>
      <trkpt lat="37.54398" lon="27.62252">
        <ele>684.6</ele>
        <time>2020-12-02T12:45:59Z</time>
      </trkpt>
      <trkpt lat="37.54396" lon="27.62252">
        <ele>684.6</ele>
        <time>2020-12-02T12:45:58Z</time>
      </trkpt>
      <trkpt lat="37.54396" lon="27.62252">
        <ele>684.8</ele>
        <time>2020-12-02T12:45:57Z</time>
      </trkpt>
      <trkpt lat="37.54396" lon="27.62252">
        <ele>685</ele>
        <time>2020-12-02T12:45:56Z</time>
      </trkpt>
      <trkpt lat="37.54396" lon="27.62252">
        <ele>685.2</ele>
        <time>2020-12-02T12:45:55Z</time>
      </trkpt>
      <trkpt lat="37.54396" lon="27.62252">
        <ele>685.4</ele>
        <time>2020-12-02T12:45:54Z</time>
      </trkpt>
      <trkpt lat="37.54396" lon="27.62252">
        <ele>685.4</ele>
        <time>2020-12-02T12:45:53Z</time>
      </trkpt>
      <trkpt lat="37.54396" lon="27.62252">
        <ele>685.6</ele>
        <time>2020-12-02T12:45:52Z</time>
      </trkpt>
      <trkpt lat="37.54397" lon="27.6225">
        <ele>685.8</ele>
        <time>2020-12-02T12:45:51Z</time>
      </trkpt>
      <trkpt lat="37.54397" lon="27.6225">
        <ele>686.2</ele>
        <time>2020-12-02T12:45:50Z</time>
      </trkpt>
      <trkpt lat="37.54398" lon="27.62248">
        <ele>686.4</ele>
        <time>2020-12-02T12:45:49Z</time>
      </trkpt>
      <trkpt lat="37.54398" lon="27.62248">
        <ele>686.4</ele>
        <time>2020-12-02T12:45:48Z</time>
      </trkpt>
      <trkpt lat="37.54398" lon="27.62248">
        <ele>686.6</ele>
        <time>2020-12-02T12:45:47Z</time>
      </trkpt>
      <trkpt lat="37.54394" lon="27.6225">
        <ele>686.8</ele>
        <time>2020-12-02T12:45:46Z</time>
      </trkpt>
      <trkpt lat="37.54394" lon="27.6225">
        <ele>687</ele>
        <time>2020-12-02T12:45:45Z</time>
      </trkpt>
      <trkpt lat="37.54394" lon="27.6225">
        <ele>687</ele>
        <time>2020-12-02T12:45:44Z</time>
      </trkpt>
      <trkpt lat="37.54394" lon="27.6225">
        <ele>687.2</ele>
        <time>2020-12-02T12:45:43Z</time>
      </trkpt>
      <trkpt lat="37.54394" lon="27.6225">
        <ele>687.4</ele>
        <time>2020-12-02T12:45:42Z</time>
      </trkpt>
      <trkpt lat="37.54394" lon="27.6225">
        <ele>687.4</ele>
        <time>2020-12-02T12:45:41Z</time>
      </trkpt>
      <trkpt lat="37.54394" lon="27.6225">
        <ele>687.6</ele>
        <time>2020-12-02T12:45:40Z</time>
      </trkpt>
      <trkpt lat="37.54391" lon="27.62249">
        <ele>687.6</ele>
        <time>2020-12-02T12:45:39Z</time>
      </trkpt>
      <trkpt lat="37.54391" lon="27.62249">
        <ele>687.8</ele>
        <time>2020-12-02T12:45:38Z</time>
      </trkpt>
      <trkpt lat="37.54391" lon="27.62249">
        <ele>688</ele>
        <time>2020-12-02T12:45:37Z</time>
      </trkpt>
      <trkpt lat="37.54391" lon="27.62249">
        <ele>687.8</ele>
        <time>2020-12-02T12:45:36Z</time>
      </trkpt>
      <trkpt lat="37.54391" lon="27.62249">
        <ele>688</ele>
        <time>2020-12-02T12:45:35Z</time>
      </trkpt>
      <trkpt lat="37.54391" lon="27.62249">
        <ele>688</ele>
        <time>2020-12-02T12:45:34Z</time>
      </trkpt>
      <trkpt lat="37.54391" lon="27.62248">
        <ele>688</ele>
        <time>2020-12-02T12:45:33Z</time>
      </trkpt>
      <trkpt lat="37.5439" lon="27.62248">
        <ele>688.2</ele>
        <time>2020-12-02T12:45:32Z</time>
      </trkpt>
      <trkpt lat="37.5439" lon="27.62248">
        <ele>688.4</ele>
        <time>2020-12-02T12:45:31Z</time>
      </trkpt>
      <trkpt lat="37.54389" lon="27.62248">
        <ele>688.6</ele>
        <time>2020-12-02T12:45:30Z</time>
      </trkpt>
      <trkpt lat="37.54389" lon="27.62247">
        <ele>688.8</ele>
        <time>2020-12-02T12:45:29Z</time>
      </trkpt>
      <trkpt lat="37.54388" lon="27.62247">
        <ele>689</ele>
        <time>2020-12-02T12:45:28Z</time>
      </trkpt>
      <trkpt lat="37.54388" lon="27.62247">
        <ele>689.2</ele>
        <time>2020-12-02T12:45:27Z</time>
      </trkpt>
      <trkpt lat="37.54387" lon="27.62247">
        <ele>689.2</ele>
        <time>2020-12-02T12:45:26Z</time>
      </trkpt>
      <trkpt lat="37.54387" lon="27.62246">
        <ele>689.4</ele>
        <time>2020-12-02T12:45:25Z</time>
      </trkpt>
      <trkpt lat="37.54387" lon="27.62246">
        <ele>689.4</ele>
        <time>2020-12-02T12:45:24Z</time>
      </trkpt>
      <trkpt lat="37.54386" lon="27.62246">
        <ele>689.4</ele>
        <time>2020-12-02T12:45:23Z</time>
      </trkpt>
      <trkpt lat="37.54385" lon="27.62245">
        <ele>689.2</ele>
        <time>2020-12-02T12:45:22Z</time>
      </trkpt>
      <trkpt lat="37.54385" lon="27.62244">
        <ele>689.4</ele>
        <time>2020-12-02T12:45:21Z</time>
      </trkpt>
      <trkpt lat="37.54384" lon="27.62243">
        <ele>689.4</ele>
        <time>2020-12-02T12:45:20Z</time>
      </trkpt>
      <trkpt lat="37.54384" lon="27.62242">
        <ele>689.6</ele>
        <time>2020-12-02T12:45:19Z</time>
      </trkpt>
      <trkpt lat="37.54383" lon="27.62241">
        <ele>689.8</ele>
        <time>2020-12-02T12:45:18Z</time>
      </trkpt>
      <trkpt lat="37.54382" lon="27.62241">
        <ele>690</ele>
        <time>2020-12-02T12:45:17Z</time>
      </trkpt>
      <trkpt lat="37.54382" lon="27.6224">
        <ele>690</ele>
        <time>2020-12-02T12:45:16Z</time>
      </trkpt>
      <trkpt lat="37.54381" lon="27.62239">
        <ele>690.2</ele>
        <time>2020-12-02T12:45:15Z</time>
      </trkpt>
      <trkpt lat="37.5438" lon="27.62238">
        <ele>690.4</ele>
        <time>2020-12-02T12:45:14Z</time>
      </trkpt>
      <trkpt lat="37.5438" lon="27.62237">
        <ele>690.6</ele>
        <time>2020-12-02T12:45:13Z</time>
      </trkpt>
      <trkpt lat="37.54379" lon="27.62237">
        <ele>691</ele>
        <time>2020-12-02T12:45:12Z</time>
      </trkpt>
      <trkpt lat="37.54378" lon="27.62238">
        <ele>691.2</ele>
        <time>2020-12-02T12:45:11Z</time>
      </trkpt>
      <trkpt lat="37.54377" lon="27.62238">
        <ele>691.2</ele>
        <time>2020-12-02T12:45:10Z</time>
      </trkpt>
      <trkpt lat="37.54377" lon="27.62238">
        <ele>691.2</ele>
        <time>2020-12-02T12:45:09Z</time>
      </trkpt>
      <trkpt lat="37.54376" lon="27.62239">
        <ele>691.4</ele>
        <time>2020-12-02T12:45:08Z</time>
      </trkpt>
      <trkpt lat="37.54375" lon="27.62239">
        <ele>691.6</ele>
        <time>2020-12-02T12:45:07Z</time>
      </trkpt>
      <trkpt lat="37.54374" lon="27.62239">
        <ele>692</ele>
        <time>2020-12-02T12:45:06Z</time>
      </trkpt>
      <trkpt lat="37.54373" lon="27.62239">
        <ele>692</ele>
        <time>2020-12-02T12:45:05Z</time>
      </trkpt>
      <trkpt lat="37.54372" lon="27.6224">
        <ele>692.2</ele>
        <time>2020-12-02T12:45:04Z</time>
      </trkpt>
      <trkpt lat="37.54371" lon="27.6224">
        <ele>692.4</ele>
        <time>2020-12-02T12:45:03Z</time>
      </trkpt>
      <trkpt lat="37.54371" lon="27.6224">
        <ele>692.6</ele>
        <time>2020-12-02T12:45:02Z</time>
      </trkpt>
      <trkpt lat="37.5437" lon="27.6224">
        <ele>692.6</ele>
        <time>2020-12-02T12:45:01Z</time>
      </trkpt>
      <trkpt lat="37.5437" lon="27.6224">
        <ele>693</ele>
        <time>2020-12-02T12:45:00Z</time>
      </trkpt>
      <trkpt lat="37.54369" lon="27.6224">
        <ele>693</ele>
        <time>2020-12-02T12:44:59Z</time>
      </trkpt>
      <trkpt lat="37.54369" lon="27.6224">
        <ele>693.2</ele>
        <time>2020-12-02T12:44:58Z</time>
      </trkpt>
      <trkpt lat="37.54369" lon="27.6224">
        <ele>693.2</ele>
        <time>2020-12-02T12:44:57Z</time>
      </trkpt>
      <trkpt lat="37.54368" lon="27.6224">
        <ele>693.2</ele>
        <time>2020-12-02T12:44:56Z</time>
      </trkpt>
      <trkpt lat="37.54368" lon="27.6224">
        <ele>693.2</ele>
        <time>2020-12-02T12:44:55Z</time>
      </trkpt>
      <trkpt lat="37.54368" lon="27.6224">
        <ele>693.4</ele>
        <time>2020-12-02T12:44:54Z</time>
      </trkpt>
      <trkpt lat="37.54367" lon="27.6224">
        <ele>693.4</ele>
        <time>2020-12-02T12:44:53Z</time>
      </trkpt>
      <trkpt lat="37.54367" lon="27.6224">
        <ele>693.4</ele>
        <time>2020-12-02T12:44:52Z</time>
      </trkpt>
      <trkpt lat="37.54366" lon="27.6224">
        <ele>693.4</ele>
        <time>2020-12-02T12:44:51Z</time>
      </trkpt>
      <trkpt lat="37.54366" lon="27.6224">
        <ele>693.6</ele>
        <time>2020-12-02T12:44:50Z</time>
      </trkpt>
      <trkpt lat="37.54366" lon="27.6224">
        <ele>693.4</ele>
        <time>2020-12-02T12:44:49Z</time>
      </trkpt>
      <trkpt lat="37.54365" lon="27.6224">
        <ele>693.6</ele>
        <time>2020-12-02T12:44:48Z</time>
      </trkpt>
      <trkpt lat="37.54365" lon="27.6224">
        <ele>693.6</ele>
        <time>2020-12-02T12:44:47Z</time>
      </trkpt>
      <trkpt lat="37.54364" lon="27.6224">
        <ele>693.6</ele>
        <time>2020-12-02T12:44:46Z</time>
      </trkpt>
      <trkpt lat="37.54364" lon="27.6224">
        <ele>693.8</ele>
        <time>2020-12-02T12:44:45Z</time>
      </trkpt>
      <trkpt lat="37.54364" lon="27.6224">
        <ele>693.8</ele>
        <time>2020-12-02T12:44:44Z</time>
      </trkpt>
      <trkpt lat="37.54363" lon="27.6224">
        <ele>693.8</ele>
        <time>2020-12-02T12:44:43Z</time>
      </trkpt>
      <trkpt lat="37.54363" lon="27.6224">
        <ele>694</ele>
        <time>2020-12-02T12:44:42Z</time>
      </trkpt>
      <trkpt lat="37.54363" lon="27.62239">
        <ele>694</ele>
        <time>2020-12-02T12:44:41Z</time>
      </trkpt>
      <trkpt lat="37.54362" lon="27.62239">
        <ele>694</ele>
        <time>2020-12-02T12:44:40Z</time>
      </trkpt>
      <trkpt lat="37.54362" lon="27.62239">
        <ele>694</ele>
        <time>2020-12-02T12:44:39Z</time>
      </trkpt>
      <trkpt lat="37.54361" lon="27.62239">
        <ele>694</ele>
        <time>2020-12-02T12:44:38Z</time>
      </trkpt>
      <trkpt lat="37.54361" lon="27.62239">
        <ele>694</ele>
        <time>2020-12-02T12:44:37Z</time>
      </trkpt>
      <trkpt lat="37.5436" lon="27.62239">
        <ele>694.2</ele>
        <time>2020-12-02T12:44:36Z</time>
      </trkpt>
      <trkpt lat="37.5436" lon="27.6224">
        <ele>694.4</ele>
        <time>2020-12-02T12:44:35Z</time>
      </trkpt>
      <trkpt lat="37.54359" lon="27.6224">
        <ele>694.4</ele>
        <time>2020-12-02T12:44:34Z</time>
      </trkpt>
      <trkpt lat="37.54359" lon="27.6224">
        <ele>694.4</ele>
        <time>2020-12-02T12:44:33Z</time>
      </trkpt>
      <trkpt lat="37.54358" lon="27.6224">
        <ele>694.6</ele>
        <time>2020-12-02T12:44:32Z</time>
      </trkpt>
      <trkpt lat="37.54357" lon="27.6224">
        <ele>694.8</ele>
        <time>2020-12-02T12:44:31Z</time>
      </trkpt>
      <trkpt lat="37.54357" lon="27.6224">
        <ele>695</ele>
        <time>2020-12-02T12:44:30Z</time>
      </trkpt>
      <trkpt lat="37.54356" lon="27.6224">
        <ele>695</ele>
        <time>2020-12-02T12:44:29Z</time>
      </trkpt>
      <trkpt lat="37.54356" lon="27.6224">
        <ele>695.2</ele>
        <time>2020-12-02T12:44:28Z</time>
      </trkpt>
      <trkpt lat="37.54355" lon="27.6224">
        <ele>695.2</ele>
        <time>2020-12-02T12:44:27Z</time>
      </trkpt>
      <trkpt lat="37.54355" lon="27.6224">
        <ele>695.4</ele>
        <time>2020-12-02T12:44:26Z</time>
      </trkpt>
      <trkpt lat="37.54354" lon="27.6224">
        <ele>695.6</ele>
        <time>2020-12-02T12:44:25Z</time>
      </trkpt>
      <trkpt lat="37.54353" lon="27.6224">
        <ele>696</ele>
        <time>2020-12-02T12:44:24Z</time>
      </trkpt>
      <trkpt lat="37.54353" lon="27.6224">
        <ele>696</ele>
        <time>2020-12-02T12:44:23Z</time>
      </trkpt>
      <trkpt lat="37.54352" lon="27.6224">
        <ele>696</ele>
        <time>2020-12-02T12:44:22Z</time>
      </trkpt>
      <trkpt lat="37.54352" lon="27.6224">
        <ele>696.2</ele>
        <time>2020-12-02T12:44:21Z</time>
      </trkpt>
      <trkpt lat="37.54351" lon="27.62241">
        <ele>696.2</ele>
        <time>2020-12-02T12:44:20Z</time>
      </trkpt>
      <trkpt lat="37.54351" lon="27.62241">
        <ele>696</ele>
        <time>2020-12-02T12:44:19Z</time>
      </trkpt>
      <trkpt lat="37.5435" lon="27.62241">
        <ele>696.2</ele>
        <time>2020-12-02T12:44:18Z</time>
      </trkpt>
      <trkpt lat="37.5435" lon="27.62241">
        <ele>696</ele>
        <time>2020-12-02T12:44:17Z</time>
      </trkpt>
      <trkpt lat="37.54349" lon="27.62241">
        <ele>696.2</ele>
        <time>2020-12-02T12:44:16Z</time>
      </trkpt>
      <trkpt lat="37.54349" lon="27.62242">
        <ele>696</ele>
        <time>2020-12-02T12:44:15Z</time>
      </trkpt>
      <trkpt lat="37.54349" lon="27.62242">
        <ele>695.6</ele>
        <time>2020-12-02T12:44:14Z</time>
      </trkpt>
      <trkpt lat="37.54348" lon="27.62242">
        <ele>695.4</ele>
        <time>2020-12-02T12:44:13Z</time>
      </trkpt>
      <trkpt lat="37.54348" lon="27.62242">
        <ele>695.6</ele>
        <time>2020-12-02T12:44:12Z</time>
      </trkpt>
      <trkpt lat="37.54347" lon="27.62242">
        <ele>695.8</ele>
        <time>2020-12-02T12:44:11Z</time>
      </trkpt>
      <trkpt lat="37.54347" lon="27.62243">
        <ele>696</ele>
        <time>2020-12-02T12:44:10Z</time>
      </trkpt>
      <trkpt lat="37.54346" lon="27.62243">
        <ele>696.2</ele>
        <time>2020-12-02T12:44:09Z</time>
      </trkpt>
      <trkpt lat="37.54346" lon="27.62243">
        <ele>696.2</ele>
        <time>2020-12-02T12:44:08Z</time>
      </trkpt>
      <trkpt lat="37.54345" lon="27.62243">
        <ele>696.6</ele>
        <time>2020-12-02T12:44:07Z</time>
      </trkpt>
      <trkpt lat="37.54345" lon="27.62243">
        <ele>696.8</ele>
        <time>2020-12-02T12:44:06Z</time>
      </trkpt>
      <trkpt lat="37.54344" lon="27.62244">
        <ele>696.8</ele>
        <time>2020-12-02T12:44:05Z</time>
      </trkpt>
      <trkpt lat="37.54344" lon="27.62244">
        <ele>696.8</ele>
        <time>2020-12-02T12:44:04Z</time>
      </trkpt>
      <trkpt lat="37.54343" lon="27.62244">
        <ele>697</ele>
        <time>2020-12-02T12:44:03Z</time>
      </trkpt>
      <trkpt lat="37.54343" lon="27.62244">
        <ele>697.4</ele>
        <time>2020-12-02T12:44:02Z</time>
      </trkpt>
      <trkpt lat="37.54343" lon="27.62243">
        <ele>697.4</ele>
        <time>2020-12-02T12:44:01Z</time>
      </trkpt>
      <trkpt lat="37.54343" lon="27.62243">
        <ele>697.4</ele>
        <time>2020-12-02T12:44:00Z</time>
      </trkpt>
      <trkpt lat="37.54342" lon="27.62243">
        <ele>697.6</ele>
        <time>2020-12-02T12:43:59Z</time>
      </trkpt>
      <trkpt lat="37.54342" lon="27.62242">
        <ele>698</ele>
        <time>2020-12-02T12:43:58Z</time>
      </trkpt>
      <trkpt lat="37.54342" lon="27.62242">
        <ele>698</ele>
        <time>2020-12-02T12:43:57Z</time>
      </trkpt>
      <trkpt lat="37.54342" lon="27.62242">
        <ele>698</ele>
        <time>2020-12-02T12:43:56Z</time>
      </trkpt>
      <trkpt lat="37.54341" lon="27.62241">
        <ele>698.2</ele>
        <time>2020-12-02T12:43:55Z</time>
      </trkpt>
      <trkpt lat="37.54341" lon="27.62241">
        <ele>698.4</ele>
        <time>2020-12-02T12:43:54Z</time>
      </trkpt>
      <trkpt lat="37.54341" lon="27.62241">
        <ele>698.6</ele>
        <time>2020-12-02T12:43:53Z</time>
      </trkpt>
      <trkpt lat="37.5434" lon="27.6224">
        <ele>698.4</ele>
        <time>2020-12-02T12:43:52Z</time>
      </trkpt>
      <trkpt lat="37.5434" lon="27.6224">
        <ele>698.4</ele>
        <time>2020-12-02T12:43:51Z</time>
      </trkpt>
      <trkpt lat="37.5434" lon="27.6224">
        <ele>698.4</ele>
        <time>2020-12-02T12:43:50Z</time>
      </trkpt>
      <trkpt lat="37.5434" lon="27.62239">
        <ele>698.4</ele>
        <time>2020-12-02T12:43:49Z</time>
      </trkpt>
      <trkpt lat="37.54339" lon="27.62239">
        <ele>698.4</ele>
        <time>2020-12-02T12:43:48Z</time>
      </trkpt>
      <trkpt lat="37.54339" lon="27.62239">
        <ele>698.6</ele>
        <time>2020-12-02T12:43:47Z</time>
      </trkpt>
      <trkpt lat="37.54339" lon="27.62238">
        <ele>698.8</ele>
        <time>2020-12-02T12:43:46Z</time>
      </trkpt>
      <trkpt lat="37.54338" lon="27.62238">
        <ele>698.8</ele>
        <time>2020-12-02T12:43:45Z</time>
      </trkpt>
      <trkpt lat="37.54338" lon="27.62238">
        <ele>699</ele>
        <time>2020-12-02T12:43:44Z</time>
      </trkpt>
      <trkpt lat="37.54338" lon="27.62237">
        <ele>699.2</ele>
        <time>2020-12-02T12:43:43Z</time>
      </trkpt>
      <trkpt lat="37.54338" lon="27.62237">
        <ele>699.2</ele>
        <time>2020-12-02T12:43:42Z</time>
      </trkpt>
      <trkpt lat="37.54337" lon="27.62237">
        <ele>699.4</ele>
        <time>2020-12-02T12:43:41Z</time>
      </trkpt>
      <trkpt lat="37.54337" lon="27.62236">
        <ele>699.6</ele>
        <time>2020-12-02T12:43:40Z</time>
      </trkpt>
      <trkpt lat="37.54337" lon="27.62236">
        <ele>699.6</ele>
        <time>2020-12-02T12:43:39Z</time>
      </trkpt>
      <trkpt lat="37.54337" lon="27.62235">
        <ele>699.6</ele>
        <time>2020-12-02T12:43:38Z</time>
      </trkpt>
      <trkpt lat="37.54336" lon="27.62235">
        <ele>699.8</ele>
        <time>2020-12-02T12:43:37Z</time>
      </trkpt>
      <trkpt lat="37.54336" lon="27.62233">
        <ele>700</ele>
        <time>2020-12-02T12:43:36Z</time>
      </trkpt>
      <trkpt lat="37.54335" lon="27.62231">
        <ele>700</ele>
        <time>2020-12-02T12:43:35Z</time>
      </trkpt>
      <trkpt lat="37.54334" lon="27.62229">
        <ele>700</ele>
        <time>2020-12-02T12:43:34Z</time>
      </trkpt>
      <trkpt lat="37.54333" lon="27.62227">
        <ele>700.4</ele>
        <time>2020-12-02T12:43:33Z</time>
      </trkpt>
      <trkpt lat="37.54333" lon="27.62225">
        <ele>700.4</ele>
        <time>2020-12-02T12:43:32Z</time>
      </trkpt>
      <trkpt lat="37.54333" lon="27.62225">
        <ele>700.4</ele>
        <time>2020-12-02T12:43:31Z</time>
      </trkpt>
      <trkpt lat="37.54332" lon="27.62224">
        <ele>700.6</ele>
        <time>2020-12-02T12:43:30Z</time>
      </trkpt>
      <trkpt lat="37.54332" lon="27.62224">
        <ele>700.4</ele>
        <time>2020-12-02T12:43:29Z</time>
      </trkpt>
      <trkpt lat="37.54332" lon="27.62224">
        <ele>700.4</ele>
        <time>2020-12-02T12:43:28Z</time>
      </trkpt>
      <trkpt lat="37.54332" lon="27.62224">
        <ele>700.4</ele>
        <time>2020-12-02T12:43:27Z</time>
      </trkpt>
      <trkpt lat="37.54332" lon="27.62224">
        <ele>700.4</ele>
        <time>2020-12-02T12:43:26Z</time>
      </trkpt>
      <trkpt lat="37.54332" lon="27.62223">
        <ele>700.4</ele>
        <time>2020-12-02T12:43:25Z</time>
      </trkpt>
      <trkpt lat="37.54332" lon="27.62223">
        <ele>700.4</ele>
        <time>2020-12-02T12:43:24Z</time>
      </trkpt>
      <trkpt lat="37.54332" lon="27.62223">
        <ele>700.4</ele>
        <time>2020-12-02T12:43:23Z</time>
      </trkpt>
      <trkpt lat="37.54332" lon="27.62223">
        <ele>700.4</ele>
        <time>2020-12-02T12:43:22Z</time>
      </trkpt>
      <trkpt lat="37.54332" lon="27.62223">
        <ele>700.4</ele>
        <time>2020-12-02T12:43:21Z</time>
      </trkpt>
      <trkpt lat="37.54332" lon="27.62222">
        <ele>700.4</ele>
        <time>2020-12-02T12:43:20Z</time>
      </trkpt>
      <trkpt lat="37.54332" lon="27.62222">
        <ele>700.4</ele>
        <time>2020-12-02T12:43:19Z</time>
      </trkpt>
      <trkpt lat="37.54332" lon="27.62222">
        <ele>700.6</ele>
        <time>2020-12-02T12:43:18Z</time>
      </trkpt>
      <trkpt lat="37.54332" lon="27.62222">
        <ele>700.6</ele>
        <time>2020-12-02T12:43:17Z</time>
      </trkpt>
      <trkpt lat="37.54332" lon="27.62221">
        <ele>700.6</ele>
        <time>2020-12-02T12:43:16Z</time>
      </trkpt>
      <trkpt lat="37.54332" lon="27.62221">
        <ele>700.8</ele>
        <time>2020-12-02T12:43:15Z</time>
      </trkpt>
      <trkpt lat="37.54332" lon="27.62221">
        <ele>700.8</ele>
        <time>2020-12-02T12:43:14Z</time>
      </trkpt>
      <trkpt lat="37.54332" lon="27.62221">
        <ele>701</ele>
        <time>2020-12-02T12:43:13Z</time>
      </trkpt>
      <trkpt lat="37.54332" lon="27.62221">
        <ele>701.2</ele>
        <time>2020-12-02T12:43:12Z</time>
      </trkpt>
      <trkpt lat="37.54332" lon="27.6222">
        <ele>701.2</ele>
        <time>2020-12-02T12:43:11Z</time>
      </trkpt>
      <trkpt lat="37.54332" lon="27.6222">
        <ele>701.2</ele>
        <time>2020-12-02T12:43:10Z</time>
      </trkpt>
      <trkpt lat="37.54332" lon="27.6222">
        <ele>701.4</ele>
        <time>2020-12-02T12:43:09Z</time>
      </trkpt>
      <trkpt lat="37.54332" lon="27.6222">
        <ele>701.6</ele>
        <time>2020-12-02T12:43:08Z</time>
      </trkpt>
      <trkpt lat="37.54332" lon="27.6222">
        <ele>701.8</ele>
        <time>2020-12-02T12:43:07Z</time>
      </trkpt>
      <trkpt lat="37.54332" lon="27.62219">
        <ele>701.8</ele>
        <time>2020-12-02T12:43:06Z</time>
      </trkpt>
      <trkpt lat="37.54332" lon="27.62219">
        <ele>701.8</ele>
        <time>2020-12-02T12:43:05Z</time>
      </trkpt>
      <trkpt lat="37.54332" lon="27.62219">
        <ele>702</ele>
        <time>2020-12-02T12:43:04Z</time>
      </trkpt>
      <trkpt lat="37.54332" lon="27.62219">
        <ele>702</ele>
        <time>2020-12-02T12:43:03Z</time>
      </trkpt>
      <trkpt lat="37.54332" lon="27.62219">
        <ele>702.2</ele>
        <time>2020-12-02T12:43:02Z</time>
      </trkpt>
      <trkpt lat="37.54332" lon="27.62218">
        <ele>702.4</ele>
        <time>2020-12-02T12:43:01Z</time>
      </trkpt>
      <trkpt lat="37.54331" lon="27.62218">
        <ele>702.6</ele>
        <time>2020-12-02T12:43:00Z</time>
      </trkpt>
      <trkpt lat="37.54331" lon="27.62218">
        <ele>702.6</ele>
        <time>2020-12-02T12:42:59Z</time>
      </trkpt>
      <trkpt lat="37.54331" lon="27.62218">
        <ele>702.8</ele>
        <time>2020-12-02T12:42:58Z</time>
      </trkpt>
      <trkpt lat="37.54331" lon="27.62218">
        <ele>703.2</ele>
        <time>2020-12-02T12:42:57Z</time>
      </trkpt>
      <trkpt lat="37.54331" lon="27.62217">
        <ele>703.2</ele>
        <time>2020-12-02T12:42:56Z</time>
      </trkpt>
      <trkpt lat="37.54331" lon="27.62217">
        <ele>703.6</ele>
        <time>2020-12-02T12:42:55Z</time>
      </trkpt>
      <trkpt lat="37.54331" lon="27.62217">
        <ele>703.6</ele>
        <time>2020-12-02T12:42:54Z</time>
      </trkpt>
      <trkpt lat="37.54331" lon="27.62217">
        <ele>704</ele>
        <time>2020-12-02T12:42:53Z</time>
      </trkpt>
      <trkpt lat="37.54331" lon="27.62217">
        <ele>704</ele>
        <time>2020-12-02T12:42:52Z</time>
      </trkpt>
      <trkpt lat="37.54331" lon="27.62216">
        <ele>704.2</ele>
        <time>2020-12-02T12:42:51Z</time>
      </trkpt>
      <trkpt lat="37.54331" lon="27.62216">
        <ele>704</ele>
        <time>2020-12-02T12:42:50Z</time>
      </trkpt>
      <trkpt lat="37.54331" lon="27.62216">
        <ele>704.2</ele>
        <time>2020-12-02T12:42:49Z</time>
      </trkpt>
      <trkpt lat="37.54331" lon="27.62216">
        <ele>704.2</ele>
        <time>2020-12-02T12:42:48Z</time>
      </trkpt>
      <trkpt lat="37.54331" lon="27.62216">
        <ele>704.2</ele>
        <time>2020-12-02T12:42:47Z</time>
      </trkpt>
      <trkpt lat="37.54331" lon="27.62215">
        <ele>704.2</ele>
        <time>2020-12-02T12:42:46Z</time>
      </trkpt>
      <trkpt lat="37.54331" lon="27.62215">
        <ele>704.2</ele>
        <time>2020-12-02T12:42:45Z</time>
      </trkpt>
      <trkpt lat="37.54331" lon="27.62215">
        <ele>704.2</ele>
        <time>2020-12-02T12:42:44Z</time>
      </trkpt>
      <trkpt lat="37.54331" lon="27.62215">
        <ele>704.4</ele>
        <time>2020-12-02T12:42:43Z</time>
      </trkpt>
      <trkpt lat="37.54331" lon="27.62215">
        <ele>704.4</ele>
        <time>2020-12-02T12:42:42Z</time>
      </trkpt>
      <trkpt lat="37.54331" lon="27.62214">
        <ele>704.6</ele>
        <time>2020-12-02T12:42:41Z</time>
      </trkpt>
      <trkpt lat="37.54331" lon="27.62214">
        <ele>704.6</ele>
        <time>2020-12-02T12:42:40Z</time>
      </trkpt>
      <trkpt lat="37.54331" lon="27.62214">
        <ele>705</ele>
        <time>2020-12-02T12:42:38Z</time>
      </trkpt>
      <trkpt lat="37.54331" lon="27.62214">
        <ele>705.2</ele>
        <time>2020-12-02T12:42:37Z</time>
      </trkpt>
      <trkpt lat="37.54331" lon="27.62214">
        <ele>705.4</ele>
        <time>2020-12-02T12:42:36Z</time>
      </trkpt>
      <trkpt lat="37.54331" lon="27.62213">
        <ele>705.6</ele>
        <time>2020-12-02T12:42:35Z</time>
      </trkpt>
      <trkpt lat="37.54331" lon="27.62213">
        <ele>705.4</ele>
        <time>2020-12-02T12:42:34Z</time>
      </trkpt>
      <trkpt lat="37.5433" lon="27.62212">
        <ele>705.8</ele>
        <time>2020-12-02T12:42:33Z</time>
      </trkpt>
      <trkpt lat="37.54329" lon="27.6221">
        <ele>705.8</ele>
        <time>2020-12-02T12:42:32Z</time>
      </trkpt>
      <trkpt lat="37.54328" lon="27.62209">
        <ele>706</ele>
        <time>2020-12-02T12:42:31Z</time>
      </trkpt>
      <trkpt lat="37.54327" lon="27.62207">
        <ele>706.2</ele>
        <time>2020-12-02T12:42:30Z</time>
      </trkpt>
      <trkpt lat="37.54326" lon="27.62206">
        <ele>706.6</ele>
        <time>2020-12-02T12:42:29Z</time>
      </trkpt>
      <trkpt lat="37.54325" lon="27.62204">
        <ele>706.8</ele>
        <time>2020-12-02T12:42:28Z</time>
      </trkpt>
      <trkpt lat="37.54325" lon="27.62203">
        <ele>707</ele>
        <time>2020-12-02T12:42:27Z</time>
      </trkpt>
      <trkpt lat="37.54324" lon="27.62202">
        <ele>707.2</ele>
        <time>2020-12-02T12:42:26Z</time>
      </trkpt>
      <trkpt lat="37.54324" lon="27.62201">
        <ele>707.2</ele>
        <time>2020-12-02T12:42:25Z</time>
      </trkpt>
      <trkpt lat="37.54324" lon="27.62201">
        <ele>707.4</ele>
        <time>2020-12-02T12:42:24Z</time>
      </trkpt>
      <trkpt lat="37.54324" lon="27.622">
        <ele>707.6</ele>
        <time>2020-12-02T12:42:23Z</time>
      </trkpt>
      <trkpt lat="37.54323" lon="27.62199">
        <ele>707.6</ele>
        <time>2020-12-02T12:42:22Z</time>
      </trkpt>
      <trkpt lat="37.54323" lon="27.62199">
        <ele>708</ele>
        <time>2020-12-02T12:42:21Z</time>
      </trkpt>
      <trkpt lat="37.54323" lon="27.62198">
        <ele>708</ele>
        <time>2020-12-02T12:42:20Z</time>
      </trkpt>
      <trkpt lat="37.54323" lon="27.62197">
        <ele>708.4</ele>
        <time>2020-12-02T12:42:19Z</time>
      </trkpt>
      <trkpt lat="37.54323" lon="27.62196">
        <ele>708.4</ele>
        <time>2020-12-02T12:42:18Z</time>
      </trkpt>
      <trkpt lat="37.54322" lon="27.62196">
        <ele>708.6</ele>
        <time>2020-12-02T12:42:17Z</time>
      </trkpt>
      <trkpt lat="37.54322" lon="27.62195">
        <ele>708.6</ele>
        <time>2020-12-02T12:42:16Z</time>
      </trkpt>
      <trkpt lat="37.54322" lon="27.62194">
        <ele>708.8</ele>
        <time>2020-12-02T12:42:15Z</time>
      </trkpt>
      <trkpt lat="37.54322" lon="27.62194">
        <ele>708.8</ele>
        <time>2020-12-02T12:42:14Z</time>
      </trkpt>
      <trkpt lat="37.54321" lon="27.62193">
        <ele>708.8</ele>
        <time>2020-12-02T12:42:13Z</time>
      </trkpt>
      <trkpt lat="37.54321" lon="27.62192">
        <ele>708.8</ele>
        <time>2020-12-02T12:42:12Z</time>
      </trkpt>
      <trkpt lat="37.54321" lon="27.62192">
        <ele>708.8</ele>
        <time>2020-12-02T12:42:11Z</time>
      </trkpt>
      <trkpt lat="37.54321" lon="27.62192">
        <ele>708.8</ele>
        <time>2020-12-02T12:42:10Z</time>
      </trkpt>
      <trkpt lat="37.5432" lon="27.62193">
        <ele>708.8</ele>
        <time>2020-12-02T12:42:09Z</time>
      </trkpt>
      <trkpt lat="37.5432" lon="27.62193">
        <ele>708.6</ele>
        <time>2020-12-02T12:42:08Z</time>
      </trkpt>
      <trkpt lat="37.5432" lon="27.62193">
        <ele>708.6</ele>
        <time>2020-12-02T12:42:07Z</time>
      </trkpt>
      <trkpt lat="37.5432" lon="27.62193">
        <ele>708.8</ele>
        <time>2020-12-02T12:42:06Z</time>
      </trkpt>
      <trkpt lat="37.54319" lon="27.62193">
        <ele>708.8</ele>
        <time>2020-12-02T12:42:05Z</time>
      </trkpt>
      <trkpt lat="37.54319" lon="27.62193">
        <ele>709</ele>
        <time>2020-12-02T12:42:04Z</time>
      </trkpt>
      <trkpt lat="37.54319" lon="27.62193">
        <ele>709</ele>
        <time>2020-12-02T12:42:03Z</time>
      </trkpt>
      <trkpt lat="37.54319" lon="27.62193">
        <ele>709.2</ele>
        <time>2020-12-02T12:42:02Z</time>
      </trkpt>
      <trkpt lat="37.54318" lon="27.62194">
        <ele>709.4</ele>
        <time>2020-12-02T12:42:01Z</time>
      </trkpt>
      <trkpt lat="37.54318" lon="27.62194">
        <ele>709.8</ele>
        <time>2020-12-02T12:42:00Z</time>
      </trkpt>
      <trkpt lat="37.54318" lon="27.62194">
        <ele>709.6</ele>
        <time>2020-12-02T12:41:59Z</time>
      </trkpt>
      <trkpt lat="37.54318" lon="27.62194">
        <ele>709.8</ele>
        <time>2020-12-02T12:41:58Z</time>
      </trkpt>
      <trkpt lat="37.54317" lon="27.62194">
        <ele>710.2</ele>
        <time>2020-12-02T12:41:57Z</time>
      </trkpt>
      <trkpt lat="37.54317" lon="27.62194">
        <ele>710.2</ele>
        <time>2020-12-02T12:41:56Z</time>
      </trkpt>
      <trkpt lat="37.54317" lon="27.62194">
        <ele>710.2</ele>
        <time>2020-12-02T12:41:55Z</time>
      </trkpt>
      <trkpt lat="37.54316" lon="27.62194">
        <ele>710.6</ele>
        <time>2020-12-02T12:41:54Z</time>
      </trkpt>
      <trkpt lat="37.54316" lon="27.62195">
        <ele>710.8</ele>
        <time>2020-12-02T12:41:53Z</time>
      </trkpt>
      <trkpt lat="37.54316" lon="27.62195">
        <ele>711</ele>
        <time>2020-12-02T12:41:52Z</time>
      </trkpt>
      <trkpt lat="37.54316" lon="27.62195">
        <ele>711</ele>
        <time>2020-12-02T12:41:51Z</time>
      </trkpt>
      <trkpt lat="37.54315" lon="27.62195">
        <ele>711</ele>
        <time>2020-12-02T12:41:50Z</time>
      </trkpt>
      <trkpt lat="37.54315" lon="27.62195">
        <ele>711</ele>
        <time>2020-12-02T12:41:49Z</time>
      </trkpt>
      <trkpt lat="37.54315" lon="27.62195">
        <ele>711</ele>
        <time>2020-12-02T12:41:48Z</time>
      </trkpt>
      <trkpt lat="37.54315" lon="27.62195">
        <ele>711.2</ele>
        <time>2020-12-02T12:41:47Z</time>
      </trkpt>
      <trkpt lat="37.54314" lon="27.62195">
        <ele>711</ele>
        <time>2020-12-02T12:41:46Z</time>
      </trkpt>
      <trkpt lat="37.54314" lon="27.62196">
        <ele>711.2</ele>
        <time>2020-12-02T12:41:45Z</time>
      </trkpt>
      <trkpt lat="37.54314" lon="27.62196">
        <ele>711.2</ele>
        <time>2020-12-02T12:41:44Z</time>
      </trkpt>
      <trkpt lat="37.54314" lon="27.62196">
        <ele>711.2</ele>
        <time>2020-12-02T12:41:43Z</time>
      </trkpt>
      <trkpt lat="37.54313" lon="27.62196">
        <ele>711.6</ele>
        <time>2020-12-02T12:41:42Z</time>
      </trkpt>
      <trkpt lat="37.54313" lon="27.62196">
        <ele>711.6</ele>
        <time>2020-12-02T12:41:41Z</time>
      </trkpt>
      <trkpt lat="37.54313" lon="27.62196">
        <ele>711.6</ele>
        <time>2020-12-02T12:41:40Z</time>
      </trkpt>
      <trkpt lat="37.54312" lon="27.62196">
        <ele>711.8</ele>
        <time>2020-12-02T12:41:39Z</time>
      </trkpt>
      <trkpt lat="37.54312" lon="27.62197">
        <ele>711.8</ele>
        <time>2020-12-02T12:41:38Z</time>
      </trkpt>
      <trkpt lat="37.54311" lon="27.62197">
        <ele>712</ele>
        <time>2020-12-02T12:41:37Z</time>
      </trkpt>
      <trkpt lat="37.54311" lon="27.62197">
        <ele>712</ele>
        <time>2020-12-02T12:41:36Z</time>
      </trkpt>
      <trkpt lat="37.5431" lon="27.62198">
        <ele>712</ele>
        <time>2020-12-02T12:41:35Z</time>
      </trkpt>
      <trkpt lat="37.5431" lon="27.62198">
        <ele>712.2</ele>
        <time>2020-12-02T12:41:34Z</time>
      </trkpt>
      <trkpt lat="37.54309" lon="27.62198">
        <ele>712.4</ele>
        <time>2020-12-02T12:41:33Z</time>
      </trkpt>
      <trkpt lat="37.54309" lon="27.62198">
        <ele>712.4</ele>
        <time>2020-12-02T12:41:32Z</time>
      </trkpt>
      <trkpt lat="37.54308" lon="27.62199">
        <ele>712.6</ele>
        <time>2020-12-02T12:41:31Z</time>
      </trkpt>
      <trkpt lat="37.54308" lon="27.62199">
        <ele>712.6</ele>
        <time>2020-12-02T12:41:30Z</time>
      </trkpt>
      <trkpt lat="37.54307" lon="27.62199">
        <ele>712.6</ele>
        <time>2020-12-02T12:41:29Z</time>
      </trkpt>
      <trkpt lat="37.54307" lon="27.622">
        <ele>712.6</ele>
        <time>2020-12-02T12:41:28Z</time>
      </trkpt>
      <trkpt lat="37.54306" lon="27.622">
        <ele>712.6</ele>
        <time>2020-12-02T12:41:27Z</time>
      </trkpt>
      <trkpt lat="37.54306" lon="27.622">
        <ele>712.6</ele>
        <time>2020-12-02T12:41:26Z</time>
      </trkpt>
      <trkpt lat="37.54305" lon="27.622">
        <ele>712.8</ele>
        <time>2020-12-02T12:41:25Z</time>
      </trkpt>
      <trkpt lat="37.54304" lon="27.62201">
        <ele>713</ele>
        <time>2020-12-02T12:41:24Z</time>
      </trkpt>
      <trkpt lat="37.54304" lon="27.62201">
        <ele>713.2</ele>
        <time>2020-12-02T12:41:23Z</time>
      </trkpt>
      <trkpt lat="37.54304" lon="27.62202">
        <ele>713.4</ele>
        <time>2020-12-02T12:41:22Z</time>
      </trkpt>
      <trkpt lat="37.54304" lon="27.62203">
        <ele>713.4</ele>
        <time>2020-12-02T12:41:21Z</time>
      </trkpt>
      <trkpt lat="37.54304" lon="27.62204">
        <ele>713.6</ele>
        <time>2020-12-02T12:41:20Z</time>
      </trkpt>
      <trkpt lat="37.54304" lon="27.62205">
        <ele>713.6</ele>
        <time>2020-12-02T12:41:19Z</time>
      </trkpt>
      <trkpt lat="37.54304" lon="27.62206">
        <ele>713.8</ele>
        <time>2020-12-02T12:41:18Z</time>
      </trkpt>
      <trkpt lat="37.54304" lon="27.62207">
        <ele>714</ele>
        <time>2020-12-02T12:41:17Z</time>
      </trkpt>
      <trkpt lat="37.54304" lon="27.62208">
        <ele>714</ele>
        <time>2020-12-02T12:41:16Z</time>
      </trkpt>
      <trkpt lat="37.54304" lon="27.62209">
        <ele>714.2</ele>
        <time>2020-12-02T12:41:15Z</time>
      </trkpt>
      <trkpt lat="37.54304" lon="27.6221">
        <ele>714.6</ele>
        <time>2020-12-02T12:41:14Z</time>
      </trkpt>
      <trkpt lat="37.54304" lon="27.62211">
        <ele>714.8</ele>
        <time>2020-12-02T12:41:13Z</time>
      </trkpt>
      <trkpt lat="37.54304" lon="27.62212">
        <ele>715</ele>
        <time>2020-12-02T12:41:12Z</time>
      </trkpt>
      <trkpt lat="37.54304" lon="27.62213">
        <ele>715.2</ele>
        <time>2020-12-02T12:41:11Z</time>
      </trkpt>
      <trkpt lat="37.54304" lon="27.62214">
        <ele>715.6</ele>
        <time>2020-12-02T12:41:10Z</time>
      </trkpt>
      <trkpt lat="37.54304" lon="27.62214">
        <ele>715.6</ele>
        <time>2020-12-02T12:41:09Z</time>
      </trkpt>
      <trkpt lat="37.54304" lon="27.62215">
        <ele>715.8</ele>
        <time>2020-12-02T12:41:08Z</time>
      </trkpt>
      <trkpt lat="37.54304" lon="27.62215">
        <ele>716</ele>
        <time>2020-12-02T12:41:07Z</time>
      </trkpt>
      <trkpt lat="37.54305" lon="27.62216">
        <ele>716.2</ele>
        <time>2020-12-02T12:41:06Z</time>
      </trkpt>
      <trkpt lat="37.54305" lon="27.62216">
        <ele>716.4</ele>
        <time>2020-12-02T12:41:05Z</time>
      </trkpt>
      <trkpt lat="37.54305" lon="27.62217">
        <ele>716.8</ele>
        <time>2020-12-02T12:41:04Z</time>
      </trkpt>
      <trkpt lat="37.54305" lon="27.62217">
        <ele>717</ele>
        <time>2020-12-02T12:41:03Z</time>
      </trkpt>
      <trkpt lat="37.54305" lon="27.62218">
        <ele>717.2</ele>
        <time>2020-12-02T12:41:02Z</time>
      </trkpt>
      <trkpt lat="37.54306" lon="27.62218">
        <ele>717.2</ele>
        <time>2020-12-02T12:41:01Z</time>
      </trkpt>
      <trkpt lat="37.54306" lon="27.62219">
        <ele>717.6</ele>
        <time>2020-12-02T12:41:00Z</time>
      </trkpt>
      <trkpt lat="37.54306" lon="27.6222">
        <ele>717.6</ele>
        <time>2020-12-02T12:40:59Z</time>
      </trkpt>
      <trkpt lat="37.54306" lon="27.6222">
        <ele>717.8</ele>
        <time>2020-12-02T12:40:58Z</time>
      </trkpt>
      <trkpt lat="37.54306" lon="27.62221">
        <ele>718</ele>
        <time>2020-12-02T12:40:57Z</time>
      </trkpt>
      <trkpt lat="37.54306" lon="27.62221">
        <ele>718</ele>
        <time>2020-12-02T12:40:56Z</time>
      </trkpt>
      <trkpt lat="37.54307" lon="27.62222">
        <ele>718.2</ele>
        <time>2020-12-02T12:40:55Z</time>
      </trkpt>
      <trkpt lat="37.54307" lon="27.62222">
        <ele>718.4</ele>
        <time>2020-12-02T12:40:54Z</time>
      </trkpt>
      <trkpt lat="37.54307" lon="27.62223">
        <ele>718.4</ele>
        <time>2020-12-02T12:40:53Z</time>
      </trkpt>
      <trkpt lat="37.54307" lon="27.62223">
        <ele>718.6</ele>
        <time>2020-12-02T12:40:52Z</time>
      </trkpt>
      <trkpt lat="37.54307" lon="27.62224">
        <ele>718.6</ele>
        <time>2020-12-02T12:40:51Z</time>
      </trkpt>
      <trkpt lat="37.54306" lon="27.62224">
        <ele>718.6</ele>
        <time>2020-12-02T12:40:50Z</time>
      </trkpt>
      <trkpt lat="37.54305" lon="27.62224">
        <ele>718.6</ele>
        <time>2020-12-02T12:40:49Z</time>
      </trkpt>
      <trkpt lat="37.54304" lon="27.62224">
        <ele>718.6</ele>
        <time>2020-12-02T12:40:48Z</time>
      </trkpt>
      <trkpt lat="37.54303" lon="27.62225">
        <ele>718.8</ele>
        <time>2020-12-02T12:40:47Z</time>
      </trkpt>
      <trkpt lat="37.54302" lon="27.62225">
        <ele>718.8</ele>
        <time>2020-12-02T12:40:46Z</time>
      </trkpt>
      <trkpt lat="37.54301" lon="27.62225">
        <ele>718.8</ele>
        <time>2020-12-02T12:40:45Z</time>
      </trkpt>
      <trkpt lat="37.543" lon="27.62225">
        <ele>719</ele>
        <time>2020-12-02T12:40:44Z</time>
      </trkpt>
      <trkpt lat="37.54298" lon="27.62226">
        <ele>719.2</ele>
        <time>2020-12-02T12:40:43Z</time>
      </trkpt>
      <trkpt lat="37.54298" lon="27.62225">
        <ele>719.4</ele>
        <time>2020-12-02T12:40:42Z</time>
      </trkpt>
      <trkpt lat="37.54298" lon="27.62225">
        <ele>719.4</ele>
        <time>2020-12-02T12:40:41Z</time>
      </trkpt>
      <trkpt lat="37.54297" lon="27.62224">
        <ele>719.4</ele>
        <time>2020-12-02T12:40:40Z</time>
      </trkpt>
      <trkpt lat="37.54297" lon="27.62224">
        <ele>719.6</ele>
        <time>2020-12-02T12:40:39Z</time>
      </trkpt>
      <trkpt lat="37.54296" lon="27.62224">
        <ele>719.8</ele>
        <time>2020-12-02T12:40:38Z</time>
      </trkpt>
      <trkpt lat="37.54296" lon="27.62223">
        <ele>719.8</ele>
        <time>2020-12-02T12:40:37Z</time>
      </trkpt>
      <trkpt lat="37.54295" lon="27.62223">
        <ele>719.8</ele>
        <time>2020-12-02T12:40:36Z</time>
      </trkpt>
      <trkpt lat="37.54295" lon="27.62222">
        <ele>720</ele>
        <time>2020-12-02T12:40:35Z</time>
      </trkpt>
      <trkpt lat="37.54294" lon="27.62222">
        <ele>720</ele>
        <time>2020-12-02T12:40:34Z</time>
      </trkpt>
      <trkpt lat="37.54294" lon="27.62222">
        <ele>719.8</ele>
        <time>2020-12-02T12:40:33Z</time>
      </trkpt>
      <trkpt lat="37.54294" lon="27.62221">
        <ele>720</ele>
        <time>2020-12-02T12:40:32Z</time>
      </trkpt>
      <trkpt lat="37.54293" lon="27.62221">
        <ele>720</ele>
        <time>2020-12-02T12:40:31Z</time>
      </trkpt>
      <trkpt lat="37.54293" lon="27.6222">
        <ele>720</ele>
        <time>2020-12-02T12:40:30Z</time>
      </trkpt>
      <trkpt lat="37.54292" lon="27.6222">
        <ele>720.2</ele>
        <time>2020-12-02T12:40:29Z</time>
      </trkpt>
      <trkpt lat="37.54292" lon="27.6222">
        <ele>720.2</ele>
        <time>2020-12-02T12:40:28Z</time>
      </trkpt>
      <trkpt lat="37.54291" lon="27.62219">
        <ele>720.2</ele>
        <time>2020-12-02T12:40:27Z</time>
      </trkpt>
      <trkpt lat="37.54291" lon="27.62219">
        <ele>720.2</ele>
        <time>2020-12-02T12:40:26Z</time>
      </trkpt>
      <trkpt lat="37.54291" lon="27.62219">
        <ele>720.2</ele>
        <time>2020-12-02T12:40:25Z</time>
      </trkpt>
      <trkpt lat="37.54291" lon="27.62219">
        <ele>720.2</ele>
        <time>2020-12-02T12:40:24Z</time>
      </trkpt>
      <trkpt lat="37.54291" lon="27.6222">
        <ele>720.4</ele>
        <time>2020-12-02T12:40:23Z</time>
      </trkpt>
      <trkpt lat="37.54291" lon="27.6222">
        <ele>720.4</ele>
        <time>2020-12-02T12:40:22Z</time>
      </trkpt>
      <trkpt lat="37.54291" lon="27.62221">
        <ele>720.4</ele>
        <time>2020-12-02T12:40:21Z</time>
      </trkpt>
      <trkpt lat="37.54291" lon="27.62221">
        <ele>720.6</ele>
        <time>2020-12-02T12:40:20Z</time>
      </trkpt>
      <trkpt lat="37.54291" lon="27.62221">
        <ele>720.8</ele>
        <time>2020-12-02T12:40:19Z</time>
      </trkpt>
      <trkpt lat="37.54291" lon="27.62222">
        <ele>720.8</ele>
        <time>2020-12-02T12:40:18Z</time>
      </trkpt>
      <trkpt lat="37.54291" lon="27.62222">
        <ele>720.8</ele>
        <time>2020-12-02T12:40:17Z</time>
      </trkpt>
      <trkpt lat="37.54291" lon="27.62222">
        <ele>721</ele>
        <time>2020-12-02T12:40:16Z</time>
      </trkpt>
      <trkpt lat="37.54291" lon="27.62223">
        <ele>721.2</ele>
        <time>2020-12-02T12:40:15Z</time>
      </trkpt>
      <trkpt lat="37.54291" lon="27.62223">
        <ele>721.4</ele>
        <time>2020-12-02T12:40:14Z</time>
      </trkpt>
      <trkpt lat="37.54291" lon="27.62223">
        <ele>721.4</ele>
        <time>2020-12-02T12:40:13Z</time>
      </trkpt>
      <trkpt lat="37.54291" lon="27.62224">
        <ele>721.4</ele>
        <time>2020-12-02T12:40:12Z</time>
      </trkpt>
      <trkpt lat="37.54291" lon="27.62224">
        <ele>721.6</ele>
        <time>2020-12-02T12:40:11Z</time>
      </trkpt>
      <trkpt lat="37.54291" lon="27.62224">
        <ele>721.8</ele>
        <time>2020-12-02T12:40:10Z</time>
      </trkpt>
      <trkpt lat="37.54291" lon="27.62225">
        <ele>722</ele>
        <time>2020-12-02T12:40:09Z</time>
      </trkpt>
      <trkpt lat="37.54291" lon="27.62225">
        <ele>722</ele>
        <time>2020-12-02T12:40:08Z</time>
      </trkpt>
      <trkpt lat="37.54291" lon="27.62225">
        <ele>722.2</ele>
        <time>2020-12-02T12:40:07Z</time>
      </trkpt>
      <trkpt lat="37.54291" lon="27.62226">
        <ele>722.6</ele>
        <time>2020-12-02T12:40:06Z</time>
      </trkpt>
      <trkpt lat="37.54291" lon="27.62226">
        <ele>722.6</ele>
        <time>2020-12-02T12:40:05Z</time>
      </trkpt>
      <trkpt lat="37.54291" lon="27.62227">
        <ele>722.8</ele>
        <time>2020-12-02T12:40:04Z</time>
      </trkpt>
      <trkpt lat="37.54291" lon="27.62227">
        <ele>723</ele>
        <time>2020-12-02T12:40:03Z</time>
      </trkpt>
      <trkpt lat="37.54291" lon="27.62227">
        <ele>723</ele>
        <time>2020-12-02T12:40:02Z</time>
      </trkpt>
      <trkpt lat="37.54291" lon="27.62228">
        <ele>723.2</ele>
        <time>2020-12-02T12:40:01Z</time>
      </trkpt>
      <trkpt lat="37.54291" lon="27.62228">
        <ele>723.4</ele>
        <time>2020-12-02T12:40:00Z</time>
      </trkpt>
      <trkpt lat="37.54291" lon="27.62228">
        <ele>723.4</ele>
        <time>2020-12-02T12:39:59Z</time>
      </trkpt>
      <trkpt lat="37.54291" lon="27.62229">
        <ele>723.4</ele>
        <time>2020-12-02T12:39:58Z</time>
      </trkpt>
      <trkpt lat="37.54291" lon="27.62229">
        <ele>723.4</ele>
        <time>2020-12-02T12:39:57Z</time>
      </trkpt>
      <trkpt lat="37.54291" lon="27.62229">
        <ele>723.6</ele>
        <time>2020-12-02T12:39:56Z</time>
      </trkpt>
      <trkpt lat="37.54291" lon="27.6223">
        <ele>723.6</ele>
        <time>2020-12-02T12:39:55Z</time>
      </trkpt>
      <trkpt lat="37.54291" lon="27.6223">
        <ele>723.6</ele>
        <time>2020-12-02T12:39:54Z</time>
      </trkpt>
      <trkpt lat="37.54291" lon="27.6223">
        <ele>723.8</ele>
        <time>2020-12-02T12:39:53Z</time>
      </trkpt>
      <trkpt lat="37.5429" lon="27.6223">
        <ele>724</ele>
        <time>2020-12-02T12:39:52Z</time>
      </trkpt>
      <trkpt lat="37.5429" lon="27.62231">
        <ele>724.2</ele>
        <time>2020-12-02T12:39:51Z</time>
      </trkpt>
      <trkpt lat="37.5429" lon="27.62231">
        <ele>724.2</ele>
        <time>2020-12-02T12:39:50Z</time>
      </trkpt>
      <trkpt lat="37.54289" lon="27.62231">
        <ele>724.4</ele>
        <time>2020-12-02T12:39:49Z</time>
      </trkpt>
      <trkpt lat="37.54289" lon="27.62231">
        <ele>724.6</ele>
        <time>2020-12-02T12:39:48Z</time>
      </trkpt>
      <trkpt lat="37.54289" lon="27.62231">
        <ele>724.6</ele>
        <time>2020-12-02T12:39:47Z</time>
      </trkpt>
      <trkpt lat="37.54288" lon="27.62231">
        <ele>724.8</ele>
        <time>2020-12-02T12:39:46Z</time>
      </trkpt>
      <trkpt lat="37.54288" lon="27.62231">
        <ele>725</ele>
        <time>2020-12-02T12:39:45Z</time>
      </trkpt>
      <trkpt lat="37.54288" lon="27.62232">
        <ele>725.2</ele>
        <time>2020-12-02T12:39:44Z</time>
      </trkpt>
      <trkpt lat="37.54287" lon="27.62232">
        <ele>725.2</ele>
        <time>2020-12-02T12:39:43Z</time>
      </trkpt>
      <trkpt lat="37.54287" lon="27.62232">
        <ele>725.2</ele>
        <time>2020-12-02T12:39:42Z</time>
      </trkpt>
      <trkpt lat="37.54286" lon="27.62232">
        <ele>725.4</ele>
        <time>2020-12-02T12:39:41Z</time>
      </trkpt>
      <trkpt lat="37.54286" lon="27.62232">
        <ele>725.4</ele>
        <time>2020-12-02T12:39:40Z</time>
      </trkpt>
      <trkpt lat="37.54286" lon="27.62232">
        <ele>725.4</ele>
        <time>2020-12-02T12:39:39Z</time>
      </trkpt>
      <trkpt lat="37.54285" lon="27.62233">
        <ele>725.6</ele>
        <time>2020-12-02T12:39:38Z</time>
      </trkpt>
      <trkpt lat="37.54285" lon="27.62233">
        <ele>725.6</ele>
        <time>2020-12-02T12:39:37Z</time>
      </trkpt>
      <trkpt lat="37.54285" lon="27.62233">
        <ele>726</ele>
        <time>2020-12-02T12:39:36Z</time>
      </trkpt>
      <trkpt lat="37.54284" lon="27.62233">
        <ele>726.2</ele>
        <time>2020-12-02T12:39:35Z</time>
      </trkpt>
      <trkpt lat="37.54284" lon="27.62233">
        <ele>726.4</ele>
        <time>2020-12-02T12:39:34Z</time>
      </trkpt>
      <trkpt lat="37.54284" lon="27.62233">
        <ele>726.6</ele>
        <time>2020-12-02T12:39:33Z</time>
      </trkpt>
      <trkpt lat="37.54283" lon="27.62234">
        <ele>726.8</ele>
        <time>2020-12-02T12:39:32Z</time>
      </trkpt>
      <trkpt lat="37.54283" lon="27.62234">
        <ele>726.8</ele>
        <time>2020-12-02T12:39:31Z</time>
      </trkpt>
      <trkpt lat="37.54282" lon="27.62234">
        <ele>726.8</ele>
        <time>2020-12-02T12:39:30Z</time>
      </trkpt>
      <trkpt lat="37.54282" lon="27.62234">
        <ele>726.8</ele>
        <time>2020-12-02T12:39:29Z</time>
      </trkpt>
      <trkpt lat="37.54281" lon="27.62233">
        <ele>726.8</ele>
        <time>2020-12-02T12:39:28Z</time>
      </trkpt>
      <trkpt lat="37.5428" lon="27.62232">
        <ele>727</ele>
        <time>2020-12-02T12:39:27Z</time>
      </trkpt>
      <trkpt lat="37.54279" lon="27.6223">
        <ele>727</ele>
        <time>2020-12-02T12:39:26Z</time>
      </trkpt>
      <trkpt lat="37.54278" lon="27.62229">
        <ele>727.2</ele>
        <time>2020-12-02T12:39:25Z</time>
      </trkpt>
      <trkpt lat="37.54277" lon="27.62228">
        <ele>727.2</ele>
        <time>2020-12-02T12:39:24Z</time>
      </trkpt>
      <trkpt lat="37.54276" lon="27.62227">
        <ele>727.4</ele>
        <time>2020-12-02T12:39:23Z</time>
      </trkpt>
      <trkpt lat="37.54276" lon="27.62225">
        <ele>727.6</ele>
        <time>2020-12-02T12:39:22Z</time>
      </trkpt>
      <trkpt lat="37.54275" lon="27.62225">
        <ele>727.6</ele>
        <time>2020-12-02T12:39:21Z</time>
      </trkpt>
      <trkpt lat="37.54274" lon="27.62225">
        <ele>727.8</ele>
        <time>2020-12-02T12:39:20Z</time>
      </trkpt>
      <trkpt lat="37.54274" lon="27.62224">
        <ele>727.8</ele>
        <time>2020-12-02T12:39:19Z</time>
      </trkpt>
      <trkpt lat="37.54273" lon="27.62224">
        <ele>728.2</ele>
        <time>2020-12-02T12:39:18Z</time>
      </trkpt>
      <trkpt lat="37.54273" lon="27.62224">
        <ele>728.2</ele>
        <time>2020-12-02T12:39:17Z</time>
      </trkpt>
      <trkpt lat="37.54272" lon="27.62223">
        <ele>728.2</ele>
        <time>2020-12-02T12:39:16Z</time>
      </trkpt>
      <trkpt lat="37.54272" lon="27.62223">
        <ele>728.4</ele>
        <time>2020-12-02T12:39:15Z</time>
      </trkpt>
      <trkpt lat="37.54271" lon="27.62222">
        <ele>728.6</ele>
        <time>2020-12-02T12:39:14Z</time>
      </trkpt>
      <trkpt lat="37.5427" lon="27.62222">
        <ele>728.6</ele>
        <time>2020-12-02T12:39:13Z</time>
      </trkpt>
      <trkpt lat="37.5427" lon="27.62222">
        <ele>728.8</ele>
        <time>2020-12-02T12:39:12Z</time>
      </trkpt>
      <trkpt lat="37.54269" lon="27.62221">
        <ele>729</ele>
        <time>2020-12-02T12:39:11Z</time>
      </trkpt>
      <trkpt lat="37.54269" lon="27.62221">
        <ele>729.2</ele>
        <time>2020-12-02T12:39:10Z</time>
      </trkpt>
      <trkpt lat="37.54268" lon="27.62221">
        <ele>729.2</ele>
        <time>2020-12-02T12:39:09Z</time>
      </trkpt>
      <trkpt lat="37.54268" lon="27.6222">
        <ele>729.6</ele>
        <time>2020-12-02T12:39:08Z</time>
      </trkpt>
      <trkpt lat="37.54267" lon="27.6222">
        <ele>729.6</ele>
        <time>2020-12-02T12:39:07Z</time>
      </trkpt>
      <trkpt lat="37.54266" lon="27.62219">
        <ele>729.6</ele>
        <time>2020-12-02T12:39:06Z</time>
      </trkpt>
      <trkpt lat="37.54267" lon="27.62219">
        <ele>729.6</ele>
        <time>2020-12-02T12:39:05Z</time>
      </trkpt>
      <trkpt lat="37.54268" lon="27.62219">
        <ele>729.8</ele>
        <time>2020-12-02T12:39:04Z</time>
      </trkpt>
      <trkpt lat="37.54269" lon="27.62219">
        <ele>729.8</ele>
        <time>2020-12-02T12:39:03Z</time>
      </trkpt>
      <trkpt lat="37.5427" lon="27.62219">
        <ele>730</ele>
        <time>2020-12-02T12:39:02Z</time>
      </trkpt>
      <trkpt lat="37.5427" lon="27.62219">
        <ele>730</ele>
        <time>2020-12-02T12:39:01Z</time>
      </trkpt>
      <trkpt lat="37.54271" lon="27.62219">
        <ele>729.8</ele>
        <time>2020-12-02T12:39:00Z</time>
      </trkpt>
      <trkpt lat="37.54272" lon="27.62219">
        <ele>730</ele>
        <time>2020-12-02T12:38:59Z</time>
      </trkpt>
      <trkpt lat="37.54273" lon="27.62219">
        <ele>730</ele>
        <time>2020-12-02T12:38:58Z</time>
      </trkpt>
      <trkpt lat="37.54273" lon="27.62219">
        <ele>729.8</ele>
        <time>2020-12-02T12:38:57Z</time>
      </trkpt>
      <trkpt lat="37.54274" lon="27.62219">
        <ele>730</ele>
        <time>2020-12-02T12:38:56Z</time>
      </trkpt>
      <trkpt lat="37.54275" lon="27.62219">
        <ele>730.2</ele>
        <time>2020-12-02T12:38:55Z</time>
      </trkpt>
      <trkpt lat="37.54276" lon="27.62219">
        <ele>730.4</ele>
        <time>2020-12-02T12:38:54Z</time>
      </trkpt>
      <trkpt lat="37.54276" lon="27.62219">
        <ele>730.4</ele>
        <time>2020-12-02T12:38:53Z</time>
      </trkpt>
      <trkpt lat="37.54277" lon="27.62219">
        <ele>730.6</ele>
        <time>2020-12-02T12:38:52Z</time>
      </trkpt>
      <trkpt lat="37.54278" lon="27.62219">
        <ele>730.6</ele>
        <time>2020-12-02T12:38:51Z</time>
      </trkpt>
      <trkpt lat="37.54279" lon="27.62219">
        <ele>730.6</ele>
        <time>2020-12-02T12:38:50Z</time>
      </trkpt>
      <trkpt lat="37.54279" lon="27.62219">
        <ele>730.4</ele>
        <time>2020-12-02T12:38:49Z</time>
      </trkpt>
      <trkpt lat="37.54279" lon="27.62219">
        <ele>730.6</ele>
        <time>2020-12-02T12:38:48Z</time>
      </trkpt>
      <trkpt lat="37.54279" lon="27.62219">
        <ele>730.8</ele>
        <time>2020-12-02T12:38:47Z</time>
      </trkpt>
      <trkpt lat="37.54279" lon="27.62219">
        <ele>731</ele>
        <time>2020-12-02T12:38:46Z</time>
      </trkpt>
      <trkpt lat="37.54279" lon="27.62219">
        <ele>731.2</ele>
        <time>2020-12-02T12:38:45Z</time>
      </trkpt>
      <trkpt lat="37.54278" lon="27.62219">
        <ele>731.4</ele>
        <time>2020-12-02T12:38:44Z</time>
      </trkpt>
      <trkpt lat="37.54278" lon="27.6222">
        <ele>731.8</ele>
        <time>2020-12-02T12:38:43Z</time>
      </trkpt>
      <trkpt lat="37.54278" lon="27.6222">
        <ele>732</ele>
        <time>2020-12-02T12:38:42Z</time>
      </trkpt>
      <trkpt lat="37.54278" lon="27.6222">
        <ele>732.4</ele>
        <time>2020-12-02T12:38:41Z</time>
      </trkpt>
      <trkpt lat="37.54278" lon="27.6222">
        <ele>732.6</ele>
        <time>2020-12-02T12:38:40Z</time>
      </trkpt>
      <trkpt lat="37.54278" lon="27.6222">
        <ele>732.6</ele>
        <time>2020-12-02T12:38:39Z</time>
      </trkpt>
      <trkpt lat="37.54277" lon="27.6222">
        <ele>732.4</ele>
        <time>2020-12-02T12:38:38Z</time>
      </trkpt>
      <trkpt lat="37.54277" lon="27.6222">
        <ele>732.6</ele>
        <time>2020-12-02T12:38:37Z</time>
      </trkpt>
      <trkpt lat="37.54277" lon="27.6222">
        <ele>732.6</ele>
        <time>2020-12-02T12:38:36Z</time>
      </trkpt>
      <trkpt lat="37.54277" lon="27.62221">
        <ele>732.8</ele>
        <time>2020-12-02T12:38:35Z</time>
      </trkpt>
      <trkpt lat="37.54277" lon="27.62221">
        <ele>732.8</ele>
        <time>2020-12-02T12:38:34Z</time>
      </trkpt>
      <trkpt lat="37.54276" lon="27.62221">
        <ele>732.6</ele>
        <time>2020-12-02T12:38:33Z</time>
      </trkpt>
      <trkpt lat="37.54276" lon="27.62221">
        <ele>732.6</ele>
        <time>2020-12-02T12:38:32Z</time>
      </trkpt>
      <trkpt lat="37.54276" lon="27.62221">
        <ele>732.8</ele>
        <time>2020-12-02T12:38:31Z</time>
      </trkpt>
      <trkpt lat="37.54276" lon="27.62221">
        <ele>733.2</ele>
        <time>2020-12-02T12:38:30Z</time>
      </trkpt>
      <trkpt lat="37.54276" lon="27.62221">
        <ele>733.6</ele>
        <time>2020-12-02T12:38:29Z</time>
      </trkpt>
      <trkpt lat="37.54275" lon="27.62221">
        <ele>734</ele>
        <time>2020-12-02T12:38:28Z</time>
      </trkpt>
      <trkpt lat="37.54275" lon="27.62221">
        <ele>734</ele>
        <time>2020-12-02T12:38:27Z</time>
      </trkpt>
      <trkpt lat="37.54275" lon="27.62222">
        <ele>734.2</ele>
        <time>2020-12-02T12:38:26Z</time>
      </trkpt>
      <trkpt lat="37.54275" lon="27.62222">
        <ele>734.4</ele>
        <time>2020-12-02T12:38:25Z</time>
      </trkpt>
      <trkpt lat="37.54275" lon="27.62222">
        <ele>734.6</ele>
        <time>2020-12-02T12:38:24Z</time>
      </trkpt>
      <trkpt lat="37.54274" lon="27.62222">
        <ele>735</ele>
        <time>2020-12-02T12:38:23Z</time>
      </trkpt>
      <trkpt lat="37.54274" lon="27.62222">
        <ele>735.4</ele>
        <time>2020-12-02T12:38:22Z</time>
      </trkpt>
      <trkpt lat="37.54274" lon="27.62222">
        <ele>735.4</ele>
        <time>2020-12-02T12:38:21Z</time>
      </trkpt>
      <trkpt lat="37.54274" lon="27.62222">
        <ele>735.4</ele>
        <time>2020-12-02T12:38:20Z</time>
      </trkpt>
      <trkpt lat="37.54274" lon="27.62222">
        <ele>735.6</ele>
        <time>2020-12-02T12:38:19Z</time>
      </trkpt>
      <trkpt lat="37.54273" lon="27.62223">
        <ele>735.6</ele>
        <time>2020-12-02T12:38:18Z</time>
      </trkpt>
      <trkpt lat="37.54273" lon="27.62223">
        <ele>735.8</ele>
        <time>2020-12-02T12:38:17Z</time>
      </trkpt>
      <trkpt lat="37.54273" lon="27.62223">
        <ele>736</ele>
        <time>2020-12-02T12:38:16Z</time>
      </trkpt>
      <trkpt lat="37.54273" lon="27.62223">
        <ele>736</ele>
        <time>2020-12-02T12:38:15Z</time>
      </trkpt>
      <trkpt lat="37.54273" lon="27.62223">
        <ele>736</ele>
        <time>2020-12-02T12:38:14Z</time>
      </trkpt>
      <trkpt lat="37.54273" lon="27.62223">
        <ele>735.8</ele>
        <time>2020-12-02T12:38:13Z</time>
      </trkpt>
      <trkpt lat="37.54272" lon="27.62223">
        <ele>736</ele>
        <time>2020-12-02T12:38:12Z</time>
      </trkpt>
      <trkpt lat="37.54272" lon="27.62223">
        <ele>736.4</ele>
        <time>2020-12-02T12:38:11Z</time>
      </trkpt>
      <trkpt lat="37.54272" lon="27.62223">
        <ele>736.6</ele>
        <time>2020-12-02T12:38:10Z</time>
      </trkpt>
      <trkpt lat="37.54272" lon="27.62224">
        <ele>736.8</ele>
        <time>2020-12-02T12:38:09Z</time>
      </trkpt>
      <trkpt lat="37.54272" lon="27.62224">
        <ele>737.2</ele>
        <time>2020-12-02T12:38:08Z</time>
      </trkpt>
      <trkpt lat="37.54271" lon="27.62224">
        <ele>737.4</ele>
        <time>2020-12-02T12:38:07Z</time>
      </trkpt>
      <trkpt lat="37.54271" lon="27.62224">
        <ele>737.4</ele>
        <time>2020-12-02T12:38:06Z</time>
      </trkpt>
      <trkpt lat="37.54271" lon="27.62224">
        <ele>737.6</ele>
        <time>2020-12-02T12:38:05Z</time>
      </trkpt>
      <trkpt lat="37.54272" lon="27.62224">
        <ele>737.6</ele>
        <time>2020-12-02T12:38:04Z</time>
      </trkpt>
      <trkpt lat="37.54272" lon="27.62223">
        <ele>737.6</ele>
        <time>2020-12-02T12:38:03Z</time>
      </trkpt>
      <trkpt lat="37.54272" lon="27.62223">
        <ele>737.6</ele>
        <time>2020-12-02T12:38:02Z</time>
      </trkpt>
      <trkpt lat="37.54272" lon="27.62223">
        <ele>737.6</ele>
        <time>2020-12-02T12:38:01Z</time>
      </trkpt>
      <trkpt lat="37.54272" lon="27.62223">
        <ele>737.6</ele>
        <time>2020-12-02T12:38:00Z</time>
      </trkpt>
      <trkpt lat="37.54272" lon="27.62223">
        <ele>737.6</ele>
        <time>2020-12-02T12:37:59Z</time>
      </trkpt>
      <trkpt lat="37.54273" lon="27.62222">
        <ele>737.4</ele>
        <time>2020-12-02T12:37:58Z</time>
      </trkpt>
      <trkpt lat="37.54273" lon="27.62222">
        <ele>737.6</ele>
        <time>2020-12-02T12:37:57Z</time>
      </trkpt>
      <trkpt lat="37.54273" lon="27.62222">
        <ele>737.8</ele>
        <time>2020-12-02T12:37:56Z</time>
      </trkpt>
      <trkpt lat="37.54273" lon="27.62222">
        <ele>738.2</ele>
        <time>2020-12-02T12:37:55Z</time>
      </trkpt>
      <trkpt lat="37.54273" lon="27.62221">
        <ele>738.2</ele>
        <time>2020-12-02T12:37:54Z</time>
      </trkpt>
      <trkpt lat="37.54274" lon="27.62221">
        <ele>738.4</ele>
        <time>2020-12-02T12:37:53Z</time>
      </trkpt>
      <trkpt lat="37.54274" lon="27.62221">
        <ele>738.6</ele>
        <time>2020-12-02T12:37:52Z</time>
      </trkpt>
      <trkpt lat="37.54274" lon="27.62221">
        <ele>738.8</ele>
        <time>2020-12-02T12:37:51Z</time>
      </trkpt>
      <trkpt lat="37.54274" lon="27.62221">
        <ele>738.8</ele>
        <time>2020-12-02T12:37:50Z</time>
      </trkpt>
      <trkpt lat="37.54274" lon="27.62221">
        <ele>739</ele>
        <time>2020-12-02T12:37:49Z</time>
      </trkpt>
      <trkpt lat="37.54272" lon="27.62219">
        <ele>739.6</ele>
        <time>2020-12-02T12:37:48Z</time>
      </trkpt>
      <trkpt lat="37.54272" lon="27.62219">
        <ele>739.6</ele>
        <time>2020-12-02T12:37:47Z</time>
      </trkpt>
      <trkpt lat="37.54272" lon="27.62219">
        <ele>740</ele>
        <time>2020-12-02T12:37:46Z</time>
      </trkpt>
      <trkpt lat="37.5427" lon="27.62217">
        <ele>740.2</ele>
        <time>2020-12-02T12:37:45Z</time>
      </trkpt>
      <trkpt lat="37.5427" lon="27.62217">
        <ele>740.6</ele>
        <time>2020-12-02T12:37:44Z</time>
      </trkpt>
      <trkpt lat="37.5427" lon="27.62217">
        <ele>740.6</ele>
        <time>2020-12-02T12:37:43Z</time>
      </trkpt>
      <trkpt lat="37.5427" lon="27.62217">
        <ele>740.4</ele>
        <time>2020-12-02T12:37:42Z</time>
      </trkpt>
      <trkpt lat="37.5427" lon="27.62217">
        <ele>740.2</ele>
        <time>2020-12-02T12:37:41Z</time>
      </trkpt>
      <trkpt lat="37.5427" lon="27.62217">
        <ele>740</ele>
        <time>2020-12-02T12:37:40Z</time>
      </trkpt>
      <trkpt lat="37.5427" lon="27.62217">
        <ele>740</ele>
        <time>2020-12-02T12:37:39Z</time>
      </trkpt>
      <trkpt lat="37.5427" lon="27.62217">
        <ele>739.8</ele>
        <time>2020-12-02T12:37:38Z</time>
      </trkpt>
      <trkpt lat="37.5427" lon="27.62217">
        <ele>739.4</ele>
        <time>2020-12-02T12:37:37Z</time>
      </trkpt>
      <trkpt lat="37.5427" lon="27.62217">
        <ele>739.2</ele>
        <time>2020-12-02T12:37:36Z</time>
      </trkpt>
      <trkpt lat="37.5427" lon="27.62217">
        <ele>739.2</ele>
        <time>2020-12-02T12:37:35Z</time>
      </trkpt>
      <trkpt lat="37.5427" lon="27.62217">
        <ele>739.2</ele>
        <time>2020-12-02T12:37:34Z</time>
      </trkpt>
      <trkpt lat="37.5427" lon="27.62217">
        <ele>739.2</ele>
        <time>2020-12-02T12:37:33Z</time>
      </trkpt>
      <trkpt lat="37.5427" lon="27.62217">
        <ele>739.2</ele>
        <time>2020-12-02T12:37:32Z</time>
      </trkpt>
      <trkpt lat="37.5427" lon="27.62217">
        <ele>739.2</ele>
        <time>2020-12-02T12:37:31Z</time>
      </trkpt>
      <trkpt lat="37.5427" lon="27.62217">
        <ele>739.2</ele>
        <time>2020-12-02T12:37:30Z</time>
      </trkpt>
      <trkpt lat="37.5427" lon="27.62217">
        <ele>739.2</ele>
        <time>2020-12-02T12:37:29Z</time>
      </trkpt>
      <trkpt lat="37.5427" lon="27.62217">
        <ele>739</ele>
        <time>2020-12-02T12:37:28Z</time>
      </trkpt>
      <trkpt lat="37.5427" lon="27.62217">
        <ele>739.2</ele>
        <time>2020-12-02T12:37:27Z</time>
      </trkpt>
      <trkpt lat="37.5427" lon="27.62217">
        <ele>739.2</ele>
        <time>2020-12-02T12:37:26Z</time>
      </trkpt>
      <trkpt lat="37.5427" lon="27.62217">
        <ele>739</ele>
        <time>2020-12-02T12:37:25Z</time>
      </trkpt>
      <trkpt lat="37.5427" lon="27.62217">
        <ele>739.2</ele>
        <time>2020-12-02T12:37:24Z</time>
      </trkpt>
      <trkpt lat="37.5427" lon="27.62217">
        <ele>739</ele>
        <time>2020-12-02T12:37:23Z</time>
      </trkpt>
      <trkpt lat="37.5427" lon="27.62217">
        <ele>739</ele>
        <time>2020-12-02T12:37:22Z</time>
      </trkpt>
      <trkpt lat="37.5427" lon="27.62217">
        <ele>739</ele>
        <time>2020-12-02T12:37:21Z</time>
      </trkpt>
      <trkpt lat="37.5427" lon="27.62217">
        <ele>739</ele>
        <time>2020-12-02T12:37:20Z</time>
      </trkpt>
      <trkpt lat="37.5427" lon="27.62217">
        <ele>739</ele>
        <time>2020-12-02T12:37:19Z</time>
      </trkpt>
      <trkpt lat="37.5427" lon="27.62217">
        <ele>739.2</ele>
        <time>2020-12-02T12:37:18Z</time>
      </trkpt>
      <trkpt lat="37.5427" lon="27.62217">
        <ele>739.2</ele>
        <time>2020-12-02T12:37:17Z</time>
      </trkpt>
      <trkpt lat="37.5427" lon="27.62217">
        <ele>739.2</ele>
        <time>2020-12-02T12:37:16Z</time>
      </trkpt>
      <trkpt lat="37.5427" lon="27.62216">
        <ele>739.2</ele>
        <time>2020-12-02T12:37:15Z</time>
      </trkpt>
      <trkpt lat="37.5427" lon="27.62216">
        <ele>739.2</ele>
        <time>2020-12-02T12:37:14Z</time>
      </trkpt>
      <trkpt lat="37.54269" lon="27.62216">
        <ele>739.6</ele>
        <time>2020-12-02T12:37:13Z</time>
      </trkpt>
      <trkpt lat="37.54269" lon="27.62215">
        <ele>739.8</ele>
        <time>2020-12-02T12:37:12Z</time>
      </trkpt>
      <trkpt lat="37.54268" lon="27.62215">
        <ele>740</ele>
        <time>2020-12-02T12:37:11Z</time>
      </trkpt>
      <trkpt lat="37.54268" lon="27.62215">
        <ele>740.2</ele>
        <time>2020-12-02T12:37:10Z</time>
      </trkpt>
      <trkpt lat="37.54268" lon="27.62214">
        <ele>740.4</ele>
        <time>2020-12-02T12:37:09Z</time>
      </trkpt>
      <trkpt lat="37.54267" lon="27.62214">
        <ele>740.6</ele>
        <time>2020-12-02T12:37:08Z</time>
      </trkpt>
      <trkpt lat="37.54267" lon="27.62214">
        <ele>740.6</ele>
        <time>2020-12-02T12:37:07Z</time>
      </trkpt>
      <trkpt lat="37.54267" lon="27.62213">
        <ele>740.8</ele>
        <time>2020-12-02T12:37:06Z</time>
      </trkpt>
      <trkpt lat="37.54266" lon="27.62213">
        <ele>740.8</ele>
        <time>2020-12-02T12:37:05Z</time>
      </trkpt>
      <trkpt lat="37.54266" lon="27.62213">
        <ele>741</ele>
        <time>2020-12-02T12:37:04Z</time>
      </trkpt>
      <trkpt lat="37.54265" lon="27.62212">
        <ele>741</ele>
        <time>2020-12-02T12:37:03Z</time>
      </trkpt>
      <trkpt lat="37.54265" lon="27.62212">
        <ele>741</ele>
        <time>2020-12-02T12:37:02Z</time>
      </trkpt>
      <trkpt lat="37.54265" lon="27.62212">
        <ele>741.6</ele>
        <time>2020-12-02T12:37:01Z</time>
      </trkpt>
      <trkpt lat="37.54264" lon="27.62211">
        <ele>741.6</ele>
        <time>2020-12-02T12:37:00Z</time>
      </trkpt>
      <trkpt lat="37.54264" lon="27.62211">
        <ele>741.8</ele>
        <time>2020-12-02T12:36:59Z</time>
      </trkpt>
      <trkpt lat="37.54263" lon="27.6221">
        <ele>742</ele>
        <time>2020-12-02T12:36:58Z</time>
      </trkpt>
      <trkpt lat="37.54263" lon="27.6221">
        <ele>742.2</ele>
        <time>2020-12-02T12:36:57Z</time>
      </trkpt>
      <trkpt lat="37.54263" lon="27.6221">
        <ele>742.2</ele>
        <time>2020-12-02T12:36:56Z</time>
      </trkpt>
      <trkpt lat="37.54263" lon="27.62211">
        <ele>742.2</ele>
        <time>2020-12-02T12:36:55Z</time>
      </trkpt>
      <trkpt lat="37.54262" lon="27.62211">
        <ele>742.2</ele>
        <time>2020-12-02T12:36:54Z</time>
      </trkpt>
      <trkpt lat="37.54262" lon="27.62211">
        <ele>742.2</ele>
        <time>2020-12-02T12:36:53Z</time>
      </trkpt>
      <trkpt lat="37.54262" lon="27.62211">
        <ele>742.4</ele>
        <time>2020-12-02T12:36:52Z</time>
      </trkpt>
      <trkpt lat="37.54262" lon="27.62211">
        <ele>742.2</ele>
        <time>2020-12-02T12:36:51Z</time>
      </trkpt>
      <trkpt lat="37.54262" lon="27.62212">
        <ele>742.2</ele>
        <time>2020-12-02T12:36:50Z</time>
      </trkpt>
      <trkpt lat="37.54262" lon="27.62212">
        <ele>742.2</ele>
        <time>2020-12-02T12:36:49Z</time>
      </trkpt>
      <trkpt lat="37.54262" lon="27.62212">
        <ele>742.2</ele>
        <time>2020-12-02T12:36:48Z</time>
      </trkpt>
      <trkpt lat="37.54261" lon="27.62212">
        <ele>742.2</ele>
        <time>2020-12-02T12:36:47Z</time>
      </trkpt>
      <trkpt lat="37.54261" lon="27.62213">
        <ele>742.2</ele>
        <time>2020-12-02T12:36:46Z</time>
      </trkpt>
      <trkpt lat="37.54261" lon="27.62213">
        <ele>742.2</ele>
        <time>2020-12-02T12:36:45Z</time>
      </trkpt>
      <trkpt lat="37.54261" lon="27.62213">
        <ele>742.2</ele>
        <time>2020-12-02T12:36:44Z</time>
      </trkpt>
      <trkpt lat="37.54261" lon="27.62213">
        <ele>742.2</ele>
        <time>2020-12-02T12:36:43Z</time>
      </trkpt>
      <trkpt lat="37.54261" lon="27.62213">
        <ele>742.2</ele>
        <time>2020-12-02T12:36:42Z</time>
      </trkpt>
      <trkpt lat="37.5426" lon="27.62214">
        <ele>742</ele>
        <time>2020-12-02T12:36:41Z</time>
      </trkpt>
      <trkpt lat="37.5426" lon="27.62214">
        <ele>742</ele>
        <time>2020-12-02T12:36:40Z</time>
      </trkpt>
      <trkpt lat="37.5426" lon="27.62214">
        <ele>742.2</ele>
        <time>2020-12-02T12:36:39Z</time>
      </trkpt>
      <trkpt lat="37.5426" lon="27.62214">
        <ele>742</ele>
        <time>2020-12-02T12:36:38Z</time>
      </trkpt>
      <trkpt lat="37.5426" lon="27.62215">
        <ele>742</ele>
        <time>2020-12-02T12:36:37Z</time>
      </trkpt>
      <trkpt lat="37.5426" lon="27.62215">
        <ele>742</ele>
        <time>2020-12-02T12:36:36Z</time>
      </trkpt>
      <trkpt lat="37.5426" lon="27.62215">
        <ele>742</ele>
        <time>2020-12-02T12:36:35Z</time>
      </trkpt>
      <trkpt lat="37.54259" lon="27.62215">
        <ele>742</ele>
        <time>2020-12-02T12:36:34Z</time>
      </trkpt>
      <trkpt lat="37.54259" lon="27.62215">
        <ele>742</ele>
        <time>2020-12-02T12:36:33Z</time>
      </trkpt>
      <trkpt lat="37.54259" lon="27.62216">
        <ele>742</ele>
        <time>2020-12-02T12:36:32Z</time>
      </trkpt>
      <trkpt lat="37.54259" lon="27.62216">
        <ele>742</ele>
        <time>2020-12-02T12:36:31Z</time>
      </trkpt>
      <trkpt lat="37.54259" lon="27.62216">
        <ele>742.2</ele>
        <time>2020-12-02T12:36:30Z</time>
      </trkpt>
      <trkpt lat="37.54259" lon="27.62216">
        <ele>742</ele>
        <time>2020-12-02T12:36:29Z</time>
      </trkpt>
      <trkpt lat="37.54258" lon="27.62217">
        <ele>742</ele>
        <time>2020-12-02T12:36:28Z</time>
      </trkpt>
      <trkpt lat="37.54258" lon="27.62217">
        <ele>742</ele>
        <time>2020-12-02T12:36:27Z</time>
      </trkpt>
      <trkpt lat="37.54258" lon="27.62217">
        <ele>742</ele>
        <time>2020-12-02T12:36:26Z</time>
      </trkpt>
      <trkpt lat="37.54258" lon="27.62217">
        <ele>742.2</ele>
        <time>2020-12-02T12:36:25Z</time>
      </trkpt>
      <trkpt lat="37.54258" lon="27.62217">
        <ele>742.2</ele>
        <time>2020-12-02T12:36:24Z</time>
      </trkpt>
      <trkpt lat="37.54258" lon="27.62218">
        <ele>742.2</ele>
        <time>2020-12-02T12:36:23Z</time>
      </trkpt>
      <trkpt lat="37.54258" lon="27.62218">
        <ele>742.2</ele>
        <time>2020-12-02T12:36:22Z</time>
      </trkpt>
      <trkpt lat="37.54257" lon="27.62218">
        <ele>742.4</ele>
        <time>2020-12-02T12:36:21Z</time>
      </trkpt>
      <trkpt lat="37.54257" lon="27.62218">
        <ele>742.6</ele>
        <time>2020-12-02T12:36:20Z</time>
      </trkpt>
      <trkpt lat="37.54257" lon="27.62218">
        <ele>742.6</ele>
        <time>2020-12-02T12:36:19Z</time>
      </trkpt>
      <trkpt lat="37.54257" lon="27.62219">
        <ele>742.8</ele>
        <time>2020-12-02T12:36:18Z</time>
      </trkpt>
      <trkpt lat="37.54257" lon="27.62219">
        <ele>742.8</ele>
        <time>2020-12-02T12:36:17Z</time>
      </trkpt>
      <trkpt lat="37.54257" lon="27.62219">
        <ele>742.8</ele>
        <time>2020-12-02T12:36:16Z</time>
      </trkpt>
      <trkpt lat="37.54256" lon="27.6222">
        <ele>743</ele>
        <time>2020-12-02T12:36:15Z</time>
      </trkpt>
      <trkpt lat="37.54256" lon="27.6222">
        <ele>743</ele>
        <time>2020-12-02T12:36:14Z</time>
      </trkpt>
      <trkpt lat="37.54255" lon="27.6222">
        <ele>743.2</ele>
        <time>2020-12-02T12:36:13Z</time>
      </trkpt>
      <trkpt lat="37.54255" lon="27.62221">
        <ele>743.2</ele>
        <time>2020-12-02T12:36:12Z</time>
      </trkpt>
      <trkpt lat="37.54255" lon="27.62221">
        <ele>743.4</ele>
        <time>2020-12-02T12:36:11Z</time>
      </trkpt>
      <trkpt lat="37.54254" lon="27.62221">
        <ele>743.6</ele>
        <time>2020-12-02T12:36:10Z</time>
      </trkpt>
      <trkpt lat="37.54254" lon="27.62222">
        <ele>743.6</ele>
        <time>2020-12-02T12:36:09Z</time>
      </trkpt>
      <trkpt lat="37.54253" lon="27.62222">
        <ele>744</ele>
        <time>2020-12-02T12:36:08Z</time>
      </trkpt>
      <trkpt lat="37.54253" lon="27.62223">
        <ele>744</ele>
        <time>2020-12-02T12:36:07Z</time>
      </trkpt>
      <trkpt lat="37.54253" lon="27.62223">
        <ele>744.2</ele>
        <time>2020-12-02T12:36:06Z</time>
      </trkpt>
      <trkpt lat="37.54252" lon="27.62223">
        <ele>744.2</ele>
        <time>2020-12-02T12:36:05Z</time>
      </trkpt>
      <trkpt lat="37.54252" lon="27.62224">
        <ele>744.6</ele>
        <time>2020-12-02T12:36:04Z</time>
      </trkpt>
      <trkpt lat="37.54251" lon="27.62224">
        <ele>744.8</ele>
        <time>2020-12-02T12:36:03Z</time>
      </trkpt>
      <trkpt lat="37.54251" lon="27.62225">
        <ele>745</ele>
        <time>2020-12-02T12:36:02Z</time>
      </trkpt>
      <trkpt lat="37.54251" lon="27.62225">
        <ele>745.6</ele>
        <time>2020-12-02T12:36:01Z</time>
      </trkpt>
      <trkpt lat="37.5425" lon="27.62225">
        <ele>745.8</ele>
        <time>2020-12-02T12:36:00Z</time>
      </trkpt>
      <trkpt lat="37.5425" lon="27.62226">
        <ele>746.2</ele>
        <time>2020-12-02T12:35:59Z</time>
      </trkpt>
      <trkpt lat="37.54249" lon="27.62226">
        <ele>746.2</ele>
        <time>2020-12-02T12:35:58Z</time>
      </trkpt>
      <trkpt lat="37.54249" lon="27.62226">
        <ele>746.2</ele>
        <time>2020-12-02T12:35:57Z</time>
      </trkpt>
      <trkpt lat="37.54249" lon="27.62226">
        <ele>746</ele>
        <time>2020-12-02T12:35:56Z</time>
      </trkpt>
      <trkpt lat="37.54249" lon="27.62226">
        <ele>745.8</ele>
        <time>2020-12-02T12:35:55Z</time>
      </trkpt>
      <trkpt lat="37.54249" lon="27.62226">
        <ele>745.6</ele>
        <time>2020-12-02T12:35:54Z</time>
      </trkpt>
      <trkpt lat="37.54249" lon="27.62226">
        <ele>745.2</ele>
        <time>2020-12-02T12:35:53Z</time>
      </trkpt>
      <trkpt lat="37.54249" lon="27.62226">
        <ele>744.6</ele>
        <time>2020-12-02T12:35:52Z</time>
      </trkpt>
      <trkpt lat="37.54249" lon="27.62226">
        <ele>744.6</ele>
        <time>2020-12-02T12:35:51Z</time>
      </trkpt>
      <trkpt lat="37.54249" lon="27.62226">
        <ele>744.4</ele>
        <time>2020-12-02T12:35:50Z</time>
      </trkpt>
      <trkpt lat="37.54249" lon="27.62226">
        <ele>744.4</ele>
        <time>2020-12-02T12:35:49Z</time>
      </trkpt>
      <trkpt lat="37.54249" lon="27.62227">
        <ele>744.6</ele>
        <time>2020-12-02T12:35:48Z</time>
      </trkpt>
      <trkpt lat="37.54248" lon="27.62227">
        <ele>744.6</ele>
        <time>2020-12-02T12:35:47Z</time>
      </trkpt>
      <trkpt lat="37.54248" lon="27.62227">
        <ele>744.6</ele>
        <time>2020-12-02T12:35:46Z</time>
      </trkpt>
      <trkpt lat="37.54248" lon="27.62227">
        <ele>744.6</ele>
        <time>2020-12-02T12:35:45Z</time>
      </trkpt>
      <trkpt lat="37.54248" lon="27.62227">
        <ele>744.8</ele>
        <time>2020-12-02T12:35:44Z</time>
      </trkpt>
      <trkpt lat="37.54248" lon="27.62227">
        <ele>744.8</ele>
        <time>2020-12-02T12:35:43Z</time>
      </trkpt>
      <trkpt lat="37.54248" lon="27.62227">
        <ele>745</ele>
        <time>2020-12-02T12:35:42Z</time>
      </trkpt>
      <trkpt lat="37.54248" lon="27.62227">
        <ele>745.2</ele>
        <time>2020-12-02T12:35:41Z</time>
      </trkpt>
      <trkpt lat="37.54248" lon="27.62227">
        <ele>745.6</ele>
        <time>2020-12-02T12:35:40Z</time>
      </trkpt>
      <trkpt lat="37.54248" lon="27.62227">
        <ele>745.8</ele>
        <time>2020-12-02T12:35:39Z</time>
      </trkpt>
      <trkpt lat="37.54248" lon="27.62227">
        <ele>746</ele>
        <time>2020-12-02T12:35:38Z</time>
      </trkpt>
      <trkpt lat="37.54248" lon="27.62227">
        <ele>746</ele>
        <time>2020-12-02T12:35:37Z</time>
      </trkpt>
      <trkpt lat="37.54248" lon="27.62227">
        <ele>746.2</ele>
        <time>2020-12-02T12:35:36Z</time>
      </trkpt>
      <trkpt lat="37.54247" lon="27.62227">
        <ele>746.4</ele>
        <time>2020-12-02T12:35:35Z</time>
      </trkpt>
      <trkpt lat="37.54247" lon="27.62227">
        <ele>746.4</ele>
        <time>2020-12-02T12:35:34Z</time>
      </trkpt>
      <trkpt lat="37.54247" lon="27.62227">
        <ele>746.6</ele>
        <time>2020-12-02T12:35:33Z</time>
      </trkpt>
      <trkpt lat="37.54247" lon="27.62227">
        <ele>746.6</ele>
        <time>2020-12-02T12:35:32Z</time>
      </trkpt>
      <trkpt lat="37.54247" lon="27.62227">
        <ele>746.8</ele>
        <time>2020-12-02T12:35:31Z</time>
      </trkpt>
      <trkpt lat="37.54247" lon="27.62227">
        <ele>746.8</ele>
        <time>2020-12-02T12:35:30Z</time>
      </trkpt>
      <trkpt lat="37.54247" lon="27.62227">
        <ele>747</ele>
        <time>2020-12-02T12:35:29Z</time>
      </trkpt>
      <trkpt lat="37.54247" lon="27.62228">
        <ele>747.2</ele>
        <time>2020-12-02T12:35:28Z</time>
      </trkpt>
      <trkpt lat="37.54247" lon="27.62228">
        <ele>747.2</ele>
        <time>2020-12-02T12:35:27Z</time>
      </trkpt>
      <trkpt lat="37.54247" lon="27.62228">
        <ele>747.4</ele>
        <time>2020-12-02T12:35:26Z</time>
      </trkpt>
      <trkpt lat="37.54247" lon="27.62228">
        <ele>747.4</ele>
        <time>2020-12-02T12:35:25Z</time>
      </trkpt>
      <trkpt lat="37.54247" lon="27.62228">
        <ele>747.6</ele>
        <time>2020-12-02T12:35:24Z</time>
      </trkpt>
      <trkpt lat="37.54246" lon="27.62228">
        <ele>747.6</ele>
        <time>2020-12-02T12:35:23Z</time>
      </trkpt>
      <trkpt lat="37.54246" lon="27.62228">
        <ele>748</ele>
        <time>2020-12-02T12:35:22Z</time>
      </trkpt>
      <trkpt lat="37.54246" lon="27.62228">
        <ele>748.2</ele>
        <time>2020-12-02T12:35:21Z</time>
      </trkpt>
      <trkpt lat="37.54246" lon="27.62228">
        <ele>748.2</ele>
        <time>2020-12-02T12:35:20Z</time>
      </trkpt>
      <trkpt lat="37.54246" lon="27.62228">
        <ele>748.2</ele>
        <time>2020-12-02T12:35:19Z</time>
      </trkpt>
      <trkpt lat="37.54246" lon="27.62228">
        <ele>748.4</ele>
        <time>2020-12-02T12:35:18Z</time>
      </trkpt>
      <trkpt lat="37.54246" lon="27.62228">
        <ele>748.6</ele>
        <time>2020-12-02T12:35:17Z</time>
      </trkpt>
      <trkpt lat="37.54246" lon="27.62228">
        <ele>748.6</ele>
        <time>2020-12-02T12:35:16Z</time>
      </trkpt>
      <trkpt lat="37.54246" lon="27.62228">
        <ele>748.8</ele>
        <time>2020-12-02T12:35:15Z</time>
      </trkpt>
      <trkpt lat="37.54246" lon="27.62228">
        <ele>749</ele>
        <time>2020-12-02T12:35:14Z</time>
      </trkpt>
      <trkpt lat="37.54246" lon="27.62228">
        <ele>749.2</ele>
        <time>2020-12-02T12:35:13Z</time>
      </trkpt>
      <trkpt lat="37.54245" lon="27.62228">
        <ele>749.4</ele>
        <time>2020-12-02T12:35:12Z</time>
      </trkpt>
      <trkpt lat="37.54245" lon="27.62228">
        <ele>749.6</ele>
        <time>2020-12-02T12:35:11Z</time>
      </trkpt>
      <trkpt lat="37.54245" lon="27.62228">
        <ele>749.6</ele>
        <time>2020-12-02T12:35:10Z</time>
      </trkpt>
      <trkpt lat="37.54245" lon="27.62228">
        <ele>750</ele>
        <time>2020-12-02T12:35:09Z</time>
      </trkpt>
      <trkpt lat="37.54245" lon="27.62229">
        <ele>750</ele>
        <time>2020-12-02T12:35:08Z</time>
      </trkpt>
      <trkpt lat="37.54245" lon="27.62229">
        <ele>750.4</ele>
        <time>2020-12-02T12:35:07Z</time>
      </trkpt>
      <trkpt lat="37.54245" lon="27.62229">
        <ele>750.6</ele>
        <time>2020-12-02T12:35:06Z</time>
      </trkpt>
      <trkpt lat="37.54245" lon="27.62229">
        <ele>750.8</ele>
        <time>2020-12-02T12:35:05Z</time>
      </trkpt>
      <trkpt lat="37.54245" lon="27.62229">
        <ele>751</ele>
        <time>2020-12-02T12:35:04Z</time>
      </trkpt>
      <trkpt lat="37.54245" lon="27.62229">
        <ele>751</ele>
        <time>2020-12-02T12:35:03Z</time>
      </trkpt>
      <trkpt lat="37.54245" lon="27.62229">
        <ele>751.2</ele>
        <time>2020-12-02T12:35:02Z</time>
      </trkpt>
      <trkpt lat="37.54245" lon="27.62229">
        <ele>751.2</ele>
        <time>2020-12-02T12:35:01Z</time>
      </trkpt>
      <trkpt lat="37.54244" lon="27.62229">
        <ele>751.2</ele>
        <time>2020-12-02T12:35:00Z</time>
      </trkpt>
      <trkpt lat="37.54244" lon="27.62229">
        <ele>751.2</ele>
        <time>2020-12-02T12:34:59Z</time>
      </trkpt>
      <trkpt lat="37.54244" lon="27.62229">
        <ele>751.2</ele>
        <time>2020-12-02T12:34:58Z</time>
      </trkpt>
      <trkpt lat="37.54244" lon="27.62229">
        <ele>751.2</ele>
        <time>2020-12-02T12:34:57Z</time>
      </trkpt>
      <trkpt lat="37.54244" lon="27.62229">
        <ele>751.2</ele>
        <time>2020-12-02T12:34:56Z</time>
      </trkpt>
      <trkpt lat="37.54244" lon="27.62229">
        <ele>751.2</ele>
        <time>2020-12-02T12:34:55Z</time>
      </trkpt>
      <trkpt lat="37.54244" lon="27.62229">
        <ele>751.2</ele>
        <time>2020-12-02T12:34:54Z</time>
      </trkpt>
      <trkpt lat="37.54244" lon="27.62229">
        <ele>751</ele>
        <time>2020-12-02T12:34:53Z</time>
      </trkpt>
      <trkpt lat="37.54244" lon="27.62229">
        <ele>751</ele>
        <time>2020-12-02T12:34:52Z</time>
      </trkpt>
      <trkpt lat="37.54244" lon="27.62229">
        <ele>751.2</ele>
        <time>2020-12-02T12:34:51Z</time>
      </trkpt>
      <trkpt lat="37.54243" lon="27.62229">
        <ele>751.2</ele>
        <time>2020-12-02T12:34:50Z</time>
      </trkpt>
      <trkpt lat="37.54243" lon="27.62229">
        <ele>751.4</ele>
        <time>2020-12-02T12:34:49Z</time>
      </trkpt>
      <trkpt lat="37.54243" lon="27.62229">
        <ele>751.4</ele>
        <time>2020-12-02T12:34:48Z</time>
      </trkpt>
      <trkpt lat="37.54243" lon="27.62228">
        <ele>751.4</ele>
        <time>2020-12-02T12:34:47Z</time>
      </trkpt>
      <trkpt lat="37.54242" lon="27.62228">
        <ele>751.6</ele>
        <time>2020-12-02T12:34:46Z</time>
      </trkpt>
      <trkpt lat="37.54242" lon="27.62228">
        <ele>751.6</ele>
        <time>2020-12-02T12:34:45Z</time>
      </trkpt>
      <trkpt lat="37.54242" lon="27.62228">
        <ele>751.6</ele>
        <time>2020-12-02T12:34:44Z</time>
      </trkpt>
      <trkpt lat="37.54242" lon="27.62227">
        <ele>751.8</ele>
        <time>2020-12-02T12:34:43Z</time>
      </trkpt>
      <trkpt lat="37.54241" lon="27.62227">
        <ele>751.6</ele>
        <time>2020-12-02T12:34:42Z</time>
      </trkpt>
      <trkpt lat="37.54241" lon="27.62227">
        <ele>751.8</ele>
        <time>2020-12-02T12:34:41Z</time>
      </trkpt>
      <trkpt lat="37.54241" lon="27.62227">
        <ele>751.6</ele>
        <time>2020-12-02T12:34:40Z</time>
      </trkpt>
      <trkpt lat="37.54241" lon="27.62226">
        <ele>751.8</ele>
        <time>2020-12-02T12:34:39Z</time>
      </trkpt>
      <trkpt lat="37.5424" lon="27.62226">
        <ele>752</ele>
        <time>2020-12-02T12:34:38Z</time>
      </trkpt>
      <trkpt lat="37.5424" lon="27.62226">
        <ele>752</ele>
        <time>2020-12-02T12:34:37Z</time>
      </trkpt>
      <trkpt lat="37.5424" lon="27.62225">
        <ele>751.8</ele>
        <time>2020-12-02T12:34:36Z</time>
      </trkpt>
      <trkpt lat="37.5424" lon="27.62225">
        <ele>752</ele>
        <time>2020-12-02T12:34:35Z</time>
      </trkpt>
      <trkpt lat="37.5424" lon="27.62225">
        <ele>752.2</ele>
        <time>2020-12-02T12:34:34Z</time>
      </trkpt>
      <trkpt lat="37.54239" lon="27.62225">
        <ele>752.2</ele>
        <time>2020-12-02T12:34:33Z</time>
      </trkpt>
      <trkpt lat="37.54239" lon="27.62224">
        <ele>752.4</ele>
        <time>2020-12-02T12:34:32Z</time>
      </trkpt>
      <trkpt lat="37.54239" lon="27.62224">
        <ele>752.6</ele>
        <time>2020-12-02T12:34:31Z</time>
      </trkpt>
      <trkpt lat="37.54239" lon="27.62224">
        <ele>752.8</ele>
        <time>2020-12-02T12:34:30Z</time>
      </trkpt>
      <trkpt lat="37.54238" lon="27.62224">
        <ele>753</ele>
        <time>2020-12-02T12:34:29Z</time>
      </trkpt>
      <trkpt lat="37.54238" lon="27.62223">
        <ele>753.4</ele>
        <time>2020-12-02T12:34:28Z</time>
      </trkpt>
      <trkpt lat="37.54238" lon="27.62223">
        <ele>753.6</ele>
        <time>2020-12-02T12:34:27Z</time>
      </trkpt>
      <trkpt lat="37.54238" lon="27.62223">
        <ele>753.6</ele>
        <time>2020-12-02T12:34:26Z</time>
      </trkpt>
      <trkpt lat="37.54237" lon="27.62223">
        <ele>753.6</ele>
        <time>2020-12-02T12:34:25Z</time>
      </trkpt>
      <trkpt lat="37.54237" lon="27.62222">
        <ele>753.8</ele>
        <time>2020-12-02T12:34:24Z</time>
      </trkpt>
      <trkpt lat="37.54237" lon="27.62222">
        <ele>753.8</ele>
        <time>2020-12-02T12:34:23Z</time>
      </trkpt>
      <trkpt lat="37.54237" lon="27.62222">
        <ele>754.2</ele>
        <time>2020-12-02T12:34:22Z</time>
      </trkpt>
      <trkpt lat="37.54236" lon="27.62222">
        <ele>754</ele>
        <time>2020-12-02T12:34:21Z</time>
      </trkpt>
      <trkpt lat="37.54236" lon="27.62221">
        <ele>754.2</ele>
        <time>2020-12-02T12:34:20Z</time>
      </trkpt>
      <trkpt lat="37.54235" lon="27.62221">
        <ele>754.2</ele>
        <time>2020-12-02T12:34:19Z</time>
      </trkpt>
      <trkpt lat="37.54235" lon="27.62221">
        <ele>754.4</ele>
        <time>2020-12-02T12:34:18Z</time>
      </trkpt>
      <trkpt lat="37.54234" lon="27.62221">
        <ele>754.6</ele>
        <time>2020-12-02T12:34:17Z</time>
      </trkpt>
      <trkpt lat="37.54233" lon="27.6222">
        <ele>754.6</ele>
        <time>2020-12-02T12:34:16Z</time>
      </trkpt>
      <trkpt lat="37.54233" lon="27.6222">
        <ele>754.6</ele>
        <time>2020-12-02T12:34:15Z</time>
      </trkpt>
      <trkpt lat="37.54232" lon="27.6222">
        <ele>754.8</ele>
        <time>2020-12-02T12:34:14Z</time>
      </trkpt>
      <trkpt lat="37.54232" lon="27.6222">
        <ele>754.8</ele>
        <time>2020-12-02T12:34:13Z</time>
      </trkpt>
      <trkpt lat="37.54231" lon="27.62219">
        <ele>754.8</ele>
        <time>2020-12-02T12:34:12Z</time>
      </trkpt>
      <trkpt lat="37.5423" lon="27.62219">
        <ele>754.8</ele>
        <time>2020-12-02T12:34:11Z</time>
      </trkpt>
      <trkpt lat="37.5423" lon="27.62219">
        <ele>755</ele>
        <time>2020-12-02T12:34:10Z</time>
      </trkpt>
      <trkpt lat="37.54229" lon="27.62218">
        <ele>755</ele>
        <time>2020-12-02T12:34:09Z</time>
      </trkpt>
      <trkpt lat="37.54229" lon="27.62218">
        <ele>755</ele>
        <time>2020-12-02T12:34:08Z</time>
      </trkpt>
      <trkpt lat="37.54228" lon="27.62218">
        <ele>755.2</ele>
        <time>2020-12-02T12:34:07Z</time>
      </trkpt>
      <trkpt lat="37.54227" lon="27.62218">
        <ele>755.4</ele>
        <time>2020-12-02T12:34:06Z</time>
      </trkpt>
      <trkpt lat="37.54226" lon="27.62217">
        <ele>755.4</ele>
        <time>2020-12-02T12:34:05Z</time>
      </trkpt>
      <trkpt lat="37.54225" lon="27.62216">
        <ele>755.6</ele>
        <time>2020-12-02T12:34:04Z</time>
      </trkpt>
      <trkpt lat="37.54224" lon="27.62215">
        <ele>755.6</ele>
        <time>2020-12-02T12:34:03Z</time>
      </trkpt>
      <trkpt lat="37.54223" lon="27.62215">
        <ele>755.8</ele>
        <time>2020-12-02T12:34:02Z</time>
      </trkpt>
      <trkpt lat="37.54222" lon="27.62214">
        <ele>756</ele>
        <time>2020-12-02T12:34:01Z</time>
      </trkpt>
      <trkpt lat="37.54221" lon="27.62213">
        <ele>756.2</ele>
        <time>2020-12-02T12:34:00Z</time>
      </trkpt>
      <trkpt lat="37.5422" lon="27.62212">
        <ele>756.4</ele>
        <time>2020-12-02T12:33:59Z</time>
      </trkpt>
      <trkpt lat="37.54219" lon="27.62211">
        <ele>756.6</ele>
        <time>2020-12-02T12:33:58Z</time>
      </trkpt>
      <trkpt lat="37.54218" lon="27.62212">
        <ele>756.8</ele>
        <time>2020-12-02T12:33:57Z</time>
      </trkpt>
      <trkpt lat="37.54217" lon="27.62212">
        <ele>757.2</ele>
        <time>2020-12-02T12:33:56Z</time>
      </trkpt>
      <trkpt lat="37.54217" lon="27.62212">
        <ele>757.4</ele>
        <time>2020-12-02T12:33:55Z</time>
      </trkpt>
      <trkpt lat="37.54216" lon="27.62212">
        <ele>757.8</ele>
        <time>2020-12-02T12:33:54Z</time>
      </trkpt>
      <trkpt lat="37.54215" lon="27.62212">
        <ele>758.2</ele>
        <time>2020-12-02T12:33:53Z</time>
      </trkpt>
      <trkpt lat="37.54215" lon="27.62212">
        <ele>758</ele>
        <time>2020-12-02T12:33:52Z</time>
      </trkpt>
      <trkpt lat="37.54214" lon="27.62212">
        <ele>757.8</ele>
        <time>2020-12-02T12:33:51Z</time>
      </trkpt>
      <trkpt lat="37.54213" lon="27.62212">
        <ele>757.8</ele>
        <time>2020-12-02T12:33:50Z</time>
      </trkpt>
      <trkpt lat="37.54213" lon="27.62212">
        <ele>757.8</ele>
        <time>2020-12-02T12:33:49Z</time>
      </trkpt>
      <trkpt lat="37.54212" lon="27.62212">
        <ele>758</ele>
        <time>2020-12-02T12:33:48Z</time>
      </trkpt>
      <trkpt lat="37.54211" lon="27.62212">
        <ele>758.2</ele>
        <time>2020-12-02T12:33:47Z</time>
      </trkpt>
      <trkpt lat="37.54211" lon="27.62212">
        <ele>758.2</ele>
        <time>2020-12-02T12:33:46Z</time>
      </trkpt>
      <trkpt lat="37.5421" lon="27.62212">
        <ele>758.4</ele>
        <time>2020-12-02T12:33:45Z</time>
      </trkpt>
      <trkpt lat="37.5421" lon="27.62212">
        <ele>758.6</ele>
        <time>2020-12-02T12:33:44Z</time>
      </trkpt>
      <trkpt lat="37.54209" lon="27.62212">
        <ele>758.6</ele>
        <time>2020-12-02T12:33:43Z</time>
      </trkpt>
      <trkpt lat="37.54208" lon="27.62211">
        <ele>758.6</ele>
        <time>2020-12-02T12:33:42Z</time>
      </trkpt>
      <trkpt lat="37.54208" lon="27.6221">
        <ele>758.8</ele>
        <time>2020-12-02T12:33:41Z</time>
      </trkpt>
      <trkpt lat="37.54207" lon="27.6221">
        <ele>759</ele>
        <time>2020-12-02T12:33:40Z</time>
      </trkpt>
      <trkpt lat="37.54207" lon="27.62209">
        <ele>759</ele>
        <time>2020-12-02T12:33:39Z</time>
      </trkpt>
      <trkpt lat="37.54206" lon="27.62209">
        <ele>759.2</ele>
        <time>2020-12-02T12:33:38Z</time>
      </trkpt>
      <trkpt lat="37.54206" lon="27.62208">
        <ele>759</ele>
        <time>2020-12-02T12:33:37Z</time>
      </trkpt>
      <trkpt lat="37.54205" lon="27.62207">
        <ele>758.8</ele>
        <time>2020-12-02T12:33:36Z</time>
      </trkpt>
      <trkpt lat="37.54205" lon="27.62207">
        <ele>758.8</ele>
        <time>2020-12-02T12:33:35Z</time>
      </trkpt>
      <trkpt lat="37.54204" lon="27.62206">
        <ele>758.6</ele>
        <time>2020-12-02T12:33:34Z</time>
      </trkpt>
      <trkpt lat="37.54203" lon="27.62206">
        <ele>758.4</ele>
        <time>2020-12-02T12:33:33Z</time>
      </trkpt>
      <trkpt lat="37.54203" lon="27.62205">
        <ele>758.2</ele>
        <time>2020-12-02T12:33:32Z</time>
      </trkpt>
      <trkpt lat="37.54202" lon="27.62204">
        <ele>758</ele>
        <time>2020-12-02T12:33:31Z</time>
      </trkpt>
      <trkpt lat="37.54202" lon="27.62204">
        <ele>758</ele>
        <time>2020-12-02T12:33:30Z</time>
      </trkpt>
      <trkpt lat="37.54198" lon="27.62203">
        <ele>758</ele>
        <time>2020-12-02T12:33:29Z</time>
      </trkpt>
      <trkpt lat="37.54198" lon="27.62203">
        <ele>758</ele>
        <time>2020-12-02T12:33:28Z</time>
      </trkpt>
      <trkpt lat="37.54198" lon="27.62203">
        <ele>758.2</ele>
        <time>2020-12-02T12:33:27Z</time>
      </trkpt>
      <trkpt lat="37.54198" lon="27.62203">
        <ele>758.2</ele>
        <time>2020-12-02T12:33:26Z</time>
      </trkpt>
      <trkpt lat="37.54198" lon="27.62203">
        <ele>758.4</ele>
        <time>2020-12-02T12:33:25Z</time>
      </trkpt>
      <trkpt lat="37.54198" lon="27.62203">
        <ele>758.4</ele>
        <time>2020-12-02T12:33:24Z</time>
      </trkpt>
      <trkpt lat="37.54198" lon="27.62203">
        <ele>758.4</ele>
        <time>2020-12-02T12:33:23Z</time>
      </trkpt>
      <trkpt lat="37.54198" lon="27.62203">
        <ele>758.6</ele>
        <time>2020-12-02T12:33:22Z</time>
      </trkpt>
      <trkpt lat="37.54198" lon="27.62203">
        <ele>758.6</ele>
        <time>2020-12-02T12:33:21Z</time>
      </trkpt>
      <trkpt lat="37.54198" lon="27.62202">
        <ele>758.6</ele>
        <time>2020-12-02T12:33:20Z</time>
      </trkpt>
      <trkpt lat="37.54197" lon="27.62202">
        <ele>758.4</ele>
        <time>2020-12-02T12:33:19Z</time>
      </trkpt>
      <trkpt lat="37.54197" lon="27.62202">
        <ele>758.4</ele>
        <time>2020-12-02T12:33:18Z</time>
      </trkpt>
      <trkpt lat="37.54197" lon="27.62202">
        <ele>758.4</ele>
        <time>2020-12-02T12:33:17Z</time>
      </trkpt>
      <trkpt lat="37.54196" lon="27.62201">
        <ele>758.2</ele>
        <time>2020-12-02T12:33:16Z</time>
      </trkpt>
      <trkpt lat="37.54196" lon="27.62201">
        <ele>758.4</ele>
        <time>2020-12-02T12:33:15Z</time>
      </trkpt>
      <trkpt lat="37.54195" lon="27.62201">
        <ele>758.4</ele>
        <time>2020-12-02T12:33:14Z</time>
      </trkpt>
      <trkpt lat="37.54195" lon="27.62201">
        <ele>758.6</ele>
        <time>2020-12-02T12:33:13Z</time>
      </trkpt>
      <trkpt lat="37.54195" lon="27.622">
        <ele>758.4</ele>
        <time>2020-12-02T12:33:12Z</time>
      </trkpt>
      <trkpt lat="37.54194" lon="27.622">
        <ele>758.4</ele>
        <time>2020-12-02T12:33:11Z</time>
      </trkpt>
      <trkpt lat="37.54194" lon="27.622">
        <ele>758.6</ele>
        <time>2020-12-02T12:33:10Z</time>
      </trkpt>
      <trkpt lat="37.54193" lon="27.622">
        <ele>758.6</ele>
        <time>2020-12-02T12:33:09Z</time>
      </trkpt>
      <trkpt lat="37.54193" lon="27.622">
        <ele>758.4</ele>
        <time>2020-12-02T12:33:08Z</time>
      </trkpt>
      <trkpt lat="37.54192" lon="27.622">
        <ele>758.6</ele>
        <time>2020-12-02T12:33:07Z</time>
      </trkpt>
      <trkpt lat="37.54191" lon="27.622">
        <ele>758.6</ele>
        <time>2020-12-02T12:33:06Z</time>
      </trkpt>
      <trkpt lat="37.54191" lon="27.62199">
        <ele>759</ele>
        <time>2020-12-02T12:33:05Z</time>
      </trkpt>
      <trkpt lat="37.5419" lon="27.62199">
        <ele>759.2</ele>
        <time>2020-12-02T12:33:04Z</time>
      </trkpt>
      <trkpt lat="37.5419" lon="27.62199">
        <ele>759.2</ele>
        <time>2020-12-02T12:33:03Z</time>
      </trkpt>
      <trkpt lat="37.54189" lon="27.62199">
        <ele>759.6</ele>
        <time>2020-12-02T12:33:02Z</time>
      </trkpt>
      <trkpt lat="37.54188" lon="27.62199">
        <ele>759.8</ele>
        <time>2020-12-02T12:33:01Z</time>
      </trkpt>
      <trkpt lat="37.54188" lon="27.62199">
        <ele>759.8</ele>
        <time>2020-12-02T12:33:00Z</time>
      </trkpt>
      <trkpt lat="37.54187" lon="27.62199">
        <ele>760</ele>
        <time>2020-12-02T12:32:59Z</time>
      </trkpt>
      <trkpt lat="37.54187" lon="27.62199">
        <ele>760</ele>
        <time>2020-12-02T12:32:58Z</time>
      </trkpt>
      <trkpt lat="37.54186" lon="27.62199">
        <ele>760.2</ele>
        <time>2020-12-02T12:32:57Z</time>
      </trkpt>
      <trkpt lat="37.54185" lon="27.62199">
        <ele>760.2</ele>
        <time>2020-12-02T12:32:56Z</time>
      </trkpt>
      <trkpt lat="37.54185" lon="27.62199">
        <ele>760.6</ele>
        <time>2020-12-02T12:32:55Z</time>
      </trkpt>
      <trkpt lat="37.54185" lon="27.62199">
        <ele>760.6</ele>
        <time>2020-12-02T12:32:54Z</time>
      </trkpt>
      <trkpt lat="37.54183" lon="27.62198">
        <ele>760.8</ele>
        <time>2020-12-02T12:32:53Z</time>
      </trkpt>
      <trkpt lat="37.54183" lon="27.62198">
        <ele>761.4</ele>
        <time>2020-12-02T12:32:52Z</time>
      </trkpt>
      <trkpt lat="37.54182" lon="27.62196">
        <ele>761.6</ele>
        <time>2020-12-02T12:32:51Z</time>
      </trkpt>
      <trkpt lat="37.54181" lon="27.62196">
        <ele>761.4</ele>
        <time>2020-12-02T12:32:50Z</time>
      </trkpt>
      <trkpt lat="37.5418" lon="27.62196">
        <ele>761.4</ele>
        <time>2020-12-02T12:32:49Z</time>
      </trkpt>
      <trkpt lat="37.5418" lon="27.62196">
        <ele>761.4</ele>
        <time>2020-12-02T12:32:48Z</time>
      </trkpt>
      <trkpt lat="37.54179" lon="27.62197">
        <ele>761.4</ele>
        <time>2020-12-02T12:32:47Z</time>
      </trkpt>
      <trkpt lat="37.54179" lon="27.62197">
        <ele>761.6</ele>
        <time>2020-12-02T12:32:46Z</time>
      </trkpt>
      <trkpt lat="37.54178" lon="27.62197">
        <ele>761.6</ele>
        <time>2020-12-02T12:32:45Z</time>
      </trkpt>
      <trkpt lat="37.54177" lon="27.62197">
        <ele>761.8</ele>
        <time>2020-12-02T12:32:44Z</time>
      </trkpt>
      <trkpt lat="37.54177" lon="27.62197">
        <ele>762</ele>
        <time>2020-12-02T12:32:43Z</time>
      </trkpt>
      <trkpt lat="37.54176" lon="27.62197">
        <ele>762.2</ele>
        <time>2020-12-02T12:32:42Z</time>
      </trkpt>
      <trkpt lat="37.54176" lon="27.62197">
        <ele>762.4</ele>
        <time>2020-12-02T12:32:41Z</time>
      </trkpt>
      <trkpt lat="37.54175" lon="27.62197">
        <ele>762.4</ele>
        <time>2020-12-02T12:32:40Z</time>
      </trkpt>
      <trkpt lat="37.54175" lon="27.62197">
        <ele>762.4</ele>
        <time>2020-12-02T12:32:39Z</time>
      </trkpt>
      <trkpt lat="37.54174" lon="27.62197">
        <ele>762.6</ele>
        <time>2020-12-02T12:32:38Z</time>
      </trkpt>
      <trkpt lat="37.54173" lon="27.62197">
        <ele>762.4</ele>
        <time>2020-12-02T12:32:37Z</time>
      </trkpt>
      <trkpt lat="37.54173" lon="27.62198">
        <ele>762.6</ele>
        <time>2020-12-02T12:32:36Z</time>
      </trkpt>
      <trkpt lat="37.54172" lon="27.62197">
        <ele>762.6</ele>
        <time>2020-12-02T12:32:35Z</time>
      </trkpt>
      <trkpt lat="37.54172" lon="27.62197">
        <ele>762.6</ele>
        <time>2020-12-02T12:32:34Z</time>
      </trkpt>
      <trkpt lat="37.54171" lon="27.62197">
        <ele>762.6</ele>
        <time>2020-12-02T12:32:33Z</time>
      </trkpt>
      <trkpt lat="37.5417" lon="27.62197">
        <ele>762.6</ele>
        <time>2020-12-02T12:32:32Z</time>
      </trkpt>
      <trkpt lat="37.5417" lon="27.62196">
        <ele>762.8</ele>
        <time>2020-12-02T12:32:31Z</time>
      </trkpt>
      <trkpt lat="37.54169" lon="27.62196">
        <ele>762.8</ele>
        <time>2020-12-02T12:32:30Z</time>
      </trkpt>
      <trkpt lat="37.54169" lon="27.62196">
        <ele>762.8</ele>
        <time>2020-12-02T12:32:29Z</time>
      </trkpt>
      <trkpt lat="37.54168" lon="27.62196">
        <ele>763.2</ele>
        <time>2020-12-02T12:32:28Z</time>
      </trkpt>
      <trkpt lat="37.54168" lon="27.62196">
        <ele>763.2</ele>
        <time>2020-12-02T12:32:27Z</time>
      </trkpt>
      <trkpt lat="37.54167" lon="27.62195">
        <ele>763.2</ele>
        <time>2020-12-02T12:32:26Z</time>
      </trkpt>
      <trkpt lat="37.54166" lon="27.62195">
        <ele>763.4</ele>
        <time>2020-12-02T12:32:25Z</time>
      </trkpt>
      <trkpt lat="37.54166" lon="27.62195">
        <ele>763.6</ele>
        <time>2020-12-02T12:32:24Z</time>
      </trkpt>
      <trkpt lat="37.54165" lon="27.62195">
        <ele>763.6</ele>
        <time>2020-12-02T12:32:23Z</time>
      </trkpt>
      <trkpt lat="37.54165" lon="27.62194">
        <ele>763.6</ele>
        <time>2020-12-02T12:32:22Z</time>
      </trkpt>
      <trkpt lat="37.54164" lon="27.62194">
        <ele>764</ele>
        <time>2020-12-02T12:32:21Z</time>
      </trkpt>
      <trkpt lat="37.54164" lon="27.62194">
        <ele>764</ele>
        <time>2020-12-02T12:32:20Z</time>
      </trkpt>
      <trkpt lat="37.54164" lon="27.62194">
        <ele>764.2</ele>
        <time>2020-12-02T12:32:19Z</time>
      </trkpt>
      <trkpt lat="37.54163" lon="27.62194">
        <ele>764.2</ele>
        <time>2020-12-02T12:32:18Z</time>
      </trkpt>
      <trkpt lat="37.54163" lon="27.62194">
        <ele>764.4</ele>
        <time>2020-12-02T12:32:17Z</time>
      </trkpt>
      <trkpt lat="37.54163" lon="27.62194">
        <ele>764.4</ele>
        <time>2020-12-02T12:32:16Z</time>
      </trkpt>
      <trkpt lat="37.54163" lon="27.62194">
        <ele>764.4</ele>
        <time>2020-12-02T12:32:15Z</time>
      </trkpt>
      <trkpt lat="37.54162" lon="27.62194">
        <ele>764.4</ele>
        <time>2020-12-02T12:32:14Z</time>
      </trkpt>
      <trkpt lat="37.54162" lon="27.62193">
        <ele>764.6</ele>
        <time>2020-12-02T12:32:13Z</time>
      </trkpt>
      <trkpt lat="37.54162" lon="27.62193">
        <ele>764.6</ele>
        <time>2020-12-02T12:32:12Z</time>
      </trkpt>
      <trkpt lat="37.54162" lon="27.62193">
        <ele>764.6</ele>
        <time>2020-12-02T12:32:11Z</time>
      </trkpt>
      <trkpt lat="37.54162" lon="27.62193">
        <ele>764.6</ele>
        <time>2020-12-02T12:32:10Z</time>
      </trkpt>
      <trkpt lat="37.54161" lon="27.62193">
        <ele>764.8</ele>
        <time>2020-12-02T12:32:09Z</time>
      </trkpt>
      <trkpt lat="37.54161" lon="27.62193">
        <ele>764.6</ele>
        <time>2020-12-02T12:32:08Z</time>
      </trkpt>
      <trkpt lat="37.54161" lon="27.62193">
        <ele>764.6</ele>
        <time>2020-12-02T12:32:07Z</time>
      </trkpt>
      <trkpt lat="37.54161" lon="27.62193">
        <ele>764.8</ele>
        <time>2020-12-02T12:32:06Z</time>
      </trkpt>
      <trkpt lat="37.5416" lon="27.62193">
        <ele>764.8</ele>
        <time>2020-12-02T12:32:05Z</time>
      </trkpt>
      <trkpt lat="37.5416" lon="27.62193">
        <ele>765</ele>
        <time>2020-12-02T12:32:04Z</time>
      </trkpt>
      <trkpt lat="37.5416" lon="27.62193">
        <ele>764.8</ele>
        <time>2020-12-02T12:32:03Z</time>
      </trkpt>
      <trkpt lat="37.5416" lon="27.62192">
        <ele>765</ele>
        <time>2020-12-02T12:32:02Z</time>
      </trkpt>
      <trkpt lat="37.5416" lon="27.62192">
        <ele>765</ele>
        <time>2020-12-02T12:32:01Z</time>
      </trkpt>
      <trkpt lat="37.54159" lon="27.62192">
        <ele>765.2</ele>
        <time>2020-12-02T12:32:00Z</time>
      </trkpt>
      <trkpt lat="37.54159" lon="27.62192">
        <ele>765</ele>
        <time>2020-12-02T12:31:59Z</time>
      </trkpt>
      <trkpt lat="37.54159" lon="27.62192">
        <ele>765.2</ele>
        <time>2020-12-02T12:31:58Z</time>
      </trkpt>
      <trkpt lat="37.54159" lon="27.62192">
        <ele>765.4</ele>
        <time>2020-12-02T12:31:57Z</time>
      </trkpt>
      <trkpt lat="37.54158" lon="27.62192">
        <ele>765.6</ele>
        <time>2020-12-02T12:31:56Z</time>
      </trkpt>
      <trkpt lat="37.54158" lon="27.62192">
        <ele>765.6</ele>
        <time>2020-12-02T12:31:55Z</time>
      </trkpt>
      <trkpt lat="37.54158" lon="27.62192">
        <ele>765.8</ele>
        <time>2020-12-02T12:31:54Z</time>
      </trkpt>
      <trkpt lat="37.54158" lon="27.62192">
        <ele>765.8</ele>
        <time>2020-12-02T12:31:53Z</time>
      </trkpt>
      <trkpt lat="37.54158" lon="27.62191">
        <ele>765.8</ele>
        <time>2020-12-02T12:31:52Z</time>
      </trkpt>
      <trkpt lat="37.54157" lon="27.62191">
        <ele>766</ele>
        <time>2020-12-02T12:31:51Z</time>
      </trkpt>
      <trkpt lat="37.54157" lon="27.62191">
        <ele>766.2</ele>
        <time>2020-12-02T12:31:50Z</time>
      </trkpt>
      <trkpt lat="37.54157" lon="27.62191">
        <ele>766.4</ele>
        <time>2020-12-02T12:31:49Z</time>
      </trkpt>
      <trkpt lat="37.54157" lon="27.62191">
        <ele>766.4</ele>
        <time>2020-12-02T12:31:48Z</time>
      </trkpt>
      <trkpt lat="37.54156" lon="27.62191">
        <ele>766.6</ele>
        <time>2020-12-02T12:31:47Z</time>
      </trkpt>
      <trkpt lat="37.54156" lon="27.62191">
        <ele>766.8</ele>
        <time>2020-12-02T12:31:46Z</time>
      </trkpt>
      <trkpt lat="37.54156" lon="27.62191">
        <ele>767.2</ele>
        <time>2020-12-02T12:31:45Z</time>
      </trkpt>
      <trkpt lat="37.54156" lon="27.62191">
        <ele>767.4</ele>
        <time>2020-12-02T12:31:44Z</time>
      </trkpt>
      <trkpt lat="37.54156" lon="27.62191">
        <ele>767.6</ele>
        <time>2020-12-02T12:31:43Z</time>
      </trkpt>
      <trkpt lat="37.54155" lon="27.62191">
        <ele>767.8</ele>
        <time>2020-12-02T12:31:42Z</time>
      </trkpt>
      <trkpt lat="37.54155" lon="27.6219">
        <ele>767.8</ele>
        <time>2020-12-02T12:31:41Z</time>
      </trkpt>
      <trkpt lat="37.54155" lon="27.6219">
        <ele>768</ele>
        <time>2020-12-02T12:31:40Z</time>
      </trkpt>
      <trkpt lat="37.54156" lon="27.6219">
        <ele>768.4</ele>
        <time>2020-12-02T12:31:39Z</time>
      </trkpt>
      <trkpt lat="37.54157" lon="27.6219">
        <ele>768.4</ele>
        <time>2020-12-02T12:31:38Z</time>
      </trkpt>
      <trkpt lat="37.54158" lon="27.62189">
        <ele>768.6</ele>
        <time>2020-12-02T12:31:37Z</time>
      </trkpt>
      <trkpt lat="37.54159" lon="27.62189">
        <ele>768.8</ele>
        <time>2020-12-02T12:31:36Z</time>
      </trkpt>
      <trkpt lat="37.5416" lon="27.62189">
        <ele>769</ele>
        <time>2020-12-02T12:31:35Z</time>
      </trkpt>
      <trkpt lat="37.54161" lon="27.62188">
        <ele>769.2</ele>
        <time>2020-12-02T12:31:34Z</time>
      </trkpt>
      <trkpt lat="37.54161" lon="27.62188">
        <ele>769.2</ele>
        <time>2020-12-02T12:31:33Z</time>
      </trkpt>
      <trkpt lat="37.54161" lon="27.62184">
        <ele>769.4</ele>
        <time>2020-12-02T12:31:32Z</time>
      </trkpt>
      <trkpt lat="37.54161" lon="27.62184">
        <ele>769.6</ele>
        <time>2020-12-02T12:31:31Z</time>
      </trkpt>
      <trkpt lat="37.54161" lon="27.62184">
        <ele>769.6</ele>
        <time>2020-12-02T12:31:30Z</time>
      </trkpt>
      <trkpt lat="37.54161" lon="27.62184">
        <ele>769.8</ele>
        <time>2020-12-02T12:31:29Z</time>
      </trkpt>
      <trkpt lat="37.54161" lon="27.62184">
        <ele>770</ele>
        <time>2020-12-02T12:31:28Z</time>
      </trkpt>
      <trkpt lat="37.5416" lon="27.62182">
        <ele>770.2</ele>
        <time>2020-12-02T12:31:27Z</time>
      </trkpt>
      <trkpt lat="37.5416" lon="27.62182">
        <ele>770.4</ele>
        <time>2020-12-02T12:31:26Z</time>
      </trkpt>
      <trkpt lat="37.5416" lon="27.62182">
        <ele>770.6</ele>
        <time>2020-12-02T12:31:25Z</time>
      </trkpt>
      <trkpt lat="37.5416" lon="27.62182">
        <ele>770.6</ele>
        <time>2020-12-02T12:31:24Z</time>
      </trkpt>
      <trkpt lat="37.54159" lon="27.62179">
        <ele>770.6</ele>
        <time>2020-12-02T12:31:23Z</time>
      </trkpt>
      <trkpt lat="37.54159" lon="27.62179">
        <ele>770.4</ele>
        <time>2020-12-02T12:31:22Z</time>
      </trkpt>
      <trkpt lat="37.54159" lon="27.62179">
        <ele>770.6</ele>
        <time>2020-12-02T12:31:21Z</time>
      </trkpt>
      <trkpt lat="37.54159" lon="27.62179">
        <ele>770.8</ele>
        <time>2020-12-02T12:31:20Z</time>
      </trkpt>
      <trkpt lat="37.54159" lon="27.62179">
        <ele>770.6</ele>
        <time>2020-12-02T12:31:19Z</time>
      </trkpt>
      <trkpt lat="37.54159" lon="27.62179">
        <ele>770.6</ele>
        <time>2020-12-02T12:31:18Z</time>
      </trkpt>
      <trkpt lat="37.54158" lon="27.62177">
        <ele>770.8</ele>
        <time>2020-12-02T12:31:17Z</time>
      </trkpt>
      <trkpt lat="37.54158" lon="27.62177">
        <ele>770.8</ele>
        <time>2020-12-02T12:31:16Z</time>
      </trkpt>
      <trkpt lat="37.54158" lon="27.62177">
        <ele>771</ele>
        <time>2020-12-02T12:31:15Z</time>
      </trkpt>
      <trkpt lat="37.54158" lon="27.62177">
        <ele>771.2</ele>
        <time>2020-12-02T12:31:14Z</time>
      </trkpt>
      <trkpt lat="37.54158" lon="27.62177">
        <ele>771.4</ele>
        <time>2020-12-02T12:31:13Z</time>
      </trkpt>
      <trkpt lat="37.54158" lon="27.62177">
        <ele>771.4</ele>
        <time>2020-12-02T12:31:12Z</time>
      </trkpt>
      <trkpt lat="37.54158" lon="27.62176">
        <ele>771.6</ele>
        <time>2020-12-02T12:31:11Z</time>
      </trkpt>
      <trkpt lat="37.54158" lon="27.62176">
        <ele>771.6</ele>
        <time>2020-12-02T12:31:10Z</time>
      </trkpt>
      <trkpt lat="37.54158" lon="27.62176">
        <ele>771.6</ele>
        <time>2020-12-02T12:31:09Z</time>
      </trkpt>
      <trkpt lat="37.54158" lon="27.62175">
        <ele>771.8</ele>
        <time>2020-12-02T12:31:08Z</time>
      </trkpt>
      <trkpt lat="37.54157" lon="27.62175">
        <ele>772</ele>
        <time>2020-12-02T12:31:07Z</time>
      </trkpt>
      <trkpt lat="37.54157" lon="27.62175">
        <ele>772</ele>
        <time>2020-12-02T12:31:06Z</time>
      </trkpt>
      <trkpt lat="37.54157" lon="27.62174">
        <ele>772.4</ele>
        <time>2020-12-02T12:31:05Z</time>
      </trkpt>
      <trkpt lat="37.54157" lon="27.62174">
        <ele>772.6</ele>
        <time>2020-12-02T12:31:04Z</time>
      </trkpt>
      <trkpt lat="37.54157" lon="27.62174">
        <ele>772.8</ele>
        <time>2020-12-02T12:31:03Z</time>
      </trkpt>
      <trkpt lat="37.54157" lon="27.62173">
        <ele>773</ele>
        <time>2020-12-02T12:31:02Z</time>
      </trkpt>
      <trkpt lat="37.54157" lon="27.62173">
        <ele>773.2</ele>
        <time>2020-12-02T12:31:01Z</time>
      </trkpt>
      <trkpt lat="37.54157" lon="27.62173">
        <ele>773.2</ele>
        <time>2020-12-02T12:31:00Z</time>
      </trkpt>
      <trkpt lat="37.54159" lon="27.62172">
        <ele>773.6</ele>
        <time>2020-12-02T12:30:59Z</time>
      </trkpt>
      <trkpt lat="37.54159" lon="27.62172">
        <ele>774</ele>
        <time>2020-12-02T12:30:58Z</time>
      </trkpt>
      <trkpt lat="37.54159" lon="27.62172">
        <ele>774.2</ele>
        <time>2020-12-02T12:30:57Z</time>
      </trkpt>
      <trkpt lat="37.54161" lon="27.62171">
        <ele>774.4</ele>
        <time>2020-12-02T12:30:56Z</time>
      </trkpt>
      <trkpt lat="37.54161" lon="27.62171">
        <ele>774.6</ele>
        <time>2020-12-02T12:30:55Z</time>
      </trkpt>
      <trkpt lat="37.54163" lon="27.6217">
        <ele>775</ele>
        <time>2020-12-02T12:30:54Z</time>
      </trkpt>
      <trkpt lat="37.54163" lon="27.6217">
        <ele>775.2</ele>
        <time>2020-12-02T12:30:53Z</time>
      </trkpt>
      <trkpt lat="37.54165" lon="27.62169">
        <ele>775.2</ele>
        <time>2020-12-02T12:30:52Z</time>
      </trkpt>
      <trkpt lat="37.54165" lon="27.62169">
        <ele>775.6</ele>
        <time>2020-12-02T12:30:51Z</time>
      </trkpt>
      <trkpt lat="37.54166" lon="27.62167">
        <ele>775.6</ele>
        <time>2020-12-02T12:30:50Z</time>
      </trkpt>
      <trkpt lat="37.54166" lon="27.62167">
        <ele>775.8</ele>
        <time>2020-12-02T12:30:49Z</time>
      </trkpt>
      <trkpt lat="37.54166" lon="27.62167">
        <ele>776.2</ele>
        <time>2020-12-02T12:30:48Z</time>
      </trkpt>
      <trkpt lat="37.54167" lon="27.62165">
        <ele>776.4</ele>
        <time>2020-12-02T12:30:47Z</time>
      </trkpt>
      <trkpt lat="37.54167" lon="27.62165">
        <ele>776.4</ele>
        <time>2020-12-02T12:30:46Z</time>
      </trkpt>
      <trkpt lat="37.54167" lon="27.62165">
        <ele>776.6</ele>
        <time>2020-12-02T12:30:45Z</time>
      </trkpt>
      <trkpt lat="37.54167" lon="27.62165">
        <ele>776.6</ele>
        <time>2020-12-02T12:30:44Z</time>
      </trkpt>
      <trkpt lat="37.54167" lon="27.62165">
        <ele>776.8</ele>
        <time>2020-12-02T12:30:43Z</time>
      </trkpt>
      <trkpt lat="37.54169" lon="27.62163">
        <ele>776.8</ele>
        <time>2020-12-02T12:30:42Z</time>
      </trkpt>
      <trkpt lat="37.54169" lon="27.62163">
        <ele>776.8</ele>
        <time>2020-12-02T12:30:41Z</time>
      </trkpt>
      <trkpt lat="37.54169" lon="27.62163">
        <ele>776.8</ele>
        <time>2020-12-02T12:30:40Z</time>
      </trkpt>
      <trkpt lat="37.54169" lon="27.62163">
        <ele>776.8</ele>
        <time>2020-12-02T12:30:39Z</time>
      </trkpt>
      <trkpt lat="37.54169" lon="27.62163">
        <ele>777</ele>
        <time>2020-12-02T12:30:38Z</time>
      </trkpt>
      <trkpt lat="37.54168" lon="27.62161">
        <ele>777</ele>
        <time>2020-12-02T12:30:37Z</time>
      </trkpt>
      <trkpt lat="37.54168" lon="27.62161">
        <ele>777.2</ele>
        <time>2020-12-02T12:30:36Z</time>
      </trkpt>
      <trkpt lat="37.54168" lon="27.62161">
        <ele>777.2</ele>
        <time>2020-12-02T12:30:35Z</time>
      </trkpt>
      <trkpt lat="37.54168" lon="27.62161">
        <ele>777.2</ele>
        <time>2020-12-02T12:30:34Z</time>
      </trkpt>
      <trkpt lat="37.54168" lon="27.62161">
        <ele>777.2</ele>
        <time>2020-12-02T12:30:33Z</time>
      </trkpt>
      <trkpt lat="37.54168" lon="27.62161">
        <ele>777.4</ele>
        <time>2020-12-02T12:30:32Z</time>
      </trkpt>
      <trkpt lat="37.54168" lon="27.62161">
        <ele>777.4</ele>
        <time>2020-12-02T12:30:31Z</time>
      </trkpt>
      <trkpt lat="37.54168" lon="27.62161">
        <ele>777.4</ele>
        <time>2020-12-02T12:30:30Z</time>
      </trkpt>
      <trkpt lat="37.54168" lon="27.62161">
        <ele>777.6</ele>
        <time>2020-12-02T12:30:29Z</time>
      </trkpt>
      <trkpt lat="37.54168" lon="27.62161">
        <ele>777.8</ele>
        <time>2020-12-02T12:30:28Z</time>
      </trkpt>
      <trkpt lat="37.54168" lon="27.62161">
        <ele>778.2</ele>
        <time>2020-12-02T12:30:27Z</time>
      </trkpt>
      <trkpt lat="37.54168" lon="27.62161">
        <ele>778.2</ele>
        <time>2020-12-02T12:30:26Z</time>
      </trkpt>
      <trkpt lat="37.54168" lon="27.62161">
        <ele>778.2</ele>
        <time>2020-12-02T12:30:25Z</time>
      </trkpt>
      <trkpt lat="37.54168" lon="27.62161">
        <ele>778.4</ele>
        <time>2020-12-02T12:30:24Z</time>
      </trkpt>
      <trkpt lat="37.54168" lon="27.62161">
        <ele>778.6</ele>
        <time>2020-12-02T12:30:23Z</time>
      </trkpt>
      <trkpt lat="37.54167" lon="27.6216">
        <ele>778.6</ele>
        <time>2020-12-02T12:30:22Z</time>
      </trkpt>
      <trkpt lat="37.54167" lon="27.6216">
        <ele>778.8</ele>
        <time>2020-12-02T12:30:21Z</time>
      </trkpt>
      <trkpt lat="37.54167" lon="27.6216">
        <ele>779</ele>
        <time>2020-12-02T12:30:20Z</time>
      </trkpt>
      <trkpt lat="37.54167" lon="27.6216">
        <ele>779.2</ele>
        <time>2020-12-02T12:30:19Z</time>
      </trkpt>
      <trkpt lat="37.54167" lon="27.6216">
        <ele>779.4</ele>
        <time>2020-12-02T12:30:18Z</time>
      </trkpt>
      <trkpt lat="37.54167" lon="27.6216">
        <ele>779.2</ele>
        <time>2020-12-02T12:30:17Z</time>
      </trkpt>
      <trkpt lat="37.54167" lon="27.6216">
        <ele>779.4</ele>
        <time>2020-12-02T12:30:16Z</time>
      </trkpt>
      <trkpt lat="37.54168" lon="27.62158">
        <ele>779.6</ele>
        <time>2020-12-02T12:30:15Z</time>
      </trkpt>
      <trkpt lat="37.54168" lon="27.62158">
        <ele>779.8</ele>
        <time>2020-12-02T12:30:14Z</time>
      </trkpt>
      <trkpt lat="37.54168" lon="27.62158">
        <ele>779.8</ele>
        <time>2020-12-02T12:30:13Z</time>
      </trkpt>
      <trkpt lat="37.54168" lon="27.62158">
        <ele>779.8</ele>
        <time>2020-12-02T12:30:12Z</time>
      </trkpt>
      <trkpt lat="37.5417" lon="27.62157">
        <ele>780</ele>
        <time>2020-12-02T12:30:11Z</time>
      </trkpt>
      <trkpt lat="37.5417" lon="27.62157">
        <ele>780</ele>
        <time>2020-12-02T12:30:10Z</time>
      </trkpt>
      <trkpt lat="37.54172" lon="27.62158">
        <ele>780</ele>
        <time>2020-12-02T12:30:09Z</time>
      </trkpt>
      <trkpt lat="37.54172" lon="27.62158">
        <ele>780.2</ele>
        <time>2020-12-02T12:30:08Z</time>
      </trkpt>
      <trkpt lat="37.54172" lon="27.62158">
        <ele>780.2</ele>
        <time>2020-12-02T12:30:07Z</time>
      </trkpt>
      <trkpt lat="37.54172" lon="27.62158">
        <ele>780.4</ele>
        <time>2020-12-02T12:30:06Z</time>
      </trkpt>
      <trkpt lat="37.54174" lon="27.62158">
        <ele>780.6</ele>
        <time>2020-12-02T12:30:05Z</time>
      </trkpt>
      <trkpt lat="37.54174" lon="27.62158">
        <ele>780.6</ele>
        <time>2020-12-02T12:30:04Z</time>
      </trkpt>
      <trkpt lat="37.54174" lon="27.62158">
        <ele>780.6</ele>
        <time>2020-12-02T12:30:03Z</time>
      </trkpt>
      <trkpt lat="37.54174" lon="27.62158">
        <ele>780.6</ele>
        <time>2020-12-02T12:30:02Z</time>
      </trkpt>
      <trkpt lat="37.54174" lon="27.62158">
        <ele>780.6</ele>
        <time>2020-12-02T12:30:01Z</time>
      </trkpt>
      <trkpt lat="37.54176" lon="27.62156">
        <ele>780.8</ele>
        <time>2020-12-02T12:30:00Z</time>
      </trkpt>
      <trkpt lat="37.54176" lon="27.62156">
        <ele>780.8</ele>
        <time>2020-12-02T12:29:59Z</time>
      </trkpt>
      <trkpt lat="37.54176" lon="27.62156">
        <ele>781</ele>
        <time>2020-12-02T12:29:58Z</time>
      </trkpt>
      <trkpt lat="37.54176" lon="27.62156">
        <ele>781.2</ele>
        <time>2020-12-02T12:29:57Z</time>
      </trkpt>
      <trkpt lat="37.54176" lon="27.62156">
        <ele>781.4</ele>
        <time>2020-12-02T12:29:56Z</time>
      </trkpt>
      <trkpt lat="37.54176" lon="27.62156">
        <ele>781.4</ele>
        <time>2020-12-02T12:29:55Z</time>
      </trkpt>
      <trkpt lat="37.54178" lon="27.62155">
        <ele>781.6</ele>
        <time>2020-12-02T12:29:54Z</time>
      </trkpt>
      <trkpt lat="37.54178" lon="27.62155">
        <ele>781.6</ele>
        <time>2020-12-02T12:29:53Z</time>
      </trkpt>
      <trkpt lat="37.54178" lon="27.62155">
        <ele>781.8</ele>
        <time>2020-12-02T12:29:52Z</time>
      </trkpt>
      <trkpt lat="37.5418" lon="27.62155">
        <ele>781.6</ele>
        <time>2020-12-02T12:29:51Z</time>
      </trkpt>
      <trkpt lat="37.5418" lon="27.62155">
        <ele>781.6</ele>
        <time>2020-12-02T12:29:50Z</time>
      </trkpt>
      <trkpt lat="37.5418" lon="27.62154">
        <ele>781.8</ele>
        <time>2020-12-02T12:29:49Z</time>
      </trkpt>
      <trkpt lat="37.54179" lon="27.62154">
        <ele>781.8</ele>
        <time>2020-12-02T12:29:48Z</time>
      </trkpt>
      <trkpt lat="37.54179" lon="27.62153">
        <ele>781.8</ele>
        <time>2020-12-02T12:29:47Z</time>
      </trkpt>
      <trkpt lat="37.54179" lon="27.62153">
        <ele>782.2</ele>
        <time>2020-12-02T12:29:46Z</time>
      </trkpt>
      <trkpt lat="37.54179" lon="27.62152">
        <ele>782.2</ele>
        <time>2020-12-02T12:29:45Z</time>
      </trkpt>
      <trkpt lat="37.54179" lon="27.62152">
        <ele>782.4</ele>
        <time>2020-12-02T12:29:44Z</time>
      </trkpt>
      <trkpt lat="37.54179" lon="27.62151">
        <ele>782.4</ele>
        <time>2020-12-02T12:29:43Z</time>
      </trkpt>
      <trkpt lat="37.54178" lon="27.62151">
        <ele>782.6</ele>
        <time>2020-12-02T12:29:42Z</time>
      </trkpt>
      <trkpt lat="37.54178" lon="27.6215">
        <ele>782.6</ele>
        <time>2020-12-02T12:29:41Z</time>
      </trkpt>
      <trkpt lat="37.54178" lon="27.6215">
        <ele>782.8</ele>
        <time>2020-12-02T12:29:40Z</time>
      </trkpt>
      <trkpt lat="37.54178" lon="27.62149">
        <ele>783</ele>
        <time>2020-12-02T12:29:39Z</time>
      </trkpt>
      <trkpt lat="37.54178" lon="27.62149">
        <ele>783.2</ele>
        <time>2020-12-02T12:29:38Z</time>
      </trkpt>
      <trkpt lat="37.54175" lon="27.62149">
        <ele>783.2</ele>
        <time>2020-12-02T12:29:37Z</time>
      </trkpt>
      <trkpt lat="37.54175" lon="27.62149">
        <ele>783.2</ele>
        <time>2020-12-02T12:29:36Z</time>
      </trkpt>
      <trkpt lat="37.54175" lon="27.62149">
        <ele>783.2</ele>
        <time>2020-12-02T12:29:35Z</time>
      </trkpt>
      <trkpt lat="37.54175" lon="27.62149">
        <ele>783.2</ele>
        <time>2020-12-02T12:29:34Z</time>
      </trkpt>
      <trkpt lat="37.54175" lon="27.62149">
        <ele>783</ele>
        <time>2020-12-02T12:29:33Z</time>
      </trkpt>
      <trkpt lat="37.54173" lon="27.62153">
        <ele>782.8</ele>
        <time>2020-12-02T12:29:32Z</time>
      </trkpt>
      <trkpt lat="37.54173" lon="27.62153">
        <ele>783</ele>
        <time>2020-12-02T12:29:31Z</time>
      </trkpt>
      <trkpt lat="37.54173" lon="27.62153">
        <ele>783</ele>
        <time>2020-12-02T12:29:30Z</time>
      </trkpt>
      <trkpt lat="37.54173" lon="27.62153">
        <ele>783</ele>
        <time>2020-12-02T12:29:29Z</time>
      </trkpt>
      <trkpt lat="37.54173" lon="27.62153">
        <ele>783</ele>
        <time>2020-12-02T12:29:28Z</time>
      </trkpt>
      <trkpt lat="37.54173" lon="27.62153">
        <ele>783</ele>
        <time>2020-12-02T12:29:27Z</time>
      </trkpt>
      <trkpt lat="37.54173" lon="27.62153">
        <ele>783.2</ele>
        <time>2020-12-02T12:29:26Z</time>
      </trkpt>
      <trkpt lat="37.54173" lon="27.62153">
        <ele>783</ele>
        <time>2020-12-02T12:29:25Z</time>
      </trkpt>
      <trkpt lat="37.54173" lon="27.62153">
        <ele>783</ele>
        <time>2020-12-02T12:29:24Z</time>
      </trkpt>
      <trkpt lat="37.54173" lon="27.62153">
        <ele>783.2</ele>
        <time>2020-12-02T12:29:23Z</time>
      </trkpt>
      <trkpt lat="37.54173" lon="27.62153">
        <ele>783.2</ele>
        <time>2020-12-02T12:29:22Z</time>
      </trkpt>
      <trkpt lat="37.54173" lon="27.62153">
        <ele>783.2</ele>
        <time>2020-12-02T12:29:21Z</time>
      </trkpt>
      <trkpt lat="37.54173" lon="27.62153">
        <ele>783.2</ele>
        <time>2020-12-02T12:29:20Z</time>
      </trkpt>
      <trkpt lat="37.54173" lon="27.62153">
        <ele>783.4</ele>
        <time>2020-12-02T12:29:19Z</time>
      </trkpt>
      <trkpt lat="37.54173" lon="27.62153">
        <ele>783.2</ele>
        <time>2020-12-02T12:29:18Z</time>
      </trkpt>
      <trkpt lat="37.54174" lon="27.62151">
        <ele>783.6</ele>
        <time>2020-12-02T12:29:17Z</time>
      </trkpt>
      <trkpt lat="37.54174" lon="27.62151">
        <ele>783.6</ele>
        <time>2020-12-02T12:29:16Z</time>
      </trkpt>
      <trkpt lat="37.54174" lon="27.62151">
        <ele>784</ele>
        <time>2020-12-02T12:29:15Z</time>
      </trkpt>
      <trkpt lat="37.54174" lon="27.62151">
        <ele>784</ele>
        <time>2020-12-02T12:29:14Z</time>
      </trkpt>
      <trkpt lat="37.54174" lon="27.62151">
        <ele>784</ele>
        <time>2020-12-02T12:29:13Z</time>
      </trkpt>
      <trkpt lat="37.54174" lon="27.62151">
        <ele>784</ele>
        <time>2020-12-02T12:29:12Z</time>
      </trkpt>
      <trkpt lat="37.54176" lon="27.6215">
        <ele>784</ele>
        <time>2020-12-02T12:29:11Z</time>
      </trkpt>
      <trkpt lat="37.54176" lon="27.6215">
        <ele>784</ele>
        <time>2020-12-02T12:29:10Z</time>
      </trkpt>
      <trkpt lat="37.54176" lon="27.6215">
        <ele>784</ele>
        <time>2020-12-02T12:29:09Z</time>
      </trkpt>
      <trkpt lat="37.54178" lon="27.62149">
        <ele>784</ele>
        <time>2020-12-02T12:29:08Z</time>
      </trkpt>
      <trkpt lat="37.54178" lon="27.62149">
        <ele>784</ele>
        <time>2020-12-02T12:29:07Z</time>
      </trkpt>
      <trkpt lat="37.54179" lon="27.62147">
        <ele>784</ele>
        <time>2020-12-02T12:29:06Z</time>
      </trkpt>
      <trkpt lat="37.54179" lon="27.62147">
        <ele>784</ele>
        <time>2020-12-02T12:29:05Z</time>
      </trkpt>
      <trkpt lat="37.54179" lon="27.62145">
        <ele>784</ele>
        <time>2020-12-02T12:29:04Z</time>
      </trkpt>
      <trkpt lat="37.54179" lon="27.62145">
        <ele>784</ele>
        <time>2020-12-02T12:29:03Z</time>
      </trkpt>
      <trkpt lat="37.54179" lon="27.62145">
        <ele>784</ele>
        <time>2020-12-02T12:29:02Z</time>
      </trkpt>
      <trkpt lat="37.54179" lon="27.62145">
        <ele>784</ele>
        <time>2020-12-02T12:29:01Z</time>
      </trkpt>
      <trkpt lat="37.54179" lon="27.62145">
        <ele>784</ele>
        <time>2020-12-02T12:29:00Z</time>
      </trkpt>
      <trkpt lat="37.54179" lon="27.62145">
        <ele>784</ele>
        <time>2020-12-02T12:28:59Z</time>
      </trkpt>
      <trkpt lat="37.54179" lon="27.62145">
        <ele>784</ele>
        <time>2020-12-02T12:28:58Z</time>
      </trkpt>
      <trkpt lat="37.54179" lon="27.62145">
        <ele>784</ele>
        <time>2020-12-02T12:28:57Z</time>
      </trkpt>
      <trkpt lat="37.54179" lon="27.62145">
        <ele>784</ele>
        <time>2020-12-02T12:28:56Z</time>
      </trkpt>
      <trkpt lat="37.54179" lon="27.62145">
        <ele>784</ele>
        <time>2020-12-02T12:28:55Z</time>
      </trkpt>
      <trkpt lat="37.54179" lon="27.62145">
        <ele>783.8</ele>
        <time>2020-12-02T12:28:54Z</time>
      </trkpt>
      <trkpt lat="37.54179" lon="27.62145">
        <ele>783.8</ele>
        <time>2020-12-02T12:28:53Z</time>
      </trkpt>
      <trkpt lat="37.54179" lon="27.62145">
        <ele>783.8</ele>
        <time>2020-12-02T12:28:52Z</time>
      </trkpt>
      <trkpt lat="37.54179" lon="27.62145">
        <ele>783.8</ele>
        <time>2020-12-02T12:28:51Z</time>
      </trkpt>
      <trkpt lat="37.54179" lon="27.62145">
        <ele>783.8</ele>
        <time>2020-12-02T12:28:50Z</time>
      </trkpt>
      <trkpt lat="37.54179" lon="27.62145">
        <ele>783.8</ele>
        <time>2020-12-02T12:28:49Z</time>
      </trkpt>
      <trkpt lat="37.54179" lon="27.62145">
        <ele>783.8</ele>
        <time>2020-12-02T12:28:48Z</time>
      </trkpt>
      <trkpt lat="37.54179" lon="27.62145">
        <ele>783.8</ele>
        <time>2020-12-02T12:28:47Z</time>
      </trkpt>
      <trkpt lat="37.54178" lon="27.62147">
        <ele>783.8</ele>
        <time>2020-12-02T12:28:46Z</time>
      </trkpt>
      <trkpt lat="37.54178" lon="27.62147">
        <ele>783.8</ele>
        <time>2020-12-02T12:28:45Z</time>
      </trkpt>
      <trkpt lat="37.54178" lon="27.62147">
        <ele>783.8</ele>
        <time>2020-12-02T12:28:44Z</time>
      </trkpt>
      <trkpt lat="37.54178" lon="27.62147">
        <ele>783.8</ele>
        <time>2020-12-02T12:28:43Z</time>
      </trkpt>
      <trkpt lat="37.54178" lon="27.62147">
        <ele>783.8</ele>
        <time>2020-12-02T12:28:42Z</time>
      </trkpt>
      <trkpt lat="37.54178" lon="27.62147">
        <ele>783.8</ele>
        <time>2020-12-02T12:28:41Z</time>
      </trkpt>
      <trkpt lat="37.54178" lon="27.62147">
        <ele>783.8</ele>
        <time>2020-12-02T12:28:40Z</time>
      </trkpt>
      <trkpt lat="37.54178" lon="27.62147">
        <ele>783.8</ele>
        <time>2020-12-02T12:28:39Z</time>
      </trkpt>
      <trkpt lat="37.54178" lon="27.62147">
        <ele>783.8</ele>
        <time>2020-12-02T12:28:38Z</time>
      </trkpt>
      <trkpt lat="37.54178" lon="27.62147">
        <ele>783.8</ele>
        <time>2020-12-02T12:28:37Z</time>
      </trkpt>
      <trkpt lat="37.54178" lon="27.62147">
        <ele>783.8</ele>
        <time>2020-12-02T12:28:36Z</time>
      </trkpt>
      <trkpt lat="37.5418" lon="27.62147">
        <ele>783.8</ele>
        <time>2020-12-02T12:28:35Z</time>
      </trkpt>
      <trkpt lat="37.5418" lon="27.62147">
        <ele>783.8</ele>
        <time>2020-12-02T12:28:34Z</time>
      </trkpt>
      <trkpt lat="37.5418" lon="27.62147">
        <ele>783.8</ele>
        <time>2020-12-02T12:28:33Z</time>
      </trkpt>
      <trkpt lat="37.5418" lon="27.62147">
        <ele>783.8</ele>
        <time>2020-12-02T12:28:32Z</time>
      </trkpt>
      <trkpt lat="37.5418" lon="27.62147">
        <ele>783.8</ele>
        <time>2020-12-02T12:28:31Z</time>
      </trkpt>
      <trkpt lat="37.5418" lon="27.62147">
        <ele>783.8</ele>
        <time>2020-12-02T12:28:30Z</time>
      </trkpt>
      <trkpt lat="37.5418" lon="27.62147">
        <ele>783.8</ele>
        <time>2020-12-02T12:28:29Z</time>
      </trkpt>
      <trkpt lat="37.5418" lon="27.62147">
        <ele>783.8</ele>
        <time>2020-12-02T12:28:28Z</time>
      </trkpt>
      <trkpt lat="37.5418" lon="27.62147">
        <ele>783.8</ele>
        <time>2020-12-02T12:28:27Z</time>
      </trkpt>
      <trkpt lat="37.5418" lon="27.62147">
        <ele>783.8</ele>
        <time>2020-12-02T12:28:26Z</time>
      </trkpt>
      <trkpt lat="37.5418" lon="27.62147">
        <ele>783.8</ele>
        <time>2020-12-02T12:28:25Z</time>
      </trkpt>
      <trkpt lat="37.5418" lon="27.62147">
        <ele>783.8</ele>
        <time>2020-12-02T12:28:24Z</time>
      </trkpt>
      <trkpt lat="37.54182" lon="27.62147">
        <ele>783.8</ele>
        <time>2020-12-02T12:28:23Z</time>
      </trkpt>
      <trkpt lat="37.54182" lon="27.62147">
        <ele>783.8</ele>
        <time>2020-12-02T12:28:22Z</time>
      </trkpt>
      <trkpt lat="37.54182" lon="27.62147">
        <ele>783.8</ele>
        <time>2020-12-02T12:28:21Z</time>
      </trkpt>
      <trkpt lat="37.54184" lon="27.62146">
        <ele>783.8</ele>
        <time>2020-12-02T12:28:20Z</time>
      </trkpt>
      <trkpt lat="37.54184" lon="27.62146">
        <ele>783.8</ele>
        <time>2020-12-02T12:28:19Z</time>
      </trkpt>
      <trkpt lat="37.54184" lon="27.62146">
        <ele>783.8</ele>
        <time>2020-12-02T12:28:18Z</time>
      </trkpt>
      <trkpt lat="37.54185" lon="27.62144">
        <ele>783.8</ele>
        <time>2020-12-02T12:28:17Z</time>
      </trkpt>
      <trkpt lat="37.54185" lon="27.62144">
        <ele>783.8</ele>
        <time>2020-12-02T12:28:16Z</time>
      </trkpt>
      <trkpt lat="37.54185" lon="27.62144">
        <ele>783.8</ele>
        <time>2020-12-02T12:28:15Z</time>
      </trkpt>
      <trkpt lat="37.54185" lon="27.62144">
        <ele>783.8</ele>
        <time>2020-12-02T12:28:14Z</time>
      </trkpt>
      <trkpt lat="37.54185" lon="27.62144">
        <ele>783.8</ele>
        <time>2020-12-02T12:28:13Z</time>
      </trkpt>
      <trkpt lat="37.54185" lon="27.62144">
        <ele>783.8</ele>
        <time>2020-12-02T12:28:12Z</time>
      </trkpt>
      <trkpt lat="37.54187" lon="27.62142">
        <ele>783.8</ele>
        <time>2020-12-02T12:28:11Z</time>
      </trkpt>
      <trkpt lat="37.54187" lon="27.62142">
        <ele>783.8</ele>
        <time>2020-12-02T12:28:10Z</time>
      </trkpt>
      <trkpt lat="37.54187" lon="27.62142">
        <ele>783.8</ele>
        <time>2020-12-02T12:28:09Z</time>
      </trkpt>
      <trkpt lat="37.54187" lon="27.62142">
        <ele>783.8</ele>
        <time>2020-12-02T12:28:08Z</time>
      </trkpt>
      <trkpt lat="37.54185" lon="27.6214">
        <ele>783.8</ele>
        <time>2020-12-02T12:28:07Z</time>
      </trkpt>
      <trkpt lat="37.54185" lon="27.6214">
        <ele>783.8</ele>
        <time>2020-12-02T12:28:06Z</time>
      </trkpt>
      <trkpt lat="37.54185" lon="27.6214">
        <ele>783.8</ele>
        <time>2020-12-02T12:28:05Z</time>
      </trkpt>
      <trkpt lat="37.54185" lon="27.6214">
        <ele>783.8</ele>
        <time>2020-12-02T12:28:04Z</time>
      </trkpt>
      <trkpt lat="37.54183" lon="27.62141">
        <ele>783.8</ele>
        <time>2020-12-02T12:28:03Z</time>
      </trkpt>
      <trkpt lat="37.54183" lon="27.62141">
        <ele>783.8</ele>
        <time>2020-12-02T12:28:02Z</time>
      </trkpt>
      <trkpt lat="37.54183" lon="27.62141">
        <ele>783.8</ele>
        <time>2020-12-02T12:28:01Z</time>
      </trkpt>
      <trkpt lat="37.54183" lon="27.62141">
        <ele>783.8</ele>
        <time>2020-12-02T12:28:00Z</time>
      </trkpt>
      <trkpt lat="37.54183" lon="27.62141">
        <ele>783.8</ele>
        <time>2020-12-02T12:27:59Z</time>
      </trkpt>
      <trkpt lat="37.54183" lon="27.62141">
        <ele>783.8</ele>
        <time>2020-12-02T12:27:58Z</time>
      </trkpt>
      <trkpt lat="37.54183" lon="27.62141">
        <ele>783.8</ele>
        <time>2020-12-02T12:27:57Z</time>
      </trkpt>
      <trkpt lat="37.54183" lon="27.62141">
        <ele>783.8</ele>
        <time>2020-12-02T12:27:56Z</time>
      </trkpt>
      <trkpt lat="37.54183" lon="27.62141">
        <ele>783.8</ele>
        <time>2020-12-02T12:27:55Z</time>
      </trkpt>
      <trkpt lat="37.54183" lon="27.62141">
        <ele>783.8</ele>
        <time>2020-12-02T12:27:54Z</time>
      </trkpt>
      <trkpt lat="37.54183" lon="27.62141">
        <ele>783.8</ele>
        <time>2020-12-02T12:27:53Z</time>
      </trkpt>
      <trkpt lat="37.54183" lon="27.62141">
        <ele>783.8</ele>
        <time>2020-12-02T12:27:52Z</time>
      </trkpt>
      <trkpt lat="37.54181" lon="27.6214">
        <ele>783.8</ele>
        <time>2020-12-02T12:27:51Z</time>
      </trkpt>
      <trkpt lat="37.54181" lon="27.6214">
        <ele>783.8</ele>
        <time>2020-12-02T12:27:50Z</time>
      </trkpt>
      <trkpt lat="37.54181" lon="27.6214">
        <ele>783.8</ele>
        <time>2020-12-02T12:27:49Z</time>
      </trkpt>
      <trkpt lat="37.54181" lon="27.6214">
        <ele>783.8</ele>
        <time>2020-12-02T12:27:48Z</time>
      </trkpt>
      <trkpt lat="37.5418" lon="27.62138">
        <ele>783.8</ele>
        <time>2020-12-02T12:27:47Z</time>
      </trkpt>
      <trkpt lat="37.5418" lon="27.62138">
        <ele>783.8</ele>
        <time>2020-12-02T12:27:46Z</time>
      </trkpt>
      <trkpt lat="37.5418" lon="27.62138">
        <ele>783.8</ele>
        <time>2020-12-02T12:27:45Z</time>
      </trkpt>
      <trkpt lat="37.54178" lon="27.62136">
        <ele>783.8</ele>
        <time>2020-12-02T12:27:44Z</time>
      </trkpt>
      <trkpt lat="37.54178" lon="27.62136">
        <ele>783.8</ele>
        <time>2020-12-02T12:27:43Z</time>
      </trkpt>
      <trkpt lat="37.54178" lon="27.62136">
        <ele>783.8</ele>
        <time>2020-12-02T12:27:42Z</time>
      </trkpt>
      <trkpt lat="37.54177" lon="27.62135">
        <ele>783.8</ele>
        <time>2020-12-02T12:27:41Z</time>
      </trkpt>
      <trkpt lat="37.54177" lon="27.62135">
        <ele>783.8</ele>
        <time>2020-12-02T12:27:40Z</time>
      </trkpt>
      <trkpt lat="37.54177" lon="27.62135">
        <ele>783.8</ele>
        <time>2020-12-02T12:27:39Z</time>
      </trkpt>
      <trkpt lat="37.54177" lon="27.62135">
        <ele>783.8</ele>
        <time>2020-12-02T12:27:38Z</time>
      </trkpt>
      <trkpt lat="37.54177" lon="27.62135">
        <ele>783.8</ele>
        <time>2020-12-02T12:27:37Z</time>
      </trkpt>
      <trkpt lat="37.54177" lon="27.62135">
        <ele>783.8</ele>
        <time>2020-12-02T12:27:36Z</time>
      </trkpt>
      <trkpt lat="37.54177" lon="27.62135">
        <ele>783.8</ele>
        <time>2020-12-02T12:27:35Z</time>
      </trkpt>
      <trkpt lat="37.54177" lon="27.62135">
        <ele>783.8</ele>
        <time>2020-12-02T12:27:34Z</time>
      </trkpt>
      <trkpt lat="37.54177" lon="27.62135">
        <ele>783.8</ele>
        <time>2020-12-02T12:27:33Z</time>
      </trkpt>
      <trkpt lat="37.54177" lon="27.62135">
        <ele>783.8</ele>
        <time>2020-12-02T12:27:32Z</time>
      </trkpt>
      <trkpt lat="37.54177" lon="27.62135">
        <ele>783.8</ele>
        <time>2020-12-02T12:27:31Z</time>
      </trkpt>
      <trkpt lat="37.54177" lon="27.62135">
        <ele>783.8</ele>
        <time>2020-12-02T12:27:30Z</time>
      </trkpt>
      <trkpt lat="37.54177" lon="27.62135">
        <ele>783.8</ele>
        <time>2020-12-02T12:27:29Z</time>
      </trkpt>
      <trkpt lat="37.54177" lon="27.62135">
        <ele>783.8</ele>
        <time>2020-12-02T12:27:28Z</time>
      </trkpt>
      <trkpt lat="37.54175" lon="27.62134">
        <ele>783.8</ele>
        <time>2020-12-02T12:27:27Z</time>
      </trkpt>
      <trkpt lat="37.54175" lon="27.62134">
        <ele>783.8</ele>
        <time>2020-12-02T12:27:26Z</time>
      </trkpt>
      <trkpt lat="37.54175" lon="27.62134">
        <ele>783.8</ele>
        <time>2020-12-02T12:27:25Z</time>
      </trkpt>
      <trkpt lat="37.54175" lon="27.62134">
        <ele>783.8</ele>
        <time>2020-12-02T12:27:24Z</time>
      </trkpt>
      <trkpt lat="37.54175" lon="27.62134">
        <ele>783.8</ele>
        <time>2020-12-02T12:27:23Z</time>
      </trkpt>
      <trkpt lat="37.54175" lon="27.62134">
        <ele>783.8</ele>
        <time>2020-12-02T12:27:22Z</time>
      </trkpt>
      <trkpt lat="37.54175" lon="27.62134">
        <ele>783.8</ele>
        <time>2020-12-02T12:27:21Z</time>
      </trkpt>
      <trkpt lat="37.54175" lon="27.62134">
        <ele>783.8</ele>
        <time>2020-12-02T12:27:20Z</time>
      </trkpt>
      <trkpt lat="37.54175" lon="27.62134">
        <ele>783.8</ele>
        <time>2020-12-02T12:27:19Z</time>
      </trkpt>
      <trkpt lat="37.54175" lon="27.62134">
        <ele>783.8</ele>
        <time>2020-12-02T12:27:18Z</time>
      </trkpt>
      <trkpt lat="37.54175" lon="27.62134">
        <ele>783.8</ele>
        <time>2020-12-02T12:27:17Z</time>
      </trkpt>
      <trkpt lat="37.54175" lon="27.62134">
        <ele>783.8</ele>
        <time>2020-12-02T12:27:16Z</time>
      </trkpt>
      <trkpt lat="37.54175" lon="27.62134">
        <ele>783.8</ele>
        <time>2020-12-02T12:27:15Z</time>
      </trkpt>
      <trkpt lat="37.54175" lon="27.62134">
        <ele>783.8</ele>
        <time>2020-12-02T12:27:14Z</time>
      </trkpt>
      <trkpt lat="37.54175" lon="27.62134">
        <ele>783.8</ele>
        <time>2020-12-02T12:27:13Z</time>
      </trkpt>
      <trkpt lat="37.54175" lon="27.62134">
        <ele>783.8</ele>
        <time>2020-12-02T12:27:12Z</time>
      </trkpt>
      <trkpt lat="37.54175" lon="27.62134">
        <ele>783.8</ele>
        <time>2020-12-02T12:27:11Z</time>
      </trkpt>
      <trkpt lat="37.54175" lon="27.62134">
        <ele>783.8</ele>
        <time>2020-12-02T12:27:10Z</time>
      </trkpt>
      <trkpt lat="37.54175" lon="27.62134">
        <ele>783.8</ele>
        <time>2020-12-02T12:27:09Z</time>
      </trkpt>
      <trkpt lat="37.54173" lon="27.62132">
        <ele>783.8</ele>
        <time>2020-12-02T12:27:08Z</time>
      </trkpt>
      <trkpt lat="37.54173" lon="27.62132">
        <ele>783.8</ele>
        <time>2020-12-02T12:27:07Z</time>
      </trkpt>
      <trkpt lat="37.54173" lon="27.62132">
        <ele>783.8</ele>
        <time>2020-12-02T12:27:06Z</time>
      </trkpt>
      <trkpt lat="37.54172" lon="27.62131">
        <ele>783.8</ele>
        <time>2020-12-02T12:27:05Z</time>
      </trkpt>
      <trkpt lat="37.54172" lon="27.62131">
        <ele>783.8</ele>
        <time>2020-12-02T12:27:04Z</time>
      </trkpt>
      <trkpt lat="37.54172" lon="27.62131">
        <ele>783.4</ele>
        <time>2020-12-02T12:27:03Z</time>
      </trkpt>
      <trkpt lat="37.5417" lon="27.62129">
        <ele>783.4</ele>
        <time>2020-12-02T12:27:02Z</time>
      </trkpt>
      <trkpt lat="37.5417" lon="27.62129">
        <ele>783.6</ele>
        <time>2020-12-02T12:27:01Z</time>
      </trkpt>
      <trkpt lat="37.5417" lon="27.62129">
        <ele>783.8</ele>
        <time>2020-12-02T12:27:00Z</time>
      </trkpt>
      <trkpt lat="37.5417" lon="27.62129">
        <ele>783.8</ele>
        <time>2020-12-02T12:26:59Z</time>
      </trkpt>
      <trkpt lat="37.5417" lon="27.62129">
        <ele>784</ele>
        <time>2020-12-02T12:26:58Z</time>
      </trkpt>
      <trkpt lat="37.54169" lon="27.62126">
        <ele>784.2</ele>
        <time>2020-12-02T12:26:57Z</time>
      </trkpt>
      <trkpt lat="37.54169" lon="27.62126">
        <ele>784.4</ele>
        <time>2020-12-02T12:26:56Z</time>
      </trkpt>
      <trkpt lat="37.54169" lon="27.62126">
        <ele>784.4</ele>
        <time>2020-12-02T12:26:55Z</time>
      </trkpt>
      <trkpt lat="37.54169" lon="27.62126">
        <ele>784.4</ele>
        <time>2020-12-02T12:26:54Z</time>
      </trkpt>
      <trkpt lat="37.54168" lon="27.62125">
        <ele>784.6</ele>
        <time>2020-12-02T12:26:53Z</time>
      </trkpt>
      <trkpt lat="37.54168" lon="27.62125">
        <ele>784.6</ele>
        <time>2020-12-02T12:26:52Z</time>
      </trkpt>
      <trkpt lat="37.54168" lon="27.62125">
        <ele>784.6</ele>
        <time>2020-12-02T12:26:51Z</time>
      </trkpt>
      <trkpt lat="37.54165" lon="27.62126">
        <ele>784.6</ele>
        <time>2020-12-02T12:26:50Z</time>
      </trkpt>
      <trkpt lat="37.54165" lon="27.62126">
        <ele>784.4</ele>
        <time>2020-12-02T12:26:49Z</time>
      </trkpt>
      <trkpt lat="37.54165" lon="27.62126">
        <ele>784.4</ele>
        <time>2020-12-02T12:26:48Z</time>
      </trkpt>
      <trkpt lat="37.54165" lon="27.62126">
        <ele>784.4</ele>
        <time>2020-12-02T12:26:47Z</time>
      </trkpt>
      <trkpt lat="37.54165" lon="27.62126">
        <ele>784.4</ele>
        <time>2020-12-02T12:26:46Z</time>
      </trkpt>
      <trkpt lat="37.54164" lon="27.62127">
        <ele>784.2</ele>
        <time>2020-12-02T12:26:45Z</time>
      </trkpt>
      <trkpt lat="37.54164" lon="27.62127">
        <ele>784</ele>
        <time>2020-12-02T12:26:44Z</time>
      </trkpt>
      <trkpt lat="37.54164" lon="27.62127">
        <ele>784</ele>
        <time>2020-12-02T12:26:43Z</time>
      </trkpt>
      <trkpt lat="37.54162" lon="27.62129">
        <ele>784.2</ele>
        <time>2020-12-02T12:26:42Z</time>
      </trkpt>
      <trkpt lat="37.54162" lon="27.62129">
        <ele>784</ele>
        <time>2020-12-02T12:26:41Z</time>
      </trkpt>
      <trkpt lat="37.54162" lon="27.62129">
        <ele>784</ele>
        <time>2020-12-02T12:26:40Z</time>
      </trkpt>
      <trkpt lat="37.5416" lon="27.62128">
        <ele>784</ele>
        <time>2020-12-02T12:26:39Z</time>
      </trkpt>
      <trkpt lat="37.5416" lon="27.62128">
        <ele>783.8</ele>
        <time>2020-12-02T12:26:38Z</time>
      </trkpt>
      <trkpt lat="37.5416" lon="27.62128">
        <ele>783.8</ele>
        <time>2020-12-02T12:26:37Z</time>
      </trkpt>
      <trkpt lat="37.5416" lon="27.62128">
        <ele>783.8</ele>
        <time>2020-12-02T12:26:36Z</time>
      </trkpt>
      <trkpt lat="37.5416" lon="27.62128">
        <ele>783.8</ele>
        <time>2020-12-02T12:26:35Z</time>
      </trkpt>
      <trkpt lat="37.54158" lon="27.62128">
        <ele>783.6</ele>
        <time>2020-12-02T12:26:34Z</time>
      </trkpt>
      <trkpt lat="37.54158" lon="27.62128">
        <ele>783.6</ele>
        <time>2020-12-02T12:26:33Z</time>
      </trkpt>
      <trkpt lat="37.54158" lon="27.62128">
        <ele>783.8</ele>
        <time>2020-12-02T12:26:32Z</time>
      </trkpt>
      <trkpt lat="37.54158" lon="27.62128">
        <ele>783.8</ele>
        <time>2020-12-02T12:26:31Z</time>
      </trkpt>
      <trkpt lat="37.54158" lon="27.62128">
        <ele>783.8</ele>
        <time>2020-12-02T12:26:30Z</time>
      </trkpt>
      <trkpt lat="37.54158" lon="27.62128">
        <ele>784</ele>
        <time>2020-12-02T12:26:29Z</time>
      </trkpt>
      <trkpt lat="37.54158" lon="27.62128">
        <ele>783.8</ele>
        <time>2020-12-02T12:26:28Z</time>
      </trkpt>
      <trkpt lat="37.54158" lon="27.62128">
        <ele>783.8</ele>
        <time>2020-12-02T12:26:27Z</time>
      </trkpt>
      <trkpt lat="37.54158" lon="27.62126">
        <ele>783.8</ele>
        <time>2020-12-02T12:26:26Z</time>
      </trkpt>
      <trkpt lat="37.54158" lon="27.62126">
        <ele>784</ele>
        <time>2020-12-02T12:26:25Z</time>
      </trkpt>
      <trkpt lat="37.54158" lon="27.62126">
        <ele>784</ele>
        <time>2020-12-02T12:26:24Z</time>
      </trkpt>
      <trkpt lat="37.54158" lon="27.62123">
        <ele>784.2</ele>
        <time>2020-12-02T12:26:23Z</time>
      </trkpt>
      <trkpt lat="37.54158" lon="27.62123">
        <ele>784</ele>
        <time>2020-12-02T12:26:22Z</time>
      </trkpt>
      <trkpt lat="37.54158" lon="27.62123">
        <ele>784.2</ele>
        <time>2020-12-02T12:26:21Z</time>
      </trkpt>
      <trkpt lat="37.5416" lon="27.62121">
        <ele>784.2</ele>
        <time>2020-12-02T12:26:20Z</time>
      </trkpt>
      <trkpt lat="37.5416" lon="27.62121">
        <ele>784.2</ele>
        <time>2020-12-02T12:26:19Z</time>
      </trkpt>
      <trkpt lat="37.5416" lon="27.62119">
        <ele>784.4</ele>
        <time>2020-12-02T12:26:18Z</time>
      </trkpt>
      <trkpt lat="37.5416" lon="27.62119">
        <ele>784.2</ele>
        <time>2020-12-02T12:26:17Z</time>
      </trkpt>
      <trkpt lat="37.5416" lon="27.62119">
        <ele>784.2</ele>
        <time>2020-12-02T12:26:16Z</time>
      </trkpt>
      <trkpt lat="37.54161" lon="27.62116">
        <ele>784.4</ele>
        <time>2020-12-02T12:26:15Z</time>
      </trkpt>
      <trkpt lat="37.54161" lon="27.62116">
        <ele>784.4</ele>
        <time>2020-12-02T12:26:14Z</time>
      </trkpt>
      <trkpt lat="37.54161" lon="27.62116">
        <ele>784.6</ele>
        <time>2020-12-02T12:26:13Z</time>
      </trkpt>
      <trkpt lat="37.54161" lon="27.62113">
        <ele>784.6</ele>
        <time>2020-12-02T12:26:12Z</time>
      </trkpt>
      <trkpt lat="37.54161" lon="27.62113">
        <ele>784.8</ele>
        <time>2020-12-02T12:26:11Z</time>
      </trkpt>
      <trkpt lat="37.54161" lon="27.62113">
        <ele>784.8</ele>
        <time>2020-12-02T12:26:10Z</time>
      </trkpt>
      <trkpt lat="37.54161" lon="27.62113">
        <ele>784.8</ele>
        <time>2020-12-02T12:26:09Z</time>
      </trkpt>
      <trkpt lat="37.54163" lon="27.62112">
        <ele>784.8</ele>
        <time>2020-12-02T12:26:08Z</time>
      </trkpt>
      <trkpt lat="37.54163" lon="27.62112">
        <ele>785</ele>
        <time>2020-12-02T12:26:07Z</time>
      </trkpt>
      <trkpt lat="37.54163" lon="27.62112">
        <ele>785</ele>
        <time>2020-12-02T12:26:06Z</time>
      </trkpt>
      <trkpt lat="37.54166" lon="27.62111">
        <ele>785.2</ele>
        <time>2020-12-02T12:26:05Z</time>
      </trkpt>
      <trkpt lat="37.54166" lon="27.62111">
        <ele>785.2</ele>
        <time>2020-12-02T12:26:04Z</time>
      </trkpt>
      <trkpt lat="37.54166" lon="27.62111">
        <ele>785</ele>
        <time>2020-12-02T12:26:03Z</time>
      </trkpt>
      <trkpt lat="37.54167" lon="27.62112">
        <ele>785.2</ele>
        <time>2020-12-02T12:26:02Z</time>
      </trkpt>
      <trkpt lat="37.54167" lon="27.62112">
        <ele>785.2</ele>
        <time>2020-12-02T12:26:01Z</time>
      </trkpt>
      <trkpt lat="37.54169" lon="27.62114">
        <ele>785.2</ele>
        <time>2020-12-02T12:26:00Z</time>
      </trkpt>
      <trkpt lat="37.54169" lon="27.62114">
        <ele>785.2</ele>
        <time>2020-12-02T12:25:59Z</time>
      </trkpt>
      <trkpt lat="37.5417" lon="27.62111">
        <ele>785</ele>
        <time>2020-12-02T12:25:58Z</time>
      </trkpt>
      <trkpt lat="37.5417" lon="27.62111">
        <ele>785</ele>
        <time>2020-12-02T12:25:57Z</time>
      </trkpt>
      <trkpt lat="37.5417" lon="27.62111">
        <ele>785</ele>
        <time>2020-12-02T12:25:56Z</time>
      </trkpt>
      <trkpt lat="37.5417" lon="27.62111">
        <ele>784.8</ele>
        <time>2020-12-02T12:25:55Z</time>
      </trkpt>
      <trkpt lat="37.54169" lon="27.6211">
        <ele>784.8</ele>
        <time>2020-12-02T12:25:54Z</time>
      </trkpt>
      <trkpt lat="37.54169" lon="27.6211">
        <ele>785</ele>
        <time>2020-12-02T12:25:53Z</time>
      </trkpt>
      <trkpt lat="37.54168" lon="27.62107">
        <ele>784.8</ele>
        <time>2020-12-02T12:25:52Z</time>
      </trkpt>
      <trkpt lat="37.54168" lon="27.62107">
        <ele>784.8</ele>
        <time>2020-12-02T12:25:51Z</time>
      </trkpt>
      <trkpt lat="37.54168" lon="27.62107">
        <ele>784.8</ele>
        <time>2020-12-02T12:25:50Z</time>
      </trkpt>
      <trkpt lat="37.54167" lon="27.62105">
        <ele>784.8</ele>
        <time>2020-12-02T12:25:49Z</time>
      </trkpt>
      <trkpt lat="37.54167" lon="27.62105">
        <ele>784.6</ele>
        <time>2020-12-02T12:25:48Z</time>
      </trkpt>
      <trkpt lat="37.54167" lon="27.62105">
        <ele>784.4</ele>
        <time>2020-12-02T12:25:47Z</time>
      </trkpt>
      <trkpt lat="37.54165" lon="27.62103">
        <ele>784.4</ele>
        <time>2020-12-02T12:25:46Z</time>
      </trkpt>
      <trkpt lat="37.54165" lon="27.62103">
        <ele>784.4</ele>
        <time>2020-12-02T12:25:45Z</time>
      </trkpt>
      <trkpt lat="37.54165" lon="27.62103">
        <ele>784.2</ele>
        <time>2020-12-02T12:25:44Z</time>
      </trkpt>
      <trkpt lat="37.54164" lon="27.62102">
        <ele>784</ele>
        <time>2020-12-02T12:25:43Z</time>
      </trkpt>
      <trkpt lat="37.54164" lon="27.62102">
        <ele>784</ele>
        <time>2020-12-02T12:25:42Z</time>
      </trkpt>
      <trkpt lat="37.54164" lon="27.62102">
        <ele>783.8</ele>
        <time>2020-12-02T12:25:41Z</time>
      </trkpt>
      <trkpt lat="37.54162" lon="27.62101">
        <ele>783.8</ele>
        <time>2020-12-02T12:25:40Z</time>
      </trkpt>
      <trkpt lat="37.54162" lon="27.62101">
        <ele>784</ele>
        <time>2020-12-02T12:25:39Z</time>
      </trkpt>
      <trkpt lat="37.5416" lon="27.62099">
        <ele>784</ele>
        <time>2020-12-02T12:25:38Z</time>
      </trkpt>
      <trkpt lat="37.5416" lon="27.62099">
        <ele>783.8</ele>
        <time>2020-12-02T12:25:37Z</time>
      </trkpt>
      <trkpt lat="37.54158" lon="27.62099">
        <ele>783.6</ele>
        <time>2020-12-02T12:25:36Z</time>
      </trkpt>
      <trkpt lat="37.54158" lon="27.62099">
        <ele>783.8</ele>
        <time>2020-12-02T12:25:35Z</time>
      </trkpt>
      <trkpt lat="37.54155" lon="27.62099">
        <ele>783.6</ele>
        <time>2020-12-02T12:25:34Z</time>
      </trkpt>
      <trkpt lat="37.54155" lon="27.62099">
        <ele>783.6</ele>
        <time>2020-12-02T12:25:33Z</time>
      </trkpt>
      <trkpt lat="37.54155" lon="27.62099">
        <ele>783.6</ele>
        <time>2020-12-02T12:25:32Z</time>
      </trkpt>
      <trkpt lat="37.54153" lon="27.621">
        <ele>783.6</ele>
        <time>2020-12-02T12:25:31Z</time>
      </trkpt>
      <trkpt lat="37.54153" lon="27.621">
        <ele>783.4</ele>
        <time>2020-12-02T12:25:30Z</time>
      </trkpt>
      <trkpt lat="37.54153" lon="27.621">
        <ele>783.6</ele>
        <time>2020-12-02T12:25:29Z</time>
      </trkpt>
      <trkpt lat="37.54152" lon="27.62102">
        <ele>783.4</ele>
        <time>2020-12-02T12:25:28Z</time>
      </trkpt>
      <trkpt lat="37.54152" lon="27.62102">
        <ele>783.4</ele>
        <time>2020-12-02T12:25:27Z</time>
      </trkpt>
      <trkpt lat="37.54152" lon="27.62102">
        <ele>783.2</ele>
        <time>2020-12-02T12:25:26Z</time>
      </trkpt>
      <trkpt lat="37.54149" lon="27.62102">
        <ele>783.4</ele>
        <time>2020-12-02T12:25:25Z</time>
      </trkpt>
      <trkpt lat="37.54149" lon="27.62102">
        <ele>783.4</ele>
        <time>2020-12-02T12:25:24Z</time>
      </trkpt>
      <trkpt lat="37.54149" lon="27.62102">
        <ele>783.2</ele>
        <time>2020-12-02T12:25:23Z</time>
      </trkpt>
      <trkpt lat="37.54147" lon="27.62102">
        <ele>783</ele>
        <time>2020-12-02T12:25:22Z</time>
      </trkpt>
      <trkpt lat="37.54147" lon="27.62102">
        <ele>783</ele>
        <time>2020-12-02T12:25:21Z</time>
      </trkpt>
      <trkpt lat="37.54145" lon="27.62103">
        <ele>783</ele>
        <time>2020-12-02T12:25:20Z</time>
      </trkpt>
      <trkpt lat="37.54145" lon="27.62103">
        <ele>782.8</ele>
        <time>2020-12-02T12:25:19Z</time>
      </trkpt>
      <trkpt lat="37.54143" lon="27.62103">
        <ele>783</ele>
        <time>2020-12-02T12:25:18Z</time>
      </trkpt>
      <trkpt lat="37.54143" lon="27.62103">
        <ele>783</ele>
        <time>2020-12-02T12:25:17Z</time>
      </trkpt>
      <trkpt lat="37.54141" lon="27.62104">
        <ele>783</ele>
        <time>2020-12-02T12:25:16Z</time>
      </trkpt>
      <trkpt lat="37.54141" lon="27.62104">
        <ele>783.2</ele>
        <time>2020-12-02T12:25:15Z</time>
      </trkpt>
      <trkpt lat="37.5414" lon="27.62102">
        <ele>783.2</ele>
        <time>2020-12-02T12:25:14Z</time>
      </trkpt>
      <trkpt lat="37.5414" lon="27.62102">
        <ele>783.4</ele>
        <time>2020-12-02T12:25:13Z</time>
      </trkpt>
      <trkpt lat="37.5414" lon="27.62102">
        <ele>783.6</ele>
        <time>2020-12-02T12:25:12Z</time>
      </trkpt>
      <trkpt lat="37.5414" lon="27.62102">
        <ele>783.6</ele>
        <time>2020-12-02T12:25:11Z</time>
      </trkpt>
      <trkpt lat="37.5414" lon="27.62102">
        <ele>783.6</ele>
        <time>2020-12-02T12:25:10Z</time>
      </trkpt>
      <trkpt lat="37.54138" lon="27.62101">
        <ele>783.8</ele>
        <time>2020-12-02T12:25:09Z</time>
      </trkpt>
      <trkpt lat="37.54138" lon="27.62101">
        <ele>783.8</ele>
        <time>2020-12-02T12:25:08Z</time>
      </trkpt>
      <trkpt lat="37.54138" lon="27.62101">
        <ele>783.8</ele>
        <time>2020-12-02T12:25:07Z</time>
      </trkpt>
      <trkpt lat="37.54138" lon="27.62101">
        <ele>783.8</ele>
        <time>2020-12-02T12:25:06Z</time>
      </trkpt>
      <trkpt lat="37.54136" lon="27.621">
        <ele>783.8</ele>
        <time>2020-12-02T12:25:05Z</time>
      </trkpt>
      <trkpt lat="37.54136" lon="27.621">
        <ele>783.8</ele>
        <time>2020-12-02T12:25:04Z</time>
      </trkpt>
      <trkpt lat="37.54136" lon="27.621">
        <ele>783.8</ele>
        <time>2020-12-02T12:25:03Z</time>
      </trkpt>
      <trkpt lat="37.54135" lon="27.62098">
        <ele>784</ele>
        <time>2020-12-02T12:25:02Z</time>
      </trkpt>
      <trkpt lat="37.54135" lon="27.62098">
        <ele>784.2</ele>
        <time>2020-12-02T12:25:01Z</time>
      </trkpt>
      <trkpt lat="37.54135" lon="27.62095">
        <ele>784.2</ele>
        <time>2020-12-02T12:25:00Z</time>
      </trkpt>
      <trkpt lat="37.54135" lon="27.62095">
        <ele>784.4</ele>
        <time>2020-12-02T12:24:59Z</time>
      </trkpt>
      <trkpt lat="37.54135" lon="27.62095">
        <ele>784.4</ele>
        <time>2020-12-02T12:24:58Z</time>
      </trkpt>
      <trkpt lat="37.54135" lon="27.62092">
        <ele>784.6</ele>
        <time>2020-12-02T12:24:57Z</time>
      </trkpt>
      <trkpt lat="37.54135" lon="27.62092">
        <ele>784.6</ele>
        <time>2020-12-02T12:24:56Z</time>
      </trkpt>
      <trkpt lat="37.54135" lon="27.62092">
        <ele>784.6</ele>
        <time>2020-12-02T12:24:55Z</time>
      </trkpt>
      <trkpt lat="37.54134" lon="27.6209">
        <ele>784.4</ele>
        <time>2020-12-02T12:24:54Z</time>
      </trkpt>
      <trkpt lat="37.54134" lon="27.6209">
        <ele>784.4</ele>
        <time>2020-12-02T12:24:53Z</time>
      </trkpt>
      <trkpt lat="37.54135" lon="27.62087">
        <ele>784.4</ele>
        <time>2020-12-02T12:24:52Z</time>
      </trkpt>
      <trkpt lat="37.54135" lon="27.62087">
        <ele>784.4</ele>
        <time>2020-12-02T12:24:51Z</time>
      </trkpt>
      <trkpt lat="37.54135" lon="27.62087">
        <ele>784.6</ele>
        <time>2020-12-02T12:24:50Z</time>
      </trkpt>
      <trkpt lat="37.54135" lon="27.62087">
        <ele>784.6</ele>
        <time>2020-12-02T12:24:49Z</time>
      </trkpt>
      <trkpt lat="37.54135" lon="27.62087">
        <ele>784.6</ele>
        <time>2020-12-02T12:24:48Z</time>
      </trkpt>
      <trkpt lat="37.54135" lon="27.62087">
        <ele>784.6</ele>
        <time>2020-12-02T12:24:47Z</time>
      </trkpt>
      <trkpt lat="37.54135" lon="27.62087">
        <ele>784.8</ele>
        <time>2020-12-02T12:24:46Z</time>
      </trkpt>
      <trkpt lat="37.54133" lon="27.62084">
        <ele>784.6</ele>
        <time>2020-12-02T12:24:45Z</time>
      </trkpt>
      <trkpt lat="37.54133" lon="27.62084">
        <ele>784.8</ele>
        <time>2020-12-02T12:24:44Z</time>
      </trkpt>
      <trkpt lat="37.54133" lon="27.62084">
        <ele>784.6</ele>
        <time>2020-12-02T12:24:43Z</time>
      </trkpt>
      <trkpt lat="37.54133" lon="27.62084">
        <ele>784.8</ele>
        <time>2020-12-02T12:24:42Z</time>
      </trkpt>
      <trkpt lat="37.54133" lon="27.62084">
        <ele>784.8</ele>
        <time>2020-12-02T12:24:41Z</time>
      </trkpt>
      <trkpt lat="37.54131" lon="27.62083">
        <ele>784.8</ele>
        <time>2020-12-02T12:24:40Z</time>
      </trkpt>
      <trkpt lat="37.54131" lon="27.62083">
        <ele>784.8</ele>
        <time>2020-12-02T12:24:39Z</time>
      </trkpt>
      <trkpt lat="37.54131" lon="27.62083">
        <ele>784.8</ele>
        <time>2020-12-02T12:24:38Z</time>
      </trkpt>
      <trkpt lat="37.54129" lon="27.62082">
        <ele>784.8</ele>
        <time>2020-12-02T12:24:37Z</time>
      </trkpt>
      <trkpt lat="37.54129" lon="27.62082">
        <ele>784.6</ele>
        <time>2020-12-02T12:24:36Z</time>
      </trkpt>
      <trkpt lat="37.54129" lon="27.62082">
        <ele>784.8</ele>
        <time>2020-12-02T12:24:35Z</time>
      </trkpt>
      <trkpt lat="37.54126" lon="27.62082">
        <ele>785.2</ele>
        <time>2020-12-02T12:24:34Z</time>
      </trkpt>
      <trkpt lat="37.54126" lon="27.62082">
        <ele>785.2</ele>
        <time>2020-12-02T12:24:33Z</time>
      </trkpt>
      <trkpt lat="37.54126" lon="27.62082">
        <ele>785.4</ele>
        <time>2020-12-02T12:24:32Z</time>
      </trkpt>
      <trkpt lat="37.54126" lon="27.62082">
        <ele>785.4</ele>
        <time>2020-12-02T12:24:31Z</time>
      </trkpt>
      <trkpt lat="37.54126" lon="27.62082">
        <ele>785.8</ele>
        <time>2020-12-02T12:24:30Z</time>
      </trkpt>
      <trkpt lat="37.54126" lon="27.62082">
        <ele>785.8</ele>
        <time>2020-12-02T12:24:29Z</time>
      </trkpt>
      <trkpt lat="37.54126" lon="27.62082">
        <ele>786</ele>
        <time>2020-12-02T12:24:28Z</time>
      </trkpt>
      <trkpt lat="37.54126" lon="27.62082">
        <ele>786</ele>
        <time>2020-12-02T12:24:27Z</time>
      </trkpt>
      <trkpt lat="37.54123" lon="27.62079">
        <ele>786</ele>
        <time>2020-12-02T12:24:26Z</time>
      </trkpt>
      <trkpt lat="37.54123" lon="27.62079">
        <ele>786.2</ele>
        <time>2020-12-02T12:24:25Z</time>
      </trkpt>
      <trkpt lat="37.54123" lon="27.62079">
        <ele>786.4</ele>
        <time>2020-12-02T12:24:24Z</time>
      </trkpt>
      <trkpt lat="37.54123" lon="27.62079">
        <ele>786.8</ele>
        <time>2020-12-02T12:24:23Z</time>
      </trkpt>
      <trkpt lat="37.54123" lon="27.62079">
        <ele>786.6</ele>
        <time>2020-12-02T12:24:22Z</time>
      </trkpt>
      <trkpt lat="37.54123" lon="27.62079">
        <ele>786.6</ele>
        <time>2020-12-02T12:24:21Z</time>
      </trkpt>
      <trkpt lat="37.54123" lon="27.62079">
        <ele>786.6</ele>
        <time>2020-12-02T12:24:20Z</time>
      </trkpt>
      <trkpt lat="37.54123" lon="27.62079">
        <ele>786.8</ele>
        <time>2020-12-02T12:24:19Z</time>
      </trkpt>
      <trkpt lat="37.54123" lon="27.62079">
        <ele>786.8</ele>
        <time>2020-12-02T12:24:18Z</time>
      </trkpt>
      <trkpt lat="37.54123" lon="27.62079">
        <ele>787</ele>
        <time>2020-12-02T12:24:17Z</time>
      </trkpt>
      <trkpt lat="37.54121" lon="27.62079">
        <ele>787.2</ele>
        <time>2020-12-02T12:24:16Z</time>
      </trkpt>
      <trkpt lat="37.54121" lon="27.62079">
        <ele>787.4</ele>
        <time>2020-12-02T12:24:15Z</time>
      </trkpt>
      <trkpt lat="37.54121" lon="27.62079">
        <ele>787.6</ele>
        <time>2020-12-02T12:24:14Z</time>
      </trkpt>
      <trkpt lat="37.54119" lon="27.62078">
        <ele>787.8</ele>
        <time>2020-12-02T12:24:13Z</time>
      </trkpt>
      <trkpt lat="37.54119" lon="27.62078">
        <ele>788</ele>
        <time>2020-12-02T12:24:12Z</time>
      </trkpt>
      <trkpt lat="37.54119" lon="27.62078">
        <ele>788.2</ele>
        <time>2020-12-02T12:24:11Z</time>
      </trkpt>
      <trkpt lat="37.54118" lon="27.62077">
        <ele>788</ele>
        <time>2020-12-02T12:24:10Z</time>
      </trkpt>
      <trkpt lat="37.54118" lon="27.62077">
        <ele>788.4</ele>
        <time>2020-12-02T12:24:09Z</time>
      </trkpt>
      <trkpt lat="37.54118" lon="27.62077">
        <ele>788.6</ele>
        <time>2020-12-02T12:24:08Z</time>
      </trkpt>
      <trkpt lat="37.54116" lon="27.62074">
        <ele>788.6</ele>
        <time>2020-12-02T12:24:07Z</time>
      </trkpt>
      <trkpt lat="37.54116" lon="27.62074">
        <ele>788.6</ele>
        <time>2020-12-02T12:24:06Z</time>
      </trkpt>
      <trkpt lat="37.54116" lon="27.62074">
        <ele>788.8</ele>
        <time>2020-12-02T12:24:05Z</time>
      </trkpt>
      <trkpt lat="37.54116" lon="27.62074">
        <ele>789.2</ele>
        <time>2020-12-02T12:24:04Z</time>
      </trkpt>
      <trkpt lat="37.54116" lon="27.62074">
        <ele>789.2</ele>
        <time>2020-12-02T12:24:03Z</time>
      </trkpt>
      <trkpt lat="37.54116" lon="27.62074">
        <ele>789.2</ele>
        <time>2020-12-02T12:24:02Z</time>
      </trkpt>
      <trkpt lat="37.54116" lon="27.62074">
        <ele>789.2</ele>
        <time>2020-12-02T12:24:01Z</time>
      </trkpt>
      <trkpt lat="37.54118" lon="27.62073">
        <ele>789.2</ele>
        <time>2020-12-02T12:24:00Z</time>
      </trkpt>
      <trkpt lat="37.54118" lon="27.62073">
        <ele>789.2</ele>
        <time>2020-12-02T12:23:59Z</time>
      </trkpt>
      <trkpt lat="37.54118" lon="27.62073">
        <ele>789.2</ele>
        <time>2020-12-02T12:23:58Z</time>
      </trkpt>
      <trkpt lat="37.54119" lon="27.62071">
        <ele>789.2</ele>
        <time>2020-12-02T12:23:57Z</time>
      </trkpt>
      <trkpt lat="37.54119" lon="27.62071">
        <ele>789.2</ele>
        <time>2020-12-02T12:23:56Z</time>
      </trkpt>
      <trkpt lat="37.54119" lon="27.62071">
        <ele>789.2</ele>
        <time>2020-12-02T12:23:55Z</time>
      </trkpt>
      <trkpt lat="37.54119" lon="27.62071">
        <ele>789.2</ele>
        <time>2020-12-02T12:23:54Z</time>
      </trkpt>
      <trkpt lat="37.54118" lon="27.62069">
        <ele>789.2</ele>
        <time>2020-12-02T12:23:53Z</time>
      </trkpt>
      <trkpt lat="37.54118" lon="27.62069">
        <ele>789.2</ele>
        <time>2020-12-02T12:23:52Z</time>
      </trkpt>
      <trkpt lat="37.54118" lon="27.62069">
        <ele>789.2</ele>
        <time>2020-12-02T12:23:51Z</time>
      </trkpt>
      <trkpt lat="37.54118" lon="27.62069">
        <ele>789.2</ele>
        <time>2020-12-02T12:23:50Z</time>
      </trkpt>
      <trkpt lat="37.54118" lon="27.62069">
        <ele>789.2</ele>
        <time>2020-12-02T12:23:49Z</time>
      </trkpt>
      <trkpt lat="37.54118" lon="27.62069">
        <ele>789</ele>
        <time>2020-12-02T12:23:48Z</time>
      </trkpt>
      <trkpt lat="37.54118" lon="27.62069">
        <ele>789</ele>
        <time>2020-12-02T12:23:47Z</time>
      </trkpt>
      <trkpt lat="37.54118" lon="27.62069">
        <ele>789</ele>
        <time>2020-12-02T12:23:46Z</time>
      </trkpt>
      <trkpt lat="37.54118" lon="27.62069">
        <ele>789</ele>
        <time>2020-12-02T12:23:45Z</time>
      </trkpt>
      <trkpt lat="37.54118" lon="27.62069">
        <ele>789</ele>
        <time>2020-12-02T12:23:44Z</time>
      </trkpt>
      <trkpt lat="37.54118" lon="27.62069">
        <ele>789</ele>
        <time>2020-12-02T12:23:43Z</time>
      </trkpt>
      <trkpt lat="37.54118" lon="27.62069">
        <ele>789</ele>
        <time>2020-12-02T12:23:42Z</time>
      </trkpt>
      <trkpt lat="37.54118" lon="27.62069">
        <ele>789</ele>
        <time>2020-12-02T12:23:41Z</time>
      </trkpt>
      <trkpt lat="37.54118" lon="27.62069">
        <ele>789</ele>
        <time>2020-12-02T12:23:40Z</time>
      </trkpt>
      <trkpt lat="37.54118" lon="27.62069">
        <ele>789</ele>
        <time>2020-12-02T12:23:39Z</time>
      </trkpt>
      <trkpt lat="37.54118" lon="27.62069">
        <ele>789</ele>
        <time>2020-12-02T12:23:38Z</time>
      </trkpt>
      <trkpt lat="37.54118" lon="27.62069">
        <ele>789</ele>
        <time>2020-12-02T12:23:37Z</time>
      </trkpt>
      <trkpt lat="37.54118" lon="27.62069">
        <ele>789</ele>
        <time>2020-12-02T12:23:36Z</time>
      </trkpt>
      <trkpt lat="37.54118" lon="27.62069">
        <ele>789</ele>
        <time>2020-12-02T12:23:35Z</time>
      </trkpt>
      <trkpt lat="37.54118" lon="27.62069">
        <ele>789</ele>
        <time>2020-12-02T12:23:34Z</time>
      </trkpt>
      <trkpt lat="37.54118" lon="27.62069">
        <ele>789</ele>
        <time>2020-12-02T12:23:33Z</time>
      </trkpt>
      <trkpt lat="37.54118" lon="27.62069">
        <ele>789</ele>
        <time>2020-12-02T12:23:32Z</time>
      </trkpt>
      <trkpt lat="37.54118" lon="27.62069">
        <ele>789</ele>
        <time>2020-12-02T12:23:31Z</time>
      </trkpt>
      <trkpt lat="37.54118" lon="27.62069">
        <ele>789</ele>
        <time>2020-12-02T12:23:30Z</time>
      </trkpt>
      <trkpt lat="37.54118" lon="27.62069">
        <ele>789</ele>
        <time>2020-12-02T12:23:29Z</time>
      </trkpt>
      <trkpt lat="37.54118" lon="27.62069">
        <ele>789</ele>
        <time>2020-12-02T12:23:28Z</time>
      </trkpt>
      <trkpt lat="37.54118" lon="27.62069">
        <ele>789</ele>
        <time>2020-12-02T12:23:27Z</time>
      </trkpt>
      <trkpt lat="37.54118" lon="27.62069">
        <ele>789</ele>
        <time>2020-12-02T12:23:26Z</time>
      </trkpt>
      <trkpt lat="37.54118" lon="27.62069">
        <ele>789</ele>
        <time>2020-12-02T12:23:25Z</time>
      </trkpt>
      <trkpt lat="37.54118" lon="27.62069">
        <ele>789</ele>
        <time>2020-12-02T12:23:24Z</time>
      </trkpt>
      <trkpt lat="37.54118" lon="27.62069">
        <ele>789</ele>
        <time>2020-12-02T12:23:23Z</time>
      </trkpt>
      <trkpt lat="37.54118" lon="27.62069">
        <ele>789</ele>
        <time>2020-12-02T12:23:22Z</time>
      </trkpt>
      <trkpt lat="37.54118" lon="27.62069">
        <ele>789</ele>
        <time>2020-12-02T12:23:21Z</time>
      </trkpt>
      <trkpt lat="37.54118" lon="27.62069">
        <ele>789</ele>
        <time>2020-12-02T12:23:20Z</time>
      </trkpt>
      <trkpt lat="37.54118" lon="27.62069">
        <ele>789</ele>
        <time>2020-12-02T12:23:19Z</time>
      </trkpt>
      <trkpt lat="37.54118" lon="27.62069">
        <ele>789</ele>
        <time>2020-12-02T12:23:18Z</time>
      </trkpt>
      <trkpt lat="37.54118" lon="27.62069">
        <ele>789</ele>
        <time>2020-12-02T12:23:17Z</time>
      </trkpt>
      <trkpt lat="37.54118" lon="27.62069">
        <ele>789</ele>
        <time>2020-12-02T12:23:16Z</time>
      </trkpt>
      <trkpt lat="37.54118" lon="27.62069">
        <ele>789</ele>
        <time>2020-12-02T12:23:15Z</time>
      </trkpt>
      <trkpt lat="37.54118" lon="27.62069">
        <ele>789</ele>
        <time>2020-12-02T12:23:14Z</time>
      </trkpt>
      <trkpt lat="37.54118" lon="27.62069">
        <ele>789</ele>
        <time>2020-12-02T12:23:13Z</time>
      </trkpt>
      <trkpt lat="37.54118" lon="27.62069">
        <ele>789</ele>
        <time>2020-12-02T12:23:12Z</time>
      </trkpt>
      <trkpt lat="37.54118" lon="27.62069">
        <ele>789</ele>
        <time>2020-12-02T12:23:11Z</time>
      </trkpt>
      <trkpt lat="37.54118" lon="27.62069">
        <ele>789</ele>
        <time>2020-12-02T12:23:10Z</time>
      </trkpt>
      <trkpt lat="37.54118" lon="27.62069">
        <ele>789</ele>
        <time>2020-12-02T12:23:09Z</time>
      </trkpt>
      <trkpt lat="37.54118" lon="27.62069">
        <ele>789</ele>
        <time>2020-12-02T12:23:08Z</time>
      </trkpt>
      <trkpt lat="37.54118" lon="27.62069">
        <ele>789</ele>
        <time>2020-12-02T12:23:07Z</time>
      </trkpt>
      <trkpt lat="37.54118" lon="27.62069">
        <ele>789</ele>
        <time>2020-12-02T12:23:06Z</time>
      </trkpt>
      <trkpt lat="37.54118" lon="27.62069">
        <ele>789</ele>
        <time>2020-12-02T12:23:05Z</time>
      </trkpt>
      <trkpt lat="37.54118" lon="27.62069">
        <ele>789</ele>
        <time>2020-12-02T12:23:04Z</time>
      </trkpt>
      <trkpt lat="37.54118" lon="27.62069">
        <ele>789</ele>
        <time>2020-12-02T12:23:03Z</time>
      </trkpt>
      <trkpt lat="37.54118" lon="27.62069">
        <ele>789</ele>
        <time>2020-12-02T12:23:02Z</time>
      </trkpt>
      <trkpt lat="37.54118" lon="27.62069">
        <ele>789</ele>
        <time>2020-12-02T12:23:01Z</time>
      </trkpt>
      <trkpt lat="37.54118" lon="27.62069">
        <ele>789</ele>
        <time>2020-12-02T12:23:00Z</time>
      </trkpt>
      <trkpt lat="37.54118" lon="27.62069">
        <ele>789</ele>
        <time>2020-12-02T12:22:59Z</time>
      </trkpt>
      <trkpt lat="37.54118" lon="27.62069">
        <ele>789</ele>
        <time>2020-12-02T12:22:58Z</time>
      </trkpt>
      <trkpt lat="37.54118" lon="27.62069">
        <ele>789</ele>
        <time>2020-12-02T12:22:57Z</time>
      </trkpt>
      <trkpt lat="37.54118" lon="27.62069">
        <ele>789</ele>
        <time>2020-12-02T12:22:56Z</time>
      </trkpt>
      <trkpt lat="37.54118" lon="27.62069">
        <ele>789</ele>
        <time>2020-12-02T12:22:55Z</time>
      </trkpt>
      <trkpt lat="37.54118" lon="27.62069">
        <ele>789</ele>
        <time>2020-12-02T12:22:54Z</time>
      </trkpt>
      <trkpt lat="37.54118" lon="27.62069">
        <ele>789</ele>
        <time>2020-12-02T12:22:53Z</time>
      </trkpt>
      <trkpt lat="37.54118" lon="27.62069">
        <ele>789</ele>
        <time>2020-12-02T12:22:52Z</time>
      </trkpt>
      <trkpt lat="37.54118" lon="27.62069">
        <ele>789</ele>
        <time>2020-12-02T12:22:51Z</time>
      </trkpt>
      <trkpt lat="37.54118" lon="27.62069">
        <ele>789</ele>
        <time>2020-12-02T12:22:50Z</time>
      </trkpt>
      <trkpt lat="37.54118" lon="27.62069">
        <ele>789</ele>
        <time>2020-12-02T12:22:49Z</time>
      </trkpt>
      <trkpt lat="37.54118" lon="27.62069">
        <ele>789</ele>
        <time>2020-12-02T12:22:48Z</time>
      </trkpt>
      <trkpt lat="37.54118" lon="27.62069">
        <ele>789</ele>
        <time>2020-12-02T12:22:47Z</time>
      </trkpt>
      <trkpt lat="37.54118" lon="27.62069">
        <ele>789</ele>
        <time>2020-12-02T12:22:46Z</time>
      </trkpt>
      <trkpt lat="37.54118" lon="27.62069">
        <ele>789</ele>
        <time>2020-12-02T12:22:45Z</time>
      </trkpt>
      <trkpt lat="37.54118" lon="27.62069">
        <ele>789</ele>
        <time>2020-12-02T12:22:44Z</time>
      </trkpt>
      <trkpt lat="37.54118" lon="27.62069">
        <ele>789</ele>
        <time>2020-12-02T12:22:43Z</time>
      </trkpt>
      <trkpt lat="37.54118" lon="27.62069">
        <ele>789</ele>
        <time>2020-12-02T12:22:42Z</time>
      </trkpt>
      <trkpt lat="37.54118" lon="27.62069">
        <ele>789</ele>
        <time>2020-12-02T12:22:41Z</time>
      </trkpt>
      <trkpt lat="37.54118" lon="27.62069">
        <ele>789</ele>
        <time>2020-12-02T12:22:40Z</time>
      </trkpt>
      <trkpt lat="37.54118" lon="27.62069">
        <ele>789</ele>
        <time>2020-12-02T12:22:39Z</time>
      </trkpt>
      <trkpt lat="37.54118" lon="27.62069">
        <ele>789</ele>
        <time>2020-12-02T12:22:38Z</time>
      </trkpt>
      <trkpt lat="37.54118" lon="27.62069">
        <ele>789</ele>
        <time>2020-12-02T12:22:37Z</time>
      </trkpt>
      <trkpt lat="37.54118" lon="27.62069">
        <ele>789</ele>
        <time>2020-12-02T12:22:36Z</time>
      </trkpt>
      <trkpt lat="37.54118" lon="27.62069">
        <ele>789</ele>
        <time>2020-12-02T12:22:35Z</time>
      </trkpt>
      <trkpt lat="37.54118" lon="27.62069">
        <ele>789</ele>
        <time>2020-12-02T12:22:34Z</time>
      </trkpt>
      <trkpt lat="37.54118" lon="27.62069">
        <ele>789</ele>
        <time>2020-12-02T12:22:33Z</time>
      </trkpt>
      <trkpt lat="37.54118" lon="27.62069">
        <ele>789</ele>
        <time>2020-12-02T12:22:32Z</time>
      </trkpt>
      <trkpt lat="37.54118" lon="27.62069">
        <ele>789</ele>
        <time>2020-12-02T12:22:31Z</time>
      </trkpt>
      <trkpt lat="37.54118" lon="27.62069">
        <ele>789</ele>
        <time>2020-12-02T12:22:30Z</time>
      </trkpt>
      <trkpt lat="37.54118" lon="27.62069">
        <ele>789</ele>
        <time>2020-12-02T12:22:29Z</time>
      </trkpt>
      <trkpt lat="37.54118" lon="27.62069">
        <ele>789</ele>
        <time>2020-12-02T12:22:28Z</time>
      </trkpt>
      <trkpt lat="37.54118" lon="27.62069">
        <ele>789</ele>
        <time>2020-12-02T12:22:27Z</time>
      </trkpt>
      <trkpt lat="37.54118" lon="27.62069">
        <ele>789</ele>
        <time>2020-12-02T12:22:26Z</time>
      </trkpt>
      <trkpt lat="37.54118" lon="27.62069">
        <ele>789</ele>
        <time>2020-12-02T12:22:25Z</time>
      </trkpt>
      <trkpt lat="37.54118" lon="27.62069">
        <ele>789</ele>
        <time>2020-12-02T12:22:24Z</time>
      </trkpt>
      <trkpt lat="37.54118" lon="27.62069">
        <ele>789</ele>
        <time>2020-12-02T12:22:23Z</time>
      </trkpt>
      <trkpt lat="37.54118" lon="27.62069">
        <ele>789</ele>
        <time>2020-12-02T12:22:22Z</time>
      </trkpt>
      <trkpt lat="37.54118" lon="27.62069">
        <ele>789</ele>
        <time>2020-12-02T12:22:21Z</time>
      </trkpt>
      <trkpt lat="37.54118" lon="27.62069">
        <ele>789</ele>
        <time>2020-12-02T12:22:20Z</time>
      </trkpt>
      <trkpt lat="37.54118" lon="27.62069">
        <ele>789</ele>
        <time>2020-12-02T12:22:19Z</time>
      </trkpt>
      <trkpt lat="37.54118" lon="27.62069">
        <ele>789</ele>
        <time>2020-12-02T12:22:18Z</time>
      </trkpt>
      <trkpt lat="37.54118" lon="27.62069">
        <ele>789</ele>
        <time>2020-12-02T12:22:17Z</time>
      </trkpt>
      <trkpt lat="37.54118" lon="27.62069">
        <ele>789</ele>
        <time>2020-12-02T12:22:16Z</time>
      </trkpt>
      <trkpt lat="37.54118" lon="27.62069">
        <ele>789</ele>
        <time>2020-12-02T12:22:15Z</time>
      </trkpt>
      <trkpt lat="37.54118" lon="27.62069">
        <ele>789</ele>
        <time>2020-12-02T12:22:14Z</time>
      </trkpt>
      <trkpt lat="37.54118" lon="27.62069">
        <ele>789</ele>
        <time>2020-12-02T12:22:13Z</time>
      </trkpt>
      <trkpt lat="37.54118" lon="27.62069">
        <ele>789</ele>
        <time>2020-12-02T12:22:12Z</time>
      </trkpt>
      <trkpt lat="37.54118" lon="27.62069">
        <ele>789</ele>
        <time>2020-12-02T12:22:11Z</time>
      </trkpt>
      <trkpt lat="37.54118" lon="27.62069">
        <ele>789</ele>
        <time>2020-12-02T12:22:10Z</time>
      </trkpt>
      <trkpt lat="37.54118" lon="27.62069">
        <ele>789</ele>
        <time>2020-12-02T12:22:09Z</time>
      </trkpt>
      <trkpt lat="37.54118" lon="27.62069">
        <ele>789</ele>
        <time>2020-12-02T12:22:08Z</time>
      </trkpt>
      <trkpt lat="37.54118" lon="27.62069">
        <ele>789</ele>
        <time>2020-12-02T12:22:07Z</time>
      </trkpt>
      <trkpt lat="37.54118" lon="27.62069">
        <ele>789</ele>
        <time>2020-12-02T12:22:06Z</time>
      </trkpt>
      <trkpt lat="37.54118" lon="27.62069">
        <ele>789</ele>
        <time>2020-12-02T12:22:05Z</time>
      </trkpt>
      <trkpt lat="37.54118" lon="27.62069">
        <ele>789</ele>
        <time>2020-12-02T12:22:04Z</time>
      </trkpt>
      <trkpt lat="37.54118" lon="27.62069">
        <ele>789</ele>
        <time>2020-12-02T12:22:03Z</time>
      </trkpt>
      <trkpt lat="37.54118" lon="27.62069">
        <ele>789</ele>
        <time>2020-12-02T12:22:02Z</time>
      </trkpt>
      <trkpt lat="37.54118" lon="27.62069">
        <ele>789</ele>
        <time>2020-12-02T12:22:01Z</time>
      </trkpt>
      <trkpt lat="37.54118" lon="27.62069">
        <ele>789</ele>
        <time>2020-12-02T12:22:00Z</time>
      </trkpt>
      <trkpt lat="37.54118" lon="27.62069">
        <ele>789</ele>
        <time>2020-12-02T12:21:59Z</time>
      </trkpt>
      <trkpt lat="37.54118" lon="27.62069">
        <ele>789</ele>
        <time>2020-12-02T12:21:58Z</time>
      </trkpt>
      <trkpt lat="37.54118" lon="27.62069">
        <ele>789</ele>
        <time>2020-12-02T12:21:57Z</time>
      </trkpt>
      <trkpt lat="37.54118" lon="27.62069">
        <ele>789</ele>
        <time>2020-12-02T12:21:56Z</time>
      </trkpt>
      <trkpt lat="37.54118" lon="27.62069">
        <ele>789</ele>
        <time>2020-12-02T12:21:55Z</time>
      </trkpt>
      <trkpt lat="37.54118" lon="27.62069">
        <ele>789</ele>
        <time>2020-12-02T12:21:54Z</time>
      </trkpt>
      <trkpt lat="37.54118" lon="27.62069">
        <ele>789</ele>
        <time>2020-12-02T12:21:53Z</time>
      </trkpt>
      <trkpt lat="37.54118" lon="27.62069">
        <ele>789</ele>
        <time>2020-12-02T12:21:52Z</time>
      </trkpt>
      <trkpt lat="37.54118" lon="27.62069">
        <ele>789</ele>
        <time>2020-12-02T12:21:51Z</time>
      </trkpt>
      <trkpt lat="37.54118" lon="27.62069">
        <ele>789</ele>
        <time>2020-12-02T12:21:50Z</time>
      </trkpt>
      <trkpt lat="37.54118" lon="27.62069">
        <ele>789</ele>
        <time>2020-12-02T12:21:49Z</time>
      </trkpt>
      <trkpt lat="37.54118" lon="27.62069">
        <ele>789</ele>
        <time>2020-12-02T12:21:48Z</time>
      </trkpt>
      <trkpt lat="37.54118" lon="27.62069">
        <ele>789</ele>
        <time>2020-12-02T12:21:47Z</time>
      </trkpt>
      <trkpt lat="37.54118" lon="27.62069">
        <ele>789</ele>
        <time>2020-12-02T12:21:46Z</time>
      </trkpt>
      <trkpt lat="37.54118" lon="27.62069">
        <ele>789</ele>
        <time>2020-12-02T12:21:45Z</time>
      </trkpt>
      <trkpt lat="37.54118" lon="27.62069">
        <ele>789</ele>
        <time>2020-12-02T12:21:44Z</time>
      </trkpt>
      <trkpt lat="37.54118" lon="27.62069">
        <ele>789</ele>
        <time>2020-12-02T12:21:43Z</time>
      </trkpt>
      <trkpt lat="37.54118" lon="27.62069">
        <ele>789</ele>
        <time>2020-12-02T12:21:42Z</time>
      </trkpt>
      <trkpt lat="37.54118" lon="27.62069">
        <ele>789</ele>
        <time>2020-12-02T12:21:41Z</time>
      </trkpt>
      <trkpt lat="37.54118" lon="27.62069">
        <ele>789</ele>
        <time>2020-12-02T12:21:40Z</time>
      </trkpt>
      <trkpt lat="37.54118" lon="27.62069">
        <ele>789</ele>
        <time>2020-12-02T12:21:39Z</time>
      </trkpt>
      <trkpt lat="37.54118" lon="27.62069">
        <ele>789</ele>
        <time>2020-12-02T12:21:38Z</time>
      </trkpt>
      <trkpt lat="37.54118" lon="27.62069">
        <ele>789</ele>
        <time>2020-12-02T12:21:37Z</time>
      </trkpt>
      <trkpt lat="37.54118" lon="27.62069">
        <ele>789</ele>
        <time>2020-12-02T12:21:36Z</time>
      </trkpt>
      <trkpt lat="37.54118" lon="27.62069">
        <ele>789</ele>
        <time>2020-12-02T12:21:35Z</time>
      </trkpt>
      <trkpt lat="37.54118" lon="27.62069">
        <ele>789</ele>
        <time>2020-12-02T12:21:34Z</time>
      </trkpt>
      <trkpt lat="37.54118" lon="27.62069">
        <ele>789</ele>
        <time>2020-12-02T12:21:33Z</time>
      </trkpt>
      <trkpt lat="37.54118" lon="27.62069">
        <ele>789</ele>
        <time>2020-12-02T12:21:32Z</time>
      </trkpt>
      <trkpt lat="37.54118" lon="27.62069">
        <ele>789.2</ele>
        <time>2020-12-02T12:21:31Z</time>
      </trkpt>
      <trkpt lat="37.54118" lon="27.62069">
        <ele>789.2</ele>
        <time>2020-12-02T12:21:30Z</time>
      </trkpt>
      <trkpt lat="37.54118" lon="27.62069">
        <ele>789.2</ele>
        <time>2020-12-02T12:21:29Z</time>
      </trkpt>
      <trkpt lat="37.54118" lon="27.62069">
        <ele>789.2</ele>
        <time>2020-12-02T12:21:28Z</time>
      </trkpt>
      <trkpt lat="37.54118" lon="27.62069">
        <ele>789.2</ele>
        <time>2020-12-02T12:21:27Z</time>
      </trkpt>
      <trkpt lat="37.54118" lon="27.62069">
        <ele>789.2</ele>
        <time>2020-12-02T12:21:26Z</time>
      </trkpt>
      <trkpt lat="37.54118" lon="27.62069">
        <ele>789.2</ele>
        <time>2020-12-02T12:21:25Z</time>
      </trkpt>
      <trkpt lat="37.54118" lon="27.62069">
        <ele>789.2</ele>
        <time>2020-12-02T12:21:24Z</time>
      </trkpt>
      <trkpt lat="37.54118" lon="27.62069">
        <ele>789.2</ele>
        <time>2020-12-02T12:21:23Z</time>
      </trkpt>
      <trkpt lat="37.54118" lon="27.62069">
        <ele>789.2</ele>
        <time>2020-12-02T12:21:22Z</time>
      </trkpt>
      <trkpt lat="37.54118" lon="27.62069">
        <ele>789.2</ele>
        <time>2020-12-02T12:21:21Z</time>
      </trkpt>
      <trkpt lat="37.54118" lon="27.62069">
        <ele>789.2</ele>
        <time>2020-12-02T12:21:20Z</time>
      </trkpt>
      <trkpt lat="37.54118" lon="27.62069">
        <ele>789.2</ele>
        <time>2020-12-02T12:21:19Z</time>
      </trkpt>
      <trkpt lat="37.54118" lon="27.62069">
        <ele>789.2</ele>
        <time>2020-12-02T12:21:18Z</time>
      </trkpt>
      <trkpt lat="37.54118" lon="27.62069">
        <ele>789.2</ele>
        <time>2020-12-02T12:21:17Z</time>
      </trkpt>
      <trkpt lat="37.54118" lon="27.62069">
        <ele>789.2</ele>
        <time>2020-12-02T12:21:16Z</time>
      </trkpt>
      <trkpt lat="37.54118" lon="27.62069">
        <ele>789.2</ele>
        <time>2020-12-02T12:21:15Z</time>
      </trkpt>
      <trkpt lat="37.54118" lon="27.62069">
        <ele>789.2</ele>
        <time>2020-12-02T12:21:14Z</time>
      </trkpt>
      <trkpt lat="37.54118" lon="27.62069">
        <ele>789.2</ele>
        <time>2020-12-02T12:21:13Z</time>
      </trkpt>
      <trkpt lat="37.54118" lon="27.62069">
        <ele>789.2</ele>
        <time>2020-12-02T12:21:12Z</time>
      </trkpt>
      <trkpt lat="37.54118" lon="27.62069">
        <ele>789.2</ele>
        <time>2020-12-02T12:21:11Z</time>
      </trkpt>
      <trkpt lat="37.54118" lon="27.62069">
        <ele>789.2</ele>
        <time>2020-12-02T12:21:10Z</time>
      </trkpt>
      <trkpt lat="37.54118" lon="27.62069">
        <ele>789.2</ele>
        <time>2020-12-02T12:21:09Z</time>
      </trkpt>
      <trkpt lat="37.54118" lon="27.62069">
        <ele>789.2</ele>
        <time>2020-12-02T12:21:08Z</time>
      </trkpt>
      <trkpt lat="37.54118" lon="27.62069">
        <ele>789.2</ele>
        <time>2020-12-02T12:21:07Z</time>
      </trkpt>
      <trkpt lat="37.54118" lon="27.62069">
        <ele>789.2</ele>
        <time>2020-12-02T12:21:06Z</time>
      </trkpt>
      <trkpt lat="37.54118" lon="27.62069">
        <ele>789.2</ele>
        <time>2020-12-02T12:21:05Z</time>
      </trkpt>
      <trkpt lat="37.54118" lon="27.62069">
        <ele>789.2</ele>
        <time>2020-12-02T12:21:04Z</time>
      </trkpt>
      <trkpt lat="37.54118" lon="27.62069">
        <ele>789.2</ele>
        <time>2020-12-02T12:21:03Z</time>
      </trkpt>
      <trkpt lat="37.54118" lon="27.62069">
        <ele>789.2</ele>
        <time>2020-12-02T12:21:02Z</time>
      </trkpt>
      <trkpt lat="37.54118" lon="27.62069">
        <ele>789.2</ele>
        <time>2020-12-02T12:21:01Z</time>
      </trkpt>
      <trkpt lat="37.54118" lon="27.62069">
        <ele>789.2</ele>
        <time>2020-12-02T12:21:00Z</time>
      </trkpt>
      <trkpt lat="37.54118" lon="27.62069">
        <ele>789.2</ele>
        <time>2020-12-02T12:20:59Z</time>
      </trkpt>
      <trkpt lat="37.54118" lon="27.62069">
        <ele>789.2</ele>
        <time>2020-12-02T12:20:58Z</time>
      </trkpt>
      <trkpt lat="37.54118" lon="27.62069">
        <ele>789.2</ele>
        <time>2020-12-02T12:20:57Z</time>
      </trkpt>
      <trkpt lat="37.54118" lon="27.62069">
        <ele>789.2</ele>
        <time>2020-12-02T12:20:56Z</time>
      </trkpt>
      <trkpt lat="37.54118" lon="27.62069">
        <ele>789.2</ele>
        <time>2020-12-02T12:20:55Z</time>
      </trkpt>
      <trkpt lat="37.54118" lon="27.62069">
        <ele>789.2</ele>
        <time>2020-12-02T12:20:54Z</time>
      </trkpt>
      <trkpt lat="37.54118" lon="27.62069">
        <ele>789.2</ele>
        <time>2020-12-02T12:20:53Z</time>
      </trkpt>
      <trkpt lat="37.54118" lon="27.62069">
        <ele>789.2</ele>
        <time>2020-12-02T12:20:52Z</time>
      </trkpt>
      <trkpt lat="37.54118" lon="27.62069">
        <ele>789.2</ele>
        <time>2020-12-02T12:20:51Z</time>
      </trkpt>
      <trkpt lat="37.54118" lon="27.62069">
        <ele>789.2</ele>
        <time>2020-12-02T12:20:50Z</time>
      </trkpt>
      <trkpt lat="37.54118" lon="27.62069">
        <ele>789.2</ele>
        <time>2020-12-02T12:20:49Z</time>
      </trkpt>
      <trkpt lat="37.54118" lon="27.62069">
        <ele>789.2</ele>
        <time>2020-12-02T12:20:48Z</time>
      </trkpt>
      <trkpt lat="37.54118" lon="27.62069">
        <ele>789.2</ele>
        <time>2020-12-02T12:20:47Z</time>
      </trkpt>
      <trkpt lat="37.54118" lon="27.62069">
        <ele>789.2</ele>
        <time>2020-12-02T12:20:46Z</time>
      </trkpt>
      <trkpt lat="37.54118" lon="27.62069">
        <ele>789.2</ele>
        <time>2020-12-02T12:20:45Z</time>
      </trkpt>
      <trkpt lat="37.54118" lon="27.62069">
        <ele>789.2</ele>
        <time>2020-12-02T12:20:44Z</time>
      </trkpt>
      <trkpt lat="37.54118" lon="27.62069">
        <ele>789.2</ele>
        <time>2020-12-02T12:20:43Z</time>
      </trkpt>
      <trkpt lat="37.54118" lon="27.62069">
        <ele>789.2</ele>
        <time>2020-12-02T12:20:42Z</time>
      </trkpt>
      <trkpt lat="37.54118" lon="27.62069">
        <ele>789.2</ele>
        <time>2020-12-02T12:20:41Z</time>
      </trkpt>
      <trkpt lat="37.54118" lon="27.62069">
        <ele>789.2</ele>
        <time>2020-12-02T12:20:40Z</time>
      </trkpt>
      <trkpt lat="37.54118" lon="27.62069">
        <ele>789.2</ele>
        <time>2020-12-02T12:20:39Z</time>
      </trkpt>
      <trkpt lat="37.54118" lon="27.62069">
        <ele>789.2</ele>
        <time>2020-12-02T12:20:38Z</time>
      </trkpt>
      <trkpt lat="37.54118" lon="27.62069">
        <ele>789.2</ele>
        <time>2020-12-02T12:20:37Z</time>
      </trkpt>
      <trkpt lat="37.54118" lon="27.62069">
        <ele>789.2</ele>
        <time>2020-12-02T12:20:36Z</time>
      </trkpt>
      <trkpt lat="37.54118" lon="27.62069">
        <ele>789.2</ele>
        <time>2020-12-02T12:20:35Z</time>
      </trkpt>
      <trkpt lat="37.54118" lon="27.62069">
        <ele>789.2</ele>
        <time>2020-12-02T12:20:34Z</time>
      </trkpt>
      <trkpt lat="37.54118" lon="27.62069">
        <ele>789.2</ele>
        <time>2020-12-02T12:20:33Z</time>
      </trkpt>
      <trkpt lat="37.54118" lon="27.62069">
        <ele>789.2</ele>
        <time>2020-12-02T12:20:32Z</time>
      </trkpt>
      <trkpt lat="37.54118" lon="27.62069">
        <ele>789.2</ele>
        <time>2020-12-02T12:20:31Z</time>
      </trkpt>
      <trkpt lat="37.54118" lon="27.62069">
        <ele>789.2</ele>
        <time>2020-12-02T12:20:30Z</time>
      </trkpt>
      <trkpt lat="37.54118" lon="27.62069">
        <ele>789.2</ele>
        <time>2020-12-02T12:20:29Z</time>
      </trkpt>
      <trkpt lat="37.54118" lon="27.62069">
        <ele>789.2</ele>
        <time>2020-12-02T12:20:28Z</time>
      </trkpt>
      <trkpt lat="37.54118" lon="27.62069">
        <ele>789.2</ele>
        <time>2020-12-02T12:20:27Z</time>
      </trkpt>
      <trkpt lat="37.54116" lon="27.62068">
        <ele>789.2</ele>
        <time>2020-12-02T12:20:26Z</time>
      </trkpt>
      <trkpt lat="37.54116" lon="27.62068">
        <ele>789.2</ele>
        <time>2020-12-02T12:20:25Z</time>
      </trkpt>
      <trkpt lat="37.54116" lon="27.62068">
        <ele>789.2</ele>
        <time>2020-12-02T12:20:24Z</time>
      </trkpt>
      <trkpt lat="37.54116" lon="27.62068">
        <ele>789.2</ele>
        <time>2020-12-02T12:20:23Z</time>
      </trkpt>
      <trkpt lat="37.54116" lon="27.62068">
        <ele>789.2</ele>
        <time>2020-12-02T12:20:22Z</time>
      </trkpt>
      <trkpt lat="37.54116" lon="27.62068">
        <ele>789.2</ele>
        <time>2020-12-02T12:20:21Z</time>
      </trkpt>
      <trkpt lat="37.54116" lon="27.62068">
        <ele>789.2</ele>
        <time>2020-12-02T12:20:20Z</time>
      </trkpt>
      <trkpt lat="37.54116" lon="27.62068">
        <ele>789.2</ele>
        <time>2020-12-02T12:20:19Z</time>
      </trkpt>
      <trkpt lat="37.54116" lon="27.62068">
        <ele>789.2</ele>
        <time>2020-12-02T12:20:18Z</time>
      </trkpt>
      <trkpt lat="37.54116" lon="27.62068">
        <ele>789.2</ele>
        <time>2020-12-02T12:20:17Z</time>
      </trkpt>
      <trkpt lat="37.54116" lon="27.62068">
        <ele>789.2</ele>
        <time>2020-12-02T12:20:16Z</time>
      </trkpt>
      <trkpt lat="37.54116" lon="27.62068">
        <ele>789.2</ele>
        <time>2020-12-02T12:20:15Z</time>
      </trkpt>
      <trkpt lat="37.54116" lon="27.62068">
        <ele>789.2</ele>
        <time>2020-12-02T12:20:14Z</time>
      </trkpt>
      <trkpt lat="37.54116" lon="27.62068">
        <ele>789.2</ele>
        <time>2020-12-02T12:20:13Z</time>
      </trkpt>
      <trkpt lat="37.54116" lon="27.62068">
        <ele>789.2</ele>
        <time>2020-12-02T12:20:12Z</time>
      </trkpt>
      <trkpt lat="37.54116" lon="27.62068">
        <ele>789.2</ele>
        <time>2020-12-02T12:20:11Z</time>
      </trkpt>
      <trkpt lat="37.54116" lon="27.62068">
        <ele>789.2</ele>
        <time>2020-12-02T12:20:10Z</time>
      </trkpt>
      <trkpt lat="37.54116" lon="27.62068">
        <ele>789.2</ele>
        <time>2020-12-02T12:20:09Z</time>
      </trkpt>
      <trkpt lat="37.54116" lon="27.62068">
        <ele>789.2</ele>
        <time>2020-12-02T12:20:08Z</time>
      </trkpt>
      <trkpt lat="37.54116" lon="27.62068">
        <ele>789.2</ele>
        <time>2020-12-02T12:20:07Z</time>
      </trkpt>
      <trkpt lat="37.54116" lon="27.62068">
        <ele>789.2</ele>
        <time>2020-12-02T12:20:06Z</time>
      </trkpt>
      <trkpt lat="37.54114" lon="27.62067">
        <ele>789.2</ele>
        <time>2020-12-02T12:20:05Z</time>
      </trkpt>
      <trkpt lat="37.54114" lon="27.62067">
        <ele>789.2</ele>
        <time>2020-12-02T12:20:04Z</time>
      </trkpt>
      <trkpt lat="37.54114" lon="27.62067">
        <ele>789.2</ele>
        <time>2020-12-02T12:20:03Z</time>
      </trkpt>
      <trkpt lat="37.54114" lon="27.62067">
        <ele>789.2</ele>
        <time>2020-12-02T12:20:02Z</time>
      </trkpt>
      <trkpt lat="37.54112" lon="27.62067">
        <ele>789.2</ele>
        <time>2020-12-02T12:20:01Z</time>
      </trkpt>
      <trkpt lat="37.54112" lon="27.62067">
        <ele>789.2</ele>
        <time>2020-12-02T12:20:00Z</time>
      </trkpt>
      <trkpt lat="37.5411" lon="27.62067">
        <ele>789.2</ele>
        <time>2020-12-02T12:19:59Z</time>
      </trkpt>
      <trkpt lat="37.5411" lon="27.62067">
        <ele>789.2</ele>
        <time>2020-12-02T12:19:58Z</time>
      </trkpt>
      <trkpt lat="37.5411" lon="27.62067">
        <ele>789.2</ele>
        <time>2020-12-02T12:19:57Z</time>
      </trkpt>
      <trkpt lat="37.5411" lon="27.62067">
        <ele>789.2</ele>
        <time>2020-12-02T12:19:56Z</time>
      </trkpt>
      <trkpt lat="37.5411" lon="27.62067">
        <ele>789.2</ele>
        <time>2020-12-02T12:19:55Z</time>
      </trkpt>
      <trkpt lat="37.5411" lon="27.62067">
        <ele>789.2</ele>
        <time>2020-12-02T12:19:54Z</time>
      </trkpt>
      <trkpt lat="37.5411" lon="27.62067">
        <ele>789.2</ele>
        <time>2020-12-02T12:19:53Z</time>
      </trkpt>
      <trkpt lat="37.5411" lon="27.62067">
        <ele>789.2</ele>
        <time>2020-12-02T12:19:52Z</time>
      </trkpt>
      <trkpt lat="37.5411" lon="27.62067">
        <ele>789.2</ele>
        <time>2020-12-02T12:19:51Z</time>
      </trkpt>
      <trkpt lat="37.5411" lon="27.62067">
        <ele>789.2</ele>
        <time>2020-12-02T12:19:50Z</time>
      </trkpt>
      <trkpt lat="37.5411" lon="27.62067">
        <ele>789.2</ele>
        <time>2020-12-02T12:19:49Z</time>
      </trkpt>
      <trkpt lat="37.5411" lon="27.62067">
        <ele>789.2</ele>
        <time>2020-12-02T12:19:48Z</time>
      </trkpt>
      <trkpt lat="37.5411" lon="27.62067">
        <ele>789.2</ele>
        <time>2020-12-02T12:19:47Z</time>
      </trkpt>
      <trkpt lat="37.54108" lon="27.62068">
        <ele>789.2</ele>
        <time>2020-12-02T12:19:46Z</time>
      </trkpt>
      <trkpt lat="37.54108" lon="27.62068">
        <ele>789.2</ele>
        <time>2020-12-02T12:19:45Z</time>
      </trkpt>
      <trkpt lat="37.54108" lon="27.62068">
        <ele>789.2</ele>
        <time>2020-12-02T12:19:44Z</time>
      </trkpt>
      <trkpt lat="37.54108" lon="27.62068">
        <ele>789.2</ele>
        <time>2020-12-02T12:19:43Z</time>
      </trkpt>
      <trkpt lat="37.54108" lon="27.62068">
        <ele>789.2</ele>
        <time>2020-12-02T12:19:42Z</time>
      </trkpt>
      <trkpt lat="37.54108" lon="27.62068">
        <ele>789.2</ele>
        <time>2020-12-02T12:19:41Z</time>
      </trkpt>
      <trkpt lat="37.54108" lon="27.62068">
        <ele>789.2</ele>
        <time>2020-12-02T12:19:40Z</time>
      </trkpt>
      <trkpt lat="37.54108" lon="27.62068">
        <ele>789.2</ele>
        <time>2020-12-02T12:19:39Z</time>
      </trkpt>
      <trkpt lat="37.54108" lon="27.62068">
        <ele>789.2</ele>
        <time>2020-12-02T12:19:38Z</time>
      </trkpt>
      <trkpt lat="37.54108" lon="27.62068">
        <ele>789.2</ele>
        <time>2020-12-02T12:19:37Z</time>
      </trkpt>
      <trkpt lat="37.54108" lon="27.62068">
        <ele>789.2</ele>
        <time>2020-12-02T12:19:36Z</time>
      </trkpt>
      <trkpt lat="37.54108" lon="27.62068">
        <ele>789.2</ele>
        <time>2020-12-02T12:19:35Z</time>
      </trkpt>
      <trkpt lat="37.54108" lon="27.62068">
        <ele>789.2</ele>
        <time>2020-12-02T12:19:34Z</time>
      </trkpt>
      <trkpt lat="37.54108" lon="27.62068">
        <ele>789.2</ele>
        <time>2020-12-02T12:19:33Z</time>
      </trkpt>
      <trkpt lat="37.54108" lon="27.62068">
        <ele>789.2</ele>
        <time>2020-12-02T12:19:32Z</time>
      </trkpt>
      <trkpt lat="37.54108" lon="27.62068">
        <ele>789.2</ele>
        <time>2020-12-02T12:19:31Z</time>
      </trkpt>
      <trkpt lat="37.54108" lon="27.62068">
        <ele>789.2</ele>
        <time>2020-12-02T12:19:30Z</time>
      </trkpt>
      <trkpt lat="37.54107" lon="27.6207">
        <ele>789.2</ele>
        <time>2020-12-02T12:19:29Z</time>
      </trkpt>
      <trkpt lat="37.54107" lon="27.6207">
        <ele>789.2</ele>
        <time>2020-12-02T12:19:28Z</time>
      </trkpt>
      <trkpt lat="37.54107" lon="27.6207">
        <ele>789.2</ele>
        <time>2020-12-02T12:19:27Z</time>
      </trkpt>
      <trkpt lat="37.54107" lon="27.6207">
        <ele>789.2</ele>
        <time>2020-12-02T12:19:26Z</time>
      </trkpt>
      <trkpt lat="37.54107" lon="27.6207">
        <ele>789.2</ele>
        <time>2020-12-02T12:19:25Z</time>
      </trkpt>
      <trkpt lat="37.54107" lon="27.6207">
        <ele>789.2</ele>
        <time>2020-12-02T12:19:24Z</time>
      </trkpt>
      <trkpt lat="37.54107" lon="27.6207">
        <ele>789.2</ele>
        <time>2020-12-02T12:19:23Z</time>
      </trkpt>
      <trkpt lat="37.54107" lon="27.6207">
        <ele>789.2</ele>
        <time>2020-12-02T12:19:22Z</time>
      </trkpt>
      <trkpt lat="37.54107" lon="27.6207">
        <ele>789.2</ele>
        <time>2020-12-02T12:19:21Z</time>
      </trkpt>
      <trkpt lat="37.54107" lon="27.6207">
        <ele>789.2</ele>
        <time>2020-12-02T12:19:20Z</time>
      </trkpt>
      <trkpt lat="37.54107" lon="27.6207">
        <ele>789.2</ele>
        <time>2020-12-02T12:19:19Z</time>
      </trkpt>
      <trkpt lat="37.54107" lon="27.6207">
        <ele>789.2</ele>
        <time>2020-12-02T12:19:18Z</time>
      </trkpt>
      <trkpt lat="37.54107" lon="27.6207">
        <ele>789.2</ele>
        <time>2020-12-02T12:19:17Z</time>
      </trkpt>
      <trkpt lat="37.54107" lon="27.6207">
        <ele>789.2</ele>
        <time>2020-12-02T12:19:16Z</time>
      </trkpt>
      <trkpt lat="37.54107" lon="27.6207">
        <ele>789.2</ele>
        <time>2020-12-02T12:19:15Z</time>
      </trkpt>
      <trkpt lat="37.54107" lon="27.6207">
        <ele>789.2</ele>
        <time>2020-12-02T12:19:14Z</time>
      </trkpt>
      <trkpt lat="37.54107" lon="27.6207">
        <ele>789.2</ele>
        <time>2020-12-02T12:19:13Z</time>
      </trkpt>
      <trkpt lat="37.54107" lon="27.6207">
        <ele>789.2</ele>
        <time>2020-12-02T12:19:12Z</time>
      </trkpt>
      <trkpt lat="37.54107" lon="27.6207">
        <ele>789.2</ele>
        <time>2020-12-02T12:19:11Z</time>
      </trkpt>
      <trkpt lat="37.54107" lon="27.6207">
        <ele>789.2</ele>
        <time>2020-12-02T12:19:10Z</time>
      </trkpt>
      <trkpt lat="37.54107" lon="27.6207">
        <ele>789.2</ele>
        <time>2020-12-02T12:19:09Z</time>
      </trkpt>
      <trkpt lat="37.54107" lon="27.6207">
        <ele>789.2</ele>
        <time>2020-12-02T12:19:08Z</time>
      </trkpt>
      <trkpt lat="37.54107" lon="27.6207">
        <ele>789.2</ele>
        <time>2020-12-02T12:19:07Z</time>
      </trkpt>
      <trkpt lat="37.54107" lon="27.6207">
        <ele>789.2</ele>
        <time>2020-12-02T12:19:06Z</time>
      </trkpt>
      <trkpt lat="37.54107" lon="27.6207">
        <ele>789.2</ele>
        <time>2020-12-02T12:19:05Z</time>
      </trkpt>
      <trkpt lat="37.54107" lon="27.6207">
        <ele>789.2</ele>
        <time>2020-12-02T12:19:04Z</time>
      </trkpt>
      <trkpt lat="37.54107" lon="27.6207">
        <ele>789.2</ele>
        <time>2020-12-02T12:19:03Z</time>
      </trkpt>
      <trkpt lat="37.54107" lon="27.6207">
        <ele>789.2</ele>
        <time>2020-12-02T12:19:02Z</time>
      </trkpt>
      <trkpt lat="37.54107" lon="27.6207">
        <ele>789.2</ele>
        <time>2020-12-02T12:19:01Z</time>
      </trkpt>
      <trkpt lat="37.54107" lon="27.6207">
        <ele>789.2</ele>
        <time>2020-12-02T12:19:00Z</time>
      </trkpt>
      <trkpt lat="37.54107" lon="27.6207">
        <ele>789.2</ele>
        <time>2020-12-02T12:18:59Z</time>
      </trkpt>
      <trkpt lat="37.54107" lon="27.6207">
        <ele>789.2</ele>
        <time>2020-12-02T12:18:58Z</time>
      </trkpt>
      <trkpt lat="37.54107" lon="27.6207">
        <ele>789.2</ele>
        <time>2020-12-02T12:18:57Z</time>
      </trkpt>
      <trkpt lat="37.54107" lon="27.6207">
        <ele>789.2</ele>
        <time>2020-12-02T12:18:56Z</time>
      </trkpt>
      <trkpt lat="37.54107" lon="27.6207">
        <ele>789.2</ele>
        <time>2020-12-02T12:18:55Z</time>
      </trkpt>
      <trkpt lat="37.54107" lon="27.6207">
        <ele>789.2</ele>
        <time>2020-12-02T12:18:54Z</time>
      </trkpt>
      <trkpt lat="37.54107" lon="27.6207">
        <ele>789.2</ele>
        <time>2020-12-02T12:18:53Z</time>
      </trkpt>
      <trkpt lat="37.54107" lon="27.6207">
        <ele>789.2</ele>
        <time>2020-12-02T12:18:52Z</time>
      </trkpt>
      <trkpt lat="37.54107" lon="27.6207">
        <ele>789.2</ele>
        <time>2020-12-02T12:18:51Z</time>
      </trkpt>
      <trkpt lat="37.54107" lon="27.6207">
        <ele>789.2</ele>
        <time>2020-12-02T12:18:50Z</time>
      </trkpt>
      <trkpt lat="37.54107" lon="27.6207">
        <ele>789.2</ele>
        <time>2020-12-02T12:18:49Z</time>
      </trkpt>
      <trkpt lat="37.54107" lon="27.6207">
        <ele>789.2</ele>
        <time>2020-12-02T12:18:48Z</time>
      </trkpt>
      <trkpt lat="37.54107" lon="27.6207">
        <ele>789.2</ele>
        <time>2020-12-02T12:18:47Z</time>
      </trkpt>
      <trkpt lat="37.54107" lon="27.6207">
        <ele>789.2</ele>
        <time>2020-12-02T12:18:46Z</time>
      </trkpt>
      <trkpt lat="37.54107" lon="27.6207">
        <ele>789.2</ele>
        <time>2020-12-02T12:18:45Z</time>
      </trkpt>
      <trkpt lat="37.54107" lon="27.6207">
        <ele>789.2</ele>
        <time>2020-12-02T12:18:44Z</time>
      </trkpt>
      <trkpt lat="37.54107" lon="27.6207">
        <ele>789.2</ele>
        <time>2020-12-02T12:18:43Z</time>
      </trkpt>
      <trkpt lat="37.54107" lon="27.6207">
        <ele>789.2</ele>
        <time>2020-12-02T12:18:42Z</time>
      </trkpt>
      <trkpt lat="37.54107" lon="27.6207">
        <ele>789.2</ele>
        <time>2020-12-02T12:18:41Z</time>
      </trkpt>
      <trkpt lat="37.54107" lon="27.6207">
        <ele>789.2</ele>
        <time>2020-12-02T12:18:40Z</time>
      </trkpt>
      <trkpt lat="37.54107" lon="27.6207">
        <ele>789.2</ele>
        <time>2020-12-02T12:18:39Z</time>
      </trkpt>
      <trkpt lat="37.54107" lon="27.6207">
        <ele>789.2</ele>
        <time>2020-12-02T12:18:38Z</time>
      </trkpt>
      <trkpt lat="37.54107" lon="27.6207">
        <ele>789.2</ele>
        <time>2020-12-02T12:18:37Z</time>
      </trkpt>
      <trkpt lat="37.54107" lon="27.6207">
        <ele>789.2</ele>
        <time>2020-12-02T12:18:36Z</time>
      </trkpt>
      <trkpt lat="37.54107" lon="27.6207">
        <ele>789.2</ele>
        <time>2020-12-02T12:18:35Z</time>
      </trkpt>
      <trkpt lat="37.54107" lon="27.6207">
        <ele>789.2</ele>
        <time>2020-12-02T12:18:34Z</time>
      </trkpt>
      <trkpt lat="37.54107" lon="27.6207">
        <ele>789.2</ele>
        <time>2020-12-02T12:18:33Z</time>
      </trkpt>
      <trkpt lat="37.54107" lon="27.6207">
        <ele>789.2</ele>
        <time>2020-12-02T12:18:32Z</time>
      </trkpt>
      <trkpt lat="37.54107" lon="27.6207">
        <ele>789.2</ele>
        <time>2020-12-02T12:18:31Z</time>
      </trkpt>
      <trkpt lat="37.54107" lon="27.6207">
        <ele>789.2</ele>
        <time>2020-12-02T12:18:30Z</time>
      </trkpt>
      <trkpt lat="37.54107" lon="27.6207">
        <ele>789.2</ele>
        <time>2020-12-02T12:18:29Z</time>
      </trkpt>
      <trkpt lat="37.54107" lon="27.6207">
        <ele>789.2</ele>
        <time>2020-12-02T12:18:28Z</time>
      </trkpt>
      <trkpt lat="37.54107" lon="27.6207">
        <ele>789.2</ele>
        <time>2020-12-02T12:18:27Z</time>
      </trkpt>
      <trkpt lat="37.54107" lon="27.6207">
        <ele>789.2</ele>
        <time>2020-12-02T12:18:26Z</time>
      </trkpt>
      <trkpt lat="37.54107" lon="27.6207">
        <ele>789.2</ele>
        <time>2020-12-02T12:18:25Z</time>
      </trkpt>
      <trkpt lat="37.54107" lon="27.6207">
        <ele>789.2</ele>
        <time>2020-12-02T12:18:24Z</time>
      </trkpt>
      <trkpt lat="37.54107" lon="27.6207">
        <ele>789.2</ele>
        <time>2020-12-02T12:18:23Z</time>
      </trkpt>
      <trkpt lat="37.54107" lon="27.6207">
        <ele>789.2</ele>
        <time>2020-12-02T12:18:22Z</time>
      </trkpt>
      <trkpt lat="37.54107" lon="27.6207">
        <ele>789.2</ele>
        <time>2020-12-02T12:18:21Z</time>
      </trkpt>
      <trkpt lat="37.54107" lon="27.6207">
        <ele>789.2</ele>
        <time>2020-12-02T12:18:20Z</time>
      </trkpt>
      <trkpt lat="37.54107" lon="27.6207">
        <ele>789.2</ele>
        <time>2020-12-02T12:18:19Z</time>
      </trkpt>
      <trkpt lat="37.54107" lon="27.6207">
        <ele>789.2</ele>
        <time>2020-12-02T12:18:18Z</time>
      </trkpt>
      <trkpt lat="37.54107" lon="27.6207">
        <ele>789.2</ele>
        <time>2020-12-02T12:18:17Z</time>
      </trkpt>
      <trkpt lat="37.54107" lon="27.6207">
        <ele>789.2</ele>
        <time>2020-12-02T12:18:16Z</time>
      </trkpt>
      <trkpt lat="37.54107" lon="27.6207">
        <ele>789.2</ele>
        <time>2020-12-02T12:18:15Z</time>
      </trkpt>
      <trkpt lat="37.54107" lon="27.6207">
        <ele>789.2</ele>
        <time>2020-12-02T12:18:14Z</time>
      </trkpt>
      <trkpt lat="37.54107" lon="27.6207">
        <ele>789.2</ele>
        <time>2020-12-02T12:18:13Z</time>
      </trkpt>
      <trkpt lat="37.54107" lon="27.6207">
        <ele>789.2</ele>
        <time>2020-12-02T12:18:12Z</time>
      </trkpt>
      <trkpt lat="37.54107" lon="27.6207">
        <ele>789.2</ele>
        <time>2020-12-02T12:18:11Z</time>
      </trkpt>
      <trkpt lat="37.54107" lon="27.6207">
        <ele>789.2</ele>
        <time>2020-12-02T12:18:10Z</time>
      </trkpt>
      <trkpt lat="37.54107" lon="27.6207">
        <ele>789.2</ele>
        <time>2020-12-02T12:18:09Z</time>
      </trkpt>
      <trkpt lat="37.54107" lon="27.6207">
        <ele>789.2</ele>
        <time>2020-12-02T12:18:08Z</time>
      </trkpt>
      <trkpt lat="37.54107" lon="27.6207">
        <ele>789.2</ele>
        <time>2020-12-02T12:18:07Z</time>
      </trkpt>
      <trkpt lat="37.54107" lon="27.6207">
        <ele>789.2</ele>
        <time>2020-12-02T12:18:06Z</time>
      </trkpt>
      <trkpt lat="37.54107" lon="27.6207">
        <ele>789.2</ele>
        <time>2020-12-02T12:18:05Z</time>
      </trkpt>
      <trkpt lat="37.54107" lon="27.6207">
        <ele>789.2</ele>
        <time>2020-12-02T12:18:04Z</time>
      </trkpt>
      <trkpt lat="37.54107" lon="27.6207">
        <ele>789.2</ele>
        <time>2020-12-02T12:18:03Z</time>
      </trkpt>
      <trkpt lat="37.54107" lon="27.6207">
        <ele>789.2</ele>
        <time>2020-12-02T12:18:02Z</time>
      </trkpt>
      <trkpt lat="37.54107" lon="27.6207">
        <ele>789.2</ele>
        <time>2020-12-02T12:18:01Z</time>
      </trkpt>
      <trkpt lat="37.54107" lon="27.6207">
        <ele>789.2</ele>
        <time>2020-12-02T12:18:00Z</time>
      </trkpt>
      <trkpt lat="37.54107" lon="27.6207">
        <ele>789.2</ele>
        <time>2020-12-02T12:17:59Z</time>
      </trkpt>
      <trkpt lat="37.54107" lon="27.6207">
        <ele>789.2</ele>
        <time>2020-12-02T12:17:58Z</time>
      </trkpt>
      <trkpt lat="37.54107" lon="27.6207">
        <ele>789.2</ele>
        <time>2020-12-02T12:17:57Z</time>
      </trkpt>
      <trkpt lat="37.54107" lon="27.6207">
        <ele>789.2</ele>
        <time>2020-12-02T12:17:56Z</time>
      </trkpt>
      <trkpt lat="37.54107" lon="27.6207">
        <ele>789.2</ele>
        <time>2020-12-02T12:17:55Z</time>
      </trkpt>
      <trkpt lat="37.54107" lon="27.6207">
        <ele>789.2</ele>
        <time>2020-12-02T12:17:54Z</time>
      </trkpt>
      <trkpt lat="37.54107" lon="27.6207">
        <ele>789.2</ele>
        <time>2020-12-02T12:17:53Z</time>
      </trkpt>
      <trkpt lat="37.54107" lon="27.6207">
        <ele>789.2</ele>
        <time>2020-12-02T12:17:52Z</time>
      </trkpt>
      <trkpt lat="37.54107" lon="27.6207">
        <ele>789.2</ele>
        <time>2020-12-02T12:17:51Z</time>
      </trkpt>
      <trkpt lat="37.54108" lon="27.62069">
        <ele>789.2</ele>
        <time>2020-12-02T12:17:50Z</time>
      </trkpt>
      <trkpt lat="37.54108" lon="27.62069">
        <ele>789.2</ele>
        <time>2020-12-02T12:17:49Z</time>
      </trkpt>
      <trkpt lat="37.54108" lon="27.62069">
        <ele>789.2</ele>
        <time>2020-12-02T12:17:48Z</time>
      </trkpt>
      <trkpt lat="37.54108" lon="27.62069">
        <ele>789.2</ele>
        <time>2020-12-02T12:17:47Z</time>
      </trkpt>
      <trkpt lat="37.54108" lon="27.62069">
        <ele>789.2</ele>
        <time>2020-12-02T12:17:46Z</time>
      </trkpt>
      <trkpt lat="37.54108" lon="27.62069">
        <ele>789.2</ele>
        <time>2020-12-02T12:17:45Z</time>
      </trkpt>
      <trkpt lat="37.54108" lon="27.62069">
        <ele>789.2</ele>
        <time>2020-12-02T12:17:44Z</time>
      </trkpt>
      <trkpt lat="37.54108" lon="27.62069">
        <ele>789.2</ele>
        <time>2020-12-02T12:17:43Z</time>
      </trkpt>
      <trkpt lat="37.54108" lon="27.62069">
        <ele>789.2</ele>
        <time>2020-12-02T12:17:42Z</time>
      </trkpt>
      <trkpt lat="37.54108" lon="27.62069">
        <ele>789.2</ele>
        <time>2020-12-02T12:17:41Z</time>
      </trkpt>
      <trkpt lat="37.54108" lon="27.62069">
        <ele>789.2</ele>
        <time>2020-12-02T12:17:40Z</time>
      </trkpt>
      <trkpt lat="37.54108" lon="27.62069">
        <ele>789.2</ele>
        <time>2020-12-02T12:17:39Z</time>
      </trkpt>
      <trkpt lat="37.54108" lon="27.62069">
        <ele>789.2</ele>
        <time>2020-12-02T12:17:38Z</time>
      </trkpt>
      <trkpt lat="37.54108" lon="27.62069">
        <ele>789.2</ele>
        <time>2020-12-02T12:17:37Z</time>
      </trkpt>
      <trkpt lat="37.54108" lon="27.62069">
        <ele>789.2</ele>
        <time>2020-12-02T12:17:36Z</time>
      </trkpt>
      <trkpt lat="37.54108" lon="27.62069">
        <ele>789.2</ele>
        <time>2020-12-02T12:17:35Z</time>
      </trkpt>
      <trkpt lat="37.54108" lon="27.62069">
        <ele>789.2</ele>
        <time>2020-12-02T12:17:34Z</time>
      </trkpt>
      <trkpt lat="37.54108" lon="27.62069">
        <ele>789.2</ele>
        <time>2020-12-02T12:17:33Z</time>
      </trkpt>
      <trkpt lat="37.54108" lon="27.62069">
        <ele>789.2</ele>
        <time>2020-12-02T12:17:32Z</time>
      </trkpt>
      <trkpt lat="37.54108" lon="27.62069">
        <ele>789.2</ele>
        <time>2020-12-02T12:17:31Z</time>
      </trkpt>
      <trkpt lat="37.54108" lon="27.62069">
        <ele>789.2</ele>
        <time>2020-12-02T12:17:30Z</time>
      </trkpt>
      <trkpt lat="37.54108" lon="27.62069">
        <ele>789.2</ele>
        <time>2020-12-02T12:17:29Z</time>
      </trkpt>
      <trkpt lat="37.54108" lon="27.62069">
        <ele>789.2</ele>
        <time>2020-12-02T12:17:28Z</time>
      </trkpt>
      <trkpt lat="37.54108" lon="27.62069">
        <ele>789.2</ele>
        <time>2020-12-02T12:17:27Z</time>
      </trkpt>
      <trkpt lat="37.54108" lon="27.62069">
        <ele>789.2</ele>
        <time>2020-12-02T12:17:26Z</time>
      </trkpt>
      <trkpt lat="37.54108" lon="27.62069">
        <ele>789.2</ele>
        <time>2020-12-02T12:17:25Z</time>
      </trkpt>
      <trkpt lat="37.54108" lon="27.62069">
        <ele>789.2</ele>
        <time>2020-12-02T12:17:24Z</time>
      </trkpt>
      <trkpt lat="37.5411" lon="27.6207">
        <ele>789.2</ele>
        <time>2020-12-02T12:17:23Z</time>
      </trkpt>
      <trkpt lat="37.5411" lon="27.6207">
        <ele>789.2</ele>
        <time>2020-12-02T12:17:22Z</time>
      </trkpt>
      <trkpt lat="37.5411" lon="27.6207">
        <ele>789.2</ele>
        <time>2020-12-02T12:17:21Z</time>
      </trkpt>
      <trkpt lat="37.5411" lon="27.6207">
        <ele>789.2</ele>
        <time>2020-12-02T12:17:20Z</time>
      </trkpt>
      <trkpt lat="37.5411" lon="27.6207">
        <ele>789.2</ele>
        <time>2020-12-02T12:17:19Z</time>
      </trkpt>
      <trkpt lat="37.5411" lon="27.6207">
        <ele>789.2</ele>
        <time>2020-12-02T12:17:18Z</time>
      </trkpt>
      <trkpt lat="37.5411" lon="27.6207">
        <ele>789.2</ele>
        <time>2020-12-02T12:17:17Z</time>
      </trkpt>
      <trkpt lat="37.5411" lon="27.6207">
        <ele>789.2</ele>
        <time>2020-12-02T12:17:16Z</time>
      </trkpt>
      <trkpt lat="37.5411" lon="27.6207">
        <ele>789.2</ele>
        <time>2020-12-02T12:17:15Z</time>
      </trkpt>
      <trkpt lat="37.5411" lon="27.6207">
        <ele>789.2</ele>
        <time>2020-12-02T12:17:14Z</time>
      </trkpt>
      <trkpt lat="37.5411" lon="27.6207">
        <ele>789.2</ele>
        <time>2020-12-02T12:17:13Z</time>
      </trkpt>
      <trkpt lat="37.5411" lon="27.6207">
        <ele>789.2</ele>
        <time>2020-12-02T12:17:12Z</time>
      </trkpt>
      <trkpt lat="37.5411" lon="27.6207">
        <ele>789.2</ele>
        <time>2020-12-02T12:17:11Z</time>
      </trkpt>
      <trkpt lat="37.5411" lon="27.6207">
        <ele>789.2</ele>
        <time>2020-12-02T12:17:10Z</time>
      </trkpt>
      <trkpt lat="37.5411" lon="27.6207">
        <ele>789.2</ele>
        <time>2020-12-02T12:17:09Z</time>
      </trkpt>
      <trkpt lat="37.5411" lon="27.6207">
        <ele>789.2</ele>
        <time>2020-12-02T12:17:08Z</time>
      </trkpt>
      <trkpt lat="37.5411" lon="27.6207">
        <ele>789.2</ele>
        <time>2020-12-02T12:17:07Z</time>
      </trkpt>
      <trkpt lat="37.5411" lon="27.6207">
        <ele>789.2</ele>
        <time>2020-12-02T12:17:06Z</time>
      </trkpt>
      <trkpt lat="37.5411" lon="27.6207">
        <ele>789.2</ele>
        <time>2020-12-02T12:17:05Z</time>
      </trkpt>
      <trkpt lat="37.5411" lon="27.6207">
        <ele>789.2</ele>
        <time>2020-12-02T12:17:04Z</time>
      </trkpt>
      <trkpt lat="37.5411" lon="27.6207">
        <ele>789.2</ele>
        <time>2020-12-02T12:17:03Z</time>
      </trkpt>
      <trkpt lat="37.5411" lon="27.6207">
        <ele>789.2</ele>
        <time>2020-12-02T12:17:02Z</time>
      </trkpt>
      <trkpt lat="37.5411" lon="27.6207">
        <ele>789.2</ele>
        <time>2020-12-02T12:17:01Z</time>
      </trkpt>
      <trkpt lat="37.5411" lon="27.6207">
        <ele>789.2</ele>
        <time>2020-12-02T12:17:00Z</time>
      </trkpt>
      <trkpt lat="37.5411" lon="27.6207">
        <ele>789.2</ele>
        <time>2020-12-02T12:16:59Z</time>
      </trkpt>
      <trkpt lat="37.5411" lon="27.6207">
        <ele>789.2</ele>
        <time>2020-12-02T12:16:58Z</time>
      </trkpt>
      <trkpt lat="37.5411" lon="27.6207">
        <ele>789.2</ele>
        <time>2020-12-02T12:16:57Z</time>
      </trkpt>
      <trkpt lat="37.5411" lon="27.6207">
        <ele>789.2</ele>
        <time>2020-12-02T12:16:56Z</time>
      </trkpt>
      <trkpt lat="37.5411" lon="27.6207">
        <ele>789.2</ele>
        <time>2020-12-02T12:16:55Z</time>
      </trkpt>
      <trkpt lat="37.5411" lon="27.6207">
        <ele>789.4</ele>
        <time>2020-12-02T12:16:54Z</time>
      </trkpt>
      <trkpt lat="37.5411" lon="27.6207">
        <ele>789.4</ele>
        <time>2020-12-02T12:16:53Z</time>
      </trkpt>
      <trkpt lat="37.5411" lon="27.6207">
        <ele>789.4</ele>
        <time>2020-12-02T12:16:52Z</time>
      </trkpt>
      <trkpt lat="37.5411" lon="27.6207">
        <ele>789.4</ele>
        <time>2020-12-02T12:16:51Z</time>
      </trkpt>
      <trkpt lat="37.5411" lon="27.6207">
        <ele>789.4</ele>
        <time>2020-12-02T12:16:50Z</time>
      </trkpt>
      <trkpt lat="37.5411" lon="27.6207">
        <ele>789.4</ele>
        <time>2020-12-02T12:16:49Z</time>
      </trkpt>
      <trkpt lat="37.5411" lon="27.6207">
        <ele>789.4</ele>
        <time>2020-12-02T12:16:48Z</time>
      </trkpt>
      <trkpt lat="37.5411" lon="27.6207">
        <ele>789.4</ele>
        <time>2020-12-02T12:16:47Z</time>
      </trkpt>
      <trkpt lat="37.5411" lon="27.6207">
        <ele>789.4</ele>
        <time>2020-12-02T12:16:46Z</time>
      </trkpt>
      <trkpt lat="37.5411" lon="27.6207">
        <ele>789.4</ele>
        <time>2020-12-02T12:16:45Z</time>
      </trkpt>
      <trkpt lat="37.5411" lon="27.6207">
        <ele>789.4</ele>
        <time>2020-12-02T12:16:44Z</time>
      </trkpt>
      <trkpt lat="37.5411" lon="27.6207">
        <ele>789.4</ele>
        <time>2020-12-02T12:16:43Z</time>
      </trkpt>
      <trkpt lat="37.5411" lon="27.6207">
        <ele>789.4</ele>
        <time>2020-12-02T12:16:42Z</time>
      </trkpt>
      <trkpt lat="37.5411" lon="27.6207">
        <ele>789.4</ele>
        <time>2020-12-02T12:16:41Z</time>
      </trkpt>
      <trkpt lat="37.5411" lon="27.6207">
        <ele>789.4</ele>
        <time>2020-12-02T12:16:40Z</time>
      </trkpt>
      <trkpt lat="37.5411" lon="27.6207">
        <ele>789.4</ele>
        <time>2020-12-02T12:16:39Z</time>
      </trkpt>
      <trkpt lat="37.5411" lon="27.6207">
        <ele>789.4</ele>
        <time>2020-12-02T12:16:38Z</time>
      </trkpt>
      <trkpt lat="37.5411" lon="27.6207">
        <ele>789.4</ele>
        <time>2020-12-02T12:16:37Z</time>
      </trkpt>
      <trkpt lat="37.5411" lon="27.6207">
        <ele>789.4</ele>
        <time>2020-12-02T12:16:36Z</time>
      </trkpt>
      <trkpt lat="37.5411" lon="27.6207">
        <ele>789.4</ele>
        <time>2020-12-02T12:16:35Z</time>
      </trkpt>
      <trkpt lat="37.5411" lon="27.6207">
        <ele>789.4</ele>
        <time>2020-12-02T12:16:34Z</time>
      </trkpt>
      <trkpt lat="37.5411" lon="27.6207">
        <ele>789.4</ele>
        <time>2020-12-02T12:16:33Z</time>
      </trkpt>
      <trkpt lat="37.5411" lon="27.6207">
        <ele>789.4</ele>
        <time>2020-12-02T12:16:32Z</time>
      </trkpt>
      <trkpt lat="37.5411" lon="27.6207">
        <ele>789.4</ele>
        <time>2020-12-02T12:16:31Z</time>
      </trkpt>
      <trkpt lat="37.5411" lon="27.6207">
        <ele>789.4</ele>
        <time>2020-12-02T12:16:30Z</time>
      </trkpt>
      <trkpt lat="37.5411" lon="27.6207">
        <ele>789.6</ele>
        <time>2020-12-02T12:16:29Z</time>
      </trkpt>
      <trkpt lat="37.5411" lon="27.6207">
        <ele>789.6</ele>
        <time>2020-12-02T12:16:28Z</time>
      </trkpt>
      <trkpt lat="37.5411" lon="27.6207">
        <ele>789.8</ele>
        <time>2020-12-02T12:16:27Z</time>
      </trkpt>
      <trkpt lat="37.5411" lon="27.6207">
        <ele>789.8</ele>
        <time>2020-12-02T12:16:26Z</time>
      </trkpt>
      <trkpt lat="37.5411" lon="27.6207">
        <ele>789.8</ele>
        <time>2020-12-02T12:16:25Z</time>
      </trkpt>
      <trkpt lat="37.5411" lon="27.6207">
        <ele>789.8</ele>
        <time>2020-12-02T12:16:24Z</time>
      </trkpt>
      <trkpt lat="37.5411" lon="27.6207">
        <ele>789.8</ele>
        <time>2020-12-02T12:16:23Z</time>
      </trkpt>
      <trkpt lat="37.5411" lon="27.6207">
        <ele>790</ele>
        <time>2020-12-02T12:16:22Z</time>
      </trkpt>
      <trkpt lat="37.5411" lon="27.6207">
        <ele>789.8</ele>
        <time>2020-12-02T12:16:21Z</time>
      </trkpt>
      <trkpt lat="37.5411" lon="27.6207">
        <ele>789.8</ele>
        <time>2020-12-02T12:16:20Z</time>
      </trkpt>
      <trkpt lat="37.5411" lon="27.6207">
        <ele>789.6</ele>
        <time>2020-12-02T12:16:19Z</time>
      </trkpt>
      <trkpt lat="37.5411" lon="27.6207">
        <ele>789.8</ele>
        <time>2020-12-02T12:16:18Z</time>
      </trkpt>
      <trkpt lat="37.5411" lon="27.6207">
        <ele>789.8</ele>
        <time>2020-12-02T12:16:17Z</time>
      </trkpt>
      <trkpt lat="37.5411" lon="27.6207">
        <ele>789.8</ele>
        <time>2020-12-02T12:16:16Z</time>
      </trkpt>
      <trkpt lat="37.5411" lon="27.6207">
        <ele>789.6</ele>
        <time>2020-12-02T12:16:15Z</time>
      </trkpt>
      <trkpt lat="37.5411" lon="27.6207">
        <ele>789.4</ele>
        <time>2020-12-02T12:16:14Z</time>
      </trkpt>
      <trkpt lat="37.5411" lon="27.6207">
        <ele>789.4</ele>
        <time>2020-12-02T12:16:13Z</time>
      </trkpt>
      <trkpt lat="37.5411" lon="27.6207">
        <ele>789.6</ele>
        <time>2020-12-02T12:16:12Z</time>
      </trkpt>
      <trkpt lat="37.5411" lon="27.6207">
        <ele>789.4</ele>
        <time>2020-12-02T12:16:11Z</time>
      </trkpt>
      <trkpt lat="37.5411" lon="27.6207">
        <ele>789.2</ele>
        <time>2020-12-02T12:16:10Z</time>
      </trkpt>
      <trkpt lat="37.5411" lon="27.6207">
        <ele>789.2</ele>
        <time>2020-12-02T12:16:09Z</time>
      </trkpt>
      <trkpt lat="37.5411" lon="27.6207">
        <ele>789.4</ele>
        <time>2020-12-02T12:16:08Z</time>
      </trkpt>
      <trkpt lat="37.5411" lon="27.6207">
        <ele>789.4</ele>
        <time>2020-12-02T12:16:07Z</time>
      </trkpt>
      <trkpt lat="37.5411" lon="27.6207">
        <ele>789.6</ele>
        <time>2020-12-02T12:16:06Z</time>
      </trkpt>
      <trkpt lat="37.5411" lon="27.6207">
        <ele>789.6</ele>
        <time>2020-12-02T12:16:05Z</time>
      </trkpt>
      <trkpt lat="37.5411" lon="27.6207">
        <ele>789.8</ele>
        <time>2020-12-02T12:16:04Z</time>
      </trkpt>
      <trkpt lat="37.5411" lon="27.6207">
        <ele>789.8</ele>
        <time>2020-12-02T12:16:03Z</time>
      </trkpt>
      <trkpt lat="37.5411" lon="27.6207">
        <ele>789.8</ele>
        <time>2020-12-02T12:16:02Z</time>
      </trkpt>
      <trkpt lat="37.5411" lon="27.6207">
        <ele>789.8</ele>
        <time>2020-12-02T12:16:01Z</time>
      </trkpt>
      <trkpt lat="37.5411" lon="27.6207">
        <ele>789.8</ele>
        <time>2020-12-02T12:16:00Z</time>
      </trkpt>
      <trkpt lat="37.5411" lon="27.6207">
        <ele>789.8</ele>
        <time>2020-12-02T12:15:59Z</time>
      </trkpt>
      <trkpt lat="37.5411" lon="27.6207">
        <ele>789.8</ele>
        <time>2020-12-02T12:15:58Z</time>
      </trkpt>
      <trkpt lat="37.5411" lon="27.6207">
        <ele>789.8</ele>
        <time>2020-12-02T12:15:57Z</time>
      </trkpt>
      <trkpt lat="37.5411" lon="27.6207">
        <ele>789.8</ele>
        <time>2020-12-02T12:15:56Z</time>
      </trkpt>
      <trkpt lat="37.5411" lon="27.6207">
        <ele>789.8</ele>
        <time>2020-12-02T12:15:55Z</time>
      </trkpt>
      <trkpt lat="37.5411" lon="27.6207">
        <ele>789.8</ele>
        <time>2020-12-02T12:15:54Z</time>
      </trkpt>
      <trkpt lat="37.5411" lon="27.6207">
        <ele>789.8</ele>
        <time>2020-12-02T12:15:53Z</time>
      </trkpt>
      <trkpt lat="37.5411" lon="27.6207">
        <ele>789.8</ele>
        <time>2020-12-02T12:15:52Z</time>
      </trkpt>
      <trkpt lat="37.5411" lon="27.6207">
        <ele>789.8</ele>
        <time>2020-12-02T12:15:51Z</time>
      </trkpt>
      <trkpt lat="37.5411" lon="27.6207">
        <ele>789.8</ele>
        <time>2020-12-02T12:15:50Z</time>
      </trkpt>
      <trkpt lat="37.5411" lon="27.6207">
        <ele>789.8</ele>
        <time>2020-12-02T12:15:49Z</time>
      </trkpt>
      <trkpt lat="37.5411" lon="27.6207">
        <ele>789.8</ele>
        <time>2020-12-02T12:15:48Z</time>
      </trkpt>
      <trkpt lat="37.5411" lon="27.6207">
        <ele>789.8</ele>
        <time>2020-12-02T12:15:47Z</time>
      </trkpt>
      <trkpt lat="37.5411" lon="27.6207">
        <ele>789.8</ele>
        <time>2020-12-02T12:15:46Z</time>
      </trkpt>
      <trkpt lat="37.5411" lon="27.6207">
        <ele>789.8</ele>
        <time>2020-12-02T12:15:45Z</time>
      </trkpt>
      <trkpt lat="37.5411" lon="27.6207">
        <ele>789.8</ele>
        <time>2020-12-02T12:15:44Z</time>
      </trkpt>
      <trkpt lat="37.5411" lon="27.6207">
        <ele>789.8</ele>
        <time>2020-12-02T12:15:43Z</time>
      </trkpt>
      <trkpt lat="37.5411" lon="27.6207">
        <ele>790</ele>
        <time>2020-12-02T12:15:42Z</time>
      </trkpt>
      <trkpt lat="37.5411" lon="27.6207">
        <ele>790</ele>
        <time>2020-12-02T12:15:41Z</time>
      </trkpt>
      <trkpt lat="37.5411" lon="27.6207">
        <ele>790</ele>
        <time>2020-12-02T12:15:40Z</time>
      </trkpt>
      <trkpt lat="37.5411" lon="27.6207">
        <ele>790</ele>
        <time>2020-12-02T12:15:39Z</time>
      </trkpt>
      <trkpt lat="37.5411" lon="27.6207">
        <ele>790.2</ele>
        <time>2020-12-02T12:15:38Z</time>
      </trkpt>
      <trkpt lat="37.5411" lon="27.6207">
        <ele>790.2</ele>
        <time>2020-12-02T12:15:37Z</time>
      </trkpt>
      <trkpt lat="37.5411" lon="27.6207">
        <ele>790.4</ele>
        <time>2020-12-02T12:15:36Z</time>
      </trkpt>
      <trkpt lat="37.5411" lon="27.6207">
        <ele>790.4</ele>
        <time>2020-12-02T12:15:35Z</time>
      </trkpt>
      <trkpt lat="37.5411" lon="27.6207">
        <ele>790.4</ele>
        <time>2020-12-02T12:15:34Z</time>
      </trkpt>
      <trkpt lat="37.5411" lon="27.6207">
        <ele>790.4</ele>
        <time>2020-12-02T12:15:33Z</time>
      </trkpt>
      <trkpt lat="37.5411" lon="27.6207">
        <ele>790.4</ele>
        <time>2020-12-02T12:15:32Z</time>
      </trkpt>
      <trkpt lat="37.5411" lon="27.6207">
        <ele>790.6</ele>
        <time>2020-12-02T12:15:31Z</time>
      </trkpt>
      <trkpt lat="37.5411" lon="27.6207">
        <ele>790.6</ele>
        <time>2020-12-02T12:15:30Z</time>
      </trkpt>
      <trkpt lat="37.5411" lon="27.6207">
        <ele>790.6</ele>
        <time>2020-12-02T12:15:29Z</time>
      </trkpt>
      <trkpt lat="37.5411" lon="27.6207">
        <ele>790.4</ele>
        <time>2020-12-02T12:15:28Z</time>
      </trkpt>
      <trkpt lat="37.5411" lon="27.6207">
        <ele>790.4</ele>
        <time>2020-12-02T12:15:27Z</time>
      </trkpt>
      <trkpt lat="37.5411" lon="27.6207">
        <ele>790.4</ele>
        <time>2020-12-02T12:15:26Z</time>
      </trkpt>
      <trkpt lat="37.5411" lon="27.6207">
        <ele>790.2</ele>
        <time>2020-12-02T12:15:25Z</time>
      </trkpt>
      <trkpt lat="37.5411" lon="27.6207">
        <ele>790.2</ele>
        <time>2020-12-02T12:15:24Z</time>
      </trkpt>
      <trkpt lat="37.5411" lon="27.6207">
        <ele>790</ele>
        <time>2020-12-02T12:15:23Z</time>
      </trkpt>
      <trkpt lat="37.5411" lon="27.6207">
        <ele>789.8</ele>
        <time>2020-12-02T12:15:22Z</time>
      </trkpt>
      <trkpt lat="37.5411" lon="27.6207">
        <ele>789.8</ele>
        <time>2020-12-02T12:15:21Z</time>
      </trkpt>
      <trkpt lat="37.5411" lon="27.6207">
        <ele>789.8</ele>
        <time>2020-12-02T12:15:20Z</time>
      </trkpt>
      <trkpt lat="37.5411" lon="27.6207">
        <ele>790</ele>
        <time>2020-12-02T12:15:19Z</time>
      </trkpt>
      <trkpt lat="37.5411" lon="27.6207">
        <ele>789.8</ele>
        <time>2020-12-02T12:15:18Z</time>
      </trkpt>
      <trkpt lat="37.5411" lon="27.6207">
        <ele>789.8</ele>
        <time>2020-12-02T12:15:17Z</time>
      </trkpt>
      <trkpt lat="37.5411" lon="27.6207">
        <ele>789.8</ele>
        <time>2020-12-02T12:15:16Z</time>
      </trkpt>
      <trkpt lat="37.5411" lon="27.6207">
        <ele>789.6</ele>
        <time>2020-12-02T12:15:15Z</time>
      </trkpt>
      <trkpt lat="37.5411" lon="27.6207">
        <ele>789.4</ele>
        <time>2020-12-02T12:15:14Z</time>
      </trkpt>
      <trkpt lat="37.5411" lon="27.6207">
        <ele>789.4</ele>
        <time>2020-12-02T12:15:13Z</time>
      </trkpt>
      <trkpt lat="37.5411" lon="27.6207">
        <ele>789.4</ele>
        <time>2020-12-02T12:15:12Z</time>
      </trkpt>
      <trkpt lat="37.5411" lon="27.6207">
        <ele>789.4</ele>
        <time>2020-12-02T12:15:11Z</time>
      </trkpt>
      <trkpt lat="37.5411" lon="27.6207">
        <ele>789.4</ele>
        <time>2020-12-02T12:15:10Z</time>
      </trkpt>
      <trkpt lat="37.5411" lon="27.6207">
        <ele>789.4</ele>
        <time>2020-12-02T12:15:09Z</time>
      </trkpt>
      <trkpt lat="37.5411" lon="27.6207">
        <ele>789.4</ele>
        <time>2020-12-02T12:15:08Z</time>
      </trkpt>
      <trkpt lat="37.5411" lon="27.6207">
        <ele>789.2</ele>
        <time>2020-12-02T12:15:07Z</time>
      </trkpt>
      <trkpt lat="37.5411" lon="27.6207">
        <ele>789.4</ele>
        <time>2020-12-02T12:15:06Z</time>
      </trkpt>
      <trkpt lat="37.5411" lon="27.6207">
        <ele>789.4</ele>
        <time>2020-12-02T12:15:05Z</time>
      </trkpt>
      <trkpt lat="37.5411" lon="27.6207">
        <ele>789.4</ele>
        <time>2020-12-02T12:15:04Z</time>
      </trkpt>
      <trkpt lat="37.5411" lon="27.6207">
        <ele>789.6</ele>
        <time>2020-12-02T12:15:03Z</time>
      </trkpt>
      <trkpt lat="37.5411" lon="27.6207">
        <ele>789.6</ele>
        <time>2020-12-02T12:15:02Z</time>
      </trkpt>
      <trkpt lat="37.5411" lon="27.6207">
        <ele>789.6</ele>
        <time>2020-12-02T12:15:01Z</time>
      </trkpt>
      <trkpt lat="37.5411" lon="27.6207">
        <ele>789.6</ele>
        <time>2020-12-02T12:15:00Z</time>
      </trkpt>
      <trkpt lat="37.5411" lon="27.6207">
        <ele>789.6</ele>
        <time>2020-12-02T12:14:59Z</time>
      </trkpt>
      <trkpt lat="37.5411" lon="27.6207">
        <ele>789.6</ele>
        <time>2020-12-02T12:14:58Z</time>
      </trkpt>
      <trkpt lat="37.5411" lon="27.6207">
        <ele>789.6</ele>
        <time>2020-12-02T12:14:57Z</time>
      </trkpt>
      <trkpt lat="37.5411" lon="27.6207">
        <ele>789.8</ele>
        <time>2020-12-02T12:14:56Z</time>
      </trkpt>
      <trkpt lat="37.5411" lon="27.6207">
        <ele>790</ele>
        <time>2020-12-02T12:14:55Z</time>
      </trkpt>
      <trkpt lat="37.5411" lon="27.6207">
        <ele>790.2</ele>
        <time>2020-12-02T12:14:54Z</time>
      </trkpt>
      <trkpt lat="37.5411" lon="27.6207">
        <ele>790.8</ele>
        <time>2020-12-02T12:14:53Z</time>
      </trkpt>
      <trkpt lat="37.5411" lon="27.6207">
        <ele>791</ele>
        <time>2020-12-02T12:14:52Z</time>
      </trkpt>
      <trkpt lat="37.5411" lon="27.6207">
        <ele>790.8</ele>
        <time>2020-12-02T12:14:51Z</time>
      </trkpt>
      <trkpt lat="37.54112" lon="27.62071">
        <ele>790.6</ele>
        <time>2020-12-02T12:14:50Z</time>
      </trkpt>
      <trkpt lat="37.54112" lon="27.62071">
        <ele>790.4</ele>
        <time>2020-12-02T12:14:49Z</time>
      </trkpt>
      <trkpt lat="37.54114" lon="27.62071">
        <ele>790.2</ele>
        <time>2020-12-02T12:14:48Z</time>
      </trkpt>
      <trkpt lat="37.54114" lon="27.62071">
        <ele>790.2</ele>
        <time>2020-12-02T12:14:47Z</time>
      </trkpt>
      <trkpt lat="37.54114" lon="27.62071">
        <ele>790.2</ele>
        <time>2020-12-02T12:14:46Z</time>
      </trkpt>
      <trkpt lat="37.54117" lon="27.62073">
        <ele>790</ele>
        <time>2020-12-02T12:14:45Z</time>
      </trkpt>
      <trkpt lat="37.54117" lon="27.62073">
        <ele>790</ele>
        <time>2020-12-02T12:14:44Z</time>
      </trkpt>
      <trkpt lat="37.54117" lon="27.62073">
        <ele>790</ele>
        <time>2020-12-02T12:14:43Z</time>
      </trkpt>
      <trkpt lat="37.54119" lon="27.62073">
        <ele>790</ele>
        <time>2020-12-02T12:14:42Z</time>
      </trkpt>
      <trkpt lat="37.54119" lon="27.62073">
        <ele>790</ele>
        <time>2020-12-02T12:14:41Z</time>
      </trkpt>
      <trkpt lat="37.54119" lon="27.62073">
        <ele>790</ele>
        <time>2020-12-02T12:14:40Z</time>
      </trkpt>
      <trkpt lat="37.54119" lon="27.62073">
        <ele>790</ele>
        <time>2020-12-02T12:14:39Z</time>
      </trkpt>
      <trkpt lat="37.54119" lon="27.62073">
        <ele>790</ele>
        <time>2020-12-02T12:14:38Z</time>
      </trkpt>
      <trkpt lat="37.54119" lon="27.62073">
        <ele>790.2</ele>
        <time>2020-12-02T12:14:37Z</time>
      </trkpt>
      <trkpt lat="37.54119" lon="27.62073">
        <ele>790.2</ele>
        <time>2020-12-02T12:14:36Z</time>
      </trkpt>
      <trkpt lat="37.54119" lon="27.62073">
        <ele>790</ele>
        <time>2020-12-02T12:14:35Z</time>
      </trkpt>
      <trkpt lat="37.54119" lon="27.62073">
        <ele>790</ele>
        <time>2020-12-02T12:14:34Z</time>
      </trkpt>
      <trkpt lat="37.54119" lon="27.62073">
        <ele>790</ele>
        <time>2020-12-02T12:14:33Z</time>
      </trkpt>
      <trkpt lat="37.54119" lon="27.62073">
        <ele>790.2</ele>
        <time>2020-12-02T12:14:32Z</time>
      </trkpt>
      <trkpt lat="37.54119" lon="27.62073">
        <ele>790.2</ele>
        <time>2020-12-02T12:14:31Z</time>
      </trkpt>
      <trkpt lat="37.54119" lon="27.62073">
        <ele>790.2</ele>
        <time>2020-12-02T12:14:30Z</time>
      </trkpt>
      <trkpt lat="37.54119" lon="27.62073">
        <ele>790.2</ele>
        <time>2020-12-02T12:14:29Z</time>
      </trkpt>
      <trkpt lat="37.54119" lon="27.62073">
        <ele>790.2</ele>
        <time>2020-12-02T12:14:28Z</time>
      </trkpt>
      <trkpt lat="37.54119" lon="27.62073">
        <ele>790.4</ele>
        <time>2020-12-02T12:14:27Z</time>
      </trkpt>
      <trkpt lat="37.54119" lon="27.62073">
        <ele>790.4</ele>
        <time>2020-12-02T12:14:26Z</time>
      </trkpt>
      <trkpt lat="37.54119" lon="27.62073">
        <ele>790.2</ele>
        <time>2020-12-02T12:14:25Z</time>
      </trkpt>
      <trkpt lat="37.54119" lon="27.62073">
        <ele>790.4</ele>
        <time>2020-12-02T12:14:24Z</time>
      </trkpt>
      <trkpt lat="37.54119" lon="27.62073">
        <ele>790.4</ele>
        <time>2020-12-02T12:14:23Z</time>
      </trkpt>
      <trkpt lat="37.54119" lon="27.62073">
        <ele>790.4</ele>
        <time>2020-12-02T12:14:22Z</time>
      </trkpt>
      <trkpt lat="37.54119" lon="27.62073">
        <ele>790.4</ele>
        <time>2020-12-02T12:14:21Z</time>
      </trkpt>
      <trkpt lat="37.54119" lon="27.62073">
        <ele>790.4</ele>
        <time>2020-12-02T12:14:20Z</time>
      </trkpt>
      <trkpt lat="37.54119" lon="27.62073">
        <ele>790.4</ele>
        <time>2020-12-02T12:14:19Z</time>
      </trkpt>
      <trkpt lat="37.54119" lon="27.62073">
        <ele>790.4</ele>
        <time>2020-12-02T12:14:18Z</time>
      </trkpt>
      <trkpt lat="37.54119" lon="27.62073">
        <ele>790.4</ele>
        <time>2020-12-02T12:14:17Z</time>
      </trkpt>
      <trkpt lat="37.54119" lon="27.62073">
        <ele>790.4</ele>
        <time>2020-12-02T12:14:16Z</time>
      </trkpt>
      <trkpt lat="37.54119" lon="27.62073">
        <ele>790.4</ele>
        <time>2020-12-02T12:14:15Z</time>
      </trkpt>
      <trkpt lat="37.54119" lon="27.62073">
        <ele>790.4</ele>
        <time>2020-12-02T12:14:14Z</time>
      </trkpt>
      <trkpt lat="37.54119" lon="27.62073">
        <ele>790.4</ele>
        <time>2020-12-02T12:14:13Z</time>
      </trkpt>
      <trkpt lat="37.54119" lon="27.62073">
        <ele>790.4</ele>
        <time>2020-12-02T12:14:12Z</time>
      </trkpt>
      <trkpt lat="37.54119" lon="27.62073">
        <ele>790.4</ele>
        <time>2020-12-02T12:14:11Z</time>
      </trkpt>
      <trkpt lat="37.54119" lon="27.62073">
        <ele>790.4</ele>
        <time>2020-12-02T12:14:10Z</time>
      </trkpt>
      <trkpt lat="37.54119" lon="27.62073">
        <ele>790.4</ele>
        <time>2020-12-02T12:14:09Z</time>
      </trkpt>
      <trkpt lat="37.54119" lon="27.62073">
        <ele>790.4</ele>
        <time>2020-12-02T12:14:08Z</time>
      </trkpt>
      <trkpt lat="37.54119" lon="27.62073">
        <ele>790.4</ele>
        <time>2020-12-02T12:14:07Z</time>
      </trkpt>
      <trkpt lat="37.54119" lon="27.62073">
        <ele>790.2</ele>
        <time>2020-12-02T12:14:06Z</time>
      </trkpt>
      <trkpt lat="37.54119" lon="27.62073">
        <ele>790.2</ele>
        <time>2020-12-02T12:14:05Z</time>
      </trkpt>
      <trkpt lat="37.54119" lon="27.62073">
        <ele>790.4</ele>
        <time>2020-12-02T12:14:04Z</time>
      </trkpt>
      <trkpt lat="37.54119" lon="27.62073">
        <ele>790.4</ele>
        <time>2020-12-02T12:14:03Z</time>
      </trkpt>
      <trkpt lat="37.54119" lon="27.62073">
        <ele>790.4</ele>
        <time>2020-12-02T12:14:02Z</time>
      </trkpt>
      <trkpt lat="37.54119" lon="27.62073">
        <ele>790.4</ele>
        <time>2020-12-02T12:14:01Z</time>
      </trkpt>
      <trkpt lat="37.54119" lon="27.62073">
        <ele>790.4</ele>
        <time>2020-12-02T12:14:00Z</time>
      </trkpt>
      <trkpt lat="37.54119" lon="27.62073">
        <ele>790.6</ele>
        <time>2020-12-02T12:13:59Z</time>
      </trkpt>
      <trkpt lat="37.54119" lon="27.62073">
        <ele>790.6</ele>
        <time>2020-12-02T12:13:58Z</time>
      </trkpt>
      <trkpt lat="37.54119" lon="27.62073">
        <ele>790.6</ele>
        <time>2020-12-02T12:13:57Z</time>
      </trkpt>
      <trkpt lat="37.54119" lon="27.62073">
        <ele>790.8</ele>
        <time>2020-12-02T12:13:56Z</time>
      </trkpt>
      <trkpt lat="37.54119" lon="27.62073">
        <ele>790.8</ele>
        <time>2020-12-02T12:13:55Z</time>
      </trkpt>
      <trkpt lat="37.54119" lon="27.62073">
        <ele>791</ele>
        <time>2020-12-02T12:13:54Z</time>
      </trkpt>
      <trkpt lat="37.54119" lon="27.62073">
        <ele>790.8</ele>
        <time>2020-12-02T12:13:53Z</time>
      </trkpt>
      <trkpt lat="37.5412" lon="27.62075">
        <ele>790.8</ele>
        <time>2020-12-02T12:13:52Z</time>
      </trkpt>
      <trkpt lat="37.5412" lon="27.62075">
        <ele>790.8</ele>
        <time>2020-12-02T12:13:51Z</time>
      </trkpt>
      <trkpt lat="37.5412" lon="27.62075">
        <ele>790.8</ele>
        <time>2020-12-02T12:13:50Z</time>
      </trkpt>
      <trkpt lat="37.5412" lon="27.62075">
        <ele>790.6</ele>
        <time>2020-12-02T12:13:49Z</time>
      </trkpt>
      <trkpt lat="37.5412" lon="27.62075">
        <ele>790.8</ele>
        <time>2020-12-02T12:13:48Z</time>
      </trkpt>
      <trkpt lat="37.5412" lon="27.62075">
        <ele>790.6</ele>
        <time>2020-12-02T12:13:47Z</time>
      </trkpt>
      <trkpt lat="37.5412" lon="27.62075">
        <ele>790.6</ele>
        <time>2020-12-02T12:13:46Z</time>
      </trkpt>
      <trkpt lat="37.5412" lon="27.62075">
        <ele>790.6</ele>
        <time>2020-12-02T12:13:45Z</time>
      </trkpt>
      <trkpt lat="37.5412" lon="27.62075">
        <ele>790.6</ele>
        <time>2020-12-02T12:13:44Z</time>
      </trkpt>
      <trkpt lat="37.5412" lon="27.62075">
        <ele>790.6</ele>
        <time>2020-12-02T12:13:43Z</time>
      </trkpt>
      <trkpt lat="37.5412" lon="27.62075">
        <ele>790.4</ele>
        <time>2020-12-02T12:13:42Z</time>
      </trkpt>
      <trkpt lat="37.5412" lon="27.62075">
        <ele>790.4</ele>
        <time>2020-12-02T12:13:41Z</time>
      </trkpt>
      <trkpt lat="37.5412" lon="27.62075">
        <ele>790.2</ele>
        <time>2020-12-02T12:13:40Z</time>
      </trkpt>
      <trkpt lat="37.5412" lon="27.62075">
        <ele>790.2</ele>
        <time>2020-12-02T12:13:39Z</time>
      </trkpt>
      <trkpt lat="37.5412" lon="27.62075">
        <ele>790.2</ele>
        <time>2020-12-02T12:13:38Z</time>
      </trkpt>
      <trkpt lat="37.5412" lon="27.62075">
        <ele>790.2</ele>
        <time>2020-12-02T12:13:37Z</time>
      </trkpt>
      <trkpt lat="37.5412" lon="27.62075">
        <ele>790</ele>
        <time>2020-12-02T12:13:36Z</time>
      </trkpt>
      <trkpt lat="37.5412" lon="27.62075">
        <ele>789.6</ele>
        <time>2020-12-02T12:13:35Z</time>
      </trkpt>
      <trkpt lat="37.5412" lon="27.62075">
        <ele>789.6</ele>
        <time>2020-12-02T12:13:34Z</time>
      </trkpt>
      <trkpt lat="37.5412" lon="27.62075">
        <ele>789.4</ele>
        <time>2020-12-02T12:13:33Z</time>
      </trkpt>
      <trkpt lat="37.5412" lon="27.62075">
        <ele>789.2</ele>
        <time>2020-12-02T12:13:32Z</time>
      </trkpt>
      <trkpt lat="37.5412" lon="27.62075">
        <ele>789.2</ele>
        <time>2020-12-02T12:13:31Z</time>
      </trkpt>
      <trkpt lat="37.5412" lon="27.62075">
        <ele>789</ele>
        <time>2020-12-02T12:13:30Z</time>
      </trkpt>
      <trkpt lat="37.5412" lon="27.62075">
        <ele>789</ele>
        <time>2020-12-02T12:13:29Z</time>
      </trkpt>
      <trkpt lat="37.5412" lon="27.62075">
        <ele>788.8</ele>
        <time>2020-12-02T12:13:28Z</time>
      </trkpt>
      <trkpt lat="37.5412" lon="27.62075">
        <ele>788.8</ele>
        <time>2020-12-02T12:13:27Z</time>
      </trkpt>
      <trkpt lat="37.5412" lon="27.62075">
        <ele>788.6</ele>
        <time>2020-12-02T12:13:26Z</time>
      </trkpt>
      <trkpt lat="37.5412" lon="27.62075">
        <ele>788.4</ele>
        <time>2020-12-02T12:13:25Z</time>
      </trkpt>
      <trkpt lat="37.54118" lon="27.62075">
        <ele>788.2</ele>
        <time>2020-12-02T12:13:24Z</time>
      </trkpt>
      <trkpt lat="37.54118" lon="27.62075">
        <ele>788.2</ele>
        <time>2020-12-02T12:13:23Z</time>
      </trkpt>
      <trkpt lat="37.54118" lon="27.62075">
        <ele>788.2</ele>
        <time>2020-12-02T12:13:22Z</time>
      </trkpt>
      <trkpt lat="37.54116" lon="27.62074">
        <ele>788</ele>
        <time>2020-12-02T12:13:21Z</time>
      </trkpt>
      <trkpt lat="37.54116" lon="27.62074">
        <ele>787.8</ele>
        <time>2020-12-02T12:13:20Z</time>
      </trkpt>
      <trkpt lat="37.54116" lon="27.62074">
        <ele>787.8</ele>
        <time>2020-12-02T12:13:19Z</time>
      </trkpt>
      <trkpt lat="37.54115" lon="27.62075">
        <ele>787.8</ele>
        <time>2020-12-02T12:13:18Z</time>
      </trkpt>
      <trkpt lat="37.54115" lon="27.62075">
        <ele>787.6</ele>
        <time>2020-12-02T12:13:17Z</time>
      </trkpt>
      <trkpt lat="37.54115" lon="27.62075">
        <ele>787.6</ele>
        <time>2020-12-02T12:13:16Z</time>
      </trkpt>
      <trkpt lat="37.54115" lon="27.62075">
        <ele>787.6</ele>
        <time>2020-12-02T12:13:15Z</time>
      </trkpt>
      <trkpt lat="37.54115" lon="27.62075">
        <ele>787.4</ele>
        <time>2020-12-02T12:13:14Z</time>
      </trkpt>
      <trkpt lat="37.54115" lon="27.62075">
        <ele>787</ele>
        <time>2020-12-02T12:13:13Z</time>
      </trkpt>
      <trkpt lat="37.54115" lon="27.62075">
        <ele>787</ele>
        <time>2020-12-02T12:13:12Z</time>
      </trkpt>
      <trkpt lat="37.54115" lon="27.62075">
        <ele>787</ele>
        <time>2020-12-02T12:13:11Z</time>
      </trkpt>
      <trkpt lat="37.54115" lon="27.62075">
        <ele>787</ele>
        <time>2020-12-02T12:13:10Z</time>
      </trkpt>
      <trkpt lat="37.54115" lon="27.62075">
        <ele>787</ele>
        <time>2020-12-02T12:13:09Z</time>
      </trkpt>
      <trkpt lat="37.54115" lon="27.62075">
        <ele>787</ele>
        <time>2020-12-02T12:13:08Z</time>
      </trkpt>
      <trkpt lat="37.54115" lon="27.62075">
        <ele>787</ele>
        <time>2020-12-02T12:13:07Z</time>
      </trkpt>
      <trkpt lat="37.54115" lon="27.62075">
        <ele>787</ele>
        <time>2020-12-02T12:13:06Z</time>
      </trkpt>
      <trkpt lat="37.54115" lon="27.62075">
        <ele>787</ele>
        <time>2020-12-02T12:13:05Z</time>
      </trkpt>
      <trkpt lat="37.54115" lon="27.62075">
        <ele>787</ele>
        <time>2020-12-02T12:13:04Z</time>
      </trkpt>
      <trkpt lat="37.54115" lon="27.62075">
        <ele>787</ele>
        <time>2020-12-02T12:13:03Z</time>
      </trkpt>
      <trkpt lat="37.54115" lon="27.62075">
        <ele>787</ele>
        <time>2020-12-02T12:13:02Z</time>
      </trkpt>
      <trkpt lat="37.54115" lon="27.62075">
        <ele>787</ele>
        <time>2020-12-02T12:13:01Z</time>
      </trkpt>
      <trkpt lat="37.54115" lon="27.62075">
        <ele>787</ele>
        <time>2020-12-02T12:13:00Z</time>
      </trkpt>
      <trkpt lat="37.54115" lon="27.62075">
        <ele>787</ele>
        <time>2020-12-02T12:12:59Z</time>
      </trkpt>
      <trkpt lat="37.54115" lon="27.62075">
        <ele>787</ele>
        <time>2020-12-02T12:12:58Z</time>
      </trkpt>
      <trkpt lat="37.54113" lon="27.62076">
        <ele>787</ele>
        <time>2020-12-02T12:12:57Z</time>
      </trkpt>
      <trkpt lat="37.54113" lon="27.62076">
        <ele>787</ele>
        <time>2020-12-02T12:12:56Z</time>
      </trkpt>
      <trkpt lat="37.54113" lon="27.62076">
        <ele>787</ele>
        <time>2020-12-02T12:12:55Z</time>
      </trkpt>
      <trkpt lat="37.54113" lon="27.62076">
        <ele>787</ele>
        <time>2020-12-02T12:12:54Z</time>
      </trkpt>
      <trkpt lat="37.54113" lon="27.62076">
        <ele>787</ele>
        <time>2020-12-02T12:12:53Z</time>
      </trkpt>
      <trkpt lat="37.54113" lon="27.62076">
        <ele>787</ele>
        <time>2020-12-02T12:12:52Z</time>
      </trkpt>
      <trkpt lat="37.54111" lon="27.62078">
        <ele>787</ele>
        <time>2020-12-02T12:12:51Z</time>
      </trkpt>
      <trkpt lat="37.54111" lon="27.62078">
        <ele>787</ele>
        <time>2020-12-02T12:12:50Z</time>
      </trkpt>
      <trkpt lat="37.54111" lon="27.62078">
        <ele>787</ele>
        <time>2020-12-02T12:12:49Z</time>
      </trkpt>
      <trkpt lat="37.54111" lon="27.62078">
        <ele>787</ele>
        <time>2020-12-02T12:12:48Z</time>
      </trkpt>
      <trkpt lat="37.54111" lon="27.62078">
        <ele>787</ele>
        <time>2020-12-02T12:12:47Z</time>
      </trkpt>
      <trkpt lat="37.54111" lon="27.62078">
        <ele>787</ele>
        <time>2020-12-02T12:12:46Z</time>
      </trkpt>
      <trkpt lat="37.54111" lon="27.62078">
        <ele>787</ele>
        <time>2020-12-02T12:12:45Z</time>
      </trkpt>
      <trkpt lat="37.54111" lon="27.62078">
        <ele>787</ele>
        <time>2020-12-02T12:12:44Z</time>
      </trkpt>
      <trkpt lat="37.54111" lon="27.62078">
        <ele>787</ele>
        <time>2020-12-02T12:12:43Z</time>
      </trkpt>
      <trkpt lat="37.54111" lon="27.62078">
        <ele>787</ele>
        <time>2020-12-02T12:12:42Z</time>
      </trkpt>
      <trkpt lat="37.54109" lon="27.62077">
        <ele>787</ele>
        <time>2020-12-02T12:12:41Z</time>
      </trkpt>
      <trkpt lat="37.54109" lon="27.62077">
        <ele>787</ele>
        <time>2020-12-02T12:12:40Z</time>
      </trkpt>
      <trkpt lat="37.54109" lon="27.62077">
        <ele>787</ele>
        <time>2020-12-02T12:12:39Z</time>
      </trkpt>
      <trkpt lat="37.54107" lon="27.62077">
        <ele>787</ele>
        <time>2020-12-02T12:12:38Z</time>
      </trkpt>
      <trkpt lat="37.54107" lon="27.62077">
        <ele>787</ele>
        <time>2020-12-02T12:12:37Z</time>
      </trkpt>
      <trkpt lat="37.54107" lon="27.62077">
        <ele>787</ele>
        <time>2020-12-02T12:12:36Z</time>
      </trkpt>
      <trkpt lat="37.54105" lon="27.62077">
        <ele>787</ele>
        <time>2020-12-02T12:12:35Z</time>
      </trkpt>
      <trkpt lat="37.54105" lon="27.62077">
        <ele>787</ele>
        <time>2020-12-02T12:12:34Z</time>
      </trkpt>
      <trkpt lat="37.54103" lon="27.62078">
        <ele>787</ele>
        <time>2020-12-02T12:12:33Z</time>
      </trkpt>
      <trkpt lat="37.54103" lon="27.62078">
        <ele>787</ele>
        <time>2020-12-02T12:12:32Z</time>
      </trkpt>
      <trkpt lat="37.54103" lon="27.62078">
        <ele>787</ele>
        <time>2020-12-02T12:12:31Z</time>
      </trkpt>
      <trkpt lat="37.541" lon="27.62078">
        <ele>787</ele>
        <time>2020-12-02T12:12:30Z</time>
      </trkpt>
      <trkpt lat="37.541" lon="27.62078">
        <ele>787.2</ele>
        <time>2020-12-02T12:12:29Z</time>
      </trkpt>
      <trkpt lat="37.541" lon="27.62078">
        <ele>787.4</ele>
        <time>2020-12-02T12:12:28Z</time>
      </trkpt>
      <trkpt lat="37.541" lon="27.62078">
        <ele>787.6</ele>
        <time>2020-12-02T12:12:27Z</time>
      </trkpt>
      <trkpt lat="37.54099" lon="27.62081">
        <ele>787.8</ele>
        <time>2020-12-02T12:12:26Z</time>
      </trkpt>
      <trkpt lat="37.54099" lon="27.62081">
        <ele>788.4</ele>
        <time>2020-12-02T12:12:25Z</time>
      </trkpt>
      <trkpt lat="37.54099" lon="27.62081">
        <ele>788.4</ele>
        <time>2020-12-02T12:12:24Z</time>
      </trkpt>
      <trkpt lat="37.54099" lon="27.62081">
        <ele>788.4</ele>
        <time>2020-12-02T12:12:23Z</time>
      </trkpt>
      <trkpt lat="37.54099" lon="27.62081">
        <ele>788.2</ele>
        <time>2020-12-02T12:12:22Z</time>
      </trkpt>
      <trkpt lat="37.54099" lon="27.62081">
        <ele>788.2</ele>
        <time>2020-12-02T12:12:21Z</time>
      </trkpt>
      <trkpt lat="37.54099" lon="27.62081">
        <ele>788</ele>
        <time>2020-12-02T12:12:20Z</time>
      </trkpt>
      <trkpt lat="37.54099" lon="27.62081">
        <ele>787.8</ele>
        <time>2020-12-02T12:12:19Z</time>
      </trkpt>
      <trkpt lat="37.54099" lon="27.62081">
        <ele>787.4</ele>
        <time>2020-12-02T12:12:18Z</time>
      </trkpt>
      <trkpt lat="37.54099" lon="27.62081">
        <ele>786.8</ele>
        <time>2020-12-02T12:12:17Z</time>
      </trkpt>
      <trkpt lat="37.54099" lon="27.62081">
        <ele>786.6</ele>
        <time>2020-12-02T12:12:16Z</time>
      </trkpt>
      <trkpt lat="37.54099" lon="27.62081">
        <ele>786.6</ele>
        <time>2020-12-02T12:12:15Z</time>
      </trkpt>
      <trkpt lat="37.54099" lon="27.62081">
        <ele>786.6</ele>
        <time>2020-12-02T12:12:14Z</time>
      </trkpt>
      <trkpt lat="37.54099" lon="27.62081">
        <ele>786.6</ele>
        <time>2020-12-02T12:12:13Z</time>
      </trkpt>
      <trkpt lat="37.54099" lon="27.62081">
        <ele>786.6</ele>
        <time>2020-12-02T12:12:12Z</time>
      </trkpt>
      <trkpt lat="37.54099" lon="27.62081">
        <ele>786.6</ele>
        <time>2020-12-02T12:12:11Z</time>
      </trkpt>
      <trkpt lat="37.54099" lon="27.62081">
        <ele>786.6</ele>
        <time>2020-12-02T12:12:10Z</time>
      </trkpt>
      <trkpt lat="37.54099" lon="27.62081">
        <ele>786.6</ele>
        <time>2020-12-02T12:12:09Z</time>
      </trkpt>
      <trkpt lat="37.54099" lon="27.62081">
        <ele>786.6</ele>
        <time>2020-12-02T12:12:08Z</time>
      </trkpt>
      <trkpt lat="37.54099" lon="27.62081">
        <ele>786.8</ele>
        <time>2020-12-02T12:12:07Z</time>
      </trkpt>
      <trkpt lat="37.54099" lon="27.62081">
        <ele>786.6</ele>
        <time>2020-12-02T12:12:06Z</time>
      </trkpt>
      <trkpt lat="37.54099" lon="27.62081">
        <ele>786.6</ele>
        <time>2020-12-02T12:12:05Z</time>
      </trkpt>
      <trkpt lat="37.54099" lon="27.62081">
        <ele>786.4</ele>
        <time>2020-12-02T12:12:04Z</time>
      </trkpt>
      <trkpt lat="37.54097" lon="27.62081">
        <ele>786.6</ele>
        <time>2020-12-02T12:12:03Z</time>
      </trkpt>
      <trkpt lat="37.54097" lon="27.62081">
        <ele>786.4</ele>
        <time>2020-12-02T12:12:02Z</time>
      </trkpt>
      <trkpt lat="37.54097" lon="27.62081">
        <ele>786.4</ele>
        <time>2020-12-02T12:12:01Z</time>
      </trkpt>
      <trkpt lat="37.54097" lon="27.62081">
        <ele>786.2</ele>
        <time>2020-12-02T12:12:00Z</time>
      </trkpt>
      <trkpt lat="37.54096" lon="27.62079">
        <ele>786.2</ele>
        <time>2020-12-02T12:11:59Z</time>
      </trkpt>
      <trkpt lat="37.54096" lon="27.62079">
        <ele>786</ele>
        <time>2020-12-02T12:11:58Z</time>
      </trkpt>
      <trkpt lat="37.54096" lon="27.62079">
        <ele>785.8</ele>
        <time>2020-12-02T12:11:57Z</time>
      </trkpt>
      <trkpt lat="37.54094" lon="27.62078">
        <ele>785.8</ele>
        <time>2020-12-02T12:11:56Z</time>
      </trkpt>
      <trkpt lat="37.54094" lon="27.62078">
        <ele>785.8</ele>
        <time>2020-12-02T12:11:55Z</time>
      </trkpt>
      <trkpt lat="37.54094" lon="27.62078">
        <ele>785.6</ele>
        <time>2020-12-02T12:11:54Z</time>
      </trkpt>
      <trkpt lat="37.54094" lon="27.62078">
        <ele>785.4</ele>
        <time>2020-12-02T12:11:53Z</time>
      </trkpt>
      <trkpt lat="37.54094" lon="27.62078">
        <ele>785.4</ele>
        <time>2020-12-02T12:11:52Z</time>
      </trkpt>
      <trkpt lat="37.54092" lon="27.62077">
        <ele>785.6</ele>
        <time>2020-12-02T12:11:51Z</time>
      </trkpt>
      <trkpt lat="37.54092" lon="27.62077">
        <ele>785.6</ele>
        <time>2020-12-02T12:11:50Z</time>
      </trkpt>
      <trkpt lat="37.54092" lon="27.62077">
        <ele>785.8</ele>
        <time>2020-12-02T12:11:49Z</time>
      </trkpt>
      <trkpt lat="37.54092" lon="27.62079">
        <ele>785.8</ele>
        <time>2020-12-02T12:11:48Z</time>
      </trkpt>
      <trkpt lat="37.54092" lon="27.62079">
        <ele>785.6</ele>
        <time>2020-12-02T12:11:47Z</time>
      </trkpt>
      <trkpt lat="37.54092" lon="27.62079">
        <ele>785.6</ele>
        <time>2020-12-02T12:11:46Z</time>
      </trkpt>
      <trkpt lat="37.54092" lon="27.62079">
        <ele>785.8</ele>
        <time>2020-12-02T12:11:45Z</time>
      </trkpt>
      <trkpt lat="37.54092" lon="27.62079">
        <ele>785.8</ele>
        <time>2020-12-02T12:11:44Z</time>
      </trkpt>
      <trkpt lat="37.54092" lon="27.62079">
        <ele>785.8</ele>
        <time>2020-12-02T12:11:43Z</time>
      </trkpt>
      <trkpt lat="37.54092" lon="27.62079">
        <ele>785.8</ele>
        <time>2020-12-02T12:11:42Z</time>
      </trkpt>
      <trkpt lat="37.54092" lon="27.62079">
        <ele>785.8</ele>
        <time>2020-12-02T12:11:41Z</time>
      </trkpt>
      <trkpt lat="37.54091" lon="27.62078">
        <ele>785.8</ele>
        <time>2020-12-02T12:11:40Z</time>
      </trkpt>
      <trkpt lat="37.54091" lon="27.62078">
        <ele>785.8</ele>
        <time>2020-12-02T12:11:39Z</time>
      </trkpt>
      <trkpt lat="37.54091" lon="27.62078">
        <ele>785.8</ele>
        <time>2020-12-02T12:11:38Z</time>
      </trkpt>
      <trkpt lat="37.54091" lon="27.62078">
        <ele>785.8</ele>
        <time>2020-12-02T12:11:37Z</time>
      </trkpt>
      <trkpt lat="37.54091" lon="27.62078">
        <ele>785.8</ele>
        <time>2020-12-02T12:11:36Z</time>
      </trkpt>
      <trkpt lat="37.54091" lon="27.62078">
        <ele>786</ele>
        <time>2020-12-02T12:11:35Z</time>
      </trkpt>
      <trkpt lat="37.54091" lon="27.62078">
        <ele>786</ele>
        <time>2020-12-02T12:11:34Z</time>
      </trkpt>
      <trkpt lat="37.54091" lon="27.62078">
        <ele>786</ele>
        <time>2020-12-02T12:11:33Z</time>
      </trkpt>
      <trkpt lat="37.54091" lon="27.62078">
        <ele>786</ele>
        <time>2020-12-02T12:11:32Z</time>
      </trkpt>
      <trkpt lat="37.54091" lon="27.62078">
        <ele>786</ele>
        <time>2020-12-02T12:11:31Z</time>
      </trkpt>
      <trkpt lat="37.54089" lon="27.62076">
        <ele>785.8</ele>
        <time>2020-12-02T12:11:30Z</time>
      </trkpt>
      <trkpt lat="37.54089" lon="27.62076">
        <ele>785.6</ele>
        <time>2020-12-02T12:11:29Z</time>
      </trkpt>
      <trkpt lat="37.54089" lon="27.62076">
        <ele>785.6</ele>
        <time>2020-12-02T12:11:28Z</time>
      </trkpt>
      <trkpt lat="37.54089" lon="27.62076">
        <ele>785.6</ele>
        <time>2020-12-02T12:11:27Z</time>
      </trkpt>
      <trkpt lat="37.54089" lon="27.62076">
        <ele>785.6</ele>
        <time>2020-12-02T12:11:26Z</time>
      </trkpt>
      <trkpt lat="37.54089" lon="27.62076">
        <ele>785.6</ele>
        <time>2020-12-02T12:11:25Z</time>
      </trkpt>
      <trkpt lat="37.54089" lon="27.62076">
        <ele>785.6</ele>
        <time>2020-12-02T12:11:24Z</time>
      </trkpt>
      <trkpt lat="37.54089" lon="27.62076">
        <ele>785.6</ele>
        <time>2020-12-02T12:11:23Z</time>
      </trkpt>
      <trkpt lat="37.54088" lon="27.62074">
        <ele>785.6</ele>
        <time>2020-12-02T12:11:22Z</time>
      </trkpt>
      <trkpt lat="37.54088" lon="27.62074">
        <ele>785.6</ele>
        <time>2020-12-02T12:11:21Z</time>
      </trkpt>
      <trkpt lat="37.54088" lon="27.62074">
        <ele>785.6</ele>
        <time>2020-12-02T12:11:20Z</time>
      </trkpt>
      <trkpt lat="37.54088" lon="27.62074">
        <ele>785.6</ele>
        <time>2020-12-02T12:11:19Z</time>
      </trkpt>
      <trkpt lat="37.54088" lon="27.62074">
        <ele>785.6</ele>
        <time>2020-12-02T12:11:18Z</time>
      </trkpt>
      <trkpt lat="37.54088" lon="27.62074">
        <ele>785.8</ele>
        <time>2020-12-02T12:11:17Z</time>
      </trkpt>
      <trkpt lat="37.54088" lon="27.62074">
        <ele>786</ele>
        <time>2020-12-02T12:11:16Z</time>
      </trkpt>
      <trkpt lat="37.54088" lon="27.62074">
        <ele>785.8</ele>
        <time>2020-12-02T12:11:15Z</time>
      </trkpt>
      <trkpt lat="37.54088" lon="27.62074">
        <ele>786</ele>
        <time>2020-12-02T12:11:14Z</time>
      </trkpt>
      <trkpt lat="37.54088" lon="27.62074">
        <ele>786</ele>
        <time>2020-12-02T12:11:13Z</time>
      </trkpt>
      <trkpt lat="37.54088" lon="27.62074">
        <ele>785.8</ele>
        <time>2020-12-02T12:11:12Z</time>
      </trkpt>
      <trkpt lat="37.54087" lon="27.62076">
        <ele>785.8</ele>
        <time>2020-12-02T12:11:11Z</time>
      </trkpt>
      <trkpt lat="37.54087" lon="27.62076">
        <ele>786</ele>
        <time>2020-12-02T12:11:10Z</time>
      </trkpt>
      <trkpt lat="37.54087" lon="27.62076">
        <ele>786</ele>
        <time>2020-12-02T12:11:09Z</time>
      </trkpt>
      <trkpt lat="37.54087" lon="27.62076">
        <ele>786.2</ele>
        <time>2020-12-02T12:11:08Z</time>
      </trkpt>
      <trkpt lat="37.54087" lon="27.62076">
        <ele>786.2</ele>
        <time>2020-12-02T12:11:07Z</time>
      </trkpt>
      <trkpt lat="37.54087" lon="27.62076">
        <ele>786.2</ele>
        <time>2020-12-02T12:11:06Z</time>
      </trkpt>
      <trkpt lat="37.54087" lon="27.62076">
        <ele>786.2</ele>
        <time>2020-12-02T12:11:05Z</time>
      </trkpt>
      <trkpt lat="37.54087" lon="27.62076">
        <ele>786.4</ele>
        <time>2020-12-02T12:11:04Z</time>
      </trkpt>
      <trkpt lat="37.54087" lon="27.62076">
        <ele>786.4</ele>
        <time>2020-12-02T12:11:03Z</time>
      </trkpt>
      <trkpt lat="37.54087" lon="27.62076">
        <ele>786.4</ele>
        <time>2020-12-02T12:11:02Z</time>
      </trkpt>
      <trkpt lat="37.54087" lon="27.62076">
        <ele>786.4</ele>
        <time>2020-12-02T12:11:01Z</time>
      </trkpt>
      <trkpt lat="37.54087" lon="27.62076">
        <ele>786.2</ele>
        <time>2020-12-02T12:11:00Z</time>
      </trkpt>
      <trkpt lat="37.54087" lon="27.62076">
        <ele>786.2</ele>
        <time>2020-12-02T12:10:59Z</time>
      </trkpt>
      <trkpt lat="37.54087" lon="27.62076">
        <ele>786.2</ele>
        <time>2020-12-02T12:10:58Z</time>
      </trkpt>
      <trkpt lat="37.54087" lon="27.62076">
        <ele>786.2</ele>
        <time>2020-12-02T12:10:57Z</time>
      </trkpt>
      <trkpt lat="37.54087" lon="27.62076">
        <ele>786.2</ele>
        <time>2020-12-02T12:10:56Z</time>
      </trkpt>
      <trkpt lat="37.54087" lon="27.62076">
        <ele>786</ele>
        <time>2020-12-02T12:10:55Z</time>
      </trkpt>
      <trkpt lat="37.54087" lon="27.62076">
        <ele>786</ele>
        <time>2020-12-02T12:10:54Z</time>
      </trkpt>
      <trkpt lat="37.54087" lon="27.62076">
        <ele>785.8</ele>
        <time>2020-12-02T12:10:53Z</time>
      </trkpt>
      <trkpt lat="37.54087" lon="27.62076">
        <ele>786</ele>
        <time>2020-12-02T12:10:52Z</time>
      </trkpt>
      <trkpt lat="37.54087" lon="27.62076">
        <ele>786.2</ele>
        <time>2020-12-02T12:10:51Z</time>
      </trkpt>
      <trkpt lat="37.54087" lon="27.62076">
        <ele>786.4</ele>
        <time>2020-12-02T12:10:50Z</time>
      </trkpt>
      <trkpt lat="37.54087" lon="27.62076">
        <ele>786.4</ele>
        <time>2020-12-02T12:10:49Z</time>
      </trkpt>
      <trkpt lat="37.54087" lon="27.62076">
        <ele>786.4</ele>
        <time>2020-12-02T12:10:48Z</time>
      </trkpt>
      <trkpt lat="37.54087" lon="27.62076">
        <ele>786.4</ele>
        <time>2020-12-02T12:10:47Z</time>
      </trkpt>
      <trkpt lat="37.54087" lon="27.62076">
        <ele>786.4</ele>
        <time>2020-12-02T12:10:46Z</time>
      </trkpt>
      <trkpt lat="37.54087" lon="27.62076">
        <ele>786.4</ele>
        <time>2020-12-02T12:10:45Z</time>
      </trkpt>
      <trkpt lat="37.54087" lon="27.62076">
        <ele>786.6</ele>
        <time>2020-12-02T12:10:44Z</time>
      </trkpt>
      <trkpt lat="37.54087" lon="27.62076">
        <ele>786.4</ele>
        <time>2020-12-02T12:10:43Z</time>
      </trkpt>
      <trkpt lat="37.54087" lon="27.62076">
        <ele>786.4</ele>
        <time>2020-12-02T12:10:42Z</time>
      </trkpt>
      <trkpt lat="37.54087" lon="27.62076">
        <ele>786.2</ele>
        <time>2020-12-02T12:10:41Z</time>
      </trkpt>
      <trkpt lat="37.54087" lon="27.62076">
        <ele>786.2</ele>
        <time>2020-12-02T12:10:40Z</time>
      </trkpt>
      <trkpt lat="37.54087" lon="27.62076">
        <ele>786.4</ele>
        <time>2020-12-02T12:10:39Z</time>
      </trkpt>
      <trkpt lat="37.54087" lon="27.62076">
        <ele>786.4</ele>
        <time>2020-12-02T12:10:38Z</time>
      </trkpt>
      <trkpt lat="37.54087" lon="27.62076">
        <ele>786.2</ele>
        <time>2020-12-02T12:10:37Z</time>
      </trkpt>
      <trkpt lat="37.54087" lon="27.62076">
        <ele>786.2</ele>
        <time>2020-12-02T12:10:36Z</time>
      </trkpt>
      <trkpt lat="37.54087" lon="27.62076">
        <ele>786</ele>
        <time>2020-12-02T12:10:35Z</time>
      </trkpt>
      <trkpt lat="37.54087" lon="27.62076">
        <ele>786</ele>
        <time>2020-12-02T12:10:34Z</time>
      </trkpt>
      <trkpt lat="37.54087" lon="27.62076">
        <ele>786</ele>
        <time>2020-12-02T12:10:33Z</time>
      </trkpt>
      <trkpt lat="37.54087" lon="27.62076">
        <ele>786</ele>
        <time>2020-12-02T12:10:32Z</time>
      </trkpt>
      <trkpt lat="37.54087" lon="27.62076">
        <ele>785.8</ele>
        <time>2020-12-02T12:10:31Z</time>
      </trkpt>
      <trkpt lat="37.54087" lon="27.62076">
        <ele>785.8</ele>
        <time>2020-12-02T12:10:30Z</time>
      </trkpt>
      <trkpt lat="37.54089" lon="27.62076">
        <ele>785.6</ele>
        <time>2020-12-02T12:10:29Z</time>
      </trkpt>
      <trkpt lat="37.54089" lon="27.62076">
        <ele>785.2</ele>
        <time>2020-12-02T12:10:28Z</time>
      </trkpt>
      <trkpt lat="37.54091" lon="27.62077">
        <ele>785.2</ele>
        <time>2020-12-02T12:10:27Z</time>
      </trkpt>
      <trkpt lat="37.54091" lon="27.62077">
        <ele>785.2</ele>
        <time>2020-12-02T12:10:26Z</time>
      </trkpt>
      <trkpt lat="37.54091" lon="27.62077">
        <ele>785.2</ele>
        <time>2020-12-02T12:10:25Z</time>
      </trkpt>
      <trkpt lat="37.54091" lon="27.62077">
        <ele>785.2</ele>
        <time>2020-12-02T12:10:24Z</time>
      </trkpt>
      <trkpt lat="37.54091" lon="27.62077">
        <ele>785.2</ele>
        <time>2020-12-02T12:10:23Z</time>
      </trkpt>
      <trkpt lat="37.54091" lon="27.62077">
        <ele>785</ele>
        <time>2020-12-02T12:10:22Z</time>
      </trkpt>
      <trkpt lat="37.54091" lon="27.62077">
        <ele>785.2</ele>
        <time>2020-12-02T12:10:21Z</time>
      </trkpt>
      <trkpt lat="37.54091" lon="27.62077">
        <ele>785.2</ele>
        <time>2020-12-02T12:10:20Z</time>
      </trkpt>
      <trkpt lat="37.54091" lon="27.62077">
        <ele>785.2</ele>
        <time>2020-12-02T12:10:19Z</time>
      </trkpt>
      <trkpt lat="37.54091" lon="27.62077">
        <ele>785.4</ele>
        <time>2020-12-02T12:10:18Z</time>
      </trkpt>
      <trkpt lat="37.54091" lon="27.62077">
        <ele>785.4</ele>
        <time>2020-12-02T12:10:17Z</time>
      </trkpt>
      <trkpt lat="37.54089" lon="27.62077">
        <ele>785.6</ele>
        <time>2020-12-02T12:10:16Z</time>
      </trkpt>
      <trkpt lat="37.54089" lon="27.62077">
        <ele>785.6</ele>
        <time>2020-12-02T12:10:15Z</time>
      </trkpt>
      <trkpt lat="37.54089" lon="27.62077">
        <ele>785.8</ele>
        <time>2020-12-02T12:10:14Z</time>
      </trkpt>
      <trkpt lat="37.54089" lon="27.62077">
        <ele>785.6</ele>
        <time>2020-12-02T12:10:13Z</time>
      </trkpt>
      <trkpt lat="37.54087" lon="27.62077">
        <ele>785.6</ele>
        <time>2020-12-02T12:10:12Z</time>
      </trkpt>
      <trkpt lat="37.54087" lon="27.62077">
        <ele>785.4</ele>
        <time>2020-12-02T12:10:11Z</time>
      </trkpt>
      <trkpt lat="37.54087" lon="27.62077">
        <ele>785.4</ele>
        <time>2020-12-02T12:10:10Z</time>
      </trkpt>
      <trkpt lat="37.54089" lon="27.62078">
        <ele>785.4</ele>
        <time>2020-12-02T12:10:09Z</time>
      </trkpt>
      <trkpt lat="37.54089" lon="27.62078">
        <ele>785.4</ele>
        <time>2020-12-02T12:10:08Z</time>
      </trkpt>
      <trkpt lat="37.54089" lon="27.62078">
        <ele>785.4</ele>
        <time>2020-12-02T12:10:07Z</time>
      </trkpt>
      <trkpt lat="37.54091" lon="27.62079">
        <ele>785.6</ele>
        <time>2020-12-02T12:10:06Z</time>
      </trkpt>
      <trkpt lat="37.54091" lon="27.62079">
        <ele>785.2</ele>
        <time>2020-12-02T12:10:05Z</time>
      </trkpt>
      <trkpt lat="37.54091" lon="27.62079">
        <ele>785</ele>
        <time>2020-12-02T12:10:04Z</time>
      </trkpt>
      <trkpt lat="37.54091" lon="27.62079">
        <ele>784.8</ele>
        <time>2020-12-02T12:10:03Z</time>
      </trkpt>
      <trkpt lat="37.54091" lon="27.62079">
        <ele>784.8</ele>
        <time>2020-12-02T12:10:02Z</time>
      </trkpt>
      <trkpt lat="37.54091" lon="27.62079">
        <ele>784.8</ele>
        <time>2020-12-02T12:10:01Z</time>
      </trkpt>
      <trkpt lat="37.54091" lon="27.62079">
        <ele>784.6</ele>
        <time>2020-12-02T12:10:00Z</time>
      </trkpt>
      <trkpt lat="37.54091" lon="27.62079">
        <ele>784.4</ele>
        <time>2020-12-02T12:09:59Z</time>
      </trkpt>
      <trkpt lat="37.54092" lon="27.62082">
        <ele>784.2</ele>
        <time>2020-12-02T12:09:58Z</time>
      </trkpt>
      <trkpt lat="37.54092" lon="27.62082">
        <ele>784</ele>
        <time>2020-12-02T12:09:57Z</time>
      </trkpt>
      <trkpt lat="37.54092" lon="27.62082">
        <ele>784</ele>
        <time>2020-12-02T12:09:56Z</time>
      </trkpt>
      <trkpt lat="37.54092" lon="27.62082">
        <ele>783.8</ele>
        <time>2020-12-02T12:09:55Z</time>
      </trkpt>
      <trkpt lat="37.54091" lon="27.62085">
        <ele>783.8</ele>
        <time>2020-12-02T12:09:54Z</time>
      </trkpt>
      <trkpt lat="37.54091" lon="27.62085">
        <ele>783.6</ele>
        <time>2020-12-02T12:09:53Z</time>
      </trkpt>
      <trkpt lat="37.54091" lon="27.62085">
        <ele>783.6</ele>
        <time>2020-12-02T12:09:52Z</time>
      </trkpt>
      <trkpt lat="37.54091" lon="27.62087">
        <ele>783.6</ele>
        <time>2020-12-02T12:09:51Z</time>
      </trkpt>
      <trkpt lat="37.54091" lon="27.62087">
        <ele>783.6</ele>
        <time>2020-12-02T12:09:50Z</time>
      </trkpt>
      <trkpt lat="37.54091" lon="27.62087">
        <ele>783.6</ele>
        <time>2020-12-02T12:09:49Z</time>
      </trkpt>
      <trkpt lat="37.54091" lon="27.62087">
        <ele>783.6</ele>
        <time>2020-12-02T12:09:48Z</time>
      </trkpt>
      <trkpt lat="37.54091" lon="27.62087">
        <ele>783.6</ele>
        <time>2020-12-02T12:09:47Z</time>
      </trkpt>
      <trkpt lat="37.54092" lon="27.6209">
        <ele>783.6</ele>
        <time>2020-12-02T12:09:46Z</time>
      </trkpt>
      <trkpt lat="37.54092" lon="27.6209">
        <ele>783.6</ele>
        <time>2020-12-02T12:09:45Z</time>
      </trkpt>
      <trkpt lat="37.54092" lon="27.6209">
        <ele>783.8</ele>
        <time>2020-12-02T12:09:44Z</time>
      </trkpt>
      <trkpt lat="37.54092" lon="27.6209">
        <ele>783.6</ele>
        <time>2020-12-02T12:09:43Z</time>
      </trkpt>
      <trkpt lat="37.54092" lon="27.62092">
        <ele>783.8</ele>
        <time>2020-12-02T12:09:42Z</time>
      </trkpt>
      <trkpt lat="37.54092" lon="27.62092">
        <ele>783.6</ele>
        <time>2020-12-02T12:09:41Z</time>
      </trkpt>
      <trkpt lat="37.54092" lon="27.62092">
        <ele>783.6</ele>
        <time>2020-12-02T12:09:40Z</time>
      </trkpt>
      <trkpt lat="37.54092" lon="27.62095">
        <ele>783.8</ele>
        <time>2020-12-02T12:09:39Z</time>
      </trkpt>
      <trkpt lat="37.54092" lon="27.62095">
        <ele>783.8</ele>
        <time>2020-12-02T12:09:38Z</time>
      </trkpt>
      <trkpt lat="37.54092" lon="27.62095">
        <ele>783.8</ele>
        <time>2020-12-02T12:09:37Z</time>
      </trkpt>
      <trkpt lat="37.54092" lon="27.62095">
        <ele>784</ele>
        <time>2020-12-02T12:09:36Z</time>
      </trkpt>
      <trkpt lat="37.54092" lon="27.62095">
        <ele>784</ele>
        <time>2020-12-02T12:09:35Z</time>
      </trkpt>
      <trkpt lat="37.54092" lon="27.62098">
        <ele>784</ele>
        <time>2020-12-02T12:09:34Z</time>
      </trkpt>
      <trkpt lat="37.54092" lon="27.62098">
        <ele>784</ele>
        <time>2020-12-02T12:09:33Z</time>
      </trkpt>
      <trkpt lat="37.54092" lon="27.62098">
        <ele>784</ele>
        <time>2020-12-02T12:09:32Z</time>
      </trkpt>
      <trkpt lat="37.54092" lon="27.62101">
        <ele>783.8</ele>
        <time>2020-12-02T12:09:31Z</time>
      </trkpt>
      <trkpt lat="37.54092" lon="27.62101">
        <ele>783.8</ele>
        <time>2020-12-02T12:09:30Z</time>
      </trkpt>
      <trkpt lat="37.54092" lon="27.62101">
        <ele>783.6</ele>
        <time>2020-12-02T12:09:29Z</time>
      </trkpt>
      <trkpt lat="37.54092" lon="27.62101">
        <ele>783.6</ele>
        <time>2020-12-02T12:09:28Z</time>
      </trkpt>
      <trkpt lat="37.54091" lon="27.62103">
        <ele>783.4</ele>
        <time>2020-12-02T12:09:27Z</time>
      </trkpt>
      <trkpt lat="37.54091" lon="27.62103">
        <ele>783.2</ele>
        <time>2020-12-02T12:09:26Z</time>
      </trkpt>
      <trkpt lat="37.54091" lon="27.62103">
        <ele>783.2</ele>
        <time>2020-12-02T12:09:25Z</time>
      </trkpt>
      <trkpt lat="37.54091" lon="27.62103">
        <ele>783</ele>
        <time>2020-12-02T12:09:24Z</time>
      </trkpt>
      <trkpt lat="37.54089" lon="27.62103">
        <ele>782.8</ele>
        <time>2020-12-02T12:09:23Z</time>
      </trkpt>
      <trkpt lat="37.54089" lon="27.62103">
        <ele>782.8</ele>
        <time>2020-12-02T12:09:22Z</time>
      </trkpt>
      <trkpt lat="37.54089" lon="27.62103">
        <ele>782.8</ele>
        <time>2020-12-02T12:09:21Z</time>
      </trkpt>
      <trkpt lat="37.54087" lon="27.62101">
        <ele>782.8</ele>
        <time>2020-12-02T12:09:20Z</time>
      </trkpt>
      <trkpt lat="37.54087" lon="27.62101">
        <ele>782.6</ele>
        <time>2020-12-02T12:09:19Z</time>
      </trkpt>
      <trkpt lat="37.54087" lon="27.62101">
        <ele>782.2</ele>
        <time>2020-12-02T12:09:18Z</time>
      </trkpt>
      <trkpt lat="37.54087" lon="27.62101">
        <ele>782</ele>
        <time>2020-12-02T12:09:17Z</time>
      </trkpt>
      <trkpt lat="37.54085" lon="27.62102">
        <ele>782</ele>
        <time>2020-12-02T12:09:16Z</time>
      </trkpt>
      <trkpt lat="37.54085" lon="27.62102">
        <ele>781.8</ele>
        <time>2020-12-02T12:09:15Z</time>
      </trkpt>
      <trkpt lat="37.54085" lon="27.62102">
        <ele>781.6</ele>
        <time>2020-12-02T12:09:14Z</time>
      </trkpt>
      <trkpt lat="37.54085" lon="27.62102">
        <ele>781.4</ele>
        <time>2020-12-02T12:09:13Z</time>
      </trkpt>
      <trkpt lat="37.54085" lon="27.62102">
        <ele>781.2</ele>
        <time>2020-12-02T12:09:12Z</time>
      </trkpt>
      <trkpt lat="37.54084" lon="27.62104">
        <ele>781.2</ele>
        <time>2020-12-02T12:09:11Z</time>
      </trkpt>
      <trkpt lat="37.54084" lon="27.62104">
        <ele>781</ele>
        <time>2020-12-02T12:09:10Z</time>
      </trkpt>
      <trkpt lat="37.54084" lon="27.62104">
        <ele>781</ele>
        <time>2020-12-02T12:09:09Z</time>
      </trkpt>
      <trkpt lat="37.54084" lon="27.62104">
        <ele>781</ele>
        <time>2020-12-02T12:09:08Z</time>
      </trkpt>
      <trkpt lat="37.54082" lon="27.62106">
        <ele>780.8</ele>
        <time>2020-12-02T12:09:07Z</time>
      </trkpt>
      <trkpt lat="37.54082" lon="27.62106">
        <ele>780.6</ele>
        <time>2020-12-02T12:09:06Z</time>
      </trkpt>
      <trkpt lat="37.54082" lon="27.62106">
        <ele>780.6</ele>
        <time>2020-12-02T12:09:05Z</time>
      </trkpt>
      <trkpt lat="37.54082" lon="27.62106">
        <ele>780.6</ele>
        <time>2020-12-02T12:09:04Z</time>
      </trkpt>
      <trkpt lat="37.54082" lon="27.62108">
        <ele>780.6</ele>
        <time>2020-12-02T12:09:03Z</time>
      </trkpt>
      <trkpt lat="37.54082" lon="27.62108">
        <ele>780.4</ele>
        <time>2020-12-02T12:09:02Z</time>
      </trkpt>
      <trkpt lat="37.54082" lon="27.62108">
        <ele>780.4</ele>
        <time>2020-12-02T12:09:01Z</time>
      </trkpt>
      <trkpt lat="37.54082" lon="27.62111">
        <ele>780.4</ele>
        <time>2020-12-02T12:09:00Z</time>
      </trkpt>
      <trkpt lat="37.54082" lon="27.62111">
        <ele>780.4</ele>
        <time>2020-12-02T12:08:59Z</time>
      </trkpt>
      <trkpt lat="37.54082" lon="27.62111">
        <ele>780.2</ele>
        <time>2020-12-02T12:08:58Z</time>
      </trkpt>
      <trkpt lat="37.54083" lon="27.62114">
        <ele>780.4</ele>
        <time>2020-12-02T12:08:57Z</time>
      </trkpt>
      <trkpt lat="37.54083" lon="27.62114">
        <ele>780.4</ele>
        <time>2020-12-02T12:08:56Z</time>
      </trkpt>
      <trkpt lat="37.54083" lon="27.62114">
        <ele>780.2</ele>
        <time>2020-12-02T12:08:55Z</time>
      </trkpt>
      <trkpt lat="37.54083" lon="27.62117">
        <ele>780.2</ele>
        <time>2020-12-02T12:08:54Z</time>
      </trkpt>
      <trkpt lat="37.54083" lon="27.62117">
        <ele>780</ele>
        <time>2020-12-02T12:08:53Z</time>
      </trkpt>
      <trkpt lat="37.54083" lon="27.62117">
        <ele>780</ele>
        <time>2020-12-02T12:08:52Z</time>
      </trkpt>
      <trkpt lat="37.54083" lon="27.62117">
        <ele>780</ele>
        <time>2020-12-02T12:08:51Z</time>
      </trkpt>
      <trkpt lat="37.54083" lon="27.6212">
        <ele>779.8</ele>
        <time>2020-12-02T12:08:50Z</time>
      </trkpt>
      <trkpt lat="37.54083" lon="27.6212">
        <ele>779.6</ele>
        <time>2020-12-02T12:08:49Z</time>
      </trkpt>
      <trkpt lat="37.54083" lon="27.6212">
        <ele>779.6</ele>
        <time>2020-12-02T12:08:48Z</time>
      </trkpt>
      <trkpt lat="37.54082" lon="27.62122">
        <ele>779.4</ele>
        <time>2020-12-02T12:08:47Z</time>
      </trkpt>
      <trkpt lat="37.54082" lon="27.62122">
        <ele>779.4</ele>
        <time>2020-12-02T12:08:46Z</time>
      </trkpt>
      <trkpt lat="37.54082" lon="27.62122">
        <ele>779.2</ele>
        <time>2020-12-02T12:08:45Z</time>
      </trkpt>
      <trkpt lat="37.54081" lon="27.62125">
        <ele>779</ele>
        <time>2020-12-02T12:08:44Z</time>
      </trkpt>
      <trkpt lat="37.54081" lon="27.62125">
        <ele>778.8</ele>
        <time>2020-12-02T12:08:43Z</time>
      </trkpt>
      <trkpt lat="37.54081" lon="27.62125">
        <ele>778.6</ele>
        <time>2020-12-02T12:08:42Z</time>
      </trkpt>
      <trkpt lat="37.54081" lon="27.62125">
        <ele>778.6</ele>
        <time>2020-12-02T12:08:41Z</time>
      </trkpt>
      <trkpt lat="37.54079" lon="27.62127">
        <ele>778.6</ele>
        <time>2020-12-02T12:08:40Z</time>
      </trkpt>
      <trkpt lat="37.54079" lon="27.62127">
        <ele>778.4</ele>
        <time>2020-12-02T12:08:39Z</time>
      </trkpt>
      <trkpt lat="37.54079" lon="27.62127">
        <ele>778.4</ele>
        <time>2020-12-02T12:08:38Z</time>
      </trkpt>
      <trkpt lat="37.54078" lon="27.62128">
        <ele>778.2</ele>
        <time>2020-12-02T12:08:37Z</time>
      </trkpt>
      <trkpt lat="37.54078" lon="27.62128">
        <ele>778</ele>
        <time>2020-12-02T12:08:36Z</time>
      </trkpt>
      <trkpt lat="37.54078" lon="27.62128">
        <ele>777.8</ele>
        <time>2020-12-02T12:08:35Z</time>
      </trkpt>
      <trkpt lat="37.54076" lon="27.6213">
        <ele>777.8</ele>
        <time>2020-12-02T12:08:34Z</time>
      </trkpt>
      <trkpt lat="37.54076" lon="27.6213">
        <ele>777.8</ele>
        <time>2020-12-02T12:08:33Z</time>
      </trkpt>
      <trkpt lat="37.54076" lon="27.6213">
        <ele>777.6</ele>
        <time>2020-12-02T12:08:32Z</time>
      </trkpt>
      <trkpt lat="37.54076" lon="27.6213">
        <ele>777.4</ele>
        <time>2020-12-02T12:08:31Z</time>
      </trkpt>
      <trkpt lat="37.54077" lon="27.62133">
        <ele>777.2</ele>
        <time>2020-12-02T12:08:30Z</time>
      </trkpt>
      <trkpt lat="37.54077" lon="27.62133">
        <ele>777.2</ele>
        <time>2020-12-02T12:08:29Z</time>
      </trkpt>
      <trkpt lat="37.54077" lon="27.62133">
        <ele>777.2</ele>
        <time>2020-12-02T12:08:28Z</time>
      </trkpt>
      <trkpt lat="37.54076" lon="27.62135">
        <ele>777</ele>
        <time>2020-12-02T12:08:27Z</time>
      </trkpt>
      <trkpt lat="37.54076" lon="27.62135">
        <ele>777</ele>
        <time>2020-12-02T12:08:26Z</time>
      </trkpt>
      <trkpt lat="37.54076" lon="27.62135">
        <ele>777</ele>
        <time>2020-12-02T12:08:25Z</time>
      </trkpt>
      <trkpt lat="37.54076" lon="27.62138">
        <ele>777</ele>
        <time>2020-12-02T12:08:24Z</time>
      </trkpt>
      <trkpt lat="37.54076" lon="27.62138">
        <ele>776.6</ele>
        <time>2020-12-02T12:08:23Z</time>
      </trkpt>
      <trkpt lat="37.54076" lon="27.62138">
        <ele>776.8</ele>
        <time>2020-12-02T12:08:22Z</time>
      </trkpt>
      <trkpt lat="37.54076" lon="27.62138">
        <ele>776.6</ele>
        <time>2020-12-02T12:08:21Z</time>
      </trkpt>
      <trkpt lat="37.54077" lon="27.6214">
        <ele>776.6</ele>
        <time>2020-12-02T12:08:20Z</time>
      </trkpt>
      <trkpt lat="37.54077" lon="27.6214">
        <ele>776.4</ele>
        <time>2020-12-02T12:08:19Z</time>
      </trkpt>
      <trkpt lat="37.54077" lon="27.6214">
        <ele>776.2</ele>
        <time>2020-12-02T12:08:18Z</time>
      </trkpt>
      <trkpt lat="37.54078" lon="27.62143">
        <ele>776.2</ele>
        <time>2020-12-02T12:08:17Z</time>
      </trkpt>
      <trkpt lat="37.54078" lon="27.62143">
        <ele>776.2</ele>
        <time>2020-12-02T12:08:16Z</time>
      </trkpt>
      <trkpt lat="37.54078" lon="27.62143">
        <ele>776.2</ele>
        <time>2020-12-02T12:08:15Z</time>
      </trkpt>
      <trkpt lat="37.5408" lon="27.62145">
        <ele>776</ele>
        <time>2020-12-02T12:08:14Z</time>
      </trkpt>
      <trkpt lat="37.5408" lon="27.62145">
        <ele>776</ele>
        <time>2020-12-02T12:08:13Z</time>
      </trkpt>
      <trkpt lat="37.5408" lon="27.62145">
        <ele>776</ele>
        <time>2020-12-02T12:08:12Z</time>
      </trkpt>
      <trkpt lat="37.54082" lon="27.62146">
        <ele>775.8</ele>
        <time>2020-12-02T12:08:11Z</time>
      </trkpt>
      <trkpt lat="37.54082" lon="27.62146">
        <ele>775.8</ele>
        <time>2020-12-02T12:08:10Z</time>
      </trkpt>
      <trkpt lat="37.54082" lon="27.62146">
        <ele>776</ele>
        <time>2020-12-02T12:08:09Z</time>
      </trkpt>
      <trkpt lat="37.54084" lon="27.62147">
        <ele>775.8</ele>
        <time>2020-12-02T12:08:08Z</time>
      </trkpt>
      <trkpt lat="37.54084" lon="27.62147">
        <ele>775.8</ele>
        <time>2020-12-02T12:08:07Z</time>
      </trkpt>
      <trkpt lat="37.54084" lon="27.62147">
        <ele>775.6</ele>
        <time>2020-12-02T12:08:06Z</time>
      </trkpt>
      <trkpt lat="37.54086" lon="27.62149">
        <ele>775.4</ele>
        <time>2020-12-02T12:08:05Z</time>
      </trkpt>
      <trkpt lat="37.54086" lon="27.62149">
        <ele>775.4</ele>
        <time>2020-12-02T12:08:04Z</time>
      </trkpt>
      <trkpt lat="37.54086" lon="27.62149">
        <ele>775.2</ele>
        <time>2020-12-02T12:08:03Z</time>
      </trkpt>
      <trkpt lat="37.54087" lon="27.62151">
        <ele>775.2</ele>
        <time>2020-12-02T12:08:02Z</time>
      </trkpt>
      <trkpt lat="37.54087" lon="27.62151">
        <ele>775</ele>
        <time>2020-12-02T12:08:01Z</time>
      </trkpt>
      <trkpt lat="37.54087" lon="27.62151">
        <ele>774.8</ele>
        <time>2020-12-02T12:08:00Z</time>
      </trkpt>
      <trkpt lat="37.54087" lon="27.62154">
        <ele>774.6</ele>
        <time>2020-12-02T12:07:59Z</time>
      </trkpt>
      <trkpt lat="37.54087" lon="27.62154">
        <ele>774.6</ele>
        <time>2020-12-02T12:07:58Z</time>
      </trkpt>
      <trkpt lat="37.54087" lon="27.62154">
        <ele>774.4</ele>
        <time>2020-12-02T12:07:57Z</time>
      </trkpt>
      <trkpt lat="37.54088" lon="27.62156">
        <ele>774.2</ele>
        <time>2020-12-02T12:07:56Z</time>
      </trkpt>
      <trkpt lat="37.54088" lon="27.62156">
        <ele>774</ele>
        <time>2020-12-02T12:07:55Z</time>
      </trkpt>
      <trkpt lat="37.54088" lon="27.62156">
        <ele>773.8</ele>
        <time>2020-12-02T12:07:54Z</time>
      </trkpt>
      <trkpt lat="37.54088" lon="27.62159">
        <ele>773.6</ele>
        <time>2020-12-02T12:07:53Z</time>
      </trkpt>
      <trkpt lat="37.54088" lon="27.62159">
        <ele>773.6</ele>
        <time>2020-12-02T12:07:52Z</time>
      </trkpt>
      <trkpt lat="37.54088" lon="27.62159">
        <ele>773.4</ele>
        <time>2020-12-02T12:07:51Z</time>
      </trkpt>
      <trkpt lat="37.54088" lon="27.62159">
        <ele>773.4</ele>
        <time>2020-12-02T12:07:50Z</time>
      </trkpt>
      <trkpt lat="37.54088" lon="27.62161">
        <ele>773.2</ele>
        <time>2020-12-02T12:07:49Z</time>
      </trkpt>
      <trkpt lat="37.54088" lon="27.62161">
        <ele>773.2</ele>
        <time>2020-12-02T12:07:48Z</time>
      </trkpt>
      <trkpt lat="37.54088" lon="27.62161">
        <ele>773.4</ele>
        <time>2020-12-02T12:07:47Z</time>
      </trkpt>
      <trkpt lat="37.5409" lon="27.62163">
        <ele>773.4</ele>
        <time>2020-12-02T12:07:46Z</time>
      </trkpt>
      <trkpt lat="37.5409" lon="27.62163">
        <ele>773.2</ele>
        <time>2020-12-02T12:07:45Z</time>
      </trkpt>
      <trkpt lat="37.54091" lon="27.62164">
        <ele>773.2</ele>
        <time>2020-12-02T12:07:44Z</time>
      </trkpt>
      <trkpt lat="37.54091" lon="27.62164">
        <ele>773.2</ele>
        <time>2020-12-02T12:07:43Z</time>
      </trkpt>
      <trkpt lat="37.54094" lon="27.62166">
        <ele>773.2</ele>
        <time>2020-12-02T12:07:42Z</time>
      </trkpt>
      <trkpt lat="37.54094" lon="27.62166">
        <ele>773.2</ele>
        <time>2020-12-02T12:07:41Z</time>
      </trkpt>
      <trkpt lat="37.54094" lon="27.62166">
        <ele>773.2</ele>
        <time>2020-12-02T12:07:40Z</time>
      </trkpt>
      <trkpt lat="37.54096" lon="27.62167">
        <ele>773</ele>
        <time>2020-12-02T12:07:39Z</time>
      </trkpt>
      <trkpt lat="37.54096" lon="27.62167">
        <ele>772.8</ele>
        <time>2020-12-02T12:07:38Z</time>
      </trkpt>
      <trkpt lat="37.54097" lon="27.62168">
        <ele>772.6</ele>
        <time>2020-12-02T12:07:37Z</time>
      </trkpt>
      <trkpt lat="37.54097" lon="27.62168">
        <ele>772.2</ele>
        <time>2020-12-02T12:07:36Z</time>
      </trkpt>
      <trkpt lat="37.54097" lon="27.62168">
        <ele>771.8</ele>
        <time>2020-12-02T12:07:35Z</time>
      </trkpt>
      <trkpt lat="37.54099" lon="27.62169">
        <ele>772</ele>
        <time>2020-12-02T12:07:34Z</time>
      </trkpt>
      <trkpt lat="37.54099" lon="27.62169">
        <ele>772.2</ele>
        <time>2020-12-02T12:07:33Z</time>
      </trkpt>
      <trkpt lat="37.54099" lon="27.62169">
        <ele>772.2</ele>
        <time>2020-12-02T12:07:32Z</time>
      </trkpt>
      <trkpt lat="37.54099" lon="27.62169">
        <ele>772.4</ele>
        <time>2020-12-02T12:07:31Z</time>
      </trkpt>
      <trkpt lat="37.54099" lon="27.62169">
        <ele>772.6</ele>
        <time>2020-12-02T12:07:30Z</time>
      </trkpt>
      <trkpt lat="37.54099" lon="27.62169">
        <ele>773</ele>
        <time>2020-12-02T12:07:29Z</time>
      </trkpt>
      <trkpt lat="37.54099" lon="27.62169">
        <ele>773.4</ele>
        <time>2020-12-02T12:07:28Z</time>
      </trkpt>
      <trkpt lat="37.54099" lon="27.62169">
        <ele>773.4</ele>
        <time>2020-12-02T12:07:27Z</time>
      </trkpt>
      <trkpt lat="37.54099" lon="27.62169">
        <ele>773.6</ele>
        <time>2020-12-02T12:07:26Z</time>
      </trkpt>
      <trkpt lat="37.54099" lon="27.62169">
        <ele>773.6</ele>
        <time>2020-12-02T12:07:25Z</time>
      </trkpt>
      <trkpt lat="37.54101" lon="27.6217">
        <ele>773.6</ele>
        <time>2020-12-02T12:07:24Z</time>
      </trkpt>
      <trkpt lat="37.54101" lon="27.6217">
        <ele>773.4</ele>
        <time>2020-12-02T12:07:23Z</time>
      </trkpt>
      <trkpt lat="37.54103" lon="27.62171">
        <ele>773.2</ele>
        <time>2020-12-02T12:07:22Z</time>
      </trkpt>
      <trkpt lat="37.54103" lon="27.62171">
        <ele>773.2</ele>
        <time>2020-12-02T12:07:21Z</time>
      </trkpt>
      <trkpt lat="37.54106" lon="27.62171">
        <ele>773.4</ele>
        <time>2020-12-02T12:07:20Z</time>
      </trkpt>
      <trkpt lat="37.54106" lon="27.62171">
        <ele>773.6</ele>
        <time>2020-12-02T12:07:19Z</time>
      </trkpt>
      <trkpt lat="37.54106" lon="27.62171">
        <ele>773.6</ele>
        <time>2020-12-02T12:07:18Z</time>
      </trkpt>
      <trkpt lat="37.54108" lon="27.62171">
        <ele>773.6</ele>
        <time>2020-12-02T12:07:17Z</time>
      </trkpt>
      <trkpt lat="37.54108" lon="27.62171">
        <ele>773.4</ele>
        <time>2020-12-02T12:07:16Z</time>
      </trkpt>
      <trkpt lat="37.5411" lon="27.62172">
        <ele>773.2</ele>
        <time>2020-12-02T12:07:15Z</time>
      </trkpt>
      <trkpt lat="37.5411" lon="27.62172">
        <ele>773</ele>
        <time>2020-12-02T12:07:14Z</time>
      </trkpt>
      <trkpt lat="37.54111" lon="27.62174">
        <ele>773</ele>
        <time>2020-12-02T12:07:13Z</time>
      </trkpt>
      <trkpt lat="37.54111" lon="27.62174">
        <ele>773</ele>
        <time>2020-12-02T12:07:12Z</time>
      </trkpt>
      <trkpt lat="37.54113" lon="27.62176">
        <ele>772.6</ele>
        <time>2020-12-02T12:07:11Z</time>
      </trkpt>
      <trkpt lat="37.54113" lon="27.62176">
        <ele>772.6</ele>
        <time>2020-12-02T12:07:10Z</time>
      </trkpt>
      <trkpt lat="37.54114" lon="27.62176">
        <ele>772.4</ele>
        <time>2020-12-02T12:07:09Z</time>
      </trkpt>
      <trkpt lat="37.54114" lon="27.62176">
        <ele>772</ele>
        <time>2020-12-02T12:07:08Z</time>
      </trkpt>
      <trkpt lat="37.54115" lon="27.62176">
        <ele>771.8</ele>
        <time>2020-12-02T12:07:07Z</time>
      </trkpt>
      <trkpt lat="37.54115" lon="27.62176">
        <ele>771.6</ele>
        <time>2020-12-02T12:07:06Z</time>
      </trkpt>
      <trkpt lat="37.54116" lon="27.62176">
        <ele>771.6</ele>
        <time>2020-12-02T12:07:05Z</time>
      </trkpt>
      <trkpt lat="37.54116" lon="27.62176">
        <ele>771.4</ele>
        <time>2020-12-02T12:07:04Z</time>
      </trkpt>
      <trkpt lat="37.54116" lon="27.62176">
        <ele>771.4</ele>
        <time>2020-12-02T12:07:03Z</time>
      </trkpt>
      <trkpt lat="37.54117" lon="27.62176">
        <ele>771.2</ele>
        <time>2020-12-02T12:07:02Z</time>
      </trkpt>
      <trkpt lat="37.54117" lon="27.62176">
        <ele>771.2</ele>
        <time>2020-12-02T12:07:01Z</time>
      </trkpt>
      <trkpt lat="37.54118" lon="27.62176">
        <ele>771</ele>
        <time>2020-12-02T12:07:00Z</time>
      </trkpt>
      <trkpt lat="37.54118" lon="27.62176">
        <ele>770.6</ele>
        <time>2020-12-02T12:06:59Z</time>
      </trkpt>
      <trkpt lat="37.54119" lon="27.62177">
        <ele>770.4</ele>
        <time>2020-12-02T12:06:58Z</time>
      </trkpt>
      <trkpt lat="37.54119" lon="27.62177">
        <ele>770.2</ele>
        <time>2020-12-02T12:06:57Z</time>
      </trkpt>
      <trkpt lat="37.5412" lon="27.62177">
        <ele>770</ele>
        <time>2020-12-02T12:06:56Z</time>
      </trkpt>
      <trkpt lat="37.54121" lon="27.62178">
        <ele>770</ele>
        <time>2020-12-02T12:06:55Z</time>
      </trkpt>
      <trkpt lat="37.54121" lon="27.62178">
        <ele>770</ele>
        <time>2020-12-02T12:06:54Z</time>
      </trkpt>
      <trkpt lat="37.54122" lon="27.62178">
        <ele>769.8</ele>
        <time>2020-12-02T12:06:53Z</time>
      </trkpt>
      <trkpt lat="37.54123" lon="27.62179">
        <ele>769.6</ele>
        <time>2020-12-02T12:06:52Z</time>
      </trkpt>
      <trkpt lat="37.54123" lon="27.62179">
        <ele>769.6</ele>
        <time>2020-12-02T12:06:51Z</time>
      </trkpt>
      <trkpt lat="37.54124" lon="27.6218">
        <ele>769.4</ele>
        <time>2020-12-02T12:06:50Z</time>
      </trkpt>
      <trkpt lat="37.54125" lon="27.6218">
        <ele>769.2</ele>
        <time>2020-12-02T12:06:49Z</time>
      </trkpt>
      <trkpt lat="37.54125" lon="27.6218">
        <ele>769</ele>
        <time>2020-12-02T12:06:48Z</time>
      </trkpt>
      <trkpt lat="37.54126" lon="27.62181">
        <ele>768.8</ele>
        <time>2020-12-02T12:06:47Z</time>
      </trkpt>
      <trkpt lat="37.54127" lon="27.62181">
        <ele>768.8</ele>
        <time>2020-12-02T12:06:46Z</time>
      </trkpt>
      <trkpt lat="37.54127" lon="27.62181">
        <ele>768.6</ele>
        <time>2020-12-02T12:06:45Z</time>
      </trkpt>
      <trkpt lat="37.54128" lon="27.62182">
        <ele>768.6</ele>
        <time>2020-12-02T12:06:44Z</time>
      </trkpt>
      <trkpt lat="37.54128" lon="27.62182">
        <ele>768.6</ele>
        <time>2020-12-02T12:06:43Z</time>
      </trkpt>
      <trkpt lat="37.54129" lon="27.62182">
        <ele>768.6</ele>
        <time>2020-12-02T12:06:42Z</time>
      </trkpt>
      <trkpt lat="37.54129" lon="27.62182">
        <ele>768.4</ele>
        <time>2020-12-02T12:06:41Z</time>
      </trkpt>
      <trkpt lat="37.5413" lon="27.62182">
        <ele>768.4</ele>
        <time>2020-12-02T12:06:40Z</time>
      </trkpt>
      <trkpt lat="37.5413" lon="27.62183">
        <ele>768.2</ele>
        <time>2020-12-02T12:06:39Z</time>
      </trkpt>
      <trkpt lat="37.54131" lon="27.62183">
        <ele>768</ele>
        <time>2020-12-02T12:06:38Z</time>
      </trkpt>
      <trkpt lat="37.54131" lon="27.62183">
        <ele>768</ele>
        <time>2020-12-02T12:06:37Z</time>
      </trkpt>
      <trkpt lat="37.54132" lon="27.62183">
        <ele>767.8</ele>
        <time>2020-12-02T12:06:36Z</time>
      </trkpt>
      <trkpt lat="37.54132" lon="27.62183">
        <ele>767.8</ele>
        <time>2020-12-02T12:06:35Z</time>
      </trkpt>
      <trkpt lat="37.54133" lon="27.62184">
        <ele>767.6</ele>
        <time>2020-12-02T12:06:34Z</time>
      </trkpt>
      <trkpt lat="37.54134" lon="27.62184">
        <ele>767.6</ele>
        <time>2020-12-02T12:06:33Z</time>
      </trkpt>
      <trkpt lat="37.54134" lon="27.62184">
        <ele>767.6</ele>
        <time>2020-12-02T12:06:32Z</time>
      </trkpt>
      <trkpt lat="37.54135" lon="27.62184">
        <ele>767.8</ele>
        <time>2020-12-02T12:06:31Z</time>
      </trkpt>
      <trkpt lat="37.54135" lon="27.62184">
        <ele>767.8</ele>
        <time>2020-12-02T12:06:30Z</time>
      </trkpt>
      <trkpt lat="37.54136" lon="27.62184">
        <ele>767.6</ele>
        <time>2020-12-02T12:06:29Z</time>
      </trkpt>
      <trkpt lat="37.54136" lon="27.62185">
        <ele>767.6</ele>
        <time>2020-12-02T12:06:28Z</time>
      </trkpt>
      <trkpt lat="37.54136" lon="27.62185">
        <ele>767.6</ele>
        <time>2020-12-02T12:06:27Z</time>
      </trkpt>
      <trkpt lat="37.54136" lon="27.62182">
        <ele>767.6</ele>
        <time>2020-12-02T12:06:26Z</time>
      </trkpt>
      <trkpt lat="37.54136" lon="27.62182">
        <ele>767.6</ele>
        <time>2020-12-02T12:06:25Z</time>
      </trkpt>
      <trkpt lat="37.54136" lon="27.62182">
        <ele>767.6</ele>
        <time>2020-12-02T12:06:24Z</time>
      </trkpt>
      <trkpt lat="37.54136" lon="27.62182">
        <ele>767.6</ele>
        <time>2020-12-02T12:06:23Z</time>
      </trkpt>
      <trkpt lat="37.54136" lon="27.62182">
        <ele>767.6</ele>
        <time>2020-12-02T12:06:22Z</time>
      </trkpt>
      <trkpt lat="37.54136" lon="27.62182">
        <ele>767.8</ele>
        <time>2020-12-02T12:06:21Z</time>
      </trkpt>
      <trkpt lat="37.54136" lon="27.62182">
        <ele>768</ele>
        <time>2020-12-02T12:06:20Z</time>
      </trkpt>
      <trkpt lat="37.54138" lon="27.62181">
        <ele>767.8</ele>
        <time>2020-12-02T12:06:19Z</time>
      </trkpt>
      <trkpt lat="37.54138" lon="27.62181">
        <ele>767.8</ele>
        <time>2020-12-02T12:06:18Z</time>
      </trkpt>
      <trkpt lat="37.54138" lon="27.62181">
        <ele>767.8</ele>
        <time>2020-12-02T12:06:17Z</time>
      </trkpt>
      <trkpt lat="37.54138" lon="27.62181">
        <ele>767.6</ele>
        <time>2020-12-02T12:06:16Z</time>
      </trkpt>
      <trkpt lat="37.54138" lon="27.62181">
        <ele>767.6</ele>
        <time>2020-12-02T12:06:15Z</time>
      </trkpt>
      <trkpt lat="37.54138" lon="27.62181">
        <ele>767.8</ele>
        <time>2020-12-02T12:06:14Z</time>
      </trkpt>
      <trkpt lat="37.54138" lon="27.62181">
        <ele>767.8</ele>
        <time>2020-12-02T12:06:13Z</time>
      </trkpt>
      <trkpt lat="37.54138" lon="27.62181">
        <ele>767.8</ele>
        <time>2020-12-02T12:06:12Z</time>
      </trkpt>
      <trkpt lat="37.54138" lon="27.62181">
        <ele>767.8</ele>
        <time>2020-12-02T12:06:11Z</time>
      </trkpt>
      <trkpt lat="37.54138" lon="27.62181">
        <ele>767.8</ele>
        <time>2020-12-02T12:06:10Z</time>
      </trkpt>
      <trkpt lat="37.54138" lon="27.62181">
        <ele>767.8</ele>
        <time>2020-12-02T12:06:09Z</time>
      </trkpt>
      <trkpt lat="37.54138" lon="27.62181">
        <ele>767.8</ele>
        <time>2020-12-02T12:06:08Z</time>
      </trkpt>
      <trkpt lat="37.54138" lon="27.62181">
        <ele>767.8</ele>
        <time>2020-12-02T12:06:07Z</time>
      </trkpt>
      <trkpt lat="37.54138" lon="27.62181">
        <ele>767.8</ele>
        <time>2020-12-02T12:06:06Z</time>
      </trkpt>
      <trkpt lat="37.54138" lon="27.62181">
        <ele>767.8</ele>
        <time>2020-12-02T12:06:05Z</time>
      </trkpt>
      <trkpt lat="37.54138" lon="27.62181">
        <ele>767.8</ele>
        <time>2020-12-02T12:06:04Z</time>
      </trkpt>
      <trkpt lat="37.54138" lon="27.62181">
        <ele>767.6</ele>
        <time>2020-12-02T12:06:03Z</time>
      </trkpt>
      <trkpt lat="37.54138" lon="27.62181">
        <ele>767.8</ele>
        <time>2020-12-02T12:06:02Z</time>
      </trkpt>
      <trkpt lat="37.54138" lon="27.62181">
        <ele>767.8</ele>
        <time>2020-12-02T12:06:01Z</time>
      </trkpt>
      <trkpt lat="37.54138" lon="27.62181">
        <ele>767.8</ele>
        <time>2020-12-02T12:06:00Z</time>
      </trkpt>
      <trkpt lat="37.54138" lon="27.62181">
        <ele>767.8</ele>
        <time>2020-12-02T12:05:59Z</time>
      </trkpt>
      <trkpt lat="37.54138" lon="27.62181">
        <ele>768</ele>
        <time>2020-12-02T12:05:58Z</time>
      </trkpt>
      <trkpt lat="37.5414" lon="27.62182">
        <ele>768</ele>
        <time>2020-12-02T12:05:57Z</time>
      </trkpt>
      <trkpt lat="37.5414" lon="27.62182">
        <ele>767.8</ele>
        <time>2020-12-02T12:05:56Z</time>
      </trkpt>
      <trkpt lat="37.5414" lon="27.62182">
        <ele>767.6</ele>
        <time>2020-12-02T12:05:55Z</time>
      </trkpt>
      <trkpt lat="37.54142" lon="27.62184">
        <ele>767.4</ele>
        <time>2020-12-02T12:05:54Z</time>
      </trkpt>
      <trkpt lat="37.54142" lon="27.62184">
        <ele>767.4</ele>
        <time>2020-12-02T12:05:53Z</time>
      </trkpt>
      <trkpt lat="37.54142" lon="27.62184">
        <ele>767.2</ele>
        <time>2020-12-02T12:05:52Z</time>
      </trkpt>
      <trkpt lat="37.54144" lon="27.62185">
        <ele>767</ele>
        <time>2020-12-02T12:05:51Z</time>
      </trkpt>
      <trkpt lat="37.54144" lon="27.62185">
        <ele>767</ele>
        <time>2020-12-02T12:05:50Z</time>
      </trkpt>
      <trkpt lat="37.54144" lon="27.62185">
        <ele>767</ele>
        <time>2020-12-02T12:05:49Z</time>
      </trkpt>
      <trkpt lat="37.54146" lon="27.62186">
        <ele>766.6</ele>
        <time>2020-12-02T12:05:48Z</time>
      </trkpt>
      <trkpt lat="37.54146" lon="27.62186">
        <ele>766.6</ele>
        <time>2020-12-02T12:05:47Z</time>
      </trkpt>
      <trkpt lat="37.54148" lon="27.62187">
        <ele>766.4</ele>
        <time>2020-12-02T12:05:46Z</time>
      </trkpt>
      <trkpt lat="37.54148" lon="27.62187">
        <ele>766.4</ele>
        <time>2020-12-02T12:05:45Z</time>
      </trkpt>
      <trkpt lat="37.54148" lon="27.62187">
        <ele>766.2</ele>
        <time>2020-12-02T12:05:44Z</time>
      </trkpt>
      <trkpt lat="37.5415" lon="27.62187">
        <ele>766</ele>
        <time>2020-12-02T12:05:43Z</time>
      </trkpt>
      <trkpt lat="37.5415" lon="27.62187">
        <ele>765.8</ele>
        <time>2020-12-02T12:05:42Z</time>
      </trkpt>
      <trkpt lat="37.54152" lon="27.62187">
        <ele>765.8</ele>
        <time>2020-12-02T12:05:41Z</time>
      </trkpt>
      <trkpt lat="37.54152" lon="27.62187">
        <ele>766</ele>
        <time>2020-12-02T12:05:40Z</time>
      </trkpt>
      <trkpt lat="37.54152" lon="27.62187">
        <ele>766</ele>
        <time>2020-12-02T12:05:39Z</time>
      </trkpt>
      <trkpt lat="37.54152" lon="27.62187">
        <ele>766</ele>
        <time>2020-12-02T12:05:38Z</time>
      </trkpt>
      <trkpt lat="37.54153" lon="27.62189">
        <ele>766</ele>
        <time>2020-12-02T12:05:37Z</time>
      </trkpt>
      <trkpt lat="37.54153" lon="27.62189">
        <ele>766</ele>
        <time>2020-12-02T12:05:36Z</time>
      </trkpt>
      <trkpt lat="37.54153" lon="27.62189">
        <ele>765.8</ele>
        <time>2020-12-02T12:05:35Z</time>
      </trkpt>
      <trkpt lat="37.54155" lon="27.6219">
        <ele>765.6</ele>
        <time>2020-12-02T12:05:34Z</time>
      </trkpt>
      <trkpt lat="37.54155" lon="27.6219">
        <ele>765.4</ele>
        <time>2020-12-02T12:05:33Z</time>
      </trkpt>
      <trkpt lat="37.54157" lon="27.62192">
        <ele>765.4</ele>
        <time>2020-12-02T12:05:32Z</time>
      </trkpt>
      <trkpt lat="37.54157" lon="27.62192">
        <ele>765.2</ele>
        <time>2020-12-02T12:05:31Z</time>
      </trkpt>
      <trkpt lat="37.54157" lon="27.62192">
        <ele>765.4</ele>
        <time>2020-12-02T12:05:30Z</time>
      </trkpt>
      <trkpt lat="37.54159" lon="27.62194">
        <ele>765.2</ele>
        <time>2020-12-02T12:05:29Z</time>
      </trkpt>
      <trkpt lat="37.54159" lon="27.62194">
        <ele>765.2</ele>
        <time>2020-12-02T12:05:28Z</time>
      </trkpt>
      <trkpt lat="37.54159" lon="27.62194">
        <ele>765.4</ele>
        <time>2020-12-02T12:05:27Z</time>
      </trkpt>
      <trkpt lat="37.54159" lon="27.62194">
        <ele>765.2</ele>
        <time>2020-12-02T12:05:26Z</time>
      </trkpt>
      <trkpt lat="37.54161" lon="27.62195">
        <ele>765</ele>
        <time>2020-12-02T12:05:25Z</time>
      </trkpt>
      <trkpt lat="37.54161" lon="27.62195">
        <ele>765</ele>
        <time>2020-12-02T12:05:24Z</time>
      </trkpt>
      <trkpt lat="37.54161" lon="27.62195">
        <ele>765</ele>
        <time>2020-12-02T12:05:23Z</time>
      </trkpt>
      <trkpt lat="37.54161" lon="27.62195">
        <ele>765</ele>
        <time>2020-12-02T12:05:22Z</time>
      </trkpt>
      <trkpt lat="37.54161" lon="27.62195">
        <ele>764.8</ele>
        <time>2020-12-02T12:05:21Z</time>
      </trkpt>
      <trkpt lat="37.54161" lon="27.62195">
        <ele>764.6</ele>
        <time>2020-12-02T12:05:20Z</time>
      </trkpt>
      <trkpt lat="37.54161" lon="27.62195">
        <ele>764.4</ele>
        <time>2020-12-02T12:05:19Z</time>
      </trkpt>
      <trkpt lat="37.54161" lon="27.62196">
        <ele>764</ele>
        <time>2020-12-02T12:05:18Z</time>
      </trkpt>
      <trkpt lat="37.54161" lon="27.62196">
        <ele>764</ele>
        <time>2020-12-02T12:05:17Z</time>
      </trkpt>
      <trkpt lat="37.54162" lon="27.62196">
        <ele>764</ele>
        <time>2020-12-02T12:05:16Z</time>
      </trkpt>
      <trkpt lat="37.54162" lon="27.62196">
        <ele>763.8</ele>
        <time>2020-12-02T12:05:15Z</time>
      </trkpt>
      <trkpt lat="37.54162" lon="27.62196">
        <ele>763.6</ele>
        <time>2020-12-02T12:05:14Z</time>
      </trkpt>
      <trkpt lat="37.54162" lon="27.62196">
        <ele>763.6</ele>
        <time>2020-12-02T12:05:13Z</time>
      </trkpt>
      <trkpt lat="37.54163" lon="27.62196">
        <ele>763.6</ele>
        <time>2020-12-02T12:05:12Z</time>
      </trkpt>
      <trkpt lat="37.54163" lon="27.62197">
        <ele>763.6</ele>
        <time>2020-12-02T12:05:11Z</time>
      </trkpt>
      <trkpt lat="37.54163" lon="27.62197">
        <ele>763.6</ele>
        <time>2020-12-02T12:05:10Z</time>
      </trkpt>
      <trkpt lat="37.54163" lon="27.62197">
        <ele>763.6</ele>
        <time>2020-12-02T12:05:09Z</time>
      </trkpt>
      <trkpt lat="37.54164" lon="27.62197">
        <ele>763.6</ele>
        <time>2020-12-02T12:05:08Z</time>
      </trkpt>
      <trkpt lat="37.54164" lon="27.62197">
        <ele>763.6</ele>
        <time>2020-12-02T12:05:07Z</time>
      </trkpt>
      <trkpt lat="37.54164" lon="27.62197">
        <ele>763.6</ele>
        <time>2020-12-02T12:05:06Z</time>
      </trkpt>
      <trkpt lat="37.54164" lon="27.62197">
        <ele>763.6</ele>
        <time>2020-12-02T12:05:05Z</time>
      </trkpt>
      <trkpt lat="37.54164" lon="27.62198">
        <ele>763.6</ele>
        <time>2020-12-02T12:05:04Z</time>
      </trkpt>
      <trkpt lat="37.54165" lon="27.62198">
        <ele>763.2</ele>
        <time>2020-12-02T12:05:03Z</time>
      </trkpt>
      <trkpt lat="37.54165" lon="27.62198">
        <ele>763.2</ele>
        <time>2020-12-02T12:05:02Z</time>
      </trkpt>
      <trkpt lat="37.54165" lon="27.62198">
        <ele>763</ele>
        <time>2020-12-02T12:05:01Z</time>
      </trkpt>
      <trkpt lat="37.54165" lon="27.62198">
        <ele>762.8</ele>
        <time>2020-12-02T12:05:00Z</time>
      </trkpt>
      <trkpt lat="37.54165" lon="27.62198">
        <ele>762.6</ele>
        <time>2020-12-02T12:04:59Z</time>
      </trkpt>
      <trkpt lat="37.54168" lon="27.622">
        <ele>762.4</ele>
        <time>2020-12-02T12:04:58Z</time>
      </trkpt>
      <trkpt lat="37.54168" lon="27.622">
        <ele>762.2</ele>
        <time>2020-12-02T12:04:57Z</time>
      </trkpt>
      <trkpt lat="37.54168" lon="27.622">
        <ele>762</ele>
        <time>2020-12-02T12:04:56Z</time>
      </trkpt>
      <trkpt lat="37.54168" lon="27.622">
        <ele>762</ele>
        <time>2020-12-02T12:04:55Z</time>
      </trkpt>
      <trkpt lat="37.54168" lon="27.62201">
        <ele>762</ele>
        <time>2020-12-02T12:04:54Z</time>
      </trkpt>
      <trkpt lat="37.54169" lon="27.62201">
        <ele>762</ele>
        <time>2020-12-02T12:04:53Z</time>
      </trkpt>
      <trkpt lat="37.54169" lon="27.62201">
        <ele>761.8</ele>
        <time>2020-12-02T12:04:52Z</time>
      </trkpt>
      <trkpt lat="37.5417" lon="27.62201">
        <ele>761.8</ele>
        <time>2020-12-02T12:04:51Z</time>
      </trkpt>
      <trkpt lat="37.5417" lon="27.62202">
        <ele>762</ele>
        <time>2020-12-02T12:04:50Z</time>
      </trkpt>
      <trkpt lat="37.54171" lon="27.62202">
        <ele>761.8</ele>
        <time>2020-12-02T12:04:49Z</time>
      </trkpt>
      <trkpt lat="37.54171" lon="27.62202">
        <ele>761.8</ele>
        <time>2020-12-02T12:04:48Z</time>
      </trkpt>
      <trkpt lat="37.54171" lon="27.62202">
        <ele>761.8</ele>
        <time>2020-12-02T12:04:47Z</time>
      </trkpt>
      <trkpt lat="37.54172" lon="27.62202">
        <ele>761.6</ele>
        <time>2020-12-02T12:04:46Z</time>
      </trkpt>
      <trkpt lat="37.54172" lon="27.62202">
        <ele>761.2</ele>
        <time>2020-12-02T12:04:45Z</time>
      </trkpt>
      <trkpt lat="37.54172" lon="27.62202">
        <ele>761.2</ele>
        <time>2020-12-02T12:04:44Z</time>
      </trkpt>
      <trkpt lat="37.54172" lon="27.62202">
        <ele>761.2</ele>
        <time>2020-12-02T12:04:43Z</time>
      </trkpt>
      <trkpt lat="37.54173" lon="27.62202">
        <ele>760.8</ele>
        <time>2020-12-02T12:04:42Z</time>
      </trkpt>
      <trkpt lat="37.54173" lon="27.62202">
        <ele>760.6</ele>
        <time>2020-12-02T12:04:41Z</time>
      </trkpt>
      <trkpt lat="37.54173" lon="27.62202">
        <ele>760.4</ele>
        <time>2020-12-02T12:04:40Z</time>
      </trkpt>
      <trkpt lat="37.54173" lon="27.62202">
        <ele>760.4</ele>
        <time>2020-12-02T12:04:39Z</time>
      </trkpt>
      <trkpt lat="37.54174" lon="27.62202">
        <ele>760.4</ele>
        <time>2020-12-02T12:04:38Z</time>
      </trkpt>
      <trkpt lat="37.54174" lon="27.62202">
        <ele>760.2</ele>
        <time>2020-12-02T12:04:37Z</time>
      </trkpt>
      <trkpt lat="37.54174" lon="27.62202">
        <ele>760.2</ele>
        <time>2020-12-02T12:04:36Z</time>
      </trkpt>
      <trkpt lat="37.54174" lon="27.62202">
        <ele>760.4</ele>
        <time>2020-12-02T12:04:35Z</time>
      </trkpt>
      <trkpt lat="37.54175" lon="27.62202">
        <ele>760.4</ele>
        <time>2020-12-02T12:04:34Z</time>
      </trkpt>
      <trkpt lat="37.54175" lon="27.62202">
        <ele>760.4</ele>
        <time>2020-12-02T12:04:33Z</time>
      </trkpt>
      <trkpt lat="37.54175" lon="27.62202">
        <ele>760.4</ele>
        <time>2020-12-02T12:04:32Z</time>
      </trkpt>
      <trkpt lat="37.54175" lon="27.62202">
        <ele>760.4</ele>
        <time>2020-12-02T12:04:31Z</time>
      </trkpt>
      <trkpt lat="37.54176" lon="27.62202">
        <ele>760.4</ele>
        <time>2020-12-02T12:04:30Z</time>
      </trkpt>
      <trkpt lat="37.54176" lon="27.62202">
        <ele>760.4</ele>
        <time>2020-12-02T12:04:29Z</time>
      </trkpt>
      <trkpt lat="37.54176" lon="27.62202">
        <ele>760.4</ele>
        <time>2020-12-02T12:04:28Z</time>
      </trkpt>
      <trkpt lat="37.54176" lon="27.62202">
        <ele>760.4</ele>
        <time>2020-12-02T12:04:27Z</time>
      </trkpt>
      <trkpt lat="37.54177" lon="27.62202">
        <ele>760.4</ele>
        <time>2020-12-02T12:04:26Z</time>
      </trkpt>
      <trkpt lat="37.54177" lon="27.62202">
        <ele>760.6</ele>
        <time>2020-12-02T12:04:25Z</time>
      </trkpt>
      <trkpt lat="37.54177" lon="27.62202">
        <ele>760.4</ele>
        <time>2020-12-02T12:04:24Z</time>
      </trkpt>
      <trkpt lat="37.54177" lon="27.62202">
        <ele>760.4</ele>
        <time>2020-12-02T12:04:23Z</time>
      </trkpt>
      <trkpt lat="37.54178" lon="27.62202">
        <ele>760.6</ele>
        <time>2020-12-02T12:04:22Z</time>
      </trkpt>
      <trkpt lat="37.54178" lon="27.62202">
        <ele>760.6</ele>
        <time>2020-12-02T12:04:21Z</time>
      </trkpt>
      <trkpt lat="37.54178" lon="27.62202">
        <ele>760.6</ele>
        <time>2020-12-02T12:04:20Z</time>
      </trkpt>
      <trkpt lat="37.54178" lon="27.62202">
        <ele>760.4</ele>
        <time>2020-12-02T12:04:19Z</time>
      </trkpt>
      <trkpt lat="37.54179" lon="27.62202">
        <ele>760.4</ele>
        <time>2020-12-02T12:04:18Z</time>
      </trkpt>
      <trkpt lat="37.54179" lon="27.62202">
        <ele>760.4</ele>
        <time>2020-12-02T12:04:17Z</time>
      </trkpt>
      <trkpt lat="37.54179" lon="27.62202">
        <ele>760.4</ele>
        <time>2020-12-02T12:04:16Z</time>
      </trkpt>
      <trkpt lat="37.54179" lon="27.62202">
        <ele>760.2</ele>
        <time>2020-12-02T12:04:15Z</time>
      </trkpt>
      <trkpt lat="37.5418" lon="27.62202">
        <ele>760.2</ele>
        <time>2020-12-02T12:04:14Z</time>
      </trkpt>
      <trkpt lat="37.5418" lon="27.62202">
        <ele>760</ele>
        <time>2020-12-02T12:04:13Z</time>
      </trkpt>
      <trkpt lat="37.5418" lon="27.62202">
        <ele>760</ele>
        <time>2020-12-02T12:04:12Z</time>
      </trkpt>
      <trkpt lat="37.5418" lon="27.62203">
        <ele>760</ele>
        <time>2020-12-02T12:04:11Z</time>
      </trkpt>
      <trkpt lat="37.54181" lon="27.62203">
        <ele>759.6</ele>
        <time>2020-12-02T12:04:10Z</time>
      </trkpt>
      <trkpt lat="37.54181" lon="27.62203">
        <ele>759.6</ele>
        <time>2020-12-02T12:04:09Z</time>
      </trkpt>
      <trkpt lat="37.54181" lon="27.62203">
        <ele>759.6</ele>
        <time>2020-12-02T12:04:08Z</time>
      </trkpt>
      <trkpt lat="37.54182" lon="27.62203">
        <ele>759.4</ele>
        <time>2020-12-02T12:04:07Z</time>
      </trkpt>
      <trkpt lat="37.54182" lon="27.62203">
        <ele>759</ele>
        <time>2020-12-02T12:04:06Z</time>
      </trkpt>
      <trkpt lat="37.54182" lon="27.62203">
        <ele>758.8</ele>
        <time>2020-12-02T12:04:05Z</time>
      </trkpt>
      <trkpt lat="37.54183" lon="27.62203">
        <ele>758.8</ele>
        <time>2020-12-02T12:04:04Z</time>
      </trkpt>
      <trkpt lat="37.54183" lon="27.62204">
        <ele>759</ele>
        <time>2020-12-02T12:04:03Z</time>
      </trkpt>
      <trkpt lat="37.54184" lon="27.62204">
        <ele>759.2</ele>
        <time>2020-12-02T12:04:02Z</time>
      </trkpt>
      <trkpt lat="37.54184" lon="27.62204">
        <ele>759.2</ele>
        <time>2020-12-02T12:04:01Z</time>
      </trkpt>
      <trkpt lat="37.54184" lon="27.62204">
        <ele>759</ele>
        <time>2020-12-02T12:04:00Z</time>
      </trkpt>
      <trkpt lat="37.54185" lon="27.62204">
        <ele>758.6</ele>
        <time>2020-12-02T12:03:59Z</time>
      </trkpt>
      <trkpt lat="37.54185" lon="27.62204">
        <ele>758.4</ele>
        <time>2020-12-02T12:03:58Z</time>
      </trkpt>
      <trkpt lat="37.54185" lon="27.62204">
        <ele>758</ele>
        <time>2020-12-02T12:03:57Z</time>
      </trkpt>
      <trkpt lat="37.54186" lon="27.62204">
        <ele>758</ele>
        <time>2020-12-02T12:03:56Z</time>
      </trkpt>
      <trkpt lat="37.54186" lon="27.62205">
        <ele>757.8</ele>
        <time>2020-12-02T12:03:55Z</time>
      </trkpt>
      <trkpt lat="37.54186" lon="27.62205">
        <ele>757.6</ele>
        <time>2020-12-02T12:03:54Z</time>
      </trkpt>
      <trkpt lat="37.54187" lon="27.62205">
        <ele>757.6</ele>
        <time>2020-12-02T12:03:53Z</time>
      </trkpt>
      <trkpt lat="37.54187" lon="27.62205">
        <ele>757.6</ele>
        <time>2020-12-02T12:03:52Z</time>
      </trkpt>
      <trkpt lat="37.54187" lon="27.62205">
        <ele>757.4</ele>
        <time>2020-12-02T12:03:51Z</time>
      </trkpt>
      <trkpt lat="37.54188" lon="27.62205">
        <ele>757.2</ele>
        <time>2020-12-02T12:03:50Z</time>
      </trkpt>
      <trkpt lat="37.54188" lon="27.62205">
        <ele>757.2</ele>
        <time>2020-12-02T12:03:49Z</time>
      </trkpt>
      <trkpt lat="37.54188" lon="27.62206">
        <ele>757.2</ele>
        <time>2020-12-02T12:03:48Z</time>
      </trkpt>
      <trkpt lat="37.54189" lon="27.62206">
        <ele>757</ele>
        <time>2020-12-02T12:03:47Z</time>
      </trkpt>
      <trkpt lat="37.54191" lon="27.62207">
        <ele>757</ele>
        <time>2020-12-02T12:03:46Z</time>
      </trkpt>
      <trkpt lat="37.54193" lon="27.62208">
        <ele>757</ele>
        <time>2020-12-02T12:03:45Z</time>
      </trkpt>
      <trkpt lat="37.54195" lon="27.6221">
        <ele>757.4</ele>
        <time>2020-12-02T12:03:44Z</time>
      </trkpt>
      <trkpt lat="37.54197" lon="27.62211">
        <ele>757.4</ele>
        <time>2020-12-02T12:03:43Z</time>
      </trkpt>
      <trkpt lat="37.54198" lon="27.62212">
        <ele>757.4</ele>
        <time>2020-12-02T12:03:42Z</time>
      </trkpt>
      <trkpt lat="37.54199" lon="27.62212">
        <ele>757.4</ele>
        <time>2020-12-02T12:03:41Z</time>
      </trkpt>
      <trkpt lat="37.54199" lon="27.62213">
        <ele>757.4</ele>
        <time>2020-12-02T12:03:40Z</time>
      </trkpt>
      <trkpt lat="37.542" lon="27.62213">
        <ele>757.2</ele>
        <time>2020-12-02T12:03:39Z</time>
      </trkpt>
      <trkpt lat="37.54201" lon="27.62214">
        <ele>757</ele>
        <time>2020-12-02T12:03:38Z</time>
      </trkpt>
      <trkpt lat="37.54201" lon="27.62214">
        <ele>756.8</ele>
        <time>2020-12-02T12:03:37Z</time>
      </trkpt>
      <trkpt lat="37.54202" lon="27.62214">
        <ele>756.6</ele>
        <time>2020-12-02T12:03:36Z</time>
      </trkpt>
      <trkpt lat="37.54203" lon="27.62215">
        <ele>756.6</ele>
        <time>2020-12-02T12:03:35Z</time>
      </trkpt>
      <trkpt lat="37.54203" lon="27.62215">
        <ele>756.6</ele>
        <time>2020-12-02T12:03:34Z</time>
      </trkpt>
      <trkpt lat="37.54204" lon="27.62216">
        <ele>756.6</ele>
        <time>2020-12-02T12:03:33Z</time>
      </trkpt>
      <trkpt lat="37.54205" lon="27.62216">
        <ele>756.6</ele>
        <time>2020-12-02T12:03:32Z</time>
      </trkpt>
      <trkpt lat="37.54205" lon="27.62217">
        <ele>756.4</ele>
        <time>2020-12-02T12:03:31Z</time>
      </trkpt>
      <trkpt lat="37.54206" lon="27.62217">
        <ele>756.4</ele>
        <time>2020-12-02T12:03:30Z</time>
      </trkpt>
      <trkpt lat="37.54207" lon="27.62218">
        <ele>756.6</ele>
        <time>2020-12-02T12:03:29Z</time>
      </trkpt>
      <trkpt lat="37.54207" lon="27.62217">
        <ele>756.6</ele>
        <time>2020-12-02T12:03:28Z</time>
      </trkpt>
      <trkpt lat="37.54207" lon="27.62217">
        <ele>756.6</ele>
        <time>2020-12-02T12:03:27Z</time>
      </trkpt>
      <trkpt lat="37.54208" lon="27.62217">
        <ele>756.6</ele>
        <time>2020-12-02T12:03:26Z</time>
      </trkpt>
      <trkpt lat="37.54208" lon="27.62217">
        <ele>756.6</ele>
        <time>2020-12-02T12:03:25Z</time>
      </trkpt>
      <trkpt lat="37.54208" lon="27.62217">
        <ele>756.6</ele>
        <time>2020-12-02T12:03:24Z</time>
      </trkpt>
      <trkpt lat="37.54208" lon="27.62216">
        <ele>756.4</ele>
        <time>2020-12-02T12:03:23Z</time>
      </trkpt>
      <trkpt lat="37.54209" lon="27.62216">
        <ele>756.4</ele>
        <time>2020-12-02T12:03:22Z</time>
      </trkpt>
      <trkpt lat="37.54209" lon="27.62216">
        <ele>756.6</ele>
        <time>2020-12-02T12:03:21Z</time>
      </trkpt>
      <trkpt lat="37.54209" lon="27.62216">
        <ele>756.8</ele>
        <time>2020-12-02T12:03:20Z</time>
      </trkpt>
      <trkpt lat="37.54209" lon="27.62215">
        <ele>756.8</ele>
        <time>2020-12-02T12:03:19Z</time>
      </trkpt>
      <trkpt lat="37.5421" lon="27.62215">
        <ele>756.8</ele>
        <time>2020-12-02T12:03:18Z</time>
      </trkpt>
      <trkpt lat="37.5421" lon="27.62215">
        <ele>757</ele>
        <time>2020-12-02T12:03:17Z</time>
      </trkpt>
      <trkpt lat="37.5421" lon="27.62215">
        <ele>757.2</ele>
        <time>2020-12-02T12:03:16Z</time>
      </trkpt>
      <trkpt lat="37.5421" lon="27.62215">
        <ele>757.2</ele>
        <time>2020-12-02T12:03:15Z</time>
      </trkpt>
      <trkpt lat="37.54211" lon="27.62214">
        <ele>757.2</ele>
        <time>2020-12-02T12:03:14Z</time>
      </trkpt>
      <trkpt lat="37.54211" lon="27.62214">
        <ele>757</ele>
        <time>2020-12-02T12:03:13Z</time>
      </trkpt>
      <trkpt lat="37.54211" lon="27.62214">
        <ele>757</ele>
        <time>2020-12-02T12:03:12Z</time>
      </trkpt>
      <trkpt lat="37.54212" lon="27.62214">
        <ele>756.8</ele>
        <time>2020-12-02T12:03:11Z</time>
      </trkpt>
      <trkpt lat="37.54212" lon="27.62214">
        <ele>756.8</ele>
        <time>2020-12-02T12:03:10Z</time>
      </trkpt>
      <trkpt lat="37.54212" lon="27.62213">
        <ele>757</ele>
        <time>2020-12-02T12:03:09Z</time>
      </trkpt>
      <trkpt lat="37.54212" lon="27.62213">
        <ele>756.8</ele>
        <time>2020-12-02T12:03:08Z</time>
      </trkpt>
      <trkpt lat="37.54213" lon="27.62213">
        <ele>757</ele>
        <time>2020-12-02T12:03:07Z</time>
      </trkpt>
      <trkpt lat="37.54213" lon="27.62213">
        <ele>757.2</ele>
        <time>2020-12-02T12:03:06Z</time>
      </trkpt>
      <trkpt lat="37.54213" lon="27.62212">
        <ele>757.6</ele>
        <time>2020-12-02T12:03:05Z</time>
      </trkpt>
      <trkpt lat="37.54213" lon="27.62212">
        <ele>757.4</ele>
        <time>2020-12-02T12:03:04Z</time>
      </trkpt>
      <trkpt lat="37.54214" lon="27.62212">
        <ele>757.2</ele>
        <time>2020-12-02T12:03:03Z</time>
      </trkpt>
      <trkpt lat="37.54214" lon="27.62212">
        <ele>756.8</ele>
        <time>2020-12-02T12:03:02Z</time>
      </trkpt>
      <trkpt lat="37.54214" lon="27.62212">
        <ele>756.6</ele>
        <time>2020-12-02T12:03:01Z</time>
      </trkpt>
      <trkpt lat="37.54214" lon="27.62211">
        <ele>756.2</ele>
        <time>2020-12-02T12:03:00Z</time>
      </trkpt>
      <trkpt lat="37.54215" lon="27.62212">
        <ele>755.8</ele>
        <time>2020-12-02T12:02:59Z</time>
      </trkpt>
      <trkpt lat="37.54216" lon="27.62212">
        <ele>755.4</ele>
        <time>2020-12-02T12:02:58Z</time>
      </trkpt>
      <trkpt lat="37.54217" lon="27.62212">
        <ele>755</ele>
        <time>2020-12-02T12:02:57Z</time>
      </trkpt>
      <trkpt lat="37.54218" lon="27.62213">
        <ele>754.8</ele>
        <time>2020-12-02T12:02:56Z</time>
      </trkpt>
      <trkpt lat="37.54219" lon="27.62213">
        <ele>754.4</ele>
        <time>2020-12-02T12:02:55Z</time>
      </trkpt>
      <trkpt lat="37.5422" lon="27.62214">
        <ele>754.2</ele>
        <time>2020-12-02T12:02:54Z</time>
      </trkpt>
      <trkpt lat="37.54221" lon="27.62214">
        <ele>754</ele>
        <time>2020-12-02T12:02:53Z</time>
      </trkpt>
      <trkpt lat="37.54222" lon="27.62214">
        <ele>754</ele>
        <time>2020-12-02T12:02:52Z</time>
      </trkpt>
      <trkpt lat="37.54223" lon="27.62215">
        <ele>754</ele>
        <time>2020-12-02T12:02:51Z</time>
      </trkpt>
      <trkpt lat="37.54224" lon="27.62215">
        <ele>753.8</ele>
        <time>2020-12-02T12:02:50Z</time>
      </trkpt>
      <trkpt lat="37.54224" lon="27.62216">
        <ele>753.6</ele>
        <time>2020-12-02T12:02:49Z</time>
      </trkpt>
      <trkpt lat="37.54225" lon="27.62216">
        <ele>753.2</ele>
        <time>2020-12-02T12:02:48Z</time>
      </trkpt>
      <trkpt lat="37.54225" lon="27.62217">
        <ele>753</ele>
        <time>2020-12-02T12:02:47Z</time>
      </trkpt>
      <trkpt lat="37.54226" lon="27.62217">
        <ele>752.8</ele>
        <time>2020-12-02T12:02:46Z</time>
      </trkpt>
      <trkpt lat="37.54226" lon="27.62218">
        <ele>753</ele>
        <time>2020-12-02T12:02:45Z</time>
      </trkpt>
      <trkpt lat="37.54227" lon="27.62218">
        <ele>753</ele>
        <time>2020-12-02T12:02:44Z</time>
      </trkpt>
      <trkpt lat="37.54227" lon="27.62219">
        <ele>752.8</ele>
        <time>2020-12-02T12:02:43Z</time>
      </trkpt>
      <trkpt lat="37.54228" lon="27.62219">
        <ele>752.8</ele>
        <time>2020-12-02T12:02:42Z</time>
      </trkpt>
      <trkpt lat="37.54228" lon="27.6222">
        <ele>752.8</ele>
        <time>2020-12-02T12:02:41Z</time>
      </trkpt>
      <trkpt lat="37.54229" lon="27.62221">
        <ele>752.8</ele>
        <time>2020-12-02T12:02:40Z</time>
      </trkpt>
      <trkpt lat="37.54229" lon="27.62221">
        <ele>752.8</ele>
        <time>2020-12-02T12:02:39Z</time>
      </trkpt>
      <trkpt lat="37.5423" lon="27.62222">
        <ele>752.8</ele>
        <time>2020-12-02T12:02:38Z</time>
      </trkpt>
      <trkpt lat="37.5423" lon="27.62222">
        <ele>752.8</ele>
        <time>2020-12-02T12:02:37Z</time>
      </trkpt>
      <trkpt lat="37.54231" lon="27.62223">
        <ele>753</ele>
        <time>2020-12-02T12:02:36Z</time>
      </trkpt>
      <trkpt lat="37.54231" lon="27.62223">
        <ele>753</ele>
        <time>2020-12-02T12:02:35Z</time>
      </trkpt>
      <trkpt lat="37.54231" lon="27.62223">
        <ele>753.2</ele>
        <time>2020-12-02T12:02:34Z</time>
      </trkpt>
      <trkpt lat="37.54231" lon="27.62223">
        <ele>753.6</ele>
        <time>2020-12-02T12:02:33Z</time>
      </trkpt>
      <trkpt lat="37.54232" lon="27.62223">
        <ele>754</ele>
        <time>2020-12-02T12:02:32Z</time>
      </trkpt>
      <trkpt lat="37.54232" lon="27.62223">
        <ele>754</ele>
        <time>2020-12-02T12:02:31Z</time>
      </trkpt>
      <trkpt lat="37.54232" lon="27.62224">
        <ele>754</ele>
        <time>2020-12-02T12:02:30Z</time>
      </trkpt>
      <trkpt lat="37.54232" lon="27.62224">
        <ele>754</ele>
        <time>2020-12-02T12:02:29Z</time>
      </trkpt>
      <trkpt lat="37.54232" lon="27.62224">
        <ele>754</ele>
        <time>2020-12-02T12:02:28Z</time>
      </trkpt>
      <trkpt lat="37.54233" lon="27.62224">
        <ele>754</ele>
        <time>2020-12-02T12:02:27Z</time>
      </trkpt>
      <trkpt lat="37.54233" lon="27.62224">
        <ele>753.8</ele>
        <time>2020-12-02T12:02:26Z</time>
      </trkpt>
      <trkpt lat="37.54233" lon="27.62224">
        <ele>753.6</ele>
        <time>2020-12-02T12:02:25Z</time>
      </trkpt>
      <trkpt lat="37.54233" lon="27.62224">
        <ele>753.6</ele>
        <time>2020-12-02T12:02:24Z</time>
      </trkpt>
      <trkpt lat="37.54233" lon="27.62224">
        <ele>753.4</ele>
        <time>2020-12-02T12:02:23Z</time>
      </trkpt>
      <trkpt lat="37.54234" lon="27.62225">
        <ele>753</ele>
        <time>2020-12-02T12:02:22Z</time>
      </trkpt>
      <trkpt lat="37.54234" lon="27.62225">
        <ele>752.6</ele>
        <time>2020-12-02T12:02:21Z</time>
      </trkpt>
      <trkpt lat="37.54234" lon="27.62225">
        <ele>752.2</ele>
        <time>2020-12-02T12:02:20Z</time>
      </trkpt>
      <trkpt lat="37.54234" lon="27.62225">
        <ele>752.2</ele>
        <time>2020-12-02T12:02:19Z</time>
      </trkpt>
      <trkpt lat="37.54234" lon="27.62225">
        <ele>752.2</ele>
        <time>2020-12-02T12:02:18Z</time>
      </trkpt>
      <trkpt lat="37.54234" lon="27.62225">
        <ele>752</ele>
        <time>2020-12-02T12:02:17Z</time>
      </trkpt>
      <trkpt lat="37.54235" lon="27.62225">
        <ele>752</ele>
        <time>2020-12-02T12:02:16Z</time>
      </trkpt>
      <trkpt lat="37.54235" lon="27.62225">
        <ele>752</ele>
        <time>2020-12-02T12:02:15Z</time>
      </trkpt>
      <trkpt lat="37.54235" lon="27.62226">
        <ele>752</ele>
        <time>2020-12-02T12:02:14Z</time>
      </trkpt>
      <trkpt lat="37.54235" lon="27.62226">
        <ele>751.8</ele>
        <time>2020-12-02T12:02:13Z</time>
      </trkpt>
      <trkpt lat="37.54235" lon="27.62226">
        <ele>751.8</ele>
        <time>2020-12-02T12:02:12Z</time>
      </trkpt>
      <trkpt lat="37.54236" lon="27.62226">
        <ele>751.6</ele>
        <time>2020-12-02T12:02:11Z</time>
      </trkpt>
      <trkpt lat="37.54236" lon="27.62226">
        <ele>751.6</ele>
        <time>2020-12-02T12:02:10Z</time>
      </trkpt>
      <trkpt lat="37.54236" lon="27.62226">
        <ele>751.4</ele>
        <time>2020-12-02T12:02:09Z</time>
      </trkpt>
      <trkpt lat="37.54236" lon="27.62226">
        <ele>751.2</ele>
        <time>2020-12-02T12:02:08Z</time>
      </trkpt>
      <trkpt lat="37.54236" lon="27.62227">
        <ele>751</ele>
        <time>2020-12-02T12:02:07Z</time>
      </trkpt>
      <trkpt lat="37.54237" lon="27.62227">
        <ele>751</ele>
        <time>2020-12-02T12:02:06Z</time>
      </trkpt>
      <trkpt lat="37.54237" lon="27.62227">
        <ele>750.6</ele>
        <time>2020-12-02T12:02:05Z</time>
      </trkpt>
      <trkpt lat="37.54237" lon="27.62227">
        <ele>750.6</ele>
        <time>2020-12-02T12:02:04Z</time>
      </trkpt>
      <trkpt lat="37.54237" lon="27.62227">
        <ele>750.4</ele>
        <time>2020-12-02T12:02:03Z</time>
      </trkpt>
      <trkpt lat="37.54237" lon="27.62227">
        <ele>750.4</ele>
        <time>2020-12-02T12:02:02Z</time>
      </trkpt>
      <trkpt lat="37.54238" lon="27.62227">
        <ele>750.2</ele>
        <time>2020-12-02T12:02:01Z</time>
      </trkpt>
      <trkpt lat="37.54238" lon="27.62227">
        <ele>750.2</ele>
        <time>2020-12-02T12:02:00Z</time>
      </trkpt>
      <trkpt lat="37.54238" lon="27.62228">
        <ele>750</ele>
        <time>2020-12-02T12:01:59Z</time>
      </trkpt>
      <trkpt lat="37.54238" lon="27.62228">
        <ele>750</ele>
        <time>2020-12-02T12:01:58Z</time>
      </trkpt>
      <trkpt lat="37.54238" lon="27.62228">
        <ele>750</ele>
        <time>2020-12-02T12:01:57Z</time>
      </trkpt>
      <trkpt lat="37.54238" lon="27.62228">
        <ele>750</ele>
        <time>2020-12-02T12:01:56Z</time>
      </trkpt>
      <trkpt lat="37.54239" lon="27.62228">
        <ele>749.8</ele>
        <time>2020-12-02T12:01:55Z</time>
      </trkpt>
      <trkpt lat="37.54239" lon="27.62228">
        <ele>749.8</ele>
        <time>2020-12-02T12:01:54Z</time>
      </trkpt>
      <trkpt lat="37.54239" lon="27.62228">
        <ele>749.6</ele>
        <time>2020-12-02T12:01:53Z</time>
      </trkpt>
      <trkpt lat="37.54239" lon="27.62228">
        <ele>749.6</ele>
        <time>2020-12-02T12:01:52Z</time>
      </trkpt>
      <trkpt lat="37.5424" lon="27.62229">
        <ele>749.4</ele>
        <time>2020-12-02T12:01:51Z</time>
      </trkpt>
      <trkpt lat="37.5424" lon="27.62229">
        <ele>749.6</ele>
        <time>2020-12-02T12:01:50Z</time>
      </trkpt>
      <trkpt lat="37.5424" lon="27.62229">
        <ele>749.8</ele>
        <time>2020-12-02T12:01:49Z</time>
      </trkpt>
      <trkpt lat="37.5424" lon="27.62229">
        <ele>750</ele>
        <time>2020-12-02T12:01:48Z</time>
      </trkpt>
      <trkpt lat="37.54241" lon="27.62229">
        <ele>750.4</ele>
        <time>2020-12-02T12:01:47Z</time>
      </trkpt>
      <trkpt lat="37.54241" lon="27.62229">
        <ele>750.4</ele>
        <time>2020-12-02T12:01:46Z</time>
      </trkpt>
      <trkpt lat="37.54241" lon="27.62229">
        <ele>750.4</ele>
        <time>2020-12-02T12:01:45Z</time>
      </trkpt>
      <trkpt lat="37.54241" lon="27.62229">
        <ele>750.4</ele>
        <time>2020-12-02T12:01:44Z</time>
      </trkpt>
      <trkpt lat="37.54242" lon="27.62229">
        <ele>750.2</ele>
        <time>2020-12-02T12:01:43Z</time>
      </trkpt>
      <trkpt lat="37.54242" lon="27.62229">
        <ele>750</ele>
        <time>2020-12-02T12:01:42Z</time>
      </trkpt>
      <trkpt lat="37.54242" lon="27.62229">
        <ele>749.8</ele>
        <time>2020-12-02T12:01:41Z</time>
      </trkpt>
      <trkpt lat="37.54242" lon="27.6223">
        <ele>749.6</ele>
        <time>2020-12-02T12:01:40Z</time>
      </trkpt>
      <trkpt lat="37.54243" lon="27.6223">
        <ele>749.6</ele>
        <time>2020-12-02T12:01:39Z</time>
      </trkpt>
      <trkpt lat="37.54243" lon="27.6223">
        <ele>749.4</ele>
        <time>2020-12-02T12:01:38Z</time>
      </trkpt>
      <trkpt lat="37.54243" lon="27.6223">
        <ele>749.2</ele>
        <time>2020-12-02T12:01:37Z</time>
      </trkpt>
      <trkpt lat="37.54244" lon="27.6223">
        <ele>748.8</ele>
        <time>2020-12-02T12:01:36Z</time>
      </trkpt>
      <trkpt lat="37.54244" lon="27.6223">
        <ele>748.4</ele>
        <time>2020-12-02T12:01:35Z</time>
      </trkpt>
      <trkpt lat="37.54244" lon="27.6223">
        <ele>747.8</ele>
        <time>2020-12-02T12:01:34Z</time>
      </trkpt>
      <trkpt lat="37.54244" lon="27.6223">
        <ele>747.6</ele>
        <time>2020-12-02T12:01:33Z</time>
      </trkpt>
      <trkpt lat="37.54245" lon="27.6223">
        <ele>747.6</ele>
        <time>2020-12-02T12:01:32Z</time>
      </trkpt>
      <trkpt lat="37.54245" lon="27.6223">
        <ele>747.4</ele>
        <time>2020-12-02T12:01:31Z</time>
      </trkpt>
      <trkpt lat="37.54245" lon="27.62231">
        <ele>747.4</ele>
        <time>2020-12-02T12:01:30Z</time>
      </trkpt>
      <trkpt lat="37.54245" lon="27.62231">
        <ele>747.2</ele>
        <time>2020-12-02T12:01:29Z</time>
      </trkpt>
      <trkpt lat="37.54246" lon="27.62231">
        <ele>747.2</ele>
        <time>2020-12-02T12:01:28Z</time>
      </trkpt>
      <trkpt lat="37.54246" lon="27.62231">
        <ele>747</ele>
        <time>2020-12-02T12:01:27Z</time>
      </trkpt>
      <trkpt lat="37.54246" lon="27.62231">
        <ele>747</ele>
        <time>2020-12-02T12:01:26Z</time>
      </trkpt>
      <trkpt lat="37.54246" lon="27.62231">
        <ele>746.4</ele>
        <time>2020-12-02T12:01:25Z</time>
      </trkpt>
      <trkpt lat="37.54247" lon="27.62231">
        <ele>745.8</ele>
        <time>2020-12-02T12:01:24Z</time>
      </trkpt>
      <trkpt lat="37.54247" lon="27.62231">
        <ele>745.8</ele>
        <time>2020-12-02T12:01:23Z</time>
      </trkpt>
      <trkpt lat="37.54247" lon="27.62231">
        <ele>745.6</ele>
        <time>2020-12-02T12:01:22Z</time>
      </trkpt>
      <trkpt lat="37.54247" lon="27.62231">
        <ele>745.4</ele>
        <time>2020-12-02T12:01:21Z</time>
      </trkpt>
      <trkpt lat="37.54248" lon="27.62231">
        <ele>745.4</ele>
        <time>2020-12-02T12:01:20Z</time>
      </trkpt>
      <trkpt lat="37.54248" lon="27.62232">
        <ele>745.2</ele>
        <time>2020-12-02T12:01:19Z</time>
      </trkpt>
      <trkpt lat="37.54249" lon="27.62232">
        <ele>745.2</ele>
        <time>2020-12-02T12:01:18Z</time>
      </trkpt>
      <trkpt lat="37.5425" lon="27.62232">
        <ele>745</ele>
        <time>2020-12-02T12:01:17Z</time>
      </trkpt>
      <trkpt lat="37.5425" lon="27.62233">
        <ele>744.8</ele>
        <time>2020-12-02T12:01:16Z</time>
      </trkpt>
      <trkpt lat="37.54251" lon="27.62233">
        <ele>744.6</ele>
        <time>2020-12-02T12:01:15Z</time>
      </trkpt>
      <trkpt lat="37.54252" lon="27.62233">
        <ele>744.6</ele>
        <time>2020-12-02T12:01:14Z</time>
      </trkpt>
      <trkpt lat="37.54253" lon="27.62234">
        <ele>744.6</ele>
        <time>2020-12-02T12:01:13Z</time>
      </trkpt>
      <trkpt lat="37.54254" lon="27.62234">
        <ele>744.6</ele>
        <time>2020-12-02T12:01:12Z</time>
      </trkpt>
      <trkpt lat="37.54255" lon="27.62234">
        <ele>744.4</ele>
        <time>2020-12-02T12:01:11Z</time>
      </trkpt>
      <trkpt lat="37.54256" lon="27.62235">
        <ele>744.2</ele>
        <time>2020-12-02T12:01:10Z</time>
      </trkpt>
      <trkpt lat="37.54256" lon="27.62235">
        <ele>744</ele>
        <time>2020-12-02T12:01:09Z</time>
      </trkpt>
      <trkpt lat="37.54257" lon="27.62235">
        <ele>744</ele>
        <time>2020-12-02T12:01:08Z</time>
      </trkpt>
      <trkpt lat="37.54258" lon="27.62235">
        <ele>743.8</ele>
        <time>2020-12-02T12:01:07Z</time>
      </trkpt>
      <trkpt lat="37.54258" lon="27.62235">
        <ele>743.6</ele>
        <time>2020-12-02T12:01:06Z</time>
      </trkpt>
      <trkpt lat="37.54258" lon="27.62235">
        <ele>743.4</ele>
        <time>2020-12-02T12:01:05Z</time>
      </trkpt>
      <trkpt lat="37.54258" lon="27.62235">
        <ele>743.2</ele>
        <time>2020-12-02T12:01:04Z</time>
      </trkpt>
      <trkpt lat="37.54259" lon="27.62235">
        <ele>743</ele>
        <time>2020-12-02T12:01:03Z</time>
      </trkpt>
      <trkpt lat="37.54259" lon="27.62234">
        <ele>743</ele>
        <time>2020-12-02T12:01:02Z</time>
      </trkpt>
      <trkpt lat="37.54259" lon="27.62234">
        <ele>742.8</ele>
        <time>2020-12-02T12:01:01Z</time>
      </trkpt>
      <trkpt lat="37.5426" lon="27.62234">
        <ele>742.4</ele>
        <time>2020-12-02T12:01:00Z</time>
      </trkpt>
      <trkpt lat="37.5426" lon="27.62234">
        <ele>742.2</ele>
        <time>2020-12-02T12:00:59Z</time>
      </trkpt>
      <trkpt lat="37.5426" lon="27.62234">
        <ele>742</ele>
        <time>2020-12-02T12:00:58Z</time>
      </trkpt>
      <trkpt lat="37.54261" lon="27.62234">
        <ele>741.8</ele>
        <time>2020-12-02T12:00:57Z</time>
      </trkpt>
      <trkpt lat="37.54261" lon="27.62233">
        <ele>741.8</ele>
        <time>2020-12-02T12:00:56Z</time>
      </trkpt>
      <trkpt lat="37.54261" lon="27.62233">
        <ele>741.6</ele>
        <time>2020-12-02T12:00:55Z</time>
      </trkpt>
      <trkpt lat="37.54261" lon="27.62233">
        <ele>741.6</ele>
        <time>2020-12-02T12:00:54Z</time>
      </trkpt>
      <trkpt lat="37.54262" lon="27.62233">
        <ele>741.4</ele>
        <time>2020-12-02T12:00:53Z</time>
      </trkpt>
      <trkpt lat="37.54262" lon="27.62233">
        <ele>741.4</ele>
        <time>2020-12-02T12:00:52Z</time>
      </trkpt>
      <trkpt lat="37.54262" lon="27.62233">
        <ele>741.2</ele>
        <time>2020-12-02T12:00:51Z</time>
      </trkpt>
      <trkpt lat="37.54263" lon="27.62232">
        <ele>741</ele>
        <time>2020-12-02T12:00:50Z</time>
      </trkpt>
      <trkpt lat="37.54263" lon="27.62232">
        <ele>740.8</ele>
        <time>2020-12-02T12:00:49Z</time>
      </trkpt>
      <trkpt lat="37.54263" lon="27.62232">
        <ele>740.8</ele>
        <time>2020-12-02T12:00:48Z</time>
      </trkpt>
      <trkpt lat="37.54263" lon="27.62232">
        <ele>740.6</ele>
        <time>2020-12-02T12:00:47Z</time>
      </trkpt>
      <trkpt lat="37.54264" lon="27.62232">
        <ele>740.6</ele>
        <time>2020-12-02T12:00:46Z</time>
      </trkpt>
      <trkpt lat="37.54264" lon="27.62232">
        <ele>740.4</ele>
        <time>2020-12-02T12:00:45Z</time>
      </trkpt>
      <trkpt lat="37.54264" lon="27.62231">
        <ele>740.2</ele>
        <time>2020-12-02T12:00:44Z</time>
      </trkpt>
      <trkpt lat="37.54265" lon="27.62231">
        <ele>740.2</ele>
        <time>2020-12-02T12:00:43Z</time>
      </trkpt>
      <trkpt lat="37.54265" lon="27.62231">
        <ele>740</ele>
        <time>2020-12-02T12:00:42Z</time>
      </trkpt>
      <trkpt lat="37.54265" lon="27.62231">
        <ele>739.8</ele>
        <time>2020-12-02T12:00:41Z</time>
      </trkpt>
      <trkpt lat="37.54266" lon="27.62231">
        <ele>740</ele>
        <time>2020-12-02T12:00:40Z</time>
      </trkpt>
      <trkpt lat="37.54266" lon="27.62231">
        <ele>740</ele>
        <time>2020-12-02T12:00:39Z</time>
      </trkpt>
      <trkpt lat="37.54266" lon="27.6223">
        <ele>740</ele>
        <time>2020-12-02T12:00:38Z</time>
      </trkpt>
      <trkpt lat="37.54266" lon="27.6223">
        <ele>740.2</ele>
        <time>2020-12-02T12:00:37Z</time>
      </trkpt>
      <trkpt lat="37.54266" lon="27.6223">
        <ele>740.2</ele>
        <time>2020-12-02T12:00:36Z</time>
      </trkpt>
      <trkpt lat="37.54266" lon="27.6223">
        <ele>740.2</ele>
        <time>2020-12-02T12:00:35Z</time>
      </trkpt>
      <trkpt lat="37.54266" lon="27.6223">
        <ele>740.4</ele>
        <time>2020-12-02T12:00:34Z</time>
      </trkpt>
      <trkpt lat="37.54266" lon="27.62229">
        <ele>740.4</ele>
        <time>2020-12-02T12:00:33Z</time>
      </trkpt>
      <trkpt lat="37.54267" lon="27.62229">
        <ele>740.6</ele>
        <time>2020-12-02T12:00:32Z</time>
      </trkpt>
      <trkpt lat="37.54267" lon="27.62229">
        <ele>740.6</ele>
        <time>2020-12-02T12:00:31Z</time>
      </trkpt>
      <trkpt lat="37.54267" lon="27.62229">
        <ele>740.8</ele>
        <time>2020-12-02T12:00:30Z</time>
      </trkpt>
      <trkpt lat="37.54267" lon="27.62229">
        <ele>740.8</ele>
        <time>2020-12-02T12:00:29Z</time>
      </trkpt>
      <trkpt lat="37.54267" lon="27.62228">
        <ele>741.4</ele>
        <time>2020-12-02T12:00:28Z</time>
      </trkpt>
      <trkpt lat="37.54267" lon="27.62228">
        <ele>741.4</ele>
        <time>2020-12-02T12:00:27Z</time>
      </trkpt>
      <trkpt lat="37.54267" lon="27.62228">
        <ele>741.6</ele>
        <time>2020-12-02T12:00:26Z</time>
      </trkpt>
      <trkpt lat="37.54268" lon="27.62228">
        <ele>741.6</ele>
        <time>2020-12-02T12:00:25Z</time>
      </trkpt>
      <trkpt lat="37.54268" lon="27.62228">
        <ele>741.6</ele>
        <time>2020-12-02T12:00:24Z</time>
      </trkpt>
      <trkpt lat="37.54268" lon="27.62227">
        <ele>741.8</ele>
        <time>2020-12-02T12:00:23Z</time>
      </trkpt>
      <trkpt lat="37.54268" lon="27.62227">
        <ele>741.6</ele>
        <time>2020-12-02T12:00:22Z</time>
      </trkpt>
      <trkpt lat="37.54268" lon="27.62227">
        <ele>741.6</ele>
        <time>2020-12-02T12:00:21Z</time>
      </trkpt>
      <trkpt lat="37.54268" lon="27.62227">
        <ele>741.6</ele>
        <time>2020-12-02T12:00:20Z</time>
      </trkpt>
      <trkpt lat="37.54268" lon="27.62227">
        <ele>741.6</ele>
        <time>2020-12-02T12:00:19Z</time>
      </trkpt>
      <trkpt lat="37.54269" lon="27.62226">
        <ele>741.8</ele>
        <time>2020-12-02T12:00:18Z</time>
      </trkpt>
      <trkpt lat="37.54269" lon="27.62226">
        <ele>741.8</ele>
        <time>2020-12-02T12:00:17Z</time>
      </trkpt>
      <trkpt lat="37.54269" lon="27.62226">
        <ele>741.8</ele>
        <time>2020-12-02T12:00:16Z</time>
      </trkpt>
      <trkpt lat="37.54269" lon="27.62226">
        <ele>741.6</ele>
        <time>2020-12-02T12:00:15Z</time>
      </trkpt>
      <trkpt lat="37.54269" lon="27.62226">
        <ele>741.6</ele>
        <time>2020-12-02T12:00:14Z</time>
      </trkpt>
      <trkpt lat="37.54269" lon="27.62225">
        <ele>741.6</ele>
        <time>2020-12-02T12:00:13Z</time>
      </trkpt>
      <trkpt lat="37.54269" lon="27.62225">
        <ele>741.4</ele>
        <time>2020-12-02T12:00:12Z</time>
      </trkpt>
      <trkpt lat="37.54269" lon="27.62225">
        <ele>741.2</ele>
        <time>2020-12-02T12:00:11Z</time>
      </trkpt>
      <trkpt lat="37.5427" lon="27.62225">
        <ele>741</ele>
        <time>2020-12-02T12:00:10Z</time>
      </trkpt>
      <trkpt lat="37.5427" lon="27.62225">
        <ele>740.8</ele>
        <time>2020-12-02T12:00:09Z</time>
      </trkpt>
      <trkpt lat="37.5427" lon="27.62224">
        <ele>740.2</ele>
        <time>2020-12-02T12:00:08Z</time>
      </trkpt>
      <trkpt lat="37.5427" lon="27.62224">
        <ele>740.4</ele>
        <time>2020-12-02T12:00:07Z</time>
      </trkpt>
      <trkpt lat="37.5427" lon="27.62224">
        <ele>740.4</ele>
        <time>2020-12-02T12:00:06Z</time>
      </trkpt>
      <trkpt lat="37.5427" lon="27.62224">
        <ele>740.4</ele>
        <time>2020-12-02T12:00:05Z</time>
      </trkpt>
      <trkpt lat="37.5427" lon="27.62224">
        <ele>740.4</ele>
        <time>2020-12-02T12:00:04Z</time>
      </trkpt>
      <trkpt lat="37.54271" lon="27.62224">
        <ele>740.2</ele>
        <time>2020-12-02T12:00:03Z</time>
      </trkpt>
      <trkpt lat="37.54271" lon="27.62223">
        <ele>740.2</ele>
        <time>2020-12-02T12:00:02Z</time>
      </trkpt>
      <trkpt lat="37.54271" lon="27.62223">
        <ele>740</ele>
        <time>2020-12-02T12:00:01Z</time>
      </trkpt>
      <trkpt lat="37.54271" lon="27.62223">
        <ele>740.2</ele>
        <time>2020-12-02T11:59:59Z</time>
      </trkpt>
      <trkpt lat="37.54271" lon="27.62223">
        <ele>740.2</ele>
        <time>2020-12-02T11:59:58Z</time>
      </trkpt>
      <trkpt lat="37.54271" lon="27.62223">
        <ele>740.2</ele>
        <time>2020-12-02T11:59:57Z</time>
      </trkpt>
      <trkpt lat="37.54271" lon="27.62222">
        <ele>740.2</ele>
        <time>2020-12-02T11:59:56Z</time>
      </trkpt>
      <trkpt lat="37.54271" lon="27.62222">
        <ele>740</ele>
        <time>2020-12-02T11:59:55Z</time>
      </trkpt>
      <trkpt lat="37.54271" lon="27.62222">
        <ele>740</ele>
        <time>2020-12-02T11:59:54Z</time>
      </trkpt>
      <trkpt lat="37.54271" lon="27.62222">
        <ele>740</ele>
        <time>2020-12-02T11:59:53Z</time>
      </trkpt>
      <trkpt lat="37.54271" lon="27.62221">
        <ele>739.8</ele>
        <time>2020-12-02T11:59:52Z</time>
      </trkpt>
      <trkpt lat="37.5427" lon="27.62221">
        <ele>739.8</ele>
        <time>2020-12-02T11:59:51Z</time>
      </trkpt>
      <trkpt lat="37.5427" lon="27.62221">
        <ele>739.4</ele>
        <time>2020-12-02T11:59:50Z</time>
      </trkpt>
      <trkpt lat="37.5427" lon="27.6222">
        <ele>739.2</ele>
        <time>2020-12-02T11:59:49Z</time>
      </trkpt>
      <trkpt lat="37.54269" lon="27.6222">
        <ele>739.2</ele>
        <time>2020-12-02T11:59:48Z</time>
      </trkpt>
      <trkpt lat="37.54269" lon="27.6222">
        <ele>739</ele>
        <time>2020-12-02T11:59:47Z</time>
      </trkpt>
      <trkpt lat="37.54269" lon="27.62219">
        <ele>738.8</ele>
        <time>2020-12-02T11:59:46Z</time>
      </trkpt>
      <trkpt lat="37.54269" lon="27.62219">
        <ele>738.6</ele>
        <time>2020-12-02T11:59:45Z</time>
      </trkpt>
      <trkpt lat="37.54268" lon="27.62219">
        <ele>738.4</ele>
        <time>2020-12-02T11:59:44Z</time>
      </trkpt>
      <trkpt lat="37.54268" lon="27.62218">
        <ele>738.2</ele>
        <time>2020-12-02T11:59:43Z</time>
      </trkpt>
      <trkpt lat="37.54268" lon="27.62218">
        <ele>738.2</ele>
        <time>2020-12-02T11:59:42Z</time>
      </trkpt>
      <trkpt lat="37.54268" lon="27.62218">
        <ele>738</ele>
        <time>2020-12-02T11:59:41Z</time>
      </trkpt>
      <trkpt lat="37.54267" lon="27.62217">
        <ele>737.8</ele>
        <time>2020-12-02T11:59:40Z</time>
      </trkpt>
      <trkpt lat="37.54267" lon="27.62217">
        <ele>737.4</ele>
        <time>2020-12-02T11:59:39Z</time>
      </trkpt>
      <trkpt lat="37.54267" lon="27.62217">
        <ele>737.2</ele>
        <time>2020-12-02T11:59:38Z</time>
      </trkpt>
      <trkpt lat="37.54266" lon="27.62217">
        <ele>737.2</ele>
        <time>2020-12-02T11:59:37Z</time>
      </trkpt>
      <trkpt lat="37.54266" lon="27.62216">
        <ele>737</ele>
        <time>2020-12-02T11:59:36Z</time>
      </trkpt>
      <trkpt lat="37.54266" lon="27.62216">
        <ele>736.8</ele>
        <time>2020-12-02T11:59:35Z</time>
      </trkpt>
      <trkpt lat="37.54266" lon="27.62216">
        <ele>736.8</ele>
        <time>2020-12-02T11:59:34Z</time>
      </trkpt>
      <trkpt lat="37.54265" lon="27.62215">
        <ele>736.6</ele>
        <time>2020-12-02T11:59:33Z</time>
      </trkpt>
      <trkpt lat="37.54265" lon="27.62215">
        <ele>736.4</ele>
        <time>2020-12-02T11:59:32Z</time>
      </trkpt>
      <trkpt lat="37.54265" lon="27.62215">
        <ele>736.2</ele>
        <time>2020-12-02T11:59:31Z</time>
      </trkpt>
      <trkpt lat="37.54264" lon="27.62214">
        <ele>736</ele>
        <time>2020-12-02T11:59:30Z</time>
      </trkpt>
      <trkpt lat="37.54264" lon="27.62215">
        <ele>735.8</ele>
        <time>2020-12-02T11:59:29Z</time>
      </trkpt>
      <trkpt lat="37.54264" lon="27.62215">
        <ele>736</ele>
        <time>2020-12-02T11:59:28Z</time>
      </trkpt>
      <trkpt lat="37.54264" lon="27.62215">
        <ele>735.8</ele>
        <time>2020-12-02T11:59:27Z</time>
      </trkpt>
      <trkpt lat="37.54264" lon="27.62215">
        <ele>735.6</ele>
        <time>2020-12-02T11:59:26Z</time>
      </trkpt>
      <trkpt lat="37.54264" lon="27.62215">
        <ele>735.4</ele>
        <time>2020-12-02T11:59:25Z</time>
      </trkpt>
      <trkpt lat="37.54264" lon="27.62215">
        <ele>735.4</ele>
        <time>2020-12-02T11:59:24Z</time>
      </trkpt>
      <trkpt lat="37.54264" lon="27.62216">
        <ele>735.2</ele>
        <time>2020-12-02T11:59:23Z</time>
      </trkpt>
      <trkpt lat="37.54264" lon="27.62216">
        <ele>735.2</ele>
        <time>2020-12-02T11:59:22Z</time>
      </trkpt>
      <trkpt lat="37.54264" lon="27.62216">
        <ele>735.4</ele>
        <time>2020-12-02T11:59:21Z</time>
      </trkpt>
      <trkpt lat="37.54264" lon="27.62216">
        <ele>735</ele>
        <time>2020-12-02T11:59:20Z</time>
      </trkpt>
      <trkpt lat="37.54264" lon="27.62216">
        <ele>734.8</ele>
        <time>2020-12-02T11:59:19Z</time>
      </trkpt>
      <trkpt lat="37.54263" lon="27.62217">
        <ele>734.8</ele>
        <time>2020-12-02T11:59:18Z</time>
      </trkpt>
      <trkpt lat="37.54263" lon="27.62217">
        <ele>735</ele>
        <time>2020-12-02T11:59:17Z</time>
      </trkpt>
      <trkpt lat="37.54263" lon="27.62217">
        <ele>734.8</ele>
        <time>2020-12-02T11:59:16Z</time>
      </trkpt>
      <trkpt lat="37.54263" lon="27.62217">
        <ele>734.8</ele>
        <time>2020-12-02T11:59:15Z</time>
      </trkpt>
      <trkpt lat="37.54263" lon="27.62217">
        <ele>735</ele>
        <time>2020-12-02T11:59:14Z</time>
      </trkpt>
      <trkpt lat="37.54263" lon="27.62217">
        <ele>735</ele>
        <time>2020-12-02T11:59:13Z</time>
      </trkpt>
      <trkpt lat="37.54263" lon="27.62218">
        <ele>735</ele>
        <time>2020-12-02T11:59:12Z</time>
      </trkpt>
      <trkpt lat="37.54263" lon="27.62218">
        <ele>734.8</ele>
        <time>2020-12-02T11:59:11Z</time>
      </trkpt>
      <trkpt lat="37.54263" lon="27.62218">
        <ele>734.8</ele>
        <time>2020-12-02T11:59:10Z</time>
      </trkpt>
      <trkpt lat="37.54263" lon="27.62218">
        <ele>734.8</ele>
        <time>2020-12-02T11:59:09Z</time>
      </trkpt>
      <trkpt lat="37.54263" lon="27.62218">
        <ele>734.8</ele>
        <time>2020-12-02T11:59:08Z</time>
      </trkpt>
      <trkpt lat="37.54263" lon="27.62218">
        <ele>734.8</ele>
        <time>2020-12-02T11:59:07Z</time>
      </trkpt>
      <trkpt lat="37.54263" lon="27.62219">
        <ele>734.6</ele>
        <time>2020-12-02T11:59:06Z</time>
      </trkpt>
      <trkpt lat="37.54262" lon="27.62219">
        <ele>734.6</ele>
        <time>2020-12-02T11:59:05Z</time>
      </trkpt>
      <trkpt lat="37.54262" lon="27.62219">
        <ele>734.6</ele>
        <time>2020-12-02T11:59:04Z</time>
      </trkpt>
      <trkpt lat="37.54262" lon="27.62219">
        <ele>734.6</ele>
        <time>2020-12-02T11:59:03Z</time>
      </trkpt>
      <trkpt lat="37.54262" lon="27.62219">
        <ele>734.6</ele>
        <time>2020-12-02T11:59:02Z</time>
      </trkpt>
      <trkpt lat="37.54262" lon="27.6222">
        <ele>734.6</ele>
        <time>2020-12-02T11:59:01Z</time>
      </trkpt>
      <trkpt lat="37.54262" lon="27.6222">
        <ele>734.6</ele>
        <time>2020-12-02T11:59:00Z</time>
      </trkpt>
      <trkpt lat="37.54262" lon="27.6222">
        <ele>734.6</ele>
        <time>2020-12-02T11:58:59Z</time>
      </trkpt>
      <trkpt lat="37.54262" lon="27.6222">
        <ele>734.8</ele>
        <time>2020-12-02T11:58:58Z</time>
      </trkpt>
      <trkpt lat="37.54262" lon="27.6222">
        <ele>734.6</ele>
        <time>2020-12-02T11:58:57Z</time>
      </trkpt>
      <trkpt lat="37.54262" lon="27.6222">
        <ele>734.6</ele>
        <time>2020-12-02T11:58:56Z</time>
      </trkpt>
      <trkpt lat="37.54262" lon="27.62221">
        <ele>734.8</ele>
        <time>2020-12-02T11:58:55Z</time>
      </trkpt>
      <trkpt lat="37.54262" lon="27.62221">
        <ele>734.8</ele>
        <time>2020-12-02T11:58:54Z</time>
      </trkpt>
      <trkpt lat="37.54261" lon="27.62221">
        <ele>734.8</ele>
        <time>2020-12-02T11:58:53Z</time>
      </trkpt>
      <trkpt lat="37.54261" lon="27.62221">
        <ele>735</ele>
        <time>2020-12-02T11:58:52Z</time>
      </trkpt>
      <trkpt lat="37.54261" lon="27.62221">
        <ele>734.8</ele>
        <time>2020-12-02T11:58:51Z</time>
      </trkpt>
      <trkpt lat="37.54261" lon="27.62222">
        <ele>735</ele>
        <time>2020-12-02T11:58:50Z</time>
      </trkpt>
      <trkpt lat="37.54261" lon="27.62222">
        <ele>735</ele>
        <time>2020-12-02T11:58:49Z</time>
      </trkpt>
      <trkpt lat="37.54261" lon="27.62222">
        <ele>735</ele>
        <time>2020-12-02T11:58:48Z</time>
      </trkpt>
      <trkpt lat="37.54261" lon="27.62222">
        <ele>735</ele>
        <time>2020-12-02T11:58:47Z</time>
      </trkpt>
      <trkpt lat="37.54261" lon="27.62222">
        <ele>735</ele>
        <time>2020-12-02T11:58:46Z</time>
      </trkpt>
      <trkpt lat="37.54261" lon="27.62222">
        <ele>735</ele>
        <time>2020-12-02T11:58:45Z</time>
      </trkpt>
      <trkpt lat="37.54261" lon="27.62223">
        <ele>735</ele>
        <time>2020-12-02T11:58:44Z</time>
      </trkpt>
      <trkpt lat="37.54261" lon="27.62223">
        <ele>735</ele>
        <time>2020-12-02T11:58:43Z</time>
      </trkpt>
      <trkpt lat="37.54261" lon="27.62223">
        <ele>735</ele>
        <time>2020-12-02T11:58:42Z</time>
      </trkpt>
      <trkpt lat="37.54261" lon="27.62223">
        <ele>735</ele>
        <time>2020-12-02T11:58:41Z</time>
      </trkpt>
      <trkpt lat="37.5426" lon="27.62223">
        <ele>735</ele>
        <time>2020-12-02T11:58:40Z</time>
      </trkpt>
      <trkpt lat="37.5426" lon="27.62224">
        <ele>735</ele>
        <time>2020-12-02T11:58:39Z</time>
      </trkpt>
      <trkpt lat="37.5426" lon="27.62224">
        <ele>735</ele>
        <time>2020-12-02T11:58:38Z</time>
      </trkpt>
      <trkpt lat="37.5426" lon="27.62224">
        <ele>735</ele>
        <time>2020-12-02T11:58:37Z</time>
      </trkpt>
      <trkpt lat="37.5426" lon="27.62224">
        <ele>734.8</ele>
        <time>2020-12-02T11:58:36Z</time>
      </trkpt>
      <trkpt lat="37.5426" lon="27.62224">
        <ele>735</ele>
        <time>2020-12-02T11:58:35Z</time>
      </trkpt>
      <trkpt lat="37.5426" lon="27.62224">
        <ele>734.8</ele>
        <time>2020-12-02T11:58:34Z</time>
      </trkpt>
      <trkpt lat="37.5426" lon="27.62225">
        <ele>735</ele>
        <time>2020-12-02T11:58:33Z</time>
      </trkpt>
      <trkpt lat="37.54261" lon="27.62225">
        <ele>734.8</ele>
        <time>2020-12-02T11:58:32Z</time>
      </trkpt>
      <trkpt lat="37.54261" lon="27.62225">
        <ele>734.8</ele>
        <time>2020-12-02T11:58:31Z</time>
      </trkpt>
      <trkpt lat="37.54262" lon="27.62225">
        <ele>734.8</ele>
        <time>2020-12-02T11:58:30Z</time>
      </trkpt>
      <trkpt lat="37.54262" lon="27.62225">
        <ele>734.8</ele>
        <time>2020-12-02T11:58:29Z</time>
      </trkpt>
      <trkpt lat="37.54263" lon="27.62225">
        <ele>734.8</ele>
        <time>2020-12-02T11:58:28Z</time>
      </trkpt>
      <trkpt lat="37.54263" lon="27.62226">
        <ele>734.6</ele>
        <time>2020-12-02T11:58:27Z</time>
      </trkpt>
      <trkpt lat="37.54263" lon="27.62226">
        <ele>734.6</ele>
        <time>2020-12-02T11:58:26Z</time>
      </trkpt>
      <trkpt lat="37.54264" lon="27.62226">
        <ele>734.4</ele>
        <time>2020-12-02T11:58:25Z</time>
      </trkpt>
      <trkpt lat="37.54264" lon="27.62226">
        <ele>734.2</ele>
        <time>2020-12-02T11:58:24Z</time>
      </trkpt>
      <trkpt lat="37.54265" lon="27.62226">
        <ele>734</ele>
        <time>2020-12-02T11:58:23Z</time>
      </trkpt>
      <trkpt lat="37.54265" lon="27.62226">
        <ele>733.6</ele>
        <time>2020-12-02T11:58:22Z</time>
      </trkpt>
      <trkpt lat="37.54266" lon="27.62227">
        <ele>733.4</ele>
        <time>2020-12-02T11:58:21Z</time>
      </trkpt>
      <trkpt lat="37.54266" lon="27.62227">
        <ele>733.2</ele>
        <time>2020-12-02T11:58:20Z</time>
      </trkpt>
      <trkpt lat="37.54266" lon="27.62227">
        <ele>733</ele>
        <time>2020-12-02T11:58:19Z</time>
      </trkpt>
      <trkpt lat="37.54267" lon="27.62227">
        <ele>733</ele>
        <time>2020-12-02T11:58:18Z</time>
      </trkpt>
      <trkpt lat="37.54267" lon="27.62227">
        <ele>732.8</ele>
        <time>2020-12-02T11:58:17Z</time>
      </trkpt>
      <trkpt lat="37.54268" lon="27.62227">
        <ele>732.6</ele>
        <time>2020-12-02T11:58:16Z</time>
      </trkpt>
      <trkpt lat="37.54268" lon="27.62227">
        <ele>732.4</ele>
        <time>2020-12-02T11:58:15Z</time>
      </trkpt>
      <trkpt lat="37.54268" lon="27.62228">
        <ele>732.2</ele>
        <time>2020-12-02T11:58:14Z</time>
      </trkpt>
      <trkpt lat="37.54269" lon="27.62228">
        <ele>732</ele>
        <time>2020-12-02T11:58:13Z</time>
      </trkpt>
      <trkpt lat="37.54269" lon="27.62228">
        <ele>732</ele>
        <time>2020-12-02T11:58:12Z</time>
      </trkpt>
      <trkpt lat="37.5427" lon="27.62228">
        <ele>731.8</ele>
        <time>2020-12-02T11:58:11Z</time>
      </trkpt>
      <trkpt lat="37.5427" lon="27.62227">
        <ele>731.6</ele>
        <time>2020-12-02T11:58:10Z</time>
      </trkpt>
      <trkpt lat="37.5427" lon="27.62227">
        <ele>731.6</ele>
        <time>2020-12-02T11:58:09Z</time>
      </trkpt>
      <trkpt lat="37.54271" lon="27.62227">
        <ele>731.2</ele>
        <time>2020-12-02T11:58:08Z</time>
      </trkpt>
      <trkpt lat="37.54271" lon="27.62227">
        <ele>731.2</ele>
        <time>2020-12-02T11:58:07Z</time>
      </trkpt>
      <trkpt lat="37.54271" lon="27.62227">
        <ele>731.2</ele>
        <time>2020-12-02T11:58:06Z</time>
      </trkpt>
      <trkpt lat="37.54272" lon="27.62226">
        <ele>731</ele>
        <time>2020-12-02T11:58:05Z</time>
      </trkpt>
      <trkpt lat="37.54272" lon="27.62226">
        <ele>730.8</ele>
        <time>2020-12-02T11:58:04Z</time>
      </trkpt>
      <trkpt lat="37.54272" lon="27.62226">
        <ele>730.8</ele>
        <time>2020-12-02T11:58:03Z</time>
      </trkpt>
      <trkpt lat="37.54272" lon="27.62226">
        <ele>730.8</ele>
        <time>2020-12-02T11:58:02Z</time>
      </trkpt>
      <trkpt lat="37.54273" lon="27.62225">
        <ele>730.6</ele>
        <time>2020-12-02T11:58:01Z</time>
      </trkpt>
      <trkpt lat="37.54273" lon="27.62225">
        <ele>730.6</ele>
        <time>2020-12-02T11:58:00Z</time>
      </trkpt>
      <trkpt lat="37.54273" lon="27.62225">
        <ele>730.4</ele>
        <time>2020-12-02T11:57:59Z</time>
      </trkpt>
      <trkpt lat="37.54274" lon="27.62225">
        <ele>730.4</ele>
        <time>2020-12-02T11:57:58Z</time>
      </trkpt>
      <trkpt lat="37.54274" lon="27.62224">
        <ele>730.4</ele>
        <time>2020-12-02T11:57:57Z</time>
      </trkpt>
      <trkpt lat="37.54274" lon="27.62224">
        <ele>730.2</ele>
        <time>2020-12-02T11:57:56Z</time>
      </trkpt>
      <trkpt lat="37.54275" lon="27.62224">
        <ele>730</ele>
        <time>2020-12-02T11:57:55Z</time>
      </trkpt>
      <trkpt lat="37.54275" lon="27.62224">
        <ele>729.8</ele>
        <time>2020-12-02T11:57:54Z</time>
      </trkpt>
      <trkpt lat="37.54275" lon="27.62224">
        <ele>729.6</ele>
        <time>2020-12-02T11:57:53Z</time>
      </trkpt>
      <trkpt lat="37.54276" lon="27.62223">
        <ele>729.4</ele>
        <time>2020-12-02T11:57:52Z</time>
      </trkpt>
      <trkpt lat="37.54276" lon="27.62223">
        <ele>729.2</ele>
        <time>2020-12-02T11:57:51Z</time>
      </trkpt>
      <trkpt lat="37.54276" lon="27.62223">
        <ele>729</ele>
        <time>2020-12-02T11:57:50Z</time>
      </trkpt>
      <trkpt lat="37.54276" lon="27.62223">
        <ele>729</ele>
        <time>2020-12-02T11:57:49Z</time>
      </trkpt>
      <trkpt lat="37.54277" lon="27.62222">
        <ele>729</ele>
        <time>2020-12-02T11:57:48Z</time>
      </trkpt>
      <trkpt lat="37.54277" lon="27.62222">
        <ele>728.6</ele>
        <time>2020-12-02T11:57:47Z</time>
      </trkpt>
      <trkpt lat="37.54277" lon="27.62222">
        <ele>728.6</ele>
        <time>2020-12-02T11:57:46Z</time>
      </trkpt>
      <trkpt lat="37.54277" lon="27.62222">
        <ele>728.6</ele>
        <time>2020-12-02T11:57:45Z</time>
      </trkpt>
      <trkpt lat="37.54277" lon="27.62222">
        <ele>728.6</ele>
        <time>2020-12-02T11:57:44Z</time>
      </trkpt>
      <trkpt lat="37.54278" lon="27.62223">
        <ele>728.4</ele>
        <time>2020-12-02T11:57:43Z</time>
      </trkpt>
      <trkpt lat="37.54278" lon="27.62223">
        <ele>728.4</ele>
        <time>2020-12-02T11:57:42Z</time>
      </trkpt>
      <trkpt lat="37.54278" lon="27.62223">
        <ele>728.4</ele>
        <time>2020-12-02T11:57:41Z</time>
      </trkpt>
      <trkpt lat="37.54278" lon="27.62223">
        <ele>728.4</ele>
        <time>2020-12-02T11:57:40Z</time>
      </trkpt>
      <trkpt lat="37.54278" lon="27.62224">
        <ele>728.6</ele>
        <time>2020-12-02T11:57:39Z</time>
      </trkpt>
      <trkpt lat="37.54278" lon="27.62224">
        <ele>728.4</ele>
        <time>2020-12-02T11:57:38Z</time>
      </trkpt>
      <trkpt lat="37.54278" lon="27.62224">
        <ele>728.2</ele>
        <time>2020-12-02T11:57:37Z</time>
      </trkpt>
      <trkpt lat="37.54278" lon="27.62224">
        <ele>728.2</ele>
        <time>2020-12-02T11:57:36Z</time>
      </trkpt>
      <trkpt lat="37.54278" lon="27.62225">
        <ele>728.4</ele>
        <time>2020-12-02T11:57:35Z</time>
      </trkpt>
      <trkpt lat="37.54278" lon="27.62225">
        <ele>728.4</ele>
        <time>2020-12-02T11:57:34Z</time>
      </trkpt>
      <trkpt lat="37.54278" lon="27.62225">
        <ele>728.4</ele>
        <time>2020-12-02T11:57:33Z</time>
      </trkpt>
      <trkpt lat="37.54278" lon="27.62225">
        <ele>728.2</ele>
        <time>2020-12-02T11:57:32Z</time>
      </trkpt>
      <trkpt lat="37.54278" lon="27.62226">
        <ele>728.2</ele>
        <time>2020-12-02T11:57:31Z</time>
      </trkpt>
      <trkpt lat="37.54278" lon="27.62226">
        <ele>728</ele>
        <time>2020-12-02T11:57:30Z</time>
      </trkpt>
      <trkpt lat="37.54278" lon="27.62226">
        <ele>727.8</ele>
        <time>2020-12-02T11:57:29Z</time>
      </trkpt>
      <trkpt lat="37.54278" lon="27.62226">
        <ele>727.6</ele>
        <time>2020-12-02T11:57:28Z</time>
      </trkpt>
      <trkpt lat="37.54278" lon="27.62227">
        <ele>727.8</ele>
        <time>2020-12-02T11:57:27Z</time>
      </trkpt>
      <trkpt lat="37.54278" lon="27.62227">
        <ele>728</ele>
        <time>2020-12-02T11:57:26Z</time>
      </trkpt>
      <trkpt lat="37.54278" lon="27.62227">
        <ele>727.8</ele>
        <time>2020-12-02T11:57:25Z</time>
      </trkpt>
      <trkpt lat="37.54279" lon="27.62227">
        <ele>727.8</ele>
        <time>2020-12-02T11:57:24Z</time>
      </trkpt>
      <trkpt lat="37.54279" lon="27.62228">
        <ele>727.8</ele>
        <time>2020-12-02T11:57:23Z</time>
      </trkpt>
      <trkpt lat="37.54279" lon="27.62228">
        <ele>727.6</ele>
        <time>2020-12-02T11:57:22Z</time>
      </trkpt>
      <trkpt lat="37.54279" lon="27.62228">
        <ele>727.6</ele>
        <time>2020-12-02T11:57:21Z</time>
      </trkpt>
      <trkpt lat="37.54279" lon="27.62228">
        <ele>727.4</ele>
        <time>2020-12-02T11:57:20Z</time>
      </trkpt>
      <trkpt lat="37.54279" lon="27.62229">
        <ele>727.2</ele>
        <time>2020-12-02T11:57:19Z</time>
      </trkpt>
      <trkpt lat="37.54279" lon="27.62229">
        <ele>727</ele>
        <time>2020-12-02T11:57:18Z</time>
      </trkpt>
      <trkpt lat="37.54279" lon="27.62229">
        <ele>726.8</ele>
        <time>2020-12-02T11:57:17Z</time>
      </trkpt>
      <trkpt lat="37.54279" lon="27.62229">
        <ele>726.6</ele>
        <time>2020-12-02T11:57:16Z</time>
      </trkpt>
      <trkpt lat="37.54279" lon="27.6223">
        <ele>726.4</ele>
        <time>2020-12-02T11:57:15Z</time>
      </trkpt>
      <trkpt lat="37.54279" lon="27.6223">
        <ele>726.2</ele>
        <time>2020-12-02T11:57:14Z</time>
      </trkpt>
      <trkpt lat="37.54279" lon="27.6223">
        <ele>725.8</ele>
        <time>2020-12-02T11:57:13Z</time>
      </trkpt>
      <trkpt lat="37.54279" lon="27.6223">
        <ele>725.8</ele>
        <time>2020-12-02T11:57:12Z</time>
      </trkpt>
      <trkpt lat="37.54279" lon="27.62231">
        <ele>725.6</ele>
        <time>2020-12-02T11:57:11Z</time>
      </trkpt>
      <trkpt lat="37.54279" lon="27.62231">
        <ele>725.4</ele>
        <time>2020-12-02T11:57:10Z</time>
      </trkpt>
      <trkpt lat="37.54279" lon="27.62231">
        <ele>725.4</ele>
        <time>2020-12-02T11:57:09Z</time>
      </trkpt>
      <trkpt lat="37.54279" lon="27.62231">
        <ele>725.2</ele>
        <time>2020-12-02T11:57:08Z</time>
      </trkpt>
      <trkpt lat="37.54279" lon="27.62232">
        <ele>725.2</ele>
        <time>2020-12-02T11:57:07Z</time>
      </trkpt>
      <trkpt lat="37.54279" lon="27.62232">
        <ele>725</ele>
        <time>2020-12-02T11:57:06Z</time>
      </trkpt>
      <trkpt lat="37.5428" lon="27.62232">
        <ele>724.8</ele>
        <time>2020-12-02T11:57:05Z</time>
      </trkpt>
      <trkpt lat="37.5428" lon="27.62232">
        <ele>724.6</ele>
        <time>2020-12-02T11:57:04Z</time>
      </trkpt>
      <trkpt lat="37.5428" lon="27.62233">
        <ele>724.6</ele>
        <time>2020-12-02T11:57:03Z</time>
      </trkpt>
      <trkpt lat="37.5428" lon="27.62233">
        <ele>724.4</ele>
        <time>2020-12-02T11:57:02Z</time>
      </trkpt>
      <trkpt lat="37.5428" lon="27.62233">
        <ele>724.2</ele>
        <time>2020-12-02T11:57:01Z</time>
      </trkpt>
      <trkpt lat="37.5428" lon="27.62233">
        <ele>724.2</ele>
        <time>2020-12-02T11:57:00Z</time>
      </trkpt>
      <trkpt lat="37.5428" lon="27.62233">
        <ele>723.8</ele>
        <time>2020-12-02T11:56:59Z</time>
      </trkpt>
      <trkpt lat="37.5428" lon="27.62233">
        <ele>723.6</ele>
        <time>2020-12-02T11:56:58Z</time>
      </trkpt>
      <trkpt lat="37.54281" lon="27.62233">
        <ele>723.4</ele>
        <time>2020-12-02T11:56:57Z</time>
      </trkpt>
      <trkpt lat="37.54281" lon="27.62233">
        <ele>723.2</ele>
        <time>2020-12-02T11:56:56Z</time>
      </trkpt>
      <trkpt lat="37.54281" lon="27.62233">
        <ele>723.2</ele>
        <time>2020-12-02T11:56:55Z</time>
      </trkpt>
      <trkpt lat="37.54281" lon="27.62233">
        <ele>723</ele>
        <time>2020-12-02T11:56:54Z</time>
      </trkpt>
      <trkpt lat="37.54282" lon="27.62233">
        <ele>722.8</ele>
        <time>2020-12-02T11:56:53Z</time>
      </trkpt>
      <trkpt lat="37.54282" lon="27.62233">
        <ele>722.6</ele>
        <time>2020-12-02T11:56:52Z</time>
      </trkpt>
      <trkpt lat="37.54282" lon="27.62233">
        <ele>722.4</ele>
        <time>2020-12-02T11:56:51Z</time>
      </trkpt>
      <trkpt lat="37.54282" lon="27.62233">
        <ele>722.2</ele>
        <time>2020-12-02T11:56:50Z</time>
      </trkpt>
      <trkpt lat="37.54283" lon="27.62233">
        <ele>722.2</ele>
        <time>2020-12-02T11:56:49Z</time>
      </trkpt>
      <trkpt lat="37.54283" lon="27.62234">
        <ele>722.2</ele>
        <time>2020-12-02T11:56:48Z</time>
      </trkpt>
      <trkpt lat="37.54283" lon="27.62234">
        <ele>722</ele>
        <time>2020-12-02T11:56:47Z</time>
      </trkpt>
      <trkpt lat="37.54283" lon="27.62234">
        <ele>721.8</ele>
        <time>2020-12-02T11:56:46Z</time>
      </trkpt>
      <trkpt lat="37.54283" lon="27.62234">
        <ele>721.6</ele>
        <time>2020-12-02T11:56:45Z</time>
      </trkpt>
      <trkpt lat="37.54284" lon="27.62234">
        <ele>721.8</ele>
        <time>2020-12-02T11:56:44Z</time>
      </trkpt>
      <trkpt lat="37.54284" lon="27.62234">
        <ele>721.6</ele>
        <time>2020-12-02T11:56:43Z</time>
      </trkpt>
      <trkpt lat="37.54284" lon="27.62234">
        <ele>721.6</ele>
        <time>2020-12-02T11:56:42Z</time>
      </trkpt>
      <trkpt lat="37.54284" lon="27.62234">
        <ele>721.4</ele>
        <time>2020-12-02T11:56:41Z</time>
      </trkpt>
      <trkpt lat="37.54285" lon="27.62234">
        <ele>721.2</ele>
        <time>2020-12-02T11:56:40Z</time>
      </trkpt>
      <trkpt lat="37.54285" lon="27.62234">
        <ele>721.2</ele>
        <time>2020-12-02T11:56:39Z</time>
      </trkpt>
      <trkpt lat="37.54285" lon="27.62234">
        <ele>721</ele>
        <time>2020-12-02T11:56:38Z</time>
      </trkpt>
      <trkpt lat="37.54285" lon="27.62234">
        <ele>720.8</ele>
        <time>2020-12-02T11:56:37Z</time>
      </trkpt>
      <trkpt lat="37.54286" lon="27.62234">
        <ele>720.8</ele>
        <time>2020-12-02T11:56:36Z</time>
      </trkpt>
      <trkpt lat="37.54286" lon="27.62234">
        <ele>720.6</ele>
        <time>2020-12-02T11:56:35Z</time>
      </trkpt>
      <trkpt lat="37.54286" lon="27.62234">
        <ele>720.4</ele>
        <time>2020-12-02T11:56:34Z</time>
      </trkpt>
      <trkpt lat="37.54286" lon="27.62234">
        <ele>720.2</ele>
        <time>2020-12-02T11:56:33Z</time>
      </trkpt>
      <trkpt lat="37.54286" lon="27.62234">
        <ele>720</ele>
        <time>2020-12-02T11:56:32Z</time>
      </trkpt>
      <trkpt lat="37.54287" lon="27.62234">
        <ele>720</ele>
        <time>2020-12-02T11:56:31Z</time>
      </trkpt>
      <trkpt lat="37.54287" lon="27.62234">
        <ele>720</ele>
        <time>2020-12-02T11:56:30Z</time>
      </trkpt>
      <trkpt lat="37.54287" lon="27.62234">
        <ele>719.8</ele>
        <time>2020-12-02T11:56:29Z</time>
      </trkpt>
      <trkpt lat="37.54287" lon="27.62234">
        <ele>719.6</ele>
        <time>2020-12-02T11:56:28Z</time>
      </trkpt>
      <trkpt lat="37.54288" lon="27.62234">
        <ele>719.4</ele>
        <time>2020-12-02T11:56:27Z</time>
      </trkpt>
      <trkpt lat="37.54288" lon="27.62234">
        <ele>719.2</ele>
        <time>2020-12-02T11:56:26Z</time>
      </trkpt>
      <trkpt lat="37.54288" lon="27.62234">
        <ele>719</ele>
        <time>2020-12-02T11:56:25Z</time>
      </trkpt>
      <trkpt lat="37.54288" lon="27.62234">
        <ele>718.8</ele>
        <time>2020-12-02T11:56:24Z</time>
      </trkpt>
      <trkpt lat="37.54289" lon="27.62234">
        <ele>718.6</ele>
        <time>2020-12-02T11:56:23Z</time>
      </trkpt>
      <trkpt lat="37.54289" lon="27.62235">
        <ele>718.6</ele>
        <time>2020-12-02T11:56:22Z</time>
      </trkpt>
      <trkpt lat="37.54289" lon="27.62235">
        <ele>718.6</ele>
        <time>2020-12-02T11:56:21Z</time>
      </trkpt>
      <trkpt lat="37.54289" lon="27.62234">
        <ele>718.4</ele>
        <time>2020-12-02T11:56:20Z</time>
      </trkpt>
      <trkpt lat="37.54289" lon="27.62234">
        <ele>718.4</ele>
        <time>2020-12-02T11:56:19Z</time>
      </trkpt>
      <trkpt lat="37.54289" lon="27.62234">
        <ele>718.2</ele>
        <time>2020-12-02T11:56:18Z</time>
      </trkpt>
      <trkpt lat="37.54289" lon="27.62233">
        <ele>718.2</ele>
        <time>2020-12-02T11:56:17Z</time>
      </trkpt>
      <trkpt lat="37.54289" lon="27.62233">
        <ele>718</ele>
        <time>2020-12-02T11:56:16Z</time>
      </trkpt>
      <trkpt lat="37.54289" lon="27.62233">
        <ele>717.8</ele>
        <time>2020-12-02T11:56:15Z</time>
      </trkpt>
      <trkpt lat="37.54288" lon="27.62232">
        <ele>717.8</ele>
        <time>2020-12-02T11:56:14Z</time>
      </trkpt>
      <trkpt lat="37.54288" lon="27.62232">
        <ele>717.4</ele>
        <time>2020-12-02T11:56:13Z</time>
      </trkpt>
      <trkpt lat="37.54288" lon="27.62232">
        <ele>717.2</ele>
        <time>2020-12-02T11:56:12Z</time>
      </trkpt>
      <trkpt lat="37.54288" lon="27.62231">
        <ele>717.2</ele>
        <time>2020-12-02T11:56:11Z</time>
      </trkpt>
      <trkpt lat="37.54288" lon="27.62231">
        <ele>717.2</ele>
        <time>2020-12-02T11:56:10Z</time>
      </trkpt>
      <trkpt lat="37.54288" lon="27.62231">
        <ele>717</ele>
        <time>2020-12-02T11:56:09Z</time>
      </trkpt>
      <trkpt lat="37.54288" lon="27.62231">
        <ele>717.2</ele>
        <time>2020-12-02T11:56:08Z</time>
      </trkpt>
      <trkpt lat="37.54288" lon="27.6223">
        <ele>717.2</ele>
        <time>2020-12-02T11:56:07Z</time>
      </trkpt>
      <trkpt lat="37.54288" lon="27.6223">
        <ele>717.2</ele>
        <time>2020-12-02T11:56:06Z</time>
      </trkpt>
      <trkpt lat="37.54288" lon="27.6223">
        <ele>717.6</ele>
        <time>2020-12-02T11:56:05Z</time>
      </trkpt>
      <trkpt lat="37.54288" lon="27.62229">
        <ele>717.8</ele>
        <time>2020-12-02T11:56:04Z</time>
      </trkpt>
      <trkpt lat="37.54287" lon="27.62229">
        <ele>717.6</ele>
        <time>2020-12-02T11:56:03Z</time>
      </trkpt>
      <trkpt lat="37.54287" lon="27.62229">
        <ele>717.6</ele>
        <time>2020-12-02T11:56:02Z</time>
      </trkpt>
      <trkpt lat="37.54287" lon="27.62228">
        <ele>717.2</ele>
        <time>2020-12-02T11:56:01Z</time>
      </trkpt>
      <trkpt lat="37.54287" lon="27.62228">
        <ele>717.2</ele>
        <time>2020-12-02T11:56:00Z</time>
      </trkpt>
      <trkpt lat="37.54287" lon="27.62228">
        <ele>717</ele>
        <time>2020-12-02T11:55:59Z</time>
      </trkpt>
      <trkpt lat="37.54287" lon="27.62228">
        <ele>717.2</ele>
        <time>2020-12-02T11:55:58Z</time>
      </trkpt>
      <trkpt lat="37.54287" lon="27.62227">
        <ele>717</ele>
        <time>2020-12-02T11:55:57Z</time>
      </trkpt>
      <trkpt lat="37.54287" lon="27.62227">
        <ele>717</ele>
        <time>2020-12-02T11:55:56Z</time>
      </trkpt>
      <trkpt lat="37.54287" lon="27.62227">
        <ele>717</ele>
        <time>2020-12-02T11:55:55Z</time>
      </trkpt>
      <trkpt lat="37.54287" lon="27.62226">
        <ele>717</ele>
        <time>2020-12-02T11:55:54Z</time>
      </trkpt>
      <trkpt lat="37.54287" lon="27.62226">
        <ele>717</ele>
        <time>2020-12-02T11:55:53Z</time>
      </trkpt>
      <trkpt lat="37.54287" lon="27.62226">
        <ele>717</ele>
        <time>2020-12-02T11:55:52Z</time>
      </trkpt>
      <trkpt lat="37.54286" lon="27.62225">
        <ele>717</ele>
        <time>2020-12-02T11:55:51Z</time>
      </trkpt>
      <trkpt lat="37.54286" lon="27.62225">
        <ele>717</ele>
        <time>2020-12-02T11:55:50Z</time>
      </trkpt>
      <trkpt lat="37.54286" lon="27.62225">
        <ele>717</ele>
        <time>2020-12-02T11:55:49Z</time>
      </trkpt>
      <trkpt lat="37.54286" lon="27.62224">
        <ele>717.4</ele>
        <time>2020-12-02T11:55:48Z</time>
      </trkpt>
      <trkpt lat="37.54286" lon="27.62224">
        <ele>717.6</ele>
        <time>2020-12-02T11:55:47Z</time>
      </trkpt>
      <trkpt lat="37.54286" lon="27.62224">
        <ele>717.6</ele>
        <time>2020-12-02T11:55:46Z</time>
      </trkpt>
      <trkpt lat="37.54286" lon="27.62224">
        <ele>717.8</ele>
        <time>2020-12-02T11:55:45Z</time>
      </trkpt>
      <trkpt lat="37.54286" lon="27.62223">
        <ele>717.8</ele>
        <time>2020-12-02T11:55:44Z</time>
      </trkpt>
      <trkpt lat="37.54286" lon="27.62223">
        <ele>717.6</ele>
        <time>2020-12-02T11:55:43Z</time>
      </trkpt>
      <trkpt lat="37.54287" lon="27.62223">
        <ele>717.4</ele>
        <time>2020-12-02T11:55:42Z</time>
      </trkpt>
      <trkpt lat="37.54287" lon="27.62223">
        <ele>717.4</ele>
        <time>2020-12-02T11:55:41Z</time>
      </trkpt>
      <trkpt lat="37.54287" lon="27.62223">
        <ele>717.2</ele>
        <time>2020-12-02T11:55:40Z</time>
      </trkpt>
      <trkpt lat="37.54288" lon="27.62223">
        <ele>716.8</ele>
        <time>2020-12-02T11:55:39Z</time>
      </trkpt>
      <trkpt lat="37.54288" lon="27.62224">
        <ele>716.6</ele>
        <time>2020-12-02T11:55:38Z</time>
      </trkpt>
      <trkpt lat="37.54289" lon="27.62224">
        <ele>716.8</ele>
        <time>2020-12-02T11:55:37Z</time>
      </trkpt>
      <trkpt lat="37.54289" lon="27.62224">
        <ele>717</ele>
        <time>2020-12-02T11:55:36Z</time>
      </trkpt>
      <trkpt lat="37.54289" lon="27.62224">
        <ele>717</ele>
        <time>2020-12-02T11:55:35Z</time>
      </trkpt>
      <trkpt lat="37.5429" lon="27.62224">
        <ele>717</ele>
        <time>2020-12-02T11:55:34Z</time>
      </trkpt>
      <trkpt lat="37.5429" lon="27.62224">
        <ele>717</ele>
        <time>2020-12-02T11:55:33Z</time>
      </trkpt>
      <trkpt lat="37.54291" lon="27.62224">
        <ele>717.2</ele>
        <time>2020-12-02T11:55:32Z</time>
      </trkpt>
      <trkpt lat="37.54291" lon="27.62224">
        <ele>717.4</ele>
        <time>2020-12-02T11:55:31Z</time>
      </trkpt>
      <trkpt lat="37.54291" lon="27.62224">
        <ele>717.6</ele>
        <time>2020-12-02T11:55:30Z</time>
      </trkpt>
      <trkpt lat="37.54292" lon="27.62224">
        <ele>717.4</ele>
        <time>2020-12-02T11:55:29Z</time>
      </trkpt>
      <trkpt lat="37.54292" lon="27.62224">
        <ele>717.4</ele>
        <time>2020-12-02T11:55:28Z</time>
      </trkpt>
      <trkpt lat="37.54293" lon="27.62224">
        <ele>717.4</ele>
        <time>2020-12-02T11:55:27Z</time>
      </trkpt>
      <trkpt lat="37.54293" lon="27.62224">
        <ele>717.6</ele>
        <time>2020-12-02T11:55:26Z</time>
      </trkpt>
      <trkpt lat="37.54293" lon="27.62224">
        <ele>717.6</ele>
        <time>2020-12-02T11:55:25Z</time>
      </trkpt>
      <trkpt lat="37.54294" lon="27.62224">
        <ele>717.6</ele>
        <time>2020-12-02T11:55:24Z</time>
      </trkpt>
      <trkpt lat="37.54294" lon="27.62224">
        <ele>717.6</ele>
        <time>2020-12-02T11:55:23Z</time>
      </trkpt>
      <trkpt lat="37.54295" lon="27.62224">
        <ele>717.4</ele>
        <time>2020-12-02T11:55:22Z</time>
      </trkpt>
      <trkpt lat="37.54295" lon="27.62224">
        <ele>717.2</ele>
        <time>2020-12-02T11:55:21Z</time>
      </trkpt>
      <trkpt lat="37.54295" lon="27.62224">
        <ele>717.2</ele>
        <time>2020-12-02T11:55:20Z</time>
      </trkpt>
      <trkpt lat="37.54296" lon="27.62224">
        <ele>716.6</ele>
        <time>2020-12-02T11:55:19Z</time>
      </trkpt>
      <trkpt lat="37.54296" lon="27.62224">
        <ele>716.2</ele>
        <time>2020-12-02T11:55:18Z</time>
      </trkpt>
      <trkpt lat="37.54297" lon="27.62225">
        <ele>716</ele>
        <time>2020-12-02T11:55:17Z</time>
      </trkpt>
      <trkpt lat="37.54297" lon="27.62225">
        <ele>716</ele>
        <time>2020-12-02T11:55:16Z</time>
      </trkpt>
      <trkpt lat="37.54297" lon="27.62224">
        <ele>715.8</ele>
        <time>2020-12-02T11:55:15Z</time>
      </trkpt>
      <trkpt lat="37.54298" lon="27.62224">
        <ele>715.6</ele>
        <time>2020-12-02T11:55:14Z</time>
      </trkpt>
      <trkpt lat="37.54298" lon="27.62223">
        <ele>715.4</ele>
        <time>2020-12-02T11:55:13Z</time>
      </trkpt>
      <trkpt lat="37.54298" lon="27.62223">
        <ele>715.4</ele>
        <time>2020-12-02T11:55:12Z</time>
      </trkpt>
      <trkpt lat="37.54299" lon="27.62223">
        <ele>715.2</ele>
        <time>2020-12-02T11:55:11Z</time>
      </trkpt>
      <trkpt lat="37.54299" lon="27.62222">
        <ele>715.2</ele>
        <time>2020-12-02T11:55:10Z</time>
      </trkpt>
      <trkpt lat="37.54299" lon="27.62222">
        <ele>715.2</ele>
        <time>2020-12-02T11:55:09Z</time>
      </trkpt>
      <trkpt lat="37.543" lon="27.62221">
        <ele>715</ele>
        <time>2020-12-02T11:55:08Z</time>
      </trkpt>
      <trkpt lat="37.543" lon="27.62221">
        <ele>715</ele>
        <time>2020-12-02T11:55:07Z</time>
      </trkpt>
      <trkpt lat="37.543" lon="27.62221">
        <ele>714.8</ele>
        <time>2020-12-02T11:55:06Z</time>
      </trkpt>
      <trkpt lat="37.54301" lon="27.6222">
        <ele>714.6</ele>
        <time>2020-12-02T11:55:05Z</time>
      </trkpt>
      <trkpt lat="37.54301" lon="27.6222">
        <ele>714.4</ele>
        <time>2020-12-02T11:55:04Z</time>
      </trkpt>
      <trkpt lat="37.54302" lon="27.62219">
        <ele>714.4</ele>
        <time>2020-12-02T11:55:03Z</time>
      </trkpt>
      <trkpt lat="37.54302" lon="27.62219">
        <ele>714.4</ele>
        <time>2020-12-02T11:55:02Z</time>
      </trkpt>
      <trkpt lat="37.54302" lon="27.62219">
        <ele>714.4</ele>
        <time>2020-12-02T11:55:01Z</time>
      </trkpt>
      <trkpt lat="37.54303" lon="27.62218">
        <ele>714.2</ele>
        <time>2020-12-02T11:55:00Z</time>
      </trkpt>
      <trkpt lat="37.54303" lon="27.62218">
        <ele>714</ele>
        <time>2020-12-02T11:54:59Z</time>
      </trkpt>
      <trkpt lat="37.54303" lon="27.62218">
        <ele>714</ele>
        <time>2020-12-02T11:54:58Z</time>
      </trkpt>
      <trkpt lat="37.54304" lon="27.62217">
        <ele>713.8</ele>
        <time>2020-12-02T11:54:57Z</time>
      </trkpt>
      <trkpt lat="37.54304" lon="27.62217">
        <ele>713.4</ele>
        <time>2020-12-02T11:54:56Z</time>
      </trkpt>
      <trkpt lat="37.54304" lon="27.62216">
        <ele>713.2</ele>
        <time>2020-12-02T11:54:55Z</time>
      </trkpt>
      <trkpt lat="37.54305" lon="27.62216">
        <ele>713</ele>
        <time>2020-12-02T11:54:54Z</time>
      </trkpt>
      <trkpt lat="37.54305" lon="27.62216">
        <ele>712.8</ele>
        <time>2020-12-02T11:54:53Z</time>
      </trkpt>
      <trkpt lat="37.54305" lon="27.62216">
        <ele>712.4</ele>
        <time>2020-12-02T11:54:52Z</time>
      </trkpt>
      <trkpt lat="37.54305" lon="27.62216">
        <ele>712.4</ele>
        <time>2020-12-02T11:54:51Z</time>
      </trkpt>
      <trkpt lat="37.54306" lon="27.62216">
        <ele>712.2</ele>
        <time>2020-12-02T11:54:50Z</time>
      </trkpt>
      <trkpt lat="37.54306" lon="27.62216">
        <ele>712.2</ele>
        <time>2020-12-02T11:54:49Z</time>
      </trkpt>
      <trkpt lat="37.54306" lon="27.62216">
        <ele>712</ele>
        <time>2020-12-02T11:54:48Z</time>
      </trkpt>
      <trkpt lat="37.54306" lon="27.62216">
        <ele>711.8</ele>
        <time>2020-12-02T11:54:47Z</time>
      </trkpt>
      <trkpt lat="37.54306" lon="27.62216">
        <ele>711.6</ele>
        <time>2020-12-02T11:54:46Z</time>
      </trkpt>
      <trkpt lat="37.54307" lon="27.62216">
        <ele>711.6</ele>
        <time>2020-12-02T11:54:45Z</time>
      </trkpt>
      <trkpt lat="37.54307" lon="27.62216">
        <ele>711.8</ele>
        <time>2020-12-02T11:54:44Z</time>
      </trkpt>
      <trkpt lat="37.54307" lon="27.62216">
        <ele>712</ele>
        <time>2020-12-02T11:54:43Z</time>
      </trkpt>
      <trkpt lat="37.54307" lon="27.62216">
        <ele>712.2</ele>
        <time>2020-12-02T11:54:42Z</time>
      </trkpt>
      <trkpt lat="37.54308" lon="27.62216">
        <ele>712.2</ele>
        <time>2020-12-02T11:54:41Z</time>
      </trkpt>
      <trkpt lat="37.54308" lon="27.62216">
        <ele>712.2</ele>
        <time>2020-12-02T11:54:40Z</time>
      </trkpt>
      <trkpt lat="37.54308" lon="27.62216">
        <ele>712.2</ele>
        <time>2020-12-02T11:54:39Z</time>
      </trkpt>
      <trkpt lat="37.54308" lon="27.62216">
        <ele>712.2</ele>
        <time>2020-12-02T11:54:38Z</time>
      </trkpt>
      <trkpt lat="37.54309" lon="27.62216">
        <ele>712.2</ele>
        <time>2020-12-02T11:54:37Z</time>
      </trkpt>
      <trkpt lat="37.54309" lon="27.62216">
        <ele>712.2</ele>
        <time>2020-12-02T11:54:36Z</time>
      </trkpt>
      <trkpt lat="37.54309" lon="27.62216">
        <ele>712.2</ele>
        <time>2020-12-02T11:54:35Z</time>
      </trkpt>
      <trkpt lat="37.54309" lon="27.62216">
        <ele>712.2</ele>
        <time>2020-12-02T11:54:34Z</time>
      </trkpt>
      <trkpt lat="37.54309" lon="27.62216">
        <ele>712.2</ele>
        <time>2020-12-02T11:54:33Z</time>
      </trkpt>
      <trkpt lat="37.5431" lon="27.62216">
        <ele>712.2</ele>
        <time>2020-12-02T11:54:32Z</time>
      </trkpt>
      <trkpt lat="37.5431" lon="27.62216">
        <ele>712.2</ele>
        <time>2020-12-02T11:54:31Z</time>
      </trkpt>
      <trkpt lat="37.5431" lon="27.62216">
        <ele>712</ele>
        <time>2020-12-02T11:54:30Z</time>
      </trkpt>
      <trkpt lat="37.5431" lon="27.62216">
        <ele>711.8</ele>
        <time>2020-12-02T11:54:29Z</time>
      </trkpt>
      <trkpt lat="37.54311" lon="27.62216">
        <ele>711.8</ele>
        <time>2020-12-02T11:54:28Z</time>
      </trkpt>
      <trkpt lat="37.54311" lon="27.62216">
        <ele>711.6</ele>
        <time>2020-12-02T11:54:27Z</time>
      </trkpt>
      <trkpt lat="37.54311" lon="27.62216">
        <ele>711.6</ele>
        <time>2020-12-02T11:54:26Z</time>
      </trkpt>
      <trkpt lat="37.54311" lon="27.62216">
        <ele>711.2</ele>
        <time>2020-12-02T11:54:25Z</time>
      </trkpt>
      <trkpt lat="37.54312" lon="27.62215">
        <ele>710.4</ele>
        <time>2020-12-02T11:54:24Z</time>
      </trkpt>
      <trkpt lat="37.54312" lon="27.62215">
        <ele>710</ele>
        <time>2020-12-02T11:54:23Z</time>
      </trkpt>
      <trkpt lat="37.54312" lon="27.62215">
        <ele>709.8</ele>
        <time>2020-12-02T11:54:22Z</time>
      </trkpt>
      <trkpt lat="37.54312" lon="27.62215">
        <ele>709.6</ele>
        <time>2020-12-02T11:54:21Z</time>
      </trkpt>
      <trkpt lat="37.54312" lon="27.62215">
        <ele>709.4</ele>
        <time>2020-12-02T11:54:20Z</time>
      </trkpt>
      <trkpt lat="37.54313" lon="27.62215">
        <ele>709.4</ele>
        <time>2020-12-02T11:54:19Z</time>
      </trkpt>
      <trkpt lat="37.54313" lon="27.62215">
        <ele>709.2</ele>
        <time>2020-12-02T11:54:18Z</time>
      </trkpt>
      <trkpt lat="37.54313" lon="27.62215">
        <ele>709</ele>
        <time>2020-12-02T11:54:17Z</time>
      </trkpt>
      <trkpt lat="37.54313" lon="27.62215">
        <ele>709</ele>
        <time>2020-12-02T11:54:16Z</time>
      </trkpt>
      <trkpt lat="37.54314" lon="27.62215">
        <ele>708.8</ele>
        <time>2020-12-02T11:54:15Z</time>
      </trkpt>
      <trkpt lat="37.54314" lon="27.62215">
        <ele>709</ele>
        <time>2020-12-02T11:54:14Z</time>
      </trkpt>
      <trkpt lat="37.54314" lon="27.62215">
        <ele>708.8</ele>
        <time>2020-12-02T11:54:13Z</time>
      </trkpt>
      <trkpt lat="37.54314" lon="27.62215">
        <ele>708.8</ele>
        <time>2020-12-02T11:54:12Z</time>
      </trkpt>
      <trkpt lat="37.54314" lon="27.62215">
        <ele>708.8</ele>
        <time>2020-12-02T11:54:11Z</time>
      </trkpt>
      <trkpt lat="37.54314" lon="27.62214">
        <ele>708.8</ele>
        <time>2020-12-02T11:54:10Z</time>
      </trkpt>
      <trkpt lat="37.54314" lon="27.62214">
        <ele>709</ele>
        <time>2020-12-02T11:54:09Z</time>
      </trkpt>
      <trkpt lat="37.54314" lon="27.62214">
        <ele>709.2</ele>
        <time>2020-12-02T11:54:08Z</time>
      </trkpt>
      <trkpt lat="37.54314" lon="27.62214">
        <ele>709.2</ele>
        <time>2020-12-02T11:54:07Z</time>
      </trkpt>
      <trkpt lat="37.54314" lon="27.62214">
        <ele>709</ele>
        <time>2020-12-02T11:54:06Z</time>
      </trkpt>
      <trkpt lat="37.54314" lon="27.62214">
        <ele>708.8</ele>
        <time>2020-12-02T11:54:05Z</time>
      </trkpt>
      <trkpt lat="37.54314" lon="27.62213">
        <ele>708.8</ele>
        <time>2020-12-02T11:54:04Z</time>
      </trkpt>
      <trkpt lat="37.54314" lon="27.62213">
        <ele>708.4</ele>
        <time>2020-12-02T11:54:03Z</time>
      </trkpt>
      <trkpt lat="37.54314" lon="27.62213">
        <ele>708.4</ele>
        <time>2020-12-02T11:54:02Z</time>
      </trkpt>
      <trkpt lat="37.54314" lon="27.62213">
        <ele>708.4</ele>
        <time>2020-12-02T11:54:01Z</time>
      </trkpt>
      <trkpt lat="37.54314" lon="27.62213">
        <ele>708.4</ele>
        <time>2020-12-02T11:54:00Z</time>
      </trkpt>
      <trkpt lat="37.54314" lon="27.62213">
        <ele>708.4</ele>
        <time>2020-12-02T11:53:59Z</time>
      </trkpt>
      <trkpt lat="37.54314" lon="27.62213">
        <ele>708.6</ele>
        <time>2020-12-02T11:53:58Z</time>
      </trkpt>
      <trkpt lat="37.54314" lon="27.62212">
        <ele>708.6</ele>
        <time>2020-12-02T11:53:57Z</time>
      </trkpt>
      <trkpt lat="37.54315" lon="27.62212">
        <ele>708.6</ele>
        <time>2020-12-02T11:53:56Z</time>
      </trkpt>
      <trkpt lat="37.54315" lon="27.62212">
        <ele>708.6</ele>
        <time>2020-12-02T11:53:55Z</time>
      </trkpt>
      <trkpt lat="37.54315" lon="27.62212">
        <ele>708.4</ele>
        <time>2020-12-02T11:53:54Z</time>
      </trkpt>
      <trkpt lat="37.54315" lon="27.62212">
        <ele>708.4</ele>
        <time>2020-12-02T11:53:53Z</time>
      </trkpt>
      <trkpt lat="37.54315" lon="27.62212">
        <ele>708.2</ele>
        <time>2020-12-02T11:53:52Z</time>
      </trkpt>
      <trkpt lat="37.54315" lon="27.62211">
        <ele>708.2</ele>
        <time>2020-12-02T11:53:51Z</time>
      </trkpt>
      <trkpt lat="37.54315" lon="27.62211">
        <ele>708.2</ele>
        <time>2020-12-02T11:53:50Z</time>
      </trkpt>
      <trkpt lat="37.54315" lon="27.62211">
        <ele>708.2</ele>
        <time>2020-12-02T11:53:49Z</time>
      </trkpt>
      <trkpt lat="37.54315" lon="27.62211">
        <ele>708</ele>
        <time>2020-12-02T11:53:48Z</time>
      </trkpt>
      <trkpt lat="37.54315" lon="27.62211">
        <ele>708</ele>
        <time>2020-12-02T11:53:47Z</time>
      </trkpt>
      <trkpt lat="37.54315" lon="27.62211">
        <ele>708</ele>
        <time>2020-12-02T11:53:46Z</time>
      </trkpt>
      <trkpt lat="37.54315" lon="27.6221">
        <ele>708</ele>
        <time>2020-12-02T11:53:45Z</time>
      </trkpt>
      <trkpt lat="37.54315" lon="27.6221">
        <ele>708</ele>
        <time>2020-12-02T11:53:44Z</time>
      </trkpt>
      <trkpt lat="37.54315" lon="27.6221">
        <ele>708</ele>
        <time>2020-12-02T11:53:43Z</time>
      </trkpt>
      <trkpt lat="37.54315" lon="27.6221">
        <ele>708</ele>
        <time>2020-12-02T11:53:42Z</time>
      </trkpt>
      <trkpt lat="37.54315" lon="27.6221">
        <ele>708</ele>
        <time>2020-12-02T11:53:41Z</time>
      </trkpt>
      <trkpt lat="37.54315" lon="27.6221">
        <ele>708</ele>
        <time>2020-12-02T11:53:40Z</time>
      </trkpt>
      <trkpt lat="37.54315" lon="27.62209">
        <ele>708</ele>
        <time>2020-12-02T11:53:39Z</time>
      </trkpt>
      <trkpt lat="37.54315" lon="27.62209">
        <ele>708</ele>
        <time>2020-12-02T11:53:38Z</time>
      </trkpt>
      <trkpt lat="37.54315" lon="27.62209">
        <ele>708</ele>
        <time>2020-12-02T11:53:37Z</time>
      </trkpt>
      <trkpt lat="37.54315" lon="27.62209">
        <ele>708</ele>
        <time>2020-12-02T11:53:36Z</time>
      </trkpt>
      <trkpt lat="37.54316" lon="27.62209">
        <ele>708</ele>
        <time>2020-12-02T11:53:35Z</time>
      </trkpt>
      <trkpt lat="37.54316" lon="27.62209">
        <ele>708</ele>
        <time>2020-12-02T11:53:34Z</time>
      </trkpt>
      <trkpt lat="37.54316" lon="27.62209">
        <ele>708</ele>
        <time>2020-12-02T11:53:33Z</time>
      </trkpt>
      <trkpt lat="37.54316" lon="27.62208">
        <ele>708</ele>
        <time>2020-12-02T11:53:32Z</time>
      </trkpt>
      <trkpt lat="37.54316" lon="27.62208">
        <ele>708</ele>
        <time>2020-12-02T11:53:31Z</time>
      </trkpt>
      <trkpt lat="37.54316" lon="27.62208">
        <ele>708.2</ele>
        <time>2020-12-02T11:53:30Z</time>
      </trkpt>
      <trkpt lat="37.54316" lon="27.62208">
        <ele>708.2</ele>
        <time>2020-12-02T11:53:29Z</time>
      </trkpt>
      <trkpt lat="37.54316" lon="27.62208">
        <ele>708.2</ele>
        <time>2020-12-02T11:53:28Z</time>
      </trkpt>
      <trkpt lat="37.54316" lon="27.62208">
        <ele>708.2</ele>
        <time>2020-12-02T11:53:27Z</time>
      </trkpt>
      <trkpt lat="37.54316" lon="27.62207">
        <ele>708</ele>
        <time>2020-12-02T11:53:26Z</time>
      </trkpt>
      <trkpt lat="37.54316" lon="27.62207">
        <ele>708.2</ele>
        <time>2020-12-02T11:53:25Z</time>
      </trkpt>
      <trkpt lat="37.54316" lon="27.62207">
        <ele>708.2</ele>
        <time>2020-12-02T11:53:24Z</time>
      </trkpt>
      <trkpt lat="37.54316" lon="27.62207">
        <ele>708</ele>
        <time>2020-12-02T11:53:23Z</time>
      </trkpt>
      <trkpt lat="37.54316" lon="27.62207">
        <ele>708</ele>
        <time>2020-12-02T11:53:22Z</time>
      </trkpt>
      <trkpt lat="37.54316" lon="27.62207">
        <ele>707.8</ele>
        <time>2020-12-02T11:53:21Z</time>
      </trkpt>
      <trkpt lat="37.54316" lon="27.62206">
        <ele>707.8</ele>
        <time>2020-12-02T11:53:20Z</time>
      </trkpt>
      <trkpt lat="37.54316" lon="27.62206">
        <ele>707.8</ele>
        <time>2020-12-02T11:53:19Z</time>
      </trkpt>
      <trkpt lat="37.54316" lon="27.62206">
        <ele>707.8</ele>
        <time>2020-12-02T11:53:18Z</time>
      </trkpt>
      <trkpt lat="37.54316" lon="27.62206">
        <ele>707.6</ele>
        <time>2020-12-02T11:53:17Z</time>
      </trkpt>
      <trkpt lat="37.54316" lon="27.62206">
        <ele>707.6</ele>
        <time>2020-12-02T11:53:16Z</time>
      </trkpt>
      <trkpt lat="37.54316" lon="27.62206">
        <ele>707.2</ele>
        <time>2020-12-02T11:53:15Z</time>
      </trkpt>
      <trkpt lat="37.54317" lon="27.62205">
        <ele>707</ele>
        <time>2020-12-02T11:53:14Z</time>
      </trkpt>
      <trkpt lat="37.54317" lon="27.62205">
        <ele>706.6</ele>
        <time>2020-12-02T11:53:13Z</time>
      </trkpt>
      <trkpt lat="37.54317" lon="27.62205">
        <ele>707</ele>
        <time>2020-12-02T11:53:12Z</time>
      </trkpt>
      <trkpt lat="37.54317" lon="27.62205">
        <ele>706.8</ele>
        <time>2020-12-02T11:53:11Z</time>
      </trkpt>
      <trkpt lat="37.54317" lon="27.62205">
        <ele>706.8</ele>
        <time>2020-12-02T11:53:10Z</time>
      </trkpt>
      <trkpt lat="37.54317" lon="27.62205">
        <ele>706.6</ele>
        <time>2020-12-02T11:53:09Z</time>
      </trkpt>
      <trkpt lat="37.54317" lon="27.62205">
        <ele>706.4</ele>
        <time>2020-12-02T11:53:08Z</time>
      </trkpt>
      <trkpt lat="37.54317" lon="27.62204">
        <ele>706.2</ele>
        <time>2020-12-02T11:53:07Z</time>
      </trkpt>
      <trkpt lat="37.54317" lon="27.62205">
        <ele>706</ele>
        <time>2020-12-02T11:53:06Z</time>
      </trkpt>
      <trkpt lat="37.54317" lon="27.62205">
        <ele>706</ele>
        <time>2020-12-02T11:53:05Z</time>
      </trkpt>
      <trkpt lat="37.54317" lon="27.62205">
        <ele>705.8</ele>
        <time>2020-12-02T11:53:04Z</time>
      </trkpt>
      <trkpt lat="37.54317" lon="27.62205">
        <ele>705.6</ele>
        <time>2020-12-02T11:53:03Z</time>
      </trkpt>
      <trkpt lat="37.54317" lon="27.62205">
        <ele>705.6</ele>
        <time>2020-12-02T11:53:02Z</time>
      </trkpt>
      <trkpt lat="37.54317" lon="27.62205">
        <ele>705.4</ele>
        <time>2020-12-02T11:53:01Z</time>
      </trkpt>
      <trkpt lat="37.54317" lon="27.62206">
        <ele>705.4</ele>
        <time>2020-12-02T11:53:00Z</time>
      </trkpt>
      <trkpt lat="37.54317" lon="27.62206">
        <ele>705.2</ele>
        <time>2020-12-02T11:52:59Z</time>
      </trkpt>
      <trkpt lat="37.54317" lon="27.62206">
        <ele>705</ele>
        <time>2020-12-02T11:52:58Z</time>
      </trkpt>
      <trkpt lat="37.54317" lon="27.62206">
        <ele>705</ele>
        <time>2020-12-02T11:52:57Z</time>
      </trkpt>
      <trkpt lat="37.54317" lon="27.62206">
        <ele>704.8</ele>
        <time>2020-12-02T11:52:56Z</time>
      </trkpt>
      <trkpt lat="37.54317" lon="27.62206">
        <ele>704.8</ele>
        <time>2020-12-02T11:52:55Z</time>
      </trkpt>
      <trkpt lat="37.54318" lon="27.62207">
        <ele>705</ele>
        <time>2020-12-02T11:52:54Z</time>
      </trkpt>
      <trkpt lat="37.54318" lon="27.62207">
        <ele>705</ele>
        <time>2020-12-02T11:52:53Z</time>
      </trkpt>
      <trkpt lat="37.54318" lon="27.62207">
        <ele>704.8</ele>
        <time>2020-12-02T11:52:52Z</time>
      </trkpt>
      <trkpt lat="37.54318" lon="27.62207">
        <ele>704.8</ele>
        <time>2020-12-02T11:52:51Z</time>
      </trkpt>
      <trkpt lat="37.54318" lon="27.62207">
        <ele>704.8</ele>
        <time>2020-12-02T11:52:50Z</time>
      </trkpt>
      <trkpt lat="37.54318" lon="27.62207">
        <ele>704.8</ele>
        <time>2020-12-02T11:52:49Z</time>
      </trkpt>
      <trkpt lat="37.54318" lon="27.62208">
        <ele>704.8</ele>
        <time>2020-12-02T11:52:48Z</time>
      </trkpt>
      <trkpt lat="37.54318" lon="27.62208">
        <ele>705</ele>
        <time>2020-12-02T11:52:47Z</time>
      </trkpt>
      <trkpt lat="37.54318" lon="27.62208">
        <ele>705</ele>
        <time>2020-12-02T11:52:46Z</time>
      </trkpt>
      <trkpt lat="37.54318" lon="27.62208">
        <ele>705</ele>
        <time>2020-12-02T11:52:45Z</time>
      </trkpt>
      <trkpt lat="37.54318" lon="27.62208">
        <ele>705</ele>
        <time>2020-12-02T11:52:44Z</time>
      </trkpt>
      <trkpt lat="37.54318" lon="27.62208">
        <ele>705</ele>
        <time>2020-12-02T11:52:43Z</time>
      </trkpt>
      <trkpt lat="37.54318" lon="27.62209">
        <ele>705</ele>
        <time>2020-12-02T11:52:42Z</time>
      </trkpt>
      <trkpt lat="37.54318" lon="27.62209">
        <ele>705.2</ele>
        <time>2020-12-02T11:52:41Z</time>
      </trkpt>
      <trkpt lat="37.54318" lon="27.62209">
        <ele>705.2</ele>
        <time>2020-12-02T11:52:40Z</time>
      </trkpt>
      <trkpt lat="37.54318" lon="27.62209">
        <ele>705.2</ele>
        <time>2020-12-02T11:52:39Z</time>
      </trkpt>
      <trkpt lat="37.54318" lon="27.62209">
        <ele>705</ele>
        <time>2020-12-02T11:52:38Z</time>
      </trkpt>
      <trkpt lat="37.54318" lon="27.62209">
        <ele>705.2</ele>
        <time>2020-12-02T11:52:37Z</time>
      </trkpt>
      <trkpt lat="37.54318" lon="27.6221">
        <ele>705.2</ele>
        <time>2020-12-02T11:52:36Z</time>
      </trkpt>
      <trkpt lat="37.54319" lon="27.6221">
        <ele>705.4</ele>
        <time>2020-12-02T11:52:35Z</time>
      </trkpt>
      <trkpt lat="37.54319" lon="27.6221">
        <ele>705.4</ele>
        <time>2020-12-02T11:52:34Z</time>
      </trkpt>
      <trkpt lat="37.54319" lon="27.6221">
        <ele>705.4</ele>
        <time>2020-12-02T11:52:33Z</time>
      </trkpt>
      <trkpt lat="37.54319" lon="27.6221">
        <ele>705.4</ele>
        <time>2020-12-02T11:52:32Z</time>
      </trkpt>
      <trkpt lat="37.54319" lon="27.6221">
        <ele>705.4</ele>
        <time>2020-12-02T11:52:31Z</time>
      </trkpt>
      <trkpt lat="37.54319" lon="27.62211">
        <ele>705.6</ele>
        <time>2020-12-02T11:52:30Z</time>
      </trkpt>
      <trkpt lat="37.54319" lon="27.62211">
        <ele>705.4</ele>
        <time>2020-12-02T11:52:29Z</time>
      </trkpt>
      <trkpt lat="37.54319" lon="27.62211">
        <ele>705.4</ele>
        <time>2020-12-02T11:52:28Z</time>
      </trkpt>
      <trkpt lat="37.54319" lon="27.62211">
        <ele>705.4</ele>
        <time>2020-12-02T11:52:27Z</time>
      </trkpt>
      <trkpt lat="37.54319" lon="27.62211">
        <ele>705.4</ele>
        <time>2020-12-02T11:52:26Z</time>
      </trkpt>
      <trkpt lat="37.54319" lon="27.62212">
        <ele>705.4</ele>
        <time>2020-12-02T11:52:25Z</time>
      </trkpt>
      <trkpt lat="37.54319" lon="27.62212">
        <ele>705.2</ele>
        <time>2020-12-02T11:52:24Z</time>
      </trkpt>
      <trkpt lat="37.54319" lon="27.62212">
        <ele>705.4</ele>
        <time>2020-12-02T11:52:23Z</time>
      </trkpt>
      <trkpt lat="37.54319" lon="27.62212">
        <ele>705.4</ele>
        <time>2020-12-02T11:52:22Z</time>
      </trkpt>
      <trkpt lat="37.54319" lon="27.62212">
        <ele>705.4</ele>
        <time>2020-12-02T11:52:21Z</time>
      </trkpt>
      <trkpt lat="37.54319" lon="27.62212">
        <ele>705.4</ele>
        <time>2020-12-02T11:52:20Z</time>
      </trkpt>
      <trkpt lat="37.54319" lon="27.62213">
        <ele>705.4</ele>
        <time>2020-12-02T11:52:19Z</time>
      </trkpt>
      <trkpt lat="37.54319" lon="27.62213">
        <ele>705.4</ele>
        <time>2020-12-02T11:52:18Z</time>
      </trkpt>
      <trkpt lat="37.5432" lon="27.62213">
        <ele>705.4</ele>
        <time>2020-12-02T11:52:17Z</time>
      </trkpt>
      <trkpt lat="37.5432" lon="27.62213">
        <ele>705.4</ele>
        <time>2020-12-02T11:52:16Z</time>
      </trkpt>
      <trkpt lat="37.5432" lon="27.62213">
        <ele>705.4</ele>
        <time>2020-12-02T11:52:15Z</time>
      </trkpt>
      <trkpt lat="37.5432" lon="27.62213">
        <ele>705.4</ele>
        <time>2020-12-02T11:52:14Z</time>
      </trkpt>
      <trkpt lat="37.5432" lon="27.62214">
        <ele>705.2</ele>
        <time>2020-12-02T11:52:13Z</time>
      </trkpt>
      <trkpt lat="37.5432" lon="27.62214">
        <ele>705.2</ele>
        <time>2020-12-02T11:52:12Z</time>
      </trkpt>
      <trkpt lat="37.5432" lon="27.62214">
        <ele>705.2</ele>
        <time>2020-12-02T11:52:11Z</time>
      </trkpt>
      <trkpt lat="37.5432" lon="27.62214">
        <ele>705.4</ele>
        <time>2020-12-02T11:52:10Z</time>
      </trkpt>
      <trkpt lat="37.5432" lon="27.62214">
        <ele>705.2</ele>
        <time>2020-12-02T11:52:09Z</time>
      </trkpt>
      <trkpt lat="37.5432" lon="27.62214">
        <ele>705</ele>
        <time>2020-12-02T11:52:08Z</time>
      </trkpt>
      <trkpt lat="37.5432" lon="27.62215">
        <ele>704.8</ele>
        <time>2020-12-02T11:52:07Z</time>
      </trkpt>
      <trkpt lat="37.5432" lon="27.62215">
        <ele>704.6</ele>
        <time>2020-12-02T11:52:06Z</time>
      </trkpt>
      <trkpt lat="37.5432" lon="27.62215">
        <ele>704.6</ele>
        <time>2020-12-02T11:52:05Z</time>
      </trkpt>
      <trkpt lat="37.5432" lon="27.62215">
        <ele>704.4</ele>
        <time>2020-12-02T11:52:04Z</time>
      </trkpt>
      <trkpt lat="37.5432" lon="27.62215">
        <ele>704.2</ele>
        <time>2020-12-02T11:52:03Z</time>
      </trkpt>
      <trkpt lat="37.54321" lon="27.62216">
        <ele>704</ele>
        <time>2020-12-02T11:52:02Z</time>
      </trkpt>
      <trkpt lat="37.54321" lon="27.62216">
        <ele>703.8</ele>
        <time>2020-12-02T11:52:01Z</time>
      </trkpt>
      <trkpt lat="37.54322" lon="27.62217">
        <ele>703.4</ele>
        <time>2020-12-02T11:52:00Z</time>
      </trkpt>
      <trkpt lat="37.54322" lon="27.62218">
        <ele>703.4</ele>
        <time>2020-12-02T11:51:59Z</time>
      </trkpt>
      <trkpt lat="37.54323" lon="27.62218">
        <ele>703.4</ele>
        <time>2020-12-02T11:51:58Z</time>
      </trkpt>
      <trkpt lat="37.54323" lon="27.62219">
        <ele>703.2</ele>
        <time>2020-12-02T11:51:57Z</time>
      </trkpt>
      <trkpt lat="37.54324" lon="27.6222">
        <ele>703</ele>
        <time>2020-12-02T11:51:56Z</time>
      </trkpt>
      <trkpt lat="37.54324" lon="27.6222">
        <ele>702.8</ele>
        <time>2020-12-02T11:51:55Z</time>
      </trkpt>
      <trkpt lat="37.54325" lon="27.62221">
        <ele>702.6</ele>
        <time>2020-12-02T11:51:54Z</time>
      </trkpt>
      <trkpt lat="37.54325" lon="27.62221">
        <ele>702.4</ele>
        <time>2020-12-02T11:51:53Z</time>
      </trkpt>
      <trkpt lat="37.54326" lon="27.62222">
        <ele>702.4</ele>
        <time>2020-12-02T11:51:52Z</time>
      </trkpt>
      <trkpt lat="37.54327" lon="27.62223">
        <ele>702.2</ele>
        <time>2020-12-02T11:51:51Z</time>
      </trkpt>
      <trkpt lat="37.54327" lon="27.62223">
        <ele>702.2</ele>
        <time>2020-12-02T11:51:50Z</time>
      </trkpt>
      <trkpt lat="37.54327" lon="27.62224">
        <ele>702.2</ele>
        <time>2020-12-02T11:51:49Z</time>
      </trkpt>
      <trkpt lat="37.54326" lon="27.62225">
        <ele>702</ele>
        <time>2020-12-02T11:51:48Z</time>
      </trkpt>
      <trkpt lat="37.54326" lon="27.62225">
        <ele>702</ele>
        <time>2020-12-02T11:51:47Z</time>
      </trkpt>
      <trkpt lat="37.54326" lon="27.62226">
        <ele>702</ele>
        <time>2020-12-02T11:51:46Z</time>
      </trkpt>
      <trkpt lat="37.54325" lon="27.62227">
        <ele>701.8</ele>
        <time>2020-12-02T11:51:45Z</time>
      </trkpt>
      <trkpt lat="37.54325" lon="27.62227">
        <ele>701.6</ele>
        <time>2020-12-02T11:51:44Z</time>
      </trkpt>
      <trkpt lat="37.54325" lon="27.62228">
        <ele>701.4</ele>
        <time>2020-12-02T11:51:43Z</time>
      </trkpt>
      <trkpt lat="37.54325" lon="27.62229">
        <ele>701.4</ele>
        <time>2020-12-02T11:51:42Z</time>
      </trkpt>
      <trkpt lat="37.54324" lon="27.62229">
        <ele>701.4</ele>
        <time>2020-12-02T11:51:41Z</time>
      </trkpt>
      <trkpt lat="37.54324" lon="27.6223">
        <ele>701.2</ele>
        <time>2020-12-02T11:51:40Z</time>
      </trkpt>
      <trkpt lat="37.54324" lon="27.62231">
        <ele>700.8</ele>
        <time>2020-12-02T11:51:39Z</time>
      </trkpt>
      <trkpt lat="37.54323" lon="27.62231">
        <ele>700.6</ele>
        <time>2020-12-02T11:51:38Z</time>
      </trkpt>
      <trkpt lat="37.54323" lon="27.62232">
        <ele>700.4</ele>
        <time>2020-12-02T11:51:37Z</time>
      </trkpt>
      <trkpt lat="37.54323" lon="27.62232">
        <ele>700.2</ele>
        <time>2020-12-02T11:51:36Z</time>
      </trkpt>
      <trkpt lat="37.54322" lon="27.62233">
        <ele>700</ele>
        <time>2020-12-02T11:51:35Z</time>
      </trkpt>
      <trkpt lat="37.54322" lon="27.62233">
        <ele>699.8</ele>
        <time>2020-12-02T11:51:34Z</time>
      </trkpt>
      <trkpt lat="37.54322" lon="27.62234">
        <ele>699.6</ele>
        <time>2020-12-02T11:51:33Z</time>
      </trkpt>
      <trkpt lat="37.54322" lon="27.62234">
        <ele>699.6</ele>
        <time>2020-12-02T11:51:32Z</time>
      </trkpt>
      <trkpt lat="37.54322" lon="27.62234">
        <ele>699.4</ele>
        <time>2020-12-02T11:51:31Z</time>
      </trkpt>
      <trkpt lat="37.54323" lon="27.62235">
        <ele>699.6</ele>
        <time>2020-12-02T11:51:30Z</time>
      </trkpt>
      <trkpt lat="37.54323" lon="27.62235">
        <ele>699.6</ele>
        <time>2020-12-02T11:51:29Z</time>
      </trkpt>
      <trkpt lat="37.54323" lon="27.62235">
        <ele>699.6</ele>
        <time>2020-12-02T11:51:28Z</time>
      </trkpt>
      <trkpt lat="37.54323" lon="27.62236">
        <ele>699.6</ele>
        <time>2020-12-02T11:51:27Z</time>
      </trkpt>
      <trkpt lat="37.54323" lon="27.62236">
        <ele>699.6</ele>
        <time>2020-12-02T11:51:26Z</time>
      </trkpt>
      <trkpt lat="37.54323" lon="27.62236">
        <ele>699.6</ele>
        <time>2020-12-02T11:51:25Z</time>
      </trkpt>
      <trkpt lat="37.54323" lon="27.62237">
        <ele>699.8</ele>
        <time>2020-12-02T11:51:24Z</time>
      </trkpt>
      <trkpt lat="37.54323" lon="27.62237">
        <ele>700</ele>
        <time>2020-12-02T11:51:23Z</time>
      </trkpt>
      <trkpt lat="37.54323" lon="27.62237">
        <ele>700.4</ele>
        <time>2020-12-02T11:51:22Z</time>
      </trkpt>
      <trkpt lat="37.54323" lon="27.62238">
        <ele>700.2</ele>
        <time>2020-12-02T11:51:21Z</time>
      </trkpt>
      <trkpt lat="37.54323" lon="27.62238">
        <ele>700</ele>
        <time>2020-12-02T11:51:20Z</time>
      </trkpt>
      <trkpt lat="37.54323" lon="27.62238">
        <ele>700.4</ele>
        <time>2020-12-02T11:51:19Z</time>
      </trkpt>
      <trkpt lat="37.54323" lon="27.62238">
        <ele>700.4</ele>
        <time>2020-12-02T11:51:18Z</time>
      </trkpt>
      <trkpt lat="37.54323" lon="27.62239">
        <ele>700.4</ele>
        <time>2020-12-02T11:51:17Z</time>
      </trkpt>
      <trkpt lat="37.54323" lon="27.62239">
        <ele>700.4</ele>
        <time>2020-12-02T11:51:16Z</time>
      </trkpt>
      <trkpt lat="37.54323" lon="27.62239">
        <ele>700.2</ele>
        <time>2020-12-02T11:51:15Z</time>
      </trkpt>
      <trkpt lat="37.54323" lon="27.6224">
        <ele>700</ele>
        <time>2020-12-02T11:51:14Z</time>
      </trkpt>
      <trkpt lat="37.54323" lon="27.6224">
        <ele>699.8</ele>
        <time>2020-12-02T11:51:13Z</time>
      </trkpt>
      <trkpt lat="37.54323" lon="27.6224">
        <ele>699.6</ele>
        <time>2020-12-02T11:51:12Z</time>
      </trkpt>
      <trkpt lat="37.54323" lon="27.62241">
        <ele>699.6</ele>
        <time>2020-12-02T11:51:11Z</time>
      </trkpt>
      <trkpt lat="37.54323" lon="27.62241">
        <ele>699.6</ele>
        <time>2020-12-02T11:51:10Z</time>
      </trkpt>
      <trkpt lat="37.54323" lon="27.62241">
        <ele>699.4</ele>
        <time>2020-12-02T11:51:09Z</time>
      </trkpt>
      <trkpt lat="37.54323" lon="27.62242">
        <ele>699.2</ele>
        <time>2020-12-02T11:51:08Z</time>
      </trkpt>
      <trkpt lat="37.54323" lon="27.62242">
        <ele>699.2</ele>
        <time>2020-12-02T11:51:07Z</time>
      </trkpt>
      <trkpt lat="37.54323" lon="27.62242">
        <ele>698.8</ele>
        <time>2020-12-02T11:51:06Z</time>
      </trkpt>
      <trkpt lat="37.54323" lon="27.62243">
        <ele>698.8</ele>
        <time>2020-12-02T11:51:05Z</time>
      </trkpt>
      <trkpt lat="37.54323" lon="27.62243">
        <ele>698.8</ele>
        <time>2020-12-02T11:51:04Z</time>
      </trkpt>
      <trkpt lat="37.54323" lon="27.62243">
        <ele>698.6</ele>
        <time>2020-12-02T11:51:03Z</time>
      </trkpt>
      <trkpt lat="37.54323" lon="27.62244">
        <ele>698.4</ele>
        <time>2020-12-02T11:51:02Z</time>
      </trkpt>
      <trkpt lat="37.54323" lon="27.62244">
        <ele>698.4</ele>
        <time>2020-12-02T11:51:01Z</time>
      </trkpt>
      <trkpt lat="37.54323" lon="27.62244">
        <ele>698.4</ele>
        <time>2020-12-02T11:51:00Z</time>
      </trkpt>
      <trkpt lat="37.54323" lon="27.62244">
        <ele>698.2</ele>
        <time>2020-12-02T11:50:59Z</time>
      </trkpt>
      <trkpt lat="37.54324" lon="27.62245">
        <ele>698</ele>
        <time>2020-12-02T11:50:58Z</time>
      </trkpt>
      <trkpt lat="37.54325" lon="27.62246">
        <ele>697.8</ele>
        <time>2020-12-02T11:50:57Z</time>
      </trkpt>
      <trkpt lat="37.54325" lon="27.62246">
        <ele>697.4</ele>
        <time>2020-12-02T11:50:56Z</time>
      </trkpt>
      <trkpt lat="37.54326" lon="27.62247">
        <ele>697.2</ele>
        <time>2020-12-02T11:50:55Z</time>
      </trkpt>
      <trkpt lat="37.54326" lon="27.62248">
        <ele>697</ele>
        <time>2020-12-02T11:50:54Z</time>
      </trkpt>
      <trkpt lat="37.54327" lon="27.62248">
        <ele>697</ele>
        <time>2020-12-02T11:50:53Z</time>
      </trkpt>
      <trkpt lat="37.54327" lon="27.62249">
        <ele>696.8</ele>
        <time>2020-12-02T11:50:52Z</time>
      </trkpt>
      <trkpt lat="37.54328" lon="27.6225">
        <ele>696.8</ele>
        <time>2020-12-02T11:50:51Z</time>
      </trkpt>
      <trkpt lat="37.54329" lon="27.6225">
        <ele>696.8</ele>
        <time>2020-12-02T11:50:50Z</time>
      </trkpt>
      <trkpt lat="37.54329" lon="27.62251">
        <ele>696.6</ele>
        <time>2020-12-02T11:50:49Z</time>
      </trkpt>
      <trkpt lat="37.5433" lon="27.62252">
        <ele>696.4</ele>
        <time>2020-12-02T11:50:48Z</time>
      </trkpt>
      <trkpt lat="37.5433" lon="27.62252">
        <ele>696.4</ele>
        <time>2020-12-02T11:50:47Z</time>
      </trkpt>
      <trkpt lat="37.54331" lon="27.62253">
        <ele>696.2</ele>
        <time>2020-12-02T11:50:46Z</time>
      </trkpt>
      <trkpt lat="37.54332" lon="27.62254">
        <ele>696.2</ele>
        <time>2020-12-02T11:50:45Z</time>
      </trkpt>
      <trkpt lat="37.54333" lon="27.62254">
        <ele>696</ele>
        <time>2020-12-02T11:50:44Z</time>
      </trkpt>
      <trkpt lat="37.54333" lon="27.62255">
        <ele>695.8</ele>
        <time>2020-12-02T11:50:43Z</time>
      </trkpt>
      <trkpt lat="37.54334" lon="27.62255">
        <ele>695.6</ele>
        <time>2020-12-02T11:50:42Z</time>
      </trkpt>
      <trkpt lat="37.54335" lon="27.62256">
        <ele>695.6</ele>
        <time>2020-12-02T11:50:41Z</time>
      </trkpt>
      <trkpt lat="37.54336" lon="27.62257">
        <ele>695.4</ele>
        <time>2020-12-02T11:50:40Z</time>
      </trkpt>
      <trkpt lat="37.54336" lon="27.62257">
        <ele>695.2</ele>
        <time>2020-12-02T11:50:39Z</time>
      </trkpt>
      <trkpt lat="37.54337" lon="27.62258">
        <ele>695.2</ele>
        <time>2020-12-02T11:50:38Z</time>
      </trkpt>
      <trkpt lat="37.54338" lon="27.62258">
        <ele>695.2</ele>
        <time>2020-12-02T11:50:37Z</time>
      </trkpt>
      <trkpt lat="37.54339" lon="27.62258">
        <ele>695</ele>
        <time>2020-12-02T11:50:36Z</time>
      </trkpt>
      <trkpt lat="37.54339" lon="27.62258">
        <ele>695</ele>
        <time>2020-12-02T11:50:35Z</time>
      </trkpt>
      <trkpt lat="37.5434" lon="27.62258">
        <ele>695</ele>
        <time>2020-12-02T11:50:34Z</time>
      </trkpt>
      <trkpt lat="37.54341" lon="27.62258">
        <ele>694.8</ele>
        <time>2020-12-02T11:50:33Z</time>
      </trkpt>
      <trkpt lat="37.54341" lon="27.62258">
        <ele>694.8</ele>
        <time>2020-12-02T11:50:32Z</time>
      </trkpt>
      <trkpt lat="37.54342" lon="27.62258">
        <ele>694.8</ele>
        <time>2020-12-02T11:50:31Z</time>
      </trkpt>
      <trkpt lat="37.54342" lon="27.62258">
        <ele>694.6</ele>
        <time>2020-12-02T11:50:30Z</time>
      </trkpt>
      <trkpt lat="37.54343" lon="27.62258">
        <ele>694.4</ele>
        <time>2020-12-02T11:50:29Z</time>
      </trkpt>
      <trkpt lat="37.54344" lon="27.62258">
        <ele>694.4</ele>
        <time>2020-12-02T11:50:28Z</time>
      </trkpt>
      <trkpt lat="37.54344" lon="27.62258">
        <ele>694.2</ele>
        <time>2020-12-02T11:50:27Z</time>
      </trkpt>
      <trkpt lat="37.54345" lon="27.62258">
        <ele>694.2</ele>
        <time>2020-12-02T11:50:26Z</time>
      </trkpt>
      <trkpt lat="37.54346" lon="27.62258">
        <ele>694</ele>
        <time>2020-12-02T11:50:25Z</time>
      </trkpt>
      <trkpt lat="37.54346" lon="27.62258">
        <ele>693.8</ele>
        <time>2020-12-02T11:50:24Z</time>
      </trkpt>
      <trkpt lat="37.54347" lon="27.62258">
        <ele>693.6</ele>
        <time>2020-12-02T11:50:23Z</time>
      </trkpt>
      <trkpt lat="37.54347" lon="27.62258">
        <ele>693.6</ele>
        <time>2020-12-02T11:50:22Z</time>
      </trkpt>
      <trkpt lat="37.54348" lon="27.62258">
        <ele>693.6</ele>
        <time>2020-12-02T11:50:21Z</time>
      </trkpt>
      <trkpt lat="37.54349" lon="27.62258">
        <ele>693.4</ele>
        <time>2020-12-02T11:50:20Z</time>
      </trkpt>
      <trkpt lat="37.54349" lon="27.62257">
        <ele>693.4</ele>
        <time>2020-12-02T11:50:19Z</time>
      </trkpt>
      <trkpt lat="37.5435" lon="27.62257">
        <ele>693.4</ele>
        <time>2020-12-02T11:50:18Z</time>
      </trkpt>
      <trkpt lat="37.5435" lon="27.62257">
        <ele>693.4</ele>
        <time>2020-12-02T11:50:17Z</time>
      </trkpt>
      <trkpt lat="37.54351" lon="27.62256">
        <ele>693.2</ele>
        <time>2020-12-02T11:50:16Z</time>
      </trkpt>
      <trkpt lat="37.54351" lon="27.62256">
        <ele>693.2</ele>
        <time>2020-12-02T11:50:15Z</time>
      </trkpt>
      <trkpt lat="37.54352" lon="27.62256">
        <ele>693</ele>
        <time>2020-12-02T11:50:14Z</time>
      </trkpt>
      <trkpt lat="37.54353" lon="27.62255">
        <ele>693</ele>
        <time>2020-12-02T11:50:13Z</time>
      </trkpt>
      <trkpt lat="37.54353" lon="27.62255">
        <ele>692.8</ele>
        <time>2020-12-02T11:50:12Z</time>
      </trkpt>
      <trkpt lat="37.54354" lon="27.62255">
        <ele>692.8</ele>
        <time>2020-12-02T11:50:11Z</time>
      </trkpt>
      <trkpt lat="37.54354" lon="27.62254">
        <ele>692.8</ele>
        <time>2020-12-02T11:50:10Z</time>
      </trkpt>
      <trkpt lat="37.54355" lon="27.62254">
        <ele>692.6</ele>
        <time>2020-12-02T11:50:09Z</time>
      </trkpt>
      <trkpt lat="37.54355" lon="27.62254">
        <ele>692.6</ele>
        <time>2020-12-02T11:50:08Z</time>
      </trkpt>
      <trkpt lat="37.54356" lon="27.62253">
        <ele>692.4</ele>
        <time>2020-12-02T11:50:07Z</time>
      </trkpt>
      <trkpt lat="37.54356" lon="27.62253">
        <ele>692.2</ele>
        <time>2020-12-02T11:50:06Z</time>
      </trkpt>
      <trkpt lat="37.54357" lon="27.62253">
        <ele>692</ele>
        <time>2020-12-02T11:50:05Z</time>
      </trkpt>
      <trkpt lat="37.54357" lon="27.62253">
        <ele>692</ele>
        <time>2020-12-02T11:50:04Z</time>
      </trkpt>
      <trkpt lat="37.54358" lon="27.62253">
        <ele>691.8</ele>
        <time>2020-12-02T11:50:03Z</time>
      </trkpt>
      <trkpt lat="37.54359" lon="27.62253">
        <ele>691.6</ele>
        <time>2020-12-02T11:50:02Z</time>
      </trkpt>
      <trkpt lat="37.54359" lon="27.62253">
        <ele>691.4</ele>
        <time>2020-12-02T11:50:01Z</time>
      </trkpt>
      <trkpt lat="37.5436" lon="27.62253">
        <ele>691.2</ele>
        <time>2020-12-02T11:49:59Z</time>
      </trkpt>
      <trkpt lat="37.5436" lon="27.62253">
        <ele>691</ele>
        <time>2020-12-02T11:49:58Z</time>
      </trkpt>
      <trkpt lat="37.54361" lon="27.62253">
        <ele>691</ele>
        <time>2020-12-02T11:49:57Z</time>
      </trkpt>
      <trkpt lat="37.54361" lon="27.62253">
        <ele>691</ele>
        <time>2020-12-02T11:49:56Z</time>
      </trkpt>
      <trkpt lat="37.54362" lon="27.62254">
        <ele>690.8</ele>
        <time>2020-12-02T11:49:55Z</time>
      </trkpt>
      <trkpt lat="37.54362" lon="27.62254">
        <ele>690.8</ele>
        <time>2020-12-02T11:49:54Z</time>
      </trkpt>
      <trkpt lat="37.54363" lon="27.62254">
        <ele>690.8</ele>
        <time>2020-12-02T11:49:53Z</time>
      </trkpt>
      <trkpt lat="37.54363" lon="27.62254">
        <ele>690.6</ele>
        <time>2020-12-02T11:49:52Z</time>
      </trkpt>
      <trkpt lat="37.54364" lon="27.62254">
        <ele>690.4</ele>
        <time>2020-12-02T11:49:51Z</time>
      </trkpt>
      <trkpt lat="37.54364" lon="27.62254">
        <ele>690.2</ele>
        <time>2020-12-02T11:49:50Z</time>
      </trkpt>
      <trkpt lat="37.54365" lon="27.62254">
        <ele>690.2</ele>
        <time>2020-12-02T11:49:49Z</time>
      </trkpt>
      <trkpt lat="37.54365" lon="27.62254">
        <ele>690.2</ele>
        <time>2020-12-02T11:49:48Z</time>
      </trkpt>
      <trkpt lat="37.54366" lon="27.62254">
        <ele>690.2</ele>
        <time>2020-12-02T11:49:47Z</time>
      </trkpt>
      <trkpt lat="37.54366" lon="27.62254">
        <ele>690</ele>
        <time>2020-12-02T11:49:46Z</time>
      </trkpt>
      <trkpt lat="37.54367" lon="27.62254">
        <ele>690</ele>
        <time>2020-12-02T11:49:45Z</time>
      </trkpt>
      <trkpt lat="37.54367" lon="27.62254">
        <ele>689.8</ele>
        <time>2020-12-02T11:49:44Z</time>
      </trkpt>
      <trkpt lat="37.54367" lon="27.62255">
        <ele>689.6</ele>
        <time>2020-12-02T11:49:43Z</time>
      </trkpt>
      <trkpt lat="37.54367" lon="27.62255">
        <ele>689.4</ele>
        <time>2020-12-02T11:49:42Z</time>
      </trkpt>
      <trkpt lat="37.54367" lon="27.62255">
        <ele>689.4</ele>
        <time>2020-12-02T11:49:41Z</time>
      </trkpt>
      <trkpt lat="37.54367" lon="27.62255">
        <ele>689.2</ele>
        <time>2020-12-02T11:49:40Z</time>
      </trkpt>
      <trkpt lat="37.54368" lon="27.62255">
        <ele>689</ele>
        <time>2020-12-02T11:49:39Z</time>
      </trkpt>
      <trkpt lat="37.54368" lon="27.62255">
        <ele>688.8</ele>
        <time>2020-12-02T11:49:38Z</time>
      </trkpt>
      <trkpt lat="37.54368" lon="27.62255">
        <ele>688.8</ele>
        <time>2020-12-02T11:49:37Z</time>
      </trkpt>
      <trkpt lat="37.54368" lon="27.62255">
        <ele>688.6</ele>
        <time>2020-12-02T11:49:36Z</time>
      </trkpt>
      <trkpt lat="37.54368" lon="27.62255">
        <ele>688.6</ele>
        <time>2020-12-02T11:49:35Z</time>
      </trkpt>
      <trkpt lat="37.54368" lon="27.62255">
        <ele>688.6</ele>
        <time>2020-12-02T11:49:34Z</time>
      </trkpt>
      <trkpt lat="37.54369" lon="27.62255">
        <ele>688.6</ele>
        <time>2020-12-02T11:49:33Z</time>
      </trkpt>
      <trkpt lat="37.54369" lon="27.62255">
        <ele>688.6</ele>
        <time>2020-12-02T11:49:32Z</time>
      </trkpt>
      <trkpt lat="37.54369" lon="27.62255">
        <ele>688.4</ele>
        <time>2020-12-02T11:49:31Z</time>
      </trkpt>
      <trkpt lat="37.54369" lon="27.62255">
        <ele>688.6</ele>
        <time>2020-12-02T11:49:30Z</time>
      </trkpt>
      <trkpt lat="37.54369" lon="27.62255">
        <ele>688.4</ele>
        <time>2020-12-02T11:49:29Z</time>
      </trkpt>
      <trkpt lat="37.5437" lon="27.62255">
        <ele>688.4</ele>
        <time>2020-12-02T11:49:28Z</time>
      </trkpt>
      <trkpt lat="37.5437" lon="27.62256">
        <ele>688.4</ele>
        <time>2020-12-02T11:49:27Z</time>
      </trkpt>
      <trkpt lat="37.5437" lon="27.62256">
        <ele>688.2</ele>
        <time>2020-12-02T11:49:26Z</time>
      </trkpt>
      <trkpt lat="37.5437" lon="27.62256">
        <ele>688.2</ele>
        <time>2020-12-02T11:49:25Z</time>
      </trkpt>
      <trkpt lat="37.5437" lon="27.62256">
        <ele>688</ele>
        <time>2020-12-02T11:49:24Z</time>
      </trkpt>
      <trkpt lat="37.5437" lon="27.62256">
        <ele>688</ele>
        <time>2020-12-02T11:49:23Z</time>
      </trkpt>
      <trkpt lat="37.54371" lon="27.62256">
        <ele>688</ele>
        <time>2020-12-02T11:49:22Z</time>
      </trkpt>
      <trkpt lat="37.54371" lon="27.62256">
        <ele>688</ele>
        <time>2020-12-02T11:49:21Z</time>
      </trkpt>
      <trkpt lat="37.54371" lon="27.62256">
        <ele>687.8</ele>
        <time>2020-12-02T11:49:20Z</time>
      </trkpt>
      <trkpt lat="37.54371" lon="27.62256">
        <ele>687.8</ele>
        <time>2020-12-02T11:49:19Z</time>
      </trkpt>
      <trkpt lat="37.54371" lon="27.62256">
        <ele>687.8</ele>
        <time>2020-12-02T11:49:18Z</time>
      </trkpt>
      <trkpt lat="37.54371" lon="27.62256">
        <ele>687.8</ele>
        <time>2020-12-02T11:49:17Z</time>
      </trkpt>
      <trkpt lat="37.54372" lon="27.62256">
        <ele>687.8</ele>
        <time>2020-12-02T11:49:16Z</time>
      </trkpt>
      <trkpt lat="37.54372" lon="27.62256">
        <ele>687.8</ele>
        <time>2020-12-02T11:49:15Z</time>
      </trkpt>
      <trkpt lat="37.54372" lon="27.62256">
        <ele>687.6</ele>
        <time>2020-12-02T11:49:14Z</time>
      </trkpt>
      <trkpt lat="37.54372" lon="27.62256">
        <ele>687.6</ele>
        <time>2020-12-02T11:49:13Z</time>
      </trkpt>
      <trkpt lat="37.54372" lon="27.62256">
        <ele>687.6</ele>
        <time>2020-12-02T11:49:12Z</time>
      </trkpt>
      <trkpt lat="37.54372" lon="27.62257">
        <ele>687.6</ele>
        <time>2020-12-02T11:49:11Z</time>
      </trkpt>
      <trkpt lat="37.54373" lon="27.62257">
        <ele>687.4</ele>
        <time>2020-12-02T11:49:10Z</time>
      </trkpt>
      <trkpt lat="37.54373" lon="27.62257">
        <ele>687.4</ele>
        <time>2020-12-02T11:49:09Z</time>
      </trkpt>
      <trkpt lat="37.54373" lon="27.62257">
        <ele>687.4</ele>
        <time>2020-12-02T11:49:08Z</time>
      </trkpt>
      <trkpt lat="37.54373" lon="27.62257">
        <ele>687.2</ele>
        <time>2020-12-02T11:49:07Z</time>
      </trkpt>
      <trkpt lat="37.54373" lon="27.62257">
        <ele>687.2</ele>
        <time>2020-12-02T11:49:06Z</time>
      </trkpt>
      <trkpt lat="37.54373" lon="27.62257">
        <ele>687</ele>
        <time>2020-12-02T11:49:05Z</time>
      </trkpt>
      <trkpt lat="37.54374" lon="27.62257">
        <ele>687</ele>
        <time>2020-12-02T11:49:04Z</time>
      </trkpt>
      <trkpt lat="37.54374" lon="27.62257">
        <ele>687</ele>
        <time>2020-12-02T11:49:03Z</time>
      </trkpt>
      <trkpt lat="37.54374" lon="27.62257">
        <ele>687.2</ele>
        <time>2020-12-02T11:49:02Z</time>
      </trkpt>
      <trkpt lat="37.54374" lon="27.62257">
        <ele>687</ele>
        <time>2020-12-02T11:49:01Z</time>
      </trkpt>
      <trkpt lat="37.54374" lon="27.62257">
        <ele>687</ele>
        <time>2020-12-02T11:49:00Z</time>
      </trkpt>
      <trkpt lat="37.54374" lon="27.62257">
        <ele>686.6</ele>
        <time>2020-12-02T11:48:59Z</time>
      </trkpt>
      <trkpt lat="37.54375" lon="27.62257">
        <ele>686.4</ele>
        <time>2020-12-02T11:48:58Z</time>
      </trkpt>
      <trkpt lat="37.54375" lon="27.62257">
        <ele>686.4</ele>
        <time>2020-12-02T11:48:57Z</time>
      </trkpt>
      <trkpt lat="37.54375" lon="27.62257">
        <ele>686</ele>
        <time>2020-12-02T11:48:56Z</time>
      </trkpt>
      <trkpt lat="37.54375" lon="27.62258">
        <ele>685.4</ele>
        <time>2020-12-02T11:48:55Z</time>
      </trkpt>
      <trkpt lat="37.54376" lon="27.62257">
        <ele>685.2</ele>
        <time>2020-12-02T11:48:54Z</time>
      </trkpt>
      <trkpt lat="37.54378" lon="27.62257">
        <ele>685</ele>
        <time>2020-12-02T11:48:53Z</time>
      </trkpt>
      <trkpt lat="37.54379" lon="27.62257">
        <ele>684.8</ele>
        <time>2020-12-02T11:48:52Z</time>
      </trkpt>
      <trkpt lat="37.5438" lon="27.62256">
        <ele>684.8</ele>
        <time>2020-12-02T11:48:51Z</time>
      </trkpt>
      <trkpt lat="37.54381" lon="27.62256">
        <ele>684.6</ele>
        <time>2020-12-02T11:48:50Z</time>
      </trkpt>
      <trkpt lat="37.54383" lon="27.62255">
        <ele>684.6</ele>
        <time>2020-12-02T11:48:49Z</time>
      </trkpt>
      <trkpt lat="37.54384" lon="27.62255">
        <ele>684.4</ele>
        <time>2020-12-02T11:48:48Z</time>
      </trkpt>
      <trkpt lat="37.54385" lon="27.62256">
        <ele>684.4</ele>
        <time>2020-12-02T11:48:47Z</time>
      </trkpt>
      <trkpt lat="37.54387" lon="27.62256">
        <ele>684.2</ele>
        <time>2020-12-02T11:48:46Z</time>
      </trkpt>
      <trkpt lat="37.54388" lon="27.62257">
        <ele>684</ele>
        <time>2020-12-02T11:48:45Z</time>
      </trkpt>
      <trkpt lat="37.5439" lon="27.62257">
        <ele>683.8</ele>
        <time>2020-12-02T11:48:44Z</time>
      </trkpt>
      <trkpt lat="37.54391" lon="27.62258">
        <ele>683.6</ele>
        <time>2020-12-02T11:48:43Z</time>
      </trkpt>
      <trkpt lat="37.54393" lon="27.62259">
        <ele>683.6</ele>
        <time>2020-12-02T11:48:42Z</time>
      </trkpt>
      <trkpt lat="37.54393" lon="27.62259">
        <ele>683.4</ele>
        <time>2020-12-02T11:48:41Z</time>
      </trkpt>
      <trkpt lat="37.54394" lon="27.62259">
        <ele>683.4</ele>
        <time>2020-12-02T11:48:40Z</time>
      </trkpt>
      <trkpt lat="37.54395" lon="27.62259">
        <ele>683.2</ele>
        <time>2020-12-02T11:48:39Z</time>
      </trkpt>
      <trkpt lat="37.54396" lon="27.62259">
        <ele>683</ele>
        <time>2020-12-02T11:48:38Z</time>
      </trkpt>
      <trkpt lat="37.54396" lon="27.62259">
        <ele>683</ele>
        <time>2020-12-02T11:48:37Z</time>
      </trkpt>
      <trkpt lat="37.54397" lon="27.62259">
        <ele>682.8</ele>
        <time>2020-12-02T11:48:36Z</time>
      </trkpt>
      <trkpt lat="37.54398" lon="27.6226">
        <ele>682.8</ele>
        <time>2020-12-02T11:48:35Z</time>
      </trkpt>
      <trkpt lat="37.54398" lon="27.6226">
        <ele>682.4</ele>
        <time>2020-12-02T11:48:34Z</time>
      </trkpt>
      <trkpt lat="37.54399" lon="27.6226">
        <ele>682.6</ele>
        <time>2020-12-02T11:48:33Z</time>
      </trkpt>
      <trkpt lat="37.544" lon="27.6226">
        <ele>682.4</ele>
        <time>2020-12-02T11:48:32Z</time>
      </trkpt>
      <trkpt lat="37.544" lon="27.6226">
        <ele>682.2</ele>
        <time>2020-12-02T11:48:31Z</time>
      </trkpt>
      <trkpt lat="37.54401" lon="27.6226">
        <ele>682</ele>
        <time>2020-12-02T11:48:30Z</time>
      </trkpt>
      <trkpt lat="37.54402" lon="27.6226">
        <ele>682</ele>
        <time>2020-12-02T11:48:29Z</time>
      </trkpt>
      <trkpt lat="37.54403" lon="27.62262">
        <ele>681.8</ele>
        <time>2020-12-02T11:48:28Z</time>
      </trkpt>
      <trkpt lat="37.54405" lon="27.62263">
        <ele>681.6</ele>
        <time>2020-12-02T11:48:27Z</time>
      </trkpt>
      <trkpt lat="37.54406" lon="27.62264">
        <ele>681.4</ele>
        <time>2020-12-02T11:48:26Z</time>
      </trkpt>
      <trkpt lat="37.54407" lon="27.62265">
        <ele>681.2</ele>
        <time>2020-12-02T11:48:25Z</time>
      </trkpt>
      <trkpt lat="37.54409" lon="27.62267">
        <ele>681.2</ele>
        <time>2020-12-02T11:48:24Z</time>
      </trkpt>
      <trkpt lat="37.5441" lon="27.62268">
        <ele>681</ele>
        <time>2020-12-02T11:48:23Z</time>
      </trkpt>
      <trkpt lat="37.5441" lon="27.62267">
        <ele>681</ele>
        <time>2020-12-02T11:48:22Z</time>
      </trkpt>
      <trkpt lat="37.5441" lon="27.62267">
        <ele>681</ele>
        <time>2020-12-02T11:48:21Z</time>
      </trkpt>
      <trkpt lat="37.5441" lon="27.62267">
        <ele>681</ele>
        <time>2020-12-02T11:48:20Z</time>
      </trkpt>
      <trkpt lat="37.5441" lon="27.62267">
        <ele>680.8</ele>
        <time>2020-12-02T11:48:19Z</time>
      </trkpt>
      <trkpt lat="37.5441" lon="27.62266">
        <ele>680.6</ele>
        <time>2020-12-02T11:48:18Z</time>
      </trkpt>
      <trkpt lat="37.5441" lon="27.62266">
        <ele>680.4</ele>
        <time>2020-12-02T11:48:17Z</time>
      </trkpt>
      <trkpt lat="37.5441" lon="27.62266">
        <ele>680.2</ele>
        <time>2020-12-02T11:48:16Z</time>
      </trkpt>
      <trkpt lat="37.54409" lon="27.62265">
        <ele>680</ele>
        <time>2020-12-02T11:48:15Z</time>
      </trkpt>
      <trkpt lat="37.54409" lon="27.62265">
        <ele>679.8</ele>
        <time>2020-12-02T11:48:14Z</time>
      </trkpt>
      <trkpt lat="37.54409" lon="27.62265">
        <ele>679.8</ele>
        <time>2020-12-02T11:48:13Z</time>
      </trkpt>
      <trkpt lat="37.54409" lon="27.62264">
        <ele>679.6</ele>
        <time>2020-12-02T11:48:12Z</time>
      </trkpt>
      <trkpt lat="37.54409" lon="27.62264">
        <ele>679.4</ele>
        <time>2020-12-02T11:48:11Z</time>
      </trkpt>
      <trkpt lat="37.54409" lon="27.62264">
        <ele>679.2</ele>
        <time>2020-12-02T11:48:10Z</time>
      </trkpt>
      <trkpt lat="37.54409" lon="27.62263">
        <ele>679</ele>
        <time>2020-12-02T11:48:09Z</time>
      </trkpt>
      <trkpt lat="37.54409" lon="27.62263">
        <ele>678.8</ele>
        <time>2020-12-02T11:48:08Z</time>
      </trkpt>
      <trkpt lat="37.54409" lon="27.62263">
        <ele>678.6</ele>
        <time>2020-12-02T11:48:07Z</time>
      </trkpt>
      <trkpt lat="37.54409" lon="27.62263">
        <ele>678.4</ele>
        <time>2020-12-02T11:48:06Z</time>
      </trkpt>
      <trkpt lat="37.54409" lon="27.62262">
        <ele>678.2</ele>
        <time>2020-12-02T11:48:05Z</time>
      </trkpt>
      <trkpt lat="37.54409" lon="27.62262">
        <ele>678</ele>
        <time>2020-12-02T11:48:04Z</time>
      </trkpt>
      <trkpt lat="37.54409" lon="27.62262">
        <ele>677.8</ele>
        <time>2020-12-02T11:48:03Z</time>
      </trkpt>
      <trkpt lat="37.54409" lon="27.62261">
        <ele>677.8</ele>
        <time>2020-12-02T11:48:02Z</time>
      </trkpt>
      <trkpt lat="37.54409" lon="27.62261">
        <ele>677.8</ele>
        <time>2020-12-02T11:48:01Z</time>
      </trkpt>
      <trkpt lat="37.54409" lon="27.62261">
        <ele>677.6</ele>
        <time>2020-12-02T11:48:00Z</time>
      </trkpt>
      <trkpt lat="37.54408" lon="27.6226">
        <ele>677.4</ele>
        <time>2020-12-02T11:47:59Z</time>
      </trkpt>
      <trkpt lat="37.54408" lon="27.6226">
        <ele>677.2</ele>
        <time>2020-12-02T11:47:58Z</time>
      </trkpt>
      <trkpt lat="37.54408" lon="27.6226">
        <ele>677</ele>
        <time>2020-12-02T11:47:57Z</time>
      </trkpt>
      <trkpt lat="37.54408" lon="27.62259">
        <ele>677</ele>
        <time>2020-12-02T11:47:56Z</time>
      </trkpt>
      <trkpt lat="37.54408" lon="27.62259">
        <ele>676.8</ele>
        <time>2020-12-02T11:47:55Z</time>
      </trkpt>
      <trkpt lat="37.54408" lon="27.62259">
        <ele>676.6</ele>
        <time>2020-12-02T11:47:54Z</time>
      </trkpt>
      <trkpt lat="37.54408" lon="27.62259">
        <ele>676.4</ele>
        <time>2020-12-02T11:47:53Z</time>
      </trkpt>
      <trkpt lat="37.54408" lon="27.62258">
        <ele>676.4</ele>
        <time>2020-12-02T11:47:52Z</time>
      </trkpt>
      <trkpt lat="37.54408" lon="27.62258">
        <ele>676.2</ele>
        <time>2020-12-02T11:47:51Z</time>
      </trkpt>
      <trkpt lat="37.54408" lon="27.62258">
        <ele>675.8</ele>
        <time>2020-12-02T11:47:50Z</time>
      </trkpt>
      <trkpt lat="37.54408" lon="27.62257">
        <ele>675.6</ele>
        <time>2020-12-02T11:47:49Z</time>
      </trkpt>
      <trkpt lat="37.54408" lon="27.62257">
        <ele>675.6</ele>
        <time>2020-12-02T11:47:48Z</time>
      </trkpt>
      <trkpt lat="37.54408" lon="27.62257">
        <ele>675.4</ele>
        <time>2020-12-02T11:47:47Z</time>
      </trkpt>
      <trkpt lat="37.54408" lon="27.62256">
        <ele>675.2</ele>
        <time>2020-12-02T11:47:46Z</time>
      </trkpt>
      <trkpt lat="37.54408" lon="27.62256">
        <ele>675.2</ele>
        <time>2020-12-02T11:47:45Z</time>
      </trkpt>
      <trkpt lat="37.54409" lon="27.62256">
        <ele>674.8</ele>
        <time>2020-12-02T11:47:44Z</time>
      </trkpt>
      <trkpt lat="37.54409" lon="27.62256">
        <ele>674.8</ele>
        <time>2020-12-02T11:47:43Z</time>
      </trkpt>
      <trkpt lat="37.5441" lon="27.62256">
        <ele>674.6</ele>
        <time>2020-12-02T11:47:42Z</time>
      </trkpt>
      <trkpt lat="37.5441" lon="27.62256">
        <ele>674.4</ele>
        <time>2020-12-02T11:47:41Z</time>
      </trkpt>
      <trkpt lat="37.54411" lon="27.62256">
        <ele>674.2</ele>
        <time>2020-12-02T11:47:40Z</time>
      </trkpt>
      <trkpt lat="37.54411" lon="27.62256">
        <ele>674</ele>
        <time>2020-12-02T11:47:39Z</time>
      </trkpt>
      <trkpt lat="37.54411" lon="27.62256">
        <ele>674</ele>
        <time>2020-12-02T11:47:38Z</time>
      </trkpt>
      <trkpt lat="37.54412" lon="27.62256">
        <ele>674</ele>
        <time>2020-12-02T11:47:37Z</time>
      </trkpt>
      <trkpt lat="37.54412" lon="27.62256">
        <ele>674</ele>
        <time>2020-12-02T11:47:36Z</time>
      </trkpt>
      <trkpt lat="37.54413" lon="27.62256">
        <ele>673.8</ele>
        <time>2020-12-02T11:47:35Z</time>
      </trkpt>
      <trkpt lat="37.54413" lon="27.62256">
        <ele>673.8</ele>
        <time>2020-12-02T11:47:34Z</time>
      </trkpt>
      <trkpt lat="37.54414" lon="27.62256">
        <ele>673.8</ele>
        <time>2020-12-02T11:47:33Z</time>
      </trkpt>
      <trkpt lat="37.54414" lon="27.62256">
        <ele>674</ele>
        <time>2020-12-02T11:47:32Z</time>
      </trkpt>
      <trkpt lat="37.54415" lon="27.62256">
        <ele>673.8</ele>
        <time>2020-12-02T11:47:31Z</time>
      </trkpt>
      <trkpt lat="37.54415" lon="27.62256">
        <ele>673.6</ele>
        <time>2020-12-02T11:47:30Z</time>
      </trkpt>
      <trkpt lat="37.54416" lon="27.62256">
        <ele>673.2</ele>
        <time>2020-12-02T11:47:29Z</time>
      </trkpt>
      <trkpt lat="37.54416" lon="27.62256">
        <ele>673.2</ele>
        <time>2020-12-02T11:47:28Z</time>
      </trkpt>
      <trkpt lat="37.54417" lon="27.62256">
        <ele>673</ele>
        <time>2020-12-02T11:47:27Z</time>
      </trkpt>
      <trkpt lat="37.54418" lon="27.62256">
        <ele>673</ele>
        <time>2020-12-02T11:47:26Z</time>
      </trkpt>
      <trkpt lat="37.5442" lon="27.62256">
        <ele>672.6</ele>
        <time>2020-12-02T11:47:25Z</time>
      </trkpt>
      <trkpt lat="37.54422" lon="27.62256">
        <ele>672.6</ele>
        <time>2020-12-02T11:47:24Z</time>
      </trkpt>
      <trkpt lat="37.54423" lon="27.62257">
        <ele>672.2</ele>
        <time>2020-12-02T11:47:23Z</time>
      </trkpt>
      <trkpt lat="37.54425" lon="27.62257">
        <ele>672.2</ele>
        <time>2020-12-02T11:47:22Z</time>
      </trkpt>
      <trkpt lat="37.54427" lon="27.62257">
        <ele>672</ele>
        <time>2020-12-02T11:47:21Z</time>
      </trkpt>
      <trkpt lat="37.54428" lon="27.62257">
        <ele>672</ele>
        <time>2020-12-02T11:47:20Z</time>
      </trkpt>
      <trkpt lat="37.54429" lon="27.62257">
        <ele>672</ele>
        <time>2020-12-02T11:47:19Z</time>
      </trkpt>
      <trkpt lat="37.5443" lon="27.62256">
        <ele>672</ele>
        <time>2020-12-02T11:47:18Z</time>
      </trkpt>
      <trkpt lat="37.54431" lon="27.62256">
        <ele>671.8</ele>
        <time>2020-12-02T11:47:17Z</time>
      </trkpt>
      <trkpt lat="37.54432" lon="27.62256">
        <ele>671.6</ele>
        <time>2020-12-02T11:47:16Z</time>
      </trkpt>
      <trkpt lat="37.54434" lon="27.62256">
        <ele>671.4</ele>
        <time>2020-12-02T11:47:15Z</time>
      </trkpt>
      <trkpt lat="37.54435" lon="27.62256">
        <ele>671.4</ele>
        <time>2020-12-02T11:47:14Z</time>
      </trkpt>
      <trkpt lat="37.54436" lon="27.62255">
        <ele>671.2</ele>
        <time>2020-12-02T11:47:13Z</time>
      </trkpt>
      <trkpt lat="37.54437" lon="27.62255">
        <ele>671</ele>
        <time>2020-12-02T11:47:12Z</time>
      </trkpt>
      <trkpt lat="37.54438" lon="27.62256">
        <ele>671.2</ele>
        <time>2020-12-02T11:47:11Z</time>
      </trkpt>
      <trkpt lat="37.5444" lon="27.62257">
        <ele>671</ele>
        <time>2020-12-02T11:47:10Z</time>
      </trkpt>
      <trkpt lat="37.54441" lon="27.62258">
        <ele>671</ele>
        <time>2020-12-02T11:47:09Z</time>
      </trkpt>
      <trkpt lat="37.54442" lon="27.62259">
        <ele>671.2</ele>
        <time>2020-12-02T11:47:08Z</time>
      </trkpt>
      <trkpt lat="37.54444" lon="27.6226">
        <ele>671</ele>
        <time>2020-12-02T11:47:07Z</time>
      </trkpt>
      <trkpt lat="37.54445" lon="27.62261">
        <ele>671</ele>
        <time>2020-12-02T11:47:06Z</time>
      </trkpt>
      <trkpt lat="37.54446" lon="27.62261">
        <ele>670.8</ele>
        <time>2020-12-02T11:47:05Z</time>
      </trkpt>
      <trkpt lat="37.54448" lon="27.62262">
        <ele>670.8</ele>
        <time>2020-12-02T11:47:04Z</time>
      </trkpt>
      <trkpt lat="37.54449" lon="27.62264">
        <ele>670.6</ele>
        <time>2020-12-02T11:47:03Z</time>
      </trkpt>
      <trkpt lat="37.54451" lon="27.62265">
        <ele>670.6</ele>
        <time>2020-12-02T11:47:02Z</time>
      </trkpt>
      <trkpt lat="37.54452" lon="27.62266">
        <ele>670.6</ele>
        <time>2020-12-02T11:47:01Z</time>
      </trkpt>
      <trkpt lat="37.54454" lon="27.62267">
        <ele>670.6</ele>
        <time>2020-12-02T11:47:00Z</time>
      </trkpt>
      <trkpt lat="37.54455" lon="27.62268">
        <ele>670.6</ele>
        <time>2020-12-02T11:46:59Z</time>
      </trkpt>
      <trkpt lat="37.54456" lon="27.62268">
        <ele>670.4</ele>
        <time>2020-12-02T11:46:58Z</time>
      </trkpt>
      <trkpt lat="37.54456" lon="27.62268">
        <ele>670.4</ele>
        <time>2020-12-02T11:46:57Z</time>
      </trkpt>
      <trkpt lat="37.54457" lon="27.62268">
        <ele>670.4</ele>
        <time>2020-12-02T11:46:56Z</time>
      </trkpt>
      <trkpt lat="37.54457" lon="27.62268">
        <ele>670.2</ele>
        <time>2020-12-02T11:46:55Z</time>
      </trkpt>
      <trkpt lat="37.54458" lon="27.62268">
        <ele>670.2</ele>
        <time>2020-12-02T11:46:54Z</time>
      </trkpt>
      <trkpt lat="37.54458" lon="27.62268">
        <ele>670.2</ele>
        <time>2020-12-02T11:46:53Z</time>
      </trkpt>
      <trkpt lat="37.54459" lon="27.62269">
        <ele>670.2</ele>
        <time>2020-12-02T11:46:52Z</time>
      </trkpt>
      <trkpt lat="37.54459" lon="27.62269">
        <ele>670</ele>
        <time>2020-12-02T11:46:51Z</time>
      </trkpt>
      <trkpt lat="37.5446" lon="27.62269">
        <ele>670.2</ele>
        <time>2020-12-02T11:46:50Z</time>
      </trkpt>
      <trkpt lat="37.5446" lon="27.62269">
        <ele>670</ele>
        <time>2020-12-02T11:46:49Z</time>
      </trkpt>
      <trkpt lat="37.54461" lon="27.62269">
        <ele>669.8</ele>
        <time>2020-12-02T11:46:48Z</time>
      </trkpt>
      <trkpt lat="37.54461" lon="27.62269">
        <ele>669.8</ele>
        <time>2020-12-02T11:46:47Z</time>
      </trkpt>
      <trkpt lat="37.54462" lon="27.62269">
        <ele>669.6</ele>
        <time>2020-12-02T11:46:46Z</time>
      </trkpt>
      <trkpt lat="37.54462" lon="27.62269">
        <ele>669.4</ele>
        <time>2020-12-02T11:46:45Z</time>
      </trkpt>
      <trkpt lat="37.54463" lon="27.6227">
        <ele>669.2</ele>
        <time>2020-12-02T11:46:44Z</time>
      </trkpt>
      <trkpt lat="37.54464" lon="27.6227">
        <ele>669</ele>
        <time>2020-12-02T11:46:43Z</time>
      </trkpt>
      <trkpt lat="37.54464" lon="27.6227">
        <ele>669.2</ele>
        <time>2020-12-02T11:46:42Z</time>
      </trkpt>
      <trkpt lat="37.54465" lon="27.6227">
        <ele>669.2</ele>
        <time>2020-12-02T11:46:41Z</time>
      </trkpt>
      <trkpt lat="37.54465" lon="27.6227">
        <ele>669.4</ele>
        <time>2020-12-02T11:46:40Z</time>
      </trkpt>
      <trkpt lat="37.54465" lon="27.62269">
        <ele>669.4</ele>
        <time>2020-12-02T11:46:39Z</time>
      </trkpt>
      <trkpt lat="37.54466" lon="27.62269">
        <ele>669.4</ele>
        <time>2020-12-02T11:46:38Z</time>
      </trkpt>
      <trkpt lat="37.54466" lon="27.62268">
        <ele>669.6</ele>
        <time>2020-12-02T11:46:37Z</time>
      </trkpt>
      <trkpt lat="37.54467" lon="27.62268">
        <ele>669.4</ele>
        <time>2020-12-02T11:46:36Z</time>
      </trkpt>
      <trkpt lat="37.54467" lon="27.62268">
        <ele>669.6</ele>
        <time>2020-12-02T11:46:35Z</time>
      </trkpt>
      <trkpt lat="37.54467" lon="27.62267">
        <ele>669.6</ele>
        <time>2020-12-02T11:46:34Z</time>
      </trkpt>
      <trkpt lat="37.54468" lon="27.62267">
        <ele>669.6</ele>
        <time>2020-12-02T11:46:33Z</time>
      </trkpt>
      <trkpt lat="37.54468" lon="27.62266">
        <ele>669.8</ele>
        <time>2020-12-02T11:46:32Z</time>
      </trkpt>
      <trkpt lat="37.54469" lon="27.62266">
        <ele>669.8</ele>
        <time>2020-12-02T11:46:31Z</time>
      </trkpt>
      <trkpt lat="37.54469" lon="27.62266">
        <ele>669.8</ele>
        <time>2020-12-02T11:46:30Z</time>
      </trkpt>
      <trkpt lat="37.54469" lon="27.62265">
        <ele>669.8</ele>
        <time>2020-12-02T11:46:29Z</time>
      </trkpt>
      <trkpt lat="37.5447" lon="27.62265">
        <ele>669.8</ele>
        <time>2020-12-02T11:46:28Z</time>
      </trkpt>
      <trkpt lat="37.5447" lon="27.62264">
        <ele>670</ele>
        <time>2020-12-02T11:46:27Z</time>
      </trkpt>
      <trkpt lat="37.5447" lon="27.62264">
        <ele>670</ele>
        <time>2020-12-02T11:46:26Z</time>
      </trkpt>
      <trkpt lat="37.54471" lon="27.62264">
        <ele>670</ele>
        <time>2020-12-02T11:46:25Z</time>
      </trkpt>
      <trkpt lat="37.54471" lon="27.62263">
        <ele>670.2</ele>
        <time>2020-12-02T11:46:24Z</time>
      </trkpt>
      <trkpt lat="37.54472" lon="27.62263">
        <ele>670.2</ele>
        <time>2020-12-02T11:46:23Z</time>
      </trkpt>
      <trkpt lat="37.54472" lon="27.62262">
        <ele>670.2</ele>
        <time>2020-12-02T11:46:22Z</time>
      </trkpt>
      <trkpt lat="37.54472" lon="27.62262">
        <ele>670.2</ele>
        <time>2020-12-02T11:46:21Z</time>
      </trkpt>
      <trkpt lat="37.54472" lon="27.62262">
        <ele>670.2</ele>
        <time>2020-12-02T11:46:22Z</time>
      </trkpt>
      <trkpt lat="37.54472" lon="27.62262">
        <ele>670.2</ele>
        <time>2020-12-02T11:46:21Z</time>
      </trkpt>
      <trkpt lat="37.54473" lon="27.62261">
        <ele>670.2</ele>
        <time>2020-12-02T11:46:20Z</time>
      </trkpt>
      <trkpt lat="37.54473" lon="27.6226">
        <ele>670.4</ele>
        <time>2020-12-02T11:46:19Z</time>
      </trkpt>
      <trkpt lat="37.54474" lon="27.62259">
        <ele>670.4</ele>
        <time>2020-12-02T11:46:18Z</time>
      </trkpt>
      <trkpt lat="37.54475" lon="27.62258">
        <ele>670.6</ele>
        <time>2020-12-02T11:46:17Z</time>
      </trkpt>
      <trkpt lat="37.54475" lon="27.62256">
        <ele>670.8</ele>
        <time>2020-12-02T11:46:16Z</time>
      </trkpt>
      <trkpt lat="37.54476" lon="27.62255">
        <ele>670.8</ele>
        <time>2020-12-02T11:46:15Z</time>
      </trkpt>
      <trkpt lat="37.54476" lon="27.62254">
        <ele>670.8</ele>
        <time>2020-12-02T11:46:14Z</time>
      </trkpt>
      <trkpt lat="37.54477" lon="27.62253">
        <ele>670.8</ele>
        <time>2020-12-02T11:46:13Z</time>
      </trkpt>
      <trkpt lat="37.54477" lon="27.62252">
        <ele>670.8</ele>
        <time>2020-12-02T11:46:12Z</time>
      </trkpt>
      <trkpt lat="37.54477" lon="27.62251">
        <ele>671</ele>
        <time>2020-12-02T11:46:11Z</time>
      </trkpt>
      <trkpt lat="37.54477" lon="27.6225">
        <ele>671</ele>
        <time>2020-12-02T11:46:10Z</time>
      </trkpt>
      <trkpt lat="37.54476" lon="27.62249">
        <ele>671</ele>
        <time>2020-12-02T11:46:09Z</time>
      </trkpt>
      <trkpt lat="37.54476" lon="27.62248">
        <ele>671.2</ele>
        <time>2020-12-02T11:46:08Z</time>
      </trkpt>
      <trkpt lat="37.54476" lon="27.62247">
        <ele>671.2</ele>
        <time>2020-12-02T11:46:07Z</time>
      </trkpt>
      <trkpt lat="37.54476" lon="27.62246">
        <ele>671.2</ele>
        <time>2020-12-02T11:46:06Z</time>
      </trkpt>
      <trkpt lat="37.54476" lon="27.62245">
        <ele>671.4</ele>
        <time>2020-12-02T11:46:05Z</time>
      </trkpt>
      <trkpt lat="37.54475" lon="27.62244">
        <ele>671.8</ele>
        <time>2020-12-02T11:46:04Z</time>
      </trkpt>
      <trkpt lat="37.54475" lon="27.62243">
        <ele>671.8</ele>
        <time>2020-12-02T11:46:03Z</time>
      </trkpt>
      <trkpt lat="37.54475" lon="27.62242">
        <ele>672</ele>
        <time>2020-12-02T11:46:02Z</time>
      </trkpt>
      <trkpt lat="37.54475" lon="27.62241">
        <ele>672.2</ele>
        <time>2020-12-02T11:46:01Z</time>
      </trkpt>
      <trkpt lat="37.54475" lon="27.62241">
        <ele>672.4</ele>
        <time>2020-12-02T11:46:00Z</time>
      </trkpt>
      <trkpt lat="37.54473" lon="27.62239">
        <ele>672.4</ele>
        <time>2020-12-02T11:45:59Z</time>
      </trkpt>
      <trkpt lat="37.54472" lon="27.62239">
        <ele>672.6</ele>
        <time>2020-12-02T11:45:58Z</time>
      </trkpt>
      <trkpt lat="37.54471" lon="27.62238">
        <ele>672.6</ele>
        <time>2020-12-02T11:45:57Z</time>
      </trkpt>
      <trkpt lat="37.54471" lon="27.62237">
        <ele>672.8</ele>
        <time>2020-12-02T11:45:56Z</time>
      </trkpt>
      <trkpt lat="37.5447" lon="27.62237">
        <ele>672.8</ele>
        <time>2020-12-02T11:45:55Z</time>
      </trkpt>
      <trkpt lat="37.54469" lon="27.62236">
        <ele>673</ele>
        <time>2020-12-02T11:45:54Z</time>
      </trkpt>
      <trkpt lat="37.54468" lon="27.62235">
        <ele>673.2</ele>
        <time>2020-12-02T11:45:53Z</time>
      </trkpt>
      <trkpt lat="37.54467" lon="27.62235">
        <ele>673.2</ele>
        <time>2020-12-02T11:45:52Z</time>
      </trkpt>
      <trkpt lat="37.54467" lon="27.62234">
        <ele>673.2</ele>
        <time>2020-12-02T11:45:51Z</time>
      </trkpt>
      <trkpt lat="37.54467" lon="27.62234">
        <ele>673.4</ele>
        <time>2020-12-02T11:45:50Z</time>
      </trkpt>
      <trkpt lat="37.54466" lon="27.62233">
        <ele>673.8</ele>
        <time>2020-12-02T11:45:49Z</time>
      </trkpt>
      <trkpt lat="37.54466" lon="27.62233">
        <ele>673.8</ele>
        <time>2020-12-02T11:45:48Z</time>
      </trkpt>
      <trkpt lat="37.54466" lon="27.62232">
        <ele>673.8</ele>
        <time>2020-12-02T11:45:47Z</time>
      </trkpt>
      <trkpt lat="37.54465" lon="27.62232">
        <ele>674</ele>
        <time>2020-12-02T11:45:46Z</time>
      </trkpt>
      <trkpt lat="37.54465" lon="27.62231">
        <ele>674</ele>
        <time>2020-12-02T11:45:45Z</time>
      </trkpt>
      <trkpt lat="37.54465" lon="27.62231">
        <ele>674</ele>
        <time>2020-12-02T11:45:44Z</time>
      </trkpt>
      <trkpt lat="37.54465" lon="27.6223">
        <ele>674.2</ele>
        <time>2020-12-02T11:45:43Z</time>
      </trkpt>
      <trkpt lat="37.54464" lon="27.6223">
        <ele>674.2</ele>
        <time>2020-12-02T11:45:42Z</time>
      </trkpt>
      <trkpt lat="37.54464" lon="27.62229">
        <ele>674.6</ele>
        <time>2020-12-02T11:45:41Z</time>
      </trkpt>
      <trkpt lat="37.54464" lon="27.62229">
        <ele>674.6</ele>
        <time>2020-12-02T11:45:40Z</time>
      </trkpt>
      <trkpt lat="37.54463" lon="27.62228">
        <ele>675</ele>
        <time>2020-12-02T11:45:39Z</time>
      </trkpt>
      <trkpt lat="37.54463" lon="27.62228">
        <ele>675.2</ele>
        <time>2020-12-02T11:45:38Z</time>
      </trkpt>
      <trkpt lat="37.54463" lon="27.62227">
        <ele>675.4</ele>
        <time>2020-12-02T11:45:37Z</time>
      </trkpt>
      <trkpt lat="37.54462" lon="27.62227">
        <ele>675.6</ele>
        <time>2020-12-02T11:45:36Z</time>
      </trkpt>
      <trkpt lat="37.54462" lon="27.62226">
        <ele>675.6</ele>
        <time>2020-12-02T11:45:35Z</time>
      </trkpt>
      <trkpt lat="37.54462" lon="27.62226">
        <ele>676</ele>
        <time>2020-12-02T11:45:34Z</time>
      </trkpt>
      <trkpt lat="37.54462" lon="27.62226">
        <ele>676</ele>
        <time>2020-12-02T11:45:33Z</time>
      </trkpt>
      <trkpt lat="37.54459" lon="27.62225">
        <ele>676.2</ele>
        <time>2020-12-02T11:45:32Z</time>
      </trkpt>
      <trkpt lat="37.54459" lon="27.62225">
        <ele>676.4</ele>
        <time>2020-12-02T11:45:31Z</time>
      </trkpt>
      <trkpt lat="37.54459" lon="27.62225">
        <ele>676.4</ele>
        <time>2020-12-02T11:45:30Z</time>
      </trkpt>
      <trkpt lat="37.54459" lon="27.62223">
        <ele>676.6</ele>
        <time>2020-12-02T11:45:29Z</time>
      </trkpt>
      <trkpt lat="37.54459" lon="27.62223">
        <ele>676.4</ele>
        <time>2020-12-02T11:45:28Z</time>
      </trkpt>
      <trkpt lat="37.54459" lon="27.62223">
        <ele>676.6</ele>
        <time>2020-12-02T11:45:27Z</time>
      </trkpt>
      <trkpt lat="37.54459" lon="27.62221">
        <ele>677</ele>
        <time>2020-12-02T11:45:26Z</time>
      </trkpt>
      <trkpt lat="37.54459" lon="27.6222">
        <ele>677.2</ele>
        <time>2020-12-02T11:45:25Z</time>
      </trkpt>
      <trkpt lat="37.5446" lon="27.6222">
        <ele>677.2</ele>
        <time>2020-12-02T11:45:24Z</time>
      </trkpt>
      <trkpt lat="37.5446" lon="27.62219">
        <ele>677.4</ele>
        <time>2020-12-02T11:45:23Z</time>
      </trkpt>
      <trkpt lat="37.5446" lon="27.62218">
        <ele>677.6</ele>
        <time>2020-12-02T11:45:22Z</time>
      </trkpt>
      <trkpt lat="37.5446" lon="27.62218">
        <ele>677.6</ele>
        <time>2020-12-02T11:45:21Z</time>
      </trkpt>
      <trkpt lat="37.5446" lon="27.62217">
        <ele>677.8</ele>
        <time>2020-12-02T11:45:20Z</time>
      </trkpt>
      <trkpt lat="37.5446" lon="27.62216">
        <ele>677.8</ele>
        <time>2020-12-02T11:45:19Z</time>
      </trkpt>
      <trkpt lat="37.5446" lon="27.62216">
        <ele>678</ele>
        <time>2020-12-02T11:45:18Z</time>
      </trkpt>
      <trkpt lat="37.54461" lon="27.62215">
        <ele>678</ele>
        <time>2020-12-02T11:45:17Z</time>
      </trkpt>
      <trkpt lat="37.54461" lon="27.62215">
        <ele>678</ele>
        <time>2020-12-02T11:45:16Z</time>
      </trkpt>
      <trkpt lat="37.54461" lon="27.62214">
        <ele>678</ele>
        <time>2020-12-02T11:45:15Z</time>
      </trkpt>
      <trkpt lat="37.54461" lon="27.62213">
        <ele>678</ele>
        <time>2020-12-02T11:45:14Z</time>
      </trkpt>
      <trkpt lat="37.54461" lon="27.62213">
        <ele>678</ele>
        <time>2020-12-02T11:45:13Z</time>
      </trkpt>
      <trkpt lat="37.54461" lon="27.62212">
        <ele>677.8</ele>
        <time>2020-12-02T11:45:12Z</time>
      </trkpt>
      <trkpt lat="37.54462" lon="27.62211">
        <ele>678</ele>
        <time>2020-12-02T11:45:11Z</time>
      </trkpt>
      <trkpt lat="37.54462" lon="27.62211">
        <ele>678</ele>
        <time>2020-12-02T11:45:10Z</time>
      </trkpt>
      <trkpt lat="37.54462" lon="27.6221">
        <ele>678</ele>
        <time>2020-12-02T11:45:09Z</time>
      </trkpt>
      <trkpt lat="37.54462" lon="27.62209">
        <ele>678.2</ele>
        <time>2020-12-02T11:45:08Z</time>
      </trkpt>
      <trkpt lat="37.54463" lon="27.62208">
        <ele>678.2</ele>
        <time>2020-12-02T11:45:07Z</time>
      </trkpt>
      <trkpt lat="37.54463" lon="27.62208">
        <ele>678.4</ele>
        <time>2020-12-02T11:45:06Z</time>
      </trkpt>
      <trkpt lat="37.54463" lon="27.62207">
        <ele>678.6</ele>
        <time>2020-12-02T11:45:05Z</time>
      </trkpt>
      <trkpt lat="37.54463" lon="27.62206">
        <ele>678.8</ele>
        <time>2020-12-02T11:45:04Z</time>
      </trkpt>
      <trkpt lat="37.54463" lon="27.62206">
        <ele>679.2</ele>
        <time>2020-12-02T11:45:03Z</time>
      </trkpt>
      <trkpt lat="37.54463" lon="27.62203">
        <ele>679.2</ele>
        <time>2020-12-02T11:45:02Z</time>
      </trkpt>
      <trkpt lat="37.54463" lon="27.62203">
        <ele>679.4</ele>
        <time>2020-12-02T11:45:01Z</time>
      </trkpt>
      <trkpt lat="37.54462" lon="27.622">
        <ele>679.2</ele>
        <time>2020-12-02T11:45:00Z</time>
      </trkpt>
      <trkpt lat="37.54462" lon="27.622">
        <ele>679.4</ele>
        <time>2020-12-02T11:44:59Z</time>
      </trkpt>
      <trkpt lat="37.54461" lon="27.62197">
        <ele>679.4</ele>
        <time>2020-12-02T11:44:58Z</time>
      </trkpt>
      <trkpt lat="37.54461" lon="27.62197">
        <ele>679.4</ele>
        <time>2020-12-02T11:44:57Z</time>
      </trkpt>
      <trkpt lat="37.54461" lon="27.62194">
        <ele>679.6</ele>
        <time>2020-12-02T11:44:56Z</time>
      </trkpt>
      <trkpt lat="37.54461" lon="27.62194">
        <ele>679.6</ele>
        <time>2020-12-02T11:44:55Z</time>
      </trkpt>
      <trkpt lat="37.54461" lon="27.62191">
        <ele>679.6</ele>
        <time>2020-12-02T11:44:54Z</time>
      </trkpt>
      <trkpt lat="37.54461" lon="27.62191">
        <ele>679.6</ele>
        <time>2020-12-02T11:44:53Z</time>
      </trkpt>
      <trkpt lat="37.54462" lon="27.62189">
        <ele>679.8</ele>
        <time>2020-12-02T11:44:52Z</time>
      </trkpt>
      <trkpt lat="37.54462" lon="27.62189">
        <ele>679.8</ele>
        <time>2020-12-02T11:44:51Z</time>
      </trkpt>
      <trkpt lat="37.54462" lon="27.62189">
        <ele>679.8</ele>
        <time>2020-12-02T11:44:50Z</time>
      </trkpt>
      <trkpt lat="37.54462" lon="27.62189">
        <ele>679.8</ele>
        <time>2020-12-02T11:44:49Z</time>
      </trkpt>
      <trkpt lat="37.54462" lon="27.62189">
        <ele>680.2</ele>
        <time>2020-12-02T11:44:48Z</time>
      </trkpt>
      <trkpt lat="37.54462" lon="27.62186">
        <ele>680.2</ele>
        <time>2020-12-02T11:44:47Z</time>
      </trkpt>
      <trkpt lat="37.54462" lon="27.62186">
        <ele>680.2</ele>
        <time>2020-12-02T11:44:46Z</time>
      </trkpt>
      <trkpt lat="37.54461" lon="27.62183">
        <ele>680.2</ele>
        <time>2020-12-02T11:44:45Z</time>
      </trkpt>
      <trkpt lat="37.54461" lon="27.62183">
        <ele>680.2</ele>
        <time>2020-12-02T11:44:44Z</time>
      </trkpt>
      <trkpt lat="37.5446" lon="27.6218">
        <ele>680.4</ele>
        <time>2020-12-02T11:44:43Z</time>
      </trkpt>
      <trkpt lat="37.5446" lon="27.6218">
        <ele>680.4</ele>
        <time>2020-12-02T11:44:42Z</time>
      </trkpt>
      <trkpt lat="37.54459" lon="27.62178">
        <ele>680.6</ele>
        <time>2020-12-02T11:44:41Z</time>
      </trkpt>
      <trkpt lat="37.54459" lon="27.62178">
        <ele>680.8</ele>
        <time>2020-12-02T11:44:40Z</time>
      </trkpt>
      <trkpt lat="37.54456" lon="27.62178">
        <ele>680.8</ele>
        <time>2020-12-02T11:44:39Z</time>
      </trkpt>
      <trkpt lat="37.54456" lon="27.62178">
        <ele>681</ele>
        <time>2020-12-02T11:44:38Z</time>
      </trkpt>
      <trkpt lat="37.54454" lon="27.62178">
        <ele>681.2</ele>
        <time>2020-12-02T11:44:37Z</time>
      </trkpt>
      <trkpt lat="37.54454" lon="27.62178">
        <ele>681.4</ele>
        <time>2020-12-02T11:44:36Z</time>
      </trkpt>
      <trkpt lat="37.54454" lon="27.62178">
        <ele>681.4</ele>
        <time>2020-12-02T11:44:35Z</time>
      </trkpt>
      <trkpt lat="37.54452" lon="27.62177">
        <ele>681.4</ele>
        <time>2020-12-02T11:44:34Z</time>
      </trkpt>
      <trkpt lat="37.54452" lon="27.62177">
        <ele>681.8</ele>
        <time>2020-12-02T11:44:33Z</time>
      </trkpt>
      <trkpt lat="37.54452" lon="27.62177">
        <ele>681.8</ele>
        <time>2020-12-02T11:44:32Z</time>
      </trkpt>
      <trkpt lat="37.54452" lon="27.62177">
        <ele>682</ele>
        <time>2020-12-02T11:44:31Z</time>
      </trkpt>
      <trkpt lat="37.5445" lon="27.62177">
        <ele>682.2</ele>
        <time>2020-12-02T11:44:30Z</time>
      </trkpt>
      <trkpt lat="37.5445" lon="27.62177">
        <ele>682.4</ele>
        <time>2020-12-02T11:44:29Z</time>
      </trkpt>
      <trkpt lat="37.5445" lon="27.62177">
        <ele>682.4</ele>
        <time>2020-12-02T11:44:28Z</time>
      </trkpt>
      <trkpt lat="37.54448" lon="27.62176">
        <ele>682.6</ele>
        <time>2020-12-02T11:44:27Z</time>
      </trkpt>
      <trkpt lat="37.54448" lon="27.62176">
        <ele>682.8</ele>
        <time>2020-12-02T11:44:26Z</time>
      </trkpt>
      <trkpt lat="37.54448" lon="27.62176">
        <ele>682.8</ele>
        <time>2020-12-02T11:44:25Z</time>
      </trkpt>
      <trkpt lat="37.54448" lon="27.62176">
        <ele>683</ele>
        <time>2020-12-02T11:44:24Z</time>
      </trkpt>
      <trkpt lat="37.54446" lon="27.62175">
        <ele>683.4</ele>
        <time>2020-12-02T11:44:23Z</time>
      </trkpt>
      <trkpt lat="37.54446" lon="27.62175">
        <ele>683.2</ele>
        <time>2020-12-02T11:44:22Z</time>
      </trkpt>
      <trkpt lat="37.54446" lon="27.62175">
        <ele>683.2</ele>
        <time>2020-12-02T11:44:21Z</time>
      </trkpt>
      <trkpt lat="37.54444" lon="27.62174">
        <ele>683.2</ele>
        <time>2020-12-02T11:44:20Z</time>
      </trkpt>
      <trkpt lat="37.54444" lon="27.62174">
        <ele>683.4</ele>
        <time>2020-12-02T11:44:19Z</time>
      </trkpt>
      <trkpt lat="37.54442" lon="27.62173">
        <ele>683.4</ele>
        <time>2020-12-02T11:44:18Z</time>
      </trkpt>
      <trkpt lat="37.54442" lon="27.62173">
        <ele>683.6</ele>
        <time>2020-12-02T11:44:17Z</time>
      </trkpt>
      <trkpt lat="37.54442" lon="27.62173">
        <ele>683.8</ele>
        <time>2020-12-02T11:44:16Z</time>
      </trkpt>
      <trkpt lat="37.5444" lon="27.62171">
        <ele>683.8</ele>
        <time>2020-12-02T11:44:15Z</time>
      </trkpt>
      <trkpt lat="37.5444" lon="27.62171">
        <ele>684</ele>
        <time>2020-12-02T11:44:14Z</time>
      </trkpt>
      <trkpt lat="37.5444" lon="27.62171">
        <ele>684.2</ele>
        <time>2020-12-02T11:44:13Z</time>
      </trkpt>
      <trkpt lat="37.54439" lon="27.6217">
        <ele>684.2</ele>
        <time>2020-12-02T11:44:12Z</time>
      </trkpt>
      <trkpt lat="37.54439" lon="27.6217">
        <ele>684.4</ele>
        <time>2020-12-02T11:44:11Z</time>
      </trkpt>
      <trkpt lat="37.54437" lon="27.62168">
        <ele>684.4</ele>
        <time>2020-12-02T11:44:10Z</time>
      </trkpt>
      <trkpt lat="37.54437" lon="27.62168">
        <ele>684.4</ele>
        <time>2020-12-02T11:44:09Z</time>
      </trkpt>
      <trkpt lat="37.54435" lon="27.62165">
        <ele>684.8</ele>
        <time>2020-12-02T11:44:08Z</time>
      </trkpt>
      <trkpt lat="37.54435" lon="27.62165">
        <ele>684.8</ele>
        <time>2020-12-02T11:44:07Z</time>
      </trkpt>
      <trkpt lat="37.54435" lon="27.62165">
        <ele>684.8</ele>
        <time>2020-12-02T11:44:06Z</time>
      </trkpt>
      <trkpt lat="37.54434" lon="27.62164">
        <ele>685</ele>
        <time>2020-12-02T11:44:05Z</time>
      </trkpt>
      <trkpt lat="37.54434" lon="27.62164">
        <ele>685</ele>
        <time>2020-12-02T11:44:04Z</time>
      </trkpt>
      <trkpt lat="37.54433" lon="27.62164">
        <ele>685</ele>
        <time>2020-12-02T11:44:03Z</time>
      </trkpt>
      <trkpt lat="37.54433" lon="27.62164">
        <ele>685</ele>
        <time>2020-12-02T11:44:02Z</time>
      </trkpt>
      <trkpt lat="37.54432" lon="27.62164">
        <ele>685</ele>
        <time>2020-12-02T11:44:01Z</time>
      </trkpt>
      <trkpt lat="37.54432" lon="27.62164">
        <ele>685</ele>
        <time>2020-12-02T11:44:00Z</time>
      </trkpt>
      <trkpt lat="37.54431" lon="27.62163">
        <ele>685.2</ele>
        <time>2020-12-02T11:43:59Z</time>
      </trkpt>
      <trkpt lat="37.54431" lon="27.62163">
        <ele>685.2</ele>
        <time>2020-12-02T11:43:58Z</time>
      </trkpt>
      <trkpt lat="37.5443" lon="27.62163">
        <ele>685.2</ele>
        <time>2020-12-02T11:43:57Z</time>
      </trkpt>
      <trkpt lat="37.5443" lon="27.62163">
        <ele>685.2</ele>
        <time>2020-12-02T11:43:56Z</time>
      </trkpt>
      <trkpt lat="37.54429" lon="27.62163">
        <ele>685.4</ele>
        <time>2020-12-02T11:43:55Z</time>
      </trkpt>
      <trkpt lat="37.54429" lon="27.62163">
        <ele>685.4</ele>
        <time>2020-12-02T11:43:54Z</time>
      </trkpt>
      <trkpt lat="37.54428" lon="27.62163">
        <ele>685.6</ele>
        <time>2020-12-02T11:43:53Z</time>
      </trkpt>
      <trkpt lat="37.54428" lon="27.62163">
        <ele>685.8</ele>
        <time>2020-12-02T11:43:52Z</time>
      </trkpt>
      <trkpt lat="37.54428" lon="27.62163">
        <ele>686</ele>
        <time>2020-12-02T11:43:51Z</time>
      </trkpt>
      <trkpt lat="37.54424" lon="27.62162">
        <ele>686</ele>
        <time>2020-12-02T11:43:50Z</time>
      </trkpt>
      <trkpt lat="37.54424" lon="27.62162">
        <ele>686.2</ele>
        <time>2020-12-02T11:43:49Z</time>
      </trkpt>
      <trkpt lat="37.54424" lon="27.62162">
        <ele>686.4</ele>
        <time>2020-12-02T11:43:48Z</time>
      </trkpt>
      <trkpt lat="37.54424" lon="27.62162">
        <ele>686.6</ele>
        <time>2020-12-02T11:43:47Z</time>
      </trkpt>
      <trkpt lat="37.54424" lon="27.62162">
        <ele>686.8</ele>
        <time>2020-12-02T11:43:46Z</time>
      </trkpt>
      <trkpt lat="37.54424" lon="27.62162">
        <ele>687</ele>
        <time>2020-12-02T11:43:45Z</time>
      </trkpt>
      <trkpt lat="37.54421" lon="27.62162">
        <ele>687</ele>
        <time>2020-12-02T11:43:44Z</time>
      </trkpt>
      <trkpt lat="37.54421" lon="27.62162">
        <ele>687</ele>
        <time>2020-12-02T11:43:43Z</time>
      </trkpt>
      <trkpt lat="37.54421" lon="27.62162">
        <ele>687.2</ele>
        <time>2020-12-02T11:43:42Z</time>
      </trkpt>
      <trkpt lat="37.54419" lon="27.62162">
        <ele>687.4</ele>
        <time>2020-12-02T11:43:41Z</time>
      </trkpt>
      <trkpt lat="37.54419" lon="27.62162">
        <ele>687.4</ele>
        <time>2020-12-02T11:43:40Z</time>
      </trkpt>
      <trkpt lat="37.54419" lon="27.62162">
        <ele>687.4</ele>
        <time>2020-12-02T11:43:39Z</time>
      </trkpt>
      <trkpt lat="37.54418" lon="27.6216">
        <ele>687.6</ele>
        <time>2020-12-02T11:43:38Z</time>
      </trkpt>
      <trkpt lat="37.54418" lon="27.6216">
        <ele>687.6</ele>
        <time>2020-12-02T11:43:37Z</time>
      </trkpt>
      <trkpt lat="37.54416" lon="27.62158">
        <ele>687.6</ele>
        <time>2020-12-02T11:43:36Z</time>
      </trkpt>
      <trkpt lat="37.54416" lon="27.62158">
        <ele>687.8</ele>
        <time>2020-12-02T11:43:35Z</time>
      </trkpt>
      <trkpt lat="37.54414" lon="27.62156">
        <ele>687.8</ele>
        <time>2020-12-02T11:43:34Z</time>
      </trkpt>
      <trkpt lat="37.54414" lon="27.62156">
        <ele>688</ele>
        <time>2020-12-02T11:43:33Z</time>
      </trkpt>
      <trkpt lat="37.54414" lon="27.62156">
        <ele>688</ele>
        <time>2020-12-02T11:43:32Z</time>
      </trkpt>
      <trkpt lat="37.54414" lon="27.62156">
        <ele>687.8</ele>
        <time>2020-12-02T11:43:31Z</time>
      </trkpt>
      <trkpt lat="37.54414" lon="27.62156">
        <ele>688</ele>
        <time>2020-12-02T11:43:30Z</time>
      </trkpt>
      <trkpt lat="37.54414" lon="27.62156">
        <ele>688</ele>
        <time>2020-12-02T11:43:29Z</time>
      </trkpt>
      <trkpt lat="37.54413" lon="27.62155">
        <ele>688</ele>
        <time>2020-12-02T11:43:28Z</time>
      </trkpt>
      <trkpt lat="37.54413" lon="27.62154">
        <ele>688</ele>
        <time>2020-12-02T11:43:27Z</time>
      </trkpt>
      <trkpt lat="37.54412" lon="27.62153">
        <ele>688</ele>
        <time>2020-12-02T11:43:26Z</time>
      </trkpt>
      <trkpt lat="37.54411" lon="27.62153">
        <ele>687.8</ele>
        <time>2020-12-02T11:43:25Z</time>
      </trkpt>
      <trkpt lat="37.54411" lon="27.62152">
        <ele>688</ele>
        <time>2020-12-02T11:43:24Z</time>
      </trkpt>
      <trkpt lat="37.5441" lon="27.62151">
        <ele>687.8</ele>
        <time>2020-12-02T11:43:23Z</time>
      </trkpt>
      <trkpt lat="37.54409" lon="27.6215">
        <ele>687.8</ele>
        <time>2020-12-02T11:43:22Z</time>
      </trkpt>
      <trkpt lat="37.54409" lon="27.62149">
        <ele>687.8</ele>
        <time>2020-12-02T11:43:21Z</time>
      </trkpt>
      <trkpt lat="37.54408" lon="27.62149">
        <ele>687.6</ele>
        <time>2020-12-02T11:43:20Z</time>
      </trkpt>
      <trkpt lat="37.54407" lon="27.62148">
        <ele>687.6</ele>
        <time>2020-12-02T11:43:19Z</time>
      </trkpt>
      <trkpt lat="37.54407" lon="27.62147">
        <ele>687.6</ele>
        <time>2020-12-02T11:43:18Z</time>
      </trkpt>
      <trkpt lat="37.54406" lon="27.62146">
        <ele>687.6</ele>
        <time>2020-12-02T11:43:17Z</time>
      </trkpt>
      <trkpt lat="37.54406" lon="27.62146">
        <ele>687.6</ele>
        <time>2020-12-02T11:43:16Z</time>
      </trkpt>
      <trkpt lat="37.54406" lon="27.62144">
        <ele>687.8</ele>
        <time>2020-12-02T11:43:15Z</time>
      </trkpt>
      <trkpt lat="37.54406" lon="27.62144">
        <ele>688</ele>
        <time>2020-12-02T11:43:14Z</time>
      </trkpt>
      <trkpt lat="37.54406" lon="27.62144">
        <ele>688.2</ele>
        <time>2020-12-02T11:43:13Z</time>
      </trkpt>
      <trkpt lat="37.54406" lon="27.62144">
        <ele>688.2</ele>
        <time>2020-12-02T11:43:12Z</time>
      </trkpt>
      <trkpt lat="37.54405" lon="27.62141">
        <ele>688.2</ele>
        <time>2020-12-02T11:43:11Z</time>
      </trkpt>
      <trkpt lat="37.54405" lon="27.62141">
        <ele>688.2</ele>
        <time>2020-12-02T11:43:10Z</time>
      </trkpt>
      <trkpt lat="37.54405" lon="27.62141">
        <ele>688.4</ele>
        <time>2020-12-02T11:43:09Z</time>
      </trkpt>
      <trkpt lat="37.54405" lon="27.62138">
        <ele>688.4</ele>
        <time>2020-12-02T11:43:08Z</time>
      </trkpt>
      <trkpt lat="37.54405" lon="27.62138">
        <ele>688.4</ele>
        <time>2020-12-02T11:43:07Z</time>
      </trkpt>
      <trkpt lat="37.54405" lon="27.62138">
        <ele>688.4</ele>
        <time>2020-12-02T11:43:06Z</time>
      </trkpt>
      <trkpt lat="37.54405" lon="27.62138">
        <ele>688.6</ele>
        <time>2020-12-02T11:43:05Z</time>
      </trkpt>
      <trkpt lat="37.54405" lon="27.62138">
        <ele>688.6</ele>
        <time>2020-12-02T11:43:04Z</time>
      </trkpt>
      <trkpt lat="37.54405" lon="27.62138">
        <ele>688.6</ele>
        <time>2020-12-02T11:43:03Z</time>
      </trkpt>
      <trkpt lat="37.54405" lon="27.62138">
        <ele>688.8</ele>
        <time>2020-12-02T11:43:02Z</time>
      </trkpt>
      <trkpt lat="37.54404" lon="27.62135">
        <ele>689</ele>
        <time>2020-12-02T11:43:01Z</time>
      </trkpt>
      <trkpt lat="37.54404" lon="27.62135">
        <ele>689.2</ele>
        <time>2020-12-02T11:43:00Z</time>
      </trkpt>
      <trkpt lat="37.54404" lon="27.62135">
        <ele>689.4</ele>
        <time>2020-12-02T11:42:59Z</time>
      </trkpt>
      <trkpt lat="37.54402" lon="27.62134">
        <ele>689.6</ele>
        <time>2020-12-02T11:42:58Z</time>
      </trkpt>
      <trkpt lat="37.54402" lon="27.62134">
        <ele>690</ele>
        <time>2020-12-02T11:42:57Z</time>
      </trkpt>
      <trkpt lat="37.54402" lon="27.62134">
        <ele>690</ele>
        <time>2020-12-02T11:42:56Z</time>
      </trkpt>
      <trkpt lat="37.544" lon="27.62135">
        <ele>690.2</ele>
        <time>2020-12-02T11:42:55Z</time>
      </trkpt>
      <trkpt lat="37.544" lon="27.62135">
        <ele>690.4</ele>
        <time>2020-12-02T11:42:54Z</time>
      </trkpt>
      <trkpt lat="37.544" lon="27.62135">
        <ele>690.6</ele>
        <time>2020-12-02T11:42:53Z</time>
      </trkpt>
      <trkpt lat="37.544" lon="27.62135">
        <ele>690.8</ele>
        <time>2020-12-02T11:42:52Z</time>
      </trkpt>
      <trkpt lat="37.54398" lon="27.62133">
        <ele>691</ele>
        <time>2020-12-02T11:42:51Z</time>
      </trkpt>
      <trkpt lat="37.54398" lon="27.62133">
        <ele>691.2</ele>
        <time>2020-12-02T11:42:50Z</time>
      </trkpt>
      <trkpt lat="37.54397" lon="27.62131">
        <ele>691.2</ele>
        <time>2020-12-02T11:42:49Z</time>
      </trkpt>
      <trkpt lat="37.54397" lon="27.62131">
        <ele>691.4</ele>
        <time>2020-12-02T11:42:48Z</time>
      </trkpt>
      <trkpt lat="37.54397" lon="27.62131">
        <ele>691.6</ele>
        <time>2020-12-02T11:42:47Z</time>
      </trkpt>
      <trkpt lat="37.54396" lon="27.62128">
        <ele>691.6</ele>
        <time>2020-12-02T11:42:46Z</time>
      </trkpt>
      <trkpt lat="37.54396" lon="27.62128">
        <ele>691.8</ele>
        <time>2020-12-02T11:42:45Z</time>
      </trkpt>
      <trkpt lat="37.54396" lon="27.62128">
        <ele>691.8</ele>
        <time>2020-12-02T11:42:44Z</time>
      </trkpt>
      <trkpt lat="37.54393" lon="27.62128">
        <ele>692</ele>
        <time>2020-12-02T11:42:43Z</time>
      </trkpt>
      <trkpt lat="37.54393" lon="27.62128">
        <ele>692</ele>
        <time>2020-12-02T11:42:42Z</time>
      </trkpt>
      <trkpt lat="37.54393" lon="27.62128">
        <ele>692</ele>
        <time>2020-12-02T11:42:41Z</time>
      </trkpt>
      <trkpt lat="37.54391" lon="27.62127">
        <ele>692</ele>
        <time>2020-12-02T11:42:40Z</time>
      </trkpt>
      <trkpt lat="37.54391" lon="27.62127">
        <ele>692.2</ele>
        <time>2020-12-02T11:42:39Z</time>
      </trkpt>
      <trkpt lat="37.5439" lon="27.62126">
        <ele>692</ele>
        <time>2020-12-02T11:42:38Z</time>
      </trkpt>
      <trkpt lat="37.5439" lon="27.62126">
        <ele>692.2</ele>
        <time>2020-12-02T11:42:37Z</time>
      </trkpt>
      <trkpt lat="37.5439" lon="27.62126">
        <ele>692.2</ele>
        <time>2020-12-02T11:42:36Z</time>
      </trkpt>
      <trkpt lat="37.5439" lon="27.62126">
        <ele>692.2</ele>
        <time>2020-12-02T11:42:35Z</time>
      </trkpt>
      <trkpt lat="37.5439" lon="27.62126">
        <ele>692.4</ele>
        <time>2020-12-02T11:42:34Z</time>
      </trkpt>
      <trkpt lat="37.5439" lon="27.62126">
        <ele>692.4</ele>
        <time>2020-12-02T11:42:33Z</time>
      </trkpt>
      <trkpt lat="37.5439" lon="27.62126">
        <ele>692.4</ele>
        <time>2020-12-02T11:42:32Z</time>
      </trkpt>
      <trkpt lat="37.5439" lon="27.62126">
        <ele>692.6</ele>
        <time>2020-12-02T11:42:31Z</time>
      </trkpt>
      <trkpt lat="37.5439" lon="27.62126">
        <ele>692.4</ele>
        <time>2020-12-02T11:42:30Z</time>
      </trkpt>
      <trkpt lat="37.54388" lon="27.62124">
        <ele>692.6</ele>
        <time>2020-12-02T11:42:29Z</time>
      </trkpt>
      <trkpt lat="37.54388" lon="27.62124">
        <ele>693</ele>
        <time>2020-12-02T11:42:28Z</time>
      </trkpt>
      <trkpt lat="37.54388" lon="27.62124">
        <ele>693.2</ele>
        <time>2020-12-02T11:42:27Z</time>
      </trkpt>
      <trkpt lat="37.54387" lon="27.62124">
        <ele>693.4</ele>
        <time>2020-12-02T11:42:26Z</time>
      </trkpt>
      <trkpt lat="37.54387" lon="27.62124">
        <ele>693.6</ele>
        <time>2020-12-02T11:42:25Z</time>
      </trkpt>
      <trkpt lat="37.54387" lon="27.62124">
        <ele>694</ele>
        <time>2020-12-02T11:42:24Z</time>
      </trkpt>
      <trkpt lat="37.54384" lon="27.62122">
        <ele>694</ele>
        <time>2020-12-02T11:42:23Z</time>
      </trkpt>
      <trkpt lat="37.54384" lon="27.62122">
        <ele>694.2</ele>
        <time>2020-12-02T11:42:22Z</time>
      </trkpt>
      <trkpt lat="37.54384" lon="27.62122">
        <ele>694.4</ele>
        <time>2020-12-02T11:42:21Z</time>
      </trkpt>
      <trkpt lat="37.54383" lon="27.62121">
        <ele>694.6</ele>
        <time>2020-12-02T11:42:20Z</time>
      </trkpt>
      <trkpt lat="37.54383" lon="27.62121">
        <ele>694.8</ele>
        <time>2020-12-02T11:42:19Z</time>
      </trkpt>
      <trkpt lat="37.54383" lon="27.62121">
        <ele>695</ele>
        <time>2020-12-02T11:42:18Z</time>
      </trkpt>
      <trkpt lat="37.54381" lon="27.62121">
        <ele>695</ele>
        <time>2020-12-02T11:42:17Z</time>
      </trkpt>
      <trkpt lat="37.54381" lon="27.62121">
        <ele>695.2</ele>
        <time>2020-12-02T11:42:16Z</time>
      </trkpt>
      <trkpt lat="37.54378" lon="27.6212">
        <ele>695.4</ele>
        <time>2020-12-02T11:42:15Z</time>
      </trkpt>
      <trkpt lat="37.54378" lon="27.6212">
        <ele>695.6</ele>
        <time>2020-12-02T11:42:14Z</time>
      </trkpt>
      <trkpt lat="37.54376" lon="27.62119">
        <ele>695.8</ele>
        <time>2020-12-02T11:42:13Z</time>
      </trkpt>
      <trkpt lat="37.54376" lon="27.62119">
        <ele>696.2</ele>
        <time>2020-12-02T11:42:12Z</time>
      </trkpt>
      <trkpt lat="37.54376" lon="27.62119">
        <ele>696.2</ele>
        <time>2020-12-02T11:42:11Z</time>
      </trkpt>
      <trkpt lat="37.54374" lon="27.62119">
        <ele>696.4</ele>
        <time>2020-12-02T11:42:10Z</time>
      </trkpt>
      <trkpt lat="37.54374" lon="27.62119">
        <ele>696.6</ele>
        <time>2020-12-02T11:42:09Z</time>
      </trkpt>
      <trkpt lat="37.54373" lon="27.62116">
        <ele>696.6</ele>
        <time>2020-12-02T11:42:08Z</time>
      </trkpt>
      <trkpt lat="37.54373" lon="27.62116">
        <ele>696.8</ele>
        <time>2020-12-02T11:42:07Z</time>
      </trkpt>
      <trkpt lat="37.54373" lon="27.62116">
        <ele>696.8</ele>
        <time>2020-12-02T11:42:06Z</time>
      </trkpt>
      <trkpt lat="37.54373" lon="27.62116">
        <ele>696.8</ele>
        <time>2020-12-02T11:42:05Z</time>
      </trkpt>
      <trkpt lat="37.54373" lon="27.62116">
        <ele>696.8</ele>
        <time>2020-12-02T11:42:04Z</time>
      </trkpt>
      <trkpt lat="37.54373" lon="27.62116">
        <ele>696.8</ele>
        <time>2020-12-02T11:42:03Z</time>
      </trkpt>
      <trkpt lat="37.54373" lon="27.62116">
        <ele>696.8</ele>
        <time>2020-12-02T11:42:02Z</time>
      </trkpt>
      <trkpt lat="37.54373" lon="27.62116">
        <ele>696.8</ele>
        <time>2020-12-02T11:42:01Z</time>
      </trkpt>
      <trkpt lat="37.54373" lon="27.62116">
        <ele>697</ele>
        <time>2020-12-02T11:42:00Z</time>
      </trkpt>
      <trkpt lat="37.54373" lon="27.62116">
        <ele>697</ele>
        <time>2020-12-02T11:41:59Z</time>
      </trkpt>
      <trkpt lat="37.54372" lon="27.62114">
        <ele>697</ele>
        <time>2020-12-02T11:41:58Z</time>
      </trkpt>
      <trkpt lat="37.54372" lon="27.62114">
        <ele>697.2</ele>
        <time>2020-12-02T11:41:57Z</time>
      </trkpt>
      <trkpt lat="37.54372" lon="27.62114">
        <ele>697.4</ele>
        <time>2020-12-02T11:41:56Z</time>
      </trkpt>
      <trkpt lat="37.54372" lon="27.62114">
        <ele>697.4</ele>
        <time>2020-12-02T11:41:55Z</time>
      </trkpt>
      <trkpt lat="37.5437" lon="27.62113">
        <ele>697.4</ele>
        <time>2020-12-02T11:41:54Z</time>
      </trkpt>
      <trkpt lat="37.5437" lon="27.62113">
        <ele>697.4</ele>
        <time>2020-12-02T11:41:53Z</time>
      </trkpt>
      <trkpt lat="37.5437" lon="27.62113">
        <ele>697.8</ele>
        <time>2020-12-02T11:41:52Z</time>
      </trkpt>
      <trkpt lat="37.5437" lon="27.62113">
        <ele>697.8</ele>
        <time>2020-12-02T11:41:51Z</time>
      </trkpt>
      <trkpt lat="37.54368" lon="27.62111">
        <ele>698</ele>
        <time>2020-12-02T11:41:50Z</time>
      </trkpt>
      <trkpt lat="37.54368" lon="27.62111">
        <ele>698</ele>
        <time>2020-12-02T11:41:49Z</time>
      </trkpt>
      <trkpt lat="37.54368" lon="27.62111">
        <ele>698.2</ele>
        <time>2020-12-02T11:41:48Z</time>
      </trkpt>
      <trkpt lat="37.54367" lon="27.62109">
        <ele>698.4</ele>
        <time>2020-12-02T11:41:47Z</time>
      </trkpt>
      <trkpt lat="37.54367" lon="27.62109">
        <ele>698.4</ele>
        <time>2020-12-02T11:41:46Z</time>
      </trkpt>
      <trkpt lat="37.54365" lon="27.62108">
        <ele>698.6</ele>
        <time>2020-12-02T11:41:45Z</time>
      </trkpt>
      <trkpt lat="37.54365" lon="27.62108">
        <ele>698.6</ele>
        <time>2020-12-02T11:41:44Z</time>
      </trkpt>
      <trkpt lat="37.54363" lon="27.62106">
        <ele>698.8</ele>
        <time>2020-12-02T11:41:43Z</time>
      </trkpt>
      <trkpt lat="37.54363" lon="27.62106">
        <ele>698.8</ele>
        <time>2020-12-02T11:41:42Z</time>
      </trkpt>
      <trkpt lat="37.54361" lon="27.62104">
        <ele>698.8</ele>
        <time>2020-12-02T11:41:41Z</time>
      </trkpt>
      <trkpt lat="37.54361" lon="27.62104">
        <ele>699</ele>
        <time>2020-12-02T11:41:40Z</time>
      </trkpt>
      <trkpt lat="37.5436" lon="27.62102">
        <ele>699.2</ele>
        <time>2020-12-02T11:41:39Z</time>
      </trkpt>
      <trkpt lat="37.5436" lon="27.62102">
        <ele>699.2</ele>
        <time>2020-12-02T11:41:38Z</time>
      </trkpt>
      <trkpt lat="37.5436" lon="27.62102">
        <ele>699.4</ele>
        <time>2020-12-02T11:41:37Z</time>
      </trkpt>
      <trkpt lat="37.54359" lon="27.621">
        <ele>699.4</ele>
        <time>2020-12-02T11:41:36Z</time>
      </trkpt>
      <trkpt lat="37.54359" lon="27.621">
        <ele>699.6</ele>
        <time>2020-12-02T11:41:35Z</time>
      </trkpt>
      <trkpt lat="37.54357" lon="27.62099">
        <ele>699.6</ele>
        <time>2020-12-02T11:41:34Z</time>
      </trkpt>
      <trkpt lat="37.54357" lon="27.62099">
        <ele>699.8</ele>
        <time>2020-12-02T11:41:33Z</time>
      </trkpt>
      <trkpt lat="37.54355" lon="27.62098">
        <ele>700</ele>
        <time>2020-12-02T11:41:32Z</time>
      </trkpt>
      <trkpt lat="37.54355" lon="27.62098">
        <ele>700</ele>
        <time>2020-12-02T11:41:31Z</time>
      </trkpt>
      <trkpt lat="37.54352" lon="27.62097">
        <ele>700.4</ele>
        <time>2020-12-02T11:41:30Z</time>
      </trkpt>
      <trkpt lat="37.54352" lon="27.62097">
        <ele>700.4</ele>
        <time>2020-12-02T11:41:29Z</time>
      </trkpt>
      <trkpt lat="37.54352" lon="27.62097">
        <ele>700.6</ele>
        <time>2020-12-02T11:41:28Z</time>
      </trkpt>
      <trkpt lat="37.5435" lon="27.62097">
        <ele>700.8</ele>
        <time>2020-12-02T11:41:27Z</time>
      </trkpt>
      <trkpt lat="37.5435" lon="27.62097">
        <ele>700.8</ele>
        <time>2020-12-02T11:41:26Z</time>
      </trkpt>
      <trkpt lat="37.5435" lon="27.62097">
        <ele>701</ele>
        <time>2020-12-02T11:41:25Z</time>
      </trkpt>
      <trkpt lat="37.54348" lon="27.62097">
        <ele>701.2</ele>
        <time>2020-12-02T11:41:24Z</time>
      </trkpt>
      <trkpt lat="37.54348" lon="27.62097">
        <ele>701.4</ele>
        <time>2020-12-02T11:41:23Z</time>
      </trkpt>
      <trkpt lat="37.54346" lon="27.62098">
        <ele>701.6</ele>
        <time>2020-12-02T11:41:22Z</time>
      </trkpt>
      <trkpt lat="37.54346" lon="27.62098">
        <ele>701.8</ele>
        <time>2020-12-02T11:41:21Z</time>
      </trkpt>
      <trkpt lat="37.54344" lon="27.62098">
        <ele>702</ele>
        <time>2020-12-02T11:41:20Z</time>
      </trkpt>
      <trkpt lat="37.54344" lon="27.62098">
        <ele>702.2</ele>
        <time>2020-12-02T11:41:19Z</time>
      </trkpt>
      <trkpt lat="37.54342" lon="27.62098">
        <ele>702.4</ele>
        <time>2020-12-02T11:41:18Z</time>
      </trkpt>
      <trkpt lat="37.54342" lon="27.62098">
        <ele>702.6</ele>
        <time>2020-12-02T11:41:17Z</time>
      </trkpt>
      <trkpt lat="37.5434" lon="27.62098">
        <ele>702.8</ele>
        <time>2020-12-02T11:41:16Z</time>
      </trkpt>
      <trkpt lat="37.5434" lon="27.62098">
        <ele>703</ele>
        <time>2020-12-02T11:41:15Z</time>
      </trkpt>
      <trkpt lat="37.54338" lon="27.62098">
        <ele>703.2</ele>
        <time>2020-12-02T11:41:14Z</time>
      </trkpt>
      <trkpt lat="37.54338" lon="27.62098">
        <ele>703.2</ele>
        <time>2020-12-02T11:41:13Z</time>
      </trkpt>
      <trkpt lat="37.54335" lon="27.62098">
        <ele>703.4</ele>
        <time>2020-12-02T11:41:12Z</time>
      </trkpt>
      <trkpt lat="37.54335" lon="27.62098">
        <ele>703.6</ele>
        <time>2020-12-02T11:41:11Z</time>
      </trkpt>
      <trkpt lat="37.54335" lon="27.62098">
        <ele>704</ele>
        <time>2020-12-02T11:41:10Z</time>
      </trkpt>
      <trkpt lat="37.54335" lon="27.62098">
        <ele>704.2</ele>
        <time>2020-12-02T11:41:09Z</time>
      </trkpt>
      <trkpt lat="37.54335" lon="27.62098">
        <ele>704.4</ele>
        <time>2020-12-02T11:41:08Z</time>
      </trkpt>
      <trkpt lat="37.54335" lon="27.62098">
        <ele>704.6</ele>
        <time>2020-12-02T11:41:07Z</time>
      </trkpt>
      <trkpt lat="37.54333" lon="27.62098">
        <ele>704.8</ele>
        <time>2020-12-02T11:41:06Z</time>
      </trkpt>
      <trkpt lat="37.54333" lon="27.62098">
        <ele>705</ele>
        <time>2020-12-02T11:41:05Z</time>
      </trkpt>
      <trkpt lat="37.54333" lon="27.62098">
        <ele>705</ele>
        <time>2020-12-02T11:41:04Z</time>
      </trkpt>
      <trkpt lat="37.54331" lon="27.62097">
        <ele>705.2</ele>
        <time>2020-12-02T11:41:03Z</time>
      </trkpt>
      <trkpt lat="37.54331" lon="27.62097">
        <ele>705.4</ele>
        <time>2020-12-02T11:41:02Z</time>
      </trkpt>
      <trkpt lat="37.54328" lon="27.62097">
        <ele>705.6</ele>
        <time>2020-12-02T11:41:01Z</time>
      </trkpt>
      <trkpt lat="37.54328" lon="27.62097">
        <ele>705.8</ele>
        <time>2020-12-02T11:41:00Z</time>
      </trkpt>
      <trkpt lat="37.54328" lon="27.62097">
        <ele>706</ele>
        <time>2020-12-02T11:40:59Z</time>
      </trkpt>
      <trkpt lat="37.54326" lon="27.62096">
        <ele>706</ele>
        <time>2020-12-02T11:40:58Z</time>
      </trkpt>
      <trkpt lat="37.54326" lon="27.62096">
        <ele>706.2</ele>
        <time>2020-12-02T11:40:57Z</time>
      </trkpt>
      <trkpt lat="37.54324" lon="27.62096">
        <ele>706.4</ele>
        <time>2020-12-02T11:40:56Z</time>
      </trkpt>
      <trkpt lat="37.54324" lon="27.62096">
        <ele>706.6</ele>
        <time>2020-12-02T11:40:55Z</time>
      </trkpt>
      <trkpt lat="37.54324" lon="27.62096">
        <ele>706.6</ele>
        <time>2020-12-02T11:40:54Z</time>
      </trkpt>
      <trkpt lat="37.54322" lon="27.62095">
        <ele>706.8</ele>
        <time>2020-12-02T11:40:53Z</time>
      </trkpt>
      <trkpt lat="37.54322" lon="27.62095">
        <ele>707</ele>
        <time>2020-12-02T11:40:52Z</time>
      </trkpt>
      <trkpt lat="37.54322" lon="27.62095">
        <ele>707</ele>
        <time>2020-12-02T11:40:51Z</time>
      </trkpt>
      <trkpt lat="37.54322" lon="27.62095">
        <ele>707</ele>
        <time>2020-12-02T11:40:50Z</time>
      </trkpt>
      <trkpt lat="37.5432" lon="27.62094">
        <ele>706.8</ele>
        <time>2020-12-02T11:40:49Z</time>
      </trkpt>
      <trkpt lat="37.5432" lon="27.62094">
        <ele>706.8</ele>
        <time>2020-12-02T11:40:48Z</time>
      </trkpt>
      <trkpt lat="37.5432" lon="27.62094">
        <ele>706.8</ele>
        <time>2020-12-02T11:40:47Z</time>
      </trkpt>
      <trkpt lat="37.54319" lon="27.62092">
        <ele>707</ele>
        <time>2020-12-02T11:40:46Z</time>
      </trkpt>
      <trkpt lat="37.54319" lon="27.62092">
        <ele>707</ele>
        <time>2020-12-02T11:40:45Z</time>
      </trkpt>
      <trkpt lat="37.54318" lon="27.6209">
        <ele>706.8</ele>
        <time>2020-12-02T11:40:44Z</time>
      </trkpt>
      <trkpt lat="37.54317" lon="27.62088">
        <ele>706.8</ele>
        <time>2020-12-02T11:40:43Z</time>
      </trkpt>
      <trkpt lat="37.54316" lon="27.62086">
        <ele>706.8</ele>
        <time>2020-12-02T11:40:42Z</time>
      </trkpt>
      <trkpt lat="37.54316" lon="27.62085">
        <ele>706.8</ele>
        <time>2020-12-02T11:40:41Z</time>
      </trkpt>
      <trkpt lat="37.54315" lon="27.62083">
        <ele>706.8</ele>
        <time>2020-12-02T11:40:40Z</time>
      </trkpt>
      <trkpt lat="37.54315" lon="27.62082">
        <ele>706.8</ele>
        <time>2020-12-02T11:40:39Z</time>
      </trkpt>
      <trkpt lat="37.54315" lon="27.62082">
        <ele>706.8</ele>
        <time>2020-12-02T11:40:38Z</time>
      </trkpt>
      <trkpt lat="37.54314" lon="27.62079">
        <ele>706.8</ele>
        <time>2020-12-02T11:40:37Z</time>
      </trkpt>
      <trkpt lat="37.54313" lon="27.62077">
        <ele>706.8</ele>
        <time>2020-12-02T11:40:36Z</time>
      </trkpt>
      <trkpt lat="37.54313" lon="27.62075">
        <ele>706.8</ele>
        <time>2020-12-02T11:40:35Z</time>
      </trkpt>
      <trkpt lat="37.54312" lon="27.62073">
        <ele>707</ele>
        <time>2020-12-02T11:40:34Z</time>
      </trkpt>
      <trkpt lat="37.54312" lon="27.62071">
        <ele>707.2</ele>
        <time>2020-12-02T11:40:33Z</time>
      </trkpt>
      <trkpt lat="37.54311" lon="27.62069">
        <ele>707</ele>
        <time>2020-12-02T11:40:32Z</time>
      </trkpt>
      <trkpt lat="37.5431" lon="27.62067">
        <ele>707.2</ele>
        <time>2020-12-02T11:40:31Z</time>
      </trkpt>
      <trkpt lat="37.5431" lon="27.62067">
        <ele>707.2</ele>
        <time>2020-12-02T11:40:30Z</time>
      </trkpt>
      <trkpt lat="37.54309" lon="27.62063">
        <ele>707.2</ele>
        <time>2020-12-02T11:40:29Z</time>
      </trkpt>
      <trkpt lat="37.54309" lon="27.62063">
        <ele>707.2</ele>
        <time>2020-12-02T11:40:28Z</time>
      </trkpt>
      <trkpt lat="37.54309" lon="27.62063">
        <ele>707</ele>
        <time>2020-12-02T11:40:27Z</time>
      </trkpt>
      <trkpt lat="37.54309" lon="27.62063">
        <ele>707</ele>
        <time>2020-12-02T11:40:26Z</time>
      </trkpt>
      <trkpt lat="37.54308" lon="27.62061">
        <ele>706.8</ele>
        <time>2020-12-02T11:40:25Z</time>
      </trkpt>
      <trkpt lat="37.54308" lon="27.62061">
        <ele>706.8</ele>
        <time>2020-12-02T11:40:24Z</time>
      </trkpt>
      <trkpt lat="37.54307" lon="27.62058">
        <ele>706.6</ele>
        <time>2020-12-02T11:40:23Z</time>
      </trkpt>
      <trkpt lat="37.54307" lon="27.62058">
        <ele>706.6</ele>
        <time>2020-12-02T11:40:22Z</time>
      </trkpt>
      <trkpt lat="37.54305" lon="27.62057">
        <ele>706.4</ele>
        <time>2020-12-02T11:40:21Z</time>
      </trkpt>
      <trkpt lat="37.54305" lon="27.62057">
        <ele>706.4</ele>
        <time>2020-12-02T11:40:20Z</time>
      </trkpt>
      <trkpt lat="37.54303" lon="27.62056">
        <ele>706.4</ele>
        <time>2020-12-02T11:40:19Z</time>
      </trkpt>
      <trkpt lat="37.54303" lon="27.62056">
        <ele>706.4</ele>
        <time>2020-12-02T11:40:18Z</time>
      </trkpt>
      <trkpt lat="37.543" lon="27.62056">
        <ele>706.2</ele>
        <time>2020-12-02T11:40:17Z</time>
      </trkpt>
      <trkpt lat="37.543" lon="27.62056">
        <ele>706.2</ele>
        <time>2020-12-02T11:40:16Z</time>
      </trkpt>
      <trkpt lat="37.54298" lon="27.62057">
        <ele>706.2</ele>
        <time>2020-12-02T11:40:15Z</time>
      </trkpt>
      <trkpt lat="37.54298" lon="27.62057">
        <ele>706</ele>
        <time>2020-12-02T11:40:14Z</time>
      </trkpt>
      <trkpt lat="37.54296" lon="27.62058">
        <ele>706</ele>
        <time>2020-12-02T11:40:13Z</time>
      </trkpt>
      <trkpt lat="37.54296" lon="27.62058">
        <ele>706</ele>
        <time>2020-12-02T11:40:12Z</time>
      </trkpt>
      <trkpt lat="37.54296" lon="27.62058">
        <ele>706</ele>
        <time>2020-12-02T11:40:11Z</time>
      </trkpt>
      <trkpt lat="37.54294" lon="27.62059">
        <ele>706</ele>
        <time>2020-12-02T11:40:10Z</time>
      </trkpt>
      <trkpt lat="37.54294" lon="27.62059">
        <ele>706</ele>
        <time>2020-12-02T11:40:09Z</time>
      </trkpt>
      <trkpt lat="37.54292" lon="27.6206">
        <ele>706</ele>
        <time>2020-12-02T11:40:08Z</time>
      </trkpt>
      <trkpt lat="37.54292" lon="27.6206">
        <ele>706</ele>
        <time>2020-12-02T11:40:07Z</time>
      </trkpt>
      <trkpt lat="37.5429" lon="27.62062">
        <ele>706</ele>
        <time>2020-12-02T11:40:06Z</time>
      </trkpt>
      <trkpt lat="37.5429" lon="27.62062">
        <ele>706</ele>
        <time>2020-12-02T11:40:05Z</time>
      </trkpt>
      <trkpt lat="37.5429" lon="27.62062">
        <ele>705.8</ele>
        <time>2020-12-02T11:40:04Z</time>
      </trkpt>
      <trkpt lat="37.5429" lon="27.62062">
        <ele>705.8</ele>
        <time>2020-12-02T11:40:03Z</time>
      </trkpt>
      <trkpt lat="37.5429" lon="27.62062">
        <ele>706</ele>
        <time>2020-12-02T11:40:02Z</time>
      </trkpt>
      <trkpt lat="37.5429" lon="27.62062">
        <ele>706</ele>
        <time>2020-12-02T11:40:01Z</time>
      </trkpt>
      <trkpt lat="37.5429" lon="27.62062">
        <ele>706</ele>
        <time>2020-12-02T11:40:00Z</time>
      </trkpt>
      <trkpt lat="37.54288" lon="27.62063">
        <ele>706</ele>
        <time>2020-12-02T11:39:59Z</time>
      </trkpt>
      <trkpt lat="37.54288" lon="27.62063">
        <ele>705.8</ele>
        <time>2020-12-02T11:39:58Z</time>
      </trkpt>
      <trkpt lat="37.54288" lon="27.62063">
        <ele>705.8</ele>
        <time>2020-12-02T11:39:57Z</time>
      </trkpt>
      <trkpt lat="37.54286" lon="27.62063">
        <ele>705.8</ele>
        <time>2020-12-02T11:39:56Z</time>
      </trkpt>
      <trkpt lat="37.54286" lon="27.62063">
        <ele>705.8</ele>
        <time>2020-12-02T11:39:55Z</time>
      </trkpt>
      <trkpt lat="37.54284" lon="27.62062">
        <ele>705.8</ele>
        <time>2020-12-02T11:39:54Z</time>
      </trkpt>
      <trkpt lat="37.54284" lon="27.62062">
        <ele>705.8</ele>
        <time>2020-12-02T11:39:53Z</time>
      </trkpt>
      <trkpt lat="37.54282" lon="27.62059">
        <ele>706</ele>
        <time>2020-12-02T11:39:52Z</time>
      </trkpt>
      <trkpt lat="37.54282" lon="27.62059">
        <ele>706.2</ele>
        <time>2020-12-02T11:39:51Z</time>
      </trkpt>
      <trkpt lat="37.54282" lon="27.62059">
        <ele>706.4</ele>
        <time>2020-12-02T11:39:50Z</time>
      </trkpt>
      <trkpt lat="37.54282" lon="27.62059">
        <ele>706.4</ele>
        <time>2020-12-02T11:39:49Z</time>
      </trkpt>
      <trkpt lat="37.54282" lon="27.62059">
        <ele>706.8</ele>
        <time>2020-12-02T11:39:48Z</time>
      </trkpt>
      <trkpt lat="37.54282" lon="27.62059">
        <ele>707</ele>
        <time>2020-12-02T11:39:47Z</time>
      </trkpt>
      <trkpt lat="37.5428" lon="27.62056">
        <ele>707.2</ele>
        <time>2020-12-02T11:39:46Z</time>
      </trkpt>
      <trkpt lat="37.5428" lon="27.62056">
        <ele>707.2</ele>
        <time>2020-12-02T11:39:45Z</time>
      </trkpt>
      <trkpt lat="37.5428" lon="27.62056">
        <ele>707.4</ele>
        <time>2020-12-02T11:39:44Z</time>
      </trkpt>
      <trkpt lat="37.54278" lon="27.62055">
        <ele>707.6</ele>
        <time>2020-12-02T11:39:43Z</time>
      </trkpt>
      <trkpt lat="37.54278" lon="27.62055">
        <ele>707.8</ele>
        <time>2020-12-02T11:39:42Z</time>
      </trkpt>
      <trkpt lat="37.54277" lon="27.62053">
        <ele>708</ele>
        <time>2020-12-02T11:39:41Z</time>
      </trkpt>
      <trkpt lat="37.54277" lon="27.62053">
        <ele>708.2</ele>
        <time>2020-12-02T11:39:40Z</time>
      </trkpt>
      <trkpt lat="37.54277" lon="27.62053">
        <ele>708.4</ele>
        <time>2020-12-02T11:39:39Z</time>
      </trkpt>
      <trkpt lat="37.54277" lon="27.62053">
        <ele>708.6</ele>
        <time>2020-12-02T11:39:38Z</time>
      </trkpt>
      <trkpt lat="37.54276" lon="27.62051">
        <ele>708.8</ele>
        <time>2020-12-02T11:39:37Z</time>
      </trkpt>
      <trkpt lat="37.54276" lon="27.62051">
        <ele>708.8</ele>
        <time>2020-12-02T11:39:36Z</time>
      </trkpt>
      <trkpt lat="37.54275" lon="27.62048">
        <ele>709</ele>
        <time>2020-12-02T11:39:35Z</time>
      </trkpt>
      <trkpt lat="37.54275" lon="27.62048">
        <ele>709.2</ele>
        <time>2020-12-02T11:39:34Z</time>
      </trkpt>
      <trkpt lat="37.54275" lon="27.62048">
        <ele>709.2</ele>
        <time>2020-12-02T11:39:33Z</time>
      </trkpt>
      <trkpt lat="37.54274" lon="27.62047">
        <ele>709.4</ele>
        <time>2020-12-02T11:39:32Z</time>
      </trkpt>
      <trkpt lat="37.54274" lon="27.62047">
        <ele>709.6</ele>
        <time>2020-12-02T11:39:31Z</time>
      </trkpt>
      <trkpt lat="37.54274" lon="27.62047">
        <ele>709.8</ele>
        <time>2020-12-02T11:39:30Z</time>
      </trkpt>
      <trkpt lat="37.54273" lon="27.62046">
        <ele>709.8</ele>
        <time>2020-12-02T11:39:29Z</time>
      </trkpt>
      <trkpt lat="37.54273" lon="27.62046">
        <ele>710</ele>
        <time>2020-12-02T11:39:28Z</time>
      </trkpt>
      <trkpt lat="37.54271" lon="27.62044">
        <ele>710</ele>
        <time>2020-12-02T11:39:27Z</time>
      </trkpt>
      <trkpt lat="37.54271" lon="27.62044">
        <ele>710.2</ele>
        <time>2020-12-02T11:39:26Z</time>
      </trkpt>
      <trkpt lat="37.54269" lon="27.62043">
        <ele>710.2</ele>
        <time>2020-12-02T11:39:25Z</time>
      </trkpt>
      <trkpt lat="37.54269" lon="27.62043">
        <ele>710.4</ele>
        <time>2020-12-02T11:39:24Z</time>
      </trkpt>
      <trkpt lat="37.54269" lon="27.62043">
        <ele>710.4</ele>
        <time>2020-12-02T11:39:23Z</time>
      </trkpt>
      <trkpt lat="37.54267" lon="27.62044">
        <ele>710.6</ele>
        <time>2020-12-02T11:39:22Z</time>
      </trkpt>
      <trkpt lat="37.54267" lon="27.62044">
        <ele>710.8</ele>
        <time>2020-12-02T11:39:21Z</time>
      </trkpt>
      <trkpt lat="37.54264" lon="27.62044">
        <ele>710.8</ele>
        <time>2020-12-02T11:39:20Z</time>
      </trkpt>
      <trkpt lat="37.54264" lon="27.62044">
        <ele>710.8</ele>
        <time>2020-12-02T11:39:19Z</time>
      </trkpt>
      <trkpt lat="37.54264" lon="27.62044">
        <ele>710.8</ele>
        <time>2020-12-02T11:39:18Z</time>
      </trkpt>
      <trkpt lat="37.54262" lon="27.62044">
        <ele>710.8</ele>
        <time>2020-12-02T11:39:17Z</time>
      </trkpt>
      <trkpt lat="37.54262" lon="27.62044">
        <ele>711</ele>
        <time>2020-12-02T11:39:16Z</time>
      </trkpt>
      <trkpt lat="37.54262" lon="27.62044">
        <ele>711</ele>
        <time>2020-12-02T11:39:15Z</time>
      </trkpt>
      <trkpt lat="37.54262" lon="27.62044">
        <ele>711.2</ele>
        <time>2020-12-02T11:39:14Z</time>
      </trkpt>
      <trkpt lat="37.54262" lon="27.62044">
        <ele>711.2</ele>
        <time>2020-12-02T11:39:13Z</time>
      </trkpt>
      <trkpt lat="37.5426" lon="27.62045">
        <ele>711.2</ele>
        <time>2020-12-02T11:39:12Z</time>
      </trkpt>
      <trkpt lat="37.5426" lon="27.62045">
        <ele>711.4</ele>
        <time>2020-12-02T11:39:11Z</time>
      </trkpt>
      <trkpt lat="37.5426" lon="27.62045">
        <ele>711.4</ele>
        <time>2020-12-02T11:39:10Z</time>
      </trkpt>
      <trkpt lat="37.54258" lon="27.62045">
        <ele>711.4</ele>
        <time>2020-12-02T11:39:09Z</time>
      </trkpt>
      <trkpt lat="37.54258" lon="27.62045">
        <ele>711.4</ele>
        <time>2020-12-02T11:39:08Z</time>
      </trkpt>
      <trkpt lat="37.54258" lon="27.62045">
        <ele>711.4</ele>
        <time>2020-12-02T11:39:07Z</time>
      </trkpt>
      <trkpt lat="37.54258" lon="27.62045">
        <ele>711.2</ele>
        <time>2020-12-02T11:39:06Z</time>
      </trkpt>
      <trkpt lat="37.54258" lon="27.62045">
        <ele>711</ele>
        <time>2020-12-02T11:39:05Z</time>
      </trkpt>
      <trkpt lat="37.54258" lon="27.62044">
        <ele>711</ele>
        <time>2020-12-02T11:39:04Z</time>
      </trkpt>
      <trkpt lat="37.54257" lon="27.62044">
        <ele>711</ele>
        <time>2020-12-02T11:39:03Z</time>
      </trkpt>
      <trkpt lat="37.54257" lon="27.62044">
        <ele>710.8</ele>
        <time>2020-12-02T11:39:02Z</time>
      </trkpt>
      <trkpt lat="37.54256" lon="27.62043">
        <ele>710.6</ele>
        <time>2020-12-02T11:39:01Z</time>
      </trkpt>
      <trkpt lat="37.54255" lon="27.62043">
        <ele>710.6</ele>
        <time>2020-12-02T11:39:00Z</time>
      </trkpt>
      <trkpt lat="37.54255" lon="27.62043">
        <ele>710.6</ele>
        <time>2020-12-02T11:38:59Z</time>
      </trkpt>
      <trkpt lat="37.54254" lon="27.62043">
        <ele>710.8</ele>
        <time>2020-12-02T11:38:58Z</time>
      </trkpt>
      <trkpt lat="37.54254" lon="27.62042">
        <ele>710.6</ele>
        <time>2020-12-02T11:38:57Z</time>
      </trkpt>
      <trkpt lat="37.54254" lon="27.62042">
        <ele>710.6</ele>
        <time>2020-12-02T11:38:56Z</time>
      </trkpt>
      <trkpt lat="37.54253" lon="27.6204">
        <ele>710.6</ele>
        <time>2020-12-02T11:38:55Z</time>
      </trkpt>
      <trkpt lat="37.54253" lon="27.6204">
        <ele>710.8</ele>
        <time>2020-12-02T11:38:54Z</time>
      </trkpt>
      <trkpt lat="37.54253" lon="27.6204">
        <ele>711</ele>
        <time>2020-12-02T11:38:53Z</time>
      </trkpt>
      <trkpt lat="37.54251" lon="27.62038">
        <ele>711.2</ele>
        <time>2020-12-02T11:38:52Z</time>
      </trkpt>
      <trkpt lat="37.54251" lon="27.62038">
        <ele>711.4</ele>
        <time>2020-12-02T11:38:51Z</time>
      </trkpt>
      <trkpt lat="37.54251" lon="27.62038">
        <ele>711.4</ele>
        <time>2020-12-02T11:38:50Z</time>
      </trkpt>
      <trkpt lat="37.54251" lon="27.62038">
        <ele>711.6</ele>
        <time>2020-12-02T11:38:49Z</time>
      </trkpt>
      <trkpt lat="37.54251" lon="27.62038">
        <ele>711.6</ele>
        <time>2020-12-02T11:38:48Z</time>
      </trkpt>
      <trkpt lat="37.54252" lon="27.62036">
        <ele>711.6</ele>
        <time>2020-12-02T11:38:47Z</time>
      </trkpt>
      <trkpt lat="37.54252" lon="27.62036">
        <ele>711.6</ele>
        <time>2020-12-02T11:38:46Z</time>
      </trkpt>
      <trkpt lat="37.54252" lon="27.62036">
        <ele>711.8</ele>
        <time>2020-12-02T11:38:45Z</time>
      </trkpt>
      <trkpt lat="37.54252" lon="27.62034">
        <ele>712</ele>
        <time>2020-12-02T11:38:44Z</time>
      </trkpt>
      <trkpt lat="37.54252" lon="27.62034">
        <ele>712</ele>
        <time>2020-12-02T11:38:43Z</time>
      </trkpt>
      <trkpt lat="37.54251" lon="27.6203">
        <ele>712.2</ele>
        <time>2020-12-02T11:38:42Z</time>
      </trkpt>
      <trkpt lat="37.54251" lon="27.6203">
        <ele>712.2</ele>
        <time>2020-12-02T11:38:41Z</time>
      </trkpt>
      <trkpt lat="37.54251" lon="27.6203">
        <ele>712.2</ele>
        <time>2020-12-02T11:38:40Z</time>
      </trkpt>
      <trkpt lat="37.54251" lon="27.62028">
        <ele>712.4</ele>
        <time>2020-12-02T11:38:39Z</time>
      </trkpt>
      <trkpt lat="37.54251" lon="27.62028">
        <ele>712.4</ele>
        <time>2020-12-02T11:38:38Z</time>
      </trkpt>
      <trkpt lat="37.54251" lon="27.62028">
        <ele>712.6</ele>
        <time>2020-12-02T11:38:37Z</time>
      </trkpt>
      <trkpt lat="37.54251" lon="27.62026">
        <ele>712.6</ele>
        <time>2020-12-02T11:38:36Z</time>
      </trkpt>
      <trkpt lat="37.54251" lon="27.62026">
        <ele>712.8</ele>
        <time>2020-12-02T11:38:35Z</time>
      </trkpt>
      <trkpt lat="37.54251" lon="27.62026">
        <ele>712.8</ele>
        <time>2020-12-02T11:38:34Z</time>
      </trkpt>
      <trkpt lat="37.54251" lon="27.62026">
        <ele>712.6</ele>
        <time>2020-12-02T11:38:33Z</time>
      </trkpt>
      <trkpt lat="37.54251" lon="27.62026">
        <ele>712.8</ele>
        <time>2020-12-02T11:38:32Z</time>
      </trkpt>
      <trkpt lat="37.54251" lon="27.62023">
        <ele>713</ele>
        <time>2020-12-02T11:38:31Z</time>
      </trkpt>
      <trkpt lat="37.54251" lon="27.62023">
        <ele>713</ele>
        <time>2020-12-02T11:38:30Z</time>
      </trkpt>
      <trkpt lat="37.54251" lon="27.62023">
        <ele>712.8</ele>
        <time>2020-12-02T11:38:29Z</time>
      </trkpt>
      <trkpt lat="37.54251" lon="27.62021">
        <ele>712.8</ele>
        <time>2020-12-02T11:38:28Z</time>
      </trkpt>
      <trkpt lat="37.54251" lon="27.62021">
        <ele>712.8</ele>
        <time>2020-12-02T11:38:27Z</time>
      </trkpt>
      <trkpt lat="37.54251" lon="27.62018">
        <ele>713</ele>
        <time>2020-12-02T11:38:26Z</time>
      </trkpt>
      <trkpt lat="37.54251" lon="27.62018">
        <ele>713</ele>
        <time>2020-12-02T11:38:25Z</time>
      </trkpt>
      <trkpt lat="37.54252" lon="27.62015">
        <ele>713.2</ele>
        <time>2020-12-02T11:38:24Z</time>
      </trkpt>
      <trkpt lat="37.54252" lon="27.62015">
        <ele>713.2</ele>
        <time>2020-12-02T11:38:23Z</time>
      </trkpt>
      <trkpt lat="37.54251" lon="27.62012">
        <ele>713.4</ele>
        <time>2020-12-02T11:38:22Z</time>
      </trkpt>
      <trkpt lat="37.54251" lon="27.62012">
        <ele>713.4</ele>
        <time>2020-12-02T11:38:21Z</time>
      </trkpt>
      <trkpt lat="37.54251" lon="27.6201">
        <ele>713.4</ele>
        <time>2020-12-02T11:38:20Z</time>
      </trkpt>
      <trkpt lat="37.54251" lon="27.6201">
        <ele>713.8</ele>
        <time>2020-12-02T11:38:19Z</time>
      </trkpt>
      <trkpt lat="37.54249" lon="27.62008">
        <ele>713.8</ele>
        <time>2020-12-02T11:38:18Z</time>
      </trkpt>
      <trkpt lat="37.54249" lon="27.62008">
        <ele>714</ele>
        <time>2020-12-02T11:38:17Z</time>
      </trkpt>
      <trkpt lat="37.54248" lon="27.62006">
        <ele>714.2</ele>
        <time>2020-12-02T11:38:16Z</time>
      </trkpt>
      <trkpt lat="37.54248" lon="27.62006">
        <ele>714.2</ele>
        <time>2020-12-02T11:38:15Z</time>
      </trkpt>
      <trkpt lat="37.54247" lon="27.62004">
        <ele>714.2</ele>
        <time>2020-12-02T11:38:14Z</time>
      </trkpt>
      <trkpt lat="37.54247" lon="27.62004">
        <ele>714.2</ele>
        <time>2020-12-02T11:38:13Z</time>
      </trkpt>
      <trkpt lat="37.54246" lon="27.62002">
        <ele>714.2</ele>
        <time>2020-12-02T11:38:12Z</time>
      </trkpt>
      <trkpt lat="37.54246" lon="27.62002">
        <ele>714.2</ele>
        <time>2020-12-02T11:38:11Z</time>
      </trkpt>
      <trkpt lat="37.54245" lon="27.62">
        <ele>713.8</ele>
        <time>2020-12-02T11:38:10Z</time>
      </trkpt>
      <trkpt lat="37.54245" lon="27.62">
        <ele>713.8</ele>
        <time>2020-12-02T11:38:09Z</time>
      </trkpt>
      <trkpt lat="37.54245" lon="27.61997">
        <ele>713.8</ele>
        <time>2020-12-02T11:38:08Z</time>
      </trkpt>
      <trkpt lat="37.54245" lon="27.61997">
        <ele>713.8</ele>
        <time>2020-12-02T11:38:07Z</time>
      </trkpt>
      <trkpt lat="37.54245" lon="27.61997">
        <ele>713.8</ele>
        <time>2020-12-02T11:38:06Z</time>
      </trkpt>
      <trkpt lat="37.54245" lon="27.61997">
        <ele>714</ele>
        <time>2020-12-02T11:38:05Z</time>
      </trkpt>
      <trkpt lat="37.54243" lon="27.61996">
        <ele>714</ele>
        <time>2020-12-02T11:38:04Z</time>
      </trkpt>
      <trkpt lat="37.54243" lon="27.61996">
        <ele>714</ele>
        <time>2020-12-02T11:38:03Z</time>
      </trkpt>
      <trkpt lat="37.54243" lon="27.61996">
        <ele>714</ele>
        <time>2020-12-02T11:38:02Z</time>
      </trkpt>
      <trkpt lat="37.54241" lon="27.61995">
        <ele>714</ele>
        <time>2020-12-02T11:38:01Z</time>
      </trkpt>
      <trkpt lat="37.54241" lon="27.61995">
        <ele>714</ele>
        <time>2020-12-02T11:38:00Z</time>
      </trkpt>
      <trkpt lat="37.54241" lon="27.61995">
        <ele>714</ele>
        <time>2020-12-02T11:37:59Z</time>
      </trkpt>
      <trkpt lat="37.54238" lon="27.61995">
        <ele>714</ele>
        <time>2020-12-02T11:37:58Z</time>
      </trkpt>
      <trkpt lat="37.54238" lon="27.61995">
        <ele>714</ele>
        <time>2020-12-02T11:37:57Z</time>
      </trkpt>
      <trkpt lat="37.54238" lon="27.61995">
        <ele>714</ele>
        <time>2020-12-02T11:37:56Z</time>
      </trkpt>
      <trkpt lat="37.54236" lon="27.61993">
        <ele>714</ele>
        <time>2020-12-02T11:37:55Z</time>
      </trkpt>
      <trkpt lat="37.54236" lon="27.61993">
        <ele>714</ele>
        <time>2020-12-02T11:37:54Z</time>
      </trkpt>
      <trkpt lat="37.54234" lon="27.61992">
        <ele>714</ele>
        <time>2020-12-02T11:37:53Z</time>
      </trkpt>
      <trkpt lat="37.54234" lon="27.61992">
        <ele>714</ele>
        <time>2020-12-02T11:37:52Z</time>
      </trkpt>
      <trkpt lat="37.54232" lon="27.61991">
        <ele>714</ele>
        <time>2020-12-02T11:37:51Z</time>
      </trkpt>
      <trkpt lat="37.54232" lon="27.61991">
        <ele>714</ele>
        <time>2020-12-02T11:37:50Z</time>
      </trkpt>
      <trkpt lat="37.54229" lon="27.61991">
        <ele>714</ele>
        <time>2020-12-02T11:37:49Z</time>
      </trkpt>
      <trkpt lat="37.54229" lon="27.61991">
        <ele>713.8</ele>
        <time>2020-12-02T11:37:48Z</time>
      </trkpt>
      <trkpt lat="37.54227" lon="27.6199">
        <ele>713.8</ele>
        <time>2020-12-02T11:37:47Z</time>
      </trkpt>
      <trkpt lat="37.54227" lon="27.6199">
        <ele>713.8</ele>
        <time>2020-12-02T11:37:46Z</time>
      </trkpt>
      <trkpt lat="37.54227" lon="27.6199">
        <ele>713.8</ele>
        <time>2020-12-02T11:37:45Z</time>
      </trkpt>
      <trkpt lat="37.54226" lon="27.61989">
        <ele>713.6</ele>
        <time>2020-12-02T11:37:44Z</time>
      </trkpt>
      <trkpt lat="37.54226" lon="27.61989">
        <ele>713.4</ele>
        <time>2020-12-02T11:37:43Z</time>
      </trkpt>
      <trkpt lat="37.54226" lon="27.61989">
        <ele>713.6</ele>
        <time>2020-12-02T11:37:42Z</time>
      </trkpt>
      <trkpt lat="37.54224" lon="27.61987">
        <ele>713.4</ele>
        <time>2020-12-02T11:37:41Z</time>
      </trkpt>
      <trkpt lat="37.54224" lon="27.61987">
        <ele>713.4</ele>
        <time>2020-12-02T11:37:40Z</time>
      </trkpt>
      <trkpt lat="37.54223" lon="27.61985">
        <ele>713.4</ele>
        <time>2020-12-02T11:37:39Z</time>
      </trkpt>
      <trkpt lat="37.54223" lon="27.61985">
        <ele>713.4</ele>
        <time>2020-12-02T11:37:38Z</time>
      </trkpt>
      <trkpt lat="37.54221" lon="27.61984">
        <ele>713.6</ele>
        <time>2020-12-02T11:37:37Z</time>
      </trkpt>
      <trkpt lat="37.54221" lon="27.61984">
        <ele>713.4</ele>
        <time>2020-12-02T11:37:36Z</time>
      </trkpt>
      <trkpt lat="37.54219" lon="27.61983">
        <ele>713.6</ele>
        <time>2020-12-02T11:37:35Z</time>
      </trkpt>
      <trkpt lat="37.54219" lon="27.61983">
        <ele>713.6</ele>
        <time>2020-12-02T11:37:34Z</time>
      </trkpt>
      <trkpt lat="37.54217" lon="27.61983">
        <ele>713.6</ele>
        <time>2020-12-02T11:37:33Z</time>
      </trkpt>
      <trkpt lat="37.54217" lon="27.61983">
        <ele>713.4</ele>
        <time>2020-12-02T11:37:32Z</time>
      </trkpt>
      <trkpt lat="37.54215" lon="27.61982">
        <ele>713.6</ele>
        <time>2020-12-02T11:37:31Z</time>
      </trkpt>
      <trkpt lat="37.54215" lon="27.61982">
        <ele>713.6</ele>
        <time>2020-12-02T11:37:30Z</time>
      </trkpt>
      <trkpt lat="37.54213" lon="27.61981">
        <ele>713.6</ele>
        <time>2020-12-02T11:37:29Z</time>
      </trkpt>
      <trkpt lat="37.54213" lon="27.61981">
        <ele>713.6</ele>
        <time>2020-12-02T11:37:28Z</time>
      </trkpt>
      <trkpt lat="37.54211" lon="27.61979">
        <ele>713.8</ele>
        <time>2020-12-02T11:37:27Z</time>
      </trkpt>
      <trkpt lat="37.54211" lon="27.61979">
        <ele>713.8</ele>
        <time>2020-12-02T11:37:26Z</time>
      </trkpt>
      <trkpt lat="37.5421" lon="27.61978">
        <ele>713.8</ele>
        <time>2020-12-02T11:37:25Z</time>
      </trkpt>
      <trkpt lat="37.5421" lon="27.61978">
        <ele>713.8</ele>
        <time>2020-12-02T11:37:24Z</time>
      </trkpt>
      <trkpt lat="37.54207" lon="27.61976">
        <ele>714</ele>
        <time>2020-12-02T11:37:23Z</time>
      </trkpt>
      <trkpt lat="37.54207" lon="27.61976">
        <ele>714</ele>
        <time>2020-12-02T11:37:22Z</time>
      </trkpt>
      <trkpt lat="37.54206" lon="27.61974">
        <ele>714</ele>
        <time>2020-12-02T11:37:21Z</time>
      </trkpt>
      <trkpt lat="37.54206" lon="27.61974">
        <ele>714.2</ele>
        <time>2020-12-02T11:37:20Z</time>
      </trkpt>
      <trkpt lat="37.54204" lon="27.61972">
        <ele>714.2</ele>
        <time>2020-12-02T11:37:19Z</time>
      </trkpt>
      <trkpt lat="37.54204" lon="27.61972">
        <ele>714</ele>
        <time>2020-12-02T11:37:18Z</time>
      </trkpt>
      <trkpt lat="37.54203" lon="27.6197">
        <ele>714.2</ele>
        <time>2020-12-02T11:37:17Z</time>
      </trkpt>
      <trkpt lat="37.54203" lon="27.6197">
        <ele>714.2</ele>
        <time>2020-12-02T11:37:16Z</time>
      </trkpt>
      <trkpt lat="37.54203" lon="27.6197">
        <ele>714</ele>
        <time>2020-12-02T11:37:15Z</time>
      </trkpt>
      <trkpt lat="37.54203" lon="27.6197">
        <ele>714</ele>
        <time>2020-12-02T11:37:14Z</time>
      </trkpt>
      <trkpt lat="37.54203" lon="27.6197">
        <ele>714</ele>
        <time>2020-12-02T11:37:13Z</time>
      </trkpt>
      <trkpt lat="37.54201" lon="27.61969">
        <ele>714</ele>
        <time>2020-12-02T11:37:12Z</time>
      </trkpt>
      <trkpt lat="37.54201" lon="27.61969">
        <ele>713.6</ele>
        <time>2020-12-02T11:37:11Z</time>
      </trkpt>
      <trkpt lat="37.54201" lon="27.61969">
        <ele>713.6</ele>
        <time>2020-12-02T11:37:10Z</time>
      </trkpt>
      <trkpt lat="37.54199" lon="27.61967">
        <ele>713.4</ele>
        <time>2020-12-02T11:37:09Z</time>
      </trkpt>
      <trkpt lat="37.54199" lon="27.61967">
        <ele>713.4</ele>
        <time>2020-12-02T11:37:08Z</time>
      </trkpt>
      <trkpt lat="37.54198" lon="27.61967">
        <ele>713.2</ele>
        <time>2020-12-02T11:37:07Z</time>
      </trkpt>
      <trkpt lat="37.54198" lon="27.61968">
        <ele>713.2</ele>
        <time>2020-12-02T11:37:06Z</time>
      </trkpt>
      <trkpt lat="37.54198" lon="27.61968">
        <ele>713.2</ele>
        <time>2020-12-02T11:37:05Z</time>
      </trkpt>
      <trkpt lat="37.54197" lon="27.61968">
        <ele>713.2</ele>
        <time>2020-12-02T11:37:04Z</time>
      </trkpt>
      <trkpt lat="37.54197" lon="27.61968">
        <ele>713.2</ele>
        <time>2020-12-02T11:37:03Z</time>
      </trkpt>
      <trkpt lat="37.54196" lon="27.61968">
        <ele>713.2</ele>
        <time>2020-12-02T11:37:02Z</time>
      </trkpt>
      <trkpt lat="37.54196" lon="27.61968">
        <ele>713</ele>
        <time>2020-12-02T11:37:01Z</time>
      </trkpt>
      <trkpt lat="37.54195" lon="27.61968">
        <ele>712.8</ele>
        <time>2020-12-02T11:37:00Z</time>
      </trkpt>
      <trkpt lat="37.54195" lon="27.61968">
        <ele>713</ele>
        <time>2020-12-02T11:36:59Z</time>
      </trkpt>
      <trkpt lat="37.54194" lon="27.61968">
        <ele>712.8</ele>
        <time>2020-12-02T11:36:58Z</time>
      </trkpt>
      <trkpt lat="37.54194" lon="27.61968">
        <ele>713</ele>
        <time>2020-12-02T11:36:57Z</time>
      </trkpt>
      <trkpt lat="37.54194" lon="27.61968">
        <ele>712.8</ele>
        <time>2020-12-02T11:36:56Z</time>
      </trkpt>
      <trkpt lat="37.54193" lon="27.61965">
        <ele>712.8</ele>
        <time>2020-12-02T11:36:55Z</time>
      </trkpt>
      <trkpt lat="37.54193" lon="27.61965">
        <ele>712.6</ele>
        <time>2020-12-02T11:36:54Z</time>
      </trkpt>
      <trkpt lat="37.54191" lon="27.61963">
        <ele>712.6</ele>
        <time>2020-12-02T11:36:53Z</time>
      </trkpt>
      <trkpt lat="37.54191" lon="27.61963">
        <ele>712.4</ele>
        <time>2020-12-02T11:36:52Z</time>
      </trkpt>
      <trkpt lat="37.54189" lon="27.61962">
        <ele>712.4</ele>
        <time>2020-12-02T11:36:51Z</time>
      </trkpt>
      <trkpt lat="37.54189" lon="27.61962">
        <ele>712.2</ele>
        <time>2020-12-02T11:36:50Z</time>
      </trkpt>
      <trkpt lat="37.54187" lon="27.61961">
        <ele>712</ele>
        <time>2020-12-02T11:36:49Z</time>
      </trkpt>
      <trkpt lat="37.54187" lon="27.61961">
        <ele>712</ele>
        <time>2020-12-02T11:36:48Z</time>
      </trkpt>
      <trkpt lat="37.54186" lon="27.61959">
        <ele>712.2</ele>
        <time>2020-12-02T11:36:47Z</time>
      </trkpt>
      <trkpt lat="37.54186" lon="27.61959">
        <ele>712</ele>
        <time>2020-12-02T11:36:46Z</time>
      </trkpt>
      <trkpt lat="37.54184" lon="27.61957">
        <ele>712</ele>
        <time>2020-12-02T11:36:45Z</time>
      </trkpt>
      <trkpt lat="37.54184" lon="27.61957">
        <ele>712</ele>
        <time>2020-12-02T11:36:44Z</time>
      </trkpt>
      <trkpt lat="37.54182" lon="27.61955">
        <ele>712</ele>
        <time>2020-12-02T11:36:43Z</time>
      </trkpt>
      <trkpt lat="37.54182" lon="27.61955">
        <ele>712</ele>
        <time>2020-12-02T11:36:42Z</time>
      </trkpt>
      <trkpt lat="37.5418" lon="27.61953">
        <ele>712</ele>
        <time>2020-12-02T11:36:41Z</time>
      </trkpt>
      <trkpt lat="37.5418" lon="27.61953">
        <ele>712</ele>
        <time>2020-12-02T11:36:40Z</time>
      </trkpt>
      <trkpt lat="37.54178" lon="27.61951">
        <ele>712</ele>
        <time>2020-12-02T11:36:39Z</time>
      </trkpt>
      <trkpt lat="37.54178" lon="27.61951">
        <ele>712</ele>
        <time>2020-12-02T11:36:38Z</time>
      </trkpt>
      <trkpt lat="37.54177" lon="27.61949">
        <ele>712.2</ele>
        <time>2020-12-02T11:36:37Z</time>
      </trkpt>
      <trkpt lat="37.54177" lon="27.61949">
        <ele>712.2</ele>
        <time>2020-12-02T11:36:36Z</time>
      </trkpt>
      <trkpt lat="37.54176" lon="27.61945">
        <ele>712</ele>
        <time>2020-12-02T11:36:35Z</time>
      </trkpt>
      <trkpt lat="37.54176" lon="27.61945">
        <ele>712</ele>
        <time>2020-12-02T11:36:34Z</time>
      </trkpt>
      <trkpt lat="37.54176" lon="27.61945">
        <ele>712.2</ele>
        <time>2020-12-02T11:36:33Z</time>
      </trkpt>
      <trkpt lat="37.54175" lon="27.61943">
        <ele>712.2</ele>
        <time>2020-12-02T11:36:32Z</time>
      </trkpt>
      <trkpt lat="37.54175" lon="27.61943">
        <ele>712.2</ele>
        <time>2020-12-02T11:36:31Z</time>
      </trkpt>
      <trkpt lat="37.54175" lon="27.6194">
        <ele>712.2</ele>
        <time>2020-12-02T11:36:30Z</time>
      </trkpt>
      <trkpt lat="37.54175" lon="27.6194">
        <ele>712</ele>
        <time>2020-12-02T11:36:29Z</time>
      </trkpt>
      <trkpt lat="37.54175" lon="27.6194">
        <ele>712</ele>
        <time>2020-12-02T11:36:28Z</time>
      </trkpt>
      <trkpt lat="37.54175" lon="27.61937">
        <ele>712</ele>
        <time>2020-12-02T11:36:27Z</time>
      </trkpt>
      <trkpt lat="37.54175" lon="27.61937">
        <ele>712</ele>
        <time>2020-12-02T11:36:26Z</time>
      </trkpt>
      <trkpt lat="37.54175" lon="27.61934">
        <ele>712.2</ele>
        <time>2020-12-02T11:36:25Z</time>
      </trkpt>
      <trkpt lat="37.54175" lon="27.61934">
        <ele>712.2</ele>
        <time>2020-12-02T11:36:24Z</time>
      </trkpt>
      <trkpt lat="37.54175" lon="27.61931">
        <ele>712.2</ele>
        <time>2020-12-02T11:36:23Z</time>
      </trkpt>
      <trkpt lat="37.54175" lon="27.61931">
        <ele>712.4</ele>
        <time>2020-12-02T11:36:22Z</time>
      </trkpt>
      <trkpt lat="37.54176" lon="27.61928">
        <ele>712.4</ele>
        <time>2020-12-02T11:36:21Z</time>
      </trkpt>
      <trkpt lat="37.54176" lon="27.61928">
        <ele>712.2</ele>
        <time>2020-12-02T11:36:20Z</time>
      </trkpt>
      <trkpt lat="37.54176" lon="27.61925">
        <ele>712.2</ele>
        <time>2020-12-02T11:36:19Z</time>
      </trkpt>
      <trkpt lat="37.54176" lon="27.61925">
        <ele>712.2</ele>
        <time>2020-12-02T11:36:18Z</time>
      </trkpt>
      <trkpt lat="37.54176" lon="27.61923">
        <ele>712.2</ele>
        <time>2020-12-02T11:36:17Z</time>
      </trkpt>
      <trkpt lat="37.54176" lon="27.61923">
        <ele>712.2</ele>
        <time>2020-12-02T11:36:16Z</time>
      </trkpt>
      <trkpt lat="37.54176" lon="27.6192">
        <ele>712.4</ele>
        <time>2020-12-02T11:36:15Z</time>
      </trkpt>
      <trkpt lat="37.54176" lon="27.6192">
        <ele>712.2</ele>
        <time>2020-12-02T11:36:14Z</time>
      </trkpt>
      <trkpt lat="37.54176" lon="27.61918">
        <ele>712.4</ele>
        <time>2020-12-02T11:36:13Z</time>
      </trkpt>
      <trkpt lat="37.54176" lon="27.61918">
        <ele>712.4</ele>
        <time>2020-12-02T11:36:12Z</time>
      </trkpt>
      <trkpt lat="37.54175" lon="27.61915">
        <ele>712.4</ele>
        <time>2020-12-02T11:36:11Z</time>
      </trkpt>
      <trkpt lat="37.54175" lon="27.61915">
        <ele>712.4</ele>
        <time>2020-12-02T11:36:10Z</time>
      </trkpt>
      <trkpt lat="37.54175" lon="27.61912">
        <ele>712.2</ele>
        <time>2020-12-02T11:36:09Z</time>
      </trkpt>
      <trkpt lat="37.54175" lon="27.61912">
        <ele>712.2</ele>
        <time>2020-12-02T11:36:08Z</time>
      </trkpt>
      <trkpt lat="37.54176" lon="27.61909">
        <ele>712.2</ele>
        <time>2020-12-02T11:36:07Z</time>
      </trkpt>
      <trkpt lat="37.54176" lon="27.61909">
        <ele>712.4</ele>
        <time>2020-12-02T11:36:06Z</time>
      </trkpt>
      <trkpt lat="37.54175" lon="27.61904">
        <ele>712.4</ele>
        <time>2020-12-02T11:36:05Z</time>
      </trkpt>
      <trkpt lat="37.54175" lon="27.61904">
        <ele>712.4</ele>
        <time>2020-12-02T11:36:04Z</time>
      </trkpt>
      <trkpt lat="37.54175" lon="27.61903">
        <ele>712.4</ele>
        <time>2020-12-02T11:36:03Z</time>
      </trkpt>
      <trkpt lat="37.54175" lon="27.61902">
        <ele>712.4</ele>
        <time>2020-12-02T11:36:02Z</time>
      </trkpt>
      <trkpt lat="37.54175" lon="27.61901">
        <ele>712.4</ele>
        <time>2020-12-02T11:36:01Z</time>
      </trkpt>
      <trkpt lat="37.54174" lon="27.61899">
        <ele>712.2</ele>
        <time>2020-12-02T11:36:00Z</time>
      </trkpt>
      <trkpt lat="37.54174" lon="27.61898">
        <ele>712</ele>
        <time>2020-12-02T11:35:59Z</time>
      </trkpt>
      <trkpt lat="37.54174" lon="27.61897">
        <ele>712</ele>
        <time>2020-12-02T11:35:58Z</time>
      </trkpt>
      <trkpt lat="37.54173" lon="27.61896">
        <ele>712</ele>
        <time>2020-12-02T11:35:57Z</time>
      </trkpt>
      <trkpt lat="37.54173" lon="27.61894">
        <ele>711.8</ele>
        <time>2020-12-02T11:35:56Z</time>
      </trkpt>
      <trkpt lat="37.54173" lon="27.61893">
        <ele>711.8</ele>
        <time>2020-12-02T11:35:55Z</time>
      </trkpt>
      <trkpt lat="37.54172" lon="27.61892">
        <ele>711.8</ele>
        <time>2020-12-02T11:35:54Z</time>
      </trkpt>
      <trkpt lat="37.54171" lon="27.61892">
        <ele>711.8</ele>
        <time>2020-12-02T11:35:53Z</time>
      </trkpt>
      <trkpt lat="37.54171" lon="27.61891">
        <ele>711.8</ele>
        <time>2020-12-02T11:35:52Z</time>
      </trkpt>
      <trkpt lat="37.5417" lon="27.6189">
        <ele>711.6</ele>
        <time>2020-12-02T11:35:51Z</time>
      </trkpt>
      <trkpt lat="37.54169" lon="27.61889">
        <ele>711.6</ele>
        <time>2020-12-02T11:35:50Z</time>
      </trkpt>
      <trkpt lat="37.54169" lon="27.61889">
        <ele>711.4</ele>
        <time>2020-12-02T11:35:49Z</time>
      </trkpt>
      <trkpt lat="37.54168" lon="27.61888">
        <ele>711.4</ele>
        <time>2020-12-02T11:35:48Z</time>
      </trkpt>
      <trkpt lat="37.54167" lon="27.61887">
        <ele>711.2</ele>
        <time>2020-12-02T11:35:47Z</time>
      </trkpt>
      <trkpt lat="37.54166" lon="27.61886">
        <ele>711.2</ele>
        <time>2020-12-02T11:35:46Z</time>
      </trkpt>
      <trkpt lat="37.54166" lon="27.61886">
        <ele>711</ele>
        <time>2020-12-02T11:35:45Z</time>
      </trkpt>
      <trkpt lat="37.54165" lon="27.61884">
        <ele>711</ele>
        <time>2020-12-02T11:35:44Z</time>
      </trkpt>
      <trkpt lat="37.54165" lon="27.61883">
        <ele>710.8</ele>
        <time>2020-12-02T11:35:43Z</time>
      </trkpt>
      <trkpt lat="37.54165" lon="27.61882">
        <ele>710.8</ele>
        <time>2020-12-02T11:35:42Z</time>
      </trkpt>
      <trkpt lat="37.54165" lon="27.61881">
        <ele>711</ele>
        <time>2020-12-02T11:35:41Z</time>
      </trkpt>
      <trkpt lat="37.54164" lon="27.6188">
        <ele>711</ele>
        <time>2020-12-02T11:35:40Z</time>
      </trkpt>
      <trkpt lat="37.54164" lon="27.61879">
        <ele>710.8</ele>
        <time>2020-12-02T11:35:39Z</time>
      </trkpt>
      <trkpt lat="37.54164" lon="27.61878">
        <ele>710.8</ele>
        <time>2020-12-02T11:35:38Z</time>
      </trkpt>
      <trkpt lat="37.54163" lon="27.61877">
        <ele>710.8</ele>
        <time>2020-12-02T11:35:37Z</time>
      </trkpt>
      <trkpt lat="37.54163" lon="27.61876">
        <ele>710.8</ele>
        <time>2020-12-02T11:35:36Z</time>
      </trkpt>
      <trkpt lat="37.54163" lon="27.61875">
        <ele>710.8</ele>
        <time>2020-12-02T11:35:35Z</time>
      </trkpt>
      <trkpt lat="37.54163" lon="27.61874">
        <ele>710.8</ele>
        <time>2020-12-02T11:35:34Z</time>
      </trkpt>
      <trkpt lat="37.54163" lon="27.61873">
        <ele>710.8</ele>
        <time>2020-12-02T11:35:33Z</time>
      </trkpt>
      <trkpt lat="37.54162" lon="27.61872">
        <ele>710.8</ele>
        <time>2020-12-02T11:35:32Z</time>
      </trkpt>
      <trkpt lat="37.54162" lon="27.6187">
        <ele>711</ele>
        <time>2020-12-02T11:35:31Z</time>
      </trkpt>
      <trkpt lat="37.54162" lon="27.61869">
        <ele>711</ele>
        <time>2020-12-02T11:35:30Z</time>
      </trkpt>
      <trkpt lat="37.54162" lon="27.61868">
        <ele>711</ele>
        <time>2020-12-02T11:35:29Z</time>
      </trkpt>
      <trkpt lat="37.54162" lon="27.61867">
        <ele>711</ele>
        <time>2020-12-02T11:35:28Z</time>
      </trkpt>
      <trkpt lat="37.54162" lon="27.61865">
        <ele>711</ele>
        <time>2020-12-02T11:35:27Z</time>
      </trkpt>
      <trkpt lat="37.54162" lon="27.61864">
        <ele>711</ele>
        <time>2020-12-02T11:35:26Z</time>
      </trkpt>
      <trkpt lat="37.54162" lon="27.61863">
        <ele>710.8</ele>
        <time>2020-12-02T11:35:25Z</time>
      </trkpt>
      <trkpt lat="37.54162" lon="27.61862">
        <ele>710.8</ele>
        <time>2020-12-02T11:35:24Z</time>
      </trkpt>
      <trkpt lat="37.54162" lon="27.61861">
        <ele>710.6</ele>
        <time>2020-12-02T11:35:23Z</time>
      </trkpt>
      <trkpt lat="37.54161" lon="27.6186">
        <ele>710.4</ele>
        <time>2020-12-02T11:35:22Z</time>
      </trkpt>
      <trkpt lat="37.54161" lon="27.61859">
        <ele>710.4</ele>
        <time>2020-12-02T11:35:21Z</time>
      </trkpt>
      <trkpt lat="37.54161" lon="27.61858">
        <ele>710.4</ele>
        <time>2020-12-02T11:35:20Z</time>
      </trkpt>
      <trkpt lat="37.54161" lon="27.61857">
        <ele>710.2</ele>
        <time>2020-12-02T11:35:19Z</time>
      </trkpt>
      <trkpt lat="37.54161" lon="27.61856">
        <ele>710.2</ele>
        <time>2020-12-02T11:35:18Z</time>
      </trkpt>
      <trkpt lat="37.5416" lon="27.61855">
        <ele>710.2</ele>
        <time>2020-12-02T11:35:17Z</time>
      </trkpt>
      <trkpt lat="37.5416" lon="27.61854">
        <ele>710</ele>
        <time>2020-12-02T11:35:16Z</time>
      </trkpt>
      <trkpt lat="37.5416" lon="27.61853">
        <ele>710</ele>
        <time>2020-12-02T11:35:15Z</time>
      </trkpt>
      <trkpt lat="37.5416" lon="27.61852">
        <ele>709.8</ele>
        <time>2020-12-02T11:35:14Z</time>
      </trkpt>
      <trkpt lat="37.54159" lon="27.61851">
        <ele>709.6</ele>
        <time>2020-12-02T11:35:13Z</time>
      </trkpt>
      <trkpt lat="37.54159" lon="27.61851">
        <ele>709.4</ele>
        <time>2020-12-02T11:35:12Z</time>
      </trkpt>
      <trkpt lat="37.54159" lon="27.6185">
        <ele>709.4</ele>
        <time>2020-12-02T11:35:11Z</time>
      </trkpt>
      <trkpt lat="37.54159" lon="27.61849">
        <ele>709.2</ele>
        <time>2020-12-02T11:35:10Z</time>
      </trkpt>
      <trkpt lat="37.54158" lon="27.61848">
        <ele>709.2</ele>
        <time>2020-12-02T11:35:09Z</time>
      </trkpt>
      <trkpt lat="37.54158" lon="27.61847">
        <ele>709</ele>
        <time>2020-12-02T11:35:08Z</time>
      </trkpt>
      <trkpt lat="37.54158" lon="27.61846">
        <ele>708.8</ele>
        <time>2020-12-02T11:35:07Z</time>
      </trkpt>
      <trkpt lat="37.54158" lon="27.61845">
        <ele>708.8</ele>
        <time>2020-12-02T11:35:06Z</time>
      </trkpt>
      <trkpt lat="37.54157" lon="27.61844">
        <ele>708.8</ele>
        <time>2020-12-02T11:35:05Z</time>
      </trkpt>
      <trkpt lat="37.54157" lon="27.61843">
        <ele>708.8</ele>
        <time>2020-12-02T11:35:04Z</time>
      </trkpt>
      <trkpt lat="37.54157" lon="27.61842">
        <ele>708.8</ele>
        <time>2020-12-02T11:35:03Z</time>
      </trkpt>
      <trkpt lat="37.54156" lon="27.61841">
        <ele>708.8</ele>
        <time>2020-12-02T11:35:02Z</time>
      </trkpt>
      <trkpt lat="37.54156" lon="27.6184">
        <ele>709</ele>
        <time>2020-12-02T11:35:01Z</time>
      </trkpt>
      <trkpt lat="37.54155" lon="27.61839">
        <ele>708.8</ele>
        <time>2020-12-02T11:35:00Z</time>
      </trkpt>
      <trkpt lat="37.54154" lon="27.61838">
        <ele>709</ele>
        <time>2020-12-02T11:34:59Z</time>
      </trkpt>
      <trkpt lat="37.54154" lon="27.61838">
        <ele>708.8</ele>
        <time>2020-12-02T11:34:58Z</time>
      </trkpt>
      <trkpt lat="37.54153" lon="27.61837">
        <ele>708.8</ele>
        <time>2020-12-02T11:34:57Z</time>
      </trkpt>
      <trkpt lat="37.54153" lon="27.61836">
        <ele>708.8</ele>
        <time>2020-12-02T11:34:56Z</time>
      </trkpt>
      <trkpt lat="37.54152" lon="27.61835">
        <ele>709</ele>
        <time>2020-12-02T11:34:55Z</time>
      </trkpt>
      <trkpt lat="37.54152" lon="27.61834">
        <ele>709</ele>
        <time>2020-12-02T11:34:54Z</time>
      </trkpt>
      <trkpt lat="37.54151" lon="27.61833">
        <ele>708.8</ele>
        <time>2020-12-02T11:34:53Z</time>
      </trkpt>
      <trkpt lat="37.54149" lon="27.61833">
        <ele>708.8</ele>
        <time>2020-12-02T11:34:52Z</time>
      </trkpt>
      <trkpt lat="37.54148" lon="27.61832">
        <ele>708.6</ele>
        <time>2020-12-02T11:34:51Z</time>
      </trkpt>
      <trkpt lat="37.54146" lon="27.61831">
        <ele>708.6</ele>
        <time>2020-12-02T11:34:50Z</time>
      </trkpt>
      <trkpt lat="37.54144" lon="27.6183">
        <ele>708.6</ele>
        <time>2020-12-02T11:34:49Z</time>
      </trkpt>
      <trkpt lat="37.54143" lon="27.61829">
        <ele>708.6</ele>
        <time>2020-12-02T11:34:48Z</time>
      </trkpt>
      <trkpt lat="37.54142" lon="27.61829">
        <ele>708.6</ele>
        <time>2020-12-02T11:34:47Z</time>
      </trkpt>
      <trkpt lat="37.54141" lon="27.61828">
        <ele>708.6</ele>
        <time>2020-12-02T11:34:46Z</time>
      </trkpt>
      <trkpt lat="37.54141" lon="27.61828">
        <ele>708.4</ele>
        <time>2020-12-02T11:34:45Z</time>
      </trkpt>
      <trkpt lat="37.5414" lon="27.61827">
        <ele>708.6</ele>
        <time>2020-12-02T11:34:44Z</time>
      </trkpt>
      <trkpt lat="37.54139" lon="27.61826">
        <ele>708.6</ele>
        <time>2020-12-02T11:34:43Z</time>
      </trkpt>
      <trkpt lat="37.54138" lon="27.61826">
        <ele>708.6</ele>
        <time>2020-12-02T11:34:42Z</time>
      </trkpt>
      <trkpt lat="37.54138" lon="27.61825">
        <ele>708.4</ele>
        <time>2020-12-02T11:34:41Z</time>
      </trkpt>
      <trkpt lat="37.54137" lon="27.61824">
        <ele>708.6</ele>
        <time>2020-12-02T11:34:40Z</time>
      </trkpt>
      <trkpt lat="37.54136" lon="27.61824">
        <ele>708.8</ele>
        <time>2020-12-02T11:34:39Z</time>
      </trkpt>
      <trkpt lat="37.54136" lon="27.61823">
        <ele>708.6</ele>
        <time>2020-12-02T11:34:38Z</time>
      </trkpt>
      <trkpt lat="37.54135" lon="27.61822">
        <ele>708.6</ele>
        <time>2020-12-02T11:34:37Z</time>
      </trkpt>
      <trkpt lat="37.54134" lon="27.61822">
        <ele>708.4</ele>
        <time>2020-12-02T11:34:36Z</time>
      </trkpt>
      <trkpt lat="37.54135" lon="27.6182">
        <ele>708.2</ele>
        <time>2020-12-02T11:34:35Z</time>
      </trkpt>
      <trkpt lat="37.54135" lon="27.61819">
        <ele>708.2</ele>
        <time>2020-12-02T11:34:34Z</time>
      </trkpt>
      <trkpt lat="37.54135" lon="27.61818">
        <ele>707.8</ele>
        <time>2020-12-02T11:34:33Z</time>
      </trkpt>
      <trkpt lat="37.54135" lon="27.61817">
        <ele>707.6</ele>
        <time>2020-12-02T11:34:32Z</time>
      </trkpt>
      <trkpt lat="37.54135" lon="27.61815">
        <ele>707.4</ele>
        <time>2020-12-02T11:34:31Z</time>
      </trkpt>
      <trkpt lat="37.54136" lon="27.61805">
        <ele>716.095</ele>
      </trkpt>
      <trkpt lat="37.54136" lon="27.61803">
        <ele>716.197</ele>
      </trkpt>
      <trkpt lat="37.54136" lon="27.61803">
        <ele>716.198</ele>
      </trkpt>
      <trkpt lat="37.54131" lon="27.61799">
        <ele>716.458</ele>
      </trkpt>
      <trkpt lat="37.5413" lon="27.61798">
        <ele>716.504</ele>
      </trkpt>
      <trkpt lat="37.54129" lon="27.61799">
        <ele>716.509</ele>
      </trkpt>
      <trkpt lat="37.54129" lon="27.61799">
        <ele>716.511</ele>
      </trkpt>
      <trkpt lat="37.54127" lon="27.61789">
        <ele>716.755</ele>
      </trkpt>
      <trkpt lat="37.54126" lon="27.6178">
        <ele>716.951</ele>
      </trkpt>
      <trkpt lat="37.54125" lon="27.61775">
        <ele>716.906</ele>
      </trkpt>
      <trkpt lat="37.54126" lon="27.61772">
        <ele>716.786</ele>
      </trkpt>
      <trkpt lat="37.54127" lon="27.61768">
        <ele>716.689</ele>
      </trkpt>
      <trkpt lat="37.54127" lon="27.61767">
        <ele>716.666</ele>
      </trkpt>
      <trkpt lat="37.54126" lon="27.61767">
        <ele>716.645</ele>
      </trkpt>
      <trkpt lat="37.54123" lon="27.61764">
        <ele>716.406</ele>
      </trkpt>
      <trkpt lat="37.54119" lon="27.61757">
        <ele>715.92</ele>
      </trkpt>
      <trkpt lat="37.54114" lon="27.61755">
        <ele>715.529</ele>
      </trkpt>
      <trkpt lat="37.54113" lon="27.61754">
        <ele>715.404</ele>
      </trkpt>
      <trkpt lat="37.5411" lon="27.61748">
        <ele>714.905</ele>
      </trkpt>
      <trkpt lat="37.5411" lon="27.61748">
        <ele>714.921</ele>
      </trkpt>
      <trkpt lat="37.54106" lon="27.61748">
        <ele>714.578</ele>
      </trkpt>
      <trkpt lat="37.54106" lon="27.61748">
        <ele>714.582</ele>
      </trkpt>
      <trkpt lat="37.54098" lon="27.61734">
        <ele>713.749</ele>
      </trkpt>
      <trkpt lat="37.54088" lon="27.61716">
        <ele>712.465</ele>
      </trkpt>
      <trkpt lat="37.54085" lon="27.61714">
        <ele>712.151</ele>
      </trkpt>
      <trkpt lat="37.54085" lon="27.61714">
        <ele>712.18</ele>
      </trkpt>
      <trkpt lat="37.54081" lon="27.61705">
        <ele>711.794</ele>
      </trkpt>
      <trkpt lat="37.54079" lon="27.617">
        <ele>711.566</ele>
      </trkpt>
      <trkpt lat="37.54079" lon="27.61701">
        <ele>711.57</ele>
      </trkpt>
      <trkpt lat="37.54077" lon="27.61693">
        <ele>711.266</ele>
      </trkpt>
      <trkpt lat="37.54073" lon="27.61677">
        <ele>709.611</ele>
      </trkpt>
      <trkpt lat="37.54072" lon="27.61672">
        <ele>709.223</ele>
      </trkpt>
      <trkpt lat="37.54072" lon="27.61671">
        <ele>709.043</ele>
      </trkpt>
      <trkpt lat="37.54069" lon="27.61668">
        <ele>708.529</ele>
      </trkpt>
      <trkpt lat="37.54066" lon="27.61666">
        <ele>708.102</ele>
      </trkpt>
      <trkpt lat="37.54064" lon="27.61662">
        <ele>707.226</ele>
      </trkpt>
      <trkpt lat="37.54063" lon="27.61662">
        <ele>707.144</ele>
      </trkpt>
      <trkpt lat="37.5406" lon="27.6166">
        <ele>706.485</ele>
      </trkpt>
      <trkpt lat="37.54058" lon="27.61653">
        <ele>705.359</ele>
      </trkpt>
      <trkpt lat="37.54059" lon="27.61647">
        <ele>704.608</ele>
      </trkpt>
      <trkpt lat="37.54058" lon="27.61646">
        <ele>704.459</ele>
      </trkpt>
      <trkpt lat="37.54056" lon="27.61637">
        <ele>702.94</ele>
      </trkpt>
      <trkpt lat="37.54052" lon="27.61621">
        <ele>700.764</ele>
      </trkpt>
      <trkpt lat="37.54051" lon="27.61621">
        <ele>700.645</ele>
      </trkpt>
      <trkpt lat="37.54052" lon="27.61621">
        <ele>700.731</ele>
      </trkpt>
      <trkpt lat="37.54049" lon="27.6162">
        <ele>700.394</ele>
      </trkpt>
      <trkpt lat="37.54043" lon="27.61605">
        <ele>699.462</ele>
      </trkpt>
      <trkpt lat="37.54044" lon="27.616">
        <ele>699.809</ele>
      </trkpt>
      <trkpt lat="37.54047" lon="27.6159">
        <ele>700.694</ele>
      </trkpt>
      <trkpt lat="37.54045" lon="27.61589">
        <ele>700.579</ele>
      </trkpt>
      <trkpt lat="37.54043" lon="27.61584">
        <ele>700.639</ele>
      </trkpt>
      <trkpt lat="37.54041" lon="27.61579">
        <ele>700.65</ele>
      </trkpt>
      <trkpt lat="37.54036" lon="27.61569">
        <ele>700.752</ele>
      </trkpt>
      <trkpt lat="37.54036" lon="27.61567">
        <ele>700.837</ele>
      </trkpt>
      <trkpt lat="37.54033" lon="27.61555">
        <ele>701.074</ele>
      </trkpt>
      <trkpt lat="37.54031" lon="27.61552">
        <ele>701.235</ele>
      </trkpt>
      <trkpt lat="37.54022" lon="27.6154">
        <ele>701.953</ele>
      </trkpt>
      <trkpt lat="37.54015" lon="27.61529">
        <ele>702.605</ele>
      </trkpt>
      <trkpt lat="37.54014" lon="27.61529">
        <ele>702.292</ele>
      </trkpt>
      <trkpt lat="37.54011" lon="27.61527">
        <ele>702.107</ele>
      </trkpt>
      <trkpt lat="37.54009" lon="27.61526">
        <ele>701.81</ele>
      </trkpt>
      <trkpt lat="37.53999" lon="27.61528">
        <ele>699.839</ele>
      </trkpt>
      <trkpt lat="37.53997" lon="27.61526">
        <ele>699.864</ele>
      </trkpt>
      <trkpt lat="37.53993" lon="27.61526">
        <ele>699.398</ele>
      </trkpt>
      <trkpt lat="37.53986" lon="27.61524">
        <ele>698.663</ele>
      </trkpt>
      <trkpt lat="37.53986" lon="27.61524">
        <ele>698.503</ele>
      </trkpt>
      <trkpt lat="37.53983" lon="27.61525">
        <ele>697.994</ele>
      </trkpt>
      <trkpt lat="37.53981" lon="27.61524">
        <ele>697.813</ele>
      </trkpt>
      <trkpt lat="37.53974" lon="27.61521">
        <ele>697.233</ele>
      </trkpt>
      <trkpt lat="37.53973" lon="27.6152">
        <ele>697.311</ele>
      </trkpt>
      <trkpt lat="37.53973" lon="27.6152">
        <ele>697.224</ele>
      </trkpt>
      <trkpt lat="37.53972" lon="27.61521">
        <ele>696.94</ele>
      </trkpt>
      <trkpt lat="37.53972" lon="27.6152">
        <ele>697.08</ele>
      </trkpt>
      <trkpt lat="37.53972" lon="27.61519">
        <ele>697.144</ele>
      </trkpt>
      <trkpt lat="37.53972" lon="27.61519">
        <ele>697.169</ele>
      </trkpt>
      <trkpt lat="37.53967" lon="27.61519">
        <ele>696.559</ele>
      </trkpt>
      <trkpt lat="37.53966" lon="27.61519">
        <ele>696.492</ele>
      </trkpt>
      <trkpt lat="37.53962" lon="27.61519">
        <ele>695.874</ele>
      </trkpt>
      <trkpt lat="37.53962" lon="27.61519">
        <ele>695.968</ele>
      </trkpt>
      <trkpt lat="37.53962" lon="27.61519">
        <ele>695.969</ele>
      </trkpt>
      <trkpt lat="37.53961" lon="27.61518">
        <ele>695.872</ele>
      </trkpt>
      <trkpt lat="37.5396" lon="27.61518">
        <ele>695.821</ele>
      </trkpt>
      <trkpt lat="37.53961" lon="27.61516">
        <ele>696.042</ele>
      </trkpt>
      <trkpt lat="37.53959" lon="27.61512">
        <ele>696.334</ele>
      </trkpt>
      <trkpt lat="37.53959" lon="27.6151">
        <ele>696.463</ele>
      </trkpt>
      <trkpt lat="37.5396" lon="27.61508">
        <ele>696.838</ele>
      </trkpt>
      <trkpt lat="37.5396" lon="27.61508">
        <ele>696.92</ele>
      </trkpt>
      <trkpt lat="37.53961" lon="27.61508">
        <ele>697.067</ele>
      </trkpt>
      <trkpt lat="37.53961" lon="27.61508">
        <ele>697.095</ele>
      </trkpt>
      <trkpt lat="37.53962" lon="27.61507">
        <ele>697.339</ele>
      </trkpt>
      <trkpt lat="37.53962" lon="27.61506">
        <ele>697.537</ele>
      </trkpt>
      <trkpt lat="37.53964" lon="27.615">
        <ele>698.616</ele>
      </trkpt>
      <trkpt lat="37.53965" lon="27.61498">
        <ele>699.075</ele>
      </trkpt>
      <trkpt lat="37.53966" lon="27.61494">
        <ele>700.283</ele>
      </trkpt>
      <trkpt lat="37.53966" lon="27.61494">
        <ele>700.414</ele>
      </trkpt>
      <trkpt lat="37.53965" lon="27.6149">
        <ele>701.06</ele>
      </trkpt>
      <trkpt lat="37.53963" lon="27.61484">
        <ele>702.262</ele>
      </trkpt>
      <trkpt lat="37.53964" lon="27.61483">
        <ele>702.651</ele>
      </trkpt>
      <trkpt lat="37.53965" lon="27.61478">
        <ele>704.088</ele>
      </trkpt>
      <trkpt lat="37.53967" lon="27.61474">
        <ele>705.453</ele>
      </trkpt>
      <trkpt lat="37.53968" lon="27.61474">
        <ele>705.592</ele>
      </trkpt>
      <trkpt lat="37.5397" lon="27.61473">
        <ele>706.34</ele>
      </trkpt>
      <trkpt lat="37.53974" lon="27.61467">
        <ele>708.393</ele>
      </trkpt>
      <trkpt lat="37.53973" lon="27.61469">
        <ele>707.812</ele>
      </trkpt>
      <trkpt lat="37.53973" lon="27.61469">
        <ele>707.706</ele>
      </trkpt>
      <trkpt lat="37.53973" lon="27.61467">
        <ele>708.236</ele>
      </trkpt>
      <trkpt lat="37.53973" lon="27.61462">
        <ele>709.405</ele>
      </trkpt>
      <trkpt lat="37.53973" lon="27.61458">
        <ele>710.284</ele>
      </trkpt>
      <trkpt lat="37.53974" lon="27.61457">
        <ele>710.507</ele>
      </trkpt>
      <trkpt lat="37.53975" lon="27.61445">
        <ele>713.298</ele>
      </trkpt>
      <trkpt lat="37.53974" lon="27.61442">
        <ele>713.997</ele>
      </trkpt>
      <trkpt lat="37.53977" lon="27.61438">
        <ele>715.39</ele>
      </trkpt>
      <trkpt lat="37.53978" lon="27.61435">
        <ele>716.379</ele>
      </trkpt>
      <trkpt lat="37.53976" lon="27.61434">
        <ele>716.396</ele>
      </trkpt>
      <trkpt lat="37.53977" lon="27.61434">
        <ele>716.625</ele>
      </trkpt>
      <trkpt lat="37.53977" lon="27.61436">
        <ele>715.983</ele>
      </trkpt>
      <trkpt lat="37.53975" lon="27.61441">
        <ele>714.268</ele>
      </trkpt>
      <trkpt lat="37.53976" lon="27.61442">
        <ele>714.225</ele>
      </trkpt>
      <trkpt lat="37.53975" lon="27.61441">
        <ele>714.396</ele>
      </trkpt>
      <trkpt lat="37.53975" lon="27.61441">
        <ele>714.391</ele>
      </trkpt>
      <trkpt lat="37.53978" lon="27.61437">
        <ele>715.703</ele>
      </trkpt>
      <trkpt lat="37.53976" lon="27.61431">
        <ele>717.37</ele>
      </trkpt>
      <trkpt lat="37.53975" lon="27.6143">
        <ele>717.434</ele>
      </trkpt>
      <trkpt lat="37.53974" lon="27.61429">
        <ele>717.559</ele>
      </trkpt>
      <trkpt lat="37.53974" lon="27.6143">
        <ele>717.456</ele>
      </trkpt>
      <trkpt lat="37.53971" lon="27.6143">
        <ele>717.285</ele>
      </trkpt>
      <trkpt lat="37.53971" lon="27.6143">
        <ele>717.166</ele>
      </trkpt>
      <trkpt lat="37.53966" lon="27.61428">
        <ele>717.696</ele>
      </trkpt>
      <trkpt lat="37.53965" lon="27.61426">
        <ele>718.288</ele>
      </trkpt>
      <trkpt lat="37.53966" lon="27.61421">
        <ele>719.777</ele>
      </trkpt>
      <trkpt lat="37.53966" lon="27.61418">
        <ele>720.662</ele>
      </trkpt>
      <trkpt lat="37.53967" lon="27.61419">
        <ele>720.18</ele>
      </trkpt>
      <trkpt lat="37.53966" lon="27.61418">
        <ele>720.659</ele>
      </trkpt>
      <trkpt lat="37.53963" lon="27.61416">
        <ele>721.386</ele>
      </trkpt>
      <trkpt lat="37.53963" lon="27.61414">
        <ele>721.931</ele>
      </trkpt>
      <trkpt lat="37.5396" lon="27.61413">
        <ele>722.411</ele>
      </trkpt>
      <trkpt lat="37.53956" lon="27.61409">
        <ele>723.891</ele>
      </trkpt>
      <trkpt lat="37.53957" lon="27.61406">
        <ele>725.194</ele>
      </trkpt>
      <trkpt lat="37.5396" lon="27.61406">
        <ele>725.336</ele>
      </trkpt>
      <trkpt lat="37.5396" lon="27.61404">
        <ele>726.159</ele>
      </trkpt>
      <trkpt lat="37.53964" lon="27.61406">
        <ele>725.374</ele>
      </trkpt>
      <trkpt lat="37.53967" lon="27.61403">
        <ele>726.767</ele>
      </trkpt>
      <trkpt lat="37.5397" lon="27.61403">
        <ele>726.643</ele>
      </trkpt>
      <trkpt lat="37.53972" lon="27.614">
        <ele>728.05</ele>
      </trkpt>
      <trkpt lat="37.53975" lon="27.61398">
        <ele>729.394</ele>
      </trkpt>
      <trkpt lat="37.53978" lon="27.61394">
        <ele>731.748</ele>
      </trkpt>
      <trkpt lat="37.5398" lon="27.61391">
        <ele>733.455</ele>
      </trkpt>
      <trkpt lat="37.53982" lon="27.61391">
        <ele>733.934</ele>
      </trkpt>
      <trkpt lat="37.53983" lon="27.6139">
        <ele>734.473</ele>
      </trkpt>
      <trkpt lat="37.53983" lon="27.61388">
        <ele>735.543</ele>
      </trkpt>
      <trkpt lat="37.53984" lon="27.61387">
        <ele>735.867</ele>
      </trkpt>
      <trkpt lat="37.53984" lon="27.61388">
        <ele>735.5</ele>
      </trkpt>
      <trkpt lat="37.53978" lon="27.61386">
        <ele>734.997</ele>
      </trkpt>
      <trkpt lat="37.53977" lon="27.61386">
        <ele>735.035</ele>
      </trkpt>
      <trkpt lat="37.5397" lon="27.61385">
        <ele>734.495</ele>
      </trkpt>
      <trkpt lat="37.53966" lon="27.61383">
        <ele>734.842</ele>
      </trkpt>
      <trkpt lat="37.53964" lon="27.61382">
        <ele>734.95</ele>
      </trkpt>
      <trkpt lat="37.53962" lon="27.61381">
        <ele>735.169</ele>
      </trkpt>
      <trkpt lat="37.53959" lon="27.61378">
        <ele>735.923</ele>
      </trkpt>
      <trkpt lat="37.53954" lon="27.61374">
        <ele>736.942</ele>
      </trkpt>
      <trkpt lat="37.53952" lon="27.61373">
        <ele>736.88</ele>
      </trkpt>
      <trkpt lat="37.53951" lon="27.61372">
        <ele>737.151</ele>
      </trkpt>
      <trkpt lat="37.53947" lon="27.61371">
        <ele>737.21</ele>
      </trkpt>
      <trkpt lat="37.53947" lon="27.61369">
        <ele>737.65</ele>
      </trkpt>
      <trkpt lat="37.53946" lon="27.6137">
        <ele>737.506</ele>
      </trkpt>
      <trkpt lat="37.5394" lon="27.61365">
        <ele>738.609</ele>
      </trkpt>
      <trkpt lat="37.53941" lon="27.61363">
        <ele>739.168</ele>
      </trkpt>
      <trkpt lat="37.5394" lon="27.61359">
        <ele>740.202</ele>
      </trkpt>
      <trkpt lat="37.53939" lon="27.61358">
        <ele>740.409</ele>
      </trkpt>
      <trkpt lat="37.53942" lon="27.61354">
        <ele>741.627</ele>
      </trkpt>
      <trkpt lat="37.53941" lon="27.61348">
        <ele>743.061</ele>
      </trkpt>
      <trkpt lat="37.53942" lon="27.61348">
        <ele>743.058</ele>
      </trkpt>
      <trkpt lat="37.53942" lon="27.61346">
        <ele>743.674</ele>
      </trkpt>
      <trkpt lat="37.53943" lon="27.61341">
        <ele>744.912</ele>
      </trkpt>
      <trkpt lat="37.53943" lon="27.61337">
        <ele>745.901</ele>
      </trkpt>
      <trkpt lat="37.53943" lon="27.6133">
        <ele>747.679</ele>
      </trkpt>
      <trkpt lat="37.53942" lon="27.61329">
        <ele>747.89</ele>
      </trkpt>
      <trkpt lat="37.5394" lon="27.61322">
        <ele>749.473</ele>
      </trkpt>
      <trkpt lat="37.5394" lon="27.61321">
        <ele>749.863</ele>
      </trkpt>
      <trkpt lat="37.53939" lon="27.6132">
        <ele>749.97</ele>
      </trkpt>
      <trkpt lat="37.53936" lon="27.61313">
        <ele>751.405</ele>
      </trkpt>
      <trkpt lat="37.53936" lon="27.61312">
        <ele>751.683</ele>
      </trkpt>
      <trkpt lat="37.53934" lon="27.61303">
        <ele>754.159</ele>
      </trkpt>
      <trkpt lat="37.53934" lon="27.613">
        <ele>755.199</ele>
      </trkpt>
      <trkpt lat="37.53935" lon="27.613">
        <ele>755.435</ele>
      </trkpt>
      <trkpt lat="37.53935" lon="27.61295">
        <ele>757.199</ele>
      </trkpt>
      <trkpt lat="37.53935" lon="27.61293">
        <ele>758.028</ele>
      </trkpt>
      <trkpt lat="37.53934" lon="27.61287">
        <ele>759.908</ele>
      </trkpt>
      <trkpt lat="37.53936" lon="27.61283">
        <ele>761.415</ele>
      </trkpt>
      <trkpt lat="37.53936" lon="27.61284">
        <ele>761.057</ele>
      </trkpt>
      <trkpt lat="37.53938" lon="27.61289">
        <ele>759.573</ele>
      </trkpt>
      <trkpt lat="37.53935" lon="27.61284">
        <ele>761.242</ele>
      </trkpt>
      <trkpt lat="37.53936" lon="27.61279">
        <ele>762.998</ele>
      </trkpt>
      <trkpt lat="37.53939" lon="27.61279">
        <ele>763.159</ele>
      </trkpt>
      <trkpt lat="37.5394" lon="27.61276">
        <ele>764.191</ele>
      </trkpt>
      <trkpt lat="37.53942" lon="27.61267">
        <ele>767.61</ele>
      </trkpt>
      <trkpt lat="37.53943" lon="27.61268">
        <ele>767.527</ele>
      </trkpt>
      <trkpt lat="37.53943" lon="27.61267">
        <ele>767.551</ele>
      </trkpt>
      <trkpt lat="37.53942" lon="27.61264">
        <ele>768.444</ele>
      </trkpt>
      <trkpt lat="37.5394" lon="27.61261">
        <ele>769.369</ele>
      </trkpt>
      <trkpt lat="37.53939" lon="27.61258">
        <ele>770.272</ele>
      </trkpt>
      <trkpt lat="37.53937" lon="27.61257">
        <ele>770.257</ele>
      </trkpt>
      <trkpt lat="37.53936" lon="27.61256">
        <ele>770.468</ele>
      </trkpt>
      <trkpt lat="37.53932" lon="27.61247">
        <ele>772.182</ele>
      </trkpt>
      <trkpt lat="37.53931" lon="27.61244">
        <ele>772.567</ele>
      </trkpt>
      <trkpt lat="37.53929" lon="27.61241">
        <ele>772.786</ele>
      </trkpt>
      <trkpt lat="37.53927" lon="27.61233">
        <ele>773.769</ele>
      </trkpt>
      <trkpt lat="37.53924" lon="27.61229">
        <ele>773.798</ele>
      </trkpt>
      <trkpt lat="37.53922" lon="27.61228">
        <ele>773.56</ele>
      </trkpt>
      <trkpt lat="37.53922" lon="27.61227">
        <ele>773.64</ele>
      </trkpt>
      <trkpt lat="37.53922" lon="27.61225">
        <ele>773.837</ele>
      </trkpt>
      <trkpt lat="37.53921" lon="27.61225">
        <ele>773.703</ele>
      </trkpt>
      <trkpt lat="37.53915" lon="27.61222">
        <ele>773.14</ele>
      </trkpt>
      <trkpt lat="37.53914" lon="27.61222">
        <ele>773.118</ele>
      </trkpt>
      <trkpt lat="37.53911" lon="27.61219">
        <ele>773.92</ele>
      </trkpt>
      <trkpt lat="37.53909" lon="27.61217">
        <ele>774.307</ele>
      </trkpt>
      <trkpt lat="37.53907" lon="27.61212">
        <ele>774.987</ele>
      </trkpt>
      <trkpt lat="37.53903" lon="27.61212">
        <ele>774.796</ele>
      </trkpt>
      <trkpt lat="37.539" lon="27.61214">
        <ele>774.409</ele>
      </trkpt>
      <trkpt lat="37.53897" lon="27.61211">
        <ele>774.534</ele>
      </trkpt>
      <trkpt lat="37.53893" lon="27.6121">
        <ele>774.324</ele>
      </trkpt>
      <trkpt lat="37.53893" lon="27.6121">
        <ele>774.32</ele>
      </trkpt>
      <trkpt lat="37.53892" lon="27.61208">
        <ele>774.292</ele>
      </trkpt>
      <trkpt lat="37.5389" lon="27.61208">
        <ele>774.132</ele>
      </trkpt>
      <trkpt lat="37.53889" lon="27.61209">
        <ele>774.002</ele>
      </trkpt>
      <trkpt lat="37.53888" lon="27.61208">
        <ele>774.056</ele>
      </trkpt>
      <trkpt lat="37.53887" lon="27.61208">
        <ele>774.207</ele>
      </trkpt>
      <trkpt lat="37.53886" lon="27.61205">
        <ele>774.211</ele>
      </trkpt>
      <trkpt lat="37.53884" lon="27.612">
        <ele>774.273</ele>
      </trkpt>
      <trkpt lat="37.53884" lon="27.61199">
        <ele>774.247</ele>
      </trkpt>
      <trkpt lat="37.53883" lon="27.61201">
        <ele>774.339</ele>
      </trkpt>
      <trkpt lat="37.53883" lon="27.61199">
        <ele>774.33</ele>
      </trkpt>
      <trkpt lat="37.53883" lon="27.61196">
        <ele>774.239</ele>
      </trkpt>
      <trkpt lat="37.53884" lon="27.61196">
        <ele>774.222</ele>
      </trkpt>
      <trkpt lat="37.53883" lon="27.61196">
        <ele>774.235</ele>
      </trkpt>
      <trkpt lat="37.53884" lon="27.61195">
        <ele>774.209</ele>
      </trkpt>
      <trkpt lat="37.53885" lon="27.61192">
        <ele>774.58</ele>
      </trkpt>
      <trkpt lat="37.53884" lon="27.61191">
        <ele>774.703</ele>
      </trkpt>
      <trkpt lat="37.53886" lon="27.61187">
        <ele>775.211</ele>
      </trkpt>
      <trkpt lat="37.53889" lon="27.61185">
        <ele>775.804</ele>
      </trkpt>
      <trkpt lat="37.53893" lon="27.61184">
        <ele>777.021</ele>
      </trkpt>
      <trkpt lat="37.53899" lon="27.61185">
        <ele>778.466</ele>
      </trkpt>
      <trkpt lat="37.53898" lon="27.61179">
        <ele>779.588</ele>
      </trkpt>
      <trkpt lat="37.539" lon="27.61178">
        <ele>780.169</ele>
      </trkpt>
      <trkpt lat="37.53898" lon="27.61178">
        <ele>779.743</ele>
      </trkpt>
      <trkpt lat="37.53896" lon="27.61171">
        <ele>780.692</ele>
      </trkpt>
      <trkpt lat="37.53895" lon="27.61168">
        <ele>780.692</ele>
      </trkpt>
      <trkpt lat="37.53894" lon="27.61168">
        <ele>780.596</ele>
      </trkpt>
      <trkpt lat="37.53894" lon="27.61162">
        <ele>782.259</ele>
      </trkpt>
      <trkpt lat="37.53893" lon="27.6116">
        <ele>782.179</ele>
      </trkpt>
      <trkpt lat="37.53893" lon="27.61157">
        <ele>783.301</ele>
      </trkpt>
      <trkpt lat="37.53894" lon="27.61153">
        <ele>784.697</ele>
      </trkpt>
      <trkpt lat="37.53893" lon="27.61151">
        <ele>784.869</ele>
      </trkpt>
      <trkpt lat="37.53891" lon="27.61148">
        <ele>784.539</ele>
      </trkpt>
      <trkpt lat="37.5389" lon="27.61148">
        <ele>784.428</ele>
      </trkpt>
      <trkpt lat="37.53886" lon="27.6114">
        <ele>784.929</ele>
      </trkpt>
      <trkpt lat="37.53886" lon="27.61137">
        <ele>785.709</ele>
      </trkpt>
      <trkpt lat="37.53883" lon="27.61123">
        <ele>789.912</ele>
      </trkpt>
      <trkpt lat="37.53882" lon="27.61123">
        <ele>789.812</ele>
      </trkpt>
      <trkpt lat="37.53882" lon="27.61123">
        <ele>789.767</ele>
      </trkpt>
      <trkpt lat="37.53885" lon="27.61113">
        <ele>794.726</ele>
      </trkpt>
      <trkpt lat="37.53884" lon="27.61111">
        <ele>795.197</ele>
      </trkpt>
      <trkpt lat="37.53883" lon="27.61107">
        <ele>796.202</ele>
      </trkpt>
      <trkpt lat="37.53884" lon="27.61101">
        <ele>798.435</ele>
      </trkpt>
      <trkpt lat="37.53884" lon="27.611">
        <ele>798.862</ele>
      </trkpt>
      <trkpt lat="37.53882" lon="27.61092">
        <ele>800.734</ele>
      </trkpt>
      <trkpt lat="37.53882" lon="27.61092">
        <ele>800.906</ele>
      </trkpt>
      <trkpt lat="37.53882" lon="27.61092">
        <ele>800.781</ele>
      </trkpt>
      <trkpt lat="37.53881" lon="27.61087">
        <ele>801.981</ele>
      </trkpt>
      <trkpt lat="37.5388" lon="27.61082">
        <ele>802.86</ele>
      </trkpt>
      <trkpt lat="37.53876" lon="27.61073">
        <ele>803.554</ele>
      </trkpt>
      <trkpt lat="37.53876" lon="27.61073">
        <ele>803.36</ele>
      </trkpt>
      <trkpt lat="37.53876" lon="27.61073">
        <ele>803.374</ele>
      </trkpt>
      <trkpt lat="37.53875" lon="27.6107">
        <ele>803.814</ele>
      </trkpt>
      <trkpt lat="37.53874" lon="27.61066">
        <ele>803.972</ele>
      </trkpt>
      <trkpt lat="37.53874" lon="27.61064">
        <ele>804.582</ele>
      </trkpt>
      <trkpt lat="37.53872" lon="27.61054">
        <ele>805.883</ele>
      </trkpt>
      <trkpt lat="37.53872" lon="27.61046">
        <ele>807.152</ele>
      </trkpt>
      <trkpt lat="37.53869" lon="27.61041">
        <ele>806.611</ele>
      </trkpt>
      <trkpt lat="37.53869" lon="27.61041">
        <ele>806.501</ele>
      </trkpt>
      <trkpt lat="37.53867" lon="27.61038">
        <ele>805.793</ele>
      </trkpt>
      <trkpt lat="37.53868" lon="27.61038">
        <ele>806.418</ele>
      </trkpt>
      <trkpt lat="37.53868" lon="27.61038">
        <ele>806.251</ele>
      </trkpt>
      <trkpt lat="37.53861" lon="27.6103">
        <ele>804.692</ele>
      </trkpt>
      <trkpt lat="37.53858" lon="27.61027">
        <ele>803.957</ele>
      </trkpt>
      <trkpt lat="37.53855" lon="27.61025">
        <ele>803.56</ele>
      </trkpt>
      <trkpt lat="37.53853" lon="27.61019">
        <ele>804.02</ele>
      </trkpt>
      <trkpt lat="37.53848" lon="27.61011">
        <ele>803.807</ele>
      </trkpt>
      <trkpt lat="37.53843" lon="27.61005">
        <ele>802.945</ele>
      </trkpt>
      <trkpt lat="37.5384" lon="27.61005">
        <ele>801.717</ele>
      </trkpt>
      <trkpt lat="37.53839" lon="27.61004">
        <ele>801.77</ele>
      </trkpt>
      <trkpt lat="37.53835" lon="27.60998">
        <ele>800.814</ele>
      </trkpt>
      <trkpt lat="37.53828" lon="27.60991">
        <ele>798.649</ele>
      </trkpt>
      <trkpt lat="37.53827" lon="27.60989">
        <ele>798.354</ele>
      </trkpt>
      <trkpt lat="37.53826" lon="27.60989">
        <ele>798.015</ele>
      </trkpt>
      <trkpt lat="37.53821" lon="27.60982">
        <ele>796.207</ele>
      </trkpt>
      <trkpt lat="37.53823" lon="27.60984">
        <ele>796.95</ele>
      </trkpt>
      <trkpt lat="37.53816" lon="27.60978">
        <ele>794.268</ele>
      </trkpt>
      <trkpt lat="37.53814" lon="27.60977">
        <ele>793.517</ele>
      </trkpt>
      <trkpt lat="37.53814" lon="27.60975">
        <ele>793.961</ele>
      </trkpt>
      <trkpt lat="37.53814" lon="27.60974">
        <ele>793.773</ele>
      </trkpt>
      <trkpt lat="37.5381" lon="27.60967">
        <ele>792.51</ele>
      </trkpt>
      <trkpt lat="37.53811" lon="27.6096">
        <ele>794.028</ele>
      </trkpt>
      <trkpt lat="37.53815" lon="27.60957">
        <ele>796.194</ele>
      </trkpt>
      <trkpt lat="37.53816" lon="27.60952">
        <ele>796.799</ele>
      </trkpt>
      <trkpt lat="37.53816" lon="27.60952">
        <ele>796.966</ele>
      </trkpt>
      <trkpt lat="37.53816" lon="27.60953">
        <ele>796.913</ele>
      </trkpt>
      <trkpt lat="37.53817" lon="27.60955">
        <ele>796.956</ele>
      </trkpt>
      <trkpt lat="37.53816" lon="27.60952">
        <ele>796.952</ele>
      </trkpt>
      <trkpt lat="37.53815" lon="27.60932">
        <ele>798.125</ele>
      </trkpt>
      <trkpt lat="37.53816" lon="27.60932">
        <ele>798.561</ele>
      </trkpt>
      <trkpt lat="37.53817" lon="27.6093">
        <ele>798.986</ele>
      </trkpt>
      <trkpt lat="37.53816" lon="27.60922">
        <ele>799.17</ele>
      </trkpt>
      <trkpt lat="37.53816" lon="27.60917">
        <ele>799.601</ele>
      </trkpt>
      <trkpt lat="37.53813" lon="27.60905">
        <ele>799.679</ele>
      </trkpt>
      <trkpt lat="37.53812" lon="27.60899">
        <ele>799.91</ele>
      </trkpt>
      <trkpt lat="37.53812" lon="27.60899">
        <ele>799.876</ele>
      </trkpt>
      <trkpt lat="37.53812" lon="27.60896">
        <ele>800.359</ele>
      </trkpt>
      <trkpt lat="37.53812" lon="27.60896">
        <ele>800.36</ele>
      </trkpt>
      <trkpt lat="37.53814" lon="27.6088">
        <ele>803.17</ele>
      </trkpt>
      <trkpt lat="37.53812" lon="27.60868">
        <ele>804.405</ele>
      </trkpt>
      <trkpt lat="37.53812" lon="27.60866">
        <ele>804.695</ele>
      </trkpt>
      <trkpt lat="37.53812" lon="27.60865">
        <ele>804.659</ele>
      </trkpt>
      <trkpt lat="37.53812" lon="27.60865">
        <ele>804.736</ele>
      </trkpt>
      <trkpt lat="37.53813" lon="27.60862">
        <ele>805.507</ele>
      </trkpt>
      <trkpt lat="37.53813" lon="27.60862">
        <ele>805.569</ele>
      </trkpt>
      <trkpt lat="37.53809" lon="27.60851">
        <ele>804.406</ele>
      </trkpt>
      <trkpt lat="37.53807" lon="27.60853">
        <ele>803.934</ele>
      </trkpt>
      <trkpt lat="37.5381" lon="27.60849">
        <ele>804.591</ele>
      </trkpt>
      <trkpt lat="37.53809" lon="27.60848">
        <ele>804.425</ele>
      </trkpt>
      <trkpt lat="37.53808" lon="27.60842">
        <ele>803.998</ele>
      </trkpt>
      <trkpt lat="37.53807" lon="27.60838">
        <ele>803.553</ele>
      </trkpt>
      <trkpt lat="37.53806" lon="27.6083">
        <ele>803.033</ele>
      </trkpt>
      <trkpt lat="37.53804" lon="27.60824">
        <ele>802.607</ele>
      </trkpt>
      <trkpt lat="37.53803" lon="27.60822">
        <ele>802.524</ele>
      </trkpt>
      <trkpt lat="37.53803" lon="27.60822">
        <ele>802.486</ele>
      </trkpt>
      <trkpt lat="37.53805" lon="27.60818">
        <ele>802.396</ele>
      </trkpt>
      <trkpt lat="37.53805" lon="27.60818">
        <ele>802.429</ele>
      </trkpt>
      <trkpt lat="37.53805" lon="27.60818">
        <ele>802.437</ele>
      </trkpt>
      <trkpt lat="37.53805" lon="27.60813">
        <ele>802.213</ele>
      </trkpt>
      <trkpt lat="37.53805" lon="27.60811">
        <ele>802.16</ele>
      </trkpt>
      <trkpt lat="37.53805" lon="27.608">
        <ele>801.617</ele>
      </trkpt>
      <trkpt lat="37.53807" lon="27.60795">
        <ele>801.363</ele>
      </trkpt>
      <trkpt lat="37.53807" lon="27.60795">
        <ele>801.441</ele>
      </trkpt>
      <trkpt lat="37.53807" lon="27.60794">
        <ele>801.303</ele>
      </trkpt>
      <trkpt lat="37.53805" lon="27.60787">
        <ele>800.612</ele>
      </trkpt>
      <trkpt lat="37.53807" lon="27.60784">
        <ele>800.738</ele>
      </trkpt>
      <trkpt lat="37.53807" lon="27.60781">
        <ele>800.374</ele>
      </trkpt>
      <trkpt lat="37.53813" lon="27.60774">
        <ele>801.211</ele>
      </trkpt>
      <trkpt lat="37.53814" lon="27.60772">
        <ele>801.484</ele>
      </trkpt>
      <trkpt lat="37.53814" lon="27.60764">
        <ele>801.675</ele>
      </trkpt>
      <trkpt lat="37.53814" lon="27.60757">
        <ele>802.029</ele>
      </trkpt>
      <trkpt lat="37.53815" lon="27.60753">
        <ele>802.291</ele>
      </trkpt>
      <trkpt lat="37.53816" lon="27.60751">
        <ele>802.546</ele>
      </trkpt>
      <trkpt lat="37.53817" lon="27.60748">
        <ele>802.871</ele>
      </trkpt>
      <trkpt lat="37.53817" lon="27.6074">
        <ele>804</ele>
      </trkpt>
      <trkpt lat="37.53815" lon="27.60737">
        <ele>804.246</ele>
      </trkpt>
      <trkpt lat="37.53815" lon="27.60735">
        <ele>804.491</ele>
      </trkpt>
      <trkpt lat="37.53814" lon="27.60727">
        <ele>805.557</ele>
      </trkpt>
      <trkpt lat="37.53815" lon="27.60725">
        <ele>805.982</ele>
      </trkpt>
      <trkpt lat="37.53814" lon="27.60721">
        <ele>806.487</ele>
      </trkpt>
      <trkpt lat="37.53816" lon="27.60708">
        <ele>809.729</ele>
      </trkpt>
      <trkpt lat="37.53819" lon="27.60699">
        <ele>812.363</ele>
      </trkpt>
      <trkpt lat="37.53822" lon="27.60695">
        <ele>813.864</ele>
      </trkpt>
      <trkpt lat="37.53822" lon="27.60691">
        <ele>814.933</ele>
      </trkpt>
      <trkpt lat="37.53822" lon="27.60689">
        <ele>815.568</ele>
      </trkpt>
      <trkpt lat="37.53823" lon="27.60685">
        <ele>817.064</ele>
      </trkpt>
      <trkpt lat="37.53821" lon="27.60682">
        <ele>817.825</ele>
      </trkpt>
      <trkpt lat="37.5382" lon="27.60674">
        <ele>820.138</ele>
      </trkpt>
      <trkpt lat="37.53819" lon="27.60673">
        <ele>820.261</ele>
      </trkpt>
      <trkpt lat="37.53822" lon="27.60671">
        <ele>821.727</ele>
      </trkpt>
      <trkpt lat="37.53825" lon="27.60666">
        <ele>823.747</ele>
      </trkpt>
      <trkpt lat="37.53825" lon="27.60665">
        <ele>824.095</ele>
      </trkpt>
      <trkpt lat="37.53828" lon="27.60656">
        <ele>827.574</ele>
      </trkpt>
      <trkpt lat="37.53828" lon="27.60653">
        <ele>828.517</ele>
      </trkpt>
      <trkpt lat="37.53827" lon="27.60653">
        <ele>828.369</ele>
      </trkpt>
      <trkpt lat="37.53827" lon="27.60653">
        <ele>828.394</ele>
      </trkpt>
      <trkpt lat="37.53829" lon="27.60651">
        <ele>829.533</ele>
      </trkpt>
      <trkpt lat="37.53828" lon="27.60646">
        <ele>830.9</ele>
      </trkpt>
      <trkpt lat="37.53823" lon="27.60641">
        <ele>831.893</ele>
      </trkpt>
      <trkpt lat="37.53821" lon="27.60634">
        <ele>833.372</ele>
      </trkpt>
      <trkpt lat="37.53823" lon="27.60633">
        <ele>833.792</ele>
      </trkpt>
      <trkpt lat="37.53825" lon="27.60633">
        <ele>834.258</ele>
      </trkpt>
      <trkpt lat="37.53827" lon="27.6063">
        <ele>835.297</ele>
      </trkpt>
      <trkpt lat="37.53832" lon="27.60625">
        <ele>837.138</ele>
      </trkpt>
      <trkpt lat="37.53832" lon="27.60626">
        <ele>837.068</ele>
      </trkpt>
      <trkpt lat="37.53832" lon="27.60625">
        <ele>837.293</ele>
      </trkpt>
      <trkpt lat="37.53838" lon="27.60621">
        <ele>840.367</ele>
      </trkpt>
      <trkpt lat="37.53837" lon="27.60614">
        <ele>841.57</ele>
      </trkpt>
      <trkpt lat="37.53836" lon="27.60612">
        <ele>841.773</ele>
      </trkpt>
      <trkpt lat="37.53836" lon="27.60604">
        <ele>843.435</ele>
      </trkpt>
      <trkpt lat="37.53836" lon="27.606">
        <ele>844.444</ele>
      </trkpt>
      <trkpt lat="37.53839" lon="27.60599">
        <ele>845.56</ele>
      </trkpt>
      <trkpt lat="37.5384" lon="27.60599">
        <ele>846.011</ele>
      </trkpt>
      <trkpt lat="37.53843" lon="27.60595">
        <ele>848.158</ele>
      </trkpt>
      <trkpt lat="37.53841" lon="27.60591">
        <ele>847.981</ele>
      </trkpt>
      <trkpt lat="37.53842" lon="27.60591">
        <ele>848.32</ele>
      </trkpt>
      <trkpt lat="37.53841" lon="27.60591">
        <ele>847.96</ele>
      </trkpt>
      <trkpt lat="37.53839" lon="27.60589">
        <ele>847.441</ele>
      </trkpt>
      <trkpt lat="37.5384" lon="27.60588">
        <ele>848.177</ele>
      </trkpt>
      <trkpt lat="37.53838" lon="27.60584">
        <ele>847.8</ele>
      </trkpt>
      <trkpt lat="37.53836" lon="27.60578">
        <ele>847.649</ele>
      </trkpt>
      <trkpt lat="37.53837" lon="27.60576">
        <ele>848.768</ele>
      </trkpt>
      <trkpt lat="37.53837" lon="27.6057">
        <ele>849.435</ele>
      </trkpt>
      <trkpt lat="37.53837" lon="27.60569">
        <ele>849.306</ele>
      </trkpt>
      <trkpt lat="37.53833" lon="27.60562">
        <ele>848.314</ele>
      </trkpt>
      <trkpt lat="37.5383" lon="27.60556">
        <ele>847.883</ele>
      </trkpt>
      <trkpt lat="37.53828" lon="27.60553">
        <ele>847.537</ele>
      </trkpt>
      <trkpt lat="37.53828" lon="27.6055">
        <ele>848.299</ele>
      </trkpt>
      <trkpt lat="37.53828" lon="27.60543">
        <ele>850.167</ele>
      </trkpt>
      <trkpt lat="37.53828" lon="27.6054">
        <ele>850.569</ele>
      </trkpt>
      <trkpt lat="37.53828" lon="27.60533">
        <ele>852.36</ele>
      </trkpt>
      <trkpt lat="37.53828" lon="27.60533">
        <ele>852.47</ele>
      </trkpt>
      <trkpt lat="37.53828" lon="27.60529">
        <ele>853.294</ele>
      </trkpt>
      <trkpt lat="37.53827" lon="27.60523">
        <ele>854.759</ele>
      </trkpt>
      <trkpt lat="37.53827" lon="27.60513">
        <ele>857.714</ele>
      </trkpt>
      <trkpt lat="37.53827" lon="27.60505">
        <ele>860.462</ele>
      </trkpt>
      <trkpt lat="37.53826" lon="27.60502">
        <ele>861.154</ele>
      </trkpt>
      <trkpt lat="37.53824" lon="27.60502">
        <ele>860.178</ele>
      </trkpt>
      <trkpt lat="37.53824" lon="27.60499">
        <ele>860.737</ele>
      </trkpt>
      <trkpt lat="37.53821" lon="27.60496">
        <ele>860.236</ele>
      </trkpt>
      <trkpt lat="37.53815" lon="27.60484">
        <ele>860.157</ele>
      </trkpt>
      <trkpt lat="37.53815" lon="27.60484">
        <ele>860.069</ele>
      </trkpt>
      <trkpt lat="37.53814" lon="27.60478">
        <ele>861.257</ele>
      </trkpt>
      <trkpt lat="37.53814" lon="27.60476">
        <ele>861.782</ele>
      </trkpt>
      <trkpt lat="37.53814" lon="27.60475">
        <ele>862.139</ele>
      </trkpt>
      <trkpt lat="37.53813" lon="27.60468">
        <ele>862.593</ele>
      </trkpt>
      <trkpt lat="37.53812" lon="27.6046">
        <ele>862.803</ele>
      </trkpt>
      <trkpt lat="37.53812" lon="27.60457">
        <ele>863.134</ele>
      </trkpt>
      <trkpt lat="37.53813" lon="27.60456">
        <ele>863.669</ele>
      </trkpt>
      <trkpt lat="37.53813" lon="27.60455">
        <ele>863.395</ele>
      </trkpt>
      <trkpt lat="37.53812" lon="27.60452">
        <ele>863.274</ele>
      </trkpt>
      <trkpt lat="37.53816" lon="27.60443">
        <ele>865.439</ele>
      </trkpt>
      <trkpt lat="37.53816" lon="27.60445">
        <ele>865.343</ele>
      </trkpt>
      <trkpt lat="37.53817" lon="27.60439">
        <ele>866.476</ele>
      </trkpt>
      <trkpt lat="37.5382" lon="27.60428">
        <ele>868.166</ele>
      </trkpt>
      <trkpt lat="37.53822" lon="27.60425">
        <ele>868.84</ele>
      </trkpt>
      <trkpt lat="37.53823" lon="27.60425">
        <ele>869.24</ele>
      </trkpt>
      <trkpt lat="37.53826" lon="27.6042">
        <ele>870.368</ele>
      </trkpt>
      <trkpt lat="37.53827" lon="27.60414">
        <ele>870.924</ele>
      </trkpt>
      <trkpt lat="37.53829" lon="27.60413">
        <ele>871.573</ele>
      </trkpt>
      <trkpt lat="37.53832" lon="27.60406">
        <ele>872.807</ele>
      </trkpt>
      <trkpt lat="37.5383" lon="27.60405">
        <ele>872.334</ele>
      </trkpt>
      <trkpt lat="37.53829" lon="27.604">
        <ele>872.323</ele>
      </trkpt>
      <trkpt lat="37.53828" lon="27.60397">
        <ele>871.922</ele>
      </trkpt>
      <trkpt lat="37.53832" lon="27.60388">
        <ele>873.742</ele>
      </trkpt>
      <trkpt lat="37.5383" lon="27.6038">
        <ele>873.682</ele>
      </trkpt>
      <trkpt lat="37.5383" lon="27.60375">
        <ele>874.054</ele>
      </trkpt>
      <trkpt lat="37.53828" lon="27.60371">
        <ele>873.742</ele>
      </trkpt>
      <trkpt lat="37.53825" lon="27.60363">
        <ele>873.489</ele>
      </trkpt>
      <trkpt lat="37.53827" lon="27.6036">
        <ele>874.102</ele>
      </trkpt>
      <trkpt lat="37.53824" lon="27.60354">
        <ele>873.373</ele>
      </trkpt>
      <trkpt lat="37.53822" lon="27.60347">
        <ele>872.782</ele>
      </trkpt>
      <trkpt lat="37.53821" lon="27.60338">
        <ele>872.466</ele>
      </trkpt>
      <trkpt lat="37.53821" lon="27.60336">
        <ele>872.34</ele>
      </trkpt>
      <trkpt lat="37.53821" lon="27.60336">
        <ele>872.473</ele>
      </trkpt>
      <trkpt lat="37.5382" lon="27.60332">
        <ele>872.28</ele>
      </trkpt>
      <trkpt lat="37.53822" lon="27.6033">
        <ele>872.726</ele>
      </trkpt>
      <trkpt lat="37.53824" lon="27.60327">
        <ele>873.38</ele>
      </trkpt>
      <trkpt lat="37.53825" lon="27.60326">
        <ele>873.634</ele>
      </trkpt>
      <trkpt lat="37.53825" lon="27.60329">
        <ele>873.533</ele>
      </trkpt>
      <trkpt lat="37.5383" lon="27.60322">
        <ele>874.962</ele>
      </trkpt>
      <trkpt lat="37.53832" lon="27.60321">
        <ele>875.683</ele>
      </trkpt>
      <trkpt lat="37.53839" lon="27.60314">
        <ele>878.029</ele>
      </trkpt>
      <trkpt lat="37.53841" lon="27.60309">
        <ele>878.408</ele>
      </trkpt>
      <trkpt lat="37.53843" lon="27.60307">
        <ele>879.062</ele>
      </trkpt>
      <trkpt lat="37.53847" lon="27.60301">
        <ele>880.163</ele>
      </trkpt>
      <trkpt lat="37.53847" lon="27.60301">
        <ele>880.009</ele>
      </trkpt>
      <trkpt lat="37.53849" lon="27.60298">
        <ele>880.287</ele>
      </trkpt>
      <trkpt lat="37.5385" lon="27.60297">
        <ele>880.366</ele>
      </trkpt>
      <trkpt lat="37.53851" lon="27.60294">
        <ele>880.578</ele>
      </trkpt>
      <trkpt lat="37.53852" lon="27.60289">
        <ele>880.093</ele>
      </trkpt>
      <trkpt lat="37.53851" lon="27.60286">
        <ele>879.631</ele>
      </trkpt>
      <trkpt lat="37.53851" lon="27.60285">
        <ele>879.496</ele>
      </trkpt>
      <trkpt lat="37.53851" lon="27.60281">
        <ele>879.023</ele>
      </trkpt>
      <trkpt lat="37.53852" lon="27.60276">
        <ele>878.807</ele>
      </trkpt>
      <trkpt lat="37.53853" lon="27.60273">
        <ele>878.712</ele>
      </trkpt>
      <trkpt lat="37.53856" lon="27.60269">
        <ele>878.96</ele>
      </trkpt>
      <trkpt lat="37.53855" lon="27.60269">
        <ele>878.632</ele>
      </trkpt>
      <trkpt lat="37.53857" lon="27.60269">
        <ele>879.109</ele>
      </trkpt>
      <trkpt lat="37.53869" lon="27.60266">
        <ele>882.176</ele>
      </trkpt>
      <trkpt lat="37.5387" lon="27.60267">
        <ele>882.401</ele>
      </trkpt>
      <trkpt lat="37.53869" lon="27.60267">
        <ele>882.214</ele>
      </trkpt>
      <trkpt lat="37.53869" lon="27.60267">
        <ele>882.316</ele>
      </trkpt>
      <trkpt lat="37.53869" lon="27.60267">
        <ele>882.327</ele>
      </trkpt>
      <trkpt lat="37.53876" lon="27.60262">
        <ele>883.815</ele>
      </trkpt>
      <trkpt lat="37.53879" lon="27.60256">
        <ele>883.94</ele>
      </trkpt>
      <trkpt lat="37.53881" lon="27.60255">
        <ele>884.339</ele>
      </trkpt>
      <trkpt lat="37.53881" lon="27.60254">
        <ele>884.33</ele>
      </trkpt>
      <trkpt lat="37.53884" lon="27.60252">
        <ele>884.761</ele>
      </trkpt>
      <trkpt lat="37.53887" lon="27.60248">
        <ele>885.258</ele>
      </trkpt>
      <trkpt lat="37.53888" lon="27.60248">
        <ele>885.538</ele>
      </trkpt>
      <trkpt lat="37.53888" lon="27.60247">
        <ele>885.475</ele>
      </trkpt>
      <trkpt lat="37.53889" lon="27.60246">
        <ele>885.859</ele>
      </trkpt>
      <trkpt lat="37.53895" lon="27.60234">
        <ele>888.185</ele>
      </trkpt>
      <trkpt lat="37.53896" lon="27.60232">
        <ele>888.385</ele>
      </trkpt>
      <trkpt lat="37.53897" lon="27.60222">
        <ele>888.69</ele>
      </trkpt>
      <trkpt lat="37.53897" lon="27.6022">
        <ele>888.61</ele>
      </trkpt>
      <trkpt lat="37.53899" lon="27.60216">
        <ele>889.999</ele>
      </trkpt>
      <trkpt lat="37.53898" lon="27.60206">
        <ele>891.019</ele>
      </trkpt>
      <trkpt lat="37.53897" lon="27.60204">
        <ele>890.648</ele>
      </trkpt>
      <trkpt lat="37.53896" lon="27.60202">
        <ele>890.446</ele>
      </trkpt>
      <trkpt lat="37.53895" lon="27.60202">
        <ele>890.103</ele>
      </trkpt>
      <trkpt lat="37.53889" lon="27.60194">
        <ele>888.094</ele>
      </trkpt>
      <trkpt lat="37.53889" lon="27.60194">
        <ele>888.063</ele>
      </trkpt>
      <trkpt lat="37.53886" lon="27.60192">
        <ele>887.946</ele>
      </trkpt>
      <trkpt lat="37.53885" lon="27.60189">
        <ele>888.219</ele>
      </trkpt>
      <trkpt lat="37.53884" lon="27.60187">
        <ele>888.411</ele>
      </trkpt>
      <trkpt lat="37.53884" lon="27.60187">
        <ele>888.46</ele>
      </trkpt>
      <trkpt lat="37.53887" lon="27.60186">
        <ele>889.8</ele>
      </trkpt>
      <trkpt lat="37.5389" lon="27.60185">
        <ele>891.322</ele>
      </trkpt>
      <trkpt lat="37.53891" lon="27.60184">
        <ele>891.801</ele>
      </trkpt>
      <trkpt lat="37.53891" lon="27.60181">
        <ele>892.771</ele>
      </trkpt>
      <trkpt lat="37.53891" lon="27.6018">
        <ele>892.921</ele>
      </trkpt>
      <trkpt lat="37.53888" lon="27.60172">
        <ele>894.408</ele>
      </trkpt>
      <trkpt lat="37.53889" lon="27.60172">
        <ele>894.589</ele>
      </trkpt>
      <trkpt lat="37.53889" lon="27.60168">
        <ele>895.731</ele>
      </trkpt>
      <trkpt lat="37.53888" lon="27.60165">
        <ele>896.008</ele>
      </trkpt>
      <trkpt lat="37.53886" lon="27.60163">
        <ele>895.762</ele>
      </trkpt>
      <trkpt lat="37.53885" lon="27.60164">
        <ele>895.511</ele>
      </trkpt>
      <trkpt lat="37.53881" lon="27.60161">
        <ele>894.928</ele>
      </trkpt>
      <trkpt lat="37.53881" lon="27.60156">
        <ele>895.581</ele>
      </trkpt>
      <trkpt lat="37.53879" lon="27.60155">
        <ele>895.441</ele>
      </trkpt>
      <trkpt lat="37.5388" lon="27.60154">
        <ele>895.783</ele>
      </trkpt>
      <trkpt lat="37.53877" lon="27.6015">
        <ele>895.572</ele>
      </trkpt>
      <trkpt lat="37.53877" lon="27.60149">
        <ele>895.898</ele>
      </trkpt>
      <trkpt lat="37.53877" lon="27.60149">
        <ele>895.827</ele>
      </trkpt>
      <trkpt lat="37.53877" lon="27.60148">
        <ele>896.025</ele>
      </trkpt>
      <trkpt lat="37.53881" lon="27.60146">
        <ele>897.369</ele>
      </trkpt>
      <trkpt lat="37.53883" lon="27.60145">
        <ele>898.243</ele>
      </trkpt>
      <trkpt lat="37.53887" lon="27.60143">
        <ele>899.859</ele>
      </trkpt>
      <trkpt lat="37.53889" lon="27.60142">
        <ele>900.493</ele>
      </trkpt>
      <trkpt lat="37.53893" lon="27.6014">
        <ele>902.34</ele>
      </trkpt>
      <trkpt lat="37.5389" lon="27.60139">
        <ele>901.385</ele>
      </trkpt>
      <trkpt lat="37.53891" lon="27.60138">
        <ele>901.755</ele>
      </trkpt>
      <trkpt lat="37.53889" lon="27.60135">
        <ele>901.475</ele>
      </trkpt>
      <trkpt lat="37.53888" lon="27.60131">
        <ele>901.571</ele>
      </trkpt>
      <trkpt lat="37.53887" lon="27.60129">
        <ele>901.645</ele>
      </trkpt>
      <trkpt lat="37.53887" lon="27.60128">
        <ele>901.707</ele>
      </trkpt>
      <trkpt lat="37.53887" lon="27.60124">
        <ele>901.959</ele>
      </trkpt>
      <trkpt lat="37.53885" lon="27.60123">
        <ele>901.79</ele>
      </trkpt>
      <trkpt lat="37.53881" lon="27.60121">
        <ele>900.761</ele>
      </trkpt>
      <trkpt lat="37.5388" lon="27.60119">
        <ele>900.824</ele>
      </trkpt>
      <trkpt lat="37.53881" lon="27.60118">
        <ele>901.178</ele>
      </trkpt>
      <trkpt lat="37.53881" lon="27.60118">
        <ele>901.194</ele>
      </trkpt>
      <trkpt lat="37.53881" lon="27.60117">
        <ele>901.363</ele>
      </trkpt>
      <trkpt lat="37.53882" lon="27.60115">
        <ele>901.824</ele>
      </trkpt>
      <trkpt lat="37.53883" lon="27.60108">
        <ele>902.991</ele>
      </trkpt>
      <trkpt lat="37.53882" lon="27.60108">
        <ele>902.843</ele>
      </trkpt>
      <trkpt lat="37.53883" lon="27.60106">
        <ele>903.525</ele>
      </trkpt>
      <trkpt lat="37.53882" lon="27.601">
        <ele>904.22</ele>
      </trkpt>
      <trkpt lat="37.53881" lon="27.60095">
        <ele>904.781</ele>
      </trkpt>
      <trkpt lat="37.53878" lon="27.60091">
        <ele>904.771</ele>
      </trkpt>
      <trkpt lat="37.53881" lon="27.60086">
        <ele>906.486</ele>
      </trkpt>
      <trkpt lat="37.53887" lon="27.60085">
        <ele>909.152</ele>
      </trkpt>
      <trkpt lat="37.53889" lon="27.60083">
        <ele>910.386</ele>
      </trkpt>
      <trkpt lat="37.53891" lon="27.60082">
        <ele>911.379</ele>
      </trkpt>
      <trkpt lat="37.5389" lon="27.60079">
        <ele>911.457</ele>
      </trkpt>
      <trkpt lat="37.53892" lon="27.60081">
        <ele>911.952</ele>
      </trkpt>
      <trkpt lat="37.53891" lon="27.60079">
        <ele>911.93</ele>
      </trkpt>
      <trkpt lat="37.53891" lon="27.6007">
        <ele>913.668</ele>
      </trkpt>
      <trkpt lat="37.53891" lon="27.60069">
        <ele>913.896</ele>
      </trkpt>
      <trkpt lat="37.53894" lon="27.60069">
        <ele>914.979</ele>
      </trkpt>
      <trkpt lat="37.53896" lon="27.60069">
        <ele>915.732</ele>
      </trkpt>
      <trkpt lat="37.53897" lon="27.60065">
        <ele>916.928</ele>
      </trkpt>
      <trkpt lat="37.53897" lon="27.60063">
        <ele>917.319</ele>
      </trkpt>
      <trkpt lat="37.53897" lon="27.60062">
        <ele>917.541</ele>
      </trkpt>
      <trkpt lat="37.53896" lon="27.60054">
        <ele>919.043</ele>
      </trkpt>
      <trkpt lat="37.53897" lon="27.60053">
        <ele>919.177</ele>
      </trkpt>
      <trkpt lat="37.53897" lon="27.60054">
        <ele>919.336</ele>
      </trkpt>
      <trkpt lat="37.53903" lon="27.60059">
        <ele>920.427</ele>
      </trkpt>
      <trkpt lat="37.53905" lon="27.60058">
        <ele>921.221</ele>
      </trkpt>
      <trkpt lat="37.53903" lon="27.60049">
        <ele>922.018</ele>
      </trkpt>
      <trkpt lat="37.53903" lon="27.60049">
        <ele>922.074</ele>
      </trkpt>
      <trkpt lat="37.53903" lon="27.60047">
        <ele>922.252</ele>
      </trkpt>
      <trkpt lat="37.53904" lon="27.60047">
        <ele>922.629</ele>
      </trkpt>
      <trkpt lat="37.53903" lon="27.60045">
        <ele>922.569</ele>
      </trkpt>
      <trkpt lat="37.53902" lon="27.60044">
        <ele>922.429</ele>
      </trkpt>
      <trkpt lat="37.53903" lon="27.60039">
        <ele>923.585</ele>
      </trkpt>
      <trkpt lat="37.53905" lon="27.60037">
        <ele>924.281</ele>
      </trkpt>
      <trkpt lat="37.53905" lon="27.60036">
        <ele>924.284</ele>
      </trkpt>
      <trkpt lat="37.53905" lon="27.60034">
        <ele>924.659</ele>
      </trkpt>
      <trkpt lat="37.53905" lon="27.60032">
        <ele>924.933</ele>
      </trkpt>
      <trkpt lat="37.53905" lon="27.60031">
        <ele>925.071</ele>
      </trkpt>
      <trkpt lat="37.53903" lon="27.60029">
        <ele>924.835</ele>
      </trkpt>
      <trkpt lat="37.53903" lon="27.60027">
        <ele>925.226</ele>
      </trkpt>
      <trkpt lat="37.53904" lon="27.60023">
        <ele>925.484</ele>
      </trkpt>
      <trkpt lat="37.53906" lon="27.60023">
        <ele>926.074</ele>
      </trkpt>
      <trkpt lat="37.53907" lon="27.60015">
        <ele>926.797</ele>
      </trkpt>
      <trkpt lat="37.53906" lon="27.60015">
        <ele>926.563</ele>
      </trkpt>
      <trkpt lat="37.53906" lon="27.60011">
        <ele>926.685</ele>
      </trkpt>
      <trkpt lat="37.53904" lon="27.60009">
        <ele>926.57</ele>
      </trkpt>
      <trkpt lat="37.53899" lon="27.60009">
        <ele>925.657</ele>
      </trkpt>
      <trkpt lat="37.53899" lon="27.60007">
        <ele>925.939</ele>
      </trkpt>
      <trkpt lat="37.53903" lon="27.60004">
        <ele>926.706</ele>
      </trkpt>
      <trkpt lat="37.53902" lon="27.59996">
        <ele>927.065</ele>
      </trkpt>
      <trkpt lat="37.53901" lon="27.59992">
        <ele>927.102</ele>
      </trkpt>
      <trkpt lat="37.53901" lon="27.59989">
        <ele>927.154</ele>
      </trkpt>
      <trkpt lat="37.53902" lon="27.59987">
        <ele>927.403</ele>
      </trkpt>
      <trkpt lat="37.53905" lon="27.59984">
        <ele>927.843</ele>
      </trkpt>
      <trkpt lat="37.53905" lon="27.59979">
        <ele>927.961</ele>
      </trkpt>
      <trkpt lat="37.53905" lon="27.5998">
        <ele>927.946</ele>
      </trkpt>
      <trkpt lat="37.53906" lon="27.59979">
        <ele>928.015</ele>
      </trkpt>
      <trkpt lat="37.53906" lon="27.59973">
        <ele>928.177</ele>
      </trkpt>
      <trkpt lat="37.53907" lon="27.59973">
        <ele>928.255</ele>
      </trkpt>
      <trkpt lat="37.53906" lon="27.59973">
        <ele>928.183</ele>
      </trkpt>
      <trkpt lat="37.53906" lon="27.59973">
        <ele>928.234</ele>
      </trkpt>
      <trkpt lat="37.53907" lon="27.59969">
        <ele>928.274</ele>
      </trkpt>
      <trkpt lat="37.53907" lon="27.59968">
        <ele>928.273</ele>
      </trkpt>
      <trkpt lat="37.53909" lon="27.59964">
        <ele>928.303</ele>
      </trkpt>
      <trkpt lat="37.5391" lon="27.59965">
        <ele>928.376</ele>
      </trkpt>
      <trkpt lat="37.5391" lon="27.59964">
        <ele>928.364</ele>
      </trkpt>
      <trkpt lat="37.53911" lon="27.59965">
        <ele>928.405</ele>
      </trkpt>
      <trkpt lat="37.53914" lon="27.5996">
        <ele>928.429</ele>
      </trkpt>
      <trkpt lat="37.53918" lon="27.59956">
        <ele>928.5</ele>
      </trkpt>
      <trkpt lat="37.53919" lon="27.59951">
        <ele>928.447</ele>
      </trkpt>
      <trkpt lat="37.53922" lon="27.59946">
        <ele>928.461</ele>
      </trkpt>
      <trkpt lat="37.53922" lon="27.59947">
        <ele>928.513</ele>
      </trkpt>
      <trkpt lat="37.53922" lon="27.59947">
        <ele>928.489</ele>
      </trkpt>
      <trkpt lat="37.53922" lon="27.59942">
        <ele>928.121</ele>
      </trkpt>
      <trkpt lat="37.53924" lon="27.59929">
        <ele>926.644</ele>
      </trkpt>
      <trkpt lat="37.53925" lon="27.59928">
        <ele>926.591</ele>
      </trkpt>
      <trkpt lat="37.53924" lon="27.59926">
        <ele>926.395</ele>
      </trkpt>
      <trkpt lat="37.53923" lon="27.59922">
        <ele>925.867</ele>
      </trkpt>
      <trkpt lat="37.53922" lon="27.59921">
        <ele>925.647</ele>
      </trkpt>
      <trkpt lat="37.53921" lon="27.59915">
        <ele>924.901</ele>
      </trkpt>
      <trkpt lat="37.53921" lon="27.59914">
        <ele>924.689</ele>
      </trkpt>
      <trkpt lat="37.53922" lon="27.59905">
        <ele>923.249</ele>
      </trkpt>
      <trkpt lat="37.53923" lon="27.59903">
        <ele>922.916</ele>
      </trkpt>
      <trkpt lat="37.53923" lon="27.59903">
        <ele>922.986</ele>
      </trkpt>
      <trkpt lat="37.53922" lon="27.59894">
        <ele>921.419</ele>
      </trkpt>
      <trkpt lat="37.53922" lon="27.59891">
        <ele>920.955</ele>
      </trkpt>
      <trkpt lat="37.53922" lon="27.59887">
        <ele>920.236</ele>
      </trkpt>
      <trkpt lat="37.53924" lon="27.59885">
        <ele>919.697</ele>
      </trkpt>
      <trkpt lat="37.53926" lon="27.59879">
        <ele>918.297</ele>
      </trkpt>
      <trkpt lat="37.53925" lon="27.59879">
        <ele>918.213</ele>
      </trkpt>
      <trkpt lat="37.53926" lon="27.59878">
        <ele>917.977</ele>
      </trkpt>
      <trkpt lat="37.53922" lon="27.59875">
        <ele>917.772</ele>
      </trkpt>
      <trkpt lat="37.53922" lon="27.59875">
        <ele>917.871</ele>
      </trkpt>
      <trkpt lat="37.53918" lon="27.59869">
        <ele>917.16</ele>
      </trkpt>
      <trkpt lat="37.53918" lon="27.59867">
        <ele>916.904</ele>
      </trkpt>
      <trkpt lat="37.53918" lon="27.59864">
        <ele>916.392</ele>
      </trkpt>
      <trkpt lat="37.53918" lon="27.59859">
        <ele>915.386</ele>
      </trkpt>
      <trkpt lat="37.5392" lon="27.59859">
        <ele>914.952</ele>
      </trkpt>
      <trkpt lat="37.53929" lon="27.59861">
        <ele>913.826</ele>
      </trkpt>
      <trkpt lat="37.53928" lon="27.59859">
        <ele>913.514</ele>
      </trkpt>
      <trkpt lat="37.53929" lon="27.59855">
        <ele>912.384</ele>
      </trkpt>
      <trkpt lat="37.53928" lon="27.59853">
        <ele>912.039</ele>
      </trkpt>
      <trkpt lat="37.53936" lon="27.59847">
        <ele>909.055</ele>
      </trkpt>
      <trkpt lat="37.53938" lon="27.59845">
        <ele>907.858</ele>
      </trkpt>
      <trkpt lat="37.53943" lon="27.59842">
        <ele>906.016</ele>
      </trkpt>
      <trkpt lat="37.53945" lon="27.5984">
        <ele>904.776</ele>
      </trkpt>
      <trkpt lat="37.53946" lon="27.59839">
        <ele>904.691</ele>
      </trkpt>
      <trkpt lat="37.53947" lon="27.59837">
        <ele>903.883</ele>
      </trkpt>
      <trkpt lat="37.53948" lon="27.59837">
        <ele>903.808</ele>
      </trkpt>
      <trkpt lat="37.53951" lon="27.59831">
        <ele>902.277</ele>
      </trkpt>
      <trkpt lat="37.5395" lon="27.59827">
        <ele>901.746</ele>
      </trkpt>
      <trkpt lat="37.53951" lon="27.59828">
        <ele>901.784</ele>
      </trkpt>
      <trkpt lat="37.53953" lon="27.59824">
        <ele>901.038</ele>
      </trkpt>
      <trkpt lat="37.53955" lon="27.59822">
        <ele>900.589</ele>
      </trkpt>
      <trkpt lat="37.53959" lon="27.59819">
        <ele>899.579</ele>
      </trkpt>
      <trkpt lat="37.53959" lon="27.59819">
        <ele>899.458</ele>
      </trkpt>
      <trkpt lat="37.5396" lon="27.59815">
        <ele>898.592</ele>
      </trkpt>
      <trkpt lat="37.53959" lon="27.59812">
        <ele>898.231</ele>
      </trkpt>
      <trkpt lat="37.5396" lon="27.59814">
        <ele>898.46</ele>
      </trkpt>
      <trkpt lat="37.53957" lon="27.59806">
        <ele>897.325</ele>
      </trkpt>
      <trkpt lat="37.53956" lon="27.59802">
        <ele>896.892</ele>
      </trkpt>
      <trkpt lat="37.53959" lon="27.598">
        <ele>896.208</ele>
      </trkpt>
      <trkpt lat="37.53958" lon="27.59797">
        <ele>895.968</ele>
      </trkpt>
      <trkpt lat="37.53958" lon="27.59799">
        <ele>896.203</ele>
      </trkpt>
      <trkpt lat="37.53959" lon="27.59799">
        <ele>896.115</ele>
      </trkpt>
      <trkpt lat="37.53959" lon="27.59798">
        <ele>895.925</ele>
      </trkpt>
      <trkpt lat="37.53957" lon="27.59783">
        <ele>894.412</ele>
      </trkpt>
      <trkpt lat="37.5396" lon="27.59783">
        <ele>893.895</ele>
      </trkpt>
      <trkpt lat="37.53958" lon="27.59776">
        <ele>893.322</ele>
      </trkpt>
      <trkpt lat="37.53957" lon="27.59774">
        <ele>893.113</ele>
      </trkpt>
      <trkpt lat="37.53955" lon="27.59773">
        <ele>893.682</ele>
      </trkpt>
      <trkpt lat="37.53952" lon="27.59763">
        <ele>893.015</ele>
      </trkpt>
      <trkpt lat="37.53954" lon="27.59761">
        <ele>892.254</ele>
      </trkpt>
      <trkpt lat="37.53953" lon="27.59755">
        <ele>891.522</ele>
      </trkpt>
      <trkpt lat="37.53953" lon="27.59748">
        <ele>890.679</ele>
      </trkpt>
      <trkpt lat="37.53954" lon="27.5974">
        <ele>889.439</ele>
      </trkpt>
      <trkpt lat="37.53958" lon="27.59732">
        <ele>887.208</ele>
      </trkpt>
      <trkpt lat="37.53959" lon="27.59731">
        <ele>886.671</ele>
      </trkpt>
      <trkpt lat="37.5396" lon="27.59726">
        <ele>885.708</ele>
      </trkpt>
      <trkpt lat="37.5396" lon="27.59721">
        <ele>885.506</ele>
      </trkpt>
      <trkpt lat="37.5396" lon="27.59719">
        <ele>885.286</ele>
      </trkpt>
      <trkpt lat="37.53965" lon="27.59715">
        <ele>882.543</ele>
      </trkpt>
      <trkpt lat="37.53966" lon="27.59714">
        <ele>882.18</ele>
      </trkpt>
      <trkpt lat="37.53965" lon="27.59708">
        <ele>881.803</ele>
      </trkpt>
      <trkpt lat="37.53963" lon="27.59706">
        <ele>882.498</ele>
      </trkpt>
      <trkpt lat="37.53963" lon="27.59697">
        <ele>881.474</ele>
      </trkpt>
      <trkpt lat="37.53963" lon="27.59695">
        <ele>881.224</ele>
      </trkpt>
      <trkpt lat="37.53965" lon="27.59691">
        <ele>879.473</ele>
      </trkpt>
      <trkpt lat="37.53965" lon="27.59679">
        <ele>878.158</ele>
      </trkpt>
      <trkpt lat="37.53966" lon="27.59679">
        <ele>877.268</ele>
      </trkpt>
      <trkpt lat="37.53967" lon="27.59676">
        <ele>876.095</ele>
      </trkpt>
      <trkpt lat="37.53971" lon="27.59666">
        <ele>872.892</ele>
      </trkpt>
      <trkpt lat="37.53975" lon="27.59662">
        <ele>869.396</ele>
      </trkpt>
      <trkpt lat="37.53976" lon="27.59663">
        <ele>869.12</ele>
      </trkpt>
      <trkpt lat="37.53975" lon="27.59667">
        <ele>870.146</ele>
      </trkpt>
      <trkpt lat="37.53979" lon="27.59668">
        <ele>868.122</ele>
      </trkpt>
      <trkpt lat="37.53986" lon="27.5967">
        <ele>864.261</ele>
      </trkpt>
      <trkpt lat="37.53988" lon="27.5967">
        <ele>862.854</ele>
      </trkpt>
      <trkpt lat="37.53991" lon="27.5967">
        <ele>861.442</ele>
      </trkpt>
      <trkpt lat="37.53991" lon="27.59671">
        <ele>861.411</ele>
      </trkpt>
      <trkpt lat="37.53994" lon="27.59672">
        <ele>859.943</ele>
      </trkpt>
      <trkpt lat="37.53994" lon="27.59671">
        <ele>859.674</ele>
      </trkpt>
      <trkpt lat="37.53995" lon="27.59665">
        <ele>857.385</ele>
      </trkpt>
      <trkpt lat="37.53993" lon="27.59656">
        <ele>857.235</ele>
      </trkpt>
      <trkpt lat="37.53991" lon="27.59649">
        <ele>857.051</ele>
      </trkpt>
      <trkpt lat="37.53994" lon="27.59642">
        <ele>854.083</ele>
      </trkpt>
      <trkpt lat="37.53996" lon="27.59631">
        <ele>850.578</ele>
      </trkpt>
      <trkpt lat="37.53996" lon="27.59624">
        <ele>848.92</ele>
      </trkpt>
      <trkpt lat="37.53997" lon="27.5962">
        <ele>847.641</ele>
      </trkpt>
      <trkpt lat="37.53999" lon="27.59627">
        <ele>848.188</ele>
      </trkpt>
      <trkpt lat="37.53999" lon="27.5963">
        <ele>848.812</ele>
      </trkpt>
      <trkpt lat="37.54005" lon="27.59637">
        <ele>846.867</ele>
      </trkpt>
      <trkpt lat="37.54012" lon="27.59639">
        <ele>843.912</ele>
      </trkpt>
      <trkpt lat="37.54017" lon="27.59644">
        <ele>842.416</ele>
      </trkpt>
      <trkpt lat="37.54016" lon="27.59632">
        <ele>840.48</ele>
      </trkpt>
      <trkpt lat="37.54015" lon="27.59625">
        <ele>839.031</ele>
      </trkpt>
      <trkpt lat="37.54017" lon="27.59616">
        <ele>835.686</ele>
      </trkpt>
      <trkpt lat="37.54018" lon="27.59613">
        <ele>834.495</ele>
      </trkpt>
      <trkpt lat="37.54021" lon="27.59611">
        <ele>832.753</ele>
      </trkpt>
      <trkpt lat="37.54021" lon="27.59606">
        <ele>831.934</ele>
      </trkpt>
      <trkpt lat="37.54019" lon="27.59603">
        <ele>832.622</ele>
      </trkpt>
      <trkpt lat="37.54019" lon="27.59603">
        <ele>833.099</ele>
      </trkpt>
      <trkpt lat="37.54022" lon="27.59585">
        <ele>829.284</ele>
      </trkpt>
      <trkpt lat="37.54023" lon="27.59569">
        <ele>826.537</ele>
      </trkpt>
      <trkpt lat="37.54022" lon="27.59553">
        <ele>824.157</ele>
      </trkpt>
      <trkpt lat="37.54022" lon="27.59538">
        <ele>822.329</ele>
      </trkpt>
      <trkpt lat="37.54021" lon="27.59528">
        <ele>821.697</ele>
      </trkpt>
      <trkpt lat="37.54022" lon="27.59525">
        <ele>820.295</ele>
      </trkpt>
      <trkpt lat="37.54021" lon="27.59519">
        <ele>819.823</ele>
      </trkpt>
      <trkpt lat="37.54021" lon="27.59521">
        <ele>820.712</ele>
      </trkpt>
      <trkpt lat="37.54016" lon="27.59509">
        <ele>821.223</ele>
      </trkpt>
      <trkpt lat="37.54019" lon="27.59505">
        <ele>818.596</ele>
      </trkpt>
      <trkpt lat="37.5402" lon="27.59504">
        <ele>817.676</ele>
      </trkpt>
      <trkpt lat="37.54023" lon="27.59495">
        <ele>814.242</ele>
      </trkpt>
      <trkpt lat="37.54026" lon="27.59488">
        <ele>811.753</ele>
      </trkpt>
      <trkpt lat="37.54028" lon="27.59483">
        <ele>810.208</ele>
      </trkpt>
      <trkpt lat="37.54029" lon="27.5948">
        <ele>809.271</ele>
      </trkpt>
      <trkpt lat="37.54032" lon="27.59476">
        <ele>807.776</ele>
      </trkpt>
      <trkpt lat="37.54031" lon="27.59475">
        <ele>807.718</ele>
      </trkpt>
      <trkpt lat="37.54039" lon="27.59465">
        <ele>804.101</ele>
      </trkpt>
      <trkpt lat="37.5404" lon="27.59463">
        <ele>803.293</ele>
      </trkpt>
      <trkpt lat="37.54041" lon="27.59462">
        <ele>803.077</ele>
      </trkpt>
      <trkpt lat="37.54045" lon="27.59456">
        <ele>801.161</ele>
      </trkpt>
      <trkpt lat="37.54045" lon="27.59455">
        <ele>800.745</ele>
      </trkpt>
      <trkpt lat="37.54048" lon="27.59446">
        <ele>799.367</ele>
      </trkpt>
      <trkpt lat="37.54047" lon="27.59444">
        <ele>799.49</ele>
      </trkpt>
      <trkpt lat="37.54052" lon="27.59442">
        <ele>797.461</ele>
      </trkpt>
      <trkpt lat="37.54053" lon="27.59441">
        <ele>797.099</ele>
      </trkpt>
      <trkpt lat="37.54057" lon="27.59437">
        <ele>794.996</ele>
      </trkpt>
      <trkpt lat="37.54055" lon="27.59435">
        <ele>795.674</ele>
      </trkpt>
      <trkpt lat="37.54056" lon="27.59433">
        <ele>794.83</ele>
      </trkpt>
      <trkpt lat="37.54058" lon="27.59431">
        <ele>793.978</ele>
      </trkpt>
      <trkpt lat="37.54059" lon="27.59418">
        <ele>792.702</ele>
      </trkpt>
      <trkpt lat="37.54058" lon="27.59403">
        <ele>792.688</ele>
      </trkpt>
      <trkpt lat="37.54056" lon="27.59403">
        <ele>793.31</ele>
      </trkpt>
      <trkpt lat="37.54057" lon="27.59401">
        <ele>792.672</ele>
      </trkpt>
      <trkpt lat="37.5406" lon="27.59398">
        <ele>791.516</ele>
      </trkpt>
      <trkpt lat="37.54062" lon="27.59393">
        <ele>790.757</ele>
      </trkpt>
      <trkpt lat="37.54062" lon="27.59394">
        <ele>790.547</ele>
      </trkpt>
      <trkpt lat="37.54062" lon="27.59392">
        <ele>790.351</ele>
      </trkpt>
      <trkpt lat="37.54065" lon="27.59391">
        <ele>789.295</ele>
      </trkpt>
      <trkpt lat="37.54067" lon="27.59391">
        <ele>788.685</ele>
      </trkpt>
      <trkpt lat="37.54069" lon="27.59389">
        <ele>787.692</ele>
      </trkpt>
      <trkpt lat="37.54075" lon="27.59386">
        <ele>785.28</ele>
      </trkpt>
      <trkpt lat="37.54077" lon="27.59385">
        <ele>784.221</ele>
      </trkpt>
      <trkpt lat="37.54084" lon="27.59384">
        <ele>781.076</ele>
      </trkpt>
      <trkpt lat="37.54085" lon="27.59383">
        <ele>780.918</ele>
      </trkpt>
      <trkpt lat="37.54085" lon="27.59383">
        <ele>780.815</ele>
      </trkpt>
      <trkpt lat="37.54081" lon="27.59378">
        <ele>782.336</ele>
      </trkpt>
      <trkpt lat="37.54081" lon="27.59376">
        <ele>782.012</ele>
      </trkpt>
      <trkpt lat="37.54084" lon="27.59372">
        <ele>780.336</ele>
      </trkpt>
      <trkpt lat="37.54088" lon="27.59369">
        <ele>778.387</ele>
      </trkpt>
      <trkpt lat="37.54091" lon="27.59365">
        <ele>776.603</ele>
      </trkpt>
      <trkpt lat="37.54094" lon="27.59366">
        <ele>775.234</ele>
      </trkpt>
      <trkpt lat="37.54098" lon="27.59364">
        <ele>773.256</ele>
      </trkpt>
      <trkpt lat="37.54099" lon="27.59362">
        <ele>772.84</ele>
      </trkpt>
      <trkpt lat="37.54102" lon="27.59356">
        <ele>770.475</ele>
      </trkpt>
      <trkpt lat="37.54107" lon="27.59354">
        <ele>768.305</ele>
      </trkpt>
      <trkpt lat="37.54109" lon="27.59355">
        <ele>767.096</ele>
      </trkpt>
      <trkpt lat="37.54109" lon="27.59355">
        <ele>767.18</ele>
      </trkpt>
      <trkpt lat="37.54111" lon="27.59354">
        <ele>766.448</ele>
      </trkpt>
      <trkpt lat="37.54111" lon="27.59349">
        <ele>765.892</ele>
      </trkpt>
      <trkpt lat="37.54112" lon="27.59344">
        <ele>764.965</ele>
      </trkpt>
      <trkpt lat="37.54113" lon="27.5934">
        <ele>764.211</ele>
      </trkpt>
      <trkpt lat="37.54111" lon="27.59337">
        <ele>764.402</ele>
      </trkpt>
      <trkpt lat="37.5411" lon="27.59335">
        <ele>764.523</ele>
      </trkpt>
      <trkpt lat="37.54109" lon="27.59333">
        <ele>764.848</ele>
      </trkpt>
      <trkpt lat="37.5411" lon="27.59328">
        <ele>763.922</ele>
      </trkpt>
      <trkpt lat="37.54109" lon="27.5933">
        <ele>764.321</ele>
      </trkpt>
      <trkpt lat="37.54108" lon="27.59325">
        <ele>764.347</ele>
      </trkpt>
      <trkpt lat="37.54107" lon="27.59323">
        <ele>764.395</ele>
      </trkpt>
      <trkpt lat="37.54104" lon="27.5932">
        <ele>764.916</ele>
      </trkpt>
      <trkpt lat="37.54099" lon="27.59313">
        <ele>765.937</ele>
      </trkpt>
      <trkpt lat="37.541" lon="27.59311">
        <ele>765.153</ele>
      </trkpt>
      <trkpt lat="37.54096" lon="27.593">
        <ele>764.662</ele>
      </trkpt>
      <trkpt lat="37.54094" lon="27.59298">
        <ele>764.884</ele>
      </trkpt>
      <trkpt lat="37.5409" lon="27.59292">
        <ele>764.571</ele>
      </trkpt>
      <trkpt lat="37.54093" lon="27.59291">
        <ele>763.236</ele>
      </trkpt>
      <trkpt lat="37.54091" lon="27.59285">
        <ele>762.383</ele>
      </trkpt>
      <trkpt lat="37.54085" lon="27.59279">
        <ele>762.652</ele>
      </trkpt>
      <trkpt lat="37.54084" lon="27.59274">
        <ele>761.761</ele>
      </trkpt>
      <trkpt lat="37.54081" lon="27.59269">
        <ele>761.763</ele>
      </trkpt>
      <trkpt lat="37.54081" lon="27.59269">
        <ele>761.956</ele>
      </trkpt>
      <trkpt lat="37.54081" lon="27.59273">
        <ele>762.837</ele>
      </trkpt>
      <trkpt lat="37.54081" lon="27.59273">
        <ele>762.627</ele>
      </trkpt>
      <trkpt lat="37.54082" lon="27.59269">
        <ele>761.47</ele>
      </trkpt>
      <trkpt lat="37.5408" lon="27.59266">
        <ele>761.969</ele>
      </trkpt>
      <trkpt lat="37.54075" lon="27.59256">
        <ele>761.848</ele>
      </trkpt>
      <trkpt lat="37.54075" lon="27.59255">
        <ele>761.488</ele>
      </trkpt>
      <trkpt lat="37.54074" lon="27.59254">
        <ele>761.767</ele>
      </trkpt>
      <trkpt lat="37.54071" lon="27.59251">
        <ele>762.465</ele>
      </trkpt>
      <trkpt lat="37.54071" lon="27.59251">
        <ele>762.349</ele>
      </trkpt>
      <trkpt lat="37.54071" lon="27.5925">
        <ele>762.127</ele>
      </trkpt>
      <trkpt lat="37.5407" lon="27.59249">
        <ele>762.361</ele>
      </trkpt>
      <trkpt lat="37.5407" lon="27.59246">
        <ele>761.807</ele>
      </trkpt>
      <trkpt lat="37.54073" lon="27.59247">
        <ele>760.855</ele>
      </trkpt>
      <trkpt lat="37.54073" lon="27.59247">
        <ele>760.635</ele>
      </trkpt>
      <trkpt lat="37.54068" lon="27.59242">
        <ele>761.903</ele>
      </trkpt>
      <trkpt lat="37.54063" lon="27.59232">
        <ele>762.328</ele>
      </trkpt>
      <trkpt lat="37.54063" lon="27.59232">
        <ele>762.353</ele>
      </trkpt>
      <trkpt lat="37.54061" lon="27.59231">
        <ele>762.629</ele>
      </trkpt>
      <trkpt lat="37.54062" lon="27.59231">
        <ele>762.56</ele>
      </trkpt>
      <trkpt lat="37.54062" lon="27.5923">
        <ele>762.397</ele>
      </trkpt>
      <trkpt lat="37.54059" lon="27.59227">
        <ele>762.739</ele>
      </trkpt>
      <trkpt lat="37.5406" lon="27.59224">
        <ele>761.534</ele>
      </trkpt>
      <trkpt lat="37.5406" lon="27.59221">
        <ele>760.99</ele>
      </trkpt>
      <trkpt lat="37.54061" lon="27.59222">
        <ele>760.85</ele>
      </trkpt>
      <trkpt lat="37.54058" lon="27.59218">
        <ele>761.106</ele>
      </trkpt>
      <trkpt lat="37.54053" lon="27.59215">
        <ele>762.693</ele>
      </trkpt>
      <trkpt lat="37.54051" lon="27.59214">
        <ele>763.658</ele>
      </trkpt>
      <trkpt lat="37.54051" lon="27.59215">
        <ele>763.759</ele>
      </trkpt>
      <trkpt lat="37.54048" lon="27.59214">
        <ele>765.492</ele>
      </trkpt>
      <trkpt lat="37.54045" lon="27.59214">
        <ele>766.953</ele>
      </trkpt>
      <trkpt lat="37.54043" lon="27.59214">
        <ele>767.83</ele>
      </trkpt>
      <trkpt lat="37.54042" lon="27.59212">
        <ele>767.954</ele>
      </trkpt>
      <trkpt lat="37.54042" lon="27.59212">
        <ele>767.915</ele>
      </trkpt>
      <trkpt lat="37.54038" lon="27.59204">
        <ele>767.823</ele>
      </trkpt>
      <trkpt lat="37.54038" lon="27.59202">
        <ele>767.285</ele>
      </trkpt>
      <trkpt lat="37.5404" lon="27.59198">
        <ele>765.455</ele>
      </trkpt>
      <trkpt lat="37.54041" lon="27.59195">
        <ele>764.189</ele>
      </trkpt>
      <trkpt lat="37.54041" lon="27.59194">
        <ele>763.839</ele>
      </trkpt>
      <trkpt lat="37.54037" lon="27.59183">
        <ele>763.99</ele>
      </trkpt>
      <trkpt lat="37.54037" lon="27.59182">
        <ele>763.769</ele>
      </trkpt>
      <trkpt lat="37.54035" lon="27.59174">
        <ele>763.051</ele>
      </trkpt>
      <trkpt lat="37.54035" lon="27.59174">
        <ele>763.17</ele>
      </trkpt>
      <trkpt lat="37.54037" lon="27.59171">
        <ele>761.579</ele>
      </trkpt>
      <trkpt lat="37.54039" lon="27.59169">
        <ele>760.484</ele>
      </trkpt>
      <trkpt lat="37.54042" lon="27.59166">
        <ele>758.94</ele>
      </trkpt>
      <trkpt lat="37.54046" lon="27.59158">
        <ele>755.939</ele>
      </trkpt>
      <trkpt lat="37.54047" lon="27.59152">
        <ele>754.816</ele>
      </trkpt>
      <trkpt lat="37.54048" lon="27.59152">
        <ele>754.333</ele>
      </trkpt>
      <trkpt lat="37.5404" lon="27.59144">
        <ele>755.764</ele>
      </trkpt>
      <trkpt lat="37.5404" lon="27.59142">
        <ele>755.611</ele>
      </trkpt>
      <trkpt lat="37.54041" lon="27.59151">
        <ele>756.512</ele>
      </trkpt>
      <trkpt lat="37.54042" lon="27.59152">
        <ele>756.445</ele>
      </trkpt>
      <trkpt lat="37.54045" lon="27.5915">
        <ele>754.868</ele>
      </trkpt>
      <trkpt lat="37.54042" lon="27.59147">
        <ele>755.758</ele>
      </trkpt>
      <trkpt lat="37.54039" lon="27.59142">
        <ele>756.059</ele>
      </trkpt>
      <trkpt lat="37.54035" lon="27.59128">
        <ele>755.08</ele>
      </trkpt>
      <trkpt lat="37.54036" lon="27.59127">
        <ele>754.739</ele>
      </trkpt>
      <trkpt lat="37.54039" lon="27.59125">
        <ele>753.731</ele>
      </trkpt>
      <trkpt lat="37.54039" lon="27.59125">
        <ele>753.665</ele>
      </trkpt>
      <trkpt lat="37.54037" lon="27.59116">
        <ele>752.946</ele>
      </trkpt>
      <trkpt lat="37.54038" lon="27.59115">
        <ele>752.577</ele>
      </trkpt>
      <trkpt lat="37.54039" lon="27.59114">
        <ele>751.999</ele>
      </trkpt>
      <trkpt lat="37.54039" lon="27.59113">
        <ele>751.892</ele>
      </trkpt>
      <trkpt lat="37.54044" lon="27.59109">
        <ele>750.202</ele>
      </trkpt>
      <trkpt lat="37.5405" lon="27.59105">
        <ele>748.293</ele>
      </trkpt>
      <trkpt lat="37.54052" lon="27.59105">
        <ele>747.611</ele>
      </trkpt>
      <trkpt lat="37.54053" lon="27.59103">
        <ele>747.428</ele>
      </trkpt>
      <trkpt lat="37.54054" lon="27.59097">
        <ele>746.801</ele>
      </trkpt>
      <trkpt lat="37.54056" lon="27.59096">
        <ele>746.371</ele>
      </trkpt>
      <trkpt lat="37.54058" lon="27.59095">
        <ele>745.932</ele>
      </trkpt>
      <trkpt lat="37.54059" lon="27.59096">
        <ele>745.712</ele>
      </trkpt>
      <trkpt lat="37.54059" lon="27.59095">
        <ele>745.7</ele>
      </trkpt>
      <trkpt lat="37.54061" lon="27.59096">
        <ele>745.324</ele>
      </trkpt>
      <trkpt lat="37.54061" lon="27.59096">
        <ele>745.364</ele>
      </trkpt>
      <trkpt lat="37.5406" lon="27.59088">
        <ele>745.125</ele>
      </trkpt>
      <trkpt lat="37.54061" lon="27.59087">
        <ele>744.96</ele>
      </trkpt>
      <trkpt lat="37.54061" lon="27.59087">
        <ele>744.928</ele>
      </trkpt>
      <trkpt lat="37.54062" lon="27.59083">
        <ele>744.543</ele>
      </trkpt>
      <trkpt lat="37.54063" lon="27.59073">
        <ele>743.237</ele>
      </trkpt>
      <trkpt lat="37.54064" lon="27.59073">
        <ele>743.1</ele>
      </trkpt>
      <trkpt lat="37.54063" lon="27.59073">
        <ele>743.176</ele>
      </trkpt>
      <trkpt lat="37.54064" lon="27.59072">
        <ele>742.978</ele>
      </trkpt>
      <trkpt lat="37.54063" lon="27.59071">
        <ele>742.986</ele>
      </trkpt>
      <trkpt lat="37.54064" lon="27.59065">
        <ele>742.302</ele>
      </trkpt>
      <trkpt lat="37.54062" lon="27.59063">
        <ele>742.482</ele>
      </trkpt>
      <trkpt lat="37.5406" lon="27.5906">
        <ele>742.495</ele>
      </trkpt>
      <trkpt lat="37.54058" lon="27.5906">
        <ele>742.812</ele>
      </trkpt>
      <trkpt lat="37.54056" lon="27.59059">
        <ele>743.314</ele>
      </trkpt>
      <trkpt lat="37.54056" lon="27.59059">
        <ele>743.324</ele>
      </trkpt>
      <trkpt lat="37.54053" lon="27.59054">
        <ele>743.203</ele>
      </trkpt>
      <trkpt lat="37.54053" lon="27.59052">
        <ele>742.986</ele>
      </trkpt>
      <trkpt lat="37.54054" lon="27.59047">
        <ele>742.232</ele>
      </trkpt>
      <trkpt lat="37.54055" lon="27.59046">
        <ele>742.066</ele>
      </trkpt>
      <trkpt lat="37.54053" lon="27.59044">
        <ele>741.977</ele>
      </trkpt>
      <trkpt lat="37.54053" lon="27.59043">
        <ele>741.939</ele>
      </trkpt>
      <trkpt lat="37.54053" lon="27.59043">
        <ele>741.941</ele>
      </trkpt>
      <trkpt lat="37.54053" lon="27.5904">
        <ele>741.611</ele>
      </trkpt>
      <trkpt lat="37.54058" lon="27.59037">
        <ele>740.524</ele>
      </trkpt>
      <trkpt lat="37.54057" lon="27.59036">
        <ele>740.521</ele>
      </trkpt>
      <trkpt lat="37.54059" lon="27.59034">
        <ele>739.922</ele>
      </trkpt>
      <trkpt lat="37.54059" lon="27.59031">
        <ele>739.615</ele>
      </trkpt>
      <trkpt lat="37.54058" lon="27.59032">
        <ele>739.929</ele>
      </trkpt>
      <trkpt lat="37.54059" lon="27.59029">
        <ele>739.457</ele>
      </trkpt>
      <trkpt lat="37.5406" lon="27.59022">
        <ele>738.247</ele>
      </trkpt>
      <trkpt lat="37.54065" lon="27.59023">
        <ele>737.341</ele>
      </trkpt>
      <trkpt lat="37.54072" lon="27.59024">
        <ele>735.977</ele>
      </trkpt>
      <trkpt lat="37.54075" lon="27.5902">
        <ele>734.99</ele>
      </trkpt>
      <trkpt lat="37.54078" lon="27.59019">
        <ele>734.072</ele>
      </trkpt>
      <trkpt lat="37.54082" lon="27.59017">
        <ele>733.167</ele>
      </trkpt>
      <trkpt lat="37.54088" lon="27.5902">
        <ele>731.982</ele>
      </trkpt>
      <trkpt lat="37.54089" lon="27.59022">
        <ele>731.913</ele>
      </trkpt>
      <trkpt lat="37.54093" lon="27.59023">
        <ele>730.77</ele>
      </trkpt>
      <trkpt lat="37.541" lon="27.59023">
        <ele>729.013</ele>
      </trkpt>
      <trkpt lat="37.54104" lon="27.59024">
        <ele>727.775</ele>
      </trkpt>
      <trkpt lat="37.54106" lon="27.59024">
        <ele>727.231</ele>
      </trkpt>
      <trkpt lat="37.54118" lon="27.59029">
        <ele>724.387</ele>
      </trkpt>
      <trkpt lat="37.54123" lon="27.59035">
        <ele>723.618</ele>
      </trkpt>
      <trkpt lat="37.54135" lon="27.59039">
        <ele>721.01</ele>
      </trkpt>
      <trkpt lat="37.54141" lon="27.59036">
        <ele>719.402</ele>
      </trkpt>
      <trkpt lat="37.54146" lon="27.59038">
        <ele>718.734</ele>
      </trkpt>
      <trkpt lat="37.54147" lon="27.59039">
        <ele>718.654</ele>
      </trkpt>
      <trkpt lat="37.54154" lon="27.59041">
        <ele>717.431</ele>
      </trkpt>
      <trkpt lat="37.5416" lon="27.59041">
        <ele>716.221</ele>
      </trkpt>
      <trkpt lat="37.54165" lon="27.59046">
        <ele>715.883</ele>
      </trkpt>
      <trkpt lat="37.54165" lon="27.59046">
        <ele>715.887</ele>
      </trkpt>
      <trkpt lat="37.54168" lon="27.5905">
        <ele>715.864</ele>
      </trkpt>
      <trkpt lat="37.54174" lon="27.59053">
        <ele>715.081</ele>
      </trkpt>
      <trkpt lat="37.54181" lon="27.59053">
        <ele>713.652</ele>
      </trkpt>
      <trkpt lat="37.54185" lon="27.59056">
        <ele>713.205</ele>
      </trkpt>
      <trkpt lat="37.54193" lon="27.5906">
        <ele>711.881</ele>
      </trkpt>
      <trkpt lat="37.54199" lon="27.59063">
        <ele>711.273</ele>
      </trkpt>
      <trkpt lat="37.54202" lon="27.59061">
        <ele>710.451</ele>
      </trkpt>
      <trkpt lat="37.54205" lon="27.59057">
        <ele>709.294</ele>
      </trkpt>
      <trkpt lat="37.54209" lon="27.59056">
        <ele>708.395</ele>
      </trkpt>
      <trkpt lat="37.54216" lon="27.59057">
        <ele>707.335</ele>
      </trkpt>
      <trkpt lat="37.54224" lon="27.59057">
        <ele>706.177</ele>
      </trkpt>
      <trkpt lat="37.54226" lon="27.59058">
        <ele>706.138</ele>
      </trkpt>
      <trkpt lat="37.54236" lon="27.59056">
        <ele>705.6</ele>
      </trkpt>
      <trkpt lat="37.54242" lon="27.59054">
        <ele>704.992</ele>
      </trkpt>
      <trkpt lat="37.54249" lon="27.59057">
        <ele>705.123</ele>
      </trkpt>
      <trkpt lat="37.54253" lon="27.59057">
        <ele>704.633</ele>
      </trkpt>
      <trkpt lat="37.54263" lon="27.59064">
        <ele>703.718</ele>
      </trkpt>
      <trkpt lat="37.54266" lon="27.59067">
        <ele>703.584</ele>
      </trkpt>
      <trkpt lat="37.54277" lon="27.59073">
        <ele>702.371</ele>
      </trkpt>
      <trkpt lat="37.5428" lon="27.5907">
        <ele>701.53</ele>
      </trkpt>
      <trkpt lat="37.54284" lon="27.59072">
        <ele>700.582</ele>
      </trkpt>
      <trkpt lat="37.54286" lon="27.59073">
        <ele>700.155</ele>
      </trkpt>
      <trkpt lat="37.54291" lon="27.59071">
        <ele>698.727</ele>
      </trkpt>
      <trkpt lat="37.54293" lon="27.59073">
        <ele>698.306</ele>
      </trkpt>
      <trkpt lat="37.54297" lon="27.59076">
        <ele>697.242</ele>
      </trkpt>
      <trkpt lat="37.54299" lon="27.59079">
        <ele>696.703</ele>
      </trkpt>
      <trkpt lat="37.54302" lon="27.59077">
        <ele>696.065</ele>
      </trkpt>
      <trkpt lat="37.54304" lon="27.59077">
        <ele>695.505</ele>
      </trkpt>
      <trkpt lat="37.54307" lon="27.59075">
        <ele>694.637</ele>
      </trkpt>
      <trkpt lat="37.5431" lon="27.59076">
        <ele>693.197</ele>
      </trkpt>
      <trkpt lat="37.54314" lon="27.59073">
        <ele>691.669</ele>
      </trkpt>
      <trkpt lat="37.54318" lon="27.59074">
        <ele>690.319</ele>
      </trkpt>
      <trkpt lat="37.54323" lon="27.59079">
        <ele>688.216</ele>
      </trkpt>
      <trkpt lat="37.54328" lon="27.59084">
        <ele>686.185</ele>
      </trkpt>
      <trkpt lat="37.54333" lon="27.59086">
        <ele>683.931</ele>
      </trkpt>
      <trkpt lat="37.54334" lon="27.59087">
        <ele>683.573</ele>
      </trkpt>
      <trkpt lat="37.54341" lon="27.59095">
        <ele>681.237</ele>
      </trkpt>
      <trkpt lat="37.54348" lon="27.59098">
        <ele>679.401</ele>
      </trkpt>
      <trkpt lat="37.54351" lon="27.591">
        <ele>678.485</ele>
      </trkpt>
      <trkpt lat="37.54357" lon="27.59105">
        <ele>676.886</ele>
      </trkpt>
      <trkpt lat="37.54363" lon="27.591">
        <ele>675.91</ele>
      </trkpt>
      <trkpt lat="37.54363" lon="27.59098">
        <ele>675.857</ele>
      </trkpt>
      <trkpt lat="37.54364" lon="27.59096">
        <ele>675.754</ele>
      </trkpt>
      <trkpt lat="37.54367" lon="27.59091">
        <ele>675.465</ele>
      </trkpt>
      <trkpt lat="37.54373" lon="27.59087">
        <ele>674.876</ele>
      </trkpt>
      <trkpt lat="37.54373" lon="27.59085">
        <ele>674.819</ele>
      </trkpt>
      <trkpt lat="37.54373" lon="27.59084">
        <ele>674.796</ele>
      </trkpt>
      <trkpt lat="37.54373" lon="27.59085">
        <ele>674.776</ele>
      </trkpt>
      <trkpt lat="37.54373" lon="27.59085">
        <ele>674.757</ele>
      </trkpt>
      <trkpt lat="37.54374" lon="27.59085">
        <ele>674.649</ele>
      </trkpt>
      <trkpt lat="37.54374" lon="27.59083">
        <ele>674.639</ele>
      </trkpt>
      <trkpt lat="37.54371" lon="27.59078">
        <ele>674.847</ele>
      </trkpt>
      <trkpt lat="37.5437" lon="27.59077">
        <ele>674.892</ele>
      </trkpt>
      <trkpt lat="37.54365" lon="27.59074">
        <ele>675.502</ele>
      </trkpt>
      <trkpt lat="37.54361" lon="27.59061">
        <ele>676.193</ele>
      </trkpt>
      <trkpt lat="37.5436" lon="27.59056">
        <ele>676.534</ele>
      </trkpt>
      <trkpt lat="37.54358" lon="27.59049">
        <ele>676.623</ele>
      </trkpt>
      <trkpt lat="37.54356" lon="27.59032">
        <ele>676.607</ele>
      </trkpt>
      <trkpt lat="37.54358" lon="27.59026">
        <ele>675.564</ele>
      </trkpt>
      <trkpt lat="37.54366" lon="27.5902">
        <ele>673.261</ele>
      </trkpt>
      <trkpt lat="37.54367" lon="27.5902">
        <ele>672.889</ele>
      </trkpt>
      <trkpt lat="37.54374" lon="27.59018">
        <ele>671.27</ele>
      </trkpt>
      <trkpt lat="37.54375" lon="27.59013">
        <ele>670.636</ele>
      </trkpt>
      <trkpt lat="37.54375" lon="27.58994">
        <ele>669.13</ele>
      </trkpt>
      <trkpt lat="37.54374" lon="27.58993">
        <ele>669.157</ele>
      </trkpt>
      <trkpt lat="37.54369" lon="27.58982">
        <ele>669.013</ele>
      </trkpt>
      <trkpt lat="37.54368" lon="27.58977">
        <ele>668.651</ele>
      </trkpt>
      <trkpt lat="37.54364" lon="27.58972">
        <ele>668.698</ele>
      </trkpt>
      <trkpt lat="37.54358" lon="27.58967">
        <ele>668.912</ele>
      </trkpt>
      <trkpt lat="37.54355" lon="27.58956">
        <ele>668.233</ele>
      </trkpt>
      <trkpt lat="37.54357" lon="27.58952">
        <ele>667.734</ele>
      </trkpt>
      <trkpt lat="37.54361" lon="27.58944">
        <ele>667.023</ele>
      </trkpt>
      <trkpt lat="37.54362" lon="27.58941">
        <ele>667.121</ele>
      </trkpt>
      <trkpt lat="37.54368" lon="27.58936">
        <ele>667.465</ele>
      </trkpt>
      <trkpt lat="37.54376" lon="27.58932">
        <ele>667.916</ele>
      </trkpt>
      <trkpt lat="37.5438" lon="27.58933">
        <ele>667.979</ele>
      </trkpt>
      <trkpt lat="37.54397" lon="27.58923">
        <ele>668.37</ele>
      </trkpt>
      <trkpt lat="37.54409" lon="27.58917">
        <ele>667.787</ele>
      </trkpt>
      <trkpt lat="37.5441" lon="27.58916">
        <ele>667.745</ele>
      </trkpt>
      <trkpt lat="37.54415" lon="27.58918">
        <ele>667.013</ele>
      </trkpt>
      <trkpt lat="37.54428" lon="27.58913">
        <ele>664.908</ele>
      </trkpt>
      <trkpt lat="37.54437" lon="27.58909">
        <ele>663.77</ele>
      </trkpt>
      <trkpt lat="37.54443" lon="27.58905">
        <ele>662.852</ele>
      </trkpt>
      <trkpt lat="37.54451" lon="27.58897">
        <ele>662.908</ele>
      </trkpt>
      <trkpt lat="37.54452" lon="27.58896">
        <ele>662.882</ele>
      </trkpt>
      <trkpt lat="37.54459" lon="27.58888">
        <ele>663.014</ele>
      </trkpt>
      <trkpt lat="37.54462" lon="27.58887">
        <ele>662.691</ele>
      </trkpt>
      <trkpt lat="37.54481" lon="27.58881">
        <ele>661.018</ele>
      </trkpt>
      <trkpt lat="37.5449" lon="27.5888">
        <ele>659.984</ele>
      </trkpt>
      <trkpt lat="37.54501" lon="27.58878">
        <ele>658.888</ele>
      </trkpt>
      <trkpt lat="37.54511" lon="27.58876">
        <ele>658.531</ele>
      </trkpt>
      <trkpt lat="37.54515" lon="27.58876">
        <ele>658.315</ele>
      </trkpt>
      <trkpt lat="37.54519" lon="27.58875">
        <ele>658.124</ele>
      </trkpt>
      <trkpt lat="37.5453" lon="27.58873">
        <ele>657.541</ele>
      </trkpt>
      <trkpt lat="37.54536" lon="27.58875">
        <ele>656.787</ele>
      </trkpt>
      <trkpt lat="37.54541" lon="27.58874">
        <ele>656.441</ele>
      </trkpt>
      <trkpt lat="37.54544" lon="27.58875">
        <ele>656.065</ele>
      </trkpt>
      <trkpt lat="37.54546" lon="27.58876">
        <ele>655.82</ele>
      </trkpt>
      <trkpt lat="37.5455" lon="27.58877">
        <ele>655.324</ele>
      </trkpt>
      <trkpt lat="37.54556" lon="27.58879">
        <ele>654.643</ele>
      </trkpt>
      <trkpt lat="37.54558" lon="27.58878">
        <ele>654.29</ele>
      </trkpt>
      <trkpt lat="37.54567" lon="27.58873">
        <ele>652.348</ele>
      </trkpt>
      <trkpt lat="37.5457" lon="27.58872">
        <ele>651.719</ele>
      </trkpt>
      <trkpt lat="37.54575" lon="27.5887">
        <ele>650.783</ele>
      </trkpt>
      <trkpt lat="37.54573" lon="27.58869">
        <ele>651.199</ele>
      </trkpt>
      <trkpt lat="37.5458" lon="27.58866">
        <ele>649.773</ele>
      </trkpt>
      <trkpt lat="37.54597" lon="27.58868">
        <ele>644.83</ele>
      </trkpt>
      <trkpt lat="37.54611" lon="27.58861">
        <ele>641</ele>
      </trkpt>
      <trkpt lat="37.54621" lon="27.58861">
        <ele>638.418</ele>
      </trkpt>
      <trkpt lat="37.54626" lon="27.58868">
        <ele>637.558</ele>
      </trkpt>
      <trkpt lat="37.54632" lon="27.5887">
        <ele>636.137</ele>
      </trkpt>
      <trkpt lat="37.54633" lon="27.58871">
        <ele>636.031</ele>
      </trkpt>
      <trkpt lat="37.54638" lon="27.58875">
        <ele>635.14</ele>
      </trkpt>
      <trkpt lat="37.54647" lon="27.58878">
        <ele>633.944</ele>
      </trkpt>
      <trkpt lat="37.54645" lon="27.58874">
        <ele>633.686</ele>
      </trkpt>
      <trkpt lat="37.54646" lon="27.58866">
        <ele>632.985</ele>
      </trkpt>
      <trkpt lat="37.54647" lon="27.58864">
        <ele>632.467</ele>
      </trkpt>
      <trkpt lat="37.5466" lon="27.58865">
        <ele>629.931</ele>
      </trkpt>
      <trkpt lat="37.54662" lon="27.58861">
        <ele>629.014</ele>
      </trkpt>
      <trkpt lat="37.54662" lon="27.58861">
        <ele>628.893</ele>
      </trkpt>
      <trkpt lat="37.54661" lon="27.58859">
        <ele>628.925</ele>
      </trkpt>
      <trkpt lat="37.54664" lon="27.58858">
        <ele>628.105</ele>
      </trkpt>
      <trkpt lat="37.54669" lon="27.58855">
        <ele>626.578</ele>
      </trkpt>
      <trkpt lat="37.54671" lon="27.58853">
        <ele>625.98</ele>
      </trkpt>
      <trkpt lat="37.54675" lon="27.58851">
        <ele>624.883</ele>
      </trkpt>
      <trkpt lat="37.54679" lon="27.58854">
        <ele>624.727</ele>
      </trkpt>
      <trkpt lat="37.54683" lon="27.58855">
        <ele>624.263</ele>
      </trkpt>
      <trkpt lat="37.54691" lon="27.58852">
        <ele>622.206</ele>
      </trkpt>
      <trkpt lat="37.54693" lon="27.5885">
        <ele>621.505</ele>
      </trkpt>
      <trkpt lat="37.54702" lon="27.58852">
        <ele>619.523</ele>
      </trkpt>
      <trkpt lat="37.54709" lon="27.58857">
        <ele>618.637</ele>
      </trkpt>
      <trkpt lat="37.54715" lon="27.58858">
        <ele>617.426</ele>
      </trkpt>
      <trkpt lat="37.54715" lon="27.58859">
        <ele>617.343</ele>
      </trkpt>
      <trkpt lat="37.54722" lon="27.58857">
        <ele>615.101</ele>
      </trkpt>
      <trkpt lat="37.54731" lon="27.58861">
        <ele>613.726</ele>
      </trkpt>
      <trkpt lat="37.54734" lon="27.58859">
        <ele>612.311</ele>
      </trkpt>
      <trkpt lat="37.54736" lon="27.58857">
        <ele>611.481</ele>
      </trkpt>
      <trkpt lat="37.54742" lon="27.5885">
        <ele>608.268</ele>
      </trkpt>
      <trkpt lat="37.54741" lon="27.58845">
        <ele>607.29</ele>
      </trkpt>
      <trkpt lat="37.54741" lon="27.58842">
        <ele>606.58</ele>
      </trkpt>
      <trkpt lat="37.5474" lon="27.58838">
        <ele>605.562</ele>
      </trkpt>
      <trkpt lat="37.54742" lon="27.58832">
        <ele>603.865</ele>
      </trkpt>
      <trkpt lat="37.54741" lon="27.58826">
        <ele>602.374</ele>
      </trkpt>
      <trkpt lat="37.54744" lon="27.58826">
        <ele>601.376</ele>
      </trkpt>
      <trkpt lat="37.54751" lon="27.58828">
        <ele>600.012</ele>
      </trkpt>
      <trkpt lat="37.54757" lon="27.5883">
        <ele>598.335</ele>
      </trkpt>
      <trkpt lat="37.54765" lon="27.58828">
        <ele>595.211</ele>
      </trkpt>
      <trkpt lat="37.54768" lon="27.58829">
        <ele>594.323</ele>
      </trkpt>
      <trkpt lat="37.54769" lon="27.58834">
        <ele>595.273</ele>
      </trkpt>
      <trkpt lat="37.54771" lon="27.58838">
        <ele>595.808</ele>
      </trkpt>
      <trkpt lat="37.54776" lon="27.58847">
        <ele>596.759</ele>
      </trkpt>
      <trkpt lat="37.54783" lon="27.5886">
        <ele>597.244</ele>
      </trkpt>
      <trkpt lat="37.54786" lon="27.58864">
        <ele>597.189</ele>
      </trkpt>
      <trkpt lat="37.54786" lon="27.58864">
        <ele>597.163</ele>
      </trkpt>
      <trkpt lat="37.54786" lon="27.58873">
        <ele>598.573</ele>
      </trkpt>
      <trkpt lat="37.5479" lon="27.58874">
        <ele>597.354</ele>
      </trkpt>
      <trkpt lat="37.54791" lon="27.58876">
        <ele>596.939</ele>
      </trkpt>
      <trkpt lat="37.54796" lon="27.58877">
        <ele>595.081</ele>
      </trkpt>
      <trkpt lat="37.548" lon="27.58878">
        <ele>593.513</ele>
      </trkpt>
      <trkpt lat="37.54806" lon="27.58884">
        <ele>591.984</ele>
      </trkpt>
      <trkpt lat="37.54808" lon="27.58888">
        <ele>591.657</ele>
      </trkpt>
      <trkpt lat="37.54817" lon="27.58892">
        <ele>588.951</ele>
      </trkpt>
      <trkpt lat="37.54823" lon="27.58894">
        <ele>586.652</ele>
      </trkpt>
      <trkpt lat="37.54821" lon="27.58894">
        <ele>587.419</ele>
      </trkpt>
      <trkpt lat="37.54821" lon="27.58896">
        <ele>587.829</ele>
      </trkpt>
      <trkpt lat="37.54827" lon="27.58896">
        <ele>585.65</ele>
      </trkpt>
      <trkpt lat="37.54827" lon="27.58897">
        <ele>585.5</ele>
      </trkpt>
      <trkpt lat="37.54832" lon="27.58903">
        <ele>584.471</ele>
      </trkpt>
      <trkpt lat="37.5484" lon="27.58909">
        <ele>583.162</ele>
      </trkpt>
      <trkpt lat="37.54847" lon="27.58916">
        <ele>582.499</ele>
      </trkpt>
      <trkpt lat="37.54851" lon="27.5892">
        <ele>581.833</ele>
      </trkpt>
      <trkpt lat="37.54857" lon="27.58919">
        <ele>580.366</ele>
      </trkpt>
      <trkpt lat="37.54862" lon="27.58922">
        <ele>579.525</ele>
      </trkpt>
      <trkpt lat="37.54862" lon="27.5892">
        <ele>579.277</ele>
      </trkpt>
      <trkpt lat="37.54862" lon="27.58915">
        <ele>578.688</ele>
      </trkpt>
      <trkpt lat="37.5486" lon="27.58902">
        <ele>576.544</ele>
      </trkpt>
      <trkpt lat="37.54856" lon="27.58889">
        <ele>575.537</ele>
      </trkpt>
      <trkpt lat="37.54854" lon="27.58883">
        <ele>574.961</ele>
      </trkpt>
      <trkpt lat="37.54854" lon="27.58876">
        <ele>573.693</ele>
      </trkpt>
      <trkpt lat="37.5485" lon="27.58873">
        <ele>574.144</ele>
      </trkpt>
      <trkpt lat="37.54847" lon="27.58867">
        <ele>573.913</ele>
      </trkpt>
      <trkpt lat="37.54851" lon="27.58863">
        <ele>571.977</ele>
      </trkpt>
      <trkpt lat="37.54855" lon="27.58865">
        <ele>570.772</ele>
      </trkpt>
      <trkpt lat="37.54856" lon="27.58861">
        <ele>569.735</ele>
      </trkpt>
      <trkpt lat="37.54854" lon="27.58855">
        <ele>569.102</ele>
      </trkpt>
      <trkpt lat="37.54851" lon="27.58849">
        <ele>568.675</ele>
      </trkpt>
      <trkpt lat="37.54849" lon="27.5884">
        <ele>567.437</ele>
      </trkpt>
      <trkpt lat="37.54848" lon="27.58833">
        <ele>566.303</ele>
      </trkpt>
      <trkpt lat="37.54847" lon="27.58826">
        <ele>565.009</ele>
      </trkpt>
      <trkpt lat="37.54848" lon="27.58816">
        <ele>562.918</ele>
      </trkpt>
      <trkpt lat="37.5485" lon="27.58812">
        <ele>561.345</ele>
      </trkpt>
      <trkpt lat="37.54852" lon="27.58805">
        <ele>559.645</ele>
      </trkpt>
      <trkpt lat="37.5485" lon="27.58799">
        <ele>559.325</ele>
      </trkpt>
      <trkpt lat="37.54851" lon="27.58794">
        <ele>558.269</ele>
      </trkpt>
      <trkpt lat="37.54856" lon="27.58784">
        <ele>555.84</ele>
      </trkpt>
      <trkpt lat="37.54859" lon="27.58777">
        <ele>554.414</ele>
      </trkpt>
      <trkpt lat="37.54862" lon="27.58772">
        <ele>553.26</ele>
      </trkpt>
      <trkpt lat="37.5487" lon="27.58761">
        <ele>551.624</ele>
      </trkpt>
      <trkpt lat="37.54872" lon="27.58753">
        <ele>550.827</ele>
      </trkpt>
      <trkpt lat="37.54872" lon="27.58745">
        <ele>550.408</ele>
      </trkpt>
      <trkpt lat="37.54874" lon="27.58737">
        <ele>550.063</ele>
      </trkpt>
      <trkpt lat="37.54874" lon="27.58729">
        <ele>549.77</ele>
      </trkpt>
      <trkpt lat="37.54877" lon="27.58724">
        <ele>549.499</ele>
      </trkpt>
      <trkpt lat="37.54878" lon="27.58717">
        <ele>549.591</ele>
      </trkpt>
      <trkpt lat="37.54878" lon="27.58707">
        <ele>549.926</ele>
      </trkpt>
      <trkpt lat="37.54879" lon="27.58706">
        <ele>549.951</ele>
      </trkpt>
      <trkpt lat="37.54882" lon="27.58699">
        <ele>550.072</ele>
      </trkpt>
      <trkpt lat="37.54884" lon="27.58691">
        <ele>550.115</ele>
      </trkpt>
      <trkpt lat="37.54886" lon="27.58683">
        <ele>549.795</ele>
      </trkpt>
      <trkpt lat="37.54888" lon="27.58671">
        <ele>549.255</ele>
      </trkpt>
      <trkpt lat="37.54887" lon="27.58663">
        <ele>548.927</ele>
      </trkpt>
      <trkpt lat="37.54888" lon="27.58656">
        <ele>548.307</ele>
      </trkpt>
      <trkpt lat="37.54887" lon="27.58653">
        <ele>548.22</ele>
      </trkpt>
      <trkpt lat="37.54884" lon="27.58645">
        <ele>547.973</ele>
      </trkpt>
      <trkpt lat="37.54883" lon="27.58639">
        <ele>547.688</ele>
      </trkpt>
      <trkpt lat="37.5488" lon="27.58633">
        <ele>547.907</ele>
      </trkpt>
      <trkpt lat="37.54878" lon="27.58632">
        <ele>548.055</ele>
      </trkpt>
      <trkpt lat="37.54874" lon="27.58625">
        <ele>548.299</ele>
      </trkpt>
      <trkpt lat="37.54876" lon="27.58618">
        <ele>548.048</ele>
      </trkpt>
      <trkpt lat="37.54878" lon="27.58608">
        <ele>548</ele>
      </trkpt>
      <trkpt lat="37.54881" lon="27.58598">
        <ele>548.523</ele>
      </trkpt>
      <trkpt lat="37.54888" lon="27.58598">
        <ele>547.973</ele>
      </trkpt>
      <trkpt lat="37.5489" lon="27.58589">
        <ele>548.515</ele>
      </trkpt>
      <trkpt lat="37.54897" lon="27.58582">
        <ele>548.821</ele>
      </trkpt>
      <trkpt lat="37.54903" lon="27.58573">
        <ele>549.604</ele>
      </trkpt>
      <trkpt lat="37.54905" lon="27.58565">
        <ele>550.382</ele>
      </trkpt>
      <trkpt lat="37.54909" lon="27.58554">
        <ele>551.499</ele>
      </trkpt>
      <trkpt lat="37.54914" lon="27.58541">
        <ele>554.221</ele>
      </trkpt>
      <trkpt lat="37.54919" lon="27.58535">
        <ele>555.515</ele>
      </trkpt>
      <trkpt lat="37.54924" lon="27.58529">
        <ele>556.713</ele>
      </trkpt>
      <trkpt lat="37.54932" lon="27.58523">
        <ele>557.538</ele>
      </trkpt>
      <trkpt lat="37.54934" lon="27.5852">
        <ele>557.866</ele>
      </trkpt>
      <trkpt lat="37.54938" lon="27.58513">
        <ele>558.6</ele>
      </trkpt>
      <trkpt lat="37.54944" lon="27.58515">
        <ele>558.377</ele>
      </trkpt>
      <trkpt lat="37.54947" lon="27.58512">
        <ele>558.266</ele>
      </trkpt>
      <trkpt lat="37.54953" lon="27.58506">
        <ele>557.992</ele>
      </trkpt>
      <trkpt lat="37.54954" lon="27.58501">
        <ele>558.21</ele>
      </trkpt>
      <trkpt lat="37.54955" lon="27.58497">
        <ele>558.143</ele>
      </trkpt>
      <trkpt lat="37.54954" lon="27.58496">
        <ele>558.259</ele>
      </trkpt>
      <trkpt lat="37.54952" lon="27.58486">
        <ele>558.699</ele>
      </trkpt>
      <trkpt lat="37.5495" lon="27.58462">
        <ele>558.287</ele>
      </trkpt>
      <trkpt lat="37.54951" lon="27.58443">
        <ele>556.933</ele>
      </trkpt>
      <trkpt lat="37.54957" lon="27.58428">
        <ele>554.7</ele>
      </trkpt>
      <trkpt lat="37.54961" lon="27.58419">
        <ele>553.603</ele>
      </trkpt>
      <trkpt lat="37.54961" lon="27.58418">
        <ele>553.473</ele>
      </trkpt>
      <trkpt lat="37.54962" lon="27.58417">
        <ele>553.415</ele>
      </trkpt>
      <trkpt lat="37.54966" lon="27.58412">
        <ele>552.539</ele>
      </trkpt>
      <trkpt lat="37.54966" lon="27.58404">
        <ele>551.508</ele>
      </trkpt>
      <trkpt lat="37.54962" lon="27.58399">
        <ele>551.016</ele>
      </trkpt>
      <trkpt lat="37.54961" lon="27.58398">
        <ele>550.917</ele>
      </trkpt>
      <trkpt lat="37.54955" lon="27.58386">
        <ele>549.747</ele>
      </trkpt>
      <trkpt lat="37.54947" lon="27.58372">
        <ele>548.295</ele>
      </trkpt>
      <trkpt lat="37.5494" lon="27.58359">
        <ele>546.895</ele>
      </trkpt>
      <trkpt lat="37.54931" lon="27.58346">
        <ele>546.11</ele>
      </trkpt>
      <trkpt lat="37.5493" lon="27.58343">
        <ele>545.907</ele>
      </trkpt>
      <trkpt lat="37.54924" lon="27.58332">
        <ele>545.316</ele>
      </trkpt>
      <trkpt lat="37.54924" lon="27.58322">
        <ele>543.945</ele>
      </trkpt>
      <trkpt lat="37.54925" lon="27.58317">
        <ele>543.187</ele>
      </trkpt>
      <trkpt lat="37.54926" lon="27.58304">
        <ele>541.511</ele>
      </trkpt>
      <trkpt lat="37.54925" lon="27.58288">
        <ele>539.392</ele>
      </trkpt>
      <trkpt lat="37.54921" lon="27.58279">
        <ele>538.11</ele>
      </trkpt>
      <trkpt lat="37.54921" lon="27.58277">
        <ele>538</ele>
      </trkpt>
      <trkpt lat="37.5492" lon="27.58276">
        <ele>538</ele>
      </trkpt>
      <trkpt lat="37.54916" lon="27.58269">
        <ele>538.007</ele>
      </trkpt>
      <trkpt lat="37.54907" lon="27.58268">
        <ele>538.095</ele>
      </trkpt>
      <trkpt lat="37.54897" lon="27.5826">
        <ele>537.82</ele>
      </trkpt>
      <trkpt lat="37.54887" lon="27.58247">
        <ele>537.276</ele>
      </trkpt>
      <trkpt lat="37.54879" lon="27.58239">
        <ele>537.892</ele>
      </trkpt>
      <trkpt lat="37.54872" lon="27.58241">
        <ele>538.362</ele>
      </trkpt>
      <trkpt lat="37.54857" lon="27.5824">
        <ele>538.998</ele>
      </trkpt>
      <trkpt lat="37.54845" lon="27.58235">
        <ele>538.348</ele>
      </trkpt>
      <trkpt lat="37.54838" lon="27.58231">
        <ele>537.714</ele>
      </trkpt>
      <trkpt lat="37.54829" lon="27.58226">
        <ele>536.237</ele>
      </trkpt>
      <trkpt lat="37.54826" lon="27.58223">
        <ele>535.38</ele>
      </trkpt>
      <trkpt lat="37.54821" lon="27.58216">
        <ele>534.486</ele>
      </trkpt>
      <trkpt lat="37.54809" lon="27.5821">
        <ele>532.588</ele>
      </trkpt>
      <trkpt lat="37.5479" lon="27.58199">
        <ele>529.939</ele>
      </trkpt>
      <trkpt lat="37.54779" lon="27.58191">
        <ele>527.999</ele>
      </trkpt>
      <trkpt lat="37.54771" lon="27.58188">
        <ele>528.172</ele>
      </trkpt>
      <trkpt lat="37.54761" lon="27.58185">
        <ele>528.395</ele>
      </trkpt>
      <trkpt lat="37.54752" lon="27.58176">
        <ele>527.965</ele>
      </trkpt>
      <trkpt lat="37.54745" lon="27.58165">
        <ele>527.514</ele>
      </trkpt>
      <trkpt lat="37.54738" lon="27.58151">
        <ele>527.047</ele>
      </trkpt>
      <trkpt lat="37.54734" lon="27.58136">
        <ele>525.984</ele>
      </trkpt>
      <trkpt lat="37.54729" lon="27.58118">
        <ele>525.174</ele>
      </trkpt>
      <trkpt lat="37.54725" lon="27.58101">
        <ele>524.515</ele>
      </trkpt>
      <trkpt lat="37.5472" lon="27.58092">
        <ele>524.755</ele>
      </trkpt>
      <trkpt lat="37.54714" lon="27.5807">
        <ele>523.524</ele>
      </trkpt>
      <trkpt lat="37.54711" lon="27.58052">
        <ele>521.194</ele>
      </trkpt>
      <trkpt lat="37.54707" lon="27.58032">
        <ele>519.296</ele>
      </trkpt>
      <trkpt lat="37.54702" lon="27.58011">
        <ele>517.2</ele>
      </trkpt>
      <trkpt lat="37.54697" lon="27.57998">
        <ele>516.239</ele>
      </trkpt>
      <trkpt lat="37.54696" lon="27.57984">
        <ele>514.318</ele>
      </trkpt>
      <trkpt lat="37.5469" lon="27.5797">
        <ele>513.76</ele>
      </trkpt>
      <trkpt lat="37.54684" lon="27.57957">
        <ele>513.485</ele>
      </trkpt>
      <trkpt lat="37.54681" lon="27.57949">
        <ele>513.068</ele>
      </trkpt>
      <trkpt lat="37.54679" lon="27.57944">
        <ele>512.773</ele>
      </trkpt>
      <trkpt lat="37.54675" lon="27.57934">
        <ele>512.895</ele>
      </trkpt>
      <trkpt lat="37.54677" lon="27.57916">
        <ele>510.821</ele>
      </trkpt>
      <trkpt lat="37.5468" lon="27.57899">
        <ele>508.625</ele>
      </trkpt>
      <trkpt lat="37.54685" lon="27.57883">
        <ele>505.94</ele>
      </trkpt>
      <trkpt lat="37.54685" lon="27.57872">
        <ele>504.722</ele>
      </trkpt>
      <trkpt lat="37.54685" lon="27.57871">
        <ele>504.783</ele>
      </trkpt>
      <trkpt lat="37.54684" lon="27.57865">
        <ele>504.244</ele>
      </trkpt>
      <trkpt lat="37.54684" lon="27.57865">
        <ele>504.281</ele>
      </trkpt>
      <trkpt lat="37.54681" lon="27.57858">
        <ele>503.99</ele>
      </trkpt>
      <trkpt lat="37.54674" lon="27.5785">
        <ele>503.825</ele>
      </trkpt>
      <trkpt lat="37.54661" lon="27.57834">
        <ele>503.267</ele>
      </trkpt>
      <trkpt lat="37.54659" lon="27.57829">
        <ele>503.457</ele>
      </trkpt>
      <trkpt lat="37.54656" lon="27.57823">
        <ele>503.621</ele>
      </trkpt>
      <trkpt lat="37.54652" lon="27.57819">
        <ele>504.175</ele>
      </trkpt>
      <trkpt lat="37.54649" lon="27.57817">
        <ele>504.494</ele>
      </trkpt>
      <trkpt lat="37.54639" lon="27.5781">
        <ele>505.455</ele>
      </trkpt>
      <trkpt lat="37.54628" lon="27.57803">
        <ele>506.549</ele>
      </trkpt>
      <trkpt lat="37.5462" lon="27.578">
        <ele>507.465</ele>
      </trkpt>
      <trkpt lat="37.54611" lon="27.57791">
        <ele>507.952</ele>
      </trkpt>
      <trkpt lat="37.54599" lon="27.57786">
        <ele>508.132</ele>
      </trkpt>
      <trkpt lat="37.54594" lon="27.57784">
        <ele>508.185</ele>
      </trkpt>
      <trkpt lat="37.54586" lon="27.57778">
        <ele>507.937</ele>
      </trkpt>
      <trkpt lat="37.54582" lon="27.57771">
        <ele>507.791</ele>
      </trkpt>
      <trkpt lat="37.54567" lon="27.57771">
        <ele>508.524</ele>
      </trkpt>
      <trkpt lat="37.54559" lon="27.57765">
        <ele>508.044</ele>
      </trkpt>
      <trkpt lat="37.54556" lon="27.57759">
        <ele>507.341</ele>
      </trkpt>
      <trkpt lat="37.54555" lon="27.57757">
        <ele>507.025</ele>
      </trkpt>
      <trkpt lat="37.54554" lon="27.57757">
        <ele>507.081</ele>
      </trkpt>
      <trkpt lat="37.54541" lon="27.57759">
        <ele>508.459</ele>
      </trkpt>
      <trkpt lat="37.54528" lon="27.57752">
        <ele>508.228</ele>
      </trkpt>
      <trkpt lat="37.54515" lon="27.57743">
        <ele>507.85</ele>
      </trkpt>
      <trkpt lat="37.54502" lon="27.57735">
        <ele>507.161</ele>
      </trkpt>
      <trkpt lat="37.54495" lon="27.57729">
        <ele>506.645</ele>
      </trkpt>
      <trkpt lat="37.5449" lon="27.57718">
        <ele>504.963</ele>
      </trkpt>
      <trkpt lat="37.54485" lon="27.57708">
        <ele>503.577</ele>
      </trkpt>
      <trkpt lat="37.54479" lon="27.57696">
        <ele>501.757</ele>
      </trkpt>
      <trkpt lat="37.54478" lon="27.57689">
        <ele>500.856</ele>
      </trkpt>
      <trkpt lat="37.54477" lon="27.57678">
        <ele>499.524</ele>
      </trkpt>
      <trkpt lat="37.54471" lon="27.57668">
        <ele>498.18</ele>
      </trkpt>
      <trkpt lat="37.54463" lon="27.57654">
        <ele>496.241</ele>
      </trkpt>
      <trkpt lat="37.54463" lon="27.57654">
        <ele>496.241</ele>
      </trkpt>
      <trkpt lat="37.54463" lon="27.57654">
        <ele>496.241</ele>
      </trkpt>
      <trkpt lat="37.54463" lon="27.57654">
        <ele>496.241</ele>
      </trkpt>
      <trkpt lat="37.54462" lon="27.57652">
        <ele>496.099</ele>
      </trkpt>
      <trkpt lat="37.54461" lon="27.57647">
        <ele>495.423</ele>
      </trkpt>
      <trkpt lat="37.54459" lon="27.57647">
        <ele>495.377</ele>
      </trkpt>
      <trkpt lat="37.54454" lon="27.57642">
        <ele>494.676</ele>
      </trkpt>
      <trkpt lat="37.54453" lon="27.5764">
        <ele>494.4</ele>
      </trkpt>
      <trkpt lat="37.54451" lon="27.57638">
        <ele>494.225</ele>
      </trkpt>
      <trkpt lat="37.54448" lon="27.57635">
        <ele>493.991</ele>
      </trkpt>
      <trkpt lat="37.54444" lon="27.57634">
        <ele>493.805</ele>
      </trkpt>
      <trkpt lat="37.54444" lon="27.57634">
        <ele>493.799</ele>
      </trkpt>
      <trkpt lat="37.54442" lon="27.57632">
        <ele>493.602</ele>
      </trkpt>
      <trkpt lat="37.54441" lon="27.5763">
        <ele>493.446</ele>
      </trkpt>
      <trkpt lat="37.5444" lon="27.57628">
        <ele>493.265</ele>
      </trkpt>
      <trkpt lat="37.5444" lon="27.57628">
        <ele>493.265</ele>
      </trkpt>
      <trkpt lat="37.54435" lon="27.57624">
        <ele>492.741</ele>
      </trkpt>
      <trkpt lat="37.54434" lon="27.57623">
        <ele>492.668</ele>
      </trkpt>
      <trkpt lat="37.54428" lon="27.57622">
        <ele>492.179</ele>
      </trkpt>
      <trkpt lat="37.54421" lon="27.57621">
        <ele>491.689</ele>
      </trkpt>
      <trkpt lat="37.54417" lon="27.5762">
        <ele>491.327</ele>
      </trkpt>
      <trkpt lat="37.54414" lon="27.57614">
        <ele>491.03</ele>
      </trkpt>
      <trkpt lat="37.54414" lon="27.57615">
        <ele>491.006</ele>
      </trkpt>
      <trkpt lat="37.54413" lon="27.57615">
        <ele>490.975</ele>
      </trkpt>
      <trkpt lat="37.5441" lon="27.57615">
        <ele>490.93</ele>
      </trkpt>
      <trkpt lat="37.54405" lon="27.57613">
        <ele>490.659</ele>
      </trkpt>
      <trkpt lat="37.54404" lon="27.57611">
        <ele>490.545</ele>
      </trkpt>
      <trkpt lat="37.54402" lon="27.57607">
        <ele>490.531</ele>
      </trkpt>
      <trkpt lat="37.54402" lon="27.57606">
        <ele>490.569</ele>
      </trkpt>
      <trkpt lat="37.54402" lon="27.57607">
        <ele>490.55</ele>
      </trkpt>
      <trkpt lat="37.54402" lon="27.57607">
        <ele>490.55</ele>
      </trkpt>
      <trkpt lat="37.54397" lon="27.57607">
        <ele>490.404</ele>
      </trkpt>
      <trkpt lat="37.54396" lon="27.57606">
        <ele>490.398</ele>
      </trkpt>
      <trkpt lat="37.54394" lon="27.57603">
        <ele>490.416</ele>
      </trkpt>
      <trkpt lat="37.54384" lon="27.57597">
        <ele>490.502</ele>
      </trkpt>
      <trkpt lat="37.54379" lon="27.57595">
        <ele>490.57</ele>
      </trkpt>
      <trkpt lat="37.54377" lon="27.57594">
        <ele>490.612</ele>
      </trkpt>
      <trkpt lat="37.54371" lon="27.57589">
        <ele>490.786</ele>
      </trkpt>
      <trkpt lat="37.54369" lon="27.57588">
        <ele>490.82</ele>
      </trkpt>
      <trkpt lat="37.54367" lon="27.57588">
        <ele>490.851</ele>
      </trkpt>
      <trkpt lat="37.54366" lon="27.57588">
        <ele>490.841</ele>
      </trkpt>
      <trkpt lat="37.54362" lon="27.57584">
        <ele>490.994</ele>
      </trkpt>
      <trkpt lat="37.54362" lon="27.57584">
        <ele>490.976</ele>
      </trkpt>
      <trkpt lat="37.54362" lon="27.57585">
        <ele>490.941</ele>
      </trkpt>
      <trkpt lat="37.54362" lon="27.57587">
        <ele>490.868</ele>
      </trkpt>
      <trkpt lat="37.54362" lon="27.57587">
        <ele>490.866</ele>
      </trkpt>
      <trkpt lat="37.5436" lon="27.57583">
        <ele>491.095</ele>
      </trkpt>
      <trkpt lat="37.54358" lon="27.57582">
        <ele>491.248</ele>
      </trkpt>
      <trkpt lat="37.54357" lon="27.57578">
        <ele>491.494</ele>
      </trkpt>
      <trkpt lat="37.54357" lon="27.57578">
        <ele>491.564</ele>
      </trkpt>
      <trkpt lat="37.54357" lon="27.57577">
        <ele>491.601</ele>
      </trkpt>
      <trkpt lat="37.54356" lon="27.57576">
        <ele>491.711</ele>
      </trkpt>
      <trkpt lat="37.54351" lon="27.57575">
        <ele>491.968</ele>
      </trkpt>
      <trkpt lat="37.54347" lon="27.5757">
        <ele>492.47</ele>
      </trkpt>
      <trkpt lat="37.54343" lon="27.57566">
        <ele>492.947</ele>
      </trkpt>
      <trkpt lat="37.54339" lon="27.57559">
        <ele>493.523</ele>
      </trkpt>
      <trkpt lat="37.54337" lon="27.57556">
        <ele>493.803</ele>
      </trkpt>
      <trkpt lat="37.54336" lon="27.57555">
        <ele>493.965</ele>
      </trkpt>
      <trkpt lat="37.54335" lon="27.57552">
        <ele>494.198</ele>
      </trkpt>
      <trkpt lat="37.54331" lon="27.57545">
        <ele>494.846</ele>
      </trkpt>
      <trkpt lat="37.54331" lon="27.57545">
        <ele>494.846</ele>
      </trkpt>
      <trkpt lat="37.54331" lon="27.57543">
        <ele>495</ele>
      </trkpt>
      <trkpt lat="37.5433" lon="27.57541">
        <ele>495.178</ele>
      </trkpt>
      <trkpt lat="37.54327" lon="27.57537">
        <ele>495.537</ele>
      </trkpt>
      <trkpt lat="37.54322" lon="27.57533">
        <ele>496.036</ele>
      </trkpt>
      <trkpt lat="37.5432" lon="27.57531">
        <ele>496.293</ele>
      </trkpt>
      <trkpt lat="37.54318" lon="27.5753">
        <ele>496.429</ele>
      </trkpt>
      <trkpt lat="37.54315" lon="27.5753">
        <ele>496.48</ele>
      </trkpt>
      <trkpt lat="37.5431" lon="27.57527">
        <ele>496.873</ele>
      </trkpt>
      <trkpt lat="37.54306" lon="27.57526">
        <ele>497.061</ele>
      </trkpt>
      <trkpt lat="37.54302" lon="27.57525">
        <ele>496.972</ele>
      </trkpt>
      <trkpt lat="37.543" lon="27.57524">
        <ele>496.935</ele>
      </trkpt>
      <trkpt lat="37.54293" lon="27.5752">
        <ele>496.805</ele>
      </trkpt>
      <trkpt lat="37.54287" lon="27.57517">
        <ele>496.723</ele>
      </trkpt>
      <trkpt lat="37.54285" lon="27.57515">
        <ele>496.724</ele>
      </trkpt>
      <trkpt lat="37.54283" lon="27.57513">
        <ele>496.729</ele>
      </trkpt>
      <trkpt lat="37.54283" lon="27.57513">
        <ele>496.734</ele>
      </trkpt>
      <trkpt lat="37.54284" lon="27.57514">
        <ele>496.702</ele>
      </trkpt>
      <trkpt lat="37.54283" lon="27.57514">
        <ele>496.712</ele>
      </trkpt>
      <trkpt lat="37.54284" lon="27.57513">
        <ele>496.728</ele>
      </trkpt>
      <trkpt lat="37.54284" lon="27.57517">
        <ele>496.612</ele>
      </trkpt>
      <trkpt lat="37.54284" lon="27.57516">
        <ele>496.622</ele>
      </trkpt>
      <trkpt lat="37.54283" lon="27.57514">
        <ele>496.668</ele>
      </trkpt>
      <trkpt lat="37.54278" lon="27.57509">
        <ele>496.687</ele>
      </trkpt>
      <trkpt lat="37.54275" lon="27.57504">
        <ele>496.826</ele>
      </trkpt>
      <trkpt lat="37.54271" lon="27.57501">
        <ele>496.952</ele>
      </trkpt>
      <trkpt lat="37.5427" lon="27.57501">
        <ele>496.977</ele>
      </trkpt>
      <trkpt lat="37.54269" lon="27.57498">
        <ele>497.191</ele>
      </trkpt>
      <trkpt lat="37.54264" lon="27.57496">
        <ele>497.389</ele>
      </trkpt>
      <trkpt lat="37.54262" lon="27.57495">
        <ele>497.591</ele>
      </trkpt>
      <trkpt lat="37.54257" lon="27.57491">
        <ele>497.987</ele>
      </trkpt>
      <trkpt lat="37.54252" lon="27.57485">
        <ele>498.625</ele>
      </trkpt>
      <trkpt lat="37.5425" lon="27.57484">
        <ele>498.733</ele>
      </trkpt>
      <trkpt lat="37.54247" lon="27.57479">
        <ele>499.36</ele>
      </trkpt>
      <trkpt lat="37.54244" lon="27.57476">
        <ele>499.788</ele>
      </trkpt>
      <trkpt lat="37.54241" lon="27.57472">
        <ele>500.386</ele>
      </trkpt>
      <trkpt lat="37.54236" lon="27.57467">
        <ele>500.781</ele>
      </trkpt>
      <trkpt lat="37.54236" lon="27.57466">
        <ele>500.848</ele>
      </trkpt>
      <trkpt lat="37.54234" lon="27.57462">
        <ele>501.098</ele>
      </trkpt>
      <trkpt lat="37.54231" lon="27.57457">
        <ele>501.414</ele>
      </trkpt>
      <trkpt lat="37.54229" lon="27.57452">
        <ele>501.664</ele>
      </trkpt>
      <trkpt lat="37.54224" lon="27.57449">
        <ele>501.84</ele>
      </trkpt>
      <trkpt lat="37.54222" lon="27.57447">
        <ele>501.904</ele>
      </trkpt>
      <trkpt lat="37.54215" lon="27.57443">
        <ele>502.592</ele>
      </trkpt>
      <trkpt lat="37.54214" lon="27.57443">
        <ele>502.636</ele>
      </trkpt>
      <trkpt lat="37.5421" lon="27.57441">
        <ele>503.052</ele>
      </trkpt>
      <trkpt lat="37.54209" lon="27.57442">
        <ele>503.08</ele>
      </trkpt>
      <trkpt lat="37.54206" lon="27.57441">
        <ele>503.358</ele>
      </trkpt>
      <trkpt lat="37.54206" lon="27.57441">
        <ele>503.358</ele>
      </trkpt>
      <trkpt lat="37.54206" lon="27.57441">
        <ele>503.379</ele>
      </trkpt>
      <trkpt lat="37.54206" lon="27.57441">
        <ele>503.405</ele>
      </trkpt>
      <trkpt lat="37.54206" lon="27.57441">
        <ele>503.395</ele>
      </trkpt>
      <trkpt lat="37.54205" lon="27.57441">
        <ele>503.454</ele>
      </trkpt>
      <trkpt lat="37.542" lon="27.57439">
        <ele>503.955</ele>
      </trkpt>
      <trkpt lat="37.54199" lon="27.57438">
        <ele>504.049</ele>
      </trkpt>
      <trkpt lat="37.54196" lon="27.57432">
        <ele>504.766</ele>
      </trkpt>
      <trkpt lat="37.54195" lon="27.57431">
        <ele>504.851</ele>
      </trkpt>
      <trkpt lat="37.54193" lon="27.5743">
        <ele>505.138</ele>
      </trkpt>
      <trkpt lat="37.54188" lon="27.57424">
        <ele>505.947</ele>
      </trkpt>
      <trkpt lat="37.54187" lon="27.57423">
        <ele>506.143</ele>
      </trkpt>
      <trkpt lat="37.54183" lon="27.5742">
        <ele>506.615</ele>
      </trkpt>
      <trkpt lat="37.54181" lon="27.57415">
        <ele>507.055</ele>
      </trkpt>
      <trkpt lat="37.5418" lon="27.57414">
        <ele>507.21</ele>
      </trkpt>
      <trkpt lat="37.54175" lon="27.57413">
        <ele>507.634</ele>
      </trkpt>
      <trkpt lat="37.54171" lon="27.57409">
        <ele>508.238</ele>
      </trkpt>
      <trkpt lat="37.54168" lon="27.57408">
        <ele>508.509</ele>
      </trkpt>
      <trkpt lat="37.54167" lon="27.57407">
        <ele>508.685</ele>
      </trkpt>
      <trkpt lat="37.5416" lon="27.57402">
        <ele>509.939</ele>
      </trkpt>
      <trkpt lat="37.54155" lon="27.57399">
        <ele>510.676</ele>
      </trkpt>
      <trkpt lat="37.54152" lon="27.57396">
        <ele>511.261</ele>
      </trkpt>
      <trkpt lat="37.54148" lon="27.57393">
        <ele>511.862</ele>
      </trkpt>
      <trkpt lat="37.54143" lon="27.57389">
        <ele>512.592</ele>
      </trkpt>
      <trkpt lat="37.54142" lon="27.57388">
        <ele>512.675</ele>
      </trkpt>
      <trkpt lat="37.54139" lon="27.57387">
        <ele>513.052</ele>
      </trkpt>
      <trkpt lat="37.54134" lon="27.57381">
        <ele>513.314</ele>
      </trkpt>
      <trkpt lat="37.54128" lon="27.57377">
        <ele>513.593</ele>
      </trkpt>
      <trkpt lat="37.54124" lon="27.57374">
        <ele>513.803</ele>
      </trkpt>
      <trkpt lat="37.54118" lon="27.57372">
        <ele>514.053</ele>
      </trkpt>
      <trkpt lat="37.54112" lon="27.57372">
        <ele>514.213</ele>
      </trkpt>
      <trkpt lat="37.54106" lon="27.57368">
        <ele>514.718</ele>
      </trkpt>
      <trkpt lat="37.54103" lon="27.57366">
        <ele>514.995</ele>
      </trkpt>
      <trkpt lat="37.54093" lon="27.57361">
        <ele>515.661</ele>
      </trkpt>
      <trkpt lat="37.5409" lon="27.5736">
        <ele>515.819</ele>
      </trkpt>
      <trkpt lat="37.54082" lon="27.57357">
        <ele>516.266</ele>
      </trkpt>
      <trkpt lat="37.5408" lon="27.57356">
        <ele>516.494</ele>
      </trkpt>
      <trkpt lat="37.54077" lon="27.57355">
        <ele>516.849</ele>
      </trkpt>
      <trkpt lat="37.54076" lon="27.57354">
        <ele>517.013</ele>
      </trkpt>
      <trkpt lat="37.54074" lon="27.57351">
        <ele>517.246</ele>
      </trkpt>
      <trkpt lat="37.54068" lon="27.57344">
        <ele>517.951</ele>
      </trkpt>
      <trkpt lat="37.54067" lon="27.57338">
        <ele>518.131</ele>
      </trkpt>
      <trkpt lat="37.54066" lon="27.57334">
        <ele>518.206</ele>
      </trkpt>
      <trkpt lat="37.54066" lon="27.57334">
        <ele>518.225</ele>
      </trkpt>
      <trkpt lat="37.54065" lon="27.57331">
        <ele>518.502</ele>
      </trkpt>
      <trkpt lat="37.54062" lon="27.57329">
        <ele>518.927</ele>
      </trkpt>
      <trkpt lat="37.54057" lon="27.57328">
        <ele>519.338</ele>
      </trkpt>
      <trkpt lat="37.54051" lon="27.57325">
        <ele>519.998</ele>
      </trkpt>
      <trkpt lat="37.54049" lon="27.57325">
        <ele>520.201</ele>
      </trkpt>
      <trkpt lat="37.54044" lon="27.57324">
        <ele>520.738</ele>
      </trkpt>
      <trkpt lat="37.54042" lon="27.57324">
        <ele>521.003</ele>
      </trkpt>
      <trkpt lat="37.54034" lon="27.57321">
        <ele>521.875</ele>
      </trkpt>
      <trkpt lat="37.54032" lon="27.5732">
        <ele>522.127</ele>
      </trkpt>
      <trkpt lat="37.54029" lon="27.57314">
        <ele>522.568</ele>
      </trkpt>
      <trkpt lat="37.54026" lon="27.57309">
        <ele>523.059</ele>
      </trkpt>
      <trkpt lat="37.54023" lon="27.57305">
        <ele>523.576</ele>
      </trkpt>
      <trkpt lat="37.54019" lon="27.57299">
        <ele>524.142</ele>
      </trkpt>
      <trkpt lat="37.54018" lon="27.57297">
        <ele>524.252</ele>
      </trkpt>
      <trkpt lat="37.54015" lon="27.57298">
        <ele>524.524</ele>
      </trkpt>
      <trkpt lat="37.54011" lon="27.57298">
        <ele>524.946</ele>
      </trkpt>
      <trkpt lat="37.54009" lon="27.57297">
        <ele>525.15</ele>
      </trkpt>
      <trkpt lat="37.54005" lon="27.57299">
        <ele>525.524</ele>
      </trkpt>
      <trkpt lat="37.54002" lon="27.57294">
        <ele>525.797</ele>
      </trkpt>
      <trkpt lat="37.54001" lon="27.57291">
        <ele>525.946</ele>
      </trkpt>
      <trkpt lat="37.54" lon="27.5729">
        <ele>525.997</ele>
      </trkpt>
      <trkpt lat="37.53997" lon="27.57285">
        <ele>525.917</ele>
      </trkpt>
      <trkpt lat="37.53993" lon="27.57282">
        <ele>525.791</ele>
      </trkpt>
      <trkpt lat="37.53988" lon="27.57277">
        <ele>525.574</ele>
      </trkpt>
      <trkpt lat="37.53984" lon="27.57278">
        <ele>525.418</ele>
      </trkpt>
      <trkpt lat="37.53984" lon="27.57279">
        <ele>525.426</ele>
      </trkpt>
      <trkpt lat="37.53981" lon="27.5728">
        <ele>525.357</ele>
      </trkpt>
      <trkpt lat="37.53978" lon="27.57279">
        <ele>525.22</ele>
      </trkpt>
      <trkpt lat="37.53976" lon="27.57277">
        <ele>525.095</ele>
      </trkpt>
      <trkpt lat="37.53977" lon="27.57278">
        <ele>525.187</ele>
      </trkpt>
      <trkpt lat="37.53978" lon="27.57279">
        <ele>525.237</ele>
      </trkpt>
      <trkpt lat="37.53975" lon="27.57278">
        <ele>525.109</ele>
      </trkpt>
      <trkpt lat="37.53972" lon="27.57273">
        <ele>524.819</ele>
      </trkpt>
      <trkpt lat="37.53971" lon="27.57271">
        <ele>524.648</ele>
      </trkpt>
      <trkpt lat="37.53967" lon="27.57268">
        <ele>524.112</ele>
      </trkpt>
      <trkpt lat="37.53967" lon="27.57268">
        <ele>524.077</ele>
      </trkpt>
      <trkpt lat="37.53964" lon="27.57272">
        <ele>523.917</ele>
      </trkpt>
      <trkpt lat="37.53962" lon="27.57277">
        <ele>523.892</ele>
      </trkpt>
      <trkpt lat="37.53959" lon="27.57281">
        <ele>523.821</ele>
      </trkpt>
      <trkpt lat="37.53954" lon="27.57285">
        <ele>523.69</ele>
      </trkpt>
      <trkpt lat="37.53951" lon="27.5729">
        <ele>523.832</ele>
      </trkpt>
      <trkpt lat="37.53949" lon="27.57294">
        <ele>524.056</ele>
      </trkpt>
      <trkpt lat="37.53948" lon="27.573">
        <ele>524.582</ele>
      </trkpt>
      <trkpt lat="37.53947" lon="27.57302">
        <ele>524.682</ele>
      </trkpt>
      <trkpt lat="37.53947" lon="27.57302">
        <ele>524.732</ele>
      </trkpt>
      <trkpt lat="37.53947" lon="27.57303">
        <ele>524.866</ele>
      </trkpt>
      <trkpt lat="37.53946" lon="27.57303">
        <ele>524.752</ele>
      </trkpt>
      <trkpt lat="37.53951" lon="27.57292">
        <ele>523.963</ele>
      </trkpt>
      <trkpt lat="37.5395" lon="27.57283">
        <ele>523.131</ele>
      </trkpt>
      <trkpt lat="37.53949" lon="27.57273">
        <ele>522.304</ele>
      </trkpt>
      <trkpt lat="37.53943" lon="27.57259">
        <ele>521.331</ele>
      </trkpt>
      <trkpt lat="37.53942" lon="27.57254">
        <ele>521.137</ele>
      </trkpt>
      <trkpt lat="37.53941" lon="27.5725">
        <ele>521.017</ele>
      </trkpt>
      <trkpt lat="37.5394" lon="27.57245">
        <ele>521.137</ele>
      </trkpt>
      <trkpt lat="37.53947" lon="27.57234">
        <ele>521.751</ele>
      </trkpt>
      <trkpt lat="37.53948" lon="27.57233">
        <ele>521.833</ele>
      </trkpt>
      <trkpt lat="37.53947" lon="27.57226">
        <ele>522.012</ele>
      </trkpt>
      <trkpt lat="37.53947" lon="27.57221">
        <ele>522.09</ele>
      </trkpt>
      <trkpt lat="37.53942" lon="27.57209">
        <ele>521.883</ele>
      </trkpt>
      <trkpt lat="37.5394" lon="27.57206">
        <ele>521.717</ele>
      </trkpt>
      <trkpt lat="37.53934" lon="27.57202">
        <ele>521.357</ele>
      </trkpt>
      <trkpt lat="37.53933" lon="27.57202">
        <ele>521.296</ele>
      </trkpt>
      <trkpt lat="37.53929" lon="27.572">
        <ele>520.999</ele>
      </trkpt>
      <trkpt lat="37.53925" lon="27.57192">
        <ele>520.652</ele>
      </trkpt>
      <trkpt lat="37.53912" lon="27.57184">
        <ele>519.442</ele>
      </trkpt>
      <trkpt lat="37.53905" lon="27.57182">
        <ele>518.595</ele>
      </trkpt>
      <trkpt lat="37.539" lon="27.57175">
        <ele>517.811</ele>
      </trkpt>
      <trkpt lat="37.53894" lon="27.57162">
        <ele>516.834</ele>
      </trkpt>
      <trkpt lat="37.53891" lon="27.57155">
        <ele>516.71</ele>
      </trkpt>
      <trkpt lat="37.53889" lon="27.5715">
        <ele>516.596</ele>
      </trkpt>
      <trkpt lat="37.53881" lon="27.57128">
        <ele>515.143</ele>
      </trkpt>
      <trkpt lat="37.53873" lon="27.57119">
        <ele>513.682</ele>
      </trkpt>
      <trkpt lat="37.53872" lon="27.57116">
        <ele>513.378</ele>
      </trkpt>
      <trkpt lat="37.53866" lon="27.57111">
        <ele>512.501</ele>
      </trkpt>
      <trkpt lat="37.53865" lon="27.5711">
        <ele>512.252</ele>
      </trkpt>
      <trkpt lat="37.53857" lon="27.57114">
        <ele>511.701</ele>
      </trkpt>
      <trkpt lat="37.53846" lon="27.57112">
        <ele>510.416</ele>
      </trkpt>
      <trkpt lat="37.5384" lon="27.57108">
        <ele>509.537</ele>
      </trkpt>
      <trkpt lat="37.53837" lon="27.57108">
        <ele>509.274</ele>
      </trkpt>
      <trkpt lat="37.53829" lon="27.57094">
        <ele>509.089</ele>
      </trkpt>
      <trkpt lat="37.53828" lon="27.57089">
        <ele>509.062</ele>
      </trkpt>
      <trkpt lat="37.53831" lon="27.57074">
        <ele>508.486</ele>
      </trkpt>
      <trkpt lat="37.53831" lon="27.57067">
        <ele>508.518</ele>
      </trkpt>
      <trkpt lat="37.53839" lon="27.57057">
        <ele>507.631</ele>
      </trkpt>
      <trkpt lat="37.53839" lon="27.57045">
        <ele>507.595</ele>
      </trkpt>
      <trkpt lat="37.53841" lon="27.5704">
        <ele>507.458</ele>
      </trkpt>
      <trkpt lat="37.53841" lon="27.57033">
        <ele>507.457</ele>
      </trkpt>
      <trkpt lat="37.53834" lon="27.5702">
        <ele>507.947</ele>
      </trkpt>
      <trkpt lat="37.53831" lon="27.57014">
        <ele>508.217</ele>
      </trkpt>
      <trkpt lat="37.53826" lon="27.57006">
        <ele>508.611</ele>
      </trkpt>
      <trkpt lat="37.53822" lon="27.57002">
        <ele>508.896</ele>
      </trkpt>
      <trkpt lat="37.53821" lon="27.56996">
        <ele>508.857</ele>
      </trkpt>
      <trkpt lat="37.53818" lon="27.56986">
        <ele>508.837</ele>
      </trkpt>
      <trkpt lat="37.53816" lon="27.5698">
        <ele>508.796</ele>
      </trkpt>
      <trkpt lat="37.53813" lon="27.56969">
        <ele>508.579</ele>
      </trkpt>
      <trkpt lat="37.53812" lon="27.56962">
        <ele>508.183</ele>
      </trkpt>
      <trkpt lat="37.53807" lon="27.56952">
        <ele>507.528</ele>
      </trkpt>
      <trkpt lat="37.53799" lon="27.56947">
        <ele>507.268</ele>
      </trkpt>
      <trkpt lat="37.53797" lon="27.56935">
        <ele>505.836</ele>
      </trkpt>
      <trkpt lat="37.53795" lon="27.56934">
        <ele>505.677</ele>
      </trkpt>
      <trkpt lat="37.53784" lon="27.56932">
        <ele>505.299</ele>
      </trkpt>
      <trkpt lat="37.53774" lon="27.56931">
        <ele>505.014</ele>
      </trkpt>
      <trkpt lat="37.53769" lon="27.5693">
        <ele>504.704</ele>
      </trkpt>
      <trkpt lat="37.53765" lon="27.56922">
        <ele>503.648</ele>
      </trkpt>
      <trkpt lat="37.53762" lon="27.56915">
        <ele>502.972</ele>
      </trkpt>
      <trkpt lat="37.53762" lon="27.56914">
        <ele>502.956</ele>
      </trkpt>
      <trkpt lat="37.53758" lon="27.56909">
        <ele>502.917</ele>
      </trkpt>
      <trkpt lat="37.53761" lon="27.56898">
        <ele>502.728</ele>
      </trkpt>
      <trkpt lat="37.53762" lon="27.56896">
        <ele>502.692</ele>
      </trkpt>
      <trkpt lat="37.53769" lon="27.56886">
        <ele>502.632</ele>
      </trkpt>
      <trkpt lat="37.53773" lon="27.56876">
        <ele>503.248</ele>
      </trkpt>
      <trkpt lat="37.53776" lon="27.56855">
        <ele>505.243</ele>
      </trkpt>
      <trkpt lat="37.53776" lon="27.56853">
        <ele>505.745</ele>
      </trkpt>
      <trkpt lat="37.53778" lon="27.56843">
        <ele>507.326</ele>
      </trkpt>
      <trkpt lat="37.53784" lon="27.56838">
        <ele>507.534</ele>
      </trkpt>
      <trkpt lat="37.53788" lon="27.56832">
        <ele>508.134</ele>
      </trkpt>
      <trkpt lat="37.53795" lon="27.56823">
        <ele>509.386</ele>
      </trkpt>
      <trkpt lat="37.53798" lon="27.56814">
        <ele>511.184</ele>
      </trkpt>
      <trkpt lat="37.53796" lon="27.56799">
        <ele>513.612</ele>
      </trkpt>
      <trkpt lat="37.53793" lon="27.56789">
        <ele>514.722</ele>
      </trkpt>
      <trkpt lat="37.53788" lon="27.56782">
        <ele>515.767</ele>
      </trkpt>
      <trkpt lat="37.5379" lon="27.56773">
        <ele>516.616</ele>
      </trkpt>
      <trkpt lat="37.53792" lon="27.5677">
        <ele>516.701</ele>
      </trkpt>
      <trkpt lat="37.53798" lon="27.56761">
        <ele>516.999</ele>
      </trkpt>
      <trkpt lat="37.53802" lon="27.56755">
        <ele>517.025</ele>
      </trkpt>
      <trkpt lat="37.53802" lon="27.56754">
        <ele>517.059</ele>
      </trkpt>
      <trkpt lat="37.53809" lon="27.56739">
        <ele>517.413</ele>
      </trkpt>
      <trkpt lat="37.53809" lon="27.56728">
        <ele>517.799</ele>
      </trkpt>
      <trkpt lat="37.53814" lon="27.56724">
        <ele>517.93</ele>
      </trkpt>
      <trkpt lat="37.53815" lon="27.56721">
        <ele>518.082</ele>
      </trkpt>
      <trkpt lat="37.53815" lon="27.56712">
        <ele>518.49</ele>
      </trkpt>
      <trkpt lat="37.53814" lon="27.5671">
        <ele>518.623</ele>
      </trkpt>
      <trkpt lat="37.53821" lon="27.56697">
        <ele>518.847</ele>
      </trkpt>
      <trkpt lat="37.53827" lon="27.5669">
        <ele>518.787</ele>
      </trkpt>
      <trkpt lat="37.53825" lon="27.5668">
        <ele>519.506</ele>
      </trkpt>
      <trkpt lat="37.53826" lon="27.56678">
        <ele>519.57</ele>
      </trkpt>
      <trkpt lat="37.53825" lon="27.56671">
        <ele>520.05</ele>
      </trkpt>
      <trkpt lat="37.53827" lon="27.56663">
        <ele>520.592</ele>
      </trkpt>
      <trkpt lat="37.53829" lon="27.56662">
        <ele>520.528</ele>
      </trkpt>
      <trkpt lat="37.53833" lon="27.56653">
        <ele>521.012</ele>
      </trkpt>
      <trkpt lat="37.53833" lon="27.56646">
        <ele>521.492</ele>
      </trkpt>
      <trkpt lat="37.53828" lon="27.56638">
        <ele>522.592</ele>
      </trkpt>
      <trkpt lat="37.53829" lon="27.5663">
        <ele>523.384</ele>
      </trkpt>
      <trkpt lat="37.53828" lon="27.56619">
        <ele>524.427</ele>
      </trkpt>
      <trkpt lat="37.53827" lon="27.56605">
        <ele>525.222</ele>
      </trkpt>
      <trkpt lat="37.53825" lon="27.566">
        <ele>525.286</ele>
      </trkpt>
      <trkpt lat="37.53825" lon="27.566">
        <ele>525.292</ele>
      </trkpt>
      <trkpt lat="37.53825" lon="27.5659">
        <ele>525.288</ele>
      </trkpt>
      <trkpt lat="37.53825" lon="27.56579">
        <ele>525.266</ele>
      </trkpt>
      <trkpt lat="37.53818" lon="27.56576">
        <ele>525.416</ele>
      </trkpt>
      <trkpt lat="37.53818" lon="27.56576">
        <ele>525.416</ele>
      </trkpt>
      <trkpt lat="37.53815" lon="27.56576">
        <ele>525.471</ele>
      </trkpt>
      <trkpt lat="37.53814" lon="27.56577">
        <ele>525.536</ele>
      </trkpt>
      <trkpt lat="37.53814" lon="27.56577">
        <ele>525.53</ele>
      </trkpt>
      <trkpt lat="37.5381" lon="27.56575">
        <ele>525.573</ele>
      </trkpt>
      <trkpt lat="37.53808" lon="27.5657">
        <ele>525.485</ele>
      </trkpt>
      <trkpt lat="37.53806" lon="27.5657">
        <ele>525.526</ele>
      </trkpt>
      <trkpt lat="37.53801" lon="27.56567">
        <ele>525.796</ele>
      </trkpt>
      <trkpt lat="37.538" lon="27.56566">
        <ele>525.862</ele>
      </trkpt>
      <trkpt lat="37.53796" lon="27.56563">
        <ele>526.015</ele>
      </trkpt>
      <trkpt lat="37.53796" lon="27.56562">
        <ele>526</ele>
      </trkpt>
      <trkpt lat="37.53794" lon="27.5656">
        <ele>526.038</ele>
      </trkpt>
      <trkpt lat="37.53787" lon="27.56552">
        <ele>526.081</ele>
      </trkpt>
      <trkpt lat="37.53785" lon="27.56552">
        <ele>526.16</ele>
      </trkpt>
      <trkpt lat="37.5378" lon="27.56549">
        <ele>526.126</ele>
      </trkpt>
      <trkpt lat="37.53783" lon="27.56551">
        <ele>526.251</ele>
      </trkpt>
      <trkpt lat="37.53779" lon="27.56549">
        <ele>526.246</ele>
      </trkpt>
      <trkpt lat="37.5378" lon="27.5655">
        <ele>526.22</ele>
      </trkpt>
      <trkpt lat="37.53777" lon="27.56543">
        <ele>525.797</ele>
      </trkpt>
      <trkpt lat="37.53774" lon="27.56542">
        <ele>526.24</ele>
      </trkpt>
      <trkpt lat="37.53773" lon="27.56542">
        <ele>526.32</ele>
      </trkpt>
      <trkpt lat="37.53768" lon="27.56537">
        <ele>526.609</ele>
      </trkpt>
      <trkpt lat="37.53763" lon="27.56528">
        <ele>526.231</ele>
      </trkpt>
      <trkpt lat="37.53761" lon="27.56526">
        <ele>526.182</ele>
      </trkpt>
      <trkpt lat="37.53761" lon="27.56523">
        <ele>525.887</ele>
      </trkpt>
      <trkpt lat="37.5376" lon="27.56522">
        <ele>525.877</ele>
      </trkpt>
      <trkpt lat="37.53755" lon="27.56513">
        <ele>525.341</ele>
      </trkpt>
      <trkpt lat="37.53752" lon="27.56509">
        <ele>525.021</ele>
      </trkpt>
      <trkpt lat="37.53752" lon="27.56509">
        <ele>525.122</ele>
      </trkpt>
      <trkpt lat="37.53751" lon="27.56507">
        <ele>525.028</ele>
      </trkpt>
      <trkpt lat="37.53744" lon="27.56503">
        <ele>525.5</ele>
      </trkpt>
      <trkpt lat="37.53743" lon="27.56502">
        <ele>525.68</ele>
      </trkpt>
      <trkpt lat="37.53742" lon="27.56498">
        <ele>525.305</ele>
      </trkpt>
      <trkpt lat="37.53742" lon="27.56499">
        <ele>525.248</ele>
      </trkpt>
      <trkpt lat="37.53742" lon="27.56498">
        <ele>525.188</ele>
      </trkpt>
      <trkpt lat="37.53741" lon="27.56496">
        <ele>525.007</ele>
      </trkpt>
      <trkpt lat="37.53742" lon="27.56493">
        <ele>524.503</ele>
      </trkpt>
      <trkpt lat="37.53741" lon="27.56492">
        <ele>524.52</ele>
      </trkpt>
      <trkpt lat="37.5374" lon="27.56492">
        <ele>524.854</ele>
      </trkpt>
      <trkpt lat="37.5374" lon="27.56492">
        <ele>524.694</ele>
      </trkpt>
      <trkpt lat="37.53741" lon="27.56487">
        <ele>523.96</ele>
      </trkpt>
      <trkpt lat="37.5374" lon="27.56478">
        <ele>522.883</ele>
      </trkpt>
      <trkpt lat="37.5374" lon="27.56472">
        <ele>522.097</ele>
      </trkpt>
      <trkpt lat="37.5374" lon="27.56472">
        <ele>522.042</ele>
      </trkpt>
      <trkpt lat="37.53739" lon="27.56472">
        <ele>522.236</ele>
      </trkpt>
      <trkpt lat="37.53736" lon="27.56472">
        <ele>522.964</ele>
      </trkpt>
      <trkpt lat="37.53735" lon="27.56474">
        <ele>523.399</ele>
      </trkpt>
      <trkpt lat="37.53734" lon="27.5647">
        <ele>523.344</ele>
      </trkpt>
      <trkpt lat="37.53733" lon="27.56462">
        <ele>522.822</ele>
      </trkpt>
      <trkpt lat="37.53733" lon="27.5646">
        <ele>522.704</ele>
      </trkpt>
      <trkpt lat="37.53733" lon="27.5646">
        <ele>522.704</ele>
      </trkpt>
      <trkpt lat="37.53731" lon="27.56453">
        <ele>522.579</ele>
      </trkpt>
      <trkpt lat="37.53732" lon="27.56451">
        <ele>522.194</ele>
      </trkpt>
      <trkpt lat="37.53732" lon="27.56451">
        <ele>522.194</ele>
      </trkpt>
      <trkpt lat="37.53732" lon="27.5644">
        <ele>521.386</ele>
      </trkpt>
      <trkpt lat="37.5373" lon="27.56434">
        <ele>521.553</ele>
      </trkpt>
      <trkpt lat="37.53732" lon="27.56422">
        <ele>520.55</ele>
      </trkpt>
      <trkpt lat="37.53731" lon="27.56421">
        <ele>520.801</ele>
      </trkpt>
      <trkpt lat="37.5373" lon="27.56418">
        <ele>520.866</ele>
      </trkpt>
      <trkpt lat="37.53728" lon="27.56414">
        <ele>521.097</ele>
      </trkpt>
      <trkpt lat="37.53727" lon="27.56409">
        <ele>520.978</ele>
      </trkpt>
      <trkpt lat="37.53725" lon="27.56405">
        <ele>521.095</ele>
      </trkpt>
      <trkpt lat="37.53725" lon="27.56404">
        <ele>521.146</ele>
      </trkpt>
      <trkpt lat="37.53724" lon="27.56404">
        <ele>521.274</ele>
      </trkpt>
      <trkpt lat="37.53719" lon="27.56395">
        <ele>521.018</ele>
      </trkpt>
      <trkpt lat="37.53719" lon="27.5639">
        <ele>520.6</ele>
      </trkpt>
      <trkpt lat="37.53718" lon="27.56388">
        <ele>520.507</ele>
      </trkpt>
      <trkpt lat="37.53717" lon="27.56387">
        <ele>520.575</ele>
      </trkpt>
      <trkpt lat="37.53716" lon="27.56387">
        <ele>520.726</ele>
      </trkpt>
      <trkpt lat="37.53715" lon="27.56386">
        <ele>520.838</ele>
      </trkpt>
      <trkpt lat="37.53715" lon="27.56385">
        <ele>520.819</ele>
      </trkpt>
      <trkpt lat="37.53714" lon="27.56385">
        <ele>520.876</ele>
      </trkpt>
      <trkpt lat="37.53714" lon="27.56382">
        <ele>520.722</ele>
      </trkpt>
      <trkpt lat="37.53713" lon="27.56373">
        <ele>520.154</ele>
      </trkpt>
      <trkpt lat="37.53713" lon="27.56368">
        <ele>519.84</ele>
      </trkpt>
      <trkpt lat="37.53712" lon="27.56363">
        <ele>519.65</ele>
      </trkpt>
      <trkpt lat="37.53711" lon="27.5636">
        <ele>519.712</ele>
      </trkpt>
      <trkpt lat="37.53715" lon="27.56356">
        <ele>519.268</ele>
      </trkpt>
      <trkpt lat="37.53715" lon="27.56356">
        <ele>519.299</ele>
      </trkpt>
      <trkpt lat="37.53718" lon="27.5635">
        <ele>519.077</ele>
      </trkpt>
      <trkpt lat="37.53717" lon="27.56342">
        <ele>519.488</ele>
      </trkpt>
      <trkpt lat="37.53718" lon="27.56342">
        <ele>519.472</ele>
      </trkpt>
      <trkpt lat="37.53718" lon="27.56342">
        <ele>519.423</ele>
      </trkpt>
      <trkpt lat="37.53719" lon="27.56342">
        <ele>519.153</ele>
      </trkpt>
      <trkpt lat="37.53719" lon="27.56341">
        <ele>519.194</ele>
      </trkpt>
      <trkpt lat="37.53721" lon="27.56341">
        <ele>519.032</ele>
      </trkpt>
      <trkpt lat="37.53724" lon="27.56341">
        <ele>518.592</ele>
      </trkpt>
      <trkpt lat="37.53726" lon="27.56339">
        <ele>518.427</ele>
      </trkpt>
      <trkpt lat="37.53729" lon="27.56328">
        <ele>518.618</ele>
      </trkpt>
      <trkpt lat="37.53729" lon="27.56326">
        <ele>518.822</ele>
      </trkpt>
      <trkpt lat="37.5373" lon="27.56325">
        <ele>518.785</ele>
      </trkpt>
      <trkpt lat="37.5373" lon="27.56325">
        <ele>518.78</ele>
      </trkpt>
      <trkpt lat="37.53732" lon="27.56317">
        <ele>519.159</ele>
      </trkpt>
      <trkpt lat="37.53732" lon="27.56315">
        <ele>519.249</ele>
      </trkpt>
      <trkpt lat="37.53734" lon="27.56312">
        <ele>519.282</ele>
      </trkpt>
      <trkpt lat="37.53735" lon="27.56311">
        <ele>519.188</ele>
      </trkpt>
      <trkpt lat="37.53738" lon="27.56308">
        <ele>519.148</ele>
      </trkpt>
      <trkpt lat="37.53739" lon="27.56304">
        <ele>519.387</ele>
      </trkpt>
      <trkpt lat="37.53739" lon="27.56304">
        <ele>519.368</ele>
      </trkpt>
      <trkpt lat="37.53739" lon="27.56301">
        <ele>519.543</ele>
      </trkpt>
      <trkpt lat="37.53739" lon="27.56292">
        <ele>520.254</ele>
      </trkpt>
      <trkpt lat="37.5374" lon="27.56291">
        <ele>520.291</ele>
      </trkpt>
      <trkpt lat="37.53739" lon="27.56292">
        <ele>520.269</ele>
      </trkpt>
      <trkpt lat="37.53739" lon="27.56289">
        <ele>520.559</ele>
      </trkpt>
      <trkpt lat="37.53741" lon="27.56281">
        <ele>521.087</ele>
      </trkpt>
      <trkpt lat="37.53741" lon="27.56279">
        <ele>521.205</ele>
      </trkpt>
      <trkpt lat="37.53741" lon="27.56278">
        <ele>521.296</ele>
      </trkpt>
      <trkpt lat="37.53741" lon="27.56277">
        <ele>521.377</ele>
      </trkpt>
      <trkpt lat="37.5374" lon="27.56272">
        <ele>521.558</ele>
      </trkpt>
      <trkpt lat="37.53741" lon="27.56268">
        <ele>521.684</ele>
      </trkpt>
      <trkpt lat="37.53742" lon="27.56263">
        <ele>521.805</ele>
      </trkpt>
      <trkpt lat="37.53742" lon="27.56262">
        <ele>521.841</ele>
      </trkpt>
      <trkpt lat="37.53742" lon="27.56262">
        <ele>521.839</ele>
      </trkpt>
      <trkpt lat="37.53743" lon="27.56262">
        <ele>521.854</ele>
      </trkpt>
      <trkpt lat="37.53743" lon="27.56261">
        <ele>521.88</ele>
      </trkpt>
      <trkpt lat="37.53742" lon="27.56261">
        <ele>521.899</ele>
      </trkpt>
      <trkpt lat="37.53742" lon="27.56253">
        <ele>522.178</ele>
      </trkpt>
      <trkpt lat="37.53739" lon="27.56251">
        <ele>522.361</ele>
      </trkpt>
      <trkpt lat="37.53734" lon="27.5624">
        <ele>522.924</ele>
      </trkpt>
      <trkpt lat="37.5373" lon="27.56229">
        <ele>523.485</ele>
      </trkpt>
      <trkpt lat="37.53727" lon="27.5622">
        <ele>524.069</ele>
      </trkpt>
      <trkpt lat="37.53727" lon="27.56218">
        <ele>524.268</ele>
      </trkpt>
      <trkpt lat="37.53732" lon="27.56209">
        <ele>524.741</ele>
      </trkpt>
      <trkpt lat="37.53731" lon="27.56202">
        <ele>525.46</ele>
      </trkpt>
      <trkpt lat="37.5373" lon="27.56195">
        <ele>526.144</ele>
      </trkpt>
      <trkpt lat="37.53729" lon="27.56189">
        <ele>526.596</ele>
      </trkpt>
      <trkpt lat="37.5373" lon="27.56185">
        <ele>526.741</ele>
      </trkpt>
      <trkpt lat="37.53732" lon="27.56171">
        <ele>527.331</ele>
      </trkpt>
      <trkpt lat="37.53718" lon="27.56141">
        <ele>531.231</ele>
      </trkpt>
      <trkpt lat="37.53717" lon="27.56134">
        <ele>531.414</ele>
      </trkpt>
      <trkpt lat="37.53717" lon="27.56133">
        <ele>531.514</ele>
      </trkpt>
      <trkpt lat="37.53715" lon="27.56127">
        <ele>531.816</ele>
      </trkpt>
      <trkpt lat="37.53714" lon="27.56125">
        <ele>531.968</ele>
      </trkpt>
      <trkpt lat="37.53714" lon="27.5612">
        <ele>532.06</ele>
      </trkpt>
      <trkpt lat="37.53713" lon="27.56117">
        <ele>532.149</ele>
      </trkpt>
      <trkpt lat="37.53712" lon="27.56116">
        <ele>532.3</ele>
      </trkpt>
      <trkpt lat="37.53711" lon="27.56114">
        <ele>532.523</ele>
      </trkpt>
      <trkpt lat="37.53711" lon="27.56113">
        <ele>532.489</ele>
      </trkpt>
      <trkpt lat="37.53711" lon="27.56114">
        <ele>532.544</ele>
      </trkpt>
      <trkpt lat="37.53709" lon="27.56114">
        <ele>533.003</ele>
      </trkpt>
      <trkpt lat="37.53708" lon="27.5611">
        <ele>533.118</ele>
      </trkpt>
      <trkpt lat="37.53708" lon="27.5611">
        <ele>533.118</ele>
      </trkpt>
      <trkpt lat="37.5371" lon="27.56098">
        <ele>532.496</ele>
      </trkpt>
      <trkpt lat="37.53709" lon="27.56095">
        <ele>532.523</ele>
      </trkpt>
      <trkpt lat="37.53709" lon="27.5609">
        <ele>532.462</ele>
      </trkpt>
      <trkpt lat="37.53711" lon="27.5608">
        <ele>531.945</ele>
      </trkpt>
      <trkpt lat="37.5371" lon="27.56079">
        <ele>531.997</ele>
      </trkpt>
      <trkpt lat="37.5371" lon="27.56079">
        <ele>531.953</ele>
      </trkpt>
      <trkpt lat="37.53708" lon="27.56072">
        <ele>531.894</ele>
      </trkpt>
      <trkpt lat="37.53708" lon="27.56072">
        <ele>531.998</ele>
      </trkpt>
      <trkpt lat="37.53708" lon="27.56073">
        <ele>531.99</ele>
      </trkpt>
      <trkpt lat="37.53707" lon="27.56069">
        <ele>531.908</ele>
      </trkpt>
      <trkpt lat="37.53705" lon="27.56067">
        <ele>532.123</ele>
      </trkpt>
      <trkpt lat="37.53706" lon="27.56066">
        <ele>531.975</ele>
      </trkpt>
      <trkpt lat="37.53704" lon="27.56061">
        <ele>532.043</ele>
      </trkpt>
      <trkpt lat="37.537" lon="27.56053">
        <ele>532.053</ele>
      </trkpt>
      <trkpt lat="37.53699" lon="27.56049">
        <ele>532.177</ele>
      </trkpt>
      <trkpt lat="37.53698" lon="27.56048">
        <ele>532.204</ele>
      </trkpt>
      <trkpt lat="37.53696" lon="27.56045">
        <ele>532.332</ele>
      </trkpt>
      <trkpt lat="37.53693" lon="27.56038">
        <ele>532.612</ele>
      </trkpt>
      <trkpt lat="37.53693" lon="27.56034">
        <ele>532.528</ele>
      </trkpt>
      <trkpt lat="37.53694" lon="27.56028">
        <ele>532.111</ele>
      </trkpt>
      <trkpt lat="37.53694" lon="27.56029">
        <ele>532.181</ele>
      </trkpt>
      <trkpt lat="37.53691" lon="27.56029">
        <ele>532.688</ele>
      </trkpt>
      <trkpt lat="37.53691" lon="27.56029">
        <ele>532.649</ele>
      </trkpt>
      <trkpt lat="37.53691" lon="27.56011">
        <ele>532.543</ele>
      </trkpt>
      <trkpt lat="37.53692" lon="27.56009">
        <ele>532.336</ele>
      </trkpt>
      <trkpt lat="37.53691" lon="27.55999">
        <ele>532.484</ele>
      </trkpt>
      <trkpt lat="37.53691" lon="27.55998">
        <ele>532.635</ele>
      </trkpt>
      <trkpt lat="37.53691" lon="27.55994">
        <ele>532.864</ele>
      </trkpt>
      <trkpt lat="37.53691" lon="27.55993">
        <ele>532.895</ele>
      </trkpt>
      <trkpt lat="37.5369" lon="27.55991">
        <ele>533.184</ele>
      </trkpt>
      <trkpt lat="37.53691" lon="27.55989">
        <ele>533.186</ele>
      </trkpt>
      <trkpt lat="37.53691" lon="27.55986">
        <ele>533.388</ele>
      </trkpt>
      <trkpt lat="37.53692" lon="27.55982">
        <ele>533.51</ele>
      </trkpt>
      <trkpt lat="37.53692" lon="27.55979">
        <ele>533.718</ele>
      </trkpt>
      <trkpt lat="37.53693" lon="27.5598">
        <ele>533.578</ele>
      </trkpt>
      <trkpt lat="37.53693" lon="27.55985">
        <ele>533.253</ele>
      </trkpt>
      <trkpt lat="37.53693" lon="27.55988">
        <ele>533.033</ele>
      </trkpt>
      <trkpt lat="37.53694" lon="27.55983">
        <ele>533.301</ele>
      </trkpt>
      <trkpt lat="37.53694" lon="27.5598">
        <ele>533.448</ele>
      </trkpt>
      <trkpt lat="37.53695" lon="27.55975">
        <ele>533.828</ele>
      </trkpt>
      <trkpt lat="37.53696" lon="27.55973">
        <ele>533.726</ele>
      </trkpt>
      <trkpt lat="37.53696" lon="27.55973">
        <ele>533.664</ele>
      </trkpt>
      <trkpt lat="37.53695" lon="27.55973">
        <ele>533.866</ele>
      </trkpt>
      <trkpt lat="37.53695" lon="27.55968">
        <ele>534.238</ele>
      </trkpt>
      <trkpt lat="37.53695" lon="27.55968">
        <ele>534.247</ele>
      </trkpt>
      <trkpt lat="37.53689" lon="27.55966">
        <ele>534.839</ele>
      </trkpt>
      <trkpt lat="37.53688" lon="27.55965">
        <ele>535.022</ele>
      </trkpt>
      <trkpt lat="37.53687" lon="27.55961">
        <ele>535.421</ele>
      </trkpt>
      <trkpt lat="37.53686" lon="27.55959">
        <ele>535.731</ele>
      </trkpt>
      <trkpt lat="37.53687" lon="27.55957">
        <ele>535.787</ele>
      </trkpt>
      <trkpt lat="37.53685" lon="27.55956">
        <ele>535.998</ele>
      </trkpt>
      <trkpt lat="37.53683" lon="27.55952">
        <ele>536.643</ele>
      </trkpt>
      <trkpt lat="37.53682" lon="27.55949">
        <ele>536.938</ele>
      </trkpt>
      <trkpt lat="37.53684" lon="27.55942">
        <ele>537.311</ele>
      </trkpt>
      <trkpt lat="37.53686" lon="27.55941">
        <ele>537.172</ele>
      </trkpt>
      <trkpt lat="37.53687" lon="27.55941">
        <ele>537.097</ele>
      </trkpt>
      <trkpt lat="37.53687" lon="27.55941">
        <ele>537.094</ele>
      </trkpt>
      <trkpt lat="37.53688" lon="27.55933">
        <ele>537.698</ele>
      </trkpt>
      <trkpt lat="37.53687" lon="27.55928">
        <ele>538.064</ele>
      </trkpt>
      <trkpt lat="37.5369" lon="27.55922">
        <ele>538.294</ele>
      </trkpt>
      <trkpt lat="37.5369" lon="27.55919">
        <ele>538.496</ele>
      </trkpt>
      <trkpt lat="37.53691" lon="27.55919">
        <ele>538.389</ele>
      </trkpt>
      <trkpt lat="37.53691" lon="27.55913">
        <ele>538.761</ele>
      </trkpt>
      <trkpt lat="37.53692" lon="27.55906">
        <ele>538.795</ele>
      </trkpt>
      <trkpt lat="37.53696" lon="27.55898">
        <ele>538.429</ele>
      </trkpt>
      <trkpt lat="37.537" lon="27.55896">
        <ele>537.866</ele>
      </trkpt>
      <trkpt lat="37.537" lon="27.55894">
        <ele>537.809</ele>
      </trkpt>
      <trkpt lat="37.53703" lon="27.55891">
        <ele>537.382</ele>
      </trkpt>
      <trkpt lat="37.53708" lon="27.55889">
        <ele>536.544</ele>
      </trkpt>
      <trkpt lat="37.53709" lon="27.55888">
        <ele>536.355</ele>
      </trkpt>
      <trkpt lat="37.53714" lon="27.55882">
        <ele>535.412</ele>
      </trkpt>
      <trkpt lat="37.53716" lon="27.55877">
        <ele>535.067</ele>
      </trkpt>
      <trkpt lat="37.53721" lon="27.55868">
        <ele>534.243</ele>
      </trkpt>
      <trkpt lat="37.53721" lon="27.55869">
        <ele>534.242</ele>
      </trkpt>
      <trkpt lat="37.53722" lon="27.55865">
        <ele>533.997</ele>
      </trkpt>
      <trkpt lat="37.53723" lon="27.55864">
        <ele>533.984</ele>
      </trkpt>
      <trkpt lat="37.53726" lon="27.55856">
        <ele>533.812</ele>
      </trkpt>
      <trkpt lat="37.53726" lon="27.55855">
        <ele>533.786</ele>
      </trkpt>
      <trkpt lat="37.53726" lon="27.55855">
        <ele>533.786</ele>
      </trkpt>
      <trkpt lat="37.53727" lon="27.55845">
        <ele>533.593</ele>
      </trkpt>
      <trkpt lat="37.53733" lon="27.55833">
        <ele>532.83</ele>
      </trkpt>
      <trkpt lat="37.53733" lon="27.55822">
        <ele>531.604</ele>
      </trkpt>
      <trkpt lat="37.53735" lon="27.55808">
        <ele>529.89</ele>
      </trkpt>
      <trkpt lat="37.53736" lon="27.55793">
        <ele>528.68</ele>
      </trkpt>
      <trkpt lat="37.53736" lon="27.55778">
        <ele>527.507</ele>
      </trkpt>
      <trkpt lat="37.53735" lon="27.55772">
        <ele>527.294</ele>
      </trkpt>
      <trkpt lat="37.53728" lon="27.55766">
        <ele>527.65</ele>
      </trkpt>
      <trkpt lat="37.53725" lon="27.55755">
        <ele>527.167</ele>
      </trkpt>
      <trkpt lat="37.53721" lon="27.55745">
        <ele>526.698</ele>
      </trkpt>
      <trkpt lat="37.53715" lon="27.55741">
        <ele>527.482</ele>
      </trkpt>
      <trkpt lat="37.53717" lon="27.55729">
        <ele>525.592</ele>
      </trkpt>
      <trkpt lat="37.53718" lon="27.55728">
        <ele>525.286</ele>
      </trkpt>
      <trkpt lat="37.53719" lon="27.55718">
        <ele>523.857</ele>
      </trkpt>
      <trkpt lat="37.53721" lon="27.55712">
        <ele>522.688</ele>
      </trkpt>
      <trkpt lat="37.53717" lon="27.55708">
        <ele>522.581</ele>
      </trkpt>
      <trkpt lat="37.53709" lon="27.55701">
        <ele>522.382</ele>
      </trkpt>
      <trkpt lat="37.53708" lon="27.55697">
        <ele>521.978</ele>
      </trkpt>
      <trkpt lat="37.53707" lon="27.55686">
        <ele>520.025</ele>
      </trkpt>
      <trkpt lat="37.53705" lon="27.55677">
        <ele>518.565</ele>
      </trkpt>
      <trkpt lat="37.53708" lon="27.55671">
        <ele>517.228</ele>
      </trkpt>
      <trkpt lat="37.53709" lon="27.55666">
        <ele>516.43</ele>
      </trkpt>
      <trkpt lat="37.53711" lon="27.55663">
        <ele>515.816</ele>
      </trkpt>
      <trkpt lat="37.53718" lon="27.55653">
        <ele>514.05</ele>
      </trkpt>
      <trkpt lat="37.53719" lon="27.55646">
        <ele>513.034</ele>
      </trkpt>
      <trkpt lat="37.53717" lon="27.55632">
        <ele>511.096</ele>
      </trkpt>
      <trkpt lat="37.53721" lon="27.55622">
        <ele>509.648</ele>
      </trkpt>
      <trkpt lat="37.5372" lon="27.55619">
        <ele>509.199</ele>
      </trkpt>
      <trkpt lat="37.5372" lon="27.55619">
        <ele>509.237</ele>
      </trkpt>
      <trkpt lat="37.53718" lon="27.55615">
        <ele>508.636</ele>
      </trkpt>
      <trkpt lat="37.53718" lon="27.55616">
        <ele>508.817</ele>
      </trkpt>
      <trkpt lat="37.5372" lon="27.55604">
        <ele>507.328</ele>
      </trkpt>
      <trkpt lat="37.53723" lon="27.55596">
        <ele>506.283</ele>
      </trkpt>
      <trkpt lat="37.53723" lon="27.55586">
        <ele>505.246</ele>
      </trkpt>
      <trkpt lat="37.53722" lon="27.55584">
        <ele>505.106</ele>
      </trkpt>
      <trkpt lat="37.53713" lon="27.55575">
        <ele>503.979</ele>
      </trkpt>
      <trkpt lat="37.53711" lon="27.55574">
        <ele>503.916</ele>
      </trkpt>
      <trkpt lat="37.53709" lon="27.55564">
        <ele>502.22</ele>
      </trkpt>
      <trkpt lat="37.53712" lon="27.55556">
        <ele>500.782</ele>
      </trkpt>
      <trkpt lat="37.53707" lon="27.55548">
        <ele>499.346</ele>
      </trkpt>
      <trkpt lat="37.53699" lon="27.5554">
        <ele>497.861</ele>
      </trkpt>
      <trkpt lat="37.53698" lon="27.55539">
        <ele>497.671</ele>
      </trkpt>
      <trkpt lat="37.53698" lon="27.55535">
        <ele>496.637</ele>
      </trkpt>
      <trkpt lat="37.53697" lon="27.55528">
        <ele>495.006</ele>
      </trkpt>
      <trkpt lat="37.53692" lon="27.55526">
        <ele>494.488</ele>
      </trkpt>
      <trkpt lat="37.53692" lon="27.55526">
        <ele>494.343</ele>
      </trkpt>
      <trkpt lat="37.53689" lon="27.5552">
        <ele>492.844</ele>
      </trkpt>
      <trkpt lat="37.53684" lon="27.55521">
        <ele>492.675</ele>
      </trkpt>
      <trkpt lat="37.53683" lon="27.55521">
        <ele>492.395</ele>
      </trkpt>
      <trkpt lat="37.53674" lon="27.55515">
        <ele>490.069</ele>
      </trkpt>
      <trkpt lat="37.53672" lon="27.55513">
        <ele>489.432</ele>
      </trkpt>
      <trkpt lat="37.53669" lon="27.5551">
        <ele>488.194</ele>
      </trkpt>
      <trkpt lat="37.53669" lon="27.55508">
        <ele>487.637</ele>
      </trkpt>
      <trkpt lat="37.53673" lon="27.55506">
        <ele>487.569</ele>
      </trkpt>
      <trkpt lat="37.53673" lon="27.55503">
        <ele>486.788</ele>
      </trkpt>
      <trkpt lat="37.53674" lon="27.55494">
        <ele>484.9</ele>
      </trkpt>
      <trkpt lat="37.53675" lon="27.55495">
        <ele>485.249</ele>
      </trkpt>
      <trkpt lat="37.53682" lon="27.55485">
        <ele>484.78</ele>
      </trkpt>
      <trkpt lat="37.53674" lon="27.55479">
        <ele>482.465</ele>
      </trkpt>
      <trkpt lat="37.5367" lon="27.5548">
        <ele>481.899</ele>
      </trkpt>
      <trkpt lat="37.53667" lon="27.5547">
        <ele>479.912</ele>
      </trkpt>
      <trkpt lat="37.53666" lon="27.55469">
        <ele>479.716</ele>
      </trkpt>
      <trkpt lat="37.53663" lon="27.55467">
        <ele>479.221</ele>
      </trkpt>
      <trkpt lat="37.53662" lon="27.55467">
        <ele>479.069</ele>
      </trkpt>
      <trkpt lat="37.53657" lon="27.55468">
        <ele>478.477</ele>
      </trkpt>
      <trkpt lat="37.53651" lon="27.55464">
        <ele>477.357</ele>
      </trkpt>
      <trkpt lat="37.53642" lon="27.55461">
        <ele>475.798</ele>
      </trkpt>
      <trkpt lat="37.53634" lon="27.55456">
        <ele>475.159</ele>
      </trkpt>
      <trkpt lat="37.53627" lon="27.55449">
        <ele>474.008</ele>
      </trkpt>
      <trkpt lat="37.53625" lon="27.55442">
        <ele>472.556</ele>
      </trkpt>
      <trkpt lat="37.53622" lon="27.55436">
        <ele>471.024</ele>
      </trkpt>
      <trkpt lat="37.5362" lon="27.55433">
        <ele>470.064</ele>
      </trkpt>
      <trkpt lat="37.53615" lon="27.55424">
        <ele>466.923</ele>
      </trkpt>
      <trkpt lat="37.53609" lon="27.55418">
        <ele>464.547</ele>
      </trkpt>
      <trkpt lat="37.53601" lon="27.55409">
        <ele>464.262</ele>
      </trkpt>
      <trkpt lat="37.53591" lon="27.55401">
        <ele>463.8</ele>
      </trkpt>
      <trkpt lat="37.53583" lon="27.55398">
        <ele>463.81</ele>
      </trkpt>
      <trkpt lat="37.53574" lon="27.55396">
        <ele>464.694</ele>
      </trkpt>
      <trkpt lat="37.53569" lon="27.55401">
        <ele>466.523</ele>
      </trkpt>
      <trkpt lat="37.53563" lon="27.55399">
        <ele>466.73</ele>
      </trkpt>
      <trkpt lat="37.53554" lon="27.55384">
        <ele>464.271</ele>
      </trkpt>
      <trkpt lat="37.53544" lon="27.55376">
        <ele>463.657</ele>
      </trkpt>
      <trkpt lat="37.53539" lon="27.55371">
        <ele>462.483</ele>
      </trkpt>
      <trkpt lat="37.5353" lon="27.55364">
        <ele>461.078</ele>
      </trkpt>
      <trkpt lat="37.53535" lon="27.5536">
        <ele>459.481</ele>
      </trkpt>
      <trkpt lat="37.53538" lon="27.55358">
        <ele>458.802</ele>
      </trkpt>
      <trkpt lat="37.53538" lon="27.5535">
        <ele>456.745</ele>
      </trkpt>
      <trkpt lat="37.53536" lon="27.55344">
        <ele>455.236</ele>
      </trkpt>
      <trkpt lat="37.53536" lon="27.55342">
        <ele>454.7</ele>
      </trkpt>
      <trkpt lat="37.53535" lon="27.5534">
        <ele>454.291</ele>
      </trkpt>
      <trkpt lat="37.5353" lon="27.55338">
        <ele>453.387</ele>
      </trkpt>
      <trkpt lat="37.53529" lon="27.55337">
        <ele>453.033</ele>
      </trkpt>
      <trkpt lat="37.53521" lon="27.55329">
        <ele>450.434</ele>
      </trkpt>
      <trkpt lat="37.53516" lon="27.55331">
        <ele>450.709</ele>
      </trkpt>
      <trkpt lat="37.53517" lon="27.55331">
        <ele>450.83</ele>
      </trkpt>
      <trkpt lat="37.53511" lon="27.55331">
        <ele>450.694</ele>
      </trkpt>
      <trkpt lat="37.53511" lon="27.5533">
        <ele>450.375</ele>
      </trkpt>
      <trkpt lat="37.53509" lon="27.55329">
        <ele>449.612</ele>
      </trkpt>
      <trkpt lat="37.53503" lon="27.55326">
        <ele>448.43</ele>
      </trkpt>
      <trkpt lat="37.53497" lon="27.55323">
        <ele>446.941</ele>
      </trkpt>
      <trkpt lat="37.53494" lon="27.55323">
        <ele>446.995</ele>
      </trkpt>
      <trkpt lat="37.53486" lon="27.55324">
        <ele>447.765</ele>
      </trkpt>
      <trkpt lat="37.5348" lon="27.55316">
        <ele>444.041</ele>
      </trkpt>
      <trkpt lat="37.53476" lon="27.55308">
        <ele>440.553</ele>
      </trkpt>
      <trkpt lat="37.53473" lon="27.55306">
        <ele>439.169</ele>
      </trkpt>
      <trkpt lat="37.53474" lon="27.55303">
        <ele>437.615</ele>
      </trkpt>
      <trkpt lat="37.53477" lon="27.553">
        <ele>436.438</ele>
      </trkpt>
      <trkpt lat="37.53468" lon="27.55294">
        <ele>434.215</ele>
      </trkpt>
      <trkpt lat="37.53459" lon="27.55289">
        <ele>433.161</ele>
      </trkpt>
      <trkpt lat="37.53455" lon="27.5529">
        <ele>434.243</ele>
      </trkpt>
      <trkpt lat="37.53445" lon="27.55282">
        <ele>433.421</ele>
      </trkpt>
      <trkpt lat="37.53444" lon="27.55279">
        <ele>432.755</ele>
      </trkpt>
      <trkpt lat="37.53437" lon="27.55271">
        <ele>434.258</ele>
      </trkpt>
      <trkpt lat="37.53433" lon="27.55265">
        <ele>435.249</ele>
      </trkpt>
      <trkpt lat="37.5343" lon="27.55256">
        <ele>435.174</ele>
      </trkpt>
      <trkpt lat="37.53431" lon="27.55243">
        <ele>432.803</ele>
      </trkpt>
      <trkpt lat="37.53432" lon="27.55235">
        <ele>430.537</ele>
      </trkpt>
      <trkpt lat="37.53435" lon="27.55226">
        <ele>427.797</ele>
      </trkpt>
      <trkpt lat="37.53436" lon="27.55221">
        <ele>426.443</ele>
      </trkpt>
      <trkpt lat="37.53436" lon="27.55216">
        <ele>425.578</ele>
      </trkpt>
      <trkpt lat="37.53436" lon="27.55208">
        <ele>423.614</ele>
      </trkpt>
      <trkpt lat="37.53438" lon="27.55196">
        <ele>421.024</ele>
      </trkpt>
      <trkpt lat="37.53431" lon="27.55183">
        <ele>421.019</ele>
      </trkpt>
      <trkpt lat="37.53429" lon="27.55174">
        <ele>419.603</ele>
      </trkpt>
      <trkpt lat="37.53432" lon="27.55159">
        <ele>415.734</ele>
      </trkpt>
      <trkpt lat="37.53434" lon="27.55145">
        <ele>412.808</ele>
      </trkpt>
      <trkpt lat="37.53431" lon="27.55131">
        <ele>411.814</ele>
      </trkpt>
      <trkpt lat="37.53425" lon="27.55117">
        <ele>411.578</ele>
      </trkpt>
      <trkpt lat="37.53422" lon="27.55107">
        <ele>411.035</ele>
      </trkpt>
      <trkpt lat="37.5342" lon="27.55097">
        <ele>410.261</ele>
      </trkpt>
      <trkpt lat="37.53418" lon="27.55084">
        <ele>408.729</ele>
      </trkpt>
      <trkpt lat="37.53419" lon="27.5508">
        <ele>407.822</ele>
      </trkpt>
      <trkpt lat="37.53419" lon="27.55078">
        <ele>407.236</ele>
      </trkpt>
      <trkpt lat="37.53421" lon="27.55063">
        <ele>403.464</ele>
      </trkpt>
      <trkpt lat="37.53416" lon="27.55056">
        <ele>402.009</ele>
      </trkpt>
      <trkpt lat="37.53416" lon="27.55057">
        <ele>402.288</ele>
      </trkpt>
      <trkpt lat="37.53417" lon="27.55046">
        <ele>399.441</ele>
      </trkpt>
      <trkpt lat="37.53417" lon="27.55045">
        <ele>399.335</ele>
      </trkpt>
      <trkpt lat="37.5342" lon="27.5504">
        <ele>397.703</ele>
      </trkpt>
      <trkpt lat="37.53427" lon="27.55031">
        <ele>394.707</ele>
      </trkpt>
      <trkpt lat="37.53429" lon="27.55029">
        <ele>393.933</ele>
      </trkpt>
      <trkpt lat="37.53429" lon="27.55027">
        <ele>393.325</ele>
      </trkpt>
      <trkpt lat="37.53422" lon="27.55026">
        <ele>393.808</ele>
      </trkpt>
      <trkpt lat="37.53415" lon="27.55015">
        <ele>391.306</ele>
      </trkpt>
      <trkpt lat="37.53414" lon="27.55015">
        <ele>391.147</ele>
      </trkpt>
      <trkpt lat="37.53405" lon="27.55017">
        <ele>390.89</ele>
      </trkpt>
      <trkpt lat="37.53398" lon="27.5501">
        <ele>388.817</ele>
      </trkpt>
      <trkpt lat="37.53395" lon="27.55008">
        <ele>388.042</ele>
      </trkpt>
      <trkpt lat="37.53387" lon="27.55007">
        <ele>387.104</ele>
      </trkpt>
      <trkpt lat="37.53381" lon="27.55004">
        <ele>385.321</ele>
      </trkpt>
      <trkpt lat="37.53377" lon="27.55003">
        <ele>384.467</ele>
      </trkpt>
      <trkpt lat="37.53369" lon="27.55006">
        <ele>383.582</ele>
      </trkpt>
      <trkpt lat="37.53364" lon="27.55009">
        <ele>383.598</ele>
      </trkpt>
      <trkpt lat="37.53361" lon="27.55012">
        <ele>383.611</ele>
      </trkpt>
      <trkpt lat="37.53356" lon="27.55016">
        <ele>383.84</ele>
      </trkpt>
      <trkpt lat="37.5335" lon="27.55018">
        <ele>383.402</ele>
      </trkpt>
      <trkpt lat="37.53342" lon="27.55013">
        <ele>380.805</ele>
      </trkpt>
      <trkpt lat="37.53341" lon="27.55013">
        <ele>380.623</ele>
      </trkpt>
      <trkpt lat="37.53333" lon="27.55012">
        <ele>379.323</ele>
      </trkpt>
      <trkpt lat="37.5333" lon="27.55013">
        <ele>379.574</ele>
      </trkpt>
      <trkpt lat="37.53327" lon="27.55011">
        <ele>378.945</ele>
      </trkpt>
      <trkpt lat="37.53319" lon="27.55008">
        <ele>377.895</ele>
      </trkpt>
      <trkpt lat="37.53313" lon="27.55">
        <ele>376.524</ele>
      </trkpt>
      <trkpt lat="37.53312" lon="27.54998">
        <ele>376.346</ele>
      </trkpt>
      <trkpt lat="37.53305" lon="27.54986">
        <ele>375.693</ele>
      </trkpt>
      <trkpt lat="37.53297" lon="27.54973">
        <ele>377.309</ele>
      </trkpt>
      <trkpt lat="37.53294" lon="27.54967">
        <ele>378.304</ele>
      </trkpt>
      <trkpt lat="37.53295" lon="27.54957">
        <ele>377.644</ele>
      </trkpt>
      <trkpt lat="37.53293" lon="27.54949">
        <ele>377.947</ele>
      </trkpt>
      <trkpt lat="37.53286" lon="27.54944">
        <ele>379.505</ele>
      </trkpt>
      <trkpt lat="37.53293" lon="27.5493">
        <ele>377.649</ele>
      </trkpt>
      <trkpt lat="37.53295" lon="27.54927">
        <ele>377.263</ele>
      </trkpt>
      <trkpt lat="37.53294" lon="27.54919">
        <ele>377.43</ele>
      </trkpt>
      <trkpt lat="37.53286" lon="27.54913">
        <ele>379.203</ele>
      </trkpt>
      <trkpt lat="37.53284" lon="27.54905">
        <ele>379.786</ele>
      </trkpt>
      <trkpt lat="37.53279" lon="27.54901">
        <ele>380.853</ele>
      </trkpt>
      <trkpt lat="37.53277" lon="27.54891">
        <ele>381.206</ele>
      </trkpt>
      <trkpt lat="37.53277" lon="27.54889">
        <ele>381.259</ele>
      </trkpt>
      <trkpt lat="37.53266" lon="27.54876">
        <ele>382.43</ele>
      </trkpt>
      <trkpt lat="37.53265" lon="27.54874">
        <ele>382.524</ele>
      </trkpt>
      <trkpt lat="37.53256" lon="27.54862">
        <ele>382.439</ele>
      </trkpt>
      <trkpt lat="37.53255" lon="27.54849">
        <ele>379.85</ele>
      </trkpt>
      <trkpt lat="37.53255" lon="27.54845">
        <ele>379.045</ele>
      </trkpt>
      <trkpt lat="37.53246" lon="27.54827">
        <ele>374.976</ele>
      </trkpt>
      <trkpt lat="37.53235" lon="27.5482">
        <ele>372.645</ele>
      </trkpt>
      <trkpt lat="37.53229" lon="27.54826">
        <ele>373.234</ele>
      </trkpt>
      <trkpt lat="37.53224" lon="27.54826">
        <ele>372.888</ele>
      </trkpt>
      <trkpt lat="37.53222" lon="27.54819">
        <ele>371.46</ele>
      </trkpt>
      <trkpt lat="37.53223" lon="27.5482">
        <ele>371.629</ele>
      </trkpt>
      <trkpt lat="37.53208" lon="27.54808">
        <ele>369.398</ele>
      </trkpt>
      <trkpt lat="37.53205" lon="27.54806">
        <ele>369.111</ele>
      </trkpt>
      <trkpt lat="37.53193" lon="27.54807">
        <ele>369.291</ele>
      </trkpt>
      <trkpt lat="37.5319" lon="27.54809">
        <ele>370.115</ele>
      </trkpt>
      <trkpt lat="37.53188" lon="27.54816">
        <ele>371.683</ele>
      </trkpt>
      <trkpt lat="37.53184" lon="27.54821">
        <ele>373.388</ele>
      </trkpt>
      <trkpt lat="37.53181" lon="27.5482">
        <ele>373.742</ele>
      </trkpt>
      <trkpt lat="37.5318" lon="27.54818">
        <ele>373.63</ele>
      </trkpt>
      <trkpt lat="37.53172" lon="27.54806">
        <ele>372.217</ele>
      </trkpt>
      <trkpt lat="37.53168" lon="27.54802">
        <ele>372.168</ele>
      </trkpt>
      <trkpt lat="37.53164" lon="27.54791">
        <ele>371.091</ele>
      </trkpt>
      <trkpt lat="37.53155" lon="27.54783">
        <ele>370.983</ele>
      </trkpt>
      <trkpt lat="37.53145" lon="27.5477">
        <ele>368.96</ele>
      </trkpt>
      <trkpt lat="37.53139" lon="27.54753">
        <ele>364.072</ele>
      </trkpt>
      <trkpt lat="37.53138" lon="27.54752">
        <ele>363.917</ele>
      </trkpt>
      <trkpt lat="37.53131" lon="27.54742">
        <ele>363.191</ele>
      </trkpt>
      <trkpt lat="37.53124" lon="27.54736">
        <ele>363.305</ele>
      </trkpt>
      <trkpt lat="37.53122" lon="27.54729">
        <ele>362.122</ele>
      </trkpt>
      <trkpt lat="37.53121" lon="27.54728">
        <ele>361.926</ele>
      </trkpt>
      <trkpt lat="37.53122" lon="27.54726">
        <ele>361.266</ele>
      </trkpt>
      <trkpt lat="37.53121" lon="27.5471">
        <ele>357.446</ele>
      </trkpt>
      <trkpt lat="37.53116" lon="27.54691">
        <ele>353.898</ele>
      </trkpt>
      <trkpt lat="37.53112" lon="27.5469">
        <ele>354.216</ele>
      </trkpt>
      <trkpt lat="37.53106" lon="27.54685">
        <ele>354.278</ele>
      </trkpt>
      <trkpt lat="37.53105" lon="27.54679">
        <ele>353.493</ele>
      </trkpt>
      <trkpt lat="37.53102" lon="27.54674">
        <ele>352.868</ele>
      </trkpt>
      <trkpt lat="37.53096" lon="27.54669">
        <ele>352.501</ele>
      </trkpt>
      <trkpt lat="37.53095" lon="27.54668">
        <ele>352.374</ele>
      </trkpt>
      <trkpt lat="37.53092" lon="27.54663">
        <ele>352.06</ele>
      </trkpt>
      <trkpt lat="37.53091" lon="27.54662">
        <ele>351.984</ele>
      </trkpt>
      <trkpt lat="37.53086" lon="27.54658">
        <ele>351.889</ele>
      </trkpt>
      <trkpt lat="37.53086" lon="27.54658">
        <ele>351.904</ele>
      </trkpt>
      <trkpt lat="37.53081" lon="27.54647">
        <ele>351.026</ele>
      </trkpt>
      <trkpt lat="37.53073" lon="27.54638">
        <ele>350.653</ele>
      </trkpt>
      <trkpt lat="37.53076" lon="27.54618">
        <ele>349.579</ele>
      </trkpt>
      <trkpt lat="37.53079" lon="27.54605">
        <ele>349.696</ele>
      </trkpt>
      <trkpt lat="37.53081" lon="27.546">
        <ele>350.215</ele>
      </trkpt>
      <trkpt lat="37.53076" lon="27.54585">
        <ele>351.307</ele>
      </trkpt>
      <trkpt lat="37.53069" lon="27.54584">
        <ele>350.957</ele>
      </trkpt>
      <trkpt lat="37.53059" lon="27.54576">
        <ele>351.326</ele>
      </trkpt>
      <trkpt lat="37.53057" lon="27.54574">
        <ele>351.485</ele>
      </trkpt>
      <trkpt lat="37.53049" lon="27.54561">
        <ele>354.215</ele>
      </trkpt>
      <trkpt lat="37.53047" lon="27.54559">
        <ele>354.759</ele>
      </trkpt>
      <trkpt lat="37.53046" lon="27.54543">
        <ele>357.278</ele>
      </trkpt>
      <trkpt lat="37.53044" lon="27.54539">
        <ele>357.96</ele>
      </trkpt>
      <trkpt lat="37.53038" lon="27.54529">
        <ele>359.278</ele>
      </trkpt>
      <trkpt lat="37.53035" lon="27.54526">
        <ele>359.431</ele>
      </trkpt>
      <trkpt lat="37.53029" lon="27.54518">
        <ele>360.091</ele>
      </trkpt>
      <trkpt lat="37.53024" lon="27.54512">
        <ele>361.127</ele>
      </trkpt>
      <trkpt lat="37.5302" lon="27.54507">
        <ele>361.94</ele>
      </trkpt>
      <trkpt lat="37.53016" lon="27.54498">
        <ele>363.103</ele>
      </trkpt>
      <trkpt lat="37.53017" lon="27.54489">
        <ele>364.266</ele>
      </trkpt>
      <trkpt lat="37.53017" lon="27.54481">
        <ele>365.329</ele>
      </trkpt>
      <trkpt lat="37.53018" lon="27.54475">
        <ele>365.976</ele>
      </trkpt>
      <trkpt lat="37.53012" lon="27.54475">
        <ele>366.264</ele>
      </trkpt>
      <trkpt lat="37.53012" lon="27.54471">
        <ele>366.742</ele>
      </trkpt>
      <trkpt lat="37.53012" lon="27.54465">
        <ele>367.184</ele>
      </trkpt>
      <trkpt lat="37.53007" lon="27.54456">
        <ele>368.416</ele>
      </trkpt>
      <trkpt lat="37.53004" lon="27.54451">
        <ele>369.098</ele>
      </trkpt>
      <trkpt lat="37.52996" lon="27.54447">
        <ele>370.658</ele>
      </trkpt>
      <trkpt lat="37.52991" lon="27.54444">
        <ele>371.973</ele>
      </trkpt>
      <trkpt lat="37.52983" lon="27.54439">
        <ele>373.716</ele>
      </trkpt>
      <trkpt lat="37.52976" lon="27.54433">
        <ele>375.021</ele>
      </trkpt>
      <trkpt lat="37.52974" lon="27.5443">
        <ele>375.121</ele>
      </trkpt>
      <trkpt lat="37.52964" lon="27.54422">
        <ele>375.68</ele>
      </trkpt>
      <trkpt lat="37.52959" lon="27.5441">
        <ele>374.874</ele>
      </trkpt>
      <trkpt lat="37.52952" lon="27.544">
        <ele>374.091</ele>
      </trkpt>
      <trkpt lat="37.52945" lon="27.54384">
        <ele>372.65</ele>
      </trkpt>
      <trkpt lat="37.52945" lon="27.54383">
        <ele>372.588</ele>
      </trkpt>
      <trkpt lat="37.52936" lon="27.54378">
        <ele>372.038</ele>
      </trkpt>
      <trkpt lat="37.52929" lon="27.54374">
        <ele>371.689</ele>
      </trkpt>
      <trkpt lat="37.52922" lon="27.54372">
        <ele>371.457</ele>
      </trkpt>
      <trkpt lat="37.52914" lon="27.5437">
        <ele>371.33</ele>
      </trkpt>
      <trkpt lat="37.52912" lon="27.54369">
        <ele>371.278</ele>
      </trkpt>
      <trkpt lat="37.52909" lon="27.54368">
        <ele>371.271</ele>
      </trkpt>
      <trkpt lat="37.52902" lon="27.54373">
        <ele>371.825</ele>
      </trkpt>
      <trkpt lat="37.529" lon="27.5437">
        <ele>371.443</ele>
      </trkpt>
      <trkpt lat="37.52896" lon="27.54361">
        <ele>370.309</ele>
      </trkpt>
      <trkpt lat="37.52892" lon="27.54353">
        <ele>369.791</ele>
      </trkpt>
      <trkpt lat="37.52882" lon="27.54347">
        <ele>369.723</ele>
      </trkpt>
      <trkpt lat="37.52882" lon="27.54345">
        <ele>369.621</ele>
      </trkpt>
      <trkpt lat="37.5288" lon="27.54341">
        <ele>369.281</ele>
      </trkpt>
      <trkpt lat="37.52876" lon="27.54335">
        <ele>368.74</ele>
      </trkpt>
      <trkpt lat="37.52871" lon="27.54328">
        <ele>368.193</ele>
      </trkpt>
      <trkpt lat="37.52867" lon="27.54326">
        <ele>367.826</ele>
      </trkpt>
      <trkpt lat="37.52864" lon="27.54323">
        <ele>367.46</ele>
      </trkpt>
      <trkpt lat="37.52859" lon="27.5432">
        <ele>367.236</ele>
      </trkpt>
      <trkpt lat="37.52854" lon="27.54312">
        <ele>367.049</ele>
      </trkpt>
      <trkpt lat="37.52855" lon="27.54304">
        <ele>366.401</ele>
      </trkpt>
      <trkpt lat="37.52849" lon="27.54297">
        <ele>366.326</ele>
      </trkpt>
      <trkpt lat="37.52844" lon="27.54288">
        <ele>365.691</ele>
      </trkpt>
      <trkpt lat="37.52839" lon="27.54277">
        <ele>364.264</ele>
      </trkpt>
      <trkpt lat="37.52834" lon="27.54275">
        <ele>363.609</ele>
      </trkpt>
      <trkpt lat="37.52826" lon="27.54266">
        <ele>363.127</ele>
      </trkpt>
      <trkpt lat="37.52826" lon="27.54258">
        <ele>361.83</ele>
      </trkpt>
      <trkpt lat="37.52821" lon="27.54248">
        <ele>360.564</ele>
      </trkpt>
      <trkpt lat="37.5282" lon="27.54248">
        <ele>360.592</ele>
      </trkpt>
      <trkpt lat="37.52815" lon="27.54243">
        <ele>359.848</ele>
      </trkpt>
      <trkpt lat="37.52814" lon="27.54234">
        <ele>358.265</ele>
      </trkpt>
      <trkpt lat="37.52813" lon="27.54226">
        <ele>356.874</ele>
      </trkpt>
      <trkpt lat="37.52814" lon="27.54226">
        <ele>356.716</ele>
      </trkpt>
      <trkpt lat="37.5282" lon="27.54219">
        <ele>354.52</ele>
      </trkpt>
      <trkpt lat="37.52817" lon="27.54215">
        <ele>353.817</ele>
      </trkpt>
      <trkpt lat="37.52807" lon="27.54212">
        <ele>353.407</ele>
      </trkpt>
      <trkpt lat="37.52809" lon="27.54202">
        <ele>350.198</ele>
      </trkpt>
      <trkpt lat="37.52805" lon="27.54197">
        <ele>348.955</ele>
      </trkpt>
      <trkpt lat="37.52797" lon="27.54186">
        <ele>346.569</ele>
      </trkpt>
      <trkpt lat="37.52785" lon="27.54183">
        <ele>346.972</ele>
      </trkpt>
      <trkpt lat="37.52778" lon="27.54179">
        <ele>346.606</ele>
      </trkpt>
      <trkpt lat="37.52771" lon="27.54173">
        <ele>345.918</ele>
      </trkpt>
      <trkpt lat="37.52766" lon="27.54171">
        <ele>346.267</ele>
      </trkpt>
      <trkpt lat="37.52762" lon="27.54169">
        <ele>346.382</ele>
      </trkpt>
      <trkpt lat="37.52751" lon="27.5416">
        <ele>346.978</ele>
      </trkpt>
      <trkpt lat="37.52749" lon="27.54156">
        <ele>347.141</ele>
      </trkpt>
      <trkpt lat="37.52747" lon="27.54151">
        <ele>346.951</ele>
      </trkpt>
      <trkpt lat="37.52737" lon="27.54139">
        <ele>346.289</ele>
      </trkpt>
      <trkpt lat="37.52731" lon="27.54141">
        <ele>347.564</ele>
      </trkpt>
      <trkpt lat="37.5273" lon="27.54141">
        <ele>347.68</ele>
      </trkpt>
      <trkpt lat="37.52724" lon="27.54136">
        <ele>346.863</ele>
      </trkpt>
      <trkpt lat="37.52724" lon="27.54133">
        <ele>346.06</ele>
      </trkpt>
      <trkpt lat="37.52725" lon="27.54131">
        <ele>345.336</ele>
      </trkpt>
      <trkpt lat="37.52718" lon="27.54126">
        <ele>344.11</ele>
      </trkpt>
      <trkpt lat="37.5271" lon="27.54129">
        <ele>344.157</ele>
      </trkpt>
      <trkpt lat="37.52702" lon="27.54124">
        <ele>342.109</ele>
      </trkpt>
      <trkpt lat="37.52691" lon="27.54117">
        <ele>339.467</ele>
      </trkpt>
      <trkpt lat="37.52689" lon="27.54117">
        <ele>339.282</ele>
      </trkpt>
      <trkpt lat="37.52681" lon="27.54109">
        <ele>336.36</ele>
      </trkpt>
      <trkpt lat="37.52674" lon="27.54109">
        <ele>335.844</ele>
      </trkpt>
      <trkpt lat="37.52674" lon="27.54105">
        <ele>334.658</ele>
      </trkpt>
      <trkpt lat="37.52677" lon="27.54097">
        <ele>332.025</ele>
      </trkpt>
      <trkpt lat="37.52673" lon="27.54092">
        <ele>330.263</ele>
      </trkpt>
      <trkpt lat="37.5267" lon="27.54093">
        <ele>330.141</ele>
      </trkpt>
      <trkpt lat="37.52662" lon="27.5409">
        <ele>329.274</ele>
      </trkpt>
      <trkpt lat="37.52664" lon="27.54087">
        <ele>328.304</ele>
      </trkpt>
      <trkpt lat="37.52663" lon="27.5408">
        <ele>326.857</ele>
      </trkpt>
      <trkpt lat="37.52663" lon="27.54074">
        <ele>326.384</ele>
      </trkpt>
      <trkpt lat="37.52656" lon="27.5407">
        <ele>326.046</ele>
      </trkpt>
      <trkpt lat="37.52655" lon="27.5407">
        <ele>326.023</ele>
      </trkpt>
      <trkpt lat="37.52648" lon="27.5407">
        <ele>326.065</ele>
      </trkpt>
      <trkpt lat="37.5264" lon="27.54077">
        <ele>327.053</ele>
      </trkpt>
      <trkpt lat="37.52628" lon="27.54076">
        <ele>325.713</ele>
      </trkpt>
      <trkpt lat="37.5262" lon="27.54076">
        <ele>324.893</ele>
      </trkpt>
      <trkpt lat="37.52617" lon="27.54072">
        <ele>323.415</ele>
      </trkpt>
      <trkpt lat="37.52615" lon="27.54067">
        <ele>321.812</ele>
      </trkpt>
      <trkpt lat="37.5261" lon="27.54062">
        <ele>319.765</ele>
      </trkpt>
      <trkpt lat="37.52607" lon="27.54056">
        <ele>317.366</ele>
      </trkpt>
      <trkpt lat="37.52602" lon="27.54051">
        <ele>315.982</ele>
      </trkpt>
      <trkpt lat="37.52599" lon="27.5405">
        <ele>315.292</ele>
      </trkpt>
      <trkpt lat="37.52607" lon="27.54046">
        <ele>316.104</ele>
      </trkpt>
      <trkpt lat="37.52608" lon="27.54045">
        <ele>316.156</ele>
      </trkpt>
      <trkpt lat="37.52607" lon="27.54044">
        <ele>315.921</ele>
      </trkpt>
      <trkpt lat="37.52592" lon="27.54045">
        <ele>312.859</ele>
      </trkpt>
      <trkpt lat="37.52583" lon="27.54044">
        <ele>310.635</ele>
      </trkpt>
      <trkpt lat="37.52582" lon="27.54045">
        <ele>310.585</ele>
      </trkpt>
      <trkpt lat="37.52581" lon="27.54044">
        <ele>310.306</ele>
      </trkpt>
      <trkpt lat="37.52576" lon="27.54037">
        <ele>307.011</ele>
      </trkpt>
      <trkpt lat="37.52571" lon="27.54035">
        <ele>304.927</ele>
      </trkpt>
      <trkpt lat="37.52568" lon="27.54041">
        <ele>306.641</ele>
      </trkpt>
      <trkpt lat="37.52568" lon="27.5404">
        <ele>306.333</ele>
      </trkpt>
      <trkpt lat="37.52569" lon="27.54035">
        <ele>304.38</ele>
      </trkpt>
      <trkpt lat="37.52565" lon="27.54032">
        <ele>301.823</ele>
      </trkpt>
      <trkpt lat="37.5257" lon="27.54029">
        <ele>301.918</ele>
      </trkpt>
      <trkpt lat="37.52571" lon="27.54027">
        <ele>301.883</ele>
      </trkpt>
      <trkpt lat="37.52568" lon="27.54021">
        <ele>300.71</ele>
      </trkpt>
      <trkpt lat="37.52562" lon="27.54022">
        <ele>298.524</ele>
      </trkpt>
      <trkpt lat="37.52559" lon="27.54017">
        <ele>296.864</ele>
      </trkpt>
      <trkpt lat="37.52555" lon="27.54016">
        <ele>294.971</ele>
      </trkpt>
      <trkpt lat="37.5255" lon="27.54017">
        <ele>292.694</ele>
      </trkpt>
      <trkpt lat="37.52546" lon="27.54018">
        <ele>291.281</ele>
      </trkpt>
      <trkpt lat="37.52544" lon="27.5402">
        <ele>290.602</ele>
      </trkpt>
      <trkpt lat="37.52544" lon="27.54015">
        <ele>289.805</ele>
      </trkpt>
      <trkpt lat="37.52542" lon="27.54008">
        <ele>286.94</ele>
      </trkpt>
      <trkpt lat="37.52534" lon="27.5401">
        <ele>283.391</ele>
      </trkpt>
      <trkpt lat="37.52529" lon="27.54009">
        <ele>280.207</ele>
      </trkpt>
      <trkpt lat="37.52522" lon="27.54012">
        <ele>278.679</ele>
      </trkpt>
      <trkpt lat="37.52513" lon="27.54009">
        <ele>274.15</ele>
      </trkpt>
      <trkpt lat="37.52504" lon="27.54004">
        <ele>269.229</ele>
      </trkpt>
      <trkpt lat="37.52496" lon="27.53998">
        <ele>264.559</ele>
      </trkpt>
      <trkpt lat="37.52493" lon="27.53997">
        <ele>263.359</ele>
      </trkpt>
      <trkpt lat="37.52485" lon="27.53999">
        <ele>262.027</ele>
      </trkpt>
      <trkpt lat="37.52484" lon="27.53999">
        <ele>261.648</ele>
      </trkpt>
      <trkpt lat="37.52473" lon="27.54002">
        <ele>260.42</ele>
      </trkpt>
      <trkpt lat="37.52466" lon="27.54003">
        <ele>259.976</ele>
      </trkpt>
      <trkpt lat="37.52464" lon="27.54003">
        <ele>259.757</ele>
      </trkpt>
      <trkpt lat="37.52455" lon="27.54002">
        <ele>258.007</ele>
      </trkpt>
      <trkpt lat="37.5245" lon="27.54002">
        <ele>257.416</ele>
      </trkpt>
      <trkpt lat="37.5244" lon="27.54002">
        <ele>255.564</ele>
      </trkpt>
      <trkpt lat="37.52432" lon="27.54006">
        <ele>254.347</ele>
      </trkpt>
      <trkpt lat="37.52432" lon="27.54002">
        <ele>252.619</ele>
      </trkpt>
      <trkpt lat="37.52431" lon="27.54002">
        <ele>252.03</ele>
      </trkpt>
      <trkpt lat="37.52421" lon="27.53996">
        <ele>245.635</ele>
      </trkpt>
      <trkpt lat="37.52413" lon="27.53998">
        <ele>244.133</ele>
      </trkpt>
      <trkpt lat="37.52409" lon="27.53997">
        <ele>243.182</ele>
      </trkpt>
      <trkpt lat="37.52402" lon="27.53995">
        <ele>240.764</ele>
      </trkpt>
      <trkpt lat="37.52397" lon="27.53996">
        <ele>240.757</ele>
      </trkpt>
      <trkpt lat="37.52396" lon="27.53997">
        <ele>240.733</ele>
      </trkpt>
      <trkpt lat="37.52392" lon="27.53994">
        <ele>238.575</ele>
      </trkpt>
      <trkpt lat="37.52382" lon="27.53985">
        <ele>231.099</ele>
      </trkpt>
      <trkpt lat="37.5238" lon="27.53986">
        <ele>231.855</ele>
      </trkpt>
      <trkpt lat="37.52378" lon="27.53987">
        <ele>232.154</ele>
      </trkpt>
      <trkpt lat="37.52372" lon="27.53989">
        <ele>233.363</ele>
      </trkpt>
      <trkpt lat="37.52362" lon="27.5399">
        <ele>234.09</ele>
      </trkpt>
      <trkpt lat="37.52355" lon="27.5399">
        <ele>234.346</ele>
      </trkpt>
      <trkpt lat="37.52347" lon="27.53984">
        <ele>231.175</ele>
      </trkpt>
      <trkpt lat="37.52339" lon="27.53981">
        <ele>229.774</ele>
      </trkpt>
      <trkpt lat="37.52331" lon="27.53974">
        <ele>225.49</ele>
      </trkpt>
      <trkpt lat="37.52328" lon="27.53973">
        <ele>225.195</ele>
      </trkpt>
      <trkpt lat="37.52322" lon="27.53966">
        <ele>222.205</ele>
      </trkpt>
      <trkpt lat="37.52322" lon="27.53961">
        <ele>218.664</ele>
      </trkpt>
      <trkpt lat="37.52324" lon="27.53957">
        <ele>214.934</ele>
      </trkpt>
      <trkpt lat="37.52323" lon="27.53958">
        <ele>216.159</ele>
      </trkpt>
      <trkpt lat="37.52319" lon="27.53959">
        <ele>218.204</ele>
      </trkpt>
      <trkpt lat="37.52314" lon="27.53958">
        <ele>218.549</ele>
      </trkpt>
      <trkpt lat="37.52313" lon="27.53956">
        <ele>217.859</ele>
      </trkpt>
      <trkpt lat="37.52308" lon="27.53956">
        <ele>218.841</ele>
      </trkpt>
      <trkpt lat="37.523" lon="27.53959">
        <ele>223.713</ele>
      </trkpt>
      <trkpt lat="37.52294" lon="27.53956">
        <ele>223.364</ele>
      </trkpt>
      <trkpt lat="37.52291" lon="27.53954">
        <ele>222.866</ele>
      </trkpt>
      <trkpt lat="37.52282" lon="27.53944">
        <ele>219.053</ele>
      </trkpt>
      <trkpt lat="37.52285" lon="27.53939">
        <ele>216.005</ele>
      </trkpt>
      <trkpt lat="37.52279" lon="27.53935">
        <ele>215.68</ele>
      </trkpt>
      <trkpt lat="37.52273" lon="27.53927">
        <ele>214.003</ele>
      </trkpt>
      <trkpt lat="37.52272" lon="27.53926">
        <ele>213.514</ele>
      </trkpt>
      <trkpt lat="37.52271" lon="27.53924">
        <ele>212.775</ele>
      </trkpt>
      <trkpt lat="37.52265" lon="27.53924">
        <ele>214.787</ele>
      </trkpt>
      <trkpt lat="37.5226" lon="27.53923">
        <ele>215.879</ele>
      </trkpt>
      <trkpt lat="37.52261" lon="27.53908">
        <ele>208.902</ele>
      </trkpt>
      <trkpt lat="37.5226" lon="27.53903">
        <ele>207.356</ele>
      </trkpt>
      <trkpt lat="37.52258" lon="27.53896">
        <ele>205.214</ele>
      </trkpt>
      <trkpt lat="37.52259" lon="27.53892">
        <ele>203.097</ele>
      </trkpt>
      <trkpt lat="37.52258" lon="27.5389">
        <ele>202.326</ele>
      </trkpt>
      <trkpt lat="37.52257" lon="27.53889">
        <ele>202.69</ele>
      </trkpt>
      <trkpt lat="37.52257" lon="27.53889">
        <ele>202.396</ele>
      </trkpt>
      <trkpt lat="37.52258" lon="27.53875">
        <ele>197.936</ele>
      </trkpt>
      <trkpt lat="37.52255" lon="27.53869">
        <ele>196.919</ele>
      </trkpt>
      <trkpt lat="37.52255" lon="27.53869">
        <ele>196.925</ele>
      </trkpt>
      <trkpt lat="37.5225" lon="27.53861">
        <ele>196.16</ele>
      </trkpt>
      <trkpt lat="37.52244" lon="27.53855">
        <ele>199.202</ele>
      </trkpt>
      <trkpt lat="37.52236" lon="27.53851">
        <ele>203.356</ele>
      </trkpt>
      <trkpt lat="37.52236" lon="27.53843">
        <ele>201.596</ele>
      </trkpt>
      <trkpt lat="37.52235" lon="27.53838">
        <ele>201.37</ele>
      </trkpt>
      <trkpt lat="37.52236" lon="27.53826">
        <ele>197.554</ele>
      </trkpt>
      <trkpt lat="37.52236" lon="27.53825">
        <ele>196.968</ele>
      </trkpt>
      <trkpt lat="37.52237" lon="27.53812">
        <ele>192.684</ele>
      </trkpt>
      <trkpt lat="37.52236" lon="27.53805">
        <ele>191.265</ele>
      </trkpt>
      <trkpt lat="37.52233" lon="27.53798">
        <ele>191.662</ele>
      </trkpt>
      <trkpt lat="37.52235" lon="27.53797">
        <ele>189.984</ele>
      </trkpt>
      <trkpt lat="37.52234" lon="27.53796">
        <ele>190.098</ele>
      </trkpt>
      <trkpt lat="37.52234" lon="27.53778">
        <ele>185.541</ele>
      </trkpt>
      <trkpt lat="37.52232" lon="27.53767">
        <ele>184.875</ele>
      </trkpt>
      <trkpt lat="37.52229" lon="27.53764">
        <ele>186.283</ele>
      </trkpt>
      <trkpt lat="37.52229" lon="27.53764">
        <ele>186.32</ele>
      </trkpt>
      <trkpt lat="37.52234" lon="27.53754">
        <ele>182.366</ele>
      </trkpt>
      <trkpt lat="37.52243" lon="27.53754">
        <ele>177.014</ele>
      </trkpt>
      <trkpt lat="37.52244" lon="27.53754">
        <ele>176.585</ele>
      </trkpt>
      <trkpt lat="37.52253" lon="27.53747">
        <ele>171.731</ele>
      </trkpt>
      <trkpt lat="37.52266" lon="27.53745">
        <ele>167.102</ele>
      </trkpt>
      <trkpt lat="37.52267" lon="27.53745">
        <ele>166.589</ele>
      </trkpt>
      <trkpt lat="37.52271" lon="27.53744">
        <ele>165.242</ele>
      </trkpt>
      <trkpt lat="37.52276" lon="27.53741">
        <ele>163.638</ele>
      </trkpt>
      <trkpt lat="37.52279" lon="27.5373">
        <ele>162.799</ele>
      </trkpt>
      <trkpt lat="37.5227" lon="27.5372">
        <ele>164.704</ele>
      </trkpt>
      <trkpt lat="37.52264" lon="27.53716">
        <ele>165.739</ele>
      </trkpt>
      <trkpt lat="37.52262" lon="27.53708">
        <ele>165.476</ele>
      </trkpt>
      <trkpt lat="37.52273" lon="27.53708">
        <ele>162.543</ele>
      </trkpt>
      <trkpt lat="37.52276" lon="27.53701">
        <ele>161.321</ele>
      </trkpt>
      <trkpt lat="37.52264" lon="27.53688">
        <ele>162.717</ele>
      </trkpt>
      <trkpt lat="37.52259" lon="27.53681">
        <ele>163.039</ele>
      </trkpt>
      <trkpt lat="37.52259" lon="27.53666">
        <ele>160.96</ele>
      </trkpt>
      <trkpt lat="37.52248" lon="27.5365">
        <ele>161.244</ele>
      </trkpt>
      <trkpt lat="37.52238" lon="27.53642">
        <ele>162.961</ele>
      </trkpt>
      <trkpt lat="37.52237" lon="27.53639">
        <ele>162.758</ele>
      </trkpt>
      <trkpt lat="37.5223" lon="27.53634">
        <ele>164.232</ele>
      </trkpt>
      <trkpt lat="37.52228" lon="27.53634">
        <ele>164.702</ele>
      </trkpt>
      <trkpt lat="37.52221" lon="27.53618">
        <ele>164.108</ele>
      </trkpt>
      <trkpt lat="37.52213" lon="27.53601">
        <ele>164.386</ele>
      </trkpt>
      <trkpt lat="37.52203" lon="27.53592">
        <ele>164.814</ele>
      </trkpt>
      <trkpt lat="37.52199" lon="27.53588">
        <ele>164.481</ele>
      </trkpt>
      <trkpt lat="37.52192" lon="27.53584">
        <ele>164.521</ele>
      </trkpt>
      <trkpt lat="37.52192" lon="27.53569">
        <ele>164.942</ele>
      </trkpt>
      <trkpt lat="37.52182" lon="27.53567">
        <ele>166.43</ele>
      </trkpt>
      <trkpt lat="37.52182" lon="27.53567">
        <ele>166.508</ele>
      </trkpt>
      <trkpt lat="37.52179" lon="27.5356">
        <ele>166.815</ele>
      </trkpt>
      <trkpt lat="37.52171" lon="27.53558">
        <ele>167.702</ele>
      </trkpt>
      <trkpt lat="37.52172" lon="27.53545">
        <ele>168.921</ele>
      </trkpt>
      <trkpt lat="37.52171" lon="27.53536">
        <ele>170.166</ele>
      </trkpt>
      <trkpt lat="37.52171" lon="27.53535">
        <ele>170.365</ele>
      </trkpt>
      <trkpt lat="37.52168" lon="27.53531">
        <ele>171.396</ele>
      </trkpt>
      <trkpt lat="37.52156" lon="27.53529">
        <ele>174.221</ele>
      </trkpt>
      <trkpt lat="37.5215" lon="27.53532">
        <ele>175.512</ele>
      </trkpt>
      <trkpt lat="37.52147" lon="27.5352">
        <ele>177.73</ele>
      </trkpt>
      <trkpt lat="37.52145" lon="27.53509">
        <ele>180.084</ele>
      </trkpt>
      <trkpt lat="37.52152" lon="27.53504">
        <ele>179.45</ele>
      </trkpt>
      <trkpt lat="37.52149" lon="27.53498">
        <ele>181.184</ele>
      </trkpt>
      <trkpt lat="37.52154" lon="27.53496">
        <ele>180.641</ele>
      </trkpt>
      <trkpt lat="37.52162" lon="27.5349">
        <ele>180.778</ele>
      </trkpt>
      <trkpt lat="37.52168" lon="27.53481">
        <ele>182.501</ele>
      </trkpt>
      <trkpt lat="37.52173" lon="27.53478">
        <ele>183.421</ele>
      </trkpt>
      <trkpt lat="37.52171" lon="27.53472">
        <ele>185.056</ele>
      </trkpt>
      <trkpt lat="37.52167" lon="27.53462">
        <ele>186.767</ele>
      </trkpt>
      <trkpt lat="37.52166" lon="27.53461">
        <ele>187.076</ele>
      </trkpt>
      <trkpt lat="37.52158" lon="27.53464">
        <ele>186.858</ele>
      </trkpt>
      <trkpt lat="37.52156" lon="27.53456">
        <ele>188.051</ele>
      </trkpt>
      <trkpt lat="37.52149" lon="27.53451">
        <ele>188.609</ele>
      </trkpt>
      <trkpt lat="37.52143" lon="27.53451">
        <ele>188.612</ele>
      </trkpt>
      <trkpt lat="37.52143" lon="27.5345">
        <ele>188.671</ele>
      </trkpt>
      <trkpt lat="37.52139" lon="27.53441">
        <ele>189.131</ele>
      </trkpt>
      <trkpt lat="37.52139" lon="27.5344">
        <ele>189.17</ele>
      </trkpt>
      <trkpt lat="37.52132" lon="27.53442">
        <ele>189.486</ele>
      </trkpt>
      <trkpt lat="37.5213" lon="27.53443">
        <ele>189.6</ele>
      </trkpt>
      <trkpt lat="37.52129" lon="27.53438">
        <ele>189.608</ele>
      </trkpt>
      <trkpt lat="37.5213" lon="27.53431">
        <ele>189.502</ele>
      </trkpt>
      <trkpt lat="37.52122" lon="27.53431">
        <ele>189.541</ele>
      </trkpt>
      <trkpt lat="37.52115" lon="27.53428">
        <ele>189.303</ele>
      </trkpt>
      <trkpt lat="37.521" lon="27.53423">
        <ele>187.837</ele>
      </trkpt>
      <trkpt lat="37.521" lon="27.53422">
        <ele>187.599</ele>
      </trkpt>
      <trkpt lat="37.52095" lon="27.53411">
        <ele>185.794</ele>
      </trkpt>
      <trkpt lat="37.52082" lon="27.53409">
        <ele>184.366</ele>
      </trkpt>
      <trkpt lat="37.52069" lon="27.53407">
        <ele>183.359</ele>
      </trkpt>
      <trkpt lat="37.52057" lon="27.53408">
        <ele>182.768</ele>
      </trkpt>
      <trkpt lat="37.5205" lon="27.53404">
        <ele>182.787</ele>
      </trkpt>
      <trkpt lat="37.52039" lon="27.53395">
        <ele>181.681</ele>
      </trkpt>
      <trkpt lat="37.52032" lon="27.53393">
        <ele>181.322</ele>
      </trkpt>
      <trkpt lat="37.52021" lon="27.53385">
        <ele>180.377</ele>
      </trkpt>
      <trkpt lat="37.52021" lon="27.5338">
        <ele>179.822</ele>
      </trkpt>
      <trkpt lat="37.52018" lon="27.53377">
        <ele>179.727</ele>
      </trkpt>
      <trkpt lat="37.52013" lon="27.53376">
        <ele>180.037</ele>
      </trkpt>
      <trkpt lat="37.52012" lon="27.5337">
        <ele>179.096</ele>
      </trkpt>
      <trkpt lat="37.52015" lon="27.53366">
        <ele>178.18</ele>
      </trkpt>
      <trkpt lat="37.52016" lon="27.53351">
        <ele>177.323</ele>
      </trkpt>
      <trkpt lat="37.52013" lon="27.53344">
        <ele>177.144</ele>
      </trkpt>
      <trkpt lat="37.52011" lon="27.53338">
        <ele>176.896</ele>
      </trkpt>
      <trkpt lat="37.52006" lon="27.53339">
        <ele>176.714</ele>
      </trkpt>
      <trkpt lat="37.52004" lon="27.53343">
        <ele>176.83</ele>
      </trkpt>
      <trkpt lat="37.52002" lon="27.53348">
        <ele>177.059</ele>
      </trkpt>
      <trkpt lat="37.51999" lon="27.5335">
        <ele>177.211</ele>
      </trkpt>
      <trkpt lat="37.51995" lon="27.53349">
        <ele>177.29</ele>
      </trkpt>
      <trkpt lat="37.51992" lon="27.53342">
        <ele>176.578</ele>
      </trkpt>
      <trkpt lat="37.51989" lon="27.53337">
        <ele>176.057</ele>
      </trkpt>
      <trkpt lat="37.51984" lon="27.5333">
        <ele>175.309</ele>
      </trkpt>
      <trkpt lat="37.51973" lon="27.53326">
        <ele>174.505</ele>
      </trkpt>
      <trkpt lat="37.51969" lon="27.53323">
        <ele>174.422</ele>
      </trkpt>
      <trkpt lat="37.51966" lon="27.53318">
        <ele>174.062</ele>
      </trkpt>
      <trkpt lat="37.51966" lon="27.53306">
        <ele>172.801</ele>
      </trkpt>
      <trkpt lat="37.51967" lon="27.53297">
        <ele>172.563</ele>
      </trkpt>
      <trkpt lat="37.51967" lon="27.53286">
        <ele>172.086</ele>
      </trkpt>
      <trkpt lat="37.51966" lon="27.5328">
        <ele>171.802</ele>
      </trkpt>
      <trkpt lat="37.51955" lon="27.53265">
        <ele>168.705</ele>
      </trkpt>
      <trkpt lat="37.51943" lon="27.53255">
        <ele>165.314</ele>
      </trkpt>
      <trkpt lat="37.51936" lon="27.53246">
        <ele>164.582</ele>
      </trkpt>
      <trkpt lat="37.51931" lon="27.53242">
        <ele>164.485</ele>
      </trkpt>
      <trkpt lat="37.51918" lon="27.53233">
        <ele>163.774</ele>
      </trkpt>
      <trkpt lat="37.51906" lon="27.53227">
        <ele>163.235</ele>
      </trkpt>
      <trkpt lat="37.51903" lon="27.53225">
        <ele>163.066</ele>
      </trkpt>
      <trkpt lat="37.51897" lon="27.53214">
        <ele>162.941</ele>
      </trkpt>
      <trkpt lat="37.51887" lon="27.53212">
        <ele>162.388</ele>
      </trkpt>
      <trkpt lat="37.51875" lon="27.53209">
        <ele>162.269</ele>
      </trkpt>
      <trkpt lat="37.51867" lon="27.53214">
        <ele>162.73</ele>
      </trkpt>
      <trkpt lat="37.51866" lon="27.53215">
        <ele>162.78</ele>
      </trkpt>
      <trkpt lat="37.51855" lon="27.53223">
        <ele>165.013</ele>
      </trkpt>
      <trkpt lat="37.5185" lon="27.53212">
        <ele>163.762</ele>
      </trkpt>
      <trkpt lat="37.51847" lon="27.53212">
        <ele>163.903</ele>
      </trkpt>
      <trkpt lat="37.51844" lon="27.53204">
        <ele>162.568</ele>
      </trkpt>
      <trkpt lat="37.51837" lon="27.53195">
        <ele>160.941</ele>
      </trkpt>
      <trkpt lat="37.51832" lon="27.53194">
        <ele>160.83</ele>
      </trkpt>
      <trkpt lat="37.51819" lon="27.53185">
        <ele>159.256</ele>
      </trkpt>
      <trkpt lat="37.51807" lon="27.53182">
        <ele>158.807</ele>
      </trkpt>
      <trkpt lat="37.51806" lon="27.53181">
        <ele>158.577</ele>
      </trkpt>
      <trkpt lat="37.51801" lon="27.53174">
        <ele>157.819</ele>
      </trkpt>
      <trkpt lat="37.51801" lon="27.53175">
        <ele>157.997</ele>
      </trkpt>
      <trkpt lat="37.5179" lon="27.53178">
        <ele>159.858</ele>
      </trkpt>
      <trkpt lat="37.51787" lon="27.5317">
        <ele>158.263</ele>
      </trkpt>
      <trkpt lat="37.51782" lon="27.53167">
        <ele>157.746</ele>
      </trkpt>
      <trkpt lat="37.5178" lon="27.53163">
        <ele>157.324</ele>
      </trkpt>
      <trkpt lat="37.51778" lon="27.53162">
        <ele>157.254</ele>
      </trkpt>
      <trkpt lat="37.51771" lon="27.53159">
        <ele>157.744</ele>
      </trkpt>
      <trkpt lat="37.51768" lon="27.53156">
        <ele>157.684</ele>
      </trkpt>
      <trkpt lat="37.51764" lon="27.5315">
        <ele>156.928</ele>
      </trkpt>
      <trkpt lat="37.51765" lon="27.53148">
        <ele>156.449</ele>
      </trkpt>
      <trkpt lat="37.51762" lon="27.5314">
        <ele>155.386</ele>
      </trkpt>
      <trkpt lat="37.51763" lon="27.53128">
        <ele>153.844</ele>
      </trkpt>
      <trkpt lat="37.51764" lon="27.53115">
        <ele>152.384</ele>
      </trkpt>
      <trkpt lat="37.51763" lon="27.53102">
        <ele>151.205</ele>
      </trkpt>
      <trkpt lat="37.51762" lon="27.53099">
        <ele>150.925</ele>
      </trkpt>
      <trkpt lat="37.51752" lon="27.53091">
        <ele>149.151</ele>
      </trkpt>
      <trkpt lat="37.51749" lon="27.53088">
        <ele>148.525</ele>
      </trkpt>
      <trkpt lat="37.51744" lon="27.5308">
        <ele>147.846</ele>
      </trkpt>
      <trkpt lat="37.51733" lon="27.53078">
        <ele>147.341</ele>
      </trkpt>
      <trkpt lat="37.51725" lon="27.53072">
        <ele>146.744</ele>
      </trkpt>
      <trkpt lat="37.51714" lon="27.53063">
        <ele>146.483</ele>
      </trkpt>
      <trkpt lat="37.51703" lon="27.53057">
        <ele>146.102</ele>
      </trkpt>
      <trkpt lat="37.51691" lon="27.53048">
        <ele>146.511</ele>
      </trkpt>
      <trkpt lat="37.51676" lon="27.53038">
        <ele>148.869</ele>
      </trkpt>
      <trkpt lat="37.51668" lon="27.53025">
        <ele>149.607</ele>
      </trkpt>
      <trkpt lat="37.51663" lon="27.53017">
        <ele>149.574</ele>
      </trkpt>
      <trkpt lat="37.51657" lon="27.53018">
        <ele>149.529</ele>
      </trkpt>
      <trkpt lat="37.51657" lon="27.53015">
        <ele>149.349</ele>
      </trkpt>
      <trkpt lat="37.51657" lon="27.53015">
        <ele>149.367</ele>
      </trkpt>
      <trkpt lat="37.51656" lon="27.53015">
        <ele>149.38</ele>
      </trkpt>
      <trkpt lat="37.51654" lon="27.53012">
        <ele>149.169</ele>
      </trkpt>
      <trkpt lat="37.51653" lon="27.5301">
        <ele>149.017</ele>
      </trkpt>
      <trkpt lat="37.51651" lon="27.53017">
        <ele>149.376</ele>
      </trkpt>
      <trkpt lat="37.51647" lon="27.5302">
        <ele>149.547</ele>
      </trkpt>
      <trkpt lat="37.5163" lon="27.53025">
        <ele>148.842</ele>
      </trkpt>
      <trkpt lat="37.51629" lon="27.53026">
        <ele>148.761</ele>
      </trkpt>
      <trkpt lat="37.51624" lon="27.53024">
        <ele>148.004</ele>
      </trkpt>
      <trkpt lat="37.51611" lon="27.53019">
        <ele>145.979</ele>
      </trkpt>
      <trkpt lat="37.51598" lon="27.53016">
        <ele>143.852</ele>
      </trkpt>
      <trkpt lat="37.51588" lon="27.53025">
        <ele>144.071</ele>
      </trkpt>
      <trkpt lat="37.51578" lon="27.53028">
        <ele>143.54</ele>
      </trkpt>
      <trkpt lat="37.51572" lon="27.53037">
        <ele>144.96</ele>
      </trkpt>
      <trkpt lat="37.51562" lon="27.53035">
        <ele>143.742</ele>
      </trkpt>
      <trkpt lat="37.5156" lon="27.53035">
        <ele>143.586</ele>
      </trkpt>
      <trkpt lat="37.5155" lon="27.53038">
        <ele>144.213</ele>
      </trkpt>
      <trkpt lat="37.51549" lon="27.53037">
        <ele>144.211</ele>
      </trkpt>
      <trkpt lat="37.51538" lon="27.53036">
        <ele>144.81</ele>
      </trkpt>
      <trkpt lat="37.51536" lon="27.53036">
        <ele>144.994</ele>
      </trkpt>
      <trkpt lat="37.5153" lon="27.53021">
        <ele>143.926</ele>
      </trkpt>
      <trkpt lat="37.51527" lon="27.53007">
        <ele>142.978</ele>
      </trkpt>
      <trkpt lat="37.51524" lon="27.52998">
        <ele>143.3</ele>
      </trkpt>
      <trkpt lat="37.51517" lon="27.52991">
        <ele>144.916</ele>
      </trkpt>
      <trkpt lat="37.51514" lon="27.52988">
        <ele>145.526</ele>
      </trkpt>
      <trkpt lat="37.51512" lon="27.52985">
        <ele>146.076</ele>
      </trkpt>
      <trkpt lat="37.51507" lon="27.52974">
        <ele>146.72</ele>
      </trkpt>
      <trkpt lat="37.51498" lon="27.52968">
        <ele>148.747</ele>
      </trkpt>
      <trkpt lat="37.51495" lon="27.5296">
        <ele>148.35</ele>
      </trkpt>
      <trkpt lat="37.51494" lon="27.52958">
        <ele>148.304</ele>
      </trkpt>
      <trkpt lat="37.51492" lon="27.5295">
        <ele>147.387</ele>
      </trkpt>
      <trkpt lat="37.5149" lon="27.52946">
        <ele>146.995</ele>
      </trkpt>
      <trkpt lat="37.51484" lon="27.52944">
        <ele>147.822</ele>
      </trkpt>
      <trkpt lat="37.51476" lon="27.52934">
        <ele>146.799</ele>
      </trkpt>
      <trkpt lat="37.51472" lon="27.52924">
        <ele>144.807</ele>
      </trkpt>
      <trkpt lat="37.51467" lon="27.52911">
        <ele>141.415</ele>
      </trkpt>
      <trkpt lat="37.51464" lon="27.52908">
        <ele>140.445</ele>
      </trkpt>
      <trkpt lat="37.51456" lon="27.52907">
        <ele>140.216</ele>
      </trkpt>
      <trkpt lat="37.51447" lon="27.52908">
        <ele>140.387</ele>
      </trkpt>
      <trkpt lat="37.51445" lon="27.52907">
        <ele>140.175</ele>
      </trkpt>
      <trkpt lat="37.51439" lon="27.52905">
        <ele>139.346</ele>
      </trkpt>
      <trkpt lat="37.51436" lon="27.529">
        <ele>137.582</ele>
      </trkpt>
      <trkpt lat="37.51432" lon="27.52893">
        <ele>135.191</ele>
      </trkpt>
      <trkpt lat="37.5143" lon="27.5289">
        <ele>134.416</ele>
      </trkpt>
      <trkpt lat="37.51428" lon="27.52888">
        <ele>133.668</ele>
      </trkpt>
      <trkpt lat="37.51426" lon="27.52874">
        <ele>130.494</ele>
      </trkpt>
      <trkpt lat="37.51421" lon="27.52862">
        <ele>127.535</ele>
      </trkpt>
      <trkpt lat="37.51417" lon="27.52849">
        <ele>125.296</ele>
      </trkpt>
      <trkpt lat="37.51412" lon="27.52844">
        <ele>124.186</ele>
      </trkpt>
      <trkpt lat="37.51413" lon="27.52844">
        <ele>124.252</ele>
      </trkpt>
      <trkpt lat="37.5142" lon="27.5284">
        <ele>124.015</ele>
      </trkpt>
      <trkpt lat="37.51425" lon="27.52831">
        <ele>122.68</ele>
      </trkpt>
      <trkpt lat="37.51431" lon="27.52822">
        <ele>121.561</ele>
      </trkpt>
      <trkpt lat="37.51436" lon="27.52823">
        <ele>121.786</ele>
      </trkpt>
      <trkpt lat="37.51443" lon="27.52829">
        <ele>122.519</ele>
      </trkpt>
      <trkpt lat="37.51446" lon="27.52818">
        <ele>121.309</ele>
      </trkpt>
      <trkpt lat="37.51445" lon="27.52806">
        <ele>120.056</ele>
      </trkpt>
      <trkpt lat="37.51445" lon="27.52805">
        <ele>119.999</ele>
      </trkpt>
      <trkpt lat="37.51446" lon="27.52794">
        <ele>119.949</ele>
      </trkpt>
      <trkpt lat="37.51448" lon="27.52784">
        <ele>119.782</ele>
      </trkpt>
      <trkpt lat="37.51446" lon="27.52771">
        <ele>120.072</ele>
      </trkpt>
      <trkpt lat="37.51441" lon="27.52767">
        <ele>120.112</ele>
      </trkpt>
      <trkpt lat="37.51437" lon="27.52756">
        <ele>120.39</ele>
      </trkpt>
      <trkpt lat="37.51429" lon="27.52738">
        <ele>121.176</ele>
      </trkpt>
      <trkpt lat="37.51428" lon="27.52732">
        <ele>121.549</ele>
      </trkpt>
      <trkpt lat="37.51419" lon="27.52727">
        <ele>122.366</ele>
      </trkpt>
      <trkpt lat="37.51415" lon="27.52723">
        <ele>122.719</ele>
      </trkpt>
      <trkpt lat="37.51411" lon="27.52709">
        <ele>123.328</ele>
      </trkpt>
      <trkpt lat="37.51408" lon="27.52705">
        <ele>123.395</ele>
      </trkpt>
      <trkpt lat="37.51404" lon="27.52703">
        <ele>123.203</ele>
      </trkpt>
      <trkpt lat="37.51393" lon="27.52697">
        <ele>123.001</ele>
      </trkpt>
      <trkpt lat="37.5139" lon="27.52697">
        <ele>122.683</ele>
      </trkpt>
      <trkpt lat="37.51378" lon="27.52698">
        <ele>120.721</ele>
      </trkpt>
      <trkpt lat="37.51372" lon="27.52702">
        <ele>119.113</ele>
      </trkpt>
      <trkpt lat="37.5137" lon="27.52705">
        <ele>118.637</ele>
      </trkpt>
      <trkpt lat="37.51369" lon="27.52708">
        <ele>118.154</ele>
      </trkpt>
      <trkpt lat="37.5136" lon="27.52703">
        <ele>117.2</ele>
      </trkpt>
      <trkpt lat="37.51359" lon="27.52701">
        <ele>117.158</ele>
      </trkpt>
      <trkpt lat="37.5135" lon="27.52707">
        <ele>115.341</ele>
      </trkpt>
      <trkpt lat="37.51344" lon="27.52703">
        <ele>114.484</ele>
      </trkpt>
      <trkpt lat="37.5134" lon="27.52704">
        <ele>113.722</ele>
      </trkpt>
      <trkpt lat="37.51338" lon="27.52703">
        <ele>113.461</ele>
      </trkpt>
      <trkpt lat="37.51336" lon="27.52707">
        <ele>113.004</ele>
      </trkpt>
      <trkpt lat="37.51336" lon="27.52712">
        <ele>112.752</ele>
      </trkpt>
      <trkpt lat="37.51333" lon="27.52711">
        <ele>112.325</ele>
      </trkpt>
      <trkpt lat="37.51328" lon="27.52708">
        <ele>111.13</ele>
      </trkpt>
      <trkpt lat="37.51327" lon="27.52707">
        <ele>110.943</ele>
      </trkpt>
      <trkpt lat="37.51322" lon="27.52693">
        <ele>110.209</ele>
      </trkpt>
      <trkpt lat="37.51319" lon="27.5269">
        <ele>109.457</ele>
      </trkpt>
      <trkpt lat="37.51317" lon="27.52686">
        <ele>108.833</ele>
      </trkpt>
      <trkpt lat="37.51308" lon="27.5267">
        <ele>107.307</ele>
      </trkpt>
      <trkpt lat="37.51305" lon="27.52662">
        <ele>106.601</ele>
      </trkpt>
      <trkpt lat="37.51299" lon="27.52652">
        <ele>105.426</ele>
      </trkpt>
      <trkpt lat="37.51296" lon="27.52648">
        <ele>104.975</ele>
      </trkpt>
      <trkpt lat="37.51292" lon="27.52639">
        <ele>104.079</ele>
      </trkpt>
      <trkpt lat="37.51298" lon="27.52643">
        <ele>104.789</ele>
      </trkpt>
      <trkpt lat="37.51305" lon="27.52639">
        <ele>104.952</ele>
      </trkpt>
      <trkpt lat="37.51303" lon="27.52631">
        <ele>103.544</ele>
      </trkpt>
      <trkpt lat="37.51311" lon="27.52634">
        <ele>105.101</ele>
      </trkpt>
      <trkpt lat="37.51308" lon="27.5262">
        <ele>102.085</ele>
      </trkpt>
      <trkpt lat="37.51306" lon="27.52615">
        <ele>100.67</ele>
      </trkpt>
      <trkpt lat="37.51304" lon="27.52612">
        <ele>100.195</ele>
      </trkpt>
      <trkpt lat="37.513" lon="27.52608">
        <ele>99.671</ele>
      </trkpt>
      <trkpt lat="37.51297" lon="27.52601">
        <ele>98.693</ele>
      </trkpt>
      <trkpt lat="37.51291" lon="27.52595">
        <ele>97.964</ele>
      </trkpt>
      <trkpt lat="37.5128" lon="27.52587">
        <ele>96.703</ele>
      </trkpt>
      <trkpt lat="37.51273" lon="27.52585">
        <ele>96.195</ele>
      </trkpt>
      <trkpt lat="37.51271" lon="27.52581">
        <ele>95.343</ele>
      </trkpt>
      <trkpt lat="37.51265" lon="27.52564">
        <ele>91.665</ele>
      </trkpt>
      <trkpt lat="37.51253" lon="27.52558">
        <ele>89.65</ele>
      </trkpt>
      <trkpt lat="37.51251" lon="27.52556">
        <ele>89.272</ele>
      </trkpt>
      <trkpt lat="37.5125" lon="27.52554">
        <ele>88.753</ele>
      </trkpt>
      <trkpt lat="37.51244" lon="27.52551">
        <ele>87.597</ele>
      </trkpt>
      <trkpt lat="37.51237" lon="27.52551">
        <ele>86.892</ele>
      </trkpt>
      <trkpt lat="37.51231" lon="27.52552">
        <ele>86.432</ele>
      </trkpt>
      <trkpt lat="37.51229" lon="27.52544">
        <ele>84.897</ele>
      </trkpt>
      <trkpt lat="37.51221" lon="27.52542">
        <ele>83.87</ele>
      </trkpt>
      <trkpt lat="37.51217" lon="27.52544">
        <ele>83.703</ele>
      </trkpt>
      <trkpt lat="37.51216" lon="27.52547">
        <ele>84.065</ele>
      </trkpt>
      <trkpt lat="37.51208" lon="27.52549">
        <ele>83.354</ele>
      </trkpt>
      <trkpt lat="37.51202" lon="27.52551">
        <ele>83.05</ele>
      </trkpt>
      <trkpt lat="37.51199" lon="27.52549">
        <ele>82.324</ele>
      </trkpt>
      <trkpt lat="37.51199" lon="27.52544">
        <ele>81.355</ele>
      </trkpt>
      <trkpt lat="37.51193" lon="27.52534">
        <ele>78.869</ele>
      </trkpt>
      <trkpt lat="37.51192" lon="27.52531">
        <ele>78.307</ele>
      </trkpt>
      <trkpt lat="37.51187" lon="27.52525">
        <ele>76.633</ele>
      </trkpt>
      <trkpt lat="37.51183" lon="27.52521">
        <ele>75.446</ele>
      </trkpt>
      <trkpt lat="37.51176" lon="27.52514">
        <ele>73.066</ele>
      </trkpt>
      <trkpt lat="37.5117" lon="27.5251">
        <ele>71.598</ele>
      </trkpt>
      <trkpt lat="37.51177" lon="27.52508">
        <ele>72.015</ele>
      </trkpt>
      <trkpt lat="37.51184" lon="27.52505">
        <ele>72.563</ele>
      </trkpt>
      <trkpt lat="37.51186" lon="27.52502">
        <ele>72.117</ele>
      </trkpt>
      <trkpt lat="37.51191" lon="27.52491">
        <ele>70.536</ele>
      </trkpt>
      <trkpt lat="37.51191" lon="27.52492">
        <ele>70.746</ele>
      </trkpt>
      <trkpt lat="37.51176" lon="27.52486">
        <ele>67.238</ele>
      </trkpt>
      <trkpt lat="37.51173" lon="27.52484">
        <ele>66.554</ele>
      </trkpt>
      <trkpt lat="37.51165" lon="27.52475">
        <ele>63.355</ele>
      </trkpt>
      <trkpt lat="37.51158" lon="27.52466">
        <ele>61.482</ele>
      </trkpt>
      <trkpt lat="37.51157" lon="27.52465">
        <ele>61.178</ele>
      </trkpt>
      <trkpt lat="37.51152" lon="27.52463">
        <ele>60.34</ele>
      </trkpt>
      <trkpt lat="37.51145" lon="27.52463">
        <ele>59.495</ele>
      </trkpt>
      <trkpt lat="37.51142" lon="27.52464">
        <ele>59.197</ele>
      </trkpt>
      <trkpt lat="37.51142" lon="27.52462">
        <ele>58.988</ele>
      </trkpt>
      <trkpt lat="37.51143" lon="27.52453">
        <ele>57.783</ele>
      </trkpt>
      <trkpt lat="37.51145" lon="27.52442">
        <ele>57.197</ele>
      </trkpt>
      <trkpt lat="37.51145" lon="27.52437">
        <ele>57.105</ele>
      </trkpt>
      <trkpt lat="37.51138" lon="27.52426">
        <ele>55.902</ele>
      </trkpt>
      <trkpt lat="37.5113" lon="27.52425">
        <ele>54.729</ele>
      </trkpt>
      <trkpt lat="37.51123" lon="27.5243">
        <ele>53.928</ele>
      </trkpt>
      <trkpt lat="37.51122" lon="27.52428">
        <ele>53.671</ele>
      </trkpt>
      <trkpt lat="37.51115" lon="27.52429">
        <ele>52.838</ele>
      </trkpt>
      <trkpt lat="37.5111" lon="27.52428">
        <ele>52.301</ele>
      </trkpt>
      <trkpt lat="37.51111" lon="27.52428">
        <ele>52.274</ele>
      </trkpt>
      <trkpt lat="37.51103" lon="27.52427">
        <ele>52.542</ele>
      </trkpt>
      <trkpt lat="37.51102" lon="27.52428">
        <ele>52.795</ele>
      </trkpt>
      <trkpt lat="37.51102" lon="27.52428">
        <ele>52.766</ele>
      </trkpt>
      <trkpt lat="37.511" lon="27.52428">
        <ele>52.826</ele>
      </trkpt>
      <trkpt lat="37.51084" lon="27.52429">
        <ele>54.175</ele>
      </trkpt>
      <trkpt lat="37.51079" lon="27.52427">
        <ele>54.367</ele>
      </trkpt>
      <trkpt lat="37.51066" lon="27.52419">
        <ele>55.186</ele>
      </trkpt>
      <trkpt lat="37.51064" lon="27.52417">
        <ele>55.139</ele>
      </trkpt>
      <trkpt lat="37.51057" lon="27.52412">
        <ele>55.627</ele>
      </trkpt>
      <trkpt lat="37.51047" lon="27.52403">
        <ele>56.305</ele>
      </trkpt>
      <trkpt lat="37.51045" lon="27.52403">
        <ele>56.777</ele>
      </trkpt>
      <trkpt lat="37.5104" lon="27.52389">
        <ele>55.56</ele>
      </trkpt>
      <trkpt lat="37.51036" lon="27.52379">
        <ele>53.271</ele>
      </trkpt>
      <trkpt lat="37.51035" lon="27.52372">
        <ele>51.532</ele>
      </trkpt>
      <trkpt lat="37.51029" lon="27.52354">
        <ele>47.858</ele>
      </trkpt>
      <trkpt lat="37.51028" lon="27.52351">
        <ele>47.23</ele>
      </trkpt>
      <trkpt lat="37.51021" lon="27.52342">
        <ele>45.6</ele>
      </trkpt>
      <trkpt lat="37.51011" lon="27.52331">
        <ele>44.637</ele>
      </trkpt>
      <trkpt lat="37.51002" lon="27.52326">
        <ele>45.396</ele>
      </trkpt>
      <trkpt lat="37.50991" lon="27.52325">
        <ele>44.219</ele>
      </trkpt>
      <trkpt lat="37.50979" lon="27.5233">
        <ele>42.786</ele>
      </trkpt>
      <trkpt lat="37.50973" lon="27.52332">
        <ele>42.018</ele>
      </trkpt>
      <trkpt lat="37.50964" lon="27.52344">
        <ele>39.206</ele>
      </trkpt>
      <trkpt lat="37.50963" lon="27.52346">
        <ele>39.059</ele>
      </trkpt>
      <trkpt lat="37.5096" lon="27.52361">
        <ele>38.602</ele>
      </trkpt>
      <trkpt lat="37.50959" lon="27.52365">
        <ele>38.624</ele>
      </trkpt>
      <trkpt lat="37.50958" lon="27.5237">
        <ele>38.563</ele>
      </trkpt>
      <trkpt lat="37.50956" lon="27.5238">
        <ele>38.322</ele>
      </trkpt>
      <trkpt lat="37.50953" lon="27.52382">
        <ele>37.317</ele>
      </trkpt>
      <trkpt lat="37.50949" lon="27.5238">
        <ele>35.318</ele>
      </trkpt>
      <trkpt lat="37.50948" lon="27.5237">
        <ele>33.99</ele>
      </trkpt>
      <trkpt lat="37.50946" lon="27.52356">
        <ele>32.296</ele>
      </trkpt>
      <trkpt lat="37.50942" lon="27.52346">
        <ele>30.671</ele>
      </trkpt>
      <trkpt lat="37.50941" lon="27.52346">
        <ele>30.376</ele>
      </trkpt>
      <trkpt lat="37.50941" lon="27.52345">
        <ele>30.058</ele>
      </trkpt>
      <trkpt lat="37.50939" lon="27.52341">
        <ele>29.462</ele>
      </trkpt>
      <trkpt lat="37.50942" lon="27.52333">
        <ele>30.02</ele>
      </trkpt>
      <trkpt lat="37.50941" lon="27.52326">
        <ele>29.623</ele>
      </trkpt>
      <trkpt lat="37.50939" lon="27.5232">
        <ele>28.531</ele>
      </trkpt>
      <trkpt lat="37.50934" lon="27.52316">
        <ele>26.857</ele>
      </trkpt>
      <trkpt lat="37.50933" lon="27.52315">
        <ele>26.34</ele>
      </trkpt>
      <trkpt lat="37.5093" lon="27.52313">
        <ele>25.587</ele>
      </trkpt>
      <trkpt lat="37.50922" lon="27.52309">
        <ele>22.85</ele>
      </trkpt>
      <trkpt lat="37.50918" lon="27.52307">
        <ele>21.355</ele>
      </trkpt>
      <trkpt lat="37.50908" lon="27.52297">
        <ele>20.013</ele>
      </trkpt>
      <trkpt lat="37.50904" lon="27.52293">
        <ele>19.361</ele>
      </trkpt>
      <trkpt lat="37.50897" lon="27.52284">
        <ele>18.498</ele>
      </trkpt>
      <trkpt lat="37.50899" lon="27.52281">
        <ele>18.904</ele>
      </trkpt>
      <trkpt lat="37.50896" lon="27.52271">
        <ele>18.286</ele>
      </trkpt>
      <trkpt lat="37.50894" lon="27.52268">
        <ele>17.692</ele>
      </trkpt>
      <trkpt lat="37.50899" lon="27.52258">
        <ele>18.347</ele>
      </trkpt>
      <trkpt lat="37.50899" lon="27.52251">
        <ele>18.213</ele>
      </trkpt>
      <trkpt lat="37.509" lon="27.5225">
        <ele>18.442</ele>
      </trkpt>
      <trkpt lat="37.50908" lon="27.52248">
        <ele>19.977</ele>
      </trkpt>
      <trkpt lat="37.50919" lon="27.52245">
        <ele>21.99</ele>
      </trkpt>
      <trkpt lat="37.50927" lon="27.5224">
        <ele>23.268</ele>
      </trkpt>
      <trkpt lat="37.50927" lon="27.52233">
        <ele>22.846</ele>
      </trkpt>
      <trkpt lat="37.50929" lon="27.52219">
        <ele>21.977</ele>
      </trkpt>
      <trkpt lat="37.50934" lon="27.52206">
        <ele>21.349</ele>
      </trkpt>
      <trkpt lat="37.5093" lon="27.52194">
        <ele>19.343</ele>
      </trkpt>
      <trkpt lat="37.5093" lon="27.52192">
        <ele>19.035</ele>
      </trkpt>
      <trkpt lat="37.5093" lon="27.52181">
        <ele>17.38</ele>
      </trkpt>
      <trkpt lat="37.50929" lon="27.52172">
        <ele>15.955</ele>
      </trkpt>
      <trkpt lat="37.50924" lon="27.52166">
        <ele>14.316</ele>
      </trkpt>
      <trkpt lat="37.50912" lon="27.52155">
        <ele>11.41</ele>
      </trkpt>
      <trkpt lat="37.50895" lon="27.52147">
        <ele>9.902</ele>
      </trkpt>
      <trkpt lat="37.50881" lon="27.52139">
        <ele>8.723</ele>
      </trkpt>
      <trkpt lat="37.50865" lon="27.52129">
        <ele>7.783</ele>
      </trkpt>
      <trkpt lat="37.50852" lon="27.52118">
        <ele>7.157</ele>
      </trkpt>
      <trkpt lat="37.50852" lon="27.52118">
        <ele>7.154</ele>
      </trkpt>
      <trkpt lat="37.5085" lon="27.52116">
        <ele>7.103</ele>
      </trkpt>
      <trkpt lat="37.5085" lon="27.52116">
        <ele>7.103</ele>
      </trkpt>
      <trkpt lat="37.5085" lon="27.52119">
        <ele>7.16</ele>
      </trkpt>
      <trkpt lat="37.5085" lon="27.52119">
        <ele>7.158</ele>
      </trkpt>
      <trkpt lat="37.50839" lon="27.52129">
        <ele>7.12</ele>
      </trkpt>
      <trkpt lat="37.50825" lon="27.52134">
        <ele>6.714</ele>
      </trkpt>
      <trkpt lat="37.50814" lon="27.52141">
        <ele>6.299</ele>
      </trkpt>
      <trkpt lat="37.50798" lon="27.52151">
        <ele>5.881</ele>
      </trkpt>
      <trkpt lat="37.50788" lon="27.52161">
        <ele>5.482</ele>
      </trkpt>
      <trkpt lat="37.50773" lon="27.52173">
        <ele>4.843</ele>
      </trkpt>
      <trkpt lat="37.50757" lon="27.52184">
        <ele>4.242</ele>
      </trkpt>
      <trkpt lat="37.50742" lon="27.52193">
        <ele>4.294</ele>
      </trkpt>
      <trkpt lat="37.50729" lon="27.52203">
        <ele>5.008</ele>
      </trkpt>
      <trkpt lat="37.50717" lon="27.52218">
        <ele>5.868</ele>
      </trkpt>
      <trkpt lat="37.50713" lon="27.52217">
        <ele>5.867</ele>
      </trkpt>
      <trkpt lat="37.50705" lon="27.52217">
        <ele>5.932</ele>
      </trkpt>
      <trkpt lat="37.50696" lon="27.52215">
        <ele>5.982</ele>
      </trkpt>
      <trkpt lat="37.50694" lon="27.52215">
        <ele>6.016</ele>
      </trkpt>
      <trkpt lat="37.50686" lon="27.52213">
        <ele>6.216</ele>
      </trkpt>
      <trkpt lat="37.50685" lon="27.52213">
        <ele>6.249</ele>
      </trkpt>
      <trkpt lat="37.50679" lon="27.52214">
        <ele>6.434</ele>
      </trkpt>
      <trkpt lat="37.50666" lon="27.52207">
        <ele>5.891</ele>
      </trkpt>
      <trkpt lat="37.50647" lon="27.52202">
        <ele>5.802</ele>
      </trkpt>
      <trkpt lat="37.50632" lon="27.52199">
        <ele>5.845</ele>
      </trkpt>
      <trkpt lat="37.50622" lon="27.52194">
        <ele>4.997</ele>
      </trkpt>
      <trkpt lat="37.50608" lon="27.52192">
        <ele>5.063</ele>
      </trkpt>
      <trkpt lat="37.50609" lon="27.52192">
        <ele>5.055</ele>
      </trkpt>
      <trkpt lat="37.50606" lon="27.52191">
        <ele>5.116</ele>
      </trkpt>
      <trkpt lat="37.5059" lon="27.52184">
        <ele>4.719</ele>
      </trkpt>
      <trkpt lat="37.50573" lon="27.5218">
        <ele>5.319</ele>
      </trkpt>
      <trkpt lat="37.50558" lon="27.52178">
        <ele>7.091</ele>
      </trkpt>
      <trkpt lat="37.50557" lon="27.52178">
        <ele>7.246</ele>
      </trkpt>
      <trkpt lat="37.5055" lon="27.52175">
        <ele>7.455</ele>
      </trkpt>
      <trkpt lat="37.50536" lon="27.52172">
        <ele>7.804</ele>
      </trkpt>
      <trkpt lat="37.50519" lon="27.52168">
        <ele>7.432</ele>
      </trkpt>
      <trkpt lat="37.50504" lon="27.52163">
        <ele>6.426</ele>
      </trkpt>
      <trkpt lat="37.50492" lon="27.52166">
        <ele>6.604</ele>
      </trkpt>
      <trkpt lat="37.50484" lon="27.5217">
        <ele>7.623</ele>
      </trkpt>
      <trkpt lat="37.50474" lon="27.52169">
        <ele>6.969</ele>
      </trkpt>
      <trkpt lat="37.50461" lon="27.52163">
        <ele>5.721</ele>
      </trkpt>
      <trkpt lat="37.50452" lon="27.52156">
        <ele>4.582</ele>
      </trkpt>
      <trkpt lat="37.5043" lon="27.52155">
        <ele>6.708</ele>
      </trkpt>
      <trkpt lat="37.50416" lon="27.5215">
        <ele>7.925</ele>
      </trkpt>
      <trkpt lat="37.50398" lon="27.52156">
        <ele>8.436</ele>
      </trkpt>
      <trkpt lat="37.50385" lon="27.52166">
        <ele>12.589</ele>
      </trkpt>
      <trkpt lat="37.50376" lon="27.52162">
        <ele>9.945</ele>
      </trkpt>
      <trkpt lat="37.50371" lon="27.52156">
        <ele>7.226</ele>
      </trkpt>
      <trkpt lat="37.50355" lon="27.52167">
        <ele>8.517</ele>
      </trkpt>
      <trkpt lat="37.5034" lon="27.52172">
        <ele>5.199</ele>
      </trkpt>
      <trkpt lat="37.50326" lon="27.52177">
        <ele>5.321</ele>
      </trkpt>
      <trkpt lat="37.50312" lon="27.52191">
        <ele>10.252</ele>
      </trkpt>
      <trkpt lat="37.50295" lon="27.52198">
        <ele>8.267</ele>
      </trkpt>
      <trkpt lat="37.50287" lon="27.52211">
        <ele>10.699</ele>
      </trkpt>
      <trkpt lat="37.50269" lon="27.52217">
        <ele>10.451</ele>
      </trkpt>
      <trkpt lat="37.50254" lon="27.52218">
        <ele>9.724</ele>
      </trkpt>
      <trkpt lat="37.50236" lon="27.5222">
        <ele>8.41</ele>
      </trkpt>
      <trkpt lat="37.50223" lon="27.52219">
        <ele>6.277</ele>
      </trkpt>
      <trkpt lat="37.50211" lon="27.52218">
        <ele>5.215</ele>
      </trkpt>
      <trkpt lat="37.50202" lon="27.52226">
        <ele>6.009</ele>
      </trkpt>
      <trkpt lat="37.50192" lon="27.52246">
        <ele>6.472</ele>
      </trkpt>
      <trkpt lat="37.50182" lon="27.52261">
        <ele>7.092</ele>
      </trkpt>
      <trkpt lat="37.50179" lon="27.52276">
        <ele>8.119</ele>
      </trkpt>
      <trkpt lat="37.50173" lon="27.52292">
        <ele>8.959</ele>
      </trkpt>
      <trkpt lat="37.50167" lon="27.52308">
        <ele>10.203</ele>
      </trkpt>
      <trkpt lat="37.50156" lon="27.52317">
        <ele>10.683</ele>
      </trkpt>
      <trkpt lat="37.50142" lon="27.52324">
        <ele>10.736</ele>
      </trkpt>
      <trkpt lat="37.50128" lon="27.52333">
        <ele>10.554</ele>
      </trkpt>
      <trkpt lat="37.5012" lon="27.52346">
        <ele>11.181</ele>
      </trkpt>
      <trkpt lat="37.50111" lon="27.52365">
        <ele>11.964</ele>
      </trkpt>
      <trkpt lat="37.50104" lon="27.52376">
        <ele>10.956</ele>
      </trkpt>
      <trkpt lat="37.50097" lon="27.52388">
        <ele>9.959</ele>
      </trkpt>
      <trkpt lat="37.50085" lon="27.52402">
        <ele>9.57</ele>
      </trkpt>
      <trkpt lat="37.50073" lon="27.52408">
        <ele>9.101</ele>
      </trkpt>
      <trkpt lat="37.50054" lon="27.52413">
        <ele>8.285</ele>
      </trkpt>
      <trkpt lat="37.50047" lon="27.52416">
        <ele>7.65</ele>
      </trkpt>
      <trkpt lat="37.50036" lon="27.52425">
        <ele>7.07</ele>
      </trkpt>
      <trkpt lat="37.50024" lon="27.5243">
        <ele>6.284</ele>
      </trkpt>
      <trkpt lat="37.50017" lon="27.52449">
        <ele>7.628</ele>
        <time>2020-07-02T07:14:37Z</time>
      </trkpt>
      <trkpt lat="37.50027" lon="27.52452">
        <ele>8.467</ele>
      </trkpt>
      <trkpt lat="37.50032" lon="27.52455">
        <ele>9.246</ele>
      </trkpt>
      <trkpt lat="37.50039" lon="27.5246">
        <ele>10.315</ele>
      </trkpt>
      <trkpt lat="37.50044" lon="27.52465">
        <ele>10.953</ele>
      </trkpt>
      <trkpt lat="37.50049" lon="27.52467">
        <ele>11.45</ele>
      </trkpt>
      <trkpt lat="37.50054" lon="27.52471">
        <ele>11.894</ele>
      </trkpt>
      <trkpt lat="37.5006" lon="27.52478">
        <ele>12.256</ele>
      </trkpt>
      <trkpt lat="37.50066" lon="27.52486">
        <ele>12.568</ele>
      </trkpt>
      <trkpt lat="37.50072" lon="27.52493">
        <ele>12.739</ele>
      </trkpt>
      <trkpt lat="37.50078" lon="27.525">
        <ele>12.817</ele>
      </trkpt>
      <trkpt lat="37.50082" lon="27.52505">
        <ele>13.299</ele>
      </trkpt>
      <trkpt lat="37.50088" lon="27.52512">
        <ele>14.715</ele>
      </trkpt>
      <trkpt lat="37.50092" lon="27.52521">
        <ele>15.986</ele>
      </trkpt>
      <trkpt lat="37.50092" lon="27.5253">
        <ele>16.802</ele>
      </trkpt>
      <trkpt lat="37.50093" lon="27.52538">
        <ele>17.785</ele>
      </trkpt>
      <trkpt lat="37.50095" lon="27.52544">
        <ele>18.911</ele>
      </trkpt>
      <trkpt lat="37.50103" lon="27.52544">
        <ele>20.236</ele>
      </trkpt>
      <trkpt lat="37.50109" lon="27.52543">
        <ele>21.231</ele>
      </trkpt>
      <trkpt lat="37.50115" lon="27.52542">
        <ele>22.207</ele>
      </trkpt>
      <trkpt lat="37.50125" lon="27.52542">
        <ele>24.145</ele>
      </trkpt>
      <trkpt lat="37.50132" lon="27.52543">
        <ele>25.628</ele>
      </trkpt>
      <trkpt lat="37.50136" lon="27.52546">
        <ele>26.802</ele>
      </trkpt>
      <trkpt lat="37.50142" lon="27.52548">
        <ele>27.805</ele>
      </trkpt>
      <trkpt lat="37.50148" lon="27.5255">
        <ele>28.865</ele>
      </trkpt>
      <trkpt lat="37.50153" lon="27.52555">
        <ele>30.036</ele>
      </trkpt>
      <trkpt lat="37.50157" lon="27.5256">
        <ele>31.052</ele>
      </trkpt>
      <trkpt lat="37.50162" lon="27.52569">
        <ele>32.31</ele>
      </trkpt>
      <trkpt lat="37.50164" lon="27.52576">
        <ele>33.176</ele>
      </trkpt>
      <trkpt lat="37.50167" lon="27.52585">
        <ele>34.036</ele>
      </trkpt>
      <trkpt lat="37.50169" lon="27.52592">
        <ele>34.408</ele>
      </trkpt>
      <trkpt lat="37.50171" lon="27.52601">
        <ele>34.751</ele>
      </trkpt>
      <trkpt lat="37.50173" lon="27.52608">
        <ele>34.944</ele>
      </trkpt>
      <trkpt lat="37.50177" lon="27.52615">
        <ele>34.965</ele>
      </trkpt>
      <trkpt lat="37.5018" lon="27.52621">
        <ele>34.974</ele>
      </trkpt>
      <trkpt lat="37.50182" lon="27.52627">
        <ele>35.06</ele>
      </trkpt>
      <trkpt lat="37.50185" lon="27.52633">
        <ele>35.255</ele>
      </trkpt>
      <trkpt lat="37.50187" lon="27.52638">
        <ele>35.474</ele>
      </trkpt>
      <trkpt lat="37.50187" lon="27.52639">
        <ele>35.486</ele>
      </trkpt>
      <trkpt lat="37.50188" lon="27.5264">
        <ele>35.524</ele>
      </trkpt>
      <trkpt lat="37.50189" lon="27.5264">
        <ele>35.619</ele>
      </trkpt>
      <trkpt lat="37.50191" lon="27.52639">
        <ele>35.774</ele>
      </trkpt>
      <trkpt lat="37.50195" lon="27.52639">
        <ele>36.002</ele>
      </trkpt>
      <trkpt lat="37.50199" lon="27.5264">
        <ele>36.158</ele>
      </trkpt>
      <trkpt lat="37.50203" lon="27.52641">
        <ele>36.342</ele>
      </trkpt>
      <trkpt lat="37.50219" lon="27.52645">
        <ele>37.087</ele>
      </trkpt>
      <trkpt lat="37.50221" lon="27.52645">
        <ele>37.176</ele>
      </trkpt>
      <trkpt lat="37.50229" lon="27.52646">
        <ele>37.89</ele>
      </trkpt>
      <trkpt lat="37.5023" lon="27.52646">
        <ele>37.998</ele>
      </trkpt>
      <trkpt lat="37.50233" lon="27.52646">
        <ele>38.327</ele>
      </trkpt>
      <trkpt lat="37.50236" lon="27.52646">
        <ele>38.624</ele>
      </trkpt>
      <trkpt lat="37.50237" lon="27.52646">
        <ele>38.748</ele>
      </trkpt>
      <trkpt lat="37.50241" lon="27.52644">
        <ele>39.114</ele>
      </trkpt>
      <trkpt lat="37.50245" lon="27.52643">
        <ele>39.452</ele>
      </trkpt>
      <trkpt lat="37.50271" lon="27.52646">
        <ele>42.428</ele>
      </trkpt>
      <trkpt lat="37.50272" lon="27.52646">
        <ele>42.586</ele>
        <time>2020-12-22T18:52:37Z</time>
      </trkpt>
      <trkpt lat="37.50271" lon="27.52645">
        <ele>42.489</ele>
        <time>2020-12-13T06:23:31Z</time>
      </trkpt>
      <trkpt lat="37.50272" lon="27.52645">
        <ele>42.548</ele>
        <time>2020-12-13T06:23:41Z</time>
      </trkpt>
      <trkpt lat="37.50272" lon="27.52645">
        <ele>42.602</ele>
        <time>2020-12-13T06:23:42Z</time>
      </trkpt>
      <trkpt lat="37.50273" lon="27.52645">
        <ele>42.661</ele>
        <time>2020-12-13T06:23:43Z</time>
      </trkpt>
      <trkpt lat="37.50273" lon="27.52645">
        <ele>42.704</ele>
        <time>2020-12-13T06:23:44Z</time>
      </trkpt>
      <trkpt lat="37.50274" lon="27.52645">
        <ele>42.762</ele>
        <time>2020-12-13T06:23:45Z</time>
      </trkpt>
      <trkpt lat="37.50274" lon="27.52645">
        <ele>42.817</ele>
        <time>2020-12-13T06:23:46Z</time>
      </trkpt>
      <trkpt lat="37.50275" lon="27.52645">
        <ele>42.875</ele>
        <time>2020-12-13T06:23:47Z</time>
      </trkpt>
      <trkpt lat="37.50278" lon="27.52645">
        <ele>43.244</ele>
        <time>2020-12-13T06:23:48Z</time>
      </trkpt>
      <trkpt lat="37.50278" lon="27.52645">
        <ele>43.244</ele>
        <time>2020-12-13T06:23:49Z</time>
      </trkpt>
      <trkpt lat="37.50278" lon="27.52645">
        <ele>43.244</ele>
        <time>2020-12-13T06:23:50Z</time>
      </trkpt>
      <trkpt lat="37.50278" lon="27.52645">
        <ele>43.244</ele>
        <time>2020-12-13T06:23:51Z</time>
      </trkpt>
      <trkpt lat="37.50279" lon="27.52644">
        <ele>43.366</ele>
        <time>2020-12-13T06:23:52Z</time>
      </trkpt>
      <trkpt lat="37.50281" lon="27.52644">
        <ele>43.475</ele>
        <time>2020-12-13T06:23:53Z</time>
      </trkpt>
      <trkpt lat="37.50282" lon="27.52643">
        <ele>43.597</ele>
        <time>2020-12-13T06:23:54Z</time>
      </trkpt>
      <trkpt lat="37.50283" lon="27.52643">
        <ele>43.719</ele>
        <time>2020-12-13T06:23:55Z</time>
      </trkpt>
      <trkpt lat="37.50285" lon="27.52642">
        <ele>43.842</ele>
        <time>2020-12-13T06:23:56Z</time>
      </trkpt>
      <trkpt lat="37.50286" lon="27.52642">
        <ele>43.95</ele>
        <time>2020-12-13T06:23:57Z</time>
      </trkpt>
      <trkpt lat="37.50287" lon="27.52641">
        <ele>44.072</ele>
        <time>2020-12-13T06:23:58Z</time>
      </trkpt>
      <trkpt lat="37.50289" lon="27.52642">
        <ele>44.317</ele>
        <time>2020-12-13T06:23:59Z</time>
      </trkpt>
      <trkpt lat="37.50291" lon="27.52644">
        <ele>44.562</ele>
        <time>2020-12-13T06:24:00Z</time>
      </trkpt>
      <trkpt lat="37.50292" lon="27.52645">
        <ele>44.81</ele>
        <time>2020-12-13T06:24:01Z</time>
      </trkpt>
      <trkpt lat="37.50294" lon="27.52647">
        <ele>45.055</ele>
        <time>2020-12-13T06:24:02Z</time>
      </trkpt>
      <trkpt lat="37.50296" lon="27.52648">
        <ele>45.289</ele>
        <time>2020-12-13T06:24:03Z</time>
      </trkpt>
      <trkpt lat="37.50298" lon="27.5265">
        <ele>45.534</ele>
        <time>2020-12-13T06:24:04Z</time>
      </trkpt>
      <trkpt lat="37.503" lon="27.52651">
        <ele>45.782</ele>
        <time>2020-12-13T06:24:05Z</time>
      </trkpt>
      <trkpt lat="37.50301" lon="27.52652">
        <ele>46.027</ele>
        <time>2020-12-13T06:24:06Z</time>
      </trkpt>
      <trkpt lat="37.50302" lon="27.52655">
        <ele>46.2</ele>
        <time>2020-12-13T06:24:07Z</time>
      </trkpt>
      <trkpt lat="37.50303" lon="27.52657">
        <ele>46.333</ele>
        <time>2020-12-13T06:24:08Z</time>
      </trkpt>
      <trkpt lat="37.50304" lon="27.52658">
        <ele>46.502</ele>
        <time>2020-12-13T06:24:09Z</time>
      </trkpt>
      <trkpt lat="37.50305" lon="27.5266">
        <ele>46.661</ele>
        <time>2020-12-13T06:24:10Z</time>
      </trkpt>
      <trkpt lat="37.50305" lon="27.5266">
        <ele>46.661</ele>
        <time>2020-12-13T06:24:11Z</time>
      </trkpt>
      <trkpt lat="37.50307" lon="27.52663">
        <ele>47.02</ele>
        <time>2020-12-13T06:24:12Z</time>
      </trkpt>
      <trkpt lat="37.50307" lon="27.52663">
        <ele>47.02</ele>
        <time>2020-12-13T06:24:13Z</time>
      </trkpt>
      <trkpt lat="37.5031" lon="27.52665">
        <ele>47.371</ele>
        <time>2020-12-13T06:24:14Z</time>
      </trkpt>
      <trkpt lat="37.5031" lon="27.52665">
        <ele>47.371</ele>
        <time>2020-12-13T06:24:15Z</time>
      </trkpt>
      <trkpt lat="37.50312" lon="27.52667">
        <ele>47.69</ele>
        <time>2020-12-13T06:24:16Z</time>
      </trkpt>
      <trkpt lat="37.50312" lon="27.52667">
        <ele>47.69</ele>
        <time>2020-12-13T06:24:17Z</time>
      </trkpt>
      <trkpt lat="37.50315" lon="27.52669">
        <ele>48.001</ele>
        <time>2020-12-13T06:24:18Z</time>
      </trkpt>
      <trkpt lat="37.50315" lon="27.52669">
        <ele>48.001</ele>
        <time>2020-12-13T06:24:19Z</time>
      </trkpt>
      <trkpt lat="37.50317" lon="27.52671">
        <ele>48.224</ele>
        <time>2020-12-13T06:24:20Z</time>
      </trkpt>
      <trkpt lat="37.50317" lon="27.52671">
        <ele>48.224</ele>
        <time>2020-12-13T06:24:21Z</time>
      </trkpt>
      <trkpt lat="37.50319" lon="27.52673">
        <ele>48.46</ele>
        <time>2020-12-13T06:24:22Z</time>
      </trkpt>
      <trkpt lat="37.50319" lon="27.52673">
        <ele>48.46</ele>
        <time>2020-12-13T06:24:23Z</time>
      </trkpt>
      <trkpt lat="37.5032" lon="27.52676">
        <ele>48.571</ele>
        <time>2020-12-13T06:24:24Z</time>
      </trkpt>
      <trkpt lat="37.5032" lon="27.52676">
        <ele>48.571</ele>
        <time>2020-12-13T06:24:25Z</time>
      </trkpt>
      <trkpt lat="37.50321" lon="27.5268">
        <ele>48.6</ele>
        <time>2020-12-13T06:24:26Z</time>
      </trkpt>
      <trkpt lat="37.50321" lon="27.5268">
        <ele>48.6</ele>
        <time>2020-12-13T06:24:27Z</time>
      </trkpt>
      <trkpt lat="37.5032" lon="27.52683">
        <ele>48.563</ele>
        <time>2020-12-13T06:24:28Z</time>
      </trkpt>
      <trkpt lat="37.5032" lon="27.52683">
        <ele>48.563</ele>
        <time>2020-12-13T06:24:29Z</time>
      </trkpt>
      <trkpt lat="37.5032" lon="27.52687">
        <ele>48.531</ele>
        <time>2020-12-13T06:24:30Z</time>
      </trkpt>
      <trkpt lat="37.5032" lon="27.52687">
        <ele>48.531</ele>
        <time>2020-12-13T06:24:31Z</time>
      </trkpt>
      <trkpt lat="37.50319" lon="27.5269">
        <ele>48.484</ele>
        <time>2020-12-13T06:24:32Z</time>
      </trkpt>
      <trkpt lat="37.50319" lon="27.5269">
        <ele>48.484</ele>
        <time>2020-12-13T06:24:33Z</time>
      </trkpt>
      <trkpt lat="37.50319" lon="27.52694">
        <ele>48.488</ele>
        <time>2020-12-13T06:24:34Z</time>
      </trkpt>
      <trkpt lat="37.50319" lon="27.52694">
        <ele>48.488</ele>
        <time>2020-12-13T06:24:35Z</time>
      </trkpt>
      <trkpt lat="37.5032" lon="27.52699">
        <ele>48.11</ele>
        <time>2020-12-13T06:24:36Z</time>
      </trkpt>
      <trkpt lat="37.5032" lon="27.52699">
        <ele>48.11</ele>
        <time>2020-12-13T06:24:37Z</time>
      </trkpt>
      <trkpt lat="37.5032" lon="27.52703">
        <ele>47.741</ele>
        <time>2020-12-13T06:24:38Z</time>
      </trkpt>
      <trkpt lat="37.5032" lon="27.52703">
        <ele>47.741</ele>
        <time>2020-12-13T06:24:39Z</time>
      </trkpt>
      <trkpt lat="37.50322" lon="27.52707">
        <ele>47.431</ele>
        <time>2020-12-13T06:24:40Z</time>
      </trkpt>
      <trkpt lat="37.50323" lon="27.52709">
        <ele>47.285</ele>
        <time>2020-12-13T06:24:41Z</time>
      </trkpt>
      <trkpt lat="37.50324" lon="27.5271">
        <ele>47.156</ele>
        <time>2020-12-13T06:24:42Z</time>
      </trkpt>
      <trkpt lat="37.50326" lon="27.52712">
        <ele>47.018</ele>
        <time>2020-12-13T06:24:43Z</time>
      </trkpt>
      <trkpt lat="37.50328" lon="27.52714">
        <ele>46.841</ele>
        <time>2020-12-13T06:24:44Z</time>
      </trkpt>
      <trkpt lat="37.5033" lon="27.52716">
        <ele>46.662</ele>
        <time>2020-12-13T06:24:45Z</time>
      </trkpt>
      <trkpt lat="37.50332" lon="27.52717">
        <ele>46.523</ele>
        <time>2020-12-13T06:24:46Z</time>
      </trkpt>
      <trkpt lat="37.50334" lon="27.52719">
        <ele>46.408</ele>
        <time>2020-12-13T06:24:47Z</time>
      </trkpt>
      <trkpt lat="37.50337" lon="27.5272">
        <ele>46.418</ele>
        <time>2020-12-13T06:24:48Z</time>
      </trkpt>
      <trkpt lat="37.50337" lon="27.5272">
        <ele>46.418</ele>
        <time>2020-12-13T06:24:49Z</time>
      </trkpt>
      <trkpt lat="37.50337" lon="27.5272">
        <ele>46.418</ele>
        <time>2020-12-13T06:24:50Z</time>
      </trkpt>
      <trkpt lat="37.50337" lon="27.5272">
        <ele>46.418</ele>
        <time>2020-12-13T06:24:51Z</time>
      </trkpt>
      <trkpt lat="37.50347" lon="27.52728">
        <ele>46.484</ele>
        <time>2020-12-13T06:24:52Z</time>
      </trkpt>
      <trkpt lat="37.50348" lon="27.52729">
        <ele>46.521</ele>
        <time>2020-12-13T06:24:53Z</time>
      </trkpt>
      <trkpt lat="37.50348" lon="27.52731">
        <ele>46.558</ele>
        <time>2020-12-13T06:24:54Z</time>
      </trkpt>
      <trkpt lat="37.50349" lon="27.52733">
        <ele>46.599</ele>
        <time>2020-12-13T06:24:55Z</time>
      </trkpt>
      <trkpt lat="37.5035" lon="27.52737">
        <ele>46.679</ele>
        <time>2020-12-13T06:24:56Z</time>
      </trkpt>
      <trkpt lat="37.50349" lon="27.52742">
        <ele>46.68</ele>
        <time>2020-12-13T06:24:57Z</time>
      </trkpt>
      <trkpt lat="37.50349" lon="27.52744">
        <ele>46.671</ele>
        <time>2020-12-13T06:24:58Z</time>
      </trkpt>
      <trkpt lat="37.50349" lon="27.52746">
        <ele>46.685</ele>
        <time>2020-12-13T06:24:59Z</time>
      </trkpt>
      <trkpt lat="37.50349" lon="27.52749">
        <ele>46.72</ele>
        <time>2020-12-13T06:25:00Z</time>
      </trkpt>
      <trkpt lat="37.50349" lon="27.52752">
        <ele>46.695</ele>
        <time>2020-12-13T06:25:01Z</time>
      </trkpt>
      <trkpt lat="37.50349" lon="27.52752">
        <ele>46.695</ele>
        <time>2020-12-13T06:25:02Z</time>
      </trkpt>
      <trkpt lat="37.50347" lon="27.52755">
        <ele>46.579</ele>
        <time>2020-12-13T06:25:03Z</time>
      </trkpt>
      <trkpt lat="37.50347" lon="27.52755">
        <ele>46.579</ele>
        <time>2020-12-13T06:25:04Z</time>
      </trkpt>
      <trkpt lat="37.50345" lon="27.52759">
        <ele>46.405</ele>
        <time>2020-12-13T06:25:05Z</time>
      </trkpt>
      <trkpt lat="37.50345" lon="27.52759">
        <ele>46.405</ele>
        <time>2020-12-13T06:25:06Z</time>
      </trkpt>
      <trkpt lat="37.50343" lon="27.52762">
        <ele>46.163</ele>
        <time>2020-12-13T06:25:07Z</time>
      </trkpt>
      <trkpt lat="37.50343" lon="27.52762">
        <ele>46.163</ele>
        <time>2020-12-13T06:25:08Z</time>
      </trkpt>
      <trkpt lat="37.50342" lon="27.52765">
        <ele>46.105</ele>
        <time>2020-12-13T06:25:09Z</time>
      </trkpt>
      <trkpt lat="37.50342" lon="27.52767">
        <ele>46.091</ele>
        <time>2020-12-13T06:25:10Z</time>
      </trkpt>
      <trkpt lat="37.50342" lon="27.5277">
        <ele>46.146</ele>
        <time>2020-12-13T06:25:11Z</time>
      </trkpt>
      <trkpt lat="37.50342" lon="27.52773">
        <ele>46.204</ele>
        <time>2020-12-13T06:25:12Z</time>
      </trkpt>
      <trkpt lat="37.50342" lon="27.52775">
        <ele>46.204</ele>
        <time>2020-12-13T06:25:13Z</time>
      </trkpt>
      <trkpt lat="37.50341" lon="27.52778">
        <ele>46.147</ele>
        <time>2020-12-13T06:25:14Z</time>
      </trkpt>
      <trkpt lat="37.50342" lon="27.52781">
        <ele>46.205</ele>
        <time>2020-12-13T06:25:15Z</time>
      </trkpt>
      <trkpt lat="37.50342" lon="27.52783">
        <ele>46.265</ele>
        <time>2020-12-13T06:25:16Z</time>
      </trkpt>
      <trkpt lat="37.50342" lon="27.52786">
        <ele>46.322</ele>
        <time>2020-12-13T06:25:17Z</time>
      </trkpt>
      <trkpt lat="37.50342" lon="27.52789">
        <ele>46.37</ele>
        <time>2020-12-13T06:25:18Z</time>
      </trkpt>
      <trkpt lat="37.50342" lon="27.52791">
        <ele>46.465</ele>
        <time>2020-12-13T06:25:19Z</time>
      </trkpt>
      <trkpt lat="37.50343" lon="27.52794">
        <ele>46.509</ele>
        <time>2020-12-13T06:25:20Z</time>
      </trkpt>
      <trkpt lat="37.50343" lon="27.52794">
        <ele>46.509</ele>
        <time>2020-12-13T06:25:21Z</time>
      </trkpt>
      <trkpt lat="37.50341" lon="27.52798">
        <ele>46.351</ele>
        <time>2020-12-13T06:25:22Z</time>
      </trkpt>
      <trkpt lat="37.50341" lon="27.52798">
        <ele>46.351</ele>
        <time>2020-12-13T06:25:23Z</time>
      </trkpt>
      <trkpt lat="37.5034" lon="27.52801">
        <ele>46.125</ele>
        <time>2020-12-13T06:25:24Z</time>
      </trkpt>
      <trkpt lat="37.5034" lon="27.52801">
        <ele>46.125</ele>
        <time>2020-12-13T06:25:25Z</time>
      </trkpt>
      <trkpt lat="37.50338" lon="27.52804">
        <ele>45.814</ele>
        <time>2020-12-13T06:25:26Z</time>
      </trkpt>
      <trkpt lat="37.50338" lon="27.52804">
        <ele>45.814</ele>
        <time>2020-12-13T06:25:27Z</time>
      </trkpt>
      <trkpt lat="37.50337" lon="27.52807">
        <ele>45.736</ele>
        <time>2020-12-13T06:25:28Z</time>
      </trkpt>
      <trkpt lat="37.50337" lon="27.52807">
        <ele>45.736</ele>
        <time>2020-12-13T06:25:29Z</time>
      </trkpt>
      <trkpt lat="37.50335" lon="27.52809">
        <ele>45.601</ele>
        <time>2020-12-13T06:25:30Z</time>
      </trkpt>
      <trkpt lat="37.50335" lon="27.52809">
        <ele>45.601</ele>
        <time>2020-12-13T06:25:31Z</time>
      </trkpt>
      <trkpt lat="37.50334" lon="27.52811">
        <ele>45.446</ele>
        <time>2020-12-13T06:25:32Z</time>
      </trkpt>
      <trkpt lat="37.50334" lon="27.52811">
        <ele>45.446</ele>
        <time>2020-12-13T06:25:33Z</time>
      </trkpt>
      <trkpt lat="37.50332" lon="27.52813">
        <ele>45.427</ele>
        <time>2020-12-13T06:25:34Z</time>
      </trkpt>
      <trkpt lat="37.50332" lon="27.52813">
        <ele>45.427</ele>
        <time>2020-12-13T06:25:35Z</time>
      </trkpt>
      <trkpt lat="37.5033" lon="27.52813">
        <ele>45.392</ele>
        <time>2020-12-13T06:25:36Z</time>
      </trkpt>
      <trkpt lat="37.5033" lon="27.52813">
        <ele>45.392</ele>
        <time>2020-12-13T06:25:37Z</time>
      </trkpt>
      <trkpt lat="37.50327" lon="27.52814">
        <ele>45.335</ele>
        <time>2020-12-13T06:25:38Z</time>
      </trkpt>
      <trkpt lat="37.50327" lon="27.52814">
        <ele>45.335</ele>
        <time>2020-12-13T06:25:39Z</time>
      </trkpt>
      <trkpt lat="37.50327" lon="27.52814">
        <ele>45.335</ele>
        <time>2020-12-13T06:25:40Z</time>
      </trkpt>
      <trkpt lat="37.50324" lon="27.52815">
        <ele>45.191</ele>
        <time>2020-12-13T06:25:41Z</time>
      </trkpt>
      <trkpt lat="37.50324" lon="27.52815">
        <ele>45.191</ele>
        <time>2020-12-13T06:25:42Z</time>
      </trkpt>
      <trkpt lat="37.50324" lon="27.52815">
        <ele>45.191</ele>
        <time>2020-12-13T06:25:43Z</time>
      </trkpt>
      <trkpt lat="37.50324" lon="27.52815">
        <ele>45.191</ele>
        <time>2020-12-13T06:25:44Z</time>
      </trkpt>
      <trkpt lat="37.50316" lon="27.52818">
        <ele>45.003</ele>
        <time>2020-12-13T06:25:45Z</time>
      </trkpt>
      <trkpt lat="37.50316" lon="27.52819">
        <ele>45.012</ele>
        <time>2020-12-13T06:25:46Z</time>
      </trkpt>
      <trkpt lat="37.50315" lon="27.52819">
        <ele>45.019</ele>
        <time>2020-12-13T06:25:47Z</time>
      </trkpt>
      <trkpt lat="37.50315" lon="27.5282">
        <ele>45.026</ele>
        <time>2020-12-13T06:25:48Z</time>
      </trkpt>
      <trkpt lat="37.50314" lon="27.52823">
        <ele>45.134</ele>
        <time>2020-12-13T06:25:49Z</time>
      </trkpt>
      <trkpt lat="37.50314" lon="27.52823">
        <ele>45.134</ele>
        <time>2020-12-13T06:25:50Z</time>
      </trkpt>
      <trkpt lat="37.50314" lon="27.52826">
        <ele>45.276</ele>
        <time>2020-12-13T06:25:51Z</time>
      </trkpt>
      <trkpt lat="37.50314" lon="27.52826">
        <ele>45.276</ele>
        <time>2020-12-13T06:25:52Z</time>
      </trkpt>
      <trkpt lat="37.50314" lon="27.52829">
        <ele>45.409</ele>
        <time>2020-12-13T06:25:53Z</time>
      </trkpt>
      <trkpt lat="37.50314" lon="27.52829">
        <ele>45.409</ele>
        <time>2020-12-13T06:25:54Z</time>
      </trkpt>
      <trkpt lat="37.50314" lon="27.52829">
        <ele>45.409</ele>
        <time>2020-12-13T06:25:55Z</time>
      </trkpt>
      <trkpt lat="37.50314" lon="27.52832">
        <ele>45.578</ele>
        <time>2020-12-13T06:25:56Z</time>
      </trkpt>
      <trkpt lat="37.50314" lon="27.52832">
        <ele>45.578</ele>
        <time>2020-12-13T06:25:57Z</time>
      </trkpt>
      <trkpt lat="37.50315" lon="27.52835">
        <ele>45.723</ele>
        <time>2020-12-13T06:25:58Z</time>
      </trkpt>
      <trkpt lat="37.50315" lon="27.52835">
        <ele>45.723</ele>
        <time>2020-12-13T06:25:59Z</time>
      </trkpt>
      <trkpt lat="37.50316" lon="27.52838">
        <ele>45.939</ele>
        <time>2020-12-13T06:26:00Z</time>
      </trkpt>
      <trkpt lat="37.50316" lon="27.52838">
        <ele>45.939</ele>
        <time>2020-12-13T06:26:01Z</time>
      </trkpt>
      <trkpt lat="37.50316" lon="27.52841">
        <ele>46.074</ele>
        <time>2020-12-13T06:26:02Z</time>
      </trkpt>
      <trkpt lat="37.50316" lon="27.52841">
        <ele>46.074</ele>
        <time>2020-12-13T06:26:03Z</time>
      </trkpt>
      <trkpt lat="37.50316" lon="27.52844">
        <ele>46.287</ele>
        <time>2020-12-13T06:26:04Z</time>
      </trkpt>
      <trkpt lat="37.50316" lon="27.52844">
        <ele>46.287</ele>
        <time>2020-12-13T06:26:05Z</time>
      </trkpt>
      <trkpt lat="37.50314" lon="27.52849">
        <ele>46.376</ele>
        <time>2020-12-13T06:26:06Z</time>
      </trkpt>
      <trkpt lat="37.50313" lon="27.52851">
        <ele>46.361</ele>
        <time>2020-12-13T06:26:07Z</time>
      </trkpt>
      <trkpt lat="37.50313" lon="27.52854">
        <ele>46.417</ele>
        <time>2020-12-13T06:26:08Z</time>
      </trkpt>
      <trkpt lat="37.50313" lon="27.52854">
        <ele>46.417</ele>
        <time>2020-12-13T06:26:09Z</time>
      </trkpt>
      <trkpt lat="37.50312" lon="27.52858">
        <ele>46.603</ele>
        <time>2020-12-13T06:26:10Z</time>
      </trkpt>
      <trkpt lat="37.50312" lon="27.52861">
        <ele>46.704</ele>
        <time>2020-12-13T06:26:11Z</time>
      </trkpt>
      <trkpt lat="37.50312" lon="27.52865">
        <ele>47.17</ele>
        <time>2020-12-13T06:26:12Z</time>
      </trkpt>
      <trkpt lat="37.50312" lon="27.52866">
        <ele>47.322</ele>
        <time>2020-12-13T06:26:13Z</time>
      </trkpt>
      <trkpt lat="37.50312" lon="27.52866">
        <ele>47.322</ele>
        <time>2020-12-13T06:26:14Z</time>
      </trkpt>
      <trkpt lat="37.50312" lon="27.52871">
        <ele>47.801</ele>
        <time>2020-12-13T06:26:15Z</time>
      </trkpt>
      <trkpt lat="37.50312" lon="27.52871">
        <ele>47.801</ele>
        <time>2020-12-13T06:26:16Z</time>
      </trkpt>
      <trkpt lat="37.50314" lon="27.52874">
        <ele>48.494</ele>
        <time>2020-12-13T06:26:17Z</time>
      </trkpt>
      <trkpt lat="37.50314" lon="27.52874">
        <ele>48.494</ele>
        <time>2020-12-13T06:26:18Z</time>
      </trkpt>
      <trkpt lat="37.50316" lon="27.52878">
        <ele>49.204</ele>
        <time>2020-12-13T06:26:19Z</time>
      </trkpt>
      <trkpt lat="37.50316" lon="27.52878">
        <ele>49.204</ele>
        <time>2020-12-13T06:26:20Z</time>
      </trkpt>
      <trkpt lat="37.50317" lon="27.52881">
        <ele>49.782</ele>
        <time>2020-12-13T06:26:21Z</time>
      </trkpt>
      <trkpt lat="37.50317" lon="27.52881">
        <ele>49.782</ele>
        <time>2020-12-13T06:26:22Z</time>
      </trkpt>
      <trkpt lat="37.50317" lon="27.52881">
        <ele>49.782</ele>
        <time>2020-12-13T06:26:23Z</time>
      </trkpt>
      <trkpt lat="37.50318" lon="27.52885">
        <ele>50.298</ele>
        <time>2020-12-13T06:26:24Z</time>
      </trkpt>
      <trkpt lat="37.50318" lon="27.52885">
        <ele>50.298</ele>
        <time>2020-12-13T06:26:25Z</time>
      </trkpt>
      <trkpt lat="37.50319" lon="27.52887">
        <ele>50.712</ele>
        <time>2020-12-13T06:26:26Z</time>
      </trkpt>
      <trkpt lat="37.50319" lon="27.52887">
        <ele>50.712</ele>
        <time>2020-12-13T06:26:27Z</time>
      </trkpt>
      <trkpt lat="37.5032" lon="27.5289">
        <ele>51.218</ele>
        <time>2020-12-13T06:26:28Z</time>
      </trkpt>
      <trkpt lat="37.5032" lon="27.5289">
        <ele>51.218</ele>
        <time>2020-12-13T06:26:29Z</time>
      </trkpt>
      <trkpt lat="37.50322" lon="27.52892">
        <ele>51.675</ele>
        <time>2020-12-13T06:26:30Z</time>
      </trkpt>
      <trkpt lat="37.50324" lon="27.52892">
        <ele>52.029</ele>
        <time>2020-12-13T06:26:31Z</time>
      </trkpt>
      <trkpt lat="37.50324" lon="27.52892">
        <ele>52.029</ele>
        <time>2020-12-13T06:26:32Z</time>
      </trkpt>
      <trkpt lat="37.50326" lon="27.52892">
        <ele>52.338</ele>
        <time>2020-12-13T06:26:33Z</time>
      </trkpt>
      <trkpt lat="37.50326" lon="27.52892">
        <ele>52.338</ele>
        <time>2020-12-13T06:26:34Z</time>
      </trkpt>
      <trkpt lat="37.50328" lon="27.52892">
        <ele>52.697</ele>
        <time>2020-12-13T06:26:35Z</time>
      </trkpt>
      <trkpt lat="37.50328" lon="27.52892">
        <ele>52.697</ele>
        <time>2020-12-13T06:26:36Z</time>
      </trkpt>
      <trkpt lat="37.50331" lon="27.52893">
        <ele>53.219</ele>
        <time>2020-12-13T06:26:37Z</time>
      </trkpt>
      <trkpt lat="37.50331" lon="27.52893">
        <ele>53.219</ele>
        <time>2020-12-13T06:26:38Z</time>
      </trkpt>
      <trkpt lat="37.50333" lon="27.52892">
        <ele>53.465</ele>
        <time>2020-12-13T06:26:39Z</time>
      </trkpt>
      <trkpt lat="37.50333" lon="27.52892">
        <ele>53.465</ele>
        <time>2020-12-13T06:26:40Z</time>
      </trkpt>
      <trkpt lat="37.50337" lon="27.52892">
        <ele>54.157</ele>
        <time>2020-12-13T06:26:41Z</time>
      </trkpt>
      <trkpt lat="37.50337" lon="27.52892">
        <ele>54.157</ele>
        <time>2020-12-13T06:26:42Z</time>
      </trkpt>
      <trkpt lat="37.50339" lon="27.52893">
        <ele>54.667</ele>
        <time>2020-12-13T06:26:43Z</time>
      </trkpt>
      <trkpt lat="37.50339" lon="27.52893">
        <ele>54.667</ele>
        <time>2020-12-13T06:26:44Z</time>
      </trkpt>
      <trkpt lat="37.50339" lon="27.52893">
        <ele>54.667</ele>
        <time>2020-12-13T06:26:45Z</time>
      </trkpt>
      <trkpt lat="37.50341" lon="27.52895">
        <ele>55.308</ele>
        <time>2020-12-13T06:26:46Z</time>
      </trkpt>
      <trkpt lat="37.50341" lon="27.52895">
        <ele>55.308</ele>
        <time>2020-12-13T06:26:47Z</time>
      </trkpt>
      <trkpt lat="37.50342" lon="27.52897">
        <ele>55.822</ele>
        <time>2020-12-13T06:26:48Z</time>
      </trkpt>
      <trkpt lat="37.50342" lon="27.52897">
        <ele>55.822</ele>
        <time>2020-12-13T06:26:49Z</time>
      </trkpt>
      <trkpt lat="37.50344" lon="27.52899">
        <ele>56.461</ele>
        <time>2020-12-13T06:26:50Z</time>
      </trkpt>
      <trkpt lat="37.50344" lon="27.52899">
        <ele>56.461</ele>
        <time>2020-12-13T06:26:51Z</time>
      </trkpt>
      <trkpt lat="37.50346" lon="27.52901">
        <ele>57.062</ele>
        <time>2020-12-13T06:26:52Z</time>
      </trkpt>
      <trkpt lat="37.50346" lon="27.52901">
        <ele>57.062</ele>
        <time>2020-12-13T06:26:53Z</time>
      </trkpt>
      <trkpt lat="37.50347" lon="27.52904">
        <ele>57.643</ele>
        <time>2020-12-13T06:26:54Z</time>
      </trkpt>
      <trkpt lat="37.50347" lon="27.52904">
        <ele>57.643</ele>
        <time>2020-12-13T06:26:55Z</time>
      </trkpt>
      <trkpt lat="37.50348" lon="27.52907">
        <ele>58.214</ele>
        <time>2020-12-13T06:26:56Z</time>
      </trkpt>
      <trkpt lat="37.50348" lon="27.52907">
        <ele>58.214</ele>
        <time>2020-12-13T06:26:57Z</time>
      </trkpt>
      <trkpt lat="37.50349" lon="27.52911">
        <ele>58.838</ele>
        <time>2020-12-13T06:26:58Z</time>
      </trkpt>
      <trkpt lat="37.50349" lon="27.52911">
        <ele>58.838</ele>
        <time>2020-12-13T06:26:59Z</time>
      </trkpt>
      <trkpt lat="37.50349" lon="27.52914">
        <ele>59.207</ele>
        <time>2020-12-13T06:27:00Z</time>
      </trkpt>
      <trkpt lat="37.50349" lon="27.52914">
        <ele>59.207</ele>
        <time>2020-12-13T06:27:01Z</time>
      </trkpt>
      <trkpt lat="37.50349" lon="27.52916">
        <ele>59.61</ele>
        <time>2020-12-13T06:27:02Z</time>
      </trkpt>
      <trkpt lat="37.50349" lon="27.52916">
        <ele>59.61</ele>
        <time>2020-12-13T06:27:03Z</time>
      </trkpt>
      <trkpt lat="37.50351" lon="27.52918">
        <ele>59.961</ele>
        <time>2020-12-13T06:27:04Z</time>
      </trkpt>
      <trkpt lat="37.50351" lon="27.52918">
        <ele>59.961</ele>
        <time>2020-12-13T06:27:05Z</time>
      </trkpt>
      <trkpt lat="37.50351" lon="27.5292">
        <ele>60.244</ele>
        <time>2020-12-13T06:27:06Z</time>
      </trkpt>
      <trkpt lat="37.50351" lon="27.5292">
        <ele>60.244</ele>
        <time>2020-12-13T06:27:07Z</time>
      </trkpt>
      <trkpt lat="37.5035" lon="27.52923">
        <ele>60.43</ele>
        <time>2020-12-13T06:27:08Z</time>
      </trkpt>
      <trkpt lat="37.5035" lon="27.52923">
        <ele>60.43</ele>
        <time>2020-12-13T06:27:09Z</time>
      </trkpt>
      <trkpt lat="37.50349" lon="27.52926">
        <ele>60.627</ele>
        <time>2020-12-13T06:27:10Z</time>
      </trkpt>
      <trkpt lat="37.50349" lon="27.52926">
        <ele>60.627</ele>
        <time>2020-12-13T06:27:11Z</time>
      </trkpt>
      <trkpt lat="37.50349" lon="27.52926">
        <ele>60.627</ele>
        <time>2020-12-13T06:27:12Z</time>
      </trkpt>
      <trkpt lat="37.50353" lon="27.52929">
        <ele>61.245</ele>
        <time>2020-12-13T06:27:13Z</time>
      </trkpt>
      <trkpt lat="37.50354" lon="27.5293">
        <ele>61.488</ele>
        <time>2020-12-13T06:27:14Z</time>
      </trkpt>
      <trkpt lat="37.50354" lon="27.5293">
        <ele>61.488</ele>
        <time>2020-12-13T06:27:15Z</time>
      </trkpt>
      <trkpt lat="37.50357" lon="27.52931">
        <ele>61.937</ele>
        <time>2020-12-13T06:27:16Z</time>
      </trkpt>
      <trkpt lat="37.50357" lon="27.52931">
        <ele>61.937</ele>
        <time>2020-12-13T06:27:17Z</time>
      </trkpt>
      <trkpt lat="37.5036" lon="27.52932">
        <ele>62.419</ele>
        <time>2020-12-13T06:27:18Z</time>
      </trkpt>
      <trkpt lat="37.5036" lon="27.52932">
        <ele>62.419</ele>
        <time>2020-12-13T06:27:19Z</time>
      </trkpt>
      <trkpt lat="37.50361" lon="27.52933">
        <ele>62.774</ele>
        <time>2020-12-13T06:27:20Z</time>
      </trkpt>
      <trkpt lat="37.50361" lon="27.52933">
        <ele>62.774</ele>
        <time>2020-12-13T06:27:21Z</time>
      </trkpt>
      <trkpt lat="37.50363" lon="27.52935">
        <ele>62.983</ele>
        <time>2020-12-13T06:27:22Z</time>
      </trkpt>
      <trkpt lat="37.50363" lon="27.52935">
        <ele>62.983</ele>
        <time>2020-12-13T06:27:23Z</time>
      </trkpt>
      <trkpt lat="37.50363" lon="27.52935">
        <ele>62.983</ele>
        <time>2020-12-13T06:27:24Z</time>
      </trkpt>
      <trkpt lat="37.50363" lon="27.52935">
        <ele>62.983</ele>
        <time>2020-12-13T06:27:25Z</time>
      </trkpt>
      <trkpt lat="37.50363" lon="27.52935">
        <ele>62.983</ele>
        <time>2020-12-13T06:27:26Z</time>
      </trkpt>
      <trkpt lat="37.50363" lon="27.52935">
        <ele>62.983</ele>
        <time>2020-12-13T06:27:27Z</time>
      </trkpt>
      <trkpt lat="37.50363" lon="27.52935">
        <ele>62.983</ele>
        <time>2020-12-13T06:27:28Z</time>
      </trkpt>
      <trkpt lat="37.50363" lon="27.52935">
        <ele>62.983</ele>
        <time>2020-12-13T06:27:29Z</time>
      </trkpt>
      <trkpt lat="37.50363" lon="27.52935">
        <ele>62.983</ele>
        <time>2020-12-13T06:27:30Z</time>
      </trkpt>
      <trkpt lat="37.50363" lon="27.52935">
        <ele>62.983</ele>
        <time>2020-12-13T06:27:31Z</time>
      </trkpt>
      <trkpt lat="37.50363" lon="27.52935">
        <ele>62.983</ele>
        <time>2020-12-13T06:27:32Z</time>
      </trkpt>
      <trkpt lat="37.50364" lon="27.52937">
        <ele>63.25</ele>
        <time>2020-12-13T06:27:33Z</time>
      </trkpt>
      <trkpt lat="37.50364" lon="27.52937">
        <ele>63.25</ele>
        <time>2020-12-13T06:27:34Z</time>
      </trkpt>
      <trkpt lat="37.50368" lon="27.52936">
        <ele>63.343</ele>
        <time>2020-12-13T06:27:35Z</time>
      </trkpt>
      <trkpt lat="37.5037" lon="27.52937">
        <ele>63.48</ele>
        <time>2020-12-13T06:27:36Z</time>
      </trkpt>
      <trkpt lat="37.50372" lon="27.52937">
        <ele>63.635</ele>
        <time>2020-12-13T06:27:37Z</time>
      </trkpt>
      <trkpt lat="37.50375" lon="27.52938">
        <ele>63.768</ele>
        <time>2020-12-13T06:27:38Z</time>
      </trkpt>
      <trkpt lat="37.50375" lon="27.52938">
        <ele>63.768</ele>
        <time>2020-12-13T06:27:39Z</time>
      </trkpt>
      <trkpt lat="37.50379" lon="27.52939">
        <ele>64.016</ele>
        <time>2020-12-13T06:27:40Z</time>
      </trkpt>
      <trkpt lat="37.50381" lon="27.52939">
        <ele>64.164</ele>
        <time>2020-12-13T06:27:41Z</time>
      </trkpt>
      <trkpt lat="37.50383" lon="27.5294">
        <ele>64.308</ele>
        <time>2020-12-13T06:27:42Z</time>
      </trkpt>
      <trkpt lat="37.50385" lon="27.52941">
        <ele>64.506</ele>
        <time>2020-12-13T06:27:43Z</time>
      </trkpt>
      <trkpt lat="37.50387" lon="27.52942">
        <ele>64.708</ele>
        <time>2020-12-13T06:27:44Z</time>
      </trkpt>
      <trkpt lat="37.50389" lon="27.52943">
        <ele>64.876</ele>
        <time>2020-12-13T06:27:45Z</time>
      </trkpt>
      <trkpt lat="37.50391" lon="27.52943">
        <ele>64.807</ele>
        <time>2020-12-13T06:27:46Z</time>
      </trkpt>
      <trkpt lat="37.50393" lon="27.52944">
        <ele>64.81</ele>
        <time>2020-12-13T06:27:47Z</time>
      </trkpt>
      <trkpt lat="37.50395" lon="27.52945">
        <ele>64.852</ele>
        <time>2020-12-13T06:27:48Z</time>
      </trkpt>
      <trkpt lat="37.50396" lon="27.52947">
        <ele>64.955</ele>
        <time>2020-12-13T06:27:49Z</time>
      </trkpt>
      <trkpt lat="37.50398" lon="27.52949">
        <ele>65.08</ele>
        <time>2020-12-13T06:27:50Z</time>
      </trkpt>
      <trkpt lat="37.50398" lon="27.52949">
        <ele>65.08</ele>
        <time>2020-12-13T06:27:51Z</time>
      </trkpt>
      <trkpt lat="37.504" lon="27.52953">
        <ele>65.299</ele>
        <time>2020-12-13T06:27:52Z</time>
      </trkpt>
      <trkpt lat="37.504" lon="27.52953">
        <ele>65.299</ele>
        <time>2020-12-13T06:27:53Z</time>
      </trkpt>
      <trkpt lat="37.504" lon="27.52953">
        <ele>65.299</ele>
        <time>2020-12-13T06:27:54Z</time>
      </trkpt>
      <trkpt lat="37.50401" lon="27.52956">
        <ele>65.548</ele>
        <time>2020-12-13T06:27:55Z</time>
      </trkpt>
      <trkpt lat="37.50401" lon="27.52956">
        <ele>65.548</ele>
        <time>2020-12-13T06:27:56Z</time>
      </trkpt>
      <trkpt lat="37.50399" lon="27.52958">
        <ele>65.76</ele>
        <time>2020-12-13T06:27:57Z</time>
      </trkpt>
      <trkpt lat="37.50399" lon="27.52958">
        <ele>65.76</ele>
        <time>2020-12-13T06:27:58Z</time>
      </trkpt>
      <trkpt lat="37.50399" lon="27.52958">
        <ele>65.76</ele>
        <time>2020-12-13T06:27:59Z</time>
      </trkpt>
      <trkpt lat="37.50396" lon="27.52959">
        <ele>65.928</ele>
        <time>2020-12-13T06:28:00Z</time>
      </trkpt>
      <trkpt lat="37.50394" lon="27.52959">
        <ele>65.962</ele>
        <time>2020-12-13T06:28:01Z</time>
      </trkpt>
      <trkpt lat="37.50394" lon="27.52959">
        <ele>65.962</ele>
        <time>2020-12-13T06:28:02Z</time>
      </trkpt>
      <trkpt lat="37.50394" lon="27.52959">
        <ele>65.962</ele>
        <time>2020-12-13T06:28:03Z</time>
      </trkpt>
      <trkpt lat="37.50392" lon="27.52962">
        <ele>66.203</ele>
        <time>2020-12-13T06:28:04Z</time>
      </trkpt>
      <trkpt lat="37.5039" lon="27.52964">
        <ele>66.364</ele>
        <time>2020-12-13T06:28:05Z</time>
      </trkpt>
      <trkpt lat="37.5039" lon="27.52964">
        <ele>66.364</ele>
        <time>2020-12-13T06:28:06Z</time>
      </trkpt>
      <trkpt lat="37.50389" lon="27.52967">
        <ele>66.63</ele>
        <time>2020-12-13T06:28:07Z</time>
      </trkpt>
      <trkpt lat="37.50389" lon="27.52967">
        <ele>66.63</ele>
        <time>2020-12-13T06:28:08Z</time>
      </trkpt>
      <trkpt lat="37.50388" lon="27.5297">
        <ele>66.73</ele>
        <time>2020-12-13T06:28:09Z</time>
      </trkpt>
      <trkpt lat="37.50388" lon="27.5297">
        <ele>66.73</ele>
        <time>2020-12-13T06:28:10Z</time>
      </trkpt>
      <trkpt lat="37.50388" lon="27.5297">
        <ele>66.73</ele>
        <time>2020-12-13T06:28:11Z</time>
      </trkpt>
      <trkpt lat="37.50388" lon="27.52973">
        <ele>66.957</ele>
        <time>2020-12-13T06:28:12Z</time>
      </trkpt>
      <trkpt lat="37.50388" lon="27.52973">
        <ele>66.957</ele>
        <time>2020-12-13T06:28:13Z</time>
      </trkpt>
      <trkpt lat="37.50389" lon="27.52975">
        <ele>67.084</ele>
        <time>2020-12-13T06:28:14Z</time>
      </trkpt>
      <trkpt lat="37.50389" lon="27.52975">
        <ele>67.084</ele>
        <time>2020-12-13T06:28:15Z</time>
      </trkpt>
      <trkpt lat="37.5039" lon="27.52977">
        <ele>67.169</ele>
        <time>2020-12-13T06:28:16Z</time>
      </trkpt>
      <trkpt lat="37.5039" lon="27.52977">
        <ele>67.169</ele>
        <time>2020-12-13T06:28:17Z</time>
      </trkpt>
      <trkpt lat="37.50391" lon="27.52979">
        <ele>67.28</ele>
        <time>2020-12-13T06:28:18Z</time>
      </trkpt>
      <trkpt lat="37.50391" lon="27.52979">
        <ele>67.28</ele>
        <time>2020-12-13T06:28:19Z</time>
      </trkpt>
      <trkpt lat="37.50392" lon="27.52981">
        <ele>67.411</ele>
        <time>2020-12-13T06:28:20Z</time>
      </trkpt>
      <trkpt lat="37.50392" lon="27.52981">
        <ele>67.411</ele>
        <time>2020-12-13T06:28:21Z</time>
      </trkpt>
      <trkpt lat="37.50394" lon="27.52984">
        <ele>67.57</ele>
        <time>2020-12-13T06:28:22Z</time>
      </trkpt>
      <trkpt lat="37.50394" lon="27.52984">
        <ele>67.57</ele>
        <time>2020-12-13T06:28:23Z</time>
      </trkpt>
      <trkpt lat="37.50394" lon="27.52987">
        <ele>67.743</ele>
        <time>2020-12-13T06:28:24Z</time>
      </trkpt>
      <trkpt lat="37.50394" lon="27.52987">
        <ele>67.743</ele>
        <time>2020-12-13T06:28:25Z</time>
      </trkpt>
      <trkpt lat="37.50394" lon="27.52991">
        <ele>67.964</ele>
        <time>2020-12-13T06:28:26Z</time>
      </trkpt>
      <trkpt lat="37.50394" lon="27.52991">
        <ele>67.964</ele>
        <time>2020-12-13T06:28:27Z</time>
      </trkpt>
      <trkpt lat="37.50395" lon="27.52996">
        <ele>68.246</ele>
        <time>2020-12-13T06:28:28Z</time>
      </trkpt>
      <trkpt lat="37.50395" lon="27.52996">
        <ele>68.246</ele>
        <time>2020-12-13T06:28:29Z</time>
      </trkpt>
      <trkpt lat="37.50395" lon="27.52996">
        <ele>68.246</ele>
        <time>2020-12-13T06:28:30Z</time>
      </trkpt>
      <trkpt lat="37.50397" lon="27.53002">
        <ele>68.514</ele>
        <time>2020-12-13T06:28:31Z</time>
      </trkpt>
      <trkpt lat="37.50397" lon="27.53004">
        <ele>68.52</ele>
        <time>2020-12-13T06:28:32Z</time>
      </trkpt>
      <trkpt lat="37.50397" lon="27.53004">
        <ele>68.52</ele>
        <time>2020-12-13T06:28:33Z</time>
      </trkpt>
      <trkpt lat="37.50399" lon="27.53005">
        <ele>68.606</ele>
        <time>2020-12-13T06:28:34Z</time>
      </trkpt>
      <trkpt lat="37.50399" lon="27.53005">
        <ele>68.606</ele>
        <time>2020-12-13T06:28:35Z</time>
      </trkpt>
      <trkpt lat="37.50399" lon="27.53005">
        <ele>68.606</ele>
        <time>2020-12-13T06:28:36Z</time>
      </trkpt>
      <trkpt lat="37.50399" lon="27.53009">
        <ele>68.55</ele>
        <time>2020-12-13T06:28:37Z</time>
      </trkpt>
      <trkpt lat="37.50399" lon="27.53009">
        <ele>68.55</ele>
        <time>2020-12-13T06:28:38Z</time>
      </trkpt>
      <trkpt lat="37.50399" lon="27.53009">
        <ele>68.55</ele>
        <time>2020-12-13T06:28:39Z</time>
      </trkpt>
      <trkpt lat="37.50399" lon="27.53011">
        <ele>68.456</ele>
        <time>2020-12-13T06:28:40Z</time>
      </trkpt>
      <trkpt lat="37.50399" lon="27.53011">
        <ele>68.456</ele>
        <time>2020-12-13T06:28:41Z</time>
      </trkpt>
      <trkpt lat="37.50399" lon="27.53011">
        <ele>68.456</ele>
        <time>2020-12-13T06:28:42Z</time>
      </trkpt>
      <trkpt lat="37.50399" lon="27.53011">
        <ele>68.456</ele>
        <time>2020-12-13T06:28:43Z</time>
      </trkpt>
      <trkpt lat="37.50401" lon="27.53013">
        <ele>68.57</ele>
        <time>2020-12-13T06:28:44Z</time>
      </trkpt>
      <trkpt lat="37.50401" lon="27.53013">
        <ele>68.57</ele>
        <time>2020-12-13T06:28:45Z</time>
      </trkpt>
      <trkpt lat="37.50404" lon="27.53011">
        <ele>68.904</ele>
        <time>2020-12-13T06:28:46Z</time>
      </trkpt>
      <trkpt lat="37.50406" lon="27.53011">
        <ele>69.068</ele>
        <time>2020-12-13T06:28:47Z</time>
      </trkpt>
      <trkpt lat="37.50406" lon="27.53011">
        <ele>69.068</ele>
        <time>2020-12-13T06:28:48Z</time>
      </trkpt>
      <trkpt lat="37.50409" lon="27.53012">
        <ele>69.295</ele>
        <time>2020-12-13T06:28:49Z</time>
      </trkpt>
      <trkpt lat="37.5041" lon="27.53013">
        <ele>69.445</ele>
        <time>2020-12-13T06:28:50Z</time>
      </trkpt>
      <trkpt lat="37.5041" lon="27.53013">
        <ele>69.445</ele>
        <time>2020-12-13T06:28:51Z</time>
      </trkpt>
      <trkpt lat="37.50413" lon="27.53013">
        <ele>69.699</ele>
        <time>2020-12-13T06:28:52Z</time>
      </trkpt>
      <trkpt lat="37.50413" lon="27.53013">
        <ele>69.699</ele>
        <time>2020-12-13T06:28:53Z</time>
      </trkpt>
      <trkpt lat="37.50415" lon="27.53014">
        <ele>69.849</ele>
        <time>2020-12-13T06:28:54Z</time>
      </trkpt>
      <trkpt lat="37.50415" lon="27.53014">
        <ele>69.849</ele>
        <time>2020-12-13T06:28:55Z</time>
      </trkpt>
      <trkpt lat="37.50417" lon="27.53015">
        <ele>70.093</ele>
        <time>2020-12-13T06:28:56Z</time>
      </trkpt>
      <trkpt lat="37.50419" lon="27.53016">
        <ele>70.312</ele>
        <time>2020-12-13T06:28:57Z</time>
      </trkpt>
      <trkpt lat="37.50419" lon="27.53016">
        <ele>70.312</ele>
        <time>2020-12-13T06:28:58Z</time>
      </trkpt>
      <trkpt lat="37.50421" lon="27.53018">
        <ele>70.596</ele>
        <time>2020-12-13T06:28:59Z</time>
      </trkpt>
      <trkpt lat="37.50421" lon="27.53018">
        <ele>70.596</ele>
        <time>2020-12-13T06:29:00Z</time>
      </trkpt>
      <trkpt lat="37.50423" lon="27.5302">
        <ele>70.904</ele>
        <time>2020-12-13T06:29:01Z</time>
      </trkpt>
      <trkpt lat="37.50423" lon="27.5302">
        <ele>70.904</ele>
        <time>2020-12-13T06:29:02Z</time>
      </trkpt>
      <trkpt lat="37.50425" lon="27.53024">
        <ele>71.197</ele>
        <time>2020-12-13T06:29:03Z</time>
      </trkpt>
      <trkpt lat="37.50425" lon="27.53024">
        <ele>71.197</ele>
        <time>2020-12-13T06:29:04Z</time>
      </trkpt>
      <trkpt lat="37.50425" lon="27.53024">
        <ele>71.197</ele>
        <time>2020-12-13T06:29:05Z</time>
      </trkpt>
      <trkpt lat="37.50425" lon="27.53024">
        <ele>71.197</ele>
        <time>2020-12-13T06:29:06Z</time>
      </trkpt>
      <trkpt lat="37.50425" lon="27.53026">
        <ele>71.227</ele>
        <time>2020-12-13T06:29:07Z</time>
      </trkpt>
      <trkpt lat="37.50425" lon="27.53026">
        <ele>71.227</ele>
        <time>2020-12-13T06:29:08Z</time>
      </trkpt>
      <trkpt lat="37.50425" lon="27.53026">
        <ele>71.227</ele>
        <time>2020-12-13T06:29:09Z</time>
      </trkpt>
      <trkpt lat="37.50425" lon="27.53026">
        <ele>71.227</ele>
        <time>2020-12-13T06:29:10Z</time>
      </trkpt>
      <trkpt lat="37.50425" lon="27.5303">
        <ele>70.794</ele>
        <time>2020-12-13T06:30:09Z</time>
      </trkpt>
      <trkpt lat="37.50425" lon="27.5303">
        <ele>70.794</ele>
        <time>2020-12-13T06:30:10Z</time>
      </trkpt>
      <trkpt lat="37.50425" lon="27.5303">
        <ele>70.794</ele>
        <time>2020-12-13T06:30:11Z</time>
      </trkpt>
      <trkpt lat="37.50425" lon="27.5303">
        <ele>70.794</ele>
        <time>2020-12-13T06:30:12Z</time>
      </trkpt>
      <trkpt lat="37.50425" lon="27.5303">
        <ele>70.794</ele>
        <time>2020-12-13T06:30:13Z</time>
      </trkpt>
      <trkpt lat="37.50426" lon="27.53033">
        <ele>70.721</ele>
        <time>2020-12-13T06:30:14Z</time>
      </trkpt>
      <trkpt lat="37.50426" lon="27.53033">
        <ele>70.721</ele>
        <time>2020-12-13T06:30:15Z</time>
      </trkpt>
      <trkpt lat="37.50426" lon="27.53033">
        <ele>70.721</ele>
        <time>2020-12-13T06:30:16Z</time>
      </trkpt>
      <trkpt lat="37.50426" lon="27.53033">
        <ele>70.721</ele>
        <time>2020-12-13T06:30:17Z</time>
      </trkpt>
      <trkpt lat="37.50428" lon="27.53034">
        <ele>70.62</ele>
        <time>2020-12-13T06:30:18Z</time>
      </trkpt>
      <trkpt lat="37.50428" lon="27.53034">
        <ele>70.62</ele>
        <time>2020-12-13T06:30:19Z</time>
      </trkpt>
      <trkpt lat="37.5043" lon="27.53034">
        <ele>70.966</ele>
        <time>2020-12-13T06:30:20Z</time>
      </trkpt>
      <trkpt lat="37.5043" lon="27.53034">
        <ele>70.966</ele>
        <time>2020-12-13T06:30:21Z</time>
      </trkpt>
      <trkpt lat="37.50431" lon="27.53036">
        <ele>70.923</ele>
        <time>2020-12-13T06:30:22Z</time>
      </trkpt>
      <trkpt lat="37.50431" lon="27.53036">
        <ele>70.923</ele>
        <time>2020-12-13T06:30:23Z</time>
      </trkpt>
      <trkpt lat="37.50431" lon="27.53036">
        <ele>70.923</ele>
        <time>2020-12-13T06:30:24Z</time>
      </trkpt>
      <trkpt lat="37.50432" lon="27.53038">
        <ele>70.65</ele>
        <time>2020-12-13T06:30:25Z</time>
      </trkpt>
      <trkpt lat="37.50432" lon="27.53038">
        <ele>70.65</ele>
        <time>2020-12-13T06:30:26Z</time>
      </trkpt>
      <trkpt lat="37.50432" lon="27.53038">
        <ele>70.65</ele>
        <time>2020-12-13T06:30:27Z</time>
      </trkpt>
      <trkpt lat="37.50432" lon="27.53038">
        <ele>70.65</ele>
        <time>2020-12-13T06:30:28Z</time>
      </trkpt>
      <trkpt lat="37.50433" lon="27.5304">
        <ele>70.55</ele>
        <time>2020-12-13T06:30:29Z</time>
      </trkpt>
      <trkpt lat="37.50433" lon="27.5304">
        <ele>70.55</ele>
        <time>2020-12-13T06:30:30Z</time>
      </trkpt>
      <trkpt lat="37.50434" lon="27.53043">
        <ele>70.333</ele>
        <time>2020-12-13T06:30:31Z</time>
      </trkpt>
      <trkpt lat="37.50434" lon="27.53043">
        <ele>70.333</ele>
        <time>2020-12-13T06:30:32Z</time>
      </trkpt>
      <trkpt lat="37.50435" lon="27.53045">
        <ele>70.102</ele>
        <time>2020-12-13T06:30:33Z</time>
      </trkpt>
      <trkpt lat="37.50435" lon="27.53045">
        <ele>70.102</ele>
        <time>2020-12-13T06:30:34Z</time>
      </trkpt>
      <trkpt lat="37.50435" lon="27.53045">
        <ele>70.102</ele>
        <time>2020-12-13T06:30:35Z</time>
      </trkpt>
      <trkpt lat="37.50435" lon="27.53045">
        <ele>70.102</ele>
        <time>2020-12-13T06:30:36Z</time>
      </trkpt>
      <trkpt lat="37.50435" lon="27.53045">
        <ele>70.102</ele>
        <time>2020-12-13T06:30:37Z</time>
      </trkpt>
      <trkpt lat="37.50435" lon="27.53046">
        <ele>69.973</ele>
        <time>2020-12-13T06:30:38Z</time>
      </trkpt>
      <trkpt lat="37.50435" lon="27.53048">
        <ele>69.844</ele>
        <time>2020-12-13T06:30:39Z</time>
      </trkpt>
      <trkpt lat="37.50436" lon="27.53049">
        <ele>69.713</ele>
        <time>2020-12-13T06:30:40Z</time>
      </trkpt>
      <trkpt lat="37.50436" lon="27.5305">
        <ele>69.57</ele>
        <time>2020-12-13T06:30:41Z</time>
      </trkpt>
      <trkpt lat="37.50436" lon="27.53051">
        <ele>69.454</ele>
        <time>2020-12-13T06:30:42Z</time>
      </trkpt>
      <trkpt lat="37.50436" lon="27.53052">
        <ele>69.31</ele>
        <time>2020-12-13T06:30:43Z</time>
      </trkpt>
      <trkpt lat="37.50437" lon="27.53053">
        <ele>69.181</ele>
        <time>2020-12-13T06:30:44Z</time>
      </trkpt>
      <trkpt lat="37.50437" lon="27.53055">
        <ele>69.051</ele>
        <time>2020-12-13T06:30:45Z</time>
      </trkpt>
      <trkpt lat="37.50437" lon="27.53056">
        <ele>68.923</ele>
        <time>2020-12-13T06:30:46Z</time>
      </trkpt>
      <trkpt lat="37.50443" lon="27.53065">
        <ele>68.855</ele>
        <time>2020-12-13T06:30:47Z</time>
      </trkpt>
      <trkpt lat="37.50443" lon="27.53065">
        <ele>68.855</ele>
        <time>2020-12-13T06:30:48Z</time>
      </trkpt>
      <trkpt lat="37.50443" lon="27.53065">
        <ele>68.855</ele>
        <time>2020-12-13T06:30:49Z</time>
      </trkpt>
      <trkpt lat="37.50443" lon="27.53065">
        <ele>68.855</ele>
        <time>2020-12-13T06:30:50Z</time>
      </trkpt>
      <trkpt lat="37.50443" lon="27.53065">
        <ele>68.855</ele>
        <time>2020-12-13T06:30:51Z</time>
      </trkpt>
      <trkpt lat="37.50444" lon="27.53066">
        <ele>68.849</ele>
        <time>2020-12-13T06:30:52Z</time>
      </trkpt>
      <trkpt lat="37.50445" lon="27.53068">
        <ele>68.818</ele>
        <time>2020-12-13T06:30:53Z</time>
      </trkpt>
      <trkpt lat="37.50446" lon="27.53069">
        <ele>68.8</ele>
        <time>2020-12-13T06:30:54Z</time>
      </trkpt>
      <trkpt lat="37.50447" lon="27.53071">
        <ele>68.758</ele>
        <time>2020-12-13T06:30:55Z</time>
      </trkpt>
      <trkpt lat="37.50448" lon="27.53072">
        <ele>68.74</ele>
        <time>2020-12-13T06:30:56Z</time>
      </trkpt>
      <trkpt lat="37.50449" lon="27.53074">
        <ele>68.707</ele>
        <time>2020-12-13T06:30:57Z</time>
      </trkpt>
      <trkpt lat="37.5045" lon="27.53075">
        <ele>68.69</ele>
        <time>2020-12-13T06:30:58Z</time>
      </trkpt>
      <trkpt lat="37.50449" lon="27.53078">
        <ele>68.239</ele>
        <time>2020-12-13T06:30:59Z</time>
      </trkpt>
      <trkpt lat="37.50448" lon="27.53081">
        <ele>67.8</ele>
        <time>2020-12-13T06:31:00Z</time>
      </trkpt>
      <trkpt lat="37.50448" lon="27.53084">
        <ele>67.454</ele>
        <time>2020-12-13T06:31:01Z</time>
      </trkpt>
      <trkpt lat="37.50447" lon="27.53087">
        <ele>67.339</ele>
        <time>2020-12-13T06:31:02Z</time>
      </trkpt>
      <trkpt lat="37.50446" lon="27.5309">
        <ele>67.225</ele>
        <time>2020-12-13T06:31:03Z</time>
      </trkpt>
      <trkpt lat="37.50445" lon="27.53094">
        <ele>67.109</ele>
        <time>2020-12-13T06:31:04Z</time>
      </trkpt>
      <trkpt lat="37.50444" lon="27.53095">
        <ele>66.866</ele>
        <time>2020-12-13T06:31:05Z</time>
      </trkpt>
      <trkpt lat="37.50442" lon="27.53096">
        <ele>66.614</ele>
        <time>2020-12-13T06:31:06Z</time>
      </trkpt>
      <trkpt lat="37.50441" lon="27.53097">
        <ele>66.344</ele>
        <time>2020-12-13T06:31:07Z</time>
      </trkpt>
      <trkpt lat="37.50441" lon="27.53097">
        <ele>66.344</ele>
        <time>2020-12-13T06:31:08Z</time>
      </trkpt>
      <trkpt lat="37.50441" lon="27.53097">
        <ele>66.344</ele>
        <time>2020-12-13T06:31:09Z</time>
      </trkpt>
      <trkpt lat="37.50441" lon="27.53097">
        <ele>66.344</ele>
        <time>2020-12-13T06:31:10Z</time>
      </trkpt>
      <trkpt lat="37.50441" lon="27.53099">
        <ele>66.398</ele>
        <time>2020-12-13T06:31:11Z</time>
      </trkpt>
      <trkpt lat="37.50442" lon="27.53101">
        <ele>66.47</ele>
        <time>2020-12-13T06:31:12Z</time>
      </trkpt>
      <trkpt lat="37.50442" lon="27.53103">
        <ele>66.523</ele>
        <time>2020-12-13T06:31:13Z</time>
      </trkpt>
      <trkpt lat="37.50442" lon="27.53105">
        <ele>66.578</ele>
        <time>2020-12-13T06:31:14Z</time>
      </trkpt>
      <trkpt lat="37.50442" lon="27.53107">
        <ele>66.632</ele>
        <time>2020-12-13T06:31:15Z</time>
      </trkpt>
      <trkpt lat="37.50443" lon="27.5311">
        <ele>66.704</ele>
        <time>2020-12-13T06:31:16Z</time>
      </trkpt>
      <trkpt lat="37.50443" lon="27.53112">
        <ele>66.794</ele>
        <time>2020-12-13T06:31:17Z</time>
      </trkpt>
      <trkpt lat="37.50443" lon="27.53114">
        <ele>66.998</ele>
        <time>2020-12-13T06:31:18Z</time>
      </trkpt>
      <trkpt lat="37.50444" lon="27.53115">
        <ele>67.193</ele>
        <time>2020-12-13T06:31:19Z</time>
      </trkpt>
      <trkpt lat="37.50444" lon="27.53115">
        <ele>67.193</ele>
        <time>2020-12-13T06:31:20Z</time>
      </trkpt>
      <trkpt lat="37.50444" lon="27.53115">
        <ele>67.193</ele>
        <time>2020-12-13T06:31:21Z</time>
      </trkpt>
      <trkpt lat="37.50444" lon="27.53115">
        <ele>67.193</ele>
        <time>2020-12-13T06:31:22Z</time>
      </trkpt>
      <trkpt lat="37.50445" lon="27.53116">
        <ele>67.468</ele>
        <time>2020-12-13T06:31:23Z</time>
      </trkpt>
      <trkpt lat="37.50446" lon="27.53117">
        <ele>67.72</ele>
        <time>2020-12-13T06:31:24Z</time>
      </trkpt>
      <trkpt lat="37.50448" lon="27.53118">
        <ele>67.979</ele>
        <time>2020-12-13T06:31:25Z</time>
      </trkpt>
      <trkpt lat="37.50449" lon="27.5312">
        <ele>68.239</ele>
        <time>2020-12-13T06:31:26Z</time>
      </trkpt>
      <trkpt lat="37.5045" lon="27.53121">
        <ele>68.491</ele>
        <time>2020-12-13T06:31:27Z</time>
      </trkpt>
      <trkpt lat="37.50451" lon="27.53122">
        <ele>68.75</ele>
        <time>2020-12-13T06:31:28Z</time>
      </trkpt>
      <trkpt lat="37.50452" lon="27.53123">
        <ele>68.958</ele>
        <time>2020-12-13T06:31:29Z</time>
      </trkpt>
      <trkpt lat="37.50453" lon="27.53124">
        <ele>69.153</ele>
        <time>2020-12-13T06:31:30Z</time>
      </trkpt>
      <trkpt lat="37.50454" lon="27.53125">
        <ele>69.361</ele>
        <time>2020-12-13T06:31:31Z</time>
      </trkpt>
      <trkpt lat="37.50455" lon="27.53126">
        <ele>69.57</ele>
        <time>2020-12-13T06:31:32Z</time>
      </trkpt>
      <trkpt lat="37.50456" lon="27.53127">
        <ele>69.765</ele>
        <time>2020-12-13T06:31:33Z</time>
      </trkpt>
      <trkpt lat="37.50456" lon="27.53129">
        <ele>69.973</ele>
        <time>2020-12-13T06:31:34Z</time>
      </trkpt>
      <trkpt lat="37.50457" lon="27.5313">
        <ele>70.168</ele>
        <time>2020-12-13T06:31:35Z</time>
      </trkpt>
      <trkpt lat="37.50458" lon="27.53131">
        <ele>70.377</ele>
        <time>2020-12-13T06:31:36Z</time>
      </trkpt>
      <trkpt lat="37.50459" lon="27.53131">
        <ele>70.499</ele>
        <time>2020-12-13T06:31:37Z</time>
      </trkpt>
      <trkpt lat="37.50459" lon="27.53132">
        <ele>70.629</ele>
        <time>2020-12-13T06:31:38Z</time>
      </trkpt>
      <trkpt lat="37.5046" lon="27.53132">
        <ele>70.737</ele>
        <time>2020-12-13T06:31:39Z</time>
      </trkpt>
      <trkpt lat="37.5046" lon="27.53133">
        <ele>70.867</ele>
        <time>2020-12-13T06:31:40Z</time>
      </trkpt>
      <trkpt lat="37.50461" lon="27.53133">
        <ele>70.989</ele>
        <time>2020-12-13T06:31:41Z</time>
      </trkpt>
      <trkpt lat="37.50462" lon="27.53134">
        <ele>71.119</ele>
        <time>2020-12-13T06:31:42Z</time>
      </trkpt>
      <trkpt lat="37.50462" lon="27.53135">
        <ele>71.226</ele>
        <time>2020-12-13T06:31:43Z</time>
      </trkpt>
      <trkpt lat="37.50463" lon="27.53135">
        <ele>71.356</ele>
        <time>2020-12-13T06:31:44Z</time>
      </trkpt>
      <trkpt lat="37.50463" lon="27.53136">
        <ele>71.479</ele>
        <time>2020-12-13T06:31:45Z</time>
      </trkpt>
      <trkpt lat="37.50464" lon="27.53136">
        <ele>71.608</ele>
        <time>2020-12-13T06:31:46Z</time>
      </trkpt>
      <trkpt lat="37.50464" lon="27.53137">
        <ele>71.716</ele>
        <time>2020-12-13T06:31:47Z</time>
      </trkpt>
      <trkpt lat="37.50465" lon="27.53137">
        <ele>71.845</ele>
        <time>2020-12-13T06:31:48Z</time>
      </trkpt>
      <trkpt lat="37.50465" lon="27.53137">
        <ele>71.845</ele>
        <time>2020-12-13T06:31:49Z</time>
      </trkpt>
      <trkpt lat="37.50465" lon="27.53137">
        <ele>71.845</ele>
        <time>2020-12-13T06:31:50Z</time>
      </trkpt>
      <trkpt lat="37.50465" lon="27.53137">
        <ele>71.845</ele>
        <time>2020-12-13T06:31:51Z</time>
      </trkpt>
      <trkpt lat="37.50465" lon="27.53137">
        <ele>71.845</ele>
        <time>2020-12-13T06:31:52Z</time>
      </trkpt>
      <trkpt lat="37.50465" lon="27.53137">
        <ele>71.845</ele>
        <time>2020-12-13T06:31:53Z</time>
      </trkpt>
      <trkpt lat="37.50465" lon="27.53137">
        <ele>71.845</ele>
        <time>2020-12-13T06:31:54Z</time>
      </trkpt>
      <trkpt lat="37.50465" lon="27.53137">
        <ele>71.845</ele>
        <time>2020-12-13T06:31:55Z</time>
      </trkpt>
      <trkpt lat="37.50465" lon="27.53137">
        <ele>71.845</ele>
        <time>2020-12-13T06:31:56Z</time>
      </trkpt>
      <trkpt lat="37.50465" lon="27.53137">
        <ele>71.845</ele>
        <time>2020-12-13T06:31:57Z</time>
      </trkpt>
      <trkpt lat="37.50465" lon="27.53137">
        <ele>71.845</ele>
        <time>2020-12-13T06:31:58Z</time>
      </trkpt>
      <trkpt lat="37.50467" lon="27.53144">
        <ele>72.483</ele>
        <time>2020-12-13T06:32:29Z</time>
      </trkpt>
      <trkpt lat="37.50467" lon="27.53144">
        <ele>72.483</ele>
        <time>2020-12-13T06:32:30Z</time>
      </trkpt>
      <trkpt lat="37.50467" lon="27.53144">
        <ele>72.483</ele>
        <time>2020-12-13T06:32:31Z</time>
      </trkpt>
      <trkpt lat="37.50471" lon="27.53145">
        <ele>72.965</ele>
        <time>2020-12-13T06:32:32Z</time>
      </trkpt>
      <trkpt lat="37.50471" lon="27.53145">
        <ele>72.965</ele>
        <time>2020-12-13T06:32:33Z</time>
      </trkpt>
      <trkpt lat="37.50471" lon="27.53145">
        <ele>72.965</ele>
        <time>2020-12-13T06:32:34Z</time>
      </trkpt>
      <trkpt lat="37.50471" lon="27.53145">
        <ele>72.965</ele>
        <time>2020-12-13T06:32:35Z</time>
      </trkpt>
      <trkpt lat="37.50471" lon="27.53145">
        <ele>72.965</ele>
        <time>2020-12-13T06:32:36Z</time>
      </trkpt>
      <trkpt lat="37.50479" lon="27.53146">
        <ele>74.093</ele>
        <time>2020-12-13T06:32:37Z</time>
      </trkpt>
      <trkpt lat="37.50479" lon="27.53147">
        <ele>74.213</ele>
        <time>2020-12-13T06:32:38Z</time>
      </trkpt>
      <trkpt lat="37.5048" lon="27.53149">
        <ele>74.343</ele>
        <time>2020-12-13T06:32:39Z</time>
      </trkpt>
      <trkpt lat="37.5048" lon="27.5315">
        <ele>74.47</ele>
        <time>2020-12-13T06:32:40Z</time>
      </trkpt>
      <trkpt lat="37.5048" lon="27.53152">
        <ele>74.605</ele>
        <time>2020-12-13T06:32:41Z</time>
      </trkpt>
      <trkpt lat="37.5048" lon="27.53152">
        <ele>74.605</ele>
        <time>2020-12-13T06:32:42Z</time>
      </trkpt>
      <trkpt lat="37.5048" lon="27.53154">
        <ele>74.733</ele>
        <time>2020-12-13T06:32:43Z</time>
      </trkpt>
      <trkpt lat="37.5048" lon="27.53154">
        <ele>74.733</ele>
        <time>2020-12-13T06:32:44Z</time>
      </trkpt>
      <trkpt lat="37.5048" lon="27.53154">
        <ele>74.733</ele>
        <time>2020-12-13T06:32:45Z</time>
      </trkpt>
      <trkpt lat="37.50482" lon="27.53156">
        <ele>75.131</ele>
        <time>2020-12-13T06:32:46Z</time>
      </trkpt>
      <trkpt lat="37.50482" lon="27.53156">
        <ele>75.131</ele>
        <time>2020-12-13T06:32:47Z</time>
      </trkpt>
      <trkpt lat="37.50484" lon="27.53158">
        <ele>75.467</ele>
        <time>2020-12-13T06:32:48Z</time>
      </trkpt>
      <trkpt lat="37.50484" lon="27.53158">
        <ele>75.467</ele>
        <time>2020-12-13T06:32:49Z</time>
      </trkpt>
      <trkpt lat="37.50484" lon="27.53158">
        <ele>75.467</ele>
        <time>2020-12-13T06:32:50Z</time>
      </trkpt>
      <trkpt lat="37.50484" lon="27.53158">
        <ele>75.467</ele>
        <time>2020-12-13T06:32:51Z</time>
      </trkpt>
      <trkpt lat="37.50483" lon="27.5316">
        <ele>75.586</ele>
        <time>2020-12-13T06:32:52Z</time>
      </trkpt>
      <trkpt lat="37.50483" lon="27.5316">
        <ele>75.586</ele>
        <time>2020-12-13T06:32:53Z</time>
      </trkpt>
      <trkpt lat="37.50483" lon="27.5316">
        <ele>75.586</ele>
        <time>2020-12-13T06:32:54Z</time>
      </trkpt>
      <trkpt lat="37.50483" lon="27.5316">
        <ele>75.586</ele>
        <time>2020-12-13T06:32:55Z</time>
      </trkpt>
      <trkpt lat="37.50483" lon="27.5316">
        <ele>75.586</ele>
        <time>2020-12-13T06:32:56Z</time>
      </trkpt>
      <trkpt lat="37.50483" lon="27.53163">
        <ele>75.731</ele>
        <time>2020-12-13T06:32:57Z</time>
      </trkpt>
      <trkpt lat="37.50483" lon="27.53163">
        <ele>75.731</ele>
        <time>2020-12-13T06:32:58Z</time>
      </trkpt>
      <trkpt lat="37.50483" lon="27.53163">
        <ele>75.731</ele>
        <time>2020-12-13T06:32:59Z</time>
      </trkpt>
      <trkpt lat="37.50483" lon="27.53163">
        <ele>75.731</ele>
        <time>2020-12-13T06:33:00Z</time>
      </trkpt>
      <trkpt lat="37.50484" lon="27.53166">
        <ele>76.006</ele>
        <time>2020-12-13T06:33:01Z</time>
      </trkpt>
      <trkpt lat="37.50484" lon="27.53166">
        <ele>76.006</ele>
        <time>2020-12-13T06:33:02Z</time>
      </trkpt>
      <trkpt lat="37.50484" lon="27.53166">
        <ele>76.006</ele>
        <time>2020-12-13T06:33:03Z</time>
      </trkpt>
      <trkpt lat="37.50484" lon="27.53166">
        <ele>76.006</ele>
        <time>2020-12-13T06:33:04Z</time>
      </trkpt>
      <trkpt lat="37.50484" lon="27.53166">
        <ele>76.006</ele>
        <time>2020-12-13T06:33:05Z</time>
      </trkpt>
      <trkpt lat="37.50484" lon="27.53166">
        <ele>76.006</ele>
        <time>2020-12-13T06:33:06Z</time>
      </trkpt>
      <trkpt lat="37.50484" lon="27.53166">
        <ele>76.006</ele>
        <time>2020-12-13T06:33:07Z</time>
      </trkpt>
      <trkpt lat="37.50484" lon="27.53166">
        <ele>76.006</ele>
        <time>2020-12-13T06:33:08Z</time>
      </trkpt>
      <trkpt lat="37.50486" lon="27.53168">
        <ele>76.342</ele>
        <time>2020-12-13T06:33:09Z</time>
      </trkpt>
      <trkpt lat="37.50486" lon="27.53168">
        <ele>76.342</ele>
        <time>2020-12-13T06:33:10Z</time>
      </trkpt>
      <trkpt lat="37.50486" lon="27.53168">
        <ele>76.342</ele>
        <time>2020-12-13T06:33:11Z</time>
      </trkpt>
      <trkpt lat="37.50486" lon="27.53168">
        <ele>76.342</ele>
        <time>2020-12-13T06:33:12Z</time>
      </trkpt>
      <trkpt lat="37.50486" lon="27.53168">
        <ele>76.342</ele>
        <time>2020-12-13T06:33:13Z</time>
      </trkpt>
      <trkpt lat="37.50486" lon="27.53168">
        <ele>76.342</ele>
        <time>2020-12-13T06:33:14Z</time>
      </trkpt>
      <trkpt lat="37.50486" lon="27.53171">
        <ele>76.317</ele>
        <time>2020-12-13T06:33:15Z</time>
      </trkpt>
      <trkpt lat="37.50486" lon="27.53171">
        <ele>76.317</ele>
        <time>2020-12-13T06:33:16Z</time>
      </trkpt>
      <trkpt lat="37.50486" lon="27.53171">
        <ele>76.317</ele>
        <time>2020-12-13T06:33:17Z</time>
      </trkpt>
      <trkpt lat="37.50487" lon="27.53175">
        <ele>76.32</ele>
        <time>2020-12-13T06:33:18Z</time>
      </trkpt>
      <trkpt lat="37.50487" lon="27.53175">
        <ele>76.32</ele>
        <time>2020-12-13T06:33:19Z</time>
      </trkpt>
      <trkpt lat="37.50487" lon="27.53175">
        <ele>76.32</ele>
        <time>2020-12-13T06:33:20Z</time>
      </trkpt>
      <trkpt lat="37.50487" lon="27.53179">
        <ele>76.238</ele>
        <time>2020-12-13T06:33:21Z</time>
      </trkpt>
      <trkpt lat="37.50487" lon="27.53179">
        <ele>76.238</ele>
        <time>2020-12-13T06:33:22Z</time>
      </trkpt>
      <trkpt lat="37.50487" lon="27.53179">
        <ele>76.238</ele>
        <time>2020-12-13T06:33:23Z</time>
      </trkpt>
      <trkpt lat="37.50487" lon="27.53179">
        <ele>76.238</ele>
        <time>2020-12-13T06:33:24Z</time>
      </trkpt>
      <trkpt lat="37.50487" lon="27.53179">
        <ele>76.238</ele>
        <time>2020-12-13T06:33:25Z</time>
      </trkpt>
      <trkpt lat="37.5049" lon="27.53185">
        <ele>76.457</ele>
        <time>2020-12-13T06:33:26Z</time>
      </trkpt>
      <trkpt lat="37.5049" lon="27.53185">
        <ele>76.457</ele>
        <time>2020-12-13T06:33:27Z</time>
      </trkpt>
      <trkpt lat="37.5049" lon="27.53185">
        <ele>76.457</ele>
        <time>2020-12-13T06:33:28Z</time>
      </trkpt>
      <trkpt lat="37.5049" lon="27.53185">
        <ele>76.457</ele>
        <time>2020-12-13T06:33:29Z</time>
      </trkpt>
      <trkpt lat="37.5049" lon="27.53185">
        <ele>76.457</ele>
        <time>2020-12-13T06:33:30Z</time>
      </trkpt>
      <trkpt lat="37.5049" lon="27.53186">
        <ele>76.54</ele>
        <time>2020-12-13T06:33:31Z</time>
      </trkpt>
      <trkpt lat="37.50491" lon="27.53187">
        <ele>76.619</ele>
        <time>2020-12-13T06:33:32Z</time>
      </trkpt>
      <trkpt lat="37.50492" lon="27.53189">
        <ele>76.702</ele>
        <time>2020-12-13T06:33:33Z</time>
      </trkpt>
      <trkpt lat="37.50492" lon="27.5319">
        <ele>76.784</ele>
        <time>2020-12-13T06:33:34Z</time>
      </trkpt>
      <trkpt lat="37.50493" lon="27.53191">
        <ele>76.846</ele>
        <time>2020-12-13T06:33:35Z</time>
      </trkpt>
      <trkpt lat="37.50494" lon="27.53192">
        <ele>76.928</ele>
        <time>2020-12-13T06:33:36Z</time>
      </trkpt>
      <trkpt lat="37.50494" lon="27.53194">
        <ele>77.008</ele>
        <time>2020-12-13T06:33:37Z</time>
      </trkpt>
      <trkpt lat="37.50495" lon="27.53195">
        <ele>77.072</ele>
        <time>2020-12-13T06:33:38Z</time>
      </trkpt>
      <trkpt lat="37.505" lon="27.53198">
        <ele>77.609</ele>
        <time>2020-12-13T06:33:39Z</time>
      </trkpt>
      <trkpt lat="37.50501" lon="27.53198">
        <ele>77.724</ele>
        <time>2020-12-13T06:33:40Z</time>
      </trkpt>
      <trkpt lat="37.50501" lon="27.53198">
        <ele>77.853</ele>
        <time>2020-12-13T06:33:41Z</time>
      </trkpt>
      <trkpt lat="37.50502" lon="27.53198">
        <ele>77.973</ele>
        <time>2020-12-13T06:33:42Z</time>
      </trkpt>
      <trkpt lat="37.50503" lon="27.53198">
        <ele>78.112</ele>
        <time>2020-12-13T06:33:43Z</time>
      </trkpt>
      <trkpt lat="37.50503" lon="27.53198">
        <ele>78.112</ele>
        <time>2020-12-13T06:33:44Z</time>
      </trkpt>
      <trkpt lat="37.50503" lon="27.53198">
        <ele>78.112</ele>
        <time>2020-12-13T06:33:45Z</time>
      </trkpt>
      <trkpt lat="37.50503" lon="27.53198">
        <ele>78.112</ele>
        <time>2020-12-13T06:33:46Z</time>
      </trkpt>
      <trkpt lat="37.50509" lon="27.53201">
        <ele>79.376</ele>
        <time>2020-12-13T06:33:47Z</time>
      </trkpt>
      <trkpt lat="37.5051" lon="27.53201">
        <ele>79.539</ele>
        <time>2020-12-13T06:33:48Z</time>
      </trkpt>
      <trkpt lat="37.50511" lon="27.53202">
        <ele>79.668</ele>
        <time>2020-12-13T06:33:49Z</time>
      </trkpt>
      <trkpt lat="37.50512" lon="27.53202">
        <ele>79.829</ele>
        <time>2020-12-13T06:33:50Z</time>
      </trkpt>
      <trkpt lat="37.50513" lon="27.53203">
        <ele>79.981</ele>
        <time>2020-12-13T06:33:51Z</time>
      </trkpt>
      <trkpt lat="37.50517" lon="27.53206">
        <ele>80.434</ele>
        <time>2020-12-13T06:33:52Z</time>
      </trkpt>
      <trkpt lat="37.50517" lon="27.53206">
        <ele>80.434</ele>
        <time>2020-12-13T06:33:53Z</time>
      </trkpt>
      <trkpt lat="37.50519" lon="27.53205">
        <ele>81.051</ele>
        <time>2020-12-13T06:33:54Z</time>
      </trkpt>
      <trkpt lat="37.50522" lon="27.53204">
        <ele>81.764</ele>
        <time>2020-12-13T06:33:55Z</time>
      </trkpt>
      <trkpt lat="37.50523" lon="27.53204">
        <ele>81.979</ele>
        <time>2020-12-13T06:33:56Z</time>
      </trkpt>
      <trkpt lat="37.50525" lon="27.53204">
        <ele>82.39</ele>
        <time>2020-12-13T06:33:57Z</time>
      </trkpt>
      <trkpt lat="37.50527" lon="27.53204">
        <ele>82.821</ele>
        <time>2020-12-13T06:33:58Z</time>
      </trkpt>
      <trkpt lat="37.50529" lon="27.53204">
        <ele>83.238</ele>
        <time>2020-12-13T06:33:59Z</time>
      </trkpt>
      <trkpt lat="37.50531" lon="27.53206">
        <ele>83.369</ele>
        <time>2020-12-13T06:34:00Z</time>
      </trkpt>
      <trkpt lat="37.50533" lon="27.53208">
        <ele>83.508</ele>
        <time>2020-12-13T06:34:01Z</time>
      </trkpt>
      <trkpt lat="37.50535" lon="27.53209">
        <ele>83.709</ele>
        <time>2020-12-13T06:34:02Z</time>
      </trkpt>
      <trkpt lat="37.50536" lon="27.53211">
        <ele>83.884</ele>
        <time>2020-12-13T06:34:03Z</time>
      </trkpt>
      <trkpt lat="37.50536" lon="27.53211">
        <ele>83.884</ele>
        <time>2020-12-13T06:34:04Z</time>
      </trkpt>
      <trkpt lat="37.50539" lon="27.53214">
        <ele>84.279</ele>
        <time>2020-12-13T06:34:05Z</time>
      </trkpt>
      <trkpt lat="37.50539" lon="27.53214">
        <ele>84.279</ele>
        <time>2020-12-13T06:34:06Z</time>
      </trkpt>
      <trkpt lat="37.50542" lon="27.53216">
        <ele>84.783</ele>
        <time>2020-12-13T06:34:07Z</time>
      </trkpt>
      <trkpt lat="37.50542" lon="27.53216">
        <ele>84.783</ele>
        <time>2020-12-13T06:34:08Z</time>
      </trkpt>
      <trkpt lat="37.50544" lon="27.53218">
        <ele>85.269</ele>
        <time>2020-12-13T06:34:09Z</time>
      </trkpt>
      <trkpt lat="37.50544" lon="27.53218">
        <ele>85.269</ele>
        <time>2020-12-13T06:34:10Z</time>
      </trkpt>
      <trkpt lat="37.50546" lon="27.53219">
        <ele>85.68</ele>
        <time>2020-12-13T06:34:11Z</time>
      </trkpt>
      <trkpt lat="37.50546" lon="27.53219">
        <ele>85.68</ele>
        <time>2020-12-13T06:34:12Z</time>
      </trkpt>
      <trkpt lat="37.50549" lon="27.53219">
        <ele>86.318</ele>
        <time>2020-12-13T06:34:13Z</time>
      </trkpt>
      <trkpt lat="37.50549" lon="27.53219">
        <ele>86.318</ele>
        <time>2020-12-13T06:34:14Z</time>
      </trkpt>
      <trkpt lat="37.50551" lon="27.53219">
        <ele>86.761</ele>
        <time>2020-12-13T06:34:15Z</time>
      </trkpt>
      <trkpt lat="37.50551" lon="27.53219">
        <ele>86.761</ele>
        <time>2020-12-13T06:34:16Z</time>
      </trkpt>
      <trkpt lat="37.50553" lon="27.53219">
        <ele>87.365</ele>
        <time>2020-12-13T06:34:17Z</time>
      </trkpt>
      <trkpt lat="37.50553" lon="27.53219">
        <ele>87.365</ele>
        <time>2020-12-13T06:34:18Z</time>
      </trkpt>
      <trkpt lat="37.50557" lon="27.53219">
        <ele>88.111</ele>
        <time>2020-12-13T06:34:19Z</time>
      </trkpt>
      <trkpt lat="37.50557" lon="27.53219">
        <ele>88.111</ele>
        <time>2020-12-13T06:34:20Z</time>
      </trkpt>
      <trkpt lat="37.5056" lon="27.53219">
        <ele>88.745</ele>
        <time>2020-12-13T06:34:21Z</time>
      </trkpt>
      <trkpt lat="37.5056" lon="27.53219">
        <ele>88.745</ele>
        <time>2020-12-13T06:34:22Z</time>
      </trkpt>
      <trkpt lat="37.50563" lon="27.53219">
        <ele>89.278</ele>
        <time>2020-12-13T06:34:23Z</time>
      </trkpt>
      <trkpt lat="37.50563" lon="27.53219">
        <ele>89.278</ele>
        <time>2020-12-13T06:34:24Z</time>
      </trkpt>
      <trkpt lat="37.50566" lon="27.53218">
        <ele>89.789</ele>
        <time>2020-12-13T06:34:25Z</time>
      </trkpt>
      <trkpt lat="37.50566" lon="27.53218">
        <ele>89.789</ele>
        <time>2020-12-13T06:34:26Z</time>
      </trkpt>
      <trkpt lat="37.50566" lon="27.53218">
        <ele>89.789</ele>
        <time>2020-12-13T06:34:27Z</time>
      </trkpt>
      <trkpt lat="37.5057" lon="27.5322">
        <ele>90.476</ele>
        <time>2020-12-13T06:34:28Z</time>
      </trkpt>
      <trkpt lat="37.5057" lon="27.5322">
        <ele>90.476</ele>
        <time>2020-12-13T06:34:29Z</time>
      </trkpt>
      <trkpt lat="37.5057" lon="27.5322">
        <ele>90.476</ele>
        <time>2020-12-13T06:34:30Z</time>
      </trkpt>
      <trkpt lat="37.5057" lon="27.5322">
        <ele>90.476</ele>
        <time>2020-12-13T06:34:31Z</time>
      </trkpt>
      <trkpt lat="37.5057" lon="27.5322">
        <ele>90.476</ele>
        <time>2020-12-13T06:34:32Z</time>
      </trkpt>
      <trkpt lat="37.50571" lon="27.5322">
        <ele>90.764</ele>
        <time>2020-12-13T06:34:33Z</time>
      </trkpt>
      <trkpt lat="37.50573" lon="27.53221">
        <ele>91.049</ele>
        <time>2020-12-13T06:34:34Z</time>
      </trkpt>
      <trkpt lat="37.50574" lon="27.53221">
        <ele>91.337</ele>
        <time>2020-12-13T06:34:35Z</time>
      </trkpt>
      <trkpt lat="37.50576" lon="27.53222">
        <ele>91.621</ele>
        <time>2020-12-13T06:34:36Z</time>
      </trkpt>
      <trkpt lat="37.50577" lon="27.53222">
        <ele>91.891</ele>
        <time>2020-12-13T06:34:37Z</time>
      </trkpt>
      <trkpt lat="37.50579" lon="27.53223">
        <ele>92.177</ele>
        <time>2020-12-13T06:34:38Z</time>
      </trkpt>
      <trkpt lat="37.5058" lon="27.53223">
        <ele>92.46</ele>
        <time>2020-12-13T06:34:39Z</time>
      </trkpt>
      <trkpt lat="37.50582" lon="27.53224">
        <ele>92.749</ele>
        <time>2020-12-13T06:34:40Z</time>
      </trkpt>
      <trkpt lat="37.50582" lon="27.53224">
        <ele>92.749</ele>
        <time>2020-12-13T06:34:41Z</time>
      </trkpt>
      <trkpt lat="37.50582" lon="27.53224">
        <ele>92.749</ele>
        <time>2020-12-13T06:34:42Z</time>
      </trkpt>
      <trkpt lat="37.50582" lon="27.53224">
        <ele>92.749</ele>
        <time>2020-12-13T06:34:43Z</time>
      </trkpt>
      <trkpt lat="37.50583" lon="27.53224">
        <ele>93.062</ele>
        <time>2020-12-13T06:34:44Z</time>
      </trkpt>
      <trkpt lat="37.50585" lon="27.53225">
        <ele>93.338</ele>
        <time>2020-12-13T06:34:45Z</time>
      </trkpt>
      <trkpt lat="37.50587" lon="27.53225">
        <ele>93.599</ele>
        <time>2020-12-13T06:34:46Z</time>
      </trkpt>
      <trkpt lat="37.50588" lon="27.53226">
        <ele>93.876</ele>
        <time>2020-12-13T06:34:47Z</time>
      </trkpt>
      <trkpt lat="37.5059" lon="27.53227">
        <ele>94.14</ele>
        <time>2020-12-13T06:34:48Z</time>
      </trkpt>
      <trkpt lat="37.50592" lon="27.53227">
        <ele>94.427</ele>
        <time>2020-12-13T06:34:49Z</time>
      </trkpt>
      <trkpt lat="37.50593" lon="27.53228">
        <ele>94.698</ele>
        <time>2020-12-13T06:34:50Z</time>
      </trkpt>
      <trkpt lat="37.50593" lon="27.53228">
        <ele>94.698</ele>
        <time>2020-12-13T06:34:51Z</time>
      </trkpt>
      <trkpt lat="37.50593" lon="27.53228">
        <ele>94.698</ele>
        <time>2020-12-13T06:34:52Z</time>
      </trkpt>
      <trkpt lat="37.50597" lon="27.53228">
        <ele>95.206</ele>
        <time>2020-12-13T06:34:53Z</time>
      </trkpt>
      <trkpt lat="37.50597" lon="27.53228">
        <ele>95.206</ele>
        <time>2020-12-13T06:34:54Z</time>
      </trkpt>
      <trkpt lat="37.50599" lon="27.53228">
        <ele>95.595</ele>
        <time>2020-12-13T06:34:55Z</time>
      </trkpt>
      <trkpt lat="37.50599" lon="27.53228">
        <ele>95.595</ele>
        <time>2020-12-13T06:34:56Z</time>
      </trkpt>
      <trkpt lat="37.50601" lon="27.53229">
        <ele>95.897</ele>
        <time>2020-12-13T06:34:57Z</time>
      </trkpt>
      <trkpt lat="37.50601" lon="27.53229">
        <ele>95.897</ele>
        <time>2020-12-13T06:34:58Z</time>
      </trkpt>
      <trkpt lat="37.50603" lon="27.5323">
        <ele>96.286</ele>
        <time>2020-12-13T06:34:59Z</time>
      </trkpt>
      <trkpt lat="37.50603" lon="27.5323">
        <ele>96.286</ele>
        <time>2020-12-13T06:35:00Z</time>
      </trkpt>
      <trkpt lat="37.50605" lon="27.53231">
        <ele>96.702</ele>
        <time>2020-12-13T06:35:01Z</time>
      </trkpt>
      <trkpt lat="37.50605" lon="27.53231">
        <ele>96.702</ele>
        <time>2020-12-13T06:35:02Z</time>
      </trkpt>
      <trkpt lat="37.50607" lon="27.53232">
        <ele>97.12</ele>
        <time>2020-12-13T06:35:03Z</time>
      </trkpt>
      <trkpt lat="37.50607" lon="27.53232">
        <ele>97.12</ele>
        <time>2020-12-13T06:35:04Z</time>
      </trkpt>
      <trkpt lat="37.5061" lon="27.53232">
        <ele>97.496</ele>
        <time>2020-12-13T06:35:05Z</time>
      </trkpt>
      <trkpt lat="37.5061" lon="27.53232">
        <ele>97.496</ele>
        <time>2020-12-13T06:35:06Z</time>
      </trkpt>
      <trkpt lat="37.50612" lon="27.53233">
        <ele>97.887</ele>
        <time>2020-12-13T06:35:07Z</time>
      </trkpt>
      <trkpt lat="37.50614" lon="27.53234">
        <ele>98.175</ele>
        <time>2020-12-13T06:35:08Z</time>
      </trkpt>
      <trkpt lat="37.50614" lon="27.53234">
        <ele>98.175</ele>
        <time>2020-12-13T06:35:09Z</time>
      </trkpt>
      <trkpt lat="37.50618" lon="27.53237">
        <ele>98.913</ele>
        <time>2020-12-13T06:35:10Z</time>
      </trkpt>
      <trkpt lat="37.50618" lon="27.53237">
        <ele>98.913</ele>
        <time>2020-12-13T06:35:11Z</time>
      </trkpt>
      <trkpt lat="37.50621" lon="27.53239">
        <ele>99.448</ele>
        <time>2020-12-13T06:35:12Z</time>
      </trkpt>
      <trkpt lat="37.50624" lon="27.53239">
        <ele>99.929</ele>
        <time>2020-12-13T06:35:13Z</time>
      </trkpt>
      <trkpt lat="37.50625" lon="27.5324">
        <ele>100.099</ele>
        <time>2020-12-13T06:35:14Z</time>
      </trkpt>
      <trkpt lat="37.50627" lon="27.53241">
        <ele>100.422</ele>
        <time>2020-12-13T06:35:15Z</time>
      </trkpt>
      <trkpt lat="37.50629" lon="27.53242">
        <ele>100.808</ele>
        <time>2020-12-13T06:35:16Z</time>
      </trkpt>
      <trkpt lat="37.50631" lon="27.53243">
        <ele>101.185</ele>
        <time>2020-12-13T06:35:17Z</time>
      </trkpt>
      <trkpt lat="37.50631" lon="27.53243">
        <ele>101.185</ele>
        <time>2020-12-13T06:35:18Z</time>
      </trkpt>
      <trkpt lat="37.50631" lon="27.53243">
        <ele>101.185</ele>
        <time>2020-12-13T06:35:19Z</time>
      </trkpt>
      <trkpt lat="37.50631" lon="27.53243">
        <ele>101.185</ele>
        <time>2020-12-13T06:35:20Z</time>
      </trkpt>
      <trkpt lat="37.50631" lon="27.53243">
        <ele>101.185</ele>
        <time>2020-12-13T06:35:21Z</time>
      </trkpt>
      <trkpt lat="37.50631" lon="27.53246">
        <ele>101.355</ele>
        <time>2020-12-13T06:35:22Z</time>
      </trkpt>
      <trkpt lat="37.5063" lon="27.53248">
        <ele>101.518</ele>
        <time>2020-12-13T06:35:23Z</time>
      </trkpt>
      <trkpt lat="37.5063" lon="27.5325">
        <ele>101.689</ele>
        <time>2020-12-13T06:35:24Z</time>
      </trkpt>
      <trkpt lat="37.50629" lon="27.53253">
        <ele>101.933</ele>
        <time>2020-12-13T06:35:25Z</time>
      </trkpt>
      <trkpt lat="37.50629" lon="27.53255">
        <ele>102.173</ele>
        <time>2020-12-13T06:35:26Z</time>
      </trkpt>
      <trkpt lat="37.50628" lon="27.53257">
        <ele>102.414</ele>
        <time>2020-12-13T06:35:27Z</time>
      </trkpt>
      <trkpt lat="37.50628" lon="27.53257">
        <ele>102.414</ele>
        <time>2020-12-13T06:35:28Z</time>
      </trkpt>
      <trkpt lat="37.50627" lon="27.5326">
        <ele>102.581</ele>
        <time>2020-12-13T06:35:29Z</time>
      </trkpt>
      <trkpt lat="37.50627" lon="27.5326">
        <ele>102.581</ele>
        <time>2020-12-13T06:35:30Z</time>
      </trkpt>
      <trkpt lat="37.50626" lon="27.53263">
        <ele>102.807</ele>
        <time>2020-12-13T06:35:31Z</time>
      </trkpt>
      <trkpt lat="37.50626" lon="27.53263">
        <ele>102.807</ele>
        <time>2020-12-13T06:35:32Z</time>
      </trkpt>
      <trkpt lat="37.50625" lon="27.53267">
        <ele>103.095</ele>
        <time>2020-12-13T06:35:33Z</time>
      </trkpt>
      <trkpt lat="37.50625" lon="27.53267">
        <ele>103.095</ele>
        <time>2020-12-13T06:35:34Z</time>
      </trkpt>
      <trkpt lat="37.50625" lon="27.53269">
        <ele>103.351</ele>
        <time>2020-12-13T06:35:35Z</time>
      </trkpt>
      <trkpt lat="37.50625" lon="27.53269">
        <ele>103.351</ele>
        <time>2020-12-13T06:35:36Z</time>
      </trkpt>
      <trkpt lat="37.50625" lon="27.53273">
        <ele>103.786</ele>
        <time>2020-12-13T06:35:37Z</time>
      </trkpt>
      <trkpt lat="37.50625" lon="27.53273">
        <ele>103.786</ele>
        <time>2020-12-13T06:35:38Z</time>
      </trkpt>
      <trkpt lat="37.50625" lon="27.53275">
        <ele>104.17</ele>
        <time>2020-12-13T06:35:39Z</time>
      </trkpt>
      <trkpt lat="37.50625" lon="27.53275">
        <ele>104.17</ele>
        <time>2020-12-13T06:35:40Z</time>
      </trkpt>
      <trkpt lat="37.50627" lon="27.53278">
        <ele>104.807</ele>
        <time>2020-12-13T06:35:41Z</time>
      </trkpt>
      <trkpt lat="37.50627" lon="27.53278">
        <ele>104.807</ele>
        <time>2020-12-13T06:35:42Z</time>
      </trkpt>
      <trkpt lat="37.50628" lon="27.5328">
        <ele>105.298</ele>
        <time>2020-12-13T06:35:43Z</time>
      </trkpt>
      <trkpt lat="37.50628" lon="27.5328">
        <ele>105.298</ele>
        <time>2020-12-13T06:35:44Z</time>
      </trkpt>
      <trkpt lat="37.50628" lon="27.5328">
        <ele>105.298</ele>
        <time>2020-12-13T06:35:45Z</time>
      </trkpt>
      <trkpt lat="37.50628" lon="27.5328">
        <ele>105.298</ele>
        <time>2020-12-13T06:35:46Z</time>
      </trkpt>
      <trkpt lat="37.50628" lon="27.5328">
        <ele>105.298</ele>
        <time>2020-12-13T06:35:47Z</time>
      </trkpt>
      <trkpt lat="37.50631" lon="27.5328">
        <ele>105.696</ele>
        <time>2020-12-13T06:35:48Z</time>
      </trkpt>
      <trkpt lat="37.50631" lon="27.5328">
        <ele>105.696</ele>
        <time>2020-12-13T06:35:49Z</time>
      </trkpt>
      <trkpt lat="37.50631" lon="27.5328">
        <ele>105.696</ele>
        <time>2020-12-13T06:35:50Z</time>
      </trkpt>
      <trkpt lat="37.50631" lon="27.5328">
        <ele>105.696</ele>
        <time>2020-12-13T06:35:51Z</time>
      </trkpt>
      <trkpt lat="37.50631" lon="27.5328">
        <ele>105.696</ele>
        <time>2020-12-13T06:35:52Z</time>
      </trkpt>
      <trkpt lat="37.50637" lon="27.53281">
        <ele>106.87</ele>
        <time>2020-12-13T06:35:53Z</time>
      </trkpt>
      <trkpt lat="37.50637" lon="27.53282">
        <ele>106.991</ele>
        <time>2020-12-13T06:35:54Z</time>
      </trkpt>
      <trkpt lat="37.50637" lon="27.53283">
        <ele>107.12</ele>
        <time>2020-12-13T06:35:55Z</time>
      </trkpt>
      <trkpt lat="37.50638" lon="27.53284">
        <ele>107.236</ele>
        <time>2020-12-13T06:35:56Z</time>
      </trkpt>
      <trkpt lat="37.50638" lon="27.53285">
        <ele>107.353</ele>
        <time>2020-12-13T06:35:57Z</time>
      </trkpt>
      <trkpt lat="37.50639" lon="27.53286">
        <ele>107.541</ele>
        <time>2020-12-13T06:35:58Z</time>
      </trkpt>
      <trkpt lat="37.5064" lon="27.53287">
        <ele>107.613</ele>
        <time>2020-12-13T06:35:59Z</time>
      </trkpt>
      <trkpt lat="37.5064" lon="27.53287">
        <ele>107.642</ele>
        <time>2020-12-13T06:36:00Z</time>
      </trkpt>
      <trkpt lat="37.50643" lon="27.5329">
        <ele>107.714</ele>
        <time>2020-12-13T06:36:01Z</time>
      </trkpt>
      <trkpt lat="37.50643" lon="27.5329">
        <ele>107.714</ele>
        <time>2020-12-13T06:36:02Z</time>
      </trkpt>
      <trkpt lat="37.50643" lon="27.5329">
        <ele>107.714</ele>
        <time>2020-12-13T06:36:03Z</time>
      </trkpt>
      <trkpt lat="37.50646" lon="27.53292">
        <ele>107.775</ele>
        <time>2020-12-13T06:36:04Z</time>
      </trkpt>
      <trkpt lat="37.50646" lon="27.53292">
        <ele>107.775</ele>
        <time>2020-12-13T06:36:05Z</time>
      </trkpt>
      <trkpt lat="37.50646" lon="27.53292">
        <ele>107.775</ele>
        <time>2020-12-13T06:36:06Z</time>
      </trkpt>
      <trkpt lat="37.50646" lon="27.53292">
        <ele>107.775</ele>
        <time>2020-12-13T06:36:07Z</time>
      </trkpt>
      <trkpt lat="37.50649" lon="27.53299">
        <ele>108.128</ele>
        <time>2020-12-13T06:36:08Z</time>
      </trkpt>
      <trkpt lat="37.50649" lon="27.53299">
        <ele>108.128</ele>
        <time>2020-12-13T06:36:09Z</time>
      </trkpt>
      <trkpt lat="37.50649" lon="27.53299">
        <ele>108.128</ele>
        <time>2020-12-13T06:36:10Z</time>
      </trkpt>
      <trkpt lat="37.50649" lon="27.53299">
        <ele>108.128</ele>
        <time>2020-12-13T06:36:11Z</time>
      </trkpt>
      <trkpt lat="37.50649" lon="27.53299">
        <ele>108.128</ele>
        <time>2020-12-13T06:36:12Z</time>
      </trkpt>
      <trkpt lat="37.5065" lon="27.53301">
        <ele>108.265</ele>
        <time>2020-12-13T06:36:13Z</time>
      </trkpt>
      <trkpt lat="37.50651" lon="27.53303">
        <ele>108.405</ele>
        <time>2020-12-13T06:36:14Z</time>
      </trkpt>
      <trkpt lat="37.50651" lon="27.53305">
        <ele>108.535</ele>
        <time>2020-12-13T06:36:15Z</time>
      </trkpt>
      <trkpt lat="37.50652" lon="27.53308">
        <ele>108.56</ele>
        <time>2020-12-13T06:36:16Z</time>
      </trkpt>
      <trkpt lat="37.50653" lon="27.5331">
        <ele>108.577</ele>
        <time>2020-12-13T06:36:17Z</time>
      </trkpt>
      <trkpt lat="37.50654" lon="27.53312">
        <ele>108.597</ele>
        <time>2020-12-13T06:36:18Z</time>
      </trkpt>
      <trkpt lat="37.50654" lon="27.53312">
        <ele>108.597</ele>
        <time>2020-12-13T06:36:19Z</time>
      </trkpt>
      <trkpt lat="37.50654" lon="27.53324">
        <ele>108.825</ele>
        <time>2020-12-13T06:36:20Z</time>
      </trkpt>
      <trkpt lat="37.50654" lon="27.53325">
        <ele>108.836</ele>
        <time>2020-12-13T06:36:21Z</time>
      </trkpt>
      <trkpt lat="37.50654" lon="27.53325">
        <ele>108.845</ele>
        <time>2020-12-13T06:36:22Z</time>
      </trkpt>
      <trkpt lat="37.50654" lon="27.53326">
        <ele>108.856</ele>
        <time>2020-12-13T06:36:23Z</time>
      </trkpt>
      <trkpt lat="37.50654" lon="27.53327">
        <ele>108.867</ele>
        <time>2020-12-13T06:36:24Z</time>
      </trkpt>
      <trkpt lat="37.50654" lon="27.53327">
        <ele>108.867</ele>
        <time>2020-12-13T06:36:25Z</time>
      </trkpt>
      <trkpt lat="37.50654" lon="27.53327">
        <ele>108.867</ele>
        <time>2020-12-13T06:36:26Z</time>
      </trkpt>
      <trkpt lat="37.50654" lon="27.53327">
        <ele>108.867</ele>
        <time>2020-12-13T06:36:27Z</time>
      </trkpt>
      <trkpt lat="37.50654" lon="27.53327">
        <ele>108.867</ele>
        <time>2020-12-13T06:36:28Z</time>
      </trkpt>
      <trkpt lat="37.50654" lon="27.53327">
        <ele>108.867</ele>
        <time>2020-12-13T06:36:29Z</time>
      </trkpt>
      <trkpt lat="37.50654" lon="27.53327">
        <ele>108.867</ele>
        <time>2020-12-13T06:36:30Z</time>
      </trkpt>
      <trkpt lat="37.50656" lon="27.53327">
        <ele>108.869</ele>
        <time>2020-12-13T06:36:31Z</time>
      </trkpt>
      <trkpt lat="37.50656" lon="27.53327">
        <ele>108.869</ele>
        <time>2020-12-13T06:36:32Z</time>
      </trkpt>
      <trkpt lat="37.50656" lon="27.53327">
        <ele>108.869</ele>
        <time>2020-12-13T06:36:33Z</time>
      </trkpt>
      <trkpt lat="37.50656" lon="27.53327">
        <ele>108.869</ele>
        <time>2020-12-13T06:36:34Z</time>
      </trkpt>
      <trkpt lat="37.50656" lon="27.53327">
        <ele>108.869</ele>
        <time>2020-12-13T06:36:35Z</time>
      </trkpt>
      <trkpt lat="37.50656" lon="27.53327">
        <ele>108.869</ele>
        <time>2020-12-13T06:36:36Z</time>
      </trkpt>
      <trkpt lat="37.50656" lon="27.53327">
        <ele>108.869</ele>
        <time>2020-12-13T06:36:37Z</time>
      </trkpt>
      <trkpt lat="37.50656" lon="27.53327">
        <ele>108.869</ele>
        <time>2020-12-13T06:36:38Z</time>
      </trkpt>
      <trkpt lat="37.50656" lon="27.53327">
        <ele>108.869</ele>
        <time>2020-12-13T06:36:39Z</time>
      </trkpt>
      <trkpt lat="37.50656" lon="27.53327">
        <ele>108.869</ele>
        <time>2020-12-13T06:36:40Z</time>
      </trkpt>
      <trkpt lat="37.50656" lon="27.53327">
        <ele>108.869</ele>
        <time>2020-12-13T06:36:41Z</time>
      </trkpt>
      <trkpt lat="37.50657" lon="27.5333">
        <ele>108.919</ele>
        <time>2020-12-13T06:36:42Z</time>
      </trkpt>
      <trkpt lat="37.50657" lon="27.5333">
        <ele>108.919</ele>
        <time>2020-12-13T06:36:43Z</time>
      </trkpt>
      <trkpt lat="37.50659" lon="27.53332">
        <ele>108.973</ele>
        <time>2020-12-13T06:36:44Z</time>
      </trkpt>
      <trkpt lat="37.5066" lon="27.53334">
        <ele>109.015</ele>
        <time>2020-12-13T06:36:45Z</time>
      </trkpt>
      <trkpt lat="37.50661" lon="27.53337">
        <ele>109.068</ele>
        <time>2020-12-13T06:36:46Z</time>
      </trkpt>
      <trkpt lat="37.50662" lon="27.53339">
        <ele>109.144</ele>
        <time>2020-12-13T06:36:47Z</time>
      </trkpt>
      <trkpt lat="37.50663" lon="27.53342">
        <ele>109.237</ele>
        <time>2020-12-13T06:36:48Z</time>
      </trkpt>
      <trkpt lat="37.50663" lon="27.53342">
        <ele>109.237</ele>
        <time>2020-12-13T06:36:49Z</time>
      </trkpt>
      <trkpt lat="37.50663" lon="27.53342">
        <ele>109.237</ele>
        <time>2020-12-13T06:36:50Z</time>
      </trkpt>
      <trkpt lat="37.50663" lon="27.53342">
        <ele>109.237</ele>
        <time>2020-12-13T06:36:51Z</time>
      </trkpt>
      <trkpt lat="37.50663" lon="27.53342">
        <ele>109.237</ele>
        <time>2020-12-13T06:36:52Z</time>
      </trkpt>
      <trkpt lat="37.50674" lon="27.53348">
        <ele>109.682</ele>
        <time>2020-12-13T06:36:53Z</time>
      </trkpt>
      <trkpt lat="37.50675" lon="27.53349">
        <ele>109.742</ele>
        <time>2020-12-13T06:36:54Z</time>
      </trkpt>
      <trkpt lat="37.50676" lon="27.5335">
        <ele>109.797</ele>
        <time>2020-12-13T06:36:55Z</time>
      </trkpt>
      <trkpt lat="37.50677" lon="27.53351">
        <ele>109.861</ele>
        <time>2020-12-13T06:36:56Z</time>
      </trkpt>
      <trkpt lat="37.50678" lon="27.53352">
        <ele>109.926</ele>
        <time>2020-12-13T06:36:57Z</time>
      </trkpt>
      <trkpt lat="37.5068" lon="27.53356">
        <ele>110.186</ele>
        <time>2020-12-13T06:36:58Z</time>
      </trkpt>
      <trkpt lat="37.5068" lon="27.53356">
        <ele>110.186</ele>
        <time>2020-12-13T06:36:59Z</time>
      </trkpt>
      <trkpt lat="37.5068" lon="27.53356">
        <ele>110.186</ele>
        <time>2020-12-13T06:37:00Z</time>
      </trkpt>
      <trkpt lat="37.5068" lon="27.53356">
        <ele>110.186</ele>
        <time>2020-12-13T06:37:01Z</time>
      </trkpt>
      <trkpt lat="37.5068" lon="27.53356">
        <ele>110.186</ele>
        <time>2020-12-13T06:37:02Z</time>
      </trkpt>
      <trkpt lat="37.5068" lon="27.53356">
        <ele>110.186</ele>
        <time>2020-12-13T06:37:03Z</time>
      </trkpt>
      <trkpt lat="37.5068" lon="27.53356">
        <ele>110.186</ele>
        <time>2020-12-13T06:37:04Z</time>
      </trkpt>
      <trkpt lat="37.5068" lon="27.53358">
        <ele>110.335</ele>
        <time>2020-12-13T06:37:05Z</time>
      </trkpt>
      <trkpt lat="37.5068" lon="27.53358">
        <ele>110.335</ele>
        <time>2020-12-13T06:37:06Z</time>
      </trkpt>
      <trkpt lat="37.50681" lon="27.53361">
        <ele>110.487</ele>
        <time>2020-12-13T06:37:07Z</time>
      </trkpt>
      <trkpt lat="37.50681" lon="27.53361">
        <ele>110.487</ele>
        <time>2020-12-13T06:37:08Z</time>
      </trkpt>
      <trkpt lat="37.50681" lon="27.53364">
        <ele>110.847</ele>
        <time>2020-12-13T06:37:09Z</time>
      </trkpt>
      <trkpt lat="37.50681" lon="27.53364">
        <ele>110.847</ele>
        <time>2020-12-13T06:37:10Z</time>
      </trkpt>
      <trkpt lat="37.50683" lon="27.53366">
        <ele>111.168</ele>
        <time>2020-12-13T06:37:11Z</time>
      </trkpt>
      <trkpt lat="37.50683" lon="27.53366">
        <ele>111.168</ele>
        <time>2020-12-13T06:37:12Z</time>
      </trkpt>
      <trkpt lat="37.50686" lon="27.53368">
        <ele>111.569</ele>
        <time>2020-12-13T06:37:13Z</time>
      </trkpt>
      <trkpt lat="37.50688" lon="27.53368">
        <ele>111.77</ele>
        <time>2020-12-13T06:37:14Z</time>
      </trkpt>
      <trkpt lat="37.5069" lon="27.5337">
        <ele>112.046</ele>
        <time>2020-12-13T06:37:15Z</time>
      </trkpt>
      <trkpt lat="37.50692" lon="27.53371">
        <ele>112.366</ele>
        <time>2020-12-13T06:37:16Z</time>
      </trkpt>
      <trkpt lat="37.50692" lon="27.53371">
        <ele>112.366</ele>
        <time>2020-12-13T06:37:17Z</time>
      </trkpt>
      <trkpt lat="37.50693" lon="27.53375">
        <ele>112.96</ele>
        <time>2020-12-13T06:37:18Z</time>
      </trkpt>
      <trkpt lat="37.50693" lon="27.53378">
        <ele>113.269</ele>
        <time>2020-12-13T06:37:19Z</time>
      </trkpt>
      <trkpt lat="37.50691" lon="27.5338">
        <ele>113.507</ele>
        <time>2020-12-13T06:37:20Z</time>
      </trkpt>
      <trkpt lat="37.5069" lon="27.53382">
        <ele>113.653</ele>
        <time>2020-12-13T06:37:21Z</time>
      </trkpt>
      <trkpt lat="37.50688" lon="27.53383">
        <ele>113.752</ele>
        <time>2020-12-13T06:37:22Z</time>
      </trkpt>
      <trkpt lat="37.50685" lon="27.53385">
        <ele>113.828</ele>
        <time>2020-12-13T06:37:23Z</time>
      </trkpt>
      <trkpt lat="37.50683" lon="27.53387">
        <ele>113.894</ele>
        <time>2020-12-13T06:37:24Z</time>
      </trkpt>
      <trkpt lat="37.50681" lon="27.53388">
        <ele>113.957</ele>
        <time>2020-12-13T06:37:25Z</time>
      </trkpt>
      <trkpt lat="37.50679" lon="27.5339">
        <ele>114.035</ele>
        <time>2020-12-13T06:37:26Z</time>
      </trkpt>
      <trkpt lat="37.50677" lon="27.53392">
        <ele>114.063</ele>
        <time>2020-12-13T06:37:27Z</time>
      </trkpt>
      <trkpt lat="37.50674" lon="27.53393">
        <ele>114.121</ele>
        <time>2020-12-13T06:37:28Z</time>
      </trkpt>
      <trkpt lat="37.50672" lon="27.53396">
        <ele>114.311</ele>
        <time>2020-12-13T06:37:29Z</time>
      </trkpt>
      <trkpt lat="37.5067" lon="27.53398">
        <ele>114.501</ele>
        <time>2020-12-13T06:37:30Z</time>
      </trkpt>
      <trkpt lat="37.50667" lon="27.53401">
        <ele>114.76</ele>
        <time>2020-12-13T06:37:31Z</time>
      </trkpt>
      <trkpt lat="37.50665" lon="27.53403">
        <ele>114.681</ele>
        <time>2020-12-13T06:37:32Z</time>
      </trkpt>
      <trkpt lat="37.50662" lon="27.53404">
        <ele>114.339</ele>
        <time>2020-12-13T06:37:33Z</time>
      </trkpt>
      <trkpt lat="37.5066" lon="27.53404">
        <ele>113.86</ele>
        <time>2020-12-13T06:37:34Z</time>
      </trkpt>
      <trkpt lat="37.50657" lon="27.53404">
        <ele>113.301</ele>
        <time>2020-12-13T06:37:35Z</time>
      </trkpt>
      <trkpt lat="37.50655" lon="27.53404">
        <ele>112.829</ele>
        <time>2020-12-13T06:37:36Z</time>
      </trkpt>
      <trkpt lat="37.50653" lon="27.53404">
        <ele>112.402</ele>
        <time>2020-12-13T06:37:37Z</time>
      </trkpt>
      <trkpt lat="37.5065" lon="27.53405">
        <ele>111.964</ele>
        <time>2020-12-13T06:37:38Z</time>
      </trkpt>
      <trkpt lat="37.50648" lon="27.53405">
        <ele>111.481</ele>
        <time>2020-12-13T06:37:39Z</time>
      </trkpt>
      <trkpt lat="37.50645" lon="27.53405">
        <ele>110.999</ele>
        <time>2020-12-13T06:37:40Z</time>
      </trkpt>
      <trkpt lat="37.50643" lon="27.53405">
        <ele>110.52</ele>
        <time>2020-12-13T06:37:41Z</time>
      </trkpt>
      <trkpt lat="37.5064" lon="27.53406">
        <ele>110.12</ele>
        <time>2020-12-13T06:37:42Z</time>
      </trkpt>
      <trkpt lat="37.50639" lon="27.53407">
        <ele>109.797</ele>
        <time>2020-12-13T06:37:43Z</time>
      </trkpt>
      <trkpt lat="37.50636" lon="27.53408">
        <ele>109.364</ele>
        <time>2020-12-13T06:37:44Z</time>
      </trkpt>
      <trkpt lat="37.50635" lon="27.53411">
        <ele>109.068</ele>
        <time>2020-12-13T06:37:45Z</time>
      </trkpt>
      <trkpt lat="37.50633" lon="27.53413">
        <ele>108.893</ele>
        <time>2020-12-13T06:37:46Z</time>
      </trkpt>
      <trkpt lat="37.50632" lon="27.53416">
        <ele>108.804</ele>
        <time>2020-12-13T06:37:47Z</time>
      </trkpt>
      <trkpt lat="37.50631" lon="27.53418">
        <ele>108.772</ele>
        <time>2020-12-13T06:37:48Z</time>
      </trkpt>
      <trkpt lat="37.5063" lon="27.5342">
        <ele>108.957</ele>
        <time>2020-12-13T06:37:49Z</time>
      </trkpt>
      <trkpt lat="37.5063" lon="27.53423">
        <ele>109.23</ele>
        <time>2020-12-13T06:37:50Z</time>
      </trkpt>
      <trkpt lat="37.5063" lon="27.53425">
        <ele>109.452</ele>
        <time>2020-12-13T06:37:51Z</time>
      </trkpt>
      <trkpt lat="37.5063" lon="27.53425">
        <ele>109.452</ele>
        <time>2020-12-13T06:37:52Z</time>
      </trkpt>
      <trkpt lat="37.5063" lon="27.53425">
        <ele>109.452</ele>
        <time>2020-12-13T06:37:53Z</time>
      </trkpt>
      <trkpt lat="37.50626" lon="27.53431">
        <ele>109.319</ele>
        <time>2020-12-13T06:37:54Z</time>
      </trkpt>
      <trkpt lat="37.50625" lon="27.53432">
        <ele>109.291</ele>
        <time>2020-12-13T06:37:55Z</time>
      </trkpt>
      <trkpt lat="37.50625" lon="27.53436">
        <ele>109.812</ele>
        <time>2020-12-13T06:37:56Z</time>
      </trkpt>
      <trkpt lat="37.50625" lon="27.53438">
        <ele>110.09</ele>
        <time>2020-12-13T06:37:57Z</time>
      </trkpt>
      <trkpt lat="37.50625" lon="27.53439">
        <ele>110.351</ele>
        <time>2020-12-13T06:37:58Z</time>
      </trkpt>
      <trkpt lat="37.50625" lon="27.53442">
        <ele>110.694</ele>
        <time>2020-12-13T06:37:59Z</time>
      </trkpt>
      <trkpt lat="37.50625" lon="27.53444">
        <ele>110.914</ele>
        <time>2020-12-13T06:38:00Z</time>
      </trkpt>
      <trkpt lat="37.50624" lon="27.53446">
        <ele>110.981</ele>
        <time>2020-12-13T06:38:01Z</time>
      </trkpt>
      <trkpt lat="37.50623" lon="27.53448">
        <ele>111.023</ele>
        <time>2020-12-13T06:38:02Z</time>
      </trkpt>
      <trkpt lat="37.50621" lon="27.5345">
        <ele>110.921</ele>
        <time>2020-12-13T06:38:03Z</time>
      </trkpt>
      <trkpt lat="37.50621" lon="27.5345">
        <ele>110.921</ele>
        <time>2020-12-13T06:38:04Z</time>
      </trkpt>
      <trkpt lat="37.50619" lon="27.53454">
        <ele>110.902</ele>
        <time>2020-12-13T06:38:05Z</time>
      </trkpt>
      <trkpt lat="37.50618" lon="27.53456">
        <ele>110.839</ele>
        <time>2020-12-13T06:38:06Z</time>
      </trkpt>
      <trkpt lat="37.50617" lon="27.53459">
        <ele>110.816</ele>
        <time>2020-12-13T06:38:07Z</time>
      </trkpt>
      <trkpt lat="37.50615" lon="27.53461">
        <ele>110.655</ele>
        <time>2020-12-13T06:38:08Z</time>
      </trkpt>
      <trkpt lat="37.50613" lon="27.53462">
        <ele>110.451</ele>
        <time>2020-12-13T06:38:09Z</time>
      </trkpt>
      <trkpt lat="37.50612" lon="27.53464">
        <ele>110.234</ele>
        <time>2020-12-13T06:38:10Z</time>
      </trkpt>
      <trkpt lat="37.5061" lon="27.53465">
        <ele>110.088</ele>
        <time>2020-12-13T06:38:11Z</time>
      </trkpt>
      <trkpt lat="37.50608" lon="27.53467">
        <ele>110.039</ele>
        <time>2020-12-13T06:38:12Z</time>
      </trkpt>
      <trkpt lat="37.50607" lon="27.5347">
        <ele>110.082</ele>
        <time>2020-12-13T06:38:13Z</time>
      </trkpt>
      <trkpt lat="37.50605" lon="27.53472">
        <ele>110.096</ele>
        <time>2020-12-13T06:38:14Z</time>
      </trkpt>
      <trkpt lat="37.50604" lon="27.53474">
        <ele>110.028</ele>
        <time>2020-12-13T06:38:15Z</time>
      </trkpt>
      <trkpt lat="37.50604" lon="27.53474">
        <ele>110.028</ele>
        <time>2020-12-13T06:38:16Z</time>
      </trkpt>
      <trkpt lat="37.50603" lon="27.53479">
        <ele>110.115</ele>
        <time>2020-12-13T06:38:17Z</time>
      </trkpt>
      <trkpt lat="37.50602" lon="27.53481">
        <ele>110.108</ele>
        <time>2020-12-13T06:38:18Z</time>
      </trkpt>
      <trkpt lat="37.50601" lon="27.53484">
        <ele>110.124</ele>
        <time>2020-12-13T06:38:19Z</time>
      </trkpt>
      <trkpt lat="37.506" lon="27.53487">
        <ele>110.129</ele>
        <time>2020-12-13T06:38:20Z</time>
      </trkpt>
      <trkpt lat="37.506" lon="27.5349">
        <ele>110.222</ele>
        <time>2020-12-13T06:38:21Z</time>
      </trkpt>
      <trkpt lat="37.50599" lon="27.53492">
        <ele>110.311</ele>
        <time>2020-12-13T06:38:22Z</time>
      </trkpt>
      <trkpt lat="37.50599" lon="27.53495">
        <ele>110.404</ele>
        <time>2020-12-13T06:38:23Z</time>
      </trkpt>
      <trkpt lat="37.50598" lon="27.53498">
        <ele>110.434</ele>
        <time>2020-12-13T06:38:24Z</time>
      </trkpt>
      <trkpt lat="37.50597" lon="27.535">
        <ele>110.466</ele>
        <time>2020-12-13T06:38:25Z</time>
      </trkpt>
      <trkpt lat="37.50596" lon="27.53502">
        <ele>110.252</ele>
        <time>2020-12-13T06:38:26Z</time>
      </trkpt>
      <trkpt lat="37.50594" lon="27.53504">
        <ele>109.963</ele>
        <time>2020-12-13T06:38:27Z</time>
      </trkpt>
      <trkpt lat="37.50592" lon="27.53506">
        <ele>109.668</ele>
        <time>2020-12-13T06:38:28Z</time>
      </trkpt>
      <trkpt lat="37.50591" lon="27.53508">
        <ele>109.412</ele>
        <time>2020-12-13T06:38:29Z</time>
      </trkpt>
      <trkpt lat="37.50589" lon="27.5351">
        <ele>109.156</ele>
        <time>2020-12-13T06:38:30Z</time>
      </trkpt>
      <trkpt lat="37.50588" lon="27.53512">
        <ele>108.977</ele>
        <time>2020-12-13T06:38:31Z</time>
      </trkpt>
      <trkpt lat="37.50588" lon="27.53512">
        <ele>108.977</ele>
        <time>2020-12-13T06:38:32Z</time>
      </trkpt>
      <trkpt lat="37.50586" lon="27.53515">
        <ele>108.698</ele>
        <time>2020-12-13T06:38:33Z</time>
      </trkpt>
      <trkpt lat="37.50586" lon="27.53515">
        <ele>108.698</ele>
        <time>2020-12-13T06:38:34Z</time>
      </trkpt>
      <trkpt lat="37.50586" lon="27.53515">
        <ele>108.698</ele>
        <time>2020-12-13T06:38:35Z</time>
      </trkpt>
      <trkpt lat="37.50586" lon="27.53515">
        <ele>108.698</ele>
        <time>2020-12-13T06:38:36Z</time>
      </trkpt>
      <trkpt lat="37.50586" lon="27.53515">
        <ele>108.698</ele>
        <time>2020-12-13T06:38:37Z</time>
      </trkpt>
      <trkpt lat="37.50586" lon="27.53515">
        <ele>108.698</ele>
        <time>2020-12-13T06:38:38Z</time>
      </trkpt>
      <trkpt lat="37.50586" lon="27.53515">
        <ele>108.698</ele>
        <time>2020-12-13T06:38:39Z</time>
      </trkpt>
      <trkpt lat="37.50586" lon="27.53515">
        <ele>108.698</ele>
        <time>2020-12-13T06:38:40Z</time>
      </trkpt>
      <trkpt lat="37.50586" lon="27.53515">
        <ele>108.698</ele>
        <time>2020-12-13T06:38:41Z</time>
      </trkpt>
      <trkpt lat="37.50586" lon="27.53515">
        <ele>108.698</ele>
        <time>2020-12-13T06:38:42Z</time>
      </trkpt>
      <trkpt lat="37.50586" lon="27.53515">
        <ele>108.698</ele>
        <time>2020-12-13T06:38:43Z</time>
      </trkpt>
      <trkpt lat="37.50586" lon="27.53515">
        <ele>108.698</ele>
        <time>2020-12-13T06:38:44Z</time>
      </trkpt>
      <trkpt lat="37.50586" lon="27.53515">
        <ele>108.698</ele>
        <time>2020-12-13T06:38:45Z</time>
      </trkpt>
      <trkpt lat="37.50585" lon="27.53518">
        <ele>108.495</ele>
        <time>2020-12-13T06:38:46Z</time>
      </trkpt>
      <trkpt lat="37.50585" lon="27.53518">
        <ele>108.495</ele>
        <time>2020-12-13T06:38:47Z</time>
      </trkpt>
      <trkpt lat="37.50583" lon="27.5352">
        <ele>108.277</ele>
        <time>2020-12-13T06:38:48Z</time>
      </trkpt>
      <trkpt lat="37.50583" lon="27.5352">
        <ele>108.277</ele>
        <time>2020-12-13T06:38:49Z</time>
      </trkpt>
      <trkpt lat="37.50579" lon="27.5352">
        <ele>108.247</ele>
        <time>2020-12-13T06:38:50Z</time>
      </trkpt>
      <trkpt lat="37.50579" lon="27.5352">
        <ele>108.247</ele>
        <time>2020-12-13T06:38:51Z</time>
      </trkpt>
      <trkpt lat="37.50576" lon="27.53521">
        <ele>108.17</ele>
        <time>2020-12-13T06:38:52Z</time>
      </trkpt>
      <trkpt lat="37.50574" lon="27.53523">
        <ele>108.118</ele>
        <time>2020-12-13T06:38:53Z</time>
      </trkpt>
      <trkpt lat="37.50572" lon="27.53524">
        <ele>108.088</ele>
        <time>2020-12-13T06:38:54Z</time>
      </trkpt>
      <trkpt lat="37.5057" lon="27.53524">
        <ele>108.074</ele>
        <time>2020-12-13T06:38:55Z</time>
      </trkpt>
      <trkpt lat="37.5057" lon="27.53524">
        <ele>108.074</ele>
        <time>2020-12-13T06:38:56Z</time>
      </trkpt>
      <trkpt lat="37.50567" lon="27.53522">
        <ele>108.079</ele>
        <time>2020-12-13T06:38:57Z</time>
      </trkpt>
      <trkpt lat="37.50567" lon="27.53522">
        <ele>108.079</ele>
        <time>2020-12-13T06:38:58Z</time>
      </trkpt>
      <trkpt lat="37.50567" lon="27.53522">
        <ele>108.079</ele>
        <time>2020-12-13T06:38:59Z</time>
      </trkpt>
      <trkpt lat="37.50567" lon="27.53522">
        <ele>108.079</ele>
        <time>2020-12-13T06:39:00Z</time>
      </trkpt>
      <trkpt lat="37.50564" lon="27.53522">
        <ele>108.069</ele>
        <time>2020-12-13T06:39:01Z</time>
      </trkpt>
      <trkpt lat="37.50564" lon="27.53522">
        <ele>108.069</ele>
        <time>2020-12-13T06:39:02Z</time>
      </trkpt>
      <trkpt lat="37.50564" lon="27.53522">
        <ele>108.069</ele>
        <time>2020-12-13T06:39:03Z</time>
      </trkpt>
      <trkpt lat="37.50564" lon="27.53522">
        <ele>108.069</ele>
        <time>2020-12-13T06:39:04Z</time>
      </trkpt>
      <trkpt lat="37.50564" lon="27.53522">
        <ele>108.069</ele>
        <time>2020-12-13T06:39:05Z</time>
      </trkpt>
      <trkpt lat="37.50562" lon="27.53523">
        <ele>108.037</ele>
        <time>2020-12-13T06:39:06Z</time>
      </trkpt>
      <trkpt lat="37.50562" lon="27.53523">
        <ele>108.037</ele>
        <time>2020-12-13T06:39:07Z</time>
      </trkpt>
      <trkpt lat="37.5056" lon="27.53526">
        <ele>108.008</ele>
        <time>2020-12-13T06:39:08Z</time>
      </trkpt>
      <trkpt lat="37.50558" lon="27.53527">
        <ele>108.002</ele>
        <time>2020-12-13T06:39:09Z</time>
      </trkpt>
      <trkpt lat="37.50557" lon="27.53529">
        <ele>107.902</ele>
        <time>2020-12-13T06:39:10Z</time>
      </trkpt>
      <trkpt lat="37.50555" lon="27.53531">
        <ele>107.68</ele>
        <time>2020-12-13T06:39:11Z</time>
      </trkpt>
      <trkpt lat="37.50554" lon="27.53534">
        <ele>107.538</ele>
        <time>2020-12-13T06:39:12Z</time>
      </trkpt>
      <trkpt lat="37.50552" lon="27.53537">
        <ele>107.454</ele>
        <time>2020-12-13T06:39:13Z</time>
      </trkpt>
      <trkpt lat="37.50552" lon="27.53537">
        <ele>107.454</ele>
        <time>2020-12-13T06:39:14Z</time>
      </trkpt>
      <trkpt lat="37.50552" lon="27.53537">
        <ele>107.454</ele>
        <time>2020-12-13T06:39:15Z</time>
      </trkpt>
      <trkpt lat="37.50552" lon="27.53537">
        <ele>107.454</ele>
        <time>2020-12-13T06:39:16Z</time>
      </trkpt>
      <trkpt lat="37.50552" lon="27.53537">
        <ele>107.454</ele>
        <time>2020-12-13T06:39:55Z</time>
      </trkpt>
      <trkpt lat="37.50556" lon="27.53544">
        <ele>106.258</ele>
        <time>2020-12-13T06:39:56Z</time>
      </trkpt>
      <trkpt lat="37.50556" lon="27.53544">
        <ele>106.258</ele>
        <time>2020-12-13T06:39:57Z</time>
      </trkpt>
      <trkpt lat="37.50557" lon="27.53545">
        <ele>106.135</ele>
        <time>2020-12-13T06:39:58Z</time>
      </trkpt>
      <trkpt lat="37.50557" lon="27.53545">
        <ele>106.135</ele>
        <time>2020-12-13T06:39:59Z</time>
      </trkpt>
      <trkpt lat="37.50559" lon="27.53547">
        <ele>106.01</ele>
        <time>2020-12-13T06:40:00Z</time>
      </trkpt>
      <trkpt lat="37.50559" lon="27.53547">
        <ele>106.01</ele>
        <time>2020-12-13T06:40:01Z</time>
      </trkpt>
      <trkpt lat="37.50559" lon="27.53547">
        <ele>106.01</ele>
        <time>2020-12-13T06:40:02Z</time>
      </trkpt>
      <trkpt lat="37.50559" lon="27.53547">
        <ele>106.01</ele>
        <time>2020-12-13T06:40:03Z</time>
      </trkpt>
      <trkpt lat="37.50559" lon="27.53547">
        <ele>106.01</ele>
        <time>2020-12-13T06:40:04Z</time>
      </trkpt>
      <trkpt lat="37.50559" lon="27.53547">
        <ele>106.01</ele>
        <time>2020-12-13T06:40:05Z</time>
      </trkpt>
      <trkpt lat="37.50559" lon="27.53547">
        <ele>106.01</ele>
        <time>2020-12-13T06:40:06Z</time>
      </trkpt>
      <trkpt lat="37.50559" lon="27.53547">
        <ele>106.01</ele>
        <time>2020-12-13T06:40:07Z</time>
      </trkpt>
      <trkpt lat="37.50559" lon="27.53547">
        <ele>106.01</ele>
        <time>2020-12-13T06:40:08Z</time>
      </trkpt>
      <trkpt lat="37.50557" lon="27.53549">
        <ele>105.756</ele>
        <time>2020-12-13T06:40:09Z</time>
      </trkpt>
      <trkpt lat="37.50557" lon="27.53549">
        <ele>105.756</ele>
        <time>2020-12-13T06:40:10Z</time>
      </trkpt>
      <trkpt lat="37.50557" lon="27.53549">
        <ele>105.756</ele>
        <time>2020-12-13T06:40:11Z</time>
      </trkpt>
      <trkpt lat="37.50557" lon="27.53549">
        <ele>105.756</ele>
        <time>2020-12-13T06:40:12Z</time>
      </trkpt>
      <trkpt lat="37.50557" lon="27.53549">
        <ele>105.756</ele>
        <time>2020-12-13T06:40:13Z</time>
      </trkpt>
      <trkpt lat="37.50558" lon="27.5355">
        <ele>105.683</ele>
        <time>2020-12-13T06:40:14Z</time>
      </trkpt>
      <trkpt lat="37.50558" lon="27.53551">
        <ele>105.597</ele>
        <time>2020-12-13T06:40:15Z</time>
      </trkpt>
      <trkpt lat="37.50558" lon="27.53552">
        <ele>105.525</ele>
        <time>2020-12-13T06:40:16Z</time>
      </trkpt>
      <trkpt lat="37.50559" lon="27.53552">
        <ele>105.445</ele>
        <time>2020-12-13T06:40:17Z</time>
      </trkpt>
      <trkpt lat="37.50559" lon="27.53553">
        <ele>105.374</ele>
        <time>2020-12-13T06:40:18Z</time>
      </trkpt>
      <trkpt lat="37.5056" lon="27.53554">
        <ele>105.292</ele>
        <time>2020-12-13T06:40:19Z</time>
      </trkpt>
      <trkpt lat="37.5056" lon="27.53555">
        <ele>105.223</ele>
        <time>2020-12-13T06:40:20Z</time>
      </trkpt>
      <trkpt lat="37.5056" lon="27.53556">
        <ele>105.157</ele>
        <time>2020-12-13T06:40:21Z</time>
      </trkpt>
      <trkpt lat="37.50561" lon="27.53557">
        <ele>105.127</ele>
        <time>2020-12-13T06:40:22Z</time>
      </trkpt>
      <trkpt lat="37.50561" lon="27.53557">
        <ele>105.091</ele>
        <time>2020-12-13T06:40:23Z</time>
      </trkpt>
      <trkpt lat="37.50561" lon="27.53558">
        <ele>105.049</ele>
        <time>2020-12-13T06:40:24Z</time>
      </trkpt>
      <trkpt lat="37.50562" lon="27.53559">
        <ele>105.011</ele>
        <time>2020-12-13T06:40:25Z</time>
      </trkpt>
      <trkpt lat="37.50562" lon="27.5356">
        <ele>104.963</ele>
        <time>2020-12-13T06:40:26Z</time>
      </trkpt>
      <trkpt lat="37.50563" lon="27.53561">
        <ele>104.919</ele>
        <time>2020-12-13T06:40:27Z</time>
      </trkpt>
      <trkpt lat="37.50563" lon="27.53562">
        <ele>104.868</ele>
        <time>2020-12-13T06:40:28Z</time>
      </trkpt>
      <trkpt lat="37.50563" lon="27.53563">
        <ele>104.82</ele>
        <time>2020-12-13T06:40:29Z</time>
      </trkpt>
      <trkpt lat="37.50564" lon="27.53563">
        <ele>104.762</ele>
        <time>2020-12-13T06:40:30Z</time>
      </trkpt>
      <trkpt lat="37.50564" lon="27.53564">
        <ele>104.709</ele>
        <time>2020-12-13T06:40:31Z</time>
      </trkpt>
      <trkpt lat="37.50564" lon="27.53564">
        <ele>104.709</ele>
        <time>2020-12-13T06:40:32Z</time>
      </trkpt>
      <trkpt lat="37.50564" lon="27.53564">
        <ele>104.709</ele>
        <time>2020-12-13T06:40:33Z</time>
      </trkpt>
      <trkpt lat="37.50568" lon="27.53579">
        <ele>103.5</ele>
        <time>2020-12-13T06:40:34Z</time>
      </trkpt>
      <trkpt lat="37.50568" lon="27.53581">
        <ele>103.334</ele>
        <time>2020-12-13T06:40:35Z</time>
      </trkpt>
      <trkpt lat="37.50568" lon="27.53583">
        <ele>103.152</ele>
        <time>2020-12-13T06:40:36Z</time>
      </trkpt>
      <trkpt lat="37.50568" lon="27.53585">
        <ele>102.938</ele>
        <time>2020-12-13T06:40:37Z</time>
      </trkpt>
      <trkpt lat="37.50568" lon="27.53586">
        <ele>102.693</ele>
        <time>2020-12-13T06:40:38Z</time>
      </trkpt>
      <trkpt lat="37.50567" lon="27.53591">
        <ele>102.263</ele>
        <time>2020-12-13T06:40:39Z</time>
      </trkpt>
      <trkpt lat="37.50567" lon="27.53592">
        <ele>102.107</ele>
        <time>2020-12-13T06:40:40Z</time>
      </trkpt>
      <trkpt lat="37.50566" lon="27.53594">
        <ele>101.957</ele>
        <time>2020-12-13T06:40:41Z</time>
      </trkpt>
      <trkpt lat="37.50565" lon="27.53597">
        <ele>101.697</ele>
        <time>2020-12-13T06:40:42Z</time>
      </trkpt>
      <trkpt lat="37.50565" lon="27.53597">
        <ele>101.697</ele>
        <time>2020-12-13T06:40:43Z</time>
      </trkpt>
      <trkpt lat="37.50564" lon="27.53601">
        <ele>101.35</ele>
        <time>2020-12-13T06:40:44Z</time>
      </trkpt>
      <trkpt lat="37.50564" lon="27.53603">
        <ele>101.106</ele>
        <time>2020-12-13T06:40:45Z</time>
      </trkpt>
      <trkpt lat="37.50564" lon="27.53606">
        <ele>100.786</ele>
        <time>2020-12-13T06:40:46Z</time>
      </trkpt>
      <trkpt lat="37.50563" lon="27.53608">
        <ele>100.508</ele>
        <time>2020-12-13T06:40:47Z</time>
      </trkpt>
      <trkpt lat="37.50563" lon="27.53611">
        <ele>100.267</ele>
        <time>2020-12-13T06:40:48Z</time>
      </trkpt>
      <trkpt lat="37.50562" lon="27.53613">
        <ele>100.003</ele>
        <time>2020-12-13T06:40:49Z</time>
      </trkpt>
      <trkpt lat="37.50562" lon="27.53613">
        <ele>100.003</ele>
        <time>2020-12-13T06:40:50Z</time>
      </trkpt>
      <trkpt lat="37.50563" lon="27.53616">
        <ele>99.563</ele>
        <time>2020-12-13T06:40:51Z</time>
      </trkpt>
      <trkpt lat="37.50563" lon="27.53616">
        <ele>99.563</ele>
        <time>2020-12-13T06:40:52Z</time>
      </trkpt>
      <trkpt lat="37.50563" lon="27.53616">
        <ele>99.563</ele>
        <time>2020-12-13T06:40:53Z</time>
      </trkpt>
      <trkpt lat="37.50563" lon="27.53616">
        <ele>99.563</ele>
        <time>2020-12-13T06:40:54Z</time>
      </trkpt>
      <trkpt lat="37.50563" lon="27.53616">
        <ele>99.563</ele>
        <time>2020-12-13T06:40:55Z</time>
      </trkpt>
      <trkpt lat="37.50563" lon="27.53616">
        <ele>99.563</ele>
        <time>2020-12-13T06:40:56Z</time>
      </trkpt>
      <trkpt lat="37.50561" lon="27.53619">
        <ele>99.219</ele>
        <time>2020-12-13T06:40:57Z</time>
      </trkpt>
      <trkpt lat="37.50561" lon="27.53619">
        <ele>99.219</ele>
        <time>2020-12-13T06:40:58Z</time>
      </trkpt>
      <trkpt lat="37.50561" lon="27.53619">
        <ele>99.219</ele>
        <time>2020-12-13T06:40:59Z</time>
      </trkpt>
      <trkpt lat="37.5056" lon="27.53621">
        <ele>99.132</ele>
        <time>2020-12-13T06:41:00Z</time>
      </trkpt>
      <trkpt lat="37.5056" lon="27.53621">
        <ele>99.132</ele>
        <time>2020-12-13T06:41:01Z</time>
      </trkpt>
      <trkpt lat="37.50559" lon="27.53624">
        <ele>98.716</ele>
        <time>2020-12-13T06:41:02Z</time>
      </trkpt>
      <trkpt lat="37.50559" lon="27.53624">
        <ele>98.716</ele>
        <time>2020-12-13T06:41:03Z</time>
      </trkpt>
      <trkpt lat="37.5056" lon="27.53627">
        <ele>98.044</ele>
        <time>2020-12-13T06:41:04Z</time>
      </trkpt>
      <trkpt lat="37.50561" lon="27.5363">
        <ele>97.52</ele>
        <time>2020-12-13T06:41:05Z</time>
      </trkpt>
      <trkpt lat="37.50561" lon="27.5363">
        <ele>97.52</ele>
        <time>2020-12-13T06:41:06Z</time>
      </trkpt>
      <trkpt lat="37.50561" lon="27.5363">
        <ele>97.52</ele>
        <time>2020-12-13T06:41:07Z</time>
      </trkpt>
      <trkpt lat="37.50561" lon="27.5363">
        <ele>97.52</ele>
        <time>2020-12-13T06:41:08Z</time>
      </trkpt>
      <trkpt lat="37.50561" lon="27.5363">
        <ele>97.52</ele>
        <time>2020-12-13T06:41:09Z</time>
      </trkpt>
      <trkpt lat="37.50559" lon="27.53632">
        <ele>97.412</ele>
        <time>2020-12-13T06:41:10Z</time>
      </trkpt>
      <trkpt lat="37.50557" lon="27.53635">
        <ele>97.333</ele>
        <time>2020-12-13T06:41:11Z</time>
      </trkpt>
      <trkpt lat="37.50556" lon="27.53637">
        <ele>97.254</ele>
        <time>2020-12-13T06:41:12Z</time>
      </trkpt>
      <trkpt lat="37.50554" lon="27.5364">
        <ele>97.243</ele>
        <time>2020-12-13T06:41:13Z</time>
      </trkpt>
      <trkpt lat="37.50552" lon="27.53642">
        <ele>97.167</ele>
        <time>2020-12-13T06:41:14Z</time>
      </trkpt>
      <trkpt lat="37.5055" lon="27.53644">
        <ele>97.122</ele>
        <time>2020-12-13T06:41:15Z</time>
      </trkpt>
      <trkpt lat="37.50548" lon="27.53647">
        <ele>97.068</ele>
        <time>2020-12-13T06:41:16Z</time>
      </trkpt>
      <trkpt lat="37.50545" lon="27.53648">
        <ele>97.412</ele>
        <time>2020-12-13T06:41:17Z</time>
      </trkpt>
      <trkpt lat="37.50545" lon="27.53648">
        <ele>97.461</ele>
        <time>2020-12-13T06:41:18Z</time>
      </trkpt>
      <trkpt lat="37.50544" lon="27.53648">
        <ele>97.511</ele>
        <time>2020-12-13T06:41:19Z</time>
      </trkpt>
      <trkpt lat="37.50544" lon="27.53648">
        <ele>97.511</ele>
        <time>2020-12-13T06:41:20Z</time>
      </trkpt>
      <trkpt lat="37.50544" lon="27.53648">
        <ele>97.511</ele>
        <time>2020-12-13T06:41:21Z</time>
      </trkpt>
      <trkpt lat="37.50544" lon="27.53648">
        <ele>97.511</ele>
        <time>2020-12-13T06:41:22Z</time>
      </trkpt>
      <trkpt lat="37.50544" lon="27.53648">
        <ele>97.511</ele>
        <time>2020-12-13T06:41:23Z</time>
      </trkpt>
      <trkpt lat="37.50543" lon="27.5365">
        <ele>97.496</ele>
        <time>2020-12-13T06:41:24Z</time>
      </trkpt>
      <trkpt lat="37.50542" lon="27.53652">
        <ele>97.451</ele>
        <time>2020-12-13T06:41:25Z</time>
      </trkpt>
      <trkpt lat="37.50541" lon="27.53653">
        <ele>97.446</ele>
        <time>2020-12-13T06:41:26Z</time>
      </trkpt>
      <trkpt lat="37.50539" lon="27.53655">
        <ele>97.445</ele>
        <time>2020-12-13T06:41:27Z</time>
      </trkpt>
      <trkpt lat="37.50538" lon="27.53656">
        <ele>97.414</ele>
        <time>2020-12-13T06:41:28Z</time>
      </trkpt>
      <trkpt lat="37.50537" lon="27.53658">
        <ele>97.423</ele>
        <time>2020-12-13T06:41:29Z</time>
      </trkpt>
      <trkpt lat="37.50537" lon="27.53658">
        <ele>97.423</ele>
        <time>2020-12-13T06:41:30Z</time>
      </trkpt>
      <trkpt lat="37.50535" lon="27.53661">
        <ele>97.433</ele>
        <time>2020-12-13T06:41:31Z</time>
      </trkpt>
      <trkpt lat="37.50535" lon="27.53661">
        <ele>97.433</ele>
        <time>2020-12-13T06:41:32Z</time>
      </trkpt>
      <trkpt lat="37.50535" lon="27.53663">
        <ele>97.024</ele>
        <time>2020-12-13T06:41:33Z</time>
      </trkpt>
      <trkpt lat="37.50535" lon="27.53663">
        <ele>97.024</ele>
        <time>2020-12-13T06:41:34Z</time>
      </trkpt>
      <trkpt lat="37.50537" lon="27.53663">
        <ele>96.523</ele>
        <time>2020-12-13T06:41:35Z</time>
      </trkpt>
      <trkpt lat="37.50537" lon="27.53663">
        <ele>96.523</ele>
        <time>2020-12-13T06:41:36Z</time>
      </trkpt>
      <trkpt lat="37.5054" lon="27.53665">
        <ele>95.765</ele>
        <time>2020-12-13T06:41:37Z</time>
      </trkpt>
      <trkpt lat="37.5054" lon="27.53665">
        <ele>95.765</ele>
        <time>2020-12-13T06:41:38Z</time>
      </trkpt>
      <trkpt lat="37.50542" lon="27.53665">
        <ele>95.176</ele>
        <time>2020-12-13T06:41:39Z</time>
      </trkpt>
      <trkpt lat="37.50542" lon="27.53665">
        <ele>95.176</ele>
        <time>2020-12-13T06:41:40Z</time>
      </trkpt>
      <trkpt lat="37.50544" lon="27.53666">
        <ele>94.569</ele>
        <time>2020-12-13T06:41:41Z</time>
      </trkpt>
      <trkpt lat="37.50544" lon="27.53666">
        <ele>94.569</ele>
        <time>2020-12-13T06:41:42Z</time>
      </trkpt>
      <trkpt lat="37.50547" lon="27.53665">
        <ele>94.173</ele>
        <time>2020-12-13T06:41:43Z</time>
      </trkpt>
      <trkpt lat="37.50549" lon="27.53664">
        <ele>93.941</ele>
        <time>2020-12-13T06:41:44Z</time>
      </trkpt>
      <trkpt lat="37.5055" lon="27.53664">
        <ele>93.663</ele>
        <time>2020-12-13T06:41:45Z</time>
      </trkpt>
      <trkpt lat="37.50552" lon="27.53664">
        <ele>93.281</ele>
        <time>2020-12-13T06:41:46Z</time>
      </trkpt>
      <trkpt lat="37.50554" lon="27.53664">
        <ele>92.757</ele>
        <time>2020-12-13T06:41:47Z</time>
      </trkpt>
      <trkpt lat="37.50556" lon="27.53666">
        <ele>92.033</ele>
        <time>2020-12-13T06:41:48Z</time>
      </trkpt>
      <trkpt lat="37.50557" lon="27.5367">
        <ele>91.325</ele>
        <time>2020-12-13T06:41:49Z</time>
      </trkpt>
      <trkpt lat="37.50557" lon="27.53674">
        <ele>90.868</ele>
        <time>2020-12-13T06:41:50Z</time>
      </trkpt>
      <trkpt lat="37.50557" lon="27.53676">
        <ele>90.5</ele>
        <time>2020-12-13T06:41:51Z</time>
      </trkpt>
      <trkpt lat="37.50556" lon="27.53678">
        <ele>90.335</ele>
        <time>2020-12-13T06:41:52Z</time>
      </trkpt>
      <trkpt lat="37.50556" lon="27.53678">
        <ele>90.335</ele>
        <time>2020-12-13T06:41:53Z</time>
      </trkpt>
      <trkpt lat="37.50554" lon="27.5368">
        <ele>90.502</ele>
        <time>2020-12-13T06:41:54Z</time>
      </trkpt>
      <trkpt lat="37.50554" lon="27.5368">
        <ele>90.502</ele>
        <time>2020-12-13T06:41:55Z</time>
      </trkpt>
      <trkpt lat="37.50554" lon="27.5368">
        <ele>90.502</ele>
        <time>2020-12-13T06:41:56Z</time>
      </trkpt>
      <trkpt lat="37.50552" lon="27.53682">
        <ele>90.475</ele>
        <time>2020-12-13T06:41:57Z</time>
      </trkpt>
      <trkpt lat="37.50552" lon="27.53682">
        <ele>90.475</ele>
        <time>2020-12-13T06:41:58Z</time>
      </trkpt>
      <trkpt lat="37.50554" lon="27.53686">
        <ele>89.542</ele>
        <time>2020-12-13T06:41:59Z</time>
      </trkpt>
      <trkpt lat="37.50555" lon="27.53688">
        <ele>89.07</ele>
        <time>2020-12-13T06:42:00Z</time>
      </trkpt>
      <trkpt lat="37.50555" lon="27.53688">
        <ele>89.07</ele>
        <time>2020-12-13T06:42:01Z</time>
      </trkpt>
      <trkpt lat="37.50554" lon="27.53692">
        <ele>88.655</ele>
        <time>2020-12-13T06:42:02Z</time>
      </trkpt>
      <trkpt lat="37.50554" lon="27.53692">
        <ele>88.655</ele>
        <time>2020-12-13T06:42:03Z</time>
      </trkpt>
      <trkpt lat="37.50554" lon="27.53694">
        <ele>88.303</ele>
        <time>2020-12-13T06:42:04Z</time>
      </trkpt>
      <trkpt lat="37.50554" lon="27.53694">
        <ele>88.303</ele>
        <time>2020-12-13T06:42:05Z</time>
      </trkpt>
      <trkpt lat="37.50555" lon="27.53699">
        <ele>87.6</ele>
        <time>2020-12-13T06:42:06Z</time>
      </trkpt>
      <trkpt lat="37.50555" lon="27.53701">
        <ele>87.099</ele>
        <time>2020-12-13T06:42:07Z</time>
      </trkpt>
      <trkpt lat="37.50556" lon="27.53704">
        <ele>86.636</ele>
        <time>2020-12-13T06:42:08Z</time>
      </trkpt>
      <trkpt lat="37.50556" lon="27.53704">
        <ele>86.636</ele>
        <time>2020-12-13T06:42:09Z</time>
      </trkpt>
      <trkpt lat="37.50555" lon="27.53709">
        <ele>85.944</ele>
        <time>2020-12-13T06:42:10Z</time>
      </trkpt>
      <trkpt lat="37.50555" lon="27.53712">
        <ele>85.558</ele>
        <time>2020-12-13T06:42:11Z</time>
      </trkpt>
      <trkpt lat="37.50555" lon="27.53715">
        <ele>85.212</ele>
        <time>2020-12-13T06:42:12Z</time>
      </trkpt>
      <trkpt lat="37.50555" lon="27.53719">
        <ele>84.604</ele>
        <time>2020-12-13T06:42:13Z</time>
      </trkpt>
      <trkpt lat="37.50555" lon="27.5372">
        <ele>84.416</ele>
        <time>2020-12-13T06:42:14Z</time>
      </trkpt>
      <trkpt lat="37.50554" lon="27.53723">
        <ele>84.051</ele>
        <time>2020-12-13T06:42:15Z</time>
      </trkpt>
      <trkpt lat="37.50554" lon="27.53726">
        <ele>83.689</ele>
        <time>2020-12-13T06:42:16Z</time>
      </trkpt>
      <trkpt lat="37.50553" lon="27.53729">
        <ele>83.384</ele>
        <time>2020-12-13T06:42:17Z</time>
      </trkpt>
      <trkpt lat="37.50553" lon="27.53729">
        <ele>83.384</ele>
        <time>2020-12-13T06:42:18Z</time>
      </trkpt>
      <trkpt lat="37.50554" lon="27.53732">
        <ele>82.788</ele>
        <time>2020-12-13T06:42:19Z</time>
      </trkpt>
      <trkpt lat="37.50554" lon="27.53732">
        <ele>82.788</ele>
        <time>2020-12-13T06:42:20Z</time>
      </trkpt>
      <trkpt lat="37.50556" lon="27.53734">
        <ele>82.317</ele>
        <time>2020-12-13T06:42:21Z</time>
      </trkpt>
      <trkpt lat="37.50556" lon="27.53734">
        <ele>82.317</ele>
        <time>2020-12-13T06:42:22Z</time>
      </trkpt>
      <trkpt lat="37.50556" lon="27.53737">
        <ele>81.901</ele>
        <time>2020-12-13T06:42:23Z</time>
      </trkpt>
      <trkpt lat="37.50556" lon="27.53737">
        <ele>81.901</ele>
        <time>2020-12-13T06:42:24Z</time>
      </trkpt>
      <trkpt lat="37.50554" lon="27.53739">
        <ele>81.72</ele>
        <time>2020-12-13T06:42:25Z</time>
      </trkpt>
      <trkpt lat="37.50554" lon="27.53739">
        <ele>81.72</ele>
        <time>2020-12-13T06:42:26Z</time>
      </trkpt>
      <trkpt lat="37.50554" lon="27.53739">
        <ele>81.72</ele>
        <time>2020-12-13T06:42:27Z</time>
      </trkpt>
      <trkpt lat="37.50554" lon="27.53739">
        <ele>81.72</ele>
        <time>2020-12-13T06:42:28Z</time>
      </trkpt>
      <trkpt lat="37.50552" lon="27.5374">
        <ele>81.687</ele>
        <time>2020-12-13T06:42:29Z</time>
      </trkpt>
      <trkpt lat="37.50552" lon="27.5374">
        <ele>81.687</ele>
        <time>2020-12-13T06:42:30Z</time>
      </trkpt>
      <trkpt lat="37.5055" lon="27.53742">
        <ele>81.711</ele>
        <time>2020-12-13T06:42:31Z</time>
      </trkpt>
      <trkpt lat="37.5055" lon="27.53742">
        <ele>81.711</ele>
        <time>2020-12-13T06:42:32Z</time>
      </trkpt>
      <trkpt lat="37.50547" lon="27.53741">
        <ele>82.126</ele>
        <time>2020-12-13T06:42:33Z</time>
      </trkpt>
      <trkpt lat="37.50547" lon="27.53741">
        <ele>82.126</ele>
        <time>2020-12-13T06:42:34Z</time>
      </trkpt>
      <trkpt lat="37.50547" lon="27.53741">
        <ele>82.126</ele>
        <time>2020-12-13T06:42:35Z</time>
      </trkpt>
      <trkpt lat="37.50547" lon="27.53741">
        <ele>82.126</ele>
        <time>2020-12-13T06:42:36Z</time>
      </trkpt>
      <trkpt lat="37.50547" lon="27.53741">
        <ele>82.126</ele>
        <time>2020-12-13T06:42:37Z</time>
      </trkpt>
      <trkpt lat="37.50547" lon="27.53741">
        <ele>82.126</ele>
        <time>2020-12-13T06:42:38Z</time>
      </trkpt>
      <trkpt lat="37.50549" lon="27.53743">
        <ele>81.647</ele>
        <time>2020-12-13T06:42:39Z</time>
      </trkpt>
      <trkpt lat="37.50549" lon="27.53743">
        <ele>81.647</ele>
        <time>2020-12-13T06:42:40Z</time>
      </trkpt>
      <trkpt lat="37.50549" lon="27.53746">
        <ele>81.149</ele>
        <time>2020-12-13T06:42:41Z</time>
      </trkpt>
      <trkpt lat="37.50549" lon="27.53746">
        <ele>81.149</ele>
        <time>2020-12-13T06:42:42Z</time>
      </trkpt>
      <trkpt lat="37.50548" lon="27.5375">
        <ele>80.605</ele>
        <time>2020-12-13T06:42:43Z</time>
      </trkpt>
      <trkpt lat="37.50548" lon="27.5375">
        <ele>80.605</ele>
        <time>2020-12-13T06:42:44Z</time>
      </trkpt>
      <trkpt lat="37.50551" lon="27.53753">
        <ele>80.177</ele>
        <time>2020-12-13T06:42:45Z</time>
      </trkpt>
      <trkpt lat="37.50552" lon="27.53754">
        <ele>79.975</ele>
        <time>2020-12-13T06:42:46Z</time>
      </trkpt>
      <trkpt lat="37.50552" lon="27.53754">
        <ele>79.975</ele>
        <time>2020-12-13T06:42:47Z</time>
      </trkpt>
      <trkpt lat="37.50555" lon="27.53756">
        <ele>79.658</ele>
        <time>2020-12-13T06:42:48Z</time>
      </trkpt>
      <trkpt lat="37.50555" lon="27.53756">
        <ele>79.658</ele>
        <time>2020-12-13T06:42:49Z</time>
      </trkpt>
      <trkpt lat="37.50557" lon="27.53758">
        <ele>79.5</ele>
        <time>2020-12-13T06:42:50Z</time>
      </trkpt>
      <trkpt lat="37.50557" lon="27.53758">
        <ele>79.5</ele>
        <time>2020-12-13T06:42:51Z</time>
      </trkpt>
      <trkpt lat="37.50557" lon="27.53758">
        <ele>79.5</ele>
        <time>2020-12-13T06:42:52Z</time>
      </trkpt>
      <trkpt lat="37.50557" lon="27.53758">
        <ele>79.5</ele>
        <time>2020-12-13T06:42:53Z</time>
      </trkpt>
      <trkpt lat="37.50559" lon="27.53757">
        <ele>79.667</ele>
        <time>2020-12-13T06:42:54Z</time>
      </trkpt>
      <trkpt lat="37.50559" lon="27.53757">
        <ele>79.667</ele>
        <time>2020-12-13T06:42:55Z</time>
      </trkpt>
      <trkpt lat="37.50562" lon="27.53757">
        <ele>79.828</ele>
        <time>2020-12-13T06:42:56Z</time>
      </trkpt>
      <trkpt lat="37.50562" lon="27.53757">
        <ele>79.828</ele>
        <time>2020-12-13T06:42:57Z</time>
      </trkpt>
      <trkpt lat="37.50566" lon="27.53757">
        <ele>79.934</ele>
        <time>2020-12-13T06:42:58Z</time>
      </trkpt>
      <trkpt lat="37.50568" lon="27.53758">
        <ele>79.992</ele>
        <time>2020-12-13T06:42:59Z</time>
      </trkpt>
      <trkpt lat="37.5057" lon="27.5376">
        <ele>79.979</ele>
        <time>2020-12-13T06:43:00Z</time>
      </trkpt>
      <trkpt lat="37.5057" lon="27.5376">
        <ele>79.979</ele>
        <time>2020-12-13T06:43:01Z</time>
      </trkpt>
      <trkpt lat="37.5057" lon="27.5376">
        <ele>79.979</ele>
        <time>2020-12-13T06:43:02Z</time>
      </trkpt>
      <trkpt lat="37.50574" lon="27.5376">
        <ele>80.149</ele>
        <time>2020-12-13T06:43:03Z</time>
      </trkpt>
      <trkpt lat="37.50576" lon="27.53761">
        <ele>80.233</ele>
        <time>2020-12-13T06:43:04Z</time>
      </trkpt>
      <trkpt lat="37.50578" lon="27.53763">
        <ele>80.288</ele>
        <time>2020-12-13T06:43:05Z</time>
      </trkpt>
      <trkpt lat="37.50579" lon="27.53763">
        <ele>80.281</ele>
        <time>2020-12-13T06:43:06Z</time>
      </trkpt>
      <trkpt lat="37.5058" lon="27.53764">
        <ele>80.28</ele>
        <time>2020-12-13T06:43:07Z</time>
      </trkpt>
      <trkpt lat="37.5058" lon="27.53766">
        <ele>80.245</ele>
        <time>2020-12-13T06:43:08Z</time>
      </trkpt>
      <trkpt lat="37.5058" lon="27.53766">
        <ele>80.245</ele>
        <time>2020-12-13T06:43:09Z</time>
      </trkpt>
      <trkpt lat="37.50582" lon="27.53769">
        <ele>80.226</ele>
        <time>2020-12-13T06:43:10Z</time>
      </trkpt>
      <trkpt lat="37.50583" lon="27.53772">
        <ele>80.172</ele>
        <time>2020-12-13T06:43:11Z</time>
      </trkpt>
      <trkpt lat="37.50583" lon="27.53772">
        <ele>80.172</ele>
        <time>2020-12-13T06:43:12Z</time>
      </trkpt>
      <trkpt lat="37.50583" lon="27.53775">
        <ele>80.102</ele>
        <time>2020-12-13T06:43:13Z</time>
      </trkpt>
      <trkpt lat="37.50583" lon="27.53775">
        <ele>80.102</ele>
        <time>2020-12-13T06:43:14Z</time>
      </trkpt>
      <trkpt lat="37.50583" lon="27.53778">
        <ele>80.004</ele>
        <time>2020-12-13T06:43:15Z</time>
      </trkpt>
      <trkpt lat="37.50583" lon="27.53778">
        <ele>80.004</ele>
        <time>2020-12-13T06:43:16Z</time>
      </trkpt>
      <trkpt lat="37.50583" lon="27.53781">
        <ele>80.208</ele>
        <time>2020-12-13T06:43:17Z</time>
      </trkpt>
      <trkpt lat="37.50583" lon="27.53781">
        <ele>80.208</ele>
        <time>2020-12-13T06:43:18Z</time>
      </trkpt>
      <trkpt lat="37.50583" lon="27.53781">
        <ele>80.208</ele>
        <time>2020-12-13T06:43:19Z</time>
      </trkpt>
      <trkpt lat="37.50583" lon="27.53781">
        <ele>80.208</ele>
        <time>2020-12-13T06:43:20Z</time>
      </trkpt>
      <trkpt lat="37.50583" lon="27.53781">
        <ele>80.208</ele>
        <time>2020-12-13T06:43:21Z</time>
      </trkpt>
      <trkpt lat="37.50583" lon="27.53781">
        <ele>80.208</ele>
        <time>2020-12-13T06:43:22Z</time>
      </trkpt>
      <trkpt lat="37.50583" lon="27.53781">
        <ele>80.208</ele>
        <time>2020-12-13T06:43:23Z</time>
      </trkpt>
      <trkpt lat="37.50584" lon="27.53783">
        <ele>80.49</ele>
        <time>2020-12-13T06:43:24Z</time>
      </trkpt>
      <trkpt lat="37.50584" lon="27.53783">
        <ele>80.49</ele>
        <time>2020-12-13T06:43:25Z</time>
      </trkpt>
      <trkpt lat="37.50584" lon="27.53783">
        <ele>80.49</ele>
        <time>2020-12-13T06:43:26Z</time>
      </trkpt>
      <trkpt lat="37.50585" lon="27.53785">
        <ele>80.777</ele>
        <time>2020-12-13T06:43:27Z</time>
      </trkpt>
      <trkpt lat="37.50585" lon="27.53785">
        <ele>80.777</ele>
        <time>2020-12-13T06:43:28Z</time>
      </trkpt>
      <trkpt lat="37.50585" lon="27.53785">
        <ele>80.777</ele>
        <time>2020-12-13T06:43:29Z</time>
      </trkpt>
      <trkpt lat="37.50585" lon="27.53788">
        <ele>80.937</ele>
        <time>2020-12-13T06:43:30Z</time>
      </trkpt>
      <trkpt lat="37.50585" lon="27.53788">
        <ele>80.937</ele>
        <time>2020-12-13T06:43:31Z</time>
      </trkpt>
      <trkpt lat="37.50585" lon="27.53788">
        <ele>80.937</ele>
        <time>2020-12-13T06:43:32Z</time>
      </trkpt>
      <trkpt lat="37.50584" lon="27.53791">
        <ele>81.066</ele>
        <time>2020-12-13T06:43:33Z</time>
      </trkpt>
      <trkpt lat="37.50584" lon="27.53791">
        <ele>81.066</ele>
        <time>2020-12-13T06:43:34Z</time>
      </trkpt>
      <trkpt lat="37.50583" lon="27.53794">
        <ele>81.165</ele>
        <time>2020-12-13T06:43:35Z</time>
      </trkpt>
      <trkpt lat="37.50583" lon="27.53794">
        <ele>81.165</ele>
        <time>2020-12-13T06:43:36Z</time>
      </trkpt>
      <trkpt lat="37.50582" lon="27.53797">
        <ele>81.339</ele>
        <time>2020-12-13T06:43:37Z</time>
      </trkpt>
      <trkpt lat="37.50582" lon="27.53797">
        <ele>81.339</ele>
        <time>2020-12-13T06:43:38Z</time>
      </trkpt>
      <trkpt lat="37.50581" lon="27.53801">
        <ele>81.518</ele>
        <time>2020-12-13T06:43:39Z</time>
      </trkpt>
      <trkpt lat="37.50581" lon="27.53801">
        <ele>81.518</ele>
        <time>2020-12-13T06:43:40Z</time>
      </trkpt>
      <trkpt lat="37.50581" lon="27.53803">
        <ele>81.648</ele>
        <time>2020-12-13T06:43:41Z</time>
      </trkpt>
      <trkpt lat="37.50581" lon="27.53803">
        <ele>81.648</ele>
        <time>2020-12-13T06:43:42Z</time>
      </trkpt>
      <trkpt lat="37.50581" lon="27.53806">
        <ele>81.915</ele>
        <time>2020-12-13T06:43:43Z</time>
      </trkpt>
      <trkpt lat="37.50581" lon="27.53806">
        <ele>81.915</ele>
        <time>2020-12-13T06:43:44Z</time>
      </trkpt>
      <trkpt lat="37.50581" lon="27.5381">
        <ele>82.677</ele>
        <time>2020-12-13T06:43:45Z</time>
      </trkpt>
      <trkpt lat="37.50581" lon="27.5381">
        <ele>82.677</ele>
        <time>2020-12-13T06:43:46Z</time>
      </trkpt>
      <trkpt lat="37.50581" lon="27.53812">
        <ele>83.326</ele>
        <time>2020-12-13T06:43:47Z</time>
      </trkpt>
      <trkpt lat="37.50581" lon="27.53812">
        <ele>83.326</ele>
        <time>2020-12-13T06:43:48Z</time>
      </trkpt>
      <trkpt lat="37.50583" lon="27.53814">
        <ele>83.794</ele>
        <time>2020-12-13T06:43:49Z</time>
      </trkpt>
      <trkpt lat="37.50583" lon="27.53814">
        <ele>83.794</ele>
        <time>2020-12-13T06:43:50Z</time>
      </trkpt>
      <trkpt lat="37.50583" lon="27.53814">
        <ele>83.794</ele>
        <time>2020-12-13T06:43:51Z</time>
      </trkpt>
      <trkpt lat="37.50584" lon="27.53815">
        <ele>84.189</ele>
        <time>2020-12-13T06:43:52Z</time>
      </trkpt>
      <trkpt lat="37.50584" lon="27.53815">
        <ele>84.189</ele>
        <time>2020-12-13T06:43:53Z</time>
      </trkpt>
      <trkpt lat="37.50587" lon="27.53815">
        <ele>84.431</ele>
        <time>2020-12-13T06:43:54Z</time>
      </trkpt>
      <trkpt lat="37.50587" lon="27.53815">
        <ele>84.431</ele>
        <time>2020-12-13T06:43:55Z</time>
      </trkpt>
      <trkpt lat="37.50588" lon="27.53816">
        <ele>84.91</ele>
        <time>2020-12-13T06:43:56Z</time>
      </trkpt>
      <trkpt lat="37.50588" lon="27.53816">
        <ele>84.91</ele>
        <time>2020-12-13T06:43:57Z</time>
      </trkpt>
      <trkpt lat="37.5059" lon="27.53818">
        <ele>85.507</ele>
        <time>2020-12-13T06:43:58Z</time>
      </trkpt>
      <trkpt lat="37.5059" lon="27.53818">
        <ele>85.507</ele>
        <time>2020-12-13T06:43:59Z</time>
      </trkpt>
      <trkpt lat="37.50591" lon="27.5382">
        <ele>86.005</ele>
        <time>2020-12-13T06:44:00Z</time>
      </trkpt>
      <trkpt lat="37.50591" lon="27.5382">
        <ele>86.005</ele>
        <time>2020-12-13T06:44:01Z</time>
      </trkpt>
      <trkpt lat="37.50592" lon="27.53823">
        <ele>86.535</ele>
        <time>2020-12-13T06:44:02Z</time>
      </trkpt>
      <trkpt lat="37.50592" lon="27.53823">
        <ele>86.535</ele>
        <time>2020-12-13T06:44:03Z</time>
      </trkpt>
      <trkpt lat="37.50592" lon="27.53825">
        <ele>87.127</ele>
        <time>2020-12-13T06:44:04Z</time>
      </trkpt>
      <trkpt lat="37.50592" lon="27.53825">
        <ele>87.127</ele>
        <time>2020-12-13T06:44:05Z</time>
      </trkpt>
      <trkpt lat="37.50593" lon="27.53828">
        <ele>87.61</ele>
        <time>2020-12-13T06:44:06Z</time>
      </trkpt>
      <trkpt lat="37.50593" lon="27.53828">
        <ele>87.61</ele>
        <time>2020-12-13T06:44:07Z</time>
      </trkpt>
      <trkpt lat="37.50594" lon="27.5383">
        <ele>88.118</ele>
        <time>2020-12-13T06:44:08Z</time>
      </trkpt>
      <trkpt lat="37.50594" lon="27.5383">
        <ele>88.118</ele>
        <time>2020-12-13T06:44:09Z</time>
      </trkpt>
      <trkpt lat="37.50594" lon="27.5383">
        <ele>88.118</ele>
        <time>2020-12-13T06:44:10Z</time>
      </trkpt>
      <trkpt lat="37.50595" lon="27.53833">
        <ele>88.779</ele>
        <time>2020-12-13T06:44:11Z</time>
      </trkpt>
      <trkpt lat="37.50595" lon="27.53833">
        <ele>88.779</ele>
        <time>2020-12-13T06:44:12Z</time>
      </trkpt>
      <trkpt lat="37.50595" lon="27.53833">
        <ele>88.779</ele>
        <time>2020-12-13T06:44:13Z</time>
      </trkpt>
      <trkpt lat="37.50595" lon="27.53833">
        <ele>88.779</ele>
        <time>2020-12-13T06:44:14Z</time>
      </trkpt>
      <trkpt lat="37.50596" lon="27.53836">
        <ele>89.499</ele>
        <time>2020-12-13T06:44:15Z</time>
      </trkpt>
      <trkpt lat="37.50596" lon="27.53836">
        <ele>89.499</ele>
        <time>2020-12-13T06:44:16Z</time>
      </trkpt>
      <trkpt lat="37.50596" lon="27.53836">
        <ele>89.499</ele>
        <time>2020-12-13T06:44:17Z</time>
      </trkpt>
      <trkpt lat="37.50598" lon="27.53836">
        <ele>89.691</ele>
        <time>2020-12-13T06:44:18Z</time>
      </trkpt>
      <trkpt lat="37.50598" lon="27.53836">
        <ele>89.691</ele>
        <time>2020-12-13T06:44:19Z</time>
      </trkpt>
      <trkpt lat="37.50598" lon="27.53836">
        <ele>89.691</ele>
        <time>2020-12-13T06:44:20Z</time>
      </trkpt>
      <trkpt lat="37.506" lon="27.53837">
        <ele>90.189</ele>
        <time>2020-12-13T06:44:21Z</time>
      </trkpt>
      <trkpt lat="37.506" lon="27.53837">
        <ele>90.189</ele>
        <time>2020-12-13T06:44:22Z</time>
      </trkpt>
      <trkpt lat="37.506" lon="27.53837">
        <ele>90.189</ele>
        <time>2020-12-13T06:44:23Z</time>
      </trkpt>
      <trkpt lat="37.50602" lon="27.53838">
        <ele>90.609</ele>
        <time>2020-12-13T06:44:24Z</time>
      </trkpt>
      <trkpt lat="37.50602" lon="27.53838">
        <ele>90.609</ele>
        <time>2020-12-13T06:44:25Z</time>
      </trkpt>
      <trkpt lat="37.50604" lon="27.53838">
        <ele>90.76</ele>
        <time>2020-12-13T06:44:26Z</time>
      </trkpt>
      <trkpt lat="37.50604" lon="27.53838">
        <ele>90.76</ele>
        <time>2020-12-13T06:44:27Z</time>
      </trkpt>
      <trkpt lat="37.50604" lon="27.53838">
        <ele>90.76</ele>
        <time>2020-12-13T06:44:28Z</time>
      </trkpt>
      <trkpt lat="37.50604" lon="27.53838">
        <ele>90.76</ele>
        <time>2020-12-13T06:44:29Z</time>
      </trkpt>
      <trkpt lat="37.50604" lon="27.53838">
        <ele>90.76</ele>
        <time>2020-12-13T06:44:30Z</time>
      </trkpt>
      <trkpt lat="37.50606" lon="27.53838">
        <ele>90.924</ele>
        <time>2020-12-13T06:44:31Z</time>
      </trkpt>
      <trkpt lat="37.50606" lon="27.53838">
        <ele>90.924</ele>
        <time>2020-12-13T06:44:32Z</time>
      </trkpt>
      <trkpt lat="37.50607" lon="27.53841">
        <ele>91.567</ele>
        <time>2020-12-13T06:44:33Z</time>
      </trkpt>
      <trkpt lat="37.50607" lon="27.53841">
        <ele>91.567</ele>
        <time>2020-12-13T06:44:34Z</time>
      </trkpt>
      <trkpt lat="37.50608" lon="27.53843">
        <ele>92.298</ele>
        <time>2020-12-13T06:44:35Z</time>
      </trkpt>
      <trkpt lat="37.50608" lon="27.53843">
        <ele>92.298</ele>
        <time>2020-12-13T06:44:36Z</time>
      </trkpt>
      <trkpt lat="37.50605" lon="27.53846">
        <ele>92.874</ele>
        <time>2020-12-13T06:44:37Z</time>
      </trkpt>
      <trkpt lat="37.50605" lon="27.53846">
        <ele>92.874</ele>
        <time>2020-12-13T06:44:38Z</time>
      </trkpt>
      <trkpt lat="37.50603" lon="27.53848">
        <ele>93.23</ele>
        <time>2020-12-13T06:44:39Z</time>
      </trkpt>
      <trkpt lat="37.50603" lon="27.53848">
        <ele>93.23</ele>
        <time>2020-12-13T06:44:40Z</time>
      </trkpt>
      <trkpt lat="37.50603" lon="27.53848">
        <ele>93.23</ele>
        <time>2020-12-13T06:44:41Z</time>
      </trkpt>
      <trkpt lat="37.50599" lon="27.5385">
        <ele>93.52</ele>
        <time>2020-12-13T06:44:42Z</time>
      </trkpt>
      <trkpt lat="37.50599" lon="27.5385">
        <ele>93.52</ele>
        <time>2020-12-13T06:44:43Z</time>
      </trkpt>
      <trkpt lat="37.50599" lon="27.5385">
        <ele>93.52</ele>
        <time>2020-12-13T06:44:44Z</time>
      </trkpt>
      <trkpt lat="37.50594" lon="27.53849">
        <ele>93.166</ele>
        <time>2020-12-13T06:44:45Z</time>
      </trkpt>
      <trkpt lat="37.50594" lon="27.53849">
        <ele>93.166</ele>
        <time>2020-12-13T06:44:46Z</time>
      </trkpt>
      <trkpt lat="37.50593" lon="27.53849">
        <ele>92.89</ele>
        <time>2020-12-13T06:44:47Z</time>
      </trkpt>
      <trkpt lat="37.50591" lon="27.53848">
        <ele>92.647</ele>
        <time>2020-12-13T06:44:48Z</time>
      </trkpt>
      <trkpt lat="37.5059" lon="27.53847">
        <ele>92.365</ele>
        <time>2020-12-13T06:44:49Z</time>
      </trkpt>
      <trkpt lat="37.50587" lon="27.53848">
        <ele>92.317</ele>
        <time>2020-12-13T06:44:50Z</time>
      </trkpt>
      <trkpt lat="37.50586" lon="27.53848">
        <ele>92.366</ele>
        <time>2020-12-13T06:44:51Z</time>
      </trkpt>
      <trkpt lat="37.50585" lon="27.53848">
        <ele>92.449</ele>
        <time>2020-12-13T06:44:52Z</time>
      </trkpt>
      <trkpt lat="37.50585" lon="27.53848">
        <ele>92.449</ele>
        <time>2020-12-13T06:44:53Z</time>
      </trkpt>
      <trkpt lat="37.50585" lon="27.53851">
        <ele>93.117</ele>
        <time>2020-12-13T06:44:54Z</time>
      </trkpt>
      <trkpt lat="37.50585" lon="27.53851">
        <ele>93.117</ele>
        <time>2020-12-13T06:44:55Z</time>
      </trkpt>
      <trkpt lat="37.50582" lon="27.53853">
        <ele>93.77</ele>
        <time>2020-12-13T06:44:56Z</time>
      </trkpt>
      <trkpt lat="37.50582" lon="27.53853">
        <ele>93.77</ele>
        <time>2020-12-13T06:44:57Z</time>
      </trkpt>
      <trkpt lat="37.50581" lon="27.53857">
        <ele>94.858</ele>
        <time>2020-12-13T06:44:58Z</time>
      </trkpt>
      <trkpt lat="37.50581" lon="27.53857">
        <ele>94.858</ele>
        <time>2020-12-13T06:44:59Z</time>
      </trkpt>
      <trkpt lat="37.50579" lon="27.53861">
        <ele>95.968</ele>
        <time>2020-12-13T06:45:00Z</time>
      </trkpt>
      <trkpt lat="37.50579" lon="27.53861">
        <ele>95.968</ele>
        <time>2020-12-13T06:45:01Z</time>
      </trkpt>
      <trkpt lat="37.5058" lon="27.53865">
        <ele>97.17</ele>
        <time>2020-12-13T06:45:02Z</time>
      </trkpt>
      <trkpt lat="37.5058" lon="27.53865">
        <ele>97.17</ele>
        <time>2020-12-13T06:45:03Z</time>
      </trkpt>
      <trkpt lat="37.50581" lon="27.53868">
        <ele>97.941</ele>
        <time>2020-12-13T06:45:04Z</time>
      </trkpt>
      <trkpt lat="37.50581" lon="27.53868">
        <ele>97.941</ele>
        <time>2020-12-13T06:45:05Z</time>
      </trkpt>
      <trkpt lat="37.50583" lon="27.5387">
        <ele>98.604</ele>
        <time>2020-12-13T06:45:06Z</time>
      </trkpt>
      <trkpt lat="37.50583" lon="27.5387">
        <ele>98.604</ele>
        <time>2020-12-13T06:45:07Z</time>
      </trkpt>
      <trkpt lat="37.50583" lon="27.53874">
        <ele>99.627</ele>
        <time>2020-12-13T06:45:08Z</time>
      </trkpt>
      <trkpt lat="37.50583" lon="27.53874">
        <ele>99.627</ele>
        <time>2020-12-13T06:45:09Z</time>
      </trkpt>
      <trkpt lat="37.50584" lon="27.53878">
        <ele>100.933</ele>
        <time>2020-12-13T06:45:10Z</time>
      </trkpt>
      <trkpt lat="37.50584" lon="27.53878">
        <ele>100.933</ele>
        <time>2020-12-13T06:45:11Z</time>
      </trkpt>
      <trkpt lat="37.50584" lon="27.53881">
        <ele>101.62</ele>
        <time>2020-12-13T06:45:12Z</time>
      </trkpt>
      <trkpt lat="37.50584" lon="27.53881">
        <ele>101.62</ele>
        <time>2020-12-13T06:45:13Z</time>
      </trkpt>
      <trkpt lat="37.50582" lon="27.53882">
        <ele>101.852</ele>
        <time>2020-12-13T06:45:14Z</time>
      </trkpt>
      <trkpt lat="37.50582" lon="27.53882">
        <ele>101.852</ele>
        <time>2020-12-13T06:45:15Z</time>
      </trkpt>
      <trkpt lat="37.50579" lon="27.53883">
        <ele>102.118</ele>
        <time>2020-12-13T06:45:16Z</time>
      </trkpt>
      <trkpt lat="37.50577" lon="27.53885">
        <ele>102.466</ele>
        <time>2020-12-13T06:45:17Z</time>
      </trkpt>
      <trkpt lat="37.50577" lon="27.53885">
        <ele>102.466</ele>
        <time>2020-12-13T06:45:18Z</time>
      </trkpt>
      <trkpt lat="37.50575" lon="27.53888">
        <ele>103.237</ele>
        <time>2020-12-13T06:45:19Z</time>
      </trkpt>
      <trkpt lat="37.50575" lon="27.53888">
        <ele>103.237</ele>
        <time>2020-12-13T06:45:20Z</time>
      </trkpt>
      <trkpt lat="37.50575" lon="27.53892">
        <ele>103.845</ele>
        <time>2020-12-13T06:45:21Z</time>
      </trkpt>
      <trkpt lat="37.50575" lon="27.53892">
        <ele>103.845</ele>
        <time>2020-12-13T06:45:22Z</time>
      </trkpt>
      <trkpt lat="37.50576" lon="27.53896">
        <ele>104.395</ele>
        <time>2020-12-13T06:45:23Z</time>
      </trkpt>
      <trkpt lat="37.50576" lon="27.53896">
        <ele>104.395</ele>
        <time>2020-12-13T06:45:24Z</time>
      </trkpt>
      <trkpt lat="37.50575" lon="27.53899">
        <ele>104.79</ele>
        <time>2020-12-13T06:45:25Z</time>
      </trkpt>
      <trkpt lat="37.50574" lon="27.53901">
        <ele>104.969</ele>
        <time>2020-12-13T06:45:26Z</time>
      </trkpt>
      <trkpt lat="37.50574" lon="27.53901">
        <ele>104.969</ele>
        <time>2020-12-13T06:45:27Z</time>
      </trkpt>
      <trkpt lat="37.50573" lon="27.53904">
        <ele>105.155</ele>
        <time>2020-12-13T06:45:28Z</time>
      </trkpt>
      <trkpt lat="37.50573" lon="27.53904">
        <ele>105.155</ele>
        <time>2020-12-13T06:45:29Z</time>
      </trkpt>
      <trkpt lat="37.5057" lon="27.53905">
        <ele>105.107</ele>
        <time>2020-12-13T06:45:30Z</time>
      </trkpt>
      <trkpt lat="37.5057" lon="27.53905">
        <ele>105.107</ele>
        <time>2020-12-13T06:45:31Z</time>
      </trkpt>
      <trkpt lat="37.50568" lon="27.53907">
        <ele>105.107</ele>
        <time>2020-12-13T06:45:32Z</time>
      </trkpt>
      <trkpt lat="37.50568" lon="27.53907">
        <ele>105.107</ele>
        <time>2020-12-13T06:45:33Z</time>
      </trkpt>
      <trkpt lat="37.50568" lon="27.53907">
        <ele>105.107</ele>
        <time>2020-12-13T06:45:34Z</time>
      </trkpt>
      <trkpt lat="37.50566" lon="27.53911">
        <ele>105.435</ele>
        <time>2020-12-13T06:45:35Z</time>
      </trkpt>
      <trkpt lat="37.50566" lon="27.53911">
        <ele>105.435</ele>
        <time>2020-12-13T06:45:36Z</time>
      </trkpt>
      <trkpt lat="37.50566" lon="27.53914">
        <ele>105.757</ele>
        <time>2020-12-13T06:45:37Z</time>
      </trkpt>
      <trkpt lat="37.50566" lon="27.53914">
        <ele>105.757</ele>
        <time>2020-12-13T06:45:38Z</time>
      </trkpt>
      <trkpt lat="37.50566" lon="27.53916">
        <ele>105.993</ele>
        <time>2020-12-13T06:45:39Z</time>
      </trkpt>
      <trkpt lat="37.50566" lon="27.53916">
        <ele>105.993</ele>
        <time>2020-12-13T06:45:40Z</time>
      </trkpt>
      <trkpt lat="37.50566" lon="27.53916">
        <ele>105.993</ele>
        <time>2020-12-13T06:45:41Z</time>
      </trkpt>
      <trkpt lat="37.50566" lon="27.53916">
        <ele>105.993</ele>
        <time>2020-12-13T06:45:42Z</time>
      </trkpt>
      <trkpt lat="37.50566" lon="27.53916">
        <ele>105.993</ele>
        <time>2020-12-13T06:45:43Z</time>
      </trkpt>
      <trkpt lat="37.50565" lon="27.53918">
        <ele>106.23</ele>
        <time>2020-12-13T06:45:44Z</time>
      </trkpt>
      <trkpt lat="37.50565" lon="27.53919">
        <ele>106.524</ele>
        <time>2020-12-13T06:45:45Z</time>
      </trkpt>
      <trkpt lat="37.50564" lon="27.53921">
        <ele>106.821</ele>
        <time>2020-12-13T06:45:46Z</time>
      </trkpt>
      <trkpt lat="37.50564" lon="27.53923">
        <ele>107.12</ele>
        <time>2020-12-13T06:45:47Z</time>
      </trkpt>
      <trkpt lat="37.50563" lon="27.53925">
        <ele>107.432</ele>
        <time>2020-12-13T06:45:48Z</time>
      </trkpt>
      <trkpt lat="37.50562" lon="27.53926">
        <ele>107.734</ele>
        <time>2020-12-13T06:45:49Z</time>
      </trkpt>
      <trkpt lat="37.50562" lon="27.53928">
        <ele>108.04</ele>
        <time>2020-12-13T06:45:50Z</time>
      </trkpt>
      <trkpt lat="37.50561" lon="27.5393">
        <ele>108.347</ele>
        <time>2020-12-13T06:45:51Z</time>
      </trkpt>
      <trkpt lat="37.50561" lon="27.53931">
        <ele>108.658</ele>
        <time>2020-12-13T06:45:52Z</time>
      </trkpt>
      <trkpt lat="37.50561" lon="27.53931">
        <ele>108.658</ele>
        <time>2020-12-13T06:45:53Z</time>
      </trkpt>
      <trkpt lat="37.50561" lon="27.53931">
        <ele>108.658</ele>
        <time>2020-12-13T06:45:54Z</time>
      </trkpt>
      <trkpt lat="37.50561" lon="27.53931">
        <ele>108.658</ele>
        <time>2020-12-13T06:45:55Z</time>
      </trkpt>
      <trkpt lat="37.50561" lon="27.53931">
        <ele>108.658</ele>
        <time>2020-12-13T06:45:56Z</time>
      </trkpt>
      <trkpt lat="37.50561" lon="27.53931">
        <ele>108.658</ele>
        <time>2020-12-13T06:45:57Z</time>
      </trkpt>
      <trkpt lat="37.50558" lon="27.53934">
        <ele>108.812</ele>
        <time>2020-12-13T06:45:58Z</time>
      </trkpt>
      <trkpt lat="37.50558" lon="27.53934">
        <ele>108.812</ele>
        <time>2020-12-13T06:45:59Z</time>
      </trkpt>
      <trkpt lat="37.50558" lon="27.53934">
        <ele>108.812</ele>
        <time>2020-12-13T06:46:00Z</time>
      </trkpt>
      <trkpt lat="37.50557" lon="27.53937">
        <ele>109.437</ele>
        <time>2020-12-13T06:46:01Z</time>
      </trkpt>
      <trkpt lat="37.50557" lon="27.53937">
        <ele>109.437</ele>
        <time>2020-12-13T06:46:02Z</time>
      </trkpt>
      <trkpt lat="37.50555" lon="27.53939">
        <ele>109.863</ele>
        <time>2020-12-13T06:46:03Z</time>
      </trkpt>
      <trkpt lat="37.50555" lon="27.53939">
        <ele>109.863</ele>
        <time>2020-12-13T06:46:04Z</time>
      </trkpt>
      <trkpt lat="37.50555" lon="27.53939">
        <ele>109.863</ele>
        <time>2020-12-13T06:46:05Z</time>
      </trkpt>
      <trkpt lat="37.50555" lon="27.53939">
        <ele>109.863</ele>
        <time>2020-12-13T06:46:06Z</time>
      </trkpt>
      <trkpt lat="37.50553" lon="27.5394">
        <ele>110.363</ele>
        <time>2020-12-13T06:46:07Z</time>
      </trkpt>
      <trkpt lat="37.50553" lon="27.5394">
        <ele>110.363</ele>
        <time>2020-12-13T06:46:08Z</time>
      </trkpt>
      <trkpt lat="37.50553" lon="27.5394">
        <ele>110.363</ele>
        <time>2020-12-13T06:46:09Z</time>
      </trkpt>
      <trkpt lat="37.50553" lon="27.5394">
        <ele>110.363</ele>
        <time>2020-12-13T06:46:10Z</time>
      </trkpt>
      <trkpt lat="37.50552" lon="27.53942">
        <ele>111.009</ele>
        <time>2020-12-13T06:46:11Z</time>
      </trkpt>
      <trkpt lat="37.50552" lon="27.53942">
        <ele>111.009</ele>
        <time>2020-12-13T06:46:12Z</time>
      </trkpt>
      <trkpt lat="37.50549" lon="27.53945">
        <ele>111.986</ele>
        <time>2020-12-13T06:46:13Z</time>
      </trkpt>
      <trkpt lat="37.50549" lon="27.53945">
        <ele>111.986</ele>
        <time>2020-12-13T06:46:14Z</time>
      </trkpt>
      <trkpt lat="37.50549" lon="27.53945">
        <ele>111.986</ele>
        <time>2020-12-13T06:46:15Z</time>
      </trkpt>
      <trkpt lat="37.50547" lon="27.53946">
        <ele>112.519</ele>
        <time>2020-12-13T06:46:16Z</time>
      </trkpt>
      <trkpt lat="37.50547" lon="27.53946">
        <ele>112.519</ele>
        <time>2020-12-13T06:46:17Z</time>
      </trkpt>
      <trkpt lat="37.50547" lon="27.53946">
        <ele>112.519</ele>
        <time>2020-12-13T06:46:18Z</time>
      </trkpt>
      <trkpt lat="37.50546" lon="27.53948">
        <ele>112.974</ele>
        <time>2020-12-13T06:46:19Z</time>
      </trkpt>
      <trkpt lat="37.50546" lon="27.53948">
        <ele>112.974</ele>
        <time>2020-12-13T06:46:20Z</time>
      </trkpt>
      <trkpt lat="37.50546" lon="27.53948">
        <ele>112.974</ele>
        <time>2020-12-13T06:46:21Z</time>
      </trkpt>
      <trkpt lat="37.50544" lon="27.53947">
        <ele>113.058</ele>
        <time>2020-12-13T06:46:22Z</time>
      </trkpt>
      <trkpt lat="37.50544" lon="27.53947">
        <ele>113.058</ele>
        <time>2020-12-13T06:46:23Z</time>
      </trkpt>
      <trkpt lat="37.50544" lon="27.53947">
        <ele>113.058</ele>
        <time>2020-12-13T06:46:24Z</time>
      </trkpt>
      <trkpt lat="37.50544" lon="27.53947">
        <ele>113.058</ele>
        <time>2020-12-13T06:46:25Z</time>
      </trkpt>
      <trkpt lat="37.50545" lon="27.5395">
        <ele>113.432</ele>
        <time>2020-12-13T06:46:26Z</time>
      </trkpt>
      <trkpt lat="37.50545" lon="27.5395">
        <ele>113.432</ele>
        <time>2020-12-13T06:46:27Z</time>
      </trkpt>
      <trkpt lat="37.50544" lon="27.53952">
        <ele>113.873</ele>
        <time>2020-12-13T06:46:28Z</time>
      </trkpt>
      <trkpt lat="37.50544" lon="27.53952">
        <ele>113.873</ele>
        <time>2020-12-13T06:46:29Z</time>
      </trkpt>
      <trkpt lat="37.50542" lon="27.53953">
        <ele>114.334</ele>
        <time>2020-12-13T06:46:30Z</time>
      </trkpt>
      <trkpt lat="37.50542" lon="27.53953">
        <ele>114.334</ele>
        <time>2020-12-13T06:46:31Z</time>
      </trkpt>
      <trkpt lat="37.5054" lon="27.53952">
        <ele>114.498</ele>
        <time>2020-12-13T06:46:32Z</time>
      </trkpt>
      <trkpt lat="37.5054" lon="27.53952">
        <ele>114.498</ele>
        <time>2020-12-13T06:46:33Z</time>
      </trkpt>
      <trkpt lat="37.5054" lon="27.53952">
        <ele>114.498</ele>
        <time>2020-12-13T06:46:34Z</time>
      </trkpt>
      <trkpt lat="37.5054" lon="27.53952">
        <ele>114.498</ele>
        <time>2020-12-13T06:46:35Z</time>
      </trkpt>
      <trkpt lat="37.50539" lon="27.53955">
        <ele>115.06</ele>
        <time>2020-12-13T06:46:36Z</time>
      </trkpt>
      <trkpt lat="37.50539" lon="27.53955">
        <ele>115.06</ele>
        <time>2020-12-13T06:46:37Z</time>
      </trkpt>
      <trkpt lat="37.50539" lon="27.53955">
        <ele>115.06</ele>
        <time>2020-12-13T06:46:38Z</time>
      </trkpt>
      <trkpt lat="37.50539" lon="27.53958">
        <ele>115.488</ele>
        <time>2020-12-13T06:46:39Z</time>
      </trkpt>
      <trkpt lat="37.50539" lon="27.53958">
        <ele>115.488</ele>
        <time>2020-12-13T06:46:40Z</time>
      </trkpt>
      <trkpt lat="37.50539" lon="27.53958">
        <ele>115.488</ele>
        <time>2020-12-13T06:46:41Z</time>
      </trkpt>
      <trkpt lat="37.50537" lon="27.53959">
        <ele>115.979</ele>
        <time>2020-12-13T06:46:42Z</time>
      </trkpt>
      <trkpt lat="37.50537" lon="27.53959">
        <ele>115.979</ele>
        <time>2020-12-13T06:46:43Z</time>
      </trkpt>
      <trkpt lat="37.50537" lon="27.53959">
        <ele>115.979</ele>
        <time>2020-12-13T06:46:44Z</time>
      </trkpt>
      <trkpt lat="37.50535" lon="27.53959">
        <ele>116.198</ele>
        <time>2020-12-13T06:46:45Z</time>
      </trkpt>
      <trkpt lat="37.50535" lon="27.53959">
        <ele>116.198</ele>
        <time>2020-12-13T06:46:46Z</time>
      </trkpt>
      <trkpt lat="37.50535" lon="27.53959">
        <ele>116.198</ele>
        <time>2020-12-13T06:46:47Z</time>
      </trkpt>
      <trkpt lat="37.50535" lon="27.53959">
        <ele>116.198</ele>
        <time>2020-12-13T06:46:48Z</time>
      </trkpt>
      <trkpt lat="37.50535" lon="27.53959">
        <ele>116.198</ele>
        <time>2020-12-13T06:46:49Z</time>
      </trkpt>
      <trkpt lat="37.50534" lon="27.53961">
        <ele>116.64</ele>
        <time>2020-12-13T06:46:50Z</time>
      </trkpt>
      <trkpt lat="37.50534" lon="27.53961">
        <ele>116.64</ele>
        <time>2020-12-13T06:46:51Z</time>
      </trkpt>
      <trkpt lat="37.50532" lon="27.53962">
        <ele>116.962</ele>
        <time>2020-12-13T06:46:52Z</time>
      </trkpt>
      <trkpt lat="37.50532" lon="27.53962">
        <ele>116.962</ele>
        <time>2020-12-13T06:46:53Z</time>
      </trkpt>
      <trkpt lat="37.50532" lon="27.53962">
        <ele>116.962</ele>
        <time>2020-12-13T06:46:54Z</time>
      </trkpt>
      <trkpt lat="37.50532" lon="27.53962">
        <ele>116.962</ele>
        <time>2020-12-13T06:46:55Z</time>
      </trkpt>
      <trkpt lat="37.50532" lon="27.53962">
        <ele>116.962</ele>
        <time>2020-12-13T06:46:56Z</time>
      </trkpt>
      <trkpt lat="37.50532" lon="27.53962">
        <ele>116.962</ele>
        <time>2020-12-13T06:46:57Z</time>
      </trkpt>
      <trkpt lat="37.50534" lon="27.53963">
        <ele>117.007</ele>
        <time>2020-12-13T06:46:58Z</time>
      </trkpt>
      <trkpt lat="37.50534" lon="27.53963">
        <ele>117.007</ele>
        <time>2020-12-13T06:46:59Z</time>
      </trkpt>
      <trkpt lat="37.50534" lon="27.53963">
        <ele>117.007</ele>
        <time>2020-12-13T06:47:00Z</time>
      </trkpt>
      <trkpt lat="37.50534" lon="27.53963">
        <ele>117.007</ele>
        <time>2020-12-13T06:47:01Z</time>
      </trkpt>
      <trkpt lat="37.50534" lon="27.53963">
        <ele>117.007</ele>
        <time>2020-12-13T06:47:02Z</time>
      </trkpt>
      <trkpt lat="37.50541" lon="27.53963">
        <ele>116.114</ele>
        <time>2020-12-13T06:47:03Z</time>
      </trkpt>
      <trkpt lat="37.50541" lon="27.53963">
        <ele>116.114</ele>
        <time>2020-12-13T06:47:04Z</time>
      </trkpt>
      <trkpt lat="37.50541" lon="27.53963">
        <ele>116.114</ele>
        <time>2020-12-13T06:47:05Z</time>
      </trkpt>
      <trkpt lat="37.50541" lon="27.53963">
        <ele>116.114</ele>
        <time>2020-12-13T06:47:06Z</time>
      </trkpt>
      <trkpt lat="37.50541" lon="27.53963">
        <ele>116.114</ele>
        <time>2020-12-13T06:47:07Z</time>
      </trkpt>
      <trkpt lat="37.50542" lon="27.53963">
        <ele>116.063</ele>
        <time>2020-12-13T06:47:08Z</time>
      </trkpt>
      <trkpt lat="37.50543" lon="27.53964">
        <ele>116.017</ele>
        <time>2020-12-13T06:47:09Z</time>
      </trkpt>
      <trkpt lat="37.50544" lon="27.53964">
        <ele>115.97</ele>
        <time>2020-12-13T06:47:10Z</time>
      </trkpt>
      <trkpt lat="37.50545" lon="27.53965">
        <ele>115.911</ele>
        <time>2020-12-13T06:47:11Z</time>
      </trkpt>
      <trkpt lat="37.50546" lon="27.53966">
        <ele>115.882</ele>
        <time>2020-12-13T06:47:12Z</time>
      </trkpt>
      <trkpt lat="37.50547" lon="27.53966">
        <ele>115.839</ele>
        <time>2020-12-13T06:47:13Z</time>
      </trkpt>
      <trkpt lat="37.50549" lon="27.53967">
        <ele>115.801</ele>
        <time>2020-12-13T06:47:14Z</time>
      </trkpt>
      <trkpt lat="37.5055" lon="27.53967">
        <ele>115.76</ele>
        <time>2020-12-13T06:47:15Z</time>
      </trkpt>
      <trkpt lat="37.50552" lon="27.53969">
        <ele>115.708</ele>
        <time>2020-12-13T06:47:16Z</time>
      </trkpt>
      <trkpt lat="37.50552" lon="27.53969">
        <ele>115.708</ele>
        <time>2020-12-13T06:47:17Z</time>
      </trkpt>
      <trkpt lat="37.50552" lon="27.53969">
        <ele>115.708</ele>
        <time>2020-12-13T06:47:18Z</time>
      </trkpt>
      <trkpt lat="37.50552" lon="27.53969">
        <ele>115.708</ele>
        <time>2020-12-13T06:47:19Z</time>
      </trkpt>
      <trkpt lat="37.50552" lon="27.53969">
        <ele>115.708</ele>
        <time>2020-12-13T06:47:20Z</time>
      </trkpt>
      <trkpt lat="37.50552" lon="27.53972">
        <ele>116.336</ele>
        <time>2020-12-13T06:47:21Z</time>
      </trkpt>
      <trkpt lat="37.50552" lon="27.53972">
        <ele>116.336</ele>
        <time>2020-12-13T06:47:22Z</time>
      </trkpt>
      <trkpt lat="37.50552" lon="27.53972">
        <ele>116.336</ele>
        <time>2020-12-13T06:47:23Z</time>
      </trkpt>
      <trkpt lat="37.50554" lon="27.53975">
        <ele>116.569</ele>
        <time>2020-12-13T06:47:24Z</time>
      </trkpt>
      <trkpt lat="37.50554" lon="27.53975">
        <ele>116.569</ele>
        <time>2020-12-13T06:47:25Z</time>
      </trkpt>
      <trkpt lat="37.50554" lon="27.53975">
        <ele>116.569</ele>
        <time>2020-12-13T06:47:26Z</time>
      </trkpt>
      <trkpt lat="37.50554" lon="27.53978">
        <ele>116.869</ele>
        <time>2020-12-13T06:47:27Z</time>
      </trkpt>
      <trkpt lat="37.50554" lon="27.53978">
        <ele>116.869</ele>
        <time>2020-12-13T06:47:28Z</time>
      </trkpt>
      <trkpt lat="37.50556" lon="27.53979">
        <ele>117</ele>
        <time>2020-12-13T06:47:29Z</time>
      </trkpt>
      <trkpt lat="37.50556" lon="27.53979">
        <ele>117</ele>
        <time>2020-12-13T06:47:30Z</time>
      </trkpt>
      <trkpt lat="37.50558" lon="27.53982">
        <ele>117.518</ele>
        <time>2020-12-13T06:47:31Z</time>
      </trkpt>
      <trkpt lat="37.50559" lon="27.53984">
        <ele>117.863</ele>
        <time>2020-12-13T06:47:32Z</time>
      </trkpt>
      <trkpt lat="37.50559" lon="27.53984">
        <ele>117.863</ele>
        <time>2020-12-13T06:47:33Z</time>
      </trkpt>
      <trkpt lat="37.50559" lon="27.53984">
        <ele>117.863</ele>
        <time>2020-12-13T06:47:34Z</time>
      </trkpt>
      <trkpt lat="37.50559" lon="27.53984">
        <ele>117.863</ele>
        <time>2020-12-13T06:47:35Z</time>
      </trkpt>
      <trkpt lat="37.50563" lon="27.53993">
        <ele>119.242</ele>
        <time>2020-12-13T06:47:36Z</time>
      </trkpt>
      <trkpt lat="37.50565" lon="27.53995">
        <ele>119.555</ele>
        <time>2020-12-13T06:47:37Z</time>
      </trkpt>
      <trkpt lat="37.50566" lon="27.53996">
        <ele>119.854</ele>
        <time>2020-12-13T06:47:38Z</time>
      </trkpt>
      <trkpt lat="37.50568" lon="27.53998">
        <ele>120.167</ele>
        <time>2020-12-13T06:47:39Z</time>
      </trkpt>
      <trkpt lat="37.50569" lon="27.54">
        <ele>120.48</ele>
        <time>2020-12-13T06:47:40Z</time>
      </trkpt>
      <trkpt lat="37.50569" lon="27.54">
        <ele>120.48</ele>
        <time>2020-12-13T06:47:41Z</time>
      </trkpt>
      <trkpt lat="37.50572" lon="27.54002">
        <ele>120.66</ele>
        <time>2020-12-13T06:47:42Z</time>
      </trkpt>
      <trkpt lat="37.50572" lon="27.54002">
        <ele>120.66</ele>
        <time>2020-12-13T06:47:43Z</time>
      </trkpt>
      <trkpt lat="37.50572" lon="27.54002">
        <ele>120.66</ele>
        <time>2020-12-13T06:47:44Z</time>
      </trkpt>
      <trkpt lat="37.50572" lon="27.54002">
        <ele>120.66</ele>
        <time>2020-12-13T06:47:45Z</time>
      </trkpt>
      <trkpt lat="37.50572" lon="27.54002">
        <ele>120.66</ele>
        <time>2020-12-13T06:47:46Z</time>
      </trkpt>
      <trkpt lat="37.50573" lon="27.54003">
        <ele>120.74</ele>
        <time>2020-12-13T06:47:47Z</time>
      </trkpt>
      <trkpt lat="37.50573" lon="27.54005">
        <ele>120.823</ele>
        <time>2020-12-13T06:47:48Z</time>
      </trkpt>
      <trkpt lat="37.50574" lon="27.54007">
        <ele>120.902</ele>
        <time>2020-12-13T06:47:49Z</time>
      </trkpt>
      <trkpt lat="37.50574" lon="27.54009">
        <ele>120.977</ele>
        <time>2020-12-13T06:47:50Z</time>
      </trkpt>
      <trkpt lat="37.50575" lon="27.5401">
        <ele>121.056</ele>
        <time>2020-12-13T06:47:51Z</time>
      </trkpt>
      <trkpt lat="37.50575" lon="27.54012">
        <ele>121.139</ele>
        <time>2020-12-13T06:47:52Z</time>
      </trkpt>
      <trkpt lat="37.50576" lon="27.54014">
        <ele>121.218</ele>
        <time>2020-12-13T06:47:53Z</time>
      </trkpt>
      <trkpt lat="37.50576" lon="27.54014">
        <ele>121.218</ele>
        <time>2020-12-13T06:47:54Z</time>
      </trkpt>
      <trkpt lat="37.50576" lon="27.54014">
        <ele>121.218</ele>
        <time>2020-12-13T06:47:55Z</time>
      </trkpt>
      <trkpt lat="37.50576" lon="27.54014">
        <ele>121.218</ele>
        <time>2020-12-13T06:47:56Z</time>
      </trkpt>
      <trkpt lat="37.50576" lon="27.54014">
        <ele>121.218</ele>
        <time>2020-12-13T06:47:57Z</time>
      </trkpt>
      <trkpt lat="37.50574" lon="27.54015">
        <ele>121.175</ele>
        <time>2020-12-13T06:47:58Z</time>
      </trkpt>
      <trkpt lat="37.50572" lon="27.54015">
        <ele>121.132</ele>
        <time>2020-12-13T06:47:59Z</time>
      </trkpt>
      <trkpt lat="37.5057" lon="27.54016">
        <ele>121.089</ele>
        <time>2020-12-13T06:48:00Z</time>
      </trkpt>
      <trkpt lat="37.50568" lon="27.54017">
        <ele>121.046</ele>
        <time>2020-12-13T06:48:01Z</time>
      </trkpt>
      <trkpt lat="37.50566" lon="27.54018">
        <ele>121.002</ele>
        <time>2020-12-13T06:48:02Z</time>
      </trkpt>
      <trkpt lat="37.50564" lon="27.54019">
        <ele>120.959</ele>
        <time>2020-12-13T06:48:03Z</time>
      </trkpt>
      <trkpt lat="37.5056" lon="27.54018">
        <ele>120.804</ele>
        <time>2020-12-13T06:48:04Z</time>
      </trkpt>
      <trkpt lat="37.5056" lon="27.54018">
        <ele>120.804</ele>
        <time>2020-12-13T06:48:05Z</time>
      </trkpt>
      <trkpt lat="37.50557" lon="27.54018">
        <ele>120.704</ele>
        <time>2020-12-13T06:48:06Z</time>
      </trkpt>
      <trkpt lat="37.50557" lon="27.54018">
        <ele>120.704</ele>
        <time>2020-12-13T06:48:07Z</time>
      </trkpt>
      <trkpt lat="37.50554" lon="27.54018">
        <ele>120.567</ele>
        <time>2020-12-13T06:48:08Z</time>
      </trkpt>
      <trkpt lat="37.50553" lon="27.54017">
        <ele>120.457</ele>
        <time>2020-12-13T06:48:09Z</time>
      </trkpt>
      <trkpt lat="37.50553" lon="27.54017">
        <ele>120.457</ele>
        <time>2020-12-13T06:48:10Z</time>
      </trkpt>
      <trkpt lat="37.5055" lon="27.54016">
        <ele>120.299</ele>
        <time>2020-12-13T06:48:11Z</time>
      </trkpt>
      <trkpt lat="37.5055" lon="27.54016">
        <ele>120.299</ele>
        <time>2020-12-13T06:48:12Z</time>
      </trkpt>
      <trkpt lat="37.50548" lon="27.54016">
        <ele>120.21</ele>
        <time>2020-12-13T06:48:13Z</time>
      </trkpt>
      <trkpt lat="37.50548" lon="27.54016">
        <ele>120.21</ele>
        <time>2020-12-13T06:48:14Z</time>
      </trkpt>
      <trkpt lat="37.50546" lon="27.54014">
        <ele>120.149</ele>
        <time>2020-12-13T06:48:15Z</time>
      </trkpt>
      <trkpt lat="37.50546" lon="27.54014">
        <ele>120.149</ele>
        <time>2020-12-13T06:48:16Z</time>
      </trkpt>
      <trkpt lat="37.50545" lon="27.54013">
        <ele>120.127</ele>
        <time>2020-12-13T06:48:17Z</time>
      </trkpt>
      <trkpt lat="37.50545" lon="27.54013">
        <ele>120.127</ele>
        <time>2020-12-13T06:48:18Z</time>
      </trkpt>
      <trkpt lat="37.50544" lon="27.5401">
        <ele>120.179</ele>
        <time>2020-12-13T06:48:19Z</time>
      </trkpt>
      <trkpt lat="37.50544" lon="27.5401">
        <ele>120.179</ele>
        <time>2020-12-13T06:48:20Z</time>
      </trkpt>
      <trkpt lat="37.50544" lon="27.54007">
        <ele>120.253</ele>
        <time>2020-12-13T06:48:21Z</time>
      </trkpt>
      <trkpt lat="37.50544" lon="27.54007">
        <ele>120.253</ele>
        <time>2020-12-13T06:48:22Z</time>
      </trkpt>
      <trkpt lat="37.50544" lon="27.54007">
        <ele>120.253</ele>
        <time>2020-12-13T06:48:23Z</time>
      </trkpt>
      <trkpt lat="37.50544" lon="27.54002">
        <ele>120.368</ele>
        <time>2020-12-13T06:48:24Z</time>
      </trkpt>
      <trkpt lat="37.50544" lon="27.54002">
        <ele>120.368</ele>
        <time>2020-12-13T06:48:25Z</time>
      </trkpt>
      <trkpt lat="37.50544" lon="27.54002">
        <ele>120.368</ele>
        <time>2020-12-13T06:48:26Z</time>
      </trkpt>
      <trkpt lat="37.50544" lon="27.54002">
        <ele>120.368</ele>
        <time>2020-12-13T06:48:27Z</time>
      </trkpt>
      <trkpt lat="37.50544" lon="27.54002">
        <ele>120.368</ele>
        <time>2020-12-13T06:48:28Z</time>
      </trkpt>
      <trkpt lat="37.50543" lon="27.54001">
        <ele>120.434</ele>
        <time>2020-12-13T06:48:29Z</time>
      </trkpt>
      <trkpt lat="37.50542" lon="27.53999">
        <ele>120.331</ele>
        <time>2020-12-13T06:48:30Z</time>
      </trkpt>
      <trkpt lat="37.50542" lon="27.53997">
        <ele>120.174</ele>
        <time>2020-12-13T06:48:31Z</time>
      </trkpt>
      <trkpt lat="37.50541" lon="27.53995">
        <ele>120.014</ele>
        <time>2020-12-13T06:48:32Z</time>
      </trkpt>
      <trkpt lat="37.5054" lon="27.53994">
        <ele>119.871</ele>
        <time>2020-12-13T06:48:33Z</time>
      </trkpt>
      <trkpt lat="37.5054" lon="27.53992">
        <ele>119.723</ele>
        <time>2020-12-13T06:48:34Z</time>
      </trkpt>
      <trkpt lat="37.50539" lon="27.5399">
        <ele>119.591</ele>
        <time>2020-12-13T06:48:35Z</time>
      </trkpt>
      <trkpt lat="37.50539" lon="27.5399">
        <ele>119.591</ele>
        <time>2020-12-13T06:48:36Z</time>
      </trkpt>
      <trkpt lat="37.50538" lon="27.53988">
        <ele>119.43</ele>
        <time>2020-12-13T06:48:37Z</time>
      </trkpt>
      <trkpt lat="37.50538" lon="27.53988">
        <ele>119.43</ele>
        <time>2020-12-13T06:48:38Z</time>
      </trkpt>
      <trkpt lat="37.50537" lon="27.53986">
        <ele>119.347</ele>
        <time>2020-12-13T06:48:39Z</time>
      </trkpt>
      <trkpt lat="37.50537" lon="27.53986">
        <ele>119.347</ele>
        <time>2020-12-13T06:48:40Z</time>
      </trkpt>
      <trkpt lat="37.50535" lon="27.53984">
        <ele>119.34</ele>
        <time>2020-12-13T06:48:41Z</time>
      </trkpt>
      <trkpt lat="37.50535" lon="27.53984">
        <ele>119.34</ele>
        <time>2020-12-13T06:48:42Z</time>
      </trkpt>
      <trkpt lat="37.50535" lon="27.53984">
        <ele>119.34</ele>
        <time>2020-12-13T06:48:43Z</time>
      </trkpt>
      <trkpt lat="37.50533" lon="27.53983">
        <ele>119.341</ele>
        <time>2020-12-13T06:48:44Z</time>
      </trkpt>
      <trkpt lat="37.50533" lon="27.53983">
        <ele>119.341</ele>
        <time>2020-12-13T06:48:45Z</time>
      </trkpt>
      <trkpt lat="37.50533" lon="27.53983">
        <ele>119.341</ele>
        <time>2020-12-13T06:48:46Z</time>
      </trkpt>
      <trkpt lat="37.50533" lon="27.53983">
        <ele>119.341</ele>
        <time>2020-12-13T06:48:47Z</time>
      </trkpt>
      <trkpt lat="37.50533" lon="27.53983">
        <ele>119.341</ele>
        <time>2020-12-13T06:48:48Z</time>
      </trkpt>
      <trkpt lat="37.50532" lon="27.53982">
        <ele>119.33</ele>
        <time>2020-12-13T06:48:49Z</time>
      </trkpt>
      <trkpt lat="37.50531" lon="27.53981">
        <ele>119.332</ele>
        <time>2020-12-13T06:48:50Z</time>
      </trkpt>
      <trkpt lat="37.5053" lon="27.5398">
        <ele>119.33</ele>
        <time>2020-12-13T06:48:51Z</time>
      </trkpt>
      <trkpt lat="37.5053" lon="27.53979">
        <ele>119.34</ele>
        <time>2020-12-13T06:48:52Z</time>
      </trkpt>
      <trkpt lat="37.50529" lon="27.53978">
        <ele>119.356</ele>
        <time>2020-12-13T06:48:53Z</time>
      </trkpt>
      <trkpt lat="37.50528" lon="27.53977">
        <ele>119.36</ele>
        <time>2020-12-13T06:48:54Z</time>
      </trkpt>
      <trkpt lat="37.50527" lon="27.53976">
        <ele>119.303</ele>
        <time>2020-12-13T06:48:55Z</time>
      </trkpt>
      <trkpt lat="37.50526" lon="27.53975">
        <ele>119.261</ele>
        <time>2020-12-13T06:48:56Z</time>
      </trkpt>
      <trkpt lat="37.50525" lon="27.53974">
        <ele>119.191</ele>
        <time>2020-12-13T06:48:57Z</time>
      </trkpt>
      <trkpt lat="37.50524" lon="27.53972">
        <ele>119.143</ele>
        <time>2020-12-13T06:48:58Z</time>
      </trkpt>
      <trkpt lat="37.50523" lon="27.53971">
        <ele>118.971</ele>
        <time>2020-12-13T06:48:59Z</time>
      </trkpt>
      <trkpt lat="37.50522" lon="27.53969">
        <ele>118.806</ele>
        <time>2020-12-13T06:49:00Z</time>
      </trkpt>
      <trkpt lat="37.50521" lon="27.53968">
        <ele>118.666</ele>
        <time>2020-12-13T06:49:01Z</time>
      </trkpt>
      <trkpt lat="37.5052" lon="27.53966">
        <ele>118.518</ele>
        <time>2020-12-13T06:49:02Z</time>
      </trkpt>
      <trkpt lat="37.50518" lon="27.53966">
        <ele>118.61</ele>
        <time>2020-12-13T06:49:03Z</time>
      </trkpt>
      <trkpt lat="37.50517" lon="27.53966">
        <ele>118.706</ele>
        <time>2020-12-13T06:49:04Z</time>
      </trkpt>
      <trkpt lat="37.50516" lon="27.53967">
        <ele>118.795</ele>
        <time>2020-12-13T06:49:05Z</time>
      </trkpt>
      <trkpt lat="37.50514" lon="27.53967">
        <ele>118.894</ele>
        <time>2020-12-13T06:49:06Z</time>
      </trkpt>
      <trkpt lat="37.50513" lon="27.53967">
        <ele>118.985</ele>
        <time>2020-12-13T06:49:07Z</time>
      </trkpt>
      <trkpt lat="37.50512" lon="27.53967">
        <ele>119.07</ele>
        <time>2020-12-13T06:49:08Z</time>
      </trkpt>
      <trkpt lat="37.5051" lon="27.53967">
        <ele>119.158</ele>
        <time>2020-12-13T06:49:09Z</time>
      </trkpt>
      <trkpt lat="37.50509" lon="27.53968">
        <ele>119.24</ele>
        <time>2020-12-13T06:49:10Z</time>
      </trkpt>
      <trkpt lat="37.50509" lon="27.53968">
        <ele>119.24</ele>
        <time>2020-12-13T06:49:11Z</time>
      </trkpt>
      <trkpt lat="37.50509" lon="27.53968">
        <ele>119.24</ele>
        <time>2020-12-13T06:49:12Z</time>
      </trkpt>
      <trkpt lat="37.50509" lon="27.53968">
        <ele>119.24</ele>
        <time>2020-12-13T06:49:13Z</time>
      </trkpt>
      <trkpt lat="37.50508" lon="27.53966">
        <ele>119.154</ele>
        <time>2020-12-13T06:49:14Z</time>
      </trkpt>
      <trkpt lat="37.50507" lon="27.53965">
        <ele>119.059</ele>
        <time>2020-12-13T06:49:15Z</time>
      </trkpt>
      <trkpt lat="37.50506" lon="27.53963">
        <ele>118.985</ele>
        <time>2020-12-13T06:49:16Z</time>
      </trkpt>
      <trkpt lat="37.50506" lon="27.53962">
        <ele>118.912</ele>
        <time>2020-12-13T06:49:17Z</time>
      </trkpt>
      <trkpt lat="37.50505" lon="27.53961">
        <ele>118.851</ele>
        <time>2020-12-13T06:49:18Z</time>
      </trkpt>
      <trkpt lat="37.50504" lon="27.53959">
        <ele>118.788</ele>
        <time>2020-12-13T06:49:19Z</time>
      </trkpt>
      <trkpt lat="37.50503" lon="27.53958">
        <ele>118.733</ele>
        <time>2020-12-13T06:49:20Z</time>
      </trkpt>
      <trkpt lat="37.50502" lon="27.53956">
        <ele>118.691</ele>
        <time>2020-12-13T06:49:21Z</time>
      </trkpt>
      <trkpt lat="37.50502" lon="27.53956">
        <ele>118.691</ele>
        <time>2020-12-13T06:49:22Z</time>
      </trkpt>
      <trkpt lat="37.50502" lon="27.53956">
        <ele>118.691</ele>
        <time>2020-12-13T06:49:23Z</time>
      </trkpt>
      <trkpt lat="37.50502" lon="27.53956">
        <ele>118.691</ele>
        <time>2020-12-13T06:49:24Z</time>
      </trkpt>
      <trkpt lat="37.505" lon="27.53955">
        <ele>118.758</ele>
        <time>2020-12-13T06:49:25Z</time>
      </trkpt>
      <trkpt lat="37.505" lon="27.53955">
        <ele>118.758</ele>
        <time>2020-12-13T06:49:26Z</time>
      </trkpt>
      <trkpt lat="37.505" lon="27.53955">
        <ele>118.758</ele>
        <time>2020-12-13T06:49:27Z</time>
      </trkpt>
      <trkpt lat="37.505" lon="27.53955">
        <ele>118.758</ele>
        <time>2020-12-13T06:49:28Z</time>
      </trkpt>
      <trkpt lat="37.505" lon="27.53955">
        <ele>118.758</ele>
        <time>2020-12-13T06:49:29Z</time>
      </trkpt>
      <trkpt lat="37.505" lon="27.53955">
        <ele>118.758</ele>
        <time>2020-12-13T06:49:30Z</time>
      </trkpt>
      <trkpt lat="37.50498" lon="27.53953">
        <ele>118.446</ele>
        <time>2020-12-13T06:49:31Z</time>
      </trkpt>
      <trkpt lat="37.50498" lon="27.53953">
        <ele>118.446</ele>
        <time>2020-12-13T06:49:32Z</time>
      </trkpt>
      <trkpt lat="37.50498" lon="27.53953">
        <ele>118.446</ele>
        <time>2020-12-13T06:49:33Z</time>
      </trkpt>
      <trkpt lat="37.50498" lon="27.53953">
        <ele>118.446</ele>
        <time>2020-12-13T06:49:34Z</time>
      </trkpt>
      <trkpt lat="37.50498" lon="27.53953">
        <ele>118.446</ele>
        <time>2020-12-13T06:49:35Z</time>
      </trkpt>
      <trkpt lat="37.50498" lon="27.53953">
        <ele>118.446</ele>
        <time>2020-12-13T06:49:36Z</time>
      </trkpt>
      <trkpt lat="37.50498" lon="27.53953">
        <ele>118.446</ele>
        <time>2020-12-13T06:49:37Z</time>
      </trkpt>
      <trkpt lat="37.50498" lon="27.53953">
        <ele>118.446</ele>
        <time>2020-12-13T06:49:38Z</time>
      </trkpt>
      <trkpt lat="37.50498" lon="27.53953">
        <ele>118.446</ele>
        <time>2020-12-13T06:49:39Z</time>
      </trkpt>
      <trkpt lat="37.50498" lon="27.53953">
        <ele>118.446</ele>
        <time>2020-12-13T06:49:40Z</time>
      </trkpt>
      <trkpt lat="37.50498" lon="27.53953">
        <ele>118.446</ele>
        <time>2020-12-13T06:49:41Z</time>
      </trkpt>
      <trkpt lat="37.50497" lon="27.53954">
        <ele>118.34</ele>
        <time>2020-12-13T06:49:42Z</time>
      </trkpt>
      <trkpt lat="37.50497" lon="27.53954">
        <ele>118.34</ele>
        <time>2020-12-13T06:49:43Z</time>
      </trkpt>
      <trkpt lat="37.50497" lon="27.53954">
        <ele>118.34</ele>
        <time>2020-12-13T06:49:44Z</time>
      </trkpt>
      <trkpt lat="37.50497" lon="27.53954">
        <ele>118.34</ele>
        <time>2020-12-13T06:49:45Z</time>
      </trkpt>
      <trkpt lat="37.50497" lon="27.53954">
        <ele>118.34</ele>
        <time>2020-12-13T06:49:46Z</time>
      </trkpt>
      <trkpt lat="37.50497" lon="27.53954">
        <ele>118.34</ele>
        <time>2020-12-13T06:49:47Z</time>
      </trkpt>
      <trkpt lat="37.50494" lon="27.53953">
        <ele>118.006</ele>
        <time>2020-12-13T06:49:48Z</time>
      </trkpt>
      <trkpt lat="37.50494" lon="27.53953">
        <ele>118.006</ele>
        <time>2020-12-13T06:49:49Z</time>
      </trkpt>
      <trkpt lat="37.50493" lon="27.53952">
        <ele>117.79</ele>
        <time>2020-12-13T06:49:50Z</time>
      </trkpt>
      <trkpt lat="37.50493" lon="27.53952">
        <ele>117.79</ele>
        <time>2020-12-13T06:49:51Z</time>
      </trkpt>
      <trkpt lat="37.50493" lon="27.53952">
        <ele>117.79</ele>
        <time>2020-12-13T06:49:52Z</time>
      </trkpt>
      <trkpt lat="37.50491" lon="27.5395">
        <ele>117.574</ele>
        <time>2020-12-13T06:49:53Z</time>
      </trkpt>
      <trkpt lat="37.50491" lon="27.5395">
        <ele>117.574</ele>
        <time>2020-12-13T06:49:54Z</time>
      </trkpt>
      <trkpt lat="37.50491" lon="27.53947">
        <ele>117.42</ele>
        <time>2020-12-13T06:49:55Z</time>
      </trkpt>
      <trkpt lat="37.50491" lon="27.53947">
        <ele>117.42</ele>
        <time>2020-12-13T06:49:56Z</time>
      </trkpt>
      <trkpt lat="37.50492" lon="27.53943">
        <ele>117.391</ele>
        <time>2020-12-13T06:49:57Z</time>
      </trkpt>
      <trkpt lat="37.50492" lon="27.53943">
        <ele>117.391</ele>
        <time>2020-12-13T06:49:58Z</time>
      </trkpt>
      <trkpt lat="37.50492" lon="27.53943">
        <ele>117.391</ele>
        <time>2020-12-13T06:49:59Z</time>
      </trkpt>
      <trkpt lat="37.50492" lon="27.53943">
        <ele>117.391</ele>
        <time>2020-12-13T06:50:00Z</time>
      </trkpt>
      <trkpt lat="37.50492" lon="27.53943">
        <ele>117.391</ele>
        <time>2020-12-13T06:50:01Z</time>
      </trkpt>
      <trkpt lat="37.50489" lon="27.5394">
        <ele>117.242</ele>
        <time>2020-12-13T06:50:02Z</time>
      </trkpt>
      <trkpt lat="37.50489" lon="27.5394">
        <ele>117.242</ele>
        <time>2020-12-13T06:50:03Z</time>
      </trkpt>
      <trkpt lat="37.50487" lon="27.53941">
        <ele>117.136</ele>
        <time>2020-12-13T06:50:04Z</time>
      </trkpt>
      <trkpt lat="37.50487" lon="27.53941">
        <ele>117.136</ele>
        <time>2020-12-13T06:50:05Z</time>
      </trkpt>
      <trkpt lat="37.50484" lon="27.53944">
        <ele>116.843</ele>
        <time>2020-12-13T06:50:06Z</time>
      </trkpt>
      <trkpt lat="37.50482" lon="27.53945">
        <ele>116.728</ele>
        <time>2020-12-13T06:50:07Z</time>
      </trkpt>
      <trkpt lat="37.50481" lon="27.53947">
        <ele>116.611</ele>
        <time>2020-12-13T06:50:08Z</time>
      </trkpt>
      <trkpt lat="37.50479" lon="27.53948">
        <ele>116.468</ele>
        <time>2020-12-13T06:50:09Z</time>
      </trkpt>
      <trkpt lat="37.50478" lon="27.5395">
        <ele>116.311</ele>
        <time>2020-12-13T06:50:10Z</time>
      </trkpt>
      <trkpt lat="37.50476" lon="27.53951">
        <ele>116.074</ele>
        <time>2020-12-13T06:50:11Z</time>
      </trkpt>
      <trkpt lat="37.50476" lon="27.53951">
        <ele>116.074</ele>
        <time>2020-12-13T06:50:12Z</time>
      </trkpt>
      <trkpt lat="37.50471" lon="27.53954">
        <ele>115.499</ele>
        <time>2020-12-13T06:50:13Z</time>
      </trkpt>
      <trkpt lat="37.50469" lon="27.53954">
        <ele>115.07</ele>
        <time>2020-12-13T06:50:14Z</time>
      </trkpt>
      <trkpt lat="37.50467" lon="27.53955">
        <ele>114.739</ele>
        <time>2020-12-13T06:50:15Z</time>
      </trkpt>
      <trkpt lat="37.50464" lon="27.53955">
        <ele>114.258</ele>
        <time>2020-12-13T06:50:16Z</time>
      </trkpt>
      <trkpt lat="37.50463" lon="27.53955">
        <ele>114.096</ele>
        <time>2020-12-13T06:50:17Z</time>
      </trkpt>
      <trkpt lat="37.50463" lon="27.53955">
        <ele>114.096</ele>
        <time>2020-12-13T06:50:18Z</time>
      </trkpt>
      <trkpt lat="37.50459" lon="27.53957">
        <ele>113.492</ele>
        <time>2020-12-13T06:50:19Z</time>
      </trkpt>
      <trkpt lat="37.50459" lon="27.53957">
        <ele>113.492</ele>
        <time>2020-12-13T06:50:20Z</time>
      </trkpt>
      <trkpt lat="37.50457" lon="27.53959">
        <ele>113.008</ele>
        <time>2020-12-13T06:50:21Z</time>
      </trkpt>
      <trkpt lat="37.50457" lon="27.53959">
        <ele>113.008</ele>
        <time>2020-12-13T06:50:22Z</time>
      </trkpt>
      <trkpt lat="37.50457" lon="27.53959">
        <ele>113.008</ele>
        <time>2020-12-13T06:50:23Z</time>
      </trkpt>
      <trkpt lat="37.50457" lon="27.53959">
        <ele>113.008</ele>
        <time>2020-12-13T06:50:24Z</time>
      </trkpt>
      <trkpt lat="37.50457" lon="27.53959">
        <ele>113.008</ele>
        <time>2020-12-13T06:50:25Z</time>
      </trkpt>
      <trkpt lat="37.50456" lon="27.53963">
        <ele>112.579</ele>
        <time>2020-12-13T06:50:26Z</time>
      </trkpt>
      <trkpt lat="37.50454" lon="27.53966">
        <ele>112.137</ele>
        <time>2020-12-13T06:50:27Z</time>
      </trkpt>
      <trkpt lat="37.50453" lon="27.5397">
        <ele>111.7</ele>
        <time>2020-12-13T06:50:28Z</time>
      </trkpt>
      <trkpt lat="37.50452" lon="27.53973">
        <ele>111.24</ele>
        <time>2020-12-13T06:50:29Z</time>
      </trkpt>
      <trkpt lat="37.5045" lon="27.53977">
        <ele>110.761</ele>
        <time>2020-12-13T06:50:30Z</time>
      </trkpt>
      <trkpt lat="37.50449" lon="27.5398">
        <ele>110.269</ele>
        <time>2020-12-13T06:50:31Z</time>
      </trkpt>
      <trkpt lat="37.50448" lon="27.53984">
        <ele>109.814</ele>
        <time>2020-12-13T06:50:32Z</time>
      </trkpt>
      <trkpt lat="37.50448" lon="27.53985">
        <ele>109.653</ele>
        <time>2020-12-13T06:50:33Z</time>
      </trkpt>
      <trkpt lat="37.50447" lon="27.53987">
        <ele>109.465</ele>
        <time>2020-12-13T06:50:34Z</time>
      </trkpt>
      <trkpt lat="37.50447" lon="27.53987">
        <ele>109.465</ele>
        <time>2020-12-13T06:50:35Z</time>
      </trkpt>
      <trkpt lat="37.50447" lon="27.53991">
        <ele>109.177</ele>
        <time>2020-12-13T06:50:36Z</time>
      </trkpt>
      <trkpt lat="37.50447" lon="27.53991">
        <ele>109.177</ele>
        <time>2020-12-13T06:50:37Z</time>
      </trkpt>
      <trkpt lat="37.50447" lon="27.53994">
        <ele>108.957</ele>
        <time>2020-12-13T06:50:38Z</time>
      </trkpt>
      <trkpt lat="37.50447" lon="27.53994">
        <ele>108.957</ele>
        <time>2020-12-13T06:50:39Z</time>
      </trkpt>
      <trkpt lat="37.50447" lon="27.53994">
        <ele>108.957</ele>
        <time>2020-12-13T06:50:40Z</time>
      </trkpt>
      <trkpt lat="37.50447" lon="27.53996">
        <ele>108.77</ele>
        <time>2020-12-13T06:50:41Z</time>
      </trkpt>
      <trkpt lat="37.50447" lon="27.53996">
        <ele>108.77</ele>
        <time>2020-12-13T06:50:42Z</time>
      </trkpt>
      <trkpt lat="37.50447" lon="27.53996">
        <ele>108.77</ele>
        <time>2020-12-13T06:50:43Z</time>
      </trkpt>
      <trkpt lat="37.50447" lon="27.53996">
        <ele>108.77</ele>
        <time>2020-12-13T06:50:44Z</time>
      </trkpt>
      <trkpt lat="37.50447" lon="27.53996">
        <ele>108.77</ele>
        <time>2020-12-13T06:50:45Z</time>
      </trkpt>
      <trkpt lat="37.50447" lon="27.53996">
        <ele>108.77</ele>
        <time>2020-12-13T06:50:46Z</time>
      </trkpt>
      <trkpt lat="37.50447" lon="27.53996">
        <ele>108.77</ele>
        <time>2020-12-13T06:50:47Z</time>
      </trkpt>
      <trkpt lat="37.50447" lon="27.53996">
        <ele>108.77</ele>
        <time>2020-12-13T06:50:48Z</time>
      </trkpt>
      <trkpt lat="37.50447" lon="27.53996">
        <ele>108.77</ele>
        <time>2020-12-13T06:50:49Z</time>
      </trkpt>
      <trkpt lat="37.50447" lon="27.53996">
        <ele>108.77</ele>
        <time>2020-12-13T06:50:50Z</time>
      </trkpt>
      <trkpt lat="37.50449" lon="27.53994">
        <ele>109.299</ele>
        <time>2020-12-13T06:50:51Z</time>
      </trkpt>
      <trkpt lat="37.50449" lon="27.53994">
        <ele>109.299</ele>
        <time>2020-12-13T06:50:52Z</time>
      </trkpt>
      <trkpt lat="37.50451" lon="27.53996">
        <ele>109.668</ele>
        <time>2020-12-13T06:50:53Z</time>
      </trkpt>
      <trkpt lat="37.50452" lon="27.53998">
        <ele>109.808</ele>
        <time>2020-12-13T06:50:54Z</time>
      </trkpt>
      <trkpt lat="37.50452" lon="27.53998">
        <ele>109.808</ele>
        <time>2020-12-13T06:50:55Z</time>
      </trkpt>
      <trkpt lat="37.50455" lon="27.54">
        <ele>110.247</ele>
        <time>2020-12-13T06:50:56Z</time>
      </trkpt>
      <trkpt lat="37.50457" lon="27.54002">
        <ele>110.442</ele>
        <time>2020-12-13T06:50:57Z</time>
      </trkpt>
      <trkpt lat="37.50457" lon="27.54002">
        <ele>110.442</ele>
        <time>2020-12-13T06:50:58Z</time>
      </trkpt>
      <trkpt lat="37.50459" lon="27.54005">
        <ele>110.647</ele>
        <time>2020-12-13T06:50:59Z</time>
      </trkpt>
      <trkpt lat="37.50461" lon="27.54008">
        <ele>110.733</ele>
        <time>2020-12-13T06:51:00Z</time>
      </trkpt>
      <trkpt lat="37.50461" lon="27.54008">
        <ele>110.733</ele>
        <time>2020-12-13T06:51:01Z</time>
      </trkpt>
      <trkpt lat="37.50461" lon="27.54008">
        <ele>110.733</ele>
        <time>2020-12-13T06:51:02Z</time>
      </trkpt>
      <trkpt lat="37.50461" lon="27.54008">
        <ele>110.733</ele>
        <time>2020-12-13T06:51:03Z</time>
      </trkpt>
      <trkpt lat="37.50461" lon="27.54008">
        <ele>110.733</ele>
        <time>2020-12-13T06:51:04Z</time>
      </trkpt>
      <trkpt lat="37.50468" lon="27.54019">
        <ele>111.046</ele>
        <time>2020-12-13T06:51:05Z</time>
      </trkpt>
      <trkpt lat="37.50468" lon="27.5402">
        <ele>110.927</ele>
        <time>2020-12-13T06:51:06Z</time>
      </trkpt>
      <trkpt lat="37.50468" lon="27.54021">
        <ele>110.776</ele>
        <time>2020-12-13T06:51:07Z</time>
      </trkpt>
      <trkpt lat="37.50468" lon="27.54022">
        <ele>110.657</ele>
        <time>2020-12-13T06:51:08Z</time>
      </trkpt>
      <trkpt lat="37.50468" lon="27.54023">
        <ele>110.528</ele>
        <time>2020-12-13T06:51:09Z</time>
      </trkpt>
      <trkpt lat="37.50468" lon="27.54029">
        <ele>109.766</ele>
        <time>2020-12-13T06:51:10Z</time>
      </trkpt>
      <trkpt lat="37.50468" lon="27.54029">
        <ele>109.766</ele>
        <time>2020-12-13T06:51:11Z</time>
      </trkpt>
      <trkpt lat="37.50468" lon="27.54029">
        <ele>109.766</ele>
        <time>2020-12-13T06:51:12Z</time>
      </trkpt>
      <trkpt lat="37.50468" lon="27.54029">
        <ele>109.766</ele>
        <time>2020-12-13T06:51:13Z</time>
      </trkpt>
      <trkpt lat="37.50468" lon="27.54029">
        <ele>109.766</ele>
        <time>2020-12-13T06:51:14Z</time>
      </trkpt>
      <trkpt lat="37.50468" lon="27.54029">
        <ele>109.81</ele>
        <time>2020-12-13T06:51:15Z</time>
      </trkpt>
      <trkpt lat="37.50469" lon="27.5403">
        <ele>109.834</ele>
        <time>2020-12-13T06:51:16Z</time>
      </trkpt>
      <trkpt lat="37.5047" lon="27.5403">
        <ele>109.876</ele>
        <time>2020-12-13T06:51:17Z</time>
      </trkpt>
      <trkpt lat="37.5047" lon="27.54031">
        <ele>109.897</ele>
        <time>2020-12-13T06:51:18Z</time>
      </trkpt>
      <trkpt lat="37.50471" lon="27.54032">
        <ele>109.959</ele>
        <time>2020-12-13T06:51:19Z</time>
      </trkpt>
      <trkpt lat="37.50472" lon="27.54032">
        <ele>109.978</ele>
        <time>2020-12-13T06:51:20Z</time>
      </trkpt>
      <trkpt lat="37.50473" lon="27.54033">
        <ele>110.001</ele>
        <time>2020-12-13T06:51:21Z</time>
      </trkpt>
      <trkpt lat="37.50473" lon="27.54033">
        <ele>109.977</ele>
        <time>2020-12-13T06:51:22Z</time>
      </trkpt>
      <trkpt lat="37.50474" lon="27.54034">
        <ele>109.975</ele>
        <time>2020-12-13T06:51:23Z</time>
      </trkpt>
      <trkpt lat="37.50474" lon="27.54034">
        <ele>109.975</ele>
        <time>2020-12-13T06:51:24Z</time>
      </trkpt>
      <trkpt lat="37.50474" lon="27.54034">
        <ele>109.975</ele>
        <time>2020-12-13T06:51:25Z</time>
      </trkpt>
      <trkpt lat="37.50476" lon="27.54038">
        <ele>109.407</ele>
        <time>2020-12-13T06:51:26Z</time>
      </trkpt>
      <trkpt lat="37.50476" lon="27.54038">
        <ele>109.407</ele>
        <time>2020-12-13T06:51:27Z</time>
      </trkpt>
      <trkpt lat="37.50475" lon="27.5404">
        <ele>108.73</ele>
        <time>2020-12-13T06:51:28Z</time>
      </trkpt>
      <trkpt lat="37.50475" lon="27.5404">
        <ele>108.73</ele>
        <time>2020-12-13T06:51:29Z</time>
      </trkpt>
      <trkpt lat="37.50473" lon="27.54042">
        <ele>107.99</ele>
        <time>2020-12-13T06:51:30Z</time>
      </trkpt>
      <trkpt lat="37.50473" lon="27.54042">
        <ele>107.99</ele>
        <time>2020-12-13T06:51:31Z</time>
      </trkpt>
      <trkpt lat="37.50472" lon="27.54044">
        <ele>107.413</ele>
        <time>2020-12-13T06:51:32Z</time>
      </trkpt>
      <trkpt lat="37.50472" lon="27.54044">
        <ele>107.413</ele>
        <time>2020-12-13T06:51:33Z</time>
      </trkpt>
      <trkpt lat="37.50472" lon="27.54047">
        <ele>106.725</ele>
        <time>2020-12-13T06:51:34Z</time>
      </trkpt>
      <trkpt lat="37.50472" lon="27.54047">
        <ele>106.725</ele>
        <time>2020-12-13T06:51:35Z</time>
      </trkpt>
      <trkpt lat="37.5047" lon="27.5405">
        <ele>105.863</ele>
        <time>2020-12-13T06:51:36Z</time>
      </trkpt>
      <trkpt lat="37.5047" lon="27.5405">
        <ele>105.863</ele>
        <time>2020-12-13T06:51:37Z</time>
      </trkpt>
      <trkpt lat="37.50469" lon="27.54053">
        <ele>104.91</ele>
        <time>2020-12-13T06:51:38Z</time>
      </trkpt>
      <trkpt lat="37.50469" lon="27.54053">
        <ele>104.91</ele>
        <time>2020-12-13T06:51:39Z</time>
      </trkpt>
      <trkpt lat="37.50466" lon="27.54056">
        <ele>103.962</ele>
        <time>2020-12-13T06:51:40Z</time>
      </trkpt>
      <trkpt lat="37.50466" lon="27.54056">
        <ele>103.962</ele>
        <time>2020-12-13T06:51:41Z</time>
      </trkpt>
      <trkpt lat="37.50463" lon="27.54058">
        <ele>103.154</ele>
        <time>2020-12-13T06:51:42Z</time>
      </trkpt>
      <trkpt lat="37.50462" lon="27.54059">
        <ele>102.692</ele>
        <time>2020-12-13T06:51:43Z</time>
      </trkpt>
      <trkpt lat="37.5046" lon="27.5406">
        <ele>102.186</ele>
        <time>2020-12-13T06:51:44Z</time>
      </trkpt>
      <trkpt lat="37.50458" lon="27.54062">
        <ele>101.738</ele>
        <time>2020-12-13T06:51:45Z</time>
      </trkpt>
      <trkpt lat="37.50458" lon="27.54062">
        <ele>101.738</ele>
        <time>2020-12-13T06:51:46Z</time>
      </trkpt>
      <trkpt lat="37.50457" lon="27.54064">
        <ele>101.188</ele>
        <time>2020-12-13T06:51:47Z</time>
      </trkpt>
      <trkpt lat="37.50454" lon="27.54064">
        <ele>100.749</ele>
        <time>2020-12-13T06:51:48Z</time>
      </trkpt>
      <trkpt lat="37.50452" lon="27.54064">
        <ele>100.303</ele>
        <time>2020-12-13T06:51:49Z</time>
      </trkpt>
      <trkpt lat="37.5045" lon="27.54064">
        <ele>99.993</ele>
        <time>2020-12-13T06:51:50Z</time>
      </trkpt>
      <trkpt lat="37.5045" lon="27.54064">
        <ele>99.993</ele>
        <time>2020-12-13T06:51:51Z</time>
      </trkpt>
      <trkpt lat="37.50446" lon="27.54064">
        <ele>99.411</ele>
        <time>2020-12-13T06:51:52Z</time>
      </trkpt>
      <trkpt lat="37.50444" lon="27.54064">
        <ele>99.076</ele>
        <time>2020-12-13T06:51:53Z</time>
      </trkpt>
      <trkpt lat="37.50442" lon="27.54063">
        <ele>98.846</ele>
        <time>2020-12-13T06:51:54Z</time>
      </trkpt>
      <trkpt lat="37.50442" lon="27.54063">
        <ele>98.846</ele>
        <time>2020-12-13T06:51:55Z</time>
      </trkpt>
      <trkpt lat="37.50442" lon="27.54063">
        <ele>98.846</ele>
        <time>2020-12-13T06:51:56Z</time>
      </trkpt>
      <trkpt lat="37.50442" lon="27.54063">
        <ele>98.846</ele>
        <time>2020-12-13T06:51:57Z</time>
      </trkpt>
      <trkpt lat="37.50442" lon="27.54063">
        <ele>98.846</ele>
        <time>2020-12-13T06:51:58Z</time>
      </trkpt>
      <trkpt lat="37.50431" lon="27.54057">
        <ele>97.512</ele>
        <time>2020-12-13T06:51:59Z</time>
      </trkpt>
      <trkpt lat="37.50429" lon="27.54057">
        <ele>97.206</ele>
        <time>2020-12-13T06:52:00Z</time>
      </trkpt>
      <trkpt lat="37.50428" lon="27.54058">
        <ele>96.898</ele>
        <time>2020-12-13T06:52:01Z</time>
      </trkpt>
      <trkpt lat="37.50426" lon="27.54058">
        <ele>96.598</ele>
        <time>2020-12-13T06:52:02Z</time>
      </trkpt>
      <trkpt lat="37.50424" lon="27.54058">
        <ele>96.299</ele>
        <time>2020-12-13T06:52:03Z</time>
      </trkpt>
      <trkpt lat="37.50422" lon="27.54059">
        <ele>95.941</ele>
        <time>2020-12-13T06:52:04Z</time>
      </trkpt>
      <trkpt lat="37.5042" lon="27.54059">
        <ele>95.602</ele>
        <time>2020-12-13T06:52:05Z</time>
      </trkpt>
      <trkpt lat="37.50418" lon="27.54059">
        <ele>95.258</ele>
        <time>2020-12-13T06:52:06Z</time>
      </trkpt>
      <trkpt lat="37.50416" lon="27.54058">
        <ele>94.932</ele>
        <time>2020-12-13T06:52:07Z</time>
      </trkpt>
      <trkpt lat="37.50414" lon="27.54058">
        <ele>94.749</ele>
        <time>2020-12-13T06:52:08Z</time>
      </trkpt>
      <trkpt lat="37.50412" lon="27.54057">
        <ele>94.518</ele>
        <time>2020-12-13T06:52:09Z</time>
      </trkpt>
      <trkpt lat="37.50411" lon="27.54056">
        <ele>94.336</ele>
        <time>2020-12-13T06:52:10Z</time>
      </trkpt>
      <trkpt lat="37.50409" lon="27.54054">
        <ele>94.296</ele>
        <time>2020-12-13T06:52:11Z</time>
      </trkpt>
      <trkpt lat="37.50408" lon="27.54052">
        <ele>94.263</ele>
        <time>2020-12-13T06:52:12Z</time>
      </trkpt>
      <trkpt lat="37.50406" lon="27.5405">
        <ele>94.212</ele>
        <time>2020-12-13T06:52:13Z</time>
      </trkpt>
      <trkpt lat="37.50405" lon="27.54048">
        <ele>94.133</ele>
        <time>2020-12-13T06:52:14Z</time>
      </trkpt>
      <trkpt lat="37.50405" lon="27.54048">
        <ele>94.133</ele>
        <time>2020-12-13T06:52:15Z</time>
      </trkpt>
      <trkpt lat="37.50403" lon="27.54047">
        <ele>93.759</ele>
        <time>2020-12-13T06:52:16Z</time>
      </trkpt>
      <trkpt lat="37.50401" lon="27.54047">
        <ele>93.469</ele>
        <time>2020-12-13T06:52:17Z</time>
      </trkpt>
      <trkpt lat="37.50399" lon="27.54048">
        <ele>93.185</ele>
        <time>2020-12-13T06:52:18Z</time>
      </trkpt>
      <trkpt lat="37.50399" lon="27.54048">
        <ele>93.185</ele>
        <time>2020-12-13T06:52:19Z</time>
      </trkpt>
      <trkpt lat="37.50396" lon="27.54048">
        <ele>92.745</ele>
        <time>2020-12-13T06:52:20Z</time>
      </trkpt>
      <trkpt lat="37.50394" lon="27.54049">
        <ele>92.485</ele>
        <time>2020-12-13T06:52:21Z</time>
      </trkpt>
      <trkpt lat="37.50394" lon="27.54049">
        <ele>92.485</ele>
        <time>2020-12-13T06:52:22Z</time>
      </trkpt>
      <trkpt lat="37.5039" lon="27.54049">
        <ele>91.9</ele>
        <time>2020-12-13T06:52:23Z</time>
      </trkpt>
      <trkpt lat="37.50387" lon="27.54049">
        <ele>91.642</ele>
        <time>2020-12-13T06:52:24Z</time>
      </trkpt>
      <trkpt lat="37.50384" lon="27.54049">
        <ele>91.448</ele>
        <time>2020-12-13T06:52:25Z</time>
      </trkpt>
      <trkpt lat="37.50381" lon="27.5405">
        <ele>91.239</ele>
        <time>2020-12-13T06:52:26Z</time>
      </trkpt>
      <trkpt lat="37.5038" lon="27.54051">
        <ele>91.182</ele>
        <time>2020-12-13T06:52:27Z</time>
      </trkpt>
      <trkpt lat="37.5038" lon="27.54051">
        <ele>91.182</ele>
        <time>2020-12-13T06:52:28Z</time>
      </trkpt>
      <trkpt lat="37.5038" lon="27.54051">
        <ele>91.182</ele>
        <time>2020-12-13T06:52:29Z</time>
      </trkpt>
      <trkpt lat="37.5038" lon="27.54051">
        <ele>91.182</ele>
        <time>2020-12-13T06:52:30Z</time>
      </trkpt>
      <trkpt lat="37.5038" lon="27.54051">
        <ele>91.182</ele>
        <time>2020-12-13T06:52:31Z</time>
      </trkpt>
      <trkpt lat="37.50379" lon="27.54052">
        <ele>91.149</ele>
        <time>2020-12-13T06:52:32Z</time>
      </trkpt>
      <trkpt lat="37.50378" lon="27.54053">
        <ele>91.128</ele>
        <time>2020-12-13T06:52:33Z</time>
      </trkpt>
      <trkpt lat="37.50377" lon="27.54054">
        <ele>91.095</ele>
        <time>2020-12-13T06:52:34Z</time>
      </trkpt>
      <trkpt lat="37.50377" lon="27.54055">
        <ele>91.07</ele>
        <time>2020-12-13T06:52:35Z</time>
      </trkpt>
      <trkpt lat="37.50376" lon="27.54055">
        <ele>91.037</ele>
        <time>2020-12-13T06:52:36Z</time>
      </trkpt>
      <trkpt lat="37.50375" lon="27.54056">
        <ele>91.062</ele>
        <time>2020-12-13T06:52:37Z</time>
      </trkpt>
      <trkpt lat="37.50374" lon="27.54057">
        <ele>91.08</ele>
        <time>2020-12-13T06:52:38Z</time>
      </trkpt>
      <trkpt lat="37.50374" lon="27.54057">
        <ele>91.08</ele>
        <time>2020-12-13T06:52:39Z</time>
      </trkpt>
      <trkpt lat="37.50372" lon="27.5406">
        <ele>91.19</ele>
        <time>2020-12-13T06:52:40Z</time>
      </trkpt>
      <trkpt lat="37.50372" lon="27.5406">
        <ele>91.19</ele>
        <time>2020-12-13T06:52:41Z</time>
      </trkpt>
      <trkpt lat="37.5037" lon="27.5406">
        <ele>91.062</ele>
        <time>2020-12-13T06:52:42Z</time>
      </trkpt>
      <trkpt lat="37.5037" lon="27.5406">
        <ele>91.062</ele>
        <time>2020-12-13T06:52:43Z</time>
      </trkpt>
      <trkpt lat="37.5037" lon="27.5406">
        <ele>91.062</ele>
        <time>2020-12-13T06:52:44Z</time>
      </trkpt>
      <trkpt lat="37.50367" lon="27.54059">
        <ele>90.827</ele>
        <time>2020-12-13T06:52:45Z</time>
      </trkpt>
      <trkpt lat="37.50367" lon="27.54059">
        <ele>90.827</ele>
        <time>2020-12-13T06:52:46Z</time>
      </trkpt>
      <trkpt lat="37.50367" lon="27.54059">
        <ele>90.827</ele>
        <time>2020-12-13T06:52:47Z</time>
      </trkpt>
      <trkpt lat="37.50366" lon="27.54059">
        <ele>90.669</ele>
        <time>2020-12-13T06:52:48Z</time>
      </trkpt>
      <trkpt lat="37.50366" lon="27.54059">
        <ele>90.669</ele>
        <time>2020-12-13T06:52:49Z</time>
      </trkpt>
      <trkpt lat="37.50366" lon="27.54059">
        <ele>90.669</ele>
        <time>2020-12-13T06:52:50Z</time>
      </trkpt>
      <trkpt lat="37.50366" lon="27.54059">
        <ele>90.669</ele>
        <time>2020-12-13T06:52:51Z</time>
      </trkpt>
      <trkpt lat="37.50366" lon="27.54059">
        <ele>90.669</ele>
        <time>2020-12-13T06:52:52Z</time>
      </trkpt>
      <trkpt lat="37.50364" lon="27.54061">
        <ele>90.735</ele>
        <time>2020-12-13T06:52:53Z</time>
      </trkpt>
      <trkpt lat="37.50364" lon="27.54061">
        <ele>90.735</ele>
        <time>2020-12-13T06:52:54Z</time>
      </trkpt>
      <trkpt lat="37.50362" lon="27.54063">
        <ele>90.836</ele>
        <time>2020-12-13T06:52:55Z</time>
      </trkpt>
      <trkpt lat="37.50362" lon="27.54063">
        <ele>90.836</ele>
        <time>2020-12-13T06:52:56Z</time>
      </trkpt>
      <trkpt lat="37.50362" lon="27.54063">
        <ele>90.836</ele>
        <time>2020-12-13T06:52:57Z</time>
      </trkpt>
      <trkpt lat="37.50362" lon="27.54063">
        <ele>90.836</ele>
        <time>2020-12-13T06:52:58Z</time>
      </trkpt>
      <trkpt lat="37.50362" lon="27.54063">
        <ele>90.836</ele>
        <time>2020-12-13T06:52:59Z</time>
      </trkpt>
      <trkpt lat="37.50362" lon="27.54063">
        <ele>90.836</ele>
        <time>2020-12-13T06:53:05Z</time>
      </trkpt>
      <trkpt lat="37.50362" lon="27.54063">
        <ele>90.836</ele>
        <time>2020-12-13T06:53:06Z</time>
      </trkpt>
      <trkpt lat="37.50362" lon="27.54063">
        <ele>90.836</ele>
        <time>2020-12-13T06:53:07Z</time>
      </trkpt>
      <trkpt lat="37.50362" lon="27.54063">
        <ele>90.836</ele>
        <time>2020-12-13T06:54:18Z</time>
      </trkpt>
      <trkpt lat="37.50351" lon="27.54067">
        <ele>90.261</ele>
        <time>2020-12-13T06:54:19Z</time>
      </trkpt>
      <trkpt lat="37.50351" lon="27.54067">
        <ele>90.261</ele>
        <time>2020-12-13T06:54:20Z</time>
      </trkpt>
      <trkpt lat="37.50349" lon="27.54066">
        <ele>90.037</ele>
        <time>2020-12-13T06:54:21Z</time>
      </trkpt>
      <trkpt lat="37.50349" lon="27.54066">
        <ele>90.037</ele>
        <time>2020-12-13T06:54:22Z</time>
      </trkpt>
      <trkpt lat="37.50349" lon="27.54066">
        <ele>90.037</ele>
        <time>2020-12-13T06:54:23Z</time>
      </trkpt>
      <trkpt lat="37.50347" lon="27.54067">
        <ele>89.928</ele>
        <time>2020-12-13T06:54:24Z</time>
      </trkpt>
      <trkpt lat="37.50347" lon="27.54067">
        <ele>89.928</ele>
        <time>2020-12-13T06:54:25Z</time>
      </trkpt>
      <trkpt lat="37.50347" lon="27.54067">
        <ele>89.928</ele>
        <time>2020-12-13T06:54:26Z</time>
      </trkpt>
      <trkpt lat="37.50345" lon="27.54068">
        <ele>89.849</ele>
        <time>2020-12-13T06:54:27Z</time>
      </trkpt>
      <trkpt lat="37.50345" lon="27.54068">
        <ele>89.849</ele>
        <time>2020-12-13T06:54:28Z</time>
      </trkpt>
      <trkpt lat="37.50345" lon="27.54068">
        <ele>89.849</ele>
        <time>2020-12-13T06:54:29Z</time>
      </trkpt>
      <trkpt lat="37.50345" lon="27.54068">
        <ele>89.849</ele>
        <time>2020-12-13T06:54:30Z</time>
      </trkpt>
      <trkpt lat="37.50345" lon="27.54068">
        <ele>89.849</ele>
        <time>2020-12-13T06:54:31Z</time>
      </trkpt>
      <trkpt lat="37.50345" lon="27.54068">
        <ele>89.849</ele>
        <time>2020-12-13T06:54:32Z</time>
      </trkpt>
      <trkpt lat="37.50345" lon="27.54068">
        <ele>89.849</ele>
        <time>2020-12-13T06:54:33Z</time>
      </trkpt>
      <trkpt lat="37.50345" lon="27.54068">
        <ele>89.849</ele>
        <time>2020-12-13T06:54:34Z</time>
      </trkpt>
      <trkpt lat="37.50347" lon="27.54067">
        <ele>89.899</ele>
        <time>2020-12-13T06:54:35Z</time>
      </trkpt>
      <trkpt lat="37.50347" lon="27.54067">
        <ele>89.899</ele>
        <time>2020-12-13T06:54:36Z</time>
      </trkpt>
      <trkpt lat="37.50347" lon="27.54067">
        <ele>89.899</ele>
        <time>2020-12-13T06:54:37Z</time>
      </trkpt>
      <trkpt lat="37.50349" lon="27.54066">
        <ele>89.968</ele>
        <time>2020-12-13T06:54:38Z</time>
      </trkpt>
      <trkpt lat="37.50349" lon="27.54066">
        <ele>89.968</ele>
        <time>2020-12-13T06:54:39Z</time>
      </trkpt>
      <trkpt lat="37.50349" lon="27.54066">
        <ele>89.968</ele>
        <time>2020-12-13T06:54:40Z</time>
      </trkpt>
      <trkpt lat="37.50351" lon="27.54064">
        <ele>89.995</ele>
        <time>2020-12-13T06:54:41Z</time>
      </trkpt>
      <trkpt lat="37.50351" lon="27.54064">
        <ele>89.995</ele>
        <time>2020-12-13T06:54:42Z</time>
      </trkpt>
      <trkpt lat="37.50351" lon="27.54064">
        <ele>89.995</ele>
        <time>2020-12-13T06:54:43Z</time>
      </trkpt>
      <trkpt lat="37.50351" lon="27.54064">
        <ele>89.995</ele>
        <time>2020-12-13T06:54:44Z</time>
      </trkpt>
      <trkpt lat="37.50353" lon="27.54063">
        <ele>90.069</ele>
        <time>2020-12-13T06:54:45Z</time>
      </trkpt>
      <trkpt lat="37.50353" lon="27.54063">
        <ele>90.069</ele>
        <time>2020-12-13T06:54:46Z</time>
      </trkpt>
      <trkpt lat="37.50355" lon="27.54061">
        <ele>89.956</ele>
        <time>2020-12-13T06:54:47Z</time>
      </trkpt>
      <trkpt lat="37.50355" lon="27.54061">
        <ele>89.956</ele>
        <time>2020-12-13T06:54:48Z</time>
      </trkpt>
      <trkpt lat="37.50353" lon="27.5406">
        <ele>89.572</ele>
        <time>2020-12-13T06:54:49Z</time>
      </trkpt>
      <trkpt lat="37.50351" lon="27.54059">
        <ele>89.275</ele>
        <time>2020-12-13T06:54:50Z</time>
      </trkpt>
      <trkpt lat="37.50351" lon="27.54059">
        <ele>89.275</ele>
        <time>2020-12-13T06:54:51Z</time>
      </trkpt>
      <trkpt lat="37.50349" lon="27.54055">
        <ele>88.661</ele>
        <time>2020-12-13T06:54:52Z</time>
      </trkpt>
      <trkpt lat="37.50349" lon="27.54055">
        <ele>88.661</ele>
        <time>2020-12-13T06:54:53Z</time>
      </trkpt>
      <trkpt lat="37.50347" lon="27.54052">
        <ele>88.33</ele>
        <time>2020-12-13T06:54:54Z</time>
      </trkpt>
      <trkpt lat="37.50347" lon="27.54052">
        <ele>88.33</ele>
        <time>2020-12-13T06:54:55Z</time>
      </trkpt>
      <trkpt lat="37.50345" lon="27.54051">
        <ele>88.067</ele>
        <time>2020-12-13T06:54:56Z</time>
      </trkpt>
      <trkpt lat="37.50345" lon="27.54051">
        <ele>88.067</ele>
        <time>2020-12-13T06:54:57Z</time>
      </trkpt>
      <trkpt lat="37.50345" lon="27.54051">
        <ele>88.067</ele>
        <time>2020-12-13T06:54:58Z</time>
      </trkpt>
      <trkpt lat="37.50345" lon="27.54051">
        <ele>88.067</ele>
        <time>2020-12-13T06:54:59Z</time>
      </trkpt>
      <trkpt lat="37.50343" lon="27.54052">
        <ele>87.852</ele>
        <time>2020-12-13T06:55:00Z</time>
      </trkpt>
      <trkpt lat="37.50343" lon="27.54052">
        <ele>87.852</ele>
        <time>2020-12-13T06:55:01Z</time>
      </trkpt>
      <trkpt lat="37.50343" lon="27.54052">
        <ele>87.852</ele>
        <time>2020-12-13T06:55:02Z</time>
      </trkpt>
      <trkpt lat="37.5034" lon="27.5405">
        <ele>87.556</ele>
        <time>2020-12-13T06:55:03Z</time>
      </trkpt>
      <trkpt lat="37.5034" lon="27.5405">
        <ele>87.556</ele>
        <time>2020-12-13T06:55:04Z</time>
      </trkpt>
      <trkpt lat="37.50338" lon="27.54049">
        <ele>87.272</ele>
        <time>2020-12-13T06:55:05Z</time>
      </trkpt>
      <trkpt lat="37.50338" lon="27.54049">
        <ele>87.272</ele>
        <time>2020-12-13T06:55:06Z</time>
      </trkpt>
      <trkpt lat="37.50338" lon="27.54049">
        <ele>87.272</ele>
        <time>2020-12-13T06:55:07Z</time>
      </trkpt>
      <trkpt lat="37.50335" lon="27.5405">
        <ele>86.973</ele>
        <time>2020-12-13T06:55:08Z</time>
      </trkpt>
      <trkpt lat="37.50335" lon="27.5405">
        <ele>86.973</ele>
        <time>2020-12-13T06:55:09Z</time>
      </trkpt>
      <trkpt lat="37.50335" lon="27.5405">
        <ele>86.973</ele>
        <time>2020-12-13T06:55:10Z</time>
      </trkpt>
      <trkpt lat="37.50335" lon="27.5405">
        <ele>86.973</ele>
        <time>2020-12-13T06:55:11Z</time>
      </trkpt>
      <trkpt lat="37.50335" lon="27.5405">
        <ele>86.973</ele>
        <time>2020-12-13T06:55:12Z</time>
      </trkpt>
      <trkpt lat="37.50334" lon="27.54051">
        <ele>86.915</ele>
        <time>2020-12-13T06:55:13Z</time>
      </trkpt>
      <trkpt lat="37.50333" lon="27.54052">
        <ele>86.851</ele>
        <time>2020-12-13T06:55:14Z</time>
      </trkpt>
      <trkpt lat="37.50332" lon="27.54053">
        <ele>86.678</ele>
        <time>2020-12-13T06:55:15Z</time>
      </trkpt>
      <trkpt lat="37.50331" lon="27.54054">
        <ele>86.523</ele>
        <time>2020-12-13T06:55:16Z</time>
      </trkpt>
      <trkpt lat="37.50331" lon="27.54055">
        <ele>86.364</ele>
        <time>2020-12-13T06:55:17Z</time>
      </trkpt>
      <trkpt lat="37.5033" lon="27.54056">
        <ele>86.239</ele>
        <time>2020-12-13T06:55:18Z</time>
      </trkpt>
      <trkpt lat="37.50329" lon="27.54057">
        <ele>86.155</ele>
        <time>2020-12-13T06:55:19Z</time>
      </trkpt>
      <trkpt lat="37.50328" lon="27.54058">
        <ele>86.1</ele>
        <time>2020-12-13T06:55:20Z</time>
      </trkpt>
      <trkpt lat="37.5032" lon="27.54064">
        <ele>84.883</ele>
        <time>2020-12-13T06:55:21Z</time>
      </trkpt>
      <trkpt lat="37.50319" lon="27.54064">
        <ele>84.844</ele>
        <time>2020-12-13T06:55:22Z</time>
      </trkpt>
      <trkpt lat="37.50319" lon="27.54064">
        <ele>84.814</ele>
        <time>2020-12-13T06:55:23Z</time>
      </trkpt>
      <trkpt lat="37.50319" lon="27.54065">
        <ele>84.774</ele>
        <time>2020-12-13T06:55:24Z</time>
      </trkpt>
      <trkpt lat="37.50318" lon="27.54065">
        <ele>84.734</ele>
        <time>2020-12-13T06:55:25Z</time>
      </trkpt>
      <trkpt lat="37.50318" lon="27.54065">
        <ele>84.734</ele>
        <time>2020-12-13T06:55:26Z</time>
      </trkpt>
      <trkpt lat="37.50316" lon="27.54066">
        <ele>84.217</ele>
        <time>2020-12-13T06:55:27Z</time>
      </trkpt>
      <trkpt lat="37.50314" lon="27.54066">
        <ele>83.684</ele>
        <time>2020-12-13T06:55:28Z</time>
      </trkpt>
      <trkpt lat="37.50311" lon="27.54067">
        <ele>83.176</ele>
        <time>2020-12-13T06:55:29Z</time>
      </trkpt>
      <trkpt lat="37.50309" lon="27.54067">
        <ele>82.637</ele>
        <time>2020-12-13T06:55:30Z</time>
      </trkpt>
      <trkpt lat="37.50306" lon="27.54068">
        <ele>82.084</ele>
        <time>2020-12-13T06:55:31Z</time>
      </trkpt>
      <trkpt lat="37.50304" lon="27.54068">
        <ele>81.53</ele>
        <time>2020-12-13T06:55:32Z</time>
      </trkpt>
      <trkpt lat="37.50304" lon="27.54068">
        <ele>81.53</ele>
        <time>2020-12-13T06:55:33Z</time>
      </trkpt>
      <trkpt lat="37.50302" lon="27.54067">
        <ele>80.902</ele>
        <time>2020-12-13T06:55:34Z</time>
      </trkpt>
      <trkpt lat="37.50302" lon="27.54067">
        <ele>80.902</ele>
        <time>2020-12-13T06:55:35Z</time>
      </trkpt>
      <trkpt lat="37.50302" lon="27.54067">
        <ele>80.902</ele>
        <time>2020-12-13T06:55:36Z</time>
      </trkpt>
      <trkpt lat="37.50299" lon="27.54068">
        <ele>80.247</ele>
        <time>2020-12-13T06:55:37Z</time>
      </trkpt>
      <trkpt lat="37.50299" lon="27.54068">
        <ele>80.247</ele>
        <time>2020-12-13T06:55:38Z</time>
      </trkpt>
      <trkpt lat="37.50299" lon="27.54068">
        <ele>80.247</ele>
        <time>2020-12-13T06:55:39Z</time>
      </trkpt>
      <trkpt lat="37.50299" lon="27.54068">
        <ele>80.247</ele>
        <time>2020-12-13T06:55:40Z</time>
      </trkpt>
      <trkpt lat="37.50299" lon="27.54068">
        <ele>80.247</ele>
        <time>2020-12-13T06:55:41Z</time>
      </trkpt>
      <trkpt lat="37.50298" lon="27.54069">
        <ele>80.167</ele>
        <time>2020-12-13T06:55:42Z</time>
      </trkpt>
      <trkpt lat="37.50298" lon="27.5407">
        <ele>80.111</ele>
        <time>2020-12-13T06:55:43Z</time>
      </trkpt>
      <trkpt lat="37.50297" lon="27.54072">
        <ele>80.024</ele>
        <time>2020-12-13T06:55:44Z</time>
      </trkpt>
      <trkpt lat="37.50297" lon="27.54073">
        <ele>79.963</ele>
        <time>2020-12-13T06:55:45Z</time>
      </trkpt>
      <trkpt lat="37.50296" lon="27.54074">
        <ele>79.87</ele>
        <time>2020-12-13T06:55:46Z</time>
      </trkpt>
      <trkpt lat="37.50296" lon="27.54076">
        <ele>79.771</ele>
        <time>2020-12-13T06:55:47Z</time>
      </trkpt>
      <trkpt lat="37.50295" lon="27.54077">
        <ele>79.694</ele>
        <time>2020-12-13T06:55:48Z</time>
      </trkpt>
      <trkpt lat="37.50295" lon="27.54078">
        <ele>79.589</ele>
        <time>2020-12-13T06:55:49Z</time>
      </trkpt>
      <trkpt lat="37.50293" lon="27.54085">
        <ele>79.237</ele>
        <time>2020-12-13T06:55:50Z</time>
      </trkpt>
      <trkpt lat="37.50292" lon="27.54085">
        <ele>79.107</ele>
        <time>2020-12-13T06:55:51Z</time>
      </trkpt>
      <trkpt lat="37.50292" lon="27.54086">
        <ele>79.01</ele>
        <time>2020-12-13T06:55:52Z</time>
      </trkpt>
      <trkpt lat="37.50292" lon="27.54086">
        <ele>78.882</ele>
        <time>2020-12-13T06:55:53Z</time>
      </trkpt>
      <trkpt lat="37.50291" lon="27.54087">
        <ele>78.755</ele>
        <time>2020-12-13T06:55:54Z</time>
      </trkpt>
      <trkpt lat="37.50291" lon="27.54087">
        <ele>78.755</ele>
        <time>2020-12-13T06:55:55Z</time>
      </trkpt>
      <trkpt lat="37.50286" lon="27.5409">
        <ele>77.126</ele>
        <time>2020-12-13T06:55:56Z</time>
      </trkpt>
      <trkpt lat="37.50282" lon="27.5409">
        <ele>76.059</ele>
        <time>2020-12-13T06:55:57Z</time>
      </trkpt>
      <trkpt lat="37.5028" lon="27.54091">
        <ele>75.572</ele>
        <time>2020-12-13T06:55:58Z</time>
      </trkpt>
      <trkpt lat="37.50278" lon="27.54091">
        <ele>75.059</ele>
        <time>2020-12-13T06:55:59Z</time>
      </trkpt>
      <trkpt lat="37.50276" lon="27.54091">
        <ele>74.887</ele>
        <time>2020-12-13T06:56:00Z</time>
      </trkpt>
      <trkpt lat="37.50274" lon="27.54091">
        <ele>74.721</ele>
        <time>2020-12-13T06:56:01Z</time>
      </trkpt>
      <trkpt lat="37.50271" lon="27.54092">
        <ele>74.541</ele>
        <time>2020-12-13T06:56:02Z</time>
      </trkpt>
      <trkpt lat="37.50269" lon="27.54093">
        <ele>74.389</ele>
        <time>2020-12-13T06:56:03Z</time>
      </trkpt>
      <trkpt lat="37.50267" lon="27.54094">
        <ele>74.253</ele>
        <time>2020-12-13T06:56:04Z</time>
      </trkpt>
      <trkpt lat="37.50266" lon="27.54094">
        <ele>74.116</ele>
        <time>2020-12-13T06:56:05Z</time>
      </trkpt>
      <trkpt lat="37.50263" lon="27.54094">
        <ele>73.965</ele>
        <time>2020-12-13T06:56:06Z</time>
      </trkpt>
      <trkpt lat="37.50261" lon="27.54094">
        <ele>73.821</ele>
        <time>2020-12-13T06:56:07Z</time>
      </trkpt>
      <trkpt lat="37.50259" lon="27.54095">
        <ele>73.677</ele>
        <time>2020-12-13T06:56:08Z</time>
      </trkpt>
      <trkpt lat="37.50259" lon="27.54095">
        <ele>73.677</ele>
        <time>2020-12-13T06:56:09Z</time>
      </trkpt>
      <trkpt lat="37.50257" lon="27.54097">
        <ele>73.468</ele>
        <time>2020-12-13T06:56:10Z</time>
      </trkpt>
      <trkpt lat="37.50257" lon="27.54097">
        <ele>73.468</ele>
        <time>2020-12-13T06:56:11Z</time>
      </trkpt>
      <trkpt lat="37.50254" lon="27.54099">
        <ele>73.302</ele>
        <time>2020-12-13T06:56:12Z</time>
      </trkpt>
      <trkpt lat="37.50254" lon="27.54099">
        <ele>73.302</ele>
        <time>2020-12-13T06:56:13Z</time>
      </trkpt>
      <trkpt lat="37.50253" lon="27.541">
        <ele>73.187</ele>
        <time>2020-12-13T06:56:14Z</time>
      </trkpt>
      <trkpt lat="37.50253" lon="27.541">
        <ele>73.187</ele>
        <time>2020-12-13T06:56:15Z</time>
      </trkpt>
      <trkpt lat="37.50251" lon="27.54101">
        <ele>73.057</ele>
        <time>2020-12-13T06:56:16Z</time>
      </trkpt>
      <trkpt lat="37.50251" lon="27.54101">
        <ele>73.057</ele>
        <time>2020-12-13T06:56:17Z</time>
      </trkpt>
      <trkpt lat="37.50248" lon="27.54102">
        <ele>72.697</ele>
        <time>2020-12-13T06:56:18Z</time>
      </trkpt>
      <trkpt lat="37.50248" lon="27.54102">
        <ele>72.697</ele>
        <time>2020-12-13T06:56:19Z</time>
      </trkpt>
      <trkpt lat="37.50246" lon="27.54101">
        <ele>72.396</ele>
        <time>2020-12-13T06:56:20Z</time>
      </trkpt>
      <trkpt lat="37.50246" lon="27.54101">
        <ele>72.396</ele>
        <time>2020-12-13T06:56:21Z</time>
      </trkpt>
      <trkpt lat="37.50246" lon="27.54101">
        <ele>72.396</ele>
        <time>2020-12-13T06:56:22Z</time>
      </trkpt>
      <trkpt lat="37.50244" lon="27.54104">
        <ele>72.179</ele>
        <time>2020-12-13T06:56:23Z</time>
      </trkpt>
      <trkpt lat="37.50244" lon="27.54104">
        <ele>72.179</ele>
        <time>2020-12-13T06:56:24Z</time>
      </trkpt>
      <trkpt lat="37.50244" lon="27.54104">
        <ele>72.179</ele>
        <time>2020-12-13T06:56:25Z</time>
      </trkpt>
      <trkpt lat="37.50242" lon="27.54105">
        <ele>71.776</ele>
        <time>2020-12-13T06:56:26Z</time>
      </trkpt>
      <trkpt lat="37.50242" lon="27.54105">
        <ele>71.776</ele>
        <time>2020-12-13T06:56:27Z</time>
      </trkpt>
      <trkpt lat="37.50242" lon="27.54105">
        <ele>71.776</ele>
        <time>2020-12-13T06:56:28Z</time>
      </trkpt>
      <trkpt lat="37.50242" lon="27.54105">
        <ele>71.776</ele>
        <time>2020-12-13T06:56:29Z</time>
      </trkpt>
      <trkpt lat="37.50239" lon="27.54105">
        <ele>71.373</ele>
        <time>2020-12-13T06:56:30Z</time>
      </trkpt>
      <trkpt lat="37.50239" lon="27.54105">
        <ele>71.373</ele>
        <time>2020-12-13T06:56:31Z</time>
      </trkpt>
      <trkpt lat="37.50237" lon="27.54107">
        <ele>71.07</ele>
        <time>2020-12-13T06:56:32Z</time>
      </trkpt>
      <trkpt lat="37.50237" lon="27.54107">
        <ele>71.07</ele>
        <time>2020-12-13T06:56:33Z</time>
      </trkpt>
      <trkpt lat="37.50235" lon="27.54109">
        <ele>70.811</ele>
        <time>2020-12-13T06:56:34Z</time>
      </trkpt>
      <trkpt lat="37.50235" lon="27.54109">
        <ele>70.811</ele>
        <time>2020-12-13T06:56:35Z</time>
      </trkpt>
      <trkpt lat="37.50233" lon="27.54111">
        <ele>70.523</ele>
        <time>2020-12-13T06:56:36Z</time>
      </trkpt>
      <trkpt lat="37.50233" lon="27.54111">
        <ele>70.523</ele>
        <time>2020-12-13T06:56:37Z</time>
      </trkpt>
      <trkpt lat="37.50233" lon="27.54111">
        <ele>70.523</ele>
        <time>2020-12-13T06:56:38Z</time>
      </trkpt>
      <trkpt lat="37.5023" lon="27.54113">
        <ele>70.091</ele>
        <time>2020-12-13T06:56:39Z</time>
      </trkpt>
      <trkpt lat="37.5023" lon="27.54113">
        <ele>70.091</ele>
        <time>2020-12-13T06:56:40Z</time>
      </trkpt>
      <trkpt lat="37.5023" lon="27.54113">
        <ele>70.091</ele>
        <time>2020-12-13T06:56:41Z</time>
      </trkpt>
      <trkpt lat="37.50228" lon="27.54113">
        <ele>69.759</ele>
        <time>2020-12-13T06:56:42Z</time>
      </trkpt>
      <trkpt lat="37.50228" lon="27.54113">
        <ele>69.759</ele>
        <time>2020-12-13T06:56:43Z</time>
      </trkpt>
      <trkpt lat="37.50228" lon="27.54113">
        <ele>69.759</ele>
        <time>2020-12-13T06:56:44Z</time>
      </trkpt>
      <trkpt lat="37.50226" lon="27.54114">
        <ele>69.472</ele>
        <time>2020-12-13T06:56:45Z</time>
      </trkpt>
      <trkpt lat="37.50226" lon="27.54114">
        <ele>69.472</ele>
        <time>2020-12-13T06:56:46Z</time>
      </trkpt>
      <trkpt lat="37.50226" lon="27.54114">
        <ele>69.472</ele>
        <time>2020-12-13T06:56:47Z</time>
      </trkpt>
      <trkpt lat="37.50223" lon="27.54115">
        <ele>69.155</ele>
        <time>2020-12-13T06:56:48Z</time>
      </trkpt>
      <trkpt lat="37.50223" lon="27.54115">
        <ele>69.155</ele>
        <time>2020-12-13T06:56:49Z</time>
      </trkpt>
      <trkpt lat="37.50223" lon="27.54115">
        <ele>69.155</ele>
        <time>2020-12-13T06:56:50Z</time>
      </trkpt>
      <trkpt lat="37.50221" lon="27.54116">
        <ele>68.565</ele>
        <time>2020-12-13T06:56:51Z</time>
      </trkpt>
      <trkpt lat="37.50221" lon="27.54116">
        <ele>68.565</ele>
        <time>2020-12-13T06:56:52Z</time>
      </trkpt>
      <trkpt lat="37.5022" lon="27.54113">
        <ele>68.441</ele>
        <time>2020-12-13T06:56:53Z</time>
      </trkpt>
      <trkpt lat="37.5022" lon="27.54113">
        <ele>68.441</ele>
        <time>2020-12-13T06:56:54Z</time>
      </trkpt>
      <trkpt lat="37.5022" lon="27.54113">
        <ele>68.441</ele>
        <time>2020-12-13T06:56:55Z</time>
      </trkpt>
      <trkpt lat="37.50219" lon="27.5411">
        <ele>68.27</ele>
        <time>2020-12-13T06:56:56Z</time>
      </trkpt>
      <trkpt lat="37.50219" lon="27.5411">
        <ele>68.27</ele>
        <time>2020-12-13T06:56:57Z</time>
      </trkpt>
      <trkpt lat="37.50219" lon="27.5411">
        <ele>68.27</ele>
        <time>2020-12-13T06:56:58Z</time>
      </trkpt>
      <trkpt lat="37.50219" lon="27.5411">
        <ele>68.27</ele>
        <time>2020-12-13T06:56:59Z</time>
      </trkpt>
      <trkpt lat="37.50218" lon="27.54108">
        <ele>67.994</ele>
        <time>2020-12-13T06:57:00Z</time>
      </trkpt>
      <trkpt lat="37.50218" lon="27.54108">
        <ele>67.994</ele>
        <time>2020-12-13T06:57:01Z</time>
      </trkpt>
      <trkpt lat="37.50218" lon="27.54108">
        <ele>67.994</ele>
        <time>2020-12-13T06:57:02Z</time>
      </trkpt>
      <trkpt lat="37.50218" lon="27.54108">
        <ele>67.994</ele>
        <time>2020-12-13T06:57:03Z</time>
      </trkpt>
      <trkpt lat="37.50218" lon="27.54108">
        <ele>67.994</ele>
        <time>2020-12-13T06:57:04Z</time>
      </trkpt>
      <trkpt lat="37.50217" lon="27.54108">
        <ele>67.821</ele>
        <time>2020-12-13T06:57:05Z</time>
      </trkpt>
      <trkpt lat="37.50217" lon="27.54108">
        <ele>67.65</ele>
        <time>2020-12-13T06:57:06Z</time>
      </trkpt>
      <trkpt lat="37.50216" lon="27.54108">
        <ele>67.476</ele>
        <time>2020-12-13T06:57:07Z</time>
      </trkpt>
      <trkpt lat="37.50215" lon="27.54108">
        <ele>67.304</ele>
        <time>2020-12-13T06:57:08Z</time>
      </trkpt>
      <trkpt lat="37.50215" lon="27.54109">
        <ele>67.13</ele>
        <time>2020-12-13T06:57:09Z</time>
      </trkpt>
      <trkpt lat="37.50214" lon="27.54109">
        <ele>66.957</ele>
        <time>2020-12-13T06:57:10Z</time>
      </trkpt>
      <trkpt lat="37.50213" lon="27.54109">
        <ele>66.809</ele>
        <time>2020-12-13T06:57:11Z</time>
      </trkpt>
      <trkpt lat="37.50213" lon="27.54109">
        <ele>66.636</ele>
        <time>2020-12-13T06:57:12Z</time>
      </trkpt>
      <trkpt lat="37.50212" lon="27.54109">
        <ele>66.46</ele>
        <time>2020-12-13T06:57:13Z</time>
      </trkpt>
      <trkpt lat="37.50211" lon="27.54109">
        <ele>66.286</ele>
        <time>2020-12-13T06:57:14Z</time>
      </trkpt>
      <trkpt lat="37.50211" lon="27.54109">
        <ele>66.11</ele>
        <time>2020-12-13T06:57:15Z</time>
      </trkpt>
      <trkpt lat="37.5021" lon="27.54109">
        <ele>65.935</ele>
        <time>2020-12-13T06:57:16Z</time>
      </trkpt>
      <trkpt lat="37.50209" lon="27.54109">
        <ele>65.758</ele>
        <time>2020-12-13T06:57:17Z</time>
      </trkpt>
      <trkpt lat="37.50208" lon="27.54109">
        <ele>65.508</ele>
        <time>2020-12-13T06:57:18Z</time>
      </trkpt>
      <trkpt lat="37.50207" lon="27.5411">
        <ele>65.253</ele>
        <time>2020-12-13T06:57:19Z</time>
      </trkpt>
      <trkpt lat="37.50206" lon="27.5411">
        <ele>65</ele>
        <time>2020-12-13T06:57:20Z</time>
      </trkpt>
      <trkpt lat="37.50205" lon="27.5411">
        <ele>64.743</ele>
        <time>2020-12-13T06:57:21Z</time>
      </trkpt>
      <trkpt lat="37.50204" lon="27.5411">
        <ele>64.491</ele>
        <time>2020-12-13T06:57:22Z</time>
      </trkpt>
      <trkpt lat="37.50203" lon="27.5411">
        <ele>64.235</ele>
        <time>2020-12-13T06:57:23Z</time>
      </trkpt>
      <trkpt lat="37.50202" lon="27.5411">
        <ele>63.976</ele>
        <time>2020-12-13T06:57:24Z</time>
      </trkpt>
      <trkpt lat="37.50201" lon="27.5411">
        <ele>63.722</ele>
        <time>2020-12-13T06:57:25Z</time>
      </trkpt>
      <trkpt lat="37.50201" lon="27.5411">
        <ele>63.722</ele>
        <time>2020-12-13T06:57:26Z</time>
      </trkpt>
      <trkpt lat="37.50201" lon="27.5411">
        <ele>63.722</ele>
        <time>2020-12-13T06:57:27Z</time>
      </trkpt>
      <trkpt lat="37.50201" lon="27.5411">
        <ele>63.722</ele>
        <time>2020-12-13T06:57:28Z</time>
      </trkpt>
      <trkpt lat="37.502" lon="27.54112">
        <ele>63.5</ele>
        <time>2020-12-13T06:57:29Z</time>
      </trkpt>
      <trkpt lat="37.502" lon="27.54114">
        <ele>63.325</ele>
        <time>2020-12-13T06:57:30Z</time>
      </trkpt>
      <trkpt lat="37.50199" lon="27.54115">
        <ele>63.147</ele>
        <time>2020-12-13T06:57:31Z</time>
      </trkpt>
      <trkpt lat="37.50198" lon="27.54117">
        <ele>62.972</ele>
        <time>2020-12-13T06:57:32Z</time>
      </trkpt>
      <trkpt lat="37.50198" lon="27.54118">
        <ele>62.82</ele>
        <time>2020-12-13T06:57:33Z</time>
      </trkpt>
      <trkpt lat="37.50197" lon="27.5412">
        <ele>62.645</ele>
        <time>2020-12-13T06:57:34Z</time>
      </trkpt>
      <trkpt lat="37.50196" lon="27.54122">
        <ele>62.467</ele>
        <time>2020-12-13T06:57:35Z</time>
      </trkpt>
      <trkpt lat="37.50196" lon="27.54123">
        <ele>62.292</ele>
        <time>2020-12-13T06:57:36Z</time>
      </trkpt>
      <trkpt lat="37.50195" lon="27.54125">
        <ele>62.114</ele>
        <time>2020-12-13T06:57:37Z</time>
      </trkpt>
      <trkpt lat="37.50194" lon="27.54126">
        <ele>61.947</ele>
        <time>2020-12-13T06:57:38Z</time>
      </trkpt>
      <trkpt lat="37.50194" lon="27.54126">
        <ele>61.947</ele>
        <time>2020-12-13T06:57:39Z</time>
      </trkpt>
      <trkpt lat="37.50193" lon="27.54129">
        <ele>61.608</ele>
        <time>2020-12-13T06:57:40Z</time>
      </trkpt>
      <trkpt lat="37.50193" lon="27.54129">
        <ele>61.608</ele>
        <time>2020-12-13T06:57:41Z</time>
      </trkpt>
      <trkpt lat="37.50193" lon="27.54129">
        <ele>61.608</ele>
        <time>2020-12-13T06:57:42Z</time>
      </trkpt>
      <trkpt lat="37.50193" lon="27.54129">
        <ele>61.608</ele>
        <time>2020-12-13T06:57:43Z</time>
      </trkpt>
      <trkpt lat="37.50189" lon="27.5413">
        <ele>60.73</ele>
        <time>2020-12-13T06:57:44Z</time>
      </trkpt>
      <trkpt lat="37.50188" lon="27.5413">
        <ele>60.617</ele>
        <time>2020-12-13T06:57:45Z</time>
      </trkpt>
      <trkpt lat="37.50188" lon="27.5413">
        <ele>60.526</ele>
        <time>2020-12-13T06:57:46Z</time>
      </trkpt>
      <trkpt lat="37.50188" lon="27.5413">
        <ele>60.411</ele>
        <time>2020-12-13T06:57:47Z</time>
      </trkpt>
      <trkpt lat="37.50187" lon="27.5413">
        <ele>60.298</ele>
        <time>2020-12-13T06:57:48Z</time>
      </trkpt>
      <trkpt lat="37.50184" lon="27.54131">
        <ele>59.538</ele>
        <time>2020-12-13T06:57:49Z</time>
      </trkpt>
      <trkpt lat="37.50184" lon="27.54131">
        <ele>59.538</ele>
        <time>2020-12-13T06:57:50Z</time>
      </trkpt>
      <trkpt lat="37.50184" lon="27.54131">
        <ele>59.538</ele>
        <time>2020-12-13T06:57:51Z</time>
      </trkpt>
      <trkpt lat="37.50184" lon="27.54131">
        <ele>59.538</ele>
        <time>2020-12-13T06:57:52Z</time>
      </trkpt>
      <trkpt lat="37.50184" lon="27.54131">
        <ele>59.538</ele>
        <time>2020-12-13T06:57:53Z</time>
      </trkpt>
      <trkpt lat="37.50183" lon="27.54132">
        <ele>59.402</ele>
        <time>2020-12-13T06:57:54Z</time>
      </trkpt>
      <trkpt lat="37.50183" lon="27.54132">
        <ele>59.262</ele>
        <time>2020-12-13T06:57:55Z</time>
      </trkpt>
      <trkpt lat="37.50182" lon="27.54133">
        <ele>59.122</ele>
        <time>2020-12-13T06:57:56Z</time>
      </trkpt>
      <trkpt lat="37.50182" lon="27.54134">
        <ele>58.98</ele>
        <time>2020-12-13T06:57:57Z</time>
      </trkpt>
      <trkpt lat="37.50181" lon="27.54135">
        <ele>58.834</ele>
        <time>2020-12-13T06:57:58Z</time>
      </trkpt>
      <trkpt lat="37.50181" lon="27.54135">
        <ele>58.689</ele>
        <time>2020-12-13T06:57:59Z</time>
      </trkpt>
      <trkpt lat="37.5018" lon="27.54136">
        <ele>58.516</ele>
        <time>2020-12-13T06:58:00Z</time>
      </trkpt>
      <trkpt lat="37.5018" lon="27.54137">
        <ele>58.365</ele>
        <time>2020-12-13T06:58:01Z</time>
      </trkpt>
      <trkpt lat="37.50179" lon="27.54138">
        <ele>58.213</ele>
        <time>2020-12-13T06:58:02Z</time>
      </trkpt>
      <trkpt lat="37.50179" lon="27.54138">
        <ele>58.06</ele>
        <time>2020-12-13T06:58:03Z</time>
      </trkpt>
      <trkpt lat="37.50178" lon="27.54139">
        <ele>57.916</ele>
        <time>2020-12-13T06:58:04Z</time>
      </trkpt>
      <trkpt lat="37.50178" lon="27.5414">
        <ele>57.844</ele>
        <time>2020-12-13T06:58:05Z</time>
      </trkpt>
      <trkpt lat="37.50176" lon="27.5414">
        <ele>57.509</ele>
        <time>2020-12-13T06:58:06Z</time>
      </trkpt>
      <trkpt lat="37.50175" lon="27.5414">
        <ele>57.145</ele>
        <time>2020-12-13T06:58:07Z</time>
      </trkpt>
      <trkpt lat="37.50173" lon="27.54141">
        <ele>56.803</ele>
        <time>2020-12-13T06:58:08Z</time>
      </trkpt>
      <trkpt lat="37.50172" lon="27.54141">
        <ele>56.432</ele>
        <time>2020-12-13T06:58:09Z</time>
      </trkpt>
      <trkpt lat="37.50171" lon="27.54141">
        <ele>56.083</ele>
        <time>2020-12-13T06:58:10Z</time>
      </trkpt>
      <trkpt lat="37.50169" lon="27.54142">
        <ele>55.705</ele>
        <time>2020-12-13T06:58:11Z</time>
      </trkpt>
      <trkpt lat="37.50168" lon="27.54142">
        <ele>55.346</ele>
        <time>2020-12-13T06:58:12Z</time>
      </trkpt>
      <trkpt lat="37.50166" lon="27.54142">
        <ele>55.041</ele>
        <time>2020-12-13T06:58:13Z</time>
      </trkpt>
      <trkpt lat="37.50165" lon="27.54142">
        <ele>54.875</ele>
        <time>2020-12-13T06:58:14Z</time>
      </trkpt>
      <trkpt lat="37.50163" lon="27.54143">
        <ele>54.692</ele>
        <time>2020-12-13T06:58:15Z</time>
      </trkpt>
      <trkpt lat="37.50162" lon="27.54143">
        <ele>54.517</ele>
        <time>2020-12-13T06:58:16Z</time>
      </trkpt>
      <trkpt lat="37.5016" lon="27.54143">
        <ele>54.325</ele>
        <time>2020-12-13T06:58:17Z</time>
      </trkpt>
      <trkpt lat="37.50158" lon="27.54143">
        <ele>54.064</ele>
        <time>2020-12-13T06:58:18Z</time>
      </trkpt>
      <trkpt lat="37.50158" lon="27.54143">
        <ele>54.064</ele>
        <time>2020-12-13T06:58:19Z</time>
      </trkpt>
      <trkpt lat="37.50156" lon="27.54146">
        <ele>53.729</ele>
        <time>2020-12-13T06:58:20Z</time>
      </trkpt>
      <trkpt lat="37.50156" lon="27.54146">
        <ele>53.729</ele>
        <time>2020-12-13T06:58:21Z</time>
      </trkpt>
      <trkpt lat="37.50155" lon="27.54148">
        <ele>53.548</ele>
        <time>2020-12-13T06:58:22Z</time>
      </trkpt>
      <trkpt lat="37.50155" lon="27.54148">
        <ele>53.548</ele>
        <time>2020-12-13T06:58:23Z</time>
      </trkpt>
      <trkpt lat="37.50155" lon="27.54148">
        <ele>53.548</ele>
        <time>2020-12-13T06:58:24Z</time>
      </trkpt>
      <trkpt lat="37.50154" lon="27.54152">
        <ele>53.316</ele>
        <time>2020-12-13T06:58:25Z</time>
      </trkpt>
      <trkpt lat="37.50154" lon="27.54152">
        <ele>53.316</ele>
        <time>2020-12-13T06:58:26Z</time>
      </trkpt>
      <trkpt lat="37.50154" lon="27.54154">
        <ele>53.252</ele>
        <time>2020-12-13T06:58:27Z</time>
      </trkpt>
      <trkpt lat="37.50154" lon="27.54154">
        <ele>53.252</ele>
        <time>2020-12-13T06:58:28Z</time>
      </trkpt>
      <trkpt lat="37.50154" lon="27.54157">
        <ele>53.067</ele>
        <time>2020-12-13T06:58:29Z</time>
      </trkpt>
      <trkpt lat="37.50154" lon="27.54157">
        <ele>53.067</ele>
        <time>2020-12-13T06:58:30Z</time>
      </trkpt>
      <trkpt lat="37.50152" lon="27.54158">
        <ele>52.538</ele>
        <time>2020-12-13T06:58:31Z</time>
      </trkpt>
      <trkpt lat="37.50149" lon="27.5416">
        <ele>52.033</ele>
        <time>2020-12-13T06:58:32Z</time>
      </trkpt>
      <trkpt lat="37.50148" lon="27.5416">
        <ele>51.608</ele>
        <time>2020-12-13T06:58:33Z</time>
      </trkpt>
      <trkpt lat="37.50148" lon="27.5416">
        <ele>51.608</ele>
        <time>2020-12-13T06:58:34Z</time>
      </trkpt>
      <trkpt lat="37.50146" lon="27.54161">
        <ele>51.098</ele>
        <time>2020-12-13T06:58:35Z</time>
      </trkpt>
      <trkpt lat="37.50146" lon="27.54161">
        <ele>51.098</ele>
        <time>2020-12-13T06:58:36Z</time>
      </trkpt>
      <trkpt lat="37.50143" lon="27.54161">
        <ele>50.492</ele>
        <time>2020-12-13T06:58:37Z</time>
      </trkpt>
      <trkpt lat="37.50143" lon="27.54161">
        <ele>50.492</ele>
        <time>2020-12-13T06:58:38Z</time>
      </trkpt>
      <trkpt lat="37.50141" lon="27.54162">
        <ele>49.911</ele>
        <time>2020-12-13T06:58:39Z</time>
      </trkpt>
      <trkpt lat="37.50141" lon="27.54162">
        <ele>49.911</ele>
        <time>2020-12-13T06:58:40Z</time>
      </trkpt>
      <trkpt lat="37.50138" lon="27.54162">
        <ele>49.369</ele>
        <time>2020-12-13T06:58:41Z</time>
      </trkpt>
      <trkpt lat="37.50138" lon="27.54162">
        <ele>49.369</ele>
        <time>2020-12-13T06:58:42Z</time>
      </trkpt>
      <trkpt lat="37.50135" lon="27.54163">
        <ele>48.887</ele>
        <time>2020-12-13T06:58:43Z</time>
      </trkpt>
      <trkpt lat="37.50135" lon="27.54163">
        <ele>48.887</ele>
        <time>2020-12-13T06:58:44Z</time>
      </trkpt>
      <trkpt lat="37.50133" lon="27.54164">
        <ele>48.438</ele>
        <time>2020-12-13T06:58:45Z</time>
      </trkpt>
      <trkpt lat="37.50133" lon="27.54164">
        <ele>48.438</ele>
        <time>2020-12-13T06:58:46Z</time>
      </trkpt>
      <trkpt lat="37.5013" lon="27.54164">
        <ele>48.056</ele>
        <time>2020-12-13T06:58:47Z</time>
      </trkpt>
      <trkpt lat="37.50128" lon="27.54165">
        <ele>47.674</ele>
        <time>2020-12-13T06:58:48Z</time>
      </trkpt>
      <trkpt lat="37.50126" lon="27.54167">
        <ele>47.103</ele>
        <time>2020-12-13T06:58:49Z</time>
      </trkpt>
      <trkpt lat="37.50124" lon="27.54169">
        <ele>46.723</ele>
        <time>2020-12-13T06:58:50Z</time>
      </trkpt>
      <trkpt lat="37.50122" lon="27.5417">
        <ele>46.284</ele>
        <time>2020-12-13T06:58:51Z</time>
      </trkpt>
      <trkpt lat="37.5012" lon="27.54171">
        <ele>45.841</ele>
        <time>2020-12-13T06:58:52Z</time>
      </trkpt>
      <trkpt lat="37.5012" lon="27.54171">
        <ele>45.841</ele>
        <time>2020-12-13T06:58:53Z</time>
      </trkpt>
      <trkpt lat="37.5012" lon="27.54171">
        <ele>45.841</ele>
        <time>2020-12-13T06:58:54Z</time>
      </trkpt>
      <trkpt lat="37.5012" lon="27.54171">
        <ele>45.841</ele>
        <time>2020-12-13T06:58:55Z</time>
      </trkpt>
      <trkpt lat="37.50118" lon="27.54173">
        <ele>45.39</ele>
        <time>2020-12-13T06:58:56Z</time>
      </trkpt>
      <trkpt lat="37.50118" lon="27.54173">
        <ele>45.39</ele>
        <time>2020-12-13T06:58:57Z</time>
      </trkpt>
      <trkpt lat="37.50118" lon="27.54176">
        <ele>45.056</ele>
        <time>2020-12-13T06:58:58Z</time>
      </trkpt>
      <trkpt lat="37.50118" lon="27.54176">
        <ele>45.056</ele>
        <time>2020-12-13T06:58:59Z</time>
      </trkpt>
      <trkpt lat="37.50118" lon="27.54176">
        <ele>45.056</ele>
        <time>2020-12-13T06:59:00Z</time>
      </trkpt>
      <trkpt lat="37.50118" lon="27.54176">
        <ele>45.056</ele>
        <time>2020-12-13T06:59:01Z</time>
      </trkpt>
      <trkpt lat="37.50118" lon="27.54176">
        <ele>45.056</ele>
        <time>2020-12-13T06:59:02Z</time>
      </trkpt>
      <trkpt lat="37.50108" lon="27.54184">
        <ele>42.676</ele>
        <time>2020-12-13T06:59:03Z</time>
      </trkpt>
      <trkpt lat="37.50106" lon="27.54185">
        <ele>42.381</ele>
        <time>2020-12-13T06:59:04Z</time>
      </trkpt>
      <trkpt lat="37.50105" lon="27.54185">
        <ele>42.1</ele>
        <time>2020-12-13T06:59:05Z</time>
      </trkpt>
      <trkpt lat="37.50103" lon="27.54185">
        <ele>41.804</ele>
        <time>2020-12-13T06:59:06Z</time>
      </trkpt>
      <trkpt lat="37.50101" lon="27.54185">
        <ele>41.525</ele>
        <time>2020-12-13T06:59:07Z</time>
      </trkpt>
      <trkpt lat="37.50099" lon="27.54185">
        <ele>41.272</ele>
        <time>2020-12-13T06:59:08Z</time>
      </trkpt>
      <trkpt lat="37.50099" lon="27.54185">
        <ele>41.272</ele>
        <time>2020-12-13T06:59:09Z</time>
      </trkpt>
      <trkpt lat="37.50099" lon="27.54185">
        <ele>41.272</ele>
        <time>2020-12-13T06:59:10Z</time>
      </trkpt>
      <trkpt lat="37.50099" lon="27.54185">
        <ele>41.272</ele>
        <time>2020-12-13T06:59:11Z</time>
      </trkpt>
      <trkpt lat="37.50099" lon="27.54185">
        <ele>41.272</ele>
        <time>2020-12-13T06:59:12Z</time>
      </trkpt>
      <trkpt lat="37.50097" lon="27.54184">
        <ele>41.157</ele>
        <time>2020-12-13T06:59:13Z</time>
      </trkpt>
      <trkpt lat="37.50096" lon="27.54183">
        <ele>41.042</ele>
        <time>2020-12-13T06:59:14Z</time>
      </trkpt>
      <trkpt lat="37.50094" lon="27.54182">
        <ele>40.926</ele>
        <time>2020-12-13T06:59:15Z</time>
      </trkpt>
      <trkpt lat="37.50093" lon="27.54181">
        <ele>40.786</ele>
        <time>2020-12-13T06:59:16Z</time>
      </trkpt>
      <trkpt lat="37.50092" lon="27.54181">
        <ele>40.671</ele>
        <time>2020-12-13T06:59:17Z</time>
      </trkpt>
      <trkpt lat="37.5009" lon="27.5418">
        <ele>40.556</ele>
        <time>2020-12-13T06:59:18Z</time>
      </trkpt>
      <trkpt lat="37.50088" lon="27.54179">
        <ele>40.315</ele>
        <time>2020-12-13T06:59:19Z</time>
      </trkpt>
      <trkpt lat="37.50085" lon="27.54178">
        <ele>40.059</ele>
        <time>2020-12-13T06:59:20Z</time>
      </trkpt>
      <trkpt lat="37.50083" lon="27.54177">
        <ele>39.818</ele>
        <time>2020-12-13T06:59:21Z</time>
      </trkpt>
      <trkpt lat="37.5008" lon="27.54175">
        <ele>39.573</ele>
        <time>2020-12-13T06:59:22Z</time>
      </trkpt>
      <trkpt lat="37.50077" lon="27.54174">
        <ele>39.332</ele>
        <time>2020-12-13T06:59:23Z</time>
      </trkpt>
      <trkpt lat="37.50075" lon="27.54173">
        <ele>39.077</ele>
        <time>2020-12-13T06:59:24Z</time>
      </trkpt>
      <trkpt lat="37.50072" lon="27.54172">
        <ele>38.834</ele>
        <time>2020-12-13T06:59:25Z</time>
      </trkpt>
      <trkpt lat="37.50072" lon="27.54172">
        <ele>38.834</ele>
        <time>2020-12-13T06:59:26Z</time>
      </trkpt>
      <trkpt lat="37.50072" lon="27.54172">
        <ele>38.834</ele>
        <time>2020-12-13T06:59:27Z</time>
      </trkpt>
      <trkpt lat="37.50072" lon="27.54172">
        <ele>38.834</ele>
        <time>2020-12-13T06:59:28Z</time>
      </trkpt>
      <trkpt lat="37.50072" lon="27.54172">
        <ele>38.834</ele>
        <time>2020-12-13T06:59:29Z</time>
      </trkpt>
      <trkpt lat="37.50072" lon="27.54171">
        <ele>38.832</ele>
        <time>2020-12-13T06:59:30Z</time>
      </trkpt>
      <trkpt lat="37.50071" lon="27.5417">
        <ele>38.842</ele>
        <time>2020-12-13T06:59:31Z</time>
      </trkpt>
      <trkpt lat="37.5007" lon="27.54169">
        <ele>38.839</ele>
        <time>2020-12-13T06:59:32Z</time>
      </trkpt>
      <trkpt lat="37.5007" lon="27.54168">
        <ele>38.846</ele>
        <time>2020-12-13T06:59:33Z</time>
      </trkpt>
      <trkpt lat="37.50069" lon="27.54167">
        <ele>38.842</ele>
        <time>2020-12-13T06:59:34Z</time>
      </trkpt>
      <trkpt lat="37.50068" lon="27.54167">
        <ele>38.875</ele>
        <time>2020-12-13T06:59:35Z</time>
      </trkpt>
      <trkpt lat="37.50068" lon="27.54166">
        <ele>38.987</ele>
        <time>2020-12-13T06:59:36Z</time>
      </trkpt>
      <trkpt lat="37.50067" lon="27.54165">
        <ele>39.099</ele>
        <time>2020-12-13T06:59:37Z</time>
      </trkpt>
      <trkpt lat="37.50067" lon="27.54165">
        <ele>39.099</ele>
        <time>2020-12-13T06:59:38Z</time>
      </trkpt>
      <trkpt lat="37.50067" lon="27.54165">
        <ele>39.099</ele>
        <time>2020-12-13T06:59:39Z</time>
      </trkpt>
      <trkpt lat="37.50067" lon="27.54165">
        <ele>39.099</ele>
        <time>2020-12-13T06:59:40Z</time>
      </trkpt>
      <trkpt lat="37.50066" lon="27.54163">
        <ele>39.488</ele>
        <time>2020-12-13T06:59:41Z</time>
      </trkpt>
      <trkpt lat="37.50066" lon="27.54163">
        <ele>39.488</ele>
        <time>2020-12-13T06:59:42Z</time>
      </trkpt>
      <trkpt lat="37.50066" lon="27.54163">
        <ele>39.488</ele>
        <time>2020-12-13T06:59:43Z</time>
      </trkpt>
      <trkpt lat="37.50066" lon="27.54163">
        <ele>39.488</ele>
        <time>2020-12-13T06:59:44Z</time>
      </trkpt>
      <trkpt lat="37.50066" lon="27.54163">
        <ele>39.488</ele>
        <time>2020-12-13T06:59:45Z</time>
      </trkpt>
      <trkpt lat="37.50066" lon="27.54163">
        <ele>39.488</ele>
        <time>2020-12-13T06:59:46Z</time>
      </trkpt>
      <trkpt lat="37.50064" lon="27.54163">
        <ele>39.079</ele>
        <time>2020-12-13T06:59:47Z</time>
      </trkpt>
      <trkpt lat="37.50064" lon="27.54163">
        <ele>39.079</ele>
        <time>2020-12-13T06:59:48Z</time>
      </trkpt>
      <trkpt lat="37.50064" lon="27.54163">
        <ele>39.079</ele>
        <time>2020-12-13T06:59:49Z</time>
      </trkpt>
      <trkpt lat="37.50064" lon="27.54163">
        <ele>39.079</ele>
        <time>2020-12-13T06:59:50Z</time>
      </trkpt>
      <trkpt lat="37.50064" lon="27.54163">
        <ele>39.079</ele>
        <time>2020-12-13T06:59:51Z</time>
      </trkpt>
      <trkpt lat="37.50062" lon="27.54162">
        <ele>39.055</ele>
        <time>2020-12-13T06:59:52Z</time>
      </trkpt>
      <trkpt lat="37.50061" lon="27.54161">
        <ele>39.032</ele>
        <time>2020-12-13T06:59:53Z</time>
      </trkpt>
      <trkpt lat="37.50059" lon="27.54161">
        <ele>39.014</ele>
        <time>2020-12-13T06:59:54Z</time>
      </trkpt>
      <trkpt lat="37.50058" lon="27.5416">
        <ele>38.972</ele>
        <time>2020-12-13T06:59:55Z</time>
      </trkpt>
      <trkpt lat="37.50057" lon="27.54159">
        <ele>38.959</ele>
        <time>2020-12-13T06:59:56Z</time>
      </trkpt>
      <trkpt lat="37.50055" lon="27.54159">
        <ele>38.965</ele>
        <time>2020-12-13T06:59:57Z</time>
      </trkpt>
      <trkpt lat="37.50044" lon="27.54154">
        <ele>38.948</ele>
        <time>2020-12-13T06:59:58Z</time>
      </trkpt>
      <trkpt lat="37.50043" lon="27.54154">
        <ele>38.942</ele>
        <time>2020-12-13T06:59:59Z</time>
      </trkpt>
      <trkpt lat="37.50042" lon="27.54153">
        <ele>38.902</ele>
        <time>2020-12-13T07:00:00Z</time>
      </trkpt>
      <trkpt lat="37.50041" lon="27.54153">
        <ele>38.891</ele>
        <time>2020-12-13T07:00:01Z</time>
      </trkpt>
      <trkpt lat="37.5004" lon="27.54153">
        <ele>38.88</ele>
        <time>2020-12-13T07:00:02Z</time>
      </trkpt>
      <trkpt lat="37.50036" lon="27.54151">
        <ele>38.741</ele>
        <time>2020-12-13T07:00:03Z</time>
      </trkpt>
      <trkpt lat="37.50036" lon="27.54151">
        <ele>38.741</ele>
        <time>2020-12-13T07:00:04Z</time>
      </trkpt>
      <trkpt lat="37.50036" lon="27.54151">
        <ele>38.741</ele>
        <time>2020-12-13T07:00:05Z</time>
      </trkpt>
      <trkpt lat="37.50036" lon="27.54151">
        <ele>38.741</ele>
        <time>2020-12-13T07:00:06Z</time>
      </trkpt>
      <trkpt lat="37.50036" lon="27.54151">
        <ele>38.741</ele>
        <time>2020-12-13T07:00:07Z</time>
      </trkpt>
      <trkpt lat="37.50026" lon="27.54153">
        <ele>37.423</ele>
        <time>2020-12-13T07:00:08Z</time>
      </trkpt>
      <trkpt lat="37.50026" lon="27.54153">
        <ele>37.423</ele>
        <time>2020-12-13T07:00:09Z</time>
      </trkpt>
      <trkpt lat="37.50026" lon="27.54153">
        <ele>37.423</ele>
        <time>2020-12-13T07:00:10Z</time>
      </trkpt>
      <trkpt lat="37.50026" lon="27.54153">
        <ele>37.423</ele>
        <time>2020-12-13T07:00:11Z</time>
      </trkpt>
      <trkpt lat="37.50026" lon="27.54153">
        <ele>37.423</ele>
        <time>2020-12-13T07:00:12Z</time>
      </trkpt>
      <trkpt lat="37.50025" lon="27.54154">
        <ele>37.208</ele>
        <time>2020-12-13T07:00:13Z</time>
      </trkpt>
      <trkpt lat="37.50025" lon="27.54156">
        <ele>36.992</ele>
        <time>2020-12-13T07:00:14Z</time>
      </trkpt>
      <trkpt lat="37.50025" lon="27.54157">
        <ele>36.758</ele>
        <time>2020-12-13T07:00:15Z</time>
      </trkpt>
      <trkpt lat="37.50025" lon="27.54158">
        <ele>36.542</ele>
        <time>2020-12-13T07:00:16Z</time>
      </trkpt>
      <trkpt lat="37.50025" lon="27.54159">
        <ele>36.327</ele>
        <time>2020-12-13T07:00:17Z</time>
      </trkpt>
      <trkpt lat="37.50025" lon="27.54161">
        <ele>36.109</ele>
        <time>2020-12-13T07:00:18Z</time>
      </trkpt>
      <trkpt lat="37.50025" lon="27.54162">
        <ele>35.894</ele>
        <time>2020-12-13T07:00:19Z</time>
      </trkpt>
      <trkpt lat="37.50025" lon="27.54163">
        <ele>35.66</ele>
        <time>2020-12-13T07:00:20Z</time>
      </trkpt>
      <trkpt lat="37.50025" lon="27.54164">
        <ele>35.444</ele>
        <time>2020-12-13T07:00:21Z</time>
      </trkpt>
      <trkpt lat="37.50025" lon="27.54165">
        <ele>35.228</ele>
        <time>2020-12-13T07:00:22Z</time>
      </trkpt>
      <trkpt lat="37.50025" lon="27.54167">
        <ele>34.917</ele>
        <time>2020-12-13T07:00:23Z</time>
      </trkpt>
      <trkpt lat="37.50024" lon="27.54169">
        <ele>34.692</ele>
        <time>2020-12-13T07:00:24Z</time>
      </trkpt>
      <trkpt lat="37.50024" lon="27.54171">
        <ele>34.464</ele>
        <time>2020-12-13T07:00:25Z</time>
      </trkpt>
      <trkpt lat="37.50023" lon="27.54173">
        <ele>34.233</ele>
        <time>2020-12-13T07:00:26Z</time>
      </trkpt>
      <trkpt lat="37.50023" lon="27.54176">
        <ele>33.99</ele>
        <time>2020-12-13T07:00:27Z</time>
      </trkpt>
      <trkpt lat="37.50023" lon="27.54178">
        <ele>33.756</ele>
        <time>2020-12-13T07:00:28Z</time>
      </trkpt>
      <trkpt lat="37.50022" lon="27.5418">
        <ele>33.52</ele>
        <time>2020-12-13T07:00:29Z</time>
      </trkpt>
      <trkpt lat="37.50022" lon="27.54182">
        <ele>33.281</ele>
        <time>2020-12-13T07:00:30Z</time>
      </trkpt>
      <trkpt lat="37.50021" lon="27.54184">
        <ele>33.04</ele>
        <time>2020-12-13T07:00:31Z</time>
      </trkpt>
      <trkpt lat="37.5002" lon="27.54189">
        <ele>32.357</ele>
        <time>2020-12-13T07:00:32Z</time>
      </trkpt>
      <trkpt lat="37.50019" lon="27.54189">
        <ele>32.321</ele>
        <time>2020-12-13T07:00:33Z</time>
      </trkpt>
      <trkpt lat="37.50019" lon="27.5419">
        <ele>32.272</ele>
        <time>2020-12-13T07:00:34Z</time>
      </trkpt>
      <trkpt lat="37.50019" lon="27.5419">
        <ele>32.236</ele>
        <time>2020-12-13T07:00:35Z</time>
      </trkpt>
      <trkpt lat="37.50019" lon="27.5419">
        <ele>32.236</ele>
        <time>2020-12-13T07:00:36Z</time>
      </trkpt>
      <trkpt lat="37.50008" lon="27.54194">
        <ele>31.407</ele>
        <time>2020-12-13T07:00:37Z</time>
      </trkpt>
      <trkpt lat="37.50004" lon="27.54195">
        <ele>31.063</ele>
        <time>2020-12-13T07:00:38Z</time>
      </trkpt>
      <trkpt lat="37.50002" lon="27.54196">
        <ele>30.962</ele>
        <time>2020-12-13T07:00:39Z</time>
      </trkpt>
      <trkpt lat="37.50001" lon="27.54196">
        <ele>30.855</ele>
        <time>2020-12-13T07:00:40Z</time>
      </trkpt>
      <trkpt lat="37.49999" lon="27.54196">
        <ele>30.791</ele>
        <time>2020-12-13T07:00:41Z</time>
      </trkpt>
      <trkpt lat="37.49997" lon="27.54197">
        <ele>30.745</ele>
        <time>2020-12-13T07:00:42Z</time>
      </trkpt>
      <trkpt lat="37.49997" lon="27.54197">
        <ele>30.745</ele>
        <time>2020-12-13T07:00:43Z</time>
      </trkpt>
      <trkpt lat="37.49995" lon="27.542">
        <ele>30.447</ele>
        <time>2020-12-13T07:00:44Z</time>
      </trkpt>
      <trkpt lat="37.49995" lon="27.542">
        <ele>30.447</ele>
        <time>2020-12-13T07:00:45Z</time>
      </trkpt>
      <trkpt lat="37.49995" lon="27.542">
        <ele>30.447</ele>
        <time>2020-12-13T07:00:46Z</time>
      </trkpt>
      <trkpt lat="37.49995" lon="27.54203">
        <ele>30.142</ele>
        <time>2020-12-13T07:00:47Z</time>
      </trkpt>
      <trkpt lat="37.49995" lon="27.54203">
        <ele>30.142</ele>
        <time>2020-12-13T07:00:48Z</time>
      </trkpt>
      <trkpt lat="37.49995" lon="27.54203">
        <ele>30.142</ele>
        <time>2020-12-13T07:00:49Z</time>
      </trkpt>
      <trkpt lat="37.49995" lon="27.54203">
        <ele>30.142</ele>
        <time>2020-12-13T07:00:50Z</time>
      </trkpt>
      <trkpt lat="37.49997" lon="27.54204">
        <ele>30.057</ele>
        <time>2020-12-13T07:00:51Z</time>
      </trkpt>
      <trkpt lat="37.49997" lon="27.54204">
        <ele>30.057</ele>
        <time>2020-12-13T07:00:52Z</time>
      </trkpt>
      <trkpt lat="37.49997" lon="27.54206">
        <ele>29.767</ele>
        <time>2020-12-13T07:00:53Z</time>
      </trkpt>
      <trkpt lat="37.49997" lon="27.54206">
        <ele>29.767</ele>
        <time>2020-12-13T07:00:54Z</time>
      </trkpt>
      <trkpt lat="37.49995" lon="27.54208">
        <ele>29.576</ele>
        <time>2020-12-13T07:00:55Z</time>
      </trkpt>
      <trkpt lat="37.49995" lon="27.54208">
        <ele>29.576</ele>
        <time>2020-12-13T07:00:56Z</time>
      </trkpt>
      <trkpt lat="37.49995" lon="27.54208">
        <ele>29.576</ele>
        <time>2020-12-13T07:00:57Z</time>
      </trkpt>
      <trkpt lat="37.49994" lon="27.5421">
        <ele>29.463</ele>
        <time>2020-12-13T07:00:58Z</time>
      </trkpt>
      <trkpt lat="37.49994" lon="27.5421">
        <ele>29.463</ele>
        <time>2020-12-13T07:00:59Z</time>
      </trkpt>
      <trkpt lat="37.49994" lon="27.5421">
        <ele>29.463</ele>
        <time>2020-12-13T07:01:00Z</time>
      </trkpt>
      <trkpt lat="37.49994" lon="27.5421">
        <ele>29.463</ele>
        <time>2020-12-13T07:01:01Z</time>
      </trkpt>
      <trkpt lat="37.49994" lon="27.5421">
        <ele>29.463</ele>
        <time>2020-12-13T07:01:02Z</time>
      </trkpt>
      <trkpt lat="37.49994" lon="27.5421">
        <ele>29.463</ele>
        <time>2020-12-13T07:01:03Z</time>
      </trkpt>
      <trkpt lat="37.49994" lon="27.5421">
        <ele>29.463</ele>
        <time>2020-12-13T07:01:04Z</time>
      </trkpt>
      <trkpt lat="37.49995" lon="27.54212">
        <ele>29.212</ele>
        <time>2020-12-13T07:01:05Z</time>
      </trkpt>
      <trkpt lat="37.49995" lon="27.54212">
        <ele>29.212</ele>
        <time>2020-12-13T07:01:06Z</time>
      </trkpt>
      <trkpt lat="37.49995" lon="27.54216">
        <ele>28.803</ele>
        <time>2020-12-13T07:01:07Z</time>
      </trkpt>
      <trkpt lat="37.49993" lon="27.54219">
        <ele>28.614</ele>
        <time>2020-12-13T07:01:08Z</time>
      </trkpt>
      <trkpt lat="37.49991" lon="27.5422">
        <ele>28.564</ele>
        <time>2020-12-13T07:01:09Z</time>
      </trkpt>
      <trkpt lat="37.49991" lon="27.5422">
        <ele>28.564</ele>
        <time>2020-12-13T07:01:10Z</time>
      </trkpt>
      <trkpt lat="37.49988" lon="27.54221">
        <ele>28.55</ele>
        <time>2020-12-13T07:01:11Z</time>
      </trkpt>
      <trkpt lat="37.49988" lon="27.54221">
        <ele>28.55</ele>
        <time>2020-12-13T07:01:12Z</time>
      </trkpt>
      <trkpt lat="37.49988" lon="27.54221">
        <ele>28.55</ele>
        <time>2020-12-13T07:01:13Z</time>
      </trkpt>
      <trkpt lat="37.49988" lon="27.54221">
        <ele>28.55</ele>
        <time>2020-12-13T07:01:14Z</time>
      </trkpt>
      <trkpt lat="37.49988" lon="27.54221">
        <ele>28.55</ele>
        <time>2020-12-13T07:01:15Z</time>
      </trkpt>
      <trkpt lat="37.49988" lon="27.54222">
        <ele>28.464</ele>
        <time>2020-12-13T07:01:16Z</time>
      </trkpt>
      <trkpt lat="37.49988" lon="27.54223">
        <ele>28.493</ele>
        <time>2020-12-13T07:01:17Z</time>
      </trkpt>
      <trkpt lat="37.49989" lon="27.54224">
        <ele>28.633</ele>
        <time>2020-12-13T07:01:18Z</time>
      </trkpt>
      <trkpt lat="37.49989" lon="27.54224">
        <ele>28.756</ele>
        <time>2020-12-13T07:01:19Z</time>
      </trkpt>
      <trkpt lat="37.49989" lon="27.54225">
        <ele>28.894</ele>
        <time>2020-12-13T07:01:20Z</time>
      </trkpt>
      <trkpt lat="37.49989" lon="27.54226">
        <ele>29.03</ele>
        <time>2020-12-13T07:01:21Z</time>
      </trkpt>
      <trkpt lat="37.49989" lon="27.54227">
        <ele>29.168</ele>
        <time>2020-12-13T07:01:22Z</time>
      </trkpt>
      <trkpt lat="37.49989" lon="27.54228">
        <ele>29.307</ele>
        <time>2020-12-13T07:01:23Z</time>
      </trkpt>
      <trkpt lat="37.49989" lon="27.54228">
        <ele>29.307</ele>
        <time>2020-12-13T07:01:24Z</time>
      </trkpt>
      <trkpt lat="37.49989" lon="27.54228">
        <ele>29.307</ele>
        <time>2020-12-13T07:01:25Z</time>
      </trkpt>
      <trkpt lat="37.49991" lon="27.54228">
        <ele>29.168</ele>
        <time>2020-12-13T07:01:26Z</time>
      </trkpt>
      <trkpt lat="37.49991" lon="27.54228">
        <ele>29.168</ele>
        <time>2020-12-13T07:01:27Z</time>
      </trkpt>
      <trkpt lat="37.49991" lon="27.54228">
        <ele>29.168</ele>
        <time>2020-12-13T07:01:28Z</time>
      </trkpt>
      <trkpt lat="37.49991" lon="27.54228">
        <ele>29.168</ele>
        <time>2020-12-13T07:01:29Z</time>
      </trkpt>
      <trkpt lat="37.49993" lon="27.54229">
        <ele>29.2</ele>
        <time>2020-12-13T07:01:30Z</time>
      </trkpt>
      <trkpt lat="37.49993" lon="27.54229">
        <ele>29.2</ele>
        <time>2020-12-13T07:01:31Z</time>
      </trkpt>
      <trkpt lat="37.49995" lon="27.54231">
        <ele>29.545</ele>
        <time>2020-12-13T07:01:32Z</time>
      </trkpt>
      <trkpt lat="37.49995" lon="27.54231">
        <ele>29.545</ele>
        <time>2020-12-13T07:01:33Z</time>
      </trkpt>
      <trkpt lat="37.49995" lon="27.54231">
        <ele>29.545</ele>
        <time>2020-12-13T07:01:34Z</time>
      </trkpt>
      <trkpt lat="37.49993" lon="27.54233">
        <ele>29.923</ele>
        <time>2020-12-13T07:01:35Z</time>
      </trkpt>
      <trkpt lat="37.49993" lon="27.54233">
        <ele>29.923</ele>
        <time>2020-12-13T07:01:36Z</time>
      </trkpt>
      <trkpt lat="37.49993" lon="27.54233">
        <ele>29.923</ele>
        <time>2020-12-13T07:01:37Z</time>
      </trkpt>
      <trkpt lat="37.49993" lon="27.54236">
        <ele>30.33</ele>
        <time>2020-12-13T07:01:38Z</time>
      </trkpt>
      <trkpt lat="37.49993" lon="27.54236">
        <ele>30.33</ele>
        <time>2020-12-13T07:01:39Z</time>
      </trkpt>
      <trkpt lat="37.49993" lon="27.54236">
        <ele>30.33</ele>
        <time>2020-12-13T07:01:40Z</time>
      </trkpt>
      <trkpt lat="37.49995" lon="27.54236">
        <ele>30.242</ele>
        <time>2020-12-13T07:01:41Z</time>
      </trkpt>
      <trkpt lat="37.49995" lon="27.54236">
        <ele>30.242</ele>
        <time>2020-12-13T07:01:42Z</time>
      </trkpt>
      <trkpt lat="37.49997" lon="27.54238">
        <ele>30.436</ele>
        <time>2020-12-13T07:01:43Z</time>
      </trkpt>
      <trkpt lat="37.49997" lon="27.54238">
        <ele>30.436</ele>
        <time>2020-12-13T07:01:44Z</time>
      </trkpt>
      <trkpt lat="37.49998" lon="27.5424">
        <ele>30.74</ele>
        <time>2020-12-13T07:01:45Z</time>
      </trkpt>
      <trkpt lat="37.49998" lon="27.5424">
        <ele>30.74</ele>
        <time>2020-12-13T07:01:46Z</time>
      </trkpt>
      <trkpt lat="37.49998" lon="27.5424">
        <ele>30.74</ele>
        <time>2020-12-13T07:01:47Z</time>
      </trkpt>
      <trkpt lat="37.49997" lon="27.54243">
        <ele>31.199</ele>
        <time>2020-12-13T07:01:48Z</time>
      </trkpt>
      <trkpt lat="37.49997" lon="27.54243">
        <ele>31.199</ele>
        <time>2020-12-13T07:01:49Z</time>
      </trkpt>
      <trkpt lat="37.49998" lon="27.54246">
        <ele>31.571</ele>
        <time>2020-12-13T07:01:50Z</time>
      </trkpt>
      <trkpt lat="37.49998" lon="27.54246">
        <ele>31.571</ele>
        <time>2020-12-13T07:01:51Z</time>
      </trkpt>
      <trkpt lat="37.49999" lon="27.54248">
        <ele>31.831</ele>
        <time>2020-12-13T07:01:52Z</time>
      </trkpt>
      <trkpt lat="37.49999" lon="27.54248">
        <ele>31.831</ele>
        <time>2020-12-13T07:01:53Z</time>
      </trkpt>
      <trkpt lat="37.49999" lon="27.54248">
        <ele>31.831</ele>
        <time>2020-12-13T07:01:54Z</time>
      </trkpt>
      <trkpt lat="37.5" lon="27.5425">
        <ele>32.093</ele>
        <time>2020-12-13T07:01:55Z</time>
      </trkpt>
      <trkpt lat="37.5" lon="27.5425">
        <ele>32.093</ele>
        <time>2020-12-13T07:01:56Z</time>
      </trkpt>
      <trkpt lat="37.49999" lon="27.54253">
        <ele>33.12</ele>
        <time>2020-12-13T07:01:57Z</time>
      </trkpt>
      <trkpt lat="37.49999" lon="27.54253">
        <ele>33.12</ele>
        <time>2020-12-13T07:01:58Z</time>
      </trkpt>
      <trkpt lat="37.49999" lon="27.54253">
        <ele>33.12</ele>
        <time>2020-12-13T07:01:59Z</time>
      </trkpt>
      <trkpt lat="37.49999" lon="27.54256">
        <ele>34.042</ele>
        <time>2020-12-13T07:02:00Z</time>
      </trkpt>
      <trkpt lat="37.49999" lon="27.54256">
        <ele>34.042</ele>
        <time>2020-12-13T07:02:01Z</time>
      </trkpt>
      <trkpt lat="37.49999" lon="27.54256">
        <ele>34.042</ele>
        <time>2020-12-13T07:02:02Z</time>
      </trkpt>
      <trkpt lat="37.49999" lon="27.54259">
        <ele>34.86</ele>
        <time>2020-12-13T07:02:03Z</time>
      </trkpt>
      <trkpt lat="37.49999" lon="27.54259">
        <ele>34.86</ele>
        <time>2020-12-13T07:02:04Z</time>
      </trkpt>
      <trkpt lat="37.49997" lon="27.5426">
        <ele>35.369</ele>
        <time>2020-12-13T07:02:05Z</time>
      </trkpt>
      <trkpt lat="37.49997" lon="27.5426">
        <ele>35.369</ele>
        <time>2020-12-13T07:02:06Z</time>
      </trkpt>
      <trkpt lat="37.49997" lon="27.5426">
        <ele>35.369</ele>
        <time>2020-12-13T07:02:07Z</time>
      </trkpt>
      <trkpt lat="37.49997" lon="27.5426">
        <ele>35.369</ele>
        <time>2020-12-13T07:02:08Z</time>
      </trkpt>
      <trkpt lat="37.49995" lon="27.54262">
        <ele>36.016</ele>
        <time>2020-12-13T07:02:09Z</time>
      </trkpt>
      <trkpt lat="37.49995" lon="27.54262">
        <ele>36.016</ele>
        <time>2020-12-13T07:02:10Z</time>
      </trkpt>
      <trkpt lat="37.49993" lon="27.54261">
        <ele>35.843</ele>
        <time>2020-12-13T07:02:11Z</time>
      </trkpt>
      <trkpt lat="37.49993" lon="27.54261">
        <ele>35.843</ele>
        <time>2020-12-13T07:02:12Z</time>
      </trkpt>
      <trkpt lat="37.49993" lon="27.54261">
        <ele>35.843</ele>
        <time>2020-12-13T07:02:13Z</time>
      </trkpt>
      <trkpt lat="37.49991" lon="27.54262">
        <ele>36.109</ele>
        <time>2020-12-13T07:02:14Z</time>
      </trkpt>
      <trkpt lat="37.49991" lon="27.54262">
        <ele>36.109</ele>
        <time>2020-12-13T07:02:15Z</time>
      </trkpt>
      <trkpt lat="37.49989" lon="27.54262">
        <ele>36.419</ele>
        <time>2020-12-13T07:02:16Z</time>
      </trkpt>
      <trkpt lat="37.49989" lon="27.54262">
        <ele>36.419</ele>
        <time>2020-12-13T07:02:17Z</time>
      </trkpt>
      <trkpt lat="37.49989" lon="27.54262">
        <ele>36.419</ele>
        <time>2020-12-13T07:02:18Z</time>
      </trkpt>
      <trkpt lat="37.49988" lon="27.54264">
        <ele>37.044</ele>
        <time>2020-12-13T07:02:19Z</time>
      </trkpt>
      <trkpt lat="37.49988" lon="27.54264">
        <ele>37.044</ele>
        <time>2020-12-13T07:02:20Z</time>
      </trkpt>
      <trkpt lat="37.49988" lon="27.54264">
        <ele>37.044</ele>
        <time>2020-12-13T07:02:21Z</time>
      </trkpt>
      <trkpt lat="37.49988" lon="27.54264">
        <ele>37.044</ele>
        <time>2020-12-13T07:02:22Z</time>
      </trkpt>
      <trkpt lat="37.49988" lon="27.54267">
        <ele>37.712</ele>
        <time>2020-12-13T07:02:23Z</time>
      </trkpt>
      <trkpt lat="37.49988" lon="27.54267">
        <ele>37.712</ele>
        <time>2020-12-13T07:02:24Z</time>
      </trkpt>
      <trkpt lat="37.49988" lon="27.54267">
        <ele>37.712</ele>
        <time>2020-12-13T07:02:25Z</time>
      </trkpt>
      <trkpt lat="37.49985" lon="27.54267">
        <ele>37.917</ele>
        <time>2020-12-13T07:02:26Z</time>
      </trkpt>
      <trkpt lat="37.49985" lon="27.54267">
        <ele>37.917</ele>
        <time>2020-12-13T07:02:27Z</time>
      </trkpt>
      <trkpt lat="37.49985" lon="27.54267">
        <ele>37.917</ele>
        <time>2020-12-13T07:02:28Z</time>
      </trkpt>
      <trkpt lat="37.49985" lon="27.54267">
        <ele>37.917</ele>
        <time>2020-12-13T07:02:29Z</time>
      </trkpt>
      <trkpt lat="37.49985" lon="27.54267">
        <ele>37.917</ele>
        <time>2020-12-13T07:02:30Z</time>
      </trkpt>
      <trkpt lat="37.49975" lon="27.54265">
        <ele>37.62</ele>
        <time>2020-12-13T07:03:26Z</time>
      </trkpt>
      <trkpt lat="37.49975" lon="27.54265">
        <ele>37.62</ele>
        <time>2020-12-13T07:03:27Z</time>
      </trkpt>
      <trkpt lat="37.49971" lon="27.54266">
        <ele>37.918</ele>
        <time>2020-12-13T07:03:28Z</time>
      </trkpt>
      <trkpt lat="37.49971" lon="27.54266">
        <ele>37.918</ele>
        <time>2020-12-13T07:03:29Z</time>
      </trkpt>
      <trkpt lat="37.49968" lon="27.54266">
        <ele>37.929</ele>
        <time>2020-12-13T07:03:30Z</time>
      </trkpt>
      <trkpt lat="37.49966" lon="27.54267">
        <ele>37.959</ele>
        <time>2020-12-13T07:03:31Z</time>
      </trkpt>
      <trkpt lat="37.49964" lon="27.54268">
        <ele>38.032</ele>
        <time>2020-12-13T07:03:32Z</time>
      </trkpt>
      <trkpt lat="37.49964" lon="27.54268">
        <ele>38.032</ele>
        <time>2020-12-13T07:03:33Z</time>
      </trkpt>
      <trkpt lat="37.49961" lon="27.54269">
        <ele>38.268</ele>
        <time>2020-12-13T07:03:34Z</time>
      </trkpt>
      <trkpt lat="37.49961" lon="27.54269">
        <ele>38.268</ele>
        <time>2020-12-13T07:03:35Z</time>
      </trkpt>
      <trkpt lat="37.49959" lon="27.54272">
        <ele>38.736</ele>
        <time>2020-12-13T07:03:36Z</time>
      </trkpt>
      <trkpt lat="37.49959" lon="27.54272">
        <ele>38.736</ele>
        <time>2020-12-13T07:03:37Z</time>
      </trkpt>
      <trkpt lat="37.49957" lon="27.54273">
        <ele>38.968</ele>
        <time>2020-12-13T07:03:38Z</time>
      </trkpt>
      <trkpt lat="37.49957" lon="27.54273">
        <ele>38.968</ele>
        <time>2020-12-13T07:03:39Z</time>
      </trkpt>
      <trkpt lat="37.49957" lon="27.54273">
        <ele>38.968</ele>
        <time>2020-12-13T07:03:40Z</time>
      </trkpt>
      <trkpt lat="37.49957" lon="27.54273">
        <ele>38.968</ele>
        <time>2020-12-13T07:03:41Z</time>
      </trkpt>
      <trkpt lat="37.49957" lon="27.54273">
        <ele>38.968</ele>
        <time>2020-12-13T07:03:42Z</time>
      </trkpt>
      <trkpt lat="37.49955" lon="27.54275">
        <ele>39.184</ele>
        <time>2020-12-13T07:03:43Z</time>
      </trkpt>
      <trkpt lat="37.49955" lon="27.54275">
        <ele>39.184</ele>
        <time>2020-12-13T07:03:44Z</time>
      </trkpt>
      <trkpt lat="37.49953" lon="27.54275">
        <ele>39.075</ele>
        <time>2020-12-13T07:03:45Z</time>
      </trkpt>
      <trkpt lat="37.49953" lon="27.54275">
        <ele>39.075</ele>
        <time>2020-12-13T07:03:46Z</time>
      </trkpt>
      <trkpt lat="37.49953" lon="27.54275">
        <ele>39.075</ele>
        <time>2020-12-13T07:03:47Z</time>
      </trkpt>
      <trkpt lat="37.49951" lon="27.54275">
        <ele>38.971</ele>
        <time>2020-12-13T07:03:48Z</time>
      </trkpt>
      <trkpt lat="37.49951" lon="27.54275">
        <ele>38.971</ele>
        <time>2020-12-13T07:03:49Z</time>
      </trkpt>
      <trkpt lat="37.49949" lon="27.54275">
        <ele>38.853</ele>
        <time>2020-12-13T07:03:50Z</time>
      </trkpt>
      <trkpt lat="37.49949" lon="27.54275">
        <ele>38.853</ele>
        <time>2020-12-13T07:03:51Z</time>
      </trkpt>
      <trkpt lat="37.49947" lon="27.54276">
        <ele>38.832</ele>
        <time>2020-12-13T07:03:52Z</time>
      </trkpt>
      <trkpt lat="37.49947" lon="27.54276">
        <ele>38.832</ele>
        <time>2020-12-13T07:03:53Z</time>
      </trkpt>
      <trkpt lat="37.49945" lon="27.54275">
        <ele>38.426</ele>
        <time>2020-12-13T07:03:54Z</time>
      </trkpt>
      <trkpt lat="37.49945" lon="27.54275">
        <ele>38.426</ele>
        <time>2020-12-13T07:03:55Z</time>
      </trkpt>
      <trkpt lat="37.49943" lon="27.54273">
        <ele>38.061</ele>
        <time>2020-12-13T07:03:56Z</time>
      </trkpt>
      <trkpt lat="37.49943" lon="27.54273">
        <ele>38.061</ele>
        <time>2020-12-13T07:03:57Z</time>
      </trkpt>
      <trkpt lat="37.49941" lon="27.54271">
        <ele>37.803</ele>
        <time>2020-12-13T07:03:58Z</time>
      </trkpt>
      <trkpt lat="37.49941" lon="27.54271">
        <ele>37.803</ele>
        <time>2020-12-13T07:03:59Z</time>
      </trkpt>
      <trkpt lat="37.49941" lon="27.54271">
        <ele>37.803</ele>
        <time>2020-12-13T07:04:00Z</time>
      </trkpt>
      <trkpt lat="37.49939" lon="27.54272">
        <ele>37.824</ele>
        <time>2020-12-13T07:04:01Z</time>
      </trkpt>
      <trkpt lat="37.49939" lon="27.54272">
        <ele>37.824</ele>
        <time>2020-12-13T07:04:02Z</time>
      </trkpt>
      <trkpt lat="37.49939" lon="27.54272">
        <ele>37.824</ele>
        <time>2020-12-13T07:04:03Z</time>
      </trkpt>
      <trkpt lat="37.49939" lon="27.54272">
        <ele>37.824</ele>
        <time>2020-12-13T07:04:04Z</time>
      </trkpt>
      <trkpt lat="37.49937" lon="27.54274">
        <ele>38.189</ele>
        <time>2020-12-13T07:04:05Z</time>
      </trkpt>
      <trkpt lat="37.49937" lon="27.54274">
        <ele>38.189</ele>
        <time>2020-12-13T07:04:06Z</time>
      </trkpt>
      <trkpt lat="37.49937" lon="27.54274">
        <ele>38.189</ele>
        <time>2020-12-13T07:04:07Z</time>
      </trkpt>
      <trkpt lat="37.49935" lon="27.54274">
        <ele>38.313</ele>
        <time>2020-12-13T07:04:08Z</time>
      </trkpt>
      <trkpt lat="37.49935" lon="27.54274">
        <ele>38.313</ele>
        <time>2020-12-13T07:04:09Z</time>
      </trkpt>
      <trkpt lat="37.49934" lon="27.54275">
        <ele>38.461</ele>
        <time>2020-12-13T07:04:10Z</time>
      </trkpt>
      <trkpt lat="37.49934" lon="27.54275">
        <ele>38.461</ele>
        <time>2020-12-13T07:04:11Z</time>
      </trkpt>
      <trkpt lat="37.49931" lon="27.54276">
        <ele>38.65</ele>
        <time>2020-12-13T07:04:12Z</time>
      </trkpt>
      <trkpt lat="37.49931" lon="27.54276">
        <ele>38.65</ele>
        <time>2020-12-13T07:04:13Z</time>
      </trkpt>
      <trkpt lat="37.49931" lon="27.54276">
        <ele>38.65</ele>
        <time>2020-12-13T07:04:14Z</time>
      </trkpt>
      <trkpt lat="37.49929" lon="27.54277">
        <ele>38.825</ele>
        <time>2020-12-13T07:04:15Z</time>
      </trkpt>
      <trkpt lat="37.49929" lon="27.54277">
        <ele>38.825</ele>
        <time>2020-12-13T07:04:16Z</time>
      </trkpt>
      <trkpt lat="37.49929" lon="27.54277">
        <ele>38.825</ele>
        <time>2020-12-13T07:04:17Z</time>
      </trkpt>
      <trkpt lat="37.49929" lon="27.54277">
        <ele>38.825</ele>
        <time>2020-12-13T07:04:18Z</time>
      </trkpt>
      <trkpt lat="37.49928" lon="27.5428">
        <ele>39.568</ele>
        <time>2020-12-13T07:04:19Z</time>
      </trkpt>
      <trkpt lat="37.49928" lon="27.5428">
        <ele>39.568</ele>
        <time>2020-12-13T07:04:20Z</time>
      </trkpt>
      <trkpt lat="37.49928" lon="27.5428">
        <ele>39.568</ele>
        <time>2020-12-13T07:04:21Z</time>
      </trkpt>
      <trkpt lat="37.49928" lon="27.5428">
        <ele>39.568</ele>
        <time>2020-12-13T07:04:22Z</time>
      </trkpt>
      <trkpt lat="37.49928" lon="27.54283">
        <ele>40.286</ele>
        <time>2020-12-13T07:04:23Z</time>
      </trkpt>
      <trkpt lat="37.49928" lon="27.54283">
        <ele>40.286</ele>
        <time>2020-12-13T07:04:24Z</time>
      </trkpt>
      <trkpt lat="37.49928" lon="27.54283">
        <ele>40.286</ele>
        <time>2020-12-13T07:04:25Z</time>
      </trkpt>
      <trkpt lat="37.49927" lon="27.54286">
        <ele>41.048</ele>
        <time>2020-12-13T07:04:26Z</time>
      </trkpt>
      <trkpt lat="37.49927" lon="27.54286">
        <ele>41.048</ele>
        <time>2020-12-13T07:04:27Z</time>
      </trkpt>
      <trkpt lat="37.49927" lon="27.54286">
        <ele>41.048</ele>
        <time>2020-12-13T07:04:28Z</time>
      </trkpt>
      <trkpt lat="37.49927" lon="27.54286">
        <ele>41.048</ele>
        <time>2020-12-13T07:04:29Z</time>
      </trkpt>
      <trkpt lat="37.49927" lon="27.54286">
        <ele>41.048</ele>
        <time>2020-12-13T07:04:30Z</time>
      </trkpt>
      <trkpt lat="37.49926" lon="27.54288">
        <ele>41.803</ele>
        <time>2020-12-13T07:04:31Z</time>
      </trkpt>
      <trkpt lat="37.49926" lon="27.54288">
        <ele>41.803</ele>
        <time>2020-12-13T07:04:32Z</time>
      </trkpt>
      <trkpt lat="37.49926" lon="27.54288">
        <ele>41.803</ele>
        <time>2020-12-13T07:04:33Z</time>
      </trkpt>
      <trkpt lat="37.49925" lon="27.54292">
        <ele>42.635</ele>
        <time>2020-12-13T07:04:34Z</time>
      </trkpt>
      <trkpt lat="37.49925" lon="27.54292">
        <ele>42.635</ele>
        <time>2020-12-13T07:04:35Z</time>
      </trkpt>
      <trkpt lat="37.49926" lon="27.54294">
        <ele>43.234</ele>
        <time>2020-12-13T07:04:36Z</time>
      </trkpt>
      <trkpt lat="37.49926" lon="27.54294">
        <ele>43.234</ele>
        <time>2020-12-13T07:04:37Z</time>
      </trkpt>
      <trkpt lat="37.49927" lon="27.54297">
        <ele>43.957</ele>
        <time>2020-12-13T07:04:38Z</time>
      </trkpt>
      <trkpt lat="37.49927" lon="27.54297">
        <ele>43.957</ele>
        <time>2020-12-13T07:04:39Z</time>
      </trkpt>
      <trkpt lat="37.49925" lon="27.54299">
        <ele>44.516</ele>
        <time>2020-12-13T07:04:40Z</time>
      </trkpt>
      <trkpt lat="37.49925" lon="27.54299">
        <ele>44.516</ele>
        <time>2020-12-13T07:04:41Z</time>
      </trkpt>
      <trkpt lat="37.49923" lon="27.543">
        <ele>44.78</ele>
        <time>2020-12-13T07:04:42Z</time>
      </trkpt>
      <trkpt lat="37.49923" lon="27.543">
        <ele>44.78</ele>
        <time>2020-12-13T07:04:43Z</time>
      </trkpt>
      <trkpt lat="37.49921" lon="27.54301">
        <ele>44.937</ele>
        <time>2020-12-13T07:04:44Z</time>
      </trkpt>
      <trkpt lat="37.49921" lon="27.54301">
        <ele>44.937</ele>
        <time>2020-12-13T07:04:45Z</time>
      </trkpt>
      <trkpt lat="37.49921" lon="27.54301">
        <ele>44.937</ele>
        <time>2020-12-13T07:04:46Z</time>
      </trkpt>
      <trkpt lat="37.49919" lon="27.54301">
        <ele>44.932</ele>
        <time>2020-12-13T07:04:47Z</time>
      </trkpt>
      <trkpt lat="37.49919" lon="27.54301">
        <ele>44.932</ele>
        <time>2020-12-13T07:04:48Z</time>
      </trkpt>
      <trkpt lat="37.49917" lon="27.54302">
        <ele>45.139</ele>
        <time>2020-12-13T07:04:49Z</time>
      </trkpt>
      <trkpt lat="37.49917" lon="27.54302">
        <ele>45.139</ele>
        <time>2020-12-13T07:04:50Z</time>
      </trkpt>
      <trkpt lat="37.49917" lon="27.54302">
        <ele>45.139</ele>
        <time>2020-12-13T07:04:51Z</time>
      </trkpt>
      <trkpt lat="37.49915" lon="27.54302">
        <ele>45.122</ele>
        <time>2020-12-13T07:04:52Z</time>
      </trkpt>
      <trkpt lat="37.49915" lon="27.54302">
        <ele>45.122</ele>
        <time>2020-12-13T07:04:53Z</time>
      </trkpt>
      <trkpt lat="37.49915" lon="27.54302">
        <ele>45.122</ele>
        <time>2020-12-13T07:04:54Z</time>
      </trkpt>
      <trkpt lat="37.49912" lon="27.54303">
        <ele>45.198</ele>
        <time>2020-12-13T07:04:55Z</time>
      </trkpt>
      <trkpt lat="37.49912" lon="27.54303">
        <ele>45.198</ele>
        <time>2020-12-13T07:04:56Z</time>
      </trkpt>
      <trkpt lat="37.49912" lon="27.54303">
        <ele>45.198</ele>
        <time>2020-12-13T07:04:57Z</time>
      </trkpt>
      <trkpt lat="37.49911" lon="27.54305">
        <ele>45.529</ele>
        <time>2020-12-13T07:04:58Z</time>
      </trkpt>
      <trkpt lat="37.49911" lon="27.54305">
        <ele>45.529</ele>
        <time>2020-12-13T07:04:59Z</time>
      </trkpt>
      <trkpt lat="37.49911" lon="27.54305">
        <ele>45.529</ele>
        <time>2020-12-13T07:05:00Z</time>
      </trkpt>
      <trkpt lat="37.49911" lon="27.54305">
        <ele>45.529</ele>
        <time>2020-12-13T07:05:01Z</time>
      </trkpt>
      <trkpt lat="37.49909" lon="27.54306">
        <ele>45.883</ele>
        <time>2020-12-13T07:05:02Z</time>
      </trkpt>
      <trkpt lat="37.49909" lon="27.54306">
        <ele>45.883</ele>
        <time>2020-12-13T07:05:03Z</time>
      </trkpt>
      <trkpt lat="37.49907" lon="27.54307">
        <ele>46.084</ele>
        <time>2020-12-13T07:05:04Z</time>
      </trkpt>
      <trkpt lat="37.49907" lon="27.54307">
        <ele>46.084</ele>
        <time>2020-12-13T07:05:05Z</time>
      </trkpt>
      <trkpt lat="37.49905" lon="27.54307">
        <ele>45.884</ele>
        <time>2020-12-13T07:05:06Z</time>
      </trkpt>
      <trkpt lat="37.49905" lon="27.54307">
        <ele>45.884</ele>
        <time>2020-12-13T07:05:07Z</time>
      </trkpt>
      <trkpt lat="37.49903" lon="27.54307">
        <ele>45.994</ele>
        <time>2020-12-13T07:05:08Z</time>
      </trkpt>
      <trkpt lat="37.49903" lon="27.54307">
        <ele>45.994</ele>
        <time>2020-12-13T07:05:09Z</time>
      </trkpt>
      <trkpt lat="37.49901" lon="27.54307">
        <ele>45.86</ele>
        <time>2020-12-13T07:05:10Z</time>
      </trkpt>
      <trkpt lat="37.49901" lon="27.54307">
        <ele>45.86</ele>
        <time>2020-12-13T07:05:11Z</time>
      </trkpt>
      <trkpt lat="37.49901" lon="27.54307">
        <ele>45.86</ele>
        <time>2020-12-13T07:05:12Z</time>
      </trkpt>
      <trkpt lat="37.49899" lon="27.54307">
        <ele>45.845</ele>
        <time>2020-12-13T07:05:13Z</time>
      </trkpt>
      <trkpt lat="37.49899" lon="27.54307">
        <ele>45.845</ele>
        <time>2020-12-13T07:05:14Z</time>
      </trkpt>
      <trkpt lat="37.49897" lon="27.54309">
        <ele>46.194</ele>
        <time>2020-12-13T07:05:15Z</time>
      </trkpt>
      <trkpt lat="37.49897" lon="27.54309">
        <ele>46.194</ele>
        <time>2020-12-13T07:05:16Z</time>
      </trkpt>
      <trkpt lat="37.49895" lon="27.54309">
        <ele>46.29</ele>
        <time>2020-12-13T07:05:17Z</time>
      </trkpt>
      <trkpt lat="37.49895" lon="27.54309">
        <ele>46.29</ele>
        <time>2020-12-13T07:05:18Z</time>
      </trkpt>
      <trkpt lat="37.49893" lon="27.5431">
        <ele>46.44</ele>
        <time>2020-12-13T07:05:19Z</time>
      </trkpt>
      <trkpt lat="37.49893" lon="27.5431">
        <ele>46.44</ele>
        <time>2020-12-13T07:05:20Z</time>
      </trkpt>
      <trkpt lat="37.4989" lon="27.5431">
        <ele>46.356</ele>
        <time>2020-12-13T07:05:21Z</time>
      </trkpt>
      <trkpt lat="37.4989" lon="27.5431">
        <ele>46.356</ele>
        <time>2020-12-13T07:05:22Z</time>
      </trkpt>
      <trkpt lat="37.4989" lon="27.5431">
        <ele>46.356</ele>
        <time>2020-12-13T07:05:23Z</time>
      </trkpt>
      <trkpt lat="37.49886" lon="27.54311">
        <ele>46.532</ele>
        <time>2020-12-13T07:05:24Z</time>
      </trkpt>
      <trkpt lat="37.49886" lon="27.54311">
        <ele>46.532</ele>
        <time>2020-12-13T07:05:25Z</time>
      </trkpt>
      <trkpt lat="37.49884" lon="27.54314">
        <ele>47.334</ele>
        <time>2020-12-13T07:05:26Z</time>
      </trkpt>
      <trkpt lat="37.49884" lon="27.54314">
        <ele>47.334</ele>
        <time>2020-12-13T07:05:27Z</time>
      </trkpt>
      <trkpt lat="37.49882" lon="27.54318">
        <ele>48.419</ele>
        <time>2020-12-13T07:05:28Z</time>
      </trkpt>
      <trkpt lat="37.4988" lon="27.5432">
        <ele>49.085</ele>
        <time>2020-12-13T07:05:29Z</time>
      </trkpt>
      <trkpt lat="37.49879" lon="27.54322">
        <ele>49.619</ele>
        <time>2020-12-13T07:05:30Z</time>
      </trkpt>
      <trkpt lat="37.49879" lon="27.54322">
        <ele>49.619</ele>
        <time>2020-12-13T07:05:31Z</time>
      </trkpt>
      <trkpt lat="37.49877" lon="27.54325">
        <ele>50.708</ele>
        <time>2020-12-13T07:05:32Z</time>
      </trkpt>
      <trkpt lat="37.49877" lon="27.54325">
        <ele>50.708</ele>
        <time>2020-12-13T07:05:33Z</time>
      </trkpt>
      <trkpt lat="37.49875" lon="27.54327">
        <ele>51.262</ele>
        <time>2020-12-13T07:05:34Z</time>
      </trkpt>
      <trkpt lat="37.49875" lon="27.54327">
        <ele>51.262</ele>
        <time>2020-12-13T07:05:35Z</time>
      </trkpt>
      <trkpt lat="37.49874" lon="27.54328">
        <ele>51.557</ele>
        <time>2020-12-13T07:05:36Z</time>
      </trkpt>
      <trkpt lat="37.49874" lon="27.54328">
        <ele>51.557</ele>
        <time>2020-12-13T07:05:37Z</time>
      </trkpt>
      <trkpt lat="37.49874" lon="27.54328">
        <ele>51.557</ele>
        <time>2020-12-13T07:05:38Z</time>
      </trkpt>
      <trkpt lat="37.49874" lon="27.54328">
        <ele>51.557</ele>
        <time>2020-12-13T07:05:39Z</time>
      </trkpt>
      <trkpt lat="37.49874" lon="27.54328">
        <ele>51.557</ele>
        <time>2020-12-13T07:05:40Z</time>
      </trkpt>
      <trkpt lat="37.49873" lon="27.54328">
        <ele>51.847</ele>
        <time>2020-12-13T07:05:41Z</time>
      </trkpt>
      <trkpt lat="37.49873" lon="27.54329">
        <ele>52.136</ele>
        <time>2020-12-13T07:05:42Z</time>
      </trkpt>
      <trkpt lat="37.49872" lon="27.5433">
        <ele>52.432</ele>
        <time>2020-12-13T07:05:43Z</time>
      </trkpt>
      <trkpt lat="37.49871" lon="27.54331">
        <ele>52.73</ele>
        <time>2020-12-13T07:05:44Z</time>
      </trkpt>
      <trkpt lat="37.49871" lon="27.54332">
        <ele>53.034</ele>
        <time>2020-12-13T07:05:45Z</time>
      </trkpt>
      <trkpt lat="37.4987" lon="27.54332">
        <ele>53.336</ele>
        <time>2020-12-13T07:05:46Z</time>
      </trkpt>
      <trkpt lat="37.4987" lon="27.54333">
        <ele>53.645</ele>
        <time>2020-12-13T07:05:47Z</time>
      </trkpt>
      <trkpt lat="37.4987" lon="27.54333">
        <ele>53.645</ele>
        <time>2020-12-13T07:05:48Z</time>
      </trkpt>
      <trkpt lat="37.4987" lon="27.54333">
        <ele>53.645</ele>
        <time>2020-12-13T07:05:49Z</time>
      </trkpt>
      <trkpt lat="37.49868" lon="27.54337">
        <ele>54.863</ele>
        <time>2020-12-13T07:05:50Z</time>
      </trkpt>
      <trkpt lat="37.49868" lon="27.54337">
        <ele>54.863</ele>
        <time>2020-12-13T07:05:51Z</time>
      </trkpt>
      <trkpt lat="37.49868" lon="27.54337">
        <ele>54.863</ele>
        <time>2020-12-13T07:05:52Z</time>
      </trkpt>
      <trkpt lat="37.49868" lon="27.54337">
        <ele>54.863</ele>
        <time>2020-12-13T07:05:53Z</time>
      </trkpt>
      <trkpt lat="37.49868" lon="27.54337">
        <ele>54.863</ele>
        <time>2020-12-13T07:05:54Z</time>
      </trkpt>
      <trkpt lat="37.49868" lon="27.54337">
        <ele>54.863</ele>
        <time>2020-12-13T07:05:55Z</time>
      </trkpt>
      <trkpt lat="37.49868" lon="27.54337">
        <ele>54.863</ele>
        <time>2020-12-13T07:05:56Z</time>
      </trkpt>
      <trkpt lat="37.49868" lon="27.54337">
        <ele>54.863</ele>
        <time>2020-12-13T07:05:57Z</time>
      </trkpt>
      <trkpt lat="37.49868" lon="27.54337">
        <ele>54.863</ele>
        <time>2020-12-13T07:05:58Z</time>
      </trkpt>
      <trkpt lat="37.49868" lon="27.54339">
        <ele>55.765</ele>
        <time>2020-12-13T07:05:59Z</time>
      </trkpt>
      <trkpt lat="37.49868" lon="27.54339">
        <ele>55.765</ele>
        <time>2020-12-13T07:06:00Z</time>
      </trkpt>
      <trkpt lat="37.49868" lon="27.54339">
        <ele>55.765</ele>
        <time>2020-12-13T07:06:01Z</time>
      </trkpt>
      <trkpt lat="37.49865" lon="27.54341">
        <ele>56.317</ele>
        <time>2020-12-13T07:06:02Z</time>
      </trkpt>
      <trkpt lat="37.49865" lon="27.54341">
        <ele>56.317</ele>
        <time>2020-12-13T07:06:03Z</time>
      </trkpt>
      <trkpt lat="37.49865" lon="27.54341">
        <ele>56.317</ele>
        <time>2020-12-13T07:06:04Z</time>
      </trkpt>
      <trkpt lat="37.49865" lon="27.54341">
        <ele>56.317</ele>
        <time>2020-12-13T07:06:05Z</time>
      </trkpt>
      <trkpt lat="37.49865" lon="27.54341">
        <ele>56.317</ele>
        <time>2020-12-13T07:06:06Z</time>
      </trkpt>
      <trkpt lat="37.49865" lon="27.54341">
        <ele>56.317</ele>
        <time>2020-12-13T07:06:07Z</time>
      </trkpt>
      <trkpt lat="37.49863" lon="27.54341">
        <ele>56.52</ele>
        <time>2020-12-13T07:06:08Z</time>
      </trkpt>
      <trkpt lat="37.49863" lon="27.54341">
        <ele>56.52</ele>
        <time>2020-12-13T07:06:09Z</time>
      </trkpt>
      <trkpt lat="37.49863" lon="27.54341">
        <ele>56.52</ele>
        <time>2020-12-13T07:06:10Z</time>
      </trkpt>
      <trkpt lat="37.49861" lon="27.54343">
        <ele>57.259</ele>
        <time>2020-12-13T07:06:11Z</time>
      </trkpt>
      <trkpt lat="37.49861" lon="27.54343">
        <ele>57.259</ele>
        <time>2020-12-13T07:06:12Z</time>
      </trkpt>
      <trkpt lat="37.49859" lon="27.54344">
        <ele>57.638</ele>
        <time>2020-12-13T07:06:13Z</time>
      </trkpt>
      <trkpt lat="37.49859" lon="27.54344">
        <ele>57.638</ele>
        <time>2020-12-13T07:06:14Z</time>
      </trkpt>
      <trkpt lat="37.49857" lon="27.54344">
        <ele>58.221</ele>
        <time>2020-12-13T07:06:15Z</time>
      </trkpt>
      <trkpt lat="37.49857" lon="27.54344">
        <ele>58.221</ele>
        <time>2020-12-13T07:06:16Z</time>
      </trkpt>
      <trkpt lat="37.49854" lon="27.54345">
        <ele>58.742</ele>
        <time>2020-12-13T07:06:17Z</time>
      </trkpt>
      <trkpt lat="37.49854" lon="27.54345">
        <ele>58.742</ele>
        <time>2020-12-13T07:06:18Z</time>
      </trkpt>
      <trkpt lat="37.49854" lon="27.54345">
        <ele>58.742</ele>
        <time>2020-12-13T07:06:19Z</time>
      </trkpt>
      <trkpt lat="37.49854" lon="27.54345">
        <ele>58.742</ele>
        <time>2020-12-13T07:06:20Z</time>
      </trkpt>
      <trkpt lat="37.49854" lon="27.54345">
        <ele>58.742</ele>
        <time>2020-12-13T07:06:21Z</time>
      </trkpt>
      <trkpt lat="37.49853" lon="27.54344">
        <ele>58.619</ele>
        <time>2020-12-13T07:06:22Z</time>
      </trkpt>
      <trkpt lat="37.49852" lon="27.54343">
        <ele>58.452</ele>
        <time>2020-12-13T07:06:23Z</time>
      </trkpt>
      <trkpt lat="37.49851" lon="27.54342">
        <ele>58.324</ele>
        <time>2020-12-13T07:06:24Z</time>
      </trkpt>
      <trkpt lat="37.4985" lon="27.54342">
        <ele>58.138</ele>
        <time>2020-12-13T07:06:25Z</time>
      </trkpt>
      <trkpt lat="37.49849" lon="27.54341">
        <ele>57.978</ele>
        <time>2020-12-13T07:06:26Z</time>
      </trkpt>
      <trkpt lat="37.49848" lon="27.5434">
        <ele>57.77</ele>
        <time>2020-12-13T07:06:27Z</time>
      </trkpt>
      <trkpt lat="37.49846" lon="27.54339">
        <ele>57.603</ele>
        <time>2020-12-13T07:06:28Z</time>
      </trkpt>
      <trkpt lat="37.49845" lon="27.54339">
        <ele>57.375</ele>
        <time>2020-12-13T07:06:29Z</time>
      </trkpt>
      <trkpt lat="37.49844" lon="27.54338">
        <ele>57.177</ele>
        <time>2020-12-13T07:06:30Z</time>
      </trkpt>
      <trkpt lat="37.49844" lon="27.54338">
        <ele>57.177</ele>
        <time>2020-12-13T07:06:31Z</time>
      </trkpt>
      <trkpt lat="37.49844" lon="27.54338">
        <ele>57.177</ele>
        <time>2020-12-13T07:06:32Z</time>
      </trkpt>
      <trkpt lat="37.49844" lon="27.54339">
        <ele>57.512</ele>
        <time>2020-12-13T07:06:33Z</time>
      </trkpt>
      <trkpt lat="37.49843" lon="27.54339">
        <ele>57.848</ele>
        <time>2020-12-13T07:06:34Z</time>
      </trkpt>
      <trkpt lat="37.49842" lon="27.5434">
        <ele>58.182</ele>
        <time>2020-12-13T07:06:35Z</time>
      </trkpt>
      <trkpt lat="37.49842" lon="27.5434">
        <ele>58.533</ele>
        <time>2020-12-13T07:06:36Z</time>
      </trkpt>
      <trkpt lat="37.49841" lon="27.54341">
        <ele>58.886</ele>
        <time>2020-12-13T07:06:37Z</time>
      </trkpt>
      <trkpt lat="37.4984" lon="27.54342">
        <ele>59.247</ele>
        <time>2020-12-13T07:06:38Z</time>
      </trkpt>
      <trkpt lat="37.4984" lon="27.54342">
        <ele>59.61</ele>
        <time>2020-12-13T07:06:39Z</time>
      </trkpt>
      <trkpt lat="37.49839" lon="27.54343">
        <ele>59.982</ele>
        <time>2020-12-13T07:06:40Z</time>
      </trkpt>
      <trkpt lat="37.49838" lon="27.54343">
        <ele>60.343</ele>
        <time>2020-12-13T07:06:41Z</time>
      </trkpt>
      <trkpt lat="37.49838" lon="27.54344">
        <ele>60.726</ele>
        <time>2020-12-13T07:06:42Z</time>
      </trkpt>
      <trkpt lat="37.49837" lon="27.54345">
        <ele>61.115</ele>
        <time>2020-12-13T07:06:43Z</time>
      </trkpt>
      <trkpt lat="37.49836" lon="27.54348">
        <ele>62.962</ele>
        <time>2020-12-13T07:06:44Z</time>
      </trkpt>
      <trkpt lat="37.49836" lon="27.54348">
        <ele>62.962</ele>
        <time>2020-12-13T07:06:45Z</time>
      </trkpt>
      <trkpt lat="37.49836" lon="27.54348">
        <ele>62.962</ele>
        <time>2020-12-13T07:06:46Z</time>
      </trkpt>
      <trkpt lat="37.49834" lon="27.5435">
        <ele>64.249</ele>
        <time>2020-12-13T07:06:47Z</time>
      </trkpt>
      <trkpt lat="37.49834" lon="27.5435">
        <ele>64.249</ele>
        <time>2020-12-13T07:06:48Z</time>
      </trkpt>
      <trkpt lat="37.49834" lon="27.5435">
        <ele>64.249</ele>
        <time>2020-12-13T07:06:49Z</time>
      </trkpt>
      <trkpt lat="37.49834" lon="27.5435">
        <ele>64.249</ele>
        <time>2020-12-13T07:06:50Z</time>
      </trkpt>
      <trkpt lat="37.49834" lon="27.5435">
        <ele>64.249</ele>
        <time>2020-12-13T07:06:51Z</time>
      </trkpt>
      <trkpt lat="37.49834" lon="27.5435">
        <ele>64.249</ele>
        <time>2020-12-13T07:06:52Z</time>
      </trkpt>
      <trkpt lat="37.49834" lon="27.5435">
        <ele>64.249</ele>
        <time>2020-12-13T07:06:53Z</time>
      </trkpt>
      <trkpt lat="37.49834" lon="27.5435">
        <ele>64.249</ele>
        <time>2020-12-13T07:06:54Z</time>
      </trkpt>
      <trkpt lat="37.49834" lon="27.5435">
        <ele>64.249</ele>
        <time>2020-12-13T07:06:55Z</time>
      </trkpt>
      <trkpt lat="37.49831" lon="27.54352">
        <ele>66.026</ele>
        <time>2020-12-13T07:06:56Z</time>
      </trkpt>
      <trkpt lat="37.49831" lon="27.54352">
        <ele>66.026</ele>
        <time>2020-12-13T07:06:57Z</time>
      </trkpt>
      <trkpt lat="37.49831" lon="27.54352">
        <ele>66.026</ele>
        <time>2020-12-13T07:06:58Z</time>
      </trkpt>
      <trkpt lat="37.49831" lon="27.54352">
        <ele>66.026</ele>
        <time>2020-12-13T07:06:59Z</time>
      </trkpt>
      <trkpt lat="37.49831" lon="27.54352">
        <ele>66.026</ele>
        <time>2020-12-13T07:07:00Z</time>
      </trkpt>
      <trkpt lat="37.49831" lon="27.54353">
        <ele>66.2</ele>
        <time>2020-12-13T07:07:01Z</time>
      </trkpt>
      <trkpt lat="37.49831" lon="27.54353">
        <ele>66.374</ele>
        <time>2020-12-13T07:07:02Z</time>
      </trkpt>
      <trkpt lat="37.49831" lon="27.54353">
        <ele>66.597</ele>
        <time>2020-12-13T07:07:03Z</time>
      </trkpt>
      <trkpt lat="37.4983" lon="27.54354">
        <ele>66.767</ele>
        <time>2020-12-13T07:07:04Z</time>
      </trkpt>
      <trkpt lat="37.4983" lon="27.54354">
        <ele>66.941</ele>
        <time>2020-12-13T07:07:05Z</time>
      </trkpt>
      <trkpt lat="37.4983" lon="27.54354">
        <ele>67.115</ele>
        <time>2020-12-13T07:07:06Z</time>
      </trkpt>
      <trkpt lat="37.4983" lon="27.54355">
        <ele>67.34</ele>
        <time>2020-12-13T07:07:07Z</time>
      </trkpt>
      <trkpt lat="37.4983" lon="27.54355">
        <ele>67.51</ele>
        <time>2020-12-13T07:07:08Z</time>
      </trkpt>
      <trkpt lat="37.4983" lon="27.54355">
        <ele>67.684</ele>
        <time>2020-12-13T07:07:09Z</time>
      </trkpt>
      <trkpt lat="37.4983" lon="27.54355">
        <ele>67.859</ele>
        <time>2020-12-13T07:07:10Z</time>
      </trkpt>
      <trkpt lat="37.4983" lon="27.54356">
        <ele>68.084</ele>
        <time>2020-12-13T07:07:11Z</time>
      </trkpt>
      <trkpt lat="37.4983" lon="27.54356">
        <ele>68.259</ele>
        <time>2020-12-13T07:07:12Z</time>
      </trkpt>
      <trkpt lat="37.4983" lon="27.54356">
        <ele>68.429</ele>
        <time>2020-12-13T07:07:13Z</time>
      </trkpt>
      <trkpt lat="37.49829" lon="27.54357">
        <ele>68.604</ele>
        <time>2020-12-13T07:07:14Z</time>
      </trkpt>
      <trkpt lat="37.49829" lon="27.54357">
        <ele>68.83</ele>
        <time>2020-12-13T07:07:15Z</time>
      </trkpt>
      <trkpt lat="37.49829" lon="27.54357">
        <ele>69.005</ele>
        <time>2020-12-13T07:07:16Z</time>
      </trkpt>
      <trkpt lat="37.49829" lon="27.54358">
        <ele>69.174</ele>
        <time>2020-12-13T07:07:17Z</time>
      </trkpt>
      <trkpt lat="37.49829" lon="27.54358">
        <ele>69.174</ele>
        <time>2020-12-13T07:07:18Z</time>
      </trkpt>
      <trkpt lat="37.49829" lon="27.54358">
        <ele>69.174</ele>
        <time>2020-12-13T07:07:19Z</time>
      </trkpt>
      <trkpt lat="37.49829" lon="27.54358">
        <ele>69.174</ele>
        <time>2020-12-13T07:07:20Z</time>
      </trkpt>
      <trkpt lat="37.49829" lon="27.54358">
        <ele>69.174</ele>
        <time>2020-12-13T07:07:21Z</time>
      </trkpt>
      <trkpt lat="37.49829" lon="27.54358">
        <ele>69.174</ele>
        <time>2020-12-13T07:07:22Z</time>
      </trkpt>
      <trkpt lat="37.49829" lon="27.54358">
        <ele>69.174</ele>
        <time>2020-12-13T07:07:23Z</time>
      </trkpt>
      <trkpt lat="37.49822" lon="27.54355">
        <ele>69.152</ele>
        <time>2020-12-13T07:08:18Z</time>
      </trkpt>
      <trkpt lat="37.49822" lon="27.54355">
        <ele>69.152</ele>
        <time>2020-12-13T07:08:19Z</time>
      </trkpt>
      <trkpt lat="37.49822" lon="27.54355">
        <ele>69.152</ele>
        <time>2020-12-13T07:08:20Z</time>
      </trkpt>
      <trkpt lat="37.49822" lon="27.54355">
        <ele>69.152</ele>
        <time>2020-12-13T07:08:21Z</time>
      </trkpt>
      <trkpt lat="37.49822" lon="27.54355">
        <ele>69.152</ele>
        <time>2020-12-13T07:08:22Z</time>
      </trkpt>
      <trkpt lat="37.49822" lon="27.54355">
        <ele>69.152</ele>
        <time>2020-12-13T07:08:23Z</time>
      </trkpt>
      <trkpt lat="37.49822" lon="27.54355">
        <ele>69.152</ele>
        <time>2020-12-13T07:08:24Z</time>
      </trkpt>
      <trkpt lat="37.49822" lon="27.54355">
        <ele>69.152</ele>
        <time>2020-12-13T07:08:25Z</time>
      </trkpt>
      <trkpt lat="37.49822" lon="27.54355">
        <ele>69.152</ele>
        <time>2020-12-13T07:08:26Z</time>
      </trkpt>
      <trkpt lat="37.49822" lon="27.54355">
        <ele>69.152</ele>
        <time>2020-12-13T07:08:27Z</time>
      </trkpt>
      <trkpt lat="37.49822" lon="27.54355">
        <ele>69.152</ele>
        <time>2020-12-13T07:08:28Z</time>
      </trkpt>
      <trkpt lat="37.49822" lon="27.54355">
        <ele>69.152</ele>
        <time>2020-12-13T07:08:29Z</time>
      </trkpt>
      <trkpt lat="37.49822" lon="27.54355">
        <ele>69.152</ele>
        <time>2020-12-13T07:08:30Z</time>
      </trkpt>
      <trkpt lat="37.49822" lon="27.54355">
        <ele>69.152</ele>
        <time>2020-12-13T07:08:31Z</time>
      </trkpt>
      <trkpt lat="37.49822" lon="27.54355">
        <ele>69.152</ele>
        <time>2020-12-13T07:08:32Z</time>
      </trkpt>
      <trkpt lat="37.49822" lon="27.54355">
        <ele>69.152</ele>
        <time>2020-12-13T07:08:33Z</time>
      </trkpt>
      <trkpt lat="37.49822" lon="27.54355">
        <ele>69.152</ele>
        <time>2020-12-13T07:08:34Z</time>
      </trkpt>
      <trkpt lat="37.49822" lon="27.54355">
        <ele>69.152</ele>
        <time>2020-12-13T07:08:35Z</time>
      </trkpt>
      <trkpt lat="37.49822" lon="27.54355">
        <ele>69.152</ele>
        <time>2020-12-13T07:08:36Z</time>
      </trkpt>
      <trkpt lat="37.49822" lon="27.54355">
        <ele>69.152</ele>
        <time>2020-12-13T07:08:37Z</time>
      </trkpt>
      <trkpt lat="37.49822" lon="27.54355">
        <ele>69.152</ele>
        <time>2020-12-13T07:18:52Z</time>
      </trkpt>
      <trkpt lat="37.49822" lon="27.54355">
        <ele>69.152</ele>
        <time>2020-12-13T07:18:53Z</time>
      </trkpt>
      <trkpt lat="37.49822" lon="27.54355">
        <ele>69.152</ele>
        <time>2020-12-13T07:18:54Z</time>
      </trkpt>
      <trkpt lat="37.49822" lon="27.54355">
        <ele>69.152</ele>
        <time>2020-12-13T07:18:55Z</time>
      </trkpt>
      <trkpt lat="37.49822" lon="27.54355">
        <ele>69.152</ele>
        <time>2020-12-13T07:18:56Z</time>
      </trkpt>
      <trkpt lat="37.49822" lon="27.54355">
        <ele>69.152</ele>
        <time>2020-12-13T07:18:57Z</time>
      </trkpt>
      <trkpt lat="37.49816" lon="27.54353">
        <ele>69.366</ele>
        <time>2020-12-13T07:18:58Z</time>
      </trkpt>
      <trkpt lat="37.49816" lon="27.54353">
        <ele>69.366</ele>
        <time>2020-12-13T07:18:59Z</time>
      </trkpt>
      <trkpt lat="37.49816" lon="27.54353">
        <ele>69.366</ele>
        <time>2020-12-13T07:19:00Z</time>
      </trkpt>
      <trkpt lat="37.49816" lon="27.54353">
        <ele>69.366</ele>
        <time>2020-12-13T07:19:01Z</time>
      </trkpt>
      <trkpt lat="37.49814" lon="27.54353">
        <ele>69.735</ele>
        <time>2020-12-13T07:19:02Z</time>
      </trkpt>
      <trkpt lat="37.49814" lon="27.54353">
        <ele>69.735</ele>
        <time>2020-12-13T07:19:03Z</time>
      </trkpt>
      <trkpt lat="37.49812" lon="27.54353">
        <ele>70.337</ele>
        <time>2020-12-13T07:19:04Z</time>
      </trkpt>
      <trkpt lat="37.49812" lon="27.54353">
        <ele>70.337</ele>
        <time>2020-12-13T07:19:05Z</time>
      </trkpt>
      <trkpt lat="37.49812" lon="27.54353">
        <ele>70.337</ele>
        <time>2020-12-13T07:19:06Z</time>
      </trkpt>
      <trkpt lat="37.49812" lon="27.54353">
        <ele>70.337</ele>
        <time>2020-12-13T07:19:07Z</time>
      </trkpt>
      <trkpt lat="37.49812" lon="27.54353">
        <ele>70.337</ele>
        <time>2020-12-13T07:19:08Z</time>
      </trkpt>
      <trkpt lat="37.49812" lon="27.54353">
        <ele>70.337</ele>
        <time>2020-12-13T07:19:47Z</time>
      </trkpt>
      <trkpt lat="37.49812" lon="27.54353">
        <ele>70.337</ele>
        <time>2020-12-13T07:19:48Z</time>
      </trkpt>
      <trkpt lat="37.49803" lon="27.54356">
        <ele>73.262</ele>
        <time>2020-12-13T07:19:49Z</time>
      </trkpt>
      <trkpt lat="37.49803" lon="27.54356">
        <ele>73.262</ele>
        <time>2020-12-13T07:19:50Z</time>
      </trkpt>
      <trkpt lat="37.49803" lon="27.54356">
        <ele>73.262</ele>
        <time>2020-12-13T07:19:51Z</time>
      </trkpt>
      <trkpt lat="37.49803" lon="27.54356">
        <ele>73.262</ele>
        <time>2020-12-13T07:19:52Z</time>
      </trkpt>
      <trkpt lat="37.49803" lon="27.54358">
        <ele>74.434</ele>
        <time>2020-12-13T07:19:53Z</time>
      </trkpt>
      <trkpt lat="37.49803" lon="27.54358">
        <ele>74.434</ele>
        <time>2020-12-13T07:19:54Z</time>
      </trkpt>
      <trkpt lat="37.49803" lon="27.54358">
        <ele>74.434</ele>
        <time>2020-12-13T07:19:55Z</time>
      </trkpt>
      <trkpt lat="37.49804" lon="27.54361">
        <ele>75.722</ele>
        <time>2020-12-13T07:19:56Z</time>
      </trkpt>
      <trkpt lat="37.49804" lon="27.54361">
        <ele>75.722</ele>
        <time>2020-12-13T07:19:57Z</time>
      </trkpt>
      <trkpt lat="37.49802" lon="27.54363">
        <ele>76.571</ele>
        <time>2020-12-13T07:19:58Z</time>
      </trkpt>
      <trkpt lat="37.49802" lon="27.54363">
        <ele>76.571</ele>
        <time>2020-12-13T07:19:59Z</time>
      </trkpt>
      <trkpt lat="37.498" lon="27.54364">
        <ele>76.827</ele>
        <time>2020-12-13T07:20:00Z</time>
      </trkpt>
      <trkpt lat="37.498" lon="27.54364">
        <ele>76.827</ele>
        <time>2020-12-13T07:20:01Z</time>
      </trkpt>
      <trkpt lat="37.498" lon="27.54364">
        <ele>76.827</ele>
        <time>2020-12-13T07:20:02Z</time>
      </trkpt>
      <trkpt lat="37.498" lon="27.54364">
        <ele>76.827</ele>
        <time>2020-12-13T07:20:03Z</time>
      </trkpt>
      <trkpt lat="37.498" lon="27.54364">
        <ele>76.827</ele>
        <time>2020-12-13T07:20:04Z</time>
      </trkpt>
      <trkpt lat="37.49799" lon="27.54366">
        <ele>77.311</ele>
        <time>2020-12-13T07:20:05Z</time>
      </trkpt>
      <trkpt lat="37.49799" lon="27.54366">
        <ele>77.311</ele>
        <time>2020-12-13T07:20:06Z</time>
      </trkpt>
      <trkpt lat="37.49799" lon="27.54366">
        <ele>77.311</ele>
        <time>2020-12-13T07:20:07Z</time>
      </trkpt>
      <trkpt lat="37.49797" lon="27.54367">
        <ele>77.781</ele>
        <time>2020-12-13T07:20:08Z</time>
      </trkpt>
      <trkpt lat="37.49797" lon="27.54367">
        <ele>77.781</ele>
        <time>2020-12-13T07:20:09Z</time>
      </trkpt>
      <trkpt lat="37.49794" lon="27.54367">
        <ele>77.761</ele>
        <time>2020-12-13T07:20:10Z</time>
      </trkpt>
      <trkpt lat="37.49794" lon="27.54367">
        <ele>77.761</ele>
        <time>2020-12-13T07:20:11Z</time>
      </trkpt>
      <trkpt lat="37.49791" lon="27.54368">
        <ele>78.006</ele>
        <time>2020-12-13T07:20:12Z</time>
      </trkpt>
      <trkpt lat="37.49789" lon="27.54368">
        <ele>78.243</ele>
        <time>2020-12-13T07:20:13Z</time>
      </trkpt>
      <trkpt lat="37.49787" lon="27.54369">
        <ele>78.365</ele>
        <time>2020-12-13T07:20:14Z</time>
      </trkpt>
      <trkpt lat="37.49786" lon="27.54369">
        <ele>78.503</ele>
        <time>2020-12-13T07:20:15Z</time>
      </trkpt>
      <trkpt lat="37.49786" lon="27.54369">
        <ele>78.503</ele>
        <time>2020-12-13T07:20:16Z</time>
      </trkpt>
      <trkpt lat="37.49786" lon="27.54369">
        <ele>78.503</ele>
        <time>2020-12-13T07:20:17Z</time>
      </trkpt>
      <trkpt lat="37.49782" lon="27.54372">
        <ele>79.25</ele>
        <time>2020-12-13T07:20:18Z</time>
      </trkpt>
      <trkpt lat="37.49782" lon="27.54372">
        <ele>79.25</ele>
        <time>2020-12-13T07:20:19Z</time>
      </trkpt>
      <trkpt lat="37.4978" lon="27.54372">
        <ele>79.346</ele>
        <time>2020-12-13T07:20:20Z</time>
      </trkpt>
      <trkpt lat="37.49778" lon="27.54371">
        <ele>79.167</ele>
        <time>2020-12-13T07:20:21Z</time>
      </trkpt>
      <trkpt lat="37.49778" lon="27.54371">
        <ele>79.167</ele>
        <time>2020-12-13T07:20:22Z</time>
      </trkpt>
      <trkpt lat="37.49775" lon="27.5437">
        <ele>78.679</ele>
        <time>2020-12-13T07:20:23Z</time>
      </trkpt>
      <trkpt lat="37.49775" lon="27.5437">
        <ele>78.679</ele>
        <time>2020-12-13T07:20:24Z</time>
      </trkpt>
      <trkpt lat="37.49772" lon="27.54368">
        <ele>78.034</ele>
        <time>2020-12-13T07:20:25Z</time>
      </trkpt>
      <trkpt lat="37.4977" lon="27.54367">
        <ele>77.579</ele>
        <time>2020-12-13T07:20:26Z</time>
      </trkpt>
      <trkpt lat="37.49767" lon="27.54366">
        <ele>77.172</ele>
        <time>2020-12-13T07:20:27Z</time>
      </trkpt>
      <trkpt lat="37.49765" lon="27.54365">
        <ele>76.724</ele>
        <time>2020-12-13T07:20:28Z</time>
      </trkpt>
      <trkpt lat="37.49763" lon="27.54364">
        <ele>76.346</ele>
        <time>2020-12-13T07:20:29Z</time>
      </trkpt>
      <trkpt lat="37.49761" lon="27.54364">
        <ele>76.194</ele>
        <time>2020-12-13T07:20:30Z</time>
      </trkpt>
      <trkpt lat="37.49759" lon="27.54365">
        <ele>76.221</ele>
        <time>2020-12-13T07:20:31Z</time>
      </trkpt>
      <trkpt lat="37.49757" lon="27.54366">
        <ele>76.283</ele>
        <time>2020-12-13T07:20:32Z</time>
      </trkpt>
      <trkpt lat="37.49755" lon="27.54367">
        <ele>76.564</ele>
        <time>2020-12-13T07:20:33Z</time>
      </trkpt>
      <trkpt lat="37.49755" lon="27.54367">
        <ele>76.564</ele>
        <time>2020-12-13T07:20:34Z</time>
      </trkpt>
      <trkpt lat="37.49753" lon="27.54369">
        <ele>77.159</ele>
        <time>2020-12-13T07:20:35Z</time>
      </trkpt>
      <trkpt lat="37.49753" lon="27.54369">
        <ele>77.159</ele>
        <time>2020-12-13T07:20:36Z</time>
      </trkpt>
      <trkpt lat="37.49751" lon="27.54371">
        <ele>77.688</ele>
        <time>2020-12-13T07:20:37Z</time>
      </trkpt>
      <trkpt lat="37.49751" lon="27.54371">
        <ele>77.688</ele>
        <time>2020-12-13T07:20:38Z</time>
      </trkpt>
      <trkpt lat="37.49749" lon="27.54372">
        <ele>77.962</ele>
        <time>2020-12-13T07:20:39Z</time>
      </trkpt>
      <trkpt lat="37.49749" lon="27.54372">
        <ele>77.962</ele>
        <time>2020-12-13T07:20:40Z</time>
      </trkpt>
      <trkpt lat="37.49747" lon="27.54373">
        <ele>78.458</ele>
        <time>2020-12-13T07:20:41Z</time>
      </trkpt>
      <trkpt lat="37.49747" lon="27.54373">
        <ele>78.458</ele>
        <time>2020-12-13T07:20:42Z</time>
      </trkpt>
      <trkpt lat="37.49745" lon="27.54373">
        <ele>78.672</ele>
        <time>2020-12-13T07:20:43Z</time>
      </trkpt>
      <trkpt lat="37.49745" lon="27.54373">
        <ele>78.672</ele>
        <time>2020-12-13T07:20:44Z</time>
      </trkpt>
      <trkpt lat="37.49745" lon="27.54373">
        <ele>78.672</ele>
        <time>2020-12-13T07:20:45Z</time>
      </trkpt>
      <trkpt lat="37.49745" lon="27.54373">
        <ele>78.672</ele>
        <time>2020-12-13T07:20:46Z</time>
      </trkpt>
      <trkpt lat="37.49745" lon="27.54373">
        <ele>78.672</ele>
        <time>2020-12-13T07:20:47Z</time>
      </trkpt>
      <trkpt lat="37.49739" lon="27.54374">
        <ele>79.611</ele>
        <time>2020-12-13T07:20:48Z</time>
      </trkpt>
      <trkpt lat="37.49738" lon="27.54374">
        <ele>79.701</ele>
        <time>2020-12-13T07:20:49Z</time>
      </trkpt>
      <trkpt lat="37.49737" lon="27.54375">
        <ele>79.814</ele>
        <time>2020-12-13T07:20:50Z</time>
      </trkpt>
      <trkpt lat="37.49736" lon="27.54375">
        <ele>79.901</ele>
        <time>2020-12-13T07:20:51Z</time>
      </trkpt>
      <trkpt lat="37.49735" lon="27.54375">
        <ele>80.01</ele>
        <time>2020-12-13T07:20:52Z</time>
      </trkpt>
      <trkpt lat="37.49735" lon="27.54375">
        <ele>80.01</ele>
        <time>2020-12-13T07:20:53Z</time>
      </trkpt>
      <trkpt lat="37.49733" lon="27.54374">
        <ele>80.073</ele>
        <time>2020-12-13T07:20:54Z</time>
      </trkpt>
      <trkpt lat="37.49733" lon="27.54374">
        <ele>80.073</ele>
        <time>2020-12-13T07:20:55Z</time>
      </trkpt>
      <trkpt lat="37.49731" lon="27.54373">
        <ele>80.03</ele>
        <time>2020-12-13T07:20:56Z</time>
      </trkpt>
      <trkpt lat="37.49731" lon="27.54373">
        <ele>80.03</ele>
        <time>2020-12-13T07:20:57Z</time>
      </trkpt>
      <trkpt lat="37.49729" lon="27.54372">
        <ele>79.922</ele>
        <time>2020-12-13T07:20:58Z</time>
      </trkpt>
      <trkpt lat="37.49729" lon="27.54372">
        <ele>79.922</ele>
        <time>2020-12-13T07:20:59Z</time>
      </trkpt>
      <trkpt lat="37.49727" lon="27.54371">
        <ele>79.905</ele>
        <time>2020-12-13T07:21:00Z</time>
      </trkpt>
      <trkpt lat="37.49727" lon="27.54371">
        <ele>79.905</ele>
        <time>2020-12-13T07:21:01Z</time>
      </trkpt>
      <trkpt lat="37.49725" lon="27.5437">
        <ele>79.933</ele>
        <time>2020-12-13T07:21:02Z</time>
      </trkpt>
      <trkpt lat="37.49725" lon="27.5437">
        <ele>79.933</ele>
        <time>2020-12-13T07:21:03Z</time>
      </trkpt>
      <trkpt lat="37.49723" lon="27.54368">
        <ele>79.914</ele>
        <time>2020-12-13T07:21:04Z</time>
      </trkpt>
      <trkpt lat="37.49723" lon="27.54368">
        <ele>79.914</ele>
        <time>2020-12-13T07:21:05Z</time>
      </trkpt>
      <trkpt lat="37.49721" lon="27.54367">
        <ele>79.94</ele>
        <time>2020-12-13T07:21:06Z</time>
      </trkpt>
      <trkpt lat="37.49721" lon="27.54367">
        <ele>79.94</ele>
        <time>2020-12-13T07:21:07Z</time>
      </trkpt>
      <trkpt lat="37.49719" lon="27.54368">
        <ele>80.048</ele>
        <time>2020-12-13T07:21:08Z</time>
      </trkpt>
      <trkpt lat="37.49719" lon="27.54368">
        <ele>80.048</ele>
        <time>2020-12-13T07:21:09Z</time>
      </trkpt>
      <trkpt lat="37.49717" lon="27.54369">
        <ele>80.279</ele>
        <time>2020-12-13T07:21:10Z</time>
      </trkpt>
      <trkpt lat="37.49717" lon="27.54369">
        <ele>80.279</ele>
        <time>2020-12-13T07:21:11Z</time>
      </trkpt>
      <trkpt lat="37.49717" lon="27.54369">
        <ele>80.279</ele>
        <time>2020-12-13T07:21:12Z</time>
      </trkpt>
      <trkpt lat="37.49715" lon="27.5437">
        <ele>80.456</ele>
        <time>2020-12-13T07:21:13Z</time>
      </trkpt>
      <trkpt lat="37.49715" lon="27.5437">
        <ele>80.456</ele>
        <time>2020-12-13T07:21:14Z</time>
      </trkpt>
      <trkpt lat="37.49712" lon="27.54369">
        <ele>80.384</ele>
        <time>2020-12-13T07:21:15Z</time>
      </trkpt>
      <trkpt lat="37.49712" lon="27.54369">
        <ele>80.384</ele>
        <time>2020-12-13T07:21:16Z</time>
      </trkpt>
      <trkpt lat="37.4971" lon="27.5437">
        <ele>80.569</ele>
        <time>2020-12-13T07:21:17Z</time>
      </trkpt>
      <trkpt lat="37.4971" lon="27.5437">
        <ele>80.569</ele>
        <time>2020-12-13T07:21:18Z</time>
      </trkpt>
      <trkpt lat="37.49708" lon="27.54372">
        <ele>80.851</ele>
        <time>2020-12-13T07:21:19Z</time>
      </trkpt>
      <trkpt lat="37.49708" lon="27.54372">
        <ele>80.851</ele>
        <time>2020-12-13T07:21:20Z</time>
      </trkpt>
      <trkpt lat="37.49708" lon="27.54372">
        <ele>80.851</ele>
        <time>2020-12-13T07:21:21Z</time>
      </trkpt>
      <trkpt lat="37.49705" lon="27.54373">
        <ele>81.115</ele>
        <time>2020-12-13T07:21:22Z</time>
      </trkpt>
      <trkpt lat="37.49705" lon="27.54373">
        <ele>81.115</ele>
        <time>2020-12-13T07:21:23Z</time>
      </trkpt>
      <trkpt lat="37.49703" lon="27.54375">
        <ele>81.388</ele>
        <time>2020-12-13T07:21:24Z</time>
      </trkpt>
      <trkpt lat="37.49703" lon="27.54375">
        <ele>81.388</ele>
        <time>2020-12-13T07:21:25Z</time>
      </trkpt>
      <trkpt lat="37.49702" lon="27.54378">
        <ele>81.718</ele>
        <time>2020-12-13T07:21:26Z</time>
      </trkpt>
      <trkpt lat="37.49702" lon="27.54378">
        <ele>81.718</ele>
        <time>2020-12-13T07:21:27Z</time>
      </trkpt>
      <trkpt lat="37.49701" lon="27.5438">
        <ele>81.977</ele>
        <time>2020-12-13T07:21:28Z</time>
      </trkpt>
      <trkpt lat="37.49701" lon="27.5438">
        <ele>81.977</ele>
        <time>2020-12-13T07:21:29Z</time>
      </trkpt>
      <trkpt lat="37.49701" lon="27.5438">
        <ele>81.977</ele>
        <time>2020-12-13T07:21:30Z</time>
      </trkpt>
      <trkpt lat="37.49701" lon="27.5438">
        <ele>81.977</ele>
        <time>2020-12-13T07:21:31Z</time>
      </trkpt>
      <trkpt lat="37.497" lon="27.54383">
        <ele>82.298</ele>
        <time>2020-12-13T07:21:32Z</time>
      </trkpt>
      <trkpt lat="37.497" lon="27.54383">
        <ele>82.298</ele>
        <time>2020-12-13T07:21:33Z</time>
      </trkpt>
      <trkpt lat="37.49699" lon="27.54385">
        <ele>82.501</ele>
        <time>2020-12-13T07:21:34Z</time>
      </trkpt>
      <trkpt lat="37.49699" lon="27.54385">
        <ele>82.501</ele>
        <time>2020-12-13T07:21:35Z</time>
      </trkpt>
      <trkpt lat="37.49697" lon="27.54387">
        <ele>82.812</ele>
        <time>2020-12-13T07:21:36Z</time>
      </trkpt>
      <trkpt lat="37.49697" lon="27.54387">
        <ele>82.812</ele>
        <time>2020-12-13T07:21:37Z</time>
      </trkpt>
      <trkpt lat="37.49695" lon="27.54389">
        <ele>82.992</ele>
        <time>2020-12-13T07:21:38Z</time>
      </trkpt>
      <trkpt lat="37.49695" lon="27.54389">
        <ele>82.992</ele>
        <time>2020-12-13T07:21:39Z</time>
      </trkpt>
      <trkpt lat="37.49693" lon="27.5439">
        <ele>82.834</ele>
        <time>2020-12-13T07:21:40Z</time>
      </trkpt>
      <trkpt lat="37.49693" lon="27.5439">
        <ele>82.834</ele>
        <time>2020-12-13T07:21:41Z</time>
      </trkpt>
      <trkpt lat="37.49692" lon="27.54393">
        <ele>82.702</ele>
        <time>2020-12-13T07:21:42Z</time>
      </trkpt>
      <trkpt lat="37.49692" lon="27.54393">
        <ele>82.702</ele>
        <time>2020-12-13T07:21:43Z</time>
      </trkpt>
      <trkpt lat="37.49693" lon="27.54396">
        <ele>82.671</ele>
        <time>2020-12-13T07:21:44Z</time>
      </trkpt>
      <trkpt lat="37.49695" lon="27.54399">
        <ele>82.654</ele>
        <time>2020-12-13T07:21:45Z</time>
      </trkpt>
      <trkpt lat="37.49695" lon="27.54399">
        <ele>82.654</ele>
        <time>2020-12-13T07:21:46Z</time>
      </trkpt>
      <trkpt lat="37.49696" lon="27.54402">
        <ele>82.536</ele>
        <time>2020-12-13T07:21:47Z</time>
      </trkpt>
      <trkpt lat="37.49695" lon="27.54405">
        <ele>82.451</ele>
        <time>2020-12-13T07:21:48Z</time>
      </trkpt>
      <trkpt lat="37.49695" lon="27.54405">
        <ele>82.451</ele>
        <time>2020-12-13T07:21:49Z</time>
      </trkpt>
      <trkpt lat="37.49695" lon="27.54409">
        <ele>82.304</ele>
        <time>2020-12-13T07:21:50Z</time>
      </trkpt>
      <trkpt lat="37.49695" lon="27.54409">
        <ele>82.304</ele>
        <time>2020-12-13T07:21:51Z</time>
      </trkpt>
      <trkpt lat="37.49694" lon="27.54413">
        <ele>82.105</ele>
        <time>2020-12-13T07:21:52Z</time>
      </trkpt>
      <trkpt lat="37.49694" lon="27.54413">
        <ele>82.105</ele>
        <time>2020-12-13T07:21:53Z</time>
      </trkpt>
      <trkpt lat="37.49691" lon="27.54416">
        <ele>81.894</ele>
        <time>2020-12-13T07:21:54Z</time>
      </trkpt>
      <trkpt lat="37.4969" lon="27.54418">
        <ele>81.7</ele>
        <time>2020-12-13T07:21:55Z</time>
      </trkpt>
      <trkpt lat="37.4969" lon="27.54418">
        <ele>81.7</ele>
        <time>2020-12-13T07:21:56Z</time>
      </trkpt>
      <trkpt lat="37.49688" lon="27.54421">
        <ele>81.353</ele>
        <time>2020-12-13T07:21:57Z</time>
      </trkpt>
      <trkpt lat="37.49688" lon="27.54421">
        <ele>81.353</ele>
        <time>2020-12-13T07:21:58Z</time>
      </trkpt>
      <trkpt lat="37.49689" lon="27.54425">
        <ele>80.965</ele>
        <time>2020-12-13T07:21:59Z</time>
      </trkpt>
      <trkpt lat="37.49689" lon="27.54425">
        <ele>80.965</ele>
        <time>2020-12-13T07:22:00Z</time>
      </trkpt>
      <trkpt lat="37.49691" lon="27.54431">
        <ele>80.426</ele>
        <time>2020-12-13T07:22:01Z</time>
      </trkpt>
      <trkpt lat="37.4969" lon="27.54433">
        <ele>80.154</ele>
        <time>2020-12-13T07:22:02Z</time>
      </trkpt>
      <trkpt lat="37.4969" lon="27.54436">
        <ele>79.89</ele>
        <time>2020-12-13T07:22:03Z</time>
      </trkpt>
      <trkpt lat="37.49688" lon="27.5444">
        <ele>79.474</ele>
        <time>2020-12-13T07:22:04Z</time>
      </trkpt>
      <trkpt lat="37.49688" lon="27.54441">
        <ele>79.342</ele>
        <time>2020-12-13T07:22:05Z</time>
      </trkpt>
      <trkpt lat="37.49687" lon="27.54444">
        <ele>79.063</ele>
        <time>2020-12-13T07:22:06Z</time>
      </trkpt>
      <trkpt lat="37.49686" lon="27.54446">
        <ele>78.756</ele>
        <time>2020-12-13T07:22:07Z</time>
      </trkpt>
      <trkpt lat="37.49686" lon="27.54446">
        <ele>78.756</ele>
        <time>2020-12-13T07:22:08Z</time>
      </trkpt>
      <trkpt lat="37.49686" lon="27.54446">
        <ele>78.756</ele>
        <time>2020-12-13T07:22:09Z</time>
      </trkpt>
      <trkpt lat="37.49684" lon="27.54453">
        <ele>77.442</ele>
        <time>2020-12-13T07:22:10Z</time>
      </trkpt>
      <trkpt lat="37.49683" lon="27.54456">
        <ele>76.938</ele>
        <time>2020-12-13T07:22:11Z</time>
      </trkpt>
      <trkpt lat="37.49681" lon="27.54461">
        <ele>76.074</ele>
        <time>2020-12-13T07:22:12Z</time>
      </trkpt>
      <trkpt lat="37.4968" lon="27.54463">
        <ele>75.715</ele>
        <time>2020-12-13T07:22:13Z</time>
      </trkpt>
      <trkpt lat="37.49679" lon="27.54465">
        <ele>75.372</ele>
        <time>2020-12-13T07:22:14Z</time>
      </trkpt>
      <trkpt lat="37.49678" lon="27.54468">
        <ele>74.85</ele>
        <time>2020-12-13T07:22:15Z</time>
      </trkpt>
      <trkpt lat="37.49677" lon="27.5447">
        <ele>74.382</ele>
        <time>2020-12-13T07:22:16Z</time>
      </trkpt>
      <trkpt lat="37.49675" lon="27.54473">
        <ele>73.922</ele>
        <time>2020-12-13T07:22:17Z</time>
      </trkpt>
      <trkpt lat="37.49674" lon="27.54475">
        <ele>73.529</ele>
        <time>2020-12-13T07:22:18Z</time>
      </trkpt>
      <trkpt lat="37.49672" lon="27.54477">
        <ele>73.084</ele>
        <time>2020-12-13T07:22:19Z</time>
      </trkpt>
      <trkpt lat="37.49671" lon="27.54479">
        <ele>72.574</ele>
        <time>2020-12-13T07:22:20Z</time>
      </trkpt>
      <trkpt lat="37.4967" lon="27.54482">
        <ele>72.02</ele>
        <time>2020-12-13T07:22:21Z</time>
      </trkpt>
      <trkpt lat="37.49671" lon="27.54484">
        <ele>71.517</ele>
        <time>2020-12-13T07:22:22Z</time>
      </trkpt>
      <trkpt lat="37.49671" lon="27.54487">
        <ele>70.919</ele>
        <time>2020-12-13T07:22:23Z</time>
      </trkpt>
      <trkpt lat="37.49672" lon="27.5449">
        <ele>70.322</ele>
        <time>2020-12-13T07:22:24Z</time>
      </trkpt>
      <trkpt lat="37.49672" lon="27.54493">
        <ele>69.726</ele>
        <time>2020-12-13T07:22:25Z</time>
      </trkpt>
      <trkpt lat="37.49672" lon="27.54495">
        <ele>69.219</ele>
        <time>2020-12-13T07:22:26Z</time>
      </trkpt>
      <trkpt lat="37.49672" lon="27.54498">
        <ele>68.593</ele>
        <time>2020-12-13T07:22:27Z</time>
      </trkpt>
      <trkpt lat="37.4967" lon="27.54501">
        <ele>68.046</ele>
        <time>2020-12-13T07:22:28Z</time>
      </trkpt>
      <trkpt lat="37.49669" lon="27.54503">
        <ele>67.638</ele>
        <time>2020-12-13T07:22:29Z</time>
      </trkpt>
      <trkpt lat="37.49667" lon="27.54506">
        <ele>67.211</ele>
        <time>2020-12-13T07:22:30Z</time>
      </trkpt>
      <trkpt lat="37.49666" lon="27.54508">
        <ele>66.812</ele>
        <time>2020-12-13T07:22:31Z</time>
      </trkpt>
      <trkpt lat="37.49665" lon="27.54511">
        <ele>66.381</ele>
        <time>2020-12-13T07:22:32Z</time>
      </trkpt>
      <trkpt lat="37.49663" lon="27.54513">
        <ele>65.889</ele>
        <time>2020-12-13T07:22:33Z</time>
      </trkpt>
      <trkpt lat="37.49661" lon="27.54516">
        <ele>65.389</ele>
        <time>2020-12-13T07:22:34Z</time>
      </trkpt>
      <trkpt lat="37.49659" lon="27.54518">
        <ele>64.99</ele>
        <time>2020-12-13T07:22:35Z</time>
      </trkpt>
      <trkpt lat="37.49658" lon="27.5452">
        <ele>64.506</ele>
        <time>2020-12-13T07:22:36Z</time>
      </trkpt>
      <trkpt lat="37.49656" lon="27.54523">
        <ele>63.975</ele>
        <time>2020-12-13T07:22:37Z</time>
      </trkpt>
      <trkpt lat="37.49654" lon="27.54525">
        <ele>63.497</ele>
        <time>2020-12-13T07:22:38Z</time>
      </trkpt>
      <trkpt lat="37.49654" lon="27.54527">
        <ele>63.114</ele>
        <time>2020-12-13T07:22:39Z</time>
      </trkpt>
      <trkpt lat="37.49653" lon="27.5453">
        <ele>62.905</ele>
        <time>2020-12-13T07:22:40Z</time>
      </trkpt>
      <trkpt lat="37.49653" lon="27.5453">
        <ele>62.905</ele>
        <time>2020-12-13T07:22:41Z</time>
      </trkpt>
      <trkpt lat="37.49654" lon="27.54534">
        <ele>62.753</ele>
        <time>2020-12-13T07:22:42Z</time>
      </trkpt>
      <trkpt lat="37.49654" lon="27.54536">
        <ele>62.677</ele>
        <time>2020-12-13T07:22:43Z</time>
      </trkpt>
      <trkpt lat="37.49655" lon="27.54539">
        <ele>62.562</ele>
        <time>2020-12-13T07:22:44Z</time>
      </trkpt>
      <trkpt lat="37.49655" lon="27.54541">
        <ele>62.442</ele>
        <time>2020-12-13T07:22:45Z</time>
      </trkpt>
      <trkpt lat="37.49655" lon="27.54544">
        <ele>62.283</ele>
        <time>2020-12-13T07:22:46Z</time>
      </trkpt>
      <trkpt lat="37.49655" lon="27.54547">
        <ele>62.159</ele>
        <time>2020-12-13T07:22:47Z</time>
      </trkpt>
      <trkpt lat="37.49655" lon="27.54549">
        <ele>62.02</ele>
        <time>2020-12-13T07:22:48Z</time>
      </trkpt>
      <trkpt lat="37.49654" lon="27.54552">
        <ele>61.771</ele>
        <time>2020-12-13T07:22:49Z</time>
      </trkpt>
      <trkpt lat="37.49654" lon="27.54555">
        <ele>61.624</ele>
        <time>2020-12-13T07:22:50Z</time>
      </trkpt>
      <trkpt lat="37.49654" lon="27.54557">
        <ele>61.457</ele>
        <time>2020-12-13T07:22:51Z</time>
      </trkpt>
      <trkpt lat="37.49654" lon="27.54557">
        <ele>61.457</ele>
        <time>2020-12-13T07:22:52Z</time>
      </trkpt>
      <trkpt lat="37.49655" lon="27.54562">
        <ele>61.165</ele>
        <time>2020-12-13T07:22:53Z</time>
      </trkpt>
      <trkpt lat="37.49656" lon="27.54565">
        <ele>61.023</ele>
        <time>2020-12-13T07:22:54Z</time>
      </trkpt>
      <trkpt lat="37.49656" lon="27.54567">
        <ele>60.903</ele>
        <time>2020-12-13T07:22:55Z</time>
      </trkpt>
      <trkpt lat="37.49657" lon="27.54569">
        <ele>60.836</ele>
        <time>2020-12-13T07:22:56Z</time>
      </trkpt>
      <trkpt lat="37.49658" lon="27.54572">
        <ele>60.758</ele>
        <time>2020-12-13T07:22:57Z</time>
      </trkpt>
      <trkpt lat="37.49659" lon="27.54574">
        <ele>60.73</ele>
        <time>2020-12-13T07:22:58Z</time>
      </trkpt>
      <trkpt lat="37.49661" lon="27.54576">
        <ele>60.72</ele>
        <time>2020-12-13T07:22:59Z</time>
      </trkpt>
      <trkpt lat="37.49662" lon="27.54578">
        <ele>60.688</ele>
        <time>2020-12-13T07:23:00Z</time>
      </trkpt>
      <trkpt lat="37.49662" lon="27.54578">
        <ele>60.688</ele>
        <time>2020-12-13T07:23:01Z</time>
      </trkpt>
      <trkpt lat="37.49664" lon="27.54582">
        <ele>60.695</ele>
        <time>2020-12-13T07:23:02Z</time>
      </trkpt>
      <trkpt lat="37.49665" lon="27.54584">
        <ele>60.75</ele>
        <time>2020-12-13T07:23:03Z</time>
      </trkpt>
      <trkpt lat="37.49666" lon="27.54586">
        <ele>60.52</ele>
        <time>2020-12-13T07:23:04Z</time>
      </trkpt>
      <trkpt lat="37.49665" lon="27.54589">
        <ele>59.929</ele>
        <time>2020-12-13T07:23:05Z</time>
      </trkpt>
      <trkpt lat="37.49665" lon="27.54591">
        <ele>59.599</ele>
        <time>2020-12-13T07:23:06Z</time>
      </trkpt>
      <trkpt lat="37.49665" lon="27.54594">
        <ele>59.196</ele>
        <time>2020-12-13T07:23:07Z</time>
      </trkpt>
      <trkpt lat="37.49665" lon="27.54596">
        <ele>58.922</ele>
        <time>2020-12-13T07:23:08Z</time>
      </trkpt>
      <trkpt lat="37.49665" lon="27.54596">
        <ele>58.922</ele>
        <time>2020-12-13T07:23:09Z</time>
      </trkpt>
      <trkpt lat="37.49665" lon="27.54601">
        <ele>58.273</ele>
        <time>2020-12-13T07:23:10Z</time>
      </trkpt>
      <trkpt lat="37.49665" lon="27.54601">
        <ele>58.273</ele>
        <time>2020-12-13T07:23:11Z</time>
      </trkpt>
      <trkpt lat="37.49666" lon="27.54604">
        <ele>57.841</ele>
        <time>2020-12-13T07:23:12Z</time>
      </trkpt>
      <trkpt lat="37.49666" lon="27.54604">
        <ele>57.841</ele>
        <time>2020-12-13T07:23:13Z</time>
      </trkpt>
      <trkpt lat="37.49666" lon="27.54604">
        <ele>57.841</ele>
        <time>2020-12-13T07:23:14Z</time>
      </trkpt>
      <trkpt lat="37.49666" lon="27.54607">
        <ele>57.409</ele>
        <time>2020-12-13T07:23:15Z</time>
      </trkpt>
      <trkpt lat="37.49666" lon="27.54607">
        <ele>57.409</ele>
        <time>2020-12-13T07:23:16Z</time>
      </trkpt>
      <trkpt lat="37.49665" lon="27.54611">
        <ele>56.762</ele>
        <time>2020-12-13T07:23:17Z</time>
      </trkpt>
      <trkpt lat="37.49665" lon="27.54611">
        <ele>56.762</ele>
        <time>2020-12-13T07:23:18Z</time>
      </trkpt>
      <trkpt lat="37.49665" lon="27.54614">
        <ele>56.336</ele>
        <time>2020-12-13T07:23:19Z</time>
      </trkpt>
      <trkpt lat="37.49665" lon="27.54614">
        <ele>56.336</ele>
        <time>2020-12-13T07:23:20Z</time>
      </trkpt>
      <trkpt lat="37.49666" lon="27.54617">
        <ele>56.061</ele>
        <time>2020-12-13T07:23:21Z</time>
      </trkpt>
      <trkpt lat="37.49666" lon="27.54617">
        <ele>56.061</ele>
        <time>2020-12-13T07:23:22Z</time>
      </trkpt>
      <trkpt lat="37.49667" lon="27.54619">
        <ele>55.93</ele>
        <time>2020-12-13T07:23:23Z</time>
      </trkpt>
      <trkpt lat="37.49667" lon="27.54619">
        <ele>55.93</ele>
        <time>2020-12-13T07:23:24Z</time>
      </trkpt>
      <trkpt lat="37.49668" lon="27.54621">
        <ele>55.64</ele>
        <time>2020-12-13T07:23:25Z</time>
      </trkpt>
      <trkpt lat="37.49668" lon="27.54621">
        <ele>55.64</ele>
        <time>2020-12-13T07:23:26Z</time>
      </trkpt>
      <trkpt lat="37.49668" lon="27.54624">
        <ele>55.284</ele>
        <time>2020-12-13T07:23:27Z</time>
      </trkpt>
      <trkpt lat="37.49668" lon="27.54624">
        <ele>55.284</ele>
        <time>2020-12-13T07:23:28Z</time>
      </trkpt>
      <trkpt lat="37.49668" lon="27.54624">
        <ele>55.284</ele>
        <time>2020-12-13T07:23:29Z</time>
      </trkpt>
      <trkpt lat="37.49668" lon="27.54624">
        <ele>55.284</ele>
        <time>2020-12-13T07:23:30Z</time>
      </trkpt>
      <trkpt lat="37.49668" lon="27.54624">
        <ele>55.284</ele>
        <time>2020-12-13T07:23:31Z</time>
      </trkpt>
      <trkpt lat="37.49669" lon="27.54628">
        <ele>54.811</ele>
        <time>2020-12-13T07:23:32Z</time>
      </trkpt>
      <trkpt lat="37.49669" lon="27.54631">
        <ele>54.325</ele>
        <time>2020-12-13T07:23:33Z</time>
      </trkpt>
      <trkpt lat="37.49669" lon="27.54634">
        <ele>53.854</ele>
        <time>2020-12-13T07:23:34Z</time>
      </trkpt>
      <trkpt lat="37.49669" lon="27.54638">
        <ele>53.359</ele>
        <time>2020-12-13T07:23:35Z</time>
      </trkpt>
      <trkpt lat="37.49669" lon="27.54641">
        <ele>53.144</ele>
        <time>2020-12-13T07:23:36Z</time>
      </trkpt>
      <trkpt lat="37.49669" lon="27.54645">
        <ele>53.028</ele>
        <time>2020-12-13T07:23:37Z</time>
      </trkpt>
      <trkpt lat="37.49667" lon="27.54647">
        <ele>52.702</ele>
        <time>2020-12-13T07:23:38Z</time>
      </trkpt>
      <trkpt lat="37.49666" lon="27.54647">
        <ele>52.673</ele>
        <time>2020-12-13T07:23:39Z</time>
      </trkpt>
      <trkpt lat="37.49665" lon="27.54648">
        <ele>52.637</ele>
        <time>2020-12-13T07:23:40Z</time>
      </trkpt>
      <trkpt lat="37.49664" lon="27.54649">
        <ele>52.544</ele>
        <time>2020-12-13T07:23:41Z</time>
      </trkpt>
      <trkpt lat="37.49664" lon="27.54649">
        <ele>52.544</ele>
        <time>2020-12-13T07:23:42Z</time>
      </trkpt>
      <trkpt lat="37.49664" lon="27.54649">
        <ele>52.544</ele>
        <time>2020-12-13T07:23:43Z</time>
      </trkpt>
      <trkpt lat="37.49664" lon="27.54649">
        <ele>52.544</ele>
        <time>2020-12-13T07:23:44Z</time>
      </trkpt>
      <trkpt lat="37.49666" lon="27.54651">
        <ele>52.525</ele>
        <time>2020-12-13T07:23:45Z</time>
      </trkpt>
      <trkpt lat="37.49666" lon="27.54651">
        <ele>52.525</ele>
        <time>2020-12-13T07:23:46Z</time>
      </trkpt>
      <trkpt lat="37.49662" lon="27.54651">
        <ele>52.392</ele>
        <time>2020-12-13T07:23:47Z</time>
      </trkpt>
      <trkpt lat="37.4966" lon="27.54651">
        <ele>52.327</ele>
        <time>2020-12-13T07:23:48Z</time>
      </trkpt>
      <trkpt lat="37.49658" lon="27.5465">
        <ele>52.292</ele>
        <time>2020-12-13T07:23:49Z</time>
      </trkpt>
      <trkpt lat="37.49656" lon="27.5465">
        <ele>52.238</ele>
        <time>2020-12-13T07:23:50Z</time>
      </trkpt>
      <trkpt lat="37.49654" lon="27.54649">
        <ele>52.187</ele>
        <time>2020-12-13T07:23:51Z</time>
      </trkpt>
      <trkpt lat="37.49652" lon="27.54648">
        <ele>52.144</ele>
        <time>2020-12-13T07:23:52Z</time>
      </trkpt>
      <trkpt lat="37.4965" lon="27.54647">
        <ele>52.112</ele>
        <time>2020-12-13T07:23:53Z</time>
      </trkpt>
      <trkpt lat="37.49648" lon="27.54647">
        <ele>52.061</ele>
        <time>2020-12-13T07:23:54Z</time>
      </trkpt>
      <trkpt lat="37.49646" lon="27.54646">
        <ele>51.996</ele>
        <time>2020-12-13T07:23:55Z</time>
      </trkpt>
      <trkpt lat="37.49644" lon="27.54647">
        <ele>51.899</ele>
        <time>2020-12-13T07:23:56Z</time>
      </trkpt>
      <trkpt lat="37.49644" lon="27.54647">
        <ele>51.899</ele>
        <time>2020-12-13T07:23:57Z</time>
      </trkpt>
      <trkpt lat="37.49641" lon="27.54648">
        <ele>51.751</ele>
        <time>2020-12-13T07:23:58Z</time>
      </trkpt>
      <trkpt lat="37.49641" lon="27.54648">
        <ele>51.751</ele>
        <time>2020-12-13T07:23:59Z</time>
      </trkpt>
      <trkpt lat="37.49637" lon="27.54648">
        <ele>51.759</ele>
        <time>2020-12-13T07:24:00Z</time>
      </trkpt>
      <trkpt lat="37.49635" lon="27.54648">
        <ele>51.862</ele>
        <time>2020-12-13T07:24:01Z</time>
      </trkpt>
      <trkpt lat="37.49633" lon="27.54648">
        <ele>51.963</ele>
        <time>2020-12-13T07:24:02Z</time>
      </trkpt>
      <trkpt lat="37.49631" lon="27.54649">
        <ele>52.063</ele>
        <time>2020-12-13T07:24:03Z</time>
      </trkpt>
      <trkpt lat="37.49631" lon="27.54649">
        <ele>52.063</ele>
        <time>2020-12-13T07:24:04Z</time>
      </trkpt>
      <trkpt lat="37.49627" lon="27.5465">
        <ele>52.252</ele>
        <time>2020-12-13T07:24:05Z</time>
      </trkpt>
      <trkpt lat="37.49627" lon="27.5465">
        <ele>52.252</ele>
        <time>2020-12-13T07:24:06Z</time>
      </trkpt>
      <trkpt lat="37.49624" lon="27.5465">
        <ele>52.472</ele>
        <time>2020-12-13T07:24:07Z</time>
      </trkpt>
      <trkpt lat="37.49622" lon="27.5465">
        <ele>52.594</ele>
        <time>2020-12-13T07:24:08Z</time>
      </trkpt>
      <trkpt lat="37.49622" lon="27.5465">
        <ele>52.594</ele>
        <time>2020-12-13T07:24:09Z</time>
      </trkpt>
      <trkpt lat="37.49619" lon="27.5465">
        <ele>52.748</ele>
        <time>2020-12-13T07:24:10Z</time>
      </trkpt>
      <trkpt lat="37.49619" lon="27.5465">
        <ele>52.748</ele>
        <time>2020-12-13T07:24:11Z</time>
      </trkpt>
      <trkpt lat="37.49617" lon="27.5465">
        <ele>52.892</ele>
        <time>2020-12-13T07:24:12Z</time>
      </trkpt>
      <trkpt lat="37.49617" lon="27.5465">
        <ele>52.892</ele>
        <time>2020-12-13T07:24:13Z</time>
      </trkpt>
      <trkpt lat="37.49617" lon="27.5465">
        <ele>52.892</ele>
        <time>2020-12-13T07:24:14Z</time>
      </trkpt>
      <trkpt lat="37.49617" lon="27.5465">
        <ele>52.892</ele>
        <time>2020-12-13T07:24:15Z</time>
      </trkpt>
      <trkpt lat="37.49614" lon="27.54651">
        <ele>53.11</ele>
        <time>2020-12-13T07:24:16Z</time>
      </trkpt>
      <trkpt lat="37.49614" lon="27.54651">
        <ele>53.11</ele>
        <time>2020-12-13T07:24:17Z</time>
      </trkpt>
      <trkpt lat="37.49613" lon="27.5465">
        <ele>53.103</ele>
        <time>2020-12-13T07:24:18Z</time>
      </trkpt>
      <trkpt lat="37.49613" lon="27.5465">
        <ele>53.103</ele>
        <time>2020-12-13T07:24:19Z</time>
      </trkpt>
      <trkpt lat="37.49613" lon="27.5465">
        <ele>53.103</ele>
        <time>2020-12-13T07:24:20Z</time>
      </trkpt>
      <trkpt lat="37.49613" lon="27.5465">
        <ele>53.103</ele>
        <time>2020-12-13T07:24:21Z</time>
      </trkpt>
      <trkpt lat="37.49611" lon="27.54643">
        <ele>52.481</ele>
        <time>2020-12-13T07:24:22Z</time>
      </trkpt>
      <trkpt lat="37.49611" lon="27.54644">
        <ele>52.502</ele>
        <time>2020-12-13T07:24:23Z</time>
      </trkpt>
      <trkpt lat="37.49611" lon="27.54644">
        <ele>52.542</ele>
        <time>2020-12-13T07:24:24Z</time>
      </trkpt>
      <trkpt lat="37.4961" lon="27.54644">
        <ele>52.566</ele>
        <time>2020-12-13T07:24:25Z</time>
      </trkpt>
      <trkpt lat="37.4961" lon="27.54644">
        <ele>52.595</ele>
        <time>2020-12-13T07:24:26Z</time>
      </trkpt>
      <trkpt lat="37.49608" lon="27.54646">
        <ele>52.866</ele>
        <time>2020-12-13T07:24:27Z</time>
      </trkpt>
      <trkpt lat="37.49608" lon="27.54646">
        <ele>52.866</ele>
        <time>2020-12-13T07:24:28Z</time>
      </trkpt>
      <trkpt lat="37.49607" lon="27.54648">
        <ele>53.179</ele>
        <time>2020-12-13T07:24:29Z</time>
      </trkpt>
      <trkpt lat="37.49607" lon="27.54648">
        <ele>53.179</ele>
        <time>2020-12-13T07:24:30Z</time>
      </trkpt>
      <trkpt lat="37.49605" lon="27.54651">
        <ele>53.574</ele>
        <time>2020-12-13T07:24:31Z</time>
      </trkpt>
      <trkpt lat="37.49605" lon="27.54651">
        <ele>53.574</ele>
        <time>2020-12-13T07:24:32Z</time>
      </trkpt>
      <trkpt lat="37.49603" lon="27.54654">
        <ele>53.931</ele>
        <time>2020-12-13T07:24:33Z</time>
      </trkpt>
      <trkpt lat="37.49603" lon="27.54654">
        <ele>53.931</ele>
        <time>2020-12-13T07:24:34Z</time>
      </trkpt>
      <trkpt lat="37.49603" lon="27.54657">
        <ele>54.23</ele>
        <time>2020-12-13T07:24:35Z</time>
      </trkpt>
      <trkpt lat="37.49603" lon="27.54657">
        <ele>54.23</ele>
        <time>2020-12-13T07:24:36Z</time>
      </trkpt>
      <trkpt lat="37.49603" lon="27.54657">
        <ele>54.23</ele>
        <time>2020-12-13T07:24:37Z</time>
      </trkpt>
      <trkpt lat="37.49603" lon="27.54657">
        <ele>54.23</ele>
        <time>2020-12-13T07:24:38Z</time>
      </trkpt>
      <trkpt lat="37.49602" lon="27.54661">
        <ele>54.755</ele>
        <time>2020-12-13T07:24:39Z</time>
      </trkpt>
      <trkpt lat="37.49601" lon="27.54662">
        <ele>54.875</ele>
        <time>2020-12-13T07:24:40Z</time>
      </trkpt>
      <trkpt lat="37.496" lon="27.54663">
        <ele>54.997</ele>
        <time>2020-12-13T07:24:41Z</time>
      </trkpt>
      <trkpt lat="37.49598" lon="27.54663">
        <ele>55.105</ele>
        <time>2020-12-13T07:24:42Z</time>
      </trkpt>
      <trkpt lat="37.49597" lon="27.54664">
        <ele>55.227</ele>
        <time>2020-12-13T07:24:43Z</time>
      </trkpt>
      <trkpt lat="37.49597" lon="27.54664">
        <ele>55.227</ele>
        <time>2020-12-13T07:24:44Z</time>
      </trkpt>
      <trkpt lat="37.49595" lon="27.54665">
        <ele>55.382</ele>
        <time>2020-12-13T07:24:45Z</time>
      </trkpt>
      <trkpt lat="37.49595" lon="27.54665">
        <ele>55.382</ele>
        <time>2020-12-13T07:24:46Z</time>
      </trkpt>
      <trkpt lat="37.49593" lon="27.54666">
        <ele>55.555</ele>
        <time>2020-12-13T07:24:47Z</time>
      </trkpt>
      <trkpt lat="37.49593" lon="27.54666">
        <ele>55.555</ele>
        <time>2020-12-13T07:24:48Z</time>
      </trkpt>
      <trkpt lat="37.49592" lon="27.54668">
        <ele>55.846</ele>
        <time>2020-12-13T07:24:49Z</time>
      </trkpt>
      <trkpt lat="37.49592" lon="27.54668">
        <ele>55.846</ele>
        <time>2020-12-13T07:24:50Z</time>
      </trkpt>
      <trkpt lat="37.49592" lon="27.54668">
        <ele>55.846</ele>
        <time>2020-12-13T07:24:51Z</time>
      </trkpt>
      <trkpt lat="37.49594" lon="27.54669">
        <ele>55.899</ele>
        <time>2020-12-13T07:24:52Z</time>
      </trkpt>
      <trkpt lat="37.49596" lon="27.54669">
        <ele>55.851</ele>
        <time>2020-12-13T07:24:53Z</time>
      </trkpt>
      <trkpt lat="37.49596" lon="27.54669">
        <ele>55.851</ele>
        <time>2020-12-13T07:24:54Z</time>
      </trkpt>
      <trkpt lat="37.49599" lon="27.54669">
        <ele>55.754</ele>
        <time>2020-12-13T07:24:55Z</time>
      </trkpt>
      <trkpt lat="37.49601" lon="27.5467">
        <ele>55.704</ele>
        <time>2020-12-13T07:24:56Z</time>
      </trkpt>
      <trkpt lat="37.49603" lon="27.5467">
        <ele>55.706</ele>
        <time>2020-12-13T07:24:57Z</time>
      </trkpt>
      <trkpt lat="37.49603" lon="27.5467">
        <ele>55.706</ele>
        <time>2020-12-13T07:24:58Z</time>
      </trkpt>
      <trkpt lat="37.49604" lon="27.54673">
        <ele>56.01</ele>
        <time>2020-12-13T07:24:59Z</time>
      </trkpt>
      <trkpt lat="37.49604" lon="27.54673">
        <ele>56.01</ele>
        <time>2020-12-13T07:25:00Z</time>
      </trkpt>
      <trkpt lat="37.49602" lon="27.54674">
        <ele>56.22</ele>
        <time>2020-12-13T07:25:01Z</time>
      </trkpt>
      <trkpt lat="37.49602" lon="27.54674">
        <ele>56.22</ele>
        <time>2020-12-13T07:25:02Z</time>
      </trkpt>
      <trkpt lat="37.49599" lon="27.54675">
        <ele>56.438</ele>
        <time>2020-12-13T07:25:03Z</time>
      </trkpt>
      <trkpt lat="37.49599" lon="27.54675">
        <ele>56.438</ele>
        <time>2020-12-13T07:25:04Z</time>
      </trkpt>
      <trkpt lat="37.49597" lon="27.54676">
        <ele>56.653</ele>
        <time>2020-12-13T07:25:05Z</time>
      </trkpt>
      <trkpt lat="37.49597" lon="27.54676">
        <ele>56.653</ele>
        <time>2020-12-13T07:25:06Z</time>
      </trkpt>
      <trkpt lat="37.49594" lon="27.54676">
        <ele>56.823</ele>
        <time>2020-12-13T07:25:07Z</time>
      </trkpt>
      <trkpt lat="37.49594" lon="27.54676">
        <ele>56.823</ele>
        <time>2020-12-13T07:25:08Z</time>
      </trkpt>
      <trkpt lat="37.49594" lon="27.54676">
        <ele>56.823</ele>
        <time>2020-12-13T07:25:09Z</time>
      </trkpt>
      <trkpt lat="37.49593" lon="27.54679">
        <ele>57.26</ele>
        <time>2020-12-13T07:25:10Z</time>
      </trkpt>
      <trkpt lat="37.49593" lon="27.54679">
        <ele>57.26</ele>
        <time>2020-12-13T07:25:11Z</time>
      </trkpt>
      <trkpt lat="37.49593" lon="27.54679">
        <ele>57.26</ele>
        <time>2020-12-13T07:25:12Z</time>
      </trkpt>
      <trkpt lat="37.49595" lon="27.54682">
        <ele>57.503</ele>
        <time>2020-12-13T07:25:13Z</time>
      </trkpt>
      <trkpt lat="37.49595" lon="27.54682">
        <ele>57.503</ele>
        <time>2020-12-13T07:25:14Z</time>
      </trkpt>
      <trkpt lat="37.49597" lon="27.54684">
        <ele>57.771</ele>
        <time>2020-12-13T07:25:15Z</time>
      </trkpt>
      <trkpt lat="37.49597" lon="27.54684">
        <ele>57.771</ele>
        <time>2020-12-13T07:25:16Z</time>
      </trkpt>
      <trkpt lat="37.49597" lon="27.54688">
        <ele>58.139</ele>
        <time>2020-12-13T07:25:17Z</time>
      </trkpt>
      <trkpt lat="37.49597" lon="27.54688">
        <ele>58.139</ele>
        <time>2020-12-13T07:25:18Z</time>
      </trkpt>
      <trkpt lat="37.49598" lon="27.54691">
        <ele>58.509</ele>
        <time>2020-12-13T07:25:19Z</time>
      </trkpt>
      <trkpt lat="37.49598" lon="27.54691">
        <ele>58.509</ele>
        <time>2020-12-13T07:25:20Z</time>
      </trkpt>
      <trkpt lat="37.49597" lon="27.54693">
        <ele>58.805</ele>
        <time>2020-12-13T07:25:21Z</time>
      </trkpt>
      <trkpt lat="37.49597" lon="27.54693">
        <ele>58.805</ele>
        <time>2020-12-13T07:25:22Z</time>
      </trkpt>
      <trkpt lat="37.49598" lon="27.54695">
        <ele>59.171</ele>
        <time>2020-12-13T07:25:23Z</time>
      </trkpt>
      <trkpt lat="37.49598" lon="27.54695">
        <ele>59.171</ele>
        <time>2020-12-13T07:25:24Z</time>
      </trkpt>
      <trkpt lat="37.49597" lon="27.54699">
        <ele>60.164</ele>
        <time>2020-12-13T07:25:25Z</time>
      </trkpt>
      <trkpt lat="37.49596" lon="27.54702">
        <ele>60.801</ele>
        <time>2020-12-13T07:25:26Z</time>
      </trkpt>
      <trkpt lat="37.49595" lon="27.54705">
        <ele>61.536</ele>
        <time>2020-12-13T07:25:27Z</time>
      </trkpt>
      <trkpt lat="37.49594" lon="27.54708">
        <ele>62.277</ele>
        <time>2020-12-13T07:25:28Z</time>
      </trkpt>
      <trkpt lat="37.49594" lon="27.54711">
        <ele>62.945</ele>
        <time>2020-12-13T07:25:29Z</time>
      </trkpt>
      <trkpt lat="37.49593" lon="27.54714">
        <ele>63.647</ele>
        <time>2020-12-13T07:25:30Z</time>
      </trkpt>
      <trkpt lat="37.49593" lon="27.54717">
        <ele>64.216</ele>
        <time>2020-12-13T07:25:31Z</time>
      </trkpt>
      <trkpt lat="37.49593" lon="27.5472">
        <ele>64.775</ele>
        <time>2020-12-13T07:25:32Z</time>
      </trkpt>
      <trkpt lat="37.49592" lon="27.54722">
        <ele>65.361</ele>
        <time>2020-12-13T07:25:33Z</time>
      </trkpt>
      <trkpt lat="37.49592" lon="27.54725">
        <ele>65.916</ele>
        <time>2020-12-13T07:25:34Z</time>
      </trkpt>
      <trkpt lat="37.49592" lon="27.54728">
        <ele>66.453</ele>
        <time>2020-12-13T07:25:35Z</time>
      </trkpt>
      <trkpt lat="37.49592" lon="27.54731">
        <ele>67.044</ele>
        <time>2020-12-13T07:25:36Z</time>
      </trkpt>
      <trkpt lat="37.49592" lon="27.54734">
        <ele>67.619</ele>
        <time>2020-12-13T07:25:37Z</time>
      </trkpt>
      <trkpt lat="37.49591" lon="27.54737">
        <ele>68.15</ele>
        <time>2020-12-13T07:25:38Z</time>
      </trkpt>
      <trkpt lat="37.4959" lon="27.5474">
        <ele>68.637</ele>
        <time>2020-12-13T07:25:39Z</time>
      </trkpt>
      <trkpt lat="37.4959" lon="27.54743">
        <ele>69.127</ele>
        <time>2020-12-13T07:25:40Z</time>
      </trkpt>
      <trkpt lat="37.49589" lon="27.54745">
        <ele>69.514</ele>
        <time>2020-12-13T07:25:41Z</time>
      </trkpt>
      <trkpt lat="37.49588" lon="27.54748">
        <ele>69.948</ele>
        <time>2020-12-13T07:25:42Z</time>
      </trkpt>
      <trkpt lat="37.49588" lon="27.54748">
        <ele>69.948</ele>
        <time>2020-12-13T07:25:43Z</time>
      </trkpt>
      <trkpt lat="37.49586" lon="27.54751">
        <ele>70.469</ele>
        <time>2020-12-13T07:25:44Z</time>
      </trkpt>
      <trkpt lat="37.49586" lon="27.54751">
        <ele>70.469</ele>
        <time>2020-12-13T07:25:45Z</time>
      </trkpt>
      <trkpt lat="37.49585" lon="27.54755">
        <ele>71.281</ele>
        <time>2020-12-13T07:25:46Z</time>
      </trkpt>
      <trkpt lat="37.49585" lon="27.54755">
        <ele>71.281</ele>
        <time>2020-12-13T07:25:47Z</time>
      </trkpt>
      <trkpt lat="37.49584" lon="27.54759">
        <ele>71.89</ele>
        <time>2020-12-13T07:25:48Z</time>
      </trkpt>
      <trkpt lat="37.49584" lon="27.54759">
        <ele>71.89</ele>
        <time>2020-12-13T07:25:49Z</time>
      </trkpt>
      <trkpt lat="37.49582" lon="27.54761">
        <ele>72.363</ele>
        <time>2020-12-13T07:25:50Z</time>
      </trkpt>
      <trkpt lat="37.49582" lon="27.54761">
        <ele>72.363</ele>
        <time>2020-12-13T07:25:51Z</time>
      </trkpt>
      <trkpt lat="37.49581" lon="27.54764">
        <ele>72.914</ele>
        <time>2020-12-13T07:25:52Z</time>
      </trkpt>
      <trkpt lat="37.49581" lon="27.54764">
        <ele>72.914</ele>
        <time>2020-12-13T07:25:53Z</time>
      </trkpt>
      <trkpt lat="37.4958" lon="27.54768">
        <ele>73.864</ele>
        <time>2020-12-13T07:25:54Z</time>
      </trkpt>
      <trkpt lat="37.49579" lon="27.54771">
        <ele>74.347</ele>
        <time>2020-12-13T07:25:55Z</time>
      </trkpt>
      <trkpt lat="37.49578" lon="27.54773">
        <ele>74.843</ele>
        <time>2020-12-13T07:25:56Z</time>
      </trkpt>
      <trkpt lat="37.49578" lon="27.54775">
        <ele>75.308</ele>
        <time>2020-12-13T07:25:57Z</time>
      </trkpt>
      <trkpt lat="37.49578" lon="27.54775">
        <ele>75.308</ele>
        <time>2020-12-13T07:25:58Z</time>
      </trkpt>
      <trkpt lat="37.49576" lon="27.54779">
        <ele>75.951</ele>
        <time>2020-12-13T07:25:59Z</time>
      </trkpt>
      <trkpt lat="37.49574" lon="27.5478">
        <ele>76.079</ele>
        <time>2020-12-13T07:26:00Z</time>
      </trkpt>
      <trkpt lat="37.49572" lon="27.54781">
        <ele>76.071</ele>
        <time>2020-12-13T07:26:01Z</time>
      </trkpt>
      <trkpt lat="37.4957" lon="27.54781">
        <ele>75.951</ele>
        <time>2020-12-13T07:26:02Z</time>
      </trkpt>
      <trkpt lat="37.49568" lon="27.54781">
        <ele>75.871</ele>
        <time>2020-12-13T07:26:03Z</time>
      </trkpt>
      <trkpt lat="37.49568" lon="27.54781">
        <ele>75.871</ele>
        <time>2020-12-13T07:26:04Z</time>
      </trkpt>
      <trkpt lat="37.49564" lon="27.54781">
        <ele>75.733</ele>
        <time>2020-12-13T07:26:05Z</time>
      </trkpt>
      <trkpt lat="37.49564" lon="27.54781">
        <ele>75.733</ele>
        <time>2020-12-13T07:26:06Z</time>
      </trkpt>
      <trkpt lat="37.49561" lon="27.5478">
        <ele>75.509</ele>
        <time>2020-12-13T07:26:07Z</time>
      </trkpt>
      <trkpt lat="37.49561" lon="27.5478">
        <ele>75.509</ele>
        <time>2020-12-13T07:26:08Z</time>
      </trkpt>
      <trkpt lat="37.49558" lon="27.5478">
        <ele>75.485</ele>
        <time>2020-12-13T07:26:09Z</time>
      </trkpt>
      <trkpt lat="37.49558" lon="27.5478">
        <ele>75.485</ele>
        <time>2020-12-13T07:26:10Z</time>
      </trkpt>
      <trkpt lat="37.49557" lon="27.54781">
        <ele>75.458</ele>
        <time>2020-12-13T07:26:11Z</time>
      </trkpt>
      <trkpt lat="37.49557" lon="27.54781">
        <ele>75.458</ele>
        <time>2020-12-13T07:26:12Z</time>
      </trkpt>
      <trkpt lat="37.49554" lon="27.54782">
        <ele>75.495</ele>
        <time>2020-12-13T07:26:13Z</time>
      </trkpt>
      <trkpt lat="37.49554" lon="27.54782">
        <ele>75.495</ele>
        <time>2020-12-13T07:26:14Z</time>
      </trkpt>
      <trkpt lat="37.49552" lon="27.54783">
        <ele>75.482</ele>
        <time>2020-12-13T07:26:15Z</time>
      </trkpt>
      <trkpt lat="37.49552" lon="27.54783">
        <ele>75.482</ele>
        <time>2020-12-13T07:26:16Z</time>
      </trkpt>
      <trkpt lat="37.49552" lon="27.54783">
        <ele>75.482</ele>
        <time>2020-12-13T07:26:17Z</time>
      </trkpt>
      <trkpt lat="37.49551" lon="27.54783">
        <ele>75.408</ele>
        <time>2020-12-13T07:26:18Z</time>
      </trkpt>
      <trkpt lat="37.49551" lon="27.54783">
        <ele>75.408</ele>
        <time>2020-12-13T07:26:19Z</time>
      </trkpt>
      <trkpt lat="37.49551" lon="27.54783">
        <ele>75.408</ele>
        <time>2020-12-13T07:26:20Z</time>
      </trkpt>
      <trkpt lat="37.49548" lon="27.54785">
        <ele>75.388</ele>
        <time>2020-12-13T07:26:21Z</time>
      </trkpt>
      <trkpt lat="37.49548" lon="27.54785">
        <ele>75.388</ele>
        <time>2020-12-13T07:26:22Z</time>
      </trkpt>
      <trkpt lat="37.49548" lon="27.54785">
        <ele>75.388</ele>
        <time>2020-12-13T07:26:23Z</time>
      </trkpt>
      <trkpt lat="37.49546" lon="27.54786">
        <ele>75.408</ele>
        <time>2020-12-13T07:26:24Z</time>
      </trkpt>
      <trkpt lat="37.49546" lon="27.54786">
        <ele>75.408</ele>
        <time>2020-12-13T07:26:25Z</time>
      </trkpt>
      <trkpt lat="37.49546" lon="27.54786">
        <ele>75.408</ele>
        <time>2020-12-13T07:26:26Z</time>
      </trkpt>
      <trkpt lat="37.49545" lon="27.54784">
        <ele>75.058</ele>
        <time>2020-12-13T07:26:27Z</time>
      </trkpt>
      <trkpt lat="37.49545" lon="27.54784">
        <ele>75.058</ele>
        <time>2020-12-13T07:26:28Z</time>
      </trkpt>
      <trkpt lat="37.49545" lon="27.54784">
        <ele>75.058</ele>
        <time>2020-12-13T07:26:29Z</time>
      </trkpt>
      <trkpt lat="37.49542" lon="27.54785">
        <ele>74.895</ele>
        <time>2020-12-13T07:26:30Z</time>
      </trkpt>
      <trkpt lat="37.49542" lon="27.54785">
        <ele>74.895</ele>
        <time>2020-12-13T07:26:31Z</time>
      </trkpt>
      <trkpt lat="37.49538" lon="27.54784">
        <ele>74.559</ele>
        <time>2020-12-13T07:26:32Z</time>
      </trkpt>
      <trkpt lat="37.49538" lon="27.54784">
        <ele>74.559</ele>
        <time>2020-12-13T07:26:33Z</time>
      </trkpt>
      <trkpt lat="37.49536" lon="27.54787">
        <ele>74.594</ele>
        <time>2020-12-13T07:26:34Z</time>
      </trkpt>
      <trkpt lat="37.49534" lon="27.54788">
        <ele>74.715</ele>
        <time>2020-12-13T07:26:35Z</time>
      </trkpt>
      <trkpt lat="37.49534" lon="27.54788">
        <ele>74.715</ele>
        <time>2020-12-13T07:26:36Z</time>
      </trkpt>
      <trkpt lat="37.49534" lon="27.54792">
        <ele>75.074</ele>
        <time>2020-12-13T07:26:37Z</time>
      </trkpt>
      <trkpt lat="37.49534" lon="27.54792">
        <ele>75.074</ele>
        <time>2020-12-13T07:26:38Z</time>
      </trkpt>
      <trkpt lat="37.49533" lon="27.54797">
        <ele>75.557</ele>
        <time>2020-12-13T07:26:39Z</time>
      </trkpt>
      <trkpt lat="37.49533" lon="27.54799">
        <ele>75.847</ele>
        <time>2020-12-13T07:26:40Z</time>
      </trkpt>
      <trkpt lat="37.49533" lon="27.54802">
        <ele>76.188</ele>
        <time>2020-12-13T07:26:41Z</time>
      </trkpt>
      <trkpt lat="37.49533" lon="27.54802">
        <ele>76.188</ele>
        <time>2020-12-13T07:26:42Z</time>
      </trkpt>
      <trkpt lat="37.49533" lon="27.54802">
        <ele>76.188</ele>
        <time>2020-12-13T07:26:43Z</time>
      </trkpt>
      <trkpt lat="37.49534" lon="27.54811">
        <ele>77.084</ele>
        <time>2020-12-13T07:26:44Z</time>
      </trkpt>
      <trkpt lat="37.49534" lon="27.54811">
        <ele>77.084</ele>
        <time>2020-12-13T07:26:45Z</time>
      </trkpt>
      <trkpt lat="37.49534" lon="27.54811">
        <ele>77.084</ele>
        <time>2020-12-13T07:26:46Z</time>
      </trkpt>
      <trkpt lat="37.49534" lon="27.54811">
        <ele>77.084</ele>
        <time>2020-12-13T07:26:47Z</time>
      </trkpt>
      <trkpt lat="37.49534" lon="27.54811">
        <ele>77.084</ele>
        <time>2020-12-13T07:26:48Z</time>
      </trkpt>
      <trkpt lat="37.49531" lon="27.54825">
        <ele>77.871</ele>
        <time>2020-12-13T07:26:49Z</time>
      </trkpt>
      <trkpt lat="37.49531" lon="27.54827">
        <ele>78.063</ele>
        <time>2020-12-13T07:26:50Z</time>
      </trkpt>
      <trkpt lat="37.49531" lon="27.54829">
        <ele>78.233</ele>
        <time>2020-12-13T07:26:51Z</time>
      </trkpt>
      <trkpt lat="37.49531" lon="27.54831">
        <ele>78.428</ele>
        <time>2020-12-13T07:26:52Z</time>
      </trkpt>
      <trkpt lat="37.49531" lon="27.54833">
        <ele>78.598</ele>
        <time>2020-12-13T07:26:53Z</time>
      </trkpt>
      <trkpt lat="37.49531" lon="27.54836">
        <ele>78.663</ele>
        <time>2020-12-13T07:26:54Z</time>
      </trkpt>
      <trkpt lat="37.49531" lon="27.54836">
        <ele>78.663</ele>
        <time>2020-12-13T07:26:55Z</time>
      </trkpt>
      <trkpt lat="37.49533" lon="27.5484">
        <ele>78.888</ele>
        <time>2020-12-13T07:26:56Z</time>
      </trkpt>
      <trkpt lat="37.49533" lon="27.5484">
        <ele>78.888</ele>
        <time>2020-12-13T07:26:57Z</time>
      </trkpt>
      <trkpt lat="37.49533" lon="27.5484">
        <ele>78.888</ele>
        <time>2020-12-13T07:26:58Z</time>
      </trkpt>
      <trkpt lat="37.49533" lon="27.5484">
        <ele>78.888</ele>
        <time>2020-12-13T07:26:59Z</time>
      </trkpt>
      <trkpt lat="37.49533" lon="27.5484">
        <ele>78.888</ele>
        <time>2020-12-13T07:27:00Z</time>
      </trkpt>
      <trkpt lat="37.49533" lon="27.54843">
        <ele>79.082</ele>
        <time>2020-12-13T07:27:01Z</time>
      </trkpt>
      <trkpt lat="37.49534" lon="27.54846">
        <ele>79.303</ele>
        <time>2020-12-13T07:27:02Z</time>
      </trkpt>
      <trkpt lat="37.49535" lon="27.5485">
        <ele>79.515</ele>
        <time>2020-12-13T07:27:03Z</time>
      </trkpt>
      <trkpt lat="37.49536" lon="27.54853">
        <ele>79.734</ele>
        <time>2020-12-13T07:27:04Z</time>
      </trkpt>
      <trkpt lat="37.49537" lon="27.54857">
        <ele>79.98</ele>
        <time>2020-12-13T07:27:05Z</time>
      </trkpt>
      <trkpt lat="37.49538" lon="27.5486">
        <ele>80.218</ele>
        <time>2020-12-13T07:27:06Z</time>
      </trkpt>
      <trkpt lat="37.49539" lon="27.54862">
        <ele>80.416</ele>
        <time>2020-12-13T07:27:07Z</time>
      </trkpt>
      <trkpt lat="37.4954" lon="27.54864">
        <ele>80.582</ele>
        <time>2020-12-13T07:27:08Z</time>
      </trkpt>
      <trkpt lat="37.49541" lon="27.54867">
        <ele>80.824</ele>
        <time>2020-12-13T07:27:09Z</time>
      </trkpt>
      <trkpt lat="37.49541" lon="27.54867">
        <ele>80.824</ele>
        <time>2020-12-13T07:27:10Z</time>
      </trkpt>
      <trkpt lat="37.49542" lon="27.5487">
        <ele>81.175</ele>
        <time>2020-12-13T07:27:11Z</time>
      </trkpt>
      <trkpt lat="37.49542" lon="27.5487">
        <ele>81.175</ele>
        <time>2020-12-13T07:27:12Z</time>
      </trkpt>
      <trkpt lat="37.49545" lon="27.54872">
        <ele>81.786</ele>
        <time>2020-12-13T07:27:13Z</time>
      </trkpt>
      <trkpt lat="37.49545" lon="27.54872">
        <ele>81.786</ele>
        <time>2020-12-13T07:27:14Z</time>
      </trkpt>
      <trkpt lat="37.49548" lon="27.54872">
        <ele>82.424</ele>
        <time>2020-12-13T07:27:15Z</time>
      </trkpt>
      <trkpt lat="37.49548" lon="27.54872">
        <ele>82.424</ele>
        <time>2020-12-13T07:27:16Z</time>
      </trkpt>
      <trkpt lat="37.4955" lon="27.54874">
        <ele>82.981</ele>
        <time>2020-12-13T07:27:17Z</time>
      </trkpt>
      <trkpt lat="37.4955" lon="27.54874">
        <ele>82.981</ele>
        <time>2020-12-13T07:27:18Z</time>
      </trkpt>
      <trkpt lat="37.49551" lon="27.54877">
        <ele>83.476</ele>
        <time>2020-12-13T07:27:19Z</time>
      </trkpt>
      <trkpt lat="37.49551" lon="27.54877">
        <ele>83.476</ele>
        <time>2020-12-13T07:27:20Z</time>
      </trkpt>
      <trkpt lat="37.49552" lon="27.54879">
        <ele>83.787</ele>
        <time>2020-12-13T07:27:21Z</time>
      </trkpt>
      <trkpt lat="37.49552" lon="27.54879">
        <ele>83.787</ele>
        <time>2020-12-13T07:27:22Z</time>
      </trkpt>
      <trkpt lat="37.49553" lon="27.54882">
        <ele>83.981</ele>
        <time>2020-12-13T07:27:23Z</time>
      </trkpt>
      <trkpt lat="37.49553" lon="27.54882">
        <ele>83.981</ele>
        <time>2020-12-13T07:27:24Z</time>
      </trkpt>
      <trkpt lat="37.49553" lon="27.54885">
        <ele>84.086</ele>
        <time>2020-12-13T07:27:25Z</time>
      </trkpt>
      <trkpt lat="37.49553" lon="27.54885">
        <ele>84.086</ele>
        <time>2020-12-13T07:27:26Z</time>
      </trkpt>
      <trkpt lat="37.49555" lon="27.54887">
        <ele>84.742</ele>
        <time>2020-12-13T07:27:27Z</time>
      </trkpt>
      <trkpt lat="37.49555" lon="27.54887">
        <ele>84.742</ele>
        <time>2020-12-13T07:27:28Z</time>
      </trkpt>
      <trkpt lat="37.49558" lon="27.54887">
        <ele>85.532</ele>
        <time>2020-12-13T07:27:29Z</time>
      </trkpt>
      <trkpt lat="37.49558" lon="27.54887">
        <ele>85.532</ele>
        <time>2020-12-13T07:27:30Z</time>
      </trkpt>
      <trkpt lat="37.49558" lon="27.54887">
        <ele>85.532</ele>
        <time>2020-12-13T07:27:31Z</time>
      </trkpt>
      <trkpt lat="37.49559" lon="27.54884">
        <ele>85.678</ele>
        <time>2020-12-13T07:27:32Z</time>
      </trkpt>
      <trkpt lat="37.49559" lon="27.54884">
        <ele>85.678</ele>
        <time>2020-12-13T07:27:33Z</time>
      </trkpt>
      <trkpt lat="37.49559" lon="27.54884">
        <ele>85.678</ele>
        <time>2020-12-13T07:27:34Z</time>
      </trkpt>
      <trkpt lat="37.49559" lon="27.54884">
        <ele>85.678</ele>
        <time>2020-12-13T07:27:35Z</time>
      </trkpt>
      <trkpt lat="37.4956" lon="27.54882">
        <ele>85.942</ele>
        <time>2020-12-13T07:27:36Z</time>
      </trkpt>
      <trkpt lat="37.4956" lon="27.54882">
        <ele>85.942</ele>
        <time>2020-12-13T07:27:37Z</time>
      </trkpt>
      <trkpt lat="37.4956" lon="27.54882">
        <ele>85.942</ele>
        <time>2020-12-13T07:27:38Z</time>
      </trkpt>
      <trkpt lat="37.49563" lon="27.54883">
        <ele>86.548</ele>
        <time>2020-12-13T07:27:39Z</time>
      </trkpt>
      <trkpt lat="37.49563" lon="27.54883">
        <ele>86.548</ele>
        <time>2020-12-13T07:27:40Z</time>
      </trkpt>
      <trkpt lat="37.49565" lon="27.54884">
        <ele>87.164</ele>
        <time>2020-12-13T07:27:41Z</time>
      </trkpt>
      <trkpt lat="37.49565" lon="27.54884">
        <ele>87.164</ele>
        <time>2020-12-13T07:27:42Z</time>
      </trkpt>
      <trkpt lat="37.49568" lon="27.54883">
        <ele>87.739</ele>
        <time>2020-12-13T07:27:43Z</time>
      </trkpt>
      <trkpt lat="37.49568" lon="27.54883">
        <ele>87.739</ele>
        <time>2020-12-13T07:27:44Z</time>
      </trkpt>
      <trkpt lat="37.4957" lon="27.54882">
        <ele>88.242</ele>
        <time>2020-12-13T07:27:45Z</time>
      </trkpt>
      <trkpt lat="37.4957" lon="27.54882">
        <ele>88.242</ele>
        <time>2020-12-13T07:27:46Z</time>
      </trkpt>
      <trkpt lat="37.49572" lon="27.54881">
        <ele>88.699</ele>
        <time>2020-12-13T07:27:47Z</time>
      </trkpt>
      <trkpt lat="37.49572" lon="27.54881">
        <ele>88.699</ele>
        <time>2020-12-13T07:27:48Z</time>
      </trkpt>
      <trkpt lat="37.49574" lon="27.5488">
        <ele>89.158</ele>
        <time>2020-12-13T07:27:49Z</time>
      </trkpt>
      <trkpt lat="37.49574" lon="27.5488">
        <ele>89.158</ele>
        <time>2020-12-13T07:27:50Z</time>
      </trkpt>
      <trkpt lat="37.49574" lon="27.5488">
        <ele>89.158</ele>
        <time>2020-12-13T07:27:51Z</time>
      </trkpt>
      <trkpt lat="37.49576" lon="27.54879">
        <ele>89.55</ele>
        <time>2020-12-13T07:27:52Z</time>
      </trkpt>
      <trkpt lat="37.49576" lon="27.54879">
        <ele>89.55</ele>
        <time>2020-12-13T07:27:53Z</time>
      </trkpt>
      <trkpt lat="37.49578" lon="27.54877">
        <ele>89.929</ele>
        <time>2020-12-13T07:27:54Z</time>
      </trkpt>
      <trkpt lat="37.49578" lon="27.54877">
        <ele>89.929</ele>
        <time>2020-12-13T07:27:55Z</time>
      </trkpt>
      <trkpt lat="37.49578" lon="27.54877">
        <ele>89.929</ele>
        <time>2020-12-13T07:27:56Z</time>
      </trkpt>
      <trkpt lat="37.49581" lon="27.54875">
        <ele>90.336</ele>
        <time>2020-12-13T07:27:57Z</time>
      </trkpt>
      <trkpt lat="37.49581" lon="27.54875">
        <ele>90.336</ele>
        <time>2020-12-13T07:27:58Z</time>
      </trkpt>
      <trkpt lat="37.49582" lon="27.54874">
        <ele>90.659</ele>
        <time>2020-12-13T07:27:59Z</time>
      </trkpt>
      <trkpt lat="37.49582" lon="27.54874">
        <ele>90.659</ele>
        <time>2020-12-13T07:28:00Z</time>
      </trkpt>
      <trkpt lat="37.49585" lon="27.54873">
        <ele>91.136</ele>
        <time>2020-12-13T07:28:01Z</time>
      </trkpt>
      <trkpt lat="37.49585" lon="27.54873">
        <ele>91.136</ele>
        <time>2020-12-13T07:28:02Z</time>
      </trkpt>
      <trkpt lat="37.49587" lon="27.54873">
        <ele>91.501</ele>
        <time>2020-12-13T07:28:03Z</time>
      </trkpt>
      <trkpt lat="37.49587" lon="27.54873">
        <ele>91.501</ele>
        <time>2020-12-13T07:28:04Z</time>
      </trkpt>
      <trkpt lat="37.49587" lon="27.54873">
        <ele>91.501</ele>
        <time>2020-12-13T07:28:05Z</time>
      </trkpt>
      <trkpt lat="37.49591" lon="27.54875">
        <ele>92.153</ele>
        <time>2020-12-13T07:28:06Z</time>
      </trkpt>
      <trkpt lat="37.49591" lon="27.54875">
        <ele>92.153</ele>
        <time>2020-12-13T07:28:07Z</time>
      </trkpt>
      <trkpt lat="37.49593" lon="27.54873">
        <ele>92.318</ele>
        <time>2020-12-13T07:28:08Z</time>
      </trkpt>
      <trkpt lat="37.49593" lon="27.54873">
        <ele>92.318</ele>
        <time>2020-12-13T07:28:09Z</time>
      </trkpt>
      <trkpt lat="37.49595" lon="27.54871">
        <ele>92.29</ele>
        <time>2020-12-13T07:28:10Z</time>
      </trkpt>
      <trkpt lat="37.49595" lon="27.54871">
        <ele>92.29</ele>
        <time>2020-12-13T07:28:11Z</time>
      </trkpt>
      <trkpt lat="37.49597" lon="27.54869">
        <ele>92.395</ele>
        <time>2020-12-13T07:28:12Z</time>
      </trkpt>
      <trkpt lat="37.49597" lon="27.54869">
        <ele>92.395</ele>
        <time>2020-12-13T07:28:13Z</time>
      </trkpt>
      <trkpt lat="37.49599" lon="27.54867">
        <ele>92.515</ele>
        <time>2020-12-13T07:28:14Z</time>
      </trkpt>
      <trkpt lat="37.49599" lon="27.54867">
        <ele>92.515</ele>
        <time>2020-12-13T07:28:15Z</time>
      </trkpt>
      <trkpt lat="37.49601" lon="27.54866">
        <ele>92.69</ele>
        <time>2020-12-13T07:28:16Z</time>
      </trkpt>
      <trkpt lat="37.49601" lon="27.54866">
        <ele>92.69</ele>
        <time>2020-12-13T07:28:17Z</time>
      </trkpt>
      <trkpt lat="37.49604" lon="27.54866">
        <ele>92.951</ele>
        <time>2020-12-13T07:28:18Z</time>
      </trkpt>
      <trkpt lat="37.49604" lon="27.54866">
        <ele>92.951</ele>
        <time>2020-12-13T07:28:19Z</time>
      </trkpt>
      <trkpt lat="37.49607" lon="27.54865">
        <ele>93.108</ele>
        <time>2020-12-13T07:28:20Z</time>
      </trkpt>
      <trkpt lat="37.49607" lon="27.54865">
        <ele>93.108</ele>
        <time>2020-12-13T07:28:21Z</time>
      </trkpt>
      <trkpt lat="37.49608" lon="27.54863">
        <ele>93.033</ele>
        <time>2020-12-13T07:28:22Z</time>
      </trkpt>
      <trkpt lat="37.49608" lon="27.54863">
        <ele>93.033</ele>
        <time>2020-12-13T07:28:23Z</time>
      </trkpt>
      <trkpt lat="37.49609" lon="27.54861">
        <ele>92.692</ele>
        <time>2020-12-13T07:28:24Z</time>
      </trkpt>
      <trkpt lat="37.49609" lon="27.54861">
        <ele>92.692</ele>
        <time>2020-12-13T07:28:25Z</time>
      </trkpt>
      <trkpt lat="37.49609" lon="27.54861">
        <ele>92.692</ele>
        <time>2020-12-13T07:28:26Z</time>
      </trkpt>
      <trkpt lat="37.49609" lon="27.54858">
        <ele>92.384</ele>
        <time>2020-12-13T07:28:27Z</time>
      </trkpt>
      <trkpt lat="37.49609" lon="27.54858">
        <ele>92.384</ele>
        <time>2020-12-13T07:28:28Z</time>
      </trkpt>
      <trkpt lat="37.4961" lon="27.54856">
        <ele>92.13</ele>
        <time>2020-12-13T07:28:29Z</time>
      </trkpt>
      <trkpt lat="37.4961" lon="27.54856">
        <ele>92.13</ele>
        <time>2020-12-13T07:28:30Z</time>
      </trkpt>
      <trkpt lat="37.49612" lon="27.54854">
        <ele>91.943</ele>
        <time>2020-12-13T07:28:31Z</time>
      </trkpt>
      <trkpt lat="37.49612" lon="27.54854">
        <ele>91.943</ele>
        <time>2020-12-13T07:28:32Z</time>
      </trkpt>
      <trkpt lat="37.49614" lon="27.54853">
        <ele>91.818</ele>
        <time>2020-12-13T07:28:33Z</time>
      </trkpt>
      <trkpt lat="37.49614" lon="27.54853">
        <ele>91.818</ele>
        <time>2020-12-13T07:28:34Z</time>
      </trkpt>
      <trkpt lat="37.49617" lon="27.54854">
        <ele>91.851</ele>
        <time>2020-12-13T07:28:35Z</time>
      </trkpt>
      <trkpt lat="37.49617" lon="27.54854">
        <ele>91.851</ele>
        <time>2020-12-13T07:28:36Z</time>
      </trkpt>
      <trkpt lat="37.49619" lon="27.54854">
        <ele>91.902</ele>
        <time>2020-12-13T07:28:37Z</time>
      </trkpt>
      <trkpt lat="37.49619" lon="27.54854">
        <ele>91.902</ele>
        <time>2020-12-13T07:28:38Z</time>
      </trkpt>
      <trkpt lat="37.49619" lon="27.54854">
        <ele>91.902</ele>
        <time>2020-12-13T07:28:39Z</time>
      </trkpt>
      <trkpt lat="37.49619" lon="27.54854">
        <ele>91.902</ele>
        <time>2020-12-13T07:28:40Z</time>
      </trkpt>
      <trkpt lat="37.4962" lon="27.54856">
        <ele>92.265</ele>
        <time>2020-12-13T07:28:41Z</time>
      </trkpt>
      <trkpt lat="37.4962" lon="27.54856">
        <ele>92.265</ele>
        <time>2020-12-13T07:28:42Z</time>
      </trkpt>
      <trkpt lat="37.49622" lon="27.54859">
        <ele>92.587</ele>
        <time>2020-12-13T07:28:43Z</time>
      </trkpt>
      <trkpt lat="37.49622" lon="27.54859">
        <ele>92.587</ele>
        <time>2020-12-13T07:28:44Z</time>
      </trkpt>
      <trkpt lat="37.49624" lon="27.54859">
        <ele>92.676</ele>
        <time>2020-12-13T07:28:45Z</time>
      </trkpt>
      <trkpt lat="37.49626" lon="27.54859">
        <ele>92.671</ele>
        <time>2020-12-13T07:28:46Z</time>
      </trkpt>
      <trkpt lat="37.49626" lon="27.54859">
        <ele>92.671</ele>
        <time>2020-12-13T07:28:47Z</time>
      </trkpt>
      <trkpt lat="37.49626" lon="27.54859">
        <ele>92.671</ele>
        <time>2020-12-13T07:28:48Z</time>
      </trkpt>
      <trkpt lat="37.49631" lon="27.54859">
        <ele>92.592</ele>
        <time>2020-12-13T07:28:49Z</time>
      </trkpt>
      <trkpt lat="37.49632" lon="27.54858">
        <ele>92.537</ele>
        <time>2020-12-13T07:28:50Z</time>
      </trkpt>
      <trkpt lat="37.49633" lon="27.54858">
        <ele>92.498</ele>
        <time>2020-12-13T07:28:51Z</time>
      </trkpt>
      <trkpt lat="37.49634" lon="27.54858">
        <ele>92.442</ele>
        <time>2020-12-13T07:28:52Z</time>
      </trkpt>
      <trkpt lat="37.49636" lon="27.54858">
        <ele>92.384</ele>
        <time>2020-12-13T07:28:53Z</time>
      </trkpt>
      <trkpt lat="37.49638" lon="27.5486">
        <ele>92.71</ele>
        <time>2020-12-13T07:28:54Z</time>
      </trkpt>
      <trkpt lat="37.4964" lon="27.54861">
        <ele>92.9</ele>
        <time>2020-12-13T07:28:55Z</time>
      </trkpt>
      <trkpt lat="37.49641" lon="27.54862">
        <ele>93.106</ele>
        <time>2020-12-13T07:28:56Z</time>
      </trkpt>
      <trkpt lat="37.49642" lon="27.54863">
        <ele>93.349</ele>
        <time>2020-12-13T07:28:57Z</time>
      </trkpt>
      <trkpt lat="37.49642" lon="27.54863">
        <ele>93.349</ele>
        <time>2020-12-13T07:28:58Z</time>
      </trkpt>
      <trkpt lat="37.49643" lon="27.54867">
        <ele>94.042</ele>
        <time>2020-12-13T07:28:59Z</time>
      </trkpt>
      <trkpt lat="37.49643" lon="27.54867">
        <ele>94.042</ele>
        <time>2020-12-13T07:29:00Z</time>
      </trkpt>
      <trkpt lat="37.49642" lon="27.54869">
        <ele>94.658</ele>
        <time>2020-12-13T07:29:01Z</time>
      </trkpt>
      <trkpt lat="37.49642" lon="27.54869">
        <ele>94.658</ele>
        <time>2020-12-13T07:29:02Z</time>
      </trkpt>
      <trkpt lat="37.49642" lon="27.54869">
        <ele>94.658</ele>
        <time>2020-12-13T07:29:03Z</time>
      </trkpt>
      <trkpt lat="37.49645" lon="27.54869">
        <ele>94.551</ele>
        <time>2020-12-13T07:29:04Z</time>
      </trkpt>
      <trkpt lat="37.49645" lon="27.54869">
        <ele>94.551</ele>
        <time>2020-12-13T07:29:05Z</time>
      </trkpt>
      <trkpt lat="37.49647" lon="27.5487">
        <ele>94.489</ele>
        <time>2020-12-13T07:29:06Z</time>
      </trkpt>
      <trkpt lat="37.49647" lon="27.5487">
        <ele>94.489</ele>
        <time>2020-12-13T07:29:07Z</time>
      </trkpt>
      <trkpt lat="37.49649" lon="27.54872">
        <ele>94.961</ele>
        <time>2020-12-13T07:29:08Z</time>
      </trkpt>
      <trkpt lat="37.49649" lon="27.54872">
        <ele>94.961</ele>
        <time>2020-12-13T07:29:09Z</time>
      </trkpt>
      <trkpt lat="37.49649" lon="27.54872">
        <ele>94.961</ele>
        <time>2020-12-13T07:29:10Z</time>
      </trkpt>
      <trkpt lat="37.49649" lon="27.54875">
        <ele>95.518</ele>
        <time>2020-12-13T07:29:11Z</time>
      </trkpt>
      <trkpt lat="37.49649" lon="27.54875">
        <ele>95.518</ele>
        <time>2020-12-13T07:29:12Z</time>
      </trkpt>
      <trkpt lat="37.49649" lon="27.54877">
        <ele>96.063</ele>
        <time>2020-12-13T07:29:13Z</time>
      </trkpt>
      <trkpt lat="37.49649" lon="27.54877">
        <ele>96.063</ele>
        <time>2020-12-13T07:29:14Z</time>
      </trkpt>
      <trkpt lat="37.4965" lon="27.5488">
        <ele>96.664</ele>
        <time>2020-12-13T07:29:15Z</time>
      </trkpt>
      <trkpt lat="37.4965" lon="27.5488">
        <ele>96.664</ele>
        <time>2020-12-13T07:29:16Z</time>
      </trkpt>
      <trkpt lat="37.49651" lon="27.54883">
        <ele>97.245</ele>
        <time>2020-12-13T07:29:17Z</time>
      </trkpt>
      <trkpt lat="37.49651" lon="27.54883">
        <ele>97.245</ele>
        <time>2020-12-13T07:29:18Z</time>
      </trkpt>
      <trkpt lat="37.49651" lon="27.54886">
        <ele>97.941</ele>
        <time>2020-12-13T07:29:19Z</time>
      </trkpt>
      <trkpt lat="37.49651" lon="27.54886">
        <ele>97.941</ele>
        <time>2020-12-13T07:29:20Z</time>
      </trkpt>
      <trkpt lat="37.49651" lon="27.54889">
        <ele>98.785</ele>
        <time>2020-12-13T07:29:21Z</time>
      </trkpt>
      <trkpt lat="37.49651" lon="27.54889">
        <ele>98.785</ele>
        <time>2020-12-13T07:29:22Z</time>
      </trkpt>
      <trkpt lat="37.4965" lon="27.54892">
        <ele>99.442</ele>
        <time>2020-12-13T07:29:23Z</time>
      </trkpt>
      <trkpt lat="37.4965" lon="27.54892">
        <ele>99.442</ele>
        <time>2020-12-13T07:29:24Z</time>
      </trkpt>
      <trkpt lat="37.4965" lon="27.54895">
        <ele>100.018</ele>
        <time>2020-12-13T07:29:25Z</time>
      </trkpt>
      <trkpt lat="37.4965" lon="27.54895">
        <ele>100.018</ele>
        <time>2020-12-13T07:29:26Z</time>
      </trkpt>
      <trkpt lat="37.4965" lon="27.54895">
        <ele>100.018</ele>
        <time>2020-12-13T07:29:27Z</time>
      </trkpt>
      <trkpt lat="37.4965" lon="27.54895">
        <ele>100.018</ele>
        <time>2020-12-13T07:29:28Z</time>
      </trkpt>
      <trkpt lat="37.4965" lon="27.54895">
        <ele>100.018</ele>
        <time>2020-12-13T07:29:29Z</time>
      </trkpt>
      <trkpt lat="37.49652" lon="27.54903">
        <ele>101.25</ele>
        <time>2020-12-13T07:29:30Z</time>
      </trkpt>
      <trkpt lat="37.49653" lon="27.54904">
        <ele>101.409</ele>
        <time>2020-12-13T07:29:31Z</time>
      </trkpt>
      <trkpt lat="37.49653" lon="27.54905">
        <ele>101.598</ele>
        <time>2020-12-13T07:29:32Z</time>
      </trkpt>
      <trkpt lat="37.49653" lon="27.54905">
        <ele>101.759</ele>
        <time>2020-12-13T07:29:33Z</time>
      </trkpt>
      <trkpt lat="37.49653" lon="27.54906">
        <ele>101.92</ele>
        <time>2020-12-13T07:29:34Z</time>
      </trkpt>
      <trkpt lat="37.49653" lon="27.54906">
        <ele>101.92</ele>
        <time>2020-12-13T07:29:35Z</time>
      </trkpt>
      <trkpt lat="37.49653" lon="27.54906">
        <ele>101.92</ele>
        <time>2020-12-13T07:29:36Z</time>
      </trkpt>
      <trkpt lat="37.49653" lon="27.54906">
        <ele>101.92</ele>
        <time>2020-12-13T07:29:37Z</time>
      </trkpt>
      <trkpt lat="37.49653" lon="27.54906">
        <ele>101.92</ele>
        <time>2020-12-13T07:29:38Z</time>
      </trkpt>
      <trkpt lat="37.49654" lon="27.54909">
        <ele>102.327</ele>
        <time>2020-12-13T07:29:39Z</time>
      </trkpt>
      <trkpt lat="37.49654" lon="27.54911">
        <ele>102.746</ele>
        <time>2020-12-13T07:29:40Z</time>
      </trkpt>
      <trkpt lat="37.49655" lon="27.54913">
        <ele>103.158</ele>
        <time>2020-12-13T07:29:41Z</time>
      </trkpt>
      <trkpt lat="37.49655" lon="27.54916">
        <ele>103.577</ele>
        <time>2020-12-13T07:29:42Z</time>
      </trkpt>
      <trkpt lat="37.49656" lon="27.54918">
        <ele>103.923</ele>
        <time>2020-12-13T07:29:43Z</time>
      </trkpt>
      <trkpt lat="37.49657" lon="27.5492">
        <ele>104.181</ele>
        <time>2020-12-13T07:29:44Z</time>
      </trkpt>
      <trkpt lat="37.49657" lon="27.5492">
        <ele>104.181</ele>
        <time>2020-12-13T07:29:45Z</time>
      </trkpt>
      <trkpt lat="37.49657" lon="27.54922">
        <ele>104.411</ele>
        <time>2020-12-13T07:29:46Z</time>
      </trkpt>
      <trkpt lat="37.49657" lon="27.54922">
        <ele>104.411</ele>
        <time>2020-12-13T07:29:47Z</time>
      </trkpt>
      <trkpt lat="37.49658" lon="27.54924">
        <ele>104.656</ele>
        <time>2020-12-13T07:29:48Z</time>
      </trkpt>
      <trkpt lat="37.49658" lon="27.54924">
        <ele>104.656</ele>
        <time>2020-12-13T07:29:49Z</time>
      </trkpt>
      <trkpt lat="37.49657" lon="27.54929">
        <ele>105.379</ele>
        <time>2020-12-13T07:29:50Z</time>
      </trkpt>
      <trkpt lat="37.49655" lon="27.54932">
        <ele>105.73</ele>
        <time>2020-12-13T07:29:51Z</time>
      </trkpt>
      <trkpt lat="37.49654" lon="27.54933">
        <ele>106.037</ele>
        <time>2020-12-13T07:29:52Z</time>
      </trkpt>
      <trkpt lat="37.49653" lon="27.54935">
        <ele>106.34</ele>
        <time>2020-12-13T07:29:53Z</time>
      </trkpt>
      <trkpt lat="37.49653" lon="27.54935">
        <ele>106.34</ele>
        <time>2020-12-13T07:29:54Z</time>
      </trkpt>
      <trkpt lat="37.49652" lon="27.54939">
        <ele>106.889</ele>
        <time>2020-12-13T07:29:55Z</time>
      </trkpt>
      <trkpt lat="37.49652" lon="27.54939">
        <ele>106.889</ele>
        <time>2020-12-13T07:29:56Z</time>
      </trkpt>
      <trkpt lat="37.49651" lon="27.54941">
        <ele>107.195</ele>
        <time>2020-12-13T07:29:57Z</time>
      </trkpt>
      <trkpt lat="37.49651" lon="27.54941">
        <ele>107.195</ele>
        <time>2020-12-13T07:29:58Z</time>
      </trkpt>
      <trkpt lat="37.49653" lon="27.54941">
        <ele>107.069</ele>
        <time>2020-12-13T07:29:59Z</time>
      </trkpt>
      <trkpt lat="37.49653" lon="27.54941">
        <ele>107.069</ele>
        <time>2020-12-13T07:30:00Z</time>
      </trkpt>
      <trkpt lat="37.49653" lon="27.54941">
        <ele>107.069</ele>
        <time>2020-12-13T07:30:01Z</time>
      </trkpt>
      <trkpt lat="37.49655" lon="27.5494">
        <ele>106.873</ele>
        <time>2020-12-13T07:30:02Z</time>
      </trkpt>
      <trkpt lat="37.49655" lon="27.5494">
        <ele>106.873</ele>
        <time>2020-12-13T07:30:03Z</time>
      </trkpt>
      <trkpt lat="37.49655" lon="27.5494">
        <ele>106.873</ele>
        <time>2020-12-13T07:30:04Z</time>
      </trkpt>
      <trkpt lat="37.49657" lon="27.54941">
        <ele>106.878</ele>
        <time>2020-12-13T07:30:05Z</time>
      </trkpt>
      <trkpt lat="37.49657" lon="27.54941">
        <ele>106.878</ele>
        <time>2020-12-13T07:30:06Z</time>
      </trkpt>
      <trkpt lat="37.49658" lon="27.54943">
        <ele>107.052</ele>
        <time>2020-12-13T07:30:07Z</time>
      </trkpt>
      <trkpt lat="37.49658" lon="27.54943">
        <ele>107.052</ele>
        <time>2020-12-13T07:30:08Z</time>
      </trkpt>
      <trkpt lat="37.49658" lon="27.54943">
        <ele>107.052</ele>
        <time>2020-12-13T07:30:09Z</time>
      </trkpt>
      <trkpt lat="37.4966" lon="27.54943">
        <ele>107.07</ele>
        <time>2020-12-13T07:30:10Z</time>
      </trkpt>
      <trkpt lat="37.4966" lon="27.54943">
        <ele>107.07</ele>
        <time>2020-12-13T07:30:11Z</time>
      </trkpt>
      <trkpt lat="37.49662" lon="27.54944">
        <ele>107.041</ele>
        <time>2020-12-13T07:30:12Z</time>
      </trkpt>
      <trkpt lat="37.49662" lon="27.54944">
        <ele>107.041</ele>
        <time>2020-12-13T07:30:13Z</time>
      </trkpt>
      <trkpt lat="37.49663" lon="27.54948">
        <ele>107.408</ele>
        <time>2020-12-13T07:30:14Z</time>
      </trkpt>
      <trkpt lat="37.49663" lon="27.54948">
        <ele>107.408</ele>
        <time>2020-12-13T07:30:15Z</time>
      </trkpt>
      <trkpt lat="37.49664" lon="27.54951">
        <ele>107.713</ele>
        <time>2020-12-13T07:30:16Z</time>
      </trkpt>
      <trkpt lat="37.49664" lon="27.54951">
        <ele>107.713</ele>
        <time>2020-12-13T07:30:17Z</time>
      </trkpt>
      <trkpt lat="37.49666" lon="27.54953">
        <ele>107.883</ele>
        <time>2020-12-13T07:30:18Z</time>
      </trkpt>
      <trkpt lat="37.49666" lon="27.54953">
        <ele>107.883</ele>
        <time>2020-12-13T07:30:19Z</time>
      </trkpt>
      <trkpt lat="37.49669" lon="27.54956">
        <ele>107.797</ele>
        <time>2020-12-13T07:30:20Z</time>
      </trkpt>
      <trkpt lat="37.4967" lon="27.54957">
        <ele>107.693</ele>
        <time>2020-12-13T07:30:21Z</time>
      </trkpt>
      <trkpt lat="37.49672" lon="27.54959">
        <ele>107.508</ele>
        <time>2020-12-13T07:30:22Z</time>
      </trkpt>
      <trkpt lat="37.49673" lon="27.54962">
        <ele>107.475</ele>
        <time>2020-12-13T07:30:23Z</time>
      </trkpt>
      <trkpt lat="37.49675" lon="27.54964">
        <ele>107.362</ele>
        <time>2020-12-13T07:30:24Z</time>
      </trkpt>
      <trkpt lat="37.49677" lon="27.54966">
        <ele>107.348</ele>
        <time>2020-12-13T07:30:25Z</time>
      </trkpt>
      <trkpt lat="37.49678" lon="27.54968">
        <ele>107.29</ele>
        <time>2020-12-13T07:30:26Z</time>
      </trkpt>
      <trkpt lat="37.4968" lon="27.5497">
        <ele>107.231</ele>
        <time>2020-12-13T07:30:27Z</time>
      </trkpt>
      <trkpt lat="37.49681" lon="27.54971">
        <ele>107.232</ele>
        <time>2020-12-13T07:30:28Z</time>
      </trkpt>
      <trkpt lat="37.49681" lon="27.54971">
        <ele>107.232</ele>
        <time>2020-12-13T07:30:29Z</time>
      </trkpt>
      <trkpt lat="37.49682" lon="27.54974">
        <ele>107.262</ele>
        <time>2020-12-13T07:30:30Z</time>
      </trkpt>
      <trkpt lat="37.49682" lon="27.54974">
        <ele>107.262</ele>
        <time>2020-12-13T07:30:31Z</time>
      </trkpt>
      <trkpt lat="37.49683" lon="27.54976">
        <ele>107.228</ele>
        <time>2020-12-13T07:30:32Z</time>
      </trkpt>
      <trkpt lat="37.49683" lon="27.54976">
        <ele>107.228</ele>
        <time>2020-12-13T07:30:33Z</time>
      </trkpt>
      <trkpt lat="37.49685" lon="27.54978">
        <ele>107.097</ele>
        <time>2020-12-13T07:30:34Z</time>
      </trkpt>
      <trkpt lat="37.49685" lon="27.54978">
        <ele>107.097</ele>
        <time>2020-12-13T07:30:35Z</time>
      </trkpt>
      <trkpt lat="37.49688" lon="27.5498">
        <ele>106.829</ele>
        <time>2020-12-13T07:30:36Z</time>
      </trkpt>
      <trkpt lat="37.4969" lon="27.54981">
        <ele>106.671</ele>
        <time>2020-12-13T07:30:37Z</time>
      </trkpt>
      <trkpt lat="37.49692" lon="27.54982">
        <ele>106.685</ele>
        <time>2020-12-13T07:30:38Z</time>
      </trkpt>
      <trkpt lat="37.49694" lon="27.54984">
        <ele>106.748</ele>
        <time>2020-12-13T07:30:39Z</time>
      </trkpt>
      <trkpt lat="37.49696" lon="27.54986">
        <ele>106.856</ele>
        <time>2020-12-13T07:30:40Z</time>
      </trkpt>
      <trkpt lat="37.49696" lon="27.54986">
        <ele>106.856</ele>
        <time>2020-12-13T07:30:41Z</time>
      </trkpt>
      <trkpt lat="37.49699" lon="27.54988">
        <ele>107.076</ele>
        <time>2020-12-13T07:30:42Z</time>
      </trkpt>
      <trkpt lat="37.49701" lon="27.5499">
        <ele>107.375</ele>
        <time>2020-12-13T07:30:43Z</time>
      </trkpt>
      <trkpt lat="37.49702" lon="27.54992">
        <ele>107.697</ele>
        <time>2020-12-13T07:30:44Z</time>
      </trkpt>
      <trkpt lat="37.49702" lon="27.54992">
        <ele>107.697</ele>
        <time>2020-12-13T07:30:45Z</time>
      </trkpt>
      <trkpt lat="37.49703" lon="27.54995">
        <ele>108.193</ele>
        <time>2020-12-13T07:30:46Z</time>
      </trkpt>
      <trkpt lat="37.49703" lon="27.54995">
        <ele>108.193</ele>
        <time>2020-12-13T07:30:47Z</time>
      </trkpt>
      <trkpt lat="37.49703" lon="27.54995">
        <ele>108.193</ele>
        <time>2020-12-13T07:30:48Z</time>
      </trkpt>
      <trkpt lat="37.49703" lon="27.54995">
        <ele>108.193</ele>
        <time>2020-12-13T07:30:49Z</time>
      </trkpt>
      <trkpt lat="37.49704" lon="27.54998">
        <ele>108.621</ele>
        <time>2020-12-13T07:30:50Z</time>
      </trkpt>
      <trkpt lat="37.49704" lon="27.54998">
        <ele>108.621</ele>
        <time>2020-12-13T07:30:51Z</time>
      </trkpt>
      <trkpt lat="37.49704" lon="27.54998">
        <ele>108.621</ele>
        <time>2020-12-13T07:30:52Z</time>
      </trkpt>
      <trkpt lat="37.49704" lon="27.54998">
        <ele>108.621</ele>
        <time>2020-12-13T07:30:53Z</time>
      </trkpt>
      <trkpt lat="37.49706" lon="27.54999">
        <ele>108.754</ele>
        <time>2020-12-13T07:30:54Z</time>
      </trkpt>
      <trkpt lat="37.49706" lon="27.54999">
        <ele>108.754</ele>
        <time>2020-12-13T07:30:55Z</time>
      </trkpt>
      <trkpt lat="37.49708" lon="27.54999">
        <ele>108.765</ele>
        <time>2020-12-13T07:30:56Z</time>
      </trkpt>
      <trkpt lat="37.49708" lon="27.54999">
        <ele>108.765</ele>
        <time>2020-12-13T07:30:57Z</time>
      </trkpt>
      <trkpt lat="37.4971" lon="27.54999">
        <ele>108.815</ele>
        <time>2020-12-13T07:30:58Z</time>
      </trkpt>
      <trkpt lat="37.49712" lon="27.55">
        <ele>108.936</ele>
        <time>2020-12-13T07:30:59Z</time>
      </trkpt>
      <trkpt lat="37.49714" lon="27.55001">
        <ele>109.063</ele>
        <time>2020-12-13T07:31:00Z</time>
      </trkpt>
      <trkpt lat="37.49716" lon="27.55001">
        <ele>109.126</ele>
        <time>2020-12-13T07:31:01Z</time>
      </trkpt>
      <trkpt lat="37.49718" lon="27.55002">
        <ele>109.228</ele>
        <time>2020-12-13T07:31:02Z</time>
      </trkpt>
      <trkpt lat="37.4972" lon="27.55002">
        <ele>109.397</ele>
        <time>2020-12-13T07:31:03Z</time>
      </trkpt>
      <trkpt lat="37.49722" lon="27.55003">
        <ele>109.538</ele>
        <time>2020-12-13T07:31:04Z</time>
      </trkpt>
      <trkpt lat="37.49724" lon="27.55003">
        <ele>109.763</ele>
        <time>2020-12-13T07:31:05Z</time>
      </trkpt>
      <trkpt lat="37.49726" lon="27.55004">
        <ele>109.982</ele>
        <time>2020-12-13T07:31:06Z</time>
      </trkpt>
      <trkpt lat="37.49728" lon="27.55004">
        <ele>110.145</ele>
        <time>2020-12-13T07:31:07Z</time>
      </trkpt>
      <trkpt lat="37.4973" lon="27.55004">
        <ele>110.429</ele>
        <time>2020-12-13T07:31:08Z</time>
      </trkpt>
      <trkpt lat="37.4973" lon="27.55004">
        <ele>110.429</ele>
        <time>2020-12-13T07:31:09Z</time>
      </trkpt>
      <trkpt lat="37.49733" lon="27.55005">
        <ele>110.841</ele>
        <time>2020-12-13T07:31:10Z</time>
      </trkpt>
      <trkpt lat="37.49733" lon="27.55005">
        <ele>110.841</ele>
        <time>2020-12-13T07:31:11Z</time>
      </trkpt>
      <trkpt lat="37.49736" lon="27.55007">
        <ele>111.415</ele>
        <time>2020-12-13T07:31:12Z</time>
      </trkpt>
      <trkpt lat="37.49736" lon="27.55007">
        <ele>111.415</ele>
        <time>2020-12-13T07:31:13Z</time>
      </trkpt>
      <trkpt lat="37.49738" lon="27.55008">
        <ele>111.992</ele>
        <time>2020-12-13T07:31:14Z</time>
      </trkpt>
      <trkpt lat="37.49738" lon="27.55008">
        <ele>111.992</ele>
        <time>2020-12-13T07:31:15Z</time>
      </trkpt>
      <trkpt lat="37.4974" lon="27.55009">
        <ele>112.346</ele>
        <time>2020-12-13T07:31:16Z</time>
      </trkpt>
      <trkpt lat="37.4974" lon="27.55009">
        <ele>112.346</ele>
        <time>2020-12-13T07:31:17Z</time>
      </trkpt>
      <trkpt lat="37.49742" lon="27.5501">
        <ele>112.823</ele>
        <time>2020-12-13T07:31:18Z</time>
      </trkpt>
      <trkpt lat="37.49742" lon="27.5501">
        <ele>112.823</ele>
        <time>2020-12-13T07:31:19Z</time>
      </trkpt>
      <trkpt lat="37.49745" lon="27.5501">
        <ele>112.991</ele>
        <time>2020-12-13T07:31:20Z</time>
      </trkpt>
      <trkpt lat="37.49745" lon="27.5501">
        <ele>112.991</ele>
        <time>2020-12-13T07:31:21Z</time>
      </trkpt>
      <trkpt lat="37.49747" lon="27.5501">
        <ele>113.104</ele>
        <time>2020-12-13T07:31:22Z</time>
      </trkpt>
      <trkpt lat="37.49747" lon="27.5501">
        <ele>113.104</ele>
        <time>2020-12-13T07:31:23Z</time>
      </trkpt>
      <trkpt lat="37.49748" lon="27.55011">
        <ele>113.551</ele>
        <time>2020-12-13T07:31:24Z</time>
      </trkpt>
      <trkpt lat="37.49748" lon="27.55011">
        <ele>113.551</ele>
        <time>2020-12-13T07:31:25Z</time>
      </trkpt>
      <trkpt lat="37.4975" lon="27.55012">
        <ele>114.068</ele>
        <time>2020-12-13T07:31:26Z</time>
      </trkpt>
      <trkpt lat="37.4975" lon="27.55012">
        <ele>114.068</ele>
        <time>2020-12-13T07:31:27Z</time>
      </trkpt>
      <trkpt lat="37.49752" lon="27.55013">
        <ele>114.353</ele>
        <time>2020-12-13T07:31:28Z</time>
      </trkpt>
      <trkpt lat="37.49752" lon="27.55013">
        <ele>114.353</ele>
        <time>2020-12-13T07:31:29Z</time>
      </trkpt>
      <trkpt lat="37.49752" lon="27.55013">
        <ele>114.353</ele>
        <time>2020-12-13T07:31:30Z</time>
      </trkpt>
      <trkpt lat="37.49754" lon="27.55012">
        <ele>114.054</ele>
        <time>2020-12-13T07:31:31Z</time>
      </trkpt>
      <trkpt lat="37.49754" lon="27.55012">
        <ele>114.054</ele>
        <time>2020-12-13T07:31:32Z</time>
      </trkpt>
      <trkpt lat="37.49756" lon="27.55013">
        <ele>114.369</ele>
        <time>2020-12-13T07:31:33Z</time>
      </trkpt>
      <trkpt lat="37.49756" lon="27.55013">
        <ele>114.369</ele>
        <time>2020-12-13T07:31:34Z</time>
      </trkpt>
      <trkpt lat="37.49757" lon="27.55017">
        <ele>115.388</ele>
        <time>2020-12-13T07:31:35Z</time>
      </trkpt>
      <trkpt lat="37.49757" lon="27.55017">
        <ele>115.388</ele>
        <time>2020-12-13T07:31:36Z</time>
      </trkpt>
      <trkpt lat="37.49758" lon="27.55021">
        <ele>116.39</ele>
        <time>2020-12-13T07:31:37Z</time>
      </trkpt>
      <trkpt lat="37.4976" lon="27.55023">
        <ele>116.961</ele>
        <time>2020-12-13T07:31:38Z</time>
      </trkpt>
      <trkpt lat="37.4976" lon="27.55023">
        <ele>116.961</ele>
        <time>2020-12-13T07:31:39Z</time>
      </trkpt>
      <trkpt lat="37.49762" lon="27.55024">
        <ele>117.289</ele>
        <time>2020-12-13T07:31:40Z</time>
      </trkpt>
      <trkpt lat="37.49762" lon="27.55024">
        <ele>117.289</ele>
        <time>2020-12-13T07:31:41Z</time>
      </trkpt>
      <trkpt lat="37.49764" lon="27.55025">
        <ele>117.726</ele>
        <time>2020-12-13T07:31:42Z</time>
      </trkpt>
      <trkpt lat="37.49764" lon="27.55025">
        <ele>117.726</ele>
        <time>2020-12-13T07:31:43Z</time>
      </trkpt>
      <trkpt lat="37.49766" lon="27.55025">
        <ele>117.924</ele>
        <time>2020-12-13T07:31:44Z</time>
      </trkpt>
      <trkpt lat="37.49766" lon="27.55025">
        <ele>117.924</ele>
        <time>2020-12-13T07:31:45Z</time>
      </trkpt>
      <trkpt lat="37.49766" lon="27.55025">
        <ele>117.924</ele>
        <time>2020-12-13T07:31:46Z</time>
      </trkpt>
      <trkpt lat="37.4977" lon="27.55028">
        <ele>118.717</ele>
        <time>2020-12-13T07:31:47Z</time>
      </trkpt>
      <trkpt lat="37.4977" lon="27.55028">
        <ele>118.717</ele>
        <time>2020-12-13T07:31:48Z</time>
      </trkpt>
      <trkpt lat="37.4977" lon="27.55029">
        <ele>118.813</ele>
        <time>2020-12-13T07:31:49Z</time>
      </trkpt>
      <trkpt lat="37.49771" lon="27.55029">
        <ele>118.899</ele>
        <time>2020-12-13T07:31:50Z</time>
      </trkpt>
      <trkpt lat="37.49771" lon="27.5503">
        <ele>118.998</ele>
        <time>2020-12-13T07:31:51Z</time>
      </trkpt>
      <trkpt lat="37.49771" lon="27.5503">
        <ele>118.998</ele>
        <time>2020-12-13T07:31:52Z</time>
      </trkpt>
      <trkpt lat="37.49771" lon="27.5503">
        <ele>118.998</ele>
        <time>2020-12-13T07:31:53Z</time>
      </trkpt>
      <trkpt lat="37.49771" lon="27.5503">
        <ele>118.998</ele>
        <time>2020-12-13T07:31:54Z</time>
      </trkpt>
      <trkpt lat="37.49771" lon="27.5503">
        <ele>118.998</ele>
        <time>2020-12-13T07:31:55Z</time>
      </trkpt>
      <trkpt lat="37.49771" lon="27.5503">
        <ele>118.998</ele>
        <time>2020-12-13T07:31:56Z</time>
      </trkpt>
      <trkpt lat="37.49771" lon="27.5503">
        <ele>118.998</ele>
        <time>2020-12-13T07:31:57Z</time>
      </trkpt>
      <trkpt lat="37.49773" lon="27.55032">
        <ele>119.322</ele>
        <time>2020-12-13T07:31:58Z</time>
      </trkpt>
      <trkpt lat="37.49773" lon="27.55032">
        <ele>119.322</ele>
        <time>2020-12-13T07:31:59Z</time>
      </trkpt>
      <trkpt lat="37.49775" lon="27.55033">
        <ele>119.651</ele>
        <time>2020-12-13T07:32:00Z</time>
      </trkpt>
      <trkpt lat="37.49775" lon="27.55033">
        <ele>119.651</ele>
        <time>2020-12-13T07:32:01Z</time>
      </trkpt>
      <trkpt lat="37.49775" lon="27.55033">
        <ele>119.651</ele>
        <time>2020-12-13T07:32:02Z</time>
      </trkpt>
      <trkpt lat="37.49778" lon="27.55033">
        <ele>119.767</ele>
        <time>2020-12-13T07:32:03Z</time>
      </trkpt>
      <trkpt lat="37.49778" lon="27.55033">
        <ele>119.767</ele>
        <time>2020-12-13T07:32:04Z</time>
      </trkpt>
      <trkpt lat="37.4978" lon="27.55034">
        <ele>120.268</ele>
        <time>2020-12-13T07:32:05Z</time>
      </trkpt>
      <trkpt lat="37.4978" lon="27.55034">
        <ele>120.268</ele>
        <time>2020-12-13T07:32:06Z</time>
      </trkpt>
      <trkpt lat="37.49783" lon="27.55036">
        <ele>120.814</ele>
        <time>2020-12-13T07:32:07Z</time>
      </trkpt>
      <trkpt lat="37.49783" lon="27.55036">
        <ele>120.814</ele>
        <time>2020-12-13T07:32:08Z</time>
      </trkpt>
      <trkpt lat="37.49785" lon="27.55037">
        <ele>121.308</ele>
        <time>2020-12-13T07:32:09Z</time>
      </trkpt>
      <trkpt lat="37.49785" lon="27.55037">
        <ele>121.308</ele>
        <time>2020-12-13T07:32:10Z</time>
      </trkpt>
      <trkpt lat="37.49788" lon="27.55039">
        <ele>121.939</ele>
        <time>2020-12-13T07:32:11Z</time>
      </trkpt>
      <trkpt lat="37.4979" lon="27.55041">
        <ele>122.34</ele>
        <time>2020-12-13T07:32:12Z</time>
      </trkpt>
      <trkpt lat="37.49791" lon="27.55043">
        <ele>122.746</ele>
        <time>2020-12-13T07:32:13Z</time>
      </trkpt>
      <trkpt lat="37.49792" lon="27.55045">
        <ele>123.16</ele>
        <time>2020-12-13T07:32:14Z</time>
      </trkpt>
      <trkpt lat="37.49793" lon="27.55047">
        <ele>123.52</ele>
        <time>2020-12-13T07:32:15Z</time>
      </trkpt>
      <trkpt lat="37.49793" lon="27.55047">
        <ele>123.52</ele>
        <time>2020-12-13T07:32:16Z</time>
      </trkpt>
      <trkpt lat="37.49795" lon="27.55051">
        <ele>124.268</ele>
        <time>2020-12-13T07:32:17Z</time>
      </trkpt>
      <trkpt lat="37.49796" lon="27.55053">
        <ele>124.646</ele>
        <time>2020-12-13T07:32:18Z</time>
      </trkpt>
      <trkpt lat="37.49796" lon="27.55053">
        <ele>124.646</ele>
        <time>2020-12-13T07:32:19Z</time>
      </trkpt>
      <trkpt lat="37.49798" lon="27.55056">
        <ele>125.327</ele>
        <time>2020-12-13T07:32:20Z</time>
      </trkpt>
      <trkpt lat="37.49799" lon="27.55058">
        <ele>125.803</ele>
        <time>2020-12-13T07:32:21Z</time>
      </trkpt>
      <trkpt lat="37.49801" lon="27.5506">
        <ele>126.335</ele>
        <time>2020-12-13T07:32:22Z</time>
      </trkpt>
      <trkpt lat="37.49801" lon="27.55062">
        <ele>126.882</ele>
        <time>2020-12-13T07:32:23Z</time>
      </trkpt>
      <trkpt lat="37.49801" lon="27.55062">
        <ele>126.882</ele>
        <time>2020-12-13T07:32:24Z</time>
      </trkpt>
      <trkpt lat="37.49802" lon="27.55066">
        <ele>127.672</ele>
        <time>2020-12-13T07:32:25Z</time>
      </trkpt>
      <trkpt lat="37.49802" lon="27.55066">
        <ele>127.672</ele>
        <time>2020-12-13T07:32:26Z</time>
      </trkpt>
      <trkpt lat="37.49804" lon="27.55068">
        <ele>128.426</ele>
        <time>2020-12-13T07:32:27Z</time>
      </trkpt>
      <trkpt lat="37.49804" lon="27.55068">
        <ele>128.426</ele>
        <time>2020-12-13T07:32:28Z</time>
      </trkpt>
      <trkpt lat="37.49804" lon="27.55068">
        <ele>128.426</ele>
        <time>2020-12-13T07:32:29Z</time>
      </trkpt>
      <trkpt lat="37.49807" lon="27.55068">
        <ele>129.123</ele>
        <time>2020-12-13T07:32:30Z</time>
      </trkpt>
      <trkpt lat="37.49807" lon="27.55068">
        <ele>129.123</ele>
        <time>2020-12-13T07:32:31Z</time>
      </trkpt>
      <trkpt lat="37.49807" lon="27.55068">
        <ele>129.123</ele>
        <time>2020-12-13T07:32:32Z</time>
      </trkpt>
      <trkpt lat="37.49807" lon="27.55068">
        <ele>129.123</ele>
        <time>2020-12-13T07:32:33Z</time>
      </trkpt>
      <trkpt lat="37.49807" lon="27.55068">
        <ele>129.123</ele>
        <time>2020-12-13T07:32:34Z</time>
      </trkpt>
      <trkpt lat="37.49807" lon="27.55068">
        <ele>129.123</ele>
        <time>2020-12-13T07:32:35Z</time>
      </trkpt>
      <trkpt lat="37.49807" lon="27.55068">
        <ele>129.123</ele>
        <time>2020-12-13T07:32:36Z</time>
      </trkpt>
      <trkpt lat="37.49807" lon="27.55068">
        <ele>129.123</ele>
        <time>2020-12-13T07:32:37Z</time>
      </trkpt>
      <trkpt lat="37.49809" lon="27.5507">
        <ele>130.095</ele>
        <time>2020-12-13T07:32:38Z</time>
      </trkpt>
      <trkpt lat="37.49809" lon="27.5507">
        <ele>130.095</ele>
        <time>2020-12-13T07:32:39Z</time>
      </trkpt>
      <trkpt lat="37.49809" lon="27.55072">
        <ele>130.66</ele>
        <time>2020-12-13T07:32:40Z</time>
      </trkpt>
      <trkpt lat="37.49809" lon="27.55072">
        <ele>130.66</ele>
        <time>2020-12-13T07:32:41Z</time>
      </trkpt>
      <trkpt lat="37.4981" lon="27.55075">
        <ele>131.496</ele>
        <time>2020-12-13T07:32:42Z</time>
      </trkpt>
      <trkpt lat="37.4981" lon="27.55075">
        <ele>131.496</ele>
        <time>2020-12-13T07:32:43Z</time>
      </trkpt>
      <trkpt lat="37.4981" lon="27.55075">
        <ele>131.496</ele>
        <time>2020-12-13T07:32:44Z</time>
      </trkpt>
      <trkpt lat="37.49813" lon="27.55078">
        <ele>132.699</ele>
        <time>2020-12-13T07:32:45Z</time>
      </trkpt>
      <trkpt lat="37.49813" lon="27.55078">
        <ele>132.699</ele>
        <time>2020-12-13T07:32:46Z</time>
      </trkpt>
      <trkpt lat="37.49814" lon="27.5508">
        <ele>133.449</ele>
        <time>2020-12-13T07:32:47Z</time>
      </trkpt>
      <trkpt lat="37.49814" lon="27.5508">
        <ele>133.449</ele>
        <time>2020-12-13T07:32:48Z</time>
      </trkpt>
      <trkpt lat="37.49816" lon="27.55082">
        <ele>134.478</ele>
        <time>2020-12-13T07:32:49Z</time>
      </trkpt>
      <trkpt lat="37.49816" lon="27.55082">
        <ele>134.478</ele>
        <time>2020-12-13T07:32:50Z</time>
      </trkpt>
      <trkpt lat="37.49818" lon="27.55083">
        <ele>135.205</ele>
        <time>2020-12-13T07:32:51Z</time>
      </trkpt>
      <trkpt lat="37.49818" lon="27.55083">
        <ele>135.205</ele>
        <time>2020-12-13T07:32:52Z</time>
      </trkpt>
      <trkpt lat="37.49821" lon="27.55085">
        <ele>136.071</ele>
        <time>2020-12-13T07:32:53Z</time>
      </trkpt>
      <trkpt lat="37.49821" lon="27.55085">
        <ele>136.071</ele>
        <time>2020-12-13T07:32:54Z</time>
      </trkpt>
      <trkpt lat="37.49823" lon="27.55087">
        <ele>136.79</ele>
        <time>2020-12-13T07:32:55Z</time>
      </trkpt>
      <trkpt lat="37.49823" lon="27.55087">
        <ele>136.79</ele>
        <time>2020-12-13T07:32:56Z</time>
      </trkpt>
      <trkpt lat="37.49826" lon="27.55089">
        <ele>137.5</ele>
        <time>2020-12-13T07:32:57Z</time>
      </trkpt>
      <trkpt lat="37.49826" lon="27.55089">
        <ele>137.5</ele>
        <time>2020-12-13T07:32:58Z</time>
      </trkpt>
      <trkpt lat="37.49827" lon="27.5509">
        <ele>138.028</ele>
        <time>2020-12-13T07:32:59Z</time>
      </trkpt>
      <trkpt lat="37.49827" lon="27.5509">
        <ele>138.028</ele>
        <time>2020-12-13T07:33:00Z</time>
      </trkpt>
      <trkpt lat="37.49829" lon="27.55091">
        <ele>138.575</ele>
        <time>2020-12-13T07:33:01Z</time>
      </trkpt>
      <trkpt lat="37.49829" lon="27.55091">
        <ele>138.575</ele>
        <time>2020-12-13T07:33:02Z</time>
      </trkpt>
      <trkpt lat="37.49829" lon="27.55091">
        <ele>138.575</ele>
        <time>2020-12-13T07:33:03Z</time>
      </trkpt>
      <trkpt lat="37.49829" lon="27.55091">
        <ele>138.575</ele>
        <time>2020-12-13T07:33:04Z</time>
      </trkpt>
      <trkpt lat="37.49829" lon="27.55091">
        <ele>138.575</ele>
        <time>2020-12-13T07:33:05Z</time>
      </trkpt>
      <trkpt lat="37.49833" lon="27.55083">
        <ele>138.816</ele>
        <time>2020-12-13T07:33:06Z</time>
      </trkpt>
      <trkpt lat="37.49833" lon="27.55083">
        <ele>138.834</ele>
        <time>2020-12-13T07:33:07Z</time>
      </trkpt>
      <trkpt lat="37.49834" lon="27.55082">
        <ele>138.792</ele>
        <time>2020-12-13T07:33:08Z</time>
      </trkpt>
      <trkpt lat="37.49834" lon="27.55081">
        <ele>138.738</ele>
        <time>2020-12-13T07:33:09Z</time>
      </trkpt>
      <trkpt lat="37.49835" lon="27.55081">
        <ele>138.685</ele>
        <time>2020-12-13T07:33:10Z</time>
      </trkpt>
      <trkpt lat="37.49837" lon="27.55078">
        <ele>138.428</ele>
        <time>2020-12-13T07:33:11Z</time>
      </trkpt>
      <trkpt lat="37.49837" lon="27.55078">
        <ele>138.428</ele>
        <time>2020-12-13T07:33:12Z</time>
      </trkpt>
      <trkpt lat="37.49839" lon="27.55077">
        <ele>138.34</ele>
        <time>2020-12-13T07:33:13Z</time>
      </trkpt>
      <trkpt lat="37.49839" lon="27.55077">
        <ele>138.34</ele>
        <time>2020-12-13T07:33:14Z</time>
      </trkpt>
      <trkpt lat="37.49839" lon="27.55077">
        <ele>138.34</ele>
        <time>2020-12-13T07:33:15Z</time>
      </trkpt>
      <trkpt lat="37.49842" lon="27.55074">
        <ele>138.285</ele>
        <time>2020-12-13T07:33:16Z</time>
      </trkpt>
      <trkpt lat="37.49842" lon="27.55074">
        <ele>138.285</ele>
        <time>2020-12-13T07:33:17Z</time>
      </trkpt>
      <trkpt lat="37.49844" lon="27.55073">
        <ele>138.19</ele>
        <time>2020-12-13T07:33:18Z</time>
      </trkpt>
      <trkpt lat="37.49844" lon="27.55073">
        <ele>138.19</ele>
        <time>2020-12-13T07:33:19Z</time>
      </trkpt>
      <trkpt lat="37.49845" lon="27.5507">
        <ele>137.859</ele>
        <time>2020-12-13T07:33:20Z</time>
      </trkpt>
      <trkpt lat="37.49845" lon="27.5507">
        <ele>137.859</ele>
        <time>2020-12-13T07:33:21Z</time>
      </trkpt>
      <trkpt lat="37.49847" lon="27.55068">
        <ele>137.608</ele>
        <time>2020-12-13T07:33:22Z</time>
      </trkpt>
      <trkpt lat="37.49847" lon="27.55068">
        <ele>137.608</ele>
        <time>2020-12-13T07:33:23Z</time>
      </trkpt>
      <trkpt lat="37.49848" lon="27.55065">
        <ele>137.288</ele>
        <time>2020-12-13T07:33:24Z</time>
      </trkpt>
      <trkpt lat="37.49848" lon="27.55065">
        <ele>137.288</ele>
        <time>2020-12-13T07:33:25Z</time>
      </trkpt>
      <trkpt lat="37.4985" lon="27.55062">
        <ele>136.95</ele>
        <time>2020-12-13T07:33:26Z</time>
      </trkpt>
      <trkpt lat="37.4985" lon="27.55062">
        <ele>136.95</ele>
        <time>2020-12-13T07:33:27Z</time>
      </trkpt>
      <trkpt lat="37.49852" lon="27.5506">
        <ele>136.693</ele>
        <time>2020-12-13T07:33:28Z</time>
      </trkpt>
      <trkpt lat="37.49852" lon="27.5506">
        <ele>136.693</ele>
        <time>2020-12-13T07:33:29Z</time>
      </trkpt>
      <trkpt lat="37.49854" lon="27.55058">
        <ele>136.678</ele>
        <time>2020-12-13T07:33:30Z</time>
      </trkpt>
      <trkpt lat="37.49854" lon="27.55058">
        <ele>136.678</ele>
        <time>2020-12-13T07:33:31Z</time>
      </trkpt>
      <trkpt lat="37.49854" lon="27.55058">
        <ele>136.678</ele>
        <time>2020-12-13T07:33:32Z</time>
      </trkpt>
      <trkpt lat="37.49854" lon="27.55058">
        <ele>136.678</ele>
        <time>2020-12-13T07:33:33Z</time>
      </trkpt>
      <trkpt lat="37.49854" lon="27.55058">
        <ele>136.678</ele>
        <time>2020-12-13T07:33:34Z</time>
      </trkpt>
      <trkpt lat="37.49856" lon="27.55058">
        <ele>136.898</ele>
        <time>2020-12-13T07:33:35Z</time>
      </trkpt>
      <trkpt lat="37.49858" lon="27.55058">
        <ele>137.108</ele>
        <time>2020-12-13T07:33:36Z</time>
      </trkpt>
      <trkpt lat="37.4986" lon="27.55058">
        <ele>137.328</ele>
        <time>2020-12-13T07:33:37Z</time>
      </trkpt>
      <trkpt lat="37.49863" lon="27.55058">
        <ele>137.291</ele>
        <time>2020-12-13T07:33:38Z</time>
      </trkpt>
      <trkpt lat="37.49865" lon="27.55058">
        <ele>137.119</ele>
        <time>2020-12-13T07:33:39Z</time>
      </trkpt>
      <trkpt lat="37.49867" lon="27.55058">
        <ele>136.955</ele>
        <time>2020-12-13T07:33:40Z</time>
      </trkpt>
      <trkpt lat="37.49869" lon="27.55057">
        <ele>136.783</ele>
        <time>2020-12-13T07:33:41Z</time>
      </trkpt>
      <trkpt lat="37.49871" lon="27.55058">
        <ele>136.772</ele>
        <time>2020-12-13T07:33:42Z</time>
      </trkpt>
      <trkpt lat="37.49873" lon="27.55059">
        <ele>136.772</ele>
        <time>2020-12-13T07:33:43Z</time>
      </trkpt>
      <trkpt lat="37.49875" lon="27.5506">
        <ele>136.853</ele>
        <time>2020-12-13T07:33:44Z</time>
      </trkpt>
      <trkpt lat="37.49876" lon="27.55061">
        <ele>137.093</ele>
        <time>2020-12-13T07:33:45Z</time>
      </trkpt>
      <trkpt lat="37.49876" lon="27.55061">
        <ele>137.093</ele>
        <time>2020-12-13T07:33:46Z</time>
      </trkpt>
      <trkpt lat="37.49878" lon="27.55065">
        <ele>137.725</ele>
        <time>2020-12-13T07:33:47Z</time>
      </trkpt>
      <trkpt lat="37.49878" lon="27.55065">
        <ele>137.725</ele>
        <time>2020-12-13T07:33:48Z</time>
      </trkpt>
      <trkpt lat="37.49879" lon="27.55069">
        <ele>138.398</ele>
        <time>2020-12-13T07:33:49Z</time>
      </trkpt>
      <trkpt lat="37.49879" lon="27.55069">
        <ele>138.398</ele>
        <time>2020-12-13T07:33:50Z</time>
      </trkpt>
      <trkpt lat="37.4988" lon="27.55071">
        <ele>138.849</ele>
        <time>2020-12-13T07:33:51Z</time>
      </trkpt>
      <trkpt lat="37.49882" lon="27.55073">
        <ele>139.086</ele>
        <time>2020-12-13T07:33:52Z</time>
      </trkpt>
      <trkpt lat="37.49883" lon="27.55075">
        <ele>139.409</ele>
        <time>2020-12-13T07:33:53Z</time>
      </trkpt>
      <trkpt lat="37.49885" lon="27.55077">
        <ele>139.743</ele>
        <time>2020-12-13T07:33:54Z</time>
      </trkpt>
      <trkpt lat="37.49886" lon="27.55078">
        <ele>140.009</ele>
        <time>2020-12-13T07:33:55Z</time>
      </trkpt>
      <trkpt lat="37.49886" lon="27.55078">
        <ele>140.009</ele>
        <time>2020-12-13T07:33:56Z</time>
      </trkpt>
      <trkpt lat="37.4989" lon="27.55079">
        <ele>140.029</ele>
        <time>2020-12-13T07:33:57Z</time>
      </trkpt>
      <trkpt lat="37.49892" lon="27.5508">
        <ele>140.132</ele>
        <time>2020-12-13T07:33:58Z</time>
      </trkpt>
      <trkpt lat="37.49894" lon="27.55082">
        <ele>140.492</ele>
        <time>2020-12-13T07:33:59Z</time>
      </trkpt>
      <trkpt lat="37.49895" lon="27.55084">
        <ele>140.95</ele>
        <time>2020-12-13T07:34:00Z</time>
      </trkpt>
      <trkpt lat="37.49896" lon="27.55087">
        <ele>141.322</ele>
        <time>2020-12-13T07:34:01Z</time>
      </trkpt>
      <trkpt lat="37.49896" lon="27.55087">
        <ele>141.322</ele>
        <time>2020-12-13T07:34:02Z</time>
      </trkpt>
      <trkpt lat="37.49898" lon="27.5509">
        <ele>141.853</ele>
        <time>2020-12-13T07:34:03Z</time>
      </trkpt>
      <trkpt lat="37.49898" lon="27.5509">
        <ele>141.853</ele>
        <time>2020-12-13T07:34:04Z</time>
      </trkpt>
      <trkpt lat="37.49899" lon="27.55093">
        <ele>142.34</ele>
        <time>2020-12-13T07:34:05Z</time>
      </trkpt>
      <trkpt lat="37.49899" lon="27.55093">
        <ele>142.34</ele>
        <time>2020-12-13T07:34:06Z</time>
      </trkpt>
      <trkpt lat="37.49901" lon="27.55096">
        <ele>142.822</ele>
        <time>2020-12-13T07:34:07Z</time>
      </trkpt>
      <trkpt lat="37.49901" lon="27.55096">
        <ele>142.822</ele>
        <time>2020-12-13T07:34:08Z</time>
      </trkpt>
      <trkpt lat="37.49903" lon="27.55098">
        <ele>143.207</ele>
        <time>2020-12-13T07:34:09Z</time>
      </trkpt>
      <trkpt lat="37.49903" lon="27.55098">
        <ele>143.207</ele>
        <time>2020-12-13T07:34:10Z</time>
      </trkpt>
      <trkpt lat="37.49905" lon="27.55101">
        <ele>143.525</ele>
        <time>2020-12-13T07:34:11Z</time>
      </trkpt>
      <trkpt lat="37.49905" lon="27.55101">
        <ele>143.525</ele>
        <time>2020-12-13T07:34:12Z</time>
      </trkpt>
      <trkpt lat="37.49905" lon="27.55103">
        <ele>143.898</ele>
        <time>2020-12-13T07:34:13Z</time>
      </trkpt>
      <trkpt lat="37.49905" lon="27.55103">
        <ele>143.898</ele>
        <time>2020-12-13T07:34:14Z</time>
      </trkpt>
      <trkpt lat="37.49906" lon="27.55105">
        <ele>144.259</ele>
        <time>2020-12-13T07:34:15Z</time>
      </trkpt>
      <trkpt lat="37.49906" lon="27.55105">
        <ele>144.259</ele>
        <time>2020-12-13T07:34:16Z</time>
      </trkpt>
      <trkpt lat="37.49906" lon="27.55105">
        <ele>144.259</ele>
        <time>2020-12-13T07:34:17Z</time>
      </trkpt>
      <trkpt lat="37.49907" lon="27.55107">
        <ele>144.647</ele>
        <time>2020-12-13T07:34:18Z</time>
      </trkpt>
      <trkpt lat="37.49907" lon="27.55107">
        <ele>144.647</ele>
        <time>2020-12-13T07:34:19Z</time>
      </trkpt>
      <trkpt lat="37.49907" lon="27.55107">
        <ele>144.647</ele>
        <time>2020-12-13T07:34:20Z</time>
      </trkpt>
      <trkpt lat="37.49909" lon="27.55109">
        <ele>144.838</ele>
        <time>2020-12-13T07:34:21Z</time>
      </trkpt>
      <trkpt lat="37.49909" lon="27.55109">
        <ele>144.838</ele>
        <time>2020-12-13T07:34:22Z</time>
      </trkpt>
      <trkpt lat="37.49912" lon="27.5511">
        <ele>144.964</ele>
        <time>2020-12-13T07:34:23Z</time>
      </trkpt>
      <trkpt lat="37.49912" lon="27.5511">
        <ele>144.964</ele>
        <time>2020-12-13T07:34:24Z</time>
      </trkpt>
      <trkpt lat="37.49912" lon="27.5511">
        <ele>144.964</ele>
        <time>2020-12-13T07:34:25Z</time>
      </trkpt>
      <trkpt lat="37.49912" lon="27.5511">
        <ele>144.964</ele>
        <time>2020-12-13T07:34:26Z</time>
      </trkpt>
      <trkpt lat="37.49912" lon="27.5511">
        <ele>144.964</ele>
        <time>2020-12-13T07:34:27Z</time>
      </trkpt>
      <trkpt lat="37.49913" lon="27.55111">
        <ele>145.127</ele>
        <time>2020-12-13T07:34:28Z</time>
      </trkpt>
      <trkpt lat="37.49915" lon="27.55112">
        <ele>145.22</ele>
        <time>2020-12-13T07:34:29Z</time>
      </trkpt>
      <trkpt lat="37.49916" lon="27.55113">
        <ele>145.342</ele>
        <time>2020-12-13T07:34:30Z</time>
      </trkpt>
      <trkpt lat="37.49918" lon="27.55115">
        <ele>145.497</ele>
        <time>2020-12-13T07:34:31Z</time>
      </trkpt>
      <trkpt lat="37.49919" lon="27.55116">
        <ele>145.659</ele>
        <time>2020-12-13T07:34:32Z</time>
      </trkpt>
      <trkpt lat="37.49921" lon="27.55117">
        <ele>145.802</ele>
        <time>2020-12-13T07:34:33Z</time>
      </trkpt>
      <trkpt lat="37.49922" lon="27.55118">
        <ele>145.955</ele>
        <time>2020-12-13T07:34:34Z</time>
      </trkpt>
      <trkpt lat="37.49922" lon="27.55118">
        <ele>145.955</ele>
        <time>2020-12-13T07:34:35Z</time>
      </trkpt>
      <trkpt lat="37.49925" lon="27.5512">
        <ele>146.198</ele>
        <time>2020-12-13T07:34:36Z</time>
      </trkpt>
      <trkpt lat="37.49925" lon="27.5512">
        <ele>146.198</ele>
        <time>2020-12-13T07:34:37Z</time>
      </trkpt>
      <trkpt lat="37.49928" lon="27.55122">
        <ele>146.362</ele>
        <time>2020-12-13T07:34:38Z</time>
      </trkpt>
      <trkpt lat="37.49928" lon="27.55122">
        <ele>146.362</ele>
        <time>2020-12-13T07:34:39Z</time>
      </trkpt>
      <trkpt lat="37.4993" lon="27.55123">
        <ele>146.527</ele>
        <time>2020-12-13T07:34:40Z</time>
      </trkpt>
      <trkpt lat="37.4993" lon="27.55123">
        <ele>146.527</ele>
        <time>2020-12-13T07:34:41Z</time>
      </trkpt>
      <trkpt lat="37.49932" lon="27.55125">
        <ele>146.683</ele>
        <time>2020-12-13T07:34:42Z</time>
      </trkpt>
      <trkpt lat="37.49932" lon="27.55125">
        <ele>146.683</ele>
        <time>2020-12-13T07:34:43Z</time>
      </trkpt>
      <trkpt lat="37.49934" lon="27.55126">
        <ele>146.858</ele>
        <time>2020-12-13T07:34:44Z</time>
      </trkpt>
      <trkpt lat="37.49934" lon="27.55126">
        <ele>146.858</ele>
        <time>2020-12-13T07:34:45Z</time>
      </trkpt>
      <trkpt lat="37.49937" lon="27.55128">
        <ele>147.029</ele>
        <time>2020-12-13T07:34:46Z</time>
      </trkpt>
      <trkpt lat="37.49939" lon="27.55129">
        <ele>147.107</ele>
        <time>2020-12-13T07:34:47Z</time>
      </trkpt>
      <trkpt lat="37.49941" lon="27.55131">
        <ele>147.216</ele>
        <time>2020-12-13T07:34:48Z</time>
      </trkpt>
      <trkpt lat="37.49941" lon="27.55131">
        <ele>147.216</ele>
        <time>2020-12-13T07:34:49Z</time>
      </trkpt>
      <trkpt lat="37.49943" lon="27.55133">
        <ele>147.452</ele>
        <time>2020-12-13T07:34:50Z</time>
      </trkpt>
      <trkpt lat="37.49943" lon="27.55133">
        <ele>147.452</ele>
        <time>2020-12-13T07:34:51Z</time>
      </trkpt>
      <trkpt lat="37.49944" lon="27.55136">
        <ele>147.683</ele>
        <time>2020-12-13T07:34:52Z</time>
      </trkpt>
      <trkpt lat="37.49944" lon="27.55136">
        <ele>147.683</ele>
        <time>2020-12-13T07:34:53Z</time>
      </trkpt>
      <trkpt lat="37.49944" lon="27.55136">
        <ele>147.683</ele>
        <time>2020-12-13T07:34:54Z</time>
      </trkpt>
      <trkpt lat="37.49946" lon="27.55137">
        <ele>147.596</ele>
        <time>2020-12-13T07:34:55Z</time>
      </trkpt>
      <trkpt lat="37.49946" lon="27.55137">
        <ele>147.596</ele>
        <time>2020-12-13T07:34:56Z</time>
      </trkpt>
      <trkpt lat="37.49949" lon="27.55139">
        <ele>147.554</ele>
        <time>2020-12-13T07:34:57Z</time>
      </trkpt>
      <trkpt lat="37.49951" lon="27.55141">
        <ele>147.55</ele>
        <time>2020-12-13T07:34:58Z</time>
      </trkpt>
      <trkpt lat="37.49953" lon="27.55143">
        <ele>147.539</ele>
        <time>2020-12-13T07:34:59Z</time>
      </trkpt>
      <trkpt lat="37.49955" lon="27.55143">
        <ele>147.427</ele>
        <time>2020-12-13T07:35:00Z</time>
      </trkpt>
      <trkpt lat="37.49957" lon="27.55145">
        <ele>147.418</ele>
        <time>2020-12-13T07:35:01Z</time>
      </trkpt>
      <trkpt lat="37.49958" lon="27.55147">
        <ele>147.462</ele>
        <time>2020-12-13T07:35:02Z</time>
      </trkpt>
      <trkpt lat="37.4996" lon="27.55148">
        <ele>147.54</ele>
        <time>2020-12-13T07:35:03Z</time>
      </trkpt>
      <trkpt lat="37.4996" lon="27.55148">
        <ele>147.54</ele>
        <time>2020-12-13T07:35:04Z</time>
      </trkpt>
      <trkpt lat="37.49963" lon="27.5515">
        <ele>147.512</ele>
        <time>2020-12-13T07:35:05Z</time>
      </trkpt>
      <trkpt lat="37.49965" lon="27.55152">
        <ele>147.573</ele>
        <time>2020-12-13T07:35:06Z</time>
      </trkpt>
      <trkpt lat="37.49966" lon="27.55154">
        <ele>147.731</ele>
        <time>2020-12-13T07:35:07Z</time>
      </trkpt>
      <trkpt lat="37.49968" lon="27.55157">
        <ele>147.93</ele>
        <time>2020-12-13T07:35:08Z</time>
      </trkpt>
      <trkpt lat="37.49968" lon="27.55157">
        <ele>147.93</ele>
        <time>2020-12-13T07:35:09Z</time>
      </trkpt>
      <trkpt lat="37.49971" lon="27.5516">
        <ele>148.1</ele>
        <time>2020-12-13T07:35:10Z</time>
      </trkpt>
      <trkpt lat="37.49973" lon="27.55161">
        <ele>148.129</ele>
        <time>2020-12-13T07:35:11Z</time>
      </trkpt>
      <trkpt lat="37.49974" lon="27.55161">
        <ele>148.12</ele>
        <time>2020-12-13T07:35:12Z</time>
      </trkpt>
      <trkpt lat="37.49978" lon="27.55162">
        <ele>148.056</ele>
        <time>2020-12-13T07:35:13Z</time>
      </trkpt>
      <trkpt lat="37.49979" lon="27.55162">
        <ele>148.059</ele>
        <time>2020-12-13T07:35:14Z</time>
      </trkpt>
      <trkpt lat="37.4998" lon="27.55163">
        <ele>148.077</ele>
        <time>2020-12-13T07:35:15Z</time>
      </trkpt>
      <trkpt lat="37.49983" lon="27.55164">
        <ele>148.124</ele>
        <time>2020-12-13T07:35:16Z</time>
      </trkpt>
      <trkpt lat="37.49983" lon="27.55164">
        <ele>148.124</ele>
        <time>2020-12-13T07:35:17Z</time>
      </trkpt>
      <trkpt lat="37.49986" lon="27.55166">
        <ele>148.316</ele>
        <time>2020-12-13T07:35:18Z</time>
      </trkpt>
      <trkpt lat="37.49986" lon="27.55166">
        <ele>148.316</ele>
        <time>2020-12-13T07:35:19Z</time>
      </trkpt>
      <trkpt lat="37.49989" lon="27.55168">
        <ele>148.46</ele>
        <time>2020-12-13T07:35:20Z</time>
      </trkpt>
      <trkpt lat="37.49991" lon="27.55169">
        <ele>148.491</ele>
        <time>2020-12-13T07:35:21Z</time>
      </trkpt>
      <trkpt lat="37.49993" lon="27.55169">
        <ele>148.509</ele>
        <time>2020-12-13T07:35:22Z</time>
      </trkpt>
      <trkpt lat="37.49995" lon="27.5517">
        <ele>148.519</ele>
        <time>2020-12-13T07:35:23Z</time>
      </trkpt>
      <trkpt lat="37.49997" lon="27.55171">
        <ele>148.527</ele>
        <time>2020-12-13T07:35:24Z</time>
      </trkpt>
      <trkpt lat="37.49999" lon="27.55171">
        <ele>148.535</ele>
        <time>2020-12-13T07:35:25Z</time>
      </trkpt>
      <trkpt lat="37.50001" lon="27.55172">
        <ele>148.546</ele>
        <time>2020-12-13T07:35:26Z</time>
      </trkpt>
      <trkpt lat="37.50003" lon="27.55173">
        <ele>148.671</ele>
        <time>2020-12-13T07:35:27Z</time>
      </trkpt>
      <trkpt lat="37.50003" lon="27.55173">
        <ele>148.671</ele>
        <time>2020-12-13T07:35:28Z</time>
      </trkpt>
      <trkpt lat="37.50005" lon="27.55175">
        <ele>148.934</ele>
        <time>2020-12-13T07:35:29Z</time>
      </trkpt>
      <trkpt lat="37.50005" lon="27.55175">
        <ele>148.934</ele>
        <time>2020-12-13T07:35:30Z</time>
      </trkpt>
      <trkpt lat="37.50005" lon="27.55175">
        <ele>148.934</ele>
        <time>2020-12-13T07:35:31Z</time>
      </trkpt>
      <trkpt lat="37.50005" lon="27.55175">
        <ele>148.934</ele>
        <time>2020-12-13T07:35:32Z</time>
      </trkpt>
      <trkpt lat="37.50005" lon="27.55175">
        <ele>148.934</ele>
        <time>2020-12-13T07:35:33Z</time>
      </trkpt>
      <trkpt lat="37.50005" lon="27.55177">
        <ele>149.203</ele>
        <time>2020-12-13T07:35:34Z</time>
      </trkpt>
      <trkpt lat="37.50004" lon="27.5518">
        <ele>149.459</ele>
        <time>2020-12-13T07:35:35Z</time>
      </trkpt>
      <trkpt lat="37.50004" lon="27.55182">
        <ele>149.722</ele>
        <time>2020-12-13T07:35:36Z</time>
      </trkpt>
      <trkpt lat="37.50004" lon="27.55184">
        <ele>149.985</ele>
        <time>2020-12-13T07:35:37Z</time>
      </trkpt>
      <trkpt lat="37.50003" lon="27.55187">
        <ele>150.242</ele>
        <time>2020-12-13T07:35:38Z</time>
      </trkpt>
      <trkpt lat="37.50003" lon="27.55189">
        <ele>150.487</ele>
        <time>2020-12-13T07:35:39Z</time>
      </trkpt>
      <trkpt lat="37.50002" lon="27.55191">
        <ele>150.739</ele>
        <time>2020-12-13T07:35:40Z</time>
      </trkpt>
      <trkpt lat="37.50002" lon="27.55191">
        <ele>150.739</ele>
        <time>2020-12-13T07:35:41Z</time>
      </trkpt>
      <trkpt lat="37.50002" lon="27.55191">
        <ele>150.739</ele>
        <time>2020-12-13T07:35:42Z</time>
      </trkpt>
      <trkpt lat="37.50003" lon="27.55206">
        <ele>152.427</ele>
        <time>2020-12-13T07:35:43Z</time>
      </trkpt>
      <trkpt lat="37.50003" lon="27.55207">
        <ele>152.552</ele>
        <time>2020-12-13T07:35:44Z</time>
      </trkpt>
      <trkpt lat="37.50003" lon="27.55209">
        <ele>152.681</ele>
        <time>2020-12-13T07:35:45Z</time>
      </trkpt>
      <trkpt lat="37.50003" lon="27.5521">
        <ele>152.804</ele>
        <time>2020-12-13T07:35:46Z</time>
      </trkpt>
      <trkpt lat="37.50003" lon="27.55211">
        <ele>152.932</ele>
        <time>2020-12-13T07:35:47Z</time>
      </trkpt>
      <trkpt lat="37.50002" lon="27.55219">
        <ele>153.717</ele>
        <time>2020-12-13T07:35:48Z</time>
      </trkpt>
      <trkpt lat="37.50001" lon="27.5522">
        <ele>153.901</ele>
        <time>2020-12-13T07:35:49Z</time>
      </trkpt>
      <trkpt lat="37.50001" lon="27.55222">
        <ele>154.066</ele>
        <time>2020-12-13T07:35:50Z</time>
      </trkpt>
      <trkpt lat="37.50001" lon="27.55224">
        <ele>154.244</ele>
        <time>2020-12-13T07:35:51Z</time>
      </trkpt>
      <trkpt lat="37.50001" lon="27.55226">
        <ele>154.405</ele>
        <time>2020-12-13T07:35:52Z</time>
      </trkpt>
      <trkpt lat="37.50001" lon="27.55226">
        <ele>154.463</ele>
        <time>2020-12-13T07:35:53Z</time>
      </trkpt>
      <trkpt lat="37.5" lon="27.55227">
        <ele>154.514</ele>
        <time>2020-12-13T07:35:54Z</time>
      </trkpt>
      <trkpt lat="37.5" lon="27.55227">
        <ele>154.573</ele>
        <time>2020-12-13T07:35:55Z</time>
      </trkpt>
      <trkpt lat="37.5" lon="27.55228">
        <ele>154.624</ele>
        <time>2020-12-13T07:35:56Z</time>
      </trkpt>
      <trkpt lat="37.5" lon="27.55228">
        <ele>154.624</ele>
        <time>2020-12-13T07:35:57Z</time>
      </trkpt>
      <trkpt lat="37.5" lon="27.55228">
        <ele>154.624</ele>
        <time>2020-12-13T07:35:58Z</time>
      </trkpt>
      <trkpt lat="37.5" lon="27.55228">
        <ele>154.624</ele>
        <time>2020-12-13T07:35:59Z</time>
      </trkpt>
      <trkpt lat="37.49995" lon="27.55232">
        <ele>154.879</ele>
        <time>2020-12-13T07:36:00Z</time>
      </trkpt>
      <trkpt lat="37.49995" lon="27.55232">
        <ele>154.879</ele>
        <time>2020-12-13T07:36:01Z</time>
      </trkpt>
      <trkpt lat="37.49995" lon="27.55232">
        <ele>154.879</ele>
        <time>2020-12-13T07:36:02Z</time>
      </trkpt>
      <trkpt lat="37.49995" lon="27.55232">
        <ele>154.879</ele>
        <time>2020-12-13T07:36:03Z</time>
      </trkpt>
      <trkpt lat="37.49995" lon="27.55232">
        <ele>154.879</ele>
        <time>2020-12-13T07:36:04Z</time>
      </trkpt>
      <trkpt lat="37.49992" lon="27.55233">
        <ele>154.894</ele>
        <time>2020-12-13T07:36:05Z</time>
      </trkpt>
      <trkpt lat="37.49989" lon="27.55234">
        <ele>154.901</ele>
        <time>2020-12-13T07:36:06Z</time>
      </trkpt>
      <trkpt lat="37.49987" lon="27.55235">
        <ele>154.915</ele>
        <time>2020-12-13T07:36:07Z</time>
      </trkpt>
      <trkpt lat="37.49984" lon="27.55236">
        <ele>154.93</ele>
        <time>2020-12-13T07:36:08Z</time>
      </trkpt>
      <trkpt lat="37.49981" lon="27.55237">
        <ele>154.937</ele>
        <time>2020-12-13T07:36:09Z</time>
      </trkpt>
      <trkpt lat="37.49978" lon="27.55238">
        <ele>154.952</ele>
        <time>2020-12-13T07:36:10Z</time>
      </trkpt>
      <trkpt lat="37.49977" lon="27.55239">
        <ele>154.977</ele>
        <time>2020-12-13T07:36:11Z</time>
      </trkpt>
      <trkpt lat="37.49975" lon="27.55243">
        <ele>155.319</ele>
        <time>2020-12-13T07:36:12Z</time>
      </trkpt>
      <trkpt lat="37.49973" lon="27.55245">
        <ele>155.456</ele>
        <time>2020-12-13T07:36:13Z</time>
      </trkpt>
      <trkpt lat="37.49973" lon="27.55245">
        <ele>155.456</ele>
        <time>2020-12-13T07:36:14Z</time>
      </trkpt>
      <trkpt lat="37.49973" lon="27.55245">
        <ele>155.456</ele>
        <time>2020-12-13T07:36:15Z</time>
      </trkpt>
      <trkpt lat="37.49973" lon="27.55245">
        <ele>155.456</ele>
        <time>2020-12-13T07:36:16Z</time>
      </trkpt>
      <trkpt lat="37.49973" lon="27.55245">
        <ele>155.456</ele>
        <time>2020-12-13T07:36:17Z</time>
      </trkpt>
      <trkpt lat="37.49973" lon="27.55247">
        <ele>155.697</ele>
        <time>2020-12-13T07:36:18Z</time>
      </trkpt>
      <trkpt lat="37.49973" lon="27.55249">
        <ele>155.935</ele>
        <time>2020-12-13T07:36:19Z</time>
      </trkpt>
      <trkpt lat="37.49974" lon="27.55251">
        <ele>156.132</ele>
        <time>2020-12-13T07:36:20Z</time>
      </trkpt>
      <trkpt lat="37.49974" lon="27.55253">
        <ele>156.291</ele>
        <time>2020-12-13T07:36:21Z</time>
      </trkpt>
      <trkpt lat="37.49974" lon="27.55256">
        <ele>156.46</ele>
        <time>2020-12-13T07:36:22Z</time>
      </trkpt>
      <trkpt lat="37.49974" lon="27.55258">
        <ele>156.618</ele>
        <time>2020-12-13T07:36:23Z</time>
      </trkpt>
      <trkpt lat="37.49974" lon="27.5526">
        <ele>156.78</ele>
        <time>2020-12-13T07:36:24Z</time>
      </trkpt>
      <trkpt lat="37.49974" lon="27.55262">
        <ele>156.939</ele>
        <time>2020-12-13T07:36:25Z</time>
      </trkpt>
      <trkpt lat="37.49976" lon="27.55268">
        <ele>157.453</ele>
        <time>2020-12-13T07:36:26Z</time>
      </trkpt>
      <trkpt lat="37.49976" lon="27.5527">
        <ele>157.572</ele>
        <time>2020-12-13T07:36:27Z</time>
      </trkpt>
      <trkpt lat="37.49977" lon="27.55271">
        <ele>157.702</ele>
        <time>2020-12-13T07:36:28Z</time>
      </trkpt>
      <trkpt lat="37.49977" lon="27.55273">
        <ele>157.821</ele>
        <time>2020-12-13T07:36:29Z</time>
      </trkpt>
      <trkpt lat="37.49978" lon="27.55274">
        <ele>157.943</ele>
        <time>2020-12-13T07:36:30Z</time>
      </trkpt>
      <trkpt lat="37.49978" lon="27.55274">
        <ele>157.943</ele>
        <time>2020-12-13T07:36:31Z</time>
      </trkpt>
      <trkpt lat="37.4998" lon="27.55277">
        <ele>158.199</ele>
        <time>2020-12-13T07:36:32Z</time>
      </trkpt>
      <trkpt lat="37.4998" lon="27.55277">
        <ele>158.199</ele>
        <time>2020-12-13T07:36:33Z</time>
      </trkpt>
      <trkpt lat="37.49982" lon="27.5528">
        <ele>158.38</ele>
        <time>2020-12-13T07:36:34Z</time>
      </trkpt>
      <trkpt lat="37.49982" lon="27.5528">
        <ele>158.38</ele>
        <time>2020-12-13T07:36:35Z</time>
      </trkpt>
      <trkpt lat="37.49982" lon="27.55283">
        <ele>158.484</ele>
        <time>2020-12-13T07:36:36Z</time>
      </trkpt>
      <trkpt lat="37.49982" lon="27.55283">
        <ele>158.484</ele>
        <time>2020-12-13T07:36:37Z</time>
      </trkpt>
      <trkpt lat="37.49982" lon="27.55286">
        <ele>158.581</ele>
        <time>2020-12-13T07:36:38Z</time>
      </trkpt>
      <trkpt lat="37.49982" lon="27.55286">
        <ele>158.581</ele>
        <time>2020-12-13T07:36:39Z</time>
      </trkpt>
      <trkpt lat="37.49983" lon="27.55289">
        <ele>158.699</ele>
        <time>2020-12-13T07:36:40Z</time>
      </trkpt>
      <trkpt lat="37.49983" lon="27.55289">
        <ele>158.699</ele>
        <time>2020-12-13T07:36:41Z</time>
      </trkpt>
      <trkpt lat="37.49985" lon="27.55291">
        <ele>158.875</ele>
        <time>2020-12-13T07:36:42Z</time>
      </trkpt>
      <trkpt lat="37.49985" lon="27.55291">
        <ele>158.875</ele>
        <time>2020-12-13T07:36:43Z</time>
      </trkpt>
      <trkpt lat="37.49984" lon="27.55294">
        <ele>158.903</ele>
        <time>2020-12-13T07:36:44Z</time>
      </trkpt>
      <trkpt lat="37.49984" lon="27.55294">
        <ele>158.903</ele>
        <time>2020-12-13T07:36:45Z</time>
      </trkpt>
      <trkpt lat="37.49984" lon="27.55297">
        <ele>159.033</ele>
        <time>2020-12-13T07:36:46Z</time>
      </trkpt>
      <trkpt lat="37.49984" lon="27.55297">
        <ele>159.033</ele>
        <time>2020-12-13T07:36:47Z</time>
      </trkpt>
      <trkpt lat="37.49984" lon="27.55297">
        <ele>159.033</ele>
        <time>2020-12-13T07:36:48Z</time>
      </trkpt>
      <trkpt lat="37.49984" lon="27.55297">
        <ele>159.033</ele>
        <time>2020-12-13T07:36:49Z</time>
      </trkpt>
      <trkpt lat="37.49984" lon="27.55297">
        <ele>159.033</ele>
        <time>2020-12-13T07:36:50Z</time>
      </trkpt>
      <trkpt lat="37.4999" lon="27.55302">
        <ele>159.693</ele>
        <time>2020-12-13T07:36:51Z</time>
      </trkpt>
      <trkpt lat="37.4999" lon="27.55302">
        <ele>159.747</ele>
        <time>2020-12-13T07:36:52Z</time>
      </trkpt>
      <trkpt lat="37.4999" lon="27.55302">
        <ele>159.795</ele>
        <time>2020-12-13T07:36:53Z</time>
      </trkpt>
      <trkpt lat="37.49991" lon="27.55302">
        <ele>159.85</ele>
        <time>2020-12-13T07:36:54Z</time>
      </trkpt>
      <trkpt lat="37.49991" lon="27.55302">
        <ele>159.905</ele>
        <time>2020-12-13T07:36:55Z</time>
      </trkpt>
      <trkpt lat="37.49996" lon="27.55304">
        <ele>160.39</ele>
        <time>2020-12-13T07:36:56Z</time>
      </trkpt>
      <trkpt lat="37.49996" lon="27.55304">
        <ele>160.39</ele>
        <time>2020-12-13T07:36:57Z</time>
      </trkpt>
      <trkpt lat="37.49998" lon="27.55303">
        <ele>160.599</ele>
        <time>2020-12-13T07:36:58Z</time>
      </trkpt>
      <trkpt lat="37.49998" lon="27.55303">
        <ele>160.671</ele>
        <time>2020-12-13T07:36:59Z</time>
      </trkpt>
      <trkpt lat="37.49999" lon="27.55304">
        <ele>160.753</ele>
        <time>2020-12-13T07:37:00Z</time>
      </trkpt>
      <trkpt lat="37.49999" lon="27.55304">
        <ele>160.753</ele>
        <time>2020-12-13T07:37:01Z</time>
      </trkpt>
      <trkpt lat="37.5" lon="27.55306">
        <ele>161.027</ele>
        <time>2020-12-13T07:37:02Z</time>
      </trkpt>
      <trkpt lat="37.5" lon="27.55306">
        <ele>161.027</ele>
        <time>2020-12-13T07:37:03Z</time>
      </trkpt>
      <trkpt lat="37.5" lon="27.55306">
        <ele>161.027</ele>
        <time>2020-12-13T07:37:04Z</time>
      </trkpt>
      <trkpt lat="37.50001" lon="27.55309">
        <ele>161.018</ele>
        <time>2020-12-13T07:37:05Z</time>
      </trkpt>
      <trkpt lat="37.50001" lon="27.55309">
        <ele>161.018</ele>
        <time>2020-12-13T07:37:06Z</time>
      </trkpt>
      <trkpt lat="37.50001" lon="27.55309">
        <ele>161.018</ele>
        <time>2020-12-13T07:37:07Z</time>
      </trkpt>
      <trkpt lat="37.50001" lon="27.55309">
        <ele>161.018</ele>
        <time>2020-12-13T07:37:08Z</time>
      </trkpt>
      <trkpt lat="37.50001" lon="27.55312">
        <ele>160.871</ele>
        <time>2020-12-13T07:37:09Z</time>
      </trkpt>
      <trkpt lat="37.50001" lon="27.55312">
        <ele>160.871</ele>
        <time>2020-12-13T07:37:10Z</time>
      </trkpt>
      <trkpt lat="37.50001" lon="27.55312">
        <ele>160.871</ele>
        <time>2020-12-13T07:37:11Z</time>
      </trkpt>
      <trkpt lat="37.50001" lon="27.55312">
        <ele>160.871</ele>
        <time>2020-12-13T07:37:12Z</time>
      </trkpt>
      <trkpt lat="37.49999" lon="27.55314">
        <ele>160.648</ele>
        <time>2020-12-13T07:37:13Z</time>
      </trkpt>
      <trkpt lat="37.49999" lon="27.55314">
        <ele>160.648</ele>
        <time>2020-12-13T07:37:14Z</time>
      </trkpt>
      <trkpt lat="37.49999" lon="27.55314">
        <ele>160.648</ele>
        <time>2020-12-13T07:37:15Z</time>
      </trkpt>
      <trkpt lat="37.49999" lon="27.55314">
        <ele>160.648</ele>
        <time>2020-12-13T07:37:16Z</time>
      </trkpt>
      <trkpt lat="37.49999" lon="27.55314">
        <ele>160.648</ele>
        <time>2020-12-13T07:37:17Z</time>
      </trkpt>
      <trkpt lat="37.49999" lon="27.55314">
        <ele>160.648</ele>
        <time>2020-12-13T07:37:18Z</time>
      </trkpt>
      <trkpt lat="37.49999" lon="27.55314">
        <ele>160.648</ele>
        <time>2020-12-13T07:37:19Z</time>
      </trkpt>
      <trkpt lat="37.50001" lon="27.55316">
        <ele>160.712</ele>
        <time>2020-12-13T07:37:20Z</time>
      </trkpt>
      <trkpt lat="37.50001" lon="27.55316">
        <ele>160.712</ele>
        <time>2020-12-13T07:37:21Z</time>
      </trkpt>
      <trkpt lat="37.50003" lon="27.55315">
        <ele>160.993</ele>
        <time>2020-12-13T07:37:22Z</time>
      </trkpt>
      <trkpt lat="37.50003" lon="27.55315">
        <ele>160.993</ele>
        <time>2020-12-13T07:37:23Z</time>
      </trkpt>
      <trkpt lat="37.50003" lon="27.55315">
        <ele>160.993</ele>
        <time>2020-12-13T07:37:24Z</time>
      </trkpt>
      <trkpt lat="37.50005" lon="27.55317">
        <ele>161.318</ele>
        <time>2020-12-13T07:37:25Z</time>
      </trkpt>
      <trkpt lat="37.50005" lon="27.55317">
        <ele>161.318</ele>
        <time>2020-12-13T07:37:26Z</time>
      </trkpt>
      <trkpt lat="37.50004" lon="27.55321">
        <ele>161.088</ele>
        <time>2020-12-13T07:37:27Z</time>
      </trkpt>
      <trkpt lat="37.50003" lon="27.55323">
        <ele>160.883</ele>
        <time>2020-12-13T07:37:28Z</time>
      </trkpt>
      <trkpt lat="37.50002" lon="27.55325">
        <ele>160.645</ele>
        <time>2020-12-13T07:37:29Z</time>
      </trkpt>
      <trkpt lat="37.50001" lon="27.55327">
        <ele>160.395</ele>
        <time>2020-12-13T07:37:30Z</time>
      </trkpt>
      <trkpt lat="37.5" lon="27.55329">
        <ele>160.151</ele>
        <time>2020-12-13T07:37:31Z</time>
      </trkpt>
      <trkpt lat="37.49999" lon="27.55331">
        <ele>160.035</ele>
        <time>2020-12-13T07:37:32Z</time>
      </trkpt>
      <trkpt lat="37.5" lon="27.55334">
        <ele>159.964</ele>
        <time>2020-12-13T07:37:33Z</time>
      </trkpt>
      <trkpt lat="37.5" lon="27.55336">
        <ele>160.019</ele>
        <time>2020-12-13T07:37:34Z</time>
      </trkpt>
      <trkpt lat="37.50001" lon="27.55338">
        <ele>160.144</ele>
        <time>2020-12-13T07:37:35Z</time>
      </trkpt>
      <trkpt lat="37.50001" lon="27.55338">
        <ele>160.144</ele>
        <time>2020-12-13T07:37:36Z</time>
      </trkpt>
      <trkpt lat="37.50003" lon="27.55342">
        <ele>160.593</ele>
        <time>2020-12-13T07:37:37Z</time>
      </trkpt>
      <trkpt lat="37.50005" lon="27.55344">
        <ele>160.954</ele>
        <time>2020-12-13T07:37:38Z</time>
      </trkpt>
      <trkpt lat="37.50007" lon="27.55345">
        <ele>161.315</ele>
        <time>2020-12-13T07:37:39Z</time>
      </trkpt>
      <trkpt lat="37.50009" lon="27.55347">
        <ele>161.674</ele>
        <time>2020-12-13T07:37:40Z</time>
      </trkpt>
      <trkpt lat="37.50011" lon="27.55349">
        <ele>162.034</ele>
        <time>2020-12-13T07:37:41Z</time>
      </trkpt>
      <trkpt lat="37.50013" lon="27.55351">
        <ele>162.268</ele>
        <time>2020-12-13T07:37:42Z</time>
      </trkpt>
      <trkpt lat="37.50013" lon="27.55351">
        <ele>162.268</ele>
        <time>2020-12-13T07:37:43Z</time>
      </trkpt>
      <trkpt lat="37.50013" lon="27.55351">
        <ele>162.268</ele>
        <time>2020-12-13T07:37:44Z</time>
      </trkpt>
      <trkpt lat="37.50013" lon="27.55351">
        <ele>162.268</ele>
        <time>2020-12-13T07:37:45Z</time>
      </trkpt>
      <trkpt lat="37.50013" lon="27.55351">
        <ele>162.268</ele>
        <time>2020-12-13T07:37:46Z</time>
      </trkpt>
      <trkpt lat="37.50013" lon="27.55352">
        <ele>162.375</ele>
        <time>2020-12-13T07:37:47Z</time>
      </trkpt>
      <trkpt lat="37.50014" lon="27.55354">
        <ele>162.466</ele>
        <time>2020-12-13T07:37:48Z</time>
      </trkpt>
      <trkpt lat="37.50014" lon="27.55355">
        <ele>162.574</ele>
        <time>2020-12-13T07:37:49Z</time>
      </trkpt>
      <trkpt lat="37.50015" lon="27.55356">
        <ele>162.682</ele>
        <time>2020-12-13T07:37:50Z</time>
      </trkpt>
      <trkpt lat="37.50016" lon="27.55358">
        <ele>162.79</ele>
        <time>2020-12-13T07:37:51Z</time>
      </trkpt>
      <trkpt lat="37.50016" lon="27.55359">
        <ele>162.881</ele>
        <time>2020-12-13T07:37:52Z</time>
      </trkpt>
      <trkpt lat="37.50017" lon="27.55361">
        <ele>162.988</ele>
        <time>2020-12-13T07:37:53Z</time>
      </trkpt>
      <trkpt lat="37.50017" lon="27.55364">
        <ele>163.088</ele>
        <time>2020-12-13T07:37:54Z</time>
      </trkpt>
      <trkpt lat="37.50017" lon="27.55364">
        <ele>163.088</ele>
        <time>2020-12-13T07:37:55Z</time>
      </trkpt>
      <trkpt lat="37.50018" lon="27.55367">
        <ele>163.242</ele>
        <time>2020-12-13T07:37:56Z</time>
      </trkpt>
      <trkpt lat="37.50018" lon="27.55367">
        <ele>163.242</ele>
        <time>2020-12-13T07:37:57Z</time>
      </trkpt>
      <trkpt lat="37.50021" lon="27.5537">
        <ele>163.786</ele>
        <time>2020-12-13T07:37:58Z</time>
      </trkpt>
      <trkpt lat="37.50022" lon="27.55372">
        <ele>164.054</ele>
        <time>2020-12-13T07:37:59Z</time>
      </trkpt>
      <trkpt lat="37.50023" lon="27.55374">
        <ele>164.25</ele>
        <time>2020-12-13T07:38:00Z</time>
      </trkpt>
      <trkpt lat="37.50025" lon="27.55376">
        <ele>164.489</ele>
        <time>2020-12-13T07:38:01Z</time>
      </trkpt>
      <trkpt lat="37.50026" lon="27.55378">
        <ele>164.704</ele>
        <time>2020-12-13T07:38:02Z</time>
      </trkpt>
      <trkpt lat="37.50027" lon="27.5538">
        <ele>164.895</ele>
        <time>2020-12-13T07:38:03Z</time>
      </trkpt>
      <trkpt lat="37.50027" lon="27.5538">
        <ele>164.895</ele>
        <time>2020-12-13T07:38:04Z</time>
      </trkpt>
      <trkpt lat="37.50027" lon="27.5538">
        <ele>164.895</ele>
        <time>2020-12-13T07:38:05Z</time>
      </trkpt>
      <trkpt lat="37.50029" lon="27.55382">
        <ele>165.059</ele>
        <time>2020-12-13T07:38:06Z</time>
      </trkpt>
      <trkpt lat="37.50029" lon="27.55382">
        <ele>165.059</ele>
        <time>2020-12-13T07:38:07Z</time>
      </trkpt>
      <trkpt lat="37.5003" lon="27.55385">
        <ele>165.176</ele>
        <time>2020-12-13T07:38:08Z</time>
      </trkpt>
      <trkpt lat="37.5003" lon="27.55385">
        <ele>165.176</ele>
        <time>2020-12-13T07:38:09Z</time>
      </trkpt>
      <trkpt lat="37.50033" lon="27.55387">
        <ele>165.331</ele>
        <time>2020-12-13T07:38:10Z</time>
      </trkpt>
      <trkpt lat="37.50033" lon="27.55387">
        <ele>165.331</ele>
        <time>2020-12-13T07:38:11Z</time>
      </trkpt>
      <trkpt lat="37.50034" lon="27.5539">
        <ele>165.456</ele>
        <time>2020-12-13T07:38:12Z</time>
      </trkpt>
      <trkpt lat="37.50034" lon="27.5539">
        <ele>165.456</ele>
        <time>2020-12-13T07:38:13Z</time>
      </trkpt>
      <trkpt lat="37.50034" lon="27.5539">
        <ele>165.456</ele>
        <time>2020-12-13T07:38:14Z</time>
      </trkpt>
      <trkpt lat="37.50034" lon="27.55393">
        <ele>165.694</ele>
        <time>2020-12-13T07:38:15Z</time>
      </trkpt>
      <trkpt lat="37.50034" lon="27.55393">
        <ele>165.694</ele>
        <time>2020-12-13T07:38:16Z</time>
      </trkpt>
      <trkpt lat="37.50033" lon="27.55395">
        <ele>165.802</ele>
        <time>2020-12-13T07:38:17Z</time>
      </trkpt>
      <trkpt lat="37.50033" lon="27.55395">
        <ele>165.802</ele>
        <time>2020-12-13T07:38:18Z</time>
      </trkpt>
      <trkpt lat="37.50031" lon="27.55397">
        <ele>165.773</ele>
        <time>2020-12-13T07:38:19Z</time>
      </trkpt>
      <trkpt lat="37.50031" lon="27.55397">
        <ele>165.773</ele>
        <time>2020-12-13T07:38:20Z</time>
      </trkpt>
      <trkpt lat="37.5003" lon="27.55399">
        <ele>165.881</ele>
        <time>2020-12-13T07:38:21Z</time>
      </trkpt>
      <trkpt lat="37.5003" lon="27.55399">
        <ele>165.881</ele>
        <time>2020-12-13T07:38:22Z</time>
      </trkpt>
      <trkpt lat="37.50027" lon="27.554">
        <ele>165.767</ele>
        <time>2020-12-13T07:38:23Z</time>
      </trkpt>
      <trkpt lat="37.50027" lon="27.554">
        <ele>165.767</ele>
        <time>2020-12-13T07:38:24Z</time>
      </trkpt>
      <trkpt lat="37.50027" lon="27.554">
        <ele>165.767</ele>
        <time>2020-12-13T07:38:25Z</time>
      </trkpt>
      <trkpt lat="37.50027" lon="27.55403">
        <ele>165.839</ele>
        <time>2020-12-13T07:38:26Z</time>
      </trkpt>
      <trkpt lat="37.50027" lon="27.55403">
        <ele>165.839</ele>
        <time>2020-12-13T07:38:27Z</time>
      </trkpt>
      <trkpt lat="37.50027" lon="27.55403">
        <ele>165.839</ele>
        <time>2020-12-13T07:38:28Z</time>
      </trkpt>
      <trkpt lat="37.50029" lon="27.55402">
        <ele>166.082</ele>
        <time>2020-12-13T07:38:29Z</time>
      </trkpt>
      <trkpt lat="37.50029" lon="27.55402">
        <ele>166.082</ele>
        <time>2020-12-13T07:38:30Z</time>
      </trkpt>
      <trkpt lat="37.50031" lon="27.55402">
        <ele>166.198</ele>
        <time>2020-12-13T07:38:31Z</time>
      </trkpt>
      <trkpt lat="37.50031" lon="27.55402">
        <ele>166.198</ele>
        <time>2020-12-13T07:38:32Z</time>
      </trkpt>
      <trkpt lat="37.50034" lon="27.55402">
        <ele>166.37</ele>
        <time>2020-12-13T07:38:33Z</time>
      </trkpt>
      <trkpt lat="37.50034" lon="27.55402">
        <ele>166.37</ele>
        <time>2020-12-13T07:38:34Z</time>
      </trkpt>
      <trkpt lat="37.50036" lon="27.55403">
        <ele>166.622</ele>
        <time>2020-12-13T07:38:35Z</time>
      </trkpt>
      <trkpt lat="37.50036" lon="27.55403">
        <ele>166.622</ele>
        <time>2020-12-13T07:38:36Z</time>
      </trkpt>
      <trkpt lat="37.50036" lon="27.55406">
        <ele>166.831</ele>
        <time>2020-12-13T07:38:37Z</time>
      </trkpt>
      <trkpt lat="37.50036" lon="27.55406">
        <ele>166.831</ele>
        <time>2020-12-13T07:38:38Z</time>
      </trkpt>
      <trkpt lat="37.50034" lon="27.55408">
        <ele>166.853</ele>
        <time>2020-12-13T07:38:39Z</time>
      </trkpt>
      <trkpt lat="37.50034" lon="27.55408">
        <ele>166.853</ele>
        <time>2020-12-13T07:38:40Z</time>
      </trkpt>
      <trkpt lat="37.50032" lon="27.5541">
        <ele>166.881</ele>
        <time>2020-12-13T07:38:41Z</time>
      </trkpt>
      <trkpt lat="37.50032" lon="27.5541">
        <ele>166.881</ele>
        <time>2020-12-13T07:38:42Z</time>
      </trkpt>
      <trkpt lat="37.50031" lon="27.55413">
        <ele>166.917</ele>
        <time>2020-12-13T07:38:43Z</time>
      </trkpt>
      <trkpt lat="37.50031" lon="27.55413">
        <ele>166.917</ele>
        <time>2020-12-13T07:38:44Z</time>
      </trkpt>
      <trkpt lat="37.50031" lon="27.55413">
        <ele>166.917</ele>
        <time>2020-12-13T07:38:45Z</time>
      </trkpt>
      <trkpt lat="37.50031" lon="27.55415">
        <ele>167.119</ele>
        <time>2020-12-13T07:38:46Z</time>
      </trkpt>
      <trkpt lat="37.50031" lon="27.55415">
        <ele>167.119</ele>
        <time>2020-12-13T07:38:47Z</time>
      </trkpt>
      <trkpt lat="37.50031" lon="27.55415">
        <ele>167.119</ele>
        <time>2020-12-13T07:38:48Z</time>
      </trkpt>
      <trkpt lat="37.50031" lon="27.55415">
        <ele>167.119</ele>
        <time>2020-12-13T07:38:49Z</time>
      </trkpt>
      <trkpt lat="37.50031" lon="27.55415">
        <ele>167.119</ele>
        <time>2020-12-13T07:38:50Z</time>
      </trkpt>
      <trkpt lat="37.50032" lon="27.55417">
        <ele>167.353</ele>
        <time>2020-12-13T07:38:51Z</time>
      </trkpt>
      <trkpt lat="37.50032" lon="27.55419">
        <ele>167.718</ele>
        <time>2020-12-13T07:38:52Z</time>
      </trkpt>
      <trkpt lat="37.50033" lon="27.55421">
        <ele>168.094</ele>
        <time>2020-12-13T07:38:53Z</time>
      </trkpt>
      <trkpt lat="37.50033" lon="27.55423">
        <ele>168.504</ele>
        <time>2020-12-13T07:38:54Z</time>
      </trkpt>
      <trkpt lat="37.50034" lon="27.55425">
        <ele>168.9</ele>
        <time>2020-12-13T07:38:55Z</time>
      </trkpt>
      <trkpt lat="37.50035" lon="27.55427">
        <ele>169.305</ele>
        <time>2020-12-13T07:38:56Z</time>
      </trkpt>
      <trkpt lat="37.50035" lon="27.55429">
        <ele>169.718</ele>
        <time>2020-12-13T07:38:57Z</time>
      </trkpt>
      <trkpt lat="37.50035" lon="27.55429">
        <ele>169.718</ele>
        <time>2020-12-13T07:38:58Z</time>
      </trkpt>
      <trkpt lat="37.50035" lon="27.55432">
        <ele>170.171</ele>
        <time>2020-12-13T07:38:59Z</time>
      </trkpt>
      <trkpt lat="37.50035" lon="27.55432">
        <ele>170.171</ele>
        <time>2020-12-13T07:39:00Z</time>
      </trkpt>
      <trkpt lat="37.50035" lon="27.55432">
        <ele>170.171</ele>
        <time>2020-12-13T07:39:01Z</time>
      </trkpt>
      <trkpt lat="37.50034" lon="27.55434">
        <ele>170.257</ele>
        <time>2020-12-13T07:39:02Z</time>
      </trkpt>
      <trkpt lat="37.50034" lon="27.55434">
        <ele>170.257</ele>
        <time>2020-12-13T07:39:03Z</time>
      </trkpt>
      <trkpt lat="37.50033" lon="27.55437">
        <ele>170.591</ele>
        <time>2020-12-13T07:39:04Z</time>
      </trkpt>
      <trkpt lat="37.50033" lon="27.55437">
        <ele>170.591</ele>
        <time>2020-12-13T07:39:05Z</time>
      </trkpt>
      <trkpt lat="37.50033" lon="27.55439">
        <ele>170.983</ele>
        <time>2020-12-13T07:39:06Z</time>
      </trkpt>
      <trkpt lat="37.50033" lon="27.55439">
        <ele>170.983</ele>
        <time>2020-12-13T07:39:07Z</time>
      </trkpt>
      <trkpt lat="37.50033" lon="27.55439">
        <ele>170.983</ele>
        <time>2020-12-13T07:39:08Z</time>
      </trkpt>
      <trkpt lat="37.50033" lon="27.55443">
        <ele>171.603</ele>
        <time>2020-12-13T07:39:09Z</time>
      </trkpt>
      <trkpt lat="37.50033" lon="27.55443">
        <ele>171.603</ele>
        <time>2020-12-13T07:39:10Z</time>
      </trkpt>
      <trkpt lat="37.50033" lon="27.55443">
        <ele>171.603</ele>
        <time>2020-12-13T07:39:11Z</time>
      </trkpt>
      <trkpt lat="37.50033" lon="27.55443">
        <ele>171.603</ele>
        <time>2020-12-13T07:39:12Z</time>
      </trkpt>
      <trkpt lat="37.50033" lon="27.55443">
        <ele>171.603</ele>
        <time>2020-12-13T07:39:13Z</time>
      </trkpt>
      <trkpt lat="37.50034" lon="27.55444">
        <ele>172.064</ele>
        <time>2020-12-13T07:39:14Z</time>
      </trkpt>
      <trkpt lat="37.50036" lon="27.55445">
        <ele>172.551</ele>
        <time>2020-12-13T07:39:15Z</time>
      </trkpt>
      <trkpt lat="37.50037" lon="27.55447">
        <ele>173.054</ele>
        <time>2020-12-13T07:39:16Z</time>
      </trkpt>
      <trkpt lat="37.50038" lon="27.55448">
        <ele>173.543</ele>
        <time>2020-12-13T07:39:17Z</time>
      </trkpt>
      <trkpt lat="37.5004" lon="27.55449">
        <ele>174.057</ele>
        <time>2020-12-13T07:39:18Z</time>
      </trkpt>
      <trkpt lat="37.50041" lon="27.5545">
        <ele>174.573</ele>
        <time>2020-12-13T07:39:19Z</time>
      </trkpt>
      <trkpt lat="37.50041" lon="27.5545">
        <ele>174.573</ele>
        <time>2020-12-13T07:39:20Z</time>
      </trkpt>
      <trkpt lat="37.50043" lon="27.55452">
        <ele>175.152</ele>
        <time>2020-12-13T07:39:21Z</time>
      </trkpt>
      <trkpt lat="37.50043" lon="27.55452">
        <ele>175.152</ele>
        <time>2020-12-13T07:39:22Z</time>
      </trkpt>
      <trkpt lat="37.50043" lon="27.55452">
        <ele>175.152</ele>
        <time>2020-12-13T07:39:23Z</time>
      </trkpt>
      <trkpt lat="37.50044" lon="27.55454">
        <ele>175.898</ele>
        <time>2020-12-13T07:39:24Z</time>
      </trkpt>
      <trkpt lat="37.50044" lon="27.55454">
        <ele>175.898</ele>
        <time>2020-12-13T07:39:25Z</time>
      </trkpt>
      <trkpt lat="37.50046" lon="27.55456">
        <ele>176.613</ele>
        <time>2020-12-13T07:39:26Z</time>
      </trkpt>
      <trkpt lat="37.50046" lon="27.55456">
        <ele>176.613</ele>
        <time>2020-12-13T07:39:27Z</time>
      </trkpt>
      <trkpt lat="37.50048" lon="27.55457">
        <ele>177.234</ele>
        <time>2020-12-13T07:39:28Z</time>
      </trkpt>
      <trkpt lat="37.50048" lon="27.55457">
        <ele>177.234</ele>
        <time>2020-12-13T07:39:29Z</time>
      </trkpt>
      <trkpt lat="37.50049" lon="27.5546">
        <ele>178.023</ele>
        <time>2020-12-13T07:39:30Z</time>
      </trkpt>
      <trkpt lat="37.50049" lon="27.5546">
        <ele>178.023</ele>
        <time>2020-12-13T07:39:31Z</time>
      </trkpt>
      <trkpt lat="37.50052" lon="27.55463">
        <ele>179.22</ele>
        <time>2020-12-13T07:39:32Z</time>
      </trkpt>
      <trkpt lat="37.50053" lon="27.55465">
        <ele>179.848</ele>
        <time>2020-12-13T07:39:33Z</time>
      </trkpt>
      <trkpt lat="37.50053" lon="27.55465">
        <ele>179.848</ele>
        <time>2020-12-13T07:39:34Z</time>
      </trkpt>
      <trkpt lat="37.50053" lon="27.55465">
        <ele>179.848</ele>
        <time>2020-12-13T07:39:35Z</time>
      </trkpt>
      <trkpt lat="37.50053" lon="27.55465">
        <ele>179.848</ele>
        <time>2020-12-13T07:39:36Z</time>
      </trkpt>
      <trkpt lat="37.50053" lon="27.55465">
        <ele>179.848</ele>
        <time>2020-12-13T07:39:37Z</time>
      </trkpt>
      <trkpt lat="37.50054" lon="27.55467">
        <ele>180.481</ele>
        <time>2020-12-13T07:39:38Z</time>
      </trkpt>
      <trkpt lat="37.50055" lon="27.55469">
        <ele>181.121</ele>
        <time>2020-12-13T07:39:39Z</time>
      </trkpt>
      <trkpt lat="37.50056" lon="27.55471">
        <ele>181.676</ele>
        <time>2020-12-13T07:39:40Z</time>
      </trkpt>
      <trkpt lat="37.50057" lon="27.55473">
        <ele>182.028</ele>
        <time>2020-12-13T07:39:41Z</time>
      </trkpt>
      <trkpt lat="37.50058" lon="27.55475">
        <ele>182.243</ele>
        <time>2020-12-13T07:39:42Z</time>
      </trkpt>
      <trkpt lat="37.50059" lon="27.55477">
        <ele>182.473</ele>
        <time>2020-12-13T07:39:43Z</time>
      </trkpt>
      <trkpt lat="37.50059" lon="27.55477">
        <ele>182.473</ele>
        <time>2020-12-13T07:39:44Z</time>
      </trkpt>
      <trkpt lat="37.50059" lon="27.55477">
        <ele>182.473</ele>
        <time>2020-12-13T07:39:45Z</time>
      </trkpt>
      <trkpt lat="37.50059" lon="27.55477">
        <ele>182.473</ele>
        <time>2020-12-13T07:39:46Z</time>
      </trkpt>
      <trkpt lat="37.50059" lon="27.55477">
        <ele>182.473</ele>
        <time>2020-12-13T07:39:47Z</time>
      </trkpt>
      <trkpt lat="37.5006" lon="27.55479">
        <ele>182.711</ele>
        <time>2020-12-13T07:39:48Z</time>
      </trkpt>
      <trkpt lat="37.5006" lon="27.55479">
        <ele>182.711</ele>
        <time>2020-12-13T07:39:49Z</time>
      </trkpt>
      <trkpt lat="37.50063" lon="27.55481">
        <ele>182.948</ele>
        <time>2020-12-13T07:39:50Z</time>
      </trkpt>
      <trkpt lat="37.50063" lon="27.55481">
        <ele>182.948</ele>
        <time>2020-12-13T07:39:51Z</time>
      </trkpt>
      <trkpt lat="37.50064" lon="27.55483">
        <ele>183.245</ele>
        <time>2020-12-13T07:39:52Z</time>
      </trkpt>
      <trkpt lat="37.50064" lon="27.55483">
        <ele>183.245</ele>
        <time>2020-12-13T07:39:53Z</time>
      </trkpt>
      <trkpt lat="37.50064" lon="27.55483">
        <ele>183.245</ele>
        <time>2020-12-13T07:39:54Z</time>
      </trkpt>
      <trkpt lat="37.50067" lon="27.55487">
        <ele>183.893</ele>
        <time>2020-12-13T07:39:55Z</time>
      </trkpt>
      <trkpt lat="37.50067" lon="27.55487">
        <ele>183.893</ele>
        <time>2020-12-13T07:39:56Z</time>
      </trkpt>
      <trkpt lat="37.50068" lon="27.55489">
        <ele>184.204</ele>
        <time>2020-12-13T07:39:57Z</time>
      </trkpt>
      <trkpt lat="37.50068" lon="27.55489">
        <ele>184.204</ele>
        <time>2020-12-13T07:39:58Z</time>
      </trkpt>
      <trkpt lat="37.5007" lon="27.55491">
        <ele>184.512</ele>
        <time>2020-12-13T07:39:59Z</time>
      </trkpt>
      <trkpt lat="37.5007" lon="27.55491">
        <ele>184.512</ele>
        <time>2020-12-13T07:40:00Z</time>
      </trkpt>
      <trkpt lat="37.50074" lon="27.55492">
        <ele>184.817</ele>
        <time>2020-12-13T07:40:01Z</time>
      </trkpt>
      <trkpt lat="37.50075" lon="27.55493">
        <ele>185.068</ele>
        <time>2020-12-13T07:40:02Z</time>
      </trkpt>
      <trkpt lat="37.50075" lon="27.55493">
        <ele>185.068</ele>
        <time>2020-12-13T07:40:03Z</time>
      </trkpt>
      <trkpt lat="37.50078" lon="27.55494">
        <ele>185.513</ele>
        <time>2020-12-13T07:40:04Z</time>
      </trkpt>
      <trkpt lat="37.50078" lon="27.55494">
        <ele>185.513</ele>
        <time>2020-12-13T07:40:05Z</time>
      </trkpt>
      <trkpt lat="37.50081" lon="27.55496">
        <ele>186.003</ele>
        <time>2020-12-13T07:40:06Z</time>
      </trkpt>
      <trkpt lat="37.50081" lon="27.55496">
        <ele>186.003</ele>
        <time>2020-12-13T07:40:07Z</time>
      </trkpt>
      <trkpt lat="37.50083" lon="27.55496">
        <ele>186.165</ele>
        <time>2020-12-13T07:40:08Z</time>
      </trkpt>
      <trkpt lat="37.50083" lon="27.55496">
        <ele>186.165</ele>
        <time>2020-12-13T07:40:09Z</time>
      </trkpt>
      <trkpt lat="37.50085" lon="27.55496">
        <ele>186.031</ele>
        <time>2020-12-13T07:40:10Z</time>
      </trkpt>
      <trkpt lat="37.50085" lon="27.55496">
        <ele>186.031</ele>
        <time>2020-12-13T07:40:11Z</time>
      </trkpt>
      <trkpt lat="37.50088" lon="27.55495">
        <ele>185.663</ele>
        <time>2020-12-13T07:40:12Z</time>
      </trkpt>
      <trkpt lat="37.5009" lon="27.55496">
        <ele>185.62</ele>
        <time>2020-12-13T07:40:13Z</time>
      </trkpt>
      <trkpt lat="37.50092" lon="27.55497">
        <ele>185.713</ele>
        <time>2020-12-13T07:40:14Z</time>
      </trkpt>
      <trkpt lat="37.50093" lon="27.55499">
        <ele>186.045</ele>
        <time>2020-12-13T07:40:15Z</time>
      </trkpt>
      <trkpt lat="37.50093" lon="27.55499">
        <ele>186.045</ele>
        <time>2020-12-13T07:40:16Z</time>
      </trkpt>
      <trkpt lat="37.50095" lon="27.55502">
        <ele>186.698</ele>
        <time>2020-12-13T07:40:17Z</time>
      </trkpt>
      <trkpt lat="37.50095" lon="27.55502">
        <ele>186.698</ele>
        <time>2020-12-13T07:40:18Z</time>
      </trkpt>
      <trkpt lat="37.50096" lon="27.55505">
        <ele>187.626</ele>
        <time>2020-12-13T07:40:19Z</time>
      </trkpt>
      <trkpt lat="37.50096" lon="27.55505">
        <ele>187.626</ele>
        <time>2020-12-13T07:40:20Z</time>
      </trkpt>
      <trkpt lat="37.50097" lon="27.55508">
        <ele>188.436</ele>
        <time>2020-12-13T07:40:21Z</time>
      </trkpt>
      <trkpt lat="37.50097" lon="27.55508">
        <ele>188.436</ele>
        <time>2020-12-13T07:40:22Z</time>
      </trkpt>
      <trkpt lat="37.50097" lon="27.55511">
        <ele>189.169</ele>
        <time>2020-12-13T07:40:23Z</time>
      </trkpt>
      <trkpt lat="37.50097" lon="27.55511">
        <ele>189.169</ele>
        <time>2020-12-13T07:40:24Z</time>
      </trkpt>
      <trkpt lat="37.50098" lon="27.55514">
        <ele>190.032</ele>
        <time>2020-12-13T07:40:25Z</time>
      </trkpt>
      <trkpt lat="37.50098" lon="27.55514">
        <ele>190.032</ele>
        <time>2020-12-13T07:40:26Z</time>
      </trkpt>
      <trkpt lat="37.501" lon="27.55516">
        <ele>190.756</ele>
        <time>2020-12-13T07:40:27Z</time>
      </trkpt>
      <trkpt lat="37.501" lon="27.55516">
        <ele>190.756</ele>
        <time>2020-12-13T07:40:28Z</time>
      </trkpt>
      <trkpt lat="37.501" lon="27.55516">
        <ele>190.756</ele>
        <time>2020-12-13T07:40:29Z</time>
      </trkpt>
      <trkpt lat="37.50102" lon="27.55518">
        <ele>191.222</ele>
        <time>2020-12-13T07:40:30Z</time>
      </trkpt>
      <trkpt lat="37.50102" lon="27.55518">
        <ele>191.222</ele>
        <time>2020-12-13T07:40:31Z</time>
      </trkpt>
      <trkpt lat="37.50102" lon="27.55518">
        <ele>191.222</ele>
        <time>2020-12-13T07:40:32Z</time>
      </trkpt>
      <trkpt lat="37.50103" lon="27.5552">
        <ele>192.077</ele>
        <time>2020-12-13T07:40:33Z</time>
      </trkpt>
      <trkpt lat="37.50103" lon="27.5552">
        <ele>192.077</ele>
        <time>2020-12-13T07:40:34Z</time>
      </trkpt>
      <trkpt lat="37.50103" lon="27.5552">
        <ele>192.077</ele>
        <time>2020-12-13T07:40:35Z</time>
      </trkpt>
      <trkpt lat="37.50106" lon="27.55521">
        <ele>192.463</ele>
        <time>2020-12-13T07:40:36Z</time>
      </trkpt>
      <trkpt lat="37.50106" lon="27.55521">
        <ele>192.463</ele>
        <time>2020-12-13T07:40:37Z</time>
      </trkpt>
      <trkpt lat="37.50106" lon="27.55521">
        <ele>192.463</ele>
        <time>2020-12-13T07:40:38Z</time>
      </trkpt>
      <trkpt lat="37.5011" lon="27.55522">
        <ele>192.857</ele>
        <time>2020-12-13T07:40:39Z</time>
      </trkpt>
      <trkpt lat="37.5011" lon="27.55522">
        <ele>192.857</ele>
        <time>2020-12-13T07:40:40Z</time>
      </trkpt>
      <trkpt lat="37.5011" lon="27.55522">
        <ele>192.857</ele>
        <time>2020-12-13T07:40:41Z</time>
      </trkpt>
      <trkpt lat="37.5011" lon="27.55522">
        <ele>192.857</ele>
        <time>2020-12-13T07:40:42Z</time>
      </trkpt>
      <trkpt lat="37.5011" lon="27.55522">
        <ele>192.857</ele>
        <time>2020-12-13T07:40:43Z</time>
      </trkpt>
      <trkpt lat="37.50114" lon="27.55525">
        <ele>193.653</ele>
        <time>2020-12-13T07:40:44Z</time>
      </trkpt>
      <trkpt lat="37.50114" lon="27.55525">
        <ele>193.829</ele>
        <time>2020-12-13T07:40:45Z</time>
      </trkpt>
      <trkpt lat="37.50114" lon="27.55526">
        <ele>194.012</ele>
        <time>2020-12-13T07:40:46Z</time>
      </trkpt>
      <trkpt lat="37.50114" lon="27.55526">
        <ele>194.189</ele>
        <time>2020-12-13T07:40:47Z</time>
      </trkpt>
      <trkpt lat="37.50114" lon="27.55527">
        <ele>194.365</ele>
        <time>2020-12-13T07:40:48Z</time>
      </trkpt>
      <trkpt lat="37.50114" lon="27.55527">
        <ele>194.365</ele>
        <time>2020-12-13T07:40:49Z</time>
      </trkpt>
      <trkpt lat="37.50113" lon="27.5553">
        <ele>195.485</ele>
        <time>2020-12-13T07:40:50Z</time>
      </trkpt>
      <trkpt lat="37.50113" lon="27.5553">
        <ele>195.485</ele>
        <time>2020-12-13T07:40:51Z</time>
      </trkpt>
      <trkpt lat="37.50113" lon="27.5553">
        <ele>195.485</ele>
        <time>2020-12-13T07:40:52Z</time>
      </trkpt>
      <trkpt lat="37.50113" lon="27.5553">
        <ele>195.485</ele>
        <time>2020-12-13T07:40:53Z</time>
      </trkpt>
      <trkpt lat="37.50114" lon="27.55532">
        <ele>196.101</ele>
        <time>2020-12-13T07:40:54Z</time>
      </trkpt>
      <trkpt lat="37.50114" lon="27.55532">
        <ele>196.101</ele>
        <time>2020-12-13T07:40:55Z</time>
      </trkpt>
      <trkpt lat="37.50114" lon="27.55532">
        <ele>196.101</ele>
        <time>2020-12-13T07:40:56Z</time>
      </trkpt>
      <trkpt lat="37.50114" lon="27.55532">
        <ele>196.101</ele>
        <time>2020-12-13T07:40:57Z</time>
      </trkpt>
      <trkpt lat="37.50114" lon="27.55535">
        <ele>197.152</ele>
        <time>2020-12-13T07:40:58Z</time>
      </trkpt>
      <trkpt lat="37.50114" lon="27.55535">
        <ele>197.152</ele>
        <time>2020-12-13T07:40:59Z</time>
      </trkpt>
      <trkpt lat="37.50114" lon="27.55535">
        <ele>197.152</ele>
        <time>2020-12-13T07:41:00Z</time>
      </trkpt>
      <trkpt lat="37.50113" lon="27.55538">
        <ele>198.024</ele>
        <time>2020-12-13T07:41:01Z</time>
      </trkpt>
      <trkpt lat="37.50113" lon="27.55538">
        <ele>198.024</ele>
        <time>2020-12-13T07:41:02Z</time>
      </trkpt>
      <trkpt lat="37.50112" lon="27.55539">
        <ele>198.69</ele>
        <time>2020-12-13T07:41:03Z</time>
      </trkpt>
      <trkpt lat="37.50112" lon="27.55539">
        <ele>198.69</ele>
        <time>2020-12-13T07:41:04Z</time>
      </trkpt>
      <trkpt lat="37.50112" lon="27.55539">
        <ele>198.69</ele>
        <time>2020-12-13T07:41:05Z</time>
      </trkpt>
      <trkpt lat="37.50112" lon="27.55539">
        <ele>198.69</ele>
        <time>2020-12-13T07:41:06Z</time>
      </trkpt>
      <trkpt lat="37.50112" lon="27.55539">
        <ele>198.69</ele>
        <time>2020-12-13T07:41:07Z</time>
      </trkpt>
      <trkpt lat="37.50111" lon="27.5554">
        <ele>199.019</ele>
        <time>2020-12-13T07:41:08Z</time>
      </trkpt>
      <trkpt lat="37.50111" lon="27.55541">
        <ele>199.263</ele>
        <time>2020-12-13T07:41:09Z</time>
      </trkpt>
      <trkpt lat="37.5011" lon="27.55542">
        <ele>199.487</ele>
        <time>2020-12-13T07:41:10Z</time>
      </trkpt>
      <trkpt lat="37.50109" lon="27.55543">
        <ele>199.709</ele>
        <time>2020-12-13T07:41:11Z</time>
      </trkpt>
      <trkpt lat="37.50109" lon="27.55544">
        <ele>199.941</ele>
        <time>2020-12-13T07:41:12Z</time>
      </trkpt>
      <trkpt lat="37.50108" lon="27.55545">
        <ele>200.125</ele>
        <time>2020-12-13T07:41:13Z</time>
      </trkpt>
      <trkpt lat="37.50108" lon="27.55546">
        <ele>200.339</ele>
        <time>2020-12-13T07:41:14Z</time>
      </trkpt>
      <trkpt lat="37.50107" lon="27.55546">
        <ele>200.551</ele>
        <time>2020-12-13T07:41:15Z</time>
      </trkpt>
      <trkpt lat="37.50107" lon="27.55547">
        <ele>200.76</ele>
        <time>2020-12-13T07:41:16Z</time>
      </trkpt>
      <trkpt lat="37.50106" lon="27.55548">
        <ele>200.967</ele>
        <time>2020-12-13T07:41:17Z</time>
      </trkpt>
      <trkpt lat="37.50108" lon="27.55548">
        <ele>201.241</ele>
        <time>2020-12-13T07:41:18Z</time>
      </trkpt>
      <trkpt lat="37.50108" lon="27.55548">
        <ele>201.241</ele>
        <time>2020-12-13T07:41:19Z</time>
      </trkpt>
      <trkpt lat="37.50108" lon="27.55548">
        <ele>201.241</ele>
        <time>2020-12-13T07:41:20Z</time>
      </trkpt>
      <trkpt lat="37.50108" lon="27.55548">
        <ele>201.241</ele>
        <time>2020-12-13T07:41:21Z</time>
      </trkpt>
      <trkpt lat="37.50108" lon="27.55548">
        <ele>201.241</ele>
        <time>2020-12-13T07:41:22Z</time>
      </trkpt>
      <trkpt lat="37.50111" lon="27.55547">
        <ele>201.307</ele>
        <time>2020-12-13T07:41:23Z</time>
      </trkpt>
      <trkpt lat="37.50111" lon="27.55547">
        <ele>201.307</ele>
        <time>2020-12-13T07:41:24Z</time>
      </trkpt>
      <trkpt lat="37.50111" lon="27.55547">
        <ele>201.307</ele>
        <time>2020-12-13T07:41:25Z</time>
      </trkpt>
      <trkpt lat="37.50113" lon="27.55547">
        <ele>201.133</ele>
        <time>2020-12-13T07:41:26Z</time>
      </trkpt>
      <trkpt lat="37.50113" lon="27.55547">
        <ele>201.133</ele>
        <time>2020-12-13T07:41:27Z</time>
      </trkpt>
      <trkpt lat="37.50115" lon="27.55547">
        <ele>201.097</ele>
        <time>2020-12-13T07:41:28Z</time>
      </trkpt>
      <trkpt lat="37.50115" lon="27.55547">
        <ele>201.097</ele>
        <time>2020-12-13T07:41:29Z</time>
      </trkpt>
      <trkpt lat="37.50115" lon="27.55547">
        <ele>201.097</ele>
        <time>2020-12-13T07:41:30Z</time>
      </trkpt>
      <trkpt lat="37.50117" lon="27.55548">
        <ele>201.438</ele>
        <time>2020-12-13T07:41:31Z</time>
      </trkpt>
      <trkpt lat="37.50117" lon="27.55548">
        <ele>201.438</ele>
        <time>2020-12-13T07:41:32Z</time>
      </trkpt>
      <trkpt lat="37.50118" lon="27.55551">
        <ele>202.227</ele>
        <time>2020-12-13T07:41:33Z</time>
      </trkpt>
      <trkpt lat="37.50118" lon="27.55551">
        <ele>202.227</ele>
        <time>2020-12-13T07:41:34Z</time>
      </trkpt>
      <trkpt lat="37.50118" lon="27.55551">
        <ele>202.227</ele>
        <time>2020-12-13T07:41:35Z</time>
      </trkpt>
      <trkpt lat="37.50119" lon="27.55553">
        <ele>202.913</ele>
        <time>2020-12-13T07:41:36Z</time>
      </trkpt>
      <trkpt lat="37.50119" lon="27.55553">
        <ele>202.913</ele>
        <time>2020-12-13T07:41:37Z</time>
      </trkpt>
      <trkpt lat="37.50119" lon="27.55553">
        <ele>202.913</ele>
        <time>2020-12-13T07:41:38Z</time>
      </trkpt>
      <trkpt lat="37.5012" lon="27.55555">
        <ele>203.766</ele>
        <time>2020-12-13T07:41:39Z</time>
      </trkpt>
      <trkpt lat="37.5012" lon="27.55555">
        <ele>203.766</ele>
        <time>2020-12-13T07:41:40Z</time>
      </trkpt>
      <trkpt lat="37.5012" lon="27.55555">
        <ele>203.766</ele>
        <time>2020-12-13T07:41:41Z</time>
      </trkpt>
      <trkpt lat="37.50119" lon="27.55559">
        <ele>205.287</ele>
        <time>2020-12-13T07:41:42Z</time>
      </trkpt>
      <trkpt lat="37.50119" lon="27.55559">
        <ele>205.287</ele>
        <time>2020-12-13T07:41:43Z</time>
      </trkpt>
      <trkpt lat="37.50119" lon="27.55559">
        <ele>205.287</ele>
        <time>2020-12-13T07:41:44Z</time>
      </trkpt>
      <trkpt lat="37.50119" lon="27.55559">
        <ele>205.287</ele>
        <time>2020-12-13T07:41:45Z</time>
      </trkpt>
      <trkpt lat="37.50119" lon="27.55559">
        <ele>205.287</ele>
        <time>2020-12-13T07:41:46Z</time>
      </trkpt>
      <trkpt lat="37.5012" lon="27.55566">
        <ele>207.597</ele>
        <time>2020-12-13T07:41:47Z</time>
      </trkpt>
      <trkpt lat="37.50121" lon="27.55566">
        <ele>207.789</ele>
        <time>2020-12-13T07:41:48Z</time>
      </trkpt>
      <trkpt lat="37.50122" lon="27.55567">
        <ele>207.985</ele>
        <time>2020-12-13T07:41:49Z</time>
      </trkpt>
      <trkpt lat="37.50122" lon="27.55567">
        <ele>208.177</ele>
        <time>2020-12-13T07:41:50Z</time>
      </trkpt>
      <trkpt lat="37.50123" lon="27.55568">
        <ele>208.374</ele>
        <time>2020-12-13T07:41:51Z</time>
      </trkpt>
      <trkpt lat="37.50123" lon="27.55568">
        <ele>208.374</ele>
        <time>2020-12-13T07:41:52Z</time>
      </trkpt>
      <trkpt lat="37.50123" lon="27.55568">
        <ele>208.374</ele>
        <time>2020-12-13T07:41:53Z</time>
      </trkpt>
      <trkpt lat="37.50124" lon="27.55565">
        <ele>207.347</ele>
        <time>2020-12-13T07:41:54Z</time>
      </trkpt>
      <trkpt lat="37.50124" lon="27.55565">
        <ele>207.347</ele>
        <time>2020-12-13T07:41:55Z</time>
      </trkpt>
      <trkpt lat="37.50124" lon="27.55565">
        <ele>207.347</ele>
        <time>2020-12-13T07:41:56Z</time>
      </trkpt>
      <trkpt lat="37.50124" lon="27.55565">
        <ele>207.347</ele>
        <time>2020-12-13T07:41:57Z</time>
      </trkpt>
      <trkpt lat="37.50129" lon="27.55563">
        <ele>206.913</ele>
        <time>2020-12-13T07:41:58Z</time>
      </trkpt>
      <trkpt lat="37.5013" lon="27.55563">
        <ele>206.928</ele>
        <time>2020-12-13T07:41:59Z</time>
      </trkpt>
      <trkpt lat="37.50131" lon="27.55564">
        <ele>206.982</ele>
        <time>2020-12-13T07:42:00Z</time>
      </trkpt>
      <trkpt lat="37.50132" lon="27.55564">
        <ele>206.996</ele>
        <time>2020-12-13T07:42:01Z</time>
      </trkpt>
      <trkpt lat="37.50132" lon="27.55564">
        <ele>207.049</ele>
        <time>2020-12-13T07:42:02Z</time>
      </trkpt>
      <trkpt lat="37.50132" lon="27.55564">
        <ele>207.049</ele>
        <time>2020-12-13T07:42:03Z</time>
      </trkpt>
      <trkpt lat="37.50136" lon="27.55565">
        <ele>207.662</ele>
        <time>2020-12-13T07:42:04Z</time>
      </trkpt>
      <trkpt lat="37.50136" lon="27.55565">
        <ele>207.662</ele>
        <time>2020-12-13T07:42:05Z</time>
      </trkpt>
      <trkpt lat="37.50136" lon="27.55565">
        <ele>207.662</ele>
        <time>2020-12-13T07:42:06Z</time>
      </trkpt>
      <trkpt lat="37.50136" lon="27.55565">
        <ele>207.662</ele>
        <time>2020-12-13T07:42:07Z</time>
      </trkpt>
      <trkpt lat="37.50136" lon="27.55565">
        <ele>207.662</ele>
        <time>2020-12-13T07:42:08Z</time>
      </trkpt>
      <trkpt lat="37.50137" lon="27.55567">
        <ele>208.309</ele>
        <time>2020-12-13T07:42:09Z</time>
      </trkpt>
      <trkpt lat="37.50137" lon="27.55568">
        <ele>208.92</ele>
        <time>2020-12-13T07:42:10Z</time>
      </trkpt>
      <trkpt lat="37.50138" lon="27.5557">
        <ele>209.581</ele>
        <time>2020-12-13T07:42:11Z</time>
      </trkpt>
      <trkpt lat="37.50139" lon="27.55571">
        <ele>210.217</ele>
        <time>2020-12-13T07:42:12Z</time>
      </trkpt>
      <trkpt lat="37.5014" lon="27.55573">
        <ele>210.723</ele>
        <time>2020-12-13T07:42:13Z</time>
      </trkpt>
      <trkpt lat="37.50141" lon="27.55574">
        <ele>211.277</ele>
        <time>2020-12-13T07:42:14Z</time>
      </trkpt>
      <trkpt lat="37.50142" lon="27.55577">
        <ele>212.164</ele>
        <time>2020-12-13T07:42:15Z</time>
      </trkpt>
      <trkpt lat="37.50142" lon="27.55577">
        <ele>212.164</ele>
        <time>2020-12-13T07:42:16Z</time>
      </trkpt>
      <trkpt lat="37.50142" lon="27.5558">
        <ele>213.259</ele>
        <time>2020-12-13T07:42:17Z</time>
      </trkpt>
      <trkpt lat="37.50142" lon="27.5558">
        <ele>213.259</ele>
        <time>2020-12-13T07:42:18Z</time>
      </trkpt>
      <trkpt lat="37.50142" lon="27.5558">
        <ele>213.259</ele>
        <time>2020-12-13T07:42:19Z</time>
      </trkpt>
      <trkpt lat="37.50143" lon="27.55584">
        <ele>214.686</ele>
        <time>2020-12-13T07:42:20Z</time>
      </trkpt>
      <trkpt lat="37.50143" lon="27.55584">
        <ele>214.686</ele>
        <time>2020-12-13T07:42:21Z</time>
      </trkpt>
      <trkpt lat="37.50143" lon="27.55584">
        <ele>214.686</ele>
        <time>2020-12-13T07:42:22Z</time>
      </trkpt>
      <trkpt lat="37.50143" lon="27.55584">
        <ele>214.686</ele>
        <time>2020-12-13T07:42:23Z</time>
      </trkpt>
      <trkpt lat="37.50143" lon="27.55584">
        <ele>214.686</ele>
        <time>2020-12-13T07:42:24Z</time>
      </trkpt>
      <trkpt lat="37.50144" lon="27.55585">
        <ele>214.847</ele>
        <time>2020-12-13T07:42:25Z</time>
      </trkpt>
      <trkpt lat="37.50144" lon="27.55585">
        <ele>214.991</ele>
        <time>2020-12-13T07:42:26Z</time>
      </trkpt>
      <trkpt lat="37.50144" lon="27.55586">
        <ele>215.156</ele>
        <time>2020-12-13T07:42:27Z</time>
      </trkpt>
      <trkpt lat="37.50144" lon="27.55586">
        <ele>215.29</ele>
        <time>2020-12-13T07:42:28Z</time>
      </trkpt>
      <trkpt lat="37.50144" lon="27.55587">
        <ele>215.466</ele>
        <time>2020-12-13T07:42:29Z</time>
      </trkpt>
      <trkpt lat="37.50144" lon="27.55587">
        <ele>215.6</ele>
        <time>2020-12-13T07:42:30Z</time>
      </trkpt>
      <trkpt lat="37.50145" lon="27.55588">
        <ele>215.769</ele>
        <time>2020-12-13T07:42:31Z</time>
      </trkpt>
      <trkpt lat="37.50145" lon="27.55588">
        <ele>215.947</ele>
        <time>2020-12-13T07:42:32Z</time>
      </trkpt>
      <trkpt lat="37.50145" lon="27.55589">
        <ele>216.083</ele>
        <time>2020-12-13T07:42:33Z</time>
      </trkpt>
      <trkpt lat="37.50145" lon="27.5559">
        <ele>216.254</ele>
        <time>2020-12-13T07:42:34Z</time>
      </trkpt>
      <trkpt lat="37.50145" lon="27.5559">
        <ele>216.395</ele>
        <time>2020-12-13T07:42:35Z</time>
      </trkpt>
      <trkpt lat="37.50145" lon="27.55591">
        <ele>216.573</ele>
        <time>2020-12-13T07:42:36Z</time>
      </trkpt>
      <trkpt lat="37.50146" lon="27.55591">
        <ele>216.747</ele>
        <time>2020-12-13T07:42:37Z</time>
      </trkpt>
      <trkpt lat="37.50146" lon="27.55592">
        <ele>216.887</ele>
        <time>2020-12-13T07:42:38Z</time>
      </trkpt>
      <trkpt lat="37.50146" lon="27.55592">
        <ele>217.07</ele>
        <time>2020-12-13T07:42:39Z</time>
      </trkpt>
      <trkpt lat="37.50146" lon="27.55593">
        <ele>217.214</ele>
        <time>2020-12-13T07:42:40Z</time>
      </trkpt>
      <trkpt lat="37.50146" lon="27.55593">
        <ele>217.388</ele>
        <time>2020-12-13T07:42:41Z</time>
      </trkpt>
      <trkpt lat="37.50146" lon="27.55594">
        <ele>217.541</ele>
        <time>2020-12-13T07:42:42Z</time>
      </trkpt>
      <trkpt lat="37.50147" lon="27.55595">
        <ele>217.717</ele>
        <time>2020-12-13T07:42:43Z</time>
      </trkpt>
      <trkpt lat="37.50148" lon="27.55596">
        <ele>218.141</ele>
        <time>2020-12-13T07:42:44Z</time>
      </trkpt>
      <trkpt lat="37.50149" lon="27.55598">
        <ele>218.571</ele>
        <time>2020-12-13T07:42:45Z</time>
      </trkpt>
      <trkpt lat="37.50149" lon="27.55599">
        <ele>218.983</ele>
        <time>2020-12-13T07:42:46Z</time>
      </trkpt>
      <trkpt lat="37.5015" lon="27.556">
        <ele>219.439</ele>
        <time>2020-12-13T07:42:47Z</time>
      </trkpt>
      <trkpt lat="37.50151" lon="27.55602">
        <ele>219.902</ele>
        <time>2020-12-13T07:42:48Z</time>
      </trkpt>
      <trkpt lat="37.50152" lon="27.55603">
        <ele>220.379</ele>
        <time>2020-12-13T07:42:49Z</time>
      </trkpt>
      <trkpt lat="37.50154" lon="27.55603">
        <ele>220.341</ele>
        <time>2020-12-13T07:42:50Z</time>
      </trkpt>
      <trkpt lat="37.50155" lon="27.55603">
        <ele>220.305</ele>
        <time>2020-12-13T07:42:51Z</time>
      </trkpt>
      <trkpt lat="37.50156" lon="27.55603">
        <ele>220.266</ele>
        <time>2020-12-13T07:42:52Z</time>
      </trkpt>
      <trkpt lat="37.50157" lon="27.55603">
        <ele>220.227</ele>
        <time>2020-12-13T07:42:53Z</time>
      </trkpt>
      <trkpt lat="37.50159" lon="27.55603">
        <ele>220.154</ele>
        <time>2020-12-13T07:42:54Z</time>
      </trkpt>
      <trkpt lat="37.5016" lon="27.55603">
        <ele>220.114</ele>
        <time>2020-12-13T07:42:55Z</time>
      </trkpt>
      <trkpt lat="37.50161" lon="27.55603">
        <ele>220.078</ele>
        <time>2020-12-13T07:42:56Z</time>
      </trkpt>
      <trkpt lat="37.50162" lon="27.55603">
        <ele>220.038</ele>
        <time>2020-12-13T07:42:57Z</time>
      </trkpt>
      <trkpt lat="37.50164" lon="27.55604">
        <ele>220.344</ele>
        <time>2020-12-13T07:42:58Z</time>
      </trkpt>
      <trkpt lat="37.50165" lon="27.55605">
        <ele>220.654</ele>
        <time>2020-12-13T07:42:59Z</time>
      </trkpt>
      <trkpt lat="37.50167" lon="27.55606">
        <ele>220.976</ele>
        <time>2020-12-13T07:43:00Z</time>
      </trkpt>
      <trkpt lat="37.50168" lon="27.55607">
        <ele>221.156</ele>
        <time>2020-12-13T07:43:01Z</time>
      </trkpt>
      <trkpt lat="37.50169" lon="27.55608">
        <ele>221.318</ele>
        <time>2020-12-13T07:43:02Z</time>
      </trkpt>
      <trkpt lat="37.50171" lon="27.55609">
        <ele>221.463</ele>
        <time>2020-12-13T07:43:03Z</time>
      </trkpt>
      <trkpt lat="37.50172" lon="27.5561">
        <ele>221.613</ele>
        <time>2020-12-13T07:43:04Z</time>
      </trkpt>
      <trkpt lat="37.50172" lon="27.5561">
        <ele>221.613</ele>
        <time>2020-12-13T07:43:05Z</time>
      </trkpt>
      <trkpt lat="37.50172" lon="27.5561">
        <ele>221.613</ele>
        <time>2020-12-13T07:43:06Z</time>
      </trkpt>
      <trkpt lat="37.50172" lon="27.5561">
        <ele>221.613</ele>
        <time>2020-12-13T07:43:07Z</time>
      </trkpt>
      <trkpt lat="37.50173" lon="27.55611">
        <ele>221.926</ele>
        <time>2020-12-13T07:43:08Z</time>
      </trkpt>
      <trkpt lat="37.50173" lon="27.55611">
        <ele>222.168</ele>
        <time>2020-12-13T07:43:09Z</time>
      </trkpt>
      <trkpt lat="37.50173" lon="27.55612">
        <ele>222.316</ele>
        <time>2020-12-13T07:43:10Z</time>
      </trkpt>
      <trkpt lat="37.50173" lon="27.55613">
        <ele>222.432</ele>
        <time>2020-12-13T07:43:11Z</time>
      </trkpt>
      <trkpt lat="37.50173" lon="27.55614">
        <ele>222.581</ele>
        <time>2020-12-13T07:43:12Z</time>
      </trkpt>
      <trkpt lat="37.50174" lon="27.55615">
        <ele>222.711</ele>
        <time>2020-12-13T07:43:13Z</time>
      </trkpt>
      <trkpt lat="37.50174" lon="27.55616">
        <ele>222.864</ele>
        <time>2020-12-13T07:43:14Z</time>
      </trkpt>
      <trkpt lat="37.50174" lon="27.55616">
        <ele>222.996</ele>
        <time>2020-12-13T07:43:15Z</time>
      </trkpt>
      <trkpt lat="37.50174" lon="27.55617">
        <ele>223.15</ele>
        <time>2020-12-13T07:43:16Z</time>
      </trkpt>
      <trkpt lat="37.50175" lon="27.55618">
        <ele>223.272</ele>
        <time>2020-12-13T07:43:17Z</time>
      </trkpt>
      <trkpt lat="37.50175" lon="27.55619">
        <ele>223.427</ele>
        <time>2020-12-13T07:43:18Z</time>
      </trkpt>
      <trkpt lat="37.50175" lon="27.5562">
        <ele>223.564</ele>
        <time>2020-12-13T07:43:19Z</time>
      </trkpt>
      <trkpt lat="37.50175" lon="27.55621">
        <ele>223.721</ele>
        <time>2020-12-13T07:43:20Z</time>
      </trkpt>
      <trkpt lat="37.50176" lon="27.55623">
        <ele>223.993</ele>
        <time>2020-12-13T07:43:21Z</time>
      </trkpt>
      <trkpt lat="37.50177" lon="27.55624">
        <ele>224.263</ele>
        <time>2020-12-13T07:43:22Z</time>
      </trkpt>
      <trkpt lat="37.50177" lon="27.55626">
        <ele>224.55</ele>
        <time>2020-12-13T07:43:23Z</time>
      </trkpt>
      <trkpt lat="37.50178" lon="27.55628">
        <ele>224.841</ele>
        <time>2020-12-13T07:43:24Z</time>
      </trkpt>
      <trkpt lat="37.50179" lon="27.5563">
        <ele>225.132</ele>
        <time>2020-12-13T07:43:25Z</time>
      </trkpt>
      <trkpt lat="37.5018" lon="27.55631">
        <ele>225.439</ele>
        <time>2020-12-13T07:43:26Z</time>
      </trkpt>
      <trkpt lat="37.5018" lon="27.55631">
        <ele>225.439</ele>
        <time>2020-12-13T07:43:27Z</time>
      </trkpt>
      <trkpt lat="37.5018" lon="27.55631">
        <ele>225.439</ele>
        <time>2020-12-13T07:43:28Z</time>
      </trkpt>
      <trkpt lat="37.5018" lon="27.55631">
        <ele>225.439</ele>
        <time>2020-12-13T07:43:29Z</time>
      </trkpt>
      <trkpt lat="37.5018" lon="27.55631">
        <ele>225.439</ele>
        <time>2020-12-13T07:43:30Z</time>
      </trkpt>
      <trkpt lat="37.5018" lon="27.55631">
        <ele>225.439</ele>
        <time>2020-12-13T07:43:31Z</time>
      </trkpt>
      <trkpt lat="37.5018" lon="27.55631">
        <ele>225.439</ele>
        <time>2020-12-13T07:43:32Z</time>
      </trkpt>
      <trkpt lat="37.5018" lon="27.55631">
        <ele>225.439</ele>
        <time>2020-12-13T07:43:33Z</time>
      </trkpt>
      <trkpt lat="37.5018" lon="27.55631">
        <ele>225.439</ele>
        <time>2020-12-13T07:43:34Z</time>
      </trkpt>
      <trkpt lat="37.5018" lon="27.55631">
        <ele>225.439</ele>
        <time>2020-12-13T07:43:35Z</time>
      </trkpt>
      <trkpt lat="37.5018" lon="27.55631">
        <ele>225.439</ele>
        <time>2020-12-13T07:43:36Z</time>
      </trkpt>
      <trkpt lat="37.50182" lon="27.55632">
        <ele>225.335</ele>
        <time>2020-12-13T07:43:37Z</time>
      </trkpt>
      <trkpt lat="37.50182" lon="27.55632">
        <ele>225.335</ele>
        <time>2020-12-13T07:43:38Z</time>
      </trkpt>
      <trkpt lat="37.50184" lon="27.5563">
        <ele>224.791</ele>
        <time>2020-12-13T07:43:39Z</time>
      </trkpt>
      <trkpt lat="37.50184" lon="27.5563">
        <ele>224.791</ele>
        <time>2020-12-13T07:43:40Z</time>
      </trkpt>
      <trkpt lat="37.50184" lon="27.5563">
        <ele>224.791</ele>
        <time>2020-12-13T07:43:41Z</time>
      </trkpt>
      <trkpt lat="37.50188" lon="27.55629">
        <ele>224.004</ele>
        <time>2020-12-13T07:43:42Z</time>
      </trkpt>
      <trkpt lat="37.5019" lon="27.55629">
        <ele>223.888</ele>
        <time>2020-12-13T07:43:43Z</time>
      </trkpt>
      <trkpt lat="37.50191" lon="27.55629">
        <ele>223.829</ele>
        <time>2020-12-13T07:43:44Z</time>
      </trkpt>
      <trkpt lat="37.50193" lon="27.55629">
        <ele>223.747</ele>
        <time>2020-12-13T07:43:45Z</time>
      </trkpt>
      <trkpt lat="37.50194" lon="27.55629">
        <ele>223.69</ele>
        <time>2020-12-13T07:43:46Z</time>
      </trkpt>
      <trkpt lat="37.50194" lon="27.55629">
        <ele>223.69</ele>
        <time>2020-12-13T07:43:47Z</time>
      </trkpt>
      <trkpt lat="37.50194" lon="27.55629">
        <ele>223.69</ele>
        <time>2020-12-13T07:43:48Z</time>
      </trkpt>
      <trkpt lat="37.50194" lon="27.55629">
        <ele>223.69</ele>
        <time>2020-12-13T07:43:49Z</time>
      </trkpt>
      <trkpt lat="37.50196" lon="27.5563">
        <ele>223.691</ele>
        <time>2020-12-13T07:43:50Z</time>
      </trkpt>
      <trkpt lat="37.50198" lon="27.55631">
        <ele>223.736</ele>
        <time>2020-12-13T07:43:51Z</time>
      </trkpt>
      <trkpt lat="37.502" lon="27.55631">
        <ele>223.761</ele>
        <time>2020-12-13T07:43:52Z</time>
      </trkpt>
      <trkpt lat="37.50202" lon="27.55632">
        <ele>223.775</ele>
        <time>2020-12-13T07:43:53Z</time>
      </trkpt>
      <trkpt lat="37.50204" lon="27.55633">
        <ele>223.794</ele>
        <time>2020-12-13T07:43:54Z</time>
      </trkpt>
      <trkpt lat="37.50206" lon="27.55633">
        <ele>223.825</ele>
        <time>2020-12-13T07:43:55Z</time>
      </trkpt>
      <trkpt lat="37.50208" lon="27.55634">
        <ele>223.837</ele>
        <time>2020-12-13T07:43:56Z</time>
      </trkpt>
      <trkpt lat="37.50208" lon="27.55634">
        <ele>223.837</ele>
        <time>2020-12-13T07:43:57Z</time>
      </trkpt>
      <trkpt lat="37.5021" lon="27.55636">
        <ele>224.225</ele>
        <time>2020-12-13T07:43:58Z</time>
      </trkpt>
      <trkpt lat="37.5021" lon="27.55636">
        <ele>224.225</ele>
        <time>2020-12-13T07:43:59Z</time>
      </trkpt>
      <trkpt lat="37.50212" lon="27.55639">
        <ele>224.692</ele>
        <time>2020-12-13T07:44:00Z</time>
      </trkpt>
      <trkpt lat="37.50212" lon="27.55639">
        <ele>224.692</ele>
        <time>2020-12-13T07:44:01Z</time>
      </trkpt>
      <trkpt lat="37.50212" lon="27.55639">
        <ele>224.692</ele>
        <time>2020-12-13T07:44:02Z</time>
      </trkpt>
      <trkpt lat="37.50213" lon="27.55642">
        <ele>225.401</ele>
        <time>2020-12-13T07:44:03Z</time>
      </trkpt>
      <trkpt lat="37.50213" lon="27.55642">
        <ele>225.401</ele>
        <time>2020-12-13T07:44:04Z</time>
      </trkpt>
      <trkpt lat="37.50216" lon="27.55644">
        <ele>225.713</ele>
        <time>2020-12-13T07:44:05Z</time>
      </trkpt>
      <trkpt lat="37.50216" lon="27.55644">
        <ele>225.713</ele>
        <time>2020-12-13T07:44:06Z</time>
      </trkpt>
      <trkpt lat="37.50218" lon="27.55645">
        <ele>226.114</ele>
        <time>2020-12-13T07:44:07Z</time>
      </trkpt>
      <trkpt lat="37.50218" lon="27.55645">
        <ele>226.114</ele>
        <time>2020-12-13T07:44:08Z</time>
      </trkpt>
      <trkpt lat="37.5022" lon="27.55648">
        <ele>226.632</ele>
        <time>2020-12-13T07:44:09Z</time>
      </trkpt>
      <trkpt lat="37.5022" lon="27.55648">
        <ele>226.632</ele>
        <time>2020-12-13T07:44:10Z</time>
      </trkpt>
      <trkpt lat="37.5022" lon="27.55648">
        <ele>226.632</ele>
        <time>2020-12-13T07:44:11Z</time>
      </trkpt>
      <trkpt lat="37.50222" lon="27.55651">
        <ele>227.369</ele>
        <time>2020-12-13T07:44:12Z</time>
      </trkpt>
      <trkpt lat="37.50222" lon="27.55651">
        <ele>227.369</ele>
        <time>2020-12-13T07:44:13Z</time>
      </trkpt>
      <trkpt lat="37.50224" lon="27.55653">
        <ele>228.246</ele>
        <time>2020-12-13T07:44:14Z</time>
      </trkpt>
      <trkpt lat="37.50226" lon="27.55656">
        <ele>228.983</ele>
        <time>2020-12-13T07:44:15Z</time>
      </trkpt>
      <trkpt lat="37.50227" lon="27.55658">
        <ele>229.663</ele>
        <time>2020-12-13T07:44:16Z</time>
      </trkpt>
      <trkpt lat="37.50228" lon="27.5566">
        <ele>230.395</ele>
        <time>2020-12-13T07:44:17Z</time>
      </trkpt>
      <trkpt lat="37.50229" lon="27.55662">
        <ele>231.041</ele>
        <time>2020-12-13T07:44:18Z</time>
      </trkpt>
      <trkpt lat="37.50231" lon="27.55664">
        <ele>231.642</ele>
        <time>2020-12-13T07:44:19Z</time>
      </trkpt>
      <trkpt lat="37.50232" lon="27.55667">
        <ele>232.295</ele>
        <time>2020-12-13T07:44:20Z</time>
      </trkpt>
      <trkpt lat="37.50233" lon="27.55669">
        <ele>232.822</ele>
        <time>2020-12-13T07:44:21Z</time>
      </trkpt>
      <trkpt lat="37.50233" lon="27.55669">
        <ele>232.822</ele>
        <time>2020-12-13T07:44:22Z</time>
      </trkpt>
      <trkpt lat="37.50235" lon="27.55673">
        <ele>233.927</ele>
        <time>2020-12-13T07:44:23Z</time>
      </trkpt>
      <trkpt lat="37.50235" lon="27.55676">
        <ele>234.528</ele>
        <time>2020-12-13T07:44:24Z</time>
      </trkpt>
      <trkpt lat="37.50235" lon="27.55676">
        <ele>234.528</ele>
        <time>2020-12-13T07:44:25Z</time>
      </trkpt>
      <trkpt lat="37.50235" lon="27.55676">
        <ele>234.528</ele>
        <time>2020-12-13T07:44:26Z</time>
      </trkpt>
      <trkpt lat="37.50233" lon="27.5568">
        <ele>235.375</ele>
        <time>2020-12-13T07:44:27Z</time>
      </trkpt>
      <trkpt lat="37.50233" lon="27.5568">
        <ele>235.375</ele>
        <time>2020-12-13T07:44:28Z</time>
      </trkpt>
      <trkpt lat="37.5023" lon="27.5568">
        <ele>235.464</ele>
        <time>2020-12-13T07:44:29Z</time>
      </trkpt>
      <trkpt lat="37.5023" lon="27.5568">
        <ele>235.464</ele>
        <time>2020-12-13T07:44:30Z</time>
      </trkpt>
      <trkpt lat="37.50227" lon="27.55682">
        <ele>235.726</ele>
        <time>2020-12-13T07:44:31Z</time>
      </trkpt>
      <trkpt lat="37.50227" lon="27.55682">
        <ele>235.726</ele>
        <time>2020-12-13T07:44:32Z</time>
      </trkpt>
      <trkpt lat="37.50227" lon="27.55682">
        <ele>235.726</ele>
        <time>2020-12-13T07:44:33Z</time>
      </trkpt>
      <trkpt lat="37.50227" lon="27.55682">
        <ele>235.726</ele>
        <time>2020-12-13T07:44:34Z</time>
      </trkpt>
      <trkpt lat="37.50224" lon="27.55686">
        <ele>236.941</ele>
        <time>2020-12-13T07:44:35Z</time>
      </trkpt>
      <trkpt lat="37.50224" lon="27.55687">
        <ele>237.096</ele>
        <time>2020-12-13T07:44:36Z</time>
      </trkpt>
      <trkpt lat="37.50223" lon="27.55688">
        <ele>237.229</ele>
        <time>2020-12-13T07:44:37Z</time>
      </trkpt>
      <trkpt lat="37.50223" lon="27.55688">
        <ele>237.387</ele>
        <time>2020-12-13T07:44:38Z</time>
      </trkpt>
      <trkpt lat="37.50222" lon="27.55689">
        <ele>237.524</ele>
        <time>2020-12-13T07:44:39Z</time>
      </trkpt>
      <trkpt lat="37.5022" lon="27.5569">
        <ele>237.614</ele>
        <time>2020-12-13T07:44:40Z</time>
      </trkpt>
      <trkpt lat="37.5022" lon="27.5569">
        <ele>237.614</ele>
        <time>2020-12-13T07:44:41Z</time>
      </trkpt>
      <trkpt lat="37.50218" lon="27.55689">
        <ele>237.232</ele>
        <time>2020-12-13T07:44:42Z</time>
      </trkpt>
      <trkpt lat="37.50218" lon="27.55689">
        <ele>237.232</ele>
        <time>2020-12-13T07:44:43Z</time>
      </trkpt>
      <trkpt lat="37.50216" lon="27.55688">
        <ele>236.802</ele>
        <time>2020-12-13T07:44:44Z</time>
      </trkpt>
      <trkpt lat="37.50216" lon="27.55688">
        <ele>236.802</ele>
        <time>2020-12-13T07:44:45Z</time>
      </trkpt>
      <trkpt lat="37.50216" lon="27.55688">
        <ele>236.802</ele>
        <time>2020-12-13T07:44:46Z</time>
      </trkpt>
      <trkpt lat="37.50214" lon="27.55688">
        <ele>236.76</ele>
        <time>2020-12-13T07:44:47Z</time>
      </trkpt>
      <trkpt lat="37.50214" lon="27.55688">
        <ele>236.76</ele>
        <time>2020-12-13T07:44:48Z</time>
      </trkpt>
      <trkpt lat="37.50214" lon="27.55688">
        <ele>236.76</ele>
        <time>2020-12-13T07:44:49Z</time>
      </trkpt>
      <trkpt lat="37.50212" lon="27.55691">
        <ele>237.181</ele>
        <time>2020-12-13T07:44:50Z</time>
      </trkpt>
      <trkpt lat="37.50212" lon="27.55691">
        <ele>237.181</ele>
        <time>2020-12-13T07:44:51Z</time>
      </trkpt>
      <trkpt lat="37.50212" lon="27.55691">
        <ele>237.181</ele>
        <time>2020-12-13T07:44:52Z</time>
      </trkpt>
      <trkpt lat="37.50212" lon="27.55691">
        <ele>237.181</ele>
        <time>2020-12-13T07:44:53Z</time>
      </trkpt>
      <trkpt lat="37.50212" lon="27.55691">
        <ele>237.181</ele>
        <time>2020-12-13T07:44:54Z</time>
      </trkpt>
      <trkpt lat="37.50206" lon="27.55696">
        <ele>237.426</ele>
        <time>2020-12-13T07:44:55Z</time>
      </trkpt>
      <trkpt lat="37.50206" lon="27.55696">
        <ele>237.37</ele>
        <time>2020-12-13T07:44:56Z</time>
      </trkpt>
      <trkpt lat="37.50205" lon="27.55696">
        <ele>237.293</ele>
        <time>2020-12-13T07:44:57Z</time>
      </trkpt>
      <trkpt lat="37.50204" lon="27.55697">
        <ele>237.237</ele>
        <time>2020-12-13T07:44:58Z</time>
      </trkpt>
      <trkpt lat="37.50203" lon="27.55697">
        <ele>237.172</ele>
        <time>2020-12-13T07:44:59Z</time>
      </trkpt>
      <trkpt lat="37.50201" lon="27.55698">
        <ele>237.01</ele>
        <time>2020-12-13T07:45:00Z</time>
      </trkpt>
      <trkpt lat="37.50201" lon="27.55698">
        <ele>237.01</ele>
        <time>2020-12-13T07:45:01Z</time>
      </trkpt>
      <trkpt lat="37.50197" lon="27.55699">
        <ele>236.795</ele>
        <time>2020-12-13T07:45:02Z</time>
      </trkpt>
      <trkpt lat="37.50197" lon="27.55699">
        <ele>236.795</ele>
        <time>2020-12-13T07:45:03Z</time>
      </trkpt>
      <trkpt lat="37.50195" lon="27.557">
        <ele>236.708</ele>
        <time>2020-12-13T07:45:04Z</time>
      </trkpt>
      <trkpt lat="37.50195" lon="27.557">
        <ele>236.708</ele>
        <time>2020-12-13T07:45:05Z</time>
      </trkpt>
      <trkpt lat="37.50195" lon="27.557">
        <ele>236.708</ele>
        <time>2020-12-13T07:45:06Z</time>
      </trkpt>
      <trkpt lat="37.50192" lon="27.55703">
        <ele>236.948</ele>
        <time>2020-12-13T07:45:07Z</time>
      </trkpt>
      <trkpt lat="37.50192" lon="27.55703">
        <ele>236.948</ele>
        <time>2020-12-13T07:45:08Z</time>
      </trkpt>
      <trkpt lat="37.50191" lon="27.55704">
        <ele>237.156</ele>
        <time>2020-12-13T07:45:09Z</time>
      </trkpt>
      <trkpt lat="37.50191" lon="27.55704">
        <ele>237.156</ele>
        <time>2020-12-13T07:45:10Z</time>
      </trkpt>
      <trkpt lat="37.50191" lon="27.55704">
        <ele>237.156</ele>
        <time>2020-12-13T07:45:11Z</time>
      </trkpt>
      <trkpt lat="37.50187" lon="27.55708">
        <ele>237.607</ele>
        <time>2020-12-13T07:45:12Z</time>
      </trkpt>
      <trkpt lat="37.50187" lon="27.55708">
        <ele>237.607</ele>
        <time>2020-12-13T07:45:13Z</time>
      </trkpt>
      <trkpt lat="37.50187" lon="27.55708">
        <ele>237.607</ele>
        <time>2020-12-13T07:45:14Z</time>
      </trkpt>
      <trkpt lat="37.50187" lon="27.55708">
        <ele>237.607</ele>
        <time>2020-12-13T07:45:15Z</time>
      </trkpt>
      <trkpt lat="37.50187" lon="27.55708">
        <ele>237.607</ele>
        <time>2020-12-13T07:45:16Z</time>
      </trkpt>
      <trkpt lat="37.5018" lon="27.55713">
        <ele>238.132</ele>
        <time>2020-12-13T07:45:17Z</time>
      </trkpt>
      <trkpt lat="37.50179" lon="27.55713">
        <ele>238.214</ele>
        <time>2020-12-13T07:45:18Z</time>
      </trkpt>
      <trkpt lat="37.50178" lon="27.55714">
        <ele>238.301</ele>
        <time>2020-12-13T07:45:19Z</time>
      </trkpt>
      <trkpt lat="37.50177" lon="27.55715">
        <ele>238.38</ele>
        <time>2020-12-13T07:45:20Z</time>
      </trkpt>
      <trkpt lat="37.50177" lon="27.55716">
        <ele>238.455</ele>
        <time>2020-12-13T07:45:21Z</time>
      </trkpt>
      <trkpt lat="37.50177" lon="27.55716">
        <ele>238.455</ele>
        <time>2020-12-13T07:45:22Z</time>
      </trkpt>
      <trkpt lat="37.50174" lon="27.55718">
        <ele>238.632</ele>
        <time>2020-12-13T07:45:23Z</time>
      </trkpt>
      <trkpt lat="37.50174" lon="27.55718">
        <ele>238.632</ele>
        <time>2020-12-13T07:45:24Z</time>
      </trkpt>
      <trkpt lat="37.50172" lon="27.5572">
        <ele>238.848</ele>
        <time>2020-12-13T07:45:25Z</time>
      </trkpt>
      <trkpt lat="37.50172" lon="27.5572">
        <ele>238.848</ele>
        <time>2020-12-13T07:45:26Z</time>
      </trkpt>
      <trkpt lat="37.50171" lon="27.55723">
        <ele>238.989</ele>
        <time>2020-12-13T07:45:27Z</time>
      </trkpt>
      <trkpt lat="37.50171" lon="27.55723">
        <ele>238.989</ele>
        <time>2020-12-13T07:45:28Z</time>
      </trkpt>
      <trkpt lat="37.5017" lon="27.55727">
        <ele>238.893</ele>
        <time>2020-12-13T07:45:29Z</time>
      </trkpt>
      <trkpt lat="37.50169" lon="27.55729">
        <ele>238.807</ele>
        <time>2020-12-13T07:45:30Z</time>
      </trkpt>
      <trkpt lat="37.50167" lon="27.55731">
        <ele>238.696</ele>
        <time>2020-12-13T07:45:31Z</time>
      </trkpt>
      <trkpt lat="37.50165" lon="27.55732">
        <ele>238.644</ele>
        <time>2020-12-13T07:45:32Z</time>
      </trkpt>
      <trkpt lat="37.50163" lon="27.55733">
        <ele>238.575</ele>
        <time>2020-12-13T07:45:33Z</time>
      </trkpt>
      <trkpt lat="37.50161" lon="27.55735">
        <ele>238.489</ele>
        <time>2020-12-13T07:45:34Z</time>
      </trkpt>
      <trkpt lat="37.50159" lon="27.55736">
        <ele>238.349</ele>
        <time>2020-12-13T07:45:35Z</time>
      </trkpt>
      <trkpt lat="37.50157" lon="27.55738">
        <ele>238.192</ele>
        <time>2020-12-13T07:45:36Z</time>
      </trkpt>
      <trkpt lat="37.50155" lon="27.55739">
        <ele>238.035</ele>
        <time>2020-12-13T07:45:37Z</time>
      </trkpt>
      <trkpt lat="37.50154" lon="27.55741">
        <ele>237.859</ele>
        <time>2020-12-13T07:45:38Z</time>
      </trkpt>
      <trkpt lat="37.50153" lon="27.55743">
        <ele>237.664</ele>
        <time>2020-12-13T07:45:39Z</time>
      </trkpt>
      <trkpt lat="37.50153" lon="27.55743">
        <ele>237.664</ele>
        <time>2020-12-13T07:45:40Z</time>
      </trkpt>
      <trkpt lat="37.50149" lon="27.55745">
        <ele>237.22</ele>
        <time>2020-12-13T07:45:41Z</time>
      </trkpt>
      <trkpt lat="37.50147" lon="27.55746">
        <ele>236.994</ele>
        <time>2020-12-13T07:45:42Z</time>
      </trkpt>
      <trkpt lat="37.50145" lon="27.55748">
        <ele>236.747</ele>
        <time>2020-12-13T07:45:43Z</time>
      </trkpt>
      <trkpt lat="37.50143" lon="27.55749">
        <ele>236.502</ele>
        <time>2020-12-13T07:45:44Z</time>
      </trkpt>
      <trkpt lat="37.50141" lon="27.5575">
        <ele>236.24</ele>
        <time>2020-12-13T07:45:45Z</time>
      </trkpt>
      <trkpt lat="37.5014" lon="27.55751">
        <ele>235.938</ele>
        <time>2020-12-13T07:45:46Z</time>
      </trkpt>
      <trkpt lat="37.5014" lon="27.55751">
        <ele>235.938</ele>
        <time>2020-12-13T07:45:47Z</time>
      </trkpt>
      <trkpt lat="37.50137" lon="27.55753">
        <ele>235.365</ele>
        <time>2020-12-13T07:45:48Z</time>
      </trkpt>
      <trkpt lat="37.50137" lon="27.55753">
        <ele>235.365</ele>
        <time>2020-12-13T07:45:49Z</time>
      </trkpt>
      <trkpt lat="37.50135" lon="27.55753">
        <ele>235.149</ele>
        <time>2020-12-13T07:45:50Z</time>
      </trkpt>
      <trkpt lat="37.50135" lon="27.55753">
        <ele>235.149</ele>
        <time>2020-12-13T07:45:51Z</time>
      </trkpt>
      <trkpt lat="37.50135" lon="27.55753">
        <ele>235.149</ele>
        <time>2020-12-13T07:45:52Z</time>
      </trkpt>
      <trkpt lat="37.50132" lon="27.55752">
        <ele>234.962</ele>
        <time>2020-12-13T07:45:53Z</time>
      </trkpt>
      <trkpt lat="37.5013" lon="27.55753">
        <ele>234.676</ele>
        <time>2020-12-13T07:45:54Z</time>
      </trkpt>
      <trkpt lat="37.50128" lon="27.55753">
        <ele>234.478</ele>
        <time>2020-12-13T07:45:55Z</time>
      </trkpt>
      <trkpt lat="37.50126" lon="27.55753">
        <ele>234.246</ele>
        <time>2020-12-13T07:45:56Z</time>
      </trkpt>
      <trkpt lat="37.50123" lon="27.55753">
        <ele>233.943</ele>
        <time>2020-12-13T07:45:57Z</time>
      </trkpt>
      <trkpt lat="37.50121" lon="27.55753">
        <ele>233.716</ele>
        <time>2020-12-13T07:45:58Z</time>
      </trkpt>
      <trkpt lat="37.50119" lon="27.55753">
        <ele>233.519</ele>
        <time>2020-12-13T07:45:59Z</time>
      </trkpt>
      <trkpt lat="37.50117" lon="27.55753">
        <ele>233.378</ele>
        <time>2020-12-13T07:46:00Z</time>
      </trkpt>
      <trkpt lat="37.50117" lon="27.55753">
        <ele>233.378</ele>
        <time>2020-12-13T07:46:01Z</time>
      </trkpt>
      <trkpt lat="37.50115" lon="27.55752">
        <ele>233.208</ele>
        <time>2020-12-13T07:46:02Z</time>
      </trkpt>
      <trkpt lat="37.50113" lon="27.55751">
        <ele>233.028</ele>
        <time>2020-12-13T07:46:03Z</time>
      </trkpt>
      <trkpt lat="37.50113" lon="27.55751">
        <ele>233.028</ele>
        <time>2020-12-13T07:46:04Z</time>
      </trkpt>
      <trkpt lat="37.5011" lon="27.55752">
        <ele>232.707</ele>
        <time>2020-12-13T07:46:05Z</time>
      </trkpt>
      <trkpt lat="37.5011" lon="27.55752">
        <ele>232.707</ele>
        <time>2020-12-13T07:46:06Z</time>
      </trkpt>
      <trkpt lat="37.50107" lon="27.55752">
        <ele>232.361</ele>
        <time>2020-12-13T07:46:07Z</time>
      </trkpt>
      <trkpt lat="37.50107" lon="27.55752">
        <ele>232.361</ele>
        <time>2020-12-13T07:46:08Z</time>
      </trkpt>
      <trkpt lat="37.50105" lon="27.55752">
        <ele>232.092</ele>
        <time>2020-12-13T07:46:09Z</time>
      </trkpt>
      <trkpt lat="37.50105" lon="27.55752">
        <ele>232.092</ele>
        <time>2020-12-13T07:46:10Z</time>
      </trkpt>
      <trkpt lat="37.50105" lon="27.55752">
        <ele>232.092</ele>
        <time>2020-12-13T07:46:11Z</time>
      </trkpt>
      <trkpt lat="37.50103" lon="27.55753">
        <ele>231.789</ele>
        <time>2020-12-13T07:46:12Z</time>
      </trkpt>
      <trkpt lat="37.50103" lon="27.55753">
        <ele>231.789</ele>
        <time>2020-12-13T07:46:13Z</time>
      </trkpt>
      <trkpt lat="37.50103" lon="27.55753">
        <ele>231.789</ele>
        <time>2020-12-13T07:46:14Z</time>
      </trkpt>
      <trkpt lat="37.50101" lon="27.55755">
        <ele>231.443</ele>
        <time>2020-12-13T07:46:15Z</time>
      </trkpt>
      <trkpt lat="37.50101" lon="27.55755">
        <ele>231.443</ele>
        <time>2020-12-13T07:46:16Z</time>
      </trkpt>
      <trkpt lat="37.50101" lon="27.55755">
        <ele>231.443</ele>
        <time>2020-12-13T07:46:17Z</time>
      </trkpt>
      <trkpt lat="37.50099" lon="27.55754">
        <ele>231.293</ele>
        <time>2020-12-13T07:46:18Z</time>
      </trkpt>
      <trkpt lat="37.50099" lon="27.55754">
        <ele>231.293</ele>
        <time>2020-12-13T07:46:19Z</time>
      </trkpt>
      <trkpt lat="37.50099" lon="27.55754">
        <ele>231.293</ele>
        <time>2020-12-13T07:46:20Z</time>
      </trkpt>
      <trkpt lat="37.50099" lon="27.55754">
        <ele>231.293</ele>
        <time>2020-12-13T07:46:21Z</time>
      </trkpt>
      <trkpt lat="37.50099" lon="27.55754">
        <ele>231.293</ele>
        <time>2020-12-13T07:46:22Z</time>
      </trkpt>
      <trkpt lat="37.50099" lon="27.55754">
        <ele>231.293</ele>
        <time>2020-12-13T07:46:23Z</time>
      </trkpt>
      <trkpt lat="37.50097" lon="27.55753">
        <ele>231.195</ele>
        <time>2020-12-13T07:46:24Z</time>
      </trkpt>
      <trkpt lat="37.50097" lon="27.55753">
        <ele>231.195</ele>
        <time>2020-12-13T07:46:25Z</time>
      </trkpt>
      <trkpt lat="37.50095" lon="27.55753">
        <ele>230.946</ele>
        <time>2020-12-13T07:46:26Z</time>
      </trkpt>
      <trkpt lat="37.50095" lon="27.55753">
        <ele>230.946</ele>
        <time>2020-12-13T07:46:27Z</time>
      </trkpt>
      <trkpt lat="37.50093" lon="27.55753">
        <ele>230.784</ele>
        <time>2020-12-13T07:46:28Z</time>
      </trkpt>
      <trkpt lat="37.50093" lon="27.55753">
        <ele>230.784</ele>
        <time>2020-12-13T07:46:29Z</time>
      </trkpt>
      <trkpt lat="37.50093" lon="27.55753">
        <ele>230.784</ele>
        <time>2020-12-13T07:46:30Z</time>
      </trkpt>
      <trkpt lat="37.50091" lon="27.55753">
        <ele>230.526</ele>
        <time>2020-12-13T07:46:31Z</time>
      </trkpt>
      <trkpt lat="37.50091" lon="27.55753">
        <ele>230.526</ele>
        <time>2020-12-13T07:46:32Z</time>
      </trkpt>
      <trkpt lat="37.50091" lon="27.55753">
        <ele>230.526</ele>
        <time>2020-12-13T07:46:33Z</time>
      </trkpt>
      <trkpt lat="37.50089" lon="27.55752">
        <ele>230.32</ele>
        <time>2020-12-13T07:46:34Z</time>
      </trkpt>
      <trkpt lat="37.50089" lon="27.55752">
        <ele>230.32</ele>
        <time>2020-12-13T07:46:35Z</time>
      </trkpt>
      <trkpt lat="37.50089" lon="27.55752">
        <ele>230.32</ele>
        <time>2020-12-13T07:46:36Z</time>
      </trkpt>
      <trkpt lat="37.50089" lon="27.55752">
        <ele>230.32</ele>
        <time>2020-12-13T07:46:37Z</time>
      </trkpt>
      <trkpt lat="37.50088" lon="27.5575">
        <ele>230.472</ele>
        <time>2020-12-13T07:46:38Z</time>
      </trkpt>
      <trkpt lat="37.50088" lon="27.5575">
        <ele>230.472</ele>
        <time>2020-12-13T07:46:39Z</time>
      </trkpt>
      <trkpt lat="37.50088" lon="27.5575">
        <ele>230.472</ele>
        <time>2020-12-13T07:46:40Z</time>
      </trkpt>
      <trkpt lat="37.50086" lon="27.5575">
        <ele>230.327</ele>
        <time>2020-12-13T07:46:41Z</time>
      </trkpt>
      <trkpt lat="37.50086" lon="27.5575">
        <ele>230.327</ele>
        <time>2020-12-13T07:46:42Z</time>
      </trkpt>
      <trkpt lat="37.50084" lon="27.55749">
        <ele>230.138</ele>
        <time>2020-12-13T07:46:43Z</time>
      </trkpt>
      <trkpt lat="37.50084" lon="27.55749">
        <ele>230.138</ele>
        <time>2020-12-13T07:46:44Z</time>
      </trkpt>
      <trkpt lat="37.50084" lon="27.55749">
        <ele>230.138</ele>
        <time>2020-12-13T07:46:45Z</time>
      </trkpt>
      <trkpt lat="37.50082" lon="27.55748">
        <ele>229.872</ele>
        <time>2020-12-13T07:46:46Z</time>
      </trkpt>
      <trkpt lat="37.50082" lon="27.55748">
        <ele>229.872</ele>
        <time>2020-12-13T07:46:47Z</time>
      </trkpt>
      <trkpt lat="37.50082" lon="27.55748">
        <ele>229.872</ele>
        <time>2020-12-13T07:46:48Z</time>
      </trkpt>
      <trkpt lat="37.50079" lon="27.55748">
        <ele>229.355</ele>
        <time>2020-12-13T07:46:49Z</time>
      </trkpt>
      <trkpt lat="37.50079" lon="27.55748">
        <ele>229.355</ele>
        <time>2020-12-13T07:46:50Z</time>
      </trkpt>
      <trkpt lat="37.50077" lon="27.55749">
        <ele>228.831</ele>
        <time>2020-12-13T07:46:51Z</time>
      </trkpt>
      <trkpt lat="37.50077" lon="27.55749">
        <ele>228.831</ele>
        <time>2020-12-13T07:46:52Z</time>
      </trkpt>
      <trkpt lat="37.50077" lon="27.55749">
        <ele>228.831</ele>
        <time>2020-12-13T07:46:53Z</time>
      </trkpt>
      <trkpt lat="37.50075" lon="27.55749">
        <ele>228.483</ele>
        <time>2020-12-13T07:46:54Z</time>
      </trkpt>
      <trkpt lat="37.50075" lon="27.55749">
        <ele>228.483</ele>
        <time>2020-12-13T07:46:55Z</time>
      </trkpt>
      <trkpt lat="37.50075" lon="27.55749">
        <ele>228.483</ele>
        <time>2020-12-13T07:46:56Z</time>
      </trkpt>
      <trkpt lat="37.50075" lon="27.55749">
        <ele>228.483</ele>
        <time>2020-12-13T07:46:57Z</time>
      </trkpt>
      <trkpt lat="37.50073" lon="27.55747">
        <ele>228.21</ele>
        <time>2020-12-13T07:46:58Z</time>
      </trkpt>
      <trkpt lat="37.50073" lon="27.55747">
        <ele>228.21</ele>
        <time>2020-12-13T07:46:59Z</time>
      </trkpt>
      <trkpt lat="37.50073" lon="27.55747">
        <ele>228.21</ele>
        <time>2020-12-13T07:47:00Z</time>
      </trkpt>
      <trkpt lat="37.5007" lon="27.55749">
        <ele>227.696</ele>
        <time>2020-12-13T07:47:01Z</time>
      </trkpt>
      <trkpt lat="37.5007" lon="27.55751">
        <ele>227.419</ele>
        <time>2020-12-13T07:47:02Z</time>
      </trkpt>
      <trkpt lat="37.5007" lon="27.55751">
        <ele>227.419</ele>
        <time>2020-12-13T07:47:03Z</time>
      </trkpt>
      <trkpt lat="37.50068" lon="27.55755">
        <ele>226.817</ele>
        <time>2020-12-13T07:47:04Z</time>
      </trkpt>
      <trkpt lat="37.50068" lon="27.55755">
        <ele>226.817</ele>
        <time>2020-12-13T07:47:05Z</time>
      </trkpt>
      <trkpt lat="37.50066" lon="27.55756">
        <ele>226.35</ele>
        <time>2020-12-13T07:47:06Z</time>
      </trkpt>
      <trkpt lat="37.50066" lon="27.55756">
        <ele>226.35</ele>
        <time>2020-12-13T07:47:07Z</time>
      </trkpt>
      <trkpt lat="37.50066" lon="27.55756">
        <ele>226.35</ele>
        <time>2020-12-13T07:47:08Z</time>
      </trkpt>
      <trkpt lat="37.50064" lon="27.55757">
        <ele>225.974</ele>
        <time>2020-12-13T07:47:09Z</time>
      </trkpt>
      <trkpt lat="37.50064" lon="27.55757">
        <ele>225.974</ele>
        <time>2020-12-13T07:47:10Z</time>
      </trkpt>
      <trkpt lat="37.50064" lon="27.55757">
        <ele>225.974</ele>
        <time>2020-12-13T07:47:11Z</time>
      </trkpt>
      <trkpt lat="37.50064" lon="27.55757">
        <ele>225.974</ele>
        <time>2020-12-13T07:47:12Z</time>
      </trkpt>
      <trkpt lat="37.50064" lon="27.55757">
        <ele>225.974</ele>
        <time>2020-12-13T07:47:13Z</time>
      </trkpt>
      <trkpt lat="37.50064" lon="27.55757">
        <ele>225.974</ele>
        <time>2020-12-13T07:47:14Z</time>
      </trkpt>
      <trkpt lat="37.50063" lon="27.55759">
        <ele>225.563</ele>
        <time>2020-12-13T07:47:15Z</time>
      </trkpt>
      <trkpt lat="37.50063" lon="27.55759">
        <ele>225.563</ele>
        <time>2020-12-13T07:47:16Z</time>
      </trkpt>
      <trkpt lat="37.50063" lon="27.55759">
        <ele>225.563</ele>
        <time>2020-12-13T07:47:17Z</time>
      </trkpt>
      <trkpt lat="37.50063" lon="27.55759">
        <ele>225.563</ele>
        <time>2020-12-13T07:47:18Z</time>
      </trkpt>
      <trkpt lat="37.50063" lon="27.55759">
        <ele>225.563</ele>
        <time>2020-12-13T07:47:19Z</time>
      </trkpt>
      <trkpt lat="37.50063" lon="27.55759">
        <ele>225.563</ele>
        <time>2020-12-13T07:47:20Z</time>
      </trkpt>
      <trkpt lat="37.50063" lon="27.55761">
        <ele>225.467</ele>
        <time>2020-12-13T07:47:21Z</time>
      </trkpt>
      <trkpt lat="37.50063" lon="27.55761">
        <ele>225.467</ele>
        <time>2020-12-13T07:47:22Z</time>
      </trkpt>
      <trkpt lat="37.50063" lon="27.55761">
        <ele>225.467</ele>
        <time>2020-12-13T07:47:23Z</time>
      </trkpt>
      <trkpt lat="37.50063" lon="27.55761">
        <ele>225.467</ele>
        <time>2020-12-13T07:47:24Z</time>
      </trkpt>
      <trkpt lat="37.50065" lon="27.5576">
        <ele>225.84</ele>
        <time>2020-12-13T07:47:25Z</time>
      </trkpt>
      <trkpt lat="37.50065" lon="27.5576">
        <ele>225.84</ele>
        <time>2020-12-13T07:47:26Z</time>
      </trkpt>
      <trkpt lat="37.50065" lon="27.5576">
        <ele>225.84</ele>
        <time>2020-12-13T07:47:27Z</time>
      </trkpt>
      <trkpt lat="37.50065" lon="27.5576">
        <ele>225.84</ele>
        <time>2020-12-13T07:47:28Z</time>
      </trkpt>
      <trkpt lat="37.50065" lon="27.5576">
        <ele>225.84</ele>
        <time>2020-12-13T07:47:29Z</time>
      </trkpt>
      <trkpt lat="37.50065" lon="27.5576">
        <ele>225.84</ele>
        <time>2020-12-13T07:47:30Z</time>
      </trkpt>
      <trkpt lat="37.50065" lon="27.5576">
        <ele>225.84</ele>
        <time>2020-12-13T07:47:31Z</time>
      </trkpt>
      <trkpt lat="37.50065" lon="27.5576">
        <ele>225.84</ele>
        <time>2020-12-13T07:47:32Z</time>
      </trkpt>
      <trkpt lat="37.50065" lon="27.5576">
        <ele>225.84</ele>
        <time>2020-12-13T07:47:33Z</time>
      </trkpt>
      <trkpt lat="37.50065" lon="27.5576">
        <ele>225.84</ele>
        <time>2020-12-13T07:47:34Z</time>
      </trkpt>
      <trkpt lat="37.50065" lon="27.5576">
        <ele>225.84</ele>
        <time>2020-12-13T07:47:35Z</time>
      </trkpt>
      <trkpt lat="37.50065" lon="27.5576">
        <ele>225.84</ele>
        <time>2020-12-13T07:47:36Z</time>
      </trkpt>
      <trkpt lat="37.50065" lon="27.5576">
        <ele>225.84</ele>
        <time>2020-12-13T07:47:37Z</time>
      </trkpt>
      <trkpt lat="37.50066" lon="27.55763">
        <ele>225.827</ele>
        <time>2020-12-13T07:47:38Z</time>
      </trkpt>
      <trkpt lat="37.50066" lon="27.55763">
        <ele>225.827</ele>
        <time>2020-12-13T07:47:39Z</time>
      </trkpt>
      <trkpt lat="37.50066" lon="27.55763">
        <ele>225.827</ele>
        <time>2020-12-13T07:47:40Z</time>
      </trkpt>
      <trkpt lat="37.50066" lon="27.55763">
        <ele>225.827</ele>
        <time>2020-12-13T07:47:41Z</time>
      </trkpt>
      <trkpt lat="37.50066" lon="27.55763">
        <ele>225.827</ele>
        <time>2020-12-13T07:47:42Z</time>
      </trkpt>
      <trkpt lat="37.50067" lon="27.55763">
        <ele>225.883</ele>
        <time>2020-12-13T07:47:43Z</time>
      </trkpt>
      <trkpt lat="37.50067" lon="27.55763">
        <ele>225.939</ele>
        <time>2020-12-13T07:47:44Z</time>
      </trkpt>
      <trkpt lat="37.50068" lon="27.55763">
        <ele>225.994</ele>
        <time>2020-12-13T07:47:45Z</time>
      </trkpt>
      <trkpt lat="37.50068" lon="27.55764">
        <ele>226.039</ele>
        <time>2020-12-13T07:47:46Z</time>
      </trkpt>
      <trkpt lat="37.50069" lon="27.55764">
        <ele>226.079</ele>
        <time>2020-12-13T07:47:47Z</time>
      </trkpt>
      <trkpt lat="37.50069" lon="27.55764">
        <ele>226.133</ele>
        <time>2020-12-13T07:47:48Z</time>
      </trkpt>
      <trkpt lat="37.5007" lon="27.55765">
        <ele>226.186</ele>
        <time>2020-12-13T07:47:49Z</time>
      </trkpt>
      <trkpt lat="37.5007" lon="27.55765">
        <ele>226.239</ele>
        <time>2020-12-13T07:47:50Z</time>
      </trkpt>
      <trkpt lat="37.50071" lon="27.55765">
        <ele>226.292</ele>
        <time>2020-12-13T07:47:51Z</time>
      </trkpt>
      <trkpt lat="37.50071" lon="27.55766">
        <ele>226.335</ele>
        <time>2020-12-13T07:47:52Z</time>
      </trkpt>
      <trkpt lat="37.50072" lon="27.55766">
        <ele>226.388</ele>
        <time>2020-12-13T07:47:53Z</time>
      </trkpt>
      <trkpt lat="37.50072" lon="27.55766">
        <ele>226.439</ele>
        <time>2020-12-13T07:47:54Z</time>
      </trkpt>
      <trkpt lat="37.50073" lon="27.55767">
        <ele>226.49</ele>
        <time>2020-12-13T07:47:55Z</time>
      </trkpt>
      <trkpt lat="37.50073" lon="27.55767">
        <ele>226.525</ele>
        <time>2020-12-13T07:47:56Z</time>
      </trkpt>
      <trkpt lat="37.50073" lon="27.55767">
        <ele>226.577</ele>
        <time>2020-12-13T07:47:57Z</time>
      </trkpt>
      <trkpt lat="37.50074" lon="27.55768">
        <ele>226.616</ele>
        <time>2020-12-13T07:47:58Z</time>
      </trkpt>
      <trkpt lat="37.50074" lon="27.55768">
        <ele>226.666</ele>
        <time>2020-12-13T07:47:59Z</time>
      </trkpt>
      <trkpt lat="37.50075" lon="27.55768">
        <ele>226.716</ele>
        <time>2020-12-13T07:48:00Z</time>
      </trkpt>
      <trkpt lat="37.50075" lon="27.55769">
        <ele>226.764</ele>
        <time>2020-12-13T07:48:01Z</time>
      </trkpt>
      <trkpt lat="37.50076" lon="27.55769">
        <ele>226.813</ele>
        <time>2020-12-13T07:48:02Z</time>
      </trkpt>
      <trkpt lat="37.50076" lon="27.55769">
        <ele>226.861</ele>
        <time>2020-12-13T07:48:03Z</time>
      </trkpt>
      <trkpt lat="37.50077" lon="27.5577">
        <ele>226.898</ele>
        <time>2020-12-13T07:48:04Z</time>
      </trkpt>
      <trkpt lat="37.50077" lon="27.5577">
        <ele>226.946</ele>
        <time>2020-12-13T07:48:05Z</time>
      </trkpt>
      <trkpt lat="37.50078" lon="27.5577">
        <ele>226.978</ele>
        <time>2020-12-13T07:48:06Z</time>
      </trkpt>
      <trkpt lat="37.50078" lon="27.5577">
        <ele>227.024</ele>
        <time>2020-12-13T07:48:07Z</time>
      </trkpt>
      <trkpt lat="37.50079" lon="27.55771">
        <ele>227.07</ele>
        <time>2020-12-13T07:48:08Z</time>
      </trkpt>
      <trkpt lat="37.50079" lon="27.55771">
        <ele>227.116</ele>
        <time>2020-12-13T07:49:45Z</time>
      </trkpt>
      <trkpt lat="37.5008" lon="27.55771">
        <ele>227.151</ele>
        <time>2020-12-13T07:49:46Z</time>
      </trkpt>
      <trkpt lat="37.5008" lon="27.55772">
        <ele>227.196</ele>
        <time>2020-12-13T07:49:47Z</time>
      </trkpt>
      <trkpt lat="37.50081" lon="27.55772">
        <ele>227.24</ele>
        <time>2020-12-13T07:49:48Z</time>
      </trkpt>
      <trkpt lat="37.50081" lon="27.55772">
        <ele>227.284</ele>
        <time>2020-12-13T07:49:49Z</time>
      </trkpt>
      <trkpt lat="37.50082" lon="27.55773">
        <ele>227.328</ele>
        <time>2020-12-13T07:49:50Z</time>
      </trkpt>
      <trkpt lat="37.50082" lon="27.55773">
        <ele>227.357</ele>
        <time>2020-12-13T07:49:51Z</time>
      </trkpt>
      <trkpt lat="37.50083" lon="27.55773">
        <ele>227.389</ele>
        <time>2020-12-13T07:49:52Z</time>
      </trkpt>
      <trkpt lat="37.50083" lon="27.55774">
        <ele>227.431</ele>
        <time>2020-12-13T07:49:53Z</time>
      </trkpt>
      <trkpt lat="37.50084" lon="27.55774">
        <ele>227.458</ele>
        <time>2020-12-13T07:49:54Z</time>
      </trkpt>
      <trkpt lat="37.50084" lon="27.55774">
        <ele>227.48</ele>
        <time>2020-12-13T07:49:55Z</time>
      </trkpt>
      <trkpt lat="37.50086" lon="27.55775">
        <ele>227.599</ele>
        <time>2020-12-13T07:49:56Z</time>
      </trkpt>
      <trkpt lat="37.50088" lon="27.55775">
        <ele>227.717</ele>
        <time>2020-12-13T07:49:57Z</time>
      </trkpt>
      <trkpt lat="37.50089" lon="27.55776">
        <ele>227.837</ele>
        <time>2020-12-13T07:49:58Z</time>
      </trkpt>
      <trkpt lat="37.50091" lon="27.55776">
        <ele>227.956</ele>
        <time>2020-12-13T07:49:59Z</time>
      </trkpt>
      <trkpt lat="37.50092" lon="27.55777">
        <ele>228.073</ele>
        <time>2020-12-13T07:50:00Z</time>
      </trkpt>
      <trkpt lat="37.50094" lon="27.55777">
        <ele>228.193</ele>
        <time>2020-12-13T07:50:01Z</time>
      </trkpt>
      <trkpt lat="37.50095" lon="27.55779">
        <ele>228.285</ele>
        <time>2020-12-13T07:50:02Z</time>
      </trkpt>
      <trkpt lat="37.50096" lon="27.5578">
        <ele>228.443</ele>
        <time>2020-12-13T07:50:03Z</time>
      </trkpt>
      <trkpt lat="37.50097" lon="27.55781">
        <ele>228.605</ele>
        <time>2020-12-13T07:50:04Z</time>
      </trkpt>
      <trkpt lat="37.50097" lon="27.55782">
        <ele>228.752</ele>
        <time>2020-12-13T07:50:05Z</time>
      </trkpt>
      <trkpt lat="37.50098" lon="27.55784">
        <ele>228.897</ele>
        <time>2020-12-13T07:50:06Z</time>
      </trkpt>
      <trkpt lat="37.50099" lon="27.55785">
        <ele>229.045</ele>
        <time>2020-12-13T07:50:07Z</time>
      </trkpt>
      <trkpt lat="37.501" lon="27.55786">
        <ele>229.185</ele>
        <time>2020-12-13T07:50:08Z</time>
      </trkpt>
      <trkpt lat="37.50101" lon="27.55787">
        <ele>229.332</ele>
        <time>2020-12-13T07:50:09Z</time>
      </trkpt>
      <trkpt lat="37.50101" lon="27.55789">
        <ele>229.472</ele>
        <time>2020-12-13T07:50:10Z</time>
      </trkpt>
      <trkpt lat="37.50102" lon="27.5579">
        <ele>229.605</ele>
        <time>2020-12-13T07:50:11Z</time>
      </trkpt>
      <trkpt lat="37.50102" lon="27.5579">
        <ele>229.605</ele>
        <time>2020-12-13T07:50:12Z</time>
      </trkpt>
      <trkpt lat="37.50092" lon="27.55798">
        <ele>229.183</ele>
        <time>2020-12-13T07:50:13Z</time>
      </trkpt>
      <trkpt lat="37.50091" lon="27.55799">
        <ele>229.126</ele>
        <time>2020-12-13T07:50:14Z</time>
      </trkpt>
      <trkpt lat="37.50089" lon="27.558">
        <ele>229.07</ele>
        <time>2020-12-13T07:50:15Z</time>
      </trkpt>
      <trkpt lat="37.50088" lon="27.55801">
        <ele>229.019</ele>
        <time>2020-12-13T07:50:16Z</time>
      </trkpt>
      <trkpt lat="37.50086" lon="27.55802">
        <ele>228.964</ele>
        <time>2020-12-13T07:50:17Z</time>
      </trkpt>
      <trkpt lat="37.50085" lon="27.55803">
        <ele>228.897</ele>
        <time>2020-12-13T07:50:18Z</time>
      </trkpt>
      <trkpt lat="37.50085" lon="27.55803">
        <ele>228.897</ele>
        <time>2020-12-13T07:50:19Z</time>
      </trkpt>
      <trkpt lat="37.50083" lon="27.55806">
        <ele>229.026</ele>
        <time>2020-12-13T07:50:20Z</time>
      </trkpt>
      <trkpt lat="37.50083" lon="27.55806">
        <ele>229.026</ele>
        <time>2020-12-13T07:50:21Z</time>
      </trkpt>
      <trkpt lat="37.5008" lon="27.55809">
        <ele>229.235</ele>
        <time>2020-12-13T07:50:22Z</time>
      </trkpt>
      <trkpt lat="37.50078" lon="27.5581">
        <ele>229.256</ele>
        <time>2020-12-13T07:50:23Z</time>
      </trkpt>
      <trkpt lat="37.50076" lon="27.55811">
        <ele>229.135</ele>
        <time>2020-12-13T07:50:24Z</time>
      </trkpt>
      <trkpt lat="37.50074" lon="27.55812">
        <ele>229.055</ele>
        <time>2020-12-13T07:50:25Z</time>
      </trkpt>
      <trkpt lat="37.50071" lon="27.55813">
        <ele>228.767</ele>
        <time>2020-12-13T07:50:26Z</time>
      </trkpt>
      <trkpt lat="37.50068" lon="27.55813">
        <ele>228.335</ele>
        <time>2020-12-13T07:50:27Z</time>
      </trkpt>
      <trkpt lat="37.50066" lon="27.55813">
        <ele>227.99</ele>
        <time>2020-12-13T07:50:28Z</time>
      </trkpt>
      <trkpt lat="37.50063" lon="27.55813">
        <ele>227.601</ele>
        <time>2020-12-13T07:50:29Z</time>
      </trkpt>
      <trkpt lat="37.5006" lon="27.55812">
        <ele>227.09</ele>
        <time>2020-12-13T07:50:30Z</time>
      </trkpt>
      <trkpt lat="37.50058" lon="27.55812">
        <ele>226.643</ele>
        <time>2020-12-13T07:50:31Z</time>
      </trkpt>
      <trkpt lat="37.50055" lon="27.55811">
        <ele>226.22</ele>
        <time>2020-12-13T07:50:32Z</time>
      </trkpt>
      <trkpt lat="37.50053" lon="27.5581">
        <ele>225.591</ele>
        <time>2020-12-13T07:50:33Z</time>
      </trkpt>
      <trkpt lat="37.50051" lon="27.55808">
        <ele>224.961</ele>
        <time>2020-12-13T07:50:34Z</time>
      </trkpt>
      <trkpt lat="37.50049" lon="27.55808">
        <ele>224.509</ele>
        <time>2020-12-13T07:50:35Z</time>
      </trkpt>
      <trkpt lat="37.50047" lon="27.55807">
        <ele>224.085</ele>
        <time>2020-12-13T07:50:36Z</time>
      </trkpt>
      <trkpt lat="37.50044" lon="27.55806">
        <ele>223.545</ele>
        <time>2020-12-13T07:50:37Z</time>
      </trkpt>
      <trkpt lat="37.50042" lon="27.55806">
        <ele>223.137</ele>
        <time>2020-12-13T07:50:38Z</time>
      </trkpt>
      <trkpt lat="37.5004" lon="27.55805">
        <ele>222.733</ele>
        <time>2020-12-13T07:50:39Z</time>
      </trkpt>
      <trkpt lat="37.5004" lon="27.55805">
        <ele>222.733</ele>
        <time>2020-12-13T07:50:40Z</time>
      </trkpt>
      <trkpt lat="37.50037" lon="27.55804">
        <ele>222.257</ele>
        <time>2020-12-13T07:50:41Z</time>
      </trkpt>
      <trkpt lat="37.50037" lon="27.55804">
        <ele>222.257</ele>
        <time>2020-12-13T07:50:42Z</time>
      </trkpt>
      <trkpt lat="37.50037" lon="27.55804">
        <ele>222.257</ele>
        <time>2020-12-13T07:50:43Z</time>
      </trkpt>
      <trkpt lat="37.50035" lon="27.55804">
        <ele>221.883</ele>
        <time>2020-12-13T07:50:44Z</time>
      </trkpt>
      <trkpt lat="37.50035" lon="27.55804">
        <ele>221.883</ele>
        <time>2020-12-13T07:50:45Z</time>
      </trkpt>
      <trkpt lat="37.50035" lon="27.55804">
        <ele>221.883</ele>
        <time>2020-12-13T07:50:46Z</time>
      </trkpt>
      <trkpt lat="37.50035" lon="27.55804">
        <ele>221.883</ele>
        <time>2020-12-13T07:50:47Z</time>
      </trkpt>
      <trkpt lat="37.50032" lon="27.55805">
        <ele>221.533</ele>
        <time>2020-12-13T07:50:48Z</time>
      </trkpt>
      <trkpt lat="37.50032" lon="27.55805">
        <ele>221.533</ele>
        <time>2020-12-13T07:50:49Z</time>
      </trkpt>
      <trkpt lat="37.50029" lon="27.55806">
        <ele>221.369</ele>
        <time>2020-12-13T07:50:50Z</time>
      </trkpt>
      <trkpt lat="37.50029" lon="27.55806">
        <ele>221.369</ele>
        <time>2020-12-13T07:50:51Z</time>
      </trkpt>
      <trkpt lat="37.50026" lon="27.55805">
        <ele>220.852</ele>
        <time>2020-12-13T07:50:52Z</time>
      </trkpt>
      <trkpt lat="37.50025" lon="27.55804">
        <ele>220.616</ele>
        <time>2020-12-13T07:50:53Z</time>
      </trkpt>
      <trkpt lat="37.50023" lon="27.55803">
        <ele>220.343</ele>
        <time>2020-12-13T07:50:54Z</time>
      </trkpt>
      <trkpt lat="37.50023" lon="27.55803">
        <ele>220.343</ele>
        <time>2020-12-13T07:50:55Z</time>
      </trkpt>
      <trkpt lat="37.50021" lon="27.55803">
        <ele>220.161</ele>
        <time>2020-12-13T07:50:56Z</time>
      </trkpt>
      <trkpt lat="37.50021" lon="27.55803">
        <ele>220.161</ele>
        <time>2020-12-13T07:50:57Z</time>
      </trkpt>
      <trkpt lat="37.50021" lon="27.55803">
        <ele>220.161</ele>
        <time>2020-12-13T07:50:58Z</time>
      </trkpt>
      <trkpt lat="37.50018" lon="27.55804">
        <ele>220.042</ele>
        <time>2020-12-13T07:50:59Z</time>
      </trkpt>
      <trkpt lat="37.50018" lon="27.55804">
        <ele>220.042</ele>
        <time>2020-12-13T07:51:00Z</time>
      </trkpt>
      <trkpt lat="37.50018" lon="27.55804">
        <ele>220.042</ele>
        <time>2020-12-13T07:51:01Z</time>
      </trkpt>
      <trkpt lat="37.50018" lon="27.55804">
        <ele>220.042</ele>
        <time>2020-12-13T07:51:02Z</time>
      </trkpt>
      <trkpt lat="37.50018" lon="27.55804">
        <ele>220.042</ele>
        <time>2020-12-13T07:51:03Z</time>
      </trkpt>
      <trkpt lat="37.50017" lon="27.55803">
        <ele>219.838</ele>
        <time>2020-12-13T07:51:04Z</time>
      </trkpt>
      <trkpt lat="37.50016" lon="27.55803">
        <ele>219.636</ele>
        <time>2020-12-13T07:51:05Z</time>
      </trkpt>
      <trkpt lat="37.50015" lon="27.55802">
        <ele>219.433</ele>
        <time>2020-12-13T07:51:06Z</time>
      </trkpt>
      <trkpt lat="37.50014" lon="27.55801">
        <ele>219.208</ele>
        <time>2020-12-13T07:51:07Z</time>
      </trkpt>
      <trkpt lat="37.50013" lon="27.55801">
        <ele>218.973</ele>
        <time>2020-12-13T07:51:08Z</time>
      </trkpt>
      <trkpt lat="37.50012" lon="27.558">
        <ele>218.742</ele>
        <time>2020-12-13T07:51:09Z</time>
      </trkpt>
      <trkpt lat="37.50011" lon="27.55799">
        <ele>218.51</ele>
        <time>2020-12-13T07:51:10Z</time>
      </trkpt>
      <trkpt lat="37.5001" lon="27.55799">
        <ele>218.254</ele>
        <time>2020-12-13T07:51:11Z</time>
      </trkpt>
      <trkpt lat="37.5001" lon="27.55799">
        <ele>218.254</ele>
        <time>2020-12-13T07:51:12Z</time>
      </trkpt>
      <trkpt lat="37.5001" lon="27.55799">
        <ele>218.254</ele>
        <time>2020-12-13T07:51:13Z</time>
      </trkpt>
      <trkpt lat="37.50002" lon="27.55787">
        <ele>214.605</ele>
        <time>2020-12-13T07:51:14Z</time>
      </trkpt>
      <trkpt lat="37.50002" lon="27.55786">
        <ele>214.366</ele>
        <time>2020-12-13T07:51:15Z</time>
      </trkpt>
      <trkpt lat="37.50001" lon="27.55785">
        <ele>214.12</ele>
        <time>2020-12-13T07:51:16Z</time>
      </trkpt>
      <trkpt lat="37.50001" lon="27.55785">
        <ele>213.875</ele>
        <time>2020-12-13T07:51:17Z</time>
      </trkpt>
      <trkpt lat="37.50001" lon="27.55784">
        <ele>213.622</ele>
        <time>2020-12-13T07:51:18Z</time>
      </trkpt>
      <trkpt lat="37.5" lon="27.55783">
        <ele>213.29</ele>
        <time>2020-12-13T07:51:19Z</time>
      </trkpt>
      <trkpt lat="37.5" lon="27.55783">
        <ele>213.29</ele>
        <time>2020-12-13T07:51:20Z</time>
      </trkpt>
      <trkpt lat="37.49999" lon="27.55781">
        <ele>212.732</ele>
        <time>2020-12-13T07:51:21Z</time>
      </trkpt>
      <trkpt lat="37.49999" lon="27.55781">
        <ele>212.732</ele>
        <time>2020-12-13T07:51:22Z</time>
      </trkpt>
      <trkpt lat="37.49999" lon="27.55778">
        <ele>212.081</ele>
        <time>2020-12-13T07:51:23Z</time>
      </trkpt>
      <trkpt lat="37.49999" lon="27.55778">
        <ele>212.081</ele>
        <time>2020-12-13T07:51:24Z</time>
      </trkpt>
      <trkpt lat="37.49999" lon="27.55778">
        <ele>212.081</ele>
        <time>2020-12-13T07:51:25Z</time>
      </trkpt>
      <trkpt lat="37.49999" lon="27.55778">
        <ele>212.081</ele>
        <time>2020-12-13T07:51:26Z</time>
      </trkpt>
      <trkpt lat="37.49998" lon="27.55776">
        <ele>211.82</ele>
        <time>2020-12-13T07:51:27Z</time>
      </trkpt>
      <trkpt lat="37.49998" lon="27.55776">
        <ele>211.82</ele>
        <time>2020-12-13T07:51:28Z</time>
      </trkpt>
      <trkpt lat="37.49997" lon="27.55774">
        <ele>211.593</ele>
        <time>2020-12-13T07:51:29Z</time>
      </trkpt>
      <trkpt lat="37.49997" lon="27.55774">
        <ele>211.593</ele>
        <time>2020-12-13T07:51:30Z</time>
      </trkpt>
      <trkpt lat="37.49997" lon="27.55774">
        <ele>211.593</ele>
        <time>2020-12-13T07:51:31Z</time>
      </trkpt>
      <trkpt lat="37.49996" lon="27.55771">
        <ele>211.22</ele>
        <time>2020-12-13T07:51:32Z</time>
      </trkpt>
      <trkpt lat="37.49996" lon="27.55771">
        <ele>211.22</ele>
        <time>2020-12-13T07:51:33Z</time>
      </trkpt>
      <trkpt lat="37.49996" lon="27.55771">
        <ele>211.22</ele>
        <time>2020-12-13T07:51:34Z</time>
      </trkpt>
      <trkpt lat="37.49996" lon="27.55771">
        <ele>211.22</ele>
        <time>2020-12-13T07:51:35Z</time>
      </trkpt>
      <trkpt lat="37.49996" lon="27.55768">
        <ele>210.869</ele>
        <time>2020-12-13T07:51:36Z</time>
      </trkpt>
      <trkpt lat="37.49996" lon="27.55768">
        <ele>210.869</ele>
        <time>2020-12-13T07:51:37Z</time>
      </trkpt>
      <trkpt lat="37.49996" lon="27.55768">
        <ele>210.869</ele>
        <time>2020-12-13T07:51:38Z</time>
      </trkpt>
      <trkpt lat="37.49996" lon="27.55768">
        <ele>210.869</ele>
        <time>2020-12-13T07:51:39Z</time>
      </trkpt>
      <trkpt lat="37.49996" lon="27.55768">
        <ele>210.869</ele>
        <time>2020-12-13T07:51:40Z</time>
      </trkpt>
      <trkpt lat="37.49996" lon="27.55768">
        <ele>210.869</ele>
        <time>2020-12-13T07:51:41Z</time>
      </trkpt>
      <trkpt lat="37.49996" lon="27.55768">
        <ele>210.869</ele>
        <time>2020-12-13T07:51:42Z</time>
      </trkpt>
      <trkpt lat="37.49996" lon="27.55768">
        <ele>210.869</ele>
        <time>2020-12-13T07:51:43Z</time>
      </trkpt>
      <trkpt lat="37.49996" lon="27.55768">
        <ele>210.869</ele>
        <time>2020-12-13T07:51:44Z</time>
      </trkpt>
      <trkpt lat="37.49994" lon="27.55767">
        <ele>210.712</ele>
        <time>2020-12-13T07:51:45Z</time>
      </trkpt>
      <trkpt lat="37.49994" lon="27.55767">
        <ele>210.712</ele>
        <time>2020-12-13T07:51:46Z</time>
      </trkpt>
      <trkpt lat="37.49992" lon="27.55766">
        <ele>210.448</ele>
        <time>2020-12-13T07:51:47Z</time>
      </trkpt>
      <trkpt lat="37.49992" lon="27.55766">
        <ele>210.448</ele>
        <time>2020-12-13T07:51:48Z</time>
      </trkpt>
      <trkpt lat="37.49992" lon="27.55766">
        <ele>210.448</ele>
        <time>2020-12-13T07:51:49Z</time>
      </trkpt>
      <trkpt lat="37.49992" lon="27.55766">
        <ele>210.448</ele>
        <time>2020-12-13T07:51:50Z</time>
      </trkpt>
      <trkpt lat="37.49992" lon="27.55766">
        <ele>210.448</ele>
        <time>2020-12-13T07:51:51Z</time>
      </trkpt>
      <trkpt lat="37.49992" lon="27.55766">
        <ele>210.448</ele>
        <time>2020-12-13T07:51:52Z</time>
      </trkpt>
      <trkpt lat="37.49992" lon="27.55766">
        <ele>210.448</ele>
        <time>2020-12-13T07:51:53Z</time>
      </trkpt>
      <trkpt lat="37.49992" lon="27.55766">
        <ele>210.448</ele>
        <time>2020-12-13T07:51:54Z</time>
      </trkpt>
      <trkpt lat="37.49992" lon="27.55763">
        <ele>210.138</ele>
        <time>2020-12-13T07:51:55Z</time>
      </trkpt>
      <trkpt lat="37.49992" lon="27.55763">
        <ele>210.138</ele>
        <time>2020-12-13T07:51:56Z</time>
      </trkpt>
      <trkpt lat="37.49992" lon="27.55763">
        <ele>210.138</ele>
        <time>2020-12-13T07:51:57Z</time>
      </trkpt>
      <trkpt lat="37.49992" lon="27.55763">
        <ele>210.138</ele>
        <time>2020-12-13T07:51:58Z</time>
      </trkpt>
      <trkpt lat="37.49993" lon="27.5576">
        <ele>209.732</ele>
        <time>2020-12-13T07:51:59Z</time>
      </trkpt>
      <trkpt lat="37.49993" lon="27.5576">
        <ele>209.732</ele>
        <time>2020-12-13T07:52:00Z</time>
      </trkpt>
      <trkpt lat="37.49993" lon="27.5576">
        <ele>209.732</ele>
        <time>2020-12-13T07:52:01Z</time>
      </trkpt>
      <trkpt lat="37.49995" lon="27.55757">
        <ele>209.501</ele>
        <time>2020-12-13T07:52:02Z</time>
      </trkpt>
      <trkpt lat="37.49995" lon="27.55757">
        <ele>209.501</ele>
        <time>2020-12-13T07:52:03Z</time>
      </trkpt>
      <trkpt lat="37.49995" lon="27.55757">
        <ele>209.501</ele>
        <time>2020-12-13T07:52:04Z</time>
      </trkpt>
      <trkpt lat="37.49997" lon="27.55756">
        <ele>209.409</ele>
        <time>2020-12-13T07:52:05Z</time>
      </trkpt>
      <trkpt lat="37.49997" lon="27.55756">
        <ele>209.409</ele>
        <time>2020-12-13T07:52:06Z</time>
      </trkpt>
      <trkpt lat="37.49997" lon="27.55756">
        <ele>209.409</ele>
        <time>2020-12-13T07:52:07Z</time>
      </trkpt>
      <trkpt lat="37.49997" lon="27.55756">
        <ele>209.409</ele>
        <time>2020-12-13T07:52:08Z</time>
      </trkpt>
      <trkpt lat="37.49997" lon="27.55756">
        <ele>209.409</ele>
        <time>2020-12-13T07:52:09Z</time>
      </trkpt>
      <trkpt lat="37.49997" lon="27.55756">
        <ele>209.409</ele>
        <time>2020-12-13T07:52:10Z</time>
      </trkpt>
      <trkpt lat="37.49995" lon="27.55754">
        <ele>209.057</ele>
        <time>2020-12-13T07:52:11Z</time>
      </trkpt>
      <trkpt lat="37.49993" lon="27.55752">
        <ele>208.774</ele>
        <time>2020-12-13T07:52:12Z</time>
      </trkpt>
      <trkpt lat="37.49992" lon="27.5575">
        <ele>208.438</ele>
        <time>2020-12-13T07:52:13Z</time>
      </trkpt>
      <trkpt lat="37.49992" lon="27.55747">
        <ele>208.388</ele>
        <time>2020-12-13T07:52:14Z</time>
      </trkpt>
      <trkpt lat="37.49991" lon="27.55744">
        <ele>208.352</ele>
        <time>2020-12-13T07:52:15Z</time>
      </trkpt>
      <trkpt lat="37.49991" lon="27.55744">
        <ele>208.352</ele>
        <time>2020-12-13T07:52:16Z</time>
      </trkpt>
      <trkpt lat="37.49991" lon="27.55744">
        <ele>208.352</ele>
        <time>2020-12-13T07:52:17Z</time>
      </trkpt>
      <trkpt lat="37.49991" lon="27.55744">
        <ele>208.352</ele>
        <time>2020-12-13T07:52:18Z</time>
      </trkpt>
      <trkpt lat="37.49991" lon="27.55744">
        <ele>208.352</ele>
        <time>2020-12-13T07:52:19Z</time>
      </trkpt>
      <trkpt lat="37.4999" lon="27.55742">
        <ele>208.294</ele>
        <time>2020-12-13T07:52:20Z</time>
      </trkpt>
      <trkpt lat="37.49989" lon="27.5574">
        <ele>208.237</ele>
        <time>2020-12-13T07:52:21Z</time>
      </trkpt>
      <trkpt lat="37.49989" lon="27.55739">
        <ele>208.179</ele>
        <time>2020-12-13T07:52:22Z</time>
      </trkpt>
      <trkpt lat="37.49988" lon="27.55737">
        <ele>208.114</ele>
        <time>2020-12-13T07:52:23Z</time>
      </trkpt>
      <trkpt lat="37.49987" lon="27.55735">
        <ele>208.057</ele>
        <time>2020-12-13T07:52:24Z</time>
      </trkpt>
      <trkpt lat="37.49986" lon="27.55733">
        <ele>207.999</ele>
        <time>2020-12-13T07:52:25Z</time>
      </trkpt>
      <trkpt lat="37.49985" lon="27.55731">
        <ele>207.942</ele>
        <time>2020-12-13T07:52:26Z</time>
      </trkpt>
      <trkpt lat="37.49985" lon="27.55731">
        <ele>207.942</ele>
        <time>2020-12-13T07:52:27Z</time>
      </trkpt>
      <trkpt lat="37.49983" lon="27.55731">
        <ele>207.776</ele>
        <time>2020-12-13T07:52:28Z</time>
      </trkpt>
      <trkpt lat="37.49983" lon="27.55731">
        <ele>207.776</ele>
        <time>2020-12-13T07:52:29Z</time>
      </trkpt>
      <trkpt lat="37.49981" lon="27.55732">
        <ele>207.625</ele>
        <time>2020-12-13T07:52:30Z</time>
      </trkpt>
      <trkpt lat="37.49981" lon="27.55732">
        <ele>207.625</ele>
        <time>2020-12-13T07:52:31Z</time>
      </trkpt>
      <trkpt lat="37.49979" lon="27.55733">
        <ele>207.466</ele>
        <time>2020-12-13T07:52:32Z</time>
      </trkpt>
      <trkpt lat="37.49977" lon="27.55734">
        <ele>207.33</ele>
        <time>2020-12-13T07:52:33Z</time>
      </trkpt>
      <trkpt lat="37.49974" lon="27.55733">
        <ele>207.157</ele>
        <time>2020-12-13T07:52:34Z</time>
      </trkpt>
      <trkpt lat="37.49971" lon="27.55733">
        <ele>207.029</ele>
        <time>2020-12-13T07:52:35Z</time>
      </trkpt>
      <trkpt lat="37.49969" lon="27.55732">
        <ele>207.12</ele>
        <time>2020-12-13T07:52:36Z</time>
      </trkpt>
      <trkpt lat="37.49967" lon="27.55732">
        <ele>207.195</ele>
        <time>2020-12-13T07:52:37Z</time>
      </trkpt>
      <trkpt lat="37.49965" lon="27.55731">
        <ele>207.264</ele>
        <time>2020-12-13T07:52:38Z</time>
      </trkpt>
      <trkpt lat="37.49963" lon="27.5573">
        <ele>207.346</ele>
        <time>2020-12-13T07:52:39Z</time>
      </trkpt>
      <trkpt lat="37.4996" lon="27.55729">
        <ele>207.433</ele>
        <time>2020-12-13T07:52:40Z</time>
      </trkpt>
      <trkpt lat="37.49958" lon="27.55727">
        <ele>207.519</ele>
        <time>2020-12-13T07:52:41Z</time>
      </trkpt>
      <trkpt lat="37.49956" lon="27.55726">
        <ele>207.595</ele>
        <time>2020-12-13T07:52:42Z</time>
      </trkpt>
      <trkpt lat="37.49954" lon="27.55725">
        <ele>207.667</ele>
        <time>2020-12-13T07:52:43Z</time>
      </trkpt>
      <trkpt lat="37.49952" lon="27.55725">
        <ele>207.739</ele>
        <time>2020-12-13T07:52:44Z</time>
      </trkpt>
      <trkpt lat="37.49949" lon="27.55724">
        <ele>207.825</ele>
        <time>2020-12-13T07:52:45Z</time>
      </trkpt>
      <trkpt lat="37.49947" lon="27.55724">
        <ele>207.905</ele>
        <time>2020-12-13T07:52:46Z</time>
      </trkpt>
      <trkpt lat="37.49945" lon="27.55724">
        <ele>207.991</ele>
        <time>2020-12-13T07:52:47Z</time>
      </trkpt>
      <trkpt lat="37.49943" lon="27.55725">
        <ele>207.928</ele>
        <time>2020-12-13T07:52:48Z</time>
      </trkpt>
      <trkpt lat="37.49941" lon="27.55725">
        <ele>207.844</ele>
        <time>2020-12-13T07:52:49Z</time>
      </trkpt>
      <trkpt lat="37.49938" lon="27.55725">
        <ele>207.755</ele>
        <time>2020-12-13T07:52:50Z</time>
      </trkpt>
      <trkpt lat="37.49936" lon="27.55726">
        <ele>207.666</ele>
        <time>2020-12-13T07:52:51Z</time>
      </trkpt>
      <trkpt lat="37.49934" lon="27.55726">
        <ele>207.575</ele>
        <time>2020-12-13T07:52:52Z</time>
      </trkpt>
      <trkpt lat="37.49932" lon="27.55727">
        <ele>207.48</ele>
        <time>2020-12-13T07:52:53Z</time>
      </trkpt>
      <trkpt lat="37.49929" lon="27.55727">
        <ele>207.353</ele>
        <time>2020-12-13T07:52:54Z</time>
      </trkpt>
      <trkpt lat="37.49927" lon="27.55728">
        <ele>207.22</ele>
        <time>2020-12-13T07:52:55Z</time>
      </trkpt>
      <trkpt lat="37.49924" lon="27.55728">
        <ele>207.1</ele>
        <time>2020-12-13T07:52:56Z</time>
      </trkpt>
      <trkpt lat="37.49921" lon="27.55728">
        <ele>206.975</ele>
        <time>2020-12-13T07:52:57Z</time>
      </trkpt>
      <trkpt lat="37.49919" lon="27.55728">
        <ele>206.872</ele>
        <time>2020-12-13T07:52:58Z</time>
      </trkpt>
      <trkpt lat="37.49916" lon="27.55727">
        <ele>206.793</ele>
        <time>2020-12-13T07:52:59Z</time>
      </trkpt>
      <trkpt lat="37.49914" lon="27.55727">
        <ele>206.678</ele>
        <time>2020-12-13T07:53:00Z</time>
      </trkpt>
      <trkpt lat="37.49912" lon="27.55726">
        <ele>206.549</ele>
        <time>2020-12-13T07:53:01Z</time>
      </trkpt>
      <trkpt lat="37.49912" lon="27.55726">
        <ele>206.549</ele>
        <time>2020-12-13T07:53:02Z</time>
      </trkpt>
      <trkpt lat="37.49909" lon="27.55726">
        <ele>206.351</ele>
        <time>2020-12-13T07:53:03Z</time>
      </trkpt>
      <trkpt lat="37.49907" lon="27.55725">
        <ele>206.216</ele>
        <time>2020-12-13T07:53:04Z</time>
      </trkpt>
      <trkpt lat="37.49905" lon="27.55724">
        <ele>206.096</ele>
        <time>2020-12-13T07:53:05Z</time>
      </trkpt>
      <trkpt lat="37.49905" lon="27.55724">
        <ele>206.096</ele>
        <time>2020-12-13T07:53:06Z</time>
      </trkpt>
      <trkpt lat="37.49902" lon="27.55722">
        <ele>206.003</ele>
        <time>2020-12-13T07:53:07Z</time>
      </trkpt>
      <trkpt lat="37.49902" lon="27.55722">
        <ele>206.003</ele>
        <time>2020-12-13T07:53:08Z</time>
      </trkpt>
      <trkpt lat="37.499" lon="27.55718">
        <ele>206.154</ele>
        <time>2020-12-13T07:53:09Z</time>
      </trkpt>
      <trkpt lat="37.49898" lon="27.55717">
        <ele>206.149</ele>
        <time>2020-12-13T07:53:10Z</time>
      </trkpt>
      <trkpt lat="37.49896" lon="27.55716">
        <ele>206.08</ele>
        <time>2020-12-13T07:53:11Z</time>
      </trkpt>
      <trkpt lat="37.49894" lon="27.55716">
        <ele>205.943</ele>
        <time>2020-12-13T07:53:12Z</time>
      </trkpt>
      <trkpt lat="37.49894" lon="27.55716">
        <ele>205.943</ele>
        <time>2020-12-13T07:53:13Z</time>
      </trkpt>
      <trkpt lat="37.49894" lon="27.55716">
        <ele>205.943</ele>
        <time>2020-12-13T07:53:14Z</time>
      </trkpt>
      <trkpt lat="37.49888" lon="27.55718">
        <ele>205.473</ele>
        <time>2020-12-13T07:53:15Z</time>
      </trkpt>
      <trkpt lat="37.49886" lon="27.55719">
        <ele>205.442</ele>
        <time>2020-12-13T07:53:16Z</time>
      </trkpt>
      <trkpt lat="37.49886" lon="27.55719">
        <ele>205.442</ele>
        <time>2020-12-13T07:53:17Z</time>
      </trkpt>
      <trkpt lat="37.49886" lon="27.55719">
        <ele>205.442</ele>
        <time>2020-12-13T07:53:18Z</time>
      </trkpt>
      <trkpt lat="37.49886" lon="27.55719">
        <ele>205.442</ele>
        <time>2020-12-13T07:53:19Z</time>
      </trkpt>
      <trkpt lat="37.49876" lon="27.55723">
        <ele>205.475</ele>
        <time>2020-12-13T07:53:20Z</time>
      </trkpt>
      <trkpt lat="37.49876" lon="27.55724">
        <ele>205.511</ele>
        <time>2020-12-13T07:53:21Z</time>
      </trkpt>
      <trkpt lat="37.49875" lon="27.55725">
        <ele>205.543</ele>
        <time>2020-12-13T07:53:22Z</time>
      </trkpt>
      <trkpt lat="37.49875" lon="27.55726">
        <ele>205.579</ele>
        <time>2020-12-13T07:53:23Z</time>
      </trkpt>
      <trkpt lat="37.49875" lon="27.55728">
        <ele>205.618</ele>
        <time>2020-12-13T07:53:24Z</time>
      </trkpt>
      <trkpt lat="37.49875" lon="27.55728">
        <ele>205.618</ele>
        <time>2020-12-13T07:53:25Z</time>
      </trkpt>
      <trkpt lat="37.49875" lon="27.55728">
        <ele>205.618</ele>
        <time>2020-12-13T07:53:26Z</time>
      </trkpt>
      <trkpt lat="37.49875" lon="27.55728">
        <ele>205.618</ele>
        <time>2020-12-13T07:53:27Z</time>
      </trkpt>
      <trkpt lat="37.49866" lon="27.55732">
        <ele>206.125</ele>
        <time>2020-12-13T07:53:28Z</time>
      </trkpt>
      <trkpt lat="37.49864" lon="27.55733">
        <ele>206.232</ele>
        <time>2020-12-13T07:53:29Z</time>
      </trkpt>
      <trkpt lat="37.49862" lon="27.55733">
        <ele>206.344</ele>
        <time>2020-12-13T07:53:30Z</time>
      </trkpt>
      <trkpt lat="37.49861" lon="27.55734">
        <ele>206.44</ele>
        <time>2020-12-13T07:53:31Z</time>
      </trkpt>
      <trkpt lat="37.49859" lon="27.55735">
        <ele>206.502</ele>
        <time>2020-12-13T07:53:32Z</time>
      </trkpt>
      <trkpt lat="37.49857" lon="27.55736">
        <ele>206.585</ele>
        <time>2020-12-13T07:53:33Z</time>
      </trkpt>
      <trkpt lat="37.49854" lon="27.55737">
        <ele>206.658</ele>
        <time>2020-12-13T07:53:34Z</time>
      </trkpt>
      <trkpt lat="37.49852" lon="27.55738">
        <ele>206.718</ele>
        <time>2020-12-13T07:53:35Z</time>
      </trkpt>
      <trkpt lat="37.4985" lon="27.5574">
        <ele>206.778</ele>
        <time>2020-12-13T07:53:36Z</time>
      </trkpt>
      <trkpt lat="37.49848" lon="27.55741">
        <ele>206.828</ele>
        <time>2020-12-13T07:53:37Z</time>
      </trkpt>
      <trkpt lat="37.49846" lon="27.55742">
        <ele>206.875</ele>
        <time>2020-12-13T07:53:38Z</time>
      </trkpt>
      <trkpt lat="37.49846" lon="27.55742">
        <ele>206.875</ele>
        <time>2020-12-13T07:53:39Z</time>
      </trkpt>
      <trkpt lat="37.49843" lon="27.55745">
        <ele>206.935</ele>
        <time>2020-12-13T07:53:40Z</time>
      </trkpt>
      <trkpt lat="37.49843" lon="27.55745">
        <ele>206.935</ele>
        <time>2020-12-13T07:53:41Z</time>
      </trkpt>
      <trkpt lat="37.4984" lon="27.55747">
        <ele>206.975</ele>
        <time>2020-12-13T07:53:42Z</time>
      </trkpt>
      <trkpt lat="37.49838" lon="27.55748">
        <ele>206.985</ele>
        <time>2020-12-13T07:53:43Z</time>
      </trkpt>
      <trkpt lat="37.49836" lon="27.55748">
        <ele>206.993</ele>
        <time>2020-12-13T07:53:44Z</time>
      </trkpt>
      <trkpt lat="37.49836" lon="27.55748">
        <ele>206.993</ele>
        <time>2020-12-13T07:53:45Z</time>
      </trkpt>
      <trkpt lat="37.49833" lon="27.55749">
        <ele>206.977</ele>
        <time>2020-12-13T07:53:46Z</time>
      </trkpt>
      <trkpt lat="37.4983" lon="27.5575">
        <ele>206.891</ele>
        <time>2020-12-13T07:53:47Z</time>
      </trkpt>
      <trkpt lat="37.49828" lon="27.55751">
        <ele>206.891</ele>
        <time>2020-12-13T07:53:48Z</time>
      </trkpt>
      <trkpt lat="37.49826" lon="27.55751">
        <ele>206.965</ele>
        <time>2020-12-13T07:53:49Z</time>
      </trkpt>
      <trkpt lat="37.49824" lon="27.55753">
        <ele>207.071</ele>
        <time>2020-12-13T07:53:50Z</time>
      </trkpt>
      <trkpt lat="37.49824" lon="27.55753">
        <ele>207.071</ele>
        <time>2020-12-13T07:53:51Z</time>
      </trkpt>
      <trkpt lat="37.49822" lon="27.55754">
        <ele>207.171</ele>
        <time>2020-12-13T07:53:52Z</time>
      </trkpt>
      <trkpt lat="37.4982" lon="27.55756">
        <ele>207.34</ele>
        <time>2020-12-13T07:53:53Z</time>
      </trkpt>
      <trkpt lat="37.49819" lon="27.55757">
        <ele>207.532</ele>
        <time>2020-12-13T07:53:54Z</time>
      </trkpt>
      <trkpt lat="37.49817" lon="27.55759">
        <ele>207.689</ele>
        <time>2020-12-13T07:53:55Z</time>
      </trkpt>
      <trkpt lat="37.49817" lon="27.55759">
        <ele>207.689</ele>
        <time>2020-12-13T07:53:56Z</time>
      </trkpt>
      <trkpt lat="37.49815" lon="27.55763">
        <ele>208.063</ele>
        <time>2020-12-13T07:53:57Z</time>
      </trkpt>
      <trkpt lat="37.49814" lon="27.55764">
        <ele>208.126</ele>
        <time>2020-12-13T07:53:58Z</time>
      </trkpt>
      <trkpt lat="37.49814" lon="27.55764">
        <ele>208.126</ele>
        <time>2020-12-13T07:53:59Z</time>
      </trkpt>
      <trkpt lat="37.49811" lon="27.55766">
        <ele>208.081</ele>
        <time>2020-12-13T07:54:00Z</time>
      </trkpt>
      <trkpt lat="37.49811" lon="27.55766">
        <ele>208.081</ele>
        <time>2020-12-13T07:54:01Z</time>
      </trkpt>
      <trkpt lat="37.49808" lon="27.55767">
        <ele>208.087</ele>
        <time>2020-12-13T07:54:02Z</time>
      </trkpt>
      <trkpt lat="37.49808" lon="27.55767">
        <ele>208.087</ele>
        <time>2020-12-13T07:54:03Z</time>
      </trkpt>
      <trkpt lat="37.49806" lon="27.55768">
        <ele>207.972</ele>
        <time>2020-12-13T07:54:04Z</time>
      </trkpt>
      <trkpt lat="37.49803" lon="27.55769">
        <ele>207.841</ele>
        <time>2020-12-13T07:54:05Z</time>
      </trkpt>
      <trkpt lat="37.49801" lon="27.55769">
        <ele>207.672</ele>
        <time>2020-12-13T07:54:06Z</time>
      </trkpt>
      <trkpt lat="37.49799" lon="27.55769">
        <ele>207.45</ele>
        <time>2020-12-13T07:54:07Z</time>
      </trkpt>
      <trkpt lat="37.49796" lon="27.55768">
        <ele>207.212</ele>
        <time>2020-12-13T07:54:08Z</time>
      </trkpt>
      <trkpt lat="37.49794" lon="27.55768">
        <ele>206.973</ele>
        <time>2020-12-13T07:54:09Z</time>
      </trkpt>
      <trkpt lat="37.49792" lon="27.55767">
        <ele>206.734</ele>
        <time>2020-12-13T07:54:10Z</time>
      </trkpt>
      <trkpt lat="37.4979" lon="27.55767">
        <ele>206.545</ele>
        <time>2020-12-13T07:54:11Z</time>
      </trkpt>
      <trkpt lat="37.49787" lon="27.55766">
        <ele>206.3</ele>
        <time>2020-12-13T07:54:12Z</time>
      </trkpt>
      <trkpt lat="37.49785" lon="27.55765">
        <ele>206.072</ele>
        <time>2020-12-13T07:54:13Z</time>
      </trkpt>
      <trkpt lat="37.49783" lon="27.55764">
        <ele>205.828</ele>
        <time>2020-12-13T07:54:14Z</time>
      </trkpt>
      <trkpt lat="37.4978" lon="27.55763">
        <ele>205.626</ele>
        <time>2020-12-13T07:54:15Z</time>
      </trkpt>
      <trkpt lat="37.49778" lon="27.55762">
        <ele>205.468</ele>
        <time>2020-12-13T07:54:16Z</time>
      </trkpt>
      <trkpt lat="37.49776" lon="27.55762">
        <ele>205.443</ele>
        <time>2020-12-13T07:54:17Z</time>
      </trkpt>
      <trkpt lat="37.49774" lon="27.55761">
        <ele>205.428</ele>
        <time>2020-12-13T07:54:18Z</time>
      </trkpt>
      <trkpt lat="37.49772" lon="27.55761">
        <ele>205.425</ele>
        <time>2020-12-13T07:54:19Z</time>
      </trkpt>
      <trkpt lat="37.49772" lon="27.55761">
        <ele>205.425</ele>
        <time>2020-12-13T07:54:20Z</time>
      </trkpt>
      <trkpt lat="37.49772" lon="27.55761">
        <ele>205.425</ele>
        <time>2020-12-13T07:54:21Z</time>
      </trkpt>
      <trkpt lat="37.49772" lon="27.55761">
        <ele>205.425</ele>
        <time>2020-12-13T07:54:22Z</time>
      </trkpt>
      <trkpt lat="37.49764" lon="27.55754">
        <ele>204.854</ele>
        <time>2020-12-13T07:54:23Z</time>
      </trkpt>
      <trkpt lat="37.4976" lon="27.55751">
        <ele>204.419</ele>
        <time>2020-12-13T07:54:24Z</time>
      </trkpt>
      <trkpt lat="37.49759" lon="27.55749">
        <ele>204.288</ele>
        <time>2020-12-13T07:54:25Z</time>
      </trkpt>
      <trkpt lat="37.49757" lon="27.55748">
        <ele>204.199</ele>
        <time>2020-12-13T07:54:26Z</time>
      </trkpt>
      <trkpt lat="37.49756" lon="27.55746">
        <ele>204.1</ele>
        <time>2020-12-13T07:54:27Z</time>
      </trkpt>
      <trkpt lat="37.49754" lon="27.55745">
        <ele>203.983</ele>
        <time>2020-12-13T07:54:28Z</time>
      </trkpt>
      <trkpt lat="37.49752" lon="27.55743">
        <ele>203.838</ele>
        <time>2020-12-13T07:54:29Z</time>
      </trkpt>
      <trkpt lat="37.4975" lon="27.55741">
        <ele>203.687</ele>
        <time>2020-12-13T07:54:30Z</time>
      </trkpt>
      <trkpt lat="37.49749" lon="27.5574">
        <ele>203.532</ele>
        <time>2020-12-13T07:54:31Z</time>
      </trkpt>
      <trkpt lat="37.49749" lon="27.5574">
        <ele>203.532</ele>
        <time>2020-12-13T07:54:32Z</time>
      </trkpt>
      <trkpt lat="37.49745" lon="27.55738">
        <ele>203.209</ele>
        <time>2020-12-13T07:54:33Z</time>
      </trkpt>
      <trkpt lat="37.49744" lon="27.55738">
        <ele>203.019</ele>
        <time>2020-12-13T07:54:34Z</time>
      </trkpt>
      <trkpt lat="37.49742" lon="27.55737">
        <ele>202.822</ele>
        <time>2020-12-13T07:54:35Z</time>
      </trkpt>
      <trkpt lat="37.4974" lon="27.55736">
        <ele>202.597</ele>
        <time>2020-12-13T07:54:36Z</time>
      </trkpt>
      <trkpt lat="37.49738" lon="27.55735">
        <ele>202.31</ele>
        <time>2020-12-13T07:54:37Z</time>
      </trkpt>
      <trkpt lat="37.49736" lon="27.55734">
        <ele>201.964</ele>
        <time>2020-12-13T07:54:38Z</time>
      </trkpt>
      <trkpt lat="37.49733" lon="27.55732">
        <ele>201.613</ele>
        <time>2020-12-13T07:54:39Z</time>
      </trkpt>
      <trkpt lat="37.49731" lon="27.55731">
        <ele>201.185</ele>
        <time>2020-12-13T07:54:40Z</time>
      </trkpt>
      <trkpt lat="37.49729" lon="27.55729">
        <ele>200.785</ele>
        <time>2020-12-13T07:54:41Z</time>
      </trkpt>
      <trkpt lat="37.49727" lon="27.55728">
        <ele>200.338</ele>
        <time>2020-12-13T07:54:42Z</time>
      </trkpt>
      <trkpt lat="37.49725" lon="27.55725">
        <ele>199.743</ele>
        <time>2020-12-13T07:54:43Z</time>
      </trkpt>
      <trkpt lat="37.49722" lon="27.55723">
        <ele>199.181</ele>
        <time>2020-12-13T07:54:44Z</time>
      </trkpt>
      <trkpt lat="37.4972" lon="27.55722">
        <ele>198.729</ele>
        <time>2020-12-13T07:54:45Z</time>
      </trkpt>
      <trkpt lat="37.49718" lon="27.5572">
        <ele>198.395</ele>
        <time>2020-12-13T07:54:46Z</time>
      </trkpt>
      <trkpt lat="37.49716" lon="27.55718">
        <ele>198.056</ele>
        <time>2020-12-13T07:54:47Z</time>
      </trkpt>
      <trkpt lat="37.49715" lon="27.55716">
        <ele>197.703</ele>
        <time>2020-12-13T07:54:48Z</time>
      </trkpt>
      <trkpt lat="37.49714" lon="27.55713">
        <ele>197.427</ele>
        <time>2020-12-13T07:54:49Z</time>
      </trkpt>
      <trkpt lat="37.49713" lon="27.5571">
        <ele>197.138</ele>
        <time>2020-12-13T07:54:50Z</time>
      </trkpt>
      <trkpt lat="37.49713" lon="27.55708">
        <ele>197.016</ele>
        <time>2020-12-13T07:54:51Z</time>
      </trkpt>
      <trkpt lat="37.49713" lon="27.55708">
        <ele>197.016</ele>
        <time>2020-12-13T07:54:52Z</time>
      </trkpt>
      <trkpt lat="37.49715" lon="27.55705">
        <ele>196.933</ele>
        <time>2020-12-13T07:54:53Z</time>
      </trkpt>
      <trkpt lat="37.49715" lon="27.55705">
        <ele>196.933</ele>
        <time>2020-12-13T07:54:54Z</time>
      </trkpt>
      <trkpt lat="37.49715" lon="27.55705">
        <ele>196.933</ele>
        <time>2020-12-13T07:54:55Z</time>
      </trkpt>
      <trkpt lat="37.49715" lon="27.55705">
        <ele>196.933</ele>
        <time>2020-12-13T07:54:56Z</time>
      </trkpt>
      <trkpt lat="37.49715" lon="27.55705">
        <ele>196.933</ele>
        <time>2020-12-13T07:54:57Z</time>
      </trkpt>
      <trkpt lat="37.49715" lon="27.55705">
        <ele>196.933</ele>
        <time>2020-12-13T07:54:58Z</time>
      </trkpt>
      <trkpt lat="37.49715" lon="27.55705">
        <ele>196.933</ele>
        <time>2020-12-13T07:54:59Z</time>
      </trkpt>
      <trkpt lat="37.49715" lon="27.55705">
        <ele>196.933</ele>
        <time>2020-12-13T07:55:00Z</time>
      </trkpt>
      <trkpt lat="37.49715" lon="27.55705">
        <ele>196.933</ele>
        <time>2020-12-13T07:55:01Z</time>
      </trkpt>
      <trkpt lat="37.49715" lon="27.55705">
        <ele>196.933</ele>
        <time>2020-12-13T07:55:02Z</time>
      </trkpt>
      <trkpt lat="37.49715" lon="27.55705">
        <ele>196.933</ele>
        <time>2020-12-13T07:55:03Z</time>
      </trkpt>
      <trkpt lat="37.49715" lon="27.55705">
        <ele>196.933</ele>
        <time>2020-12-13T07:55:04Z</time>
      </trkpt>
      <trkpt lat="37.49715" lon="27.55705">
        <ele>196.933</ele>
        <time>2020-12-13T07:55:05Z</time>
      </trkpt>
      <trkpt lat="37.49715" lon="27.55705">
        <ele>196.933</ele>
        <time>2020-12-13T07:55:06Z</time>
      </trkpt>
      <trkpt lat="37.49716" lon="27.55705">
        <ele>197.153</ele>
        <time>2020-12-13T07:55:07Z</time>
      </trkpt>
      <trkpt lat="37.49716" lon="27.55705">
        <ele>197.153</ele>
        <time>2020-12-13T07:55:08Z</time>
      </trkpt>
      <trkpt lat="37.49716" lon="27.55705">
        <ele>197.153</ele>
        <time>2020-12-13T07:55:09Z</time>
      </trkpt>
      <trkpt lat="37.49716" lon="27.55705">
        <ele>197.153</ele>
        <time>2020-12-13T07:55:10Z</time>
      </trkpt>
      <trkpt lat="37.49716" lon="27.55705">
        <ele>197.153</ele>
        <time>2020-12-13T07:55:11Z</time>
      </trkpt>
      <trkpt lat="37.49716" lon="27.55705">
        <ele>197.153</ele>
        <time>2020-12-13T07:55:12Z</time>
      </trkpt>
      <trkpt lat="37.49716" lon="27.55705">
        <ele>197.153</ele>
        <time>2020-12-13T07:55:13Z</time>
      </trkpt>
      <trkpt lat="37.49716" lon="27.55705">
        <ele>197.153</ele>
        <time>2020-12-13T07:55:14Z</time>
      </trkpt>
      <trkpt lat="37.49714" lon="27.55704">
        <ele>196.768</ele>
        <time>2020-12-13T07:55:15Z</time>
      </trkpt>
      <trkpt lat="37.49712" lon="27.55703">
        <ele>196.516</ele>
        <time>2020-12-13T07:55:16Z</time>
      </trkpt>
      <trkpt lat="37.49712" lon="27.55703">
        <ele>196.516</ele>
        <time>2020-12-13T07:55:17Z</time>
      </trkpt>
      <trkpt lat="37.49709" lon="27.55702">
        <ele>196.055</ele>
        <time>2020-12-13T07:55:18Z</time>
      </trkpt>
      <trkpt lat="37.49707" lon="27.557">
        <ele>195.799</ele>
        <time>2020-12-13T07:55:19Z</time>
      </trkpt>
      <trkpt lat="37.49707" lon="27.55698">
        <ele>195.565</ele>
        <time>2020-12-13T07:55:20Z</time>
      </trkpt>
      <trkpt lat="37.49707" lon="27.55698">
        <ele>195.565</ele>
        <time>2020-12-13T07:55:21Z</time>
      </trkpt>
      <trkpt lat="37.49707" lon="27.55698">
        <ele>195.565</ele>
        <time>2020-12-13T07:55:22Z</time>
      </trkpt>
      <trkpt lat="37.49707" lon="27.55698">
        <ele>195.565</ele>
        <time>2020-12-13T07:55:23Z</time>
      </trkpt>
      <trkpt lat="37.49707" lon="27.55698">
        <ele>195.565</ele>
        <time>2020-12-13T07:55:24Z</time>
      </trkpt>
      <trkpt lat="37.49706" lon="27.55697">
        <ele>195.399</ele>
        <time>2020-12-13T07:55:25Z</time>
      </trkpt>
      <trkpt lat="37.49705" lon="27.55697">
        <ele>195.241</ele>
        <time>2020-12-13T07:55:26Z</time>
      </trkpt>
      <trkpt lat="37.49704" lon="27.55696">
        <ele>195.076</ele>
        <time>2020-12-13T07:55:27Z</time>
      </trkpt>
      <trkpt lat="37.49703" lon="27.55695">
        <ele>194.917</ele>
        <time>2020-12-13T07:55:28Z</time>
      </trkpt>
      <trkpt lat="37.49702" lon="27.55694">
        <ele>194.76</ele>
        <time>2020-12-13T07:55:29Z</time>
      </trkpt>
      <trkpt lat="37.49701" lon="27.55694">
        <ele>194.647</ele>
        <time>2020-12-13T07:55:30Z</time>
      </trkpt>
      <trkpt lat="37.497" lon="27.55693">
        <ele>194.536</ele>
        <time>2020-12-13T07:55:31Z</time>
      </trkpt>
      <trkpt lat="37.4969" lon="27.55701">
        <ele>194.178</ele>
        <time>2020-12-13T07:55:32Z</time>
      </trkpt>
      <trkpt lat="37.49688" lon="27.55703">
        <ele>194.211</ele>
        <time>2020-12-13T07:55:33Z</time>
      </trkpt>
      <trkpt lat="37.49687" lon="27.55704">
        <ele>194.248</ele>
        <time>2020-12-13T07:55:34Z</time>
      </trkpt>
      <trkpt lat="37.49685" lon="27.55706">
        <ele>194.294</ele>
        <time>2020-12-13T07:55:35Z</time>
      </trkpt>
      <trkpt lat="37.49684" lon="27.55707">
        <ele>194.351</ele>
        <time>2020-12-13T07:55:36Z</time>
      </trkpt>
      <trkpt lat="37.49682" lon="27.55708">
        <ele>194.289</ele>
        <time>2020-12-13T07:55:37Z</time>
      </trkpt>
      <trkpt lat="37.49679" lon="27.55708">
        <ele>194.164</ele>
        <time>2020-12-13T07:55:38Z</time>
      </trkpt>
      <trkpt lat="37.49677" lon="27.55707">
        <ele>193.992</ele>
        <time>2020-12-13T07:55:39Z</time>
      </trkpt>
      <trkpt lat="37.49675" lon="27.55707">
        <ele>193.784</ele>
        <time>2020-12-13T07:55:40Z</time>
      </trkpt>
      <trkpt lat="37.49673" lon="27.55705">
        <ele>193.511</ele>
        <time>2020-12-13T07:55:41Z</time>
      </trkpt>
      <trkpt lat="37.49671" lon="27.55703">
        <ele>193.2</ele>
        <time>2020-12-13T07:55:42Z</time>
      </trkpt>
      <trkpt lat="37.49669" lon="27.55702">
        <ele>192.951</ele>
        <time>2020-12-13T07:55:43Z</time>
      </trkpt>
      <trkpt lat="37.49667" lon="27.55701">
        <ele>192.727</ele>
        <time>2020-12-13T07:55:44Z</time>
      </trkpt>
      <trkpt lat="37.49665" lon="27.55701">
        <ele>192.373</ele>
        <time>2020-12-13T07:55:45Z</time>
      </trkpt>
      <trkpt lat="37.49663" lon="27.557">
        <ele>192.078</ele>
        <time>2020-12-13T07:55:46Z</time>
      </trkpt>
      <trkpt lat="37.49661" lon="27.55701">
        <ele>191.856</ele>
        <time>2020-12-13T07:55:47Z</time>
      </trkpt>
      <trkpt lat="37.49659" lon="27.55701">
        <ele>191.669</ele>
        <time>2020-12-13T07:55:48Z</time>
      </trkpt>
      <trkpt lat="37.49657" lon="27.55702">
        <ele>191.543</ele>
        <time>2020-12-13T07:55:49Z</time>
      </trkpt>
      <trkpt lat="37.49655" lon="27.55704">
        <ele>191.512</ele>
        <time>2020-12-13T07:55:50Z</time>
      </trkpt>
      <trkpt lat="37.49654" lon="27.55706">
        <ele>191.652</ele>
        <time>2020-12-13T07:55:51Z</time>
      </trkpt>
      <trkpt lat="37.49653" lon="27.55708">
        <ele>191.761</ele>
        <time>2020-12-13T07:55:52Z</time>
      </trkpt>
      <trkpt lat="37.49652" lon="27.5571">
        <ele>191.938</ele>
        <time>2020-12-13T07:55:53Z</time>
      </trkpt>
      <trkpt lat="37.49651" lon="27.55713">
        <ele>192.122</ele>
        <time>2020-12-13T07:55:54Z</time>
      </trkpt>
      <trkpt lat="37.49651" lon="27.55713">
        <ele>192.122</ele>
        <time>2020-12-13T07:55:55Z</time>
      </trkpt>
      <trkpt lat="37.49649" lon="27.55717">
        <ele>192.369</ele>
        <time>2020-12-13T07:55:56Z</time>
      </trkpt>
      <trkpt lat="37.49649" lon="27.55717">
        <ele>192.369</ele>
        <time>2020-12-13T07:55:57Z</time>
      </trkpt>
      <trkpt lat="37.49649" lon="27.55717">
        <ele>192.369</ele>
        <time>2020-12-13T07:55:58Z</time>
      </trkpt>
      <trkpt lat="37.49644" lon="27.55723">
        <ele>192.671</ele>
        <time>2020-12-13T07:55:59Z</time>
      </trkpt>
      <trkpt lat="37.49643" lon="27.55725">
        <ele>192.982</ele>
        <time>2020-12-13T07:56:00Z</time>
      </trkpt>
      <trkpt lat="37.49642" lon="27.55728">
        <ele>193.752</ele>
        <time>2020-12-13T07:56:01Z</time>
      </trkpt>
      <trkpt lat="37.49642" lon="27.5573">
        <ele>194.146</ele>
        <time>2020-12-13T07:56:02Z</time>
      </trkpt>
      <trkpt lat="37.49641" lon="27.55732">
        <ele>194.511</ele>
        <time>2020-12-13T07:56:03Z</time>
      </trkpt>
      <trkpt lat="37.49641" lon="27.55734">
        <ele>195.148</ele>
        <time>2020-12-13T07:56:04Z</time>
      </trkpt>
      <trkpt lat="37.49641" lon="27.55737">
        <ele>195.913</ele>
        <time>2020-12-13T07:56:05Z</time>
      </trkpt>
      <trkpt lat="37.49641" lon="27.5574">
        <ele>196.62</ele>
        <time>2020-12-13T07:56:06Z</time>
      </trkpt>
      <trkpt lat="37.4964" lon="27.55743">
        <ele>197.216</ele>
        <time>2020-12-13T07:56:07Z</time>
      </trkpt>
      <trkpt lat="37.4964" lon="27.55743">
        <ele>197.216</ele>
        <time>2020-12-13T07:56:08Z</time>
      </trkpt>
      <trkpt lat="37.49638" lon="27.55747">
        <ele>198.065</ele>
        <time>2020-12-13T07:56:09Z</time>
      </trkpt>
      <trkpt lat="37.49635" lon="27.55748">
        <ele>198.318</ele>
        <time>2020-12-13T07:56:10Z</time>
      </trkpt>
      <trkpt lat="37.49633" lon="27.55749">
        <ele>198.609</ele>
        <time>2020-12-13T07:56:11Z</time>
      </trkpt>
      <trkpt lat="37.49631" lon="27.55751">
        <ele>198.884</ele>
        <time>2020-12-13T07:56:12Z</time>
      </trkpt>
      <trkpt lat="37.49628" lon="27.55752">
        <ele>199.206</ele>
        <time>2020-12-13T07:56:13Z</time>
      </trkpt>
      <trkpt lat="37.49626" lon="27.55752">
        <ele>199.311</ele>
        <time>2020-12-13T07:56:14Z</time>
      </trkpt>
      <trkpt lat="37.49623" lon="27.55752">
        <ele>199.151</ele>
        <time>2020-12-13T07:56:15Z</time>
      </trkpt>
      <trkpt lat="37.4962" lon="27.55752">
        <ele>198.973</ele>
        <time>2020-12-13T07:56:16Z</time>
      </trkpt>
      <trkpt lat="37.49618" lon="27.55751">
        <ele>198.772</ele>
        <time>2020-12-13T07:56:17Z</time>
      </trkpt>
      <trkpt lat="37.49615" lon="27.55751">
        <ele>198.543</ele>
        <time>2020-12-13T07:56:18Z</time>
      </trkpt>
      <trkpt lat="37.49614" lon="27.55751">
        <ele>198.283</ele>
        <time>2020-12-13T07:56:19Z</time>
      </trkpt>
      <trkpt lat="37.49614" lon="27.55751">
        <ele>198.283</ele>
        <time>2020-12-13T07:56:20Z</time>
      </trkpt>
      <trkpt lat="37.49614" lon="27.55751">
        <ele>198.283</ele>
        <time>2020-12-13T07:56:21Z</time>
      </trkpt>
      <trkpt lat="37.49614" lon="27.55751">
        <ele>198.283</ele>
        <time>2020-12-13T07:56:22Z</time>
      </trkpt>
      <trkpt lat="37.49614" lon="27.55751">
        <ele>198.283</ele>
        <time>2020-12-13T07:56:23Z</time>
      </trkpt>
      <trkpt lat="37.49604" lon="27.55745">
        <ele>196.413</ele>
        <time>2020-12-13T07:56:24Z</time>
      </trkpt>
      <trkpt lat="37.49603" lon="27.55745">
        <ele>196.25</ele>
        <time>2020-12-13T07:56:25Z</time>
      </trkpt>
      <trkpt lat="37.49601" lon="27.55744">
        <ele>196.055</ele>
        <time>2020-12-13T07:56:26Z</time>
      </trkpt>
      <trkpt lat="37.496" lon="27.55744">
        <ele>195.895</ele>
        <time>2020-12-13T07:56:27Z</time>
      </trkpt>
      <trkpt lat="37.49599" lon="27.55743">
        <ele>195.732</ele>
        <time>2020-12-13T07:56:28Z</time>
      </trkpt>
      <trkpt lat="37.49597" lon="27.55743">
        <ele>195.797</ele>
        <time>2020-12-13T07:56:29Z</time>
      </trkpt>
      <trkpt lat="37.49597" lon="27.55743">
        <ele>195.797</ele>
        <time>2020-12-13T07:56:30Z</time>
      </trkpt>
      <trkpt lat="37.49597" lon="27.55743">
        <ele>195.797</ele>
        <time>2020-12-13T07:56:31Z</time>
      </trkpt>
      <trkpt lat="37.49597" lon="27.55743">
        <ele>195.797</ele>
        <time>2020-12-13T07:56:32Z</time>
      </trkpt>
      <trkpt lat="37.49597" lon="27.55743">
        <ele>195.797</ele>
        <time>2020-12-13T07:56:33Z</time>
      </trkpt>
      <trkpt lat="37.49597" lon="27.55743">
        <ele>195.797</ele>
        <time>2020-12-13T07:56:34Z</time>
      </trkpt>
      <trkpt lat="37.49595" lon="27.55742">
        <ele>195.278</ele>
        <time>2020-12-13T07:56:35Z</time>
      </trkpt>
      <trkpt lat="37.49595" lon="27.55742">
        <ele>195.278</ele>
        <time>2020-12-13T07:56:36Z</time>
      </trkpt>
      <trkpt lat="37.49593" lon="27.55742">
        <ele>195.245</ele>
        <time>2020-12-13T07:56:37Z</time>
      </trkpt>
      <trkpt lat="37.49593" lon="27.55742">
        <ele>195.245</ele>
        <time>2020-12-13T07:56:38Z</time>
      </trkpt>
      <trkpt lat="37.4959" lon="27.55743">
        <ele>195.829</ele>
        <time>2020-12-13T07:56:39Z</time>
      </trkpt>
      <trkpt lat="37.4959" lon="27.55743">
        <ele>195.829</ele>
        <time>2020-12-13T07:56:40Z</time>
      </trkpt>
      <trkpt lat="37.49587" lon="27.55746">
        <ele>196.541</ele>
        <time>2020-12-13T07:56:41Z</time>
      </trkpt>
      <trkpt lat="37.49587" lon="27.55746">
        <ele>196.541</ele>
        <time>2020-12-13T07:56:42Z</time>
      </trkpt>
      <trkpt lat="37.49587" lon="27.55746">
        <ele>196.541</ele>
        <time>2020-12-13T07:56:43Z</time>
      </trkpt>
      <trkpt lat="37.49585" lon="27.55746">
        <ele>196.802</ele>
        <time>2020-12-13T07:56:44Z</time>
      </trkpt>
      <trkpt lat="37.49585" lon="27.55746">
        <ele>196.802</ele>
        <time>2020-12-13T07:56:45Z</time>
      </trkpt>
      <trkpt lat="37.49585" lon="27.55746">
        <ele>196.802</ele>
        <time>2020-12-13T07:56:46Z</time>
      </trkpt>
      <trkpt lat="37.49583" lon="27.55748">
        <ele>197.466</ele>
        <time>2020-12-13T07:56:47Z</time>
      </trkpt>
      <trkpt lat="37.49583" lon="27.55748">
        <ele>197.466</ele>
        <time>2020-12-13T07:56:48Z</time>
      </trkpt>
      <trkpt lat="37.49581" lon="27.5575">
        <ele>197.64</ele>
        <time>2020-12-13T07:56:49Z</time>
      </trkpt>
      <trkpt lat="37.49581" lon="27.5575">
        <ele>197.64</ele>
        <time>2020-12-13T07:56:50Z</time>
      </trkpt>
      <trkpt lat="37.49579" lon="27.55749">
        <ele>197.31</ele>
        <time>2020-12-13T07:56:51Z</time>
      </trkpt>
      <trkpt lat="37.49579" lon="27.55749">
        <ele>197.31</ele>
        <time>2020-12-13T07:56:52Z</time>
      </trkpt>
      <trkpt lat="37.49577" lon="27.5575">
        <ele>197.188</ele>
        <time>2020-12-13T07:56:53Z</time>
      </trkpt>
      <trkpt lat="37.49577" lon="27.5575">
        <ele>197.188</ele>
        <time>2020-12-13T07:56:54Z</time>
      </trkpt>
      <trkpt lat="37.49574" lon="27.55751">
        <ele>197.468</ele>
        <time>2020-12-13T07:56:55Z</time>
      </trkpt>
      <trkpt lat="37.49574" lon="27.55751">
        <ele>197.468</ele>
        <time>2020-12-13T07:56:56Z</time>
      </trkpt>
      <trkpt lat="37.49574" lon="27.55751">
        <ele>197.468</ele>
        <time>2020-12-13T07:56:57Z</time>
      </trkpt>
      <trkpt lat="37.49571" lon="27.55753">
        <ele>197.71</ele>
        <time>2020-12-13T07:56:58Z</time>
      </trkpt>
      <trkpt lat="37.49571" lon="27.55753">
        <ele>197.71</ele>
        <time>2020-12-13T07:56:59Z</time>
      </trkpt>
      <trkpt lat="37.49571" lon="27.55753">
        <ele>197.71</ele>
        <time>2020-12-13T07:57:00Z</time>
      </trkpt>
      <trkpt lat="37.4957" lon="27.55755">
        <ele>198.351</ele>
        <time>2020-12-13T07:57:01Z</time>
      </trkpt>
      <trkpt lat="37.4957" lon="27.55755">
        <ele>198.351</ele>
        <time>2020-12-13T07:57:02Z</time>
      </trkpt>
      <trkpt lat="37.49569" lon="27.55757">
        <ele>198.84</ele>
        <time>2020-12-13T07:57:03Z</time>
      </trkpt>
      <trkpt lat="37.49569" lon="27.55757">
        <ele>198.84</ele>
        <time>2020-12-13T07:57:04Z</time>
      </trkpt>
      <trkpt lat="37.49568" lon="27.5576">
        <ele>199.594</ele>
        <time>2020-12-13T07:57:05Z</time>
      </trkpt>
      <trkpt lat="37.49568" lon="27.5576">
        <ele>199.594</ele>
        <time>2020-12-13T07:57:06Z</time>
      </trkpt>
      <trkpt lat="37.49567" lon="27.55762">
        <ele>200.113</ele>
        <time>2020-12-13T07:57:07Z</time>
      </trkpt>
      <trkpt lat="37.49567" lon="27.55762">
        <ele>200.113</ele>
        <time>2020-12-13T07:57:08Z</time>
      </trkpt>
      <trkpt lat="37.49567" lon="27.55762">
        <ele>200.113</ele>
        <time>2020-12-13T07:57:09Z</time>
      </trkpt>
      <trkpt lat="37.49567" lon="27.55762">
        <ele>200.113</ele>
        <time>2020-12-13T07:57:10Z</time>
      </trkpt>
      <trkpt lat="37.49567" lon="27.55762">
        <ele>200.113</ele>
        <time>2020-12-13T07:57:11Z</time>
      </trkpt>
      <trkpt lat="37.49566" lon="27.55763">
        <ele>200.351</ele>
        <time>2020-12-13T07:57:12Z</time>
      </trkpt>
      <trkpt lat="37.49565" lon="27.55764">
        <ele>200.583</ele>
        <time>2020-12-13T07:57:13Z</time>
      </trkpt>
      <trkpt lat="37.49564" lon="27.55765">
        <ele>200.775</ele>
        <time>2020-12-13T07:57:14Z</time>
      </trkpt>
      <trkpt lat="37.49564" lon="27.55766">
        <ele>200.992</ele>
        <time>2020-12-13T07:57:15Z</time>
      </trkpt>
      <trkpt lat="37.49563" lon="27.55767">
        <ele>201.203</ele>
        <time>2020-12-13T07:57:16Z</time>
      </trkpt>
      <trkpt lat="37.49562" lon="27.55768">
        <ele>201.39</ele>
        <time>2020-12-13T07:57:17Z</time>
      </trkpt>
      <trkpt lat="37.49561" lon="27.55769">
        <ele>201.587</ele>
        <time>2020-12-13T07:57:18Z</time>
      </trkpt>
      <trkpt lat="37.4956" lon="27.55771">
        <ele>201.775</ele>
        <time>2020-12-13T07:57:19Z</time>
      </trkpt>
      <trkpt lat="37.49559" lon="27.55772">
        <ele>201.928</ele>
        <time>2020-12-13T07:57:20Z</time>
      </trkpt>
      <trkpt lat="37.49559" lon="27.55773">
        <ele>202.107</ele>
        <time>2020-12-13T07:57:21Z</time>
      </trkpt>
      <trkpt lat="37.49558" lon="27.55774">
        <ele>202.275</ele>
        <time>2020-12-13T07:57:22Z</time>
      </trkpt>
      <trkpt lat="37.49557" lon="27.55775">
        <ele>202.347</ele>
        <time>2020-12-13T07:57:23Z</time>
      </trkpt>
      <trkpt lat="37.49557" lon="27.55775">
        <ele>202.347</ele>
        <time>2020-12-13T07:57:24Z</time>
      </trkpt>
      <trkpt lat="37.49555" lon="27.55776">
        <ele>202.444</ele>
        <time>2020-12-13T07:57:25Z</time>
      </trkpt>
      <trkpt lat="37.49555" lon="27.55776">
        <ele>202.444</ele>
        <time>2020-12-13T07:57:26Z</time>
      </trkpt>
      <trkpt lat="37.49552" lon="27.55778">
        <ele>202.824</ele>
        <time>2020-12-13T07:57:27Z</time>
      </trkpt>
      <trkpt lat="37.49552" lon="27.55778">
        <ele>202.824</ele>
        <time>2020-12-13T07:57:28Z</time>
      </trkpt>
      <trkpt lat="37.4955" lon="27.55781">
        <ele>203.454</ele>
        <time>2020-12-13T07:57:29Z</time>
      </trkpt>
      <trkpt lat="37.4955" lon="27.55781">
        <ele>203.454</ele>
        <time>2020-12-13T07:57:30Z</time>
      </trkpt>
      <trkpt lat="37.49547" lon="27.55783">
        <ele>204.165</ele>
        <time>2020-12-13T07:57:31Z</time>
      </trkpt>
      <trkpt lat="37.49547" lon="27.55783">
        <ele>204.165</ele>
        <time>2020-12-13T07:57:32Z</time>
      </trkpt>
      <trkpt lat="37.49546" lon="27.55787">
        <ele>205.331</ele>
        <time>2020-12-13T07:57:33Z</time>
      </trkpt>
      <trkpt lat="37.49546" lon="27.55787">
        <ele>205.331</ele>
        <time>2020-12-13T07:57:34Z</time>
      </trkpt>
      <trkpt lat="37.49545" lon="27.55789">
        <ele>206.075</ele>
        <time>2020-12-13T07:57:35Z</time>
      </trkpt>
      <trkpt lat="37.49545" lon="27.55789">
        <ele>206.075</ele>
        <time>2020-12-13T07:57:36Z</time>
      </trkpt>
      <trkpt lat="37.49545" lon="27.55789">
        <ele>206.075</ele>
        <time>2020-12-13T07:57:37Z</time>
      </trkpt>
      <trkpt lat="37.49544" lon="27.55792">
        <ele>206.995</ele>
        <time>2020-12-13T07:57:38Z</time>
      </trkpt>
      <trkpt lat="37.49544" lon="27.55792">
        <ele>206.995</ele>
        <time>2020-12-13T07:57:39Z</time>
      </trkpt>
      <trkpt lat="37.49541" lon="27.55794">
        <ele>207.124</ele>
        <time>2020-12-13T07:57:40Z</time>
      </trkpt>
      <trkpt lat="37.49541" lon="27.55794">
        <ele>207.124</ele>
        <time>2020-12-13T07:57:41Z</time>
      </trkpt>
      <trkpt lat="37.49538" lon="27.55796">
        <ele>207.576</ele>
        <time>2020-12-13T07:57:42Z</time>
      </trkpt>
      <trkpt lat="37.49538" lon="27.55796">
        <ele>207.576</ele>
        <time>2020-12-13T07:57:43Z</time>
      </trkpt>
      <trkpt lat="37.49537" lon="27.55799">
        <ele>208.398</ele>
        <time>2020-12-13T07:57:44Z</time>
      </trkpt>
      <trkpt lat="37.49537" lon="27.55799">
        <ele>208.398</ele>
        <time>2020-12-13T07:57:45Z</time>
      </trkpt>
      <trkpt lat="37.49535" lon="27.558">
        <ele>208.331</ele>
        <time>2020-12-13T07:57:46Z</time>
      </trkpt>
      <trkpt lat="37.49535" lon="27.558">
        <ele>208.331</ele>
        <time>2020-12-13T07:57:47Z</time>
      </trkpt>
      <trkpt lat="37.49532" lon="27.55801">
        <ele>208.42</ele>
        <time>2020-12-13T07:57:48Z</time>
      </trkpt>
      <trkpt lat="37.49532" lon="27.55801">
        <ele>208.42</ele>
        <time>2020-12-13T07:57:49Z</time>
      </trkpt>
      <trkpt lat="37.49531" lon="27.55803">
        <ele>208.779</ele>
        <time>2020-12-13T07:57:50Z</time>
      </trkpt>
      <trkpt lat="37.49531" lon="27.55803">
        <ele>208.779</ele>
        <time>2020-12-13T07:57:51Z</time>
      </trkpt>
      <trkpt lat="37.49529" lon="27.55805">
        <ele>209.133</ele>
        <time>2020-12-13T07:57:52Z</time>
      </trkpt>
      <trkpt lat="37.49529" lon="27.55805">
        <ele>209.133</ele>
        <time>2020-12-13T07:57:53Z</time>
      </trkpt>
      <trkpt lat="37.49528" lon="27.55808">
        <ele>210.129</ele>
        <time>2020-12-13T07:57:54Z</time>
      </trkpt>
      <trkpt lat="37.49528" lon="27.55808">
        <ele>210.129</ele>
        <time>2020-12-13T07:57:55Z</time>
      </trkpt>
      <trkpt lat="37.49529" lon="27.5581">
        <ele>211.462</ele>
        <time>2020-12-13T07:57:56Z</time>
      </trkpt>
      <trkpt lat="37.49529" lon="27.5581">
        <ele>211.462</ele>
        <time>2020-12-13T07:57:57Z</time>
      </trkpt>
      <trkpt lat="37.49528" lon="27.55813">
        <ele>212.436</ele>
        <time>2020-12-13T07:57:58Z</time>
      </trkpt>
      <trkpt lat="37.49528" lon="27.55813">
        <ele>212.436</ele>
        <time>2020-12-13T07:57:59Z</time>
      </trkpt>
      <trkpt lat="37.49526" lon="27.55815">
        <ele>213.064</ele>
        <time>2020-12-13T07:58:00Z</time>
      </trkpt>
      <trkpt lat="37.49526" lon="27.55815">
        <ele>213.064</ele>
        <time>2020-12-13T07:58:01Z</time>
      </trkpt>
      <trkpt lat="37.49524" lon="27.55818">
        <ele>214.52</ele>
        <time>2020-12-13T07:58:02Z</time>
      </trkpt>
      <trkpt lat="37.49524" lon="27.55818">
        <ele>214.52</ele>
        <time>2020-12-13T07:58:03Z</time>
      </trkpt>
      <trkpt lat="37.49523" lon="27.55821">
        <ele>215.396</ele>
        <time>2020-12-13T07:58:04Z</time>
      </trkpt>
      <trkpt lat="37.49523" lon="27.55821">
        <ele>215.396</ele>
        <time>2020-12-13T07:58:05Z</time>
      </trkpt>
      <trkpt lat="37.49521" lon="27.55822">
        <ele>215.644</ele>
        <time>2020-12-13T07:58:06Z</time>
      </trkpt>
      <trkpt lat="37.49521" lon="27.55822">
        <ele>215.644</ele>
        <time>2020-12-13T07:58:07Z</time>
      </trkpt>
      <trkpt lat="37.49519" lon="27.55825">
        <ele>216.601</ele>
        <time>2020-12-13T07:58:08Z</time>
      </trkpt>
      <trkpt lat="37.49519" lon="27.55825">
        <ele>216.601</ele>
        <time>2020-12-13T07:58:09Z</time>
      </trkpt>
      <trkpt lat="37.49517" lon="27.55828">
        <ele>217.453</ele>
        <time>2020-12-13T07:58:10Z</time>
      </trkpt>
      <trkpt lat="37.49517" lon="27.55828">
        <ele>217.453</ele>
        <time>2020-12-13T07:58:11Z</time>
      </trkpt>
      <trkpt lat="37.49517" lon="27.55828">
        <ele>217.453</ele>
        <time>2020-12-13T07:58:12Z</time>
      </trkpt>
      <trkpt lat="37.49513" lon="27.5583">
        <ele>217.762</ele>
        <time>2020-12-13T07:58:13Z</time>
      </trkpt>
      <trkpt lat="37.49513" lon="27.5583">
        <ele>217.762</ele>
        <time>2020-12-13T07:58:14Z</time>
      </trkpt>
      <trkpt lat="37.4951" lon="27.5583">
        <ele>217.446</ele>
        <time>2020-12-13T07:58:15Z</time>
      </trkpt>
      <trkpt lat="37.4951" lon="27.5583">
        <ele>217.446</ele>
        <time>2020-12-13T07:58:16Z</time>
      </trkpt>
      <trkpt lat="37.4951" lon="27.5583">
        <ele>217.446</ele>
        <time>2020-12-13T07:58:17Z</time>
      </trkpt>
      <trkpt lat="37.49508" lon="27.55833">
        <ele>218.117</ele>
        <time>2020-12-13T07:58:18Z</time>
      </trkpt>
      <trkpt lat="37.49508" lon="27.55833">
        <ele>218.117</ele>
        <time>2020-12-13T07:58:19Z</time>
      </trkpt>
      <trkpt lat="37.49508" lon="27.55833">
        <ele>218.117</ele>
        <time>2020-12-13T07:58:20Z</time>
      </trkpt>
      <trkpt lat="37.49508" lon="27.55833">
        <ele>218.117</ele>
        <time>2020-12-13T07:58:21Z</time>
      </trkpt>
      <trkpt lat="37.49508" lon="27.55833">
        <ele>218.117</ele>
        <time>2020-12-13T07:58:22Z</time>
      </trkpt>
      <trkpt lat="37.49504" lon="27.55836">
        <ele>218.922</ele>
        <time>2020-12-13T07:58:23Z</time>
      </trkpt>
      <trkpt lat="37.49504" lon="27.55836">
        <ele>218.922</ele>
        <time>2020-12-13T07:58:24Z</time>
      </trkpt>
      <trkpt lat="37.49504" lon="27.55836">
        <ele>218.922</ele>
        <time>2020-12-13T07:58:25Z</time>
      </trkpt>
      <trkpt lat="37.49504" lon="27.55836">
        <ele>218.922</ele>
        <time>2020-12-13T07:58:26Z</time>
      </trkpt>
      <trkpt lat="37.49504" lon="27.55836">
        <ele>218.922</ele>
        <time>2020-12-13T07:58:27Z</time>
      </trkpt>
      <trkpt lat="37.49497" lon="27.55834">
        <ele>217.219</ele>
        <time>2020-12-13T07:58:28Z</time>
      </trkpt>
      <trkpt lat="37.49495" lon="27.55834">
        <ele>216.579</ele>
        <time>2020-12-13T07:58:29Z</time>
      </trkpt>
      <trkpt lat="37.49494" lon="27.55833">
        <ele>216.03</ele>
        <time>2020-12-13T07:58:30Z</time>
      </trkpt>
      <trkpt lat="37.49492" lon="27.55832">
        <ele>215.509</ele>
        <time>2020-12-13T07:58:31Z</time>
      </trkpt>
      <trkpt lat="37.49491" lon="27.55831">
        <ele>214.992</ele>
        <time>2020-12-13T07:58:32Z</time>
      </trkpt>
      <trkpt lat="37.49491" lon="27.55831">
        <ele>214.992</ele>
        <time>2020-12-13T07:58:33Z</time>
      </trkpt>
      <trkpt lat="37.49491" lon="27.55831">
        <ele>214.992</ele>
        <time>2020-12-13T07:58:34Z</time>
      </trkpt>
      <trkpt lat="37.49486" lon="27.55831">
        <ele>214.56</ele>
        <time>2020-12-13T07:58:35Z</time>
      </trkpt>
      <trkpt lat="37.49486" lon="27.55831">
        <ele>214.56</ele>
        <time>2020-12-13T07:58:36Z</time>
      </trkpt>
      <trkpt lat="37.49486" lon="27.55831">
        <ele>214.56</ele>
        <time>2020-12-13T07:58:37Z</time>
      </trkpt>
      <trkpt lat="37.49486" lon="27.55831">
        <ele>214.56</ele>
        <time>2020-12-13T07:58:38Z</time>
      </trkpt>
      <trkpt lat="37.49486" lon="27.55831">
        <ele>214.56</ele>
        <time>2020-12-13T07:58:39Z</time>
      </trkpt>
      <trkpt lat="37.49485" lon="27.55833">
        <ele>215.047</ele>
        <time>2020-12-13T07:58:40Z</time>
      </trkpt>
      <trkpt lat="37.49484" lon="27.55834">
        <ele>215.643</ele>
        <time>2020-12-13T07:58:41Z</time>
      </trkpt>
      <trkpt lat="37.49483" lon="27.55836">
        <ele>216.24</ele>
        <time>2020-12-13T07:58:42Z</time>
      </trkpt>
      <trkpt lat="37.49482" lon="27.55837">
        <ele>216.813</ele>
        <time>2020-12-13T07:58:43Z</time>
      </trkpt>
      <trkpt lat="37.49481" lon="27.55839">
        <ele>217.387</ele>
        <time>2020-12-13T07:58:44Z</time>
      </trkpt>
      <trkpt lat="37.4948" lon="27.5584">
        <ele>217.991</ele>
        <time>2020-12-13T07:58:45Z</time>
      </trkpt>
      <trkpt lat="37.49479" lon="27.55842">
        <ele>218.54</ele>
        <time>2020-12-13T07:58:46Z</time>
      </trkpt>
      <trkpt lat="37.49479" lon="27.55842">
        <ele>218.54</ele>
        <time>2020-12-13T07:58:47Z</time>
      </trkpt>
      <trkpt lat="37.49479" lon="27.55842">
        <ele>218.54</ele>
        <time>2020-12-13T07:58:48Z</time>
      </trkpt>
      <trkpt lat="37.49478" lon="27.55844">
        <ele>219.503</ele>
        <time>2020-12-13T07:58:49Z</time>
      </trkpt>
      <trkpt lat="37.49478" lon="27.55844">
        <ele>219.503</ele>
        <time>2020-12-13T07:58:50Z</time>
      </trkpt>
      <trkpt lat="37.49477" lon="27.55847">
        <ele>220.496</ele>
        <time>2020-12-13T07:58:51Z</time>
      </trkpt>
      <trkpt lat="37.49477" lon="27.55847">
        <ele>220.496</ele>
        <time>2020-12-13T07:58:52Z</time>
      </trkpt>
      <trkpt lat="37.49476" lon="27.55848">
        <ele>221.172</ele>
        <time>2020-12-13T07:58:53Z</time>
      </trkpt>
      <trkpt lat="37.49476" lon="27.55848">
        <ele>221.172</ele>
        <time>2020-12-13T07:58:54Z</time>
      </trkpt>
      <trkpt lat="37.49474" lon="27.55851">
        <ele>221.839</ele>
        <time>2020-12-13T07:58:55Z</time>
      </trkpt>
      <trkpt lat="37.49474" lon="27.55851">
        <ele>221.839</ele>
        <time>2020-12-13T07:58:56Z</time>
      </trkpt>
      <trkpt lat="37.49473" lon="27.55853">
        <ele>222.803</ele>
        <time>2020-12-13T07:58:57Z</time>
      </trkpt>
      <trkpt lat="37.49473" lon="27.55853">
        <ele>222.803</ele>
        <time>2020-12-13T07:58:58Z</time>
      </trkpt>
      <trkpt lat="37.49472" lon="27.55855">
        <ele>223.549</ele>
        <time>2020-12-13T07:58:59Z</time>
      </trkpt>
      <trkpt lat="37.49472" lon="27.55855">
        <ele>223.549</ele>
        <time>2020-12-13T07:59:00Z</time>
      </trkpt>
      <trkpt lat="37.4947" lon="27.55857">
        <ele>223.86</ele>
        <time>2020-12-13T07:59:01Z</time>
      </trkpt>
      <trkpt lat="37.4947" lon="27.55857">
        <ele>223.86</ele>
        <time>2020-12-13T07:59:02Z</time>
      </trkpt>
      <trkpt lat="37.49468" lon="27.55859">
        <ele>224.095</ele>
        <time>2020-12-13T07:59:03Z</time>
      </trkpt>
      <trkpt lat="37.49468" lon="27.55859">
        <ele>224.095</ele>
        <time>2020-12-13T07:59:04Z</time>
      </trkpt>
      <trkpt lat="37.49465" lon="27.5586">
        <ele>224.118</ele>
        <time>2020-12-13T07:59:05Z</time>
      </trkpt>
      <trkpt lat="37.49465" lon="27.5586">
        <ele>224.118</ele>
        <time>2020-12-13T07:59:06Z</time>
      </trkpt>
      <trkpt lat="37.49463" lon="27.55861">
        <ele>224.147</ele>
        <time>2020-12-13T07:59:07Z</time>
      </trkpt>
      <trkpt lat="37.49461" lon="27.55861">
        <ele>223.873</ele>
        <time>2020-12-13T07:59:08Z</time>
      </trkpt>
      <trkpt lat="37.49461" lon="27.55861">
        <ele>223.873</ele>
        <time>2020-12-13T07:59:09Z</time>
      </trkpt>
      <trkpt lat="37.49459" lon="27.55862">
        <ele>223.707</ele>
        <time>2020-12-13T07:59:10Z</time>
      </trkpt>
      <trkpt lat="37.49459" lon="27.55862">
        <ele>223.707</ele>
        <time>2020-12-13T07:59:11Z</time>
      </trkpt>
      <trkpt lat="37.49456" lon="27.55862">
        <ele>223.544</ele>
        <time>2020-12-13T07:59:12Z</time>
      </trkpt>
      <trkpt lat="37.49454" lon="27.55863">
        <ele>223.364</ele>
        <time>2020-12-13T07:59:13Z</time>
      </trkpt>
      <trkpt lat="37.49452" lon="27.55863">
        <ele>223.114</ele>
        <time>2020-12-13T07:59:14Z</time>
      </trkpt>
      <trkpt lat="37.4945" lon="27.55864">
        <ele>222.985</ele>
        <time>2020-12-13T07:59:15Z</time>
      </trkpt>
      <trkpt lat="37.49448" lon="27.55865">
        <ele>222.916</ele>
        <time>2020-12-13T07:59:16Z</time>
      </trkpt>
      <trkpt lat="37.49446" lon="27.55865">
        <ele>222.824</ele>
        <time>2020-12-13T07:59:17Z</time>
      </trkpt>
      <trkpt lat="37.49446" lon="27.55865">
        <ele>222.824</ele>
        <time>2020-12-13T07:59:18Z</time>
      </trkpt>
      <trkpt lat="37.49446" lon="27.55865">
        <ele>222.824</ele>
        <time>2020-12-13T07:59:19Z</time>
      </trkpt>
      <trkpt lat="37.49446" lon="27.55865">
        <ele>222.824</ele>
        <time>2020-12-13T07:59:20Z</time>
      </trkpt>
      <trkpt lat="37.49446" lon="27.55865">
        <ele>222.824</ele>
        <time>2020-12-13T07:59:21Z</time>
      </trkpt>
      <trkpt lat="37.49444" lon="27.55866">
        <ele>222.788</ele>
        <time>2020-12-13T07:59:22Z</time>
      </trkpt>
      <trkpt lat="37.49442" lon="27.55867">
        <ele>222.767</ele>
        <time>2020-12-13T07:59:23Z</time>
      </trkpt>
      <trkpt lat="37.49441" lon="27.55868">
        <ele>222.749</ele>
        <time>2020-12-13T07:59:24Z</time>
      </trkpt>
      <trkpt lat="37.49439" lon="27.55869">
        <ele>222.699</ele>
        <time>2020-12-13T07:59:25Z</time>
      </trkpt>
      <trkpt lat="37.49437" lon="27.55869">
        <ele>222.686</ele>
        <time>2020-12-13T07:59:26Z</time>
      </trkpt>
      <trkpt lat="37.49435" lon="27.5587">
        <ele>222.68</ele>
        <time>2020-12-13T07:59:27Z</time>
      </trkpt>
      <trkpt lat="37.49433" lon="27.55871">
        <ele>222.676</ele>
        <time>2020-12-13T07:59:28Z</time>
      </trkpt>
      <trkpt lat="37.49433" lon="27.55871">
        <ele>222.676</ele>
        <time>2020-12-13T07:59:29Z</time>
      </trkpt>
      <trkpt lat="37.49433" lon="27.55871">
        <ele>222.676</ele>
        <time>2020-12-13T07:59:30Z</time>
      </trkpt>
      <trkpt lat="37.49433" lon="27.55871">
        <ele>222.676</ele>
        <time>2020-12-13T07:59:31Z</time>
      </trkpt>
      <trkpt lat="37.49431" lon="27.55874">
        <ele>223.585</ele>
        <time>2020-12-13T07:59:32Z</time>
      </trkpt>
      <trkpt lat="37.49431" lon="27.55874">
        <ele>223.585</ele>
        <time>2020-12-13T07:59:33Z</time>
      </trkpt>
      <trkpt lat="37.49431" lon="27.55874">
        <ele>223.585</ele>
        <time>2020-12-13T07:59:34Z</time>
      </trkpt>
      <trkpt lat="37.49431" lon="27.55874">
        <ele>223.585</ele>
        <time>2020-12-13T07:59:35Z</time>
      </trkpt>
      <trkpt lat="37.49431" lon="27.55874">
        <ele>223.585</ele>
        <time>2020-12-13T07:59:36Z</time>
      </trkpt>
      <trkpt lat="37.49431" lon="27.55874">
        <ele>223.585</ele>
        <time>2020-12-13T07:59:37Z</time>
      </trkpt>
      <trkpt lat="37.49429" lon="27.55877">
        <ele>224.427</ele>
        <time>2020-12-13T07:59:38Z</time>
      </trkpt>
      <trkpt lat="37.49429" lon="27.55877">
        <ele>224.427</ele>
        <time>2020-12-13T07:59:39Z</time>
      </trkpt>
      <trkpt lat="37.49426" lon="27.55879">
        <ele>224.615</ele>
        <time>2020-12-13T07:59:40Z</time>
      </trkpt>
      <trkpt lat="37.49423" lon="27.5588">
        <ele>224.551</ele>
        <time>2020-12-13T07:59:41Z</time>
      </trkpt>
      <trkpt lat="37.49421" lon="27.55881">
        <ele>224.366</ele>
        <time>2020-12-13T07:59:42Z</time>
      </trkpt>
      <trkpt lat="37.49419" lon="27.55881">
        <ele>224.385</ele>
        <time>2020-12-13T07:59:43Z</time>
      </trkpt>
      <trkpt lat="37.49417" lon="27.55882">
        <ele>224.291</ele>
        <time>2020-12-13T07:59:44Z</time>
      </trkpt>
      <trkpt lat="37.49415" lon="27.55882">
        <ele>224.195</ele>
        <time>2020-12-13T07:59:45Z</time>
      </trkpt>
      <trkpt lat="37.49415" lon="27.55882">
        <ele>224.195</ele>
        <time>2020-12-13T07:59:46Z</time>
      </trkpt>
      <trkpt lat="37.49411" lon="27.55884">
        <ele>224.428</ele>
        <time>2020-12-13T07:59:47Z</time>
      </trkpt>
      <trkpt lat="37.49411" lon="27.55884">
        <ele>224.428</ele>
        <time>2020-12-13T07:59:48Z</time>
      </trkpt>
      <trkpt lat="37.49409" lon="27.55887">
        <ele>225.323</ele>
        <time>2020-12-13T07:59:49Z</time>
      </trkpt>
      <trkpt lat="37.49408" lon="27.55888">
        <ele>225.622</ele>
        <time>2020-12-13T07:59:50Z</time>
      </trkpt>
      <trkpt lat="37.49407" lon="27.55889">
        <ele>225.912</ele>
        <time>2020-12-13T07:59:51Z</time>
      </trkpt>
      <trkpt lat="37.49405" lon="27.55889">
        <ele>225.592</ele>
        <time>2020-12-13T07:59:52Z</time>
      </trkpt>
      <trkpt lat="37.49405" lon="27.55889">
        <ele>225.592</ele>
        <time>2020-12-13T07:59:53Z</time>
      </trkpt>
      <trkpt lat="37.49402" lon="27.55889">
        <ele>225.404</ele>
        <time>2020-12-13T07:59:54Z</time>
      </trkpt>
      <trkpt lat="37.49402" lon="27.55889">
        <ele>225.404</ele>
        <time>2020-12-13T07:59:55Z</time>
      </trkpt>
      <trkpt lat="37.494" lon="27.55887">
        <ele>224.606</ele>
        <time>2020-12-13T07:59:56Z</time>
      </trkpt>
      <trkpt lat="37.494" lon="27.55887">
        <ele>224.606</ele>
        <time>2020-12-13T07:59:57Z</time>
      </trkpt>
      <trkpt lat="37.49399" lon="27.55885">
        <ele>223.643</ele>
        <time>2020-12-13T07:59:58Z</time>
      </trkpt>
      <trkpt lat="37.49399" lon="27.55885">
        <ele>223.643</ele>
        <time>2020-12-13T07:59:59Z</time>
      </trkpt>
      <trkpt lat="37.49399" lon="27.55885">
        <ele>223.643</ele>
        <time>2020-12-13T08:00:00Z</time>
      </trkpt>
      <trkpt lat="37.49399" lon="27.55885">
        <ele>223.643</ele>
        <time>2020-12-13T08:00:01Z</time>
      </trkpt>
      <trkpt lat="37.49398" lon="27.55886">
        <ele>224.046</ele>
        <time>2020-12-13T08:00:02Z</time>
      </trkpt>
      <trkpt lat="37.49398" lon="27.55886">
        <ele>224.046</ele>
        <time>2020-12-13T08:00:03Z</time>
      </trkpt>
      <trkpt lat="37.49398" lon="27.55886">
        <ele>224.046</ele>
        <time>2020-12-13T08:00:04Z</time>
      </trkpt>
      <trkpt lat="37.49396" lon="27.55892">
        <ele>225.583</ele>
        <time>2020-12-13T08:00:05Z</time>
      </trkpt>
      <trkpt lat="37.49396" lon="27.55892">
        <ele>225.583</ele>
        <time>2020-12-13T08:00:06Z</time>
      </trkpt>
      <trkpt lat="37.49394" lon="27.55895">
        <ele>226.424</ele>
        <time>2020-12-13T08:00:07Z</time>
      </trkpt>
      <trkpt lat="37.49394" lon="27.55897">
        <ele>226.76</ele>
        <time>2020-12-13T08:00:08Z</time>
      </trkpt>
      <trkpt lat="37.49394" lon="27.55898">
        <ele>227.099</ele>
        <time>2020-12-13T08:00:09Z</time>
      </trkpt>
      <trkpt lat="37.49394" lon="27.55898">
        <ele>227.099</ele>
        <time>2020-12-13T08:00:10Z</time>
      </trkpt>
      <trkpt lat="37.49394" lon="27.55901">
        <ele>227.95</ele>
        <time>2020-12-13T08:00:11Z</time>
      </trkpt>
      <trkpt lat="37.49394" lon="27.55901">
        <ele>227.95</ele>
        <time>2020-12-13T08:00:12Z</time>
      </trkpt>
      <trkpt lat="37.49393" lon="27.55904">
        <ele>228.706</ele>
        <time>2020-12-13T08:00:13Z</time>
      </trkpt>
      <trkpt lat="37.49393" lon="27.55904">
        <ele>228.706</ele>
        <time>2020-12-13T08:00:14Z</time>
      </trkpt>
      <trkpt lat="37.49393" lon="27.55904">
        <ele>228.706</ele>
        <time>2020-12-13T08:00:15Z</time>
      </trkpt>
      <trkpt lat="37.49391" lon="27.55907">
        <ele>229.448</ele>
        <time>2020-12-13T08:00:16Z</time>
      </trkpt>
      <trkpt lat="37.49391" lon="27.55907">
        <ele>229.448</ele>
        <time>2020-12-13T08:00:17Z</time>
      </trkpt>
      <trkpt lat="37.49391" lon="27.55907">
        <ele>229.448</ele>
        <time>2020-12-13T08:00:18Z</time>
      </trkpt>
      <trkpt lat="37.49388" lon="27.55909">
        <ele>229.724</ele>
        <time>2020-12-13T08:00:19Z</time>
      </trkpt>
      <trkpt lat="37.49388" lon="27.55909">
        <ele>229.724</ele>
        <time>2020-12-13T08:00:20Z</time>
      </trkpt>
      <trkpt lat="37.49385" lon="27.55909">
        <ele>229.477</ele>
        <time>2020-12-13T08:00:21Z</time>
      </trkpt>
      <trkpt lat="37.49383" lon="27.5591">
        <ele>229.372</ele>
        <time>2020-12-13T08:00:22Z</time>
      </trkpt>
      <trkpt lat="37.49383" lon="27.5591">
        <ele>229.372</ele>
        <time>2020-12-13T08:00:23Z</time>
      </trkpt>
      <trkpt lat="37.4938" lon="27.55909">
        <ele>228.997</ele>
        <time>2020-12-13T08:00:24Z</time>
      </trkpt>
      <trkpt lat="37.4938" lon="27.55909">
        <ele>228.997</ele>
        <time>2020-12-13T08:00:25Z</time>
      </trkpt>
      <trkpt lat="37.49378" lon="27.55911">
        <ele>229.246</ele>
        <time>2020-12-13T08:00:26Z</time>
      </trkpt>
      <trkpt lat="37.49378" lon="27.55911">
        <ele>229.246</ele>
        <time>2020-12-13T08:00:27Z</time>
      </trkpt>
      <trkpt lat="37.49378" lon="27.55913">
        <ele>229.896</ele>
        <time>2020-12-13T08:00:28Z</time>
      </trkpt>
      <trkpt lat="37.49378" lon="27.55913">
        <ele>229.896</ele>
        <time>2020-12-13T08:00:29Z</time>
      </trkpt>
      <trkpt lat="37.49378" lon="27.55913">
        <ele>229.896</ele>
        <time>2020-12-13T08:00:30Z</time>
      </trkpt>
      <trkpt lat="37.4938" lon="27.55915">
        <ele>230.679</ele>
        <time>2020-12-13T08:00:31Z</time>
      </trkpt>
      <trkpt lat="37.4938" lon="27.55915">
        <ele>230.679</ele>
        <time>2020-12-13T08:00:32Z</time>
      </trkpt>
      <trkpt lat="37.49383" lon="27.55914">
        <ele>230.648</ele>
        <time>2020-12-13T08:00:33Z</time>
      </trkpt>
      <trkpt lat="37.49385" lon="27.55914">
        <ele>230.709</ele>
        <time>2020-12-13T08:00:34Z</time>
      </trkpt>
      <trkpt lat="37.49387" lon="27.55913">
        <ele>230.747</ele>
        <time>2020-12-13T08:00:35Z</time>
      </trkpt>
      <trkpt lat="37.49387" lon="27.55913">
        <ele>230.747</ele>
        <time>2020-12-13T08:00:36Z</time>
      </trkpt>
      <trkpt lat="37.49389" lon="27.55914">
        <ele>231.32</ele>
        <time>2020-12-13T08:00:37Z</time>
      </trkpt>
      <trkpt lat="37.49389" lon="27.55914">
        <ele>231.32</ele>
        <time>2020-12-13T08:00:38Z</time>
      </trkpt>
      <trkpt lat="37.49392" lon="27.55916">
        <ele>232.149</ele>
        <time>2020-12-13T08:00:39Z</time>
      </trkpt>
      <trkpt lat="37.49392" lon="27.55916">
        <ele>232.149</ele>
        <time>2020-12-13T08:00:40Z</time>
      </trkpt>
      <trkpt lat="37.49394" lon="27.55919">
        <ele>233.077</ele>
        <time>2020-12-13T08:00:41Z</time>
      </trkpt>
      <trkpt lat="37.49394" lon="27.55919">
        <ele>233.077</ele>
        <time>2020-12-13T08:00:42Z</time>
      </trkpt>
      <trkpt lat="37.49394" lon="27.55919">
        <ele>233.077</ele>
        <time>2020-12-13T08:00:43Z</time>
      </trkpt>
      <trkpt lat="37.49394" lon="27.55919">
        <ele>233.077</ele>
        <time>2020-12-13T08:00:44Z</time>
      </trkpt>
      <trkpt lat="37.49394" lon="27.55919">
        <ele>233.077</ele>
        <time>2020-12-13T08:00:45Z</time>
      </trkpt>
      <trkpt lat="37.49398" lon="27.55927">
        <ele>235.962</ele>
        <time>2020-12-13T08:00:46Z</time>
      </trkpt>
      <trkpt lat="37.49399" lon="27.55928">
        <ele>236.301</ele>
        <time>2020-12-13T08:00:47Z</time>
      </trkpt>
      <trkpt lat="37.49399" lon="27.55929">
        <ele>236.616</ele>
        <time>2020-12-13T08:00:48Z</time>
      </trkpt>
      <trkpt lat="37.494" lon="27.5593">
        <ele>236.953</ele>
        <time>2020-12-13T08:00:49Z</time>
      </trkpt>
      <trkpt lat="37.494" lon="27.55931">
        <ele>237.289</ele>
        <time>2020-12-13T08:00:50Z</time>
      </trkpt>
      <trkpt lat="37.494" lon="27.55931">
        <ele>237.289</ele>
        <time>2020-12-13T08:00:51Z</time>
      </trkpt>
      <trkpt lat="37.494" lon="27.55931">
        <ele>237.289</ele>
        <time>2020-12-13T08:00:52Z</time>
      </trkpt>
      <trkpt lat="37.494" lon="27.55931">
        <ele>237.289</ele>
        <time>2020-12-13T08:00:53Z</time>
      </trkpt>
      <trkpt lat="37.49396" lon="27.55933">
        <ele>237.697</ele>
        <time>2020-12-13T08:00:54Z</time>
      </trkpt>
      <trkpt lat="37.49395" lon="27.55934">
        <ele>237.935</ele>
        <time>2020-12-13T08:00:55Z</time>
      </trkpt>
      <trkpt lat="37.49394" lon="27.55935">
        <ele>238.173</ele>
        <time>2020-12-13T08:00:56Z</time>
      </trkpt>
      <trkpt lat="37.49393" lon="27.55936">
        <ele>238.384</ele>
        <time>2020-12-13T08:00:57Z</time>
      </trkpt>
      <trkpt lat="37.49392" lon="27.55937">
        <ele>238.624</ele>
        <time>2020-12-13T08:00:58Z</time>
      </trkpt>
      <trkpt lat="37.4939" lon="27.55938">
        <ele>238.889</ele>
        <time>2020-12-13T08:00:59Z</time>
      </trkpt>
      <trkpt lat="37.49388" lon="27.55939">
        <ele>239.003</ele>
        <time>2020-12-13T08:01:00Z</time>
      </trkpt>
      <trkpt lat="37.49386" lon="27.5594">
        <ele>239.155</ele>
        <time>2020-12-13T08:01:01Z</time>
      </trkpt>
      <trkpt lat="37.49385" lon="27.55941">
        <ele>239.413</ele>
        <time>2020-12-13T08:01:02Z</time>
      </trkpt>
      <trkpt lat="37.49382" lon="27.55943">
        <ele>239.517</ele>
        <time>2020-12-13T08:01:03Z</time>
      </trkpt>
      <trkpt lat="37.4938" lon="27.55943">
        <ele>239.291</ele>
        <time>2020-12-13T08:01:04Z</time>
      </trkpt>
      <trkpt lat="37.49377" lon="27.55944">
        <ele>239.208</ele>
        <time>2020-12-13T08:01:05Z</time>
      </trkpt>
      <trkpt lat="37.49375" lon="27.55945">
        <ele>239.118</ele>
        <time>2020-12-13T08:01:06Z</time>
      </trkpt>
      <trkpt lat="37.49375" lon="27.55945">
        <ele>239.118</ele>
        <time>2020-12-13T08:01:07Z</time>
      </trkpt>
      <trkpt lat="37.49373" lon="27.55946">
        <ele>239.057</ele>
        <time>2020-12-13T08:01:08Z</time>
      </trkpt>
      <trkpt lat="37.49373" lon="27.55946">
        <ele>239.057</ele>
        <time>2020-12-13T08:01:09Z</time>
      </trkpt>
      <trkpt lat="37.49371" lon="27.55947">
        <ele>239.159</ele>
        <time>2020-12-13T08:01:10Z</time>
      </trkpt>
      <trkpt lat="37.4937" lon="27.55948">
        <ele>239.113</ele>
        <time>2020-12-13T08:01:11Z</time>
      </trkpt>
      <trkpt lat="37.4937" lon="27.55948">
        <ele>239.113</ele>
        <time>2020-12-13T08:01:12Z</time>
      </trkpt>
      <trkpt lat="37.49366" lon="27.55951">
        <ele>239.351</ele>
        <time>2020-12-13T08:01:13Z</time>
      </trkpt>
      <trkpt lat="37.49366" lon="27.55951">
        <ele>239.351</ele>
        <time>2020-12-13T08:01:14Z</time>
      </trkpt>
      <trkpt lat="37.49366" lon="27.55951">
        <ele>239.351</ele>
        <time>2020-12-13T08:01:15Z</time>
      </trkpt>
      <trkpt lat="37.49363" lon="27.55954">
        <ele>239.572</ele>
        <time>2020-12-13T08:01:16Z</time>
      </trkpt>
      <trkpt lat="37.49361" lon="27.55956">
        <ele>239.746</ele>
        <time>2020-12-13T08:01:17Z</time>
      </trkpt>
      <trkpt lat="37.4936" lon="27.55956">
        <ele>239.771</ele>
        <time>2020-12-13T08:01:18Z</time>
      </trkpt>
      <trkpt lat="37.4936" lon="27.55957">
        <ele>239.775</ele>
        <time>2020-12-13T08:01:19Z</time>
      </trkpt>
      <trkpt lat="37.49359" lon="27.55957">
        <ele>239.794</ele>
        <time>2020-12-13T08:01:20Z</time>
      </trkpt>
      <trkpt lat="37.49359" lon="27.55957">
        <ele>239.797</ele>
        <time>2020-12-13T08:01:21Z</time>
      </trkpt>
      <trkpt lat="37.49359" lon="27.55957">
        <ele>239.797</ele>
        <time>2020-12-13T08:01:22Z</time>
      </trkpt>
      <trkpt lat="37.49357" lon="27.55961">
        <ele>240.115</ele>
        <time>2020-12-13T08:01:23Z</time>
      </trkpt>
      <trkpt lat="37.49354" lon="27.55961">
        <ele>239.733</ele>
        <time>2020-12-13T08:01:24Z</time>
      </trkpt>
      <trkpt lat="37.49351" lon="27.55961">
        <ele>239.107</ele>
        <time>2020-12-13T08:01:25Z</time>
      </trkpt>
      <trkpt lat="37.49349" lon="27.5596">
        <ele>238.301</ele>
        <time>2020-12-13T08:01:26Z</time>
      </trkpt>
      <trkpt lat="37.49346" lon="27.55959">
        <ele>237.677</ele>
        <time>2020-12-13T08:01:27Z</time>
      </trkpt>
      <trkpt lat="37.49346" lon="27.55959">
        <ele>237.677</ele>
        <time>2020-12-13T08:01:28Z</time>
      </trkpt>
      <trkpt lat="37.49343" lon="27.5596">
        <ele>237.199</ele>
        <time>2020-12-13T08:01:29Z</time>
      </trkpt>
      <trkpt lat="37.49343" lon="27.5596">
        <ele>237.199</ele>
        <time>2020-12-13T08:01:30Z</time>
      </trkpt>
      <trkpt lat="37.4934" lon="27.55963">
        <ele>237.118</ele>
        <time>2020-12-13T08:01:31Z</time>
      </trkpt>
      <trkpt lat="37.49339" lon="27.55965">
        <ele>237.1</ele>
        <time>2020-12-13T08:01:32Z</time>
      </trkpt>
      <trkpt lat="37.49337" lon="27.55966">
        <ele>236.995</ele>
        <time>2020-12-13T08:01:33Z</time>
      </trkpt>
      <trkpt lat="37.49337" lon="27.55966">
        <ele>236.995</ele>
        <time>2020-12-13T08:01:34Z</time>
      </trkpt>
      <trkpt lat="37.49333" lon="27.55966">
        <ele>236.136</ele>
        <time>2020-12-13T08:01:35Z</time>
      </trkpt>
      <trkpt lat="37.49333" lon="27.55966">
        <ele>236.136</ele>
        <time>2020-12-13T08:01:36Z</time>
      </trkpt>
      <trkpt lat="37.4933" lon="27.55966">
        <ele>235.465</ele>
        <time>2020-12-13T08:01:37Z</time>
      </trkpt>
      <trkpt lat="37.4933" lon="27.55966">
        <ele>235.465</ele>
        <time>2020-12-13T08:01:38Z</time>
      </trkpt>
      <trkpt lat="37.4933" lon="27.55966">
        <ele>235.465</ele>
        <time>2020-12-13T08:01:39Z</time>
      </trkpt>
      <trkpt lat="37.4933" lon="27.55966">
        <ele>235.465</ele>
        <time>2020-12-13T08:01:40Z</time>
      </trkpt>
      <trkpt lat="37.4933" lon="27.55966">
        <ele>235.465</ele>
        <time>2020-12-13T08:01:41Z</time>
      </trkpt>
      <trkpt lat="37.4933" lon="27.55966">
        <ele>235.465</ele>
        <time>2020-12-13T08:01:42Z</time>
      </trkpt>
      <trkpt lat="37.4933" lon="27.55966">
        <ele>235.465</ele>
        <time>2020-12-13T08:01:43Z</time>
      </trkpt>
      <trkpt lat="37.4933" lon="27.55966">
        <ele>235.465</ele>
        <time>2020-12-13T08:01:44Z</time>
      </trkpt>
      <trkpt lat="37.4933" lon="27.55966">
        <ele>235.465</ele>
        <time>2020-12-13T08:01:45Z</time>
      </trkpt>
      <trkpt lat="37.4933" lon="27.55966">
        <ele>235.465</ele>
        <time>2020-12-13T08:01:46Z</time>
      </trkpt>
      <trkpt lat="37.4933" lon="27.55966">
        <ele>235.465</ele>
        <time>2020-12-13T08:01:47Z</time>
      </trkpt>
      <trkpt lat="37.4933" lon="27.55966">
        <ele>235.465</ele>
        <time>2020-12-13T08:01:48Z</time>
      </trkpt>
      <trkpt lat="37.4933" lon="27.55966">
        <ele>235.465</ele>
        <time>2020-12-13T08:01:49Z</time>
      </trkpt>
      <trkpt lat="37.4933" lon="27.55966">
        <ele>235.465</ele>
        <time>2020-12-13T08:01:50Z</time>
      </trkpt>
      <trkpt lat="37.4933" lon="27.55966">
        <ele>235.465</ele>
        <time>2020-12-13T08:01:51Z</time>
      </trkpt>
      <trkpt lat="37.4933" lon="27.55966">
        <ele>235.465</ele>
        <time>2020-12-13T08:01:52Z</time>
      </trkpt>
      <trkpt lat="37.4933" lon="27.55966">
        <ele>235.465</ele>
        <time>2020-12-13T08:01:53Z</time>
      </trkpt>
      <trkpt lat="37.4933" lon="27.55966">
        <ele>235.465</ele>
        <time>2020-12-13T08:01:54Z</time>
      </trkpt>
      <trkpt lat="37.4933" lon="27.55966">
        <ele>235.465</ele>
        <time>2020-12-13T08:01:55Z</time>
      </trkpt>
      <trkpt lat="37.49329" lon="27.55965">
        <ele>235.015</ele>
        <time>2020-12-13T08:01:56Z</time>
      </trkpt>
      <trkpt lat="37.49329" lon="27.55965">
        <ele>235.015</ele>
        <time>2020-12-13T08:01:57Z</time>
      </trkpt>
      <trkpt lat="37.49329" lon="27.55965">
        <ele>235.015</ele>
        <time>2020-12-13T08:01:58Z</time>
      </trkpt>
      <trkpt lat="37.49329" lon="27.55965">
        <ele>235.015</ele>
        <time>2020-12-13T08:01:59Z</time>
      </trkpt>
      <trkpt lat="37.49329" lon="27.55965">
        <ele>235.015</ele>
        <time>2020-12-13T08:02:00Z</time>
      </trkpt>
      <trkpt lat="37.49329" lon="27.55965">
        <ele>235.015</ele>
        <time>2020-12-13T08:02:01Z</time>
      </trkpt>
      <trkpt lat="37.49329" lon="27.55965">
        <ele>235.015</ele>
        <time>2020-12-13T08:02:02Z</time>
      </trkpt>
      <trkpt lat="37.49329" lon="27.55965">
        <ele>235.015</ele>
        <time>2020-12-13T08:02:03Z</time>
      </trkpt>
      <trkpt lat="37.49329" lon="27.55965">
        <ele>235.015</ele>
        <time>2020-12-13T08:02:04Z</time>
      </trkpt>
      <trkpt lat="37.49329" lon="27.55965">
        <ele>235.015</ele>
        <time>2020-12-13T08:02:05Z</time>
      </trkpt>
      <trkpt lat="37.49329" lon="27.55965">
        <ele>235.015</ele>
        <time>2020-12-13T08:02:06Z</time>
      </trkpt>
      <trkpt lat="37.49329" lon="27.55965">
        <ele>235.015</ele>
        <time>2020-12-13T08:02:07Z</time>
      </trkpt>
      <trkpt lat="37.49329" lon="27.55965">
        <ele>235.015</ele>
        <time>2020-12-13T08:02:08Z</time>
      </trkpt>
      <trkpt lat="37.49329" lon="27.55965">
        <ele>235.015</ele>
        <time>2020-12-13T08:02:09Z</time>
      </trkpt>
      <trkpt lat="37.49326" lon="27.55966">
        <ele>234.769</ele>
        <time>2020-12-13T08:02:10Z</time>
      </trkpt>
      <trkpt lat="37.49326" lon="27.55966">
        <ele>234.769</ele>
        <time>2020-12-13T08:02:11Z</time>
      </trkpt>
      <trkpt lat="37.49324" lon="27.55966">
        <ele>234.453</ele>
        <time>2020-12-13T08:02:12Z</time>
      </trkpt>
      <trkpt lat="37.49324" lon="27.55966">
        <ele>234.453</ele>
        <time>2020-12-13T08:02:13Z</time>
      </trkpt>
      <trkpt lat="37.49322" lon="27.55967">
        <ele>234.213</ele>
        <time>2020-12-13T08:02:14Z</time>
      </trkpt>
      <trkpt lat="37.49322" lon="27.55967">
        <ele>234.213</ele>
        <time>2020-12-13T08:02:15Z</time>
      </trkpt>
      <trkpt lat="37.49319" lon="27.5597">
        <ele>234.051</ele>
        <time>2020-12-13T08:02:16Z</time>
      </trkpt>
      <trkpt lat="37.49319" lon="27.5597">
        <ele>234.051</ele>
        <time>2020-12-13T08:02:17Z</time>
      </trkpt>
      <trkpt lat="37.49316" lon="27.55972">
        <ele>233.848</ele>
        <time>2020-12-13T08:02:18Z</time>
      </trkpt>
      <trkpt lat="37.49315" lon="27.55973">
        <ele>233.64</ele>
        <time>2020-12-13T08:02:19Z</time>
      </trkpt>
      <trkpt lat="37.49313" lon="27.55973">
        <ele>233.374</ele>
        <time>2020-12-13T08:02:20Z</time>
      </trkpt>
      <trkpt lat="37.49311" lon="27.55974">
        <ele>233.1</ele>
        <time>2020-12-13T08:02:21Z</time>
      </trkpt>
      <trkpt lat="37.49309" lon="27.55974">
        <ele>232.758</ele>
        <time>2020-12-13T08:02:22Z</time>
      </trkpt>
      <trkpt lat="37.49309" lon="27.55974">
        <ele>232.758</ele>
        <time>2020-12-13T08:02:23Z</time>
      </trkpt>
      <trkpt lat="37.49305" lon="27.55973">
        <ele>232.1</ele>
        <time>2020-12-13T08:02:24Z</time>
      </trkpt>
      <trkpt lat="37.49305" lon="27.55973">
        <ele>232.1</ele>
        <time>2020-12-13T08:02:25Z</time>
      </trkpt>
      <trkpt lat="37.49302" lon="27.55974">
        <ele>231.873</ele>
        <time>2020-12-13T08:02:26Z</time>
      </trkpt>
      <trkpt lat="37.49302" lon="27.55974">
        <ele>231.873</ele>
        <time>2020-12-13T08:02:27Z</time>
      </trkpt>
      <trkpt lat="37.49301" lon="27.55977">
        <ele>231.949</ele>
        <time>2020-12-13T08:02:28Z</time>
      </trkpt>
      <trkpt lat="37.49301" lon="27.55977">
        <ele>231.949</ele>
        <time>2020-12-13T08:02:29Z</time>
      </trkpt>
      <trkpt lat="37.49301" lon="27.55977">
        <ele>231.949</ele>
        <time>2020-12-13T08:02:30Z</time>
      </trkpt>
      <trkpt lat="37.49301" lon="27.55977">
        <ele>231.949</ele>
        <time>2020-12-13T08:02:31Z</time>
      </trkpt>
      <trkpt lat="37.49299" lon="27.55984">
        <ele>232.574</ele>
        <time>2020-12-13T08:02:32Z</time>
      </trkpt>
      <trkpt lat="37.49299" lon="27.55989">
        <ele>233.006</ele>
        <time>2020-12-13T08:02:33Z</time>
      </trkpt>
      <trkpt lat="37.49298" lon="27.5599">
        <ele>233.105</ele>
        <time>2020-12-13T08:02:34Z</time>
      </trkpt>
      <trkpt lat="37.49298" lon="27.55991">
        <ele>233.18</ele>
        <time>2020-12-13T08:02:35Z</time>
      </trkpt>
      <trkpt lat="37.49297" lon="27.55992">
        <ele>233.277</ele>
        <time>2020-12-13T08:02:36Z</time>
      </trkpt>
      <trkpt lat="37.49293" lon="27.55996">
        <ele>233.288</ele>
        <time>2020-12-13T08:02:37Z</time>
      </trkpt>
      <trkpt lat="37.49292" lon="27.55998">
        <ele>233.233</ele>
        <time>2020-12-13T08:02:38Z</time>
      </trkpt>
      <trkpt lat="37.49292" lon="27.55998">
        <ele>233.233</ele>
        <time>2020-12-13T08:02:39Z</time>
      </trkpt>
      <trkpt lat="37.49287" lon="27.55998">
        <ele>232.823</ele>
        <time>2020-12-13T08:02:40Z</time>
      </trkpt>
      <trkpt lat="37.49286" lon="27.55998">
        <ele>232.672</ele>
        <time>2020-12-13T08:02:41Z</time>
      </trkpt>
      <trkpt lat="37.49284" lon="27.55998">
        <ele>232.412</ele>
        <time>2020-12-13T08:02:42Z</time>
      </trkpt>
      <trkpt lat="37.49282" lon="27.55997">
        <ele>232.143</ele>
        <time>2020-12-13T08:02:43Z</time>
      </trkpt>
      <trkpt lat="37.49282" lon="27.55997">
        <ele>232.143</ele>
        <time>2020-12-13T08:02:44Z</time>
      </trkpt>
      <trkpt lat="37.49278" lon="27.55997">
        <ele>231.701</ele>
        <time>2020-12-13T08:02:45Z</time>
      </trkpt>
      <trkpt lat="37.49275" lon="27.55997">
        <ele>231.408</ele>
        <time>2020-12-13T08:02:46Z</time>
      </trkpt>
      <trkpt lat="37.49273" lon="27.55998">
        <ele>231.188</ele>
        <time>2020-12-13T08:02:47Z</time>
      </trkpt>
      <trkpt lat="37.49269" lon="27.55998">
        <ele>230.876</ele>
        <time>2020-12-13T08:02:48Z</time>
      </trkpt>
      <trkpt lat="37.49268" lon="27.55999">
        <ele>230.767</ele>
        <time>2020-12-13T08:02:49Z</time>
      </trkpt>
      <trkpt lat="37.49265" lon="27.55999">
        <ele>230.535</ele>
        <time>2020-12-13T08:02:50Z</time>
      </trkpt>
      <trkpt lat="37.49263" lon="27.56">
        <ele>230.365</ele>
        <time>2020-12-13T08:02:51Z</time>
      </trkpt>
      <trkpt lat="37.4926" lon="27.56002">
        <ele>230.191</ele>
        <time>2020-12-13T08:02:52Z</time>
      </trkpt>
      <trkpt lat="37.49258" lon="27.56003">
        <ele>230.011</ele>
        <time>2020-12-13T08:02:53Z</time>
      </trkpt>
      <trkpt lat="37.49256" lon="27.56003">
        <ele>229.838</ele>
        <time>2020-12-13T08:02:54Z</time>
      </trkpt>
      <trkpt lat="37.49254" lon="27.56004">
        <ele>229.592</ele>
        <time>2020-12-13T08:02:55Z</time>
      </trkpt>
      <trkpt lat="37.49252" lon="27.56004">
        <ele>229.34</ele>
        <time>2020-12-13T08:02:56Z</time>
      </trkpt>
      <trkpt lat="37.49249" lon="27.56005">
        <ele>229.123</ele>
        <time>2020-12-13T08:02:57Z</time>
      </trkpt>
      <trkpt lat="37.49249" lon="27.56005">
        <ele>229.123</ele>
        <time>2020-12-13T08:02:58Z</time>
      </trkpt>
      <trkpt lat="37.49249" lon="27.56005">
        <ele>229.123</ele>
        <time>2020-12-13T08:02:59Z</time>
      </trkpt>
      <trkpt lat="37.49249" lon="27.56005">
        <ele>229.123</ele>
        <time>2020-12-13T08:03:00Z</time>
      </trkpt>
      <trkpt lat="37.49249" lon="27.56005">
        <ele>229.123</ele>
        <time>2020-12-13T08:03:01Z</time>
      </trkpt>
      <trkpt lat="37.49238" lon="27.56005">
        <ele>228.299</ele>
        <time>2020-12-13T08:03:02Z</time>
      </trkpt>
      <trkpt lat="37.49236" lon="27.56005">
        <ele>228.074</ele>
        <time>2020-12-13T08:03:03Z</time>
      </trkpt>
      <trkpt lat="37.49234" lon="27.56004">
        <ele>227.856</ele>
        <time>2020-12-13T08:03:04Z</time>
      </trkpt>
      <trkpt lat="37.49232" lon="27.56003">
        <ele>227.6</ele>
        <time>2020-12-13T08:03:05Z</time>
      </trkpt>
      <trkpt lat="37.4923" lon="27.56003">
        <ele>227.347</ele>
        <time>2020-12-13T08:03:06Z</time>
      </trkpt>
      <trkpt lat="37.49227" lon="27.56004">
        <ele>227.138</ele>
        <time>2020-12-13T08:03:07Z</time>
      </trkpt>
      <trkpt lat="37.49225" lon="27.56004">
        <ele>227.165</ele>
        <time>2020-12-13T08:03:08Z</time>
      </trkpt>
      <trkpt lat="37.49224" lon="27.56005">
        <ele>227.201</ele>
        <time>2020-12-13T08:03:09Z</time>
      </trkpt>
      <trkpt lat="37.49224" lon="27.56005">
        <ele>227.201</ele>
        <time>2020-12-13T08:03:10Z</time>
      </trkpt>
      <trkpt lat="37.49224" lon="27.56005">
        <ele>227.201</ele>
        <time>2020-12-13T08:03:11Z</time>
      </trkpt>
      <trkpt lat="37.49224" lon="27.56005">
        <ele>227.201</ele>
        <time>2020-12-13T08:03:12Z</time>
      </trkpt>
      <trkpt lat="37.49224" lon="27.56005">
        <ele>227.201</ele>
        <time>2020-12-13T08:03:13Z</time>
      </trkpt>
      <trkpt lat="37.49224" lon="27.56005">
        <ele>227.201</ele>
        <time>2020-12-13T08:03:14Z</time>
      </trkpt>
      <trkpt lat="37.49224" lon="27.56005">
        <ele>227.201</ele>
        <time>2020-12-13T08:03:15Z</time>
      </trkpt>
      <trkpt lat="37.49224" lon="27.56005">
        <ele>227.201</ele>
        <time>2020-12-13T08:03:16Z</time>
      </trkpt>
      <trkpt lat="37.49224" lon="27.56005">
        <ele>227.201</ele>
        <time>2020-12-13T08:03:17Z</time>
      </trkpt>
      <trkpt lat="37.49224" lon="27.56005">
        <ele>227.201</ele>
        <time>2020-12-13T08:03:18Z</time>
      </trkpt>
      <trkpt lat="37.49224" lon="27.56005">
        <ele>227.201</ele>
        <time>2020-12-13T08:03:19Z</time>
      </trkpt>
      <trkpt lat="37.49224" lon="27.56005">
        <ele>227.201</ele>
        <time>2020-12-13T08:03:20Z</time>
      </trkpt>
      <trkpt lat="37.49224" lon="27.56005">
        <ele>227.201</ele>
        <time>2020-12-13T08:03:21Z</time>
      </trkpt>
      <trkpt lat="37.49224" lon="27.56005">
        <ele>227.201</ele>
        <time>2020-12-13T08:03:22Z</time>
      </trkpt>
      <trkpt lat="37.49222" lon="27.56005">
        <ele>227.037</ele>
        <time>2020-12-13T08:03:23Z</time>
      </trkpt>
      <trkpt lat="37.4922" lon="27.56005">
        <ele>226.993</ele>
        <time>2020-12-13T08:03:24Z</time>
      </trkpt>
      <trkpt lat="37.49218" lon="27.56004">
        <ele>226.843</ele>
        <time>2020-12-13T08:03:25Z</time>
      </trkpt>
      <trkpt lat="37.49215" lon="27.56003">
        <ele>226.562</ele>
        <time>2020-12-13T08:03:26Z</time>
      </trkpt>
      <trkpt lat="37.49213" lon="27.56001">
        <ele>226.216</ele>
        <time>2020-12-13T08:03:27Z</time>
      </trkpt>
      <trkpt lat="37.4921" lon="27.55999">
        <ele>225.838</ele>
        <time>2020-12-13T08:03:28Z</time>
      </trkpt>
      <trkpt lat="37.49208" lon="27.55996">
        <ele>225.611</ele>
        <time>2020-12-13T08:03:29Z</time>
      </trkpt>
      <trkpt lat="37.49206" lon="27.55995">
        <ele>225.438</ele>
        <time>2020-12-13T08:03:30Z</time>
      </trkpt>
      <trkpt lat="37.49204" lon="27.55993">
        <ele>225.255</ele>
        <time>2020-12-13T08:03:31Z</time>
      </trkpt>
      <trkpt lat="37.49202" lon="27.55992">
        <ele>225.103</ele>
        <time>2020-12-13T08:03:32Z</time>
      </trkpt>
      <trkpt lat="37.492" lon="27.5599">
        <ele>224.941</ele>
        <time>2020-12-13T08:03:33Z</time>
      </trkpt>
      <trkpt lat="37.49197" lon="27.55989">
        <ele>224.79</ele>
        <time>2020-12-13T08:03:34Z</time>
      </trkpt>
      <trkpt lat="37.49195" lon="27.55988">
        <ele>224.715</ele>
        <time>2020-12-13T08:03:35Z</time>
      </trkpt>
      <trkpt lat="37.49193" lon="27.55987">
        <ele>224.607</ele>
        <time>2020-12-13T08:03:36Z</time>
      </trkpt>
      <trkpt lat="37.49191" lon="27.55987">
        <ele>224.563</ele>
        <time>2020-12-13T08:03:37Z</time>
      </trkpt>
      <trkpt lat="37.49191" lon="27.55987">
        <ele>224.563</ele>
        <time>2020-12-13T08:03:38Z</time>
      </trkpt>
      <trkpt lat="37.49188" lon="27.55988">
        <ele>224.574</ele>
        <time>2020-12-13T08:03:39Z</time>
      </trkpt>
      <trkpt lat="37.49188" lon="27.55988">
        <ele>224.574</ele>
        <time>2020-12-13T08:03:40Z</time>
      </trkpt>
      <trkpt lat="37.49188" lon="27.55988">
        <ele>224.574</ele>
        <time>2020-12-13T08:03:41Z</time>
      </trkpt>
      <trkpt lat="37.49188" lon="27.55988">
        <ele>224.574</ele>
        <time>2020-12-13T08:03:42Z</time>
      </trkpt>
      <trkpt lat="37.49186" lon="27.55987">
        <ele>224.462</ele>
        <time>2020-12-13T08:03:43Z</time>
      </trkpt>
      <trkpt lat="37.49186" lon="27.55987">
        <ele>224.462</ele>
        <time>2020-12-13T08:03:44Z</time>
      </trkpt>
      <trkpt lat="37.49184" lon="27.55987">
        <ele>224.375</ele>
        <time>2020-12-13T08:03:45Z</time>
      </trkpt>
      <trkpt lat="37.49184" lon="27.55987">
        <ele>224.375</ele>
        <time>2020-12-13T08:03:46Z</time>
      </trkpt>
      <trkpt lat="37.49181" lon="27.55988">
        <ele>224.446</ele>
        <time>2020-12-13T08:03:47Z</time>
      </trkpt>
      <trkpt lat="37.49181" lon="27.55988">
        <ele>224.446</ele>
        <time>2020-12-13T08:03:48Z</time>
      </trkpt>
      <trkpt lat="37.49178" lon="27.55989">
        <ele>224.508</ele>
        <time>2020-12-13T08:03:49Z</time>
      </trkpt>
      <trkpt lat="37.49176" lon="27.55989">
        <ele>224.52</ele>
        <time>2020-12-13T08:03:50Z</time>
      </trkpt>
      <trkpt lat="37.49176" lon="27.55989">
        <ele>224.52</ele>
        <time>2020-12-13T08:03:51Z</time>
      </trkpt>
      <trkpt lat="37.49176" lon="27.55989">
        <ele>224.52</ele>
        <time>2020-12-13T08:03:52Z</time>
      </trkpt>
      <trkpt lat="37.49176" lon="27.55989">
        <ele>224.52</ele>
        <time>2020-12-13T08:03:53Z</time>
      </trkpt>
      <trkpt lat="37.49176" lon="27.55989">
        <ele>224.52</ele>
        <time>2020-12-13T08:03:54Z</time>
      </trkpt>
      <trkpt lat="37.49173" lon="27.55991">
        <ele>224.779</ele>
        <time>2020-12-13T08:03:55Z</time>
      </trkpt>
      <trkpt lat="37.4917" lon="27.55993">
        <ele>225.04</ele>
        <time>2020-12-13T08:03:56Z</time>
      </trkpt>
      <trkpt lat="37.49168" lon="27.55995">
        <ele>225.33</ele>
        <time>2020-12-13T08:03:57Z</time>
      </trkpt>
      <trkpt lat="37.49165" lon="27.55998">
        <ele>225.578</ele>
        <time>2020-12-13T08:03:58Z</time>
      </trkpt>
      <trkpt lat="37.49162" lon="27.56">
        <ele>225.787</ele>
        <time>2020-12-13T08:03:59Z</time>
      </trkpt>
      <trkpt lat="37.4916" lon="27.56002">
        <ele>226.073</ele>
        <time>2020-12-13T08:04:00Z</time>
      </trkpt>
      <trkpt lat="37.49156" lon="27.56006">
        <ele>226.721</ele>
        <time>2020-12-13T08:04:01Z</time>
      </trkpt>
      <trkpt lat="37.49156" lon="27.5601">
        <ele>227.315</ele>
      </trkpt>
      <trkpt lat="37.49152" lon="27.55998">
        <ele>225.215</ele>
      </trkpt>
      <trkpt lat="37.49149" lon="27.55991">
        <ele>223.852</ele>
      </trkpt>
      <trkpt lat="37.49149" lon="27.55977">
        <ele>221.489</ele>
      </trkpt>
      <trkpt lat="37.49139" lon="27.55955">
        <ele>218.116</ele>
      </trkpt>
      <trkpt lat="37.49136" lon="27.5595">
        <ele>217.355</ele>
      </trkpt>
      <trkpt lat="37.49133" lon="27.55947">
        <ele>216.627</ele>
      </trkpt>
      <trkpt lat="37.49128" lon="27.55938">
        <ele>215.146</ele>
      </trkpt>
      <trkpt lat="37.49127" lon="27.55937">
        <ele>214.928</ele>
      </trkpt>
      <trkpt lat="37.49126" lon="27.55932">
        <ele>214.325</ele>
      </trkpt>
      <trkpt lat="37.49118" lon="27.55938">
        <ele>214.047</ele>
      </trkpt>
      <trkpt lat="37.49114" lon="27.55942">
        <ele>214.053</ele>
      </trkpt>
      <trkpt lat="37.49114" lon="27.55943">
        <ele>214.181</ele>
      </trkpt>
      <trkpt lat="37.49115" lon="27.55945">
        <ele>214.391</ele>
      </trkpt>
      <trkpt lat="37.49109" lon="27.55927">
        <ele>211.993</ele>
      </trkpt>
      <trkpt lat="37.49109" lon="27.55921">
        <ele>211.295</ele>
      </trkpt>
      <trkpt lat="37.49109" lon="27.55919">
        <ele>211.148</ele>
      </trkpt>
      <trkpt lat="37.49108" lon="27.55907">
        <ele>209.708</ele>
      </trkpt>
      <trkpt lat="37.49102" lon="27.55898">
        <ele>208.248</ele>
      </trkpt>
      <trkpt lat="37.49097" lon="27.55888">
        <ele>206.638</ele>
      </trkpt>
      <trkpt lat="37.49097" lon="27.55886">
        <ele>206.297</ele>
      </trkpt>
      <trkpt lat="37.49097" lon="27.55884">
        <ele>205.635</ele>
      </trkpt>
      <trkpt lat="37.49089" lon="27.55889">
        <ele>206.454</ele>
      </trkpt>
      <trkpt lat="37.49086" lon="27.55891">
        <ele>206.406</ele>
      </trkpt>
      <trkpt lat="37.49079" lon="27.55894">
        <ele>206.432</ele>
      </trkpt>
      <trkpt lat="37.49078" lon="27.55894">
        <ele>206.393</ele>
      </trkpt>
      <trkpt lat="37.49076" lon="27.55888">
        <ele>205.569</ele>
      </trkpt>
      <trkpt lat="37.49075" lon="27.55881">
        <ele>203.475</ele>
      </trkpt>
      <trkpt lat="37.49074" lon="27.55875">
        <ele>201.926</ele>
      </trkpt>
      <trkpt lat="37.49071" lon="27.55876">
        <ele>202.032</ele>
      </trkpt>
      <trkpt lat="37.49072" lon="27.55889">
        <ele>205.614</ele>
      </trkpt>
      <trkpt lat="37.49073" lon="27.55892">
        <ele>205.96</ele>
      </trkpt>
      <trkpt lat="37.49075" lon="27.55895">
        <ele>206.41</ele>
      </trkpt>
      <trkpt lat="37.49075" lon="27.55897">
        <ele>206.615</ele>
      </trkpt>
      <trkpt lat="37.49083" lon="27.55893">
        <ele>206.46</ele>
      </trkpt>
      <trkpt lat="37.49085" lon="27.55893">
        <ele>206.598</ele>
      </trkpt>
      <trkpt lat="37.49093" lon="27.55891">
        <ele>206.907</ele>
      </trkpt>
      <trkpt lat="37.49095" lon="27.55889">
        <ele>206.831</ele>
      </trkpt>
      <trkpt lat="37.49096" lon="27.55888">
        <ele>206.571</ele>
      </trkpt>
      <trkpt lat="37.49098" lon="27.55887">
        <ele>206.418</ele>
      </trkpt>
      <trkpt lat="37.49101" lon="27.55894">
        <ele>207.846</ele>
      </trkpt>
      <trkpt lat="37.49106" lon="27.55902">
        <ele>209</ele>
      </trkpt>
      <trkpt lat="37.4911" lon="27.5591">
        <ele>210.23</ele>
      </trkpt>
      <trkpt lat="37.4911" lon="27.55916">
        <ele>210.856</ele>
      </trkpt>
      <trkpt lat="37.49109" lon="27.55927">
        <ele>211.978</ele>
      </trkpt>
      <trkpt lat="37.49113" lon="27.5594">
        <ele>213.792</ele>
      </trkpt>
      <trkpt lat="37.4912" lon="27.55958">
        <ele>216.355</ele>
      </trkpt>
      <trkpt lat="37.49128" lon="27.5597">
        <ele>218.547</ele>
      </trkpt>
      <trkpt lat="37.49129" lon="27.55981">
        <ele>220.396</ele>
      </trkpt>
      <trkpt lat="37.49126" lon="27.55991">
        <ele>221.641</ele>
      </trkpt>
      <trkpt lat="37.49125" lon="27.55992">
        <ele>221.605</ele>
      </trkpt>
      <trkpt lat="37.49115" lon="27.55998">
        <ele>221.146</ele>
      </trkpt>
      <trkpt lat="37.49115" lon="27.55998">
        <ele>221.148</ele>
      </trkpt>
      <trkpt lat="37.49108" lon="27.56008">
        <ele>221.738</ele>
      </trkpt>
      <trkpt lat="37.49102" lon="27.56011">
        <ele>221.023</ele>
      </trkpt>
      <trkpt lat="37.49089" lon="27.5603">
        <ele>220.992</ele>
      </trkpt>
      <trkpt lat="37.49089" lon="27.56043">
        <ele>221.083</ele>
      </trkpt>
      <trkpt lat="37.49087" lon="27.56047">
        <ele>220.673</ele>
      </trkpt>
      <trkpt lat="37.49087" lon="27.56051">
        <ele>220.691</ele>
      </trkpt>
      <trkpt lat="37.49089" lon="27.56056">
        <ele>221.17</ele>
      </trkpt>
      <trkpt lat="37.49085" lon="27.5606">
        <ele>219.934</ele>
      </trkpt>
      <trkpt lat="37.49078" lon="27.56064">
        <ele>218.366</ele>
      </trkpt>
      <trkpt lat="37.49072" lon="27.56064">
        <ele>217.136</ele>
      </trkpt>
      <trkpt lat="37.4907" lon="27.56066">
        <ele>216.533</ele>
      </trkpt>
      <trkpt lat="37.49065" lon="27.56075">
        <ele>214.88</ele>
      </trkpt>
      <trkpt lat="37.49054" lon="27.56086">
        <ele>211.625</ele>
      </trkpt>
      <trkpt lat="37.49048" lon="27.56084">
        <ele>210.625</ele>
      </trkpt>
      <trkpt lat="37.49044" lon="27.5609">
        <ele>209.189</ele>
      </trkpt>
      <trkpt lat="37.49039" lon="27.5609">
        <ele>208.344</ele>
      </trkpt>
      <trkpt lat="37.49033" lon="27.56099">
        <ele>205.954</ele>
      </trkpt>
      <trkpt lat="37.49027" lon="27.56101">
        <ele>204.255</ele>
      </trkpt>
      <trkpt lat="37.49009" lon="27.5612">
        <ele>197.753</ele>
      </trkpt>
      <trkpt lat="37.49005" lon="27.56122">
        <ele>196.334</ele>
      </trkpt>
      <trkpt lat="37.48999" lon="27.56122">
        <ele>194.707</ele>
      </trkpt>
      <trkpt lat="37.48997" lon="27.56126">
        <ele>193.421</ele>
      </trkpt>
      <trkpt lat="37.48997" lon="27.56131">
        <ele>192.629</ele>
      </trkpt>
      <trkpt lat="37.48992" lon="27.56133">
        <ele>191.185</ele>
      </trkpt>
      <trkpt lat="37.48982" lon="27.5612">
        <ele>191.192</ele>
      </trkpt>
      <trkpt lat="37.48973" lon="27.56122">
        <ele>188.778</ele>
      </trkpt>
      <trkpt lat="37.48964" lon="27.56126">
        <ele>186.244</ele>
      </trkpt>
      <trkpt lat="37.48962" lon="27.56133">
        <ele>184.291</ele>
      </trkpt>
      <trkpt lat="37.48956" lon="27.56137">
        <ele>181.891</ele>
      </trkpt>
      <trkpt lat="37.48956" lon="27.56144">
        <ele>180.663</ele>
      </trkpt>
      <trkpt lat="37.48951" lon="27.56146">
        <ele>179.343</ele>
      </trkpt>
      <trkpt lat="37.48941" lon="27.56148">
        <ele>176.938</ele>
      </trkpt>
      <trkpt lat="37.48939" lon="27.56152">
        <ele>175.876</ele>
      </trkpt>
      <trkpt lat="37.48932" lon="27.56156">
        <ele>174.229</ele>
      </trkpt>
      <trkpt lat="37.48926" lon="27.56165">
        <ele>171.634</ele>
      </trkpt>
      <trkpt lat="37.48928" lon="27.56184">
        <ele>168.558</ele>
      </trkpt>
      <trkpt lat="37.48926" lon="27.56195">
        <ele>166.228</ele>
      </trkpt>
      <trkpt lat="37.48921" lon="27.56202">
        <ele>164.683</ele>
      </trkpt>
      <trkpt lat="37.48917" lon="27.5621">
        <ele>162.984</ele>
      </trkpt>
      <trkpt lat="37.48913" lon="27.56214">
        <ele>161.988</ele>
      </trkpt>
      <trkpt lat="37.48913" lon="27.56221">
        <ele>161.428</ele>
      </trkpt>
      <trkpt lat="37.48917" lon="27.56225">
        <ele>162.11</ele>
      </trkpt>
      <trkpt lat="37.48921" lon="27.56238">
        <ele>163.191</ele>
      </trkpt>
      <trkpt lat="37.48924" lon="27.56249">
        <ele>163.732</ele>
      </trkpt>
      <trkpt lat="37.48917" lon="27.56257">
        <ele>162.89</ele>
      </trkpt>
      <trkpt lat="37.48915" lon="27.56268">
        <ele>163.7</ele>
      </trkpt>
      <trkpt lat="37.48911" lon="27.56275">
        <ele>163.778</ele>
      </trkpt>
      <trkpt lat="37.48902" lon="27.56279">
        <ele>162.989</ele>
      </trkpt>
      <trkpt lat="37.48896" lon="27.56281">
        <ele>162.283</ele>
      </trkpt>
      <trkpt lat="37.48887" lon="27.56281">
        <ele>161.206</ele>
      </trkpt>
      <trkpt lat="37.48881" lon="27.56285">
        <ele>161.206</ele>
      </trkpt>
      <trkpt lat="37.48874" lon="27.56296">
        <ele>161.901</ele>
      </trkpt>
      <trkpt lat="37.48853" lon="27.56313">
        <ele>161.929</ele>
      </trkpt>
      <trkpt lat="37.4884" lon="27.5633">
        <ele>163.3</ele>
      </trkpt>
      <trkpt lat="37.48833" lon="27.5633">
        <ele>162.347</ele>
      </trkpt>
      <trkpt lat="37.48831" lon="27.56335">
        <ele>162.844</ele>
      </trkpt>
      <trkpt lat="37.48829" lon="27.56343">
        <ele>163.952</ele>
      </trkpt>
      <trkpt lat="37.48838" lon="27.56373">
        <ele>170.435</ele>
      </trkpt>
      <trkpt lat="37.48848" lon="27.56382">
        <ele>173.551</ele>
      </trkpt>
      <trkpt lat="37.48861" lon="27.56403">
        <ele>179.57</ele>
      </trkpt>
      <trkpt lat="37.48866" lon="27.56429">
        <ele>183.746</ele>
      </trkpt>
      <trkpt lat="37.48874" lon="27.56457">
        <ele>186.904</ele>
      </trkpt>
      <trkpt lat="37.48876" lon="27.56476">
        <ele>189.518</ele>
      </trkpt>
      <trkpt lat="37.48868" lon="27.56504">
        <ele>195.775</ele>
      </trkpt>
      <trkpt lat="37.48866" lon="27.56515">
        <ele>198.015</ele>
      </trkpt>
      <trkpt lat="37.48859" lon="27.56538">
        <ele>202.205</ele>
      </trkpt>
      <trkpt lat="37.48859" lon="27.56588">
        <ele>204.709</ele>
      </trkpt>
      <trkpt lat="37.48861" lon="27.56607">
        <ele>204.99</ele>
      </trkpt>
      <trkpt lat="37.48859" lon="27.56624">
        <ele>206.099</ele>
      </trkpt>
      <trkpt lat="37.48864" lon="27.56641">
        <ele>208.185</ele>
      </trkpt>
      <trkpt lat="37.48859" lon="27.56654">
        <ele>209.38</ele>
      </trkpt>
      <trkpt lat="37.4884" lon="27.56671">
        <ele>208.322</ele>
      </trkpt>
      <trkpt lat="37.48823" lon="27.56682">
        <ele>205.647</ele>
      </trkpt>
      <trkpt lat="37.48812" lon="27.56693">
        <ele>204.228</ele>
      </trkpt>
      <trkpt lat="37.48797" lon="27.56693">
        <ele>200.058</ele>
      </trkpt>
      <trkpt lat="37.48786" lon="27.56697">
        <ele>197.323</ele>
      </trkpt>
      <trkpt lat="37.48782" lon="27.56702">
        <ele>196.859</ele>
      </trkpt>
      <trkpt lat="37.48771" lon="27.56727">
        <ele>198.922</ele>
      </trkpt>
      <trkpt lat="37.48765" lon="27.56738">
        <ele>198.682</ele>
      </trkpt>
      <trkpt lat="37.48752" lon="27.5677">
        <ele>198.954</ele>
      </trkpt>
      <trkpt lat="37.4875" lon="27.56781">
        <ele>199.702</ele>
      </trkpt>
      <trkpt lat="37.4875" lon="27.56813">
        <ele>205.827</ele>
      </trkpt>
      <trkpt lat="37.48754" lon="27.56822">
        <ele>207.148</ele>
      </trkpt>
      <trkpt lat="37.4875" lon="27.56822">
        <ele>206.763</ele>
      </trkpt>
      <trkpt lat="37.48745" lon="27.56813">
        <ele>206.106</ele>
      </trkpt>
      <trkpt lat="37.48741" lon="27.56809">
        <ele>205.775</ele>
      </trkpt>
      <trkpt lat="37.48735" lon="27.56809">
        <ele>206.087</ele>
      </trkpt>
      <trkpt lat="37.48733" lon="27.56813">
        <ele>206.945</ele>
      </trkpt>
      <trkpt lat="37.4873" lon="27.56811">
        <ele>206.69</ele>
      </trkpt>
      <trkpt lat="37.48722" lon="27.56809">
        <ele>206.801</ele>
      </trkpt>
      <trkpt lat="37.48718" lon="27.56815">
        <ele>209.37</ele>
      </trkpt>
      <trkpt lat="37.4872" lon="27.56822">
        <ele>210.149</ele>
      </trkpt>
      <trkpt lat="37.48724" lon="27.56826">
        <ele>210.197</ele>
      </trkpt>
      <trkpt lat="37.48724" lon="27.56832">
        <ele>211.543</ele>
      </trkpt>
      <trkpt lat="37.4872" lon="27.56832">
        <ele>212.431</ele>
      </trkpt>
      <trkpt lat="37.48718" lon="27.56843">
        <ele>214.82</ele>
      </trkpt>
      <trkpt lat="37.48722" lon="27.56847">
        <ele>214.148</ele>
      </trkpt>
      <trkpt lat="37.48713" lon="27.56869">
        <ele>221.212</ele>
      </trkpt>
      <trkpt lat="37.48713" lon="27.56875">
        <ele>222.595</ele>
      </trkpt>
      <trkpt lat="37.48707" lon="27.56882">
        <ele>227.043</ele>
      </trkpt>
      <trkpt lat="37.48705" lon="27.56888">
        <ele>229.662</ele>
      </trkpt>
      <trkpt lat="37.48705" lon="27.56899">
        <ele>231.644</ele>
      </trkpt>
      <trkpt lat="37.48703" lon="27.56901">
        <ele>233.111</ele>
      </trkpt>
      <trkpt lat="37.48703" lon="27.56905">
        <ele>233.884</ele>
      </trkpt>
      <trkpt lat="37.48694" lon="27.56931">
        <ele>243.327</ele>
      </trkpt>
      <trkpt lat="37.4869" lon="27.56938">
        <ele>246.571</ele>
      </trkpt>
      <trkpt lat="37.48681" lon="27.56935">
        <ele>249.816</ele>
      </trkpt>
      <trkpt lat="37.48673" lon="27.5694">
        <ele>254.451</ele>
      </trkpt>
      <trkpt lat="37.48673" lon="27.5695">
        <ele>256.599</ele>
      </trkpt>
      <trkpt lat="37.48666" lon="27.56953">
        <ele>259.419</ele>
      </trkpt>
      <trkpt lat="37.48662" lon="27.56965">
        <ele>261.328</ele>
      </trkpt>
      <trkpt lat="37.48662" lon="27.57075">
        <ele>265.075</ele>
      </trkpt>
      <trkpt lat="37.48658" lon="27.57086">
        <ele>265.173</ele>
      </trkpt>
      <trkpt lat="37.48636" lon="27.57109">
        <ele>262.334</ele>
      </trkpt>
      <trkpt lat="37.48623" lon="27.57118">
        <ele>260.371</ele>
      </trkpt>
      <trkpt lat="37.48595" lon="27.57124">
        <ele>254.84</ele>
      </trkpt>
      <trkpt lat="37.48582" lon="27.57131">
        <ele>252.458</ele>
      </trkpt>
      <trkpt lat="37.48572" lon="27.57148">
        <ele>249.546</ele>
      </trkpt>
      <trkpt lat="37.48563" lon="27.57152">
        <ele>247.286</ele>
      </trkpt>
      <trkpt lat="37.48567" lon="27.57165">
        <ele>247.634</ele>
      </trkpt>
      <trkpt lat="37.48583" lon="27.57189">
        <ele>249.252</ele>
        <time>2020-12-22T18:55:36Z</time>
      </trkpt>
      <trkpt lat="37.48583" lon="27.57189">
        <ele>249.252</ele>
        <time>2020-12-22T18:55:36Z</time>
      </trkpt>
      <trkpt lat="37.48583" lon="27.57189">
        <ele>249.252</ele>
        <time>2020-12-22T18:55:36Z</time>
      </trkpt>
      <trkpt lat="37.48578" lon="27.57186">
        <ele>248.498</ele>
      </trkpt>
      <trkpt lat="37.48582" lon="27.57189">
        <ele>249.139</ele>
      </trkpt>
      <trkpt lat="37.48596" lon="27.57205">
        <ele>250.277</ele>
      </trkpt>
      <trkpt lat="37.48601" lon="27.5722">
        <ele>249.717</ele>
      </trkpt>
      <trkpt lat="37.48611" lon="27.57257">
        <ele>248.952</ele>
      </trkpt>
      <trkpt lat="37.48612" lon="27.57285">
        <ele>249.463</ele>
      </trkpt>
      <trkpt lat="37.48611" lon="27.57289">
        <ele>249.328</ele>
      </trkpt>
      <trkpt lat="37.48573" lon="27.5732">
        <ele>247.53</ele>
      </trkpt>
      <trkpt lat="37.48559" lon="27.57328">
        <ele>247.656</ele>
      </trkpt>
      <trkpt lat="37.48557" lon="27.5736">
        <ele>249.192</ele>
      </trkpt>
      <trkpt lat="37.48564" lon="27.57369">
        <ele>249.932</ele>
      </trkpt>
      <trkpt lat="37.48576" lon="27.57374">
        <ele>251.523</ele>
      </trkpt>
      <trkpt lat="37.4859" lon="27.57381">
        <ele>253.401</ele>
      </trkpt>
      <trkpt lat="37.48612" lon="27.57386">
        <ele>257.198</ele>
      </trkpt>
      <trkpt lat="37.48634" lon="27.57388">
        <ele>261.057</ele>
      </trkpt>
      <trkpt lat="37.48646" lon="27.57402">
        <ele>262.677</ele>
      </trkpt>
      <trkpt lat="37.48675" lon="27.57448">
        <ele>263.487</ele>
      </trkpt>
      <trkpt lat="37.48678" lon="27.57453">
        <ele>262.97</ele>
      </trkpt>
      <trkpt lat="37.48691" lon="27.57468">
        <ele>262.241</ele>
      </trkpt>
      <trkpt lat="37.48692" lon="27.57458">
        <ele>263.782</ele>
      </trkpt>
      <trkpt lat="37.4869" lon="27.5745">
        <ele>264.763</ele>
      </trkpt>
      <trkpt lat="37.48696" lon="27.5746">
        <ele>263.938</ele>
      </trkpt>
      <trkpt lat="37.48697" lon="27.5746">
        <ele>264.034</ele>
      </trkpt>
      <trkpt lat="37.48698" lon="27.57464">
        <ele>263.674</ele>
      </trkpt>
      <trkpt lat="37.48705" lon="27.57468">
        <ele>264.086</ele>
      </trkpt>
      <trkpt lat="37.48705" lon="27.57468">
        <ele>264.092</ele>
      </trkpt>
      <trkpt lat="37.48705" lon="27.57468">
        <ele>264.097</ele>
      </trkpt>
      <trkpt lat="37.48704" lon="27.57468">
        <ele>263.965</ele>
      </trkpt>
      <trkpt lat="37.48703" lon="27.5747">
        <ele>263.532</ele>
      </trkpt>
      <trkpt lat="37.48705" lon="27.57473">
        <ele>263.464</ele>
      </trkpt>
      <trkpt lat="37.48718" lon="27.57488">
        <ele>264.195</ele>
      </trkpt>
      <trkpt lat="37.48723" lon="27.57488">
        <ele>265.009</ele>
      </trkpt>
      <trkpt lat="37.48722" lon="27.57488">
        <ele>264.776</ele>
      </trkpt>
      <trkpt lat="37.48729" lon="27.57496">
        <ele>266.244</ele>
      </trkpt>
      <trkpt lat="37.48728" lon="27.57512">
        <ele>266.514</ele>
      </trkpt>
      <trkpt lat="37.48723" lon="27.57535">
        <ele>266.468</ele>
      </trkpt>
      <trkpt lat="37.48723" lon="27.57543">
        <ele>266.643</ele>
      </trkpt>
      <trkpt lat="37.48724" lon="27.57556">
        <ele>267.528</ele>
      </trkpt>
      <trkpt lat="37.48725" lon="27.57558">
        <ele>267.394</ele>
      </trkpt>
      <trkpt lat="37.48725" lon="27.57557">
        <ele>267.664</ele>
      </trkpt>
      <trkpt lat="37.48725" lon="27.57559">
        <ele>267.364</ele>
      </trkpt>
      <trkpt lat="37.48724" lon="27.57557">
        <ele>267.455</ele>
      </trkpt>
      <trkpt lat="37.48724" lon="27.57557">
        <ele>267.471</ele>
      </trkpt>
      <trkpt lat="37.48724" lon="27.57557">
        <ele>267.469</ele>
      </trkpt>
      <trkpt lat="37.48724" lon="27.57557">
        <ele>267.462</ele>
      </trkpt>
      <trkpt lat="37.48724" lon="27.57556">
        <ele>267.491</ele>
      </trkpt>
      <trkpt lat="37.48724" lon="27.57556">
        <ele>267.492</ele>
      </trkpt>
      <trkpt lat="37.48727" lon="27.57564">
        <ele>267.387</ele>
      </trkpt>
      <trkpt lat="37.48728" lon="27.57578">
        <ele>266.05</ele>
      </trkpt>
      <trkpt lat="37.48729" lon="27.5758">
        <ele>266.144</ele>
      </trkpt>
      <trkpt lat="37.4873" lon="27.57581">
        <ele>266.176</ele>
      </trkpt>
      <trkpt lat="37.48735" lon="27.57587">
        <ele>266.533</ele>
      </trkpt>
      <trkpt lat="37.48732" lon="27.57586">
        <ele>265.816</ele>
      </trkpt>
      <trkpt lat="37.48735" lon="27.57593">
        <ele>264.849</ele>
      </trkpt>
      <trkpt lat="37.48741" lon="27.57596">
        <ele>265.971</ele>
      </trkpt>
      <trkpt lat="37.48746" lon="27.576">
        <ele>266.414</ele>
      </trkpt>
      <trkpt lat="37.48758" lon="27.57602">
        <ele>267.574</ele>
      </trkpt>
      <trkpt lat="37.48757" lon="27.57605">
        <ele>266.662</ele>
      </trkpt>
      <trkpt lat="37.48759" lon="27.57611">
        <ele>265.437</ele>
      </trkpt>
      <trkpt lat="37.48771" lon="27.57622">
        <ele>261.743</ele>
      </trkpt>
      <trkpt lat="37.48773" lon="27.57627">
        <ele>259.951</ele>
      </trkpt>
      <trkpt lat="37.48771" lon="27.57629">
        <ele>259.064</ele>
      </trkpt>
      <trkpt lat="37.48768" lon="27.57634">
        <ele>257.445</ele>
      </trkpt>
      <trkpt lat="37.48768" lon="27.57642">
        <ele>254.239</ele>
      </trkpt>
      <trkpt lat="37.48768" lon="27.57643">
        <ele>254.013</ele>
      </trkpt>
      <trkpt lat="37.48769" lon="27.57643">
        <ele>253.844</ele>
      </trkpt>
      <trkpt lat="37.4877" lon="27.57645">
        <ele>252.914</ele>
      </trkpt>
      <trkpt lat="37.48771" lon="27.57645">
        <ele>253.055</ele>
      </trkpt>
      <trkpt lat="37.48775" lon="27.57641">
        <ele>254.315</ele>
      </trkpt>
      <trkpt lat="37.48777" lon="27.57653">
        <ele>249.425</ele>
      </trkpt>
      <trkpt lat="37.48779" lon="27.57656">
        <ele>248.361</ele>
      </trkpt>
      <trkpt lat="37.4878" lon="27.57656">
        <ele>248.312</ele>
      </trkpt>
      <trkpt lat="37.48779" lon="27.57656">
        <ele>248.414</ele>
      </trkpt>
      <trkpt lat="37.48779" lon="27.57656">
        <ele>248.434</ele>
      </trkpt>
      <trkpt lat="37.48779" lon="27.57656">
        <ele>248.481</ele>
      </trkpt>
      <trkpt lat="37.48779" lon="27.57656">
        <ele>248.521</ele>
      </trkpt>
      <trkpt lat="37.4878" lon="27.57655">
        <ele>248.805</ele>
      </trkpt>
      <trkpt lat="37.48781" lon="27.57655">
        <ele>248.835</ele>
      </trkpt>
      <trkpt lat="37.48779" lon="27.57665">
        <ele>244.851</ele>
      </trkpt>
      <trkpt lat="37.48778" lon="27.57665">
        <ele>244.809</ele>
      </trkpt>
      <trkpt lat="37.48778" lon="27.57664">
        <ele>244.979</ele>
      </trkpt>
      <trkpt lat="37.48785" lon="27.57667">
        <ele>244.95</ele>
      </trkpt>
      <trkpt lat="37.48787" lon="27.57667">
        <ele>245.112</ele>
      </trkpt>
      <trkpt lat="37.48797" lon="27.57668">
        <ele>246.375</ele>
      </trkpt>
      <trkpt lat="37.488" lon="27.5767">
        <ele>246.39</ele>
      </trkpt>
      <trkpt lat="37.48806" lon="27.57672">
        <ele>246.637</ele>
      </trkpt>
      <trkpt lat="37.48809" lon="27.57676">
        <ele>246.567</ele>
      </trkpt>
      <trkpt lat="37.48809" lon="27.57676">
        <ele>246.423</ele>
      </trkpt>
      <trkpt lat="37.48809" lon="27.57685">
        <ele>244.428</ele>
      </trkpt>
      <trkpt lat="37.48809" lon="27.57691">
        <ele>243.215</ele>
      </trkpt>
      <trkpt lat="37.48807" lon="27.57698">
        <ele>241.446</ele>
      </trkpt>
      <trkpt lat="37.48808" lon="27.57711">
        <ele>240.624</ele>
      </trkpt>
      <trkpt lat="37.48815" lon="27.5773">
        <ele>242.049</ele>
      </trkpt>
      <trkpt lat="37.48815" lon="27.57732">
        <ele>242.06</ele>
      </trkpt>
      <trkpt lat="37.48819" lon="27.5775">
        <ele>242.665</ele>
      </trkpt>
      <trkpt lat="37.48824" lon="27.57765">
        <ele>243.159</ele>
      </trkpt>
      <trkpt lat="37.48825" lon="27.57765">
        <ele>243.337</ele>
      </trkpt>
      <trkpt lat="37.48825" lon="27.57772">
        <ele>242.527</ele>
      </trkpt>
      <trkpt lat="37.48826" lon="27.57779">
        <ele>242.169</ele>
      </trkpt>
      <trkpt lat="37.48827" lon="27.57783">
        <ele>241.726</ele>
      </trkpt>
      <trkpt lat="37.4883" lon="27.57792">
        <ele>240.894</ele>
      </trkpt>
      <trkpt lat="37.48835" lon="27.57805">
        <ele>239.166</ele>
      </trkpt>
      <trkpt lat="37.48844" lon="27.57811">
        <ele>238.068</ele>
      </trkpt>
      <trkpt lat="37.48852" lon="27.57814">
        <ele>237.724</ele>
      </trkpt>
      <trkpt lat="37.48859" lon="27.57807">
        <ele>239.652</ele>
      </trkpt>
      <trkpt lat="37.48864" lon="27.578">
        <ele>241.335</ele>
      </trkpt>
      <trkpt lat="37.48864" lon="27.578">
        <ele>241.316</ele>
      </trkpt>
      <trkpt lat="37.48863" lon="27.578">
        <ele>241.273</ele>
      </trkpt>
      <trkpt lat="37.48867" lon="27.57798">
        <ele>241.765</ele>
      </trkpt>
      <trkpt lat="37.48871" lon="27.57804">
        <ele>240.657</ele>
      </trkpt>
      <trkpt lat="37.48869" lon="27.57808">
        <ele>239.742</ele>
      </trkpt>
      <trkpt lat="37.48865" lon="27.57812">
        <ele>238.6</ele>
      </trkpt>
      <trkpt lat="37.48863" lon="27.57814">
        <ele>237.896</ele>
      </trkpt>
      <trkpt lat="37.48862" lon="27.57816">
        <ele>237.404</ele>
      </trkpt>
      <trkpt lat="37.48859" lon="27.57824">
        <ele>235.323</ele>
      </trkpt>
      <trkpt lat="37.48858" lon="27.57829">
        <ele>233.995</ele>
      </trkpt>
      <trkpt lat="37.48857" lon="27.57828">
        <ele>234.405</ele>
      </trkpt>
      <trkpt lat="37.48857" lon="27.57835">
        <ele>233.086</ele>
      </trkpt>
      <trkpt lat="37.48858" lon="27.57838">
        <ele>233.185</ele>
      </trkpt>
      <trkpt lat="37.48863" lon="27.57848">
        <ele>233.704</ele>
      </trkpt>
      <trkpt lat="37.48864" lon="27.57849">
        <ele>233.901</ele>
      </trkpt>
      <trkpt lat="37.48857" lon="27.57855">
        <ele>233.868</ele>
      </trkpt>
      <trkpt lat="37.48851" lon="27.57858">
        <ele>234.207</ele>
      </trkpt>
      <trkpt lat="37.4885" lon="27.57857">
        <ele>234.208</ele>
      </trkpt>
      <trkpt lat="37.48851" lon="27.57859">
        <ele>234.246</ele>
      </trkpt>
      <trkpt lat="37.48846" lon="27.5786">
        <ele>234.468</ele>
      </trkpt>
      <trkpt lat="37.48844" lon="27.5786">
        <ele>234.514</ele>
      </trkpt>
      <trkpt lat="37.48836" lon="27.57866">
        <ele>236.048</ele>
      </trkpt>
      <trkpt lat="37.48839" lon="27.57866">
        <ele>236.082</ele>
      </trkpt>
      <trkpt lat="37.4885" lon="27.57872">
        <ele>236.622</ele>
      </trkpt>
      <trkpt lat="37.48852" lon="27.57876">
        <ele>237.431</ele>
      </trkpt>
      <trkpt lat="37.48854" lon="27.57878">
        <ele>237.565</ele>
      </trkpt>
      <trkpt lat="37.48855" lon="27.5788">
        <ele>237.848</ele>
      </trkpt>
      <trkpt lat="37.48857" lon="27.5788">
        <ele>237.826</ele>
      </trkpt>
      <trkpt lat="37.48856" lon="27.57887">
        <ele>239.179</ele>
      </trkpt>
      <trkpt lat="37.48856" lon="27.57891">
        <ele>240.042</ele>
      </trkpt>
      <trkpt lat="37.48856" lon="27.57892">
        <ele>240.211</ele>
      </trkpt>
      <trkpt lat="37.48861" lon="27.579">
        <ele>241.469</ele>
      </trkpt>
      <trkpt lat="37.48858" lon="27.57911">
        <ele>244.09</ele>
      </trkpt>
      <trkpt lat="37.48858" lon="27.57916">
        <ele>245.229</ele>
      </trkpt>
      <trkpt lat="37.48864" lon="27.5792">
        <ele>245.589</ele>
      </trkpt>
      <trkpt lat="37.48861" lon="27.57917">
        <ele>245.042</ele>
      </trkpt>
      <trkpt lat="37.48863" lon="27.5792">
        <ele>245.743</ele>
      </trkpt>
      <trkpt lat="37.48866" lon="27.57919">
        <ele>245.21</ele>
      </trkpt>
      <trkpt lat="37.48866" lon="27.57921">
        <ele>245.819</ele>
      </trkpt>
      <trkpt lat="37.48848" lon="27.57916">
        <ele>246.338</ele>
      </trkpt>
      <trkpt lat="37.48847" lon="27.57916">
        <ele>246.455</ele>
      </trkpt>
      <trkpt lat="37.48833" lon="27.57916">
        <ele>247.813</ele>
      </trkpt>
      <trkpt lat="37.48832" lon="27.57916">
        <ele>247.965</ele>
      </trkpt>
      <trkpt lat="37.48832" lon="27.57916">
        <ele>248.07</ele>
      </trkpt>
      <trkpt lat="37.48832" lon="27.57916">
        <ele>247.947</ele>
      </trkpt>
      <trkpt lat="37.48829" lon="27.57917">
        <ele>248.525</ele>
      </trkpt>
      <trkpt lat="37.48827" lon="27.57918">
        <ele>248.87</ele>
      </trkpt>
      <trkpt lat="37.48824" lon="27.57919">
        <ele>249.304</ele>
      </trkpt>
      <trkpt lat="37.48827" lon="27.57923">
        <ele>249.743</ele>
      </trkpt>
      <trkpt lat="37.48829" lon="27.57926">
        <ele>250.13</ele>
      </trkpt>
      <trkpt lat="37.48829" lon="27.57926">
        <ele>250.111</ele>
      </trkpt>
      <trkpt lat="37.48829" lon="27.57926">
        <ele>250.205</ele>
      </trkpt>
      <trkpt lat="37.4883" lon="27.57927">
        <ele>250.32</ele>
      </trkpt>
      <trkpt lat="37.4883" lon="27.57929">
        <ele>250.731</ele>
      </trkpt>
      <trkpt lat="37.48829" lon="27.57931">
        <ele>251.118</ele>
      </trkpt>
      <trkpt lat="37.48828" lon="27.5793">
        <ele>250.858</ele>
      </trkpt>
      <trkpt lat="37.48835" lon="27.57943">
        <ele>253.611</ele>
      </trkpt>
      <trkpt lat="37.48836" lon="27.57946">
        <ele>253.918</ele>
      </trkpt>
      <trkpt lat="37.48844" lon="27.57966">
        <ele>255.346</ele>
      </trkpt>
      <trkpt lat="37.48846" lon="27.57975">
        <ele>255.983</ele>
      </trkpt>
      <trkpt lat="37.48847" lon="27.57981">
        <ele>255.967</ele>
      </trkpt>
      <trkpt lat="37.48846" lon="27.5798">
        <ele>255.951</ele>
      </trkpt>
      <trkpt lat="37.48854" lon="27.57999">
        <ele>256.988</ele>
      </trkpt>
      <trkpt lat="37.48855" lon="27.57997">
        <ele>257.035</ele>
      </trkpt>
      <trkpt lat="37.48852" lon="27.58003">
        <ele>256.591</ele>
      </trkpt>
      <trkpt lat="37.48853" lon="27.58023">
        <ele>255.976</ele>
      </trkpt>
      <trkpt lat="37.48851" lon="27.5803">
        <ele>255.621</ele>
      </trkpt>
      <trkpt lat="37.48851" lon="27.58029">
        <ele>255.499</ele>
      </trkpt>
      <trkpt lat="37.48852" lon="27.58033">
        <ele>255.679</ele>
      </trkpt>
      <trkpt lat="37.48857" lon="27.58047">
        <ele>256.835</ele>
      </trkpt>
      <trkpt lat="37.48861" lon="27.58064">
        <ele>257.982</ele>
      </trkpt>
      <trkpt lat="37.48863" lon="27.58078">
        <ele>257.905</ele>
      </trkpt>
      <trkpt lat="37.4887" lon="27.58103">
        <ele>258.382</ele>
      </trkpt>
      <trkpt lat="37.48872" lon="27.58104">
        <ele>258.383</ele>
      </trkpt>
      <trkpt lat="37.48871" lon="27.58104">
        <ele>258.385</ele>
      </trkpt>
      <trkpt lat="37.48867" lon="27.58134">
        <ele>261.847</ele>
      </trkpt>
      <trkpt lat="37.48875" lon="27.58155">
        <ele>265.799</ele>
      </trkpt>
      <trkpt lat="37.48878" lon="27.58166">
        <ele>268.265</ele>
      </trkpt>
      <trkpt lat="37.48878" lon="27.58166">
        <ele>268.286</ele>
      </trkpt>
      <trkpt lat="37.48879" lon="27.58165">
        <ele>268.266</ele>
      </trkpt>
      <trkpt lat="37.48879" lon="27.58165">
        <ele>268.149</ele>
      </trkpt>
      <trkpt lat="37.4888" lon="27.58172">
        <ele>269.183</ele>
      </trkpt>
      <trkpt lat="37.48877" lon="27.5818">
        <ele>269.781</ele>
      </trkpt>
      <trkpt lat="37.48878" lon="27.58193">
        <ele>271.209</ele>
      </trkpt>
      <trkpt lat="37.48875" lon="27.58203">
        <ele>271.93</ele>
      </trkpt>
      <trkpt lat="37.48871" lon="27.58225">
        <ele>274.029</ele>
      </trkpt>
      <trkpt lat="37.48876" lon="27.58241">
        <ele>278.211</ele>
      </trkpt>
      <trkpt lat="37.48877" lon="27.58248">
        <ele>279.979</ele>
      </trkpt>
      <trkpt lat="37.48881" lon="27.5826">
        <ele>283.014</ele>
      </trkpt>
      <trkpt lat="37.48881" lon="27.5826">
        <ele>282.823</ele>
      </trkpt>
      <trkpt lat="37.4888" lon="27.58261">
        <ele>282.99</ele>
      </trkpt>
      <trkpt lat="37.48882" lon="27.58265">
        <ele>284.026</ele>
      </trkpt>
      <trkpt lat="37.48887" lon="27.5828">
        <ele>287.543</ele>
      </trkpt>
      <trkpt lat="37.489" lon="27.5827">
        <ele>287.686</ele>
      </trkpt>
      <trkpt lat="37.48901" lon="27.58269">
        <ele>287.53</ele>
      </trkpt>
      <trkpt lat="37.48901" lon="27.58267">
        <ele>287.165</ele>
      </trkpt>
      <trkpt lat="37.48904" lon="27.58274">
        <ele>288.899</ele>
      </trkpt>
      <trkpt lat="37.48913" lon="27.58303">
        <ele>293.026</ele>
      </trkpt>
      <trkpt lat="37.48912" lon="27.58301">
        <ele>292.719</ele>
      </trkpt>
      <trkpt lat="37.48917" lon="27.58305">
        <ele>293.954</ele>
      </trkpt>
      <trkpt lat="37.4893" lon="27.58329">
        <ele>294.374</ele>
      </trkpt>
      <trkpt lat="37.48939" lon="27.5835">
        <ele>296.886</ele>
      </trkpt>
      <trkpt lat="37.48947" lon="27.5837">
        <ele>299.936</ele>
      </trkpt>
      <trkpt lat="37.48947" lon="27.5837">
        <ele>299.987</ele>
      </trkpt>
      <trkpt lat="37.48948" lon="27.58371">
        <ele>300.148</ele>
      </trkpt>
      <trkpt lat="37.48945" lon="27.58383">
        <ele>302.918</ele>
      </trkpt>
      <trkpt lat="37.48948" lon="27.58401">
        <ele>305.083</ele>
      </trkpt>
      <trkpt lat="37.48954" lon="27.58422">
        <ele>306.817</ele>
      </trkpt>
      <trkpt lat="37.48958" lon="27.58429">
        <ele>306.983</ele>
      </trkpt>
      <trkpt lat="37.48956" lon="27.58431">
        <ele>307.091</ele>
      </trkpt>
      <trkpt lat="37.48959" lon="27.58435">
        <ele>307.152</ele>
      </trkpt>
      <trkpt lat="37.4896" lon="27.58444">
        <ele>307.405</ele>
      </trkpt>
      <trkpt lat="37.48964" lon="27.58467">
        <ele>309.001</ele>
      </trkpt>
      <trkpt lat="37.48972" lon="27.58491">
        <ele>311.351</ele>
      </trkpt>
      <trkpt lat="37.48973" lon="27.58498">
        <ele>311.84</ele>
      </trkpt>
      <trkpt lat="37.48975" lon="27.58501">
        <ele>311.963</ele>
      </trkpt>
      <trkpt lat="37.48974" lon="27.58502">
        <ele>312.057</ele>
      </trkpt>
      <trkpt lat="37.48974" lon="27.58504">
        <ele>312.207</ele>
      </trkpt>
      <trkpt lat="37.48983" lon="27.58514">
        <ele>312.782</ele>
      </trkpt>
      <trkpt lat="37.48981" lon="27.58513">
        <ele>312.746</ele>
      </trkpt>
      <trkpt lat="37.48984" lon="27.58524">
        <ele>313.638</ele>
      </trkpt>
      <trkpt lat="37.4899" lon="27.58543">
        <ele>316.192</ele>
      </trkpt>
      <trkpt lat="37.49002" lon="27.58562">
        <ele>318.856</ele>
      </trkpt>
      <trkpt lat="37.49011" lon="27.58582">
        <ele>319.432</ele>
      </trkpt>
      <trkpt lat="37.49018" lon="27.58606">
        <ele>323.199</ele>
      </trkpt>
      <trkpt lat="37.49021" lon="27.58614">
        <ele>324.436</ele>
      </trkpt>
      <trkpt lat="37.4902" lon="27.58613">
        <ele>324.352</ele>
      </trkpt>
      <trkpt lat="37.49028" lon="27.5863">
        <ele>328.058</ele>
      </trkpt>
      <trkpt lat="37.49036" lon="27.58647">
        <ele>328.356</ele>
      </trkpt>
      <trkpt lat="37.49037" lon="27.58652">
        <ele>328.552</ele>
      </trkpt>
      <trkpt lat="37.49038" lon="27.58652">
        <ele>328.53</ele>
      </trkpt>
      <trkpt lat="37.49043" lon="27.58668">
        <ele>329.914</ele>
      </trkpt>
      <trkpt lat="37.49043" lon="27.58668">
        <ele>329.975</ele>
      </trkpt>
      <trkpt lat="37.49045" lon="27.58669">
        <ele>329.811</ele>
      </trkpt>
      <trkpt lat="37.49051" lon="27.58694">
        <ele>331.463</ele>
      </trkpt>
      <trkpt lat="37.49053" lon="27.58702">
        <ele>331.932</ele>
      </trkpt>
      <trkpt lat="37.49053" lon="27.58708">
        <ele>332.184</ele>
      </trkpt>
      <trkpt lat="37.49058" lon="27.58721">
        <ele>332.35</ele>
      </trkpt>
      <trkpt lat="37.49057" lon="27.58721">
        <ele>332.709</ele>
      </trkpt>
      <trkpt lat="37.49061" lon="27.58728">
        <ele>332.717</ele>
      </trkpt>
      <trkpt lat="37.49064" lon="27.58733">
        <ele>332.835</ele>
      </trkpt>
      <trkpt lat="37.49071" lon="27.58755">
        <ele>335.406</ele>
      </trkpt>
      <trkpt lat="37.49073" lon="27.58758">
        <ele>335.799</ele>
      </trkpt>
      <trkpt lat="37.49073" lon="27.5876">
        <ele>335.951</ele>
      </trkpt>
      <trkpt lat="37.49082" lon="27.58778">
        <ele>338.897</ele>
      </trkpt>
      <trkpt lat="37.49087" lon="27.58792">
        <ele>341.058</ele>
      </trkpt>
      <trkpt lat="37.49089" lon="27.58808">
        <ele>343.402</ele>
      </trkpt>
      <trkpt lat="37.49091" lon="27.58823">
        <ele>345.094</ele>
      </trkpt>
      <trkpt lat="37.49096" lon="27.58838">
        <ele>347.109</ele>
      </trkpt>
      <trkpt lat="37.491" lon="27.58844">
        <ele>348.344</ele>
      </trkpt>
      <trkpt lat="37.49109" lon="27.58849">
        <ele>350.667</ele>
      </trkpt>
      <trkpt lat="37.49112" lon="27.58855">
        <ele>352.16</ele>
      </trkpt>
      <trkpt lat="37.49111" lon="27.58856">
        <ele>352.207</ele>
      </trkpt>
      <trkpt lat="37.49116" lon="27.58852">
        <ele>352.178</ele>
      </trkpt>
      <trkpt lat="37.49119" lon="27.58855">
        <ele>352.859</ele>
      </trkpt>
      <trkpt lat="37.49124" lon="27.58862">
        <ele>354.481</ele>
      </trkpt>
      <trkpt lat="37.49124" lon="27.58863">
        <ele>354.587</ele>
      </trkpt>
      <trkpt lat="37.49124" lon="27.58862">
        <ele>354.542</ele>
      </trkpt>
      <trkpt lat="37.49138" lon="27.58866">
        <ele>356.778</ele>
      </trkpt>
      <trkpt lat="37.4914" lon="27.58867">
        <ele>357.034</ele>
      </trkpt>
      <trkpt lat="37.49143" lon="27.58867">
        <ele>357.027</ele>
      </trkpt>
      <trkpt lat="37.49158" lon="27.58873">
        <ele>357.827</ele>
      </trkpt>
      <trkpt lat="37.49166" lon="27.58886">
        <ele>360.436</ele>
      </trkpt>
      <trkpt lat="37.49166" lon="27.58886">
        <ele>360.271</ele>
      </trkpt>
      <trkpt lat="37.49164" lon="27.5889">
        <ele>361.148</ele>
      </trkpt>
      <trkpt lat="37.49167" lon="27.58896">
        <ele>362.505</ele>
      </trkpt>
      <trkpt lat="37.49181" lon="27.58915">
        <ele>367.672</ele>
      </trkpt>
      <trkpt lat="37.49186" lon="27.58918">
        <ele>368.544</ele>
      </trkpt>
      <trkpt lat="37.49186" lon="27.58918">
        <ele>368.545</ele>
      </trkpt>
      <trkpt lat="37.49186" lon="27.58918">
        <ele>368.55</ele>
      </trkpt>
      <trkpt lat="37.49186" lon="27.58918">
        <ele>368.562</ele>
      </trkpt>
      <trkpt lat="37.49186" lon="27.58917">
        <ele>368.506</ele>
      </trkpt>
      <trkpt lat="37.49185" lon="27.5892">
        <ele>368.941</ele>
      </trkpt>
      <trkpt lat="37.49188" lon="27.58924">
        <ele>369.699</ele>
      </trkpt>
      <trkpt lat="37.49188" lon="27.58924">
        <ele>369.7</ele>
      </trkpt>
      <trkpt lat="37.49188" lon="27.58924">
        <ele>369.723</ele>
      </trkpt>
      <trkpt lat="37.49191" lon="27.58927">
        <ele>370.314</ele>
      </trkpt>
      <trkpt lat="37.49204" lon="27.5893">
        <ele>372.305</ele>
      </trkpt>
      <trkpt lat="37.4921" lon="27.58931">
        <ele>373.27</ele>
      </trkpt>
      <trkpt lat="37.49214" lon="27.5893">
        <ele>373.844</ele>
      </trkpt>
      <trkpt lat="37.49214" lon="27.58931">
        <ele>373.82</ele>
      </trkpt>
      <trkpt lat="37.49221" lon="27.58925">
        <ele>374.063</ele>
      </trkpt>
      <trkpt lat="37.49233" lon="27.58904">
        <ele>373.609</ele>
      </trkpt>
      <trkpt lat="37.49233" lon="27.58905">
        <ele>373.727</ele>
      </trkpt>
      <trkpt lat="37.49235" lon="27.589">
        <ele>373.462</ele>
      </trkpt>
      <trkpt lat="37.4924" lon="27.58903">
        <ele>375.127</ele>
      </trkpt>
      <trkpt lat="37.49246" lon="27.58912">
        <ele>378.107</ele>
      </trkpt>
      <trkpt lat="37.49247" lon="27.58914">
        <ele>378.647</ele>
      </trkpt>
      <trkpt lat="37.49261" lon="27.58912">
        <ele>381.05</ele>
      </trkpt>
      <trkpt lat="37.49261" lon="27.58912">
        <ele>381.068</ele>
      </trkpt>
      <trkpt lat="37.49265" lon="27.58915">
        <ele>382.257</ele>
      </trkpt>
      <trkpt lat="37.49269" lon="27.58913">
        <ele>382.648</ele>
      </trkpt>
      <trkpt lat="37.49274" lon="27.5891">
        <ele>382.939</ele>
      </trkpt>
      <trkpt lat="37.49279" lon="27.58907">
        <ele>382.96</ele>
      </trkpt>
      <trkpt lat="37.49281" lon="27.58907">
        <ele>382.887</ele>
      </trkpt>
      <trkpt lat="37.4928" lon="27.58906">
        <ele>382.654</ele>
      </trkpt>
      <trkpt lat="37.49286" lon="27.58912">
        <ele>383.813</ele>
      </trkpt>
      <trkpt lat="37.49287" lon="27.58918">
        <ele>384.906</ele>
      </trkpt>
      <trkpt lat="37.49287" lon="27.58918">
        <ele>384.821</ele>
      </trkpt>
      <trkpt lat="37.49288" lon="27.5892">
        <ele>385.141</ele>
      </trkpt>
      <trkpt lat="37.49288" lon="27.58934">
        <ele>387.388</ele>
      </trkpt>
      <trkpt lat="37.49287" lon="27.58943">
        <ele>388.665</ele>
      </trkpt>
      <trkpt lat="37.49286" lon="27.58945">
        <ele>389.128</ele>
      </trkpt>
      <trkpt lat="37.49286" lon="27.58943">
        <ele>388.707</ele>
      </trkpt>
      <trkpt lat="37.49286" lon="27.58953">
        <ele>390.993</ele>
      </trkpt>
      <trkpt lat="37.49283" lon="27.58971">
        <ele>395.635</ele>
      </trkpt>
      <trkpt lat="37.49276" lon="27.58994">
        <ele>399.553</ele>
      </trkpt>
      <trkpt lat="37.49277" lon="27.58995">
        <ele>399.965</ele>
      </trkpt>
      <trkpt lat="37.49278" lon="27.58996">
        <ele>400.201</ele>
      </trkpt>
      <trkpt lat="37.49279" lon="27.58996">
        <ele>400.31</ele>
      </trkpt>
      <trkpt lat="37.49279" lon="27.58995">
        <ele>400.175</ele>
      </trkpt>
      <trkpt lat="37.49279" lon="27.58995">
        <ele>400.123</ele>
      </trkpt>
      <trkpt lat="37.49279" lon="27.58994">
        <ele>400.072</ele>
      </trkpt>
      <trkpt lat="37.49279" lon="27.58994">
        <ele>400.001</ele>
      </trkpt>
      <trkpt lat="37.4928" lon="27.58999">
        <ele>400.906</ele>
      </trkpt>
      <trkpt lat="37.49283" lon="27.59012">
        <ele>403.46</ele>
      </trkpt>
      <trkpt lat="37.49283" lon="27.59012">
        <ele>403.529</ele>
      </trkpt>
      <trkpt lat="37.49283" lon="27.59011">
        <ele>403.389</ele>
      </trkpt>
      <trkpt lat="37.49291" lon="27.59017">
        <ele>405.029</ele>
      </trkpt>
      <trkpt lat="37.49297" lon="27.59022">
        <ele>406.361</ele>
      </trkpt>
      <trkpt lat="37.49296" lon="27.59024">
        <ele>406.551</ele>
      </trkpt>
      <trkpt lat="37.49303" lon="27.5903">
        <ele>408.34</ele>
      </trkpt>
      <trkpt lat="37.49308" lon="27.59034">
        <ele>409.222</ele>
      </trkpt>
      <trkpt lat="37.49311" lon="27.59038">
        <ele>410.131</ele>
      </trkpt>
      <trkpt lat="37.49311" lon="27.59038">
        <ele>410.163</ele>
      </trkpt>
      <trkpt lat="37.49314" lon="27.5904">
        <ele>410.349</ele>
      </trkpt>
      <trkpt lat="37.49321" lon="27.59042">
        <ele>410.355</ele>
      </trkpt>
      <trkpt lat="37.49321" lon="27.59041">
        <ele>410.155</ele>
      </trkpt>
      <trkpt lat="37.49315" lon="27.59048">
        <ele>412.642</ele>
      </trkpt>
      <trkpt lat="37.49315" lon="27.59048">
        <ele>412.599</ele>
      </trkpt>
      <trkpt lat="37.49314" lon="27.5905">
        <ele>413.18</ele>
      </trkpt>
      <trkpt lat="37.49314" lon="27.59052">
        <ele>413.654</ele>
      </trkpt>
      <trkpt lat="37.49312" lon="27.59057">
        <ele>415.202</ele>
      </trkpt>
      <trkpt lat="37.49316" lon="27.59061">
        <ele>415.882</ele>
      </trkpt>
      <trkpt lat="37.49318" lon="27.59062">
        <ele>416.153</ele>
      </trkpt>
      <trkpt lat="37.49321" lon="27.59065">
        <ele>417.146</ele>
      </trkpt>
      <trkpt lat="37.49327" lon="27.59071">
        <ele>418.893</ele>
      </trkpt>
      <trkpt lat="37.49329" lon="27.59071">
        <ele>418.983</ele>
      </trkpt>
      <trkpt lat="37.49333" lon="27.59072">
        <ele>419.371</ele>
      </trkpt>
      <trkpt lat="37.49335" lon="27.59073">
        <ele>419.357</ele>
      </trkpt>
      <trkpt lat="37.49338" lon="27.59073">
        <ele>419.312</ele>
      </trkpt>
      <trkpt lat="37.49339" lon="27.59073">
        <ele>419.184</ele>
      </trkpt>
      <trkpt lat="37.49337" lon="27.59073">
        <ele>419.33</ele>
      </trkpt>
      <trkpt lat="37.49337" lon="27.59072">
        <ele>419.22</ele>
      </trkpt>
      <trkpt lat="37.49337" lon="27.59072">
        <ele>418.935</ele>
      </trkpt>
      <trkpt lat="37.49339" lon="27.59073">
        <ele>419.211</ele>
      </trkpt>
      <trkpt lat="37.49339" lon="27.59073">
        <ele>419.167</ele>
      </trkpt>
      <trkpt lat="37.4934" lon="27.59073">
        <ele>419.106</ele>
      </trkpt>
      <trkpt lat="37.49342" lon="27.59082">
        <ele>421.956</ele>
      </trkpt>
      <trkpt lat="37.49342" lon="27.59089">
        <ele>423.88</ele>
      </trkpt>
      <trkpt lat="37.49343" lon="27.5909">
        <ele>423.894</ele>
      </trkpt>
      <trkpt lat="37.49343" lon="27.5909">
        <ele>423.906</ele>
      </trkpt>
      <trkpt lat="37.49348" lon="27.59097">
        <ele>425.547</ele>
      </trkpt>
      <trkpt lat="37.49351" lon="27.59098">
        <ele>425.908</ele>
      </trkpt>
      <trkpt lat="37.49353" lon="27.59099">
        <ele>426.048</ele>
      </trkpt>
      <trkpt lat="37.49358" lon="27.59101">
        <ele>426.637</ele>
      </trkpt>
      <trkpt lat="37.4936" lon="27.59104">
        <ele>427.819</ele>
      </trkpt>
      <trkpt lat="37.49362" lon="27.59111">
        <ele>430.056</ele>
      </trkpt>
      <trkpt lat="37.49368" lon="27.59112">
        <ele>430.333</ele>
      </trkpt>
      <trkpt lat="37.4937" lon="27.59115">
        <ele>431.262</ele>
      </trkpt>
      <trkpt lat="37.4938" lon="27.59116">
        <ele>431.786</ele>
      </trkpt>
      <trkpt lat="37.4938" lon="27.59116">
        <ele>431.738</ele>
      </trkpt>
      <trkpt lat="37.4938" lon="27.59117">
        <ele>432.169</ele>
      </trkpt>
      <trkpt lat="37.49381" lon="27.59122">
        <ele>434.045</ele>
      </trkpt>
      <trkpt lat="37.49387" lon="27.59125">
        <ele>435.373</ele>
      </trkpt>
      <trkpt lat="37.49387" lon="27.59124">
        <ele>435.099</ele>
      </trkpt>
      <trkpt lat="37.49388" lon="27.59127">
        <ele>436.305</ele>
      </trkpt>
      <trkpt lat="37.49381" lon="27.59127">
        <ele>435.961</ele>
      </trkpt>
      <trkpt lat="37.49373" lon="27.59128">
        <ele>436.294</ele>
      </trkpt>
      <trkpt lat="37.4937" lon="27.59131">
        <ele>437.22</ele>
      </trkpt>
      <trkpt lat="37.49364" lon="27.59134">
        <ele>438.349</ele>
      </trkpt>
      <trkpt lat="37.49362" lon="27.59135">
        <ele>438.499</ele>
      </trkpt>
      <trkpt lat="37.49359" lon="27.59135">
        <ele>438.172</ele>
      </trkpt>
      <trkpt lat="37.49355" lon="27.59142">
        <ele>439.911</ele>
      </trkpt>
      <trkpt lat="37.49353" lon="27.59145">
        <ele>440.594</ele>
      </trkpt>
      <trkpt lat="37.49356" lon="27.59158">
        <ele>444.971</ele>
      </trkpt>
      <trkpt lat="37.49356" lon="27.59164">
        <ele>446.977</ele>
      </trkpt>
      <trkpt lat="37.49347" lon="27.59171">
        <ele>447.15</ele>
      </trkpt>
      <trkpt lat="37.49346" lon="27.59173">
        <ele>447.377</ele>
      </trkpt>
      <trkpt lat="37.49343" lon="27.59179">
        <ele>448.239</ele>
      </trkpt>
      <trkpt lat="37.49342" lon="27.5918">
        <ele>448.555</ele>
      </trkpt>
      <trkpt lat="37.49343" lon="27.59179">
        <ele>448.501</ele>
      </trkpt>
      <trkpt lat="37.49343" lon="27.5918">
        <ele>448.708</ele>
      </trkpt>
      <trkpt lat="37.49342" lon="27.5918">
        <ele>448.606</ele>
      </trkpt>
      <trkpt lat="37.4934" lon="27.59191">
        <ele>451.185</ele>
      </trkpt>
      <trkpt lat="37.49344" lon="27.59191">
        <ele>451.929</ele>
      </trkpt>
      <trkpt lat="37.4934" lon="27.59197">
        <ele>453.007</ele>
      </trkpt>
      <trkpt lat="37.49339" lon="27.59198">
        <ele>453.106</ele>
      </trkpt>
      <trkpt lat="37.49336" lon="27.5921">
        <ele>456.493</ele>
      </trkpt>
      <trkpt lat="37.49336" lon="27.59213">
        <ele>457.315</ele>
      </trkpt>
      <trkpt lat="37.49332" lon="27.59222">
        <ele>459.798</ele>
      </trkpt>
      <trkpt lat="37.49323" lon="27.5923">
        <ele>461.235</ele>
      </trkpt>
      <trkpt lat="37.4932" lon="27.59232">
        <ele>461.865</ele>
      </trkpt>
      <trkpt lat="37.49317" lon="27.59235">
        <ele>462.571</ele>
      </trkpt>
      <trkpt lat="37.49323" lon="27.59239">
        <ele>464.751</ele>
      </trkpt>
      <trkpt lat="37.49323" lon="27.59241">
        <ele>465.468</ele>
      </trkpt>
      <trkpt lat="37.49325" lon="27.59238">
        <ele>464.367</ele>
      </trkpt>
      <trkpt lat="37.49336" lon="27.59236">
        <ele>464.899</ele>
      </trkpt>
      <trkpt lat="37.49338" lon="27.59237">
        <ele>465.291</ele>
      </trkpt>
      <trkpt lat="37.49344" lon="27.59254">
        <ele>471.647</ele>
      </trkpt>
      <trkpt lat="37.49346" lon="27.59249">
        <ele>470.284</ele>
      </trkpt>
      <trkpt lat="37.49349" lon="27.59256">
        <ele>473.048</ele>
      </trkpt>
      <trkpt lat="37.49349" lon="27.59262">
        <ele>475.01</ele>
      </trkpt>
      <trkpt lat="37.49347" lon="27.59262">
        <ele>474.754</ele>
      </trkpt>
      <trkpt lat="37.49342" lon="27.5926">
        <ele>473.403</ele>
      </trkpt>
      <trkpt lat="37.49336" lon="27.59268">
        <ele>475.336</ele>
      </trkpt>
      <trkpt lat="37.49333" lon="27.5927">
        <ele>475.477</ele>
      </trkpt>
      <trkpt lat="37.49326" lon="27.59274">
        <ele>476.713</ele>
      </trkpt>
      <trkpt lat="37.49327" lon="27.59275">
        <ele>477.156</ele>
      </trkpt>
      <trkpt lat="37.4933" lon="27.59278">
        <ele>478.078</ele>
      </trkpt>
      <trkpt lat="37.49333" lon="27.59283">
        <ele>479.503</ele>
      </trkpt>
      <trkpt lat="37.49339" lon="27.59287">
        <ele>480.923</ele>
      </trkpt>
      <trkpt lat="37.49345" lon="27.59286">
        <ele>481.204</ele>
      </trkpt>
      <trkpt lat="37.49348" lon="27.59289">
        <ele>482.139</ele>
      </trkpt>
      <trkpt lat="37.49351" lon="27.59294">
        <ele>483.502</ele>
      </trkpt>
      <trkpt lat="37.49347" lon="27.59295">
        <ele>483.607</ele>
      </trkpt>
      <trkpt lat="37.49348" lon="27.59299">
        <ele>484.443</ele>
      </trkpt>
      <trkpt lat="37.4935" lon="27.59307">
        <ele>486.328</ele>
      </trkpt>
      <trkpt lat="37.49353" lon="27.59304">
        <ele>485.558</ele>
      </trkpt>
      <trkpt lat="37.49355" lon="27.59304">
        <ele>485.72</ele>
      </trkpt>
      <trkpt lat="37.49356" lon="27.59322">
        <ele>489.374</ele>
      </trkpt>
      <trkpt lat="37.49356" lon="27.59327">
        <ele>490.303</ele>
      </trkpt>
      <trkpt lat="37.49356" lon="27.59329">
        <ele>490.777</ele>
      </trkpt>
      <trkpt lat="37.49356" lon="27.59329">
        <ele>490.719</ele>
      </trkpt>
      <trkpt lat="37.49356" lon="27.59336">
        <ele>492.896</ele>
      </trkpt>
      <trkpt lat="37.49362" lon="27.59349">
        <ele>498.229</ele>
      </trkpt>
      <trkpt lat="37.49366" lon="27.59352">
        <ele>499.538</ele>
      </trkpt>
      <trkpt lat="37.49367" lon="27.59363">
        <ele>504.798</ele>
      </trkpt>
      <trkpt lat="37.49367" lon="27.59362">
        <ele>504.182</ele>
      </trkpt>
      <trkpt lat="37.49365" lon="27.59367">
        <ele>506.928</ele>
      </trkpt>
      <trkpt lat="37.49365" lon="27.59371">
        <ele>509.103</ele>
      </trkpt>
      <trkpt lat="37.49368" lon="27.59373">
        <ele>509.525</ele>
      </trkpt>
      <trkpt lat="37.49371" lon="27.59375">
        <ele>510.415</ele>
      </trkpt>
      <trkpt lat="37.49374" lon="27.59376">
        <ele>510.23</ele>
      </trkpt>
      <trkpt lat="37.49374" lon="27.59376">
        <ele>510.272</ele>
      </trkpt>
      <trkpt lat="37.49373" lon="27.59375">
        <ele>509.958</ele>
      </trkpt>
      <trkpt lat="37.49377" lon="27.59376">
        <ele>509.931</ele>
      </trkpt>
      <trkpt lat="37.49378" lon="27.59376">
        <ele>509.833</ele>
      </trkpt>
      <trkpt lat="37.49382" lon="27.59382">
        <ele>511.394</ele>
      </trkpt>
      <trkpt lat="37.49383" lon="27.59383">
        <ele>511.953</ele>
      </trkpt>
      <trkpt lat="37.49385" lon="27.59382">
        <ele>510.963</ele>
      </trkpt>
      <trkpt lat="37.49397" lon="27.59382">
        <ele>508.799</ele>
      </trkpt>
      <trkpt lat="37.4941" lon="27.59384">
        <ele>507.011</ele>
      </trkpt>
      <trkpt lat="37.49417" lon="27.59381">
        <ele>505.194</ele>
      </trkpt>
      <trkpt lat="37.49419" lon="27.59378">
        <ele>504.72</ele>
      </trkpt>
      <trkpt lat="37.49422" lon="27.5938">
        <ele>505.453</ele>
      </trkpt>
      <trkpt lat="37.49419" lon="27.59385">
        <ele>506.444</ele>
      </trkpt>
      <trkpt lat="37.49418" lon="27.59389">
        <ele>507.005</ele>
      </trkpt>
      <trkpt lat="37.4942" lon="27.59386">
        <ele>506.58</ele>
      </trkpt>
      <trkpt lat="37.49426" lon="27.59386">
        <ele>507.124</ele>
      </trkpt>
      <trkpt lat="37.49431" lon="27.59385">
        <ele>507.222</ele>
      </trkpt>
      <trkpt lat="37.49433" lon="27.59384">
        <ele>507.327</ele>
      </trkpt>
      <trkpt lat="37.49436" lon="27.59388">
        <ele>508.283</ele>
      </trkpt>
      <trkpt lat="37.49444" lon="27.59397">
        <ele>511.947</ele>
      </trkpt>
      <trkpt lat="37.4945" lon="27.59403">
        <ele>515.116</ele>
      </trkpt>
      <trkpt lat="37.4945" lon="27.59403">
        <ele>515.272</ele>
      </trkpt>
      <trkpt lat="37.4945" lon="27.59403">
        <ele>515.181</ele>
      </trkpt>
      <trkpt lat="37.49448" lon="27.59404">
        <ele>515.127</ele>
      </trkpt>
      <trkpt lat="37.49446" lon="27.59407">
        <ele>515.926</ele>
      </trkpt>
      <trkpt lat="37.4944" lon="27.59413">
        <ele>518.196</ele>
      </trkpt>
      <trkpt lat="37.49439" lon="27.59413">
        <ele>518.15</ele>
      </trkpt>
      <trkpt lat="37.49439" lon="27.59413">
        <ele>518.106</ele>
      </trkpt>
      <trkpt lat="37.49439" lon="27.59413">
        <ele>518.145</ele>
      </trkpt>
      <trkpt lat="37.49435" lon="27.59423">
        <ele>523.504</ele>
      </trkpt>
      <trkpt lat="37.49435" lon="27.59422">
        <ele>523.123</ele>
      </trkpt>
      <trkpt lat="37.49433" lon="27.59421">
        <ele>522.519</ele>
      </trkpt>
      <trkpt lat="37.49433" lon="27.59423">
        <ele>524.06</ele>
      </trkpt>
      <trkpt lat="37.49432" lon="27.59431">
        <ele>528.787</ele>
      </trkpt>
      <trkpt lat="37.49438" lon="27.59432">
        <ele>529.326</ele>
      </trkpt>
      <trkpt lat="37.4944" lon="27.59435">
        <ele>530.748</ele>
      </trkpt>
      <trkpt lat="37.49445" lon="27.5944">
        <ele>533.952</ele>
      </trkpt>
      <trkpt lat="37.49439" lon="27.59442">
        <ele>534.956</ele>
      </trkpt>
      <trkpt lat="37.49433" lon="27.59448">
        <ele>538.363</ele>
      </trkpt>
      <trkpt lat="37.49433" lon="27.59447">
        <ele>537.788</ele>
      </trkpt>
      <trkpt lat="37.49425" lon="27.59451">
        <ele>539.558</ele>
      </trkpt>
      <trkpt lat="37.49415" lon="27.59452">
        <ele>539.42</ele>
      </trkpt>
      <trkpt lat="37.49412" lon="27.59454">
        <ele>540.13</ele>
      </trkpt>
      <trkpt lat="37.49404" lon="27.59456">
        <ele>541.595</ele>
      </trkpt>
      <trkpt lat="37.49402" lon="27.59458">
        <ele>542.325</ele>
      </trkpt>
      <trkpt lat="37.49399" lon="27.5946">
        <ele>543.191</ele>
      </trkpt>
      <trkpt lat="37.49392" lon="27.59465">
        <ele>545.484</ele>
      </trkpt>
      <trkpt lat="37.49388" lon="27.59472">
        <ele>548.074</ele>
      </trkpt>
      <trkpt lat="37.49386" lon="27.59472">
        <ele>548.181</ele>
      </trkpt>
      <trkpt lat="37.49385" lon="27.59473">
        <ele>548.506</ele>
      </trkpt>
      <trkpt lat="37.49382" lon="27.59477">
        <ele>550.326</ele>
      </trkpt>
      <trkpt lat="37.49385" lon="27.59477">
        <ele>550.284</ele>
      </trkpt>
      <trkpt lat="37.49388" lon="27.59476">
        <ele>549.944</ele>
      </trkpt>
      <trkpt lat="37.49388" lon="27.59476">
        <ele>549.933</ele>
      </trkpt>
      <trkpt lat="37.4939" lon="27.59479">
        <ele>551.501</ele>
      </trkpt>
      <trkpt lat="37.49387" lon="27.59482">
        <ele>552.73</ele>
      </trkpt>
      <trkpt lat="37.49386" lon="27.59482">
        <ele>552.866</ele>
      </trkpt>
      <trkpt lat="37.49372" lon="27.59482">
        <ele>552.757</ele>
      </trkpt>
      <trkpt lat="37.4937" lon="27.59481">
        <ele>552.412</ele>
      </trkpt>
      <trkpt lat="37.49364" lon="27.5948">
        <ele>551.706</ele>
      </trkpt>
      <trkpt lat="37.49364" lon="27.59479">
        <ele>551.318</ele>
      </trkpt>
      <trkpt lat="37.49356" lon="27.59476">
        <ele>550.391</ele>
      </trkpt>
      <trkpt lat="37.49354" lon="27.59475">
        <ele>550.324</ele>
      </trkpt>
      <trkpt lat="37.49345" lon="27.59476">
        <ele>551.211</ele>
      </trkpt>
      <trkpt lat="37.49339" lon="27.59481">
        <ele>553.054</ele>
      </trkpt>
      <trkpt lat="37.49339" lon="27.59482">
        <ele>553.714</ele>
      </trkpt>
      <trkpt lat="37.49335" lon="27.59496">
        <ele>559.354</ele>
      </trkpt>
      <trkpt lat="37.49331" lon="27.59498">
        <ele>560.113</ele>
      </trkpt>
      <trkpt lat="37.49331" lon="27.59498">
        <ele>560.233</ele>
      </trkpt>
      <trkpt lat="37.49331" lon="27.59499">
        <ele>560.336</ele>
      </trkpt>
      <trkpt lat="37.49325" lon="27.59499">
        <ele>560.255</ele>
      </trkpt>
      <trkpt lat="37.49323" lon="27.59503">
        <ele>561.526</ele>
      </trkpt>
      <trkpt lat="37.49323" lon="27.59502">
        <ele>561.359</ele>
      </trkpt>
      <trkpt lat="37.49314" lon="27.59505">
        <ele>561.768</ele>
      </trkpt>
      <trkpt lat="37.49309" lon="27.59521">
        <ele>566.459</ele>
      </trkpt>
      <trkpt lat="37.49309" lon="27.59529">
        <ele>568.772</ele>
      </trkpt>
      <trkpt lat="37.4931" lon="27.59529">
        <ele>568.921</ele>
      </trkpt>
      <trkpt lat="37.4931" lon="27.59529">
        <ele>568.842</ele>
      </trkpt>
      <trkpt lat="37.49307" lon="27.59534">
        <ele>569.938</ele>
      </trkpt>
      <trkpt lat="37.49306" lon="27.59535">
        <ele>570.217</ele>
      </trkpt>
      <trkpt lat="37.49306" lon="27.59536">
        <ele>570.321</ele>
      </trkpt>
      <trkpt lat="37.49304" lon="27.59537">
        <ele>570.375</ele>
      </trkpt>
      <trkpt lat="37.49302" lon="27.59532">
        <ele>568.287</ele>
      </trkpt>
      <trkpt lat="37.49299" lon="27.59527">
        <ele>566.361</ele>
      </trkpt>
      <trkpt lat="37.49297" lon="27.59532">
        <ele>567.111</ele>
      </trkpt>
      <trkpt lat="37.49298" lon="27.59532">
        <ele>567.455</ele>
      </trkpt>
      <trkpt lat="37.49299" lon="27.59533">
        <ele>568.148</ele>
      </trkpt>
      <trkpt lat="37.493" lon="27.59534">
        <ele>568.573</ele>
      </trkpt>
      <trkpt lat="37.493" lon="27.59535">
        <ele>569.008</ele>
      </trkpt>
      <trkpt lat="37.49296" lon="27.59545">
        <ele>570.623</ele>
      </trkpt>
      <trkpt lat="37.49296" lon="27.59555">
        <ele>573.311</ele>
      </trkpt>
      <trkpt lat="37.49296" lon="27.59557">
        <ele>573.774</ele>
      </trkpt>
      <trkpt lat="37.49296" lon="27.59559">
        <ele>574.182</ele>
      </trkpt>
      <trkpt lat="37.49296" lon="27.59559">
        <ele>574.224</ele>
      </trkpt>
      <trkpt lat="37.49294" lon="27.59561">
        <ele>574.134</ele>
      </trkpt>
      <trkpt lat="37.4929" lon="27.59562">
        <ele>572.991</ele>
      </trkpt>
      <trkpt lat="37.4929" lon="27.59563">
        <ele>573.219</ele>
      </trkpt>
      <trkpt lat="37.49283" lon="27.59574">
        <ele>572.65</ele>
      </trkpt>
      <trkpt lat="37.49282" lon="27.59579">
        <ele>573.134</ele>
      </trkpt>
      <trkpt lat="37.49282" lon="27.59579">
        <ele>573.028</ele>
      </trkpt>
      <trkpt lat="37.49282" lon="27.59577">
        <ele>572.715</ele>
      </trkpt>
      <trkpt lat="37.49282" lon="27.59578">
        <ele>572.969</ele>
      </trkpt>
      <trkpt lat="37.49283" lon="27.59582">
        <ele>573.87</ele>
      </trkpt>
      <trkpt lat="37.49283" lon="27.5959">
        <ele>574.989</ele>
      </trkpt>
      <trkpt lat="37.49282" lon="27.59596">
        <ele>576.004</ele>
      </trkpt>
      <trkpt lat="37.49284" lon="27.59613">
        <ele>579.475</ele>
      </trkpt>
      <trkpt lat="37.49277" lon="27.59622">
        <ele>578.956</ele>
      </trkpt>
      <trkpt lat="37.49277" lon="27.59623">
        <ele>579.466</ele>
      </trkpt>
      <trkpt lat="37.49271" lon="27.59626">
        <ele>577.963</ele>
      </trkpt>
      <trkpt lat="37.4927" lon="27.59627">
        <ele>577.672</ele>
      </trkpt>
      <trkpt lat="37.4927" lon="27.59627">
        <ele>577.628</ele>
      </trkpt>
      <trkpt lat="37.49272" lon="27.59627">
        <ele>578.288</ele>
      </trkpt>
      <trkpt lat="37.49271" lon="27.59627">
        <ele>578.221</ele>
      </trkpt>
      <trkpt lat="37.49271" lon="27.59628">
        <ele>578.19</ele>
      </trkpt>
      <trkpt lat="37.49269" lon="27.59633">
        <ele>578.915</ele>
      </trkpt>
      <trkpt lat="37.49262" lon="27.59652">
        <ele>581.299</ele>
      </trkpt>
      <trkpt lat="37.49269" lon="27.59652">
        <ele>583.094</ele>
      </trkpt>
      <trkpt lat="37.49271" lon="27.59669">
        <ele>587.296</ele>
      </trkpt>
      <trkpt lat="37.49265" lon="27.59667">
        <ele>585.935</ele>
      </trkpt>
      <trkpt lat="37.49262" lon="27.59668">
        <ele>585.381</ele>
      </trkpt>
      <trkpt lat="37.49261" lon="27.59668">
        <ele>585.267</ele>
      </trkpt>
      <trkpt lat="37.4926" lon="27.59668">
        <ele>585.205</ele>
      </trkpt>
      <trkpt lat="37.4926" lon="27.59668">
        <ele>585.244</ele>
      </trkpt>
      <trkpt lat="37.4926" lon="27.59669">
        <ele>585.533</ele>
      </trkpt>
      <trkpt lat="37.4926" lon="27.59669">
        <ele>585.592</ele>
      </trkpt>
      <trkpt lat="37.49251" lon="27.59676">
        <ele>586.074</ele>
      </trkpt>
      <trkpt lat="37.49251" lon="27.59676">
        <ele>586.127</ele>
      </trkpt>
      <trkpt lat="37.49248" lon="27.59672">
        <ele>584.627</ele>
      </trkpt>
      <trkpt lat="37.49248" lon="27.59674">
        <ele>585.378</ele>
      </trkpt>
      <trkpt lat="37.49242" lon="27.59682">
        <ele>587.394</ele>
      </trkpt>
      <trkpt lat="37.49241" lon="27.59683">
        <ele>587.52</ele>
      </trkpt>
      <trkpt lat="37.49244" lon="27.59685">
        <ele>588.377</ele>
      </trkpt>
      <trkpt lat="37.49235" lon="27.59689">
        <ele>588.847</ele>
      </trkpt>
      <trkpt lat="37.49225" lon="27.59684">
        <ele>586.541</ele>
      </trkpt>
      <trkpt lat="37.4922" lon="27.59686">
        <ele>586.594</ele>
      </trkpt>
      <trkpt lat="37.4922" lon="27.59687">
        <ele>586.751</ele>
      </trkpt>
      <trkpt lat="37.49212" lon="27.59689">
        <ele>585.904</ele>
      </trkpt>
      <trkpt lat="37.49201" lon="27.59706">
        <ele>587.424</ele>
      </trkpt>
      <trkpt lat="37.49195" lon="27.59713">
        <ele>587.305</ele>
      </trkpt>
      <trkpt lat="37.49195" lon="27.5972">
        <ele>588.699</ele>
      </trkpt>
      <trkpt lat="37.49195" lon="27.59733">
        <ele>590.359</ele>
      </trkpt>
      <trkpt lat="37.49196" lon="27.59738">
        <ele>590.988</ele>
      </trkpt>
      <trkpt lat="37.49197" lon="27.59744">
        <ele>591.931</ele>
      </trkpt>
      <trkpt lat="37.49204" lon="27.59749">
        <ele>594.283</ele>
      </trkpt>
      <trkpt lat="37.49206" lon="27.59754">
        <ele>595.705</ele>
      </trkpt>
      <trkpt lat="37.49207" lon="27.5976">
        <ele>597.093</ele>
      </trkpt>
      <trkpt lat="37.49205" lon="27.5976">
        <ele>596.618</ele>
      </trkpt>
      <trkpt lat="37.49205" lon="27.59759">
        <ele>596.499</ele>
      </trkpt>
      <trkpt lat="37.49209" lon="27.5976">
        <ele>597.666</ele>
      </trkpt>
      <trkpt lat="37.49212" lon="27.59768">
        <ele>599.915</ele>
      </trkpt>
      <trkpt lat="37.49212" lon="27.5977">
        <ele>600.306</ele>
      </trkpt>
      <trkpt lat="37.49212" lon="27.59772">
        <ele>600.696</ele>
      </trkpt>
      <trkpt lat="37.49215" lon="27.59772">
        <ele>601.328</ele>
      </trkpt>
      <trkpt lat="37.49219" lon="27.59771">
        <ele>602.16</ele>
      </trkpt>
      <trkpt lat="37.49225" lon="27.59767">
        <ele>602.658</ele>
      </trkpt>
      <trkpt lat="37.49225" lon="27.59768">
        <ele>602.672</ele>
      </trkpt>
      <trkpt lat="37.49223" lon="27.59773">
        <ele>603.224</ele>
      </trkpt>
      <trkpt lat="37.49223" lon="27.59777">
        <ele>603.896</ele>
      </trkpt>
      <trkpt lat="37.49222" lon="27.59778">
        <ele>603.876</ele>
      </trkpt>
      <trkpt lat="37.49222" lon="27.59779">
        <ele>604.167</ele>
      </trkpt>
      <trkpt lat="37.49235" lon="27.59785">
        <ele>608.252</ele>
      </trkpt>
      <trkpt lat="37.49231" lon="27.59789">
        <ele>608.128</ele>
      </trkpt>
      <trkpt lat="37.49235" lon="27.59788">
        <ele>608.7</ele>
      </trkpt>
      <trkpt lat="37.49235" lon="27.59788">
        <ele>608.704</ele>
      </trkpt>
      <trkpt lat="37.49235" lon="27.59788">
        <ele>608.701</ele>
      </trkpt>
      <trkpt lat="37.49235" lon="27.59788">
        <ele>608.714</ele>
      </trkpt>
      <trkpt lat="37.49239" lon="27.59787">
        <ele>609.306</ele>
      </trkpt>
      <trkpt lat="37.49242" lon="27.59782">
        <ele>609.03</ele>
      </trkpt>
      <trkpt lat="37.49248" lon="27.59778">
        <ele>609.586</ele>
      </trkpt>
      <trkpt lat="37.49252" lon="27.59781">
        <ele>610.998</ele>
      </trkpt>
      <trkpt lat="37.49253" lon="27.5979">
        <ele>612.943</ele>
      </trkpt>
      <trkpt lat="37.49256" lon="27.59798">
        <ele>615.022</ele>
      </trkpt>
      <trkpt lat="37.49257" lon="27.59802">
        <ele>616.368</ele>
      </trkpt>
      <trkpt lat="37.49258" lon="27.59805">
        <ele>617.099</ele>
      </trkpt>
      <trkpt lat="37.49254" lon="27.59808">
        <ele>616.752</ele>
      </trkpt>
      <trkpt lat="37.49254" lon="27.59812">
        <ele>617.658</ele>
      </trkpt>
      <trkpt lat="37.49254" lon="27.59813">
        <ele>617.725</ele>
      </trkpt>
      <trkpt lat="37.49255" lon="27.59814">
        <ele>618.422</ele>
      </trkpt>
      <trkpt lat="37.4925" lon="27.5983">
        <ele>620.286</ele>
      </trkpt>
      <trkpt lat="37.49248" lon="27.59831">
        <ele>619.904</ele>
      </trkpt>
      <trkpt lat="37.49251" lon="27.59836">
        <ele>622.193</ele>
      </trkpt>
      <trkpt lat="37.49252" lon="27.59836">
        <ele>622.459</ele>
      </trkpt>
      <trkpt lat="37.49252" lon="27.59836">
        <ele>622.346</ele>
      </trkpt>
      <trkpt lat="37.4925" lon="27.59839">
        <ele>622.436</ele>
      </trkpt>
      <trkpt lat="37.4925" lon="27.59839">
        <ele>622.488</ele>
      </trkpt>
      <trkpt lat="37.49251" lon="27.59839">
        <ele>622.61</ele>
      </trkpt>
      <trkpt lat="37.49251" lon="27.5984">
        <ele>622.816</ele>
      </trkpt>
      <trkpt lat="37.49252" lon="27.5984">
        <ele>623.463</ele>
      </trkpt>
      <trkpt lat="37.49253" lon="27.5984">
        <ele>623.756</ele>
      </trkpt>
      <trkpt lat="37.49256" lon="27.59846">
        <ele>626.45</ele>
      </trkpt>
      <trkpt lat="37.49255" lon="27.59856">
        <ele>628.732</ele>
      </trkpt>
      <trkpt lat="37.49257" lon="27.59853">
        <ele>629.106</ele>
      </trkpt>
      <trkpt lat="37.49263" lon="27.59851">
        <ele>630.57</ele>
      </trkpt>
      <trkpt lat="37.49267" lon="27.59844">
        <ele>630.388</ele>
      </trkpt>
      <trkpt lat="37.49274" lon="27.59837">
        <ele>630.752</ele>
      </trkpt>
      <trkpt lat="37.49274" lon="27.59836">
        <ele>630.386</ele>
      </trkpt>
      <trkpt lat="37.49273" lon="27.59842">
        <ele>631.808</ele>
      </trkpt>
      <trkpt lat="37.49273" lon="27.5985">
        <ele>634.198</ele>
      </trkpt>
      <trkpt lat="37.49273" lon="27.59853">
        <ele>635.682</ele>
      </trkpt>
      <trkpt lat="37.49275" lon="27.59852">
        <ele>636.006</ele>
      </trkpt>
      <trkpt lat="37.49276" lon="27.59852">
        <ele>636.238</ele>
      </trkpt>
      <trkpt lat="37.49283" lon="27.59855">
        <ele>639.324</ele>
      </trkpt>
      <trkpt lat="37.49284" lon="27.59857">
        <ele>640.082</ele>
      </trkpt>
      <trkpt lat="37.49288" lon="27.59865">
        <ele>643.383</ele>
      </trkpt>
      <trkpt lat="37.49292" lon="27.59862">
        <ele>643.894</ele>
      </trkpt>
      <trkpt lat="37.49294" lon="27.59869">
        <ele>645.912</ele>
      </trkpt>
      <trkpt lat="37.49295" lon="27.5987">
        <ele>646.136</ele>
      </trkpt>
      <trkpt lat="37.49301" lon="27.59875">
        <ele>649.039</ele>
      </trkpt>
      <trkpt lat="37.4931" lon="27.59869">
        <ele>649.942</ele>
      </trkpt>
      <trkpt lat="37.49314" lon="27.59875">
        <ele>653.036</ele>
      </trkpt>
      <trkpt lat="37.49313" lon="27.59874">
        <ele>652.453</ele>
      </trkpt>
      <trkpt lat="37.49321" lon="27.59874">
        <ele>654.723</ele>
      </trkpt>
      <trkpt lat="37.49324" lon="27.59875">
        <ele>655.774</ele>
      </trkpt>
      <trkpt lat="37.49325" lon="27.59877">
        <ele>656.77</ele>
      </trkpt>
      <trkpt lat="37.4933" lon="27.59881">
        <ele>659.598</ele>
      </trkpt>
      <trkpt lat="37.49335" lon="27.59888">
        <ele>663.222</ele>
      </trkpt>
      <trkpt lat="37.49335" lon="27.59888">
        <ele>663.299</ele>
      </trkpt>
      <trkpt lat="37.49335" lon="27.59889">
        <ele>663.369</ele>
      </trkpt>
      <trkpt lat="37.49335" lon="27.5989">
        <ele>663.793</ele>
      </trkpt>
      <trkpt lat="37.49335" lon="27.5989">
        <ele>663.85</ele>
      </trkpt>
      <trkpt lat="37.49335" lon="27.5989">
        <ele>663.9</ele>
      </trkpt>
      <trkpt lat="37.49334" lon="27.59893">
        <ele>664.813</ele>
      </trkpt>
      <trkpt lat="37.49334" lon="27.59894">
        <ele>665.007</ele>
      </trkpt>
      <trkpt lat="37.4935" lon="27.5989">
        <ele>668.785</ele>
      </trkpt>
      <trkpt lat="37.49354" lon="27.59891">
        <ele>670.935</ele>
      </trkpt>
      <trkpt lat="37.49354" lon="27.5989">
        <ele>669.969</ele>
      </trkpt>
      <trkpt lat="37.49354" lon="27.5989">
        <ele>669.929</ele>
      </trkpt>
      <trkpt lat="37.49356" lon="27.59888">
        <ele>670.033</ele>
      </trkpt>
      <trkpt lat="37.49365" lon="27.59885">
        <ele>671.617</ele>
      </trkpt>
      <trkpt lat="37.49367" lon="27.59887">
        <ele>673.296</ele>
      </trkpt>
      <trkpt lat="37.49369" lon="27.59883">
        <ele>672.028</ele>
      </trkpt>
      <trkpt lat="37.49377" lon="27.59889">
        <ele>677.335</ele>
      </trkpt>
      <trkpt lat="37.49377" lon="27.59889">
        <ele>677.179</ele>
      </trkpt>
      <trkpt lat="37.49373" lon="27.5989">
        <ele>676.175</ele>
      </trkpt>
      <trkpt lat="37.49368" lon="27.59892">
        <ele>675.803</ele>
      </trkpt>
      <trkpt lat="37.49366" lon="27.59893">
        <ele>675.83</ele>
      </trkpt>
      <trkpt lat="37.49358" lon="27.59899">
        <ele>675.792</ele>
      </trkpt>
      <trkpt lat="37.49355" lon="27.59906">
        <ele>678.48</ele>
      </trkpt>
      <trkpt lat="37.49355" lon="27.59916">
        <ele>683.132</ele>
      </trkpt>
      <trkpt lat="37.49354" lon="27.59921">
        <ele>684.753</ele>
      </trkpt>
      <trkpt lat="37.49358" lon="27.59922">
        <ele>686.552</ele>
      </trkpt>
      <trkpt lat="37.49364" lon="27.59926">
        <ele>689.883</ele>
      </trkpt>
      <trkpt lat="37.49364" lon="27.59926">
        <ele>690.04</ele>
      </trkpt>
      <trkpt lat="37.49364" lon="27.59926">
        <ele>690.022</ele>
      </trkpt>
      <trkpt lat="37.4936" lon="27.59932">
        <ele>690.989</ele>
      </trkpt>
      <trkpt lat="37.49358" lon="27.59937">
        <ele>692.085</ele>
      </trkpt>
      <trkpt lat="37.49357" lon="27.59937">
        <ele>691.719</ele>
      </trkpt>
      <trkpt lat="37.49356" lon="27.59938">
        <ele>691.222</ele>
      </trkpt>
      <trkpt lat="37.49355" lon="27.59941">
        <ele>692.031</ele>
      </trkpt>
      <trkpt lat="37.49354" lon="27.59945">
        <ele>693.08</ele>
      </trkpt>
      <trkpt lat="37.49353" lon="27.59948">
        <ele>692.979</ele>
      </trkpt>
      <trkpt lat="37.49357" lon="27.59953">
        <ele>695.664</ele>
      </trkpt>
      <trkpt lat="37.49356" lon="27.59953">
        <ele>695.469</ele>
      </trkpt>
      <trkpt lat="37.49347" lon="27.59966">
        <ele>694.5</ele>
      </trkpt>
      <trkpt lat="37.49346" lon="27.59967">
        <ele>694.535</ele>
      </trkpt>
      <trkpt lat="37.49347" lon="27.59967">
        <ele>694.63</ele>
      </trkpt>
      <trkpt lat="37.49346" lon="27.59967">
        <ele>694.497</ele>
      </trkpt>
      <trkpt lat="37.49346" lon="27.59966">
        <ele>694.242</ele>
      </trkpt>
      <trkpt lat="37.49348" lon="27.59979">
        <ele>697.554</ele>
      </trkpt>
      <trkpt lat="37.49349" lon="27.5998">
        <ele>698.125</ele>
      </trkpt>
      <trkpt lat="37.4935" lon="27.59981">
        <ele>698.741</ele>
      </trkpt>
      <trkpt lat="37.4935" lon="27.59981">
        <ele>698.793</ele>
      </trkpt>
      <trkpt lat="37.4935" lon="27.59979">
        <ele>698.688</ele>
      </trkpt>
      <trkpt lat="37.49351" lon="27.59979">
        <ele>698.705</ele>
      </trkpt>
      <trkpt lat="37.49352" lon="27.59978">
        <ele>699.165</ele>
      </trkpt>
      <trkpt lat="37.49359" lon="27.59988">
        <ele>703.513</ele>
      </trkpt>
      <trkpt lat="37.4936" lon="27.5999">
        <ele>704.236</ele>
      </trkpt>
      <trkpt lat="37.4936" lon="27.59996">
        <ele>705.743</ele>
      </trkpt>
      <trkpt lat="37.49362" lon="27.60001">
        <ele>707.246</ele>
      </trkpt>
      <trkpt lat="37.49364" lon="27.60005">
        <ele>708.04</ele>
      </trkpt>
      <trkpt lat="37.49363" lon="27.60005">
        <ele>707.974</ele>
      </trkpt>
      <trkpt lat="37.49362" lon="27.60012">
        <ele>708.075</ele>
      </trkpt>
      <trkpt lat="37.49359" lon="27.60024">
        <ele>708.351</ele>
      </trkpt>
      <trkpt lat="37.4936" lon="27.60038">
        <ele>709.889</ele>
      </trkpt>
      <trkpt lat="37.49362" lon="27.6004">
        <ele>710.483</ele>
      </trkpt>
      <trkpt lat="37.49357" lon="27.60041">
        <ele>709.664</ele>
      </trkpt>
      <trkpt lat="37.49351" lon="27.60041">
        <ele>708.642</ele>
      </trkpt>
      <trkpt lat="37.49346" lon="27.60045">
        <ele>708.22</ele>
      </trkpt>
      <trkpt lat="37.49336" lon="27.60045">
        <ele>706.529</ele>
      </trkpt>
      <trkpt lat="37.49326" lon="27.60045">
        <ele>704.319</ele>
      </trkpt>
      <trkpt lat="37.49326" lon="27.60048">
        <ele>704.955</ele>
      </trkpt>
      <trkpt lat="37.49326" lon="27.60049">
        <ele>704.989</ele>
      </trkpt>
      <trkpt lat="37.49315" lon="27.60047">
        <ele>702.025</ele>
      </trkpt>
      <trkpt lat="37.49303" lon="27.60055">
        <ele>701.11</ele>
      </trkpt>
      <trkpt lat="37.49302" lon="27.60055">
        <ele>700.814</ele>
      </trkpt>
      <trkpt lat="37.49294" lon="27.60052">
        <ele>697.431</ele>
      </trkpt>
      <trkpt lat="37.49292" lon="27.60052">
        <ele>697.146</ele>
      </trkpt>
      <trkpt lat="37.49287" lon="27.60058">
        <ele>697.209</ele>
      </trkpt>
      <trkpt lat="37.49285" lon="27.60064">
        <ele>698.42</ele>
      </trkpt>
      <trkpt lat="37.49279" lon="27.60069">
        <ele>698.123</ele>
      </trkpt>
      <trkpt lat="37.49272" lon="27.60077">
        <ele>697.863</ele>
      </trkpt>
      <trkpt lat="37.49266" lon="27.60085">
        <ele>698.128</ele>
      </trkpt>
      <trkpt lat="37.49262" lon="27.60098">
        <ele>698.654</ele>
      </trkpt>
      <trkpt lat="37.49263" lon="27.60107">
        <ele>700.397</ele>
      </trkpt>
      <trkpt lat="37.49264" lon="27.60118">
        <ele>702.721</ele>
      </trkpt>
      <trkpt lat="37.49263" lon="27.60132">
        <ele>705.103</ele>
      </trkpt>
      <trkpt lat="37.49263" lon="27.60133">
        <ele>705.61</ele>
      </trkpt>
      <trkpt lat="37.49265" lon="27.60142">
        <ele>708.264</ele>
      </trkpt>
      <trkpt lat="37.49268" lon="27.60152">
        <ele>711.501</ele>
      </trkpt>
      <trkpt lat="37.49266" lon="27.60166">
        <ele>714.05</ele>
      </trkpt>
      <trkpt lat="37.49267" lon="27.60177">
        <ele>717.22</ele>
      </trkpt>
      <trkpt lat="37.4927" lon="27.60193">
        <ele>721.996</ele>
      </trkpt>
      <trkpt lat="37.49267" lon="27.60199">
        <ele>722.525</ele>
      </trkpt>
      <trkpt lat="37.49258" lon="27.60211">
        <ele>722.134</ele>
      </trkpt>
      <trkpt lat="37.49254" lon="27.60218">
        <ele>722.392</ele>
      </trkpt>
      <trkpt lat="37.49245" lon="27.60225">
        <ele>720.364</ele>
      </trkpt>
      <trkpt lat="37.49235" lon="27.6023">
        <ele>717.035</ele>
      </trkpt>
      <trkpt lat="37.49229" lon="27.60238">
        <ele>716.053</ele>
      </trkpt>
      <trkpt lat="37.4923" lon="27.60255">
        <ele>718.962</ele>
      </trkpt>
      <trkpt lat="37.49229" lon="27.60258">
        <ele>719.165</ele>
      </trkpt>
      <trkpt lat="37.49229" lon="27.60262">
        <ele>719.737</ele>
      </trkpt>
      <trkpt lat="37.49224" lon="27.6027">
        <ele>718.801</ele>
      </trkpt>
      <trkpt lat="37.49217" lon="27.60281">
        <ele>717.291</ele>
      </trkpt>
      <trkpt lat="37.49215" lon="27.6029">
        <ele>717.797</ele>
      </trkpt>
      <trkpt lat="37.4921" lon="27.603">
        <ele>717.536</ele>
      </trkpt>
      <trkpt lat="37.49204" lon="27.60305">
        <ele>716.199</ele>
      </trkpt>
      <trkpt lat="37.49203" lon="27.60306">
        <ele>716.153</ele>
      </trkpt>
      <trkpt lat="37.49199" lon="27.60314">
        <ele>716.485</ele>
      </trkpt>
      <trkpt lat="37.49195" lon="27.60326">
        <ele>717.508</ele>
      </trkpt>
      <trkpt lat="37.49193" lon="27.60336">
        <ele>718.927</ele>
      </trkpt>
      <trkpt lat="37.49194" lon="27.60347">
        <ele>721.193</ele>
      </trkpt>
      <trkpt lat="37.49193" lon="27.60353">
        <ele>721.544</ele>
      </trkpt>
      <trkpt lat="37.49188" lon="27.60362">
        <ele>720.947</ele>
      </trkpt>
      <trkpt lat="37.49189" lon="27.60366">
        <ele>722.115</ele>
      </trkpt>
      <trkpt lat="37.49184" lon="27.60374">
        <ele>721.262</ele>
      </trkpt>
      <trkpt lat="37.49183" lon="27.60375">
        <ele>721.286</ele>
      </trkpt>
      <trkpt lat="37.4918" lon="27.60386">
        <ele>721.785</ele>
      </trkpt>
      <trkpt lat="37.49179" lon="27.60388">
        <ele>721.616</ele>
      </trkpt>
      <trkpt lat="37.49177" lon="27.60402">
        <ele>722.764</ele>
      </trkpt>
      <trkpt lat="37.49179" lon="27.60418">
        <ele>726.567</ele>
      </trkpt>
      <trkpt lat="37.49182" lon="27.60421">
        <ele>727.924</ele>
      </trkpt>
      <trkpt lat="37.49185" lon="27.60426">
        <ele>729.968</ele>
      </trkpt>
      <trkpt lat="37.49181" lon="27.60438">
        <ele>729.496</ele>
      </trkpt>
      <trkpt lat="37.49177" lon="27.6044">
        <ele>727.764</ele>
      </trkpt>
      <trkpt lat="37.4917" lon="27.60446">
        <ele>725.837</ele>
      </trkpt>
      <trkpt lat="37.49164" lon="27.6045">
        <ele>724.832</ele>
      </trkpt>
      <trkpt lat="37.49158" lon="27.60455">
        <ele>724.52</ele>
      </trkpt>
      <trkpt lat="37.49161" lon="27.60458">
        <ele>726.126</ele>
      </trkpt>
      <trkpt lat="37.49157" lon="27.60464">
        <ele>726.797</ele>
      </trkpt>
      <trkpt lat="37.49153" lon="27.6048">
        <ele>731.274</ele>
      </trkpt>
      <trkpt lat="37.49155" lon="27.60481">
        <ele>732.172</ele>
      </trkpt>
      <trkpt lat="37.49159" lon="27.60474">
        <ele>730.558</ele>
      </trkpt>
      <trkpt lat="37.49158" lon="27.60485">
        <ele>734.796</ele>
      </trkpt>
      <trkpt lat="37.49167" lon="27.60482">
        <ele>736.471</ele>
      </trkpt>
      <trkpt lat="37.49176" lon="27.60483">
        <ele>740.005</ele>
      </trkpt>
      <trkpt lat="37.49177" lon="27.60485">
        <ele>741.698</ele>
      </trkpt>
      <trkpt lat="37.49175" lon="27.60493">
        <ele>744.074</ele>
      </trkpt>
      <trkpt lat="37.4917" lon="27.60503">
        <ele>746.019</ele>
      </trkpt>
      <trkpt lat="37.49171" lon="27.60518">
        <ele>751.247</ele>
      </trkpt>
      <trkpt lat="37.49169" lon="27.6053">
        <ele>754.23</ele>
      </trkpt>
      <trkpt lat="37.49174" lon="27.60542">
        <ele>758.777</ele>
      </trkpt>
      <trkpt lat="37.49171" lon="27.60553">
        <ele>759.911</ele>
      </trkpt>
      <trkpt lat="37.49168" lon="27.60571">
        <ele>763.068</ele>
      </trkpt>
      <trkpt lat="37.49166" lon="27.6058">
        <ele>764.747</ele>
      </trkpt>
      <trkpt lat="37.49162" lon="27.60595">
        <ele>766.477</ele>
      </trkpt>
      <trkpt lat="37.4916" lon="27.60611">
        <ele>769.398</ele>
      </trkpt>
      <trkpt lat="37.49163" lon="27.60619">
        <ele>772.288</ele>
      </trkpt>
      <trkpt lat="37.4916" lon="27.60632">
        <ele>773.663</ele>
      </trkpt>
      <trkpt lat="37.49159" lon="27.60646">
        <ele>776.215</ele>
      </trkpt>
      <trkpt lat="37.49158" lon="27.60654">
        <ele>777.415</ele>
      </trkpt>
      <trkpt lat="37.49159" lon="27.60665">
        <ele>779.822</ele>
      </trkpt>
      <trkpt lat="37.49159" lon="27.60679">
        <ele>782.811</ele>
      </trkpt>
      <trkpt lat="37.49164" lon="27.60683">
        <ele>785.001</ele>
      </trkpt>
      <trkpt lat="37.49164" lon="27.60696">
        <ele>787.689</ele>
      </trkpt>
      <trkpt lat="37.49166" lon="27.60708">
        <ele>790.89</ele>
      </trkpt>
      <trkpt lat="37.49167" lon="27.60719">
        <ele>793.287</ele>
      </trkpt>
      <trkpt lat="37.4917" lon="27.60726">
        <ele>795.165</ele>
      </trkpt>
      <trkpt lat="37.49169" lon="27.60735">
        <ele>796.19</ele>
      </trkpt>
      <trkpt lat="37.49169" lon="27.60737">
        <ele>796.511</ele>
      </trkpt>
      <trkpt lat="37.49175" lon="27.60741">
        <ele>798.129</ele>
      </trkpt>
      <trkpt lat="37.49177" lon="27.60744">
        <ele>798.988</ele>
      </trkpt>
      <trkpt lat="37.49168" lon="27.60752">
        <ele>798.519</ele>
      </trkpt>
      <trkpt lat="37.49167" lon="27.60752">
        <ele>798.393</ele>
      </trkpt>
      <trkpt lat="37.49167" lon="27.60758">
        <ele>799.231</ele>
      </trkpt>
      <trkpt lat="37.49173" lon="27.60767">
        <ele>801.479</ele>
      </trkpt>
      <trkpt lat="37.49178" lon="27.60769">
        <ele>802.542</ele>
      </trkpt>
      <trkpt lat="37.49183" lon="27.60779">
        <ele>804.574</ele>
      </trkpt>
      <trkpt lat="37.4918" lon="27.60784">
        <ele>805.155</ele>
      </trkpt>
      <trkpt lat="37.49177" lon="27.60789">
        <ele>805.663</ele>
      </trkpt>
      <trkpt lat="37.49174" lon="27.60793">
        <ele>806.209</ele>
      </trkpt>
      <trkpt lat="37.49174" lon="27.60804">
        <ele>808.445</ele>
      </trkpt>
      <trkpt lat="37.49176" lon="27.60803">
        <ele>808.41</ele>
      </trkpt>
      <trkpt lat="37.49177" lon="27.60805">
        <ele>808.921</ele>
      </trkpt>
      <trkpt lat="37.49185" lon="27.60812">
        <ele>810.237</ele>
      </trkpt>
      <trkpt lat="37.49185" lon="27.60813">
        <ele>810.362</ele>
      </trkpt>
      <trkpt lat="37.49186" lon="27.6082">
        <ele>810.706</ele>
      </trkpt>
      <trkpt lat="37.49177" lon="27.60828">
        <ele>810.427</ele>
      </trkpt>
      <trkpt lat="37.4918" lon="27.60836">
        <ele>810.869</ele>
      </trkpt>
      <trkpt lat="37.49187" lon="27.60853">
        <ele>810.755</ele>
      </trkpt>
      <trkpt lat="37.492" lon="27.60867">
        <ele>811.255</ele>
      </trkpt>
      <trkpt lat="37.49213" lon="27.60875">
        <ele>812.325</ele>
      </trkpt>
      <trkpt lat="37.49213" lon="27.60875">
        <ele>812.322</ele>
      </trkpt>
      <trkpt lat="37.49226" lon="27.60896">
        <ele>811.663</ele>
      </trkpt>
      <trkpt lat="37.49236" lon="27.60911">
        <ele>811.78</ele>
      </trkpt>
      <trkpt lat="37.49252" lon="27.60936">
        <ele>811.747</ele>
      </trkpt>
      <trkpt lat="37.49258" lon="27.60941">
        <ele>812.434</ele>
      </trkpt>
      <trkpt lat="37.49259" lon="27.60941">
        <ele>812.644</ele>
      </trkpt>
      <trkpt lat="37.49264" lon="27.60961">
        <ele>811.837</ele>
      </trkpt>
      <trkpt lat="37.49271" lon="27.60978">
        <ele>811.507</ele>
      </trkpt>
      <trkpt lat="37.49271" lon="27.60978">
        <ele>811.405</ele>
      </trkpt>
      <trkpt lat="37.49274" lon="27.60986">
        <ele>810.964</ele>
      </trkpt>
      <trkpt lat="37.49278" lon="27.61004">
        <ele>809.292</ele>
      </trkpt>
      <trkpt lat="37.49281" lon="27.61011">
        <ele>808.727</ele>
      </trkpt>
      <trkpt lat="37.49287" lon="27.61024">
        <ele>808.089</ele>
      </trkpt>
      <trkpt lat="37.49292" lon="27.61028">
        <ele>808.492</ele>
      </trkpt>
      <trkpt lat="37.49294" lon="27.61029">
        <ele>809.089</ele>
      </trkpt>
      <trkpt lat="37.49299" lon="27.61039">
        <ele>809.645</ele>
      </trkpt>
      <trkpt lat="37.49315" lon="27.61053">
        <ele>811.836</ele>
      </trkpt>
      <trkpt lat="37.49329" lon="27.6106">
        <ele>814.728</ele>
      </trkpt>
      <trkpt lat="37.49332" lon="27.61062">
        <ele>815.349</ele>
      </trkpt>
      <trkpt lat="37.49338" lon="27.61068">
        <ele>816.462</ele>
      </trkpt>
      <trkpt lat="37.49338" lon="27.61068">
        <ele>816.444</ele>
      </trkpt>
      <trkpt lat="37.49347" lon="27.61068">
        <ele>816.64</ele>
      </trkpt>
      <trkpt lat="37.49351" lon="27.6107">
        <ele>816.861</ele>
      </trkpt>
      <trkpt lat="37.49354" lon="27.61068">
        <ele>816.732</ele>
      </trkpt>
      <trkpt lat="37.49356" lon="27.61071">
        <ele>817.019</ele>
      </trkpt>
      <trkpt lat="37.49357" lon="27.61073">
        <ele>817.197</ele>
      </trkpt>
      <trkpt lat="37.49357" lon="27.61075">
        <ele>817.347</ele>
      </trkpt>
      <trkpt lat="37.49359" lon="27.61076">
        <ele>817.436</ele>
      </trkpt>
      <trkpt lat="37.49361" lon="27.6108">
        <ele>817.724</ele>
      </trkpt>
      <trkpt lat="37.49361" lon="27.61081">
        <ele>817.782</ele>
      </trkpt>
      <trkpt lat="37.49364" lon="27.61084">
        <ele>817.401</ele>
      </trkpt>
      <trkpt lat="37.49364" lon="27.61085">
        <ele>817.453</ele>
      </trkpt>
      <trkpt lat="37.49365" lon="27.61085">
        <ele>817.328</ele>
      </trkpt>
      <trkpt lat="37.49365" lon="27.61084">
        <ele>817.155</ele>
      </trkpt>
      <trkpt lat="37.49366" lon="27.61086">
        <ele>817.277</ele>
      </trkpt>
      <trkpt lat="37.49366" lon="27.61085">
        <ele>817.135</ele>
      </trkpt>
      <trkpt lat="37.49373" lon="27.61092">
        <ele>816.205</ele>
      </trkpt>
      <trkpt lat="37.49381" lon="27.61095">
        <ele>814.761</ele>
      </trkpt>
      <trkpt lat="37.49382" lon="27.61097">
        <ele>814.615</ele>
      </trkpt>
      <trkpt lat="37.49384" lon="27.61101">
        <ele>814.389</ele>
      </trkpt>
      <trkpt lat="37.49386" lon="27.61103">
        <ele>814.13</ele>
      </trkpt>
      <trkpt lat="37.49387" lon="27.61104">
        <ele>814.023</ele>
      </trkpt>
      <trkpt lat="37.49388" lon="27.61105">
        <ele>813.76</ele>
      </trkpt>
      <trkpt lat="37.49393" lon="27.61109">
        <ele>812.826</ele>
      </trkpt>
      <trkpt lat="37.49394" lon="27.6111">
        <ele>812.446</ele>
      </trkpt>
      <trkpt lat="37.49397" lon="27.61113">
        <ele>811.653</ele>
      </trkpt>
      <trkpt lat="37.494" lon="27.61115">
        <ele>810.977</ele>
      </trkpt>
      <trkpt lat="37.49404" lon="27.61115">
        <ele>809.643</ele>
      </trkpt>
      <trkpt lat="37.49405" lon="27.61117">
        <ele>809.221</ele>
      </trkpt>
      <trkpt lat="37.4941" lon="27.6112">
        <ele>807.796</ele>
      </trkpt>
      <trkpt lat="37.49411" lon="27.61121">
        <ele>807.347</ele>
      </trkpt>
      <trkpt lat="37.49413" lon="27.61129">
        <ele>806.437</ele>
      </trkpt>
      <trkpt lat="37.49416" lon="27.61132">
        <ele>805.553</ele>
      </trkpt>
      <trkpt lat="37.49419" lon="27.61135">
        <ele>804.643</ele>
      </trkpt>
      <trkpt lat="37.49422" lon="27.61138">
        <ele>803.824</ele>
      </trkpt>
      <trkpt lat="37.49423" lon="27.61138">
        <ele>803.619</ele>
      </trkpt>
      <trkpt lat="37.49425" lon="27.61139">
        <ele>803.284</ele>
      </trkpt>
      <trkpt lat="37.49426" lon="27.6114">
        <ele>803.005</ele>
      </trkpt>
      <trkpt lat="37.49432" lon="27.6115">
        <ele>801.694</ele>
      </trkpt>
      <trkpt lat="37.49432" lon="27.6115">
        <ele>801.683</ele>
      </trkpt>
      <trkpt lat="37.49432" lon="27.61151">
        <ele>801.647</ele>
      </trkpt>
      <trkpt lat="37.49433" lon="27.61149">
        <ele>801.398</ele>
      </trkpt>
      <trkpt lat="37.49436" lon="27.61152">
        <ele>800.765</ele>
      </trkpt>
      <trkpt lat="37.49435" lon="27.61151">
        <ele>800.848</ele>
      </trkpt>
      <trkpt lat="37.49441" lon="27.61151">
        <ele>799.362</ele>
      </trkpt>
      <trkpt lat="37.49443" lon="27.61151">
        <ele>799.02</ele>
      </trkpt>
      <trkpt lat="37.49447" lon="27.61157">
        <ele>798.114</ele>
      </trkpt>
      <trkpt lat="37.49447" lon="27.61158">
        <ele>798.035</ele>
      </trkpt>
      <trkpt lat="37.49447" lon="27.61159">
        <ele>797.979</ele>
      </trkpt>
      <trkpt lat="37.49449" lon="27.61157">
        <ele>797.96</ele>
      </trkpt>
      <trkpt lat="37.49453" lon="27.61161">
        <ele>797.388</ele>
      </trkpt>
      <trkpt lat="37.49452" lon="27.61163">
        <ele>797.343</ele>
      </trkpt>
      <trkpt lat="37.49452" lon="27.61167">
        <ele>797.148</ele>
      </trkpt>
      <trkpt lat="37.49457" lon="27.61174">
        <ele>796.152</ele>
      </trkpt>
      <trkpt lat="37.49459" lon="27.61174">
        <ele>795.936</ele>
      </trkpt>
      <trkpt lat="37.49462" lon="27.61181">
        <ele>794.934</ele>
      </trkpt>
      <trkpt lat="37.49462" lon="27.61183">
        <ele>794.744</ele>
      </trkpt>
      <trkpt lat="37.49462" lon="27.61182">
        <ele>794.829</ele>
      </trkpt>
      <trkpt lat="37.49463" lon="27.61186">
        <ele>794.475</ele>
      </trkpt>
      <trkpt lat="37.49466" lon="27.61192">
        <ele>793.374</ele>
      </trkpt>
      <trkpt lat="37.49466" lon="27.61196">
        <ele>793.103</ele>
      </trkpt>
      <trkpt lat="37.49465" lon="27.61196">
        <ele>793.145</ele>
      </trkpt>
      <trkpt lat="37.49466" lon="27.61195">
        <ele>793.1</ele>
      </trkpt>
      <trkpt lat="37.49465" lon="27.61197">
        <ele>793.183</ele>
      </trkpt>
      <trkpt lat="37.49464" lon="27.61199">
        <ele>793.201</ele>
      </trkpt>
      <trkpt lat="37.49462" lon="27.61204">
        <ele>793.076</ele>
      </trkpt>
      <trkpt lat="37.49461" lon="27.6121">
        <ele>792.876</ele>
      </trkpt>
      <trkpt lat="37.49461" lon="27.61215">
        <ele>792.476</ele>
      </trkpt>
      <trkpt lat="37.4946" lon="27.61221">
        <ele>792.339</ele>
      </trkpt>
      <trkpt lat="37.49461" lon="27.61224">
        <ele>791.81</ele>
      </trkpt>
      <trkpt lat="37.49462" lon="27.61225">
        <ele>791.558</ele>
      </trkpt>
      <trkpt lat="37.49462" lon="27.61227">
        <ele>791.357</ele>
      </trkpt>
      <trkpt lat="37.49464" lon="27.6123">
        <ele>790.856</ele>
      </trkpt>
      <trkpt lat="37.49467" lon="27.61233">
        <ele>790.004</ele>
      </trkpt>
      <trkpt lat="37.49473" lon="27.61237">
        <ele>788.772</ele>
      </trkpt>
      <trkpt lat="37.49473" lon="27.61237">
        <ele>788.714</ele>
      </trkpt>
      <trkpt lat="37.49477" lon="27.61239">
        <ele>787.678</ele>
      </trkpt>
      <trkpt lat="37.49478" lon="27.61241">
        <ele>787.299</ele>
      </trkpt>
      <trkpt lat="37.49478" lon="27.61243">
        <ele>787.048</ele>
      </trkpt>
      <trkpt lat="37.49478" lon="27.61248">
        <ele>786.628</ele>
      </trkpt>
      <trkpt lat="37.49481" lon="27.61252">
        <ele>785.009</ele>
      </trkpt>
      <trkpt lat="37.49481" lon="27.61253">
        <ele>784.791</ele>
      </trkpt>
      <trkpt lat="37.49485" lon="27.61254">
        <ele>783.35</ele>
      </trkpt>
      <trkpt lat="37.49485" lon="27.61253">
        <ele>783.399</ele>
      </trkpt>
      <trkpt lat="37.49485" lon="27.61253">
        <ele>783.551</ele>
      </trkpt>
      <trkpt lat="37.49488" lon="27.61258">
        <ele>781.273</ele>
      </trkpt>
      <trkpt lat="37.49491" lon="27.61259">
        <ele>779.993</ele>
      </trkpt>
      <trkpt lat="37.49493" lon="27.61261">
        <ele>779.157</ele>
      </trkpt>
      <trkpt lat="37.49497" lon="27.61261">
        <ele>777.678</ele>
      </trkpt>
      <trkpt lat="37.49501" lon="27.61265">
        <ele>775.538</ele>
      </trkpt>
      <trkpt lat="37.49501" lon="27.61266">
        <ele>775.177</ele>
      </trkpt>
      <trkpt lat="37.49501" lon="27.61266">
        <ele>775.266</ele>
      </trkpt>
      <trkpt lat="37.49501" lon="27.61267">
        <ele>774.946</ele>
      </trkpt>
      <trkpt lat="37.49498" lon="27.61272">
        <ele>774.557</ele>
      </trkpt>
      <trkpt lat="37.49496" lon="27.61272">
        <ele>774.734</ele>
      </trkpt>
      <trkpt lat="37.49496" lon="27.61275">
        <ele>774.106</ele>
      </trkpt>
      <trkpt lat="37.49496" lon="27.61278">
        <ele>773.515</ele>
      </trkpt>
      <trkpt lat="37.49496" lon="27.61278">
        <ele>773.224</ele>
      </trkpt>
      <trkpt lat="37.49494" lon="27.61282">
        <ele>773.219</ele>
      </trkpt>
      <trkpt lat="37.49493" lon="27.61282">
        <ele>773.329</ele>
      </trkpt>
      <trkpt lat="37.49495" lon="27.61282">
        <ele>772.901</ele>
      </trkpt>
      <trkpt lat="37.49502" lon="27.61288">
        <ele>770.47</ele>
      </trkpt>
      <trkpt lat="37.49504" lon="27.6129">
        <ele>769.993</ele>
      </trkpt>
      <trkpt lat="37.49506" lon="27.61292">
        <ele>769.575</ele>
      </trkpt>
      <trkpt lat="37.49511" lon="27.61294">
        <ele>768.981</ele>
      </trkpt>
      <trkpt lat="37.49519" lon="27.61296">
        <ele>768.166</ele>
      </trkpt>
      <trkpt lat="37.49521" lon="27.61296">
        <ele>768.076</ele>
      </trkpt>
      <trkpt lat="37.49526" lon="27.61297">
        <ele>767.716</ele>
      </trkpt>
      <trkpt lat="37.49527" lon="27.61297">
        <ele>767.606</ele>
      </trkpt>
      <trkpt lat="37.49532" lon="27.61294">
        <ele>768.169</ele>
      </trkpt>
      <trkpt lat="37.49532" lon="27.61293">
        <ele>768.287</ele>
      </trkpt>
      <trkpt lat="37.49532" lon="27.61295">
        <ele>768.165</ele>
      </trkpt>
      <trkpt lat="37.49536" lon="27.61301">
        <ele>768.169</ele>
      </trkpt>
      <trkpt lat="37.49537" lon="27.61303">
        <ele>768.182</ele>
      </trkpt>
      <trkpt lat="37.49536" lon="27.61306">
        <ele>767.858</ele>
      </trkpt>
      <trkpt lat="37.49535" lon="27.61307">
        <ele>767.968</ele>
      </trkpt>
      <trkpt lat="37.49538" lon="27.61306">
        <ele>768.151</ele>
      </trkpt>
      <trkpt lat="37.4954" lon="27.61309">
        <ele>768.658</ele>
      </trkpt>
      <trkpt lat="37.49541" lon="27.61309">
        <ele>768.721</ele>
      </trkpt>
      <trkpt lat="37.49542" lon="27.61312">
        <ele>769.114</ele>
      </trkpt>
      <trkpt lat="37.4954" lon="27.61313">
        <ele>768.978</ele>
      </trkpt>
      <trkpt lat="37.49541" lon="27.61317">
        <ele>769.465</ele>
      </trkpt>
      <trkpt lat="37.4954" lon="27.61326">
        <ele>770.142</ele>
      </trkpt>
      <trkpt lat="37.49539" lon="27.61327">
        <ele>770.227</ele>
      </trkpt>
      <trkpt lat="37.49538" lon="27.6133">
        <ele>770.442</ele>
      </trkpt>
      <trkpt lat="37.4954" lon="27.61328">
        <ele>770.416</ele>
      </trkpt>
      <trkpt lat="37.4954" lon="27.61328">
        <ele>770.432</ele>
      </trkpt>
      <trkpt lat="37.4954" lon="27.61334">
        <ele>770.879</ele>
      </trkpt>
      <trkpt lat="37.4954" lon="27.61337">
        <ele>771.431</ele>
      </trkpt>
      <trkpt lat="37.49539" lon="27.61343">
        <ele>772.258</ele>
      </trkpt>
      <trkpt lat="37.4954" lon="27.61346">
        <ele>772.773</ele>
      </trkpt>
      <trkpt lat="37.49541" lon="27.61349">
        <ele>773.435</ele>
      </trkpt>
      <trkpt lat="37.4954" lon="27.61349">
        <ele>773.409</ele>
      </trkpt>
      <trkpt lat="37.4954" lon="27.61356">
        <ele>774.445</ele>
      </trkpt>
      <trkpt lat="37.49537" lon="27.61362">
        <ele>774.802</ele>
      </trkpt>
      <trkpt lat="37.49533" lon="27.61368">
        <ele>774.373</ele>
      </trkpt>
      <trkpt lat="37.4953" lon="27.61371">
        <ele>773.784</ele>
      </trkpt>
      <trkpt lat="37.49526" lon="27.61374">
        <ele>772.895</ele>
      </trkpt>
      <trkpt lat="37.49524" lon="27.61374">
        <ele>772.511</ele>
      </trkpt>
      <trkpt lat="37.49523" lon="27.61374">
        <ele>772.182</ele>
      </trkpt>
      <trkpt lat="37.49522" lon="27.61374">
        <ele>771.996</ele>
      </trkpt>
      <trkpt lat="37.49519" lon="27.61379">
        <ele>771.23</ele>
      </trkpt>
      <trkpt lat="37.49518" lon="27.6138">
        <ele>771.066</ele>
      </trkpt>
      <trkpt lat="37.49517" lon="27.61385">
        <ele>770.435</ele>
      </trkpt>
      <trkpt lat="37.49517" lon="27.61387">
        <ele>770.368</ele>
      </trkpt>
      <trkpt lat="37.49517" lon="27.61386">
        <ele>770.468</ele>
      </trkpt>
      <trkpt lat="37.49517" lon="27.61387">
        <ele>770.552</ele>
      </trkpt>
      <trkpt lat="37.49515" lon="27.61394">
        <ele>769.922</ele>
      </trkpt>
      <trkpt lat="37.49514" lon="27.61395">
        <ele>769.61</ele>
      </trkpt>
      <trkpt lat="37.49517" lon="27.614">
        <ele>770.801</ele>
      </trkpt>
      <trkpt lat="37.49517" lon="27.61402">
        <ele>771.038</ele>
      </trkpt>
      <trkpt lat="37.49518" lon="27.61409">
        <ele>771.338</ele>
      </trkpt>
      <trkpt lat="37.49517" lon="27.6142">
        <ele>771.354</ele>
      </trkpt>
      <trkpt lat="37.49518" lon="27.61425">
        <ele>772.204</ele>
      </trkpt>
      <trkpt lat="37.49518" lon="27.61427">
        <ele>772.129</ele>
      </trkpt>
      <trkpt lat="37.49512" lon="27.61441">
        <ele>770.076</ele>
      </trkpt>
      <trkpt lat="37.49512" lon="27.61443">
        <ele>770.026</ele>
      </trkpt>
      <trkpt lat="37.4951" lon="27.61447">
        <ele>769.579</ele>
      </trkpt>
      <trkpt lat="37.4951" lon="27.61446">
        <ele>769.556</ele>
      </trkpt>
      <trkpt lat="37.49508" lon="27.61455">
        <ele>769.857</ele>
      </trkpt>
      <trkpt lat="37.49502" lon="27.61471">
        <ele>768.591</ele>
      </trkpt>
      <trkpt lat="37.49502" lon="27.61471">
        <ele>768.57</ele>
      </trkpt>
      <trkpt lat="37.49502" lon="27.61483">
        <ele>768.811</ele>
      </trkpt>
      <trkpt lat="37.49497" lon="27.61498">
        <ele>766.947</ele>
      </trkpt>
      <trkpt lat="37.49499" lon="27.61507">
        <ele>767.895</ele>
      </trkpt>
      <trkpt lat="37.49499" lon="27.61507">
        <ele>767.67</ele>
      </trkpt>
      <trkpt lat="37.49495" lon="27.61502">
        <ele>766.027</ele>
      </trkpt>
      <trkpt lat="37.49494" lon="27.61502">
        <ele>765.62</ele>
      </trkpt>
      <trkpt lat="37.49493" lon="27.61503">
        <ele>765.399</ele>
      </trkpt>
      <trkpt lat="37.49492" lon="27.61504">
        <ele>764.967</ele>
      </trkpt>
      <trkpt lat="37.4949" lon="27.61509">
        <ele>764.595</ele>
      </trkpt>
      <trkpt lat="37.49489" lon="27.61515">
        <ele>764.637</ele>
      </trkpt>
      <trkpt lat="37.49488" lon="27.61517">
        <ele>764.436</ele>
      </trkpt>
      <trkpt lat="37.49485" lon="27.61522">
        <ele>763.809</ele>
      </trkpt>
      <trkpt lat="37.49484" lon="27.61532">
        <ele>763.864</ele>
      </trkpt>
      <trkpt lat="37.49482" lon="27.61535">
        <ele>763.515</ele>
      </trkpt>
      <trkpt lat="37.49482" lon="27.61536">
        <ele>763.377</ele>
      </trkpt>
      <trkpt lat="37.4948" lon="27.61539">
        <ele>762.778</ele>
      </trkpt>
      <trkpt lat="37.49478" lon="27.61546">
        <ele>762.464</ele>
      </trkpt>
      <trkpt lat="37.49478" lon="27.61556">
        <ele>762.728</ele>
      </trkpt>
      <trkpt lat="37.4948" lon="27.6156">
        <ele>763.81</ele>
      </trkpt>
      <trkpt lat="37.49479" lon="27.61561">
        <ele>763.537</ele>
      </trkpt>
      <trkpt lat="37.49477" lon="27.61563">
        <ele>762.912</ele>
      </trkpt>
      <trkpt lat="37.49467" lon="27.6157">
        <ele>760.817</ele>
      </trkpt>
      <trkpt lat="37.49466" lon="27.61572">
        <ele>760.844</ele>
      </trkpt>
      <trkpt lat="37.49467" lon="27.61574">
        <ele>761.145</ele>
      </trkpt>
      <trkpt lat="37.49466" lon="27.61573">
        <ele>760.76</ele>
      </trkpt>
      <trkpt lat="37.49464" lon="27.61574">
        <ele>760.306</ele>
      </trkpt>
      <trkpt lat="37.49459" lon="27.61577">
        <ele>759.597</ele>
      </trkpt>
      <trkpt lat="37.49453" lon="27.61579">
        <ele>758.433</ele>
      </trkpt>
      <trkpt lat="37.49451" lon="27.61579">
        <ele>757.991</ele>
      </trkpt>
      <trkpt lat="37.49444" lon="27.61592">
        <ele>757.22</ele>
      </trkpt>
      <trkpt lat="37.4944" lon="27.61604">
        <ele>756.388</ele>
      </trkpt>
      <trkpt lat="37.4944" lon="27.61605">
        <ele>756.295</ele>
      </trkpt>
      <trkpt lat="37.49442" lon="27.61617">
        <ele>757.333</ele>
      </trkpt>
      <trkpt lat="37.49442" lon="27.61617">
        <ele>757.254</ele>
      </trkpt>
      <trkpt lat="37.4944" lon="27.61622">
        <ele>757.063</ele>
      </trkpt>
      <trkpt lat="37.49439" lon="27.61624">
        <ele>756.583</ele>
      </trkpt>
      <trkpt lat="37.49438" lon="27.61627">
        <ele>756.531</ele>
      </trkpt>
      <trkpt lat="37.49437" lon="27.61635">
        <ele>756.483</ele>
      </trkpt>
      <trkpt lat="37.49435" lon="27.61645">
        <ele>756.008</ele>
      </trkpt>
      <trkpt lat="37.49436" lon="27.61647">
        <ele>756.273</ele>
      </trkpt>
      <trkpt lat="37.49434" lon="27.6165">
        <ele>755.835</ele>
      </trkpt>
      <trkpt lat="37.49434" lon="27.6165">
        <ele>755.697</ele>
      </trkpt>
      <trkpt lat="37.49433" lon="27.61659">
        <ele>755.583</ele>
      </trkpt>
      <trkpt lat="37.49434" lon="27.61662">
        <ele>755.703</ele>
      </trkpt>
      <trkpt lat="37.49433" lon="27.61663">
        <ele>755.434</ele>
      </trkpt>
      <trkpt lat="37.49428" lon="27.61667">
        <ele>753.601</ele>
      </trkpt>
      <trkpt lat="37.49423" lon="27.61678">
        <ele>751.27</ele>
      </trkpt>
      <trkpt lat="37.49418" lon="27.61693">
        <ele>749.628</ele>
      </trkpt>
      <trkpt lat="37.49419" lon="27.61693">
        <ele>749.661</ele>
      </trkpt>
      <trkpt lat="37.49413" lon="27.617">
        <ele>746.571</ele>
      </trkpt>
      <trkpt lat="37.49405" lon="27.61713">
        <ele>742.21</ele>
      </trkpt>
      <trkpt lat="37.49402" lon="27.61718">
        <ele>741.031</ele>
      </trkpt>
      <trkpt lat="37.49402" lon="27.61719">
        <ele>740.806</ele>
      </trkpt>
      <trkpt lat="37.49401" lon="27.61726">
        <ele>739.89</ele>
      </trkpt>
      <trkpt lat="37.49399" lon="27.61729">
        <ele>739.105</ele>
      </trkpt>
      <trkpt lat="37.49397" lon="27.6173">
        <ele>738.41</ele>
      </trkpt>
      <trkpt lat="37.49393" lon="27.61741">
        <ele>735.535</ele>
      </trkpt>
      <trkpt lat="37.49393" lon="27.61741">
        <ele>735.427</ele>
      </trkpt>
      <trkpt lat="37.49395" lon="27.61746">
        <ele>735.932</ele>
      </trkpt>
      <trkpt lat="37.49397" lon="27.61753">
        <ele>735.9</ele>
      </trkpt>
      <trkpt lat="37.49401" lon="27.61766">
        <ele>736.117</ele>
      </trkpt>
      <trkpt lat="37.49401" lon="27.61766">
        <ele>736.106</ele>
      </trkpt>
      <trkpt lat="37.49399" lon="27.61767">
        <ele>735.275</ele>
      </trkpt>
      <trkpt lat="37.49397" lon="27.61772">
        <ele>733.838</ele>
      </trkpt>
      <trkpt lat="37.49396" lon="27.61775">
        <ele>733.142</ele>
      </trkpt>
      <trkpt lat="37.49396" lon="27.61783">
        <ele>732.232</ele>
      </trkpt>
      <trkpt lat="37.49396" lon="27.61791">
        <ele>731.132</ele>
      </trkpt>
      <trkpt lat="37.49397" lon="27.61807">
        <ele>729.574</ele>
      </trkpt>
      <trkpt lat="37.49396" lon="27.61808">
        <ele>729.158</ele>
      </trkpt>
      <trkpt lat="37.49395" lon="27.61818">
        <ele>726.406</ele>
      </trkpt>
      <trkpt lat="37.49394" lon="27.61819">
        <ele>726.051</ele>
      </trkpt>
      <trkpt lat="37.49393" lon="27.61829">
        <ele>723.497</ele>
      </trkpt>
      <trkpt lat="37.49394" lon="27.61832">
        <ele>723.138</ele>
      </trkpt>
      <trkpt lat="37.49394" lon="27.61833">
        <ele>722.986</ele>
      </trkpt>
      <trkpt lat="37.49395" lon="27.61838">
        <ele>722.069</ele>
      </trkpt>
      <trkpt lat="37.49394" lon="27.61838">
        <ele>721.882</ele>
      </trkpt>
      <trkpt lat="37.49393" lon="27.61837">
        <ele>721.46</ele>
      </trkpt>
      <trkpt lat="37.49393" lon="27.61839">
        <ele>721.205</ele>
      </trkpt>
      <trkpt lat="37.49397" lon="27.61844">
        <ele>721.328</ele>
      </trkpt>
      <trkpt lat="37.49401" lon="27.61853">
        <ele>720.568</ele>
      </trkpt>
      <trkpt lat="37.49402" lon="27.61858">
        <ele>719.539</ele>
      </trkpt>
      <trkpt lat="37.49402" lon="27.61864">
        <ele>718.364</ele>
      </trkpt>
      <trkpt lat="37.49404" lon="27.61872">
        <ele>718.033</ele>
      </trkpt>
      <trkpt lat="37.49406" lon="27.61872">
        <ele>718.457</ele>
      </trkpt>
      <trkpt lat="37.49409" lon="27.61876">
        <ele>718.903</ele>
      </trkpt>
      <trkpt lat="37.49411" lon="27.61879">
        <ele>718.865</ele>
      </trkpt>
      <trkpt lat="37.49417" lon="27.61884">
        <ele>719.798</ele>
      </trkpt>
      <trkpt lat="37.49418" lon="27.6189">
        <ele>719.238</ele>
      </trkpt>
      <trkpt lat="37.49417" lon="27.61895">
        <ele>718.583</ele>
      </trkpt>
      <trkpt lat="37.49417" lon="27.61902">
        <ele>718.066</ele>
      </trkpt>
      <trkpt lat="37.49417" lon="27.6191">
        <ele>717.657</ele>
      </trkpt>
      <trkpt lat="37.49418" lon="27.61919">
        <ele>716.605</ele>
      </trkpt>
      <trkpt lat="37.49418" lon="27.6192">
        <ele>716.501</ele>
      </trkpt>
      <trkpt lat="37.49418" lon="27.61922">
        <ele>716.224</ele>
      </trkpt>
      <trkpt lat="37.49418" lon="27.61926">
        <ele>715.124</ele>
      </trkpt>
      <trkpt lat="37.49417" lon="27.61927">
        <ele>714.827</ele>
      </trkpt>
      <trkpt lat="37.49413" lon="27.61938">
        <ele>711.678</ele>
      </trkpt>
      <trkpt lat="37.49411" lon="27.61942">
        <ele>710.745</ele>
      </trkpt>
      <trkpt lat="37.49409" lon="27.61945">
        <ele>709.914</ele>
      </trkpt>
      <trkpt lat="37.4941" lon="27.61945">
        <ele>709.896</ele>
      </trkpt>
      <trkpt lat="37.4941" lon="27.61951">
        <ele>708.825</ele>
      </trkpt>
      <trkpt lat="37.49409" lon="27.61959">
        <ele>707.45</ele>
      </trkpt>
      <trkpt lat="37.49402" lon="27.61963">
        <ele>705.888</ele>
      </trkpt>
      <trkpt lat="37.49401" lon="27.61964">
        <ele>705.508</ele>
      </trkpt>
      <trkpt lat="37.494" lon="27.61968">
        <ele>704.855</ele>
      </trkpt>
      <trkpt lat="37.494" lon="27.61971">
        <ele>704.369</ele>
      </trkpt>
      <trkpt lat="37.494" lon="27.61972">
        <ele>704.209</ele>
      </trkpt>
      <trkpt lat="37.49401" lon="27.61976">
        <ele>703.745</ele>
      </trkpt>
      <trkpt lat="37.49397" lon="27.6199">
        <ele>701.432</ele>
      </trkpt>
      <trkpt lat="37.49397" lon="27.61999">
        <ele>700.213</ele>
      </trkpt>
      <trkpt lat="37.49396" lon="27.62">
        <ele>700.03</ele>
      </trkpt>
      <trkpt lat="37.49395" lon="27.62008">
        <ele>699.074</ele>
      </trkpt>
      <trkpt lat="37.49393" lon="27.62011">
        <ele>698.614</ele>
      </trkpt>
      <trkpt lat="37.49393" lon="27.62014">
        <ele>698.426</ele>
      </trkpt>
      <trkpt lat="37.49392" lon="27.62017">
        <ele>697.968</ele>
      </trkpt>
      <trkpt lat="37.49394" lon="27.62023">
        <ele>697.614</ele>
      </trkpt>
      <trkpt lat="37.49395" lon="27.62024">
        <ele>697.548</ele>
      </trkpt>
      <trkpt lat="37.49396" lon="27.62033">
        <ele>696.029</ele>
      </trkpt>
      <trkpt lat="37.49396" lon="27.62035">
        <ele>695.786</ele>
      </trkpt>
      <trkpt lat="37.49402" lon="27.62042">
        <ele>694.495</ele>
      </trkpt>
      <trkpt lat="37.49403" lon="27.62042">
        <ele>694.493</ele>
      </trkpt>
      <trkpt lat="37.49402" lon="27.62042">
        <ele>694.5</ele>
      </trkpt>
      <trkpt lat="37.49398" lon="27.62045">
        <ele>693.619</ele>
      </trkpt>
      <trkpt lat="37.49394" lon="27.62049">
        <ele>692.725</ele>
      </trkpt>
      <trkpt lat="37.49395" lon="27.62049">
        <ele>692.683</ele>
      </trkpt>
      <trkpt lat="37.49404" lon="27.62051">
        <ele>692.447</ele>
      </trkpt>
      <trkpt lat="37.49408" lon="27.62055">
        <ele>691.765</ele>
      </trkpt>
      <trkpt lat="37.49411" lon="27.62058">
        <ele>691.401</ele>
      </trkpt>
      <trkpt lat="37.49412" lon="27.6206">
        <ele>691.032</ele>
      </trkpt>
      <trkpt lat="37.49411" lon="27.62062">
        <ele>690.605</ele>
      </trkpt>
      <trkpt lat="37.49406" lon="27.62069">
        <ele>689.153</ele>
      </trkpt>
      <trkpt lat="37.49404" lon="27.62069">
        <ele>689.067</ele>
      </trkpt>
      <trkpt lat="37.49402" lon="27.62069">
        <ele>689.05</ele>
      </trkpt>
      <trkpt lat="37.49402" lon="27.62069">
        <ele>689.068</ele>
      </trkpt>
      <trkpt lat="37.49403" lon="27.62075">
        <ele>688.026</ele>
      </trkpt>
      <trkpt lat="37.49402" lon="27.62077">
        <ele>687.664</ele>
      </trkpt>
      <trkpt lat="37.49399" lon="27.62082">
        <ele>686.6</ele>
      </trkpt>
      <trkpt lat="37.49397" lon="27.62085">
        <ele>686.253</ele>
      </trkpt>
      <trkpt lat="37.49397" lon="27.62085">
        <ele>686.235</ele>
      </trkpt>
      <trkpt lat="37.49396" lon="27.62086">
        <ele>686.208</ele>
      </trkpt>
      <trkpt lat="37.49396" lon="27.62086">
        <ele>686.192</ele>
      </trkpt>
      <trkpt lat="37.49393" lon="27.62091">
        <ele>685.912</ele>
      </trkpt>
      <trkpt lat="37.49389" lon="27.62091">
        <ele>685.602</ele>
      </trkpt>
      <trkpt lat="37.49387" lon="27.6209">
        <ele>685.26</ele>
      </trkpt>
      <trkpt lat="37.49382" lon="27.62091">
        <ele>683.901</ele>
      </trkpt>
      <trkpt lat="37.49382" lon="27.62091">
        <ele>683.848</ele>
      </trkpt>
      <trkpt lat="37.4938" lon="27.62093">
        <ele>683.159</ele>
      </trkpt>
      <trkpt lat="37.4938" lon="27.62101">
        <ele>682.784</ele>
      </trkpt>
      <trkpt lat="37.49382" lon="27.62105">
        <ele>683.247</ele>
      </trkpt>
      <trkpt lat="37.49389" lon="27.6212">
        <ele>685.703</ele>
      </trkpt>
      <trkpt lat="37.4939" lon="27.62122">
        <ele>685.877</ele>
      </trkpt>
      <trkpt lat="37.4939" lon="27.62127">
        <ele>686.228</ele>
      </trkpt>
      <trkpt lat="37.49387" lon="27.62129">
        <ele>685.733</ele>
      </trkpt>
      <trkpt lat="37.49389" lon="27.62136">
        <ele>686.7</ele>
      </trkpt>
      <trkpt lat="37.49387" lon="27.62138">
        <ele>686.545</ele>
      </trkpt>
      <trkpt lat="37.49387" lon="27.6214">
        <ele>686.561</ele>
      </trkpt>
      <trkpt lat="37.49386" lon="27.62138">
        <ele>686.245</ele>
      </trkpt>
      <trkpt lat="37.49382" lon="27.6214">
        <ele>685.55</ele>
      </trkpt>
      <trkpt lat="37.49376" lon="27.62148">
        <ele>685.448</ele>
      </trkpt>
      <trkpt lat="37.49374" lon="27.62148">
        <ele>684.897</ele>
      </trkpt>
      <trkpt lat="37.49373" lon="27.62149">
        <ele>684.793</ele>
      </trkpt>
      <trkpt lat="37.49366" lon="27.62153">
        <ele>683.741</ele>
      </trkpt>
      <trkpt lat="37.49363" lon="27.62154">
        <ele>683.206</ele>
      </trkpt>
      <trkpt lat="37.49361" lon="27.62153">
        <ele>682.402</ele>
      </trkpt>
      <trkpt lat="37.49356" lon="27.62161">
        <ele>682.738</ele>
      </trkpt>
      <trkpt lat="37.49353" lon="27.62163">
        <ele>682.268</ele>
      </trkpt>
      <trkpt lat="37.49352" lon="27.62163">
        <ele>681.893</ele>
      </trkpt>
      <trkpt lat="37.49341" lon="27.62162">
        <ele>678.809</ele>
      </trkpt>
      <trkpt lat="37.49339" lon="27.62165">
        <ele>678.849</ele>
      </trkpt>
      <trkpt lat="37.49334" lon="27.62165">
        <ele>677.824</ele>
      </trkpt>
      <trkpt lat="37.49332" lon="27.62161">
        <ele>676.005</ele>
      </trkpt>
      <trkpt lat="37.49333" lon="27.62156">
        <ele>675.132</ele>
      </trkpt>
      <trkpt lat="37.49332" lon="27.62156">
        <ele>674.9</ele>
      </trkpt>
      <trkpt lat="37.49332" lon="27.62153">
        <ele>673.869</ele>
      </trkpt>
      <trkpt lat="37.49327" lon="27.62155">
        <ele>672.462</ele>
      </trkpt>
      <trkpt lat="37.49322" lon="27.62153">
        <ele>670.239</ele>
      </trkpt>
      <trkpt lat="37.49317" lon="27.62154">
        <ele>668.822</ele>
      </trkpt>
      <trkpt lat="37.49318" lon="27.62154">
        <ele>668.804</ele>
      </trkpt>
      <trkpt lat="37.49318" lon="27.6215">
        <ele>667.929</ele>
      </trkpt>
      <trkpt lat="37.49322" lon="27.62142">
        <ele>667.48</ele>
      </trkpt>
      <trkpt lat="37.49322" lon="27.62136">
        <ele>666.42</ele>
      </trkpt>
      <trkpt lat="37.49321" lon="27.62136">
        <ele>666.36</ele>
      </trkpt>
      <trkpt lat="37.49319" lon="27.62137">
        <ele>665.721</ele>
      </trkpt>
      <trkpt lat="37.49311" lon="27.6214">
        <ele>662.999</ele>
      </trkpt>
      <trkpt lat="37.49307" lon="27.6214">
        <ele>661.545</ele>
      </trkpt>
      <trkpt lat="37.49302" lon="27.62142">
        <ele>660.394</ele>
      </trkpt>
      <trkpt lat="37.49301" lon="27.62143">
        <ele>659.959</ele>
      </trkpt>
      <trkpt lat="37.49293" lon="27.62145">
        <ele>657.505</ele>
      </trkpt>
      <trkpt lat="37.49287" lon="27.62148">
        <ele>655.632</ele>
      </trkpt>
      <trkpt lat="37.49283" lon="27.62149">
        <ele>654.359</ele>
      </trkpt>
      <trkpt lat="37.49277" lon="27.62155">
        <ele>653.705</ele>
      </trkpt>
      <trkpt lat="37.49273" lon="27.62157">
        <ele>653.329</ele>
      </trkpt>
      <trkpt lat="37.49273" lon="27.62158">
        <ele>653.352</ele>
      </trkpt>
      <trkpt lat="37.49272" lon="27.62157">
        <ele>652.855</ele>
      </trkpt>
      <trkpt lat="37.49272" lon="27.62157">
        <ele>652.877</ele>
      </trkpt>
      <trkpt lat="37.4927" lon="27.62157">
        <ele>652.408</ele>
      </trkpt>
      <trkpt lat="37.49265" lon="27.62163">
        <ele>652.264</ele>
      </trkpt>
      <trkpt lat="37.49264" lon="27.62164">
        <ele>652.281</ele>
      </trkpt>
      <trkpt lat="37.4926" lon="27.6217">
        <ele>652.936</ele>
      </trkpt>
      <trkpt lat="37.49256" lon="27.6217">
        <ele>651.85</ele>
      </trkpt>
      <trkpt lat="37.49254" lon="27.62171">
        <ele>651.565</ele>
      </trkpt>
      <trkpt lat="37.49249" lon="27.62172">
        <ele>650.645</ele>
      </trkpt>
      <trkpt lat="37.49246" lon="27.62173">
        <ele>650.382</ele>
      </trkpt>
      <trkpt lat="37.49245" lon="27.62174">
        <ele>650.592</ele>
      </trkpt>
      <trkpt lat="37.4924" lon="27.62182">
        <ele>652.334</ele>
      </trkpt>
      <trkpt lat="37.49235" lon="27.62181">
        <ele>651.378</ele>
      </trkpt>
      <trkpt lat="37.49229" lon="27.62182">
        <ele>650.778</ele>
      </trkpt>
      <trkpt lat="37.49223" lon="27.62182">
        <ele>649.954</ele>
      </trkpt>
      <trkpt lat="37.49217" lon="27.62185">
        <ele>649.875</ele>
      </trkpt>
      <trkpt lat="37.49215" lon="27.62188">
        <ele>650.424</ele>
      </trkpt>
      <trkpt lat="37.49215" lon="27.62191">
        <ele>651.433</ele>
      </trkpt>
      <trkpt lat="37.49216" lon="27.62192">
        <ele>651.855</ele>
      </trkpt>
      <trkpt lat="37.49212" lon="27.62194">
        <ele>652.15</ele>
      </trkpt>
      <trkpt lat="37.49205" lon="27.62196">
        <ele>651.684</ele>
      </trkpt>
      <trkpt lat="37.49198" lon="27.62199">
        <ele>651.414</ele>
      </trkpt>
      <trkpt lat="37.49187" lon="27.62204">
        <ele>652.136</ele>
      </trkpt>
      <trkpt lat="37.49184" lon="27.62201">
        <ele>650.952</ele>
      </trkpt>
      <trkpt lat="37.49181" lon="27.62199">
        <ele>649.703</ele>
      </trkpt>
      <trkpt lat="37.49181" lon="27.62201">
        <ele>650.561</ele>
      </trkpt>
      <trkpt lat="37.49182" lon="27.62207">
        <ele>652.897</ele>
      </trkpt>
      <trkpt lat="37.49191" lon="27.62214">
        <ele>656.584</ele>
      </trkpt>
      <trkpt lat="37.49192" lon="27.62215">
        <ele>656.945</ele>
      </trkpt>
      <trkpt lat="37.49197" lon="27.62217">
        <ele>658.233</ele>
      </trkpt>
      <trkpt lat="37.49198" lon="27.62221">
        <ele>659.791</ele>
      </trkpt>
      <trkpt lat="37.49194" lon="27.62218">
        <ele>658.208</ele>
      </trkpt>
      <trkpt lat="37.4919" lon="27.62221">
        <ele>659.15</ele>
      </trkpt>
      <trkpt lat="37.49189" lon="27.62222">
        <ele>659.394</ele>
      </trkpt>
      <trkpt lat="37.49188" lon="27.62219">
        <ele>658.321</ele>
      </trkpt>
      <trkpt lat="37.49186" lon="27.62219">
        <ele>657.916</ele>
      </trkpt>
      <trkpt lat="37.49181" lon="27.62218">
        <ele>657.191</ele>
      </trkpt>
      <trkpt lat="37.49178" lon="27.62216">
        <ele>656.354</ele>
      </trkpt>
      <trkpt lat="37.4917" lon="27.62215">
        <ele>655.435</ele>
      </trkpt>
      <trkpt lat="37.49168" lon="27.62217">
        <ele>656.032</ele>
      </trkpt>
      <trkpt lat="37.49156" lon="27.62221">
        <ele>656.96</ele>
      </trkpt>
      <trkpt lat="37.49151" lon="27.62221">
        <ele>656.399</ele>
      </trkpt>
      <trkpt lat="37.49149" lon="27.62222">
        <ele>656.699</ele>
      </trkpt>
      <trkpt lat="37.49148" lon="27.62222">
        <ele>656.471</ele>
      </trkpt>
      <trkpt lat="37.49145" lon="27.62223">
        <ele>656.529</ele>
      </trkpt>
      <trkpt lat="37.49143" lon="27.62222">
        <ele>656.121</ele>
      </trkpt>
      <trkpt lat="37.49143" lon="27.62223">
        <ele>656.487</ele>
      </trkpt>
      <trkpt lat="37.49135" lon="27.62229">
        <ele>656.939</ele>
      </trkpt>
      <trkpt lat="37.49133" lon="27.62231">
        <ele>657.045</ele>
      </trkpt>
      <trkpt lat="37.49133" lon="27.62231">
        <ele>657.015</ele>
      </trkpt>
      <trkpt lat="37.49134" lon="27.62228">
        <ele>656.407</ele>
      </trkpt>
      <trkpt lat="37.49131" lon="27.62229">
        <ele>656.24</ele>
      </trkpt>
      <trkpt lat="37.49131" lon="27.62229">
        <ele>656.249</ele>
      </trkpt>
      <trkpt lat="37.4913" lon="27.6223">
        <ele>656.156</ele>
      </trkpt>
      <trkpt lat="37.49128" lon="27.62233">
        <ele>656.528</ele>
      </trkpt>
      <trkpt lat="37.49127" lon="27.62235">
        <ele>656.754</ele>
      </trkpt>
      <trkpt lat="37.49125" lon="27.62235">
        <ele>656.165</ele>
      </trkpt>
      <trkpt lat="37.49121" lon="27.62234">
        <ele>655.297</ele>
      </trkpt>
      <trkpt lat="37.49119" lon="27.6224">
        <ele>655.898</ele>
      </trkpt>
      <trkpt lat="37.49115" lon="27.62251">
        <ele>656.913</ele>
      </trkpt>
      <trkpt lat="37.49111" lon="27.62258">
        <ele>656.723</ele>
      </trkpt>
      <trkpt lat="37.4911" lon="27.62258">
        <ele>656.498</ele>
      </trkpt>
      <trkpt lat="37.49111" lon="27.6226">
        <ele>657.139</ele>
      </trkpt>
      <trkpt lat="37.49109" lon="27.62264">
        <ele>656.983</ele>
      </trkpt>
      <trkpt lat="37.49108" lon="27.62264">
        <ele>656.879</ele>
      </trkpt>
      <trkpt lat="37.49103" lon="27.6227">
        <ele>656.302</ele>
      </trkpt>
      <trkpt lat="37.491" lon="27.62275">
        <ele>655.912</ele>
      </trkpt>
      <trkpt lat="37.49095" lon="27.62281">
        <ele>654.941</ele>
      </trkpt>
      <trkpt lat="37.49095" lon="27.62281">
        <ele>654.843</ele>
      </trkpt>
      <trkpt lat="37.49093" lon="27.62284">
        <ele>654.3</ele>
      </trkpt>
      <trkpt lat="37.4909" lon="27.62289">
        <ele>653.235</ele>
      </trkpt>
      <trkpt lat="37.49087" lon="27.62283">
        <ele>652.763</ele>
      </trkpt>
      <trkpt lat="37.49088" lon="27.62289">
        <ele>652.798</ele>
      </trkpt>
      <trkpt lat="37.4909" lon="27.623">
        <ele>653.183</ele>
      </trkpt>
      <trkpt lat="37.4909" lon="27.62302">
        <ele>653.056</ele>
      </trkpt>
      <trkpt lat="37.49089" lon="27.623">
        <ele>652.859</ele>
      </trkpt>
      <trkpt lat="37.49089" lon="27.62304">
        <ele>652.6</ele>
      </trkpt>
      <trkpt lat="37.49087" lon="27.62305">
        <ele>652.107</ele>
      </trkpt>
      <trkpt lat="37.49082" lon="27.62316">
        <ele>649.825</ele>
      </trkpt>
      <trkpt lat="37.49079" lon="27.62334">
        <ele>647.794</ele>
      </trkpt>
      <trkpt lat="37.49078" lon="27.62334">
        <ele>647.713</ele>
      </trkpt>
      <trkpt lat="37.49077" lon="27.62333">
        <ele>647.427</ele>
      </trkpt>
      <trkpt lat="37.49075" lon="27.62336">
        <ele>646.862</ele>
      </trkpt>
      <trkpt lat="37.49071" lon="27.6234">
        <ele>645.874</ele>
      </trkpt>
      <trkpt lat="37.49072" lon="27.62342">
        <ele>646.057</ele>
      </trkpt>
      <trkpt lat="37.49071" lon="27.62348">
        <ele>645.848</ele>
      </trkpt>
      <trkpt lat="37.49073" lon="27.62357">
        <ele>646.279</ele>
      </trkpt>
      <trkpt lat="37.49074" lon="27.62361">
        <ele>646.514</ele>
      </trkpt>
      <trkpt lat="37.49074" lon="27.62368">
        <ele>646.147</ele>
      </trkpt>
      <trkpt lat="37.4907" lon="27.62379">
        <ele>643.948</ele>
      </trkpt>
      <trkpt lat="37.4907" lon="27.6238">
        <ele>643.975</ele>
      </trkpt>
      <trkpt lat="37.49063" lon="27.62386">
        <ele>641.415</ele>
      </trkpt>
      <trkpt lat="37.49056" lon="27.62389">
        <ele>639.05</ele>
      </trkpt>
      <trkpt lat="37.49055" lon="27.6239">
        <ele>638.76</ele>
      </trkpt>
      <trkpt lat="37.4905" lon="27.62397">
        <ele>637.18</ele>
      </trkpt>
      <trkpt lat="37.49049" lon="27.62397">
        <ele>636.927</ele>
      </trkpt>
      <trkpt lat="37.49043" lon="27.62403">
        <ele>635.034</ele>
      </trkpt>
      <trkpt lat="37.49042" lon="27.62406">
        <ele>634.756</ele>
      </trkpt>
      <trkpt lat="37.4904" lon="27.6241">
        <ele>634.091</ele>
      </trkpt>
      <trkpt lat="37.4904" lon="27.6241">
        <ele>634.069</ele>
      </trkpt>
      <trkpt lat="37.4904" lon="27.62411">
        <ele>633.848</ele>
      </trkpt>
      <trkpt lat="37.49036" lon="27.62419">
        <ele>632.718</ele>
      </trkpt>
      <trkpt lat="37.49036" lon="27.62419">
        <ele>632.683</ele>
      </trkpt>
      <trkpt lat="37.49035" lon="27.62425">
        <ele>632.176</ele>
      </trkpt>
      <trkpt lat="37.49035" lon="27.62439">
        <ele>631.374</ele>
      </trkpt>
      <trkpt lat="37.49036" lon="27.62441">
        <ele>631.442</ele>
      </trkpt>
      <trkpt lat="37.49034" lon="27.62445">
        <ele>630.903</ele>
      </trkpt>
      <trkpt lat="37.49034" lon="27.62445">
        <ele>630.628</ele>
      </trkpt>
      <trkpt lat="37.49028" lon="27.62447">
        <ele>628.751</ele>
      </trkpt>
      <trkpt lat="37.49029" lon="27.62451">
        <ele>628.504</ele>
      </trkpt>
      <trkpt lat="37.49031" lon="27.62457">
        <ele>628.524</ele>
      </trkpt>
      <trkpt lat="37.49025" lon="27.62461">
        <ele>626.064</ele>
      </trkpt>
      <trkpt lat="37.49024" lon="27.62461">
        <ele>625.747</ele>
      </trkpt>
      <trkpt lat="37.49024" lon="27.62466">
        <ele>625.234</ele>
      </trkpt>
      <trkpt lat="37.49024" lon="27.62472">
        <ele>624.279</ele>
      </trkpt>
      <trkpt lat="37.49023" lon="27.62473">
        <ele>624.018</ele>
      </trkpt>
      <trkpt lat="37.49023" lon="27.62473">
        <ele>623.666</ele>
      </trkpt>
      <trkpt lat="37.49022" lon="27.62476">
        <ele>623.073</ele>
      </trkpt>
      <trkpt lat="37.49023" lon="27.62479">
        <ele>623.127</ele>
      </trkpt>
      <trkpt lat="37.49022" lon="27.62479">
        <ele>622.935</ele>
      </trkpt>
      <trkpt lat="37.49022" lon="27.62493">
        <ele>621.364</ele>
      </trkpt>
      <trkpt lat="37.49022" lon="27.62496">
        <ele>621.22</ele>
      </trkpt>
      <trkpt lat="37.49023" lon="27.62502">
        <ele>620.658</ele>
      </trkpt>
      <trkpt lat="37.49023" lon="27.62502">
        <ele>620.786</ele>
      </trkpt>
      <trkpt lat="37.49022" lon="27.62502">
        <ele>620.478</ele>
      </trkpt>
      <trkpt lat="37.4902" lon="27.62497">
        <ele>620.376</ele>
      </trkpt>
      <trkpt lat="37.49019" lon="27.62499">
        <ele>619.585</ele>
      </trkpt>
      <trkpt lat="37.49019" lon="27.62497">
        <ele>619.607</ele>
      </trkpt>
      <trkpt lat="37.49019" lon="27.62497">
        <ele>619.638</ele>
      </trkpt>
      <trkpt lat="37.49017" lon="27.62499">
        <ele>618.645</ele>
      </trkpt>
      <trkpt lat="37.49015" lon="27.62507">
        <ele>616.548</ele>
      </trkpt>
      <trkpt lat="37.49015" lon="27.62508">
        <ele>616.093</ele>
      </trkpt>
      <trkpt lat="37.49013" lon="27.62513">
        <ele>614.142</ele>
      </trkpt>
      <trkpt lat="37.49013" lon="27.62514">
        <ele>613.787</ele>
      </trkpt>
      <trkpt lat="37.49012" lon="27.62517">
        <ele>612.755</ele>
      </trkpt>
      <trkpt lat="37.49011" lon="27.62516">
        <ele>612.535</ele>
      </trkpt>
      <trkpt lat="37.49007" lon="27.62514">
        <ele>611.413</ele>
      </trkpt>
      <trkpt lat="37.49006" lon="27.62513">
        <ele>610.817</ele>
      </trkpt>
      <trkpt lat="37.49005" lon="27.62514">
        <ele>610.206</ele>
      </trkpt>
      <trkpt lat="37.49007" lon="27.62522">
        <ele>608.832</ele>
      </trkpt>
      <trkpt lat="37.49007" lon="27.62524">
        <ele>608.604</ele>
      </trkpt>
      <trkpt lat="37.49004" lon="27.62527">
        <ele>606.494</ele>
      </trkpt>
      <trkpt lat="37.49001" lon="27.62526">
        <ele>605.092</ele>
      </trkpt>
      <trkpt lat="37.49001" lon="27.62526">
        <ele>604.983</ele>
      </trkpt>
      <trkpt lat="37.49001" lon="27.62535">
        <ele>602.484</ele>
      </trkpt>
      <trkpt lat="37.49001" lon="27.62536">
        <ele>602.365</ele>
      </trkpt>
      <trkpt lat="37.48999" lon="27.62536">
        <ele>601.628</ele>
      </trkpt>
      <trkpt lat="37.48993" lon="27.62533">
        <ele>599.81</ele>
      </trkpt>
      <trkpt lat="37.48991" lon="27.62532">
        <ele>598.867</ele>
      </trkpt>
      <trkpt lat="37.4899" lon="27.6254">
        <ele>596.573</ele>
      </trkpt>
      <trkpt lat="37.48989" lon="27.62543">
        <ele>595.446</ele>
      </trkpt>
      <trkpt lat="37.48988" lon="27.62546">
        <ele>594.534</ele>
      </trkpt>
      <trkpt lat="37.48988" lon="27.62547">
        <ele>594.447</ele>
      </trkpt>
      <trkpt lat="37.48987" lon="27.62546">
        <ele>593.847</ele>
      </trkpt>
      <trkpt lat="37.48982" lon="27.62544">
        <ele>592.302</ele>
      </trkpt>
      <trkpt lat="37.48975" lon="27.62539">
        <ele>590.722</ele>
      </trkpt>
      <trkpt lat="37.48974" lon="27.62538">
        <ele>590.725</ele>
      </trkpt>
      <trkpt lat="37.48975" lon="27.62545">
        <ele>589.403</ele>
      </trkpt>
      <trkpt lat="37.48976" lon="27.62555">
        <ele>587.411</ele>
      </trkpt>
      <trkpt lat="37.48976" lon="27.62556">
        <ele>587.427</ele>
      </trkpt>
      <trkpt lat="37.48975" lon="27.6256">
        <ele>587.405</ele>
      </trkpt>
      <trkpt lat="37.48975" lon="27.62561">
        <ele>587.454</ele>
      </trkpt>
      <trkpt lat="37.48973" lon="27.62565">
        <ele>587.102</ele>
      </trkpt>
      <trkpt lat="37.48972" lon="27.62564">
        <ele>586.804</ele>
      </trkpt>
      <trkpt lat="37.4897" lon="27.62564">
        <ele>586.401</ele>
      </trkpt>
      <trkpt lat="37.48969" lon="27.62564">
        <ele>586.039</ele>
      </trkpt>
      <trkpt lat="37.48971" lon="27.62569">
        <ele>587.183</ele>
      </trkpt>
      <trkpt lat="37.48972" lon="27.62571">
        <ele>587.538</ele>
      </trkpt>
      <trkpt lat="37.48973" lon="27.62573">
        <ele>588.004</ele>
      </trkpt>
      <trkpt lat="37.48975" lon="27.62578">
        <ele>589.337</ele>
      </trkpt>
      <trkpt lat="37.48976" lon="27.62581">
        <ele>589.732</ele>
      </trkpt>
      <trkpt lat="37.48976" lon="27.62582">
        <ele>589.857</ele>
      </trkpt>
      <trkpt lat="37.48975" lon="27.62583">
        <ele>589.515</ele>
      </trkpt>
      <trkpt lat="37.48971" lon="27.62586">
        <ele>589.19</ele>
      </trkpt>
      <trkpt lat="37.4897" lon="27.62588">
        <ele>588.925</ele>
      </trkpt>
      <trkpt lat="37.4897" lon="27.62592">
        <ele>589.666</ele>
      </trkpt>
      <trkpt lat="37.48968" lon="27.62595">
        <ele>589.704</ele>
      </trkpt>
      <trkpt lat="37.48966" lon="27.62599">
        <ele>589.943</ele>
      </trkpt>
      <trkpt lat="37.48971" lon="27.626">
        <ele>591.413</ele>
      </trkpt>
      <trkpt lat="37.48971" lon="27.62599">
        <ele>591.354</ele>
      </trkpt>
      <trkpt lat="37.48967" lon="27.62601">
        <ele>590.765</ele>
      </trkpt>
      <trkpt lat="37.48967" lon="27.62603">
        <ele>591.072</ele>
      </trkpt>
      <trkpt lat="37.48961" lon="27.62612">
        <ele>590.701</ele>
      </trkpt>
      <trkpt lat="37.4896" lon="27.62613">
        <ele>590.579</ele>
      </trkpt>
      <trkpt lat="37.48951" lon="27.62621">
        <ele>589.306</ele>
      </trkpt>
      <trkpt lat="37.48951" lon="27.62621">
        <ele>589.309</ele>
      </trkpt>
      <trkpt lat="37.48951" lon="27.62622">
        <ele>589.297</ele>
      </trkpt>
      <trkpt lat="37.48948" lon="27.62623">
        <ele>588.579</ele>
      </trkpt>
      <trkpt lat="37.48946" lon="27.62622">
        <ele>587.961</ele>
      </trkpt>
      <trkpt lat="37.48945" lon="27.62622">
        <ele>587.701</ele>
      </trkpt>
      <trkpt lat="37.48941" lon="27.62623">
        <ele>586.406</ele>
      </trkpt>
      <trkpt lat="37.48932" lon="27.62631">
        <ele>584.397</ele>
      </trkpt>
      <trkpt lat="37.48932" lon="27.62632">
        <ele>584.436</ele>
      </trkpt>
      <trkpt lat="37.48931" lon="27.62634">
        <ele>584.323</ele>
      </trkpt>
      <trkpt lat="37.48929" lon="27.62638">
        <ele>584.317</ele>
      </trkpt>
      <trkpt lat="37.48928" lon="27.62639">
        <ele>583.898</ele>
      </trkpt>
      <trkpt lat="37.48924" lon="27.62636">
        <ele>582.164</ele>
      </trkpt>
      <trkpt lat="37.48924" lon="27.62636">
        <ele>582.081</ele>
      </trkpt>
      <trkpt lat="37.48923" lon="27.62637">
        <ele>581.979</ele>
      </trkpt>
      <trkpt lat="37.48918" lon="27.62651">
        <ele>583.591</ele>
      </trkpt>
      <trkpt lat="37.48917" lon="27.62651">
        <ele>583.113</ele>
      </trkpt>
      <trkpt lat="37.48917" lon="27.62652">
        <ele>583.208</ele>
      </trkpt>
      <trkpt lat="37.4891" lon="27.6266">
        <ele>583.448</ele>
      </trkpt>
      <trkpt lat="37.48905" lon="27.62666">
        <ele>582.951</ele>
      </trkpt>
      <trkpt lat="37.48903" lon="27.62669">
        <ele>583.062</ele>
      </trkpt>
      <trkpt lat="37.48902" lon="27.6267">
        <ele>583.176</ele>
      </trkpt>
      <trkpt lat="37.48898" lon="27.62671">
        <ele>582.282</ele>
      </trkpt>
      <trkpt lat="37.48898" lon="27.62672">
        <ele>582.241</ele>
      </trkpt>
      <trkpt lat="37.48892" lon="27.62677">
        <ele>582.019</ele>
      </trkpt>
      <trkpt lat="37.48885" lon="27.62684">
        <ele>581.73</ele>
      </trkpt>
      <trkpt lat="37.48879" lon="27.62684">
        <ele>580.182</ele>
      </trkpt>
      <trkpt lat="37.48879" lon="27.62684">
        <ele>580.036</ele>
      </trkpt>
      <trkpt lat="37.48876" lon="27.6269">
        <ele>580.868</ele>
      </trkpt>
      <trkpt lat="37.48874" lon="27.62691">
        <ele>580.603</ele>
      </trkpt>
      <trkpt lat="37.4887" lon="27.62693">
        <ele>580.045</ele>
      </trkpt>
      <trkpt lat="37.48862" lon="27.62705">
        <ele>580.976</ele>
      </trkpt>
      <trkpt lat="37.48864" lon="27.62705">
        <ele>581.393</ele>
      </trkpt>
      <trkpt lat="37.48864" lon="27.62705">
        <ele>581.603</ele>
      </trkpt>
      <trkpt lat="37.48863" lon="27.62705">
        <ele>581.18</ele>
      </trkpt>
      <trkpt lat="37.48862" lon="27.62709">
        <ele>581.808</ele>
      </trkpt>
      <trkpt lat="37.4886" lon="27.62713">
        <ele>582.384</ele>
      </trkpt>
      <trkpt lat="37.48858" lon="27.62715">
        <ele>582.051</ele>
      </trkpt>
      <trkpt lat="37.48855" lon="27.6273">
        <ele>583.941</ele>
      </trkpt>
      <trkpt lat="37.48859" lon="27.62747">
        <ele>587.906</ele>
      </trkpt>
      <trkpt lat="37.48859" lon="27.62747">
        <ele>587.91</ele>
      </trkpt>
      <trkpt lat="37.48857" lon="27.62764">
        <ele>589.959</ele>
      </trkpt>
      <trkpt lat="37.48856" lon="27.62768">
        <ele>590.323</ele>
      </trkpt>
      <trkpt lat="37.48856" lon="27.62774">
        <ele>591.274</ele>
      </trkpt>
      <trkpt lat="37.48851" lon="27.62788">
        <ele>592.53</ele>
      </trkpt>
      <trkpt lat="37.4885" lon="27.62792">
        <ele>592.996</ele>
      </trkpt>
      <trkpt lat="37.4885" lon="27.62792">
        <ele>593.131</ele>
      </trkpt>
      <trkpt lat="37.48848" lon="27.62793">
        <ele>592.939</ele>
      </trkpt>
      <trkpt lat="37.48842" lon="27.62802">
        <ele>593.477</ele>
      </trkpt>
      <trkpt lat="37.4884" lon="27.6281">
        <ele>594.87</ele>
      </trkpt>
      <trkpt lat="37.48839" lon="27.62809">
        <ele>594.45</ele>
      </trkpt>
      <trkpt lat="37.4884" lon="27.628">
        <ele>592.709</ele>
      </trkpt>
      <trkpt lat="37.48839" lon="27.62799">
        <ele>592.486</ele>
      </trkpt>
      <trkpt lat="37.48839" lon="27.62799">
        <ele>592.426</ele>
      </trkpt>
      <trkpt lat="37.48836" lon="27.62798">
        <ele>591.716</ele>
      </trkpt>
      <trkpt lat="37.48834" lon="27.62798">
        <ele>591.429</ele>
      </trkpt>
      <trkpt lat="37.48835" lon="27.62797">
        <ele>591.274</ele>
      </trkpt>
      <trkpt lat="37.48831" lon="27.62798">
        <ele>591.142</ele>
      </trkpt>
      <trkpt lat="37.48829" lon="27.62792">
        <ele>589.84</ele>
      </trkpt>
      <trkpt lat="37.48828" lon="27.62791">
        <ele>589.493</ele>
      </trkpt>
      <trkpt lat="37.48828" lon="27.62791">
        <ele>589.427</ele>
      </trkpt>
      <trkpt lat="37.48831" lon="27.62794">
        <ele>590.289</ele>
      </trkpt>
      <trkpt lat="37.4883" lon="27.62794">
        <ele>590.154</ele>
      </trkpt>
      <trkpt lat="37.48829" lon="27.62792">
        <ele>589.842</ele>
      </trkpt>
      <trkpt lat="37.48829" lon="27.62784">
        <ele>587.916</ele>
      </trkpt>
      <trkpt lat="37.48823" lon="27.62782">
        <ele>587.209</ele>
      </trkpt>
      <trkpt lat="37.48824" lon="27.62782">
        <ele>587.257</ele>
      </trkpt>
      <trkpt lat="37.48827" lon="27.62783">
        <ele>587.571</ele>
      </trkpt>
      <trkpt lat="37.48823" lon="27.62783">
        <ele>587.409</ele>
      </trkpt>
      <trkpt lat="37.48822" lon="27.62778">
        <ele>586.175</ele>
      </trkpt>
      <trkpt lat="37.48821" lon="27.62777">
        <ele>585.887</ele>
      </trkpt>
      <trkpt lat="37.48828" lon="27.62773">
        <ele>585.632</ele>
      </trkpt>
      <trkpt lat="37.48828" lon="27.62773">
        <ele>585.652</ele>
      </trkpt>
      <trkpt lat="37.48827" lon="27.62773">
        <ele>585.445</ele>
      </trkpt>
      <trkpt lat="37.48824" lon="27.62769">
        <ele>584.373</ele>
      </trkpt>
      <trkpt lat="37.48819" lon="27.62765">
        <ele>583.215</ele>
      </trkpt>
      <trkpt lat="37.48819" lon="27.62765">
        <ele>583.162</ele>
      </trkpt>
      <trkpt lat="37.48816" lon="27.62763">
        <ele>582.458</ele>
      </trkpt>
      <trkpt lat="37.48812" lon="27.62757">
        <ele>581.032</ele>
      </trkpt>
      <trkpt lat="37.48812" lon="27.62757">
        <ele>580.924</ele>
      </trkpt>
      <trkpt lat="37.48812" lon="27.62756">
        <ele>580.783</ele>
      </trkpt>
      <trkpt lat="37.48811" lon="27.62754">
        <ele>580.283</ele>
      </trkpt>
      <trkpt lat="37.48807" lon="27.62751">
        <ele>579.27</ele>
      </trkpt>
      <trkpt lat="37.48809" lon="27.62739">
        <ele>576.157</ele>
      </trkpt>
      <trkpt lat="37.48809" lon="27.62738">
        <ele>575.721</ele>
      </trkpt>
      <trkpt lat="37.48811" lon="27.62736">
        <ele>575.375</ele>
      </trkpt>
      <trkpt lat="37.48812" lon="27.62736">
        <ele>575.49</ele>
      </trkpt>
      <trkpt lat="37.48812" lon="27.62736">
        <ele>575.439</ele>
      </trkpt>
      <trkpt lat="37.48808" lon="27.62736">
        <ele>575.189</ele>
      </trkpt>
      <trkpt lat="37.48806" lon="27.62736">
        <ele>575.059</ele>
      </trkpt>
      <trkpt lat="37.48804" lon="27.62732">
        <ele>573.924</ele>
      </trkpt>
      <trkpt lat="37.48804" lon="27.62732">
        <ele>573.871</ele>
      </trkpt>
      <trkpt lat="37.48802" lon="27.6273">
        <ele>573.287</ele>
      </trkpt>
      <trkpt lat="37.488" lon="27.62714">
        <ele>569.104</ele>
      </trkpt>
      <trkpt lat="37.48799" lon="27.62713">
        <ele>569.023</ele>
      </trkpt>
      <trkpt lat="37.48799" lon="27.6271">
        <ele>568.205</ele>
      </trkpt>
      <trkpt lat="37.48796" lon="27.62705">
        <ele>567.127</ele>
      </trkpt>
      <trkpt lat="37.48792" lon="27.627">
        <ele>565.833</ele>
      </trkpt>
      <trkpt lat="37.48789" lon="27.62695">
        <ele>564.449</ele>
      </trkpt>
      <trkpt lat="37.48788" lon="27.62695">
        <ele>564.469</ele>
      </trkpt>
      <trkpt lat="37.48784" lon="27.62686">
        <ele>561.935</ele>
      </trkpt>
      <trkpt lat="37.48775" lon="27.62674">
        <ele>558.95</ele>
      </trkpt>
      <trkpt lat="37.48771" lon="27.6267">
        <ele>559.055</ele>
      </trkpt>
      <trkpt lat="37.48771" lon="27.6267">
        <ele>559.046</ele>
      </trkpt>
      <trkpt lat="37.4877" lon="27.62671">
        <ele>559.684</ele>
      </trkpt>
      <trkpt lat="37.48767" lon="27.62669">
        <ele>560.042</ele>
      </trkpt>
      <trkpt lat="37.48759" lon="27.62661">
        <ele>559.875</ele>
      </trkpt>
      <trkpt lat="37.48759" lon="27.62658">
        <ele>558.86</ele>
      </trkpt>
      <trkpt lat="37.48758" lon="27.62656">
        <ele>558.643</ele>
      </trkpt>
      <trkpt lat="37.48753" lon="27.62644">
        <ele>555.029</ele>
      </trkpt>
      <trkpt lat="37.48753" lon="27.62643">
        <ele>554.737</ele>
      </trkpt>
      <trkpt lat="37.48752" lon="27.62641">
        <ele>554.195</ele>
      </trkpt>
      <trkpt lat="37.48749" lon="27.62631">
        <ele>551.523</ele>
      </trkpt>
      <trkpt lat="37.48745" lon="27.62624">
        <ele>550.209</ele>
      </trkpt>
      <trkpt lat="37.48744" lon="27.6262">
        <ele>549.226</ele>
      </trkpt>
      <trkpt lat="37.48742" lon="27.6262">
        <ele>549.437</ele>
      </trkpt>
      <trkpt lat="37.48736" lon="27.6261">
        <ele>546.967</ele>
      </trkpt>
      <trkpt lat="37.48725" lon="27.62599">
        <ele>544.763</ele>
      </trkpt>
      <trkpt lat="37.48718" lon="27.62594">
        <ele>543.872</ele>
      </trkpt>
      <trkpt lat="37.48718" lon="27.62594">
        <ele>543.88</ele>
      </trkpt>
      <trkpt lat="37.48718" lon="27.62593">
        <ele>543.38</ele>
      </trkpt>
      <trkpt lat="37.48718" lon="27.62591">
        <ele>542.793</ele>
      </trkpt>
      <trkpt lat="37.48718" lon="27.62591">
        <ele>542.825</ele>
      </trkpt>
      <trkpt lat="37.48717" lon="27.62589">
        <ele>542.219</ele>
      </trkpt>
      <trkpt lat="37.48714" lon="27.6259">
        <ele>542.796</ele>
      </trkpt>
      <trkpt lat="37.48714" lon="27.6259">
        <ele>542.802</ele>
      </trkpt>
      <trkpt lat="37.48711" lon="27.62589">
        <ele>542.893</ele>
      </trkpt>
      <trkpt lat="37.4871" lon="27.62588">
        <ele>542.622</ele>
      </trkpt>
      <trkpt lat="37.48706" lon="27.6258">
        <ele>540.248</ele>
      </trkpt>
      <trkpt lat="37.48703" lon="27.62574">
        <ele>538.027</ele>
      </trkpt>
      <trkpt lat="37.487" lon="27.62569">
        <ele>536.504</ele>
      </trkpt>
      <trkpt lat="37.48697" lon="27.62566">
        <ele>535.313</ele>
      </trkpt>
      <trkpt lat="37.48696" lon="27.62565">
        <ele>535.18</ele>
      </trkpt>
      <trkpt lat="37.48694" lon="27.62562">
        <ele>534.01</ele>
      </trkpt>
      <trkpt lat="37.48693" lon="27.62561">
        <ele>533.369</ele>
      </trkpt>
      <trkpt lat="37.48691" lon="27.62559">
        <ele>533.118</ele>
      </trkpt>
      <trkpt lat="37.48686" lon="27.62555">
        <ele>532.099</ele>
      </trkpt>
      <trkpt lat="37.48681" lon="27.62549">
        <ele>531.161</ele>
      </trkpt>
      <trkpt lat="37.48676" lon="27.62545">
        <ele>530.592</ele>
      </trkpt>
      <trkpt lat="37.48673" lon="27.6254">
        <ele>529.346</ele>
      </trkpt>
      <trkpt lat="37.48667" lon="27.62533">
        <ele>527.727</ele>
      </trkpt>
      <trkpt lat="37.48666" lon="27.62533">
        <ele>527.778</ele>
      </trkpt>
      <trkpt lat="37.48659" lon="27.62528">
        <ele>527.471</ele>
      </trkpt>
      <trkpt lat="37.48656" lon="27.62524">
        <ele>526.892</ele>
      </trkpt>
      <trkpt lat="37.48655" lon="27.62521">
        <ele>526.164</ele>
      </trkpt>
      <trkpt lat="37.48655" lon="27.6252">
        <ele>526.074</ele>
      </trkpt>
      <trkpt lat="37.48653" lon="27.62516">
        <ele>525.15</ele>
      </trkpt>
      <trkpt lat="37.48649" lon="27.62507">
        <ele>522.6</ele>
      </trkpt>
      <trkpt lat="37.48647" lon="27.62498">
        <ele>520.443</ele>
      </trkpt>
      <trkpt lat="37.48647" lon="27.62498">
        <ele>520.407</ele>
      </trkpt>
      <trkpt lat="37.48647" lon="27.62496">
        <ele>520.256</ele>
      </trkpt>
      <trkpt lat="37.48647" lon="27.62496">
        <ele>520.181</ele>
      </trkpt>
      <trkpt lat="37.4864" lon="27.62489">
        <ele>519.43</ele>
      </trkpt>
      <trkpt lat="37.48636" lon="27.62488">
        <ele>519.495</ele>
      </trkpt>
      <trkpt lat="37.48632" lon="27.62488">
        <ele>519.638</ele>
      </trkpt>
      <trkpt lat="37.48629" lon="27.62485">
        <ele>519.414</ele>
      </trkpt>
      <trkpt lat="37.48626" lon="27.62484">
        <ele>519.301</ele>
      </trkpt>
      <trkpt lat="37.48625" lon="27.62483">
        <ele>519.192</ele>
      </trkpt>
      <trkpt lat="37.48624" lon="27.62482">
        <ele>518.954</ele>
      </trkpt>
      <trkpt lat="37.4862" lon="27.62478">
        <ele>518.321</ele>
      </trkpt>
      <trkpt lat="37.48619" lon="27.62474">
        <ele>517.483</ele>
      </trkpt>
      <trkpt lat="37.48612" lon="27.6247">
        <ele>516.654</ele>
      </trkpt>
      <trkpt lat="37.48608" lon="27.62469">
        <ele>516.753</ele>
      </trkpt>
      <trkpt lat="37.48605" lon="27.62468">
        <ele>516.629</ele>
      </trkpt>
      <trkpt lat="37.48601" lon="27.62464">
        <ele>516.132</ele>
      </trkpt>
      <trkpt lat="37.48601" lon="27.62463">
        <ele>516.107</ele>
      </trkpt>
      <trkpt lat="37.48601" lon="27.62464">
        <ele>516.235</ele>
      </trkpt>
      <trkpt lat="37.48599" lon="27.62462">
        <ele>515.823</ele>
      </trkpt>
      <trkpt lat="37.48597" lon="27.62461">
        <ele>515.769</ele>
      </trkpt>
      <trkpt lat="37.48592" lon="27.62459">
        <ele>515.44</ele>
      </trkpt>
      <trkpt lat="37.48591" lon="27.62459">
        <ele>515.448</ele>
      </trkpt>
      <trkpt lat="37.48583" lon="27.62457">
        <ele>515.079</ele>
      </trkpt>
      <trkpt lat="37.4858" lon="27.62454">
        <ele>514.016</ele>
      </trkpt>
      <trkpt lat="37.48574" lon="27.62449">
        <ele>512.338</ele>
      </trkpt>
      <trkpt lat="37.48573" lon="27.62448">
        <ele>512.125</ele>
      </trkpt>
      <trkpt lat="37.48564" lon="27.62449">
        <ele>511.518</ele>
      </trkpt>
      <trkpt lat="37.48564" lon="27.62449">
        <ele>511.636</ele>
      </trkpt>
      <trkpt lat="37.48557" lon="27.6245">
        <ele>511.258</ele>
      </trkpt>
      <trkpt lat="37.48556" lon="27.6245">
        <ele>511.219</ele>
      </trkpt>
      <trkpt lat="37.48554" lon="27.62451">
        <ele>510.744</ele>
      </trkpt>
      <trkpt lat="37.48553" lon="27.62451">
        <ele>510.643</ele>
      </trkpt>
      <trkpt lat="37.48553" lon="27.62449">
        <ele>510.154</ele>
      </trkpt>
      <trkpt lat="37.48548" lon="27.62451">
        <ele>508.959</ele>
      </trkpt>
      <trkpt lat="37.48549" lon="27.62452">
        <ele>509.367</ele>
      </trkpt>
      <trkpt lat="37.48549" lon="27.62452">
        <ele>509.321</ele>
      </trkpt>
      <trkpt lat="37.48546" lon="27.6245">
        <ele>508.228</ele>
      </trkpt>
      <trkpt lat="37.48545" lon="27.62443">
        <ele>506.386</ele>
      </trkpt>
      <trkpt lat="37.48554" lon="27.62431">
        <ele>506.583</ele>
      </trkpt>
      <trkpt lat="37.48554" lon="27.62431">
        <ele>506.456</ele>
      </trkpt>
      <trkpt lat="37.48552" lon="27.62431">
        <ele>506.103</ele>
      </trkpt>
      <trkpt lat="37.48548" lon="27.62435">
        <ele>505.938</ele>
      </trkpt>
      <trkpt lat="37.48543" lon="27.6244">
        <ele>505.082</ele>
      </trkpt>
      <trkpt lat="37.48535" lon="27.62447">
        <ele>503.845</ele>
      </trkpt>
      <trkpt lat="37.48535" lon="27.62446">
        <ele>503.55</ele>
      </trkpt>
      <trkpt lat="37.48535" lon="27.62446">
        <ele>503.567</ele>
      </trkpt>
      <trkpt lat="37.48534" lon="27.62445">
        <ele>503.334</ele>
      </trkpt>
      <trkpt lat="37.48534" lon="27.62446">
        <ele>503.418</ele>
      </trkpt>
      <trkpt lat="37.48534" lon="27.62446">
        <ele>503.428</ele>
      </trkpt>
      <trkpt lat="37.48534" lon="27.62446">
        <ele>503.302</ele>
      </trkpt>
      <trkpt lat="37.48534" lon="27.62446">
        <ele>503.303</ele>
      </trkpt>
      <trkpt lat="37.48534" lon="27.62446">
        <ele>503.204</ele>
      </trkpt>
      <trkpt lat="37.48534" lon="27.62446">
        <ele>503.204</ele>
      </trkpt>
      <trkpt lat="37.48534" lon="27.62446">
        <ele>503.196</ele>
      </trkpt>
      <trkpt lat="37.48534" lon="27.62446">
        <ele>503.19</ele>
      </trkpt>
      <trkpt lat="37.48534" lon="27.62446">
        <ele>503.186</ele>
      </trkpt>
      <trkpt lat="37.48534" lon="27.62446">
        <ele>503.319</ele>
      </trkpt>
      <trkpt lat="37.48534" lon="27.62446">
        <ele>503.317</ele>
      </trkpt>
      <trkpt lat="37.48534" lon="27.62446">
        <ele>503.31</ele>
      </trkpt>
      <trkpt lat="37.48534" lon="27.62446">
        <ele>503.299</ele>
      </trkpt>
      <trkpt lat="37.48534" lon="27.62446">
        <ele>503.342</ele>
      </trkpt>
      <trkpt lat="37.48534" lon="27.62447">
        <ele>503.422</ele>
      </trkpt>
      <trkpt lat="37.48531" lon="27.62451">
        <ele>503.38</ele>
      </trkpt>
      <trkpt lat="37.48525" lon="27.62458">
        <ele>503.39</ele>
      </trkpt>
      <trkpt lat="37.48522" lon="27.62462">
        <ele>503.421</ele>
      </trkpt>
      <trkpt lat="37.48507" lon="27.62477">
        <ele>502.951</ele>
      </trkpt>
      <trkpt lat="37.48496" lon="27.6249">
        <ele>503.467</ele>
      </trkpt>
      <trkpt lat="37.48484" lon="27.625">
        <ele>502.387</ele>
      </trkpt>
      <trkpt lat="37.48474" lon="27.62518">
        <ele>502.76</ele>
      </trkpt>
      <trkpt lat="37.48474" lon="27.62538">
        <ele>506.728</ele>
      </trkpt>
      <trkpt lat="37.48475" lon="27.62558">
        <ele>510.196</ele>
      </trkpt>
      <trkpt lat="37.4848" lon="27.62576">
        <ele>511.081</ele>
      </trkpt>
      <trkpt lat="37.48488" lon="27.62601">
        <ele>512.451</ele>
      </trkpt>
      <trkpt lat="37.48497" lon="27.62619">
        <ele>513.302</ele>
      </trkpt>
      <trkpt lat="37.485" lon="27.62635">
        <ele>513.313</ele>
      </trkpt>
      <trkpt lat="37.48502" lon="27.62652">
        <ele>512.412</ele>
      </trkpt>
      <trkpt lat="37.48507" lon="27.62671">
        <ele>513.036</ele>
      </trkpt>
      <trkpt lat="37.48515" lon="27.62702">
        <ele>515.236</ele>
      </trkpt>
      <trkpt lat="37.48523" lon="27.62722">
        <ele>516.573</ele>
      </trkpt>
      <trkpt lat="37.48527" lon="27.62736">
        <ele>517.894</ele>
      </trkpt>
      <trkpt lat="37.48532" lon="27.62753">
        <ele>519.035</ele>
      </trkpt>
      <trkpt lat="37.48539" lon="27.62763">
        <ele>520.596</ele>
      </trkpt>
      <trkpt lat="37.48548" lon="27.62773">
        <ele>522.531</ele>
      </trkpt>
      <trkpt lat="37.48557" lon="27.62793">
        <ele>523.843</ele>
      </trkpt>
      <trkpt lat="37.48565" lon="27.62811">
        <ele>525.889</ele>
      </trkpt>
      <trkpt lat="37.48577" lon="27.62818">
        <ele>529.723</ele>
      </trkpt>
      <trkpt lat="37.48584" lon="27.62837">
        <ele>531.968</ele>
      </trkpt>
      <trkpt lat="37.4859" lon="27.62861">
        <ele>532.948</ele>
      </trkpt>
      <trkpt lat="37.48604" lon="27.62883">
        <ele>536.415</ele>
      </trkpt>
      <trkpt lat="37.4861" lon="27.62901">
        <ele>536.605</ele>
      </trkpt>
      <trkpt lat="37.48617" lon="27.62924">
        <ele>537.013</ele>
      </trkpt>
      <trkpt lat="37.48625" lon="27.62939">
        <ele>539.288</ele>
      </trkpt>
      <trkpt lat="37.48629" lon="27.62956">
        <ele>539.894</ele>
      </trkpt>
      <trkpt lat="37.48633" lon="27.62979">
        <ele>540.005</ele>
      </trkpt>
      <trkpt lat="37.48644" lon="27.62994">
        <ele>542.056</ele>
      </trkpt>
      <trkpt lat="37.48655" lon="27.63012">
        <ele>542.474</ele>
      </trkpt>
      <trkpt lat="37.48663" lon="27.63025">
        <ele>542.583</ele>
      </trkpt>
      <trkpt lat="37.48667" lon="27.63047">
        <ele>541.049</ele>
      </trkpt>
      <trkpt lat="37.4867" lon="27.63049">
        <ele>541.493</ele>
      </trkpt>
      <trkpt lat="37.48673" lon="27.63051">
        <ele>541.783</ele>
      </trkpt>
      <trkpt lat="37.48693" lon="27.63045">
        <ele>546.906</ele>
      </trkpt>
      <trkpt lat="37.48691" lon="27.63047">
        <ele>546.238</ele>
      </trkpt>
      <trkpt lat="37.48692" lon="27.63057">
        <ele>545.43</ele>
      </trkpt>
      <trkpt lat="37.48692" lon="27.6306">
        <ele>545.052</ele>
      </trkpt>
      <trkpt lat="37.48692" lon="27.6306">
        <ele>545.052</ele>
      </trkpt>
      <trkpt lat="37.48688" lon="27.63068">
        <ele>543.574</ele>
      </trkpt>
      <trkpt lat="37.48683" lon="27.63076">
        <ele>541.443</ele>
      </trkpt>
      <trkpt lat="37.48676" lon="27.63083">
        <ele>538.726</ele>
      </trkpt>
      <trkpt lat="37.48675" lon="27.63088">
        <ele>537.769</ele>
      </trkpt>
      <trkpt lat="37.48669" lon="27.63095">
        <ele>535.213</ele>
      </trkpt>
      <trkpt lat="37.48659" lon="27.63099">
        <ele>531.313</ele>
      </trkpt>
      <trkpt lat="37.48654" lon="27.63094">
        <ele>530.346</ele>
      </trkpt>
      <trkpt lat="37.48641" lon="27.63101">
        <ele>525.752</ele>
      </trkpt>
      <trkpt lat="37.48627" lon="27.6311">
        <ele>520.687</ele>
      </trkpt>
      <trkpt lat="37.48624" lon="27.6312">
        <ele>519.823</ele>
      </trkpt>
      <trkpt lat="37.48617" lon="27.63128">
        <ele>518.08</ele>
      </trkpt>
      <trkpt lat="37.48605" lon="27.63126">
        <ele>515.081</ele>
      </trkpt>
      <trkpt lat="37.48589" lon="27.63115">
        <ele>510.062</ele>
      </trkpt>
      <trkpt lat="37.48588" lon="27.63114">
        <ele>509.731</ele>
      </trkpt>
      <trkpt lat="37.48583" lon="27.63111">
        <ele>507.995</ele>
      </trkpt>
      <trkpt lat="37.48578" lon="27.63109">
        <ele>506.736</ele>
      </trkpt>
      <trkpt lat="37.48576" lon="27.63107">
        <ele>505.98</ele>
      </trkpt>
      <trkpt lat="37.4857" lon="27.63096">
        <ele>502.934</ele>
      </trkpt>
      <trkpt lat="37.48568" lon="27.63093">
        <ele>501.935</ele>
      </trkpt>
      <trkpt lat="37.48562" lon="27.63082">
        <ele>499.046</ele>
      </trkpt>
      <trkpt lat="37.48557" lon="27.63074">
        <ele>497.9</ele>
      </trkpt>
      <trkpt lat="37.48549" lon="27.63066">
        <ele>497</ele>
      </trkpt>
      <trkpt lat="37.48548" lon="27.63067">
        <ele>496.986</ele>
      </trkpt>
      <trkpt lat="37.48548" lon="27.63067">
        <ele>496.974</ele>
      </trkpt>
      <trkpt lat="37.48548" lon="27.63065">
        <ele>496.894</ele>
      </trkpt>
      <trkpt lat="37.48547" lon="27.63063">
        <ele>496.774</ele>
      </trkpt>
      <trkpt lat="37.48546" lon="27.63063">
        <ele>496.649</ele>
      </trkpt>
      <trkpt lat="37.48545" lon="27.63062">
        <ele>496.547</ele>
      </trkpt>
      <trkpt lat="37.48544" lon="27.63061">
        <ele>496.429</ele>
      </trkpt>
      <trkpt lat="37.48543" lon="27.6306">
        <ele>496.314</ele>
      </trkpt>
      <trkpt lat="37.48541" lon="27.6306">
        <ele>496.173</ele>
      </trkpt>
      <trkpt lat="37.48539" lon="27.63059">
        <ele>496.038</ele>
      </trkpt>
      <trkpt lat="37.48538" lon="27.63058">
        <ele>495.861</ele>
      </trkpt>
      <trkpt lat="37.48536" lon="27.63058">
        <ele>495.749</ele>
      </trkpt>
      <trkpt lat="37.48535" lon="27.63059">
        <ele>495.751</ele>
      </trkpt>
      <trkpt lat="37.48533" lon="27.63061">
        <ele>495.752</ele>
      </trkpt>
      <trkpt lat="37.48532" lon="27.63062">
        <ele>495.745</ele>
      </trkpt>
      <trkpt lat="37.4853" lon="27.63063">
        <ele>495.679</ele>
      </trkpt>
      <trkpt lat="37.48529" lon="27.63064">
        <ele>495.686</ele>
      </trkpt>
      <trkpt lat="37.48529" lon="27.63065">
        <ele>495.71</ele>
      </trkpt>
      <trkpt lat="37.48527" lon="27.63065">
        <ele>495.652</ele>
      </trkpt>
      <trkpt lat="37.48525" lon="27.63068">
        <ele>495.6</ele>
      </trkpt>
      <trkpt lat="37.48525" lon="27.6307">
        <ele>495.69</ele>
      </trkpt>
      <trkpt lat="37.48517" lon="27.63075">
        <ele>495.099</ele>
      </trkpt>
      <trkpt lat="37.48515" lon="27.6308">
        <ele>495.009</ele>
      </trkpt>
      <trkpt lat="37.48509" lon="27.6309">
        <ele>494.855</ele>
      </trkpt>
      <trkpt lat="37.48499" lon="27.63111">
        <ele>494.814</ele>
      </trkpt>
      <trkpt lat="37.48492" lon="27.63126">
        <ele>494.86</ele>
      </trkpt>
      <trkpt lat="37.48481" lon="27.6313">
        <ele>492.905</ele>
      </trkpt>
      <trkpt lat="37.48469" lon="27.63125">
        <ele>489.848</ele>
      </trkpt>
      <trkpt lat="37.48457" lon="27.63129">
        <ele>487.544</ele>
      </trkpt>
      <trkpt lat="37.48442" lon="27.63138">
        <ele>484.316</ele>
      </trkpt>
      <trkpt lat="37.4843" lon="27.63151">
        <ele>481.18</ele>
      </trkpt>
      <trkpt lat="37.48428" lon="27.63167">
        <ele>480.307</ele>
      </trkpt>
      <trkpt lat="37.48425" lon="27.63192">
        <ele>478.582</ele>
      </trkpt>
      <trkpt lat="37.48427" lon="27.63209">
        <ele>477.965</ele>
      </trkpt>
      <trkpt lat="37.48437" lon="27.63234">
        <ele>479.339</ele>
      </trkpt>
      <trkpt lat="37.48447" lon="27.63254">
        <ele>481.565</ele>
      </trkpt>
      <trkpt lat="37.48456" lon="27.63277">
        <ele>484.646</ele>
      </trkpt>
      <trkpt lat="37.48467" lon="27.633">
        <ele>488.954</ele>
      </trkpt>
      <trkpt lat="37.48476" lon="27.63323">
        <ele>492.769</ele>
      </trkpt>
      <trkpt lat="37.48479" lon="27.63346">
        <ele>494.898</ele>
      </trkpt>
      <trkpt lat="37.48486" lon="27.63377">
        <ele>496.996</ele>
      </trkpt>
      <trkpt lat="37.48494" lon="27.63392">
        <ele>497.287</ele>
      </trkpt>
      <trkpt lat="37.48511" lon="27.63413">
        <ele>497.407</ele>
      </trkpt>
      <trkpt lat="37.48524" lon="27.63428">
        <ele>496.777</ele>
      </trkpt>
      <trkpt lat="37.48536" lon="27.63447">
        <ele>496.845</ele>
      </trkpt>
      <trkpt lat="37.48549" lon="27.6348">
        <ele>497.101</ele>
      </trkpt>
      <trkpt lat="37.48553" lon="27.63504">
        <ele>496.04</ele>
      </trkpt>
      <trkpt lat="37.48552" lon="27.63503">
        <ele>495.851</ele>
      </trkpt>
      <trkpt lat="37.48559" lon="27.63524">
        <ele>499.213</ele>
      </trkpt>
      <trkpt lat="37.48573" lon="27.63549">
        <ele>504.705</ele>
      </trkpt>
      <trkpt lat="37.48586" lon="27.63568">
        <ele>507.328</ele>
      </trkpt>
      <trkpt lat="37.48594" lon="27.63586">
        <ele>506.306</ele>
      </trkpt>
      <trkpt lat="37.48601" lon="27.63601">
        <ele>504.081</ele>
      </trkpt>
      <trkpt lat="37.48609" lon="27.63625">
        <ele>499.725</ele>
      </trkpt>
      <trkpt lat="37.4862" lon="27.63643">
        <ele>496.768</ele>
      </trkpt>
      <trkpt lat="37.48632" lon="27.63654">
        <ele>496.099</ele>
      </trkpt>
      <trkpt lat="37.4865" lon="27.63663">
        <ele>497.753</ele>
      </trkpt>
      <trkpt lat="37.4866" lon="27.63675">
        <ele>497.823</ele>
      </trkpt>
      <trkpt lat="37.48665" lon="27.6368">
        <ele>497.805</ele>
      </trkpt>
      <trkpt lat="37.48676" lon="27.63694">
        <ele>495.852</ele>
      </trkpt>
      <trkpt lat="37.48686" lon="27.63704">
        <ele>494.189</ele>
      </trkpt>
      <trkpt lat="37.48693" lon="27.63715">
        <ele>492.354</ele>
      </trkpt>
      <trkpt lat="37.48702" lon="27.63731">
        <ele>489.934</ele>
      </trkpt>
      <trkpt lat="37.48709" lon="27.63746">
        <ele>487.874</ele>
      </trkpt>
      <trkpt lat="37.48712" lon="27.63758">
        <ele>486.412</ele>
      </trkpt>
      <trkpt lat="37.48718" lon="27.6377">
        <ele>485</ele>
      </trkpt>
      <trkpt lat="37.48725" lon="27.63772">
        <ele>485.616</ele>
      </trkpt>
      <trkpt lat="37.48737" lon="27.63777">
        <ele>486.314</ele>
      </trkpt>
      <trkpt lat="37.48745" lon="27.63783">
        <ele>486.237</ele>
      </trkpt>
      <trkpt lat="37.48748" lon="27.63791">
        <ele>484.933</ele>
      </trkpt>
      <trkpt lat="37.48748" lon="27.63796">
        <ele>483.916</ele>
      </trkpt>
      <trkpt lat="37.48747" lon="27.63803">
        <ele>482.123</ele>
      </trkpt>
      <trkpt lat="37.48748" lon="27.63817">
        <ele>481.229</ele>
      </trkpt>
      <trkpt lat="37.48752" lon="27.63819">
        <ele>481.799</ele>
      </trkpt>
      <trkpt lat="37.48758" lon="27.63827">
        <ele>482.552</ele>
      </trkpt>
      <trkpt lat="37.48765" lon="27.63835">
        <ele>482.947</ele>
      </trkpt>
      <trkpt lat="37.48766" lon="27.63837">
        <ele>482.592</ele>
      </trkpt>
      <trkpt lat="37.48759" lon="27.63845">
        <ele>480.293</ele>
      </trkpt>
      <trkpt lat="37.48758" lon="27.63845">
        <ele>480.233</ele>
      </trkpt>
      <trkpt lat="37.4875" lon="27.63852">
        <ele>478.272</ele>
      </trkpt>
      <trkpt lat="37.48752" lon="27.63859">
        <ele>477.471</ele>
      </trkpt>
      <trkpt lat="37.48756" lon="27.63861">
        <ele>477.48</ele>
      </trkpt>
      <trkpt lat="37.48763" lon="27.63865">
        <ele>476.93</ele>
      </trkpt>
      <trkpt lat="37.48764" lon="27.63863">
        <ele>477.676</ele>
      </trkpt>
      <trkpt lat="37.48767" lon="27.6386">
        <ele>478.373</ele>
      </trkpt>
      <trkpt lat="37.48767" lon="27.63866">
        <ele>477.116</ele>
      </trkpt>
      <trkpt lat="37.48775" lon="27.63862">
        <ele>478.657</ele>
      </trkpt>
      <trkpt lat="37.48781" lon="27.63863">
        <ele>478.713</ele>
      </trkpt>
      <trkpt lat="37.48795" lon="27.63872">
        <ele>478.257</ele>
      </trkpt>
      <trkpt lat="37.488" lon="27.63872">
        <ele>478.699</ele>
      </trkpt>
      <trkpt lat="37.48805" lon="27.63877">
        <ele>478.726</ele>
      </trkpt>
      <trkpt lat="37.48804" lon="27.63886">
        <ele>477.28</ele>
      </trkpt>
      <trkpt lat="37.48798" lon="27.63896">
        <ele>475.022</ele>
      </trkpt>
      <trkpt lat="37.48797" lon="27.63909">
        <ele>473.822</ele>
      </trkpt>
      <trkpt lat="37.48801" lon="27.63925">
        <ele>474.063</ele>
      </trkpt>
      <trkpt lat="37.48801" lon="27.63945">
        <ele>474.404</ele>
      </trkpt>
      <trkpt lat="37.48803" lon="27.63957">
        <ele>474.903</ele>
      </trkpt>
      <trkpt lat="37.48802" lon="27.63973">
        <ele>474.576</ele>
      </trkpt>
      <trkpt lat="37.48803" lon="27.63985">
        <ele>475.068</ele>
      </trkpt>
      <trkpt lat="37.48805" lon="27.64004">
        <ele>476.136</ele>
      </trkpt>
      <trkpt lat="37.48806" lon="27.64007">
        <ele>476.697</ele>
      </trkpt>
      <trkpt lat="37.48812" lon="27.64022">
        <ele>480.13</ele>
      </trkpt>
      <trkpt lat="37.48815" lon="27.64031">
        <ele>481.832</ele>
      </trkpt>
      <trkpt lat="37.48816" lon="27.64032">
        <ele>482.263</ele>
      </trkpt>
      <trkpt lat="37.4882" lon="27.6404">
        <ele>484.388</ele>
      </trkpt>
      <trkpt lat="37.48816" lon="27.64047">
        <ele>483.86</ele>
      </trkpt>
      <trkpt lat="37.4881" lon="27.64055">
        <ele>483.057</ele>
      </trkpt>
      <trkpt lat="37.48809" lon="27.64054">
        <ele>482.641</ele>
      </trkpt>
      <trkpt lat="37.48806" lon="27.64056">
        <ele>482.304</ele>
      </trkpt>
      <trkpt lat="37.48796" lon="27.64053">
        <ele>478.802</ele>
      </trkpt>
      <trkpt lat="37.48775" lon="27.64057">
        <ele>473.452</ele>
      </trkpt>
      <trkpt lat="37.48758" lon="27.64074">
        <ele>470.877</ele>
      </trkpt>
      <trkpt lat="37.48746" lon="27.64085">
        <ele>468.523</ele>
      </trkpt>
      <trkpt lat="37.48729" lon="27.64106">
        <ele>466.741</ele>
      </trkpt>
      <trkpt lat="37.4872" lon="27.64132">
        <ele>467.899</ele>
      </trkpt>
      <trkpt lat="37.4872" lon="27.64147">
        <ele>470.375</ele>
      </trkpt>
      <trkpt lat="37.48715" lon="27.64168">
        <ele>470.836</ele>
      </trkpt>
      <trkpt lat="37.48714" lon="27.64172">
        <ele>470.6</ele>
      </trkpt>
      <trkpt lat="37.4871" lon="27.64203">
        <ele>468.193</ele>
      </trkpt>
      <trkpt lat="37.48703" lon="27.64232">
        <ele>463.977</ele>
      </trkpt>
      <trkpt lat="37.48693" lon="27.64259">
        <ele>459.617</ele>
      </trkpt>
      <trkpt lat="37.48686" lon="27.64276">
        <ele>457.865</ele>
      </trkpt>
      <trkpt lat="37.48679" lon="27.643">
        <ele>454.09</ele>
      </trkpt>
      <trkpt lat="37.48667" lon="27.64326">
        <ele>447.652</ele>
      </trkpt>
      <trkpt lat="37.48662" lon="27.6435">
        <ele>441.728</ele>
      </trkpt>
      <trkpt lat="37.48665" lon="27.64374">
        <ele>437.908</ele>
      </trkpt>
      <trkpt lat="37.48678" lon="27.644">
        <ele>435.888</ele>
      </trkpt>
      <trkpt lat="37.48687" lon="27.64414">
        <ele>434.893</ele>
      </trkpt>
      <trkpt lat="37.48698" lon="27.64426">
        <ele>436.447</ele>
      </trkpt>
      <trkpt lat="37.48718" lon="27.64446">
        <ele>439.478</ele>
      </trkpt>
      <trkpt lat="37.48728" lon="27.64461">
        <ele>440.451</ele>
      </trkpt>
      <trkpt lat="37.48736" lon="27.64476">
        <ele>439.991</ele>
      </trkpt>
      <trkpt lat="37.48747" lon="27.645">
        <ele>437.017</ele>
      </trkpt>
      <trkpt lat="37.48747" lon="27.64502">
        <ele>436.821</ele>
      </trkpt>
      <trkpt lat="37.48747" lon="27.64505">
        <ele>436.166</ele>
      </trkpt>
      <trkpt lat="37.48738" lon="27.64519">
        <ele>431.994</ele>
      </trkpt>
      <trkpt lat="37.48723" lon="27.64518">
        <ele>428.794</ele>
      </trkpt>
      <trkpt lat="37.48712" lon="27.64514">
        <ele>428.62</ele>
      </trkpt>
      <trkpt lat="37.48706" lon="27.64511">
        <ele>428.376</ele>
      </trkpt>
      <trkpt lat="37.4868" lon="27.645">
        <ele>425.98</ele>
      </trkpt>
      <trkpt lat="37.48658" lon="27.64492">
        <ele>425.613</ele>
      </trkpt>
      <trkpt lat="37.48632" lon="27.64482">
        <ele>426.49</ele>
      </trkpt>
      <trkpt lat="37.48617" lon="27.64468">
        <ele>426.286</ele>
      </trkpt>
      <trkpt lat="37.48605" lon="27.64448">
        <ele>423.212</ele>
      </trkpt>
      <trkpt lat="37.48605" lon="27.6445">
        <ele>423.78</ele>
      </trkpt>
      <trkpt lat="37.48602" lon="27.64441">
        <ele>422.13</ele>
      </trkpt>
      <trkpt lat="37.48591" lon="27.64428">
        <ele>419.612</ele>
      </trkpt>
      <trkpt lat="37.4859" lon="27.64428">
        <ele>419.367</ele>
      </trkpt>
      <trkpt lat="37.48583" lon="27.64428">
        <ele>419.231</ele>
      </trkpt>
      <trkpt lat="37.48573" lon="27.64425">
        <ele>419.952</ele>
      </trkpt>
      <trkpt lat="37.48555" lon="27.64418">
        <ele>420.554</ele>
      </trkpt>
      <trkpt lat="37.48538" lon="27.64411">
        <ele>424.336</ele>
      </trkpt>
      <trkpt lat="37.48532" lon="27.64412">
        <ele>426.792</ele>
      </trkpt>
      <trkpt lat="37.4853" lon="27.64411">
        <ele>427.066</ele>
      </trkpt>
      <trkpt lat="37.48516" lon="27.64402">
        <ele>428.588</ele>
      </trkpt>
      <trkpt lat="37.48501" lon="27.64386">
        <ele>427.425</ele>
      </trkpt>
      <trkpt lat="37.48489" lon="27.64379">
        <ele>427.531</ele>
      </trkpt>
      <trkpt lat="37.48477" lon="27.64375">
        <ele>429.293</ele>
      </trkpt>
      <trkpt lat="37.4846" lon="27.6437">
        <ele>430.443</ele>
      </trkpt>
      <trkpt lat="37.48446" lon="27.64372">
        <ele>433.121</ele>
      </trkpt>
      <trkpt lat="37.48443" lon="27.64371">
        <ele>433.161</ele>
      </trkpt>
      <trkpt lat="37.4844" lon="27.6437">
        <ele>432.902</ele>
      </trkpt>
      <trkpt lat="37.48418" lon="27.6437">
        <ele>433.94</ele>
      </trkpt>
      <trkpt lat="37.48407" lon="27.64374">
        <ele>434.719</ele>
      </trkpt>
      <trkpt lat="37.48395" lon="27.64379">
        <ele>436.032</ele>
      </trkpt>
      <trkpt lat="37.48391" lon="27.64382">
        <ele>436.981</ele>
      </trkpt>
      <trkpt lat="37.48381" lon="27.64387">
        <ele>436.955</ele>
      </trkpt>
      <trkpt lat="37.48374" lon="27.64395">
        <ele>437.78</ele>
      </trkpt>
      <trkpt lat="37.48364" lon="27.6441">
        <ele>439.144</ele>
      </trkpt>
      <trkpt lat="37.48357" lon="27.64424">
        <ele>440.535</ele>
      </trkpt>
      <trkpt lat="37.48348" lon="27.64436">
        <ele>441.173</ele>
      </trkpt>
      <trkpt lat="37.48339" lon="27.64454">
        <ele>442.677</ele>
      </trkpt>
      <trkpt lat="37.48339" lon="27.64458">
        <ele>443.182</ele>
      </trkpt>
      <trkpt lat="37.48339" lon="27.64474">
        <ele>446.907</ele>
      </trkpt>
      <trkpt lat="37.4834" lon="27.64479">
        <ele>448.004</ele>
      </trkpt>
      <trkpt lat="37.48342" lon="27.64495">
        <ele>451.329</ele>
      </trkpt>
      <trkpt lat="37.4834" lon="27.64514">
        <ele>454.922</ele>
      </trkpt>
      <trkpt lat="37.48339" lon="27.64518">
        <ele>455.409</ele>
      </trkpt>
      <trkpt lat="37.48329" lon="27.64525">
        <ele>455.851</ele>
      </trkpt>
      <trkpt lat="37.48321" lon="27.64536">
        <ele>457.653</ele>
      </trkpt>
      <trkpt lat="37.48314" lon="27.64539">
        <ele>457.702</ele>
      </trkpt>
      <trkpt lat="37.483" lon="27.64538">
        <ele>456.042</ele>
      </trkpt>
      <trkpt lat="37.48295" lon="27.64538">
        <ele>455.297</ele>
      </trkpt>
      <trkpt lat="37.48286" lon="27.64541">
        <ele>455.021</ele>
      </trkpt>
      <trkpt lat="37.48272" lon="27.64537">
        <ele>452.191</ele>
      </trkpt>
      <trkpt lat="37.48262" lon="27.64532">
        <ele>449.84</ele>
      </trkpt>
      <trkpt lat="37.48263" lon="27.64535">
        <ele>450.486</ele>
      </trkpt>
      <trkpt lat="37.48255" lon="27.64532">
        <ele>449.22</ele>
      </trkpt>
      <trkpt lat="37.48245" lon="27.64539">
        <ele>448.429</ele>
      </trkpt>
      <trkpt lat="37.48245" lon="27.64539">
        <ele>448.415</ele>
      </trkpt>
      <trkpt lat="37.48243" lon="27.64544">
        <ele>448.573</ele>
      </trkpt>
      <trkpt lat="37.48242" lon="27.64558">
        <ele>450.216</ele>
      </trkpt>
      <trkpt lat="37.48238" lon="27.64574">
        <ele>452.028</ele>
      </trkpt>
      <trkpt lat="37.48237" lon="27.64585">
        <ele>453.521</ele>
      </trkpt>
      <trkpt lat="37.48236" lon="27.64586">
        <ele>453.455</ele>
      </trkpt>
      <trkpt lat="37.48228" lon="27.64597">
        <ele>452.724</ele>
      </trkpt>
      <trkpt lat="37.48224" lon="27.64611">
        <ele>453.719</ele>
      </trkpt>
      <trkpt lat="37.48227" lon="27.64622">
        <ele>457.194</ele>
      </trkpt>
      <trkpt lat="37.48225" lon="27.64624">
        <ele>456.542</ele>
      </trkpt>
      <trkpt lat="37.48216" lon="27.64639">
        <ele>456.276</ele>
      </trkpt>
      <trkpt lat="37.48207" lon="27.64644">
        <ele>456.079</ele>
      </trkpt>
      <trkpt lat="37.48196" lon="27.64641">
        <ele>452.242</ele>
      </trkpt>
      <trkpt lat="37.48195" lon="27.64642">
        <ele>452.345</ele>
      </trkpt>
      <trkpt lat="37.48188" lon="27.64651">
        <ele>454.142</ele>
      </trkpt>
      <trkpt lat="37.48178" lon="27.6466">
        <ele>455.27</ele>
      </trkpt>
      <trkpt lat="37.48172" lon="27.64657">
        <ele>453.399</ele>
      </trkpt>
      <trkpt lat="37.48164" lon="27.64666">
        <ele>454.354</ele>
      </trkpt>
      <trkpt lat="37.48161" lon="27.64667">
        <ele>454.139</ele>
      </trkpt>
      <trkpt lat="37.48155" lon="27.64674">
        <ele>455.807</ele>
      </trkpt>
      <trkpt lat="37.48151" lon="27.64676">
        <ele>455.839</ele>
      </trkpt>
      <trkpt lat="37.48149" lon="27.64677">
        <ele>455.876</ele>
      </trkpt>
      <trkpt lat="37.48138" lon="27.64676">
        <ele>454.183</ele>
      </trkpt>
      <trkpt lat="37.48134" lon="27.64682">
        <ele>455.864</ele>
      </trkpt>
      <trkpt lat="37.48128" lon="27.64687">
        <ele>456.908</ele>
      </trkpt>
      <trkpt lat="37.48125" lon="27.6469">
        <ele>457.527</ele>
      </trkpt>
      <trkpt lat="37.48122" lon="27.64696">
        <ele>459.405</ele>
      </trkpt>
      <trkpt lat="37.48124" lon="27.647">
        <ele>461.029</ele>
      </trkpt>
      <trkpt lat="37.48121" lon="27.64707">
        <ele>463.699</ele>
      </trkpt>
      <trkpt lat="37.48115" lon="27.64708">
        <ele>463.829</ele>
      </trkpt>
      <trkpt lat="37.48117" lon="27.64713">
        <ele>466.12</ele>
      </trkpt>
      <trkpt lat="37.48114" lon="27.64716">
        <ele>467.5</ele>
      </trkpt>
      <trkpt lat="37.48114" lon="27.64718">
        <ele>468.018</ele>
      </trkpt>
      <trkpt lat="37.4812" lon="27.64721">
        <ele>470.069</ele>
      </trkpt>
      <trkpt lat="37.48119" lon="27.64726">
        <ele>471.985</ele>
      </trkpt>
      <trkpt lat="37.48122" lon="27.64727">
        <ele>472.565</ele>
      </trkpt>
      <trkpt lat="37.48124" lon="27.64729">
        <ele>473.483</ele>
      </trkpt>
      <trkpt lat="37.48117" lon="27.64735">
        <ele>474.989</ele>
      </trkpt>
      <trkpt lat="37.48112" lon="27.64738">
        <ele>475.639</ele>
      </trkpt>
      <trkpt lat="37.48113" lon="27.64743">
        <ele>477.666</ele>
      </trkpt>
      <trkpt lat="37.48117" lon="27.64743">
        <ele>477.794</ele>
      </trkpt>
      <trkpt lat="37.48127" lon="27.64742">
        <ele>478.322</ele>
      </trkpt>
      <trkpt lat="37.48125" lon="27.64745">
        <ele>479.202</ele>
      </trkpt>
      <trkpt lat="37.48108" lon="27.64754">
        <ele>481.366</ele>
      </trkpt>
      <trkpt lat="37.4811" lon="27.6476">
        <ele>484.233</ele>
      </trkpt>
      <trkpt lat="37.48106" lon="27.6476">
        <ele>484.137</ele>
      </trkpt>
      <trkpt lat="37.48099" lon="27.64769">
        <ele>487.108</ele>
      </trkpt>
      <trkpt lat="37.48101" lon="27.64771">
        <ele>488.014</ele>
      </trkpt>
      <trkpt lat="37.48104" lon="27.64769">
        <ele>487.429</ele>
      </trkpt>
      <trkpt lat="37.48107" lon="27.64773">
        <ele>489.614</ele>
      </trkpt>
      <trkpt lat="37.481" lon="27.64784">
        <ele>492.496</ele>
      </trkpt>
      <trkpt lat="37.481" lon="27.64791">
        <ele>494.039</ele>
      </trkpt>
      <trkpt lat="37.48101" lon="27.64798">
        <ele>495.842</ele>
      </trkpt>
      <trkpt lat="37.481" lon="27.64799">
        <ele>496.123</ele>
      </trkpt>
      <trkpt lat="37.48102" lon="27.64804">
        <ele>497.627</ele>
      </trkpt>
      <trkpt lat="37.48104" lon="27.64807">
        <ele>498.628</ele>
      </trkpt>
      <trkpt lat="37.48103" lon="27.64815">
        <ele>500.788</ele>
      </trkpt>
      <trkpt lat="37.48102" lon="27.64816">
        <ele>501.05</ele>
      </trkpt>
      <trkpt lat="37.48098" lon="27.64814">
        <ele>499.773</ele>
      </trkpt>
      <trkpt lat="37.48101" lon="27.64818">
        <ele>501.34</ele>
      </trkpt>
      <trkpt lat="37.48103" lon="27.64827">
        <ele>504.253</ele>
      </trkpt>
      <trkpt lat="37.48101" lon="27.64829">
        <ele>504.587</ele>
      </trkpt>
      <trkpt lat="37.48093" lon="27.64837">
        <ele>505.271</ele>
      </trkpt>
      <trkpt lat="37.48088" lon="27.64845">
        <ele>506.784</ele>
      </trkpt>
      <trkpt lat="37.48083" lon="27.64849">
        <ele>506.971</ele>
      </trkpt>
      <trkpt lat="37.48076" lon="27.6486">
        <ele>508.872</ele>
      </trkpt>
      <trkpt lat="37.4807" lon="27.6487">
        <ele>510.186</ele>
      </trkpt>
      <trkpt lat="37.48058" lon="27.64876">
        <ele>509.667</ele>
      </trkpt>
      <trkpt lat="37.48056" lon="27.64875">
        <ele>509.141</ele>
      </trkpt>
      <trkpt lat="37.48046" lon="27.64873">
        <ele>509.586</ele>
      </trkpt>
      <trkpt lat="37.48041" lon="27.64863">
        <ele>507.052</ele>
      </trkpt>
      <trkpt lat="37.4804" lon="27.6486">
        <ele>506.205</ele>
      </trkpt>
      <trkpt lat="37.48031" lon="27.64854">
        <ele>504.805</ele>
      </trkpt>
      <trkpt lat="37.48025" lon="27.64847">
        <ele>502.252</ele>
      </trkpt>
      <trkpt lat="37.48018" lon="27.64839">
        <ele>499.823</ele>
      </trkpt>
      <trkpt lat="37.48011" lon="27.64837">
        <ele>500.276</ele>
      </trkpt>
      <trkpt lat="37.47998" lon="27.64836">
        <ele>501.859</ele>
      </trkpt>
      <trkpt lat="37.47994" lon="27.64836">
        <ele>501.75</ele>
      </trkpt>
      <trkpt lat="37.47986" lon="27.64834">
        <ele>501.175</ele>
      </trkpt>
      <trkpt lat="37.47983" lon="27.64835">
        <ele>501.43</ele>
      </trkpt>
      <trkpt lat="37.47971" lon="27.64839">
        <ele>502.522</ele>
      </trkpt>
      <trkpt lat="37.47965" lon="27.64839">
        <ele>502.034</ele>
      </trkpt>
      <trkpt lat="37.47956" lon="27.64841">
        <ele>501.79</ele>
      </trkpt>
      <trkpt lat="37.47953" lon="27.64845">
        <ele>502.737</ele>
      </trkpt>
      <trkpt lat="37.47945" lon="27.64845">
        <ele>502.015</ele>
      </trkpt>
      <trkpt lat="37.47934" lon="27.64853">
        <ele>502.554</ele>
      </trkpt>
      <trkpt lat="37.47923" lon="27.64864">
        <ele>504.116</ele>
      </trkpt>
      <trkpt lat="37.47912" lon="27.64868">
        <ele>505.089</ele>
      </trkpt>
      <trkpt lat="37.47909" lon="27.64869">
        <ele>505.664</ele>
      </trkpt>
      <trkpt lat="37.47905" lon="27.64867">
        <ele>505.473</ele>
      </trkpt>
      <trkpt lat="37.479" lon="27.64864">
        <ele>504.809</ele>
      </trkpt>
      <trkpt lat="37.47894" lon="27.64864">
        <ele>505.287</ele>
      </trkpt>
      <trkpt lat="37.47892" lon="27.6486">
        <ele>504.332</ele>
      </trkpt>
      <trkpt lat="37.47884" lon="27.64853">
        <ele>504.006</ele>
      </trkpt>
      <trkpt lat="37.47882" lon="27.64853">
        <ele>504.456</ele>
      </trkpt>
      <trkpt lat="37.47875" lon="27.64856">
        <ele>507.041</ele>
      </trkpt>
      <trkpt lat="37.47876" lon="27.6486">
        <ele>508.115</ele>
      </trkpt>
      <trkpt lat="37.47875" lon="27.64861">
        <ele>508.455</ele>
      </trkpt>
      <trkpt lat="37.47874" lon="27.64868">
        <ele>511.327</ele>
      </trkpt>
      <trkpt lat="37.47872" lon="27.6487">
        <ele>512.579</ele>
      </trkpt>
      <trkpt lat="37.47862" lon="27.64875">
        <ele>517.243</ele>
      </trkpt>
      <trkpt lat="37.47863" lon="27.64878">
        <ele>518.186</ele>
      </trkpt>
      <trkpt lat="37.47867" lon="27.64887">
        <ele>520.364</ele>
      </trkpt>
      <trkpt lat="37.47861" lon="27.64884">
        <ele>521.412</ele>
      </trkpt>
      <trkpt lat="37.47856" lon="27.64883">
        <ele>522.468</ele>
      </trkpt>
      <trkpt lat="37.47843" lon="27.64879">
        <ele>524.928</ele>
      </trkpt>
      <trkpt lat="37.47843" lon="27.64878">
        <ele>524.86</ele>
      </trkpt>
      <trkpt lat="37.47839" lon="27.64876">
        <ele>524.989</ele>
      </trkpt>
      <trkpt lat="37.47836" lon="27.64874">
        <ele>525.409</ele>
      </trkpt>
      <trkpt lat="37.47827" lon="27.64873">
        <ele>527.299</ele>
      </trkpt>
      <trkpt lat="37.47823" lon="27.64872">
        <ele>528.032</ele>
      </trkpt>
      <trkpt lat="37.47822" lon="27.64877">
        <ele>530.306</ele>
      </trkpt>
      <trkpt lat="37.47822" lon="27.64877">
        <ele>530.484</ele>
      </trkpt>
      <trkpt lat="37.47823" lon="27.64878">
        <ele>530.857</ele>
      </trkpt>
      <trkpt lat="37.47824" lon="27.6489">
        <ele>535.359</ele>
      </trkpt>
      <trkpt lat="37.47821" lon="27.64893">
        <ele>536.687</ele>
      </trkpt>
      <trkpt lat="37.47813" lon="27.64889">
        <ele>537.498</ele>
      </trkpt>
      <trkpt lat="37.47812" lon="27.64887">
        <ele>537.149</ele>
      </trkpt>
      <trkpt lat="37.47804" lon="27.64881">
        <ele>536.889</ele>
      </trkpt>
      <trkpt lat="37.47803" lon="27.64881">
        <ele>536.814</ele>
      </trkpt>
      <trkpt lat="37.47792" lon="27.6487">
        <ele>535.303</ele>
      </trkpt>
      <trkpt lat="37.47793" lon="27.64884">
        <ele>539.621</ele>
      </trkpt>
      <trkpt lat="37.47793" lon="27.64887">
        <ele>540.616</ele>
      </trkpt>
      <trkpt lat="37.47792" lon="27.64899">
        <ele>544.908</ele>
      </trkpt>
      <trkpt lat="37.47794" lon="27.64909">
        <ele>547.468</ele>
      </trkpt>
      <trkpt lat="37.47795" lon="27.64912">
        <ele>548.41</ele>
      </trkpt>
      <trkpt lat="37.47794" lon="27.64918">
        <ele>550.379</ele>
      </trkpt>
      <trkpt lat="37.47793" lon="27.64919">
        <ele>550.703</ele>
      </trkpt>
      <trkpt lat="37.47798" lon="27.64932">
        <ele>552.402</ele>
      </trkpt>
      <trkpt lat="37.47798" lon="27.64937">
        <ele>553.523</ele>
      </trkpt>
      <trkpt lat="37.47796" lon="27.64937">
        <ele>553.972</ele>
      </trkpt>
      <trkpt lat="37.47791" lon="27.64933">
        <ele>554.177</ele>
      </trkpt>
      <trkpt lat="37.47786" lon="27.64933">
        <ele>555.331</ele>
      </trkpt>
      <trkpt lat="37.47782" lon="27.64928">
        <ele>555.075</ele>
      </trkpt>
      <trkpt lat="37.47777" lon="27.64924">
        <ele>554.769</ele>
      </trkpt>
      <trkpt lat="37.47766" lon="27.6493">
        <ele>556.456</ele>
      </trkpt>
      <trkpt lat="37.47761" lon="27.6493">
        <ele>556.666</ele>
      </trkpt>
      <trkpt lat="37.47751" lon="27.64927">
        <ele>555.591</ele>
      </trkpt>
      <trkpt lat="37.47741" lon="27.64925">
        <ele>555.221</ele>
      </trkpt>
      <trkpt lat="37.47727" lon="27.64924">
        <ele>554.887</ele>
      </trkpt>
      <trkpt lat="37.47724" lon="27.64925">
        <ele>555.414</ele>
      </trkpt>
      <trkpt lat="37.47723" lon="27.64926">
        <ele>555.557</ele>
      </trkpt>
      <trkpt lat="37.47711" lon="27.64928">
        <ele>556.165</ele>
      </trkpt>
      <trkpt lat="37.47706" lon="27.64928">
        <ele>555.932</ele>
      </trkpt>
      <trkpt lat="37.47703" lon="27.64928">
        <ele>555.811</ele>
      </trkpt>
      <trkpt lat="37.47688" lon="27.64932">
        <ele>556.937</ele>
      </trkpt>
      <trkpt lat="37.47688" lon="27.64938">
        <ele>558.772</ele>
      </trkpt>
      <trkpt lat="37.47685" lon="27.64938">
        <ele>558.944</ele>
      </trkpt>
      <trkpt lat="37.47683" lon="27.64937">
        <ele>558.677</ele>
      </trkpt>
      <trkpt lat="37.47677" lon="27.64936">
        <ele>558.208</ele>
      </trkpt>
      <trkpt lat="37.47666" lon="27.64938">
        <ele>558.994</ele>
      </trkpt>
      <trkpt lat="37.47659" lon="27.64944">
        <ele>560.975</ele>
      </trkpt>
      <trkpt lat="37.47652" lon="27.64952">
        <ele>563.37</ele>
      </trkpt>
      <trkpt lat="37.47648" lon="27.64954">
        <ele>563.87</ele>
      </trkpt>
      <trkpt lat="37.47638" lon="27.64964">
        <ele>566.521</ele>
      </trkpt>
      <trkpt lat="37.47635" lon="27.64972">
        <ele>567.983</ele>
      </trkpt>
      <trkpt lat="37.47631" lon="27.64982">
        <ele>569.496</ele>
      </trkpt>
      <trkpt lat="37.47628" lon="27.64984">
        <ele>569.331</ele>
      </trkpt>
      <trkpt lat="37.47624" lon="27.64989">
        <ele>569.5</ele>
      </trkpt>
      <trkpt lat="37.47621" lon="27.64998">
        <ele>570.985</ele>
      </trkpt>
      <trkpt lat="37.47614" lon="27.65012">
        <ele>572.811</ele>
      </trkpt>
      <trkpt lat="37.47608" lon="27.65016">
        <ele>571.589</ele>
      </trkpt>
      <trkpt lat="37.47601" lon="27.65019">
        <ele>569.521</ele>
      </trkpt>
      <trkpt lat="37.47596" lon="27.65026">
        <ele>568.969</ele>
      </trkpt>
      <trkpt lat="37.47595" lon="27.65033">
        <ele>570.266</ele>
      </trkpt>
      <trkpt lat="37.47591" lon="27.65034">
        <ele>569.199</ele>
      </trkpt>
      <trkpt lat="37.4759" lon="27.65035">
        <ele>568.74</ele>
      </trkpt>
      <trkpt lat="37.47581" lon="27.65045">
        <ele>568.037</ele>
      </trkpt>
      <trkpt lat="37.4758" lon="27.65047">
        <ele>568.399</ele>
      </trkpt>
      <trkpt lat="37.47579" lon="27.65049">
        <ele>568.448</ele>
      </trkpt>
      <trkpt lat="37.47576" lon="27.65054">
        <ele>568.277</ele>
      </trkpt>
      <trkpt lat="37.47573" lon="27.65063">
        <ele>568.123</ele>
      </trkpt>
      <trkpt lat="37.47567" lon="27.6508">
        <ele>567.504</ele>
      </trkpt>
      <trkpt lat="37.47566" lon="27.65086">
        <ele>567.423</ele>
      </trkpt>
      <trkpt lat="37.4756" lon="27.65097">
        <ele>564.492</ele>
      </trkpt>
      <trkpt lat="37.47559" lon="27.65115">
        <ele>563.36</ele>
      </trkpt>
      <trkpt lat="37.47557" lon="27.65122">
        <ele>562.558</ele>
      </trkpt>
      <trkpt lat="37.47556" lon="27.65126">
        <ele>562.371</ele>
      </trkpt>
      <trkpt lat="37.47555" lon="27.65136">
        <ele>561.842</ele>
      </trkpt>
      <trkpt lat="37.47551" lon="27.65141">
        <ele>560.501</ele>
      </trkpt>
      <trkpt lat="37.47553" lon="27.65139">
        <ele>560.795</ele>
      </trkpt>
      <trkpt lat="37.47555" lon="27.65148">
        <ele>562.811</ele>
      </trkpt>
      <trkpt lat="37.47549" lon="27.65159">
        <ele>561.352</ele>
      </trkpt>
      <trkpt lat="37.47548" lon="27.65169">
        <ele>562.141</ele>
      </trkpt>
      <trkpt lat="37.47546" lon="27.65178">
        <ele>562.043</ele>
      </trkpt>
      <trkpt lat="37.47544" lon="27.65183">
        <ele>561.282</ele>
      </trkpt>
      <trkpt lat="37.47543" lon="27.6519">
        <ele>561.185</ele>
      </trkpt>
      <trkpt lat="37.47539" lon="27.65209">
        <ele>560.535</ele>
      </trkpt>
      <trkpt lat="37.47538" lon="27.65215">
        <ele>560.558</ele>
      </trkpt>
      <trkpt lat="37.47535" lon="27.65224">
        <ele>559.464</ele>
      </trkpt>
      <trkpt lat="37.47535" lon="27.65233">
        <ele>559.972</ele>
      </trkpt>
      <trkpt lat="37.47534" lon="27.65248">
        <ele>561.135</ele>
      </trkpt>
      <trkpt lat="37.47533" lon="27.65256">
        <ele>561.074</ele>
      </trkpt>
      <trkpt lat="37.47528" lon="27.65264">
        <ele>559.797</ele>
      </trkpt>
      <trkpt lat="37.47517" lon="27.65275">
        <ele>555.231</ele>
      </trkpt>
      <trkpt lat="37.47517" lon="27.65277">
        <ele>555.296</ele>
      </trkpt>
      <trkpt lat="37.47514" lon="27.65294">
        <ele>555.206</ele>
      </trkpt>
      <trkpt lat="37.47511" lon="27.65301">
        <ele>554.571</ele>
      </trkpt>
      <trkpt lat="37.47505" lon="27.65309">
        <ele>551.899</ele>
      </trkpt>
      <trkpt lat="37.47498" lon="27.65314">
        <ele>549.171</ele>
      </trkpt>
      <trkpt lat="37.47498" lon="27.65325">
        <ele>548.802</ele>
      </trkpt>
      <trkpt lat="37.47503" lon="27.65338">
        <ele>550.46</ele>
      </trkpt>
      <trkpt lat="37.47503" lon="27.65341">
        <ele>550.085</ele>
      </trkpt>
      <trkpt lat="37.47504" lon="27.65354">
        <ele>550.461</ele>
      </trkpt>
      <trkpt lat="37.47504" lon="27.65362">
        <ele>550.046</ele>
      </trkpt>
      <trkpt lat="37.4751" lon="27.65377">
        <ele>551.667</ele>
      </trkpt>
      <trkpt lat="37.47506" lon="27.65386">
        <ele>548.332</ele>
      </trkpt>
      <trkpt lat="37.47504" lon="27.65394">
        <ele>546.896</ele>
      </trkpt>
      <trkpt lat="37.47503" lon="27.65407">
        <ele>546.523</ele>
      </trkpt>
      <trkpt lat="37.47503" lon="27.65416">
        <ele>546.723</ele>
      </trkpt>
      <trkpt lat="37.47503" lon="27.65417">
        <ele>546.325</ele>
      </trkpt>
      <trkpt lat="37.47501" lon="27.65431">
        <ele>545.787</ele>
      </trkpt>
      <trkpt lat="37.47497" lon="27.65442">
        <ele>544.843</ele>
      </trkpt>
      <trkpt lat="37.47496" lon="27.65446">
        <ele>545.006</ele>
      </trkpt>
      <trkpt lat="37.47493" lon="27.65463">
        <ele>546.466</ele>
      </trkpt>
      <trkpt lat="37.47493" lon="27.65476">
        <ele>548.16</ele>
      </trkpt>
      <trkpt lat="37.47492" lon="27.65484">
        <ele>547.962</ele>
      </trkpt>
      <trkpt lat="37.47492" lon="27.65494">
        <ele>548.27</ele>
      </trkpt>
      <trkpt lat="37.47484" lon="27.65503">
        <ele>546.69</ele>
      </trkpt>
      <trkpt lat="37.47482" lon="27.6551">
        <ele>546.483</ele>
      </trkpt>
      <trkpt lat="37.47481" lon="27.65512">
        <ele>546.512</ele>
      </trkpt>
      <trkpt lat="37.47479" lon="27.65517">
        <ele>546.617</ele>
      </trkpt>
      <trkpt lat="37.47468" lon="27.65523">
        <ele>546.269</ele>
      </trkpt>
      <trkpt lat="37.47465" lon="27.65526">
        <ele>546.737</ele>
      </trkpt>
      <trkpt lat="37.47465" lon="27.65527">
        <ele>546.84</ele>
      </trkpt>
      <trkpt lat="37.47461" lon="27.65526">
        <ele>546.727</ele>
      </trkpt>
      <trkpt lat="37.47459" lon="27.65527">
        <ele>546.896</ele>
      </trkpt>
      <trkpt lat="37.47451" lon="27.65529">
        <ele>546.956</ele>
      </trkpt>
      <trkpt lat="37.47448" lon="27.65531">
        <ele>546.898</ele>
      </trkpt>
      <trkpt lat="37.47448" lon="27.65537">
        <ele>546.706</ele>
      </trkpt>
      <trkpt lat="37.47454" lon="27.6554">
        <ele>546.717</ele>
      </trkpt>
      <trkpt lat="37.4746" lon="27.65547">
        <ele>546.698</ele>
      </trkpt>
      <trkpt lat="37.47461" lon="27.65548">
        <ele>546.703</ele>
      </trkpt>
      <trkpt lat="37.47456" lon="27.65549">
        <ele>546.536</ele>
      </trkpt>
      <trkpt lat="37.47455" lon="27.65553">
        <ele>546.45</ele>
      </trkpt>
      <trkpt lat="37.47456" lon="27.65562">
        <ele>545.004</ele>
      </trkpt>
      <trkpt lat="37.47456" lon="27.65564">
        <ele>544.533</ele>
      </trkpt>
      <trkpt lat="37.47463" lon="27.65564">
        <ele>544.373</ele>
      </trkpt>
      <trkpt lat="37.47468" lon="27.65565">
        <ele>543.83</ele>
      </trkpt>
      <trkpt lat="37.47474" lon="27.65563">
        <ele>544.562</ele>
      </trkpt>
      <trkpt lat="37.47482" lon="27.65563">
        <ele>544.795</ele>
      </trkpt>
      <trkpt lat="37.47483" lon="27.65566">
        <ele>543.819</ele>
      </trkpt>
      <trkpt lat="37.47482" lon="27.65567">
        <ele>543.161</ele>
      </trkpt>
      <trkpt lat="37.47484" lon="27.65581">
        <ele>538.309</ele>
      </trkpt>
      <trkpt lat="37.47492" lon="27.65586">
        <ele>536.561</ele>
      </trkpt>
      <trkpt lat="37.47494" lon="27.65584">
        <ele>537.332</ele>
      </trkpt>
      <trkpt lat="37.47499" lon="27.65594">
        <ele>533.243</ele>
      </trkpt>
      <trkpt lat="37.47504" lon="27.65597">
        <ele>532.574</ele>
      </trkpt>
      <trkpt lat="37.47504" lon="27.65597">
        <ele>532.683</ele>
      </trkpt>
      <trkpt lat="37.47515" lon="27.65603">
        <ele>533.508</ele>
      </trkpt>
      <trkpt lat="37.47516" lon="27.65605">
        <ele>532.809</ele>
      </trkpt>
      <trkpt lat="37.47519" lon="27.65608">
        <ele>532.445</ele>
      </trkpt>
      <trkpt lat="37.4752" lon="27.65609">
        <ele>532.501</ele>
      </trkpt>
      <trkpt lat="37.47526" lon="27.65619">
        <ele>530.812</ele>
      </trkpt>
      <trkpt lat="37.47528" lon="27.65622">
        <ele>530.341</ele>
      </trkpt>
      <trkpt lat="37.47529" lon="27.65629">
        <ele>528.75</ele>
      </trkpt>
      <trkpt lat="37.47529" lon="27.6563">
        <ele>528.702</ele>
      </trkpt>
      <trkpt lat="37.47532" lon="27.65637">
        <ele>527.332</ele>
      </trkpt>
      <trkpt lat="37.47537" lon="27.65645">
        <ele>527.332</ele>
      </trkpt>
      <trkpt lat="37.4754" lon="27.6565">
        <ele>527.778</ele>
      </trkpt>
      <trkpt lat="37.47544" lon="27.65659">
        <ele>526.467</ele>
      </trkpt>
      <trkpt lat="37.47544" lon="27.6566">
        <ele>526.315</ele>
      </trkpt>
      <trkpt lat="37.47546" lon="27.65671">
        <ele>524.218</ele>
      </trkpt>
      <trkpt lat="37.47546" lon="27.65681">
        <ele>522.312</ele>
      </trkpt>
      <trkpt lat="37.47544" lon="27.6569">
        <ele>519.672</ele>
      </trkpt>
      <trkpt lat="37.47538" lon="27.65689">
        <ele>517.935</ele>
      </trkpt>
      <trkpt lat="37.47537" lon="27.65679">
        <ele>519.382</ele>
      </trkpt>
      <trkpt lat="37.47532" lon="27.65672">
        <ele>518.914</ele>
      </trkpt>
      <trkpt lat="37.47532" lon="27.65673">
        <ele>518.548</ele>
      </trkpt>
      <trkpt lat="37.47529" lon="27.65682">
        <ele>516.303</ele>
      </trkpt>
      <trkpt lat="37.4753" lon="27.65684">
        <ele>516.394</ele>
      </trkpt>
      <trkpt lat="37.47527" lon="27.65691">
        <ele>514.289</ele>
      </trkpt>
      <trkpt lat="37.47525" lon="27.65697">
        <ele>513.19</ele>
      </trkpt>
      <trkpt lat="37.47518" lon="27.65696">
        <ele>512.134</ele>
      </trkpt>
      <trkpt lat="37.47512" lon="27.65707">
        <ele>509.28</ele>
      </trkpt>
      <trkpt lat="37.47503" lon="27.65716">
        <ele>505.84</ele>
      </trkpt>
      <trkpt lat="37.47502" lon="27.6572">
        <ele>504.935</ele>
      </trkpt>
      <trkpt lat="37.475" lon="27.65719">
        <ele>504.524</ele>
      </trkpt>
      <trkpt lat="37.47494" lon="27.65716">
        <ele>503.569</ele>
      </trkpt>
      <trkpt lat="37.47483" lon="27.65713">
        <ele>501.055</ele>
      </trkpt>
      <trkpt lat="37.47476" lon="27.65704">
        <ele>501.101</ele>
      </trkpt>
      <trkpt lat="37.47464" lon="27.65696">
        <ele>499.465</ele>
      </trkpt>
      <trkpt lat="37.47458" lon="27.65697">
        <ele>497.417</ele>
      </trkpt>
      <trkpt lat="37.4745" lon="27.65704">
        <ele>494.134</ele>
      </trkpt>
      <trkpt lat="37.4745" lon="27.65705">
        <ele>494.023</ele>
      </trkpt>
      <trkpt lat="37.47451" lon="27.65714">
        <ele>492.876</ele>
      </trkpt>
      <trkpt lat="37.47449" lon="27.65712">
        <ele>492.534</ele>
      </trkpt>
      <trkpt lat="37.47447" lon="27.65722">
        <ele>490.708</ele>
      </trkpt>
      <trkpt lat="37.47446" lon="27.65726">
        <ele>490.368</ele>
      </trkpt>
      <trkpt lat="37.47455" lon="27.65734">
        <ele>492.261</ele>
      </trkpt>
      <trkpt lat="37.47459" lon="27.65743">
        <ele>492.648</ele>
      </trkpt>
      <trkpt lat="37.47457" lon="27.65745">
        <ele>492.427</ele>
      </trkpt>
      <trkpt lat="37.47458" lon="27.65746">
        <ele>492.51</ele>
      </trkpt>
      <trkpt lat="37.4746" lon="27.65754">
        <ele>493.706</ele>
      </trkpt>
      <trkpt lat="37.47446" lon="27.6575">
        <ele>491.21</ele>
      </trkpt>
      <trkpt lat="37.47443" lon="27.65746">
        <ele>490.775</ele>
      </trkpt>
      <trkpt lat="37.47443" lon="27.65744">
        <ele>490.704</ele>
      </trkpt>
      <trkpt lat="37.47444" lon="27.65752">
        <ele>491.391</ele>
      </trkpt>
      <trkpt lat="37.47443" lon="27.65758">
        <ele>492.524</ele>
      </trkpt>
      <trkpt lat="37.47442" lon="27.65772">
        <ele>495.576</ele>
      </trkpt>
      <trkpt lat="37.47434" lon="27.6578">
        <ele>496.984</ele>
      </trkpt>
      <trkpt lat="37.47425" lon="27.65792">
        <ele>499.095</ele>
      </trkpt>
      <trkpt lat="37.47413" lon="27.65799">
        <ele>499.414</ele>
      </trkpt>
      <trkpt lat="37.47402" lon="27.65794">
        <ele>496.959</ele>
      </trkpt>
      <trkpt lat="37.47396" lon="27.65798">
        <ele>496.886</ele>
      </trkpt>
      <trkpt lat="37.47393" lon="27.658">
        <ele>497.168</ele>
      </trkpt>
      <trkpt lat="37.47386" lon="27.65819">
        <ele>500.678</ele>
      </trkpt>
      <trkpt lat="37.4738" lon="27.65834">
        <ele>503.531</ele>
      </trkpt>
      <trkpt lat="37.47375" lon="27.65849">
        <ele>505.748</ele>
      </trkpt>
      <trkpt lat="37.4737" lon="27.65859">
        <ele>507.319</ele>
      </trkpt>
      <trkpt lat="37.47363" lon="27.65865">
        <ele>507.644</ele>
      </trkpt>
      <trkpt lat="37.4735" lon="27.65881">
        <ele>509.182</ele>
      </trkpt>
      <trkpt lat="37.47349" lon="27.65884">
        <ele>509.416</ele>
      </trkpt>
      <trkpt lat="37.47344" lon="27.65894">
        <ele>510.409</ele>
      </trkpt>
      <trkpt lat="37.47335" lon="27.65907">
        <ele>511.137</ele>
      </trkpt>
      <trkpt lat="37.47332" lon="27.6591">
        <ele>510.927</ele>
      </trkpt>
      <trkpt lat="37.4733" lon="27.65913">
        <ele>510.889</ele>
      </trkpt>
      <trkpt lat="37.47331" lon="27.65927">
        <ele>512.201</ele>
      </trkpt>
      <trkpt lat="37.47328" lon="27.65931">
        <ele>511.992</ele>
      </trkpt>
      <trkpt lat="37.47322" lon="27.65941">
        <ele>511.69</ele>
      </trkpt>
      <trkpt lat="37.47322" lon="27.65949">
        <ele>512.27</ele>
      </trkpt>
      <trkpt lat="37.47322" lon="27.65951">
        <ele>512.516</ele>
      </trkpt>
      <trkpt lat="37.47321" lon="27.65966">
        <ele>513.632</ele>
      </trkpt>
      <trkpt lat="37.47321" lon="27.65973">
        <ele>514.282</ele>
      </trkpt>
      <trkpt lat="37.47321" lon="27.65975">
        <ele>514.471</ele>
      </trkpt>
      <trkpt lat="37.47314" lon="27.65977">
        <ele>513.638</ele>
      </trkpt>
      <trkpt lat="37.47306" lon="27.65985">
        <ele>512.975</ele>
      </trkpt>
      <trkpt lat="37.47301" lon="27.65994">
        <ele>512.74</ele>
      </trkpt>
      <trkpt lat="37.47302" lon="27.65999">
        <ele>513.119</ele>
      </trkpt>
      <trkpt lat="37.47302" lon="27.66001">
        <ele>513.142</ele>
      </trkpt>
      <trkpt lat="37.47301" lon="27.66004">
        <ele>513.176</ele>
      </trkpt>
      <trkpt lat="37.47299" lon="27.66011">
        <ele>512.791</ele>
      </trkpt>
      <trkpt lat="37.473" lon="27.66015">
        <ele>513.105</ele>
      </trkpt>
      <trkpt lat="37.47298" lon="27.66032">
        <ele>512.868</ele>
      </trkpt>
      <trkpt lat="37.47303" lon="27.6604">
        <ele>514.584</ele>
      </trkpt>
      <trkpt lat="37.47302" lon="27.66053">
        <ele>514.597</ele>
      </trkpt>
      <trkpt lat="37.47305" lon="27.6606">
        <ele>515.556</ele>
      </trkpt>
      <trkpt lat="37.47308" lon="27.66064">
        <ele>516.447</ele>
      </trkpt>
      <trkpt lat="37.47309" lon="27.66073">
        <ele>516.536</ele>
      </trkpt>
      <trkpt lat="37.47307" lon="27.66083">
        <ele>515.427</ele>
      </trkpt>
      <trkpt lat="37.47307" lon="27.66084">
        <ele>515.485</ele>
      </trkpt>
      <trkpt lat="37.47305" lon="27.66097">
        <ele>514.281</ele>
      </trkpt>
      <trkpt lat="37.47305" lon="27.66113">
        <ele>513.93</ele>
      </trkpt>
      <trkpt lat="37.47305" lon="27.66116">
        <ele>513.918</ele>
      </trkpt>
      <trkpt lat="37.47301" lon="27.66131">
        <ele>512.877</ele>
      </trkpt>
      <trkpt lat="37.47301" lon="27.66133">
        <ele>512.848</ele>
      </trkpt>
      <trkpt lat="37.47298" lon="27.66141">
        <ele>511.739</ele>
      </trkpt>
      <trkpt lat="37.47298" lon="27.66141">
        <ele>511.677</ele>
      </trkpt>
      <trkpt lat="37.47297" lon="27.66145">
        <ele>511.026</ele>
      </trkpt>
      <trkpt lat="37.47297" lon="27.66145">
        <ele>511.045</ele>
      </trkpt>
      <trkpt lat="37.47297" lon="27.66149">
        <ele>511.113</ele>
      </trkpt>
      <trkpt lat="37.47297" lon="27.66149">
        <ele>510.837</ele>
      </trkpt>
      <trkpt lat="37.473" lon="27.66158">
        <ele>511.921</ele>
      </trkpt>
      <trkpt lat="37.47304" lon="27.66164">
        <ele>513.401</ele>
      </trkpt>
      <trkpt lat="37.47303" lon="27.66164">
        <ele>513.056</ele>
      </trkpt>
      <trkpt lat="37.47307" lon="27.66174">
        <ele>514.141</ele>
      </trkpt>
      <trkpt lat="37.47314" lon="27.66186">
        <ele>515.357</ele>
      </trkpt>
      <trkpt lat="37.47325" lon="27.66202">
        <ele>516.36</ele>
      </trkpt>
      <trkpt lat="37.47327" lon="27.66209">
        <ele>516.009</ele>
      </trkpt>
      <trkpt lat="37.47331" lon="27.66211">
        <ele>516.569</ele>
      </trkpt>
      <trkpt lat="37.47342" lon="27.66221">
        <ele>519.441</ele>
      </trkpt>
      <trkpt lat="37.47349" lon="27.66237">
        <ele>521.204</ele>
      </trkpt>
      <trkpt lat="37.47353" lon="27.66238">
        <ele>522.222</ele>
      </trkpt>
      <trkpt lat="37.47352" lon="27.66239">
        <ele>522.006</ele>
      </trkpt>
      <trkpt lat="37.47352" lon="27.66242">
        <ele>521.736</ele>
      </trkpt>
      <trkpt lat="37.47354" lon="27.66245">
        <ele>522.194</ele>
      </trkpt>
      <trkpt lat="37.47364" lon="27.66262">
        <ele>524.034</ele>
      </trkpt>
      <trkpt lat="37.47367" lon="27.66271">
        <ele>524.419</ele>
      </trkpt>
      <trkpt lat="37.4737" lon="27.66274">
        <ele>525.068</ele>
      </trkpt>
      <trkpt lat="37.47374" lon="27.66277">
        <ele>525.679</ele>
      </trkpt>
      <trkpt lat="37.47375" lon="27.66279">
        <ele>525.709</ele>
      </trkpt>
      <trkpt lat="37.47378" lon="27.66284">
        <ele>526.028</ele>
      </trkpt>
      <trkpt lat="37.47388" lon="27.66294">
        <ele>526.699</ele>
      </trkpt>
      <trkpt lat="37.47388" lon="27.66301">
        <ele>525.533</ele>
      </trkpt>
      <trkpt lat="37.47381" lon="27.66305">
        <ele>523.485</ele>
      </trkpt>
      <trkpt lat="37.47378" lon="27.6631">
        <ele>522.51</ele>
      </trkpt>
      <trkpt lat="37.47375" lon="27.66318">
        <ele>521.377</ele>
      </trkpt>
      <trkpt lat="37.47375" lon="27.66319">
        <ele>521.216</ele>
      </trkpt>
      <trkpt lat="37.47376" lon="27.66336">
        <ele>520.48</ele>
      </trkpt>
      <trkpt lat="37.47375" lon="27.66339">
        <ele>520.055</ele>
      </trkpt>
      <trkpt lat="37.47371" lon="27.66359">
        <ele>518.283</ele>
      </trkpt>
      <trkpt lat="37.47372" lon="27.6636">
        <ele>518.311</ele>
      </trkpt>
      <trkpt lat="37.47367" lon="27.66372">
        <ele>516.025</ele>
      </trkpt>
      <trkpt lat="37.4736" lon="27.6637">
        <ele>514.342</ele>
      </trkpt>
      <trkpt lat="37.4735" lon="27.6638">
        <ele>510.032</ele>
      </trkpt>
      <trkpt lat="37.4735" lon="27.66383">
        <ele>509.581</ele>
      </trkpt>
      <trkpt lat="37.47342" lon="27.66389">
        <ele>506.588</ele>
      </trkpt>
      <trkpt lat="37.47335" lon="27.66393">
        <ele>503.596</ele>
      </trkpt>
      <trkpt lat="37.47329" lon="27.664">
        <ele>501.143</ele>
      </trkpt>
      <trkpt lat="37.47332" lon="27.66408">
        <ele>500.424</ele>
      </trkpt>
      <trkpt lat="37.47333" lon="27.66411">
        <ele>499.999</ele>
      </trkpt>
      <trkpt lat="37.47329" lon="27.66415">
        <ele>498.633</ele>
      </trkpt>
      <trkpt lat="37.47329" lon="27.66422">
        <ele>498.255</ele>
      </trkpt>
      <trkpt lat="37.4733" lon="27.66427">
        <ele>498.145</ele>
      </trkpt>
      <trkpt lat="37.47329" lon="27.66429">
        <ele>497.966</ele>
      </trkpt>
      <trkpt lat="37.47328" lon="27.66429">
        <ele>497.886</ele>
      </trkpt>
      <trkpt lat="37.47316" lon="27.66425">
        <ele>496.357</ele>
      </trkpt>
      <trkpt lat="37.47313" lon="27.66421">
        <ele>496.027</ele>
      </trkpt>
      <trkpt lat="37.47307" lon="27.66424">
        <ele>495.237</ele>
      </trkpt>
      <trkpt lat="37.47303" lon="27.66427">
        <ele>495.053</ele>
      </trkpt>
      <trkpt lat="37.47302" lon="27.66427">
        <ele>495.068</ele>
      </trkpt>
      <trkpt lat="37.47298" lon="27.66429">
        <ele>495.274</ele>
      </trkpt>
      <trkpt lat="37.47293" lon="27.66439">
        <ele>496.598</ele>
      </trkpt>
      <trkpt lat="37.47289" lon="27.66442">
        <ele>497.511</ele>
      </trkpt>
      <trkpt lat="37.47289" lon="27.66445">
        <ele>497.931</ele>
      </trkpt>
      <trkpt lat="37.47284" lon="27.66446">
        <ele>499.474</ele>
      </trkpt>
      <trkpt lat="37.47282" lon="27.66447">
        <ele>499.874</ele>
      </trkpt>
      <trkpt lat="37.47279" lon="27.66446">
        <ele>500.138</ele>
      </trkpt>
      <trkpt lat="37.47275" lon="27.66442">
        <ele>499.68</ele>
      </trkpt>
      <trkpt lat="37.47264" lon="27.66441">
        <ele>500.969</ele>
      </trkpt>
      <trkpt lat="37.47257" lon="27.66438">
        <ele>500.807</ele>
      </trkpt>
      <trkpt lat="37.47252" lon="27.66435">
        <ele>500.255</ele>
      </trkpt>
      <trkpt lat="37.47246" lon="27.6643">
        <ele>498.548</ele>
      </trkpt>
      <trkpt lat="37.47233" lon="27.6642">
        <ele>494.412</ele>
      </trkpt>
      <trkpt lat="37.47229" lon="27.66419">
        <ele>493.86</ele>
      </trkpt>
      <trkpt lat="37.47228" lon="27.66423">
        <ele>495.204</ele>
      </trkpt>
      <trkpt lat="37.47227" lon="27.66426">
        <ele>496.035</ele>
      </trkpt>
      <trkpt lat="37.47221" lon="27.66425">
        <ele>495.349</ele>
      </trkpt>
      <trkpt lat="37.47214" lon="27.66419">
        <ele>494.123</ele>
      </trkpt>
      <trkpt lat="37.47205" lon="27.66422">
        <ele>495.531</ele>
      </trkpt>
      <trkpt lat="37.47205" lon="27.66425">
        <ele>496.355</ele>
      </trkpt>
      <trkpt lat="37.47211" lon="27.66432">
        <ele>497.771</ele>
      </trkpt>
      <trkpt lat="37.47212" lon="27.66433">
        <ele>497.941</ele>
      </trkpt>
      <trkpt lat="37.47213" lon="27.6644">
        <ele>499.695</ele>
      </trkpt>
      <trkpt lat="37.47213" lon="27.66445">
        <ele>501.18</ele>
      </trkpt>
      <trkpt lat="37.47209" lon="27.6645">
        <ele>502.028</ele>
      </trkpt>
      <trkpt lat="37.47208" lon="27.66454">
        <ele>502.641</ele>
      </trkpt>
      <trkpt lat="37.47199" lon="27.66462">
        <ele>503.653</ele>
      </trkpt>
      <trkpt lat="37.47196" lon="27.66461">
        <ele>503.397</ele>
      </trkpt>
      <trkpt lat="37.47188" lon="27.66464">
        <ele>503.255</ele>
      </trkpt>
      <trkpt lat="37.47182" lon="27.66471">
        <ele>503.496</ele>
      </trkpt>
      <trkpt lat="37.47173" lon="27.66472">
        <ele>502.584</ele>
      </trkpt>
      <trkpt lat="37.4717" lon="27.66469">
        <ele>502.078</ele>
      </trkpt>
      <trkpt lat="37.47154" lon="27.66469">
        <ele>499.021</ele>
      </trkpt>
      <trkpt lat="37.47152" lon="27.66472">
        <ele>498.8</ele>
      </trkpt>
      <trkpt lat="37.47146" lon="27.66484">
        <ele>498.622</ele>
      </trkpt>
      <trkpt lat="37.47143" lon="27.66485">
        <ele>498.316</ele>
      </trkpt>
      <trkpt lat="37.47141" lon="27.66489">
        <ele>498.185</ele>
      </trkpt>
      <trkpt lat="37.4714" lon="27.66492">
        <ele>498.241</ele>
      </trkpt>
      <trkpt lat="37.4714" lon="27.66501">
        <ele>499.251</ele>
      </trkpt>
      <trkpt lat="37.47142" lon="27.66507">
        <ele>500.499</ele>
      </trkpt>
      <trkpt lat="37.47142" lon="27.66509">
        <ele>500.971</ele>
      </trkpt>
      <trkpt lat="37.47136" lon="27.66517">
        <ele>500.733</ele>
      </trkpt>
      <trkpt lat="37.47131" lon="27.66524">
        <ele>500.391</ele>
      </trkpt>
      <trkpt lat="37.47122" lon="27.66529">
        <ele>498.638</ele>
      </trkpt>
      <trkpt lat="37.47114" lon="27.66536">
        <ele>496.878</ele>
      </trkpt>
      <trkpt lat="37.47108" lon="27.66538">
        <ele>495.771</ele>
      </trkpt>
      <trkpt lat="37.47107" lon="27.66542">
        <ele>495.778</ele>
      </trkpt>
      <trkpt lat="37.47111" lon="27.66549">
        <ele>496.651</ele>
      </trkpt>
      <trkpt lat="37.47111" lon="27.66564">
        <ele>496.702</ele>
      </trkpt>
      <trkpt lat="37.47108" lon="27.66564">
        <ele>496.057</ele>
      </trkpt>
      <trkpt lat="37.471" lon="27.66559">
        <ele>494.371</ele>
      </trkpt>
      <trkpt lat="37.47099" lon="27.6656">
        <ele>494.122</ele>
      </trkpt>
      <trkpt lat="37.47094" lon="27.6656">
        <ele>493.106</ele>
      </trkpt>
      <trkpt lat="37.47085" lon="27.66562">
        <ele>491.152</ele>
      </trkpt>
      <trkpt lat="37.47086" lon="27.66568">
        <ele>491.051</ele>
      </trkpt>
      <trkpt lat="37.47089" lon="27.66574">
        <ele>491.569</ele>
      </trkpt>
      <trkpt lat="37.4709" lon="27.66576">
        <ele>491.652</ele>
      </trkpt>
      <trkpt lat="37.47085" lon="27.66586">
        <ele>490.331</ele>
      </trkpt>
      <trkpt lat="37.47087" lon="27.66592">
        <ele>490.413</ele>
      </trkpt>
      <trkpt lat="37.47088" lon="27.66598">
        <ele>490.356</ele>
      </trkpt>
      <trkpt lat="37.47088" lon="27.66602">
        <ele>490.305</ele>
      </trkpt>
      <trkpt lat="37.47088" lon="27.66607">
        <ele>490.002</ele>
      </trkpt>
      <trkpt lat="37.47087" lon="27.66609">
        <ele>489.738</ele>
      </trkpt>
      <trkpt lat="37.47083" lon="27.66614">
        <ele>489.436</ele>
      </trkpt>
      <trkpt lat="37.47078" lon="27.66609">
        <ele>489.567</ele>
      </trkpt>
      <trkpt lat="37.4707" lon="27.66605">
        <ele>490.237</ele>
      </trkpt>
      <trkpt lat="37.47061" lon="27.66596">
        <ele>490.176</ele>
      </trkpt>
      <trkpt lat="37.47053" lon="27.66585">
        <ele>489.837</ele>
      </trkpt>
      <trkpt lat="37.4705" lon="27.66583">
        <ele>490.31</ele>
      </trkpt>
      <trkpt lat="37.47044" lon="27.66567">
        <ele>492.275</ele>
      </trkpt>
      <trkpt lat="37.47043" lon="27.66564">
        <ele>492.652</ele>
      </trkpt>
      <trkpt lat="37.47038" lon="27.66563">
        <ele>493.806</ele>
      </trkpt>
      <trkpt lat="37.47026" lon="27.66564">
        <ele>496.605</ele>
      </trkpt>
      <trkpt lat="37.47025" lon="27.66566">
        <ele>496.773</ele>
      </trkpt>
      <trkpt lat="37.47026" lon="27.66568">
        <ele>496.597</ele>
      </trkpt>
      <trkpt lat="37.47019" lon="27.66575">
        <ele>499.152</ele>
      </trkpt>
      <trkpt lat="37.47011" lon="27.66576">
        <ele>501.612</ele>
      </trkpt>
      <trkpt lat="37.4701" lon="27.66575">
        <ele>501.948</ele>
      </trkpt>
      <trkpt lat="37.47006" lon="27.66568">
        <ele>502.952</ele>
      </trkpt>
      <trkpt lat="37.47005" lon="27.66567">
        <ele>503.393</ele>
      </trkpt>
      <trkpt lat="37.47" lon="27.66575">
        <ele>505.438</ele>
      </trkpt>
      <trkpt lat="37.46998" lon="27.66576">
        <ele>506.155</ele>
      </trkpt>
      <trkpt lat="37.46999" lon="27.66583">
        <ele>506.27</ele>
      </trkpt>
      <trkpt lat="37.47" lon="27.66585">
        <ele>506.105</ele>
      </trkpt>
      <trkpt lat="37.46996" lon="27.66593">
        <ele>507.489</ele>
      </trkpt>
      <trkpt lat="37.4699" lon="27.66591">
        <ele>510.175</ele>
      </trkpt>
      <trkpt lat="37.46987" lon="27.66587">
        <ele>511.038</ele>
      </trkpt>
      <trkpt lat="37.46987" lon="27.66586">
        <ele>511.19</ele>
      </trkpt>
      <trkpt lat="37.46979" lon="27.66579">
        <ele>514.039</ele>
      </trkpt>
      <trkpt lat="37.46975" lon="27.66564">
        <ele>514.516</ele>
      </trkpt>
      <trkpt lat="37.46973" lon="27.6656">
        <ele>514.855</ele>
      </trkpt>
      <trkpt lat="37.46973" lon="27.6655">
        <ele>513.931</ele>
      </trkpt>
      <trkpt lat="37.46969" lon="27.66538">
        <ele>513.279</ele>
      </trkpt>
      <trkpt lat="37.46958" lon="27.66528">
        <ele>514.558</ele>
      </trkpt>
      <trkpt lat="37.46957" lon="27.66528">
        <ele>514.768</ele>
      </trkpt>
      <trkpt lat="37.46947" lon="27.66521">
        <ele>515.915</ele>
      </trkpt>
      <trkpt lat="37.46931" lon="27.66508">
        <ele>516.199</ele>
      </trkpt>
      <trkpt lat="37.46929" lon="27.66507">
        <ele>516.362</ele>
      </trkpt>
      <trkpt lat="37.46917" lon="27.66503">
        <ele>517.569</ele>
      </trkpt>
      <trkpt lat="37.46911" lon="27.66499">
        <ele>518.045</ele>
      </trkpt>
      <trkpt lat="37.46911" lon="27.66497">
        <ele>517.845</ele>
      </trkpt>
      <trkpt lat="37.46902" lon="27.66484">
        <ele>517.056</ele>
      </trkpt>
      <trkpt lat="37.46889" lon="27.66484">
        <ele>521.267</ele>
      </trkpt>
      <trkpt lat="37.46879" lon="27.66476">
        <ele>521.833</ele>
      </trkpt>
      <trkpt lat="37.4687" lon="27.66469">
        <ele>522.324</ele>
      </trkpt>
      <trkpt lat="37.46862" lon="27.66466">
        <ele>523.57</ele>
      </trkpt>
      <trkpt lat="37.46859" lon="27.66464">
        <ele>523.644</ele>
      </trkpt>
      <trkpt lat="37.46847" lon="27.66463">
        <ele>526.485</ele>
      </trkpt>
      <trkpt lat="37.46834" lon="27.66464">
        <ele>530.038</ele>
      </trkpt>
      <trkpt lat="37.46829" lon="27.6646">
        <ele>530.344</ele>
      </trkpt>
      <trkpt lat="37.46828" lon="27.66459">
        <ele>530.557</ele>
      </trkpt>
      <trkpt lat="37.46824" lon="27.66458">
        <ele>531.396</ele>
      </trkpt>
      <trkpt lat="37.4682" lon="27.66454">
        <ele>531.838</ele>
      </trkpt>
      <trkpt lat="37.46811" lon="27.66442">
        <ele>531.604</ele>
      </trkpt>
      <trkpt lat="37.46801" lon="27.66433">
        <ele>531.37</ele>
      </trkpt>
      <trkpt lat="37.468" lon="27.66438">
        <ele>532.896</ele>
      </trkpt>
      <trkpt lat="37.468" lon="27.66442">
        <ele>533.933</ele>
      </trkpt>
      <trkpt lat="37.46797" lon="27.66444">
        <ele>534.685</ele>
      </trkpt>
      <trkpt lat="37.46795" lon="27.66441">
        <ele>534.321</ele>
      </trkpt>
      <trkpt lat="37.46796" lon="27.66446">
        <ele>535.376</ele>
      </trkpt>
      <trkpt lat="37.46788" lon="27.66438">
        <ele>534.239</ele>
      </trkpt>
      <trkpt lat="37.46776" lon="27.66431">
        <ele>534.467</ele>
      </trkpt>
      <trkpt lat="37.4677" lon="27.66419">
        <ele>532.743</ele>
      </trkpt>
      <trkpt lat="37.46762" lon="27.66411">
        <ele>532.515</ele>
      </trkpt>
      <trkpt lat="37.46752" lon="27.664">
        <ele>532.308</ele>
      </trkpt>
      <trkpt lat="37.46736" lon="27.66393">
        <ele>534.262</ele>
      </trkpt>
      <trkpt lat="37.46735" lon="27.66393">
        <ele>534.418</ele>
      </trkpt>
      <trkpt lat="37.46726" lon="27.66381">
        <ele>533.968</ele>
      </trkpt>
      <trkpt lat="37.46722" lon="27.66377">
        <ele>534.016</ele>
      </trkpt>
      <trkpt lat="37.46723" lon="27.66377">
        <ele>533.696</ele>
      </trkpt>
      <trkpt lat="37.46712" lon="27.66372">
        <ele>534.23</ele>
      </trkpt>
      <trkpt lat="37.46707" lon="27.66366">
        <ele>533.333</ele>
      </trkpt>
      <trkpt lat="37.46706" lon="27.66367">
        <ele>533.792</ele>
      </trkpt>
      <trkpt lat="37.46706" lon="27.66367">
        <ele>533.768</ele>
      </trkpt>
      <trkpt lat="37.46706" lon="27.66367">
        <ele>533.749</ele>
      </trkpt>
      <trkpt lat="37.46706" lon="27.66367">
        <ele>533.727</ele>
      </trkpt>
      <trkpt lat="37.46706" lon="27.66367">
        <ele>533.713</ele>
      </trkpt>
      <trkpt lat="37.46707" lon="27.66367">
        <ele>533.664</ele>
      </trkpt>
      <trkpt lat="37.46705" lon="27.66367">
        <ele>533.652</ele>
      </trkpt>
      <trkpt lat="37.46689" lon="27.66361">
        <ele>533.592</ele>
      </trkpt>
      <trkpt lat="37.46677" lon="27.66358">
        <ele>534.294</ele>
      </trkpt>
      <trkpt lat="37.46665" lon="27.6636">
        <ele>536.408</ele>
      </trkpt>
      <trkpt lat="37.46653" lon="27.66358">
        <ele>536.246</ele>
      </trkpt>
      <trkpt lat="37.46639" lon="27.66358">
        <ele>536.891</ele>
      </trkpt>
      <trkpt lat="37.46626" lon="27.66359">
        <ele>535.488</ele>
      </trkpt>
      <trkpt lat="37.46613" lon="27.66366">
        <ele>535.461</ele>
      </trkpt>
      <trkpt lat="37.4661" lon="27.66368">
        <ele>535.529</ele>
      </trkpt>
      <trkpt lat="37.46606" lon="27.66363">
        <ele>533.397</ele>
      </trkpt>
      <trkpt lat="37.46594" lon="27.66371">
        <ele>532.578</ele>
      </trkpt>
      <trkpt lat="37.46586" lon="27.66379">
        <ele>532.49</ele>
      </trkpt>
      <trkpt lat="37.46575" lon="27.66378">
        <ele>530.57</ele>
      </trkpt>
      <trkpt lat="37.46567" lon="27.66385">
        <ele>530.857</ele>
      </trkpt>
      <trkpt lat="37.46556" lon="27.66396">
        <ele>531.172</ele>
      </trkpt>
      <trkpt lat="37.46544" lon="27.66406">
        <ele>530.446</ele>
      </trkpt>
      <trkpt lat="37.46535" lon="27.66418">
        <ele>530.3</ele>
      </trkpt>
      <trkpt lat="37.4653" lon="27.6643">
        <ele>529.391</ele>
      </trkpt>
      <trkpt lat="37.46525" lon="27.66445">
        <ele>528.637</ele>
      </trkpt>
      <trkpt lat="37.46528" lon="27.66463">
        <ele>530.318</ele>
      </trkpt>
      <trkpt lat="37.46527" lon="27.66476">
        <ele>531.471</ele>
      </trkpt>
      <trkpt lat="37.46516" lon="27.66486">
        <ele>531.839</ele>
      </trkpt>
      <trkpt lat="37.46507" lon="27.6649">
        <ele>531.662</ele>
      </trkpt>
      <trkpt lat="37.46494" lon="27.66488">
        <ele>530</ele>
      </trkpt>
      <trkpt lat="37.46478" lon="27.66485">
        <ele>528.72</ele>
      </trkpt>
      <trkpt lat="37.46461" lon="27.66492">
        <ele>529.215</ele>
      </trkpt>
      <trkpt lat="37.46457" lon="27.66489">
        <ele>528.989</ele>
      </trkpt>
      <trkpt lat="37.46444" lon="27.6648">
        <ele>528.55</ele>
      </trkpt>
      <trkpt lat="37.46437" lon="27.6648">
        <ele>528.414</ele>
      </trkpt>
      <trkpt lat="37.46432" lon="27.66489">
        <ele>528.693</ele>
      </trkpt>
      <trkpt lat="37.46433" lon="27.66484">
        <ele>528.527</ele>
      </trkpt>
      <trkpt lat="37.46434" lon="27.66497">
        <ele>529.094</ele>
      </trkpt>
      <trkpt lat="37.46431" lon="27.6651">
        <ele>529.432</ele>
      </trkpt>
      <trkpt lat="37.46438" lon="27.66528">
        <ele>531.141</ele>
      </trkpt>
      <trkpt lat="37.46438" lon="27.66537">
        <ele>531.586</ele>
      </trkpt>
      <trkpt lat="37.46433" lon="27.66546">
        <ele>531.355</ele>
      </trkpt>
      <trkpt lat="37.46433" lon="27.66545">
        <ele>531.364</ele>
      </trkpt>
      <trkpt lat="37.46433" lon="27.66545">
        <ele>531.271</ele>
      </trkpt>
      <trkpt lat="37.46435" lon="27.66545">
        <ele>531.592</ele>
      </trkpt>
      <trkpt lat="37.46433" lon="27.66545">
        <ele>531.32</ele>
      </trkpt>
      <trkpt lat="37.46434" lon="27.66546">
        <ele>531.489</ele>
      </trkpt>
      <trkpt lat="37.46431" lon="27.66547">
        <ele>531.138</ele>
      </trkpt>
      <trkpt lat="37.46432" lon="27.66551">
        <ele>531.415</ele>
      </trkpt>
      <trkpt lat="37.46425" lon="27.66558">
        <ele>530.557</ele>
      </trkpt>
      <trkpt lat="37.46417" lon="27.66559">
        <ele>529.133</ele>
      </trkpt>
      <trkpt lat="37.46411" lon="27.66564">
        <ele>528.471</ele>
      </trkpt>
      <trkpt lat="37.46404" lon="27.66565">
        <ele>527.831</ele>
      </trkpt>
      <trkpt lat="37.46396" lon="27.6656">
        <ele>526.843</ele>
      </trkpt>
      <trkpt lat="37.46392" lon="27.66559">
        <ele>526.469</ele>
      </trkpt>
      <trkpt lat="37.46385" lon="27.66559">
        <ele>525.757</ele>
      </trkpt>
      <trkpt lat="37.46376" lon="27.66559">
        <ele>524.973</ele>
      </trkpt>
      <trkpt lat="37.46374" lon="27.6656">
        <ele>524.998</ele>
      </trkpt>
      <trkpt lat="37.46368" lon="27.66564">
        <ele>525.174</ele>
      </trkpt>
      <trkpt lat="37.46358" lon="27.66563">
        <ele>524.634</ele>
      </trkpt>
      <trkpt lat="37.46346" lon="27.66557">
        <ele>523.226</ele>
      </trkpt>
      <trkpt lat="37.46336" lon="27.6655">
        <ele>522.132</ele>
      </trkpt>
      <trkpt lat="37.46328" lon="27.66544">
        <ele>520.54</ele>
      </trkpt>
      <trkpt lat="37.46312" lon="27.66532">
        <ele>516.758</ele>
      </trkpt>
      <trkpt lat="37.46308" lon="27.66538">
        <ele>517.814</ele>
      </trkpt>
      <trkpt lat="37.46299" lon="27.66544">
        <ele>519.023</ele>
      </trkpt>
      <trkpt lat="37.46299" lon="27.66545">
        <ele>519.204</ele>
      </trkpt>
      <trkpt lat="37.46294" lon="27.66543">
        <ele>518.705</ele>
      </trkpt>
      <trkpt lat="37.4628" lon="27.66539">
        <ele>518.013</ele>
      </trkpt>
      <trkpt lat="37.46269" lon="27.66548">
        <ele>520.916</ele>
      </trkpt>
      <trkpt lat="37.4626" lon="27.66546">
        <ele>522.153</ele>
      </trkpt>
      <trkpt lat="37.46256" lon="27.66547">
        <ele>522.817</ele>
      </trkpt>
      <trkpt lat="37.46241" lon="27.66549">
        <ele>524.294</ele>
      </trkpt>
      <trkpt lat="37.46229" lon="27.66547">
        <ele>524.078</ele>
      </trkpt>
      <trkpt lat="37.46216" lon="27.66548">
        <ele>524.906</ele>
      </trkpt>
      <trkpt lat="37.46215" lon="27.66548">
        <ele>525.089</ele>
      </trkpt>
      <trkpt lat="37.46197" lon="27.66545">
        <ele>525.809</ele>
      </trkpt>
      <trkpt lat="37.46191" lon="27.66541">
        <ele>525.344</ele>
      </trkpt>
      <trkpt lat="37.46186" lon="27.6654">
        <ele>526.326</ele>
      </trkpt>
      <trkpt lat="37.46181" lon="27.66538">
        <ele>526.837</ele>
      </trkpt>
      <trkpt lat="37.46172" lon="27.66536">
        <ele>528.247</ele>
      </trkpt>
      <trkpt lat="37.46159" lon="27.66534">
        <ele>530.505</ele>
      </trkpt>
      <trkpt lat="37.46156" lon="27.66532">
        <ele>530.444</ele>
      </trkpt>
      <trkpt lat="37.46147" lon="27.66528">
        <ele>531.204</ele>
      </trkpt>
      <trkpt lat="37.46133" lon="27.66519">
        <ele>531.516</ele>
      </trkpt>
      <trkpt lat="37.46118" lon="27.66511">
        <ele>530.877</ele>
      </trkpt>
      <trkpt lat="37.46105" lon="27.66513">
        <ele>534.464</ele>
      </trkpt>
      <trkpt lat="37.46104" lon="27.66512">
        <ele>534.974</ele>
      </trkpt>
      <trkpt lat="37.46099" lon="27.665">
        <ele>532.749</ele>
      </trkpt>
      <trkpt lat="37.46099" lon="27.66496">
        <ele>531.397</ele>
      </trkpt>
      <trkpt lat="37.46096" lon="27.66496">
        <ele>532.786</ele>
      </trkpt>
      <trkpt lat="37.46092" lon="27.66494">
        <ele>533.627</ele>
      </trkpt>
      <trkpt lat="37.46079" lon="27.66489">
        <ele>536.361</ele>
      </trkpt>
      <trkpt lat="37.46064" lon="27.66477">
        <ele>536.8</ele>
      </trkpt>
      <trkpt lat="37.46064" lon="27.66476">
        <ele>536.597</ele>
      </trkpt>
      <trkpt lat="37.46059" lon="27.66474">
        <ele>537.48</ele>
      </trkpt>
      <trkpt lat="37.46048" lon="27.66465">
        <ele>536.608</ele>
      </trkpt>
      <trkpt lat="37.46032" lon="27.66452">
        <ele>534.65</ele>
      </trkpt>
      <trkpt lat="37.46022" lon="27.66444">
        <ele>533.904</ele>
      </trkpt>
      <trkpt lat="37.4601" lon="27.66435">
        <ele>533.834</ele>
      </trkpt>
      <trkpt lat="37.45998" lon="27.66428">
        <ele>533.77</ele>
      </trkpt>
      <trkpt lat="37.45998" lon="27.66428">
        <ele>533.69</ele>
      </trkpt>
      <trkpt lat="37.45998" lon="27.66429">
        <ele>533.958</ele>
      </trkpt>
      <trkpt lat="37.45975" lon="27.66426">
        <ele>532.279</ele>
      </trkpt>
      <trkpt lat="37.45973" lon="27.66427">
        <ele>532.235</ele>
      </trkpt>
      <trkpt lat="37.4597" lon="27.66426">
        <ele>531.772</ele>
      </trkpt>
      <trkpt lat="37.45953" lon="27.66429">
        <ele>531.359</ele>
      </trkpt>
      <trkpt lat="37.45931" lon="27.66437">
        <ele>531.525</ele>
      </trkpt>
      <trkpt lat="37.45916" lon="27.66445">
        <ele>530.802</ele>
      </trkpt>
      <trkpt lat="37.45915" lon="27.66445">
        <ele>530.534</ele>
      </trkpt>
      <trkpt lat="37.45909" lon="27.66448">
        <ele>529.248</ele>
      </trkpt>
      <trkpt lat="37.45907" lon="27.66451">
        <ele>528.973</ele>
      </trkpt>
      <trkpt lat="37.45903" lon="27.66445">
        <ele>527.465</ele>
      </trkpt>
      <trkpt lat="37.45895" lon="27.66436">
        <ele>524.006</ele>
      </trkpt>
      <trkpt lat="37.45882" lon="27.66442">
        <ele>521.289</ele>
      </trkpt>
      <trkpt lat="37.45872" lon="27.66455">
        <ele>518.812</ele>
      </trkpt>
      <trkpt lat="37.45869" lon="27.66476">
        <ele>517.95</ele>
      </trkpt>
      <trkpt lat="37.4587" lon="27.66493">
        <ele>516.251</ele>
      </trkpt>
      <trkpt lat="37.45871" lon="27.66498">
        <ele>515.88</ele>
      </trkpt>
      <trkpt lat="37.45874" lon="27.66514">
        <ele>514.402</ele>
      </trkpt>
      <trkpt lat="37.45879" lon="27.66531">
        <ele>513.525</ele>
      </trkpt>
      <trkpt lat="37.45883" lon="27.66547">
        <ele>512.348</ele>
      </trkpt>
      <trkpt lat="37.45888" lon="27.66564">
        <ele>511.117</ele>
      </trkpt>
      <trkpt lat="37.45892" lon="27.66577">
        <ele>510.101</ele>
      </trkpt>
      <trkpt lat="37.45896" lon="27.66594">
        <ele>508.895</ele>
      </trkpt>
      <trkpt lat="37.45898" lon="27.66599">
        <ele>508.698</ele>
      </trkpt>
      <trkpt lat="37.45904" lon="27.6661">
        <ele>509.279</ele>
      </trkpt>
      <trkpt lat="37.4591" lon="27.66622">
        <ele>508.803</ele>
      </trkpt>
      <trkpt lat="37.45917" lon="27.66635">
        <ele>507.807</ele>
      </trkpt>
      <trkpt lat="37.45927" lon="27.66645">
        <ele>508.823</ele>
      </trkpt>
      <trkpt lat="37.45925" lon="27.66646">
        <ele>508.05</ele>
      </trkpt>
      <trkpt lat="37.45922" lon="27.66653">
        <ele>506.243</ele>
      </trkpt>
      <trkpt lat="37.45913" lon="27.66656">
        <ele>503.751</ele>
      </trkpt>
      <trkpt lat="37.45905" lon="27.66657">
        <ele>501.793</ele>
      </trkpt>
      <trkpt lat="37.45899" lon="27.66666">
        <ele>499.241</ele>
      </trkpt>
      <trkpt lat="37.45893" lon="27.66672">
        <ele>497.547</ele>
      </trkpt>
      <trkpt lat="37.45893" lon="27.66686">
        <ele>496.67</ele>
      </trkpt>
      <trkpt lat="37.45894" lon="27.66687">
        <ele>496.689</ele>
      </trkpt>
      <trkpt lat="37.459" lon="27.66718">
        <ele>494.004</ele>
      </trkpt>
      <trkpt lat="37.459" lon="27.66718">
        <ele>494.004</ele>
      </trkpt>
      <trkpt lat="37.459" lon="27.66718">
        <ele>494.004</ele>
      </trkpt>
      <trkpt lat="37.459" lon="27.66718">
        <ele>494.004</ele>
      </trkpt>
      <trkpt lat="37.45899" lon="27.66719">
        <ele>493.807</ele>
      </trkpt>
      <trkpt lat="37.45909" lon="27.66728">
        <ele>494.546</ele>
      </trkpt>
      <trkpt lat="37.45909" lon="27.66728">
        <ele>494.632</ele>
      </trkpt>
      <trkpt lat="37.4591" lon="27.66728">
        <ele>494.637</ele>
      </trkpt>
      <trkpt lat="37.45915" lon="27.66734">
        <ele>494.916</ele>
      </trkpt>
      <trkpt lat="37.45916" lon="27.66737">
        <ele>494.889</ele>
      </trkpt>
      <trkpt lat="37.4592" lon="27.66738">
        <ele>495.6</ele>
      </trkpt>
      <trkpt lat="37.45925" lon="27.66742">
        <ele>496.468</ele>
      </trkpt>
      <trkpt lat="37.45927" lon="27.66746">
        <ele>496.684</ele>
      </trkpt>
      <trkpt lat="37.45932" lon="27.66752">
        <ele>497.316</ele>
      </trkpt>
      <trkpt lat="37.45942" lon="27.6676">
        <ele>499.041</ele>
      </trkpt>
      <trkpt lat="37.45942" lon="27.66761">
        <ele>499.209</ele>
      </trkpt>
      <trkpt lat="37.45953" lon="27.66771">
        <ele>500.086</ele>
      </trkpt>
      <trkpt lat="37.45961" lon="27.66778">
        <ele>500.372</ele>
      </trkpt>
      <trkpt lat="37.45963" lon="27.66779">
        <ele>500.569</ele>
      </trkpt>
      <trkpt lat="37.45964" lon="27.66779">
        <ele>500.487</ele>
      </trkpt>
      <trkpt lat="37.45973" lon="27.6679">
        <ele>499.497</ele>
      </trkpt>
      <trkpt lat="37.45982" lon="27.66804">
        <ele>496.72</ele>
      </trkpt>
      <trkpt lat="37.45983" lon="27.66805">
        <ele>496.56</ele>
      </trkpt>
      <trkpt lat="37.45985" lon="27.6681">
        <ele>496.294</ele>
      </trkpt>
      <trkpt lat="37.45987" lon="27.66813">
        <ele>496.308</ele>
      </trkpt>
      <trkpt lat="37.45996" lon="27.66828">
        <ele>497.16</ele>
      </trkpt>
      <trkpt lat="37.45997" lon="27.6684">
        <ele>497.724</ele>
      </trkpt>
      <trkpt lat="37.45996" lon="27.66848">
        <ele>497.637</ele>
      </trkpt>
      <trkpt lat="37.45995" lon="27.66852">
        <ele>497.578</ele>
      </trkpt>
      <trkpt lat="37.45994" lon="27.66862">
        <ele>497.804</ele>
      </trkpt>
      <trkpt lat="37.45992" lon="27.66874">
        <ele>497.703</ele>
      </trkpt>
      <trkpt lat="37.45989" lon="27.66886">
        <ele>497.486</ele>
      </trkpt>
      <trkpt lat="37.45981" lon="27.66898">
        <ele>497.271</ele>
      </trkpt>
      <trkpt lat="37.45975" lon="27.66918">
        <ele>498.987</ele>
      </trkpt>
      <trkpt lat="37.45974" lon="27.66924">
        <ele>500.111</ele>
      </trkpt>
      <trkpt lat="37.45974" lon="27.66925">
        <ele>500.189</ele>
      </trkpt>
      <trkpt lat="37.45971" lon="27.66936">
        <ele>501.808</ele>
      </trkpt>
      <trkpt lat="37.4597" lon="27.66941">
        <ele>502.555</ele>
      </trkpt>
      <trkpt lat="37.45966" lon="27.66952">
        <ele>503.762</ele>
      </trkpt>
      <trkpt lat="37.45965" lon="27.66959">
        <ele>505.054</ele>
      </trkpt>
      <trkpt lat="37.4596" lon="27.66974">
        <ele>506.831</ele>
      </trkpt>
      <trkpt lat="37.45959" lon="27.66981">
        <ele>507.403</ele>
      </trkpt>
      <trkpt lat="37.4596" lon="27.66988">
        <ele>508.328</ele>
      </trkpt>
      <trkpt lat="37.45961" lon="27.67007">
        <ele>510.924</ele>
      </trkpt>
      <trkpt lat="37.45964" lon="27.67027">
        <ele>514.066</ele>
      </trkpt>
      <trkpt lat="37.45968" lon="27.67043">
        <ele>515.702</ele>
      </trkpt>
      <trkpt lat="37.45966" lon="27.6704">
        <ele>514.934</ele>
      </trkpt>
      <trkpt lat="37.45965" lon="27.67046">
        <ele>514.272</ele>
      </trkpt>
      <trkpt lat="37.45961" lon="27.67055">
        <ele>512.57</ele>
      </trkpt>
      <trkpt lat="37.45958" lon="27.67061">
        <ele>510.71</ele>
      </trkpt>
      <trkpt lat="37.45955" lon="27.6706">
        <ele>509.58</ele>
      </trkpt>
      <trkpt lat="37.45953" lon="27.67061">
        <ele>508.783</ele>
      </trkpt>
      <trkpt lat="37.45953" lon="27.67067">
        <ele>508.346</ele>
      </trkpt>
      <trkpt lat="37.45958" lon="27.6708">
        <ele>508.553</ele>
      </trkpt>
      <trkpt lat="37.45961" lon="27.67091">
        <ele>508.062</ele>
      </trkpt>
      <trkpt lat="37.45963" lon="27.67096">
        <ele>507.818</ele>
      </trkpt>
      <trkpt lat="37.45963" lon="27.67097">
        <ele>507.726</ele>
      </trkpt>
      <trkpt lat="37.45965" lon="27.67107">
        <ele>506.559</ele>
      </trkpt>
      <trkpt lat="37.45968" lon="27.6712">
        <ele>505.052</ele>
      </trkpt>
      <trkpt lat="37.4597" lon="27.67133">
        <ele>503.065</ele>
      </trkpt>
      <trkpt lat="37.45969" lon="27.67131">
        <ele>503.269</ele>
      </trkpt>
      <trkpt lat="37.45972" lon="27.67142">
        <ele>501.84</ele>
      </trkpt>
      <trkpt lat="37.45978" lon="27.67155">
        <ele>501.085</ele>
      </trkpt>
      <trkpt lat="37.45977" lon="27.67159">
        <ele>499.492</ele>
      </trkpt>
      <trkpt lat="37.45978" lon="27.6717">
        <ele>497.38</ele>
      </trkpt>
      <trkpt lat="37.45981" lon="27.67182">
        <ele>496.852</ele>
      </trkpt>
      <trkpt lat="37.45979" lon="27.67185">
        <ele>494.782</ele>
      </trkpt>
      <trkpt lat="37.4598" lon="27.67193">
        <ele>494.084</ele>
      </trkpt>
      <trkpt lat="37.45983" lon="27.6719">
        <ele>495.952</ele>
      </trkpt>
      <trkpt lat="37.45987" lon="27.67197">
        <ele>496.984</ele>
      </trkpt>
      <trkpt lat="37.45987" lon="27.67205">
        <ele>494.944</ele>
      </trkpt>
      <trkpt lat="37.45991" lon="27.67215">
        <ele>495.18</ele>
      </trkpt>
      <trkpt lat="37.45992" lon="27.67224">
        <ele>493.562</ele>
      </trkpt>
      <trkpt lat="37.45992" lon="27.67237">
        <ele>488.962</ele>
      </trkpt>
      <trkpt lat="37.45997" lon="27.67256">
        <ele>485.775</ele>
      </trkpt>
      <trkpt lat="37.45999" lon="27.67262">
        <ele>484.485</ele>
      </trkpt>
      <trkpt lat="37.46003" lon="27.67265">
        <ele>484.924</ele>
      </trkpt>
      <trkpt lat="37.46005" lon="27.67271">
        <ele>484.042</ele>
      </trkpt>
      <trkpt lat="37.46009" lon="27.67276">
        <ele>483.546</ele>
      </trkpt>
      <trkpt lat="37.4601" lon="27.67276">
        <ele>483.721</ele>
      </trkpt>
      <trkpt lat="37.46011" lon="27.67281">
        <ele>482.66</ele>
      </trkpt>
      <trkpt lat="37.46013" lon="27.67289">
        <ele>480.434</ele>
      </trkpt>
      <trkpt lat="37.46018" lon="27.673">
        <ele>478.311</ele>
      </trkpt>
      <trkpt lat="37.46023" lon="27.67312">
        <ele>476.576</ele>
      </trkpt>
      <trkpt lat="37.46024" lon="27.67321">
        <ele>474.626</ele>
      </trkpt>
      <trkpt lat="37.46024" lon="27.67331">
        <ele>472.06</ele>
      </trkpt>
      <trkpt lat="37.46026" lon="27.67345">
        <ele>472.569</ele>
      </trkpt>
      <trkpt lat="37.46016" lon="27.67348">
        <ele>471.765</ele>
      </trkpt>
      <trkpt lat="37.46015" lon="27.67347">
        <ele>471.624</ele>
      </trkpt>
      <trkpt lat="37.46004" lon="27.67344">
        <ele>469.954</ele>
      </trkpt>
      <trkpt lat="37.45997" lon="27.6734">
        <ele>468.359</ele>
      </trkpt>
      <trkpt lat="37.45997" lon="27.67339">
        <ele>468.285</ele>
      </trkpt>
      <trkpt lat="37.45997" lon="27.67343">
        <ele>468.722</ele>
      </trkpt>
      <trkpt lat="37.45994" lon="27.67347">
        <ele>468.961</ele>
      </trkpt>
      <trkpt lat="37.45981" lon="27.67362">
        <ele>470.213</ele>
      </trkpt>
      <trkpt lat="37.45977" lon="27.67362">
        <ele>469.746</ele>
      </trkpt>
      <trkpt lat="37.45967" lon="27.67358">
        <ele>467.533</ele>
      </trkpt>
      <trkpt lat="37.45958" lon="27.67361">
        <ele>467.455</ele>
      </trkpt>
      <trkpt lat="37.45954" lon="27.67366">
        <ele>468.556</ele>
      </trkpt>
      <trkpt lat="37.45945" lon="27.6738">
        <ele>472.208</ele>
      </trkpt>
      <trkpt lat="37.4594" lon="27.67379">
        <ele>472.097</ele>
      </trkpt>
      <trkpt lat="37.45936" lon="27.67375">
        <ele>471.103</ele>
      </trkpt>
      <trkpt lat="37.45924" lon="27.67373">
        <ele>471.037</ele>
      </trkpt>
      <trkpt lat="37.45913" lon="27.67378">
        <ele>473.346</ele>
      </trkpt>
      <trkpt lat="37.45902" lon="27.67379">
        <ele>474.307</ele>
      </trkpt>
      <trkpt lat="37.45894" lon="27.67382">
        <ele>476.241</ele>
      </trkpt>
      <trkpt lat="37.45892" lon="27.67382">
        <ele>476.659</ele>
      </trkpt>
      <trkpt lat="37.45882" lon="27.67385">
        <ele>477.213</ele>
      </trkpt>
      <trkpt lat="37.45883" lon="27.67384">
        <ele>476.679</ele>
      </trkpt>
      <trkpt lat="37.45881" lon="27.67389">
        <ele>478.933</ele>
      </trkpt>
      <trkpt lat="37.45875" lon="27.67396">
        <ele>479.501</ele>
      </trkpt>
      <trkpt lat="37.45868" lon="27.67411">
        <ele>481.75</ele>
      </trkpt>
      <trkpt lat="37.45864" lon="27.67428">
        <ele>484.639</ele>
      </trkpt>
      <trkpt lat="37.45855" lon="27.67435">
        <ele>483.069</ele>
      </trkpt>
      <trkpt lat="37.45845" lon="27.67438">
        <ele>480.213</ele>
      </trkpt>
      <trkpt lat="37.45837" lon="27.67446">
        <ele>478.347</ele>
      </trkpt>
      <trkpt lat="37.45829" lon="27.67461">
        <ele>475.217</ele>
      </trkpt>
      <trkpt lat="37.45827" lon="27.6747">
        <ele>474.269</ele>
      </trkpt>
      <trkpt lat="37.45829" lon="27.67476">
        <ele>473.556</ele>
      </trkpt>
      <trkpt lat="37.45828" lon="27.67488">
        <ele>469.642</ele>
      </trkpt>
      <trkpt lat="37.45823" lon="27.67494">
        <ele>466.66</ele>
      </trkpt>
      <trkpt lat="37.45824" lon="27.67501">
        <ele>464.744</ele>
      </trkpt>
      <trkpt lat="37.45826" lon="27.67517">
        <ele>461.609</ele>
      </trkpt>
      <trkpt lat="37.45828" lon="27.67531">
        <ele>459.031</ele>
      </trkpt>
      <trkpt lat="37.45827" lon="27.67538">
        <ele>457.613</ele>
      </trkpt>
      <trkpt lat="37.4583" lon="27.67547">
        <ele>456.761</ele>
      </trkpt>
      <trkpt lat="37.45832" lon="27.67551">
        <ele>456.478</ele>
      </trkpt>
      <trkpt lat="37.45832" lon="27.67556">
        <ele>455.651</ele>
      </trkpt>
      <trkpt lat="37.45832" lon="27.67563">
        <ele>454.023</ele>
      </trkpt>
      <trkpt lat="37.45835" lon="27.67578">
        <ele>450.948</ele>
      </trkpt>
      <trkpt lat="37.4584" lon="27.67585">
        <ele>450.55</ele>
      </trkpt>
      <trkpt lat="37.45842" lon="27.67587">
        <ele>451.078</ele>
      </trkpt>
      <trkpt lat="37.4585" lon="27.67585">
        <ele>453.597</ele>
      </trkpt>
      <trkpt lat="37.45861" lon="27.67588">
        <ele>456.246</ele>
      </trkpt>
      <trkpt lat="37.45871" lon="27.67597">
        <ele>458.957</ele>
      </trkpt>
      <trkpt lat="37.45872" lon="27.67597">
        <ele>459.09</ele>
      </trkpt>
      <trkpt lat="37.45871" lon="27.67597">
        <ele>458.913</ele>
      </trkpt>
      <trkpt lat="37.45871" lon="27.67606">
        <ele>457.423</ele>
      </trkpt>
      <trkpt lat="37.45871" lon="27.67615">
        <ele>456.545</ele>
      </trkpt>
      <trkpt lat="37.45873" lon="27.67619">
        <ele>457.541</ele>
      </trkpt>
      <trkpt lat="37.4587" lon="27.67624">
        <ele>456.374</ele>
      </trkpt>
      <trkpt lat="37.45873" lon="27.67629">
        <ele>457.487</ele>
      </trkpt>
      <trkpt lat="37.45876" lon="27.6763">
        <ele>458.797</ele>
      </trkpt>
      <trkpt lat="37.45876" lon="27.67633">
        <ele>458.898</ele>
      </trkpt>
      <trkpt lat="37.45873" lon="27.67636">
        <ele>457.741</ele>
      </trkpt>
      <trkpt lat="37.45873" lon="27.67643">
        <ele>457.494</ele>
      </trkpt>
      <trkpt lat="37.45874" lon="27.67646">
        <ele>458.118</ele>
      </trkpt>
      <trkpt lat="37.45876" lon="27.67651">
        <ele>458.743</ele>
      </trkpt>
      <trkpt lat="37.45876" lon="27.67655">
        <ele>458.689</ele>
      </trkpt>
      <trkpt lat="37.45879" lon="27.67661">
        <ele>459.586</ele>
      </trkpt>
      <trkpt lat="37.4588" lon="27.67663">
        <ele>459.796</ele>
      </trkpt>
      <trkpt lat="37.45882" lon="27.67678">
        <ele>461.019</ele>
      </trkpt>
      <trkpt lat="37.45884" lon="27.67688">
        <ele>462.32</ele>
      </trkpt>
      <trkpt lat="37.45883" lon="27.67705">
        <ele>464.573</ele>
      </trkpt>
      <trkpt lat="37.45882" lon="27.6771">
        <ele>465.42</ele>
      </trkpt>
      <trkpt lat="37.4588" lon="27.67712">
        <ele>464.871</ele>
      </trkpt>
      <trkpt lat="37.45875" lon="27.67722">
        <ele>464.546</ele>
      </trkpt>
      <trkpt lat="37.45868" lon="27.67735">
        <ele>462.9</ele>
      </trkpt>
      <trkpt lat="37.45867" lon="27.67749">
        <ele>464.147</ele>
      </trkpt>
      <trkpt lat="37.45862" lon="27.67768">
        <ele>463.674</ele>
      </trkpt>
      <trkpt lat="37.45858" lon="27.67772">
        <ele>462.829</ele>
      </trkpt>
      <trkpt lat="37.45857" lon="27.67776">
        <ele>463.05</ele>
      </trkpt>
      <trkpt lat="37.45857" lon="27.67783">
        <ele>464.251</ele>
      </trkpt>
      <trkpt lat="37.45857" lon="27.67791">
        <ele>465.895</ele>
      </trkpt>
      <trkpt lat="37.45861" lon="27.67804">
        <ele>468.675</ele>
      </trkpt>
      <trkpt lat="37.45861" lon="27.67809">
        <ele>469.488</ele>
      </trkpt>
      <trkpt lat="37.45864" lon="27.67815">
        <ele>470.817</ele>
      </trkpt>
      <trkpt lat="37.45865" lon="27.67815">
        <ele>471.023</ele>
      </trkpt>
      <trkpt lat="37.45872" lon="27.67816">
        <ele>472.138</ele>
      </trkpt>
      <trkpt lat="37.45875" lon="27.6782">
        <ele>473.014</ele>
      </trkpt>
      <trkpt lat="37.45879" lon="27.67821">
        <ele>473.698</ele>
      </trkpt>
      <trkpt lat="37.45884" lon="27.67825">
        <ele>474.798</ele>
      </trkpt>
      <trkpt lat="37.45891" lon="27.67829">
        <ele>476.597</ele>
      </trkpt>
      <trkpt lat="37.45898" lon="27.67842">
        <ele>479.848</ele>
      </trkpt>
      <trkpt lat="37.45899" lon="27.67844">
        <ele>480.308</ele>
      </trkpt>
      <trkpt lat="37.45906" lon="27.6786">
        <ele>482.796</ele>
      </trkpt>
      <trkpt lat="37.45913" lon="27.67868">
        <ele>484.667</ele>
      </trkpt>
      <trkpt lat="37.45918" lon="27.67869">
        <ele>486.129</ele>
      </trkpt>
      <trkpt lat="37.45923" lon="27.67885">
        <ele>487.76</ele>
      </trkpt>
      <trkpt lat="37.45924" lon="27.67901">
        <ele>487.649</ele>
      </trkpt>
      <trkpt lat="37.45923" lon="27.67906">
        <ele>487.16</ele>
      </trkpt>
      <trkpt lat="37.45924" lon="27.67909">
        <ele>487.258</ele>
      </trkpt>
      <trkpt lat="37.45926" lon="27.67916">
        <ele>487.979</ele>
      </trkpt>
      <trkpt lat="37.45929" lon="27.6793">
        <ele>490.949</ele>
      </trkpt>
      <trkpt lat="37.45933" lon="27.67945">
        <ele>493.797</ele>
      </trkpt>
      <trkpt lat="37.45934" lon="27.67956">
        <ele>495.384</ele>
      </trkpt>
      <trkpt lat="37.45933" lon="27.6796">
        <ele>495.989</ele>
      </trkpt>
      <trkpt lat="37.45933" lon="27.67963">
        <ele>496.304</ele>
      </trkpt>
      <trkpt lat="37.45939" lon="27.67977">
        <ele>497.886</ele>
      </trkpt>
      <trkpt lat="37.45939" lon="27.67987">
        <ele>498.128</ele>
      </trkpt>
      <trkpt lat="37.45937" lon="27.67988">
        <ele>498.182</ele>
      </trkpt>
      <trkpt lat="37.45933" lon="27.68001">
        <ele>498.869</ele>
      </trkpt>
      <trkpt lat="37.45934" lon="27.68004">
        <ele>499.023</ele>
      </trkpt>
      <trkpt lat="37.45935" lon="27.68011">
        <ele>499.589</ele>
      </trkpt>
      <trkpt lat="37.45938" lon="27.68024">
        <ele>500.664</ele>
      </trkpt>
      <trkpt lat="37.45938" lon="27.68026">
        <ele>500.861</ele>
      </trkpt>
      <trkpt lat="37.45937" lon="27.68035">
        <ele>501.666</ele>
      </trkpt>
      <trkpt lat="37.45936" lon="27.68042">
        <ele>502.198</ele>
      </trkpt>
      <trkpt lat="37.45937" lon="27.6805">
        <ele>502.942</ele>
      </trkpt>
      <trkpt lat="37.45942" lon="27.6806">
        <ele>503.978</ele>
      </trkpt>
      <trkpt lat="37.4594" lon="27.68061">
        <ele>503.79</ele>
      </trkpt>
      <trkpt lat="37.4593" lon="27.68064">
        <ele>502.75</ele>
      </trkpt>
      <trkpt lat="37.45929" lon="27.68064">
        <ele>502.694</ele>
      </trkpt>
      <trkpt lat="37.45928" lon="27.68066">
        <ele>502.584</ele>
      </trkpt>
      <trkpt lat="37.45931" lon="27.68074">
        <ele>502.727</ele>
      </trkpt>
      <trkpt lat="37.4593" lon="27.68085">
        <ele>502.138</ele>
      </trkpt>
      <trkpt lat="37.45934" lon="27.68106">
        <ele>500.151</ele>
      </trkpt>
      <trkpt lat="37.45947" lon="27.6811">
        <ele>502.613</ele>
      </trkpt>
      <trkpt lat="37.45945" lon="27.68109">
        <ele>502.392</ele>
      </trkpt>
      <trkpt lat="37.45949" lon="27.68111">
        <ele>503.11</ele>
      </trkpt>
      <trkpt lat="37.45949" lon="27.68112">
        <ele>502.944</ele>
      </trkpt>
      <trkpt lat="37.45952" lon="27.68121">
        <ele>501.242</ele>
      </trkpt>
      <trkpt lat="37.45953" lon="27.68122">
        <ele>501.312</ele>
      </trkpt>
      <trkpt lat="37.45961" lon="27.68129">
        <ele>500.897</ele>
      </trkpt>
      <trkpt lat="37.45964" lon="27.68137">
        <ele>499.407</ele>
      </trkpt>
      <trkpt lat="37.45971" lon="27.68141">
        <ele>498.978</ele>
      </trkpt>
      <trkpt lat="37.45968" lon="27.68144">
        <ele>497.258</ele>
      </trkpt>
      <trkpt lat="37.45967" lon="27.68146">
        <ele>496.545</ele>
      </trkpt>
      <trkpt lat="37.45972" lon="27.68152">
        <ele>495.103</ele>
      </trkpt>
      <trkpt lat="37.45963" lon="27.68155">
        <ele>491.894</ele>
      </trkpt>
      <trkpt lat="37.45957" lon="27.68144">
        <ele>495.199</ele>
      </trkpt>
      <trkpt lat="37.45956" lon="27.68143">
        <ele>495.586</ele>
      </trkpt>
      <trkpt lat="37.45951" lon="27.68149">
        <ele>491.853</ele>
      </trkpt>
      <trkpt lat="37.45956" lon="27.6816">
        <ele>488.078</ele>
      </trkpt>
      <trkpt lat="37.45962" lon="27.6817">
        <ele>485.248</ele>
      </trkpt>
      <trkpt lat="37.45967" lon="27.68178">
        <ele>483.531</ele>
      </trkpt>
      <trkpt lat="37.45964" lon="27.68185">
        <ele>479.073</ele>
      </trkpt>
      <trkpt lat="37.45965" lon="27.68187">
        <ele>478.406</ele>
      </trkpt>
      <trkpt lat="37.45975" lon="27.68195">
        <ele>478.849</ele>
      </trkpt>
      <trkpt lat="37.45987" lon="27.68203">
        <ele>479.17</ele>
      </trkpt>
      <trkpt lat="37.4599" lon="27.68208">
        <ele>478.032</ele>
      </trkpt>
      <trkpt lat="37.45991" lon="27.68214">
        <ele>476.364</ele>
      </trkpt>
      <trkpt lat="37.45996" lon="27.68218">
        <ele>476.049</ele>
      </trkpt>
      <trkpt lat="37.46002" lon="27.68226">
        <ele>474.599</ele>
      </trkpt>
      <trkpt lat="37.45998" lon="27.68228">
        <ele>472.915</ele>
      </trkpt>
      <trkpt lat="37.45997" lon="27.68234">
        <ele>469.991</ele>
      </trkpt>
      <trkpt lat="37.46" lon="27.68236">
        <ele>470.24</ele>
      </trkpt>
      <trkpt lat="37.46013" lon="27.68242">
        <ele>469.935</ele>
      </trkpt>
      <trkpt lat="37.46026" lon="27.68244">
        <ele>471.453</ele>
      </trkpt>
      <trkpt lat="37.46028" lon="27.68245">
        <ele>471.235</ele>
      </trkpt>
      <trkpt lat="37.46039" lon="27.68252">
        <ele>467.758</ele>
      </trkpt>
      <trkpt lat="37.46052" lon="27.6825">
        <ele>468.266</ele>
      </trkpt>
      <trkpt lat="37.46064" lon="27.6825">
        <ele>467.859</ele>
      </trkpt>
      <trkpt lat="37.46071" lon="27.68253">
        <ele>466.569</ele>
      </trkpt>
      <trkpt lat="37.4608" lon="27.68257">
        <ele>464.198</ele>
      </trkpt>
      <trkpt lat="37.46078" lon="27.68259">
        <ele>463.044</ele>
      </trkpt>
      <trkpt lat="37.46077" lon="27.68262">
        <ele>461.481</ele>
      </trkpt>
      <trkpt lat="37.46082" lon="27.68264">
        <ele>460.586</ele>
      </trkpt>
      <trkpt lat="37.46091" lon="27.68261">
        <ele>461.493</ele>
      </trkpt>
      <trkpt lat="37.46102" lon="27.68261">
        <ele>460.293</ele>
      </trkpt>
      <trkpt lat="37.4611" lon="27.68267">
        <ele>456.688</ele>
      </trkpt>
      <trkpt lat="37.46116" lon="27.68266">
        <ele>457.028</ele>
      </trkpt>
      <trkpt lat="37.46122" lon="27.68267">
        <ele>456.49</ele>
      </trkpt>
      <trkpt lat="37.46122" lon="27.68271">
        <ele>454.869</ele>
      </trkpt>
      <trkpt lat="37.46121" lon="27.68273">
        <ele>453.967</ele>
      </trkpt>
      <trkpt lat="37.46115" lon="27.6828">
        <ele>450.84</ele>
      </trkpt>
      <trkpt lat="37.46106" lon="27.68289">
        <ele>448.552</ele>
      </trkpt>
      <trkpt lat="37.46106" lon="27.68292">
        <ele>447.586</ele>
      </trkpt>
      <trkpt lat="37.46103" lon="27.68294">
        <ele>446.938</ele>
      </trkpt>
      <trkpt lat="37.46107" lon="27.68297">
        <ele>446.46</ele>
      </trkpt>
      <trkpt lat="37.46116" lon="27.683">
        <ele>446.958</ele>
      </trkpt>
      <trkpt lat="37.46127" lon="27.68295">
        <ele>449.503</ele>
      </trkpt>
      <trkpt lat="37.46129" lon="27.683">
        <ele>448.99</ele>
      </trkpt>
      <trkpt lat="37.46129" lon="27.68301">
        <ele>448.862</ele>
      </trkpt>
      <trkpt lat="37.4613" lon="27.68314">
        <ele>448.1</ele>
      </trkpt>
      <trkpt lat="37.46134" lon="27.68329">
        <ele>448.57</ele>
      </trkpt>
      <trkpt lat="37.46135" lon="27.68335">
        <ele>449.007</ele>
      </trkpt>
      <trkpt lat="37.46136" lon="27.68337">
        <ele>449.296</ele>
      </trkpt>
      <trkpt lat="37.46134" lon="27.68353">
        <ele>449.34</ele>
      </trkpt>
      <trkpt lat="37.46136" lon="27.68369">
        <ele>449.898</ele>
      </trkpt>
      <trkpt lat="37.46135" lon="27.68372">
        <ele>449.206</ele>
      </trkpt>
      <trkpt lat="37.46138" lon="27.68382">
        <ele>449.507</ele>
      </trkpt>
      <trkpt lat="37.46139" lon="27.68385">
        <ele>449.338</ele>
      </trkpt>
      <trkpt lat="37.46138" lon="27.68386">
        <ele>449.003</ele>
      </trkpt>
      <trkpt lat="37.46139" lon="27.68394">
        <ele>448.369</ele>
      </trkpt>
      <trkpt lat="37.46145" lon="27.684">
        <ele>450.769</ele>
      </trkpt>
      <trkpt lat="37.46148" lon="27.68403">
        <ele>451.626</ele>
      </trkpt>
      <trkpt lat="37.46152" lon="27.68407">
        <ele>453.508</ele>
      </trkpt>
      <trkpt lat="37.46163" lon="27.68416">
        <ele>458.032</ele>
      </trkpt>
      <trkpt lat="37.46171" lon="27.68421">
        <ele>462.135</ele>
      </trkpt>
      <trkpt lat="37.46178" lon="27.68426">
        <ele>466.355</ele>
      </trkpt>
      <trkpt lat="37.46187" lon="27.68438">
        <ele>471.197</ele>
      </trkpt>
      <trkpt lat="37.46196" lon="27.68448">
        <ele>475.348</ele>
      </trkpt>
      <trkpt lat="37.46202" lon="27.68458">
        <ele>476.303</ele>
      </trkpt>
      <trkpt lat="37.4621" lon="27.68474">
        <ele>477.266</ele>
      </trkpt>
      <trkpt lat="37.46215" lon="27.68485">
        <ele>476.841</ele>
      </trkpt>
      <trkpt lat="37.4622" lon="27.68497">
        <ele>475.62</ele>
      </trkpt>
      <trkpt lat="37.46222" lon="27.68502">
        <ele>475.755</ele>
      </trkpt>
      <trkpt lat="37.4623" lon="27.68512">
        <ele>479.103</ele>
      </trkpt>
      <trkpt lat="37.46231" lon="27.68512">
        <ele>479.649</ele>
      </trkpt>
      <trkpt lat="37.46233" lon="27.68513">
        <ele>480.807</ele>
      </trkpt>
      <trkpt lat="37.46235" lon="27.68518">
        <ele>481.234</ele>
      </trkpt>
      <trkpt lat="37.4624" lon="27.68526">
        <ele>482.305</ele>
      </trkpt>
      <trkpt lat="37.46244" lon="27.68533">
        <ele>484.073</ele>
      </trkpt>
      <trkpt lat="37.46249" lon="27.68546">
        <ele>485.501</ele>
      </trkpt>
      <trkpt lat="37.46257" lon="27.68559">
        <ele>488.507</ele>
      </trkpt>
      <trkpt lat="37.46259" lon="27.68573">
        <ele>487.856</ele>
      </trkpt>
      <trkpt lat="37.4626" lon="27.68577">
        <ele>487.73</ele>
      </trkpt>
      <trkpt lat="37.46261" lon="27.6858">
        <ele>487.712</ele>
      </trkpt>
      <trkpt lat="37.46267" lon="27.68597">
        <ele>488.17</ele>
      </trkpt>
      <trkpt lat="37.46266" lon="27.68596">
        <ele>487.818</ele>
      </trkpt>
      <trkpt lat="37.46267" lon="27.68604">
        <ele>487.295</ele>
      </trkpt>
      <trkpt lat="37.46276" lon="27.6862">
        <ele>490.475</ele>
      </trkpt>
      <trkpt lat="37.46286" lon="27.68632">
        <ele>493.763</ele>
      </trkpt>
      <trkpt lat="37.46289" lon="27.68637">
        <ele>494.651</ele>
      </trkpt>
      <trkpt lat="37.46287" lon="27.68637">
        <ele>493.885</ele>
      </trkpt>
      <trkpt lat="37.46293" lon="27.68647">
        <ele>495.232</ele>
      </trkpt>
      <trkpt lat="37.46299" lon="27.68652">
        <ele>497.406</ele>
      </trkpt>
      <trkpt lat="37.46299" lon="27.68655">
        <ele>496.956</ele>
      </trkpt>
      <trkpt lat="37.46298" lon="27.68664">
        <ele>495.768</ele>
      </trkpt>
      <trkpt lat="37.46296" lon="27.6867">
        <ele>494.942</ele>
      </trkpt>
      <trkpt lat="37.4629" lon="27.68688">
        <ele>493.123</ele>
      </trkpt>
      <trkpt lat="37.46291" lon="27.68699">
        <ele>494.59</ele>
      </trkpt>
      <trkpt lat="37.46297" lon="27.6871">
        <ele>498.13</ele>
      </trkpt>
      <trkpt lat="37.46297" lon="27.6872">
        <ele>499.453</ele>
      </trkpt>
      <trkpt lat="37.463" lon="27.68734">
        <ele>502.422</ele>
      </trkpt>
      <trkpt lat="37.46297" lon="27.6874">
        <ele>502.581</ele>
      </trkpt>
      <trkpt lat="37.46297" lon="27.68743">
        <ele>502.806</ele>
      </trkpt>
      <trkpt lat="37.463" lon="27.68756">
        <ele>505.22</ele>
      </trkpt>
      <trkpt lat="37.46301" lon="27.68765">
        <ele>506.69</ele>
      </trkpt>
      <trkpt lat="37.46301" lon="27.68766">
        <ele>506.678</ele>
      </trkpt>
      <trkpt lat="37.46297" lon="27.68769">
        <ele>506.27</ele>
      </trkpt>
      <trkpt lat="37.46299" lon="27.68777">
        <ele>507.772</ele>
      </trkpt>
      <trkpt lat="37.46303" lon="27.68782">
        <ele>508.043</ele>
      </trkpt>
      <trkpt lat="37.46304" lon="27.68792">
        <ele>507.166</ele>
      </trkpt>
      <trkpt lat="37.46309" lon="27.68807">
        <ele>507.187</ele>
      </trkpt>
      <trkpt lat="37.46314" lon="27.68819">
        <ele>507.071</ele>
      </trkpt>
      <trkpt lat="37.46319" lon="27.68835">
        <ele>506.165</ele>
      </trkpt>
      <trkpt lat="37.46319" lon="27.6884">
        <ele>505.201</ele>
      </trkpt>
      <trkpt lat="37.46321" lon="27.68849">
        <ele>504.628</ele>
      </trkpt>
      <trkpt lat="37.46326" lon="27.6886">
        <ele>504.494</ele>
      </trkpt>
      <trkpt lat="37.46331" lon="27.68871">
        <ele>503.225</ele>
      </trkpt>
      <trkpt lat="37.46337" lon="27.68878">
        <ele>503.956</ele>
      </trkpt>
      <trkpt lat="37.46344" lon="27.68893">
        <ele>504.131</ele>
      </trkpt>
      <trkpt lat="37.46352" lon="27.68906">
        <ele>506.099</ele>
      </trkpt>
      <trkpt lat="37.46361" lon="27.68919">
        <ele>508.724</ele>
      </trkpt>
      <trkpt lat="37.46363" lon="27.68923">
        <ele>509.445</ele>
      </trkpt>
      <trkpt lat="37.46365" lon="27.68925">
        <ele>510.155</ele>
      </trkpt>
      <trkpt lat="37.4637" lon="27.68933">
        <ele>512.098</ele>
      </trkpt>
      <trkpt lat="37.46371" lon="27.68936">
        <ele>512.288</ele>
      </trkpt>
      <trkpt lat="37.46376" lon="27.68947">
        <ele>513.648</ele>
      </trkpt>
      <trkpt lat="37.4638" lon="27.68961">
        <ele>515.301</ele>
      </trkpt>
      <trkpt lat="37.46385" lon="27.68968">
        <ele>517.931</ele>
      </trkpt>
      <trkpt lat="37.46388" lon="27.68981">
        <ele>518.645</ele>
      </trkpt>
      <trkpt lat="37.46388" lon="27.68983">
        <ele>518.601</ele>
      </trkpt>
      <trkpt lat="37.4639" lon="27.68995">
        <ele>518.226</ele>
      </trkpt>
      <trkpt lat="37.46391" lon="27.69013">
        <ele>516.73</ele>
      </trkpt>
      <trkpt lat="37.46396" lon="27.69025">
        <ele>517.836</ele>
      </trkpt>
      <trkpt lat="37.46398" lon="27.69028">
        <ele>518.34</ele>
      </trkpt>
      <trkpt lat="37.464" lon="27.69037">
        <ele>519.152</ele>
      </trkpt>
      <trkpt lat="37.46401" lon="27.69042">
        <ele>519.236</ele>
      </trkpt>
      <trkpt lat="37.46404" lon="27.69047">
        <ele>519.941</ele>
      </trkpt>
      <trkpt lat="37.46407" lon="27.69053">
        <ele>520.971</ele>
      </trkpt>
      <trkpt lat="37.46408" lon="27.69055">
        <ele>521.211</ele>
      </trkpt>
      <trkpt lat="37.46409" lon="27.69058">
        <ele>521.159</ele>
      </trkpt>
      <trkpt lat="37.46409" lon="27.69059">
        <ele>521.19</ele>
      </trkpt>
      <trkpt lat="37.46413" lon="27.69064">
        <ele>522.398</ele>
      </trkpt>
      <trkpt lat="37.46415" lon="27.69064">
        <ele>523.316</ele>
      </trkpt>
      <trkpt lat="37.46417" lon="27.69068">
        <ele>523.696</ele>
      </trkpt>
      <trkpt lat="37.46416" lon="27.69075">
        <ele>522.394</ele>
      </trkpt>
      <trkpt lat="37.46422" lon="27.69093">
        <ele>523.357</ele>
      </trkpt>
      <trkpt lat="37.46424" lon="27.691">
        <ele>523.025</ele>
      </trkpt>
      <trkpt lat="37.4643" lon="27.6912">
        <ele>523.115</ele>
      </trkpt>
      <trkpt lat="37.46437" lon="27.69138">
        <ele>523.888</ele>
      </trkpt>
      <trkpt lat="37.4644" lon="27.69151">
        <ele>523.008</ele>
      </trkpt>
      <trkpt lat="37.46445" lon="27.69167">
        <ele>523.083</ele>
      </trkpt>
      <trkpt lat="37.46449" lon="27.69187">
        <ele>518.19</ele>
      </trkpt>
      <trkpt lat="37.46453" lon="27.69193">
        <ele>518.254</ele>
      </trkpt>
      <trkpt lat="37.46461" lon="27.69208">
        <ele>517.777</ele>
      </trkpt>
      <trkpt lat="37.46468" lon="27.69221">
        <ele>516.743</ele>
      </trkpt>
      <trkpt lat="37.46477" lon="27.69235">
        <ele>517.274</ele>
      </trkpt>
      <trkpt lat="37.46487" lon="27.69251">
        <ele>518.081</ele>
      </trkpt>
      <trkpt lat="37.46488" lon="27.69254">
        <ele>518.201</ele>
      </trkpt>
      <trkpt lat="37.46494" lon="27.69266">
        <ele>519.19</ele>
      </trkpt>
      <trkpt lat="37.46498" lon="27.69274">
        <ele>519.166</ele>
      </trkpt>
      <trkpt lat="37.46505" lon="27.69282">
        <ele>520.735</ele>
      </trkpt>
      <trkpt lat="37.46508" lon="27.69286">
        <ele>521.593</ele>
      </trkpt>
      <trkpt lat="37.46507" lon="27.69295">
        <ele>520.395</ele>
      </trkpt>
      <trkpt lat="37.46504" lon="27.69311">
        <ele>517.586</ele>
      </trkpt>
      <trkpt lat="37.46508" lon="27.69322">
        <ele>517.739</ele>
      </trkpt>
      <trkpt lat="37.46508" lon="27.69323">
        <ele>517.595</ele>
      </trkpt>
      <trkpt lat="37.46508" lon="27.69326">
        <ele>517.211</ele>
      </trkpt>
      <trkpt lat="37.46509" lon="27.69337">
        <ele>517.042</ele>
      </trkpt>
      <trkpt lat="37.46515" lon="27.69346">
        <ele>518.56</ele>
      </trkpt>
      <trkpt lat="37.4652" lon="27.69354">
        <ele>519.393</ele>
      </trkpt>
      <trkpt lat="37.46527" lon="27.69368">
        <ele>519.404</ele>
      </trkpt>
      <trkpt lat="37.4653" lon="27.69376">
        <ele>519.295</ele>
      </trkpt>
      <trkpt lat="37.46532" lon="27.6938">
        <ele>519.224</ele>
      </trkpt>
      <trkpt lat="37.46531" lon="27.69383">
        <ele>518.83</ele>
      </trkpt>
      <trkpt lat="37.46531" lon="27.69384">
        <ele>518.707</ele>
      </trkpt>
      <trkpt lat="37.46522" lon="27.69388">
        <ele>517.655</ele>
      </trkpt>
      <trkpt lat="37.46519" lon="27.69389">
        <ele>517.395</ele>
      </trkpt>
      <trkpt lat="37.46519" lon="27.69402">
        <ele>517.673</ele>
      </trkpt>
      <trkpt lat="37.46517" lon="27.69402">
        <ele>517.582</ele>
      </trkpt>
      <trkpt lat="37.4651" lon="27.69399">
        <ele>517.197</ele>
      </trkpt>
      <trkpt lat="37.46506" lon="27.69395">
        <ele>516.75</ele>
      </trkpt>
      <trkpt lat="37.46499" lon="27.69399">
        <ele>516.847</ele>
      </trkpt>
      <trkpt lat="37.465" lon="27.69402">
        <ele>517.002</ele>
      </trkpt>
      <trkpt lat="37.46501" lon="27.69407">
        <ele>517.283</ele>
      </trkpt>
      <trkpt lat="37.46501" lon="27.69407">
        <ele>517.353</ele>
      </trkpt>
      <trkpt lat="37.46505" lon="27.69417">
        <ele>517.995</ele>
      </trkpt>
      <trkpt lat="37.46505" lon="27.69417">
        <ele>517.995</ele>
      </trkpt>
      <trkpt lat="37.46498" lon="27.69416">
        <ele>518.264</ele>
      </trkpt>
      <trkpt lat="37.46498" lon="27.69414">
        <ele>518.086</ele>
      </trkpt>
      <trkpt lat="37.46493" lon="27.69411">
        <ele>518.462</ele>
      </trkpt>
      <trkpt lat="37.46489" lon="27.69402">
        <ele>518.155</ele>
      </trkpt>
      <trkpt lat="37.46481" lon="27.69393">
        <ele>517.851</ele>
      </trkpt>
      <trkpt lat="37.46465" lon="27.69388">
        <ele>519.098</ele>
      </trkpt>
      <trkpt lat="37.46459" lon="27.69392">
        <ele>520.82</ele>
      </trkpt>
      <trkpt lat="37.46458" lon="27.69392">
        <ele>520.934</ele>
      </trkpt>
      <trkpt lat="37.46456" lon="27.69397">
        <ele>521.953</ele>
      </trkpt>
      <trkpt lat="37.46451" lon="27.69403">
        <ele>523.358</ele>
      </trkpt>
      <trkpt lat="37.46451" lon="27.69403">
        <ele>523.363</ele>
      </trkpt>
      <trkpt lat="37.46444" lon="27.69397">
        <ele>523.963</ele>
      </trkpt>
      <trkpt lat="37.46432" lon="27.69383">
        <ele>524.038</ele>
      </trkpt>
      <trkpt lat="37.4642" lon="27.69369">
        <ele>523.748</ele>
      </trkpt>
      <trkpt lat="37.46407" lon="27.69359">
        <ele>523.443</ele>
      </trkpt>
      <trkpt lat="37.46385" lon="27.69342">
        <ele>520.375</ele>
      </trkpt>
      <trkpt lat="37.46379" lon="27.69339">
        <ele>519.356</ele>
      </trkpt>
      <trkpt lat="37.46379" lon="27.69339">
        <ele>519.549</ele>
      </trkpt>
      <trkpt lat="37.46364" lon="27.69332">
        <ele>517.571</ele>
      </trkpt>
      <trkpt lat="37.46345" lon="27.69331">
        <ele>512.689</ele>
      </trkpt>
      <trkpt lat="37.4634" lon="27.69337">
        <ele>512.336</ele>
      </trkpt>
      <trkpt lat="37.46329" lon="27.69339">
        <ele>508.412</ele>
      </trkpt>
      <trkpt lat="37.46333" lon="27.69342">
        <ele>510.499</ele>
      </trkpt>
      <trkpt lat="37.46329" lon="27.69361">
        <ele>510.864</ele>
      </trkpt>
      <trkpt lat="37.46333" lon="27.69397">
        <ele>515.571</ele>
      </trkpt>
      <trkpt lat="37.46333" lon="27.69423">
        <ele>517.489</ele>
      </trkpt>
      <trkpt lat="37.46337" lon="27.69455">
        <ele>518.151</ele>
      </trkpt>
      <trkpt lat="37.46335" lon="27.69475">
        <ele>516.201</ele>
      </trkpt>
      <trkpt lat="37.4633" lon="27.69503">
        <ele>511.704</ele>
      </trkpt>
      <trkpt lat="37.46326" lon="27.6953">
        <ele>508.302</ele>
      </trkpt>
      <trkpt lat="37.46327" lon="27.69553">
        <ele>508.114</ele>
      </trkpt>
      <trkpt lat="37.46323" lon="27.69576">
        <ele>506.377</ele>
      </trkpt>
      <trkpt lat="37.46305" lon="27.69593">
        <ele>497.92</ele>
      </trkpt>
      <trkpt lat="37.46304" lon="27.69594">
        <ele>497.293</ele>
      </trkpt>
      <trkpt lat="37.46302" lon="27.69596">
        <ele>496.344</ele>
      </trkpt>
      <trkpt lat="37.46289" lon="27.69618">
        <ele>492.555</ele>
      </trkpt>
      <trkpt lat="37.46289" lon="27.69638">
        <ele>493.527</ele>
      </trkpt>
      <trkpt lat="37.46295" lon="27.69664">
        <ele>495.967</ele>
      </trkpt>
      <trkpt lat="37.46296" lon="27.69691">
        <ele>494.716</ele>
      </trkpt>
      <trkpt lat="37.46293" lon="27.69715">
        <ele>490.788</ele>
      </trkpt>
      <trkpt lat="37.46296" lon="27.6975">
        <ele>488.737</ele>
      </trkpt>
      <trkpt lat="37.46293" lon="27.6977">
        <ele>488.255</ele>
      </trkpt>
      <trkpt lat="37.46283" lon="27.69786">
        <ele>487.319</ele>
      </trkpt>
      <trkpt lat="37.46272" lon="27.698">
        <ele>486.581</ele>
      </trkpt>
      <trkpt lat="37.46256" lon="27.69807">
        <ele>481.553</ele>
      </trkpt>
      <trkpt lat="37.46248" lon="27.69808">
        <ele>479.088</ele>
      </trkpt>
      <trkpt lat="37.4624" lon="27.6982">
        <ele>479.948</ele>
      </trkpt>
      <trkpt lat="37.4623" lon="27.69835">
        <ele>480.237</ele>
      </trkpt>
      <trkpt lat="37.46222" lon="27.69856">
        <ele>483.441</ele>
      </trkpt>
      <trkpt lat="37.46222" lon="27.69875">
        <ele>486.848</ele>
      </trkpt>
      <trkpt lat="37.46221" lon="27.69896">
        <ele>487.678</ele>
      </trkpt>
      <trkpt lat="37.46219" lon="27.69918">
        <ele>484.111</ele>
      </trkpt>
      <trkpt lat="37.46219" lon="27.69945">
        <ele>481.465</ele>
      </trkpt>
      <trkpt lat="37.46224" lon="27.6996">
        <ele>482.026</ele>
      </trkpt>
      <trkpt lat="37.46227" lon="27.69981">
        <ele>481.352</ele>
      </trkpt>
      <trkpt lat="37.46233" lon="27.70002">
        <ele>482.37</ele>
      </trkpt>
      <trkpt lat="37.46243" lon="27.70029">
        <ele>482.846</ele>
      </trkpt>
      <trkpt lat="37.46251" lon="27.70045">
        <ele>482.814</ele>
      </trkpt>
      <trkpt lat="37.46258" lon="27.70065">
        <ele>483.202</ele>
      </trkpt>
      <trkpt lat="37.46256" lon="27.70083">
        <ele>479.792</ele>
      </trkpt>
      <trkpt lat="37.46253" lon="27.70097">
        <ele>478.807</ele>
      </trkpt>
      <trkpt lat="37.46245" lon="27.70103">
        <ele>476.783</ele>
      </trkpt>
      <trkpt lat="37.46232" lon="27.70099">
        <ele>474.114</ele>
      </trkpt>
      <trkpt lat="37.46222" lon="27.70092">
        <ele>471.656</ele>
      </trkpt>
      <trkpt lat="37.46222" lon="27.70091">
        <ele>471.726</ele>
      </trkpt>
      <trkpt lat="37.46218" lon="27.701">
        <ele>473.549</ele>
      </trkpt>
      <trkpt lat="37.46214" lon="27.70101">
        <ele>474.66</ele>
      </trkpt>
      <trkpt lat="37.46208" lon="27.70096">
        <ele>475.925</ele>
      </trkpt>
      <trkpt lat="37.46203" lon="27.70094">
        <ele>477.439</ele>
      </trkpt>
      <trkpt lat="37.462" lon="27.701">
        <ele>478.599</ele>
      </trkpt>
      <trkpt lat="37.46199" lon="27.701">
        <ele>479.043</ele>
      </trkpt>
      <trkpt lat="37.46196" lon="27.70097">
        <ele>479.703</ele>
      </trkpt>
      <trkpt lat="37.46193" lon="27.70099">
        <ele>480.91</ele>
      </trkpt>
      <trkpt lat="37.46187" lon="27.70097">
        <ele>484.553</ele>
      </trkpt>
      <trkpt lat="37.46185" lon="27.70096">
        <ele>485.467</ele>
      </trkpt>
      <trkpt lat="37.46183" lon="27.70097">
        <ele>487.173</ele>
      </trkpt>
      <trkpt lat="37.46178" lon="27.70094">
        <ele>490.064</ele>
      </trkpt>
      <trkpt lat="37.46175" lon="27.70094">
        <ele>491.947</ele>
      </trkpt>
      <trkpt lat="37.46169" lon="27.70091">
        <ele>494.887</ele>
      </trkpt>
      <trkpt lat="37.46166" lon="27.70092">
        <ele>496.895</ele>
      </trkpt>
      <trkpt lat="37.46163" lon="27.70091">
        <ele>499.577</ele>
      </trkpt>
      <trkpt lat="37.46157" lon="27.70089">
        <ele>505.433</ele>
      </trkpt>
      <trkpt lat="37.46151" lon="27.70088">
        <ele>510.579</ele>
      </trkpt>
      <trkpt lat="37.46145" lon="27.70084">
        <ele>515.245</ele>
      </trkpt>
      <trkpt lat="37.46141" lon="27.70076">
        <ele>517.223</ele>
      </trkpt>
      <trkpt lat="37.46138" lon="27.70078">
        <ele>520.224</ele>
      </trkpt>
      <trkpt lat="37.46133" lon="27.70072">
        <ele>521.861</ele>
      </trkpt>
      <trkpt lat="37.46128" lon="27.70069">
        <ele>524.722</ele>
      </trkpt>
      <trkpt lat="37.46121" lon="27.70065">
        <ele>528.056</ele>
      </trkpt>
      <trkpt lat="37.46118" lon="27.7006">
        <ele>528.922</ele>
      </trkpt>
      <trkpt lat="37.46115" lon="27.70059">
        <ele>530.68</ele>
      </trkpt>
      <trkpt lat="37.46107" lon="27.70051">
        <ele>534.496</ele>
      </trkpt>
      <trkpt lat="37.46105" lon="27.7005">
        <ele>535.356</ele>
      </trkpt>
      <trkpt lat="37.461" lon="27.70045">
        <ele>537.768</ele>
      </trkpt>
      <trkpt lat="37.46098" lon="27.70044">
        <ele>538.561</ele>
      </trkpt>
      <trkpt lat="37.46093" lon="27.70042">
        <ele>541.677</ele>
      </trkpt>
      <trkpt lat="37.46092" lon="27.70038">
        <ele>541.756</ele>
      </trkpt>
      <trkpt lat="37.46086" lon="27.70031">
        <ele>543.574</ele>
      </trkpt>
      <trkpt lat="37.46079" lon="27.70031">
        <ele>548.876</ele>
      </trkpt>
      <trkpt lat="37.46079" lon="27.70035">
        <ele>549.792</ele>
      </trkpt>
      <trkpt lat="37.46078" lon="27.70047">
        <ele>553.236</ele>
      </trkpt>
      <trkpt lat="37.46079" lon="27.70049">
        <ele>553.085</ele>
      </trkpt>
      <trkpt lat="37.46079" lon="27.7005">
        <ele>553.59</ele>
      </trkpt>
      <trkpt lat="37.46079" lon="27.70051">
        <ele>553.561</ele>
      </trkpt>
      <trkpt lat="37.46076" lon="27.70053">
        <ele>555.885</ele>
      </trkpt>
      <trkpt lat="37.46076" lon="27.70061">
        <ele>556.928</ele>
      </trkpt>
      <trkpt lat="37.46077" lon="27.70063">
        <ele>556.907</ele>
      </trkpt>
      <trkpt lat="37.46078" lon="27.70069">
        <ele>556.5</ele>
      </trkpt>
      <trkpt lat="37.46079" lon="27.70073">
        <ele>556.523</ele>
      </trkpt>
      <trkpt lat="37.46076" lon="27.70079">
        <ele>558.895</ele>
      </trkpt>
      <trkpt lat="37.46074" lon="27.70079">
        <ele>560.338</ele>
      </trkpt>
      <trkpt lat="37.46072" lon="27.70077">
        <ele>561.285</ele>
      </trkpt>
      <trkpt lat="37.4607" lon="27.70076">
        <ele>562.165</ele>
      </trkpt>
      <trkpt lat="37.46064" lon="27.7007">
        <ele>565.343</ele>
      </trkpt>
      <trkpt lat="37.46058" lon="27.70065">
        <ele>568.399</ele>
      </trkpt>
      <trkpt lat="37.46049" lon="27.70061">
        <ele>573.312</ele>
      </trkpt>
      <trkpt lat="37.46046" lon="27.70058">
        <ele>575.276</ele>
      </trkpt>
      <trkpt lat="37.46043" lon="27.70056">
        <ele>576.53</ele>
      </trkpt>
      <trkpt lat="37.46035" lon="27.70048">
        <ele>580.137</ele>
      </trkpt>
      <trkpt lat="37.46035" lon="27.70046">
        <ele>580.132</ele>
      </trkpt>
      <trkpt lat="37.46029" lon="27.70036">
        <ele>581.895</ele>
      </trkpt>
      <trkpt lat="37.46022" lon="27.70029">
        <ele>584.111</ele>
      </trkpt>
      <trkpt lat="37.46019" lon="27.70026">
        <ele>585.111</ele>
      </trkpt>
      <trkpt lat="37.4602" lon="27.70027">
        <ele>584.935</ele>
      </trkpt>
      <trkpt lat="37.46017" lon="27.70028">
        <ele>586.476</ele>
      </trkpt>
      <trkpt lat="37.4601" lon="27.70023">
        <ele>589.456</ele>
      </trkpt>
      <trkpt lat="37.46006" lon="27.70023">
        <ele>591.382</ele>
      </trkpt>
      <trkpt lat="37.46002" lon="27.70021">
        <ele>593.166</ele>
      </trkpt>
      <trkpt lat="37.45998" lon="27.70018">
        <ele>594.225</ele>
      </trkpt>
      <trkpt lat="37.45996" lon="27.70017">
        <ele>594.61</ele>
      </trkpt>
      <trkpt lat="37.45988" lon="27.70012">
        <ele>596.378</ele>
      </trkpt>
      <trkpt lat="37.45984" lon="27.70009">
        <ele>597.081</ele>
      </trkpt>
      <trkpt lat="37.45982" lon="27.70005">
        <ele>597.19</ele>
      </trkpt>
      <trkpt lat="37.45979" lon="27.70003">
        <ele>597.646</ele>
      </trkpt>
      <trkpt lat="37.45966" lon="27.6999">
        <ele>597.165</ele>
      </trkpt>
      <trkpt lat="37.45964" lon="27.69989">
        <ele>597.233</ele>
      </trkpt>
      <trkpt lat="37.45961" lon="27.69996">
        <ele>599.672</ele>
      </trkpt>
      <trkpt lat="37.45955" lon="27.69987">
        <ele>598.044</ele>
      </trkpt>
      <trkpt lat="37.4595" lon="27.69979">
        <ele>596.273</ele>
      </trkpt>
      <trkpt lat="37.45934" lon="27.69976">
        <ele>596.953</ele>
      </trkpt>
      <trkpt lat="37.45912" lon="27.69974">
        <ele>598.224</ele>
      </trkpt>
      <trkpt lat="37.45895" lon="27.69973">
        <ele>600.905</ele>
      </trkpt>
      <trkpt lat="37.45892" lon="27.69971">
        <ele>601.456</ele>
      </trkpt>
      <trkpt lat="37.4589" lon="27.69967">
        <ele>601.832</ele>
      </trkpt>
      <trkpt lat="37.45887" lon="27.69945">
        <ele>602.79</ele>
      </trkpt>
      <trkpt lat="37.45887" lon="27.69927">
        <ele>605.294</ele>
      </trkpt>
      <trkpt lat="37.45883" lon="27.6991">
        <ele>608.16</ele>
      </trkpt>
      <trkpt lat="37.4588" lon="27.69898">
        <ele>609.344</ele>
      </trkpt>
      <trkpt lat="37.45881" lon="27.69891">
        <ele>609.186</ele>
      </trkpt>
      <trkpt lat="37.45879" lon="27.69881">
        <ele>610.31</ele>
      </trkpt>
      <trkpt lat="37.45878" lon="27.69865">
        <ele>611.623</ele>
      </trkpt>
      <trkpt lat="37.45874" lon="27.69849">
        <ele>614.012</ele>
      </trkpt>
      <trkpt lat="37.45871" lon="27.69838">
        <ele>615.16</ele>
      </trkpt>
      <trkpt lat="37.45875" lon="27.69828">
        <ele>613.927</ele>
      </trkpt>
      <trkpt lat="37.45868" lon="27.69803">
        <ele>615.933</ele>
      </trkpt>
      <trkpt lat="37.45868" lon="27.69805">
        <ele>616.008</ele>
      </trkpt>
      <trkpt lat="37.45861" lon="27.69802">
        <ele>618.476</ele>
      </trkpt>
      <trkpt lat="37.45857" lon="27.69796">
        <ele>618.12</ele>
      </trkpt>
      <trkpt lat="37.45845" lon="27.69789">
        <ele>619.356</ele>
      </trkpt>
      <trkpt lat="37.45832" lon="27.69777">
        <ele>621.115</ele>
      </trkpt>
      <trkpt lat="37.45814" lon="27.69766">
        <ele>623.505</ele>
      </trkpt>
      <trkpt lat="37.458" lon="27.69761">
        <ele>624.068</ele>
      </trkpt>
      <trkpt lat="37.45791" lon="27.69759">
        <ele>622.929</ele>
      </trkpt>
      <trkpt lat="37.45788" lon="27.69771">
        <ele>624.548</ele>
      </trkpt>
      <trkpt lat="37.45792" lon="27.69782">
        <ele>626.153</ele>
      </trkpt>
      <trkpt lat="37.45794" lon="27.69793">
        <ele>626.623</ele>
      </trkpt>
      <trkpt lat="37.45793" lon="27.69805">
        <ele>626.989</ele>
      </trkpt>
      <trkpt lat="37.45791" lon="27.69817">
        <ele>628.455</ele>
      </trkpt>
      <trkpt lat="37.45788" lon="27.69828">
        <ele>630.113</ele>
      </trkpt>
      <trkpt lat="37.45781" lon="27.69836">
        <ele>632.084</ele>
      </trkpt>
      <trkpt lat="37.45775" lon="27.69845">
        <ele>634.156</ele>
      </trkpt>
      <trkpt lat="37.45771" lon="27.69855">
        <ele>636.297</ele>
      </trkpt>
      <trkpt lat="37.45763" lon="27.69864">
        <ele>638.389</ele>
      </trkpt>
      <trkpt lat="37.45754" lon="27.69867">
        <ele>639.753</ele>
      </trkpt>
      <trkpt lat="37.45745" lon="27.69868">
        <ele>640.529</ele>
      </trkpt>
      <trkpt lat="37.45735" lon="27.69871">
        <ele>641.552</ele>
      </trkpt>
      <trkpt lat="37.45726" lon="27.69875">
        <ele>642.733</ele>
      </trkpt>
      <trkpt lat="37.45716" lon="27.69876">
        <ele>643.36</ele>
      </trkpt>
      <trkpt lat="37.45706" lon="27.69873">
        <ele>643.134</ele>
      </trkpt>
      <trkpt lat="37.45697" lon="27.6987">
        <ele>642.39</ele>
      </trkpt>
      <trkpt lat="37.45689" lon="27.69863">
        <ele>641.657</ele>
      </trkpt>
      <trkpt lat="37.4568" lon="27.69859">
        <ele>641.865</ele>
      </trkpt>
      <trkpt lat="37.45671" lon="27.69852">
        <ele>641.331</ele>
      </trkpt>
      <trkpt lat="37.45662" lon="27.69849">
        <ele>642.591</ele>
      </trkpt>
      <trkpt lat="37.45656" lon="27.6984">
        <ele>641.933</ele>
      </trkpt>
      <trkpt lat="37.4565" lon="27.6983">
        <ele>641.1</ele>
      </trkpt>
      <trkpt lat="37.45644" lon="27.6981">
        <ele>637.419</ele>
      </trkpt>
      <trkpt lat="37.45637" lon="27.69788">
        <ele>636.779</ele>
      </trkpt>
      <trkpt lat="37.45633" lon="27.6977">
        <ele>637.44</ele>
      </trkpt>
      <trkpt lat="37.4563" lon="27.69767">
        <ele>638.139</ele>
      </trkpt>
      <trkpt lat="37.45617" lon="27.69757">
        <ele>641.323</ele>
      </trkpt>
      <trkpt lat="37.45601" lon="27.69744">
        <ele>644.001</ele>
      </trkpt>
      <trkpt lat="37.45583" lon="27.69733">
        <ele>646.301</ele>
      </trkpt>
      <trkpt lat="37.45568" lon="27.69722">
        <ele>647.553</ele>
      </trkpt>
      <trkpt lat="37.45556" lon="27.69715">
        <ele>647.444</ele>
      </trkpt>
      <trkpt lat="37.45539" lon="27.69706">
        <ele>647.141</ele>
      </trkpt>
      <trkpt lat="37.45533" lon="27.69703">
        <ele>646.887</ele>
      </trkpt>
      <trkpt lat="37.45521" lon="27.697">
        <ele>646.451</ele>
      </trkpt>
      <trkpt lat="37.45497" lon="27.69706">
        <ele>648.009</ele>
      </trkpt>
      <trkpt lat="37.45481" lon="27.69722">
        <ele>650.91</ele>
      </trkpt>
      <trkpt lat="37.45463" lon="27.69747">
        <ele>654.57</ele>
      </trkpt>
      <trkpt lat="37.45453" lon="27.69763">
        <ele>656.534</ele>
      </trkpt>
      <trkpt lat="37.4544" lon="27.6977">
        <ele>657.681</ele>
      </trkpt>
      <trkpt lat="37.4543" lon="27.69756">
        <ele>656.902</ele>
      </trkpt>
      <trkpt lat="37.45413" lon="27.69747">
        <ele>656.472</ele>
      </trkpt>
      <trkpt lat="37.45391" lon="27.69743">
        <ele>656.788</ele>
      </trkpt>
      <trkpt lat="37.45371" lon="27.69738">
        <ele>655.943</ele>
      </trkpt>
      <trkpt lat="37.45352" lon="27.69741">
        <ele>657.954</ele>
      </trkpt>
      <trkpt lat="37.45333" lon="27.69735">
        <ele>657.657</ele>
      </trkpt>
      <trkpt lat="37.45312" lon="27.69732">
        <ele>658.874</ele>
      </trkpt>
      <trkpt lat="37.45296" lon="27.69732">
        <ele>659.466</ele>
      </trkpt>
      <trkpt lat="37.45296" lon="27.69732">
        <ele>659.477</ele>
      </trkpt>
      <trkpt lat="37.45293" lon="27.69729">
        <ele>658.752</ele>
      </trkpt>
      <trkpt lat="37.45291" lon="27.69723">
        <ele>657.198</ele>
      </trkpt>
      <trkpt lat="37.45292" lon="27.69722">
        <ele>656.972</ele>
      </trkpt>
      <trkpt lat="37.45286" lon="27.69722">
        <ele>656.911</ele>
      </trkpt>
      <trkpt lat="37.4528" lon="27.69721">
        <ele>656.815</ele>
      </trkpt>
      <trkpt lat="37.45273" lon="27.69722">
        <ele>656.86</ele>
      </trkpt>
      <trkpt lat="37.45272" lon="27.69725">
        <ele>657.502</ele>
      </trkpt>
      <trkpt lat="37.45263" lon="27.69731">
        <ele>658.607</ele>
      </trkpt>
      <trkpt lat="37.45247" lon="27.69736">
        <ele>659.455</ele>
      </trkpt>
      <trkpt lat="37.45228" lon="27.69738">
        <ele>659.624</ele>
      </trkpt>
      <trkpt lat="37.45214" lon="27.69745">
        <ele>660.602</ele>
      </trkpt>
      <trkpt lat="37.45203" lon="27.6975">
        <ele>661.236</ele>
      </trkpt>
      <trkpt lat="37.4519" lon="27.69753">
        <ele>661.701</ele>
      </trkpt>
      <trkpt lat="37.45184" lon="27.69751">
        <ele>661.337</ele>
      </trkpt>
      <trkpt lat="37.45176" lon="27.69739">
        <ele>658.687</ele>
      </trkpt>
      <trkpt lat="37.45162" lon="27.69733">
        <ele>656.93</ele>
      </trkpt>
      <trkpt lat="37.45144" lon="27.69736">
        <ele>655.959</ele>
      </trkpt>
      <trkpt lat="37.45127" lon="27.69743">
        <ele>656.05</ele>
      </trkpt>
      <trkpt lat="37.45107" lon="27.69754">
        <ele>657.298</ele>
      </trkpt>
      <trkpt lat="37.45094" lon="27.69761">
        <ele>660.325</ele>
      </trkpt>
      <trkpt lat="37.45082" lon="27.69767">
        <ele>663.381</ele>
      </trkpt>
      <trkpt lat="37.45064" lon="27.69759">
        <ele>664.59</ele>
      </trkpt>
      <trkpt lat="37.45054" lon="27.69757">
        <ele>665.705</ele>
      </trkpt>
      <trkpt lat="37.45039" lon="27.69755">
        <ele>666.905</ele>
      </trkpt>
      <trkpt lat="37.4503" lon="27.69757">
        <ele>668.194</ele>
      </trkpt>
      <trkpt lat="37.4503" lon="27.69757">
        <ele>668.18</ele>
      </trkpt>
      <trkpt lat="37.45032" lon="27.69758">
        <ele>668.168</ele>
      </trkpt>
      <trkpt lat="37.45026" lon="27.69759">
        <ele>668.96</ele>
      </trkpt>
      <trkpt lat="37.45007" lon="27.69748">
        <ele>668.219</ele>
      </trkpt>
      <trkpt lat="37.44989" lon="27.69738">
        <ele>667.678</ele>
      </trkpt>
      <trkpt lat="37.44971" lon="27.69735">
        <ele>667.083</ele>
      </trkpt>
      <trkpt lat="37.44952" lon="27.69742">
        <ele>663.432</ele>
      </trkpt>
      <trkpt lat="37.44948" lon="27.69744">
        <ele>662.856</ele>
      </trkpt>
      <trkpt lat="37.44938" lon="27.69749">
        <ele>661.216</ele>
      </trkpt>
      <trkpt lat="37.4493" lon="27.69767">
        <ele>663.853</ele>
      </trkpt>
      <trkpt lat="37.4492" lon="27.69773">
        <ele>664.062</ele>
      </trkpt>
      <trkpt lat="37.44908" lon="27.69769">
        <ele>661.322</ele>
      </trkpt>
      <trkpt lat="37.44898" lon="27.69767">
        <ele>659.54</ele>
      </trkpt>
      <trkpt lat="37.44881" lon="27.69763">
        <ele>656.261</ele>
      </trkpt>
      <trkpt lat="37.44869" lon="27.69763">
        <ele>654.809</ele>
      </trkpt>
      <trkpt lat="37.44851" lon="27.69764">
        <ele>651.867</ele>
      </trkpt>
      <trkpt lat="37.44833" lon="27.6977">
        <ele>649.742</ele>
      </trkpt>
      <trkpt lat="37.44818" lon="27.69768">
        <ele>644.686</ele>
      </trkpt>
      <trkpt lat="37.44819" lon="27.69768">
        <ele>644.617</ele>
      </trkpt>
      <trkpt lat="37.44809" lon="27.69773">
        <ele>643.969</ele>
      </trkpt>
      <trkpt lat="37.44796" lon="27.69773">
        <ele>641.637</ele>
      </trkpt>
      <trkpt lat="37.44767" lon="27.69775">
        <ele>639.777</ele>
      </trkpt>
      <trkpt lat="37.44738" lon="27.69776">
        <ele>639.491</ele>
      </trkpt>
      <trkpt lat="37.44714" lon="27.69776">
        <ele>638.535</ele>
      </trkpt>
      <trkpt lat="37.44714" lon="27.69775">
        <ele>638.236</ele>
      </trkpt>
      <trkpt lat="37.44712" lon="27.69775">
        <ele>638.103</ele>
      </trkpt>
      <trkpt lat="37.447" lon="27.69777">
        <ele>638.793</ele>
      </trkpt>
      <trkpt lat="37.44684" lon="27.69782">
        <ele>639.68</ele>
      </trkpt>
      <trkpt lat="37.44665" lon="27.69786">
        <ele>639.483</ele>
      </trkpt>
      <trkpt lat="37.4465" lon="27.69794">
        <ele>640.754</ele>
      </trkpt>
      <trkpt lat="37.44641" lon="27.69803">
        <ele>643.039</ele>
      </trkpt>
      <trkpt lat="37.4463" lon="27.69824">
        <ele>642.922</ele>
      </trkpt>
      <trkpt lat="37.44625" lon="27.69836">
        <ele>641.902</ele>
      </trkpt>
      <trkpt lat="37.44624" lon="27.6984">
        <ele>641.824</ele>
      </trkpt>
      <trkpt lat="37.44623" lon="27.69844">
        <ele>641.588</ele>
      </trkpt>
      <trkpt lat="37.44619" lon="27.69854">
        <ele>639.837</ele>
      </trkpt>
      <trkpt lat="37.44612" lon="27.69864">
        <ele>636.691</ele>
      </trkpt>
      <trkpt lat="37.44611" lon="27.69866">
        <ele>636.125</ele>
      </trkpt>
      <trkpt lat="37.44612" lon="27.6987">
        <ele>636.792</ele>
      </trkpt>
      <trkpt lat="37.44618" lon="27.69898">
        <ele>640.442</ele>
      </trkpt>
      <trkpt lat="37.44623" lon="27.69915">
        <ele>642.892</ele>
      </trkpt>
      <trkpt lat="37.44628" lon="27.69923">
        <ele>644.842</ele>
      </trkpt>
      <trkpt lat="37.44641" lon="27.69934">
        <ele>650.097</ele>
      </trkpt>
      <trkpt lat="37.44653" lon="27.69948">
        <ele>653.546</ele>
      </trkpt>
      <trkpt lat="37.44665" lon="27.69966">
        <ele>654.794</ele>
      </trkpt>
      <trkpt lat="37.44672" lon="27.69984">
        <ele>653.704</ele>
      </trkpt>
      <trkpt lat="37.44673" lon="27.70003">
        <ele>649.981</ele>
      </trkpt>
      <trkpt lat="37.44681" lon="27.70022">
        <ele>648.143</ele>
      </trkpt>
      <trkpt lat="37.44691" lon="27.70034">
        <ele>649.027</ele>
      </trkpt>
      <trkpt lat="37.44698" lon="27.70047">
        <ele>649.439</ele>
      </trkpt>
      <trkpt lat="37.44697" lon="27.70061">
        <ele>648.657</ele>
      </trkpt>
      <trkpt lat="37.44697" lon="27.70061">
        <ele>648.657</ele>
      </trkpt>
      <trkpt lat="37.44677" lon="27.70085">
        <ele>648.319</ele>
      </trkpt>
      <trkpt lat="37.44655" lon="27.701">
        <ele>647.461</ele>
      </trkpt>
      <trkpt lat="37.44636" lon="27.70113">
        <ele>645.736</ele>
      </trkpt>
      <trkpt lat="37.44622" lon="27.7013">
        <ele>645.381</ele>
      </trkpt>
      <trkpt lat="37.44619" lon="27.70133">
        <ele>645.131</ele>
      </trkpt>
      <trkpt lat="37.44607" lon="27.70145">
        <ele>645.249</ele>
      </trkpt>
      <trkpt lat="37.44598" lon="27.70151">
        <ele>645.804</ele>
      </trkpt>
      <trkpt lat="37.44576" lon="27.70161">
        <ele>644.773</ele>
      </trkpt>
      <trkpt lat="37.44565" lon="27.70171">
        <ele>645.804</ele>
      </trkpt>
      <trkpt lat="37.44552" lon="27.70183">
        <ele>648.393</ele>
      </trkpt>
      <trkpt lat="37.44546" lon="27.70189">
        <ele>649.256</ele>
      </trkpt>
      <trkpt lat="37.44532" lon="27.70205">
        <ele>649.398</ele>
      </trkpt>
      <trkpt lat="37.44532" lon="27.70205">
        <ele>649.398</ele>
      </trkpt>
      <trkpt lat="37.44523" lon="27.7022">
        <ele>650.959</ele>
      </trkpt>
      <trkpt lat="37.44515" lon="27.70242">
        <ele>654.729</ele>
      </trkpt>
      <trkpt lat="37.44515" lon="27.70248">
        <ele>656.358</ele>
      </trkpt>
      <trkpt lat="37.4451" lon="27.7026">
        <ele>657.877</ele>
      </trkpt>
      <trkpt lat="37.44509" lon="27.70276">
        <ele>661.533</ele>
      </trkpt>
      <trkpt lat="37.4451" lon="27.70296">
        <ele>665.114</ele>
      </trkpt>
      <trkpt lat="37.44509" lon="27.70316">
        <ele>668.127</ele>
      </trkpt>
      <trkpt lat="37.44507" lon="27.70337">
        <ele>670.074</ele>
      </trkpt>
      <trkpt lat="37.44507" lon="27.70345">
        <ele>670.178</ele>
      </trkpt>
      <trkpt lat="37.44505" lon="27.70358">
        <ele>670.074</ele>
      </trkpt>
      <trkpt lat="37.44504" lon="27.70362">
        <ele>669.953</ele>
      </trkpt>
      <trkpt lat="37.44492" lon="27.7038">
        <ele>669.113</ele>
      </trkpt>
      <trkpt lat="37.44482" lon="27.70395">
        <ele>668.807</ele>
      </trkpt>
      <trkpt lat="37.4448" lon="27.70398">
        <ele>668.951</ele>
      </trkpt>
      <trkpt lat="37.4448" lon="27.70398">
        <ele>668.951</ele>
      </trkpt>
      <trkpt lat="37.44473" lon="27.70399">
        <ele>668.162</ele>
      </trkpt>
      <trkpt lat="37.44473" lon="27.70398">
        <ele>668.052</ele>
      </trkpt>
      <trkpt lat="37.44473" lon="27.70396">
        <ele>667.838</ele>
      </trkpt>
      <trkpt lat="37.44468" lon="27.70397">
        <ele>667.456</ele>
      </trkpt>
      <trkpt lat="37.44466" lon="27.70403">
        <ele>667.859</ele>
      </trkpt>
      <trkpt lat="37.44475" lon="27.70406">
        <ele>669.095</ele>
      </trkpt>
      <trkpt lat="37.44478" lon="27.70411">
        <ele>669.911</ele>
      </trkpt>
      <trkpt lat="37.44477" lon="27.70437">
        <ele>670.574</ele>
      </trkpt>
      <trkpt lat="37.44477" lon="27.70438">
        <ele>670.636</ele>
      </trkpt>
      <trkpt lat="37.44476" lon="27.70441">
        <ele>670.455</ele>
      </trkpt>
      <trkpt lat="37.44476" lon="27.70447">
        <ele>670.338</ele>
      </trkpt>
      <trkpt lat="37.4448" lon="27.70458">
        <ele>669.896</ele>
      </trkpt>
      <trkpt lat="37.44484" lon="27.70468">
        <ele>669.556</ele>
      </trkpt>
      <trkpt lat="37.44493" lon="27.70482">
        <ele>669.822</ele>
      </trkpt>
      <trkpt lat="37.44505" lon="27.705">
        <ele>669.985</ele>
      </trkpt>
      <trkpt lat="37.44506" lon="27.705">
        <ele>670.006</ele>
      </trkpt>
      <trkpt lat="37.44511" lon="27.70511">
        <ele>670.056</ele>
      </trkpt>
      <trkpt lat="37.44515" lon="27.7052">
        <ele>669.927</ele>
      </trkpt>
      <trkpt lat="37.44507" lon="27.70523">
        <ele>668.299</ele>
      </trkpt>
      <trkpt lat="37.44504" lon="27.70527">
        <ele>667.614</ele>
      </trkpt>
      <trkpt lat="37.44487" lon="27.70531">
        <ele>665.96</ele>
      </trkpt>
      <trkpt lat="37.44478" lon="27.70537">
        <ele>664.863</ele>
      </trkpt>
      <trkpt lat="37.44473" lon="27.70544">
        <ele>663.941</ele>
      </trkpt>
      <trkpt lat="37.44473" lon="27.70546">
        <ele>663.802</ele>
      </trkpt>
      <trkpt lat="37.44469" lon="27.70552">
        <ele>662.54</ele>
      </trkpt>
      <trkpt lat="37.44471" lon="27.70563">
        <ele>661.942</ele>
      </trkpt>
      <trkpt lat="37.44474" lon="27.70574">
        <ele>661.324</ele>
      </trkpt>
      <trkpt lat="37.44479" lon="27.7059">
        <ele>659.876</ele>
      </trkpt>
      <trkpt lat="37.44484" lon="27.70605">
        <ele>658.264</ele>
      </trkpt>
      <trkpt lat="37.4449" lon="27.70623">
        <ele>655.963</ele>
      </trkpt>
      <trkpt lat="37.44494" lon="27.7063">
        <ele>655.477</ele>
      </trkpt>
      <trkpt lat="37.44498" lon="27.70635">
        <ele>655.149</ele>
      </trkpt>
      <trkpt lat="37.445" lon="27.70643">
        <ele>654.144</ele>
      </trkpt>
      <trkpt lat="37.445" lon="27.70646">
        <ele>653.645</ele>
      </trkpt>
      <trkpt lat="37.44499" lon="27.70648">
        <ele>653.157</ele>
      </trkpt>
      <trkpt lat="37.44509" lon="27.70664">
        <ele>653.09</ele>
      </trkpt>
      <trkpt lat="37.44509" lon="27.70666">
        <ele>652.677</ele>
      </trkpt>
      <trkpt lat="37.44509" lon="27.70681">
        <ele>648.711</ele>
      </trkpt>
      <trkpt lat="37.44509" lon="27.70694">
        <ele>645.063</ele>
      </trkpt>
      <trkpt lat="37.4451" lon="27.70708">
        <ele>642.482</ele>
      </trkpt>
      <trkpt lat="37.44515" lon="27.70726">
        <ele>640.208</ele>
      </trkpt>
      <trkpt lat="37.44514" lon="27.70743">
        <ele>637.482</ele>
      </trkpt>
      <trkpt lat="37.44515" lon="27.70758">
        <ele>635.701</ele>
      </trkpt>
      <trkpt lat="37.44522" lon="27.70769">
        <ele>636.573</ele>
      </trkpt>
      <trkpt lat="37.44525" lon="27.70775">
        <ele>636.692</ele>
      </trkpt>
      <trkpt lat="37.44526" lon="27.70777">
        <ele>636.469</ele>
      </trkpt>
      <trkpt lat="37.4453" lon="27.70788">
        <ele>634.987</ele>
      </trkpt>
      <trkpt lat="37.44537" lon="27.70797">
        <ele>633.903</ele>
      </trkpt>
      <trkpt lat="37.44546" lon="27.70809">
        <ele>632.488</ele>
      </trkpt>
      <trkpt lat="37.44557" lon="27.70824">
        <ele>632.671</ele>
      </trkpt>
      <trkpt lat="37.44574" lon="27.70837">
        <ele>637.891</ele>
      </trkpt>
      <trkpt lat="37.44577" lon="27.7084">
        <ele>639.107</ele>
      </trkpt>
      <trkpt lat="37.44574" lon="27.70842">
        <ele>638.246</ele>
      </trkpt>
      <trkpt lat="37.44576" lon="27.7084">
        <ele>638.749</ele>
      </trkpt>
      <trkpt lat="37.44573" lon="27.70847">
        <ele>638.411</ele>
      </trkpt>
      <trkpt lat="37.44565" lon="27.70857">
        <ele>635.339</ele>
      </trkpt>
      <trkpt lat="37.4455" lon="27.70846">
        <ele>629.428</ele>
      </trkpt>
      <trkpt lat="37.44535" lon="27.70849">
        <ele>624.806</ele>
      </trkpt>
      <trkpt lat="37.4453" lon="27.70851">
        <ele>623.08</ele>
      </trkpt>
      <trkpt lat="37.44514" lon="27.70865">
        <ele>620.288</ele>
      </trkpt>
      <trkpt lat="37.44503" lon="27.7087">
        <ele>618.977</ele>
      </trkpt>
      <trkpt lat="37.44489" lon="27.70879">
        <ele>615.889</ele>
      </trkpt>
      <trkpt lat="37.44477" lon="27.7089">
        <ele>612.93</ele>
      </trkpt>
      <trkpt lat="37.44473" lon="27.709">
        <ele>612.298</ele>
      </trkpt>
      <trkpt lat="37.44473" lon="27.70901">
        <ele>612.625</ele>
      </trkpt>
      <trkpt lat="37.44472" lon="27.70903">
        <ele>612.331</ele>
      </trkpt>
      <trkpt lat="37.44468" lon="27.70914">
        <ele>611.916</ele>
      </trkpt>
      <trkpt lat="37.44465" lon="27.70922">
        <ele>612.005</ele>
      </trkpt>
      <trkpt lat="37.44466" lon="27.70941">
        <ele>616.001</ele>
      </trkpt>
      <trkpt lat="37.44468" lon="27.7095">
        <ele>618.516</ele>
      </trkpt>
      <trkpt lat="37.44463" lon="27.70955">
        <ele>617.446</ele>
      </trkpt>
      <trkpt lat="37.4446" lon="27.70957">
        <ele>616.781</ele>
      </trkpt>
      <trkpt lat="37.44448" lon="27.70962">
        <ele>613.05</ele>
      </trkpt>
      <trkpt lat="37.44434" lon="27.70979">
        <ele>610.038</ele>
      </trkpt>
      <trkpt lat="37.44428" lon="27.70999">
        <ele>609.909</ele>
      </trkpt>
      <trkpt lat="37.44429" lon="27.71018">
        <ele>611.794</ele>
      </trkpt>
      <trkpt lat="37.4443" lon="27.7104">
        <ele>613.692</ele>
      </trkpt>
      <trkpt lat="37.44429" lon="27.71065">
        <ele>615.259</ele>
      </trkpt>
      <trkpt lat="37.44427" lon="27.71085">
        <ele>617.146</ele>
      </trkpt>
      <trkpt lat="37.44423" lon="27.71101">
        <ele>617.657</ele>
      </trkpt>
      <trkpt lat="37.44416" lon="27.7111">
        <ele>616.445</ele>
      </trkpt>
      <trkpt lat="37.44404" lon="27.71119">
        <ele>613.228</ele>
      </trkpt>
      <trkpt lat="37.44396" lon="27.7113">
        <ele>612.05</ele>
      </trkpt>
      <trkpt lat="37.44389" lon="27.71138">
        <ele>611.053</ele>
      </trkpt>
      <trkpt lat="37.44388" lon="27.71141">
        <ele>611.23</ele>
      </trkpt>
      <trkpt lat="37.44387" lon="27.71157">
        <ele>614.924</ele>
      </trkpt>
      <trkpt lat="37.44388" lon="27.71186">
        <ele>620.343</ele>
      </trkpt>
      <trkpt lat="37.44389" lon="27.71201">
        <ele>620.632</ele>
      </trkpt>
      <trkpt lat="37.44388" lon="27.71205">
        <ele>619.384</ele>
      </trkpt>
      <trkpt lat="37.44388" lon="27.71214">
        <ele>618.14</ele>
      </trkpt>
      <trkpt lat="37.44389" lon="27.71219">
        <ele>617.851</ele>
      </trkpt>
      <trkpt lat="37.44392" lon="27.71235">
        <ele>617.999</ele>
      </trkpt>
      <trkpt lat="37.44397" lon="27.71259">
        <ele>619.042</ele>
      </trkpt>
      <trkpt lat="37.44402" lon="27.71274">
        <ele>620.129</ele>
      </trkpt>
      <trkpt lat="37.44414" lon="27.71285">
        <ele>623.266</ele>
      </trkpt>
      <trkpt lat="37.44419" lon="27.71286">
        <ele>624.205</ele>
      </trkpt>
      <trkpt lat="37.44424" lon="27.71293">
        <ele>622.869</ele>
      </trkpt>
      <trkpt lat="37.44428" lon="27.71296">
        <ele>622.138</ele>
      </trkpt>
      <trkpt lat="37.4443" lon="27.71298">
        <ele>621.629</ele>
      </trkpt>
      <trkpt lat="37.44442" lon="27.71307">
        <ele>618.821</ele>
      </trkpt>
      <trkpt lat="37.44448" lon="27.71309">
        <ele>617.791</ele>
      </trkpt>
      <trkpt lat="37.44454" lon="27.71313">
        <ele>615.686</ele>
      </trkpt>
      <trkpt lat="37.44462" lon="27.71314">
        <ele>615.247</ele>
      </trkpt>
      <trkpt lat="37.44477" lon="27.71319">
        <ele>613.404</ele>
      </trkpt>
      <trkpt lat="37.44481" lon="27.71322">
        <ele>612.534</ele>
      </trkpt>
      <trkpt lat="37.44492" lon="27.71325">
        <ele>612.126</ele>
      </trkpt>
      <trkpt lat="37.44493" lon="27.71325">
        <ele>611.941</ele>
      </trkpt>
      <trkpt lat="37.44507" lon="27.71331">
        <ele>612.089</ele>
      </trkpt>
      <trkpt lat="37.44515" lon="27.71333">
        <ele>613.548</ele>
      </trkpt>
      <trkpt lat="37.44529" lon="27.71343">
        <ele>612.607</ele>
      </trkpt>
      <trkpt lat="37.44537" lon="27.7135">
        <ele>609.664</ele>
      </trkpt>
      <trkpt lat="37.44541" lon="27.71353">
        <ele>608.093</ele>
      </trkpt>
      <trkpt lat="37.44542" lon="27.71354">
        <ele>607.632</ele>
      </trkpt>
      <trkpt lat="37.44549" lon="27.71356">
        <ele>607.035</ele>
      </trkpt>
      <trkpt lat="37.44563" lon="27.71358">
        <ele>604.806</ele>
      </trkpt>
      <trkpt lat="37.44581" lon="27.71358">
        <ele>600.892</ele>
      </trkpt>
      <trkpt lat="37.44586" lon="27.7136">
        <ele>598.321</ele>
      </trkpt>
      <trkpt lat="37.44598" lon="27.71369">
        <ele>592.167</ele>
      </trkpt>
      <trkpt lat="37.44615" lon="27.71385">
        <ele>587.944</ele>
      </trkpt>
      <trkpt lat="37.44618" lon="27.71387">
        <ele>588.2</ele>
      </trkpt>
      <trkpt lat="37.44619" lon="27.71388">
        <ele>588.226</ele>
      </trkpt>
      <trkpt lat="37.44628" lon="27.71393">
        <ele>589.703</ele>
      </trkpt>
      <trkpt lat="37.44643" lon="27.71393">
        <ele>595.64</ele>
      </trkpt>
      <trkpt lat="37.44655" lon="27.71403">
        <ele>597.904</ele>
      </trkpt>
      <trkpt lat="37.44657" lon="27.71408">
        <ele>597.088</ele>
      </trkpt>
      <trkpt lat="37.4466" lon="27.71412">
        <ele>596.94</ele>
      </trkpt>
      <trkpt lat="37.44658" lon="27.71422">
        <ele>594.215</ele>
      </trkpt>
      <trkpt lat="37.44654" lon="27.71437">
        <ele>590.837</ele>
      </trkpt>
      <trkpt lat="37.44642" lon="27.71448">
        <ele>584.943</ele>
      </trkpt>
      <trkpt lat="37.44634" lon="27.71467">
        <ele>584.623</ele>
      </trkpt>
      <trkpt lat="37.44633" lon="27.71474">
        <ele>584.959</ele>
      </trkpt>
      <trkpt lat="37.44628" lon="27.71492">
        <ele>586.298</ele>
      </trkpt>
      <trkpt lat="37.44616" lon="27.7151">
        <ele>584.186</ele>
      </trkpt>
      <trkpt lat="37.44609" lon="27.71529">
        <ele>584.272</ele>
      </trkpt>
      <trkpt lat="37.44608" lon="27.71529">
        <ele>583.998</ele>
      </trkpt>
      <trkpt lat="37.44604" lon="27.71543">
        <ele>582.489</ele>
      </trkpt>
      <trkpt lat="37.44602" lon="27.71555">
        <ele>581.813</ele>
      </trkpt>
      <trkpt lat="37.44611" lon="27.7157">
        <ele>581.289</ele>
      </trkpt>
      <trkpt lat="37.44614" lon="27.71572">
        <ele>581.642</ele>
      </trkpt>
      <trkpt lat="37.44623" lon="27.71584">
        <ele>580.47</ele>
      </trkpt>
      <trkpt lat="37.44631" lon="27.71597">
        <ele>577.35</ele>
      </trkpt>
      <trkpt lat="37.44637" lon="27.71614">
        <ele>573.38</ele>
      </trkpt>
      <trkpt lat="37.44641" lon="27.71621">
        <ele>571.973</ele>
      </trkpt>
      <trkpt lat="37.44643" lon="27.71635">
        <ele>567.779</ele>
      </trkpt>
      <trkpt lat="37.44645" lon="27.71644">
        <ele>564.853</ele>
      </trkpt>
      <trkpt lat="37.44649" lon="27.71658">
        <ele>561.215</ele>
      </trkpt>
      <trkpt lat="37.4466" lon="27.71678">
        <ele>558.875</ele>
      </trkpt>
      <trkpt lat="37.44665" lon="27.71683">
        <ele>559.228</ele>
      </trkpt>
      <trkpt lat="37.44671" lon="27.717">
        <ele>556.847</ele>
      </trkpt>
      <trkpt lat="37.44675" lon="27.71703">
        <ele>558.22</ele>
      </trkpt>
      <trkpt lat="37.44685" lon="27.71705">
        <ele>562.911</ele>
      </trkpt>
      <trkpt lat="37.44693" lon="27.71712">
        <ele>564.876</ele>
      </trkpt>
      <trkpt lat="37.44695" lon="27.71718">
        <ele>563.758</ele>
      </trkpt>
      <trkpt lat="37.44697" lon="27.71721">
        <ele>563.304</ele>
      </trkpt>
      <trkpt lat="37.44701" lon="27.71731">
        <ele>560.99</ele>
      </trkpt>
      <trkpt lat="37.44709" lon="27.71742">
        <ele>560.04</ele>
      </trkpt>
      <trkpt lat="37.4471" lon="27.71743">
        <ele>559.932</ele>
      </trkpt>
      <trkpt lat="37.44713" lon="27.7175">
        <ele>558.785</ele>
      </trkpt>
      <trkpt lat="37.44718" lon="27.7176">
        <ele>559.052</ele>
      </trkpt>
      <trkpt lat="37.44719" lon="27.7176">
        <ele>559.39</ele>
      </trkpt>
      <trkpt lat="37.44729" lon="27.71769">
        <ele>562.035</ele>
      </trkpt>
      <trkpt lat="37.44725" lon="27.71777">
        <ele>559.474</ele>
      </trkpt>
      <trkpt lat="37.44725" lon="27.71778">
        <ele>559.196</ele>
      </trkpt>
      <trkpt lat="37.44727" lon="27.7179">
        <ele>558.661</ele>
      </trkpt>
      <trkpt lat="37.44732" lon="27.71794">
        <ele>560.328</ele>
      </trkpt>
      <trkpt lat="37.44735" lon="27.71802">
        <ele>560.769</ele>
      </trkpt>
      <trkpt lat="37.44742" lon="27.71813">
        <ele>562.762</ele>
      </trkpt>
      <trkpt lat="37.44752" lon="27.71821">
        <ele>565.309</ele>
      </trkpt>
      <trkpt lat="37.44762" lon="27.71835">
        <ele>565.703</ele>
      </trkpt>
      <trkpt lat="37.44767" lon="27.71841">
        <ele>565.596</ele>
      </trkpt>
      <trkpt lat="37.44767" lon="27.71843">
        <ele>564.988</ele>
      </trkpt>
      <trkpt lat="37.44765" lon="27.71846">
        <ele>563.997</ele>
      </trkpt>
      <trkpt lat="37.44775" lon="27.71854">
        <ele>564.197</ele>
      </trkpt>
      <trkpt lat="37.44779" lon="27.71859">
        <ele>563.884</ele>
      </trkpt>
      <trkpt lat="37.44789" lon="27.71868">
        <ele>565.419</ele>
      </trkpt>
      <trkpt lat="37.44789" lon="27.71869">
        <ele>565.543</ele>
      </trkpt>
      <trkpt lat="37.44796" lon="27.71879">
        <ele>566.018</ele>
      </trkpt>
      <trkpt lat="37.448" lon="27.71884">
        <ele>566.348</ele>
      </trkpt>
      <trkpt lat="37.448" lon="27.71884">
        <ele>566.369</ele>
      </trkpt>
      <trkpt lat="37.44802" lon="27.71883">
        <ele>566.963</ele>
      </trkpt>
      <trkpt lat="37.44805" lon="27.71889">
        <ele>566.826</ele>
      </trkpt>
      <trkpt lat="37.44804" lon="27.71895">
        <ele>567.368</ele>
      </trkpt>
      <trkpt lat="37.44795" lon="27.71903">
        <ele>567.139</ele>
      </trkpt>
      <trkpt lat="37.44791" lon="27.71907">
        <ele>567.641</ele>
      </trkpt>
      <trkpt lat="37.44788" lon="27.71906">
        <ele>567.035</ele>
      </trkpt>
      <trkpt lat="37.44779" lon="27.71909">
        <ele>566.729</ele>
      </trkpt>
      <trkpt lat="37.44778" lon="27.71909">
        <ele>566.677</ele>
      </trkpt>
      <trkpt lat="37.44775" lon="27.71909">
        <ele>566.92</ele>
      </trkpt>
      <trkpt lat="37.44772" lon="27.71911">
        <ele>567.277</ele>
      </trkpt>
      <trkpt lat="37.44778" lon="27.71918">
        <ele>569.791</ele>
      </trkpt>
      <trkpt lat="37.44779" lon="27.71919">
        <ele>570.155</ele>
      </trkpt>
      <trkpt lat="37.44776" lon="27.71922">
        <ele>571.399</ele>
      </trkpt>
      <trkpt lat="37.44775" lon="27.71923">
        <ele>571.663</ele>
      </trkpt>
      <trkpt lat="37.44765" lon="27.7192">
        <ele>570.364</ele>
      </trkpt>
      <trkpt lat="37.44757" lon="27.71921">
        <ele>570.698</ele>
      </trkpt>
      <trkpt lat="37.44753" lon="27.71913">
        <ele>567.934</ele>
      </trkpt>
      <trkpt lat="37.44746" lon="27.71908">
        <ele>566.817</ele>
      </trkpt>
      <trkpt lat="37.44746" lon="27.71908">
        <ele>566.746</ele>
      </trkpt>
      <trkpt lat="37.44741" lon="27.71913">
        <ele>568.378</ele>
      </trkpt>
      <trkpt lat="37.44734" lon="27.71917">
        <ele>569.556</ele>
      </trkpt>
      <trkpt lat="37.44722" lon="27.71928">
        <ele>574.585</ele>
      </trkpt>
      <trkpt lat="37.44707" lon="27.7194">
        <ele>577.937</ele>
      </trkpt>
      <trkpt lat="37.44693" lon="27.71944">
        <ele>577.639</ele>
      </trkpt>
      <trkpt lat="37.44685" lon="27.71944">
        <ele>577.256</ele>
      </trkpt>
      <trkpt lat="37.44668" lon="27.71937">
        <ele>573.606</ele>
      </trkpt>
      <trkpt lat="37.44657" lon="27.71935">
        <ele>573.823</ele>
      </trkpt>
      <trkpt lat="37.44656" lon="27.71935">
        <ele>573.947</ele>
      </trkpt>
      <trkpt lat="37.44645" lon="27.71938">
        <ele>575.503</ele>
      </trkpt>
      <trkpt lat="37.44635" lon="27.71944">
        <ele>578.505</ele>
      </trkpt>
      <trkpt lat="37.44632" lon="27.71949">
        <ele>579.707</ele>
      </trkpt>
      <trkpt lat="37.44629" lon="27.71949">
        <ele>580.185</ele>
      </trkpt>
      <trkpt lat="37.44624" lon="27.7195">
        <ele>580.949</ele>
      </trkpt>
      <trkpt lat="37.44621" lon="27.7194">
        <ele>579.575</ele>
      </trkpt>
      <trkpt lat="37.44617" lon="27.71937">
        <ele>579.466</ele>
      </trkpt>
      <trkpt lat="37.44606" lon="27.71926">
        <ele>579.903</ele>
      </trkpt>
      <trkpt lat="37.44596" lon="27.71912">
        <ele>580.413</ele>
      </trkpt>
      <trkpt lat="37.44589" lon="27.71901">
        <ele>580.459</ele>
      </trkpt>
      <trkpt lat="37.44584" lon="27.71896">
        <ele>581.115</ele>
      </trkpt>
      <trkpt lat="37.44574" lon="27.71889">
        <ele>584.615</ele>
      </trkpt>
      <trkpt lat="37.4457" lon="27.71888">
        <ele>585.836</ele>
      </trkpt>
      <trkpt lat="37.44561" lon="27.71886">
        <ele>589.405</ele>
      </trkpt>
      <trkpt lat="37.44549" lon="27.71879">
        <ele>590.983</ele>
      </trkpt>
      <trkpt lat="37.44542" lon="27.71871">
        <ele>590.046</ele>
      </trkpt>
      <trkpt lat="37.44533" lon="27.71875">
        <ele>593.275</ele>
      </trkpt>
      <trkpt lat="37.44519" lon="27.7188">
        <ele>596.368</ele>
      </trkpt>
      <trkpt lat="37.44504" lon="27.71886">
        <ele>598.927</ele>
      </trkpt>
      <trkpt lat="37.44487" lon="27.71891">
        <ele>602.176</ele>
      </trkpt>
      <trkpt lat="37.44474" lon="27.71886">
        <ele>601.882</ele>
      </trkpt>
      <trkpt lat="37.44455" lon="27.71876">
        <ele>601.657</ele>
      </trkpt>
      <trkpt lat="37.4444" lon="27.71875">
        <ele>602.739</ele>
      </trkpt>
      <trkpt lat="37.44439" lon="27.71874">
        <ele>602.466</ele>
      </trkpt>
      <trkpt lat="37.44435" lon="27.71881">
        <ele>604.117</ele>
      </trkpt>
      <trkpt lat="37.44435" lon="27.71887">
        <ele>605.665</ele>
      </trkpt>
      <trkpt lat="37.44422" lon="27.71894">
        <ele>606.766</ele>
      </trkpt>
      <trkpt lat="37.4442" lon="27.71895">
        <ele>606.723</ele>
      </trkpt>
      <trkpt lat="37.44417" lon="27.71897">
        <ele>607.115</ele>
      </trkpt>
      <trkpt lat="37.4441" lon="27.71902">
        <ele>607.259</ele>
      </trkpt>
      <trkpt lat="37.44399" lon="27.71917">
        <ele>608.759</ele>
      </trkpt>
      <trkpt lat="37.44383" lon="27.7192">
        <ele>607.291</ele>
      </trkpt>
      <trkpt lat="37.44371" lon="27.71925">
        <ele>607.467</ele>
      </trkpt>
      <trkpt lat="37.44357" lon="27.71928">
        <ele>607.579</ele>
      </trkpt>
      <trkpt lat="37.44346" lon="27.71935">
        <ele>608.855</ele>
      </trkpt>
      <trkpt lat="37.44339" lon="27.71941">
        <ele>610.318</ele>
      </trkpt>
      <trkpt lat="37.44332" lon="27.7195">
        <ele>612.32</ele>
      </trkpt>
      <trkpt lat="37.44327" lon="27.71957">
        <ele>613.317</ele>
      </trkpt>
      <trkpt lat="37.44327" lon="27.71961">
        <ele>614.41</ele>
      </trkpt>
      <trkpt lat="37.44327" lon="27.71973">
        <ele>617.272</ele>
      </trkpt>
      <trkpt lat="37.44313" lon="27.72005">
        <ele>618.934</ele>
      </trkpt>
      <trkpt lat="37.44299" lon="27.72019">
        <ele>619.767</ele>
      </trkpt>
      <trkpt lat="37.44285" lon="27.72028">
        <ele>618.992</ele>
      </trkpt>
      <trkpt lat="37.4428" lon="27.72031">
        <ele>618.232</ele>
      </trkpt>
      <trkpt lat="37.44273" lon="27.72039">
        <ele>617.15</ele>
      </trkpt>
      <trkpt lat="37.44268" lon="27.72047">
        <ele>616.817</ele>
      </trkpt>
      <trkpt lat="37.44266" lon="27.72049">
        <ele>616.124</ele>
      </trkpt>
      <trkpt lat="37.4426" lon="27.72058">
        <ele>615.158</ele>
      </trkpt>
      <trkpt lat="37.44255" lon="27.72074">
        <ele>616.116</ele>
      </trkpt>
      <trkpt lat="37.44254" lon="27.72076">
        <ele>616.154</ele>
      </trkpt>
      <trkpt lat="37.44253" lon="27.72094">
        <ele>617.985</ele>
      </trkpt>
      <trkpt lat="37.44253" lon="27.72102">
        <ele>618.993</ele>
      </trkpt>
      <trkpt lat="37.44254" lon="27.72108">
        <ele>619.557</ele>
      </trkpt>
      <trkpt lat="37.44252" lon="27.72124">
        <ele>620.363</ele>
      </trkpt>
      <trkpt lat="37.44246" lon="27.72126">
        <ele>619.771</ele>
      </trkpt>
      <trkpt lat="37.44237" lon="27.72128">
        <ele>619.395</ele>
      </trkpt>
      <trkpt lat="37.44226" lon="27.72126">
        <ele>618.368</ele>
      </trkpt>
      <trkpt lat="37.44212" lon="27.72126">
        <ele>617.357</ele>
      </trkpt>
      <trkpt lat="37.44197" lon="27.72119">
        <ele>615.359</ele>
      </trkpt>
      <trkpt lat="37.44194" lon="27.72119">
        <ele>615.167</ele>
      </trkpt>
      <trkpt lat="37.44192" lon="27.72126">
        <ele>615.886</ele>
      </trkpt>
      <trkpt lat="37.44197" lon="27.72135">
        <ele>617.649</ele>
      </trkpt>
      <trkpt lat="37.44199" lon="27.72145">
        <ele>618.658</ele>
      </trkpt>
      <trkpt lat="37.44198" lon="27.72147">
        <ele>618.595</ele>
      </trkpt>
      <trkpt lat="37.44202" lon="27.72156">
        <ele>619.489</ele>
      </trkpt>
      <trkpt lat="37.44208" lon="27.72165">
        <ele>620.868</ele>
      </trkpt>
      <trkpt lat="37.44219" lon="27.72181">
        <ele>624.133</ele>
      </trkpt>
      <trkpt lat="37.44218" lon="27.72191">
        <ele>625.101</ele>
      </trkpt>
      <trkpt lat="37.4421" lon="27.72207">
        <ele>627.926</ele>
      </trkpt>
      <trkpt lat="37.44209" lon="27.72215">
        <ele>629.637</ele>
      </trkpt>
      <trkpt lat="37.44206" lon="27.72216">
        <ele>629.463</ele>
      </trkpt>
      <trkpt lat="37.44206" lon="27.72217">
        <ele>629.564</ele>
      </trkpt>
      <trkpt lat="37.44198" lon="27.72228">
        <ele>629.332</ele>
      </trkpt>
      <trkpt lat="37.44186" lon="27.7224">
        <ele>625.226</ele>
      </trkpt>
      <trkpt lat="37.44182" lon="27.72255">
        <ele>623.73</ele>
      </trkpt>
      <trkpt lat="37.44179" lon="27.72262">
        <ele>622.003</ele>
      </trkpt>
      <trkpt lat="37.44182" lon="27.7227">
        <ele>622.584</ele>
      </trkpt>
      <trkpt lat="37.44181" lon="27.72286">
        <ele>621.939</ele>
      </trkpt>
      <trkpt lat="37.44185" lon="27.72302">
        <ele>623.934</ele>
      </trkpt>
      <trkpt lat="37.44186" lon="27.72316">
        <ele>625.876</ele>
      </trkpt>
      <trkpt lat="37.44189" lon="27.7234">
        <ele>629.965</ele>
      </trkpt>
      <trkpt lat="37.44188" lon="27.72352">
        <ele>631.296</ele>
      </trkpt>
      <trkpt lat="37.44182" lon="27.72366">
        <ele>631.446</ele>
      </trkpt>
      <trkpt lat="37.44181" lon="27.72367">
        <ele>631.257</ele>
      </trkpt>
      <trkpt lat="37.44175" lon="27.72364">
        <ele>628.685</ele>
      </trkpt>
      <trkpt lat="37.44167" lon="27.72375">
        <ele>627.92</ele>
      </trkpt>
      <trkpt lat="37.44164" lon="27.7238">
        <ele>628.935</ele>
      </trkpt>
      <trkpt lat="37.44162" lon="27.72396">
        <ele>632.483</ele>
      </trkpt>
      <trkpt lat="37.44155" lon="27.72401">
        <ele>633.681</ele>
      </trkpt>
      <trkpt lat="37.44146" lon="27.72399">
        <ele>633.39</ele>
      </trkpt>
      <trkpt lat="37.44139" lon="27.72396">
        <ele>632.666</ele>
      </trkpt>
      <trkpt lat="37.44137" lon="27.72394">
        <ele>632.754</ele>
      </trkpt>
      <trkpt lat="37.44132" lon="27.72397">
        <ele>634.381</ele>
      </trkpt>
      <trkpt lat="37.4413" lon="27.724">
        <ele>635.322</ele>
      </trkpt>
      <trkpt lat="37.44121" lon="27.72399">
        <ele>636.857</ele>
      </trkpt>
      <trkpt lat="37.44109" lon="27.72395">
        <ele>637.549</ele>
      </trkpt>
      <trkpt lat="37.44111" lon="27.72404">
        <ele>639.792</ele>
      </trkpt>
      <trkpt lat="37.44111" lon="27.72405">
        <ele>640.032</ele>
      </trkpt>
      <trkpt lat="37.44103" lon="27.72404">
        <ele>640.089</ele>
      </trkpt>
      <trkpt lat="37.44101" lon="27.72404">
        <ele>640.142</ele>
      </trkpt>
      <trkpt lat="37.44103" lon="27.72412">
        <ele>642.049</ele>
      </trkpt>
      <trkpt lat="37.44103" lon="27.72415">
        <ele>642.831</ele>
      </trkpt>
      <trkpt lat="37.44104" lon="27.72418">
        <ele>643.606</ele>
      </trkpt>
      <trkpt lat="37.44098" lon="27.7242">
        <ele>644.473</ele>
      </trkpt>
      <trkpt lat="37.44101" lon="27.72424">
        <ele>645.471</ele>
      </trkpt>
      <trkpt lat="37.44103" lon="27.72427">
        <ele>646.344</ele>
      </trkpt>
      <trkpt lat="37.44103" lon="27.72429">
        <ele>646.965</ele>
      </trkpt>
      <trkpt lat="37.44099" lon="27.72429">
        <ele>647.283</ele>
      </trkpt>
      <trkpt lat="37.44095" lon="27.72429">
        <ele>647.35</ele>
      </trkpt>
      <trkpt lat="37.44093" lon="27.7243">
        <ele>647.639</ele>
      </trkpt>
      <trkpt lat="37.44086" lon="27.72428">
        <ele>647.614</ele>
      </trkpt>
      <trkpt lat="37.44085" lon="27.72426">
        <ele>647.042</ele>
      </trkpt>
      <trkpt lat="37.44084" lon="27.72425">
        <ele>646.657</ele>
      </trkpt>
      <trkpt lat="37.44075" lon="27.7242">
        <ele>644.749</ele>
      </trkpt>
      <trkpt lat="37.44062" lon="27.72422">
        <ele>644.643</ele>
      </trkpt>
      <trkpt lat="37.44048" lon="27.72426">
        <ele>644.053</ele>
      </trkpt>
      <trkpt lat="37.44033" lon="27.72428">
        <ele>641.324</ele>
      </trkpt>
      <trkpt lat="37.44021" lon="27.72429">
        <ele>639.262</ele>
      </trkpt>
      <trkpt lat="37.44017" lon="27.7243">
        <ele>638.861</ele>
      </trkpt>
      <trkpt lat="37.44014" lon="27.72431">
        <ele>638.49</ele>
      </trkpt>
      <trkpt lat="37.44002" lon="27.72428">
        <ele>635.821</ele>
      </trkpt>
      <trkpt lat="37.43998" lon="27.72429">
        <ele>635.214</ele>
      </trkpt>
      <trkpt lat="37.43991" lon="27.72432">
        <ele>634.617</ele>
      </trkpt>
      <trkpt lat="37.43987" lon="27.72442">
        <ele>635.185</ele>
      </trkpt>
      <trkpt lat="37.43981" lon="27.7244">
        <ele>633.585</ele>
      </trkpt>
      <trkpt lat="37.43979" lon="27.72436">
        <ele>632.781</ele>
      </trkpt>
      <trkpt lat="37.43975" lon="27.72434">
        <ele>631.709</ele>
      </trkpt>
      <trkpt lat="37.43964" lon="27.72441">
        <ele>629.899</ele>
      </trkpt>
      <trkpt lat="37.43962" lon="27.72442">
        <ele>629.587</ele>
      </trkpt>
      <trkpt lat="37.43958" lon="27.72456">
        <ele>630.135</ele>
      </trkpt>
      <trkpt lat="37.4396" lon="27.72464">
        <ele>631.457</ele>
      </trkpt>
      <trkpt lat="37.43962" lon="27.72475">
        <ele>633.522</ele>
      </trkpt>
      <trkpt lat="37.43955" lon="27.72488">
        <ele>633.668</ele>
      </trkpt>
      <trkpt lat="37.43942" lon="27.72495">
        <ele>631.556</ele>
      </trkpt>
      <trkpt lat="37.43939" lon="27.725">
        <ele>631.925</ele>
      </trkpt>
      <trkpt lat="37.43933" lon="27.72501">
        <ele>631.284</ele>
      </trkpt>
      <trkpt lat="37.43924" lon="27.72503">
        <ele>629.995</ele>
      </trkpt>
      <trkpt lat="37.43922" lon="27.72502">
        <ele>629.332</ele>
      </trkpt>
      <trkpt lat="37.4391" lon="27.72502">
        <ele>627.781</ele>
      </trkpt>
      <trkpt lat="37.439" lon="27.725">
        <ele>625.647</ele>
      </trkpt>
      <trkpt lat="37.43891" lon="27.7251">
        <ele>627.6</ele>
      </trkpt>
      <trkpt lat="37.43886" lon="27.72511">
        <ele>627.369</ele>
      </trkpt>
      <trkpt lat="37.43884" lon="27.72511">
        <ele>626.991</ele>
      </trkpt>
      <trkpt lat="37.43871" lon="27.72514">
        <ele>626.811</ele>
      </trkpt>
      <trkpt lat="37.43856" lon="27.72517">
        <ele>626.394</ele>
      </trkpt>
      <trkpt lat="37.43848" lon="27.72513">
        <ele>624.579</ele>
      </trkpt>
      <trkpt lat="37.43836" lon="27.72507">
        <ele>621.186</ele>
      </trkpt>
      <trkpt lat="37.43821" lon="27.72505">
        <ele>619.893</ele>
      </trkpt>
      <trkpt lat="37.4382" lon="27.72503">
        <ele>619.101</ele>
      </trkpt>
      <trkpt lat="37.43819" lon="27.72499">
        <ele>617.6</ele>
      </trkpt>
      <trkpt lat="37.43817" lon="27.72498">
        <ele>617.32</ele>
      </trkpt>
      <trkpt lat="37.43818" lon="27.72491">
        <ele>614.613</ele>
      </trkpt>
      <trkpt lat="37.43806" lon="27.72493">
        <ele>615.024</ele>
      </trkpt>
      <trkpt lat="37.43795" lon="27.72494">
        <ele>614.39</ele>
      </trkpt>
      <trkpt lat="37.43776" lon="27.72493">
        <ele>611.425</ele>
      </trkpt>
      <trkpt lat="37.43769" lon="27.72493">
        <ele>610.157</ele>
      </trkpt>
      <trkpt lat="37.43761" lon="27.72489">
        <ele>607.448</ele>
      </trkpt>
      <trkpt lat="37.4375" lon="27.72487">
        <ele>605.246</ele>
      </trkpt>
      <trkpt lat="37.43742" lon="27.72503">
        <ele>606.237</ele>
      </trkpt>
      <trkpt lat="37.43738" lon="27.72516">
        <ele>607.562</ele>
      </trkpt>
      <trkpt lat="37.43733" lon="27.72528">
        <ele>608.883</ele>
      </trkpt>
      <trkpt lat="37.43732" lon="27.72534">
        <ele>609.412</ele>
      </trkpt>
      <trkpt lat="37.43728" lon="27.7255">
        <ele>610.874</ele>
      </trkpt>
      <trkpt lat="37.43729" lon="27.72549">
        <ele>610.949</ele>
      </trkpt>
      <trkpt lat="37.43724" lon="27.72546">
        <ele>609.247</ele>
      </trkpt>
      <trkpt lat="37.43716" lon="27.72545">
        <ele>607.237</ele>
      </trkpt>
      <trkpt lat="37.43715" lon="27.7255">
        <ele>607.953</ele>
      </trkpt>
      <trkpt lat="37.4371" lon="27.7255">
        <ele>607.059</ele>
      </trkpt>
      <trkpt lat="37.4371" lon="27.72547">
        <ele>606.583</ele>
      </trkpt>
      <trkpt lat="37.43706" lon="27.72552">
        <ele>606.869</ele>
      </trkpt>
      <trkpt lat="37.43705" lon="27.72553">
        <ele>606.981</ele>
      </trkpt>
      <trkpt lat="37.43698" lon="27.72553">
        <ele>605.848</ele>
      </trkpt>
      <trkpt lat="37.43693" lon="27.72555">
        <ele>605.685</ele>
      </trkpt>
      <trkpt lat="37.43689" lon="27.72554">
        <ele>605.263</ele>
      </trkpt>
      <trkpt lat="37.43679" lon="27.72558">
        <ele>606.257</ele>
      </trkpt>
      <trkpt lat="37.43673" lon="27.72558">
        <ele>606.348</ele>
      </trkpt>
      <trkpt lat="37.43666" lon="27.72558">
        <ele>606.116</ele>
      </trkpt>
      <trkpt lat="37.43667" lon="27.72558">
        <ele>605.964</ele>
      </trkpt>
      <trkpt lat="37.43658" lon="27.72557">
        <ele>605.835</ele>
      </trkpt>
      <trkpt lat="37.43656" lon="27.72558">
        <ele>606.048</ele>
      </trkpt>
      <trkpt lat="37.43654" lon="27.72559">
        <ele>606.558</ele>
      </trkpt>
      <trkpt lat="37.43637" lon="27.72565">
        <ele>610.122</ele>
      </trkpt>
      <trkpt lat="37.43624" lon="27.72567">
        <ele>612.82</ele>
      </trkpt>
      <trkpt lat="37.43612" lon="27.72564">
        <ele>612.972</ele>
      </trkpt>
      <trkpt lat="37.43598" lon="27.72566">
        <ele>615.176</ele>
      </trkpt>
      <trkpt lat="37.43592" lon="27.72567">
        <ele>616.068</ele>
      </trkpt>
      <trkpt lat="37.43583" lon="27.72569">
        <ele>617.544</ele>
      </trkpt>
      <trkpt lat="37.43576" lon="27.7257">
        <ele>618.198</ele>
      </trkpt>
      <trkpt lat="37.43564" lon="27.72573">
        <ele>620.162</ele>
      </trkpt>
      <trkpt lat="37.43552" lon="27.72576">
        <ele>621.485</ele>
      </trkpt>
      <trkpt lat="37.43551" lon="27.72575">
        <ele>621.217</ele>
      </trkpt>
      <trkpt lat="37.43539" lon="27.72574">
        <ele>621.14</ele>
      </trkpt>
      <trkpt lat="37.43533" lon="27.72576">
        <ele>621.954</ele>
      </trkpt>
      <trkpt lat="37.43528" lon="27.72577">
        <ele>622.269</ele>
      </trkpt>
      <trkpt lat="37.43514" lon="27.72576">
        <ele>621.421</ele>
      </trkpt>
      <trkpt lat="37.43496" lon="27.72575">
        <ele>620.565</ele>
      </trkpt>
      <trkpt lat="37.43478" lon="27.7258">
        <ele>621.199</ele>
      </trkpt>
      <trkpt lat="37.43462" lon="27.7258">
        <ele>621.551</ele>
      </trkpt>
      <trkpt lat="37.43452" lon="27.72584">
        <ele>623.647</ele>
      </trkpt>
      <trkpt lat="37.43441" lon="27.72586">
        <ele>624.556</ele>
      </trkpt>
      <trkpt lat="37.43438" lon="27.72588">
        <ele>625.083</ele>
      </trkpt>
      <trkpt lat="37.43423" lon="27.72601">
        <ele>627.269</ele>
      </trkpt>
      <trkpt lat="37.43409" lon="27.72605">
        <ele>626.017</ele>
      </trkpt>
      <trkpt lat="37.43397" lon="27.72609">
        <ele>624.535</ele>
      </trkpt>
      <trkpt lat="37.43391" lon="27.72628">
        <ele>624.628</ele>
      </trkpt>
      <trkpt lat="37.43393" lon="27.72647">
        <ele>626.773</ele>
      </trkpt>
      <trkpt lat="37.43394" lon="27.72654">
        <ele>627.619</ele>
      </trkpt>
      <trkpt lat="37.43394" lon="27.72659">
        <ele>627.901</ele>
      </trkpt>
      <trkpt lat="37.43398" lon="27.72682">
        <ele>629.086</ele>
      </trkpt>
      <trkpt lat="37.43399" lon="27.72688">
        <ele>629.231</ele>
      </trkpt>
      <trkpt lat="37.434" lon="27.72688">
        <ele>629.354</ele>
      </trkpt>
      <trkpt lat="37.43404" lon="27.72708">
        <ele>628.938</ele>
      </trkpt>
      <trkpt lat="37.43411" lon="27.72726">
        <ele>628.657</ele>
      </trkpt>
      <trkpt lat="37.43419" lon="27.72746">
        <ele>628.338</ele>
      </trkpt>
      <trkpt lat="37.43427" lon="27.72766">
        <ele>628.733</ele>
      </trkpt>
      <trkpt lat="37.43429" lon="27.7277">
        <ele>628.919</ele>
      </trkpt>
      <trkpt lat="37.43433" lon="27.72774">
        <ele>629.644</ele>
      </trkpt>
      <trkpt lat="37.43434" lon="27.72782">
        <ele>629.206</ele>
      </trkpt>
      <trkpt lat="37.43438" lon="27.7279">
        <ele>630.182</ele>
      </trkpt>
      <trkpt lat="37.43441" lon="27.72805">
        <ele>630.783</ele>
      </trkpt>
      <trkpt lat="37.43442" lon="27.72815">
        <ele>629.781</ele>
      </trkpt>
      <trkpt lat="37.43443" lon="27.72833">
        <ele>628.538</ele>
      </trkpt>
      <trkpt lat="37.43443" lon="27.72832">
        <ele>628.334</ele>
      </trkpt>
      <trkpt lat="37.43447" lon="27.72842">
        <ele>629.62</ele>
      </trkpt>
      <trkpt lat="37.43456" lon="27.7286">
        <ele>633.662</ele>
      </trkpt>
      <trkpt lat="37.43464" lon="27.72881">
        <ele>636.772</ele>
      </trkpt>
      <trkpt lat="37.43469" lon="27.72902">
        <ele>637.886</ele>
      </trkpt>
      <trkpt lat="37.43476" lon="27.72927">
        <ele>640.009</ele>
      </trkpt>
      <trkpt lat="37.43483" lon="27.72947">
        <ele>641.662</ele>
      </trkpt>
      <trkpt lat="37.43488" lon="27.72963">
        <ele>642.39</ele>
      </trkpt>
      <trkpt lat="37.43489" lon="27.72977">
        <ele>641.349</ele>
      </trkpt>
      <trkpt lat="37.43479" lon="27.72997">
        <ele>637.817</ele>
      </trkpt>
      <trkpt lat="37.43477" lon="27.73016">
        <ele>637.077</ele>
      </trkpt>
      <trkpt lat="37.43481" lon="27.73024">
        <ele>637.992</ele>
      </trkpt>
      <trkpt lat="37.43483" lon="27.73033">
        <ele>638.041</ele>
      </trkpt>
      <trkpt lat="37.43484" lon="27.73032">
        <ele>638.248</ele>
      </trkpt>
      <trkpt lat="37.4349" lon="27.73046">
        <ele>638.577</ele>
      </trkpt>
      <trkpt lat="37.43498" lon="27.73058">
        <ele>638.898</ele>
      </trkpt>
      <trkpt lat="37.43501" lon="27.73069">
        <ele>636.491</ele>
      </trkpt>
      <trkpt lat="37.43502" lon="27.73068">
        <ele>636.87</ele>
      </trkpt>
      <trkpt lat="37.43509" lon="27.73075">
        <ele>636.731</ele>
      </trkpt>
      <trkpt lat="37.43508" lon="27.73075">
        <ele>636.522</ele>
      </trkpt>
      <trkpt lat="37.43501" lon="27.73086">
        <ele>631.941</ele>
      </trkpt>
      <trkpt lat="37.43502" lon="27.73094">
        <ele>630.413</ele>
      </trkpt>
      <trkpt lat="37.43498" lon="27.73102">
        <ele>628.786</ele>
      </trkpt>
      <trkpt lat="37.43499" lon="27.73106">
        <ele>628.001</ele>
      </trkpt>
      <trkpt lat="37.43498" lon="27.73107">
        <ele>627.939</ele>
      </trkpt>
      <trkpt lat="37.4349" lon="27.73118">
        <ele>627.142</ele>
      </trkpt>
      <trkpt lat="37.43491" lon="27.73122">
        <ele>626.33</ele>
      </trkpt>
      <trkpt lat="37.43492" lon="27.73124">
        <ele>625.756</ele>
      </trkpt>
      <trkpt lat="37.43489" lon="27.73141">
        <ele>622.92</ele>
      </trkpt>
      <trkpt lat="37.43487" lon="27.73147">
        <ele>621.801</ele>
      </trkpt>
      <trkpt lat="37.43481" lon="27.73167">
        <ele>617.774</ele>
      </trkpt>
      <trkpt lat="37.43477" lon="27.73181">
        <ele>614.34</ele>
      </trkpt>
      <trkpt lat="37.43473" lon="27.73203">
        <ele>609.501</ele>
      </trkpt>
      <trkpt lat="37.4347" lon="27.73215">
        <ele>607.751</ele>
      </trkpt>
      <trkpt lat="37.43465" lon="27.73231">
        <ele>607.91</ele>
      </trkpt>
      <trkpt lat="37.43465" lon="27.73232">
        <ele>608.042</ele>
      </trkpt>
      <trkpt lat="37.43464" lon="27.73235">
        <ele>608.348</ele>
      </trkpt>
      <trkpt lat="37.43465" lon="27.73247">
        <ele>609.068</ele>
      </trkpt>
      <trkpt lat="37.4347" lon="27.73251">
        <ele>608.598</ele>
      </trkpt>
      <trkpt lat="37.43487" lon="27.73261">
        <ele>607.165</ele>
      </trkpt>
      <trkpt lat="37.43501" lon="27.73268">
        <ele>605.454</ele>
      </trkpt>
      <trkpt lat="37.43509" lon="27.73274">
        <ele>603.886</ele>
      </trkpt>
      <trkpt lat="37.43512" lon="27.73277">
        <ele>603.363</ele>
      </trkpt>
      <trkpt lat="37.43517" lon="27.73279">
        <ele>602.402</ele>
      </trkpt>
      <trkpt lat="37.43519" lon="27.7328">
        <ele>602.159</ele>
      </trkpt>
      <trkpt lat="37.43532" lon="27.73294">
        <ele>601.926</ele>
      </trkpt>
      <trkpt lat="37.43545" lon="27.73308">
        <ele>601.88</ele>
      </trkpt>
      <trkpt lat="37.43566" lon="27.73322">
        <ele>600.967</ele>
      </trkpt>
      <trkpt lat="37.43584" lon="27.73332">
        <ele>598.84</ele>
      </trkpt>
      <trkpt lat="37.43599" lon="27.73343">
        <ele>596.591</ele>
      </trkpt>
      <trkpt lat="37.43613" lon="27.73345">
        <ele>594.377</ele>
      </trkpt>
      <trkpt lat="37.43623" lon="27.73338">
        <ele>594.059</ele>
      </trkpt>
      <trkpt lat="37.43637" lon="27.73342">
        <ele>592.662</ele>
      </trkpt>
      <trkpt lat="37.43648" lon="27.73352">
        <ele>590.455</ele>
      </trkpt>
      <trkpt lat="37.4365" lon="27.73355">
        <ele>589.991</ele>
      </trkpt>
      <trkpt lat="37.43664" lon="27.73365">
        <ele>588.769</ele>
      </trkpt>
      <trkpt lat="37.43676" lon="27.73378">
        <ele>588.003</ele>
      </trkpt>
      <trkpt lat="37.43691" lon="27.73397">
        <ele>585.886</ele>
      </trkpt>
      <trkpt lat="37.43695" lon="27.73401">
        <ele>585.268</ele>
      </trkpt>
      <trkpt lat="37.43698" lon="27.73406">
        <ele>584.707</ele>
      </trkpt>
      <trkpt lat="37.43714" lon="27.73425">
        <ele>582.294</ele>
      </trkpt>
      <trkpt lat="37.43731" lon="27.73441">
        <ele>580.983</ele>
      </trkpt>
      <trkpt lat="37.4374" lon="27.73449">
        <ele>580.821</ele>
      </trkpt>
      <trkpt lat="37.43741" lon="27.73451">
        <ele>580.797</ele>
      </trkpt>
      <trkpt lat="37.43752" lon="27.73464">
        <ele>581.077</ele>
      </trkpt>
      <trkpt lat="37.43762" lon="27.73472">
        <ele>580.522</ele>
      </trkpt>
      <trkpt lat="37.43767" lon="27.73476">
        <ele>579.761</ele>
      </trkpt>
      <trkpt lat="37.43769" lon="27.73476">
        <ele>579.59</ele>
      </trkpt>
      <trkpt lat="37.43781" lon="27.73485">
        <ele>578.004</ele>
      </trkpt>
      <trkpt lat="37.43784" lon="27.73488">
        <ele>577.392</ele>
      </trkpt>
      <trkpt lat="37.43784" lon="27.73489">
        <ele>577.215</ele>
      </trkpt>
      <trkpt lat="37.43789" lon="27.73491">
        <ele>576.899</ele>
      </trkpt>
      <trkpt lat="37.43794" lon="27.73494">
        <ele>576.242</ele>
      </trkpt>
      <trkpt lat="37.438" lon="27.73498">
        <ele>575.365</ele>
      </trkpt>
      <trkpt lat="37.43811" lon="27.73506">
        <ele>573.175</ele>
      </trkpt>
      <trkpt lat="37.43824" lon="27.7351">
        <ele>572.351</ele>
      </trkpt>
      <trkpt lat="37.43826" lon="27.73511">
        <ele>571.933</ele>
      </trkpt>
      <trkpt lat="37.43832" lon="27.73517">
        <ele>570.572</ele>
      </trkpt>
      <trkpt lat="37.43843" lon="27.73538">
        <ele>568.543</ele>
      </trkpt>
      <trkpt lat="37.43851" lon="27.73552">
        <ele>568.381</ele>
      </trkpt>
      <trkpt lat="37.43862" lon="27.73563">
        <ele>569.264</ele>
      </trkpt>
      <trkpt lat="37.43869" lon="27.7358">
        <ele>568.734</ele>
      </trkpt>
      <trkpt lat="37.43869" lon="27.73585">
        <ele>568.119</ele>
      </trkpt>
      <trkpt lat="37.43868" lon="27.73588">
        <ele>567.528</ele>
      </trkpt>
      <trkpt lat="37.43864" lon="27.73595">
        <ele>565.935</ele>
      </trkpt>
      <trkpt lat="37.43861" lon="27.73603">
        <ele>564.164</ele>
      </trkpt>
      <trkpt lat="37.43856" lon="27.7361">
        <ele>562.753</ele>
      </trkpt>
      <trkpt lat="37.43848" lon="27.73601">
        <ele>563.154</ele>
      </trkpt>
      <trkpt lat="37.43837" lon="27.73594">
        <ele>562.582</ele>
      </trkpt>
      <trkpt lat="37.43825" lon="27.73599">
        <ele>562.339</ele>
      </trkpt>
      <trkpt lat="37.43815" lon="27.73609">
        <ele>562.469</ele>
      </trkpt>
      <trkpt lat="37.43807" lon="27.73625">
        <ele>560.426</ele>
      </trkpt>
      <trkpt lat="37.43804" lon="27.73636">
        <ele>558.833</ele>
      </trkpt>
      <trkpt lat="37.43799" lon="27.73661">
        <ele>553.871</ele>
      </trkpt>
      <trkpt lat="37.43795" lon="27.73679">
        <ele>552.467</ele>
      </trkpt>
      <trkpt lat="37.43789" lon="27.73708">
        <ele>553.499</ele>
      </trkpt>
      <trkpt lat="37.43785" lon="27.73729">
        <ele>555.539</ele>
      </trkpt>
      <trkpt lat="37.43781" lon="27.73758">
        <ele>558.763</ele>
      </trkpt>
      <trkpt lat="37.43776" lon="27.73792">
        <ele>559.435</ele>
      </trkpt>
      <trkpt lat="37.43772" lon="27.73829">
        <ele>554.972</ele>
      </trkpt>
      <trkpt lat="37.43763" lon="27.73823">
        <ele>559.285</ele>
      </trkpt>
      <trkpt lat="37.43758" lon="27.73812">
        <ele>563.052</ele>
      </trkpt>
      <trkpt lat="37.43753" lon="27.7381">
        <ele>565.329</ele>
      </trkpt>
      <trkpt lat="37.43748" lon="27.73812">
        <ele>566.102</ele>
      </trkpt>
      <trkpt lat="37.43745" lon="27.73814">
        <ele>566.119</ele>
      </trkpt>
      <trkpt lat="37.43735" lon="27.73814">
        <ele>567.742</ele>
      </trkpt>
      <trkpt lat="37.43729" lon="27.73816">
        <ele>568.267</ele>
      </trkpt>
      <trkpt lat="37.43718" lon="27.73819">
        <ele>569.575</ele>
      </trkpt>
      <trkpt lat="37.43709" lon="27.73826">
        <ele>569.363</ele>
      </trkpt>
      <trkpt lat="37.43703" lon="27.73829">
        <ele>569.428</ele>
      </trkpt>
      <trkpt lat="37.43704" lon="27.73829">
        <ele>569.208</ele>
      </trkpt>
      <trkpt lat="37.43699" lon="27.73829">
        <ele>569.894</ele>
      </trkpt>
      <trkpt lat="37.43694" lon="27.73831">
        <ele>569.865</ele>
      </trkpt>
      <trkpt lat="37.43685" lon="27.73829">
        <ele>572.963</ele>
      </trkpt>
      <trkpt lat="37.43679" lon="27.73825">
        <ele>576.069</ele>
      </trkpt>
      <trkpt lat="37.43676" lon="27.73825">
        <ele>576.74</ele>
      </trkpt>
      <trkpt lat="37.43671" lon="27.73822">
        <ele>579.056</ele>
      </trkpt>
      <trkpt lat="37.43661" lon="27.7382">
        <ele>581.73</ele>
      </trkpt>
      <trkpt lat="37.43656" lon="27.7382">
        <ele>582.679</ele>
      </trkpt>
      <trkpt lat="37.43643" lon="27.73816">
        <ele>585.972</ele>
      </trkpt>
      <trkpt lat="37.43639" lon="27.73816">
        <ele>586.633</ele>
      </trkpt>
      <trkpt lat="37.43628" lon="27.73816">
        <ele>587.106</ele>
      </trkpt>
      <trkpt lat="37.43617" lon="27.73816">
        <ele>587.537</ele>
      </trkpt>
      <trkpt lat="37.43612" lon="27.73817">
        <ele>587.395</ele>
      </trkpt>
      <trkpt lat="37.43598" lon="27.73809">
        <ele>587.646</ele>
      </trkpt>
      <trkpt lat="37.43594" lon="27.73806">
        <ele>587.95</ele>
      </trkpt>
      <trkpt lat="37.43586" lon="27.73799">
        <ele>588.747</ele>
      </trkpt>
      <trkpt lat="37.43576" lon="27.73796">
        <ele>588.648</ele>
      </trkpt>
      <trkpt lat="37.43572" lon="27.73793">
        <ele>588.871</ele>
      </trkpt>
      <trkpt lat="37.43562" lon="27.73784">
        <ele>589.087</ele>
      </trkpt>
      <trkpt lat="37.43553" lon="27.73783">
        <ele>587.704</ele>
      </trkpt>
      <trkpt lat="37.43542" lon="27.73777">
        <ele>587.72</ele>
      </trkpt>
      <trkpt lat="37.43536" lon="27.73775">
        <ele>587.41</ele>
      </trkpt>
      <trkpt lat="37.43533" lon="27.73773">
        <ele>587.308</ele>
      </trkpt>
      <trkpt lat="37.43521" lon="27.73762">
        <ele>587.05</ele>
      </trkpt>
      <trkpt lat="37.4352" lon="27.73759">
        <ele>587.403</ele>
      </trkpt>
      <trkpt lat="37.43513" lon="27.73751">
        <ele>588.244</ele>
      </trkpt>
      <trkpt lat="37.43507" lon="27.73746">
        <ele>588.446</ele>
      </trkpt>
      <trkpt lat="37.43506" lon="27.73745">
        <ele>588.57</ele>
      </trkpt>
      <trkpt lat="37.43498" lon="27.73739">
        <ele>588.186</ele>
      </trkpt>
      <trkpt lat="37.4349" lon="27.73737">
        <ele>586.891</ele>
      </trkpt>
      <trkpt lat="37.43481" lon="27.73733">
        <ele>585.854</ele>
      </trkpt>
      <trkpt lat="37.43468" lon="27.73729">
        <ele>584.264</ele>
      </trkpt>
      <trkpt lat="37.43462" lon="27.73726">
        <ele>583.835</ele>
      </trkpt>
      <trkpt lat="37.4346" lon="27.73724">
        <ele>583.818</ele>
      </trkpt>
      <trkpt lat="37.43451" lon="27.73721">
        <ele>583.189</ele>
      </trkpt>
      <trkpt lat="37.43439" lon="27.73722">
        <ele>581.751</ele>
      </trkpt>
      <trkpt lat="37.43427" lon="27.73714">
        <ele>582.011</ele>
      </trkpt>
      <trkpt lat="37.43416" lon="27.73717">
        <ele>580.765</ele>
      </trkpt>
      <trkpt lat="37.4341" lon="27.73725">
        <ele>580.6</ele>
      </trkpt>
      <trkpt lat="37.43404" lon="27.73724">
        <ele>581.273</ele>
      </trkpt>
      <trkpt lat="37.43398" lon="27.73731">
        <ele>581.42</ele>
      </trkpt>
      <trkpt lat="37.43394" lon="27.73735">
        <ele>581.496</ele>
      </trkpt>
      <trkpt lat="37.43393" lon="27.73743">
        <ele>581.06</ele>
      </trkpt>
      <trkpt lat="37.43392" lon="27.73753">
        <ele>580.434</ele>
      </trkpt>
      <trkpt lat="37.43389" lon="27.73758">
        <ele>580.36</ele>
      </trkpt>
      <trkpt lat="37.43389" lon="27.73759">
        <ele>580.318</ele>
      </trkpt>
      <trkpt lat="37.43388" lon="27.73769">
        <ele>579.865</ele>
      </trkpt>
      <trkpt lat="37.43388" lon="27.73769">
        <ele>579.947</ele>
      </trkpt>
      <trkpt lat="37.43383" lon="27.73773">
        <ele>581.319</ele>
      </trkpt>
      <trkpt lat="37.4338" lon="27.73776">
        <ele>582.173</ele>
      </trkpt>
      <trkpt lat="37.43373" lon="27.73772">
        <ele>584.574</ele>
      </trkpt>
      <trkpt lat="37.43362" lon="27.73763">
        <ele>588.214</ele>
      </trkpt>
      <trkpt lat="37.43356" lon="27.73765">
        <ele>589.295</ele>
      </trkpt>
      <trkpt lat="37.4335" lon="27.73765">
        <ele>590.285</ele>
      </trkpt>
      <trkpt lat="37.4335" lon="27.73765">
        <ele>590.288</ele>
      </trkpt>
      <trkpt lat="37.43349" lon="27.73764">
        <ele>590.493</ele>
      </trkpt>
      <trkpt lat="37.43345" lon="27.73765">
        <ele>591.153</ele>
      </trkpt>
      <trkpt lat="37.43342" lon="27.73775">
        <ele>591.551</ele>
      </trkpt>
      <trkpt lat="37.43341" lon="27.73776">
        <ele>591.615</ele>
      </trkpt>
      <trkpt lat="37.43344" lon="27.73776">
        <ele>591.092</ele>
      </trkpt>
      <trkpt lat="37.43344" lon="27.73777">
        <ele>591.011</ele>
      </trkpt>
      <trkpt lat="37.43344" lon="27.73777">
        <ele>591.086</ele>
      </trkpt>
      <trkpt lat="37.43342" lon="27.73778">
        <ele>591.369</ele>
      </trkpt>
      <trkpt lat="37.43329" lon="27.73772">
        <ele>592.633</ele>
      </trkpt>
      <trkpt lat="37.43318" lon="27.7377">
        <ele>591.972</ele>
      </trkpt>
      <trkpt lat="37.43314" lon="27.73774">
        <ele>591.328</ele>
      </trkpt>
      <trkpt lat="37.43314" lon="27.73774">
        <ele>591.214</ele>
      </trkpt>
      <trkpt lat="37.43303" lon="27.73768">
        <ele>590.958</ele>
      </trkpt>
      <trkpt lat="37.43293" lon="27.73765">
        <ele>589.975</ele>
      </trkpt>
      <trkpt lat="37.43292" lon="27.73766">
        <ele>589.734</ele>
      </trkpt>
      <trkpt lat="37.43285" lon="27.73774">
        <ele>587.138</ele>
      </trkpt>
      <trkpt lat="37.43285" lon="27.73774">
        <ele>586.902</ele>
      </trkpt>
      <trkpt lat="37.4328" lon="27.7377">
        <ele>587.053</ele>
      </trkpt>
      <trkpt lat="37.43272" lon="27.73763">
        <ele>587.209</ele>
      </trkpt>
      <trkpt lat="37.43264" lon="27.73763">
        <ele>585.875</ele>
      </trkpt>
      <trkpt lat="37.43253" lon="27.73763">
        <ele>584.236</ele>
      </trkpt>
      <trkpt lat="37.4325" lon="27.73764">
        <ele>583.551</ele>
      </trkpt>
      <trkpt lat="37.43241" lon="27.73769">
        <ele>581.632</ele>
      </trkpt>
      <trkpt lat="37.43234" lon="27.73766">
        <ele>581.289</ele>
      </trkpt>
      <trkpt lat="37.43224" lon="27.73764">
        <ele>580.685</ele>
      </trkpt>
      <trkpt lat="37.43221" lon="27.73763">
        <ele>580.738</ele>
      </trkpt>
      <trkpt lat="37.43214" lon="27.73762">
        <ele>581.817</ele>
      </trkpt>
      <trkpt lat="37.43206" lon="27.73772">
        <ele>580.138</ele>
      </trkpt>
      <trkpt lat="37.43202" lon="27.73781">
        <ele>578.563</ele>
      </trkpt>
      <trkpt lat="37.43191" lon="27.73792">
        <ele>577.598</ele>
      </trkpt>
      <trkpt lat="37.43187" lon="27.73795">
        <ele>577.721</ele>
      </trkpt>
      <trkpt lat="37.43184" lon="27.73809">
        <ele>575.292</ele>
      </trkpt>
      <trkpt lat="37.43187" lon="27.73822">
        <ele>572.62</ele>
      </trkpt>
      <trkpt lat="37.43186" lon="27.7383">
        <ele>571.373</ele>
      </trkpt>
      <trkpt lat="37.43185" lon="27.73835">
        <ele>570.951</ele>
      </trkpt>
      <trkpt lat="37.43176" lon="27.73846">
        <ele>571.1</ele>
      </trkpt>
      <trkpt lat="37.43173" lon="27.73864">
        <ele>568.811</ele>
      </trkpt>
      <trkpt lat="37.43179" lon="27.7387">
        <ele>567.135</ele>
      </trkpt>
      <trkpt lat="37.43176" lon="27.73881">
        <ele>565.538</ele>
      </trkpt>
      <trkpt lat="37.43172" lon="27.73893">
        <ele>562.874</ele>
      </trkpt>
      <trkpt lat="37.4317" lon="27.73895">
        <ele>562.473</ele>
      </trkpt>
      <trkpt lat="37.43171" lon="27.73894">
        <ele>562.628</ele>
      </trkpt>
      <trkpt lat="37.43169" lon="27.73896">
        <ele>562.332</ele>
      </trkpt>
      <trkpt lat="37.43158" lon="27.73897">
        <ele>562.668</ele>
      </trkpt>
      <trkpt lat="37.43141" lon="27.73897">
        <ele>564.08</ele>
      </trkpt>
      <trkpt lat="37.43121" lon="27.73895">
        <ele>564.551</ele>
      </trkpt>
      <trkpt lat="37.43112" lon="27.73894">
        <ele>565.167</ele>
      </trkpt>
      <trkpt lat="37.43096" lon="27.73897">
        <ele>563.9</ele>
      </trkpt>
      <trkpt lat="37.43091" lon="27.73895">
        <ele>564.487</ele>
      </trkpt>
      <trkpt lat="37.43081" lon="27.73899">
        <ele>563.323</ele>
      </trkpt>
      <trkpt lat="37.43067" lon="27.73899">
        <ele>564.652</ele>
      </trkpt>
      <trkpt lat="37.43066" lon="27.739">
        <ele>564.645</ele>
      </trkpt>
      <trkpt lat="37.43064" lon="27.73899">
        <ele>565.008</ele>
      </trkpt>
      <trkpt lat="37.43049" lon="27.73895">
        <ele>567.811</ele>
      </trkpt>
      <trkpt lat="37.43043" lon="27.73892">
        <ele>569.492</ele>
      </trkpt>
      <trkpt lat="37.43041" lon="27.73891">
        <ele>569.855</ele>
      </trkpt>
      <trkpt lat="37.43028" lon="27.73888">
        <ele>571.494</ele>
      </trkpt>
      <trkpt lat="37.43027" lon="27.73888">
        <ele>571.326</ele>
      </trkpt>
      <trkpt lat="37.43017" lon="27.7389">
        <ele>570.217</ele>
      </trkpt>
      <trkpt lat="37.43015" lon="27.73894">
        <ele>568.563</ele>
      </trkpt>
      <trkpt lat="37.43014" lon="27.73895">
        <ele>568.207</ele>
      </trkpt>
      <trkpt lat="37.43" lon="27.73891">
        <ele>569.141</ele>
      </trkpt>
      <trkpt lat="37.42984" lon="27.73883">
        <ele>570.979</ele>
      </trkpt>
      <trkpt lat="37.42971" lon="27.73883">
        <ele>569.962</ele>
      </trkpt>
      <trkpt lat="37.42966" lon="27.73885">
        <ele>568.834</ele>
      </trkpt>
      <trkpt lat="37.42964" lon="27.73885">
        <ele>568.324</ele>
      </trkpt>
      <trkpt lat="37.42962" lon="27.73886">
        <ele>567.721</ele>
      </trkpt>
      <trkpt lat="37.42948" lon="27.73892">
        <ele>563.877</ele>
      </trkpt>
      <trkpt lat="37.42931" lon="27.73886">
        <ele>562.98</ele>
      </trkpt>
      <trkpt lat="37.42932" lon="27.73887">
        <ele>562.871</ele>
      </trkpt>
      <trkpt lat="37.42924" lon="27.7388">
        <ele>563.051</ele>
      </trkpt>
      <trkpt lat="37.4292" lon="27.73877">
        <ele>562.793</ele>
      </trkpt>
      <trkpt lat="37.42916" lon="27.73876">
        <ele>562.256</ele>
      </trkpt>
      <trkpt lat="37.42909" lon="27.73872">
        <ele>561.531</ele>
      </trkpt>
      <trkpt lat="37.42897" lon="27.73871">
        <ele>559.938</ele>
      </trkpt>
      <trkpt lat="37.4289" lon="27.73868">
        <ele>559.269</ele>
      </trkpt>
      <trkpt lat="37.42881" lon="27.73868">
        <ele>558.381</ele>
      </trkpt>
      <trkpt lat="37.42872" lon="27.73869">
        <ele>557.433</ele>
      </trkpt>
      <trkpt lat="37.42859" lon="27.73867">
        <ele>556.695</ele>
      </trkpt>
      <trkpt lat="37.42855" lon="27.73866">
        <ele>556.996</ele>
      </trkpt>
      <trkpt lat="37.42841" lon="27.73867">
        <ele>557.761</ele>
      </trkpt>
      <trkpt lat="37.42834" lon="27.7386">
        <ele>559.077</ele>
      </trkpt>
      <trkpt lat="37.42832" lon="27.73868">
        <ele>557.987</ele>
      </trkpt>
      <trkpt lat="37.42831" lon="27.73868">
        <ele>557.944</ele>
      </trkpt>
      <trkpt lat="37.42825" lon="27.73873">
        <ele>556.976</ele>
      </trkpt>
      <trkpt lat="37.42818" lon="27.73874">
        <ele>556.591</ele>
      </trkpt>
      <trkpt lat="37.42809" lon="27.73873">
        <ele>556.489</ele>
      </trkpt>
      <trkpt lat="37.428" lon="27.73868">
        <ele>556.52</ele>
      </trkpt>
      <trkpt lat="37.42787" lon="27.73863">
        <ele>555.73</ele>
      </trkpt>
      <trkpt lat="37.42778" lon="27.73854">
        <ele>555.565</ele>
      </trkpt>
      <trkpt lat="37.42777" lon="27.73853">
        <ele>555.5</ele>
      </trkpt>
      <trkpt lat="37.42777" lon="27.73854">
        <ele>555.441</ele>
      </trkpt>
      <trkpt lat="37.4277" lon="27.73849">
        <ele>554.412</ele>
      </trkpt>
      <trkpt lat="37.42763" lon="27.73846">
        <ele>553.196</ele>
      </trkpt>
      <trkpt lat="37.4276" lon="27.73845">
        <ele>552.576</ele>
      </trkpt>
      <trkpt lat="37.42751" lon="27.73836">
        <ele>551.175</ele>
      </trkpt>
      <trkpt lat="37.42751" lon="27.73836">
        <ele>551.042</ele>
      </trkpt>
      <trkpt lat="37.42746" lon="27.73833">
        <ele>550.213</ele>
      </trkpt>
      <trkpt lat="37.42746" lon="27.73832">
        <ele>550.226</ele>
      </trkpt>
      <trkpt lat="37.4274" lon="27.73826">
        <ele>549.192</ele>
      </trkpt>
      <trkpt lat="37.42734" lon="27.73819">
        <ele>548.72</ele>
      </trkpt>
      <trkpt lat="37.42729" lon="27.73818">
        <ele>547.808</ele>
      </trkpt>
      <trkpt lat="37.42727" lon="27.73817">
        <ele>547.621</ele>
      </trkpt>
      <trkpt lat="37.42719" lon="27.73812">
        <ele>546.802</ele>
      </trkpt>
      <trkpt lat="37.42715" lon="27.73805">
        <ele>547.059</ele>
      </trkpt>
      <trkpt lat="37.42708" lon="27.73798">
        <ele>547.267</ele>
      </trkpt>
      <trkpt lat="37.42703" lon="27.73797">
        <ele>546.636</ele>
      </trkpt>
      <trkpt lat="37.42694" lon="27.73801">
        <ele>544.639</ele>
      </trkpt>
      <trkpt lat="37.42686" lon="27.73796">
        <ele>543.398</ele>
      </trkpt>
      <trkpt lat="37.42677" lon="27.73799">
        <ele>540.77</ele>
      </trkpt>
      <trkpt lat="37.42682" lon="27.73809">
        <ele>540.574</ele>
      </trkpt>
      <trkpt lat="37.42681" lon="27.7382">
        <ele>538.712</ele>
      </trkpt>
      <trkpt lat="37.42678" lon="27.73831">
        <ele>536.611</ele>
      </trkpt>
      <trkpt lat="37.42669" lon="27.73831">
        <ele>534.709</ele>
      </trkpt>
      <trkpt lat="37.42667" lon="27.73842">
        <ele>532.549</ele>
      </trkpt>
      <trkpt lat="37.42671" lon="27.73852">
        <ele>531.717</ele>
      </trkpt>
      <trkpt lat="37.42676" lon="27.73862">
        <ele>530.823</ele>
      </trkpt>
      <trkpt lat="37.42674" lon="27.73873">
        <ele>528.679</ele>
      </trkpt>
      <trkpt lat="37.42674" lon="27.73884">
        <ele>527.005</ele>
      </trkpt>
      <trkpt lat="37.42673" lon="27.73896">
        <ele>524.891</ele>
      </trkpt>
      <trkpt lat="37.4267" lon="27.73907">
        <ele>522.417</ele>
      </trkpt>
      <trkpt lat="37.42662" lon="27.7391">
        <ele>520.789</ele>
      </trkpt>
      <trkpt lat="37.42653" lon="27.7391">
        <ele>520.116</ele>
      </trkpt>
      <trkpt lat="37.42653" lon="27.73922">
        <ele>518.002</ele>
      </trkpt>
      <trkpt lat="37.42652" lon="27.73934">
        <ele>515.907</ele>
      </trkpt>
      <trkpt lat="37.42649" lon="27.73945">
        <ele>513.722</ele>
      </trkpt>
      <trkpt lat="37.4264" lon="27.73944">
        <ele>513.247</ele>
      </trkpt>
      <trkpt lat="37.42633" lon="27.73951">
        <ele>512.287</ele>
      </trkpt>
      <trkpt lat="37.42624" lon="27.73955">
        <ele>511.364</ele>
      </trkpt>
      <trkpt lat="37.42615" lon="27.73954">
        <ele>510.65</ele>
      </trkpt>
      <trkpt lat="37.42606" lon="27.73959">
        <ele>509.169</ele>
      </trkpt>
      <trkpt lat="37.42599" lon="27.73965">
        <ele>507.171</ele>
      </trkpt>
      <trkpt lat="37.4259" lon="27.7397">
        <ele>504.844</ele>
      </trkpt>
      <trkpt lat="37.42581" lon="27.73971">
        <ele>502.911</ele>
      </trkpt>
      <trkpt lat="37.42572" lon="27.73973">
        <ele>501.779</ele>
      </trkpt>
      <trkpt lat="37.42562" lon="27.73973">
        <ele>500.781</ele>
      </trkpt>
      <trkpt lat="37.42553" lon="27.73976">
        <ele>499.818</ele>
      </trkpt>
      <trkpt lat="37.42544" lon="27.7398">
        <ele>499.001</ele>
      </trkpt>
      <trkpt lat="37.42537" lon="27.73989">
        <ele>499.206</ele>
      </trkpt>
      <trkpt lat="37.42529" lon="27.73992">
        <ele>498.945</ele>
      </trkpt>
      <trkpt lat="37.4252" lon="27.73987">
        <ele>498.385</ele>
      </trkpt>
      <trkpt lat="37.42511" lon="27.73985">
        <ele>498.484</ele>
      </trkpt>
      <trkpt lat="37.42502" lon="27.73984">
        <ele>498.559</ele>
      </trkpt>
      <trkpt lat="37.42493" lon="27.7398">
        <ele>498.171</ele>
      </trkpt>
      <trkpt lat="37.42484" lon="27.73978">
        <ele>498.7</ele>
      </trkpt>
      <trkpt lat="37.42475" lon="27.73973">
        <ele>498.068</ele>
      </trkpt>
      <trkpt lat="37.42467" lon="27.73969">
        <ele>497.32</ele>
      </trkpt>
      <trkpt lat="37.42456" lon="27.7397">
        <ele>497.673</ele>
      </trkpt>
      <trkpt lat="37.42447" lon="27.73965">
        <ele>496.454</ele>
      </trkpt>
      <trkpt lat="37.42441" lon="27.73956">
        <ele>493.216</ele>
      </trkpt>
      <trkpt lat="37.42433" lon="27.7395">
        <ele>491.252</ele>
      </trkpt>
      <trkpt lat="37.42423" lon="27.7395">
        <ele>491.334</ele>
      </trkpt>
      <trkpt lat="37.42414" lon="27.73953">
        <ele>492.445</ele>
      </trkpt>
      <trkpt lat="37.42405" lon="27.73958">
        <ele>493.396</ele>
      </trkpt>
      <trkpt lat="37.42396" lon="27.73957">
        <ele>492.886</ele>
      </trkpt>
      <trkpt lat="37.42386" lon="27.73958">
        <ele>493.206</ele>
      </trkpt>
      <trkpt lat="37.42377" lon="27.73963">
        <ele>495.24</ele>
      </trkpt>
      <trkpt lat="37.42368" lon="27.73962">
        <ele>495.859</ele>
      </trkpt>
      <trkpt lat="37.42358" lon="27.73961">
        <ele>495.959</ele>
      </trkpt>
      <trkpt lat="37.4235" lon="27.73966">
        <ele>497.797</ele>
      </trkpt>
      <trkpt lat="37.4234" lon="27.73966">
        <ele>497.616</ele>
      </trkpt>
      <trkpt lat="37.42331" lon="27.73964">
        <ele>496.942</ele>
      </trkpt>
      <trkpt lat="37.42322" lon="27.73963">
        <ele>496.264</ele>
      </trkpt>
      <trkpt lat="37.42313" lon="27.7396">
        <ele>495.08</ele>
      </trkpt>
      <trkpt lat="37.42303" lon="27.73956">
        <ele>493.544</ele>
      </trkpt>
      <trkpt lat="37.42294" lon="27.73952">
        <ele>492.329</ele>
      </trkpt>
      <trkpt lat="37.42285" lon="27.73948">
        <ele>491.146</ele>
      </trkpt>
      <trkpt lat="37.42276" lon="27.73942">
        <ele>489.467</ele>
      </trkpt>
      <trkpt lat="37.42267" lon="27.73939">
        <ele>489.261</ele>
      </trkpt>
      <trkpt lat="37.42255" lon="27.7394">
        <ele>490.429</ele>
      </trkpt>
      <trkpt lat="37.42246" lon="27.73938">
        <ele>490.574</ele>
      </trkpt>
      <trkpt lat="37.42236" lon="27.73935">
        <ele>490.037</ele>
      </trkpt>
      <trkpt lat="37.42227" lon="27.73932">
        <ele>489.782</ele>
      </trkpt>
      <trkpt lat="37.42218" lon="27.73929">
        <ele>489.361</ele>
      </trkpt>
      <trkpt lat="37.42209" lon="27.73925">
        <ele>488.815</ele>
      </trkpt>
      <trkpt lat="37.422" lon="27.73923">
        <ele>488.821</ele>
      </trkpt>
      <trkpt lat="37.4219" lon="27.73922">
        <ele>488.455</ele>
      </trkpt>
      <trkpt lat="37.42181" lon="27.73925">
        <ele>488.125</ele>
      </trkpt>
      <trkpt lat="37.42173" lon="27.7393">
        <ele>488.448</ele>
      </trkpt>
      <trkpt lat="37.42166" lon="27.73939">
        <ele>489.606</ele>
      </trkpt>
      <trkpt lat="37.4216" lon="27.73948">
        <ele>490.191</ele>
      </trkpt>
      <trkpt lat="37.42154" lon="27.73958">
        <ele>490.354</ele>
      </trkpt>
      <trkpt lat="37.42149" lon="27.73968">
        <ele>490.854</ele>
      </trkpt>
      <trkpt lat="37.42142" lon="27.73977">
        <ele>490.257</ele>
      </trkpt>
      <trkpt lat="37.42133" lon="27.73983">
        <ele>488.815</ele>
      </trkpt>
      <trkpt lat="37.42124" lon="27.73986">
        <ele>487.374</ele>
      </trkpt>
      <trkpt lat="37.42115" lon="27.73988">
        <ele>485.942</ele>
      </trkpt>
      <trkpt lat="37.42104" lon="27.73988">
        <ele>484</ele>
      </trkpt>
      <trkpt lat="37.42095" lon="27.73986">
        <ele>482.249</ele>
      </trkpt>
      <trkpt lat="37.42085" lon="27.73985">
        <ele>480.324</ele>
      </trkpt>
      <trkpt lat="37.42075" lon="27.73986">
        <ele>478.907</ele>
      </trkpt>
      <trkpt lat="37.42065" lon="27.73989">
        <ele>477.5</ele>
      </trkpt>
      <trkpt lat="37.42055" lon="27.73993">
        <ele>476.311</ele>
      </trkpt>
      <trkpt lat="37.42046" lon="27.73997">
        <ele>477.045</ele>
      </trkpt>
      <trkpt lat="37.42039" lon="27.74003">
        <ele>477.687</ele>
      </trkpt>
      <trkpt lat="37.4203" lon="27.74007">
        <ele>478.476</ele>
      </trkpt>
      <trkpt lat="37.42021" lon="27.74012">
        <ele>478.731</ele>
      </trkpt>
      <trkpt lat="37.42012" lon="27.74016">
        <ele>478.681</ele>
      </trkpt>
      <trkpt lat="37.42003" lon="27.74019">
        <ele>478.572</ele>
      </trkpt>
      <trkpt lat="37.41993" lon="27.74023">
        <ele>477.51</ele>
      </trkpt>
      <trkpt lat="37.41984" lon="27.74026">
        <ele>476.32</ele>
      </trkpt>
      <trkpt lat="37.41975" lon="27.7403">
        <ele>475.212</ele>
      </trkpt>
      <trkpt lat="37.41966" lon="27.74034">
        <ele>474.019</ele>
      </trkpt>
      <trkpt lat="37.41957" lon="27.74036">
        <ele>472.886</ele>
      </trkpt>
      <trkpt lat="37.41948" lon="27.74039">
        <ele>471.804</ele>
      </trkpt>
      <trkpt lat="37.41939" lon="27.74042">
        <ele>471.002</ele>
      </trkpt>
      <trkpt lat="37.4193" lon="27.74045">
        <ele>470.231</ele>
      </trkpt>
      <trkpt lat="37.4192" lon="27.74048">
        <ele>469.327</ele>
      </trkpt>
      <trkpt lat="37.41911" lon="27.7405">
        <ele>468.599</ele>
      </trkpt>
      <trkpt lat="37.41902" lon="27.74052">
        <ele>467.951</ele>
      </trkpt>
      <trkpt lat="37.41893" lon="27.74054">
        <ele>467.296</ele>
      </trkpt>
      <trkpt lat="37.41883" lon="27.74057">
        <ele>466.356</ele>
      </trkpt>
      <trkpt lat="37.41874" lon="27.74059">
        <ele>465.203</ele>
      </trkpt>
      <trkpt lat="37.41864" lon="27.74063">
        <ele>464.051</ele>
      </trkpt>
      <trkpt lat="37.41855" lon="27.74066">
        <ele>462.978</ele>
      </trkpt>
      <trkpt lat="37.41846" lon="27.7407">
        <ele>461.805</ele>
      </trkpt>
      <trkpt lat="37.41837" lon="27.74074">
        <ele>460.739</ele>
      </trkpt>
      <trkpt lat="37.41828" lon="27.74078">
        <ele>460.004</ele>
      </trkpt>
      <trkpt lat="37.4182" lon="27.74082">
        <ele>459.55</ele>
      </trkpt>
      <trkpt lat="37.4181" lon="27.74085">
        <ele>459.167</ele>
      </trkpt>
      <trkpt lat="37.41801" lon="27.74088">
        <ele>458.508</ele>
      </trkpt>
      <trkpt lat="37.41792" lon="27.74091">
        <ele>457.536</ele>
      </trkpt>
      <trkpt lat="37.41783" lon="27.74094">
        <ele>456.51</ele>
      </trkpt>
      <trkpt lat="37.41773" lon="27.74096">
        <ele>455.409</ele>
      </trkpt>
      <trkpt lat="37.41765" lon="27.741">
        <ele>454.473</ele>
      </trkpt>
      <trkpt lat="37.41759" lon="27.74109">
        <ele>454.446</ele>
      </trkpt>
      <trkpt lat="37.41753" lon="27.74119">
        <ele>454.763</ele>
      </trkpt>
      <trkpt lat="37.41744" lon="27.74124">
        <ele>454.809</ele>
      </trkpt>
      <trkpt lat="37.41735" lon="27.7413">
        <ele>455.161</ele>
      </trkpt>
      <trkpt lat="37.41727" lon="27.74135">
        <ele>455.562</ele>
      </trkpt>
      <trkpt lat="37.41719" lon="27.74141">
        <ele>456.067</ele>
      </trkpt>
      <trkpt lat="37.4171" lon="27.74147">
        <ele>456.163</ele>
      </trkpt>
      <trkpt lat="37.41704" lon="27.74155">
        <ele>456.192</ele>
      </trkpt>
      <trkpt lat="37.41698" lon="27.74165">
        <ele>456.102</ele>
      </trkpt>
      <trkpt lat="37.41689" lon="27.7417">
        <ele>456</ele>
      </trkpt>
      <trkpt lat="37.4168" lon="27.74174">
        <ele>456</ele>
      </trkpt>
      <trkpt lat="37.41671" lon="27.74177">
        <ele>456</ele>
      </trkpt>
      <trkpt lat="37.41664" lon="27.74183">
        <ele>455.447</ele>
      </trkpt>
      <trkpt lat="37.41655" lon="27.74188">
        <ele>453.954</ele>
      </trkpt>
      <trkpt lat="37.41647" lon="27.74194">
        <ele>452.514</ele>
      </trkpt>
      <trkpt lat="37.4164" lon="27.74201">
        <ele>450.941</ele>
      </trkpt>
      <trkpt lat="37.41632" lon="27.74207">
        <ele>449.244</ele>
      </trkpt>
      <trkpt lat="37.41623" lon="27.74208">
        <ele>447.569</ele>
      </trkpt>
      <trkpt lat="37.41613" lon="27.74209">
        <ele>445.862</ele>
      </trkpt>
      <trkpt lat="37.41604" lon="27.74207">
        <ele>444.517</ele>
      </trkpt>
      <trkpt lat="37.41595" lon="27.74206">
        <ele>443.184</ele>
      </trkpt>
      <trkpt lat="37.41585" lon="27.74205">
        <ele>441.921</ele>
      </trkpt>
      <trkpt lat="37.41578" lon="27.74197">
        <ele>440.684</ele>
      </trkpt>
      <trkpt lat="37.4157" lon="27.7419">
        <ele>439.092</ele>
      </trkpt>
      <trkpt lat="37.41565" lon="27.74181">
        <ele>437.83</ele>
      </trkpt>
      <trkpt lat="37.41558" lon="27.74173">
        <ele>436.535</ele>
      </trkpt>
      <trkpt lat="37.41561" lon="27.74162">
        <ele>437.481</ele>
      </trkpt>
      <trkpt lat="37.4156" lon="27.7415">
        <ele>438.561</ele>
      </trkpt>
      <trkpt lat="37.41551" lon="27.74151">
        <ele>437.128</ele>
      </trkpt>
      <trkpt lat="37.41541" lon="27.74152">
        <ele>435.802</ele>
      </trkpt>
      <trkpt lat="37.41533" lon="27.74155">
        <ele>434.234</ele>
      </trkpt>
      <trkpt lat="37.41523" lon="27.74155">
        <ele>433.058</ele>
      </trkpt>
      <trkpt lat="37.41514" lon="27.74158">
        <ele>431.472</ele>
      </trkpt>
      <trkpt lat="37.41509" lon="27.74168">
        <ele>429.193</ele>
      </trkpt>
      <trkpt lat="37.41511" lon="27.7418">
        <ele>427.623</ele>
      </trkpt>
      <trkpt lat="37.41511" lon="27.74191">
        <ele>425.846</ele>
      </trkpt>
      <trkpt lat="37.41505" lon="27.74199">
        <ele>423.615</ele>
      </trkpt>
      <trkpt lat="37.41495" lon="27.74197">
        <ele>421.618</ele>
      </trkpt>
      <trkpt lat="37.41488" lon="27.7419">
        <ele>420.806</ele>
      </trkpt>
      <trkpt lat="37.41479" lon="27.74185">
        <ele>419.21</ele>
      </trkpt>
      <trkpt lat="37.4147" lon="27.74183">
        <ele>417.532</ele>
      </trkpt>
      <trkpt lat="37.41462" lon="27.74178">
        <ele>416.873</ele>
      </trkpt>
      <trkpt lat="37.41452" lon="27.74175">
        <ele>415.645</ele>
      </trkpt>
      <trkpt lat="37.41443" lon="27.74171">
        <ele>414.553</ele>
      </trkpt>
      <trkpt lat="37.41435" lon="27.74165">
        <ele>413.894</ele>
      </trkpt>
      <trkpt lat="37.41427" lon="27.74161">
        <ele>412.994</ele>
      </trkpt>
      <trkpt lat="37.41418" lon="27.74164">
        <ele>410.046</ele>
      </trkpt>
      <trkpt lat="37.41424" lon="27.74172">
        <ele>409.484</ele>
      </trkpt>
      <trkpt lat="37.41424" lon="27.74184">
        <ele>406.547</ele>
      </trkpt>
      <trkpt lat="37.41414" lon="27.74187">
        <ele>403.421</ele>
      </trkpt>
      <trkpt lat="37.41405" lon="27.74185">
        <ele>401.337</ele>
      </trkpt>
      <trkpt lat="37.41396" lon="27.74187">
        <ele>398.593</ele>
      </trkpt>
      <trkpt lat="37.41386" lon="27.74186">
        <ele>396.428</ele>
      </trkpt>
      <trkpt lat="37.41377" lon="27.74185">
        <ele>394.866</ele>
      </trkpt>
      <trkpt lat="37.41368" lon="27.74185">
        <ele>393.191</ele>
      </trkpt>
      <trkpt lat="37.41359" lon="27.74181">
        <ele>391.527</ele>
      </trkpt>
      <trkpt lat="37.4135" lon="27.7418">
        <ele>389.32</ele>
      </trkpt>
      <trkpt lat="37.41341" lon="27.74186">
        <ele>387.16</ele>
      </trkpt>
      <trkpt lat="37.41337" lon="27.74196">
        <ele>386.065</ele>
      </trkpt>
      <trkpt lat="37.41332" lon="27.74206">
        <ele>385.897</ele>
      </trkpt>
      <trkpt lat="37.41323" lon="27.74201">
        <ele>383.732</ele>
      </trkpt>
      <trkpt lat="37.41314" lon="27.74197">
        <ele>381.786</ele>
      </trkpt>
      <trkpt lat="37.41305" lon="27.74194">
        <ele>379.972</ele>
      </trkpt>
      <trkpt lat="37.41295" lon="27.74193">
        <ele>379.233</ele>
      </trkpt>
      <trkpt lat="37.41286" lon="27.74196">
        <ele>378.562</ele>
      </trkpt>
      <trkpt lat="37.41282" lon="27.74196">
        <ele>378.234</ele>
      </trkpt>
      <trkpt lat="37.41273" lon="27.74199">
        <ele>377.657</ele>
      </trkpt>
      <trkpt lat="37.41263" lon="27.742">
        <ele>377.297</ele>
      </trkpt>
      <trkpt lat="37.41254" lon="27.742">
        <ele>376.94</ele>
      </trkpt>
      <trkpt lat="37.41246" lon="27.74207">
        <ele>376.742</ele>
      </trkpt>
      <trkpt lat="37.4124" lon="27.74218">
        <ele>376.822</ele>
      </trkpt>
      <trkpt lat="37.41235" lon="27.74228">
        <ele>376.778</ele>
      </trkpt>
      <trkpt lat="37.4124" lon="27.74218">
        <ele>376.815</ele>
      </trkpt>
      <trkpt lat="37.41235" lon="27.74228">
        <ele>376.748</ele>
      </trkpt>
      <trkpt lat="37.41236" lon="27.7424">
        <ele>376.077</ele>
      </trkpt>
      <trkpt lat="37.41244" lon="27.74245">
        <ele>375.452</ele>
      </trkpt>
      <trkpt lat="37.41249" lon="27.74256">
        <ele>375.021</ele>
      </trkpt>
      <trkpt lat="37.4125" lon="27.74267">
        <ele>374.994</ele>
      </trkpt>
      <trkpt lat="37.4125" lon="27.7428">
        <ele>375</ele>
      </trkpt>
      <trkpt lat="37.41249" lon="27.74291">
        <ele>374.921</ele>
      </trkpt>
      <trkpt lat="37.41248" lon="27.74304">
        <ele>374.856</ele>
      </trkpt>
      <trkpt lat="37.41246" lon="27.74316">
        <ele>375.488</ele>
      </trkpt>
      <trkpt lat="37.41248" lon="27.74327">
        <ele>376.472</ele>
      </trkpt>
      <trkpt lat="37.41249" lon="27.7434">
        <ele>377.709</ele>
      </trkpt>
      <trkpt lat="37.41257" lon="27.74349">
        <ele>379.613</ele>
      </trkpt>
      <trkpt lat="37.41261" lon="27.74359">
        <ele>380.999</ele>
      </trkpt>
      <trkpt lat="37.41261" lon="27.74371">
        <ele>381.634</ele>
      </trkpt>
      <trkpt lat="37.41263" lon="27.74382">
        <ele>382.213</ele>
      </trkpt>
      <trkpt lat="37.4127" lon="27.7439">
        <ele>382.778</ele>
      </trkpt>
      <trkpt lat="37.41276" lon="27.74398">
        <ele>383.31</ele>
      </trkpt>
      <trkpt lat="37.41282" lon="27.74407">
        <ele>384.341</ele>
      </trkpt>
      <trkpt lat="37.41282" lon="27.74407">
        <ele>384.341</ele>
      </trkpt>
      <trkpt lat="37.41282" lon="27.74407">
        <ele>384.341</ele>
      </trkpt>
      <trkpt lat="37.41283" lon="27.74409">
        <ele>384.448</ele>
      </trkpt>
      <trkpt lat="37.41292" lon="27.7444">
        <ele>387.287</ele>
      </trkpt>
      <trkpt lat="37.41292" lon="27.74455">
        <ele>387.508</ele>
      </trkpt>
      <trkpt lat="37.41282" lon="27.74473">
        <ele>387.11</ele>
      </trkpt>
      <trkpt lat="37.41285" lon="27.74478">
        <ele>386.732</ele>
      </trkpt>
      <trkpt lat="37.41297" lon="27.74499">
        <ele>386.188</ele>
      </trkpt>
      <trkpt lat="37.4129" lon="27.7451">
        <ele>383.959</ele>
      </trkpt>
      <trkpt lat="37.41295" lon="27.74519">
        <ele>383.136</ele>
      </trkpt>
      <trkpt lat="37.41297" lon="27.74525">
        <ele>382.479</ele>
      </trkpt>
      <trkpt lat="37.41303" lon="27.7453">
        <ele>382.469</ele>
      </trkpt>
      <trkpt lat="37.41314" lon="27.74536">
        <ele>382.396</ele>
      </trkpt>
      <trkpt lat="37.41321" lon="27.74543">
        <ele>381.65</ele>
      </trkpt>
      <trkpt lat="37.41323" lon="27.74548">
        <ele>380.861</ele>
      </trkpt>
      <trkpt lat="37.41325" lon="27.74558">
        <ele>378.973</ele>
      </trkpt>
      <trkpt lat="37.41331" lon="27.7457">
        <ele>377.74</ele>
      </trkpt>
      <trkpt lat="37.41334" lon="27.74577">
        <ele>377.07</ele>
      </trkpt>
      <trkpt lat="37.41339" lon="27.74579">
        <ele>377.548</ele>
      </trkpt>
      <trkpt lat="37.41348" lon="27.74583">
        <ele>378.68</ele>
      </trkpt>
      <trkpt lat="37.41356" lon="27.74594">
        <ele>380.687</ele>
      </trkpt>
      <trkpt lat="37.41353" lon="27.74609">
        <ele>381.16</ele>
      </trkpt>
      <trkpt lat="37.41347" lon="27.74619">
        <ele>380.652</ele>
      </trkpt>
      <trkpt lat="37.41343" lon="27.74625">
        <ele>380.649</ele>
      </trkpt>
      <trkpt lat="37.41333" lon="27.74633">
        <ele>380.115</ele>
      </trkpt>
      <trkpt lat="37.41322" lon="27.74635">
        <ele>379.712</ele>
      </trkpt>
      <trkpt lat="37.41323" lon="27.7464">
        <ele>380.32</ele>
      </trkpt>
      <trkpt lat="37.41329" lon="27.74655">
        <ele>382.217</ele>
      </trkpt>
      <trkpt lat="37.41331" lon="27.74662">
        <ele>383.205</ele>
      </trkpt>
      <trkpt lat="37.41327" lon="27.74672">
        <ele>383.265</ele>
      </trkpt>
      <trkpt lat="37.41325" lon="27.74676">
        <ele>382.984</ele>
      </trkpt>
      <trkpt lat="37.41327" lon="27.74675">
        <ele>383.251</ele>
      </trkpt>
      <trkpt lat="37.4133" lon="27.74681">
        <ele>384.047</ele>
      </trkpt>
      <trkpt lat="37.41335" lon="27.74688">
        <ele>385.099</ele>
      </trkpt>
      <trkpt lat="37.41344" lon="27.74694">
        <ele>386.925</ele>
      </trkpt>
      <trkpt lat="37.41344" lon="27.74703">
        <ele>386.955</ele>
      </trkpt>
      <trkpt lat="37.41343" lon="27.74702">
        <ele>386.806</ele>
      </trkpt>
      <trkpt lat="37.41349" lon="27.74703">
        <ele>387.86</ele>
      </trkpt>
      <trkpt lat="37.41357" lon="27.7471">
        <ele>389.185</ele>
      </trkpt>
      <trkpt lat="37.41365" lon="27.74711">
        <ele>390.786</ele>
      </trkpt>
      <trkpt lat="37.41373" lon="27.74713">
        <ele>392.661</ele>
      </trkpt>
      <trkpt lat="37.41378" lon="27.74718">
        <ele>393.776</ele>
      </trkpt>
      <trkpt lat="37.41381" lon="27.7472">
        <ele>394.404</ele>
      </trkpt>
      <trkpt lat="37.41388" lon="27.74722">
        <ele>395.721</ele>
      </trkpt>
      <trkpt lat="37.41397" lon="27.74724">
        <ele>398.128</ele>
      </trkpt>
      <trkpt lat="37.41406" lon="27.74723">
        <ele>400.746</ele>
      </trkpt>
      <trkpt lat="37.41412" lon="27.74726">
        <ele>402.443</ele>
      </trkpt>
      <trkpt lat="37.4142" lon="27.74728">
        <ele>403.982</ele>
      </trkpt>
      <trkpt lat="37.41429" lon="27.74731">
        <ele>405.522</ele>
      </trkpt>
      <trkpt lat="37.4144" lon="27.74734">
        <ele>407.338</ele>
      </trkpt>
      <trkpt lat="37.41449" lon="27.74734">
        <ele>408.614</ele>
      </trkpt>
      <trkpt lat="37.41461" lon="27.74733">
        <ele>409.771</ele>
      </trkpt>
      <trkpt lat="37.41469" lon="27.7473">
        <ele>411.053</ele>
      </trkpt>
      <trkpt lat="37.41479" lon="27.74725">
        <ele>412.024</ele>
      </trkpt>
      <trkpt lat="37.41486" lon="27.74727">
        <ele>411.458</ele>
      </trkpt>
      <trkpt lat="37.41497" lon="27.74727">
        <ele>410.861</ele>
      </trkpt>
      <trkpt lat="37.41511" lon="27.74721">
        <ele>411.813</ele>
      </trkpt>
      <trkpt lat="37.41515" lon="27.7472">
        <ele>411.803</ele>
      </trkpt>
      <trkpt lat="37.41527" lon="27.74727">
        <ele>410.202</ele>
      </trkpt>
      <trkpt lat="37.41531" lon="27.74734">
        <ele>409.1</ele>
      </trkpt>
      <trkpt lat="37.41532" lon="27.74736">
        <ele>408.747</ele>
      </trkpt>
      <trkpt lat="37.41534" lon="27.74744">
        <ele>407.463</ele>
      </trkpt>
      <trkpt lat="37.41535" lon="27.74745">
        <ele>407.404</ele>
      </trkpt>
      <trkpt lat="37.41542" lon="27.74752">
        <ele>406.661</ele>
      </trkpt>
      <trkpt lat="37.41543" lon="27.74752">
        <ele>406.718</ele>
      </trkpt>
      <trkpt lat="37.41549" lon="27.7475">
        <ele>407.589</ele>
      </trkpt>
      <trkpt lat="37.41553" lon="27.74749">
        <ele>407.92</ele>
      </trkpt>
      <trkpt lat="37.41557" lon="27.74751">
        <ele>407.78</ele>
      </trkpt>
      <trkpt lat="37.4156" lon="27.74754">
        <ele>407.254</ele>
      </trkpt>
      <trkpt lat="37.41563" lon="27.74755">
        <ele>406.909</ele>
      </trkpt>
      <trkpt lat="37.41567" lon="27.74755">
        <ele>406.791</ele>
      </trkpt>
      <trkpt lat="37.41571" lon="27.74754">
        <ele>407.139</ele>
      </trkpt>
      <trkpt lat="37.41572" lon="27.74753">
        <ele>407.202</ele>
      </trkpt>
      <trkpt lat="37.41577" lon="27.74759">
        <ele>405.778</ele>
      </trkpt>
      <trkpt lat="37.41577" lon="27.7476">
        <ele>405.359</ele>
      </trkpt>
      <trkpt lat="37.41581" lon="27.74769">
        <ele>402.743</ele>
      </trkpt>
      <trkpt lat="37.41584" lon="27.74772">
        <ele>401.605</ele>
      </trkpt>
      <trkpt lat="37.41584" lon="27.74772">
        <ele>401.605</ele>
      </trkpt>
      <trkpt lat="37.4159" lon="27.74768">
        <ele>401.528</ele>
      </trkpt>
      <trkpt lat="37.4159" lon="27.74769">
        <ele>401.338</ele>
      </trkpt>
      <trkpt lat="37.41591" lon="27.74773">
        <ele>400.045</ele>
      </trkpt>
      <trkpt lat="37.41596" lon="27.74774">
        <ele>398.876</ele>
      </trkpt>
      <trkpt lat="37.41604" lon="27.74773">
        <ele>397.538</ele>
      </trkpt>
      <trkpt lat="37.41608" lon="27.74772">
        <ele>397.053</ele>
      </trkpt>
      <trkpt lat="37.4161" lon="27.7477">
        <ele>397.263</ele>
      </trkpt>
      <trkpt lat="37.41617" lon="27.74762">
        <ele>398.642</ele>
      </trkpt>
      <trkpt lat="37.41624" lon="27.74762">
        <ele>398.014</ele>
      </trkpt>
      <trkpt lat="37.41634" lon="27.74762">
        <ele>397.295</ele>
      </trkpt>
      <trkpt lat="37.41643" lon="27.74762">
        <ele>396.981</ele>
      </trkpt>
      <trkpt lat="37.41654" lon="27.74768">
        <ele>396.301</ele>
      </trkpt>
      <trkpt lat="37.41657" lon="27.74772">
        <ele>395.788</ele>
      </trkpt>
      <trkpt lat="37.41662" lon="27.74777">
        <ele>394.989</ele>
      </trkpt>
      <trkpt lat="37.41666" lon="27.74782">
        <ele>394.275</ele>
      </trkpt>
      <trkpt lat="37.41673" lon="27.74793">
        <ele>393.018</ele>
      </trkpt>
      <trkpt lat="37.41675" lon="27.74795">
        <ele>392.849</ele>
      </trkpt>
      <trkpt lat="37.41678" lon="27.74796">
        <ele>392.934</ele>
      </trkpt>
      <trkpt lat="37.41688" lon="27.74801">
        <ele>393.038</ele>
      </trkpt>
      <trkpt lat="37.41694" lon="27.74805">
        <ele>393.06</ele>
      </trkpt>
      <trkpt lat="37.41697" lon="27.74812">
        <ele>392.282</ele>
      </trkpt>
      <trkpt lat="37.417" lon="27.74824">
        <ele>390.643</ele>
      </trkpt>
      <trkpt lat="37.41706" lon="27.74834">
        <ele>389.388</ele>
      </trkpt>
      <trkpt lat="37.41716" lon="27.74842">
        <ele>389.273</ele>
      </trkpt>
      <trkpt lat="37.41721" lon="27.74845">
        <ele>389.128</ele>
      </trkpt>
      <trkpt lat="37.41727" lon="27.74848">
        <ele>389.422</ele>
      </trkpt>
      <trkpt lat="37.41733" lon="27.74849">
        <ele>389.699</ele>
      </trkpt>
      <trkpt lat="37.41735" lon="27.7485">
        <ele>389.786</ele>
      </trkpt>
      <trkpt lat="37.4174" lon="27.74852">
        <ele>389.882</ele>
      </trkpt>
      <trkpt lat="37.41748" lon="27.74853">
        <ele>390.343</ele>
      </trkpt>
      <trkpt lat="37.41757" lon="27.74855">
        <ele>390.201</ele>
      </trkpt>
      <trkpt lat="37.41761" lon="27.74854">
        <ele>390.591</ele>
      </trkpt>
      <trkpt lat="37.41764" lon="27.74857">
        <ele>390.059</ele>
      </trkpt>
      <trkpt lat="37.41766" lon="27.74858">
        <ele>389.68</ele>
      </trkpt>
      <trkpt lat="37.41775" lon="27.74863">
        <ele>388.6</ele>
      </trkpt>
      <trkpt lat="37.41776" lon="27.74865">
        <ele>388.248</ele>
      </trkpt>
      <trkpt lat="37.41782" lon="27.74867">
        <ele>387.735</ele>
      </trkpt>
      <trkpt lat="37.41786" lon="27.74868">
        <ele>387.363</ele>
      </trkpt>
      <trkpt lat="37.41788" lon="27.74873">
        <ele>386.397</ele>
      </trkpt>
      <trkpt lat="37.41789" lon="27.74875">
        <ele>385.917</ele>
      </trkpt>
      <trkpt lat="37.41791" lon="27.74876">
        <ele>385.52</ele>
      </trkpt>
      <trkpt lat="37.41798" lon="27.74882">
        <ele>383.974</ele>
      </trkpt>
      <trkpt lat="37.418" lon="27.74888">
        <ele>382.639</ele>
      </trkpt>
      <trkpt lat="37.41806" lon="27.74894">
        <ele>381.106</ele>
      </trkpt>
      <trkpt lat="37.41811" lon="27.749">
        <ele>379.202</ele>
      </trkpt>
      <trkpt lat="37.41813" lon="27.74898">
        <ele>379.16</ele>
      </trkpt>
      <trkpt lat="37.41814" lon="27.74899">
        <ele>378.906</ele>
      </trkpt>
      <trkpt lat="37.41818" lon="27.74907">
        <ele>377.174</ele>
      </trkpt>
      <trkpt lat="37.41821" lon="27.74909">
        <ele>376.453</ele>
      </trkpt>
      <trkpt lat="37.41827" lon="27.74915">
        <ele>374.871</ele>
      </trkpt>
      <trkpt lat="37.41835" lon="27.74925">
        <ele>372.768</ele>
      </trkpt>
      <trkpt lat="37.41838" lon="27.74927">
        <ele>371.983</ele>
      </trkpt>
      <trkpt lat="37.41838" lon="27.74928">
        <ele>371.815</ele>
      </trkpt>
      <trkpt lat="37.41852" lon="27.74933">
        <ele>368.667</ele>
      </trkpt>
      <trkpt lat="37.41857" lon="27.74934">
        <ele>367.636</ele>
      </trkpt>
      <trkpt lat="37.41859" lon="27.74935">
        <ele>367.163</ele>
      </trkpt>
      <trkpt lat="37.41866" lon="27.74939">
        <ele>364.784</ele>
      </trkpt>
      <trkpt lat="37.41867" lon="27.74935">
        <ele>364.895</ele>
      </trkpt>
      <trkpt lat="37.41867" lon="27.74935">
        <ele>364.894</ele>
      </trkpt>
      <trkpt lat="37.41865" lon="27.74927">
        <ele>366.12</ele>
      </trkpt>
      <trkpt lat="37.41867" lon="27.74923">
        <ele>365.892</ele>
      </trkpt>
      <trkpt lat="37.41871" lon="27.74924">
        <ele>364.746</ele>
      </trkpt>
      <trkpt lat="37.41877" lon="27.74922">
        <ele>363.467</ele>
      </trkpt>
      <trkpt lat="37.41882" lon="27.74922">
        <ele>362.044</ele>
      </trkpt>
      <trkpt lat="37.41885" lon="27.74925">
        <ele>360.933</ele>
      </trkpt>
      <trkpt lat="37.41889" lon="27.74925">
        <ele>359.759</ele>
      </trkpt>
      <trkpt lat="37.41895" lon="27.74928">
        <ele>357.391</ele>
      </trkpt>
      <trkpt lat="37.41896" lon="27.74927">
        <ele>357.309</ele>
      </trkpt>
      <trkpt lat="37.41896" lon="27.74925">
        <ele>357.57</ele>
      </trkpt>
      <trkpt lat="37.41898" lon="27.74922">
        <ele>357.627</ele>
      </trkpt>
      <trkpt lat="37.41899" lon="27.74919">
        <ele>357.968</ele>
      </trkpt>
      <trkpt lat="37.41898" lon="27.74914">
        <ele>359.397</ele>
      </trkpt>
      <trkpt lat="37.41901" lon="27.74913">
        <ele>358.827</ele>
      </trkpt>
      <trkpt lat="37.41907" lon="27.74911">
        <ele>358.037</ele>
      </trkpt>
      <trkpt lat="37.4191" lon="27.74909">
        <ele>357.654</ele>
      </trkpt>
      <trkpt lat="37.41913" lon="27.74909">
        <ele>356.797</ele>
      </trkpt>
      <trkpt lat="37.41919" lon="27.74907">
        <ele>356.091</ele>
      </trkpt>
      <trkpt lat="37.4192" lon="27.74908">
        <ele>355.407</ele>
      </trkpt>
      <trkpt lat="37.41921" lon="27.74912">
        <ele>354.319</ele>
      </trkpt>
      <trkpt lat="37.41923" lon="27.74917">
        <ele>352.536</ele>
      </trkpt>
      <trkpt lat="37.41923" lon="27.74917">
        <ele>352.464</ele>
      </trkpt>
      <trkpt lat="37.41921" lon="27.74919">
        <ele>352.406</ele>
      </trkpt>
      <trkpt lat="37.41923" lon="27.74928">
        <ele>348.71</ele>
      </trkpt>
      <trkpt lat="37.41925" lon="27.74929">
        <ele>348.3</ele>
      </trkpt>
      <trkpt lat="37.41927" lon="27.74929">
        <ele>347.779</ele>
      </trkpt>
      <trkpt lat="37.41932" lon="27.74937">
        <ele>343.677</ele>
      </trkpt>
      <trkpt lat="37.41931" lon="27.74939">
        <ele>343.471</ele>
      </trkpt>
      <trkpt lat="37.41934" lon="27.74939">
        <ele>342.796</ele>
      </trkpt>
      <trkpt lat="37.41934" lon="27.74938">
        <ele>342.85</ele>
      </trkpt>
      <trkpt lat="37.41937" lon="27.74934">
        <ele>343.352</ele>
      </trkpt>
      <trkpt lat="37.4194" lon="27.74933">
        <ele>343.249</ele>
      </trkpt>
      <trkpt lat="37.41941" lon="27.74936">
        <ele>341.779</ele>
      </trkpt>
      <trkpt lat="37.41942" lon="27.7494">
        <ele>340.292</ele>
      </trkpt>
      <trkpt lat="37.41945" lon="27.74939">
        <ele>340.08</ele>
      </trkpt>
      <trkpt lat="37.41948" lon="27.74939">
        <ele>339.918</ele>
      </trkpt>
      <trkpt lat="37.41949" lon="27.7494">
        <ele>339.763</ele>
      </trkpt>
      <trkpt lat="37.41953" lon="27.7495">
        <ele>336.645</ele>
      </trkpt>
      <trkpt lat="37.41953" lon="27.74953">
        <ele>336.045</ele>
      </trkpt>
      <trkpt lat="37.41954" lon="27.74953">
        <ele>335.965</ele>
      </trkpt>
      <trkpt lat="37.4196" lon="27.74955">
        <ele>335.582</ele>
      </trkpt>
      <trkpt lat="37.41961" lon="27.74954">
        <ele>335.813</ele>
      </trkpt>
      <trkpt lat="37.41961" lon="27.74955">
        <ele>335.516</ele>
      </trkpt>
      <trkpt lat="37.41967" lon="27.74961">
        <ele>334.394</ele>
      </trkpt>
      <trkpt lat="37.41968" lon="27.74961">
        <ele>334.339</ele>
      </trkpt>
      <trkpt lat="37.41971" lon="27.74961">
        <ele>334.452</ele>
      </trkpt>
      <trkpt lat="37.41975" lon="27.74969">
        <ele>332.853</ele>
      </trkpt>
      <trkpt lat="37.4198" lon="27.74973">
        <ele>332.797</ele>
      </trkpt>
      <trkpt lat="37.41981" lon="27.74972">
        <ele>333.048</ele>
      </trkpt>
      <trkpt lat="37.41983" lon="27.74978">
        <ele>332.302</ele>
      </trkpt>
      <trkpt lat="37.41986" lon="27.74979">
        <ele>332.446</ele>
      </trkpt>
      <trkpt lat="37.41988" lon="27.74978">
        <ele>332.86</ele>
      </trkpt>
      <trkpt lat="37.41993" lon="27.74978">
        <ele>333.394</ele>
      </trkpt>
      <trkpt lat="37.41999" lon="27.74976">
        <ele>334.377</ele>
      </trkpt>
      <trkpt lat="37.42" lon="27.74975">
        <ele>334.524</ele>
      </trkpt>
      <trkpt lat="37.42003" lon="27.74976">
        <ele>334.908</ele>
      </trkpt>
      <trkpt lat="37.42006" lon="27.74975">
        <ele>335.176</ele>
      </trkpt>
      <trkpt lat="37.42009" lon="27.74979">
        <ele>335.125</ele>
      </trkpt>
      <trkpt lat="37.4201" lon="27.7498">
        <ele>335.064</ele>
      </trkpt>
      <trkpt lat="37.42013" lon="27.74981">
        <ele>335.278</ele>
      </trkpt>
      <trkpt lat="37.42017" lon="27.74982">
        <ele>335.738</ele>
      </trkpt>
      <trkpt lat="37.42026" lon="27.74981">
        <ele>336.803</ele>
      </trkpt>
      <trkpt lat="37.42031" lon="27.74979">
        <ele>337.926</ele>
      </trkpt>
      <trkpt lat="37.42034" lon="27.7498">
        <ele>338.341</ele>
      </trkpt>
      <trkpt lat="37.42035" lon="27.74982">
        <ele>338.205</ele>
      </trkpt>
      <trkpt lat="37.42036" lon="27.74982">
        <ele>338.433</ele>
      </trkpt>
      <trkpt lat="37.42037" lon="27.74982">
        <ele>338.553</ele>
      </trkpt>
      <trkpt lat="37.42041" lon="27.74989">
        <ele>338.529</ele>
      </trkpt>
      <trkpt lat="37.4204" lon="27.7499">
        <ele>338.347</ele>
      </trkpt>
      <trkpt lat="37.42039" lon="27.74994">
        <ele>337.656</ele>
      </trkpt>
      <trkpt lat="37.42041" lon="27.74998">
        <ele>337.627</ele>
      </trkpt>
      <trkpt lat="37.42041" lon="27.75003">
        <ele>337.014</ele>
      </trkpt>
      <trkpt lat="37.42042" lon="27.75002">
        <ele>337.204</ele>
      </trkpt>
      <trkpt lat="37.42043" lon="27.74999">
        <ele>337.878</ele>
      </trkpt>
      <trkpt lat="37.42042" lon="27.75001">
        <ele>337.464</ele>
      </trkpt>
      <trkpt lat="37.42044" lon="27.75005">
        <ele>337.189</ele>
      </trkpt>
      <trkpt lat="37.42043" lon="27.75007">
        <ele>336.837</ele>
      </trkpt>
      <trkpt lat="37.42042" lon="27.75013">
        <ele>335.902</ele>
      </trkpt>
      <trkpt lat="37.42043" lon="27.75013">
        <ele>336.103</ele>
      </trkpt>
      <trkpt lat="37.42048" lon="27.75016">
        <ele>336.5</ele>
      </trkpt>
      <trkpt lat="37.42052" lon="27.7502">
        <ele>336.642</ele>
      </trkpt>
      <trkpt lat="37.42055" lon="27.75023">
        <ele>336.501</ele>
      </trkpt>
      <trkpt lat="37.42055" lon="27.75025">
        <ele>336.399</ele>
      </trkpt>
      <trkpt lat="37.42058" lon="27.75032">
        <ele>335.508</ele>
      </trkpt>
      <trkpt lat="37.42058" lon="27.75033">
        <ele>335.275</ele>
      </trkpt>
      <trkpt lat="37.42058" lon="27.75041">
        <ele>333.908</ele>
      </trkpt>
      <trkpt lat="37.4206" lon="27.75045">
        <ele>333.119</ele>
      </trkpt>
      <trkpt lat="37.42064" lon="27.75051">
        <ele>332.19</ele>
      </trkpt>
      <trkpt lat="37.42065" lon="27.75054">
        <ele>331.672</ele>
      </trkpt>
      <trkpt lat="37.42068" lon="27.75056">
        <ele>331.266</ele>
      </trkpt>
      <trkpt lat="37.42071" lon="27.75062">
        <ele>330.253</ele>
      </trkpt>
      <trkpt lat="37.42071" lon="27.75062">
        <ele>330.276</ele>
      </trkpt>
      <trkpt lat="37.42075" lon="27.75074">
        <ele>327.824</ele>
      </trkpt>
      <trkpt lat="37.42077" lon="27.75076">
        <ele>327.349</ele>
      </trkpt>
      <trkpt lat="37.42078" lon="27.75076">
        <ele>327.492</ele>
      </trkpt>
      <trkpt lat="37.42078" lon="27.75075">
        <ele>327.619</ele>
      </trkpt>
      <trkpt lat="37.42083" lon="27.75076">
        <ele>327.643</ele>
      </trkpt>
      <trkpt lat="37.42084" lon="27.75077">
        <ele>327.399</ele>
      </trkpt>
      <trkpt lat="37.42088" lon="27.75081">
        <ele>326.913</ele>
      </trkpt>
      <trkpt lat="37.42089" lon="27.7508">
        <ele>327.11</ele>
      </trkpt>
      <trkpt lat="37.4209" lon="27.7508">
        <ele>327.235</ele>
      </trkpt>
      <trkpt lat="37.42094" lon="27.7508">
        <ele>327.33</ele>
      </trkpt>
      <trkpt lat="37.42097" lon="27.75081">
        <ele>327.424</ele>
      </trkpt>
      <trkpt lat="37.42098" lon="27.75081">
        <ele>327.529</ele>
      </trkpt>
      <trkpt lat="37.421" lon="27.7508">
        <ele>327.702</ele>
      </trkpt>
      <trkpt lat="37.42109" lon="27.75079">
        <ele>328.497</ele>
      </trkpt>
      <trkpt lat="37.42109" lon="27.75078">
        <ele>328.65</ele>
      </trkpt>
      <trkpt lat="37.42108" lon="27.75079">
        <ele>328.45</ele>
      </trkpt>
      <trkpt lat="37.42109" lon="27.75079">
        <ele>328.536</ele>
      </trkpt>
      <trkpt lat="37.42114" lon="27.75084">
        <ele>327.954</ele>
      </trkpt>
      <trkpt lat="37.42118" lon="27.75084">
        <ele>328.295</ele>
      </trkpt>
      <trkpt lat="37.4212" lon="27.75083">
        <ele>328.686</ele>
      </trkpt>
      <trkpt lat="37.42122" lon="27.75087">
        <ele>328.005</ele>
      </trkpt>
      <trkpt lat="37.42122" lon="27.75088">
        <ele>327.757</ele>
      </trkpt>
      <trkpt lat="37.42125" lon="27.75094">
        <ele>326.419</ele>
      </trkpt>
      <trkpt lat="37.42125" lon="27.75097">
        <ele>325.807</ele>
      </trkpt>
      <trkpt lat="37.42126" lon="27.75097">
        <ele>325.777</ele>
      </trkpt>
      <trkpt lat="37.42134" lon="27.75106">
        <ele>324.648</ele>
      </trkpt>
      <trkpt lat="37.42138" lon="27.75108">
        <ele>324.509</ele>
      </trkpt>
      <trkpt lat="37.42139" lon="27.75109">
        <ele>324.395</ele>
      </trkpt>
      <trkpt lat="37.42145" lon="27.75112">
        <ele>323.601</ele>
      </trkpt>
      <trkpt lat="37.42147" lon="27.75111">
        <ele>323.773</ele>
      </trkpt>
      <trkpt lat="37.42148" lon="27.75113">
        <ele>323.252</ele>
      </trkpt>
      <trkpt lat="37.4215" lon="27.7512">
        <ele>321.285</ele>
      </trkpt>
      <trkpt lat="37.4215" lon="27.75124">
        <ele>320.217</ele>
      </trkpt>
      <trkpt lat="37.42151" lon="27.75125">
        <ele>319.897</ele>
      </trkpt>
      <trkpt lat="37.42151" lon="27.75127">
        <ele>319.299</ele>
      </trkpt>
      <trkpt lat="37.42156" lon="27.75132">
        <ele>317.779</ele>
      </trkpt>
      <trkpt lat="37.42158" lon="27.75134">
        <ele>317.239</ele>
      </trkpt>
      <trkpt lat="37.42162" lon="27.75136">
        <ele>316.867</ele>
      </trkpt>
      <trkpt lat="37.42163" lon="27.75134">
        <ele>317.215</ele>
      </trkpt>
      <trkpt lat="37.42164" lon="27.75135">
        <ele>317.128</ele>
      </trkpt>
      <trkpt lat="37.42165" lon="27.75136">
        <ele>316.659</ele>
      </trkpt>
      <trkpt lat="37.42168" lon="27.75134">
        <ele>317.112</ele>
      </trkpt>
      <trkpt lat="37.42173" lon="27.75133">
        <ele>317.216</ele>
      </trkpt>
      <trkpt lat="37.42175" lon="27.75131">
        <ele>317.564</ele>
      </trkpt>
      <trkpt lat="37.42184" lon="27.75127">
        <ele>318.417</ele>
      </trkpt>
      <trkpt lat="37.4219" lon="27.75126">
        <ele>318.231</ele>
      </trkpt>
      <trkpt lat="37.42189" lon="27.75127">
        <ele>318.107</ele>
      </trkpt>
      <trkpt lat="37.42193" lon="27.75124">
        <ele>318.864</ele>
      </trkpt>
      <trkpt lat="37.42195" lon="27.75123">
        <ele>319.164</ele>
      </trkpt>
      <trkpt lat="37.42203" lon="27.75122">
        <ele>319.363</ele>
      </trkpt>
      <trkpt lat="37.42214" lon="27.75119">
        <ele>319.526</ele>
      </trkpt>
      <trkpt lat="37.4223" lon="27.75115">
        <ele>319.765</ele>
      </trkpt>
      <trkpt lat="37.42234" lon="27.75112">
        <ele>319.976</ele>
      </trkpt>
      <trkpt lat="37.42237" lon="27.7511">
        <ele>320.077</ele>
      </trkpt>
      <trkpt lat="37.42244" lon="27.75108">
        <ele>319.845</ele>
      </trkpt>
      <trkpt lat="37.4225" lon="27.75109">
        <ele>319.233</ele>
      </trkpt>
      <trkpt lat="37.42261" lon="27.75106">
        <ele>317.93</ele>
      </trkpt>
      <trkpt lat="37.42267" lon="27.75102">
        <ele>317.28</ele>
      </trkpt>
      <trkpt lat="37.42269" lon="27.75101">
        <ele>317.16</ele>
      </trkpt>
      <trkpt lat="37.42269" lon="27.75097">
        <ele>317.456</ele>
      </trkpt>
      <trkpt lat="37.42272" lon="27.75098">
        <ele>316.831</ele>
      </trkpt>
      <trkpt lat="37.42276" lon="27.75089">
        <ele>316.878</ele>
      </trkpt>
      <trkpt lat="37.42282" lon="27.75084">
        <ele>315.879</ele>
      </trkpt>
      <trkpt lat="37.42287" lon="27.75084">
        <ele>314.547</ele>
      </trkpt>
      <trkpt lat="37.42289" lon="27.75085">
        <ele>314.011</ele>
      </trkpt>
      <trkpt lat="37.42295" lon="27.75074">
        <ele>313.375</ele>
      </trkpt>
      <trkpt lat="37.423" lon="27.75072">
        <ele>312.23</ele>
      </trkpt>
      <trkpt lat="37.42308" lon="27.75069">
        <ele>310.183</ele>
      </trkpt>
      <trkpt lat="37.42308" lon="27.7507">
        <ele>310.254</ele>
      </trkpt>
      <trkpt lat="37.42315" lon="27.75071">
        <ele>307.764</ele>
      </trkpt>
      <trkpt lat="37.42315" lon="27.75065">
        <ele>308.154</ele>
      </trkpt>
      <trkpt lat="37.42315" lon="27.75064">
        <ele>308.152</ele>
      </trkpt>
      <trkpt lat="37.42316" lon="27.75061">
        <ele>308.061</ele>
      </trkpt>
      <trkpt lat="37.42322" lon="27.75054">
        <ele>306.197</ele>
      </trkpt>
      <trkpt lat="37.4233" lon="27.75045">
        <ele>302.622</ele>
      </trkpt>
      <trkpt lat="37.42332" lon="27.75045">
        <ele>301.777</ele>
      </trkpt>
      <trkpt lat="37.42334" lon="27.75042">
        <ele>300.877</ele>
      </trkpt>
      <trkpt lat="37.42337" lon="27.75038">
        <ele>300.336</ele>
      </trkpt>
      <trkpt lat="37.42345" lon="27.75021">
        <ele>299.242</ele>
      </trkpt>
      <trkpt lat="37.42347" lon="27.75015">
        <ele>299.44</ele>
      </trkpt>
      <trkpt lat="37.42349" lon="27.75014">
        <ele>299.257</ele>
      </trkpt>
      <trkpt lat="37.42352" lon="27.75009">
        <ele>299.386</ele>
      </trkpt>
      <trkpt lat="37.42355" lon="27.75008">
        <ele>299.156</ele>
      </trkpt>
      <trkpt lat="37.42355" lon="27.75006">
        <ele>299.229</ele>
      </trkpt>
      <trkpt lat="37.42354" lon="27.75004">
        <ele>299.49</ele>
      </trkpt>
      <trkpt lat="37.42356" lon="27.74998">
        <ele>300.05</ele>
      </trkpt>
      <trkpt lat="37.42356" lon="27.74997">
        <ele>300.312</ele>
      </trkpt>
      <trkpt lat="37.42357" lon="27.74989">
        <ele>301.92</ele>
      </trkpt>
      <trkpt lat="37.42356" lon="27.74986">
        <ele>302.57</ele>
      </trkpt>
      <trkpt lat="37.42356" lon="27.74987">
        <ele>302.557</ele>
      </trkpt>
      <trkpt lat="37.42366" lon="27.74983">
        <ele>302.451</ele>
      </trkpt>
      <trkpt lat="37.42367" lon="27.74981">
        <ele>302.767</ele>
      </trkpt>
      <trkpt lat="37.42368" lon="27.74985">
        <ele>302.002</ele>
      </trkpt>
      <trkpt lat="37.4237" lon="27.7499">
        <ele>300.908</ele>
      </trkpt>
      <trkpt lat="37.42371" lon="27.74992">
        <ele>300.527</ele>
      </trkpt>
      <trkpt lat="37.42375" lon="27.75001">
        <ele>298.974</ele>
      </trkpt>
      <trkpt lat="37.42373" lon="27.75008">
        <ele>298.798</ele>
      </trkpt>
      <trkpt lat="37.42372" lon="27.75013">
        <ele>298.6</ele>
      </trkpt>
      <trkpt lat="37.42372" lon="27.75012">
        <ele>298.637</ele>
      </trkpt>
      <trkpt lat="37.42371" lon="27.75019">
        <ele>298.372</ele>
      </trkpt>
      <trkpt lat="37.42371" lon="27.75023">
        <ele>298.198</ele>
      </trkpt>
      <trkpt lat="37.42374" lon="27.75023">
        <ele>298.521</ele>
      </trkpt>
      <trkpt lat="37.42381" lon="27.75033">
        <ele>299.701</ele>
      </trkpt>
      <trkpt lat="37.42381" lon="27.75035">
        <ele>299.884</ele>
      </trkpt>
      <trkpt lat="37.42378" lon="27.75048">
        <ele>300.711</ele>
      </trkpt>
      <trkpt lat="37.42376" lon="27.75048">
        <ele>300.429</ele>
      </trkpt>
      <trkpt lat="37.42375" lon="27.75063">
        <ele>301.238</ele>
      </trkpt>
      <trkpt lat="37.42377" lon="27.75071">
        <ele>301.922</ele>
      </trkpt>
      <trkpt lat="37.42381" lon="27.75073">
        <ele>302.803</ele>
      </trkpt>
      <trkpt lat="37.42387" lon="27.75075">
        <ele>304.13</ele>
      </trkpt>
      <trkpt lat="37.42395" lon="27.75082">
        <ele>306.028</ele>
      </trkpt>
      <trkpt lat="37.42401" lon="27.75083">
        <ele>307.067</ele>
      </trkpt>
      <trkpt lat="37.42402" lon="27.75086">
        <ele>307.285</ele>
      </trkpt>
      <trkpt lat="37.42403" lon="27.75087">
        <ele>307.274</ele>
      </trkpt>
      <trkpt lat="37.42408" lon="27.75088">
        <ele>308.33</ele>
      </trkpt>
      <trkpt lat="37.42413" lon="27.7509">
        <ele>309.157</ele>
      </trkpt>
      <trkpt lat="37.42423" lon="27.7509">
        <ele>310.714</ele>
      </trkpt>
      <trkpt lat="37.42432" lon="27.75092">
        <ele>311.937</ele>
      </trkpt>
      <trkpt lat="37.42436" lon="27.75093">
        <ele>312.656</ele>
      </trkpt>
      <trkpt lat="37.42437" lon="27.75095">
        <ele>312.995</ele>
      </trkpt>
      <trkpt lat="37.42439" lon="27.75099">
        <ele>313.769</ele>
      </trkpt>
      <trkpt lat="37.42439" lon="27.75106">
        <ele>314.801</ele>
      </trkpt>
      <trkpt lat="37.42439" lon="27.7511">
        <ele>315.35</ele>
      </trkpt>
      <trkpt lat="37.42439" lon="27.75115">
        <ele>315.323</ele>
      </trkpt>
      <trkpt lat="37.42437" lon="27.75129">
        <ele>314.283</ele>
      </trkpt>
      <trkpt lat="37.42446" lon="27.75144">
        <ele>315.956</ele>
      </trkpt>
      <trkpt lat="37.42457" lon="27.75152">
        <ele>316.834</ele>
      </trkpt>
      <trkpt lat="37.42466" lon="27.75163">
        <ele>318.037</ele>
      </trkpt>
      <trkpt lat="37.42476" lon="27.75177">
        <ele>319.284</ele>
      </trkpt>
      <trkpt lat="37.42477" lon="27.75177">
        <ele>319.266</ele>
      </trkpt>
      <trkpt lat="37.4248" lon="27.75175">
        <ele>319.114</ele>
      </trkpt>
      <trkpt lat="37.42486" lon="27.75177">
        <ele>319.093</ele>
      </trkpt>
      <trkpt lat="37.42486" lon="27.75182">
        <ele>319.702</ele>
      </trkpt>
      <trkpt lat="37.42487" lon="27.75184">
        <ele>319.924</ele>
      </trkpt>
      <trkpt lat="37.42494" lon="27.75198">
        <ele>321.808</ele>
      </trkpt>
      <trkpt lat="37.425" lon="27.75208">
        <ele>322.943</ele>
      </trkpt>
      <trkpt lat="37.42507" lon="27.75216">
        <ele>323.183</ele>
      </trkpt>
      <trkpt lat="37.42522" lon="27.75225">
        <ele>323.678</ele>
      </trkpt>
      <trkpt lat="37.42529" lon="27.75238">
        <ele>325.796</ele>
      </trkpt>
      <trkpt lat="37.4253" lon="27.75239">
        <ele>326.022</ele>
      </trkpt>
      <trkpt lat="37.42531" lon="27.75252">
        <ele>328.123</ele>
      </trkpt>
      <trkpt lat="37.42535" lon="27.75265">
        <ele>329.745</ele>
      </trkpt>
      <trkpt lat="37.4254" lon="27.75281">
        <ele>332.021</ele>
      </trkpt>
      <trkpt lat="37.42543" lon="27.75295">
        <ele>332.687</ele>
      </trkpt>
      <trkpt lat="37.42547" lon="27.7531">
        <ele>333.609</ele>
      </trkpt>
      <trkpt lat="37.4255" lon="27.75323">
        <ele>334.6</ele>
      </trkpt>
      <trkpt lat="37.42553" lon="27.75331">
        <ele>335.496</ele>
      </trkpt>
      <trkpt lat="37.42549" lon="27.75332">
        <ele>335.015</ele>
      </trkpt>
      <trkpt lat="37.42551" lon="27.7534">
        <ele>335.327</ele>
      </trkpt>
      <trkpt lat="37.42551" lon="27.75344">
        <ele>335.345</ele>
      </trkpt>
      <trkpt lat="37.4255" lon="27.75359">
        <ele>335.156</ele>
      </trkpt>
      <trkpt lat="37.42549" lon="27.75362">
        <ele>334.968</ele>
      </trkpt>
      <trkpt lat="37.42549" lon="27.75366">
        <ele>334.981</ele>
      </trkpt>
      <trkpt lat="37.42553" lon="27.75373">
        <ele>335.273</ele>
      </trkpt>
      <trkpt lat="37.42563" lon="27.75388">
        <ele>335.794</ele>
      </trkpt>
      <trkpt lat="37.42567" lon="27.75392">
        <ele>336.261</ele>
      </trkpt>
      <trkpt lat="37.42565" lon="27.75395">
        <ele>336.179</ele>
      </trkpt>
      <trkpt lat="37.42563" lon="27.75409">
        <ele>336.313</ele>
      </trkpt>
      <trkpt lat="37.42562" lon="27.75411">
        <ele>336.327</ele>
      </trkpt>
      <trkpt lat="37.42558" lon="27.75416">
        <ele>336.166</ele>
      </trkpt>
      <trkpt lat="37.42554" lon="27.75423">
        <ele>337.111</ele>
      </trkpt>
      <trkpt lat="37.42553" lon="27.75432">
        <ele>338.633</ele>
      </trkpt>
      <trkpt lat="37.42553" lon="27.75433">
        <ele>338.916</ele>
      </trkpt>
      <trkpt lat="37.42552" lon="27.75436">
        <ele>339.433</ele>
      </trkpt>
      <trkpt lat="37.42547" lon="27.75442">
        <ele>340.284</ele>
      </trkpt>
      <trkpt lat="37.42542" lon="27.75447">
        <ele>341.124</ele>
      </trkpt>
      <trkpt lat="37.42535" lon="27.75454">
        <ele>342.785</ele>
      </trkpt>
      <trkpt lat="37.42531" lon="27.75469">
        <ele>346.181</ele>
      </trkpt>
      <trkpt lat="37.42531" lon="27.7547">
        <ele>346.591</ele>
      </trkpt>
      <trkpt lat="37.4253" lon="27.75474">
        <ele>347.366</ele>
      </trkpt>
      <trkpt lat="37.4253" lon="27.75474">
        <ele>347.505</ele>
      </trkpt>
      <trkpt lat="37.42527" lon="27.75488">
        <ele>350.337</ele>
      </trkpt>
      <trkpt lat="37.42525" lon="27.75498">
        <ele>351.983</ele>
      </trkpt>
      <trkpt lat="37.42523" lon="27.75507">
        <ele>352.872</ele>
      </trkpt>
      <trkpt lat="37.4252" lon="27.75509">
        <ele>352.552</ele>
      </trkpt>
      <trkpt lat="37.42515" lon="27.75515">
        <ele>352.06</ele>
      </trkpt>
      <trkpt lat="37.42514" lon="27.75516">
        <ele>351.989</ele>
      </trkpt>
      <trkpt lat="37.4251" lon="27.75525">
        <ele>352.118</ele>
      </trkpt>
      <trkpt lat="37.42508" lon="27.75541">
        <ele>352.636</ele>
      </trkpt>
      <trkpt lat="37.42512" lon="27.75545">
        <ele>353.754</ele>
      </trkpt>
      <trkpt lat="37.42512" lon="27.7555">
        <ele>354.312</ele>
      </trkpt>
      <trkpt lat="37.42514" lon="27.75566">
        <ele>354.706</ele>
      </trkpt>
      <trkpt lat="37.42518" lon="27.75576">
        <ele>355.644</ele>
      </trkpt>
      <trkpt lat="37.42519" lon="27.75576">
        <ele>355.916</ele>
      </trkpt>
      <trkpt lat="37.42526" lon="27.75579">
        <ele>358.404</ele>
      </trkpt>
      <trkpt lat="37.42527" lon="27.75579">
        <ele>358.828</ele>
      </trkpt>
      <trkpt lat="37.4253" lon="27.75591">
        <ele>358.951</ele>
      </trkpt>
      <trkpt lat="37.42529" lon="27.75594">
        <ele>358.557</ele>
      </trkpt>
      <trkpt lat="37.4253" lon="27.75596">
        <ele>358.68</ele>
      </trkpt>
      <trkpt lat="37.42538" lon="27.75608">
        <ele>359.979</ele>
      </trkpt>
      <trkpt lat="37.42546" lon="27.75622">
        <ele>360.366</ele>
      </trkpt>
      <trkpt lat="37.42553" lon="27.75631">
        <ele>360.6</ele>
      </trkpt>
      <trkpt lat="37.42557" lon="27.75633">
        <ele>361.454</ele>
      </trkpt>
      <trkpt lat="37.42558" lon="27.75633">
        <ele>361.546</ele>
      </trkpt>
      <trkpt lat="37.42561" lon="27.75642">
        <ele>361.141</ele>
      </trkpt>
      <trkpt lat="37.42569" lon="27.75647">
        <ele>362.597</ele>
      </trkpt>
      <trkpt lat="37.4257" lon="27.75648">
        <ele>362.766</ele>
      </trkpt>
      <trkpt lat="37.42571" lon="27.75654">
        <ele>362.554</ele>
      </trkpt>
      <trkpt lat="37.42572" lon="27.75661">
        <ele>362.357</ele>
      </trkpt>
      <trkpt lat="37.42577" lon="27.75672">
        <ele>362.457</ele>
      </trkpt>
      <trkpt lat="37.42582" lon="27.75682">
        <ele>362.764</ele>
      </trkpt>
      <trkpt lat="37.42585" lon="27.75694">
        <ele>362.318</ele>
      </trkpt>
      <trkpt lat="37.42585" lon="27.75703">
        <ele>361.398</ele>
      </trkpt>
      <trkpt lat="37.42585" lon="27.75708">
        <ele>360.818</ele>
      </trkpt>
      <trkpt lat="37.42585" lon="27.75712">
        <ele>360.496</ele>
      </trkpt>
      <trkpt lat="37.42588" lon="27.75716">
        <ele>360.655</ele>
      </trkpt>
      <trkpt lat="37.42597" lon="27.75724">
        <ele>361.766</ele>
      </trkpt>
      <trkpt lat="37.42603" lon="27.75727">
        <ele>362.672</ele>
      </trkpt>
      <trkpt lat="37.42604" lon="27.75729">
        <ele>362.723</ele>
      </trkpt>
      <trkpt lat="37.42603" lon="27.7573">
        <ele>362.483</ele>
      </trkpt>
      <trkpt lat="37.42602" lon="27.7573">
        <ele>362.246</ele>
      </trkpt>
      <trkpt lat="37.42601" lon="27.75735">
        <ele>361.564</ele>
      </trkpt>
      <trkpt lat="37.42592" lon="27.75744">
        <ele>359.088</ele>
      </trkpt>
      <trkpt lat="37.42584" lon="27.75744">
        <ele>357.503</ele>
      </trkpt>
      <trkpt lat="37.42574" lon="27.75741">
        <ele>355.063</ele>
      </trkpt>
      <trkpt lat="37.42559" lon="27.75747">
        <ele>350.95</ele>
      </trkpt>
      <trkpt lat="37.42544" lon="27.75749">
        <ele>347.191</ele>
      </trkpt>
      <trkpt lat="37.42546" lon="27.75751">
        <ele>347.569</ele>
      </trkpt>
      <trkpt lat="37.4254" lon="27.75762">
        <ele>346.588</ele>
      </trkpt>
      <trkpt lat="37.42537" lon="27.7577">
        <ele>346.079</ele>
      </trkpt>
      <trkpt lat="37.42531" lon="27.75775">
        <ele>344.596</ele>
      </trkpt>
      <trkpt lat="37.42523" lon="27.75783">
        <ele>342.927</ele>
      </trkpt>
      <trkpt lat="37.42518" lon="27.7579">
        <ele>341.773</ele>
      </trkpt>
      <trkpt lat="37.42512" lon="27.75792">
        <ele>340.378</ele>
      </trkpt>
      <trkpt lat="37.42503" lon="27.7579">
        <ele>337.318</ele>
      </trkpt>
      <trkpt lat="37.42492" lon="27.75794">
        <ele>335.436</ele>
      </trkpt>
      <trkpt lat="37.42483" lon="27.75801">
        <ele>334.945</ele>
      </trkpt>
      <trkpt lat="37.42476" lon="27.7581">
        <ele>335.305</ele>
      </trkpt>
      <trkpt lat="37.42472" lon="27.75816">
        <ele>335.436</ele>
      </trkpt>
      <trkpt lat="37.42467" lon="27.7582">
        <ele>335.106</ele>
      </trkpt>
      <trkpt lat="37.42459" lon="27.75826">
        <ele>334.286</ele>
      </trkpt>
      <trkpt lat="37.4245" lon="27.7583">
        <ele>332.875</ele>
      </trkpt>
      <trkpt lat="37.42439" lon="27.75829">
        <ele>330.161</ele>
      </trkpt>
      <trkpt lat="37.42436" lon="27.75828">
        <ele>329.417</ele>
      </trkpt>
      <trkpt lat="37.42434" lon="27.75836">
        <ele>329.435</ele>
      </trkpt>
      <trkpt lat="37.42432" lon="27.75848">
        <ele>329.169</ele>
      </trkpt>
      <trkpt lat="37.42432" lon="27.75858">
        <ele>329.312</ele>
      </trkpt>
      <trkpt lat="37.42438" lon="27.75871">
        <ele>328.934</ele>
      </trkpt>
      <trkpt lat="37.42439" lon="27.75871">
        <ele>329.049</ele>
      </trkpt>
      <trkpt lat="37.42444" lon="27.75875">
        <ele>329.497</ele>
      </trkpt>
      <trkpt lat="37.42454" lon="27.75872">
        <ele>332.806</ele>
      </trkpt>
      <trkpt lat="37.42457" lon="27.7587">
        <ele>333.895</ele>
      </trkpt>
      <trkpt lat="37.42461" lon="27.75861">
        <ele>336.739</ele>
      </trkpt>
      <trkpt lat="37.42468" lon="27.75863">
        <ele>338.296</ele>
      </trkpt>
      <trkpt lat="37.4248" lon="27.75882">
        <ele>337.482</ele>
      </trkpt>
      <trkpt lat="37.42481" lon="27.75882">
        <ele>337.841</ele>
      </trkpt>
      <trkpt lat="37.4248" lon="27.7588">
        <ele>337.774</ele>
      </trkpt>
      <trkpt lat="37.4248" lon="27.75879">
        <ele>337.969</ele>
      </trkpt>
      <trkpt lat="37.42485" lon="27.75883">
        <ele>338.587</ele>
      </trkpt>
      <trkpt lat="37.42495" lon="27.7589">
        <ele>339.988</ele>
      </trkpt>
      <trkpt lat="37.42504" lon="27.75898">
        <ele>338.608</ele>
      </trkpt>
      <trkpt lat="37.42514" lon="27.75912">
        <ele>333.199</ele>
      </trkpt>
      <trkpt lat="37.42527" lon="27.75917">
        <ele>330.892</ele>
      </trkpt>
      <trkpt lat="37.42538" lon="27.75915">
        <ele>332.281</ele>
      </trkpt>
      <trkpt lat="37.42551" lon="27.75924">
        <ele>328.436</ele>
      </trkpt>
      <trkpt lat="37.42555" lon="27.75927">
        <ele>326.937</ele>
      </trkpt>
      <trkpt lat="37.42562" lon="27.75931">
        <ele>323.807</ele>
      </trkpt>
      <trkpt lat="37.42572" lon="27.75934">
        <ele>321.917</ele>
      </trkpt>
      <trkpt lat="37.42573" lon="27.75944">
        <ele>317.058</ele>
      </trkpt>
      <trkpt lat="37.42581" lon="27.75956">
        <ele>313.049</ele>
      </trkpt>
      <trkpt lat="37.42591" lon="27.75962">
        <ele>310.776</ele>
      </trkpt>
      <trkpt lat="37.42598" lon="27.75967">
        <ele>308.42</ele>
      </trkpt>
      <trkpt lat="37.42604" lon="27.75969">
        <ele>307.476</ele>
      </trkpt>
      <trkpt lat="37.42609" lon="27.75975">
        <ele>305.305</ele>
      </trkpt>
      <trkpt lat="37.42611" lon="27.75968">
        <ele>308.012</ele>
      </trkpt>
      <trkpt lat="37.42614" lon="27.75961">
        <ele>311.388</ele>
      </trkpt>
      <trkpt lat="37.42616" lon="27.75961">
        <ele>311.457</ele>
      </trkpt>
      <trkpt lat="37.42621" lon="27.75951">
        <ele>316.165</ele>
      </trkpt>
      <trkpt lat="37.42623" lon="27.75949">
        <ele>317.063</ele>
      </trkpt>
      <trkpt lat="37.42632" lon="27.75951">
        <ele>317.36</ele>
      </trkpt>
      <trkpt lat="37.4264" lon="27.75959">
        <ele>315.354</ele>
      </trkpt>
      <trkpt lat="37.42641" lon="27.75964">
        <ele>314.095</ele>
      </trkpt>
      <trkpt lat="37.42641" lon="27.75969">
        <ele>312.522</ele>
      </trkpt>
      <trkpt lat="37.42648" lon="27.75976">
        <ele>312.405</ele>
      </trkpt>
      <trkpt lat="37.42656" lon="27.75984">
        <ele>312.915</ele>
      </trkpt>
      <trkpt lat="37.42664" lon="27.75987">
        <ele>313.929</ele>
      </trkpt>
      <trkpt lat="37.42667" lon="27.75994">
        <ele>313.525</ele>
      </trkpt>
      <trkpt lat="37.4267" lon="27.75998">
        <ele>312.993</ele>
      </trkpt>
      <trkpt lat="37.42679" lon="27.7601">
        <ele>310.53</ele>
      </trkpt>
      <trkpt lat="37.42689" lon="27.76022">
        <ele>307.914</ele>
      </trkpt>
      <trkpt lat="37.42695" lon="27.76024">
        <ele>308.41</ele>
      </trkpt>
      <trkpt lat="37.42705" lon="27.76026">
        <ele>309.476</ele>
      </trkpt>
      <trkpt lat="37.42713" lon="27.76024">
        <ele>311.731</ele>
      </trkpt>
      <trkpt lat="37.42719" lon="27.76029">
        <ele>310.978</ele>
      </trkpt>
      <trkpt lat="37.42733" lon="27.76033">
        <ele>312.059</ele>
      </trkpt>
      <trkpt lat="37.42743" lon="27.76031">
        <ele>315.038</ele>
      </trkpt>
      <trkpt lat="37.42744" lon="27.76031">
        <ele>315.179</ele>
      </trkpt>
      <trkpt lat="37.42744" lon="27.76031">
        <ele>315.23</ele>
      </trkpt>
      <trkpt lat="37.42744" lon="27.76031">
        <ele>315.206</ele>
      </trkpt>
      <trkpt lat="37.42744" lon="27.76031">
        <ele>315.039</ele>
      </trkpt>
      <trkpt lat="37.42744" lon="27.76032">
        <ele>314.767</ele>
      </trkpt>
      <trkpt lat="37.42744" lon="27.76032">
        <ele>315.011</ele>
      </trkpt>
      <trkpt lat="37.42747" lon="27.76029">
        <ele>317.078</ele>
      </trkpt>
      <trkpt lat="37.42751" lon="27.76032">
        <ele>316.319</ele>
      </trkpt>
      <trkpt lat="37.42761" lon="27.76043">
        <ele>313.398</ele>
      </trkpt>
      <trkpt lat="37.42761" lon="27.76044">
        <ele>312.884</ele>
      </trkpt>
      <trkpt lat="37.42763" lon="27.76044">
        <ele>313.361</ele>
      </trkpt>
      <trkpt lat="37.42765" lon="27.76049">
        <ele>311.516</ele>
      </trkpt>
      <trkpt lat="37.42772" lon="27.76056">
        <ele>309.614</ele>
      </trkpt>
      <trkpt lat="37.42784" lon="27.76066">
        <ele>310.505</ele>
      </trkpt>
      <trkpt lat="37.42792" lon="27.76071">
        <ele>312.087</ele>
      </trkpt>
      <trkpt lat="37.42796" lon="27.76075">
        <ele>312.029</ele>
      </trkpt>
      <trkpt lat="37.42802" lon="27.76084">
        <ele>310.857</ele>
      </trkpt>
      <trkpt lat="37.42805" lon="27.76091">
        <ele>310.722</ele>
      </trkpt>
      <trkpt lat="37.42817" lon="27.76099">
        <ele>313.343</ele>
      </trkpt>
      <trkpt lat="37.42822" lon="27.76111">
        <ele>312.167</ele>
      </trkpt>
      <trkpt lat="37.42827" lon="27.76127">
        <ele>312.139</ele>
      </trkpt>
      <trkpt lat="37.42829" lon="27.76136">
        <ele>311.88</ele>
      </trkpt>
      <trkpt lat="37.42834" lon="27.76145">
        <ele>312.511</ele>
      </trkpt>
      <trkpt lat="37.42836" lon="27.76158">
        <ele>313.751</ele>
      </trkpt>
      <trkpt lat="37.42847" lon="27.76161">
        <ele>315.086</ele>
      </trkpt>
      <trkpt lat="37.4285" lon="27.76161">
        <ele>315.401</ele>
      </trkpt>
      <trkpt lat="37.42856" lon="27.76169">
        <ele>315.805</ele>
      </trkpt>
      <trkpt lat="37.42858" lon="27.76172">
        <ele>316.05</ele>
      </trkpt>
      <trkpt lat="37.42858" lon="27.76172">
        <ele>316.048</ele>
      </trkpt>
      <trkpt lat="37.42858" lon="27.76173">
        <ele>316.078</ele>
      </trkpt>
      <trkpt lat="37.42859" lon="27.76174">
        <ele>316.192</ele>
      </trkpt>
      <trkpt lat="37.42858" lon="27.76181">
        <ele>316.52</ele>
      </trkpt>
      <trkpt lat="37.42857" lon="27.76182">
        <ele>316.588</ele>
      </trkpt>
      <trkpt lat="37.42852" lon="27.76195">
        <ele>317.713</ele>
      </trkpt>
      <trkpt lat="37.42847" lon="27.762">
        <ele>318.977</ele>
      </trkpt>
      <trkpt lat="37.42852" lon="27.76205">
        <ele>319.363</ele>
      </trkpt>
      <trkpt lat="37.42857" lon="27.76208">
        <ele>319.469</ele>
      </trkpt>
      <trkpt lat="37.42845" lon="27.76212">
        <ele>321.398</ele>
      </trkpt>
      <trkpt lat="37.42844" lon="27.76215">
        <ele>322.139</ele>
      </trkpt>
      <trkpt lat="37.42849" lon="27.7622">
        <ele>322.334</ele>
      </trkpt>
      <trkpt lat="37.42849" lon="27.76222">
        <ele>322.618</ele>
      </trkpt>
      <trkpt lat="37.42845" lon="27.76221">
        <ele>323.172</ele>
      </trkpt>
      <trkpt lat="37.42837" lon="27.76215">
        <ele>322.911</ele>
      </trkpt>
      <trkpt lat="37.4283" lon="27.76209">
        <ele>322.942</ele>
      </trkpt>
      <trkpt lat="37.42823" lon="27.76203">
        <ele>323.367</ele>
      </trkpt>
      <trkpt lat="37.42815" lon="27.76199">
        <ele>324.198</ele>
      </trkpt>
      <trkpt lat="37.4281" lon="27.76202">
        <ele>326.043</ele>
      </trkpt>
      <trkpt lat="37.42808" lon="27.76201">
        <ele>326.475</ele>
      </trkpt>
      <trkpt lat="37.42799" lon="27.762">
        <ele>327.837</ele>
      </trkpt>
      <trkpt lat="37.42799" lon="27.76205">
        <ele>329.163</ele>
      </trkpt>
      <trkpt lat="37.428" lon="27.76211">
        <ele>330.91</ele>
      </trkpt>
      <trkpt lat="37.42796" lon="27.76211">
        <ele>331.456</ele>
      </trkpt>
      <trkpt lat="37.42787" lon="27.76213">
        <ele>333.378</ele>
      </trkpt>
      <trkpt lat="37.42774" lon="27.76204">
        <ele>332.839</ele>
      </trkpt>
      <trkpt lat="37.42764" lon="27.76203">
        <ele>332.043</ele>
      </trkpt>
      <trkpt lat="37.4276" lon="27.76208">
        <ele>332.608</ele>
      </trkpt>
      <trkpt lat="37.42759" lon="27.76207">
        <ele>332.468</ele>
      </trkpt>
      <trkpt lat="37.4276" lon="27.76207">
        <ele>332.485</ele>
      </trkpt>
      <trkpt lat="37.4276" lon="27.76207">
        <ele>332.542</ele>
      </trkpt>
      <trkpt lat="37.42762" lon="27.76209">
        <ele>333.006</ele>
      </trkpt>
      <trkpt lat="37.42763" lon="27.76217">
        <ele>334.452</ele>
      </trkpt>
      <trkpt lat="37.42763" lon="27.76218">
        <ele>334.696</ele>
      </trkpt>
      <trkpt lat="37.42771" lon="27.76234">
        <ele>338.654</ele>
      </trkpt>
      <trkpt lat="37.42771" lon="27.76236">
        <ele>338.929</ele>
      </trkpt>
      <trkpt lat="37.42771" lon="27.76243">
        <ele>340.451</ele>
      </trkpt>
      <trkpt lat="37.42771" lon="27.76256">
        <ele>342.703</ele>
      </trkpt>
      <trkpt lat="37.42772" lon="27.76263">
        <ele>343.877</ele>
      </trkpt>
      <trkpt lat="37.42772" lon="27.76263">
        <ele>343.877</ele>
      </trkpt>
      <trkpt lat="37.42772" lon="27.76263">
        <ele>343.877</ele>
      </trkpt>
      <trkpt lat="37.42772" lon="27.76264">
        <ele>344.117</ele>
      </trkpt>
      <trkpt lat="37.42775" lon="27.76267">
        <ele>345.007</ele>
      </trkpt>
      <trkpt lat="37.4278" lon="27.7627">
        <ele>345.924</ele>
      </trkpt>
      <trkpt lat="37.42785" lon="27.76275">
        <ele>346.712</ele>
      </trkpt>
      <trkpt lat="37.42791" lon="27.76281">
        <ele>348.393</ele>
      </trkpt>
      <trkpt lat="37.42795" lon="27.76294">
        <ele>352.266</ele>
      </trkpt>
      <trkpt lat="37.42803" lon="27.76301">
        <ele>355.062</ele>
      </trkpt>
      <trkpt lat="37.42799" lon="27.76308">
        <ele>356.438</ele>
      </trkpt>
      <trkpt lat="37.42804" lon="27.76319">
        <ele>359.199</ele>
      </trkpt>
      <trkpt lat="37.42808" lon="27.76325">
        <ele>360.605</ele>
      </trkpt>
      <trkpt lat="37.42809" lon="27.76332">
        <ele>361.806</ele>
      </trkpt>
      <trkpt lat="37.42806" lon="27.76341">
        <ele>363.039</ele>
      </trkpt>
      <trkpt lat="37.42808" lon="27.76354">
        <ele>365.143</ele>
      </trkpt>
      <trkpt lat="37.42809" lon="27.76355">
        <ele>365.35</ele>
      </trkpt>
      <trkpt lat="37.42804" lon="27.76367">
        <ele>367.251</ele>
      </trkpt>
      <trkpt lat="37.428" lon="27.76375">
        <ele>368.737</ele>
      </trkpt>
      <trkpt lat="37.42798" lon="27.76383">
        <ele>370.441</ele>
      </trkpt>
      <trkpt lat="37.42797" lon="27.76387">
        <ele>371.221</ele>
      </trkpt>
      <trkpt lat="37.42786" lon="27.76385">
        <ele>370.482</ele>
      </trkpt>
      <trkpt lat="37.42785" lon="27.76385">
        <ele>370.335</ele>
      </trkpt>
      <trkpt lat="37.42783" lon="27.76383">
        <ele>369.892</ele>
      </trkpt>
      <trkpt lat="37.42783" lon="27.7639">
        <ele>371.389</ele>
      </trkpt>
      <trkpt lat="37.42777" lon="27.76402">
        <ele>373.092</ele>
      </trkpt>
      <trkpt lat="37.42775" lon="27.76405">
        <ele>373.432</ele>
      </trkpt>
      <trkpt lat="37.42775" lon="27.76405">
        <ele>373.324</ele>
      </trkpt>
      <trkpt lat="37.42773" lon="27.76412">
        <ele>374.249</ele>
      </trkpt>
      <trkpt lat="37.42774" lon="27.7642">
        <ele>375.57</ele>
      </trkpt>
      <trkpt lat="37.42774" lon="27.76428">
        <ele>376.074</ele>
      </trkpt>
      <trkpt lat="37.42781" lon="27.7643">
        <ele>377.321</ele>
      </trkpt>
      <trkpt lat="37.42791" lon="27.76433">
        <ele>378.835</ele>
      </trkpt>
      <trkpt lat="37.42799" lon="27.76441">
        <ele>380.709</ele>
      </trkpt>
      <trkpt lat="37.428" lon="27.76442">
        <ele>380.906</ele>
      </trkpt>
      <trkpt lat="37.428" lon="27.76451">
        <ele>382.004</ele>
      </trkpt>
      <trkpt lat="37.428" lon="27.76459">
        <ele>383.086</ele>
      </trkpt>
      <trkpt lat="37.42802" lon="27.76464">
        <ele>384.048</ele>
      </trkpt>
      <trkpt lat="37.42804" lon="27.76469">
        <ele>385.059</ele>
      </trkpt>
      <trkpt lat="37.42804" lon="27.76469">
        <ele>385.291</ele>
      </trkpt>
      <trkpt lat="37.42806" lon="27.76476">
        <ele>386.467</ele>
      </trkpt>
      <trkpt lat="37.42809" lon="27.76484">
        <ele>387.969</ele>
      </trkpt>
      <trkpt lat="37.42809" lon="27.76486">
        <ele>388.267</ele>
      </trkpt>
      <trkpt lat="37.42812" lon="27.76491">
        <ele>389.63</ele>
      </trkpt>
      <trkpt lat="37.42816" lon="27.76505">
        <ele>392.906</ele>
      </trkpt>
      <trkpt lat="37.42811" lon="27.76518">
        <ele>393.541</ele>
      </trkpt>
      <trkpt lat="37.42801" lon="27.76539">
        <ele>393.626</ele>
      </trkpt>
      <trkpt lat="37.42798" lon="27.76545">
        <ele>393.645</ele>
      </trkpt>
      <trkpt lat="37.42783" lon="27.76549">
        <ele>390.722</ele>
      </trkpt>
      <trkpt lat="37.42776" lon="27.7656">
        <ele>390.132</ele>
      </trkpt>
      <trkpt lat="37.42778" lon="27.76564">
        <ele>390.692</ele>
      </trkpt>
      <trkpt lat="37.42777" lon="27.76565">
        <ele>390.614</ele>
      </trkpt>
      <trkpt lat="37.42778" lon="27.76569">
        <ele>391.08</ele>
      </trkpt>
      <trkpt lat="37.42782" lon="27.76582">
        <ele>393.096</ele>
      </trkpt>
      <trkpt lat="37.42788" lon="27.76587">
        <ele>395.08</ele>
      </trkpt>
      <trkpt lat="37.42785" lon="27.76589">
        <ele>394.713</ele>
      </trkpt>
      <trkpt lat="37.42776" lon="27.76607">
        <ele>396.176</ele>
      </trkpt>
      <trkpt lat="37.42772" lon="27.76609">
        <ele>396.486</ele>
      </trkpt>
      <trkpt lat="37.42769" lon="27.76612">
        <ele>396.785</ele>
      </trkpt>
      <trkpt lat="37.42769" lon="27.76612">
        <ele>396.785</ele>
      </trkpt>
      <trkpt lat="37.42775" lon="27.76613">
        <ele>397.396</ele>
      </trkpt>
      <trkpt lat="37.42779" lon="27.7662">
        <ele>399.388</ele>
      </trkpt>
      <trkpt lat="37.42783" lon="27.76623">
        <ele>400.765</ele>
      </trkpt>
      <trkpt lat="37.42793" lon="27.76631">
        <ele>404.355</ele>
      </trkpt>
      <trkpt lat="37.42793" lon="27.76632">
        <ele>404.616</ele>
      </trkpt>
      <trkpt lat="37.42794" lon="27.76631">
        <ele>404.49</ele>
      </trkpt>
      <trkpt lat="37.42797" lon="27.76632">
        <ele>405.211</ele>
      </trkpt>
      <trkpt lat="37.4281" lon="27.76636">
        <ele>408.491</ele>
      </trkpt>
      <trkpt lat="37.4282" lon="27.76644">
        <ele>412.73</ele>
      </trkpt>
      <trkpt lat="37.4282" lon="27.76648">
        <ele>413.447</ele>
      </trkpt>
      <trkpt lat="37.42821" lon="27.76649">
        <ele>413.828</ele>
      </trkpt>
      <trkpt lat="37.42821" lon="27.76652">
        <ele>414.331</ele>
      </trkpt>
      <trkpt lat="37.42818" lon="27.76655">
        <ele>414.194</ele>
      </trkpt>
      <trkpt lat="37.42809" lon="27.76659">
        <ele>412.996</ele>
      </trkpt>
      <trkpt lat="37.42804" lon="27.76657">
        <ele>411.731</ele>
      </trkpt>
      <trkpt lat="37.42798" lon="27.7666">
        <ele>411.716</ele>
      </trkpt>
      <trkpt lat="37.42796" lon="27.76668">
        <ele>413.159</ele>
      </trkpt>
      <trkpt lat="37.42797" lon="27.7667">
        <ele>413.628</ele>
      </trkpt>
      <trkpt lat="37.428" lon="27.76674">
        <ele>414.956</ele>
      </trkpt>
      <trkpt lat="37.42805" lon="27.76679">
        <ele>416.516</ele>
      </trkpt>
      <trkpt lat="37.42815" lon="27.76682">
        <ele>419.531</ele>
      </trkpt>
      <trkpt lat="37.4282" lon="27.76685">
        <ele>421.327</ele>
      </trkpt>
      <trkpt lat="37.42828" lon="27.7669">
        <ele>424.624</ele>
      </trkpt>
      <trkpt lat="37.42829" lon="27.7669">
        <ele>424.931</ele>
      </trkpt>
      <trkpt lat="37.42832" lon="27.76691">
        <ele>425.74</ele>
      </trkpt>
      <trkpt lat="37.42823" lon="27.76699">
        <ele>425.366</ele>
      </trkpt>
      <trkpt lat="37.42823" lon="27.767">
        <ele>425.456</ele>
      </trkpt>
      <trkpt lat="37.42819" lon="27.76706">
        <ele>426.036</ele>
      </trkpt>
      <trkpt lat="37.42819" lon="27.76706">
        <ele>425.972</ele>
      </trkpt>
      <trkpt lat="37.42819" lon="27.76706">
        <ele>425.951</ele>
      </trkpt>
      <trkpt lat="37.42817" lon="27.76717">
        <ele>427.696</ele>
      </trkpt>
      <trkpt lat="37.42812" lon="27.7673">
        <ele>429.395</ele>
      </trkpt>
      <trkpt lat="37.42809" lon="27.76743">
        <ele>431.564</ele>
      </trkpt>
      <trkpt lat="37.42811" lon="27.76758">
        <ele>435.529</ele>
      </trkpt>
      <trkpt lat="37.4281" lon="27.76775">
        <ele>439.097</ele>
      </trkpt>
      <trkpt lat="37.42813" lon="27.76787">
        <ele>441.532</ele>
      </trkpt>
      <trkpt lat="37.42813" lon="27.76797">
        <ele>442.945</ele>
      </trkpt>
      <trkpt lat="37.42811" lon="27.76808">
        <ele>444.278</ele>
      </trkpt>
      <trkpt lat="37.4281" lon="27.76829">
        <ele>446.694</ele>
      </trkpt>
      <trkpt lat="37.42811" lon="27.76835">
        <ele>447.534</ele>
      </trkpt>
      <trkpt lat="37.42814" lon="27.7684">
        <ele>448.606</ele>
      </trkpt>
      <trkpt lat="37.42817" lon="27.7684">
        <ele>449.262</ele>
      </trkpt>
      <trkpt lat="37.42817" lon="27.76841">
        <ele>449.45</ele>
      </trkpt>
      <trkpt lat="37.42813" lon="27.76851">
        <ele>449.19</ele>
      </trkpt>
      <trkpt lat="37.42811" lon="27.76865">
        <ele>449.61</ele>
      </trkpt>
      <trkpt lat="37.42813" lon="27.76866">
        <ele>449.93</ele>
      </trkpt>
      <trkpt lat="37.42806" lon="27.76874">
        <ele>448.496</ele>
      </trkpt>
      <trkpt lat="37.428" lon="27.76882">
        <ele>448.693</ele>
      </trkpt>
      <trkpt lat="37.42798" lon="27.76892">
        <ele>448.964</ele>
      </trkpt>
      <trkpt lat="37.42802" lon="27.76904">
        <ele>448.928</ele>
      </trkpt>
      <trkpt lat="37.428" lon="27.76911">
        <ele>448.823</ele>
      </trkpt>
      <trkpt lat="37.42798" lon="27.76921">
        <ele>448.367</ele>
      </trkpt>
      <trkpt lat="37.42796" lon="27.76938">
        <ele>446.627</ele>
      </trkpt>
      <trkpt lat="37.42796" lon="27.76947">
        <ele>445.637</ele>
      </trkpt>
      <trkpt lat="37.42798" lon="27.76948">
        <ele>445.771</ele>
      </trkpt>
      <trkpt lat="37.428" lon="27.76951">
        <ele>445.598</ele>
      </trkpt>
      <trkpt lat="37.42801" lon="27.76958">
        <ele>444.905</ele>
      </trkpt>
      <trkpt lat="37.42794" lon="27.76964">
        <ele>443.254</ele>
      </trkpt>
      <trkpt lat="37.4279" lon="27.76969">
        <ele>442.275</ele>
      </trkpt>
      <trkpt lat="37.42789" lon="27.76974">
        <ele>441.316</ele>
      </trkpt>
      <trkpt lat="37.42779" lon="27.76974">
        <ele>439.832</ele>
      </trkpt>
      <trkpt lat="37.4277" lon="27.76966">
        <ele>439.46</ele>
      </trkpt>
      <trkpt lat="37.42767" lon="27.76966">
        <ele>438.848</ele>
      </trkpt>
      <trkpt lat="37.4276" lon="27.76967">
        <ele>437.41</ele>
      </trkpt>
      <trkpt lat="37.42755" lon="27.76972">
        <ele>435.29</ele>
      </trkpt>
      <trkpt lat="37.42757" lon="27.76981">
        <ele>433.719</ele>
      </trkpt>
      <trkpt lat="37.4276" lon="27.76982">
        <ele>433.931</ele>
      </trkpt>
      <trkpt lat="37.42764" lon="27.76991">
        <ele>432.992</ele>
      </trkpt>
      <trkpt lat="37.42757" lon="27.77002">
        <ele>429.084</ele>
      </trkpt>
      <trkpt lat="37.42758" lon="27.77009">
        <ele>428.016</ele>
      </trkpt>
      <trkpt lat="37.4276" lon="27.77013">
        <ele>427.611</ele>
      </trkpt>
      <trkpt lat="37.42761" lon="27.77016">
        <ele>427.277</ele>
      </trkpt>
      <trkpt lat="37.42765" lon="27.77022">
        <ele>426.783</ele>
      </trkpt>
      <trkpt lat="37.42765" lon="27.77025">
        <ele>426.38</ele>
      </trkpt>
      <trkpt lat="37.42765" lon="27.77027">
        <ele>425.858</ele>
      </trkpt>
      <trkpt lat="37.42761" lon="27.77036">
        <ele>423.504</ele>
      </trkpt>
      <trkpt lat="37.42763" lon="27.7704">
        <ele>423.119</ele>
      </trkpt>
      <trkpt lat="37.42764" lon="27.77041">
        <ele>423.107</ele>
      </trkpt>
      <trkpt lat="37.42765" lon="27.77043">
        <ele>423.015</ele>
      </trkpt>
      <trkpt lat="37.42768" lon="27.77047">
        <ele>422.719</ele>
      </trkpt>
      <trkpt lat="37.42769" lon="27.7705">
        <ele>422.547</ele>
      </trkpt>
      <trkpt lat="37.42769" lon="27.77051">
        <ele>422.395</ele>
      </trkpt>
      <trkpt lat="37.42767" lon="27.77066">
        <ele>420.207</ele>
      </trkpt>
      <trkpt lat="37.42764" lon="27.77075">
        <ele>418.816</ele>
      </trkpt>
      <trkpt lat="37.42767" lon="27.77088">
        <ele>418.288</ele>
      </trkpt>
      <trkpt lat="37.42768" lon="27.77092">
        <ele>418.047</ele>
      </trkpt>
      <trkpt lat="37.42768" lon="27.77092">
        <ele>418.12</ele>
      </trkpt>
      <trkpt lat="37.42765" lon="27.77102">
        <ele>416.571</ele>
      </trkpt>
      <trkpt lat="37.42762" lon="27.77107">
        <ele>415.533</ele>
      </trkpt>
      <trkpt lat="37.42761" lon="27.77111">
        <ele>415.036</ele>
      </trkpt>
      <trkpt lat="37.42761" lon="27.7712">
        <ele>414.269</ele>
      </trkpt>
      <trkpt lat="37.42763" lon="27.77143">
        <ele>412.236</ele>
      </trkpt>
      <trkpt lat="37.42765" lon="27.77151">
        <ele>411.647</ele>
      </trkpt>
      <trkpt lat="37.42764" lon="27.77154">
        <ele>411.065</ele>
      </trkpt>
      <trkpt lat="37.42761" lon="27.77169">
        <ele>408.69</ele>
      </trkpt>
      <trkpt lat="37.42769" lon="27.77182">
        <ele>407.671</ele>
      </trkpt>
      <trkpt lat="37.42774" lon="27.77189">
        <ele>406.841</ele>
      </trkpt>
      <trkpt lat="37.42774" lon="27.7719">
        <ele>406.717</ele>
      </trkpt>
      <trkpt lat="37.42775" lon="27.77193">
        <ele>406.096</ele>
      </trkpt>
      <trkpt lat="37.42781" lon="27.77211">
        <ele>404.235</ele>
      </trkpt>
      <trkpt lat="37.42786" lon="27.77222">
        <ele>403.474</ele>
      </trkpt>
      <trkpt lat="37.42789" lon="27.77232">
        <ele>402.336</ele>
      </trkpt>
      <trkpt lat="37.4279" lon="27.77247">
        <ele>400.255</ele>
      </trkpt>
      <trkpt lat="37.4279" lon="27.77258">
        <ele>398.963</ele>
      </trkpt>
      <trkpt lat="37.4279" lon="27.77263">
        <ele>398.715</ele>
      </trkpt>
      <trkpt lat="37.42791" lon="27.77269">
        <ele>398.428</ele>
      </trkpt>
      <trkpt lat="37.42798" lon="27.77283">
        <ele>399.191</ele>
      </trkpt>
      <trkpt lat="37.42805" lon="27.77284">
        <ele>400.738</ele>
      </trkpt>
      <trkpt lat="37.42809" lon="27.77282">
        <ele>401.694</ele>
      </trkpt>
      <trkpt lat="37.42811" lon="27.77282">
        <ele>402.186</ele>
      </trkpt>
      <trkpt lat="37.42813" lon="27.77286">
        <ele>402.32</ele>
      </trkpt>
      <trkpt lat="37.42813" lon="27.77288">
        <ele>402.305</ele>
      </trkpt>
      <trkpt lat="37.42813" lon="27.77297">
        <ele>401.776</ele>
      </trkpt>
      <trkpt lat="37.42811" lon="27.77303">
        <ele>401.144</ele>
      </trkpt>
      <trkpt lat="37.42811" lon="27.77307">
        <ele>400.968</ele>
      </trkpt>
      <trkpt lat="37.42811" lon="27.77308">
        <ele>400.886</ele>
      </trkpt>
      <trkpt lat="37.4281" lon="27.77322">
        <ele>400.666</ele>
      </trkpt>
      <trkpt lat="37.42808" lon="27.77331">
        <ele>400.422</ele>
      </trkpt>
      <trkpt lat="37.42807" lon="27.77332">
        <ele>400.228</ele>
      </trkpt>
      <trkpt lat="37.42798" lon="27.77339">
        <ele>399.757</ele>
      </trkpt>
      <trkpt lat="37.42788" lon="27.77346">
        <ele>399.383</ele>
      </trkpt>
      <trkpt lat="37.42781" lon="27.77349">
        <ele>398.661</ele>
      </trkpt>
      <trkpt lat="37.4278" lon="27.7735">
        <ele>398.67</ele>
      </trkpt>
      <trkpt lat="37.42784" lon="27.7736">
        <ele>400.649</ele>
      </trkpt>
      <trkpt lat="37.42784" lon="27.77362">
        <ele>401.212</ele>
      </trkpt>
      <trkpt lat="37.42783" lon="27.77364">
        <ele>401.589</ele>
      </trkpt>
      <trkpt lat="37.42775" lon="27.77371">
        <ele>402.331</ele>
      </trkpt>
      <trkpt lat="37.42773" lon="27.77377">
        <ele>403.749</ele>
      </trkpt>
      <trkpt lat="37.42767" lon="27.77388">
        <ele>406.373</ele>
      </trkpt>
      <trkpt lat="37.42764" lon="27.77396">
        <ele>408.697</ele>
      </trkpt>
      <trkpt lat="37.42759" lon="27.77401">
        <ele>410.215</ele>
      </trkpt>
      <trkpt lat="37.42755" lon="27.77411">
        <ele>412.886</ele>
      </trkpt>
      <trkpt lat="37.42753" lon="27.77415">
        <ele>413.868</ele>
      </trkpt>
      <trkpt lat="37.42749" lon="27.77419">
        <ele>414.422</ele>
      </trkpt>
      <trkpt lat="37.42751" lon="27.77421">
        <ele>415.062</ele>
      </trkpt>
      <trkpt lat="37.42757" lon="27.77424">
        <ele>416.371</ele>
      </trkpt>
      <trkpt lat="37.42757" lon="27.77425">
        <ele>416.743</ele>
      </trkpt>
      <trkpt lat="37.42755" lon="27.77432">
        <ele>418.058</ele>
      </trkpt>
      <trkpt lat="37.42754" lon="27.77444">
        <ele>420.536</ele>
      </trkpt>
      <trkpt lat="37.4275" lon="27.77455">
        <ele>421.714</ele>
      </trkpt>
      <trkpt lat="37.42746" lon="27.77469">
        <ele>423.17</ele>
      </trkpt>
      <trkpt lat="37.42745" lon="27.77472">
        <ele>423.29</ele>
      </trkpt>
      <trkpt lat="37.42743" lon="27.77478">
        <ele>423.832</ele>
      </trkpt>
      <trkpt lat="37.42743" lon="27.77483">
        <ele>424.543</ele>
      </trkpt>
      <trkpt lat="37.42743" lon="27.77497">
        <ele>426.902</ele>
      </trkpt>
      <trkpt lat="37.42744" lon="27.77512">
        <ele>429.265</ele>
      </trkpt>
      <trkpt lat="37.42746" lon="27.77515">
        <ele>429.996</ele>
      </trkpt>
      <trkpt lat="37.42744" lon="27.77521">
        <ele>430.213</ele>
      </trkpt>
      <trkpt lat="37.42746" lon="27.77535">
        <ele>431.848</ele>
      </trkpt>
      <trkpt lat="37.42746" lon="27.7754">
        <ele>432.122</ele>
      </trkpt>
      <trkpt lat="37.42749" lon="27.77547">
        <ele>433.32</ele>
      </trkpt>
      <trkpt lat="37.42758" lon="27.77553">
        <ele>436.118</ele>
      </trkpt>
      <trkpt lat="37.42765" lon="27.77555">
        <ele>438.177</ele>
      </trkpt>
      <trkpt lat="37.42763" lon="27.77558">
        <ele>437.854</ele>
      </trkpt>
      <trkpt lat="37.42759" lon="27.77571">
        <ele>436.626</ele>
      </trkpt>
      <trkpt lat="37.42761" lon="27.77578">
        <ele>437.399</ele>
      </trkpt>
      <trkpt lat="37.42762" lon="27.77579">
        <ele>437.687</ele>
      </trkpt>
      <trkpt lat="37.42765" lon="27.77595">
        <ele>438.558</ele>
      </trkpt>
      <trkpt lat="37.42761" lon="27.77611">
        <ele>436.811</ele>
      </trkpt>
      <trkpt lat="37.4276" lon="27.7763">
        <ele>436.447</ele>
      </trkpt>
      <trkpt lat="37.42769" lon="27.77657">
        <ele>438.56</ele>
      </trkpt>
      <trkpt lat="37.42774" lon="27.7767">
        <ele>439.739</ele>
      </trkpt>
      <trkpt lat="37.42778" lon="27.77681">
        <ele>439.343</ele>
      </trkpt>
      <trkpt lat="37.42781" lon="27.77699">
        <ele>438.391</ele>
      </trkpt>
      <trkpt lat="37.4278" lon="27.77715">
        <ele>436.221</ele>
      </trkpt>
      <trkpt lat="37.42779" lon="27.7774">
        <ele>435.438</ele>
      </trkpt>
      <trkpt lat="37.42779" lon="27.77755">
        <ele>435.514</ele>
      </trkpt>
      <trkpt lat="37.42778" lon="27.77766">
        <ele>435.724</ele>
      </trkpt>
      <trkpt lat="37.42779" lon="27.77789">
        <ele>436.251</ele>
      </trkpt>
      <trkpt lat="37.42779" lon="27.77797">
        <ele>436.314</ele>
      </trkpt>
      <trkpt lat="37.42778" lon="27.77807">
        <ele>436.165</ele>
      </trkpt>
      <trkpt lat="37.42776" lon="27.77807">
        <ele>435.493</ele>
      </trkpt>
      <trkpt lat="37.42769" lon="27.77798">
        <ele>433.136</ele>
      </trkpt>
      <trkpt lat="37.42762" lon="27.778">
        <ele>430.948</ele>
      </trkpt>
      <trkpt lat="37.42748" lon="27.77797">
        <ele>426.803</ele>
      </trkpt>
      <trkpt lat="37.42743" lon="27.77797">
        <ele>425.886</ele>
      </trkpt>
      <trkpt lat="37.42741" lon="27.77797">
        <ele>425.496</ele>
      </trkpt>
      <trkpt lat="37.42733" lon="27.77794">
        <ele>423.914</ele>
      </trkpt>
      <trkpt lat="37.42728" lon="27.77797">
        <ele>422.775</ele>
      </trkpt>
      <trkpt lat="37.42723" lon="27.77797">
        <ele>421.747</ele>
      </trkpt>
      <trkpt lat="37.42718" lon="27.77794">
        <ele>420.995</ele>
      </trkpt>
      <trkpt lat="37.42709" lon="27.77789">
        <ele>419.717</ele>
      </trkpt>
      <trkpt lat="37.42709" lon="27.77788">
        <ele>419.677</ele>
      </trkpt>
      <trkpt lat="37.4271" lon="27.77788">
        <ele>419.811</ele>
      </trkpt>
      <trkpt lat="37.42702" lon="27.7778">
        <ele>418.272</ele>
      </trkpt>
      <trkpt lat="37.427" lon="27.77781">
        <ele>417.918</ele>
      </trkpt>
      <trkpt lat="37.427" lon="27.77782">
        <ele>418.042</ele>
      </trkpt>
      <trkpt lat="37.42693" lon="27.77776">
        <ele>416.93</ele>
      </trkpt>
      <trkpt lat="37.42682" lon="27.77778">
        <ele>415.676</ele>
      </trkpt>
      <trkpt lat="37.42681" lon="27.7778">
        <ele>415.805</ele>
      </trkpt>
      <trkpt lat="37.42681" lon="27.77782">
        <ele>415.998</ele>
      </trkpt>
      <trkpt lat="37.42678" lon="27.77785">
        <ele>416.084</ele>
      </trkpt>
      <trkpt lat="37.4267" lon="27.77783">
        <ele>415.093</ele>
      </trkpt>
      <trkpt lat="37.42657" lon="27.77781">
        <ele>414.443</ele>
      </trkpt>
      <trkpt lat="37.42646" lon="27.77779">
        <ele>414.089</ele>
      </trkpt>
      <trkpt lat="37.42642" lon="27.7778">
        <ele>414.218</ele>
      </trkpt>
      <trkpt lat="37.42634" lon="27.77776">
        <ele>413.981</ele>
      </trkpt>
      <trkpt lat="37.4263" lon="27.77773">
        <ele>413.932</ele>
      </trkpt>
      <trkpt lat="37.42628" lon="27.77768">
        <ele>413.577</ele>
      </trkpt>
      <trkpt lat="37.42625" lon="27.77765">
        <ele>413.548</ele>
      </trkpt>
      <trkpt lat="37.42619" lon="27.77768">
        <ele>414.159</ele>
      </trkpt>
      <trkpt lat="37.42613" lon="27.77777">
        <ele>414.869</ele>
      </trkpt>
      <trkpt lat="37.42603" lon="27.77786">
        <ele>417.28</ele>
      </trkpt>
      <trkpt lat="37.42595" lon="27.77791">
        <ele>419.061</ele>
      </trkpt>
      <trkpt lat="37.42592" lon="27.77797">
        <ele>420.083</ele>
      </trkpt>
      <trkpt lat="37.42584" lon="27.77805">
        <ele>421.842</ele>
      </trkpt>
      <trkpt lat="37.42583" lon="27.77804">
        <ele>422.09</ele>
      </trkpt>
      <trkpt lat="37.42579" lon="27.77802">
        <ele>423.3</ele>
      </trkpt>
      <trkpt lat="37.42573" lon="27.778">
        <ele>425.144</ele>
      </trkpt>
      <trkpt lat="37.42567" lon="27.77793">
        <ele>427.333</ele>
      </trkpt>
      <trkpt lat="37.42562" lon="27.77795">
        <ele>429.236</ele>
      </trkpt>
      <trkpt lat="37.42557" lon="27.77799">
        <ele>430.943</ele>
      </trkpt>
      <trkpt lat="37.42556" lon="27.77798">
        <ele>430.971</ele>
      </trkpt>
      <trkpt lat="37.42553" lon="27.77791">
        <ele>431.951</ele>
      </trkpt>
      <trkpt lat="37.42551" lon="27.7778">
        <ele>432.694</ele>
      </trkpt>
      <trkpt lat="37.4255" lon="27.77777">
        <ele>433.107</ele>
      </trkpt>
      <trkpt lat="37.42546" lon="27.77772">
        <ele>433.935</ele>
      </trkpt>
      <trkpt lat="37.42539" lon="27.77771">
        <ele>435.238</ele>
      </trkpt>
      <trkpt lat="37.42524" lon="27.77775">
        <ele>436.964</ele>
      </trkpt>
      <trkpt lat="37.42508" lon="27.77773">
        <ele>436.732</ele>
      </trkpt>
      <trkpt lat="37.42505" lon="27.77771">
        <ele>436.57</ele>
      </trkpt>
      <trkpt lat="37.42498" lon="27.77769">
        <ele>436.332</ele>
      </trkpt>
      <trkpt lat="37.4249" lon="27.77771">
        <ele>436.329</ele>
      </trkpt>
      <trkpt lat="37.42476" lon="27.77779">
        <ele>437</ele>
      </trkpt>
      <trkpt lat="37.4246" lon="27.77781">
        <ele>437.054</ele>
      </trkpt>
      <trkpt lat="37.42444" lon="27.77779">
        <ele>437.153</ele>
      </trkpt>
      <trkpt lat="37.4243" lon="27.77768">
        <ele>437.688</ele>
      </trkpt>
      <trkpt lat="37.42415" lon="27.77758">
        <ele>437.769</ele>
      </trkpt>
      <trkpt lat="37.42405" lon="27.77745">
        <ele>437.305</ele>
      </trkpt>
      <trkpt lat="37.42393" lon="27.77736">
        <ele>437.306</ele>
      </trkpt>
      <trkpt lat="37.42381" lon="27.77729">
        <ele>436.743</ele>
      </trkpt>
      <trkpt lat="37.42374" lon="27.77724">
        <ele>435.968</ele>
      </trkpt>
      <trkpt lat="37.42375" lon="27.77725">
        <ele>436.283</ele>
      </trkpt>
      <trkpt lat="37.42371" lon="27.77721">
        <ele>435.527</ele>
      </trkpt>
      <trkpt lat="37.42359" lon="27.77721">
        <ele>436.583</ele>
      </trkpt>
      <trkpt lat="37.42351" lon="27.77728">
        <ele>438.366</ele>
      </trkpt>
      <trkpt lat="37.42339" lon="27.77732">
        <ele>439.534</ele>
      </trkpt>
      <trkpt lat="37.42337" lon="27.77732">
        <ele>439.51</ele>
      </trkpt>
      <trkpt lat="37.42328" lon="27.77739">
        <ele>441.829</ele>
      </trkpt>
      <trkpt lat="37.42326" lon="27.7774">
        <ele>442.312</ele>
      </trkpt>
      <trkpt lat="37.42326" lon="27.77739">
        <ele>442.264</ele>
      </trkpt>
      <trkpt lat="37.42321" lon="27.77733">
        <ele>441.365</ele>
      </trkpt>
      <trkpt lat="37.42312" lon="27.77725">
        <ele>440.752</ele>
      </trkpt>
      <trkpt lat="37.42312" lon="27.77725">
        <ele>440.709</ele>
      </trkpt>
      <trkpt lat="37.42303" lon="27.77723">
        <ele>441.641</ele>
      </trkpt>
      <trkpt lat="37.42295" lon="27.77723">
        <ele>442.743</ele>
      </trkpt>
      <trkpt lat="37.4229" lon="27.77725">
        <ele>443.744</ele>
      </trkpt>
      <trkpt lat="37.42279" lon="27.77725">
        <ele>445.267</ele>
      </trkpt>
      <trkpt lat="37.42267" lon="27.77722">
        <ele>446.539</ele>
      </trkpt>
      <trkpt lat="37.42263" lon="27.77714">
        <ele>446.224</ele>
      </trkpt>
      <trkpt lat="37.42263" lon="27.77714">
        <ele>446.197</ele>
      </trkpt>
      <trkpt lat="37.42259" lon="27.77711">
        <ele>446.517</ele>
      </trkpt>
      <trkpt lat="37.42254" lon="27.77709">
        <ele>447.01</ele>
      </trkpt>
      <trkpt lat="37.42251" lon="27.77707">
        <ele>447.171</ele>
      </trkpt>
      <trkpt lat="37.42244" lon="27.77701">
        <ele>446.913</ele>
      </trkpt>
      <trkpt lat="37.42243" lon="27.77701">
        <ele>446.927</ele>
      </trkpt>
      <trkpt lat="37.42237" lon="27.77702">
        <ele>447.249</ele>
      </trkpt>
      <trkpt lat="37.42235" lon="27.77701">
        <ele>447.062</ele>
      </trkpt>
      <trkpt lat="37.4223" lon="27.77701">
        <ele>447.116</ele>
      </trkpt>
      <trkpt lat="37.4222" lon="27.77696">
        <ele>446.404</ele>
      </trkpt>
      <trkpt lat="37.42207" lon="27.77697">
        <ele>446.424</ele>
      </trkpt>
      <trkpt lat="37.42203" lon="27.777">
        <ele>446.848</ele>
      </trkpt>
      <trkpt lat="37.42194" lon="27.77694">
        <ele>445.989</ele>
      </trkpt>
      <trkpt lat="37.42191" lon="27.77694">
        <ele>445.852</ele>
      </trkpt>
      <trkpt lat="37.4218" lon="27.77687">
        <ele>444.697</ele>
      </trkpt>
      <trkpt lat="37.42174" lon="27.77685">
        <ele>444.281</ele>
      </trkpt>
      <trkpt lat="37.4217" lon="27.77682">
        <ele>443.785</ele>
      </trkpt>
      <trkpt lat="37.42159" lon="27.77679">
        <ele>442.465</ele>
      </trkpt>
      <trkpt lat="37.42152" lon="27.77681">
        <ele>441.957</ele>
      </trkpt>
      <trkpt lat="37.42145" lon="27.7768">
        <ele>441.138</ele>
      </trkpt>
      <trkpt lat="37.4214" lon="27.77678">
        <ele>440.359</ele>
      </trkpt>
      <trkpt lat="37.42139" lon="27.77676">
        <ele>440.046</ele>
      </trkpt>
      <trkpt lat="37.42134" lon="27.77668">
        <ele>438.216</ele>
      </trkpt>
      <trkpt lat="37.42121" lon="27.7766">
        <ele>435.195</ele>
      </trkpt>
      <trkpt lat="37.42116" lon="27.77656">
        <ele>434.17</ele>
      </trkpt>
      <trkpt lat="37.42103" lon="27.77653">
        <ele>431.931</ele>
      </trkpt>
      <trkpt lat="37.42094" lon="27.77648">
        <ele>430.624</ele>
      </trkpt>
      <trkpt lat="37.42083" lon="27.77645">
        <ele>428.797</ele>
      </trkpt>
      <trkpt lat="37.42069" lon="27.77641">
        <ele>426.407</ele>
      </trkpt>
      <trkpt lat="37.42061" lon="27.77642">
        <ele>424.937</ele>
      </trkpt>
      <trkpt lat="37.42054" lon="27.7764">
        <ele>423.674</ele>
      </trkpt>
      <trkpt lat="37.42052" lon="27.7764">
        <ele>423.424</ele>
      </trkpt>
      <trkpt lat="37.42042" lon="27.77635">
        <ele>421.397</ele>
      </trkpt>
      <trkpt lat="37.42034" lon="27.77633">
        <ele>419.916</ele>
      </trkpt>
      <trkpt lat="37.42027" lon="27.77627">
        <ele>418.358</ele>
      </trkpt>
      <trkpt lat="37.42024" lon="27.77626">
        <ele>417.616</ele>
      </trkpt>
      <trkpt lat="37.42013" lon="27.77625">
        <ele>415.384</ele>
      </trkpt>
      <trkpt lat="37.42007" lon="27.77625">
        <ele>413.915</ele>
      </trkpt>
      <trkpt lat="37.42001" lon="27.77622">
        <ele>412.528</ele>
      </trkpt>
      <trkpt lat="37.41992" lon="27.77618">
        <ele>409.978</ele>
      </trkpt>
      <trkpt lat="37.41979" lon="27.77608">
        <ele>405.649</ele>
      </trkpt>
      <trkpt lat="37.41975" lon="27.77611">
        <ele>404.792</ele>
      </trkpt>
      <trkpt lat="37.41967" lon="27.77606">
        <ele>402.016</ele>
      </trkpt>
      <trkpt lat="37.41962" lon="27.776">
        <ele>400.514</ele>
      </trkpt>
      <trkpt lat="37.41955" lon="27.77589">
        <ele>397.894</ele>
      </trkpt>
      <trkpt lat="37.41946" lon="27.77584">
        <ele>395.435</ele>
      </trkpt>
      <trkpt lat="37.41943" lon="27.7758">
        <ele>394.681</ele>
      </trkpt>
      <trkpt lat="37.41934" lon="27.77579">
        <ele>393.133</ele>
      </trkpt>
      <trkpt lat="37.41926" lon="27.77579">
        <ele>391.605</ele>
      </trkpt>
      <trkpt lat="37.41917" lon="27.77575">
        <ele>389.82</ele>
      </trkpt>
      <trkpt lat="37.4191" lon="27.77571">
        <ele>388.722</ele>
      </trkpt>
      <trkpt lat="37.41898" lon="27.77569">
        <ele>387.155</ele>
      </trkpt>
      <trkpt lat="37.4189" lon="27.77568">
        <ele>386.044</ele>
      </trkpt>
      <trkpt lat="37.41881" lon="27.77562">
        <ele>384.68</ele>
      </trkpt>
      <trkpt lat="37.41873" lon="27.77559">
        <ele>383.621</ele>
      </trkpt>
      <trkpt lat="37.41862" lon="27.77557">
        <ele>382.335</ele>
      </trkpt>
      <trkpt lat="37.41858" lon="27.77555">
        <ele>381.731</ele>
      </trkpt>
      <trkpt lat="37.41845" lon="27.77552">
        <ele>380.616</ele>
      </trkpt>
      <trkpt lat="37.41837" lon="27.7755">
        <ele>379.756</ele>
      </trkpt>
      <trkpt lat="37.41827" lon="27.77544">
        <ele>378.595</ele>
      </trkpt>
      <trkpt lat="37.41816" lon="27.77539">
        <ele>377.429</ele>
      </trkpt>
      <trkpt lat="37.41813" lon="27.77535">
        <ele>376.682</ele>
      </trkpt>
      <trkpt lat="37.41812" lon="27.77535">
        <ele>376.566</ele>
      </trkpt>
      <trkpt lat="37.4181" lon="27.77534">
        <ele>376.412</ele>
      </trkpt>
      <trkpt lat="37.41808" lon="27.77527">
        <ele>375.103</ele>
      </trkpt>
      <trkpt lat="37.41802" lon="27.77522">
        <ele>373.723</ele>
      </trkpt>
      <trkpt lat="37.41798" lon="27.77514">
        <ele>372.051</ele>
      </trkpt>
      <trkpt lat="37.41793" lon="27.77511">
        <ele>371.007</ele>
      </trkpt>
      <trkpt lat="37.41786" lon="27.77511">
        <ele>370.507</ele>
      </trkpt>
      <trkpt lat="37.41783" lon="27.77511">
        <ele>370.291</ele>
      </trkpt>
      <trkpt lat="37.41778" lon="27.77506">
        <ele>369.063</ele>
      </trkpt>
      <trkpt lat="37.41771" lon="27.77497">
        <ele>367.667</ele>
      </trkpt>
      <trkpt lat="37.41766" lon="27.77483">
        <ele>366.203</ele>
      </trkpt>
      <trkpt lat="37.41766" lon="27.77483">
        <ele>366.11</ele>
      </trkpt>
      <trkpt lat="37.41759" lon="27.77477">
        <ele>365.51</ele>
      </trkpt>
      <trkpt lat="37.41748" lon="27.77473">
        <ele>365.384</ele>
      </trkpt>
      <trkpt lat="37.41745" lon="27.77472">
        <ele>365.682</ele>
      </trkpt>
      <trkpt lat="37.41735" lon="27.77471">
        <ele>367.149</ele>
      </trkpt>
      <trkpt lat="37.41732" lon="27.77468">
        <ele>367.571</ele>
      </trkpt>
      <trkpt lat="37.4173" lon="27.77463">
        <ele>367.895</ele>
      </trkpt>
      <trkpt lat="37.41729" lon="27.77461">
        <ele>367.999</ele>
      </trkpt>
      <trkpt lat="37.41725" lon="27.77445">
        <ele>368.555</ele>
      </trkpt>
      <trkpt lat="37.41725" lon="27.77444">
        <ele>368.623</ele>
      </trkpt>
      <trkpt lat="37.4172" lon="27.77446">
        <ele>369.235</ele>
      </trkpt>
      <trkpt lat="37.4172" lon="27.77448">
        <ele>369.292</ele>
      </trkpt>
      <trkpt lat="37.41719" lon="27.77451">
        <ele>369.408</ele>
      </trkpt>
      <trkpt lat="37.41716" lon="27.77452">
        <ele>369.846</ele>
      </trkpt>
      <trkpt lat="37.41701" lon="27.7746">
        <ele>372.144</ele>
      </trkpt>
      <trkpt lat="37.417" lon="27.77461">
        <ele>372.296</ele>
      </trkpt>
      <trkpt lat="37.41693" lon="27.77473">
        <ele>374.415</ele>
      </trkpt>
      <trkpt lat="37.41685" lon="27.77474">
        <ele>375.569</ele>
      </trkpt>
      <trkpt lat="37.41681" lon="27.77479">
        <ele>376.991</ele>
      </trkpt>
      <trkpt lat="37.41682" lon="27.7749">
        <ele>378.371</ele>
      </trkpt>
      <trkpt lat="37.41677" lon="27.77496">
        <ele>379.641</ele>
      </trkpt>
      <trkpt lat="37.41675" lon="27.77495">
        <ele>379.733</ele>
      </trkpt>
      <trkpt lat="37.4167" lon="27.77493">
        <ele>379.907</ele>
      </trkpt>
      <trkpt lat="37.41664" lon="27.77492">
        <ele>380.15</ele>
      </trkpt>
      <trkpt lat="37.41661" lon="27.77492">
        <ele>380.162</ele>
      </trkpt>
      <trkpt lat="37.41659" lon="27.77494">
        <ele>380.396</ele>
      </trkpt>
      <trkpt lat="37.41656" lon="27.77496">
        <ele>380.602</ele>
      </trkpt>
      <trkpt lat="37.41651" lon="27.77495">
        <ele>380.535</ele>
      </trkpt>
      <trkpt lat="37.41649" lon="27.77494">
        <ele>380.483</ele>
      </trkpt>
      <trkpt lat="37.41646" lon="27.77494">
        <ele>380.517</ele>
      </trkpt>
      <trkpt lat="37.41647" lon="27.77502">
        <ele>381.181</ele>
      </trkpt>
      <trkpt lat="37.41648" lon="27.77502">
        <ele>381.175</ele>
      </trkpt>
      <trkpt lat="37.41648" lon="27.77503">
        <ele>381.226</ele>
      </trkpt>
      <trkpt lat="37.41651" lon="27.77511">
        <ele>381.976</ele>
      </trkpt>
      <trkpt lat="37.41652" lon="27.77523">
        <ele>383.041</ele>
      </trkpt>
      <trkpt lat="37.41651" lon="27.77522">
        <ele>382.904</ele>
      </trkpt>
      <trkpt lat="37.4165" lon="27.77523">
        <ele>383.028</ele>
      </trkpt>
      <trkpt lat="37.4165" lon="27.77533">
        <ele>383.457</ele>
      </trkpt>
      <trkpt lat="37.41649" lon="27.77541">
        <ele>383.51</ele>
      </trkpt>
      <trkpt lat="37.4165" lon="27.77551">
        <ele>383.704</ele>
      </trkpt>
      <trkpt lat="37.41649" lon="27.77551">
        <ele>383.684</ele>
      </trkpt>
      <trkpt lat="37.41649" lon="27.77551">
        <ele>383.682</ele>
      </trkpt>
      <trkpt lat="37.41652" lon="27.77553">
        <ele>383.917</ele>
      </trkpt>
      <trkpt lat="37.41651" lon="27.77554">
        <ele>383.822</ele>
      </trkpt>
      <trkpt lat="37.41648" lon="27.77559">
        <ele>383.765</ele>
      </trkpt>
      <trkpt lat="37.41649" lon="27.77552">
        <ele>383.693</ele>
      </trkpt>
      <trkpt lat="37.4165" lon="27.77551">
        <ele>383.725</ele>
      </trkpt>
      <trkpt lat="37.41646" lon="27.77551">
        <ele>383.452</ele>
      </trkpt>
      <trkpt lat="37.41644" lon="27.77553">
        <ele>383.337</ele>
      </trkpt>
      <trkpt lat="37.41646" lon="27.77554">
        <ele>383.505</ele>
      </trkpt>
      <trkpt lat="37.41655" lon="27.77555">
        <ele>384.151</ele>
      </trkpt>
      <trkpt lat="37.41658" lon="27.77552">
        <ele>384.255</ele>
      </trkpt>
      <trkpt lat="37.41659" lon="27.77554">
        <ele>384.433</ele>
      </trkpt>
      <trkpt lat="37.41668" lon="27.77556">
        <ele>385</ele>
      </trkpt>
      <trkpt lat="37.4167" lon="27.77557">
        <ele>385.006</ele>
      </trkpt>
      <trkpt lat="37.41672" lon="27.77568">
        <ele>385.087</ele>
      </trkpt>
      <trkpt lat="37.41686" lon="27.77586">
        <ele>385.752</ele>
      </trkpt>
      <trkpt lat="37.41703" lon="27.77595">
        <ele>386.301</ele>
      </trkpt>
      <trkpt lat="37.41712" lon="27.77602">
        <ele>386.258</ele>
      </trkpt>
      <trkpt lat="37.41712" lon="27.77601">
        <ele>386.221</ele>
      </trkpt>
      <trkpt lat="37.41723" lon="27.77607">
        <ele>386.012</ele>
      </trkpt>
      <trkpt lat="37.41723" lon="27.77608">
        <ele>386.015</ele>
      </trkpt>
      <trkpt lat="37.4173" lon="27.77607">
        <ele>386.162</ele>
      </trkpt>
      <trkpt lat="37.41742" lon="27.77611">
        <ele>386.705</ele>
      </trkpt>
      <trkpt lat="37.41745" lon="27.77617">
        <ele>386.902</ele>
      </trkpt>
      <trkpt lat="37.41745" lon="27.77617">
        <ele>386.891</ele>
      </trkpt>
      <trkpt lat="37.41748" lon="27.77619">
        <ele>386.973</ele>
      </trkpt>
      <trkpt lat="37.41745" lon="27.77634">
        <ele>387.11</ele>
      </trkpt>
      <trkpt lat="37.41749" lon="27.77652">
        <ele>387.538</ele>
      </trkpt>
      <trkpt lat="37.41754" lon="27.77669">
        <ele>388.758</ele>
      </trkpt>
      <trkpt lat="37.41753" lon="27.77685">
        <ele>389.758</ele>
      </trkpt>
      <trkpt lat="37.41748" lon="27.77696">
        <ele>390.24</ele>
      </trkpt>
      <trkpt lat="37.41743" lon="27.7771">
        <ele>391.903</ele>
      </trkpt>
      <trkpt lat="37.41744" lon="27.77721">
        <ele>393.122</ele>
      </trkpt>
      <trkpt lat="37.41743" lon="27.77736">
        <ele>394.376</ele>
      </trkpt>
      <trkpt lat="37.41739" lon="27.7774">
        <ele>394.934</ele>
      </trkpt>
      <trkpt lat="37.4174" lon="27.77751">
        <ele>395.779</ele>
      </trkpt>
      <trkpt lat="37.41741" lon="27.77754">
        <ele>395.917</ele>
      </trkpt>
      <trkpt lat="37.41745" lon="27.77769">
        <ele>396.821</ele>
      </trkpt>
      <trkpt lat="37.41745" lon="27.77782">
        <ele>398.089</ele>
      </trkpt>
      <trkpt lat="37.4175" lon="27.77787">
        <ele>398.352</ele>
      </trkpt>
      <trkpt lat="37.41747" lon="27.77788">
        <ele>398.764</ele>
      </trkpt>
      <trkpt lat="37.41746" lon="27.7779">
        <ele>399.088</ele>
      </trkpt>
      <trkpt lat="37.41747" lon="27.77801">
        <ele>400.532</ele>
      </trkpt>
      <trkpt lat="37.41749" lon="27.77807">
        <ele>401.362</ele>
      </trkpt>
      <trkpt lat="37.41746" lon="27.77817">
        <ele>402.929</ele>
      </trkpt>
      <trkpt lat="37.41744" lon="27.7782">
        <ele>403.327</ele>
      </trkpt>
      <trkpt lat="37.41744" lon="27.77821">
        <ele>403.451</ele>
      </trkpt>
      <trkpt lat="37.41745" lon="27.77827">
        <ele>404.427</ele>
      </trkpt>
      <trkpt lat="37.4175" lon="27.77835">
        <ele>406.131</ele>
      </trkpt>
      <trkpt lat="37.41752" lon="27.77847">
        <ele>407.106</ele>
      </trkpt>
      <trkpt lat="37.41756" lon="27.77856">
        <ele>408.14</ele>
      </trkpt>
      <trkpt lat="37.41757" lon="27.77865">
        <ele>409.015</ele>
      </trkpt>
      <trkpt lat="37.41757" lon="27.77878">
        <ele>409.962</ele>
      </trkpt>
      <trkpt lat="37.4176" lon="27.77892">
        <ele>411.138</ele>
      </trkpt>
      <trkpt lat="37.41761" lon="27.77894">
        <ele>411.275</ele>
      </trkpt>
      <trkpt lat="37.41762" lon="27.77895">
        <ele>411.342</ele>
      </trkpt>
      <trkpt lat="37.41764" lon="27.77914">
        <ele>411.932</ele>
      </trkpt>
      <trkpt lat="37.41758" lon="27.77928">
        <ele>411.868</ele>
      </trkpt>
      <trkpt lat="37.41759" lon="27.77939">
        <ele>412.692</ele>
      </trkpt>
      <trkpt lat="37.41762" lon="27.77953">
        <ele>413.248</ele>
      </trkpt>
      <trkpt lat="37.4176" lon="27.77958">
        <ele>413.04</ele>
      </trkpt>
      <trkpt lat="37.41758" lon="27.77966">
        <ele>412.808</ele>
      </trkpt>
      <trkpt lat="37.41758" lon="27.77983">
        <ele>412.262</ele>
      </trkpt>
      <trkpt lat="37.41758" lon="27.77983">
        <ele>412.262</ele>
      </trkpt>
      <trkpt lat="37.41757" lon="27.77997">
        <ele>411.463</ele>
      </trkpt>
      <trkpt lat="37.41758" lon="27.78002">
        <ele>411.371</ele>
      </trkpt>
      <trkpt lat="37.41759" lon="27.78012">
        <ele>410.965</ele>
      </trkpt>
      <trkpt lat="37.41756" lon="27.78016">
        <ele>410.434</ele>
      </trkpt>
      <trkpt lat="37.41753" lon="27.78019">
        <ele>409.7</ele>
      </trkpt>
      <trkpt lat="37.41747" lon="27.7803">
        <ele>408.58</ele>
      </trkpt>
      <trkpt lat="37.4174" lon="27.78035">
        <ele>407.904</ele>
      </trkpt>
      <trkpt lat="37.41732" lon="27.78039">
        <ele>407.413</ele>
      </trkpt>
      <trkpt lat="37.41725" lon="27.78048">
        <ele>407.961</ele>
      </trkpt>
      <trkpt lat="37.41723" lon="27.78048">
        <ele>407.866</ele>
      </trkpt>
      <trkpt lat="37.41715" lon="27.78045">
        <ele>407.014</ele>
      </trkpt>
      <trkpt lat="37.41708" lon="27.78038">
        <ele>405.22</ele>
      </trkpt>
      <trkpt lat="37.41704" lon="27.78036">
        <ele>404.506</ele>
      </trkpt>
      <trkpt lat="37.41691" lon="27.78032">
        <ele>402.967</ele>
      </trkpt>
      <trkpt lat="37.41677" lon="27.78027">
        <ele>402.5</ele>
      </trkpt>
      <trkpt lat="37.41665" lon="27.78035">
        <ele>404.681</ele>
      </trkpt>
      <trkpt lat="37.41657" lon="27.78037">
        <ele>405.175</ele>
      </trkpt>
      <trkpt lat="37.41657" lon="27.78036">
        <ele>405.096</ele>
      </trkpt>
      <trkpt lat="37.41651" lon="27.78037">
        <ele>405.419</ele>
      </trkpt>
      <trkpt lat="37.41644" lon="27.78033">
        <ele>404.842</ele>
      </trkpt>
      <trkpt lat="37.41642" lon="27.78033">
        <ele>404.808</ele>
      </trkpt>
      <trkpt lat="37.41631" lon="27.7803">
        <ele>404.352</ele>
      </trkpt>
      <trkpt lat="37.4162" lon="27.78025">
        <ele>403.554</ele>
      </trkpt>
      <trkpt lat="37.41618" lon="27.78024">
        <ele>403.243</ele>
      </trkpt>
      <trkpt lat="37.41607" lon="27.78024">
        <ele>403.556</ele>
      </trkpt>
      <trkpt lat="37.41598" lon="27.78036">
        <ele>406.606</ele>
      </trkpt>
      <trkpt lat="37.41594" lon="27.78038">
        <ele>407.166</ele>
      </trkpt>
      <trkpt lat="37.4159" lon="27.78043">
        <ele>408.293</ele>
      </trkpt>
      <trkpt lat="37.41583" lon="27.78054">
        <ele>410.717</ele>
      </trkpt>
      <trkpt lat="37.41579" lon="27.78057">
        <ele>411.214</ele>
      </trkpt>
      <trkpt lat="37.41571" lon="27.78054">
        <ele>410.288</ele>
      </trkpt>
      <trkpt lat="37.4156" lon="27.78048">
        <ele>408.973</ele>
      </trkpt>
      <trkpt lat="37.41548" lon="27.78042">
        <ele>407.582</ele>
      </trkpt>
      <trkpt lat="37.41535" lon="27.78038">
        <ele>406.288</ele>
      </trkpt>
      <trkpt lat="37.41525" lon="27.78036">
        <ele>405.239</ele>
      </trkpt>
      <trkpt lat="37.41514" lon="27.78033">
        <ele>403.95</ele>
      </trkpt>
      <trkpt lat="37.41508" lon="27.7803">
        <ele>402.898</ele>
      </trkpt>
      <trkpt lat="37.415" lon="27.78029">
        <ele>402.06</ele>
      </trkpt>
      <trkpt lat="37.41492" lon="27.78028">
        <ele>400.895</ele>
      </trkpt>
      <trkpt lat="37.41483" lon="27.78035">
        <ele>401.05</ele>
      </trkpt>
      <trkpt lat="37.41472" lon="27.78037">
        <ele>400.322</ele>
      </trkpt>
      <trkpt lat="37.41467" lon="27.7804">
        <ele>400.488</ele>
      </trkpt>
      <trkpt lat="37.41465" lon="27.78041">
        <ele>400.672</ele>
      </trkpt>
      <trkpt lat="37.4146" lon="27.78044">
        <ele>400.826</ele>
      </trkpt>
      <trkpt lat="37.41448" lon="27.78048">
        <ele>400.73</ele>
      </trkpt>
      <trkpt lat="37.41443" lon="27.78046">
        <ele>399.873</ele>
      </trkpt>
      <trkpt lat="37.4144" lon="27.78045">
        <ele>399.43</ele>
      </trkpt>
      <trkpt lat="37.41428" lon="27.78044">
        <ele>398.925</ele>
      </trkpt>
      <trkpt lat="37.41411" lon="27.78042">
        <ele>397.798</ele>
      </trkpt>
      <trkpt lat="37.41406" lon="27.7804">
        <ele>396.624</ele>
      </trkpt>
      <trkpt lat="37.41403" lon="27.78037">
        <ele>395.155</ele>
      </trkpt>
      <trkpt lat="37.41388" lon="27.7803">
        <ele>390.811</ele>
      </trkpt>
      <trkpt lat="37.41382" lon="27.78026">
        <ele>389.727</ele>
      </trkpt>
      <trkpt lat="37.41381" lon="27.78026">
        <ele>389.692</ele>
      </trkpt>
      <trkpt lat="37.41369" lon="27.78025">
        <ele>389.943</ele>
      </trkpt>
      <trkpt lat="37.41363" lon="27.78027">
        <ele>390.579</ele>
      </trkpt>
      <trkpt lat="37.41359" lon="27.78026">
        <ele>390.647</ele>
      </trkpt>
      <trkpt lat="37.41351" lon="27.78039">
        <ele>394.774</ele>
      </trkpt>
      <trkpt lat="37.41347" lon="27.78038">
        <ele>394.48</ele>
      </trkpt>
      <trkpt lat="37.41345" lon="27.78036">
        <ele>393.915</ele>
      </trkpt>
      <trkpt lat="37.41341" lon="27.78035">
        <ele>393.482</ele>
      </trkpt>
      <trkpt lat="37.4133" lon="27.78042">
        <ele>395.006</ele>
      </trkpt>
      <trkpt lat="37.41323" lon="27.78046">
        <ele>395.77</ele>
      </trkpt>
      <trkpt lat="37.41316" lon="27.78054">
        <ele>397.126</ele>
      </trkpt>
      <trkpt lat="37.41314" lon="27.78055">
        <ele>397.183</ele>
      </trkpt>
      <trkpt lat="37.41304" lon="27.78054">
        <ele>396.842</ele>
      </trkpt>
      <trkpt lat="37.41292" lon="27.78046">
        <ele>396.944</ele>
      </trkpt>
      <trkpt lat="37.41286" lon="27.78048">
        <ele>398.151</ele>
      </trkpt>
      <trkpt lat="37.41274" lon="27.78047">
        <ele>399.72</ele>
      </trkpt>
      <trkpt lat="37.41271" lon="27.78045">
        <ele>399.646</ele>
      </trkpt>
      <trkpt lat="37.4126" lon="27.78036">
        <ele>399.229</ele>
      </trkpt>
      <trkpt lat="37.41254" lon="27.78034">
        <ele>399.773</ele>
      </trkpt>
      <trkpt lat="37.4125" lon="27.78028">
        <ele>399.07</ele>
      </trkpt>
      <trkpt lat="37.41246" lon="27.78024">
        <ele>398.572</ele>
      </trkpt>
      <trkpt lat="37.41229" lon="27.78018">
        <ele>398.263</ele>
      </trkpt>
      <trkpt lat="37.41224" lon="27.78018">
        <ele>398.468</ele>
      </trkpt>
      <trkpt lat="37.41214" lon="27.78016">
        <ele>397.545</ele>
      </trkpt>
      <trkpt lat="37.41204" lon="27.78015">
        <ele>396.568</ele>
      </trkpt>
      <trkpt lat="37.41196" lon="27.78014">
        <ele>395.596</ele>
      </trkpt>
      <trkpt lat="37.41196" lon="27.78015">
        <ele>395.823</ele>
      </trkpt>
      <trkpt lat="37.41187" lon="27.78027">
        <ele>395.881</ele>
      </trkpt>
      <trkpt lat="37.41186" lon="27.78035">
        <ele>396.841</ele>
      </trkpt>
      <trkpt lat="37.41184" lon="27.78043">
        <ele>397.87</ele>
      </trkpt>
      <trkpt lat="37.41186" lon="27.78051">
        <ele>399.405</ele>
      </trkpt>
      <trkpt lat="37.41189" lon="27.78064">
        <ele>402.032</ele>
      </trkpt>
      <trkpt lat="37.41192" lon="27.78073">
        <ele>403.857</ele>
      </trkpt>
      <trkpt lat="37.41195" lon="27.78086">
        <ele>406.481</ele>
      </trkpt>
      <trkpt lat="37.41195" lon="27.78088">
        <ele>406.743</ele>
      </trkpt>
      <trkpt lat="37.41191" lon="27.78102">
        <ele>408.657</ele>
      </trkpt>
      <trkpt lat="37.4119" lon="27.78108">
        <ele>409.485</ele>
      </trkpt>
      <trkpt lat="37.41185" lon="27.78114">
        <ele>410.321</ele>
      </trkpt>
      <trkpt lat="37.41182" lon="27.78115">
        <ele>410.428</ele>
      </trkpt>
      <trkpt lat="37.41173" lon="27.78113">
        <ele>410.201</ele>
      </trkpt>
      <trkpt lat="37.41165" lon="27.78114">
        <ele>410.379</ele>
      </trkpt>
      <trkpt lat="37.41155" lon="27.78115">
        <ele>410.854</ele>
      </trkpt>
      <trkpt lat="37.41158" lon="27.78115">
        <ele>410.788</ele>
      </trkpt>
      <trkpt lat="37.41152" lon="27.78114">
        <ele>410.908</ele>
      </trkpt>
      <trkpt lat="37.41143" lon="27.78121">
        <ele>412.203</ele>
      </trkpt>
      <trkpt lat="37.4114" lon="27.78129">
        <ele>413.467</ele>
      </trkpt>
      <trkpt lat="37.41131" lon="27.78137">
        <ele>414.987</ele>
      </trkpt>
      <trkpt lat="37.41127" lon="27.78139">
        <ele>415.412</ele>
      </trkpt>
      <trkpt lat="37.41116" lon="27.78142">
        <ele>416.673</ele>
      </trkpt>
      <trkpt lat="37.41114" lon="27.78142">
        <ele>416.714</ele>
      </trkpt>
      <trkpt lat="37.41108" lon="27.78138">
        <ele>416.138</ele>
      </trkpt>
      <trkpt lat="37.41099" lon="27.7815">
        <ele>420.458</ele>
      </trkpt>
      <trkpt lat="37.41095" lon="27.78146">
        <ele>419.631</ele>
      </trkpt>
      <trkpt lat="37.41095" lon="27.78145">
        <ele>419.266</ele>
      </trkpt>
      <trkpt lat="37.41095" lon="27.78143">
        <ele>418.581</ele>
      </trkpt>
      <trkpt lat="37.41086" lon="27.78144">
        <ele>419.668</ele>
      </trkpt>
      <trkpt lat="37.41085" lon="27.78145">
        <ele>419.904</ele>
      </trkpt>
      <trkpt lat="37.41076" lon="27.78152">
        <ele>423.663</ele>
      </trkpt>
      <trkpt lat="37.41075" lon="27.78152">
        <ele>423.92</ele>
      </trkpt>
      <trkpt lat="37.41066" lon="27.7816">
        <ele>427.987</ele>
      </trkpt>
      <trkpt lat="37.41073" lon="27.78167">
        <ele>429.523</ele>
      </trkpt>
      <trkpt lat="37.41083" lon="27.78172">
        <ele>430.07</ele>
      </trkpt>
      <trkpt lat="37.41084" lon="27.78173">
        <ele>430.495</ele>
      </trkpt>
      <trkpt lat="37.41084" lon="27.78177">
        <ele>431.983</ele>
      </trkpt>
      <trkpt lat="37.41083" lon="27.78179">
        <ele>432.954</ele>
      </trkpt>
      <trkpt lat="37.41083" lon="27.78176">
        <ele>431.736</ele>
      </trkpt>
      <trkpt lat="37.41076" lon="27.78175">
        <ele>432.093</ele>
      </trkpt>
      <trkpt lat="37.41068" lon="27.78171">
        <ele>431.76</ele>
      </trkpt>
      <trkpt lat="37.41059" lon="27.78176">
        <ele>434.65</ele>
      </trkpt>
      <trkpt lat="37.41052" lon="27.78176">
        <ele>435.161</ele>
      </trkpt>
      <trkpt lat="37.41044" lon="27.78174">
        <ele>434.651</ele>
      </trkpt>
      <trkpt lat="37.41043" lon="27.78172">
        <ele>434.277</ele>
      </trkpt>
      <trkpt lat="37.41034" lon="27.78171">
        <ele>434.313</ele>
      </trkpt>
      <trkpt lat="37.41028" lon="27.78175">
        <ele>435.514</ele>
      </trkpt>
      <trkpt lat="37.41021" lon="27.78174">
        <ele>435.756</ele>
      </trkpt>
      <trkpt lat="37.41016" lon="27.78172">
        <ele>435.202</ele>
      </trkpt>
      <trkpt lat="37.41005" lon="27.78177">
        <ele>437.125</ele>
      </trkpt>
      <trkpt lat="37.41" lon="27.78182">
        <ele>439.056</ele>
      </trkpt>
      <trkpt lat="37.40993" lon="27.78188">
        <ele>441.069</ele>
      </trkpt>
      <trkpt lat="37.40983" lon="27.78185">
        <ele>440.676</ele>
      </trkpt>
      <trkpt lat="37.40981" lon="27.78183">
        <ele>440.269</ele>
      </trkpt>
      <trkpt lat="37.40974" lon="27.78184">
        <ele>440.763</ele>
      </trkpt>
      <trkpt lat="37.40966" lon="27.78192">
        <ele>443.604</ele>
      </trkpt>
      <trkpt lat="37.40963" lon="27.78196">
        <ele>444.693</ele>
      </trkpt>
      <trkpt lat="37.40961" lon="27.78197">
        <ele>445.151</ele>
      </trkpt>
      <trkpt lat="37.40958" lon="27.78198">
        <ele>445.628</ele>
      </trkpt>
      <trkpt lat="37.40951" lon="27.78192">
        <ele>444.241</ele>
      </trkpt>
      <trkpt lat="37.40947" lon="27.78185">
        <ele>442.601</ele>
      </trkpt>
      <trkpt lat="37.40943" lon="27.78181">
        <ele>441.592</ele>
      </trkpt>
      <trkpt lat="37.4094" lon="27.78183">
        <ele>442.208</ele>
      </trkpt>
      <trkpt lat="37.40939" lon="27.78186">
        <ele>443.049</ele>
      </trkpt>
      <trkpt lat="37.40929" lon="27.78187">
        <ele>443.491</ele>
      </trkpt>
      <trkpt lat="37.40923" lon="27.78185">
        <ele>443.046</ele>
      </trkpt>
      <trkpt lat="37.40912" lon="27.78179">
        <ele>441.752</ele>
      </trkpt>
      <trkpt lat="37.40911" lon="27.78179">
        <ele>441.872</ele>
      </trkpt>
      <trkpt lat="37.40912" lon="27.78196">
        <ele>446.684</ele>
      </trkpt>
      <trkpt lat="37.40915" lon="27.78206">
        <ele>449.897</ele>
      </trkpt>
      <trkpt lat="37.40907" lon="27.78207">
        <ele>450.5</ele>
      </trkpt>
      <trkpt lat="37.40901" lon="27.78214">
        <ele>453.344</ele>
      </trkpt>
      <trkpt lat="37.40896" lon="27.78212">
        <ele>452.818</ele>
      </trkpt>
      <trkpt lat="37.40885" lon="27.78206">
        <ele>451.647</ele>
      </trkpt>
      <trkpt lat="37.40881" lon="27.782">
        <ele>450.079</ele>
      </trkpt>
      <trkpt lat="37.40874" lon="27.78185">
        <ele>446.612</ele>
      </trkpt>
      <trkpt lat="37.40874" lon="27.78186">
        <ele>446.855</ele>
      </trkpt>
      <trkpt lat="37.40866" lon="27.78187">
        <ele>448.216</ele>
      </trkpt>
      <trkpt lat="37.40857" lon="27.78185">
        <ele>449.077</ele>
      </trkpt>
      <trkpt lat="37.40857" lon="27.78185">
        <ele>449.133</ele>
      </trkpt>
      <trkpt lat="37.40858" lon="27.7818">
        <ele>447.362</ele>
      </trkpt>
      <trkpt lat="37.40858" lon="27.78179">
        <ele>447.199</ele>
      </trkpt>
      <trkpt lat="37.40857" lon="27.78178">
        <ele>446.972</ele>
      </trkpt>
      <trkpt lat="37.40847" lon="27.78181">
        <ele>449.668</ele>
      </trkpt>
      <trkpt lat="37.40834" lon="27.78182">
        <ele>452.533</ele>
      </trkpt>
      <trkpt lat="37.40829" lon="27.78185">
        <ele>454.286</ele>
      </trkpt>
      <trkpt lat="37.40824" lon="27.78186">
        <ele>455.51</ele>
      </trkpt>
      <trkpt lat="37.40821" lon="27.78184">
        <ele>455.729</ele>
      </trkpt>
      <trkpt lat="37.40817" lon="27.78187">
        <ele>457.006</ele>
      </trkpt>
      <trkpt lat="37.40811" lon="27.78186">
        <ele>457.946</ele>
      </trkpt>
      <trkpt lat="37.40808" lon="27.78188">
        <ele>458.766</ele>
      </trkpt>
      <trkpt lat="37.40803" lon="27.78196">
        <ele>460.566</ele>
      </trkpt>
      <trkpt lat="37.40795" lon="27.78201">
        <ele>461.662</ele>
      </trkpt>
      <trkpt lat="37.40795" lon="27.78204">
        <ele>461.983</ele>
      </trkpt>
      <trkpt lat="37.40795" lon="27.78204">
        <ele>462.089</ele>
      </trkpt>
      <trkpt lat="37.4079" lon="27.78208">
        <ele>462.441</ele>
      </trkpt>
      <trkpt lat="37.40795" lon="27.78204">
        <ele>462.089</ele>
      </trkpt>
      <trkpt lat="37.4079" lon="27.78208">
        <ele>462.441</ele>
      </trkpt>
      <trkpt lat="37.40783" lon="27.78213">
        <ele>462.387</ele>
      </trkpt>
      <trkpt lat="37.40783" lon="27.78216">
        <ele>462.477</ele>
      </trkpt>
      <trkpt lat="37.40776" lon="27.78234">
        <ele>462.453</ele>
      </trkpt>
      <trkpt lat="37.40767" lon="27.78236">
        <ele>461.06</ele>
      </trkpt>
      <trkpt lat="37.40757" lon="27.78248">
        <ele>459.559</ele>
      </trkpt>
      <trkpt lat="37.4075" lon="27.78253">
        <ele>458.314</ele>
      </trkpt>
      <trkpt lat="37.40732" lon="27.7825">
        <ele>455.442</ele>
      </trkpt>
      <trkpt lat="37.40726" lon="27.78253">
        <ele>454.816</ele>
      </trkpt>
      <trkpt lat="37.4072" lon="27.78257">
        <ele>454.55</ele>
      </trkpt>
      <trkpt lat="37.40719" lon="27.78257">
        <ele>454.34</ele>
      </trkpt>
      <trkpt lat="37.40718" lon="27.78263">
        <ele>455.002</ele>
      </trkpt>
      <trkpt lat="37.40718" lon="27.78269">
        <ele>455.659</ele>
      </trkpt>
      <trkpt lat="37.40721" lon="27.78275">
        <ele>456.617</ele>
      </trkpt>
      <trkpt lat="37.40724" lon="27.78278">
        <ele>457.238</ele>
      </trkpt>
      <trkpt lat="37.40725" lon="27.78285">
        <ele>457.884</ele>
      </trkpt>
      <trkpt lat="37.40728" lon="27.78295">
        <ele>458.976</ele>
      </trkpt>
      <trkpt lat="37.40726" lon="27.78299">
        <ele>459.039</ele>
      </trkpt>
      <trkpt lat="37.40724" lon="27.78302">
        <ele>459.022</ele>
      </trkpt>
      <trkpt lat="37.40725" lon="27.78305">
        <ele>459.266</ele>
      </trkpt>
      <trkpt lat="37.40725" lon="27.78308">
        <ele>459.687</ele>
      </trkpt>
      <trkpt lat="37.4072" lon="27.78322">
        <ele>460.678</ele>
      </trkpt>
      <trkpt lat="37.40712" lon="27.78327">
        <ele>460.365</ele>
      </trkpt>
      <trkpt lat="37.40708" lon="27.78327">
        <ele>460.001</ele>
      </trkpt>
      <trkpt lat="37.40699" lon="27.78326">
        <ele>459.138</ele>
      </trkpt>
      <trkpt lat="37.40682" lon="27.78326">
        <ele>458.167</ele>
      </trkpt>
      <trkpt lat="37.40695" lon="27.78336">
        <ele>459.408</ele>
      </trkpt>
      <trkpt lat="37.40694" lon="27.7834">
        <ele>459.658</ele>
      </trkpt>
      <trkpt lat="37.40692" lon="27.78339">
        <ele>459.511</ele>
      </trkpt>
      <trkpt lat="37.40692" lon="27.78339">
        <ele>459.511</ele>
      </trkpt>
      <trkpt lat="37.40681" lon="27.78343">
        <ele>459.565</ele>
      </trkpt>
      <trkpt lat="37.40666" lon="27.78351">
        <ele>459.831</ele>
      </trkpt>
      <trkpt lat="37.40652" lon="27.78352">
        <ele>458.066</ele>
      </trkpt>
      <trkpt lat="37.40643" lon="27.78355">
        <ele>457.134</ele>
      </trkpt>
      <trkpt lat="37.40643" lon="27.78355">
        <ele>457.148</ele>
      </trkpt>
      <trkpt lat="37.40644" lon="27.78355">
        <ele>457.159</ele>
      </trkpt>
      <trkpt lat="37.4064" lon="27.78353">
        <ele>456.551</ele>
      </trkpt>
      <trkpt lat="37.4064" lon="27.78354">
        <ele>456.64</ele>
      </trkpt>
      <trkpt lat="37.40634" lon="27.78365">
        <ele>456.837</ele>
      </trkpt>
      <trkpt lat="37.40636" lon="27.78392">
        <ele>460.691</ele>
      </trkpt>
      <trkpt lat="37.40638" lon="27.78396">
        <ele>461.169</ele>
      </trkpt>
      <trkpt lat="37.40629" lon="27.78416">
        <ele>461.6</ele>
      </trkpt>
      <trkpt lat="37.40629" lon="27.78424">
        <ele>462.401</ele>
      </trkpt>
      <trkpt lat="37.40628" lon="27.78424">
        <ele>462.357</ele>
      </trkpt>
      <trkpt lat="37.4063" lon="27.78428">
        <ele>462.84</ele>
      </trkpt>
      <trkpt lat="37.40618" lon="27.78429">
        <ele>462.575</ele>
      </trkpt>
      <trkpt lat="37.40607" lon="27.7843">
        <ele>461.766</ele>
      </trkpt>
      <trkpt lat="37.40602" lon="27.78432">
        <ele>461.24</ele>
      </trkpt>
      <trkpt lat="37.40602" lon="27.78432">
        <ele>461.204</ele>
      </trkpt>
      <trkpt lat="37.40602" lon="27.78431">
        <ele>461.134</ele>
      </trkpt>
      <trkpt lat="37.40601" lon="27.78432">
        <ele>461.05</ele>
      </trkpt>
      <trkpt lat="37.40607" lon="27.78447">
        <ele>463.692</ele>
      </trkpt>
      <trkpt lat="37.4061" lon="27.78449">
        <ele>464.477</ele>
      </trkpt>
      <trkpt lat="37.4061" lon="27.78449">
        <ele>464.482</ele>
      </trkpt>
      <trkpt lat="37.40608" lon="27.78448">
        <ele>464.036</ele>
      </trkpt>
      <trkpt lat="37.40599" lon="27.78445">
        <ele>462.396</ele>
      </trkpt>
      <trkpt lat="37.4059" lon="27.78441">
        <ele>460.349</ele>
      </trkpt>
      <trkpt lat="37.4058" lon="27.78441">
        <ele>458.906</ele>
      </trkpt>
      <trkpt lat="37.40573" lon="27.78451">
        <ele>458.529</ele>
      </trkpt>
      <trkpt lat="37.40572" lon="27.78458">
        <ele>458.997</ele>
      </trkpt>
      <trkpt lat="37.40561" lon="27.78457">
        <ele>456.329</ele>
      </trkpt>
      <trkpt lat="37.40554" lon="27.78452">
        <ele>454.301</ele>
      </trkpt>
      <trkpt lat="37.40541" lon="27.78448">
        <ele>451.88</ele>
      </trkpt>
      <trkpt lat="37.40533" lon="27.78447">
        <ele>450.616</ele>
      </trkpt>
      <trkpt lat="37.40523" lon="27.78449">
        <ele>449.275</ele>
      </trkpt>
      <trkpt lat="37.40517" lon="27.78449">
        <ele>448.753</ele>
      </trkpt>
      <trkpt lat="37.40512" lon="27.78452">
        <ele>447.946</ele>
      </trkpt>
      <trkpt lat="37.40499" lon="27.78456">
        <ele>446.286</ele>
      </trkpt>
      <trkpt lat="37.4049" lon="27.78455">
        <ele>445.715</ele>
      </trkpt>
      <trkpt lat="37.40479" lon="27.78455">
        <ele>444.885</ele>
      </trkpt>
      <trkpt lat="37.40469" lon="27.78448">
        <ele>445.065</ele>
      </trkpt>
      <trkpt lat="37.40463" lon="27.78445">
        <ele>444.986</ele>
      </trkpt>
      <trkpt lat="37.40461" lon="27.7845">
        <ele>443.916</ele>
      </trkpt>
      <trkpt lat="37.40455" lon="27.78455">
        <ele>442.464</ele>
      </trkpt>
      <trkpt lat="37.40445" lon="27.78461">
        <ele>440.151</ele>
      </trkpt>
      <trkpt lat="37.4044" lon="27.78468">
        <ele>437.898</ele>
      </trkpt>
      <trkpt lat="37.40441" lon="27.78471">
        <ele>437.74</ele>
      </trkpt>
      <trkpt lat="37.40451" lon="27.78475">
        <ele>438.219</ele>
      </trkpt>
      <trkpt lat="37.40458" lon="27.78489">
        <ele>435.497</ele>
      </trkpt>
      <trkpt lat="37.40457" lon="27.78495">
        <ele>433.397</ele>
      </trkpt>
      <trkpt lat="37.40449" lon="27.78494">
        <ele>432.08</ele>
      </trkpt>
      <trkpt lat="37.4044" lon="27.78494">
        <ele>430.432</ele>
      </trkpt>
      <trkpt lat="37.40429" lon="27.78496">
        <ele>428.947</ele>
      </trkpt>
      <trkpt lat="37.40422" lon="27.78495">
        <ele>428.505</ele>
      </trkpt>
      <trkpt lat="37.40409" lon="27.78496">
        <ele>427.208</ele>
      </trkpt>
      <trkpt lat="37.40406" lon="27.78493">
        <ele>427.47</ele>
      </trkpt>
      <trkpt lat="37.40398" lon="27.78492">
        <ele>426.882</ele>
      </trkpt>
      <trkpt lat="37.40395" lon="27.78495">
        <ele>426.128</ele>
      </trkpt>
      <trkpt lat="37.40386" lon="27.78495">
        <ele>425.43</ele>
      </trkpt>
      <trkpt lat="37.40385" lon="27.78507">
        <ele>424.076</ele>
      </trkpt>
      <trkpt lat="37.40387" lon="27.78513">
        <ele>423.477</ele>
      </trkpt>
      <trkpt lat="37.4039" lon="27.78517">
        <ele>423.206</ele>
      </trkpt>
      <trkpt lat="37.40386" lon="27.78516">
        <ele>423.13</ele>
      </trkpt>
      <trkpt lat="37.40383" lon="27.78524">
        <ele>421.993</ele>
      </trkpt>
      <trkpt lat="37.40377" lon="27.7852">
        <ele>422.09</ele>
      </trkpt>
      <trkpt lat="37.40369" lon="27.78512">
        <ele>422.619</ele>
      </trkpt>
      <trkpt lat="37.40365" lon="27.78511">
        <ele>422.567</ele>
      </trkpt>
      <trkpt lat="37.40358" lon="27.78519">
        <ele>421.172</ele>
      </trkpt>
      <trkpt lat="37.40356" lon="27.78524">
        <ele>420.142</ele>
      </trkpt>
      <trkpt lat="37.40343" lon="27.78527">
        <ele>418.812</ele>
      </trkpt>
      <trkpt lat="37.40334" lon="27.78527">
        <ele>418.304</ele>
      </trkpt>
      <trkpt lat="37.40324" lon="27.78532">
        <ele>415.355</ele>
      </trkpt>
      <trkpt lat="37.40323" lon="27.78533">
        <ele>415.108</ele>
      </trkpt>
      <trkpt lat="37.40313" lon="27.78533">
        <ele>413.882</ele>
      </trkpt>
      <trkpt lat="37.40307" lon="27.78535">
        <ele>412.753</ele>
      </trkpt>
      <trkpt lat="37.40299" lon="27.78538">
        <ele>410.017</ele>
      </trkpt>
      <trkpt lat="37.40289" lon="27.78541">
        <ele>407.161</ele>
      </trkpt>
      <trkpt lat="37.40285" lon="27.78545">
        <ele>405.319</ele>
      </trkpt>
      <trkpt lat="37.40279" lon="27.78544">
        <ele>404.569</ele>
      </trkpt>
      <trkpt lat="37.4027" lon="27.78548">
        <ele>401.959</ele>
      </trkpt>
      <trkpt lat="37.40259" lon="27.78547">
        <ele>400.236</ele>
      </trkpt>
      <trkpt lat="37.40251" lon="27.78545">
        <ele>398.959</ele>
      </trkpt>
      <trkpt lat="37.40243" lon="27.78545">
        <ele>397.999</ele>
      </trkpt>
      <trkpt lat="37.40241" lon="27.78543">
        <ele>397.982</ele>
      </trkpt>
      <trkpt lat="37.40236" lon="27.78543">
        <ele>397.237</ele>
      </trkpt>
      <trkpt lat="37.4023" lon="27.78552">
        <ele>395.31</ele>
      </trkpt>
      <trkpt lat="37.40228" lon="27.7855">
        <ele>395.255</ele>
      </trkpt>
      <trkpt lat="37.40225" lon="27.78552">
        <ele>394.659</ele>
      </trkpt>
      <trkpt lat="37.40223" lon="27.78554">
        <ele>394.288</ele>
      </trkpt>
      <trkpt lat="37.40216" lon="27.78551">
        <ele>393.779</ele>
      </trkpt>
      <trkpt lat="37.40205" lon="27.78546">
        <ele>392.986</ele>
      </trkpt>
      <trkpt lat="37.40202" lon="27.78549">
        <ele>392.398</ele>
      </trkpt>
      <trkpt lat="37.402" lon="27.78553">
        <ele>391.79</ele>
      </trkpt>
      <trkpt lat="37.40197" lon="27.78551">
        <ele>391.642</ele>
      </trkpt>
      <trkpt lat="37.40191" lon="27.78551">
        <ele>390.697</ele>
      </trkpt>
      <trkpt lat="37.40184" lon="27.78549">
        <ele>389.738</ele>
      </trkpt>
      <trkpt lat="37.40176" lon="27.7855">
        <ele>388.37</ele>
      </trkpt>
      <trkpt lat="37.40174" lon="27.78553">
        <ele>387.688</ele>
      </trkpt>
      <trkpt lat="37.4016" lon="27.78564">
        <ele>383.958</ele>
      </trkpt>
      <trkpt lat="37.40154" lon="27.7857">
        <ele>382.423</ele>
      </trkpt>
      <trkpt lat="37.40149" lon="27.78581">
        <ele>379.796</ele>
      </trkpt>
      <trkpt lat="37.40145" lon="27.78591">
        <ele>376.786</ele>
      </trkpt>
      <trkpt lat="37.40136" lon="27.78597">
        <ele>373.693</ele>
      </trkpt>
      <trkpt lat="37.40129" lon="27.78602">
        <ele>371.024</ele>
      </trkpt>
      <trkpt lat="37.4012" lon="27.78608">
        <ele>367.673</ele>
      </trkpt>
      <trkpt lat="37.4011" lon="27.78611">
        <ele>365.053</ele>
      </trkpt>
      <trkpt lat="37.40105" lon="27.78611">
        <ele>363.842</ele>
      </trkpt>
      <trkpt lat="37.40104" lon="27.7862">
        <ele>361.677</ele>
      </trkpt>
      <trkpt lat="37.40103" lon="27.78619">
        <ele>361.635</ele>
      </trkpt>
      <trkpt lat="37.40095" lon="27.78618">
        <ele>360.577</ele>
      </trkpt>
      <trkpt lat="37.40088" lon="27.78624">
        <ele>357.761</ele>
      </trkpt>
      <trkpt lat="37.40085" lon="27.78628">
        <ele>356.036</ele>
      </trkpt>
      <trkpt lat="37.40083" lon="27.78635">
        <ele>353.732</ele>
      </trkpt>
      <trkpt lat="37.40082" lon="27.78636">
        <ele>353.373</ele>
      </trkpt>
      <trkpt lat="37.40076" lon="27.78639">
        <ele>351.392</ele>
      </trkpt>
      <trkpt lat="37.40075" lon="27.78639">
        <ele>351.321</ele>
      </trkpt>
      <trkpt lat="37.40072" lon="27.78645">
        <ele>349.431</ele>
      </trkpt>
      <trkpt lat="37.40069" lon="27.78652">
        <ele>347.506</ele>
      </trkpt>
      <trkpt lat="37.40062" lon="27.78661">
        <ele>344.012</ele>
      </trkpt>
      <trkpt lat="37.40058" lon="27.78667">
        <ele>341.635</ele>
      </trkpt>
      <trkpt lat="37.40051" lon="27.7868">
        <ele>336.401</ele>
      </trkpt>
      <trkpt lat="37.40041" lon="27.78685">
        <ele>333.372</ele>
      </trkpt>
      <trkpt lat="37.40036" lon="27.78685">
        <ele>332.416</ele>
      </trkpt>
      <trkpt lat="37.40033" lon="27.78686">
        <ele>331.769</ele>
      </trkpt>
      <trkpt lat="37.40021" lon="27.78689">
        <ele>329.95</ele>
      </trkpt>
      <trkpt lat="37.40015" lon="27.78687">
        <ele>330.005</ele>
      </trkpt>
      <trkpt lat="37.40007" lon="27.78677">
        <ele>331.184</ele>
      </trkpt>
      <trkpt lat="37.40002" lon="27.78672">
        <ele>331.493</ele>
      </trkpt>
      <trkpt lat="37.39994" lon="27.7867">
        <ele>330.959</ele>
      </trkpt>
      <trkpt lat="37.39988" lon="27.78669">
        <ele>330.476</ele>
      </trkpt>
      <trkpt lat="37.39987" lon="27.78675">
        <ele>329.692</ele>
      </trkpt>
      <trkpt lat="37.39981" lon="27.7868">
        <ele>328.663</ele>
      </trkpt>
      <trkpt lat="37.39967" lon="27.78692">
        <ele>326.787</ele>
      </trkpt>
      <trkpt lat="37.39968" lon="27.78693">
        <ele>326.768</ele>
      </trkpt>
      <trkpt lat="37.39973" lon="27.787">
        <ele>326.436</ele>
      </trkpt>
      <trkpt lat="37.39981" lon="27.78708">
        <ele>325.499</ele>
      </trkpt>
      <trkpt lat="37.39991" lon="27.78713">
        <ele>324.758</ele>
      </trkpt>
      <trkpt lat="37.39994" lon="27.78718">
        <ele>323.874</ele>
      </trkpt>
      <trkpt lat="37.40006" lon="27.78723">
        <ele>322.504</ele>
      </trkpt>
      <trkpt lat="37.40009" lon="27.78728">
        <ele>320.784</ele>
      </trkpt>
      <trkpt lat="37.40017" lon="27.78731">
        <ele>319.654</ele>
      </trkpt>
      <trkpt lat="37.40015" lon="27.78734">
        <ele>318.678</ele>
      </trkpt>
      <trkpt lat="37.40012" lon="27.78735">
        <ele>318.236</ele>
      </trkpt>
      <trkpt lat="37.40007" lon="27.78743">
        <ele>315.766</ele>
      </trkpt>
      <trkpt lat="37.4" lon="27.78748">
        <ele>313.863</ele>
      </trkpt>
      <trkpt lat="37.3999" lon="27.78752">
        <ele>313.48</ele>
      </trkpt>
      <trkpt lat="37.3999" lon="27.78757">
        <ele>312.425</ele>
      </trkpt>
      <trkpt lat="37.39985" lon="27.78752">
        <ele>314.157</ele>
      </trkpt>
      <trkpt lat="37.39987" lon="27.78759">
        <ele>312.216</ele>
      </trkpt>
      <trkpt lat="37.39984" lon="27.78764">
        <ele>311.429</ele>
      </trkpt>
      <trkpt lat="37.39976" lon="27.78763">
        <ele>312.802</ele>
      </trkpt>
      <trkpt lat="37.39982" lon="27.78769">
        <ele>310.709</ele>
      </trkpt>
      <trkpt lat="37.39984" lon="27.78772">
        <ele>309.64</ele>
      </trkpt>
      <trkpt lat="37.39989" lon="27.78777">
        <ele>307.611</ele>
      </trkpt>
      <trkpt lat="37.39995" lon="27.78785">
        <ele>304.88</ele>
      </trkpt>
      <trkpt lat="37.40007" lon="27.78785">
        <ele>303.029</ele>
      </trkpt>
      <trkpt lat="37.40009" lon="27.78784">
        <ele>303.042</ele>
      </trkpt>
      <trkpt lat="37.4001" lon="27.78789">
        <ele>301.527</ele>
      </trkpt>
      <trkpt lat="37.40005" lon="27.78799">
        <ele>299.757</ele>
      </trkpt>
      <trkpt lat="37.39995" lon="27.78803">
        <ele>300.512</ele>
      </trkpt>
      <trkpt lat="37.39995" lon="27.78808">
        <ele>298.843</ele>
      </trkpt>
      <trkpt lat="37.40004" lon="27.78809">
        <ele>297.095</ele>
      </trkpt>
      <trkpt lat="37.40006" lon="27.78814">
        <ele>295.059</ele>
      </trkpt>
      <trkpt lat="37.40013" lon="27.78813">
        <ele>294.165</ele>
      </trkpt>
      <trkpt lat="37.40018" lon="27.78814">
        <ele>293.031</ele>
      </trkpt>
      <trkpt lat="37.40029" lon="27.78814">
        <ele>291.558</ele>
      </trkpt>
      <trkpt lat="37.40037" lon="27.78813">
        <ele>291.98</ele>
      </trkpt>
      <trkpt lat="37.40044" lon="27.78819">
        <ele>290.215</ele>
      </trkpt>
      <trkpt lat="37.40042" lon="27.78821">
        <ele>289.457</ele>
      </trkpt>
      <trkpt lat="37.40039" lon="27.78827">
        <ele>287.98</ele>
      </trkpt>
      <trkpt lat="37.40033" lon="27.78832">
        <ele>286.389</ele>
      </trkpt>
      <trkpt lat="37.40024" lon="27.78837">
        <ele>284.908</ele>
      </trkpt>
      <trkpt lat="37.40015" lon="27.78842">
        <ele>283.437</ele>
      </trkpt>
      <trkpt lat="37.40008" lon="27.78846">
        <ele>281.681</ele>
      </trkpt>
      <trkpt lat="37.40006" lon="27.78847">
        <ele>281.547</ele>
      </trkpt>
      <trkpt lat="37.39999" lon="27.78847">
        <ele>281.593</ele>
      </trkpt>
      <trkpt lat="37.39992" lon="27.78852">
        <ele>276.902</ele>
      </trkpt>
      <trkpt lat="37.3998" lon="27.78851">
        <ele>274.412</ele>
      </trkpt>
      <trkpt lat="37.39981" lon="27.78852">
        <ele>273.798</ele>
      </trkpt>
      <trkpt lat="37.39988" lon="27.78864">
        <ele>268.815</ele>
      </trkpt>
      <trkpt lat="37.39987" lon="27.78866">
        <ele>267.222</ele>
      </trkpt>
      <trkpt lat="37.39971" lon="27.78861">
        <ele>265.411</ele>
      </trkpt>
      <trkpt lat="37.39959" lon="27.78861">
        <ele>265.515</ele>
      </trkpt>
      <trkpt lat="37.39953" lon="27.7886">
        <ele>266.572</ele>
      </trkpt>
      <trkpt lat="37.39941" lon="27.78861">
        <ele>266.628</ele>
      </trkpt>
      <trkpt lat="37.39925" lon="27.78868">
        <ele>264.216</ele>
      </trkpt>
      <trkpt lat="37.39916" lon="27.7887">
        <ele>263.759</ele>
      </trkpt>
      <trkpt lat="37.39906" lon="27.78872">
        <ele>260.059</ele>
      </trkpt>
      <trkpt lat="37.39892" lon="27.78871">
        <ele>257.241</ele>
      </trkpt>
      <trkpt lat="37.39888" lon="27.7887">
        <ele>257.267</ele>
      </trkpt>
      <trkpt lat="37.39882" lon="27.7887">
        <ele>256.045</ele>
      </trkpt>
      <trkpt lat="37.39863" lon="27.78865">
        <ele>255.667</ele>
      </trkpt>
      <trkpt lat="37.39862" lon="27.78865">
        <ele>255.534</ele>
      </trkpt>
      <trkpt lat="37.39863" lon="27.78863">
        <ele>256.937</ele>
      </trkpt>
      <trkpt lat="37.39855" lon="27.78861">
        <ele>256.367</ele>
      </trkpt>
      <trkpt lat="37.39847" lon="27.78858">
        <ele>256.355</ele>
      </trkpt>
      <trkpt lat="37.39839" lon="27.78854">
        <ele>256.863</ele>
      </trkpt>
      <trkpt lat="37.39837" lon="27.78852">
        <ele>257.391</ele>
      </trkpt>
      <trkpt lat="37.39832" lon="27.78847">
        <ele>258.881</ele>
      </trkpt>
      <trkpt lat="37.39821" lon="27.78844">
        <ele>254.941</ele>
      </trkpt>
      <trkpt lat="37.39815" lon="27.78843">
        <ele>252.605</ele>
      </trkpt>
      <trkpt lat="37.39805" lon="27.78838">
        <ele>250.344</ele>
      </trkpt>
      <trkpt lat="37.39794" lon="27.78832">
        <ele>247.723</ele>
      </trkpt>
      <trkpt lat="37.39786" lon="27.78826">
        <ele>246.126</ele>
      </trkpt>
      <trkpt lat="37.39784" lon="27.78823">
        <ele>246.328</ele>
      </trkpt>
      <trkpt lat="37.39783" lon="27.7883">
        <ele>241.927</ele>
      </trkpt>
      <trkpt lat="37.39778" lon="27.78831">
        <ele>237.81</ele>
      </trkpt>
      <trkpt lat="37.39769" lon="27.78829">
        <ele>234.565</ele>
      </trkpt>
      <trkpt lat="37.39767" lon="27.78828">
        <ele>234.466</ele>
      </trkpt>
      <trkpt lat="37.39764" lon="27.78829">
        <ele>231.826</ele>
      </trkpt>
      <trkpt lat="37.39762" lon="27.78833">
        <ele>228.652</ele>
      </trkpt>
      <trkpt lat="37.39757" lon="27.78837">
        <ele>224.768</ele>
      </trkpt>
      <trkpt lat="37.39752" lon="27.7883">
        <ele>225.595</ele>
      </trkpt>
      <trkpt lat="37.39747" lon="27.78826">
        <ele>224.792</ele>
      </trkpt>
      <trkpt lat="37.39741" lon="27.78819">
        <ele>225.45</ele>
      </trkpt>
      <trkpt lat="37.39734" lon="27.78809">
        <ele>224.419</ele>
      </trkpt>
      <trkpt lat="37.39727" lon="27.78809">
        <ele>221.024</ele>
      </trkpt>
      <trkpt lat="37.39719" lon="27.78804">
        <ele>219.187</ele>
      </trkpt>
      <trkpt lat="37.39714" lon="27.78805">
        <ele>217.386</ele>
      </trkpt>
      <trkpt lat="37.39708" lon="27.78807">
        <ele>215.593</ele>
      </trkpt>
      <trkpt lat="37.39704" lon="27.78807">
        <ele>214.699</ele>
      </trkpt>
      <trkpt lat="37.39702" lon="27.78806">
        <ele>214.387</ele>
      </trkpt>
      <trkpt lat="37.39699" lon="27.78806">
        <ele>213.787</ele>
      </trkpt>
      <trkpt lat="37.39688" lon="27.78807">
        <ele>211.148</ele>
      </trkpt>
      <trkpt lat="37.39677" lon="27.78805">
        <ele>209.585</ele>
      </trkpt>
      <trkpt lat="37.39668" lon="27.788">
        <ele>208.935</ele>
      </trkpt>
      <trkpt lat="37.39658" lon="27.788">
        <ele>205.867</ele>
      </trkpt>
      <trkpt lat="37.39657" lon="27.78805">
        <ele>203.837</ele>
      </trkpt>
      <trkpt lat="37.39656" lon="27.78805">
        <ele>203.407</ele>
      </trkpt>
      <trkpt lat="37.39656" lon="27.78807">
        <ele>202.761</ele>
      </trkpt>
      <trkpt lat="37.39656" lon="27.78805">
        <ele>203.547</ele>
      </trkpt>
      <trkpt lat="37.39655" lon="27.78805">
        <ele>203.065</ele>
      </trkpt>
      <trkpt lat="37.39662" lon="27.78814">
        <ele>203.223</ele>
      </trkpt>
      <trkpt lat="37.39667" lon="27.7882">
        <ele>203.524</ele>
      </trkpt>
      <trkpt lat="37.39668" lon="27.78823">
        <ele>202.821</ele>
      </trkpt>
      <trkpt lat="37.39669" lon="27.78829">
        <ele>201.552</ele>
      </trkpt>
      <trkpt lat="37.39678" lon="27.78838">
        <ele>201.464</ele>
      </trkpt>
      <trkpt lat="37.3968" lon="27.78842">
        <ele>200.974</ele>
      </trkpt>
      <trkpt lat="37.39675" lon="27.78851">
        <ele>198.591</ele>
      </trkpt>
      <trkpt lat="37.39671" lon="27.7885">
        <ele>198.178</ele>
      </trkpt>
      <trkpt lat="37.39668" lon="27.78857">
        <ele>196.706</ele>
      </trkpt>
      <trkpt lat="37.39666" lon="27.78862">
        <ele>195.668</ele>
      </trkpt>
      <trkpt lat="37.39658" lon="27.78872">
        <ele>191.629</ele>
      </trkpt>
      <trkpt lat="37.39655" lon="27.78875">
        <ele>190.398</ele>
      </trkpt>
      <trkpt lat="37.39644" lon="27.78882">
        <ele>187.857</ele>
      </trkpt>
      <trkpt lat="37.39638" lon="27.78893">
        <ele>186.253</ele>
      </trkpt>
      <trkpt lat="37.3963" lon="27.78899">
        <ele>183.518</ele>
      </trkpt>
      <trkpt lat="37.39621" lon="27.78906">
        <ele>180.887</ele>
      </trkpt>
      <trkpt lat="37.39616" lon="27.78908">
        <ele>179.903</ele>
      </trkpt>
      <trkpt lat="37.39604" lon="27.78915">
        <ele>177.042</ele>
      </trkpt>
      <trkpt lat="37.39601" lon="27.78922">
        <ele>174.977</ele>
      </trkpt>
      <trkpt lat="37.39597" lon="27.78929">
        <ele>172.69</ele>
      </trkpt>
      <trkpt lat="37.39598" lon="27.78933">
        <ele>172.124</ele>
      </trkpt>
      <trkpt lat="37.39607" lon="27.78931">
        <ele>174.212</ele>
      </trkpt>
      <trkpt lat="37.39616" lon="27.78932">
        <ele>175.029</ele>
      </trkpt>
      <trkpt lat="37.39616" lon="27.78933">
        <ele>174.826</ele>
      </trkpt>
      <trkpt lat="37.39608" lon="27.78938">
        <ele>172.441</ele>
      </trkpt>
      <trkpt lat="37.39595" lon="27.78948">
        <ele>168.72</ele>
      </trkpt>
      <trkpt lat="37.39591" lon="27.78949">
        <ele>168.249</ele>
      </trkpt>
      <trkpt lat="37.39591" lon="27.78949">
        <ele>168.067</ele>
      </trkpt>
      <trkpt lat="37.3959" lon="27.78949">
        <ele>167.925</ele>
      </trkpt>
      <trkpt lat="37.39586" lon="27.78955">
        <ele>166.204</ele>
      </trkpt>
      <trkpt lat="37.39586" lon="27.78955">
        <ele>166.059</ele>
      </trkpt>
      <trkpt lat="37.39586" lon="27.78955">
        <ele>165.958</ele>
      </trkpt>
      <trkpt lat="37.39582" lon="27.78957">
        <ele>165.22</ele>
      </trkpt>
      <trkpt lat="37.39573" lon="27.78957">
        <ele>164.039</ele>
      </trkpt>
      <trkpt lat="37.39566" lon="27.78954">
        <ele>163.501</ele>
      </trkpt>
      <trkpt lat="37.39558" lon="27.78954">
        <ele>162.249</ele>
      </trkpt>
      <trkpt lat="37.39549" lon="27.78957">
        <ele>159.916</ele>
      </trkpt>
      <trkpt lat="37.39546" lon="27.78963">
        <ele>158.037</ele>
      </trkpt>
      <trkpt lat="37.39546" lon="27.78963">
        <ele>158.097</ele>
      </trkpt>
      <trkpt lat="37.39543" lon="27.78965">
        <ele>157.151</ele>
      </trkpt>
      <trkpt lat="37.39535" lon="27.78974">
        <ele>154.142</ele>
      </trkpt>
      <trkpt lat="37.39524" lon="27.78964">
        <ele>153.46</ele>
      </trkpt>
      <trkpt lat="37.39528" lon="27.78974">
        <ele>152.857</ele>
      </trkpt>
      <trkpt lat="37.39528" lon="27.78973">
        <ele>152.969</ele>
      </trkpt>
      <trkpt lat="37.39529" lon="27.78985">
        <ele>152.267</ele>
      </trkpt>
      <trkpt lat="37.39528" lon="27.78987">
        <ele>151.969</ele>
      </trkpt>
      <trkpt lat="37.39531" lon="27.7899">
        <ele>152.085</ele>
      </trkpt>
      <trkpt lat="37.39534" lon="27.78992">
        <ele>152.241</ele>
      </trkpt>
      <trkpt lat="37.39534" lon="27.78997">
        <ele>151.71</ele>
      </trkpt>
      <trkpt lat="37.39526" lon="27.78994">
        <ele>151.176</ele>
      </trkpt>
      <trkpt lat="37.39522" lon="27.78998">
        <ele>150.476</ele>
      </trkpt>
      <trkpt lat="37.3952" lon="27.78992">
        <ele>150.46</ele>
      </trkpt>
      <trkpt lat="37.39518" lon="27.78989">
        <ele>150.395</ele>
      </trkpt>
      <trkpt lat="37.39517" lon="27.7899">
        <ele>150.089</ele>
      </trkpt>
      <trkpt lat="37.39512" lon="27.78993">
        <ele>149.301</ele>
      </trkpt>
      <trkpt lat="37.39511" lon="27.78992">
        <ele>149.255</ele>
      </trkpt>
      <trkpt lat="37.39504" lon="27.78981">
        <ele>148.064</ele>
      </trkpt>
      <trkpt lat="37.39496" lon="27.78974">
        <ele>147.202</ele>
      </trkpt>
      <trkpt lat="37.3949" lon="27.78969">
        <ele>147.436</ele>
      </trkpt>
      <trkpt lat="37.39488" lon="27.78961">
        <ele>147.545</ele>
      </trkpt>
      <trkpt lat="37.39488" lon="27.78958">
        <ele>147.556</ele>
      </trkpt>
      <trkpt lat="37.39479" lon="27.78956">
        <ele>147.122</ele>
      </trkpt>
      <trkpt lat="37.39468" lon="27.78948">
        <ele>146.406</ele>
      </trkpt>
      <trkpt lat="37.39467" lon="27.78945">
        <ele>146.216</ele>
      </trkpt>
      <trkpt lat="37.39465" lon="27.78942">
        <ele>146.31</ele>
      </trkpt>
      <trkpt lat="37.39455" lon="27.78936">
        <ele>146.541</ele>
      </trkpt>
      <trkpt lat="37.3945" lon="27.78933">
        <ele>146.552</ele>
      </trkpt>
      <trkpt lat="37.39453" lon="27.78929">
        <ele>146.48</ele>
      </trkpt>
      <trkpt lat="37.39451" lon="27.7893">
        <ele>146.483</ele>
      </trkpt>
      <trkpt lat="37.39445" lon="27.78934">
        <ele>146.629</ele>
      </trkpt>
      <trkpt lat="37.39439" lon="27.78945">
        <ele>147.089</ele>
      </trkpt>
      <trkpt lat="37.39432" lon="27.78954">
        <ele>148.468</ele>
      </trkpt>
      <trkpt lat="37.39423" lon="27.7896">
        <ele>150.026</ele>
      </trkpt>
      <trkpt lat="37.3942" lon="27.78959">
        <ele>150.016</ele>
      </trkpt>
      <trkpt lat="37.39419" lon="27.78959">
        <ele>149.937</ele>
      </trkpt>
      <trkpt lat="37.39408" lon="27.78957">
        <ele>151.138</ele>
      </trkpt>
      <trkpt lat="37.39407" lon="27.78958">
        <ele>151.369</ele>
      </trkpt>
      <trkpt lat="37.39403" lon="27.78959">
        <ele>152.41</ele>
      </trkpt>
      <trkpt lat="37.39402" lon="27.78959">
        <ele>152.541</ele>
      </trkpt>
      <trkpt lat="37.39391" lon="27.7896">
        <ele>155.002</ele>
      </trkpt>
      <trkpt lat="37.39377" lon="27.78959">
        <ele>157.162</ele>
      </trkpt>
      <trkpt lat="37.39361" lon="27.78955">
        <ele>158.221</ele>
      </trkpt>
      <trkpt lat="37.39354" lon="27.78941">
        <ele>153.131</ele>
      </trkpt>
      <trkpt lat="37.39346" lon="27.78935">
        <ele>152.694</ele>
      </trkpt>
      <trkpt lat="37.39333" lon="27.78935">
        <ele>155.638</ele>
      </trkpt>
      <trkpt lat="37.39319" lon="27.78926">
        <ele>153.726</ele>
      </trkpt>
      <trkpt lat="37.39318" lon="27.78922">
        <ele>152.227</ele>
      </trkpt>
      <trkpt lat="37.39314" lon="27.78917">
        <ele>150.951</ele>
      </trkpt>
      <trkpt lat="37.39304" lon="27.78917">
        <ele>152.994</ele>
      </trkpt>
      <trkpt lat="37.39292" lon="27.78919">
        <ele>153.527</ele>
      </trkpt>
      <trkpt lat="37.39277" lon="27.78924">
        <ele>154.864</ele>
      </trkpt>
      <trkpt lat="37.39263" lon="27.78928">
        <ele>154.634</ele>
      </trkpt>
      <trkpt lat="37.39261" lon="27.78929">
        <ele>154.978</ele>
      </trkpt>
      <trkpt lat="37.39257" lon="27.78931">
        <ele>155.385</ele>
      </trkpt>
      <trkpt lat="37.39252" lon="27.78931">
        <ele>154.602</ele>
      </trkpt>
      <trkpt lat="37.39251" lon="27.7893">
        <ele>153.973</ele>
      </trkpt>
      <trkpt lat="37.39239" lon="27.78926">
        <ele>150.846</ele>
      </trkpt>
      <trkpt lat="37.39232" lon="27.78933">
        <ele>152.826</ele>
      </trkpt>
      <trkpt lat="37.39219" lon="27.78938">
        <ele>152.704</ele>
      </trkpt>
      <trkpt lat="37.39205" lon="27.78948">
        <ele>151.183</ele>
      </trkpt>
      <trkpt lat="37.392" lon="27.7896">
        <ele>151.569</ele>
      </trkpt>
      <trkpt lat="37.39186" lon="27.78976">
        <ele>149.771</ele>
      </trkpt>
      <trkpt lat="37.39176" lon="27.78985">
        <ele>147.078</ele>
      </trkpt>
      <trkpt lat="37.39172" lon="27.7899">
        <ele>146.168</ele>
      </trkpt>
      <trkpt lat="37.39174" lon="27.78993">
        <ele>146.975</ele>
      </trkpt>
      <trkpt lat="37.39178" lon="27.78998">
        <ele>148.704</ele>
      </trkpt>
      <trkpt lat="37.39178" lon="27.79003">
        <ele>149.497</ele>
      </trkpt>
      <trkpt lat="37.39179" lon="27.79008">
        <ele>150.015</ele>
      </trkpt>
      <trkpt lat="37.39178" lon="27.79011">
        <ele>150.218</ele>
      </trkpt>
      <trkpt lat="37.39179" lon="27.79014">
        <ele>150.597</ele>
      </trkpt>
      <trkpt lat="37.39178" lon="27.79017">
        <ele>150.674</ele>
      </trkpt>
      <trkpt lat="37.39177" lon="27.79019">
        <ele>150.44</ele>
      </trkpt>
      <trkpt lat="37.3917" lon="27.79018">
        <ele>148.219</ele>
      </trkpt>
      <trkpt lat="37.39164" lon="27.79016">
        <ele>146.618</ele>
      </trkpt>
      <trkpt lat="37.39154" lon="27.79015">
        <ele>145.768</ele>
      </trkpt>
      <trkpt lat="37.3915" lon="27.79018">
        <ele>145.932</ele>
      </trkpt>
      <trkpt lat="37.39149" lon="27.79023">
        <ele>146.668</ele>
      </trkpt>
      <trkpt lat="37.39148" lon="27.79027">
        <ele>147.197</ele>
      </trkpt>
      <trkpt lat="37.39143" lon="27.79028">
        <ele>147.252</ele>
      </trkpt>
      <trkpt lat="37.3914" lon="27.79023">
        <ele>146.087</ele>
      </trkpt>
      <trkpt lat="37.39138" lon="27.79021">
        <ele>145.949</ele>
      </trkpt>
      <trkpt lat="37.39131" lon="27.79015">
        <ele>147.183</ele>
      </trkpt>
      <trkpt lat="37.39126" lon="27.79012">
        <ele>148.034</ele>
      </trkpt>
      <trkpt lat="37.3912" lon="27.79006">
        <ele>148.42</ele>
      </trkpt>
      <trkpt lat="37.39117" lon="27.78999">
        <ele>147.284</ele>
      </trkpt>
      <trkpt lat="37.39114" lon="27.7899">
        <ele>146.142</ele>
      </trkpt>
      <trkpt lat="37.39114" lon="27.78984">
        <ele>144.856</ele>
      </trkpt>
      <trkpt lat="37.39113" lon="27.78981">
        <ele>144.553</ele>
      </trkpt>
      <trkpt lat="37.39106" lon="27.78976">
        <ele>146.362</ele>
      </trkpt>
      <trkpt lat="37.39107" lon="27.78976">
        <ele>146.149</ele>
      </trkpt>
      <trkpt lat="37.39106" lon="27.7897">
        <ele>145.427</ele>
      </trkpt>
      <trkpt lat="37.39098" lon="27.78959">
        <ele>148.895</ele>
      </trkpt>
      <trkpt lat="37.39098" lon="27.7895">
        <ele>148.727</ele>
      </trkpt>
      <trkpt lat="37.39098" lon="27.7895">
        <ele>148.66</ele>
      </trkpt>
      <trkpt lat="37.39094" lon="27.78935">
        <ele>148.649</ele>
      </trkpt>
      <trkpt lat="37.39092" lon="27.78929">
        <ele>148.291</ele>
      </trkpt>
      <trkpt lat="37.39093" lon="27.78917">
        <ele>145.649</ele>
      </trkpt>
      <trkpt lat="37.39092" lon="27.7891">
        <ele>144.595</ele>
      </trkpt>
      <trkpt lat="37.39087" lon="27.78894">
        <ele>143.644</ele>
      </trkpt>
      <trkpt lat="37.39076" lon="27.78885">
        <ele>145.439</ele>
      </trkpt>
      <trkpt lat="37.39075" lon="27.78884">
        <ele>145.464</ele>
      </trkpt>
      <trkpt lat="37.39067" lon="27.78873">
        <ele>145.192</ele>
      </trkpt>
      <trkpt lat="37.39066" lon="27.78869">
        <ele>144.406</ele>
      </trkpt>
      <trkpt lat="37.3906" lon="27.78857">
        <ele>143.246</ele>
      </trkpt>
      <trkpt lat="37.39057" lon="27.78847">
        <ele>142.437</ele>
      </trkpt>
      <trkpt lat="37.39054" lon="27.78844">
        <ele>142.871</ele>
      </trkpt>
      <trkpt lat="37.39048" lon="27.78836">
        <ele>144.106</ele>
      </trkpt>
      <trkpt lat="37.39046" lon="27.78827">
        <ele>143.632</ele>
      </trkpt>
      <trkpt lat="37.39044" lon="27.78823">
        <ele>143.602</ele>
      </trkpt>
      <trkpt lat="37.39043" lon="27.78822">
        <ele>143.603</ele>
      </trkpt>
      <trkpt lat="37.39043" lon="27.78818">
        <ele>143.099</ele>
      </trkpt>
      <trkpt lat="37.3904" lon="27.78809">
        <ele>142.519</ele>
      </trkpt>
      <trkpt lat="37.39039" lon="27.78806">
        <ele>142.594</ele>
      </trkpt>
      <trkpt lat="37.39036" lon="27.78803">
        <ele>143.44</ele>
      </trkpt>
      <trkpt lat="37.39034" lon="27.78799">
        <ele>143.837</ele>
      </trkpt>
      <trkpt lat="37.39033" lon="27.78797">
        <ele>143.875</ele>
      </trkpt>
      <trkpt lat="37.39033" lon="27.78796">
        <ele>143.984</ele>
      </trkpt>
      <trkpt lat="37.39027" lon="27.7879">
        <ele>145.427</ele>
      </trkpt>
      <trkpt lat="37.39027" lon="27.78788">
        <ele>145.236</ele>
      </trkpt>
      <trkpt lat="37.39027" lon="27.78782">
        <ele>144.475</ele>
      </trkpt>
      <trkpt lat="37.3902" lon="27.78772">
        <ele>143.358</ele>
      </trkpt>
      <trkpt lat="37.39012" lon="27.7876">
        <ele>141.655</ele>
      </trkpt>
      <trkpt lat="37.39006" lon="27.78753">
        <ele>140.846</ele>
      </trkpt>
      <trkpt lat="37.39005" lon="27.78751">
        <ele>140.694</ele>
      </trkpt>
      <trkpt lat="37.39002" lon="27.78754">
        <ele>141.51</ele>
      </trkpt>
      <trkpt lat="37.3899" lon="27.7876">
        <ele>143.82</ele>
      </trkpt>
      <trkpt lat="37.3898" lon="27.78763">
        <ele>145.538</ele>
      </trkpt>
      <trkpt lat="37.38968" lon="27.78761">
        <ele>146.629</ele>
      </trkpt>
      <trkpt lat="37.38959" lon="27.7875">
        <ele>145.868</ele>
      </trkpt>
      <trkpt lat="37.38955" lon="27.78748">
        <ele>146.185</ele>
      </trkpt>
      <trkpt lat="37.38943" lon="27.78741">
        <ele>147.385</ele>
      </trkpt>
      <trkpt lat="37.3894" lon="27.78735">
        <ele>147.215</ele>
      </trkpt>
      <trkpt lat="37.38942" lon="27.78726">
        <ele>144.693</ele>
      </trkpt>
      <trkpt lat="37.38939" lon="27.78715">
        <ele>142.667</ele>
      </trkpt>
      <trkpt lat="37.38939" lon="27.78713">
        <ele>142.139</ele>
      </trkpt>
      <trkpt lat="37.38934" lon="27.78708">
        <ele>142.276</ele>
      </trkpt>
      <trkpt lat="37.38934" lon="27.78707">
        <ele>142.198</ele>
      </trkpt>
      <trkpt lat="37.38931" lon="27.78707">
        <ele>142.91</ele>
      </trkpt>
      <trkpt lat="37.3893" lon="27.78705">
        <ele>142.627</ele>
      </trkpt>
      <trkpt lat="37.38925" lon="27.7869">
        <ele>140.09</ele>
      </trkpt>
      <trkpt lat="37.38922" lon="27.78688">
        <ele>140.482</ele>
      </trkpt>
      <trkpt lat="37.38911" lon="27.78682">
        <ele>142.11</ele>
      </trkpt>
      <trkpt lat="37.3891" lon="27.78681">
        <ele>142.22</ele>
      </trkpt>
      <trkpt lat="37.38904" lon="27.7868">
        <ele>143.733</ele>
      </trkpt>
      <trkpt lat="37.38897" lon="27.78674">
        <ele>144.028</ele>
      </trkpt>
      <trkpt lat="37.38884" lon="27.7867">
        <ele>147.147</ele>
      </trkpt>
      <trkpt lat="37.38881" lon="27.78667">
        <ele>147.49</ele>
      </trkpt>
      <trkpt lat="37.38871" lon="27.78663">
        <ele>150.611</ele>
      </trkpt>
      <trkpt lat="37.38858" lon="27.78658">
        <ele>154.941</ele>
      </trkpt>
      <trkpt lat="37.38855" lon="27.78656">
        <ele>155.758</ele>
      </trkpt>
      <trkpt lat="37.38845" lon="27.78648">
        <ele>158.024</ele>
      </trkpt>
      <trkpt lat="37.3884" lon="27.78644">
        <ele>159.856</ele>
      </trkpt>
      <trkpt lat="37.38839" lon="27.78643">
        <ele>160.186</ele>
      </trkpt>
      <trkpt lat="37.38836" lon="27.78638">
        <ele>160.403</ele>
      </trkpt>
      <trkpt lat="37.38836" lon="27.78638">
        <ele>160.324</ele>
      </trkpt>
      <trkpt lat="37.38836" lon="27.78638">
        <ele>160.332</ele>
      </trkpt>
      <trkpt lat="37.38836" lon="27.78638">
        <ele>160.495</ele>
      </trkpt>
      <trkpt lat="37.38839" lon="27.78637">
        <ele>158.616</ele>
      </trkpt>
      <trkpt lat="37.38838" lon="27.78637">
        <ele>159.071</ele>
      </trkpt>
      <trkpt lat="37.38836" lon="27.78635">
        <ele>159.429</ele>
      </trkpt>
      <trkpt lat="37.38834" lon="27.78633">
        <ele>159.834</ele>
      </trkpt>
      <trkpt lat="37.38828" lon="27.78625">
        <ele>160.599</ele>
      </trkpt>
      <trkpt lat="37.38819" lon="27.78613">
        <ele>162.631</ele>
      </trkpt>
      <trkpt lat="37.38816" lon="27.7861">
        <ele>163.547</ele>
      </trkpt>
      <trkpt lat="37.38814" lon="27.78602">
        <ele>162.607</ele>
      </trkpt>
      <trkpt lat="37.38807" lon="27.78591">
        <ele>163.606</ele>
      </trkpt>
      <trkpt lat="37.38803" lon="27.78572">
        <ele>161.272</ele>
      </trkpt>
      <trkpt lat="37.38795" lon="27.78557">
        <ele>161.589</ele>
      </trkpt>
      <trkpt lat="37.3879" lon="27.78547">
        <ele>160.97</ele>
      </trkpt>
      <trkpt lat="37.3879" lon="27.78547">
        <ele>161.041</ele>
      </trkpt>
      <trkpt lat="37.38787" lon="27.78536">
        <ele>159.583</ele>
      </trkpt>
      <trkpt lat="37.38787" lon="27.78538">
        <ele>159.954</ele>
      </trkpt>
      <trkpt lat="37.38787" lon="27.78533">
        <ele>158.78</ele>
      </trkpt>
      <trkpt lat="37.3877" lon="27.78495">
        <ele>155.293</ele>
      </trkpt>
      <trkpt lat="37.38768" lon="27.78492">
        <ele>154.625</ele>
      </trkpt>
      <trkpt lat="37.38768" lon="27.78485">
        <ele>153.175</ele>
      </trkpt>
      <trkpt lat="37.38768" lon="27.78484">
        <ele>152.753</ele>
      </trkpt>
      <trkpt lat="37.3877" lon="27.78482">
        <ele>152.42</ele>
      </trkpt>
      <trkpt lat="37.38771" lon="27.78481">
        <ele>152.293</ele>
      </trkpt>
      <trkpt lat="37.38768" lon="27.78474">
        <ele>150.559</ele>
      </trkpt>
      <trkpt lat="37.38761" lon="27.78463">
        <ele>148.237</ele>
      </trkpt>
      <trkpt lat="37.38759" lon="27.78462">
        <ele>147.79</ele>
      </trkpt>
      <trkpt lat="37.38746" lon="27.7846">
        <ele>145.783</ele>
      </trkpt>
      <trkpt lat="37.38744" lon="27.78459">
        <ele>145.076</ele>
      </trkpt>
      <trkpt lat="37.38738" lon="27.78457">
        <ele>143.633</ele>
      </trkpt>
      <trkpt lat="37.38726" lon="27.78466">
        <ele>144.434</ele>
      </trkpt>
      <trkpt lat="37.38716" lon="27.78465">
        <ele>143.01</ele>
      </trkpt>
      <trkpt lat="37.38703" lon="27.78466">
        <ele>142.702</ele>
      </trkpt>
      <trkpt lat="37.38693" lon="27.78466">
        <ele>142.142</ele>
      </trkpt>
      <trkpt lat="37.38687" lon="27.78462">
        <ele>140.949</ele>
      </trkpt>
      <trkpt lat="37.38672" lon="27.78455">
        <ele>139.304</ele>
      </trkpt>
      <trkpt lat="37.38671" lon="27.78455">
        <ele>139.331</ele>
      </trkpt>
      <trkpt lat="37.38663" lon="27.78455">
        <ele>139.58</ele>
      </trkpt>
      <trkpt lat="37.38657" lon="27.78452">
        <ele>138.194</ele>
      </trkpt>
      <trkpt lat="37.38653" lon="27.78447">
        <ele>136.661</ele>
      </trkpt>
      <trkpt lat="37.3865" lon="27.7845">
        <ele>137.241</ele>
      </trkpt>
      <trkpt lat="37.38646" lon="27.78449">
        <ele>136.826</ele>
      </trkpt>
      <trkpt lat="37.38646" lon="27.78452">
        <ele>137.616</ele>
      </trkpt>
      <trkpt lat="37.38646" lon="27.78458">
        <ele>139.236</ele>
      </trkpt>
      <trkpt lat="37.38649" lon="27.78463">
        <ele>140.904</ele>
      </trkpt>
      <trkpt lat="37.38648" lon="27.7847">
        <ele>142.791</ele>
      </trkpt>
      <trkpt lat="37.3865" lon="27.7848">
        <ele>145.228</ele>
      </trkpt>
      <trkpt lat="37.38653" lon="27.7848">
        <ele>145.466</ele>
      </trkpt>
      <trkpt lat="37.38654" lon="27.78482">
        <ele>145.976</ele>
      </trkpt>
      <trkpt lat="37.38654" lon="27.78482">
        <ele>145.961</ele>
      </trkpt>
      <trkpt lat="37.38656" lon="27.78492">
        <ele>148.657</ele>
      </trkpt>
      <trkpt lat="37.38654" lon="27.78504">
        <ele>151.623</ele>
      </trkpt>
      <trkpt lat="37.38654" lon="27.78507">
        <ele>152.612</ele>
      </trkpt>
      <trkpt lat="37.38655" lon="27.7851">
        <ele>153.4</ele>
      </trkpt>
      <trkpt lat="37.38656" lon="27.78511">
        <ele>153.78</ele>
      </trkpt>
      <trkpt lat="37.38661" lon="27.78514">
        <ele>154.691</ele>
      </trkpt>
      <trkpt lat="37.38666" lon="27.78517">
        <ele>155.888</ele>
      </trkpt>
      <trkpt lat="37.38663" lon="27.78525">
        <ele>158.016</ele>
      </trkpt>
      <trkpt lat="37.38668" lon="27.78532">
        <ele>160.229</ele>
      </trkpt>
      <trkpt lat="37.38668" lon="27.78539">
        <ele>162.292</ele>
      </trkpt>
      <trkpt lat="37.38665" lon="27.78548">
        <ele>164.91</ele>
      </trkpt>
      <trkpt lat="37.38664" lon="27.7855">
        <ele>165.309</ele>
      </trkpt>
      <trkpt lat="37.3866" lon="27.78563">
        <ele>168.915</ele>
      </trkpt>
      <trkpt lat="37.38662" lon="27.78567">
        <ele>169.943</ele>
      </trkpt>
      <trkpt lat="37.38659" lon="27.78577">
        <ele>172.506</ele>
      </trkpt>
      <trkpt lat="37.38661" lon="27.78586">
        <ele>174.893</ele>
      </trkpt>
      <trkpt lat="37.38668" lon="27.78587">
        <ele>175.071</ele>
      </trkpt>
      <trkpt lat="37.38668" lon="27.78595">
        <ele>177.178</ele>
      </trkpt>
      <trkpt lat="37.38666" lon="27.78606">
        <ele>179.689</ele>
      </trkpt>
      <trkpt lat="37.38669" lon="27.78613">
        <ele>181.779</ele>
      </trkpt>
      <trkpt lat="37.38671" lon="27.7862">
        <ele>183.691</ele>
      </trkpt>
      <trkpt lat="37.38671" lon="27.78625">
        <ele>184.763</ele>
      </trkpt>
      <trkpt lat="37.38678" lon="27.7863">
        <ele>186.707</ele>
      </trkpt>
      <trkpt lat="37.38677" lon="27.78634">
        <ele>187.566</ele>
      </trkpt>
      <trkpt lat="37.3868" lon="27.78639">
        <ele>188.869</ele>
      </trkpt>
      <trkpt lat="37.38683" lon="27.78648">
        <ele>190.559</ele>
      </trkpt>
      <trkpt lat="37.38688" lon="27.78649">
        <ele>191.472</ele>
      </trkpt>
      <trkpt lat="37.38692" lon="27.78659">
        <ele>193.51</ele>
      </trkpt>
      <trkpt lat="37.38692" lon="27.78663">
        <ele>193.928</ele>
      </trkpt>
      <trkpt lat="37.387" lon="27.78665">
        <ele>195.563</ele>
      </trkpt>
      <trkpt lat="37.38701" lon="27.78674">
        <ele>196.292</ele>
      </trkpt>
      <trkpt lat="37.38701" lon="27.78675">
        <ele>196.347</ele>
      </trkpt>
      <trkpt lat="37.38699" lon="27.78679">
        <ele>196.095</ele>
      </trkpt>
      <trkpt lat="37.38704" lon="27.78693">
        <ele>197.723</ele>
      </trkpt>
      <trkpt lat="37.38709" lon="27.78697">
        <ele>198.649</ele>
      </trkpt>
      <trkpt lat="37.38715" lon="27.78709">
        <ele>200.432</ele>
      </trkpt>
      <trkpt lat="37.38719" lon="27.78718">
        <ele>202.026</ele>
      </trkpt>
      <trkpt lat="37.38728" lon="27.78734">
        <ele>203.361</ele>
      </trkpt>
      <trkpt lat="37.38729" lon="27.78735">
        <ele>203.453</ele>
      </trkpt>
      <trkpt lat="37.38731" lon="27.78741">
        <ele>203.721</ele>
      </trkpt>
      <trkpt lat="37.38735" lon="27.78748">
        <ele>204.38</ele>
      </trkpt>
      <trkpt lat="37.38742" lon="27.78763">
        <ele>206.802</ele>
      </trkpt>
      <trkpt lat="37.38747" lon="27.78773">
        <ele>208.837</ele>
      </trkpt>
      <trkpt lat="37.38749" lon="27.78775">
        <ele>209.436</ele>
      </trkpt>
      <trkpt lat="37.38751" lon="27.7878">
        <ele>210.408</ele>
      </trkpt>
      <trkpt lat="37.38759" lon="27.78791">
        <ele>212.482</ele>
      </trkpt>
      <trkpt lat="37.38766" lon="27.788">
        <ele>214.026</ele>
      </trkpt>
      <trkpt lat="37.38766" lon="27.78801">
        <ele>214.154</ele>
      </trkpt>
      <trkpt lat="37.38772" lon="27.78815">
        <ele>216.031</ele>
      </trkpt>
      <trkpt lat="37.38773" lon="27.78818">
        <ele>216.507</ele>
      </trkpt>
      <trkpt lat="37.38778" lon="27.78831">
        <ele>218.584</ele>
      </trkpt>
      <trkpt lat="37.38778" lon="27.78831">
        <ele>218.66</ele>
      </trkpt>
      <trkpt lat="37.38787" lon="27.78841">
        <ele>220.551</ele>
      </trkpt>
      <trkpt lat="37.38789" lon="27.78843">
        <ele>220.808</ele>
      </trkpt>
      <trkpt lat="37.38792" lon="27.7885">
        <ele>222.428</ele>
      </trkpt>
      <trkpt lat="37.38792" lon="27.7886">
        <ele>224.627</ele>
      </trkpt>
      <trkpt lat="37.3879" lon="27.78861">
        <ele>225.161</ele>
      </trkpt>
      <trkpt lat="37.3879" lon="27.78864">
        <ele>225.841</ele>
      </trkpt>
      <trkpt lat="37.38789" lon="27.78878">
        <ele>228.795</ele>
      </trkpt>
      <trkpt lat="37.38784" lon="27.78888">
        <ele>231.42</ele>
      </trkpt>
      <trkpt lat="37.3878" lon="27.78903">
        <ele>234.388</ele>
      </trkpt>
      <trkpt lat="37.38778" lon="27.78911">
        <ele>236.017</ele>
      </trkpt>
      <trkpt lat="37.38772" lon="27.7892">
        <ele>236.367</ele>
      </trkpt>
      <trkpt lat="37.38766" lon="27.78927">
        <ele>236.045</ele>
      </trkpt>
      <trkpt lat="37.38765" lon="27.78933">
        <ele>236.317</ele>
      </trkpt>
      <trkpt lat="37.38762" lon="27.78953">
        <ele>237.752</ele>
      </trkpt>
      <trkpt lat="37.38757" lon="27.78971">
        <ele>239.353</ele>
      </trkpt>
      <trkpt lat="37.38749" lon="27.78989">
        <ele>240.034</ele>
      </trkpt>
      <trkpt lat="37.38736" lon="27.79006">
        <ele>239.259</ele>
      </trkpt>
      <trkpt lat="37.38726" lon="27.79023">
        <ele>239.869</ele>
      </trkpt>
      <trkpt lat="37.38721" lon="27.79041">
        <ele>240.564</ele>
      </trkpt>
      <trkpt lat="37.3872" lon="27.7906">
        <ele>241.049</ele>
      </trkpt>
      <trkpt lat="37.38718" lon="27.79073">
        <ele>239.952</ele>
      </trkpt>
      <trkpt lat="37.38718" lon="27.7909">
        <ele>239.401</ele>
      </trkpt>
      <trkpt lat="37.38715" lon="27.79096">
        <ele>237.961</ele>
      </trkpt>
      <trkpt lat="37.38713" lon="27.79102">
        <ele>237.136</ele>
      </trkpt>
      <trkpt lat="37.38708" lon="27.79117">
        <ele>235.802</ele>
      </trkpt>
      <trkpt lat="37.38702" lon="27.79133">
        <ele>234.941</ele>
      </trkpt>
      <trkpt lat="37.38693" lon="27.79146">
        <ele>232.952</ele>
      </trkpt>
      <trkpt lat="37.38689" lon="27.79149">
        <ele>231.26</ele>
      </trkpt>
      <trkpt lat="37.38675" lon="27.79153">
        <ele>224.642</ele>
      </trkpt>
      <trkpt lat="37.38671" lon="27.79158">
        <ele>223.155</ele>
      </trkpt>
      <trkpt lat="37.38668" lon="27.79175">
        <ele>222.657</ele>
      </trkpt>
      <trkpt lat="37.38672" lon="27.79185">
        <ele>225.392</ele>
      </trkpt>
      <trkpt lat="37.38673" lon="27.79186">
        <ele>225.589</ele>
      </trkpt>
      <trkpt lat="37.38673" lon="27.7919">
        <ele>226.109</ele>
      </trkpt>
      <trkpt lat="37.38674" lon="27.79205">
        <ele>226.892</ele>
      </trkpt>
      <trkpt lat="37.38672" lon="27.79211">
        <ele>225.908</ele>
      </trkpt>
      <trkpt lat="37.38669" lon="27.79215">
        <ele>224.855</ele>
      </trkpt>
      <trkpt lat="37.3866" lon="27.79217">
        <ele>220.231</ele>
      </trkpt>
      <trkpt lat="37.38652" lon="27.79221">
        <ele>216.181</ele>
      </trkpt>
      <trkpt lat="37.38652" lon="27.79214">
        <ele>215.868</ele>
      </trkpt>
      <trkpt lat="37.38652" lon="27.79214">
        <ele>215.676</ele>
      </trkpt>
      <trkpt lat="37.38647" lon="27.79218">
        <ele>213.146</ele>
      </trkpt>
      <trkpt lat="37.3864" lon="27.79236">
        <ele>211.09</ele>
      </trkpt>
      <trkpt lat="37.3864" lon="27.79241">
        <ele>211.413</ele>
      </trkpt>
      <trkpt lat="37.38643" lon="27.79256">
        <ele>214.067</ele>
      </trkpt>
      <trkpt lat="37.38644" lon="27.79259">
        <ele>214.79</ele>
      </trkpt>
      <trkpt lat="37.38646" lon="27.79274">
        <ele>216.711</ele>
      </trkpt>
      <trkpt lat="37.38644" lon="27.79286">
        <ele>216.977</ele>
      </trkpt>
      <trkpt lat="37.38644" lon="27.79287">
        <ele>217.125</ele>
      </trkpt>
      <trkpt lat="37.38645" lon="27.79299">
        <ele>218.849</ele>
      </trkpt>
      <trkpt lat="37.38645" lon="27.79299">
        <ele>218.827</ele>
      </trkpt>
      <trkpt lat="37.38642" lon="27.79316">
        <ele>221.215</ele>
      </trkpt>
      <trkpt lat="37.38638" lon="27.79326">
        <ele>223.138</ele>
      </trkpt>
      <trkpt lat="37.38636" lon="27.79326">
        <ele>223.395</ele>
      </trkpt>
      <trkpt lat="37.38633" lon="27.79324">
        <ele>222.752</ele>
      </trkpt>
      <trkpt lat="37.38627" lon="27.79316">
        <ele>220.563</ele>
      </trkpt>
      <trkpt lat="37.38624" lon="27.79311">
        <ele>219.152</ele>
      </trkpt>
      <trkpt lat="37.38614" lon="27.79302">
        <ele>216.418</ele>
      </trkpt>
      <trkpt lat="37.38609" lon="27.79298">
        <ele>215.496</ele>
      </trkpt>
      <trkpt lat="37.38597" lon="27.793">
        <ele>217.152</ele>
      </trkpt>
      <trkpt lat="37.38585" lon="27.79303">
        <ele>218.935</ele>
      </trkpt>
      <trkpt lat="37.38584" lon="27.79303">
        <ele>219.152</ele>
      </trkpt>
      <trkpt lat="37.38582" lon="27.79305">
        <ele>220.22</ele>
      </trkpt>
      <trkpt lat="37.38574" lon="27.79307">
        <ele>223.087</ele>
      </trkpt>
      <trkpt lat="37.38572" lon="27.79308">
        <ele>223.928</ele>
      </trkpt>
      <trkpt lat="37.38564" lon="27.7931">
        <ele>226.47</ele>
      </trkpt>
      <trkpt lat="37.38563" lon="27.7931">
        <ele>227.14</ele>
      </trkpt>
      <trkpt lat="37.38551" lon="27.79311">
        <ele>230.293</ele>
      </trkpt>
      <trkpt lat="37.38539" lon="27.79307">
        <ele>231.615</ele>
      </trkpt>
      <trkpt lat="37.38532" lon="27.7931">
        <ele>234.607</ele>
      </trkpt>
      <trkpt lat="37.38525" lon="27.79306">
        <ele>234.056</ele>
      </trkpt>
      <trkpt lat="37.38517" lon="27.79323">
        <ele>238.632</ele>
      </trkpt>
      <trkpt lat="37.38513" lon="27.79324">
        <ele>238.675</ele>
      </trkpt>
      <trkpt lat="37.38514" lon="27.7933">
        <ele>240.038</ele>
      </trkpt>
      <trkpt lat="37.38513" lon="27.79336">
        <ele>241.827</ele>
      </trkpt>
      <trkpt lat="37.38512" lon="27.79337">
        <ele>241.989</ele>
      </trkpt>
      <trkpt lat="37.38507" lon="27.79345">
        <ele>243.429</ele>
      </trkpt>
      <trkpt lat="37.38506" lon="27.79351">
        <ele>244.721</ele>
      </trkpt>
      <trkpt lat="37.385" lon="27.79356">
        <ele>244.489</ele>
      </trkpt>
      <trkpt lat="37.38495" lon="27.79363">
        <ele>244.662</ele>
      </trkpt>
      <trkpt lat="37.38493" lon="27.79372">
        <ele>246.785</ele>
      </trkpt>
      <trkpt lat="37.38491" lon="27.79386">
        <ele>250.812</ele>
      </trkpt>
      <trkpt lat="37.38489" lon="27.79399">
        <ele>254.243</ele>
      </trkpt>
      <trkpt lat="37.38489" lon="27.79414">
        <ele>258.909</ele>
      </trkpt>
      <trkpt lat="37.38484" lon="27.79428">
        <ele>261.246</ele>
      </trkpt>
      <trkpt lat="37.38475" lon="27.79444">
        <ele>263.405</ele>
      </trkpt>
      <trkpt lat="37.38472" lon="27.79446">
        <ele>263.425</ele>
      </trkpt>
      <trkpt lat="37.38462" lon="27.79446">
        <ele>261.63</ele>
      </trkpt>
      <trkpt lat="37.38457" lon="27.79448">
        <ele>261.568</ele>
      </trkpt>
      <trkpt lat="37.3845" lon="27.79451">
        <ele>261.767</ele>
      </trkpt>
      <trkpt lat="37.38441" lon="27.79459">
        <ele>264.048</ele>
      </trkpt>
      <trkpt lat="37.38429" lon="27.79463">
        <ele>264.987</ele>
      </trkpt>
      <trkpt lat="37.38417" lon="27.79464">
        <ele>264.186</ele>
      </trkpt>
      <trkpt lat="37.38405" lon="27.79455">
        <ele>261.99</ele>
      </trkpt>
      <trkpt lat="37.38397" lon="27.79451">
        <ele>261.659</ele>
      </trkpt>
      <trkpt lat="37.38393" lon="27.79454">
        <ele>262.484</ele>
      </trkpt>
      <trkpt lat="37.38396" lon="27.79459">
        <ele>263.495</ele>
      </trkpt>
      <trkpt lat="37.38398" lon="27.79464">
        <ele>264.486</ele>
      </trkpt>
      <trkpt lat="37.38405" lon="27.7947">
        <ele>266.107</ele>
      </trkpt>
      <trkpt lat="37.38407" lon="27.79486">
        <ele>268.472</ele>
      </trkpt>
      <trkpt lat="37.38405" lon="27.795">
        <ele>269.954</ele>
      </trkpt>
      <trkpt lat="37.38406" lon="27.79517">
        <ele>271.618</ele>
      </trkpt>
      <trkpt lat="37.38402" lon="27.79531">
        <ele>272.571</ele>
      </trkpt>
      <trkpt lat="37.384" lon="27.79537">
        <ele>273.411</ele>
      </trkpt>
      <trkpt lat="37.38395" lon="27.79554">
        <ele>275.774</ele>
      </trkpt>
      <trkpt lat="37.38385" lon="27.79556">
        <ele>274.793</ele>
      </trkpt>
      <trkpt lat="37.38363" lon="27.79552">
        <ele>272.057</ele>
      </trkpt>
      <trkpt lat="37.3836" lon="27.79552">
        <ele>271.797</ele>
      </trkpt>
      <trkpt lat="37.38347" lon="27.79556">
        <ele>270.478</ele>
      </trkpt>
      <trkpt lat="37.38338" lon="27.79563">
        <ele>271.702</ele>
      </trkpt>
      <trkpt lat="37.38332" lon="27.79576">
        <ele>275.718</ele>
      </trkpt>
      <trkpt lat="37.38321" lon="27.79588">
        <ele>278.941</ele>
      </trkpt>
      <trkpt lat="37.38314" lon="27.7959">
        <ele>278.6</ele>
      </trkpt>
      <trkpt lat="37.383" lon="27.79594">
        <ele>279.589</ele>
      </trkpt>
      <trkpt lat="37.38291" lon="27.79604">
        <ele>283.28</ele>
      </trkpt>
      <trkpt lat="37.3829" lon="27.79605">
        <ele>283.941</ele>
      </trkpt>
      <trkpt lat="37.38283" lon="27.79613">
        <ele>286.305</ele>
      </trkpt>
      <trkpt lat="37.38272" lon="27.7962">
        <ele>287.273</ele>
      </trkpt>
      <trkpt lat="37.38266" lon="27.79625">
        <ele>287.625</ele>
      </trkpt>
      <trkpt lat="37.38255" lon="27.79632">
        <ele>287.635</ele>
      </trkpt>
      <trkpt lat="37.38246" lon="27.79637">
        <ele>287.784</ele>
      </trkpt>
      <trkpt lat="37.38237" lon="27.79638">
        <ele>287.943</ele>
      </trkpt>
      <trkpt lat="37.38236" lon="27.79638">
        <ele>287.964</ele>
      </trkpt>
      <trkpt lat="37.3823" lon="27.79649">
        <ele>287.59</ele>
      </trkpt>
      <trkpt lat="37.38225" lon="27.79652">
        <ele>287.218</ele>
      </trkpt>
      <trkpt lat="37.38222" lon="27.7966">
        <ele>286.514</ele>
      </trkpt>
      <trkpt lat="37.38223" lon="27.79665">
        <ele>286.236</ele>
      </trkpt>
      <trkpt lat="37.38223" lon="27.79668">
        <ele>285.89</ele>
      </trkpt>
      <trkpt lat="37.38214" lon="27.79668">
        <ele>285.822</ele>
      </trkpt>
      <trkpt lat="37.38205" lon="27.79669">
        <ele>285.464</ele>
      </trkpt>
      <trkpt lat="37.38191" lon="27.79668">
        <ele>285.479</ele>
      </trkpt>
      <trkpt lat="37.38189" lon="27.79673">
        <ele>283.946</ele>
      </trkpt>
      <trkpt lat="37.38192" lon="27.79677">
        <ele>283.073</ele>
      </trkpt>
      <trkpt lat="37.38192" lon="27.79681">
        <ele>282.319</ele>
      </trkpt>
      <trkpt lat="37.38193" lon="27.79687">
        <ele>280.773</ele>
      </trkpt>
      <trkpt lat="37.3819" lon="27.79688">
        <ele>280.118</ele>
      </trkpt>
      <trkpt lat="37.38182" lon="27.79689">
        <ele>279.182</ele>
      </trkpt>
      <trkpt lat="37.38175" lon="27.79693">
        <ele>277.23</ele>
      </trkpt>
      <trkpt lat="37.38174" lon="27.79694">
        <ele>276.793</ele>
      </trkpt>
      <trkpt lat="37.38173" lon="27.79699">
        <ele>275.953</ele>
      </trkpt>
      <trkpt lat="37.3816" lon="27.797">
        <ele>275.433</ele>
      </trkpt>
      <trkpt lat="37.38155" lon="27.797">
        <ele>275.751</ele>
      </trkpt>
      <trkpt lat="37.38155" lon="27.797">
        <ele>275.829</ele>
      </trkpt>
      <trkpt lat="37.38145" lon="27.79707">
        <ele>275.396</ele>
      </trkpt>
      <trkpt lat="37.38143" lon="27.79707">
        <ele>275.373</ele>
      </trkpt>
      <trkpt lat="37.38138" lon="27.79709">
        <ele>275.446</ele>
      </trkpt>
      <trkpt lat="37.38136" lon="27.79705">
        <ele>276.626</ele>
      </trkpt>
      <trkpt lat="37.38133" lon="27.79708">
        <ele>276.204</ele>
      </trkpt>
      <trkpt lat="37.38129" lon="27.79714">
        <ele>275.376</ele>
      </trkpt>
      <trkpt lat="37.38127" lon="27.79718">
        <ele>274.478</ele>
      </trkpt>
      <trkpt lat="37.38126" lon="27.79722">
        <ele>273.496</ele>
      </trkpt>
      <trkpt lat="37.38123" lon="27.79731">
        <ele>271.391</ele>
      </trkpt>
      <trkpt lat="37.38115" lon="27.79744">
        <ele>268.451</ele>
      </trkpt>
      <trkpt lat="37.38106" lon="27.79753">
        <ele>266.493</ele>
      </trkpt>
      <trkpt lat="37.38102" lon="27.79766">
        <ele>263.778</ele>
      </trkpt>
      <trkpt lat="37.38089" lon="27.79773">
        <ele>262.777</ele>
      </trkpt>
      <trkpt lat="37.38078" lon="27.79781">
        <ele>261.176</ele>
      </trkpt>
      <trkpt lat="37.38068" lon="27.79789">
        <ele>258.943</ele>
      </trkpt>
      <trkpt lat="37.38055" lon="27.79797">
        <ele>256.459</ele>
      </trkpt>
      <trkpt lat="37.38042" lon="27.79809">
        <ele>251.999</ele>
      </trkpt>
      <trkpt lat="37.3803" lon="27.7982">
        <ele>249.447</ele>
      </trkpt>
      <trkpt lat="37.38019" lon="27.79827">
        <ele>247.076</ele>
      </trkpt>
      <trkpt lat="37.38012" lon="27.79836">
        <ele>244.982</ele>
      </trkpt>
      <trkpt lat="37.38002" lon="27.7984">
        <ele>243.584</ele>
      </trkpt>
      <trkpt lat="37.37996" lon="27.79847">
        <ele>241.634</ele>
      </trkpt>
      <trkpt lat="37.37992" lon="27.7985">
        <ele>240.818</ele>
      </trkpt>
      <trkpt lat="37.37987" lon="27.79853">
        <ele>239.887</ele>
      </trkpt>
      <trkpt lat="37.37975" lon="27.79857">
        <ele>238.523</ele>
      </trkpt>
      <trkpt lat="37.37974" lon="27.79858">
        <ele>238.383</ele>
      </trkpt>
      <trkpt lat="37.37969" lon="27.79862">
        <ele>237.505</ele>
      </trkpt>
      <trkpt lat="37.37966" lon="27.79865">
        <ele>236.597</ele>
      </trkpt>
      <trkpt lat="37.37954" lon="27.79874">
        <ele>234.169</ele>
      </trkpt>
      <trkpt lat="37.37945" lon="27.79878">
        <ele>232.81</ele>
      </trkpt>
      <trkpt lat="37.37939" lon="27.79883">
        <ele>231.535</ele>
      </trkpt>
      <trkpt lat="37.37931" lon="27.79894">
        <ele>229.227</ele>
      </trkpt>
      <trkpt lat="37.37919" lon="27.79899">
        <ele>227.224</ele>
      </trkpt>
      <trkpt lat="37.37907" lon="27.79903">
        <ele>225.636</ele>
      </trkpt>
      <trkpt lat="37.37894" lon="27.7991">
        <ele>223.84</ele>
      </trkpt>
      <trkpt lat="37.37892" lon="27.79912">
        <ele>223.557</ele>
      </trkpt>
      <trkpt lat="37.37886" lon="27.79923">
        <ele>221.526</ele>
      </trkpt>
      <trkpt lat="37.37881" lon="27.79923">
        <ele>221.11</ele>
      </trkpt>
      <trkpt lat="37.3787" lon="27.79918">
        <ele>221.461</ele>
      </trkpt>
      <trkpt lat="37.3786" lon="27.79921">
        <ele>220.085</ele>
      </trkpt>
      <trkpt lat="37.37858" lon="27.79922">
        <ele>219.582</ele>
      </trkpt>
      <trkpt lat="37.37856" lon="27.79923">
        <ele>219.115</ele>
      </trkpt>
      <trkpt lat="37.37854" lon="27.79926">
        <ele>218.23</ele>
      </trkpt>
      <trkpt lat="37.37858" lon="27.79941">
        <ele>216.186</ele>
      </trkpt>
      <trkpt lat="37.3786" lon="27.79945">
        <ele>215.736</ele>
      </trkpt>
      <trkpt lat="37.37863" lon="27.79959">
        <ele>211.872</ele>
      </trkpt>
      <trkpt lat="37.37866" lon="27.7996">
        <ele>211.812</ele>
      </trkpt>
      <trkpt lat="37.37869" lon="27.79963">
        <ele>210.902</ele>
      </trkpt>
      <trkpt lat="37.37871" lon="27.79971">
        <ele>208.676</ele>
      </trkpt>
      <trkpt lat="37.37871" lon="27.7998">
        <ele>206.319</ele>
      </trkpt>
      <trkpt lat="37.37865" lon="27.79983">
        <ele>205.039</ele>
      </trkpt>
      <trkpt lat="37.37853" lon="27.79971">
        <ele>206.781</ele>
      </trkpt>
      <trkpt lat="37.37847" lon="27.79966">
        <ele>207.465</ele>
      </trkpt>
      <trkpt lat="37.37834" lon="27.79964">
        <ele>205.797</ele>
      </trkpt>
      <trkpt lat="37.37826" lon="27.79963">
        <ele>204.34</ele>
      </trkpt>
      <trkpt lat="37.37816" lon="27.79967">
        <ele>200.961</ele>
      </trkpt>
      <trkpt lat="37.37806" lon="27.79967">
        <ele>198.765</ele>
      </trkpt>
      <trkpt lat="37.37793" lon="27.79972">
        <ele>195.222</ele>
      </trkpt>
      <trkpt lat="37.37781" lon="27.79974">
        <ele>192.943</ele>
      </trkpt>
      <trkpt lat="37.37769" lon="27.79973">
        <ele>190.49</ele>
      </trkpt>
      <trkpt lat="37.37759" lon="27.79972">
        <ele>187.652</ele>
      </trkpt>
      <trkpt lat="37.37748" lon="27.7997">
        <ele>185.035</ele>
      </trkpt>
      <trkpt lat="37.37736" lon="27.79962">
        <ele>184.118</ele>
      </trkpt>
      <trkpt lat="37.37729" lon="27.79955">
        <ele>183.471</ele>
      </trkpt>
      <trkpt lat="37.37723" lon="27.79948">
        <ele>182.671</ele>
      </trkpt>
      <trkpt lat="37.37708" lon="27.79942">
        <ele>180.746</ele>
      </trkpt>
      <trkpt lat="37.37708" lon="27.79941">
        <ele>180.756</ele>
      </trkpt>
      <trkpt lat="37.37701" lon="27.7995">
        <ele>178.922</ele>
      </trkpt>
      <trkpt lat="37.37701" lon="27.7995">
        <ele>178.903</ele>
      </trkpt>
      <trkpt lat="37.37701" lon="27.79951">
        <ele>178.749</ele>
      </trkpt>
      <trkpt lat="37.377" lon="27.79952">
        <ele>178.6</ele>
      </trkpt>
      <trkpt lat="37.377" lon="27.79953">
        <ele>178.46</ele>
      </trkpt>
      <trkpt lat="37.377" lon="27.79955">
        <ele>178.353</ele>
      </trkpt>
      <trkpt lat="37.377" lon="27.79956">
        <ele>178.257</ele>
      </trkpt>
      <trkpt lat="37.377" lon="27.79958">
        <ele>178.147</ele>
      </trkpt>
      <trkpt lat="37.37699" lon="27.7996">
        <ele>178.039</ele>
      </trkpt>
      <trkpt lat="37.37699" lon="27.79962">
        <ele>177.916</ele>
      </trkpt>
      <trkpt lat="37.37699" lon="27.79963">
        <ele>177.826</ele>
      </trkpt>
      <trkpt lat="37.37699" lon="27.79967">
        <ele>177.665</ele>
      </trkpt>
      <trkpt lat="37.377" lon="27.79968">
        <ele>177.627</ele>
      </trkpt>
      <trkpt lat="37.377" lon="27.7997">
        <ele>177.565</ele>
      </trkpt>
      <trkpt lat="37.377" lon="27.79971">
        <ele>177.483</ele>
      </trkpt>
      <trkpt lat="37.37701" lon="27.79973">
        <ele>177.434</ele>
      </trkpt>
      <trkpt lat="37.37701" lon="27.79974">
        <ele>177.34</ele>
      </trkpt>
      <trkpt lat="37.37702" lon="27.79975">
        <ele>177.271</ele>
      </trkpt>
      <trkpt lat="37.37702" lon="27.79977">
        <ele>177.186</ele>
      </trkpt>
      <trkpt lat="37.37703" lon="27.79978">
        <ele>177.11</ele>
      </trkpt>
      <trkpt lat="37.37703" lon="27.79979">
        <ele>177.033</ele>
      </trkpt>
      <trkpt lat="37.37703" lon="27.7998">
        <ele>176.949</ele>
      </trkpt>
      <trkpt lat="37.37704" lon="27.79982">
        <ele>176.837</ele>
      </trkpt>
      <trkpt lat="37.37704" lon="27.79984">
        <ele>176.728</ele>
      </trkpt>
      <trkpt lat="37.37704" lon="27.79985">
        <ele>176.618</ele>
      </trkpt>
      <trkpt lat="37.37705" lon="27.79986">
        <ele>176.527</ele>
      </trkpt>
      <trkpt lat="37.37705" lon="27.79988">
        <ele>176.444</ele>
      </trkpt>
      <trkpt lat="37.37706" lon="27.79989">
        <ele>176.34</ele>
      </trkpt>
      <trkpt lat="37.37706" lon="27.79991">
        <ele>176.223</ele>
      </trkpt>
      <trkpt lat="37.37707" lon="27.79993">
        <ele>176.097</ele>
      </trkpt>
      <trkpt lat="37.37708" lon="27.79994">
        <ele>175.967</ele>
      </trkpt>
      <trkpt lat="37.37708" lon="27.79996">
        <ele>175.874</ele>
      </trkpt>
      <trkpt lat="37.37709" lon="27.79997">
        <ele>175.757</ele>
      </trkpt>
      <trkpt lat="37.37709" lon="27.79999">
        <ele>175.633</ele>
      </trkpt>
      <trkpt lat="37.37709" lon="27.8">
        <ele>175.534</ele>
      </trkpt>
      <trkpt lat="37.3771" lon="27.80002">
        <ele>175.401</ele>
      </trkpt>
      <trkpt lat="37.37711" lon="27.80003">
        <ele>175.299</ele>
      </trkpt>
      <trkpt lat="37.37711" lon="27.80005">
        <ele>175.208</ele>
      </trkpt>
      <trkpt lat="37.37712" lon="27.80006">
        <ele>175.119</ele>
      </trkpt>
      <trkpt lat="37.37712" lon="27.80007">
        <ele>175.032</ele>
      </trkpt>
      <trkpt lat="37.37713" lon="27.80009">
        <ele>174.925</ele>
      </trkpt>
      <trkpt lat="37.37713" lon="27.80011">
        <ele>174.77</ele>
      </trkpt>
      <trkpt lat="37.37714" lon="27.80012">
        <ele>174.718</ele>
      </trkpt>
      <trkpt lat="37.37714" lon="27.80013">
        <ele>174.63</ele>
      </trkpt>
      <trkpt lat="37.37715" lon="27.80014">
        <ele>174.55</ele>
      </trkpt>
      <trkpt lat="37.37715" lon="27.80016">
        <ele>174.473</ele>
      </trkpt>
      <trkpt lat="37.37716" lon="27.80017">
        <ele>174.412</ele>
      </trkpt>
      <trkpt lat="37.37716" lon="27.80018">
        <ele>174.346</ele>
      </trkpt>
      <trkpt lat="37.37717" lon="27.80019">
        <ele>174.275</ele>
      </trkpt>
      <trkpt lat="37.37717" lon="27.80021">
        <ele>174.214</ele>
      </trkpt>
      <trkpt lat="37.37718" lon="27.80022">
        <ele>174.142</ele>
      </trkpt>
      <trkpt lat="37.37719" lon="27.80023">
        <ele>174.077</ele>
      </trkpt>
      <trkpt lat="37.37719" lon="27.80025">
        <ele>174.042</ele>
      </trkpt>
      <trkpt lat="37.3772" lon="27.80026">
        <ele>174.001</ele>
      </trkpt>
      <trkpt lat="37.37721" lon="27.80027">
        <ele>173.938</ele>
      </trkpt>
      <trkpt lat="37.37721" lon="27.80028">
        <ele>173.893</ele>
      </trkpt>
      <trkpt lat="37.37721" lon="27.8003">
        <ele>173.862</ele>
      </trkpt>
      <trkpt lat="37.37722" lon="27.80031">
        <ele>173.818</ele>
      </trkpt>
      <trkpt lat="37.37722" lon="27.80033">
        <ele>173.796</ele>
      </trkpt>
      <trkpt lat="37.37722" lon="27.80034">
        <ele>173.794</ele>
      </trkpt>
      <trkpt lat="37.37723" lon="27.80035">
        <ele>173.798</ele>
      </trkpt>
      <trkpt lat="37.37723" lon="27.80037">
        <ele>173.82</ele>
      </trkpt>
      <trkpt lat="37.37724" lon="27.80038">
        <ele>173.856</ele>
      </trkpt>
      <trkpt lat="37.37724" lon="27.80039">
        <ele>173.86</ele>
      </trkpt>
      <trkpt lat="37.37724" lon="27.8004">
        <ele>173.843</ele>
      </trkpt>
      <trkpt lat="37.37725" lon="27.80042">
        <ele>173.82</ele>
      </trkpt>
      <trkpt lat="37.37725" lon="27.80043">
        <ele>173.841</ele>
      </trkpt>
      <trkpt lat="37.37725" lon="27.80044">
        <ele>173.827</ele>
      </trkpt>
      <trkpt lat="37.37726" lon="27.80045">
        <ele>173.87</ele>
      </trkpt>
      <trkpt lat="37.37726" lon="27.80045">
        <ele>173.87</ele>
      </trkpt>
      <trkpt lat="37.37726" lon="27.80045">
        <ele>173.87</ele>
      </trkpt>
      <trkpt lat="37.37726" lon="27.80045">
        <ele>173.87</ele>
      </trkpt>
      <trkpt lat="37.37726" lon="27.80046">
        <ele>173.892</ele>
      </trkpt>
      <trkpt lat="37.37727" lon="27.80048">
        <ele>173.91</ele>
      </trkpt>
      <trkpt lat="37.37727" lon="27.80049">
        <ele>173.938</ele>
      </trkpt>
      <trkpt lat="37.37728" lon="27.8005">
        <ele>173.973</ele>
      </trkpt>
      <trkpt lat="37.37728" lon="27.80051">
        <ele>173.919</ele>
      </trkpt>
      <trkpt lat="37.37728" lon="27.80051">
        <ele>173.919</ele>
      </trkpt>
      <trkpt lat="37.37726" lon="27.80052">
        <ele>173.734</ele>
      </trkpt>
      <trkpt lat="37.37721" lon="27.80067">
        <ele>174.17</ele>
      </trkpt>
      <trkpt lat="37.37717" lon="27.80074">
        <ele>174.497</ele>
      </trkpt>
      <trkpt lat="37.37713" lon="27.8009">
        <ele>176.147</ele>
      </trkpt>
      <trkpt lat="37.37714" lon="27.80104">
        <ele>178.876</ele>
      </trkpt>
      <trkpt lat="37.37715" lon="27.80108">
        <ele>179.625</ele>
      </trkpt>
      <trkpt lat="37.37715" lon="27.80108">
        <ele>179.648</ele>
      </trkpt>
      <trkpt lat="37.37715" lon="27.80109">
        <ele>179.779</ele>
      </trkpt>
      <trkpt lat="37.37713" lon="27.80109">
        <ele>179.662</ele>
      </trkpt>
      <trkpt lat="37.37713" lon="27.80109">
        <ele>179.522</ele>
      </trkpt>
      <trkpt lat="37.3771" lon="27.80118">
        <ele>181.168</ele>
      </trkpt>
      <trkpt lat="37.37707" lon="27.80124">
        <ele>182.175</ele>
      </trkpt>
      <trkpt lat="37.37707" lon="27.80132">
        <ele>183.822</ele>
      </trkpt>
      <trkpt lat="37.37705" lon="27.80133">
        <ele>183.844</ele>
      </trkpt>
      <trkpt lat="37.37704" lon="27.80138">
        <ele>184.808</ele>
      </trkpt>
      <trkpt lat="37.37702" lon="27.80156">
        <ele>187.541</ele>
      </trkpt>
      <trkpt lat="37.37702" lon="27.80163">
        <ele>188.844</ele>
      </trkpt>
      <trkpt lat="37.37703" lon="27.80179">
        <ele>190.81</ele>
      </trkpt>
      <trkpt lat="37.37703" lon="27.80179">
        <ele>190.852</ele>
      </trkpt>
      <trkpt lat="37.37701" lon="27.80179">
        <ele>190.414</ele>
      </trkpt>
      <trkpt lat="37.37698" lon="27.80183">
        <ele>190.072</ele>
      </trkpt>
      <trkpt lat="37.37701" lon="27.802">
        <ele>192.452</ele>
      </trkpt>
      <trkpt lat="37.37706" lon="27.80204">
        <ele>194.284</ele>
      </trkpt>
      <trkpt lat="37.37713" lon="27.80194">
        <ele>195.262</ele>
      </trkpt>
      <trkpt lat="37.3772" lon="27.80188">
        <ele>196.286</ele>
      </trkpt>
      <trkpt lat="37.37725" lon="27.80182">
        <ele>196.643</ele>
      </trkpt>
      <trkpt lat="37.37732" lon="27.80171">
        <ele>196.647</ele>
      </trkpt>
      <trkpt lat="37.37745" lon="27.80165">
        <ele>198.932</ele>
      </trkpt>
      <trkpt lat="37.37746" lon="27.80163">
        <ele>198.933</ele>
      </trkpt>
      <trkpt lat="37.37746" lon="27.80165">
        <ele>199.342</ele>
      </trkpt>
      <trkpt lat="37.37745" lon="27.80168">
        <ele>199.929</ele>
      </trkpt>
      <trkpt lat="37.37753" lon="27.80164">
        <ele>201.416</ele>
      </trkpt>
      <trkpt lat="37.37753" lon="27.80162">
        <ele>201.008</ele>
      </trkpt>
      <trkpt lat="37.37753" lon="27.80162">
        <ele>201.008</ele>
      </trkpt>
      <trkpt lat="37.37753" lon="27.80171">
        <ele>203.367</ele>
      </trkpt>
      <trkpt lat="37.3775" lon="27.80189">
        <ele>206.617</ele>
      </trkpt>
      <trkpt lat="37.37746" lon="27.80211">
        <ele>210.58</ele>
      </trkpt>
      <trkpt lat="37.37747" lon="27.80211">
        <ele>210.723</ele>
      </trkpt>
      <trkpt lat="37.37748" lon="27.80209">
        <ele>210.867</ele>
      </trkpt>
      <trkpt lat="37.3775" lon="27.80216">
        <ele>213.285</ele>
      </trkpt>
      <trkpt lat="37.37749" lon="27.80222">
        <ele>214.641</ele>
      </trkpt>
      <trkpt lat="37.37753" lon="27.80244">
        <ele>215.634</ele>
      </trkpt>
      <trkpt lat="37.37759" lon="27.8025">
        <ele>217.202</ele>
      </trkpt>
      <trkpt lat="37.37765" lon="27.80242">
        <ele>218.644</ele>
      </trkpt>
      <trkpt lat="37.37772" lon="27.80223">
        <ele>220.579</ele>
      </trkpt>
      <trkpt lat="37.37773" lon="27.80221">
        <ele>220.631</ele>
      </trkpt>
      <trkpt lat="37.37773" lon="27.80221">
        <ele>220.608</ele>
      </trkpt>
      <trkpt lat="37.37772" lon="27.80219">
        <ele>220.023</ele>
      </trkpt>
      <trkpt lat="37.37782" lon="27.80224">
        <ele>222.888</ele>
      </trkpt>
      <trkpt lat="37.37785" lon="27.80222">
        <ele>223.589</ele>
      </trkpt>
      <trkpt lat="37.37793" lon="27.80214">
        <ele>224.051</ele>
      </trkpt>
      <trkpt lat="37.37797" lon="27.8021">
        <ele>224.034</ele>
      </trkpt>
      <trkpt lat="37.37802" lon="27.80204">
        <ele>224.084</ele>
      </trkpt>
      <trkpt lat="37.37805" lon="27.80203">
        <ele>224.373</ele>
      </trkpt>
      <trkpt lat="37.37823" lon="27.80199">
        <ele>227.049</ele>
      </trkpt>
      <trkpt lat="37.37823" lon="27.80198">
        <ele>226.981</ele>
      </trkpt>
      <trkpt lat="37.37823" lon="27.80199">
        <ele>227.048</ele>
      </trkpt>
      <trkpt lat="37.37824" lon="27.80199">
        <ele>227.172</ele>
      </trkpt>
      <trkpt lat="37.37826" lon="27.80206">
        <ele>229.087</ele>
      </trkpt>
      <trkpt lat="37.37824" lon="27.80206">
        <ele>228.519</ele>
      </trkpt>
      <trkpt lat="37.37826" lon="27.80211">
        <ele>230.268</ele>
      </trkpt>
      <trkpt lat="37.37829" lon="27.80212">
        <ele>230.992</ele>
      </trkpt>
      <trkpt lat="37.37838" lon="27.80209">
        <ele>232.158</ele>
      </trkpt>
      <trkpt lat="37.37839" lon="27.80209">
        <ele>232.109</ele>
      </trkpt>
      <trkpt lat="37.37849" lon="27.80207">
        <ele>233.905</ele>
      </trkpt>
      <trkpt lat="37.37855" lon="27.80204">
        <ele>234.255</ele>
      </trkpt>
      <trkpt lat="37.37863" lon="27.80193">
        <ele>232.842</ele>
      </trkpt>
      <trkpt lat="37.37866" lon="27.8019">
        <ele>232.448</ele>
      </trkpt>
      <trkpt lat="37.37866" lon="27.8019">
        <ele>232.435</ele>
      </trkpt>
      <trkpt lat="37.3787" lon="27.8019">
        <ele>233.343</ele>
      </trkpt>
      <trkpt lat="37.37877" lon="27.80197">
        <ele>238.028</ele>
      </trkpt>
      <trkpt lat="37.3788" lon="27.80198">
        <ele>238.912</ele>
      </trkpt>
      <trkpt lat="37.37883" lon="27.80198">
        <ele>240.071</ele>
      </trkpt>
      <trkpt lat="37.37892" lon="27.80196">
        <ele>241.522</ele>
      </trkpt>
      <trkpt lat="37.37899" lon="27.80192">
        <ele>242.666</ele>
      </trkpt>
      <trkpt lat="37.37902" lon="27.80191">
        <ele>243.17</ele>
      </trkpt>
      <trkpt lat="37.3791" lon="27.80185">
        <ele>244.195</ele>
      </trkpt>
      <trkpt lat="37.37923" lon="27.80179">
        <ele>247.434</ele>
      </trkpt>
      <trkpt lat="37.37925" lon="27.80177">
        <ele>247.92</ele>
      </trkpt>
      <trkpt lat="37.37932" lon="27.80168">
        <ele>248.781</ele>
      </trkpt>
      <trkpt lat="37.37939" lon="27.80158">
        <ele>250.3</ele>
      </trkpt>
      <trkpt lat="37.37943" lon="27.80146">
        <ele>250.342</ele>
      </trkpt>
      <trkpt lat="37.37944" lon="27.80138">
        <ele>249.466</ele>
      </trkpt>
      <trkpt lat="37.3795" lon="27.80134">
        <ele>250.373</ele>
      </trkpt>
      <trkpt lat="37.37957" lon="27.80135">
        <ele>253.042</ele>
      </trkpt>
      <trkpt lat="37.37966" lon="27.80139">
        <ele>256.955</ele>
      </trkpt>
      <trkpt lat="37.37977" lon="27.80137">
        <ele>259.844</ele>
      </trkpt>
      <trkpt lat="37.37988" lon="27.80132">
        <ele>262.634</ele>
      </trkpt>
      <trkpt lat="37.37998" lon="27.80131">
        <ele>266.012</ele>
      </trkpt>
      <trkpt lat="37.38007" lon="27.80126">
        <ele>266.929</ele>
      </trkpt>
      <trkpt lat="37.38016" lon="27.80121">
        <ele>268.214</ele>
      </trkpt>
      <trkpt lat="37.38024" lon="27.80113">
        <ele>269.13</ele>
      </trkpt>
      <trkpt lat="37.38024" lon="27.80112">
        <ele>269.229</ele>
      </trkpt>
      <trkpt lat="37.38033" lon="27.80104">
        <ele>270.321</ele>
      </trkpt>
      <trkpt lat="37.38037" lon="27.80095">
        <ele>270.516</ele>
      </trkpt>
      <trkpt lat="37.38042" lon="27.8009">
        <ele>271.041</ele>
      </trkpt>
      <trkpt lat="37.38042" lon="27.80086">
        <ele>270.914</ele>
      </trkpt>
      <trkpt lat="37.38048" lon="27.80078">
        <ele>271.047</ele>
      </trkpt>
      <trkpt lat="37.38058" lon="27.80076">
        <ele>273.233</ele>
      </trkpt>
      <trkpt lat="37.3806" lon="27.80077">
        <ele>274.151</ele>
      </trkpt>
      <trkpt lat="37.3807" lon="27.80072">
        <ele>276.044</ele>
      </trkpt>
      <trkpt lat="37.38074" lon="27.80069">
        <ele>276.697</ele>
      </trkpt>
      <trkpt lat="37.38085" lon="27.8006">
        <ele>278.25</ele>
      </trkpt>
      <trkpt lat="37.38093" lon="27.80055">
        <ele>280.202</ele>
      </trkpt>
      <trkpt lat="37.38103" lon="27.80052">
        <ele>282.757</ele>
      </trkpt>
      <trkpt lat="37.38113" lon="27.80042">
        <ele>283.962</ele>
      </trkpt>
      <trkpt lat="37.38117" lon="27.80041">
        <ele>284.973</ele>
      </trkpt>
      <trkpt lat="37.38128" lon="27.80034">
        <ele>286.878</ele>
      </trkpt>
      <trkpt lat="37.38128" lon="27.80033">
        <ele>286.832</ele>
      </trkpt>
      <trkpt lat="37.3813" lon="27.80032">
        <ele>287.161</ele>
      </trkpt>
      <trkpt lat="37.38128" lon="27.8002">
        <ele>285.17</ele>
      </trkpt>
      <trkpt lat="37.38122" lon="27.80012">
        <ele>282.354</ele>
      </trkpt>
      <trkpt lat="37.38122" lon="27.79999">
        <ele>280.552</ele>
      </trkpt>
      <trkpt lat="37.38123" lon="27.79993">
        <ele>280.387</ele>
      </trkpt>
      <trkpt lat="37.38125" lon="27.79988">
        <ele>280.374</ele>
      </trkpt>
      <trkpt lat="37.38138" lon="27.79983">
        <ele>284.244</ele>
      </trkpt>
      <trkpt lat="37.38139" lon="27.79989">
        <ele>285.412</ele>
      </trkpt>
      <trkpt lat="37.38139" lon="27.79989">
        <ele>285.191</ele>
      </trkpt>
      <trkpt lat="37.38141" lon="27.79998">
        <ele>287.162</ele>
      </trkpt>
      <trkpt lat="37.38146" lon="27.79992">
        <ele>287.679</ele>
      </trkpt>
      <trkpt lat="37.38146" lon="27.79992">
        <ele>287.761</ele>
      </trkpt>
      <trkpt lat="37.38151" lon="27.8">
        <ele>289.982</ele>
      </trkpt>
      <trkpt lat="37.38156" lon="27.80001">
        <ele>291.428</ele>
      </trkpt>
      <trkpt lat="37.38158" lon="27.79999">
        <ele>291.749</ele>
      </trkpt>
      <trkpt lat="37.38161" lon="27.79996">
        <ele>291.989</ele>
      </trkpt>
      <trkpt lat="37.38163" lon="27.79994">
        <ele>292.286</ele>
      </trkpt>
      <trkpt lat="37.38166" lon="27.79981">
        <ele>291.609</ele>
      </trkpt>
      <trkpt lat="37.38167" lon="27.7998">
        <ele>291.816</ele>
      </trkpt>
      <trkpt lat="37.38177" lon="27.79979">
        <ele>293.843</ele>
      </trkpt>
      <trkpt lat="37.38183" lon="27.79981">
        <ele>295.299</ele>
      </trkpt>
      <trkpt lat="37.38186" lon="27.79979">
        <ele>295.441</ele>
      </trkpt>
      <trkpt lat="37.38201" lon="27.79977">
        <ele>298.896</ele>
      </trkpt>
      <trkpt lat="37.38214" lon="27.7998">
        <ele>302.937</ele>
      </trkpt>
      <trkpt lat="37.38226" lon="27.7998">
        <ele>306.421</ele>
      </trkpt>
      <trkpt lat="37.38232" lon="27.79975">
        <ele>307.556</ele>
      </trkpt>
      <trkpt lat="37.38237" lon="27.79969">
        <ele>308.419</ele>
      </trkpt>
      <trkpt lat="37.38244" lon="27.79955">
        <ele>308.827</ele>
      </trkpt>
      <trkpt lat="37.38245" lon="27.79958">
        <ele>309.881</ele>
      </trkpt>
      <trkpt lat="37.38252" lon="27.79973">
        <ele>313.851</ele>
      </trkpt>
      <trkpt lat="37.38254" lon="27.79982">
        <ele>315.376</ele>
      </trkpt>
      <trkpt lat="37.38254" lon="27.79987">
        <ele>315.582</ele>
      </trkpt>
      <trkpt lat="37.38257" lon="27.79996">
        <ele>317.32</ele>
      </trkpt>
      <trkpt lat="37.38261" lon="27.80008">
        <ele>319.575</ele>
      </trkpt>
      <trkpt lat="37.38266" lon="27.80006">
        <ele>321.14</ele>
      </trkpt>
      <trkpt lat="37.38267" lon="27.79994">
        <ele>320.696</ele>
      </trkpt>
      <trkpt lat="37.3827" lon="27.79996">
        <ele>321.828</ele>
      </trkpt>
      <trkpt lat="37.38274" lon="27.80009">
        <ele>324.432</ele>
      </trkpt>
      <trkpt lat="37.38277" lon="27.80022">
        <ele>326.37</ele>
      </trkpt>
      <trkpt lat="37.38284" lon="27.80033">
        <ele>329.34</ele>
      </trkpt>
      <trkpt lat="37.38286" lon="27.80042">
        <ele>330.914</ele>
      </trkpt>
      <trkpt lat="37.38288" lon="27.80056">
        <ele>332.629</ele>
      </trkpt>
      <trkpt lat="37.38291" lon="27.80058">
        <ele>333.607</ele>
      </trkpt>
      <trkpt lat="37.38287" lon="27.80062">
        <ele>333.353</ele>
      </trkpt>
      <trkpt lat="37.38279" lon="27.80073">
        <ele>333.447</ele>
      </trkpt>
      <trkpt lat="37.38273" lon="27.80083">
        <ele>333.626</ele>
      </trkpt>
      <trkpt lat="37.3827" lon="27.80101">
        <ele>334.887</ele>
      </trkpt>
      <trkpt lat="37.38271" lon="27.80113">
        <ele>336.578</ele>
      </trkpt>
      <trkpt lat="37.38273" lon="27.80125">
        <ele>338.537</ele>
      </trkpt>
      <trkpt lat="37.38273" lon="27.80136">
        <ele>340.228</ele>
      </trkpt>
      <trkpt lat="37.38275" lon="27.80148">
        <ele>341.765</ele>
      </trkpt>
      <trkpt lat="37.38275" lon="27.80163">
        <ele>343.007</ele>
      </trkpt>
      <trkpt lat="37.38272" lon="27.80177">
        <ele>343.479</ele>
      </trkpt>
      <trkpt lat="37.38269" lon="27.80188">
        <ele>344.02</ele>
      </trkpt>
      <trkpt lat="37.38264" lon="27.80198">
        <ele>344.416</ele>
      </trkpt>
      <trkpt lat="37.38269" lon="27.80199">
        <ele>345.256</ele>
      </trkpt>
      <trkpt lat="37.38281" lon="27.80192">
        <ele>346.324</ele>
      </trkpt>
      <trkpt lat="37.3829" lon="27.80193">
        <ele>347.688</ele>
      </trkpt>
      <trkpt lat="37.38297" lon="27.80192">
        <ele>348.636</ele>
      </trkpt>
      <trkpt lat="37.38302" lon="27.80185">
        <ele>349.138</ele>
      </trkpt>
      <trkpt lat="37.38305" lon="27.80181">
        <ele>349.44</ele>
      </trkpt>
      <trkpt lat="37.38306" lon="27.80181">
        <ele>349.548</ele>
      </trkpt>
      <trkpt lat="37.38311" lon="27.80185">
        <ele>350.282</ele>
      </trkpt>
      <trkpt lat="37.38313" lon="27.80187">
        <ele>350.625</ele>
      </trkpt>
      <trkpt lat="37.38313" lon="27.80199">
        <ele>350.932</ele>
      </trkpt>
      <trkpt lat="37.38316" lon="27.80203">
        <ele>351.269</ele>
      </trkpt>
      <trkpt lat="37.38316" lon="27.80205">
        <ele>351.279</ele>
      </trkpt>
      <trkpt lat="37.38316" lon="27.80209">
        <ele>351.384</ele>
      </trkpt>
      <trkpt lat="37.38316" lon="27.8021">
        <ele>351.407</ele>
      </trkpt>
      <trkpt lat="37.38328" lon="27.80215">
        <ele>351.531</ele>
      </trkpt>
      <trkpt lat="37.38329" lon="27.80214">
        <ele>351.543</ele>
      </trkpt>
      <trkpt lat="37.3834" lon="27.80218">
        <ele>350.882</ele>
      </trkpt>
      <trkpt lat="37.38349" lon="27.80214">
        <ele>350.778</ele>
      </trkpt>
      <trkpt lat="37.38356" lon="27.80212">
        <ele>350.756</ele>
      </trkpt>
      <trkpt lat="37.38363" lon="27.80205">
        <ele>351.091</ele>
      </trkpt>
      <trkpt lat="37.38363" lon="27.80201">
        <ele>351.494</ele>
      </trkpt>
      <trkpt lat="37.38369" lon="27.80202">
        <ele>350.206</ele>
      </trkpt>
      <trkpt lat="37.38372" lon="27.80195">
        <ele>350.206</ele>
      </trkpt>
      <trkpt lat="37.38377" lon="27.80195">
        <ele>348.946</ele>
      </trkpt>
      <trkpt lat="37.38381" lon="27.80188">
        <ele>349.041</ele>
      </trkpt>
      <trkpt lat="37.38387" lon="27.80179">
        <ele>349.74</ele>
      </trkpt>
      <trkpt lat="37.38396" lon="27.80182">
        <ele>347.662</ele>
      </trkpt>
      <trkpt lat="37.38401" lon="27.80184">
        <ele>346.518</ele>
      </trkpt>
      <trkpt lat="37.38409" lon="27.8019">
        <ele>344.106</ele>
      </trkpt>
      <trkpt lat="37.38417" lon="27.80199">
        <ele>341.239</ele>
      </trkpt>
      <trkpt lat="37.38418" lon="27.80203">
        <ele>340.466</ele>
      </trkpt>
      <trkpt lat="37.38427" lon="27.80205">
        <ele>340.007</ele>
      </trkpt>
      <trkpt lat="37.38435" lon="27.80205">
        <ele>339.855</ele>
      </trkpt>
      <trkpt lat="37.38441" lon="27.8021">
        <ele>338.768</ele>
      </trkpt>
      <trkpt lat="37.3845" lon="27.80215">
        <ele>337.561</ele>
      </trkpt>
      <trkpt lat="37.38452" lon="27.80221">
        <ele>336.337</ele>
      </trkpt>
      <trkpt lat="37.38464" lon="27.80232">
        <ele>335.331</ele>
      </trkpt>
      <trkpt lat="37.38467" lon="27.80231">
        <ele>335.529</ele>
      </trkpt>
      <trkpt lat="37.3847" lon="27.80229">
        <ele>335.709</ele>
      </trkpt>
      <trkpt lat="37.38476" lon="27.80225">
        <ele>336.171</ele>
      </trkpt>
      <trkpt lat="37.38487" lon="27.80222">
        <ele>337.131</ele>
      </trkpt>
      <trkpt lat="37.3849" lon="27.8022">
        <ele>337.536</ele>
      </trkpt>
      <trkpt lat="37.3849" lon="27.8022">
        <ele>337.531</ele>
      </trkpt>
      <trkpt lat="37.38485" lon="27.80228">
        <ele>336.725</ele>
      </trkpt>
      <trkpt lat="37.38482" lon="27.80242">
        <ele>335.985</ele>
      </trkpt>
      <trkpt lat="37.38483" lon="27.80251">
        <ele>335.685</ele>
      </trkpt>
      <trkpt lat="37.38491" lon="27.80261">
        <ele>335.96</ele>
      </trkpt>
      <trkpt lat="37.38494" lon="27.8028">
        <ele>335.817</ele>
      </trkpt>
      <trkpt lat="37.38494" lon="27.80287">
        <ele>335.572</ele>
      </trkpt>
      <trkpt lat="37.38495" lon="27.8029">
        <ele>335.683</ele>
      </trkpt>
      <trkpt lat="37.38499" lon="27.80302">
        <ele>335.925</ele>
      </trkpt>
      <trkpt lat="37.38507" lon="27.80318">
        <ele>336.61</ele>
      </trkpt>
      <trkpt lat="37.38508" lon="27.80333">
        <ele>336.143</ele>
      </trkpt>
      <trkpt lat="37.38509" lon="27.80344">
        <ele>335.417</ele>
      </trkpt>
      <trkpt lat="37.38508" lon="27.80342">
        <ele>335.495</ele>
      </trkpt>
      <trkpt lat="37.38503" lon="27.80358">
        <ele>333.573</ele>
      </trkpt>
      <trkpt lat="37.38509" lon="27.80362">
        <ele>333.849</ele>
      </trkpt>
      <trkpt lat="37.38515" lon="27.80367">
        <ele>333.747</ele>
      </trkpt>
      <trkpt lat="37.38517" lon="27.8037">
        <ele>333.551</ele>
      </trkpt>
      <trkpt lat="37.38521" lon="27.80369">
        <ele>334.136</ele>
      </trkpt>
      <trkpt lat="37.38523" lon="27.80366">
        <ele>334.788</ele>
      </trkpt>
      <trkpt lat="37.38523" lon="27.80367">
        <ele>334.634</ele>
      </trkpt>
      <trkpt lat="37.38528" lon="27.80369">
        <ele>334.817</ele>
      </trkpt>
      <trkpt lat="37.3853" lon="27.8037">
        <ele>334.966</ele>
      </trkpt>
      <trkpt lat="37.38533" lon="27.80373">
        <ele>334.902</ele>
      </trkpt>
      <trkpt lat="37.38536" lon="27.80373">
        <ele>335.352</ele>
      </trkpt>
      <trkpt lat="37.38544" lon="27.80377">
        <ele>335.771</ele>
      </trkpt>
      <trkpt lat="37.38557" lon="27.80385">
        <ele>336.502</ele>
      </trkpt>
      <trkpt lat="37.38566" lon="27.80387">
        <ele>336.602</ele>
      </trkpt>
      <trkpt lat="37.38576" lon="27.80397">
        <ele>336.769</ele>
      </trkpt>
      <trkpt lat="37.38583" lon="27.80405">
        <ele>337.573</ele>
      </trkpt>
      <trkpt lat="37.3859" lon="27.80407">
        <ele>338.165</ele>
      </trkpt>
      <trkpt lat="37.38595" lon="27.80412">
        <ele>338.753</ele>
      </trkpt>
      <trkpt lat="37.38603" lon="27.80419">
        <ele>339.45</ele>
      </trkpt>
      <trkpt lat="37.38612" lon="27.80421">
        <ele>340.171</ele>
      </trkpt>
      <trkpt lat="37.38623" lon="27.80425">
        <ele>340.704</ele>
      </trkpt>
      <trkpt lat="37.38628" lon="27.80428">
        <ele>340.981</ele>
      </trkpt>
      <trkpt lat="37.3863" lon="27.80429">
        <ele>341.147</ele>
      </trkpt>
      <trkpt lat="37.3864" lon="27.80431">
        <ele>341.555</ele>
      </trkpt>
      <trkpt lat="37.38643" lon="27.8043">
        <ele>341.74</ele>
      </trkpt>
      <trkpt lat="37.38656" lon="27.80433">
        <ele>342.365</ele>
      </trkpt>
      <trkpt lat="37.38669" lon="27.80433">
        <ele>342.822</ele>
      </trkpt>
      <trkpt lat="37.3867" lon="27.80438">
        <ele>342.502</ele>
      </trkpt>
      <trkpt lat="37.38677" lon="27.80444">
        <ele>342.084</ele>
      </trkpt>
      <trkpt lat="37.3869" lon="27.80442">
        <ele>342.231</ele>
      </trkpt>
      <trkpt lat="37.38699" lon="27.80444">
        <ele>341.66</ele>
      </trkpt>
      <trkpt lat="37.38705" lon="27.80444">
        <ele>340.988</ele>
      </trkpt>
      <trkpt lat="37.38714" lon="27.80447">
        <ele>339.261</ele>
      </trkpt>
      <trkpt lat="37.38725" lon="27.80454">
        <ele>336.394</ele>
      </trkpt>
      <trkpt lat="37.38733" lon="27.80454">
        <ele>335.882</ele>
      </trkpt>
      <trkpt lat="37.38742" lon="27.80455">
        <ele>335.103</ele>
      </trkpt>
      <trkpt lat="37.38753" lon="27.80455">
        <ele>334.657</ele>
      </trkpt>
      <trkpt lat="37.38756" lon="27.80456">
        <ele>334.542</ele>
      </trkpt>
      <trkpt lat="37.38761" lon="27.80463">
        <ele>333.184</ele>
      </trkpt>
      <trkpt lat="37.38767" lon="27.80467">
        <ele>332.539</ele>
      </trkpt>
      <trkpt lat="37.38772" lon="27.80472">
        <ele>331.862</ele>
      </trkpt>
      <trkpt lat="37.38779" lon="27.80467">
        <ele>332.884</ele>
      </trkpt>
      <trkpt lat="37.38784" lon="27.80472">
        <ele>332.258</ele>
      </trkpt>
      <trkpt lat="37.38798" lon="27.80478">
        <ele>331.891</ele>
      </trkpt>
      <trkpt lat="37.38808" lon="27.80489">
        <ele>330.774</ele>
      </trkpt>
      <trkpt lat="37.38819" lon="27.80498">
        <ele>330.194</ele>
      </trkpt>
      <trkpt lat="37.38826" lon="27.80509">
        <ele>328.988</ele>
      </trkpt>
      <trkpt lat="37.3883" lon="27.80516">
        <ele>328.431</ele>
      </trkpt>
      <trkpt lat="37.38834" lon="27.80515">
        <ele>328.9</ele>
      </trkpt>
      <trkpt lat="37.38839" lon="27.80515">
        <ele>329.166</ele>
      </trkpt>
      <trkpt lat="37.38845" lon="27.80518">
        <ele>329.041</ele>
      </trkpt>
      <trkpt lat="37.3885" lon="27.80528">
        <ele>327.634</ele>
      </trkpt>
      <trkpt lat="37.38851" lon="27.80529">
        <ele>327.531</ele>
      </trkpt>
      <trkpt lat="37.38856" lon="27.8054">
        <ele>326.541</ele>
      </trkpt>
      <trkpt lat="37.38867" lon="27.80537">
        <ele>327.023</ele>
      </trkpt>
      <trkpt lat="37.38874" lon="27.80546">
        <ele>325.91</ele>
      </trkpt>
      <trkpt lat="37.38885" lon="27.80545">
        <ele>325.966</ele>
      </trkpt>
      <trkpt lat="37.38892" lon="27.8055">
        <ele>325.221</ele>
      </trkpt>
      <trkpt lat="37.38905" lon="27.80555">
        <ele>325.194</ele>
      </trkpt>
      <trkpt lat="37.38919" lon="27.80555">
        <ele>326.098</ele>
      </trkpt>
      <trkpt lat="37.38925" lon="27.80549">
        <ele>327.141</ele>
      </trkpt>
      <trkpt lat="37.38928" lon="27.80549">
        <ele>327.175</ele>
      </trkpt>
      <trkpt lat="37.38941" lon="27.80552">
        <ele>327.337</ele>
      </trkpt>
      <trkpt lat="37.38955" lon="27.80552">
        <ele>328.233</ele>
      </trkpt>
      <trkpt lat="37.38964" lon="27.80552">
        <ele>328.832</ele>
      </trkpt>
      <trkpt lat="37.38965" lon="27.80553">
        <ele>328.829</ele>
      </trkpt>
      <trkpt lat="37.38971" lon="27.80565">
        <ele>328.188</ele>
      </trkpt>
      <trkpt lat="37.38982" lon="27.80573">
        <ele>329.322</ele>
      </trkpt>
      <trkpt lat="37.38994" lon="27.80575">
        <ele>331.352</ele>
      </trkpt>
      <trkpt lat="37.39007" lon="27.80584">
        <ele>332.765</ele>
      </trkpt>
      <trkpt lat="37.39019" lon="27.80587">
        <ele>333.962</ele>
      </trkpt>
      <trkpt lat="37.39024" lon="27.80591">
        <ele>334.558</ele>
      </trkpt>
      <trkpt lat="37.3903" lon="27.80591">
        <ele>335.194</ele>
      </trkpt>
      <trkpt lat="37.3903" lon="27.806">
        <ele>335.16</ele>
      </trkpt>
      <trkpt lat="37.39038" lon="27.8061">
        <ele>335.417</ele>
      </trkpt>
      <trkpt lat="37.39049" lon="27.80619">
        <ele>334.408</ele>
      </trkpt>
      <trkpt lat="37.39059" lon="27.80624">
        <ele>333.843</ele>
      </trkpt>
      <trkpt lat="37.39071" lon="27.80628">
        <ele>334.129</ele>
      </trkpt>
      <trkpt lat="37.39074" lon="27.8063">
        <ele>333.911</ele>
      </trkpt>
      <trkpt lat="37.39075" lon="27.80629">
        <ele>334.19</ele>
      </trkpt>
      <trkpt lat="37.39079" lon="27.80628">
        <ele>334.595</ele>
      </trkpt>
      <trkpt lat="37.39093" lon="27.80633">
        <ele>336.183</ele>
      </trkpt>
      <trkpt lat="37.39099" lon="27.80639">
        <ele>336.361</ele>
      </trkpt>
      <trkpt lat="37.39107" lon="27.80647">
        <ele>336.781</ele>
      </trkpt>
      <trkpt lat="37.39109" lon="27.80648">
        <ele>336.805</ele>
      </trkpt>
      <trkpt lat="37.39114" lon="27.80658">
        <ele>336.461</ele>
      </trkpt>
      <trkpt lat="37.39118" lon="27.80662">
        <ele>337.083</ele>
      </trkpt>
      <trkpt lat="37.39122" lon="27.80668">
        <ele>337.208</ele>
      </trkpt>
      <trkpt lat="37.39129" lon="27.80681">
        <ele>336.653</ele>
      </trkpt>
      <trkpt lat="37.39132" lon="27.80685">
        <ele>336.861</ele>
      </trkpt>
      <trkpt lat="37.39136" lon="27.80691">
        <ele>336.86</ele>
      </trkpt>
      <trkpt lat="37.39148" lon="27.80694">
        <ele>339.233</ele>
      </trkpt>
      <trkpt lat="37.3915" lon="27.80697">
        <ele>339.249</ele>
      </trkpt>
      <trkpt lat="37.39162" lon="27.80706">
        <ele>340.872</ele>
      </trkpt>
      <trkpt lat="37.39171" lon="27.80711">
        <ele>342.271</ele>
      </trkpt>
      <trkpt lat="37.3918" lon="27.80706">
        <ele>345.574</ele>
      </trkpt>
      <trkpt lat="37.39184" lon="27.80704">
        <ele>347.095</ele>
      </trkpt>
      <trkpt lat="37.39195" lon="27.80701">
        <ele>350.479</ele>
      </trkpt>
      <trkpt lat="37.39198" lon="27.80702">
        <ele>351.164</ele>
      </trkpt>
      <trkpt lat="37.392" lon="27.80703">
        <ele>351.799</ele>
      </trkpt>
      <trkpt lat="37.39208" lon="27.80707">
        <ele>353.446</ele>
      </trkpt>
      <trkpt lat="37.3921" lon="27.8071">
        <ele>353.783</ele>
      </trkpt>
      <trkpt lat="37.39211" lon="27.80715">
        <ele>353.393</ele>
      </trkpt>
      <trkpt lat="37.39209" lon="27.80714">
        <ele>353.099</ele>
      </trkpt>
      <trkpt lat="37.39212" lon="27.80721">
        <ele>353.097</ele>
      </trkpt>
      <trkpt lat="37.39212" lon="27.80722">
        <ele>353.005</ele>
      </trkpt>
      <trkpt lat="37.39208" lon="27.80726">
        <ele>351.518</ele>
      </trkpt>
      <trkpt lat="37.39207" lon="27.80737">
        <ele>350.459</ele>
      </trkpt>
      <trkpt lat="37.39209" lon="27.80737">
        <ele>350.891</ele>
      </trkpt>
      <trkpt lat="37.39212" lon="27.80735">
        <ele>351.723</ele>
      </trkpt>
      <trkpt lat="37.39217" lon="27.80734">
        <ele>353.284</ele>
      </trkpt>
      <trkpt lat="37.39219" lon="27.8073">
        <ele>354.27</ele>
      </trkpt>
      <trkpt lat="37.39222" lon="27.80733">
        <ele>354.845</ele>
      </trkpt>
      <trkpt lat="37.39226" lon="27.80728">
        <ele>356.702</ele>
      </trkpt>
      <trkpt lat="37.39231" lon="27.80723">
        <ele>359.042</ele>
      </trkpt>
      <trkpt lat="37.39234" lon="27.80726">
        <ele>359.925</ele>
      </trkpt>
      <trkpt lat="37.39233" lon="27.80733">
        <ele>358.374</ele>
      </trkpt>
      <trkpt lat="37.39233" lon="27.80737">
        <ele>357.864</ele>
      </trkpt>
      <trkpt lat="37.39233" lon="27.80741">
        <ele>357.243</ele>
      </trkpt>
      <trkpt lat="37.39234" lon="27.80746">
        <ele>357.025</ele>
      </trkpt>
      <trkpt lat="37.39246" lon="27.80751">
        <ele>359.564</ele>
      </trkpt>
      <trkpt lat="37.39259" lon="27.80763">
        <ele>361.201</ele>
      </trkpt>
      <trkpt lat="37.39261" lon="27.80768">
        <ele>360.885</ele>
      </trkpt>
      <trkpt lat="37.39265" lon="27.80767">
        <ele>361.901</ele>
      </trkpt>
      <trkpt lat="37.39272" lon="27.8077">
        <ele>362.692</ele>
      </trkpt>
      <trkpt lat="37.3929" lon="27.8077">
        <ele>367.376</ele>
      </trkpt>
      <trkpt lat="37.39299" lon="27.80773">
        <ele>369.021</ele>
      </trkpt>
      <trkpt lat="37.39319" lon="27.80783">
        <ele>370.868</ele>
      </trkpt>
      <trkpt lat="37.39324" lon="27.80788">
        <ele>370.826</ele>
      </trkpt>
      <trkpt lat="37.39325" lon="27.80788">
        <ele>371.021</ele>
      </trkpt>
      <trkpt lat="37.39332" lon="27.8079">
        <ele>372.082</ele>
      </trkpt>
      <trkpt lat="37.3934" lon="27.80799">
        <ele>371.502</ele>
      </trkpt>
      <trkpt lat="37.39352" lon="27.80806">
        <ele>371.689</ele>
      </trkpt>
      <trkpt lat="37.3937" lon="27.80814">
        <ele>374.475</ele>
      </trkpt>
      <trkpt lat="37.3938" lon="27.80819">
        <ele>376.645</ele>
      </trkpt>
      <trkpt lat="37.39388" lon="27.80833">
        <ele>375.651</ele>
      </trkpt>
      <trkpt lat="37.39392" lon="27.80849">
        <ele>373.448</ele>
      </trkpt>
      <trkpt lat="37.39399" lon="27.80866">
        <ele>372.328</ele>
      </trkpt>
      <trkpt lat="37.39414" lon="27.80879">
        <ele>374.139</ele>
      </trkpt>
      <trkpt lat="37.39419" lon="27.80896">
        <ele>373.175</ele>
      </trkpt>
      <trkpt lat="37.39427" lon="27.80906">
        <ele>374.027</ele>
      </trkpt>
      <trkpt lat="37.39427" lon="27.80908">
        <ele>373.818</ele>
      </trkpt>
      <trkpt lat="37.39432" lon="27.80921">
        <ele>373.26</ele>
      </trkpt>
      <trkpt lat="37.39435" lon="27.80928">
        <ele>372.887</ele>
      </trkpt>
      <trkpt lat="37.39446" lon="27.8093">
        <ele>373.515</ele>
      </trkpt>
      <trkpt lat="37.39459" lon="27.80931">
        <ele>373.48</ele>
      </trkpt>
      <trkpt lat="37.3947" lon="27.80931">
        <ele>373.469</ele>
      </trkpt>
      <trkpt lat="37.39485" lon="27.80932">
        <ele>373.397</ele>
      </trkpt>
      <trkpt lat="37.39496" lon="27.80937">
        <ele>372.291</ele>
      </trkpt>
      <trkpt lat="37.39507" lon="27.80943">
        <ele>371.386</ele>
      </trkpt>
      <trkpt lat="37.39508" lon="27.80943">
        <ele>371.374</ele>
      </trkpt>
      <trkpt lat="37.39524" lon="27.80938">
        <ele>374.989</ele>
      </trkpt>
      <trkpt lat="37.39539" lon="27.80939">
        <ele>376.256</ele>
      </trkpt>
      <trkpt lat="37.39547" lon="27.80935">
        <ele>378.295</ele>
      </trkpt>
      <trkpt lat="37.39564" lon="27.80931">
        <ele>380.29</ele>
      </trkpt>
      <trkpt lat="37.39576" lon="27.80925">
        <ele>382.116</ele>
      </trkpt>
      <trkpt lat="37.39589" lon="27.80931">
        <ele>381.655</ele>
      </trkpt>
      <trkpt lat="37.39592" lon="27.80936">
        <ele>381.021</ele>
      </trkpt>
      <trkpt lat="37.396" lon="27.80952">
        <ele>380.124</ele>
      </trkpt>
      <trkpt lat="37.39609" lon="27.80965">
        <ele>380.781</ele>
      </trkpt>
      <trkpt lat="37.39609" lon="27.80966">
        <ele>380.822</ele>
      </trkpt>
      <trkpt lat="37.39607" lon="27.80969">
        <ele>380.607</ele>
      </trkpt>
      <trkpt lat="37.3961" lon="27.80979">
        <ele>381.399</ele>
      </trkpt>
      <trkpt lat="37.39614" lon="27.80986">
        <ele>382.116</ele>
      </trkpt>
      <trkpt lat="37.39623" lon="27.80997">
        <ele>383.603</ele>
      </trkpt>
      <trkpt lat="37.39626" lon="27.80999">
        <ele>383.974</ele>
      </trkpt>
      <trkpt lat="37.39626" lon="27.81">
        <ele>384.08</ele>
      </trkpt>
      <trkpt lat="37.39629" lon="27.8101">
        <ele>385.375</ele>
      </trkpt>
      <trkpt lat="37.39637" lon="27.81017">
        <ele>386.653</ele>
      </trkpt>
      <trkpt lat="37.39644" lon="27.81021">
        <ele>387.66</ele>
      </trkpt>
      <trkpt lat="37.39651" lon="27.81033">
        <ele>388.994</ele>
      </trkpt>
      <trkpt lat="37.39656" lon="27.81043">
        <ele>389.437</ele>
      </trkpt>
      <trkpt lat="37.39656" lon="27.81047">
        <ele>389.512</ele>
      </trkpt>
      <trkpt lat="37.39659" lon="27.81054">
        <ele>389.706</ele>
      </trkpt>
      <trkpt lat="37.39665" lon="27.81062">
        <ele>389.919</ele>
      </trkpt>
      <trkpt lat="37.39667" lon="27.81059">
        <ele>390.092</ele>
      </trkpt>
      <trkpt lat="37.39678" lon="27.8106">
        <ele>391.58</ele>
      </trkpt>
      <trkpt lat="37.39682" lon="27.81054">
        <ele>392.198</ele>
      </trkpt>
      <trkpt lat="37.39683" lon="27.81053">
        <ele>392.221</ele>
      </trkpt>
      <trkpt lat="37.39686" lon="27.81049">
        <ele>392.422</ele>
      </trkpt>
      <trkpt lat="37.39687" lon="27.81048">
        <ele>392.542</ele>
      </trkpt>
      <trkpt lat="37.39695" lon="27.81042">
        <ele>393.073</ele>
      </trkpt>
      <trkpt lat="37.39706" lon="27.81041">
        <ele>393.752</ele>
      </trkpt>
      <trkpt lat="37.3972" lon="27.81046">
        <ele>395.088</ele>
      </trkpt>
      <trkpt lat="37.39723" lon="27.81045">
        <ele>395.35</ele>
      </trkpt>
      <trkpt lat="37.39722" lon="27.81046">
        <ele>395.284</ele>
      </trkpt>
      <trkpt lat="37.39729" lon="27.81046">
        <ele>396.056</ele>
      </trkpt>
      <trkpt lat="37.39743" lon="27.8105">
        <ele>397.805</ele>
      </trkpt>
      <trkpt lat="37.39751" lon="27.8106">
        <ele>398.802</ele>
      </trkpt>
      <trkpt lat="37.39762" lon="27.81069">
        <ele>399.599</ele>
      </trkpt>
      <trkpt lat="37.39768" lon="27.81077">
        <ele>399.578</ele>
      </trkpt>
      <trkpt lat="37.39779" lon="27.81081">
        <ele>400.313</ele>
      </trkpt>
      <trkpt lat="37.39792" lon="27.81085">
        <ele>401.233</ele>
      </trkpt>
      <trkpt lat="37.39799" lon="27.81094">
        <ele>400.945</ele>
      </trkpt>
      <trkpt lat="37.39799" lon="27.81111">
        <ele>398.602</ele>
      </trkpt>
      <trkpt lat="37.39798" lon="27.81129">
        <ele>396.088</ele>
      </trkpt>
      <trkpt lat="37.398" lon="27.8114">
        <ele>395.358</ele>
      </trkpt>
      <trkpt lat="37.39799" lon="27.81158">
        <ele>393.513</ele>
      </trkpt>
      <trkpt lat="37.39799" lon="27.81164">
        <ele>393.056</ele>
      </trkpt>
      <trkpt lat="37.39801" lon="27.81169">
        <ele>393.44</ele>
      </trkpt>
      <trkpt lat="37.3981" lon="27.81179">
        <ele>395.066</ele>
      </trkpt>
      <trkpt lat="37.39823" lon="27.81188">
        <ele>398.65</ele>
      </trkpt>
      <trkpt lat="37.39824" lon="27.81188">
        <ele>398.799</ele>
      </trkpt>
      <trkpt lat="37.3983" lon="27.81197">
        <ele>399.783</ele>
      </trkpt>
      <trkpt lat="37.39831" lon="27.81198">
        <ele>399.946</ele>
      </trkpt>
      <trkpt lat="37.39834" lon="27.81194">
        <ele>401.143</ele>
      </trkpt>
      <trkpt lat="37.39832" lon="27.81191">
        <ele>401.203</ele>
      </trkpt>
      <trkpt lat="37.3984" lon="27.81186">
        <ele>404.017</ele>
      </trkpt>
      <trkpt lat="37.39839" lon="27.81182">
        <ele>404.263</ele>
      </trkpt>
      <trkpt lat="37.39836" lon="27.81177">
        <ele>404.159</ele>
      </trkpt>
      <trkpt lat="37.39834" lon="27.81171">
        <ele>404.625</ele>
      </trkpt>
      <trkpt lat="37.39832" lon="27.8117">
        <ele>404.103</ele>
      </trkpt>
      <trkpt lat="37.39834" lon="27.8117">
        <ele>404.851</ele>
      </trkpt>
      <trkpt lat="37.39837" lon="27.81166">
        <ele>406.12</ele>
      </trkpt>
      <trkpt lat="37.39846" lon="27.8116">
        <ele>409.336</ele>
      </trkpt>
      <trkpt lat="37.3985" lon="27.8116">
        <ele>410.384</ele>
      </trkpt>
      <trkpt lat="37.39855" lon="27.81162">
        <ele>411.742</ele>
      </trkpt>
      <trkpt lat="37.39859" lon="27.81163">
        <ele>412.832</ele>
      </trkpt>
      <trkpt lat="37.39866" lon="27.81164">
        <ele>414.76</ele>
      </trkpt>
      <trkpt lat="37.39867" lon="27.81161">
        <ele>415.638</ele>
      </trkpt>
      <trkpt lat="37.39869" lon="27.81157">
        <ele>416.653</ele>
      </trkpt>
      <trkpt lat="37.39869" lon="27.81156">
        <ele>416.681</ele>
      </trkpt>
      <trkpt lat="37.39873" lon="27.81155">
        <ele>418.046</ele>
      </trkpt>
      <trkpt lat="37.39876" lon="27.81154">
        <ele>419.097</ele>
      </trkpt>
      <trkpt lat="37.39882" lon="27.81148">
        <ele>421.289</ele>
      </trkpt>
      <trkpt lat="37.39882" lon="27.81149">
        <ele>421.238</ele>
      </trkpt>
      <trkpt lat="37.39885" lon="27.81145">
        <ele>422.379</ele>
      </trkpt>
      <trkpt lat="37.39889" lon="27.81146">
        <ele>423.43</ele>
      </trkpt>
      <trkpt lat="37.39895" lon="27.81146">
        <ele>424.352</ele>
      </trkpt>
      <trkpt lat="37.39897" lon="27.81147">
        <ele>424.682</ele>
      </trkpt>
      <trkpt lat="37.39907" lon="27.81149">
        <ele>426.141</ele>
      </trkpt>
      <trkpt lat="37.39914" lon="27.8115">
        <ele>427.228</ele>
      </trkpt>
      <trkpt lat="37.39926" lon="27.81157">
        <ele>428.351</ele>
      </trkpt>
      <trkpt lat="37.39934" lon="27.81163">
        <ele>429.014</ele>
      </trkpt>
      <trkpt lat="37.39946" lon="27.81167">
        <ele>429.936</ele>
      </trkpt>
      <trkpt lat="37.39961" lon="27.81165">
        <ele>431.302</ele>
      </trkpt>
      <trkpt lat="37.39961" lon="27.81167">
        <ele>431.102</ele>
      </trkpt>
      <trkpt lat="37.39972" lon="27.81169">
        <ele>431.669</ele>
      </trkpt>
      <trkpt lat="37.39973" lon="27.81168">
        <ele>431.891</ele>
      </trkpt>
      <trkpt lat="37.39971" lon="27.81158">
        <ele>432.743</ele>
      </trkpt>
      <trkpt lat="37.39973" lon="27.81134">
        <ele>435.331</ele>
      </trkpt>
      <trkpt lat="37.39978" lon="27.81129">
        <ele>436.098</ele>
      </trkpt>
      <trkpt lat="37.39982" lon="27.8113">
        <ele>436.736</ele>
      </trkpt>
      <trkpt lat="37.39998" lon="27.81133">
        <ele>438.904</ele>
      </trkpt>
      <trkpt lat="37.40008" lon="27.81143">
        <ele>439.261</ele>
      </trkpt>
      <trkpt lat="37.40009" lon="27.81145">
        <ele>439.181</ele>
      </trkpt>
      <trkpt lat="37.40013" lon="27.81152">
        <ele>438.962</ele>
      </trkpt>
      <trkpt lat="37.40017" lon="27.81156">
        <ele>439.114</ele>
      </trkpt>
      <trkpt lat="37.40029" lon="27.81153">
        <ele>440.722</ele>
      </trkpt>
      <trkpt lat="37.4003" lon="27.81153">
        <ele>440.747</ele>
      </trkpt>
      <trkpt lat="37.40031" lon="27.81152">
        <ele>441.006</ele>
      </trkpt>
      <trkpt lat="37.40033" lon="27.81152">
        <ele>441.315</ele>
      </trkpt>
      <trkpt lat="37.40033" lon="27.81152">
        <ele>441.324</ele>
      </trkpt>
      <trkpt lat="37.40035" lon="27.8115">
        <ele>441.516</ele>
      </trkpt>
      <trkpt lat="37.40046" lon="27.81147">
        <ele>443.006</ele>
      </trkpt>
      <trkpt lat="37.40051" lon="27.8115">
        <ele>443.786</ele>
      </trkpt>
      <trkpt lat="37.40061" lon="27.81152">
        <ele>445.492</ele>
      </trkpt>
      <trkpt lat="37.40065" lon="27.81149">
        <ele>446.223</ele>
      </trkpt>
      <trkpt lat="37.40071" lon="27.81154">
        <ele>447.664</ele>
      </trkpt>
      <trkpt lat="37.40072" lon="27.81155">
        <ele>447.777</ele>
      </trkpt>
      <trkpt lat="37.4008" lon="27.8117">
        <ele>449.069</ele>
      </trkpt>
      <trkpt lat="37.40082" lon="27.81169">
        <ele>449.634</ele>
      </trkpt>
      <trkpt lat="37.40094" lon="27.81162">
        <ele>452.666</ele>
      </trkpt>
      <trkpt lat="37.40095" lon="27.81162">
        <ele>452.848</ele>
      </trkpt>
      <trkpt lat="37.40098" lon="27.81152">
        <ele>453.411</ele>
      </trkpt>
      <trkpt lat="37.4011" lon="27.8115">
        <ele>456.166</ele>
      </trkpt>
      <trkpt lat="37.40116" lon="27.81153">
        <ele>457.445</ele>
      </trkpt>
      <trkpt lat="37.40129" lon="27.81158">
        <ele>459.944</ele>
      </trkpt>
      <trkpt lat="37.40129" lon="27.81159">
        <ele>459.856</ele>
      </trkpt>
      <trkpt lat="37.40134" lon="27.8116">
        <ele>460.553</ele>
      </trkpt>
      <trkpt lat="37.40139" lon="27.81172">
        <ele>460.301</ele>
      </trkpt>
      <trkpt lat="37.40144" lon="27.81176">
        <ele>460.359</ele>
      </trkpt>
      <trkpt lat="37.40144" lon="27.81176">
        <ele>460.334</ele>
      </trkpt>
      <trkpt lat="37.40141" lon="27.81178">
        <ele>459.727</ele>
      </trkpt>
      <trkpt lat="37.40146" lon="27.81179">
        <ele>460.121</ele>
      </trkpt>
      <trkpt lat="37.40156" lon="27.81181">
        <ele>460.976</ele>
      </trkpt>
      <trkpt lat="37.40156" lon="27.81181">
        <ele>460.998</ele>
      </trkpt>
      <trkpt lat="37.40156" lon="27.8118">
        <ele>461.218</ele>
      </trkpt>
      <trkpt lat="37.40157" lon="27.81174">
        <ele>462.611</ele>
      </trkpt>
      <trkpt lat="37.40166" lon="27.81171">
        <ele>464.882</ele>
      </trkpt>
      <trkpt lat="37.40176" lon="27.81172">
        <ele>464.953</ele>
      </trkpt>
      <trkpt lat="37.40177" lon="27.81172">
        <ele>465.141</ele>
      </trkpt>
      <trkpt lat="37.4019" lon="27.81171">
        <ele>465.749</ele>
      </trkpt>
      <trkpt lat="37.40204" lon="27.81171">
        <ele>465.96</ele>
      </trkpt>
      <trkpt lat="37.40209" lon="27.81169">
        <ele>466.545</ele>
      </trkpt>
      <trkpt lat="37.40218" lon="27.81163">
        <ele>468.137</ele>
      </trkpt>
      <trkpt lat="37.40224" lon="27.81165">
        <ele>467.621</ele>
      </trkpt>
      <trkpt lat="37.40235" lon="27.81171">
        <ele>467.011</ele>
      </trkpt>
      <trkpt lat="37.40239" lon="27.81169">
        <ele>467.751</ele>
      </trkpt>
      <trkpt lat="37.40248" lon="27.81169">
        <ele>468.346</ele>
      </trkpt>
      <trkpt lat="37.40256" lon="27.81174">
        <ele>468.987</ele>
      </trkpt>
      <trkpt lat="37.40269" lon="27.81183">
        <ele>470.116</ele>
      </trkpt>
      <trkpt lat="37.40273" lon="27.81183">
        <ele>471.038</ele>
      </trkpt>
      <trkpt lat="37.40279" lon="27.81179">
        <ele>473.019</ele>
      </trkpt>
      <trkpt lat="37.40289" lon="27.81177">
        <ele>475.78</ele>
      </trkpt>
      <trkpt lat="37.40296" lon="27.81175">
        <ele>477.79</ele>
      </trkpt>
      <trkpt lat="37.40299" lon="27.81176">
        <ele>478.392</ele>
      </trkpt>
      <trkpt lat="37.40312" lon="27.81181">
        <ele>480.376</ele>
      </trkpt>
      <trkpt lat="37.40313" lon="27.81188">
        <ele>479.233</ele>
      </trkpt>
      <trkpt lat="37.40311" lon="27.81192">
        <ele>477.87</ele>
      </trkpt>
      <trkpt lat="37.40315" lon="27.81195">
        <ele>478.308</ele>
      </trkpt>
      <trkpt lat="37.40326" lon="27.81202">
        <ele>481.056</ele>
      </trkpt>
      <trkpt lat="37.40329" lon="27.81206">
        <ele>481.903</ele>
      </trkpt>
      <trkpt lat="37.40329" lon="27.81208">
        <ele>481.962</ele>
      </trkpt>
      <trkpt lat="37.40333" lon="27.81209">
        <ele>483.002</ele>
      </trkpt>
      <trkpt lat="37.40342" lon="27.8121">
        <ele>484.102</ele>
      </trkpt>
      <trkpt lat="37.40353" lon="27.81212">
        <ele>485.559</ele>
      </trkpt>
      <trkpt lat="37.40362" lon="27.81215">
        <ele>486.807</ele>
      </trkpt>
      <trkpt lat="37.40367" lon="27.81214">
        <ele>487.375</ele>
      </trkpt>
      <trkpt lat="37.40375" lon="27.8122">
        <ele>488.458</ele>
      </trkpt>
      <trkpt lat="37.40378" lon="27.81228">
        <ele>489.434</ele>
      </trkpt>
      <trkpt lat="37.40384" lon="27.81233">
        <ele>490.594</ele>
      </trkpt>
      <trkpt lat="37.4039" lon="27.81245">
        <ele>492.462</ele>
      </trkpt>
      <trkpt lat="37.4039" lon="27.81246">
        <ele>492.586</ele>
      </trkpt>
      <trkpt lat="37.404" lon="27.81251">
        <ele>493.52</ele>
      </trkpt>
      <trkpt lat="37.40401" lon="27.81251">
        <ele>493.528</ele>
      </trkpt>
      <trkpt lat="37.40409" lon="27.81247">
        <ele>493.639</ele>
      </trkpt>
      <trkpt lat="37.40416" lon="27.81246">
        <ele>493.951</ele>
      </trkpt>
      <trkpt lat="37.40422" lon="27.81245">
        <ele>494.556</ele>
      </trkpt>
      <trkpt lat="37.40428" lon="27.81246">
        <ele>495.189</ele>
      </trkpt>
      <trkpt lat="37.40432" lon="27.8124">
        <ele>495.664</ele>
      </trkpt>
      <trkpt lat="37.40435" lon="27.81239">
        <ele>496.01</ele>
      </trkpt>
      <trkpt lat="37.40446" lon="27.81238">
        <ele>497.267</ele>
      </trkpt>
      <trkpt lat="37.40457" lon="27.8124">
        <ele>498.663</ele>
      </trkpt>
      <trkpt lat="37.40466" lon="27.81241">
        <ele>499.857</ele>
      </trkpt>
      <trkpt lat="37.4047" lon="27.81234">
        <ele>500.762</ele>
      </trkpt>
      <trkpt lat="37.40479" lon="27.81229">
        <ele>502.06</ele>
      </trkpt>
      <trkpt lat="37.40485" lon="27.81223">
        <ele>502.858</ele>
      </trkpt>
      <trkpt lat="37.40498" lon="27.81223">
        <ele>503.819</ele>
      </trkpt>
      <trkpt lat="37.40502" lon="27.81226">
        <ele>504.072</ele>
      </trkpt>
      <trkpt lat="37.40507" lon="27.81225">
        <ele>504.24</ele>
      </trkpt>
      <trkpt lat="37.4052" lon="27.81227">
        <ele>504.732</ele>
      </trkpt>
      <trkpt lat="37.40532" lon="27.81231">
        <ele>505.375</ele>
      </trkpt>
      <trkpt lat="37.40545" lon="27.81233">
        <ele>506.578</ele>
      </trkpt>
      <trkpt lat="37.40554" lon="27.81235">
        <ele>507.441</ele>
      </trkpt>
      <trkpt lat="37.4056" lon="27.81239">
        <ele>507.572</ele>
      </trkpt>
      <trkpt lat="37.40575" lon="27.81243">
        <ele>507.929</ele>
      </trkpt>
      <trkpt lat="37.40587" lon="27.81246">
        <ele>508.519</ele>
      </trkpt>
      <trkpt lat="37.40602" lon="27.81248">
        <ele>509.99</ele>
      </trkpt>
      <trkpt lat="37.40613" lon="27.81241">
        <ele>510.798</ele>
      </trkpt>
      <trkpt lat="37.40618" lon="27.81237">
        <ele>510.986</ele>
      </trkpt>
      <trkpt lat="37.4063" lon="27.81233">
        <ele>511.739</ele>
      </trkpt>
      <trkpt lat="37.40645" lon="27.8123">
        <ele>513.338</ele>
      </trkpt>
      <trkpt lat="37.40655" lon="27.81226">
        <ele>515.072</ele>
      </trkpt>
      <trkpt lat="37.40663" lon="27.81222">
        <ele>516.269</ele>
      </trkpt>
      <trkpt lat="37.40666" lon="27.81219">
        <ele>516.789</ele>
      </trkpt>
      <trkpt lat="37.40674" lon="27.81203">
        <ele>518.946</ele>
      </trkpt>
      <trkpt lat="37.40682" lon="27.81192">
        <ele>520.683</ele>
      </trkpt>
      <trkpt lat="37.40684" lon="27.81187">
        <ele>520.897</ele>
      </trkpt>
      <trkpt lat="37.40692" lon="27.81182">
        <ele>522.58</ele>
      </trkpt>
      <trkpt lat="37.40698" lon="27.81173">
        <ele>523.396</ele>
      </trkpt>
      <trkpt lat="37.40699" lon="27.81172">
        <ele>523.611</ele>
      </trkpt>
      <trkpt lat="37.4071" lon="27.81172">
        <ele>526.426</ele>
      </trkpt>
      <trkpt lat="37.40715" lon="27.81178">
        <ele>528.254</ele>
      </trkpt>
      <trkpt lat="37.4072" lon="27.81181">
        <ele>529.819</ele>
      </trkpt>
      <trkpt lat="37.40723" lon="27.81182">
        <ele>530.827</ele>
      </trkpt>
      <trkpt lat="37.40727" lon="27.8118">
        <ele>531.631</ele>
      </trkpt>
      <trkpt lat="37.40733" lon="27.81182">
        <ele>533.166</ele>
      </trkpt>
      <trkpt lat="37.4074" lon="27.81183">
        <ele>534.883</ele>
      </trkpt>
      <trkpt lat="37.40744" lon="27.81182">
        <ele>535.649</ele>
      </trkpt>
      <trkpt lat="37.40746" lon="27.81184">
        <ele>536.408</ele>
      </trkpt>
      <trkpt lat="37.40754" lon="27.81185">
        <ele>538.003</ele>
      </trkpt>
      <trkpt lat="37.40756" lon="27.81185">
        <ele>538.436</ele>
      </trkpt>
      <trkpt lat="37.40768" lon="27.81185">
        <ele>540.615</ele>
      </trkpt>
      <trkpt lat="37.40773" lon="27.81184">
        <ele>541.446</ele>
      </trkpt>
      <trkpt lat="37.40787" lon="27.81188">
        <ele>544.222</ele>
      </trkpt>
      <trkpt lat="37.40801" lon="27.81195">
        <ele>547.303</ele>
      </trkpt>
      <trkpt lat="37.40806" lon="27.81197">
        <ele>548.374</ele>
      </trkpt>
      <trkpt lat="37.40814" lon="27.81202">
        <ele>549.734</ele>
      </trkpt>
      <trkpt lat="37.40815" lon="27.81201">
        <ele>549.877</ele>
      </trkpt>
      <trkpt lat="37.40817" lon="27.8121">
        <ele>551.094</ele>
      </trkpt>
      <trkpt lat="37.40819" lon="27.81217">
        <ele>552.234</ele>
      </trkpt>
      <trkpt lat="37.40816" lon="27.81233">
        <ele>553.627</ele>
      </trkpt>
      <trkpt lat="37.40816" lon="27.81234">
        <ele>553.795</ele>
      </trkpt>
      <trkpt lat="37.40816" lon="27.81255">
        <ele>555.582</ele>
      </trkpt>
      <trkpt lat="37.40822" lon="27.81264">
        <ele>556.714</ele>
      </trkpt>
      <trkpt lat="37.40847" lon="27.81266">
        <ele>560.3</ele>
      </trkpt>
      <trkpt lat="37.4085" lon="27.81266">
        <ele>560.71</ele>
      </trkpt>
      <trkpt lat="37.40864" lon="27.81272">
        <ele>562.831</ele>
      </trkpt>
      <trkpt lat="37.40882" lon="27.81283">
        <ele>564.756</ele>
      </trkpt>
      <trkpt lat="37.40895" lon="27.81296">
        <ele>565.02</ele>
      </trkpt>
      <trkpt lat="37.40906" lon="27.81303">
        <ele>565.331</ele>
      </trkpt>
      <trkpt lat="37.40921" lon="27.81308">
        <ele>566.098</ele>
      </trkpt>
      <trkpt lat="37.40939" lon="27.81301">
        <ele>568.733</ele>
      </trkpt>
      <trkpt lat="37.40954" lon="27.81294">
        <ele>570.859</ele>
      </trkpt>
      <trkpt lat="37.40962" lon="27.8128">
        <ele>572.765</ele>
      </trkpt>
      <trkpt lat="37.40976" lon="27.81273">
        <ele>574.417</ele>
      </trkpt>
      <trkpt lat="37.40992" lon="27.81271">
        <ele>575.871</ele>
      </trkpt>
      <trkpt lat="37.41006" lon="27.81268">
        <ele>577.113</ele>
      </trkpt>
      <trkpt lat="37.41019" lon="27.81263">
        <ele>578.45</ele>
      </trkpt>
      <trkpt lat="37.41035" lon="27.81277">
        <ele>578.579</ele>
      </trkpt>
      <trkpt lat="37.41051" lon="27.81284">
        <ele>579.226</ele>
      </trkpt>
      <trkpt lat="37.4106" lon="27.81297">
        <ele>579.146</ele>
      </trkpt>
      <trkpt lat="37.41068" lon="27.81306">
        <ele>579.32</ele>
      </trkpt>
      <trkpt lat="37.41071" lon="27.81308">
        <ele>579.801</ele>
      </trkpt>
      <trkpt lat="37.41083" lon="27.81313">
        <ele>581.519</ele>
      </trkpt>
      <trkpt lat="37.41089" lon="27.81314">
        <ele>582.275</ele>
      </trkpt>
      <trkpt lat="37.41098" lon="27.81317">
        <ele>583.504</ele>
      </trkpt>
      <trkpt lat="37.41116" lon="27.81324">
        <ele>585.528</ele>
      </trkpt>
      <trkpt lat="37.4113" lon="27.81331">
        <ele>586.546</ele>
      </trkpt>
      <trkpt lat="37.41144" lon="27.8134">
        <ele>586.68</ele>
      </trkpt>
      <trkpt lat="37.41152" lon="27.81349">
        <ele>585.921</ele>
      </trkpt>
      <trkpt lat="37.41155" lon="27.81357">
        <ele>584.715</ele>
      </trkpt>
      <trkpt lat="37.41159" lon="27.81372">
        <ele>582.929</ele>
      </trkpt>
      <trkpt lat="37.41167" lon="27.81383">
        <ele>581.662</ele>
      </trkpt>
      <trkpt lat="37.41169" lon="27.81395">
        <ele>580.214</ele>
      </trkpt>
      <trkpt lat="37.41169" lon="27.814">
        <ele>579.514</ele>
      </trkpt>
      <trkpt lat="37.41162" lon="27.81406">
        <ele>578.759</ele>
      </trkpt>
      <trkpt lat="37.41161" lon="27.81418">
        <ele>577.312</ele>
      </trkpt>
      <trkpt lat="37.41158" lon="27.81423">
        <ele>576.801</ele>
      </trkpt>
      <trkpt lat="37.41152" lon="27.81435">
        <ele>575.38</ele>
      </trkpt>
      <trkpt lat="37.41152" lon="27.81439">
        <ele>574.859</ele>
      </trkpt>
      <trkpt lat="37.41155" lon="27.8144">
        <ele>574.654</ele>
      </trkpt>
      <trkpt lat="37.41157" lon="27.81442">
        <ele>574.272</ele>
      </trkpt>
      <trkpt lat="37.41158" lon="27.81447">
        <ele>573.608</ele>
      </trkpt>
      <trkpt lat="37.41167" lon="27.8145">
        <ele>573.256</ele>
      </trkpt>
      <trkpt lat="37.41173" lon="27.81452">
        <ele>573.743</ele>
      </trkpt>
      <trkpt lat="37.41185" lon="27.8146">
        <ele>574.11</ele>
      </trkpt>
      <trkpt lat="37.41191" lon="27.81459">
        <ele>574.935</ele>
      </trkpt>
      <trkpt lat="37.41197" lon="27.81457">
        <ele>576.156</ele>
      </trkpt>
      <trkpt lat="37.41207" lon="27.8145">
        <ele>578.28</ele>
      </trkpt>
      <trkpt lat="37.41209" lon="27.8145">
        <ele>578.628</ele>
      </trkpt>
      <trkpt lat="37.41214" lon="27.81459">
        <ele>578.632</ele>
      </trkpt>
      <trkpt lat="37.41222" lon="27.81471">
        <ele>579.008</ele>
      </trkpt>
      <trkpt lat="37.41226" lon="27.81474">
        <ele>578.971</ele>
      </trkpt>
      <trkpt lat="37.4123" lon="27.81472">
        <ele>579.604</ele>
      </trkpt>
      <trkpt lat="37.41233" lon="27.8147">
        <ele>580.035</ele>
      </trkpt>
      <trkpt lat="37.41235" lon="27.81469">
        <ele>580.256</ele>
      </trkpt>
      <trkpt lat="37.41241" lon="27.81472">
        <ele>580.421</ele>
      </trkpt>
      <trkpt lat="37.41243" lon="27.81472">
        <ele>580.445</ele>
      </trkpt>
      <trkpt lat="37.41253" lon="27.81474">
        <ele>580.964</ele>
      </trkpt>
      <trkpt lat="37.41257" lon="27.81474">
        <ele>581.437</ele>
      </trkpt>
      <trkpt lat="37.41266" lon="27.81476">
        <ele>582.011</ele>
      </trkpt>
      <trkpt lat="37.4127" lon="27.81474">
        <ele>582.891</ele>
      </trkpt>
      <trkpt lat="37.41281" lon="27.81476">
        <ele>583.909</ele>
      </trkpt>
      <trkpt lat="37.41293" lon="27.81478">
        <ele>585.664</ele>
      </trkpt>
      <trkpt lat="37.41301" lon="27.81489">
        <ele>585.284</ele>
      </trkpt>
      <trkpt lat="37.41312" lon="27.81498">
        <ele>585.769</ele>
      </trkpt>
      <trkpt lat="37.41316" lon="27.815">
        <ele>586.188</ele>
      </trkpt>
      <trkpt lat="37.4132" lon="27.81506">
        <ele>585.982</ele>
      </trkpt>
      <trkpt lat="37.41328" lon="27.81513">
        <ele>585.955</ele>
      </trkpt>
      <trkpt lat="37.41331" lon="27.81518">
        <ele>585.571</ele>
      </trkpt>
      <trkpt lat="37.41336" lon="27.81533">
        <ele>584.487</ele>
      </trkpt>
      <trkpt lat="37.41337" lon="27.81541">
        <ele>583.891</ele>
      </trkpt>
      <trkpt lat="37.4134" lon="27.81553">
        <ele>583.793</ele>
      </trkpt>
      <trkpt lat="37.41342" lon="27.81556">
        <ele>583.913</ele>
      </trkpt>
      <trkpt lat="37.41342" lon="27.8156">
        <ele>583.875</ele>
      </trkpt>
      <trkpt lat="37.41349" lon="27.81564">
        <ele>585.03</ele>
      </trkpt>
      <trkpt lat="37.4136" lon="27.81566">
        <ele>586.672</ele>
      </trkpt>
      <trkpt lat="37.41368" lon="27.81569">
        <ele>588.226</ele>
      </trkpt>
      <trkpt lat="37.41375" lon="27.81581">
        <ele>588.375</ele>
      </trkpt>
      <trkpt lat="37.41381" lon="27.8158">
        <ele>589.678</ele>
      </trkpt>
      <trkpt lat="37.41385" lon="27.81585">
        <ele>589.85</ele>
      </trkpt>
      <trkpt lat="37.4139" lon="27.81595">
        <ele>589.156</ele>
      </trkpt>
      <trkpt lat="37.41389" lon="27.81604">
        <ele>587.341</ele>
      </trkpt>
      <trkpt lat="37.41401" lon="27.81609">
        <ele>587.747</ele>
      </trkpt>
      <trkpt lat="37.41399" lon="27.81618">
        <ele>585.996</ele>
      </trkpt>
      <trkpt lat="37.41409" lon="27.81623">
        <ele>586.059</ele>
      </trkpt>
      <trkpt lat="37.41409" lon="27.81633">
        <ele>584.401</ele>
      </trkpt>
      <trkpt lat="37.41415" lon="27.81647">
        <ele>583.585</ele>
      </trkpt>
      <trkpt lat="37.41416" lon="27.81654">
        <ele>583.399</ele>
      </trkpt>
      <trkpt lat="37.41425" lon="27.81658">
        <ele>584.116</ele>
      </trkpt>
      <trkpt lat="37.41437" lon="27.81663">
        <ele>584.81</ele>
      </trkpt>
      <trkpt lat="37.41436" lon="27.81677">
        <ele>585.171</ele>
      </trkpt>
      <trkpt lat="37.41431" lon="27.81692">
        <ele>585.903</ele>
      </trkpt>
      <trkpt lat="37.41434" lon="27.81697">
        <ele>586.48</ele>
      </trkpt>
      <trkpt lat="37.41442" lon="27.81695">
        <ele>586.884</ele>
      </trkpt>
      <trkpt lat="37.41448" lon="27.81698">
        <ele>587.647</ele>
      </trkpt>
      <trkpt lat="37.41451" lon="27.81713">
        <ele>589.765</ele>
      </trkpt>
      <trkpt lat="37.41452" lon="27.81719">
        <ele>590.624</ele>
      </trkpt>
      <trkpt lat="37.41447" lon="27.81728">
        <ele>591.109</ele>
      </trkpt>
      <trkpt lat="37.4144" lon="27.81736">
        <ele>591.197</ele>
      </trkpt>
      <trkpt lat="37.41433" lon="27.81748">
        <ele>590.974</ele>
      </trkpt>
      <trkpt lat="37.41439" lon="27.81755">
        <ele>592.071</ele>
      </trkpt>
      <trkpt lat="37.4144" lon="27.81755">
        <ele>592.207</ele>
      </trkpt>
      <trkpt lat="37.41448" lon="27.81757">
        <ele>593.693</ele>
      </trkpt>
      <trkpt lat="37.41452" lon="27.81769">
        <ele>593.09</ele>
      </trkpt>
      <trkpt lat="37.41455" lon="27.81781">
        <ele>592.326</ele>
      </trkpt>
      <trkpt lat="37.41462" lon="27.81794">
        <ele>590.651</ele>
      </trkpt>
      <trkpt lat="37.41468" lon="27.818">
        <ele>590.416</ele>
      </trkpt>
      <trkpt lat="37.41466" lon="27.81814">
        <ele>587.328</ele>
      </trkpt>
      <trkpt lat="37.41478" lon="27.81825">
        <ele>587.643</ele>
      </trkpt>
      <trkpt lat="37.41479" lon="27.81838">
        <ele>586.497</ele>
      </trkpt>
      <trkpt lat="37.41477" lon="27.81839">
        <ele>586.075</ele>
      </trkpt>
      <trkpt lat="37.41475" lon="27.81846">
        <ele>585.496</ele>
      </trkpt>
      <trkpt lat="37.41474" lon="27.81843">
        <ele>585.286</ele>
      </trkpt>
      <trkpt lat="37.41474" lon="27.81846">
        <ele>585.288</ele>
      </trkpt>
      <trkpt lat="37.41473" lon="27.81849">
        <ele>585.255</ele>
      </trkpt>
      <trkpt lat="37.41473" lon="27.8185">
        <ele>585.092</ele>
      </trkpt>
      <trkpt lat="37.4147" lon="27.81852">
        <ele>584.721</ele>
      </trkpt>
      <trkpt lat="37.4147" lon="27.81854">
        <ele>584.638</ele>
      </trkpt>
      <trkpt lat="37.41467" lon="27.81863">
        <ele>584.492</ele>
      </trkpt>
      <trkpt lat="37.41467" lon="27.81863">
        <ele>584.503</ele>
      </trkpt>
      <trkpt lat="37.41472" lon="27.8186">
        <ele>584.92</ele>
      </trkpt>
      <trkpt lat="37.41472" lon="27.8186">
        <ele>584.921</ele>
      </trkpt>
      <trkpt lat="37.41474" lon="27.81862">
        <ele>585.459</ele>
      </trkpt>
      <trkpt lat="37.41474" lon="27.81863">
        <ele>585.718</ele>
      </trkpt>
      <trkpt lat="37.41476" lon="27.81865">
        <ele>586.421</ele>
      </trkpt>
      <trkpt lat="37.41478" lon="27.8187">
        <ele>587.443</ele>
      </trkpt>
      <trkpt lat="37.4148" lon="27.81875">
        <ele>588.584</ele>
      </trkpt>
      <trkpt lat="37.41481" lon="27.81879">
        <ele>589.281</ele>
      </trkpt>
      <trkpt lat="37.41482" lon="27.81883">
        <ele>589.971</ele>
      </trkpt>
      <trkpt lat="37.41486" lon="27.81886">
        <ele>591.107</ele>
      </trkpt>
      <trkpt lat="37.4149" lon="27.81888">
        <ele>592.02</ele>
      </trkpt>
      <trkpt lat="37.41491" lon="27.81888">
        <ele>592.263</ele>
      </trkpt>
      <trkpt lat="37.41497" lon="27.8189">
        <ele>593.56</ele>
      </trkpt>
      <trkpt lat="37.415" lon="27.81892">
        <ele>594.353</ele>
      </trkpt>
      <trkpt lat="37.41505" lon="27.81894">
        <ele>594.827</ele>
      </trkpt>
      <trkpt lat="37.41506" lon="27.81893">
        <ele>594.837</ele>
      </trkpt>
      <trkpt lat="37.41506" lon="27.81894">
        <ele>594.97</ele>
      </trkpt>
      <trkpt lat="37.41509" lon="27.81896">
        <ele>595.415</ele>
      </trkpt>
      <trkpt lat="37.41509" lon="27.81896">
        <ele>595.404</ele>
      </trkpt>
      <trkpt lat="37.41514" lon="27.81896">
        <ele>595.789</ele>
      </trkpt>
      <trkpt lat="37.41518" lon="27.81899">
        <ele>596.4</ele>
      </trkpt>
      <trkpt lat="37.41522" lon="27.81901">
        <ele>596.874</ele>
      </trkpt>
      <trkpt lat="37.41523" lon="27.819">
        <ele>596.871</ele>
      </trkpt>
      <trkpt lat="37.41525" lon="27.81898">
        <ele>596.82</ele>
      </trkpt>
      <trkpt lat="37.41527" lon="27.819">
        <ele>597.199</ele>
      </trkpt>
      <trkpt lat="37.41531" lon="27.81899">
        <ele>597.324</ele>
      </trkpt>
      <trkpt lat="37.41536" lon="27.819">
        <ele>597.6</ele>
      </trkpt>
      <trkpt lat="37.41537" lon="27.81897">
        <ele>597.443</ele>
      </trkpt>
      <trkpt lat="37.41541" lon="27.81894">
        <ele>597.465</ele>
      </trkpt>
      <trkpt lat="37.41556" lon="27.81897">
        <ele>598.589</ele>
      </trkpt>
      <trkpt lat="37.41556" lon="27.81897">
        <ele>598.589</ele>
      </trkpt>
      <trkpt lat="37.41559" lon="27.81896">
        <ele>599</ele>
      </trkpt>
      <trkpt lat="37.4157" lon="27.81904">
        <ele>601.141</ele>
      </trkpt>
      <trkpt lat="37.41578" lon="27.81904">
        <ele>602.31</ele>
      </trkpt>
      <trkpt lat="37.4159" lon="27.81909">
        <ele>604.135</ele>
      </trkpt>
      <trkpt lat="37.41593" lon="27.8191">
        <ele>604.581</ele>
      </trkpt>
      <trkpt lat="37.41603" lon="27.81911">
        <ele>605.716</ele>
      </trkpt>
      <trkpt lat="37.41611" lon="27.81918">
        <ele>607.213</ele>
      </trkpt>
      <trkpt lat="37.41616" lon="27.81931">
        <ele>609.232</ele>
      </trkpt>
      <trkpt lat="37.41615" lon="27.81933">
        <ele>609.338</ele>
      </trkpt>
      <trkpt lat="37.41606" lon="27.81946">
        <ele>609.183</ele>
      </trkpt>
      <trkpt lat="37.41606" lon="27.8195">
        <ele>609.544</ele>
      </trkpt>
      <trkpt lat="37.41615" lon="27.81961">
        <ele>612.562</ele>
      </trkpt>
      <trkpt lat="37.41621" lon="27.81965">
        <ele>614.205</ele>
      </trkpt>
      <trkpt lat="37.41625" lon="27.81967">
        <ele>615.242</ele>
      </trkpt>
      <trkpt lat="37.41628" lon="27.81967">
        <ele>616.047</ele>
      </trkpt>
      <trkpt lat="37.4164" lon="27.81971">
        <ele>619.033</ele>
      </trkpt>
      <trkpt lat="37.41643" lon="27.81975">
        <ele>619.728</ele>
      </trkpt>
      <trkpt lat="37.41652" lon="27.81983">
        <ele>621.626</ele>
      </trkpt>
      <trkpt lat="37.41661" lon="27.81993">
        <ele>624.062</ele>
      </trkpt>
      <trkpt lat="37.41668" lon="27.82">
        <ele>626.241</ele>
      </trkpt>
      <trkpt lat="37.41675" lon="27.82011">
        <ele>628.19</ele>
      </trkpt>
      <trkpt lat="37.41677" lon="27.82013">
        <ele>628.724</ele>
      </trkpt>
      <trkpt lat="37.41691" lon="27.82017">
        <ele>632.5</ele>
      </trkpt>
      <trkpt lat="37.41695" lon="27.82022">
        <ele>634.166</ele>
      </trkpt>
      <trkpt lat="37.41695" lon="27.82023">
        <ele>634.398</ele>
      </trkpt>
      <trkpt lat="37.41704" lon="27.8203">
        <ele>636.733</ele>
      </trkpt>
      <trkpt lat="37.41709" lon="27.82038">
        <ele>638.228</ele>
      </trkpt>
      <trkpt lat="37.4171" lon="27.82045">
        <ele>639.153</ele>
      </trkpt>
      <trkpt lat="37.41715" lon="27.82045">
        <ele>640.19</ele>
      </trkpt>
      <trkpt lat="37.41719" lon="27.82045">
        <ele>641.029</ele>
      </trkpt>
      <trkpt lat="37.41719" lon="27.82045">
        <ele>641.029</ele>
      </trkpt>
      <trkpt lat="37.41721" lon="27.82046">
        <ele>641.698</ele>
      </trkpt>
      <trkpt lat="37.41729" lon="27.82048">
        <ele>642.894</ele>
      </trkpt>
      <trkpt lat="37.41737" lon="27.82048">
        <ele>643.691</ele>
      </trkpt>
      <trkpt lat="37.41742" lon="27.82047">
        <ele>644.18</ele>
      </trkpt>
      <trkpt lat="37.41749" lon="27.82042">
        <ele>644.924</ele>
      </trkpt>
      <trkpt lat="37.41753" lon="27.82037">
        <ele>645.337</ele>
      </trkpt>
      <trkpt lat="37.41758" lon="27.82024">
        <ele>646.093</ele>
      </trkpt>
      <trkpt lat="37.41767" lon="27.8202">
        <ele>647.271</ele>
      </trkpt>
      <trkpt lat="37.41768" lon="27.82018">
        <ele>647.45</ele>
      </trkpt>
      <trkpt lat="37.41771" lon="27.82015">
        <ele>647.9</ele>
      </trkpt>
      <trkpt lat="37.41776" lon="27.82011">
        <ele>648.632</ele>
      </trkpt>
      <trkpt lat="37.41786" lon="27.82013">
        <ele>650.565</ele>
      </trkpt>
      <trkpt lat="37.41787" lon="27.82011">
        <ele>650.801</ele>
      </trkpt>
      <trkpt lat="37.41792" lon="27.82003">
        <ele>651.689</ele>
      </trkpt>
      <trkpt lat="37.41794" lon="27.82001">
        <ele>651.991</ele>
      </trkpt>
      <trkpt lat="37.41795" lon="27.82">
        <ele>652.16</ele>
      </trkpt>
      <trkpt lat="37.41793" lon="27.82005">
        <ele>651.907</ele>
      </trkpt>
      <trkpt lat="37.4179" lon="27.82004">
        <ele>651.217</ele>
      </trkpt>
      <trkpt lat="37.41789" lon="27.82007">
        <ele>651.033</ele>
      </trkpt>
      <trkpt lat="37.41782" lon="27.82007">
        <ele>649.735</ele>
      </trkpt>
      <trkpt lat="37.41779" lon="27.82008">
        <ele>649.233</ele>
      </trkpt>
      <trkpt lat="37.4177" lon="27.82014">
        <ele>647.773</ele>
      </trkpt>
      <trkpt lat="37.41762" lon="27.8202">
        <ele>646.551</ele>
      </trkpt>
      <trkpt lat="37.41759" lon="27.82026">
        <ele>646.299</ele>
      </trkpt>
      <trkpt lat="37.41753" lon="27.82037">
        <ele>645.444</ele>
      </trkpt>
      <trkpt lat="37.41746" lon="27.82046">
        <ele>644.564</ele>
      </trkpt>
      <trkpt lat="37.41744" lon="27.82049">
        <ele>644.445</ele>
      </trkpt>
      <trkpt lat="37.41743" lon="27.8205">
        <ele>644.371</ele>
      </trkpt>
      <trkpt lat="37.41743" lon="27.8205">
        <ele>644.371</ele>
      </trkpt>
      <trkpt lat="37.41733" lon="27.82049">
        <ele>643.285</ele>
      </trkpt>
      <trkpt lat="37.41727" lon="27.82053">
        <ele>643.126</ele>
      </trkpt>
      <trkpt lat="37.41719" lon="27.82052">
        <ele>641.87</ele>
      </trkpt>
      <trkpt lat="37.41714" lon="27.8205">
        <ele>640.336</ele>
      </trkpt>
      <trkpt lat="37.41715" lon="27.8205">
        <ele>640.804</ele>
      </trkpt>
      <trkpt lat="37.41711" lon="27.82059">
        <ele>640.257</ele>
      </trkpt>
      <trkpt lat="37.41709" lon="27.82061">
        <ele>639.655</ele>
      </trkpt>
      <trkpt lat="37.41707" lon="27.82072">
        <ele>639.408</ele>
      </trkpt>
      <trkpt lat="37.41708" lon="27.82082">
        <ele>639.946</ele>
      </trkpt>
      <trkpt lat="37.41703" lon="27.82091">
        <ele>638.383</ele>
      </trkpt>
      <trkpt lat="37.41698" lon="27.82095">
        <ele>637.014</ele>
      </trkpt>
      <trkpt lat="37.41695" lon="27.82099">
        <ele>635.853</ele>
      </trkpt>
      <trkpt lat="37.41685" lon="27.8211">
        <ele>633.312</ele>
      </trkpt>
      <trkpt lat="37.41685" lon="27.82119">
        <ele>632.879</ele>
      </trkpt>
      <trkpt lat="37.41681" lon="27.8212">
        <ele>632.032</ele>
      </trkpt>
      <trkpt lat="37.41675" lon="27.82122">
        <ele>630.834</ele>
      </trkpt>
      <trkpt lat="37.41668" lon="27.82129">
        <ele>628.886</ele>
      </trkpt>
      <trkpt lat="37.41665" lon="27.82129">
        <ele>628.481</ele>
      </trkpt>
      <trkpt lat="37.41658" lon="27.82122">
        <ele>627.337</ele>
      </trkpt>
      <trkpt lat="37.4166" lon="27.82126">
        <ele>627.611</ele>
      </trkpt>
      <trkpt lat="37.41657" lon="27.82131">
        <ele>626.933</ele>
      </trkpt>
      <trkpt lat="37.41657" lon="27.82133">
        <ele>626.815</ele>
      </trkpt>
      <trkpt lat="37.41659" lon="27.82139">
        <ele>626.915</ele>
      </trkpt>
      <trkpt lat="37.41658" lon="27.82145">
        <ele>626.263</ele>
      </trkpt>
      <trkpt lat="37.41656" lon="27.82152">
        <ele>625.179</ele>
      </trkpt>
      <trkpt lat="37.41652" lon="27.82158">
        <ele>623.825</ele>
      </trkpt>
      <trkpt lat="37.41646" lon="27.82155">
        <ele>623.089</ele>
      </trkpt>
      <trkpt lat="37.41641" lon="27.82153">
        <ele>622.343</ele>
      </trkpt>
      <trkpt lat="37.41639" lon="27.82153">
        <ele>621.821</ele>
      </trkpt>
      <trkpt lat="37.4164" lon="27.82164">
        <ele>620.722</ele>
      </trkpt>
      <trkpt lat="37.41634" lon="27.82162">
        <ele>619.606</ele>
      </trkpt>
      <trkpt lat="37.41632" lon="27.82169">
        <ele>618.05</ele>
      </trkpt>
      <trkpt lat="37.41632" lon="27.82173">
        <ele>616.953</ele>
      </trkpt>
      <trkpt lat="37.41632" lon="27.82173">
        <ele>616.953</ele>
      </trkpt>
      <trkpt lat="37.41632" lon="27.82173">
        <ele>616.953</ele>
      </trkpt>
      <trkpt lat="37.41632" lon="27.82177">
        <ele>615.956</ele>
      </trkpt>
      <trkpt lat="37.41631" lon="27.82177">
        <ele>615.822</ele>
      </trkpt>
      <trkpt lat="37.41631" lon="27.82179">
        <ele>615.462</ele>
      </trkpt>
      <trkpt lat="37.41631" lon="27.82182">
        <ele>614.863</ele>
      </trkpt>
      <trkpt lat="37.41629" lon="27.82188">
        <ele>612.899</ele>
      </trkpt>
      <trkpt lat="37.41628" lon="27.8219">
        <ele>612.47</ele>
      </trkpt>
      <trkpt lat="37.41632" lon="27.82201">
        <ele>610.834</ele>
      </trkpt>
      <trkpt lat="37.41633" lon="27.82204">
        <ele>610.516</ele>
      </trkpt>
      <trkpt lat="37.41635" lon="27.82209">
        <ele>609.806</ele>
      </trkpt>
      <trkpt lat="37.41641" lon="27.8221">
        <ele>610.446</ele>
      </trkpt>
      <trkpt lat="37.41657" lon="27.82216">
        <ele>611.361</ele>
      </trkpt>
      <trkpt lat="37.41662" lon="27.82216">
        <ele>611.848</ele>
      </trkpt>
      <trkpt lat="37.41672" lon="27.82217">
        <ele>613.987</ele>
      </trkpt>
      <trkpt lat="37.4168" lon="27.82217">
        <ele>616.051</ele>
      </trkpt>
      <trkpt lat="37.41683" lon="27.82218">
        <ele>616.65</ele>
      </trkpt>
      <trkpt lat="37.41674" lon="27.82224">
        <ele>613.061</ele>
      </trkpt>
      <trkpt lat="37.41666" lon="27.82228">
        <ele>610.648</ele>
      </trkpt>
      <trkpt lat="37.41659" lon="27.82234">
        <ele>609.55</ele>
      </trkpt>
      <trkpt lat="37.41653" lon="27.82244">
        <ele>607.95</ele>
      </trkpt>
      <trkpt lat="37.41643" lon="27.82255">
        <ele>605.984</ele>
      </trkpt>
      <trkpt lat="37.4163" lon="27.82259">
        <ele>605.333</ele>
      </trkpt>
      <trkpt lat="37.41619" lon="27.82263">
        <ele>605.205</ele>
      </trkpt>
      <trkpt lat="37.41609" lon="27.82266">
        <ele>605.006</ele>
      </trkpt>
      <trkpt lat="37.41598" lon="27.82266">
        <ele>604.235</ele>
      </trkpt>
      <trkpt lat="37.41596" lon="27.82266">
        <ele>604.166</ele>
      </trkpt>
      <trkpt lat="37.41579" lon="27.82255">
        <ele>600.885</ele>
      </trkpt>
      <trkpt lat="37.41568" lon="27.82255">
        <ele>599.048</ele>
      </trkpt>
      <trkpt lat="37.41563" lon="27.82254">
        <ele>598.03</ele>
      </trkpt>
      <trkpt lat="37.41557" lon="27.82255">
        <ele>597.133</ele>
      </trkpt>
      <trkpt lat="37.41545" lon="27.82266">
        <ele>596.663</ele>
      </trkpt>
      <trkpt lat="37.4153" lon="27.82272">
        <ele>595.188</ele>
      </trkpt>
      <trkpt lat="37.41524" lon="27.82273">
        <ele>593.845</ele>
      </trkpt>
      <trkpt lat="37.41526" lon="27.82272">
        <ele>594.123</ele>
      </trkpt>
      <trkpt lat="37.41513" lon="27.8228">
        <ele>592.136</ele>
      </trkpt>
      <trkpt lat="37.41501" lon="27.82287">
        <ele>588.838</ele>
      </trkpt>
      <trkpt lat="37.41495" lon="27.82304">
        <ele>588.379</ele>
      </trkpt>
      <trkpt lat="37.41491" lon="27.82311">
        <ele>587.189</ele>
      </trkpt>
      <trkpt lat="37.41492" lon="27.82312">
        <ele>587.437</ele>
      </trkpt>
      <trkpt lat="37.41503" lon="27.82331">
        <ele>592.509</ele>
      </trkpt>
      <trkpt lat="37.41506" lon="27.82345">
        <ele>593.37</ele>
      </trkpt>
      <trkpt lat="37.41507" lon="27.82347">
        <ele>593.293</ele>
      </trkpt>
      <trkpt lat="37.41501" lon="27.82367">
        <ele>590.176</ele>
      </trkpt>
      <trkpt lat="37.41499" lon="27.82371">
        <ele>590.12</ele>
      </trkpt>
      <trkpt lat="37.41489" lon="27.82383">
        <ele>588.08</ele>
      </trkpt>
      <trkpt lat="37.41479" lon="27.82395">
        <ele>587.099</ele>
      </trkpt>
      <trkpt lat="37.41474" lon="27.82402">
        <ele>587.48</ele>
      </trkpt>
      <trkpt lat="37.41464" lon="27.82409">
        <ele>586.311</ele>
      </trkpt>
      <trkpt lat="37.41462" lon="27.8241">
        <ele>585.815</ele>
      </trkpt>
      <trkpt lat="37.41451" lon="27.8241">
        <ele>582.663</ele>
      </trkpt>
      <trkpt lat="37.4144" lon="27.82414">
        <ele>580.037</ele>
      </trkpt>
      <trkpt lat="37.41429" lon="27.82418">
        <ele>577.815</ele>
      </trkpt>
      <trkpt lat="37.41417" lon="27.82421">
        <ele>574.949</ele>
      </trkpt>
      <trkpt lat="37.41411" lon="27.82424">
        <ele>573.769</ele>
      </trkpt>
      <trkpt lat="37.414" lon="27.82438">
        <ele>573.158</ele>
      </trkpt>
      <trkpt lat="37.41389" lon="27.82447">
        <ele>571.497</ele>
      </trkpt>
      <trkpt lat="37.41375" lon="27.8246">
        <ele>569.361</ele>
      </trkpt>
      <trkpt lat="37.41372" lon="27.82475">
        <ele>569.793</ele>
      </trkpt>
      <trkpt lat="37.41367" lon="27.82493">
        <ele>569.295</ele>
      </trkpt>
      <trkpt lat="37.41368" lon="27.82515">
        <ele>572.894</ele>
      </trkpt>
      <trkpt lat="37.41367" lon="27.8252">
        <ele>573.414</ele>
      </trkpt>
      <trkpt lat="37.41358" lon="27.8253">
        <ele>572.532</ele>
      </trkpt>
      <trkpt lat="37.41345" lon="27.82544">
        <ele>572.43</ele>
      </trkpt>
      <trkpt lat="37.41338" lon="27.82547">
        <ele>571.807</ele>
      </trkpt>
      <trkpt lat="37.4132" lon="27.82546">
        <ele>568.168</ele>
      </trkpt>
      <trkpt lat="37.41304" lon="27.82541">
        <ele>564.41</ele>
      </trkpt>
      <trkpt lat="37.41291" lon="27.82536">
        <ele>563.043</ele>
      </trkpt>
      <trkpt lat="37.41278" lon="27.82529">
        <ele>561.297</ele>
      </trkpt>
      <trkpt lat="37.41274" lon="27.82528">
        <ele>561.196</ele>
      </trkpt>
      <trkpt lat="37.41264" lon="27.82527">
        <ele>561.377</ele>
      </trkpt>
      <trkpt lat="37.41259" lon="27.82527">
        <ele>561.392</ele>
      </trkpt>
      <trkpt lat="37.41247" lon="27.82528">
        <ele>561.743</ele>
      </trkpt>
      <trkpt lat="37.41238" lon="27.82529">
        <ele>561.328</ele>
      </trkpt>
      <trkpt lat="37.41226" lon="27.82529">
        <ele>560.557</ele>
      </trkpt>
      <trkpt lat="37.41223" lon="27.82534">
        <ele>561.494</ele>
      </trkpt>
      <trkpt lat="37.41217" lon="27.82547">
        <ele>563.859</ele>
      </trkpt>
      <trkpt lat="37.41217" lon="27.82549">
        <ele>564.168</ele>
      </trkpt>
      <trkpt lat="37.41207" lon="27.82562">
        <ele>563.985</ele>
      </trkpt>
      <trkpt lat="37.41197" lon="27.82577">
        <ele>562.994</ele>
      </trkpt>
      <trkpt lat="37.41189" lon="27.82595">
        <ele>562.24</ele>
      </trkpt>
      <trkpt lat="37.41189" lon="27.82604">
        <ele>562.662</ele>
      </trkpt>
      <trkpt lat="37.4119" lon="27.82611">
        <ele>563.434</ele>
      </trkpt>
      <trkpt lat="37.41187" lon="27.82621">
        <ele>563.021</ele>
      </trkpt>
      <trkpt lat="37.41188" lon="27.82636">
        <ele>563.723</ele>
      </trkpt>
      <trkpt lat="37.41186" lon="27.82649">
        <ele>563.661</ele>
      </trkpt>
      <trkpt lat="37.41192" lon="27.8266">
        <ele>565.854</ele>
      </trkpt>
      <trkpt lat="37.41195" lon="27.82675">
        <ele>566.967</ele>
      </trkpt>
      <trkpt lat="37.41197" lon="27.8268">
        <ele>567.273</ele>
      </trkpt>
      <trkpt lat="37.41206" lon="27.82693">
        <ele>569.482</ele>
      </trkpt>
      <trkpt lat="37.41219" lon="27.82698">
        <ele>572.218</ele>
      </trkpt>
      <trkpt lat="37.41219" lon="27.82699">
        <ele>572.365</ele>
      </trkpt>
      <trkpt lat="37.41227" lon="27.82714">
        <ele>572.008</ele>
      </trkpt>
      <trkpt lat="37.41233" lon="27.82726">
        <ele>571.493</ele>
      </trkpt>
      <trkpt lat="37.41235" lon="27.82742">
        <ele>569.764</ele>
      </trkpt>
      <trkpt lat="37.4123" lon="27.82746">
        <ele>567.958</ele>
      </trkpt>
      <trkpt lat="37.41228" lon="27.82763">
        <ele>566.213</ele>
      </trkpt>
      <trkpt lat="37.41226" lon="27.82779">
        <ele>565.299</ele>
      </trkpt>
      <trkpt lat="37.41226" lon="27.82793">
        <ele>565.689</ele>
      </trkpt>
      <trkpt lat="37.41225" lon="27.82802">
        <ele>565.861</ele>
      </trkpt>
      <trkpt lat="37.41226" lon="27.82803">
        <ele>566.05</ele>
      </trkpt>
      <trkpt lat="37.41229" lon="27.8281">
        <ele>567.312</ele>
      </trkpt>
      <trkpt lat="37.41235" lon="27.82822">
        <ele>569.271</ele>
      </trkpt>
      <trkpt lat="37.41243" lon="27.82834">
        <ele>571.179</ele>
      </trkpt>
      <trkpt lat="37.41246" lon="27.8284">
        <ele>571.892</ele>
      </trkpt>
      <trkpt lat="37.4125" lon="27.82845">
        <ele>572.713</ele>
      </trkpt>
      <trkpt lat="37.41255" lon="27.82855">
        <ele>573.361</ele>
      </trkpt>
      <trkpt lat="37.41266" lon="27.82863">
        <ele>575.284</ele>
      </trkpt>
      <trkpt lat="37.41277" lon="27.82872">
        <ele>576.696</ele>
      </trkpt>
      <trkpt lat="37.4128" lon="27.82878">
        <ele>576.602</ele>
      </trkpt>
      <trkpt lat="37.41275" lon="27.82883">
        <ele>574.995</ele>
      </trkpt>
      <trkpt lat="37.41274" lon="27.82883">
        <ele>574.847</ele>
      </trkpt>
      <trkpt lat="37.41268" lon="27.82896">
        <ele>572.077</ele>
      </trkpt>
      <trkpt lat="37.41267" lon="27.82897">
        <ele>571.762</ele>
      </trkpt>
      <trkpt lat="37.41265" lon="27.829">
        <ele>571.073</ele>
      </trkpt>
      <trkpt lat="37.41261" lon="27.82903">
        <ele>569.888</ele>
      </trkpt>
      <trkpt lat="37.41256" lon="27.82908">
        <ele>568.527</ele>
      </trkpt>
      <trkpt lat="37.41247" lon="27.82914">
        <ele>566.845</ele>
      </trkpt>
      <trkpt lat="37.41247" lon="27.82914">
        <ele>566.842</ele>
      </trkpt>
      <trkpt lat="37.41254" lon="27.82913">
        <ele>567.792</ele>
      </trkpt>
      <trkpt lat="37.41256" lon="27.82929">
        <ele>567.66</ele>
      </trkpt>
      <trkpt lat="37.41255" lon="27.82934">
        <ele>567.532</ele>
      </trkpt>
      <trkpt lat="37.4125" lon="27.82931">
        <ele>567.047</ele>
      </trkpt>
      <trkpt lat="37.41245" lon="27.82929">
        <ele>566.412</ele>
      </trkpt>
      <trkpt lat="37.41242" lon="27.82934">
        <ele>565.933</ele>
      </trkpt>
      <trkpt lat="37.41248" lon="27.82943">
        <ele>566.655</ele>
      </trkpt>
      <trkpt lat="37.41249" lon="27.82946">
        <ele>566.766</ele>
      </trkpt>
      <trkpt lat="37.41245" lon="27.82947">
        <ele>566.131</ele>
      </trkpt>
      <trkpt lat="37.41235" lon="27.82951">
        <ele>564.389</ele>
      </trkpt>
      <trkpt lat="37.41231" lon="27.82954">
        <ele>563.59</ele>
      </trkpt>
      <trkpt lat="37.41227" lon="27.8295">
        <ele>563.281</ele>
      </trkpt>
      <trkpt lat="37.41221" lon="27.82952">
        <ele>562.23</ele>
      </trkpt>
      <trkpt lat="37.41219" lon="27.82956">
        <ele>561.499</ele>
      </trkpt>
      <trkpt lat="37.4121" lon="27.82964">
        <ele>559.403</ele>
      </trkpt>
      <trkpt lat="37.41203" lon="27.82966">
        <ele>557.918</ele>
      </trkpt>
      <trkpt lat="37.41201" lon="27.82969">
        <ele>557.429</ele>
      </trkpt>
      <trkpt lat="37.4119" lon="27.82974">
        <ele>555.779</ele>
      </trkpt>
      <trkpt lat="37.41174" lon="27.82985">
        <ele>555.651</ele>
      </trkpt>
      <trkpt lat="37.41172" lon="27.8299">
        <ele>556.037</ele>
      </trkpt>
      <trkpt lat="37.41168" lon="27.82994">
        <ele>556.323</ele>
      </trkpt>
      <trkpt lat="37.41163" lon="27.82994">
        <ele>556.461</ele>
      </trkpt>
      <trkpt lat="37.41149" lon="27.82997">
        <ele>557.3</ele>
      </trkpt>
      <trkpt lat="37.41144" lon="27.82995">
        <ele>557.286</ele>
      </trkpt>
      <trkpt lat="37.4113" lon="27.82996">
        <ele>557.59</ele>
      </trkpt>
      <trkpt lat="37.41122" lon="27.8299">
        <ele>556.864</ele>
      </trkpt>
      <trkpt lat="37.4112" lon="27.82986">
        <ele>556.446</ele>
      </trkpt>
      <trkpt lat="37.4111" lon="27.82984">
        <ele>556.163</ele>
      </trkpt>
      <trkpt lat="37.41102" lon="27.82981">
        <ele>555.122</ele>
      </trkpt>
      <trkpt lat="37.4109" lon="27.8298">
        <ele>553.707</ele>
      </trkpt>
      <trkpt lat="37.41082" lon="27.82984">
        <ele>553.516</ele>
      </trkpt>
      <trkpt lat="37.41073" lon="27.82986">
        <ele>552.322</ele>
      </trkpt>
      <trkpt lat="37.4107" lon="27.8299">
        <ele>552.412</ele>
      </trkpt>
      <trkpt lat="37.41063" lon="27.82994">
        <ele>552.04</ele>
      </trkpt>
      <trkpt lat="37.41061" lon="27.82999">
        <ele>552.562</ele>
      </trkpt>
      <trkpt lat="37.41053" lon="27.83003">
        <ele>552.367</ele>
      </trkpt>
      <trkpt lat="37.4105" lon="27.83005">
        <ele>552.331</ele>
      </trkpt>
      <trkpt lat="37.41048" lon="27.83006">
        <ele>552.174</ele>
      </trkpt>
      <trkpt lat="37.41049" lon="27.83005">
        <ele>552.247</ele>
      </trkpt>
      <trkpt lat="37.41049" lon="27.83005">
        <ele>552.059</ele>
      </trkpt>
      <trkpt lat="37.41046" lon="27.83006">
        <ele>551.859</ele>
      </trkpt>
      <trkpt lat="37.41042" lon="27.83012">
        <ele>552.368</ele>
      </trkpt>
      <trkpt lat="37.41041" lon="27.83013">
        <ele>552.637</ele>
      </trkpt>
      <trkpt lat="37.41038" lon="27.83024">
        <ele>554.96</ele>
      </trkpt>
      <trkpt lat="37.41037" lon="27.83026">
        <ele>555.296</ele>
      </trkpt>
      <trkpt lat="37.41031" lon="27.8303">
        <ele>554.173</ele>
      </trkpt>
      <trkpt lat="37.41025" lon="27.83041">
        <ele>553.628</ele>
      </trkpt>
      <trkpt lat="37.41015" lon="27.83053">
        <ele>551.826</ele>
      </trkpt>
      <trkpt lat="37.41009" lon="27.83059">
        <ele>550.058</ele>
      </trkpt>
      <trkpt lat="37.41004" lon="27.83071">
        <ele>549.421</ele>
      </trkpt>
      <trkpt lat="37.41001" lon="27.83072">
        <ele>548.434</ele>
      </trkpt>
      <trkpt lat="37.40991" lon="27.83075">
        <ele>547.53</ele>
      </trkpt>
      <trkpt lat="37.40982" lon="27.83075">
        <ele>546.673</ele>
      </trkpt>
      <trkpt lat="37.40978" lon="27.8308">
        <ele>546.513</ele>
      </trkpt>
      <trkpt lat="37.40975" lon="27.8308">
        <ele>546.177</ele>
      </trkpt>
      <trkpt lat="37.40972" lon="27.83077">
        <ele>545.816</ele>
      </trkpt>
      <trkpt lat="37.4097" lon="27.83077">
        <ele>546.117</ele>
      </trkpt>
      <trkpt lat="37.40967" lon="27.83075">
        <ele>546.528</ele>
      </trkpt>
      <trkpt lat="37.4096" lon="27.83074">
        <ele>547.549</ele>
      </trkpt>
      <trkpt lat="37.40957" lon="27.83074">
        <ele>548.085</ele>
      </trkpt>
      <trkpt lat="37.40956" lon="27.83072">
        <ele>548.243</ele>
      </trkpt>
      <trkpt lat="37.40952" lon="27.83072">
        <ele>548.799</ele>
      </trkpt>
      <trkpt lat="37.40947" lon="27.83071">
        <ele>549.584</ele>
      </trkpt>
      <trkpt lat="37.40946" lon="27.83071">
        <ele>549.755</ele>
      </trkpt>
      <trkpt lat="37.40936" lon="27.83067">
        <ele>552.204</ele>
      </trkpt>
      <trkpt lat="37.40937" lon="27.83067">
        <ele>551.992</ele>
      </trkpt>
      <trkpt lat="37.40934" lon="27.83066">
        <ele>552.902</ele>
      </trkpt>
      <trkpt lat="37.40928" lon="27.83065">
        <ele>554.392</ele>
      </trkpt>
      <trkpt lat="37.40927" lon="27.83065">
        <ele>554.675</ele>
      </trkpt>
      <trkpt lat="37.40922" lon="27.83066">
        <ele>555.899</ele>
      </trkpt>
      <trkpt lat="37.40919" lon="27.83066">
        <ele>556.808</ele>
      </trkpt>
      <trkpt lat="37.40918" lon="27.83067">
        <ele>557.039</ele>
      </trkpt>
      <trkpt lat="37.40916" lon="27.8307">
        <ele>557.616</ele>
      </trkpt>
      <trkpt lat="37.40916" lon="27.8307">
        <ele>557.648</ele>
      </trkpt>
      <trkpt lat="37.40916" lon="27.8307">
        <ele>557.648</ele>
      </trkpt>
      <trkpt lat="37.40911" lon="27.83074">
        <ele>558.509</ele>
      </trkpt>
      <trkpt lat="37.40907" lon="27.83081">
        <ele>559.613</ele>
      </trkpt>
      <trkpt lat="37.40906" lon="27.83082">
        <ele>559.848</ele>
      </trkpt>
      <trkpt lat="37.40906" lon="27.83081">
        <ele>559.749</ele>
      </trkpt>
      <trkpt lat="37.40901" lon="27.83088">
        <ele>560.636</ele>
      </trkpt>
      <trkpt lat="37.40898" lon="27.83095">
        <ele>560.788</ele>
      </trkpt>
      <trkpt lat="37.40896" lon="27.83097">
        <ele>561.052</ele>
      </trkpt>
      <trkpt lat="37.40896" lon="27.83098">
        <ele>561.143</ele>
      </trkpt>
      <trkpt lat="37.40895" lon="27.83099">
        <ele>561.145</ele>
      </trkpt>
      <trkpt lat="37.40894" lon="27.83099">
        <ele>561.326</ele>
      </trkpt>
      <trkpt lat="37.40893" lon="27.83104">
        <ele>561.485</ele>
      </trkpt>
      <trkpt lat="37.40889" lon="27.83112">
        <ele>561.852</ele>
      </trkpt>
      <trkpt lat="37.40883" lon="27.83117">
        <ele>562.109</ele>
      </trkpt>
      <trkpt lat="37.40883" lon="27.83117">
        <ele>562.109</ele>
      </trkpt>
      <trkpt lat="37.40866" lon="27.83115">
        <ele>564.245</ele>
      </trkpt>
      <trkpt lat="37.40864" lon="27.83115">
        <ele>564.527</ele>
      </trkpt>
      <trkpt lat="37.40856" lon="27.83114">
        <ele>564.559</ele>
      </trkpt>
      <trkpt lat="37.40854" lon="27.83113">
        <ele>564.458</ele>
      </trkpt>
      <trkpt lat="37.40849" lon="27.83115">
        <ele>564.198</ele>
      </trkpt>
      <trkpt lat="37.40842" lon="27.8312">
        <ele>563.988</ele>
      </trkpt>
      <trkpt lat="37.40834" lon="27.83121">
        <ele>563.727</ele>
      </trkpt>
      <trkpt lat="37.40834" lon="27.83121">
        <ele>563.711</ele>
      </trkpt>
      <trkpt lat="37.40834" lon="27.83121">
        <ele>563.711</ele>
      </trkpt>
      <trkpt lat="37.40832" lon="27.83123">
        <ele>563.758</ele>
      </trkpt>
      <trkpt lat="37.40832" lon="27.83122">
        <ele>563.745</ele>
      </trkpt>
      <trkpt lat="37.40829" lon="27.83127">
        <ele>563.88</ele>
      </trkpt>
      <trkpt lat="37.40824" lon="27.83131">
        <ele>563.939</ele>
      </trkpt>
      <trkpt lat="37.40818" lon="27.83133">
        <ele>563.881</ele>
      </trkpt>
      <trkpt lat="37.40813" lon="27.83132">
        <ele>563.587</ele>
      </trkpt>
      <trkpt lat="37.40806" lon="27.83134">
        <ele>563.466</ele>
      </trkpt>
      <trkpt lat="37.40804" lon="27.83134">
        <ele>563.577</ele>
      </trkpt>
      <trkpt lat="37.40803" lon="27.83133">
        <ele>563.441</ele>
      </trkpt>
      <trkpt lat="37.40804" lon="27.83136">
        <ele>563.797</ele>
      </trkpt>
      <trkpt lat="37.40803" lon="27.83137">
        <ele>563.861</ele>
      </trkpt>
      <trkpt lat="37.40795" lon="27.83136">
        <ele>564.008</ele>
      </trkpt>
      <trkpt lat="37.4079" lon="27.83135">
        <ele>564.065</ele>
      </trkpt>
      <trkpt lat="37.40783" lon="27.83132">
        <ele>563.877</ele>
      </trkpt>
      <trkpt lat="37.40776" lon="27.83132">
        <ele>564.021</ele>
      </trkpt>
      <trkpt lat="37.40762" lon="27.8313">
        <ele>564.42</ele>
      </trkpt>
      <trkpt lat="37.40755" lon="27.83132">
        <ele>565.042</ele>
      </trkpt>
      <trkpt lat="37.4075" lon="27.83131">
        <ele>565.153</ele>
      </trkpt>
      <trkpt lat="37.40739" lon="27.83125">
        <ele>564.111</ele>
      </trkpt>
      <trkpt lat="37.40735" lon="27.83125">
        <ele>563.948</ele>
      </trkpt>
      <trkpt lat="37.4073" lon="27.83127">
        <ele>563.806</ele>
      </trkpt>
      <trkpt lat="37.40723" lon="27.83126">
        <ele>563.485</ele>
      </trkpt>
      <trkpt lat="37.40721" lon="27.83127">
        <ele>563.265</ele>
      </trkpt>
      <trkpt lat="37.40722" lon="27.83127">
        <ele>563.363</ele>
      </trkpt>
      <trkpt lat="37.40721" lon="27.83125">
        <ele>563.366</ele>
      </trkpt>
      <trkpt lat="37.40718" lon="27.83123">
        <ele>563.202</ele>
      </trkpt>
      <trkpt lat="37.40716" lon="27.83123">
        <ele>563.054</ele>
      </trkpt>
      <trkpt lat="37.40709" lon="27.83126">
        <ele>562.278</ele>
      </trkpt>
      <trkpt lat="37.40701" lon="27.83124">
        <ele>561.669</ele>
      </trkpt>
      <trkpt lat="37.40697" lon="27.83118">
        <ele>561.675</ele>
      </trkpt>
      <trkpt lat="37.40689" lon="27.83119">
        <ele>560.167</ele>
      </trkpt>
      <trkpt lat="37.40679" lon="27.8312">
        <ele>557.954</ele>
      </trkpt>
      <trkpt lat="37.40675" lon="27.83124">
        <ele>556.943</ele>
      </trkpt>
      <trkpt lat="37.40665" lon="27.83131">
        <ele>554.171</ele>
      </trkpt>
      <trkpt lat="37.4067" lon="27.83144">
        <ele>554.788</ele>
      </trkpt>
      <trkpt lat="37.40669" lon="27.83151">
        <ele>555.004</ele>
      </trkpt>
      <trkpt lat="37.40666" lon="27.83161">
        <ele>554.57</ele>
      </trkpt>
      <trkpt lat="37.40652" lon="27.8317">
        <ele>552.048</ele>
      </trkpt>
      <trkpt lat="37.40646" lon="27.83174">
        <ele>551.352</ele>
      </trkpt>
      <trkpt lat="37.40635" lon="27.83168">
        <ele>549.654</ele>
      </trkpt>
      <trkpt lat="37.40624" lon="27.83165">
        <ele>550.906</ele>
      </trkpt>
      <trkpt lat="37.40613" lon="27.83164">
        <ele>552.133</ele>
      </trkpt>
      <trkpt lat="37.40611" lon="27.83163">
        <ele>552.273</ele>
      </trkpt>
      <trkpt lat="37.406" lon="27.83151">
        <ele>551.188</ele>
      </trkpt>
      <trkpt lat="37.40594" lon="27.83142">
        <ele>550.127</ele>
      </trkpt>
      <trkpt lat="37.40589" lon="27.83128">
        <ele>548.776</ele>
      </trkpt>
      <trkpt lat="37.40582" lon="27.83109">
        <ele>546.915</ele>
      </trkpt>
      <trkpt lat="37.40574" lon="27.83092">
        <ele>545.8</ele>
      </trkpt>
      <trkpt lat="37.4056" lon="27.83081">
        <ele>544.099</ele>
      </trkpt>
      <trkpt lat="37.40545" lon="27.83073">
        <ele>543.014</ele>
      </trkpt>
      <trkpt lat="37.4053" lon="27.83067">
        <ele>542.441</ele>
      </trkpt>
      <trkpt lat="37.40512" lon="27.83057">
        <ele>542.026</ele>
      </trkpt>
      <trkpt lat="37.40507" lon="27.83056">
        <ele>542.003</ele>
      </trkpt>
      <trkpt lat="37.40502" lon="27.83055">
        <ele>541.991</ele>
      </trkpt>
      <trkpt lat="37.40488" lon="27.83062">
        <ele>540.78</ele>
      </trkpt>
      <trkpt lat="37.40478" lon="27.83074">
        <ele>540.155</ele>
      </trkpt>
      <trkpt lat="37.40466" lon="27.83087">
        <ele>539.39</ele>
      </trkpt>
      <trkpt lat="37.40446" lon="27.83094">
        <ele>537.668</ele>
      </trkpt>
      <trkpt lat="37.40425" lon="27.83097">
        <ele>534.778</ele>
      </trkpt>
      <trkpt lat="37.40406" lon="27.83099">
        <ele>531.524</ele>
      </trkpt>
      <trkpt lat="37.40395" lon="27.83097">
        <ele>528.405</ele>
      </trkpt>
      <trkpt lat="37.40389" lon="27.83088">
        <ele>523.602</ele>
      </trkpt>
      <trkpt lat="37.4039" lon="27.83083">
        <ele>522.379</ele>
      </trkpt>
      <trkpt lat="37.40392" lon="27.83083">
        <ele>522.858</ele>
      </trkpt>
      <trkpt lat="37.40391" lon="27.83081">
        <ele>522.435</ele>
      </trkpt>
      <trkpt lat="37.40391" lon="27.8308">
        <ele>522.069</ele>
      </trkpt>
      <trkpt lat="37.40388" lon="27.83068">
        <ele>519.594</ele>
      </trkpt>
      <trkpt lat="37.40384" lon="27.8305">
        <ele>516.657</ele>
      </trkpt>
      <trkpt lat="37.40374" lon="27.83035">
        <ele>513.729</ele>
      </trkpt>
      <trkpt lat="37.40368" lon="27.83026">
        <ele>511.927</ele>
      </trkpt>
      <trkpt lat="37.40355" lon="27.82998">
        <ele>507.583</ele>
      </trkpt>
      <trkpt lat="37.4035" lon="27.82973">
        <ele>502.686</ele>
      </trkpt>
      <trkpt lat="37.40352" lon="27.82958">
        <ele>501.29</ele>
      </trkpt>
      <trkpt lat="37.40362" lon="27.82939">
        <ele>499.927</ele>
      </trkpt>
      <trkpt lat="37.4037" lon="27.82921">
        <ele>498.101</ele>
      </trkpt>
      <trkpt lat="37.40371" lon="27.82915">
        <ele>496.96</ele>
      </trkpt>
      <trkpt lat="37.40384" lon="27.829">
        <ele>496.107</ele>
      </trkpt>
      <trkpt lat="37.40395" lon="27.82893">
        <ele>496.131</ele>
      </trkpt>
      <trkpt lat="37.4041" lon="27.82879">
        <ele>493.655</ele>
      </trkpt>
      <trkpt lat="37.4042" lon="27.82866">
        <ele>489.988</ele>
      </trkpt>
      <trkpt lat="37.40421" lon="27.82862">
        <ele>488.644</ele>
      </trkpt>
      <trkpt lat="37.40423" lon="27.82858">
        <ele>487.542</ele>
      </trkpt>
      <trkpt lat="37.40418" lon="27.82855">
        <ele>486.31</ele>
      </trkpt>
      <trkpt lat="37.40409" lon="27.82861">
        <ele>487.408</ele>
      </trkpt>
      <trkpt lat="37.40403" lon="27.82867">
        <ele>488.732</ele>
      </trkpt>
      <trkpt lat="37.40394" lon="27.82864">
        <ele>487.219</ele>
      </trkpt>
      <trkpt lat="37.40393" lon="27.82859">
        <ele>485.661</ele>
      </trkpt>
      <trkpt lat="37.40386" lon="27.82844">
        <ele>481.252</ele>
      </trkpt>
      <trkpt lat="37.40386" lon="27.82842">
        <ele>480.862</ele>
      </trkpt>
      <trkpt lat="37.40383" lon="27.82839">
        <ele>479.719</ele>
      </trkpt>
      <trkpt lat="37.40373" lon="27.8283">
        <ele>476.528</ele>
      </trkpt>
      <trkpt lat="37.4037" lon="27.82827">
        <ele>475.517</ele>
      </trkpt>
      <trkpt lat="37.4036" lon="27.82815">
        <ele>472.09</ele>
      </trkpt>
      <trkpt lat="37.4035" lon="27.82805">
        <ele>469.47</ele>
      </trkpt>
      <trkpt lat="37.4034" lon="27.82793">
        <ele>466.726</ele>
      </trkpt>
      <trkpt lat="37.4033" lon="27.82785">
        <ele>465.221</ele>
      </trkpt>
      <trkpt lat="37.40325" lon="27.82783">
        <ele>464.596</ele>
      </trkpt>
      <trkpt lat="37.4032" lon="27.8278">
        <ele>463.889</ele>
      </trkpt>
      <trkpt lat="37.40318" lon="27.82779">
        <ele>463.74</ele>
      </trkpt>
      <trkpt lat="37.40308" lon="27.82773">
        <ele>461.871</ele>
      </trkpt>
      <trkpt lat="37.40303" lon="27.82771">
        <ele>461.46</ele>
      </trkpt>
      <trkpt lat="37.40288" lon="27.82768">
        <ele>462.147</ele>
      </trkpt>
      <trkpt lat="37.40281" lon="27.82756">
        <ele>460.523</ele>
      </trkpt>
      <trkpt lat="37.40281" lon="27.82753">
        <ele>460.108</ele>
      </trkpt>
      <trkpt lat="37.40278" lon="27.82745">
        <ele>458.828</ele>
      </trkpt>
      <trkpt lat="37.4027" lon="27.82737">
        <ele>458.77</ele>
      </trkpt>
      <trkpt lat="37.40271" lon="27.82737">
        <ele>458.284</ele>
      </trkpt>
      <trkpt lat="37.40271" lon="27.82737">
        <ele>458.419</ele>
      </trkpt>
      <trkpt lat="37.4027" lon="27.82732">
        <ele>457.398</ele>
      </trkpt>
      <trkpt lat="37.40264" lon="27.82715">
        <ele>455.738</ele>
      </trkpt>
      <trkpt lat="37.40253" lon="27.82705">
        <ele>456.379</ele>
      </trkpt>
      <trkpt lat="37.40247" lon="27.82689">
        <ele>454.137</ele>
      </trkpt>
      <trkpt lat="37.40241" lon="27.82679">
        <ele>452.544</ele>
      </trkpt>
      <trkpt lat="37.40239" lon="27.82669">
        <ele>450.59</ele>
      </trkpt>
      <trkpt lat="37.40238" lon="27.8266">
        <ele>448.383</ele>
      </trkpt>
      <trkpt lat="37.40239" lon="27.82656">
        <ele>447.282</ele>
      </trkpt>
      <trkpt lat="37.40248" lon="27.82653">
        <ele>445.778</ele>
      </trkpt>
      <trkpt lat="37.40258" lon="27.82657">
        <ele>445.351</ele>
      </trkpt>
      <trkpt lat="37.40261" lon="27.82654">
        <ele>443.899</ele>
      </trkpt>
      <trkpt lat="37.40261" lon="27.82652">
        <ele>443.467</ele>
      </trkpt>
      <trkpt lat="37.40254" lon="27.82631">
        <ele>439.447</ele>
      </trkpt>
      <trkpt lat="37.40245" lon="27.82619">
        <ele>437.218</ele>
      </trkpt>
      <trkpt lat="37.40227" lon="27.82604">
        <ele>434.992</ele>
      </trkpt>
      <trkpt lat="37.40214" lon="27.82603">
        <ele>435.264</ele>
      </trkpt>
      <trkpt lat="37.402" lon="27.82602">
        <ele>435.719</ele>
      </trkpt>
      <trkpt lat="37.40187" lon="27.82596">
        <ele>435.673</ele>
      </trkpt>
      <trkpt lat="37.4017" lon="27.82579">
        <ele>434.331</ele>
      </trkpt>
      <trkpt lat="37.40153" lon="27.82575">
        <ele>434.971</ele>
      </trkpt>
      <trkpt lat="37.40141" lon="27.82567">
        <ele>434.311</ele>
      </trkpt>
      <trkpt lat="37.40129" lon="27.82552">
        <ele>432.176</ele>
      </trkpt>
      <trkpt lat="37.40117" lon="27.82549">
        <ele>432.591</ele>
      </trkpt>
      <trkpt lat="37.40116" lon="27.8255">
        <ele>432.84</ele>
      </trkpt>
      <trkpt lat="37.40104" lon="27.82552">
        <ele>433.45</ele>
      </trkpt>
      <trkpt lat="37.40094" lon="27.82551">
        <ele>433.126</ele>
      </trkpt>
      <trkpt lat="37.40082" lon="27.82545">
        <ele>431.682</ele>
      </trkpt>
      <trkpt lat="37.40078" lon="27.82545">
        <ele>431.322</ele>
      </trkpt>
      <trkpt lat="37.40071" lon="27.82552">
        <ele>432</ele>
      </trkpt>
      <trkpt lat="37.40066" lon="27.82562">
        <ele>433.725</ele>
      </trkpt>
      <trkpt lat="37.40055" lon="27.82574">
        <ele>435.616</ele>
      </trkpt>
      <trkpt lat="37.40041" lon="27.82576">
        <ele>435.512</ele>
      </trkpt>
      <trkpt lat="37.4003" lon="27.82566">
        <ele>432.056</ele>
      </trkpt>
      <trkpt lat="37.40018" lon="27.82561">
        <ele>431.233</ele>
      </trkpt>
      <trkpt lat="37.4001" lon="27.82557">
        <ele>430.683</ele>
      </trkpt>
      <trkpt lat="37.4" lon="27.82565">
        <ele>433.346</ele>
      </trkpt>
      <trkpt lat="37.3999" lon="27.82565">
        <ele>433.312</ele>
      </trkpt>
      <trkpt lat="37.39974" lon="27.82559">
        <ele>431.17</ele>
      </trkpt>
      <trkpt lat="37.39964" lon="27.82552">
        <ele>428.98</ele>
      </trkpt>
      <trkpt lat="37.39951" lon="27.82543">
        <ele>426.254</ele>
      </trkpt>
      <trkpt lat="37.39935" lon="27.82532">
        <ele>422.478</ele>
      </trkpt>
      <trkpt lat="37.39925" lon="27.82534">
        <ele>422.186</ele>
      </trkpt>
      <trkpt lat="37.39916" lon="27.82543">
        <ele>423.732</ele>
      </trkpt>
      <trkpt lat="37.39912" lon="27.82547">
        <ele>423.904</ele>
      </trkpt>
      <trkpt lat="37.39906" lon="27.82549">
        <ele>422.836</ele>
      </trkpt>
      <trkpt lat="37.39904" lon="27.82549">
        <ele>422.409</ele>
      </trkpt>
      <trkpt lat="37.39904" lon="27.82554">
        <ele>423.559</ele>
      </trkpt>
      <trkpt lat="37.39902" lon="27.82556">
        <ele>423.202</ele>
      </trkpt>
      <trkpt lat="37.3989" lon="27.82568">
        <ele>422.313</ele>
      </trkpt>
      <trkpt lat="37.39877" lon="27.82572">
        <ele>420.653</ele>
      </trkpt>
      <trkpt lat="37.39864" lon="27.82573">
        <ele>418.316</ele>
      </trkpt>
      <trkpt lat="37.39848" lon="27.82578">
        <ele>415.08</ele>
      </trkpt>
      <trkpt lat="37.39839" lon="27.82586">
        <ele>414.182</ele>
      </trkpt>
      <trkpt lat="37.39824" lon="27.82594">
        <ele>411.405</ele>
      </trkpt>
      <trkpt lat="37.39814" lon="27.82605">
        <ele>411.481</ele>
      </trkpt>
      <trkpt lat="37.39796" lon="27.82607">
        <ele>407.174</ele>
      </trkpt>
      <trkpt lat="37.39788" lon="27.82613">
        <ele>407.3</ele>
      </trkpt>
      <trkpt lat="37.39783" lon="27.82616">
        <ele>407.217</ele>
      </trkpt>
      <trkpt lat="37.39776" lon="27.82619">
        <ele>406.864</ele>
      </trkpt>
      <trkpt lat="37.39765" lon="27.82618">
        <ele>406.37</ele>
      </trkpt>
      <trkpt lat="37.39757" lon="27.82621">
        <ele>407.26</ele>
      </trkpt>
      <trkpt lat="37.39749" lon="27.8262">
        <ele>406.439</ele>
      </trkpt>
      <trkpt lat="37.39739" lon="27.82621">
        <ele>406.849</ele>
      </trkpt>
      <trkpt lat="37.3973" lon="27.82621">
        <ele>407.064</ele>
      </trkpt>
      <trkpt lat="37.39721" lon="27.82619">
        <ele>406.648</ele>
      </trkpt>
      <trkpt lat="37.3972" lon="27.82618">
        <ele>406.352</ele>
      </trkpt>
      <trkpt lat="37.39712" lon="27.82603">
        <ele>403.404</ele>
      </trkpt>
      <trkpt lat="37.39709" lon="27.82596">
        <ele>402.101</ele>
      </trkpt>
      <trkpt lat="37.39697" lon="27.82589">
        <ele>403.253</ele>
      </trkpt>
      <trkpt lat="37.39695" lon="27.82569">
        <ele>399.674</ele>
      </trkpt>
      <trkpt lat="37.39695" lon="27.82556">
        <ele>397.043</ele>
      </trkpt>
      <trkpt lat="37.3969" lon="27.82544">
        <ele>395.247</ele>
      </trkpt>
      <trkpt lat="37.39684" lon="27.82536">
        <ele>394.192</ele>
      </trkpt>
      <trkpt lat="37.39686" lon="27.82526">
        <ele>392.264</ele>
      </trkpt>
      <trkpt lat="37.39686" lon="27.82506">
        <ele>388.615</ele>
      </trkpt>
      <trkpt lat="37.39683" lon="27.82486">
        <ele>386.502</ele>
      </trkpt>
      <trkpt lat="37.39678" lon="27.82483">
        <ele>386.639</ele>
      </trkpt>
      <trkpt lat="37.39672" lon="27.8248">
        <ele>387.027</ele>
      </trkpt>
      <trkpt lat="37.39669" lon="27.8248">
        <ele>387.376</ele>
      </trkpt>
      <trkpt lat="37.3966" lon="27.82485">
        <ele>387.894</ele>
      </trkpt>
      <trkpt lat="37.39651" lon="27.82484">
        <ele>387.83</ele>
      </trkpt>
      <trkpt lat="37.39641" lon="27.8248">
        <ele>387.543</ele>
      </trkpt>
      <trkpt lat="37.39631" lon="27.82476">
        <ele>387.362</ele>
      </trkpt>
      <trkpt lat="37.39627" lon="27.82473">
        <ele>387.045</ele>
      </trkpt>
      <trkpt lat="37.39619" lon="27.82451">
        <ele>385.265</ele>
      </trkpt>
      <trkpt lat="37.39613" lon="27.82439">
        <ele>384.301</ele>
      </trkpt>
      <trkpt lat="37.39605" lon="27.8242">
        <ele>384.463</ele>
      </trkpt>
      <trkpt lat="37.39602" lon="27.824">
        <ele>384.164</ele>
      </trkpt>
      <trkpt lat="37.39602" lon="27.82383">
        <ele>382.643</ele>
      </trkpt>
      <trkpt lat="37.39598" lon="27.82363">
        <ele>381.06</ele>
      </trkpt>
      <trkpt lat="37.39598" lon="27.82348">
        <ele>379.808</ele>
      </trkpt>
      <trkpt lat="37.39599" lon="27.82325">
        <ele>377.637</ele>
      </trkpt>
      <trkpt lat="37.39589" lon="27.82308">
        <ele>379.161</ele>
      </trkpt>
      <trkpt lat="37.39582" lon="27.82302">
        <ele>380.795</ele>
      </trkpt>
      <trkpt lat="37.39572" lon="27.82288">
        <ele>381.392</ele>
      </trkpt>
      <trkpt lat="37.39567" lon="27.82276">
        <ele>380.495</ele>
      </trkpt>
      <trkpt lat="37.39558" lon="27.82259">
        <ele>379.084</ele>
      </trkpt>
      <trkpt lat="37.39549" lon="27.82243">
        <ele>379.86</ele>
      </trkpt>
      <trkpt lat="37.39544" lon="27.82232">
        <ele>379.942</ele>
      </trkpt>
      <trkpt lat="37.3954" lon="27.82217">
        <ele>378.937</ele>
      </trkpt>
      <trkpt lat="37.39538" lon="27.82202">
        <ele>376.354</ele>
      </trkpt>
      <trkpt lat="37.39536" lon="27.82185">
        <ele>372.089</ele>
      </trkpt>
      <trkpt lat="37.39527" lon="27.82171">
        <ele>372.131</ele>
      </trkpt>
      <trkpt lat="37.3952" lon="27.82153">
        <ele>370.186</ele>
      </trkpt>
      <trkpt lat="37.39517" lon="27.82134">
        <ele>365.083</ele>
      </trkpt>
      <trkpt lat="37.39512" lon="27.82124">
        <ele>363.992</ele>
      </trkpt>
      <trkpt lat="37.39505" lon="27.8211">
        <ele>362.221</ele>
      </trkpt>
      <trkpt lat="37.39496" lon="27.82097">
        <ele>362.553</ele>
      </trkpt>
      <trkpt lat="37.3949" lon="27.82084">
        <ele>361.506</ele>
      </trkpt>
      <trkpt lat="37.39484" lon="27.82077">
        <ele>361.382</ele>
      </trkpt>
      <trkpt lat="37.3948" lon="27.82069">
        <ele>360.195</ele>
      </trkpt>
      <trkpt lat="37.39471" lon="27.82061">
        <ele>360.113</ele>
      </trkpt>
      <trkpt lat="37.39463" lon="27.82049">
        <ele>359.035</ele>
      </trkpt>
      <trkpt lat="37.39449" lon="27.82038">
        <ele>358.969</ele>
      </trkpt>
      <trkpt lat="37.39438" lon="27.82029">
        <ele>357.814</ele>
      </trkpt>
      <trkpt lat="37.39429" lon="27.82019">
        <ele>355.238</ele>
      </trkpt>
      <trkpt lat="37.3942" lon="27.82012">
        <ele>354.072</ele>
      </trkpt>
      <trkpt lat="37.3941" lon="27.81999">
        <ele>350.449</ele>
      </trkpt>
      <trkpt lat="37.39401" lon="27.81989">
        <ele>347.554</ele>
      </trkpt>
      <trkpt lat="37.39393" lon="27.81988">
        <ele>348.006</ele>
      </trkpt>
      <trkpt lat="37.39386" lon="27.81986">
        <ele>348.324</ele>
      </trkpt>
      <trkpt lat="37.39381" lon="27.81984">
        <ele>348.719</ele>
      </trkpt>
      <trkpt lat="37.39379" lon="27.81983">
        <ele>348.632</ele>
      </trkpt>
      <trkpt lat="37.39376" lon="27.81983">
        <ele>348.955</ele>
      </trkpt>
      <trkpt lat="37.3937" lon="27.8198">
        <ele>348.921</ele>
      </trkpt>
      <trkpt lat="37.39359" lon="27.81977">
        <ele>349.071</ele>
      </trkpt>
      <trkpt lat="37.39357" lon="27.8197">
        <ele>346.334</ele>
      </trkpt>
      <trkpt lat="37.39357" lon="27.8197">
        <ele>346.334</ele>
      </trkpt>
      <trkpt lat="37.39361" lon="27.81964">
        <ele>343.597</ele>
      </trkpt>
      <trkpt lat="37.39381" lon="27.8196">
        <ele>340.077</ele>
      </trkpt>
      <trkpt lat="37.39389" lon="27.81959">
        <ele>338.809</ele>
      </trkpt>
      <trkpt lat="37.3939" lon="27.81956">
        <ele>337.464</ele>
      </trkpt>
      <trkpt lat="37.39393" lon="27.8195">
        <ele>335.511</ele>
      </trkpt>
      <trkpt lat="37.39394" lon="27.81942">
        <ele>332.837</ele>
      </trkpt>
      <trkpt lat="37.39389" lon="27.81937">
        <ele>331.694</ele>
      </trkpt>
      <trkpt lat="37.39388" lon="27.81937">
        <ele>331.869</ele>
      </trkpt>
      <trkpt lat="37.39391" lon="27.81935">
        <ele>331.258</ele>
      </trkpt>
      <trkpt lat="37.39396" lon="27.8193">
        <ele>329.458</ele>
      </trkpt>
      <trkpt lat="37.39397" lon="27.81927">
        <ele>328.878</ele>
      </trkpt>
      <trkpt lat="37.39396" lon="27.81921">
        <ele>327.355</ele>
      </trkpt>
      <trkpt lat="37.39388" lon="27.81919">
        <ele>326.665</ele>
      </trkpt>
      <trkpt lat="37.39376" lon="27.81924">
        <ele>329.149</ele>
      </trkpt>
      <trkpt lat="37.39366" lon="27.81923">
        <ele>329.352</ele>
      </trkpt>
      <trkpt lat="37.3936" lon="27.81922">
        <ele>329.557</ele>
      </trkpt>
      <trkpt lat="37.39357" lon="27.81921">
        <ele>329.933</ele>
      </trkpt>
      <trkpt lat="37.39356" lon="27.81921">
        <ele>329.756</ele>
      </trkpt>
      <trkpt lat="37.39346" lon="27.81914">
        <ele>329.283</ele>
      </trkpt>
      <trkpt lat="37.39333" lon="27.81904">
        <ele>327.833</ele>
      </trkpt>
      <trkpt lat="37.39329" lon="27.81904">
        <ele>328.402</ele>
      </trkpt>
      <trkpt lat="37.39317" lon="27.81902">
        <ele>329.619</ele>
      </trkpt>
      <trkpt lat="37.39312" lon="27.81901">
        <ele>329.899</ele>
      </trkpt>
      <trkpt lat="37.39302" lon="27.81892">
        <ele>328.853</ele>
      </trkpt>
      <trkpt lat="37.39289" lon="27.81883">
        <ele>327.626</ele>
      </trkpt>
      <trkpt lat="37.39279" lon="27.81879">
        <ele>328.068</ele>
      </trkpt>
      <trkpt lat="37.39269" lon="27.8188">
        <ele>329.936</ele>
      </trkpt>
      <trkpt lat="37.39267" lon="27.81881">
        <ele>330.724</ele>
      </trkpt>
      <trkpt lat="37.39253" lon="27.81886">
        <ele>334.66</ele>
      </trkpt>
      <trkpt lat="37.39239" lon="27.81891">
        <ele>337.503</ele>
      </trkpt>
      <trkpt lat="37.39221" lon="27.81895">
        <ele>340.322</ele>
      </trkpt>
      <trkpt lat="37.39217" lon="27.81883">
        <ele>336.948</ele>
      </trkpt>
      <trkpt lat="37.39221" lon="27.81871">
        <ele>332.831</ele>
      </trkpt>
      <trkpt lat="37.39222" lon="27.81857">
        <ele>329.018</ele>
      </trkpt>
      <trkpt lat="37.39221" lon="27.81848">
        <ele>326.802</ele>
      </trkpt>
      <trkpt lat="37.3922" lon="27.81848">
        <ele>326.852</ele>
      </trkpt>
      <trkpt lat="37.39219" lon="27.81849">
        <ele>326.987</ele>
      </trkpt>
      <trkpt lat="37.39184" lon="27.81844">
        <ele>328.123</ele>
      </trkpt>
      <trkpt lat="37.3917" lon="27.81841">
        <ele>328.489</ele>
      </trkpt>
      <trkpt lat="37.39156" lon="27.81845">
        <ele>328.993</ele>
      </trkpt>
      <trkpt lat="37.39145" lon="27.81846">
        <ele>328.514</ele>
      </trkpt>
      <trkpt lat="37.39142" lon="27.81847">
        <ele>328.539</ele>
      </trkpt>
      <trkpt lat="37.39128" lon="27.81854">
        <ele>328.744</ele>
      </trkpt>
      <trkpt lat="37.3912" lon="27.81855">
        <ele>327.891</ele>
      </trkpt>
      <trkpt lat="37.39121" lon="27.81857">
        <ele>328.374</ele>
      </trkpt>
      <trkpt lat="37.39119" lon="27.81861">
        <ele>329.326</ele>
      </trkpt>
      <trkpt lat="37.39115" lon="27.81863">
        <ele>329.169</ele>
      </trkpt>
      <trkpt lat="37.39115" lon="27.81854">
        <ele>326.586</ele>
      </trkpt>
      <trkpt lat="37.39113" lon="27.81852">
        <ele>325.704</ele>
      </trkpt>
      <trkpt lat="37.39107" lon="27.81859">
        <ele>326.912</ele>
      </trkpt>
      <trkpt lat="37.39107" lon="27.81859">
        <ele>326.899</ele>
      </trkpt>
      <trkpt lat="37.39099" lon="27.81861">
        <ele>326.543</ele>
      </trkpt>
      <trkpt lat="37.39093" lon="27.81865">
        <ele>327.041</ele>
      </trkpt>
      <trkpt lat="37.39085" lon="27.81875">
        <ele>329.109</ele>
      </trkpt>
      <trkpt lat="37.3908" lon="27.81877">
        <ele>329.48</ele>
      </trkpt>
      <trkpt lat="37.39072" lon="27.81877">
        <ele>328.847</ele>
      </trkpt>
      <trkpt lat="37.39066" lon="27.81873">
        <ele>327.49</ele>
      </trkpt>
      <trkpt lat="37.39059" lon="27.8187">
        <ele>326.064</ele>
      </trkpt>
      <trkpt lat="37.3905" lon="27.81867">
        <ele>325.53</ele>
      </trkpt>
      <trkpt lat="37.3904" lon="27.81859">
        <ele>323.947</ele>
      </trkpt>
      <trkpt lat="37.39038" lon="27.81858">
        <ele>323.868</ele>
      </trkpt>
      <trkpt lat="37.39028" lon="27.81861">
        <ele>325.976</ele>
      </trkpt>
      <trkpt lat="37.39018" lon="27.8186">
        <ele>325.68</ele>
      </trkpt>
      <trkpt lat="37.3901" lon="27.81857">
        <ele>324.776</ele>
      </trkpt>
      <trkpt lat="37.39001" lon="27.81856">
        <ele>324.499</ele>
      </trkpt>
      <trkpt lat="37.38992" lon="27.81855">
        <ele>324.18</ele>
      </trkpt>
      <trkpt lat="37.38985" lon="27.81854">
        <ele>324.023</ele>
      </trkpt>
      <trkpt lat="37.38976" lon="27.81853">
        <ele>323.788</ele>
      </trkpt>
      <trkpt lat="37.38967" lon="27.81848">
        <ele>323.387</ele>
      </trkpt>
      <trkpt lat="37.38961" lon="27.81847">
        <ele>323.532</ele>
      </trkpt>
      <trkpt lat="37.38953" lon="27.81844">
        <ele>323.596</ele>
      </trkpt>
      <trkpt lat="37.38946" lon="27.81843">
        <ele>323.949</ele>
      </trkpt>
      <trkpt lat="37.38947" lon="27.81835">
        <ele>323.057</ele>
      </trkpt>
      <trkpt lat="37.38947" lon="27.81833">
        <ele>322.836</ele>
      </trkpt>
      <trkpt lat="37.38946" lon="27.81824">
        <ele>323.232</ele>
      </trkpt>
      <trkpt lat="37.38936" lon="27.8182">
        <ele>323.069</ele>
      </trkpt>
      <trkpt lat="37.38931" lon="27.81815">
        <ele>322.492</ele>
      </trkpt>
      <trkpt lat="37.3893" lon="27.81814">
        <ele>322.424</ele>
      </trkpt>
      <trkpt lat="37.38928" lon="27.81808">
        <ele>321.762</ele>
      </trkpt>
      <trkpt lat="37.38927" lon="27.81802">
        <ele>321.185</ele>
      </trkpt>
      <trkpt lat="37.38926" lon="27.81799">
        <ele>320.957</ele>
      </trkpt>
      <trkpt lat="37.38927" lon="27.81797">
        <ele>320.831</ele>
      </trkpt>
      <trkpt lat="37.38924" lon="27.81785">
        <ele>319.481</ele>
      </trkpt>
      <trkpt lat="37.38924" lon="27.81779">
        <ele>318.919</ele>
      </trkpt>
      <trkpt lat="37.3892" lon="27.81774">
        <ele>317.725</ele>
      </trkpt>
      <trkpt lat="37.38917" lon="27.81766">
        <ele>316.575</ele>
      </trkpt>
      <trkpt lat="37.38908" lon="27.81762">
        <ele>315.445</ele>
      </trkpt>
      <trkpt lat="37.38894" lon="27.81759">
        <ele>313.866</ele>
      </trkpt>
      <trkpt lat="37.38886" lon="27.81754">
        <ele>313.128</ele>
      </trkpt>
      <trkpt lat="37.38884" lon="27.81753">
        <ele>313.048</ele>
      </trkpt>
      <trkpt lat="37.38872" lon="27.81753">
        <ele>312.831</ele>
      </trkpt>
      <trkpt lat="37.38861" lon="27.81752">
        <ele>312.358</ele>
      </trkpt>
      <trkpt lat="37.38852" lon="27.8175">
        <ele>311.334</ele>
      </trkpt>
      <trkpt lat="37.3884" lon="27.81741">
        <ele>309.398</ele>
      </trkpt>
      <trkpt lat="37.38829" lon="27.81732">
        <ele>306.894</ele>
      </trkpt>
      <trkpt lat="37.3882" lon="27.81731">
        <ele>305.727</ele>
      </trkpt>
      <trkpt lat="37.38818" lon="27.81729">
        <ele>305.057</ele>
      </trkpt>
      <trkpt lat="37.38814" lon="27.81724">
        <ele>303.587</ele>
      </trkpt>
      <trkpt lat="37.38813" lon="27.81723">
        <ele>303.316</ele>
      </trkpt>
      <trkpt lat="37.38809" lon="27.81718">
        <ele>302.001</ele>
      </trkpt>
      <trkpt lat="37.38807" lon="27.81713">
        <ele>300.935</ele>
      </trkpt>
      <trkpt lat="37.38805" lon="27.81711">
        <ele>300.258</ele>
      </trkpt>
      <trkpt lat="37.38801" lon="27.81705">
        <ele>298.965</ele>
      </trkpt>
      <trkpt lat="37.38806" lon="27.81699">
        <ele>298.64</ele>
      </trkpt>
      <trkpt lat="37.38804" lon="27.81691">
        <ele>297.308</ele>
      </trkpt>
      <trkpt lat="37.38801" lon="27.81688">
        <ele>296.541</ele>
      </trkpt>
      <trkpt lat="37.38798" lon="27.8168">
        <ele>294.926</ele>
      </trkpt>
      <trkpt lat="37.38793" lon="27.81679">
        <ele>293.809</ele>
      </trkpt>
      <trkpt lat="37.38787" lon="27.81675">
        <ele>292.2</ele>
      </trkpt>
      <trkpt lat="37.38785" lon="27.81672">
        <ele>291.376</ele>
      </trkpt>
      <trkpt lat="37.3878" lon="27.8167">
        <ele>290.165</ele>
      </trkpt>
      <trkpt lat="37.3877" lon="27.81664">
        <ele>287.534</ele>
      </trkpt>
      <trkpt lat="37.38762" lon="27.81662">
        <ele>286.418</ele>
      </trkpt>
      <trkpt lat="37.38747" lon="27.81663">
        <ele>284.868</ele>
      </trkpt>
      <trkpt lat="37.38738" lon="27.81665">
        <ele>284.024</ele>
      </trkpt>
      <trkpt lat="37.38733" lon="27.81666">
        <ele>283.519</ele>
      </trkpt>
      <trkpt lat="37.38727" lon="27.81664">
        <ele>282.298</ele>
      </trkpt>
      <trkpt lat="37.38725" lon="27.81662">
        <ele>281.746</ele>
      </trkpt>
      <trkpt lat="37.38722" lon="27.81663">
        <ele>281.383</ele>
      </trkpt>
      <trkpt lat="37.38722" lon="27.81663">
        <ele>281.32</ele>
      </trkpt>
      <trkpt lat="37.38713" lon="27.81659">
        <ele>279.108</ele>
      </trkpt>
      <trkpt lat="37.38707" lon="27.81661">
        <ele>278.263</ele>
      </trkpt>
      <trkpt lat="37.38701" lon="27.81661">
        <ele>277.139</ele>
      </trkpt>
      <trkpt lat="37.387" lon="27.81661">
        <ele>276.863</ele>
      </trkpt>
      <trkpt lat="37.38698" lon="27.8166">
        <ele>276.587</ele>
      </trkpt>
      <trkpt lat="37.38689" lon="27.8166">
        <ele>274.676</ele>
      </trkpt>
      <trkpt lat="37.38683" lon="27.81649">
        <ele>271.654</ele>
      </trkpt>
      <trkpt lat="37.38683" lon="27.81649">
        <ele>271.399</ele>
      </trkpt>
      <trkpt lat="37.38678" lon="27.81648">
        <ele>270.259</ele>
      </trkpt>
      <trkpt lat="37.38675" lon="27.81656">
        <ele>271.341</ele>
      </trkpt>
      <trkpt lat="37.38674" lon="27.81657">
        <ele>271.248</ele>
      </trkpt>
      <trkpt lat="37.38668" lon="27.81661">
        <ele>270.955</ele>
      </trkpt>
      <trkpt lat="37.38654" lon="27.81663">
        <ele>269.75</ele>
      </trkpt>
      <trkpt lat="37.38648" lon="27.81659">
        <ele>268.079</ele>
      </trkpt>
      <trkpt lat="37.38642" lon="27.81661">
        <ele>267.795</ele>
      </trkpt>
      <trkpt lat="37.38634" lon="27.81657">
        <ele>266.427</ele>
      </trkpt>
      <trkpt lat="37.38625" lon="27.81646">
        <ele>263.024</ele>
      </trkpt>
      <trkpt lat="37.3862" lon="27.81641">
        <ele>261.364</ele>
      </trkpt>
      <trkpt lat="37.38618" lon="27.81639">
        <ele>260.516</ele>
      </trkpt>
      <trkpt lat="37.38611" lon="27.81628">
        <ele>257.304</ele>
      </trkpt>
      <trkpt lat="37.38602" lon="27.81623">
        <ele>256.348</ele>
      </trkpt>
      <trkpt lat="37.3859" lon="27.81623">
        <ele>256.541</ele>
      </trkpt>
      <trkpt lat="37.3858" lon="27.81621">
        <ele>255.849</ele>
      </trkpt>
      <trkpt lat="37.38571" lon="27.8162">
        <ele>255.206</ele>
      </trkpt>
      <trkpt lat="37.38567" lon="27.81622">
        <ele>255.862</ele>
      </trkpt>
      <trkpt lat="37.38556" lon="27.81622">
        <ele>255.89</ele>
      </trkpt>
      <trkpt lat="37.38548" lon="27.8162">
        <ele>254.332</ele>
      </trkpt>
      <trkpt lat="37.38537" lon="27.8162">
        <ele>253.647</ele>
      </trkpt>
      <trkpt lat="37.38525" lon="27.81624">
        <ele>254.409</ele>
      </trkpt>
      <trkpt lat="37.38514" lon="27.81624">
        <ele>252.976</ele>
      </trkpt>
      <trkpt lat="37.38515" lon="27.81617">
        <ele>251.06</ele>
      </trkpt>
      <trkpt lat="37.38523" lon="27.81608">
        <ele>248.258</ele>
      </trkpt>
      <trkpt lat="37.38519" lon="27.81607">
        <ele>247.63</ele>
      </trkpt>
      <trkpt lat="37.38517" lon="27.81606">
        <ele>247.377</ele>
      </trkpt>
      <trkpt lat="37.38513" lon="27.81602">
        <ele>245.312</ele>
      </trkpt>
      <trkpt lat="37.38517" lon="27.816">
        <ele>244.853</ele>
      </trkpt>
      <trkpt lat="37.38521" lon="27.81598">
        <ele>244.497</ele>
      </trkpt>
      <trkpt lat="37.38515" lon="27.81596">
        <ele>243.201</ele>
      </trkpt>
      <trkpt lat="37.38514" lon="27.81595">
        <ele>243.013</ele>
      </trkpt>
      <trkpt lat="37.38513" lon="27.81592">
        <ele>241.73</ele>
      </trkpt>
      <trkpt lat="37.38512" lon="27.8159">
        <ele>240.797</ele>
      </trkpt>
      <trkpt lat="37.38502" lon="27.81593">
        <ele>241.542</ele>
      </trkpt>
      <trkpt lat="37.38491" lon="27.81601">
        <ele>243.348</ele>
      </trkpt>
      <trkpt lat="37.3848" lon="27.816">
        <ele>241.757</ele>
      </trkpt>
      <trkpt lat="37.38479" lon="27.81598">
        <ele>240.976</ele>
      </trkpt>
      <trkpt lat="37.38471" lon="27.81592">
        <ele>238.222</ele>
      </trkpt>
      <trkpt lat="37.38466" lon="27.81585">
        <ele>235.368</ele>
      </trkpt>
      <trkpt lat="37.38466" lon="27.81584">
        <ele>234.95</ele>
      </trkpt>
      <trkpt lat="37.38464" lon="27.81572">
        <ele>230.731</ele>
      </trkpt>
      <trkpt lat="37.38464" lon="27.81567">
        <ele>228.829</ele>
      </trkpt>
      <trkpt lat="37.38464" lon="27.81565">
        <ele>228.188</ele>
      </trkpt>
      <trkpt lat="37.38463" lon="27.81557">
        <ele>225.578</ele>
      </trkpt>
      <trkpt lat="37.38465" lon="27.81547">
        <ele>222.29</ele>
      </trkpt>
      <trkpt lat="37.38463" lon="27.81536">
        <ele>218.736</ele>
      </trkpt>
      <trkpt lat="37.38461" lon="27.81526">
        <ele>215.531</ele>
      </trkpt>
      <trkpt lat="37.38465" lon="27.81519">
        <ele>213.202</ele>
      </trkpt>
      <trkpt lat="37.38459" lon="27.81511">
        <ele>211.65</ele>
      </trkpt>
      <trkpt lat="37.38453" lon="27.815">
        <ele>208.995</ele>
      </trkpt>
      <trkpt lat="37.38453" lon="27.815">
        <ele>209.178</ele>
      </trkpt>
      <trkpt lat="37.38443" lon="27.81496">
        <ele>208.953</ele>
      </trkpt>
      <trkpt lat="37.38432" lon="27.81494">
        <ele>209.007</ele>
      </trkpt>
      <trkpt lat="37.38429" lon="27.81495">
        <ele>209.445</ele>
      </trkpt>
      <trkpt lat="37.38419" lon="27.81503">
        <ele>211.555</ele>
      </trkpt>
      <trkpt lat="37.38414" lon="27.81506">
        <ele>211.752</ele>
      </trkpt>
      <trkpt lat="37.38406" lon="27.81499">
        <ele>208.106</ele>
      </trkpt>
      <trkpt lat="37.38402" lon="27.81504">
        <ele>208.215</ele>
      </trkpt>
      <trkpt lat="37.38401" lon="27.81506">
        <ele>208.365</ele>
      </trkpt>
      <trkpt lat="37.38393" lon="27.81515">
        <ele>209.131</ele>
      </trkpt>
      <trkpt lat="37.38388" lon="27.81517">
        <ele>208.597</ele>
      </trkpt>
      <trkpt lat="37.38382" lon="27.81517">
        <ele>207.775</ele>
      </trkpt>
      <trkpt lat="37.38366" lon="27.81514">
        <ele>204.278</ele>
      </trkpt>
      <trkpt lat="37.38357" lon="27.81506">
        <ele>200.83</ele>
      </trkpt>
      <trkpt lat="37.38348" lon="27.815">
        <ele>197.968</ele>
      </trkpt>
      <trkpt lat="37.38337" lon="27.81498">
        <ele>196.715</ele>
      </trkpt>
      <trkpt lat="37.38327" lon="27.81499">
        <ele>196.39</ele>
      </trkpt>
      <trkpt lat="37.38312" lon="27.81498">
        <ele>195.578</ele>
      </trkpt>
      <trkpt lat="37.38301" lon="27.81499">
        <ele>195.524</ele>
      </trkpt>
      <trkpt lat="37.38287" lon="27.81497">
        <ele>194.242</ele>
      </trkpt>
      <trkpt lat="37.38285" lon="27.81496">
        <ele>194.08</ele>
      </trkpt>
      <trkpt lat="37.38272" lon="27.81489">
        <ele>190.441</ele>
      </trkpt>
      <trkpt lat="37.38271" lon="27.81483">
        <ele>188.305</ele>
      </trkpt>
      <trkpt lat="37.38264" lon="27.81479">
        <ele>185.636</ele>
      </trkpt>
      <trkpt lat="37.38263" lon="27.8148">
        <ele>185.647</ele>
      </trkpt>
      <trkpt lat="37.38262" lon="27.8148">
        <ele>185.687</ele>
      </trkpt>
      <trkpt lat="37.38238" lon="27.81483">
        <ele>182.569</ele>
      </trkpt>
      <trkpt lat="37.38237" lon="27.81483">
        <ele>182.321</ele>
      </trkpt>
      <trkpt lat="37.38227" lon="27.81483">
        <ele>180.937</ele>
      </trkpt>
      <trkpt lat="37.38225" lon="27.81481">
        <ele>179.987</ele>
      </trkpt>
      <trkpt lat="37.38218" lon="27.81488">
        <ele>180.711</ele>
      </trkpt>
      <trkpt lat="37.38215" lon="27.81489">
        <ele>180.462</ele>
      </trkpt>
      <trkpt lat="37.38206" lon="27.81489">
        <ele>178.731</ele>
      </trkpt>
      <trkpt lat="37.382" lon="27.81492">
        <ele>178.197</ele>
      </trkpt>
      <trkpt lat="37.38194" lon="27.81486">
        <ele>175.825</ele>
      </trkpt>
      <trkpt lat="37.38187" lon="27.81484">
        <ele>173.693</ele>
      </trkpt>
      <trkpt lat="37.38178" lon="27.81482">
        <ele>171.453</ele>
      </trkpt>
      <trkpt lat="37.38176" lon="27.81481">
        <ele>170.751</ele>
      </trkpt>
      <trkpt lat="37.38169" lon="27.81484">
        <ele>169.533</ele>
      </trkpt>
      <trkpt lat="37.38159" lon="27.81476">
        <ele>166.175</ele>
      </trkpt>
      <trkpt lat="37.38155" lon="27.81471">
        <ele>164.582</ele>
      </trkpt>
      <trkpt lat="37.38152" lon="27.81466">
        <ele>163.181</ele>
      </trkpt>
      <trkpt lat="37.38148" lon="27.81464">
        <ele>162.118</ele>
      </trkpt>
      <trkpt lat="37.38137" lon="27.81465">
        <ele>160.222</ele>
      </trkpt>
      <trkpt lat="37.38129" lon="27.81466">
        <ele>159.36</ele>
      </trkpt>
      <trkpt lat="37.38126" lon="27.8147">
        <ele>159.342</ele>
      </trkpt>
      <trkpt lat="37.38124" lon="27.81472">
        <ele>159.347</ele>
      </trkpt>
      <trkpt lat="37.38121" lon="27.81476">
        <ele>159.068</ele>
      </trkpt>
      <trkpt lat="37.38121" lon="27.81488">
        <ele>159.637</ele>
      </trkpt>
      <trkpt lat="37.38122" lon="27.81499">
        <ele>160.66</ele>
      </trkpt>
      <trkpt lat="37.3812" lon="27.81501">
        <ele>160.198</ele>
      </trkpt>
      <trkpt lat="37.38111" lon="27.81506">
        <ele>158.38</ele>
      </trkpt>
      <trkpt lat="37.38109" lon="27.81511">
        <ele>158.521</ele>
      </trkpt>
      <trkpt lat="37.38103" lon="27.81516">
        <ele>158.085</ele>
      </trkpt>
      <trkpt lat="37.38098" lon="27.81524">
        <ele>158.239</ele>
      </trkpt>
      <trkpt lat="37.38093" lon="27.81527">
        <ele>158.001</ele>
      </trkpt>
      <trkpt lat="37.38084" lon="27.81537">
        <ele>158.044</ele>
      </trkpt>
      <trkpt lat="37.38084" lon="27.81542">
        <ele>158.617</ele>
      </trkpt>
      <trkpt lat="37.38086" lon="27.81551">
        <ele>159.74</ele>
      </trkpt>
      <trkpt lat="37.38083" lon="27.81552">
        <ele>159.6</ele>
      </trkpt>
      <trkpt lat="37.38078" lon="27.81553">
        <ele>159.213</ele>
      </trkpt>
      <trkpt lat="37.3807" lon="27.81541">
        <ele>157.157</ele>
      </trkpt>
      <trkpt lat="37.38067" lon="27.81528">
        <ele>155.814</ele>
      </trkpt>
      <trkpt lat="37.38063" lon="27.81523">
        <ele>155.016</ele>
      </trkpt>
      <trkpt lat="37.38055" lon="27.81517">
        <ele>153.762</ele>
      </trkpt>
      <trkpt lat="37.3805" lon="27.81514">
        <ele>152.554</ele>
      </trkpt>
      <trkpt lat="37.38043" lon="27.81513">
        <ele>151.093</ele>
      </trkpt>
      <trkpt lat="37.38034" lon="27.8151">
        <ele>149.13</ele>
      </trkpt>
      <trkpt lat="37.38027" lon="27.81509">
        <ele>147.745</ele>
      </trkpt>
      <trkpt lat="37.38019" lon="27.81509">
        <ele>145.967</ele>
      </trkpt>
      <trkpt lat="37.38015" lon="27.81511">
        <ele>145.201</ele>
      </trkpt>
      <trkpt lat="37.38003" lon="27.81508">
        <ele>142.228</ele>
      </trkpt>
      <trkpt lat="37.38002" lon="27.81507">
        <ele>141.974</ele>
      </trkpt>
      <trkpt lat="37.37997" lon="27.81502">
        <ele>140.575</ele>
      </trkpt>
      <trkpt lat="37.37991" lon="27.81496">
        <ele>138.911</ele>
      </trkpt>
      <trkpt lat="37.37993" lon="27.81485">
        <ele>137.64</ele>
      </trkpt>
      <trkpt lat="37.37987" lon="27.8148">
        <ele>135.974</ele>
      </trkpt>
      <trkpt lat="37.37984" lon="27.81473">
        <ele>134.713</ele>
      </trkpt>
      <trkpt lat="37.37982" lon="27.81467">
        <ele>133.851</ele>
      </trkpt>
      <trkpt lat="37.37975" lon="27.81464">
        <ele>132.757</ele>
      </trkpt>
      <trkpt lat="37.37971" lon="27.81468">
        <ele>132.675</ele>
      </trkpt>
      <trkpt lat="37.3797" lon="27.8147">
        <ele>132.857</ele>
      </trkpt>
      <trkpt lat="37.37964" lon="27.81473">
        <ele>133.041</ele>
      </trkpt>
      <trkpt lat="37.3796" lon="27.81472">
        <ele>132.939</ele>
      </trkpt>
      <trkpt lat="37.37957" lon="27.81467">
        <ele>132.534</ele>
      </trkpt>
      <trkpt lat="37.37955" lon="27.81466">
        <ele>132.379</ele>
      </trkpt>
      <trkpt lat="37.37946" lon="27.81477">
        <ele>133.62</ele>
      </trkpt>
      <trkpt lat="37.37939" lon="27.81484">
        <ele>135.707</ele>
      </trkpt>
      <trkpt lat="37.37932" lon="27.81474">
        <ele>135.976</ele>
      </trkpt>
      <trkpt lat="37.37927" lon="27.81465">
        <ele>135.379</ele>
      </trkpt>
      <trkpt lat="37.37921" lon="27.81453">
        <ele>133.713</ele>
      </trkpt>
      <trkpt lat="37.37913" lon="27.81447">
        <ele>133.151</ele>
      </trkpt>
      <trkpt lat="37.37907" lon="27.81437">
        <ele>132.007</ele>
      </trkpt>
      <trkpt lat="37.37901" lon="27.81431">
        <ele>131.513</ele>
      </trkpt>
      <trkpt lat="37.3789" lon="27.81425">
        <ele>131.056</ele>
      </trkpt>
      <trkpt lat="37.3788" lon="27.81417">
        <ele>129.763</ele>
      </trkpt>
      <trkpt lat="37.37872" lon="27.81411">
        <ele>128.764</ele>
      </trkpt>
      <trkpt lat="37.37865" lon="27.81404">
        <ele>127.506</ele>
      </trkpt>
      <trkpt lat="37.37859" lon="27.81398">
        <ele>126.216</ele>
      </trkpt>
      <trkpt lat="37.37848" lon="27.81397">
        <ele>125.427</ele>
      </trkpt>
      <trkpt lat="37.37846" lon="27.81396">
        <ele>125.079</ele>
      </trkpt>
      <trkpt lat="37.37832" lon="27.81395">
        <ele>124.077</ele>
      </trkpt>
      <trkpt lat="37.37815" lon="27.81394">
        <ele>121.4</ele>
      </trkpt>
      <trkpt lat="37.37805" lon="27.81407">
        <ele>122.961</ele>
      </trkpt>
      <trkpt lat="37.37795" lon="27.81422">
        <ele>125.121</ele>
      </trkpt>
      <trkpt lat="37.37794" lon="27.81423">
        <ele>125.346</ele>
      </trkpt>
      <trkpt lat="37.37788" lon="27.81427">
        <ele>125.65</ele>
      </trkpt>
      <trkpt lat="37.37771" lon="27.81433">
        <ele>124.801</ele>
      </trkpt>
      <trkpt lat="37.37754" lon="27.81439">
        <ele>123.299</ele>
      </trkpt>
      <trkpt lat="37.37754" lon="27.81439">
        <ele>123.209</ele>
      </trkpt>
      <trkpt lat="37.37745" lon="27.81439">
        <ele>121.826</ele>
      </trkpt>
      <trkpt lat="37.37738" lon="27.81442">
        <ele>121.781</ele>
      </trkpt>
      <trkpt lat="37.37729" lon="27.81444">
        <ele>120.831</ele>
      </trkpt>
      <trkpt lat="37.3772" lon="27.81447">
        <ele>120.118</ele>
      </trkpt>
      <trkpt lat="37.37718" lon="27.8145">
        <ele>120.134</ele>
      </trkpt>
      <trkpt lat="37.37719" lon="27.81462">
        <ele>122.457</ele>
      </trkpt>
      <trkpt lat="37.37722" lon="27.81475">
        <ele>125.675</ele>
      </trkpt>
      <trkpt lat="37.37721" lon="27.81489">
        <ele>128.309</ele>
      </trkpt>
      <trkpt lat="37.37712" lon="27.81496">
        <ele>128.536</ele>
      </trkpt>
      <trkpt lat="37.37709" lon="27.81497">
        <ele>128.385</ele>
      </trkpt>
      <trkpt lat="37.37699" lon="27.81487">
        <ele>124.491</ele>
      </trkpt>
      <trkpt lat="37.37694" lon="27.81483">
        <ele>122.554</ele>
      </trkpt>
      <trkpt lat="37.37691" lon="27.8148">
        <ele>121.016</ele>
      </trkpt>
      <trkpt lat="37.3768" lon="27.81476">
        <ele>117.849</ele>
      </trkpt>
      <trkpt lat="37.37676" lon="27.81473">
        <ele>116.142</ele>
      </trkpt>
      <trkpt lat="37.37667" lon="27.81479">
        <ele>116.038</ele>
      </trkpt>
      <trkpt lat="37.37661" lon="27.81481">
        <ele>115.967</ele>
      </trkpt>
      <trkpt lat="37.37653" lon="27.81485">
        <ele>116.024</ele>
      </trkpt>
      <trkpt lat="37.37643" lon="27.81483">
        <ele>114.204</ele>
      </trkpt>
      <trkpt lat="37.37641" lon="27.81482">
        <ele>113.794</ele>
      </trkpt>
      <trkpt lat="37.37629" lon="27.81482">
        <ele>111.836</ele>
      </trkpt>
      <trkpt lat="37.37628" lon="27.81482">
        <ele>111.718</ele>
      </trkpt>
      <trkpt lat="37.37623" lon="27.81483">
        <ele>111.097</ele>
      </trkpt>
      <trkpt lat="37.37613" lon="27.81482">
        <ele>109.368</ele>
      </trkpt>
      <trkpt lat="37.37611" lon="27.81482">
        <ele>109.033</ele>
      </trkpt>
      <trkpt lat="37.37601" lon="27.81484">
        <ele>106.795</ele>
      </trkpt>
      <trkpt lat="37.37592" lon="27.81489">
        <ele>105.193</ele>
      </trkpt>
      <trkpt lat="37.3759" lon="27.8149">
        <ele>104.714</ele>
      </trkpt>
      <trkpt lat="37.37577" lon="27.81495">
        <ele>101.858</ele>
      </trkpt>
      <trkpt lat="37.37568" lon="27.815">
        <ele>100.016</ele>
      </trkpt>
      <trkpt lat="37.37557" lon="27.81494">
        <ele>96.97</ele>
      </trkpt>
      <trkpt lat="37.37555" lon="27.81493">
        <ele>96.459</ele>
      </trkpt>
      <trkpt lat="37.37554" lon="27.81493">
        <ele>96.34</ele>
      </trkpt>
      <trkpt lat="37.37552" lon="27.81492">
        <ele>96.157</ele>
      </trkpt>
      <trkpt lat="37.37545" lon="27.81503">
        <ele>96.396</ele>
      </trkpt>
      <trkpt lat="37.37543" lon="27.81506">
        <ele>96.51</ele>
      </trkpt>
      <trkpt lat="37.37541" lon="27.81514">
        <ele>96.962</ele>
      </trkpt>
      <trkpt lat="37.37536" lon="27.81517">
        <ele>97.02</ele>
      </trkpt>
      <trkpt lat="37.37539" lon="27.81523">
        <ele>97.624</ele>
      </trkpt>
      <trkpt lat="37.37545" lon="27.81531">
        <ele>98.614</ele>
      </trkpt>
      <trkpt lat="37.37549" lon="27.8154">
        <ele>100.297</ele>
      </trkpt>
      <trkpt lat="37.37552" lon="27.81547">
        <ele>101.534</ele>
      </trkpt>
      <trkpt lat="37.37551" lon="27.81551">
        <ele>102.219</ele>
      </trkpt>
      <trkpt lat="37.37551" lon="27.81552">
        <ele>102.564</ele>
      </trkpt>
      <trkpt lat="37.37542" lon="27.81557">
        <ele>103.88</ele>
      </trkpt>
      <trkpt lat="37.3754" lon="27.81557">
        <ele>104.054</ele>
      </trkpt>
      <trkpt lat="37.3753" lon="27.8155">
        <ele>102.818</ele>
      </trkpt>
      <trkpt lat="37.37521" lon="27.81546">
        <ele>103.481</ele>
      </trkpt>
      <trkpt lat="37.37519" lon="27.81542">
        <ele>102.835</ele>
      </trkpt>
      <trkpt lat="37.37518" lon="27.81542">
        <ele>103.04</ele>
      </trkpt>
      <trkpt lat="37.3751" lon="27.81543">
        <ele>104.709</ele>
      </trkpt>
      <trkpt lat="37.37502" lon="27.81543">
        <ele>106.616</ele>
      </trkpt>
      <trkpt lat="37.3749" lon="27.81542">
        <ele>108.973</ele>
      </trkpt>
      <trkpt lat="37.37482" lon="27.81531">
        <ele>106.89</ele>
      </trkpt>
      <trkpt lat="37.37477" lon="27.81526">
        <ele>106.245</ele>
      </trkpt>
      <trkpt lat="37.37472" lon="27.8151">
        <ele>101.661</ele>
      </trkpt>
      <trkpt lat="37.3747" lon="27.81498">
        <ele>98.001</ele>
      </trkpt>
      <trkpt lat="37.37461" lon="27.81489">
        <ele>97.311</ele>
      </trkpt>
      <trkpt lat="37.37441" lon="27.81493">
        <ele>101.52</ele>
      </trkpt>
      <trkpt lat="37.37434" lon="27.81493">
        <ele>102.961</ele>
      </trkpt>
      <trkpt lat="37.37424" lon="27.81491">
        <ele>104.678</ele>
      </trkpt>
      <trkpt lat="37.37419" lon="27.81478">
        <ele>102.626</ele>
      </trkpt>
      <trkpt lat="37.37418" lon="27.81474">
        <ele>102.055</ele>
      </trkpt>
      <trkpt lat="37.37413" lon="27.81462">
        <ele>101.817</ele>
      </trkpt>
      <trkpt lat="37.37403" lon="27.81449">
        <ele>104.163</ele>
      </trkpt>
      <trkpt lat="37.37397" lon="27.81439">
        <ele>104.785</ele>
      </trkpt>
      <trkpt lat="37.37388" lon="27.81433">
        <ele>107.649</ele>
      </trkpt>
      <trkpt lat="37.3738" lon="27.81417">
        <ele>106.57</ele>
      </trkpt>
      <trkpt lat="37.37368" lon="27.81402">
        <ele>107.152</ele>
      </trkpt>
      <trkpt lat="37.3736" lon="27.81389">
        <ele>106.864</ele>
      </trkpt>
      <trkpt lat="37.37358" lon="27.81385">
        <ele>105.547</ele>
      </trkpt>
      <trkpt lat="37.37357" lon="27.81385">
        <ele>105.513</ele>
      </trkpt>
      <trkpt lat="37.37353" lon="27.81377">
        <ele>102.781</ele>
      </trkpt>
      <trkpt lat="37.37349" lon="27.81374">
        <ele>101.541</ele>
      </trkpt>
      <trkpt lat="37.3734" lon="27.81369">
        <ele>99.608</ele>
      </trkpt>
      <trkpt lat="37.3733" lon="27.81372">
        <ele>99.261</ele>
      </trkpt>
      <trkpt lat="37.37319" lon="27.81377">
        <ele>97.869</ele>
      </trkpt>
      <trkpt lat="37.37311" lon="27.81389">
        <ele>98.781</ele>
      </trkpt>
      <trkpt lat="37.37299" lon="27.81408">
        <ele>101.184</ele>
      </trkpt>
      <trkpt lat="37.37287" lon="27.81424">
        <ele>103.091</ele>
      </trkpt>
      <trkpt lat="37.37285" lon="27.81425">
        <ele>103.234</ele>
      </trkpt>
      <trkpt lat="37.37273" lon="27.81419">
        <ele>99.955</ele>
      </trkpt>
      <trkpt lat="37.37264" lon="27.81414">
        <ele>98.776</ele>
      </trkpt>
      <trkpt lat="37.37251" lon="27.81416">
        <ele>99.798</ele>
      </trkpt>
      <trkpt lat="37.37248" lon="27.81417">
        <ele>100.102</ele>
      </trkpt>
      <trkpt lat="37.37235" lon="27.81417">
        <ele>100.159</ele>
      </trkpt>
      <trkpt lat="37.37218" lon="27.81414">
        <ele>98.856</ele>
      </trkpt>
      <trkpt lat="37.37207" lon="27.81412">
        <ele>97.398</ele>
      </trkpt>
      <trkpt lat="37.37194" lon="27.81416">
        <ele>96.875</ele>
      </trkpt>
      <trkpt lat="37.37186" lon="27.81421">
        <ele>97.455</ele>
      </trkpt>
      <trkpt lat="37.37174" lon="27.81422">
        <ele>96.693</ele>
      </trkpt>
      <trkpt lat="37.37172" lon="27.81422">
        <ele>96.518</ele>
      </trkpt>
      <trkpt lat="37.37161" lon="27.81421">
        <ele>96.147</ele>
      </trkpt>
      <trkpt lat="37.37156" lon="27.81418">
        <ele>95.606</ele>
      </trkpt>
      <trkpt lat="37.37144" lon="27.8141">
        <ele>94.454</ele>
      </trkpt>
      <trkpt lat="37.37139" lon="27.81397">
        <ele>91.691</ele>
      </trkpt>
      <trkpt lat="37.37136" lon="27.8139">
        <ele>90.484</ele>
      </trkpt>
      <trkpt lat="37.37132" lon="27.81386">
        <ele>90</ele>
      </trkpt>
      <trkpt lat="37.37116" lon="27.8138">
        <ele>89.755</ele>
      </trkpt>
      <trkpt lat="37.37101" lon="27.81377">
        <ele>88.701</ele>
      </trkpt>
      <trkpt lat="37.37083" lon="27.81374">
        <ele>86.795</ele>
      </trkpt>
      <trkpt lat="37.37068" lon="27.81369">
        <ele>84.476</ele>
      </trkpt>
      <trkpt lat="37.37056" lon="27.81363">
        <ele>82.396</ele>
      </trkpt>
      <trkpt lat="37.37037" lon="27.81355">
        <ele>78.639</ele>
      </trkpt>
      <trkpt lat="37.37027" lon="27.81344">
        <ele>75.246</ele>
      </trkpt>
      <trkpt lat="37.37026" lon="27.8134">
        <ele>74.196</ele>
      </trkpt>
      <trkpt lat="37.37023" lon="27.81334">
        <ele>72.865</ele>
      </trkpt>
      <trkpt lat="37.3701" lon="27.81328">
        <ele>70.835</ele>
      </trkpt>
      <trkpt lat="37.36998" lon="27.81316">
        <ele>68.64</ele>
      </trkpt>
      <trkpt lat="37.36984" lon="27.81314">
        <ele>69.566</ele>
      </trkpt>
      <trkpt lat="37.36975" lon="27.81307">
        <ele>69.802</ele>
      </trkpt>
      <trkpt lat="37.36967" lon="27.81286">
        <ele>72.721</ele>
      </trkpt>
      <trkpt lat="37.36961" lon="27.81264">
        <ele>75.222</ele>
      </trkpt>
      <trkpt lat="37.3696" lon="27.81233">
        <ele>74.528</ele>
      </trkpt>
      <trkpt lat="37.36959" lon="27.81214">
        <ele>73.997</ele>
      </trkpt>
      <trkpt lat="37.36958" lon="27.81196">
        <ele>73.906</ele>
      </trkpt>
      <trkpt lat="37.36957" lon="27.81172">
        <ele>72.06</ele>
      </trkpt>
      <trkpt lat="37.36959" lon="27.81149">
        <ele>69.448</ele>
      </trkpt>
      <trkpt lat="37.36961" lon="27.81129">
        <ele>67.371</ele>
      </trkpt>
      <trkpt lat="37.3696" lon="27.81125">
        <ele>67.299</ele>
      </trkpt>
      <trkpt lat="37.36957" lon="27.81102">
        <ele>66.689</ele>
      </trkpt>
      <trkpt lat="37.36955" lon="27.81088">
        <ele>66.706</ele>
      </trkpt>
      <trkpt lat="37.3695" lon="27.81072">
        <ele>66.875</ele>
      </trkpt>
      <trkpt lat="37.36942" lon="27.81055">
        <ele>66.999</ele>
      </trkpt>
      <trkpt lat="37.36935" lon="27.81039">
        <ele>66.593</ele>
      </trkpt>
      <trkpt lat="37.36923" lon="27.81028">
        <ele>65.456</ele>
      </trkpt>
      <trkpt lat="37.36911" lon="27.81008">
        <ele>64.349</ele>
      </trkpt>
      <trkpt lat="37.36896" lon="27.80998">
        <ele>63.981</ele>
      </trkpt>
      <trkpt lat="37.36881" lon="27.80989">
        <ele>63.595</ele>
      </trkpt>
      <trkpt lat="37.36864" lon="27.80979">
        <ele>63.245</ele>
      </trkpt>
      <trkpt lat="37.36851" lon="27.80976">
        <ele>63.15</ele>
      </trkpt>
      <trkpt lat="37.36839" lon="27.80964">
        <ele>63</ele>
      </trkpt>
      <trkpt lat="37.36827" lon="27.80961">
        <ele>63.143</ele>
      </trkpt>
      <trkpt lat="37.36819" lon="27.80956">
        <ele>63.223</ele>
      </trkpt>
      <trkpt lat="37.36814" lon="27.80958">
        <ele>63.344</ele>
      </trkpt>
      <trkpt lat="37.36812" lon="27.80962">
        <ele>63.503</ele>
      </trkpt>
      <trkpt lat="37.36808" lon="27.80965">
        <ele>63.656</ele>
      </trkpt>
      <trkpt lat="37.36808" lon="27.80965">
        <ele>63.677</ele>
      </trkpt>
      <trkpt lat="37.36801" lon="27.80957">
        <ele>63.796</ele>
      </trkpt>
      <trkpt lat="37.36796" lon="27.80952">
        <ele>63.969</ele>
      </trkpt>
      <trkpt lat="37.3678" lon="27.80942">
        <ele>64.758</ele>
      </trkpt>
      <trkpt lat="37.36768" lon="27.80931">
        <ele>66.043</ele>
      </trkpt>
      <trkpt lat="37.36757" lon="27.80922">
        <ele>67.715</ele>
      </trkpt>
      <trkpt lat="37.36746" lon="27.8091">
        <ele>69.373</ele>
      </trkpt>
      <trkpt lat="37.36738" lon="27.80907">
        <ele>70.76</ele>
      </trkpt>
      <trkpt lat="37.36733" lon="27.80894">
        <ele>70.558</ele>
      </trkpt>
      <trkpt lat="37.36723" lon="27.80882">
        <ele>71.388</ele>
      </trkpt>
      <trkpt lat="37.36716" lon="27.80868">
        <ele>71.374</ele>
      </trkpt>
      <trkpt lat="37.367" lon="27.80849">
        <ele>71.138</ele>
      </trkpt>
      <trkpt lat="37.36681" lon="27.80838">
        <ele>72.09</ele>
      </trkpt>
      <trkpt lat="37.3667" lon="27.8082">
        <ele>71.614</ele>
      </trkpt>
      <trkpt lat="37.36658" lon="27.80801">
        <ele>70.879</ele>
      </trkpt>
      <trkpt lat="37.36646" lon="27.8079">
        <ele>71.455</ele>
      </trkpt>
      <trkpt lat="37.36627" lon="27.80793">
        <ele>74.157</ele>
      </trkpt>
      <trkpt lat="37.36611" lon="27.8079">
        <ele>75.449</ele>
      </trkpt>
      <trkpt lat="37.36597" lon="27.80791">
        <ele>75.24</ele>
      </trkpt>
      <trkpt lat="37.36582" lon="27.80791">
        <ele>74.918</ele>
      </trkpt>
      <trkpt lat="37.36575" lon="27.80793">
        <ele>74.222</ele>
      </trkpt>
      <trkpt lat="37.3656" lon="27.80803">
        <ele>72.602</ele>
      </trkpt>
      <trkpt lat="37.36549" lon="27.80805">
        <ele>71.268</ele>
      </trkpt>
      <trkpt lat="37.36535" lon="27.80805">
        <ele>69.867</ele>
      </trkpt>
      <trkpt lat="37.36522" lon="27.80805">
        <ele>68.633</ele>
      </trkpt>
      <trkpt lat="37.36506" lon="27.80807">
        <ele>67.358</ele>
      </trkpt>
      <trkpt lat="37.36491" lon="27.80804">
        <ele>65.967</ele>
      </trkpt>
      <trkpt lat="37.36477" lon="27.80803">
        <ele>64.266</ele>
      </trkpt>
      <trkpt lat="37.36468" lon="27.80793">
        <ele>62.552</ele>
      </trkpt>
      <trkpt lat="37.36459" lon="27.80788">
        <ele>61.88</ele>
      </trkpt>
      <trkpt lat="37.36441" lon="27.80787">
        <ele>61.777</ele>
      </trkpt>
      <trkpt lat="37.36422" lon="27.80784">
        <ele>62.274</ele>
      </trkpt>
      <trkpt lat="37.36406" lon="27.80788">
        <ele>63.132</ele>
      </trkpt>
      <trkpt lat="37.36394" lon="27.80784">
        <ele>63.286</ele>
      </trkpt>
      <trkpt lat="37.36394" lon="27.80784">
        <ele>63.286</ele>
      </trkpt>
      <trkpt lat="37.36389" lon="27.80782">
        <ele>63.29</ele>
      </trkpt>
      <trkpt lat="37.36392" lon="27.80765">
        <ele>62.425</ele>
      </trkpt>
      <trkpt lat="37.36391" lon="27.80759">
        <ele>62.259</ele>
      </trkpt>
      <trkpt lat="37.36379" lon="27.80754">
        <ele>62.819</ele>
      </trkpt>
      <trkpt lat="37.36367" lon="27.80757">
        <ele>63.608</ele>
      </trkpt>
      <trkpt lat="37.36363" lon="27.80757">
        <ele>63.898</ele>
      </trkpt>
      <trkpt lat="37.36361" lon="27.80762">
        <ele>64.019</ele>
      </trkpt>
      <trkpt lat="37.36346" lon="27.80765">
        <ele>65.096</ele>
      </trkpt>
      <trkpt lat="37.3634" lon="27.80766">
        <ele>65.529</ele>
      </trkpt>
      <trkpt lat="37.36327" lon="27.80772">
        <ele>66.669</ele>
      </trkpt>
      <trkpt lat="37.36313" lon="27.80777">
        <ele>68.234</ele>
      </trkpt>
      <trkpt lat="37.36305" lon="27.80782">
        <ele>69.105</ele>
      </trkpt>
      <trkpt lat="37.36289" lon="27.80786">
        <ele>71.457</ele>
      </trkpt>
      <trkpt lat="37.36273" lon="27.80783">
        <ele>73.028</ele>
      </trkpt>
      <trkpt lat="37.36267" lon="27.80798">
        <ele>73.293</ele>
      </trkpt>
      <trkpt lat="37.36265" lon="27.80806">
        <ele>73.45</ele>
      </trkpt>
      <trkpt lat="37.36263" lon="27.8081">
        <ele>73.444</ele>
      </trkpt>
      <trkpt lat="37.36263" lon="27.80811">
        <ele>73.461</ele>
      </trkpt>
      <trkpt lat="37.36258" lon="27.80816">
        <ele>73.589</ele>
      </trkpt>
      <trkpt lat="37.36255" lon="27.80819">
        <ele>73.732</ele>
      </trkpt>
      <trkpt lat="37.36244" lon="27.8083">
        <ele>74</ele>
      </trkpt>
      <trkpt lat="37.36233" lon="27.80848">
        <ele>75.686</ele>
      </trkpt>
      <trkpt lat="37.36221" lon="27.80875">
        <ele>79.552</ele>
      </trkpt>
      <trkpt lat="37.36212" lon="27.80898">
        <ele>82.29</ele>
      </trkpt>
      <trkpt lat="37.362" lon="27.80925">
        <ele>82.988</ele>
      </trkpt>
      <trkpt lat="37.36194" lon="27.80935">
        <ele>82.656</ele>
      </trkpt>
      <trkpt lat="37.36191" lon="27.80938">
        <ele>82.427</ele>
      </trkpt>
      <trkpt lat="37.3618" lon="27.80943">
        <ele>82.075</ele>
      </trkpt>
      <trkpt lat="37.36178" lon="27.80945">
        <ele>81.995</ele>
      </trkpt>
      <trkpt lat="37.36166" lon="27.80949">
        <ele>82.029</ele>
      </trkpt>
      <trkpt lat="37.36153" lon="27.80956">
        <ele>82.72</ele>
      </trkpt>
      <trkpt lat="37.36145" lon="27.80954">
        <ele>83.034</ele>
      </trkpt>
      <trkpt lat="37.36146" lon="27.80955">
        <ele>83.039</ele>
      </trkpt>
      <trkpt lat="37.36142" lon="27.80954">
        <ele>83.189</ele>
      </trkpt>
      <trkpt lat="37.36141" lon="27.80953">
        <ele>83.225</ele>
      </trkpt>
      <trkpt lat="37.36137" lon="27.8095">
        <ele>83.252</ele>
      </trkpt>
      <trkpt lat="37.36123" lon="27.80946">
        <ele>83.641</ele>
      </trkpt>
      <trkpt lat="37.36111" lon="27.80933">
        <ele>83.166</ele>
      </trkpt>
      <trkpt lat="37.36105" lon="27.80923">
        <ele>82.573</ele>
      </trkpt>
      <trkpt lat="37.36093" lon="27.80903">
        <ele>80.728</ele>
      </trkpt>
      <trkpt lat="37.36092" lon="27.809">
        <ele>80.349</ele>
      </trkpt>
      <trkpt lat="37.36091" lon="27.80899">
        <ele>80.268</ele>
      </trkpt>
      <trkpt lat="37.36087" lon="27.80893">
        <ele>79.58</ele>
      </trkpt>
      <trkpt lat="37.36073" lon="27.80879">
        <ele>79.039</ele>
      </trkpt>
      <trkpt lat="37.36068" lon="27.80878">
        <ele>79.152</ele>
      </trkpt>
      <trkpt lat="37.36062" lon="27.80876">
        <ele>79.286</ele>
      </trkpt>
      <trkpt lat="37.36062" lon="27.80876">
        <ele>79.273</ele>
      </trkpt>
      <trkpt lat="37.36062" lon="27.80875">
        <ele>79.286</ele>
      </trkpt>
      <trkpt lat="37.36052" lon="27.80881">
        <ele>80.288</ele>
      </trkpt>
      <trkpt lat="37.3605" lon="27.80879">
        <ele>80.441</ele>
      </trkpt>
      <trkpt lat="37.36046" lon="27.80866">
        <ele>80.535</ele>
      </trkpt>
      <trkpt lat="37.36046" lon="27.80865">
        <ele>80.526</ele>
      </trkpt>
      <trkpt lat="37.36045" lon="27.8086">
        <ele>80.467</ele>
      </trkpt>
      <trkpt lat="37.3603" lon="27.80844">
        <ele>80.47</ele>
      </trkpt>
      <trkpt lat="37.36023" lon="27.80839">
        <ele>80.35</ele>
      </trkpt>
      <trkpt lat="37.36021" lon="27.80836">
        <ele>80.136</ele>
      </trkpt>
      <trkpt lat="37.36021" lon="27.80835">
        <ele>80</ele>
      </trkpt>
      <trkpt lat="37.36019" lon="27.80833">
        <ele>79.912</ele>
      </trkpt>
      <trkpt lat="37.36018" lon="27.80833">
        <ele>80.073</ele>
      </trkpt>
      <trkpt lat="37.36012" lon="27.80835">
        <ele>80.925</ele>
      </trkpt>
      <trkpt lat="37.36005" lon="27.80827">
        <ele>80.848</ele>
      </trkpt>
      <trkpt lat="37.36003" lon="27.80826">
        <ele>80.927</ele>
      </trkpt>
      <trkpt lat="37.36001" lon="27.80824">
        <ele>80.973</ele>
      </trkpt>
      <trkpt lat="37.35995" lon="27.80824">
        <ele>81.941</ele>
      </trkpt>
      <trkpt lat="37.35992" lon="27.80823">
        <ele>82.539</ele>
      </trkpt>
      <trkpt lat="37.35984" lon="27.80818">
        <ele>83.663</ele>
      </trkpt>
      <trkpt lat="37.35971" lon="27.80814">
        <ele>85.855</ele>
      </trkpt>
      <trkpt lat="37.35963" lon="27.80809">
        <ele>87.516</ele>
      </trkpt>
      <trkpt lat="37.35962" lon="27.80812">
        <ele>88.021</ele>
      </trkpt>
      <trkpt lat="37.35962" lon="27.80812">
        <ele>87.99</ele>
      </trkpt>
      <trkpt lat="37.35954" lon="27.80814">
        <ele>90.061</ele>
      </trkpt>
      <trkpt lat="37.35953" lon="27.80813">
        <ele>90.142</ele>
      </trkpt>
      <trkpt lat="37.3595" lon="27.8081">
        <ele>90.837</ele>
      </trkpt>
      <trkpt lat="37.35944" lon="27.80807">
        <ele>92.13</ele>
      </trkpt>
      <trkpt lat="37.3594" lon="27.80806">
        <ele>92.684</ele>
      </trkpt>
      <trkpt lat="37.35938" lon="27.80809">
        <ele>93.078</ele>
      </trkpt>
      <trkpt lat="37.35935" lon="27.80797">
        <ele>92.945</ele>
      </trkpt>
      <trkpt lat="37.35936" lon="27.8079">
        <ele>92.357</ele>
      </trkpt>
      <trkpt lat="37.35937" lon="27.8079">
        <ele>92.347</ele>
      </trkpt>
      <trkpt lat="37.3594" lon="27.80781">
        <ele>91.157</ele>
      </trkpt>
      <trkpt lat="37.35944" lon="27.8077">
        <ele>89.807</ele>
      </trkpt>
      <trkpt lat="37.35945" lon="27.80752">
        <ele>88.963</ele>
      </trkpt>
      <trkpt lat="37.35943" lon="27.80734">
        <ele>89.309</ele>
      </trkpt>
      <trkpt lat="37.35941" lon="27.80732">
        <ele>89.571</ele>
      </trkpt>
      <trkpt lat="37.35935" lon="27.80718">
        <ele>90.655</ele>
      </trkpt>
      <trkpt lat="37.35927" lon="27.80702">
        <ele>91.364</ele>
      </trkpt>
      <trkpt lat="37.35928" lon="27.80694">
        <ele>90.89</ele>
      </trkpt>
      <trkpt lat="37.35928" lon="27.80695">
        <ele>90.964</ele>
      </trkpt>
      <trkpt lat="37.35924" lon="27.8068">
        <ele>89.827</ele>
      </trkpt>
      <trkpt lat="37.35918" lon="27.80672">
        <ele>89.514</ele>
      </trkpt>
      <trkpt lat="37.35913" lon="27.80668">
        <ele>89.305</ele>
      </trkpt>
      <trkpt lat="37.35913" lon="27.80667">
        <ele>89.235</ele>
      </trkpt>
      <trkpt lat="37.35903" lon="27.80657">
        <ele>87.942</ele>
      </trkpt>
      <trkpt lat="37.35893" lon="27.80647">
        <ele>86.378</ele>
      </trkpt>
      <trkpt lat="37.35879" lon="27.80639">
        <ele>84.621</ele>
      </trkpt>
      <trkpt lat="37.3586" lon="27.80639">
        <ele>84.25</ele>
      </trkpt>
      <trkpt lat="37.35848" lon="27.80631">
        <ele>85.597</ele>
      </trkpt>
      <trkpt lat="37.35832" lon="27.80615">
        <ele>85.642</ele>
      </trkpt>
      <trkpt lat="37.35822" lon="27.80611">
        <ele>86.305</ele>
      </trkpt>
      <trkpt lat="37.35815" lon="27.80613">
        <ele>87.211</ele>
      </trkpt>
      <trkpt lat="37.35802" lon="27.80607">
        <ele>88.585</ele>
      </trkpt>
      <trkpt lat="37.35802" lon="27.80596">
        <ele>88.159</ele>
      </trkpt>
      <trkpt lat="37.35806" lon="27.80578">
        <ele>86.99</ele>
      </trkpt>
      <trkpt lat="37.35809" lon="27.80562">
        <ele>86.726</ele>
      </trkpt>
      <trkpt lat="37.35812" lon="27.80547">
        <ele>86.559</ele>
      </trkpt>
      <trkpt lat="37.35811" lon="27.80544">
        <ele>86.601</ele>
      </trkpt>
      <trkpt lat="37.35809" lon="27.8053">
        <ele>86.779</ele>
      </trkpt>
      <trkpt lat="37.358" lon="27.80519">
        <ele>88.633</ele>
      </trkpt>
      <trkpt lat="37.358" lon="27.80505">
        <ele>89.512</ele>
      </trkpt>
      <trkpt lat="37.35791" lon="27.80494">
        <ele>91.588</ele>
      </trkpt>
      <trkpt lat="37.35783" lon="27.80482">
        <ele>93.164</ele>
      </trkpt>
      <trkpt lat="37.35774" lon="27.80468">
        <ele>94.226</ele>
      </trkpt>
      <trkpt lat="37.35762" lon="27.80458">
        <ele>94.623</ele>
      </trkpt>
      <trkpt lat="37.3575" lon="27.8045">
        <ele>94.632</ele>
      </trkpt>
      <trkpt lat="37.35735" lon="27.80451">
        <ele>96.253</ele>
      </trkpt>
      <trkpt lat="37.3572" lon="27.80447">
        <ele>97.525</ele>
      </trkpt>
      <trkpt lat="37.35703" lon="27.8045">
        <ele>99.595</ele>
      </trkpt>
      <trkpt lat="37.3569" lon="27.80443">
        <ele>99.837</ele>
      </trkpt>
      <trkpt lat="37.35681" lon="27.80434">
        <ele>98.735</ele>
      </trkpt>
      <trkpt lat="37.35664" lon="27.80427">
        <ele>98.173</ele>
      </trkpt>
      <trkpt lat="37.3565" lon="27.80421">
        <ele>97.918</ele>
      </trkpt>
      <trkpt lat="37.35634" lon="27.80416">
        <ele>97.945</ele>
      </trkpt>
      <trkpt lat="37.35619" lon="27.80414">
        <ele>97.925</ele>
      </trkpt>
      <trkpt lat="37.35604" lon="27.80404">
        <ele>98.745</ele>
      </trkpt>
      <trkpt lat="37.35588" lon="27.80399">
        <ele>100.284</ele>
      </trkpt>
      <trkpt lat="37.35576" lon="27.8039">
        <ele>100.617</ele>
      </trkpt>
      <trkpt lat="37.35566" lon="27.80382">
        <ele>100.243</ele>
      </trkpt>
      <trkpt lat="37.35559" lon="27.80374">
        <ele>99.198</ele>
      </trkpt>
      <trkpt lat="37.3554" lon="27.80356">
        <ele>96.863</ele>
      </trkpt>
      <trkpt lat="37.35525" lon="27.8034">
        <ele>95.294</ele>
      </trkpt>
      <trkpt lat="37.35503" lon="27.80334">
        <ele>96.71</ele>
      </trkpt>
      <trkpt lat="37.35473" lon="27.80327">
        <ele>97.742</ele>
      </trkpt>
      <trkpt lat="37.35457" lon="27.80322">
        <ele>97.782</ele>
      </trkpt>
      <trkpt lat="37.35439" lon="27.8032">
        <ele>98.224</ele>
      </trkpt>
      <trkpt lat="37.35421" lon="27.80318">
        <ele>98.603</ele>
      </trkpt>
      <trkpt lat="37.35402" lon="27.80313">
        <ele>98.634</ele>
      </trkpt>
      <trkpt lat="37.35379" lon="27.80309">
        <ele>98.966</ele>
      </trkpt>
      <trkpt lat="37.35365" lon="27.80313">
        <ele>100.141</ele>
      </trkpt>
      <trkpt lat="37.35352" lon="27.80317">
        <ele>101.115</ele>
      </trkpt>
      <trkpt lat="37.35337" lon="27.80317">
        <ele>101.098</ele>
      </trkpt>
      <trkpt lat="37.35325" lon="27.80319">
        <ele>101.496</ele>
      </trkpt>
      <trkpt lat="37.35323" lon="27.8032">
        <ele>101.529</ele>
      </trkpt>
      <trkpt lat="37.3532" lon="27.80321">
        <ele>101.772</ele>
      </trkpt>
      <trkpt lat="37.35305" lon="27.80329">
        <ele>102.532</ele>
      </trkpt>
      <trkpt lat="37.35294" lon="27.80329">
        <ele>103.031</ele>
      </trkpt>
      <trkpt lat="37.35292" lon="27.80325">
        <ele>102.756</ele>
      </trkpt>
      <trkpt lat="37.35281" lon="27.80312">
        <ele>102.219</ele>
      </trkpt>
      <trkpt lat="37.35269" lon="27.80306">
        <ele>102.728</ele>
      </trkpt>
      <trkpt lat="37.35254" lon="27.80299">
        <ele>103.228</ele>
      </trkpt>
      <trkpt lat="37.3524" lon="27.80291">
        <ele>103.486</ele>
      </trkpt>
      <trkpt lat="37.35227" lon="27.80289">
        <ele>104.121</ele>
      </trkpt>
      <trkpt lat="37.35215" lon="27.80286">
        <ele>104.654</ele>
      </trkpt>
      <trkpt lat="37.35202" lon="27.80279">
        <ele>104.816</ele>
      </trkpt>
      <trkpt lat="37.35185" lon="27.80273">
        <ele>104.569</ele>
      </trkpt>
      <trkpt lat="37.3517" lon="27.80269">
        <ele>104.299</ele>
      </trkpt>
      <trkpt lat="37.35151" lon="27.80262">
        <ele>103.516</ele>
      </trkpt>
      <trkpt lat="37.35133" lon="27.80253">
        <ele>101.49</ele>
      </trkpt>
      <trkpt lat="37.35112" lon="27.80243">
        <ele>100.256</ele>
      </trkpt>
      <trkpt lat="37.35091" lon="27.80236">
        <ele>100.975</ele>
      </trkpt>
      <trkpt lat="37.35075" lon="27.80225">
        <ele>100.112</ele>
      </trkpt>
      <trkpt lat="37.35072" lon="27.80222">
        <ele>99.825</ele>
      </trkpt>
      <trkpt lat="37.35069" lon="27.80216">
        <ele>98.977</ele>
      </trkpt>
      <trkpt lat="37.35053" lon="27.80203">
        <ele>97.581</ele>
      </trkpt>
      <trkpt lat="37.35037" lon="27.80187">
        <ele>95.732</ele>
      </trkpt>
      <trkpt lat="37.35023" lon="27.80178">
        <ele>94.504</ele>
      </trkpt>
      <trkpt lat="37.35018" lon="27.80176">
        <ele>93.975</ele>
      </trkpt>
      <trkpt lat="37.35016" lon="27.80175">
        <ele>93.834</ele>
      </trkpt>
      <trkpt lat="37.35008" lon="27.80174">
        <ele>93.285</ele>
      </trkpt>
      <trkpt lat="37.34992" lon="27.8017">
        <ele>92.11</ele>
      </trkpt>
      <trkpt lat="37.34973" lon="27.80162">
        <ele>90.475</ele>
      </trkpt>
      <trkpt lat="37.3496" lon="27.80159">
        <ele>89.819</ele>
      </trkpt>
      <trkpt lat="37.34957" lon="27.80158">
        <ele>89.64</ele>
      </trkpt>
      <trkpt lat="37.34944" lon="27.80159">
        <ele>89.412</ele>
      </trkpt>
      <trkpt lat="37.34929" lon="27.80158">
        <ele>88.794</ele>
      </trkpt>
      <trkpt lat="37.34915" lon="27.80155">
        <ele>88.102</ele>
      </trkpt>
      <trkpt lat="37.3491" lon="27.80157">
        <ele>88.109</ele>
      </trkpt>
      <trkpt lat="37.34899" lon="27.80142">
        <ele>86.024</ele>
      </trkpt>
      <trkpt lat="37.3488" lon="27.8012">
        <ele>84.28</ele>
      </trkpt>
      <trkpt lat="37.34869" lon="27.801">
        <ele>82.479</ele>
      </trkpt>
      <trkpt lat="37.34862" lon="27.80081">
        <ele>80.789</ele>
      </trkpt>
      <trkpt lat="37.34853" lon="27.80073">
        <ele>80.478</ele>
      </trkpt>
      <trkpt lat="37.34839" lon="27.80068">
        <ele>80.22</ele>
      </trkpt>
      <trkpt lat="37.34827" lon="27.80065">
        <ele>80.13</ele>
      </trkpt>
      <trkpt lat="37.34812" lon="27.80058">
        <ele>79.36</ele>
      </trkpt>
      <trkpt lat="37.34808" lon="27.80057">
        <ele>79.139</ele>
      </trkpt>
      <trkpt lat="37.34791" lon="27.80051">
        <ele>78.452</ele>
      </trkpt>
      <trkpt lat="37.34786" lon="27.80047">
        <ele>78.097</ele>
      </trkpt>
      <trkpt lat="37.34786" lon="27.80046">
        <ele>77.967</ele>
      </trkpt>
      <trkpt lat="37.34786" lon="27.80043">
        <ele>77.6</ele>
      </trkpt>
      <trkpt lat="37.34787" lon="27.80022">
        <ele>75.64</ele>
      </trkpt>
      <trkpt lat="37.34787" lon="27.80008">
        <ele>74.809</ele>
      </trkpt>
      <trkpt lat="37.34785" lon="27.79985">
        <ele>73.834</ele>
      </trkpt>
      <trkpt lat="37.34785" lon="27.7996">
        <ele>73.421</ele>
      </trkpt>
      <trkpt lat="37.34776" lon="27.79944">
        <ele>72.911</ele>
      </trkpt>
      <trkpt lat="37.34769" lon="27.79943">
        <ele>72.634</ele>
      </trkpt>
      <trkpt lat="37.34761" lon="27.79942">
        <ele>72.315</ele>
      </trkpt>
      <trkpt lat="37.34747" lon="27.7994">
        <ele>71.827</ele>
      </trkpt>
      <trkpt lat="37.34734" lon="27.79935">
        <ele>71.674</ele>
      </trkpt>
      <trkpt lat="37.34716" lon="27.79927">
        <ele>71.73</ele>
      </trkpt>
      <trkpt lat="37.34702" lon="27.79926">
        <ele>72.553</ele>
      </trkpt>
      <trkpt lat="37.34698" lon="27.79922">
        <ele>72.795</ele>
      </trkpt>
      <trkpt lat="37.34677" lon="27.79891">
        <ele>73.292</ele>
      </trkpt>
      <trkpt lat="37.34659" lon="27.7986">
        <ele>72.951</ele>
      </trkpt>
      <trkpt lat="37.34645" lon="27.79845">
        <ele>72.419</ele>
      </trkpt>
      <trkpt lat="37.34645" lon="27.79845">
        <ele>72.419</ele>
      </trkpt>
      <trkpt lat="37.34645" lon="27.79845">
        <ele>72.419</ele>
      </trkpt>
      <trkpt lat="37.34645" lon="27.79845">
        <ele>72.419</ele>
      </trkpt>
      <trkpt lat="37.34625" lon="27.79829">
        <ele>71.827</ele>
      </trkpt>
      <trkpt lat="37.34599" lon="27.79807">
        <ele>71.055</ele>
      </trkpt>
      <trkpt lat="37.34573" lon="27.79786">
        <ele>70.285</ele>
      </trkpt>
      <trkpt lat="37.34534" lon="27.79755">
        <ele>69.124</ele>
      </trkpt>
      <trkpt lat="37.34507" lon="27.79734">
        <ele>69.576</ele>
      </trkpt>
      <trkpt lat="37.34496" lon="27.79721">
        <ele>69.972</ele>
      </trkpt>
      <trkpt lat="37.34494" lon="27.79718">
        <ele>69.869</ele>
      </trkpt>
      <trkpt lat="37.34489" lon="27.79709">
        <ele>69.723</ele>
      </trkpt>
      <trkpt lat="37.34489" lon="27.79709">
        <ele>69.723</ele>
      </trkpt>
      <trkpt lat="37.3445" lon="27.79685">
        <ele>69.748</ele>
      </trkpt>
      <trkpt lat="37.34416" lon="27.79651">
        <ele>69.074</ele>
      </trkpt>
      <trkpt lat="37.3433" lon="27.79579">
        <ele>59.712</ele>
      </trkpt>
      <trkpt lat="37.34261" lon="27.79523">
        <ele>58.32</ele>
      </trkpt>
      <trkpt lat="37.34216" lon="27.79486">
        <ele>56.507</ele>
      </trkpt>
      <trkpt lat="37.34165" lon="27.79445">
        <ele>54.957</ele>
      </trkpt>
      <trkpt lat="37.34101" lon="27.79386">
        <ele>52.548</ele>
      </trkpt>
      <trkpt lat="37.34075" lon="27.79356">
        <ele>50.564</ele>
      </trkpt>
      <trkpt lat="37.34012" lon="27.79286">
        <ele>50</ele>
      </trkpt>
      <trkpt lat="37.33969" lon="27.7924">
        <ele>48.114</ele>
      </trkpt>
      <trkpt lat="37.33924" lon="27.79169">
        <ele>45</ele>
      </trkpt>
      <trkpt lat="37.33874" lon="27.79086">
        <ele>43.382</ele>
      </trkpt>
      <trkpt lat="37.3385" lon="27.79032">
        <ele>41.084</ele>
      </trkpt>
      <trkpt lat="37.33841" lon="27.78998">
        <ele>41.677</ele>
      </trkpt>
      <trkpt lat="37.33841" lon="27.78953">
        <ele>40.505</ele>
      </trkpt>
      <trkpt lat="37.33841" lon="27.78953">
        <ele>40.5</ele>
      </trkpt>
      <trkpt lat="37.33815" lon="27.78925">
        <ele>37.668</ele>
      </trkpt>
      <trkpt lat="37.3377" lon="27.78875">
        <ele>34.43</ele>
      </trkpt>
      <trkpt lat="37.33706" lon="27.78806">
        <ele>35.415</ele>
      </trkpt>
      <trkpt lat="37.3364" lon="27.78734">
        <ele>35.611</ele>
      </trkpt>
      <trkpt lat="37.33549" lon="27.78654">
        <ele>38.394</ele>
      </trkpt>
      <trkpt lat="37.33447" lon="27.78593">
        <ele>37</ele>
      </trkpt>
      <trkpt lat="37.33327" lon="27.78537">
        <ele>35.86</ele>
      </trkpt>
      <trkpt lat="37.33232" lon="27.78509">
        <ele>35.97</ele>
      </trkpt>
      <trkpt lat="37.33092" lon="27.78483">
        <ele>37.121</ele>
      </trkpt>
      <trkpt lat="37.32903" lon="27.78447">
        <ele>41.046</ele>
      </trkpt>
      <trkpt lat="37.32725" lon="27.78416">
        <ele>44.885</ele>
      </trkpt>
      <trkpt lat="37.32567" lon="27.78388">
        <ele>44.111</ele>
      </trkpt>
      <trkpt lat="37.32417" lon="27.7836">
        <ele>46.047</ele>
      </trkpt>
      <trkpt lat="37.32322" lon="27.78345">
        <ele>46.831</ele>
      </trkpt>
      <trkpt lat="37.32281" lon="27.78338">
        <ele>46.086</ele>
      </trkpt>
      <trkpt lat="37.32247" lon="27.78318">
        <ele>51.569</ele>
      </trkpt>
      <trkpt lat="37.3224" lon="27.78314">
        <ele>52.829</ele>
      </trkpt>
      <trkpt lat="37.3224" lon="27.78314">
        <ele>52.829</ele>
      </trkpt>
      <trkpt lat="37.32207" lon="27.7834">
        <ele>55.79</ele>
      </trkpt>
      <trkpt lat="37.32203" lon="27.78347">
        <ele>56.004</ele>
      </trkpt>
      <trkpt lat="37.32172" lon="27.7839">
        <ele>53.803</ele>
      </trkpt>
      <trkpt lat="37.32003" lon="27.78681">
        <ele>51.534</ele>
      </trkpt>
      <trkpt lat="37.31997" lon="27.78691">
        <ele>51.352</ele>
      </trkpt>
      <trkpt lat="37.31993" lon="27.78696">
        <ele>51.473</ele>
      </trkpt>
      <trkpt lat="37.31922" lon="27.78657">
        <ele>55.464</ele>
      </trkpt>
      <trkpt lat="37.31891" lon="27.78653">
        <ele>53.226</ele>
      </trkpt>
      <trkpt lat="37.3188" lon="27.78646">
        <ele>53.083</ele>
      </trkpt>
      <trkpt lat="37.31875" lon="27.78619">
        <ele>52.284</ele>
      </trkpt>
      <trkpt lat="37.31862" lon="27.78596">
        <ele>51.08</ele>
      </trkpt>
      <trkpt lat="37.31865" lon="27.78593">
        <ele>51.27</ele>
      </trkpt>
      <trkpt lat="37.31857" lon="27.78595">
        <ele>51.213</ele>
      </trkpt>
      <trkpt lat="37.31827" lon="27.78589">
        <ele>52.743</ele>
      </trkpt>
      <trkpt lat="37.31807" lon="27.78577">
        <ele>53.461</ele>
      </trkpt>
      <trkpt lat="37.31794" lon="27.78572">
        <ele>53.826</ele>
      </trkpt>
      <trkpt lat="37.31756" lon="27.7856">
        <ele>54.886</ele>
      </trkpt>
      <trkpt lat="37.31733" lon="27.78562">
        <ele>56.669</ele>
      </trkpt>
      <trkpt lat="37.31724" lon="27.78577">
        <ele>58.413</ele>
      </trkpt>
      <trkpt lat="37.31717" lon="27.78578">
        <ele>58.826</ele>
      </trkpt>
      <trkpt lat="37.31696" lon="27.78565">
        <ele>58.597</ele>
      </trkpt>
      <trkpt lat="37.31652" lon="27.78553">
        <ele>57.915</ele>
      </trkpt>
      <trkpt lat="37.31643" lon="27.7855">
        <ele>57.807</ele>
      </trkpt>
      <trkpt lat="37.31645" lon="27.7855">
        <ele>57.788</ele>
      </trkpt>
      <trkpt lat="37.3163" lon="27.78552">
        <ele>58.143</ele>
      </trkpt>
      <trkpt lat="37.31622" lon="27.78543">
        <ele>57.864</ele>
      </trkpt>
      <trkpt lat="37.31621" lon="27.78539">
        <ele>57.681</ele>
      </trkpt>
      <trkpt lat="37.31623" lon="27.785">
        <ele>55.419</ele>
      </trkpt>
      <trkpt lat="37.31615" lon="27.78483">
        <ele>54.358</ele>
      </trkpt>
      <trkpt lat="37.31595" lon="27.78484">
        <ele>54.759</ele>
      </trkpt>
      <trkpt lat="37.31564" lon="27.7847">
        <ele>55</ele>
      </trkpt>
      <trkpt lat="37.31545" lon="27.78452">
        <ele>54.722</ele>
      </trkpt>
      <trkpt lat="37.31542" lon="27.78448">
        <ele>54.579</ele>
      </trkpt>
      <trkpt lat="37.31546" lon="27.78443">
        <ele>54.639</ele>
      </trkpt>
      <trkpt lat="37.31553" lon="27.78382">
        <ele>57.348</ele>
      </trkpt>
      <trkpt lat="37.31552" lon="27.78374">
        <ele>57.814</ele>
      </trkpt>
      <trkpt lat="37.31552" lon="27.78374">
        <ele>57.814</ele>
      </trkpt>
      <trkpt lat="37.31558" lon="27.78362">
        <ele>58.843</ele>
      </trkpt>
      <trkpt lat="37.31552" lon="27.78364">
        <ele>58.52</ele>
      </trkpt>
      <trkpt lat="37.31552" lon="27.7836">
        <ele>58.876</ele>
      </trkpt>
      <trkpt lat="37.31552" lon="27.78358">
        <ele>59.116</ele>
      </trkpt>
      <trkpt lat="37.31553" lon="27.78357">
        <ele>59.301</ele>
      </trkpt>
      <trkpt lat="37.31553" lon="27.78355">
        <ele>59.562</ele>
      </trkpt>
      <trkpt lat="37.31554" lon="27.78353">
        <ele>59.796</ele>
      </trkpt>
      <trkpt lat="37.31554" lon="27.78349">
        <ele>60.215</ele>
      </trkpt>
      <trkpt lat="37.31554" lon="27.78346">
        <ele>60.6</ele>
      </trkpt>
      <trkpt lat="37.31554" lon="27.78343">
        <ele>60.913</ele>
      </trkpt>
      <trkpt lat="37.31554" lon="27.78339">
        <ele>61.277</ele>
      </trkpt>
      <trkpt lat="37.31554" lon="27.78338">
        <ele>61.5</ele>
      </trkpt>
      <trkpt lat="37.31556" lon="27.78334">
        <ele>61.955</ele>
      </trkpt>
      <trkpt lat="37.31557" lon="27.7833">
        <ele>62.389</ele>
      </trkpt>
      <trkpt lat="37.31557" lon="27.78329">
        <ele>62.654</ele>
      </trkpt>
      <trkpt lat="37.31558" lon="27.78325">
        <ele>63.117</ele>
      </trkpt>
      <trkpt lat="37.31558" lon="27.78324">
        <ele>63.324</ele>
      </trkpt>
      <trkpt lat="37.31558" lon="27.78321">
        <ele>63.662</ele>
      </trkpt>
      <trkpt lat="37.31558" lon="27.78319">
        <ele>64.078</ele>
      </trkpt>
      <trkpt lat="37.31558" lon="27.78315">
        <ele>64.631</ele>
      </trkpt>
      <trkpt lat="37.31558" lon="27.78313">
        <ele>64.907</ele>
      </trkpt>
      <trkpt lat="37.31558" lon="27.78311">
        <ele>65.183</ele>
      </trkpt>
      <trkpt lat="37.31558" lon="27.78308">
        <ele>65.596</ele>
      </trkpt>
      <trkpt lat="37.31558" lon="27.78305">
        <ele>66.073</ele>
      </trkpt>
      <trkpt lat="37.31558" lon="27.78301">
        <ele>66.6</ele>
      </trkpt>
      <trkpt lat="37.31559" lon="27.78299">
        <ele>66.985</ele>
      </trkpt>
      <trkpt lat="37.3156" lon="27.78295">
        <ele>67.486</ele>
      </trkpt>
      <trkpt lat="37.31561" lon="27.78292">
        <ele>67.864</ele>
      </trkpt>
      <trkpt lat="37.31561" lon="27.78292">
        <ele>67.921</ele>
      </trkpt>
      <trkpt lat="37.31562" lon="27.78288">
        <ele>68.397</ele>
      </trkpt>
      <trkpt lat="37.31563" lon="27.78285">
        <ele>68.816</ele>
      </trkpt>
      <trkpt lat="37.31564" lon="27.78282">
        <ele>69.155</ele>
      </trkpt>
      <trkpt lat="37.31564" lon="27.78281">
        <ele>69.326</ele>
      </trkpt>
      <trkpt lat="37.31565" lon="27.78278">
        <ele>69.607</ele>
      </trkpt>
      <trkpt lat="37.31566" lon="27.78276">
        <ele>69.713</ele>
      </trkpt>
      <trkpt lat="37.31567" lon="27.78273">
        <ele>69.843</ele>
      </trkpt>
      <trkpt lat="37.31568" lon="27.78271">
        <ele>69.927</ele>
      </trkpt>
      <trkpt lat="37.31568" lon="27.78269">
        <ele>69.999</ele>
      </trkpt>
      <trkpt lat="37.31568" lon="27.78267">
        <ele>70.109</ele>
      </trkpt>
      <trkpt lat="37.31568" lon="27.78264">
        <ele>70.252</ele>
      </trkpt>
      <trkpt lat="37.31568" lon="27.7826">
        <ele>70.46</ele>
      </trkpt>
      <trkpt lat="37.31568" lon="27.78257">
        <ele>70.648</ele>
      </trkpt>
      <trkpt lat="37.31569" lon="27.78255">
        <ele>70.741</ele>
      </trkpt>
      <trkpt lat="37.31569" lon="27.78254">
        <ele>70.813</ele>
      </trkpt>
      <trkpt lat="37.31569" lon="27.78252">
        <ele>70.907</ele>
      </trkpt>
      <trkpt lat="37.31569" lon="27.78249">
        <ele>71.103</ele>
      </trkpt>
      <trkpt lat="37.3157" lon="27.78246">
        <ele>71.265</ele>
      </trkpt>
      <trkpt lat="37.3157" lon="27.78243">
        <ele>71.492</ele>
      </trkpt>
      <trkpt lat="37.3157" lon="27.78241">
        <ele>71.653</ele>
      </trkpt>
      <trkpt lat="37.3157" lon="27.78239">
        <ele>71.815</ele>
      </trkpt>
      <trkpt lat="37.31571" lon="27.78235">
        <ele>72.074</ele>
      </trkpt>
      <trkpt lat="37.31571" lon="27.78234">
        <ele>72.172</ele>
      </trkpt>
      <trkpt lat="37.31573" lon="27.78231">
        <ele>72.366</ele>
      </trkpt>
      <trkpt lat="37.31573" lon="27.78229">
        <ele>72.527</ele>
      </trkpt>
      <trkpt lat="37.31574" lon="27.78227">
        <ele>72.688</ele>
      </trkpt>
      <trkpt lat="37.31574" lon="27.78224">
        <ele>72.849</ele>
      </trkpt>
      <trkpt lat="37.31574" lon="27.78222">
        <ele>73.085</ele>
      </trkpt>
      <trkpt lat="37.31574" lon="27.78219">
        <ele>73.472</ele>
      </trkpt>
      <trkpt lat="37.31575" lon="27.78218">
        <ele>73.6</ele>
      </trkpt>
      <trkpt lat="37.31575" lon="27.78215">
        <ele>73.985</ele>
      </trkpt>
      <trkpt lat="37.31575" lon="27.78213">
        <ele>74.37</ele>
      </trkpt>
      <trkpt lat="37.31574" lon="27.7821">
        <ele>74.757</ele>
      </trkpt>
      <trkpt lat="37.31573" lon="27.78209">
        <ele>74.888</ele>
      </trkpt>
      <trkpt lat="37.31572" lon="27.7821">
        <ele>74.827</ele>
      </trkpt>
      <trkpt lat="37.3157" lon="27.7821">
        <ele>74.833</ele>
      </trkpt>
      <trkpt lat="37.31567" lon="27.7821">
        <ele>74.71</ele>
      </trkpt>
      <trkpt lat="37.31565" lon="27.78211">
        <ele>74.652</ele>
      </trkpt>
      <trkpt lat="37.31563" lon="27.78211">
        <ele>74.657</ele>
      </trkpt>
      <trkpt lat="37.31561" lon="27.78212">
        <ele>74.533</ele>
      </trkpt>
      <trkpt lat="37.31557" lon="27.78212">
        <ele>74.544</ele>
      </trkpt>
      <trkpt lat="37.31555" lon="27.78212">
        <ele>74.572</ele>
      </trkpt>
      <trkpt lat="37.3155" lon="27.78211">
        <ele>74.694</ele>
      </trkpt>
      <trkpt lat="37.31547" lon="27.78211">
        <ele>74.879</ele>
      </trkpt>
      <trkpt lat="37.31543" lon="27.78209">
        <ele>75.123</ele>
      </trkpt>
      <trkpt lat="37.31542" lon="27.78209">
        <ele>75.152</ele>
      </trkpt>
      <trkpt lat="37.3154" lon="27.78208">
        <ele>75.299</ele>
      </trkpt>
      <trkpt lat="37.31539" lon="27.78208">
        <ele>75.375</ele>
      </trkpt>
      <trkpt lat="37.31537" lon="27.78206">
        <ele>75.63</ele>
      </trkpt>
      <trkpt lat="37.31536" lon="27.78205">
        <ele>75.691</ele>
      </trkpt>
      <trkpt lat="37.31534" lon="27.78203">
        <ele>75.991</ele>
      </trkpt>
      <trkpt lat="37.31531" lon="27.78201">
        <ele>76.232</ele>
      </trkpt>
      <trkpt lat="37.31528" lon="27.78201">
        <ele>76.306</ele>
      </trkpt>
      <trkpt lat="37.31525" lon="27.78199">
        <ele>76.223</ele>
      </trkpt>
      <trkpt lat="37.31523" lon="27.78199">
        <ele>76.014</ele>
      </trkpt>
      <trkpt lat="37.31521" lon="27.78198">
        <ele>75.928</ele>
      </trkpt>
      <trkpt lat="37.31518" lon="27.78199">
        <ele>75.635</ele>
      </trkpt>
      <trkpt lat="37.31517" lon="27.782">
        <ele>75.35</ele>
      </trkpt>
      <trkpt lat="37.31516" lon="27.78202">
        <ele>75.109</ele>
      </trkpt>
      <trkpt lat="37.31515" lon="27.78205">
        <ele>74.841</ele>
      </trkpt>
      <trkpt lat="37.31513" lon="27.78208">
        <ele>74.471</ele>
      </trkpt>
      <trkpt lat="37.31513" lon="27.7821">
        <ele>74.319</ele>
      </trkpt>
      <trkpt lat="37.31512" lon="27.78212">
        <ele>74.147</ele>
      </trkpt>
      <trkpt lat="37.31511" lon="27.78215">
        <ele>73.843</ele>
      </trkpt>
      <trkpt lat="37.3151" lon="27.78217">
        <ele>73.689</ele>
      </trkpt>
      <trkpt lat="37.31509" lon="27.78219">
        <ele>73.499</ele>
      </trkpt>
      <trkpt lat="37.31507" lon="27.78221">
        <ele>73.345</ele>
      </trkpt>
      <trkpt lat="37.31506" lon="27.78223">
        <ele>73.171</ele>
      </trkpt>
      <trkpt lat="37.31504" lon="27.78226">
        <ele>72.829</ele>
      </trkpt>
      <trkpt lat="37.31502" lon="27.78229">
        <ele>72.537</ele>
      </trkpt>
      <trkpt lat="37.315" lon="27.78233">
        <ele>72.229</ele>
      </trkpt>
      <trkpt lat="37.31498" lon="27.78233">
        <ele>72.028</ele>
      </trkpt>
      <trkpt lat="37.31498" lon="27.78233">
        <ele>71.914</ele>
      </trkpt>
      <trkpt lat="37.31496" lon="27.78233">
        <ele>71.705</ele>
      </trkpt>
      <trkpt lat="37.31494" lon="27.78233">
        <ele>71.522</ele>
      </trkpt>
      <trkpt lat="37.31493" lon="27.78232">
        <ele>71.377</ele>
      </trkpt>
      <trkpt lat="37.3149" lon="27.78232">
        <ele>71.054</ele>
      </trkpt>
      <trkpt lat="37.31488" lon="27.78232">
        <ele>70.857</ele>
      </trkpt>
      <trkpt lat="37.31483" lon="27.78231">
        <ele>70.285</ele>
      </trkpt>
      <trkpt lat="37.31482" lon="27.78231">
        <ele>70.208</ele>
      </trkpt>
      <trkpt lat="37.3148" lon="27.7823">
        <ele>69.923</ele>
      </trkpt>
      <trkpt lat="37.31477" lon="27.78229">
        <ele>69.607</ele>
      </trkpt>
      <trkpt lat="37.31476" lon="27.78229">
        <ele>69.468</ele>
      </trkpt>
      <trkpt lat="37.31474" lon="27.78229">
        <ele>69.235</ele>
      </trkpt>
      <trkpt lat="37.31473" lon="27.78229">
        <ele>69.048</ele>
      </trkpt>
      <trkpt lat="37.31471" lon="27.78228">
        <ele>68.894</ele>
      </trkpt>
      <trkpt lat="37.31466" lon="27.78226">
        <ele>68.548</ele>
      </trkpt>
      <trkpt lat="37.31463" lon="27.78225">
        <ele>68.362</ele>
      </trkpt>
      <trkpt lat="37.31462" lon="27.78224">
        <ele>68.255</ele>
      </trkpt>
      <trkpt lat="37.3146" lon="27.78222">
        <ele>68.121</ele>
      </trkpt>
      <trkpt lat="37.31458" lon="27.78222">
        <ele>67.98</ele>
      </trkpt>
      <trkpt lat="37.31457" lon="27.78221">
        <ele>67.89</ele>
      </trkpt>
      <trkpt lat="37.31455" lon="27.78221">
        <ele>67.716</ele>
      </trkpt>
      <trkpt lat="37.31452" lon="27.7822">
        <ele>67.483</ele>
      </trkpt>
      <trkpt lat="37.31448" lon="27.7822">
        <ele>67.203</ele>
      </trkpt>
      <trkpt lat="37.31444" lon="27.78215">
        <ele>66.745</ele>
      </trkpt>
      <trkpt lat="37.3144" lon="27.78224">
        <ele>66.667</ele>
      </trkpt>
      <trkpt lat="37.31442" lon="27.78264">
        <ele>66.838</ele>
      </trkpt>
      <trkpt lat="37.31434" lon="27.78299">
        <ele>65.992</ele>
      </trkpt>
      <trkpt lat="37.31435" lon="27.78318">
        <ele>64.466</ele>
      </trkpt>
      <trkpt lat="37.3143" lon="27.78358">
        <ele>58.534</ele>
      </trkpt>
      <trkpt lat="37.31428" lon="27.78373">
        <ele>56.714</ele>
      </trkpt>
      <trkpt lat="37.31431" lon="27.78387">
        <ele>55.224</ele>
      </trkpt>
      <trkpt lat="37.31435" lon="27.78407">
        <ele>54.335</ele>
      </trkpt>
      <trkpt lat="37.31435" lon="27.78407">
        <ele>54.335</ele>
      </trkpt>
      <trkpt lat="37.31435" lon="27.78407">
        <ele>54.335</ele>
      </trkpt>
      <trkpt lat="37.31435" lon="27.78407">
        <ele>54.335</ele>
      </trkpt>
      <trkpt lat="37.31417" lon="27.78404">
        <ele>54.475</ele>
      </trkpt>
      <trkpt lat="37.31417" lon="27.78404">
        <ele>54.475</ele>
      </trkpt>
      <trkpt lat="37.31413" lon="27.78403">
        <ele>54.584</ele>
      </trkpt>
      <trkpt lat="37.31389" lon="27.78397">
        <ele>55.392</ele>
      </trkpt>
      <trkpt lat="37.31367" lon="27.78393">
        <ele>55.827</ele>
      </trkpt>
      <trkpt lat="37.31351" lon="27.78389">
        <ele>56.345</ele>
      </trkpt>
      <trkpt lat="37.31333" lon="27.78385">
        <ele>57.003</ele>
      </trkpt>
      <trkpt lat="37.31317" lon="27.78382">
        <ele>57.154</ele>
      </trkpt>
      <trkpt lat="37.31301" lon="27.78378">
        <ele>57.376</ele>
      </trkpt>
      <trkpt lat="37.31296" lon="27.78377">
        <ele>57.416</ele>
      </trkpt>
      <trkpt lat="37.31294" lon="27.78377">
        <ele>57.429</ele>
      </trkpt>
      <trkpt lat="37.31283" lon="27.78375">
        <ele>57.514</ele>
      </trkpt>
      <trkpt lat="37.31241" lon="27.78355">
        <ele>56.533</ele>
      </trkpt>
      <trkpt lat="37.31214" lon="27.78336">
        <ele>56</ele>
      </trkpt>
      <trkpt lat="37.31174" lon="27.78283">
        <ele>56.202</ele>
      </trkpt>
      <trkpt lat="37.31167" lon="27.78249">
        <ele>56.052</ele>
      </trkpt>
      <trkpt lat="37.31167" lon="27.78241">
        <ele>56.342</ele>
      </trkpt>
      <trkpt lat="37.31164" lon="27.78157">
        <ele>58</ele>
      </trkpt>
      <trkpt lat="37.31159" lon="27.78105">
        <ele>58.96</ele>
      </trkpt>
      <trkpt lat="37.31159" lon="27.78103">
        <ele>58.994</ele>
      </trkpt>
      <trkpt lat="37.3116" lon="27.78108">
        <ele>58.872</ele>
      </trkpt>
      <trkpt lat="37.31147" lon="27.78092">
        <ele>58.994</ele>
      </trkpt>
      <trkpt lat="37.31137" lon="27.78086">
        <ele>58.903</ele>
      </trkpt>
      <trkpt lat="37.31137" lon="27.78086">
        <ele>58.903</ele>
      </trkpt>
      <trkpt lat="37.31137" lon="27.78086">
        <ele>58.903</ele>
      </trkpt>
      <trkpt lat="37.31117" lon="27.78082">
        <ele>59.081</ele>
      </trkpt>
      <trkpt lat="37.31112" lon="27.78082">
        <ele>59.071</ele>
      </trkpt>
      <trkpt lat="37.31052" lon="27.78084">
        <ele>57.124</ele>
      </trkpt>
      <trkpt lat="37.31025" lon="27.78085">
        <ele>58.089</ele>
      </trkpt>
      <trkpt lat="37.30998" lon="27.78085">
        <ele>59.081</ele>
      </trkpt>
      <trkpt lat="37.30969" lon="27.78086">
        <ele>59.796</ele>
      </trkpt>
      <trkpt lat="37.3097" lon="27.78086">
        <ele>59.822</ele>
      </trkpt>
      <trkpt lat="37.30946" lon="27.78087">
        <ele>58.925</ele>
      </trkpt>
      <trkpt lat="37.30902" lon="27.78088">
        <ele>58.688</ele>
      </trkpt>
      <trkpt lat="37.30865" lon="27.78089">
        <ele>58.63</ele>
      </trkpt>
      <trkpt lat="37.30829" lon="27.78089">
        <ele>58.574</ele>
      </trkpt>
      <trkpt lat="37.30762" lon="27.78091">
        <ele>58.617</ele>
      </trkpt>
      <trkpt lat="37.3075" lon="27.78091">
        <ele>58.722</ele>
      </trkpt>
      <trkpt lat="37.3075" lon="27.78091">
        <ele>58.722</ele>
      </trkpt>
      <trkpt lat="37.3075" lon="27.78091">
        <ele>58.722</ele>
      </trkpt>
      <trkpt lat="37.30732" lon="27.78091">
        <ele>58.895</ele>
      </trkpt>
      <trkpt lat="37.30728" lon="27.78092">
        <ele>58.944</ele>
      </trkpt>
      <trkpt lat="37.3072" lon="27.78092">
        <ele>59.18</ele>
      </trkpt>
      <trkpt lat="37.30703" lon="27.78092">
        <ele>60.393</ele>
      </trkpt>
      <trkpt lat="37.30691" lon="27.78092">
        <ele>61.167</ele>
      </trkpt>
      <trkpt lat="37.30675" lon="27.78093">
        <ele>61.929</ele>
      </trkpt>
      <trkpt lat="37.30675" lon="27.78093">
        <ele>61.929</ele>
      </trkpt>
      <trkpt lat="37.30659" lon="27.78093">
        <ele>61.692</ele>
      </trkpt>
      <trkpt lat="37.30626" lon="27.78094">
        <ele>58.58</ele>
      </trkpt>
      <trkpt lat="37.30617" lon="27.78094">
        <ele>57.603</ele>
      </trkpt>
      <trkpt lat="37.30617" lon="27.78094">
        <ele>57.603</ele>
      </trkpt>
      <trkpt lat="37.3061" lon="27.78094">
        <ele>56.965</ele>
      </trkpt>
      <trkpt lat="37.30567" lon="27.78095">
        <ele>56.739</ele>
      </trkpt>
      <trkpt lat="37.30526" lon="27.78096">
        <ele>58.68</ele>
      </trkpt>
      <trkpt lat="37.30465" lon="27.78098">
        <ele>61.457</ele>
      </trkpt>
      <trkpt lat="37.30321" lon="27.78103">
        <ele>61.878</ele>
      </trkpt>
      <trkpt lat="37.30236" lon="27.78106">
        <ele>59.912</ele>
      </trkpt>
      <trkpt lat="37.30167" lon="27.78108">
        <ele>61.003</ele>
      </trkpt>
      <trkpt lat="37.30149" lon="27.78109">
        <ele>60.365</ele>
      </trkpt>
      <trkpt lat="37.30118" lon="27.7811">
        <ele>60.755</ele>
      </trkpt>
      <trkpt lat="37.30118" lon="27.7811">
        <ele>60.755</ele>
      </trkpt>
      <trkpt lat="37.30113" lon="27.7811">
        <ele>60.929</ele>
      </trkpt>
      <trkpt lat="37.30078" lon="27.78111">
        <ele>62</ele>
      </trkpt>
      <trkpt lat="37.3002" lon="27.78117">
        <ele>63.682</ele>
      </trkpt>
      <trkpt lat="37.29951" lon="27.7812">
        <ele>62.082</ele>
      </trkpt>
      <trkpt lat="37.29873" lon="27.78124">
        <ele>64.573</ele>
      </trkpt>
      <trkpt lat="37.29749" lon="27.78129">
        <ele>69.882</ele>
      </trkpt>
      <trkpt lat="37.29617" lon="27.78134">
        <ele>64.177</ele>
      </trkpt>
      <trkpt lat="37.29537" lon="27.78138">
        <ele>64</ele>
      </trkpt>
      <trkpt lat="37.29437" lon="27.78135">
        <ele>65.627</ele>
      </trkpt>
      <trkpt lat="37.29302" lon="27.78138">
        <ele>67.248</ele>
      </trkpt>
      <trkpt lat="37.29183" lon="27.78144">
        <ele>69.744</ele>
      </trkpt>
      <trkpt lat="37.29114" lon="27.78147">
        <ele>69.669</ele>
      </trkpt>
      <trkpt lat="37.29067" lon="27.78149">
        <ele>71.05</ele>
      </trkpt>
      <trkpt lat="37.28935" lon="27.78154">
        <ele>69.293</ele>
      </trkpt>
      <trkpt lat="37.28889" lon="27.78155">
        <ele>69.003</ele>
      </trkpt>
      <trkpt lat="37.28872" lon="27.78155">
        <ele>69.256</ele>
      </trkpt>
      <trkpt lat="37.2887" lon="27.78155">
        <ele>69.283</ele>
      </trkpt>
      <trkpt lat="37.2887" lon="27.78155">
        <ele>69.286</ele>
      </trkpt>
      <trkpt lat="37.28854" lon="27.78155">
        <ele>69.425</ele>
      </trkpt>
      <trkpt lat="37.28837" lon="27.78162">
        <ele>69.179</ele>
      </trkpt>
      <trkpt lat="37.28854" lon="27.78155">
        <ele>69.425</ele>
      </trkpt>
      <trkpt lat="37.28768" lon="27.78164">
        <ele>72.337</ele>
      </trkpt>
      <trkpt lat="37.28755" lon="27.7818">
        <ele>72.824</ele>
      </trkpt>
      <trkpt lat="37.28756" lon="27.78188">
        <ele>72.777</ele>
      </trkpt>
      <trkpt lat="37.28763" lon="27.7825">
        <ele>72.01</ele>
      </trkpt>
      <trkpt lat="37.28772" lon="27.78284">
        <ele>70.57</ele>
      </trkpt>
      <trkpt lat="37.28768" lon="27.78283">
        <ele>70.69</ele>
      </trkpt>
      <trkpt lat="37.28757" lon="27.78288">
        <ele>70.539</ele>
      </trkpt>
      <trkpt lat="37.2875" lon="27.7829">
        <ele>70.56</ele>
      </trkpt>
      <trkpt lat="37.28742" lon="27.78292">
        <ele>70.924</ele>
      </trkpt>
      <trkpt lat="37.28714" lon="27.78304">
        <ele>72.296</ele>
      </trkpt>
      <trkpt lat="37.28674" lon="27.78321">
        <ele>73.409</ele>
      </trkpt>
      <trkpt lat="37.28635" lon="27.78352">
        <ele>74</ele>
      </trkpt>
      <trkpt lat="37.28634" lon="27.78353">
        <ele>74</ele>
      </trkpt>
      <trkpt lat="37.28608" lon="27.78376">
        <ele>74</ele>
      </trkpt>
      <trkpt lat="37.2857" lon="27.78409">
        <ele>73.276</ele>
      </trkpt>
      <trkpt lat="37.28569" lon="27.78411">
        <ele>73.204</ele>
      </trkpt>
      <trkpt lat="37.28553" lon="27.78425">
        <ele>72.884</ele>
      </trkpt>
      <trkpt lat="37.28541" lon="27.78433">
        <ele>73.46</ele>
      </trkpt>
      <trkpt lat="37.28536" lon="27.78437">
        <ele>73.676</ele>
      </trkpt>
      <trkpt lat="37.28506" lon="27.7847">
        <ele>73.665</ele>
      </trkpt>
      <trkpt lat="37.2847" lon="27.78505">
        <ele>71.914</ele>
      </trkpt>
      <trkpt lat="37.28469" lon="27.78505">
        <ele>71.957</ele>
      </trkpt>
      <trkpt lat="37.28468" lon="27.78506">
        <ele>71.969</ele>
      </trkpt>
      <trkpt lat="37.28459" lon="27.78516">
        <ele>72.174</ele>
      </trkpt>
      <trkpt lat="37.28423" lon="27.78551">
        <ele>73.582</ele>
      </trkpt>
      <trkpt lat="37.28422" lon="27.78552">
        <ele>73.641</ele>
      </trkpt>
      <trkpt lat="37.28384" lon="27.78584">
        <ele>72.98</ele>
      </trkpt>
      <trkpt lat="37.28382" lon="27.78585">
        <ele>72.955</ele>
      </trkpt>
      <trkpt lat="37.2836" lon="27.786">
        <ele>73.04</ele>
      </trkpt>
      <trkpt lat="37.28326" lon="27.78619">
        <ele>74.055</ele>
      </trkpt>
      <trkpt lat="37.28307" lon="27.78631">
        <ele>74.911</ele>
      </trkpt>
      <trkpt lat="37.28266" lon="27.78656">
        <ele>74.645</ele>
      </trkpt>
      <trkpt lat="37.28265" lon="27.78656">
        <ele>74.667</ele>
      </trkpt>
      <trkpt lat="37.28224" lon="27.78682">
        <ele>75.516</ele>
      </trkpt>
      <trkpt lat="37.28223" lon="27.78683">
        <ele>75.572</ele>
      </trkpt>
      <trkpt lat="37.28183" lon="27.7871">
        <ele>77.56</ele>
      </trkpt>
      <trkpt lat="37.28182" lon="27.78711">
        <ele>77.596</ele>
      </trkpt>
      <trkpt lat="37.28141" lon="27.78734">
        <ele>77.608</ele>
      </trkpt>
      <trkpt lat="37.28139" lon="27.78734">
        <ele>77.578</ele>
      </trkpt>
      <trkpt lat="37.28138" lon="27.78734">
        <ele>77.576</ele>
      </trkpt>
      <trkpt lat="37.28096" lon="27.78751">
        <ele>78.032</ele>
      </trkpt>
      <trkpt lat="37.28091" lon="27.78757">
        <ele>78.014</ele>
      </trkpt>
      <trkpt lat="37.2807" lon="27.78771">
        <ele>78.81</ele>
      </trkpt>
      <trkpt lat="37.28038" lon="27.78793">
        <ele>80.084</ele>
      </trkpt>
      <trkpt lat="37.27997" lon="27.78817">
        <ele>78.632</ele>
      </trkpt>
      <trkpt lat="37.27996" lon="27.78818">
        <ele>78.617</ele>
      </trkpt>
      <trkpt lat="37.27994" lon="27.7882">
        <ele>78.592</ele>
      </trkpt>
      <trkpt lat="37.27953" lon="27.78845">
        <ele>80.675</ele>
      </trkpt>
      <trkpt lat="37.27952" lon="27.78845">
        <ele>80.762</ele>
      </trkpt>
      <trkpt lat="37.27951" lon="27.78846">
        <ele>80.876</ele>
      </trkpt>
      <trkpt lat="37.27938" lon="27.78852">
        <ele>81.904</ele>
      </trkpt>
      <trkpt lat="37.27919" lon="27.78862">
        <ele>82.916</ele>
      </trkpt>
      <trkpt lat="37.27908" lon="27.78869">
        <ele>83.224</ele>
      </trkpt>
      <trkpt lat="37.27898" lon="27.78872">
        <ele>83.409</ele>
      </trkpt>
      <trkpt lat="37.27885" lon="27.78881">
        <ele>83.384</ele>
      </trkpt>
      <trkpt lat="37.27866" lon="27.78892">
        <ele>83.712</ele>
      </trkpt>
      <trkpt lat="37.27838" lon="27.78913">
        <ele>83.132</ele>
      </trkpt>
      <trkpt lat="37.27818" lon="27.78926">
        <ele>84.44</ele>
      </trkpt>
      <trkpt lat="37.27818" lon="27.78926">
        <ele>84.44</ele>
      </trkpt>
      <trkpt lat="37.27818" lon="27.78926">
        <ele>84.44</ele>
      </trkpt>
      <trkpt lat="37.27818" lon="27.78926">
        <ele>84.44</ele>
      </trkpt>
      <trkpt lat="37.27809" lon="27.78931">
        <ele>85.268</ele>
      </trkpt>
      <trkpt lat="37.27794" lon="27.7894">
        <ele>87.504</ele>
      </trkpt>
      <trkpt lat="37.27785" lon="27.78942">
        <ele>88.872</ele>
      </trkpt>
      <trkpt lat="37.2777" lon="27.78946">
        <ele>91.176</ele>
      </trkpt>
      <trkpt lat="37.2776" lon="27.78951">
        <ele>92.796</ele>
      </trkpt>
      <trkpt lat="37.27754" lon="27.78954">
        <ele>93.768</ele>
      </trkpt>
      <trkpt lat="37.27738" lon="27.78961">
        <ele>96.066</ele>
      </trkpt>
      <trkpt lat="37.27713" lon="27.78967">
        <ele>99.328</ele>
      </trkpt>
      <trkpt lat="37.27703" lon="27.78967">
        <ele>100.768</ele>
      </trkpt>
      <trkpt lat="37.27693" lon="27.78966">
        <ele>102.352</ele>
      </trkpt>
      <trkpt lat="37.27652" lon="27.78943">
        <ele>111.065</ele>
      </trkpt>
      <trkpt lat="37.27651" lon="27.78943">
        <ele>111.28</ele>
      </trkpt>
      <trkpt lat="37.27625" lon="27.78916">
        <ele>114.452</ele>
      </trkpt>
      <trkpt lat="37.2761" lon="27.789">
        <ele>116.095</ele>
      </trkpt>
      <trkpt lat="37.27593" lon="27.78874">
        <ele>118.842</ele>
      </trkpt>
      <trkpt lat="37.27577" lon="27.78853">
        <ele>122.633</ele>
      </trkpt>
      <trkpt lat="37.27573" lon="27.78847">
        <ele>123.623</ele>
      </trkpt>
      <trkpt lat="37.27553" lon="27.78808">
        <ele>125.742</ele>
      </trkpt>
      <trkpt lat="37.27542" lon="27.78779">
        <ele>124.164</ele>
      </trkpt>
      <trkpt lat="37.27528" lon="27.78741">
        <ele>125.274</ele>
      </trkpt>
      <trkpt lat="37.27524" lon="27.78734">
        <ele>126.461</ele>
      </trkpt>
      <trkpt lat="37.27521" lon="27.78727">
        <ele>127.11</ele>
      </trkpt>
      <trkpt lat="37.27518" lon="27.78719">
        <ele>127.598</ele>
      </trkpt>
      <trkpt lat="37.27515" lon="27.78713">
        <ele>128.242</ele>
      </trkpt>
      <trkpt lat="37.27505" lon="27.78697">
        <ele>130.458</ele>
      </trkpt>
      <trkpt lat="37.27501" lon="27.7869">
        <ele>131.636</ele>
      </trkpt>
      <trkpt lat="37.27489" lon="27.78652">
        <ele>135.673</ele>
      </trkpt>
      <trkpt lat="37.27487" lon="27.78645">
        <ele>136.262</ele>
      </trkpt>
      <trkpt lat="37.27472" lon="27.78616">
        <ele>137.578</ele>
      </trkpt>
      <trkpt lat="37.27465" lon="27.78614">
        <ele>138.927</ele>
      </trkpt>
      <trkpt lat="37.27459" lon="27.78621">
        <ele>141.262</ele>
      </trkpt>
      <trkpt lat="37.27454" lon="27.78628">
        <ele>143.558</ele>
      </trkpt>
      <trkpt lat="37.27451" lon="27.78635">
        <ele>145.478</ele>
      </trkpt>
      <trkpt lat="37.27448" lon="27.78651">
        <ele>147.793</ele>
      </trkpt>
      <trkpt lat="37.27448" lon="27.7866">
        <ele>148.4</ele>
      </trkpt>
      <trkpt lat="37.27446" lon="27.78682">
        <ele>151.12</ele>
      </trkpt>
      <trkpt lat="37.27441" lon="27.78697">
        <ele>154.535</ele>
      </trkpt>
      <trkpt lat="37.27436" lon="27.78729">
        <ele>156.527</ele>
      </trkpt>
      <trkpt lat="37.2743" lon="27.7875">
        <ele>158.12</ele>
      </trkpt>
      <trkpt lat="37.27427" lon="27.7878">
        <ele>159.861</ele>
      </trkpt>
      <trkpt lat="37.27425" lon="27.78796">
        <ele>162.621</ele>
      </trkpt>
      <trkpt lat="37.27424" lon="27.78805">
        <ele>164.123</ele>
      </trkpt>
      <trkpt lat="37.27422" lon="27.78813">
        <ele>165.867</ele>
      </trkpt>
      <trkpt lat="37.27421" lon="27.7883">
        <ele>169.207</ele>
      </trkpt>
      <trkpt lat="37.2742" lon="27.78846">
        <ele>171.011</ele>
      </trkpt>
      <trkpt lat="37.27418" lon="27.78878">
        <ele>173.418</ele>
      </trkpt>
      <trkpt lat="37.27417" lon="27.78886">
        <ele>173.85</ele>
      </trkpt>
      <trkpt lat="37.27416" lon="27.78898">
        <ele>174.968</ele>
      </trkpt>
      <trkpt lat="37.27414" lon="27.78898">
        <ele>174.921</ele>
      </trkpt>
      <trkpt lat="37.27415" lon="27.78905">
        <ele>175.67</ele>
      </trkpt>
      <trkpt lat="37.2741" lon="27.78921">
        <ele>176.483</ele>
      </trkpt>
      <trkpt lat="37.27406" lon="27.78927">
        <ele>176.089</ele>
      </trkpt>
      <trkpt lat="37.274" lon="27.7893">
        <ele>175.512</ele>
      </trkpt>
      <trkpt lat="37.2739" lon="27.78929">
        <ele>174.654</ele>
      </trkpt>
      <trkpt lat="37.27386" lon="27.78922">
        <ele>174.684</ele>
      </trkpt>
      <trkpt lat="37.27381" lon="27.78918">
        <ele>174.655</ele>
      </trkpt>
      <trkpt lat="37.27376" lon="27.78913">
        <ele>174.526</ele>
      </trkpt>
      <trkpt lat="37.2736" lon="27.78908">
        <ele>174.392</ele>
      </trkpt>
      <trkpt lat="37.27319" lon="27.78883">
        <ele>178.76</ele>
      </trkpt>
      <trkpt lat="37.27318" lon="27.78882">
        <ele>178.904</ele>
      </trkpt>
      <trkpt lat="37.27314" lon="27.78872">
        <ele>179.696</ele>
      </trkpt>
      <trkpt lat="37.27313" lon="27.78859">
        <ele>180.272</ele>
      </trkpt>
      <trkpt lat="37.27307" lon="27.78857">
        <ele>180.992</ele>
      </trkpt>
      <trkpt lat="37.27299" lon="27.7885">
        <ele>181.872</ele>
      </trkpt>
      <trkpt lat="37.27291" lon="27.78836">
        <ele>182.952</ele>
      </trkpt>
      <trkpt lat="37.27262" lon="27.78828">
        <ele>185.52</ele>
      </trkpt>
      <trkpt lat="37.27258" lon="27.78834">
        <ele>185.417</ele>
      </trkpt>
      <trkpt lat="37.27249" lon="27.78846">
        <ele>186.144</ele>
      </trkpt>
      <trkpt lat="37.27243" lon="27.78849">
        <ele>187.008</ele>
      </trkpt>
      <trkpt lat="37.2722" lon="27.78846">
        <ele>190.24</ele>
      </trkpt>
      <trkpt lat="37.27207" lon="27.78849">
        <ele>191.644</ele>
      </trkpt>
      <trkpt lat="37.27198" lon="27.78848">
        <ele>192.616</ele>
      </trkpt>
      <trkpt lat="37.27186" lon="27.78843">
        <ele>193.608</ele>
      </trkpt>
      <trkpt lat="37.27142" lon="27.78828">
        <ele>195.91</ele>
      </trkpt>
      <trkpt lat="37.27141" lon="27.78828">
        <ele>195.939</ele>
      </trkpt>
      <trkpt lat="37.27135" lon="27.78824">
        <ele>196.14</ele>
      </trkpt>
      <trkpt lat="37.27126" lon="27.78817">
        <ele>196.464</ele>
      </trkpt>
      <trkpt lat="37.27101" lon="27.78803">
        <ele>197.33</ele>
      </trkpt>
      <trkpt lat="37.27092" lon="27.78791">
        <ele>197.328</ele>
      </trkpt>
      <trkpt lat="37.27087" lon="27.78781">
        <ele>197.101</ele>
      </trkpt>
      <trkpt lat="37.27078" lon="27.78777">
        <ele>197.186</ele>
      </trkpt>
      <trkpt lat="37.27068" lon="27.78778">
        <ele>197.556</ele>
      </trkpt>
      <trkpt lat="37.27048" lon="27.78782">
        <ele>198.041</ele>
      </trkpt>
      <trkpt lat="37.27042" lon="27.78781">
        <ele>198.057</ele>
      </trkpt>
      <trkpt lat="37.27028" lon="27.78777">
        <ele>197.972</ele>
      </trkpt>
      <trkpt lat="37.27018" lon="27.78777">
        <ele>198.334</ele>
      </trkpt>
      <trkpt lat="37.27013" lon="27.78779">
        <ele>198.576</ele>
      </trkpt>
      <trkpt lat="37.27004" lon="27.78786">
        <ele>199.152</ele>
      </trkpt>
      <trkpt lat="37.26991" lon="27.78801">
        <ele>199.889</ele>
      </trkpt>
      <trkpt lat="37.26971" lon="27.78814">
        <ele>200.348</ele>
      </trkpt>
      <trkpt lat="37.26964" lon="27.78816">
        <ele>200.672</ele>
      </trkpt>
      <trkpt lat="37.26936" lon="27.78816">
        <ele>201.68</ele>
      </trkpt>
      <trkpt lat="37.26921" lon="27.78823">
        <ele>202.472</ele>
      </trkpt>
      <trkpt lat="37.26914" lon="27.78824">
        <ele>202.664</ele>
      </trkpt>
      <trkpt lat="37.26905" lon="27.78828">
        <ele>202.808</ele>
      </trkpt>
      <trkpt lat="37.26866" lon="27.78858">
        <ele>202.332</ele>
      </trkpt>
      <trkpt lat="37.26865" lon="27.78859">
        <ele>202.27</ele>
      </trkpt>
      <trkpt lat="37.26861" lon="27.7886">
        <ele>202.004</ele>
      </trkpt>
      <trkpt lat="37.26844" lon="27.78862">
        <ele>202.648</ele>
      </trkpt>
      <trkpt lat="37.26838" lon="27.78863">
        <ele>202.9</ele>
      </trkpt>
      <trkpt lat="37.26831" lon="27.78861">
        <ele>203.084</ele>
      </trkpt>
      <trkpt lat="37.26817" lon="27.78858">
        <ele>203.588</ele>
      </trkpt>
      <trkpt lat="37.26811" lon="27.7886">
        <ele>203.804</ele>
      </trkpt>
      <trkpt lat="37.26798" lon="27.78865">
        <ele>204.608</ele>
      </trkpt>
      <trkpt lat="37.26791" lon="27.78865">
        <ele>205.041</ele>
      </trkpt>
      <trkpt lat="37.26786" lon="27.78861">
        <ele>205.408</ele>
      </trkpt>
      <trkpt lat="37.2678" lon="27.78852">
        <ele>205.84</ele>
      </trkpt>
      <trkpt lat="37.26778" lon="27.78843">
        <ele>205.984</ele>
      </trkpt>
      <trkpt lat="37.26777" lon="27.78831">
        <ele>206.026</ele>
      </trkpt>
      <trkpt lat="37.26772" lon="27.78826">
        <ele>206.153</ele>
      </trkpt>
      <trkpt lat="37.26764" lon="27.7882">
        <ele>206.258</ele>
      </trkpt>
      <trkpt lat="37.26749" lon="27.78809">
        <ele>206.119</ele>
      </trkpt>
      <trkpt lat="37.26726" lon="27.78807">
        <ele>206.007</ele>
      </trkpt>
      <trkpt lat="37.26717" lon="27.78815">
        <ele>205.936</ele>
      </trkpt>
      <trkpt lat="37.26703" lon="27.78827">
        <ele>205.466</ele>
      </trkpt>
      <trkpt lat="37.26697" lon="27.78828">
        <ele>205.266</ele>
      </trkpt>
      <trkpt lat="37.26688" lon="27.78832">
        <ele>205.49</ele>
      </trkpt>
      <trkpt lat="37.26682" lon="27.78836">
        <ele>205.949</ele>
      </trkpt>
      <trkpt lat="37.26678" lon="27.78842">
        <ele>206.311</ele>
      </trkpt>
      <trkpt lat="37.26673" lon="27.78847">
        <ele>206.656</ele>
      </trkpt>
      <trkpt lat="37.26661" lon="27.78866">
        <ele>207.408</ele>
      </trkpt>
      <trkpt lat="37.2665" lon="27.78875">
        <ele>208.2</ele>
      </trkpt>
      <trkpt lat="37.2663" lon="27.78881">
        <ele>209.64</ele>
      </trkpt>
      <trkpt lat="37.26624" lon="27.78884">
        <ele>210.072</ele>
      </trkpt>
      <trkpt lat="37.26616" lon="27.78893">
        <ele>210.744</ele>
      </trkpt>
      <trkpt lat="37.26574" lon="27.78911">
        <ele>212.796</ele>
      </trkpt>
      <trkpt lat="37.26573" lon="27.78912">
        <ele>212.832</ele>
      </trkpt>
      <trkpt lat="37.26567" lon="27.78914">
        <ele>212.904</ele>
      </trkpt>
      <trkpt lat="37.26535" lon="27.78938">
        <ele>212.828</ele>
      </trkpt>
      <trkpt lat="37.2651" lon="27.78959">
        <ele>214.657</ele>
      </trkpt>
      <trkpt lat="37.26501" lon="27.78966">
        <ele>214.984</ele>
      </trkpt>
      <trkpt lat="37.26482" lon="27.78974">
        <ele>215.648</ele>
      </trkpt>
      <trkpt lat="37.26477" lon="27.78978">
        <ele>215.828</ele>
      </trkpt>
      <trkpt lat="37.26468" lon="27.78982">
        <ele>216.25</ele>
      </trkpt>
      <trkpt lat="37.26461" lon="27.78986">
        <ele>216.607</ele>
      </trkpt>
      <trkpt lat="37.26451" lon="27.78991">
        <ele>217.011</ele>
      </trkpt>
      <trkpt lat="37.26406" lon="27.79008">
        <ele>218.672</ele>
      </trkpt>
      <trkpt lat="37.26406" lon="27.79008">
        <ele>218.672</ele>
      </trkpt>
      <trkpt lat="37.264" lon="27.79011">
        <ele>218.996</ele>
      </trkpt>
      <trkpt lat="37.26393" lon="27.79014">
        <ele>219.356</ele>
      </trkpt>
      <trkpt lat="37.26374" lon="27.79022">
        <ele>220.864</ele>
      </trkpt>
      <trkpt lat="37.26365" lon="27.79027">
        <ele>221.692</ele>
      </trkpt>
      <trkpt lat="37.26359" lon="27.79029">
        <ele>222.192</ele>
      </trkpt>
      <trkpt lat="37.26347" lon="27.79037">
        <ele>223.179</ele>
      </trkpt>
      <trkpt lat="37.26315" lon="27.79054">
        <ele>224</ele>
      </trkpt>
      <trkpt lat="37.263" lon="27.79066">
        <ele>224.176</ele>
      </trkpt>
      <trkpt lat="37.26291" lon="27.79073">
        <ele>224.104</ele>
      </trkpt>
      <trkpt lat="37.26252" lon="27.79102">
        <ele>224</ele>
      </trkpt>
      <trkpt lat="37.26251" lon="27.79103">
        <ele>224</ele>
      </trkpt>
      <trkpt lat="37.26239" lon="27.79113">
        <ele>224.765</ele>
      </trkpt>
      <trkpt lat="37.26202" lon="27.79147">
        <ele>227.263</ele>
      </trkpt>
      <trkpt lat="37.26201" lon="27.79147">
        <ele>227.361</ele>
      </trkpt>
      <trkpt lat="37.26191" lon="27.79153">
        <ele>228.248</ele>
      </trkpt>
      <trkpt lat="37.26152" lon="27.79185">
        <ele>229.651</ele>
      </trkpt>
      <trkpt lat="37.26152" lon="27.79185">
        <ele>229.651</ele>
      </trkpt>
      <trkpt lat="37.26136" lon="27.79201">
        <ele>229</ele>
      </trkpt>
      <trkpt lat="37.26131" lon="27.79206">
        <ele>229</ele>
      </trkpt>
      <trkpt lat="37.26125" lon="27.7921">
        <ele>229</ele>
      </trkpt>
      <trkpt lat="37.26087" lon="27.7924">
        <ele>230.508</ele>
      </trkpt>
      <trkpt lat="37.26086" lon="27.79241">
        <ele>230.58</ele>
      </trkpt>
      <trkpt lat="37.26078" lon="27.79247">
        <ele>230.913</ele>
      </trkpt>
      <trkpt lat="37.2604" lon="27.79277">
        <ele>231.56</ele>
      </trkpt>
      <trkpt lat="37.2604" lon="27.79278">
        <ele>231.557</ele>
      </trkpt>
      <trkpt lat="37.26004" lon="27.79306">
        <ele>231.998</ele>
      </trkpt>
      <trkpt lat="37.25998" lon="27.7931">
        <ele>232</ele>
      </trkpt>
      <trkpt lat="37.25958" lon="27.79339">
        <ele>232.512</ele>
      </trkpt>
      <trkpt lat="37.25957" lon="27.79339">
        <ele>232.548</ele>
      </trkpt>
      <trkpt lat="37.25917" lon="27.79368">
        <ele>235.224</ele>
      </trkpt>
      <trkpt lat="37.25916" lon="27.79369">
        <ele>235.308</ele>
      </trkpt>
      <trkpt lat="37.25877" lon="27.79397">
        <ele>237</ele>
      </trkpt>
      <trkpt lat="37.25876" lon="27.79398">
        <ele>237</ele>
      </trkpt>
      <trkpt lat="37.25842" lon="27.79426">
        <ele>237.231</ele>
      </trkpt>
      <trkpt lat="37.25836" lon="27.79431">
        <ele>237.467</ele>
      </trkpt>
      <trkpt lat="37.25816" lon="27.79448">
        <ele>238.752</ele>
      </trkpt>
      <trkpt lat="37.25802" lon="27.79463">
        <ele>239.71</ele>
      </trkpt>
      <trkpt lat="37.25797" lon="27.79469">
        <ele>239.92</ele>
      </trkpt>
      <trkpt lat="37.25788" lon="27.79477">
        <ele>240</ele>
      </trkpt>
      <trkpt lat="37.25777" lon="27.79488">
        <ele>239.972</ele>
      </trkpt>
      <trkpt lat="37.25771" lon="27.79491">
        <ele>239.756</ele>
      </trkpt>
      <trkpt lat="37.25758" lon="27.79491">
        <ele>239.288</ele>
      </trkpt>
      <trkpt lat="37.25742" lon="27.79484">
        <ele>238.956</ele>
      </trkpt>
      <trkpt lat="37.25727" lon="27.79464">
        <ele>238.172</ele>
      </trkpt>
      <trkpt lat="37.25717" lon="27.79451">
        <ele>238.089</ele>
      </trkpt>
      <trkpt lat="37.25697" lon="27.79417">
        <ele>238.897</ele>
      </trkpt>
      <trkpt lat="37.25691" lon="27.7941">
        <ele>239.124</ele>
      </trkpt>
      <trkpt lat="37.25685" lon="27.79404">
        <ele>239.34</ele>
      </trkpt>
      <trkpt lat="37.25677" lon="27.79391">
        <ele>239.628</ele>
      </trkpt>
      <trkpt lat="37.25669" lon="27.79363">
        <ele>239.76</ele>
      </trkpt>
      <trkpt lat="37.25655" lon="27.79338">
        <ele>240.769</ele>
      </trkpt>
      <trkpt lat="37.25635" lon="27.79312">
        <ele>242</ele>
      </trkpt>
      <trkpt lat="37.25628" lon="27.79304">
        <ele>241.966</ele>
      </trkpt>
      <trkpt lat="37.25609" lon="27.79292">
        <ele>241.887</ele>
      </trkpt>
      <trkpt lat="37.25576" lon="27.7928">
        <ele>240.365</ele>
      </trkpt>
      <trkpt lat="37.25563" lon="27.79291">
        <ele>241.556</ele>
      </trkpt>
      <trkpt lat="37.25557" lon="27.79295">
        <ele>242.156</ele>
      </trkpt>
      <trkpt lat="37.25519" lon="27.79324">
        <ele>245.644</ele>
      </trkpt>
      <trkpt lat="37.25518" lon="27.79325">
        <ele>245.752</ele>
      </trkpt>
      <trkpt lat="37.25478" lon="27.79353">
        <ele>247.477</ele>
      </trkpt>
      <trkpt lat="37.25477" lon="27.79354">
        <ele>247.532</ele>
      </trkpt>
      <trkpt lat="37.25476" lon="27.79354">
        <ele>247.523</ele>
      </trkpt>
      <trkpt lat="37.25465" lon="27.79363">
        <ele>248</ele>
      </trkpt>
      <trkpt lat="37.25461" lon="27.7937">
        <ele>248</ele>
      </trkpt>
      <trkpt lat="37.25439" lon="27.79389">
        <ele>248.004</ele>
      </trkpt>
      <trkpt lat="37.25424" lon="27.79404">
        <ele>248.544</ele>
      </trkpt>
      <trkpt lat="37.25394" lon="27.79427">
        <ele>248.556</ele>
      </trkpt>
      <trkpt lat="37.25386" lon="27.79434">
        <ele>248.559</ele>
      </trkpt>
      <trkpt lat="37.25372" lon="27.79444">
        <ele>248.386</ele>
      </trkpt>
      <trkpt lat="37.25356" lon="27.79433">
        <ele>248</ele>
      </trkpt>
      <trkpt lat="37.25341" lon="27.79426">
        <ele>248</ele>
      </trkpt>
      <trkpt lat="37.25323" lon="27.79418">
        <ele>248.354</ele>
      </trkpt>
      <trkpt lat="37.25318" lon="27.79414">
        <ele>248.605</ele>
      </trkpt>
      <trkpt lat="37.25312" lon="27.79409">
        <ele>248.98</ele>
      </trkpt>
      <trkpt lat="37.25306" lon="27.79407">
        <ele>249.326</ele>
      </trkpt>
      <trkpt lat="37.25296" lon="27.79405">
        <ele>250.307</ele>
      </trkpt>
      <trkpt lat="37.25286" lon="27.79404">
        <ele>251.247</ele>
      </trkpt>
      <trkpt lat="37.25276" lon="27.79403">
        <ele>251.999</ele>
      </trkpt>
      <trkpt lat="37.25259" lon="27.79406">
        <ele>251.843</ele>
      </trkpt>
      <trkpt lat="37.2525" lon="27.79406">
        <ele>251.768</ele>
      </trkpt>
      <trkpt lat="37.25245" lon="27.79402">
        <ele>251.886</ele>
      </trkpt>
      <trkpt lat="37.25226" lon="27.79392">
        <ele>252.582</ele>
      </trkpt>
      <trkpt lat="37.25218" lon="27.79385">
        <ele>253.192</ele>
      </trkpt>
      <trkpt lat="37.25213" lon="27.79381">
        <ele>253.519</ele>
      </trkpt>
      <trkpt lat="37.25198" lon="27.7937">
        <ele>255.267</ele>
      </trkpt>
      <trkpt lat="37.25169" lon="27.79346">
        <ele>260.172</ele>
      </trkpt>
      <trkpt lat="37.25149" lon="27.7933">
        <ele>261.288</ele>
      </trkpt>
      <trkpt lat="37.25141" lon="27.79323">
        <ele>260.943</ele>
      </trkpt>
      <trkpt lat="37.25133" lon="27.79315">
        <ele>260.256</ele>
      </trkpt>
      <trkpt lat="37.25128" lon="27.79305">
        <ele>260.467</ele>
      </trkpt>
      <trkpt lat="37.25127" lon="27.79294">
        <ele>261.06</ele>
      </trkpt>
      <trkpt lat="37.25126" lon="27.79286">
        <ele>261.502</ele>
      </trkpt>
      <trkpt lat="37.25117" lon="27.79264">
        <ele>262.1</ele>
      </trkpt>
      <trkpt lat="37.251" lon="27.79211">
        <ele>264.6</ele>
      </trkpt>
      <trkpt lat="37.251" lon="27.7921">
        <ele>264.6</ele>
      </trkpt>
      <trkpt lat="37.25088" lon="27.79177">
        <ele>263.957</ele>
      </trkpt>
      <trkpt lat="37.25079" lon="27.79165">
        <ele>264.009</ele>
      </trkpt>
      <trkpt lat="37.25065" lon="27.79136">
        <ele>264.66</ele>
      </trkpt>
      <trkpt lat="37.2506" lon="27.79133">
        <ele>264.84</ele>
      </trkpt>
      <trkpt lat="37.25042" lon="27.79129">
        <ele>265.488</ele>
      </trkpt>
      <trkpt lat="37.25026" lon="27.79126">
        <ele>265.966</ele>
      </trkpt>
      <trkpt lat="37.2501" lon="27.79117">
        <ele>265.864</ele>
      </trkpt>
      <trkpt lat="37.24997" lon="27.79108">
        <ele>266.012</ele>
      </trkpt>
      <trkpt lat="37.24977" lon="27.79102">
        <ele>266.272</ele>
      </trkpt>
      <trkpt lat="37.24965" lon="27.79099">
        <ele>266.809</ele>
      </trkpt>
      <trkpt lat="37.2495" lon="27.79093">
        <ele>267.974</ele>
      </trkpt>
      <trkpt lat="37.24937" lon="27.79086">
        <ele>269.076</ele>
      </trkpt>
      <trkpt lat="37.24929" lon="27.79079">
        <ele>269.955</ele>
      </trkpt>
      <trkpt lat="37.24924" lon="27.79072">
        <ele>270.853</ele>
      </trkpt>
      <trkpt lat="37.24918" lon="27.79067">
        <ele>271.687</ele>
      </trkpt>
      <trkpt lat="37.24887" lon="27.79048">
        <ele>274.088</ele>
      </trkpt>
      <trkpt lat="37.24873" lon="27.79035">
        <ele>277.508</ele>
      </trkpt>
      <trkpt lat="37.24871" lon="27.79026">
        <ele>278.727</ele>
      </trkpt>
      <trkpt lat="37.24869" lon="27.78999">
        <ele>281.158</ele>
      </trkpt>
      <trkpt lat="37.24863" lon="27.78994">
        <ele>281.81</ele>
      </trkpt>
      <trkpt lat="37.2485" lon="27.78991">
        <ele>282.4</ele>
      </trkpt>
      <trkpt lat="37.24844" lon="27.78989">
        <ele>282.616</ele>
      </trkpt>
      <trkpt lat="37.24817" lon="27.78988">
        <ele>283.334</ele>
      </trkpt>
      <trkpt lat="37.24802" lon="27.78985">
        <ele>283.401</ele>
      </trkpt>
      <trkpt lat="37.24797" lon="27.78979">
        <ele>283.169</ele>
      </trkpt>
      <trkpt lat="37.24797" lon="27.78967">
        <ele>282.942</ele>
      </trkpt>
      <trkpt lat="37.24799" lon="27.78956">
        <ele>282.862</ele>
      </trkpt>
      <trkpt lat="37.24804" lon="27.7893">
        <ele>282.944</ele>
      </trkpt>
      <trkpt lat="37.24818" lon="27.78877">
        <ele>283.02</ele>
      </trkpt>
      <trkpt lat="37.24818" lon="27.78876">
        <ele>282.984</ele>
      </trkpt>
      <trkpt lat="37.24828" lon="27.78819">
        <ele>283.417</ele>
      </trkpt>
      <trkpt lat="37.24828" lon="27.78818">
        <ele>283.446</ele>
      </trkpt>
      <trkpt lat="37.24837" lon="27.78762">
        <ele>283.243</ele>
      </trkpt>
      <trkpt lat="37.24837" lon="27.78761">
        <ele>283.212</ele>
      </trkpt>
      <trkpt lat="37.24837" lon="27.78759">
        <ele>283.149</ele>
      </trkpt>
      <trkpt lat="37.24831" lon="27.7871">
        <ele>283.084</ele>
      </trkpt>
      <trkpt lat="37.24825" lon="27.78689">
        <ele>283.437</ele>
      </trkpt>
      <trkpt lat="37.24813" lon="27.78663">
        <ele>284.097</ele>
      </trkpt>
      <trkpt lat="37.248" lon="27.78646">
        <ele>284.795</ele>
      </trkpt>
      <trkpt lat="37.24787" lon="27.78621">
        <ele>285.43</ele>
      </trkpt>
      <trkpt lat="37.24781" lon="27.78614">
        <ele>285.792</ele>
      </trkpt>
      <trkpt lat="37.24756" lon="27.78583">
        <ele>287.012</ele>
      </trkpt>
      <trkpt lat="37.24748" lon="27.78565">
        <ele>287.565</ele>
      </trkpt>
      <trkpt lat="37.24736" lon="27.78527">
        <ele>286.496</ele>
      </trkpt>
      <trkpt lat="37.24733" lon="27.785">
        <ele>286.388</ele>
      </trkpt>
      <trkpt lat="37.24733" lon="27.78486">
        <ele>287.2</ele>
      </trkpt>
      <trkpt lat="37.24734" lon="27.78463">
        <ele>288.191</ele>
      </trkpt>
      <trkpt lat="37.24727" lon="27.78411">
        <ele>288.831</ele>
      </trkpt>
      <trkpt lat="37.24725" lon="27.78385">
        <ele>288.1</ele>
      </trkpt>
      <trkpt lat="37.24717" lon="27.78365">
        <ele>287.624</ele>
      </trkpt>
      <trkpt lat="37.24708" lon="27.78355">
        <ele>286.756</ele>
      </trkpt>
      <trkpt lat="37.24697" lon="27.78339">
        <ele>285.388</ele>
      </trkpt>
      <trkpt lat="37.24693" lon="27.78327">
        <ele>284.656</ele>
      </trkpt>
      <trkpt lat="37.24693" lon="27.78313">
        <ele>284.126</ele>
      </trkpt>
      <trkpt lat="37.24687" lon="27.78291">
        <ele>282.531</ele>
      </trkpt>
      <trkpt lat="37.24684" lon="27.78284">
        <ele>281.804</ele>
      </trkpt>
      <trkpt lat="37.24681" lon="27.78277">
        <ele>281.008</ele>
      </trkpt>
      <trkpt lat="37.24677" lon="27.78266">
        <ele>279.532</ele>
      </trkpt>
      <trkpt lat="37.24664" lon="27.78252">
        <ele>275.646</ele>
      </trkpt>
      <trkpt lat="37.24653" lon="27.78241">
        <ele>272.076</ele>
      </trkpt>
      <trkpt lat="37.2465" lon="27.78233">
        <ele>270.565</ele>
      </trkpt>
      <trkpt lat="37.24651" lon="27.78225">
        <ele>269.916</ele>
      </trkpt>
      <trkpt lat="37.24649" lon="27.78204">
        <ele>267.873</ele>
      </trkpt>
      <trkpt lat="37.24648" lon="27.78195">
        <ele>267.007</ele>
      </trkpt>
      <trkpt lat="37.24649" lon="27.78176">
        <ele>266.521</ele>
      </trkpt>
      <trkpt lat="37.24644" lon="27.78171">
        <ele>265.26</ele>
      </trkpt>
      <trkpt lat="37.24641" lon="27.78163">
        <ele>264.436</ele>
      </trkpt>
      <trkpt lat="37.24636" lon="27.78158">
        <ele>263.76</ele>
      </trkpt>
      <trkpt lat="37.24621" lon="27.78165">
        <ele>262.673</ele>
      </trkpt>
      <trkpt lat="37.24615" lon="27.78165">
        <ele>262.228</ele>
      </trkpt>
      <trkpt lat="37.24609" lon="27.78161">
        <ele>261.583</ele>
      </trkpt>
      <trkpt lat="37.24604" lon="27.78154">
        <ele>260.893</ele>
      </trkpt>
      <trkpt lat="37.24599" lon="27.7814">
        <ele>260.15</ele>
      </trkpt>
      <trkpt lat="37.2459" lon="27.78133">
        <ele>259.319</ele>
      </trkpt>
      <trkpt lat="37.24594" lon="27.78125">
        <ele>259.46</ele>
      </trkpt>
      <trkpt lat="37.246" lon="27.78114">
        <ele>259.842</ele>
      </trkpt>
      <trkpt lat="37.24604" lon="27.78107">
        <ele>259.974</ele>
      </trkpt>
      <trkpt lat="37.24609" lon="27.78103">
        <ele>260.21</ele>
      </trkpt>
      <trkpt lat="37.24612" lon="27.78096">
        <ele>259.993</ele>
      </trkpt>
      <trkpt lat="37.24612" lon="27.78088">
        <ele>259.426</ele>
      </trkpt>
      <trkpt lat="37.24612" lon="27.78079">
        <ele>258.935</ele>
      </trkpt>
      <trkpt lat="37.24609" lon="27.78071">
        <ele>258.336</ele>
      </trkpt>
      <trkpt lat="37.24605" lon="27.7806">
        <ele>257.35</ele>
      </trkpt>
      <trkpt lat="37.24606" lon="27.78051">
        <ele>256.801</ele>
      </trkpt>
      <trkpt lat="37.2461" lon="27.7803">
        <ele>255.117</ele>
      </trkpt>
      <trkpt lat="37.24611" lon="27.78021">
        <ele>254.5</ele>
      </trkpt>
      <trkpt lat="37.24613" lon="27.78008">
        <ele>253.829</ele>
      </trkpt>
      <trkpt lat="37.24618" lon="27.78004">
        <ele>254.244</ele>
      </trkpt>
      <trkpt lat="37.24623" lon="27.77998">
        <ele>254.61</ele>
      </trkpt>
      <trkpt lat="37.24626" lon="27.77991">
        <ele>254.647</ele>
      </trkpt>
      <trkpt lat="37.24627" lon="27.77978">
        <ele>254.043</ele>
      </trkpt>
      <trkpt lat="37.24625" lon="27.77957">
        <ele>252.678</ele>
      </trkpt>
      <trkpt lat="37.24628" lon="27.77944">
        <ele>252.197</ele>
      </trkpt>
      <trkpt lat="37.2463" lon="27.77936">
        <ele>251.947</ele>
      </trkpt>
      <trkpt lat="37.24639" lon="27.7793">
        <ele>251.964</ele>
      </trkpt>
      <trkpt lat="37.24659" lon="27.77901">
        <ele>251.16</ele>
      </trkpt>
      <trkpt lat="37.24661" lon="27.77893">
        <ele>250.944</ele>
      </trkpt>
      <trkpt lat="37.24661" lon="27.77883">
        <ele>250.627</ele>
      </trkpt>
      <trkpt lat="37.24659" lon="27.77875">
        <ele>250.362</ele>
      </trkpt>
      <trkpt lat="37.24662" lon="27.77862">
        <ele>250.027</ele>
      </trkpt>
      <trkpt lat="37.2466" lon="27.77855">
        <ele>249.78</ele>
      </trkpt>
      <trkpt lat="37.24659" lon="27.77843">
        <ele>249.348</ele>
      </trkpt>
      <trkpt lat="37.24661" lon="27.77834">
        <ele>249.024</ele>
      </trkpt>
      <trkpt lat="37.2466" lon="27.77826">
        <ele>248.736</ele>
      </trkpt>
      <trkpt lat="37.24652" lon="27.77789">
        <ele>247.404</ele>
      </trkpt>
      <trkpt lat="37.24651" lon="27.77777">
        <ele>247.016</ele>
      </trkpt>
      <trkpt lat="37.24654" lon="27.77761">
        <ele>247.275</ele>
      </trkpt>
      <trkpt lat="37.24662" lon="27.7774">
        <ele>247.468</ele>
      </trkpt>
      <trkpt lat="37.24662" lon="27.77732">
        <ele>247.707</ele>
      </trkpt>
      <trkpt lat="37.24669" lon="27.77717">
        <ele>247.912</ele>
      </trkpt>
      <trkpt lat="37.2467" lon="27.77709">
        <ele>247.701</ele>
      </trkpt>
      <trkpt lat="37.24673" lon="27.77701">
        <ele>247.638</ele>
      </trkpt>
      <trkpt lat="37.24674" lon="27.77693">
        <ele>247.462</ele>
      </trkpt>
      <trkpt lat="37.24676" lon="27.77685">
        <ele>247.218</ele>
      </trkpt>
      <trkpt lat="37.24673" lon="27.77669">
        <ele>246.331</ele>
      </trkpt>
      <trkpt lat="37.24673" lon="27.77661">
        <ele>245.977</ele>
      </trkpt>
      <trkpt lat="37.24671" lon="27.77646">
        <ele>245.296</ele>
      </trkpt>
      <trkpt lat="37.24645" lon="27.77625">
        <ele>242.83</ele>
      </trkpt>
      <trkpt lat="37.24644" lon="27.77617">
        <ele>242.435</ele>
      </trkpt>
      <trkpt lat="37.2464" lon="27.77611">
        <ele>242.04</ele>
      </trkpt>
      <trkpt lat="37.24643" lon="27.77604">
        <ele>242.11</ele>
      </trkpt>
      <trkpt lat="37.24644" lon="27.77593">
        <ele>242.064</ele>
      </trkpt>
      <trkpt lat="37.24645" lon="27.77586">
        <ele>242.021</ele>
      </trkpt>
      <trkpt lat="37.2465" lon="27.7758">
        <ele>242.096</ele>
      </trkpt>
      <trkpt lat="37.24653" lon="27.77574">
        <ele>242.16</ele>
      </trkpt>
      <trkpt lat="37.24656" lon="27.77566">
        <ele>242.095</ele>
      </trkpt>
      <trkpt lat="37.24661" lon="27.7756">
        <ele>241.674</ele>
      </trkpt>
      <trkpt lat="37.24667" lon="27.77554">
        <ele>240.974</ele>
      </trkpt>
      <trkpt lat="37.24675" lon="27.77547">
        <ele>240.123</ele>
      </trkpt>
      <trkpt lat="37.24678" lon="27.77537">
        <ele>239.367</ele>
      </trkpt>
      <trkpt lat="37.24681" lon="27.77532">
        <ele>238.656</ele>
      </trkpt>
      <trkpt lat="37.2469" lon="27.77529">
        <ele>236.911</ele>
      </trkpt>
      <trkpt lat="37.24691" lon="27.77525">
        <ele>236.433</ele>
      </trkpt>
      <trkpt lat="37.24677" lon="27.77522">
        <ele>238.855</ele>
      </trkpt>
      <trkpt lat="37.24682" lon="27.77504">
        <ele>236.911</ele>
      </trkpt>
      <trkpt lat="37.24686" lon="27.77496">
        <ele>235.755</ele>
      </trkpt>
      <trkpt lat="37.24692" lon="27.77486">
        <ele>233.741</ele>
      </trkpt>
      <trkpt lat="37.24694" lon="27.77479">
        <ele>232.645</ele>
      </trkpt>
      <trkpt lat="37.24701" lon="27.77463">
        <ele>230.42</ele>
      </trkpt>
      <trkpt lat="37.24703" lon="27.77446">
        <ele>231.225</ele>
      </trkpt>
      <trkpt lat="37.24702" lon="27.77438">
        <ele>232.383</ele>
      </trkpt>
      <trkpt lat="37.24701" lon="27.77426">
        <ele>233.79</ele>
      </trkpt>
      <trkpt lat="37.24703" lon="27.77414">
        <ele>233.543</ele>
      </trkpt>
      <trkpt lat="37.24703" lon="27.77407">
        <ele>233.969</ele>
      </trkpt>
      <trkpt lat="37.24701" lon="27.77399">
        <ele>235.584</ele>
      </trkpt>
      <trkpt lat="37.24693" lon="27.77397">
        <ele>239.758</ele>
      </trkpt>
      <trkpt lat="37.24696" lon="27.77391">
        <ele>238.956</ele>
      </trkpt>
      <trkpt lat="37.24704" lon="27.77389">
        <ele>234.491</ele>
      </trkpt>
      <trkpt lat="37.24717" lon="27.77386">
        <ele>227.029</ele>
      </trkpt>
      <trkpt lat="37.24717" lon="27.77378">
        <ele>227.083</ele>
      </trkpt>
      <trkpt lat="37.24714" lon="27.77367">
        <ele>228.971</ele>
      </trkpt>
      <trkpt lat="37.24712" lon="27.7736">
        <ele>230.135</ele>
      </trkpt>
      <trkpt lat="37.24709" lon="27.77347">
        <ele>230.567</ele>
      </trkpt>
      <trkpt lat="37.24704" lon="27.77334">
        <ele>232.226</ele>
      </trkpt>
      <trkpt lat="37.24703" lon="27.77322">
        <ele>231.258</ele>
      </trkpt>
      <trkpt lat="37.24702" lon="27.77307">
        <ele>229.841</ele>
      </trkpt>
      <trkpt lat="37.24698" lon="27.77297">
        <ele>230.762</ele>
      </trkpt>
      <trkpt lat="37.24692" lon="27.77275">
        <ele>230.333</ele>
      </trkpt>
      <trkpt lat="37.24692" lon="27.77262">
        <ele>229.011</ele>
      </trkpt>
      <trkpt lat="37.24692" lon="27.77253">
        <ele>228.096</ele>
      </trkpt>
      <trkpt lat="37.24691" lon="27.77244">
        <ele>227.712</ele>
      </trkpt>
      <trkpt lat="37.24685" lon="27.7724">
        <ele>229.461</ele>
      </trkpt>
      <trkpt lat="37.24682" lon="27.77232">
        <ele>230.025</ele>
      </trkpt>
      <trkpt lat="37.24683" lon="27.77225">
        <ele>229.279</ele>
      </trkpt>
      <trkpt lat="37.24683" lon="27.77217">
        <ele>229.263</ele>
      </trkpt>
      <trkpt lat="37.24685" lon="27.77208">
        <ele>228.901</ele>
      </trkpt>
      <trkpt lat="37.24685" lon="27.77196">
        <ele>229.324</ele>
      </trkpt>
      <trkpt lat="37.24686" lon="27.77177">
        <ele>228.937</ele>
      </trkpt>
      <trkpt lat="37.24688" lon="27.77169">
        <ele>228.412</ele>
      </trkpt>
      <trkpt lat="37.2469" lon="27.7716">
        <ele>227.96</ele>
      </trkpt>
      <trkpt lat="37.24697" lon="27.7715">
        <ele>226.32</ele>
      </trkpt>
      <trkpt lat="37.24699" lon="27.77149">
        <ele>225.792</ele>
      </trkpt>
      <trkpt lat="37.24701" lon="27.77144">
        <ele>225.305</ele>
      </trkpt>
      <trkpt lat="37.24707" lon="27.77134">
        <ele>223.644</ele>
      </trkpt>
      <trkpt lat="37.24711" lon="27.77136">
        <ele>222.745</ele>
      </trkpt>
      <trkpt lat="37.24709" lon="27.77144">
        <ele>223.235</ele>
      </trkpt>
      <trkpt lat="37.24701" lon="27.77144">
        <ele>225.305</ele>
      </trkpt>
      <trkpt lat="37.24711" lon="27.77138">
        <ele>222.803</ele>
      </trkpt>
      <trkpt lat="37.24702" lon="27.77146">
        <ele>225.026</ele>
      </trkpt>
      <trkpt lat="37.24703" lon="27.77139">
        <ele>224.843</ele>
      </trkpt>
      <trkpt lat="37.24701" lon="27.77145">
        <ele>225.297</ele>
      </trkpt>
      <trkpt lat="37.24704" lon="27.77135">
        <ele>224.409</ele>
      </trkpt>
      <trkpt lat="37.24701" lon="27.77145">
        <ele>225.297</ele>
      </trkpt>
      <trkpt lat="37.24702" lon="27.77143">
        <ele>225.055</ele>
      </trkpt>
      <trkpt lat="37.24703" lon="27.77146">
        <ele>224.765</ele>
      </trkpt>
      <trkpt lat="37.24707" lon="27.7715">
        <ele>223.656</ele>
      </trkpt>
      <trkpt lat="37.247" lon="27.77145">
        <ele>225.556</ele>
      </trkpt>
      <trkpt lat="37.24701" lon="27.7715">
        <ele>225.254</ele>
      </trkpt>
      <trkpt lat="37.24699" lon="27.77147">
        <ele>225.804</ele>
      </trkpt>
      <trkpt lat="37.24704" lon="27.77143">
        <ele>224.542</ele>
      </trkpt>
      <trkpt lat="37.24699" lon="27.77129">
        <ele>225.256</ele>
      </trkpt>
      <trkpt lat="37.24702" lon="27.77122">
        <ele>224.21</ele>
      </trkpt>
      <trkpt lat="37.24706" lon="27.77116">
        <ele>223.125</ele>
      </trkpt>
      <trkpt lat="37.24713" lon="27.77118">
        <ele>221.825</ele>
      </trkpt>
      <trkpt lat="37.2472" lon="27.77127">
        <ele>220.492</ele>
      </trkpt>
      <trkpt lat="37.24731" lon="27.77127">
        <ele>218.012</ele>
      </trkpt>
      <trkpt lat="37.2476" lon="27.77124">
        <ele>210.211</ele>
      </trkpt>
      <trkpt lat="37.24776" lon="27.77122">
        <ele>204.339</ele>
      </trkpt>
      <trkpt lat="37.24786" lon="27.77118">
        <ele>201.479</ele>
      </trkpt>
      <trkpt lat="37.24792" lon="27.77116">
        <ele>199.735</ele>
      </trkpt>
      <trkpt lat="37.24815" lon="27.77117">
        <ele>190.92</ele>
      </trkpt>
      <trkpt lat="37.24818" lon="27.7711">
        <ele>191.395</ele>
      </trkpt>
      <trkpt lat="37.24826" lon="27.77094">
        <ele>192.542</ele>
      </trkpt>
      <trkpt lat="37.24835" lon="27.77088">
        <ele>190.234</ele>
      </trkpt>
      <trkpt lat="37.2484" lon="27.77084">
        <ele>189.436</ele>
      </trkpt>
      <trkpt lat="37.24851" lon="27.77074">
        <ele>188.48</ele>
      </trkpt>
      <trkpt lat="37.24856" lon="27.77069">
        <ele>187.831</ele>
      </trkpt>
      <trkpt lat="37.24865" lon="27.77065">
        <ele>185.361</ele>
      </trkpt>
      <trkpt lat="37.24876" lon="27.77062">
        <ele>182.551</ele>
      </trkpt>
      <trkpt lat="37.24884" lon="27.77056">
        <ele>181.473</ele>
      </trkpt>
      <trkpt lat="37.24887" lon="27.77044">
        <ele>182.39</ele>
      </trkpt>
      <trkpt lat="37.24891" lon="27.77038">
        <ele>181.644</ele>
      </trkpt>
      <trkpt lat="37.24896" lon="27.77033">
        <ele>180.224</ele>
      </trkpt>
      <trkpt lat="37.24901" lon="27.77027">
        <ele>178.841</ele>
      </trkpt>
      <trkpt lat="37.24903" lon="27.7702">
        <ele>178.602</ele>
      </trkpt>
      <trkpt lat="37.24907" lon="27.77013">
        <ele>177.426</ele>
      </trkpt>
      <trkpt lat="37.24912" lon="27.77003">
        <ele>175.949</ele>
      </trkpt>
      <trkpt lat="37.24916" lon="27.76995">
        <ele>174.86</ele>
      </trkpt>
      <trkpt lat="37.24921" lon="27.76989">
        <ele>173.161</ele>
      </trkpt>
      <trkpt lat="37.24924" lon="27.76981">
        <ele>172.622</ele>
      </trkpt>
      <trkpt lat="37.24931" lon="27.76977">
        <ele>169.778</ele>
      </trkpt>
      <trkpt lat="37.24932" lon="27.76968">
        <ele>170.347</ele>
      </trkpt>
      <trkpt lat="37.24936" lon="27.76962">
        <ele>169.168</ele>
      </trkpt>
      <trkpt lat="37.24942" lon="27.76952">
        <ele>167.392</ele>
      </trkpt>
      <trkpt lat="37.24943" lon="27.76928">
        <ele>168.913</ele>
      </trkpt>
      <trkpt lat="37.24945" lon="27.76915">
        <ele>168.818</ele>
      </trkpt>
      <trkpt lat="37.24947" lon="27.76907">
        <ele>168.141</ele>
      </trkpt>
      <trkpt lat="37.24953" lon="27.76888">
        <ele>165.965</ele>
      </trkpt>
      <trkpt lat="37.24953" lon="27.76876">
        <ele>166.563</ele>
      </trkpt>
      <trkpt lat="37.24957" lon="27.76868">
        <ele>165.305</ele>
      </trkpt>
      <trkpt lat="37.2496" lon="27.76858">
        <ele>164.393</ele>
      </trkpt>
      <trkpt lat="37.24964" lon="27.76852">
        <ele>162.878</ele>
      </trkpt>
      <trkpt lat="37.24968" lon="27.76846">
        <ele>161.367</ele>
      </trkpt>
      <trkpt lat="37.2497" lon="27.76838">
        <ele>160.793</ele>
      </trkpt>
      <trkpt lat="37.24972" lon="27.76832">
        <ele>160.145</ele>
      </trkpt>
      <trkpt lat="37.24979" lon="27.76819">
        <ele>158.564</ele>
      </trkpt>
      <trkpt lat="37.24982" lon="27.76811">
        <ele>157.988</ele>
      </trkpt>
      <trkpt lat="37.24986" lon="27.76797">
        <ele>157.649</ele>
      </trkpt>
      <trkpt lat="37.24986" lon="27.76788">
        <ele>158.297</ele>
      </trkpt>
      <trkpt lat="37.24989" lon="27.76765">
        <ele>157.708</ele>
      </trkpt>
      <trkpt lat="37.2499" lon="27.76756">
        <ele>157.097</ele>
      </trkpt>
      <trkpt lat="37.24987" lon="27.7675">
        <ele>157.743</ele>
      </trkpt>
      <trkpt lat="37.24986" lon="27.76738">
        <ele>155.654</ele>
      </trkpt>
      <trkpt lat="37.24984" lon="27.76725">
        <ele>153.588</ele>
      </trkpt>
      <trkpt lat="37.24989" lon="27.767">
        <ele>146.656</ele>
      </trkpt>
      <trkpt lat="37.24994" lon="27.76673">
        <ele>141.312</ele>
      </trkpt>
      <trkpt lat="37.24999" lon="27.76667">
        <ele>140.11</ele>
      </trkpt>
      <trkpt lat="37.24997" lon="27.7666">
        <ele>139.203</ele>
      </trkpt>
      <trkpt lat="37.24991" lon="27.76656">
        <ele>138.863</ele>
      </trkpt>
      <trkpt lat="37.24985" lon="27.76653">
        <ele>138.58</ele>
      </trkpt>
      <trkpt lat="37.24975" lon="27.76655">
        <ele>139.364</ele>
      </trkpt>
      <trkpt lat="37.24955" lon="27.76658">
        <ele>143.228</ele>
      </trkpt>
      <trkpt lat="37.2495" lon="27.76653">
        <ele>143.048</ele>
      </trkpt>
      <trkpt lat="37.24947" lon="27.76645">
        <ele>141.861</ele>
      </trkpt>
      <trkpt lat="37.24944" lon="27.76621">
        <ele>136.639</ele>
      </trkpt>
      <trkpt lat="37.24942" lon="27.76608">
        <ele>134.013</ele>
      </trkpt>
      <trkpt lat="37.2494" lon="27.766">
        <ele>132.752</ele>
      </trkpt>
      <trkpt lat="37.24921" lon="27.76548">
        <ele>128.206</ele>
      </trkpt>
      <trkpt lat="37.24921" lon="27.76546">
        <ele>127.979</ele>
      </trkpt>
      <trkpt lat="37.24908" lon="27.76514">
        <ele>126.833</ele>
      </trkpt>
      <trkpt lat="37.24897" lon="27.76501">
        <ele>127.588</ele>
      </trkpt>
      <trkpt lat="37.24897" lon="27.76493">
        <ele>125.4</ele>
      </trkpt>
      <trkpt lat="37.24904" lon="27.7649">
        <ele>122.649</ele>
      </trkpt>
      <trkpt lat="37.24921" lon="27.76496">
        <ele>119.656</ele>
      </trkpt>
      <trkpt lat="37.24937" lon="27.76504">
        <ele>118.62</ele>
      </trkpt>
      <trkpt lat="37.24944" lon="27.76499">
        <ele>116.884</ele>
      </trkpt>
      <trkpt lat="37.2495" lon="27.76488">
        <ele>113.813</ele>
      </trkpt>
      <trkpt lat="37.24952" lon="27.76473">
        <ele>111.036</ele>
      </trkpt>
      <trkpt lat="37.24945" lon="27.76426">
        <ele>108.269</ele>
      </trkpt>
      <trkpt lat="37.24939" lon="27.76401">
        <ele>107.803</ele>
      </trkpt>
      <trkpt lat="37.24931" lon="27.7639">
        <ele>107.563</ele>
      </trkpt>
      <trkpt lat="37.24923" lon="27.76385">
        <ele>107.524</ele>
      </trkpt>
      <trkpt lat="37.24908" lon="27.76375">
        <ele>107.468</ele>
      </trkpt>
      <trkpt lat="37.24905" lon="27.76362">
        <ele>106.498</ele>
      </trkpt>
      <trkpt lat="37.24895" lon="27.76344">
        <ele>105.683</ele>
      </trkpt>
      <trkpt lat="37.24886" lon="27.76345">
        <ele>105.779</ele>
      </trkpt>
      <trkpt lat="37.24889" lon="27.76332">
        <ele>104.952</ele>
      </trkpt>
      <trkpt lat="37.24889" lon="27.76312">
        <ele>104.232</ele>
      </trkpt>
      <trkpt lat="37.24886" lon="27.76306">
        <ele>103.81</ele>
      </trkpt>
      <trkpt lat="37.24872" lon="27.7628">
        <ele>99.465</ele>
      </trkpt>
      <trkpt lat="37.24873" lon="27.76267">
        <ele>97.622</ele>
      </trkpt>
      <trkpt lat="37.24869" lon="27.76233">
        <ele>93.776</ele>
      </trkpt>
      <trkpt lat="37.24869" lon="27.76176">
        <ele>89.724</ele>
      </trkpt>
      <trkpt lat="37.24869" lon="27.76174">
        <ele>89.508</ele>
      </trkpt>
      <trkpt lat="37.24867" lon="27.7615">
        <ele>87.115</ele>
      </trkpt>
      <trkpt lat="37.2486" lon="27.76137">
        <ele>85.904</ele>
      </trkpt>
      <trkpt lat="37.24852" lon="27.76131">
        <ele>85.76</ele>
      </trkpt>
      <trkpt lat="37.2483" lon="27.76131">
        <ele>86.432</ele>
      </trkpt>
      <trkpt lat="37.24815" lon="27.7613">
        <ele>86.36</ele>
      </trkpt>
      <trkpt lat="37.2481" lon="27.76114">
        <ele>85.208</ele>
      </trkpt>
      <trkpt lat="37.24811" lon="27.76101">
        <ele>83.908</ele>
      </trkpt>
      <trkpt lat="37.24801" lon="27.76046">
        <ele>78.984</ele>
      </trkpt>
      <trkpt lat="37.248" lon="27.76044">
        <ele>78.768</ele>
      </trkpt>
      <trkpt lat="37.248" lon="27.76043">
        <ele>78.696</ele>
      </trkpt>
      <trkpt lat="37.24786" lon="27.7599">
        <ele>74.829</ele>
      </trkpt>
      <trkpt lat="37.24785" lon="27.75988">
        <ele>74.716</ele>
      </trkpt>
      <trkpt lat="37.24781" lon="27.75977">
        <ele>74.192</ele>
      </trkpt>
      <trkpt lat="37.24783" lon="27.75987">
        <ele>74.634</ele>
      </trkpt>
      <trkpt lat="37.24776" lon="27.75973">
        <ele>74.231</ele>
      </trkpt>
      <trkpt lat="37.24773" lon="27.75971">
        <ele>74.478</ele>
      </trkpt>
      <trkpt lat="37.24764" lon="27.75986">
        <ele>75.704</ele>
      </trkpt>
      <trkpt lat="37.24755" lon="27.76001">
        <ele>76.655</ele>
      </trkpt>
      <trkpt lat="37.24752" lon="27.76003">
        <ele>76.876</ele>
      </trkpt>
      <trkpt lat="37.24745" lon="27.76002">
        <ele>77.337</ele>
      </trkpt>
      <trkpt lat="37.24725" lon="27.75993">
        <ele>78.83</ele>
      </trkpt>
      <trkpt lat="37.2471" lon="27.75987">
        <ele>80.284</ele>
      </trkpt>
      <trkpt lat="37.24695" lon="27.75979">
        <ele>81.995</ele>
      </trkpt>
      <trkpt lat="37.24679" lon="27.75971">
        <ele>84.142</ele>
      </trkpt>
      <trkpt lat="37.24663" lon="27.75964">
        <ele>85.579</ele>
      </trkpt>
      <trkpt lat="37.24652" lon="27.75958">
        <ele>85.714</ele>
      </trkpt>
      <trkpt lat="37.24636" lon="27.75945">
        <ele>85.136</ele>
      </trkpt>
      <trkpt lat="37.24622" lon="27.75936">
        <ele>84.553</ele>
      </trkpt>
      <trkpt lat="37.24607" lon="27.75931">
        <ele>84.348</ele>
      </trkpt>
      <trkpt lat="37.24592" lon="27.75928">
        <ele>84.915</ele>
      </trkpt>
      <trkpt lat="37.2459" lon="27.75929">
        <ele>85.087</ele>
      </trkpt>
      <trkpt lat="37.24568" lon="27.75927">
        <ele>87.848</ele>
      </trkpt>
      <trkpt lat="37.24547" lon="27.75926">
        <ele>91.446</ele>
      </trkpt>
      <trkpt lat="37.24529" lon="27.75922">
        <ele>93.973</ele>
      </trkpt>
      <trkpt lat="37.24523" lon="27.7592">
        <ele>94.036</ele>
      </trkpt>
      <trkpt lat="37.24514" lon="27.75918">
        <ele>94.207</ele>
      </trkpt>
      <trkpt lat="37.24505" lon="27.75914">
        <ele>94.157</ele>
      </trkpt>
      <trkpt lat="37.24494" lon="27.75908">
        <ele>93.421</ele>
      </trkpt>
      <trkpt lat="37.24479" lon="27.75906">
        <ele>93.348</ele>
      </trkpt>
      <trkpt lat="37.24468" lon="27.75906">
        <ele>93.513</ele>
      </trkpt>
      <trkpt lat="37.24452" lon="27.75906">
        <ele>93.921</ele>
      </trkpt>
      <trkpt lat="37.24441" lon="27.75903">
        <ele>93.135</ele>
      </trkpt>
      <trkpt lat="37.24439" lon="27.75902">
        <ele>92.722</ele>
      </trkpt>
      <trkpt lat="37.2443" lon="27.75901">
        <ele>91.548</ele>
      </trkpt>
      <trkpt lat="37.24419" lon="27.75903">
        <ele>90.902</ele>
      </trkpt>
      <trkpt lat="37.24411" lon="27.75916">
        <ele>91.852</ele>
      </trkpt>
      <trkpt lat="37.24398" lon="27.75925">
        <ele>91.651</ele>
      </trkpt>
      <trkpt lat="37.2439" lon="27.75935">
        <ele>92.188</ele>
      </trkpt>
      <trkpt lat="37.24377" lon="27.75944">
        <ele>91.364</ele>
      </trkpt>
      <trkpt lat="37.24367" lon="27.75949">
        <ele>90.227</ele>
      </trkpt>
      <trkpt lat="37.24366" lon="27.7595">
        <ele>90.137</ele>
      </trkpt>
      <trkpt lat="37.24366" lon="27.7595">
        <ele>90.173</ele>
      </trkpt>
      <trkpt lat="37.24354" lon="27.75965">
        <ele>90.421</ele>
      </trkpt>
      <trkpt lat="37.24348" lon="27.75982">
        <ele>92.339</ele>
      </trkpt>
      <trkpt lat="37.24344" lon="27.75998">
        <ele>94.51</ele>
      </trkpt>
      <trkpt lat="37.24327" lon="27.76017">
        <ele>94.815</ele>
      </trkpt>
      <trkpt lat="37.24316" lon="27.76036">
        <ele>95.78</ele>
      </trkpt>
      <trkpt lat="37.24311" lon="27.76051">
        <ele>97.476</ele>
      </trkpt>
      <trkpt lat="37.24303" lon="27.76069">
        <ele>99.938</ele>
      </trkpt>
      <trkpt lat="37.24292" lon="27.76088">
        <ele>102.419</ele>
      </trkpt>
      <trkpt lat="37.24282" lon="27.761">
        <ele>103.73</ele>
      </trkpt>
      <trkpt lat="37.24269" lon="27.76107">
        <ele>103.073</ele>
      </trkpt>
      <trkpt lat="37.24256" lon="27.76113">
        <ele>101.694</ele>
      </trkpt>
      <trkpt lat="37.24243" lon="27.76121">
        <ele>101.087</ele>
      </trkpt>
      <trkpt lat="37.24242" lon="27.76121">
        <ele>101.107</ele>
      </trkpt>
      <trkpt lat="37.24237" lon="27.76123">
        <ele>100.595</ele>
      </trkpt>
      <trkpt lat="37.24223" lon="27.76118">
        <ele>98.096</ele>
      </trkpt>
      <trkpt lat="37.24213" lon="27.76113">
        <ele>97.311</ele>
      </trkpt>
      <trkpt lat="37.24219" lon="27.76116">
        <ele>97.667</ele>
      </trkpt>
      <trkpt lat="37.24216" lon="27.76116">
        <ele>97.646</ele>
      </trkpt>
      <trkpt lat="37.24215" lon="27.76116">
        <ele>97.652</ele>
      </trkpt>
      <trkpt lat="37.24214" lon="27.76112">
        <ele>97.168</ele>
      </trkpt>
      <trkpt lat="37.24214" lon="27.76106">
        <ele>95.855</ele>
      </trkpt>
      <trkpt lat="37.24214" lon="27.76101">
        <ele>94.456</ele>
      </trkpt>
      <trkpt lat="37.24216" lon="27.76097">
        <ele>93.598</ele>
      </trkpt>
      <trkpt lat="37.24216" lon="27.76087">
        <ele>91.216</ele>
      </trkpt>
      <trkpt lat="37.24217" lon="27.76079">
        <ele>89.194</ele>
      </trkpt>
      <trkpt lat="37.24214" lon="27.76074">
        <ele>88.105</ele>
      </trkpt>
      <trkpt lat="37.24216" lon="27.76064">
        <ele>85.531</ele>
      </trkpt>
      <trkpt lat="37.24216" lon="27.76059">
        <ele>84.367</ele>
      </trkpt>
      <trkpt lat="37.24213" lon="27.76049">
        <ele>82.793</ele>
      </trkpt>
      <trkpt lat="37.24212" lon="27.76047">
        <ele>82.509</ele>
      </trkpt>
      <trkpt lat="37.2421" lon="27.76043">
        <ele>81.866</ele>
      </trkpt>
      <trkpt lat="37.2421" lon="27.76036">
        <ele>80.891</ele>
      </trkpt>
      <trkpt lat="37.24213" lon="27.76026">
        <ele>79.459</ele>
      </trkpt>
      <trkpt lat="37.24213" lon="27.76024">
        <ele>79.196</ele>
      </trkpt>
      <trkpt lat="37.2421" lon="27.76016">
        <ele>78.068</ele>
      </trkpt>
      <trkpt lat="37.24208" lon="27.76015">
        <ele>77.844</ele>
      </trkpt>
      <trkpt lat="37.2421" lon="27.76008">
        <ele>77.135</ele>
      </trkpt>
      <trkpt lat="37.24209" lon="27.76005">
        <ele>76.677</ele>
      </trkpt>
      <trkpt lat="37.24206" lon="27.76004">
        <ele>76.334</ele>
      </trkpt>
      <trkpt lat="37.24203" lon="27.76004">
        <ele>76.181</ele>
      </trkpt>
      <trkpt lat="37.24201" lon="27.76004">
        <ele>76.036</ele>
      </trkpt>
      <trkpt lat="37.24198" lon="27.76005">
        <ele>75.973</ele>
      </trkpt>
      <trkpt lat="37.24192" lon="27.76001">
        <ele>75.149</ele>
      </trkpt>
      <trkpt lat="37.24187" lon="27.75997">
        <ele>74.614</ele>
      </trkpt>
      <trkpt lat="37.24184" lon="27.75989">
        <ele>73.679</ele>
      </trkpt>
      <trkpt lat="37.24186" lon="27.75986">
        <ele>73.341</ele>
      </trkpt>
      <trkpt lat="37.2419" lon="27.75978">
        <ele>72.525</ele>
      </trkpt>
      <trkpt lat="37.24192" lon="27.75968">
        <ele>71.6</ele>
      </trkpt>
      <trkpt lat="37.24194" lon="27.75954">
        <ele>70.652</ele>
      </trkpt>
      <trkpt lat="37.24193" lon="27.75949">
        <ele>70.321</ele>
      </trkpt>
      <trkpt lat="37.24194" lon="27.75949">
        <ele>70.263</ele>
      </trkpt>
      <trkpt lat="37.24193" lon="27.75949">
        <ele>70.233</ele>
      </trkpt>
      <trkpt lat="37.2419" lon="27.75949">
        <ele>70.12</ele>
      </trkpt>
      <trkpt lat="37.24187" lon="27.75949">
        <ele>70.038</ele>
      </trkpt>
      <trkpt lat="37.24187" lon="27.7595">
        <ele>70.116</ele>
      </trkpt>
      <trkpt lat="37.24188" lon="27.75949">
        <ele>70.1</ele>
      </trkpt>
      <trkpt lat="37.24189" lon="27.75948">
        <ele>70.067</ele>
      </trkpt>
      <trkpt lat="37.24194" lon="27.75941">
        <ele>69.726</ele>
      </trkpt>
      <trkpt lat="37.24195" lon="27.75939">
        <ele>69.617</ele>
      </trkpt>
      <trkpt lat="37.24195" lon="27.75922">
        <ele>68.376</ele>
      </trkpt>
      <trkpt lat="37.24195" lon="27.75877">
        <ele>64.759</ele>
      </trkpt>
      <trkpt lat="37.24193" lon="27.75816">
        <ele>59.68</ele>
      </trkpt>
      <trkpt lat="37.24189" lon="27.75719">
        <ele>52.708</ele>
      </trkpt>
      <trkpt lat="37.24186" lon="27.75619">
        <ele>50.797</ele>
      </trkpt>
      <trkpt lat="37.24183" lon="27.75531">
        <ele>49.171</ele>
      </trkpt>
      <trkpt lat="37.24181" lon="27.75472">
        <ele>45.988</ele>
      </trkpt>
      <trkpt lat="37.24182" lon="27.75446">
        <ele>45.066</ele>
      </trkpt>
      <trkpt lat="37.24182" lon="27.75446">
        <ele>45.07</ele>
      </trkpt>
      <trkpt lat="37.24181" lon="27.75446">
        <ele>45.065</ele>
      </trkpt>
      <trkpt lat="37.24179" lon="27.7544">
        <ele>44.923</ele>
      </trkpt>
      <trkpt lat="37.24133" lon="27.75412">
        <ele>43.588</ele>
      </trkpt>
      <trkpt lat="37.24102" lon="27.75403">
        <ele>42.182</ele>
      </trkpt>
      <trkpt lat="37.23982" lon="27.75397">
        <ele>45.496</ele>
      </trkpt>
      <trkpt lat="37.23937" lon="27.75365">
        <ele>44.143</ele>
      </trkpt>
      <trkpt lat="37.23903" lon="27.75359">
        <ele>43.905</ele>
      </trkpt>
      <trkpt lat="37.23846" lon="27.75343">
        <ele>43.896</ele>
      </trkpt>
      <trkpt lat="37.23795" lon="27.75332">
        <ele>43.973</ele>
      </trkpt>
      <trkpt lat="37.23747" lon="27.75317">
        <ele>44.518</ele>
      </trkpt>
      <trkpt lat="37.23712" lon="27.75324">
        <ele>45.293</ele>
      </trkpt>
      <trkpt lat="37.23658" lon="27.7532">
        <ele>45.3</ele>
      </trkpt>
      <trkpt lat="37.23625" lon="27.753">
        <ele>45.785</ele>
      </trkpt>
      <trkpt lat="37.2359" lon="27.75315">
        <ele>45.484</ele>
      </trkpt>
      <trkpt lat="37.23432" lon="27.75292">
        <ele>43.841</ele>
      </trkpt>
      <trkpt lat="37.23302" lon="27.75269">
        <ele>42.76</ele>
      </trkpt>
      <trkpt lat="37.23156" lon="27.75237">
        <ele>39.913</ele>
      </trkpt>
      <trkpt lat="37.23115" lon="27.75211">
        <ele>38.54</ele>
      </trkpt>
      <trkpt lat="37.23078" lon="27.7519">
        <ele>38.164</ele>
      </trkpt>
      <trkpt lat="37.22997" lon="27.75166">
        <ele>38.859</ele>
      </trkpt>
      <trkpt lat="37.22855" lon="27.75123">
        <ele>36.501</ele>
      </trkpt>
      <trkpt lat="37.22801" lon="27.75116">
        <ele>34.987</ele>
      </trkpt>
      <trkpt lat="37.22649" lon="27.74989">
        <ele>31</ele>
      </trkpt>
      <trkpt lat="37.22628" lon="27.74964">
        <ele>31</ele>
      </trkpt>
      <trkpt lat="37.22451" lon="27.74892">
        <ele>31</ele>
      </trkpt>
      <trkpt lat="37.22314" lon="27.74835">
        <ele>33.666</ele>
      </trkpt>
      <trkpt lat="37.22316" lon="27.74842">
        <ele>33.423</ele>
      </trkpt>
      <trkpt lat="37.22318" lon="27.74829">
        <ele>33.607</ele>
      </trkpt>
      <trkpt lat="37.2232" lon="27.74816">
        <ele>33.809</ele>
      </trkpt>
      <trkpt lat="37.22319" lon="27.74815">
        <ele>33.837</ele>
      </trkpt>
      <trkpt lat="37.22325" lon="27.74817">
        <ele>33.714</ele>
      </trkpt>
      <trkpt lat="37.22336" lon="27.74816">
        <ele>33.451</ele>
      </trkpt>
      <trkpt lat="37.22339" lon="27.74815">
        <ele>33.338</ele>
      </trkpt>
      <trkpt lat="37.22338" lon="27.74816">
        <ele>33.363</ele>
      </trkpt>
      <trkpt lat="37.2232" lon="27.74815">
        <ele>33.832</ele>
      </trkpt>
      <trkpt lat="37.22281" lon="27.74802">
        <ele>32.218</ele>
      </trkpt>
      <trkpt lat="37.2222" lon="27.74773">
        <ele>32.09</ele>
      </trkpt>
      <trkpt lat="37.22177" lon="27.74746">
        <ele>33</ele>
      </trkpt>
      <trkpt lat="37.22146" lon="27.74718">
        <ele>33.917</ele>
      </trkpt>
      <trkpt lat="37.22119" lon="27.74691">
        <ele>35.717</ele>
      </trkpt>
      <trkpt lat="37.22113" lon="27.74682">
        <ele>35.95</ele>
      </trkpt>
      <trkpt lat="37.22114" lon="27.74682">
        <ele>35.889</ele>
      </trkpt>
      <trkpt lat="37.22117" lon="27.74685">
        <ele>35.793</ele>
      </trkpt>
      <trkpt lat="37.22113" lon="27.74678">
        <ele>35.934</ele>
      </trkpt>
      <trkpt lat="37.22105" lon="27.74667">
        <ele>36.238</ele>
      </trkpt>
      <trkpt lat="37.22101" lon="27.74663">
        <ele>36.292</ele>
      </trkpt>
      <trkpt lat="37.22095" lon="27.74659">
        <ele>36.453</ele>
      </trkpt>
      <trkpt lat="37.2209" lon="27.7465">
        <ele>36.606</ele>
      </trkpt>
      <trkpt lat="37.22085" lon="27.74644">
        <ele>36.898</ele>
      </trkpt>
      <trkpt lat="37.22081" lon="27.74634">
        <ele>37.464</ele>
      </trkpt>
      <trkpt lat="37.2208" lon="27.74624">
        <ele>38.077</ele>
      </trkpt>
      <trkpt lat="37.22081" lon="27.74619">
        <ele>38.167</ele>
      </trkpt>
      <trkpt lat="37.2208" lon="27.74618">
        <ele>38.323</ele>
      </trkpt>
      <trkpt lat="37.2208" lon="27.74618">
        <ele>38.359</ele>
      </trkpt>
      <trkpt lat="37.22081" lon="27.74617">
        <ele>38.26</ele>
      </trkpt>
      <trkpt lat="37.22083" lon="27.74618">
        <ele>37.87</ele>
      </trkpt>
      <trkpt lat="37.22083" lon="27.74619">
        <ele>37.733</ele>
      </trkpt>
      <trkpt lat="37.22082" lon="27.74619">
        <ele>37.901</ele>
      </trkpt>
      <trkpt lat="37.22081" lon="27.74619">
        <ele>38.201</ele>
      </trkpt>
      <trkpt lat="37.22082" lon="27.74619">
        <ele>37.981</ele>
      </trkpt>
      <trkpt lat="37.22083" lon="27.74619">
        <ele>37.752</ele>
      </trkpt>
      <trkpt lat="37.22082" lon="27.7462">
        <ele>37.862</ele>
      </trkpt>
      <trkpt lat="37.22081" lon="27.74619">
        <ele>38.045</ele>
      </trkpt>
      <trkpt lat="37.22084" lon="27.7462">
        <ele>37.664</ele>
      </trkpt>
      <trkpt lat="37.22082" lon="27.74622">
        <ele>37.778</ele>
      </trkpt>
      <trkpt lat="37.22083" lon="27.74619">
        <ele>37.824</ele>
      </trkpt>
      <trkpt lat="37.22083" lon="27.74619">
        <ele>37.831</ele>
      </trkpt>
      <trkpt lat="37.22084" lon="27.74618">
        <ele>37.745</ele>
      </trkpt>
      <trkpt lat="37.22083" lon="27.74619">
        <ele>37.695</ele>
      </trkpt>
      <trkpt lat="37.22083" lon="27.7462">
        <ele>37.736</ele>
      </trkpt>
      <trkpt lat="37.22082" lon="27.74621">
        <ele>37.905</ele>
      </trkpt>
      <trkpt lat="37.22081" lon="27.74621">
        <ele>38.067</ele>
      </trkpt>
      <trkpt lat="37.22079" lon="27.74621">
        <ele>38.408</ele>
      </trkpt>
      <trkpt lat="37.22079" lon="27.74619">
        <ele>38.542</ele>
      </trkpt>
      <trkpt lat="37.22078" lon="27.74619">
        <ele>38.7</ele>
      </trkpt>
      <trkpt lat="37.2208" lon="27.74618">
        <ele>38.312</ele>
      </trkpt>
      <trkpt lat="37.22083" lon="27.74617">
        <ele>37.858</ele>
      </trkpt>
      <trkpt lat="37.22086" lon="27.74619">
        <ele>37.518</ele>
      </trkpt>
      <trkpt lat="37.22086" lon="27.74619">
        <ele>37.539</ele>
      </trkpt>
      <trkpt lat="37.22083" lon="27.74617">
        <ele>37.921</ele>
      </trkpt>
      <trkpt lat="37.2208" lon="27.74608">
        <ele>39.003</ele>
      </trkpt>
      <trkpt lat="37.22076" lon="27.74604">
        <ele>40.013</ele>
      </trkpt>
      <trkpt lat="37.22072" lon="27.74601">
        <ele>41.115</ele>
      </trkpt>
      <trkpt lat="37.22066" lon="27.74591">
        <ele>43.35</ele>
      </trkpt>
      <trkpt lat="37.22064" lon="27.74588">
        <ele>44.018</ele>
      </trkpt>
      <trkpt lat="37.22057" lon="27.74583">
        <ele>45.82</ele>
      </trkpt>
      <trkpt lat="37.22055" lon="27.74581">
        <ele>46.135</ele>
      </trkpt>
      <trkpt lat="37.2205" lon="27.74577">
        <ele>46.893</ele>
      </trkpt>
      <trkpt lat="37.22044" lon="27.74576">
        <ele>47.769</ele>
      </trkpt>
      <trkpt lat="37.22042" lon="27.7457">
        <ele>48.174</ele>
      </trkpt>
      <trkpt lat="37.22043" lon="27.74567">
        <ele>48.092</ele>
      </trkpt>
      <trkpt lat="37.22042" lon="27.74563">
        <ele>48.261</ele>
      </trkpt>
      <trkpt lat="37.22042" lon="27.74557">
        <ele>48.449</ele>
      </trkpt>
      <trkpt lat="37.22042" lon="27.74551">
        <ele>48.619</ele>
      </trkpt>
      <trkpt lat="37.22041" lon="27.74543">
        <ele>48.835</ele>
      </trkpt>
      <trkpt lat="37.22044" lon="27.74536">
        <ele>48.46</ele>
      </trkpt>
      <trkpt lat="37.22045" lon="27.74523">
        <ele>48.168</ele>
      </trkpt>
      <trkpt lat="37.22044" lon="27.74513">
        <ele>48.361</ele>
      </trkpt>
      <trkpt lat="37.22042" lon="27.7451">
        <ele>48.541</ele>
      </trkpt>
      <trkpt lat="37.22033" lon="27.74505">
        <ele>50.154</ele>
      </trkpt>
      <trkpt lat="37.22029" lon="27.74506">
        <ele>51.093</ele>
      </trkpt>
      <trkpt lat="37.2202" lon="27.74511">
        <ele>53.36</ele>
      </trkpt>
      <trkpt lat="37.22016" lon="27.74515">
        <ele>54.448</ele>
      </trkpt>
      <trkpt lat="37.22007" lon="27.74527">
        <ele>56.406</ele>
      </trkpt>
      <trkpt lat="37.22004" lon="27.74536">
        <ele>56.584</ele>
      </trkpt>
      <trkpt lat="37.22003" lon="27.74537">
        <ele>56.65</ele>
      </trkpt>
      <trkpt lat="37.21996" lon="27.74545">
        <ele>57.478</ele>
      </trkpt>
      <trkpt lat="37.21996" lon="27.74546">
        <ele>57.524</ele>
      </trkpt>
      <trkpt lat="37.21993" lon="27.7455">
        <ele>57.671</ele>
      </trkpt>
      <trkpt lat="37.21987" lon="27.7456">
        <ele>58.119</ele>
      </trkpt>
      <trkpt lat="37.21979" lon="27.74566">
        <ele>58.938</ele>
      </trkpt>
      <trkpt lat="37.21979" lon="27.74566">
        <ele>59.069</ele>
      </trkpt>
      <trkpt lat="37.21978" lon="27.74562">
        <ele>59.552</ele>
      </trkpt>
      <trkpt lat="37.21975" lon="27.74549">
        <ele>61.023</ele>
      </trkpt>
      <trkpt lat="37.21971" lon="27.74538">
        <ele>62.395</ele>
      </trkpt>
      <trkpt lat="37.21971" lon="27.74536">
        <ele>62.589</ele>
      </trkpt>
      <trkpt lat="37.21972" lon="27.74533">
        <ele>62.698</ele>
      </trkpt>
      <trkpt lat="37.2197" lon="27.74524">
        <ele>63.5</ele>
      </trkpt>
      <trkpt lat="37.21969" lon="27.74521">
        <ele>63.698</ele>
      </trkpt>
      <trkpt lat="37.21968" lon="27.74509">
        <ele>64.299</ele>
      </trkpt>
      <trkpt lat="37.21967" lon="27.74493">
        <ele>65.118</ele>
      </trkpt>
      <trkpt lat="37.21965" lon="27.7449">
        <ele>65.534</ele>
      </trkpt>
      <trkpt lat="37.21956" lon="27.7448">
        <ele>67.414</ele>
      </trkpt>
      <trkpt lat="37.21955" lon="27.74479">
        <ele>67.74</ele>
      </trkpt>
      <trkpt lat="37.21946" lon="27.74479">
        <ele>69.204</ele>
      </trkpt>
      <trkpt lat="37.2194" lon="27.74486">
        <ele>70.047</ele>
      </trkpt>
      <trkpt lat="37.21939" lon="27.74488">
        <ele>70.198</ele>
      </trkpt>
      <trkpt lat="37.21932" lon="27.74497">
        <ele>70.892</ele>
      </trkpt>
      <trkpt lat="37.21924" lon="27.74501">
        <ele>72.383</ele>
      </trkpt>
      <trkpt lat="37.21915" lon="27.745">
        <ele>74.784</ele>
      </trkpt>
      <trkpt lat="37.21905" lon="27.74501">
        <ele>79.271</ele>
      </trkpt>
      <trkpt lat="37.21898" lon="27.74506">
        <ele>81.578</ele>
      </trkpt>
      <trkpt lat="37.2189" lon="27.74516">
        <ele>82.915</ele>
      </trkpt>
      <trkpt lat="37.21887" lon="27.74529">
        <ele>81.562</ele>
      </trkpt>
      <trkpt lat="37.21886" lon="27.74534">
        <ele>81.241</ele>
      </trkpt>
      <trkpt lat="37.21886" lon="27.74537">
        <ele>80.838</ele>
      </trkpt>
      <trkpt lat="37.21887" lon="27.74537">
        <ele>80.758</ele>
      </trkpt>
      <trkpt lat="37.21888" lon="27.74531">
        <ele>81.02</ele>
      </trkpt>
      <trkpt lat="37.21889" lon="27.74519">
        <ele>82.78</ele>
      </trkpt>
      <trkpt lat="37.21888" lon="27.74508">
        <ele>85.535</ele>
      </trkpt>
      <trkpt lat="37.21889" lon="27.74497">
        <ele>87.002</ele>
      </trkpt>
      <trkpt lat="37.21891" lon="27.74482">
        <ele>86.778</ele>
      </trkpt>
      <trkpt lat="37.21893" lon="27.74477">
        <ele>86.264</ele>
      </trkpt>
      <trkpt lat="37.21894" lon="27.74469">
        <ele>86.062</ele>
      </trkpt>
      <trkpt lat="37.21895" lon="27.74457">
        <ele>86.154</ele>
      </trkpt>
      <trkpt lat="37.21897" lon="27.74446">
        <ele>85.932</ele>
      </trkpt>
      <trkpt lat="37.21898" lon="27.74436">
        <ele>86.306</ele>
      </trkpt>
      <trkpt lat="37.21901" lon="27.74426">
        <ele>86.402</ele>
      </trkpt>
      <trkpt lat="37.21901" lon="27.74413">
        <ele>87.39</ele>
      </trkpt>
      <trkpt lat="37.21901" lon="27.74409">
        <ele>87.764</ele>
      </trkpt>
      <trkpt lat="37.21902" lon="27.74395">
        <ele>89.27</ele>
      </trkpt>
      <trkpt lat="37.21901" lon="27.7439">
        <ele>89.809</ele>
      </trkpt>
      <trkpt lat="37.21901" lon="27.74386">
        <ele>90.043</ele>
      </trkpt>
      <trkpt lat="37.219" lon="27.74376">
        <ele>90.87</ele>
      </trkpt>
      <trkpt lat="37.219" lon="27.74374">
        <ele>91.026</ele>
      </trkpt>
      <trkpt lat="37.21896" lon="27.74362">
        <ele>92.567</ele>
      </trkpt>
      <trkpt lat="37.21895" lon="27.74357">
        <ele>93.258</ele>
      </trkpt>
      <trkpt lat="37.21893" lon="27.74346">
        <ele>94.109</ele>
      </trkpt>
      <trkpt lat="37.2189" lon="27.74331">
        <ele>95.538</ele>
      </trkpt>
      <trkpt lat="37.21887" lon="27.74315">
        <ele>95.928</ele>
      </trkpt>
      <trkpt lat="37.21883" lon="27.74301">
        <ele>96.79</ele>
      </trkpt>
      <trkpt lat="37.2188" lon="27.74293">
        <ele>97.491</ele>
      </trkpt>
      <trkpt lat="37.21879" lon="27.74288">
        <ele>97.625</ele>
      </trkpt>
      <trkpt lat="37.21875" lon="27.74275">
        <ele>98.542</ele>
      </trkpt>
      <trkpt lat="37.2187" lon="27.74259">
        <ele>100.006</ele>
      </trkpt>
      <trkpt lat="37.21865" lon="27.74246">
        <ele>101.388</ele>
      </trkpt>
      <trkpt lat="37.2186" lon="27.74235">
        <ele>102.193</ele>
      </trkpt>
      <trkpt lat="37.21856" lon="27.74222">
        <ele>102.985</ele>
      </trkpt>
      <trkpt lat="37.21856" lon="27.74216">
        <ele>102.524</ele>
      </trkpt>
      <trkpt lat="37.21856" lon="27.74211">
        <ele>101.883</ele>
      </trkpt>
      <trkpt lat="37.21855" lon="27.7421">
        <ele>102.191</ele>
      </trkpt>
      <trkpt lat="37.2185" lon="27.7421">
        <ele>104.059</ele>
      </trkpt>
      <trkpt lat="37.21843" lon="27.74201">
        <ele>105.944</ele>
      </trkpt>
      <trkpt lat="37.21839" lon="27.74193">
        <ele>106.714</ele>
      </trkpt>
      <trkpt lat="37.21834" lon="27.7418">
        <ele>107.667</ele>
      </trkpt>
      <trkpt lat="37.2183" lon="27.74171">
        <ele>108.192</ele>
      </trkpt>
      <trkpt lat="37.21825" lon="27.74159">
        <ele>108.476</ele>
      </trkpt>
      <trkpt lat="37.21825" lon="27.74153">
        <ele>107.836</ele>
      </trkpt>
      <trkpt lat="37.2182" lon="27.7414">
        <ele>108.025</ele>
      </trkpt>
      <trkpt lat="37.21813" lon="27.74137">
        <ele>109.498</ele>
      </trkpt>
      <trkpt lat="37.21811" lon="27.74143">
        <ele>110.889</ele>
      </trkpt>
      <trkpt lat="37.21812" lon="27.7415">
        <ele>111.37</ele>
      </trkpt>
      <trkpt lat="37.21813" lon="27.74154">
        <ele>111.388</ele>
      </trkpt>
      <trkpt lat="37.21814" lon="27.74156">
        <ele>111.608</ele>
      </trkpt>
      <trkpt lat="37.21813" lon="27.74167">
        <ele>112.904</ele>
      </trkpt>
      <trkpt lat="37.21813" lon="27.74168">
        <ele>113.017</ele>
      </trkpt>
      <trkpt lat="37.21811" lon="27.74178">
        <ele>114.152</ele>
      </trkpt>
      <trkpt lat="37.2181" lon="27.74182">
        <ele>114.88</ele>
      </trkpt>
      <trkpt lat="37.21809" lon="27.74184">
        <ele>115.239</ele>
      </trkpt>
      <trkpt lat="37.21808" lon="27.74192">
        <ele>116.112</ele>
      </trkpt>
      <trkpt lat="37.21808" lon="27.74196">
        <ele>116.355</ele>
      </trkpt>
      <trkpt lat="37.21806" lon="27.74213">
        <ele>118.935</ele>
      </trkpt>
      <trkpt lat="37.21804" lon="27.74224">
        <ele>120.469</ele>
      </trkpt>
      <trkpt lat="37.21804" lon="27.74238">
        <ele>121.492</ele>
      </trkpt>
      <trkpt lat="37.21807" lon="27.74252">
        <ele>121.579</ele>
      </trkpt>
      <trkpt lat="37.21809" lon="27.74256">
        <ele>120.99</ele>
      </trkpt>
      <trkpt lat="37.21811" lon="27.74258">
        <ele>120.506</ele>
      </trkpt>
      <trkpt lat="37.21813" lon="27.74257">
        <ele>119.942</ele>
      </trkpt>
      <trkpt lat="37.21813" lon="27.74258">
        <ele>119.936</ele>
      </trkpt>
      <trkpt lat="37.21812" lon="27.74258">
        <ele>120.096</ele>
      </trkpt>
      <trkpt lat="37.2181" lon="27.74254">
        <ele>120.668</ele>
      </trkpt>
      <trkpt lat="37.21809" lon="27.74249">
        <ele>120.799</ele>
      </trkpt>
      <trkpt lat="37.21804" lon="27.74245">
        <ele>122.087</ele>
      </trkpt>
      <trkpt lat="37.21799" lon="27.74242">
        <ele>122.944</ele>
      </trkpt>
      <trkpt lat="37.21795" lon="27.74231">
        <ele>123.2</ele>
      </trkpt>
      <trkpt lat="37.21787" lon="27.74218">
        <ele>124.234</ele>
      </trkpt>
      <trkpt lat="37.21781" lon="27.74212">
        <ele>125.423</ele>
      </trkpt>
      <trkpt lat="37.21774" lon="27.74204">
        <ele>126.303</ele>
      </trkpt>
      <trkpt lat="37.21767" lon="27.74198">
        <ele>127.098</ele>
      </trkpt>
      <trkpt lat="37.21766" lon="27.74196">
        <ele>127.282</ele>
      </trkpt>
      <trkpt lat="37.21758" lon="27.7419">
        <ele>128.218</ele>
      </trkpt>
      <trkpt lat="37.21749" lon="27.74186">
        <ele>129.506</ele>
      </trkpt>
      <trkpt lat="37.21737" lon="27.74183">
        <ele>130.977</ele>
      </trkpt>
      <trkpt lat="37.21727" lon="27.7418">
        <ele>132.309</ele>
      </trkpt>
      <trkpt lat="37.21718" lon="27.74179">
        <ele>133.346</ele>
      </trkpt>
      <trkpt lat="37.21715" lon="27.74178">
        <ele>133.528</ele>
      </trkpt>
      <trkpt lat="37.21708" lon="27.74177">
        <ele>134.092</ele>
      </trkpt>
      <trkpt lat="37.21705" lon="27.74177">
        <ele>134.467</ele>
      </trkpt>
      <trkpt lat="37.21694" lon="27.74177">
        <ele>135.533</ele>
      </trkpt>
      <trkpt lat="37.21691" lon="27.74178">
        <ele>135.763</ele>
      </trkpt>
      <trkpt lat="37.21689" lon="27.74178">
        <ele>135.816</ele>
      </trkpt>
      <trkpt lat="37.21681" lon="27.7418">
        <ele>136.33</ele>
      </trkpt>
      <trkpt lat="37.21673" lon="27.74182">
        <ele>136.913</ele>
      </trkpt>
      <trkpt lat="37.21634" lon="27.74212">
        <ele>139.401</ele>
      </trkpt>
      <trkpt lat="37.21655" lon="27.74191">
        <ele>138.104</ele>
      </trkpt>
      <trkpt lat="37.21646" lon="27.74198">
        <ele>138.689</ele>
      </trkpt>
      <trkpt lat="37.21636" lon="27.74206">
        <ele>138.959</ele>
      </trkpt>
      <trkpt lat="37.21631" lon="27.74212">
        <ele>139.071</ele>
      </trkpt>
      <trkpt lat="37.2163" lon="27.74212">
        <ele>139.062</ele>
      </trkpt>
      <trkpt lat="37.21621" lon="27.74223">
        <ele>139.075</ele>
      </trkpt>
      <trkpt lat="37.21615" lon="27.74228">
        <ele>139.129</ele>
      </trkpt>
      <trkpt lat="37.21604" lon="27.74233">
        <ele>138.945</ele>
      </trkpt>
      <trkpt lat="37.21594" lon="27.74241">
        <ele>139.001</ele>
      </trkpt>
      <trkpt lat="37.21585" lon="27.74248">
        <ele>139.021</ele>
      </trkpt>
      <trkpt lat="37.21575" lon="27.74257">
        <ele>138.24</ele>
      </trkpt>
      <trkpt lat="37.21569" lon="27.74265">
        <ele>138.077</ele>
      </trkpt>
      <trkpt lat="37.21564" lon="27.74275">
        <ele>138.224</ele>
      </trkpt>
      <trkpt lat="37.2156" lon="27.74284">
        <ele>138.229</ele>
      </trkpt>
      <trkpt lat="37.21555" lon="27.74297">
        <ele>138.239</ele>
      </trkpt>
      <trkpt lat="37.2155" lon="27.74307">
        <ele>137.667</ele>
      </trkpt>
      <trkpt lat="37.21546" lon="27.74317">
        <ele>137.054</ele>
      </trkpt>
      <trkpt lat="37.21542" lon="27.7433">
        <ele>136.887</ele>
      </trkpt>
      <trkpt lat="37.21541" lon="27.74332">
        <ele>136.714</ele>
      </trkpt>
      <trkpt lat="37.2154" lon="27.74335">
        <ele>136.501</ele>
      </trkpt>
      <trkpt lat="37.21535" lon="27.74348">
        <ele>134.956</ele>
      </trkpt>
      <trkpt lat="37.21531" lon="27.74358">
        <ele>133.848</ele>
      </trkpt>
      <trkpt lat="37.21529" lon="27.74363">
        <ele>133.455</ele>
      </trkpt>
      <trkpt lat="37.21527" lon="27.74367">
        <ele>133.304</ele>
      </trkpt>
      <trkpt lat="37.21524" lon="27.74377">
        <ele>133.663</ele>
      </trkpt>
      <trkpt lat="37.21521" lon="27.74384">
        <ele>133.851</ele>
      </trkpt>
      <trkpt lat="37.2152" lon="27.74387">
        <ele>133.963</ele>
      </trkpt>
      <trkpt lat="37.21516" lon="27.74394">
        <ele>133.974</ele>
      </trkpt>
      <trkpt lat="37.21512" lon="27.74405">
        <ele>134.188</ele>
      </trkpt>
      <trkpt lat="37.21507" lon="27.74419">
        <ele>134.401</ele>
      </trkpt>
      <trkpt lat="37.21505" lon="27.74427">
        <ele>134.065</ele>
      </trkpt>
      <trkpt lat="37.21504" lon="27.74428">
        <ele>133.975</ele>
      </trkpt>
      <trkpt lat="37.215" lon="27.74436">
        <ele>133.258</ele>
      </trkpt>
      <trkpt lat="37.21494" lon="27.74448">
        <ele>131.968</ele>
      </trkpt>
      <trkpt lat="37.21492" lon="27.74458">
        <ele>131.286</ele>
      </trkpt>
      <trkpt lat="37.21493" lon="27.74474">
        <ele>130.521</ele>
      </trkpt>
      <trkpt lat="37.21494" lon="27.74478">
        <ele>130.523</ele>
      </trkpt>
      <trkpt lat="37.21495" lon="27.74479">
        <ele>130.523</ele>
      </trkpt>
      <trkpt lat="37.21494" lon="27.7448">
        <ele>130.375</ele>
      </trkpt>
      <trkpt lat="37.21494" lon="27.74482">
        <ele>130.191</ele>
      </trkpt>
      <trkpt lat="37.21499" lon="27.74498">
        <ele>129.984</ele>
      </trkpt>
      <trkpt lat="37.21506" lon="27.74509">
        <ele>129.438</ele>
      </trkpt>
      <trkpt lat="37.21514" lon="27.74516">
        <ele>128.927</ele>
      </trkpt>
      <trkpt lat="37.21524" lon="27.74525">
        <ele>128.253</ele>
      </trkpt>
      <trkpt lat="37.21527" lon="27.74527">
        <ele>128.113</ele>
      </trkpt>
      <trkpt lat="37.2153" lon="27.7453">
        <ele>127.475</ele>
      </trkpt>
      <trkpt lat="37.21531" lon="27.74534">
        <ele>126.335</ele>
      </trkpt>
      <trkpt lat="37.21529" lon="27.74543">
        <ele>124.099</ele>
      </trkpt>
      <trkpt lat="37.21527" lon="27.74546">
        <ele>123.302</ele>
      </trkpt>
      <trkpt lat="37.21525" lon="27.7455">
        <ele>122.544</ele>
      </trkpt>
      <trkpt lat="37.21518" lon="27.74557">
        <ele>121.124</ele>
      </trkpt>
      <trkpt lat="37.2151" lon="27.74566">
        <ele>119.576</ele>
      </trkpt>
      <trkpt lat="37.21505" lon="27.74569">
        <ele>119.332</ele>
      </trkpt>
      <trkpt lat="37.21496" lon="27.74575">
        <ele>118.655</ele>
      </trkpt>
      <trkpt lat="37.21493" lon="27.74576">
        <ele>118.423</ele>
      </trkpt>
      <trkpt lat="37.21484" lon="27.74581">
        <ele>117.925</ele>
      </trkpt>
      <trkpt lat="37.21482" lon="27.74582">
        <ele>117.855</ele>
      </trkpt>
      <trkpt lat="37.21472" lon="27.74586">
        <ele>117.461</ele>
      </trkpt>
      <trkpt lat="37.21471" lon="27.74587">
        <ele>117.28</ele>
      </trkpt>
      <trkpt lat="37.2146" lon="27.74594">
        <ele>115.081</ele>
      </trkpt>
      <trkpt lat="37.21451" lon="27.746">
        <ele>113.058</ele>
      </trkpt>
      <trkpt lat="37.21441" lon="27.74601">
        <ele>111.567</ele>
      </trkpt>
      <trkpt lat="37.21433" lon="27.74599">
        <ele>110.311</ele>
      </trkpt>
      <trkpt lat="37.21427" lon="27.74598">
        <ele>109.12</ele>
      </trkpt>
      <trkpt lat="37.21417" lon="27.74593">
        <ele>107.767</ele>
      </trkpt>
      <trkpt lat="37.21409" lon="27.74587">
        <ele>106.356</ele>
      </trkpt>
      <trkpt lat="37.21399" lon="27.74577">
        <ele>104.473</ele>
      </trkpt>
      <trkpt lat="37.21389" lon="27.74567">
        <ele>102.149</ele>
      </trkpt>
      <trkpt lat="37.21381" lon="27.74556">
        <ele>100.171</ele>
      </trkpt>
      <trkpt lat="37.21376" lon="27.74544">
        <ele>98.464</ele>
      </trkpt>
      <trkpt lat="37.2137" lon="27.74532">
        <ele>96.639</ele>
      </trkpt>
      <trkpt lat="37.21366" lon="27.74519">
        <ele>95.369</ele>
      </trkpt>
      <trkpt lat="37.21361" lon="27.74507">
        <ele>94.248</ele>
      </trkpt>
      <trkpt lat="37.21356" lon="27.74496">
        <ele>92.974</ele>
      </trkpt>
      <trkpt lat="37.21352" lon="27.74484">
        <ele>91.95</ele>
      </trkpt>
      <trkpt lat="37.21349" lon="27.74473">
        <ele>91.156</ele>
      </trkpt>
      <trkpt lat="37.21348" lon="27.74469">
        <ele>90.653</ele>
      </trkpt>
      <trkpt lat="37.21347" lon="27.74458">
        <ele>89.716</ele>
      </trkpt>
      <trkpt lat="37.21346" lon="27.74446">
        <ele>88.955</ele>
      </trkpt>
      <trkpt lat="37.21347" lon="27.74433">
        <ele>88.022</ele>
      </trkpt>
      <trkpt lat="37.21347" lon="27.74418">
        <ele>86.589</ele>
      </trkpt>
      <trkpt lat="37.21347" lon="27.74405">
        <ele>85.711</ele>
      </trkpt>
      <trkpt lat="37.21348" lon="27.74391">
        <ele>85.014</ele>
      </trkpt>
      <trkpt lat="37.21347" lon="27.74378">
        <ele>83.436</ele>
      </trkpt>
      <trkpt lat="37.21346" lon="27.74365">
        <ele>82.214</ele>
      </trkpt>
      <trkpt lat="37.21344" lon="27.74353">
        <ele>80.555</ele>
      </trkpt>
      <trkpt lat="37.21344" lon="27.74347">
        <ele>79.831</ele>
      </trkpt>
      <trkpt lat="37.21346" lon="27.74335">
        <ele>78.829</ele>
      </trkpt>
      <trkpt lat="37.21349" lon="27.74324">
        <ele>78.925</ele>
      </trkpt>
      <trkpt lat="37.21352" lon="27.74319">
        <ele>79.33</ele>
      </trkpt>
      <trkpt lat="37.21354" lon="27.74311">
        <ele>79.421</ele>
      </trkpt>
      <trkpt lat="37.21357" lon="27.74302">
        <ele>79.731</ele>
      </trkpt>
      <trkpt lat="37.2136" lon="27.74293">
        <ele>79.911</ele>
      </trkpt>
      <trkpt lat="37.21364" lon="27.74285">
        <ele>80.379</ele>
      </trkpt>
      <trkpt lat="37.21365" lon="27.7428">
        <ele>80.304</ele>
      </trkpt>
      <trkpt lat="37.21365" lon="27.74271">
        <ele>79.391</ele>
      </trkpt>
      <trkpt lat="37.21365" lon="27.74264">
        <ele>78.581</ele>
      </trkpt>
      <trkpt lat="37.21368" lon="27.74262">
        <ele>79.101</ele>
      </trkpt>
      <trkpt lat="37.21369" lon="27.74257">
        <ele>78.65</ele>
      </trkpt>
      <trkpt lat="37.21369" lon="27.74253">
        <ele>78.413</ele>
      </trkpt>
      <trkpt lat="37.2137" lon="27.74247">
        <ele>77.915</ele>
      </trkpt>
      <trkpt lat="37.21368" lon="27.7424">
        <ele>76.984</ele>
      </trkpt>
      <trkpt lat="37.21371" lon="27.7423">
        <ele>77.154</ele>
      </trkpt>
      <trkpt lat="37.21376" lon="27.74217">
        <ele>77.433</ele>
      </trkpt>
      <trkpt lat="37.21382" lon="27.74202">
        <ele>77.839</ele>
      </trkpt>
      <trkpt lat="37.21388" lon="27.74187">
        <ele>78.323</ele>
      </trkpt>
      <trkpt lat="37.2139" lon="27.74183">
        <ele>78.584</ele>
      </trkpt>
      <trkpt lat="37.21394" lon="27.74174">
        <ele>79.141</ele>
      </trkpt>
      <trkpt lat="37.21398" lon="27.74162">
        <ele>78.885</ele>
      </trkpt>
      <trkpt lat="37.21403" lon="27.74149">
        <ele>78.498</ele>
      </trkpt>
      <trkpt lat="37.21409" lon="27.74141">
        <ele>78.991</ele>
      </trkpt>
      <trkpt lat="37.21416" lon="27.7413">
        <ele>79.85</ele>
      </trkpt>
      <trkpt lat="37.21419" lon="27.74122">
        <ele>79.909</ele>
      </trkpt>
      <trkpt lat="37.21422" lon="27.74112">
        <ele>79.777</ele>
      </trkpt>
      <trkpt lat="37.21427" lon="27.741">
        <ele>79.768</ele>
      </trkpt>
      <trkpt lat="37.21431" lon="27.74088">
        <ele>79.345</ele>
      </trkpt>
      <trkpt lat="37.21433" lon="27.74077">
        <ele>78.414</ele>
      </trkpt>
      <trkpt lat="37.21435" lon="27.7407">
        <ele>78.173</ele>
      </trkpt>
      <trkpt lat="37.21435" lon="27.74066">
        <ele>77.488</ele>
      </trkpt>
      <trkpt lat="37.21434" lon="27.74065">
        <ele>77.183</ele>
      </trkpt>
      <trkpt lat="37.21427" lon="27.74062">
        <ele>75.427</ele>
      </trkpt>
      <trkpt lat="37.21425" lon="27.74062">
        <ele>75.138</ele>
      </trkpt>
      <trkpt lat="37.21419" lon="27.74065">
        <ele>74.275</ele>
      </trkpt>
      <trkpt lat="37.21417" lon="27.74069">
        <ele>74.042</ele>
      </trkpt>
      <trkpt lat="37.21415" lon="27.74073">
        <ele>73.918</ele>
      </trkpt>
      <trkpt lat="37.21411" lon="27.7408">
        <ele>73.6</ele>
      </trkpt>
      <trkpt lat="37.21405" lon="27.74089">
        <ele>73.256</ele>
      </trkpt>
      <trkpt lat="37.21399" lon="27.74099">
        <ele>72.833</ele>
      </trkpt>
      <trkpt lat="37.21399" lon="27.741">
        <ele>72.752</ele>
      </trkpt>
      <trkpt lat="37.21393" lon="27.74107">
        <ele>71.81</ele>
      </trkpt>
      <trkpt lat="37.21387" lon="27.74115">
        <ele>70.775</ele>
      </trkpt>
      <trkpt lat="37.21383" lon="27.7412">
        <ele>70.433</ele>
      </trkpt>
      <trkpt lat="37.21379" lon="27.74125">
        <ele>70.071</ele>
      </trkpt>
      <trkpt lat="37.21371" lon="27.74135">
        <ele>69.437</ele>
      </trkpt>
      <trkpt lat="37.21364" lon="27.74146">
        <ele>68.984</ele>
      </trkpt>
      <trkpt lat="37.21358" lon="27.74155">
        <ele>68.301</ele>
      </trkpt>
      <trkpt lat="37.21356" lon="27.7416">
        <ele>68.098</ele>
      </trkpt>
      <trkpt lat="37.21349" lon="27.74169">
        <ele>67.058</ele>
      </trkpt>
      <trkpt lat="37.21344" lon="27.74171">
        <ele>66.052</ele>
      </trkpt>
      <trkpt lat="37.21336" lon="27.74171">
        <ele>64.102</ele>
      </trkpt>
      <trkpt lat="37.21331" lon="27.7417">
        <ele>62.855</ele>
      </trkpt>
      <trkpt lat="37.21319" lon="27.74168">
        <ele>60.067</ele>
      </trkpt>
      <trkpt lat="37.21307" lon="27.74163">
        <ele>56.724</ele>
      </trkpt>
      <trkpt lat="37.21298" lon="27.74158">
        <ele>54.075</ele>
      </trkpt>
      <trkpt lat="37.21291" lon="27.7415">
        <ele>51.751</ele>
      </trkpt>
      <trkpt lat="37.21292" lon="27.74144">
        <ele>51.195</ele>
      </trkpt>
      <trkpt lat="37.2129" lon="27.74137">
        <ele>50.035</ele>
      </trkpt>
      <trkpt lat="37.21289" lon="27.74133">
        <ele>49.414</ele>
      </trkpt>
      <trkpt lat="37.21288" lon="27.74126">
        <ele>48.476</ele>
      </trkpt>
      <trkpt lat="37.21286" lon="27.74114">
        <ele>46.856</ele>
      </trkpt>
      <trkpt lat="37.21286" lon="27.74102">
        <ele>45.949</ele>
      </trkpt>
      <trkpt lat="37.21285" lon="27.74098">
        <ele>45.626</ele>
      </trkpt>
      <trkpt lat="37.21286" lon="27.74095">
        <ele>45.542</ele>
      </trkpt>
      <trkpt lat="37.21284" lon="27.74084">
        <ele>44.732</ele>
      </trkpt>
      <trkpt lat="37.21282" lon="27.74074">
        <ele>43.776</ele>
      </trkpt>
      <trkpt lat="37.21281" lon="27.74064">
        <ele>42.923</ele>
      </trkpt>
      <trkpt lat="37.21282" lon="27.74057">
        <ele>42.549</ele>
      </trkpt>
      <trkpt lat="37.21285" lon="27.74045">
        <ele>41.752</ele>
      </trkpt>
      <trkpt lat="37.2129" lon="27.74031">
        <ele>41.022</ele>
      </trkpt>
      <trkpt lat="37.2129" lon="27.74029">
        <ele>40.854</ele>
      </trkpt>
      <trkpt lat="37.21294" lon="27.74018">
        <ele>40.376</ele>
      </trkpt>
      <trkpt lat="37.21293" lon="27.74012">
        <ele>39.795</ele>
      </trkpt>
      <trkpt lat="37.21294" lon="27.74007">
        <ele>39.46</ele>
      </trkpt>
      <trkpt lat="37.21294" lon="27.74001">
        <ele>38.909</ele>
      </trkpt>
      <trkpt lat="37.21293" lon="27.73991">
        <ele>37.786</ele>
      </trkpt>
      <trkpt lat="37.21292" lon="27.73979">
        <ele>36.667</ele>
      </trkpt>
      <trkpt lat="37.21291" lon="27.73975">
        <ele>36.196</ele>
      </trkpt>
      <trkpt lat="37.21291" lon="27.73972">
        <ele>35.953</ele>
      </trkpt>
      <trkpt lat="37.21287" lon="27.73961">
        <ele>34.725</ele>
      </trkpt>
      <trkpt lat="37.21285" lon="27.73951">
        <ele>33.794</ele>
      </trkpt>
      <trkpt lat="37.21282" lon="27.73939">
        <ele>32.937</ele>
      </trkpt>
      <trkpt lat="37.21279" lon="27.73927">
        <ele>32.388</ele>
      </trkpt>
      <trkpt lat="37.21275" lon="27.73915">
        <ele>31.762</ele>
      </trkpt>
      <trkpt lat="37.21272" lon="27.73904">
        <ele>30.953</ele>
      </trkpt>
      <trkpt lat="37.2127" lon="27.73894">
        <ele>30.317</ele>
      </trkpt>
      <trkpt lat="37.21269" lon="27.73882">
        <ele>29.84</ele>
      </trkpt>
      <trkpt lat="37.21269" lon="27.7388">
        <ele>29.776</ele>
      </trkpt>
      <trkpt lat="37.21275" lon="27.73874">
        <ele>29.514</ele>
      </trkpt>
      <trkpt lat="37.21277" lon="27.73873">
        <ele>29.441</ele>
      </trkpt>
      <trkpt lat="37.21277" lon="27.73873">
        <ele>29.46</ele>
      </trkpt>
      <trkpt lat="37.21276" lon="27.73874">
        <ele>29.49</ele>
      </trkpt>
      <trkpt lat="37.21279" lon="27.73873">
        <ele>29.425</ele>
      </trkpt>
      <trkpt lat="37.21282" lon="27.73873">
        <ele>29.417</ele>
      </trkpt>
      <trkpt lat="37.21282" lon="27.73872">
        <ele>29.407</ele>
      </trkpt>
      <trkpt lat="37.21282" lon="27.73871">
        <ele>29.365</ele>
      </trkpt>
      <trkpt lat="37.21283" lon="27.73871">
        <ele>29.365</ele>
      </trkpt>
      <trkpt lat="37.21285" lon="27.73871">
        <ele>29.358</ele>
      </trkpt>
      <trkpt lat="37.21285" lon="27.73872">
        <ele>29.372</ele>
      </trkpt>
      <trkpt lat="37.21285" lon="27.73872">
        <ele>29.4</ele>
      </trkpt>
      <trkpt lat="37.21286" lon="27.73873">
        <ele>29.409</ele>
      </trkpt>
      <trkpt lat="37.21286" lon="27.73872">
        <ele>29.39</ele>
      </trkpt>
      <trkpt lat="37.21286" lon="27.73872">
        <ele>29.395</ele>
      </trkpt>
      <trkpt lat="37.21287" lon="27.73873">
        <ele>29.417</ele>
      </trkpt>
      <trkpt lat="37.21288" lon="27.73872">
        <ele>29.386</ele>
      </trkpt>
      <trkpt lat="37.21286" lon="27.73872">
        <ele>29.385</ele>
      </trkpt>
      <trkpt lat="37.21276" lon="27.73872">
        <ele>29.437</ele>
      </trkpt>
      <trkpt lat="37.21257" lon="27.73872">
        <ele>29.838</ele>
      </trkpt>
      <trkpt lat="37.21216" lon="27.73875">
        <ele>30.599</ele>
      </trkpt>
      <trkpt lat="37.21175" lon="27.73879">
        <ele>31</ele>
      </trkpt>
      <trkpt lat="37.21148" lon="27.73885">
        <ele>30.891</ele>
      </trkpt>
      <trkpt lat="37.211" lon="27.73889">
        <ele>30.002</ele>
      </trkpt>
      <trkpt lat="37.21062" lon="27.73891">
        <ele>30</ele>
      </trkpt>
      <trkpt lat="37.21014" lon="27.73898">
        <ele>31.504</ele>
      </trkpt>
      <trkpt lat="37.20989" lon="27.739">
        <ele>31.761</ele>
      </trkpt>
      <trkpt lat="37.20947" lon="27.73908">
        <ele>31.073</ele>
      </trkpt>
      <trkpt lat="37.20916" lon="27.7391">
        <ele>31.029</ele>
      </trkpt>
      <trkpt lat="37.20879" lon="27.73906">
        <ele>31.76</ele>
      </trkpt>
      <trkpt lat="37.2085" lon="27.73919">
        <ele>32</ele>
      </trkpt>
      <trkpt lat="37.20833" lon="27.73927">
        <ele>32.001</ele>
      </trkpt>
      <trkpt lat="37.20802" lon="27.73914">
        <ele>32.235</ele>
      </trkpt>
      <trkpt lat="37.20777" lon="27.73901">
        <ele>32.998</ele>
      </trkpt>
      <trkpt lat="37.20754" lon="27.73894">
        <ele>32.492</ele>
      </trkpt>
      <trkpt lat="37.20737" lon="27.73909">
        <ele>33.559</ele>
      </trkpt>
      <trkpt lat="37.20716" lon="27.7394">
        <ele>34.866</ele>
      </trkpt>
      <trkpt lat="37.20694" lon="27.73977">
        <ele>34.833</ele>
      </trkpt>
      <trkpt lat="37.20685" lon="27.73994">
        <ele>33.771</ele>
      </trkpt>
      <trkpt lat="37.20682" lon="27.73998">
        <ele>33.571</ele>
      </trkpt>
      <trkpt lat="37.20675" lon="27.7401">
        <ele>33.296</ele>
      </trkpt>
      <trkpt lat="37.20666" lon="27.74025">
        <ele>33.003</ele>
      </trkpt>
      <trkpt lat="37.20635" lon="27.74068">
        <ele>33</ele>
      </trkpt>
      <trkpt lat="37.20581" lon="27.74122">
        <ele>34.601</ele>
      </trkpt>
      <trkpt lat="37.20576" lon="27.74127">
        <ele>34.459</ele>
      </trkpt>
      <trkpt lat="37.20538" lon="27.74178">
        <ele>36.646</ele>
      </trkpt>
      <trkpt lat="37.20508" lon="27.74215">
        <ele>37</ele>
      </trkpt>
      <trkpt lat="37.20491" lon="27.74229">
        <ele>37</ele>
      </trkpt>
      <trkpt lat="37.20458" lon="27.74274">
        <ele>37</ele>
      </trkpt>
      <trkpt lat="37.2042" lon="27.74334">
        <ele>38.031</ele>
      </trkpt>
      <trkpt lat="37.20385" lon="27.74384">
        <ele>38.856</ele>
      </trkpt>
      <trkpt lat="37.2035" lon="27.74426">
        <ele>39.394</ele>
      </trkpt>
      <trkpt lat="37.2033" lon="27.74458">
        <ele>39.388</ele>
      </trkpt>
      <trkpt lat="37.20304" lon="27.74495">
        <ele>37.044</ele>
      </trkpt>
      <trkpt lat="37.20272" lon="27.74534">
        <ele>37.009</ele>
      </trkpt>
      <trkpt lat="37.20267" lon="27.7454">
        <ele>37.035</ele>
      </trkpt>
      <trkpt lat="37.20256" lon="27.7455">
        <ele>37.02</ele>
      </trkpt>
      <trkpt lat="37.20233" lon="27.74568">
        <ele>36.496</ele>
      </trkpt>
      <trkpt lat="37.20179" lon="27.74616">
        <ele>37.269</ele>
      </trkpt>
      <trkpt lat="37.20173" lon="27.74621">
        <ele>37.437</ele>
      </trkpt>
      <trkpt lat="37.20166" lon="27.74625">
        <ele>37.483</ele>
      </trkpt>
      <trkpt lat="37.20152" lon="27.74632">
        <ele>37.328</ele>
      </trkpt>
      <trkpt lat="37.20146" lon="27.74635">
        <ele>37.588</ele>
      </trkpt>
      <trkpt lat="37.20117" lon="27.74668">
        <ele>40.024</ele>
      </trkpt>
      <trkpt lat="37.20083" lon="27.74698">
        <ele>41.114</ele>
      </trkpt>
      <trkpt lat="37.20078" lon="27.74701">
        <ele>41.224</ele>
      </trkpt>
      <trkpt lat="37.20072" lon="27.74705">
        <ele>41.36</ele>
      </trkpt>
      <trkpt lat="37.20068" lon="27.74709">
        <ele>41.513</ele>
      </trkpt>
      <trkpt lat="37.20065" lon="27.74714">
        <ele>41.705</ele>
      </trkpt>
      <trkpt lat="37.20062" lon="27.7472">
        <ele>41.915</ele>
      </trkpt>
      <trkpt lat="37.2006" lon="27.74726">
        <ele>42.24</ele>
      </trkpt>
      <trkpt lat="37.20059" lon="27.74731">
        <ele>42.584</ele>
      </trkpt>
      <trkpt lat="37.20059" lon="27.74736">
        <ele>42.913</ele>
      </trkpt>
      <trkpt lat="37.20058" lon="27.7474">
        <ele>43.25</ele>
      </trkpt>
      <trkpt lat="37.20056" lon="27.74745">
        <ele>43.615</ele>
      </trkpt>
      <trkpt lat="37.20053" lon="27.74748">
        <ele>43.875</ele>
      </trkpt>
      <trkpt lat="37.2005" lon="27.74751">
        <ele>44</ele>
      </trkpt>
      <trkpt lat="37.20016" lon="27.74764">
        <ele>44.217</ele>
      </trkpt>
      <trkpt lat="37.20011" lon="27.74767">
        <ele>44.369</ele>
      </trkpt>
      <trkpt lat="37.20006" lon="27.7477">
        <ele>44.568</ele>
      </trkpt>
      <trkpt lat="37.19993" lon="27.74781">
        <ele>45</ele>
      </trkpt>
      <trkpt lat="37.19986" lon="27.74788">
        <ele>45</ele>
      </trkpt>
      <trkpt lat="37.19982" lon="27.74791">
        <ele>45</ele>
      </trkpt>
      <trkpt lat="37.1998" lon="27.74793">
        <ele>45</ele>
      </trkpt>
      <trkpt lat="37.19976" lon="27.74799">
        <ele>45</ele>
      </trkpt>
      <trkpt lat="37.19976" lon="27.74802">
        <ele>45</ele>
      </trkpt>
      <trkpt lat="37.19983" lon="27.74812">
        <ele>45.228</ele>
      </trkpt>
      <trkpt lat="37.2" lon="27.74831">
        <ele>45.907</ele>
      </trkpt>
      <trkpt lat="37.20003" lon="27.74835">
        <ele>45.895</ele>
      </trkpt>
      <trkpt lat="37.20005" lon="27.74839">
        <ele>45.808</ele>
      </trkpt>
      <trkpt lat="37.20007" lon="27.74843">
        <ele>45.753</ele>
      </trkpt>
      <trkpt lat="37.20007" lon="27.74845">
        <ele>45.749</ele>
      </trkpt>
      <trkpt lat="37.20005" lon="27.74849">
        <ele>45.818</ele>
      </trkpt>
      <trkpt lat="37.20002" lon="27.7485">
        <ele>45.921</ele>
      </trkpt>
      <trkpt lat="37.19982" lon="27.74853">
        <ele>46</ele>
      </trkpt>
      <trkpt lat="37.19948" lon="27.74854">
        <ele>45.362</ele>
      </trkpt>
      <trkpt lat="37.1992" lon="27.74854">
        <ele>44.382</ele>
      </trkpt>
      <trkpt lat="37.19904" lon="27.74854">
        <ele>44.593</ele>
      </trkpt>
      <trkpt lat="37.19904" lon="27.74853">
        <ele>44.616</ele>
      </trkpt>
      <trkpt lat="37.19905" lon="27.7485">
        <ele>44.639</ele>
      </trkpt>
      <trkpt lat="37.19905" lon="27.7485">
        <ele>44.639</ele>
      </trkpt>
      <trkpt lat="37.19905" lon="27.7485">
        <ele>44.639</ele>
      </trkpt>
      <trkpt lat="37.19905" lon="27.7485">
        <ele>44.639</ele>
      </trkpt>
      <trkpt lat="37.19896" lon="27.7485">
        <ele>44.843</ele>
      </trkpt>
      <trkpt lat="37.19891" lon="27.74842">
        <ele>44.981</ele>
      </trkpt>
      <trkpt lat="37.19881" lon="27.74831">
        <ele>45.253</ele>
      </trkpt>
      <trkpt lat="37.19877" lon="27.74822">
        <ele>45.261</ele>
      </trkpt>
      <trkpt lat="37.19872" lon="27.7481">
        <ele>45.099</ele>
      </trkpt>
      <trkpt lat="37.19872" lon="27.74806">
        <ele>45.019</ele>
      </trkpt>
      <trkpt lat="37.1987" lon="27.74803">
        <ele>44.964</ele>
      </trkpt>
      <trkpt lat="37.1987" lon="27.74801">
        <ele>44.945</ele>
      </trkpt>
      <trkpt lat="37.19869" lon="27.74787">
        <ele>44.815</ele>
      </trkpt>
      <trkpt lat="37.19869" lon="27.74786">
        <ele>44.804</ele>
      </trkpt>
      <trkpt lat="37.19869" lon="27.74773">
        <ele>44.571</ele>
      </trkpt>
      <trkpt lat="37.19866" lon="27.74763">
        <ele>44.276</ele>
      </trkpt>
      <trkpt lat="37.19866" lon="27.74759">
        <ele>44.132</ele>
      </trkpt>
      <trkpt lat="37.19865" lon="27.74753">
        <ele>43.964</ele>
      </trkpt>
      <trkpt lat="37.19865" lon="27.74746">
        <ele>43.726</ele>
      </trkpt>
      <trkpt lat="37.19865" lon="27.74742">
        <ele>43.574</ele>
      </trkpt>
      <trkpt lat="37.19864" lon="27.74732">
        <ele>43.255</ele>
      </trkpt>
      <trkpt lat="37.19864" lon="27.74724">
        <ele>42.957</ele>
      </trkpt>
      <trkpt lat="37.19863" lon="27.74714">
        <ele>42.343</ele>
      </trkpt>
      <trkpt lat="37.19863" lon="27.74698">
        <ele>41.237</ele>
      </trkpt>
      <trkpt lat="37.19863" lon="27.74685">
        <ele>41.33</ele>
      </trkpt>
      <trkpt lat="37.19862" lon="27.74672">
        <ele>41.77</ele>
      </trkpt>
      <trkpt lat="37.19862" lon="27.74662">
        <ele>41.98</ele>
      </trkpt>
      <trkpt lat="37.19862" lon="27.7465">
        <ele>41.982</ele>
      </trkpt>
      <trkpt lat="37.19861" lon="27.74644">
        <ele>41.977</ele>
      </trkpt>
      <trkpt lat="37.1986" lon="27.74631">
        <ele>41.981</ele>
      </trkpt>
      <trkpt lat="37.1986" lon="27.74627">
        <ele>41.994</ele>
      </trkpt>
      <trkpt lat="37.1986" lon="27.74614">
        <ele>42.029</ele>
      </trkpt>
      <trkpt lat="37.19857" lon="27.74601">
        <ele>42.463</ele>
      </trkpt>
      <trkpt lat="37.19853" lon="27.74585">
        <ele>42.959</ele>
      </trkpt>
      <trkpt lat="37.19848" lon="27.74575">
        <ele>43.165</ele>
      </trkpt>
      <trkpt lat="37.19846" lon="27.74572">
        <ele>43.194</ele>
      </trkpt>
      <trkpt lat="37.19843" lon="27.74567">
        <ele>43.199</ele>
      </trkpt>
      <trkpt lat="37.19833" lon="27.74561">
        <ele>43</ele>
      </trkpt>
      <trkpt lat="37.19824" lon="27.74559">
        <ele>43</ele>
      </trkpt>
      <trkpt lat="37.19816" lon="27.74556">
        <ele>43</ele>
      </trkpt>
      <trkpt lat="37.19805" lon="27.74553">
        <ele>43.243</ele>
      </trkpt>
      <trkpt lat="37.19804" lon="27.74552">
        <ele>43.326</ele>
      </trkpt>
      <trkpt lat="37.19798" lon="27.74547">
        <ele>43.823</ele>
      </trkpt>
      <trkpt lat="37.19796" lon="27.74546">
        <ele>43.894</ele>
      </trkpt>
      <trkpt lat="37.19794" lon="27.74546">
        <ele>43.998</ele>
      </trkpt>
      <trkpt lat="37.19784" lon="27.74543">
        <ele>44.345</ele>
      </trkpt>
      <trkpt lat="37.19774" lon="27.7454">
        <ele>44.71</ele>
      </trkpt>
      <trkpt lat="37.19765" lon="27.74538">
        <ele>45.096</ele>
      </trkpt>
      <trkpt lat="37.19762" lon="27.74535">
        <ele>45.339</ele>
      </trkpt>
      <trkpt lat="37.19761" lon="27.74533">
        <ele>45.421</ele>
      </trkpt>
      <trkpt lat="37.1976" lon="27.74533">
        <ele>45.459</ele>
      </trkpt>
      <trkpt lat="37.19756" lon="27.7453">
        <ele>45.703</ele>
      </trkpt>
      <trkpt lat="37.19753" lon="27.74528">
        <ele>45.908</ele>
      </trkpt>
      <trkpt lat="37.19743" lon="27.74523">
        <ele>45.94</ele>
      </trkpt>
      <trkpt lat="37.19734" lon="27.74519">
        <ele>45.932</ele>
      </trkpt>
      <trkpt lat="37.19723" lon="27.74514">
        <ele>46.016</ele>
      </trkpt>
      <trkpt lat="37.19718" lon="27.74511">
        <ele>46.051</ele>
      </trkpt>
      <trkpt lat="37.19709" lon="27.74506">
        <ele>46.06</ele>
      </trkpt>
      <trkpt lat="37.19697" lon="27.74501">
        <ele>45.996</ele>
      </trkpt>
      <trkpt lat="37.19688" lon="27.74499">
        <ele>45.84</ele>
      </trkpt>
      <trkpt lat="37.19676" lon="27.74498">
        <ele>45.587</ele>
      </trkpt>
      <trkpt lat="37.19665" lon="27.74497">
        <ele>45.399</ele>
      </trkpt>
      <trkpt lat="37.19664" lon="27.74497">
        <ele>45.44</ele>
      </trkpt>
      <trkpt lat="37.19655" lon="27.74496">
        <ele>45.885</ele>
      </trkpt>
      <trkpt lat="37.19643" lon="27.74499">
        <ele>46.055</ele>
      </trkpt>
      <trkpt lat="37.19632" lon="27.74502">
        <ele>46.295</ele>
      </trkpt>
      <trkpt lat="37.19623" lon="27.74506">
        <ele>46.721</ele>
      </trkpt>
      <trkpt lat="37.19613" lon="27.74511">
        <ele>47.065</ele>
      </trkpt>
      <trkpt lat="37.19601" lon="27.74516">
        <ele>47.198</ele>
      </trkpt>
      <trkpt lat="37.19597" lon="27.74519">
        <ele>47.117</ele>
      </trkpt>
      <trkpt lat="37.19593" lon="27.7452">
        <ele>47.228</ele>
      </trkpt>
      <trkpt lat="37.19588" lon="27.74521">
        <ele>47.299</ele>
      </trkpt>
      <trkpt lat="37.19581" lon="27.74525">
        <ele>47.283</ele>
      </trkpt>
      <trkpt lat="37.19568" lon="27.74529">
        <ele>47.468</ele>
      </trkpt>
      <trkpt lat="37.19567" lon="27.74529">
        <ele>47.449</ele>
      </trkpt>
      <trkpt lat="37.19558" lon="27.74534">
        <ele>47.451</ele>
      </trkpt>
      <trkpt lat="37.19549" lon="27.7454">
        <ele>47.552</ele>
      </trkpt>
      <trkpt lat="37.19542" lon="27.74545">
        <ele>47.744</ele>
      </trkpt>
      <trkpt lat="37.19539" lon="27.74548">
        <ele>47.778</ele>
      </trkpt>
      <trkpt lat="37.19539" lon="27.74549">
        <ele>47.648</ele>
      </trkpt>
      <trkpt lat="37.19532" lon="27.74558">
        <ele>47.611</ele>
      </trkpt>
      <trkpt lat="37.19523" lon="27.7457">
        <ele>47.989</ele>
      </trkpt>
      <trkpt lat="37.19515" lon="27.7458">
        <ele>48.54</ele>
      </trkpt>
      <trkpt lat="37.1951" lon="27.74586">
        <ele>48.726</ele>
      </trkpt>
      <trkpt lat="37.19505" lon="27.74593">
        <ele>48.771</ele>
      </trkpt>
      <trkpt lat="37.19499" lon="27.74601">
        <ele>48.81</ele>
      </trkpt>
      <trkpt lat="37.19497" lon="27.74602">
        <ele>48.808</ele>
      </trkpt>
      <trkpt lat="37.1949" lon="27.74611">
        <ele>48.673</ele>
      </trkpt>
      <trkpt lat="37.19484" lon="27.7462">
        <ele>48.094</ele>
      </trkpt>
      <trkpt lat="37.1948" lon="27.74624">
        <ele>47.961</ele>
      </trkpt>
      <trkpt lat="37.19475" lon="27.7463">
        <ele>47.767</ele>
      </trkpt>
      <trkpt lat="37.19468" lon="27.74637">
        <ele>47.446</ele>
      </trkpt>
      <trkpt lat="37.19462" lon="27.74646">
        <ele>46.92</ele>
      </trkpt>
      <trkpt lat="37.19456" lon="27.74655">
        <ele>46.432</ele>
      </trkpt>
      <trkpt lat="37.19451" lon="27.74664">
        <ele>45.778</ele>
      </trkpt>
      <trkpt lat="37.19446" lon="27.74673">
        <ele>45.628</ele>
      </trkpt>
      <trkpt lat="37.19441" lon="27.74684">
        <ele>45.894</ele>
      </trkpt>
      <trkpt lat="37.19436" lon="27.74694">
        <ele>46.255</ele>
      </trkpt>
      <trkpt lat="37.1943" lon="27.74703">
        <ele>47.223</ele>
      </trkpt>
      <trkpt lat="37.19423" lon="27.74716">
        <ele>48.267</ele>
      </trkpt>
      <trkpt lat="37.19423" lon="27.74721">
        <ele>48.367</ele>
      </trkpt>
      <trkpt lat="37.19426" lon="27.74724">
        <ele>47.992</ele>
      </trkpt>
      <trkpt lat="37.1943" lon="27.74729">
        <ele>47.614</ele>
      </trkpt>
      <trkpt lat="37.19435" lon="27.74735">
        <ele>47.02</ele>
      </trkpt>
      <trkpt lat="37.19437" lon="27.74736">
        <ele>46.786</ele>
      </trkpt>
      <trkpt lat="37.19444" lon="27.74743">
        <ele>46.042</ele>
      </trkpt>
      <trkpt lat="37.19451" lon="27.74752">
        <ele>45.793</ele>
      </trkpt>
      <trkpt lat="37.19456" lon="27.74761">
        <ele>45.796</ele>
      </trkpt>
      <trkpt lat="37.19461" lon="27.7477">
        <ele>45.673</ele>
      </trkpt>
      <trkpt lat="37.19466" lon="27.74782">
        <ele>45.583</ele>
      </trkpt>
      <trkpt lat="37.19469" lon="27.74792">
        <ele>45.661</ele>
      </trkpt>
      <trkpt lat="37.1947" lon="27.74793">
        <ele>45.685</ele>
      </trkpt>
      <trkpt lat="37.1947" lon="27.74804">
        <ele>46.029</ele>
      </trkpt>
      <trkpt lat="37.1947" lon="27.74809">
        <ele>46.103</ele>
      </trkpt>
      <trkpt lat="37.19469" lon="27.74815">
        <ele>46.154</ele>
      </trkpt>
      <trkpt lat="37.1947" lon="27.74819">
        <ele>46.096</ele>
      </trkpt>
      <trkpt lat="37.1947" lon="27.74822">
        <ele>46.111</ele>
      </trkpt>
      <trkpt lat="37.19472" lon="27.74826">
        <ele>46.044</ele>
      </trkpt>
      <trkpt lat="37.19472" lon="27.74832">
        <ele>45.986</ele>
      </trkpt>
      <trkpt lat="37.19475" lon="27.74837">
        <ele>45.62</ele>
      </trkpt>
      <trkpt lat="37.19477" lon="27.74843">
        <ele>45.286</ele>
      </trkpt>
      <trkpt lat="37.1948" lon="27.74852">
        <ele>44.86</ele>
      </trkpt>
      <trkpt lat="37.19481" lon="27.74853">
        <ele>44.811</ele>
      </trkpt>
      <trkpt lat="37.19484" lon="27.74862">
        <ele>44.579</ele>
      </trkpt>
      <trkpt lat="37.19485" lon="27.74863">
        <ele>44.558</ele>
      </trkpt>
      <trkpt lat="37.19488" lon="27.74872">
        <ele>44.437</ele>
      </trkpt>
      <trkpt lat="37.19494" lon="27.74881">
        <ele>44.215</ele>
      </trkpt>
      <trkpt lat="37.19495" lon="27.74883">
        <ele>44.166</ele>
      </trkpt>
      <trkpt lat="37.19497" lon="27.74884">
        <ele>44.101</ele>
      </trkpt>
      <trkpt lat="37.19499" lon="27.74888">
        <ele>44.05</ele>
      </trkpt>
      <trkpt lat="37.19501" lon="27.74894">
        <ele>43.814</ele>
      </trkpt>
      <trkpt lat="37.19502" lon="27.74895">
        <ele>43.733</ele>
      </trkpt>
      <trkpt lat="37.19504" lon="27.74897">
        <ele>43.669</ele>
      </trkpt>
      <trkpt lat="37.19502" lon="27.74896">
        <ele>43.709</ele>
      </trkpt>
      <trkpt lat="37.195" lon="27.74896">
        <ele>43.762</ele>
      </trkpt>
      <trkpt lat="37.19499" lon="27.74905">
        <ele>43.49</ele>
      </trkpt>
      <trkpt lat="37.195" lon="27.74916">
        <ele>43.032</ele>
      </trkpt>
      <trkpt lat="37.19499" lon="27.74919">
        <ele>43.09</ele>
      </trkpt>
      <trkpt lat="37.19499" lon="27.74927">
        <ele>43.384</ele>
      </trkpt>
      <trkpt lat="37.19497" lon="27.7493">
        <ele>43.536</ele>
      </trkpt>
      <trkpt lat="37.19496" lon="27.74936">
        <ele>43.746</ele>
      </trkpt>
      <trkpt lat="37.19492" lon="27.74941">
        <ele>43.924</ele>
      </trkpt>
      <trkpt lat="37.19488" lon="27.74953">
        <ele>44.138</ele>
      </trkpt>
      <trkpt lat="37.19482" lon="27.74963">
        <ele>44.423</ele>
      </trkpt>
      <trkpt lat="37.19479" lon="27.7497">
        <ele>44.691</ele>
      </trkpt>
      <trkpt lat="37.19471" lon="27.74978">
        <ele>45.042</ele>
      </trkpt>
      <trkpt lat="37.19462" lon="27.74987">
        <ele>45.368</ele>
      </trkpt>
      <trkpt lat="37.19454" lon="27.74995">
        <ele>45.654</ele>
      </trkpt>
      <trkpt lat="37.19449" lon="27.74999">
        <ele>45.834</ele>
      </trkpt>
      <trkpt lat="37.19443" lon="27.75005">
        <ele>45.877</ele>
      </trkpt>
      <trkpt lat="37.19433" lon="27.75014">
        <ele>45.716</ele>
      </trkpt>
      <trkpt lat="37.19427" lon="27.75019">
        <ele>45.524</ele>
      </trkpt>
      <trkpt lat="37.19418" lon="27.75026">
        <ele>45.145</ele>
      </trkpt>
      <trkpt lat="37.19408" lon="27.75033">
        <ele>44.804</ele>
      </trkpt>
      <trkpt lat="37.19404" lon="27.75039">
        <ele>44.604</ele>
      </trkpt>
      <trkpt lat="37.19399" lon="27.75042">
        <ele>44.504</ele>
      </trkpt>
      <trkpt lat="37.1939" lon="27.7505">
        <ele>44.199</ele>
      </trkpt>
      <trkpt lat="37.19389" lon="27.7505">
        <ele>44.186</ele>
      </trkpt>
      <trkpt lat="37.19382" lon="27.75058">
        <ele>44.78</ele>
      </trkpt>
      <trkpt lat="37.19375" lon="27.75064">
        <ele>45.386</ele>
      </trkpt>
      <trkpt lat="37.19367" lon="27.7507">
        <ele>46.003</ele>
      </trkpt>
      <trkpt lat="37.19361" lon="27.75075">
        <ele>46.339</ele>
      </trkpt>
      <trkpt lat="37.19353" lon="27.75084">
        <ele>46.855</ele>
      </trkpt>
      <trkpt lat="37.19344" lon="27.75092">
        <ele>47.185</ele>
      </trkpt>
      <trkpt lat="37.19341" lon="27.75096">
        <ele>47.076</ele>
      </trkpt>
      <trkpt lat="37.19335" lon="27.75099">
        <ele>47.185</ele>
      </trkpt>
      <trkpt lat="37.19327" lon="27.75104">
        <ele>46.775</ele>
      </trkpt>
      <trkpt lat="37.19322" lon="27.75108">
        <ele>46.365</ele>
      </trkpt>
      <trkpt lat="37.19313" lon="27.75113">
        <ele>45.909</ele>
      </trkpt>
      <trkpt lat="37.19305" lon="27.7512">
        <ele>45.702</ele>
      </trkpt>
      <trkpt lat="37.19294" lon="27.75125">
        <ele>45.719</ele>
      </trkpt>
      <trkpt lat="37.19284" lon="27.75131">
        <ele>45.517</ele>
      </trkpt>
      <trkpt lat="37.19277" lon="27.75135">
        <ele>45.286</ele>
      </trkpt>
      <trkpt lat="37.19268" lon="27.75144">
        <ele>45.159</ele>
      </trkpt>
      <trkpt lat="37.19261" lon="27.7515">
        <ele>45.201</ele>
      </trkpt>
      <trkpt lat="37.19252" lon="27.75159">
        <ele>45.225</ele>
      </trkpt>
      <trkpt lat="37.19245" lon="27.75162">
        <ele>45.704</ele>
      </trkpt>
      <trkpt lat="37.19244" lon="27.75162">
        <ele>45.778</ele>
      </trkpt>
      <trkpt lat="37.19235" lon="27.7517">
        <ele>46.548</ele>
      </trkpt>
      <trkpt lat="37.19227" lon="27.75177">
        <ele>47.134</ele>
      </trkpt>
      <trkpt lat="37.19221" lon="27.75182">
        <ele>47.484</ele>
      </trkpt>
      <trkpt lat="37.19215" lon="27.7519">
        <ele>47.442</ele>
      </trkpt>
      <trkpt lat="37.19206" lon="27.75197">
        <ele>47.476</ele>
      </trkpt>
      <trkpt lat="37.19197" lon="27.75205">
        <ele>47.196</ele>
      </trkpt>
      <trkpt lat="37.1919" lon="27.75213">
        <ele>46.942</ele>
      </trkpt>
      <trkpt lat="37.19185" lon="27.75216">
        <ele>46.828</ele>
      </trkpt>
      <trkpt lat="37.19178" lon="27.75225">
        <ele>46.526</ele>
      </trkpt>
      <trkpt lat="37.19175" lon="27.75232">
        <ele>46.475</ele>
      </trkpt>
      <trkpt lat="37.1917" lon="27.75237">
        <ele>46.428</ele>
      </trkpt>
      <trkpt lat="37.19167" lon="27.75241">
        <ele>46.311</ele>
      </trkpt>
      <trkpt lat="37.1916" lon="27.7525">
        <ele>47.012</ele>
      </trkpt>
      <trkpt lat="37.19154" lon="27.75258">
        <ele>47.375</ele>
      </trkpt>
      <trkpt lat="37.19149" lon="27.75268">
        <ele>47.466</ele>
      </trkpt>
      <trkpt lat="37.19146" lon="27.75276">
        <ele>47.367</ele>
      </trkpt>
      <trkpt lat="37.19141" lon="27.75285">
        <ele>47.277</ele>
      </trkpt>
      <trkpt lat="37.19137" lon="27.75296">
        <ele>47.015</ele>
      </trkpt>
      <trkpt lat="37.19135" lon="27.75303">
        <ele>46.843</ele>
      </trkpt>
      <trkpt lat="37.19129" lon="27.75313">
        <ele>47.444</ele>
      </trkpt>
      <trkpt lat="37.19126" lon="27.7532">
        <ele>47.919</ele>
      </trkpt>
      <trkpt lat="37.19123" lon="27.75333">
        <ele>48.176</ele>
      </trkpt>
      <trkpt lat="37.19118" lon="27.75343">
        <ele>48.564</ele>
      </trkpt>
      <trkpt lat="37.19114" lon="27.75354">
        <ele>48.881</ele>
      </trkpt>
      <trkpt lat="37.19109" lon="27.75367">
        <ele>49.148</ele>
      </trkpt>
      <trkpt lat="37.19103" lon="27.75376">
        <ele>49.625</ele>
      </trkpt>
      <trkpt lat="37.19099" lon="27.75384">
        <ele>49.927</ele>
      </trkpt>
      <trkpt lat="37.19097" lon="27.75392">
        <ele>49.953</ele>
      </trkpt>
      <trkpt lat="37.19091" lon="27.75403">
        <ele>50.198</ele>
      </trkpt>
      <trkpt lat="37.19086" lon="27.75411">
        <ele>50.176</ele>
      </trkpt>
      <trkpt lat="37.19086" lon="27.75411">
        <ele>50.201</ele>
      </trkpt>
      <trkpt lat="37.19079" lon="27.75422">
        <ele>50.266</ele>
      </trkpt>
      <trkpt lat="37.19073" lon="27.75434">
        <ele>50.39</ele>
      </trkpt>
      <trkpt lat="37.19066" lon="27.75446">
        <ele>50.372</ele>
      </trkpt>
      <trkpt lat="37.19059" lon="27.75456">
        <ele>50.803</ele>
      </trkpt>
      <trkpt lat="37.19053" lon="27.75468">
        <ele>51.115</ele>
      </trkpt>
      <trkpt lat="37.19047" lon="27.75482">
        <ele>52.444</ele>
      </trkpt>
      <trkpt lat="37.19041" lon="27.75494">
        <ele>53.482</ele>
      </trkpt>
      <trkpt lat="37.19037" lon="27.75507">
        <ele>53.313</ele>
      </trkpt>
      <trkpt lat="37.19032" lon="27.7552">
        <ele>52.455</ele>
      </trkpt>
      <trkpt lat="37.19027" lon="27.75533">
        <ele>52.056</ele>
      </trkpt>
      <trkpt lat="37.19025" lon="27.7554">
        <ele>52.555</ele>
      </trkpt>
      <trkpt lat="37.19022" lon="27.75552">
        <ele>52.987</ele>
      </trkpt>
      <trkpt lat="37.1902" lon="27.75556">
        <ele>53.233</ele>
      </trkpt>
      <trkpt lat="37.19012" lon="27.75574">
        <ele>56.448</ele>
      </trkpt>
      <trkpt lat="37.19011" lon="27.75576">
        <ele>56.754</ele>
      </trkpt>
      <trkpt lat="37.19009" lon="27.75591">
        <ele>57.306</ele>
      </trkpt>
      <trkpt lat="37.1901" lon="27.75594">
        <ele>57.195</ele>
      </trkpt>
      <trkpt lat="37.19012" lon="27.75607">
        <ele>57.102</ele>
      </trkpt>
      <trkpt lat="37.19011" lon="27.75624">
        <ele>56.832</ele>
      </trkpt>
      <trkpt lat="37.19008" lon="27.75635">
        <ele>56.445</ele>
      </trkpt>
      <trkpt lat="37.19007" lon="27.75638">
        <ele>56.27</ele>
      </trkpt>
      <trkpt lat="37.19004" lon="27.7565">
        <ele>55.799</ele>
      </trkpt>
      <trkpt lat="37.19002" lon="27.75658">
        <ele>55.441</ele>
      </trkpt>
      <trkpt lat="37.19001" lon="27.75665">
        <ele>55.144</ele>
      </trkpt>
      <trkpt lat="37.19001" lon="27.75671">
        <ele>54.931</ele>
      </trkpt>
      <trkpt lat="37.18999" lon="27.75681">
        <ele>54.639</ele>
      </trkpt>
      <trkpt lat="37.18998" lon="27.75691">
        <ele>54.569</ele>
      </trkpt>
      <trkpt lat="37.18993" lon="27.75702">
        <ele>55.337</ele>
      </trkpt>
      <trkpt lat="37.1899" lon="27.75708">
        <ele>55.724</ele>
      </trkpt>
      <trkpt lat="37.18989" lon="27.7571">
        <ele>55.825</ele>
      </trkpt>
      <trkpt lat="37.18987" lon="27.75719">
        <ele>55.968</ele>
      </trkpt>
      <trkpt lat="37.18987" lon="27.75729">
        <ele>56.082</ele>
      </trkpt>
      <trkpt lat="37.18987" lon="27.7573">
        <ele>56.125</ele>
      </trkpt>
      <trkpt lat="37.18982" lon="27.75741">
        <ele>56.334</ele>
      </trkpt>
      <trkpt lat="37.18979" lon="27.75751">
        <ele>56.297</ele>
      </trkpt>
      <trkpt lat="37.18977" lon="27.75762">
        <ele>56.705</ele>
      </trkpt>
      <trkpt lat="37.18975" lon="27.75764">
        <ele>56.733</ele>
      </trkpt>
      <trkpt lat="37.18973" lon="27.75775">
        <ele>56.962</ele>
      </trkpt>
      <trkpt lat="37.18971" lon="27.75781">
        <ele>57.197</ele>
      </trkpt>
      <trkpt lat="37.1897" lon="27.75788">
        <ele>57.411</ele>
      </trkpt>
      <trkpt lat="37.18965" lon="27.75795">
        <ele>58.567</ele>
      </trkpt>
      <trkpt lat="37.18965" lon="27.75798">
        <ele>58.457</ele>
      </trkpt>
      <trkpt lat="37.18964" lon="27.75802">
        <ele>58.641</ele>
      </trkpt>
      <trkpt lat="37.18962" lon="27.75813">
        <ele>58.789</ele>
      </trkpt>
      <trkpt lat="37.18961" lon="27.75823">
        <ele>58.451</ele>
      </trkpt>
      <trkpt lat="37.18958" lon="27.75833">
        <ele>58.522</ele>
      </trkpt>
      <trkpt lat="37.18957" lon="27.75837">
        <ele>58.97</ele>
      </trkpt>
      <trkpt lat="37.18957" lon="27.75838">
        <ele>59.033</ele>
      </trkpt>
      <trkpt lat="37.18957" lon="27.75852">
        <ele>58.529</ele>
      </trkpt>
      <trkpt lat="37.18956" lon="27.75862">
        <ele>59.228</ele>
      </trkpt>
      <trkpt lat="37.18956" lon="27.75873">
        <ele>59.569</ele>
      </trkpt>
      <trkpt lat="37.18955" lon="27.75887">
        <ele>60.777</ele>
      </trkpt>
      <trkpt lat="37.18954" lon="27.75888">
        <ele>61.468</ele>
      </trkpt>
      <trkpt lat="37.18953" lon="27.7589">
        <ele>62.154</ele>
      </trkpt>
      <trkpt lat="37.18954" lon="27.75893">
        <ele>62.384</ele>
      </trkpt>
      <trkpt lat="37.18957" lon="27.759">
        <ele>62.229</ele>
      </trkpt>
      <trkpt lat="37.18959" lon="27.75906">
        <ele>62.779</ele>
      </trkpt>
      <trkpt lat="37.18962" lon="27.75912">
        <ele>62.212</ele>
      </trkpt>
      <trkpt lat="37.18968" lon="27.75918">
        <ele>60.703</ele>
      </trkpt>
      <trkpt lat="37.18975" lon="27.75923">
        <ele>60.113</ele>
      </trkpt>
      <trkpt lat="37.18979" lon="27.75925">
        <ele>60.286</ele>
      </trkpt>
      <trkpt lat="37.18984" lon="27.75925">
        <ele>59.782</ele>
      </trkpt>
      <trkpt lat="37.18985" lon="27.75925">
        <ele>59.863</ele>
      </trkpt>
      <trkpt lat="37.18992" lon="27.75926">
        <ele>59.317</ele>
      </trkpt>
      <trkpt lat="37.18997" lon="27.75925">
        <ele>58.494</ele>
      </trkpt>
      <trkpt lat="37.19" lon="27.75926">
        <ele>58.276</ele>
      </trkpt>
      <trkpt lat="37.19005" lon="27.75926">
        <ele>58.547</ele>
      </trkpt>
      <trkpt lat="37.19007" lon="27.75923">
        <ele>57.698</ele>
      </trkpt>
      <trkpt lat="37.19003" lon="27.75924">
        <ele>57.871</ele>
      </trkpt>
      <trkpt lat="37.19006" lon="27.75925">
        <ele>58.357</ele>
      </trkpt>
      <trkpt lat="37.19007" lon="27.75924">
        <ele>58.094</ele>
      </trkpt>
      <trkpt lat="37.19012" lon="27.75926">
        <ele>58.778</ele>
      </trkpt>
      <trkpt lat="37.19017" lon="27.75926">
        <ele>59.074</ele>
      </trkpt>
      <trkpt lat="37.19016" lon="27.75927">
        <ele>59.284</ele>
      </trkpt>
      <trkpt lat="37.1902" lon="27.75927">
        <ele>59.442</ele>
      </trkpt>
      <trkpt lat="37.19021" lon="27.75927">
        <ele>59.316</ele>
      </trkpt>
      <trkpt lat="37.19028" lon="27.75927">
        <ele>59.494</ele>
      </trkpt>
      <trkpt lat="37.19033" lon="27.75927">
        <ele>59.57</ele>
      </trkpt>
      <trkpt lat="37.19031" lon="27.75926">
        <ele>59.276</ele>
      </trkpt>
      <trkpt lat="37.19036" lon="27.75925">
        <ele>59.177</ele>
      </trkpt>
      <trkpt lat="37.19041" lon="27.75925">
        <ele>59.027</ele>
      </trkpt>
      <trkpt lat="37.19043" lon="27.75922">
        <ele>58.379</ele>
      </trkpt>
      <trkpt lat="37.19044" lon="27.75917">
        <ele>57.01</ele>
      </trkpt>
      <trkpt lat="37.19049" lon="27.75912">
        <ele>57</ele>
      </trkpt>
      <trkpt lat="37.19054" lon="27.75911">
        <ele>57</ele>
      </trkpt>
      <trkpt lat="37.19061" lon="27.75909">
        <ele>57.031</ele>
      </trkpt>
      <trkpt lat="37.19069" lon="27.75907">
        <ele>56.967</ele>
      </trkpt>
      <trkpt lat="37.19072" lon="27.75907">
        <ele>56.998</ele>
      </trkpt>
      <trkpt lat="37.19078" lon="27.75909">
        <ele>57.175</ele>
      </trkpt>
      <trkpt lat="37.19082" lon="27.75911">
        <ele>57.355</ele>
      </trkpt>
      <trkpt lat="37.19088" lon="27.75912">
        <ele>57.792</ele>
      </trkpt>
      <trkpt lat="37.1909" lon="27.75913">
        <ele>58.055</ele>
      </trkpt>
      <trkpt lat="37.19093" lon="27.75913">
        <ele>58.125</ele>
      </trkpt>
      <trkpt lat="37.19097" lon="27.75911">
        <ele>58.182</ele>
      </trkpt>
      <trkpt lat="37.19101" lon="27.75912">
        <ele>58.571</ele>
      </trkpt>
      <trkpt lat="37.19106" lon="27.75916">
        <ele>59.467</ele>
      </trkpt>
      <trkpt lat="37.19105" lon="27.75915">
        <ele>59.199</ele>
      </trkpt>
      <trkpt lat="37.19104" lon="27.75914">
        <ele>59.006</ele>
      </trkpt>
      <trkpt lat="37.19102" lon="27.75914">
        <ele>58.898</ele>
      </trkpt>
      <trkpt lat="37.19099" lon="27.75913">
        <ele>58.496</ele>
      </trkpt>
      <trkpt lat="37.19099" lon="27.75909">
        <ele>58.042</ele>
      </trkpt>
      <trkpt lat="37.19102" lon="27.75912">
        <ele>58.582</ele>
      </trkpt>
      <trkpt lat="37.19104" lon="27.75914">
        <ele>59.036</ele>
      </trkpt>
      <trkpt lat="37.191" lon="27.75916">
        <ele>59.048</ele>
      </trkpt>
      <trkpt lat="37.19107" lon="27.75915">
        <ele>59.318</ele>
      </trkpt>
      <trkpt lat="37.19104" lon="27.7591">
        <ele>58.357</ele>
      </trkpt>
      <trkpt lat="37.19102" lon="27.75908">
        <ele>58.016</ele>
      </trkpt>
      <trkpt lat="37.19105" lon="27.75906">
        <ele>57.836</ele>
      </trkpt>
      <trkpt lat="37.19113" lon="27.75905">
        <ele>58.067</ele>
      </trkpt>
      <trkpt lat="37.19124" lon="27.75903">
        <ele>58.647</ele>
      </trkpt>
      <trkpt lat="37.19126" lon="27.75901">
        <ele>58.481</ele>
      </trkpt>
      <trkpt lat="37.19129" lon="27.759">
        <ele>58.47</ele>
      </trkpt>
      <trkpt lat="37.1913" lon="27.75899">
        <ele>58.336</ele>
      </trkpt>
      <trkpt lat="37.19132" lon="27.75899">
        <ele>58.335</ele>
      </trkpt>
      <trkpt lat="37.19142" lon="27.75898">
        <ele>58.679</ele>
      </trkpt>
      <trkpt lat="37.19153" lon="27.75897">
        <ele>59.137</ele>
      </trkpt>
      <trkpt lat="37.19161" lon="27.75899">
        <ele>60.144</ele>
      </trkpt>
      <trkpt lat="37.19164" lon="27.75899">
        <ele>60.432</ele>
      </trkpt>
      <trkpt lat="37.19171" lon="27.75902">
        <ele>60.909</ele>
      </trkpt>
      <trkpt lat="37.1918" lon="27.75904">
        <ele>60.691</ele>
      </trkpt>
      <trkpt lat="37.19191" lon="27.75906">
        <ele>60.194</ele>
      </trkpt>
      <trkpt lat="37.19197" lon="27.75908">
        <ele>60.009</ele>
      </trkpt>
      <trkpt lat="37.19204" lon="27.75908">
        <ele>59.23</ele>
      </trkpt>
      <trkpt lat="37.19212" lon="27.75913">
        <ele>58.882</ele>
      </trkpt>
      <trkpt lat="37.19214" lon="27.75913">
        <ele>58.789</ele>
      </trkpt>
      <trkpt lat="37.19222" lon="27.75915">
        <ele>57.687</ele>
      </trkpt>
      <trkpt lat="37.19229" lon="27.75917">
        <ele>57.093</ele>
      </trkpt>
      <trkpt lat="37.19231" lon="27.75918">
        <ele>56.971</ele>
      </trkpt>
      <trkpt lat="37.19239" lon="27.75921">
        <ele>56.389</ele>
      </trkpt>
      <trkpt lat="37.19248" lon="27.75923">
        <ele>55.533</ele>
      </trkpt>
      <trkpt lat="37.1925" lon="27.75924">
        <ele>55.347</ele>
      </trkpt>
      <trkpt lat="37.19256" lon="27.75925">
        <ele>55.022</ele>
      </trkpt>
      <trkpt lat="37.19262" lon="27.75923">
        <ele>54.355</ele>
      </trkpt>
      <trkpt lat="37.1927" lon="27.75923">
        <ele>53.654</ele>
      </trkpt>
      <trkpt lat="37.19276" lon="27.75921">
        <ele>52.831</ele>
      </trkpt>
      <trkpt lat="37.19279" lon="27.75919">
        <ele>52.463</ele>
      </trkpt>
      <trkpt lat="37.19278" lon="27.75912">
        <ele>52.003</ele>
      </trkpt>
      <trkpt lat="37.19274" lon="27.7591">
        <ele>52.182</ele>
      </trkpt>
      <trkpt lat="37.19269" lon="27.75904">
        <ele>52.348</ele>
      </trkpt>
      <trkpt lat="37.1927" lon="27.75903">
        <ele>52.284</ele>
      </trkpt>
      <trkpt lat="37.19276" lon="27.75909">
        <ele>52.09</ele>
      </trkpt>
      <trkpt lat="37.19279" lon="27.75911">
        <ele>52.035</ele>
      </trkpt>
      <trkpt lat="37.19281" lon="27.7592">
        <ele>52.731</ele>
      </trkpt>
      <trkpt lat="37.19282" lon="27.75928">
        <ele>54.12</ele>
      </trkpt>
      <trkpt lat="37.19282" lon="27.75932">
        <ele>54.835</ele>
      </trkpt>
      <trkpt lat="37.19282" lon="27.75933">
        <ele>55.067</ele>
      </trkpt>
      <trkpt lat="37.19283" lon="27.75936">
        <ele>55.467</ele>
      </trkpt>
      <trkpt lat="37.19287" lon="27.75939">
        <ele>56.064</ele>
      </trkpt>
      <trkpt lat="37.19296" lon="27.75945">
        <ele>57.055</ele>
      </trkpt>
      <trkpt lat="37.19305" lon="27.75952">
        <ele>57.551</ele>
      </trkpt>
      <trkpt lat="37.19314" lon="27.75965">
        <ele>58.012</ele>
      </trkpt>
      <trkpt lat="37.19314" lon="27.75967">
        <ele>58.108</ele>
      </trkpt>
      <trkpt lat="37.19318" lon="27.75982">
        <ele>58.48</ele>
      </trkpt>
      <trkpt lat="37.19318" lon="27.7599">
        <ele>58.792</ele>
      </trkpt>
      <trkpt lat="37.19318" lon="27.75992">
        <ele>58.88</ele>
      </trkpt>
      <trkpt lat="37.19318" lon="27.75999">
        <ele>59.132</ele>
      </trkpt>
      <trkpt lat="37.19316" lon="27.7601">
        <ele>60.093</ele>
      </trkpt>
      <trkpt lat="37.19316" lon="27.76016">
        <ele>60.429</ele>
      </trkpt>
      <trkpt lat="37.1932" lon="27.76031">
        <ele>60.426</ele>
      </trkpt>
      <trkpt lat="37.19325" lon="27.76044">
        <ele>59.951</ele>
      </trkpt>
      <trkpt lat="37.19325" lon="27.76059">
        <ele>60.443</ele>
      </trkpt>
      <trkpt lat="37.19327" lon="27.76066">
        <ele>60.607</ele>
      </trkpt>
      <trkpt lat="37.19328" lon="27.76075">
        <ele>61.051</ele>
      </trkpt>
      <trkpt lat="37.19329" lon="27.76091">
        <ele>61.431</ele>
      </trkpt>
      <trkpt lat="37.19328" lon="27.76096">
        <ele>61.583</ele>
      </trkpt>
      <trkpt lat="37.19328" lon="27.76104">
        <ele>61.557</ele>
      </trkpt>
      <trkpt lat="37.19328" lon="27.76116">
        <ele>61.19</ele>
      </trkpt>
      <trkpt lat="37.19328" lon="27.7612">
        <ele>60.855</ele>
      </trkpt>
      <trkpt lat="37.19328" lon="27.76126">
        <ele>60.443</ele>
      </trkpt>
      <trkpt lat="37.19327" lon="27.76131">
        <ele>60.111</ele>
      </trkpt>
      <trkpt lat="37.19321" lon="27.76139">
        <ele>59.911</ele>
      </trkpt>
      <trkpt lat="37.19319" lon="27.76143">
        <ele>59.617</ele>
      </trkpt>
      <trkpt lat="37.19317" lon="27.76145">
        <ele>59.559</ele>
      </trkpt>
      <trkpt lat="37.19315" lon="27.76146">
        <ele>59.428</ele>
      </trkpt>
      <trkpt lat="37.19314" lon="27.76146">
        <ele>59.53</ele>
      </trkpt>
      <trkpt lat="37.19315" lon="27.76148">
        <ele>59.293</ele>
      </trkpt>
      <trkpt lat="37.19317" lon="27.76149">
        <ele>59.165</ele>
      </trkpt>
      <trkpt lat="37.19319" lon="27.7615">
        <ele>58.981</ele>
      </trkpt>
      <trkpt lat="37.19319" lon="27.76157">
        <ele>58.337</ele>
      </trkpt>
      <trkpt lat="37.19314" lon="27.76163">
        <ele>57.342</ele>
      </trkpt>
      <trkpt lat="37.19307" lon="27.76175">
        <ele>56.502</ele>
      </trkpt>
      <trkpt lat="37.19304" lon="27.76177">
        <ele>56.645</ele>
      </trkpt>
      <trkpt lat="37.19302" lon="27.76175">
        <ele>56.823</ele>
      </trkpt>
      <trkpt lat="37.193" lon="27.76174">
        <ele>57.167</ele>
      </trkpt>
      <trkpt lat="37.19302" lon="27.76174">
        <ele>56.925</ele>
      </trkpt>
      <trkpt lat="37.19299" lon="27.76176">
        <ele>57.416</ele>
      </trkpt>
      <trkpt lat="37.19289" lon="27.76178">
        <ele>58.749</ele>
      </trkpt>
      <trkpt lat="37.19283" lon="27.7618">
        <ele>59.41</ele>
      </trkpt>
      <trkpt lat="37.19281" lon="27.76178">
        <ele>59.983</ele>
      </trkpt>
      <trkpt lat="37.19275" lon="27.76176">
        <ele>61.496</ele>
      </trkpt>
      <trkpt lat="37.1927" lon="27.76178">
        <ele>62.349</ele>
      </trkpt>
      <trkpt lat="37.19264" lon="27.76175">
        <ele>64.448</ele>
      </trkpt>
      <trkpt lat="37.19257" lon="27.76176">
        <ele>66.136</ele>
      </trkpt>
      <trkpt lat="37.19249" lon="27.76178">
        <ele>67.733</ele>
      </trkpt>
      <trkpt lat="37.19247" lon="27.7618">
        <ele>67.784</ele>
      </trkpt>
      <trkpt lat="37.19241" lon="27.76181">
        <ele>68.592</ele>
      </trkpt>
      <trkpt lat="37.19234" lon="27.76183">
        <ele>69.309</ele>
      </trkpt>
      <trkpt lat="37.19233" lon="27.76184">
        <ele>69.349</ele>
      </trkpt>
      <trkpt lat="37.19228" lon="27.76184">
        <ele>70.183</ele>
      </trkpt>
      <trkpt lat="37.19226" lon="27.76184">
        <ele>70.325</ele>
      </trkpt>
      <trkpt lat="37.19216" lon="27.76184">
        <ele>71.516</ele>
      </trkpt>
      <trkpt lat="37.19209" lon="27.76186">
        <ele>71.208</ele>
      </trkpt>
      <trkpt lat="37.19201" lon="27.7619">
        <ele>70.62</ele>
      </trkpt>
      <trkpt lat="37.19195" lon="27.76189">
        <ele>71.231</ele>
      </trkpt>
      <trkpt lat="37.19189" lon="27.76189">
        <ele>72.885</ele>
      </trkpt>
      <trkpt lat="37.19185" lon="27.76188">
        <ele>74.655</ele>
      </trkpt>
      <trkpt lat="37.19186" lon="27.76189">
        <ele>73.947</ele>
      </trkpt>
      <trkpt lat="37.19179" lon="27.76186">
        <ele>77.683</ele>
      </trkpt>
      <trkpt lat="37.19169" lon="27.76193">
        <ele>77.887</ele>
      </trkpt>
      <trkpt lat="37.19166" lon="27.76191">
        <ele>79.822</ele>
      </trkpt>
      <trkpt lat="37.1916" lon="27.7619">
        <ele>83.222</ele>
      </trkpt>
      <trkpt lat="37.19157" lon="27.76189">
        <ele>84.986</ele>
      </trkpt>
      <trkpt lat="37.19149" lon="27.76191">
        <ele>87.995</ele>
      </trkpt>
      <trkpt lat="37.19147" lon="27.76194">
        <ele>87.346</ele>
      </trkpt>
      <trkpt lat="37.19146" lon="27.76194">
        <ele>87.825</ele>
      </trkpt>
      <trkpt lat="37.19146" lon="27.76193">
        <ele>88.312</ele>
      </trkpt>
      <trkpt lat="37.19143" lon="27.76194">
        <ele>89.541</ele>
      </trkpt>
      <trkpt lat="37.19141" lon="27.76197">
        <ele>88.92</ele>
      </trkpt>
      <trkpt lat="37.19139" lon="27.76202">
        <ele>87.747</ele>
      </trkpt>
      <trkpt lat="37.19136" lon="27.76206">
        <ele>87.759</ele>
      </trkpt>
      <trkpt lat="37.19129" lon="27.76209">
        <ele>90.318</ele>
      </trkpt>
      <trkpt lat="37.19125" lon="27.76213">
        <ele>90.99</ele>
      </trkpt>
      <trkpt lat="37.1912" lon="27.76217">
        <ele>92.781</ele>
      </trkpt>
      <trkpt lat="37.19121" lon="27.76218">
        <ele>92.098</ele>
      </trkpt>
      <trkpt lat="37.19123" lon="27.7622">
        <ele>90.451</ele>
      </trkpt>
      <trkpt lat="37.19118" lon="27.76225">
        <ele>91.656</ele>
      </trkpt>
      <trkpt lat="37.19107" lon="27.76221">
        <ele>99.208</ele>
      </trkpt>
      <trkpt lat="37.19094" lon="27.76218">
        <ele>105.238</ele>
      </trkpt>
      <trkpt lat="37.19086" lon="27.76221">
        <ele>107.315</ele>
      </trkpt>
      <trkpt lat="37.19084" lon="27.76224">
        <ele>107.324</ele>
      </trkpt>
      <trkpt lat="37.1908" lon="27.7623">
        <ele>107.389</ele>
      </trkpt>
      <trkpt lat="37.19074" lon="27.76236">
        <ele>107.337</ele>
      </trkpt>
      <trkpt lat="37.19071" lon="27.76244">
        <ele>105.688</ele>
      </trkpt>
      <trkpt lat="37.19067" lon="27.76251">
        <ele>103.225</ele>
      </trkpt>
      <trkpt lat="37.19064" lon="27.76257">
        <ele>100.086</ele>
      </trkpt>
      <trkpt lat="37.19059" lon="27.7626">
        <ele>98.812</ele>
      </trkpt>
      <trkpt lat="37.19055" lon="27.76264">
        <ele>96.912</ele>
      </trkpt>
      <trkpt lat="37.1905" lon="27.76273">
        <ele>91.843</ele>
      </trkpt>
      <trkpt lat="37.19048" lon="27.76276">
        <ele>90.614</ele>
      </trkpt>
      <trkpt lat="37.19037" lon="27.76286">
        <ele>88.07</ele>
      </trkpt>
      <trkpt lat="37.19034" lon="27.76295">
        <ele>82.966</ele>
      </trkpt>
      <trkpt lat="37.19036" lon="27.76299">
        <ele>79.287</ele>
      </trkpt>
      <trkpt lat="37.19032" lon="27.76307">
        <ele>74.859</ele>
      </trkpt>
      <trkpt lat="37.19033" lon="27.76318">
        <ele>72.589</ele>
      </trkpt>
      <trkpt lat="37.19034" lon="27.76325">
        <ele>71.212</ele>
      </trkpt>
      <trkpt lat="37.19033" lon="27.76331">
        <ele>69.999</ele>
      </trkpt>
      <trkpt lat="37.19032" lon="27.76337">
        <ele>69.889</ele>
      </trkpt>
      <trkpt lat="37.19031" lon="27.76342">
        <ele>70.117</ele>
      </trkpt>
      <trkpt lat="37.19032" lon="27.76347">
        <ele>70.379</ele>
      </trkpt>
      <trkpt lat="37.19033" lon="27.76352">
        <ele>70.689</ele>
      </trkpt>
      <trkpt lat="37.19027" lon="27.76353">
        <ele>70.343</ele>
      </trkpt>
      <trkpt lat="37.19028" lon="27.76364">
        <ele>70.994</ele>
      </trkpt>
      <trkpt lat="37.19031" lon="27.7637">
        <ele>74.076</ele>
      </trkpt>
      <trkpt lat="37.1903" lon="27.76372">
        <ele>74.544</ele>
      </trkpt>
      <trkpt lat="37.19027" lon="27.76373">
        <ele>74.369</ele>
      </trkpt>
      <trkpt lat="37.19029" lon="27.76376">
        <ele>75.685</ele>
      </trkpt>
      <trkpt lat="37.19026" lon="27.76376">
        <ele>76.099</ele>
      </trkpt>
      <trkpt lat="37.19017" lon="27.76379">
        <ele>78.764</ele>
      </trkpt>
      <trkpt lat="37.19018" lon="27.76385">
        <ele>79.624</ele>
      </trkpt>
      <trkpt lat="37.1902" lon="27.76391">
        <ele>80.704</ele>
      </trkpt>
      <trkpt lat="37.19019" lon="27.76396">
        <ele>81.751</ele>
      </trkpt>
      <trkpt lat="37.19017" lon="27.76396">
        <ele>81.743</ele>
      </trkpt>
      <trkpt lat="37.19017" lon="27.76396">
        <ele>81.727</ele>
      </trkpt>
      <trkpt lat="37.19014" lon="27.76392">
        <ele>80.872</ele>
      </trkpt>
      <trkpt lat="37.19011" lon="27.76388">
        <ele>80.583</ele>
      </trkpt>
      <trkpt lat="37.19011" lon="27.76394">
        <ele>81.087</ele>
      </trkpt>
      <trkpt lat="37.19011" lon="27.76403">
        <ele>82.11</ele>
      </trkpt>
      <trkpt lat="37.19011" lon="27.76412">
        <ele>83.11</ele>
      </trkpt>
      <trkpt lat="37.19009" lon="27.76419">
        <ele>83.122</ele>
      </trkpt>
      <trkpt lat="37.19008" lon="27.76429">
        <ele>84.134</ele>
      </trkpt>
      <trkpt lat="37.19008" lon="27.76442">
        <ele>85.807</ele>
      </trkpt>
      <trkpt lat="37.19008" lon="27.76444">
        <ele>86.097</ele>
      </trkpt>
      <trkpt lat="37.19002" lon="27.76452">
        <ele>83.7</ele>
      </trkpt>
      <trkpt lat="37.18997" lon="27.76459">
        <ele>82.953</ele>
      </trkpt>
      <trkpt lat="37.18995" lon="27.76465">
        <ele>82.622</ele>
      </trkpt>
      <trkpt lat="37.18994" lon="27.76472">
        <ele>82.02</ele>
      </trkpt>
      <trkpt lat="37.18994" lon="27.76473">
        <ele>81.854</ele>
      </trkpt>
      <trkpt lat="37.18998" lon="27.76481">
        <ele>80.219</ele>
      </trkpt>
      <trkpt lat="37.18997" lon="27.76483">
        <ele>79.976</ele>
      </trkpt>
      <trkpt lat="37.18999" lon="27.76491">
        <ele>78.527</ele>
      </trkpt>
      <trkpt lat="37.18999" lon="27.76494">
        <ele>78.229</ele>
      </trkpt>
      <trkpt lat="37.18995" lon="27.765">
        <ele>78.332</ele>
      </trkpt>
      <trkpt lat="37.18992" lon="27.76506">
        <ele>78.464</ele>
      </trkpt>
      <trkpt lat="37.18992" lon="27.76513">
        <ele>78.138</ele>
      </trkpt>
      <trkpt lat="37.18992" lon="27.76516">
        <ele>77.883</ele>
      </trkpt>
      <trkpt lat="37.1899" lon="27.76524">
        <ele>77.777</ele>
      </trkpt>
      <trkpt lat="37.18991" lon="27.76528">
        <ele>77.178</ele>
      </trkpt>
      <trkpt lat="37.18992" lon="27.76533">
        <ele>77.694</ele>
      </trkpt>
      <trkpt lat="37.1899" lon="27.76539">
        <ele>78.791</ele>
      </trkpt>
      <trkpt lat="37.18991" lon="27.76545">
        <ele>79.117</ele>
      </trkpt>
      <trkpt lat="37.18984" lon="27.7655">
        <ele>82.643</ele>
      </trkpt>
      <trkpt lat="37.18981" lon="27.76552">
        <ele>84.048</ele>
      </trkpt>
      <trkpt lat="37.18977" lon="27.7655">
        <ele>85.413</ele>
      </trkpt>
      <trkpt lat="37.18979" lon="27.76546">
        <ele>83.808</ele>
      </trkpt>
      <trkpt lat="37.18979" lon="27.76542">
        <ele>83.408</ele>
      </trkpt>
      <trkpt lat="37.18979" lon="27.7654">
        <ele>83.2</ele>
      </trkpt>
      <trkpt lat="37.18977" lon="27.76538">
        <ele>83.609</ele>
      </trkpt>
      <trkpt lat="37.18974" lon="27.76536">
        <ele>84.617</ele>
      </trkpt>
      <trkpt lat="37.1897" lon="27.76534">
        <ele>86.088</ele>
      </trkpt>
      <trkpt lat="37.18964" lon="27.7653">
        <ele>88.38</ele>
      </trkpt>
      <trkpt lat="37.1896" lon="27.76531">
        <ele>90.912</ele>
      </trkpt>
      <trkpt lat="37.18959" lon="27.76535">
        <ele>91.843</ele>
      </trkpt>
      <trkpt lat="37.18956" lon="27.76534">
        <ele>93.092</ele>
      </trkpt>
      <trkpt lat="37.18956" lon="27.76535">
        <ele>93.589</ele>
      </trkpt>
      <trkpt lat="37.18953" lon="27.76537">
        <ele>95.214</ele>
      </trkpt>
      <trkpt lat="37.18957" lon="27.76536">
        <ele>93.152</ele>
      </trkpt>
      <trkpt lat="37.18951" lon="27.76538">
        <ele>96.644</ele>
      </trkpt>
      <trkpt lat="37.1895" lon="27.76538">
        <ele>97.073</ele>
      </trkpt>
      <trkpt lat="37.18949" lon="27.76536">
        <ele>97.053</ele>
      </trkpt>
      <trkpt lat="37.18952" lon="27.76534">
        <ele>94.961</ele>
      </trkpt>
      <trkpt lat="37.18955" lon="27.76532">
        <ele>93.182</ele>
      </trkpt>
      <trkpt lat="37.18958" lon="27.76533">
        <ele>92.007</ele>
      </trkpt>
      <trkpt lat="37.18958" lon="27.76534">
        <ele>92.335</ele>
      </trkpt>
      <trkpt lat="37.18955" lon="27.76538">
        <ele>94.236</ele>
      </trkpt>
      <trkpt lat="37.18958" lon="27.76541">
        <ele>93.489</ele>
      </trkpt>
      <trkpt lat="37.18952" lon="27.76543">
        <ele>96.953</ele>
      </trkpt>
      <trkpt lat="37.18952" lon="27.76545">
        <ele>97.233</ele>
      </trkpt>
      <trkpt lat="37.18951" lon="27.76546">
        <ele>97.755</ele>
      </trkpt>
      <trkpt lat="37.1895" lon="27.76544">
        <ele>97.904</ele>
      </trkpt>
      <trkpt lat="37.18943" lon="27.76543">
        <ele>101.416</ele>
      </trkpt>
      <trkpt lat="37.18941" lon="27.76551">
        <ele>103.64</ele>
      </trkpt>
      <trkpt lat="37.18948" lon="27.76561">
        <ele>102.375</ele>
      </trkpt>
      <trkpt lat="37.18954" lon="27.76561">
        <ele>99.196</ele>
      </trkpt>
      <trkpt lat="37.18955" lon="27.76558">
        <ele>98.147</ele>
      </trkpt>
      <trkpt lat="37.18954" lon="27.76555">
        <ele>97.751</ele>
      </trkpt>
      <trkpt lat="37.18949" lon="27.76551">
        <ele>99.623</ele>
      </trkpt>
      <trkpt lat="37.18949" lon="27.76549">
        <ele>99.721</ele>
      </trkpt>
      <trkpt lat="37.18946" lon="27.76547">
        <ele>100.663</ele>
      </trkpt>
      <trkpt lat="37.18944" lon="27.76546">
        <ele>101.334</ele>
      </trkpt>
      <trkpt lat="37.18944" lon="27.76546">
        <ele>101.257</ele>
      </trkpt>
      <trkpt lat="37.18947" lon="27.76547">
        <ele>99.933</ele>
      </trkpt>
      <trkpt lat="37.18952" lon="27.76543">
        <ele>97.045</ele>
      </trkpt>
      <trkpt lat="37.18955" lon="27.76538">
        <ele>94.548</ele>
      </trkpt>
      <trkpt lat="37.18956" lon="27.76533">
        <ele>92.921</ele>
      </trkpt>
      <trkpt lat="37.18959" lon="27.7653">
        <ele>91.003</ele>
      </trkpt>
      <trkpt lat="37.1896" lon="27.76531">
        <ele>90.535</ele>
      </trkpt>
      <trkpt lat="37.18962" lon="27.76531">
        <ele>89.494</ele>
      </trkpt>
      <trkpt lat="37.18967" lon="27.76532">
        <ele>87.048</ele>
      </trkpt>
      <trkpt lat="37.18969" lon="27.76532">
        <ele>86.333</ele>
      </trkpt>
      <trkpt lat="37.18974" lon="27.76537">
        <ele>84.546</ele>
      </trkpt>
      <trkpt lat="37.18979" lon="27.76542">
        <ele>83.707</ele>
      </trkpt>
      <trkpt lat="37.18982" lon="27.76546">
        <ele>82.763</ele>
      </trkpt>
      <trkpt lat="37.18981" lon="27.76554">
        <ele>84.291</ele>
      </trkpt>
      <trkpt lat="37.18981" lon="27.7656">
        <ele>86.283</ele>
      </trkpt>
      <trkpt lat="37.18984" lon="27.76561">
        <ele>85.933</ele>
      </trkpt>
      <trkpt lat="37.1898" lon="27.76556">
        <ele>85.157</ele>
      </trkpt>
      <trkpt lat="37.1898" lon="27.76556">
        <ele>84.966</ele>
      </trkpt>
      <trkpt lat="37.18984" lon="27.76554">
        <ele>83.181</ele>
      </trkpt>
      <trkpt lat="37.18989" lon="27.76545">
        <ele>80.028</ele>
      </trkpt>
      <trkpt lat="37.18992" lon="27.76542">
        <ele>78.496</ele>
      </trkpt>
      <trkpt lat="37.18997" lon="27.76542">
        <ele>76.752</ele>
      </trkpt>
      <trkpt lat="37.19001" lon="27.76549">
        <ele>76.116</ele>
      </trkpt>
      <trkpt lat="37.19004" lon="27.76557">
        <ele>76.991</ele>
      </trkpt>
      <trkpt lat="37.19008" lon="27.76562">
        <ele>78.875</ele>
      </trkpt>
      <trkpt lat="37.1901" lon="27.76565">
        <ele>79.468</ele>
      </trkpt>
      <trkpt lat="37.1902" lon="27.76571">
        <ele>78.669</ele>
      </trkpt>
      <trkpt lat="37.19027" lon="27.76574">
        <ele>77.1</ele>
      </trkpt>
      <trkpt lat="37.19037" lon="27.76577">
        <ele>76.725</ele>
      </trkpt>
      <trkpt lat="37.19046" lon="27.76579">
        <ele>76.595</ele>
      </trkpt>
      <trkpt lat="37.19054" lon="27.76583">
        <ele>76.945</ele>
      </trkpt>
      <trkpt lat="37.19056" lon="27.76583">
        <ele>76.933</ele>
      </trkpt>
      <trkpt lat="37.19061" lon="27.76585">
        <ele>77.092</ele>
      </trkpt>
      <trkpt lat="37.19068" lon="27.76586">
        <ele>76.738</ele>
      </trkpt>
      <trkpt lat="37.19072" lon="27.76584">
        <ele>75.543</ele>
      </trkpt>
      <trkpt lat="37.19077" lon="27.76582">
        <ele>74.543</ele>
      </trkpt>
      <trkpt lat="37.19083" lon="27.7658">
        <ele>73.554</ele>
      </trkpt>
      <trkpt lat="37.19089" lon="27.76579">
        <ele>73.454</ele>
      </trkpt>
      <trkpt lat="37.19098" lon="27.76577">
        <ele>73.608</ele>
      </trkpt>
      <trkpt lat="37.19105" lon="27.76574">
        <ele>73.705</ele>
      </trkpt>
      <trkpt lat="37.19107" lon="27.76575">
        <ele>73.806</ele>
      </trkpt>
      <trkpt lat="37.19114" lon="27.76574">
        <ele>74.31</ele>
      </trkpt>
      <trkpt lat="37.19122" lon="27.76571">
        <ele>75.157</ele>
      </trkpt>
      <trkpt lat="37.19132" lon="27.76568">
        <ele>76.274</ele>
      </trkpt>
      <trkpt lat="37.19139" lon="27.76571">
        <ele>76.968</ele>
      </trkpt>
      <trkpt lat="37.19146" lon="27.76574">
        <ele>77.796</ele>
      </trkpt>
      <trkpt lat="37.19154" lon="27.76571">
        <ele>78.884</ele>
      </trkpt>
      <trkpt lat="37.19156" lon="27.7657">
        <ele>79.043</ele>
      </trkpt>
      <trkpt lat="37.19166" lon="27.7657">
        <ele>80.432</ele>
      </trkpt>
      <trkpt lat="37.19168" lon="27.7657">
        <ele>80.693</ele>
      </trkpt>
      <trkpt lat="37.19176" lon="27.76571">
        <ele>82.681</ele>
      </trkpt>
      <trkpt lat="37.19184" lon="27.76571">
        <ele>84.739</ele>
      </trkpt>
      <trkpt lat="37.19188" lon="27.76573">
        <ele>85.408</ele>
      </trkpt>
      <trkpt lat="37.19199" lon="27.76581">
        <ele>87.281</ele>
      </trkpt>
      <trkpt lat="37.192" lon="27.76582">
        <ele>87.735</ele>
      </trkpt>
      <trkpt lat="37.19206" lon="27.76588">
        <ele>88.971</ele>
      </trkpt>
      <trkpt lat="37.19208" lon="27.76594">
        <ele>88.293</ele>
      </trkpt>
      <trkpt lat="37.19211" lon="27.76602">
        <ele>86.866</ele>
      </trkpt>
      <trkpt lat="37.19215" lon="27.76609">
        <ele>85.153</ele>
      </trkpt>
      <trkpt lat="37.1922" lon="27.76619">
        <ele>83.549</ele>
      </trkpt>
      <trkpt lat="37.19216" lon="27.76627">
        <ele>82.663</ele>
      </trkpt>
      <trkpt lat="37.19217" lon="27.76635">
        <ele>81.671</ele>
      </trkpt>
      <trkpt lat="37.19217" lon="27.76648">
        <ele>80.439</ele>
      </trkpt>
      <trkpt lat="37.19219" lon="27.76656">
        <ele>78.674</ele>
      </trkpt>
      <trkpt lat="37.19222" lon="27.76663">
        <ele>76.579</ele>
      </trkpt>
      <trkpt lat="37.19223" lon="27.76672">
        <ele>75.431</ele>
      </trkpt>
      <trkpt lat="37.19225" lon="27.76682">
        <ele>74.23</ele>
      </trkpt>
      <trkpt lat="37.19224" lon="27.76687">
        <ele>73.65</ele>
      </trkpt>
      <trkpt lat="37.19221" lon="27.76692">
        <ele>74.276</ele>
      </trkpt>
      <trkpt lat="37.19223" lon="27.76701">
        <ele>72.735</ele>
      </trkpt>
      <trkpt lat="37.19224" lon="27.7671">
        <ele>72.389</ele>
      </trkpt>
      <trkpt lat="37.19226" lon="27.76719">
        <ele>72.102</ele>
      </trkpt>
      <trkpt lat="37.19228" lon="27.76726">
        <ele>72.027</ele>
      </trkpt>
      <trkpt lat="37.19257" lon="27.76709">
        <ele>74.551</ele>
      </trkpt>
      <trkpt lat="37.19259" lon="27.76714">
        <ele>75.39</ele>
      </trkpt>
      <trkpt lat="37.1926" lon="27.76718">
        <ele>76.331</ele>
      </trkpt>
      <trkpt lat="37.19266" lon="27.76722">
        <ele>78.915</ele>
      </trkpt>
      <trkpt lat="37.19263" lon="27.76725">
        <ele>77.61</ele>
      </trkpt>
      <trkpt lat="37.19262" lon="27.76729">
        <ele>77.219</ele>
      </trkpt>
      <trkpt lat="37.19258" lon="27.76731">
        <ele>75.526</ele>
      </trkpt>
      <trkpt lat="37.19256" lon="27.76739">
        <ele>75.213</ele>
      </trkpt>
      <trkpt lat="37.19256" lon="27.76742">
        <ele>75.119</ele>
      </trkpt>
      <trkpt lat="37.19253" lon="27.76754">
        <ele>74.298</ele>
      </trkpt>
      <trkpt lat="37.19253" lon="27.76763">
        <ele>73.835</ele>
      </trkpt>
      <trkpt lat="37.19253" lon="27.76768">
        <ele>73.816</ele>
      </trkpt>
      <trkpt lat="37.19253" lon="27.76776">
        <ele>73.429</ele>
      </trkpt>
      <trkpt lat="37.19253" lon="27.76782">
        <ele>73.244</ele>
      </trkpt>
      <trkpt lat="37.19255" lon="27.76789">
        <ele>74.039</ele>
      </trkpt>
      <trkpt lat="37.19257" lon="27.76797">
        <ele>74.232</ele>
      </trkpt>
      <trkpt lat="37.19259" lon="27.76802">
        <ele>74.867</ele>
      </trkpt>
      <trkpt lat="37.19258" lon="27.76802">
        <ele>74.642</ele>
      </trkpt>
      <trkpt lat="37.19258" lon="27.7681">
        <ele>73.858</ele>
      </trkpt>
      <trkpt lat="37.1926" lon="27.76816">
        <ele>74.616</ele>
      </trkpt>
      <trkpt lat="37.19263" lon="27.7682">
        <ele>75.791</ele>
      </trkpt>
      <trkpt lat="37.19262" lon="27.7683">
        <ele>74.863</ele>
      </trkpt>
      <trkpt lat="37.19262" lon="27.76838">
        <ele>74.482</ele>
      </trkpt>
      <trkpt lat="37.19262" lon="27.76849">
        <ele>73.767</ele>
      </trkpt>
      <trkpt lat="37.19265" lon="27.7686">
        <ele>74.013</ele>
      </trkpt>
      <trkpt lat="37.19259" lon="27.76867">
        <ele>71.765</ele>
      </trkpt>
      <trkpt lat="37.19262" lon="27.76869">
        <ele>72.569</ele>
      </trkpt>
      <trkpt lat="37.19267" lon="27.76867">
        <ele>74.135</ele>
      </trkpt>
      <trkpt lat="37.19267" lon="27.76868">
        <ele>74.117</ele>
      </trkpt>
      <trkpt lat="37.19266" lon="27.76873">
        <ele>73.295</ele>
      </trkpt>
      <trkpt lat="37.19262" lon="27.76872">
        <ele>72.375</ele>
      </trkpt>
      <trkpt lat="37.19261" lon="27.76869">
        <ele>72.3</ele>
      </trkpt>
      <trkpt lat="37.19262" lon="27.76877">
        <ele>72.246</ele>
      </trkpt>
      <trkpt lat="37.19266" lon="27.76882">
        <ele>72.825</ele>
      </trkpt>
      <trkpt lat="37.19269" lon="27.76893">
        <ele>72.926</ele>
      </trkpt>
      <trkpt lat="37.19274" lon="27.76905">
        <ele>72.856</ele>
      </trkpt>
      <trkpt lat="37.1928" lon="27.76913">
        <ele>73.182</ele>
      </trkpt>
      <trkpt lat="37.19285" lon="27.76921">
        <ele>74.468</ele>
      </trkpt>
      <trkpt lat="37.19293" lon="27.76926">
        <ele>77.048</ele>
      </trkpt>
      <trkpt lat="37.19297" lon="27.76933">
        <ele>78.18</ele>
      </trkpt>
      <trkpt lat="37.19301" lon="27.76941">
        <ele>79.02</ele>
      </trkpt>
      <trkpt lat="37.19303" lon="27.76951">
        <ele>78.605</ele>
      </trkpt>
      <trkpt lat="37.19305" lon="27.76968">
        <ele>76.542</ele>
      </trkpt>
      <trkpt lat="37.19307" lon="27.76976">
        <ele>76.125</ele>
      </trkpt>
      <trkpt lat="37.1931" lon="27.76984">
        <ele>76.546</ele>
      </trkpt>
      <trkpt lat="37.19313" lon="27.76991">
        <ele>76.827</ele>
      </trkpt>
      <trkpt lat="37.19317" lon="27.77001">
        <ele>76.738</ele>
      </trkpt>
      <trkpt lat="37.19321" lon="27.77009">
        <ele>77.368</ele>
      </trkpt>
      <trkpt lat="37.19325" lon="27.77017">
        <ele>77.541</ele>
      </trkpt>
      <trkpt lat="37.1933" lon="27.77027">
        <ele>77.564</ele>
      </trkpt>
      <trkpt lat="37.19334" lon="27.77036">
        <ele>77.875</ele>
      </trkpt>
      <trkpt lat="37.19341" lon="27.77038">
        <ele>79.763</ele>
      </trkpt>
      <trkpt lat="37.19345" lon="27.77043">
        <ele>80.295</ele>
      </trkpt>
      <trkpt lat="37.19346" lon="27.77048">
        <ele>80.092</ele>
      </trkpt>
      <trkpt lat="37.19347" lon="27.77058">
        <ele>79.386</ele>
      </trkpt>
      <trkpt lat="37.19349" lon="27.77064">
        <ele>79.222</ele>
      </trkpt>
      <trkpt lat="37.19349" lon="27.77068">
        <ele>78.958</ele>
      </trkpt>
      <trkpt lat="37.19349" lon="27.77074">
        <ele>78.566</ele>
      </trkpt>
      <trkpt lat="37.19351" lon="27.77084">
        <ele>77.672</ele>
      </trkpt>
      <trkpt lat="37.19354" lon="27.77092">
        <ele>77.024</ele>
      </trkpt>
      <trkpt lat="37.19359" lon="27.77105">
        <ele>75.717</ele>
      </trkpt>
      <trkpt lat="37.19363" lon="27.77115">
        <ele>74.755</ele>
      </trkpt>
      <trkpt lat="37.19372" lon="27.77118">
        <ele>74.518</ele>
      </trkpt>
      <trkpt lat="37.19378" lon="27.77125">
        <ele>74.039</ele>
      </trkpt>
      <trkpt lat="37.1938" lon="27.77128">
        <ele>73.791</ele>
      </trkpt>
      <trkpt lat="37.1939" lon="27.77131">
        <ele>73.572</ele>
      </trkpt>
      <trkpt lat="37.19394" lon="27.77136">
        <ele>73.071</ele>
      </trkpt>
      <trkpt lat="37.19397" lon="27.77141">
        <ele>72.623</ele>
      </trkpt>
      <trkpt lat="37.19403" lon="27.77152">
        <ele>72.034</ele>
      </trkpt>
      <trkpt lat="37.19404" lon="27.77154">
        <ele>71.911</ele>
      </trkpt>
      <trkpt lat="37.19408" lon="27.77169">
        <ele>71.172</ele>
      </trkpt>
      <trkpt lat="37.19412" lon="27.77178">
        <ele>70.475</ele>
      </trkpt>
      <trkpt lat="37.19415" lon="27.77187">
        <ele>69.672</ele>
      </trkpt>
      <trkpt lat="37.19422" lon="27.77198">
        <ele>69.024</ele>
      </trkpt>
      <trkpt lat="37.19428" lon="27.77207">
        <ele>68.769</ele>
      </trkpt>
      <trkpt lat="37.19434" lon="27.77212">
        <ele>68.602</ele>
      </trkpt>
      <trkpt lat="37.19441" lon="27.77219">
        <ele>68.238</ele>
      </trkpt>
      <trkpt lat="37.19447" lon="27.77225">
        <ele>68.04</ele>
      </trkpt>
      <trkpt lat="37.19451" lon="27.77229">
        <ele>68.093</ele>
      </trkpt>
      <trkpt lat="37.19457" lon="27.77234">
        <ele>68.078</ele>
      </trkpt>
      <trkpt lat="37.19465" lon="27.77247">
        <ele>67.228</ele>
      </trkpt>
      <trkpt lat="37.19471" lon="27.77257">
        <ele>67.272</ele>
      </trkpt>
      <trkpt lat="37.1948" lon="27.77264">
        <ele>67.928</ele>
      </trkpt>
      <trkpt lat="37.19483" lon="27.77266">
        <ele>68.074</ele>
      </trkpt>
      <trkpt lat="37.19483" lon="27.77267">
        <ele>68.066</ele>
      </trkpt>
      <trkpt lat="37.1949" lon="27.7727">
        <ele>68.262</ele>
      </trkpt>
      <trkpt lat="37.19495" lon="27.77271">
        <ele>68.352</ele>
      </trkpt>
      <trkpt lat="37.19496" lon="27.77272">
        <ele>68.305</ele>
      </trkpt>
      <trkpt lat="37.19497" lon="27.7727">
        <ele>68.462</ele>
      </trkpt>
      <trkpt lat="37.19502" lon="27.77276">
        <ele>68.402</ele>
      </trkpt>
      <trkpt lat="37.19504" lon="27.77278">
        <ele>68.605</ele>
      </trkpt>
      <trkpt lat="37.19513" lon="27.77285">
        <ele>69.53</ele>
      </trkpt>
      <trkpt lat="37.19525" lon="27.77293">
        <ele>70.11</ele>
      </trkpt>
      <trkpt lat="37.19529" lon="27.77295">
        <ele>70.297</ele>
      </trkpt>
      <trkpt lat="37.19538" lon="27.77302">
        <ele>71.079</ele>
      </trkpt>
      <trkpt lat="37.19543" lon="27.77304">
        <ele>71.473</ele>
      </trkpt>
      <trkpt lat="37.1955" lon="27.77308">
        <ele>71.881</ele>
      </trkpt>
      <trkpt lat="37.19556" lon="27.77315">
        <ele>71.739</ele>
      </trkpt>
      <trkpt lat="37.19561" lon="27.7732">
        <ele>72.091</ele>
      </trkpt>
      <trkpt lat="37.19564" lon="27.77321">
        <ele>72.505</ele>
      </trkpt>
      <trkpt lat="37.19564" lon="27.77326">
        <ele>71.774</ele>
      </trkpt>
      <trkpt lat="37.19566" lon="27.77324">
        <ele>72.487</ele>
      </trkpt>
      <trkpt lat="37.19566" lon="27.77331">
        <ele>71.346</ele>
      </trkpt>
      <trkpt lat="37.19569" lon="27.77335">
        <ele>71.319</ele>
      </trkpt>
      <trkpt lat="37.19575" lon="27.77339">
        <ele>71.756</ele>
      </trkpt>
      <trkpt lat="37.19578" lon="27.77345">
        <ele>71.326</ele>
      </trkpt>
      <trkpt lat="37.19583" lon="27.77352">
        <ele>70.645</ele>
      </trkpt>
      <trkpt lat="37.19586" lon="27.77359">
        <ele>70.06</ele>
      </trkpt>
      <trkpt lat="37.19592" lon="27.77366">
        <ele>70.811</ele>
      </trkpt>
      <trkpt lat="37.19598" lon="27.77368">
        <ele>72.036</ele>
      </trkpt>
      <trkpt lat="37.19602" lon="27.77373">
        <ele>72.13</ele>
      </trkpt>
      <trkpt lat="37.19609" lon="27.77377">
        <ele>72.797</ele>
      </trkpt>
      <trkpt lat="37.19613" lon="27.7738">
        <ele>72.882</ele>
      </trkpt>
      <trkpt lat="37.19618" lon="27.77387">
        <ele>72.754</ele>
      </trkpt>
      <trkpt lat="37.19619" lon="27.77388">
        <ele>72.801</ele>
      </trkpt>
      <trkpt lat="37.19626" lon="27.77392">
        <ele>73.887</ele>
      </trkpt>
      <trkpt lat="37.19632" lon="27.77398">
        <ele>74.035</ele>
      </trkpt>
      <trkpt lat="37.19634" lon="27.774">
        <ele>74.161</ele>
      </trkpt>
      <trkpt lat="37.1964" lon="27.77408">
        <ele>73.747</ele>
      </trkpt>
      <trkpt lat="37.19647" lon="27.77416">
        <ele>74.537</ele>
      </trkpt>
      <trkpt lat="37.19652" lon="27.77421">
        <ele>75.341</ele>
      </trkpt>
      <trkpt lat="37.19658" lon="27.77436">
        <ele>74.877</ele>
      </trkpt>
      <trkpt lat="37.19664" lon="27.77439">
        <ele>75.512</ele>
      </trkpt>
      <trkpt lat="37.19669" lon="27.77443">
        <ele>76.13</ele>
      </trkpt>
      <trkpt lat="37.19671" lon="27.77451">
        <ele>76.376</ele>
      </trkpt>
      <trkpt lat="37.19676" lon="27.77461">
        <ele>76.922</ele>
      </trkpt>
      <trkpt lat="37.19678" lon="27.77469">
        <ele>76.966</ele>
      </trkpt>
      <trkpt lat="37.19685" lon="27.77474">
        <ele>78.617</ele>
      </trkpt>
      <trkpt lat="37.19692" lon="27.77478">
        <ele>80.007</ele>
      </trkpt>
      <trkpt lat="37.19694" lon="27.77485">
        <ele>79.059</ele>
      </trkpt>
      <trkpt lat="37.19696" lon="27.77496">
        <ele>77.473</ele>
      </trkpt>
      <trkpt lat="37.197" lon="27.77506">
        <ele>77.335</ele>
      </trkpt>
      <trkpt lat="37.19705" lon="27.77518">
        <ele>77.385</ele>
      </trkpt>
      <trkpt lat="37.1971" lon="27.77522">
        <ele>78.182</ele>
      </trkpt>
      <trkpt lat="37.19713" lon="27.7753">
        <ele>78.188</ele>
      </trkpt>
      <trkpt lat="37.19714" lon="27.77541">
        <ele>77.957</ele>
      </trkpt>
      <trkpt lat="37.19716" lon="27.77548">
        <ele>77.981</ele>
      </trkpt>
      <trkpt lat="37.19719" lon="27.77557">
        <ele>78.5</ele>
      </trkpt>
      <trkpt lat="37.1972" lon="27.77565">
        <ele>79.386</ele>
      </trkpt>
      <trkpt lat="37.19722" lon="27.7758">
        <ele>81.541</ele>
      </trkpt>
      <trkpt lat="37.19724" lon="27.77585">
        <ele>82.767</ele>
      </trkpt>
      <trkpt lat="37.19723" lon="27.77595">
        <ele>83.294</ele>
      </trkpt>
      <trkpt lat="37.19721" lon="27.77606">
        <ele>83.306</ele>
      </trkpt>
      <trkpt lat="37.19723" lon="27.77621">
        <ele>84.429</ele>
      </trkpt>
      <trkpt lat="37.19723" lon="27.77636">
        <ele>84.35</ele>
      </trkpt>
      <trkpt lat="37.19723" lon="27.77647">
        <ele>83.5</ele>
      </trkpt>
      <trkpt lat="37.19722" lon="27.77657">
        <ele>82.118</ele>
      </trkpt>
      <trkpt lat="37.19724" lon="27.77667">
        <ele>81.545</ele>
      </trkpt>
      <trkpt lat="37.19725" lon="27.77681">
        <ele>80.941</ele>
      </trkpt>
      <trkpt lat="37.19726" lon="27.77691">
        <ele>80.34</ele>
      </trkpt>
      <trkpt lat="37.19727" lon="27.77701">
        <ele>80.472</ele>
      </trkpt>
      <trkpt lat="37.19727" lon="27.77711">
        <ele>80.458</ele>
      </trkpt>
      <trkpt lat="37.19726" lon="27.7772">
        <ele>80.223</ele>
      </trkpt>
      <trkpt lat="37.19724" lon="27.77733">
        <ele>79.644</ele>
      </trkpt>
      <trkpt lat="37.19722" lon="27.77745">
        <ele>79.013</ele>
      </trkpt>
      <trkpt lat="37.19722" lon="27.77751">
        <ele>79.118</ele>
      </trkpt>
      <trkpt lat="37.19722" lon="27.77751">
        <ele>79.082</ele>
      </trkpt>
      <trkpt lat="37.19724" lon="27.77758">
        <ele>80.03</ele>
      </trkpt>
      <trkpt lat="37.19723" lon="27.77762">
        <ele>79.995</ele>
      </trkpt>
      <trkpt lat="37.19715" lon="27.77769">
        <ele>79.683</ele>
      </trkpt>
      <trkpt lat="37.19721" lon="27.7777">
        <ele>80.375</ele>
      </trkpt>
      <trkpt lat="37.1972" lon="27.77769">
        <ele>80.199</ele>
      </trkpt>
      <trkpt lat="37.1972" lon="27.7777">
        <ele>80.207</ele>
      </trkpt>
      <trkpt lat="37.19721" lon="27.77773">
        <ele>80.555</ele>
      </trkpt>
      <trkpt lat="37.1972" lon="27.77777">
        <ele>80.837</ele>
      </trkpt>
      <trkpt lat="37.1972" lon="27.77785">
        <ele>82.434</ele>
      </trkpt>
      <trkpt lat="37.1972" lon="27.77788">
        <ele>83.102</ele>
      </trkpt>
      <trkpt lat="37.19719" lon="27.77797">
        <ele>85.253</ele>
      </trkpt>
      <trkpt lat="37.19716" lon="27.7781">
        <ele>86.893</ele>
      </trkpt>
      <trkpt lat="37.19714" lon="27.77815">
        <ele>87.18</ele>
      </trkpt>
      <trkpt lat="37.19714" lon="27.77809">
        <ele>86.107</ele>
      </trkpt>
      <trkpt lat="37.19714" lon="27.7781">
        <ele>86.435</ele>
      </trkpt>
      <trkpt lat="37.19714" lon="27.77817">
        <ele>87.595</ele>
      </trkpt>
      <trkpt lat="37.19716" lon="27.77824">
        <ele>89.405</ele>
      </trkpt>
      <trkpt lat="37.19718" lon="27.77829">
        <ele>90.667</ele>
      </trkpt>
      <trkpt lat="37.19718" lon="27.7784">
        <ele>91.47</ele>
      </trkpt>
      <trkpt lat="37.19717" lon="27.77847">
        <ele>91.538</ele>
      </trkpt>
      <trkpt lat="37.19718" lon="27.77849">
        <ele>91.736</ele>
      </trkpt>
      <trkpt lat="37.19717" lon="27.77851">
        <ele>91.692</ele>
      </trkpt>
      <trkpt lat="37.19713" lon="27.77861">
        <ele>91.358</ele>
      </trkpt>
      <trkpt lat="37.19712" lon="27.77874">
        <ele>90.721</ele>
      </trkpt>
      <trkpt lat="37.19711" lon="27.77882">
        <ele>90.128</ele>
      </trkpt>
      <trkpt lat="37.19709" lon="27.77887">
        <ele>89.179</ele>
      </trkpt>
      <trkpt lat="37.19708" lon="27.77891">
        <ele>88.671</ele>
      </trkpt>
      <trkpt lat="37.19707" lon="27.77896">
        <ele>87.719</ele>
      </trkpt>
      <trkpt lat="37.19704" lon="27.77899">
        <ele>86.675</ele>
      </trkpt>
      <trkpt lat="37.19701" lon="27.77904">
        <ele>85.333</ele>
      </trkpt>
      <trkpt lat="37.19701" lon="27.77911">
        <ele>84.472</ele>
      </trkpt>
      <trkpt lat="37.19702" lon="27.77916">
        <ele>84.184</ele>
      </trkpt>
      <trkpt lat="37.19701" lon="27.77924">
        <ele>83.768</ele>
      </trkpt>
      <trkpt lat="37.19701" lon="27.7793">
        <ele>83.382</ele>
      </trkpt>
      <trkpt lat="37.19702" lon="27.77935">
        <ele>83.576</ele>
      </trkpt>
      <trkpt lat="37.19699" lon="27.77941">
        <ele>82.653</ele>
      </trkpt>
      <trkpt lat="37.19697" lon="27.77948">
        <ele>81.936</ele>
      </trkpt>
      <trkpt lat="37.19698" lon="27.77949">
        <ele>82.292</ele>
      </trkpt>
      <trkpt lat="37.19698" lon="27.77954">
        <ele>82.39</ele>
      </trkpt>
      <trkpt lat="37.19697" lon="27.77959">
        <ele>82.48</ele>
      </trkpt>
      <trkpt lat="37.19695" lon="27.77965">
        <ele>81.927</ele>
      </trkpt>
      <trkpt lat="37.19696" lon="27.77972">
        <ele>82.361</ele>
      </trkpt>
      <trkpt lat="37.19696" lon="27.77974">
        <ele>82.69</ele>
      </trkpt>
      <trkpt lat="37.19695" lon="27.77978">
        <ele>83.034</ele>
      </trkpt>
      <trkpt lat="37.19694" lon="27.77982">
        <ele>83.412</ele>
      </trkpt>
      <trkpt lat="37.19693" lon="27.7799">
        <ele>84.329</ele>
      </trkpt>
      <trkpt lat="37.19693" lon="27.77997">
        <ele>85.317</ele>
      </trkpt>
      <trkpt lat="37.19691" lon="27.78004">
        <ele>85.931</ele>
      </trkpt>
      <trkpt lat="37.19691" lon="27.7801">
        <ele>86.768</ele>
      </trkpt>
      <trkpt lat="37.19689" lon="27.7802">
        <ele>87.57</ele>
      </trkpt>
      <trkpt lat="37.19688" lon="27.78026">
        <ele>88.01</ele>
      </trkpt>
      <trkpt lat="37.19686" lon="27.78033">
        <ele>88.432</ele>
      </trkpt>
      <trkpt lat="37.19683" lon="27.78045">
        <ele>89.404</ele>
      </trkpt>
      <trkpt lat="37.19681" lon="27.78056">
        <ele>90.049</ele>
      </trkpt>
      <trkpt lat="37.19677" lon="27.78063">
        <ele>89.61</ele>
      </trkpt>
      <trkpt lat="37.19675" lon="27.78072">
        <ele>89.91</ele>
      </trkpt>
      <trkpt lat="37.19672" lon="27.78081">
        <ele>89.983</ele>
      </trkpt>
      <trkpt lat="37.19669" lon="27.78086">
        <ele>89.432</ele>
      </trkpt>
      <trkpt lat="37.19667" lon="27.78094">
        <ele>88.571</ele>
      </trkpt>
      <trkpt lat="37.19661" lon="27.781">
        <ele>86.741</ele>
      </trkpt>
      <trkpt lat="37.19659" lon="27.78106">
        <ele>85.656</ele>
      </trkpt>
      <trkpt lat="37.19654" lon="27.78115">
        <ele>83.684</ele>
      </trkpt>
      <trkpt lat="37.1965" lon="27.78126">
        <ele>81.765</ele>
      </trkpt>
      <trkpt lat="37.19649" lon="27.78127">
        <ele>81.582</ele>
      </trkpt>
      <trkpt lat="37.19647" lon="27.78134">
        <ele>80.412</ele>
      </trkpt>
      <trkpt lat="37.19642" lon="27.78139">
        <ele>78.959</ele>
      </trkpt>
      <trkpt lat="37.19642" lon="27.78142">
        <ele>78.966</ele>
      </trkpt>
      <trkpt lat="37.19642" lon="27.78148">
        <ele>79.421</ele>
      </trkpt>
      <trkpt lat="37.19638" lon="27.78154">
        <ele>78.886</ele>
      </trkpt>
      <trkpt lat="37.19636" lon="27.78157">
        <ele>78.761</ele>
      </trkpt>
      <trkpt lat="37.19632" lon="27.78158">
        <ele>77.954</ele>
      </trkpt>
      <trkpt lat="37.19627" lon="27.78159">
        <ele>77.179</ele>
      </trkpt>
      <trkpt lat="37.19622" lon="27.78158">
        <ele>76.151</ele>
      </trkpt>
      <trkpt lat="37.19618" lon="27.7816">
        <ele>75.358</ele>
      </trkpt>
      <trkpt lat="37.19619" lon="27.7816">
        <ele>75.522</ele>
      </trkpt>
      <trkpt lat="37.19618" lon="27.78162">
        <ele>75.391</ele>
      </trkpt>
      <trkpt lat="37.19615" lon="27.7817">
        <ele>75.065</ele>
      </trkpt>
      <trkpt lat="37.19612" lon="27.78181">
        <ele>75.193</ele>
      </trkpt>
      <trkpt lat="37.19609" lon="27.78189">
        <ele>75.483</ele>
      </trkpt>
      <trkpt lat="37.19605" lon="27.78195">
        <ele>75.791</ele>
      </trkpt>
      <trkpt lat="37.19599" lon="27.78198">
        <ele>75.88</ele>
      </trkpt>
      <trkpt lat="37.19597" lon="27.782">
        <ele>75.987</ele>
      </trkpt>
      <trkpt lat="37.19597" lon="27.78201">
        <ele>76.048</ele>
      </trkpt>
      <trkpt lat="37.19595" lon="27.78203">
        <ele>76.153</ele>
      </trkpt>
      <trkpt lat="37.19591" lon="27.78212">
        <ele>76.729</ele>
      </trkpt>
      <trkpt lat="37.19587" lon="27.78222">
        <ele>77.228</ele>
      </trkpt>
      <trkpt lat="37.19586" lon="27.78225">
        <ele>77.204</ele>
      </trkpt>
      <trkpt lat="37.19583" lon="27.78236">
        <ele>77.015</ele>
      </trkpt>
      <trkpt lat="37.19583" lon="27.78243">
        <ele>77.005</ele>
      </trkpt>
      <trkpt lat="37.19583" lon="27.78256">
        <ele>77.57</ele>
      </trkpt>
      <trkpt lat="37.19582" lon="27.78268">
        <ele>78.815</ele>
      </trkpt>
      <trkpt lat="37.19583" lon="27.78276">
        <ele>79.784</ele>
      </trkpt>
      <trkpt lat="37.19586" lon="27.78283">
        <ele>80.979</ele>
      </trkpt>
      <trkpt lat="37.19586" lon="27.78287">
        <ele>81.391</ele>
      </trkpt>
      <trkpt lat="37.19588" lon="27.78289">
        <ele>82.235</ele>
      </trkpt>
      <trkpt lat="37.19587" lon="27.78287">
        <ele>81.569</ele>
      </trkpt>
      <trkpt lat="37.19591" lon="27.78293">
        <ele>83.145</ele>
      </trkpt>
      <trkpt lat="37.19596" lon="27.783">
        <ele>85.305</ele>
      </trkpt>
      <trkpt lat="37.19602" lon="27.78303">
        <ele>87.435</ele>
      </trkpt>
      <trkpt lat="37.19604" lon="27.78306">
        <ele>88.353</ele>
      </trkpt>
      <trkpt lat="37.19613" lon="27.78317">
        <ele>91.64</ele>
      </trkpt>
      <trkpt lat="37.1962" lon="27.78328">
        <ele>94.306</ele>
      </trkpt>
      <trkpt lat="37.19628" lon="27.78337">
        <ele>98.199</ele>
      </trkpt>
      <trkpt lat="37.19629" lon="27.78345">
        <ele>98.413</ele>
      </trkpt>
      <trkpt lat="37.1963" lon="27.78354">
        <ele>98.568</ele>
      </trkpt>
      <trkpt lat="37.19627" lon="27.7836">
        <ele>97.22</ele>
      </trkpt>
      <trkpt lat="37.19628" lon="27.78365">
        <ele>97.6</ele>
      </trkpt>
      <trkpt lat="37.19627" lon="27.78372">
        <ele>96.923</ele>
      </trkpt>
      <trkpt lat="37.19627" lon="27.78378">
        <ele>96.466</ele>
      </trkpt>
      <trkpt lat="37.19629" lon="27.78385">
        <ele>97.22</ele>
      </trkpt>
      <trkpt lat="37.19628" lon="27.78391">
        <ele>97.111</ele>
      </trkpt>
      <trkpt lat="37.1963" lon="27.78404">
        <ele>99.182</ele>
      </trkpt>
      <trkpt lat="37.19633" lon="27.78412">
        <ele>101.076</ele>
      </trkpt>
      <trkpt lat="37.19635" lon="27.78417">
        <ele>102.241</ele>
      </trkpt>
      <trkpt lat="37.19633" lon="27.7842">
        <ele>101.638</ele>
      </trkpt>
      <trkpt lat="37.19629" lon="27.7843">
        <ele>100.944</ele>
      </trkpt>
      <trkpt lat="37.19624" lon="27.78438">
        <ele>99.708</ele>
      </trkpt>
      <trkpt lat="37.19622" lon="27.78443">
        <ele>99.258</ele>
      </trkpt>
      <trkpt lat="37.19621" lon="27.78446">
        <ele>98.815</ele>
      </trkpt>
      <trkpt lat="37.19619" lon="27.78455">
        <ele>98.042</ele>
      </trkpt>
      <trkpt lat="37.19614" lon="27.78464">
        <ele>96.143</ele>
      </trkpt>
      <trkpt lat="37.19609" lon="27.78467">
        <ele>94.232</ele>
      </trkpt>
      <trkpt lat="37.19606" lon="27.78472">
        <ele>92.899</ele>
      </trkpt>
      <trkpt lat="37.19603" lon="27.78476">
        <ele>91.744</ele>
      </trkpt>
      <trkpt lat="37.19598" lon="27.78484">
        <ele>89.926</ele>
      </trkpt>
      <trkpt lat="37.19596" lon="27.78488">
        <ele>89.21</ele>
      </trkpt>
      <trkpt lat="37.19594" lon="27.78493">
        <ele>88.585</ele>
      </trkpt>
      <trkpt lat="37.19588" lon="27.785">
        <ele>86.376</ele>
      </trkpt>
      <trkpt lat="37.19583" lon="27.78506">
        <ele>85.38</ele>
      </trkpt>
      <trkpt lat="37.19579" lon="27.7851">
        <ele>85.402</ele>
      </trkpt>
      <trkpt lat="37.19574" lon="27.78516">
        <ele>85.473</ele>
      </trkpt>
      <trkpt lat="37.19574" lon="27.78517">
        <ele>85.535</ele>
      </trkpt>
      <trkpt lat="37.19568" lon="27.78523">
        <ele>84.728</ele>
      </trkpt>
      <trkpt lat="37.19559" lon="27.78528">
        <ele>82.473</ele>
      </trkpt>
      <trkpt lat="37.19558" lon="27.78528">
        <ele>81.945</ele>
      </trkpt>
      <trkpt lat="37.19551" lon="27.78528">
        <ele>80.845</ele>
      </trkpt>
      <trkpt lat="37.19555" lon="27.7853">
        <ele>81.474</ele>
      </trkpt>
      <trkpt lat="37.1956" lon="27.78531">
        <ele>83.453</ele>
      </trkpt>
      <trkpt lat="37.19558" lon="27.78532">
        <ele>82.813</ele>
      </trkpt>
      <trkpt lat="37.19555" lon="27.78536">
        <ele>83.198</ele>
      </trkpt>
      <trkpt lat="37.1955" lon="27.78539">
        <ele>83.541</ele>
      </trkpt>
      <trkpt lat="37.19546" lon="27.78546">
        <ele>84.689</ele>
      </trkpt>
      <trkpt lat="37.19539" lon="27.78549">
        <ele>84.59</ele>
      </trkpt>
      <trkpt lat="37.19539" lon="27.78549">
        <ele>84.457</ele>
      </trkpt>
      <trkpt lat="37.19543" lon="27.78544">
        <ele>84.018</ele>
      </trkpt>
      <trkpt lat="37.19543" lon="27.78546">
        <ele>84.282</ele>
      </trkpt>
      <trkpt lat="37.19538" lon="27.78548">
        <ele>84.146</ele>
      </trkpt>
      <trkpt lat="37.19538" lon="27.78549">
        <ele>84.425</ele>
      </trkpt>
      <trkpt lat="37.19529" lon="27.78557">
        <ele>84.556</ele>
      </trkpt>
      <trkpt lat="37.19525" lon="27.78564">
        <ele>84.885</ele>
      </trkpt>
      <trkpt lat="37.19524" lon="27.78567">
        <ele>85.09</ele>
      </trkpt>
      <trkpt lat="37.19519" lon="27.78566">
        <ele>83.965</ele>
      </trkpt>
      <trkpt lat="37.19523" lon="27.78562">
        <ele>84.027</ele>
      </trkpt>
      <trkpt lat="37.19523" lon="27.78561">
        <ele>84.003</ele>
      </trkpt>
      <trkpt lat="37.19523" lon="27.78554">
        <ele>82.726</ele>
      </trkpt>
      <trkpt lat="37.19522" lon="27.78554">
        <ele>82.468</ele>
      </trkpt>
      <trkpt lat="37.19521" lon="27.78551">
        <ele>81.935</ele>
      </trkpt>
      <trkpt lat="37.19522" lon="27.78552">
        <ele>82.325</ele>
      </trkpt>
      <trkpt lat="37.19521" lon="27.78554">
        <ele>82.281</ele>
      </trkpt>
      <trkpt lat="37.19519" lon="27.78554">
        <ele>81.984</ele>
      </trkpt>
      <trkpt lat="37.19515" lon="27.78553">
        <ele>81.159</ele>
      </trkpt>
      <trkpt lat="37.19515" lon="27.78554">
        <ele>81.205</ele>
      </trkpt>
      <trkpt lat="37.19514" lon="27.78554">
        <ele>81.019</ele>
      </trkpt>
      <trkpt lat="37.19518" lon="27.78554">
        <ele>81.656</ele>
      </trkpt>
      <trkpt lat="37.19518" lon="27.78555">
        <ele>81.839</ele>
      </trkpt>
      <trkpt lat="37.19518" lon="27.78554">
        <ele>81.726</ele>
      </trkpt>
      <trkpt lat="37.19519" lon="27.78553">
        <ele>81.795</ele>
      </trkpt>
      <trkpt lat="37.19518" lon="27.78553">
        <ele>81.61</ele>
      </trkpt>
      <trkpt lat="37.19514" lon="27.78549">
        <ele>80.596</ele>
      </trkpt>
      <trkpt lat="37.19515" lon="27.7855">
        <ele>80.761</ele>
      </trkpt>
      <trkpt lat="37.19513" lon="27.78551">
        <ele>80.572</ele>
      </trkpt>
      <trkpt lat="37.19504" lon="27.78574">
        <ele>81.486</ele>
      </trkpt>
      <trkpt lat="37.19497" lon="27.78581">
        <ele>81.174</ele>
      </trkpt>
      <trkpt lat="37.19489" lon="27.78588">
        <ele>81.277</ele>
      </trkpt>
      <trkpt lat="37.19482" lon="27.78595">
        <ele>81.254</ele>
      </trkpt>
      <trkpt lat="37.19479" lon="27.78598">
        <ele>81.073</ele>
      </trkpt>
      <trkpt lat="37.19479" lon="27.78599">
        <ele>81.204</ele>
      </trkpt>
      <trkpt lat="37.19477" lon="27.78596">
        <ele>80.319</ele>
      </trkpt>
      <trkpt lat="37.19471" lon="27.78604">
        <ele>80.139</ele>
      </trkpt>
      <trkpt lat="37.19464" lon="27.7861">
        <ele>80.052</ele>
      </trkpt>
      <trkpt lat="37.1946" lon="27.78612">
        <ele>79.787</ele>
      </trkpt>
      <trkpt lat="37.19458" lon="27.78614">
        <ele>79.965</ele>
      </trkpt>
      <trkpt lat="37.19451" lon="27.7862">
        <ele>80.059</ele>
      </trkpt>
      <trkpt lat="37.19447" lon="27.78624">
        <ele>80.112</ele>
      </trkpt>
      <trkpt lat="37.1944" lon="27.7863">
        <ele>80.668</ele>
      </trkpt>
      <trkpt lat="37.19433" lon="27.78636">
        <ele>81.261</ele>
      </trkpt>
      <trkpt lat="37.19431" lon="27.78643">
        <ele>82.318</ele>
      </trkpt>
      <trkpt lat="37.19429" lon="27.78643">
        <ele>82.108</ele>
      </trkpt>
      <trkpt lat="37.19428" lon="27.78643">
        <ele>82.072</ele>
      </trkpt>
      <trkpt lat="37.19425" lon="27.78641">
        <ele>81.713</ele>
      </trkpt>
      <trkpt lat="37.19418" lon="27.78646">
        <ele>82.535</ele>
      </trkpt>
      <trkpt lat="37.19414" lon="27.78648">
        <ele>83.143</ele>
      </trkpt>
      <trkpt lat="37.19406" lon="27.78656">
        <ele>84.781</ele>
      </trkpt>
      <trkpt lat="37.19401" lon="27.7866">
        <ele>85.446</ele>
      </trkpt>
      <trkpt lat="37.19397" lon="27.78666">
        <ele>86.135</ele>
      </trkpt>
      <trkpt lat="37.19389" lon="27.7867">
        <ele>86.522</ele>
      </trkpt>
      <trkpt lat="37.19384" lon="27.78675">
        <ele>86.768</ele>
      </trkpt>
      <trkpt lat="37.19379" lon="27.78677">
        <ele>86.73</ele>
      </trkpt>
      <trkpt lat="37.19373" lon="27.78683">
        <ele>86.729</ele>
      </trkpt>
      <trkpt lat="37.19365" lon="27.78687">
        <ele>86.121</ele>
      </trkpt>
      <trkpt lat="37.19359" lon="27.78689">
        <ele>85.694</ele>
      </trkpt>
      <trkpt lat="37.19354" lon="27.78692">
        <ele>85.314</ele>
      </trkpt>
      <trkpt lat="37.19352" lon="27.78699">
        <ele>85.512</ele>
      </trkpt>
      <trkpt lat="37.19355" lon="27.78712">
        <ele>87.405</ele>
      </trkpt>
      <trkpt lat="37.19354" lon="27.78716">
        <ele>87.725</ele>
      </trkpt>
      <trkpt lat="37.19348" lon="27.78714">
        <ele>86.447</ele>
      </trkpt>
      <trkpt lat="37.19346" lon="27.78719">
        <ele>86.401</ele>
      </trkpt>
      <trkpt lat="37.19339" lon="27.78726">
        <ele>86.108</ele>
      </trkpt>
      <trkpt lat="37.19338" lon="27.78728">
        <ele>86.413</ele>
      </trkpt>
      <trkpt lat="37.19331" lon="27.78734">
        <ele>86.431</ele>
      </trkpt>
      <trkpt lat="37.19324" lon="27.78737">
        <ele>86.177</ele>
      </trkpt>
      <trkpt lat="37.19322" lon="27.78738">
        <ele>86.093</ele>
      </trkpt>
      <trkpt lat="37.19319" lon="27.78742">
        <ele>86.295</ele>
      </trkpt>
      <trkpt lat="37.19307" lon="27.78749">
        <ele>85.237</ele>
      </trkpt>
      <trkpt lat="37.19307" lon="27.7875">
        <ele>85.212</ele>
      </trkpt>
      <trkpt lat="37.19302" lon="27.78754">
        <ele>85.534</ele>
      </trkpt>
      <trkpt lat="37.19296" lon="27.78752">
        <ele>85.187</ele>
      </trkpt>
      <trkpt lat="37.19295" lon="27.78749">
        <ele>84.913</ele>
      </trkpt>
      <trkpt lat="37.19294" lon="27.78746">
        <ele>84.553</ele>
      </trkpt>
      <trkpt lat="37.19291" lon="27.78741">
        <ele>84.164</ele>
      </trkpt>
      <trkpt lat="37.19288" lon="27.78736">
        <ele>83.959</ele>
      </trkpt>
      <trkpt lat="37.19285" lon="27.78739">
        <ele>84.301</ele>
      </trkpt>
      <trkpt lat="37.19284" lon="27.78743">
        <ele>84.609</ele>
      </trkpt>
      <trkpt lat="37.19279" lon="27.7875">
        <ele>84.996</ele>
      </trkpt>
      <trkpt lat="37.19274" lon="27.78756">
        <ele>85.225</ele>
      </trkpt>
      <trkpt lat="37.19272" lon="27.7876">
        <ele>85.255</ele>
      </trkpt>
      <trkpt lat="37.19268" lon="27.78766">
        <ele>85.243</ele>
      </trkpt>
      <trkpt lat="37.19263" lon="27.78769">
        <ele>85.365</ele>
      </trkpt>
      <trkpt lat="37.19254" lon="27.78774">
        <ele>85.367</ele>
      </trkpt>
      <trkpt lat="37.19254" lon="27.78778">
        <ele>84.832</ele>
      </trkpt>
      <trkpt lat="37.19254" lon="27.7878">
        <ele>84.767</ele>
      </trkpt>
      <trkpt lat="37.19262" lon="27.78787">
        <ele>84.481</ele>
      </trkpt>
      <trkpt lat="37.19262" lon="27.7879">
        <ele>84.447</ele>
      </trkpt>
      <trkpt lat="37.19261" lon="27.7879">
        <ele>84.422</ele>
      </trkpt>
      <trkpt lat="37.19263" lon="27.78796">
        <ele>84.418</ele>
      </trkpt>
      <trkpt lat="37.19269" lon="27.78804">
        <ele>84.989</ele>
      </trkpt>
      <trkpt lat="37.19272" lon="27.78804">
        <ele>85.345</ele>
      </trkpt>
      <trkpt lat="37.19273" lon="27.78801">
        <ele>85.247</ele>
      </trkpt>
      <trkpt lat="37.19272" lon="27.78803">
        <ele>85.254</ele>
      </trkpt>
      <trkpt lat="37.19268" lon="27.78807">
        <ele>85.164</ele>
      </trkpt>
      <trkpt lat="37.19266" lon="27.7881">
        <ele>85.304</ele>
      </trkpt>
      <trkpt lat="37.1926" lon="27.78819">
        <ele>85.423</ele>
      </trkpt>
      <trkpt lat="37.19261" lon="27.78823">
        <ele>85.885</ele>
      </trkpt>
      <trkpt lat="37.1926" lon="27.78825">
        <ele>85.941</ele>
      </trkpt>
      <trkpt lat="37.19258" lon="27.78835">
        <ele>86.585</ele>
      </trkpt>
      <trkpt lat="37.19255" lon="27.78843">
        <ele>86.769</ele>
      </trkpt>
      <trkpt lat="37.19254" lon="27.78851">
        <ele>87.224</ele>
      </trkpt>
      <trkpt lat="37.19251" lon="27.78859">
        <ele>87.01</ele>
      </trkpt>
      <trkpt lat="37.1925" lon="27.78865">
        <ele>87.431</ele>
      </trkpt>
      <trkpt lat="37.19247" lon="27.78872">
        <ele>87.976</ele>
      </trkpt>
      <trkpt lat="37.19246" lon="27.78876">
        <ele>88.201</ele>
      </trkpt>
      <trkpt lat="37.19246" lon="27.78886">
        <ele>89.076</ele>
      </trkpt>
      <trkpt lat="37.19244" lon="27.78892">
        <ele>89.817</ele>
      </trkpt>
      <trkpt lat="37.19239" lon="27.78901">
        <ele>90.53</ele>
      </trkpt>
      <trkpt lat="37.19234" lon="27.78907">
        <ele>90.331</ele>
      </trkpt>
      <trkpt lat="37.19228" lon="27.78913">
        <ele>89.548</ele>
      </trkpt>
      <trkpt lat="37.19223" lon="27.78923">
        <ele>88.104</ele>
      </trkpt>
      <trkpt lat="37.19222" lon="27.78928">
        <ele>88.055</ele>
      </trkpt>
      <trkpt lat="37.19223" lon="27.78934">
        <ele>88.155</ele>
      </trkpt>
      <trkpt lat="37.19224" lon="27.78945">
        <ele>88.469</ele>
      </trkpt>
      <trkpt lat="37.19222" lon="27.78955">
        <ele>87.849</ele>
      </trkpt>
      <trkpt lat="37.1922" lon="27.78965">
        <ele>87.368</ele>
      </trkpt>
      <trkpt lat="37.19219" lon="27.78966">
        <ele>87.215</ele>
      </trkpt>
      <trkpt lat="37.19219" lon="27.78975">
        <ele>87.067</ele>
      </trkpt>
      <trkpt lat="37.19219" lon="27.78977">
        <ele>87.132</ele>
      </trkpt>
      <trkpt lat="37.1922" lon="27.78986">
        <ele>87.32</ele>
      </trkpt>
      <trkpt lat="37.19219" lon="27.78992">
        <ele>87.293</ele>
      </trkpt>
      <trkpt lat="37.19218" lon="27.79001">
        <ele>86.811</ele>
      </trkpt>
      <trkpt lat="37.19221" lon="27.79012">
        <ele>87.334</ele>
      </trkpt>
      <trkpt lat="37.19221" lon="27.79018">
        <ele>87.126</ele>
      </trkpt>
      <trkpt lat="37.1922" lon="27.79026">
        <ele>86.523</ele>
      </trkpt>
      <trkpt lat="37.19218" lon="27.79038">
        <ele>85.696</ele>
      </trkpt>
      <trkpt lat="37.19217" lon="27.7905">
        <ele>85.151</ele>
      </trkpt>
      <trkpt lat="37.19215" lon="27.7906">
        <ele>84.712</ele>
      </trkpt>
      <trkpt lat="37.1921" lon="27.79071">
        <ele>83.722</ele>
      </trkpt>
      <trkpt lat="37.19204" lon="27.79072">
        <ele>82.651</ele>
      </trkpt>
      <trkpt lat="37.19191" lon="27.79081">
        <ele>80.875</ele>
      </trkpt>
      <trkpt lat="37.19188" lon="27.79083">
        <ele>80.766</ele>
      </trkpt>
      <trkpt lat="37.19182" lon="27.7909">
        <ele>81.242</ele>
      </trkpt>
      <trkpt lat="37.19177" lon="27.79094">
        <ele>81.437</ele>
      </trkpt>
      <trkpt lat="37.19176" lon="27.79096">
        <ele>81.484</ele>
      </trkpt>
      <trkpt lat="37.19173" lon="27.79102">
        <ele>81.913</ele>
      </trkpt>
      <trkpt lat="37.19171" lon="27.79104">
        <ele>81.93</ele>
      </trkpt>
      <trkpt lat="37.19169" lon="27.79107">
        <ele>81.918</ele>
      </trkpt>
      <trkpt lat="37.19168" lon="27.79109">
        <ele>81.987</ele>
      </trkpt>
      <trkpt lat="37.19164" lon="27.79117">
        <ele>82.579</ele>
      </trkpt>
      <trkpt lat="37.19157" lon="27.79127">
        <ele>83.066</ele>
      </trkpt>
      <trkpt lat="37.1915" lon="27.79133">
        <ele>82.926</ele>
      </trkpt>
      <trkpt lat="37.19151" lon="27.79134">
        <ele>83.067</ele>
      </trkpt>
      <trkpt lat="37.19149" lon="27.79137">
        <ele>83.004</ele>
      </trkpt>
      <trkpt lat="37.1915" lon="27.7914">
        <ele>83.18</ele>
      </trkpt>
      <trkpt lat="37.19151" lon="27.79138">
        <ele>83.291</ele>
      </trkpt>
      <trkpt lat="37.19153" lon="27.79136">
        <ele>83.393</ele>
      </trkpt>
      <trkpt lat="37.19152" lon="27.79137">
        <ele>83.282</ele>
      </trkpt>
      <trkpt lat="37.19148" lon="27.79144">
        <ele>83.041</ele>
      </trkpt>
      <trkpt lat="37.19146" lon="27.79149">
        <ele>82.992</ele>
      </trkpt>
      <trkpt lat="37.19146" lon="27.79154">
        <ele>83.04</ele>
      </trkpt>
      <trkpt lat="37.19144" lon="27.79157">
        <ele>82.735</ele>
      </trkpt>
      <trkpt lat="37.19144" lon="27.79157">
        <ele>82.778</ele>
      </trkpt>
      <trkpt lat="37.19142" lon="27.79157">
        <ele>82.526</ele>
      </trkpt>
      <trkpt lat="37.1915" lon="27.79173">
        <ele>84.001</ele>
      </trkpt>
      <trkpt lat="37.19163" lon="27.79203">
        <ele>86.936</ele>
      </trkpt>
      <trkpt lat="37.19173" lon="27.79224">
        <ele>88.277</ele>
      </trkpt>
      <trkpt lat="37.19174" lon="27.79223">
        <ele>88.475</ele>
      </trkpt>
      <trkpt lat="37.19177" lon="27.79227">
        <ele>89.175</ele>
      </trkpt>
      <trkpt lat="37.19183" lon="27.79235">
        <ele>90.264</ele>
      </trkpt>
      <trkpt lat="37.19186" lon="27.79239">
        <ele>90.652</ele>
      </trkpt>
      <trkpt lat="37.19188" lon="27.79242">
        <ele>91.036</ele>
      </trkpt>
      <trkpt lat="37.19194" lon="27.7925">
        <ele>91.86</ele>
      </trkpt>
      <trkpt lat="37.19195" lon="27.79251">
        <ele>91.982</ele>
      </trkpt>
      <trkpt lat="37.19195" lon="27.79253">
        <ele>91.935</ele>
      </trkpt>
      <trkpt lat="37.1919" lon="27.79251">
        <ele>91.243</ele>
      </trkpt>
      <trkpt lat="37.19192" lon="27.79251">
        <ele>91.458</ele>
      </trkpt>
      <trkpt lat="37.19199" lon="27.79255">
        <ele>92.149</ele>
      </trkpt>
      <trkpt lat="37.19201" lon="27.79259">
        <ele>92.215</ele>
      </trkpt>
      <trkpt lat="37.19201" lon="27.79262">
        <ele>92.139</ele>
      </trkpt>
      <trkpt lat="37.192" lon="27.79266">
        <ele>91.958</ele>
      </trkpt>
      <trkpt lat="37.19199" lon="27.79276">
        <ele>91.58</ele>
      </trkpt>
      <trkpt lat="37.19198" lon="27.79279">
        <ele>91.454</ele>
      </trkpt>
      <trkpt lat="37.19197" lon="27.79283">
        <ele>91.592</ele>
      </trkpt>
      <trkpt lat="37.19194" lon="27.79287">
        <ele>91.546</ele>
      </trkpt>
      <trkpt lat="37.19189" lon="27.79291">
        <ele>91.405</ele>
      </trkpt>
      <trkpt lat="37.19185" lon="27.79298">
        <ele>91.425</ele>
      </trkpt>
      <trkpt lat="37.19178" lon="27.79303">
        <ele>91.008</ele>
      </trkpt>
      <trkpt lat="37.19174" lon="27.79304">
        <ele>90.703</ele>
      </trkpt>
      <trkpt lat="37.19166" lon="27.79306">
        <ele>89.923</ele>
      </trkpt>
      <trkpt lat="37.19163" lon="27.79308">
        <ele>89.863</ele>
      </trkpt>
      <trkpt lat="37.19163" lon="27.79308">
        <ele>89.77</ele>
      </trkpt>
      <trkpt lat="37.19161" lon="27.79309">
        <ele>89.62</ele>
      </trkpt>
      <trkpt lat="37.19152" lon="27.79312">
        <ele>88.647</ele>
      </trkpt>
      <trkpt lat="37.19144" lon="27.79313">
        <ele>87.487</ele>
      </trkpt>
      <trkpt lat="37.19138" lon="27.79315">
        <ele>86.81</ele>
      </trkpt>
      <trkpt lat="37.19129" lon="27.79316">
        <ele>85.357</ele>
      </trkpt>
      <trkpt lat="37.1912" lon="27.79314">
        <ele>83.846</ele>
      </trkpt>
      <trkpt lat="37.19112" lon="27.79309">
        <ele>82.293</ele>
      </trkpt>
      <trkpt lat="37.19108" lon="27.79307">
        <ele>82.03</ele>
      </trkpt>
      <trkpt lat="37.19107" lon="27.79305">
        <ele>82.002</ele>
      </trkpt>
      <trkpt lat="37.19103" lon="27.79303">
        <ele>82.021</ele>
      </trkpt>
      <trkpt lat="37.19102" lon="27.79303">
        <ele>82.031</ele>
      </trkpt>
      <trkpt lat="37.19099" lon="27.79301">
        <ele>82.067</ele>
      </trkpt>
      <trkpt lat="37.19089" lon="27.79301">
        <ele>82.135</ele>
      </trkpt>
      <trkpt lat="37.19081" lon="27.79298">
        <ele>82.412</ele>
      </trkpt>
      <trkpt lat="37.19073" lon="27.79297">
        <ele>82.943</ele>
      </trkpt>
      <trkpt lat="37.19065" lon="27.79297">
        <ele>83.442</ele>
      </trkpt>
      <trkpt lat="37.19054" lon="27.79296">
        <ele>84.097</ele>
      </trkpt>
      <trkpt lat="37.19051" lon="27.79296">
        <ele>84.28</ele>
      </trkpt>
      <trkpt lat="37.1904" lon="27.79294">
        <ele>84.906</ele>
      </trkpt>
      <trkpt lat="37.1903" lon="27.79292">
        <ele>85.369</ele>
      </trkpt>
      <trkpt lat="37.1902" lon="27.79289">
        <ele>85.867</ele>
      </trkpt>
      <trkpt lat="37.19008" lon="27.79287">
        <ele>86.545</ele>
      </trkpt>
      <trkpt lat="37.18998" lon="27.79284">
        <ele>87.02</ele>
      </trkpt>
      <trkpt lat="37.18989" lon="27.79282">
        <ele>87.061</ele>
      </trkpt>
      <trkpt lat="37.1898" lon="27.7928">
        <ele>87.051</ele>
      </trkpt>
      <trkpt lat="37.1897" lon="27.79277">
        <ele>86.96</ele>
      </trkpt>
      <trkpt lat="37.1896" lon="27.79276">
        <ele>86.865</ele>
      </trkpt>
      <trkpt lat="37.18951" lon="27.79274">
        <ele>86.694</ele>
      </trkpt>
      <trkpt lat="37.1894" lon="27.7927">
        <ele>86.489</ele>
      </trkpt>
      <trkpt lat="37.18928" lon="27.79269">
        <ele>86.549</ele>
      </trkpt>
      <trkpt lat="37.18922" lon="27.79268">
        <ele>86.601</ele>
      </trkpt>
      <trkpt lat="37.18916" lon="27.79267">
        <ele>86.636</ele>
      </trkpt>
      <trkpt lat="37.1891" lon="27.79268">
        <ele>86.814</ele>
      </trkpt>
      <trkpt lat="37.18898" lon="27.79269">
        <ele>87.14</ele>
      </trkpt>
      <trkpt lat="37.18887" lon="27.79269">
        <ele>87.391</ele>
      </trkpt>
      <trkpt lat="37.18886" lon="27.79269">
        <ele>87.397</ele>
      </trkpt>
      <trkpt lat="37.1888" lon="27.79269">
        <ele>87.606</ele>
      </trkpt>
      <trkpt lat="37.18869" lon="27.79269">
        <ele>87.815</ele>
      </trkpt>
      <trkpt lat="37.18858" lon="27.79269">
        <ele>87.943</ele>
      </trkpt>
      <trkpt lat="37.18847" lon="27.79269">
        <ele>87.671</ele>
      </trkpt>
      <trkpt lat="37.18837" lon="27.79274">
        <ele>87.817</ele>
      </trkpt>
      <trkpt lat="37.1883" lon="27.79275">
        <ele>87.524</ele>
      </trkpt>
      <trkpt lat="37.18826" lon="27.79276">
        <ele>87.343</ele>
      </trkpt>
      <trkpt lat="37.18815" lon="27.79278">
        <ele>86.692</ele>
      </trkpt>
      <trkpt lat="37.18804" lon="27.79282">
        <ele>86.4</ele>
      </trkpt>
      <trkpt lat="37.18793" lon="27.79285">
        <ele>86.023</ele>
      </trkpt>
      <trkpt lat="37.18786" lon="27.79292">
        <ele>86.266</ele>
      </trkpt>
      <trkpt lat="37.18783" lon="27.79297">
        <ele>86.622</ele>
      </trkpt>
      <trkpt lat="37.18778" lon="27.79307">
        <ele>87.253</ele>
      </trkpt>
      <trkpt lat="37.18777" lon="27.79306">
        <ele>86.949</ele>
      </trkpt>
      <trkpt lat="37.1877" lon="27.79302">
        <ele>86.07</ele>
      </trkpt>
      <trkpt lat="37.18769" lon="27.79304">
        <ele>86.18</ele>
      </trkpt>
      <trkpt lat="37.18769" lon="27.79303">
        <ele>86.137</ele>
      </trkpt>
      <trkpt lat="37.18757" lon="27.79297">
        <ele>84.833</ele>
      </trkpt>
      <trkpt lat="37.18748" lon="27.79292">
        <ele>84.035</ele>
      </trkpt>
      <trkpt lat="37.18737" lon="27.79285">
        <ele>83.743</ele>
      </trkpt>
      <trkpt lat="37.18726" lon="27.79284">
        <ele>83.912</ele>
      </trkpt>
      <trkpt lat="37.18715" lon="27.79284">
        <ele>84.259</ele>
      </trkpt>
      <trkpt lat="37.18713" lon="27.79284">
        <ele>84.317</ele>
      </trkpt>
      <trkpt lat="37.18707" lon="27.79285">
        <ele>84.533</ele>
      </trkpt>
      <trkpt lat="37.18699" lon="27.79292">
        <ele>84.842</ele>
      </trkpt>
      <trkpt lat="37.18689" lon="27.79299">
        <ele>85.212</ele>
      </trkpt>
      <trkpt lat="37.18681" lon="27.79304">
        <ele>85.486</ele>
      </trkpt>
      <trkpt lat="37.18674" lon="27.79309">
        <ele>86.243</ele>
      </trkpt>
      <trkpt lat="37.18666" lon="27.79316">
        <ele>87.488</ele>
      </trkpt>
      <trkpt lat="37.18657" lon="27.79324">
        <ele>88.709</ele>
      </trkpt>
      <trkpt lat="37.18649" lon="27.79331">
        <ele>89.59</ele>
      </trkpt>
      <trkpt lat="37.1864" lon="27.79336">
        <ele>90.466</ele>
      </trkpt>
      <trkpt lat="37.1863" lon="27.79342">
        <ele>90.855</ele>
      </trkpt>
      <trkpt lat="37.18621" lon="27.79348">
        <ele>90.935</ele>
      </trkpt>
      <trkpt lat="37.18612" lon="27.79353">
        <ele>90.587</ele>
      </trkpt>
      <trkpt lat="37.18601" lon="27.79357">
        <ele>89.652</ele>
      </trkpt>
      <trkpt lat="37.18591" lon="27.79358">
        <ele>88.067</ele>
      </trkpt>
      <trkpt lat="37.18583" lon="27.79358">
        <ele>86.897</ele>
      </trkpt>
      <trkpt lat="37.18584" lon="27.79359">
        <ele>86.989</ele>
      </trkpt>
      <trkpt lat="37.1858" lon="27.7936">
        <ele>86.755</ele>
      </trkpt>
      <trkpt lat="37.18574" lon="27.79362">
        <ele>86.582</ele>
      </trkpt>
      <trkpt lat="37.18568" lon="27.79367">
        <ele>87.101</ele>
      </trkpt>
      <trkpt lat="37.18566" lon="27.79369">
        <ele>87.324</ele>
      </trkpt>
      <trkpt lat="37.18557" lon="27.79377">
        <ele>88.059</ele>
      </trkpt>
      <trkpt lat="37.18549" lon="27.79384">
        <ele>88.627</ele>
      </trkpt>
      <trkpt lat="37.18545" lon="27.79386">
        <ele>88.696</ele>
      </trkpt>
      <trkpt lat="37.18546" lon="27.79384">
        <ele>88.58</ele>
      </trkpt>
      <trkpt lat="37.18545" lon="27.79385">
        <ele>88.58</ele>
      </trkpt>
      <trkpt lat="37.18538" lon="27.79391">
        <ele>89.351</ele>
      </trkpt>
      <trkpt lat="37.18533" lon="27.79394">
        <ele>89.65</ele>
      </trkpt>
      <trkpt lat="37.18532" lon="27.79395">
        <ele>89.733</ele>
      </trkpt>
      <trkpt lat="37.18529" lon="27.794">
        <ele>90.567</ele>
      </trkpt>
      <trkpt lat="37.18529" lon="27.79406">
        <ele>91.782</ele>
      </trkpt>
      <trkpt lat="37.18528" lon="27.79408">
        <ele>92.164</ele>
      </trkpt>
      <trkpt lat="37.18526" lon="27.79409">
        <ele>92.402</ele>
      </trkpt>
      <trkpt lat="37.18524" lon="27.7941">
        <ele>92.441</ele>
      </trkpt>
      <trkpt lat="37.18526" lon="27.7941">
        <ele>92.426</ele>
      </trkpt>
      <trkpt lat="37.18527" lon="27.7941">
        <ele>92.455</ele>
      </trkpt>
      <trkpt lat="37.18525" lon="27.7941">
        <ele>92.441</ele>
      </trkpt>
      <trkpt lat="37.18518" lon="27.79408">
        <ele>92.031</ele>
      </trkpt>
      <trkpt lat="37.18509" lon="27.79411">
        <ele>92.436</ele>
      </trkpt>
      <trkpt lat="37.18502" lon="27.79416">
        <ele>93.028</ele>
      </trkpt>
      <trkpt lat="37.18497" lon="27.79422">
        <ele>94.685</ele>
      </trkpt>
      <trkpt lat="37.18493" lon="27.79423">
        <ele>95.572</ele>
      </trkpt>
      <trkpt lat="37.18485" lon="27.79419">
        <ele>95.67</ele>
      </trkpt>
      <trkpt lat="37.18478" lon="27.79414">
        <ele>95.654</ele>
      </trkpt>
      <trkpt lat="37.18471" lon="27.7941">
        <ele>95.629</ele>
      </trkpt>
      <trkpt lat="37.18462" lon="27.79409">
        <ele>96.693</ele>
      </trkpt>
      <trkpt lat="37.18457" lon="27.79406">
        <ele>96.736</ele>
      </trkpt>
      <trkpt lat="37.18453" lon="27.79402">
        <ele>95.876</ele>
      </trkpt>
      <trkpt lat="37.18443" lon="27.79394">
        <ele>95.053</ele>
      </trkpt>
      <trkpt lat="37.18436" lon="27.7939">
        <ele>94.771</ele>
      </trkpt>
      <trkpt lat="37.18434" lon="27.79387">
        <ele>94.602</ele>
      </trkpt>
      <trkpt lat="37.1843" lon="27.79381">
        <ele>94.213</ele>
      </trkpt>
      <trkpt lat="37.18424" lon="27.79376">
        <ele>94.308</ele>
      </trkpt>
      <trkpt lat="37.18418" lon="27.79369">
        <ele>94.054</ele>
      </trkpt>
      <trkpt lat="37.18418" lon="27.79366">
        <ele>93.677</ele>
      </trkpt>
      <trkpt lat="37.18418" lon="27.79362">
        <ele>92.877</ele>
      </trkpt>
      <trkpt lat="37.18418" lon="27.79359">
        <ele>92.593</ele>
      </trkpt>
      <trkpt lat="37.18419" lon="27.79356">
        <ele>92.107</ele>
      </trkpt>
      <trkpt lat="37.18418" lon="27.7935">
        <ele>91.656</ele>
      </trkpt>
      <trkpt lat="37.18413" lon="27.79336">
        <ele>91.271</ele>
      </trkpt>
      <trkpt lat="37.18408" lon="27.79328">
        <ele>91.519</ele>
      </trkpt>
      <trkpt lat="37.18404" lon="27.7932">
        <ele>91.587</ele>
      </trkpt>
      <trkpt lat="37.18401" lon="27.7931">
        <ele>91.055</ele>
      </trkpt>
      <trkpt lat="37.18398" lon="27.79299">
        <ele>91.003</ele>
      </trkpt>
      <trkpt lat="37.18394" lon="27.7929">
        <ele>91.201</ele>
      </trkpt>
      <trkpt lat="37.18389" lon="27.7928">
        <ele>91.081</ele>
      </trkpt>
      <trkpt lat="37.18387" lon="27.79274">
        <ele>91.246</ele>
      </trkpt>
      <trkpt lat="37.18385" lon="27.79266">
        <ele>91.355</ele>
      </trkpt>
      <trkpt lat="37.18382" lon="27.79259">
        <ele>91.506</ele>
      </trkpt>
      <trkpt lat="37.18378" lon="27.79253">
        <ele>91.502</ele>
      </trkpt>
      <trkpt lat="37.18376" lon="27.79248">
        <ele>91.408</ele>
      </trkpt>
      <trkpt lat="37.18369" lon="27.79239">
        <ele>91.124</ele>
      </trkpt>
      <trkpt lat="37.18366" lon="27.79236">
        <ele>90.977</ele>
      </trkpt>
      <trkpt lat="37.18363" lon="27.79239">
        <ele>91.186</ele>
      </trkpt>
      <trkpt lat="37.18357" lon="27.79239">
        <ele>91.421</ele>
      </trkpt>
      <trkpt lat="37.18347" lon="27.79236">
        <ele>91.757</ele>
      </trkpt>
      <trkpt lat="37.1834" lon="27.79236">
        <ele>92.133</ele>
      </trkpt>
      <trkpt lat="37.18333" lon="27.79237">
        <ele>92.58</ele>
      </trkpt>
      <trkpt lat="37.18329" lon="27.79238">
        <ele>92.652</ele>
      </trkpt>
      <trkpt lat="37.18325" lon="27.79241">
        <ele>92.882</ele>
      </trkpt>
      <trkpt lat="37.18319" lon="27.79247">
        <ele>93.25</ele>
      </trkpt>
      <trkpt lat="37.18314" lon="27.79257">
        <ele>93.842</ele>
      </trkpt>
      <trkpt lat="37.1831" lon="27.79266">
        <ele>94.422</ele>
      </trkpt>
      <trkpt lat="37.18305" lon="27.79278">
        <ele>94.956</ele>
      </trkpt>
      <trkpt lat="37.18299" lon="27.79289">
        <ele>95.899</ele>
      </trkpt>
      <trkpt lat="37.18292" lon="27.793">
        <ele>96.432</ele>
      </trkpt>
      <trkpt lat="37.18289" lon="27.79311">
        <ele>97.697</ele>
      </trkpt>
      <trkpt lat="37.18282" lon="27.79319">
        <ele>97.803</ele>
      </trkpt>
      <trkpt lat="37.18277" lon="27.79328">
        <ele>98.152</ele>
      </trkpt>
      <trkpt lat="37.18275" lon="27.79338">
        <ele>99.153</ele>
      </trkpt>
      <trkpt lat="37.18271" lon="27.7935">
        <ele>99.922</ele>
      </trkpt>
      <trkpt lat="37.18267" lon="27.7936">
        <ele>100.174</ele>
      </trkpt>
      <trkpt lat="37.18263" lon="27.7937">
        <ele>98.961</ele>
      </trkpt>
      <trkpt lat="37.1826" lon="27.7938">
        <ele>98.193</ele>
      </trkpt>
      <trkpt lat="37.18257" lon="27.79391">
        <ele>97.088</ele>
      </trkpt>
      <trkpt lat="37.18254" lon="27.79404">
        <ele>96.148</ele>
      </trkpt>
      <trkpt lat="37.18249" lon="27.79411">
        <ele>94.986</ele>
      </trkpt>
      <trkpt lat="37.18246" lon="27.7942">
        <ele>95.029</ele>
      </trkpt>
      <trkpt lat="37.18242" lon="27.79427">
        <ele>95.128</ele>
      </trkpt>
      <trkpt lat="37.18241" lon="27.79435">
        <ele>95.403</ele>
      </trkpt>
      <trkpt lat="37.18239" lon="27.79443">
        <ele>95.41</ele>
      </trkpt>
      <trkpt lat="37.18239" lon="27.7946">
        <ele>97.462</ele>
      </trkpt>
      <trkpt lat="37.18239" lon="27.7947">
        <ele>98.707</ele>
      </trkpt>
      <trkpt lat="37.18232" lon="27.79476">
        <ele>98.361</ele>
      </trkpt>
      <trkpt lat="37.18232" lon="27.79483">
        <ele>99.366</ele>
      </trkpt>
      <trkpt lat="37.18233" lon="27.79483">
        <ele>99.591</ele>
      </trkpt>
      <trkpt lat="37.18238" lon="27.79482">
        <ele>100.448</ele>
      </trkpt>
      <trkpt lat="37.18241" lon="27.79483">
        <ele>101.262</ele>
      </trkpt>
      <trkpt lat="37.18243" lon="27.79485">
        <ele>102.028</ele>
      </trkpt>
      <trkpt lat="37.18245" lon="27.7949">
        <ele>103.161</ele>
      </trkpt>
      <trkpt lat="37.18246" lon="27.79493">
        <ele>103.85</ele>
      </trkpt>
      <trkpt lat="37.18243" lon="27.79501">
        <ele>104.721</ele>
      </trkpt>
      <trkpt lat="37.18236" lon="27.79504">
        <ele>104.153</ele>
      </trkpt>
      <trkpt lat="37.18229" lon="27.79506">
        <ele>103.392</ele>
      </trkpt>
      <trkpt lat="37.18224" lon="27.79506">
        <ele>102.498</ele>
      </trkpt>
      <trkpt lat="37.18219" lon="27.79507">
        <ele>102.402</ele>
      </trkpt>
      <trkpt lat="37.18215" lon="27.79507">
        <ele>102.51</ele>
      </trkpt>
      <trkpt lat="37.18207" lon="27.79509">
        <ele>103.327</ele>
      </trkpt>
      <trkpt lat="37.182" lon="27.79507">
        <ele>103.089</ele>
      </trkpt>
      <trkpt lat="37.18198" lon="27.79506">
        <ele>102.823</ele>
      </trkpt>
      <trkpt lat="37.18192" lon="27.79505">
        <ele>102.791</ele>
      </trkpt>
      <trkpt lat="37.18187" lon="27.79504">
        <ele>103.284</ele>
      </trkpt>
      <trkpt lat="37.18183" lon="27.79505">
        <ele>104.186</ele>
      </trkpt>
      <trkpt lat="37.18173" lon="27.79503">
        <ele>104.83</ele>
      </trkpt>
      <trkpt lat="37.18173" lon="27.79502">
        <ele>104.67</ele>
      </trkpt>
      <trkpt lat="37.18167" lon="27.79497">
        <ele>104.468</ele>
      </trkpt>
      <trkpt lat="37.18165" lon="27.79496">
        <ele>104.569</ele>
      </trkpt>
      <trkpt lat="37.18162" lon="27.79493">
        <ele>104.586</ele>
      </trkpt>
      <trkpt lat="37.18157" lon="27.79489">
        <ele>104.726</ele>
      </trkpt>
      <trkpt lat="37.18148" lon="27.79482">
        <ele>105.013</ele>
      </trkpt>
      <trkpt lat="37.18143" lon="27.79472">
        <ele>104.242</ele>
      </trkpt>
      <trkpt lat="37.1814" lon="27.79463">
        <ele>102.961</ele>
      </trkpt>
      <trkpt lat="37.18137" lon="27.7946">
        <ele>102.879</ele>
      </trkpt>
      <trkpt lat="37.18129" lon="27.79452">
        <ele>103.374</ele>
      </trkpt>
      <trkpt lat="37.18121" lon="27.79444">
        <ele>103.345</ele>
      </trkpt>
      <trkpt lat="37.18115" lon="27.79437">
        <ele>103.303</ele>
      </trkpt>
      <trkpt lat="37.18113" lon="27.79435">
        <ele>103.192</ele>
      </trkpt>
      <trkpt lat="37.18109" lon="27.7943">
        <ele>102.804</ele>
      </trkpt>
      <trkpt lat="37.18103" lon="27.79424">
        <ele>103.282</ele>
      </trkpt>
      <trkpt lat="37.18103" lon="27.79418">
        <ele>101.981</ele>
      </trkpt>
      <trkpt lat="37.18102" lon="27.79413">
        <ele>101.676</ele>
      </trkpt>
      <trkpt lat="37.18099" lon="27.79407">
        <ele>101.892</ele>
      </trkpt>
      <trkpt lat="37.18097" lon="27.79401">
        <ele>101.781</ele>
      </trkpt>
      <trkpt lat="37.18094" lon="27.79397">
        <ele>102.16</ele>
      </trkpt>
      <trkpt lat="37.18086" lon="27.79388">
        <ele>103.145</ele>
      </trkpt>
      <trkpt lat="37.18084" lon="27.79384">
        <ele>103.109</ele>
      </trkpt>
      <trkpt lat="37.18085" lon="27.79381">
        <ele>102.614</ele>
      </trkpt>
      <trkpt lat="37.18084" lon="27.79381">
        <ele>102.688</ele>
      </trkpt>
      <trkpt lat="37.18082" lon="27.79376">
        <ele>102.736</ele>
      </trkpt>
      <trkpt lat="37.18082" lon="27.79373">
        <ele>102.252</ele>
      </trkpt>
      <trkpt lat="37.18082" lon="27.79369">
        <ele>101.762</ele>
      </trkpt>
      <trkpt lat="37.18082" lon="27.79361">
        <ele>100.995</ele>
      </trkpt>
      <trkpt lat="37.18081" lon="27.79356">
        <ele>101.014</ele>
      </trkpt>
      <trkpt lat="37.18079" lon="27.7935">
        <ele>101.735</ele>
      </trkpt>
      <trkpt lat="37.18078" lon="27.79342">
        <ele>101.262</ele>
      </trkpt>
      <trkpt lat="37.18077" lon="27.79335">
        <ele>101.542</ele>
      </trkpt>
      <trkpt lat="37.18076" lon="27.7933">
        <ele>101.477</ele>
      </trkpt>
      <trkpt lat="37.18076" lon="27.79328">
        <ele>101.532</ele>
      </trkpt>
      <trkpt lat="37.18077" lon="27.79327">
        <ele>100.895</ele>
      </trkpt>
      <trkpt lat="37.18076" lon="27.79323">
        <ele>100.981</ele>
      </trkpt>
      <trkpt lat="37.18076" lon="27.79319">
        <ele>100.992</ele>
      </trkpt>
      <trkpt lat="37.18075" lon="27.79314">
        <ele>100.889</ele>
      </trkpt>
      <trkpt lat="37.18075" lon="27.7931">
        <ele>100.704</ele>
      </trkpt>
      <trkpt lat="37.18074" lon="27.79306">
        <ele>100.585</ele>
      </trkpt>
      <trkpt lat="37.18076" lon="27.79301">
        <ele>100.051</ele>
      </trkpt>
      <trkpt lat="37.18076" lon="27.79301">
        <ele>99.937</ele>
      </trkpt>
      <trkpt lat="37.18077" lon="27.79301">
        <ele>99.773</ele>
      </trkpt>
      <trkpt lat="37.1808" lon="27.79299">
        <ele>98.819</ele>
      </trkpt>
      <trkpt lat="37.18081" lon="27.79297">
        <ele>98.562</ele>
      </trkpt>
      <trkpt lat="37.1808" lon="27.79292">
        <ele>98.59</ele>
      </trkpt>
      <trkpt lat="37.18079" lon="27.79284">
        <ele>98.686</ele>
      </trkpt>
      <trkpt lat="37.18077" lon="27.79276">
        <ele>98.604</ele>
      </trkpt>
      <trkpt lat="37.18076" lon="27.79274">
        <ele>98.558</ele>
      </trkpt>
      <trkpt lat="37.18075" lon="27.79273">
        <ele>98.546</ele>
      </trkpt>
      <trkpt lat="37.18075" lon="27.79264">
        <ele>97.948</ele>
      </trkpt>
      <trkpt lat="37.18074" lon="27.7926">
        <ele>97.738</ele>
      </trkpt>
      <trkpt lat="37.18073" lon="27.79261">
        <ele>97.804</ele>
      </trkpt>
      <trkpt lat="37.18072" lon="27.79258">
        <ele>97.667</ele>
      </trkpt>
      <trkpt lat="37.18071" lon="27.79256">
        <ele>97.49</ele>
      </trkpt>
      <trkpt lat="37.1807" lon="27.79254">
        <ele>97.344</ele>
      </trkpt>
      <trkpt lat="37.18071" lon="27.79254">
        <ele>97.319</ele>
      </trkpt>
      <trkpt lat="37.1807" lon="27.79254">
        <ele>97.339</ele>
      </trkpt>
      <trkpt lat="37.18071" lon="27.79254">
        <ele>97.343</ele>
      </trkpt>
      <trkpt lat="37.18072" lon="27.79253">
        <ele>97.271</ele>
      </trkpt>
      <trkpt lat="37.18071" lon="27.79254">
        <ele>97.36</ele>
      </trkpt>
      <trkpt lat="37.18071" lon="27.79253">
        <ele>97.235</ele>
      </trkpt>
      <trkpt lat="37.18069" lon="27.79253">
        <ele>97.309</ele>
      </trkpt>
      <trkpt lat="37.18066" lon="27.79252">
        <ele>97.208</ele>
      </trkpt>
      <trkpt lat="37.18068" lon="27.79251">
        <ele>97.114</ele>
      </trkpt>
      <trkpt lat="37.18065" lon="27.79248">
        <ele>96.977</ele>
      </trkpt>
      <trkpt lat="37.18061" lon="27.79244">
        <ele>96.87</ele>
      </trkpt>
      <trkpt lat="37.18059" lon="27.79241">
        <ele>96.736</ele>
      </trkpt>
      <trkpt lat="37.18055" lon="27.79239">
        <ele>96.622</ele>
      </trkpt>
      <trkpt lat="37.18048" lon="27.79237">
        <ele>96.686</ele>
      </trkpt>
      <trkpt lat="37.18043" lon="27.79235">
        <ele>96.667</ele>
      </trkpt>
      <trkpt lat="37.18042" lon="27.79235">
        <ele>96.684</ele>
      </trkpt>
      <trkpt lat="37.1804" lon="27.79236">
        <ele>96.74</ele>
      </trkpt>
      <trkpt lat="37.18037" lon="27.79236">
        <ele>96.799</ele>
      </trkpt>
      <trkpt lat="37.18034" lon="27.79231">
        <ele>96.574</ele>
      </trkpt>
      <trkpt lat="37.18028" lon="27.79232">
        <ele>96.7</ele>
      </trkpt>
      <trkpt lat="37.18024" lon="27.79231">
        <ele>96.828</ele>
      </trkpt>
      <trkpt lat="37.18022" lon="27.79234">
        <ele>97.171</ele>
      </trkpt>
      <trkpt lat="37.18018" lon="27.79236">
        <ele>97.519</ele>
      </trkpt>
      <trkpt lat="37.18017" lon="27.79239">
        <ele>97.735</ele>
      </trkpt>
      <trkpt lat="37.18015" lon="27.79243">
        <ele>98.036</ele>
      </trkpt>
      <trkpt lat="37.18012" lon="27.79245">
        <ele>98.311</ele>
      </trkpt>
      <trkpt lat="37.18008" lon="27.79247">
        <ele>98.575</ele>
      </trkpt>
      <trkpt lat="37.18004" lon="27.79251">
        <ele>98.972</ele>
      </trkpt>
      <trkpt lat="37.17998" lon="27.79251">
        <ele>99.335</ele>
      </trkpt>
      <trkpt lat="37.17995" lon="27.79253">
        <ele>100.033</ele>
      </trkpt>
      <trkpt lat="37.17993" lon="27.79253">
        <ele>100.221</ele>
      </trkpt>
      <trkpt lat="37.17986" lon="27.79254">
        <ele>100.869</ele>
      </trkpt>
      <trkpt lat="37.17984" lon="27.79254">
        <ele>101.069</ele>
      </trkpt>
      <trkpt lat="37.17981" lon="27.79257">
        <ele>101.834</ele>
      </trkpt>
      <trkpt lat="37.17975" lon="27.79259">
        <ele>102.407</ele>
      </trkpt>
      <trkpt lat="37.1797" lon="27.79259">
        <ele>102.588</ele>
      </trkpt>
      <trkpt lat="37.1797" lon="27.79259">
        <ele>102.599</ele>
      </trkpt>
      <trkpt lat="37.17965" lon="27.79262">
        <ele>102.759</ele>
      </trkpt>
      <trkpt lat="37.17967" lon="27.79261">
        <ele>102.717</ele>
      </trkpt>
      <trkpt lat="37.17965" lon="27.79261">
        <ele>102.608</ele>
      </trkpt>
      <trkpt lat="37.17963" lon="27.79261">
        <ele>102.55</ele>
      </trkpt>
      <trkpt lat="37.17959" lon="27.79262">
        <ele>102.36</ele>
      </trkpt>
      <trkpt lat="37.17953" lon="27.79266">
        <ele>102.181</ele>
      </trkpt>
      <trkpt lat="37.17952" lon="27.79266">
        <ele>102.112</ele>
      </trkpt>
      <trkpt lat="37.17948" lon="27.79267">
        <ele>101.722</ele>
      </trkpt>
      <trkpt lat="37.17942" lon="27.79267">
        <ele>101.446</ele>
      </trkpt>
      <trkpt lat="37.17941" lon="27.79271">
        <ele>101.309</ele>
      </trkpt>
      <trkpt lat="37.17936" lon="27.79272">
        <ele>101.352</ele>
      </trkpt>
      <trkpt lat="37.1793" lon="27.79273">
        <ele>101.344</ele>
      </trkpt>
      <trkpt lat="37.17928" lon="27.79274">
        <ele>101.311</ele>
      </trkpt>
      <trkpt lat="37.17924" lon="27.79276">
        <ele>101.156</ele>
      </trkpt>
      <trkpt lat="37.17922" lon="27.79281">
        <ele>101.563</ele>
      </trkpt>
      <trkpt lat="37.17917" lon="27.79286">
        <ele>102.119</ele>
      </trkpt>
      <trkpt lat="37.17915" lon="27.7929">
        <ele>102.987</ele>
      </trkpt>
      <trkpt lat="37.17912" lon="27.79293">
        <ele>103.576</ele>
      </trkpt>
      <trkpt lat="37.17908" lon="27.79296">
        <ele>104.13</ele>
      </trkpt>
      <trkpt lat="37.17905" lon="27.79297">
        <ele>104.369</ele>
      </trkpt>
      <trkpt lat="37.17902" lon="27.79299">
        <ele>104.518</ele>
      </trkpt>
      <trkpt lat="37.179" lon="27.79301">
        <ele>104.54</ele>
      </trkpt>
      <trkpt lat="37.17899" lon="27.79303">
        <ele>104.446</ele>
      </trkpt>
      <trkpt lat="37.17896" lon="27.79303">
        <ele>104.414</ele>
      </trkpt>
      <trkpt lat="37.17893" lon="27.79304">
        <ele>104.291</ele>
      </trkpt>
      <trkpt lat="37.1789" lon="27.79307">
        <ele>104.181</ele>
      </trkpt>
      <trkpt lat="37.17888" lon="27.79308">
        <ele>104.308</ele>
      </trkpt>
      <trkpt lat="37.17885" lon="27.79311">
        <ele>104.843</ele>
      </trkpt>
      <trkpt lat="37.17883" lon="27.79312">
        <ele>105.086</ele>
      </trkpt>
      <trkpt lat="37.17882" lon="27.79317">
        <ele>105.42</ele>
      </trkpt>
      <trkpt lat="37.17883" lon="27.79316">
        <ele>105.303</ele>
      </trkpt>
      <trkpt lat="37.17881" lon="27.79318">
        <ele>105.557</ele>
      </trkpt>
      <trkpt lat="37.17879" lon="27.79319">
        <ele>105.702</ele>
      </trkpt>
      <trkpt lat="37.17876" lon="27.79322">
        <ele>105.917</ele>
      </trkpt>
      <trkpt lat="37.17874" lon="27.79323">
        <ele>106.069</ele>
      </trkpt>
      <trkpt lat="37.17872" lon="27.79323">
        <ele>106.156</ele>
      </trkpt>
      <trkpt lat="37.17872" lon="27.79324">
        <ele>106.172</ele>
      </trkpt>
      <trkpt lat="37.17869" lon="27.79325">
        <ele>106.279</ele>
      </trkpt>
      <trkpt lat="37.17866" lon="27.79326">
        <ele>106.359</ele>
      </trkpt>
      <trkpt lat="37.17862" lon="27.79329">
        <ele>106.255</ele>
      </trkpt>
      <trkpt lat="37.17857" lon="27.79335">
        <ele>106.59</ele>
      </trkpt>
      <trkpt lat="37.17853" lon="27.7934">
        <ele>107.422</ele>
      </trkpt>
      <trkpt lat="37.17848" lon="27.79344">
        <ele>107.837</ele>
      </trkpt>
      <trkpt lat="37.17849" lon="27.79347">
        <ele>108.004</ele>
      </trkpt>
      <trkpt lat="37.17843" lon="27.79353">
        <ele>108.012</ele>
      </trkpt>
      <trkpt lat="37.17839" lon="27.79355">
        <ele>107.796</ele>
      </trkpt>
      <trkpt lat="37.17835" lon="27.7936">
        <ele>107.255</ele>
      </trkpt>
      <trkpt lat="37.1783" lon="27.79358">
        <ele>107.48</ele>
      </trkpt>
      <trkpt lat="37.17825" lon="27.79361">
        <ele>107.605</ele>
      </trkpt>
      <trkpt lat="37.1782" lon="27.79365">
        <ele>108.375</ele>
      </trkpt>
      <trkpt lat="37.17815" lon="27.7937">
        <ele>108.853</ele>
      </trkpt>
      <trkpt lat="37.17814" lon="27.79373">
        <ele>109.05</ele>
      </trkpt>
      <trkpt lat="37.17811" lon="27.79374">
        <ele>109.063</ele>
      </trkpt>
      <trkpt lat="37.17802" lon="27.79377">
        <ele>109.113</ele>
      </trkpt>
      <trkpt lat="37.17795" lon="27.79381">
        <ele>109.219</ele>
      </trkpt>
      <trkpt lat="37.17795" lon="27.79382">
        <ele>109.193</ele>
      </trkpt>
      <trkpt lat="37.1779" lon="27.79382">
        <ele>109.285</ele>
      </trkpt>
      <trkpt lat="37.17785" lon="27.79384">
        <ele>109.272</ele>
      </trkpt>
      <trkpt lat="37.17781" lon="27.79383">
        <ele>109.385</ele>
      </trkpt>
      <trkpt lat="37.17779" lon="27.79383">
        <ele>109.419</ele>
      </trkpt>
      <trkpt lat="37.17778" lon="27.79389">
        <ele>109.013</ele>
      </trkpt>
      <trkpt lat="37.17783" lon="27.79395">
        <ele>110.247</ele>
      </trkpt>
      <trkpt lat="37.17783" lon="27.79405">
        <ele>112.239</ele>
      </trkpt>
      <trkpt lat="37.17782" lon="27.79405">
        <ele>112.183</ele>
      </trkpt>
      <trkpt lat="37.1778" lon="27.79403">
        <ele>111.604</ele>
      </trkpt>
      <trkpt lat="37.17778" lon="27.79405">
        <ele>112.002</ele>
      </trkpt>
      <trkpt lat="37.17777" lon="27.79404">
        <ele>111.715</ele>
      </trkpt>
      <trkpt lat="37.1777" lon="27.79403">
        <ele>110.999</ele>
      </trkpt>
      <trkpt lat="37.17768" lon="27.79408">
        <ele>111.438</ele>
      </trkpt>
      <trkpt lat="37.17765" lon="27.79411">
        <ele>111.572</ele>
      </trkpt>
      <trkpt lat="37.17759" lon="27.79412">
        <ele>110.915</ele>
      </trkpt>
      <trkpt lat="37.17755" lon="27.79416">
        <ele>110.631</ele>
      </trkpt>
      <trkpt lat="37.17752" lon="27.79416">
        <ele>110.305</ele>
      </trkpt>
      <trkpt lat="37.17746" lon="27.79416">
        <ele>109.69</ele>
      </trkpt>
      <trkpt lat="37.17745" lon="27.7942">
        <ele>110.284</ele>
      </trkpt>
      <trkpt lat="37.17741" lon="27.7942">
        <ele>110.154</ele>
      </trkpt>
      <trkpt lat="37.17741" lon="27.79426">
        <ele>111.249</ele>
      </trkpt>
      <trkpt lat="37.17734" lon="27.79427">
        <ele>110.988</ele>
      </trkpt>
      <trkpt lat="37.17731" lon="27.79427">
        <ele>110.95</ele>
      </trkpt>
      <trkpt lat="37.1773" lon="27.7943">
        <ele>111.523</ele>
      </trkpt>
      <trkpt lat="37.17728" lon="27.7943">
        <ele>111.303</ele>
      </trkpt>
      <trkpt lat="37.17725" lon="27.79429">
        <ele>110.845</ele>
      </trkpt>
      <trkpt lat="37.17723" lon="27.79427">
        <ele>110.199</ele>
      </trkpt>
      <trkpt lat="37.17719" lon="27.79423">
        <ele>109.702</ele>
      </trkpt>
      <trkpt lat="37.17716" lon="27.79422">
        <ele>109.416</ele>
      </trkpt>
      <trkpt lat="37.17713" lon="27.79418">
        <ele>108.693</ele>
      </trkpt>
      <trkpt lat="37.17712" lon="27.79417">
        <ele>108.452</ele>
      </trkpt>
      <trkpt lat="37.17709" lon="27.79417">
        <ele>108.502</ele>
      </trkpt>
      <trkpt lat="37.17706" lon="27.79417">
        <ele>108.619</ele>
      </trkpt>
      <trkpt lat="37.17703" lon="27.79416">
        <ele>108.551</ele>
      </trkpt>
      <trkpt lat="37.17699" lon="27.79414">
        <ele>108.352</ele>
      </trkpt>
      <trkpt lat="37.17695" lon="27.79411">
        <ele>107.894</ele>
      </trkpt>
      <trkpt lat="37.17691" lon="27.79409">
        <ele>107.906</ele>
      </trkpt>
      <trkpt lat="37.17689" lon="27.79406">
        <ele>107.404</ele>
      </trkpt>
      <trkpt lat="37.17688" lon="27.79406">
        <ele>107.595</ele>
      </trkpt>
      <trkpt lat="37.17687" lon="27.79406">
        <ele>107.714</ele>
      </trkpt>
      <trkpt lat="37.17686" lon="27.79402">
        <ele>106.914</ele>
      </trkpt>
      <trkpt lat="37.17683" lon="27.79399">
        <ele>106.618</ele>
      </trkpt>
      <trkpt lat="37.17679" lon="27.79399">
        <ele>106.72</ele>
      </trkpt>
      <trkpt lat="37.1768" lon="27.79398">
        <ele>106.377</ele>
      </trkpt>
      <trkpt lat="37.1768" lon="27.79396">
        <ele>106.085</ele>
      </trkpt>
      <trkpt lat="37.17678" lon="27.79392">
        <ele>105.237</ele>
      </trkpt>
      <trkpt lat="37.17676" lon="27.7939">
        <ele>104.937</ele>
      </trkpt>
      <trkpt lat="37.17672" lon="27.79389">
        <ele>104.933</ele>
      </trkpt>
      <trkpt lat="37.17666" lon="27.79386">
        <ele>105.127</ele>
      </trkpt>
      <trkpt lat="37.17663" lon="27.79387">
        <ele>105.218</ele>
      </trkpt>
      <trkpt lat="37.17662" lon="27.79387">
        <ele>105.229</ele>
      </trkpt>
      <trkpt lat="37.17657" lon="27.79387">
        <ele>105.397</ele>
      </trkpt>
      <trkpt lat="37.17656" lon="27.79388">
        <ele>105.411</ele>
      </trkpt>
      <trkpt lat="37.17656" lon="27.79388">
        <ele>105.421</ele>
      </trkpt>
      <trkpt lat="37.17656" lon="27.79387">
        <ele>105.445</ele>
      </trkpt>
      <trkpt lat="37.17656" lon="27.79384">
        <ele>105.497</ele>
      </trkpt>
      <trkpt lat="37.17655" lon="27.79384">
        <ele>105.52</ele>
      </trkpt>
      <trkpt lat="37.17651" lon="27.79382">
        <ele>105.67</ele>
      </trkpt>
      <trkpt lat="37.17642" lon="27.79381">
        <ele>105.919</ele>
      </trkpt>
      <trkpt lat="37.17642" lon="27.79379">
        <ele>105.924</ele>
      </trkpt>
      <trkpt lat="37.17643" lon="27.79379">
        <ele>105.916</ele>
      </trkpt>
      <trkpt lat="37.17642" lon="27.79378">
        <ele>105.935</ele>
      </trkpt>
      <trkpt lat="37.17641" lon="27.79376">
        <ele>105.966</ele>
      </trkpt>
      <trkpt lat="37.17641" lon="27.79375">
        <ele>105.967</ele>
      </trkpt>
      <trkpt lat="37.17639" lon="27.79376">
        <ele>105.995</ele>
      </trkpt>
      <trkpt lat="37.17638" lon="27.79376">
        <ele>105.98</ele>
      </trkpt>
      <trkpt lat="37.17636" lon="27.79375">
        <ele>105.891</ele>
      </trkpt>
      <trkpt lat="37.17635" lon="27.79374">
        <ele>105.834</ele>
      </trkpt>
      <trkpt lat="37.17633" lon="27.79371">
        <ele>105.745</ele>
      </trkpt>
      <trkpt lat="37.17633" lon="27.79371">
        <ele>105.709</ele>
      </trkpt>
      <trkpt lat="37.17631" lon="27.79371">
        <ele>105.638</ele>
      </trkpt>
      <trkpt lat="37.1763" lon="27.79371">
        <ele>105.589</ele>
      </trkpt>
      <trkpt lat="37.1763" lon="27.79372">
        <ele>105.616</ele>
      </trkpt>
      <trkpt lat="37.17629" lon="27.79372">
        <ele>105.569</ele>
      </trkpt>
      <trkpt lat="37.17623" lon="27.79369">
        <ele>105.175</ele>
      </trkpt>
      <trkpt lat="37.17621" lon="27.79369">
        <ele>105.078</ele>
      </trkpt>
      <trkpt lat="37.17613" lon="27.79371">
        <ele>104.771</ele>
      </trkpt>
      <trkpt lat="37.17611" lon="27.79371">
        <ele>104.732</ele>
      </trkpt>
      <trkpt lat="37.17611" lon="27.79371">
        <ele>104.762</ele>
      </trkpt>
      <trkpt lat="37.17609" lon="27.79372">
        <ele>104.909</ele>
      </trkpt>
      <trkpt lat="37.17609" lon="27.79373">
        <ele>104.979</ele>
      </trkpt>
      <trkpt lat="37.17607" lon="27.79375">
        <ele>105.176</ele>
      </trkpt>
      <trkpt lat="37.17605" lon="27.79377">
        <ele>105.302</ele>
      </trkpt>
      <trkpt lat="37.17605" lon="27.79376">
        <ele>105.254</ele>
      </trkpt>
      <trkpt lat="37.17604" lon="27.79376">
        <ele>105.287</ele>
      </trkpt>
      <trkpt lat="37.17603" lon="27.79381">
        <ele>105.473</ele>
      </trkpt>
      <trkpt lat="37.17598" lon="27.79387">
        <ele>105.526</ele>
      </trkpt>
      <trkpt lat="37.17596" lon="27.7939">
        <ele>105.708</ele>
      </trkpt>
      <trkpt lat="37.17593" lon="27.79393">
        <ele>106.03</ele>
      </trkpt>
      <trkpt lat="37.17591" lon="27.79395">
        <ele>106.256</ele>
      </trkpt>
      <trkpt lat="37.17589" lon="27.79396">
        <ele>106.412</ele>
      </trkpt>
      <trkpt lat="37.17588" lon="27.794">
        <ele>106.954</ele>
      </trkpt>
      <trkpt lat="37.17589" lon="27.794">
        <ele>107.024</ele>
      </trkpt>
      <trkpt lat="37.17586" lon="27.79405">
        <ele>107.573</ele>
      </trkpt>
      <trkpt lat="37.17585" lon="27.79408">
        <ele>107.978</ele>
      </trkpt>
      <trkpt lat="37.17583" lon="27.7941">
        <ele>108.05</ele>
      </trkpt>
      <trkpt lat="37.1758" lon="27.79416">
        <ele>108.857</ele>
      </trkpt>
      <trkpt lat="37.17579" lon="27.7942">
        <ele>109.163</ele>
      </trkpt>
      <trkpt lat="37.17576" lon="27.79431">
        <ele>109.619</ele>
      </trkpt>
      <trkpt lat="37.17576" lon="27.79431">
        <ele>109.633</ele>
      </trkpt>
      <trkpt lat="37.17574" lon="27.79432">
        <ele>109.559</ele>
      </trkpt>
      <trkpt lat="37.17573" lon="27.79436">
        <ele>109.592</ele>
      </trkpt>
      <trkpt lat="37.1757" lon="27.79439">
        <ele>109.408</ele>
      </trkpt>
      <trkpt lat="37.1757" lon="27.79442">
        <ele>109.496</ele>
      </trkpt>
      <trkpt lat="37.17569" lon="27.79446">
        <ele>109.594</ele>
      </trkpt>
      <trkpt lat="37.17566" lon="27.79453">
        <ele>109.916</ele>
      </trkpt>
      <trkpt lat="37.17562" lon="27.7946">
        <ele>109.675</ele>
      </trkpt>
      <trkpt lat="37.17559" lon="27.79466">
        <ele>109.535</ele>
      </trkpt>
      <trkpt lat="37.17559" lon="27.79468">
        <ele>109.592</ele>
      </trkpt>
      <trkpt lat="37.17558" lon="27.79474">
        <ele>109.717</ele>
      </trkpt>
      <trkpt lat="37.17557" lon="27.79474">
        <ele>109.462</ele>
      </trkpt>
      <trkpt lat="37.17557" lon="27.79473">
        <ele>109.328</ele>
      </trkpt>
      <trkpt lat="37.17557" lon="27.79475">
        <ele>109.592</ele>
      </trkpt>
      <trkpt lat="37.17554" lon="27.79484">
        <ele>109.816</ele>
      </trkpt>
      <trkpt lat="37.17552" lon="27.79492">
        <ele>110.11</ele>
      </trkpt>
      <trkpt lat="37.17552" lon="27.79496">
        <ele>110.251</ele>
      </trkpt>
      <trkpt lat="37.17552" lon="27.79496">
        <ele>110.251</ele>
      </trkpt>
      <trkpt lat="37.17552" lon="27.79498">
        <ele>110.357</ele>
      </trkpt>
      <trkpt lat="37.1755" lon="27.79506">
        <ele>110.48</ele>
      </trkpt>
      <trkpt lat="37.17549" lon="27.7951">
        <ele>110.465</ele>
      </trkpt>
      <trkpt lat="37.17547" lon="27.79518">
        <ele>110.286</ele>
      </trkpt>
      <trkpt lat="37.17546" lon="27.79525">
        <ele>110.107</ele>
      </trkpt>
      <trkpt lat="37.17546" lon="27.79526">
        <ele>110.116</ele>
      </trkpt>
      <trkpt lat="37.17544" lon="27.79531">
        <ele>110.194</ele>
      </trkpt>
      <trkpt lat="37.17544" lon="27.79537">
        <ele>110.733</ele>
      </trkpt>
      <trkpt lat="37.17542" lon="27.79545">
        <ele>111.063</ele>
      </trkpt>
      <trkpt lat="37.17541" lon="27.79551">
        <ele>111.445</ele>
      </trkpt>
      <trkpt lat="37.17541" lon="27.79555">
        <ele>111.524</ele>
      </trkpt>
      <trkpt lat="37.17538" lon="27.79554">
        <ele>110.563</ele>
      </trkpt>
      <trkpt lat="37.17538" lon="27.79557">
        <ele>110.7</ele>
      </trkpt>
      <trkpt lat="37.17535" lon="27.79559">
        <ele>110.024</ele>
      </trkpt>
      <trkpt lat="37.17534" lon="27.79559">
        <ele>109.673</ele>
      </trkpt>
      <trkpt lat="37.17536" lon="27.79564">
        <ele>110.809</ele>
      </trkpt>
      <trkpt lat="37.17537" lon="27.79565">
        <ele>111.166</ele>
      </trkpt>
      <trkpt lat="37.17536" lon="27.79568">
        <ele>111.257</ele>
      </trkpt>
      <trkpt lat="37.17534" lon="27.79574">
        <ele>111.326</ele>
      </trkpt>
      <trkpt lat="37.17534" lon="27.79575">
        <ele>111.323</ele>
      </trkpt>
      <trkpt lat="37.17534" lon="27.79577">
        <ele>111.518</ele>
      </trkpt>
      <trkpt lat="37.17532" lon="27.79581">
        <ele>111.148</ele>
      </trkpt>
      <trkpt lat="37.17529" lon="27.79587">
        <ele>110.23</ele>
      </trkpt>
      <trkpt lat="37.17531" lon="27.79588">
        <ele>110.959</ele>
      </trkpt>
      <trkpt lat="37.17529" lon="27.79595">
        <ele>110.136</ele>
      </trkpt>
      <trkpt lat="37.17528" lon="27.79605">
        <ele>109.368</ele>
      </trkpt>
      <trkpt lat="37.17531" lon="27.79604">
        <ele>110.413</ele>
      </trkpt>
      <trkpt lat="37.1753" lon="27.79609">
        <ele>109.906</ele>
      </trkpt>
      <trkpt lat="37.1753" lon="27.79609">
        <ele>109.725</ele>
      </trkpt>
      <trkpt lat="37.17529" lon="27.79611">
        <ele>109.496</ele>
      </trkpt>
      <trkpt lat="37.1753" lon="27.79616">
        <ele>109.82</ele>
      </trkpt>
      <trkpt lat="37.1753" lon="27.79617">
        <ele>109.884</ele>
      </trkpt>
      <trkpt lat="37.17532" lon="27.79624">
        <ele>110.406</ele>
      </trkpt>
      <trkpt lat="37.17533" lon="27.7963">
        <ele>110.892</ele>
      </trkpt>
      <trkpt lat="37.17531" lon="27.79637">
        <ele>110.063</ele>
      </trkpt>
      <trkpt lat="37.17527" lon="27.79636">
        <ele>108.976</ele>
      </trkpt>
      <trkpt lat="37.1752" lon="27.79637">
        <ele>108.447</ele>
      </trkpt>
      <trkpt lat="37.17517" lon="27.7964">
        <ele>108.278</ele>
      </trkpt>
      <trkpt lat="37.17518" lon="27.7964">
        <ele>108.318</ele>
      </trkpt>
      <trkpt lat="37.17517" lon="27.7964">
        <ele>108.238</ele>
      </trkpt>
      <trkpt lat="37.17515" lon="27.7964">
        <ele>108.105</ele>
      </trkpt>
      <trkpt lat="37.17515" lon="27.79641">
        <ele>108.077</ele>
      </trkpt>
      <trkpt lat="37.17514" lon="27.7964">
        <ele>108.063</ele>
      </trkpt>
      <trkpt lat="37.1751" lon="27.79639">
        <ele>107.709</ele>
      </trkpt>
      <trkpt lat="37.17509" lon="27.7964">
        <ele>107.658</ele>
      </trkpt>
      <trkpt lat="37.17508" lon="27.7964">
        <ele>107.589</ele>
      </trkpt>
      <trkpt lat="37.17509" lon="27.79641">
        <ele>107.682</ele>
      </trkpt>
      <trkpt lat="37.17508" lon="27.79642">
        <ele>107.539</ele>
      </trkpt>
      <trkpt lat="37.17507" lon="27.79642">
        <ele>107.475</ele>
      </trkpt>
      <trkpt lat="37.17505" lon="27.79643">
        <ele>107.271</ele>
      </trkpt>
      <trkpt lat="37.17504" lon="27.79641">
        <ele>107.219</ele>
      </trkpt>
      <trkpt lat="37.17502" lon="27.79638">
        <ele>107.165</ele>
      </trkpt>
      <trkpt lat="37.17502" lon="27.79637">
        <ele>107.147</ele>
      </trkpt>
      <trkpt lat="37.17502" lon="27.79635">
        <ele>107.173</ele>
      </trkpt>
      <trkpt lat="37.17498" lon="27.79636">
        <ele>107.264</ele>
      </trkpt>
      <trkpt lat="37.17498" lon="27.79639">
        <ele>107.279</ele>
      </trkpt>
      <trkpt lat="37.17496" lon="27.79638">
        <ele>107.421</ele>
      </trkpt>
      <trkpt lat="37.17496" lon="27.79639">
        <ele>107.485</ele>
      </trkpt>
      <trkpt lat="37.17494" lon="27.7964">
        <ele>107.631</ele>
      </trkpt>
      <trkpt lat="37.17493" lon="27.79641">
        <ele>107.703</ele>
      </trkpt>
      <trkpt lat="37.17492" lon="27.79641">
        <ele>107.818</ele>
      </trkpt>
      <trkpt lat="37.17494" lon="27.79646">
        <ele>107.372</ele>
      </trkpt>
      <trkpt lat="37.17493" lon="27.79647">
        <ele>107.4</ele>
      </trkpt>
      <trkpt lat="37.17492" lon="27.79651">
        <ele>107.287</ele>
      </trkpt>
      <trkpt lat="37.17492" lon="27.7966">
        <ele>106.86</ele>
      </trkpt>
      <trkpt lat="37.17491" lon="27.79667">
        <ele>106.664</ele>
      </trkpt>
      <trkpt lat="37.17491" lon="27.79674">
        <ele>106.863</ele>
      </trkpt>
      <trkpt lat="37.17488" lon="27.79681">
        <ele>107.142</ele>
      </trkpt>
      <trkpt lat="37.17485" lon="27.79685">
        <ele>107.391</ele>
      </trkpt>
      <trkpt lat="37.17479" lon="27.79686">
        <ele>107.665</ele>
      </trkpt>
      <trkpt lat="37.17479" lon="27.79686">
        <ele>107.693</ele>
      </trkpt>
      <trkpt lat="37.17477" lon="27.79686">
        <ele>107.767</ele>
      </trkpt>
      <trkpt lat="37.17466" lon="27.79687">
        <ele>108.06</ele>
      </trkpt>
      <trkpt lat="37.17462" lon="27.79688">
        <ele>108.045</ele>
      </trkpt>
      <trkpt lat="37.17462" lon="27.79688">
        <ele>108.053</ele>
      </trkpt>
      <trkpt lat="37.17455" lon="27.79691">
        <ele>107.781</ele>
      </trkpt>
      <trkpt lat="37.17453" lon="27.7969">
        <ele>107.814</ele>
      </trkpt>
      <trkpt lat="37.17455" lon="27.79691">
        <ele>107.743</ele>
      </trkpt>
      <trkpt lat="37.17449" lon="27.79692">
        <ele>107.49</ele>
      </trkpt>
      <trkpt lat="37.17446" lon="27.79695">
        <ele>107.048</ele>
      </trkpt>
      <trkpt lat="37.17441" lon="27.79695">
        <ele>106.743</ele>
      </trkpt>
      <trkpt lat="37.17439" lon="27.79695">
        <ele>106.568</ele>
      </trkpt>
      <trkpt lat="37.17441" lon="27.79694">
        <ele>106.869</ele>
      </trkpt>
      <trkpt lat="37.17441" lon="27.79693">
        <ele>106.961</ele>
      </trkpt>
      <trkpt lat="37.17433" lon="27.79692">
        <ele>106.811</ele>
      </trkpt>
      <trkpt lat="37.17425" lon="27.7969">
        <ele>106.68</ele>
      </trkpt>
      <trkpt lat="37.17417" lon="27.79692">
        <ele>105.685</ele>
      </trkpt>
      <trkpt lat="37.17413" lon="27.79691">
        <ele>106.374</ele>
      </trkpt>
      <trkpt lat="37.17411" lon="27.79689">
        <ele>107.04</ele>
      </trkpt>
      <trkpt lat="37.17404" lon="27.79688">
        <ele>107.637</ele>
      </trkpt>
      <trkpt lat="37.17396" lon="27.79685">
        <ele>108.998</ele>
      </trkpt>
      <trkpt lat="37.17389" lon="27.79685">
        <ele>109.286</ele>
      </trkpt>
      <trkpt lat="37.17385" lon="27.79687">
        <ele>109.012</ele>
      </trkpt>
      <trkpt lat="37.17384" lon="27.79685">
        <ele>109.38</ele>
      </trkpt>
      <trkpt lat="37.17379" lon="27.79684">
        <ele>109.581</ele>
      </trkpt>
      <trkpt lat="37.17376" lon="27.79684">
        <ele>109.567</ele>
      </trkpt>
      <trkpt lat="37.17369" lon="27.79684">
        <ele>109.543</ele>
      </trkpt>
      <trkpt lat="37.17364" lon="27.79684">
        <ele>109.545</ele>
      </trkpt>
      <trkpt lat="37.17359" lon="27.79679">
        <ele>110.135</ele>
      </trkpt>
      <trkpt lat="37.17355" lon="27.79675">
        <ele>110.549</ele>
      </trkpt>
      <trkpt lat="37.17349" lon="27.79674">
        <ele>110.529</ele>
      </trkpt>
      <trkpt lat="37.17343" lon="27.79673">
        <ele>110.432</ele>
      </trkpt>
      <trkpt lat="37.1734" lon="27.7967">
        <ele>110.701</ele>
      </trkpt>
      <trkpt lat="37.17337" lon="27.79669">
        <ele>110.853</ele>
      </trkpt>
      <trkpt lat="37.17335" lon="27.79668">
        <ele>110.844</ele>
      </trkpt>
      <trkpt lat="37.17329" lon="27.79667">
        <ele>110.563</ele>
      </trkpt>
      <trkpt lat="37.1732" lon="27.79663">
        <ele>111.213</ele>
      </trkpt>
      <trkpt lat="37.17315" lon="27.79661">
        <ele>111.221</ele>
      </trkpt>
      <trkpt lat="37.17312" lon="27.79661">
        <ele>111.047</ele>
      </trkpt>
      <trkpt lat="37.17306" lon="27.79659">
        <ele>110.94</ele>
      </trkpt>
      <trkpt lat="37.17303" lon="27.79659">
        <ele>110.799</ele>
      </trkpt>
      <trkpt lat="37.17298" lon="27.79663">
        <ele>109.419</ele>
      </trkpt>
      <trkpt lat="37.17296" lon="27.7966">
        <ele>109.792</ele>
      </trkpt>
      <trkpt lat="37.17286" lon="27.79659">
        <ele>109.326</ele>
      </trkpt>
      <trkpt lat="37.17281" lon="27.79657">
        <ele>109.391</ele>
      </trkpt>
      <trkpt lat="37.17273" lon="27.79656">
        <ele>109.277</ele>
      </trkpt>
      <trkpt lat="37.1727" lon="27.79657">
        <ele>109.231</ele>
      </trkpt>
      <trkpt lat="37.17269" lon="27.79656">
        <ele>109.393</ele>
      </trkpt>
      <trkpt lat="37.1727" lon="27.79657">
        <ele>109.127</ele>
      </trkpt>
      <trkpt lat="37.17267" lon="27.79656">
        <ele>109.461</ele>
      </trkpt>
      <trkpt lat="37.17262" lon="27.79656">
        <ele>109.533</ele>
      </trkpt>
      <trkpt lat="37.17261" lon="27.79656">
        <ele>109.521</ele>
      </trkpt>
      <trkpt lat="37.17261" lon="27.79658">
        <ele>109.092</ele>
      </trkpt>
      <trkpt lat="37.17259" lon="27.79661">
        <ele>108.48</ele>
      </trkpt>
      <trkpt lat="37.17256" lon="27.79662">
        <ele>108.202</ele>
      </trkpt>
      <trkpt lat="37.17248" lon="27.79661">
        <ele>108.807</ele>
      </trkpt>
      <trkpt lat="37.17244" lon="27.79661">
        <ele>109.433</ele>
      </trkpt>
      <trkpt lat="37.17241" lon="27.79661">
        <ele>110.249</ele>
      </trkpt>
      <trkpt lat="37.17242" lon="27.79663">
        <ele>109.163</ele>
      </trkpt>
      <trkpt lat="37.1724" lon="27.79664">
        <ele>109.506</ele>
      </trkpt>
      <trkpt lat="37.17238" lon="27.79668">
        <ele>108.572</ele>
      </trkpt>
      <trkpt lat="37.17238" lon="27.79668">
        <ele>108.621</ele>
      </trkpt>
      <trkpt lat="37.17237" lon="27.79668">
        <ele>108.745</ele>
      </trkpt>
      <trkpt lat="37.17237" lon="27.7967">
        <ele>108.448</ele>
      </trkpt>
      <trkpt lat="37.17235" lon="27.79671">
        <ele>108.526</ele>
      </trkpt>
      <trkpt lat="37.17231" lon="27.79673">
        <ele>108.682</ele>
      </trkpt>
      <trkpt lat="37.17231" lon="27.79674">
        <ele>108.513</ele>
      </trkpt>
      <trkpt lat="37.17229" lon="27.79674">
        <ele>108.672</ele>
      </trkpt>
      <trkpt lat="37.17228" lon="27.79677">
        <ele>108.268</ele>
      </trkpt>
      <trkpt lat="37.17225" lon="27.79678">
        <ele>108.375</ele>
      </trkpt>
      <trkpt lat="37.17222" lon="27.79678">
        <ele>108.52</ele>
      </trkpt>
      <trkpt lat="37.17219" lon="27.7968">
        <ele>108.475</ele>
      </trkpt>
      <trkpt lat="37.17218" lon="27.79684">
        <ele>107.608</ele>
      </trkpt>
      <trkpt lat="37.17217" lon="27.79687">
        <ele>106.985</ele>
      </trkpt>
      <trkpt lat="37.17217" lon="27.79693">
        <ele>105.487</ele>
      </trkpt>
      <trkpt lat="37.17215" lon="27.79699">
        <ele>105.116</ele>
      </trkpt>
      <trkpt lat="37.17214" lon="27.797">
        <ele>105.101</ele>
      </trkpt>
      <trkpt lat="37.1721" lon="27.79703">
        <ele>105.124</ele>
      </trkpt>
      <trkpt lat="37.17209" lon="27.79709">
        <ele>104.983</ele>
      </trkpt>
      <trkpt lat="37.17205" lon="27.79712">
        <ele>104.997</ele>
      </trkpt>
      <trkpt lat="37.17202" lon="27.79715">
        <ele>104.999</ele>
      </trkpt>
      <trkpt lat="37.172" lon="27.79718">
        <ele>104.97</ele>
      </trkpt>
      <trkpt lat="37.172" lon="27.79722">
        <ele>104.804</ele>
      </trkpt>
      <trkpt lat="37.172" lon="27.79724">
        <ele>104.829</ele>
      </trkpt>
      <trkpt lat="37.172" lon="27.79728">
        <ele>104.876</ele>
      </trkpt>
      <trkpt lat="37.17199" lon="27.79731">
        <ele>104.934</ele>
      </trkpt>
      <trkpt lat="37.17197" lon="27.79734">
        <ele>104.985</ele>
      </trkpt>
      <trkpt lat="37.17198" lon="27.79733">
        <ele>104.973</ele>
      </trkpt>
      <trkpt lat="37.17198" lon="27.79735">
        <ele>104.986</ele>
      </trkpt>
      <trkpt lat="37.17194" lon="27.79734">
        <ele>105.016</ele>
      </trkpt>
      <trkpt lat="37.17191" lon="27.79741">
        <ele>105.172</ele>
      </trkpt>
      <trkpt lat="37.17189" lon="27.79743">
        <ele>105.258</ele>
      </trkpt>
      <trkpt lat="37.17186" lon="27.79746">
        <ele>105.337</ele>
      </trkpt>
      <trkpt lat="37.17186" lon="27.79749">
        <ele>105.326</ele>
      </trkpt>
      <trkpt lat="37.17185" lon="27.79754">
        <ele>105.373</ele>
      </trkpt>
      <trkpt lat="37.17185" lon="27.79757">
        <ele>105.428</ele>
      </trkpt>
      <trkpt lat="37.17183" lon="27.79758">
        <ele>105.461</ele>
      </trkpt>
      <trkpt lat="37.17184" lon="27.79764">
        <ele>105.5</ele>
      </trkpt>
      <trkpt lat="37.17184" lon="27.79763">
        <ele>105.494</ele>
      </trkpt>
      <trkpt lat="37.17185" lon="27.79764">
        <ele>105.501</ele>
      </trkpt>
      <trkpt lat="37.17182" lon="27.79765">
        <ele>105.504</ele>
      </trkpt>
      <trkpt lat="37.17181" lon="27.79769">
        <ele>105.501</ele>
      </trkpt>
      <trkpt lat="37.17181" lon="27.79776">
        <ele>105.512</ele>
      </trkpt>
      <trkpt lat="37.17181" lon="27.79779">
        <ele>105.599</ele>
      </trkpt>
      <trkpt lat="37.17178" lon="27.79785">
        <ele>105.834</ele>
      </trkpt>
      <trkpt lat="37.17176" lon="27.79787">
        <ele>105.909</ele>
      </trkpt>
      <trkpt lat="37.17176" lon="27.79788">
        <ele>105.937</ele>
      </trkpt>
      <trkpt lat="37.17177" lon="27.79788">
        <ele>106.019</ele>
      </trkpt>
      <trkpt lat="37.17176" lon="27.79789">
        <ele>106.012</ele>
      </trkpt>
      <trkpt lat="37.17176" lon="27.79789">
        <ele>106.003</ele>
      </trkpt>
      <trkpt lat="37.17175" lon="27.7979">
        <ele>105.97</ele>
      </trkpt>
      <trkpt lat="37.17169" lon="27.79796">
        <ele>105.823</ele>
      </trkpt>
      <trkpt lat="37.17166" lon="27.79797">
        <ele>105.707</ele>
      </trkpt>
      <trkpt lat="37.17163" lon="27.79802">
        <ele>106.041</ele>
      </trkpt>
      <trkpt lat="37.1716" lon="27.79809">
        <ele>106.529</ele>
      </trkpt>
      <trkpt lat="37.17156" lon="27.79816">
        <ele>107.127</ele>
      </trkpt>
      <trkpt lat="37.17153" lon="27.79822">
        <ele>107.657</ele>
      </trkpt>
      <trkpt lat="37.17149" lon="27.79825">
        <ele>108.047</ele>
      </trkpt>
      <trkpt lat="37.17146" lon="27.79827">
        <ele>108.303</ele>
      </trkpt>
      <trkpt lat="37.17142" lon="27.7983">
        <ele>108.667</ele>
      </trkpt>
      <trkpt lat="37.17136" lon="27.79835">
        <ele>109.051</ele>
      </trkpt>
      <trkpt lat="37.17133" lon="27.79836">
        <ele>109.147</ele>
      </trkpt>
      <trkpt lat="37.17131" lon="27.79843">
        <ele>109.055</ele>
      </trkpt>
      <trkpt lat="37.17129" lon="27.79846">
        <ele>109.08</ele>
      </trkpt>
      <trkpt lat="37.17125" lon="27.79853">
        <ele>109.174</ele>
      </trkpt>
      <trkpt lat="37.17121" lon="27.79859">
        <ele>109.292</ele>
      </trkpt>
      <trkpt lat="37.17118" lon="27.79864">
        <ele>109.23</ele>
      </trkpt>
      <trkpt lat="37.17113" lon="27.7987">
        <ele>108.982</ele>
      </trkpt>
      <trkpt lat="37.17107" lon="27.7988">
        <ele>107.991</ele>
      </trkpt>
      <trkpt lat="37.17105" lon="27.79884">
        <ele>107.52</ele>
      </trkpt>
      <trkpt lat="37.171" lon="27.79891">
        <ele>106.881</ele>
      </trkpt>
      <trkpt lat="37.17098" lon="27.79896">
        <ele>106.604</ele>
      </trkpt>
      <trkpt lat="37.17093" lon="27.79898">
        <ele>106.485</ele>
      </trkpt>
      <trkpt lat="37.17091" lon="27.79901">
        <ele>106.274</ele>
      </trkpt>
      <trkpt lat="37.17091" lon="27.79902">
        <ele>106.168</ele>
      </trkpt>
      <trkpt lat="37.17087" lon="27.79907">
        <ele>105.799</ele>
      </trkpt>
      <trkpt lat="37.17086" lon="27.79908">
        <ele>105.7</ele>
      </trkpt>
      <trkpt lat="37.17084" lon="27.79913">
        <ele>105.326</ele>
      </trkpt>
      <trkpt lat="37.17082" lon="27.79917">
        <ele>105.165</ele>
      </trkpt>
      <trkpt lat="37.17078" lon="27.79924">
        <ele>105.654</ele>
      </trkpt>
      <trkpt lat="37.17077" lon="27.79927">
        <ele>105.776</ele>
      </trkpt>
      <trkpt lat="37.17077" lon="27.79932">
        <ele>105.867</ele>
      </trkpt>
      <trkpt lat="37.17076" lon="27.79933">
        <ele>105.92</ele>
      </trkpt>
      <trkpt lat="37.17076" lon="27.79937">
        <ele>105.951</ele>
      </trkpt>
      <trkpt lat="37.17073" lon="27.79938">
        <ele>106.017</ele>
      </trkpt>
      <trkpt lat="37.17069" lon="27.79951">
        <ele>106.108</ele>
      </trkpt>
      <trkpt lat="37.17068" lon="27.79953">
        <ele>106.134</ele>
      </trkpt>
      <trkpt lat="37.17067" lon="27.79956">
        <ele>106.165</ele>
      </trkpt>
      <trkpt lat="37.17065" lon="27.79961">
        <ele>106.194</ele>
      </trkpt>
      <trkpt lat="37.17065" lon="27.79964">
        <ele>106.235</ele>
      </trkpt>
      <trkpt lat="37.17064" lon="27.7997">
        <ele>106.259</ele>
      </trkpt>
      <trkpt lat="37.17061" lon="27.79973">
        <ele>106.196</ele>
      </trkpt>
      <trkpt lat="37.1706" lon="27.7998">
        <ele>106.409</ele>
      </trkpt>
      <trkpt lat="37.17053" lon="27.79993">
        <ele>106.829</ele>
      </trkpt>
      <trkpt lat="37.17052" lon="27.80001">
        <ele>107.122</ele>
      </trkpt>
      <trkpt lat="37.17051" lon="27.80009">
        <ele>106.893</ele>
      </trkpt>
      <trkpt lat="37.17049" lon="27.80018">
        <ele>106.76</ele>
      </trkpt>
      <trkpt lat="37.17046" lon="27.80037">
        <ele>106.715</ele>
      </trkpt>
      <trkpt lat="37.1704" lon="27.80054">
        <ele>107.153</ele>
      </trkpt>
      <trkpt lat="37.17033" lon="27.80071">
        <ele>107.185</ele>
      </trkpt>
      <trkpt lat="37.17027" lon="27.80086">
        <ele>107.022</ele>
      </trkpt>
      <trkpt lat="37.17025" lon="27.80093">
        <ele>107.09</ele>
      </trkpt>
      <trkpt lat="37.17024" lon="27.80098">
        <ele>107.12</ele>
      </trkpt>
      <trkpt lat="37.17022" lon="27.80101">
        <ele>107.205</ele>
      </trkpt>
      <trkpt lat="37.17023" lon="27.80104">
        <ele>107.178</ele>
      </trkpt>
      <trkpt lat="37.17023" lon="27.80104">
        <ele>107.187</ele>
      </trkpt>
      <trkpt lat="37.1702" lon="27.80104">
        <ele>107.275</ele>
      </trkpt>
      <trkpt lat="37.17021" lon="27.80105">
        <ele>107.257</ele>
      </trkpt>
      <trkpt lat="37.1702" lon="27.80105">
        <ele>107.288</ele>
      </trkpt>
      <trkpt lat="37.1702" lon="27.80107">
        <ele>107.267</ele>
      </trkpt>
      <trkpt lat="37.17018" lon="27.80118">
        <ele>107.264</ele>
      </trkpt>
      <trkpt lat="37.17016" lon="27.80126">
        <ele>107.198</ele>
      </trkpt>
      <trkpt lat="37.17013" lon="27.8014">
        <ele>107</ele>
      </trkpt>
      <trkpt lat="37.17009" lon="27.80148">
        <ele>107</ele>
      </trkpt>
      <trkpt lat="37.1701" lon="27.80149">
        <ele>107</ele>
      </trkpt>
      <trkpt lat="37.17009" lon="27.80149">
        <ele>107</ele>
      </trkpt>
      <trkpt lat="37.17009" lon="27.80154">
        <ele>107</ele>
      </trkpt>
      <trkpt lat="37.17007" lon="27.80165">
        <ele>107</ele>
      </trkpt>
      <trkpt lat="37.17005" lon="27.8018">
        <ele>107</ele>
      </trkpt>
      <trkpt lat="37.17002" lon="27.80187">
        <ele>107</ele>
      </trkpt>
      <trkpt lat="37.17001" lon="27.80188">
        <ele>107</ele>
      </trkpt>
      <trkpt lat="37.17" lon="27.80188">
        <ele>107</ele>
      </trkpt>
      <trkpt lat="37.17" lon="27.80188">
        <ele>107</ele>
      </trkpt>
      <trkpt lat="37.17002" lon="27.8019">
        <ele>107</ele>
      </trkpt>
      <trkpt lat="37.17001" lon="27.80194">
        <ele>107</ele>
      </trkpt>
      <trkpt lat="37.17" lon="27.80194">
        <ele>107</ele>
      </trkpt>
      <trkpt lat="37.17" lon="27.802">
        <ele>107.019</ele>
      </trkpt>
      <trkpt lat="37.16995" lon="27.80215">
        <ele>107.183</ele>
      </trkpt>
      <trkpt lat="37.1699" lon="27.80227">
        <ele>107.467</ele>
      </trkpt>
      <trkpt lat="37.16986" lon="27.80236">
        <ele>107.97</ele>
      </trkpt>
      <trkpt lat="37.16984" lon="27.80241">
        <ele>108.296</ele>
      </trkpt>
      <trkpt lat="37.16981" lon="27.8025">
        <ele>109.029</ele>
      </trkpt>
      <trkpt lat="37.16976" lon="27.80262">
        <ele>109.624</ele>
      </trkpt>
      <trkpt lat="37.16975" lon="27.80267">
        <ele>109.778</ele>
      </trkpt>
      <trkpt lat="37.16974" lon="27.80266">
        <ele>109.873</ele>
      </trkpt>
      <trkpt lat="37.16972" lon="27.80262">
        <ele>110.004</ele>
      </trkpt>
      <trkpt lat="37.16969" lon="27.80265">
        <ele>110.067</ele>
      </trkpt>
      <trkpt lat="37.16959" lon="27.80276">
        <ele>110.447</ele>
      </trkpt>
      <trkpt lat="37.16948" lon="27.80289">
        <ele>110.14</ele>
      </trkpt>
      <trkpt lat="37.16936" lon="27.80303">
        <ele>109.444</ele>
      </trkpt>
      <trkpt lat="37.16921" lon="27.80321">
        <ele>109.751</ele>
      </trkpt>
      <trkpt lat="37.16912" lon="27.80333">
        <ele>110.178</ele>
      </trkpt>
      <trkpt lat="37.16911" lon="27.80335">
        <ele>110.19</ele>
      </trkpt>
      <trkpt lat="37.1691" lon="27.80336">
        <ele>110.194</ele>
      </trkpt>
      <trkpt lat="37.16907" lon="27.80337">
        <ele>110.249</ele>
      </trkpt>
      <trkpt lat="37.16898" lon="27.80345">
        <ele>110.521</ele>
      </trkpt>
      <trkpt lat="37.16885" lon="27.80357">
        <ele>111.13</ele>
      </trkpt>
      <trkpt lat="37.16876" lon="27.80366">
        <ele>111.372</ele>
      </trkpt>
      <trkpt lat="37.16873" lon="27.80369">
        <ele>111.421</ele>
      </trkpt>
      <trkpt lat="37.16873" lon="27.80369">
        <ele>111.404</ele>
      </trkpt>
      <trkpt lat="37.1687" lon="27.80372">
        <ele>111.437</ele>
      </trkpt>
      <trkpt lat="37.16868" lon="27.80372">
        <ele>111.452</ele>
      </trkpt>
      <trkpt lat="37.16869" lon="27.8037">
        <ele>111.503</ele>
      </trkpt>
      <trkpt lat="37.16865" lon="27.80373">
        <ele>111.493</ele>
      </trkpt>
      <trkpt lat="37.16865" lon="27.80375">
        <ele>111.453</ele>
      </trkpt>
      <trkpt lat="37.16862" lon="27.80379">
        <ele>111.349</ele>
      </trkpt>
      <trkpt lat="37.16858" lon="27.8038">
        <ele>111.388</ele>
      </trkpt>
      <trkpt lat="37.16858" lon="27.8038">
        <ele>111.396</ele>
      </trkpt>
      <trkpt lat="37.16858" lon="27.80382">
        <ele>111.349</ele>
      </trkpt>
      <trkpt lat="37.16852" lon="27.80387">
        <ele>111.374</ele>
      </trkpt>
      <trkpt lat="37.16843" lon="27.80396">
        <ele>111.733</ele>
      </trkpt>
      <trkpt lat="37.16843" lon="27.80397">
        <ele>111.768</ele>
      </trkpt>
      <trkpt lat="37.16834" lon="27.80407">
        <ele>111.986</ele>
      </trkpt>
      <trkpt lat="37.16832" lon="27.80408">
        <ele>112.037</ele>
      </trkpt>
      <trkpt lat="37.16833" lon="27.80407">
        <ele>112.02</ele>
      </trkpt>
      <trkpt lat="37.16831" lon="27.80406">
        <ele>112.045</ele>
      </trkpt>
      <trkpt lat="37.1683" lon="27.80408">
        <ele>112.083</ele>
      </trkpt>
      <trkpt lat="37.16823" lon="27.80416">
        <ele>112.366</ele>
      </trkpt>
      <trkpt lat="37.16813" lon="27.80428">
        <ele>112.544</ele>
      </trkpt>
      <trkpt lat="37.16804" lon="27.80437">
        <ele>112.253</ele>
      </trkpt>
      <trkpt lat="37.16794" lon="27.80448">
        <ele>112.065</ele>
      </trkpt>
      <trkpt lat="37.16784" lon="27.80458">
        <ele>112.109</ele>
      </trkpt>
      <trkpt lat="37.1677" lon="27.80467">
        <ele>111.953</ele>
      </trkpt>
      <trkpt lat="37.16759" lon="27.80477">
        <ele>112</ele>
      </trkpt>
      <trkpt lat="37.1675" lon="27.80487">
        <ele>112</ele>
      </trkpt>
      <trkpt lat="37.16749" lon="27.80488">
        <ele>112.019</ele>
      </trkpt>
      <trkpt lat="37.16749" lon="27.80487">
        <ele>112.017</ele>
      </trkpt>
      <trkpt lat="37.16746" lon="27.80494">
        <ele>112.03</ele>
      </trkpt>
      <trkpt lat="37.16739" lon="27.80503">
        <ele>111.904</ele>
      </trkpt>
      <trkpt lat="37.16731" lon="27.80512">
        <ele>111.582</ele>
      </trkpt>
      <trkpt lat="37.16729" lon="27.80516">
        <ele>111.434</ele>
      </trkpt>
      <trkpt lat="37.16727" lon="27.80517">
        <ele>111.385</ele>
      </trkpt>
      <trkpt lat="37.16711" lon="27.80535">
        <ele>110.901</ele>
      </trkpt>
      <trkpt lat="37.16701" lon="27.80539">
        <ele>110.947</ele>
      </trkpt>
      <trkpt lat="37.16696" lon="27.80543">
        <ele>110.886</ele>
      </trkpt>
      <trkpt lat="37.16691" lon="27.80546">
        <ele>110.933</ele>
      </trkpt>
      <trkpt lat="37.16688" lon="27.8055">
        <ele>110.823</ele>
      </trkpt>
      <trkpt lat="37.16683" lon="27.80556">
        <ele>110.825</ele>
      </trkpt>
      <trkpt lat="37.16676" lon="27.80567">
        <ele>111.059</ele>
      </trkpt>
      <trkpt lat="37.16674" lon="27.80571">
        <ele>111.078</ele>
      </trkpt>
      <trkpt lat="37.16674" lon="27.80572">
        <ele>111.072</ele>
      </trkpt>
      <trkpt lat="37.16673" lon="27.80573">
        <ele>111.065</ele>
      </trkpt>
      <trkpt lat="37.16672" lon="27.80573">
        <ele>111.096</ele>
      </trkpt>
      <trkpt lat="37.16672" lon="27.80576">
        <ele>111.033</ele>
      </trkpt>
      <trkpt lat="37.16671" lon="27.80581">
        <ele>110.899</ele>
      </trkpt>
      <trkpt lat="37.16669" lon="27.80589">
        <ele>110.923</ele>
      </trkpt>
      <trkpt lat="37.16667" lon="27.80591">
        <ele>110.984</ele>
      </trkpt>
      <trkpt lat="37.16666" lon="27.80594">
        <ele>111.035</ele>
      </trkpt>
      <trkpt lat="37.16667" lon="27.80593">
        <ele>110.988</ele>
      </trkpt>
      <trkpt lat="37.16671" lon="27.80589">
        <ele>110.855</ele>
      </trkpt>
      <trkpt lat="37.1667" lon="27.80589">
        <ele>110.866</ele>
      </trkpt>
      <trkpt lat="37.16668" lon="27.80589">
        <ele>110.943</ele>
      </trkpt>
      <trkpt lat="37.16655" lon="27.80605">
        <ele>111.432</ele>
      </trkpt>
      <trkpt lat="37.16633" lon="27.80613">
        <ele>112</ele>
      </trkpt>
      <trkpt lat="37.16612" lon="27.80616">
        <ele>112</ele>
      </trkpt>
      <trkpt lat="37.16591" lon="27.80627">
        <ele>112.296</ele>
      </trkpt>
      <trkpt lat="37.16577" lon="27.80627">
        <ele>112.866</ele>
      </trkpt>
      <trkpt lat="37.16564" lon="27.80616">
        <ele>114.262</ele>
      </trkpt>
      <trkpt lat="37.16548" lon="27.80602">
        <ele>118.609</ele>
      </trkpt>
      <trkpt lat="37.16537" lon="27.806">
        <ele>122.294</ele>
      </trkpt>
      <trkpt lat="37.16527" lon="27.80611">
        <ele>123.252</ele>
      </trkpt>
      <trkpt lat="37.16525" lon="27.80617">
        <ele>123.079</ele>
      </trkpt>
      <trkpt lat="37.16522" lon="27.80619">
        <ele>123.973</ele>
      </trkpt>
      <trkpt lat="37.16512" lon="27.80632">
        <ele>125.566</ele>
      </trkpt>
      <trkpt lat="37.165" lon="27.8065">
        <ele>126.54</ele>
      </trkpt>
      <trkpt lat="37.16492" lon="27.80669">
        <ele>125.609</ele>
      </trkpt>
      <trkpt lat="37.16482" lon="27.80686">
        <ele>125.242</ele>
      </trkpt>
      <trkpt lat="37.16473" lon="27.807">
        <ele>124.906</ele>
      </trkpt>
      <trkpt lat="37.16471" lon="27.80705">
        <ele>124.809</ele>
      </trkpt>
      <trkpt lat="37.16467" lon="27.80714">
        <ele>124.296</ele>
      </trkpt>
      <trkpt lat="37.16459" lon="27.80726">
        <ele>123.989</ele>
      </trkpt>
      <trkpt lat="37.1645" lon="27.80744">
        <ele>123.186</ele>
      </trkpt>
      <trkpt lat="37.1644" lon="27.80761">
        <ele>123.225</ele>
      </trkpt>
      <trkpt lat="37.16424" lon="27.80777">
        <ele>124.697</ele>
      </trkpt>
      <trkpt lat="37.16417" lon="27.80786">
        <ele>125.04</ele>
      </trkpt>
      <trkpt lat="37.16401" lon="27.80801">
        <ele>125.738</ele>
      </trkpt>
      <trkpt lat="37.16386" lon="27.80811">
        <ele>126.729</ele>
      </trkpt>
      <trkpt lat="37.16367" lon="27.80819">
        <ele>127.864</ele>
      </trkpt>
      <trkpt lat="37.16349" lon="27.80824">
        <ele>128.452</ele>
      </trkpt>
      <trkpt lat="37.16347" lon="27.80826">
        <ele>128.273</ele>
      </trkpt>
      <trkpt lat="37.16343" lon="27.80826">
        <ele>128.255</ele>
      </trkpt>
      <trkpt lat="37.16327" lon="27.8083">
        <ele>128.105</ele>
      </trkpt>
      <trkpt lat="37.16314" lon="27.80831">
        <ele>128.179</ele>
      </trkpt>
      <trkpt lat="37.16301" lon="27.80833">
        <ele>128.655</ele>
      </trkpt>
      <trkpt lat="37.16277" lon="27.80842">
        <ele>128.819</ele>
      </trkpt>
      <trkpt lat="37.16253" lon="27.8085">
        <ele>128.699</ele>
      </trkpt>
      <trkpt lat="37.16233" lon="27.80861">
        <ele>126.957</ele>
      </trkpt>
      <trkpt lat="37.16222" lon="27.80868">
        <ele>126.081</ele>
      </trkpt>
      <trkpt lat="37.16223" lon="27.80866">
        <ele>126.322</ele>
      </trkpt>
      <trkpt lat="37.16223" lon="27.80865">
        <ele>126.384</ele>
      </trkpt>
      <trkpt lat="37.16223" lon="27.80865">
        <ele>126.392</ele>
      </trkpt>
      <trkpt lat="37.16216" lon="27.80869">
        <ele>125.98</ele>
      </trkpt>
      <trkpt lat="37.16209" lon="27.8087">
        <ele>125.985</ele>
      </trkpt>
      <trkpt lat="37.16176" lon="27.80848">
        <ele>130.753</ele>
      </trkpt>
      <trkpt lat="37.1616" lon="27.80835">
        <ele>133.698</ele>
      </trkpt>
      <trkpt lat="37.16143" lon="27.80829">
        <ele>138.208</ele>
      </trkpt>
      <trkpt lat="37.16125" lon="27.80824">
        <ele>140.471</ele>
      </trkpt>
      <trkpt lat="37.16115" lon="27.80816">
        <ele>141.166</ele>
      </trkpt>
      <trkpt lat="37.16112" lon="27.80818">
        <ele>141.409</ele>
      </trkpt>
      <trkpt lat="37.1611" lon="27.80817">
        <ele>141.404</ele>
      </trkpt>
      <trkpt lat="37.16095" lon="27.80813">
        <ele>141.122</ele>
      </trkpt>
      <trkpt lat="37.16083" lon="27.80803">
        <ele>140.886</ele>
      </trkpt>
      <trkpt lat="37.16069" lon="27.80781">
        <ele>140.987</ele>
      </trkpt>
      <trkpt lat="37.16063" lon="27.80771">
        <ele>141.7</ele>
      </trkpt>
      <trkpt lat="37.16055" lon="27.80748">
        <ele>143.027</ele>
      </trkpt>
      <trkpt lat="37.16044" lon="27.80732">
        <ele>143.681</ele>
      </trkpt>
      <trkpt lat="37.16031" lon="27.80716">
        <ele>144.822</ele>
      </trkpt>
      <trkpt lat="37.16012" lon="27.80704">
        <ele>145.176</ele>
      </trkpt>
      <trkpt lat="37.15994" lon="27.80697">
        <ele>145.404</ele>
      </trkpt>
      <trkpt lat="37.15944" lon="27.8067">
        <ele>146.867</ele>
      </trkpt>
      <trkpt lat="37.1594" lon="27.80669">
        <ele>146.943</ele>
      </trkpt>
      <trkpt lat="37.15913" lon="27.80648">
        <ele>148.597</ele>
      </trkpt>
      <trkpt lat="37.15885" lon="27.80617">
        <ele>152.449</ele>
      </trkpt>
      <trkpt lat="37.15841" lon="27.8058">
        <ele>152.855</ele>
      </trkpt>
      <trkpt lat="37.15801" lon="27.80535">
        <ele>152.64</ele>
      </trkpt>
      <trkpt lat="37.15782" lon="27.80491">
        <ele>151.765</ele>
      </trkpt>
      <trkpt lat="37.15773" lon="27.80437">
        <ele>152.729</ele>
      </trkpt>
      <trkpt lat="37.1576" lon="27.80383">
        <ele>151.291</ele>
      </trkpt>
      <trkpt lat="37.15752" lon="27.80323">
        <ele>152.301</ele>
      </trkpt>
      <trkpt lat="37.1575" lon="27.8024">
        <ele>150.989</ele>
      </trkpt>
      <trkpt lat="37.15757" lon="27.80172">
        <ele>150.278</ele>
      </trkpt>
      <trkpt lat="37.15753" lon="27.80128">
        <ele>152.006</ele>
      </trkpt>
      <trkpt lat="37.15749" lon="27.80078">
        <ele>153</ele>
      </trkpt>
      <trkpt lat="37.15734" lon="27.80055">
        <ele>153</ele>
      </trkpt>
      <trkpt lat="37.15713" lon="27.79995">
        <ele>154.959</ele>
      </trkpt>
      <trkpt lat="37.15704" lon="27.79934">
        <ele>158.703</ele>
      </trkpt>
      <trkpt lat="37.15688" lon="27.79877">
        <ele>161</ele>
      </trkpt>
      <trkpt lat="37.15682" lon="27.7984">
        <ele>161.35</ele>
      </trkpt>
      <trkpt lat="37.15684" lon="27.79836">
        <ele>161.352</ele>
      </trkpt>
      <trkpt lat="37.15684" lon="27.79836">
        <ele>161.352</ele>
      </trkpt>
      <trkpt lat="37.15682" lon="27.79835">
        <ele>161.427</ele>
      </trkpt>
      <trkpt lat="37.15649" lon="27.79863">
        <ele>161</ele>
      </trkpt>
      <trkpt lat="37.1562" lon="27.79883">
        <ele>161</ele>
      </trkpt>
      <trkpt lat="37.15599" lon="27.79898">
        <ele>160.86</ele>
      </trkpt>
      <trkpt lat="37.15582" lon="27.79913">
        <ele>160.116</ele>
      </trkpt>
      <trkpt lat="37.1557" lon="27.79922">
        <ele>159.824</ele>
      </trkpt>
      <trkpt lat="37.15546" lon="27.79931">
        <ele>159.112</ele>
      </trkpt>
      <trkpt lat="37.15522" lon="27.79942">
        <ele>158.082</ele>
      </trkpt>
      <trkpt lat="37.15519" lon="27.79943">
        <ele>158.04</ele>
      </trkpt>
      <trkpt lat="37.15512" lon="27.79949">
        <ele>158</ele>
      </trkpt>
      <trkpt lat="37.15479" lon="27.7996">
        <ele>158.754</ele>
      </trkpt>
      <trkpt lat="37.15471" lon="27.79958">
        <ele>159.043</ele>
      </trkpt>
      <trkpt lat="37.15455" lon="27.79953">
        <ele>159.608</ele>
      </trkpt>
      <trkpt lat="37.15448" lon="27.79952">
        <ele>159.878</ele>
      </trkpt>
      <trkpt lat="37.15416" lon="27.7997">
        <ele>160.943</ele>
      </trkpt>
      <trkpt lat="37.15411" lon="27.79975">
        <ele>161.422</ele>
      </trkpt>
      <trkpt lat="37.15398" lon="27.79992">
        <ele>163.613</ele>
      </trkpt>
      <trkpt lat="37.15385" lon="27.80013">
        <ele>166.228</ele>
      </trkpt>
      <trkpt lat="37.15386" lon="27.80016">
        <ele>166.402</ele>
      </trkpt>
      <trkpt lat="37.15374" lon="27.8004">
        <ele>168.259</ele>
      </trkpt>
      <trkpt lat="37.15355" lon="27.80074">
        <ele>170.772</ele>
      </trkpt>
      <trkpt lat="37.15325" lon="27.80109">
        <ele>175.496</ele>
      </trkpt>
      <trkpt lat="37.1532" lon="27.80113">
        <ele>175.932</ele>
      </trkpt>
      <trkpt lat="37.15302" lon="27.80126">
        <ele>176.614</ele>
      </trkpt>
      <trkpt lat="37.15296" lon="27.80128">
        <ele>176.788</ele>
      </trkpt>
      <trkpt lat="37.15264" lon="27.80151">
        <ele>178.513</ele>
      </trkpt>
      <trkpt lat="37.15244" lon="27.80178">
        <ele>180.578</ele>
      </trkpt>
      <trkpt lat="37.15238" lon="27.80185">
        <ele>181.199</ele>
      </trkpt>
      <trkpt lat="37.15235" lon="27.80187">
        <ele>181.564</ele>
      </trkpt>
      <trkpt lat="37.15225" lon="27.80201">
        <ele>183.448</ele>
      </trkpt>
      <trkpt lat="37.1522" lon="27.80207">
        <ele>184.534</ele>
      </trkpt>
      <trkpt lat="37.15202" lon="27.80245">
        <ele>190.463</ele>
      </trkpt>
      <trkpt lat="37.15191" lon="27.803">
        <ele>190.724</ele>
      </trkpt>
      <trkpt lat="37.15178" lon="27.80343">
        <ele>193.339</ele>
      </trkpt>
      <trkpt lat="37.15156" lon="27.80375">
        <ele>196.879</ele>
      </trkpt>
      <trkpt lat="37.15146" lon="27.80395">
        <ele>197.665</ele>
      </trkpt>
      <trkpt lat="37.15137" lon="27.8041">
        <ele>198.608</ele>
      </trkpt>
      <trkpt lat="37.15138" lon="27.80408">
        <ele>198.512</ele>
      </trkpt>
      <trkpt lat="37.15137" lon="27.80409">
        <ele>198.646</ele>
      </trkpt>
      <trkpt lat="37.15117" lon="27.80436">
        <ele>201.13</ele>
      </trkpt>
      <trkpt lat="37.15112" lon="27.80447">
        <ele>201.761</ele>
      </trkpt>
      <trkpt lat="37.15092" lon="27.80469">
        <ele>205.349</ele>
      </trkpt>
      <trkpt lat="37.15084" lon="27.8047">
        <ele>206.981</ele>
      </trkpt>
      <trkpt lat="37.15066" lon="27.80485">
        <ele>207.495</ele>
      </trkpt>
      <trkpt lat="37.15058" lon="27.80492">
        <ele>207.639</ele>
      </trkpt>
      <trkpt lat="37.14997" lon="27.8052">
        <ele>204.827</ele>
      </trkpt>
      <trkpt lat="37.14997" lon="27.8052">
        <ele>204.827</ele>
      </trkpt>
      <trkpt lat="37.14997" lon="27.8052">
        <ele>204.827</ele>
      </trkpt>
      <trkpt lat="37.14997" lon="27.8052">
        <ele>204.827</ele>
      </trkpt>
      <trkpt lat="37.14996" lon="27.80519">
        <ele>204.89</ele>
      </trkpt>
      <trkpt lat="37.14996" lon="27.80519">
        <ele>204.89</ele>
      </trkpt>
      <trkpt lat="37.14996" lon="27.80519">
        <ele>204.89</ele>
      </trkpt>
      <trkpt lat="37.14996" lon="27.80519">
        <ele>204.89</ele>
      </trkpt>
      <trkpt lat="37.14987" lon="27.80506">
        <ele>205.618</ele>
      </trkpt>
      <trkpt lat="37.14987" lon="27.80506">
        <ele>205.618</ele>
      </trkpt>
      <trkpt lat="37.14964" lon="27.80498">
        <ele>204.351</ele>
      </trkpt>
      <trkpt lat="37.14942" lon="27.80492">
        <ele>202.207</ele>
      </trkpt>
      <trkpt lat="37.14933" lon="27.80484">
        <ele>200.373</ele>
      </trkpt>
      <trkpt lat="37.14916" lon="27.80467">
        <ele>195.827</ele>
      </trkpt>
      <trkpt lat="37.14857" lon="27.80456">
        <ele>188.856</ele>
      </trkpt>
      <trkpt lat="37.14842" lon="27.80447">
        <ele>188.702</ele>
      </trkpt>
      <trkpt lat="37.14842" lon="27.80447">
        <ele>188.702</ele>
      </trkpt>
      <trkpt lat="37.14834" lon="27.80427">
        <ele>188.971</ele>
      </trkpt>
      <trkpt lat="37.14845" lon="27.80398">
        <ele>190.65</ele>
      </trkpt>
      <trkpt lat="37.1488" lon="27.80377">
        <ele>191.382</ele>
      </trkpt>
      <trkpt lat="37.14898" lon="27.80363">
        <ele>191.421</ele>
      </trkpt>
      <trkpt lat="37.14925" lon="27.80329">
        <ele>192.264</ele>
      </trkpt>
      <trkpt lat="37.14927" lon="27.80313">
        <ele>193.403</ele>
      </trkpt>
      <trkpt lat="37.14928" lon="27.80305">
        <ele>194</ele>
      </trkpt>
      <trkpt lat="37.1493" lon="27.80294">
        <ele>195.902</ele>
      </trkpt>
      <trkpt lat="37.14931" lon="27.80285">
        <ele>197.436</ele>
      </trkpt>
      <trkpt lat="37.14927" lon="27.80083">
        <ele>213.571</ele>
      </trkpt>
      <trkpt lat="37.14931" lon="27.8008">
        <ele>212.759</ele>
      </trkpt>
      <trkpt lat="37.14933" lon="27.80079">
        <ele>212.275</ele>
      </trkpt>
      <trkpt lat="37.14933" lon="27.80078">
        <ele>212.251</ele>
      </trkpt>
      <trkpt lat="37.14933" lon="27.80078">
        <ele>212.25</ele>
      </trkpt>
      <trkpt lat="37.14934" lon="27.80077">
        <ele>212.244</ele>
      </trkpt>
      <trkpt lat="37.14922" lon="27.80072">
        <ele>215.269</ele>
      </trkpt>
      <trkpt lat="37.14917" lon="27.80023">
        <ele>219.377</ele>
      </trkpt>
      <trkpt lat="37.14913" lon="27.79976">
        <ele>223.774</ele>
      </trkpt>
      <trkpt lat="37.14911" lon="27.79954">
        <ele>226.499</ele>
      </trkpt>
      <trkpt lat="37.14911" lon="27.79945">
        <ele>227.606</ele>
      </trkpt>
      <trkpt lat="37.14911" lon="27.79928">
        <ele>228.688</ele>
      </trkpt>
      <trkpt lat="37.14911" lon="27.79911">
        <ele>229.54</ele>
      </trkpt>
      <trkpt lat="37.14909" lon="27.79905">
        <ele>229.759</ele>
      </trkpt>
      <trkpt lat="37.14901" lon="27.79888">
        <ele>229.94</ele>
      </trkpt>
      <trkpt lat="37.14894" lon="27.79882">
        <ele>229.52</ele>
      </trkpt>
      <trkpt lat="37.1488" lon="27.79867">
        <ele>228.988</ele>
      </trkpt>
      <trkpt lat="37.14873" lon="27.79837">
        <ele>228.744</ele>
      </trkpt>
      <trkpt lat="37.14875" lon="27.79815">
        <ele>230.499</ele>
      </trkpt>
      <trkpt lat="37.1488" lon="27.79783">
        <ele>234.237</ele>
      </trkpt>
      <trkpt lat="37.1488" lon="27.79762">
        <ele>235.274</ele>
      </trkpt>
      <trkpt lat="37.14878" lon="27.79736">
        <ele>236.966</ele>
      </trkpt>
      <trkpt lat="37.14874" lon="27.79695">
        <ele>240.275</ele>
      </trkpt>
      <trkpt lat="37.14871" lon="27.79662">
        <ele>242.36</ele>
      </trkpt>
      <trkpt lat="37.14864" lon="27.79603">
        <ele>243.334</ele>
      </trkpt>
      <trkpt lat="37.14861" lon="27.7956">
        <ele>244.843</ele>
      </trkpt>
      <trkpt lat="37.14865" lon="27.7951">
        <ele>248.169</ele>
      </trkpt>
      <trkpt lat="37.1488" lon="27.79462">
        <ele>248.016</ele>
      </trkpt>
      <trkpt lat="37.14892" lon="27.79438">
        <ele>246.977</ele>
      </trkpt>
      <trkpt lat="37.14892" lon="27.79424">
        <ele>247.934</ele>
      </trkpt>
      <trkpt lat="37.14884" lon="27.79401">
        <ele>249.526</ele>
      </trkpt>
      <trkpt lat="37.14849" lon="27.79365">
        <ele>249.359</ele>
      </trkpt>
      <trkpt lat="37.14821" lon="27.79362">
        <ele>249.563</ele>
      </trkpt>
      <trkpt lat="37.1481" lon="27.79363">
        <ele>250.096</ele>
      </trkpt>
      <trkpt lat="37.1476" lon="27.79362">
        <ele>257.142</ele>
      </trkpt>
      <trkpt lat="37.14735" lon="27.79344">
        <ele>258.174</ele>
      </trkpt>
      <trkpt lat="37.14736" lon="27.7934">
        <ele>257.6</ele>
      </trkpt>
      <trkpt lat="37.14734" lon="27.79307">
        <ele>253.504</ele>
      </trkpt>
      <trkpt lat="37.1473" lon="27.79295">
        <ele>252.894</ele>
      </trkpt>
      <trkpt lat="37.14705" lon="27.79249">
        <ele>251.387</ele>
      </trkpt>
      <trkpt lat="37.14681" lon="27.79247">
        <ele>251.972</ele>
      </trkpt>
      <trkpt lat="37.14672" lon="27.79252">
        <ele>252.498</ele>
      </trkpt>
      <trkpt lat="37.14644" lon="27.79266">
        <ele>251.132</ele>
      </trkpt>
      <trkpt lat="37.14611" lon="27.79266">
        <ele>249.39</ele>
      </trkpt>
      <trkpt lat="37.14582" lon="27.79261">
        <ele>248.87</ele>
      </trkpt>
      <trkpt lat="37.14546" lon="27.79265">
        <ele>247.659</ele>
      </trkpt>
      <trkpt lat="37.14536" lon="27.79269">
        <ele>247.615</ele>
      </trkpt>
      <trkpt lat="37.14501" lon="27.79259">
        <ele>246.294</ele>
      </trkpt>
      <trkpt lat="37.14471" lon="27.79258">
        <ele>247.304</ele>
      </trkpt>
      <trkpt lat="37.14448" lon="27.79264">
        <ele>247.123</ele>
      </trkpt>
      <trkpt lat="37.14432" lon="27.79251">
        <ele>243.302</ele>
      </trkpt>
      <trkpt lat="37.14415" lon="27.79208">
        <ele>238.802</ele>
      </trkpt>
      <trkpt lat="37.14406" lon="27.79183">
        <ele>238.527</ele>
      </trkpt>
      <trkpt lat="37.14384" lon="27.79122">
        <ele>237.47</ele>
      </trkpt>
      <trkpt lat="37.14366" lon="27.79083">
        <ele>235.983</ele>
      </trkpt>
      <trkpt lat="37.14353" lon="27.79057">
        <ele>235.186</ele>
      </trkpt>
      <trkpt lat="37.14335" lon="27.79018">
        <ele>232.773</ele>
      </trkpt>
      <trkpt lat="37.14314" lon="27.78972">
        <ele>227.79</ele>
      </trkpt>
      <trkpt lat="37.143" lon="27.78921">
        <ele>223.417</ele>
      </trkpt>
      <trkpt lat="37.14285" lon="27.78869">
        <ele>219.763</ele>
      </trkpt>
      <trkpt lat="37.14271" lon="27.78818">
        <ele>217.698</ele>
      </trkpt>
      <trkpt lat="37.14262" lon="27.78788">
        <ele>214.238</ele>
      </trkpt>
      <trkpt lat="37.14258" lon="27.78774">
        <ele>212.15</ele>
      </trkpt>
      <trkpt lat="37.14245" lon="27.78729">
        <ele>207.235</ele>
      </trkpt>
      <trkpt lat="37.14238" lon="27.78701">
        <ele>205.425</ele>
      </trkpt>
      <trkpt lat="37.14233" lon="27.78691">
        <ele>204.609</ele>
      </trkpt>
      <trkpt lat="37.14225" lon="27.78675">
        <ele>203.482</ele>
      </trkpt>
      <trkpt lat="37.14209" lon="27.78653">
        <ele>202.761</ele>
      </trkpt>
      <trkpt lat="37.14188" lon="27.78641">
        <ele>202.293</ele>
      </trkpt>
      <trkpt lat="37.14141" lon="27.78614">
        <ele>204.952</ele>
      </trkpt>
      <trkpt lat="37.14101" lon="27.78606">
        <ele>206.701</ele>
      </trkpt>
      <trkpt lat="37.14076" lon="27.78608">
        <ele>209.507</ele>
      </trkpt>
      <trkpt lat="37.14039" lon="27.78612">
        <ele>215.875</ele>
      </trkpt>
      <trkpt lat="37.14015" lon="27.78614">
        <ele>217.226</ele>
      </trkpt>
      <trkpt lat="37.13977" lon="27.78608">
        <ele>216.266</ele>
      </trkpt>
      <trkpt lat="37.13971" lon="27.78603">
        <ele>216.265</ele>
      </trkpt>
      <trkpt lat="37.13961" lon="27.78593">
        <ele>216.383</ele>
      </trkpt>
      <trkpt lat="37.13961" lon="27.78608">
        <ele>216.073</ele>
      </trkpt>
      <trkpt lat="37.1396" lon="27.78607">
        <ele>216.083</ele>
      </trkpt>
      <trkpt lat="37.13964" lon="27.7861">
        <ele>216.031</ele>
      </trkpt>
      <trkpt lat="37.13964" lon="27.7861">
        <ele>216.031</ele>
      </trkpt>
      <trkpt lat="37.13964" lon="27.7861">
        <ele>216.038</ele>
      </trkpt>
      <trkpt lat="37.13964" lon="27.7861">
        <ele>216.04</ele>
      </trkpt>
      <trkpt lat="37.13964" lon="27.7861">
        <ele>216.04</ele>
      </trkpt>
      <trkpt lat="37.13964" lon="27.7861">
        <ele>216.035</ele>
      </trkpt>
      <trkpt lat="37.13966" lon="27.78612">
        <ele>215.98</ele>
      </trkpt>
      <trkpt lat="37.13966" lon="27.78612">
        <ele>215.977</ele>
      </trkpt>
      <trkpt lat="37.13967" lon="27.78612">
        <ele>215.985</ele>
      </trkpt>
      <trkpt lat="37.13958" lon="27.78605">
        <ele>216.113</ele>
      </trkpt>
      <trkpt lat="37.13955" lon="27.78607">
        <ele>216.063</ele>
      </trkpt>
      <trkpt lat="37.13949" lon="27.78613">
        <ele>215.988</ele>
      </trkpt>
      <trkpt lat="37.13949" lon="27.78614">
        <ele>215.985</ele>
      </trkpt>
      <trkpt lat="37.13942" lon="27.78624">
        <ele>216.044</ele>
      </trkpt>
      <trkpt lat="37.13933" lon="27.78621">
        <ele>216.255</ele>
      </trkpt>
      <trkpt lat="37.13931" lon="27.78623">
        <ele>216.289</ele>
      </trkpt>
      <trkpt lat="37.13925" lon="27.78635">
        <ele>216.108</ele>
      </trkpt>
      <trkpt lat="37.13923" lon="27.78639">
        <ele>216</ele>
      </trkpt>
      <trkpt lat="37.13917" lon="27.78655">
        <ele>215.99</ele>
      </trkpt>
      <trkpt lat="37.13917" lon="27.78664">
        <ele>216.002</ele>
      </trkpt>
      <trkpt lat="37.13914" lon="27.7867">
        <ele>216.321</ele>
      </trkpt>
      <trkpt lat="37.13912" lon="27.78679">
        <ele>217.008</ele>
      </trkpt>
      <trkpt lat="37.1391" lon="27.78687">
        <ele>217.552</ele>
      </trkpt>
      <trkpt lat="37.1391" lon="27.78698">
        <ele>218.06</ele>
      </trkpt>
      <trkpt lat="37.13911" lon="27.78715">
        <ele>218.29</ele>
      </trkpt>
      <trkpt lat="37.13913" lon="27.78722">
        <ele>218.285</ele>
      </trkpt>
      <trkpt lat="37.13912" lon="27.78724">
        <ele>218.24</ele>
      </trkpt>
      <trkpt lat="37.13913" lon="27.78737">
        <ele>217.764</ele>
      </trkpt>
      <trkpt lat="37.13911" lon="27.7875">
        <ele>217.574</ele>
      </trkpt>
      <trkpt lat="37.13909" lon="27.78766">
        <ele>217.371</ele>
      </trkpt>
      <trkpt lat="37.13902" lon="27.78784">
        <ele>217.748</ele>
      </trkpt>
      <trkpt lat="37.13897" lon="27.78796">
        <ele>217.571</ele>
      </trkpt>
      <trkpt lat="37.13893" lon="27.78804">
        <ele>217.569</ele>
      </trkpt>
      <trkpt lat="37.13889" lon="27.7881">
        <ele>217.46</ele>
      </trkpt>
      <trkpt lat="37.13881" lon="27.78821">
        <ele>217.56</ele>
      </trkpt>
      <trkpt lat="37.13872" lon="27.78837">
        <ele>217.815</ele>
      </trkpt>
      <trkpt lat="37.13869" lon="27.78842">
        <ele>218.219</ele>
      </trkpt>
      <trkpt lat="37.13864" lon="27.78853">
        <ele>218.722</ele>
      </trkpt>
      <trkpt lat="37.13855" lon="27.78869">
        <ele>219.59</ele>
      </trkpt>
      <trkpt lat="37.13848" lon="27.78883">
        <ele>220.2</ele>
      </trkpt>
      <trkpt lat="37.1385" lon="27.78882">
        <ele>219.795</ele>
      </trkpt>
      <trkpt lat="37.13849" lon="27.78882">
        <ele>219.98</ele>
      </trkpt>
      <trkpt lat="37.13842" lon="27.78894">
        <ele>220.84</ele>
      </trkpt>
      <trkpt lat="37.1383" lon="27.78906">
        <ele>221.856</ele>
      </trkpt>
      <trkpt lat="37.13817" lon="27.78918">
        <ele>221.651</ele>
      </trkpt>
      <trkpt lat="37.13807" lon="27.78927">
        <ele>222.113</ele>
      </trkpt>
      <trkpt lat="37.13789" lon="27.78943">
        <ele>220.565</ele>
      </trkpt>
      <trkpt lat="37.13774" lon="27.78957">
        <ele>220.016</ele>
      </trkpt>
      <trkpt lat="37.13771" lon="27.78961">
        <ele>219.952</ele>
      </trkpt>
      <trkpt lat="37.13771" lon="27.78966">
        <ele>219.866</ele>
      </trkpt>
      <trkpt lat="37.13772" lon="27.78967">
        <ele>219.862</ele>
      </trkpt>
      <trkpt lat="37.13769" lon="27.78965">
        <ele>219.838</ele>
      </trkpt>
      <trkpt lat="37.13764" lon="27.78964">
        <ele>219.795</ele>
      </trkpt>
      <trkpt lat="37.13752" lon="27.78964">
        <ele>219.627</ele>
      </trkpt>
      <trkpt lat="37.13746" lon="27.78967">
        <ele>219.614</ele>
      </trkpt>
      <trkpt lat="37.13735" lon="27.78973">
        <ele>220.065</ele>
      </trkpt>
      <trkpt lat="37.13733" lon="27.78975">
        <ele>220.235</ele>
      </trkpt>
      <trkpt lat="37.13732" lon="27.78976">
        <ele>220.313</ele>
      </trkpt>
      <trkpt lat="37.13726" lon="27.78977">
        <ele>220.745</ele>
      </trkpt>
      <trkpt lat="37.13714" lon="27.7898">
        <ele>221.153</ele>
      </trkpt>
      <trkpt lat="37.13713" lon="27.78984">
        <ele>221.282</ele>
      </trkpt>
      <trkpt lat="37.13708" lon="27.78993">
        <ele>221.766</ele>
      </trkpt>
      <trkpt lat="37.13703" lon="27.79007">
        <ele>222.908</ele>
      </trkpt>
      <trkpt lat="37.13694" lon="27.79019">
        <ele>224.409</ele>
      </trkpt>
      <trkpt lat="37.13691" lon="27.79029">
        <ele>225.262</ele>
      </trkpt>
      <trkpt lat="37.13684" lon="27.79039">
        <ele>225.72</ele>
      </trkpt>
      <trkpt lat="37.13674" lon="27.7905">
        <ele>226.479</ele>
      </trkpt>
      <trkpt lat="37.1367" lon="27.79055">
        <ele>226.792</ele>
      </trkpt>
      <trkpt lat="37.13666" lon="27.79058">
        <ele>227.295</ele>
      </trkpt>
      <trkpt lat="37.13664" lon="27.79058">
        <ele>227.58</ele>
      </trkpt>
      <trkpt lat="37.1366" lon="27.7906">
        <ele>228.651</ele>
      </trkpt>
      <trkpt lat="37.13659" lon="27.79061">
        <ele>228.81</ele>
      </trkpt>
      <trkpt lat="37.13657" lon="27.79068">
        <ele>229.833</ele>
      </trkpt>
      <trkpt lat="37.13657" lon="27.79067">
        <ele>229.784</ele>
      </trkpt>
      <trkpt lat="37.13653" lon="27.79065">
        <ele>230.271</ele>
      </trkpt>
      <trkpt lat="37.13648" lon="27.79061">
        <ele>230.861</ele>
      </trkpt>
      <trkpt lat="37.13645" lon="27.79057">
        <ele>231.089</ele>
      </trkpt>
      <trkpt lat="37.13645" lon="27.79057">
        <ele>231.083</ele>
      </trkpt>
      <trkpt lat="37.13639" lon="27.79054">
        <ele>231.615</ele>
      </trkpt>
      <trkpt lat="37.13636" lon="27.79054">
        <ele>231.921</ele>
      </trkpt>
      <trkpt lat="37.1363" lon="27.79058">
        <ele>233.266</ele>
      </trkpt>
      <trkpt lat="37.13629" lon="27.79059">
        <ele>233.423</ele>
      </trkpt>
      <trkpt lat="37.13628" lon="27.79061">
        <ele>233.905</ele>
      </trkpt>
      <trkpt lat="37.13627" lon="27.79062">
        <ele>234.085</ele>
      </trkpt>
      <trkpt lat="37.13623" lon="27.79072">
        <ele>235.866</ele>
      </trkpt>
      <trkpt lat="37.13616" lon="27.79073">
        <ele>236.777</ele>
      </trkpt>
      <trkpt lat="37.13604" lon="27.7907">
        <ele>237.967</ele>
      </trkpt>
      <trkpt lat="37.13596" lon="27.79062">
        <ele>237.715</ele>
      </trkpt>
      <trkpt lat="37.13586" lon="27.79062">
        <ele>238.789</ele>
      </trkpt>
      <trkpt lat="37.13577" lon="27.79063">
        <ele>240.251</ele>
      </trkpt>
      <trkpt lat="37.1357" lon="27.79063">
        <ele>241.15</ele>
      </trkpt>
      <trkpt lat="37.13564" lon="27.79064">
        <ele>242.134</ele>
      </trkpt>
      <trkpt lat="37.13556" lon="27.7907">
        <ele>243.998</ele>
      </trkpt>
      <trkpt lat="37.13556" lon="27.79073">
        <ele>244.411</ele>
      </trkpt>
      <trkpt lat="37.13554" lon="27.79076">
        <ele>245.047</ele>
      </trkpt>
      <trkpt lat="37.13541" lon="27.79076">
        <ele>246.249</ele>
      </trkpt>
      <trkpt lat="37.13528" lon="27.79074">
        <ele>247.024</ele>
      </trkpt>
      <trkpt lat="37.13515" lon="27.79074">
        <ele>248.457</ele>
      </trkpt>
      <trkpt lat="37.13513" lon="27.79073">
        <ele>248.493</ele>
      </trkpt>
      <trkpt lat="37.13503" lon="27.79069">
        <ele>248.979</ele>
      </trkpt>
      <trkpt lat="37.13491" lon="27.79068">
        <ele>250.746</ele>
      </trkpt>
      <trkpt lat="37.13481" lon="27.79068">
        <ele>252.415</ele>
      </trkpt>
      <trkpt lat="37.13474" lon="27.79061">
        <ele>252.471</ele>
      </trkpt>
      <trkpt lat="37.13468" lon="27.79049">
        <ele>251.621</ele>
      </trkpt>
      <trkpt lat="37.13467" lon="27.79046">
        <ele>251.2</ele>
      </trkpt>
      <trkpt lat="37.13458" lon="27.79036">
        <ele>250.434</ele>
      </trkpt>
      <trkpt lat="37.1345" lon="27.79024">
        <ele>248.254</ele>
      </trkpt>
      <trkpt lat="37.1345" lon="27.79023">
        <ele>248.001</ele>
      </trkpt>
      <trkpt lat="37.13449" lon="27.79022">
        <ele>247.698</ele>
      </trkpt>
      <trkpt lat="37.13448" lon="27.79019">
        <ele>246.662</ele>
      </trkpt>
      <trkpt lat="37.13445" lon="27.79012">
        <ele>244.83</ele>
      </trkpt>
      <trkpt lat="37.13444" lon="27.79011">
        <ele>244.538</ele>
      </trkpt>
      <trkpt lat="37.13441" lon="27.79007">
        <ele>243.704</ele>
      </trkpt>
      <trkpt lat="37.13436" lon="27.79002">
        <ele>242.323</ele>
      </trkpt>
      <trkpt lat="37.13435" lon="27.79002">
        <ele>242.319</ele>
      </trkpt>
      <trkpt lat="37.13433" lon="27.79001">
        <ele>242.256</ele>
      </trkpt>
      <trkpt lat="37.13426" lon="27.78996">
        <ele>241.182</ele>
      </trkpt>
      <trkpt lat="37.13426" lon="27.78996">
        <ele>241.045</ele>
      </trkpt>
      <trkpt lat="37.13421" lon="27.78986">
        <ele>238.247</ele>
      </trkpt>
      <trkpt lat="37.13411" lon="27.78982">
        <ele>237.607</ele>
      </trkpt>
      <trkpt lat="37.1341" lon="27.78982">
        <ele>237.627</ele>
      </trkpt>
      <trkpt lat="37.13409" lon="27.78982">
        <ele>237.657</ele>
      </trkpt>
      <trkpt lat="37.13408" lon="27.78982">
        <ele>237.776</ele>
      </trkpt>
      <trkpt lat="37.13399" lon="27.78985">
        <ele>239.379</ele>
      </trkpt>
      <trkpt lat="37.13394" lon="27.78987">
        <ele>240.299</ele>
      </trkpt>
      <trkpt lat="37.1339" lon="27.78991">
        <ele>241.648</ele>
      </trkpt>
      <trkpt lat="37.13382" lon="27.78998">
        <ele>243.134</ele>
      </trkpt>
      <trkpt lat="37.13374" lon="27.79001">
        <ele>243.694</ele>
      </trkpt>
      <trkpt lat="37.13362" lon="27.79005">
        <ele>244.705</ele>
      </trkpt>
      <trkpt lat="37.1335" lon="27.79013">
        <ele>246.384</ele>
      </trkpt>
      <trkpt lat="37.13342" lon="27.79013">
        <ele>245.928</ele>
      </trkpt>
      <trkpt lat="37.13329" lon="27.79022">
        <ele>247.228</ele>
      </trkpt>
      <trkpt lat="37.13319" lon="27.79034">
        <ele>250.169</ele>
      </trkpt>
      <trkpt lat="37.13308" lon="27.79048">
        <ele>253.663</ele>
      </trkpt>
      <trkpt lat="37.13301" lon="27.79049">
        <ele>253.153</ele>
      </trkpt>
      <trkpt lat="37.13288" lon="27.79052">
        <ele>252.555</ele>
      </trkpt>
      <trkpt lat="37.13285" lon="27.79053">
        <ele>252.39</ele>
      </trkpt>
      <trkpt lat="37.13273" lon="27.79052">
        <ele>250.711</ele>
      </trkpt>
      <trkpt lat="37.1326" lon="27.79058">
        <ele>250.861</ele>
      </trkpt>
      <trkpt lat="37.13253" lon="27.7906">
        <ele>250.749</ele>
      </trkpt>
      <trkpt lat="37.13252" lon="27.79062">
        <ele>250.997</ele>
      </trkpt>
      <trkpt lat="37.13243" lon="27.7907">
        <ele>253.345</ele>
      </trkpt>
      <trkpt lat="37.13232" lon="27.7907">
        <ele>253.682</ele>
      </trkpt>
      <trkpt lat="37.13217" lon="27.79072">
        <ele>254.171</ele>
      </trkpt>
      <trkpt lat="37.13206" lon="27.79077">
        <ele>253.978</ele>
      </trkpt>
      <trkpt lat="37.13201" lon="27.79084">
        <ele>254.065</ele>
      </trkpt>
      <trkpt lat="37.13195" lon="27.79094">
        <ele>255.135</ele>
      </trkpt>
      <trkpt lat="37.13188" lon="27.79107">
        <ele>256.041</ele>
      </trkpt>
      <trkpt lat="37.1318" lon="27.79122">
        <ele>257.882</ele>
      </trkpt>
      <trkpt lat="37.1318" lon="27.79126">
        <ele>258.452</ele>
      </trkpt>
      <trkpt lat="37.13177" lon="27.79141">
        <ele>261.006</ele>
      </trkpt>
      <trkpt lat="37.13176" lon="27.79143">
        <ele>261.143</ele>
      </trkpt>
      <trkpt lat="37.13172" lon="27.79151">
        <ele>261.581</ele>
      </trkpt>
      <trkpt lat="37.13172" lon="27.79158">
        <ele>262.65</ele>
      </trkpt>
      <trkpt lat="37.13171" lon="27.79162">
        <ele>263.288</ele>
      </trkpt>
      <trkpt lat="37.13168" lon="27.79169">
        <ele>263.727</ele>
      </trkpt>
      <trkpt lat="37.13164" lon="27.79182">
        <ele>264.624</ele>
      </trkpt>
      <trkpt lat="37.13163" lon="27.79183">
        <ele>264.672</ele>
      </trkpt>
      <trkpt lat="37.13154" lon="27.79194">
        <ele>264.113</ele>
      </trkpt>
      <trkpt lat="37.13149" lon="27.79206">
        <ele>265.49</ele>
      </trkpt>
      <trkpt lat="37.13144" lon="27.79222">
        <ele>267.555</ele>
      </trkpt>
      <trkpt lat="37.13138" lon="27.79235">
        <ele>270.069</ele>
      </trkpt>
      <trkpt lat="37.13132" lon="27.79246">
        <ele>272.473</ele>
      </trkpt>
      <trkpt lat="37.13123" lon="27.79253">
        <ele>272.308</ele>
      </trkpt>
      <trkpt lat="37.13116" lon="27.79261">
        <ele>272.608</ele>
      </trkpt>
      <trkpt lat="37.13111" lon="27.79266">
        <ele>272.431</ele>
      </trkpt>
      <trkpt lat="37.13101" lon="27.79275">
        <ele>273.029</ele>
      </trkpt>
      <trkpt lat="37.13096" lon="27.79278">
        <ele>272.973</ele>
      </trkpt>
      <trkpt lat="37.13095" lon="27.79279">
        <ele>272.989</ele>
      </trkpt>
      <trkpt lat="37.13085" lon="27.79287">
        <ele>273.793</ele>
      </trkpt>
      <trkpt lat="37.13078" lon="27.79294">
        <ele>274.518</ele>
      </trkpt>
      <trkpt lat="37.13076" lon="27.79294">
        <ele>274.411</ele>
      </trkpt>
      <trkpt lat="37.1307" lon="27.79301">
        <ele>275.04</ele>
      </trkpt>
      <trkpt lat="37.13069" lon="27.79324">
        <ele>282.225</ele>
      </trkpt>
      <trkpt lat="37.13066" lon="27.79329">
        <ele>283.127</ele>
      </trkpt>
      <trkpt lat="37.13064" lon="27.79339">
        <ele>286.006</ele>
      </trkpt>
      <trkpt lat="37.13068" lon="27.79341">
        <ele>287.248</ele>
      </trkpt>
      <trkpt lat="37.1308" lon="27.79328">
        <ele>286.119</ele>
      </trkpt>
      <trkpt lat="37.13082" lon="27.79323">
        <ele>284.757</ele>
      </trkpt>
      <trkpt lat="37.13082" lon="27.79327">
        <ele>286.541</ele>
      </trkpt>
      <trkpt lat="37.13083" lon="27.7934">
        <ele>290.963</ele>
      </trkpt>
      <trkpt lat="37.13073" lon="27.79357">
        <ele>293.505</ele>
      </trkpt>
      <trkpt lat="37.13064" lon="27.79367">
        <ele>294.494</ele>
      </trkpt>
      <trkpt lat="37.13058" lon="27.79378">
        <ele>296.4</ele>
      </trkpt>
      <trkpt lat="37.13055" lon="27.79383">
        <ele>296.877</ele>
      </trkpt>
      <trkpt lat="37.13053" lon="27.79386">
        <ele>296.891</ele>
      </trkpt>
      <trkpt lat="37.13051" lon="27.79389">
        <ele>297.101</ele>
      </trkpt>
      <trkpt lat="37.13047" lon="27.79395">
        <ele>297.364</ele>
      </trkpt>
      <trkpt lat="37.1304" lon="27.79403">
        <ele>297.265</ele>
      </trkpt>
      <trkpt lat="37.13037" lon="27.79408">
        <ele>297.659</ele>
      </trkpt>
      <trkpt lat="37.13029" lon="27.79424">
        <ele>299.656</ele>
      </trkpt>
      <trkpt lat="37.13023" lon="27.79432">
        <ele>300.573</ele>
      </trkpt>
      <trkpt lat="37.13016" lon="27.79438">
        <ele>299.91</ele>
      </trkpt>
      <trkpt lat="37.13008" lon="27.79442">
        <ele>298.591</ele>
      </trkpt>
      <trkpt lat="37.13002" lon="27.79455">
        <ele>300.759</ele>
      </trkpt>
      <trkpt lat="37.12994" lon="27.7947">
        <ele>303.456</ele>
      </trkpt>
      <trkpt lat="37.12996" lon="27.79468">
        <ele>303.162</ele>
      </trkpt>
      <trkpt lat="37.12992" lon="27.79478">
        <ele>305.701</ele>
      </trkpt>
      <trkpt lat="37.12986" lon="27.79495">
        <ele>309.492</ele>
      </trkpt>
      <trkpt lat="37.12983" lon="27.79502">
        <ele>310.757</ele>
      </trkpt>
      <trkpt lat="37.12977" lon="27.79508">
        <ele>310.748</ele>
      </trkpt>
      <trkpt lat="37.12969" lon="27.79509">
        <ele>310.061</ele>
      </trkpt>
      <trkpt lat="37.12957" lon="27.7951">
        <ele>310.867</ele>
      </trkpt>
      <trkpt lat="37.12942" lon="27.79512">
        <ele>312.536</ele>
      </trkpt>
      <trkpt lat="37.12941" lon="27.79512">
        <ele>312.663</ele>
      </trkpt>
      <trkpt lat="37.12932" lon="27.79506">
        <ele>313.37</ele>
      </trkpt>
      <trkpt lat="37.12924" lon="27.79498">
        <ele>312.738</ele>
      </trkpt>
      <trkpt lat="37.12916" lon="27.795">
        <ele>314.991</ele>
      </trkpt>
      <trkpt lat="37.12907" lon="27.79504">
        <ele>317.75</ele>
      </trkpt>
      <trkpt lat="37.12892" lon="27.79506">
        <ele>321.332</ele>
      </trkpt>
      <trkpt lat="37.1289" lon="27.79511">
        <ele>322.953</ele>
      </trkpt>
      <trkpt lat="37.12893" lon="27.79517">
        <ele>324.211</ele>
      </trkpt>
      <trkpt lat="37.12903" lon="27.79522">
        <ele>323.974</ele>
      </trkpt>
      <trkpt lat="37.12905" lon="27.79531">
        <ele>325.961</ele>
      </trkpt>
      <trkpt lat="37.12904" lon="27.79537">
        <ele>327.674</ele>
      </trkpt>
      <trkpt lat="37.12906" lon="27.79544">
        <ele>328.968</ele>
      </trkpt>
      <trkpt lat="37.1291" lon="27.79552">
        <ele>330.269</ele>
      </trkpt>
      <trkpt lat="37.1291" lon="27.79556">
        <ele>331.403</ele>
      </trkpt>
      <trkpt lat="37.12911" lon="27.79559">
        <ele>332.046</ele>
      </trkpt>
      <trkpt lat="37.12919" lon="27.79573">
        <ele>334.339</ele>
      </trkpt>
      <trkpt lat="37.12926" lon="27.79587">
        <ele>337.511</ele>
      </trkpt>
      <trkpt lat="37.12934" lon="27.79598">
        <ele>340.308</ele>
      </trkpt>
      <trkpt lat="37.12934" lon="27.7961">
        <ele>344.24</ele>
      </trkpt>
      <trkpt lat="37.12936" lon="27.79618">
        <ele>346.687</ele>
      </trkpt>
      <trkpt lat="37.12946" lon="27.79623">
        <ele>347.73</ele>
      </trkpt>
      <trkpt lat="37.1295" lon="27.79629">
        <ele>349.603</ele>
      </trkpt>
      <trkpt lat="37.12953" lon="27.79632">
        <ele>350.237</ele>
      </trkpt>
      <trkpt lat="37.1296" lon="27.79638">
        <ele>352.114</ele>
      </trkpt>
      <trkpt lat="37.12964" lon="27.79642">
        <ele>353.402</ele>
      </trkpt>
      <trkpt lat="37.12971" lon="27.79647">
        <ele>354.794</ele>
      </trkpt>
      <trkpt lat="37.1297" lon="27.79654">
        <ele>357.053</ele>
      </trkpt>
      <trkpt lat="37.1296" lon="27.79659">
        <ele>359.078</ele>
      </trkpt>
      <trkpt lat="37.12949" lon="27.79664">
        <ele>360.98</ele>
      </trkpt>
      <trkpt lat="37.12937" lon="27.79665">
        <ele>361.829</ele>
      </trkpt>
      <trkpt lat="37.1293" lon="27.79666">
        <ele>362.444</ele>
      </trkpt>
      <trkpt lat="37.12931" lon="27.79666">
        <ele>362.385</ele>
      </trkpt>
      <trkpt lat="37.12925" lon="27.79671">
        <ele>363.428</ele>
      </trkpt>
      <trkpt lat="37.12918" lon="27.79682">
        <ele>365.206</ele>
      </trkpt>
      <trkpt lat="37.12916" lon="27.79683">
        <ele>365.266</ele>
      </trkpt>
      <trkpt lat="37.12901" lon="27.79691">
        <ele>364.455</ele>
      </trkpt>
      <trkpt lat="37.12892" lon="27.79696">
        <ele>363.495</ele>
      </trkpt>
      <trkpt lat="37.12878" lon="27.79699">
        <ele>360.158</ele>
      </trkpt>
      <trkpt lat="37.12871" lon="27.79707">
        <ele>358.104</ele>
      </trkpt>
      <trkpt lat="37.1286" lon="27.79713">
        <ele>354.472</ele>
      </trkpt>
      <trkpt lat="37.12852" lon="27.79721">
        <ele>352.372</ele>
      </trkpt>
      <trkpt lat="37.12848" lon="27.79725">
        <ele>351.683</ele>
      </trkpt>
      <trkpt lat="37.12849" lon="27.79722">
        <ele>351.803</ele>
      </trkpt>
      <trkpt lat="37.12841" lon="27.79722">
        <ele>350.431</ele>
      </trkpt>
      <trkpt lat="37.12821" lon="27.7972">
        <ele>346.706</ele>
      </trkpt>
      <trkpt lat="37.12813" lon="27.79713">
        <ele>345.333</ele>
      </trkpt>
      <trkpt lat="37.12804" lon="27.79705">
        <ele>343.799</ele>
      </trkpt>
      <trkpt lat="37.12791" lon="27.79709">
        <ele>341.937</ele>
      </trkpt>
      <trkpt lat="37.12792" lon="27.79722">
        <ele>342.564</ele>
      </trkpt>
      <trkpt lat="37.12792" lon="27.79722">
        <ele>342.564</ele>
      </trkpt>
      <trkpt lat="37.12791" lon="27.79748">
        <ele>342.897</ele>
      </trkpt>
      <trkpt lat="37.12788" lon="27.79756">
        <ele>342.085</ele>
      </trkpt>
      <trkpt lat="37.12765" lon="27.79765">
        <ele>338.816</ele>
      </trkpt>
      <trkpt lat="37.12749" lon="27.79769">
        <ele>337.344</ele>
      </trkpt>
      <trkpt lat="37.12738" lon="27.79788">
        <ele>337.035</ele>
      </trkpt>
      <trkpt lat="37.12738" lon="27.79792">
        <ele>336.835</ele>
      </trkpt>
      <trkpt lat="37.12726" lon="27.7981">
        <ele>337.435</ele>
      </trkpt>
      <trkpt lat="37.12723" lon="27.79823">
        <ele>337.357</ele>
      </trkpt>
      <trkpt lat="37.1272" lon="27.79834">
        <ele>336.943</ele>
      </trkpt>
      <trkpt lat="37.12714" lon="27.79851">
        <ele>334.763</ele>
      </trkpt>
      <trkpt lat="37.12709" lon="27.79856">
        <ele>333.723</ele>
      </trkpt>
      <trkpt lat="37.12699" lon="27.79862">
        <ele>332.279</ele>
      </trkpt>
      <trkpt lat="37.12691" lon="27.79868">
        <ele>330.722</ele>
      </trkpt>
      <trkpt lat="37.12673" lon="27.79872">
        <ele>327.025</ele>
      </trkpt>
      <trkpt lat="37.12656" lon="27.79878">
        <ele>322.692</ele>
      </trkpt>
      <trkpt lat="37.12653" lon="27.79878">
        <ele>321.867</ele>
      </trkpt>
      <trkpt lat="37.12643" lon="27.7988">
        <ele>319.439</ele>
      </trkpt>
      <trkpt lat="37.12628" lon="27.79871">
        <ele>318.205</ele>
      </trkpt>
      <trkpt lat="37.12611" lon="27.79865">
        <ele>316.417</ele>
      </trkpt>
      <trkpt lat="37.12612" lon="27.79864">
        <ele>316.608</ele>
      </trkpt>
      <trkpt lat="37.12605" lon="27.79855">
        <ele>316.707</ele>
      </trkpt>
      <trkpt lat="37.12595" lon="27.79844">
        <ele>316.118</ele>
      </trkpt>
      <trkpt lat="37.12582" lon="27.79836">
        <ele>314.466</ele>
      </trkpt>
      <trkpt lat="37.1258" lon="27.79835">
        <ele>314.214</ele>
      </trkpt>
      <trkpt lat="37.12574" lon="27.79834">
        <ele>313.309</ele>
      </trkpt>
      <trkpt lat="37.1256" lon="27.7983">
        <ele>311.018</ele>
      </trkpt>
      <trkpt lat="37.12548" lon="27.79824">
        <ele>309.304</ele>
      </trkpt>
      <trkpt lat="37.12539" lon="27.79814">
        <ele>308.011</ele>
      </trkpt>
      <trkpt lat="37.12531" lon="27.79804">
        <ele>306.683</ele>
      </trkpt>
      <trkpt lat="37.12519" lon="27.79796">
        <ele>304.224</ele>
      </trkpt>
      <trkpt lat="37.12517" lon="27.79796">
        <ele>303.866</ele>
      </trkpt>
      <trkpt lat="37.12511" lon="27.798">
        <ele>302.754</ele>
      </trkpt>
      <trkpt lat="37.12497" lon="27.7982">
        <ele>300.814</ele>
      </trkpt>
      <trkpt lat="37.12482" lon="27.79822">
        <ele>299.687</ele>
      </trkpt>
      <trkpt lat="37.12461" lon="27.79827">
        <ele>300.265</ele>
      </trkpt>
      <trkpt lat="37.12443" lon="27.79841">
        <ele>302.256</ele>
      </trkpt>
      <trkpt lat="37.12428" lon="27.79845">
        <ele>304.856</ele>
      </trkpt>
      <trkpt lat="37.12407" lon="27.79851">
        <ele>307.578</ele>
      </trkpt>
      <trkpt lat="37.12385" lon="27.7987">
        <ele>309.878</ele>
      </trkpt>
      <trkpt lat="37.12372" lon="27.79884">
        <ele>312.199</ele>
      </trkpt>
      <trkpt lat="37.12354" lon="27.79887">
        <ele>316.313</ele>
      </trkpt>
      <trkpt lat="37.12347" lon="27.79891">
        <ele>317.924</ele>
      </trkpt>
      <trkpt lat="37.12338" lon="27.799">
        <ele>319.579</ele>
      </trkpt>
      <trkpt lat="37.12329" lon="27.79914">
        <ele>320.055</ele>
      </trkpt>
      <trkpt lat="37.12326" lon="27.79918">
        <ele>320.281</ele>
      </trkpt>
      <trkpt lat="37.12321" lon="27.79923">
        <ele>321.209</ele>
      </trkpt>
      <trkpt lat="37.12321" lon="27.79923">
        <ele>321.209</ele>
      </trkpt>
      <trkpt lat="37.12302" lon="27.79929">
        <ele>323.575</ele>
      </trkpt>
      <trkpt lat="37.12286" lon="27.79935">
        <ele>325.285</ele>
      </trkpt>
      <trkpt lat="37.12265" lon="27.79928">
        <ele>327.548</ele>
      </trkpt>
      <trkpt lat="37.12239" lon="27.79926">
        <ele>328.679</ele>
      </trkpt>
      <trkpt lat="37.12221" lon="27.79925">
        <ele>328.611</ele>
      </trkpt>
      <trkpt lat="37.12207" lon="27.79924">
        <ele>326.956</ele>
      </trkpt>
      <trkpt lat="37.12194" lon="27.79912">
        <ele>326.749</ele>
      </trkpt>
      <trkpt lat="37.12192" lon="27.7991">
        <ele>327.007</ele>
      </trkpt>
      <trkpt lat="37.12193" lon="27.7991">
        <ele>327.177</ele>
      </trkpt>
      <trkpt lat="37.12189" lon="27.79907">
        <ele>327.335</ele>
      </trkpt>
      <trkpt lat="37.12185" lon="27.79904">
        <ele>327.458</ele>
      </trkpt>
      <trkpt lat="37.12172" lon="27.79899">
        <ele>326.833</ele>
      </trkpt>
      <trkpt lat="37.12161" lon="27.79902">
        <ele>325.387</ele>
      </trkpt>
      <trkpt lat="37.12144" lon="27.79922">
        <ele>323.182</ele>
      </trkpt>
      <trkpt lat="37.12136" lon="27.79946">
        <ele>325.382</ele>
      </trkpt>
      <trkpt lat="37.12136" lon="27.79961">
        <ele>326.262</ele>
      </trkpt>
      <trkpt lat="37.12135" lon="27.79988">
        <ele>327.948</ele>
      </trkpt>
      <trkpt lat="37.12136" lon="27.79991">
        <ele>328.249</ele>
      </trkpt>
      <trkpt lat="37.12135" lon="27.79993">
        <ele>328.376</ele>
      </trkpt>
      <trkpt lat="37.12135" lon="27.8">
        <ele>328.83</ele>
      </trkpt>
      <trkpt lat="37.12132" lon="27.80023">
        <ele>330.374</ele>
      </trkpt>
      <trkpt lat="37.12127" lon="27.80043">
        <ele>331.872</ele>
      </trkpt>
      <trkpt lat="37.12115" lon="27.80062">
        <ele>333.23</ele>
      </trkpt>
      <trkpt lat="37.12108" lon="27.80078">
        <ele>333.551</ele>
      </trkpt>
      <trkpt lat="37.12102" lon="27.80092">
        <ele>333.809</ele>
      </trkpt>
      <trkpt lat="37.12102" lon="27.80089">
        <ele>333.689</ele>
      </trkpt>
      <trkpt lat="37.121" lon="27.80095">
        <ele>334.001</ele>
      </trkpt>
      <trkpt lat="37.12094" lon="27.80113">
        <ele>335.112</ele>
      </trkpt>
      <trkpt lat="37.12086" lon="27.80128">
        <ele>336.214</ele>
      </trkpt>
      <trkpt lat="37.12078" lon="27.80144">
        <ele>337.462</ele>
      </trkpt>
      <trkpt lat="37.12067" lon="27.80161">
        <ele>338.237</ele>
      </trkpt>
      <trkpt lat="37.12058" lon="27.80179">
        <ele>338.843</ele>
      </trkpt>
      <trkpt lat="37.12042" lon="27.80186">
        <ele>340.312</ele>
      </trkpt>
      <trkpt lat="37.12038" lon="27.80187">
        <ele>340.581</ele>
      </trkpt>
      <trkpt lat="37.12032" lon="27.80188">
        <ele>340.96</ele>
      </trkpt>
      <trkpt lat="37.12027" lon="27.80182">
        <ele>341.578</ele>
      </trkpt>
      <trkpt lat="37.12018" lon="27.80165">
        <ele>343.585</ele>
      </trkpt>
      <trkpt lat="37.12017" lon="27.80157">
        <ele>343.371</ele>
      </trkpt>
      <trkpt lat="37.12016" lon="27.80156">
        <ele>343.28</ele>
      </trkpt>
      <trkpt lat="37.12014" lon="27.80132">
        <ele>342.06</ele>
      </trkpt>
      <trkpt lat="37.12011" lon="27.80124">
        <ele>342.217</ele>
      </trkpt>
      <trkpt lat="37.12004" lon="27.80122">
        <ele>343.514</ele>
      </trkpt>
      <trkpt lat="37.12" lon="27.80119">
        <ele>344.247</ele>
      </trkpt>
      <trkpt lat="37.11987" lon="27.80107">
        <ele>346.528</ele>
      </trkpt>
      <trkpt lat="37.11982" lon="27.80108">
        <ele>347.669</ele>
      </trkpt>
      <trkpt lat="37.11979" lon="27.80116">
        <ele>348.923</ele>
      </trkpt>
      <trkpt lat="37.11976" lon="27.80114">
        <ele>349.426</ele>
      </trkpt>
      <trkpt lat="37.1197" lon="27.8011">
        <ele>350.545</ele>
      </trkpt>
      <trkpt lat="37.11964" lon="27.80115">
        <ele>352.4</ele>
      </trkpt>
      <trkpt lat="37.11961" lon="27.80117">
        <ele>353.259</ele>
      </trkpt>
      <trkpt lat="37.11959" lon="27.80117">
        <ele>353.673</ele>
      </trkpt>
      <trkpt lat="37.11952" lon="27.80113">
        <ele>355.171</ele>
      </trkpt>
      <trkpt lat="37.11942" lon="27.80115">
        <ele>357.554</ele>
      </trkpt>
      <trkpt lat="37.11937" lon="27.80115">
        <ele>358.046</ele>
      </trkpt>
      <trkpt lat="37.11936" lon="27.80112">
        <ele>357.993</ele>
      </trkpt>
      <trkpt lat="37.11926" lon="27.80113">
        <ele>359.174</ele>
      </trkpt>
      <trkpt lat="37.11922" lon="27.80115">
        <ele>359.819</ele>
      </trkpt>
      <trkpt lat="37.11917" lon="27.80117">
        <ele>360.629</ele>
      </trkpt>
      <trkpt lat="37.11904" lon="27.80116">
        <ele>361.523</ele>
      </trkpt>
      <trkpt lat="37.11889" lon="27.80121">
        <ele>363.448</ele>
      </trkpt>
      <trkpt lat="37.11884" lon="27.80125">
        <ele>364.282</ele>
      </trkpt>
      <trkpt lat="37.11879" lon="27.80123">
        <ele>364.49</ele>
      </trkpt>
      <trkpt lat="37.11876" lon="27.80128">
        <ele>365.31</ele>
      </trkpt>
      <trkpt lat="37.11865" lon="27.80126">
        <ele>365.941</ele>
      </trkpt>
      <trkpt lat="37.1185" lon="27.80123">
        <ele>366.612</ele>
      </trkpt>
      <trkpt lat="37.11837" lon="27.80127">
        <ele>368.475</ele>
      </trkpt>
      <trkpt lat="37.11827" lon="27.80123">
        <ele>368.39</ele>
      </trkpt>
      <trkpt lat="37.11812" lon="27.80124">
        <ele>369.128</ele>
      </trkpt>
      <trkpt lat="37.11801" lon="27.80127">
        <ele>369.869</ele>
      </trkpt>
      <trkpt lat="37.11791" lon="27.80129">
        <ele>370.344</ele>
      </trkpt>
      <trkpt lat="37.11787" lon="27.80132">
        <ele>370.913</ele>
      </trkpt>
      <trkpt lat="37.11779" lon="27.80134">
        <ele>371.21</ele>
      </trkpt>
      <trkpt lat="37.11767" lon="27.80134">
        <ele>372.18</ele>
      </trkpt>
      <trkpt lat="37.11755" lon="27.80139">
        <ele>373.708</ele>
      </trkpt>
      <trkpt lat="37.11746" lon="27.80144">
        <ele>375.103</ele>
      </trkpt>
      <trkpt lat="37.11745" lon="27.8015">
        <ele>376.039</ele>
      </trkpt>
      <trkpt lat="37.11743" lon="27.80151">
        <ele>376.304</ele>
      </trkpt>
      <trkpt lat="37.11731" lon="27.80141">
        <ele>376.33</ele>
      </trkpt>
      <trkpt lat="37.11712" lon="27.80122">
        <ele>377.848</ele>
      </trkpt>
      <trkpt lat="37.11698" lon="27.80107">
        <ele>379.359</ele>
      </trkpt>
      <trkpt lat="37.11681" lon="27.80092">
        <ele>379.921</ele>
      </trkpt>
      <trkpt lat="37.11667" lon="27.8008">
        <ele>379.84</ele>
      </trkpt>
      <trkpt lat="37.1164" lon="27.80059">
        <ele>379.003</ele>
      </trkpt>
      <trkpt lat="37.11623" lon="27.80047">
        <ele>378.303</ele>
      </trkpt>
      <trkpt lat="37.11603" lon="27.80033">
        <ele>377.944</ele>
      </trkpt>
      <trkpt lat="37.11584" lon="27.80026">
        <ele>378.162</ele>
      </trkpt>
      <trkpt lat="37.1157" lon="27.80009">
        <ele>379.225</ele>
      </trkpt>
      <trkpt lat="37.1157" lon="27.80008">
        <ele>379.27</ele>
      </trkpt>
      <trkpt lat="37.11563" lon="27.79994">
        <ele>380.603</ele>
      </trkpt>
      <trkpt lat="37.11551" lon="27.79976">
        <ele>382.197</ele>
      </trkpt>
      <trkpt lat="37.11535" lon="27.79966">
        <ele>382.387</ele>
      </trkpt>
      <trkpt lat="37.11518" lon="27.79946">
        <ele>384.33</ele>
      </trkpt>
      <trkpt lat="37.11503" lon="27.7994">
        <ele>385.108</ele>
      </trkpt>
      <trkpt lat="37.11486" lon="27.79943">
        <ele>384.249</ele>
      </trkpt>
      <trkpt lat="37.11466" lon="27.79953">
        <ele>382.869</ele>
      </trkpt>
      <trkpt lat="37.11445" lon="27.79952">
        <ele>384.124</ele>
      </trkpt>
      <trkpt lat="37.11424" lon="27.79957">
        <ele>384.709</ele>
      </trkpt>
      <trkpt lat="37.11402" lon="27.79967">
        <ele>386.24</ele>
      </trkpt>
      <trkpt lat="37.11387" lon="27.79972">
        <ele>388.326</ele>
      </trkpt>
      <trkpt lat="37.11381" lon="27.79983">
        <ele>389.678</ele>
      </trkpt>
      <trkpt lat="37.11374" lon="27.80001">
        <ele>391.718</ele>
      </trkpt>
      <trkpt lat="37.11372" lon="27.80018">
        <ele>391.734</ele>
      </trkpt>
      <trkpt lat="37.11369" lon="27.80035">
        <ele>391.184</ele>
      </trkpt>
      <trkpt lat="37.11367" lon="27.80053">
        <ele>389.96</ele>
      </trkpt>
      <trkpt lat="37.1137" lon="27.80073">
        <ele>387.657</ele>
      </trkpt>
      <trkpt lat="37.11367" lon="27.80092">
        <ele>387.214</ele>
      </trkpt>
      <trkpt lat="37.11363" lon="27.80097">
        <ele>387.999</ele>
      </trkpt>
      <trkpt lat="37.11356" lon="27.80094">
        <ele>389.36</ele>
      </trkpt>
      <trkpt lat="37.11343" lon="27.80075">
        <ele>392.429</ele>
      </trkpt>
      <trkpt lat="37.11331" lon="27.80058">
        <ele>395.929</ele>
      </trkpt>
      <trkpt lat="37.11314" lon="27.8004">
        <ele>398.507</ele>
      </trkpt>
      <trkpt lat="37.11302" lon="27.80029">
        <ele>400.051</ele>
      </trkpt>
      <trkpt lat="37.11297" lon="27.80021">
        <ele>400.704</ele>
      </trkpt>
      <trkpt lat="37.11279" lon="27.80005">
        <ele>401.82</ele>
      </trkpt>
      <trkpt lat="37.1126" lon="27.7999">
        <ele>403.387</ele>
      </trkpt>
      <trkpt lat="37.11243" lon="27.79986">
        <ele>404.026</ele>
      </trkpt>
      <trkpt lat="37.11228" lon="27.79976">
        <ele>404.155</ele>
      </trkpt>
      <trkpt lat="37.11215" lon="27.79961">
        <ele>404.533</ele>
      </trkpt>
      <trkpt lat="37.112" lon="27.79949">
        <ele>404.849</ele>
      </trkpt>
      <trkpt lat="37.11187" lon="27.79935">
        <ele>406.699</ele>
      </trkpt>
      <trkpt lat="37.11182" lon="27.79926">
        <ele>408.063</ele>
      </trkpt>
      <trkpt lat="37.11173" lon="27.79913">
        <ele>409.829</ele>
      </trkpt>
      <trkpt lat="37.11163" lon="27.79894">
        <ele>411.881</ele>
      </trkpt>
      <trkpt lat="37.11152" lon="27.79882">
        <ele>413.566</ele>
      </trkpt>
      <trkpt lat="37.11142" lon="27.79879">
        <ele>414.508</ele>
      </trkpt>
      <trkpt lat="37.1113" lon="27.79873">
        <ele>415.311</ele>
      </trkpt>
      <trkpt lat="37.11114" lon="27.79872">
        <ele>415.575</ele>
      </trkpt>
      <trkpt lat="37.11099" lon="27.79876">
        <ele>415.906</ele>
      </trkpt>
      <trkpt lat="37.11081" lon="27.7987">
        <ele>416.848</ele>
      </trkpt>
      <trkpt lat="37.11062" lon="27.79868">
        <ele>418.125</ele>
      </trkpt>
      <trkpt lat="37.11052" lon="27.7989">
        <ele>417.44</ele>
      </trkpt>
      <trkpt lat="37.1105" lon="27.79911">
        <ele>416.291</ele>
      </trkpt>
      <trkpt lat="37.11044" lon="27.79931">
        <ele>416.49</ele>
      </trkpt>
      <trkpt lat="37.1104" lon="27.79951">
        <ele>416.579</ele>
      </trkpt>
      <trkpt lat="37.11035" lon="27.79966">
        <ele>416.693</ele>
      </trkpt>
      <trkpt lat="37.11029" lon="27.79981">
        <ele>416.906</ele>
      </trkpt>
      <trkpt lat="37.11029" lon="27.79988">
        <ele>416.951</ele>
      </trkpt>
      <trkpt lat="37.11024" lon="27.80005">
        <ele>417.371</ele>
      </trkpt>
      <trkpt lat="37.11023" lon="27.80025">
        <ele>417.569</ele>
      </trkpt>
      <trkpt lat="37.11016" lon="27.80041">
        <ele>417.89</ele>
      </trkpt>
      <trkpt lat="37.11005" lon="27.80052">
        <ele>418.034</ele>
      </trkpt>
      <trkpt lat="37.10992" lon="27.80058">
        <ele>418.297</ele>
      </trkpt>
      <trkpt lat="37.10977" lon="27.80068">
        <ele>417.998</ele>
      </trkpt>
      <trkpt lat="37.10962" lon="27.80075">
        <ele>418.033</ele>
      </trkpt>
      <trkpt lat="37.10951" lon="27.80083">
        <ele>418.344</ele>
      </trkpt>
      <trkpt lat="37.10935" lon="27.8009">
        <ele>419.089</ele>
      </trkpt>
      <trkpt lat="37.10934" lon="27.8009">
        <ele>419.149</ele>
      </trkpt>
      <trkpt lat="37.10927" lon="27.80095">
        <ele>419.304</ele>
      </trkpt>
      <trkpt lat="37.10917" lon="27.80102">
        <ele>419.621</ele>
      </trkpt>
      <trkpt lat="37.10915" lon="27.80105">
        <ele>419.601</ele>
      </trkpt>
      <trkpt lat="37.10908" lon="27.80122">
        <ele>418.297</ele>
      </trkpt>
      <trkpt lat="37.10903" lon="27.80139">
        <ele>416.508</ele>
      </trkpt>
      <trkpt lat="37.10894" lon="27.80158">
        <ele>414.812</ele>
      </trkpt>
      <trkpt lat="37.10875" lon="27.80165">
        <ele>414.703</ele>
      </trkpt>
      <trkpt lat="37.10854" lon="27.80165">
        <ele>415.724</ele>
      </trkpt>
      <trkpt lat="37.10839" lon="27.80178">
        <ele>415.447</ele>
      </trkpt>
      <trkpt lat="37.10829" lon="27.80202">
        <ele>412.996</ele>
      </trkpt>
      <trkpt lat="37.10818" lon="27.80201">
        <ele>413.229</ele>
      </trkpt>
      <trkpt lat="37.10805" lon="27.80189">
        <ele>414.65</ele>
      </trkpt>
      <trkpt lat="37.10788" lon="27.80195">
        <ele>415.179</ele>
      </trkpt>
      <trkpt lat="37.10776" lon="27.80209">
        <ele>415.128</ele>
      </trkpt>
      <trkpt lat="37.10762" lon="27.80225">
        <ele>415.461</ele>
      </trkpt>
      <trkpt lat="37.10742" lon="27.80242">
        <ele>415.064</ele>
      </trkpt>
      <trkpt lat="37.10741" lon="27.80246">
        <ele>414.703</ele>
      </trkpt>
      <trkpt lat="37.10743" lon="27.80247">
        <ele>414.607</ele>
      </trkpt>
      <trkpt lat="37.10736" lon="27.80244">
        <ele>415.066</ele>
      </trkpt>
      <trkpt lat="37.10717" lon="27.80249">
        <ele>415.267</ele>
      </trkpt>
      <trkpt lat="37.10697" lon="27.80256">
        <ele>415.689</ele>
      </trkpt>
      <trkpt lat="37.10684" lon="27.80264">
        <ele>415.849</ele>
      </trkpt>
      <trkpt lat="37.10669" lon="27.8027">
        <ele>416.184</ele>
      </trkpt>
      <trkpt lat="37.10661" lon="27.80285">
        <ele>416.424</ele>
      </trkpt>
      <trkpt lat="37.10651" lon="27.80303">
        <ele>417.132</ele>
      </trkpt>
      <trkpt lat="37.1064" lon="27.80323">
        <ele>417.919</ele>
      </trkpt>
      <trkpt lat="37.10632" lon="27.8035">
        <ele>419.15</ele>
      </trkpt>
      <trkpt lat="37.10631" lon="27.80375">
        <ele>418.992</ele>
      </trkpt>
      <trkpt lat="37.1063" lon="27.804">
        <ele>418.979</ele>
      </trkpt>
      <trkpt lat="37.1063" lon="27.8043">
        <ele>418.905</ele>
      </trkpt>
      <trkpt lat="37.10628" lon="27.80452">
        <ele>419.43</ele>
      </trkpt>
      <trkpt lat="37.10625" lon="27.80479">
        <ele>419.345</ele>
      </trkpt>
      <trkpt lat="37.10619" lon="27.805">
        <ele>419.375</ele>
      </trkpt>
      <trkpt lat="37.10612" lon="27.80527">
        <ele>417.056</ele>
      </trkpt>
      <trkpt lat="37.10608" lon="27.80546">
        <ele>416.627</ele>
      </trkpt>
      <trkpt lat="37.10601" lon="27.80564">
        <ele>416.947</ele>
      </trkpt>
      <trkpt lat="37.10588" lon="27.80588">
        <ele>418.002</ele>
      </trkpt>
      <trkpt lat="37.10576" lon="27.80611">
        <ele>419.254</ele>
      </trkpt>
      <trkpt lat="37.10563" lon="27.80634">
        <ele>420.526</ele>
      </trkpt>
      <trkpt lat="37.10562" lon="27.80637">
        <ele>420.73</ele>
      </trkpt>
      <trkpt lat="37.10552" lon="27.80653">
        <ele>421.572</ele>
      </trkpt>
      <trkpt lat="37.10544" lon="27.80676">
        <ele>422.333</ele>
      </trkpt>
      <trkpt lat="37.10539" lon="27.8069">
        <ele>422.842</ele>
      </trkpt>
      <trkpt lat="37.10535" lon="27.80706">
        <ele>423</ele>
      </trkpt>
      <trkpt lat="37.10532" lon="27.80722">
        <ele>423</ele>
      </trkpt>
      <trkpt lat="37.10525" lon="27.80742">
        <ele>423.833</ele>
      </trkpt>
      <trkpt lat="37.10517" lon="27.80755">
        <ele>424.444</ele>
      </trkpt>
      <trkpt lat="37.10513" lon="27.80761">
        <ele>424.727</ele>
      </trkpt>
      <trkpt lat="37.1051" lon="27.80774">
        <ele>425.209</ele>
      </trkpt>
      <trkpt lat="37.10513" lon="27.80796">
        <ele>426.047</ele>
      </trkpt>
      <trkpt lat="37.10513" lon="27.80812">
        <ele>426.682</ele>
      </trkpt>
      <trkpt lat="37.10513" lon="27.80812">
        <ele>426.66</ele>
      </trkpt>
      <trkpt lat="37.10511" lon="27.80809">
        <ele>426.686</ele>
      </trkpt>
      <trkpt lat="37.10507" lon="27.80825">
        <ele>427.276</ele>
      </trkpt>
      <trkpt lat="37.10499" lon="27.80847">
        <ele>428.57</ele>
      </trkpt>
      <trkpt lat="37.10489" lon="27.80866">
        <ele>429.877</ele>
      </trkpt>
      <trkpt lat="37.10481" lon="27.80885">
        <ele>430.621</ele>
      </trkpt>
      <trkpt lat="37.10469" lon="27.80907">
        <ele>430.658</ele>
      </trkpt>
      <trkpt lat="37.10455" lon="27.8092">
        <ele>431.689</ele>
      </trkpt>
      <trkpt lat="37.10442" lon="27.80927">
        <ele>432.705</ele>
      </trkpt>
      <trkpt lat="37.10436" lon="27.80942">
        <ele>432.771</ele>
      </trkpt>
      <trkpt lat="37.1043" lon="27.80958">
        <ele>433.274</ele>
      </trkpt>
      <trkpt lat="37.10424" lon="27.80972">
        <ele>433.513</ele>
      </trkpt>
      <trkpt lat="37.10418" lon="27.80987">
        <ele>434.945</ele>
      </trkpt>
      <trkpt lat="37.10418" lon="27.81008">
        <ele>435.892</ele>
      </trkpt>
      <trkpt lat="37.10416" lon="27.81017">
        <ele>436.09</ele>
      </trkpt>
      <trkpt lat="37.10415" lon="27.81019">
        <ele>436.175</ele>
      </trkpt>
      <trkpt lat="37.10415" lon="27.81025">
        <ele>436.19</ele>
      </trkpt>
      <trkpt lat="37.10411" lon="27.81033">
        <ele>436.543</ele>
      </trkpt>
      <trkpt lat="37.10399" lon="27.81049">
        <ele>436.927</ele>
      </trkpt>
      <trkpt lat="37.10395" lon="27.8105">
        <ele>437.098</ele>
      </trkpt>
      <trkpt lat="37.10393" lon="27.81043">
        <ele>437.596</ele>
      </trkpt>
      <trkpt lat="37.10393" lon="27.81043">
        <ele>437.682</ele>
      </trkpt>
      <trkpt lat="37.10385" lon="27.81041">
        <ele>438.398</ele>
      </trkpt>
      <trkpt lat="37.10381" lon="27.81038">
        <ele>439.035</ele>
      </trkpt>
      <trkpt lat="37.10376" lon="27.81039">
        <ele>439.539</ele>
      </trkpt>
      <trkpt lat="37.10374" lon="27.81039">
        <ele>439.748</ele>
      </trkpt>
      <trkpt lat="37.10373" lon="27.81039">
        <ele>439.769</ele>
      </trkpt>
      <trkpt lat="37.10372" lon="27.81039">
        <ele>439.835</ele>
      </trkpt>
      <trkpt lat="37.10367" lon="27.81035">
        <ele>441.118</ele>
      </trkpt>
      <trkpt lat="37.10361" lon="27.81034">
        <ele>441.781</ele>
      </trkpt>
      <trkpt lat="37.10353" lon="27.81031">
        <ele>443.995</ele>
      </trkpt>
      <trkpt lat="37.10349" lon="27.81021">
        <ele>446.787</ele>
      </trkpt>
      <trkpt lat="37.10343" lon="27.81011">
        <ele>449.945</ele>
      </trkpt>
      <trkpt lat="37.1034" lon="27.81003">
        <ele>451.899</ele>
      </trkpt>
      <trkpt lat="37.10339" lon="27.81002">
        <ele>452.414</ele>
      </trkpt>
      <trkpt lat="37.10335" lon="27.80995">
        <ele>454.144</ele>
      </trkpt>
      <trkpt lat="37.10323" lon="27.80993">
        <ele>456.649</ele>
      </trkpt>
      <trkpt lat="37.1032" lon="27.8099">
        <ele>457.65</ele>
      </trkpt>
      <trkpt lat="37.10318" lon="27.80983">
        <ele>458.948</ele>
      </trkpt>
      <trkpt lat="37.1032" lon="27.80975">
        <ele>459.632</ele>
      </trkpt>
      <trkpt lat="37.1032" lon="27.80973">
        <ele>459.859</ele>
      </trkpt>
      <trkpt lat="37.10317" lon="27.80968">
        <ele>461.055</ele>
      </trkpt>
      <trkpt lat="37.10313" lon="27.80964">
        <ele>462.643</ele>
      </trkpt>
      <trkpt lat="37.10313" lon="27.80963">
        <ele>462.69</ele>
      </trkpt>
      <trkpt lat="37.10314" lon="27.8096">
        <ele>463.094</ele>
      </trkpt>
      <trkpt lat="37.1031" lon="27.80953">
        <ele>465.122</ele>
      </trkpt>
      <trkpt lat="37.10308" lon="27.80944">
        <ele>467.493</ele>
      </trkpt>
      <trkpt lat="37.10306" lon="27.80941">
        <ele>468.519</ele>
      </trkpt>
      <trkpt lat="37.10297" lon="27.80933">
        <ele>472.041</ele>
      </trkpt>
      <trkpt lat="37.10293" lon="27.80926">
        <ele>474.167</ele>
      </trkpt>
      <trkpt lat="37.10293" lon="27.80919">
        <ele>475.736</ele>
      </trkpt>
      <trkpt lat="37.10296" lon="27.8091">
        <ele>477.015</ele>
      </trkpt>
      <trkpt lat="37.10295" lon="27.80902">
        <ele>478.656</ele>
      </trkpt>
      <trkpt lat="37.10294" lon="27.809">
        <ele>479.528</ele>
      </trkpt>
      <trkpt lat="37.10288" lon="27.80892">
        <ele>482.945</ele>
      </trkpt>
      <trkpt lat="37.10284" lon="27.80889">
        <ele>484.959</ele>
      </trkpt>
      <trkpt lat="37.10279" lon="27.80883">
        <ele>488.149</ele>
      </trkpt>
      <trkpt lat="37.1028" lon="27.80875">
        <ele>489.879</ele>
      </trkpt>
      <trkpt lat="37.10279" lon="27.80867">
        <ele>491.866</ele>
      </trkpt>
      <trkpt lat="37.10272" lon="27.8086">
        <ele>495.963</ele>
      </trkpt>
      <trkpt lat="37.10271" lon="27.80859">
        <ele>496.516</ele>
      </trkpt>
      <trkpt lat="37.10269" lon="27.80858">
        <ele>497.581</ele>
      </trkpt>
      <trkpt lat="37.10263" lon="27.80846">
        <ele>501.491</ele>
      </trkpt>
      <trkpt lat="37.10261" lon="27.80839">
        <ele>503.349</ele>
      </trkpt>
      <trkpt lat="37.10258" lon="27.80829">
        <ele>506.141</ele>
      </trkpt>
      <trkpt lat="37.10259" lon="27.80822">
        <ele>506.958</ele>
      </trkpt>
      <trkpt lat="37.10252" lon="27.80815">
        <ele>510.967</ele>
      </trkpt>
      <trkpt lat="37.10251" lon="27.80801">
        <ele>514.038</ele>
      </trkpt>
      <trkpt lat="37.10248" lon="27.8079">
        <ele>516.23</ele>
      </trkpt>
      <trkpt lat="37.10246" lon="27.80782">
        <ele>517.603</ele>
      </trkpt>
      <trkpt lat="37.10245" lon="27.80775">
        <ele>518.97</ele>
      </trkpt>
      <trkpt lat="37.10244" lon="27.80771">
        <ele>519.834</ele>
      </trkpt>
      <trkpt lat="37.1024" lon="27.80766">
        <ele>521.848</ele>
      </trkpt>
      <trkpt lat="37.10238" lon="27.80767">
        <ele>522.325</ele>
      </trkpt>
      <trkpt lat="37.10234" lon="27.80762">
        <ele>524.863</ele>
      </trkpt>
      <trkpt lat="37.10232" lon="27.80758">
        <ele>526.742</ele>
      </trkpt>
      <trkpt lat="37.10229" lon="27.80759">
        <ele>527.752</ele>
      </trkpt>
      <trkpt lat="37.10225" lon="27.8076">
        <ele>529.162</ele>
      </trkpt>
      <trkpt lat="37.1022" lon="27.80762">
        <ele>530.093</ele>
      </trkpt>
      <trkpt lat="37.10215" lon="27.80765">
        <ele>530.475</ele>
      </trkpt>
      <trkpt lat="37.10212" lon="27.80766">
        <ele>530.892</ele>
      </trkpt>
      <trkpt lat="37.10211" lon="27.80766">
        <ele>531</ele>
      </trkpt>
      <trkpt lat="37.10202" lon="27.80765">
        <ele>533.449</ele>
      </trkpt>
      <trkpt lat="37.10197" lon="27.80765">
        <ele>534.511</ele>
      </trkpt>
      <trkpt lat="37.10192" lon="27.80762">
        <ele>536.63</ele>
      </trkpt>
      <trkpt lat="37.1018" lon="27.80754">
        <ele>541.959</ele>
      </trkpt>
      <trkpt lat="37.10165" lon="27.80757">
        <ele>543.021</ele>
      </trkpt>
      <trkpt lat="37.10162" lon="27.80756">
        <ele>543.389</ele>
      </trkpt>
      <trkpt lat="37.10148" lon="27.80748">
        <ele>547.855</ele>
      </trkpt>
      <trkpt lat="37.10139" lon="27.80747">
        <ele>548.943</ele>
      </trkpt>
      <trkpt lat="37.10135" lon="27.80745">
        <ele>549.519</ele>
      </trkpt>
      <trkpt lat="37.10123" lon="27.80741">
        <ele>551.002</ele>
      </trkpt>
      <trkpt lat="37.10119" lon="27.80737">
        <ele>552.531</ele>
      </trkpt>
      <trkpt lat="37.10114" lon="27.80733">
        <ele>553.883</ele>
      </trkpt>
      <trkpt lat="37.10103" lon="27.80725">
        <ele>557.078</ele>
      </trkpt>
      <trkpt lat="37.10099" lon="27.80722">
        <ele>558.17</ele>
      </trkpt>
      <trkpt lat="37.10091" lon="27.80715">
        <ele>560.06</ele>
      </trkpt>
      <trkpt lat="37.10087" lon="27.80713">
        <ele>560.682</ele>
      </trkpt>
      <trkpt lat="37.10083" lon="27.80711">
        <ele>561.212</ele>
      </trkpt>
      <trkpt lat="37.10069" lon="27.80706">
        <ele>562.679</ele>
      </trkpt>
      <trkpt lat="37.10057" lon="27.80701">
        <ele>564.217</ele>
      </trkpt>
      <trkpt lat="37.10048" lon="27.80697">
        <ele>565.232</ele>
      </trkpt>
      <trkpt lat="37.10048" lon="27.80696">
        <ele>565.633</ele>
      </trkpt>
      <trkpt lat="37.10038" lon="27.8069">
        <ele>567.502</ele>
      </trkpt>
      <trkpt lat="37.10027" lon="27.80682">
        <ele>570.409</ele>
      </trkpt>
      <trkpt lat="37.10026" lon="27.80682">
        <ele>570.424</ele>
      </trkpt>
      <trkpt lat="37.10014" lon="27.80677">
        <ele>571.411</ele>
      </trkpt>
      <trkpt lat="37.10012" lon="27.80674">
        <ele>572.264</ele>
      </trkpt>
      <trkpt lat="37.10005" lon="27.80667">
        <ele>574.36</ele>
      </trkpt>
      <trkpt lat="37.09994" lon="27.80664">
        <ele>574.547</ele>
      </trkpt>
      <trkpt lat="37.09988" lon="27.80661">
        <ele>574.935</ele>
      </trkpt>
      <trkpt lat="37.09981" lon="27.80653">
        <ele>577.33</ele>
      </trkpt>
      <trkpt lat="37.0998" lon="27.80652">
        <ele>577.646</ele>
      </trkpt>
      <trkpt lat="37.09969" lon="27.80644">
        <ele>580.109</ele>
      </trkpt>
      <trkpt lat="37.09966" lon="27.80643">
        <ele>580.801</ele>
      </trkpt>
      <trkpt lat="37.09959" lon="27.80639">
        <ele>582.286</ele>
      </trkpt>
      <trkpt lat="37.09957" lon="27.80639">
        <ele>582.535</ele>
      </trkpt>
      <trkpt lat="37.09952" lon="27.80634">
        <ele>585.031</ele>
      </trkpt>
      <trkpt lat="37.09946" lon="27.80632">
        <ele>586.611</ele>
      </trkpt>
      <trkpt lat="37.09936" lon="27.80629">
        <ele>588.141</ele>
      </trkpt>
      <trkpt lat="37.09926" lon="27.80627">
        <ele>589.452</ele>
      </trkpt>
      <trkpt lat="37.09915" lon="27.80629">
        <ele>588.704</ele>
      </trkpt>
      <trkpt lat="37.09901" lon="27.80634">
        <ele>586.914</ele>
      </trkpt>
      <trkpt lat="37.09888" lon="27.80632">
        <ele>588.463</ele>
      </trkpt>
      <trkpt lat="37.09882" lon="27.80634">
        <ele>588.511</ele>
      </trkpt>
      <trkpt lat="37.09872" lon="27.80633">
        <ele>590.502</ele>
      </trkpt>
      <trkpt lat="37.09864" lon="27.80631">
        <ele>592.971</ele>
      </trkpt>
      <trkpt lat="37.09862" lon="27.80631">
        <ele>593.473</ele>
      </trkpt>
      <trkpt lat="37.09851" lon="27.80629">
        <ele>595.834</ele>
      </trkpt>
      <trkpt lat="37.09839" lon="27.80629">
        <ele>598.172</ele>
      </trkpt>
      <trkpt lat="37.09829" lon="27.80626">
        <ele>601.079</ele>
      </trkpt>
      <trkpt lat="37.09815" lon="27.80625">
        <ele>603.218</ele>
      </trkpt>
      <trkpt lat="37.09801" lon="27.80625">
        <ele>604.644</ele>
      </trkpt>
      <trkpt lat="37.09796" lon="27.80626">
        <ele>604.58</ele>
      </trkpt>
      <trkpt lat="37.09783" lon="27.80623">
        <ele>607.17</ele>
      </trkpt>
      <trkpt lat="37.09768" lon="27.80623">
        <ele>608.783</ele>
      </trkpt>
      <trkpt lat="37.09747" lon="27.80623">
        <ele>611.564</ele>
      </trkpt>
      <trkpt lat="37.09733" lon="27.80622">
        <ele>614.003</ele>
      </trkpt>
      <trkpt lat="37.09731" lon="27.80622">
        <ele>613.994</ele>
      </trkpt>
      <trkpt lat="37.09715" lon="27.80627">
        <ele>613.428</ele>
      </trkpt>
      <trkpt lat="37.097" lon="27.80632">
        <ele>612.369</ele>
      </trkpt>
      <trkpt lat="37.09685" lon="27.80631">
        <ele>613.373</ele>
      </trkpt>
      <trkpt lat="37.09681" lon="27.80631">
        <ele>613.518</ele>
      </trkpt>
      <trkpt lat="37.09669" lon="27.80632">
        <ele>613.094</ele>
      </trkpt>
      <trkpt lat="37.09656" lon="27.80634">
        <ele>612.393</ele>
      </trkpt>
      <trkpt lat="37.09643" lon="27.80636">
        <ele>611.937</ele>
      </trkpt>
      <trkpt lat="37.09633" lon="27.80632">
        <ele>612.717</ele>
      </trkpt>
      <trkpt lat="37.09621" lon="27.80631">
        <ele>612.587</ele>
      </trkpt>
      <trkpt lat="37.09617" lon="27.80629">
        <ele>612.79</ele>
      </trkpt>
      <trkpt lat="37.09616" lon="27.80628">
        <ele>612.939</ele>
      </trkpt>
      <trkpt lat="37.09604" lon="27.80624">
        <ele>613.984</ele>
      </trkpt>
      <trkpt lat="37.09593" lon="27.80617">
        <ele>615.729</ele>
      </trkpt>
      <trkpt lat="37.09582" lon="27.80613">
        <ele>616.602</ele>
      </trkpt>
      <trkpt lat="37.09573" lon="27.80613">
        <ele>616.651</ele>
      </trkpt>
      <trkpt lat="37.09568" lon="27.80614">
        <ele>616.526</ele>
      </trkpt>
      <trkpt lat="37.09559" lon="27.80616">
        <ele>616.326</ele>
      </trkpt>
      <trkpt lat="37.09556" lon="27.80615">
        <ele>616.469</ele>
      </trkpt>
      <trkpt lat="37.09547" lon="27.80616">
        <ele>616.953</ele>
      </trkpt>
      <trkpt lat="37.09531" lon="27.80627">
        <ele>617.027</ele>
      </trkpt>
      <trkpt lat="37.09528" lon="27.80629">
        <ele>617.075</ele>
      </trkpt>
      <trkpt lat="37.09519" lon="27.80629">
        <ele>617.514</ele>
      </trkpt>
      <trkpt lat="37.09514" lon="27.80626">
        <ele>617.972</ele>
      </trkpt>
      <trkpt lat="37.09502" lon="27.8062">
        <ele>618.638</ele>
      </trkpt>
      <trkpt lat="37.09496" lon="27.80619">
        <ele>618.361</ele>
      </trkpt>
      <trkpt lat="37.09487" lon="27.80616">
        <ele>617.722</ele>
      </trkpt>
      <trkpt lat="37.09478" lon="27.80611">
        <ele>617.451</ele>
      </trkpt>
      <trkpt lat="37.09474" lon="27.80612">
        <ele>617.057</ele>
      </trkpt>
      <trkpt lat="37.09466" lon="27.80609">
        <ele>616.799</ele>
      </trkpt>
      <trkpt lat="37.09463" lon="27.80603">
        <ele>617.551</ele>
      </trkpt>
      <trkpt lat="37.09454" lon="27.80587">
        <ele>620.006</ele>
      </trkpt>
      <trkpt lat="37.09442" lon="27.80583">
        <ele>621.162</ele>
      </trkpt>
      <trkpt lat="37.0944" lon="27.80583">
        <ele>621.248</ele>
      </trkpt>
      <trkpt lat="37.09433" lon="27.80589">
        <ele>620.434</ele>
      </trkpt>
      <trkpt lat="37.09428" lon="27.80588">
        <ele>620.791</ele>
      </trkpt>
      <trkpt lat="37.09425" lon="27.80587">
        <ele>621.035</ele>
      </trkpt>
      <trkpt lat="37.09418" lon="27.8059">
        <ele>620.979</ele>
      </trkpt>
      <trkpt lat="37.09417" lon="27.80586">
        <ele>621.579</ele>
      </trkpt>
      <trkpt lat="37.09407" lon="27.8058">
        <ele>623.334</ele>
      </trkpt>
      <trkpt lat="37.09395" lon="27.80574">
        <ele>624.803</ele>
      </trkpt>
      <trkpt lat="37.09387" lon="27.80574">
        <ele>625.546</ele>
      </trkpt>
      <trkpt lat="37.0938" lon="27.80566">
        <ele>626.924</ele>
      </trkpt>
      <trkpt lat="37.09376" lon="27.80542">
        <ele>627.699</ele>
      </trkpt>
      <trkpt lat="37.09371" lon="27.80536">
        <ele>627.897</ele>
      </trkpt>
      <trkpt lat="37.09365" lon="27.80528">
        <ele>627.883</ele>
      </trkpt>
      <trkpt lat="37.09353" lon="27.80511">
        <ele>629.809</ele>
      </trkpt>
      <trkpt lat="37.09346" lon="27.80489">
        <ele>630.827</ele>
      </trkpt>
      <trkpt lat="37.09338" lon="27.80471">
        <ele>632.582</ele>
      </trkpt>
      <trkpt lat="37.09335" lon="27.80472">
        <ele>633.377</ele>
      </trkpt>
      <trkpt lat="37.09327" lon="27.80473">
        <ele>634.708</ele>
      </trkpt>
      <trkpt lat="37.09317" lon="27.80469">
        <ele>635.512</ele>
      </trkpt>
      <trkpt lat="37.09311" lon="27.80472">
        <ele>636.398</ele>
      </trkpt>
      <trkpt lat="37.09304" lon="27.80472">
        <ele>637.097</ele>
      </trkpt>
      <trkpt lat="37.09296" lon="27.80463">
        <ele>637.629</ele>
      </trkpt>
      <trkpt lat="37.09285" lon="27.80455">
        <ele>638.799</ele>
      </trkpt>
      <trkpt lat="37.09278" lon="27.80437">
        <ele>639.955</ele>
      </trkpt>
      <trkpt lat="37.09268" lon="27.80427">
        <ele>641.674</ele>
      </trkpt>
      <trkpt lat="37.09262" lon="27.80414">
        <ele>642.801</ele>
      </trkpt>
      <trkpt lat="37.09253" lon="27.80397">
        <ele>643.807</ele>
      </trkpt>
      <trkpt lat="37.09247" lon="27.80381">
        <ele>644.112</ele>
      </trkpt>
      <trkpt lat="37.0924" lon="27.80369">
        <ele>644.367</ele>
      </trkpt>
      <trkpt lat="37.09231" lon="27.80354">
        <ele>645.447</ele>
      </trkpt>
      <trkpt lat="37.09231" lon="27.80346">
        <ele>646.33</ele>
      </trkpt>
      <trkpt lat="37.09227" lon="27.80326">
        <ele>648.75</ele>
      </trkpt>
      <trkpt lat="37.09219" lon="27.80307">
        <ele>651.941</ele>
      </trkpt>
      <trkpt lat="37.09211" lon="27.80294">
        <ele>654.334</ele>
      </trkpt>
      <trkpt lat="37.09198" lon="27.80277">
        <ele>657.856</ele>
      </trkpt>
      <trkpt lat="37.09185" lon="27.80264">
        <ele>659.349</ele>
      </trkpt>
      <trkpt lat="37.09179" lon="27.80263">
        <ele>659.646</ele>
      </trkpt>
      <trkpt lat="37.0917" lon="27.80263">
        <ele>659.984</ele>
      </trkpt>
      <trkpt lat="37.09162" lon="27.8027">
        <ele>659.992</ele>
      </trkpt>
      <trkpt lat="37.09147" lon="27.80281">
        <ele>660.628</ele>
      </trkpt>
      <trkpt lat="37.0913" lon="27.80286">
        <ele>660.476</ele>
      </trkpt>
      <trkpt lat="37.09118" lon="27.80292">
        <ele>659.89</ele>
      </trkpt>
      <trkpt lat="37.09118" lon="27.80292">
        <ele>659.889</ele>
      </trkpt>
      <trkpt lat="37.09117" lon="27.80293">
        <ele>659.751</ele>
      </trkpt>
      <trkpt lat="37.09116" lon="27.80285">
        <ele>660.485</ele>
      </trkpt>
      <trkpt lat="37.09113" lon="27.80282">
        <ele>660.712</ele>
      </trkpt>
      <trkpt lat="37.09113" lon="27.80282">
        <ele>660.727</ele>
      </trkpt>
      <trkpt lat="37.09107" lon="27.80279">
        <ele>660.48</ele>
      </trkpt>
      <trkpt lat="37.09089" lon="27.80271">
        <ele>658.674</ele>
      </trkpt>
      <trkpt lat="37.09069" lon="27.80266">
        <ele>655.948</ele>
      </trkpt>
      <trkpt lat="37.09051" lon="27.80262">
        <ele>653.305</ele>
      </trkpt>
      <trkpt lat="37.09032" lon="27.80255">
        <ele>650.078</ele>
      </trkpt>
      <trkpt lat="37.09016" lon="27.80249">
        <ele>648.568</ele>
      </trkpt>
      <trkpt lat="37.09" lon="27.80245">
        <ele>647.676</ele>
      </trkpt>
      <trkpt lat="37.0898" lon="27.80241">
        <ele>646.628</ele>
      </trkpt>
      <trkpt lat="37.08968" lon="27.80241">
        <ele>646.182</ele>
      </trkpt>
      <trkpt lat="37.08957" lon="27.8024">
        <ele>645.685</ele>
      </trkpt>
      <trkpt lat="37.08948" lon="27.80223">
        <ele>644.175</ele>
      </trkpt>
      <trkpt lat="37.08935" lon="27.80205">
        <ele>642.301</ele>
      </trkpt>
      <trkpt lat="37.08919" lon="27.80177">
        <ele>640.399</ele>
      </trkpt>
      <trkpt lat="37.08901" lon="27.80153">
        <ele>640.351</ele>
      </trkpt>
      <trkpt lat="37.08883" lon="27.80132">
        <ele>641.393</ele>
      </trkpt>
      <trkpt lat="37.08866" lon="27.80117">
        <ele>641.985</ele>
      </trkpt>
      <trkpt lat="37.08865" lon="27.80116">
        <ele>642.029</ele>
      </trkpt>
      <trkpt lat="37.0885" lon="27.80128">
        <ele>644.64</ele>
      </trkpt>
      <trkpt lat="37.08829" lon="27.80155">
        <ele>648.353</ele>
      </trkpt>
      <trkpt lat="37.0881" lon="27.80172">
        <ele>650.771</ele>
      </trkpt>
      <trkpt lat="37.08802" lon="27.80188">
        <ele>649.891</ele>
      </trkpt>
      <trkpt lat="37.0878" lon="27.80205">
        <ele>650.088</ele>
      </trkpt>
      <trkpt lat="37.08766" lon="27.8022">
        <ele>649.145</ele>
      </trkpt>
      <trkpt lat="37.0875" lon="27.80232">
        <ele>648.639</ele>
      </trkpt>
      <trkpt lat="37.08735" lon="27.80248">
        <ele>648.614</ele>
      </trkpt>
      <trkpt lat="37.08715" lon="27.80268">
        <ele>649.104</ele>
      </trkpt>
      <trkpt lat="37.08701" lon="27.80283">
        <ele>650.138</ele>
      </trkpt>
      <trkpt lat="37.08685" lon="27.80295">
        <ele>651.218</ele>
      </trkpt>
      <trkpt lat="37.08667" lon="27.80307">
        <ele>651.867</ele>
      </trkpt>
      <trkpt lat="37.08651" lon="27.80316">
        <ele>653.457</ele>
      </trkpt>
      <trkpt lat="37.08648" lon="27.8032">
        <ele>653.74</ele>
      </trkpt>
      <trkpt lat="37.08645" lon="27.80321">
        <ele>653.952</ele>
      </trkpt>
      <trkpt lat="37.08631" lon="27.80328">
        <ele>655.734</ele>
      </trkpt>
      <trkpt lat="37.08614" lon="27.80337">
        <ele>657.217</ele>
      </trkpt>
      <trkpt lat="37.08596" lon="27.80344">
        <ele>659.19</ele>
      </trkpt>
      <trkpt lat="37.08575" lon="27.80357">
        <ele>659.041</ele>
      </trkpt>
      <trkpt lat="37.08555" lon="27.80363">
        <ele>658.644</ele>
      </trkpt>
      <trkpt lat="37.08536" lon="27.80372">
        <ele>656.697</ele>
      </trkpt>
      <trkpt lat="37.08519" lon="27.80385">
        <ele>654.47</ele>
      </trkpt>
      <trkpt lat="37.08504" lon="27.80397">
        <ele>653.89</ele>
      </trkpt>
      <trkpt lat="37.08493" lon="27.8041">
        <ele>653.359</ele>
      </trkpt>
      <trkpt lat="37.08489" lon="27.80416">
        <ele>652.876</ele>
      </trkpt>
      <trkpt lat="37.08474" lon="27.80431">
        <ele>651.312</ele>
      </trkpt>
      <trkpt lat="37.08451" lon="27.80441">
        <ele>648.751</ele>
      </trkpt>
      <trkpt lat="37.08431" lon="27.80451">
        <ele>647.873</ele>
      </trkpt>
      <trkpt lat="37.08407" lon="27.80463">
        <ele>647.663</ele>
      </trkpt>
      <trkpt lat="37.08385" lon="27.80474">
        <ele>646.786</ele>
      </trkpt>
      <trkpt lat="37.08365" lon="27.80492">
        <ele>647.23</ele>
      </trkpt>
      <trkpt lat="37.08348" lon="27.80504">
        <ele>648.692</ele>
      </trkpt>
      <trkpt lat="37.0833" lon="27.8051">
        <ele>649.149</ele>
      </trkpt>
      <trkpt lat="37.08316" lon="27.80518">
        <ele>648.391</ele>
      </trkpt>
      <trkpt lat="37.08299" lon="27.80534">
        <ele>647.679</ele>
      </trkpt>
      <trkpt lat="37.08281" lon="27.80548">
        <ele>645.87</ele>
      </trkpt>
      <trkpt lat="37.08256" lon="27.80561">
        <ele>643.53</ele>
      </trkpt>
      <trkpt lat="37.08232" lon="27.80574">
        <ele>642.285</ele>
      </trkpt>
      <trkpt lat="37.082" lon="27.80591">
        <ele>641.106</ele>
      </trkpt>
      <trkpt lat="37.0818" lon="27.80605">
        <ele>639.287</ele>
      </trkpt>
      <trkpt lat="37.08166" lon="27.80617">
        <ele>637.526</ele>
      </trkpt>
      <trkpt lat="37.08147" lon="27.8063">
        <ele>636.418</ele>
      </trkpt>
      <trkpt lat="37.08127" lon="27.80647">
        <ele>635.101</ele>
      </trkpt>
      <trkpt lat="37.08116" lon="27.80662">
        <ele>634.217</ele>
      </trkpt>
      <trkpt lat="37.08103" lon="27.80678">
        <ele>632.747</ele>
      </trkpt>
      <trkpt lat="37.0809" lon="27.80693">
        <ele>631.283</ele>
      </trkpt>
      <trkpt lat="37.08075" lon="27.80702">
        <ele>630.502</ele>
      </trkpt>
      <trkpt lat="37.08059" lon="27.80712">
        <ele>630.048</ele>
      </trkpt>
      <trkpt lat="37.0804" lon="27.80733">
        <ele>630.403</ele>
      </trkpt>
      <trkpt lat="37.0804" lon="27.80733">
        <ele>630.403</ele>
      </trkpt>
      <trkpt lat="37.08037" lon="27.8074">
        <ele>630.629</ele>
      </trkpt>
      <trkpt lat="37.08036" lon="27.80754">
        <ele>631.058</ele>
      </trkpt>
      <trkpt lat="37.0803" lon="27.80778">
        <ele>631.831</ele>
      </trkpt>
      <trkpt lat="37.0803" lon="27.80778">
        <ele>631.831</ele>
      </trkpt>
      <trkpt lat="37.0803" lon="27.80777">
        <ele>631.84</ele>
      </trkpt>
      <trkpt lat="37.0803" lon="27.80777">
        <ele>631.84</ele>
      </trkpt>
      <trkpt lat="37.08027" lon="27.80772">
        <ele>631.803</ele>
      </trkpt>
      <trkpt lat="37.0802" lon="27.80773">
        <ele>631.829</ele>
      </trkpt>
      <trkpt lat="37.08018" lon="27.80773">
        <ele>631.843</ele>
      </trkpt>
      <trkpt lat="37.08002" lon="27.80779">
        <ele>631.961</ele>
      </trkpt>
      <trkpt lat="37.07991" lon="27.80781">
        <ele>631.551</ele>
      </trkpt>
      <trkpt lat="37.07978" lon="27.80787">
        <ele>630.887</ele>
      </trkpt>
      <trkpt lat="37.07963" lon="27.80785">
        <ele>630.427</ele>
      </trkpt>
      <trkpt lat="37.07962" lon="27.80784">
        <ele>630.404</ele>
      </trkpt>
      <trkpt lat="37.0796" lon="27.80783">
        <ele>630.372</ele>
      </trkpt>
      <trkpt lat="37.07944" lon="27.80782">
        <ele>629.846</ele>
      </trkpt>
      <trkpt lat="37.07935" lon="27.80793">
        <ele>629.101</ele>
      </trkpt>
      <trkpt lat="37.07923" lon="27.80816">
        <ele>628.241</ele>
      </trkpt>
      <trkpt lat="37.07916" lon="27.80832">
        <ele>627.965</ele>
      </trkpt>
      <trkpt lat="37.07905" lon="27.80854">
        <ele>627.23</ele>
      </trkpt>
      <trkpt lat="37.07905" lon="27.80856">
        <ele>627.207</ele>
      </trkpt>
      <trkpt lat="37.07898" lon="27.80865">
        <ele>626.623</ele>
      </trkpt>
      <trkpt lat="37.07884" lon="27.80883">
        <ele>625.798</ele>
      </trkpt>
      <trkpt lat="37.07876" lon="27.80895">
        <ele>625.745</ele>
      </trkpt>
      <trkpt lat="37.07872" lon="27.8092">
        <ele>626.598</ele>
      </trkpt>
      <trkpt lat="37.07868" lon="27.80941">
        <ele>627.749</ele>
      </trkpt>
      <trkpt lat="37.07867" lon="27.80941">
        <ele>627.794</ele>
      </trkpt>
      <trkpt lat="37.07851" lon="27.80953">
        <ele>629.073</ele>
      </trkpt>
      <trkpt lat="37.07837" lon="27.80967">
        <ele>629.916</ele>
      </trkpt>
      <trkpt lat="37.07839" lon="27.80966">
        <ele>629.885</ele>
      </trkpt>
      <trkpt lat="37.07812" lon="27.80968">
        <ele>628.32</ele>
      </trkpt>
      <trkpt lat="37.0779" lon="27.80971">
        <ele>626.813</ele>
      </trkpt>
      <trkpt lat="37.07769" lon="27.80976">
        <ele>625.599</ele>
      </trkpt>
      <trkpt lat="37.07749" lon="27.80974">
        <ele>624.037</ele>
      </trkpt>
      <trkpt lat="37.07734" lon="27.80969">
        <ele>623.432</ele>
      </trkpt>
      <trkpt lat="37.07711" lon="27.80958">
        <ele>622.805</ele>
      </trkpt>
      <trkpt lat="37.07685" lon="27.80952">
        <ele>622.39</ele>
      </trkpt>
      <trkpt lat="37.07666" lon="27.80948">
        <ele>621.787</ele>
      </trkpt>
      <trkpt lat="37.0766" lon="27.80947">
        <ele>621.42</ele>
      </trkpt>
      <trkpt lat="37.07642" lon="27.80944">
        <ele>620.227</ele>
      </trkpt>
      <trkpt lat="37.07636" lon="27.80944">
        <ele>619.831</ele>
      </trkpt>
      <trkpt lat="37.07634" lon="27.80942">
        <ele>619.691</ele>
      </trkpt>
      <trkpt lat="37.0761" lon="27.80936">
        <ele>618.25</ele>
      </trkpt>
      <trkpt lat="37.07593" lon="27.80933">
        <ele>617.769</ele>
      </trkpt>
      <trkpt lat="37.07568" lon="27.80929">
        <ele>618.352</ele>
      </trkpt>
      <trkpt lat="37.07542" lon="27.80925">
        <ele>619.346</ele>
      </trkpt>
      <trkpt lat="37.07511" lon="27.80912">
        <ele>618.789</ele>
      </trkpt>
      <trkpt lat="37.0749" lon="27.80902">
        <ele>617.297</ele>
      </trkpt>
      <trkpt lat="37.07469" lon="27.80893">
        <ele>615.913</ele>
      </trkpt>
      <trkpt lat="37.0745" lon="27.80884">
        <ele>615.365</ele>
      </trkpt>
      <trkpt lat="37.07427" lon="27.80871">
        <ele>615.643</ele>
      </trkpt>
      <trkpt lat="37.07406" lon="27.80857">
        <ele>615.285</ele>
      </trkpt>
      <trkpt lat="37.07385" lon="27.80843">
        <ele>614.528</ele>
      </trkpt>
      <trkpt lat="37.07358" lon="27.80827">
        <ele>613.899</ele>
      </trkpt>
      <trkpt lat="37.07337" lon="27.80812">
        <ele>613.118</ele>
      </trkpt>
      <trkpt lat="37.0732" lon="27.80803">
        <ele>612.457</ele>
      </trkpt>
      <trkpt lat="37.073" lon="27.80788">
        <ele>611.283</ele>
      </trkpt>
      <trkpt lat="37.07283" lon="27.80766">
        <ele>611.412</ele>
      </trkpt>
      <trkpt lat="37.07253" lon="27.80758">
        <ele>612.596</ele>
      </trkpt>
      <trkpt lat="37.0723" lon="27.8076">
        <ele>614.074</ele>
      </trkpt>
      <trkpt lat="37.07205" lon="27.80745">
        <ele>616.503</ele>
      </trkpt>
      <trkpt lat="37.07188" lon="27.80733">
        <ele>617.958</ele>
      </trkpt>
      <trkpt lat="37.07171" lon="27.80724">
        <ele>619.571</ele>
      </trkpt>
      <trkpt lat="37.07156" lon="27.80727">
        <ele>620.93</ele>
      </trkpt>
      <trkpt lat="37.07152" lon="27.80728">
        <ele>621.289</ele>
      </trkpt>
      <trkpt lat="37.07141" lon="27.80737">
        <ele>622.227</ele>
      </trkpt>
      <trkpt lat="37.07128" lon="27.80748">
        <ele>624.496</ele>
      </trkpt>
      <trkpt lat="37.07118" lon="27.80758">
        <ele>626.723</ele>
      </trkpt>
      <trkpt lat="37.07109" lon="27.80774">
        <ele>629.392</ele>
      </trkpt>
      <trkpt lat="37.07096" lon="27.8078">
        <ele>632.253</ele>
      </trkpt>
      <trkpt lat="37.07081" lon="27.80802">
        <ele>634.251</ele>
      </trkpt>
      <trkpt lat="37.07074" lon="27.8082">
        <ele>633.832</ele>
      </trkpt>
      <trkpt lat="37.07063" lon="27.80837">
        <ele>633.68</ele>
      </trkpt>
      <trkpt lat="37.07053" lon="27.80854">
        <ele>633.131</ele>
      </trkpt>
      <trkpt lat="37.07046" lon="27.80864">
        <ele>632.664</ele>
      </trkpt>
      <trkpt lat="37.07034" lon="27.80875">
        <ele>632.219</ele>
      </trkpt>
      <trkpt lat="37.07026" lon="27.80884">
        <ele>631.863</ele>
      </trkpt>
      <trkpt lat="37.07014" lon="27.8089">
        <ele>631.057</ele>
      </trkpt>
      <trkpt lat="37.07002" lon="27.80903">
        <ele>631.166</ele>
      </trkpt>
      <trkpt lat="37.06991" lon="27.80913">
        <ele>631.027</ele>
      </trkpt>
      <trkpt lat="37.06981" lon="27.8092">
        <ele>630.693</ele>
      </trkpt>
      <trkpt lat="37.06968" lon="27.8093">
        <ele>629.362</ele>
      </trkpt>
      <trkpt lat="37.06958" lon="27.8093">
        <ele>627.851</ele>
      </trkpt>
      <trkpt lat="37.06955" lon="27.80932">
        <ele>627.605</ele>
      </trkpt>
      <trkpt lat="37.06941" lon="27.80946">
        <ele>626.719</ele>
      </trkpt>
      <trkpt lat="37.06931" lon="27.80951">
        <ele>626.044</ele>
      </trkpt>
      <trkpt lat="37.0692" lon="27.80966">
        <ele>626.508</ele>
      </trkpt>
      <trkpt lat="37.06911" lon="27.8098">
        <ele>626.53</ele>
      </trkpt>
      <trkpt lat="37.06896" lon="27.80989">
        <ele>625.669</ele>
      </trkpt>
      <trkpt lat="37.06889" lon="27.8099">
        <ele>625.389</ele>
      </trkpt>
      <trkpt lat="37.06877" lon="27.8099">
        <ele>625.352</ele>
      </trkpt>
      <trkpt lat="37.0686" lon="27.81">
        <ele>624.934</ele>
      </trkpt>
      <trkpt lat="37.06842" lon="27.81011">
        <ele>624.054</ele>
      </trkpt>
      <trkpt lat="37.06832" lon="27.81017">
        <ele>624.06</ele>
      </trkpt>
      <trkpt lat="37.06812" lon="27.81013">
        <ele>624.764</ele>
      </trkpt>
      <trkpt lat="37.0679" lon="27.8101">
        <ele>625.348</ele>
      </trkpt>
      <trkpt lat="37.06774" lon="27.81017">
        <ele>625.498</ele>
      </trkpt>
      <trkpt lat="37.06757" lon="27.81021">
        <ele>625.616</ele>
      </trkpt>
      <trkpt lat="37.06736" lon="27.81018">
        <ele>626.15</ele>
      </trkpt>
      <trkpt lat="37.06716" lon="27.8102">
        <ele>625.528</ele>
      </trkpt>
      <trkpt lat="37.06701" lon="27.8102">
        <ele>624.903</ele>
      </trkpt>
      <trkpt lat="37.06685" lon="27.8101">
        <ele>627.407</ele>
      </trkpt>
      <trkpt lat="37.06671" lon="27.81005">
        <ele>629.621</ele>
      </trkpt>
      <trkpt lat="37.06661" lon="27.81014">
        <ele>629.091</ele>
      </trkpt>
      <trkpt lat="37.06657" lon="27.81027">
        <ele>627.623</ele>
      </trkpt>
      <trkpt lat="37.06642" lon="27.81044">
        <ele>629.638</ele>
      </trkpt>
      <trkpt lat="37.06618" lon="27.81038">
        <ele>637.212</ele>
      </trkpt>
      <trkpt lat="37.06611" lon="27.81039">
        <ele>639.389</ele>
      </trkpt>
      <trkpt lat="37.06597" lon="27.81046">
        <ele>641.387</ele>
      </trkpt>
      <trkpt lat="37.06579" lon="27.81063">
        <ele>642.173</ele>
      </trkpt>
      <trkpt lat="37.06563" lon="27.81071">
        <ele>642.863</ele>
      </trkpt>
      <trkpt lat="37.06547" lon="27.81081">
        <ele>642.964</ele>
      </trkpt>
      <trkpt lat="37.06524" lon="27.811">
        <ele>643.526</ele>
      </trkpt>
      <trkpt lat="37.06508" lon="27.81116">
        <ele>643.972</ele>
      </trkpt>
      <trkpt lat="37.06491" lon="27.81122">
        <ele>645.048</ele>
      </trkpt>
      <trkpt lat="37.06486" lon="27.81123">
        <ele>645.78</ele>
      </trkpt>
      <trkpt lat="37.0648" lon="27.81125">
        <ele>646.2</ele>
      </trkpt>
      <trkpt lat="37.0647" lon="27.81143">
        <ele>645.084</ele>
      </trkpt>
      <trkpt lat="37.06462" lon="27.81174">
        <ele>643.619</ele>
      </trkpt>
      <trkpt lat="37.06462" lon="27.81177">
        <ele>643.207</ele>
      </trkpt>
      <trkpt lat="37.0646" lon="27.81178">
        <ele>643.544</ele>
      </trkpt>
      <trkpt lat="37.06455" lon="27.81195">
        <ele>642.912</ele>
      </trkpt>
      <trkpt lat="37.06445" lon="27.81218">
        <ele>642.478</ele>
      </trkpt>
      <trkpt lat="37.0644" lon="27.81232">
        <ele>640.813</ele>
      </trkpt>
      <trkpt lat="37.06431" lon="27.81248">
        <ele>639.771</ele>
      </trkpt>
      <trkpt lat="37.06416" lon="27.81268">
        <ele>639.195</ele>
      </trkpt>
      <trkpt lat="37.06401" lon="27.8128">
        <ele>639.972</ele>
      </trkpt>
      <trkpt lat="37.06385" lon="27.81295">
        <ele>640.447</ele>
      </trkpt>
      <trkpt lat="37.06365" lon="27.81304">
        <ele>640.916</ele>
      </trkpt>
      <trkpt lat="37.06345" lon="27.81304">
        <ele>640.732</ele>
      </trkpt>
      <trkpt lat="37.0633" lon="27.81309">
        <ele>639.437</ele>
      </trkpt>
      <trkpt lat="37.06313" lon="27.81308">
        <ele>641.623</ele>
      </trkpt>
      <trkpt lat="37.06299" lon="27.81318">
        <ele>641.448</ele>
      </trkpt>
      <trkpt lat="37.06287" lon="27.81336">
        <ele>640.195</ele>
      </trkpt>
      <trkpt lat="37.06274" lon="27.81353">
        <ele>639.197</ele>
      </trkpt>
      <trkpt lat="37.06255" lon="27.81368">
        <ele>640.933</ele>
      </trkpt>
      <trkpt lat="37.06235" lon="27.8138">
        <ele>642.547</ele>
      </trkpt>
      <trkpt lat="37.06217" lon="27.81398">
        <ele>643.882</ele>
      </trkpt>
      <trkpt lat="37.06205" lon="27.81416">
        <ele>644.695</ele>
      </trkpt>
      <trkpt lat="37.06191" lon="27.8143">
        <ele>644.691</ele>
      </trkpt>
      <trkpt lat="37.06174" lon="27.81456">
        <ele>641.21</ele>
      </trkpt>
      <trkpt lat="37.06166" lon="27.81473">
        <ele>638.957</ele>
      </trkpt>
      <trkpt lat="37.06159" lon="27.81487">
        <ele>638.652</ele>
      </trkpt>
      <trkpt lat="37.06145" lon="27.81493">
        <ele>639.227</ele>
      </trkpt>
      <trkpt lat="37.06133" lon="27.81493">
        <ele>639.694</ele>
      </trkpt>
      <trkpt lat="37.06118" lon="27.81493">
        <ele>639.378</ele>
      </trkpt>
      <trkpt lat="37.06112" lon="27.81497">
        <ele>639.106</ele>
      </trkpt>
      <trkpt lat="37.06111" lon="27.81498">
        <ele>639.083</ele>
      </trkpt>
      <trkpt lat="37.06105" lon="27.81494">
        <ele>638.919</ele>
      </trkpt>
      <trkpt lat="37.06095" lon="27.81493">
        <ele>638.37</ele>
      </trkpt>
      <trkpt lat="37.06085" lon="27.81498">
        <ele>637.991</ele>
      </trkpt>
      <trkpt lat="37.0608" lon="27.81504">
        <ele>637.965</ele>
      </trkpt>
      <trkpt lat="37.06077" lon="27.81506">
        <ele>637.697</ele>
      </trkpt>
      <trkpt lat="37.0607" lon="27.81512">
        <ele>637.385</ele>
      </trkpt>
      <trkpt lat="37.06063" lon="27.81512">
        <ele>636.664</ele>
      </trkpt>
      <trkpt lat="37.0606" lon="27.81515">
        <ele>636.536</ele>
      </trkpt>
      <trkpt lat="37.06054" lon="27.81516">
        <ele>636.116</ele>
      </trkpt>
      <trkpt lat="37.06043" lon="27.81515">
        <ele>635.831</ele>
      </trkpt>
      <trkpt lat="37.06033" lon="27.81514">
        <ele>635.643</ele>
      </trkpt>
      <trkpt lat="37.06032" lon="27.81514">
        <ele>635.547</ele>
      </trkpt>
      <trkpt lat="37.06032" lon="27.81514">
        <ele>635.547</ele>
      </trkpt>
      <trkpt lat="37.06026" lon="27.81523">
        <ele>636.385</ele>
      </trkpt>
      <trkpt lat="37.06012" lon="27.8154">
        <ele>637.99</ele>
      </trkpt>
      <trkpt lat="37.05991" lon="27.81548">
        <ele>638.257</ele>
      </trkpt>
      <trkpt lat="37.05972" lon="27.81555">
        <ele>637.92</ele>
      </trkpt>
      <trkpt lat="37.05948" lon="27.81559">
        <ele>636.29</ele>
      </trkpt>
      <trkpt lat="37.05931" lon="27.81557">
        <ele>635.827</ele>
      </trkpt>
      <trkpt lat="37.05914" lon="27.81553">
        <ele>635.278</ele>
      </trkpt>
      <trkpt lat="37.05902" lon="27.81549">
        <ele>633.944</ele>
      </trkpt>
      <trkpt lat="37.05887" lon="27.81548">
        <ele>633.042</ele>
      </trkpt>
      <trkpt lat="37.05873" lon="27.81552">
        <ele>634.074</ele>
      </trkpt>
      <trkpt lat="37.05872" lon="27.81553">
        <ele>634.276</ele>
      </trkpt>
      <trkpt lat="37.05863" lon="27.81559">
        <ele>635.57</ele>
      </trkpt>
      <trkpt lat="37.05851" lon="27.81571">
        <ele>637.826</ele>
      </trkpt>
      <trkpt lat="37.05837" lon="27.8159">
        <ele>639.669</ele>
      </trkpt>
      <trkpt lat="37.05824" lon="27.81601">
        <ele>640.438</ele>
      </trkpt>
      <trkpt lat="37.05821" lon="27.81608">
        <ele>641.481</ele>
      </trkpt>
      <trkpt lat="37.05818" lon="27.81609">
        <ele>641.45</ele>
      </trkpt>
      <trkpt lat="37.05815" lon="27.81612">
        <ele>641.97</ele>
      </trkpt>
      <trkpt lat="37.05809" lon="27.81614">
        <ele>642.293</ele>
      </trkpt>
      <trkpt lat="37.05806" lon="27.81614">
        <ele>642.066</ele>
      </trkpt>
      <trkpt lat="37.05792" lon="27.81626">
        <ele>644.718</ele>
      </trkpt>
      <trkpt lat="37.05795" lon="27.81633">
        <ele>647.183</ele>
      </trkpt>
      <trkpt lat="37.05795" lon="27.81633">
        <ele>647.183</ele>
      </trkpt>
      <trkpt lat="37.05797" lon="27.81647">
        <ele>650.596</ele>
      </trkpt>
      <trkpt lat="37.05798" lon="27.81652">
        <ele>651.523</ele>
      </trkpt>
      <trkpt lat="37.05798" lon="27.81654">
        <ele>651.789</ele>
      </trkpt>
      <trkpt lat="37.05806" lon="27.81663">
        <ele>654.304</ele>
      </trkpt>
      <trkpt lat="37.05807" lon="27.81664">
        <ele>654.597</ele>
      </trkpt>
      <trkpt lat="37.05806" lon="27.81669">
        <ele>655.472</ele>
      </trkpt>
      <trkpt lat="37.05795" lon="27.81683">
        <ele>656.279</ele>
      </trkpt>
      <trkpt lat="37.05792" lon="27.81688">
        <ele>656.506</ele>
      </trkpt>
      <trkpt lat="37.05786" lon="27.81689">
        <ele>655.681</ele>
      </trkpt>
      <trkpt lat="37.05777" lon="27.81699">
        <ele>655.268</ele>
      </trkpt>
      <trkpt lat="37.0578" lon="27.81706">
        <ele>656.195</ele>
      </trkpt>
      <trkpt lat="37.05782" lon="27.8171">
        <ele>656.906</ele>
      </trkpt>
      <trkpt lat="37.0578" lon="27.81717">
        <ele>657.047</ele>
      </trkpt>
      <trkpt lat="37.05776" lon="27.81729">
        <ele>657.34</ele>
      </trkpt>
      <trkpt lat="37.05778" lon="27.8174">
        <ele>658.387</ele>
      </trkpt>
      <trkpt lat="37.05775" lon="27.81752">
        <ele>659.119</ele>
      </trkpt>
      <trkpt lat="37.05775" lon="27.81765">
        <ele>660.637</ele>
      </trkpt>
      <trkpt lat="37.05773" lon="27.81777">
        <ele>662.26</ele>
      </trkpt>
      <trkpt lat="37.05766" lon="27.81793">
        <ele>665.233</ele>
      </trkpt>
      <trkpt lat="37.05763" lon="27.81794">
        <ele>665.592</ele>
      </trkpt>
      <trkpt lat="37.05749" lon="27.81792">
        <ele>666.941</ele>
      </trkpt>
      <trkpt lat="37.05737" lon="27.8179">
        <ele>669.868</ele>
      </trkpt>
      <trkpt lat="37.05731" lon="27.81788">
        <ele>671.181</ele>
      </trkpt>
      <trkpt lat="37.05718" lon="27.81788">
        <ele>674.324</ele>
      </trkpt>
      <trkpt lat="37.05715" lon="27.81783">
        <ele>673.384</ele>
      </trkpt>
      <trkpt lat="37.05708" lon="27.81781">
        <ele>674.045</ele>
      </trkpt>
      <trkpt lat="37.05707" lon="27.81781">
        <ele>674.423</ele>
      </trkpt>
      <trkpt lat="37.05697" lon="27.8178">
        <ele>676.043</ele>
      </trkpt>
      <trkpt lat="37.05695" lon="27.8178">
        <ele>676.585</ele>
      </trkpt>
      <trkpt lat="37.0569" lon="27.81777">
        <ele>676.45</ele>
      </trkpt>
      <trkpt lat="37.05685" lon="27.81777">
        <ele>677.116</ele>
      </trkpt>
      <trkpt lat="37.05672" lon="27.81771">
        <ele>677.17</ele>
      </trkpt>
      <trkpt lat="37.05671" lon="27.8177">
        <ele>677.037</ele>
      </trkpt>
      <trkpt lat="37.05663" lon="27.81766">
        <ele>676.468</ele>
      </trkpt>
      <trkpt lat="37.05658" lon="27.81771">
        <ele>678.469</ele>
      </trkpt>
      <trkpt lat="37.0565" lon="27.81777">
        <ele>681.04</ele>
      </trkpt>
      <trkpt lat="37.05639" lon="27.81797">
        <ele>686.113</ele>
      </trkpt>
      <trkpt lat="37.05637" lon="27.81808">
        <ele>688.747</ele>
      </trkpt>
      <trkpt lat="37.05636" lon="27.81825">
        <ele>691.995</ele>
      </trkpt>
      <trkpt lat="37.05637" lon="27.81835">
        <ele>693.522</ele>
      </trkpt>
      <trkpt lat="37.05629" lon="27.81844">
        <ele>695.658</ele>
      </trkpt>
      <trkpt lat="37.05618" lon="27.8184">
        <ele>696.577</ele>
      </trkpt>
      <trkpt lat="37.05607" lon="27.8184">
        <ele>698.275</ele>
      </trkpt>
      <trkpt lat="37.05604" lon="27.81844">
        <ele>699.341</ele>
      </trkpt>
      <trkpt lat="37.05595" lon="27.81848">
        <ele>701.487</ele>
      </trkpt>
      <trkpt lat="37.05589" lon="27.81848">
        <ele>702.785</ele>
      </trkpt>
      <trkpt lat="37.05578" lon="27.81854">
        <ele>704.9</ele>
      </trkpt>
      <trkpt lat="37.0557" lon="27.81867">
        <ele>706.332</ele>
      </trkpt>
      <trkpt lat="37.0557" lon="27.81869">
        <ele>706.495</ele>
      </trkpt>
      <trkpt lat="37.05567" lon="27.81879">
        <ele>707.49</ele>
      </trkpt>
      <trkpt lat="37.05566" lon="27.8188">
        <ele>707.596</ele>
      </trkpt>
      <trkpt lat="37.05564" lon="27.8188">
        <ele>707.756</ele>
      </trkpt>
      <trkpt lat="37.0556" lon="27.81886">
        <ele>708.45</ele>
      </trkpt>
      <trkpt lat="37.05559" lon="27.81894">
        <ele>709.624</ele>
      </trkpt>
      <trkpt lat="37.05558" lon="27.81896">
        <ele>709.913</ele>
      </trkpt>
      <trkpt lat="37.05557" lon="27.81899">
        <ele>710.408</ele>
      </trkpt>
      <trkpt lat="37.05558" lon="27.81909">
        <ele>711.858</ele>
      </trkpt>
      <trkpt lat="37.05555" lon="27.81913">
        <ele>712.478</ele>
      </trkpt>
      <trkpt lat="37.0555" lon="27.81921">
        <ele>713.78</ele>
      </trkpt>
      <trkpt lat="37.05544" lon="27.81932">
        <ele>715.63</ele>
      </trkpt>
      <trkpt lat="37.05533" lon="27.81942">
        <ele>716.903</ele>
      </trkpt>
      <trkpt lat="37.05532" lon="27.81945">
        <ele>717.29</ele>
      </trkpt>
      <trkpt lat="37.0553" lon="27.81958">
        <ele>719.037</ele>
      </trkpt>
      <trkpt lat="37.05522" lon="27.81973">
        <ele>720.481</ele>
      </trkpt>
      <trkpt lat="37.05519" lon="27.81981">
        <ele>721.25</ele>
      </trkpt>
      <trkpt lat="37.05512" lon="27.81998">
        <ele>723.006</ele>
      </trkpt>
      <trkpt lat="37.05508" lon="27.8201">
        <ele>724.473</ele>
      </trkpt>
      <trkpt lat="37.05505" lon="27.82014">
        <ele>725.032</ele>
      </trkpt>
      <trkpt lat="37.05499" lon="27.8202">
        <ele>725.463</ele>
      </trkpt>
      <trkpt lat="37.05488" lon="27.82027">
        <ele>725.943</ele>
      </trkpt>
      <trkpt lat="37.05475" lon="27.82039">
        <ele>727.075</ele>
      </trkpt>
      <trkpt lat="37.05464" lon="27.82054">
        <ele>730.39</ele>
      </trkpt>
      <trkpt lat="37.05455" lon="27.82069">
        <ele>732.202</ele>
      </trkpt>
      <trkpt lat="37.05446" lon="27.82078">
        <ele>733.499</ele>
      </trkpt>
      <trkpt lat="37.05433" lon="27.82095">
        <ele>734.776</ele>
      </trkpt>
      <trkpt lat="37.05428" lon="27.82113">
        <ele>735.308</ele>
      </trkpt>
      <trkpt lat="37.05423" lon="27.82128">
        <ele>735.724</ele>
      </trkpt>
      <trkpt lat="37.05416" lon="27.82143">
        <ele>736.326</ele>
      </trkpt>
      <trkpt lat="37.05411" lon="27.8215">
        <ele>735.882</ele>
      </trkpt>
      <trkpt lat="37.05402" lon="27.82164">
        <ele>734.89</ele>
      </trkpt>
      <trkpt lat="37.05398" lon="27.82178">
        <ele>733.037</ele>
      </trkpt>
      <trkpt lat="37.05392" lon="27.82197">
        <ele>731.106</ele>
      </trkpt>
      <trkpt lat="37.0539" lon="27.82201">
        <ele>730.874</ele>
      </trkpt>
      <trkpt lat="37.05391" lon="27.82213">
        <ele>729.028</ele>
      </trkpt>
      <trkpt lat="37.05396" lon="27.82221">
        <ele>726.872</ele>
      </trkpt>
      <trkpt lat="37.05401" lon="27.82234">
        <ele>723.867</ele>
      </trkpt>
      <trkpt lat="37.05405" lon="27.8223">
        <ele>723.979</ele>
      </trkpt>
      <trkpt lat="37.05405" lon="27.82228">
        <ele>724.109</ele>
      </trkpt>
      <trkpt lat="37.05407" lon="27.82228">
        <ele>723.866</ele>
      </trkpt>
      <trkpt lat="37.05406" lon="27.82236">
        <ele>722.776</ele>
      </trkpt>
      <trkpt lat="37.05399" lon="27.82251">
        <ele>721.459</ele>
      </trkpt>
      <trkpt lat="37.05397" lon="27.82253">
        <ele>721.285</ele>
      </trkpt>
      <trkpt lat="37.05389" lon="27.82263">
        <ele>720.75</ele>
      </trkpt>
      <trkpt lat="37.05384" lon="27.82266">
        <ele>720.761</ele>
      </trkpt>
      <trkpt lat="37.05378" lon="27.82288">
        <ele>717.3</ele>
      </trkpt>
      <trkpt lat="37.05375" lon="27.8229">
        <ele>717.308</ele>
      </trkpt>
      <trkpt lat="37.05366" lon="27.82299">
        <ele>716.692</ele>
      </trkpt>
      <trkpt lat="37.05356" lon="27.82303">
        <ele>717.292</ele>
      </trkpt>
      <trkpt lat="37.05345" lon="27.82314">
        <ele>717.173</ele>
      </trkpt>
      <trkpt lat="37.05341" lon="27.82317">
        <ele>717.496</ele>
      </trkpt>
      <trkpt lat="37.05336" lon="27.82331">
        <ele>716.004</ele>
      </trkpt>
      <trkpt lat="37.05327" lon="27.82337">
        <ele>715.526</ele>
      </trkpt>
      <trkpt lat="37.05322" lon="27.82353">
        <ele>711.895</ele>
      </trkpt>
      <trkpt lat="37.05307" lon="27.8236">
        <ele>710.253</ele>
      </trkpt>
      <trkpt lat="37.05305" lon="27.8236">
        <ele>710.192</ele>
      </trkpt>
      <trkpt lat="37.05301" lon="27.82366">
        <ele>708.078</ele>
      </trkpt>
      <trkpt lat="37.05299" lon="27.82376">
        <ele>705.792</ele>
      </trkpt>
      <trkpt lat="37.05299" lon="27.82389">
        <ele>703.098</ele>
      </trkpt>
      <trkpt lat="37.053" lon="27.82394">
        <ele>702.501</ele>
      </trkpt>
      <trkpt lat="37.05303" lon="27.82397">
        <ele>702.382</ele>
      </trkpt>
      <trkpt lat="37.05304" lon="27.8241">
        <ele>700.717</ele>
      </trkpt>
      <trkpt lat="37.05304" lon="27.82426">
        <ele>698.098</ele>
      </trkpt>
      <trkpt lat="37.05313" lon="27.82434">
        <ele>697.168</ele>
      </trkpt>
      <trkpt lat="37.05318" lon="27.82446">
        <ele>695.216</ele>
      </trkpt>
      <trkpt lat="37.05318" lon="27.82449">
        <ele>694.506</ele>
      </trkpt>
      <trkpt lat="37.05317" lon="27.82453">
        <ele>693.835</ele>
      </trkpt>
      <trkpt lat="37.05317" lon="27.82449">
        <ele>694.518</ele>
      </trkpt>
      <trkpt lat="37.05316" lon="27.82469">
        <ele>690.661</ele>
      </trkpt>
      <trkpt lat="37.05308" lon="27.82486">
        <ele>688.016</ele>
      </trkpt>
      <trkpt lat="37.0529" lon="27.82493">
        <ele>682.764</ele>
      </trkpt>
      <trkpt lat="37.05285" lon="27.82491">
        <ele>682.007</ele>
      </trkpt>
      <trkpt lat="37.05259" lon="27.82467">
        <ele>682.31</ele>
      </trkpt>
      <trkpt lat="37.05239" lon="27.82473">
        <ele>669.514</ele>
      </trkpt>
      <trkpt lat="37.05221" lon="27.8246">
        <ele>662.607</ele>
      </trkpt>
      <trkpt lat="37.05218" lon="27.82458">
        <ele>661.572</ele>
      </trkpt>
      <trkpt lat="37.05217" lon="27.82456">
        <ele>661.69</ele>
      </trkpt>
      <trkpt lat="37.05215" lon="27.82453">
        <ele>661.66</ele>
      </trkpt>
      <trkpt lat="37.05207" lon="27.82445">
        <ele>658.926</ele>
      </trkpt>
      <trkpt lat="37.052" lon="27.82446">
        <ele>652.266</ele>
      </trkpt>
      <trkpt lat="37.052" lon="27.82447">
        <ele>651.522</ele>
      </trkpt>
      <trkpt lat="37.05203" lon="27.82452">
        <ele>651.894</ele>
      </trkpt>
      <trkpt lat="37.05202" lon="27.82454">
        <ele>650.13</ele>
      </trkpt>
      <trkpt lat="37.05203" lon="27.82458">
        <ele>648.582</ele>
      </trkpt>
      <trkpt lat="37.05194" lon="27.82454">
        <ele>643.121</ele>
      </trkpt>
      <trkpt lat="37.05192" lon="27.82456">
        <ele>640.419</ele>
      </trkpt>
      <trkpt lat="37.052" lon="27.82466">
        <ele>641.653</ele>
      </trkpt>
      <trkpt lat="37.05197" lon="27.82468">
        <ele>637.759</ele>
      </trkpt>
      <trkpt lat="37.05193" lon="27.82467">
        <ele>635.405</ele>
      </trkpt>
      <trkpt lat="37.05188" lon="27.82463">
        <ele>634.055</ele>
      </trkpt>
      <trkpt lat="37.05183" lon="27.82458">
        <ele>632.897</ele>
      </trkpt>
      <trkpt lat="37.05187" lon="27.82453">
        <ele>638.389</ele>
      </trkpt>
      <trkpt lat="37.05183" lon="27.82453">
        <ele>635.386</ele>
      </trkpt>
      <trkpt lat="37.05181" lon="27.82445">
        <ele>638.715</ele>
      </trkpt>
      <trkpt lat="37.05177" lon="27.82439">
        <ele>639.122</ele>
      </trkpt>
      <trkpt lat="37.05177" lon="27.82436">
        <ele>640.832</ele>
      </trkpt>
      <trkpt lat="37.05175" lon="27.82437">
        <ele>639.102</ele>
      </trkpt>
      <trkpt lat="37.05172" lon="27.82435">
        <ele>638.099</ele>
      </trkpt>
      <trkpt lat="37.0517" lon="27.82426">
        <ele>643.066</ele>
      </trkpt>
      <trkpt lat="37.05166" lon="27.8242">
        <ele>644.137</ele>
      </trkpt>
      <trkpt lat="37.05161" lon="27.82414">
        <ele>644.069</ele>
      </trkpt>
      <trkpt lat="37.05158" lon="27.82415">
        <ele>640.851</ele>
      </trkpt>
      <trkpt lat="37.0515" lon="27.82412">
        <ele>635.984</ele>
      </trkpt>
      <trkpt lat="37.05145" lon="27.82412">
        <ele>632.261</ele>
      </trkpt>
      <trkpt lat="37.05142" lon="27.8241">
        <ele>631.281</ele>
      </trkpt>
      <trkpt lat="37.05141" lon="27.82412">
        <ele>629.01</ele>
      </trkpt>
      <trkpt lat="37.05144" lon="27.82422">
        <ele>625.368</ele>
      </trkpt>
      <trkpt lat="37.05147" lon="27.82426">
        <ele>625.155</ele>
      </trkpt>
      <trkpt lat="37.05142" lon="27.82426">
        <ele>621.784</ele>
      </trkpt>
      <trkpt lat="37.05137" lon="27.82423">
        <ele>619.099</ele>
      </trkpt>
      <trkpt lat="37.05132" lon="27.82419">
        <ele>617.146</ele>
      </trkpt>
      <trkpt lat="37.05123" lon="27.82417">
        <ele>612.073</ele>
      </trkpt>
      <trkpt lat="37.05114" lon="27.8241">
        <ele>608.209</ele>
      </trkpt>
      <trkpt lat="37.05103" lon="27.82406">
        <ele>602.635</ele>
      </trkpt>
      <trkpt lat="37.05096" lon="27.82404">
        <ele>599.561</ele>
      </trkpt>
      <trkpt lat="37.05095" lon="27.82403">
        <ele>599.091</ele>
      </trkpt>
      <trkpt lat="37.05085" lon="27.82399">
        <ele>595.039</ele>
      </trkpt>
      <trkpt lat="37.05075" lon="27.82392">
        <ele>595.176</ele>
      </trkpt>
      <trkpt lat="37.05071" lon="27.82388">
        <ele>596.462</ele>
      </trkpt>
      <trkpt lat="37.05062" lon="27.82386">
        <ele>593.979</ele>
      </trkpt>
      <trkpt lat="37.05053" lon="27.82379">
        <ele>594.744</ele>
      </trkpt>
      <trkpt lat="37.05044" lon="27.82373">
        <ele>594.603</ele>
      </trkpt>
      <trkpt lat="37.05036" lon="27.82367">
        <ele>594.632</ele>
      </trkpt>
      <trkpt lat="37.05028" lon="27.82367">
        <ele>592.224</ele>
      </trkpt>
      <trkpt lat="37.05019" lon="27.82362">
        <ele>591.246</ele>
      </trkpt>
      <trkpt lat="37.05013" lon="27.8236">
        <ele>589.668</ele>
      </trkpt>
      <trkpt lat="37.05002" lon="27.82358">
        <ele>586.433</ele>
      </trkpt>
      <trkpt lat="37.04997" lon="27.82357">
        <ele>584.906</ele>
      </trkpt>
      <trkpt lat="37.04992" lon="27.82356">
        <ele>583.151</ele>
      </trkpt>
      <trkpt lat="37.04982" lon="27.82356">
        <ele>579.508</ele>
      </trkpt>
      <trkpt lat="37.04973" lon="27.82354">
        <ele>576.901</ele>
      </trkpt>
      <trkpt lat="37.04965" lon="27.82353">
        <ele>574.804</ele>
      </trkpt>
      <trkpt lat="37.04953" lon="27.82352">
        <ele>571.915</ele>
      </trkpt>
      <trkpt lat="37.04944" lon="27.8236">
        <ele>566.274</ele>
      </trkpt>
      <trkpt lat="37.04933" lon="27.82366">
        <ele>562.699</ele>
      </trkpt>
      <trkpt lat="37.04933" lon="27.82373">
        <ele>560.996</ele>
      </trkpt>
      <trkpt lat="37.04923" lon="27.82369">
        <ele>560.119</ele>
      </trkpt>
      <trkpt lat="37.04922" lon="27.82369">
        <ele>560.016</ele>
      </trkpt>
      <trkpt lat="37.04923" lon="27.82369">
        <ele>560.02</ele>
      </trkpt>
      <trkpt lat="37.04921" lon="27.82368">
        <ele>560.097</ele>
      </trkpt>
      <trkpt lat="37.04914" lon="27.82369">
        <ele>558.352</ele>
      </trkpt>
      <trkpt lat="37.04904" lon="27.82379">
        <ele>553.407</ele>
      </trkpt>
      <trkpt lat="37.04898" lon="27.82388">
        <ele>550.117</ele>
      </trkpt>
      <trkpt lat="37.04891" lon="27.82396">
        <ele>547.109</ele>
      </trkpt>
      <trkpt lat="37.04881" lon="27.82405">
        <ele>544.79</ele>
      </trkpt>
      <trkpt lat="37.04871" lon="27.82414">
        <ele>543.839</ele>
      </trkpt>
      <trkpt lat="37.04863" lon="27.82423">
        <ele>543.683</ele>
      </trkpt>
      <trkpt lat="37.0485" lon="27.82428">
        <ele>543.114</ele>
      </trkpt>
      <trkpt lat="37.04838" lon="27.8243">
        <ele>542.642</ele>
      </trkpt>
      <trkpt lat="37.04828" lon="27.8244">
        <ele>541.495</ele>
      </trkpt>
      <trkpt lat="37.0483" lon="27.82444">
        <ele>542.081</ele>
      </trkpt>
      <trkpt lat="37.04832" lon="27.82451">
        <ele>541.405</ele>
      </trkpt>
      <trkpt lat="37.04825" lon="27.82451">
        <ele>539.606</ele>
      </trkpt>
      <trkpt lat="37.04822" lon="27.82457">
        <ele>537.678</ele>
      </trkpt>
      <trkpt lat="37.04824" lon="27.82461">
        <ele>537.55</ele>
      </trkpt>
      <trkpt lat="37.04823" lon="27.82469">
        <ele>535.584</ele>
      </trkpt>
      <trkpt lat="37.04819" lon="27.82476">
        <ele>532.865</ele>
      </trkpt>
      <trkpt lat="37.04821" lon="27.82489">
        <ele>530.282</ele>
      </trkpt>
      <trkpt lat="37.0482" lon="27.82497">
        <ele>527.919</ele>
      </trkpt>
      <trkpt lat="37.04821" lon="27.82507">
        <ele>525.65</ele>
      </trkpt>
      <trkpt lat="37.04821" lon="27.82527">
        <ele>520.775</ele>
      </trkpt>
      <trkpt lat="37.04819" lon="27.82531">
        <ele>519.012</ele>
      </trkpt>
      <trkpt lat="37.04819" lon="27.82541">
        <ele>516.469</ele>
      </trkpt>
      <trkpt lat="37.04819" lon="27.82543">
        <ele>516.032</ele>
      </trkpt>
      <trkpt lat="37.0482" lon="27.82549">
        <ele>514.868</ele>
      </trkpt>
      <trkpt lat="37.04821" lon="27.82562">
        <ele>512.456</ele>
      </trkpt>
      <trkpt lat="37.04823" lon="27.82572">
        <ele>510.862</ele>
      </trkpt>
      <trkpt lat="37.04823" lon="27.82583">
        <ele>508.44</ele>
      </trkpt>
      <trkpt lat="37.04822" lon="27.82589">
        <ele>506.505</ele>
      </trkpt>
      <trkpt lat="37.04826" lon="27.82594">
        <ele>505.888</ele>
      </trkpt>
      <trkpt lat="37.04824" lon="27.82597">
        <ele>504.484</ele>
      </trkpt>
      <trkpt lat="37.04814" lon="27.82595">
        <ele>502.947</ele>
      </trkpt>
      <trkpt lat="37.04807" lon="27.82592">
        <ele>502.195</ele>
      </trkpt>
      <trkpt lat="37.04796" lon="27.82591">
        <ele>499.9</ele>
      </trkpt>
      <trkpt lat="37.04784" lon="27.82594">
        <ele>496.51</ele>
      </trkpt>
      <trkpt lat="37.04784" lon="27.82596">
        <ele>496.043</ele>
      </trkpt>
      <trkpt lat="37.0478" lon="27.82595">
        <ele>495.434</ele>
      </trkpt>
      <trkpt lat="37.04779" lon="27.82596">
        <ele>495.02</ele>
      </trkpt>
      <trkpt lat="37.04775" lon="27.82598">
        <ele>493.561</ele>
      </trkpt>
      <trkpt lat="37.04768" lon="27.82602">
        <ele>490.88</ele>
      </trkpt>
      <trkpt lat="37.04766" lon="27.82603">
        <ele>490.414</ele>
      </trkpt>
      <trkpt lat="37.04762" lon="27.82608">
        <ele>488.588</ele>
      </trkpt>
      <trkpt lat="37.0476" lon="27.82613">
        <ele>487.198</ele>
      </trkpt>
      <trkpt lat="37.04762" lon="27.82616">
        <ele>486.922</ele>
      </trkpt>
      <trkpt lat="37.04756" lon="27.82615">
        <ele>485.627</ele>
      </trkpt>
      <trkpt lat="37.04743" lon="27.82603">
        <ele>484.388</ele>
      </trkpt>
      <trkpt lat="37.04732" lon="27.82589">
        <ele>483.008</ele>
      </trkpt>
      <trkpt lat="37.04719" lon="27.82579">
        <ele>480.978</ele>
      </trkpt>
      <trkpt lat="37.04701" lon="27.82568">
        <ele>478.552</ele>
      </trkpt>
      <trkpt lat="37.04697" lon="27.82569">
        <ele>477.526</ele>
      </trkpt>
      <trkpt lat="37.0469" lon="27.82573">
        <ele>475.503</ele>
      </trkpt>
      <trkpt lat="37.04677" lon="27.82579">
        <ele>472.381</ele>
      </trkpt>
      <trkpt lat="37.04671" lon="27.82588">
        <ele>470.322</ele>
      </trkpt>
      <trkpt lat="37.04666" lon="27.8259">
        <ele>469.418</ele>
      </trkpt>
      <trkpt lat="37.04658" lon="27.82594">
        <ele>467.825</ele>
      </trkpt>
      <trkpt lat="37.04643" lon="27.82591">
        <ele>465.588</ele>
      </trkpt>
      <trkpt lat="37.04637" lon="27.82583">
        <ele>465.327</ele>
      </trkpt>
      <trkpt lat="37.04627" lon="27.82574">
        <ele>463.215</ele>
      </trkpt>
      <trkpt lat="37.04623" lon="27.82556">
        <ele>463.499</ele>
      </trkpt>
      <trkpt lat="37.04619" lon="27.82539">
        <ele>463.423</ele>
      </trkpt>
      <trkpt lat="37.0461" lon="27.82523">
        <ele>462.426</ele>
      </trkpt>
      <trkpt lat="37.04603" lon="27.82517">
        <ele>461.781</ele>
      </trkpt>
      <trkpt lat="37.04593" lon="27.82512">
        <ele>460.246</ele>
      </trkpt>
      <trkpt lat="37.04579" lon="27.82509">
        <ele>457.37</ele>
      </trkpt>
      <trkpt lat="37.04568" lon="27.82508">
        <ele>454.587</ele>
      </trkpt>
      <trkpt lat="37.04552" lon="27.82515">
        <ele>449.977</ele>
      </trkpt>
      <trkpt lat="37.04549" lon="27.82521">
        <ele>448.781</ele>
      </trkpt>
      <trkpt lat="37.04549" lon="27.8252">
        <ele>448.927</ele>
      </trkpt>
      <trkpt lat="37.04549" lon="27.8252">
        <ele>448.928</ele>
      </trkpt>
      <trkpt lat="37.04549" lon="27.8252">
        <ele>448.928</ele>
      </trkpt>
      <trkpt lat="37.04549" lon="27.8252">
        <ele>448.928</ele>
      </trkpt>
      <trkpt lat="37.04548" lon="27.8252">
        <ele>448.949</ele>
      </trkpt>
      <trkpt lat="37.04538" lon="27.82524">
        <ele>447.369</ele>
      </trkpt>
      <trkpt lat="37.04527" lon="27.82533">
        <ele>445.995</ele>
      </trkpt>
      <trkpt lat="37.04523" lon="27.82538">
        <ele>445.884</ele>
      </trkpt>
      <trkpt lat="37.04526" lon="27.82541">
        <ele>445.926</ele>
      </trkpt>
      <trkpt lat="37.0452" lon="27.82548">
        <ele>445.572</ele>
      </trkpt>
      <trkpt lat="37.04519" lon="27.82565">
        <ele>444.453</ele>
      </trkpt>
      <trkpt lat="37.04519" lon="27.82567">
        <ele>444.258</ele>
      </trkpt>
      <trkpt lat="37.04514" lon="27.82567">
        <ele>443.76</ele>
      </trkpt>
      <trkpt lat="37.04504" lon="27.82574">
        <ele>441.911</ele>
      </trkpt>
      <trkpt lat="37.04497" lon="27.82583">
        <ele>439.195</ele>
      </trkpt>
      <trkpt lat="37.04488" lon="27.82587">
        <ele>435.81</ele>
      </trkpt>
      <trkpt lat="37.04476" lon="27.82589">
        <ele>432.375</ele>
      </trkpt>
      <trkpt lat="37.0447" lon="27.82594">
        <ele>429.916</ele>
      </trkpt>
      <trkpt lat="37.04464" lon="27.82598">
        <ele>427.664</ele>
      </trkpt>
      <trkpt lat="37.04455" lon="27.82608">
        <ele>424.678</ele>
      </trkpt>
      <trkpt lat="37.04451" lon="27.82611">
        <ele>423.393</ele>
      </trkpt>
      <trkpt lat="37.04441" lon="27.82623">
        <ele>421.799</ele>
      </trkpt>
      <trkpt lat="37.0444" lon="27.82623">
        <ele>421.713</ele>
      </trkpt>
      <trkpt lat="37.04431" lon="27.8263">
        <ele>420.35</ele>
      </trkpt>
      <trkpt lat="37.04422" lon="27.82636">
        <ele>418.876</ele>
      </trkpt>
      <trkpt lat="37.04415" lon="27.82646">
        <ele>417.189</ele>
      </trkpt>
      <trkpt lat="37.04406" lon="27.82653">
        <ele>414.665</ele>
      </trkpt>
      <trkpt lat="37.04405" lon="27.82667">
        <ele>413.993</ele>
      </trkpt>
      <trkpt lat="37.04405" lon="27.82682">
        <ele>413.784</ele>
      </trkpt>
      <trkpt lat="37.04396" lon="27.82684">
        <ele>411.603</ele>
      </trkpt>
      <trkpt lat="37.0439" lon="27.82676">
        <ele>410.215</ele>
      </trkpt>
      <trkpt lat="37.04388" lon="27.82671">
        <ele>409.652</ele>
      </trkpt>
      <trkpt lat="37.04387" lon="27.82669">
        <ele>409.251</ele>
      </trkpt>
      <trkpt lat="37.04383" lon="27.82664">
        <ele>407.913</ele>
      </trkpt>
      <trkpt lat="37.04374" lon="27.82662">
        <ele>405.099</ele>
      </trkpt>
      <trkpt lat="37.04367" lon="27.8267">
        <ele>402.881</ele>
      </trkpt>
      <trkpt lat="37.04365" lon="27.8267">
        <ele>402.42</ele>
      </trkpt>
      <trkpt lat="37.04358" lon="27.82675">
        <ele>400.265</ele>
      </trkpt>
      <trkpt lat="37.0435" lon="27.82679">
        <ele>397.102</ele>
      </trkpt>
      <trkpt lat="37.04344" lon="27.82684">
        <ele>395.113</ele>
      </trkpt>
      <trkpt lat="37.04336" lon="27.82693">
        <ele>392.804</ele>
      </trkpt>
      <trkpt lat="37.04332" lon="27.82704">
        <ele>391.369</ele>
      </trkpt>
      <trkpt lat="37.04324" lon="27.82714">
        <ele>388.475</ele>
      </trkpt>
      <trkpt lat="37.04317" lon="27.82717">
        <ele>385.457</ele>
      </trkpt>
      <trkpt lat="37.04311" lon="27.82719">
        <ele>383.247</ele>
      </trkpt>
      <trkpt lat="37.04312" lon="27.82723">
        <ele>383.633</ele>
      </trkpt>
      <trkpt lat="37.04305" lon="27.82731">
        <ele>381.254</ele>
      </trkpt>
      <trkpt lat="37.04299" lon="27.82737">
        <ele>379.014</ele>
      </trkpt>
      <trkpt lat="37.04299" lon="27.82741">
        <ele>378.882</ele>
      </trkpt>
      <trkpt lat="37.04295" lon="27.82745">
        <ele>377.471</ele>
      </trkpt>
      <trkpt lat="37.0429" lon="27.82747">
        <ele>375.817</ele>
      </trkpt>
      <trkpt lat="37.0429" lon="27.82747">
        <ele>375.859</ele>
      </trkpt>
      <trkpt lat="37.04288" lon="27.82738">
        <ele>374.568</ele>
      </trkpt>
      <trkpt lat="37.04292" lon="27.82722">
        <ele>375.579</ele>
      </trkpt>
      <trkpt lat="37.04292" lon="27.82714">
        <ele>374.941</ele>
      </trkpt>
      <trkpt lat="37.04294" lon="27.82695">
        <ele>374.948</ele>
      </trkpt>
      <trkpt lat="37.04298" lon="27.82677">
        <ele>375.829</ele>
      </trkpt>
      <trkpt lat="37.04303" lon="27.8266">
        <ele>376.929</ele>
      </trkpt>
      <trkpt lat="37.04307" lon="27.8264">
        <ele>376.71</ele>
      </trkpt>
      <trkpt lat="37.04307" lon="27.82641">
        <ele>376.792</ele>
      </trkpt>
      <trkpt lat="37.0431" lon="27.82635">
        <ele>377.469</ele>
      </trkpt>
      <trkpt lat="37.04309" lon="27.82612">
        <ele>373.562</ele>
      </trkpt>
      <trkpt lat="37.0431" lon="27.82596">
        <ele>370.785</ele>
      </trkpt>
      <trkpt lat="37.04313" lon="27.82585">
        <ele>369.882</ele>
      </trkpt>
      <trkpt lat="37.04309" lon="27.82573">
        <ele>367.271</ele>
      </trkpt>
      <trkpt lat="37.04303" lon="27.82565">
        <ele>364.346</ele>
      </trkpt>
      <trkpt lat="37.04297" lon="27.82549">
        <ele>363.741</ele>
      </trkpt>
      <trkpt lat="37.04297" lon="27.82548">
        <ele>363.965</ele>
      </trkpt>
      <trkpt lat="37.04296" lon="27.82547">
        <ele>364.197</ele>
      </trkpt>
      <trkpt lat="37.04296" lon="27.82545">
        <ele>364.428</ele>
      </trkpt>
      <trkpt lat="37.04294" lon="27.82547">
        <ele>363.593</ele>
      </trkpt>
      <trkpt lat="37.04293" lon="27.82544">
        <ele>363.821</ele>
      </trkpt>
      <trkpt lat="37.04288" lon="27.8253">
        <ele>365.536</ele>
      </trkpt>
      <trkpt lat="37.04277" lon="27.82526">
        <ele>363.75</ele>
      </trkpt>
      <trkpt lat="37.04264" lon="27.82527">
        <ele>360.79</ele>
      </trkpt>
      <trkpt lat="37.04254" lon="27.82528">
        <ele>358.614</ele>
      </trkpt>
      <trkpt lat="37.04243" lon="27.82531">
        <ele>355.814</ele>
      </trkpt>
      <trkpt lat="37.04227" lon="27.82534">
        <ele>352.236</ele>
      </trkpt>
      <trkpt lat="37.04211" lon="27.82536">
        <ele>348.891</ele>
      </trkpt>
      <trkpt lat="37.042" lon="27.82539">
        <ele>345.824</ele>
      </trkpt>
      <trkpt lat="37.04194" lon="27.82542">
        <ele>344</ele>
      </trkpt>
      <trkpt lat="37.04181" lon="27.82543">
        <ele>342.102</ele>
      </trkpt>
      <trkpt lat="37.04167" lon="27.82539">
        <ele>341.8</ele>
      </trkpt>
      <trkpt lat="37.04155" lon="27.82534">
        <ele>341.113</ele>
      </trkpt>
      <trkpt lat="37.04145" lon="27.8253">
        <ele>340.502</ele>
      </trkpt>
      <trkpt lat="37.04139" lon="27.82527">
        <ele>340.138</ele>
      </trkpt>
      <trkpt lat="37.04132" lon="27.82523">
        <ele>338.956</ele>
      </trkpt>
      <trkpt lat="37.04128" lon="27.82518">
        <ele>339.014</ele>
      </trkpt>
      <trkpt lat="37.0412" lon="27.82517">
        <ele>336.727</ele>
      </trkpt>
      <trkpt lat="37.04113" lon="27.82505">
        <ele>338.248</ele>
      </trkpt>
      <trkpt lat="37.04112" lon="27.82502">
        <ele>338.431</ele>
      </trkpt>
      <trkpt lat="37.04103" lon="27.82491">
        <ele>338.194</ele>
      </trkpt>
      <trkpt lat="37.04101" lon="27.82488">
        <ele>338.151</ele>
      </trkpt>
      <trkpt lat="37.04091" lon="27.82482">
        <ele>336.292</ele>
      </trkpt>
      <trkpt lat="37.04075" lon="27.82475">
        <ele>332.48</ele>
      </trkpt>
      <trkpt lat="37.04071" lon="27.82475">
        <ele>330.964</ele>
      </trkpt>
      <trkpt lat="37.04061" lon="27.82469">
        <ele>328.727</ele>
      </trkpt>
      <trkpt lat="37.04049" lon="27.82464">
        <ele>326.428</ele>
      </trkpt>
      <trkpt lat="37.04036" lon="27.82461">
        <ele>322.797</ele>
      </trkpt>
      <trkpt lat="37.04021" lon="27.82451">
        <ele>320.724</ele>
      </trkpt>
      <trkpt lat="37.0402" lon="27.8245">
        <ele>320.62</ele>
      </trkpt>
      <trkpt lat="37.04011" lon="27.82451">
        <ele>317.94</ele>
      </trkpt>
      <trkpt lat="37.04003" lon="27.82441">
        <ele>318.576</ele>
      </trkpt>
      <trkpt lat="37.03992" lon="27.82434">
        <ele>316.758</ele>
      </trkpt>
      <trkpt lat="37.03979" lon="27.82426">
        <ele>314.197</ele>
      </trkpt>
      <trkpt lat="37.03973" lon="27.82426">
        <ele>312.292</ele>
      </trkpt>
      <trkpt lat="37.03967" lon="27.82419">
        <ele>311.247</ele>
      </trkpt>
      <trkpt lat="37.03965" lon="27.82418">
        <ele>310.606</ele>
      </trkpt>
      <trkpt lat="37.03952" lon="27.82414">
        <ele>305.548</ele>
      </trkpt>
      <trkpt lat="37.0394" lon="27.82408">
        <ele>302.234</ele>
      </trkpt>
      <trkpt lat="37.03924" lon="27.82399">
        <ele>299.726</ele>
      </trkpt>
      <trkpt lat="37.03923" lon="27.82399">
        <ele>299.456</ele>
      </trkpt>
      <trkpt lat="37.03913" lon="27.82401">
        <ele>296.511</ele>
      </trkpt>
      <trkpt lat="37.03901" lon="27.82406">
        <ele>292.516</ele>
      </trkpt>
      <trkpt lat="37.03891" lon="27.82408">
        <ele>289.527</ele>
      </trkpt>
      <trkpt lat="37.03886" lon="27.82407">
        <ele>288.148</ele>
      </trkpt>
      <trkpt lat="37.03876" lon="27.82402">
        <ele>285.623</ele>
      </trkpt>
      <trkpt lat="37.03863" lon="27.82391">
        <ele>282.374</ele>
      </trkpt>
      <trkpt lat="37.03853" lon="27.82383">
        <ele>280.348</ele>
      </trkpt>
      <trkpt lat="37.03846" lon="27.82377">
        <ele>278.822</ele>
      </trkpt>
      <trkpt lat="37.03835" lon="27.82373">
        <ele>276.793</ele>
      </trkpt>
      <trkpt lat="37.03833" lon="27.82366">
        <ele>276.118</ele>
      </trkpt>
      <trkpt lat="37.0383" lon="27.82362">
        <ele>275.424</ele>
      </trkpt>
      <trkpt lat="37.03821" lon="27.82366">
        <ele>273.411</ele>
      </trkpt>
      <trkpt lat="37.03811" lon="27.82362">
        <ele>271.17</ele>
      </trkpt>
      <trkpt lat="37.03799" lon="27.82359">
        <ele>267.937</ele>
      </trkpt>
      <trkpt lat="37.03797" lon="27.82359">
        <ele>267.37</ele>
      </trkpt>
      <trkpt lat="37.03782" lon="27.82358">
        <ele>262.853</ele>
      </trkpt>
      <trkpt lat="37.03771" lon="27.82357">
        <ele>259.74</ele>
      </trkpt>
      <trkpt lat="37.03768" lon="27.82347">
        <ele>257.62</ele>
      </trkpt>
      <trkpt lat="37.03766" lon="27.82346">
        <ele>256.872</ele>
      </trkpt>
      <trkpt lat="37.03764" lon="27.82346">
        <ele>256.486</ele>
      </trkpt>
      <trkpt lat="37.03756" lon="27.82362">
        <ele>255.808</ele>
      </trkpt>
      <trkpt lat="37.03753" lon="27.82365">
        <ele>255.104</ele>
      </trkpt>
      <trkpt lat="37.03748" lon="27.82366">
        <ele>253.602</ele>
      </trkpt>
      <trkpt lat="37.03742" lon="27.82371">
        <ele>252.033</ele>
      </trkpt>
      <trkpt lat="37.03733" lon="27.82383">
        <ele>249.368</ele>
      </trkpt>
      <trkpt lat="37.0373" lon="27.82401">
        <ele>247.909</ele>
      </trkpt>
      <trkpt lat="37.03724" lon="27.82409">
        <ele>245.621</ele>
      </trkpt>
      <trkpt lat="37.0373" lon="27.82402">
        <ele>247.742</ele>
      </trkpt>
      <trkpt lat="37.0373" lon="27.82402">
        <ele>247.742</ele>
      </trkpt>
      <trkpt lat="37.0373" lon="27.82402">
        <ele>247.742</ele>
      </trkpt>
      <trkpt lat="37.03598" lon="27.82457">
        <ele>224.2</ele>
      </trkpt>
      <trkpt lat="37.03609" lon="27.82444">
        <ele>226.4</ele>
      </trkpt>
      <trkpt lat="37.03616" lon="27.82438">
        <ele>227.6</ele>
      </trkpt>
      <trkpt lat="37.03619" lon="27.8244">
        <ele>227.8</ele>
      </trkpt>
      <trkpt lat="37.03624" lon="27.82439">
        <ele>228.3</ele>
      </trkpt>
      <trkpt lat="37.03629" lon="27.82439">
        <ele>228.9</ele>
      </trkpt>
      <trkpt lat="37.03642" lon="27.8243">
        <ele>231.4</ele>
      </trkpt>
      <trkpt lat="37.03654" lon="27.82418">
        <ele>234.2</ele>
      </trkpt>
      <trkpt lat="37.03662" lon="27.82413">
        <ele>235.2</ele>
      </trkpt>
      <trkpt lat="37.03662" lon="27.82412">
        <ele>235.2</ele>
      </trkpt>
      <trkpt lat="37.03677" lon="27.82402">
        <ele>236.9</ele>
      </trkpt>
      <trkpt lat="37.0369" lon="27.82401">
        <ele>239.3</ele>
      </trkpt>
      <trkpt lat="37.03708" lon="27.82408">
        <ele>242.6</ele>
      </trkpt>
      <trkpt lat="37.0372" lon="27.82411">
        <ele>244.9</ele>
      </trkpt>
      <trkpt lat="37.03725" lon="27.82409">
        <ele>245.7</ele>
      </trkpt>
      <trkpt lat="37.03726" lon="27.82409">
        <ele>245.8</ele>
      </trkpt>
      <trkpt lat="37.03735" lon="27.82412">
        <ele>247.4</ele>
      </trkpt>
      <trkpt lat="37.03741" lon="27.82424">
        <ele>246.8</ele>
      </trkpt>
      <trkpt lat="37.03748" lon="27.82425">
        <ele>247.6</ele>
      </trkpt>
      <trkpt lat="37.03748" lon="27.82425">
        <ele>247.6</ele>
      </trkpt>
      <trkpt lat="37.03765" lon="27.82439">
        <ele>248.9</ele>
      </trkpt>
      <trkpt lat="37.03781" lon="27.82457">
        <ele>249.7</ele>
      </trkpt>
      <trkpt lat="37.03791" lon="27.8247">
        <ele>250.2</ele>
      </trkpt>
      <trkpt lat="37.03799" lon="27.82482">
        <ele>250.4</ele>
      </trkpt>
      <trkpt lat="37.03806" lon="27.82507">
        <ele>248.6</ele>
      </trkpt>
      <trkpt lat="37.03803" lon="27.82549">
        <ele>245</ele>
      </trkpt>
      <trkpt lat="37.03802" lon="27.82595">
        <ele>240.5</ele>
      </trkpt>
      <trkpt lat="37.03802" lon="27.82601">
        <ele>239.4</ele>
      </trkpt>
      <trkpt lat="37.03817" lon="27.82624">
        <ele>239.9</ele>
      </trkpt>
      <trkpt lat="37.03847" lon="27.82638">
        <ele>244.7</ele>
      </trkpt>
      <trkpt lat="37.03866" lon="27.8264">
        <ele>248</ele>
      </trkpt>
      <trkpt lat="37.03877" lon="27.82647">
        <ele>248.3</ele>
      </trkpt>
      <trkpt lat="37.03883" lon="27.82655">
        <ele>247.5</ele>
      </trkpt>
      <trkpt lat="37.03903" lon="27.82668">
        <ele>248.3</ele>
      </trkpt>
      <trkpt lat="37.03923" lon="27.82683">
        <ele>251.5</ele>
      </trkpt>
      <trkpt lat="37.03938" lon="27.82689">
        <ele>254.7</ele>
      </trkpt>
      <trkpt lat="37.03953" lon="27.82691">
        <ele>258</ele>
      </trkpt>
      <trkpt lat="37.03952" lon="27.82706">
        <ele>257.4</ele>
      </trkpt>
      <trkpt lat="37.03947" lon="27.82716">
        <ele>255.8</ele>
      </trkpt>
      <trkpt lat="37.0394" lon="27.82722">
        <ele>253.9</ele>
      </trkpt>
      <trkpt lat="37.03936" lon="27.82727">
        <ele>252.7</ele>
      </trkpt>
      <trkpt lat="37.03925" lon="27.82738">
        <ele>249.6</ele>
      </trkpt>
      <trkpt lat="37.03919" lon="27.82747">
        <ele>247.7</ele>
      </trkpt>
      <trkpt lat="37.03917" lon="27.8275">
        <ele>247</ele>
      </trkpt>
      <trkpt lat="37.03919" lon="27.82766">
        <ele>248.4</ele>
      </trkpt>
      <trkpt lat="37.03933" lon="27.82788">
        <ele>253.1</ele>
      </trkpt>
      <trkpt lat="37.03943" lon="27.82804">
        <ele>256.8</ele>
      </trkpt>
      <trkpt lat="37.03944" lon="27.82829">
        <ele>258.7</ele>
      </trkpt>
      <trkpt lat="37.0394" lon="27.8284">
        <ele>257.8</ele>
      </trkpt>
      <trkpt lat="37.03939" lon="27.82844">
        <ele>257.4</ele>
      </trkpt>
      <trkpt lat="37.03941" lon="27.82852">
        <ele>258</ele>
      </trkpt>
      <trkpt lat="37.03947" lon="27.82866">
        <ele>260</ele>
      </trkpt>
      <trkpt lat="37.0395" lon="27.82872">
        <ele>261</ele>
      </trkpt>
      <trkpt lat="37.03954" lon="27.82884">
        <ele>262.5</ele>
      </trkpt>
      <trkpt lat="37.03963" lon="27.8292">
        <ele>265.8</ele>
      </trkpt>
      <trkpt lat="37.03978" lon="27.82956">
        <ele>266.6</ele>
      </trkpt>
      <trkpt lat="37.03985" lon="27.8297">
        <ele>267.2</ele>
      </trkpt>
      <trkpt lat="37.04001" lon="27.83015">
        <ele>266.7</ele>
      </trkpt>
      <trkpt lat="37.04002" lon="27.83036">
        <ele>264.9</ele>
      </trkpt>
      <trkpt lat="37.04006" lon="27.83054">
        <ele>263.7</ele>
      </trkpt>
      <trkpt lat="37.04017" lon="27.8307">
        <ele>263.5</ele>
      </trkpt>
      <trkpt lat="37.04061" lon="27.83092">
        <ele>264.2</ele>
      </trkpt>
      <trkpt lat="37.04077" lon="27.83101">
        <ele>263.7</ele>
      </trkpt>
      <trkpt lat="37.04086" lon="27.83105">
        <ele>263.8</ele>
      </trkpt>
      <trkpt lat="37.04096" lon="27.8311">
        <ele>264.1</ele>
      </trkpt>
      <trkpt lat="37.04118" lon="27.83126">
        <ele>264.3</ele>
      </trkpt>
      <trkpt lat="37.04122" lon="27.83128">
        <ele>264.6</ele>
      </trkpt>
      <trkpt lat="37.04139" lon="27.8314">
        <ele>264.7</ele>
      </trkpt>
      <trkpt lat="37.04146" lon="27.83151">
        <ele>263.6</ele>
      </trkpt>
      <trkpt lat="37.04154" lon="27.83161">
        <ele>262.6</ele>
      </trkpt>
      <trkpt lat="37.04156" lon="27.83165">
        <ele>262.3</ele>
      </trkpt>
      <trkpt lat="37.04162" lon="27.83169">
        <ele>263</ele>
      </trkpt>
      <trkpt lat="37.04178" lon="27.83176">
        <ele>267.9</ele>
      </trkpt>
      <trkpt lat="37.04178" lon="27.83177">
        <ele>268.1</ele>
      </trkpt>
      <trkpt lat="37.04179" lon="27.83179">
        <ele>268.6</ele>
      </trkpt>
      <trkpt lat="37.04178" lon="27.83191">
        <ele>268.3</ele>
      </trkpt>
      <trkpt lat="37.04163" lon="27.83214">
        <ele>263</ele>
      </trkpt>
      <trkpt lat="37.04155" lon="27.83234">
        <ele>259.8</ele>
      </trkpt>
      <trkpt lat="37.04153" lon="27.83235">
        <ele>258.8</ele>
      </trkpt>
      <trkpt lat="37.04142" lon="27.83249">
        <ele>254.1</ele>
      </trkpt>
      <trkpt lat="37.04141" lon="27.83254">
        <ele>254</ele>
      </trkpt>
      <trkpt lat="37.04139" lon="27.83311">
        <ele>261.5</ele>
      </trkpt>
      <trkpt lat="37.04132" lon="27.83343">
        <ele>263.4</ele>
      </trkpt>
      <trkpt lat="37.04112" lon="27.83366">
        <ele>259.7</ele>
      </trkpt>
      <trkpt lat="37.04106" lon="27.83369">
        <ele>258.6</ele>
      </trkpt>
      <trkpt lat="37.04092" lon="27.83379">
        <ele>255.9</ele>
      </trkpt>
      <trkpt lat="37.0408" lon="27.83406">
        <ele>258.1</ele>
      </trkpt>
      <trkpt lat="37.04078" lon="27.8342">
        <ele>259.4</ele>
      </trkpt>
      <trkpt lat="37.04087" lon="27.83463">
        <ele>255.5</ele>
      </trkpt>
      <trkpt lat="37.04103" lon="27.83485">
        <ele>255.2</ele>
      </trkpt>
      <trkpt lat="37.0413" lon="27.83507">
        <ele>254.4</ele>
      </trkpt>
      <trkpt lat="37.04139" lon="27.83512">
        <ele>253.6</ele>
      </trkpt>
      <trkpt lat="37.0418" lon="27.83519">
        <ele>254.6</ele>
      </trkpt>
      <trkpt lat="37.04203" lon="27.83517">
        <ele>254.8</ele>
      </trkpt>
      <trkpt lat="37.04224" lon="27.83512">
        <ele>255.8</ele>
      </trkpt>
      <trkpt lat="37.04235" lon="27.83508">
        <ele>256.5</ele>
      </trkpt>
      <trkpt lat="37.04256" lon="27.83512">
        <ele>255.2</ele>
      </trkpt>
      <trkpt lat="37.04268" lon="27.8352">
        <ele>253.9</ele>
      </trkpt>
      <trkpt lat="37.04268" lon="27.8352">
        <ele>253.9</ele>
      </trkpt>
      <trkpt lat="37.04275" lon="27.8352">
        <ele>254.6</ele>
      </trkpt>
      <trkpt lat="37.04278" lon="27.83517">
        <ele>255.5</ele>
      </trkpt>
      <trkpt lat="37.04284" lon="27.83511">
        <ele>257.5</ele>
      </trkpt>
      <trkpt lat="37.04296" lon="27.83499">
        <ele>261.7</ele>
      </trkpt>
      <trkpt lat="37.04313" lon="27.83502">
        <ele>262</ele>
      </trkpt>
      <trkpt lat="37.04342" lon="27.83524">
        <ele>260.6</ele>
      </trkpt>
      <trkpt lat="37.04347" lon="27.83529">
        <ele>260.6</ele>
      </trkpt>
      <trkpt lat="37.0436" lon="27.83547">
        <ele>258.7</ele>
      </trkpt>
      <trkpt lat="37.04379" lon="27.83558">
        <ele>259.9</ele>
      </trkpt>
      <trkpt lat="37.04399" lon="27.83573">
        <ele>258.6</ele>
      </trkpt>
      <trkpt lat="37.04411" lon="27.83595">
        <ele>253.6</ele>
      </trkpt>
      <trkpt lat="37.04423" lon="27.8362">
        <ele>247.6</ele>
      </trkpt>
      <trkpt lat="37.04429" lon="27.83625">
        <ele>246.7</ele>
      </trkpt>
      <trkpt lat="37.04451" lon="27.83624">
        <ele>248.7</ele>
      </trkpt>
      <trkpt lat="37.04479" lon="27.8361">
        <ele>256.3</ele>
      </trkpt>
      <trkpt lat="37.04499" lon="27.83607">
        <ele>259.3</ele>
      </trkpt>
      <trkpt lat="37.04528" lon="27.83603">
        <ele>259.7</ele>
      </trkpt>
      <trkpt lat="37.04559" lon="27.83599">
        <ele>259.6</ele>
      </trkpt>
      <trkpt lat="37.0458" lon="27.83586">
        <ele>263.3</ele>
      </trkpt>
      <trkpt lat="37.04588" lon="27.83577">
        <ele>265.2</ele>
      </trkpt>
      <trkpt lat="37.04602" lon="27.83572">
        <ele>265.2</ele>
      </trkpt>
      <trkpt lat="37.0462" lon="27.83563">
        <ele>265.5</ele>
      </trkpt>
      <trkpt lat="37.04637" lon="27.83543">
        <ele>268.6</ele>
      </trkpt>
      <trkpt lat="37.04639" lon="27.8354">
        <ele>269.2</ele>
      </trkpt>
      <trkpt lat="37.04645" lon="27.83535">
        <ele>269.9</ele>
      </trkpt>
      <trkpt lat="37.04667" lon="27.83519">
        <ele>270.7</ele>
      </trkpt>
      <trkpt lat="37.04673" lon="27.83515">
        <ele>271.8</ele>
      </trkpt>
      <trkpt lat="37.04691" lon="27.83493">
        <ele>276.2</ele>
      </trkpt>
      <trkpt lat="37.04694" lon="27.83489">
        <ele>277</ele>
      </trkpt>
      <trkpt lat="37.047" lon="27.83485">
        <ele>277.4</ele>
      </trkpt>
      <trkpt lat="37.04717" lon="27.83488">
        <ele>275.4</ele>
      </trkpt>
      <trkpt lat="37.04733" lon="27.83481">
        <ele>275.3</ele>
      </trkpt>
      <trkpt lat="37.04743" lon="27.83467">
        <ele>276.7</ele>
      </trkpt>
      <trkpt lat="37.04748" lon="27.83465">
        <ele>276.3</ele>
      </trkpt>
      <trkpt lat="37.04759" lon="27.83474">
        <ele>276.5</ele>
      </trkpt>
      <trkpt lat="37.04762" lon="27.83498">
        <ele>273.5</ele>
      </trkpt>
      <trkpt lat="37.04761" lon="27.83506">
        <ele>272</ele>
      </trkpt>
      <trkpt lat="37.04767" lon="27.83534">
        <ele>268.2</ele>
      </trkpt>
      <trkpt lat="37.04775" lon="27.83542">
        <ele>268.1</ele>
      </trkpt>
      <trkpt lat="37.04803" lon="27.83546">
        <ele>271.7</ele>
      </trkpt>
      <trkpt lat="37.04809" lon="27.83545">
        <ele>272.8</ele>
      </trkpt>
      <trkpt lat="37.04824" lon="27.83537">
        <ele>277</ele>
      </trkpt>
      <trkpt lat="37.04847" lon="27.83535">
        <ele>283.3</ele>
      </trkpt>
      <trkpt lat="37.04864" lon="27.83537">
        <ele>288.8</ele>
      </trkpt>
      <trkpt lat="37.04866" lon="27.83535">
        <ele>289.7</ele>
      </trkpt>
      <trkpt lat="37.04867" lon="27.83535">
        <ele>290</ele>
      </trkpt>
      <trkpt lat="37.04868" lon="27.83535">
        <ele>290.3</ele>
      </trkpt>
      <trkpt lat="37.04869" lon="27.83535">
        <ele>290.8</ele>
      </trkpt>
      <trkpt lat="37.0487" lon="27.83536">
        <ele>291</ele>
      </trkpt>
      <trkpt lat="37.0487" lon="27.83536">
        <ele>291</ele>
      </trkpt>
      <trkpt lat="37.04872" lon="27.83541">
        <ele>290.7</ele>
      </trkpt>
      <trkpt lat="37.04872" lon="27.83542">
        <ele>290.7</ele>
      </trkpt>
      <trkpt lat="37.04873" lon="27.83544">
        <ele>290.6</ele>
      </trkpt>
      <trkpt lat="37.04872" lon="27.83551">
        <ele>289.4</ele>
      </trkpt>
      <trkpt lat="37.04866" lon="27.83576">
        <ele>283.2</ele>
      </trkpt>
      <trkpt lat="37.04862" lon="27.83589">
        <ele>279.2</ele>
      </trkpt>
      <trkpt lat="37.0487" lon="27.83617">
        <ele>277.5</ele>
      </trkpt>
      <trkpt lat="37.04879" lon="27.83627">
        <ele>279.7</ele>
      </trkpt>
      <trkpt lat="37.04907" lon="27.83678">
        <ele>284.1</ele>
      </trkpt>
      <trkpt lat="37.04919" lon="27.83704">
        <ele>284.7</ele>
      </trkpt>
      <trkpt lat="37.0492" lon="27.83705">
        <ele>284.9</ele>
      </trkpt>
      <trkpt lat="37.04925" lon="27.83715">
        <ele>285.3</ele>
      </trkpt>
      <trkpt lat="37.04934" lon="27.83738">
        <ele>285.4</ele>
      </trkpt>
      <trkpt lat="37.04939" lon="27.83752">
        <ele>285.4</ele>
      </trkpt>
      <trkpt lat="37.04943" lon="27.83781">
        <ele>284.9</ele>
      </trkpt>
      <trkpt lat="37.04957" lon="27.8381">
        <ele>287.8</ele>
      </trkpt>
      <trkpt lat="37.04967" lon="27.83837">
        <ele>288</ele>
      </trkpt>
      <trkpt lat="37.04968" lon="27.83867">
        <ele>281.9</ele>
      </trkpt>
      <trkpt lat="37.04973" lon="27.83889">
        <ele>278.4</ele>
      </trkpt>
      <trkpt lat="37.04983" lon="27.83922">
        <ele>273.2</ele>
      </trkpt>
      <trkpt lat="37.05" lon="27.83931">
        <ele>274.7</ele>
      </trkpt>
      <trkpt lat="37.05009" lon="27.83931">
        <ele>273.7</ele>
      </trkpt>
      <trkpt lat="37.05032" lon="27.83924">
        <ele>273.1</ele>
      </trkpt>
      <trkpt lat="37.05056" lon="27.83896">
        <ele>280.5</ele>
      </trkpt>
      <trkpt lat="37.0506" lon="27.8389">
        <ele>282.3</ele>
      </trkpt>
      <trkpt lat="37.05076" lon="27.83877">
        <ele>286.6</ele>
      </trkpt>
      <trkpt lat="37.05098" lon="27.83877">
        <ele>284.4</ele>
      </trkpt>
      <trkpt lat="37.05119" lon="27.83884">
        <ele>278.7</ele>
      </trkpt>
      <trkpt lat="37.05123" lon="27.83884">
        <ele>278.1</ele>
      </trkpt>
      <trkpt lat="37.05131" lon="27.8389">
        <ele>274.9</ele>
      </trkpt>
      <trkpt lat="37.05142" lon="27.83898">
        <ele>271.1</ele>
      </trkpt>
      <trkpt lat="37.05173" lon="27.83895">
        <ele>268.9</ele>
      </trkpt>
      <trkpt lat="37.05191" lon="27.8389">
        <ele>268.6</ele>
      </trkpt>
      <trkpt lat="37.05197" lon="27.83879">
        <ele>271.1</ele>
      </trkpt>
      <trkpt lat="37.05198" lon="27.83876">
        <ele>272</ele>
      </trkpt>
      <trkpt lat="37.05203" lon="27.83868">
        <ele>273.4</ele>
      </trkpt>
      <trkpt lat="37.05209" lon="27.83864">
        <ele>273.8</ele>
      </trkpt>
      <trkpt lat="37.05214" lon="27.83852">
        <ele>276.5</ele>
      </trkpt>
      <trkpt lat="37.05214" lon="27.83848">
        <ele>277.3</ele>
      </trkpt>
      <trkpt lat="37.05214" lon="27.83836">
        <ele>280.5</ele>
      </trkpt>
      <trkpt lat="37.05216" lon="27.83833">
        <ele>281</ele>
      </trkpt>
      <trkpt lat="37.05214" lon="27.83828">
        <ele>282.6</ele>
      </trkpt>
      <trkpt lat="37.05213" lon="27.83826">
        <ele>282.9</ele>
      </trkpt>
      <trkpt lat="37.05215" lon="27.83818">
        <ele>284.5</ele>
      </trkpt>
      <trkpt lat="37.05216" lon="27.83805">
        <ele>287.4</ele>
      </trkpt>
      <trkpt lat="37.05216" lon="27.83804">
        <ele>287.8</ele>
      </trkpt>
      <trkpt lat="37.05216" lon="27.8379">
        <ele>291</ele>
      </trkpt>
      <trkpt lat="37.05219" lon="27.83779">
        <ele>293.3</ele>
      </trkpt>
      <trkpt lat="37.05226" lon="27.83771">
        <ele>294.6</ele>
      </trkpt>
      <trkpt lat="37.05227" lon="27.8377">
        <ele>294.9</ele>
      </trkpt>
      <trkpt lat="37.05232" lon="27.83767">
        <ele>295.3</ele>
      </trkpt>
      <trkpt lat="37.05234" lon="27.83765">
        <ele>295.7</ele>
      </trkpt>
      <trkpt lat="37.05242" lon="27.83766">
        <ele>295.1</ele>
      </trkpt>
      <trkpt lat="37.05246" lon="27.83766">
        <ele>294.7</ele>
      </trkpt>
      <trkpt lat="37.05248" lon="27.83766">
        <ele>294.6</ele>
      </trkpt>
      <trkpt lat="37.05251" lon="27.83767">
        <ele>294.3</ele>
      </trkpt>
      <trkpt lat="37.05253" lon="27.83767">
        <ele>294.2</ele>
      </trkpt>
      <trkpt lat="37.0526" lon="27.83773">
        <ele>292.4</ele>
      </trkpt>
      <trkpt lat="37.05264" lon="27.83773">
        <ele>292</ele>
      </trkpt>
      <trkpt lat="37.0527" lon="27.83774">
        <ele>291.4</ele>
      </trkpt>
      <trkpt lat="37.05279" lon="27.8378">
        <ele>289.3</ele>
      </trkpt>
      <trkpt lat="37.05282" lon="27.83781">
        <ele>288.9</ele>
      </trkpt>
      <trkpt lat="37.05289" lon="27.83782">
        <ele>288.3</ele>
      </trkpt>
      <trkpt lat="37.05294" lon="27.83778">
        <ele>289.1</ele>
      </trkpt>
      <trkpt lat="37.05299" lon="27.83772">
        <ele>290.8</ele>
      </trkpt>
      <trkpt lat="37.05304" lon="27.83765">
        <ele>292.7</ele>
      </trkpt>
      <trkpt lat="37.05307" lon="27.83763">
        <ele>293.4</ele>
      </trkpt>
      <trkpt lat="37.05316" lon="27.83756">
        <ele>295.6</ele>
      </trkpt>
      <trkpt lat="37.05321" lon="27.83748">
        <ele>297.8</ele>
      </trkpt>
      <trkpt lat="37.05325" lon="27.83739">
        <ele>300.7</ele>
      </trkpt>
      <trkpt lat="37.05328" lon="27.83733">
        <ele>302.5</ele>
      </trkpt>
      <trkpt lat="37.05333" lon="27.83732">
        <ele>302.4</ele>
      </trkpt>
      <trkpt lat="37.05342" lon="27.83733">
        <ele>303.4</ele>
      </trkpt>
      <trkpt lat="37.0535" lon="27.83736">
        <ele>303.6</ele>
      </trkpt>
      <trkpt lat="37.05352" lon="27.83737">
        <ele>303.6</ele>
      </trkpt>
      <trkpt lat="37.0536" lon="27.83745">
        <ele>302.4</ele>
      </trkpt>
      <trkpt lat="37.05371" lon="27.83748">
        <ele>303</ele>
      </trkpt>
      <trkpt lat="37.05381" lon="27.83755">
        <ele>302.4</ele>
      </trkpt>
      <trkpt lat="37.05388" lon="27.83759">
        <ele>302.1</ele>
      </trkpt>
      <trkpt lat="37.054" lon="27.83761">
        <ele>303.3</ele>
      </trkpt>
      <trkpt lat="37.0541" lon="27.83766">
        <ele>303.4</ele>
      </trkpt>
      <trkpt lat="37.05419" lon="27.83773">
        <ele>302.7</ele>
      </trkpt>
      <trkpt lat="37.0543" lon="27.83775">
        <ele>303.3</ele>
      </trkpt>
      <trkpt lat="37.05436" lon="27.8378">
        <ele>302.5</ele>
      </trkpt>
      <trkpt lat="37.05441" lon="27.83785">
        <ele>301.6</ele>
      </trkpt>
      <trkpt lat="37.05446" lon="27.83791">
        <ele>300.6</ele>
      </trkpt>
      <trkpt lat="37.05455" lon="27.83797">
        <ele>299.9</ele>
      </trkpt>
      <trkpt lat="37.05456" lon="27.83798">
        <ele>299.6</ele>
      </trkpt>
      <trkpt lat="37.05461" lon="27.83799">
        <ele>299.9</ele>
      </trkpt>
      <trkpt lat="37.05468" lon="27.83801">
        <ele>300.2</ele>
      </trkpt>
      <trkpt lat="37.05472" lon="27.83802">
        <ele>300.5</ele>
      </trkpt>
      <trkpt lat="37.05484" lon="27.83798">
        <ele>303</ele>
      </trkpt>
      <trkpt lat="37.05485" lon="27.83797">
        <ele>303.4</ele>
      </trkpt>
      <trkpt lat="37.055" lon="27.83796">
        <ele>305.2</ele>
      </trkpt>
      <trkpt lat="37.0551" lon="27.838">
        <ele>303.7</ele>
      </trkpt>
      <trkpt lat="37.05516" lon="27.83804">
        <ele>302.3</ele>
      </trkpt>
      <trkpt lat="37.05522" lon="27.83807">
        <ele>301.1</ele>
      </trkpt>
      <trkpt lat="37.05533" lon="27.83812">
        <ele>299</ele>
      </trkpt>
      <trkpt lat="37.05536" lon="27.83813">
        <ele>298.4</ele>
      </trkpt>
      <trkpt lat="37.05548" lon="27.83814">
        <ele>297.4</ele>
      </trkpt>
      <trkpt lat="37.0556" lon="27.83821">
        <ele>294.8</ele>
      </trkpt>
      <trkpt lat="37.05571" lon="27.8382">
        <ele>294.3</ele>
      </trkpt>
      <trkpt lat="37.05575" lon="27.8382">
        <ele>294</ele>
      </trkpt>
      <trkpt lat="37.05575" lon="27.8382">
        <ele>294.1</ele>
      </trkpt>
      <trkpt lat="37.05575" lon="27.8382">
        <ele>294.1</ele>
      </trkpt>
      <trkpt lat="37.05581" lon="27.83816">
        <ele>295</ele>
      </trkpt>
      <trkpt lat="37.05588" lon="27.83812">
        <ele>295.8</ele>
      </trkpt>
      <trkpt lat="37.05591" lon="27.83809">
        <ele>296.8</ele>
      </trkpt>
      <trkpt lat="37.05599" lon="27.83806">
        <ele>297.1</ele>
      </trkpt>
      <trkpt lat="37.05605" lon="27.83801">
        <ele>298.7</ele>
      </trkpt>
      <trkpt lat="37.05609" lon="27.83797">
        <ele>299.7</ele>
      </trkpt>
      <trkpt lat="37.05612" lon="27.83799">
        <ele>299</ele>
      </trkpt>
      <trkpt lat="37.05621" lon="27.83801">
        <ele>297.8</ele>
      </trkpt>
      <trkpt lat="37.05629" lon="27.83804">
        <ele>296.2</ele>
      </trkpt>
      <trkpt lat="37.05636" lon="27.83808">
        <ele>294.4</ele>
      </trkpt>
      <trkpt lat="37.05645" lon="27.83809">
        <ele>293.5</ele>
      </trkpt>
      <trkpt lat="37.05651" lon="27.83808">
        <ele>293.3</ele>
      </trkpt>
      <trkpt lat="37.05657" lon="27.83808">
        <ele>292.9</ele>
      </trkpt>
      <trkpt lat="37.05665" lon="27.83809">
        <ele>292.2</ele>
      </trkpt>
      <trkpt lat="37.05666" lon="27.83808">
        <ele>292.3</ele>
      </trkpt>
      <trkpt lat="37.05678" lon="27.83807">
        <ele>290.8</ele>
      </trkpt>
      <trkpt lat="37.05687" lon="27.83811">
        <ele>288.1</ele>
      </trkpt>
      <trkpt lat="37.05695" lon="27.8381">
        <ele>287.1</ele>
      </trkpt>
      <trkpt lat="37.05704" lon="27.83813">
        <ele>284.9</ele>
      </trkpt>
      <trkpt lat="37.05716" lon="27.83813">
        <ele>283.2</ele>
      </trkpt>
      <trkpt lat="37.05724" lon="27.83816">
        <ele>281.3</ele>
      </trkpt>
      <trkpt lat="37.05729" lon="27.83817">
        <ele>280.4</ele>
      </trkpt>
      <trkpt lat="37.05734" lon="27.83815">
        <ele>280</ele>
      </trkpt>
      <trkpt lat="37.05735" lon="27.83814">
        <ele>280.1</ele>
      </trkpt>
      <trkpt lat="37.05739" lon="27.83812">
        <ele>280</ele>
      </trkpt>
      <trkpt lat="37.05743" lon="27.83804">
        <ele>280.8</ele>
      </trkpt>
      <trkpt lat="37.05745" lon="27.83802">
        <ele>280.9</ele>
      </trkpt>
      <trkpt lat="37.05746" lon="27.83797">
        <ele>281.5</ele>
      </trkpt>
      <trkpt lat="37.0575" lon="27.83789">
        <ele>281.8</ele>
      </trkpt>
      <trkpt lat="37.05755" lon="27.83778">
        <ele>282.1</ele>
      </trkpt>
      <trkpt lat="37.05759" lon="27.83768">
        <ele>282.7</ele>
      </trkpt>
      <trkpt lat="37.05759" lon="27.83763">
        <ele>283.4</ele>
      </trkpt>
      <trkpt lat="37.0576" lon="27.83751">
        <ele>285</ele>
      </trkpt>
      <trkpt lat="37.05759" lon="27.83741">
        <ele>286.3</ele>
      </trkpt>
      <trkpt lat="37.05759" lon="27.83731">
        <ele>287.1</ele>
      </trkpt>
      <trkpt lat="37.05759" lon="27.8372">
        <ele>288.2</ele>
      </trkpt>
      <trkpt lat="37.05762" lon="27.83711">
        <ele>288.6</ele>
      </trkpt>
      <trkpt lat="37.05762" lon="27.83705">
        <ele>289</ele>
      </trkpt>
      <trkpt lat="37.05762" lon="27.83698">
        <ele>289.8</ele>
      </trkpt>
      <trkpt lat="37.05763" lon="27.83687">
        <ele>290.9</ele>
      </trkpt>
      <trkpt lat="37.05763" lon="27.83685">
        <ele>291</ele>
      </trkpt>
      <trkpt lat="37.05763" lon="27.83683">
        <ele>291.3</ele>
      </trkpt>
      <trkpt lat="37.05766" lon="27.83673">
        <ele>291.9</ele>
      </trkpt>
      <trkpt lat="37.05767" lon="27.83672">
        <ele>291.7</ele>
      </trkpt>
      <trkpt lat="37.05771" lon="27.8367">
        <ele>291.3</ele>
      </trkpt>
      <trkpt lat="37.05778" lon="27.83665">
        <ele>290.9</ele>
      </trkpt>
      <trkpt lat="37.0578" lon="27.83664">
        <ele>290.9</ele>
      </trkpt>
      <trkpt lat="37.05789" lon="27.83663">
        <ele>289.8</ele>
      </trkpt>
      <trkpt lat="37.05793" lon="27.83664">
        <ele>289.1</ele>
      </trkpt>
      <trkpt lat="37.058" lon="27.83665">
        <ele>287.7</ele>
      </trkpt>
      <trkpt lat="37.05808" lon="27.83669">
        <ele>285.5</ele>
      </trkpt>
      <trkpt lat="37.05815" lon="27.83674">
        <ele>283.5</ele>
      </trkpt>
      <trkpt lat="37.05823" lon="27.83681">
        <ele>280.6</ele>
      </trkpt>
      <trkpt lat="37.05829" lon="27.83682">
        <ele>279.3</ele>
      </trkpt>
      <trkpt lat="37.05837" lon="27.83682">
        <ele>278.4</ele>
      </trkpt>
      <trkpt lat="37.05849" lon="27.83685">
        <ele>276.9</ele>
      </trkpt>
      <trkpt lat="37.05851" lon="27.83685">
        <ele>276.8</ele>
      </trkpt>
      <trkpt lat="37.05853" lon="27.83684">
        <ele>276.9</ele>
      </trkpt>
      <trkpt lat="37.05862" lon="27.83686">
        <ele>276.2</ele>
      </trkpt>
      <trkpt lat="37.05864" lon="27.83686">
        <ele>276</ele>
      </trkpt>
      <trkpt lat="37.05871" lon="27.8369">
        <ele>275</ele>
      </trkpt>
      <trkpt lat="37.05882" lon="27.83698">
        <ele>273.3</ele>
      </trkpt>
      <trkpt lat="37.05886" lon="27.837">
        <ele>272.8</ele>
      </trkpt>
      <trkpt lat="37.05887" lon="27.83702">
        <ele>272.5</ele>
      </trkpt>
      <trkpt lat="37.05894" lon="27.83702">
        <ele>272.2</ele>
      </trkpt>
      <trkpt lat="37.059" lon="27.83699">
        <ele>272.4</ele>
      </trkpt>
      <trkpt lat="37.05908" lon="27.83693">
        <ele>272.8</ele>
      </trkpt>
      <trkpt lat="37.05909" lon="27.83692">
        <ele>272.9</ele>
      </trkpt>
      <trkpt lat="37.0591" lon="27.83691">
        <ele>273</ele>
      </trkpt>
      <trkpt lat="37.05915" lon="27.83684">
        <ele>273.4</ele>
      </trkpt>
      <trkpt lat="37.05919" lon="27.83681">
        <ele>274.7</ele>
      </trkpt>
      <trkpt lat="37.05924" lon="27.83672">
        <ele>277.9</ele>
      </trkpt>
      <trkpt lat="37.05925" lon="27.83667">
        <ele>279.1</ele>
      </trkpt>
      <trkpt lat="37.05925" lon="27.83663">
        <ele>279.7</ele>
      </trkpt>
      <trkpt lat="37.05925" lon="27.83657">
        <ele>280.6</ele>
      </trkpt>
      <trkpt lat="37.05927" lon="27.83645">
        <ele>283.8</ele>
      </trkpt>
      <trkpt lat="37.05931" lon="27.83631">
        <ele>288</ele>
      </trkpt>
      <trkpt lat="37.05935" lon="27.83619">
        <ele>291.6</ele>
      </trkpt>
      <trkpt lat="37.05937" lon="27.83609">
        <ele>294.1</ele>
      </trkpt>
      <trkpt lat="37.0594" lon="27.83605">
        <ele>296</ele>
      </trkpt>
      <trkpt lat="37.0595" lon="27.83604">
        <ele>300.4</ele>
      </trkpt>
      <trkpt lat="37.05951" lon="27.83605">
        <ele>300.5</ele>
      </trkpt>
      <trkpt lat="37.05957" lon="27.8361">
        <ele>302.8</ele>
      </trkpt>
      <trkpt lat="37.05962" lon="27.83615">
        <ele>304.2</ele>
      </trkpt>
      <trkpt lat="37.05964" lon="27.83617">
        <ele>304.6</ele>
      </trkpt>
      <trkpt lat="37.05964" lon="27.83623">
        <ele>303.9</ele>
      </trkpt>
      <trkpt lat="37.05963" lon="27.83632">
        <ele>302.7</ele>
      </trkpt>
      <trkpt lat="37.05963" lon="27.83638">
        <ele>301.8</ele>
      </trkpt>
      <trkpt lat="37.05965" lon="27.83644">
        <ele>302.2</ele>
      </trkpt>
      <trkpt lat="37.05964" lon="27.83653">
        <ele>300.3</ele>
      </trkpt>
      <trkpt lat="37.05959" lon="27.83669">
        <ele>295.8</ele>
      </trkpt>
      <trkpt lat="37.05952" lon="27.83681">
        <ele>290.9</ele>
      </trkpt>
      <trkpt lat="37.05952" lon="27.83687">
        <ele>290</ele>
      </trkpt>
      <trkpt lat="37.0595" lon="27.83693">
        <ele>288.3</ele>
      </trkpt>
      <trkpt lat="37.0595" lon="27.83696">
        <ele>287.6</ele>
      </trkpt>
      <trkpt lat="37.0595" lon="27.83703">
        <ele>286.9</ele>
      </trkpt>
      <trkpt lat="37.05953" lon="27.83712">
        <ele>286.9</ele>
      </trkpt>
      <trkpt lat="37.05951" lon="27.83724">
        <ele>284.5</ele>
      </trkpt>
      <trkpt lat="37.05948" lon="27.83736">
        <ele>281.8</ele>
      </trkpt>
      <trkpt lat="37.05947" lon="27.83748">
        <ele>279.6</ele>
      </trkpt>
      <trkpt lat="37.05944" lon="27.83756">
        <ele>278.6</ele>
      </trkpt>
      <trkpt lat="37.05942" lon="27.83763">
        <ele>277.9</ele>
      </trkpt>
      <trkpt lat="37.05933" lon="27.83771">
        <ele>274.5</ele>
      </trkpt>
      <trkpt lat="37.05928" lon="27.83778">
        <ele>272.5</ele>
      </trkpt>
      <trkpt lat="37.05927" lon="27.83779">
        <ele>272.2</ele>
      </trkpt>
      <trkpt lat="37.05925" lon="27.8378">
        <ele>271.3</ele>
      </trkpt>
      <trkpt lat="37.05917" lon="27.83787">
        <ele>268.1</ele>
      </trkpt>
      <trkpt lat="37.05916" lon="27.8379">
        <ele>267.9</ele>
      </trkpt>
      <trkpt lat="37.05913" lon="27.83794">
        <ele>267.6</ele>
      </trkpt>
      <trkpt lat="37.05913" lon="27.83794">
        <ele>267.6</ele>
      </trkpt>
      <trkpt lat="37.05913" lon="27.83797">
        <ele>267.7</ele>
      </trkpt>
      <trkpt lat="37.05913" lon="27.83796">
        <ele>267.6</ele>
      </trkpt>
      <trkpt lat="37.05909" lon="27.83806">
        <ele>267.3</ele>
      </trkpt>
      <trkpt lat="37.05909" lon="27.83807">
        <ele>267.3</ele>
      </trkpt>
      <trkpt lat="37.05911" lon="27.83814">
        <ele>267.7</ele>
      </trkpt>
      <trkpt lat="37.05912" lon="27.83817">
        <ele>267.9</ele>
      </trkpt>
      <trkpt lat="37.05912" lon="27.83818">
        <ele>267.9</ele>
      </trkpt>
      <trkpt lat="37.05911" lon="27.83819">
        <ele>267.8</ele>
      </trkpt>
      <trkpt lat="37.05911" lon="27.83819">
        <ele>267.8</ele>
      </trkpt>
      <trkpt lat="37.05914" lon="27.83821">
        <ele>268.3</ele>
      </trkpt>
      <trkpt lat="37.05918" lon="27.83825">
        <ele>269.5</ele>
      </trkpt>
      <trkpt lat="37.05919" lon="27.83825">
        <ele>270.1</ele>
      </trkpt>
      <trkpt lat="37.0592" lon="27.83826">
        <ele>270.3</ele>
      </trkpt>
      <trkpt lat="37.0592" lon="27.83822">
        <ele>270.2</ele>
      </trkpt>
      <trkpt lat="37.05919" lon="27.83821">
        <ele>269.9</ele>
      </trkpt>
      <trkpt lat="37.0592" lon="27.83817">
        <ele>270.3</ele>
      </trkpt>
      <trkpt lat="37.0592" lon="27.83817">
        <ele>270</ele>
      </trkpt>
      <trkpt lat="37.0592" lon="27.83821">
        <ele>270.5</ele>
      </trkpt>
      <trkpt lat="37.0592" lon="27.83817">
        <ele>270.3</ele>
      </trkpt>
      <trkpt lat="37.05925" lon="27.83806">
        <ele>272.3</ele>
      </trkpt>
      <trkpt lat="37.0593" lon="27.83802">
        <ele>274.3</ele>
      </trkpt>
      <trkpt lat="37.0593" lon="27.83802">
        <ele>274.4</ele>
      </trkpt>
      <trkpt lat="37.05931" lon="27.83799">
        <ele>275</ele>
      </trkpt>
      <trkpt lat="37.05929" lon="27.83801">
        <ele>274.1</ele>
      </trkpt>
      <trkpt lat="37.05934" lon="27.83796">
        <ele>276</ele>
      </trkpt>
      <trkpt lat="37.05939" lon="27.83795">
        <ele>278.3</ele>
      </trkpt>
      <trkpt lat="37.05938" lon="27.83795">
        <ele>278</ele>
      </trkpt>
      <trkpt lat="37.0594" lon="27.83797">
        <ele>279.1</ele>
      </trkpt>
      <trkpt lat="37.05945" lon="27.83798">
        <ele>281.2</ele>
      </trkpt>
      <trkpt lat="37.05948" lon="27.83798">
        <ele>282.8</ele>
      </trkpt>
      <trkpt lat="37.0596" lon="27.83804">
        <ele>288.7</ele>
      </trkpt>
      <trkpt lat="37.05963" lon="27.83806">
        <ele>290.1</ele>
      </trkpt>
      <trkpt lat="37.05965" lon="27.83808">
        <ele>291.3</ele>
      </trkpt>
      <trkpt lat="37.05966" lon="27.83811">
        <ele>292.2</ele>
      </trkpt>
      <trkpt lat="37.05968" lon="27.83813">
        <ele>293.1</ele>
      </trkpt>
      <trkpt lat="37.05968" lon="27.83816">
        <ele>293.6</ele>
      </trkpt>
      <trkpt lat="37.0597" lon="27.83819">
        <ele>294.4</ele>
      </trkpt>
      <trkpt lat="37.05973" lon="27.83822">
        <ele>296.2</ele>
      </trkpt>
      <trkpt lat="37.05971" lon="27.83823">
        <ele>295.7</ele>
      </trkpt>
      <trkpt lat="37.05973" lon="27.83825">
        <ele>296.5</ele>
      </trkpt>
      <trkpt lat="37.05974" lon="27.83827">
        <ele>297.4</ele>
      </trkpt>
      <trkpt lat="37.05974" lon="27.83829">
        <ele>297.4</ele>
      </trkpt>
      <trkpt lat="37.05974" lon="27.8383">
        <ele>297.6</ele>
      </trkpt>
      <trkpt lat="37.05975" lon="27.83835">
        <ele>298.1</ele>
      </trkpt>
      <trkpt lat="37.05977" lon="27.8384">
        <ele>298.7</ele>
      </trkpt>
      <trkpt lat="37.05979" lon="27.83845">
        <ele>299.7</ele>
      </trkpt>
      <trkpt lat="37.05982" lon="27.83854">
        <ele>300.4</ele>
      </trkpt>
      <trkpt lat="37.05983" lon="27.83856">
        <ele>300.9</ele>
      </trkpt>
      <trkpt lat="37.05984" lon="27.83856">
        <ele>301.2</ele>
      </trkpt>
      <trkpt lat="37.05984" lon="27.83858">
        <ele>301.4</ele>
      </trkpt>
      <trkpt lat="37.05986" lon="27.83857">
        <ele>302.1</ele>
      </trkpt>
      <trkpt lat="37.05987" lon="27.8386">
        <ele>302.6</ele>
      </trkpt>
      <trkpt lat="37.05987" lon="27.83861">
        <ele>302.6</ele>
      </trkpt>
      <trkpt lat="37.05987" lon="27.83864">
        <ele>302.2</ele>
      </trkpt>
      <trkpt lat="37.05988" lon="27.83867">
        <ele>302.4</ele>
      </trkpt>
      <trkpt lat="37.05988" lon="27.83867">
        <ele>302.8</ele>
      </trkpt>
      <trkpt lat="37.05989" lon="27.83864">
        <ele>303.6</ele>
      </trkpt>
      <trkpt lat="37.05989" lon="27.83856">
        <ele>304.1</ele>
      </trkpt>
      <trkpt lat="37.0599" lon="27.8386">
        <ele>304.1</ele>
      </trkpt>
      <trkpt lat="37.0599" lon="27.83862">
        <ele>304.1</ele>
      </trkpt>
      <trkpt lat="37.05993" lon="27.83867">
        <ele>304.9</ele>
      </trkpt>
      <trkpt lat="37.05994" lon="27.8387">
        <ele>305.2</ele>
      </trkpt>
      <trkpt lat="37.05995" lon="27.83875">
        <ele>305.6</ele>
      </trkpt>
      <trkpt lat="37.05997" lon="27.83875">
        <ele>306.4</ele>
      </trkpt>
      <trkpt lat="37.05997" lon="27.83875">
        <ele>306.6</ele>
      </trkpt>
      <trkpt lat="37.06" lon="27.83885">
        <ele>307.4</ele>
      </trkpt>
      <trkpt lat="37.06001" lon="27.83892">
        <ele>307</ele>
      </trkpt>
      <trkpt lat="37.06001" lon="27.83897">
        <ele>306.7</ele>
      </trkpt>
      <trkpt lat="37.06001" lon="27.83898">
        <ele>306.6</ele>
      </trkpt>
      <trkpt lat="37.06004" lon="27.83905">
        <ele>307.6</ele>
      </trkpt>
      <trkpt lat="37.06007" lon="27.83907">
        <ele>308.8</ele>
      </trkpt>
      <trkpt lat="37.06007" lon="27.83908">
        <ele>308.9</ele>
      </trkpt>
      <trkpt lat="37.06009" lon="27.83911">
        <ele>309.5</ele>
      </trkpt>
      <trkpt lat="37.06011" lon="27.83911">
        <ele>310.4</ele>
      </trkpt>
      <trkpt lat="37.06015" lon="27.83917">
        <ele>312</ele>
      </trkpt>
      <trkpt lat="37.06019" lon="27.83922">
        <ele>312.6</ele>
      </trkpt>
      <trkpt lat="37.0602" lon="27.83925">
        <ele>312.3</ele>
      </trkpt>
      <trkpt lat="37.0602" lon="27.83931">
        <ele>311.1</ele>
      </trkpt>
      <trkpt lat="37.06025" lon="27.83935">
        <ele>312.1</ele>
      </trkpt>
      <trkpt lat="37.06027" lon="27.83938">
        <ele>312.5</ele>
      </trkpt>
      <trkpt lat="37.06027" lon="27.83935">
        <ele>313.1</ele>
      </trkpt>
      <trkpt lat="37.06031" lon="27.83937">
        <ele>314.2</ele>
      </trkpt>
      <trkpt lat="37.06032" lon="27.8394">
        <ele>314.1</ele>
      </trkpt>
      <trkpt lat="37.06038" lon="27.83943">
        <ele>315.8</ele>
      </trkpt>
      <trkpt lat="37.06041" lon="27.83951">
        <ele>315.1</ele>
      </trkpt>
      <trkpt lat="37.06043" lon="27.83953">
        <ele>315.2</ele>
      </trkpt>
      <trkpt lat="37.06051" lon="27.83959">
        <ele>317.2</ele>
      </trkpt>
      <trkpt lat="37.06052" lon="27.8396">
        <ele>317.5</ele>
      </trkpt>
      <trkpt lat="37.06052" lon="27.83961">
        <ele>317</ele>
      </trkpt>
      <trkpt lat="37.06054" lon="27.83965">
        <ele>316.8</ele>
      </trkpt>
      <trkpt lat="37.06058" lon="27.83966">
        <ele>318.4</ele>
      </trkpt>
      <trkpt lat="37.06059" lon="27.83967">
        <ele>318.5</ele>
      </trkpt>
      <trkpt lat="37.06065" lon="27.83963">
        <ele>321.8</ele>
      </trkpt>
      <trkpt lat="37.06069" lon="27.83962">
        <ele>323.8</ele>
      </trkpt>
      <trkpt lat="37.06072" lon="27.83964">
        <ele>324.7</ele>
      </trkpt>
      <trkpt lat="37.06081" lon="27.8396">
        <ele>329.5</ele>
      </trkpt>
      <trkpt lat="37.06085" lon="27.83959">
        <ele>331.7</ele>
      </trkpt>
      <trkpt lat="37.06088" lon="27.83966">
        <ele>331.7</ele>
      </trkpt>
      <trkpt lat="37.06087" lon="27.83969">
        <ele>330.1</ele>
      </trkpt>
      <trkpt lat="37.06094" lon="27.83969">
        <ele>335.2</ele>
      </trkpt>
      <trkpt lat="37.06099" lon="27.83972">
        <ele>337.2</ele>
      </trkpt>
      <trkpt lat="37.061" lon="27.83973">
        <ele>337.8</ele>
      </trkpt>
      <trkpt lat="37.06104" lon="27.83972">
        <ele>340.5</ele>
      </trkpt>
      <trkpt lat="37.06108" lon="27.83973">
        <ele>342.7</ele>
      </trkpt>
      <trkpt lat="37.06107" lon="27.83975">
        <ele>341.9</ele>
      </trkpt>
      <trkpt lat="37.06108" lon="27.83976">
        <ele>341.8</ele>
      </trkpt>
      <trkpt lat="37.06112" lon="27.83983">
        <ele>342.5</ele>
      </trkpt>
      <trkpt lat="37.06111" lon="27.83985">
        <ele>340.3</ele>
      </trkpt>
      <trkpt lat="37.0611" lon="27.83987">
        <ele>339.4</ele>
      </trkpt>
      <trkpt lat="37.06112" lon="27.83989">
        <ele>340</ele>
      </trkpt>
      <trkpt lat="37.06111" lon="27.83992">
        <ele>338.2</ele>
      </trkpt>
      <trkpt lat="37.06112" lon="27.83998">
        <ele>336.9</ele>
      </trkpt>
      <trkpt lat="37.06113" lon="27.84003">
        <ele>336.8</ele>
      </trkpt>
      <trkpt lat="37.06118" lon="27.84007">
        <ele>339.5</ele>
      </trkpt>
      <trkpt lat="37.06121" lon="27.84009">
        <ele>341.3</ele>
      </trkpt>
      <trkpt lat="37.06122" lon="27.84015">
        <ele>341.4</ele>
      </trkpt>
      <trkpt lat="37.0612" lon="27.84019">
        <ele>340</ele>
      </trkpt>
      <trkpt lat="37.0612" lon="27.8402">
        <ele>340</ele>
      </trkpt>
      <trkpt lat="37.06121" lon="27.8402">
        <ele>340.6</ele>
      </trkpt>
      <trkpt lat="37.0612" lon="27.84028">
        <ele>339.5</ele>
      </trkpt>
      <trkpt lat="37.06118" lon="27.84032">
        <ele>338.1</ele>
      </trkpt>
      <trkpt lat="37.06116" lon="27.84037">
        <ele>336.9</ele>
      </trkpt>
      <trkpt lat="37.06117" lon="27.84042">
        <ele>337.4</ele>
      </trkpt>
      <trkpt lat="37.06119" lon="27.84047">
        <ele>337.8</ele>
      </trkpt>
      <trkpt lat="37.06119" lon="27.8405">
        <ele>337.7</ele>
      </trkpt>
      <trkpt lat="37.06118" lon="27.84051">
        <ele>337.4</ele>
      </trkpt>
      <trkpt lat="37.06119" lon="27.84052">
        <ele>337.8</ele>
      </trkpt>
      <trkpt lat="37.0612" lon="27.84053">
        <ele>338</ele>
      </trkpt>
      <trkpt lat="37.0612" lon="27.84054">
        <ele>338.3</ele>
      </trkpt>
      <trkpt lat="37.06119" lon="27.84061">
        <ele>337.2</ele>
      </trkpt>
      <trkpt lat="37.06115" lon="27.84065">
        <ele>334.8</ele>
      </trkpt>
      <trkpt lat="37.06111" lon="27.84066">
        <ele>332.8</ele>
      </trkpt>
      <trkpt lat="37.06106" lon="27.84064">
        <ele>330.2</ele>
      </trkpt>
      <trkpt lat="37.06101" lon="27.84067">
        <ele>327.4</ele>
      </trkpt>
      <trkpt lat="37.06102" lon="27.84068">
        <ele>327.7</ele>
      </trkpt>
      <trkpt lat="37.061" lon="27.84069">
        <ele>327</ele>
      </trkpt>
      <trkpt lat="37.06096" lon="27.84079">
        <ele>324.3</ele>
      </trkpt>
      <trkpt lat="37.06094" lon="27.84086">
        <ele>323.7</ele>
      </trkpt>
      <trkpt lat="37.0609" lon="27.84093">
        <ele>322.7</ele>
      </trkpt>
      <trkpt lat="37.0609" lon="27.84095">
        <ele>323</ele>
      </trkpt>
      <trkpt lat="37.06089" lon="27.84097">
        <ele>322.9</ele>
      </trkpt>
      <trkpt lat="37.06089" lon="27.841">
        <ele>322.9</ele>
      </trkpt>
      <trkpt lat="37.06085" lon="27.84105">
        <ele>322.1</ele>
      </trkpt>
      <trkpt lat="37.06085" lon="27.84106">
        <ele>321.9</ele>
      </trkpt>
      <trkpt lat="37.06083" lon="27.8411">
        <ele>321.8</ele>
      </trkpt>
      <trkpt lat="37.06079" lon="27.84115">
        <ele>321.3</ele>
      </trkpt>
      <trkpt lat="37.06076" lon="27.84119">
        <ele>320.5</ele>
      </trkpt>
      <trkpt lat="37.06074" lon="27.84125">
        <ele>320.8</ele>
      </trkpt>
      <trkpt lat="37.06073" lon="27.84129">
        <ele>320.8</ele>
      </trkpt>
      <trkpt lat="37.06071" lon="27.84132">
        <ele>320.7</ele>
      </trkpt>
      <trkpt lat="37.06071" lon="27.84132">
        <ele>320.6</ele>
      </trkpt>
      <trkpt lat="37.0607" lon="27.84138">
        <ele>321.1</ele>
      </trkpt>
      <trkpt lat="37.06068" lon="27.84146">
        <ele>321.7</ele>
      </trkpt>
      <trkpt lat="37.06069" lon="27.84153">
        <ele>322.8</ele>
      </trkpt>
      <trkpt lat="37.06069" lon="27.84159">
        <ele>323.7</ele>
      </trkpt>
      <trkpt lat="37.06068" lon="27.84163">
        <ele>324</ele>
      </trkpt>
      <trkpt lat="37.06068" lon="27.84162">
        <ele>324</ele>
      </trkpt>
      <trkpt lat="37.06069" lon="27.84163">
        <ele>324.4</ele>
      </trkpt>
      <trkpt lat="37.06071" lon="27.84166">
        <ele>325.3</ele>
      </trkpt>
      <trkpt lat="37.06071" lon="27.84169">
        <ele>325.4</ele>
      </trkpt>
      <trkpt lat="37.06072" lon="27.84171">
        <ele>325.8</ele>
      </trkpt>
      <trkpt lat="37.06073" lon="27.84175">
        <ele>326.2</ele>
      </trkpt>
      <trkpt lat="37.06073" lon="27.84176">
        <ele>326.3</ele>
      </trkpt>
      <trkpt lat="37.06073" lon="27.8419">
        <ele>326.5</ele>
      </trkpt>
      <trkpt lat="37.06074" lon="27.8419">
        <ele>326.6</ele>
      </trkpt>
      <trkpt lat="37.06078" lon="27.84193">
        <ele>328.3</ele>
      </trkpt>
      <trkpt lat="37.06081" lon="27.84196">
        <ele>329.1</ele>
      </trkpt>
      <trkpt lat="37.06082" lon="27.84197">
        <ele>329.4</ele>
      </trkpt>
      <trkpt lat="37.06083" lon="27.842">
        <ele>330</ele>
      </trkpt>
      <trkpt lat="37.06085" lon="27.84207">
        <ele>330.9</ele>
      </trkpt>
      <trkpt lat="37.06088" lon="27.84214">
        <ele>332</ele>
      </trkpt>
      <trkpt lat="37.06091" lon="27.84219">
        <ele>333.5</ele>
      </trkpt>
      <trkpt lat="37.06091" lon="27.8422">
        <ele>333.7</ele>
      </trkpt>
      <trkpt lat="37.06093" lon="27.84221">
        <ele>334.6</ele>
      </trkpt>
      <trkpt lat="37.06092" lon="27.84228">
        <ele>334.4</ele>
      </trkpt>
      <trkpt lat="37.06092" lon="27.8423">
        <ele>334.4</ele>
      </trkpt>
      <trkpt lat="37.06092" lon="27.8423">
        <ele>334.4</ele>
      </trkpt>
      <trkpt lat="37.06093" lon="27.84234">
        <ele>334.9</ele>
      </trkpt>
      <trkpt lat="37.06095" lon="27.84238">
        <ele>335.8</ele>
      </trkpt>
      <trkpt lat="37.06095" lon="27.84239">
        <ele>335.8</ele>
      </trkpt>
      <trkpt lat="37.06094" lon="27.84244">
        <ele>335.2</ele>
      </trkpt>
      <trkpt lat="37.06095" lon="27.84248">
        <ele>336</ele>
      </trkpt>
      <trkpt lat="37.06097" lon="27.84252">
        <ele>337</ele>
      </trkpt>
      <trkpt lat="37.06099" lon="27.84253">
        <ele>338.1</ele>
      </trkpt>
      <trkpt lat="37.061" lon="27.84254">
        <ele>339</ele>
      </trkpt>
      <trkpt lat="37.06101" lon="27.84257">
        <ele>339.8</ele>
      </trkpt>
      <trkpt lat="37.06102" lon="27.84257">
        <ele>340.5</ele>
      </trkpt>
      <trkpt lat="37.06104" lon="27.84255">
        <ele>341</ele>
      </trkpt>
      <trkpt lat="37.06106" lon="27.84253">
        <ele>341.8</ele>
      </trkpt>
      <trkpt lat="37.06109" lon="27.84252">
        <ele>343.3</ele>
      </trkpt>
      <trkpt lat="37.0611" lon="27.84257">
        <ele>344.7</ele>
      </trkpt>
      <trkpt lat="37.06114" lon="27.84257">
        <ele>346.6</ele>
      </trkpt>
      <trkpt lat="37.06114" lon="27.84257">
        <ele>346.5</ele>
      </trkpt>
      <trkpt lat="37.06116" lon="27.84257">
        <ele>347.6</ele>
      </trkpt>
      <trkpt lat="37.06122" lon="27.84255">
        <ele>350.1</ele>
      </trkpt>
      <trkpt lat="37.06124" lon="27.84252">
        <ele>351</ele>
      </trkpt>
      <trkpt lat="37.06127" lon="27.84251">
        <ele>352.2</ele>
      </trkpt>
      <trkpt lat="37.0613" lon="27.84253">
        <ele>353.9</ele>
      </trkpt>
      <trkpt lat="37.06131" lon="27.84252">
        <ele>354.4</ele>
      </trkpt>
      <trkpt lat="37.06132" lon="27.84253">
        <ele>355</ele>
      </trkpt>
      <trkpt lat="37.06138" lon="27.84259">
        <ele>359</ele>
      </trkpt>
      <trkpt lat="37.06139" lon="27.84256">
        <ele>359.1</ele>
      </trkpt>
      <trkpt lat="37.06142" lon="27.84263">
        <ele>361.4</ele>
      </trkpt>
      <trkpt lat="37.06142" lon="27.84269">
        <ele>362.4</ele>
      </trkpt>
      <trkpt lat="37.0614" lon="27.84278">
        <ele>362.9</ele>
      </trkpt>
      <trkpt lat="37.06139" lon="27.84284">
        <ele>363.7</ele>
      </trkpt>
      <trkpt lat="37.06139" lon="27.84286">
        <ele>363.7</ele>
      </trkpt>
      <trkpt lat="37.06139" lon="27.84297">
        <ele>365.3</ele>
      </trkpt>
      <trkpt lat="37.06138" lon="27.84297">
        <ele>365.2</ele>
      </trkpt>
      <trkpt lat="37.06135" lon="27.84307">
        <ele>365.2</ele>
      </trkpt>
      <trkpt lat="37.06135" lon="27.84308">
        <ele>365.2</ele>
      </trkpt>
      <trkpt lat="37.06131" lon="27.84315">
        <ele>364.5</ele>
      </trkpt>
      <trkpt lat="37.06127" lon="27.84323">
        <ele>363.5</ele>
      </trkpt>
      <trkpt lat="37.06127" lon="27.84331">
        <ele>364.4</ele>
      </trkpt>
      <trkpt lat="37.06126" lon="27.84332">
        <ele>364.6</ele>
      </trkpt>
      <trkpt lat="37.06126" lon="27.84333">
        <ele>364.6</ele>
      </trkpt>
      <trkpt lat="37.06124" lon="27.84339">
        <ele>364.3</ele>
      </trkpt>
      <trkpt lat="37.06124" lon="27.84354">
        <ele>366.3</ele>
      </trkpt>
      <trkpt lat="37.06123" lon="27.84356">
        <ele>366.1</ele>
      </trkpt>
      <trkpt lat="37.06123" lon="27.84357">
        <ele>366.2</ele>
      </trkpt>
      <trkpt lat="37.06127" lon="27.84356">
        <ele>368.3</ele>
      </trkpt>
      <trkpt lat="37.06129" lon="27.84357">
        <ele>369.2</ele>
      </trkpt>
      <trkpt lat="37.06129" lon="27.84361">
        <ele>369.8</ele>
      </trkpt>
      <trkpt lat="37.06129" lon="27.84368">
        <ele>370.8</ele>
      </trkpt>
      <trkpt lat="37.06131" lon="27.84372">
        <ele>372.3</ele>
      </trkpt>
      <trkpt lat="37.06135" lon="27.8438">
        <ele>375.4</ele>
      </trkpt>
      <trkpt lat="37.06136" lon="27.84382">
        <ele>376.1</ele>
      </trkpt>
      <trkpt lat="37.06138" lon="27.84385">
        <ele>377.5</ele>
      </trkpt>
      <trkpt lat="37.06139" lon="27.8439">
        <ele>378.7</ele>
      </trkpt>
      <trkpt lat="37.06139" lon="27.84393">
        <ele>379.1</ele>
      </trkpt>
      <trkpt lat="37.06141" lon="27.84399">
        <ele>380.8</ele>
      </trkpt>
      <trkpt lat="37.06144" lon="27.84404">
        <ele>382.9</ele>
      </trkpt>
      <trkpt lat="37.06146" lon="27.84408">
        <ele>384.3</ele>
      </trkpt>
      <trkpt lat="37.06143" lon="27.84412">
        <ele>383.4</ele>
      </trkpt>
      <trkpt lat="37.06145" lon="27.84414">
        <ele>384.4</ele>
      </trkpt>
      <trkpt lat="37.06145" lon="27.84414">
        <ele>384.6</ele>
      </trkpt>
      <trkpt lat="37.06145" lon="27.84414">
        <ele>384.5</ele>
      </trkpt>
      <trkpt lat="37.06145" lon="27.84422">
        <ele>385.3</ele>
      </trkpt>
      <trkpt lat="37.06147" lon="27.84429">
        <ele>386.5</ele>
      </trkpt>
      <trkpt lat="37.0615" lon="27.84438">
        <ele>388.3</ele>
      </trkpt>
      <trkpt lat="37.0615" lon="27.84439">
        <ele>388.4</ele>
      </trkpt>
      <trkpt lat="37.06154" lon="27.84444">
        <ele>390.2</ele>
      </trkpt>
      <trkpt lat="37.06157" lon="27.84447">
        <ele>391.8</ele>
      </trkpt>
      <trkpt lat="37.06157" lon="27.84448">
        <ele>391.9</ele>
      </trkpt>
      <trkpt lat="37.06157" lon="27.84453">
        <ele>392.1</ele>
      </trkpt>
      <trkpt lat="37.0616" lon="27.84457">
        <ele>393</ele>
      </trkpt>
      <trkpt lat="37.06162" lon="27.84462">
        <ele>393.9</ele>
      </trkpt>
      <trkpt lat="37.06163" lon="27.84466">
        <ele>394.5</ele>
      </trkpt>
      <trkpt lat="37.06164" lon="27.84467">
        <ele>394.9</ele>
      </trkpt>
      <trkpt lat="37.06168" lon="27.84471">
        <ele>396.3</ele>
      </trkpt>
      <trkpt lat="37.06168" lon="27.84471">
        <ele>396.3</ele>
      </trkpt>
      <trkpt lat="37.06169" lon="27.84474">
        <ele>396.8</ele>
      </trkpt>
      <trkpt lat="37.06169" lon="27.84475">
        <ele>396.9</ele>
      </trkpt>
      <trkpt lat="37.06168" lon="27.8448">
        <ele>396.2</ele>
      </trkpt>
      <trkpt lat="37.06172" lon="27.84486">
        <ele>398.1</ele>
      </trkpt>
      <trkpt lat="37.06176" lon="27.84491">
        <ele>400</ele>
      </trkpt>
      <trkpt lat="37.06178" lon="27.84494">
        <ele>400.7</ele>
      </trkpt>
      <trkpt lat="37.06179" lon="27.84495">
        <ele>401.1</ele>
      </trkpt>
      <trkpt lat="37.0618" lon="27.845">
        <ele>401.5</ele>
      </trkpt>
      <trkpt lat="37.06179" lon="27.84504">
        <ele>401.7</ele>
      </trkpt>
      <trkpt lat="37.0618" lon="27.8451">
        <ele>403.2</ele>
      </trkpt>
      <trkpt lat="37.0618" lon="27.84516">
        <ele>404.6</ele>
      </trkpt>
      <trkpt lat="37.0618" lon="27.84519">
        <ele>404.8</ele>
      </trkpt>
      <trkpt lat="37.0618" lon="27.84523">
        <ele>405.5</ele>
      </trkpt>
      <trkpt lat="37.06182" lon="27.84527">
        <ele>406.9</ele>
      </trkpt>
      <trkpt lat="37.06181" lon="27.84532">
        <ele>407.4</ele>
      </trkpt>
      <trkpt lat="37.0618" lon="27.84539">
        <ele>408.1</ele>
      </trkpt>
      <trkpt lat="37.06183" lon="27.84548">
        <ele>410.7</ele>
      </trkpt>
      <trkpt lat="37.06182" lon="27.84551">
        <ele>411.1</ele>
      </trkpt>
      <trkpt lat="37.0618" lon="27.84559">
        <ele>411.8</ele>
      </trkpt>
      <trkpt lat="37.06172" lon="27.84567">
        <ele>410.6</ele>
      </trkpt>
      <trkpt lat="37.06172" lon="27.84571">
        <ele>411.1</ele>
      </trkpt>
      <trkpt lat="37.06169" lon="27.8457">
        <ele>410.2</ele>
      </trkpt>
      <trkpt lat="37.06165" lon="27.84575">
        <ele>410.2</ele>
      </trkpt>
      <trkpt lat="37.06163" lon="27.84576">
        <ele>409.9</ele>
      </trkpt>
      <trkpt lat="37.06158" lon="27.84581">
        <ele>410.1</ele>
      </trkpt>
      <trkpt lat="37.06153" lon="27.84582">
        <ele>409.5</ele>
      </trkpt>
      <trkpt lat="37.06152" lon="27.84585">
        <ele>410.1</ele>
      </trkpt>
      <trkpt lat="37.06157" lon="27.84592">
        <ele>412.9</ele>
      </trkpt>
      <trkpt lat="37.06162" lon="27.84594">
        <ele>414.3</ele>
      </trkpt>
      <trkpt lat="37.06166" lon="27.84598">
        <ele>416.2</ele>
      </trkpt>
      <trkpt lat="37.06169" lon="27.84609">
        <ele>420.2</ele>
      </trkpt>
      <trkpt lat="37.06167" lon="27.84611">
        <ele>420.3</ele>
      </trkpt>
      <trkpt lat="37.06169" lon="27.84613">
        <ele>421.5</ele>
      </trkpt>
      <trkpt lat="37.06178" lon="27.8462">
        <ele>425.4</ele>
      </trkpt>
      <trkpt lat="37.0618" lon="27.84625">
        <ele>427.3</ele>
      </trkpt>
      <trkpt lat="37.06182" lon="27.84625">
        <ele>427.5</ele>
      </trkpt>
      <trkpt lat="37.06188" lon="27.84631">
        <ele>430.3</ele>
      </trkpt>
      <trkpt lat="37.06191" lon="27.84636">
        <ele>432</ele>
      </trkpt>
      <trkpt lat="37.06192" lon="27.84642">
        <ele>433.6</ele>
      </trkpt>
      <trkpt lat="37.06191" lon="27.84645">
        <ele>434.3</ele>
      </trkpt>
      <trkpt lat="37.0619" lon="27.84646">
        <ele>434.4</ele>
      </trkpt>
      <trkpt lat="37.06188" lon="27.84647">
        <ele>434.3</ele>
      </trkpt>
      <trkpt lat="37.06182" lon="27.84647">
        <ele>433.4</ele>
      </trkpt>
      <trkpt lat="37.06177" lon="27.84645">
        <ele>432</ele>
      </trkpt>
      <trkpt lat="37.06173" lon="27.84642">
        <ele>430.6</ele>
      </trkpt>
      <trkpt lat="37.06172" lon="27.84648">
        <ele>432.1</ele>
      </trkpt>
      <trkpt lat="37.06173" lon="27.84655">
        <ele>434.3</ele>
      </trkpt>
      <trkpt lat="37.0618" lon="27.84656">
        <ele>435.5</ele>
      </trkpt>
      <trkpt lat="37.0618" lon="27.84657">
        <ele>435.8</ele>
      </trkpt>
      <trkpt lat="37.06179" lon="27.84661">
        <ele>436.7</ele>
      </trkpt>
      <trkpt lat="37.0618" lon="27.84666">
        <ele>438.4</ele>
      </trkpt>
      <trkpt lat="37.06182" lon="27.84672">
        <ele>439.2</ele>
      </trkpt>
      <trkpt lat="37.06182" lon="27.84674">
        <ele>439.5</ele>
      </trkpt>
      <trkpt lat="37.06179" lon="27.84673">
        <ele>439</ele>
      </trkpt>
      <trkpt lat="37.06178" lon="27.84676">
        <ele>439.2</ele>
      </trkpt>
      <trkpt lat="37.06179" lon="27.84673">
        <ele>439.1</ele>
      </trkpt>
      <trkpt lat="37.0618" lon="27.84675">
        <ele>439.5</ele>
      </trkpt>
      <trkpt lat="37.0618" lon="27.84676">
        <ele>439.4</ele>
      </trkpt>
      <trkpt lat="37.06174" lon="27.84673">
        <ele>438.5</ele>
      </trkpt>
      <trkpt lat="37.06172" lon="27.84674">
        <ele>438.4</ele>
      </trkpt>
      <trkpt lat="37.06175" lon="27.84677">
        <ele>439.1</ele>
      </trkpt>
      <trkpt lat="37.06175" lon="27.84677">
        <ele>439.1</ele>
      </trkpt>
      <trkpt lat="37.06178" lon="27.84678">
        <ele>439.6</ele>
      </trkpt>
      <trkpt lat="37.0618" lon="27.84681">
        <ele>440.1</ele>
      </trkpt>
      <trkpt lat="37.06184" lon="27.84682">
        <ele>440.6</ele>
      </trkpt>
      <trkpt lat="37.06185" lon="27.84683">
        <ele>440.8</ele>
      </trkpt>
      <trkpt lat="37.06186" lon="27.84684">
        <ele>441</ele>
      </trkpt>
      <trkpt lat="37.06189" lon="27.84683">
        <ele>441.3</ele>
      </trkpt>
      <trkpt lat="37.06193" lon="27.84688">
        <ele>442.2</ele>
      </trkpt>
      <trkpt lat="37.06194" lon="27.84688">
        <ele>442.4</ele>
      </trkpt>
      <trkpt lat="37.062" lon="27.84691">
        <ele>443.2</ele>
      </trkpt>
      <trkpt lat="37.06203" lon="27.8469">
        <ele>443.4</ele>
      </trkpt>
      <trkpt lat="37.06206" lon="27.84689">
        <ele>443.6</ele>
      </trkpt>
      <trkpt lat="37.06209" lon="27.84688">
        <ele>443.8</ele>
      </trkpt>
      <trkpt lat="37.06209" lon="27.84689">
        <ele>443.9</ele>
      </trkpt>
      <trkpt lat="37.06214" lon="27.84685">
        <ele>444</ele>
      </trkpt>
      <trkpt lat="37.06217" lon="27.84686">
        <ele>444.5</ele>
      </trkpt>
      <trkpt lat="37.06215" lon="27.84686">
        <ele>444.2</ele>
      </trkpt>
      <trkpt lat="37.06215" lon="27.84686">
        <ele>444.2</ele>
      </trkpt>
      <trkpt lat="37.06219" lon="27.84685">
        <ele>444.6</ele>
      </trkpt>
      <trkpt lat="37.0622" lon="27.84682">
        <ele>444.4</ele>
      </trkpt>
      <trkpt lat="37.06219" lon="27.84681">
        <ele>444.2</ele>
      </trkpt>
      <trkpt lat="37.06221" lon="27.84678">
        <ele>444.1</ele>
      </trkpt>
      <trkpt lat="37.06225" lon="27.8468">
        <ele>444.7</ele>
      </trkpt>
      <trkpt lat="37.06225" lon="27.8468">
        <ele>444.7</ele>
      </trkpt>
      <trkpt lat="37.06225" lon="27.8468">
        <ele>444.7</ele>
      </trkpt>
      <trkpt lat="37.06225" lon="27.84679">
        <ele>444.5</ele>
      </trkpt>
      <trkpt lat="37.0622" lon="27.84682">
        <ele>444.4</ele>
      </trkpt>
      <trkpt lat="37.06224" lon="27.84686">
        <ele>445.1</ele>
      </trkpt>
      <trkpt lat="37.06224" lon="27.84686">
        <ele>445.2</ele>
      </trkpt>
      <trkpt lat="37.06228" lon="27.84688">
        <ele>445.8</ele>
      </trkpt>
      <trkpt lat="37.06229" lon="27.84688">
        <ele>445.9</ele>
      </trkpt>
      <trkpt lat="37.06232" lon="27.84688">
        <ele>446.2</ele>
      </trkpt>
      <trkpt lat="37.06232" lon="27.84688">
        <ele>446.2</ele>
      </trkpt>
      <trkpt lat="37.06233" lon="27.84688">
        <ele>446.3</ele>
      </trkpt>
      <trkpt lat="37.06234" lon="27.84692">
        <ele>446.8</ele>
      </trkpt>
      <trkpt lat="37.06237" lon="27.84692">
        <ele>447.1</ele>
      </trkpt>
      <trkpt lat="37.06237" lon="27.84692">
        <ele>447.1</ele>
      </trkpt>
      <trkpt lat="37.0624" lon="27.84692">
        <ele>447.4</ele>
      </trkpt>
      <trkpt lat="37.0624" lon="27.84692">
        <ele>447.4</ele>
      </trkpt>
      <trkpt lat="37.06242" lon="27.84694">
        <ele>447.8</ele>
      </trkpt>
      <trkpt lat="37.06246" lon="27.84698">
        <ele>448.6</ele>
      </trkpt>
      <trkpt lat="37.06248" lon="27.84702">
        <ele>449.2</ele>
      </trkpt>
      <trkpt lat="37.06245" lon="27.84701">
        <ele>448.8</ele>
      </trkpt>
      <trkpt lat="37.06241" lon="27.847">
        <ele>448.4</ele>
      </trkpt>
      <trkpt lat="37.06236" lon="27.847">
        <ele>447.8</ele>
      </trkpt>
      <trkpt lat="37.06229" lon="27.847">
        <ele>447.1</ele>
      </trkpt>
      <trkpt lat="37.06224" lon="27.84701">
        <ele>446.7</ele>
      </trkpt>
      <trkpt lat="37.06219" lon="27.84703">
        <ele>446.4</ele>
      </trkpt>
      <trkpt lat="37.06213" lon="27.84705">
        <ele>446.1</ele>
      </trkpt>
      <trkpt lat="37.06207" lon="27.84708">
        <ele>445.7</ele>
      </trkpt>
      <trkpt lat="37.06198" lon="27.84714">
        <ele>445.6</ele>
      </trkpt>
      <trkpt lat="37.06192" lon="27.84729">
        <ele>446.7</ele>
      </trkpt>
      <trkpt lat="37.0619" lon="27.84748">
        <ele>448.7</ele>
      </trkpt>
      <trkpt lat="37.06184" lon="27.84767">
        <ele>449.6</ele>
      </trkpt>
      <trkpt lat="37.06178" lon="27.84778">
        <ele>450.1</ele>
      </trkpt>
      <trkpt lat="37.06164" lon="27.84788">
        <ele>450.1</ele>
      </trkpt>
      <trkpt lat="37.06152" lon="27.84797">
        <ele>448.6</ele>
      </trkpt>
      <trkpt lat="37.06145" lon="27.84805">
        <ele>448.1</ele>
      </trkpt>
      <trkpt lat="37.06137" lon="27.84813">
        <ele>447.7</ele>
      </trkpt>
      <trkpt lat="37.06125" lon="27.84823">
        <ele>446.9</ele>
      </trkpt>
      <trkpt lat="37.06111" lon="27.84827">
        <ele>445.3</ele>
      </trkpt>
      <trkpt lat="37.06103" lon="27.84828">
        <ele>444.2</ele>
      </trkpt>
      <trkpt lat="37.06094" lon="27.8483">
        <ele>443.1</ele>
      </trkpt>
      <trkpt lat="37.06083" lon="27.84833">
        <ele>441.9</ele>
      </trkpt>
      <trkpt lat="37.06076" lon="27.84838">
        <ele>439.7</ele>
      </trkpt>
      <trkpt lat="37.06069" lon="27.84843">
        <ele>437.5</ele>
      </trkpt>
      <trkpt lat="37.06066" lon="27.84849">
        <ele>436.6</ele>
      </trkpt>
      <trkpt lat="37.06066" lon="27.84862">
        <ele>436.8</ele>
      </trkpt>
      <trkpt lat="37.06065" lon="27.84876">
        <ele>437</ele>
      </trkpt>
      <trkpt lat="37.0606" lon="27.84888">
        <ele>435.9</ele>
      </trkpt>
      <trkpt lat="37.06055" lon="27.84894">
        <ele>435</ele>
      </trkpt>
      <trkpt lat="37.06048" lon="27.84903">
        <ele>433.9</ele>
      </trkpt>
      <trkpt lat="37.06045" lon="27.84907">
        <ele>433.5</ele>
      </trkpt>
      <trkpt lat="37.06045" lon="27.84907">
        <ele>433.5</ele>
      </trkpt>
      <trkpt lat="37.06044" lon="27.84908">
        <ele>433.5</ele>
      </trkpt>
      <trkpt lat="37.06045" lon="27.84908">
        <ele>433.5</ele>
      </trkpt>
      <trkpt lat="37.06044" lon="27.84908">
        <ele>433.5</ele>
      </trkpt>
      <trkpt lat="37.06044" lon="27.8491">
        <ele>433.6</ele>
      </trkpt>
      <trkpt lat="37.06044" lon="27.84909">
        <ele>433.5</ele>
      </trkpt>
      <trkpt lat="37.06044" lon="27.8491">
        <ele>433.6</ele>
      </trkpt>
      <trkpt lat="37.06044" lon="27.8491">
        <ele>433.5</ele>
      </trkpt>
      <trkpt lat="37.06045" lon="27.8491">
        <ele>433.6</ele>
      </trkpt>
      <trkpt lat="37.06045" lon="27.84909">
        <ele>433.6</ele>
      </trkpt>
      <trkpt lat="37.06045" lon="27.84908">
        <ele>433.6</ele>
      </trkpt>
      <trkpt lat="37.06045" lon="27.84907">
        <ele>433.6</ele>
      </trkpt>
      <trkpt lat="37.06045" lon="27.84906">
        <ele>433.6</ele>
      </trkpt>
      <trkpt lat="37.06044" lon="27.84909">
        <ele>433.4</ele>
      </trkpt>
      <trkpt lat="37.06036" lon="27.84918">
        <ele>432.4</ele>
      </trkpt>
      <trkpt lat="37.06028" lon="27.84925">
        <ele>430.4</ele>
      </trkpt>
      <trkpt lat="37.06023" lon="27.84929">
        <ele>429.4</ele>
      </trkpt>
      <trkpt lat="37.06012" lon="27.84934">
        <ele>427.7</ele>
      </trkpt>
      <trkpt lat="37.06002" lon="27.8494">
        <ele>426.5</ele>
      </trkpt>
      <trkpt lat="37.05996" lon="27.84944">
        <ele>425.9</ele>
      </trkpt>
      <trkpt lat="37.05991" lon="27.84947">
        <ele>425.6</ele>
      </trkpt>
      <trkpt lat="37.05987" lon="27.8495">
        <ele>425.4</ele>
      </trkpt>
      <trkpt lat="37.05984" lon="27.84953">
        <ele>425.3</ele>
      </trkpt>
      <trkpt lat="37.05978" lon="27.84961">
        <ele>425.6</ele>
      </trkpt>
      <trkpt lat="37.0597" lon="27.84974">
        <ele>426.5</ele>
      </trkpt>
      <trkpt lat="37.05963" lon="27.84983">
        <ele>427.5</ele>
      </trkpt>
      <trkpt lat="37.05957" lon="27.84989">
        <ele>428.6</ele>
      </trkpt>
      <trkpt lat="37.05951" lon="27.84997">
        <ele>430</ele>
      </trkpt>
      <trkpt lat="37.05948" lon="27.85002">
        <ele>430.6</ele>
      </trkpt>
      <trkpt lat="37.05947" lon="27.85004">
        <ele>430.5</ele>
      </trkpt>
      <trkpt lat="37.05945" lon="27.85005">
        <ele>430.5</ele>
      </trkpt>
      <trkpt lat="37.05941" lon="27.85008">
        <ele>430.6</ele>
      </trkpt>
      <trkpt lat="37.05936" lon="27.85011">
        <ele>430.8</ele>
      </trkpt>
      <trkpt lat="37.05929" lon="27.85017">
        <ele>430.9</ele>
      </trkpt>
      <trkpt lat="37.05924" lon="27.8502">
        <ele>431.1</ele>
      </trkpt>
      <trkpt lat="37.05917" lon="27.85025">
        <ele>431.5</ele>
      </trkpt>
      <trkpt lat="37.05911" lon="27.85027">
        <ele>431.8</ele>
      </trkpt>
      <trkpt lat="37.05904" lon="27.85029">
        <ele>432.4</ele>
      </trkpt>
      <trkpt lat="37.05897" lon="27.85029">
        <ele>433</ele>
      </trkpt>
      <trkpt lat="37.05892" lon="27.85029">
        <ele>433.4</ele>
      </trkpt>
      <trkpt lat="37.05885" lon="27.85027">
        <ele>434</ele>
      </trkpt>
      <trkpt lat="37.0588" lon="27.85025">
        <ele>434.3</ele>
      </trkpt>
      <trkpt lat="37.05875" lon="27.85023">
        <ele>434.7</ele>
      </trkpt>
      <trkpt lat="37.05869" lon="27.85021">
        <ele>435.1</ele>
      </trkpt>
      <trkpt lat="37.05861" lon="27.85023">
        <ele>435.7</ele>
      </trkpt>
      <trkpt lat="37.05856" lon="27.85023">
        <ele>436</ele>
      </trkpt>
      <trkpt lat="37.0585" lon="27.85021">
        <ele>436.4</ele>
      </trkpt>
      <trkpt lat="37.05842" lon="27.8502">
        <ele>436.8</ele>
      </trkpt>
      <trkpt lat="37.05834" lon="27.8502">
        <ele>437.3</ele>
      </trkpt>
      <trkpt lat="37.0583" lon="27.85019">
        <ele>437.4</ele>
      </trkpt>
      <trkpt lat="37.05826" lon="27.85019">
        <ele>437.3</ele>
      </trkpt>
      <trkpt lat="37.05823" lon="27.85019">
        <ele>437.3</ele>
      </trkpt>
      <trkpt lat="37.0582" lon="27.85018">
        <ele>437.3</ele>
      </trkpt>
      <trkpt lat="37.05816" lon="27.85017">
        <ele>437.2</ele>
      </trkpt>
      <trkpt lat="37.05812" lon="27.85016">
        <ele>437.1</ele>
      </trkpt>
      <trkpt lat="37.05799" lon="27.85018">
        <ele>437.4</ele>
      </trkpt>
      <trkpt lat="37.0579" lon="27.85021">
        <ele>438</ele>
      </trkpt>
      <trkpt lat="37.0578" lon="27.85028">
        <ele>439</ele>
      </trkpt>
      <trkpt lat="37.05771" lon="27.85037">
        <ele>440.4</ele>
      </trkpt>
      <trkpt lat="37.05765" lon="27.85041">
        <ele>441.2</ele>
      </trkpt>
      <trkpt lat="37.05761" lon="27.85045">
        <ele>441.8</ele>
      </trkpt>
      <trkpt lat="37.05758" lon="27.85046">
        <ele>442.1</ele>
      </trkpt>
      <trkpt lat="37.05751" lon="27.85049">
        <ele>442.7</ele>
      </trkpt>
      <trkpt lat="37.05742" lon="27.85054">
        <ele>442.5</ele>
      </trkpt>
      <trkpt lat="37.05732" lon="27.85057">
        <ele>442</ele>
      </trkpt>
      <trkpt lat="37.0572" lon="27.8506">
        <ele>441.2</ele>
      </trkpt>
      <trkpt lat="37.05707" lon="27.85059">
        <ele>439.6</ele>
      </trkpt>
      <trkpt lat="37.05696" lon="27.85055">
        <ele>438.1</ele>
      </trkpt>
      <trkpt lat="37.05687" lon="27.85052">
        <ele>436.7</ele>
      </trkpt>
      <trkpt lat="37.05678" lon="27.85049">
        <ele>435.3</ele>
      </trkpt>
      <trkpt lat="37.05668" lon="27.85043">
        <ele>433.8</ele>
      </trkpt>
      <trkpt lat="37.05659" lon="27.85035">
        <ele>432.9</ele>
      </trkpt>
      <trkpt lat="37.05651" lon="27.85025">
        <ele>431.9</ele>
      </trkpt>
      <trkpt lat="37.05645" lon="27.85019">
        <ele>431.2</ele>
      </trkpt>
      <trkpt lat="37.05634" lon="27.85012">
        <ele>430.5</ele>
      </trkpt>
      <trkpt lat="37.05624" lon="27.85011">
        <ele>430.4</ele>
      </trkpt>
      <trkpt lat="37.05618" lon="27.85012">
        <ele>430.6</ele>
      </trkpt>
      <trkpt lat="37.05615" lon="27.85013">
        <ele>430.7</ele>
      </trkpt>
      <trkpt lat="37.0561" lon="27.85015">
        <ele>431</ele>
      </trkpt>
      <trkpt lat="37.05607" lon="27.85016">
        <ele>431.2</ele>
      </trkpt>
      <trkpt lat="37.05606" lon="27.85017">
        <ele>431.2</ele>
      </trkpt>
      <trkpt lat="37.05605" lon="27.85016">
        <ele>431.2</ele>
      </trkpt>
      <trkpt lat="37.05604" lon="27.85016">
        <ele>431.1</ele>
      </trkpt>
      <trkpt lat="37.05602" lon="27.85015">
        <ele>431.1</ele>
      </trkpt>
      <trkpt lat="37.05599" lon="27.85015">
        <ele>431</ele>
      </trkpt>
      <trkpt lat="37.05596" lon="27.85014">
        <ele>431</ele>
      </trkpt>
      <trkpt lat="37.05587" lon="27.85016">
        <ele>431.3</ele>
      </trkpt>
      <trkpt lat="37.0558" lon="27.85017">
        <ele>431.5</ele>
      </trkpt>
      <trkpt lat="37.05573" lon="27.85019">
        <ele>432.1</ele>
      </trkpt>
      <trkpt lat="37.05568" lon="27.85021">
        <ele>432.4</ele>
      </trkpt>
      <trkpt lat="37.05557" lon="27.85026">
        <ele>433.4</ele>
      </trkpt>
      <trkpt lat="37.05548" lon="27.85033">
        <ele>434.7</ele>
      </trkpt>
      <trkpt lat="37.05542" lon="27.85039">
        <ele>435.8</ele>
      </trkpt>
      <trkpt lat="37.05533" lon="27.85047">
        <ele>437.2</ele>
      </trkpt>
      <trkpt lat="37.05524" lon="27.85052">
        <ele>438.4</ele>
      </trkpt>
      <trkpt lat="37.05518" lon="27.8506">
        <ele>439.8</ele>
      </trkpt>
      <trkpt lat="37.05514" lon="27.85066">
        <ele>440.9</ele>
      </trkpt>
      <trkpt lat="37.05512" lon="27.85071">
        <ele>441.7</ele>
      </trkpt>
      <trkpt lat="37.0551" lon="27.85073">
        <ele>442.1</ele>
      </trkpt>
      <trkpt lat="37.0551" lon="27.85073">
        <ele>442.1</ele>
      </trkpt>
      <trkpt lat="37.0551" lon="27.85074">
        <ele>442.2</ele>
      </trkpt>
      <trkpt lat="37.05509" lon="27.85075">
        <ele>442.3</ele>
      </trkpt>
      <trkpt lat="37.05509" lon="27.85076">
        <ele>442.5</ele>
      </trkpt>
      <trkpt lat="37.05508" lon="27.85076">
        <ele>442.6</ele>
      </trkpt>
      <trkpt lat="37.05507" lon="27.85077">
        <ele>442.8</ele>
      </trkpt>
      <trkpt lat="37.05507" lon="27.85078">
        <ele>442.9</ele>
      </trkpt>
      <trkpt lat="37.05507" lon="27.85078">
        <ele>442.9</ele>
      </trkpt>
      <trkpt lat="37.05507" lon="27.85078">
        <ele>442.9</ele>
      </trkpt>
      <trkpt lat="37.05507" lon="27.85077">
        <ele>442.8</ele>
      </trkpt>
      <trkpt lat="37.05508" lon="27.85076">
        <ele>442.6</ele>
      </trkpt>
      <trkpt lat="37.05508" lon="27.85075">
        <ele>442.4</ele>
      </trkpt>
      <trkpt lat="37.05509" lon="27.85074">
        <ele>442.3</ele>
      </trkpt>
      <trkpt lat="37.05509" lon="27.85074">
        <ele>442.2</ele>
      </trkpt>
      <trkpt lat="37.05509" lon="27.85073">
        <ele>442</ele>
      </trkpt>
      <trkpt lat="37.0551" lon="27.85072">
        <ele>441.8</ele>
      </trkpt>
      <trkpt lat="37.0551" lon="27.85071">
        <ele>441.7</ele>
      </trkpt>
      <trkpt lat="37.0551" lon="27.85073">
        <ele>442</ele>
      </trkpt>
      <trkpt lat="37.05508" lon="27.85078">
        <ele>442.8</ele>
      </trkpt>
      <trkpt lat="37.05503" lon="27.85089">
        <ele>443.1</ele>
      </trkpt>
      <trkpt lat="37.05497" lon="27.85098">
        <ele>441.6</ele>
      </trkpt>
      <trkpt lat="37.05492" lon="27.85105">
        <ele>440.4</ele>
      </trkpt>
      <trkpt lat="37.05486" lon="27.85112">
        <ele>439.2</ele>
      </trkpt>
      <trkpt lat="37.05479" lon="27.85119">
        <ele>438.3</ele>
      </trkpt>
      <trkpt lat="37.05467" lon="27.85124">
        <ele>437.5</ele>
      </trkpt>
      <trkpt lat="37.05453" lon="27.85122">
        <ele>437.6</ele>
      </trkpt>
      <trkpt lat="37.05437" lon="27.85122">
        <ele>437.4</ele>
      </trkpt>
      <trkpt lat="37.05426" lon="27.85123">
        <ele>437.3</ele>
      </trkpt>
      <trkpt lat="37.05412" lon="27.85126">
        <ele>436.8</ele>
      </trkpt>
      <trkpt lat="37.05403" lon="27.85128">
        <ele>436.5</ele>
      </trkpt>
      <trkpt lat="37.05396" lon="27.8513">
        <ele>436.3</ele>
      </trkpt>
      <trkpt lat="37.05388" lon="27.85132">
        <ele>436.2</ele>
      </trkpt>
      <trkpt lat="37.05376" lon="27.8513">
        <ele>436</ele>
      </trkpt>
      <trkpt lat="37.05366" lon="27.85126">
        <ele>435.8</ele>
      </trkpt>
      <trkpt lat="37.0536" lon="27.85124">
        <ele>435.6</ele>
      </trkpt>
      <trkpt lat="37.05351" lon="27.85123">
        <ele>435.3</ele>
      </trkpt>
      <trkpt lat="37.05344" lon="27.85123">
        <ele>435.1</ele>
      </trkpt>
      <trkpt lat="37.05338" lon="27.85123">
        <ele>435</ele>
      </trkpt>
      <trkpt lat="37.05327" lon="27.85122">
        <ele>435</ele>
      </trkpt>
      <trkpt lat="37.05316" lon="27.85121">
        <ele>435.2</ele>
      </trkpt>
      <trkpt lat="37.05309" lon="27.8512">
        <ele>435.4</ele>
      </trkpt>
      <trkpt lat="37.05301" lon="27.85121">
        <ele>435.7</ele>
      </trkpt>
      <trkpt lat="37.05297" lon="27.85123">
        <ele>436.1</ele>
      </trkpt>
      <trkpt lat="37.05298" lon="27.85123">
        <ele>436</ele>
      </trkpt>
      <trkpt lat="37.05299" lon="27.85123">
        <ele>436</ele>
      </trkpt>
      <trkpt lat="37.05299" lon="27.85123">
        <ele>436</ele>
      </trkpt>
      <trkpt lat="37.053" lon="27.85123">
        <ele>435.9</ele>
      </trkpt>
      <trkpt lat="37.053" lon="27.85123">
        <ele>435.9</ele>
      </trkpt>
      <trkpt lat="37.053" lon="27.85123">
        <ele>435.9</ele>
      </trkpt>
      <trkpt lat="37.053" lon="27.85123">
        <ele>436</ele>
      </trkpt>
      <trkpt lat="37.053" lon="27.85123">
        <ele>436</ele>
      </trkpt>
      <trkpt lat="37.05299" lon="27.85124">
        <ele>436.1</ele>
      </trkpt>
      <trkpt lat="37.05298" lon="27.85124">
        <ele>436.2</ele>
      </trkpt>
      <trkpt lat="37.05294" lon="27.85126">
        <ele>436.5</ele>
      </trkpt>
      <trkpt lat="37.05289" lon="27.85128">
        <ele>436.9</ele>
      </trkpt>
      <trkpt lat="37.05281" lon="27.8513">
        <ele>437.6</ele>
      </trkpt>
      <trkpt lat="37.05272" lon="27.85133">
        <ele>438.3</ele>
      </trkpt>
      <trkpt lat="37.05267" lon="27.85135">
        <ele>438.9</ele>
      </trkpt>
      <trkpt lat="37.05267" lon="27.85135">
        <ele>438.9</ele>
      </trkpt>
      <trkpt lat="37.05267" lon="27.85135">
        <ele>438.9</ele>
      </trkpt>
      <trkpt lat="37.05267" lon="27.85135">
        <ele>438.9</ele>
      </trkpt>
      <trkpt lat="37.05266" lon="27.85135">
        <ele>439</ele>
      </trkpt>
      <trkpt lat="37.05265" lon="27.85135">
        <ele>439</ele>
      </trkpt>
      <trkpt lat="37.05265" lon="27.85135">
        <ele>438.9</ele>
      </trkpt>
      <trkpt lat="37.05265" lon="27.85134">
        <ele>438.8</ele>
      </trkpt>
      <trkpt lat="37.05265" lon="27.85133">
        <ele>438.7</ele>
      </trkpt>
      <trkpt lat="37.05265" lon="27.85133">
        <ele>438.6</ele>
      </trkpt>
      <trkpt lat="37.05266" lon="27.85133">
        <ele>438.6</ele>
      </trkpt>
      <trkpt lat="37.05266" lon="27.85132">
        <ele>438.5</ele>
      </trkpt>
      <trkpt lat="37.05266" lon="27.85131">
        <ele>438.4</ele>
      </trkpt>
      <trkpt lat="37.05267" lon="27.85131">
        <ele>438.3</ele>
      </trkpt>
      <trkpt lat="37.05266" lon="27.85131">
        <ele>438.3</ele>
      </trkpt>
      <trkpt lat="37.05266" lon="27.85131">
        <ele>438.4</ele>
      </trkpt>
      <trkpt lat="37.05264" lon="27.85132">
        <ele>438.5</ele>
      </trkpt>
      <trkpt lat="37.05263" lon="27.85132">
        <ele>438.6</ele>
      </trkpt>
      <trkpt lat="37.05263" lon="27.85132">
        <ele>438.7</ele>
      </trkpt>
      <trkpt lat="37.05263" lon="27.85132">
        <ele>438.7</ele>
      </trkpt>
      <trkpt lat="37.05263" lon="27.85132">
        <ele>438.6</ele>
      </trkpt>
      <trkpt lat="37.05263" lon="27.85132">
        <ele>438.5</ele>
      </trkpt>
      <trkpt lat="37.05263" lon="27.85131">
        <ele>438.4</ele>
      </trkpt>
      <trkpt lat="37.05263" lon="27.85131">
        <ele>438.4</ele>
      </trkpt>
      <trkpt lat="37.05263" lon="27.8513">
        <ele>438.3</ele>
      </trkpt>
      <trkpt lat="37.05263" lon="27.8513">
        <ele>438.3</ele>
      </trkpt>
      <trkpt lat="37.05261" lon="27.8513">
        <ele>438.4</ele>
      </trkpt>
      <trkpt lat="37.05256" lon="27.85132">
        <ele>438.9</ele>
      </trkpt>
      <trkpt lat="37.05246" lon="27.85136">
        <ele>439.8</ele>
      </trkpt>
      <trkpt lat="37.0524" lon="27.85139">
        <ele>440</ele>
      </trkpt>
      <trkpt lat="37.05233" lon="27.85141">
        <ele>440.2</ele>
      </trkpt>
      <trkpt lat="37.05223" lon="27.85144">
        <ele>440.6</ele>
      </trkpt>
      <trkpt lat="37.05212" lon="27.85147">
        <ele>440.9</ele>
      </trkpt>
      <trkpt lat="37.05202" lon="27.85151">
        <ele>441.9</ele>
      </trkpt>
      <trkpt lat="37.05197" lon="27.85154">
        <ele>442.4</ele>
      </trkpt>
      <trkpt lat="37.05196" lon="27.85154">
        <ele>442.4</ele>
      </trkpt>
      <trkpt lat="37.05196" lon="27.85153">
        <ele>442.3</ele>
      </trkpt>
      <trkpt lat="37.05196" lon="27.85154">
        <ele>442.3</ele>
      </trkpt>
      <trkpt lat="37.05196" lon="27.85154">
        <ele>442.3</ele>
      </trkpt>
      <trkpt lat="37.05196" lon="27.85153">
        <ele>442.3</ele>
      </trkpt>
      <trkpt lat="37.05196" lon="27.85154">
        <ele>442.5</ele>
      </trkpt>
      <trkpt lat="37.05196" lon="27.85154">
        <ele>442.5</ele>
      </trkpt>
      <trkpt lat="37.05196" lon="27.85154">
        <ele>442.5</ele>
      </trkpt>
      <trkpt lat="37.05196" lon="27.85154">
        <ele>442.5</ele>
      </trkpt>
      <trkpt lat="37.05196" lon="27.85154">
        <ele>442.5</ele>
      </trkpt>
      <trkpt lat="37.05196" lon="27.85154">
        <ele>442.5</ele>
      </trkpt>
      <trkpt lat="37.05196" lon="27.85155">
        <ele>442.6</ele>
      </trkpt>
      <trkpt lat="37.05196" lon="27.85156">
        <ele>442.8</ele>
      </trkpt>
      <trkpt lat="37.05197" lon="27.85156">
        <ele>442.9</ele>
      </trkpt>
      <trkpt lat="37.05197" lon="27.85157">
        <ele>443.1</ele>
      </trkpt>
      <trkpt lat="37.05198" lon="27.85157">
        <ele>443.2</ele>
      </trkpt>
      <trkpt lat="37.05198" lon="27.85157">
        <ele>443.2</ele>
      </trkpt>
      <trkpt lat="37.05198" lon="27.85157">
        <ele>443.2</ele>
      </trkpt>
      <trkpt lat="37.05198" lon="27.85157">
        <ele>443.1</ele>
      </trkpt>
      <trkpt lat="37.05198" lon="27.85156">
        <ele>443</ele>
      </trkpt>
      <trkpt lat="37.05198" lon="27.85156">
        <ele>442.9</ele>
      </trkpt>
      <trkpt lat="37.05198" lon="27.85156">
        <ele>442.8</ele>
      </trkpt>
      <trkpt lat="37.05198" lon="27.85155">
        <ele>442.7</ele>
      </trkpt>
      <trkpt lat="37.05198" lon="27.85155">
        <ele>442.6</ele>
      </trkpt>
      <trkpt lat="37.05198" lon="27.85154">
        <ele>442.5</ele>
      </trkpt>
      <trkpt lat="37.05198" lon="27.85154">
        <ele>442.5</ele>
      </trkpt>
      <trkpt lat="37.05197" lon="27.85154">
        <ele>442.4</ele>
      </trkpt>
      <trkpt lat="37.05197" lon="27.85154">
        <ele>442.5</ele>
      </trkpt>
      <trkpt lat="37.05195" lon="27.85155">
        <ele>442.7</ele>
      </trkpt>
      <trkpt lat="37.05194" lon="27.85156">
        <ele>442.8</ele>
      </trkpt>
      <trkpt lat="37.05189" lon="27.85157">
        <ele>443.2</ele>
      </trkpt>
      <trkpt lat="37.05182" lon="27.85161">
        <ele>444.2</ele>
      </trkpt>
      <trkpt lat="37.05177" lon="27.85164">
        <ele>445</ele>
      </trkpt>
      <trkpt lat="37.05171" lon="27.85166">
        <ele>445.8</ele>
      </trkpt>
      <trkpt lat="37.05166" lon="27.8517">
        <ele>446.6</ele>
      </trkpt>
      <trkpt lat="37.05163" lon="27.85174">
        <ele>447.1</ele>
      </trkpt>
      <trkpt lat="37.05159" lon="27.85177">
        <ele>447.5</ele>
      </trkpt>
      <trkpt lat="37.05154" lon="27.85185">
        <ele>448.8</ele>
      </trkpt>
      <trkpt lat="37.05152" lon="27.85192">
        <ele>449.9</ele>
      </trkpt>
      <trkpt lat="37.05151" lon="27.85202">
        <ele>451.7</ele>
      </trkpt>
      <trkpt lat="37.05151" lon="27.85209">
        <ele>452.9</ele>
      </trkpt>
      <trkpt lat="37.05151" lon="27.85217">
        <ele>454.4</ele>
      </trkpt>
      <trkpt lat="37.05151" lon="27.85229">
        <ele>456.6</ele>
      </trkpt>
      <trkpt lat="37.0515" lon="27.85241">
        <ele>458.8</ele>
      </trkpt>
      <trkpt lat="37.0515" lon="27.85253">
        <ele>460.7</ele>
      </trkpt>
      <trkpt lat="37.0515" lon="27.85261">
        <ele>461.4</ele>
      </trkpt>
      <trkpt lat="37.0515" lon="27.8527">
        <ele>462.2</ele>
      </trkpt>
      <trkpt lat="37.05149" lon="27.8528">
        <ele>463</ele>
      </trkpt>
      <trkpt lat="37.05147" lon="27.85291">
        <ele>463.9</ele>
      </trkpt>
      <trkpt lat="37.05144" lon="27.85302">
        <ele>464.9</ele>
      </trkpt>
      <trkpt lat="37.05141" lon="27.85317">
        <ele>466.4</ele>
      </trkpt>
      <trkpt lat="37.05137" lon="27.85333">
        <ele>468</ele>
      </trkpt>
      <trkpt lat="37.05133" lon="27.85348">
        <ele>468.5</ele>
      </trkpt>
      <trkpt lat="37.05129" lon="27.85364">
        <ele>469.1</ele>
      </trkpt>
      <trkpt lat="37.05127" lon="27.85373">
        <ele>469.3</ele>
      </trkpt>
      <trkpt lat="37.05125" lon="27.85385">
        <ele>469.7</ele>
      </trkpt>
      <trkpt lat="37.05123" lon="27.85393">
        <ele>470</ele>
      </trkpt>
      <trkpt lat="37.05122" lon="27.854">
        <ele>470.3</ele>
      </trkpt>
      <trkpt lat="37.05121" lon="27.85408">
        <ele>470.5</ele>
      </trkpt>
      <trkpt lat="37.0512" lon="27.85411">
        <ele>470.7</ele>
      </trkpt>
      <trkpt lat="37.0512" lon="27.85414">
        <ele>470.7</ele>
      </trkpt>
      <trkpt lat="37.0512" lon="27.85415">
        <ele>470.8</ele>
      </trkpt>
      <trkpt lat="37.05119" lon="27.85416">
        <ele>470.8</ele>
      </trkpt>
      <trkpt lat="37.05119" lon="27.85417">
        <ele>470.9</ele>
      </trkpt>
      <trkpt lat="37.05119" lon="27.85418">
        <ele>470.9</ele>
      </trkpt>
      <trkpt lat="37.05119" lon="27.85418">
        <ele>470.9</ele>
      </trkpt>
      <trkpt lat="37.05119" lon="27.85417">
        <ele>470.9</ele>
      </trkpt>
      <trkpt lat="37.05119" lon="27.85417">
        <ele>470.8</ele>
      </trkpt>
      <trkpt lat="37.05119" lon="27.85416">
        <ele>470.8</ele>
      </trkpt>
      <trkpt lat="37.0512" lon="27.85416">
        <ele>470.8</ele>
      </trkpt>
      <trkpt lat="37.0512" lon="27.85416">
        <ele>470.8</ele>
      </trkpt>
      <trkpt lat="37.0512" lon="27.85416">
        <ele>470.8</ele>
      </trkpt>
      <trkpt lat="37.05119" lon="27.85416">
        <ele>470.8</ele>
      </trkpt>
      <trkpt lat="37.05119" lon="27.85416">
        <ele>470.8</ele>
      </trkpt>
      <trkpt lat="37.05119" lon="27.85416">
        <ele>470.8</ele>
      </trkpt>
      <trkpt lat="37.05119" lon="27.85416">
        <ele>470.8</ele>
      </trkpt>
      <trkpt lat="37.05119" lon="27.85416">
        <ele>470.8</ele>
      </trkpt>
      <trkpt lat="37.05119" lon="27.85416">
        <ele>470.8</ele>
      </trkpt>
      <trkpt lat="37.05119" lon="27.85416">
        <ele>470.9</ele>
      </trkpt>
      <trkpt lat="37.05119" lon="27.85416">
        <ele>470.9</ele>
      </trkpt>
      <trkpt lat="37.05119" lon="27.85417">
        <ele>470.8</ele>
      </trkpt>
      <trkpt lat="37.05119" lon="27.85417">
        <ele>470.8</ele>
      </trkpt>
      <trkpt lat="37.05119" lon="27.85417">
        <ele>470.8</ele>
      </trkpt>
      <trkpt lat="37.05119" lon="27.85417">
        <ele>470.9</ele>
      </trkpt>
      <trkpt lat="37.05119" lon="27.85417">
        <ele>470.9</ele>
      </trkpt>
      <trkpt lat="37.05119" lon="27.85417">
        <ele>470.8</ele>
      </trkpt>
      <trkpt lat="37.0512" lon="27.85416">
        <ele>470.8</ele>
      </trkpt>
      <trkpt lat="37.0512" lon="27.85416">
        <ele>470.8</ele>
      </trkpt>
      <trkpt lat="37.0512" lon="27.85415">
        <ele>470.8</ele>
      </trkpt>
      <trkpt lat="37.0512" lon="27.85416">
        <ele>470.8</ele>
      </trkpt>
      <trkpt lat="37.0512" lon="27.85416">
        <ele>470.8</ele>
      </trkpt>
      <trkpt lat="37.0512" lon="27.85416">
        <ele>470.8</ele>
      </trkpt>
      <trkpt lat="37.05119" lon="27.85416">
        <ele>470.8</ele>
      </trkpt>
      <trkpt lat="37.0512" lon="27.85416">
        <ele>470.8</ele>
      </trkpt>
      <trkpt lat="37.0512" lon="27.85417">
        <ele>470.8</ele>
      </trkpt>
      <trkpt lat="37.0512" lon="27.85416">
        <ele>470.8</ele>
      </trkpt>
      <trkpt lat="37.05119" lon="27.85417">
        <ele>470.8</ele>
      </trkpt>
      <trkpt lat="37.05119" lon="27.85417">
        <ele>470.9</ele>
      </trkpt>
      <trkpt lat="37.05119" lon="27.85417">
        <ele>470.9</ele>
      </trkpt>
      <trkpt lat="37.05119" lon="27.85417">
        <ele>470.8</ele>
      </trkpt>
      <trkpt lat="37.05119" lon="27.85416">
        <ele>470.8</ele>
      </trkpt>
      <trkpt lat="37.05119" lon="27.85415">
        <ele>470.8</ele>
      </trkpt>
      <trkpt lat="37.0512" lon="27.85414">
        <ele>470.8</ele>
      </trkpt>
      <trkpt lat="37.05119" lon="27.85415">
        <ele>470.8</ele>
      </trkpt>
      <trkpt lat="37.05118" lon="27.85418">
        <ele>470.9</ele>
      </trkpt>
      <trkpt lat="37.05115" lon="27.85423">
        <ele>471.2</ele>
      </trkpt>
      <trkpt lat="37.05111" lon="27.85428">
        <ele>471.4</ele>
      </trkpt>
      <trkpt lat="37.05104" lon="27.85434">
        <ele>471.9</ele>
      </trkpt>
      <trkpt lat="37.05099" lon="27.85436">
        <ele>472.1</ele>
      </trkpt>
      <trkpt lat="37.05094" lon="27.85437">
        <ele>472.4</ele>
      </trkpt>
      <trkpt lat="37.05089" lon="27.85438">
        <ele>472.7</ele>
      </trkpt>
      <trkpt lat="37.05082" lon="27.85437">
        <ele>472.9</ele>
      </trkpt>
      <trkpt lat="37.05076" lon="27.85436">
        <ele>472.1</ele>
      </trkpt>
      <trkpt lat="37.05072" lon="27.85436">
        <ele>471.6</ele>
      </trkpt>
      <trkpt lat="37.05069" lon="27.85435">
        <ele>471.2</ele>
      </trkpt>
      <trkpt lat="37.05067" lon="27.85435">
        <ele>471</ele>
      </trkpt>
      <trkpt lat="37.05067" lon="27.85435">
        <ele>471</ele>
      </trkpt>
      <trkpt lat="37.05067" lon="27.85435">
        <ele>471</ele>
      </trkpt>
      <trkpt lat="37.05067" lon="27.85435">
        <ele>471</ele>
      </trkpt>
      <trkpt lat="37.05067" lon="27.85436">
        <ele>471</ele>
      </trkpt>
      <trkpt lat="37.05067" lon="27.85436">
        <ele>471</ele>
      </trkpt>
      <trkpt lat="37.05066" lon="27.85436">
        <ele>471</ele>
      </trkpt>
      <trkpt lat="37.05066" lon="27.85435">
        <ele>470.9</ele>
      </trkpt>
      <trkpt lat="37.05065" lon="27.85435">
        <ele>470.8</ele>
      </trkpt>
      <trkpt lat="37.05065" lon="27.85435">
        <ele>470.8</ele>
      </trkpt>
      <trkpt lat="37.05065" lon="27.85434">
        <ele>470.7</ele>
      </trkpt>
      <trkpt lat="37.05064" lon="27.85434">
        <ele>470.7</ele>
      </trkpt>
      <trkpt lat="37.05064" lon="27.85434">
        <ele>470.7</ele>
      </trkpt>
      <trkpt lat="37.05065" lon="27.85434">
        <ele>470.7</ele>
      </trkpt>
      <trkpt lat="37.05065" lon="27.85434">
        <ele>470.7</ele>
      </trkpt>
      <trkpt lat="37.05065" lon="27.85434">
        <ele>470.7</ele>
      </trkpt>
      <trkpt lat="37.05065" lon="27.85434">
        <ele>470.8</ele>
      </trkpt>
      <trkpt lat="37.05065" lon="27.85434">
        <ele>470.7</ele>
      </trkpt>
      <trkpt lat="37.05065" lon="27.85433">
        <ele>470.7</ele>
      </trkpt>
      <trkpt lat="37.05064" lon="27.85433">
        <ele>470.5</ele>
      </trkpt>
      <trkpt lat="37.05063" lon="27.85432">
        <ele>470.4</ele>
      </trkpt>
      <trkpt lat="37.05063" lon="27.85431">
        <ele>470.4</ele>
      </trkpt>
      <trkpt lat="37.05063" lon="27.85431">
        <ele>470.3</ele>
      </trkpt>
      <trkpt lat="37.05062" lon="27.8543">
        <ele>470.2</ele>
      </trkpt>
      <trkpt lat="37.05063" lon="27.8543">
        <ele>470.2</ele>
      </trkpt>
      <trkpt lat="37.05063" lon="27.8543">
        <ele>470.2</ele>
      </trkpt>
      <trkpt lat="37.05063" lon="27.8543">
        <ele>470.3</ele>
      </trkpt>
      <trkpt lat="37.05064" lon="27.8543">
        <ele>470.4</ele>
      </trkpt>
      <trkpt lat="37.05064" lon="27.8543">
        <ele>470.4</ele>
      </trkpt>
      <trkpt lat="37.05064" lon="27.85431">
        <ele>470.5</ele>
      </trkpt>
      <trkpt lat="37.05064" lon="27.85431">
        <ele>470.5</ele>
      </trkpt>
      <trkpt lat="37.05065" lon="27.85431">
        <ele>470.6</ele>
      </trkpt>
      <trkpt lat="37.05065" lon="27.85431">
        <ele>470.7</ele>
      </trkpt>
      <trkpt lat="37.05066" lon="27.85431">
        <ele>470.7</ele>
      </trkpt>
      <trkpt lat="37.05066" lon="27.85431">
        <ele>470.7</ele>
      </trkpt>
      <trkpt lat="37.05065" lon="27.85431">
        <ele>470.6</ele>
      </trkpt>
      <trkpt lat="37.05065" lon="27.85431">
        <ele>470.6</ele>
      </trkpt>
      <trkpt lat="37.05065" lon="27.85431">
        <ele>470.6</ele>
      </trkpt>
      <trkpt lat="37.05065" lon="27.85431">
        <ele>470.6</ele>
      </trkpt>
      <trkpt lat="37.05065" lon="27.85431">
        <ele>470.6</ele>
      </trkpt>
      <trkpt lat="37.05064" lon="27.8543">
        <ele>470.5</ele>
      </trkpt>
      <trkpt lat="37.05064" lon="27.8543">
        <ele>470.5</ele>
      </trkpt>
      <trkpt lat="37.05064" lon="27.85431">
        <ele>470.4</ele>
      </trkpt>
      <trkpt lat="37.05064" lon="27.85431">
        <ele>470.4</ele>
      </trkpt>
      <trkpt lat="37.05064" lon="27.85431">
        <ele>470.5</ele>
      </trkpt>
      <trkpt lat="37.05064" lon="27.85431">
        <ele>470.5</ele>
      </trkpt>
      <trkpt lat="37.05064" lon="27.85431">
        <ele>470.5</ele>
      </trkpt>
      <trkpt lat="37.05064" lon="27.85431">
        <ele>470.4</ele>
      </trkpt>
      <trkpt lat="37.0506" lon="27.85431">
        <ele>469.9</ele>
      </trkpt>
      <trkpt lat="37.05056" lon="27.85431">
        <ele>469.5</ele>
      </trkpt>
      <trkpt lat="37.05049" lon="27.85435">
        <ele>468.9</ele>
      </trkpt>
      <trkpt lat="37.05044" lon="27.8544">
        <ele>468.8</ele>
      </trkpt>
      <trkpt lat="37.05039" lon="27.85448">
        <ele>469.1</ele>
      </trkpt>
      <trkpt lat="37.05033" lon="27.85456">
        <ele>469.8</ele>
      </trkpt>
      <trkpt lat="37.05031" lon="27.85467">
        <ele>471.1</ele>
      </trkpt>
      <trkpt lat="37.0503" lon="27.85477">
        <ele>472.4</ele>
      </trkpt>
      <trkpt lat="37.05029" lon="27.85485">
        <ele>473.5</ele>
      </trkpt>
      <trkpt lat="37.05027" lon="27.85492">
        <ele>474.5</ele>
      </trkpt>
      <trkpt lat="37.05025" lon="27.85496">
        <ele>475.1</ele>
      </trkpt>
      <trkpt lat="37.05021" lon="27.85503">
        <ele>476.2</ele>
      </trkpt>
      <trkpt lat="37.05015" lon="27.85512">
        <ele>477</ele>
      </trkpt>
      <trkpt lat="37.05012" lon="27.85518">
        <ele>477.5</ele>
      </trkpt>
      <trkpt lat="37.0501" lon="27.85521">
        <ele>477.8</ele>
      </trkpt>
      <trkpt lat="37.0501" lon="27.8552">
        <ele>477.7</ele>
      </trkpt>
      <trkpt lat="37.05011" lon="27.8552">
        <ele>477.7</ele>
      </trkpt>
      <trkpt lat="37.05011" lon="27.8552">
        <ele>477.7</ele>
      </trkpt>
      <trkpt lat="37.05011" lon="27.8552">
        <ele>477.7</ele>
      </trkpt>
      <trkpt lat="37.05011" lon="27.8552">
        <ele>477.7</ele>
      </trkpt>
      <trkpt lat="37.05011" lon="27.8552">
        <ele>477.7</ele>
      </trkpt>
      <trkpt lat="37.0501" lon="27.8552">
        <ele>477.7</ele>
      </trkpt>
      <trkpt lat="37.0501" lon="27.8552">
        <ele>477.7</ele>
      </trkpt>
      <trkpt lat="37.0501" lon="27.8552">
        <ele>477.7</ele>
      </trkpt>
      <trkpt lat="37.0501" lon="27.8552">
        <ele>477.8</ele>
      </trkpt>
      <trkpt lat="37.05009" lon="27.8552">
        <ele>477.8</ele>
      </trkpt>
      <trkpt lat="37.05009" lon="27.8552">
        <ele>477.8</ele>
      </trkpt>
      <trkpt lat="37.0501" lon="27.85519">
        <ele>477.7</ele>
      </trkpt>
      <trkpt lat="37.05009" lon="27.85519">
        <ele>477.7</ele>
      </trkpt>
      <trkpt lat="37.05009" lon="27.85519">
        <ele>477.7</ele>
      </trkpt>
      <trkpt lat="37.05008" lon="27.85521">
        <ele>477.9</ele>
      </trkpt>
      <trkpt lat="37.05004" lon="27.85526">
        <ele>478.3</ele>
      </trkpt>
      <trkpt lat="37.05" lon="27.85531">
        <ele>478.9</ele>
      </trkpt>
      <trkpt lat="37.04994" lon="27.8554">
        <ele>478.5</ele>
      </trkpt>
      <trkpt lat="37.0499" lon="27.85546">
        <ele>478.3</ele>
      </trkpt>
      <trkpt lat="37.04983" lon="27.85555">
        <ele>478.1</ele>
      </trkpt>
      <trkpt lat="37.04976" lon="27.85566">
        <ele>478.3</ele>
      </trkpt>
      <trkpt lat="37.0497" lon="27.85572">
        <ele>478.3</ele>
      </trkpt>
      <trkpt lat="37.0496" lon="27.8558">
        <ele>478.3</ele>
      </trkpt>
      <trkpt lat="37.04951" lon="27.85586">
        <ele>478.1</ele>
      </trkpt>
      <trkpt lat="37.04944" lon="27.85591">
        <ele>477.9</ele>
      </trkpt>
      <trkpt lat="37.04935" lon="27.85597">
        <ele>477.7</ele>
      </trkpt>
      <trkpt lat="37.04926" lon="27.85603">
        <ele>477.7</ele>
      </trkpt>
      <trkpt lat="37.04918" lon="27.85609">
        <ele>477.9</ele>
      </trkpt>
      <trkpt lat="37.0491" lon="27.85616">
        <ele>478.4</ele>
      </trkpt>
      <trkpt lat="37.04905" lon="27.8562">
        <ele>478.9</ele>
      </trkpt>
      <trkpt lat="37.04898" lon="27.85624">
        <ele>479.4</ele>
      </trkpt>
      <trkpt lat="37.04889" lon="27.8563">
        <ele>480.4</ele>
      </trkpt>
      <trkpt lat="37.04883" lon="27.85635">
        <ele>481.4</ele>
      </trkpt>
      <trkpt lat="37.04881" lon="27.85636">
        <ele>481.7</ele>
      </trkpt>
      <trkpt lat="37.0488" lon="27.85637">
        <ele>481.8</ele>
      </trkpt>
      <trkpt lat="37.0488" lon="27.85637">
        <ele>481.9</ele>
      </trkpt>
      <trkpt lat="37.0488" lon="27.85637">
        <ele>481.9</ele>
      </trkpt>
      <trkpt lat="37.0488" lon="27.85638">
        <ele>482</ele>
      </trkpt>
      <trkpt lat="37.0488" lon="27.85638">
        <ele>482</ele>
      </trkpt>
      <trkpt lat="37.0488" lon="27.85638">
        <ele>481.9</ele>
      </trkpt>
      <trkpt lat="37.0488" lon="27.85637">
        <ele>481.9</ele>
      </trkpt>
      <trkpt lat="37.0488" lon="27.85638">
        <ele>481.9</ele>
      </trkpt>
      <trkpt lat="37.0488" lon="27.85638">
        <ele>481.9</ele>
      </trkpt>
      <trkpt lat="37.0488" lon="27.85637">
        <ele>481.9</ele>
      </trkpt>
      <trkpt lat="37.0488" lon="27.85637">
        <ele>481.8</ele>
      </trkpt>
      <trkpt lat="37.0488" lon="27.85637">
        <ele>481.8</ele>
      </trkpt>
      <trkpt lat="37.04879" lon="27.85637">
        <ele>481.8</ele>
      </trkpt>
      <trkpt lat="37.04879" lon="27.85637">
        <ele>481.9</ele>
      </trkpt>
      <trkpt lat="37.04878" lon="27.85637">
        <ele>481.9</ele>
      </trkpt>
      <trkpt lat="37.04878" lon="27.85637">
        <ele>482</ele>
      </trkpt>
      <trkpt lat="37.04878" lon="27.85637">
        <ele>482</ele>
      </trkpt>
      <trkpt lat="37.04877" lon="27.85637">
        <ele>482</ele>
      </trkpt>
      <trkpt lat="37.04877" lon="27.85637">
        <ele>482</ele>
      </trkpt>
      <trkpt lat="37.04877" lon="27.85637">
        <ele>482</ele>
      </trkpt>
      <trkpt lat="37.04877" lon="27.85637">
        <ele>481.9</ele>
      </trkpt>
      <trkpt lat="37.04877" lon="27.85636">
        <ele>481.8</ele>
      </trkpt>
      <trkpt lat="37.04878" lon="27.85636">
        <ele>481.7</ele>
      </trkpt>
      <trkpt lat="37.04878" lon="27.85636">
        <ele>481.6</ele>
      </trkpt>
      <trkpt lat="37.04875" lon="27.85637">
        <ele>481.9</ele>
      </trkpt>
      <trkpt lat="37.0487" lon="27.85642">
        <ele>483</ele>
      </trkpt>
      <trkpt lat="37.04864" lon="27.85647">
        <ele>484.3</ele>
      </trkpt>
      <trkpt lat="37.0486" lon="27.85649">
        <ele>484.9</ele>
      </trkpt>
      <trkpt lat="37.04853" lon="27.85653">
        <ele>486.1</ele>
      </trkpt>
      <trkpt lat="37.04845" lon="27.8566">
        <ele>488.3</ele>
      </trkpt>
      <trkpt lat="37.04839" lon="27.85665">
        <ele>490.1</ele>
      </trkpt>
      <trkpt lat="37.0483" lon="27.85673">
        <ele>491.8</ele>
      </trkpt>
      <trkpt lat="37.04824" lon="27.85677">
        <ele>492.2</ele>
      </trkpt>
      <trkpt lat="37.04815" lon="27.85683">
        <ele>493</ele>
      </trkpt>
      <trkpt lat="37.04811" lon="27.85688">
        <ele>493.6</ele>
      </trkpt>
      <trkpt lat="37.04807" lon="27.85692">
        <ele>494.2</ele>
      </trkpt>
      <trkpt lat="37.04806" lon="27.85692">
        <ele>494.2</ele>
      </trkpt>
      <trkpt lat="37.04806" lon="27.85692">
        <ele>494.2</ele>
      </trkpt>
      <trkpt lat="37.04806" lon="27.85692">
        <ele>494.2</ele>
      </trkpt>
      <trkpt lat="37.04805" lon="27.85692">
        <ele>494.2</ele>
      </trkpt>
      <trkpt lat="37.04805" lon="27.85693">
        <ele>494.3</ele>
      </trkpt>
      <trkpt lat="37.04805" lon="27.85693">
        <ele>494.3</ele>
      </trkpt>
      <trkpt lat="37.04805" lon="27.85693">
        <ele>494.4</ele>
      </trkpt>
      <trkpt lat="37.04804" lon="27.85694">
        <ele>494.4</ele>
      </trkpt>
      <trkpt lat="37.04804" lon="27.85694">
        <ele>494.4</ele>
      </trkpt>
      <trkpt lat="37.04804" lon="27.85694">
        <ele>494.5</ele>
      </trkpt>
      <trkpt lat="37.04805" lon="27.85694">
        <ele>494.5</ele>
      </trkpt>
      <trkpt lat="37.04805" lon="27.85694">
        <ele>494.5</ele>
      </trkpt>
      <trkpt lat="37.04805" lon="27.85694">
        <ele>494.5</ele>
      </trkpt>
      <trkpt lat="37.04805" lon="27.85694">
        <ele>494.5</ele>
      </trkpt>
      <trkpt lat="37.04806" lon="27.85694">
        <ele>494.4</ele>
      </trkpt>
      <trkpt lat="37.04806" lon="27.85693">
        <ele>494.4</ele>
      </trkpt>
      <trkpt lat="37.04806" lon="27.85693">
        <ele>494.4</ele>
      </trkpt>
      <trkpt lat="37.04806" lon="27.85693">
        <ele>494.4</ele>
      </trkpt>
      <trkpt lat="37.04806" lon="27.85693">
        <ele>494.4</ele>
      </trkpt>
      <trkpt lat="37.04806" lon="27.85693">
        <ele>494.4</ele>
      </trkpt>
      <trkpt lat="37.04806" lon="27.85694">
        <ele>494.4</ele>
      </trkpt>
      <trkpt lat="37.04806" lon="27.85694">
        <ele>494.5</ele>
      </trkpt>
      <trkpt lat="37.04806" lon="27.85694">
        <ele>494.5</ele>
      </trkpt>
      <trkpt lat="37.04805" lon="27.85695">
        <ele>494.6</ele>
      </trkpt>
      <trkpt lat="37.04805" lon="27.85695">
        <ele>494.6</ele>
      </trkpt>
      <trkpt lat="37.04806" lon="27.85695">
        <ele>494.6</ele>
      </trkpt>
      <trkpt lat="37.04806" lon="27.85695">
        <ele>494.6</ele>
      </trkpt>
      <trkpt lat="37.04806" lon="27.85695">
        <ele>494.6</ele>
      </trkpt>
      <trkpt lat="37.04806" lon="27.85694">
        <ele>494.6</ele>
      </trkpt>
      <trkpt lat="37.04806" lon="27.85694">
        <ele>494.5</ele>
      </trkpt>
      <trkpt lat="37.04807" lon="27.85694">
        <ele>494.5</ele>
      </trkpt>
      <trkpt lat="37.04807" lon="27.85694">
        <ele>494.5</ele>
      </trkpt>
      <trkpt lat="37.04807" lon="27.85695">
        <ele>494.6</ele>
      </trkpt>
      <trkpt lat="37.04807" lon="27.85694">
        <ele>494.5</ele>
      </trkpt>
      <trkpt lat="37.04808" lon="27.85694">
        <ele>494.5</ele>
      </trkpt>
      <trkpt lat="37.04808" lon="27.85694">
        <ele>494.5</ele>
      </trkpt>
      <trkpt lat="37.04807" lon="27.85694">
        <ele>494.6</ele>
      </trkpt>
      <trkpt lat="37.04806" lon="27.85695">
        <ele>494.7</ele>
      </trkpt>
      <trkpt lat="37.04806" lon="27.85696">
        <ele>494.7</ele>
      </trkpt>
      <trkpt lat="37.04803" lon="27.85698">
        <ele>495.1</ele>
      </trkpt>
      <trkpt lat="37.04799" lon="27.85701">
        <ele>495.6</ele>
      </trkpt>
      <trkpt lat="37.04791" lon="27.85705">
        <ele>496.3</ele>
      </trkpt>
      <trkpt lat="37.04786" lon="27.85707">
        <ele>496.6</ele>
      </trkpt>
      <trkpt lat="37.0478" lon="27.85708">
        <ele>496.7</ele>
      </trkpt>
      <trkpt lat="37.04775" lon="27.85708">
        <ele>496.7</ele>
      </trkpt>
      <trkpt lat="37.04766" lon="27.85709">
        <ele>497</ele>
      </trkpt>
      <trkpt lat="37.04758" lon="27.85712">
        <ele>497.7</ele>
      </trkpt>
      <trkpt lat="37.04755" lon="27.85714">
        <ele>498</ele>
      </trkpt>
      <trkpt lat="37.04755" lon="27.85713">
        <ele>497.9</ele>
      </trkpt>
      <trkpt lat="37.04755" lon="27.85713">
        <ele>497.9</ele>
      </trkpt>
      <trkpt lat="37.04755" lon="27.85714">
        <ele>497.9</ele>
      </trkpt>
      <trkpt lat="37.04756" lon="27.85713">
        <ele>497.9</ele>
      </trkpt>
      <trkpt lat="37.04756" lon="27.85713">
        <ele>497.9</ele>
      </trkpt>
      <trkpt lat="37.04757" lon="27.85713">
        <ele>497.8</ele>
      </trkpt>
      <trkpt lat="37.04757" lon="27.85713">
        <ele>497.8</ele>
      </trkpt>
      <trkpt lat="37.04757" lon="27.85713">
        <ele>497.8</ele>
      </trkpt>
      <trkpt lat="37.04758" lon="27.85713">
        <ele>497.7</ele>
      </trkpt>
      <trkpt lat="37.04758" lon="27.85712">
        <ele>497.7</ele>
      </trkpt>
      <trkpt lat="37.04758" lon="27.85712">
        <ele>497.6</ele>
      </trkpt>
      <trkpt lat="37.04758" lon="27.85712">
        <ele>497.7</ele>
      </trkpt>
      <trkpt lat="37.04758" lon="27.85712">
        <ele>497.7</ele>
      </trkpt>
      <trkpt lat="37.04757" lon="27.85712">
        <ele>497.7</ele>
      </trkpt>
      <trkpt lat="37.04757" lon="27.85713">
        <ele>497.8</ele>
      </trkpt>
      <trkpt lat="37.04757" lon="27.85713">
        <ele>497.7</ele>
      </trkpt>
      <trkpt lat="37.04757" lon="27.85713">
        <ele>497.8</ele>
      </trkpt>
      <trkpt lat="37.04757" lon="27.85713">
        <ele>497.8</ele>
      </trkpt>
      <trkpt lat="37.04757" lon="27.85713">
        <ele>497.8</ele>
      </trkpt>
      <trkpt lat="37.04757" lon="27.85713">
        <ele>497.8</ele>
      </trkpt>
      <trkpt lat="37.04757" lon="27.85713">
        <ele>497.8</ele>
      </trkpt>
      <trkpt lat="37.04756" lon="27.85714">
        <ele>498</ele>
      </trkpt>
      <trkpt lat="37.0475" lon="27.85717">
        <ele>498.6</ele>
      </trkpt>
      <trkpt lat="37.04746" lon="27.85721">
        <ele>499.1</ele>
      </trkpt>
      <trkpt lat="37.04742" lon="27.85725">
        <ele>499.7</ele>
      </trkpt>
      <trkpt lat="37.04738" lon="27.8573">
        <ele>500.2</ele>
      </trkpt>
      <trkpt lat="37.04731" lon="27.85736">
        <ele>501.1</ele>
      </trkpt>
      <trkpt lat="37.04726" lon="27.85741">
        <ele>502</ele>
      </trkpt>
      <trkpt lat="37.04724" lon="27.85742">
        <ele>502.2</ele>
      </trkpt>
      <trkpt lat="37.04724" lon="27.85742">
        <ele>502.2</ele>
      </trkpt>
      <trkpt lat="37.04724" lon="27.85742">
        <ele>502.2</ele>
      </trkpt>
      <trkpt lat="37.04724" lon="27.85742">
        <ele>502.1</ele>
      </trkpt>
      <trkpt lat="37.04724" lon="27.85742">
        <ele>502.1</ele>
      </trkpt>
      <trkpt lat="37.04724" lon="27.85742">
        <ele>502.2</ele>
      </trkpt>
      <trkpt lat="37.04724" lon="27.85742">
        <ele>502.2</ele>
      </trkpt>
      <trkpt lat="37.04723" lon="27.85742">
        <ele>502.3</ele>
      </trkpt>
      <trkpt lat="37.04723" lon="27.85743">
        <ele>502.3</ele>
      </trkpt>
      <trkpt lat="37.04723" lon="27.85743">
        <ele>502.3</ele>
      </trkpt>
      <trkpt lat="37.04723" lon="27.85743">
        <ele>502.4</ele>
      </trkpt>
      <trkpt lat="37.04723" lon="27.85743">
        <ele>502.4</ele>
      </trkpt>
      <trkpt lat="37.04722" lon="27.85744">
        <ele>502.5</ele>
      </trkpt>
      <trkpt lat="37.04722" lon="27.85744">
        <ele>502.6</ele>
      </trkpt>
      <trkpt lat="37.04722" lon="27.85745">
        <ele>502.7</ele>
      </trkpt>
      <trkpt lat="37.04721" lon="27.85745">
        <ele>502.8</ele>
      </trkpt>
      <trkpt lat="37.0472" lon="27.85746">
        <ele>503</ele>
      </trkpt>
      <trkpt lat="37.0472" lon="27.85746">
        <ele>503</ele>
      </trkpt>
      <trkpt lat="37.04718" lon="27.85747">
        <ele>503.2</ele>
      </trkpt>
      <trkpt lat="37.04711" lon="27.85752">
        <ele>503.8</ele>
      </trkpt>
      <trkpt lat="37.04707" lon="27.85755">
        <ele>504.1</ele>
      </trkpt>
      <trkpt lat="37.04701" lon="27.8576">
        <ele>504.5</ele>
      </trkpt>
      <trkpt lat="37.04695" lon="27.85765">
        <ele>505.1</ele>
      </trkpt>
      <trkpt lat="37.04689" lon="27.8577">
        <ele>505.6</ele>
      </trkpt>
      <trkpt lat="37.04684" lon="27.85773">
        <ele>505.9</ele>
      </trkpt>
      <trkpt lat="37.04681" lon="27.85776">
        <ele>506.2</ele>
      </trkpt>
      <trkpt lat="37.04674" lon="27.85779">
        <ele>506.6</ele>
      </trkpt>
      <trkpt lat="37.04667" lon="27.85782">
        <ele>507</ele>
      </trkpt>
      <trkpt lat="37.04662" lon="27.85784">
        <ele>506.6</ele>
      </trkpt>
      <trkpt lat="37.04654" lon="27.85787">
        <ele>505.9</ele>
      </trkpt>
      <trkpt lat="37.04649" lon="27.85791">
        <ele>506</ele>
      </trkpt>
      <trkpt lat="37.04643" lon="27.858">
        <ele>506.8</ele>
      </trkpt>
      <trkpt lat="37.04639" lon="27.85806">
        <ele>507.7</ele>
      </trkpt>
      <trkpt lat="37.04635" lon="27.85814">
        <ele>508.9</ele>
      </trkpt>
      <trkpt lat="37.04633" lon="27.85819">
        <ele>509.6</ele>
      </trkpt>
      <trkpt lat="37.04632" lon="27.85822">
        <ele>510.1</ele>
      </trkpt>
      <trkpt lat="37.04632" lon="27.85822">
        <ele>510.2</ele>
      </trkpt>
      <trkpt lat="37.04631" lon="27.85824">
        <ele>510.5</ele>
      </trkpt>
      <trkpt lat="37.04631" lon="27.85825">
        <ele>510.7</ele>
      </trkpt>
      <trkpt lat="37.04629" lon="27.85828">
        <ele>511.1</ele>
      </trkpt>
      <trkpt lat="37.04629" lon="27.85829">
        <ele>511.3</ele>
      </trkpt>
      <trkpt lat="37.04629" lon="27.85829">
        <ele>511.3</ele>
      </trkpt>
      <trkpt lat="37.04628" lon="27.85829">
        <ele>511.3</ele>
      </trkpt>
      <trkpt lat="37.04628" lon="27.85829">
        <ele>511.3</ele>
      </trkpt>
      <trkpt lat="37.04628" lon="27.85829">
        <ele>511.3</ele>
      </trkpt>
      <trkpt lat="37.04628" lon="27.85829">
        <ele>511.3</ele>
      </trkpt>
      <trkpt lat="37.04628" lon="27.85829">
        <ele>511.2</ele>
      </trkpt>
      <trkpt lat="37.04628" lon="27.85828">
        <ele>511.1</ele>
      </trkpt>
      <trkpt lat="37.04629" lon="27.85827">
        <ele>510.9</ele>
      </trkpt>
      <trkpt lat="37.0463" lon="27.85826">
        <ele>510.8</ele>
      </trkpt>
      <trkpt lat="37.04629" lon="27.85826">
        <ele>510.8</ele>
      </trkpt>
      <trkpt lat="37.04629" lon="27.85827">
        <ele>511</ele>
      </trkpt>
      <trkpt lat="37.04628" lon="27.8583">
        <ele>511.5</ele>
      </trkpt>
      <trkpt lat="37.04626" lon="27.85834">
        <ele>512.1</ele>
      </trkpt>
      <trkpt lat="37.04624" lon="27.85836">
        <ele>512.2</ele>
      </trkpt>
      <trkpt lat="37.04623" lon="27.85838">
        <ele>512.3</ele>
      </trkpt>
      <trkpt lat="37.04624" lon="27.85838">
        <ele>512.3</ele>
      </trkpt>
      <trkpt lat="37.04624" lon="27.85837">
        <ele>512.2</ele>
      </trkpt>
      <trkpt lat="37.04624" lon="27.85837">
        <ele>512.2</ele>
      </trkpt>
      <trkpt lat="37.04623" lon="27.85838">
        <ele>512.2</ele>
      </trkpt>
      <trkpt lat="37.04623" lon="27.85838">
        <ele>512.2</ele>
      </trkpt>
      <trkpt lat="37.04623" lon="27.85838">
        <ele>512.2</ele>
      </trkpt>
      <trkpt lat="37.04622" lon="27.85838">
        <ele>512.2</ele>
      </trkpt>
      <trkpt lat="37.04622" lon="27.85838">
        <ele>512.2</ele>
      </trkpt>
      <trkpt lat="37.04622" lon="27.85838">
        <ele>512.2</ele>
      </trkpt>
      <trkpt lat="37.04623" lon="27.85838">
        <ele>512.2</ele>
      </trkpt>
      <trkpt lat="37.04623" lon="27.85837">
        <ele>512.2</ele>
      </trkpt>
      <trkpt lat="37.04623" lon="27.85837">
        <ele>512.2</ele>
      </trkpt>
      <trkpt lat="37.04623" lon="27.85837">
        <ele>512.2</ele>
      </trkpt>
      <trkpt lat="37.04623" lon="27.85838">
        <ele>512.2</ele>
      </trkpt>
      <trkpt lat="37.04623" lon="27.85838">
        <ele>512.2</ele>
      </trkpt>
      <trkpt lat="37.04623" lon="27.85838">
        <ele>512.3</ele>
      </trkpt>
      <trkpt lat="37.04622" lon="27.85839">
        <ele>512.3</ele>
      </trkpt>
      <trkpt lat="37.04622" lon="27.85839">
        <ele>512.3</ele>
      </trkpt>
      <trkpt lat="37.04622" lon="27.8584">
        <ele>512.3</ele>
      </trkpt>
      <trkpt lat="37.04621" lon="27.8584">
        <ele>512.4</ele>
      </trkpt>
      <trkpt lat="37.04621" lon="27.8584">
        <ele>512.4</ele>
      </trkpt>
      <trkpt lat="37.04621" lon="27.8584">
        <ele>512.3</ele>
      </trkpt>
      <trkpt lat="37.04621" lon="27.8584">
        <ele>512.3</ele>
      </trkpt>
      <trkpt lat="37.04622" lon="27.85838">
        <ele>512.2</ele>
      </trkpt>
      <trkpt lat="37.04622" lon="27.85838">
        <ele>512.2</ele>
      </trkpt>
      <trkpt lat="37.04622" lon="27.85838">
        <ele>512.2</ele>
      </trkpt>
      <trkpt lat="37.04622" lon="27.85838">
        <ele>512.2</ele>
      </trkpt>
      <trkpt lat="37.04622" lon="27.85838">
        <ele>512.2</ele>
      </trkpt>
      <trkpt lat="37.04622" lon="27.85838">
        <ele>512.2</ele>
      </trkpt>
      <trkpt lat="37.04622" lon="27.85838">
        <ele>512.2</ele>
      </trkpt>
      <trkpt lat="37.04622" lon="27.85838">
        <ele>512.2</ele>
      </trkpt>
      <trkpt lat="37.04622" lon="27.85837">
        <ele>512.2</ele>
      </trkpt>
      <trkpt lat="37.04622" lon="27.85837">
        <ele>512.1</ele>
      </trkpt>
      <trkpt lat="37.04623" lon="27.85836">
        <ele>512.1</ele>
      </trkpt>
      <trkpt lat="37.04623" lon="27.85835">
        <ele>512</ele>
      </trkpt>
      <trkpt lat="37.04624" lon="27.85835">
        <ele>512</ele>
      </trkpt>
      <trkpt lat="37.04623" lon="27.85835">
        <ele>512</ele>
      </trkpt>
      <trkpt lat="37.04623" lon="27.85836">
        <ele>512.1</ele>
      </trkpt>
      <trkpt lat="37.04618" lon="27.85842">
        <ele>512.4</ele>
      </trkpt>
      <trkpt lat="37.04615" lon="27.85847">
        <ele>512.8</ele>
      </trkpt>
      <trkpt lat="37.0461" lon="27.85853">
        <ele>513.5</ele>
      </trkpt>
      <trkpt lat="37.04607" lon="27.85857">
        <ele>514.1</ele>
      </trkpt>
      <trkpt lat="37.04604" lon="27.85864">
        <ele>515.3</ele>
      </trkpt>
      <trkpt lat="37.04603" lon="27.8587">
        <ele>516.2</ele>
      </trkpt>
      <trkpt lat="37.04604" lon="27.85874">
        <ele>516.8</ele>
      </trkpt>
      <trkpt lat="37.04604" lon="27.85877">
        <ele>517.2</ele>
      </trkpt>
      <trkpt lat="37.04604" lon="27.85884">
        <ele>518.3</ele>
      </trkpt>
      <trkpt lat="37.04604" lon="27.85895">
        <ele>520</ele>
      </trkpt>
      <trkpt lat="37.04603" lon="27.85903">
        <ele>521.5</ele>
      </trkpt>
      <trkpt lat="37.04603" lon="27.8591">
        <ele>522.4</ele>
      </trkpt>
      <trkpt lat="37.04604" lon="27.85918">
        <ele>523.2</ele>
      </trkpt>
      <trkpt lat="37.04605" lon="27.85925">
        <ele>522.4</ele>
      </trkpt>
      <trkpt lat="37.04606" lon="27.85933">
        <ele>521.6</ele>
      </trkpt>
      <trkpt lat="37.04606" lon="27.85944">
        <ele>520.7</ele>
      </trkpt>
      <trkpt lat="37.04603" lon="27.85952">
        <ele>520.5</ele>
      </trkpt>
      <trkpt lat="37.04603" lon="27.85954">
        <ele>520.6</ele>
      </trkpt>
      <trkpt lat="37.04602" lon="27.85954">
        <ele>520.7</ele>
      </trkpt>
      <trkpt lat="37.04602" lon="27.85955">
        <ele>520.7</ele>
      </trkpt>
      <trkpt lat="37.04602" lon="27.85955">
        <ele>520.8</ele>
      </trkpt>
      <trkpt lat="37.04601" lon="27.85955">
        <ele>520.8</ele>
      </trkpt>
      <trkpt lat="37.04601" lon="27.85955">
        <ele>520.9</ele>
      </trkpt>
      <trkpt lat="37.04601" lon="27.85954">
        <ele>521</ele>
      </trkpt>
      <trkpt lat="37.04601" lon="27.85954">
        <ele>521</ele>
      </trkpt>
      <trkpt lat="37.04601" lon="27.85954">
        <ele>521</ele>
      </trkpt>
      <trkpt lat="37.04601" lon="27.85953">
        <ele>521.1</ele>
      </trkpt>
      <trkpt lat="37.04601" lon="27.85953">
        <ele>521.1</ele>
      </trkpt>
      <trkpt lat="37.04601" lon="27.85952">
        <ele>521.2</ele>
      </trkpt>
      <trkpt lat="37.04601" lon="27.85952">
        <ele>521.2</ele>
      </trkpt>
      <trkpt lat="37.04601" lon="27.85951">
        <ele>521.3</ele>
      </trkpt>
      <trkpt lat="37.04601" lon="27.8595">
        <ele>521.3</ele>
      </trkpt>
      <trkpt lat="37.04601" lon="27.8595">
        <ele>521.3</ele>
      </trkpt>
      <trkpt lat="37.04601" lon="27.8595">
        <ele>521.3</ele>
      </trkpt>
      <trkpt lat="37.04601" lon="27.8595">
        <ele>521.4</ele>
      </trkpt>
      <trkpt lat="37.04601" lon="27.8595">
        <ele>521.3</ele>
      </trkpt>
      <trkpt lat="37.04601" lon="27.85949">
        <ele>521.3</ele>
      </trkpt>
      <trkpt lat="37.04601" lon="27.85949">
        <ele>521.3</ele>
      </trkpt>
      <trkpt lat="37.04601" lon="27.85949">
        <ele>521.3</ele>
      </trkpt>
      <trkpt lat="37.04602" lon="27.85949">
        <ele>521.3</ele>
      </trkpt>
      <trkpt lat="37.04602" lon="27.85949">
        <ele>521.3</ele>
      </trkpt>
      <trkpt lat="37.04602" lon="27.85948">
        <ele>521.2</ele>
      </trkpt>
      <trkpt lat="37.04602" lon="27.85948">
        <ele>521.2</ele>
      </trkpt>
      <trkpt lat="37.04602" lon="27.85948">
        <ele>521.1</ele>
      </trkpt>
      <trkpt lat="37.04602" lon="27.85949">
        <ele>521.1</ele>
      </trkpt>
      <trkpt lat="37.04602" lon="27.85949">
        <ele>521.2</ele>
      </trkpt>
      <trkpt lat="37.04602" lon="27.85949">
        <ele>521.3</ele>
      </trkpt>
      <trkpt lat="37.04601" lon="27.85951">
        <ele>521.4</ele>
      </trkpt>
      <trkpt lat="37.04599" lon="27.85954">
        <ele>521.5</ele>
      </trkpt>
      <trkpt lat="37.04596" lon="27.85958">
        <ele>521.8</ele>
      </trkpt>
      <trkpt lat="37.04593" lon="27.85963">
        <ele>522.3</ele>
      </trkpt>
      <trkpt lat="37.04587" lon="27.8597">
        <ele>523.2</ele>
      </trkpt>
      <trkpt lat="37.04583" lon="27.85974">
        <ele>523.9</ele>
      </trkpt>
      <trkpt lat="37.04578" lon="27.85981">
        <ele>525.1</ele>
      </trkpt>
      <trkpt lat="37.04575" lon="27.85986">
        <ele>525.8</ele>
      </trkpt>
      <trkpt lat="37.04572" lon="27.85991">
        <ele>526.6</ele>
      </trkpt>
      <trkpt lat="37.0457" lon="27.85996">
        <ele>527.2</ele>
      </trkpt>
      <trkpt lat="37.04568" lon="27.86002">
        <ele>527.9</ele>
      </trkpt>
      <trkpt lat="37.04566" lon="27.86008">
        <ele>528.2</ele>
      </trkpt>
      <trkpt lat="37.04565" lon="27.86011">
        <ele>528.4</ele>
      </trkpt>
      <trkpt lat="37.04564" lon="27.86016">
        <ele>528.6</ele>
      </trkpt>
      <trkpt lat="37.04563" lon="27.86017">
        <ele>528.9</ele>
      </trkpt>
      <trkpt lat="37.04563" lon="27.86017">
        <ele>528.9</ele>
      </trkpt>
      <trkpt lat="37.04563" lon="27.86016">
        <ele>528.9</ele>
      </trkpt>
      <trkpt lat="37.04563" lon="27.86016">
        <ele>528.9</ele>
      </trkpt>
      <trkpt lat="37.04563" lon="27.86015">
        <ele>528.9</ele>
      </trkpt>
      <trkpt lat="37.04563" lon="27.86015">
        <ele>529</ele>
      </trkpt>
      <trkpt lat="37.04563" lon="27.86015">
        <ele>528.9</ele>
      </trkpt>
      <trkpt lat="37.04563" lon="27.86015">
        <ele>528.9</ele>
      </trkpt>
      <trkpt lat="37.04563" lon="27.86014">
        <ele>528.9</ele>
      </trkpt>
      <trkpt lat="37.04563" lon="27.86015">
        <ele>528.9</ele>
      </trkpt>
      <trkpt lat="37.04563" lon="27.86016">
        <ele>528.9</ele>
      </trkpt>
      <trkpt lat="37.04563" lon="27.86017">
        <ele>528.9</ele>
      </trkpt>
      <trkpt lat="37.04562" lon="27.86018">
        <ele>528.9</ele>
      </trkpt>
      <trkpt lat="37.04562" lon="27.86019">
        <ele>528.9</ele>
      </trkpt>
      <trkpt lat="37.04562" lon="27.86018">
        <ele>528.9</ele>
      </trkpt>
      <trkpt lat="37.04563" lon="27.86016">
        <ele>528.9</ele>
      </trkpt>
      <trkpt lat="37.04563" lon="27.86015">
        <ele>528.8</ele>
      </trkpt>
      <trkpt lat="37.04563" lon="27.86015">
        <ele>528.9</ele>
      </trkpt>
      <trkpt lat="37.04563" lon="27.86015">
        <ele>528.9</ele>
      </trkpt>
      <trkpt lat="37.04563" lon="27.86015">
        <ele>528.8</ele>
      </trkpt>
      <trkpt lat="37.04563" lon="27.86016">
        <ele>528.8</ele>
      </trkpt>
      <trkpt lat="37.04563" lon="27.86016">
        <ele>528.8</ele>
      </trkpt>
      <trkpt lat="37.04563" lon="27.86017">
        <ele>528.9</ele>
      </trkpt>
      <trkpt lat="37.04562" lon="27.86018">
        <ele>528.9</ele>
      </trkpt>
      <trkpt lat="37.04562" lon="27.86019">
        <ele>529</ele>
      </trkpt>
      <trkpt lat="37.04562" lon="27.86019">
        <ele>529.1</ele>
      </trkpt>
      <trkpt lat="37.04562" lon="27.86019">
        <ele>529.1</ele>
      </trkpt>
      <trkpt lat="37.04562" lon="27.86019">
        <ele>529.2</ele>
      </trkpt>
      <trkpt lat="37.04561" lon="27.86019">
        <ele>529.3</ele>
      </trkpt>
      <trkpt lat="37.04561" lon="27.86019">
        <ele>529.4</ele>
      </trkpt>
      <trkpt lat="37.04561" lon="27.86019">
        <ele>529.5</ele>
      </trkpt>
      <trkpt lat="37.04561" lon="27.86018">
        <ele>529.6</ele>
      </trkpt>
      <trkpt lat="37.04561" lon="27.86018">
        <ele>529.6</ele>
      </trkpt>
      <trkpt lat="37.04561" lon="27.86018">
        <ele>529.6</ele>
      </trkpt>
      <trkpt lat="37.04561" lon="27.86019">
        <ele>529.6</ele>
      </trkpt>
      <trkpt lat="37.04559" lon="27.86026">
        <ele>529.9</ele>
      </trkpt>
      <trkpt lat="37.04557" lon="27.86033">
        <ele>530</ele>
      </trkpt>
      <trkpt lat="37.04556" lon="27.86038">
        <ele>530.1</ele>
      </trkpt>
      <trkpt lat="37.04555" lon="27.86047">
        <ele>530.1</ele>
      </trkpt>
      <trkpt lat="37.04554" lon="27.86053">
        <ele>530.2</ele>
      </trkpt>
      <trkpt lat="37.04553" lon="27.86059">
        <ele>530.3</ele>
      </trkpt>
      <trkpt lat="37.04552" lon="27.86066">
        <ele>530</ele>
      </trkpt>
      <trkpt lat="37.04552" lon="27.8607">
        <ele>529.8</ele>
      </trkpt>
      <trkpt lat="37.04552" lon="27.86078">
        <ele>529.3</ele>
      </trkpt>
      <trkpt lat="37.04552" lon="27.86085">
        <ele>529.2</ele>
      </trkpt>
      <trkpt lat="37.04551" lon="27.86097">
        <ele>529.6</ele>
      </trkpt>
      <trkpt lat="37.0455" lon="27.86104">
        <ele>529.9</ele>
      </trkpt>
      <trkpt lat="37.04549" lon="27.86111">
        <ele>530.3</ele>
      </trkpt>
      <trkpt lat="37.04547" lon="27.86123">
        <ele>531.5</ele>
      </trkpt>
      <trkpt lat="37.04543" lon="27.86132">
        <ele>532.9</ele>
      </trkpt>
      <trkpt lat="37.04539" lon="27.86141">
        <ele>534.8</ele>
      </trkpt>
      <trkpt lat="37.04535" lon="27.86147">
        <ele>536.4</ele>
      </trkpt>
      <trkpt lat="37.04531" lon="27.86153">
        <ele>538.1</ele>
      </trkpt>
      <trkpt lat="37.04528" lon="27.86156">
        <ele>539.4</ele>
      </trkpt>
      <trkpt lat="37.04527" lon="27.86156">
        <ele>539.5</ele>
      </trkpt>
      <trkpt lat="37.04527" lon="27.86156">
        <ele>539.5</ele>
      </trkpt>
      <trkpt lat="37.04528" lon="27.86156">
        <ele>539.5</ele>
      </trkpt>
      <trkpt lat="37.04528" lon="27.86156">
        <ele>539.5</ele>
      </trkpt>
      <trkpt lat="37.04528" lon="27.86155">
        <ele>539.5</ele>
      </trkpt>
      <trkpt lat="37.04528" lon="27.86155">
        <ele>539.4</ele>
      </trkpt>
      <trkpt lat="37.04527" lon="27.86155">
        <ele>539.5</ele>
      </trkpt>
      <trkpt lat="37.04527" lon="27.86155">
        <ele>539.6</ele>
      </trkpt>
      <trkpt lat="37.04527" lon="27.86155">
        <ele>539.7</ele>
      </trkpt>
      <trkpt lat="37.04527" lon="27.86154">
        <ele>539.7</ele>
      </trkpt>
      <trkpt lat="37.04527" lon="27.86154">
        <ele>539.7</ele>
      </trkpt>
      <trkpt lat="37.04527" lon="27.86154">
        <ele>539.7</ele>
      </trkpt>
      <trkpt lat="37.04527" lon="27.86154">
        <ele>539.6</ele>
      </trkpt>
      <trkpt lat="37.04528" lon="27.86153">
        <ele>539.5</ele>
      </trkpt>
      <trkpt lat="37.04528" lon="27.86152">
        <ele>539.3</ele>
      </trkpt>
      <trkpt lat="37.04528" lon="27.86153">
        <ele>539.4</ele>
      </trkpt>
      <trkpt lat="37.04527" lon="27.86154">
        <ele>539.7</ele>
      </trkpt>
      <trkpt lat="37.04525" lon="27.86156">
        <ele>540.3</ele>
      </trkpt>
      <trkpt lat="37.04522" lon="27.86161">
        <ele>541.8</ele>
      </trkpt>
      <trkpt lat="37.04514" lon="27.86171">
        <ele>544.6</ele>
      </trkpt>
      <trkpt lat="37.04508" lon="27.86183">
        <ele>546.5</ele>
      </trkpt>
      <trkpt lat="37.04504" lon="27.86194">
        <ele>547.4</ele>
      </trkpt>
      <trkpt lat="37.04502" lon="27.86206">
        <ele>547.3</ele>
      </trkpt>
      <trkpt lat="37.04501" lon="27.86213">
        <ele>547.1</ele>
      </trkpt>
      <trkpt lat="37.045" lon="27.8622">
        <ele>547</ele>
      </trkpt>
      <trkpt lat="37.045" lon="27.86222">
        <ele>547</ele>
      </trkpt>
      <trkpt lat="37.045" lon="27.86221">
        <ele>547</ele>
      </trkpt>
      <trkpt lat="37.045" lon="27.86221">
        <ele>547.1</ele>
      </trkpt>
      <trkpt lat="37.045" lon="27.86221">
        <ele>547.1</ele>
      </trkpt>
      <trkpt lat="37.045" lon="27.86221">
        <ele>547.1</ele>
      </trkpt>
      <trkpt lat="37.045" lon="27.86221">
        <ele>547.1</ele>
      </trkpt>
      <trkpt lat="37.045" lon="27.86221">
        <ele>547.1</ele>
      </trkpt>
      <trkpt lat="37.045" lon="27.86221">
        <ele>547.2</ele>
      </trkpt>
      <trkpt lat="37.045" lon="27.8622">
        <ele>547.2</ele>
      </trkpt>
      <trkpt lat="37.045" lon="27.8622">
        <ele>547.2</ele>
      </trkpt>
      <trkpt lat="37.045" lon="27.8622">
        <ele>547.2</ele>
      </trkpt>
      <trkpt lat="37.045" lon="27.8622">
        <ele>547.2</ele>
      </trkpt>
      <trkpt lat="37.045" lon="27.8622">
        <ele>547.3</ele>
      </trkpt>
      <trkpt lat="37.045" lon="27.8622">
        <ele>547.3</ele>
      </trkpt>
      <trkpt lat="37.045" lon="27.8622">
        <ele>547.3</ele>
      </trkpt>
      <trkpt lat="37.045" lon="27.86219">
        <ele>547.3</ele>
      </trkpt>
      <trkpt lat="37.045" lon="27.86219">
        <ele>547.3</ele>
      </trkpt>
      <trkpt lat="37.045" lon="27.86218">
        <ele>547.2</ele>
      </trkpt>
      <trkpt lat="37.045" lon="27.86217">
        <ele>547.2</ele>
      </trkpt>
      <trkpt lat="37.045" lon="27.86217">
        <ele>547.3</ele>
      </trkpt>
      <trkpt lat="37.045" lon="27.86218">
        <ele>547.3</ele>
      </trkpt>
      <trkpt lat="37.045" lon="27.86219">
        <ele>547.4</ele>
      </trkpt>
      <trkpt lat="37.04497" lon="27.86231">
        <ele>547.4</ele>
      </trkpt>
      <trkpt lat="37.04493" lon="27.86246">
        <ele>547.8</ele>
      </trkpt>
      <trkpt lat="37.04491" lon="27.86255">
        <ele>548.2</ele>
      </trkpt>
      <trkpt lat="37.04489" lon="27.86263">
        <ele>548.4</ele>
      </trkpt>
      <trkpt lat="37.04486" lon="27.86275">
        <ele>548.9</ele>
      </trkpt>
      <trkpt lat="37.04482" lon="27.86286">
        <ele>549.5</ele>
      </trkpt>
      <trkpt lat="37.0448" lon="27.86294">
        <ele>549.8</ele>
      </trkpt>
      <trkpt lat="37.04477" lon="27.86303">
        <ele>550</ele>
      </trkpt>
      <trkpt lat="37.04475" lon="27.86314">
        <ele>549.8</ele>
      </trkpt>
      <trkpt lat="37.04474" lon="27.8632">
        <ele>549.8</ele>
      </trkpt>
      <trkpt lat="37.04474" lon="27.86321">
        <ele>549.8</ele>
      </trkpt>
      <trkpt lat="37.04473" lon="27.86322">
        <ele>549.9</ele>
      </trkpt>
      <trkpt lat="37.04473" lon="27.86322">
        <ele>550</ele>
      </trkpt>
      <trkpt lat="37.04473" lon="27.86322">
        <ele>550.1</ele>
      </trkpt>
      <trkpt lat="37.04472" lon="27.86321">
        <ele>550.2</ele>
      </trkpt>
      <trkpt lat="37.04472" lon="27.86321">
        <ele>550.3</ele>
      </trkpt>
      <trkpt lat="37.04472" lon="27.86322">
        <ele>550.3</ele>
      </trkpt>
      <trkpt lat="37.04472" lon="27.86322">
        <ele>550.3</ele>
      </trkpt>
      <trkpt lat="37.04472" lon="27.86322">
        <ele>550.3</ele>
      </trkpt>
      <trkpt lat="37.04472" lon="27.86322">
        <ele>550.3</ele>
      </trkpt>
      <trkpt lat="37.04472" lon="27.8632">
        <ele>550.3</ele>
      </trkpt>
      <trkpt lat="37.04472" lon="27.8632">
        <ele>550.3</ele>
      </trkpt>
      <trkpt lat="37.04472" lon="27.8632">
        <ele>550.3</ele>
      </trkpt>
      <trkpt lat="37.04472" lon="27.86321">
        <ele>550.4</ele>
      </trkpt>
      <trkpt lat="37.04471" lon="27.86322">
        <ele>550.4</ele>
      </trkpt>
      <trkpt lat="37.04471" lon="27.86324">
        <ele>550.4</ele>
      </trkpt>
      <trkpt lat="37.04471" lon="27.86325">
        <ele>550.4</ele>
      </trkpt>
      <trkpt lat="37.0447" lon="27.86325">
        <ele>550.5</ele>
      </trkpt>
      <trkpt lat="37.0447" lon="27.86325">
        <ele>550.6</ele>
      </trkpt>
      <trkpt lat="37.0447" lon="27.86324">
        <ele>550.6</ele>
      </trkpt>
      <trkpt lat="37.0447" lon="27.86324">
        <ele>550.7</ele>
      </trkpt>
      <trkpt lat="37.0447" lon="27.86324">
        <ele>550.7</ele>
      </trkpt>
      <trkpt lat="37.0447" lon="27.86324">
        <ele>550.6</ele>
      </trkpt>
      <trkpt lat="37.0447" lon="27.86325">
        <ele>550.6</ele>
      </trkpt>
      <trkpt lat="37.0447" lon="27.86326">
        <ele>550.6</ele>
      </trkpt>
      <trkpt lat="37.0447" lon="27.86327">
        <ele>550.5</ele>
      </trkpt>
      <trkpt lat="37.0447" lon="27.86326">
        <ele>550.5</ele>
      </trkpt>
      <trkpt lat="37.0447" lon="27.86326">
        <ele>550.5</ele>
      </trkpt>
      <trkpt lat="37.0447" lon="27.86326">
        <ele>550.5</ele>
      </trkpt>
      <trkpt lat="37.0447" lon="27.86325">
        <ele>550.5</ele>
      </trkpt>
      <trkpt lat="37.0447" lon="27.86326">
        <ele>550.5</ele>
      </trkpt>
      <trkpt lat="37.0447" lon="27.86327">
        <ele>550.4</ele>
      </trkpt>
      <trkpt lat="37.0447" lon="27.86327">
        <ele>550.3</ele>
      </trkpt>
      <trkpt lat="37.04471" lon="27.86327">
        <ele>550.3</ele>
      </trkpt>
      <trkpt lat="37.04471" lon="27.86327">
        <ele>550.3</ele>
      </trkpt>
      <trkpt lat="37.04471" lon="27.86327">
        <ele>550.3</ele>
      </trkpt>
      <trkpt lat="37.0447" lon="27.86327">
        <ele>550.3</ele>
      </trkpt>
      <trkpt lat="37.0447" lon="27.86329">
        <ele>550.3</ele>
      </trkpt>
      <trkpt lat="37.04468" lon="27.86335">
        <ele>550.3</ele>
      </trkpt>
      <trkpt lat="37.04466" lon="27.86341">
        <ele>550.4</ele>
      </trkpt>
      <trkpt lat="37.04462" lon="27.86348">
        <ele>550.4</ele>
      </trkpt>
      <trkpt lat="37.04456" lon="27.8636">
        <ele>550.6</ele>
      </trkpt>
      <trkpt lat="37.04452" lon="27.86366">
        <ele>550.8</ele>
      </trkpt>
      <trkpt lat="37.04449" lon="27.86369">
        <ele>551</ele>
      </trkpt>
      <trkpt lat="37.04448" lon="27.86371">
        <ele>551</ele>
      </trkpt>
      <trkpt lat="37.04449" lon="27.8637">
        <ele>550.9</ele>
      </trkpt>
      <trkpt lat="37.04449" lon="27.8637">
        <ele>551</ele>
      </trkpt>
      <trkpt lat="37.04448" lon="27.8637">
        <ele>551</ele>
      </trkpt>
      <trkpt lat="37.04448" lon="27.8637">
        <ele>551</ele>
      </trkpt>
      <trkpt lat="37.04448" lon="27.8637">
        <ele>551</ele>
      </trkpt>
      <trkpt lat="37.04448" lon="27.8637">
        <ele>551.1</ele>
      </trkpt>
      <trkpt lat="37.04448" lon="27.8637">
        <ele>551.1</ele>
      </trkpt>
      <trkpt lat="37.04448" lon="27.8637">
        <ele>551.2</ele>
      </trkpt>
      <trkpt lat="37.04448" lon="27.8637">
        <ele>551.2</ele>
      </trkpt>
      <trkpt lat="37.04447" lon="27.8637">
        <ele>551.4</ele>
      </trkpt>
      <trkpt lat="37.04447" lon="27.8637">
        <ele>551.4</ele>
      </trkpt>
      <trkpt lat="37.04447" lon="27.8637">
        <ele>551.4</ele>
      </trkpt>
      <trkpt lat="37.04447" lon="27.8637">
        <ele>551.4</ele>
      </trkpt>
      <trkpt lat="37.04447" lon="27.8637">
        <ele>551.4</ele>
      </trkpt>
      <trkpt lat="37.04447" lon="27.86369">
        <ele>551.4</ele>
      </trkpt>
      <trkpt lat="37.04447" lon="27.86369">
        <ele>551.4</ele>
      </trkpt>
      <trkpt lat="37.04447" lon="27.86369">
        <ele>551.4</ele>
      </trkpt>
      <trkpt lat="37.04447" lon="27.86369">
        <ele>551.4</ele>
      </trkpt>
      <trkpt lat="37.04448" lon="27.86369">
        <ele>551.4</ele>
      </trkpt>
      <trkpt lat="37.04448" lon="27.86369">
        <ele>551.4</ele>
      </trkpt>
      <trkpt lat="37.04448" lon="27.86369">
        <ele>551.3</ele>
      </trkpt>
      <trkpt lat="37.04448" lon="27.86369">
        <ele>551.3</ele>
      </trkpt>
      <trkpt lat="37.04448" lon="27.86369">
        <ele>551.3</ele>
      </trkpt>
      <trkpt lat="37.04448" lon="27.86369">
        <ele>551.3</ele>
      </trkpt>
      <trkpt lat="37.04448" lon="27.86369">
        <ele>551.2</ele>
      </trkpt>
      <trkpt lat="37.04449" lon="27.86369">
        <ele>551.2</ele>
      </trkpt>
      <trkpt lat="37.04448" lon="27.86369">
        <ele>551.2</ele>
      </trkpt>
      <trkpt lat="37.04448" lon="27.8637">
        <ele>551.2</ele>
      </trkpt>
      <trkpt lat="37.04446" lon="27.86372">
        <ele>551.3</ele>
      </trkpt>
      <trkpt lat="37.04445" lon="27.86373">
        <ele>551.4</ele>
      </trkpt>
      <trkpt lat="37.04442" lon="27.86376">
        <ele>551.4</ele>
      </trkpt>
      <trkpt lat="37.04441" lon="27.86378">
        <ele>551.5</ele>
      </trkpt>
      <trkpt lat="37.04439" lon="27.8638">
        <ele>551.5</ele>
      </trkpt>
      <trkpt lat="37.04439" lon="27.8638">
        <ele>551.5</ele>
      </trkpt>
      <trkpt lat="37.04439" lon="27.8638">
        <ele>551.5</ele>
      </trkpt>
      <trkpt lat="37.04439" lon="27.86381">
        <ele>551.4</ele>
      </trkpt>
      <trkpt lat="37.04439" lon="27.86381">
        <ele>551.4</ele>
      </trkpt>
      <trkpt lat="37.04439" lon="27.86381">
        <ele>551.4</ele>
      </trkpt>
      <trkpt lat="37.04439" lon="27.8638">
        <ele>551.4</ele>
      </trkpt>
      <trkpt lat="37.0444" lon="27.8638">
        <ele>551.4</ele>
      </trkpt>
      <trkpt lat="37.0444" lon="27.8638">
        <ele>551.4</ele>
      </trkpt>
      <trkpt lat="37.0444" lon="27.86379">
        <ele>551.4</ele>
      </trkpt>
      <trkpt lat="37.04441" lon="27.86379">
        <ele>551.3</ele>
      </trkpt>
      <trkpt lat="37.04441" lon="27.86379">
        <ele>551.3</ele>
      </trkpt>
      <trkpt lat="37.04441" lon="27.86379">
        <ele>551.3</ele>
      </trkpt>
      <trkpt lat="37.04441" lon="27.86379">
        <ele>551.2</ele>
      </trkpt>
      <trkpt lat="37.04441" lon="27.86379">
        <ele>551.3</ele>
      </trkpt>
      <trkpt lat="37.04441" lon="27.8638">
        <ele>551.3</ele>
      </trkpt>
      <trkpt lat="37.04441" lon="27.8638">
        <ele>551.3</ele>
      </trkpt>
      <trkpt lat="37.0444" lon="27.8638">
        <ele>551.3</ele>
      </trkpt>
      <trkpt lat="37.0444" lon="27.86381">
        <ele>551.3</ele>
      </trkpt>
      <trkpt lat="37.0444" lon="27.86381">
        <ele>551.3</ele>
      </trkpt>
      <trkpt lat="37.0444" lon="27.86381">
        <ele>551.3</ele>
      </trkpt>
      <trkpt lat="37.0444" lon="27.86381">
        <ele>551.3</ele>
      </trkpt>
      <trkpt lat="37.0444" lon="27.8638">
        <ele>551.3</ele>
      </trkpt>
      <trkpt lat="37.0444" lon="27.8638">
        <ele>551.3</ele>
      </trkpt>
      <trkpt lat="37.0444" lon="27.86379">
        <ele>551.4</ele>
      </trkpt>
      <trkpt lat="37.04441" lon="27.86379">
        <ele>551.4</ele>
      </trkpt>
      <trkpt lat="37.04441" lon="27.86379">
        <ele>551.4</ele>
      </trkpt>
      <trkpt lat="37.04441" lon="27.86378">
        <ele>551.4</ele>
      </trkpt>
      <trkpt lat="37.04441" lon="27.86379">
        <ele>551.4</ele>
      </trkpt>
      <trkpt lat="37.0444" lon="27.86379">
        <ele>551.4</ele>
      </trkpt>
      <trkpt lat="37.0444" lon="27.86379">
        <ele>551.5</ele>
      </trkpt>
      <trkpt lat="37.04439" lon="27.8638">
        <ele>551.5</ele>
      </trkpt>
      <trkpt lat="37.04439" lon="27.8638">
        <ele>551.5</ele>
      </trkpt>
      <trkpt lat="37.04439" lon="27.8638">
        <ele>551.6</ele>
      </trkpt>
      <trkpt lat="37.04439" lon="27.86379">
        <ele>551.6</ele>
      </trkpt>
      <trkpt lat="37.04439" lon="27.86379">
        <ele>551.6</ele>
      </trkpt>
      <trkpt lat="37.04439" lon="27.86379">
        <ele>551.7</ele>
      </trkpt>
      <trkpt lat="37.04439" lon="27.86379">
        <ele>551.7</ele>
      </trkpt>
      <trkpt lat="37.04438" lon="27.8638">
        <ele>551.7</ele>
      </trkpt>
      <trkpt lat="37.04438" lon="27.8638">
        <ele>551.7</ele>
      </trkpt>
      <trkpt lat="37.04438" lon="27.8638">
        <ele>551.7</ele>
      </trkpt>
      <trkpt lat="37.04438" lon="27.8638">
        <ele>551.7</ele>
      </trkpt>
      <trkpt lat="37.04438" lon="27.8638">
        <ele>551.7</ele>
      </trkpt>
      <trkpt lat="37.04438" lon="27.8638">
        <ele>551.7</ele>
      </trkpt>
      <trkpt lat="37.04438" lon="27.8638">
        <ele>551.7</ele>
      </trkpt>
      <trkpt lat="37.04438" lon="27.8638">
        <ele>551.6</ele>
      </trkpt>
      <trkpt lat="37.04438" lon="27.8638">
        <ele>551.7</ele>
      </trkpt>
      <trkpt lat="37.04438" lon="27.86381">
        <ele>551.6</ele>
      </trkpt>
      <trkpt lat="37.04437" lon="27.86381">
        <ele>551.6</ele>
      </trkpt>
      <trkpt lat="37.04437" lon="27.86382">
        <ele>551.6</ele>
      </trkpt>
      <trkpt lat="37.04437" lon="27.86382">
        <ele>551.6</ele>
      </trkpt>
      <trkpt lat="37.04437" lon="27.86382">
        <ele>551.6</ele>
      </trkpt>
      <trkpt lat="37.04437" lon="27.86381">
        <ele>551.7</ele>
      </trkpt>
      <trkpt lat="37.04437" lon="27.86382">
        <ele>551.7</ele>
      </trkpt>
      <trkpt lat="37.04436" lon="27.86382">
        <ele>551.7</ele>
      </trkpt>
      <trkpt lat="37.04436" lon="27.86383">
        <ele>551.7</ele>
      </trkpt>
      <trkpt lat="37.04436" lon="27.86383">
        <ele>551.7</ele>
      </trkpt>
      <trkpt lat="37.04436" lon="27.86382">
        <ele>551.8</ele>
      </trkpt>
      <trkpt lat="37.04436" lon="27.86382">
        <ele>551.8</ele>
      </trkpt>
      <trkpt lat="37.04436" lon="27.86382">
        <ele>551.9</ele>
      </trkpt>
      <trkpt lat="37.04436" lon="27.86381">
        <ele>551.9</ele>
      </trkpt>
      <trkpt lat="37.04435" lon="27.86381">
        <ele>552</ele>
      </trkpt>
      <trkpt lat="37.04435" lon="27.86381">
        <ele>552</ele>
      </trkpt>
      <trkpt lat="37.04434" lon="27.86381">
        <ele>552.2</ele>
      </trkpt>
      <trkpt lat="37.04434" lon="27.86381">
        <ele>552.3</ele>
      </trkpt>
      <trkpt lat="37.04434" lon="27.86381">
        <ele>552.3</ele>
      </trkpt>
      <trkpt lat="37.04434" lon="27.86381">
        <ele>552.4</ele>
      </trkpt>
      <trkpt lat="37.04434" lon="27.8638">
        <ele>552.5</ele>
      </trkpt>
      <trkpt lat="37.04434" lon="27.8638">
        <ele>552.5</ele>
      </trkpt>
      <trkpt lat="37.04434" lon="27.86379">
        <ele>552.6</ele>
      </trkpt>
      <trkpt lat="37.04434" lon="27.86379">
        <ele>552.6</ele>
      </trkpt>
      <trkpt lat="37.04435" lon="27.86378">
        <ele>552.7</ele>
      </trkpt>
      <trkpt lat="37.04435" lon="27.86377">
        <ele>552.7</ele>
      </trkpt>
      <trkpt lat="37.04436" lon="27.86376">
        <ele>552.6</ele>
      </trkpt>
      <trkpt lat="37.04438" lon="27.86375">
        <ele>552.6</ele>
      </trkpt>
      <trkpt lat="37.04438" lon="27.86374">
        <ele>552.5</ele>
      </trkpt>
      <trkpt lat="37.04437" lon="27.86375">
        <ele>552.6</ele>
      </trkpt>
      <trkpt lat="37.04432" lon="27.8638">
        <ele>552.8</ele>
      </trkpt>
      <trkpt lat="37.04427" lon="27.86385">
        <ele>553</ele>
      </trkpt>
      <trkpt lat="37.04419" lon="27.86393">
        <ele>552.9</ele>
      </trkpt>
      <trkpt lat="37.04413" lon="27.86399">
        <ele>552.9</ele>
      </trkpt>
      <trkpt lat="37.04405" lon="27.86408">
        <ele>552.7</ele>
      </trkpt>
      <trkpt lat="37.04399" lon="27.86415">
        <ele>552.5</ele>
      </trkpt>
      <trkpt lat="37.04394" lon="27.8642">
        <ele>552.6</ele>
      </trkpt>
      <trkpt lat="37.04389" lon="27.86428">
        <ele>552.4</ele>
      </trkpt>
      <trkpt lat="37.04384" lon="27.86434">
        <ele>552.3</ele>
      </trkpt>
      <trkpt lat="37.04378" lon="27.86445">
        <ele>552</ele>
      </trkpt>
      <trkpt lat="37.04373" lon="27.86452">
        <ele>551.8</ele>
      </trkpt>
      <trkpt lat="37.04371" lon="27.86455">
        <ele>551.8</ele>
      </trkpt>
      <trkpt lat="37.04371" lon="27.86455">
        <ele>551.8</ele>
      </trkpt>
      <trkpt lat="37.0437" lon="27.86455">
        <ele>551.8</ele>
      </trkpt>
      <trkpt lat="37.0437" lon="27.86455">
        <ele>551.8</ele>
      </trkpt>
      <trkpt lat="37.0437" lon="27.86456">
        <ele>551.8</ele>
      </trkpt>
      <trkpt lat="37.0437" lon="27.86456">
        <ele>551.8</ele>
      </trkpt>
      <trkpt lat="37.0437" lon="27.86456">
        <ele>551.8</ele>
      </trkpt>
      <trkpt lat="37.0437" lon="27.86456">
        <ele>551.8</ele>
      </trkpt>
      <trkpt lat="37.0437" lon="27.86456">
        <ele>551.9</ele>
      </trkpt>
      <trkpt lat="37.0437" lon="27.86455">
        <ele>551.9</ele>
      </trkpt>
      <trkpt lat="37.0437" lon="27.86455">
        <ele>551.9</ele>
      </trkpt>
      <trkpt lat="37.0437" lon="27.86455">
        <ele>551.9</ele>
      </trkpt>
      <trkpt lat="37.0437" lon="27.86454">
        <ele>551.9</ele>
      </trkpt>
      <trkpt lat="37.0437" lon="27.86454">
        <ele>552</ele>
      </trkpt>
      <trkpt lat="37.0437" lon="27.86454">
        <ele>552</ele>
      </trkpt>
      <trkpt lat="37.0437" lon="27.86454">
        <ele>552</ele>
      </trkpt>
      <trkpt lat="37.0437" lon="27.86455">
        <ele>552</ele>
      </trkpt>
      <trkpt lat="37.0437" lon="27.86455">
        <ele>552</ele>
      </trkpt>
      <trkpt lat="37.0437" lon="27.86454">
        <ele>552</ele>
      </trkpt>
      <trkpt lat="37.0437" lon="27.86454">
        <ele>552</ele>
      </trkpt>
      <trkpt lat="37.04371" lon="27.86454">
        <ele>551.9</ele>
      </trkpt>
      <trkpt lat="37.04371" lon="27.86454">
        <ele>551.9</ele>
      </trkpt>
      <trkpt lat="37.04371" lon="27.86454">
        <ele>551.9</ele>
      </trkpt>
      <trkpt lat="37.04371" lon="27.86454">
        <ele>551.8</ele>
      </trkpt>
      <trkpt lat="37.04371" lon="27.86454">
        <ele>551.8</ele>
      </trkpt>
      <trkpt lat="37.04371" lon="27.86454">
        <ele>551.8</ele>
      </trkpt>
      <trkpt lat="37.04371" lon="27.86454">
        <ele>551.8</ele>
      </trkpt>
      <trkpt lat="37.04371" lon="27.86455">
        <ele>551.8</ele>
      </trkpt>
      <trkpt lat="37.04371" lon="27.86455">
        <ele>551.8</ele>
      </trkpt>
      <trkpt lat="37.04371" lon="27.86455">
        <ele>551.7</ele>
      </trkpt>
      <trkpt lat="37.0437" lon="27.86456">
        <ele>551.7</ele>
      </trkpt>
      <trkpt lat="37.0437" lon="27.86456">
        <ele>551.7</ele>
      </trkpt>
      <trkpt lat="37.0437" lon="27.86456">
        <ele>551.7</ele>
      </trkpt>
      <trkpt lat="37.0437" lon="27.86457">
        <ele>551.7</ele>
      </trkpt>
      <trkpt lat="37.0437" lon="27.86457">
        <ele>551.7</ele>
      </trkpt>
      <trkpt lat="37.0437" lon="27.86457">
        <ele>551.6</ele>
      </trkpt>
      <trkpt lat="37.04369" lon="27.86457">
        <ele>551.7</ele>
      </trkpt>
      <trkpt lat="37.04369" lon="27.86457">
        <ele>551.7</ele>
      </trkpt>
      <trkpt lat="37.04369" lon="27.86458">
        <ele>551.7</ele>
      </trkpt>
      <trkpt lat="37.04369" lon="27.86457">
        <ele>551.7</ele>
      </trkpt>
      <trkpt lat="37.04369" lon="27.86457">
        <ele>551.8</ele>
      </trkpt>
      <trkpt lat="37.04369" lon="27.86457">
        <ele>551.8</ele>
      </trkpt>
      <trkpt lat="37.0437" lon="27.86456">
        <ele>551.8</ele>
      </trkpt>
      <trkpt lat="37.0437" lon="27.86456">
        <ele>551.8</ele>
      </trkpt>
      <trkpt lat="37.0437" lon="27.86456">
        <ele>551.7</ele>
      </trkpt>
      <trkpt lat="37.04371" lon="27.86456">
        <ele>551.7</ele>
      </trkpt>
      <trkpt lat="37.04371" lon="27.86455">
        <ele>551.6</ele>
      </trkpt>
      <trkpt lat="37.04371" lon="27.86455">
        <ele>551.6</ele>
      </trkpt>
      <trkpt lat="37.04372" lon="27.86455">
        <ele>551.6</ele>
      </trkpt>
      <trkpt lat="37.04372" lon="27.86455">
        <ele>551.6</ele>
      </trkpt>
      <trkpt lat="37.04372" lon="27.86455">
        <ele>551.6</ele>
      </trkpt>
      <trkpt lat="37.04371" lon="27.86456">
        <ele>551.5</ele>
      </trkpt>
      <trkpt lat="37.04371" lon="27.86456">
        <ele>551.6</ele>
      </trkpt>
      <trkpt lat="37.04371" lon="27.86456">
        <ele>551.5</ele>
      </trkpt>
      <trkpt lat="37.04371" lon="27.86456">
        <ele>551.5</ele>
      </trkpt>
      <trkpt lat="37.04371" lon="27.86457">
        <ele>551.6</ele>
      </trkpt>
      <trkpt lat="37.0437" lon="27.86457">
        <ele>551.6</ele>
      </trkpt>
      <trkpt lat="37.0437" lon="27.86457">
        <ele>551.6</ele>
      </trkpt>
      <trkpt lat="37.0437" lon="27.86456">
        <ele>551.7</ele>
      </trkpt>
      <trkpt lat="37.0437" lon="27.86456">
        <ele>551.7</ele>
      </trkpt>
      <trkpt lat="37.04371" lon="27.86455">
        <ele>551.7</ele>
      </trkpt>
      <trkpt lat="37.04371" lon="27.86455">
        <ele>551.8</ele>
      </trkpt>
      <trkpt lat="37.04371" lon="27.86455">
        <ele>551.8</ele>
      </trkpt>
      <trkpt lat="37.04371" lon="27.86455">
        <ele>551.8</ele>
      </trkpt>
      <trkpt lat="37.04371" lon="27.86455">
        <ele>551.8</ele>
      </trkpt>
      <trkpt lat="37.04371" lon="27.86455">
        <ele>551.8</ele>
      </trkpt>
      <trkpt lat="37.04371" lon="27.86455">
        <ele>551.8</ele>
      </trkpt>
      <trkpt lat="37.0437" lon="27.86455">
        <ele>551.8</ele>
      </trkpt>
      <trkpt lat="37.04369" lon="27.86457">
        <ele>551.8</ele>
      </trkpt>
      <trkpt lat="37.04366" lon="27.8646">
        <ele>551.9</ele>
      </trkpt>
      <trkpt lat="37.04365" lon="27.86462">
        <ele>551.9</ele>
      </trkpt>
      <trkpt lat="37.04363" lon="27.86463">
        <ele>552</ele>
      </trkpt>
      <trkpt lat="37.04361" lon="27.86466">
        <ele>552</ele>
      </trkpt>
      <trkpt lat="37.04355" lon="27.86473">
        <ele>551.9</ele>
      </trkpt>
      <trkpt lat="37.04352" lon="27.86478">
        <ele>551.8</ele>
      </trkpt>
      <trkpt lat="37.04349" lon="27.86483">
        <ele>551.6</ele>
      </trkpt>
      <trkpt lat="37.04347" lon="27.86487">
        <ele>551.5</ele>
      </trkpt>
      <trkpt lat="37.04346" lon="27.86488">
        <ele>551.5</ele>
      </trkpt>
      <trkpt lat="37.04346" lon="27.86487">
        <ele>551.6</ele>
      </trkpt>
      <trkpt lat="37.04346" lon="27.86487">
        <ele>551.6</ele>
      </trkpt>
      <trkpt lat="37.04345" lon="27.86487">
        <ele>551.7</ele>
      </trkpt>
      <trkpt lat="37.04345" lon="27.86487">
        <ele>551.8</ele>
      </trkpt>
      <trkpt lat="37.04345" lon="27.86486">
        <ele>551.8</ele>
      </trkpt>
      <trkpt lat="37.04345" lon="27.86486">
        <ele>551.9</ele>
      </trkpt>
      <trkpt lat="37.04345" lon="27.86486">
        <ele>551.9</ele>
      </trkpt>
      <trkpt lat="37.04345" lon="27.86485">
        <ele>552</ele>
      </trkpt>
      <trkpt lat="37.04345" lon="27.86485">
        <ele>552</ele>
      </trkpt>
      <trkpt lat="37.04345" lon="27.86485">
        <ele>552</ele>
      </trkpt>
      <trkpt lat="37.04345" lon="27.86485">
        <ele>552.1</ele>
      </trkpt>
      <trkpt lat="37.04345" lon="27.86485">
        <ele>552.1</ele>
      </trkpt>
      <trkpt lat="37.04345" lon="27.86485">
        <ele>552.1</ele>
      </trkpt>
      <trkpt lat="37.04345" lon="27.86485">
        <ele>552</ele>
      </trkpt>
      <trkpt lat="37.04346" lon="27.86485">
        <ele>552</ele>
      </trkpt>
      <trkpt lat="37.04346" lon="27.86485">
        <ele>551.9</ele>
      </trkpt>
      <trkpt lat="37.04345" lon="27.86486">
        <ele>551.9</ele>
      </trkpt>
      <trkpt lat="37.04345" lon="27.86486">
        <ele>551.9</ele>
      </trkpt>
      <trkpt lat="37.04342" lon="27.86491">
        <ele>551.8</ele>
      </trkpt>
      <trkpt lat="37.04338" lon="27.86495">
        <ele>551.9</ele>
      </trkpt>
      <trkpt lat="37.04333" lon="27.86501">
        <ele>551.8</ele>
      </trkpt>
      <trkpt lat="37.04327" lon="27.8651">
        <ele>550.3</ele>
      </trkpt>
      <trkpt lat="37.0432" lon="27.8652">
        <ele>548.6</ele>
      </trkpt>
      <trkpt lat="37.04317" lon="27.86527">
        <ele>547.4</ele>
      </trkpt>
      <trkpt lat="37.04313" lon="27.86534">
        <ele>546.3</ele>
      </trkpt>
      <trkpt lat="37.04308" lon="27.86542">
        <ele>545.1</ele>
      </trkpt>
      <trkpt lat="37.04304" lon="27.86548">
        <ele>544.1</ele>
      </trkpt>
      <trkpt lat="37.04299" lon="27.86557">
        <ele>542.8</ele>
      </trkpt>
      <trkpt lat="37.04294" lon="27.86564">
        <ele>541.8</ele>
      </trkpt>
      <trkpt lat="37.0429" lon="27.8657">
        <ele>540.9</ele>
      </trkpt>
      <trkpt lat="37.04289" lon="27.86573">
        <ele>540.5</ele>
      </trkpt>
      <trkpt lat="37.04289" lon="27.86574">
        <ele>540.4</ele>
      </trkpt>
      <trkpt lat="37.04289" lon="27.86573">
        <ele>540.4</ele>
      </trkpt>
      <trkpt lat="37.04289" lon="27.86573">
        <ele>540.4</ele>
      </trkpt>
      <trkpt lat="37.04289" lon="27.86574">
        <ele>540.4</ele>
      </trkpt>
      <trkpt lat="37.04289" lon="27.86574">
        <ele>540.3</ele>
      </trkpt>
      <trkpt lat="37.04289" lon="27.86574">
        <ele>540.3</ele>
      </trkpt>
      <trkpt lat="37.04289" lon="27.86574">
        <ele>540.4</ele>
      </trkpt>
      <trkpt lat="37.04289" lon="27.86573">
        <ele>540.4</ele>
      </trkpt>
      <trkpt lat="37.04289" lon="27.86573">
        <ele>540.4</ele>
      </trkpt>
      <trkpt lat="37.04288" lon="27.86573">
        <ele>540.4</ele>
      </trkpt>
      <trkpt lat="37.04288" lon="27.86573">
        <ele>540.4</ele>
      </trkpt>
      <trkpt lat="37.04288" lon="27.86573">
        <ele>540.5</ele>
      </trkpt>
      <trkpt lat="37.04288" lon="27.86572">
        <ele>540.6</ele>
      </trkpt>
      <trkpt lat="37.04288" lon="27.86572">
        <ele>540.7</ele>
      </trkpt>
      <trkpt lat="37.04287" lon="27.86572">
        <ele>540.7</ele>
      </trkpt>
      <trkpt lat="37.04287" lon="27.86572">
        <ele>540.7</ele>
      </trkpt>
      <trkpt lat="37.04286" lon="27.86572">
        <ele>540.7</ele>
      </trkpt>
      <trkpt lat="37.04286" lon="27.86571">
        <ele>540.9</ele>
      </trkpt>
      <trkpt lat="37.04287" lon="27.86571">
        <ele>541</ele>
      </trkpt>
      <trkpt lat="37.04287" lon="27.8657">
        <ele>541.1</ele>
      </trkpt>
      <trkpt lat="37.04287" lon="27.8657">
        <ele>541.2</ele>
      </trkpt>
      <trkpt lat="37.04286" lon="27.86571">
        <ele>540.9</ele>
      </trkpt>
      <trkpt lat="37.04283" lon="27.86578">
        <ele>540</ele>
      </trkpt>
      <trkpt lat="37.0428" lon="27.86587">
        <ele>538.8</ele>
      </trkpt>
      <trkpt lat="37.04278" lon="27.86598">
        <ele>537.9</ele>
      </trkpt>
      <trkpt lat="37.04276" lon="27.86606">
        <ele>537.3</ele>
      </trkpt>
      <trkpt lat="37.04275" lon="27.86616">
        <ele>536.5</ele>
      </trkpt>
      <trkpt lat="37.04274" lon="27.86624">
        <ele>535.9</ele>
      </trkpt>
      <trkpt lat="37.04273" lon="27.86633">
        <ele>535.2</ele>
      </trkpt>
      <trkpt lat="37.04272" lon="27.86641">
        <ele>534.6</ele>
      </trkpt>
      <trkpt lat="37.04271" lon="27.86653">
        <ele>533.7</ele>
      </trkpt>
      <trkpt lat="37.0427" lon="27.86661">
        <ele>533.2</ele>
      </trkpt>
      <trkpt lat="37.04269" lon="27.8667">
        <ele>532.6</ele>
      </trkpt>
      <trkpt lat="37.04267" lon="27.86682">
        <ele>531.8</ele>
      </trkpt>
      <trkpt lat="37.04265" lon="27.86696">
        <ele>530.9</ele>
      </trkpt>
      <trkpt lat="37.04264" lon="27.86704">
        <ele>530.3</ele>
      </trkpt>
      <trkpt lat="37.04262" lon="27.8671">
        <ele>529.8</ele>
      </trkpt>
      <trkpt lat="37.04261" lon="27.86712">
        <ele>529.7</ele>
      </trkpt>
      <trkpt lat="37.04261" lon="27.86712">
        <ele>529.7</ele>
      </trkpt>
      <trkpt lat="37.04261" lon="27.86712">
        <ele>529.7</ele>
      </trkpt>
      <trkpt lat="37.04261" lon="27.86712">
        <ele>529.7</ele>
      </trkpt>
      <trkpt lat="37.04261" lon="27.86711">
        <ele>529.8</ele>
      </trkpt>
      <trkpt lat="37.04261" lon="27.86711">
        <ele>529.8</ele>
      </trkpt>
      <trkpt lat="37.04261" lon="27.86711">
        <ele>529.9</ele>
      </trkpt>
      <trkpt lat="37.04261" lon="27.8671">
        <ele>530</ele>
      </trkpt>
      <trkpt lat="37.04261" lon="27.8671">
        <ele>530</ele>
      </trkpt>
      <trkpt lat="37.04261" lon="27.8671">
        <ele>529.9</ele>
      </trkpt>
      <trkpt lat="37.04261" lon="27.8671">
        <ele>529.9</ele>
      </trkpt>
      <trkpt lat="37.04261" lon="27.86711">
        <ele>529.8</ele>
      </trkpt>
      <trkpt lat="37.04261" lon="27.86711">
        <ele>529.8</ele>
      </trkpt>
      <trkpt lat="37.04261" lon="27.86712">
        <ele>529.7</ele>
      </trkpt>
      <trkpt lat="37.04261" lon="27.86712">
        <ele>529.7</ele>
      </trkpt>
      <trkpt lat="37.04261" lon="27.86712">
        <ele>529.7</ele>
      </trkpt>
      <trkpt lat="37.04261" lon="27.86712">
        <ele>529.7</ele>
      </trkpt>
      <trkpt lat="37.04261" lon="27.8671">
        <ele>529.9</ele>
      </trkpt>
      <trkpt lat="37.04261" lon="27.8671">
        <ele>529.9</ele>
      </trkpt>
      <trkpt lat="37.04261" lon="27.8671">
        <ele>529.9</ele>
      </trkpt>
      <trkpt lat="37.04261" lon="27.8671">
        <ele>529.9</ele>
      </trkpt>
      <trkpt lat="37.04261" lon="27.8671">
        <ele>530</ele>
      </trkpt>
      <trkpt lat="37.04261" lon="27.8671">
        <ele>529.9</ele>
      </trkpt>
      <trkpt lat="37.04261" lon="27.86709">
        <ele>530</ele>
      </trkpt>
      <trkpt lat="37.04261" lon="27.8671">
        <ele>530</ele>
      </trkpt>
      <trkpt lat="37.04261" lon="27.86714">
        <ele>529.6</ele>
      </trkpt>
      <trkpt lat="37.04262" lon="27.8672">
        <ele>528.8</ele>
      </trkpt>
      <trkpt lat="37.04264" lon="27.86727">
        <ele>528.1</ele>
      </trkpt>
      <trkpt lat="37.04266" lon="27.86734">
        <ele>527.4</ele>
      </trkpt>
      <trkpt lat="37.04267" lon="27.86737">
        <ele>527.1</ele>
      </trkpt>
      <trkpt lat="37.04267" lon="27.86737">
        <ele>527.1</ele>
      </trkpt>
      <trkpt lat="37.04267" lon="27.86737">
        <ele>527.2</ele>
      </trkpt>
      <trkpt lat="37.04266" lon="27.86736">
        <ele>527.2</ele>
      </trkpt>
      <trkpt lat="37.04266" lon="27.86736">
        <ele>527.2</ele>
      </trkpt>
      <trkpt lat="37.04266" lon="27.86736">
        <ele>527.2</ele>
      </trkpt>
      <trkpt lat="37.04266" lon="27.86736">
        <ele>527.2</ele>
      </trkpt>
      <trkpt lat="37.04266" lon="27.86736">
        <ele>527.3</ele>
      </trkpt>
      <trkpt lat="37.04266" lon="27.86735">
        <ele>527.3</ele>
      </trkpt>
      <trkpt lat="37.04266" lon="27.86734">
        <ele>527.4</ele>
      </trkpt>
      <trkpt lat="37.04266" lon="27.86734">
        <ele>527.5</ele>
      </trkpt>
      <trkpt lat="37.04266" lon="27.86733">
        <ele>527.5</ele>
      </trkpt>
      <trkpt lat="37.04266" lon="27.86733">
        <ele>527.5</ele>
      </trkpt>
      <trkpt lat="37.04266" lon="27.86733">
        <ele>527.5</ele>
      </trkpt>
      <trkpt lat="37.04266" lon="27.86733">
        <ele>527.5</ele>
      </trkpt>
      <trkpt lat="37.04266" lon="27.86733">
        <ele>527.5</ele>
      </trkpt>
      <trkpt lat="37.04266" lon="27.86733">
        <ele>527.5</ele>
      </trkpt>
      <trkpt lat="37.04266" lon="27.86734">
        <ele>527.4</ele>
      </trkpt>
      <trkpt lat="37.04266" lon="27.86734">
        <ele>527.4</ele>
      </trkpt>
      <trkpt lat="37.04267" lon="27.86735">
        <ele>527.3</ele>
      </trkpt>
      <trkpt lat="37.04267" lon="27.86735">
        <ele>527.3</ele>
      </trkpt>
      <trkpt lat="37.04267" lon="27.86735">
        <ele>527.3</ele>
      </trkpt>
      <trkpt lat="37.04267" lon="27.86736">
        <ele>527.2</ele>
      </trkpt>
      <trkpt lat="37.04267" lon="27.86735">
        <ele>527.3</ele>
      </trkpt>
      <trkpt lat="37.04267" lon="27.86736">
        <ele>527.2</ele>
      </trkpt>
      <trkpt lat="37.04267" lon="27.86736">
        <ele>527.2</ele>
      </trkpt>
      <trkpt lat="37.04267" lon="27.86735">
        <ele>527.3</ele>
      </trkpt>
      <trkpt lat="37.04267" lon="27.86734">
        <ele>527.4</ele>
      </trkpt>
      <trkpt lat="37.04267" lon="27.86734">
        <ele>527.4</ele>
      </trkpt>
      <trkpt lat="37.04267" lon="27.86733">
        <ele>527.4</ele>
      </trkpt>
      <trkpt lat="37.04267" lon="27.86733">
        <ele>527.4</ele>
      </trkpt>
      <trkpt lat="37.04267" lon="27.86733">
        <ele>527.5</ele>
      </trkpt>
      <trkpt lat="37.04267" lon="27.86733">
        <ele>527.5</ele>
      </trkpt>
      <trkpt lat="37.04266" lon="27.86733">
        <ele>527.5</ele>
      </trkpt>
      <trkpt lat="37.04265" lon="27.86733">
        <ele>527.5</ele>
      </trkpt>
      <trkpt lat="37.04265" lon="27.86734">
        <ele>527.5</ele>
      </trkpt>
      <trkpt lat="37.04265" lon="27.86734">
        <ele>527.5</ele>
      </trkpt>
      <trkpt lat="37.04264" lon="27.86734">
        <ele>527.4</ele>
      </trkpt>
      <trkpt lat="37.04264" lon="27.86734">
        <ele>527.5</ele>
      </trkpt>
      <trkpt lat="37.04264" lon="27.86734">
        <ele>527.5</ele>
      </trkpt>
      <trkpt lat="37.04264" lon="27.86733">
        <ele>527.5</ele>
      </trkpt>
      <trkpt lat="37.04264" lon="27.86733">
        <ele>527.5</ele>
      </trkpt>
      <trkpt lat="37.04263" lon="27.86742">
        <ele>526.7</ele>
      </trkpt>
      <trkpt lat="37.04263" lon="27.8675">
        <ele>526</ele>
      </trkpt>
      <trkpt lat="37.04263" lon="27.86761">
        <ele>524.6</ele>
      </trkpt>
      <trkpt lat="37.04263" lon="27.86771">
        <ele>523.5</ele>
      </trkpt>
      <trkpt lat="37.04262" lon="27.86784">
        <ele>521.8</ele>
      </trkpt>
      <trkpt lat="37.04263" lon="27.86793">
        <ele>520.9</ele>
      </trkpt>
      <trkpt lat="37.04265" lon="27.86802">
        <ele>520</ele>
      </trkpt>
      <trkpt lat="37.04267" lon="27.86811">
        <ele>519.4</ele>
      </trkpt>
      <trkpt lat="37.0427" lon="27.86821">
        <ele>518.8</ele>
      </trkpt>
      <trkpt lat="37.04275" lon="27.86834">
        <ele>518.6</ele>
      </trkpt>
      <trkpt lat="37.04278" lon="27.86842">
        <ele>518</ele>
      </trkpt>
      <trkpt lat="37.04281" lon="27.86849">
        <ele>517.7</ele>
      </trkpt>
      <trkpt lat="37.04285" lon="27.8686">
        <ele>517.2</ele>
      </trkpt>
      <trkpt lat="37.04287" lon="27.86864">
        <ele>517.2</ele>
      </trkpt>
      <trkpt lat="37.04287" lon="27.86863">
        <ele>517.3</ele>
      </trkpt>
      <trkpt lat="37.04287" lon="27.86863">
        <ele>517.4</ele>
      </trkpt>
      <trkpt lat="37.04288" lon="27.86862">
        <ele>517.5</ele>
      </trkpt>
      <trkpt lat="37.04288" lon="27.86862">
        <ele>517.6</ele>
      </trkpt>
      <trkpt lat="37.04288" lon="27.86862">
        <ele>517.6</ele>
      </trkpt>
      <trkpt lat="37.04288" lon="27.86862">
        <ele>517.7</ele>
      </trkpt>
      <trkpt lat="37.04288" lon="27.86862">
        <ele>517.7</ele>
      </trkpt>
      <trkpt lat="37.04288" lon="27.86862">
        <ele>517.6</ele>
      </trkpt>
      <trkpt lat="37.04288" lon="27.86863">
        <ele>517.6</ele>
      </trkpt>
      <trkpt lat="37.04288" lon="27.86863">
        <ele>517.4</ele>
      </trkpt>
      <trkpt lat="37.04288" lon="27.86863">
        <ele>517.4</ele>
      </trkpt>
      <trkpt lat="37.04288" lon="27.86863">
        <ele>517.4</ele>
      </trkpt>
      <trkpt lat="37.04288" lon="27.86863">
        <ele>517.3</ele>
      </trkpt>
      <trkpt lat="37.04287" lon="27.86864">
        <ele>517.1</ele>
      </trkpt>
      <trkpt lat="37.04287" lon="27.86864">
        <ele>517.1</ele>
      </trkpt>
      <trkpt lat="37.04287" lon="27.86865">
        <ele>517</ele>
      </trkpt>
      <trkpt lat="37.04287" lon="27.86865">
        <ele>516.9</ele>
      </trkpt>
      <trkpt lat="37.04287" lon="27.86866">
        <ele>516.8</ele>
      </trkpt>
      <trkpt lat="37.04287" lon="27.86867">
        <ele>516.6</ele>
      </trkpt>
      <trkpt lat="37.04287" lon="27.86867">
        <ele>516.5</ele>
      </trkpt>
      <trkpt lat="37.04287" lon="27.86868">
        <ele>516.5</ele>
      </trkpt>
      <trkpt lat="37.04287" lon="27.86868">
        <ele>516.5</ele>
      </trkpt>
      <trkpt lat="37.04287" lon="27.86867">
        <ele>516.6</ele>
      </trkpt>
      <trkpt lat="37.04286" lon="27.86866">
        <ele>516.7</ele>
      </trkpt>
      <trkpt lat="37.04286" lon="27.86865">
        <ele>516.7</ele>
      </trkpt>
      <trkpt lat="37.04286" lon="27.86865">
        <ele>516.7</ele>
      </trkpt>
      <trkpt lat="37.04286" lon="27.86865">
        <ele>516.7</ele>
      </trkpt>
      <trkpt lat="37.04286" lon="27.86865">
        <ele>516.7</ele>
      </trkpt>
      <trkpt lat="37.04286" lon="27.86864">
        <ele>516.7</ele>
      </trkpt>
      <trkpt lat="37.04285" lon="27.86864">
        <ele>516.6</ele>
      </trkpt>
      <trkpt lat="37.04285" lon="27.86863">
        <ele>516.7</ele>
      </trkpt>
      <trkpt lat="37.04285" lon="27.86863">
        <ele>516.6</ele>
      </trkpt>
      <trkpt lat="37.04285" lon="27.86863">
        <ele>516.6</ele>
      </trkpt>
      <trkpt lat="37.04285" lon="27.86863">
        <ele>516.6</ele>
      </trkpt>
      <trkpt lat="37.04285" lon="27.86863">
        <ele>516.7</ele>
      </trkpt>
      <trkpt lat="37.04285" lon="27.86862">
        <ele>516.7</ele>
      </trkpt>
      <trkpt lat="37.04285" lon="27.86862">
        <ele>516.7</ele>
      </trkpt>
      <trkpt lat="37.04285" lon="27.86862">
        <ele>516.9</ele>
      </trkpt>
      <trkpt lat="37.04285" lon="27.86861">
        <ele>516.9</ele>
      </trkpt>
      <trkpt lat="37.04285" lon="27.86861">
        <ele>517</ele>
      </trkpt>
      <trkpt lat="37.04285" lon="27.86861">
        <ele>517</ele>
      </trkpt>
      <trkpt lat="37.04285" lon="27.86861">
        <ele>517</ele>
      </trkpt>
      <trkpt lat="37.04285" lon="27.86861">
        <ele>516.9</ele>
      </trkpt>
      <trkpt lat="37.04285" lon="27.86864">
        <ele>516.6</ele>
      </trkpt>
      <trkpt lat="37.04286" lon="27.86872">
        <ele>515.6</ele>
      </trkpt>
      <trkpt lat="37.04288" lon="27.86881">
        <ele>515</ele>
      </trkpt>
      <trkpt lat="37.04294" lon="27.86899">
        <ele>514.7</ele>
      </trkpt>
      <trkpt lat="37.04301" lon="27.86917">
        <ele>515</ele>
      </trkpt>
      <trkpt lat="37.04305" lon="27.86928">
        <ele>515.4</ele>
      </trkpt>
      <trkpt lat="37.04309" lon="27.86938">
        <ele>515.9</ele>
      </trkpt>
      <trkpt lat="37.04312" lon="27.86948">
        <ele>516.2</ele>
      </trkpt>
      <trkpt lat="37.04315" lon="27.86962">
        <ele>516.2</ele>
      </trkpt>
      <trkpt lat="37.04316" lon="27.8697">
        <ele>515.8</ele>
      </trkpt>
      <trkpt lat="37.04317" lon="27.86978">
        <ele>515.5</ele>
      </trkpt>
      <trkpt lat="37.04317" lon="27.86988">
        <ele>514.5</ele>
      </trkpt>
      <trkpt lat="37.04316" lon="27.87005">
        <ele>513.2</ele>
      </trkpt>
      <trkpt lat="37.04316" lon="27.87008">
        <ele>513.3</ele>
      </trkpt>
      <trkpt lat="37.04316" lon="27.87008">
        <ele>513.3</ele>
      </trkpt>
      <trkpt lat="37.04317" lon="27.87008">
        <ele>513.3</ele>
      </trkpt>
      <trkpt lat="37.04317" lon="27.87008">
        <ele>513.4</ele>
      </trkpt>
      <trkpt lat="37.04317" lon="27.87008">
        <ele>513.5</ele>
      </trkpt>
      <trkpt lat="37.04317" lon="27.87008">
        <ele>513.5</ele>
      </trkpt>
      <trkpt lat="37.04317" lon="27.87007">
        <ele>513.5</ele>
      </trkpt>
      <trkpt lat="37.04317" lon="27.87007">
        <ele>513.5</ele>
      </trkpt>
      <trkpt lat="37.04317" lon="27.87007">
        <ele>513.5</ele>
      </trkpt>
      <trkpt lat="37.04317" lon="27.87008">
        <ele>513.7</ele>
      </trkpt>
      <trkpt lat="37.04317" lon="27.87009">
        <ele>513.7</ele>
      </trkpt>
      <trkpt lat="37.04317" lon="27.87008">
        <ele>513.8</ele>
      </trkpt>
      <trkpt lat="37.04318" lon="27.87008">
        <ele>513.9</ele>
      </trkpt>
      <trkpt lat="37.04318" lon="27.87008">
        <ele>513.9</ele>
      </trkpt>
      <trkpt lat="37.04318" lon="27.87009">
        <ele>513.9</ele>
      </trkpt>
      <trkpt lat="37.04318" lon="27.87009">
        <ele>513.9</ele>
      </trkpt>
      <trkpt lat="37.04317" lon="27.8701">
        <ele>513.9</ele>
      </trkpt>
      <trkpt lat="37.04317" lon="27.87011">
        <ele>513.9</ele>
      </trkpt>
      <trkpt lat="37.04317" lon="27.87012">
        <ele>513.9</ele>
      </trkpt>
      <trkpt lat="37.04317" lon="27.87013">
        <ele>513.8</ele>
      </trkpt>
      <trkpt lat="37.04317" lon="27.87013">
        <ele>513.7</ele>
      </trkpt>
      <trkpt lat="37.04317" lon="27.87022">
        <ele>513.9</ele>
      </trkpt>
      <trkpt lat="37.04315" lon="27.8703">
        <ele>513.3</ele>
      </trkpt>
      <trkpt lat="37.04312" lon="27.87042">
        <ele>512.2</ele>
      </trkpt>
      <trkpt lat="37.04309" lon="27.8705">
        <ele>510.9</ele>
      </trkpt>
      <trkpt lat="37.04304" lon="27.8706">
        <ele>508.6</ele>
      </trkpt>
      <trkpt lat="37.04298" lon="27.87068">
        <ele>506.1</ele>
      </trkpt>
      <trkpt lat="37.04292" lon="27.87077">
        <ele>503.3</ele>
      </trkpt>
      <trkpt lat="37.04287" lon="27.87084">
        <ele>501.2</ele>
      </trkpt>
      <trkpt lat="37.04279" lon="27.87094">
        <ele>498.7</ele>
      </trkpt>
      <trkpt lat="37.04271" lon="27.87104">
        <ele>496.6</ele>
      </trkpt>
      <trkpt lat="37.04266" lon="27.8711">
        <ele>495.3</ele>
      </trkpt>
      <trkpt lat="37.04259" lon="27.87117">
        <ele>493.6</ele>
      </trkpt>
      <trkpt lat="37.04255" lon="27.87122">
        <ele>492.7</ele>
      </trkpt>
      <trkpt lat="37.04252" lon="27.87126">
        <ele>492</ele>
      </trkpt>
      <trkpt lat="37.04252" lon="27.87125">
        <ele>492</ele>
      </trkpt>
      <trkpt lat="37.04252" lon="27.87125">
        <ele>492.1</ele>
      </trkpt>
      <trkpt lat="37.04252" lon="27.87125">
        <ele>492</ele>
      </trkpt>
      <trkpt lat="37.04252" lon="27.87125">
        <ele>492.1</ele>
      </trkpt>
      <trkpt lat="37.04253" lon="27.87125">
        <ele>492.1</ele>
      </trkpt>
      <trkpt lat="37.04253" lon="27.87125">
        <ele>492.1</ele>
      </trkpt>
      <trkpt lat="37.04252" lon="27.87125">
        <ele>491.9</ele>
      </trkpt>
      <trkpt lat="37.04251" lon="27.87126">
        <ele>491.6</ele>
      </trkpt>
      <trkpt lat="37.04251" lon="27.87126">
        <ele>491.5</ele>
      </trkpt>
      <trkpt lat="37.04251" lon="27.87126">
        <ele>491.7</ele>
      </trkpt>
      <trkpt lat="37.04252" lon="27.87125">
        <ele>492.1</ele>
      </trkpt>
      <trkpt lat="37.04253" lon="27.87125">
        <ele>492.4</ele>
      </trkpt>
      <trkpt lat="37.04254" lon="27.87124">
        <ele>492.5</ele>
      </trkpt>
      <trkpt lat="37.04254" lon="27.87124">
        <ele>492.6</ele>
      </trkpt>
      <trkpt lat="37.04254" lon="27.87124">
        <ele>492.5</ele>
      </trkpt>
      <trkpt lat="37.04254" lon="27.87124">
        <ele>492.4</ele>
      </trkpt>
      <trkpt lat="37.04253" lon="27.87125">
        <ele>492.3</ele>
      </trkpt>
      <trkpt lat="37.0425" lon="27.87128">
        <ele>491.3</ele>
      </trkpt>
      <trkpt lat="37.04242" lon="27.87133">
        <ele>488.9</ele>
      </trkpt>
      <trkpt lat="37.04233" lon="27.8714">
        <ele>486.3</ele>
      </trkpt>
      <trkpt lat="37.04224" lon="27.87148">
        <ele>483.9</ele>
      </trkpt>
      <trkpt lat="37.04218" lon="27.87153">
        <ele>482.3</ele>
      </trkpt>
      <trkpt lat="37.04209" lon="27.87162">
        <ele>480.4</ele>
      </trkpt>
      <trkpt lat="37.04201" lon="27.87171">
        <ele>479</ele>
      </trkpt>
      <trkpt lat="37.04196" lon="27.87177">
        <ele>477.9</ele>
      </trkpt>
      <trkpt lat="37.04191" lon="27.87185">
        <ele>476.8</ele>
      </trkpt>
      <trkpt lat="37.04184" lon="27.87194">
        <ele>475.7</ele>
      </trkpt>
      <trkpt lat="37.04179" lon="27.87199">
        <ele>474.8</ele>
      </trkpt>
      <trkpt lat="37.04172" lon="27.87205">
        <ele>473.6</ele>
      </trkpt>
      <trkpt lat="37.04167" lon="27.87208">
        <ele>472.7</ele>
      </trkpt>
      <trkpt lat="37.0416" lon="27.87213">
        <ele>471.4</ele>
      </trkpt>
      <trkpt lat="37.04151" lon="27.8722">
        <ele>470</ele>
      </trkpt>
      <trkpt lat="37.04144" lon="27.87225">
        <ele>469</ele>
      </trkpt>
      <trkpt lat="37.04137" lon="27.87231">
        <ele>468.1</ele>
      </trkpt>
      <trkpt lat="37.04131" lon="27.87235">
        <ele>467.3</ele>
      </trkpt>
      <trkpt lat="37.0413" lon="27.87236">
        <ele>467.3</ele>
      </trkpt>
      <trkpt lat="37.0413" lon="27.87236">
        <ele>467.4</ele>
      </trkpt>
      <trkpt lat="37.04131" lon="27.87235">
        <ele>467.3</ele>
      </trkpt>
      <trkpt lat="37.04131" lon="27.87235">
        <ele>467.4</ele>
      </trkpt>
      <trkpt lat="37.04131" lon="27.87235">
        <ele>467.4</ele>
      </trkpt>
      <trkpt lat="37.04131" lon="27.87235">
        <ele>467.4</ele>
      </trkpt>
      <trkpt lat="37.04132" lon="27.87234">
        <ele>467.4</ele>
      </trkpt>
      <trkpt lat="37.04132" lon="27.87234">
        <ele>467.4</ele>
      </trkpt>
      <trkpt lat="37.04132" lon="27.87234">
        <ele>467.4</ele>
      </trkpt>
      <trkpt lat="37.04132" lon="27.87234">
        <ele>467.5</ele>
      </trkpt>
      <trkpt lat="37.04132" lon="27.87234">
        <ele>467.5</ele>
      </trkpt>
      <trkpt lat="37.04133" lon="27.87234">
        <ele>467.8</ele>
      </trkpt>
      <trkpt lat="37.04133" lon="27.87234">
        <ele>467.9</ele>
      </trkpt>
      <trkpt lat="37.04133" lon="27.87235">
        <ele>468</ele>
      </trkpt>
      <trkpt lat="37.04134" lon="27.87234">
        <ele>468.1</ele>
      </trkpt>
      <trkpt lat="37.04134" lon="27.87234">
        <ele>468.2</ele>
      </trkpt>
      <trkpt lat="37.04135" lon="27.87234">
        <ele>468.2</ele>
      </trkpt>
      <trkpt lat="37.04135" lon="27.87234">
        <ele>468.2</ele>
      </trkpt>
      <trkpt lat="37.04134" lon="27.87236">
        <ele>468.4</ele>
      </trkpt>
      <trkpt lat="37.04119" lon="27.87246">
        <ele>467</ele>
      </trkpt>
      <trkpt lat="37.04112" lon="27.87252">
        <ele>465.7</ele>
      </trkpt>
      <trkpt lat="37.04102" lon="27.87256">
        <ele>462.8</ele>
      </trkpt>
      <trkpt lat="37.04096" lon="27.87257">
        <ele>461.2</ele>
      </trkpt>
      <trkpt lat="37.0409" lon="27.87259">
        <ele>459.6</ele>
      </trkpt>
      <trkpt lat="37.04085" lon="27.8726">
        <ele>458.2</ele>
      </trkpt>
      <trkpt lat="37.04077" lon="27.87263">
        <ele>456.3</ele>
      </trkpt>
      <trkpt lat="37.04068" lon="27.87267">
        <ele>453.7</ele>
      </trkpt>
      <trkpt lat="37.04063" lon="27.8727">
        <ele>452.3</ele>
      </trkpt>
      <trkpt lat="37.0406" lon="27.87271">
        <ele>451.7</ele>
      </trkpt>
      <trkpt lat="37.0406" lon="27.87271">
        <ele>451.7</ele>
      </trkpt>
      <trkpt lat="37.04061" lon="27.87271">
        <ele>451.8</ele>
      </trkpt>
      <trkpt lat="37.04061" lon="27.87271">
        <ele>451.9</ele>
      </trkpt>
      <trkpt lat="37.04061" lon="27.87271">
        <ele>451.9</ele>
      </trkpt>
      <trkpt lat="37.04061" lon="27.87271">
        <ele>451.9</ele>
      </trkpt>
      <trkpt lat="37.04061" lon="27.87271">
        <ele>451.8</ele>
      </trkpt>
      <trkpt lat="37.0406" lon="27.87271">
        <ele>451.7</ele>
      </trkpt>
      <trkpt lat="37.0406" lon="27.8727">
        <ele>451.7</ele>
      </trkpt>
      <trkpt lat="37.0406" lon="27.8727">
        <ele>451.5</ele>
      </trkpt>
      <trkpt lat="37.04059" lon="27.8727">
        <ele>451.5</ele>
      </trkpt>
      <trkpt lat="37.0406" lon="27.8727">
        <ele>451.6</ele>
      </trkpt>
      <trkpt lat="37.04061" lon="27.8727">
        <ele>451.9</ele>
      </trkpt>
      <trkpt lat="37.04061" lon="27.8727">
        <ele>451.9</ele>
      </trkpt>
      <trkpt lat="37.04061" lon="27.8727">
        <ele>451.8</ele>
      </trkpt>
      <trkpt lat="37.04061" lon="27.8727">
        <ele>451.8</ele>
      </trkpt>
      <trkpt lat="37.0406" lon="27.8727">
        <ele>451.8</ele>
      </trkpt>
      <trkpt lat="37.0406" lon="27.8727">
        <ele>451.7</ele>
      </trkpt>
      <trkpt lat="37.0406" lon="27.87269">
        <ele>451.8</ele>
      </trkpt>
      <trkpt lat="37.0406" lon="27.87269">
        <ele>451.6</ele>
      </trkpt>
      <trkpt lat="37.0406" lon="27.87269">
        <ele>451.5</ele>
      </trkpt>
      <trkpt lat="37.04059" lon="27.87269">
        <ele>451.5</ele>
      </trkpt>
      <trkpt lat="37.04059" lon="27.87269">
        <ele>451.4</ele>
      </trkpt>
      <trkpt lat="37.04058" lon="27.87269">
        <ele>451.3</ele>
      </trkpt>
      <trkpt lat="37.04058" lon="27.87269">
        <ele>451.2</ele>
      </trkpt>
      <trkpt lat="37.04058" lon="27.87269">
        <ele>451.1</ele>
      </trkpt>
      <trkpt lat="37.04057" lon="27.87269">
        <ele>451</ele>
      </trkpt>
      <trkpt lat="37.04057" lon="27.87269">
        <ele>450.9</ele>
      </trkpt>
      <trkpt lat="37.04057" lon="27.87268">
        <ele>450.9</ele>
      </trkpt>
      <trkpt lat="37.04057" lon="27.87268">
        <ele>451</ele>
      </trkpt>
      <trkpt lat="37.04058" lon="27.87268">
        <ele>451</ele>
      </trkpt>
      <trkpt lat="37.04058" lon="27.87267">
        <ele>451.2</ele>
      </trkpt>
      <trkpt lat="37.04058" lon="27.87267">
        <ele>451.2</ele>
      </trkpt>
      <trkpt lat="37.04059" lon="27.87267">
        <ele>451.3</ele>
      </trkpt>
      <trkpt lat="37.04058" lon="27.87267">
        <ele>451.3</ele>
      </trkpt>
      <trkpt lat="37.04058" lon="27.87267">
        <ele>451.3</ele>
      </trkpt>
      <trkpt lat="37.04059" lon="27.87267">
        <ele>451.3</ele>
      </trkpt>
      <trkpt lat="37.04059" lon="27.87267">
        <ele>451.4</ele>
      </trkpt>
      <trkpt lat="37.04058" lon="27.87267">
        <ele>451.2</ele>
      </trkpt>
      <trkpt lat="37.04058" lon="27.87268">
        <ele>451.1</ele>
      </trkpt>
      <trkpt lat="37.04058" lon="27.87268">
        <ele>451</ele>
      </trkpt>
      <trkpt lat="37.04057" lon="27.87269">
        <ele>450.9</ele>
      </trkpt>
      <trkpt lat="37.04057" lon="27.87269">
        <ele>450.9</ele>
      </trkpt>
      <trkpt lat="37.04058" lon="27.87269">
        <ele>451.1</ele>
      </trkpt>
      <trkpt lat="37.04058" lon="27.87269">
        <ele>451.2</ele>
      </trkpt>
      <trkpt lat="37.0406" lon="27.87269">
        <ele>451.6</ele>
      </trkpt>
      <trkpt lat="37.0406" lon="27.87269">
        <ele>451.7</ele>
      </trkpt>
      <trkpt lat="37.0406" lon="27.87269">
        <ele>451.7</ele>
      </trkpt>
      <trkpt lat="37.0406" lon="27.87269">
        <ele>451.8</ele>
      </trkpt>
      <trkpt lat="37.04061" lon="27.87268">
        <ele>451.9</ele>
      </trkpt>
      <trkpt lat="37.04062" lon="27.87268">
        <ele>452.1</ele>
      </trkpt>
      <trkpt lat="37.04062" lon="27.87268">
        <ele>452.2</ele>
      </trkpt>
      <trkpt lat="37.04063" lon="27.87268">
        <ele>452.4</ele>
      </trkpt>
      <trkpt lat="37.04063" lon="27.87268">
        <ele>452.5</ele>
      </trkpt>
      <trkpt lat="37.04064" lon="27.87268">
        <ele>452.6</ele>
      </trkpt>
      <trkpt lat="37.04064" lon="27.87268">
        <ele>452.8</ele>
      </trkpt>
      <trkpt lat="37.04064" lon="27.87268">
        <ele>452.7</ele>
      </trkpt>
      <trkpt lat="37.04063" lon="27.87267">
        <ele>452.6</ele>
      </trkpt>
      <trkpt lat="37.04063" lon="27.87267">
        <ele>452.4</ele>
      </trkpt>
      <trkpt lat="37.04063" lon="27.87267">
        <ele>452.3</ele>
      </trkpt>
      <trkpt lat="37.04062" lon="27.87267">
        <ele>452.2</ele>
      </trkpt>
      <trkpt lat="37.04062" lon="27.87267">
        <ele>452.1</ele>
      </trkpt>
      <trkpt lat="37.04061" lon="27.87267">
        <ele>452</ele>
      </trkpt>
      <trkpt lat="37.04061" lon="27.87267">
        <ele>452</ele>
      </trkpt>
      <trkpt lat="37.04061" lon="27.87267">
        <ele>452.1</ele>
      </trkpt>
      <trkpt lat="37.04062" lon="27.87267">
        <ele>452.1</ele>
      </trkpt>
      <trkpt lat="37.04061" lon="27.87267">
        <ele>452.1</ele>
      </trkpt>
      <trkpt lat="37.04061" lon="27.87266">
        <ele>452</ele>
      </trkpt>
      <trkpt lat="37.04061" lon="27.87266">
        <ele>452</ele>
      </trkpt>
      <trkpt lat="37.04061" lon="27.87266">
        <ele>452</ele>
      </trkpt>
      <trkpt lat="37.04061" lon="27.87266">
        <ele>451.9</ele>
      </trkpt>
      <trkpt lat="37.04061" lon="27.87265">
        <ele>451.9</ele>
      </trkpt>
      <trkpt lat="37.04061" lon="27.87265">
        <ele>451.8</ele>
      </trkpt>
      <trkpt lat="37.0406" lon="27.87265">
        <ele>451.7</ele>
      </trkpt>
      <trkpt lat="37.04061" lon="27.87265">
        <ele>451.9</ele>
      </trkpt>
      <trkpt lat="37.04061" lon="27.87265">
        <ele>452</ele>
      </trkpt>
      <trkpt lat="37.04061" lon="27.87266">
        <ele>452</ele>
      </trkpt>
      <trkpt lat="37.04062" lon="27.87266">
        <ele>452.1</ele>
      </trkpt>
      <trkpt lat="37.04062" lon="27.87266">
        <ele>452.2</ele>
      </trkpt>
      <trkpt lat="37.04062" lon="27.87266">
        <ele>452.3</ele>
      </trkpt>
      <trkpt lat="37.04062" lon="27.87266">
        <ele>452.3</ele>
      </trkpt>
      <trkpt lat="37.04063" lon="27.87267">
        <ele>452.4</ele>
      </trkpt>
      <trkpt lat="37.04063" lon="27.87267">
        <ele>452.4</ele>
      </trkpt>
      <trkpt lat="37.04063" lon="27.87267">
        <ele>452.4</ele>
      </trkpt>
      <trkpt lat="37.04063" lon="27.87267">
        <ele>452.4</ele>
      </trkpt>
      <trkpt lat="37.04063" lon="27.87267">
        <ele>452.4</ele>
      </trkpt>
      <trkpt lat="37.04063" lon="27.87267">
        <ele>452.4</ele>
      </trkpt>
      <trkpt lat="37.04063" lon="27.87267">
        <ele>452.5</ele>
      </trkpt>
      <trkpt lat="37.04064" lon="27.87267">
        <ele>452.6</ele>
      </trkpt>
      <trkpt lat="37.04064" lon="27.87268">
        <ele>452.6</ele>
      </trkpt>
      <trkpt lat="37.04063" lon="27.87268">
        <ele>452.5</ele>
      </trkpt>
      <trkpt lat="37.04063" lon="27.87269">
        <ele>452.4</ele>
      </trkpt>
      <trkpt lat="37.04062" lon="27.87269">
        <ele>452.3</ele>
      </trkpt>
      <trkpt lat="37.04062" lon="27.87269">
        <ele>452.2</ele>
      </trkpt>
      <trkpt lat="37.04062" lon="27.87269">
        <ele>452.3</ele>
      </trkpt>
      <trkpt lat="37.04062" lon="27.87269">
        <ele>452.2</ele>
      </trkpt>
      <trkpt lat="37.04062" lon="27.8727">
        <ele>452.2</ele>
      </trkpt>
      <trkpt lat="37.04062" lon="27.8727">
        <ele>452.2</ele>
      </trkpt>
      <trkpt lat="37.04062" lon="27.8727">
        <ele>452.1</ele>
      </trkpt>
      <trkpt lat="37.04062" lon="27.8727">
        <ele>452.1</ele>
      </trkpt>
      <trkpt lat="37.04062" lon="27.8727">
        <ele>452.1</ele>
      </trkpt>
      <trkpt lat="37.04062" lon="27.8727">
        <ele>452.1</ele>
      </trkpt>
      <trkpt lat="37.04062" lon="27.8727">
        <ele>452.1</ele>
      </trkpt>
      <trkpt lat="37.04062" lon="27.8727">
        <ele>452.1</ele>
      </trkpt>
      <trkpt lat="37.04062" lon="27.8727">
        <ele>452.2</ele>
      </trkpt>
      <trkpt lat="37.04062" lon="27.87269">
        <ele>452.2</ele>
      </trkpt>
      <trkpt lat="37.04062" lon="27.87269">
        <ele>452.1</ele>
      </trkpt>
      <trkpt lat="37.04061" lon="27.87268">
        <ele>451.9</ele>
      </trkpt>
      <trkpt lat="37.0406" lon="27.87268">
        <ele>451.7</ele>
      </trkpt>
      <trkpt lat="37.04059" lon="27.87268">
        <ele>451.5</ele>
      </trkpt>
      <trkpt lat="37.04059" lon="27.87268">
        <ele>451.3</ele>
      </trkpt>
      <trkpt lat="37.04059" lon="27.87268">
        <ele>451.3</ele>
      </trkpt>
      <trkpt lat="37.04058" lon="27.87268">
        <ele>451.2</ele>
      </trkpt>
      <trkpt lat="37.04058" lon="27.87268">
        <ele>451.1</ele>
      </trkpt>
      <trkpt lat="37.04058" lon="27.87267">
        <ele>451.2</ele>
      </trkpt>
      <trkpt lat="37.04058" lon="27.87267">
        <ele>451.1</ele>
      </trkpt>
      <trkpt lat="37.04058" lon="27.87267">
        <ele>451</ele>
      </trkpt>
      <trkpt lat="37.04057" lon="27.87268">
        <ele>450.9</ele>
      </trkpt>
      <trkpt lat="37.04057" lon="27.87268">
        <ele>450.8</ele>
      </trkpt>
      <trkpt lat="37.04057" lon="27.87268">
        <ele>450.9</ele>
      </trkpt>
      <trkpt lat="37.04057" lon="27.87268">
        <ele>450.9</ele>
      </trkpt>
      <trkpt lat="37.04058" lon="27.87268">
        <ele>451</ele>
      </trkpt>
      <trkpt lat="37.04058" lon="27.87268">
        <ele>451.1</ele>
      </trkpt>
      <trkpt lat="37.04058" lon="27.87268">
        <ele>451.1</ele>
      </trkpt>
      <trkpt lat="37.04058" lon="27.87268">
        <ele>451.1</ele>
      </trkpt>
      <trkpt lat="37.04058" lon="27.87267">
        <ele>451.3</ele>
      </trkpt>
      <trkpt lat="37.04059" lon="27.87267">
        <ele>451.3</ele>
      </trkpt>
      <trkpt lat="37.04059" lon="27.87267">
        <ele>451.3</ele>
      </trkpt>
      <trkpt lat="37.04059" lon="27.87267">
        <ele>451.4</ele>
      </trkpt>
      <trkpt lat="37.04059" lon="27.87267">
        <ele>451.4</ele>
      </trkpt>
      <trkpt lat="37.04058" lon="27.87267">
        <ele>451.2</ele>
      </trkpt>
      <trkpt lat="37.04058" lon="27.87267">
        <ele>451.2</ele>
      </trkpt>
      <trkpt lat="37.04058" lon="27.87267">
        <ele>451.3</ele>
      </trkpt>
      <trkpt lat="37.04058" lon="27.87266">
        <ele>451.3</ele>
      </trkpt>
      <trkpt lat="37.04058" lon="27.87266">
        <ele>451.2</ele>
      </trkpt>
      <trkpt lat="37.04058" lon="27.87266">
        <ele>451.2</ele>
      </trkpt>
      <trkpt lat="37.04058" lon="27.87266">
        <ele>451.3</ele>
      </trkpt>
      <trkpt lat="37.04058" lon="27.87266">
        <ele>451.3</ele>
      </trkpt>
      <trkpt lat="37.04058" lon="27.87265">
        <ele>451.2</ele>
      </trkpt>
      <trkpt lat="37.04057" lon="27.87265">
        <ele>450.9</ele>
      </trkpt>
      <trkpt lat="37.04056" lon="27.87266">
        <ele>450.6</ele>
      </trkpt>
      <trkpt lat="37.04055" lon="27.87266">
        <ele>450.3</ele>
      </trkpt>
      <trkpt lat="37.04055" lon="27.87266">
        <ele>450.3</ele>
      </trkpt>
      <trkpt lat="37.04055" lon="27.87265">
        <ele>450.3</ele>
      </trkpt>
      <trkpt lat="37.04055" lon="27.87266">
        <ele>450.4</ele>
      </trkpt>
      <trkpt lat="37.04056" lon="27.87266">
        <ele>450.6</ele>
      </trkpt>
      <trkpt lat="37.04056" lon="27.87266">
        <ele>450.7</ele>
      </trkpt>
      <trkpt lat="37.04056" lon="27.87266">
        <ele>450.6</ele>
      </trkpt>
      <trkpt lat="37.04055" lon="27.87266">
        <ele>450.5</ele>
      </trkpt>
      <trkpt lat="37.04055" lon="27.87266">
        <ele>450.4</ele>
      </trkpt>
      <trkpt lat="37.04056" lon="27.87266">
        <ele>450.6</ele>
      </trkpt>
      <trkpt lat="37.04056" lon="27.87267">
        <ele>450.7</ele>
      </trkpt>
      <trkpt lat="37.04056" lon="27.87267">
        <ele>450.6</ele>
      </trkpt>
      <trkpt lat="37.04056" lon="27.87267">
        <ele>450.7</ele>
      </trkpt>
      <trkpt lat="37.04056" lon="27.87267">
        <ele>450.7</ele>
      </trkpt>
      <trkpt lat="37.04056" lon="27.87267">
        <ele>450.7</ele>
      </trkpt>
      <trkpt lat="37.04056" lon="27.87267">
        <ele>450.7</ele>
      </trkpt>
      <trkpt lat="37.04057" lon="27.87267">
        <ele>450.9</ele>
      </trkpt>
      <trkpt lat="37.04057" lon="27.87267">
        <ele>451</ele>
      </trkpt>
      <trkpt lat="37.04058" lon="27.87267">
        <ele>451.1</ele>
      </trkpt>
      <trkpt lat="37.04058" lon="27.87267">
        <ele>451.3</ele>
      </trkpt>
      <trkpt lat="37.04058" lon="27.87267">
        <ele>451.2</ele>
      </trkpt>
      <trkpt lat="37.04058" lon="27.87267">
        <ele>451.1</ele>
      </trkpt>
      <trkpt lat="37.04058" lon="27.87267">
        <ele>451.1</ele>
      </trkpt>
      <trkpt lat="37.04058" lon="27.87268">
        <ele>451</ele>
      </trkpt>
      <trkpt lat="37.04058" lon="27.87268">
        <ele>451</ele>
      </trkpt>
      <trkpt lat="37.04057" lon="27.87268">
        <ele>451</ele>
      </trkpt>
      <trkpt lat="37.04057" lon="27.87268">
        <ele>450.9</ele>
      </trkpt>
      <trkpt lat="37.04057" lon="27.87269">
        <ele>451</ele>
      </trkpt>
      <trkpt lat="37.04058" lon="27.87269">
        <ele>451.2</ele>
      </trkpt>
      <trkpt lat="37.04059" lon="27.87269">
        <ele>451.4</ele>
      </trkpt>
      <trkpt lat="37.04059" lon="27.87269">
        <ele>451.5</ele>
      </trkpt>
      <trkpt lat="37.0406" lon="27.87269">
        <ele>451.6</ele>
      </trkpt>
      <trkpt lat="37.0406" lon="27.87269">
        <ele>451.7</ele>
      </trkpt>
      <trkpt lat="37.0406" lon="27.87269">
        <ele>451.7</ele>
      </trkpt>
      <trkpt lat="37.0406" lon="27.87269">
        <ele>451.7</ele>
      </trkpt>
      <trkpt lat="37.0406" lon="27.87269">
        <ele>451.7</ele>
      </trkpt>
      <trkpt lat="37.0406" lon="27.87268">
        <ele>451.6</ele>
      </trkpt>
      <trkpt lat="37.0406" lon="27.87268">
        <ele>451.6</ele>
      </trkpt>
      <trkpt lat="37.04059" lon="27.87268">
        <ele>451.5</ele>
      </trkpt>
      <trkpt lat="37.04059" lon="27.87268">
        <ele>451.3</ele>
      </trkpt>
      <trkpt lat="37.04059" lon="27.87268">
        <ele>451.4</ele>
      </trkpt>
      <trkpt lat="37.04059" lon="27.87268">
        <ele>451.5</ele>
      </trkpt>
      <trkpt lat="37.0406" lon="27.87268">
        <ele>451.7</ele>
      </trkpt>
      <trkpt lat="37.04061" lon="27.87268">
        <ele>452</ele>
      </trkpt>
      <trkpt lat="37.0406" lon="27.87268">
        <ele>451.8</ele>
      </trkpt>
      <trkpt lat="37.0406" lon="27.87267">
        <ele>451.8</ele>
      </trkpt>
      <trkpt lat="37.0406" lon="27.87267">
        <ele>451.6</ele>
      </trkpt>
      <trkpt lat="37.04059" lon="27.87267">
        <ele>451.5</ele>
      </trkpt>
      <trkpt lat="37.04059" lon="27.87267">
        <ele>451.5</ele>
      </trkpt>
      <trkpt lat="37.04059" lon="27.87266">
        <ele>451.5</ele>
      </trkpt>
      <trkpt lat="37.04059" lon="27.87266">
        <ele>451.4</ele>
      </trkpt>
      <trkpt lat="37.04059" lon="27.87266">
        <ele>451.4</ele>
      </trkpt>
      <trkpt lat="37.04059" lon="27.87266">
        <ele>451.4</ele>
      </trkpt>
      <trkpt lat="37.04059" lon="27.87266">
        <ele>451.3</ele>
      </trkpt>
      <trkpt lat="37.04058" lon="27.87266">
        <ele>451.2</ele>
      </trkpt>
      <trkpt lat="37.04058" lon="27.87266">
        <ele>451.2</ele>
      </trkpt>
      <trkpt lat="37.04058" lon="27.87266">
        <ele>451.2</ele>
      </trkpt>
      <trkpt lat="37.04057" lon="27.87266">
        <ele>451</ele>
      </trkpt>
      <trkpt lat="37.04057" lon="27.87267">
        <ele>451</ele>
      </trkpt>
      <trkpt lat="37.04057" lon="27.87266">
        <ele>450.9</ele>
      </trkpt>
      <trkpt lat="37.04057" lon="27.87266">
        <ele>450.9</ele>
      </trkpt>
      <trkpt lat="37.04056" lon="27.87266">
        <ele>450.8</ele>
      </trkpt>
      <trkpt lat="37.04056" lon="27.87265">
        <ele>450.7</ele>
      </trkpt>
      <trkpt lat="37.04056" lon="27.87264">
        <ele>450.6</ele>
      </trkpt>
      <trkpt lat="37.04056" lon="27.87264">
        <ele>450.5</ele>
      </trkpt>
      <trkpt lat="37.04056" lon="27.87264">
        <ele>450.5</ele>
      </trkpt>
      <trkpt lat="37.04056" lon="27.87264">
        <ele>450.5</ele>
      </trkpt>
      <trkpt lat="37.04056" lon="27.87264">
        <ele>450.5</ele>
      </trkpt>
      <trkpt lat="37.04056" lon="27.87264">
        <ele>450.5</ele>
      </trkpt>
      <trkpt lat="37.04056" lon="27.87264">
        <ele>450.5</ele>
      </trkpt>
      <trkpt lat="37.0405" lon="27.87264">
        <ele>449.1</ele>
      </trkpt>
      <trkpt lat="37.0405" lon="27.87264">
        <ele>449.1</ele>
      </trkpt>
      <trkpt lat="37.0405" lon="27.87264">
        <ele>449.1</ele>
      </trkpt>
      <trkpt lat="37.0405" lon="27.87264">
        <ele>449.1</ele>
      </trkpt>
      <trkpt lat="37.0405" lon="27.87264">
        <ele>449.1</ele>
      </trkpt>
      <trkpt lat="37.0405" lon="27.87264">
        <ele>449.1</ele>
      </trkpt>
      <trkpt lat="37.0405" lon="27.87264">
        <ele>449.1</ele>
      </trkpt>
      <trkpt lat="37.0405" lon="27.87264">
        <ele>449.1</ele>
      </trkpt>
      <trkpt lat="37.0405" lon="27.87264">
        <ele>449.1</ele>
      </trkpt>
      <trkpt lat="37.0405" lon="27.87264">
        <ele>449.1</ele>
      </trkpt>
      <trkpt lat="37.0405" lon="27.87264">
        <ele>449.1</ele>
      </trkpt>
      <trkpt lat="37.0405" lon="27.87264">
        <ele>449.1</ele>
      </trkpt>
      <trkpt lat="37.0405" lon="27.87264">
        <ele>449.1</ele>
      </trkpt>
      <trkpt lat="37.0405" lon="27.87264">
        <ele>449.1</ele>
      </trkpt>
      <trkpt lat="37.0405" lon="27.87264">
        <ele>449.1</ele>
      </trkpt>
      <trkpt lat="37.04016" lon="27.87265">
        <ele>440.2</ele>
      </trkpt>
      <trkpt lat="37.04005" lon="27.87276">
        <ele>437.2</ele>
      </trkpt>
      <trkpt lat="37.03997" lon="27.87285">
        <ele>435.6</ele>
      </trkpt>
      <trkpt lat="37.03991" lon="27.87285">
        <ele>434.9</ele>
      </trkpt>
      <trkpt lat="37.0399" lon="27.87285">
        <ele>434.8</ele>
      </trkpt>
      <trkpt lat="37.03981" lon="27.87291">
        <ele>433.7</ele>
      </trkpt>
      <trkpt lat="37.0398" lon="27.87292">
        <ele>433.6</ele>
      </trkpt>
      <trkpt lat="37.03976" lon="27.87292">
        <ele>433.1</ele>
      </trkpt>
      <trkpt lat="37.03965" lon="27.87289">
        <ele>431.8</ele>
      </trkpt>
      <trkpt lat="37.03958" lon="27.87291">
        <ele>430.9</ele>
      </trkpt>
      <trkpt lat="37.03956" lon="27.87292">
        <ele>430.7</ele>
      </trkpt>
      <trkpt lat="37.03943" lon="27.87295">
        <ele>429.1</ele>
      </trkpt>
      <trkpt lat="37.03937" lon="27.87298">
        <ele>428.5</ele>
      </trkpt>
      <trkpt lat="37.03938" lon="27.87298">
        <ele>428.5</ele>
      </trkpt>
      <trkpt lat="37.0393" lon="27.87289">
        <ele>427.6</ele>
      </trkpt>
      <trkpt lat="37.03927" lon="27.87291">
        <ele>427.2</ele>
      </trkpt>
      <trkpt lat="37.03927" lon="27.8729">
        <ele>427.2</ele>
      </trkpt>
      <trkpt lat="37.03914" lon="27.87285">
        <ele>425.4</ele>
      </trkpt>
      <trkpt lat="37.03905" lon="27.87286">
        <ele>423.3</ele>
      </trkpt>
      <trkpt lat="37.03904" lon="27.87286">
        <ele>423</ele>
      </trkpt>
      <trkpt lat="37.03904" lon="27.87286">
        <ele>423.1</ele>
      </trkpt>
      <trkpt lat="37.03904" lon="27.87286">
        <ele>423.1</ele>
      </trkpt>
      <trkpt lat="37.03903" lon="27.87287">
        <ele>422.9</ele>
      </trkpt>
      <trkpt lat="37.03899" lon="27.87297">
        <ele>422.1</ele>
      </trkpt>
      <trkpt lat="37.03898" lon="27.87304">
        <ele>421.7</ele>
      </trkpt>
      <trkpt lat="37.03893" lon="27.87306">
        <ele>420.7</ele>
      </trkpt>
      <trkpt lat="37.03884" lon="27.87312">
        <ele>418.7</ele>
      </trkpt>
      <trkpt lat="37.03878" lon="27.87313">
        <ele>417.4</ele>
      </trkpt>
      <trkpt lat="37.0387" lon="27.87316">
        <ele>415.6</ele>
      </trkpt>
      <trkpt lat="37.03862" lon="27.87321">
        <ele>413.9</ele>
      </trkpt>
      <trkpt lat="37.03851" lon="27.87324">
        <ele>411.6</ele>
      </trkpt>
      <trkpt lat="37.03849" lon="27.87325">
        <ele>411.2</ele>
      </trkpt>
      <trkpt lat="37.03842" lon="27.8733">
        <ele>409.7</ele>
      </trkpt>
      <trkpt lat="37.03832" lon="27.87336">
        <ele>406.8</ele>
      </trkpt>
      <trkpt lat="37.03827" lon="27.87337">
        <ele>404.6</ele>
      </trkpt>
      <trkpt lat="37.03824" lon="27.87339">
        <ele>402.9</ele>
      </trkpt>
      <trkpt lat="37.03823" lon="27.87339">
        <ele>402.7</ele>
      </trkpt>
      <trkpt lat="37.03818" lon="27.87342">
        <ele>400.2</ele>
      </trkpt>
      <trkpt lat="37.03807" lon="27.87348">
        <ele>394.8</ele>
      </trkpt>
      <trkpt lat="37.03801" lon="27.87352">
        <ele>392.1</ele>
      </trkpt>
      <trkpt lat="37.03796" lon="27.87356">
        <ele>390.1</ele>
      </trkpt>
      <trkpt lat="37.03793" lon="27.87358">
        <ele>388.5</ele>
      </trkpt>
      <trkpt lat="37.03785" lon="27.87363">
        <ele>385.7</ele>
      </trkpt>
      <trkpt lat="37.03776" lon="27.87367">
        <ele>383</ele>
      </trkpt>
      <trkpt lat="37.03775" lon="27.87367">
        <ele>382.6</ele>
      </trkpt>
      <trkpt lat="37.03768" lon="27.87369">
        <ele>380.7</ele>
      </trkpt>
      <trkpt lat="37.03768" lon="27.8737">
        <ele>380.7</ele>
      </trkpt>
      <trkpt lat="37.03761" lon="27.87375">
        <ele>378.9</ele>
      </trkpt>
      <trkpt lat="37.03753" lon="27.87381">
        <ele>377</ele>
      </trkpt>
      <trkpt lat="37.03746" lon="27.87386">
        <ele>375.4</ele>
      </trkpt>
      <trkpt lat="37.03739" lon="27.87389">
        <ele>373.7</ele>
      </trkpt>
      <trkpt lat="37.03731" lon="27.8739">
        <ele>372.1</ele>
      </trkpt>
      <trkpt lat="37.03722" lon="27.87396">
        <ele>370.4</ele>
      </trkpt>
      <trkpt lat="37.03711" lon="27.87401">
        <ele>368.5</ele>
      </trkpt>
      <trkpt lat="37.03705" lon="27.87409">
        <ele>368.2</ele>
      </trkpt>
      <trkpt lat="37.03704" lon="27.87408">
        <ele>367.8</ele>
      </trkpt>
      <trkpt lat="37.03703" lon="27.87407">
        <ele>367.6</ele>
      </trkpt>
      <trkpt lat="37.03701" lon="27.87407">
        <ele>367.2</ele>
      </trkpt>
      <trkpt lat="37.03698" lon="27.87411">
        <ele>367.2</ele>
      </trkpt>
      <trkpt lat="37.03695" lon="27.87416">
        <ele>367.2</ele>
      </trkpt>
      <trkpt lat="37.03692" lon="27.87418">
        <ele>366.7</ele>
      </trkpt>
      <trkpt lat="37.03681" lon="27.87427">
        <ele>362.7</ele>
      </trkpt>
      <trkpt lat="37.03676" lon="27.87432">
        <ele>360.9</ele>
      </trkpt>
      <trkpt lat="37.03668" lon="27.87441">
        <ele>358.2</ele>
      </trkpt>
      <trkpt lat="37.03665" lon="27.87443">
        <ele>357.4</ele>
      </trkpt>
      <trkpt lat="37.03657" lon="27.87451">
        <ele>354.8</ele>
      </trkpt>
      <trkpt lat="37.03651" lon="27.8746">
        <ele>352.5</ele>
      </trkpt>
      <trkpt lat="37.03644" lon="27.87467">
        <ele>350.9</ele>
      </trkpt>
      <trkpt lat="37.03643" lon="27.87468">
        <ele>350.8</ele>
      </trkpt>
      <trkpt lat="37.03635" lon="27.87472">
        <ele>349.6</ele>
      </trkpt>
      <trkpt lat="37.03624" lon="27.87479">
        <ele>348.5</ele>
      </trkpt>
      <trkpt lat="37.03621" lon="27.8748">
        <ele>348.3</ele>
      </trkpt>
      <trkpt lat="37.03609" lon="27.87485">
        <ele>347.7</ele>
      </trkpt>
      <trkpt lat="37.03602" lon="27.87488">
        <ele>347.5</ele>
      </trkpt>
      <trkpt lat="37.03595" lon="27.87493">
        <ele>347.6</ele>
      </trkpt>
      <trkpt lat="37.03592" lon="27.87497">
        <ele>347.7</ele>
      </trkpt>
      <trkpt lat="37.03589" lon="27.875">
        <ele>347.8</ele>
      </trkpt>
      <trkpt lat="37.03584" lon="27.87506">
        <ele>346.4</ele>
      </trkpt>
      <trkpt lat="37.03573" lon="27.87514">
        <ele>342.7</ele>
      </trkpt>
      <trkpt lat="37.03563" lon="27.87527">
        <ele>338.1</ele>
      </trkpt>
      <trkpt lat="37.03559" lon="27.87536">
        <ele>335.9</ele>
      </trkpt>
      <trkpt lat="37.03556" lon="27.8754">
        <ele>334.6</ele>
      </trkpt>
      <trkpt lat="37.03551" lon="27.87554">
        <ele>331.5</ele>
      </trkpt>
      <trkpt lat="37.03541" lon="27.87564">
        <ele>329.3</ele>
      </trkpt>
      <trkpt lat="37.0354" lon="27.87568">
        <ele>328.5</ele>
      </trkpt>
      <trkpt lat="37.03533" lon="27.87576">
        <ele>327.1</ele>
      </trkpt>
      <trkpt lat="37.03525" lon="27.87579">
        <ele>326.5</ele>
      </trkpt>
      <trkpt lat="37.03525" lon="27.87581">
        <ele>326.3</ele>
      </trkpt>
      <trkpt lat="37.03514" lon="27.87589">
        <ele>324.4</ele>
      </trkpt>
      <trkpt lat="37.03504" lon="27.87596">
        <ele>322.7</ele>
      </trkpt>
      <trkpt lat="37.03503" lon="27.87595">
        <ele>323.1</ele>
      </trkpt>
      <trkpt lat="37.035" lon="27.876">
        <ele>321.8</ele>
      </trkpt>
      <trkpt lat="37.03492" lon="27.87611">
        <ele>316.3</ele>
      </trkpt>
      <trkpt lat="37.03486" lon="27.87618">
        <ele>312.9</ele>
      </trkpt>
      <trkpt lat="37.03483" lon="27.87625">
        <ele>311</ele>
      </trkpt>
      <trkpt lat="37.0348" lon="27.87631">
        <ele>309.2</ele>
      </trkpt>
      <trkpt lat="37.0348" lon="27.87632">
        <ele>308.9</ele>
      </trkpt>
      <trkpt lat="37.03475" lon="27.87636">
        <ele>307.3</ele>
      </trkpt>
      <trkpt lat="37.0347" lon="27.87635">
        <ele>306.3</ele>
      </trkpt>
      <trkpt lat="37.03469" lon="27.87634">
        <ele>306</ele>
      </trkpt>
      <trkpt lat="37.03467" lon="27.87638">
        <ele>305.1</ele>
      </trkpt>
      <trkpt lat="37.03461" lon="27.87643">
        <ele>303.5</ele>
      </trkpt>
      <trkpt lat="37.03455" lon="27.87648">
        <ele>302.2</ele>
      </trkpt>
      <trkpt lat="37.03447" lon="27.87662">
        <ele>300.7</ele>
      </trkpt>
      <trkpt lat="37.03448" lon="27.87669">
        <ele>300.2</ele>
      </trkpt>
      <trkpt lat="37.03449" lon="27.8767">
        <ele>300.1</ele>
      </trkpt>
      <trkpt lat="37.03456" lon="27.87667">
        <ele>301.3</ele>
      </trkpt>
      <trkpt lat="37.03464" lon="27.87663">
        <ele>302.4</ele>
      </trkpt>
      <trkpt lat="37.03465" lon="27.87666">
        <ele>302.2</ele>
      </trkpt>
      <trkpt lat="37.03458" lon="27.87675">
        <ele>299.6</ele>
      </trkpt>
      <trkpt lat="37.03455" lon="27.8768">
        <ele>298.5</ele>
      </trkpt>
      <trkpt lat="37.03452" lon="27.8769">
        <ele>296.2</ele>
      </trkpt>
      <trkpt lat="37.03448" lon="27.87694">
        <ele>295.5</ele>
      </trkpt>
      <trkpt lat="37.03442" lon="27.87709">
        <ele>293.3</ele>
      </trkpt>
      <trkpt lat="37.03435" lon="27.87723">
        <ele>291.8</ele>
      </trkpt>
      <trkpt lat="37.03431" lon="27.87736">
        <ele>290.7</ele>
      </trkpt>
      <trkpt lat="37.03427" lon="27.8774">
        <ele>290.9</ele>
      </trkpt>
      <trkpt lat="37.03412" lon="27.87735">
        <ele>291.8</ele>
      </trkpt>
      <trkpt lat="37.03409" lon="27.87733">
        <ele>291.1</ele>
      </trkpt>
      <trkpt lat="37.03397" lon="27.87727">
        <ele>287.5</ele>
      </trkpt>
      <trkpt lat="37.03389" lon="27.87727">
        <ele>285.2</ele>
      </trkpt>
      <trkpt lat="37.03384" lon="27.87727">
        <ele>283.6</ele>
      </trkpt>
      <trkpt lat="37.03376" lon="27.87727">
        <ele>281.1</ele>
      </trkpt>
      <trkpt lat="37.03378" lon="27.87733">
        <ele>281.9</ele>
      </trkpt>
      <trkpt lat="37.03376" lon="27.87735">
        <ele>281.4</ele>
      </trkpt>
      <trkpt lat="37.0337" lon="27.87741">
        <ele>280</ele>
      </trkpt>
      <trkpt lat="37.03363" lon="27.87746">
        <ele>278.1</ele>
      </trkpt>
      <trkpt lat="37.03363" lon="27.87746">
        <ele>278.3</ele>
      </trkpt>
      <trkpt lat="37.03356" lon="27.87749">
        <ele>276.5</ele>
      </trkpt>
      <trkpt lat="37.03351" lon="27.87749">
        <ele>275.5</ele>
      </trkpt>
      <trkpt lat="37.03344" lon="27.87748">
        <ele>273.5</ele>
      </trkpt>
      <trkpt lat="37.03342" lon="27.87748">
        <ele>273</ele>
      </trkpt>
      <trkpt lat="37.03347" lon="27.87752">
        <ele>274.1</ele>
      </trkpt>
      <trkpt lat="37.03352" lon="27.87757">
        <ele>274</ele>
      </trkpt>
      <trkpt lat="37.03356" lon="27.8776">
        <ele>274.1</ele>
      </trkpt>
      <trkpt lat="37.03348" lon="27.87763">
        <ele>271.3</ele>
      </trkpt>
      <trkpt lat="37.03336" lon="27.87758">
        <ele>269.6</ele>
      </trkpt>
      <trkpt lat="37.03322" lon="27.87756">
        <ele>265.4</ele>
      </trkpt>
      <trkpt lat="37.03312" lon="27.87758">
        <ele>261.3</ele>
      </trkpt>
      <trkpt lat="37.03305" lon="27.87759">
        <ele>258.9</ele>
      </trkpt>
      <trkpt lat="37.03305" lon="27.87761">
        <ele>258.2</ele>
      </trkpt>
      <trkpt lat="37.03303" lon="27.87763">
        <ele>257.4</ele>
      </trkpt>
      <trkpt lat="37.03296" lon="27.87767">
        <ele>254</ele>
      </trkpt>
      <trkpt lat="37.03296" lon="27.87768">
        <ele>253.8</ele>
      </trkpt>
      <trkpt lat="37.03291" lon="27.87774">
        <ele>251.2</ele>
      </trkpt>
      <trkpt lat="37.03287" lon="27.87778">
        <ele>249.4</ele>
      </trkpt>
      <trkpt lat="37.03275" lon="27.87781">
        <ele>245.6</ele>
      </trkpt>
      <trkpt lat="37.03273" lon="27.87784">
        <ele>244.6</ele>
      </trkpt>
      <trkpt lat="37.03267" lon="27.87787">
        <ele>242.6</ele>
      </trkpt>
      <trkpt lat="37.03261" lon="27.8779">
        <ele>240.7</ele>
      </trkpt>
      <trkpt lat="37.03248" lon="27.87792">
        <ele>236.8</ele>
      </trkpt>
      <trkpt lat="37.03239" lon="27.87798">
        <ele>234.1</ele>
      </trkpt>
      <trkpt lat="37.03236" lon="27.87798">
        <ele>233</ele>
      </trkpt>
      <trkpt lat="37.03229" lon="27.87808">
        <ele>231.2</ele>
      </trkpt>
      <trkpt lat="37.03217" lon="27.8781">
        <ele>228.1</ele>
      </trkpt>
      <trkpt lat="37.0321" lon="27.87807">
        <ele>226</ele>
      </trkpt>
      <trkpt lat="37.03198" lon="27.87812">
        <ele>223.4</ele>
      </trkpt>
      <trkpt lat="37.03196" lon="27.87818">
        <ele>223.3</ele>
      </trkpt>
      <trkpt lat="37.03201" lon="27.87824">
        <ele>225</ele>
      </trkpt>
      <trkpt lat="37.03204" lon="27.87825">
        <ele>225.8</ele>
      </trkpt>
      <trkpt lat="37.03193" lon="27.8783">
        <ele>223.7</ele>
      </trkpt>
      <trkpt lat="37.03182" lon="27.87834">
        <ele>221.8</ele>
      </trkpt>
      <trkpt lat="37.03177" lon="27.87836">
        <ele>220.4</ele>
      </trkpt>
      <trkpt lat="37.03176" lon="27.87839">
        <ele>219.7</ele>
      </trkpt>
      <trkpt lat="37.03175" lon="27.8784">
        <ele>219.4</ele>
      </trkpt>
      <trkpt lat="37.0317" lon="27.87844">
        <ele>217.8</ele>
      </trkpt>
      <trkpt lat="37.03166" lon="27.87845">
        <ele>216.7</ele>
      </trkpt>
      <trkpt lat="37.03159" lon="27.87854">
        <ele>213.5</ele>
      </trkpt>
      <trkpt lat="37.03159" lon="27.87855">
        <ele>213.3</ele>
      </trkpt>
      <trkpt lat="37.03154" lon="27.87859">
        <ele>211.7</ele>
      </trkpt>
      <trkpt lat="37.03151" lon="27.87854">
        <ele>211.5</ele>
      </trkpt>
      <trkpt lat="37.03149" lon="27.87848">
        <ele>211.8</ele>
      </trkpt>
      <trkpt lat="37.03138" lon="27.87865">
        <ele>207.5</ele>
      </trkpt>
      <trkpt lat="37.03125" lon="27.87876">
        <ele>204.5</ele>
      </trkpt>
      <trkpt lat="37.03123" lon="27.87879">
        <ele>204</ele>
      </trkpt>
      <trkpt lat="37.03117" lon="27.8788">
        <ele>203</ele>
      </trkpt>
      <trkpt lat="37.03107" lon="27.87884">
        <ele>201.5</ele>
      </trkpt>
      <trkpt lat="37.03106" lon="27.87884">
        <ele>201.4</ele>
      </trkpt>
      <trkpt lat="37.03102" lon="27.87883">
        <ele>200.9</ele>
      </trkpt>
      <trkpt lat="37.03098" lon="27.87884">
        <ele>200.2</ele>
      </trkpt>
      <trkpt lat="37.03088" lon="27.87891">
        <ele>199.4</ele>
      </trkpt>
      <trkpt lat="37.03078" lon="27.87897">
        <ele>197.7</ele>
      </trkpt>
      <trkpt lat="37.03067" lon="27.87897">
        <ele>194.4</ele>
      </trkpt>
      <trkpt lat="37.03064" lon="27.87884">
        <ele>192.2</ele>
      </trkpt>
      <trkpt lat="37.03062" lon="27.87883">
        <ele>191.3</ele>
      </trkpt>
      <trkpt lat="37.03055" lon="27.87895">
        <ele>190.6</ele>
      </trkpt>
      <trkpt lat="37.03054" lon="27.87901">
        <ele>191</ele>
      </trkpt>
      <trkpt lat="37.0306" lon="27.87916">
        <ele>194.5</ele>
      </trkpt>
      <trkpt lat="37.03069" lon="27.87919">
        <ele>196.2</ele>
      </trkpt>
      <trkpt lat="37.03076" lon="27.87918">
        <ele>198.6</ele>
      </trkpt>
      <trkpt lat="37.03075" lon="27.87918">
        <ele>198.2</ele>
      </trkpt>
      <trkpt lat="37.03075" lon="27.87917">
        <ele>198.7</ele>
      </trkpt>
      <trkpt lat="37.03073" lon="27.87918">
        <ele>197.7</ele>
      </trkpt>
      <trkpt lat="37.03072" lon="27.87919">
        <ele>197</ele>
      </trkpt>
      <trkpt lat="37.03071" lon="27.8792">
        <ele>196.4</ele>
      </trkpt>
      <trkpt lat="37.0307" lon="27.87921">
        <ele>195.6</ele>
      </trkpt>
      <trkpt lat="37.03067" lon="27.87921">
        <ele>194.9</ele>
      </trkpt>
      <trkpt lat="37.03067" lon="27.87921">
        <ele>194.8</ele>
      </trkpt>
      <trkpt lat="37.03067" lon="27.87922">
        <ele>194.4</ele>
      </trkpt>
      <trkpt lat="37.03067" lon="27.87922">
        <ele>194.4</ele>
      </trkpt>
      <trkpt lat="37.03065" lon="27.87923">
        <ele>193.6</ele>
      </trkpt>
      <trkpt lat="37.0306" lon="27.87924">
        <ele>191.9</ele>
      </trkpt>
      <trkpt lat="37.03058" lon="27.87924">
        <ele>191.2</ele>
      </trkpt>
      <trkpt lat="37.03053" lon="27.87921">
        <ele>191</ele>
      </trkpt>
      <trkpt lat="37.03052" lon="27.87921">
        <ele>191</ele>
      </trkpt>
      <trkpt lat="37.03048" lon="27.8792">
        <ele>190.1</ele>
      </trkpt>
      <trkpt lat="37.03046" lon="27.87919">
        <ele>189.8</ele>
      </trkpt>
      <trkpt lat="37.03042" lon="27.87916">
        <ele>189.6</ele>
      </trkpt>
      <trkpt lat="37.03041" lon="27.87913">
        <ele>188.9</ele>
      </trkpt>
      <trkpt lat="37.0304" lon="27.87914">
        <ele>188.6</ele>
      </trkpt>
      <trkpt lat="37.03037" lon="27.87912">
        <ele>187.6</ele>
      </trkpt>
      <trkpt lat="37.03036" lon="27.87912">
        <ele>187.4</ele>
      </trkpt>
      <trkpt lat="37.03036" lon="27.87915">
        <ele>187.8</ele>
      </trkpt>
      <trkpt lat="37.03036" lon="27.87916">
        <ele>187.8</ele>
      </trkpt>
      <trkpt lat="37.03033" lon="27.87916">
        <ele>187.1</ele>
      </trkpt>
      <trkpt lat="37.03033" lon="27.87917">
        <ele>187.1</ele>
      </trkpt>
      <trkpt lat="37.03034" lon="27.8792">
        <ele>186.4</ele>
      </trkpt>
      <trkpt lat="37.03034" lon="27.87923">
        <ele>185.7</ele>
      </trkpt>
      <trkpt lat="37.03034" lon="27.87923">
        <ele>185.7</ele>
      </trkpt>
      <trkpt lat="37.03036" lon="27.87925">
        <ele>185.6</ele>
      </trkpt>
      <trkpt lat="37.03039" lon="27.87926">
        <ele>186</ele>
      </trkpt>
      <trkpt lat="37.0304" lon="27.87927">
        <ele>185.8</ele>
      </trkpt>
      <trkpt lat="37.03041" lon="27.87929">
        <ele>185.5</ele>
      </trkpt>
      <trkpt lat="37.03041" lon="27.87929">
        <ele>185.5</ele>
      </trkpt>
      <trkpt lat="37.03042" lon="27.87932">
        <ele>185</ele>
      </trkpt>
      <trkpt lat="37.03045" lon="27.87934">
        <ele>184.7</ele>
      </trkpt>
      <trkpt lat="37.03046" lon="27.87935">
        <ele>184.9</ele>
      </trkpt>
      <trkpt lat="37.0305" lon="27.87939">
        <ele>184.3</ele>
      </trkpt>
      <trkpt lat="37.03051" lon="27.87941">
        <ele>183.8</ele>
      </trkpt>
      <trkpt lat="37.03053" lon="27.87944">
        <ele>183.1</ele>
      </trkpt>
      <trkpt lat="37.03053" lon="27.87948">
        <ele>181.9</ele>
      </trkpt>
      <trkpt lat="37.03053" lon="27.87947">
        <ele>182.3</ele>
      </trkpt>
      <trkpt lat="37.03053" lon="27.87947">
        <ele>182.3</ele>
      </trkpt>
      <trkpt lat="37.03056" lon="27.87948">
        <ele>182.4</ele>
      </trkpt>
      <trkpt lat="37.03059" lon="27.87949">
        <ele>182.6</ele>
      </trkpt>
      <trkpt lat="37.03062" lon="27.87949">
        <ele>183</ele>
      </trkpt>
      <trkpt lat="37.03065" lon="27.8795">
        <ele>183.1</ele>
      </trkpt>
      <trkpt lat="37.03068" lon="27.87951">
        <ele>183.2</ele>
      </trkpt>
      <trkpt lat="37.03072" lon="27.87951">
        <ele>184</ele>
      </trkpt>
      <trkpt lat="37.03074" lon="27.87952">
        <ele>183.8</ele>
      </trkpt>
      <trkpt lat="37.03075" lon="27.87953">
        <ele>183.8</ele>
      </trkpt>
      <trkpt lat="37.03079" lon="27.87956">
        <ele>183.1</ele>
      </trkpt>
      <trkpt lat="37.0308" lon="27.87956">
        <ele>183.1</ele>
      </trkpt>
      <trkpt lat="37.03084" lon="27.87957">
        <ele>183.1</ele>
      </trkpt>
      <trkpt lat="37.03086" lon="27.87957">
        <ele>183.1</ele>
      </trkpt>
      <trkpt lat="37.03089" lon="27.87959">
        <ele>182.3</ele>
      </trkpt>
      <trkpt lat="37.03092" lon="27.8796">
        <ele>181.9</ele>
      </trkpt>
      <trkpt lat="37.03092" lon="27.8796">
        <ele>181.9</ele>
      </trkpt>
      <trkpt lat="37.03094" lon="27.8796">
        <ele>182.4</ele>
      </trkpt>
      <trkpt lat="37.03094" lon="27.87963">
        <ele>180.7</ele>
      </trkpt>
      <trkpt lat="37.03097" lon="27.87963">
        <ele>180.8</ele>
      </trkpt>
      <trkpt lat="37.03097" lon="27.87963">
        <ele>180.8</ele>
      </trkpt>
      <trkpt lat="37.031" lon="27.87965">
        <ele>180.1</ele>
      </trkpt>
      <trkpt lat="37.031" lon="27.87965">
        <ele>180</ele>
      </trkpt>
      <trkpt lat="37.03097" lon="27.87965">
        <ele>180.1</ele>
      </trkpt>
      <trkpt lat="37.03098" lon="27.87965">
        <ele>179.9</ele>
      </trkpt>
      <trkpt lat="37.03103" lon="27.87965">
        <ele>180.2</ele>
      </trkpt>
      <trkpt lat="37.03104" lon="27.87965">
        <ele>180.3</ele>
      </trkpt>
      <trkpt lat="37.03111" lon="27.87962">
        <ele>182</ele>
      </trkpt>
      <trkpt lat="37.03116" lon="27.87961">
        <ele>182.7</ele>
      </trkpt>
      <trkpt lat="37.03118" lon="27.8796">
        <ele>183</ele>
      </trkpt>
      <trkpt lat="37.03119" lon="27.8796">
        <ele>183</ele>
      </trkpt>
      <trkpt lat="37.03122" lon="27.87961">
        <ele>182.7</ele>
      </trkpt>
      <trkpt lat="37.0313" lon="27.87963">
        <ele>182.1</ele>
      </trkpt>
      <trkpt lat="37.03131" lon="27.87965">
        <ele>181.2</ele>
      </trkpt>
      <trkpt lat="37.03134" lon="27.87964">
        <ele>182</ele>
      </trkpt>
      <trkpt lat="37.03141" lon="27.87964">
        <ele>182.2</ele>
      </trkpt>
      <trkpt lat="37.03145" lon="27.87964">
        <ele>182.4</ele>
      </trkpt>
      <trkpt lat="37.03148" lon="27.87965">
        <ele>181.9</ele>
      </trkpt>
      <trkpt lat="37.03152" lon="27.87967">
        <ele>181.3</ele>
      </trkpt>
      <trkpt lat="37.03153" lon="27.87966">
        <ele>181.4</ele>
      </trkpt>
      <trkpt lat="37.0316" lon="27.87967">
        <ele>181.4</ele>
      </trkpt>
      <trkpt lat="37.03163" lon="27.87968">
        <ele>181.2</ele>
      </trkpt>
      <trkpt lat="37.03165" lon="27.87969">
        <ele>180.6</ele>
      </trkpt>
      <trkpt lat="37.03164" lon="27.87974">
        <ele>178.3</ele>
      </trkpt>
      <trkpt lat="37.03164" lon="27.87975">
        <ele>178</ele>
      </trkpt>
      <trkpt lat="37.0316" lon="27.87979">
        <ele>176.2</ele>
      </trkpt>
      <trkpt lat="37.0316" lon="27.87979">
        <ele>176</ele>
      </trkpt>
      <trkpt lat="37.03159" lon="27.87981">
        <ele>175.2</ele>
      </trkpt>
      <trkpt lat="37.03154" lon="27.87986">
        <ele>172.8</ele>
      </trkpt>
      <trkpt lat="37.03153" lon="27.87986">
        <ele>172.7</ele>
      </trkpt>
      <trkpt lat="37.0315" lon="27.87987">
        <ele>172</ele>
      </trkpt>
      <trkpt lat="37.03143" lon="27.87991">
        <ele>170.3</ele>
      </trkpt>
      <trkpt lat="37.03139" lon="27.87994">
        <ele>168.7</ele>
      </trkpt>
      <trkpt lat="37.03135" lon="27.87996">
        <ele>167.7</ele>
      </trkpt>
      <trkpt lat="37.03128" lon="27.87998">
        <ele>166.7</ele>
      </trkpt>
      <trkpt lat="37.03122" lon="27.87998">
        <ele>166.4</ele>
      </trkpt>
      <trkpt lat="37.03119" lon="27.87999">
        <ele>166</ele>
      </trkpt>
      <trkpt lat="37.0312" lon="27.88">
        <ele>165.2</ele>
      </trkpt>
      <trkpt lat="37.03122" lon="27.88003">
        <ele>164.2</ele>
      </trkpt>
      <trkpt lat="37.03123" lon="27.88005">
        <ele>163.6</ele>
      </trkpt>
      <trkpt lat="37.03125" lon="27.88008">
        <ele>162.7</ele>
      </trkpt>
      <trkpt lat="37.0313" lon="27.8801">
        <ele>162.3</ele>
      </trkpt>
      <trkpt lat="37.03133" lon="27.88013">
        <ele>161.3</ele>
      </trkpt>
      <trkpt lat="37.03135" lon="27.88017">
        <ele>160.2</ele>
      </trkpt>
      <trkpt lat="37.03139" lon="27.88017">
        <ele>160.3</ele>
      </trkpt>
      <trkpt lat="37.03145" lon="27.88019">
        <ele>160.3</ele>
      </trkpt>
      <trkpt lat="37.03149" lon="27.8802">
        <ele>160.2</ele>
      </trkpt>
      <trkpt lat="37.0315" lon="27.88023">
        <ele>159.6</ele>
      </trkpt>
      <trkpt lat="37.03155" lon="27.88024">
        <ele>159.5</ele>
      </trkpt>
      <trkpt lat="37.0316" lon="27.88026">
        <ele>159.5</ele>
      </trkpt>
      <trkpt lat="37.03163" lon="27.88028">
        <ele>159.1</ele>
      </trkpt>
      <trkpt lat="37.03159" lon="27.88032">
        <ele>157.7</ele>
      </trkpt>
      <trkpt lat="37.03158" lon="27.88032">
        <ele>157.5</ele>
      </trkpt>
      <trkpt lat="37.03157" lon="27.88036">
        <ele>156.2</ele>
      </trkpt>
      <trkpt lat="37.03155" lon="27.8804">
        <ele>155</ele>
      </trkpt>
      <trkpt lat="37.03156" lon="27.8804">
        <ele>155</ele>
      </trkpt>
      <trkpt lat="37.03159" lon="27.88041">
        <ele>155</ele>
      </trkpt>
      <trkpt lat="37.03161" lon="27.88042">
        <ele>155.1</ele>
      </trkpt>
      <trkpt lat="37.03165" lon="27.88045">
        <ele>155.1</ele>
      </trkpt>
      <trkpt lat="37.03166" lon="27.88046">
        <ele>154.9</ele>
      </trkpt>
      <trkpt lat="37.03171" lon="27.88051">
        <ele>155.2</ele>
      </trkpt>
      <trkpt lat="37.03172" lon="27.88051">
        <ele>155.4</ele>
      </trkpt>
      <trkpt lat="37.03171" lon="27.88053">
        <ele>154.7</ele>
      </trkpt>
      <trkpt lat="37.03169" lon="27.88057">
        <ele>152.7</ele>
      </trkpt>
      <trkpt lat="37.03167" lon="27.88061">
        <ele>150.8</ele>
      </trkpt>
      <trkpt lat="37.03166" lon="27.88064">
        <ele>150</ele>
      </trkpt>
      <trkpt lat="37.03163" lon="27.88067">
        <ele>148.7</ele>
      </trkpt>
      <trkpt lat="37.03161" lon="27.88077">
        <ele>145.4</ele>
      </trkpt>
      <trkpt lat="37.0316" lon="27.88079">
        <ele>144.7</ele>
      </trkpt>
      <trkpt lat="37.03152" lon="27.88098">
        <ele>141.7</ele>
      </trkpt>
      <trkpt lat="37.03143" lon="27.88108">
        <ele>139.1</ele>
      </trkpt>
      <trkpt lat="37.03142" lon="27.8811">
        <ele>138.7</ele>
      </trkpt>
      <trkpt lat="37.03139" lon="27.88111">
        <ele>137.7</ele>
      </trkpt>
      <trkpt lat="37.03133" lon="27.88121">
        <ele>135.5</ele>
      </trkpt>
      <trkpt lat="37.03131" lon="27.88122">
        <ele>134.8</ele>
      </trkpt>
      <trkpt lat="37.03127" lon="27.88123">
        <ele>133.3</ele>
      </trkpt>
      <trkpt lat="37.03121" lon="27.88129">
        <ele>130.9</ele>
      </trkpt>
      <trkpt lat="37.0312" lon="27.88131">
        <ele>130.1</ele>
      </trkpt>
      <trkpt lat="37.03118" lon="27.88134">
        <ele>129.3</ele>
      </trkpt>
      <trkpt lat="37.03112" lon="27.88137">
        <ele>126.7</ele>
      </trkpt>
      <trkpt lat="37.0311" lon="27.8814">
        <ele>125.7</ele>
      </trkpt>
      <trkpt lat="37.03115" lon="27.88148">
        <ele>126.6</ele>
      </trkpt>
      <trkpt lat="37.03114" lon="27.8815">
        <ele>126.3</ele>
      </trkpt>
      <trkpt lat="37.03112" lon="27.88153">
        <ele>125</ele>
      </trkpt>
      <trkpt lat="37.03107" lon="27.8816">
        <ele>122</ele>
      </trkpt>
      <trkpt lat="37.03101" lon="27.88163">
        <ele>118.9</ele>
      </trkpt>
      <trkpt lat="37.03099" lon="27.88166">
        <ele>117.8</ele>
      </trkpt>
      <trkpt lat="37.03094" lon="27.88166">
        <ele>115.3</ele>
      </trkpt>
      <trkpt lat="37.03092" lon="27.88167">
        <ele>114.3</ele>
      </trkpt>
      <trkpt lat="37.03087" lon="27.8817">
        <ele>112</ele>
      </trkpt>
      <trkpt lat="37.03084" lon="27.88175">
        <ele>111.4</ele>
      </trkpt>
      <trkpt lat="37.03083" lon="27.88182">
        <ele>112.1</ele>
      </trkpt>
      <trkpt lat="37.03081" lon="27.88187">
        <ele>112.1</ele>
      </trkpt>
      <trkpt lat="37.03079" lon="27.8819">
        <ele>112</ele>
      </trkpt>
      <trkpt lat="37.03077" lon="27.88193">
        <ele>111.5</ele>
      </trkpt>
      <trkpt lat="37.03076" lon="27.88195">
        <ele>111.5</ele>
      </trkpt>
      <trkpt lat="37.03074" lon="27.88197">
        <ele>111.2</ele>
      </trkpt>
      <trkpt lat="37.0307" lon="27.882">
        <ele>110</ele>
      </trkpt>
      <trkpt lat="37.03067" lon="27.88201">
        <ele>109.1</ele>
      </trkpt>
      <trkpt lat="37.03066" lon="27.88203">
        <ele>108.7</ele>
      </trkpt>
      <trkpt lat="37.03064" lon="27.88204">
        <ele>108</ele>
      </trkpt>
      <trkpt lat="37.03059" lon="27.88209">
        <ele>106.5</ele>
      </trkpt>
      <trkpt lat="37.03058" lon="27.88211">
        <ele>106.2</ele>
      </trkpt>
      <trkpt lat="37.03056" lon="27.88213">
        <ele>105.6</ele>
      </trkpt>
      <trkpt lat="37.03055" lon="27.88217">
        <ele>105.1</ele>
      </trkpt>
      <trkpt lat="37.03051" lon="27.88221">
        <ele>103.8</ele>
      </trkpt>
      <trkpt lat="37.03048" lon="27.88229">
        <ele>102.4</ele>
      </trkpt>
      <trkpt lat="37.03045" lon="27.88231">
        <ele>101.2</ele>
      </trkpt>
      <trkpt lat="37.03044" lon="27.88236">
        <ele>100.7</ele>
      </trkpt>
      <trkpt lat="37.03039" lon="27.88243">
        <ele>98</ele>
      </trkpt>
      <trkpt lat="37.03036" lon="27.88253">
        <ele>96.1</ele>
      </trkpt>
      <trkpt lat="37.03033" lon="27.88254">
        <ele>94.7</ele>
      </trkpt>
      <trkpt lat="37.03029" lon="27.88254">
        <ele>92.5</ele>
      </trkpt>
      <trkpt lat="37.03026" lon="27.88258">
        <ele>90.3</ele>
      </trkpt>
      <trkpt lat="37.03023" lon="27.88264">
        <ele>88.4</ele>
      </trkpt>
      <trkpt lat="37.03019" lon="27.88265">
        <ele>86.4</ele>
      </trkpt>
      <trkpt lat="37.03016" lon="27.88267">
        <ele>84.9</ele>
      </trkpt>
      <trkpt lat="37.03013" lon="27.88272">
        <ele>82.9</ele>
      </trkpt>
      <trkpt lat="37.03011" lon="27.88277">
        <ele>81.6</ele>
      </trkpt>
      <trkpt lat="37.0301" lon="27.88283">
        <ele>80.9</ele>
      </trkpt>
      <trkpt lat="37.03006" lon="27.88288">
        <ele>78.4</ele>
      </trkpt>
      <trkpt lat="37.03004" lon="27.88289">
        <ele>77.6</ele>
      </trkpt>
      <trkpt lat="37.03002" lon="27.88293">
        <ele>76.4</ele>
      </trkpt>
      <trkpt lat="37.02997" lon="27.88298">
        <ele>74.7</ele>
      </trkpt>
      <trkpt lat="37.02995" lon="27.88302">
        <ele>73.9</ele>
      </trkpt>
      <trkpt lat="37.02992" lon="27.88305">
        <ele>72.9</ele>
      </trkpt>
      <trkpt lat="37.02988" lon="27.88309">
        <ele>71.7</ele>
      </trkpt>
      <trkpt lat="37.02985" lon="27.88309">
        <ele>71.1</ele>
      </trkpt>
      <trkpt lat="37.02982" lon="27.88309">
        <ele>70.1</ele>
      </trkpt>
      <trkpt lat="37.02975" lon="27.8831">
        <ele>68.3</ele>
      </trkpt>
      <trkpt lat="37.02971" lon="27.88313">
        <ele>67</ele>
      </trkpt>
      <trkpt lat="37.02968" lon="27.88314">
        <ele>66.1</ele>
      </trkpt>
      <trkpt lat="37.02966" lon="27.88321">
        <ele>65</ele>
      </trkpt>
      <trkpt lat="37.02965" lon="27.88328">
        <ele>64</ele>
      </trkpt>
      <trkpt lat="37.02963" lon="27.88335">
        <ele>62.8</ele>
      </trkpt>
      <trkpt lat="37.02959" lon="27.88345">
        <ele>60.8</ele>
      </trkpt>
      <trkpt lat="37.02958" lon="27.88347">
        <ele>60.4</ele>
      </trkpt>
      <trkpt lat="37.02955" lon="27.8835">
        <ele>59.2</ele>
      </trkpt>
      <trkpt lat="37.02954" lon="27.88352">
        <ele>58.7</ele>
      </trkpt>
      <trkpt lat="37.02954" lon="27.88358">
        <ele>58.3</ele>
      </trkpt>
      <trkpt lat="37.02955" lon="27.88366">
        <ele>57.9</ele>
      </trkpt>
      <trkpt lat="37.02954" lon="27.88367">
        <ele>57.7</ele>
      </trkpt>
      <trkpt lat="37.0295" lon="27.8837">
        <ele>56.5</ele>
      </trkpt>
      <trkpt lat="37.02947" lon="27.88381">
        <ele>55</ele>
      </trkpt>
      <trkpt lat="37.02943" lon="27.8839">
        <ele>53.6</ele>
      </trkpt>
      <trkpt lat="37.0294" lon="27.88395">
        <ele>52.7</ele>
      </trkpt>
      <trkpt lat="37.02936" lon="27.884">
        <ele>51.9</ele>
      </trkpt>
      <trkpt lat="37.02935" lon="27.88404">
        <ele>51.4</ele>
      </trkpt>
      <trkpt lat="37.02928" lon="27.88404">
        <ele>50.2</ele>
      </trkpt>
      <trkpt lat="37.0293" lon="27.88403">
        <ele>50.6</ele>
      </trkpt>
      <trkpt lat="37.0293" lon="27.88403">
        <ele>50.6</ele>
      </trkpt>
      <trkpt lat="37.0293" lon="27.88408">
        <ele>50.3</ele>
      </trkpt>
      <trkpt lat="37.0293" lon="27.88411">
        <ele>50.3</ele>
      </trkpt>
      <trkpt lat="37.0293" lon="27.88415">
        <ele>50.1</ele>
      </trkpt>
      <trkpt lat="37.0293" lon="27.88415">
        <ele>50.1</ele>
      </trkpt>
      <trkpt lat="37.02929" lon="27.8841">
        <ele>50.2</ele>
      </trkpt>
      <trkpt lat="37.02927" lon="27.88407">
        <ele>49.8</ele>
      </trkpt>
      <trkpt lat="37.02925" lon="27.88401">
        <ele>49.6</ele>
      </trkpt>
      <trkpt lat="37.02924" lon="27.884">
        <ele>49.5</ele>
      </trkpt>
      <trkpt lat="37.0292" lon="27.88394">
        <ele>48.9</ele>
      </trkpt>
      <trkpt lat="37.02919" lon="27.88394">
        <ele>48.7</ele>
      </trkpt>
      <trkpt lat="37.02917" lon="27.88393">
        <ele>48.3</ele>
      </trkpt>
      <trkpt lat="37.02917" lon="27.88393">
        <ele>48.4</ele>
      </trkpt>
      <trkpt lat="37.02918" lon="27.88393">
        <ele>48.5</ele>
      </trkpt>
      <trkpt lat="37.02918" lon="27.88393">
        <ele>48.6</ele>
      </trkpt>
      <trkpt lat="37.02917" lon="27.88393">
        <ele>48.4</ele>
      </trkpt>
      <trkpt lat="37.02917" lon="27.88394">
        <ele>48.3</ele>
      </trkpt>
      <trkpt lat="37.02915" lon="27.88394">
        <ele>48.1</ele>
      </trkpt>
      <trkpt lat="37.02914" lon="27.88392">
        <ele>47.9</ele>
      </trkpt>
      <trkpt lat="37.02914" lon="27.88392">
        <ele>47.9</ele>
      </trkpt>
      <trkpt lat="37.02912" lon="27.884">
        <ele>47.5</ele>
      </trkpt>
      <trkpt lat="37.02908" lon="27.88413">
        <ele>46.4</ele>
      </trkpt>
      <trkpt lat="37.02908" lon="27.88415">
        <ele>46.3</ele>
      </trkpt>
      <trkpt lat="37.02904" lon="27.88428">
        <ele>45.2</ele>
      </trkpt>
      <trkpt lat="37.02904" lon="27.88432">
        <ele>45</ele>
      </trkpt>
      <trkpt lat="37.02901" lon="27.88443">
        <ele>44.3</ele>
      </trkpt>
      <trkpt lat="37.02899" lon="27.88453">
        <ele>43.8</ele>
      </trkpt>
      <trkpt lat="37.02899" lon="27.8846">
        <ele>43.7</ele>
      </trkpt>
      <trkpt lat="37.02898" lon="27.88463">
        <ele>43.5</ele>
      </trkpt>
      <trkpt lat="37.02898" lon="27.88474">
        <ele>43.4</ele>
      </trkpt>
      <trkpt lat="37.02899" lon="27.88483">
        <ele>43.3</ele>
      </trkpt>
      <trkpt lat="37.02897" lon="27.88489">
        <ele>43.1</ele>
      </trkpt>
      <trkpt lat="37.02898" lon="27.88493">
        <ele>43</ele>
      </trkpt>
      <trkpt lat="37.02895" lon="27.88498">
        <ele>42.7</ele>
      </trkpt>
      <trkpt lat="37.02896" lon="27.88501">
        <ele>42.5</ele>
      </trkpt>
      <trkpt lat="37.02893" lon="27.88509">
        <ele>40.8</ele>
      </trkpt>
      <trkpt lat="37.02892" lon="27.88519">
        <ele>38.9</ele>
      </trkpt>
      <trkpt lat="37.02892" lon="27.8852">
        <ele>38.7</ele>
      </trkpt>
      <trkpt lat="37.02895" lon="27.88527">
        <ele>37.8</ele>
      </trkpt>
      <trkpt lat="37.02895" lon="27.8853">
        <ele>37.4</ele>
      </trkpt>
      <trkpt lat="37.02898" lon="27.88535">
        <ele>36.7</ele>
      </trkpt>
      <trkpt lat="37.029" lon="27.88548">
        <ele>34.6</ele>
      </trkpt>
      <trkpt lat="37.02903" lon="27.88552">
        <ele>34.1</ele>
      </trkpt>
      <trkpt lat="37.02903" lon="27.88556">
        <ele>33.5</ele>
      </trkpt>
      <trkpt lat="37.02903" lon="27.88563">
        <ele>32.2</ele>
      </trkpt>
      <trkpt lat="37.02903" lon="27.8857">
        <ele>30.8</ele>
      </trkpt>
      <trkpt lat="37.02901" lon="27.88577">
        <ele>29.4</ele>
      </trkpt>
      <trkpt lat="37.02898" lon="27.88586">
        <ele>27.5</ele>
      </trkpt>
      <trkpt lat="37.02897" lon="27.88587">
        <ele>27.2</ele>
      </trkpt>
      <trkpt lat="37.02894" lon="27.88589">
        <ele>26.4</ele>
      </trkpt>
      <trkpt lat="37.02891" lon="27.88592">
        <ele>25.4</ele>
      </trkpt>
      <trkpt lat="37.02889" lon="27.88595">
        <ele>24.7</ele>
      </trkpt>
      <trkpt lat="37.0288" lon="27.88597">
        <ele>23.2</ele>
      </trkpt>
      <trkpt lat="37.02875" lon="27.886">
        <ele>22.1</ele>
      </trkpt>
      <trkpt lat="37.02871" lon="27.886">
        <ele>21.7</ele>
      </trkpt>
      <trkpt lat="37.02866" lon="27.88607">
        <ele>19.8</ele>
      </trkpt>
      <trkpt lat="37.02863" lon="27.88607">
        <ele>19.4</ele>
      </trkpt>
      <trkpt lat="37.02861" lon="27.88611">
        <ele>18.3</ele>
      </trkpt>
      <trkpt lat="37.02856" lon="27.88617">
        <ele>16.6</ele>
      </trkpt>
      <trkpt lat="37.02854" lon="27.88619">
        <ele>16</ele>
      </trkpt>
      <trkpt lat="37.0285" lon="27.88621">
        <ele>15.2</ele>
      </trkpt>
      <trkpt lat="37.02848" lon="27.88624">
        <ele>14.3</ele>
      </trkpt>
      <trkpt lat="37.02844" lon="27.88628">
        <ele>13</ele>
      </trkpt>
      <trkpt lat="37.02841" lon="27.8863">
        <ele>12.3</ele>
      </trkpt>
      <trkpt lat="37.02837" lon="27.88637">
        <ele>10.5</ele>
      </trkpt>
      <trkpt lat="37.02836" lon="27.88641">
        <ele>9.6</ele>
      </trkpt>
      <trkpt lat="37.02836" lon="27.88641">
        <ele>9.5</ele>
      </trkpt>
      <trkpt lat="37.02836" lon="27.88641">
        <ele>9.4</ele>
      </trkpt>
      <trkpt lat="37.02836" lon="27.88642">
        <ele>9.4</ele>
      </trkpt>
      <trkpt lat="37.02836" lon="27.88642">
        <ele>9.4</ele>
      </trkpt>
      <trkpt lat="37.02839" lon="27.88644">
        <ele>9.2</ele>
      </trkpt>
      <trkpt lat="37.02842" lon="27.88662">
        <ele>5.9</ele>
      </trkpt>
      <trkpt lat="37.02842" lon="27.88662">
        <ele>5.9</ele>
      </trkpt>
      <trkpt lat="37.02851" lon="27.88677">
        <ele>5.8</ele>
      </trkpt>
      <trkpt lat="37.02857" lon="27.88688">
        <ele>6.4</ele>
      </trkpt>
      <trkpt lat="37.02865" lon="27.88704">
        <ele>7.2</ele>
      </trkpt>
      <trkpt lat="37.02869" lon="27.88717">
        <ele>7.6</ele>
      </trkpt>
      <trkpt lat="37.02877" lon="27.88732">
        <ele>8.3</ele>
      </trkpt>
      <trkpt lat="37.02882" lon="27.88744">
        <ele>8.9</ele>
      </trkpt>
      <trkpt lat="37.02887" lon="27.88749">
        <ele>9.4</ele>
      </trkpt>
      <trkpt lat="37.02895" lon="27.88756">
        <ele>10.1</ele>
      </trkpt>
      <trkpt lat="37.02899" lon="27.88764">
        <ele>10.3</ele>
      </trkpt>
      <trkpt lat="37.02902" lon="27.88768">
        <ele>10.4</ele>
      </trkpt>
      <trkpt lat="37.02906" lon="27.88777">
        <ele>10.5</ele>
      </trkpt>
      <trkpt lat="37.02907" lon="27.8878">
        <ele>10.5</ele>
      </trkpt>
      <trkpt lat="37.02912" lon="27.8879">
        <ele>10.6</ele>
      </trkpt>
      <trkpt lat="37.02919" lon="27.88799">
        <ele>11.1</ele>
      </trkpt>
      <trkpt lat="37.02928" lon="27.88813">
        <ele>12.1</ele>
      </trkpt>
      <trkpt lat="37.02934" lon="27.88827">
        <ele>12.7</ele>
      </trkpt>
      <trkpt lat="37.02941" lon="27.88846">
        <ele>12.6</ele>
      </trkpt>
      <trkpt lat="37.02946" lon="27.8886">
        <ele>12.2</ele>
      </trkpt>
      <trkpt lat="37.02948" lon="27.88879">
        <ele>10.8</ele>
      </trkpt>
      <trkpt lat="37.02957" lon="27.88893">
        <ele>10.8</ele>
      </trkpt>
      <trkpt lat="37.02961" lon="27.88908">
        <ele>9.8</ele>
      </trkpt>
      <trkpt lat="37.02965" lon="27.88925">
        <ele>8.7</ele>
      </trkpt>
      <trkpt lat="37.02968" lon="27.88942">
        <ele>8</ele>
      </trkpt>
      <trkpt lat="37.02973" lon="27.88957">
        <ele>7.5</ele>
      </trkpt>
      <trkpt lat="37.02971" lon="27.88976">
        <ele>5.9</ele>
      </trkpt>
      <trkpt lat="37.02968" lon="27.88997">
        <ele>4.3</ele>
      </trkpt>
      <trkpt lat="37.0297" lon="27.89012">
        <ele>3.9</ele>
      </trkpt>
      <trkpt lat="37.0297" lon="27.89033">
        <ele>3.3</ele>
      </trkpt>
      <trkpt lat="37.02969" lon="27.89048">
        <ele>2.9</ele>
      </trkpt>
      <trkpt lat="37.02962" lon="27.89066">
        <ele>2.4</ele>
      </trkpt>
      <trkpt lat="37.02955" lon="27.89081">
        <ele>2</ele>
      </trkpt>
      <trkpt lat="37.02953" lon="27.89083">
        <ele>2</ele>
      </trkpt>
      <trkpt lat="37.02949" lon="27.89087">
        <ele>2</ele>
      </trkpt>
      <trkpt lat="37.02939" lon="27.89089">
        <ele>1.9</ele>
      </trkpt>
      <trkpt lat="37.02924" lon="27.89089">
        <ele>1.9</ele>
      </trkpt>
      <trkpt lat="37.02911" lon="27.89088">
        <ele>1.9</ele>
      </trkpt>
      <trkpt lat="37.02908" lon="27.89088">
        <ele>1.9</ele>
      </trkpt>
      <trkpt lat="37.02896" lon="27.89091">
        <ele>1.9</ele>
      </trkpt>
      <trkpt lat="37.02895" lon="27.89093">
        <ele>1.9</ele>
      </trkpt>
      <trkpt lat="37.02895" lon="27.89093">
        <ele>1.9</ele>
      </trkpt>
      <trkpt lat="37.02896" lon="27.89099">
        <ele>1.8</ele>
      </trkpt>
      <trkpt lat="37.02895" lon="27.89093">
        <ele>1.9</ele>
      </trkpt>
      <trkpt lat="37.02896" lon="27.89099">
        <ele>1.8</ele>
      </trkpt>
      <trkpt lat="37.02906" lon="27.89175">
        <ele>1</ele>
      </trkpt>
      <trkpt lat="37.02902" lon="27.89211">
        <ele>1</ele>
      </trkpt>
      <trkpt lat="37.02902" lon="27.89249">
        <ele>1</ele>
      </trkpt>
      <trkpt lat="37.02902" lon="27.89285">
      </trkpt>
      <trkpt lat="37.0291" lon="27.89315">
      </trkpt>
      <trkpt lat="37.02919" lon="27.89345">
        <ele>1</ele>
      </trkpt>
      <trkpt lat="37.02924" lon="27.89378">
        <ele>1</ele>
      </trkpt>
      <trkpt lat="37.02924" lon="27.89412">
        <ele>1</ele>
      </trkpt>
      <trkpt lat="37.02928" lon="27.89446">
        <ele>1</ele>
      </trkpt>
      <trkpt lat="37.02933" lon="27.89482">
        <ele>1</ele>
      </trkpt>
      <trkpt lat="37.02941" lon="27.89518">
        <ele>1.3</ele>
      </trkpt>
      <trkpt lat="37.02947" lon="27.89549">
        <ele>1.8</ele>
      </trkpt>
      <trkpt lat="37.02965" lon="27.89579">
        <ele>2.5</ele>
      </trkpt>
      <trkpt lat="37.02982" lon="27.89605">
        <ele>2.7</ele>
      </trkpt>
      <trkpt lat="37.02999" lon="27.89631">
        <ele>3</ele>
      </trkpt>
      <trkpt lat="37.03007" lon="27.89669">
        <ele>3.3</ele>
      </trkpt>
      <trkpt lat="37.03015" lon="27.89707">
        <ele>3.5</ele>
      </trkpt>
      <trkpt lat="37.03023" lon="27.89743">
        <ele>3.8</ele>
      </trkpt>
      <trkpt lat="37.03027" lon="27.89777">
        <ele>4.5</ele>
      </trkpt>
      <trkpt lat="37.03046" lon="27.89797">
        <ele>5.5</ele>
      </trkpt>
      <trkpt lat="37.03054" lon="27.89835">
        <ele>6.3</ele>
      </trkpt>
      <trkpt lat="37.03058" lon="27.89866">
        <ele>6.1</ele>
      </trkpt>
      <trkpt lat="37.03067" lon="27.89898">
        <ele>6</ele>
      </trkpt>
      <trkpt lat="37.03076" lon="27.8993">
        <ele>6.1</ele>
      </trkpt>
      <trkpt lat="37.0309" lon="27.89956">
        <ele>6.5</ele>
      </trkpt>
      <trkpt lat="37.0309" lon="27.89992">
        <ele>7</ele>
      </trkpt>
      <trkpt lat="37.0309" lon="27.90028">
        <ele>7.8</ele>
      </trkpt>
      <trkpt lat="37.0309" lon="27.9007">
        <ele>8.9</ele>
      </trkpt>
      <trkpt lat="37.0309" lon="27.90108">
        <ele>9.3</ele>
      </trkpt>
      <trkpt lat="37.03095" lon="27.90144">
        <ele>9.4</ele>
      </trkpt>
      <trkpt lat="37.03108" lon="27.90174">
        <ele>9.9</ele>
      </trkpt>
      <trkpt lat="37.03126" lon="27.90205">
        <ele>10.5</ele>
      </trkpt>
      <trkpt lat="37.03136" lon="27.90241">
        <ele>10.7</ele>
      </trkpt>
      <trkpt lat="37.03148" lon="27.90274">
        <ele>10</ele>
      </trkpt>
      <trkpt lat="37.0316" lon="27.90306">
        <ele>9</ele>
      </trkpt>
      <trkpt lat="37.03173" lon="27.90338">
        <ele>8.4</ele>
      </trkpt>
      <trkpt lat="37.0318" lon="27.90374">
        <ele>9.2</ele>
      </trkpt>
      <trkpt lat="37.03192" lon="27.90402">
        <ele>9.6</ele>
      </trkpt>
      <trkpt lat="37.03205" lon="27.90438">
        <ele>9.4</ele>
      </trkpt>
      <trkpt lat="37.03214" lon="27.9048">
        <ele>9.1</ele>
      </trkpt>
      <trkpt lat="37.03227" lon="27.90522">
        <ele>9.1</ele>
      </trkpt>
      <trkpt lat="37.03241" lon="27.90558">
        <ele>9.5</ele>
      </trkpt>
      <trkpt lat="37.0325" lon="27.90588">
        <ele>10</ele>
      </trkpt>
      <trkpt lat="37.03258" lon="27.90621">
        <ele>11</ele>
      </trkpt>
      <trkpt lat="37.03266" lon="27.90652">
        <ele>11.9</ele>
      </trkpt>
      <trkpt lat="37.03266" lon="27.90691">
        <ele>11.8</ele>
      </trkpt>
      <trkpt lat="37.03266" lon="27.90729">
        <ele>11.7</ele>
      </trkpt>
      <trkpt lat="37.03273" lon="27.90763">
        <ele>12.5</ele>
      </trkpt>
      <trkpt lat="37.03286" lon="27.90795">
        <ele>13.8</ele>
      </trkpt>
      <trkpt lat="37.03293" lon="27.90827">
        <ele>14.7</ele>
      </trkpt>
      <trkpt lat="37.03303" lon="27.90857">
        <ele>15.5</ele>
      </trkpt>
      <trkpt lat="37.0331" lon="27.90899">
        <ele>16</ele>
      </trkpt>
      <trkpt lat="37.0331" lon="27.90947">
        <ele>15.7</ele>
      </trkpt>
      <trkpt lat="37.0331" lon="27.90989">
        <ele>15.6</ele>
      </trkpt>
      <trkpt lat="37.0331" lon="27.9103">
        <ele>14.4</ele>
      </trkpt>
      <trkpt lat="37.03315" lon="27.91068">
        <ele>13.3</ele>
      </trkpt>
      <trkpt lat="37.03323" lon="27.911">
        <ele>13.3</ele>
      </trkpt>
      <trkpt lat="37.03335" lon="27.91142">
        <ele>14.7</ele>
      </trkpt>
      <trkpt lat="37.03349" lon="27.91172">
        <ele>19.4</ele>
      </trkpt>
      <trkpt lat="37.03363" lon="27.91202">
        <ele>21.8</ele>
      </trkpt>
      <trkpt lat="37.03377" lon="27.9123">
        <ele>23.1</ele>
      </trkpt>
      <trkpt lat="37.03385" lon="27.91262">
        <ele>21.7</ele>
      </trkpt>
      <trkpt lat="37.03393" lon="27.91298">
        <ele>19.9</ele>
      </trkpt>
      <trkpt lat="37.03405" lon="27.91332">
        <ele>17.9</ele>
      </trkpt>
      <trkpt lat="37.03415" lon="27.91366">
        <ele>16.9</ele>
      </trkpt>
      <trkpt lat="37.03419" lon="27.91401">
        <ele>16</ele>
      </trkpt>
      <trkpt lat="37.03419" lon="27.91444">
        <ele>14.2</ele>
      </trkpt>
      <trkpt lat="37.03419" lon="27.9148">
        <ele>13.2</ele>
      </trkpt>
      <trkpt lat="37.03419" lon="27.91524">
        <ele>12</ele>
      </trkpt>
      <trkpt lat="37.03425" lon="27.91558">
        <ele>12.5</ele>
      </trkpt>
      <trkpt lat="37.03435" lon="27.91588">
        <ele>13.4</ele>
      </trkpt>
      <trkpt lat="37.03444" lon="27.91618">
        <ele>14.7</ele>
      </trkpt>
      <trkpt lat="37.03452" lon="27.9165">
        <ele>15.6</ele>
      </trkpt>
      <trkpt lat="37.03465" lon="27.91679">
        <ele>17</ele>
      </trkpt>
      <trkpt lat="37.03475" lon="27.91709">
        <ele>16.5</ele>
      </trkpt>
      <trkpt lat="37.0348" lon="27.91743">
        <ele>14.5</ele>
      </trkpt>
      <trkpt lat="37.03484" lon="27.91775">
        <ele>13.7</ele>
      </trkpt>
      <trkpt lat="37.03498" lon="27.91813">
        <ele>12.9</ele>
      </trkpt>
      <trkpt lat="37.03507" lon="27.91843">
        <ele>13.9</ele>
      </trkpt>
      <trkpt lat="37.03507" lon="27.91878">
        <ele>14.9</ele>
      </trkpt>
      <trkpt lat="37.03507" lon="27.9192">
        <ele>16.1</ele>
      </trkpt>
      <trkpt lat="37.03507" lon="27.9196">
        <ele>16.3</ele>
      </trkpt>
      <trkpt lat="37.03507" lon="27.91997">
        <ele>16.4</ele>
      </trkpt>
      <trkpt lat="37.03507" lon="27.92031">
        <ele>15.4</ele>
      </trkpt>
      <trkpt lat="37.03521" lon="27.92055">
        <ele>17.8</ele>
      </trkpt>
      <trkpt lat="37.03532" lon="27.92089">
        <ele>19.3</ele>
      </trkpt>
      <trkpt lat="37.03547" lon="27.92121">
        <ele>20.9</ele>
      </trkpt>
      <trkpt lat="37.03564" lon="27.92153">
        <ele>22.3</ele>
      </trkpt>
      <trkpt lat="37.03584" lon="27.92179">
        <ele>22.8</ele>
      </trkpt>
      <trkpt lat="37.03601" lon="27.92205">
        <ele>19.4</ele>
      </trkpt>
      <trkpt lat="37.03624" lon="27.92234">
        <ele>15</ele>
      </trkpt>
      <trkpt lat="37.03649" lon="27.92246">
        <ele>13.9</ele>
      </trkpt>
      <trkpt lat="37.03692" lon="27.92242">
        <ele>20.4</ele>
      </trkpt>
      <trkpt lat="37.03703" lon="27.92276">
        <ele>18.3</ele>
      </trkpt>
      <trkpt lat="37.03717" lon="27.92299">
        <ele>18.8</ele>
      </trkpt>
      <trkpt lat="37.0374" lon="27.92315">
        <ele>21.1</ele>
      </trkpt>
      <trkpt lat="37.03759" lon="27.92327">
        <ele>23.8</ele>
      </trkpt>
      <trkpt lat="37.03777" lon="27.92344">
        <ele>26.8</ele>
      </trkpt>
      <trkpt lat="37.03798" lon="27.92366">
        <ele>29.9</ele>
      </trkpt>
      <trkpt lat="37.0381" lon="27.92389">
        <ele>30.2</ele>
      </trkpt>
      <trkpt lat="37.03827" lon="27.92405">
        <ele>31.5</ele>
      </trkpt>
      <trkpt lat="37.03843" lon="27.9243">
        <ele>31</ele>
      </trkpt>
      <trkpt lat="37.03864" lon="27.92459">
        <ele>31.4</ele>
      </trkpt>
      <trkpt lat="37.0388" lon="27.9248">
        <ele>31.4</ele>
      </trkpt>
      <trkpt lat="37.03898" lon="27.92498">
        <ele>32</ele>
      </trkpt>
      <trkpt lat="37.03918" lon="27.92519">
        <ele>31.5</ele>
      </trkpt>
      <trkpt lat="37.0393" lon="27.92548">
        <ele>30.7</ele>
      </trkpt>
      <trkpt lat="37.03944" lon="27.92575">
        <ele>30.6</ele>
      </trkpt>
      <trkpt lat="37.03961" lon="27.92593">
        <ele>32.7</ele>
      </trkpt>
      <trkpt lat="37.03968" lon="27.9262">
        <ele>30.3</ele>
      </trkpt>
      <trkpt lat="37.03978" lon="27.92654">
        <ele>26.2</ele>
      </trkpt>
      <trkpt lat="37.0399" lon="27.92692">
        <ele>23.9</ele>
      </trkpt>
      <trkpt lat="37.04003" lon="27.92722">
        <ele>24.2</ele>
      </trkpt>
      <trkpt lat="37.04006" lon="27.92766">
        <ele>23.6</ele>
      </trkpt>
      <trkpt lat="37.0401" lon="27.92804">
        <ele>25.1</ele>
      </trkpt>
      <trkpt lat="37.04027" lon="27.9283">
        <ele>31.6</ele>
      </trkpt>
      <trkpt lat="37.04037" lon="27.92866">
        <ele>31.9</ele>
      </trkpt>
      <trkpt lat="37.04051" lon="27.92893">
        <ele>33.7</ele>
      </trkpt>
      <trkpt lat="37.04059" lon="27.92923">
        <ele>32.2</ele>
      </trkpt>
      <trkpt lat="37.04068" lon="27.92955">
        <ele>30.7</ele>
      </trkpt>
      <trkpt lat="37.04077" lon="27.92985">
        <ele>28.9</ele>
      </trkpt>
      <trkpt lat="37.04091" lon="27.93015">
        <ele>33.7</ele>
      </trkpt>
      <trkpt lat="37.04108" lon="27.93049">
        <ele>43.5</ele>
      </trkpt>
      <trkpt lat="37.04116" lon="27.93081">
        <ele>44.6</ele>
      </trkpt>
      <trkpt lat="37.0413" lon="27.93109">
        <ele>48.6</ele>
      </trkpt>
      <trkpt lat="37.04139" lon="27.93141">
        <ele>47.4</ele>
      </trkpt>
      <trkpt lat="37.04142" lon="27.93177">
        <ele>42.1</ele>
      </trkpt>
      <trkpt lat="37.04142" lon="27.93215">
        <ele>36.7</ele>
      </trkpt>
      <trkpt lat="37.0415" lon="27.93249">
        <ele>34.6</ele>
      </trkpt>
      <trkpt lat="37.04158" lon="27.93281">
        <ele>35.3</ele>
      </trkpt>
      <trkpt lat="37.04167" lon="27.93323">
        <ele>35.9</ele>
      </trkpt>
      <trkpt lat="37.04172" lon="27.93365">
        <ele>37.1</ele>
      </trkpt>
      <trkpt lat="37.0418" lon="27.93399">
        <ele>41.2</ele>
      </trkpt>
      <trkpt lat="37.04189" lon="27.93435">
        <ele>45.3</ele>
      </trkpt>
      <trkpt lat="37.04194" lon="27.93471">
        <ele>43.7</ele>
      </trkpt>
      <trkpt lat="37.04194" lon="27.93507">
        <ele>38.9</ele>
      </trkpt>
      <trkpt lat="37.04194" lon="27.93544">
        <ele>34.5</ele>
      </trkpt>
      <trkpt lat="37.04194" lon="27.93586">
        <ele>29.5</ele>
      </trkpt>
      <trkpt lat="37.04194" lon="27.93622">
        <ele>27.2</ele>
      </trkpt>
      <trkpt lat="37.04198" lon="27.93654">
        <ele>26.8</ele>
      </trkpt>
      <trkpt lat="37.04201" lon="27.93688">
        <ele>27.5</ele>
      </trkpt>
      <trkpt lat="37.04209" lon="27.93732">
        <ele>31.4</ele>
      </trkpt>
      <trkpt lat="37.04214" lon="27.93767">
        <ele>33.7</ele>
      </trkpt>
      <trkpt lat="37.04214" lon="27.93805">
        <ele>34</ele>
      </trkpt>
      <trkpt lat="37.04221" lon="27.93848">
        <ele>37.7</ele>
      </trkpt>
      <trkpt lat="37.04226" lon="27.93881">
        <ele>40.4</ele>
      </trkpt>
      <trkpt lat="37.04235" lon="27.93917">
        <ele>45</ele>
      </trkpt>
      <trkpt lat="37.04235" lon="27.93959">
        <ele>45.5</ele>
      </trkpt>
      <trkpt lat="37.04248" lon="27.94013">
        <ele>51</ele>
      </trkpt>
      <trkpt lat="37.04253" lon="27.94049">
        <ele>53.1</ele>
      </trkpt>
      <trkpt lat="37.04257" lon="27.94092">
        <ele>55</ele>
      </trkpt>
      <trkpt lat="37.04262" lon="27.9413">
        <ele>55.1</ele>
      </trkpt>
      <trkpt lat="37.04262" lon="27.9417">
        <ele>52.2</ele>
      </trkpt>
      <trkpt lat="37.04262" lon="27.94211">
        <ele>49.8</ele>
      </trkpt>
      <trkpt lat="37.04262" lon="27.94254">
        <ele>47.2</ele>
      </trkpt>
      <trkpt lat="37.04267" lon="27.94302">
        <ele>44.8</ele>
      </trkpt>
      <trkpt lat="37.0427" lon="27.94362">
        <ele>40.8</ele>
      </trkpt>
      <trkpt lat="37.0427" lon="27.94398">
        <ele>37.5</ele>
      </trkpt>
      <trkpt lat="37.0427" lon="27.94442">
        <ele>34.7</ele>
      </trkpt>
      <trkpt lat="37.04279" lon="27.94474">
        <ele>37.8</ele>
      </trkpt>
      <trkpt lat="37.04287" lon="27.94506">
        <ele>39.3</ele>
      </trkpt>
      <trkpt lat="37.04301" lon="27.94536">
        <ele>43</ele>
      </trkpt>
      <trkpt lat="37.04305" lon="27.94574">
        <ele>41.5</ele>
      </trkpt>
      <trkpt lat="37.0431" lon="27.94612">
        <ele>40.5</ele>
      </trkpt>
      <trkpt lat="37.0431" lon="27.94646">
        <ele>38.5</ele>
      </trkpt>
      <trkpt lat="37.04305" lon="27.94678">
        <ele>34.8</ele>
      </trkpt>
      <trkpt lat="37.04284" lon="27.94693">
        <ele>28.4</ele>
      </trkpt>
      <trkpt lat="37.04268" lon="27.94715">
        <ele>24.7</ele>
      </trkpt>
      <trkpt lat="37.04264" lon="27.94747">
        <ele>24</ele>
      </trkpt>
      <trkpt lat="37.04268" lon="27.94775">
        <ele>23.9</ele>
      </trkpt>
      <trkpt lat="37.04276" lon="27.94803">
        <ele>23.7</ele>
      </trkpt>
      <trkpt lat="37.04294" lon="27.94824">
        <ele>23.4</ele>
      </trkpt>
      <trkpt lat="37.04294" lon="27.9483">
        <ele>23.1</ele>
      </trkpt>
      <trkpt lat="37.04312" lon="27.94887">
        <ele>25.1</ele>
      </trkpt>
      <trkpt lat="37.04288" lon="27.94898">
        <ele>24.8</ele>
      </trkpt>
      <trkpt lat="37.04281" lon="27.9493">
        <ele>26.7</ele>
      </trkpt>
      <trkpt lat="37.0427" lon="27.9496">
        <ele>28.9</ele>
      </trkpt>
      <trkpt lat="37.04256" lon="27.9499">
        <ele>29.5</ele>
      </trkpt>
      <trkpt lat="37.04256" lon="27.95028">
        <ele>31.7</ele>
      </trkpt>
      <trkpt lat="37.04247" lon="27.95061">
        <ele>31.5</ele>
      </trkpt>
      <trkpt lat="37.04238" lon="27.95093">
        <ele>31</ele>
      </trkpt>
      <trkpt lat="37.04233" lon="27.95128">
        <ele>29.8</ele>
      </trkpt>
      <trkpt lat="37.04233" lon="27.95164">
        <ele>29.4</ele>
      </trkpt>
      <trkpt lat="37.04238" lon="27.95199">
        <ele>28.8</ele>
      </trkpt>
      <trkpt lat="37.04247" lon="27.95229">
        <ele>28.7</ele>
      </trkpt>
      <trkpt lat="37.04254" lon="27.95266">
        <ele>29.2</ele>
      </trkpt>
      <trkpt lat="37.04254" lon="27.95266">
        <ele>29.2</ele>
      </trkpt>
      <trkpt lat="37.04254" lon="27.95266">
        <ele>29.2</ele>
      </trkpt>
      <trkpt lat="37.04247" lon="27.95271">
        <ele>28.2</ele>
      </trkpt>
      <trkpt lat="37.04248" lon="27.95271">
        <ele>28.3</ele>
      </trkpt>
      <trkpt lat="37.04252" lon="27.95317">
        <ele>30.2</ele>
      </trkpt>
      <trkpt lat="37.04252" lon="27.95324">
        <ele>30.4</ele>
      </trkpt>
      <trkpt lat="37.04252" lon="27.95326">
        <ele>30.3</ele>
      </trkpt>
      <trkpt lat="37.04247" lon="27.95341">
        <ele>30.6</ele>
      </trkpt>
      <trkpt lat="37.04222" lon="27.95392">
        <ele>32.2</ele>
      </trkpt>
      <trkpt lat="37.04194" lon="27.95459">
        <ele>28.9</ele>
      </trkpt>
      <trkpt lat="37.04188" lon="27.95476">
        <ele>27.9</ele>
      </trkpt>
      <trkpt lat="37.04185" lon="27.95499">
        <ele>27.5</ele>
      </trkpt>
      <trkpt lat="37.04185" lon="27.95496">
        <ele>27.5</ele>
      </trkpt>
      <trkpt lat="37.04181" lon="27.95495">
        <ele>26.1</ele>
      </trkpt>
      <trkpt lat="37.04176" lon="27.95497">
        <ele>24.4</ele>
      </trkpt>
      <trkpt lat="37.04175" lon="27.95497">
        <ele>24</ele>
      </trkpt>
      <trkpt lat="37.04175" lon="27.95498">
        <ele>23.8</ele>
      </trkpt>
      <trkpt lat="37.04174" lon="27.95501">
        <ele>23.7</ele>
      </trkpt>
      <trkpt lat="37.04174" lon="27.95502">
        <ele>23.6</ele>
      </trkpt>
      <trkpt lat="37.04175" lon="27.95505">
        <ele>23.6</ele>
      </trkpt>
      <trkpt lat="37.04166" lon="27.95515">
        <ele>20</ele>
      </trkpt>
      <trkpt lat="37.04133" lon="27.95519">
        <ele>17.4</ele>
      </trkpt>
      <trkpt lat="37.04119" lon="27.95523">
        <ele>16.3</ele>
      </trkpt>
      <trkpt lat="37.04113" lon="27.95524">
        <ele>15.8</ele>
      </trkpt>
      <trkpt lat="37.04111" lon="27.95539">
        <ele>15.2</ele>
      </trkpt>
      <trkpt lat="37.04107" lon="27.95595">
        <ele>13.8</ele>
      </trkpt>
      <trkpt lat="37.04106" lon="27.95633">
        <ele>13.7</ele>
      </trkpt>
      <trkpt lat="37.04107" lon="27.95645">
        <ele>13.6</ele>
      </trkpt>
      <trkpt lat="37.04105" lon="27.95666">
        <ele>13.5</ele>
      </trkpt>
      <trkpt lat="37.04105" lon="27.95671">
        <ele>13.5</ele>
      </trkpt>
      <trkpt lat="37.04106" lon="27.9574">
        <ele>12.9</ele>
      </trkpt>
      <trkpt lat="37.04105" lon="27.95747">
        <ele>12.8</ele>
      </trkpt>
      <trkpt lat="37.04106" lon="27.95752">
        <ele>12.8</ele>
      </trkpt>
      <trkpt lat="37.04104" lon="27.95776">
        <ele>12.3</ele>
      </trkpt>
      <trkpt lat="37.0409" lon="27.9583">
        <ele>10.5</ele>
      </trkpt>
      <trkpt lat="37.0408" lon="27.95878">
        <ele>9.5</ele>
      </trkpt>
      <trkpt lat="37.04069" lon="27.95948">
        <ele>8.7</ele>
      </trkpt>
      <trkpt lat="37.0407" lon="27.95959">
        <ele>8.5</ele>
      </trkpt>
      <trkpt lat="37.04084" lon="27.95972">
        <ele>8.4</ele>
      </trkpt>
      <trkpt lat="37.04103" lon="27.95977">
        <ele>10.6</ele>
      </trkpt>
      <trkpt lat="37.0411" lon="27.95979">
        <ele>11.4</ele>
      </trkpt>
      <trkpt lat="37.04145" lon="27.95991">
        <ele>16</ele>
      </trkpt>
      <trkpt lat="37.04161" lon="27.96015">
        <ele>19.7</ele>
      </trkpt>
      <trkpt lat="37.04166" lon="27.96041">
        <ele>23.4</ele>
      </trkpt>
      <trkpt lat="37.04159" lon="27.96075">
        <ele>25.2</ele>
      </trkpt>
      <trkpt lat="37.04145" lon="27.96117">
        <ele>24.6</ele>
      </trkpt>
      <trkpt lat="37.04139" lon="27.96157">
        <ele>25.5</ele>
      </trkpt>
      <trkpt lat="37.04143" lon="27.96185">
        <ele>28.4</ele>
      </trkpt>
      <trkpt lat="37.04144" lon="27.96193">
        <ele>29.4</ele>
      </trkpt>
      <trkpt lat="37.04145" lon="27.96193">
        <ele>29.6</ele>
      </trkpt>
      <trkpt lat="37.04146" lon="27.96197">
        <ele>30.2</ele>
      </trkpt>
      <trkpt lat="37.04145" lon="27.96202">
        <ele>30.3</ele>
      </trkpt>
      <trkpt lat="37.04142" lon="27.96205">
        <ele>29.6</ele>
      </trkpt>
      <trkpt lat="37.04142" lon="27.96215">
        <ele>30.3</ele>
      </trkpt>
      <trkpt lat="37.04143" lon="27.9622">
        <ele>30.9</ele>
      </trkpt>
      <trkpt lat="37.04146" lon="27.96248">
        <ele>33.8</ele>
      </trkpt>
      <trkpt lat="37.04144" lon="27.96265">
        <ele>34.5</ele>
      </trkpt>
      <trkpt lat="37.04138" lon="27.96285">
        <ele>34.4</ele>
      </trkpt>
      <trkpt lat="37.04133" lon="27.96312">
        <ele>35</ele>
      </trkpt>
      <trkpt lat="37.04131" lon="27.96328">
        <ele>35.8</ele>
      </trkpt>
      <trkpt lat="37.0413" lon="27.96337">
        <ele>36.2</ele>
      </trkpt>
      <trkpt lat="37.04122" lon="27.96373">
        <ele>36.4</ele>
      </trkpt>
      <trkpt lat="37.041" lon="27.96467">
        <ele>32.6</ele>
      </trkpt>
      <trkpt lat="37.04092" lon="27.96533">
        <ele>32.8</ele>
      </trkpt>
      <trkpt lat="37.04082" lon="27.96556">
        <ele>31</ele>
      </trkpt>
      <trkpt lat="37.04038" lon="27.96656">
        <ele>30.8</ele>
      </trkpt>
      <trkpt lat="37.04017" lon="27.96737">
        <ele>30.9</ele>
      </trkpt>
      <trkpt lat="37.04002" lon="27.96826">
        <ele>27.5</ele>
      </trkpt>
      <trkpt lat="37.04001" lon="27.96899">
        <ele>26.6</ele>
      </trkpt>
      <trkpt lat="37.04001" lon="27.96953">
        <ele>27.3</ele>
      </trkpt>
      <trkpt lat="37.03997" lon="27.96979">
        <ele>26.7</ele>
      </trkpt>
      <trkpt lat="37.03977" lon="27.97055">
        <ele>29</ele>
      </trkpt>
      <trkpt lat="37.03972" lon="27.97066">
        <ele>29.1</ele>
      </trkpt>
      <trkpt lat="37.03937" lon="27.97104">
        <ele>26.7</ele>
      </trkpt>
      <trkpt lat="37.03887" lon="27.97134">
        <ele>23</ele>
      </trkpt>
      <trkpt lat="37.03845" lon="27.97175">
        <ele>21.8</ele>
      </trkpt>
      <trkpt lat="37.03836" lon="27.97192">
        <ele>21.9</ele>
      </trkpt>
      <trkpt lat="37.03822" lon="27.97227">
        <ele>24.3</ele>
      </trkpt>
      <trkpt lat="37.03814" lon="27.9725">
        <ele>26</ele>
      </trkpt>
      <trkpt lat="37.03811" lon="27.9726">
        <ele>25.9</ele>
      </trkpt>
      <trkpt lat="37.03811" lon="27.97266">
        <ele>26</ele>
      </trkpt>
      <trkpt lat="37.038" lon="27.97296">
        <ele>25.3</ele>
      </trkpt>
      <trkpt lat="37.03792" lon="27.97338">
        <ele>25.4</ele>
      </trkpt>
      <trkpt lat="37.03784" lon="27.97352">
        <ele>24.6</ele>
      </trkpt>
      <trkpt lat="37.03775" lon="27.97383">
        <ele>23.6</ele>
      </trkpt>
      <trkpt lat="37.03775" lon="27.97413">
        <ele>24.6</ele>
      </trkpt>
      <trkpt lat="37.03774" lon="27.97421">
        <ele>25</ele>
      </trkpt>
      <trkpt lat="37.03761" lon="27.9745">
        <ele>23.6</ele>
      </trkpt>
      <trkpt lat="37.03757" lon="27.97453">
        <ele>22.3</ele>
      </trkpt>
      <trkpt lat="37.03741" lon="27.97462">
        <ele>19.4</ele>
      </trkpt>
      <trkpt lat="37.03729" lon="27.97469">
        <ele>18.2</ele>
      </trkpt>
      <trkpt lat="37.03706" lon="27.97488">
        <ele>15.7</ele>
      </trkpt>
      <trkpt lat="37.03691" lon="27.97507">
        <ele>14.7</ele>
      </trkpt>
      <trkpt lat="37.03652" lon="27.97555">
        <ele>14.6</ele>
      </trkpt>
      <trkpt lat="37.03603" lon="27.97603">
        <ele>14.6</ele>
      </trkpt>
      <trkpt lat="37.03556" lon="27.97686">
        <ele>16.5</ele>
      </trkpt>
      <trkpt lat="37.03551" lon="27.97696">
        <ele>16.3</ele>
      </trkpt>
      <trkpt lat="37.03538" lon="27.97727">
        <ele>15</ele>
      </trkpt>
      <trkpt lat="37.03501" lon="27.97784">
        <ele>9</ele>
      </trkpt>
      <trkpt lat="37.03496" lon="27.97789">
        <ele>8.7</ele>
      </trkpt>
      <trkpt lat="37.0348" lon="27.97826">
        <ele>9.7</ele>
      </trkpt>
      <trkpt lat="37.03478" lon="27.97869">
        <ele>14.1</ele>
      </trkpt>
      <trkpt lat="37.03478" lon="27.97907">
        <ele>18.5</ele>
      </trkpt>
      <trkpt lat="37.03477" lon="27.97911">
        <ele>18.9</ele>
      </trkpt>
      <trkpt lat="37.0347" lon="27.97928">
        <ele>21.1</ele>
      </trkpt>
      <trkpt lat="37.03468" lon="27.97932">
        <ele>21.8</ele>
      </trkpt>
      <trkpt lat="37.03479" lon="27.97933">
        <ele>23.4</ele>
      </trkpt>
      <trkpt lat="37.03484" lon="27.97935">
        <ele>24.3</ele>
      </trkpt>
      <trkpt lat="37.03481" lon="27.97945">
        <ele>26.1</ele>
      </trkpt>
      <trkpt lat="37.03466" lon="27.97956">
        <ele>26.6</ele>
      </trkpt>
      <trkpt lat="37.03466" lon="27.97961">
        <ele>27.8</ele>
      </trkpt>
      <trkpt lat="37.03465" lon="27.97969">
        <ele>29.2</ele>
      </trkpt>
      <trkpt lat="37.03458" lon="27.97983">
        <ele>31.4</ele>
      </trkpt>
      <trkpt lat="37.03459" lon="27.97983">
        <ele>31.4</ele>
      </trkpt>
      <trkpt lat="37.03446" lon="27.97989">
        <ele>31</ele>
      </trkpt>
      <trkpt lat="37.03432" lon="27.98007">
        <ele>32.6</ele>
      </trkpt>
      <trkpt lat="37.03419" lon="27.98027">
        <ele>34.7</ele>
      </trkpt>
      <trkpt lat="37.03422" lon="27.98035">
        <ele>37</ele>
      </trkpt>
      <trkpt lat="37.0344" lon="27.98034">
        <ele>39.6</ele>
      </trkpt>
      <trkpt lat="37.0346" lon="27.98032">
        <ele>42.5</ele>
      </trkpt>
      <trkpt lat="37.03462" lon="27.98032">
        <ele>43</ele>
      </trkpt>
      <trkpt lat="37.03463" lon="27.98036">
        <ele>43.9</ele>
      </trkpt>
      <trkpt lat="37.03458" lon="27.98045">
        <ele>45.2</ele>
      </trkpt>
      <trkpt lat="37.03457" lon="27.98047">
        <ele>45.4</ele>
      </trkpt>
      <trkpt lat="37.03455" lon="27.98062">
        <ele>48.4</ele>
      </trkpt>
      <trkpt lat="37.03459" lon="27.98062">
        <ele>49.3</ele>
      </trkpt>
      <trkpt lat="37.03476" lon="27.98061">
        <ele>52</ele>
      </trkpt>
      <trkpt lat="37.03492" lon="27.98065">
        <ele>55.9</ele>
      </trkpt>
      <trkpt lat="37.03493" lon="27.98068">
        <ele>56.9</ele>
      </trkpt>
      <trkpt lat="37.03489" lon="27.98071">
        <ele>57</ele>
      </trkpt>
      <trkpt lat="37.03474" lon="27.98084">
        <ele>57.3</ele>
      </trkpt>
      <trkpt lat="37.03474" lon="27.98095">
        <ele>60.5</ele>
      </trkpt>
      <trkpt lat="37.03486" lon="27.98096">
        <ele>62.7</ele>
      </trkpt>
      <trkpt lat="37.03506" lon="27.98101">
        <ele>67.9</ele>
      </trkpt>
      <trkpt lat="37.03512" lon="27.98103">
        <ele>69.5</ele>
      </trkpt>
      <trkpt lat="37.03506" lon="27.98109">
        <ele>69.7</ele>
      </trkpt>
      <trkpt lat="37.0349" lon="27.98122">
        <ele>70.8</ele>
      </trkpt>
      <trkpt lat="37.03488" lon="27.98124">
        <ele>71.2</ele>
      </trkpt>
      <trkpt lat="37.03488" lon="27.98136">
        <ele>74.5</ele>
      </trkpt>
      <trkpt lat="37.03493" lon="27.98139">
        <ele>75.9</ele>
      </trkpt>
      <trkpt lat="37.035" lon="27.98137">
        <ele>76.2</ele>
      </trkpt>
      <trkpt lat="37.03522" lon="27.98138">
        <ele>80.4</ele>
      </trkpt>
      <trkpt lat="37.03525" lon="27.98139">
        <ele>81.5</ele>
      </trkpt>
      <trkpt lat="37.03521" lon="27.98152">
        <ele>84.3</ele>
      </trkpt>
      <trkpt lat="37.03523" lon="27.98159">
        <ele>86.2</ele>
      </trkpt>
      <trkpt lat="37.0352" lon="27.98165">
        <ele>87.4</ele>
      </trkpt>
      <trkpt lat="37.03517" lon="27.98169">
        <ele>88</ele>
      </trkpt>
      <trkpt lat="37.03516" lon="27.98172">
        <ele>88.6</ele>
      </trkpt>
      <trkpt lat="37.0352" lon="27.9818">
        <ele>91.8</ele>
      </trkpt>
      <trkpt lat="37.03527" lon="27.98178">
        <ele>92.7</ele>
      </trkpt>
      <trkpt lat="37.03544" lon="27.98174">
        <ele>94.6</ele>
      </trkpt>
      <trkpt lat="37.0356" lon="27.98165">
        <ele>95.1</ele>
      </trkpt>
      <trkpt lat="37.03575" lon="27.98157">
        <ele>95.7</ele>
      </trkpt>
      <trkpt lat="37.0358" lon="27.98159">
        <ele>97.3</ele>
      </trkpt>
      <trkpt lat="37.03579" lon="27.98162">
        <ele>97.7</ele>
      </trkpt>
      <trkpt lat="37.03573" lon="27.98167">
        <ele>98.3</ele>
      </trkpt>
      <trkpt lat="37.03565" lon="27.9818">
        <ele>100.4</ele>
      </trkpt>
      <trkpt lat="37.03564" lon="27.98181">
        <ele>100.6</ele>
      </trkpt>
      <trkpt lat="37.03557" lon="27.98192">
        <ele>102.5</ele>
      </trkpt>
      <trkpt lat="37.03553" lon="27.98201">
        <ele>104.4</ele>
      </trkpt>
      <trkpt lat="37.03549" lon="27.98208">
        <ele>105.8</ele>
      </trkpt>
      <trkpt lat="37.03519" lon="27.98267">
        <ele>117.6</ele>
      </trkpt>
      <trkpt lat="37.03518" lon="27.9827">
        <ele>118.1</ele>
      </trkpt>
      <trkpt lat="37.0352" lon="27.98282">
        <ele>122.1</ele>
      </trkpt>
      <trkpt lat="37.03522" lon="27.98282">
        <ele>122.4</ele>
      </trkpt>
      <trkpt lat="37.03538" lon="27.98271">
        <ele>122.4</ele>
      </trkpt>
      <trkpt lat="37.03543" lon="27.98269">
        <ele>122.9</ele>
      </trkpt>
      <trkpt lat="37.03542" lon="27.98282">
        <ele>126.3</ele>
      </trkpt>
      <trkpt lat="37.03536" lon="27.98298">
        <ele>129.5</ele>
      </trkpt>
      <trkpt lat="37.03535" lon="27.98307">
        <ele>132</ele>
      </trkpt>
      <trkpt lat="37.03537" lon="27.98308">
        <ele>132.9</ele>
      </trkpt>
      <trkpt lat="37.03544" lon="27.98304">
        <ele>132.9</ele>
      </trkpt>
      <trkpt lat="37.03554" lon="27.98291">
        <ele>131.3</ele>
      </trkpt>
      <trkpt lat="37.03555" lon="27.98304">
        <ele>135.1</ele>
      </trkpt>
      <trkpt lat="37.03548" lon="27.98318">
        <ele>137.6</ele>
      </trkpt>
      <trkpt lat="37.03538" lon="27.98334">
        <ele>140.5</ele>
      </trkpt>
      <trkpt lat="37.03523" lon="27.98351">
        <ele>142.1</ele>
      </trkpt>
      <trkpt lat="37.03525" lon="27.98358">
        <ele>144.5</ele>
      </trkpt>
      <trkpt lat="37.03535" lon="27.98358">
        <ele>146.2</ele>
      </trkpt>
      <trkpt lat="37.0355" lon="27.98351">
        <ele>147.3</ele>
      </trkpt>
      <trkpt lat="37.03559" lon="27.98349">
        <ele>148.4</ele>
      </trkpt>
      <trkpt lat="37.03555" lon="27.98356">
        <ele>149.4</ele>
      </trkpt>
      <trkpt lat="37.03545" lon="27.98365">
        <ele>149.9</ele>
      </trkpt>
      <trkpt lat="37.0353" lon="27.98384">
        <ele>152.3</ele>
      </trkpt>
      <trkpt lat="37.03527" lon="27.984">
        <ele>156.3</ele>
      </trkpt>
      <trkpt lat="37.0353" lon="27.984">
        <ele>156.7</ele>
      </trkpt>
      <trkpt lat="37.03543" lon="27.98395">
        <ele>157.4</ele>
      </trkpt>
      <trkpt lat="37.03557" lon="27.98387">
        <ele>157.7</ele>
      </trkpt>
      <trkpt lat="37.03569" lon="27.98378">
        <ele>157.4</ele>
      </trkpt>
      <trkpt lat="37.03561" lon="27.98392">
        <ele>159.6</ele>
      </trkpt>
      <trkpt lat="37.03557" lon="27.98402">
        <ele>161.3</ele>
      </trkpt>
      <trkpt lat="37.03548" lon="27.98418">
        <ele>164.4</ele>
      </trkpt>
      <trkpt lat="37.03541" lon="27.98434">
        <ele>168.7</ele>
      </trkpt>
      <trkpt lat="37.03533" lon="27.98446">
        <ele>171.5</ele>
      </trkpt>
      <trkpt lat="37.03529" lon="27.98464">
        <ele>176.8</ele>
      </trkpt>
      <trkpt lat="37.03533" lon="27.98469">
        <ele>179.2</ele>
      </trkpt>
      <trkpt lat="37.03535" lon="27.98469">
        <ele>179.4</ele>
      </trkpt>
      <trkpt lat="37.03541" lon="27.9846">
        <ele>177.7</ele>
      </trkpt>
      <trkpt lat="37.03552" lon="27.98454">
        <ele>177.5</ele>
      </trkpt>
      <trkpt lat="37.03553" lon="27.98455">
        <ele>178.2</ele>
      </trkpt>
      <trkpt lat="37.03541" lon="27.9847">
        <ele>181.1</ele>
      </trkpt>
      <trkpt lat="37.03534" lon="27.98483">
        <ele>183.8</ele>
      </trkpt>
      <trkpt lat="37.03531" lon="27.98488">
        <ele>184.9</ele>
      </trkpt>
      <trkpt lat="37.03525" lon="27.985">
        <ele>187.6</ele>
      </trkpt>
      <trkpt lat="37.03517" lon="27.98516">
        <ele>192.1</ele>
      </trkpt>
      <trkpt lat="37.03511" lon="27.98535">
        <ele>198.2</ele>
      </trkpt>
      <trkpt lat="37.03506" lon="27.98553">
        <ele>204.5</ele>
      </trkpt>
      <trkpt lat="37.035" lon="27.98558">
        <ele>205.1</ele>
      </trkpt>
      <trkpt lat="37.03489" lon="27.98552">
        <ele>202.1</ele>
      </trkpt>
      <trkpt lat="37.0348" lon="27.98548">
        <ele>199.9</ele>
      </trkpt>
      <trkpt lat="37.03464" lon="27.98532">
        <ele>194.6</ele>
      </trkpt>
      <trkpt lat="37.03451" lon="27.9852">
        <ele>191.4</ele>
      </trkpt>
      <trkpt lat="37.03443" lon="27.98516">
        <ele>190.6</ele>
      </trkpt>
      <trkpt lat="37.03437" lon="27.98515">
        <ele>190.6</ele>
      </trkpt>
      <trkpt lat="37.03423" lon="27.98513">
        <ele>190.8</ele>
      </trkpt>
      <trkpt lat="37.03422" lon="27.98519">
        <ele>192.1</ele>
      </trkpt>
      <trkpt lat="37.03426" lon="27.98527">
        <ele>193.4</ele>
      </trkpt>
      <trkpt lat="37.03433" lon="27.98543">
        <ele>196.8</ele>
      </trkpt>
      <trkpt lat="37.03435" lon="27.98545">
        <ele>197.3</ele>
      </trkpt>
      <trkpt lat="37.0345" lon="27.98558">
        <ele>201.3</ele>
      </trkpt>
      <trkpt lat="37.03459" lon="27.98568">
        <ele>204.9</ele>
      </trkpt>
      <trkpt lat="37.03474" lon="27.9859">
        <ele>213</ele>
      </trkpt>
      <trkpt lat="37.03475" lon="27.98591">
        <ele>213.5</ele>
      </trkpt>
      <trkpt lat="37.03473" lon="27.98592">
        <ele>213.5</ele>
      </trkpt>
      <trkpt lat="37.03472" lon="27.98591">
        <ele>213.1</ele>
      </trkpt>
      <trkpt lat="37.03465" lon="27.98586">
        <ele>210.7</ele>
      </trkpt>
      <trkpt lat="37.03462" lon="27.98587">
        <ele>210.5</ele>
      </trkpt>
      <trkpt lat="37.03452" lon="27.98596">
        <ele>211.3</ele>
      </trkpt>
      <trkpt lat="37.03449" lon="27.98599">
        <ele>211.7</ele>
      </trkpt>
      <trkpt lat="37.03436" lon="27.98619">
        <ele>215.1</ele>
      </trkpt>
      <trkpt lat="37.03424" lon="27.98639">
        <ele>218.3</ele>
      </trkpt>
      <trkpt lat="37.03419" lon="27.98656">
        <ele>221.7</ele>
      </trkpt>
      <trkpt lat="37.03415" lon="27.98671">
        <ele>224.4</ele>
      </trkpt>
      <trkpt lat="37.03409" lon="27.98689">
        <ele>226.7</ele>
      </trkpt>
      <trkpt lat="37.03403" lon="27.98713">
        <ele>229.7</ele>
      </trkpt>
      <trkpt lat="37.03408" lon="27.98718">
        <ele>232.1</ele>
      </trkpt>
      <trkpt lat="37.03421" lon="27.98713">
        <ele>234.4</ele>
      </trkpt>
      <trkpt lat="37.03443" lon="27.98707">
        <ele>237.5</ele>
      </trkpt>
      <trkpt lat="37.03444" lon="27.9871">
        <ele>238.4</ele>
      </trkpt>
      <trkpt lat="37.0344" lon="27.98723">
        <ele>240.3</ele>
      </trkpt>
      <trkpt lat="37.03438" lon="27.9873">
        <ele>241.7</ele>
      </trkpt>
      <trkpt lat="37.03433" lon="27.98752">
        <ele>245.2</ele>
      </trkpt>
      <trkpt lat="37.03432" lon="27.98756">
        <ele>245.6</ele>
      </trkpt>
      <trkpt lat="37.03425" lon="27.98782">
        <ele>248.7</ele>
      </trkpt>
      <trkpt lat="37.0343" lon="27.98786">
        <ele>250.8</ele>
      </trkpt>
      <trkpt lat="37.03434" lon="27.98783">
        <ele>251.3</ele>
      </trkpt>
      <trkpt lat="37.03446" lon="27.98776">
        <ele>253.3</ele>
      </trkpt>
      <trkpt lat="37.03457" lon="27.98772">
        <ele>255.4</ele>
      </trkpt>
      <trkpt lat="37.03461" lon="27.9877">
        <ele>256</ele>
      </trkpt>
      <trkpt lat="37.03477" lon="27.98765">
        <ele>258.6</ele>
      </trkpt>
      <trkpt lat="37.03482" lon="27.98762">
        <ele>259.1</ele>
      </trkpt>
      <trkpt lat="37.03481" lon="27.98764">
        <ele>259.4</ele>
      </trkpt>
      <trkpt lat="37.03476" lon="27.9878">
        <ele>262.2</ele>
      </trkpt>
      <trkpt lat="37.03467" lon="27.988">
        <ele>264.8</ele>
      </trkpt>
      <trkpt lat="37.03464" lon="27.98813">
        <ele>266.9</ele>
      </trkpt>
      <trkpt lat="37.0346" lon="27.98824">
        <ele>268.3</ele>
      </trkpt>
      <trkpt lat="37.03456" lon="27.98849">
        <ele>271.6</ele>
      </trkpt>
      <trkpt lat="37.03456" lon="27.98851">
        <ele>272</ele>
      </trkpt>
      <trkpt lat="37.03462" lon="27.98856">
        <ele>275.2</ele>
      </trkpt>
      <trkpt lat="37.03465" lon="27.98852">
        <ele>275.7</ele>
      </trkpt>
      <trkpt lat="37.03475" lon="27.98841">
        <ele>277.6</ele>
      </trkpt>
      <trkpt lat="37.03486" lon="27.98826">
        <ele>277.9</ele>
      </trkpt>
      <trkpt lat="37.03488" lon="27.98827">
        <ele>278.9</ele>
      </trkpt>
      <trkpt lat="37.03487" lon="27.9883">
        <ele>279.4</ele>
      </trkpt>
      <trkpt lat="37.03482" lon="27.98846">
        <ele>281.1</ele>
      </trkpt>
      <trkpt lat="37.03484" lon="27.98852">
        <ele>283.2</ele>
      </trkpt>
      <trkpt lat="37.03487" lon="27.98851">
        <ele>284.4</ele>
      </trkpt>
      <trkpt lat="37.03499" lon="27.98842">
        <ele>286.8</ele>
      </trkpt>
      <trkpt lat="37.03511" lon="27.98832">
        <ele>289.6</ele>
      </trkpt>
      <trkpt lat="37.03506" lon="27.98844">
        <ele>290.4</ele>
      </trkpt>
      <trkpt lat="37.03503" lon="27.98857">
        <ele>292.3</ele>
      </trkpt>
      <trkpt lat="37.03502" lon="27.98861">
        <ele>293.2</ele>
      </trkpt>
      <trkpt lat="37.03508" lon="27.9887">
        <ele>298.4</ele>
      </trkpt>
      <trkpt lat="37.03512" lon="27.98863">
        <ele>299</ele>
      </trkpt>
      <trkpt lat="37.03521" lon="27.98852">
        <ele>300.4</ele>
      </trkpt>
      <trkpt lat="37.0353" lon="27.98846">
        <ele>303.1</ele>
      </trkpt>
      <trkpt lat="37.03525" lon="27.98856">
        <ele>303.3</ele>
      </trkpt>
      <trkpt lat="37.03522" lon="27.98869">
        <ele>306.3</ele>
      </trkpt>
      <trkpt lat="37.03521" lon="27.98886">
        <ele>310.7</ele>
      </trkpt>
      <trkpt lat="37.03516" lon="27.98903">
        <ele>312.6</ele>
      </trkpt>
      <trkpt lat="37.03513" lon="27.98911">
        <ele>313.5</ele>
      </trkpt>
      <trkpt lat="37.03508" lon="27.98921">
        <ele>313.7</ele>
      </trkpt>
      <trkpt lat="37.03504" lon="27.98939">
        <ele>317.8</ele>
      </trkpt>
      <trkpt lat="37.03507" lon="27.98943">
        <ele>321.8</ele>
      </trkpt>
      <trkpt lat="37.03509" lon="27.98942">
        <ele>323</ele>
      </trkpt>
      <trkpt lat="37.03511" lon="27.98939">
        <ele>323</ele>
      </trkpt>
      <trkpt lat="37.03519" lon="27.98929">
        <ele>324.4</ele>
      </trkpt>
      <trkpt lat="37.03519" lon="27.98929">
        <ele>324.9</ele>
      </trkpt>
      <trkpt lat="37.03514" lon="27.98941">
        <ele>326.6</ele>
      </trkpt>
      <trkpt lat="37.03513" lon="27.98946">
        <ele>327.9</ele>
      </trkpt>
      <trkpt lat="37.03513" lon="27.98948">
        <ele>328.7</ele>
      </trkpt>
      <trkpt lat="37.03517" lon="27.98948">
        <ele>331.7</ele>
      </trkpt>
      <trkpt lat="37.0352" lon="27.98946">
        <ele>332.7</ele>
      </trkpt>
      <trkpt lat="37.0352" lon="27.98946">
        <ele>333.1</ele>
      </trkpt>
      <trkpt lat="37.03516" lon="27.98958">
        <ele>334.9</ele>
      </trkpt>
      <trkpt lat="37.03515" lon="27.98961">
        <ele>335.3</ele>
      </trkpt>
      <trkpt lat="37.03512" lon="27.98971">
        <ele>337.5</ele>
      </trkpt>
      <trkpt lat="37.03508" lon="27.98988">
        <ele>342.1</ele>
      </trkpt>
      <trkpt lat="37.03508" lon="27.98991">
        <ele>342.8</ele>
      </trkpt>
      <trkpt lat="37.03513" lon="27.98994">
        <ele>348.2</ele>
      </trkpt>
      <trkpt lat="37.0352" lon="27.98983">
        <ele>349.3</ele>
      </trkpt>
      <trkpt lat="37.03527" lon="27.98973">
        <ele>350.9</ele>
      </trkpt>
      <trkpt lat="37.03531" lon="27.98959">
        <ele>347.3</ele>
      </trkpt>
      <trkpt lat="37.03535" lon="27.98965">
        <ele>353.5</ele>
      </trkpt>
      <trkpt lat="37.03533" lon="27.98975">
        <ele>356.2</ele>
      </trkpt>
      <trkpt lat="37.03538" lon="27.98976">
        <ele>360.7</ele>
      </trkpt>
      <trkpt lat="37.03543" lon="27.98963">
        <ele>358.7</ele>
      </trkpt>
      <trkpt lat="37.03546" lon="27.9896">
        <ele>359.2</ele>
      </trkpt>
      <trkpt lat="37.03546" lon="27.9896">
        <ele>359.3</ele>
      </trkpt>
      <trkpt lat="37.03547" lon="27.98955">
        <ele>357.9</ele>
      </trkpt>
      <trkpt lat="37.03555" lon="27.98941">
        <ele>356.3</ele>
      </trkpt>
      <trkpt lat="37.03556" lon="27.98936">
        <ele>354.2</ele>
      </trkpt>
      <trkpt lat="37.03557" lon="27.98943">
        <ele>359.1</ele>
      </trkpt>
      <trkpt lat="37.03558" lon="27.98944">
        <ele>360.3</ele>
      </trkpt>
      <trkpt lat="37.03567" lon="27.9894">
        <ele>364.4</ele>
      </trkpt>
      <trkpt lat="37.03571" lon="27.98938">
        <ele>366.6</ele>
      </trkpt>
      <trkpt lat="37.03577" lon="27.98933">
        <ele>368.4</ele>
      </trkpt>
      <trkpt lat="37.03578" lon="27.9893">
        <ele>366.8</ele>
      </trkpt>
      <trkpt lat="37.03579" lon="27.98937">
        <ele>372</ele>
      </trkpt>
      <trkpt lat="37.03573" lon="27.98946">
        <ele>372.4</ele>
      </trkpt>
      <trkpt lat="37.0357" lon="27.98949">
        <ele>372.3</ele>
      </trkpt>
      <trkpt lat="37.03573" lon="27.98955">
        <ele>377.8</ele>
      </trkpt>
      <trkpt lat="37.03581" lon="27.98948">
        <ele>379.7</ele>
      </trkpt>
      <trkpt lat="37.03586" lon="27.98945">
        <ele>382.4</ele>
      </trkpt>
      <trkpt lat="37.03587" lon="27.98947">
        <ele>384.5</ele>
      </trkpt>
      <trkpt lat="37.03583" lon="27.98958">
        <ele>386.4</ele>
      </trkpt>
      <trkpt lat="37.03576" lon="27.98963">
        <ele>384</ele>
      </trkpt>
      <trkpt lat="37.03571" lon="27.98968">
        <ele>382.8</ele>
      </trkpt>
      <trkpt lat="37.03569" lon="27.98968">
        <ele>382.1</ele>
      </trkpt>
      <trkpt lat="37.03561" lon="27.98978">
        <ele>380.4</ele>
      </trkpt>
      <trkpt lat="37.0356" lon="27.98986">
        <ele>384</ele>
      </trkpt>
      <trkpt lat="37.03564" lon="27.98984">
        <ele>386.5</ele>
      </trkpt>
      <trkpt lat="37.03574" lon="27.98976">
        <ele>389.8</ele>
      </trkpt>
      <trkpt lat="37.03585" lon="27.98969">
        <ele>395.1</ele>
      </trkpt>
      <trkpt lat="37.03589" lon="27.98971">
        <ele>400.6</ele>
      </trkpt>
      <trkpt lat="37.03584" lon="27.98975">
        <ele>397.9</ele>
      </trkpt>
      <trkpt lat="37.03574" lon="27.98989">
        <ele>397.5</ele>
      </trkpt>
      <trkpt lat="37.03567" lon="27.98999">
        <ele>397.2</ele>
      </trkpt>
      <trkpt lat="37.03559" lon="27.9902">
        <ele>406.6</ele>
      </trkpt>
      <trkpt lat="37.03551" lon="27.99032">
        <ele>409.1</ele>
      </trkpt>
      <trkpt lat="37.03543" lon="27.99044">
        <ele>411.5</ele>
      </trkpt>
      <trkpt lat="37.03534" lon="27.99057">
        <ele>414.3</ele>
      </trkpt>
      <trkpt lat="37.03533" lon="27.99058">
        <ele>414.3</ele>
      </trkpt>
      <trkpt lat="37.0352" lon="27.99071">
        <ele>414.2</ele>
      </trkpt>
      <trkpt lat="37.03518" lon="27.99074">
        <ele>414.7</ele>
      </trkpt>
      <trkpt lat="37.03514" lon="27.99078">
        <ele>414.7</ele>
      </trkpt>
      <trkpt lat="37.03497" lon="27.99091">
        <ele>409.6</ele>
      </trkpt>
      <trkpt lat="37.03495" lon="27.99092">
        <ele>408.9</ele>
      </trkpt>
      <trkpt lat="37.03494" lon="27.99092">
        <ele>407.1</ele>
      </trkpt>
      <trkpt lat="37.03483" lon="27.99102">
        <ele>403.3</ele>
      </trkpt>
      <trkpt lat="37.03466" lon="27.99114">
        <ele>396.6</ele>
      </trkpt>
      <trkpt lat="37.03457" lon="27.99126">
        <ele>397.6</ele>
      </trkpt>
      <trkpt lat="37.03456" lon="27.99137">
        <ele>405.5</ele>
      </trkpt>
      <trkpt lat="37.03462" lon="27.99134">
        <ele>407.7</ele>
      </trkpt>
      <trkpt lat="37.03467" lon="27.99131">
        <ele>409.4</ele>
      </trkpt>
      <trkpt lat="37.03478" lon="27.99124">
        <ele>414.6</ele>
      </trkpt>
      <trkpt lat="37.03488" lon="27.99122">
        <ele>421.1</ele>
      </trkpt>
      <trkpt lat="37.03486" lon="27.99125">
        <ele>420.9</ele>
      </trkpt>
      <trkpt lat="37.03475" lon="27.99138">
        <ele>421.2</ele>
      </trkpt>
      <trkpt lat="37.03466" lon="27.99152">
        <ele>424.2</ele>
      </trkpt>
      <trkpt lat="37.03465" lon="27.99154">
        <ele>424.6</ele>
      </trkpt>
      <trkpt lat="37.03463" lon="27.99157">
        <ele>425.9</ele>
      </trkpt>
      <trkpt lat="37.03456" lon="27.99167">
        <ele>428</ele>
      </trkpt>
      <trkpt lat="37.0346" lon="27.99166">
        <ele>430.1</ele>
      </trkpt>
      <trkpt lat="37.03465" lon="27.99162">
        <ele>430.8</ele>
      </trkpt>
      <trkpt lat="37.03469" lon="27.99162">
        <ele>433.4</ele>
      </trkpt>
      <trkpt lat="37.03469" lon="27.99162">
        <ele>433.8</ele>
      </trkpt>
      <trkpt lat="37.03467" lon="27.99166">
        <ele>434.8</ele>
      </trkpt>
      <trkpt lat="37.03461" lon="27.99185">
        <ele>437.5</ele>
      </trkpt>
      <trkpt lat="37.03463" lon="27.99191">
        <ele>440.6</ele>
      </trkpt>
      <trkpt lat="37.03464" lon="27.99191">
        <ele>441.2</ele>
      </trkpt>
      <trkpt lat="37.0347" lon="27.99187">
        <ele>443.4</ele>
      </trkpt>
      <trkpt lat="37.03483" lon="27.99174">
        <ele>447.7</ele>
      </trkpt>
      <trkpt lat="37.03483" lon="27.99174">
        <ele>448.1</ele>
      </trkpt>
      <trkpt lat="37.03482" lon="27.99179">
        <ele>448.2</ele>
      </trkpt>
      <trkpt lat="37.03475" lon="27.99193">
        <ele>447.3</ele>
      </trkpt>
      <trkpt lat="37.03469" lon="27.99202">
        <ele>447.1</ele>
      </trkpt>
      <trkpt lat="37.03462" lon="27.99217">
        <ele>448.3</ele>
      </trkpt>
      <trkpt lat="37.03461" lon="27.99218">
        <ele>448.5</ele>
      </trkpt>
      <trkpt lat="37.0346" lon="27.99223">
        <ele>449.7</ele>
      </trkpt>
      <trkpt lat="37.03457" lon="27.99227">
        <ele>450.4</ele>
      </trkpt>
      <trkpt lat="37.03463" lon="27.99225">
        <ele>451.4</ele>
      </trkpt>
      <trkpt lat="37.03465" lon="27.99228">
        <ele>453.1</ele>
      </trkpt>
      <trkpt lat="37.03466" lon="27.99228">
        <ele>453.3</ele>
      </trkpt>
      <trkpt lat="37.03465" lon="27.99227">
        <ele>452.5</ele>
      </trkpt>
      <trkpt lat="37.03463" lon="27.99232">
        <ele>453.3</ele>
      </trkpt>
      <trkpt lat="37.03463" lon="27.99232">
        <ele>453.5</ele>
      </trkpt>
      <trkpt lat="37.03466" lon="27.99237">
        <ele>455.7</ele>
      </trkpt>
      <trkpt lat="37.03462" lon="27.99239">
        <ele>455.6</ele>
      </trkpt>
      <trkpt lat="37.03464" lon="27.99241">
        <ele>456.7</ele>
      </trkpt>
      <trkpt lat="37.03465" lon="27.99244">
        <ele>457.7</ele>
      </trkpt>
      <trkpt lat="37.03478" lon="27.99255">
        <ele>460.8</ele>
      </trkpt>
      <trkpt lat="37.03485" lon="27.99259">
        <ele>461.4</ele>
      </trkpt>
      <trkpt lat="37.035" lon="27.99258">
        <ele>463.8</ele>
      </trkpt>
      <trkpt lat="37.03511" lon="27.99256">
        <ele>465.6</ele>
      </trkpt>
      <trkpt lat="37.03515" lon="27.99256">
        <ele>466.1</ele>
      </trkpt>
      <trkpt lat="37.03527" lon="27.99254">
        <ele>468</ele>
      </trkpt>
      <trkpt lat="37.0354" lon="27.99254">
        <ele>469.8</ele>
      </trkpt>
      <trkpt lat="37.03551" lon="27.99259">
        <ele>470.5</ele>
      </trkpt>
      <trkpt lat="37.03561" lon="27.99265">
        <ele>471.3</ele>
      </trkpt>
      <trkpt lat="37.03563" lon="27.99272">
        <ele>470.6</ele>
      </trkpt>
      <trkpt lat="37.03567" lon="27.99284">
        <ele>469.8</ele>
      </trkpt>
      <trkpt lat="37.03569" lon="27.99306">
        <ele>467.4</ele>
      </trkpt>
      <trkpt lat="37.03578" lon="27.9932">
        <ele>467.4</ele>
      </trkpt>
      <trkpt lat="37.03585" lon="27.99326">
        <ele>467.9</ele>
      </trkpt>
      <trkpt lat="37.03593" lon="27.9934">
        <ele>466.9</ele>
      </trkpt>
      <trkpt lat="37.03594" lon="27.99346">
        <ele>466</ele>
      </trkpt>
      <trkpt lat="37.03593" lon="27.9936">
        <ele>463.5</ele>
      </trkpt>
      <trkpt lat="37.036" lon="27.99374">
        <ele>461.7</ele>
      </trkpt>
      <trkpt lat="37.03608" lon="27.99386">
        <ele>460</ele>
      </trkpt>
      <trkpt lat="37.03615" lon="27.99398">
        <ele>458.1</ele>
      </trkpt>
      <trkpt lat="37.03619" lon="27.994">
        <ele>458</ele>
      </trkpt>
      <trkpt lat="37.03633" lon="27.994">
        <ele>458.6</ele>
      </trkpt>
      <trkpt lat="37.03634" lon="27.994">
        <ele>458.6</ele>
      </trkpt>
      <trkpt lat="37.0365" lon="27.99402">
        <ele>458.8</ele>
      </trkpt>
      <trkpt lat="37.03663" lon="27.99405">
        <ele>458.6</ele>
      </trkpt>
      <trkpt lat="37.03674" lon="27.99409">
        <ele>458.8</ele>
      </trkpt>
      <trkpt lat="37.03684" lon="27.99412">
        <ele>459.8</ele>
      </trkpt>
      <trkpt lat="37.0369" lon="27.99419">
        <ele>459</ele>
      </trkpt>
      <trkpt lat="37.03689" lon="27.99421">
        <ele>458.8</ele>
      </trkpt>
      <trkpt lat="37.03684" lon="27.99434">
        <ele>455.2</ele>
      </trkpt>
      <trkpt lat="37.0368" lon="27.99442">
        <ele>453.2</ele>
      </trkpt>
      <trkpt lat="37.03677" lon="27.99443">
        <ele>452.4</ele>
      </trkpt>
      <trkpt lat="37.03671" lon="27.99452">
        <ele>449.8</ele>
      </trkpt>
      <trkpt lat="37.03673" lon="27.99457">
        <ele>449.3</ele>
      </trkpt>
      <trkpt lat="37.03674" lon="27.99457">
        <ele>449.2</ele>
      </trkpt>
      <trkpt lat="37.03665" lon="27.99456">
        <ele>448.4</ele>
      </trkpt>
      <trkpt lat="37.03658" lon="27.99465">
        <ele>446.7</ele>
      </trkpt>
      <trkpt lat="37.03656" lon="27.99477">
        <ele>444.5</ele>
      </trkpt>
      <trkpt lat="37.03664" lon="27.99484">
        <ele>443</ele>
      </trkpt>
      <trkpt lat="37.03632" lon="27.99555">
        <ele>430.8</ele>
      </trkpt>
      <trkpt lat="37.03633" lon="27.99555">
        <ele>430.8</ele>
      </trkpt>
      <trkpt lat="37.03643" lon="27.99568">
        <ele>428.3</ele>
      </trkpt>
      <trkpt lat="37.03657" lon="27.99575">
        <ele>426.7</ele>
      </trkpt>
      <trkpt lat="37.03661" lon="27.99592">
        <ele>424.1</ele>
      </trkpt>
      <trkpt lat="37.03665" lon="27.99599">
        <ele>423.1</ele>
      </trkpt>
      <trkpt lat="37.03671" lon="27.996">
        <ele>423</ele>
      </trkpt>
      <trkpt lat="37.03675" lon="27.99605">
        <ele>422.4</ele>
      </trkpt>
      <trkpt lat="37.03675" lon="27.99615">
        <ele>421.2</ele>
      </trkpt>
      <trkpt lat="37.0368" lon="27.99632">
        <ele>419.3</ele>
      </trkpt>
      <trkpt lat="37.03679" lon="27.9964">
        <ele>418.4</ele>
      </trkpt>
      <trkpt lat="37.0368" lon="27.99657">
        <ele>416.4</ele>
      </trkpt>
      <trkpt lat="37.0368" lon="27.99657">
        <ele>416.4</ele>
      </trkpt>
      <trkpt lat="37.03683" lon="27.99688">
        <ele>416</ele>
      </trkpt>
      <trkpt lat="37.03684" lon="27.99711">
        <ele>416.8</ele>
      </trkpt>
      <trkpt lat="37.03686" lon="27.99737">
        <ele>417.9</ele>
      </trkpt>
      <trkpt lat="37.03686" lon="27.99754">
        <ele>418</ele>
      </trkpt>
      <trkpt lat="37.0369" lon="27.99771">
        <ele>417.1</ele>
      </trkpt>
      <trkpt lat="37.03694" lon="27.99792">
        <ele>415.7</ele>
      </trkpt>
      <trkpt lat="37.037" lon="27.99818">
        <ele>414.1</ele>
      </trkpt>
      <trkpt lat="37.03701" lon="27.9982">
        <ele>414.1</ele>
      </trkpt>
      <trkpt lat="37.03713" lon="27.99837">
        <ele>413.7</ele>
      </trkpt>
      <trkpt lat="37.03728" lon="27.99851">
        <ele>414</ele>
      </trkpt>
      <trkpt lat="37.03746" lon="27.99864">
        <ele>415.1</ele>
      </trkpt>
      <trkpt lat="37.03756" lon="27.99875">
        <ele>415.2</ele>
      </trkpt>
      <trkpt lat="37.03751" lon="27.99894">
        <ele>414.1</ele>
      </trkpt>
      <trkpt lat="37.03746" lon="27.9991">
        <ele>412.8</ele>
      </trkpt>
      <trkpt lat="37.03735" lon="27.99929">
        <ele>411.3</ele>
      </trkpt>
      <trkpt lat="37.03731" lon="27.99951">
        <ele>411.2</ele>
      </trkpt>
      <trkpt lat="37.03729" lon="27.99974">
        <ele>411.5</ele>
      </trkpt>
      <trkpt lat="37.03732" lon="27.99994">
        <ele>412.7</ele>
      </trkpt>
      <trkpt lat="37.03738" lon="28.00016">
        <ele>413.6</ele>
      </trkpt>
      <trkpt lat="37.0374" lon="28.00035">
        <ele>413.4</ele>
      </trkpt>
      <trkpt lat="37.0374" lon="28.00055">
        <ele>412.5</ele>
      </trkpt>
      <trkpt lat="37.03734" lon="28.00076">
        <ele>410.6</ele>
      </trkpt>
      <trkpt lat="37.03732" lon="28.001">
        <ele>409</ele>
      </trkpt>
      <trkpt lat="37.03732" lon="28.00131">
        <ele>407.2</ele>
      </trkpt>
      <trkpt lat="37.03733" lon="28.00159">
        <ele>405.6</ele>
      </trkpt>
      <trkpt lat="37.03742" lon="28.00184">
        <ele>404.3</ele>
      </trkpt>
      <trkpt lat="37.03749" lon="28.00203">
        <ele>403.3</ele>
      </trkpt>
      <trkpt lat="37.0376" lon="28.0023">
        <ele>399.8</ele>
      </trkpt>
      <trkpt lat="37.03763" lon="28.00238">
        <ele>399</ele>
      </trkpt>
      <trkpt lat="37.0377" lon="28.00263">
        <ele>396.9</ele>
      </trkpt>
      <trkpt lat="37.03775" lon="28.00285">
        <ele>395.8</ele>
      </trkpt>
      <trkpt lat="37.03775" lon="28.00287">
        <ele>395.6</ele>
      </trkpt>
      <trkpt lat="37.03773" lon="28.00289">
        <ele>395.9</ele>
      </trkpt>
      <trkpt lat="37.03772" lon="28.00291">
        <ele>396</ele>
      </trkpt>
      <trkpt lat="37.03769" lon="28.00304">
        <ele>396.1</ele>
      </trkpt>
      <trkpt lat="37.03764" lon="28.00322">
        <ele>396.4</ele>
      </trkpt>
      <trkpt lat="37.03752" lon="28.00345">
        <ele>397.1</ele>
      </trkpt>
      <trkpt lat="37.03745" lon="28.00359">
        <ele>396.5</ele>
      </trkpt>
      <trkpt lat="37.03735" lon="28.00372">
        <ele>395.8</ele>
      </trkpt>
      <trkpt lat="37.03729" lon="28.00377">
        <ele>395.6</ele>
      </trkpt>
      <trkpt lat="37.03718" lon="28.00392">
        <ele>395.5</ele>
      </trkpt>
      <trkpt lat="37.03708" lon="28.00407">
        <ele>395.8</ele>
      </trkpt>
      <trkpt lat="37.03694" lon="28.00428">
        <ele>397.5</ele>
      </trkpt>
      <trkpt lat="37.03689" lon="28.00438">
        <ele>398.5</ele>
      </trkpt>
      <trkpt lat="37.03686" lon="28.00442">
        <ele>399.1</ele>
      </trkpt>
      <trkpt lat="37.03673" lon="28.00463">
        <ele>401.9</ele>
      </trkpt>
      <trkpt lat="37.03664" lon="28.00488">
        <ele>404.8</ele>
      </trkpt>
      <trkpt lat="37.03663" lon="28.00494">
        <ele>405.5</ele>
      </trkpt>
      <trkpt lat="37.03663" lon="28.00491">
        <ele>405.2</ele>
      </trkpt>
      <trkpt lat="37.03662" lon="28.00503">
        <ele>405.9</ele>
      </trkpt>
      <trkpt lat="37.03661" lon="28.00503">
        <ele>405.9</ele>
      </trkpt>
      <trkpt lat="37.03659" lon="28.0051">
        <ele>405.5</ele>
      </trkpt>
      <trkpt lat="37.03663" lon="28.00528">
        <ele>404.4</ele>
      </trkpt>
      <trkpt lat="37.03662" lon="28.00532">
        <ele>404.1</ele>
      </trkpt>
      <trkpt lat="37.03672" lon="28.00555">
        <ele>402.3</ele>
      </trkpt>
      <trkpt lat="37.0368" lon="28.00568">
        <ele>401</ele>
      </trkpt>
      <trkpt lat="37.03694" lon="28.00588">
        <ele>399</ele>
      </trkpt>
      <trkpt lat="37.03707" lon="28.00607">
        <ele>397.1</ele>
      </trkpt>
      <trkpt lat="37.03711" lon="28.00622">
        <ele>396.1</ele>
      </trkpt>
      <trkpt lat="37.03712" lon="28.0064">
        <ele>395</ele>
      </trkpt>
      <trkpt lat="37.03714" lon="28.00661">
        <ele>393.8</ele>
      </trkpt>
      <trkpt lat="37.0371" lon="28.00687">
        <ele>395</ele>
      </trkpt>
      <trkpt lat="37.03711" lon="28.00709">
        <ele>396.6</ele>
      </trkpt>
      <trkpt lat="37.03711" lon="28.00731">
        <ele>398.2</ele>
      </trkpt>
      <trkpt lat="37.03709" lon="28.00748">
        <ele>399.4</ele>
      </trkpt>
      <trkpt lat="37.03702" lon="28.00768">
        <ele>401</ele>
      </trkpt>
      <trkpt lat="37.03695" lon="28.00791">
        <ele>402.8</ele>
      </trkpt>
      <trkpt lat="37.0369" lon="28.00808">
        <ele>404</ele>
      </trkpt>
      <trkpt lat="37.03683" lon="28.00835">
        <ele>405.9</ele>
      </trkpt>
      <trkpt lat="37.03677" lon="28.00857">
        <ele>407.2</ele>
      </trkpt>
      <trkpt lat="37.03677" lon="28.00874">
        <ele>408.8</ele>
      </trkpt>
      <trkpt lat="37.03677" lon="28.00876">
        <ele>409</ele>
      </trkpt>
      <trkpt lat="37.03681" lon="28.00885">
        <ele>410.1</ele>
      </trkpt>
      <trkpt lat="37.0369" lon="28.00892">
        <ele>411.4</ele>
      </trkpt>
      <trkpt lat="37.03696" lon="28.00903">
        <ele>412.7</ele>
      </trkpt>
      <trkpt lat="37.03705" lon="28.0092">
        <ele>414.3</ele>
      </trkpt>
      <trkpt lat="37.03707" lon="28.00929">
        <ele>414.3</ele>
      </trkpt>
      <trkpt lat="37.03714" lon="28.00942">
        <ele>414.6</ele>
      </trkpt>
      <trkpt lat="37.03733" lon="28.00959">
        <ele>415.3</ele>
      </trkpt>
      <trkpt lat="37.03736" lon="28.00961">
        <ele>415.3</ele>
      </trkpt>
      <trkpt lat="37.03755" lon="28.0098">
        <ele>415.8</ele>
      </trkpt>
      <trkpt lat="37.03768" lon="28.00995">
        <ele>416.5</ele>
      </trkpt>
      <trkpt lat="37.03778" lon="28.0101">
        <ele>416.7</ele>
      </trkpt>
      <trkpt lat="37.03789" lon="28.01027">
        <ele>416.6</ele>
      </trkpt>
      <trkpt lat="37.03796" lon="28.01041">
        <ele>416.5</ele>
      </trkpt>
      <trkpt lat="37.03803" lon="28.0105">
        <ele>416.7</ele>
      </trkpt>
      <trkpt lat="37.0381" lon="28.01055">
        <ele>417.3</ele>
      </trkpt>
      <trkpt lat="37.03817" lon="28.01058">
        <ele>418</ele>
      </trkpt>
      <trkpt lat="37.03821" lon="28.01059">
        <ele>418.4</ele>
      </trkpt>
      <trkpt lat="37.03822" lon="28.01061">
        <ele>418.5</ele>
      </trkpt>
      <trkpt lat="37.03824" lon="28.01062">
        <ele>418.7</ele>
      </trkpt>
      <trkpt lat="37.03824" lon="28.01062">
        <ele>418.7</ele>
      </trkpt>
      <trkpt lat="37.03825" lon="28.01063">
        <ele>418.8</ele>
      </trkpt>
      <trkpt lat="37.03821" lon="28.01087">
        <ele>417.1</ele>
      </trkpt>
      <trkpt lat="37.03822" lon="28.01107">
        <ele>416.2</ele>
      </trkpt>
      <trkpt lat="37.03825" lon="28.01121">
        <ele>415.8</ele>
      </trkpt>
      <trkpt lat="37.03833" lon="28.01149">
        <ele>415</ele>
      </trkpt>
      <trkpt lat="37.03836" lon="28.01167">
        <ele>414.3</ele>
      </trkpt>
      <trkpt lat="37.03842" lon="28.01191">
        <ele>414.1</ele>
      </trkpt>
      <trkpt lat="37.03847" lon="28.01209">
        <ele>413.9</ele>
      </trkpt>
      <trkpt lat="37.0385" lon="28.01238">
        <ele>412.9</ele>
      </trkpt>
      <trkpt lat="37.03847" lon="28.01261">
        <ele>411.7</ele>
      </trkpt>
      <trkpt lat="37.03839" lon="28.01288">
        <ele>410.5</ele>
      </trkpt>
      <trkpt lat="37.03838" lon="28.0131">
        <ele>409.6</ele>
      </trkpt>
      <trkpt lat="37.03852" lon="28.01411">
        <ele>404.1</ele>
      </trkpt>
      <trkpt lat="37.0385" lon="28.01433">
        <ele>402.6</ele>
      </trkpt>
      <trkpt lat="37.0383" lon="28.01488">
        <ele>400.8</ele>
      </trkpt>
      <trkpt lat="37.03823" lon="28.01493">
        <ele>402</ele>
      </trkpt>
      <trkpt lat="37.0378" lon="28.0161">
        <ele>402.2</ele>
      </trkpt>
      <trkpt lat="37.03748" lon="28.01634">
        <ele>407.2</ele>
      </trkpt>
      <trkpt lat="37.03741" lon="28.0165">
        <ele>406.3</ele>
      </trkpt>
      <trkpt lat="37.03739" lon="28.0166">
        <ele>405.5</ele>
      </trkpt>
      <trkpt lat="37.03738" lon="28.01683">
        <ele>406.8</ele>
      </trkpt>
      <trkpt lat="37.03735" lon="28.01701">
        <ele>409.5</ele>
      </trkpt>
      <trkpt lat="37.03734" lon="28.01706">
        <ele>410.1</ele>
      </trkpt>
      <trkpt lat="37.03735" lon="28.01717">
        <ele>411.3</ele>
      </trkpt>
      <trkpt lat="37.03734" lon="28.01731">
        <ele>413</ele>
      </trkpt>
      <trkpt lat="37.03737" lon="28.0175">
        <ele>414.4</ele>
      </trkpt>
      <trkpt lat="37.03741" lon="28.01774">
        <ele>416.6</ele>
      </trkpt>
      <trkpt lat="37.03743" lon="28.01791">
        <ele>418.1</ele>
      </trkpt>
      <trkpt lat="37.03746" lon="28.01811">
        <ele>419.5</ele>
      </trkpt>
      <trkpt lat="37.0375" lon="28.01831">
        <ele>420.8</ele>
      </trkpt>
      <trkpt lat="37.03753" lon="28.01858">
        <ele>421.4</ele>
      </trkpt>
      <trkpt lat="37.0375" lon="28.01873">
        <ele>423.2</ele>
      </trkpt>
      <trkpt lat="37.03748" lon="28.01896">
        <ele>425.6</ele>
      </trkpt>
      <trkpt lat="37.03747" lon="28.01918">
        <ele>427</ele>
      </trkpt>
      <trkpt lat="37.03749" lon="28.01936">
        <ele>426.7</ele>
      </trkpt>
      <trkpt lat="37.03748" lon="28.01942">
        <ele>427.1</ele>
      </trkpt>
      <trkpt lat="37.03749" lon="28.01954">
        <ele>426.8</ele>
      </trkpt>
      <trkpt lat="37.03749" lon="28.01972">
        <ele>427.1</ele>
      </trkpt>
      <trkpt lat="37.03743" lon="28.02">
        <ele>429.9</ele>
      </trkpt>
      <trkpt lat="37.03737" lon="28.02022">
        <ele>430.8</ele>
      </trkpt>
      <trkpt lat="37.03736" lon="28.02042">
        <ele>430.2</ele>
      </trkpt>
      <trkpt lat="37.0373" lon="28.02061">
        <ele>431</ele>
      </trkpt>
      <trkpt lat="37.03724" lon="28.02078">
        <ele>432.3</ele>
      </trkpt>
      <trkpt lat="37.03716" lon="28.02092">
        <ele>433.6</ele>
      </trkpt>
      <trkpt lat="37.03706" lon="28.02109">
        <ele>435.4</ele>
      </trkpt>
      <trkpt lat="37.037" lon="28.02125">
        <ele>435.7</ele>
      </trkpt>
      <trkpt lat="37.03691" lon="28.02148">
        <ele>435.8</ele>
      </trkpt>
      <trkpt lat="37.03686" lon="28.02172">
        <ele>434.7</ele>
      </trkpt>
      <trkpt lat="37.03678" lon="28.0219">
        <ele>435.1</ele>
      </trkpt>
      <trkpt lat="37.03672" lon="28.02202">
        <ele>435.6</ele>
      </trkpt>
      <trkpt lat="37.03666" lon="28.02215">
        <ele>436</ele>
      </trkpt>
      <trkpt lat="37.03661" lon="28.02218">
        <ele>435.9</ele>
      </trkpt>
      <trkpt lat="37.0365" lon="28.02223">
        <ele>436</ele>
      </trkpt>
      <trkpt lat="37.03635" lon="28.02231">
        <ele>435.6</ele>
      </trkpt>
      <trkpt lat="37.03633" lon="28.02235">
        <ele>435.2</ele>
      </trkpt>
      <trkpt lat="37.03621" lon="28.02242">
        <ele>434.7</ele>
      </trkpt>
      <trkpt lat="37.03616" lon="28.0226">
        <ele>433.2</ele>
      </trkpt>
      <trkpt lat="37.03616" lon="28.02262">
        <ele>433.2</ele>
      </trkpt>
      <trkpt lat="37.03614" lon="28.02272">
        <ele>432.9</ele>
      </trkpt>
      <trkpt lat="37.03606" lon="28.02268">
        <ele>433.3</ele>
      </trkpt>
      <trkpt lat="37.03602" lon="28.02271">
        <ele>433.3</ele>
      </trkpt>
      <trkpt lat="37.03598" lon="28.02281">
        <ele>433.3</ele>
      </trkpt>
      <trkpt lat="37.03591" lon="28.02285">
        <ele>433.6</ele>
      </trkpt>
      <trkpt lat="37.03592" lon="28.02286">
        <ele>433.6</ele>
      </trkpt>
      <trkpt lat="37.03583" lon="28.0229">
        <ele>433.9</ele>
      </trkpt>
      <trkpt lat="37.0358" lon="28.02292">
        <ele>433.7</ele>
      </trkpt>
      <trkpt lat="37.03573" lon="28.02297">
        <ele>433.1</ele>
      </trkpt>
      <trkpt lat="37.03572" lon="28.02297">
        <ele>433</ele>
      </trkpt>
      <trkpt lat="37.03574" lon="28.02304">
        <ele>433.1</ele>
      </trkpt>
      <trkpt lat="37.03585" lon="28.02306">
        <ele>433.9</ele>
      </trkpt>
      <trkpt lat="37.03583" lon="28.02299">
        <ele>434</ele>
      </trkpt>
      <trkpt lat="37.03582" lon="28.02297">
        <ele>433.8</ele>
      </trkpt>
      <trkpt lat="37.03584" lon="28.02298">
        <ele>434</ele>
      </trkpt>
      <trkpt lat="37.03588" lon="28.02298">
        <ele>433.7</ele>
      </trkpt>
      <trkpt lat="37.03593" lon="28.023">
        <ele>433.4</ele>
      </trkpt>
      <trkpt lat="37.03593" lon="28.023">
        <ele>433.3</ele>
      </trkpt>
      <trkpt lat="37.0359" lon="28.023">
        <ele>433.5</ele>
      </trkpt>
      <trkpt lat="37.03599" lon="28.0231">
        <ele>432.7</ele>
      </trkpt>
      <trkpt lat="37.03605" lon="28.02313">
        <ele>432.2</ele>
      </trkpt>
      <trkpt lat="37.03606" lon="28.02324">
        <ele>431.8</ele>
      </trkpt>
      <trkpt lat="37.03598" lon="28.02337">
        <ele>432.6</ele>
      </trkpt>
      <trkpt lat="37.03592" lon="28.02349">
        <ele>433.9</ele>
      </trkpt>
      <trkpt lat="37.0359" lon="28.02349">
        <ele>434.2</ele>
      </trkpt>
      <trkpt lat="37.03591" lon="28.02351">
        <ele>434.3</ele>
      </trkpt>
      <trkpt lat="37.03592" lon="28.02365">
        <ele>434.8</ele>
      </trkpt>
      <trkpt lat="37.03592" lon="28.02367">
        <ele>434.9</ele>
      </trkpt>
      <trkpt lat="37.03596" lon="28.02381">
        <ele>435</ele>
      </trkpt>
      <trkpt lat="37.03591" lon="28.02392">
        <ele>436.5</ele>
      </trkpt>
      <trkpt lat="37.03591" lon="28.02398">
        <ele>436.9</ele>
      </trkpt>
      <trkpt lat="37.03586" lon="28.02408">
        <ele>438.8</ele>
      </trkpt>
      <trkpt lat="37.03582" lon="28.02415">
        <ele>439.8</ele>
      </trkpt>
      <trkpt lat="37.0358" lon="28.0242">
        <ele>440.1</ele>
      </trkpt>
      <trkpt lat="37.03578" lon="28.02428">
        <ele>440.4</ele>
      </trkpt>
      <trkpt lat="37.03573" lon="28.02442">
        <ele>441</ele>
      </trkpt>
      <trkpt lat="37.03572" lon="28.02443">
        <ele>441.1</ele>
      </trkpt>
      <trkpt lat="37.03567" lon="28.02454">
        <ele>441.7</ele>
      </trkpt>
      <trkpt lat="37.03564" lon="28.02463">
        <ele>442.2</ele>
      </trkpt>
      <trkpt lat="37.03556" lon="28.0247">
        <ele>442.7</ele>
      </trkpt>
      <trkpt lat="37.03552" lon="28.02474">
        <ele>442.9</ele>
      </trkpt>
      <trkpt lat="37.0355" lon="28.02488">
        <ele>443.9</ele>
      </trkpt>
      <trkpt lat="37.03547" lon="28.02493">
        <ele>444.4</ele>
      </trkpt>
      <trkpt lat="37.03543" lon="28.02497">
        <ele>444.7</ele>
      </trkpt>
      <trkpt lat="37.03538" lon="28.02504">
        <ele>445.4</ele>
      </trkpt>
      <trkpt lat="37.03535" lon="28.02505">
        <ele>445.5</ele>
      </trkpt>
      <trkpt lat="37.03535" lon="28.02506">
        <ele>445.7</ele>
      </trkpt>
      <trkpt lat="37.03531" lon="28.02511">
        <ele>446.1</ele>
      </trkpt>
      <trkpt lat="37.03528" lon="28.02515">
        <ele>446.6</ele>
      </trkpt>
      <trkpt lat="37.03527" lon="28.02516">
        <ele>446.7</ele>
      </trkpt>
      <trkpt lat="37.03523" lon="28.02519">
        <ele>447.1</ele>
      </trkpt>
      <trkpt lat="37.03525" lon="28.02519">
        <ele>447.1</ele>
      </trkpt>
      <trkpt lat="37.03518" lon="28.02529">
        <ele>448.2</ele>
      </trkpt>
      <trkpt lat="37.03513" lon="28.02532">
        <ele>448.8</ele>
      </trkpt>
      <trkpt lat="37.03508" lon="28.02528">
        <ele>448.7</ele>
      </trkpt>
      <trkpt lat="37.035" lon="28.02536">
        <ele>449.9</ele>
      </trkpt>
      <trkpt lat="37.03492" lon="28.02545">
        <ele>450.7</ele>
      </trkpt>
      <trkpt lat="37.03485" lon="28.02551">
        <ele>451.2</ele>
      </trkpt>
      <trkpt lat="37.03486" lon="28.02553">
        <ele>451.4</ele>
      </trkpt>
      <trkpt lat="37.03483" lon="28.0256">
        <ele>452.1</ele>
      </trkpt>
      <trkpt lat="37.03476" lon="28.02569">
        <ele>453</ele>
      </trkpt>
      <trkpt lat="37.03475" lon="28.02569">
        <ele>453</ele>
      </trkpt>
      <trkpt lat="37.0348" lon="28.02582">
        <ele>454.6</ele>
      </trkpt>
      <trkpt lat="37.03482" lon="28.02585">
        <ele>455.2</ele>
      </trkpt>
      <trkpt lat="37.03473" lon="28.02591">
        <ele>456.1</ele>
      </trkpt>
      <trkpt lat="37.03471" lon="28.02604">
        <ele>458.7</ele>
      </trkpt>
      <trkpt lat="37.03469" lon="28.02609">
        <ele>459.7</ele>
      </trkpt>
      <trkpt lat="37.03467" lon="28.0261">
        <ele>459.8</ele>
      </trkpt>
      <trkpt lat="37.0346" lon="28.0261">
        <ele>459.8</ele>
      </trkpt>
      <trkpt lat="37.03451" lon="28.02613">
        <ele>460.4</ele>
      </trkpt>
      <trkpt lat="37.03451" lon="28.02613">
        <ele>460.2</ele>
      </trkpt>
      <trkpt lat="37.03448" lon="28.02616">
        <ele>460.8</ele>
      </trkpt>
      <trkpt lat="37.03444" lon="28.02618">
        <ele>461.3</ele>
      </trkpt>
      <trkpt lat="37.03442" lon="28.02626">
        <ele>462.9</ele>
      </trkpt>
      <trkpt lat="37.03441" lon="28.02628">
        <ele>463.3</ele>
      </trkpt>
      <trkpt lat="37.03427" lon="28.02633">
        <ele>464.2</ele>
      </trkpt>
      <trkpt lat="37.03425" lon="28.02638">
        <ele>465.1</ele>
      </trkpt>
      <trkpt lat="37.03414" lon="28.02645">
        <ele>467</ele>
      </trkpt>
      <trkpt lat="37.0342" lon="28.02655">
        <ele>468.5</ele>
      </trkpt>
      <trkpt lat="37.03421" lon="28.02668">
        <ele>471.4</ele>
      </trkpt>
      <trkpt lat="37.03418" lon="28.0268">
        <ele>474.2</ele>
      </trkpt>
      <trkpt lat="37.03422" lon="28.02698">
        <ele>479</ele>
      </trkpt>
      <trkpt lat="37.03425" lon="28.0271">
        <ele>482.1</ele>
      </trkpt>
      <trkpt lat="37.03425" lon="28.02716">
        <ele>483.6</ele>
      </trkpt>
      <trkpt lat="37.03424" lon="28.02729">
        <ele>486.8</ele>
      </trkpt>
      <trkpt lat="37.03424" lon="28.0273">
        <ele>487.1</ele>
      </trkpt>
      <trkpt lat="37.03424" lon="28.02743">
        <ele>490.5</ele>
      </trkpt>
      <trkpt lat="37.03424" lon="28.02764">
        <ele>495.7</ele>
      </trkpt>
      <trkpt lat="37.0343" lon="28.02765">
        <ele>496.1</ele>
      </trkpt>
      <trkpt lat="37.03431" lon="28.02767">
        <ele>496.8</ele>
      </trkpt>
      <trkpt lat="37.03432" lon="28.02777">
        <ele>499.3</ele>
      </trkpt>
      <trkpt lat="37.03431" lon="28.02783">
        <ele>500.8</ele>
      </trkpt>
      <trkpt lat="37.03435" lon="28.02794">
        <ele>503.4</ele>
      </trkpt>
      <trkpt lat="37.03435" lon="28.02804">
        <ele>506.1</ele>
      </trkpt>
      <trkpt lat="37.03436" lon="28.02811">
        <ele>507.8</ele>
      </trkpt>
      <trkpt lat="37.03442" lon="28.02827">
        <ele>511.7</ele>
      </trkpt>
      <trkpt lat="37.03443" lon="28.02829">
        <ele>512.2</ele>
      </trkpt>
      <trkpt lat="37.03445" lon="28.02834">
        <ele>513.4</ele>
      </trkpt>
      <trkpt lat="37.03443" lon="28.02848">
        <ele>515.6</ele>
      </trkpt>
      <trkpt lat="37.03443" lon="28.02854">
        <ele>516.5</ele>
      </trkpt>
      <trkpt lat="37.03442" lon="28.02871">
        <ele>519.1</ele>
      </trkpt>
      <trkpt lat="37.03442" lon="28.02873">
        <ele>519.4</ele>
      </trkpt>
      <trkpt lat="37.03454" lon="28.02886">
        <ele>520.8</ele>
      </trkpt>
      <trkpt lat="37.03454" lon="28.02886">
        <ele>520.8</ele>
      </trkpt>
      <trkpt lat="37.03452" lon="28.0289">
        <ele>521.4</ele>
      </trkpt>
      <trkpt lat="37.03449" lon="28.02898">
        <ele>522.7</ele>
      </trkpt>
      <trkpt lat="37.03452" lon="28.02907">
        <ele>523.8</ele>
      </trkpt>
      <trkpt lat="37.03452" lon="28.02923">
        <ele>525.6</ele>
      </trkpt>
      <trkpt lat="37.03453" lon="28.02935">
        <ele>526.3</ele>
      </trkpt>
      <trkpt lat="37.03456" lon="28.0294">
        <ele>526.3</ele>
      </trkpt>
      <trkpt lat="37.03458" lon="28.02959">
        <ele>527.4</ele>
      </trkpt>
      <trkpt lat="37.03457" lon="28.02966">
        <ele>528</ele>
      </trkpt>
      <trkpt lat="37.03451" lon="28.02975">
        <ele>529.4</ele>
      </trkpt>
      <trkpt lat="37.03444" lon="28.02988">
        <ele>531.2</ele>
      </trkpt>
      <trkpt lat="37.03442" lon="28.02995">
        <ele>532</ele>
      </trkpt>
      <trkpt lat="37.03442" lon="28.03004">
        <ele>532.4</ele>
      </trkpt>
      <trkpt lat="37.03436" lon="28.03012">
        <ele>533.5</ele>
      </trkpt>
      <trkpt lat="37.03437" lon="28.0302">
        <ele>533.4</ele>
      </trkpt>
      <trkpt lat="37.03433" lon="28.03023">
        <ele>534</ele>
      </trkpt>
      <trkpt lat="37.03433" lon="28.03037">
        <ele>534.3</ele>
      </trkpt>
      <trkpt lat="37.0343" lon="28.03038">
        <ele>535</ele>
      </trkpt>
      <trkpt lat="37.03432" lon="28.03044">
        <ele>534.8</ele>
      </trkpt>
      <trkpt lat="37.0343" lon="28.03042">
        <ele>535</ele>
      </trkpt>
      <trkpt lat="37.03432" lon="28.03049">
        <ele>534.8</ele>
      </trkpt>
      <trkpt lat="37.03443" lon="28.03052">
        <ele>532.7</ele>
      </trkpt>
      <trkpt lat="37.03444" lon="28.03053">
        <ele>532.6</ele>
      </trkpt>
      <trkpt lat="37.03442" lon="28.03058">
        <ele>532.9</ele>
      </trkpt>
      <trkpt lat="37.0344" lon="28.03067">
        <ele>533.5</ele>
      </trkpt>
      <trkpt lat="37.03434" lon="28.03073">
        <ele>534.8</ele>
      </trkpt>
      <trkpt lat="37.03438" lon="28.03077">
        <ele>534.1</ele>
      </trkpt>
      <trkpt lat="37.03446" lon="28.03079">
        <ele>532.2</ele>
      </trkpt>
      <trkpt lat="37.03451" lon="28.03086">
        <ele>530.9</ele>
      </trkpt>
      <trkpt lat="37.03451" lon="28.03098">
        <ele>529.4</ele>
      </trkpt>
      <trkpt lat="37.0345" lon="28.03109">
        <ele>528.3</ele>
      </trkpt>
      <trkpt lat="37.03449" lon="28.03125">
        <ele>526.8</ele>
      </trkpt>
      <trkpt lat="37.0345" lon="28.03132">
        <ele>525.8</ele>
      </trkpt>
      <trkpt lat="37.0345" lon="28.03144">
        <ele>524.3</ele>
      </trkpt>
      <trkpt lat="37.03447" lon="28.03157">
        <ele>523.3</ele>
      </trkpt>
      <trkpt lat="37.03451" lon="28.03172">
        <ele>520.1</ele>
      </trkpt>
      <trkpt lat="37.03442" lon="28.03186">
        <ele>518.7</ele>
      </trkpt>
      <trkpt lat="37.03443" lon="28.03198">
        <ele>515</ele>
      </trkpt>
      <trkpt lat="37.03442" lon="28.03212">
        <ele>511.8</ele>
      </trkpt>
      <trkpt lat="37.03438" lon="28.03221">
        <ele>510</ele>
      </trkpt>
      <trkpt lat="37.0344" lon="28.03231">
        <ele>507</ele>
      </trkpt>
      <trkpt lat="37.03437" lon="28.03233">
        <ele>506.9</ele>
      </trkpt>
      <trkpt lat="37.03429" lon="28.03235">
        <ele>507.4</ele>
      </trkpt>
      <trkpt lat="37.03422" lon="28.0325">
        <ele>504.3</ele>
      </trkpt>
      <trkpt lat="37.03415" lon="28.03261">
        <ele>504</ele>
      </trkpt>
      <trkpt lat="37.03408" lon="28.03279">
        <ele>502.7</ele>
      </trkpt>
      <trkpt lat="37.03407" lon="28.0329">
        <ele>501.4</ele>
      </trkpt>
      <trkpt lat="37.03407" lon="28.03306">
        <ele>499.4</ele>
      </trkpt>
      <trkpt lat="37.03412" lon="28.03321">
        <ele>497.4</ele>
      </trkpt>
      <trkpt lat="37.03413" lon="28.0332">
        <ele>497.5</ele>
      </trkpt>
      <trkpt lat="37.03406" lon="28.03331">
        <ele>496.3</ele>
      </trkpt>
      <trkpt lat="37.03396" lon="28.03346">
        <ele>495.3</ele>
      </trkpt>
      <trkpt lat="37.03404" lon="28.03352">
        <ele>495</ele>
      </trkpt>
      <trkpt lat="37.03404" lon="28.03352">
        <ele>495</ele>
      </trkpt>
      <trkpt lat="37.0341" lon="28.03368">
        <ele>494.2</ele>
      </trkpt>
      <trkpt lat="37.03414" lon="28.03389">
        <ele>493.3</ele>
      </trkpt>
      <trkpt lat="37.03415" lon="28.03407">
        <ele>492.4</ele>
      </trkpt>
      <trkpt lat="37.03413" lon="28.0343">
        <ele>491.6</ele>
      </trkpt>
      <trkpt lat="37.03411" lon="28.03452">
        <ele>491.3</ele>
      </trkpt>
      <trkpt lat="37.03412" lon="28.03457">
        <ele>491.2</ele>
      </trkpt>
      <trkpt lat="37.03412" lon="28.03465">
        <ele>491.1</ele>
      </trkpt>
      <trkpt lat="37.03408" lon="28.03481">
        <ele>491.2</ele>
      </trkpt>
      <trkpt lat="37.034" lon="28.03496">
        <ele>492</ele>
      </trkpt>
      <trkpt lat="37.03386" lon="28.03509">
        <ele>495.7</ele>
      </trkpt>
      <trkpt lat="37.0337" lon="28.03521">
        <ele>500.1</ele>
      </trkpt>
      <trkpt lat="37.03355" lon="28.03526">
        <ele>503.1</ele>
      </trkpt>
      <trkpt lat="37.03339" lon="28.03519">
        <ele>503.7</ele>
      </trkpt>
      <trkpt lat="37.03326" lon="28.03519">
        <ele>505</ele>
      </trkpt>
      <trkpt lat="37.0332" lon="28.03519">
        <ele>505.4</ele>
      </trkpt>
      <trkpt lat="37.03317" lon="28.03522">
        <ele>506.2</ele>
      </trkpt>
      <trkpt lat="37.03316" lon="28.03523">
        <ele>506.7</ele>
      </trkpt>
      <trkpt lat="37.03306" lon="28.03518">
        <ele>506.2</ele>
      </trkpt>
      <trkpt lat="37.03293" lon="28.03511">
        <ele>505.7</ele>
      </trkpt>
      <trkpt lat="37.03279" lon="28.03505">
        <ele>505.2</ele>
      </trkpt>
      <trkpt lat="37.03274" lon="28.03501">
        <ele>504.5</ele>
      </trkpt>
      <trkpt lat="37.03269" lon="28.03502">
        <ele>505.1</ele>
      </trkpt>
      <trkpt lat="37.03252" lon="28.03502">
        <ele>506.4</ele>
      </trkpt>
      <trkpt lat="37.03244" lon="28.03503">
        <ele>507</ele>
      </trkpt>
      <trkpt lat="37.03242" lon="28.03503">
        <ele>507</ele>
      </trkpt>
      <trkpt lat="37.03231" lon="28.03498">
        <ele>506.6</ele>
      </trkpt>
      <trkpt lat="37.0322" lon="28.03495">
        <ele>506.7</ele>
      </trkpt>
      <trkpt lat="37.03201" lon="28.03491">
        <ele>507.1</ele>
      </trkpt>
      <trkpt lat="37.03192" lon="28.03488">
        <ele>507.2</ele>
      </trkpt>
      <trkpt lat="37.03182" lon="28.03485">
        <ele>507.2</ele>
      </trkpt>
      <trkpt lat="37.03164" lon="28.03484">
        <ele>507.8</ele>
      </trkpt>
      <trkpt lat="37.03146" lon="28.03479">
        <ele>506.9</ele>
      </trkpt>
      <trkpt lat="37.03131" lon="28.03482">
        <ele>506.8</ele>
      </trkpt>
      <trkpt lat="37.03119" lon="28.03485">
        <ele>506.5</ele>
      </trkpt>
      <trkpt lat="37.03113" lon="28.03485">
        <ele>506.4</ele>
      </trkpt>
      <trkpt lat="37.0312" lon="28.03499">
        <ele>506.7</ele>
      </trkpt>
      <trkpt lat="37.03125" lon="28.03513">
        <ele>505.1</ele>
      </trkpt>
      <trkpt lat="37.03131" lon="28.03523">
        <ele>504.6</ele>
      </trkpt>
      <trkpt lat="37.03131" lon="28.03524">
        <ele>504.6</ele>
      </trkpt>
      <trkpt lat="37.03132" lon="28.03524">
        <ele>504.6</ele>
      </trkpt>
      <trkpt lat="37.03132" lon="28.03524">
        <ele>504.6</ele>
      </trkpt>
      <trkpt lat="37.03131" lon="28.03523">
        <ele>504.6</ele>
      </trkpt>
      <trkpt lat="37.0313" lon="28.03533">
        <ele>503.2</ele>
      </trkpt>
      <trkpt lat="37.03128" lon="28.03534">
        <ele>502.6</ele>
      </trkpt>
      <trkpt lat="37.03129" lon="28.03536">
        <ele>502.7</ele>
      </trkpt>
      <trkpt lat="37.03132" lon="28.03543">
        <ele>502.5</ele>
      </trkpt>
      <trkpt lat="37.03132" lon="28.03543">
        <ele>502.5</ele>
      </trkpt>
      <trkpt lat="37.03133" lon="28.03544">
        <ele>502.4</ele>
      </trkpt>
      <trkpt lat="37.03132" lon="28.03551">
        <ele>501.5</ele>
      </trkpt>
      <trkpt lat="37.03132" lon="28.03552">
        <ele>501.4</ele>
      </trkpt>
      <trkpt lat="37.03131" lon="28.03548">
        <ele>501.6</ele>
      </trkpt>
      <trkpt lat="37.03134" lon="28.0356">
        <ele>501.1</ele>
      </trkpt>
      <trkpt lat="37.03135" lon="28.03561">
        <ele>501.1</ele>
      </trkpt>
      <trkpt lat="37.03142" lon="28.03568">
        <ele>502.6</ele>
      </trkpt>
      <trkpt lat="37.03147" lon="28.03578">
        <ele>503.8</ele>
      </trkpt>
      <trkpt lat="37.03149" lon="28.03585">
        <ele>503.9</ele>
      </trkpt>
      <trkpt lat="37.03151" lon="28.03598">
        <ele>502.2</ele>
      </trkpt>
      <trkpt lat="37.03148" lon="28.03608">
        <ele>499.3</ele>
      </trkpt>
      <trkpt lat="37.03151" lon="28.03617">
        <ele>498.8</ele>
      </trkpt>
      <trkpt lat="37.03158" lon="28.03632">
        <ele>497.9</ele>
      </trkpt>
      <trkpt lat="37.03167" lon="28.03641">
        <ele>498.5</ele>
      </trkpt>
      <trkpt lat="37.03175" lon="28.03649">
        <ele>500.6</ele>
      </trkpt>
      <trkpt lat="37.0318" lon="28.03657">
        <ele>501.5</ele>
      </trkpt>
      <trkpt lat="37.0318" lon="28.03677">
        <ele>499.4</ele>
      </trkpt>
      <trkpt lat="37.03188" lon="28.03695">
        <ele>501.7</ele>
      </trkpt>
      <trkpt lat="37.03189" lon="28.037">
        <ele>501.7</ele>
      </trkpt>
      <trkpt lat="37.03191" lon="28.03705">
        <ele>502.2</ele>
      </trkpt>
      <trkpt lat="37.03195" lon="28.03711">
        <ele>503.3</ele>
      </trkpt>
      <trkpt lat="37.032" lon="28.03721">
        <ele>504.4</ele>
      </trkpt>
      <trkpt lat="37.03206" lon="28.03728">
        <ele>505.5</ele>
      </trkpt>
      <trkpt lat="37.03207" lon="28.0373">
        <ele>505.5</ele>
      </trkpt>
      <trkpt lat="37.03211" lon="28.03737">
        <ele>506</ele>
      </trkpt>
      <trkpt lat="37.03214" lon="28.03748">
        <ele>505.3</ele>
      </trkpt>
      <trkpt lat="37.03221" lon="28.03759">
        <ele>507.3</ele>
      </trkpt>
      <trkpt lat="37.03227" lon="28.03765">
        <ele>509</ele>
      </trkpt>
      <trkpt lat="37.03234" lon="28.03782">
        <ele>510.4</ele>
      </trkpt>
      <trkpt lat="37.03235" lon="28.03786">
        <ele>510.5</ele>
      </trkpt>
      <trkpt lat="37.03242" lon="28.03798">
        <ele>511.2</ele>
      </trkpt>
      <trkpt lat="37.03242" lon="28.03796">
        <ele>511.3</ele>
      </trkpt>
      <trkpt lat="37.03247" lon="28.03806">
        <ele>511.4</ele>
      </trkpt>
      <trkpt lat="37.03245" lon="28.03819">
        <ele>510.7</ele>
      </trkpt>
      <trkpt lat="37.03243" lon="28.03829">
        <ele>510.2</ele>
      </trkpt>
      <trkpt lat="37.03247" lon="28.03844">
        <ele>510.8</ele>
      </trkpt>
      <trkpt lat="37.03249" lon="28.03847">
        <ele>511</ele>
      </trkpt>
      <trkpt lat="37.03257" lon="28.03856">
        <ele>514.6</ele>
      </trkpt>
      <trkpt lat="37.03263" lon="28.0387">
        <ele>517.6</ele>
      </trkpt>
      <trkpt lat="37.03264" lon="28.0387">
        <ele>518</ele>
      </trkpt>
      <trkpt lat="37.03271" lon="28.03882">
        <ele>520.2</ele>
      </trkpt>
      <trkpt lat="37.03274" lon="28.03893">
        <ele>520.7</ele>
      </trkpt>
      <trkpt lat="37.0328" lon="28.03899">
        <ele>522</ele>
      </trkpt>
      <trkpt lat="37.03288" lon="28.03912">
        <ele>522.4</ele>
      </trkpt>
      <trkpt lat="37.0329" lon="28.03918">
        <ele>522.1</ele>
      </trkpt>
      <trkpt lat="37.03291" lon="28.03922">
        <ele>521.6</ele>
      </trkpt>
      <trkpt lat="37.03293" lon="28.03926">
        <ele>521.2</ele>
      </trkpt>
      <trkpt lat="37.03296" lon="28.03929">
        <ele>521</ele>
      </trkpt>
      <trkpt lat="37.03303" lon="28.0394">
        <ele>519.6</ele>
      </trkpt>
      <trkpt lat="37.03307" lon="28.0395">
        <ele>517.4</ele>
      </trkpt>
      <trkpt lat="37.03307" lon="28.03951">
        <ele>517.3</ele>
      </trkpt>
      <trkpt lat="37.03311" lon="28.03959">
        <ele>515.4</ele>
      </trkpt>
      <trkpt lat="37.03312" lon="28.03959">
        <ele>515.3</ele>
      </trkpt>
      <trkpt lat="37.03315" lon="28.03975">
        <ele>511.2</ele>
      </trkpt>
      <trkpt lat="37.03322" lon="28.03984">
        <ele>507.9</ele>
      </trkpt>
      <trkpt lat="37.03327" lon="28.03995">
        <ele>503.8</ele>
      </trkpt>
      <trkpt lat="37.03334" lon="28.04003">
        <ele>500.9</ele>
      </trkpt>
      <trkpt lat="37.03339" lon="28.04015">
        <ele>500.4</ele>
      </trkpt>
      <trkpt lat="37.03345" lon="28.04025">
        <ele>500.6</ele>
      </trkpt>
      <trkpt lat="37.03349" lon="28.04036">
        <ele>499.4</ele>
      </trkpt>
      <trkpt lat="37.03355" lon="28.04046">
        <ele>498.9</ele>
      </trkpt>
      <trkpt lat="37.03359" lon="28.04062">
        <ele>496.3</ele>
      </trkpt>
      <trkpt lat="37.03359" lon="28.0407">
        <ele>494.3</ele>
      </trkpt>
      <trkpt lat="37.03365" lon="28.04076">
        <ele>494</ele>
      </trkpt>
      <trkpt lat="37.03371" lon="28.04093">
        <ele>491.1</ele>
      </trkpt>
      <trkpt lat="37.03374" lon="28.04106">
        <ele>488.4</ele>
      </trkpt>
      <trkpt lat="37.0338" lon="28.04115">
        <ele>486.9</ele>
      </trkpt>
      <trkpt lat="37.0338" lon="28.0413">
        <ele>483.2</ele>
      </trkpt>
      <trkpt lat="37.0338" lon="28.04131">
        <ele>482.9</ele>
      </trkpt>
      <trkpt lat="37.03383" lon="28.04143">
        <ele>480</ele>
      </trkpt>
      <trkpt lat="37.03381" lon="28.04148">
        <ele>478.7</ele>
      </trkpt>
      <trkpt lat="37.0338" lon="28.04153">
        <ele>477.3</ele>
      </trkpt>
      <trkpt lat="37.03383" lon="28.04156">
        <ele>476.7</ele>
      </trkpt>
      <trkpt lat="37.03377" lon="28.04161">
        <ele>475.3</ele>
      </trkpt>
      <trkpt lat="37.03382" lon="28.04175">
        <ele>472.4</ele>
      </trkpt>
      <trkpt lat="37.03388" lon="28.04185">
        <ele>470.3</ele>
      </trkpt>
      <trkpt lat="37.03397" lon="28.04191">
        <ele>469.1</ele>
      </trkpt>
      <trkpt lat="37.03404" lon="28.04204">
        <ele>466.4</ele>
      </trkpt>
      <trkpt lat="37.03405" lon="28.04206">
        <ele>466.2</ele>
      </trkpt>
      <trkpt lat="37.03407" lon="28.04221">
        <ele>463.3</ele>
      </trkpt>
      <trkpt lat="37.03402" lon="28.04239">
        <ele>460.1</ele>
      </trkpt>
      <trkpt lat="37.03401" lon="28.04241">
        <ele>459.9</ele>
      </trkpt>
      <trkpt lat="37.03402" lon="28.04255">
        <ele>457.6</ele>
      </trkpt>
      <trkpt lat="37.03402" lon="28.04265">
        <ele>456.3</ele>
      </trkpt>
      <trkpt lat="37.03402" lon="28.04276">
        <ele>455</ele>
      </trkpt>
      <trkpt lat="37.03401" lon="28.04283">
        <ele>454.1</ele>
      </trkpt>
      <trkpt lat="37.034" lon="28.0429">
        <ele>453.2</ele>
      </trkpt>
      <trkpt lat="37.03396" lon="28.04291">
        <ele>452.9</ele>
      </trkpt>
      <trkpt lat="37.03394" lon="28.04304">
        <ele>451.2</ele>
      </trkpt>
      <trkpt lat="37.03389" lon="28.04317">
        <ele>449.2</ele>
      </trkpt>
      <trkpt lat="37.03388" lon="28.04332">
        <ele>447.2</ele>
      </trkpt>
      <trkpt lat="37.03384" lon="28.04338">
        <ele>445.9</ele>
      </trkpt>
      <trkpt lat="37.0338" lon="28.04354">
        <ele>443.1</ele>
      </trkpt>
      <trkpt lat="37.0338" lon="28.04367">
        <ele>440.9</ele>
      </trkpt>
      <trkpt lat="37.0338" lon="28.04375">
        <ele>439.6</ele>
      </trkpt>
      <trkpt lat="37.0338" lon="28.0438">
        <ele>438.8</ele>
      </trkpt>
      <trkpt lat="37.03374" lon="28.04383">
        <ele>437.5</ele>
      </trkpt>
      <trkpt lat="37.03371" lon="28.04401">
        <ele>434</ele>
      </trkpt>
      <trkpt lat="37.03368" lon="28.0441">
        <ele>431.9</ele>
      </trkpt>
      <trkpt lat="37.03366" lon="28.04424">
        <ele>429.7</ele>
      </trkpt>
      <trkpt lat="37.03356" lon="28.04435">
        <ele>426.4</ele>
      </trkpt>
      <trkpt lat="37.03355" lon="28.04436">
        <ele>426.2</ele>
      </trkpt>
      <trkpt lat="37.03356" lon="28.04438">
        <ele>426</ele>
      </trkpt>
      <trkpt lat="37.03353" lon="28.04445">
        <ele>424.7</ele>
      </trkpt>
      <trkpt lat="37.03353" lon="28.04446">
        <ele>424.5</ele>
      </trkpt>
      <trkpt lat="37.03352" lon="28.04444">
        <ele>424.5</ele>
      </trkpt>
      <trkpt lat="37.03358" lon="28.04448">
        <ele>425.5</ele>
      </trkpt>
      <trkpt lat="37.03366" lon="28.04465">
        <ele>426</ele>
      </trkpt>
      <trkpt lat="37.03366" lon="28.04473">
        <ele>425.2</ele>
      </trkpt>
      <trkpt lat="37.03359" lon="28.04478">
        <ele>422.9</ele>
      </trkpt>
      <trkpt lat="37.03359" lon="28.04499">
        <ele>420.7</ele>
      </trkpt>
      <trkpt lat="37.03356" lon="28.04506">
        <ele>419.4</ele>
      </trkpt>
      <trkpt lat="37.03351" lon="28.04525">
        <ele>417</ele>
      </trkpt>
      <trkpt lat="37.03351" lon="28.04538">
        <ele>416.6</ele>
      </trkpt>
      <trkpt lat="37.03351" lon="28.04544">
        <ele>416.7</ele>
      </trkpt>
      <trkpt lat="37.03348" lon="28.04556">
        <ele>415</ele>
      </trkpt>
      <trkpt lat="37.03345" lon="28.04571">
        <ele>412.9</ele>
      </trkpt>
      <trkpt lat="37.0335" lon="28.0457">
        <ele>415.6</ele>
      </trkpt>
      <trkpt lat="37.03357" lon="28.04572">
        <ele>418.8</ele>
      </trkpt>
      <trkpt lat="37.03359" lon="28.04572">
        <ele>419.6</ele>
      </trkpt>
      <trkpt lat="37.03362" lon="28.04582">
        <ele>420.6</ele>
      </trkpt>
      <trkpt lat="37.03362" lon="28.0459">
        <ele>420.8</ele>
      </trkpt>
      <trkpt lat="37.03358" lon="28.04604">
        <ele>419.6</ele>
      </trkpt>
      <trkpt lat="37.03357" lon="28.04607">
        <ele>418.9</ele>
      </trkpt>
      <trkpt lat="37.03357" lon="28.04608">
        <ele>419.1</ele>
      </trkpt>
      <trkpt lat="37.03356" lon="28.0462">
        <ele>418.8</ele>
      </trkpt>
      <trkpt lat="37.03356" lon="28.04631">
        <ele>418.9</ele>
      </trkpt>
      <trkpt lat="37.03356" lon="28.04645">
        <ele>419.4</ele>
      </trkpt>
      <trkpt lat="37.03359" lon="28.04654">
        <ele>421.2</ele>
      </trkpt>
      <trkpt lat="37.03362" lon="28.04666">
        <ele>422.9</ele>
      </trkpt>
      <trkpt lat="37.0336" lon="28.04666">
        <ele>421.9</ele>
      </trkpt>
      <trkpt lat="37.0335" lon="28.04661">
        <ele>417.2</ele>
      </trkpt>
      <trkpt lat="37.03341" lon="28.04649">
        <ele>412.3</ele>
      </trkpt>
      <trkpt lat="37.03341" lon="28.0465">
        <ele>412.3</ele>
      </trkpt>
      <trkpt lat="37.03341" lon="28.04652">
        <ele>412.6</ele>
      </trkpt>
      <trkpt lat="37.03336" lon="28.04647">
        <ele>409.6</ele>
      </trkpt>
      <trkpt lat="37.03333" lon="28.04651">
        <ele>408.6</ele>
      </trkpt>
      <trkpt lat="37.0333" lon="28.04664">
        <ele>408.4</ele>
      </trkpt>
      <trkpt lat="37.03329" lon="28.04687">
        <ele>408.8</ele>
      </trkpt>
      <trkpt lat="37.0333" lon="28.0471">
        <ele>409.6</ele>
      </trkpt>
      <trkpt lat="37.03333" lon="28.04735">
        <ele>410.5</ele>
      </trkpt>
      <trkpt lat="37.03339" lon="28.04755">
        <ele>412.9</ele>
      </trkpt>
      <trkpt lat="37.03349" lon="28.04779">
        <ele>414.5</ele>
      </trkpt>
      <trkpt lat="37.03361" lon="28.04798">
        <ele>416.9</ele>
      </trkpt>
      <trkpt lat="37.03369" lon="28.04815">
        <ele>418.2</ele>
      </trkpt>
      <trkpt lat="37.03381" lon="28.0484">
        <ele>419.5</ele>
      </trkpt>
      <trkpt lat="37.03385" lon="28.04857">
        <ele>417.6</ele>
      </trkpt>
      <trkpt lat="37.03394" lon="28.04875">
        <ele>417.2</ele>
      </trkpt>
      <trkpt lat="37.034" lon="28.04897">
        <ele>415</ele>
      </trkpt>
      <trkpt lat="37.03405" lon="28.04908">
        <ele>415.1</ele>
      </trkpt>
      <trkpt lat="37.03416" lon="28.04914">
        <ele>418.3</ele>
      </trkpt>
      <trkpt lat="37.03429" lon="28.04923">
        <ele>417.2</ele>
      </trkpt>
      <trkpt lat="37.03444" lon="28.04933">
        <ele>416.2</ele>
      </trkpt>
      <trkpt lat="37.03456" lon="28.04949">
        <ele>413.6</ele>
      </trkpt>
      <trkpt lat="37.03457" lon="28.04957">
        <ele>411.9</ele>
      </trkpt>
      <trkpt lat="37.03458" lon="28.04959">
        <ele>411.5</ele>
      </trkpt>
      <trkpt lat="37.03458" lon="28.04956">
        <ele>412.2</ele>
      </trkpt>
      <trkpt lat="37.03469" lon="28.04967">
        <ele>411.2</ele>
      </trkpt>
      <trkpt lat="37.03481" lon="28.04962">
        <ele>413.6</ele>
      </trkpt>
      <trkpt lat="37.03495" lon="28.04945">
        <ele>418.4</ele>
      </trkpt>
      <trkpt lat="37.03497" lon="28.04941">
        <ele>419.3</ele>
      </trkpt>
      <trkpt lat="37.03497" lon="28.04939">
        <ele>419.8</ele>
      </trkpt>
      <trkpt lat="37.035" lon="28.04939">
        <ele>420</ele>
      </trkpt>
      <trkpt lat="37.03493" lon="28.04957">
        <ele>416</ele>
      </trkpt>
      <trkpt lat="37.03492" lon="28.04956">
        <ele>416.1</ele>
      </trkpt>
      <trkpt lat="37.03488" lon="28.04969">
        <ele>413</ele>
      </trkpt>
      <trkpt lat="37.03486" lon="28.04975">
        <ele>411.6</ele>
      </trkpt>
      <trkpt lat="37.03486" lon="28.04976">
        <ele>411.6</ele>
      </trkpt>
      <trkpt lat="37.03488" lon="28.04976">
        <ele>411.6</ele>
      </trkpt>
      <trkpt lat="37.03482" lon="28.04981">
        <ele>409.9</ele>
      </trkpt>
      <trkpt lat="37.03473" lon="28.04989">
        <ele>407</ele>
      </trkpt>
      <trkpt lat="37.03467" lon="28.0499">
        <ele>406</ele>
      </trkpt>
      <trkpt lat="37.03463" lon="28.04988">
        <ele>405.9</ele>
      </trkpt>
      <trkpt lat="37.03457" lon="28.04993">
        <ele>403.9</ele>
      </trkpt>
      <trkpt lat="37.03454" lon="28.04997">
        <ele>402.5</ele>
      </trkpt>
      <trkpt lat="37.03453" lon="28.04998">
        <ele>402.2</ele>
      </trkpt>
      <trkpt lat="37.03446" lon="28.04998">
        <ele>401.1</ele>
      </trkpt>
      <trkpt lat="37.03443" lon="28.04992">
        <ele>402</ele>
      </trkpt>
      <trkpt lat="37.03444" lon="28.04982">
        <ele>404.5</ele>
      </trkpt>
      <trkpt lat="37.03442" lon="28.04966">
        <ele>408.1</ele>
      </trkpt>
      <trkpt lat="37.0344" lon="28.04966">
        <ele>407.9</ele>
      </trkpt>
      <trkpt lat="37.03438" lon="28.04978">
        <ele>404.7</ele>
      </trkpt>
      <trkpt lat="37.03434" lon="28.04973">
        <ele>405.4</ele>
      </trkpt>
      <trkpt lat="37.0343" lon="28.04965">
        <ele>406.8</ele>
      </trkpt>
      <trkpt lat="37.03423" lon="28.04958">
        <ele>407.8</ele>
      </trkpt>
      <trkpt lat="37.03414" lon="28.04948">
        <ele>408.4</ele>
      </trkpt>
      <trkpt lat="37.03411" lon="28.04953">
        <ele>405.4</ele>
      </trkpt>
      <trkpt lat="37.03416" lon="28.04961">
        <ele>406.1</ele>
      </trkpt>
      <trkpt lat="37.03413" lon="28.04968">
        <ele>402.5</ele>
      </trkpt>
      <trkpt lat="37.03405" lon="28.04963">
        <ele>400.1</ele>
      </trkpt>
      <trkpt lat="37.03397" lon="28.04958">
        <ele>397.3</ele>
      </trkpt>
      <trkpt lat="37.03384" lon="28.04957">
        <ele>390.9</ele>
      </trkpt>
      <trkpt lat="37.03383" lon="28.04957">
        <ele>390.8</ele>
      </trkpt>
      <trkpt lat="37.0338" lon="28.04954">
        <ele>390</ele>
      </trkpt>
      <trkpt lat="37.03374" lon="28.04942">
        <ele>391</ele>
      </trkpt>
      <trkpt lat="37.0337" lon="28.04933">
        <ele>392.2</ele>
      </trkpt>
      <trkpt lat="37.0337" lon="28.04933">
        <ele>392.3</ele>
      </trkpt>
      <trkpt lat="37.03368" lon="28.04925">
        <ele>393.7</ele>
      </trkpt>
      <trkpt lat="37.03362" lon="28.0492">
        <ele>392.6</ele>
      </trkpt>
      <trkpt lat="37.03357" lon="28.04915">
        <ele>391.6</ele>
      </trkpt>
      <trkpt lat="37.0335" lon="28.04907">
        <ele>390.7</ele>
      </trkpt>
      <trkpt lat="37.03346" lon="28.04905">
        <ele>389.4</ele>
      </trkpt>
      <trkpt lat="37.03335" lon="28.049">
        <ele>385.5</ele>
      </trkpt>
      <trkpt lat="37.03333" lon="28.04898">
        <ele>385.2</ele>
      </trkpt>
      <trkpt lat="37.03323" lon="28.04905">
        <ele>382.5</ele>
      </trkpt>
      <trkpt lat="37.03317" lon="28.04915">
        <ele>379.3</ele>
      </trkpt>
      <trkpt lat="37.03316" lon="28.04917">
        <ele>378.6</ele>
      </trkpt>
      <trkpt lat="37.03311" lon="28.04924">
        <ele>375.4</ele>
      </trkpt>
      <trkpt lat="37.03303" lon="28.04938">
        <ele>368.9</ele>
      </trkpt>
      <trkpt lat="37.03295" lon="28.0495">
        <ele>363.3</ele>
      </trkpt>
      <trkpt lat="37.033" lon="28.04952">
        <ele>363.5</ele>
      </trkpt>
      <trkpt lat="37.03303" lon="28.04951">
        <ele>364</ele>
      </trkpt>
      <trkpt lat="37.03305" lon="28.04952">
        <ele>363.9</ele>
      </trkpt>
      <trkpt lat="37.03303" lon="28.0496">
        <ele>360.8</ele>
      </trkpt>
      <trkpt lat="37.03309" lon="28.04968">
        <ele>358.7</ele>
      </trkpt>
      <trkpt lat="37.03314" lon="28.04967">
        <ele>359.6</ele>
      </trkpt>
      <trkpt lat="37.03314" lon="28.04971">
        <ele>358.2</ele>
      </trkpt>
      <trkpt lat="37.03309" lon="28.04981">
        <ele>353.5</ele>
      </trkpt>
      <trkpt lat="37.0331" lon="28.04982">
        <ele>353.4</ele>
      </trkpt>
      <trkpt lat="37.03323" lon="28.04983">
        <ele>354.8</ele>
      </trkpt>
      <trkpt lat="37.03327" lon="28.04983">
        <ele>355.5</ele>
      </trkpt>
      <trkpt lat="37.03339" lon="28.04986">
        <ele>358</ele>
      </trkpt>
      <trkpt lat="37.03347" lon="28.04994">
        <ele>359.6</ele>
      </trkpt>
      <trkpt lat="37.03349" lon="28.04998">
        <ele>359.5</ele>
      </trkpt>
      <trkpt lat="37.03354" lon="28.05006">
        <ele>359.4</ele>
      </trkpt>
      <trkpt lat="37.03353" lon="28.05016">
        <ele>355.3</ele>
      </trkpt>
      <trkpt lat="37.03356" lon="28.05022">
        <ele>354.6</ele>
      </trkpt>
      <trkpt lat="37.03358" lon="28.05034">
        <ele>352.3</ele>
      </trkpt>
      <trkpt lat="37.03355" lon="28.0504">
        <ele>348.3</ele>
      </trkpt>
      <trkpt lat="37.03353" lon="28.05043">
        <ele>345.8</ele>
      </trkpt>
      <trkpt lat="37.03349" lon="28.05055">
        <ele>339.5</ele>
      </trkpt>
      <trkpt lat="37.03357" lon="28.05063">
        <ele>341.1</ele>
      </trkpt>
      <trkpt lat="37.03357" lon="28.05068">
        <ele>339.6</ele>
      </trkpt>
      <trkpt lat="37.03356" lon="28.05078">
        <ele>335.4</ele>
      </trkpt>
      <trkpt lat="37.03357" lon="28.05088">
        <ele>332.9</ele>
      </trkpt>
      <trkpt lat="37.03366" lon="28.05104">
        <ele>333.5</ele>
      </trkpt>
      <trkpt lat="37.03367" lon="28.0511">
        <ele>332.5</ele>
      </trkpt>
      <trkpt lat="37.03368" lon="28.05112">
        <ele>331.9</ele>
      </trkpt>
      <trkpt lat="37.03371" lon="28.05127">
        <ele>329.5</ele>
      </trkpt>
      <trkpt lat="37.0338" lon="28.05143">
        <ele>329.1</ele>
      </trkpt>
      <trkpt lat="37.03387" lon="28.05158">
        <ele>328.1</ele>
      </trkpt>
      <trkpt lat="37.03394" lon="28.05171">
        <ele>328</ele>
      </trkpt>
      <trkpt lat="37.03397" lon="28.05185">
        <ele>325.2</ele>
      </trkpt>
      <trkpt lat="37.034" lon="28.05192">
        <ele>324.4</ele>
      </trkpt>
      <trkpt lat="37.03399" lon="28.05198">
        <ele>322.2</ele>
      </trkpt>
      <trkpt lat="37.03405" lon="28.05214">
        <ele>319.9</ele>
      </trkpt>
      <trkpt lat="37.03405" lon="28.05216">
        <ele>319</ele>
      </trkpt>
      <trkpt lat="37.03415" lon="28.05234">
        <ele>317.1</ele>
      </trkpt>
      <trkpt lat="37.03417" lon="28.05239">
        <ele>316.4</ele>
      </trkpt>
      <trkpt lat="37.03418" lon="28.05243">
        <ele>315.7</ele>
      </trkpt>
      <trkpt lat="37.0342" lon="28.05252">
        <ele>313.8</ele>
      </trkpt>
      <trkpt lat="37.03423" lon="28.05253">
        <ele>315.5</ele>
      </trkpt>
      <trkpt lat="37.03424" lon="28.05264">
        <ele>313.9</ele>
      </trkpt>
      <trkpt lat="37.0343" lon="28.05285">
        <ele>312.1</ele>
      </trkpt>
      <trkpt lat="37.0344" lon="28.05304">
        <ele>314.7</ele>
      </trkpt>
      <trkpt lat="37.0345" lon="28.05319">
        <ele>318.1</ele>
      </trkpt>
      <trkpt lat="37.03451" lon="28.05321">
        <ele>318.5</ele>
      </trkpt>
      <trkpt lat="37.0346" lon="28.05333">
        <ele>322.6</ele>
      </trkpt>
      <trkpt lat="37.03467" lon="28.05339">
        <ele>326.1</ele>
      </trkpt>
      <trkpt lat="37.03469" lon="28.05342">
        <ele>326.5</ele>
      </trkpt>
      <trkpt lat="37.03475" lon="28.05344">
        <ele>330.4</ele>
      </trkpt>
      <trkpt lat="37.03478" lon="28.05344">
        <ele>332.3</ele>
      </trkpt>
      <trkpt lat="37.03478" lon="28.05349">
        <ele>330.5</ele>
      </trkpt>
      <trkpt lat="37.03482" lon="28.0535">
        <ele>332.9</ele>
      </trkpt>
      <trkpt lat="37.03484" lon="28.05354">
        <ele>332.4</ele>
      </trkpt>
      <trkpt lat="37.03481" lon="28.05356">
        <ele>329.4</ele>
      </trkpt>
      <trkpt lat="37.03476" lon="28.0536">
        <ele>325.1</ele>
      </trkpt>
      <trkpt lat="37.03479" lon="28.05362">
        <ele>325.9</ele>
      </trkpt>
      <trkpt lat="37.03486" lon="28.05369">
        <ele>327.2</ele>
      </trkpt>
      <trkpt lat="37.03488" lon="28.0538">
        <ele>323.4</ele>
      </trkpt>
      <trkpt lat="37.0349" lon="28.054">
        <ele>314.6</ele>
      </trkpt>
      <trkpt lat="37.03495" lon="28.05419">
        <ele>308.2</ele>
      </trkpt>
      <trkpt lat="37.03497" lon="28.05433">
        <ele>307.4</ele>
      </trkpt>
      <trkpt lat="37.03501" lon="28.05454">
        <ele>306.4</ele>
      </trkpt>
      <trkpt lat="37.03502" lon="28.05484">
        <ele>304.2</ele>
      </trkpt>
      <trkpt lat="37.03505" lon="28.05507">
        <ele>304.2</ele>
      </trkpt>
      <trkpt lat="37.03503" lon="28.05538">
        <ele>303.5</ele>
      </trkpt>
      <trkpt lat="37.03502" lon="28.05558">
        <ele>303.6</ele>
      </trkpt>
      <trkpt lat="37.03502" lon="28.05582">
        <ele>303.7</ele>
      </trkpt>
      <trkpt lat="37.03501" lon="28.05584">
        <ele>303.4</ele>
      </trkpt>
      <trkpt lat="37.03495" lon="28.05591">
        <ele>303.1</ele>
      </trkpt>
      <trkpt lat="37.03484" lon="28.05599">
        <ele>303.6</ele>
      </trkpt>
      <trkpt lat="37.03479" lon="28.05616">
        <ele>304.2</ele>
      </trkpt>
      <trkpt lat="37.03482" lon="28.05633">
        <ele>304</ele>
      </trkpt>
      <trkpt lat="37.03485" lon="28.05637">
        <ele>303.7</ele>
      </trkpt>
      <trkpt lat="37.03488" lon="28.05644">
        <ele>303.3</ele>
      </trkpt>
      <trkpt lat="37.0349" lon="28.05654">
        <ele>302.9</ele>
      </trkpt>
      <trkpt lat="37.035" lon="28.05683">
        <ele>302.3</ele>
      </trkpt>
      <trkpt lat="37.03512" lon="28.05704">
        <ele>304.8</ele>
      </trkpt>
      <trkpt lat="37.03515" lon="28.05715">
        <ele>305.2</ele>
      </trkpt>
      <trkpt lat="37.03522" lon="28.05731">
        <ele>305.2</ele>
      </trkpt>
      <trkpt lat="37.03535" lon="28.05751">
        <ele>303.5</ele>
      </trkpt>
      <trkpt lat="37.03536" lon="28.05753">
        <ele>303.3</ele>
      </trkpt>
      <trkpt lat="37.03542" lon="28.05761">
        <ele>302.6</ele>
      </trkpt>
      <trkpt lat="37.03549" lon="28.05773">
        <ele>301.5</ele>
      </trkpt>
      <trkpt lat="37.0355" lon="28.05774">
        <ele>301.4</ele>
      </trkpt>
      <trkpt lat="37.03557" lon="28.05783">
        <ele>300.2</ele>
      </trkpt>
      <trkpt lat="37.03571" lon="28.05804">
        <ele>297</ele>
      </trkpt>
      <trkpt lat="37.03581" lon="28.05823">
        <ele>294</ele>
      </trkpt>
      <trkpt lat="37.03594" lon="28.0585">
        <ele>294.3</ele>
      </trkpt>
      <trkpt lat="37.03607" lon="28.05868">
        <ele>294.4</ele>
      </trkpt>
      <trkpt lat="37.03617" lon="28.05896">
        <ele>293.2</ele>
      </trkpt>
      <trkpt lat="37.03622" lon="28.05912">
        <ele>291.8</ele>
      </trkpt>
      <trkpt lat="37.03632" lon="28.05937">
        <ele>289.2</ele>
      </trkpt>
      <trkpt lat="37.03632" lon="28.05963">
        <ele>288.5</ele>
      </trkpt>
      <trkpt lat="37.03631" lon="28.05971">
        <ele>288.6</ele>
      </trkpt>
      <trkpt lat="37.03628" lon="28.05979">
        <ele>288.8</ele>
      </trkpt>
      <trkpt lat="37.03628" lon="28.05986">
        <ele>288.8</ele>
      </trkpt>
      <trkpt lat="37.03627" lon="28.05998">
        <ele>288.7</ele>
      </trkpt>
      <trkpt lat="37.03623" lon="28.0601">
        <ele>289.1</ele>
      </trkpt>
      <trkpt lat="37.0362" lon="28.06023">
        <ele>289.1</ele>
      </trkpt>
      <trkpt lat="37.03619" lon="28.06036">
        <ele>289</ele>
      </trkpt>
      <trkpt lat="37.0361" lon="28.06055">
        <ele>289.8</ele>
      </trkpt>
      <trkpt lat="37.03604" lon="28.0607">
        <ele>290.2</ele>
      </trkpt>
      <trkpt lat="37.03598" lon="28.06089">
        <ele>290.7</ele>
      </trkpt>
      <trkpt lat="37.03597" lon="28.06095">
        <ele>290.9</ele>
      </trkpt>
      <trkpt lat="37.03593" lon="28.06103">
        <ele>291.6</ele>
      </trkpt>
      <trkpt lat="37.03591" lon="28.06113">
        <ele>291.9</ele>
      </trkpt>
      <trkpt lat="37.03591" lon="28.06112">
        <ele>292</ele>
      </trkpt>
      <trkpt lat="37.03591" lon="28.06118">
        <ele>292</ele>
      </trkpt>
      <trkpt lat="37.03591" lon="28.06132">
        <ele>292.1</ele>
      </trkpt>
      <trkpt lat="37.03583" lon="28.06149">
        <ele>293.2</ele>
      </trkpt>
      <trkpt lat="37.03566" lon="28.06157">
        <ele>296.7</ele>
      </trkpt>
      <trkpt lat="37.03559" lon="28.06161">
        <ele>298</ele>
      </trkpt>
      <trkpt lat="37.03546" lon="28.06164">
        <ele>300.3</ele>
      </trkpt>
      <trkpt lat="37.03539" lon="28.06177">
        <ele>302.1</ele>
      </trkpt>
      <trkpt lat="37.03529" lon="28.0619">
        <ele>304.4</ele>
      </trkpt>
      <trkpt lat="37.0352" lon="28.06209">
        <ele>306.3</ele>
      </trkpt>
      <trkpt lat="37.03516" lon="28.06214">
        <ele>306.8</ele>
      </trkpt>
      <trkpt lat="37.03505" lon="28.06228">
        <ele>307.9</ele>
      </trkpt>
      <trkpt lat="37.03502" lon="28.0623">
        <ele>308.1</ele>
      </trkpt>
      <trkpt lat="37.0349" lon="28.06251">
        <ele>310.4</ele>
      </trkpt>
      <trkpt lat="37.03481" lon="28.06263">
        <ele>313.6</ele>
      </trkpt>
      <trkpt lat="37.03472" lon="28.06275">
        <ele>316.4</ele>
      </trkpt>
      <trkpt lat="37.0347" lon="28.06278">
        <ele>317.1</ele>
      </trkpt>
      <trkpt lat="37.03468" lon="28.0628">
        <ele>317.6</ele>
      </trkpt>
      <trkpt lat="37.03464" lon="28.06287">
        <ele>318.9</ele>
      </trkpt>
      <trkpt lat="37.0346" lon="28.06293">
        <ele>319.9</ele>
      </trkpt>
      <trkpt lat="37.03457" lon="28.06296">
        <ele>320.5</ele>
      </trkpt>
      <trkpt lat="37.03449" lon="28.0631">
        <ele>322.4</ele>
      </trkpt>
      <trkpt lat="37.0344" lon="28.06315">
        <ele>323.6</ele>
      </trkpt>
      <trkpt lat="37.03437" lon="28.06316">
        <ele>324</ele>
      </trkpt>
      <trkpt lat="37.03432" lon="28.06327">
        <ele>324.7</ele>
      </trkpt>
      <trkpt lat="37.03426" lon="28.06339">
        <ele>325.7</ele>
      </trkpt>
      <trkpt lat="37.03416" lon="28.06356">
        <ele>327.2</ele>
      </trkpt>
      <trkpt lat="37.03414" lon="28.0636">
        <ele>327.6</ele>
      </trkpt>
      <trkpt lat="37.03411" lon="28.06368">
        <ele>328.3</ele>
      </trkpt>
      <trkpt lat="37.03405" lon="28.06379">
        <ele>329.3</ele>
      </trkpt>
      <trkpt lat="37.03397" lon="28.06395">
        <ele>330.3</ele>
      </trkpt>
      <trkpt lat="37.03388" lon="28.06413">
        <ele>331</ele>
      </trkpt>
      <trkpt lat="37.03381" lon="28.06428">
        <ele>331.4</ele>
      </trkpt>
      <trkpt lat="37.03373" lon="28.06449">
        <ele>331.5</ele>
      </trkpt>
      <trkpt lat="37.03373" lon="28.0645">
        <ele>331.5</ele>
      </trkpt>
      <trkpt lat="37.03368" lon="28.06451">
        <ele>331.5</ele>
      </trkpt>
      <trkpt lat="37.03371" lon="28.06459">
        <ele>331.4</ele>
      </trkpt>
      <trkpt lat="37.03372" lon="28.06466">
        <ele>331.4</ele>
      </trkpt>
      <trkpt lat="37.03372" lon="28.06479">
        <ele>331.4</ele>
      </trkpt>
      <trkpt lat="37.03376" lon="28.06497">
        <ele>331.5</ele>
      </trkpt>
      <trkpt lat="37.03374" lon="28.06518">
        <ele>331.2</ele>
      </trkpt>
      <trkpt lat="37.03374" lon="28.06537">
        <ele>331</ele>
      </trkpt>
      <trkpt lat="37.03373" lon="28.06556">
        <ele>330.6</ele>
      </trkpt>
      <trkpt lat="37.03371" lon="28.0658">
        <ele>330.2</ele>
      </trkpt>
      <trkpt lat="37.03371" lon="28.06587">
        <ele>330.1</ele>
      </trkpt>
      <trkpt lat="37.0337" lon="28.06586">
        <ele>330</ele>
      </trkpt>
      <trkpt lat="37.03374" lon="28.06605">
        <ele>330.4</ele>
      </trkpt>
      <trkpt lat="37.0338" lon="28.06623">
        <ele>330.9</ele>
      </trkpt>
      <trkpt lat="37.03378" lon="28.06645">
        <ele>330.8</ele>
      </trkpt>
      <trkpt lat="37.03378" lon="28.06667">
        <ele>330.8</ele>
      </trkpt>
      <trkpt lat="37.03378" lon="28.06666">
        <ele>330.8</ele>
      </trkpt>
      <trkpt lat="37.03379" lon="28.06676">
        <ele>330.6</ele>
      </trkpt>
      <trkpt lat="37.03379" lon="28.06676">
        <ele>330.7</ele>
      </trkpt>
      <trkpt lat="37.0338" lon="28.06685">
        <ele>330.6</ele>
      </trkpt>
      <trkpt lat="37.03374" lon="28.06703">
        <ele>329.7</ele>
      </trkpt>
      <trkpt lat="37.03371" lon="28.06714">
        <ele>329.4</ele>
      </trkpt>
      <trkpt lat="37.03371" lon="28.06718">
        <ele>329.2</ele>
      </trkpt>
      <trkpt lat="37.03373" lon="28.06725">
        <ele>329.3</ele>
      </trkpt>
      <trkpt lat="37.03381" lon="28.06739">
        <ele>329.7</ele>
      </trkpt>
      <trkpt lat="37.03383" lon="28.06755">
        <ele>329.3</ele>
      </trkpt>
      <trkpt lat="37.03381" lon="28.0677">
        <ele>328.2</ele>
      </trkpt>
      <trkpt lat="37.03386" lon="28.06797">
        <ele>326.9</ele>
      </trkpt>
      <trkpt lat="37.03387" lon="28.06805">
        <ele>326.4</ele>
      </trkpt>
      <trkpt lat="37.0339" lon="28.06809">
        <ele>326.2</ele>
      </trkpt>
      <trkpt lat="37.0339" lon="28.06816">
        <ele>325.8</ele>
      </trkpt>
      <trkpt lat="37.03389" lon="28.06822">
        <ele>325.4</ele>
      </trkpt>
      <trkpt lat="37.0339" lon="28.06836">
        <ele>324.5</ele>
      </trkpt>
      <trkpt lat="37.03393" lon="28.06855">
        <ele>323.4</ele>
      </trkpt>
      <trkpt lat="37.03395" lon="28.06859">
        <ele>323.2</ele>
      </trkpt>
      <trkpt lat="37.03399" lon="28.06877">
        <ele>322.1</ele>
      </trkpt>
      <trkpt lat="37.03399" lon="28.06877">
        <ele>322.1</ele>
      </trkpt>
      <trkpt lat="37.03397" lon="28.06883">
        <ele>321.7</ele>
      </trkpt>
      <trkpt lat="37.03394" lon="28.06894">
        <ele>321.1</ele>
      </trkpt>
      <trkpt lat="37.03398" lon="28.0691">
        <ele>320.1</ele>
      </trkpt>
      <trkpt lat="37.03404" lon="28.0693">
        <ele>318.2</ele>
      </trkpt>
      <trkpt lat="37.03409" lon="28.06935">
        <ele>317.5</ele>
      </trkpt>
      <trkpt lat="37.03413" lon="28.06941">
        <ele>316.8</ele>
      </trkpt>
      <trkpt lat="37.03415" lon="28.06959">
        <ele>315.1</ele>
      </trkpt>
      <trkpt lat="37.03414" lon="28.06971">
        <ele>313.9</ele>
      </trkpt>
      <trkpt lat="37.03415" lon="28.06986">
        <ele>312.4</ele>
      </trkpt>
      <trkpt lat="37.03415" lon="28.07001">
        <ele>311</ele>
      </trkpt>
      <trkpt lat="37.03418" lon="28.07018">
        <ele>309.4</ele>
      </trkpt>
      <trkpt lat="37.03421" lon="28.07028">
        <ele>308.7</ele>
      </trkpt>
      <trkpt lat="37.03421" lon="28.07042">
        <ele>307.3</ele>
      </trkpt>
      <trkpt lat="37.03422" lon="28.07045">
        <ele>307.1</ele>
      </trkpt>
      <trkpt lat="37.03424" lon="28.07056">
        <ele>306.2</ele>
      </trkpt>
      <trkpt lat="37.0342" lon="28.07064">
        <ele>304.6</ele>
      </trkpt>
      <trkpt lat="37.03415" lon="28.07074">
        <ele>303.1</ele>
      </trkpt>
      <trkpt lat="37.03412" lon="28.07078">
        <ele>302.9</ele>
      </trkpt>
      <trkpt lat="37.03409" lon="28.07082">
        <ele>302.7</ele>
      </trkpt>
      <trkpt lat="37.03408" lon="28.07084">
        <ele>302.6</ele>
      </trkpt>
      <trkpt lat="37.03408" lon="28.07085">
        <ele>302.5</ele>
      </trkpt>
      <trkpt lat="37.03409" lon="28.07093">
        <ele>301.6</ele>
      </trkpt>
      <trkpt lat="37.03413" lon="28.07109">
        <ele>299.9</ele>
      </trkpt>
      <trkpt lat="37.03412" lon="28.07112">
        <ele>299.6</ele>
      </trkpt>
      <trkpt lat="37.03412" lon="28.07122">
        <ele>298.6</ele>
      </trkpt>
      <trkpt lat="37.03413" lon="28.07128">
        <ele>298</ele>
      </trkpt>
      <trkpt lat="37.03414" lon="28.07144">
        <ele>296.4</ele>
      </trkpt>
      <trkpt lat="37.03413" lon="28.07153">
        <ele>295.6</ele>
      </trkpt>
      <trkpt lat="37.03409" lon="28.07171">
        <ele>294.5</ele>
      </trkpt>
      <trkpt lat="37.03407" lon="28.07187">
        <ele>294.1</ele>
      </trkpt>
      <trkpt lat="37.03404" lon="28.07202">
        <ele>293.6</ele>
      </trkpt>
      <trkpt lat="37.03397" lon="28.07219">
        <ele>293.5</ele>
      </trkpt>
      <trkpt lat="37.03395" lon="28.07224">
        <ele>293.4</ele>
      </trkpt>
      <trkpt lat="37.03396" lon="28.0723">
        <ele>293</ele>
      </trkpt>
      <trkpt lat="37.03396" lon="28.0723">
        <ele>293</ele>
      </trkpt>
      <trkpt lat="37.03394" lon="28.07233">
        <ele>293.1</ele>
      </trkpt>
      <trkpt lat="37.03392" lon="28.07236">
        <ele>293.1</ele>
      </trkpt>
      <trkpt lat="37.03393" lon="28.07235">
        <ele>293.1</ele>
      </trkpt>
      <trkpt lat="37.03388" lon="28.07249">
        <ele>292.8</ele>
      </trkpt>
      <trkpt lat="37.03385" lon="28.07262">
        <ele>292.9</ele>
      </trkpt>
      <trkpt lat="37.03379" lon="28.07272">
        <ele>293</ele>
      </trkpt>
      <trkpt lat="37.03378" lon="28.07278">
        <ele>293</ele>
      </trkpt>
      <trkpt lat="37.03372" lon="28.07294">
        <ele>292.7</ele>
      </trkpt>
      <trkpt lat="37.03367" lon="28.07319">
        <ele>291.9</ele>
      </trkpt>
      <trkpt lat="37.03366" lon="28.07326">
        <ele>291.6</ele>
      </trkpt>
      <trkpt lat="37.03363" lon="28.07341">
        <ele>291.3</ele>
      </trkpt>
      <trkpt lat="37.03361" lon="28.07354">
        <ele>291.3</ele>
      </trkpt>
      <trkpt lat="37.03358" lon="28.07363">
        <ele>291</ele>
      </trkpt>
      <trkpt lat="37.03352" lon="28.07385">
        <ele>290.3</ele>
      </trkpt>
      <trkpt lat="37.0335" lon="28.07407">
        <ele>289.9</ele>
      </trkpt>
      <trkpt lat="37.03351" lon="28.07414">
        <ele>290.1</ele>
      </trkpt>
      <trkpt lat="37.03351" lon="28.0742">
        <ele>290</ele>
      </trkpt>
      <trkpt lat="37.03352" lon="28.07423">
        <ele>290.1</ele>
      </trkpt>
      <trkpt lat="37.03358" lon="28.07442">
        <ele>291</ele>
      </trkpt>
      <trkpt lat="37.03358" lon="28.07445">
        <ele>290.8</ele>
      </trkpt>
      <trkpt lat="37.03357" lon="28.07464">
        <ele>290.1</ele>
      </trkpt>
      <trkpt lat="37.03356" lon="28.07471">
        <ele>289.7</ele>
      </trkpt>
      <trkpt lat="37.03354" lon="28.07478">
        <ele>289</ele>
      </trkpt>
      <trkpt lat="37.03351" lon="28.07484">
        <ele>288.1</ele>
      </trkpt>
      <trkpt lat="37.03352" lon="28.07493">
        <ele>288</ele>
      </trkpt>
      <trkpt lat="37.03351" lon="28.07499">
        <ele>287.4</ele>
      </trkpt>
      <trkpt lat="37.03352" lon="28.07513">
        <ele>286.8</ele>
      </trkpt>
      <trkpt lat="37.03352" lon="28.07521">
        <ele>286.3</ele>
      </trkpt>
      <trkpt lat="37.03352" lon="28.07534">
        <ele>285.6</ele>
      </trkpt>
      <trkpt lat="37.03346" lon="28.07547">
        <ele>282.5</ele>
      </trkpt>
      <trkpt lat="37.03338" lon="28.07562">
        <ele>279.2</ele>
      </trkpt>
      <trkpt lat="37.03333" lon="28.07568">
        <ele>277</ele>
      </trkpt>
      <trkpt lat="37.03332" lon="28.0757">
        <ele>276.9</ele>
      </trkpt>
      <trkpt lat="37.03326" lon="28.07579">
        <ele>275.8</ele>
      </trkpt>
      <trkpt lat="37.03325" lon="28.07588">
        <ele>275</ele>
      </trkpt>
      <trkpt lat="37.03319" lon="28.07595">
        <ele>274</ele>
      </trkpt>
      <trkpt lat="37.03318" lon="28.07597">
        <ele>273.7</ele>
      </trkpt>
      <trkpt lat="37.03314" lon="28.07603">
        <ele>272.8</ele>
      </trkpt>
      <trkpt lat="37.03314" lon="28.07603">
        <ele>272.9</ele>
      </trkpt>
      <trkpt lat="37.03311" lon="28.07604">
        <ele>272.5</ele>
      </trkpt>
      <trkpt lat="37.03314" lon="28.07609">
        <ele>272.3</ele>
      </trkpt>
      <trkpt lat="37.03315" lon="28.07615">
        <ele>271.8</ele>
      </trkpt>
      <trkpt lat="37.0332" lon="28.07625">
        <ele>271.5</ele>
      </trkpt>
      <trkpt lat="37.03314" lon="28.07634">
        <ele>270.2</ele>
      </trkpt>
      <trkpt lat="37.03313" lon="28.07639">
        <ele>269.6</ele>
      </trkpt>
      <trkpt lat="37.03311" lon="28.07646">
        <ele>268.7</ele>
      </trkpt>
      <trkpt lat="37.03312" lon="28.07652">
        <ele>268.2</ele>
      </trkpt>
      <trkpt lat="37.03318" lon="28.07653">
        <ele>268.9</ele>
      </trkpt>
      <trkpt lat="37.03318" lon="28.07653">
        <ele>269</ele>
      </trkpt>
      <trkpt lat="37.03316" lon="28.07658">
        <ele>268.3</ele>
      </trkpt>
      <trkpt lat="37.03321" lon="28.07665">
        <ele>268.4</ele>
      </trkpt>
      <trkpt lat="37.03318" lon="28.07679">
        <ele>266</ele>
      </trkpt>
      <trkpt lat="37.03322" lon="28.07693">
        <ele>264.5</ele>
      </trkpt>
      <trkpt lat="37.03321" lon="28.07701">
        <ele>263.3</ele>
      </trkpt>
      <trkpt lat="37.03307" lon="28.07705">
        <ele>260.6</ele>
      </trkpt>
      <trkpt lat="37.03302" lon="28.07711">
        <ele>258.8</ele>
      </trkpt>
      <trkpt lat="37.03295" lon="28.07711">
        <ele>257.8</ele>
      </trkpt>
      <trkpt lat="37.03288" lon="28.07709">
        <ele>257.1</ele>
      </trkpt>
      <trkpt lat="37.03289" lon="28.07718">
        <ele>255.9</ele>
      </trkpt>
      <trkpt lat="37.03291" lon="28.0773">
        <ele>254.4</ele>
      </trkpt>
      <trkpt lat="37.03295" lon="28.07743">
        <ele>253</ele>
      </trkpt>
      <trkpt lat="37.03293" lon="28.07745">
        <ele>252.5</ele>
      </trkpt>
      <trkpt lat="37.03297" lon="28.07755">
        <ele>251.3</ele>
      </trkpt>
      <trkpt lat="37.03288" lon="28.07762">
        <ele>248.5</ele>
      </trkpt>
      <trkpt lat="37.03288" lon="28.07773">
        <ele>246.4</ele>
      </trkpt>
      <trkpt lat="37.03292" lon="28.07778">
        <ele>246.2</ele>
      </trkpt>
      <trkpt lat="37.03287" lon="28.07784">
        <ele>244.1</ele>
      </trkpt>
      <trkpt lat="37.03288" lon="28.07785">
        <ele>244.1</ele>
      </trkpt>
      <trkpt lat="37.03287" lon="28.0779">
        <ele>242.8</ele>
      </trkpt>
      <trkpt lat="37.03284" lon="28.07798">
        <ele>240.7</ele>
      </trkpt>
      <trkpt lat="37.03286" lon="28.07802">
        <ele>240.4</ele>
      </trkpt>
      <trkpt lat="37.03286" lon="28.07807">
        <ele>239.4</ele>
      </trkpt>
      <trkpt lat="37.03289" lon="28.07813">
        <ele>238.7</ele>
      </trkpt>
      <trkpt lat="37.0329" lon="28.07819">
        <ele>237.8</ele>
      </trkpt>
      <trkpt lat="37.03294" lon="28.07831">
        <ele>236.5</ele>
      </trkpt>
      <trkpt lat="37.03297" lon="28.07834">
        <ele>236.5</ele>
      </trkpt>
      <trkpt lat="37.03299" lon="28.07835">
        <ele>236.8</ele>
      </trkpt>
      <trkpt lat="37.03302" lon="28.07849">
        <ele>234.7</ele>
      </trkpt>
      <trkpt lat="37.03305" lon="28.07856">
        <ele>234.2</ele>
      </trkpt>
      <trkpt lat="37.03306" lon="28.07861">
        <ele>233.2</ele>
      </trkpt>
      <trkpt lat="37.0331" lon="28.07872">
        <ele>232.3</ele>
      </trkpt>
      <trkpt lat="37.03307" lon="28.07879">
        <ele>230.1</ele>
      </trkpt>
      <trkpt lat="37.03313" lon="28.07886">
        <ele>230.1</ele>
      </trkpt>
      <trkpt lat="37.03314" lon="28.07897">
        <ele>228.2</ele>
      </trkpt>
      <trkpt lat="37.03313" lon="28.07903">
        <ele>226.8</ele>
      </trkpt>
      <trkpt lat="37.03314" lon="28.07909">
        <ele>225.7</ele>
      </trkpt>
      <trkpt lat="37.03315" lon="28.07919">
        <ele>224.3</ele>
      </trkpt>
      <trkpt lat="37.03319" lon="28.07932">
        <ele>222.8</ele>
      </trkpt>
      <trkpt lat="37.03323" lon="28.07943">
        <ele>221.5</ele>
      </trkpt>
      <trkpt lat="37.03329" lon="28.07953">
        <ele>220.9</ele>
      </trkpt>
      <trkpt lat="37.03331" lon="28.07961">
        <ele>219.8</ele>
      </trkpt>
      <trkpt lat="37.03331" lon="28.07973">
        <ele>217.6</ele>
      </trkpt>
      <trkpt lat="37.0333" lon="28.0798">
        <ele>216.2</ele>
      </trkpt>
      <trkpt lat="37.03328" lon="28.07984">
        <ele>214.7</ele>
      </trkpt>
      <trkpt lat="37.03328" lon="28.07995">
        <ele>212.7</ele>
      </trkpt>
      <trkpt lat="37.03328" lon="28.08006">
        <ele>211</ele>
      </trkpt>
      <trkpt lat="37.03333" lon="28.08017">
        <ele>210.5</ele>
      </trkpt>
      <trkpt lat="37.03327" lon="28.0803">
        <ele>207.2</ele>
      </trkpt>
      <trkpt lat="37.03327" lon="28.08037">
        <ele>206.3</ele>
      </trkpt>
      <trkpt lat="37.03325" lon="28.08043">
        <ele>205</ele>
      </trkpt>
      <trkpt lat="37.03326" lon="28.08052">
        <ele>203.9</ele>
      </trkpt>
      <trkpt lat="37.03326" lon="28.08066">
        <ele>201.8</ele>
      </trkpt>
      <trkpt lat="37.03326" lon="28.08075">
        <ele>200.5</ele>
      </trkpt>
      <trkpt lat="37.03325" lon="28.08075">
        <ele>200.2</ele>
      </trkpt>
      <trkpt lat="37.03324" lon="28.08076">
        <ele>199.8</ele>
      </trkpt>
      <trkpt lat="37.03324" lon="28.08081">
        <ele>199.2</ele>
      </trkpt>
      <trkpt lat="37.03319" lon="28.08089">
        <ele>196.9</ele>
      </trkpt>
      <trkpt lat="37.03321" lon="28.08098">
        <ele>196.2</ele>
      </trkpt>
      <trkpt lat="37.03318" lon="28.08107">
        <ele>194.5</ele>
      </trkpt>
      <trkpt lat="37.03316" lon="28.08114">
        <ele>193</ele>
      </trkpt>
      <trkpt lat="37.03316" lon="28.08115">
        <ele>192.9</ele>
      </trkpt>
      <trkpt lat="37.03314" lon="28.08125">
        <ele>191</ele>
      </trkpt>
      <trkpt lat="37.03315" lon="28.08126">
        <ele>191.2</ele>
      </trkpt>
      <trkpt lat="37.03314" lon="28.08132">
        <ele>190.2</ele>
      </trkpt>
      <trkpt lat="37.03311" lon="28.08144">
        <ele>188</ele>
      </trkpt>
      <trkpt lat="37.03301" lon="28.08153">
        <ele>184.5</ele>
      </trkpt>
      <trkpt lat="37.03299" lon="28.08156">
        <ele>183.5</ele>
      </trkpt>
      <trkpt lat="37.03296" lon="28.08164">
        <ele>181.9</ele>
      </trkpt>
      <trkpt lat="37.03292" lon="28.08172">
        <ele>179.8</ele>
      </trkpt>
      <trkpt lat="37.03284" lon="28.08178">
        <ele>177.5</ele>
      </trkpt>
      <trkpt lat="37.03284" lon="28.08178">
        <ele>177.4</ele>
      </trkpt>
      <trkpt lat="37.03287" lon="28.08181">
        <ele>177.7</ele>
      </trkpt>
      <trkpt lat="37.03286" lon="28.0819">
        <ele>176.3</ele>
      </trkpt>
      <trkpt lat="37.03284" lon="28.08199">
        <ele>174.8</ele>
      </trkpt>
      <trkpt lat="37.03281" lon="28.082">
        <ele>174.1</ele>
      </trkpt>
      <trkpt lat="37.03279" lon="28.08201">
        <ele>173.5</ele>
      </trkpt>
      <trkpt lat="37.03277" lon="28.08202">
        <ele>173</ele>
      </trkpt>
      <trkpt lat="37.03272" lon="28.08196">
        <ele>172.4</ele>
      </trkpt>
      <trkpt lat="37.03269" lon="28.08199">
        <ele>171.4</ele>
      </trkpt>
      <trkpt lat="37.0327" lon="28.08215">
        <ele>169.7</ele>
      </trkpt>
      <trkpt lat="37.03276" lon="28.08227">
        <ele>169.7</ele>
      </trkpt>
      <trkpt lat="37.03277" lon="28.08231">
        <ele>169.5</ele>
      </trkpt>
      <trkpt lat="37.03278" lon="28.08248">
        <ele>167.5</ele>
      </trkpt>
      <trkpt lat="37.0328" lon="28.0826">
        <ele>166.3</ele>
      </trkpt>
      <trkpt lat="37.03281" lon="28.08269">
        <ele>165.1</ele>
      </trkpt>
      <trkpt lat="37.03289" lon="28.08289">
        <ele>163.7</ele>
      </trkpt>
      <trkpt lat="37.03291" lon="28.08297">
        <ele>162.6</ele>
      </trkpt>
      <trkpt lat="37.03293" lon="28.08298">
        <ele>163</ele>
      </trkpt>
      <trkpt lat="37.03295" lon="28.08306">
        <ele>162.1</ele>
      </trkpt>
      <trkpt lat="37.0329" lon="28.08318">
        <ele>159.1</ele>
      </trkpt>
      <trkpt lat="37.03285" lon="28.08324">
        <ele>157.1</ele>
      </trkpt>
      <trkpt lat="37.03283" lon="28.08332">
        <ele>155.6</ele>
      </trkpt>
      <trkpt lat="37.03284" lon="28.08335">
        <ele>155.2</ele>
      </trkpt>
      <trkpt lat="37.03291" lon="28.0835">
        <ele>154.6</ele>
      </trkpt>
      <trkpt lat="37.03292" lon="28.08356">
        <ele>153.9</ele>
      </trkpt>
      <trkpt lat="37.03291" lon="28.08369">
        <ele>152</ele>
      </trkpt>
      <trkpt lat="37.03288" lon="28.08382">
        <ele>149.7</ele>
      </trkpt>
      <trkpt lat="37.03279" lon="28.08394">
        <ele>146.7</ele>
      </trkpt>
      <trkpt lat="37.03273" lon="28.08402">
        <ele>144.8</ele>
      </trkpt>
      <trkpt lat="37.03268" lon="28.08411">
        <ele>143</ele>
      </trkpt>
      <trkpt lat="37.03259" lon="28.08425">
        <ele>140</ele>
      </trkpt>
      <trkpt lat="37.03257" lon="28.08426">
        <ele>139.5</ele>
      </trkpt>
      <trkpt lat="37.03255" lon="28.08428">
        <ele>139.1</ele>
      </trkpt>
      <trkpt lat="37.03252" lon="28.08432">
        <ele>138.1</ele>
      </trkpt>
      <trkpt lat="37.03246" lon="28.08438">
        <ele>136.7</ele>
      </trkpt>
      <trkpt lat="37.03244" lon="28.08441">
        <ele>136.2</ele>
      </trkpt>
      <trkpt lat="37.03241" lon="28.08444">
        <ele>135.6</ele>
      </trkpt>
      <trkpt lat="37.0324" lon="28.08445">
        <ele>135.4</ele>
      </trkpt>
      <trkpt lat="37.03233" lon="28.08456">
        <ele>133.6</ele>
      </trkpt>
      <trkpt lat="37.03224" lon="28.08467">
        <ele>131.6</ele>
      </trkpt>
      <trkpt lat="37.03218" lon="28.08477">
        <ele>129.9</ele>
      </trkpt>
      <trkpt lat="37.03216" lon="28.08497">
        <ele>127.1</ele>
      </trkpt>
      <trkpt lat="37.03217" lon="28.08513">
        <ele>124.5</ele>
      </trkpt>
      <trkpt lat="37.03216" lon="28.08523">
        <ele>122.5</ele>
      </trkpt>
      <trkpt lat="37.03216" lon="28.08533">
        <ele>120.7</ele>
      </trkpt>
      <trkpt lat="37.03207" lon="28.08551">
        <ele>117</ele>
      </trkpt>
      <trkpt lat="37.03199" lon="28.08563">
        <ele>114.5</ele>
      </trkpt>
      <trkpt lat="37.03196" lon="28.08573">
        <ele>112.4</ele>
      </trkpt>
      <trkpt lat="37.03194" lon="28.08586">
        <ele>109.9</ele>
      </trkpt>
      <trkpt lat="37.03188" lon="28.08598">
        <ele>107.5</ele>
      </trkpt>
      <trkpt lat="37.03189" lon="28.086">
        <ele>107.3</ele>
      </trkpt>
      <trkpt lat="37.03184" lon="28.08608">
        <ele>105.4</ele>
      </trkpt>
      <trkpt lat="37.03181" lon="28.08619">
        <ele>103.2</ele>
      </trkpt>
      <trkpt lat="37.03185" lon="28.08626">
        <ele>102.3</ele>
      </trkpt>
      <trkpt lat="37.0318" lon="28.08637">
        <ele>100</ele>
      </trkpt>
      <trkpt lat="37.03168" lon="28.08644">
        <ele>97.5</ele>
      </trkpt>
      <trkpt lat="37.03156" lon="28.08648">
        <ele>95.2</ele>
      </trkpt>
      <trkpt lat="37.03141" lon="28.08651">
        <ele>92.5</ele>
      </trkpt>
      <trkpt lat="37.03139" lon="28.0865">
        <ele>92.4</ele>
      </trkpt>
      <trkpt lat="37.03128" lon="28.08641">
        <ele>92.4</ele>
      </trkpt>
      <trkpt lat="37.03111" lon="28.08637">
        <ele>90.9</ele>
      </trkpt>
      <trkpt lat="37.03107" lon="28.08634">
        <ele>90.9</ele>
      </trkpt>
      <trkpt lat="37.03107" lon="28.08633">
        <ele>91.1</ele>
      </trkpt>
      <trkpt lat="37.03094" lon="28.08632">
        <ele>89.6</ele>
      </trkpt>
      <trkpt lat="37.03081" lon="28.08644">
        <ele>85.1</ele>
      </trkpt>
      <trkpt lat="37.0307" lon="28.08654">
        <ele>80.8</ele>
      </trkpt>
      <trkpt lat="37.0306" lon="28.08667">
        <ele>76.1</ele>
      </trkpt>
      <trkpt lat="37.03056" lon="28.08678">
        <ele>73.6</ele>
      </trkpt>
      <trkpt lat="37.03053" lon="28.08687">
        <ele>71.7</ele>
      </trkpt>
      <trkpt lat="37.03057" lon="28.08691">
        <ele>71.6</ele>
      </trkpt>
      <trkpt lat="37.03049" lon="28.08708">
        <ele>67.4</ele>
      </trkpt>
      <trkpt lat="37.03048" lon="28.0871">
        <ele>67</ele>
      </trkpt>
      <trkpt lat="37.03039" lon="28.08704">
        <ele>66.3</ele>
      </trkpt>
      <trkpt lat="37.03042" lon="28.08709">
        <ele>66</ele>
      </trkpt>
      <trkpt lat="37.03042" lon="28.08711">
        <ele>65.6</ele>
      </trkpt>
      <trkpt lat="37.03037" lon="28.08724">
        <ele>62.6</ele>
      </trkpt>
      <trkpt lat="37.03028" lon="28.08738">
        <ele>58.7</ele>
      </trkpt>
      <trkpt lat="37.0302" lon="28.08753">
        <ele>55.4</ele>
      </trkpt>
      <trkpt lat="37.03008" lon="28.08772">
        <ele>52.4</ele>
      </trkpt>
      <trkpt lat="37.03001" lon="28.08781">
        <ele>51.1</ele>
      </trkpt>
      <trkpt lat="37.02998" lon="28.0879">
        <ele>49.7</ele>
      </trkpt>
      <trkpt lat="37.02996" lon="28.08805">
        <ele>48.4</ele>
      </trkpt>
      <trkpt lat="37.02999" lon="28.08822">
        <ele>49.2</ele>
      </trkpt>
      <trkpt lat="37.03003" lon="28.08837">
        <ele>49.3</ele>
      </trkpt>
      <trkpt lat="37.03001" lon="28.08856">
        <ele>49.1</ele>
      </trkpt>
      <trkpt lat="37.02994" lon="28.08881">
        <ele>46.9</ele>
      </trkpt>
      <trkpt lat="37.02988" lon="28.08908">
        <ele>45.3</ele>
      </trkpt>
      <trkpt lat="37.02984" lon="28.08927">
        <ele>46.1</ele>
      </trkpt>
      <trkpt lat="37.02975" lon="28.08949">
        <ele>47.5</ele>
      </trkpt>
      <trkpt lat="37.02973" lon="28.08953">
        <ele>47.8</ele>
      </trkpt>
      <trkpt lat="37.02973" lon="28.08974">
        <ele>51.5</ele>
      </trkpt>
      <trkpt lat="37.02965" lon="28.08992">
        <ele>53.1</ele>
      </trkpt>
      <trkpt lat="37.02947" lon="28.09">
        <ele>51.5</ele>
      </trkpt>
      <trkpt lat="37.0293" lon="28.09003">
        <ele>48.7</ele>
      </trkpt>
      <trkpt lat="37.02915" lon="28.09014">
        <ele>46.6</ele>
      </trkpt>
      <trkpt lat="37.02914" lon="28.09014">
        <ele>46.2</ele>
      </trkpt>
      <trkpt lat="37.02896" lon="28.09026">
        <ele>41.5</ele>
      </trkpt>
      <trkpt lat="37.02883" lon="28.0904">
        <ele>38.7</ele>
      </trkpt>
      <trkpt lat="37.02867" lon="28.09056">
        <ele>36</ele>
      </trkpt>
      <trkpt lat="37.02858" lon="28.09071">
        <ele>35.7</ele>
      </trkpt>
      <trkpt lat="37.02847" lon="28.09085">
        <ele>34.8</ele>
      </trkpt>
      <trkpt lat="37.02834" lon="28.09105">
        <ele>34.5</ele>
      </trkpt>
      <trkpt lat="37.02828" lon="28.09129">
        <ele>37.2</ele>
      </trkpt>
      <trkpt lat="37.02821" lon="28.09149">
        <ele>39.6</ele>
      </trkpt>
      <trkpt lat="37.02809" lon="28.09171">
        <ele>42</ele>
      </trkpt>
      <trkpt lat="37.02806" lon="28.09196">
        <ele>45</ele>
      </trkpt>
      <trkpt lat="37.0281" lon="28.09222">
        <ele>48.7</ele>
      </trkpt>
      <trkpt lat="37.02816" lon="28.09241">
        <ele>51.1</ele>
      </trkpt>
      <trkpt lat="37.02833" lon="28.09258">
        <ele>52.7</ele>
      </trkpt>
      <trkpt lat="37.02846" lon="28.09271">
        <ele>53.1</ele>
      </trkpt>
      <trkpt lat="37.02859" lon="28.09293">
        <ele>54</ele>
      </trkpt>
      <trkpt lat="37.02866" lon="28.09306">
        <ele>54.6</ele>
      </trkpt>
      <trkpt lat="37.02876" lon="28.09315">
        <ele>54.6</ele>
      </trkpt>
      <trkpt lat="37.02885" lon="28.09332">
        <ele>55.2</ele>
      </trkpt>
      <trkpt lat="37.02887" lon="28.09335">
        <ele>55</ele>
      </trkpt>
      <trkpt lat="37.0289" lon="28.09342">
        <ele>54.2</ele>
      </trkpt>
      <trkpt lat="37.02893" lon="28.0936">
        <ele>52.6</ele>
      </trkpt>
      <trkpt lat="37.02894" lon="28.09377">
        <ele>51.3</ele>
      </trkpt>
      <trkpt lat="37.02894" lon="28.0938">
        <ele>51</ele>
      </trkpt>
      <trkpt lat="37.02891" lon="28.09399">
        <ele>49.5</ele>
      </trkpt>
      <trkpt lat="37.02889" lon="28.09419">
        <ele>47.7</ele>
      </trkpt>
      <trkpt lat="37.02888" lon="28.09436">
        <ele>44.6</ele>
      </trkpt>
      <trkpt lat="37.02886" lon="28.09456">
        <ele>40.7</ele>
      </trkpt>
      <trkpt lat="37.02888" lon="28.09476">
        <ele>37.2</ele>
      </trkpt>
      <trkpt lat="37.02893" lon="28.09499">
        <ele>33.7</ele>
      </trkpt>
      <trkpt lat="37.02893" lon="28.09512">
        <ele>31.5</ele>
      </trkpt>
      <trkpt lat="37.02895" lon="28.09533">
        <ele>28.4</ele>
      </trkpt>
      <trkpt lat="37.029" lon="28.09553">
        <ele>25.6</ele>
      </trkpt>
      <trkpt lat="37.02907" lon="28.09566">
        <ele>24.1</ele>
      </trkpt>
      <trkpt lat="37.02909" lon="28.0957">
        <ele>23.5</ele>
      </trkpt>
      <trkpt lat="37.02917" lon="28.0959">
        <ele>20.8</ele>
      </trkpt>
      <trkpt lat="37.02925" lon="28.09604">
        <ele>18.8</ele>
      </trkpt>
      <trkpt lat="37.02933" lon="28.09613">
        <ele>17.4</ele>
      </trkpt>
      <trkpt lat="37.02933" lon="28.09616">
        <ele>17</ele>
      </trkpt>
      <trkpt lat="37.02937" lon="28.09627">
        <ele>15.1</ele>
      </trkpt>
      <trkpt lat="37.02942" lon="28.09645">
        <ele>12.1</ele>
      </trkpt>
      <trkpt lat="37.02943" lon="28.09651">
        <ele>11</ele>
      </trkpt>
      <trkpt lat="37.02944" lon="28.09665">
        <ele>8.6</ele>
      </trkpt>
      <trkpt lat="37.02944" lon="28.09665">
        <ele>8.6</ele>
      </trkpt>
      <trkpt lat="37.02944" lon="28.09665">
        <ele>8.6</ele>
      </trkpt>
      <trkpt lat="37.02944" lon="28.09665">
        <ele>8.6</ele>
      </trkpt>
      <trkpt lat="37.02944" lon="28.09664">
        <ele>8.7</ele>
      </trkpt>
      <trkpt lat="37.02945" lon="28.09664">
        <ele>8.9</ele>
      </trkpt>
      <trkpt lat="37.02946" lon="28.09664">
        <ele>8.9</ele>
      </trkpt>
      <trkpt lat="37.02946" lon="28.09664">
        <ele>8.9</ele>
      </trkpt>
      <trkpt lat="37.02947" lon="28.09664">
        <ele>8.8</ele>
      </trkpt>
      <trkpt lat="37.02953" lon="28.09688">
        <ele>6.8</ele>
      </trkpt>
      <trkpt lat="37.02959" lon="28.09711">
        <ele>5.1</ele>
      </trkpt>
      <trkpt lat="37.02958" lon="28.0974">
        <ele>2.8</ele>
      </trkpt>
      <trkpt lat="37.02958" lon="28.0974">
        <ele>2.8</ele>
      </trkpt>
      <trkpt lat="37.02958" lon="28.0974">
        <ele>2.8</ele>
      </trkpt>
      <trkpt lat="37.0296" lon="28.09739">
        <ele>2.9</ele>
      </trkpt>
      <trkpt lat="37.03011" lon="28.09749">
        <ele>2.2</ele>
      </trkpt>
      <trkpt lat="37.0304" lon="28.09761">
        <ele>2.48</ele>
      </trkpt>
      <trkpt lat="37.03119" lon="28.09782">
        <ele>2</ele>
      </trkpt>
      <trkpt lat="37.03182" lon="28.09813">
        <ele>1.2</ele>
      </trkpt>
      <trkpt lat="37.03206" lon="28.09823">
        <ele>1.1</ele>
      </trkpt>
      <trkpt lat="37.03236" lon="28.0983">
        <ele>1</ele>
      </trkpt>
      <trkpt lat="37.0327" lon="28.09847">
        <ele>1</ele>
      </trkpt>
      <trkpt lat="37.03268" lon="28.09864">
        <ele>1</ele>
      </trkpt>
      <trkpt lat="37.03268" lon="28.09863">
        <ele>1</ele>
      </trkpt>
      <trkpt lat="37.03269" lon="28.09862">
        <ele>1</ele>
      </trkpt>
      <trkpt lat="37.0327" lon="28.09864">
        <ele>1</ele>
      </trkpt>
      <trkpt lat="37.03274" lon="28.09866">
        <ele>1</ele>
      </trkpt>
      <trkpt lat="37.03283" lon="28.09871">
        <ele>1</ele>
      </trkpt>
      <trkpt lat="37.0329" lon="28.09875">
        <ele>1</ele>
      </trkpt>
      <trkpt lat="37.03298" lon="28.09882">
        <ele>1</ele>
      </trkpt>
      <trkpt lat="37.03306" lon="28.09887">
        <ele>1</ele>
      </trkpt>
      <trkpt lat="37.03315" lon="28.09893">
        <ele>1</ele>
      </trkpt>
      <trkpt lat="37.03321" lon="28.09898">
        <ele>1</ele>
      </trkpt>
      <trkpt lat="37.03327" lon="28.09901">
        <ele>1</ele>
      </trkpt>
      <trkpt lat="37.03334" lon="28.09907">
        <ele>1</ele>
      </trkpt>
      <trkpt lat="37.03342" lon="28.09914">
        <ele>1.2</ele>
      </trkpt>
      <trkpt lat="37.0335" lon="28.09921">
        <ele>1.4</ele>
      </trkpt>
      <trkpt lat="37.03356" lon="28.09926">
        <ele>1.6</ele>
      </trkpt>
      <trkpt lat="37.03363" lon="28.09926">
        <ele>1.8</ele>
      </trkpt>
      <trkpt lat="37.03371" lon="28.09923">
        <ele>1.9</ele>
      </trkpt>
      <trkpt lat="37.0338" lon="28.09927">
        <ele>2.1</ele>
      </trkpt>
      <trkpt lat="37.03388" lon="28.09933">
        <ele>2.3</ele>
      </trkpt>
      <trkpt lat="37.03396" lon="28.09939">
        <ele>2.4</ele>
      </trkpt>
      <trkpt lat="37.03402" lon="28.09947">
        <ele>2.4</ele>
      </trkpt>
      <trkpt lat="37.03407" lon="28.09957">
        <ele>2.4</ele>
      </trkpt>
      <trkpt lat="37.03413" lon="28.09966">
        <ele>2.4</ele>
      </trkpt>
      <trkpt lat="37.0342" lon="28.09974">
        <ele>2.6</ele>
      </trkpt>
      <trkpt lat="37.03426" lon="28.09982">
        <ele>3.1</ele>
      </trkpt>
      <trkpt lat="37.03433" lon="28.09991">
        <ele>3.6</ele>
      </trkpt>
      <trkpt lat="37.03439" lon="28.09999">
        <ele>4.1</ele>
      </trkpt>
      <trkpt lat="37.03444" lon="28.10004">
        <ele>4.6</ele>
      </trkpt>
      <trkpt lat="37.03489" lon="28.10024">
        <ele>8.9</ele>
      </trkpt>
      <trkpt lat="37.03498" lon="28.10021">
        <ele>9.8</ele>
      </trkpt>
      <trkpt lat="37.03507" lon="28.10021">
        <ele>10.8</ele>
      </trkpt>
      <trkpt lat="37.03516" lon="28.1002">
        <ele>11.9</ele>
      </trkpt>
      <trkpt lat="37.03526" lon="28.10019">
        <ele>13.1</ele>
      </trkpt>
      <trkpt lat="37.03535" lon="28.10019">
        <ele>14.2</ele>
      </trkpt>
      <trkpt lat="37.03544" lon="28.10018">
        <ele>15.3</ele>
      </trkpt>
      <trkpt lat="37.03554" lon="28.10018">
        <ele>16.5</ele>
      </trkpt>
      <trkpt lat="37.03564" lon="28.10018">
        <ele>17.7</ele>
      </trkpt>
      <trkpt lat="37.03574" lon="28.10018">
        <ele>18.9</ele>
      </trkpt>
      <trkpt lat="37.03584" lon="28.10018">
        <ele>20.1</ele>
      </trkpt>
      <trkpt lat="37.03593" lon="28.10019">
        <ele>21.5</ele>
      </trkpt>
      <trkpt lat="37.03603" lon="28.1002">
        <ele>22.9</ele>
      </trkpt>
      <trkpt lat="37.03613" lon="28.10021">
        <ele>24.4</ele>
      </trkpt>
      <trkpt lat="37.03623" lon="28.10021">
        <ele>25.8</ele>
      </trkpt>
      <trkpt lat="37.03632" lon="28.10023">
        <ele>27.2</ele>
      </trkpt>
      <trkpt lat="37.03642" lon="28.10024">
        <ele>28.6</ele>
      </trkpt>
      <trkpt lat="37.03651" lon="28.10026">
        <ele>30</ele>
      </trkpt>
      <trkpt lat="37.0366" lon="28.10029">
        <ele>31.4</ele>
      </trkpt>
      <trkpt lat="37.0367" lon="28.10031">
        <ele>32.8</ele>
      </trkpt>
      <trkpt lat="37.0368" lon="28.10032">
        <ele>34</ele>
      </trkpt>
      <trkpt lat="37.0369" lon="28.10033">
        <ele>35.2</ele>
      </trkpt>
      <trkpt lat="37.03699" lon="28.10035">
        <ele>36.4</ele>
      </trkpt>
      <trkpt lat="37.03708" lon="28.10036">
        <ele>37.6</ele>
      </trkpt>
      <trkpt lat="37.03718" lon="28.10038">
        <ele>38.8</ele>
      </trkpt>
      <trkpt lat="37.03728" lon="28.10039">
        <ele>40.1</ele>
      </trkpt>
      <trkpt lat="37.03737" lon="28.1004">
        <ele>41.3</ele>
      </trkpt>
      <trkpt lat="37.03746" lon="28.10042">
        <ele>42.5</ele>
      </trkpt>
      <trkpt lat="37.03755" lon="28.10042">
        <ele>43.7</ele>
      </trkpt>
      <trkpt lat="37.03758" lon="28.10033">
        <ele>43.6</ele>
      </trkpt>
      <trkpt lat="37.03761" lon="28.10022">
        <ele>43.6</ele>
      </trkpt>
      <trkpt lat="37.03763" lon="28.1001">
        <ele>43.3</ele>
      </trkpt>
      <trkpt lat="37.03765" lon="28.09998">
        <ele>43</ele>
      </trkpt>
      <trkpt lat="37.03766" lon="28.09985">
        <ele>42.7</ele>
      </trkpt>
      <trkpt lat="37.03768" lon="28.09973">
        <ele>42.5</ele>
      </trkpt>
      <trkpt lat="37.0377" lon="28.09963">
        <ele>42.3</ele>
      </trkpt>
      <trkpt lat="37.03773" lon="28.09952">
        <ele>42.2</ele>
      </trkpt>
      <trkpt lat="37.03777" lon="28.09942">
        <ele>42.4</ele>
      </trkpt>
      <trkpt lat="37.03782" lon="28.0993">
        <ele>42.4</ele>
      </trkpt>
      <trkpt lat="37.03787" lon="28.09921">
        <ele>42.7</ele>
      </trkpt>
      <trkpt lat="37.03793" lon="28.09912">
        <ele>42.8</ele>
      </trkpt>
      <trkpt lat="37.03799" lon="28.09903">
        <ele>43</ele>
      </trkpt>
      <trkpt lat="37.03801" lon="28.09897">
        <ele>42.9</ele>
      </trkpt>
      <trkpt lat="37.03797" lon="28.09896">
        <ele>42.2</ele>
      </trkpt>
      <trkpt lat="37.03796" lon="28.09894">
        <ele>42.1</ele>
      </trkpt>
      <trkpt lat="37.03798" lon="28.09894">
        <ele>42.2</ele>
      </trkpt>
      <trkpt lat="37.03798" lon="28.09894">
        <ele>42.2</ele>
      </trkpt>
      <trkpt lat="37.03798" lon="28.09894">
        <ele>42.2</ele>
      </trkpt>
      <trkpt lat="37.03798" lon="28.09894">
        <ele>42.2</ele>
      </trkpt>
      <trkpt lat="37.03798" lon="28.09894">
        <ele>42.2</ele>
      </trkpt>
      <trkpt lat="37.03798" lon="28.09894">
        <ele>42.2</ele>
      </trkpt>
      <trkpt lat="37.03798" lon="28.09894">
        <ele>42.2</ele>
      </trkpt>
      <trkpt lat="37.03798" lon="28.09894">
        <ele>42.2</ele>
      </trkpt>
      <trkpt lat="37.03798" lon="28.09894">
        <ele>42.2</ele>
      </trkpt>
      <trkpt lat="37.03798" lon="28.09894">
        <ele>42.2</ele>
      </trkpt>
      <trkpt lat="37.03798" lon="28.09894">
        <ele>42.2</ele>
      </trkpt>
      <trkpt lat="37.03798" lon="28.09894">
        <ele>42.2</ele>
      </trkpt>
      <trkpt lat="37.03798" lon="28.09894">
        <ele>42.2</ele>
      </trkpt>
      <trkpt lat="37.03798" lon="28.09894">
        <ele>42.2</ele>
      </trkpt>
      <trkpt lat="37.03798" lon="28.09894">
        <ele>42.2</ele>
      </trkpt>
      <trkpt lat="37.03798" lon="28.09894">
        <ele>42.2</ele>
      </trkpt>
      <trkpt lat="37.03798" lon="28.09894">
        <ele>42.2</ele>
      </trkpt>
      <trkpt lat="37.03798" lon="28.09894">
        <ele>42.2</ele>
      </trkpt>
      <trkpt lat="37.03798" lon="28.09894">
        <ele>42.2</ele>
      </trkpt>
      <trkpt lat="37.03798" lon="28.09894">
        <ele>42.2</ele>
      </trkpt>
      <trkpt lat="37.03798" lon="28.09894">
        <ele>42.2</ele>
      </trkpt>
      <trkpt lat="37.03798" lon="28.09894">
        <ele>42.2</ele>
      </trkpt>
      <trkpt lat="37.03798" lon="28.09894">
        <ele>42.2</ele>
      </trkpt>
      <trkpt lat="37.03798" lon="28.09894">
        <ele>42.2</ele>
      </trkpt>
      <trkpt lat="37.03798" lon="28.09894">
        <ele>42.2</ele>
      </trkpt>
      <trkpt lat="37.03798" lon="28.09894">
        <ele>42.2</ele>
      </trkpt>
      <trkpt lat="37.03798" lon="28.09894">
        <ele>42.2</ele>
      </trkpt>
      <trkpt lat="37.03798" lon="28.09894">
        <ele>42.2</ele>
      </trkpt>
      <trkpt lat="37.03798" lon="28.09894">
        <ele>42.2</ele>
      </trkpt>
      <trkpt lat="37.03798" lon="28.09894">
        <ele>42.2</ele>
      </trkpt>
      <trkpt lat="37.03798" lon="28.09894">
        <ele>42.2</ele>
      </trkpt>
      <trkpt lat="37.03798" lon="28.09894">
        <ele>42.2</ele>
      </trkpt>
      <trkpt lat="37.03798" lon="28.09894">
        <ele>42.2</ele>
      </trkpt>
      <trkpt lat="37.03798" lon="28.09894">
        <ele>42.2</ele>
      </trkpt>
      <trkpt lat="37.03798" lon="28.09894">
        <ele>42.2</ele>
      </trkpt>
      <trkpt lat="37.03798" lon="28.09894">
        <ele>42.2</ele>
      </trkpt>
      <trkpt lat="37.03798" lon="28.09894">
        <ele>42.2</ele>
      </trkpt>
      <trkpt lat="37.03798" lon="28.09893">
        <ele>42.2</ele>
      </trkpt>
      <trkpt lat="37.03801" lon="28.09894">
        <ele>42.7</ele>
      </trkpt>
      <trkpt lat="37.03801" lon="28.09894">
        <ele>42.7</ele>
      </trkpt>
      <trkpt lat="37.03801" lon="28.09894">
        <ele>42.7</ele>
      </trkpt>
      <trkpt lat="37.03801" lon="28.09894">
        <ele>42.7</ele>
      </trkpt>
      <trkpt lat="37.03808" lon="28.09887">
        <ele>43.1</ele>
      </trkpt>
      <trkpt lat="37.03815" lon="28.09879">
        <ele>43.5</ele>
      </trkpt>
      <trkpt lat="37.03823" lon="28.09872">
        <ele>43.9</ele>
      </trkpt>
      <trkpt lat="37.03832" lon="28.09868">
        <ele>44.8</ele>
      </trkpt>
      <trkpt lat="37.0384" lon="28.09864">
        <ele>45.8</ele>
      </trkpt>
      <trkpt lat="37.03848" lon="28.09858">
        <ele>46.6</ele>
      </trkpt>
      <trkpt lat="37.03856" lon="28.09852">
        <ele>47.4</ele>
      </trkpt>
      <trkpt lat="37.03866" lon="28.09851">
        <ele>48.6</ele>
      </trkpt>
      <trkpt lat="37.03876" lon="28.09849">
        <ele>49.8</ele>
      </trkpt>
      <trkpt lat="37.03885" lon="28.09845">
        <ele>50.8</ele>
      </trkpt>
      <trkpt lat="37.03894" lon="28.09841">
        <ele>51.6</ele>
      </trkpt>
      <trkpt lat="37.03903" lon="28.09839">
        <ele>52.8</ele>
      </trkpt>
      <trkpt lat="37.03911" lon="28.09832">
        <ele>53.2</ele>
      </trkpt>
      <trkpt lat="37.03914" lon="28.0982">
        <ele>53</ele>
      </trkpt>
      <trkpt lat="37.03919" lon="28.0981">
        <ele>53.2</ele>
      </trkpt>
      <trkpt lat="37.03925" lon="28.09802">
        <ele>53.7</ele>
      </trkpt>
      <trkpt lat="37.03933" lon="28.09797">
        <ele>54.5</ele>
      </trkpt>
      <trkpt lat="37.03941" lon="28.09792">
        <ele>55.4</ele>
      </trkpt>
      <trkpt lat="37.03949" lon="28.09786">
        <ele>56.1</ele>
      </trkpt>
      <trkpt lat="37.03956" lon="28.09777">
        <ele>56.5</ele>
      </trkpt>
      <trkpt lat="37.03964" lon="28.09771">
        <ele>57</ele>
      </trkpt>
      <trkpt lat="37.03969" lon="28.09764">
        <ele>57.3</ele>
      </trkpt>
      <trkpt lat="37.03974" lon="28.09755">
        <ele>57.2</ele>
      </trkpt>
      <trkpt lat="37.03976" lon="28.09744">
        <ele>56.9</ele>
      </trkpt>
      <trkpt lat="37.03973" lon="28.09732">
        <ele>56.2</ele>
      </trkpt>
      <trkpt lat="37.03972" lon="28.09721">
        <ele>55.7</ele>
      </trkpt>
      <trkpt lat="37.03975" lon="28.0971">
        <ele>55.6</ele>
      </trkpt>
      <trkpt lat="37.03977" lon="28.09699">
        <ele>55.3</ele>
      </trkpt>
      <trkpt lat="37.03977" lon="28.09687">
        <ele>54.9</ele>
      </trkpt>
      <trkpt lat="37.03976" lon="28.09674">
        <ele>54.4</ele>
      </trkpt>
      <trkpt lat="37.03973" lon="28.09663">
        <ele>54.1</ele>
      </trkpt>
      <trkpt lat="37.03967" lon="28.09654">
        <ele>54.2</ele>
      </trkpt>
      <trkpt lat="37.03959" lon="28.09648">
        <ele>54.2</ele>
      </trkpt>
      <trkpt lat="37.03952" lon="28.09641">
        <ele>54.2</ele>
      </trkpt>
      <trkpt lat="37.03945" lon="28.09633">
        <ele>54.3</ele>
      </trkpt>
      <trkpt lat="37.03939" lon="28.09622">
        <ele>54.7</ele>
      </trkpt>
      <trkpt lat="37.03936" lon="28.0961">
        <ele>55.1</ele>
      </trkpt>
      <trkpt lat="37.03931" lon="28.096">
        <ele>55.5</ele>
      </trkpt>
      <trkpt lat="37.03924" lon="28.09592">
        <ele>55.7</ele>
      </trkpt>
      <trkpt lat="37.03917" lon="28.09583">
        <ele>56</ele>
      </trkpt>
      <trkpt lat="37.03913" lon="28.09578">
        <ele>56.2</ele>
      </trkpt>
      <trkpt lat="37.03905" lon="28.09572">
        <ele>56.7</ele>
      </trkpt>
      <trkpt lat="37.03895" lon="28.0957">
        <ele>57.2</ele>
      </trkpt>
      <trkpt lat="37.03887" lon="28.0957">
        <ele>57.6</ele>
      </trkpt>
      <trkpt lat="37.03878" lon="28.09568">
        <ele>58.1</ele>
      </trkpt>
      <trkpt lat="37.03874" lon="28.09564">
        <ele>58.6</ele>
      </trkpt>
      <trkpt lat="37.03873" lon="28.09555">
        <ele>59.3</ele>
      </trkpt>
      <trkpt lat="37.03871" lon="28.09543">
        <ele>60.5</ele>
      </trkpt>
      <trkpt lat="37.03864" lon="28.09536">
        <ele>61.6</ele>
      </trkpt>
      <trkpt lat="37.0386" lon="28.09526">
        <ele>62.9</ele>
      </trkpt>
      <trkpt lat="37.0386" lon="28.09517">
        <ele>63.8</ele>
      </trkpt>
      <trkpt lat="37.03862" lon="28.09508">
        <ele>64.5</ele>
      </trkpt>
      <trkpt lat="37.03865" lon="28.09497">
        <ele>65.4</ele>
      </trkpt>
      <trkpt lat="37.03869" lon="28.09486">
        <ele>67.1</ele>
      </trkpt>
      <trkpt lat="37.03872" lon="28.09475">
        <ele>68.9</ele>
      </trkpt>
      <trkpt lat="37.03873" lon="28.09464">
        <ele>70.8</ele>
      </trkpt>
      <trkpt lat="37.03875" lon="28.09453">
        <ele>72.8</ele>
      </trkpt>
      <trkpt lat="37.03877" lon="28.09442">
        <ele>74.6</ele>
      </trkpt>
      <trkpt lat="37.03881" lon="28.09431">
        <ele>76.3</ele>
      </trkpt>
      <trkpt lat="37.03883" lon="28.0942">
        <ele>77.8</ele>
      </trkpt>
      <trkpt lat="37.03885" lon="28.09409">
        <ele>79.6</ele>
      </trkpt>
      <trkpt lat="37.03889" lon="28.09399">
        <ele>81.2</ele>
      </trkpt>
      <trkpt lat="37.03893" lon="28.09388">
        <ele>82.9</ele>
      </trkpt>
      <trkpt lat="37.039" lon="28.09379">
        <ele>83.4</ele>
      </trkpt>
      <trkpt lat="37.03908" lon="28.09373">
        <ele>83.3</ele>
      </trkpt>
      <trkpt lat="37.03915" lon="28.09368">
        <ele>82.8</ele>
      </trkpt>
      <trkpt lat="37.03923" lon="28.09365">
        <ele>83</ele>
      </trkpt>
      <trkpt lat="37.03933" lon="28.09364">
        <ele>83.2</ele>
      </trkpt>
      <trkpt lat="37.0394" lon="28.09364">
        <ele>83.3</ele>
      </trkpt>
      <trkpt lat="37.03948" lon="28.09363">
        <ele>83.3</ele>
      </trkpt>
      <trkpt lat="37.03956" lon="28.09364">
        <ele>83.1</ele>
      </trkpt>
      <trkpt lat="37.03964" lon="28.09363">
        <ele>83.3</ele>
      </trkpt>
      <trkpt lat="37.03973" lon="28.09361">
        <ele>83.6</ele>
      </trkpt>
      <trkpt lat="37.03982" lon="28.09357">
        <ele>84.2</ele>
      </trkpt>
      <trkpt lat="37.03991" lon="28.09359">
        <ele>83.7</ele>
      </trkpt>
      <trkpt lat="37.03997" lon="28.09367">
        <ele>82.6</ele>
      </trkpt>
      <trkpt lat="37.04" lon="28.09377">
        <ele>81.3</ele>
      </trkpt>
      <trkpt lat="37.04001" lon="28.09388">
        <ele>80.1</ele>
      </trkpt>
      <trkpt lat="37.04007" lon="28.09395">
        <ele>80.5</ele>
      </trkpt>
      <trkpt lat="37.04016" lon="28.09394">
        <ele>82.8</ele>
      </trkpt>
      <trkpt lat="37.04023" lon="28.09394">
        <ele>84.7</ele>
      </trkpt>
      <trkpt lat="37.04031" lon="28.09393">
        <ele>86.6</ele>
      </trkpt>
      <trkpt lat="37.04034" lon="28.09385">
        <ele>88.3</ele>
      </trkpt>
      <trkpt lat="37.04035" lon="28.09375">
        <ele>89.6</ele>
      </trkpt>
      <trkpt lat="37.04034" lon="28.09365">
        <ele>90.6</ele>
      </trkpt>
      <trkpt lat="37.04033" lon="28.09357">
        <ele>91.4</ele>
      </trkpt>
      <trkpt lat="37.04034" lon="28.09351">
        <ele>92.3</ele>
      </trkpt>
      <trkpt lat="37.04033" lon="28.09339">
        <ele>93.5</ele>
      </trkpt>
      <trkpt lat="37.04033" lon="28.09327">
        <ele>95.1</ele>
      </trkpt>
      <trkpt lat="37.04031" lon="28.09315">
        <ele>96.9</ele>
      </trkpt>
      <trkpt lat="37.04039" lon="28.09312">
        <ele>99.1</ele>
      </trkpt>
      <trkpt lat="37.04045" lon="28.09322">
        <ele>98.8</ele>
      </trkpt>
      <trkpt lat="37.0405" lon="28.09332">
        <ele>98.1</ele>
      </trkpt>
      <trkpt lat="37.04056" lon="28.09339">
        <ele>98.4</ele>
      </trkpt>
      <trkpt lat="37.04063" lon="28.09347">
        <ele>99.2</ele>
      </trkpt>
      <trkpt lat="37.04069" lon="28.09355">
        <ele>99.7</ele>
      </trkpt>
      <trkpt lat="37.04074" lon="28.09366">
        <ele>99.8</ele>
      </trkpt>
      <trkpt lat="37.04081" lon="28.09373">
        <ele>100.7</ele>
      </trkpt>
      <trkpt lat="37.0409" lon="28.09372">
        <ele>101.8</ele>
      </trkpt>
      <trkpt lat="37.04096" lon="28.09364">
        <ele>103</ele>
      </trkpt>
      <trkpt lat="37.04102" lon="28.09356">
        <ele>104.2</ele>
      </trkpt>
      <trkpt lat="37.0411" lon="28.0935">
        <ele>105.3</ele>
      </trkpt>
      <trkpt lat="37.04118" lon="28.09344">
        <ele>106.3</ele>
      </trkpt>
      <trkpt lat="37.04127" lon="28.09341">
        <ele>107.1</ele>
      </trkpt>
      <trkpt lat="37.04135" lon="28.09339">
        <ele>107.7</ele>
      </trkpt>
      <trkpt lat="37.04144" lon="28.09335">
        <ele>108.5</ele>
      </trkpt>
      <trkpt lat="37.04149" lon="28.09335">
        <ele>108.9</ele>
      </trkpt>
      <trkpt lat="37.04158" lon="28.09333">
        <ele>109.5</ele>
      </trkpt>
      <trkpt lat="37.04166" lon="28.0933">
        <ele>110</ele>
      </trkpt>
      <trkpt lat="37.04175" lon="28.09328">
        <ele>110.8</ele>
      </trkpt>
      <trkpt lat="37.04182" lon="28.09322">
        <ele>111.6</ele>
      </trkpt>
      <trkpt lat="37.04188" lon="28.09313">
        <ele>112.3</ele>
      </trkpt>
      <trkpt lat="37.04196" lon="28.09307">
        <ele>113.3</ele>
      </trkpt>
      <trkpt lat="37.04206" lon="28.09304">
        <ele>114.3</ele>
      </trkpt>
      <trkpt lat="37.04214" lon="28.09297">
        <ele>115.4</ele>
      </trkpt>
      <trkpt lat="37.04217" lon="28.09287">
        <ele>116.2</ele>
      </trkpt>
      <trkpt lat="37.04224" lon="28.09279">
        <ele>117.2</ele>
      </trkpt>
      <trkpt lat="37.0423" lon="28.0927">
        <ele>118.3</ele>
      </trkpt>
      <trkpt lat="37.04234" lon="28.09262">
        <ele>119.3</ele>
      </trkpt>
      <trkpt lat="37.04241" lon="28.09254">
        <ele>120.6</ele>
      </trkpt>
      <trkpt lat="37.04245" lon="28.09246">
        <ele>121.3</ele>
      </trkpt>
      <trkpt lat="37.04254" lon="28.09249">
        <ele>123.7</ele>
      </trkpt>
      <trkpt lat="37.04257" lon="28.09253">
        <ele>125</ele>
      </trkpt>
      <trkpt lat="37.0426" lon="28.09258">
        <ele>126.1</ele>
      </trkpt>
      <trkpt lat="37.04264" lon="28.09267">
        <ele>127.7</ele>
      </trkpt>
      <trkpt lat="37.04269" lon="28.09269">
        <ele>129.6</ele>
      </trkpt>
      <trkpt lat="37.04275" lon="28.09267">
        <ele>132.6</ele>
      </trkpt>
      <trkpt lat="37.04279" lon="28.09265">
        <ele>134.6</ele>
      </trkpt>
      <trkpt lat="37.04284" lon="28.09268">
        <ele>136.7</ele>
      </trkpt>
      <trkpt lat="37.04288" lon="28.09272">
        <ele>138.6</ele>
      </trkpt>
      <trkpt lat="37.04293" lon="28.09273">
        <ele>141</ele>
      </trkpt>
      <trkpt lat="37.04298" lon="28.0927">
        <ele>143.4</ele>
      </trkpt>
      <trkpt lat="37.04303" lon="28.0927">
        <ele>145.7</ele>
      </trkpt>
      <trkpt lat="37.04306" lon="28.09265">
        <ele>147.3</ele>
      </trkpt>
      <trkpt lat="37.04309" lon="28.09259">
        <ele>148.6</ele>
      </trkpt>
      <trkpt lat="37.04314" lon="28.09256">
        <ele>150.7</ele>
      </trkpt>
      <trkpt lat="37.0432" lon="28.09255">
        <ele>153.1</ele>
      </trkpt>
      <trkpt lat="37.0432" lon="28.09255">
        <ele>153.1</ele>
      </trkpt>
      <trkpt lat="37.04325" lon="28.09256">
        <ele>155.5</ele>
      </trkpt>
      <trkpt lat="37.04328" lon="28.09258">
        <ele>157</ele>
      </trkpt>
      <trkpt lat="37.04332" lon="28.09262">
        <ele>159</ele>
      </trkpt>
      <trkpt lat="37.04336" lon="28.0926">
        <ele>160.6</ele>
      </trkpt>
      <trkpt lat="37.04339" lon="28.09255">
        <ele>161.6</ele>
      </trkpt>
      <trkpt lat="37.04341" lon="28.09248">
        <ele>162.2</ele>
      </trkpt>
      <trkpt lat="37.04345" lon="28.09247">
        <ele>164.3</ele>
      </trkpt>
      <trkpt lat="37.04347" lon="28.09253">
        <ele>165.2</ele>
      </trkpt>
      <trkpt lat="37.04351" lon="28.09257">
        <ele>167</ele>
      </trkpt>
      <trkpt lat="37.04354" lon="28.09252">
        <ele>168.1</ele>
      </trkpt>
      <trkpt lat="37.04359" lon="28.0925">
        <ele>169.9</ele>
      </trkpt>
      <trkpt lat="37.04362" lon="28.09249">
        <ele>171.2</ele>
      </trkpt>
      <trkpt lat="37.04366" lon="28.09246">
        <ele>173.3</ele>
      </trkpt>
      <trkpt lat="37.04371" lon="28.09249">
        <ele>175.2</ele>
      </trkpt>
      <trkpt lat="37.04375" lon="28.09248">
        <ele>177.2</ele>
      </trkpt>
      <trkpt lat="37.0438" lon="28.09249">
        <ele>179.2</ele>
      </trkpt>
      <trkpt lat="37.04382" lon="28.09254">
        <ele>180.2</ele>
      </trkpt>
      <trkpt lat="37.04382" lon="28.09254">
        <ele>180.2</ele>
      </trkpt>
      <trkpt lat="37.04384" lon="28.09253">
        <ele>181</ele>
      </trkpt>
      <trkpt lat="37.04384" lon="28.09253">
        <ele>181</ele>
      </trkpt>
      <trkpt lat="37.04388" lon="28.09247">
        <ele>182.7</ele>
      </trkpt>
      <trkpt lat="37.04391" lon="28.09242">
        <ele>184.4</ele>
      </trkpt>
      <trkpt lat="37.04396" lon="28.09244">
        <ele>186.4</ele>
      </trkpt>
      <trkpt lat="37.04396" lon="28.09251">
        <ele>186.3</ele>
      </trkpt>
      <trkpt lat="37.044" lon="28.09255">
        <ele>188.2</ele>
      </trkpt>
      <trkpt lat="37.04405" lon="28.09258">
        <ele>190.5</ele>
      </trkpt>
      <trkpt lat="37.04403" lon="28.09257">
        <ele>189.6</ele>
      </trkpt>
      <trkpt lat="37.04406" lon="28.09256">
        <ele>190.5</ele>
      </trkpt>
      <trkpt lat="37.04411" lon="28.09257">
        <ele>192.9</ele>
      </trkpt>
      <trkpt lat="37.04411" lon="28.09264">
        <ele>193.5</ele>
      </trkpt>
      <trkpt lat="37.04405" lon="28.09267">
        <ele>191.1</ele>
      </trkpt>
      <trkpt lat="37.044" lon="28.09269">
        <ele>189</ele>
      </trkpt>
      <trkpt lat="37.04396" lon="28.09273">
        <ele>187.5</ele>
      </trkpt>
      <trkpt lat="37.04395" lon="28.09279">
        <ele>187.5</ele>
      </trkpt>
      <trkpt lat="37.0439" lon="28.09288">
        <ele>185.8</ele>
      </trkpt>
      <trkpt lat="37.04384" lon="28.09295">
        <ele>183.6</ele>
      </trkpt>
      <trkpt lat="37.04381" lon="28.09301">
        <ele>182.8</ele>
      </trkpt>
      <trkpt lat="37.04381" lon="28.09302">
        <ele>182.9</ele>
      </trkpt>
      <trkpt lat="37.04385" lon="28.09306">
        <ele>184.6</ele>
      </trkpt>
      <trkpt lat="37.04391" lon="28.09305">
        <ele>187.4</ele>
      </trkpt>
      <trkpt lat="37.04397" lon="28.09308">
        <ele>190</ele>
      </trkpt>
      <trkpt lat="37.04402" lon="28.09314">
        <ele>192.5</ele>
      </trkpt>
      <trkpt lat="37.04409" lon="28.09317">
        <ele>195.6</ele>
      </trkpt>
      <trkpt lat="37.04413" lon="28.09327">
        <ele>197.9</ele>
      </trkpt>
      <trkpt lat="37.04416" lon="28.09331">
        <ele>199.6</ele>
      </trkpt>
      <trkpt lat="37.04419" lon="28.09342">
        <ele>200.8</ele>
      </trkpt>
      <trkpt lat="37.04428" lon="28.09341">
        <ele>201</ele>
      </trkpt>
      <trkpt lat="37.04433" lon="28.09343">
        <ele>201.3</ele>
      </trkpt>
      <trkpt lat="37.04442" lon="28.09344">
        <ele>201.6</ele>
      </trkpt>
      <trkpt lat="37.04447" lon="28.09344">
        <ele>201.8</ele>
      </trkpt>
      <trkpt lat="37.04456" lon="28.09341">
        <ele>201.9</ele>
      </trkpt>
      <trkpt lat="37.04466" lon="28.09345">
        <ele>202.4</ele>
      </trkpt>
      <trkpt lat="37.04475" lon="28.0935">
        <ele>202.9</ele>
      </trkpt>
      <trkpt lat="37.04483" lon="28.09354">
        <ele>203.3</ele>
      </trkpt>
      <trkpt lat="37.04492" lon="28.09358">
        <ele>203.7</ele>
      </trkpt>
      <trkpt lat="37.04502" lon="28.09362">
        <ele>204.1</ele>
      </trkpt>
      <trkpt lat="37.0451" lon="28.09367">
        <ele>204.8</ele>
      </trkpt>
      <trkpt lat="37.04519" lon="28.09372">
        <ele>205.4</ele>
      </trkpt>
      <trkpt lat="37.04523" lon="28.09376">
        <ele>205.8</ele>
      </trkpt>
      <trkpt lat="37.04523" lon="28.09376">
        <ele>205.8</ele>
      </trkpt>
      <trkpt lat="37.04523" lon="28.09376">
        <ele>205.8</ele>
      </trkpt>
      <trkpt lat="37.04523" lon="28.09376">
        <ele>205.8</ele>
      </trkpt>
      <trkpt lat="37.04523" lon="28.09376">
        <ele>205.8</ele>
      </trkpt>
      <trkpt lat="37.04523" lon="28.09376">
        <ele>205.8</ele>
      </trkpt>
      <trkpt lat="37.04523" lon="28.09376">
        <ele>205.8</ele>
      </trkpt>
      <trkpt lat="37.04523" lon="28.09376">
        <ele>205.8</ele>
      </trkpt>
      <trkpt lat="37.04523" lon="28.09376">
        <ele>205.8</ele>
      </trkpt>
      <trkpt lat="37.04523" lon="28.09376">
        <ele>205.8</ele>
      </trkpt>
      <trkpt lat="37.04523" lon="28.09376">
        <ele>205.8</ele>
      </trkpt>
      <trkpt lat="37.04523" lon="28.09376">
        <ele>205.8</ele>
      </trkpt>
      <trkpt lat="37.04523" lon="28.09376">
        <ele>205.8</ele>
      </trkpt>
      <trkpt lat="37.04523" lon="28.09376">
        <ele>205.8</ele>
      </trkpt>
      <trkpt lat="37.04523" lon="28.09376">
        <ele>205.8</ele>
      </trkpt>
      <trkpt lat="37.04523" lon="28.09376">
        <ele>205.8</ele>
      </trkpt>
      <trkpt lat="37.04523" lon="28.09376">
        <ele>205.8</ele>
      </trkpt>
      <trkpt lat="37.04523" lon="28.09376">
        <ele>205.8</ele>
      </trkpt>
      <trkpt lat="37.04523" lon="28.09376">
        <ele>205.8</ele>
      </trkpt>
      <trkpt lat="37.04523" lon="28.09376">
        <ele>205.8</ele>
      </trkpt>
      <trkpt lat="37.04523" lon="28.09376">
        <ele>205.8</ele>
      </trkpt>
      <trkpt lat="37.04523" lon="28.09376">
        <ele>205.8</ele>
      </trkpt>
      <trkpt lat="37.04523" lon="28.09376">
        <ele>205.8</ele>
      </trkpt>
      <trkpt lat="37.04524" lon="28.09374">
        <ele>205.7</ele>
      </trkpt>
      <trkpt lat="37.04524" lon="28.09374">
        <ele>205.7</ele>
      </trkpt>
      <trkpt lat="37.04524" lon="28.09374">
        <ele>205.7</ele>
      </trkpt>
      <trkpt lat="37.04524" lon="28.09374">
        <ele>205.7</ele>
      </trkpt>
      <trkpt lat="37.04524" lon="28.09374">
        <ele>205.7</ele>
      </trkpt>
      <trkpt lat="37.04524" lon="28.09374">
        <ele>205.7</ele>
      </trkpt>
      <trkpt lat="37.04524" lon="28.09373">
        <ele>205.7</ele>
      </trkpt>
      <trkpt lat="37.04524" lon="28.09373">
        <ele>205.7</ele>
      </trkpt>
      <trkpt lat="37.04524" lon="28.09373">
        <ele>205.7</ele>
      </trkpt>
      <trkpt lat="37.04524" lon="28.09373">
        <ele>205.7</ele>
      </trkpt>
      <trkpt lat="37.04524" lon="28.09373">
        <ele>205.7</ele>
      </trkpt>
      <trkpt lat="37.04524" lon="28.09373">
        <ele>205.7</ele>
      </trkpt>
      <trkpt lat="37.04524" lon="28.09373">
        <ele>205.7</ele>
      </trkpt>
      <trkpt lat="37.04526" lon="28.09371">
        <ele>205.7</ele>
      </trkpt>
      <trkpt lat="37.04528" lon="28.09364">
        <ele>205.6</ele>
      </trkpt>
      <trkpt lat="37.04532" lon="28.09353">
        <ele>205.3</ele>
      </trkpt>
      <trkpt lat="37.04535" lon="28.09341">
        <ele>205</ele>
      </trkpt>
      <trkpt lat="37.04537" lon="28.0933">
        <ele>204.8</ele>
      </trkpt>
      <trkpt lat="37.0454" lon="28.09318">
        <ele>204.8</ele>
      </trkpt>
      <trkpt lat="37.04544" lon="28.09307">
        <ele>205</ele>
      </trkpt>
      <trkpt lat="37.04549" lon="28.09296">
        <ele>205.1</ele>
      </trkpt>
      <trkpt lat="37.04554" lon="28.09285">
        <ele>205.2</ele>
      </trkpt>
      <trkpt lat="37.04559" lon="28.09276">
        <ele>205.3</ele>
      </trkpt>
      <trkpt lat="37.04564" lon="28.09266">
        <ele>205.4</ele>
      </trkpt>
      <trkpt lat="37.04568" lon="28.09255">
        <ele>205.5</ele>
      </trkpt>
      <trkpt lat="37.04572" lon="28.09243">
        <ele>205.6</ele>
      </trkpt>
      <trkpt lat="37.04576" lon="28.09235">
        <ele>205.8</ele>
      </trkpt>
      <trkpt lat="37.04582" lon="28.09225">
        <ele>206</ele>
      </trkpt>
      <trkpt lat="37.04587" lon="28.09216">
        <ele>206.2</ele>
      </trkpt>
      <trkpt lat="37.04592" lon="28.09206">
        <ele>206.4</ele>
      </trkpt>
      <trkpt lat="37.04597" lon="28.09195">
        <ele>206.6</ele>
      </trkpt>
      <trkpt lat="37.04602" lon="28.09184">
        <ele>206.6</ele>
      </trkpt>
      <trkpt lat="37.04607" lon="28.09174">
        <ele>206.7</ele>
      </trkpt>
      <trkpt lat="37.04613" lon="28.09164">
        <ele>206.9</ele>
      </trkpt>
      <trkpt lat="37.04618" lon="28.09154">
        <ele>207.8</ele>
      </trkpt>
      <trkpt lat="37.04622" lon="28.09143">
        <ele>208.7</ele>
      </trkpt>
      <trkpt lat="37.04627" lon="28.09132">
        <ele>209.5</ele>
      </trkpt>
      <trkpt lat="37.04631" lon="28.09122">
        <ele>210.3</ele>
      </trkpt>
      <trkpt lat="37.04638" lon="28.09114">
        <ele>210.9</ele>
      </trkpt>
      <trkpt lat="37.04647" lon="28.09107">
        <ele>211.4</ele>
      </trkpt>
      <trkpt lat="37.04652" lon="28.09097">
        <ele>212.1</ele>
      </trkpt>
      <trkpt lat="37.04658" lon="28.09088">
        <ele>212.7</ele>
      </trkpt>
      <trkpt lat="37.04664" lon="28.09078">
        <ele>213.6</ele>
      </trkpt>
      <trkpt lat="37.0467" lon="28.09068">
        <ele>214.7</ele>
      </trkpt>
      <trkpt lat="37.04677" lon="28.09059">
        <ele>215.6</ele>
      </trkpt>
      <trkpt lat="37.04683" lon="28.0905">
        <ele>216.4</ele>
      </trkpt>
      <trkpt lat="37.04689" lon="28.0904">
        <ele>217.2</ele>
      </trkpt>
      <trkpt lat="37.04695" lon="28.0903">
        <ele>218</ele>
      </trkpt>
      <trkpt lat="37.047" lon="28.0902">
        <ele>218.7</ele>
      </trkpt>
      <trkpt lat="37.04704" lon="28.0901">
        <ele>219.4</ele>
      </trkpt>
      <trkpt lat="37.04708" lon="28.09">
        <ele>220</ele>
      </trkpt>
      <trkpt lat="37.04713" lon="28.08989">
        <ele>220.4</ele>
      </trkpt>
      <trkpt lat="37.04717" lon="28.08978">
        <ele>220.8</ele>
      </trkpt>
      <trkpt lat="37.0472" lon="28.08967">
        <ele>221.2</ele>
      </trkpt>
      <trkpt lat="37.04723" lon="28.08955">
        <ele>221.6</ele>
      </trkpt>
      <trkpt lat="37.04725" lon="28.08944">
        <ele>222</ele>
      </trkpt>
      <trkpt lat="37.04728" lon="28.08932">
        <ele>222.4</ele>
      </trkpt>
      <trkpt lat="37.0473" lon="28.0892">
        <ele>222.8</ele>
      </trkpt>
      <trkpt lat="37.04732" lon="28.08908">
        <ele>223.1</ele>
      </trkpt>
      <trkpt lat="37.04734" lon="28.08897">
        <ele>223.5</ele>
      </trkpt>
      <trkpt lat="37.04736" lon="28.08885">
        <ele>223.8</ele>
      </trkpt>
      <trkpt lat="37.04737" lon="28.08873">
        <ele>224.2</ele>
      </trkpt>
      <trkpt lat="37.04738" lon="28.08861">
        <ele>224.6</ele>
      </trkpt>
      <trkpt lat="37.0474" lon="28.0885">
        <ele>224.9</ele>
      </trkpt>
      <trkpt lat="37.04741" lon="28.08838">
        <ele>225.2</ele>
      </trkpt>
      <trkpt lat="37.04742" lon="28.08826">
        <ele>225.5</ele>
      </trkpt>
      <trkpt lat="37.04743" lon="28.08815">
        <ele>225.7</ele>
      </trkpt>
      <trkpt lat="37.04745" lon="28.08803">
        <ele>225.8</ele>
      </trkpt>
      <trkpt lat="37.04747" lon="28.08791">
        <ele>225.9</ele>
      </trkpt>
      <trkpt lat="37.0475" lon="28.08779">
        <ele>226</ele>
      </trkpt>
      <trkpt lat="37.04752" lon="28.08768">
        <ele>226.5</ele>
      </trkpt>
      <trkpt lat="37.04754" lon="28.08756">
        <ele>227</ele>
      </trkpt>
      <trkpt lat="37.04757" lon="28.08745">
        <ele>227.6</ele>
      </trkpt>
      <trkpt lat="37.0476" lon="28.08734">
        <ele>228.1</ele>
      </trkpt>
      <trkpt lat="37.04764" lon="28.08722">
        <ele>228.6</ele>
      </trkpt>
      <trkpt lat="37.04767" lon="28.08712">
        <ele>229</ele>
      </trkpt>
      <trkpt lat="37.0477" lon="28.08701">
        <ele>229.4</ele>
      </trkpt>
      <trkpt lat="37.04773" lon="28.0869">
        <ele>229.7</ele>
      </trkpt>
      <trkpt lat="37.04777" lon="28.08678">
        <ele>230.1</ele>
      </trkpt>
      <trkpt lat="37.0478" lon="28.08668">
        <ele>230.3</ele>
      </trkpt>
      <trkpt lat="37.04783" lon="28.08655">
        <ele>230.7</ele>
      </trkpt>
      <trkpt lat="37.04787" lon="28.08645">
        <ele>230.9</ele>
      </trkpt>
      <trkpt lat="37.04789" lon="28.08633">
        <ele>231.2</ele>
      </trkpt>
      <trkpt lat="37.04792" lon="28.08622">
        <ele>231.3</ele>
      </trkpt>
      <trkpt lat="37.04795" lon="28.08611">
        <ele>231.4</ele>
      </trkpt>
      <trkpt lat="37.04798" lon="28.086">
        <ele>231.4</ele>
      </trkpt>
      <trkpt lat="37.048" lon="28.08589">
        <ele>231.3</ele>
      </trkpt>
      <trkpt lat="37.04803" lon="28.08578">
        <ele>231.3</ele>
      </trkpt>
      <trkpt lat="37.04806" lon="28.08566">
        <ele>231.4</ele>
      </trkpt>
      <trkpt lat="37.04809" lon="28.08554">
        <ele>231.3</ele>
      </trkpt>
      <trkpt lat="37.04813" lon="28.08543">
        <ele>231</ele>
      </trkpt>
      <trkpt lat="37.04817" lon="28.08531">
        <ele>230.6</ele>
      </trkpt>
      <trkpt lat="37.04822" lon="28.08521">
        <ele>230</ele>
      </trkpt>
      <trkpt lat="37.04826" lon="28.0851">
        <ele>229.4</ele>
      </trkpt>
      <trkpt lat="37.04831" lon="28.085">
        <ele>228.4</ele>
      </trkpt>
      <trkpt lat="37.0484" lon="28.08497">
        <ele>227.1</ele>
      </trkpt>
      <trkpt lat="37.04845" lon="28.08505">
        <ele>225.7</ele>
      </trkpt>
      <trkpt lat="37.04849" lon="28.08517">
        <ele>225.3</ele>
      </trkpt>
      <trkpt lat="37.0485" lon="28.08529">
        <ele>225.1</ele>
      </trkpt>
      <trkpt lat="37.04853" lon="28.08541">
        <ele>224.7</ele>
      </trkpt>
      <trkpt lat="37.04858" lon="28.08552">
        <ele>224</ele>
      </trkpt>
      <trkpt lat="37.04861" lon="28.08563">
        <ele>223.5</ele>
      </trkpt>
      <trkpt lat="37.04865" lon="28.08574">
        <ele>222.9</ele>
      </trkpt>
      <trkpt lat="37.0487" lon="28.08583">
        <ele>222</ele>
      </trkpt>
      <trkpt lat="37.04877" lon="28.08591">
        <ele>221.1</ele>
      </trkpt>
      <trkpt lat="37.04884" lon="28.086">
        <ele>220.4</ele>
      </trkpt>
      <trkpt lat="37.04892" lon="28.08607">
        <ele>219.6</ele>
      </trkpt>
      <trkpt lat="37.049" lon="28.08614">
        <ele>219</ele>
      </trkpt>
      <trkpt lat="37.04908" lon="28.08621">
        <ele>218.4</ele>
      </trkpt>
      <trkpt lat="37.04916" lon="28.08627">
        <ele>217.8</ele>
      </trkpt>
      <trkpt lat="37.04924" lon="28.08634">
        <ele>219</ele>
      </trkpt>
      <trkpt lat="37.04933" lon="28.0864">
        <ele>220.1</ele>
      </trkpt>
      <trkpt lat="37.04943" lon="28.08641">
        <ele>220.7</ele>
      </trkpt>
      <trkpt lat="37.04953" lon="28.0864">
        <ele>221.2</ele>
      </trkpt>
      <trkpt lat="37.04957" lon="28.0863">
        <ele>220.9</ele>
      </trkpt>
      <trkpt lat="37.04955" lon="28.08621">
        <ele>220.2</ele>
      </trkpt>
      <trkpt lat="37.04951" lon="28.0861">
        <ele>219.2</ele>
      </trkpt>
      <trkpt lat="37.04948" lon="28.08599">
        <ele>218.2</ele>
      </trkpt>
      <trkpt lat="37.04944" lon="28.08588">
        <ele>217</ele>
      </trkpt>
      <trkpt lat="37.04941" lon="28.08576">
        <ele>216.6</ele>
      </trkpt>
      <trkpt lat="37.04939" lon="28.08565">
        <ele>216.7</ele>
      </trkpt>
      <trkpt lat="37.04936" lon="28.08553">
        <ele>216.6</ele>
      </trkpt>
      <trkpt lat="37.04933" lon="28.08542">
        <ele>216.3</ele>
      </trkpt>
      <trkpt lat="37.0493" lon="28.08537">
        <ele>215.7</ele>
      </trkpt>
      <trkpt lat="37.0493" lon="28.08537">
        <ele>215.7</ele>
      </trkpt>
      <trkpt lat="37.0493" lon="28.08538">
        <ele>215.7</ele>
      </trkpt>
      <trkpt lat="37.0493" lon="28.08538">
        <ele>215.7</ele>
      </trkpt>
      <trkpt lat="37.0493" lon="28.08537">
        <ele>215.7</ele>
      </trkpt>
      <trkpt lat="37.0493" lon="28.08537">
        <ele>215.7</ele>
      </trkpt>
      <trkpt lat="37.0493" lon="28.08537">
        <ele>215.7</ele>
      </trkpt>
      <trkpt lat="37.0493" lon="28.08537">
        <ele>215.7</ele>
      </trkpt>
      <trkpt lat="37.0493" lon="28.08537">
        <ele>215.7</ele>
      </trkpt>
      <trkpt lat="37.0493" lon="28.08537">
        <ele>215.7</ele>
      </trkpt>
      <trkpt lat="37.0493" lon="28.08537">
        <ele>215.7</ele>
      </trkpt>
      <trkpt lat="37.0493" lon="28.08537">
        <ele>215.7</ele>
      </trkpt>
      <trkpt lat="37.0493" lon="28.08537">
        <ele>215.7</ele>
      </trkpt>
      <trkpt lat="37.0493" lon="28.08537">
        <ele>215.7</ele>
      </trkpt>
      <trkpt lat="37.0493" lon="28.08537">
        <ele>215.7</ele>
      </trkpt>
      <trkpt lat="37.0493" lon="28.08537">
        <ele>215.7</ele>
      </trkpt>
      <trkpt lat="37.0493" lon="28.08537">
        <ele>215.7</ele>
      </trkpt>
      <trkpt lat="37.0493" lon="28.08537">
        <ele>215.7</ele>
      </trkpt>
      <trkpt lat="37.0493" lon="28.08537">
        <ele>215.7</ele>
      </trkpt>
      <trkpt lat="37.0493" lon="28.08537">
        <ele>215.7</ele>
      </trkpt>
      <trkpt lat="37.0493" lon="28.08537">
        <ele>215.7</ele>
      </trkpt>
      <trkpt lat="37.0493" lon="28.08537">
        <ele>215.7</ele>
      </trkpt>
      <trkpt lat="37.0493" lon="28.08537">
        <ele>215.7</ele>
      </trkpt>
      <trkpt lat="37.0493" lon="28.08537">
        <ele>215.7</ele>
      </trkpt>
      <trkpt lat="37.0493" lon="28.08537">
        <ele>215.7</ele>
      </trkpt>
      <trkpt lat="37.04928" lon="28.08529">
        <ele>215.4</ele>
      </trkpt>
      <trkpt lat="37.04926" lon="28.08517">
        <ele>214.9</ele>
      </trkpt>
      <trkpt lat="37.04924" lon="28.08504">
        <ele>214.3</ele>
      </trkpt>
      <trkpt lat="37.04924" lon="28.08492">
        <ele>214.5</ele>
      </trkpt>
      <trkpt lat="37.04925" lon="28.0848">
        <ele>215.1</ele>
      </trkpt>
      <trkpt lat="37.04924" lon="28.08468">
        <ele>214.7</ele>
      </trkpt>
      <trkpt lat="37.04919" lon="28.08458">
        <ele>213.3</ele>
      </trkpt>
      <trkpt lat="37.04915" lon="28.08447">
        <ele>213.2</ele>
      </trkpt>
      <trkpt lat="37.04911" lon="28.08437">
        <ele>214.3</ele>
      </trkpt>
      <trkpt lat="37.04911" lon="28.08425">
        <ele>214.8</ele>
      </trkpt>
      <trkpt lat="37.04911" lon="28.08413">
        <ele>215.3</ele>
      </trkpt>
      <trkpt lat="37.04912" lon="28.084">
        <ele>216.1</ele>
      </trkpt>
      <trkpt lat="37.04915" lon="28.08389">
        <ele>215.9</ele>
      </trkpt>
      <trkpt lat="37.04921" lon="28.08379">
        <ele>217.3</ele>
      </trkpt>
      <trkpt lat="37.04926" lon="28.08369">
        <ele>219.1</ele>
      </trkpt>
      <trkpt lat="37.04932" lon="28.0836">
        <ele>220.8</ele>
      </trkpt>
      <trkpt lat="37.04936" lon="28.08348">
        <ele>222.2</ele>
      </trkpt>
      <trkpt lat="37.04941" lon="28.08338">
        <ele>223.4</ele>
      </trkpt>
      <trkpt lat="37.04946" lon="28.08328">
        <ele>224.4</ele>
      </trkpt>
      <trkpt lat="37.0495" lon="28.08317">
        <ele>225.2</ele>
      </trkpt>
      <trkpt lat="37.04953" lon="28.08306">
        <ele>225.8</ele>
      </trkpt>
      <trkpt lat="37.04956" lon="28.08295">
        <ele>226.2</ele>
      </trkpt>
      <trkpt lat="37.0496" lon="28.08284">
        <ele>226.3</ele>
      </trkpt>
      <trkpt lat="37.04962" lon="28.08272">
        <ele>226.3</ele>
      </trkpt>
      <trkpt lat="37.04964" lon="28.08261">
        <ele>226.1</ele>
      </trkpt>
      <trkpt lat="37.04967" lon="28.08248">
        <ele>225.8</ele>
      </trkpt>
      <trkpt lat="37.04968" lon="28.08236">
        <ele>225.5</ele>
      </trkpt>
      <trkpt lat="37.04971" lon="28.08225">
        <ele>225.2</ele>
      </trkpt>
      <trkpt lat="37.04972" lon="28.08213">
        <ele>225.1</ele>
      </trkpt>
      <trkpt lat="37.04971" lon="28.08202">
        <ele>225</ele>
      </trkpt>
      <trkpt lat="37.04969" lon="28.08196">
        <ele>225</ele>
      </trkpt>
      <trkpt lat="37.04967" lon="28.08185">
        <ele>225</ele>
      </trkpt>
      <trkpt lat="37.04967" lon="28.08174">
        <ele>224.9</ele>
      </trkpt>
      <trkpt lat="37.04967" lon="28.08172">
        <ele>224.8</ele>
      </trkpt>
      <trkpt lat="37.04967" lon="28.08172">
        <ele>224.8</ele>
      </trkpt>
      <trkpt lat="37.04966" lon="28.08176">
        <ele>224.9</ele>
      </trkpt>
      <trkpt lat="37.04963" lon="28.08171">
        <ele>225</ele>
      </trkpt>
      <trkpt lat="37.0496" lon="28.0816">
        <ele>224.7</ele>
      </trkpt>
      <trkpt lat="37.04956" lon="28.08149">
        <ele>224.4</ele>
      </trkpt>
      <trkpt lat="37.04954" lon="28.08138">
        <ele>223.9</ele>
      </trkpt>
      <trkpt lat="37.04951" lon="28.08128">
        <ele>223.3</ele>
      </trkpt>
      <trkpt lat="37.04947" lon="28.08117">
        <ele>222.7</ele>
      </trkpt>
      <trkpt lat="37.04942" lon="28.08107">
        <ele>221.8</ele>
      </trkpt>
      <trkpt lat="37.04939" lon="28.08096">
        <ele>220.9</ele>
      </trkpt>
      <trkpt lat="37.04936" lon="28.08084">
        <ele>219.9</ele>
      </trkpt>
      <trkpt lat="37.04936" lon="28.08071">
        <ele>220.3</ele>
      </trkpt>
      <trkpt lat="37.04938" lon="28.08059">
        <ele>220.7</ele>
      </trkpt>
      <trkpt lat="37.0494" lon="28.08048">
        <ele>221</ele>
      </trkpt>
      <trkpt lat="37.04943" lon="28.08037">
        <ele>221.2</ele>
      </trkpt>
      <trkpt lat="37.04947" lon="28.08027">
        <ele>221.3</ele>
      </trkpt>
      <trkpt lat="37.04951" lon="28.08016">
        <ele>221.2</ele>
      </trkpt>
      <trkpt lat="37.04955" lon="28.08005">
        <ele>220.9</ele>
      </trkpt>
      <trkpt lat="37.04959" lon="28.07993">
        <ele>220.3</ele>
      </trkpt>
      <trkpt lat="37.04965" lon="28.07983">
        <ele>219.3</ele>
      </trkpt>
      <trkpt lat="37.04971" lon="28.07973">
        <ele>217.9</ele>
      </trkpt>
      <trkpt lat="37.04979" lon="28.07967">
        <ele>216</ele>
      </trkpt>
      <trkpt lat="37.04987" lon="28.0796">
        <ele>213.9</ele>
      </trkpt>
      <trkpt lat="37.04994" lon="28.07952">
        <ele>211.5</ele>
      </trkpt>
      <trkpt lat="37.05001" lon="28.07946">
        <ele>209.7</ele>
      </trkpt>
      <trkpt lat="37.0501" lon="28.07942">
        <ele>212</ele>
      </trkpt>
      <trkpt lat="37.05013" lon="28.07954">
        <ele>214.8</ele>
      </trkpt>
      <trkpt lat="37.0501" lon="28.07965">
        <ele>215.5</ele>
      </trkpt>
      <trkpt lat="37.05011" lon="28.07976">
        <ele>217.4</ele>
      </trkpt>
      <trkpt lat="37.05013" lon="28.07989">
        <ele>219.9</ele>
      </trkpt>
      <trkpt lat="37.05013" lon="28.08">
        <ele>221.6</ele>
      </trkpt>
      <trkpt lat="37.05012" lon="28.08013">
        <ele>222.5</ele>
      </trkpt>
      <trkpt lat="37.0501" lon="28.08025">
        <ele>223.3</ele>
      </trkpt>
      <trkpt lat="37.05008" lon="28.08037">
        <ele>223.7</ele>
      </trkpt>
      <trkpt lat="37.05005" lon="28.08048">
        <ele>224.1</ele>
      </trkpt>
      <trkpt lat="37.05004" lon="28.0806">
        <ele>224.7</ele>
      </trkpt>
      <trkpt lat="37.05001" lon="28.08072">
        <ele>225.3</ele>
      </trkpt>
      <trkpt lat="37.05002" lon="28.08085">
        <ele>226.5</ele>
      </trkpt>
      <trkpt lat="37.05004" lon="28.08097">
        <ele>227.2</ele>
      </trkpt>
      <trkpt lat="37.05007" lon="28.08108">
        <ele>227.8</ele>
      </trkpt>
      <trkpt lat="37.05011" lon="28.08119">
        <ele>229.1</ele>
      </trkpt>
      <trkpt lat="37.05015" lon="28.0813">
        <ele>230.2</ele>
      </trkpt>
      <trkpt lat="37.05017" lon="28.08136">
        <ele>230.7</ele>
      </trkpt>
      <trkpt lat="37.05019" lon="28.08137">
        <ele>231.4</ele>
      </trkpt>
      <trkpt lat="37.05021" lon="28.08148">
        <ele>232</ele>
      </trkpt>
      <trkpt lat="37.05027" lon="28.08158">
        <ele>234</ele>
      </trkpt>
      <trkpt lat="37.05032" lon="28.08168">
        <ele>235.6</ele>
      </trkpt>
      <trkpt lat="37.0504" lon="28.08176">
        <ele>238.4</ele>
      </trkpt>
      <trkpt lat="37.05047" lon="28.08183">
        <ele>241.3</ele>
      </trkpt>
      <trkpt lat="37.05052" lon="28.08187">
        <ele>243</ele>
      </trkpt>
      <trkpt lat="37.0505" lon="28.08191">
        <ele>242.5</ele>
      </trkpt>
      <trkpt lat="37.05053" lon="28.08202">
        <ele>243.6</ele>
      </trkpt>
      <trkpt lat="37.05057" lon="28.08213">
        <ele>245.6</ele>
      </trkpt>
      <trkpt lat="37.05061" lon="28.08224">
        <ele>247.2</ele>
      </trkpt>
      <trkpt lat="37.05064" lon="28.08236">
        <ele>248.9</ele>
      </trkpt>
      <trkpt lat="37.05065" lon="28.08248">
        <ele>249.6</ele>
      </trkpt>
      <trkpt lat="37.05064" lon="28.08259">
        <ele>249.8</ele>
      </trkpt>
      <trkpt lat="37.05061" lon="28.08269">
        <ele>249.9</ele>
      </trkpt>
      <trkpt lat="37.05061" lon="28.08269">
        <ele>249.9</ele>
      </trkpt>
      <trkpt lat="37.05061" lon="28.08269">
        <ele>249.9</ele>
      </trkpt>
      <trkpt lat="37.05061" lon="28.08269">
        <ele>249.9</ele>
      </trkpt>
      <trkpt lat="37.05059" lon="28.08279">
        <ele>250.1</ele>
      </trkpt>
      <trkpt lat="37.05058" lon="28.08291">
        <ele>250.7</ele>
      </trkpt>
      <trkpt lat="37.05058" lon="28.08303">
        <ele>252</ele>
      </trkpt>
      <trkpt lat="37.05057" lon="28.08315">
        <ele>252.7</ele>
      </trkpt>
      <trkpt lat="37.05056" lon="28.08327">
        <ele>253.5</ele>
      </trkpt>
      <trkpt lat="37.05055" lon="28.08338">
        <ele>254.4</ele>
      </trkpt>
      <trkpt lat="37.05056" lon="28.0835">
        <ele>256</ele>
      </trkpt>
      <trkpt lat="37.05057" lon="28.08362">
        <ele>257.4</ele>
      </trkpt>
      <trkpt lat="37.05056" lon="28.08374">
        <ele>258.5</ele>
      </trkpt>
      <trkpt lat="37.05056" lon="28.08386">
        <ele>259.7</ele>
      </trkpt>
      <trkpt lat="37.05056" lon="28.08398">
        <ele>260.7</ele>
      </trkpt>
      <trkpt lat="37.05056" lon="28.08411">
        <ele>262.2</ele>
      </trkpt>
      <trkpt lat="37.05057" lon="28.08422">
        <ele>263.2</ele>
      </trkpt>
      <trkpt lat="37.05059" lon="28.08434">
        <ele>263.3</ele>
      </trkpt>
      <trkpt lat="37.05061" lon="28.08445">
        <ele>264.1</ele>
      </trkpt>
      <trkpt lat="37.05069" lon="28.08439">
        <ele>267.2</ele>
      </trkpt>
      <trkpt lat="37.05072" lon="28.08428">
        <ele>269</ele>
      </trkpt>
      <trkpt lat="37.05074" lon="28.08416">
        <ele>270.3</ele>
      </trkpt>
      <trkpt lat="37.05076" lon="28.08406">
        <ele>270</ele>
      </trkpt>
      <trkpt lat="37.05079" lon="28.08398">
        <ele>270.4</ele>
      </trkpt>
      <trkpt lat="37.05086" lon="28.08388">
        <ele>271.9</ele>
      </trkpt>
      <trkpt lat="37.05092" lon="28.08379">
        <ele>273.1</ele>
      </trkpt>
      <trkpt lat="37.05096" lon="28.08369">
        <ele>273.6</ele>
      </trkpt>
      <trkpt lat="37.05098" lon="28.08358">
        <ele>273.3</ele>
      </trkpt>
      <trkpt lat="37.05102" lon="28.08349">
        <ele>273.3</ele>
      </trkpt>
      <trkpt lat="37.05104" lon="28.08342">
        <ele>273.5</ele>
      </trkpt>
      <trkpt lat="37.0511" lon="28.08329">
        <ele>273.6</ele>
      </trkpt>
      <trkpt lat="37.05125" lon="28.08303">
        <ele>275.6</ele>
      </trkpt>
      <trkpt lat="37.0514" lon="28.08291">
        <ele>278.7</ele>
      </trkpt>
      <trkpt lat="37.05156" lon="28.08246">
        <ele>277.7</ele>
      </trkpt>
      <trkpt lat="37.05165" lon="28.08241">
        <ele>279.9</ele>
      </trkpt>
      <trkpt lat="37.05189" lon="28.08238">
        <ele>286.9</ele>
      </trkpt>
      <trkpt lat="37.052" lon="28.08227">
        <ele>289.1</ele>
      </trkpt>
      <trkpt lat="37.05192" lon="28.0826">
        <ele>290.3</ele>
      </trkpt>
      <trkpt lat="37.05195" lon="28.0829">
        <ele>295.7</ele>
      </trkpt>
      <trkpt lat="37.05204" lon="28.08292">
        <ele>298.7</ele>
      </trkpt>
      <trkpt lat="37.05212" lon="28.08283">
        <ele>299.7</ele>
      </trkpt>
      <trkpt lat="37.05225" lon="28.08274">
        <ele>302.2</ele>
      </trkpt>
      <trkpt lat="37.05245" lon="28.08279">
        <ele>309</ele>
      </trkpt>
      <trkpt lat="37.05277" lon="28.08254">
        <ele>315.4</ele>
      </trkpt>
      <trkpt lat="37.05295" lon="28.08271">
        <ele>324.4</ele>
      </trkpt>
      <trkpt lat="37.05309" lon="28.08294">
        <ele>333.2</ele>
      </trkpt>
      <trkpt lat="37.05323" lon="28.08282">
        <ele>335.5</ele>
      </trkpt>
      <trkpt lat="37.05348" lon="28.0825">
        <ele>341.8</ele>
      </trkpt>
      <trkpt lat="37.05355" lon="28.08227">
        <ele>344</ele>
      </trkpt>
      <trkpt lat="37.05358" lon="28.08205">
        <ele>343.2</ele>
      </trkpt>
      <trkpt lat="37.05356" lon="28.08206">
        <ele>342.2</ele>
      </trkpt>
      <trkpt lat="37.05367" lon="28.08208">
        <ele>348.1</ele>
      </trkpt>
      <trkpt lat="37.05373" lon="28.08214">
        <ele>351.9</ele>
      </trkpt>
      <trkpt lat="37.05378" lon="28.08227">
        <ele>356.7</ele>
      </trkpt>
      <trkpt lat="37.05376" lon="28.08244">
        <ele>358.4</ele>
      </trkpt>
      <trkpt lat="37.0537" lon="28.08289">
        <ele>363.4</ele>
      </trkpt>
      <trkpt lat="37.05369" lon="28.08323">
        <ele>370.1</ele>
      </trkpt>
      <trkpt lat="37.05354" lon="28.08365">
        <ele>371.4</ele>
      </trkpt>
      <trkpt lat="37.05352" lon="28.0838">
        <ele>374.1</ele>
      </trkpt>
      <trkpt lat="37.05363" lon="28.08387">
        <ele>382.8</ele>
      </trkpt>
      <trkpt lat="37.05364" lon="28.08409">
        <ele>389.2</ele>
      </trkpt>
      <trkpt lat="37.05361" lon="28.08413">
        <ele>388.8</ele>
      </trkpt>
      <trkpt lat="37.0536" lon="28.08419">
        <ele>389.5</ele>
      </trkpt>
      <trkpt lat="37.05358" lon="28.08459">
        <ele>394.4</ele>
      </trkpt>
      <trkpt lat="37.05344" lon="28.08498">
        <ele>392.1</ele>
      </trkpt>
      <trkpt lat="37.05342" lon="28.08499">
        <ele>391.1</ele>
      </trkpt>
      <trkpt lat="37.05354" lon="28.08533">
        <ele>400.9</ele>
      </trkpt>
      <trkpt lat="37.05372" lon="28.08563">
        <ele>414.1</ele>
      </trkpt>
      <trkpt lat="37.05373" lon="28.08576">
        <ele>415.7</ele>
      </trkpt>
      <trkpt lat="37.05379" lon="28.08575">
        <ele>419.1</ele>
      </trkpt>
      <trkpt lat="37.0538" lon="28.08577">
        <ele>419.8</ele>
      </trkpt>
      <trkpt lat="37.05381" lon="28.08588">
        <ele>421.7</ele>
      </trkpt>
      <trkpt lat="37.05378" lon="28.08609">
        <ele>422.2</ele>
      </trkpt>
      <trkpt lat="37.05373" lon="28.08658">
        <ele>425.2</ele>
      </trkpt>
      <trkpt lat="37.05378" lon="28.08664">
        <ele>428.7</ele>
      </trkpt>
      <trkpt lat="37.05385" lon="28.08683">
        <ele>432.3</ele>
      </trkpt>
      <trkpt lat="37.05393" lon="28.08714">
        <ele>434.7</ele>
      </trkpt>
      <trkpt lat="37.05406" lon="28.08726">
        <ele>440.7</ele>
      </trkpt>
      <trkpt lat="37.05421" lon="28.0873">
        <ele>447.4</ele>
      </trkpt>
      <trkpt lat="37.05419" lon="28.08718">
        <ele>447.5</ele>
      </trkpt>
      <trkpt lat="37.05409" lon="28.08699">
        <ele>443.9</ele>
      </trkpt>
      <trkpt lat="37.05406" lon="28.08677">
        <ele>443.6</ele>
      </trkpt>
      <trkpt lat="37.05408" lon="28.08665">
        <ele>444.9</ele>
      </trkpt>
      <trkpt lat="37.05412" lon="28.08665">
        <ele>447.5</ele>
      </trkpt>
      <trkpt lat="37.05421" lon="28.08674">
        <ele>450.6</ele>
      </trkpt>
      <trkpt lat="37.05435" lon="28.08698">
        <ele>453.2</ele>
      </trkpt>
      <trkpt lat="37.05453" lon="28.08724">
        <ele>457.7</ele>
      </trkpt>
      <trkpt lat="37.05455" lon="28.08721">
        <ele>458.4</ele>
      </trkpt>
      <trkpt lat="37.05473" lon="28.08722">
        <ele>463.9</ele>
      </trkpt>
      <trkpt lat="37.05499" lon="28.08712">
        <ele>471.3</ele>
      </trkpt>
      <trkpt lat="37.05502" lon="28.08716">
        <ele>471.9</ele>
      </trkpt>
      <trkpt lat="37.05515" lon="28.08698">
        <ele>472.3</ele>
      </trkpt>
      <trkpt lat="37.05528" lon="28.0869">
        <ele>472.7</ele>
      </trkpt>
      <trkpt lat="37.05536" lon="28.08696">
        <ele>473.7</ele>
      </trkpt>
      <trkpt lat="37.05536" lon="28.08715">
        <ele>475.3</ele>
      </trkpt>
      <trkpt lat="37.05544" lon="28.08741">
        <ele>478.5</ele>
      </trkpt>
      <trkpt lat="37.05551" lon="28.08749">
        <ele>480.2</ele>
      </trkpt>
      <trkpt lat="37.05561" lon="28.08788">
        <ele>490.6</ele>
      </trkpt>
      <trkpt lat="37.05576" lon="28.08786">
        <ele>493.7</ele>
      </trkpt>
      <trkpt lat="37.05582" lon="28.08796">
        <ele>497.8</ele>
      </trkpt>
      <trkpt lat="37.05577" lon="28.08825">
        <ele>504.5</ele>
      </trkpt>
      <trkpt lat="37.05566" lon="28.08846">
        <ele>505.7</ele>
      </trkpt>
      <trkpt lat="37.05566" lon="28.08853">
        <ele>507.4</ele>
      </trkpt>
      <trkpt lat="37.05591" lon="28.08852">
        <ele>514.1</ele>
      </trkpt>
      <trkpt lat="37.056" lon="28.08854">
        <ele>515.5</ele>
      </trkpt>
      <trkpt lat="37.05606" lon="28.0886">
        <ele>517.4</ele>
      </trkpt>
      <trkpt lat="37.05606" lon="28.08875">
        <ele>521.1</ele>
      </trkpt>
      <trkpt lat="37.05613" lon="28.08893">
        <ele>526</ele>
      </trkpt>
      <trkpt lat="37.05619" lon="28.08897">
        <ele>527.5</ele>
      </trkpt>
      <trkpt lat="37.05625" lon="28.08916">
        <ele>532.9</ele>
      </trkpt>
      <trkpt lat="37.05619" lon="28.0892">
        <ele>533</ele>
      </trkpt>
      <trkpt lat="37.05622" lon="28.08923">
        <ele>533.6</ele>
      </trkpt>
      <trkpt lat="37.05642" lon="28.08922">
        <ele>535.6</ele>
      </trkpt>
      <trkpt lat="37.05632" lon="28.08922">
        <ele>534.6</ele>
      </trkpt>
      <trkpt lat="37.05643" lon="28.08933">
        <ele>537.9</ele>
      </trkpt>
      <trkpt lat="37.05652" lon="28.08954">
        <ele>543.3</ele>
      </trkpt>
      <trkpt lat="37.05658" lon="28.08959">
        <ele>545.7</ele>
      </trkpt>
      <trkpt lat="37.05661" lon="28.08971">
        <ele>548.8</ele>
      </trkpt>
      <trkpt lat="37.05672" lon="28.08986">
        <ele>554.4</ele>
      </trkpt>
      <trkpt lat="37.05676" lon="28.09004">
        <ele>558.8</ele>
      </trkpt>
      <trkpt lat="37.05674" lon="28.09019">
        <ele>560.5</ele>
      </trkpt>
      <trkpt lat="37.05677" lon="28.0904">
        <ele>563.8</ele>
      </trkpt>
      <trkpt lat="37.05681" lon="28.09046">
        <ele>565.2</ele>
      </trkpt>
      <trkpt lat="37.05707" lon="28.0911">
        <ele>577.3</ele>
      </trkpt>
      <trkpt lat="37.0572" lon="28.09123">
        <ele>581.3</ele>
      </trkpt>
      <trkpt lat="37.05721" lon="28.09137">
        <ele>582.9</ele>
      </trkpt>
      <trkpt lat="37.05727" lon="28.0915">
        <ele>586</ele>
      </trkpt>
      <trkpt lat="37.0573" lon="28.09165">
        <ele>588.5</ele>
      </trkpt>
      <trkpt lat="37.05742" lon="28.09176">
        <ele>593</ele>
      </trkpt>
      <trkpt lat="37.05761" lon="28.09198">
        <ele>599.8</ele>
      </trkpt>
      <trkpt lat="37.05776" lon="28.09227">
        <ele>605.6</ele>
      </trkpt>
      <trkpt lat="37.05787" lon="28.0924">
        <ele>608.5</ele>
      </trkpt>
      <trkpt lat="37.05794" lon="28.09266">
        <ele>611.9</ele>
      </trkpt>
      <trkpt lat="37.05805" lon="28.09279">
        <ele>614.7</ele>
      </trkpt>
      <trkpt lat="37.05813" lon="28.09285">
        <ele>616.4</ele>
      </trkpt>
      <trkpt lat="37.05821" lon="28.093">
        <ele>618.7</ele>
      </trkpt>
      <trkpt lat="37.05832" lon="28.09313">
        <ele>621.1</ele>
      </trkpt>
      <trkpt lat="37.05841" lon="28.0932">
        <ele>621.6</ele>
      </trkpt>
      <trkpt lat="37.05846" lon="28.09337">
        <ele>622.7</ele>
      </trkpt>
      <trkpt lat="37.05864" lon="28.09359">
        <ele>622</ele>
      </trkpt>
      <trkpt lat="37.05863" lon="28.09355">
        <ele>622.1</ele>
      </trkpt>
      <trkpt lat="37.05865" lon="28.09368">
        <ele>621.9</ele>
      </trkpt>
      <trkpt lat="37.0586" lon="28.0936">
        <ele>622.3</ele>
      </trkpt>
      <trkpt lat="37.05857" lon="28.09367">
        <ele>622.6</ele>
      </trkpt>
      <trkpt lat="37.05861" lon="28.0939">
        <ele>622.5</ele>
      </trkpt>
      <trkpt lat="37.05872" lon="28.09414">
        <ele>621</ele>
      </trkpt>
      <trkpt lat="37.05873" lon="28.09431">
        <ele>619.6</ele>
      </trkpt>
      <trkpt lat="37.05879" lon="28.09438">
        <ele>617.9</ele>
      </trkpt>
      <trkpt lat="37.05896" lon="28.095">
        <ele>610</ele>
      </trkpt>
      <trkpt lat="37.05902" lon="28.09521">
        <ele>607.9</ele>
      </trkpt>
      <trkpt lat="37.05904" lon="28.09543">
        <ele>606.4</ele>
      </trkpt>
      <trkpt lat="37.05911" lon="28.09566">
        <ele>605.3</ele>
      </trkpt>
      <trkpt lat="37.05927" lon="28.09587">
        <ele>601.4</ele>
      </trkpt>
      <trkpt lat="37.05945" lon="28.09635">
        <ele>595.3</ele>
      </trkpt>
      <trkpt lat="37.05983" lon="28.0968">
        <ele>584.5</ele>
      </trkpt>
      <trkpt lat="37.05994" lon="28.09712">
        <ele>583.1</ele>
      </trkpt>
      <trkpt lat="37.05994" lon="28.09736">
        <ele>584.2</ele>
      </trkpt>
      <trkpt lat="37.05992" lon="28.09768">
        <ele>582.3</ele>
      </trkpt>
      <trkpt lat="37.05996" lon="28.09785">
        <ele>579.6</ele>
      </trkpt>
      <trkpt lat="37.06008" lon="28.09803">
        <ele>575.5</ele>
      </trkpt>
      <trkpt lat="37.06023" lon="28.09816">
        <ele>572.3</ele>
      </trkpt>
      <trkpt lat="37.06038" lon="28.09837">
        <ele>569.6</ele>
      </trkpt>
      <trkpt lat="37.06057" lon="28.09854">
        <ele>566.4</ele>
      </trkpt>
      <trkpt lat="37.06069" lon="28.09875">
        <ele>564.8</ele>
      </trkpt>
      <trkpt lat="37.06088" lon="28.09887">
        <ele>565.6</ele>
      </trkpt>
      <trkpt lat="37.06094" lon="28.09894">
        <ele>565.5</ele>
      </trkpt>
      <trkpt lat="37.06143" lon="28.09926">
        <ele>569</ele>
      </trkpt>
      <trkpt lat="37.06141" lon="28.0993">
        <ele>569</ele>
      </trkpt>
      <trkpt lat="37.06155" lon="28.09954">
        <ele>572</ele>
      </trkpt>
      <trkpt lat="37.06151" lon="28.09981">
        <ele>573.3</ele>
      </trkpt>
      <trkpt lat="37.06106" lon="28.10066">
        <ele>569.7</ele>
      </trkpt>
      <trkpt lat="37.06105" lon="28.10078">
        <ele>570.6</ele>
      </trkpt>
      <trkpt lat="37.06101" lon="28.10075">
        <ele>570</ele>
      </trkpt>
      <trkpt lat="37.06103" lon="28.10077">
        <ele>570.3</ele>
      </trkpt>
      <trkpt lat="37.06103" lon="28.10075">
        <ele>570.2</ele>
      </trkpt>
      <trkpt lat="37.06108" lon="28.1009">
        <ele>570.3</ele>
      </trkpt>
      <trkpt lat="37.06128" lon="28.10112">
        <ele>569.4</ele>
      </trkpt>
      <trkpt lat="37.0615" lon="28.10106">
        <ele>572.5</ele>
      </trkpt>
      <trkpt lat="37.06168" lon="28.10086">
        <ele>576.5</ele>
      </trkpt>
      <trkpt lat="37.06176" lon="28.10069">
        <ele>576.3</ele>
      </trkpt>
      <trkpt lat="37.06192" lon="28.10057">
        <ele>575.5</ele>
      </trkpt>
      <trkpt lat="37.06212" lon="28.10054">
        <ele>574.4</ele>
      </trkpt>
      <trkpt lat="37.06235" lon="28.10045">
        <ele>574.2</ele>
      </trkpt>
      <trkpt lat="37.06263" lon="28.10023">
        <ele>577</ele>
      </trkpt>
      <trkpt lat="37.06278" lon="28.10006">
        <ele>579</ele>
      </trkpt>
      <trkpt lat="37.06298" lon="28.10004">
        <ele>578.4</ele>
      </trkpt>
      <trkpt lat="37.0631" lon="28.10009">
        <ele>577.4</ele>
      </trkpt>
      <trkpt lat="37.06348" lon="28.10033">
        <ele>576.2</ele>
      </trkpt>
      <trkpt lat="37.06364" lon="28.10036">
        <ele>576.5</ele>
      </trkpt>
      <trkpt lat="37.06371" lon="28.10033">
        <ele>576.7</ele>
      </trkpt>
      <trkpt lat="37.06386" lon="28.10042">
        <ele>576.8</ele>
      </trkpt>
      <trkpt lat="37.06392" lon="28.1005">
        <ele>576.6</ele>
      </trkpt>
      <trkpt lat="37.0641" lon="28.10108">
        <ele>577.2</ele>
      </trkpt>
      <trkpt lat="37.06401" lon="28.10133">
        <ele>578.6</ele>
      </trkpt>
      <trkpt lat="37.06407" lon="28.10161">
        <ele>580</ele>
      </trkpt>
      <trkpt lat="37.06404" lon="28.10201">
        <ele>582.5</ele>
      </trkpt>
      <trkpt lat="37.06396" lon="28.10234">
        <ele>585.2</ele>
      </trkpt>
      <trkpt lat="37.06392" lon="28.10269">
        <ele>587.5</ele>
      </trkpt>
      <trkpt lat="37.06376" lon="28.1029">
        <ele>589.2</ele>
      </trkpt>
      <trkpt lat="37.06374" lon="28.10288">
        <ele>589.2</ele>
      </trkpt>
      <trkpt lat="37.06361" lon="28.10315">
        <ele>589.7</ele>
      </trkpt>
      <trkpt lat="37.06351" lon="28.10326">
        <ele>589.6</ele>
      </trkpt>
      <trkpt lat="37.06348" lon="28.10334">
        <ele>589.4</ele>
      </trkpt>
      <trkpt lat="37.06346" lon="28.10355">
        <ele>589.9</ele>
      </trkpt>
      <trkpt lat="37.06359" lon="28.10379">
        <ele>591.9</ele>
      </trkpt>
      <trkpt lat="37.06364" lon="28.10403">
        <ele>593.6</ele>
      </trkpt>
      <trkpt lat="37.06367" lon="28.10439">
        <ele>596.8</ele>
      </trkpt>
      <trkpt lat="37.06376" lon="28.10472">
        <ele>600</ele>
      </trkpt>
      <trkpt lat="37.06381" lon="28.10484">
        <ele>600.9</ele>
      </trkpt>
      <trkpt lat="37.06386" lon="28.10489">
        <ele>601.2</ele>
      </trkpt>
      <trkpt lat="37.06391" lon="28.10498">
        <ele>601.5</ele>
      </trkpt>
      <trkpt lat="37.06408" lon="28.10512">
        <ele>601.9</ele>
      </trkpt>
      <trkpt lat="37.06429" lon="28.10522">
        <ele>602.8</ele>
      </trkpt>
      <trkpt lat="37.06451" lon="28.10524">
        <ele>604.1</ele>
      </trkpt>
      <trkpt lat="37.06464" lon="28.10537">
        <ele>605.2</ele>
      </trkpt>
      <trkpt lat="37.06476" lon="28.10545">
        <ele>605.9</ele>
      </trkpt>
      <trkpt lat="37.06484" lon="28.10573">
        <ele>606.5</ele>
      </trkpt>
      <trkpt lat="37.06499" lon="28.10602">
        <ele>609.4</ele>
      </trkpt>
      <trkpt lat="37.06504" lon="28.10638">
        <ele>614.6</ele>
      </trkpt>
      <trkpt lat="37.06504" lon="28.10638">
        <ele>614.6</ele>
      </trkpt>
      <trkpt lat="37.06503" lon="28.1067">
        <ele>618.5</ele>
      </trkpt>
      <trkpt lat="37.06506" lon="28.1072">
        <ele>621.9</ele>
      </trkpt>
      <trkpt lat="37.06498" lon="28.10731">
        <ele>621.9</ele>
      </trkpt>
      <trkpt lat="37.06474" lon="28.10742">
        <ele>623.2</ele>
      </trkpt>
      <trkpt lat="37.06461" lon="28.10755">
        <ele>625.2</ele>
      </trkpt>
      <trkpt lat="37.06452" lon="28.10762">
        <ele>626.5</ele>
      </trkpt>
      <trkpt lat="37.06445" lon="28.10773">
        <ele>628.4</ele>
      </trkpt>
      <trkpt lat="37.06442" lon="28.10786">
        <ele>630.3</ele>
      </trkpt>
      <trkpt lat="37.06445" lon="28.10797">
        <ele>631.7</ele>
      </trkpt>
      <trkpt lat="37.06447" lon="28.10821">
        <ele>635.1</ele>
      </trkpt>
      <trkpt lat="37.06447" lon="28.10821">
        <ele>635.1</ele>
      </trkpt>
      <trkpt lat="37.06448" lon="28.10821">
        <ele>635.1</ele>
      </trkpt>
      <trkpt lat="37.06448" lon="28.10821">
        <ele>635.1</ele>
      </trkpt>
      <trkpt lat="37.0646" lon="28.10817">
        <ele>634</ele>
      </trkpt>
      <trkpt lat="37.06464" lon="28.10839">
        <ele>636.8</ele>
      </trkpt>
      <trkpt lat="37.06467" lon="28.10855">
        <ele>638.3</ele>
      </trkpt>
      <trkpt lat="37.06469" lon="28.1087">
        <ele>639.5</ele>
      </trkpt>
      <trkpt lat="37.06476" lon="28.10885">
        <ele>640.4</ele>
      </trkpt>
      <trkpt lat="37.06477" lon="28.10889">
        <ele>640.7</ele>
      </trkpt>
      <trkpt lat="37.06483" lon="28.10906">
        <ele>641.7</ele>
      </trkpt>
      <trkpt lat="37.0649" lon="28.10919">
        <ele>641.9</ele>
      </trkpt>
      <trkpt lat="37.06503" lon="28.10936">
        <ele>640.3</ele>
      </trkpt>
      <trkpt lat="37.06508" lon="28.10955">
        <ele>639.6</ele>
      </trkpt>
      <trkpt lat="37.06512" lon="28.10972">
        <ele>638.9</ele>
      </trkpt>
      <trkpt lat="37.06518" lon="28.10993">
        <ele>638.1</ele>
      </trkpt>
      <trkpt lat="37.06524" lon="28.11012">
        <ele>637.7</ele>
      </trkpt>
      <trkpt lat="37.0653" lon="28.11028">
        <ele>637.5</ele>
      </trkpt>
      <trkpt lat="37.06542" lon="28.11036">
        <ele>637.3</ele>
      </trkpt>
      <trkpt lat="37.06551" lon="28.11049">
        <ele>637</ele>
      </trkpt>
      <trkpt lat="37.06551" lon="28.11068">
        <ele>636.9</ele>
      </trkpt>
      <trkpt lat="37.06557" lon="28.11086">
        <ele>636.7</ele>
      </trkpt>
      <trkpt lat="37.06563" lon="28.11103">
        <ele>637.2</ele>
      </trkpt>
      <trkpt lat="37.06574" lon="28.11122">
        <ele>637.4</ele>
      </trkpt>
      <trkpt lat="37.06574" lon="28.11134">
        <ele>637.7</ele>
      </trkpt>
      <trkpt lat="37.06573" lon="28.11141">
        <ele>638</ele>
      </trkpt>
      <trkpt lat="37.06574" lon="28.11147">
        <ele>638.1</ele>
      </trkpt>
      <trkpt lat="37.06576" lon="28.11167">
        <ele>638.5</ele>
      </trkpt>
      <trkpt lat="37.06576" lon="28.11185">
        <ele>640.8</ele>
      </trkpt>
      <trkpt lat="37.06585" lon="28.11197">
        <ele>641.6</ele>
      </trkpt>
      <trkpt lat="37.06592" lon="28.11223">
        <ele>644.1</ele>
      </trkpt>
      <trkpt lat="37.06601" lon="28.11243">
        <ele>645.4</ele>
      </trkpt>
      <trkpt lat="37.0661" lon="28.11251">
        <ele>645.3</ele>
      </trkpt>
      <trkpt lat="37.06621" lon="28.11262">
        <ele>645.2</ele>
      </trkpt>
      <trkpt lat="37.06631" lon="28.11276">
        <ele>645.2</ele>
      </trkpt>
      <trkpt lat="37.06632" lon="28.11277">
        <ele>645.2</ele>
      </trkpt>
      <trkpt lat="37.06639" lon="28.11301">
        <ele>646.3</ele>
      </trkpt>
      <trkpt lat="37.06648" lon="28.11312">
        <ele>645.7</ele>
      </trkpt>
      <trkpt lat="37.06657" lon="28.11325">
        <ele>645.2</ele>
      </trkpt>
      <trkpt lat="37.06665" lon="28.11342">
        <ele>644.8</ele>
      </trkpt>
      <trkpt lat="37.06667" lon="28.11352">
        <ele>644.9</ele>
      </trkpt>
      <trkpt lat="37.06666" lon="28.11367">
        <ele>645.8</ele>
      </trkpt>
      <trkpt lat="37.06664" lon="28.11372">
        <ele>646.5</ele>
      </trkpt>
      <trkpt lat="37.06664" lon="28.11383">
        <ele>647.1</ele>
      </trkpt>
      <trkpt lat="37.06664" lon="28.11402">
        <ele>647.9</ele>
      </trkpt>
      <trkpt lat="37.06664" lon="28.11423">
        <ele>649.1</ele>
      </trkpt>
      <trkpt lat="37.06662" lon="28.11441">
        <ele>650.4</ele>
      </trkpt>
      <trkpt lat="37.06664" lon="28.11464">
        <ele>651.1</ele>
      </trkpt>
      <trkpt lat="37.06663" lon="28.1148">
        <ele>651.9</ele>
      </trkpt>
      <trkpt lat="37.06666" lon="28.11495">
        <ele>652</ele>
      </trkpt>
      <trkpt lat="37.06669" lon="28.11514">
        <ele>653.1</ele>
      </trkpt>
      <trkpt lat="37.06666" lon="28.11534">
        <ele>655.4</ele>
      </trkpt>
      <trkpt lat="37.06665" lon="28.11553">
        <ele>657.2</ele>
      </trkpt>
      <trkpt lat="37.06668" lon="28.11567">
        <ele>658.2</ele>
      </trkpt>
      <trkpt lat="37.06671" lon="28.11578">
        <ele>658.8</ele>
      </trkpt>
      <trkpt lat="37.06672" lon="28.11579">
        <ele>658.9</ele>
      </trkpt>
      <trkpt lat="37.0667" lon="28.11594">
        <ele>660.4</ele>
      </trkpt>
      <trkpt lat="37.06667" lon="28.11605">
        <ele>661.8</ele>
      </trkpt>
      <trkpt lat="37.06662" lon="28.11613">
        <ele>662.5</ele>
      </trkpt>
      <trkpt lat="37.06657" lon="28.11624">
        <ele>663.3</ele>
      </trkpt>
      <trkpt lat="37.06653" lon="28.11635">
        <ele>664</ele>
      </trkpt>
      <trkpt lat="37.06647" lon="28.11644">
        <ele>664.3</ele>
      </trkpt>
      <trkpt lat="37.06644" lon="28.11651">
        <ele>664.6</ele>
      </trkpt>
      <trkpt lat="37.06641" lon="28.11664">
        <ele>665</ele>
      </trkpt>
      <trkpt lat="37.06636" lon="28.11663">
        <ele>664.7</ele>
      </trkpt>
      <trkpt lat="37.06631" lon="28.11659">
        <ele>664.2</ele>
      </trkpt>
      <trkpt lat="37.06628" lon="28.11669">
        <ele>664.5</ele>
      </trkpt>
      <trkpt lat="37.06624" lon="28.1168">
        <ele>665.5</ele>
      </trkpt>
      <trkpt lat="37.06621" lon="28.11689">
        <ele>666.3</ele>
      </trkpt>
      <trkpt lat="37.06617" lon="28.11698">
        <ele>666.9</ele>
      </trkpt>
      <trkpt lat="37.06615" lon="28.11712">
        <ele>668.1</ele>
      </trkpt>
      <trkpt lat="37.06617" lon="28.1172">
        <ele>669.3</ele>
      </trkpt>
      <trkpt lat="37.06619" lon="28.1173">
        <ele>670.7</ele>
      </trkpt>
      <trkpt lat="37.06619" lon="28.11736">
        <ele>671.3</ele>
      </trkpt>
      <trkpt lat="37.06617" lon="28.11741">
        <ele>671.6</ele>
      </trkpt>
      <trkpt lat="37.06615" lon="28.11758">
        <ele>673.5</ele>
      </trkpt>
      <trkpt lat="37.06612" lon="28.11771">
        <ele>674.8</ele>
      </trkpt>
      <trkpt lat="37.06612" lon="28.11774">
        <ele>675.2</ele>
      </trkpt>
      <trkpt lat="37.06609" lon="28.11787">
        <ele>676.4</ele>
      </trkpt>
      <trkpt lat="37.06604" lon="28.11798">
        <ele>676.5</ele>
      </trkpt>
      <trkpt lat="37.06602" lon="28.11799">
        <ele>676.3</ele>
      </trkpt>
      <trkpt lat="37.06598" lon="28.11806">
        <ele>676</ele>
      </trkpt>
      <trkpt lat="37.06596" lon="28.11826">
        <ele>677.9</ele>
      </trkpt>
      <trkpt lat="37.06596" lon="28.11842">
        <ele>678.2</ele>
      </trkpt>
      <trkpt lat="37.06597" lon="28.1186">
        <ele>677.6</ele>
      </trkpt>
      <trkpt lat="37.06598" lon="28.11863">
        <ele>677.5</ele>
      </trkpt>
      <trkpt lat="37.06598" lon="28.11882">
        <ele>676.6</ele>
      </trkpt>
      <trkpt lat="37.06599" lon="28.11901">
        <ele>675.7</ele>
      </trkpt>
      <trkpt lat="37.06599" lon="28.1192">
        <ele>674.7</ele>
      </trkpt>
      <trkpt lat="37.06603" lon="28.11944">
        <ele>675.6</ele>
      </trkpt>
      <trkpt lat="37.06607" lon="28.11964">
        <ele>676.4</ele>
      </trkpt>
      <trkpt lat="37.06612" lon="28.11985">
        <ele>677.4</ele>
      </trkpt>
      <trkpt lat="37.06619" lon="28.11999">
        <ele>679.1</ele>
      </trkpt>
      <trkpt lat="37.06632" lon="28.12017">
        <ele>681.2</ele>
      </trkpt>
      <trkpt lat="37.0664" lon="28.12038">
        <ele>681.2</ele>
      </trkpt>
      <trkpt lat="37.06644" lon="28.12051">
        <ele>680.6</ele>
      </trkpt>
      <trkpt lat="37.06647" lon="28.12058">
        <ele>680.3</ele>
      </trkpt>
      <trkpt lat="37.06649" lon="28.12062">
        <ele>680.4</ele>
      </trkpt>
      <trkpt lat="37.0666" lon="28.1208">
        <ele>680.1</ele>
      </trkpt>
      <trkpt lat="37.06668" lon="28.12099">
        <ele>677.9</ele>
      </trkpt>
      <trkpt lat="37.06676" lon="28.12115">
        <ele>676.1</ele>
      </trkpt>
      <trkpt lat="37.06679" lon="28.12117">
        <ele>676.1</ele>
      </trkpt>
      <trkpt lat="37.06688" lon="28.12128">
        <ele>675.4</ele>
      </trkpt>
      <trkpt lat="37.06692" lon="28.12145">
        <ele>671.5</ele>
      </trkpt>
      <trkpt lat="37.06695" lon="28.12156">
        <ele>669.2</ele>
      </trkpt>
      <trkpt lat="37.06696" lon="28.12159">
        <ele>668.5</ele>
      </trkpt>
      <trkpt lat="37.06694" lon="28.1217">
        <ele>666.2</ele>
      </trkpt>
      <trkpt lat="37.06693" lon="28.12182">
        <ele>665.9</ele>
      </trkpt>
      <trkpt lat="37.06694" lon="28.12185">
        <ele>665.9</ele>
      </trkpt>
      <trkpt lat="37.06694" lon="28.12196">
        <ele>665.7</ele>
      </trkpt>
      <trkpt lat="37.06696" lon="28.12202">
        <ele>665.8</ele>
      </trkpt>
      <trkpt lat="37.06696" lon="28.12222">
        <ele>665.6</ele>
      </trkpt>
      <trkpt lat="37.06698" lon="28.12244">
        <ele>665.5</ele>
      </trkpt>
      <trkpt lat="37.06699" lon="28.12269">
        <ele>666.7</ele>
      </trkpt>
      <trkpt lat="37.06699" lon="28.12285">
        <ele>667.8</ele>
      </trkpt>
      <trkpt lat="37.06699" lon="28.12315">
        <ele>669.6</ele>
      </trkpt>
      <trkpt lat="37.06699" lon="28.12332">
        <ele>670.6</ele>
      </trkpt>
      <trkpt lat="37.067" lon="28.12355">
        <ele>672.4</ele>
      </trkpt>
      <trkpt lat="37.06701" lon="28.12377">
        <ele>673.9</ele>
      </trkpt>
      <trkpt lat="37.06701" lon="28.1238">
        <ele>674.2</ele>
      </trkpt>
      <trkpt lat="37.06702" lon="28.12387">
        <ele>674.8</ele>
      </trkpt>
      <trkpt lat="37.06705" lon="28.12423">
        <ele>677</ele>
      </trkpt>
      <trkpt lat="37.06712" lon="28.12447">
        <ele>677.3</ele>
      </trkpt>
      <trkpt lat="37.06714" lon="28.12464">
        <ele>677.2</ele>
      </trkpt>
      <trkpt lat="37.06719" lon="28.12484">
        <ele>677.1</ele>
      </trkpt>
      <trkpt lat="37.06728" lon="28.12505">
        <ele>677</ele>
      </trkpt>
      <trkpt lat="37.06743" lon="28.1251">
        <ele>677.5</ele>
      </trkpt>
      <trkpt lat="37.06754" lon="28.12515">
        <ele>678.3</ele>
      </trkpt>
      <trkpt lat="37.06772" lon="28.12531">
        <ele>680.5</ele>
      </trkpt>
      <trkpt lat="37.06778" lon="28.12544">
        <ele>680.4</ele>
      </trkpt>
      <trkpt lat="37.06786" lon="28.12565">
        <ele>680.2</ele>
      </trkpt>
      <trkpt lat="37.06791" lon="28.12587">
        <ele>679</ele>
      </trkpt>
      <trkpt lat="37.06797" lon="28.12611">
        <ele>678.3</ele>
      </trkpt>
      <trkpt lat="37.06805" lon="28.12629">
        <ele>678.2</ele>
      </trkpt>
      <trkpt lat="37.06813" lon="28.12654">
        <ele>677.6</ele>
      </trkpt>
      <trkpt lat="37.06827" lon="28.12673">
        <ele>678.3</ele>
      </trkpt>
      <trkpt lat="37.0684" lon="28.12688">
        <ele>679.9</ele>
      </trkpt>
      <trkpt lat="37.06856" lon="28.12702">
        <ele>683.2</ele>
      </trkpt>
      <trkpt lat="37.06867" lon="28.12711">
        <ele>685.1</ele>
      </trkpt>
      <trkpt lat="37.06867" lon="28.12725">
        <ele>683.5</ele>
      </trkpt>
      <trkpt lat="37.06865" lon="28.12734">
        <ele>682</ele>
      </trkpt>
      <trkpt lat="37.06871" lon="28.12754">
        <ele>681.7</ele>
      </trkpt>
      <trkpt lat="37.06876" lon="28.12765">
        <ele>683.4</ele>
      </trkpt>
      <trkpt lat="37.0689" lon="28.12788">
        <ele>686.4</ele>
      </trkpt>
      <trkpt lat="37.06908" lon="28.12792">
        <ele>688.8</ele>
      </trkpt>
      <trkpt lat="37.06909" lon="28.12793">
        <ele>688.9</ele>
      </trkpt>
      <trkpt lat="37.06921" lon="28.12792">
        <ele>690.4</ele>
      </trkpt>
      <trkpt lat="37.06931" lon="28.12798">
        <ele>690.8</ele>
      </trkpt>
      <trkpt lat="37.06944" lon="28.12811">
        <ele>690.3</ele>
      </trkpt>
      <trkpt lat="37.06954" lon="28.12823">
        <ele>689.1</ele>
      </trkpt>
      <trkpt lat="37.06966" lon="28.12836">
        <ele>687.5</ele>
      </trkpt>
      <trkpt lat="37.0698" lon="28.12844">
        <ele>687.2</ele>
      </trkpt>
      <trkpt lat="37.06985" lon="28.12849">
        <ele>686.8</ele>
      </trkpt>
      <trkpt lat="37.06999" lon="28.12852">
        <ele>686.1</ele>
      </trkpt>
      <trkpt lat="37.07014" lon="28.12854">
        <ele>684.4</ele>
      </trkpt>
      <trkpt lat="37.07024" lon="28.12852">
        <ele>683.6</ele>
      </trkpt>
      <trkpt lat="37.07026" lon="28.12851">
        <ele>683.5</ele>
      </trkpt>
      <trkpt lat="37.07034" lon="28.12854">
        <ele>682.4</ele>
      </trkpt>
      <trkpt lat="37.07048" lon="28.12859">
        <ele>680.1</ele>
      </trkpt>
      <trkpt lat="37.07062" lon="28.12862">
        <ele>678.1</ele>
      </trkpt>
      <trkpt lat="37.0707" lon="28.12864">
        <ele>677</ele>
      </trkpt>
      <trkpt lat="37.07081" lon="28.1287">
        <ele>674.7</ele>
      </trkpt>
      <trkpt lat="37.07094" lon="28.1287">
        <ele>673.8</ele>
      </trkpt>
      <trkpt lat="37.07103" lon="28.1287">
        <ele>673</ele>
      </trkpt>
      <trkpt lat="37.07121" lon="28.12867">
        <ele>672.2</ele>
      </trkpt>
      <trkpt lat="37.07131" lon="28.12875">
        <ele>670.6</ele>
      </trkpt>
      <trkpt lat="37.07137" lon="28.12889">
        <ele>669.1</ele>
      </trkpt>
      <trkpt lat="37.07152" lon="28.12908">
        <ele>667.4</ele>
      </trkpt>
      <trkpt lat="37.07161" lon="28.12925">
        <ele>666.8</ele>
      </trkpt>
      <trkpt lat="37.07164" lon="28.1294">
        <ele>666.7</ele>
      </trkpt>
      <trkpt lat="37.07169" lon="28.12954">
        <ele>666.6</ele>
      </trkpt>
      <trkpt lat="37.07182" lon="28.12975">
        <ele>666.7</ele>
      </trkpt>
      <trkpt lat="37.07186" lon="28.12979">
        <ele>666.7</ele>
      </trkpt>
      <trkpt lat="37.0719" lon="28.1299">
        <ele>666.7</ele>
      </trkpt>
      <trkpt lat="37.07193" lon="28.12996">
        <ele>666.7</ele>
      </trkpt>
      <trkpt lat="37.07201" lon="28.13009">
        <ele>666.8</ele>
      </trkpt>
      <trkpt lat="37.07204" lon="28.13012">
        <ele>666.8</ele>
      </trkpt>
      <trkpt lat="37.07214" lon="28.13014">
        <ele>667</ele>
      </trkpt>
      <trkpt lat="37.07218" lon="28.13013">
        <ele>667.1</ele>
      </trkpt>
      <trkpt lat="37.07225" lon="28.13013">
        <ele>667.3</ele>
      </trkpt>
      <trkpt lat="37.07239" lon="28.13008">
        <ele>667.6</ele>
      </trkpt>
      <trkpt lat="37.07252" lon="28.13007">
        <ele>668</ele>
      </trkpt>
      <trkpt lat="37.07264" lon="28.13018">
        <ele>668.4</ele>
      </trkpt>
      <trkpt lat="37.07278" lon="28.13033">
        <ele>669.1</ele>
      </trkpt>
      <trkpt lat="37.07296" lon="28.13034">
        <ele>670.1</ele>
      </trkpt>
      <trkpt lat="37.07313" lon="28.1303">
        <ele>671</ele>
      </trkpt>
      <trkpt lat="37.07325" lon="28.13025">
        <ele>671.5</ele>
      </trkpt>
      <trkpt lat="37.07341" lon="28.13037">
        <ele>673.3</ele>
      </trkpt>
      <trkpt lat="37.07357" lon="28.13056">
        <ele>676</ele>
      </trkpt>
      <trkpt lat="37.0737" lon="28.13069">
        <ele>678.3</ele>
      </trkpt>
      <trkpt lat="37.07381" lon="28.13074">
        <ele>679.9</ele>
      </trkpt>
      <trkpt lat="37.07383" lon="28.13075">
        <ele>680.2</ele>
      </trkpt>
      <trkpt lat="37.07393" lon="28.13061">
        <ele>680.9</ele>
      </trkpt>
      <trkpt lat="37.07401" lon="28.13039">
        <ele>680.9</ele>
      </trkpt>
      <trkpt lat="37.07409" lon="28.13018">
        <ele>681</ele>
      </trkpt>
      <trkpt lat="37.07416" lon="28.12998">
        <ele>680.8</ele>
      </trkpt>
      <trkpt lat="37.07418" lon="28.12987">
        <ele>680.7</ele>
      </trkpt>
      <trkpt lat="37.07423" lon="28.12971">
        <ele>680.8</ele>
      </trkpt>
      <trkpt lat="37.07433" lon="28.12962">
        <ele>682.1</ele>
      </trkpt>
      <trkpt lat="37.07446" lon="28.12956">
        <ele>684.1</ele>
      </trkpt>
      <trkpt lat="37.07454" lon="28.12956">
        <ele>685.7</ele>
      </trkpt>
      <trkpt lat="37.07469" lon="28.12948">
        <ele>687.8</ele>
      </trkpt>
      <trkpt lat="37.07483" lon="28.1295">
        <ele>690.3</ele>
      </trkpt>
      <trkpt lat="37.07485" lon="28.12956">
        <ele>691.1</ele>
      </trkpt>
      <trkpt lat="37.07487" lon="28.12959">
        <ele>691.7</ele>
      </trkpt>
      <trkpt lat="37.07493" lon="28.12963">
        <ele>693.1</ele>
      </trkpt>
      <trkpt lat="37.07499" lon="28.12958">
        <ele>693.8</ele>
      </trkpt>
      <trkpt lat="37.07499" lon="28.12958">
        <ele>693.8</ele>
      </trkpt>
      <trkpt lat="37.07499" lon="28.12958">
        <ele>693.8</ele>
      </trkpt>
      <trkpt lat="37.07499" lon="28.12958">
        <ele>693.8</ele>
      </trkpt>
      <trkpt lat="37.07499" lon="28.12958">
        <ele>693.8</ele>
      </trkpt>
      <trkpt lat="37.07493" lon="28.12957">
        <ele>692.6</ele>
      </trkpt>
      <trkpt lat="37.07485" lon="28.12949">
        <ele>690.6</ele>
      </trkpt>
      <trkpt lat="37.07484" lon="28.12947">
        <ele>690.2</ele>
      </trkpt>
      <trkpt lat="37.07476" lon="28.12945">
        <ele>688.8</ele>
      </trkpt>
      <trkpt lat="37.07461" lon="28.12953">
        <ele>686.6</ele>
      </trkpt>
      <trkpt lat="37.07459" lon="28.12954">
        <ele>686.3</ele>
      </trkpt>
      <trkpt lat="37.07453" lon="28.1295">
        <ele>685.1</ele>
      </trkpt>
      <trkpt lat="37.07442" lon="28.12952">
        <ele>683.2</ele>
      </trkpt>
      <trkpt lat="37.07432" lon="28.1296">
        <ele>681.9</ele>
      </trkpt>
      <trkpt lat="37.07426" lon="28.12966">
        <ele>681.1</ele>
      </trkpt>
      <trkpt lat="37.07423" lon="28.12978">
        <ele>681</ele>
      </trkpt>
      <trkpt lat="37.07421" lon="28.12983">
        <ele>680.9</ele>
      </trkpt>
      <trkpt lat="37.07411" lon="28.13005">
        <ele>680.5</ele>
      </trkpt>
      <trkpt lat="37.07401" lon="28.13036">
        <ele>680.8</ele>
      </trkpt>
      <trkpt lat="37.074" lon="28.1304">
        <ele>680.8</ele>
      </trkpt>
      <trkpt lat="37.07399" lon="28.13039">
        <ele>680.7</ele>
      </trkpt>
      <trkpt lat="37.07397" lon="28.13049">
        <ele>680.8</ele>
      </trkpt>
      <trkpt lat="37.07391" lon="28.13061">
        <ele>680.6</ele>
      </trkpt>
      <trkpt lat="37.07388" lon="28.13068">
        <ele>680.5</ele>
      </trkpt>
      <trkpt lat="37.07386" lon="28.13076">
        <ele>680.6</ele>
      </trkpt>
      <trkpt lat="37.07383" lon="28.13087">
        <ele>680.7</ele>
      </trkpt>
      <trkpt lat="37.07376" lon="28.13093">
        <ele>680</ele>
      </trkpt>
      <trkpt lat="37.07361" lon="28.13109">
        <ele>678.6</ele>
      </trkpt>
      <trkpt lat="37.07355" lon="28.13122">
        <ele>678.2</ele>
      </trkpt>
      <trkpt lat="37.07352" lon="28.13121">
        <ele>677.9</ele>
      </trkpt>
      <trkpt lat="37.07345" lon="28.13128">
        <ele>677.1</ele>
      </trkpt>
      <trkpt lat="37.07335" lon="28.13125">
        <ele>675.7</ele>
      </trkpt>
      <trkpt lat="37.07328" lon="28.13115">
        <ele>674.7</ele>
      </trkpt>
      <trkpt lat="37.07306" lon="28.1312">
        <ele>673.3</ele>
      </trkpt>
      <trkpt lat="37.07294" lon="28.13123">
        <ele>672.6</ele>
      </trkpt>
      <trkpt lat="37.07291" lon="28.13122">
        <ele>672.3</ele>
      </trkpt>
      <trkpt lat="37.07282" lon="28.13137">
        <ele>672.4</ele>
      </trkpt>
      <trkpt lat="37.07283" lon="28.13137">
        <ele>672.5</ele>
      </trkpt>
      <trkpt lat="37.07281" lon="28.13142">
        <ele>672.6</ele>
      </trkpt>
      <trkpt lat="37.07274" lon="28.1316">
        <ele>673.1</ele>
      </trkpt>
      <trkpt lat="37.07271" lon="28.13168">
        <ele>673.4</ele>
      </trkpt>
      <trkpt lat="37.07269" lon="28.13175">
        <ele>674.2</ele>
      </trkpt>
      <trkpt lat="37.07269" lon="28.13172">
        <ele>673.9</ele>
      </trkpt>
      <trkpt lat="37.07264" lon="28.13177">
        <ele>674.3</ele>
      </trkpt>
      <trkpt lat="37.07259" lon="28.13177">
        <ele>674.1</ele>
      </trkpt>
      <trkpt lat="37.07255" lon="28.13182">
        <ele>674.6</ele>
      </trkpt>
      <trkpt lat="37.07253" lon="28.13188">
        <ele>675.4</ele>
      </trkpt>
      <trkpt lat="37.07253" lon="28.13194">
        <ele>676.4</ele>
      </trkpt>
      <trkpt lat="37.07254" lon="28.13197">
        <ele>676.9</ele>
      </trkpt>
      <trkpt lat="37.07245" lon="28.13199">
        <ele>677.2</ele>
      </trkpt>
      <trkpt lat="37.07236" lon="28.13191">
        <ele>676</ele>
      </trkpt>
      <trkpt lat="37.07222" lon="28.13194">
        <ele>676.7</ele>
      </trkpt>
      <trkpt lat="37.07222" lon="28.13194">
        <ele>676.7</ele>
      </trkpt>
      <trkpt lat="37.07211" lon="28.13199">
        <ele>677.7</ele>
      </trkpt>
      <trkpt lat="37.07199" lon="28.13198">
        <ele>677.6</ele>
      </trkpt>
      <trkpt lat="37.07182" lon="28.13195">
        <ele>677.5</ele>
      </trkpt>
      <trkpt lat="37.07166" lon="28.132">
        <ele>678.3</ele>
      </trkpt>
      <trkpt lat="37.07162" lon="28.13204">
        <ele>678.8</ele>
      </trkpt>
      <trkpt lat="37.07161" lon="28.13202">
        <ele>678.5</ele>
      </trkpt>
      <trkpt lat="37.07146" lon="28.13207">
        <ele>678.8</ele>
      </trkpt>
      <trkpt lat="37.07123" lon="28.13211">
        <ele>678.7</ele>
      </trkpt>
      <trkpt lat="37.07084" lon="28.13216">
        <ele>678.1</ele>
      </trkpt>
      <trkpt lat="37.07029" lon="28.13223">
        <ele>673.3</ele>
      </trkpt>
      <trkpt lat="37.07" lon="28.13225">
        <ele>670.5</ele>
      </trkpt>
      <trkpt lat="37.06963" lon="28.13264">
        <ele>670.6</ele>
      </trkpt>
      <trkpt lat="37.06947" lon="28.13289">
        <ele>672</ele>
      </trkpt>
      <trkpt lat="37.06906" lon="28.13312">
        <ele>673.7</ele>
      </trkpt>
      <trkpt lat="37.06884" lon="28.1331">
        <ele>673.8</ele>
      </trkpt>
      <trkpt lat="37.06801" lon="28.13272">
        <ele>669.4</ele>
      </trkpt>
      <trkpt lat="37.06744" lon="28.13248">
        <ele>667.4</ele>
      </trkpt>
      <trkpt lat="37.06733" lon="28.13246">
        <ele>666.3</ele>
      </trkpt>
      <trkpt lat="37.06702" lon="28.13224">
        <ele>662.7</ele>
      </trkpt>
      <trkpt lat="37.06687" lon="28.132">
        <ele>660.8</ele>
      </trkpt>
      <trkpt lat="37.06674" lon="28.13172">
        <ele>659.3</ele>
      </trkpt>
      <trkpt lat="37.06658" lon="28.13177">
        <ele>660.4</ele>
      </trkpt>
      <trkpt lat="37.06655" lon="28.1318">
        <ele>661</ele>
      </trkpt>
      <trkpt lat="37.06642" lon="28.13181">
        <ele>663</ele>
      </trkpt>
      <trkpt lat="37.06635" lon="28.1318">
        <ele>664</ele>
      </trkpt>
      <trkpt lat="37.06622" lon="28.13176">
        <ele>665.5</ele>
      </trkpt>
      <trkpt lat="37.06616" lon="28.1317">
        <ele>665.9</ele>
      </trkpt>
      <trkpt lat="37.06616" lon="28.1317">
        <ele>665.9</ele>
      </trkpt>
      <trkpt lat="37.06615" lon="28.1316">
        <ele>665.5</ele>
      </trkpt>
      <trkpt lat="37.06607" lon="28.13157">
        <ele>666.3</ele>
      </trkpt>
      <trkpt lat="37.06602" lon="28.13157">
        <ele>667</ele>
      </trkpt>
      <trkpt lat="37.06595" lon="28.13156">
        <ele>667.8</ele>
      </trkpt>
      <trkpt lat="37.06582" lon="28.13153">
        <ele>669.2</ele>
      </trkpt>
      <trkpt lat="37.06572" lon="28.13157">
        <ele>670.8</ele>
      </trkpt>
      <trkpt lat="37.06569" lon="28.13156">
        <ele>671.2</ele>
      </trkpt>
      <trkpt lat="37.06562" lon="28.13159">
        <ele>672.4</ele>
      </trkpt>
      <trkpt lat="37.06555" lon="28.13165">
        <ele>673.7</ele>
      </trkpt>
      <trkpt lat="37.06549" lon="28.13172">
        <ele>675.1</ele>
      </trkpt>
      <trkpt lat="37.06539" lon="28.13172">
        <ele>676.4</ele>
      </trkpt>
      <trkpt lat="37.06535" lon="28.13172">
        <ele>676.9</ele>
      </trkpt>
      <trkpt lat="37.06528" lon="28.13177">
        <ele>678.3</ele>
      </trkpt>
      <trkpt lat="37.06527" lon="28.13186">
        <ele>679.3</ele>
      </trkpt>
      <trkpt lat="37.06527" lon="28.13198">
        <ele>680.5</ele>
      </trkpt>
      <trkpt lat="37.06528" lon="28.13204">
        <ele>681.1</ele>
      </trkpt>
      <trkpt lat="37.06524" lon="28.13217">
        <ele>682.9</ele>
      </trkpt>
      <trkpt lat="37.06515" lon="28.13234">
        <ele>685.6</ele>
      </trkpt>
      <trkpt lat="37.06505" lon="28.13243">
        <ele>687.8</ele>
      </trkpt>
      <trkpt lat="37.06503" lon="28.13244">
        <ele>688</ele>
      </trkpt>
      <trkpt lat="37.06498" lon="28.13248">
        <ele>688.6</ele>
      </trkpt>
      <trkpt lat="37.06485" lon="28.13254">
        <ele>687.5</ele>
      </trkpt>
      <trkpt lat="37.06475" lon="28.1326">
        <ele>686.5</ele>
      </trkpt>
      <trkpt lat="37.06461" lon="28.13264">
        <ele>684.9</ele>
      </trkpt>
      <trkpt lat="37.06451" lon="28.13267">
        <ele>683.6</ele>
      </trkpt>
      <trkpt lat="37.06442" lon="28.13265">
        <ele>682.3</ele>
      </trkpt>
      <trkpt lat="37.06433" lon="28.13264">
        <ele>681.1</ele>
      </trkpt>
      <trkpt lat="37.06434" lon="28.13264">
        <ele>681.2</ele>
      </trkpt>
      <trkpt lat="37.0643" lon="28.13259">
        <ele>680.6</ele>
      </trkpt>
      <trkpt lat="37.06412" lon="28.13252">
        <ele>678.4</ele>
      </trkpt>
      <trkpt lat="37.06395" lon="28.13253">
        <ele>676.3</ele>
      </trkpt>
      <trkpt lat="37.06376" lon="28.13248">
        <ele>674</ele>
      </trkpt>
      <trkpt lat="37.06354" lon="28.13255">
        <ele>671.3</ele>
      </trkpt>
      <trkpt lat="37.06338" lon="28.13258">
        <ele>669.2</ele>
      </trkpt>
      <trkpt lat="37.06337" lon="28.13259">
        <ele>669.1</ele>
      </trkpt>
      <trkpt lat="37.06326" lon="28.13256">
        <ele>667.7</ele>
      </trkpt>
      <trkpt lat="37.06315" lon="28.1325">
        <ele>666.2</ele>
      </trkpt>
      <trkpt lat="37.06314" lon="28.1325">
        <ele>666</ele>
      </trkpt>
      <trkpt lat="37.06303" lon="28.13244">
        <ele>664</ele>
      </trkpt>
      <trkpt lat="37.06299" lon="28.13243">
        <ele>663.4</ele>
      </trkpt>
      <trkpt lat="37.06294" lon="28.13245">
        <ele>662.7</ele>
      </trkpt>
      <trkpt lat="37.06293" lon="28.13244">
        <ele>662.5</ele>
      </trkpt>
      <trkpt lat="37.06282" lon="28.13246">
        <ele>660.9</ele>
      </trkpt>
      <trkpt lat="37.06275" lon="28.13245">
        <ele>659.8</ele>
      </trkpt>
      <trkpt lat="37.06268" lon="28.13242">
        <ele>658.7</ele>
      </trkpt>
      <trkpt lat="37.06255" lon="28.13242">
        <ele>656.7</ele>
      </trkpt>
      <trkpt lat="37.06241" lon="28.1324">
        <ele>656.3</ele>
      </trkpt>
      <trkpt lat="37.06229" lon="28.13237">
        <ele>656.8</ele>
      </trkpt>
      <trkpt lat="37.0622" lon="28.13235">
        <ele>657.2</ele>
      </trkpt>
      <trkpt lat="37.0621" lon="28.13237">
        <ele>657.7</ele>
      </trkpt>
      <trkpt lat="37.06206" lon="28.1324">
        <ele>657.8</ele>
      </trkpt>
      <trkpt lat="37.06201" lon="28.13243">
        <ele>657.9</ele>
      </trkpt>
      <trkpt lat="37.06199" lon="28.1325">
        <ele>657.8</ele>
      </trkpt>
      <trkpt lat="37.06198" lon="28.13252">
        <ele>657.9</ele>
      </trkpt>
      <trkpt lat="37.06195" lon="28.13271">
        <ele>658.1</ele>
      </trkpt>
      <trkpt lat="37.06194" lon="28.13278">
        <ele>658.1</ele>
      </trkpt>
      <trkpt lat="37.06186" lon="28.13288">
        <ele>658.3</ele>
      </trkpt>
      <trkpt lat="37.06185" lon="28.13293">
        <ele>658.3</ele>
      </trkpt>
      <trkpt lat="37.06184" lon="28.13295">
        <ele>658.3</ele>
      </trkpt>
      <trkpt lat="37.06178" lon="28.13314">
        <ele>658.2</ele>
      </trkpt>
      <trkpt lat="37.06171" lon="28.13324">
        <ele>658.1</ele>
      </trkpt>
      <trkpt lat="37.06169" lon="28.13327">
        <ele>658.1</ele>
      </trkpt>
      <trkpt lat="37.06164" lon="28.13339">
        <ele>658.5</ele>
      </trkpt>
      <trkpt lat="37.06163" lon="28.13342">
        <ele>658.8</ele>
      </trkpt>
      <trkpt lat="37.06155" lon="28.13353">
        <ele>660.6</ele>
      </trkpt>
      <trkpt lat="37.06153" lon="28.13361">
        <ele>661</ele>
      </trkpt>
      <trkpt lat="37.06153" lon="28.13364">
        <ele>661.2</ele>
      </trkpt>
      <trkpt lat="37.06151" lon="28.13373">
        <ele>661.7</ele>
      </trkpt>
      <trkpt lat="37.0615" lon="28.13376">
        <ele>661.9</ele>
      </trkpt>
      <trkpt lat="37.06145" lon="28.13395">
        <ele>663.2</ele>
      </trkpt>
      <trkpt lat="37.06144" lon="28.134">
        <ele>663.5</ele>
      </trkpt>
      <trkpt lat="37.06143" lon="28.13417">
        <ele>664</ele>
      </trkpt>
      <trkpt lat="37.0614" lon="28.13424">
        <ele>664.6</ele>
      </trkpt>
      <trkpt lat="37.0614" lon="28.13433">
        <ele>664.6</ele>
      </trkpt>
      <trkpt lat="37.06137" lon="28.13443">
        <ele>665</ele>
      </trkpt>
      <trkpt lat="37.06138" lon="28.13454">
        <ele>664.8</ele>
      </trkpt>
      <trkpt lat="37.06139" lon="28.13458">
        <ele>664.5</ele>
      </trkpt>
      <trkpt lat="37.06134" lon="28.1347">
        <ele>665.1</ele>
      </trkpt>
      <trkpt lat="37.06131" lon="28.13475">
        <ele>665.5</ele>
      </trkpt>
      <trkpt lat="37.06131" lon="28.1348">
        <ele>665.4</ele>
      </trkpt>
      <trkpt lat="37.06134" lon="28.13489">
        <ele>664.7</ele>
      </trkpt>
      <trkpt lat="37.06133" lon="28.13496">
        <ele>664.7</ele>
      </trkpt>
      <trkpt lat="37.06128" lon="28.13506">
        <ele>665.2</ele>
      </trkpt>
      <trkpt lat="37.06124" lon="28.1352">
        <ele>665.5</ele>
      </trkpt>
      <trkpt lat="37.06118" lon="28.13533">
        <ele>665.9</ele>
      </trkpt>
      <trkpt lat="37.06114" lon="28.13542">
        <ele>666.1</ele>
      </trkpt>
      <trkpt lat="37.06112" lon="28.13547">
        <ele>666.2</ele>
      </trkpt>
      <trkpt lat="37.06108" lon="28.13555">
        <ele>666.3</ele>
      </trkpt>
      <trkpt lat="37.06104" lon="28.13559">
        <ele>666.5</ele>
      </trkpt>
      <trkpt lat="37.06098" lon="28.13572">
        <ele>666.6</ele>
      </trkpt>
      <trkpt lat="37.06099" lon="28.13573">
        <ele>666.5</ele>
      </trkpt>
      <trkpt lat="37.06098" lon="28.13573">
        <ele>666.6</ele>
      </trkpt>
      <trkpt lat="37.06095" lon="28.13575">
        <ele>666.7</ele>
      </trkpt>
      <trkpt lat="37.06083" lon="28.13579">
        <ele>667.2</ele>
      </trkpt>
      <trkpt lat="37.0608" lon="28.13577">
        <ele>668</ele>
      </trkpt>
      <trkpt lat="37.06075" lon="28.13589">
        <ele>669.4</ele>
      </trkpt>
      <trkpt lat="37.06073" lon="28.13592">
        <ele>670</ele>
      </trkpt>
      <trkpt lat="37.06066" lon="28.13601">
        <ele>672.1</ele>
      </trkpt>
      <trkpt lat="37.06064" lon="28.13602">
        <ele>672.6</ele>
      </trkpt>
      <trkpt lat="37.06056" lon="28.13601">
        <ele>674.7</ele>
      </trkpt>
      <trkpt lat="37.06055" lon="28.13607">
        <ele>675.4</ele>
      </trkpt>
      <trkpt lat="37.06051" lon="28.13616">
        <ele>676.7</ele>
      </trkpt>
      <trkpt lat="37.06044" lon="28.13625">
        <ele>679</ele>
      </trkpt>
      <trkpt lat="37.06034" lon="28.13633">
        <ele>682.4</ele>
      </trkpt>
      <trkpt lat="37.06032" lon="28.13635">
        <ele>682.9</ele>
      </trkpt>
      <trkpt lat="37.06026" lon="28.13644">
        <ele>685.1</ele>
      </trkpt>
      <trkpt lat="37.06016" lon="28.13654">
        <ele>688.6</ele>
      </trkpt>
      <trkpt lat="37.06006" lon="28.13658">
        <ele>691.8</ele>
      </trkpt>
      <trkpt lat="37.05999" lon="28.1367">
        <ele>694.5</ele>
      </trkpt>
      <trkpt lat="37.05996" lon="28.13684">
        <ele>696.3</ele>
      </trkpt>
      <trkpt lat="37.05995" lon="28.13691">
        <ele>696.6</ele>
      </trkpt>
      <trkpt lat="37.05996" lon="28.13694">
        <ele>696.5</ele>
      </trkpt>
      <trkpt lat="37.05994" lon="28.13706">
        <ele>697.8</ele>
      </trkpt>
      <trkpt lat="37.0599" lon="28.13712">
        <ele>699.5</ele>
      </trkpt>
      <trkpt lat="37.05988" lon="28.13723">
        <ele>700.3</ele>
      </trkpt>
      <trkpt lat="37.05989" lon="28.13737">
        <ele>700.6</ele>
      </trkpt>
      <trkpt lat="37.05986" lon="28.13745">
        <ele>701.6</ele>
      </trkpt>
      <trkpt lat="37.05983" lon="28.13758">
        <ele>702.6</ele>
      </trkpt>
      <trkpt lat="37.05979" lon="28.13767">
        <ele>704</ele>
      </trkpt>
      <trkpt lat="37.05976" lon="28.13771">
        <ele>705</ele>
      </trkpt>
      <trkpt lat="37.05968" lon="28.13778">
        <ele>707.9</ele>
      </trkpt>
      <trkpt lat="37.0597" lon="28.13788">
        <ele>706.7</ele>
      </trkpt>
      <trkpt lat="37.0597" lon="28.13788">
        <ele>707</ele>
      </trkpt>
      <trkpt lat="37.05958" lon="28.13789">
        <ele>711.3</ele>
      </trkpt>
      <trkpt lat="37.05956" lon="28.13791">
        <ele>712</ele>
      </trkpt>
      <trkpt lat="37.05953" lon="28.13795">
        <ele>713.1</ele>
      </trkpt>
      <trkpt lat="37.05941" lon="28.13799">
        <ele>717.2</ele>
      </trkpt>
      <trkpt lat="37.05934" lon="28.13811">
        <ele>719.5</ele>
      </trkpt>
      <trkpt lat="37.05932" lon="28.13814">
        <ele>720.3</ele>
      </trkpt>
      <trkpt lat="37.05923" lon="28.13812">
        <ele>723.6</ele>
      </trkpt>
      <trkpt lat="37.05917" lon="28.13812">
        <ele>726</ele>
      </trkpt>
      <trkpt lat="37.05907" lon="28.13815">
        <ele>728.1</ele>
      </trkpt>
      <trkpt lat="37.05899" lon="28.13817">
        <ele>729.9</ele>
      </trkpt>
      <trkpt lat="37.05884" lon="28.13819">
        <ele>733.2</ele>
      </trkpt>
      <trkpt lat="37.05875" lon="28.13825">
        <ele>735.1</ele>
      </trkpt>
      <trkpt lat="37.05871" lon="28.13842">
        <ele>734.6</ele>
      </trkpt>
      <trkpt lat="37.05861" lon="28.13847">
        <ele>736.3</ele>
      </trkpt>
      <trkpt lat="37.05853" lon="28.13855">
        <ele>737.5</ele>
      </trkpt>
      <trkpt lat="37.05836" lon="28.1386">
        <ele>741.3</ele>
      </trkpt>
      <trkpt lat="37.05825" lon="28.13867">
        <ele>742.8</ele>
      </trkpt>
      <trkpt lat="37.0582" lon="28.13873">
        <ele>743.1</ele>
      </trkpt>
      <trkpt lat="37.0581" lon="28.13893">
        <ele>743.2</ele>
      </trkpt>
      <trkpt lat="37.05803" lon="28.13902">
        <ele>743.8</ele>
      </trkpt>
      <trkpt lat="37.05801" lon="28.13918">
        <ele>742.8</ele>
      </trkpt>
      <trkpt lat="37.05799" lon="28.13923">
        <ele>742.3</ele>
      </trkpt>
      <trkpt lat="37.05791" lon="28.13929">
        <ele>742.6</ele>
      </trkpt>
      <trkpt lat="37.05788" lon="28.13931">
        <ele>742.9</ele>
      </trkpt>
      <trkpt lat="37.05772" lon="28.13944">
        <ele>744</ele>
      </trkpt>
      <trkpt lat="37.05769" lon="28.13946">
        <ele>744.3</ele>
      </trkpt>
      <trkpt lat="37.05762" lon="28.13956">
        <ele>744.7</ele>
      </trkpt>
      <trkpt lat="37.05757" lon="28.13963">
        <ele>745</ele>
      </trkpt>
      <trkpt lat="37.05745" lon="28.13978">
        <ele>745.4</ele>
      </trkpt>
      <trkpt lat="37.05737" lon="28.13986">
        <ele>745</ele>
      </trkpt>
      <trkpt lat="37.05725" lon="28.13993">
        <ele>744.8</ele>
      </trkpt>
      <trkpt lat="37.05713" lon="28.14002">
        <ele>744.4</ele>
      </trkpt>
      <trkpt lat="37.05708" lon="28.14004">
        <ele>744.2</ele>
      </trkpt>
      <trkpt lat="37.05694" lon="28.14004">
        <ele>745</ele>
      </trkpt>
      <trkpt lat="37.05693" lon="28.14005">
        <ele>745</ele>
      </trkpt>
      <trkpt lat="37.05685" lon="28.14008">
        <ele>744.9</ele>
      </trkpt>
      <trkpt lat="37.05674" lon="28.14014">
        <ele>745</ele>
      </trkpt>
      <trkpt lat="37.05666" lon="28.1401">
        <ele>746.1</ele>
      </trkpt>
      <trkpt lat="37.05661" lon="28.14014">
        <ele>746.1</ele>
      </trkpt>
      <trkpt lat="37.05652" lon="28.14013">
        <ele>747.1</ele>
      </trkpt>
      <trkpt lat="37.05639" lon="28.14016">
        <ele>748.2</ele>
      </trkpt>
      <trkpt lat="37.05636" lon="28.14016">
        <ele>748.6</ele>
      </trkpt>
      <trkpt lat="37.0563" lon="28.14021">
        <ele>748.9</ele>
      </trkpt>
      <trkpt lat="37.05621" lon="28.14039">
        <ele>749.2</ele>
      </trkpt>
      <trkpt lat="37.05614" lon="28.14048">
        <ele>749.9</ele>
      </trkpt>
      <trkpt lat="37.05605" lon="28.14058">
        <ele>751.1</ele>
      </trkpt>
      <trkpt lat="37.05597" lon="28.14066">
        <ele>752.4</ele>
      </trkpt>
      <trkpt lat="37.0559" lon="28.14077">
        <ele>753.6</ele>
      </trkpt>
      <trkpt lat="37.05589" lon="28.14078">
        <ele>753.8</ele>
      </trkpt>
      <trkpt lat="37.05581" lon="28.14092">
        <ele>756</ele>
      </trkpt>
      <trkpt lat="37.05581" lon="28.14102">
        <ele>756.3</ele>
      </trkpt>
      <trkpt lat="37.05579" lon="28.14116">
        <ele>757.6</ele>
      </trkpt>
      <trkpt lat="37.05578" lon="28.14116">
        <ele>757.9</ele>
      </trkpt>
      <trkpt lat="37.05576" lon="28.14117">
        <ele>758.5</ele>
      </trkpt>
      <trkpt lat="37.05574" lon="28.14122">
        <ele>759.1</ele>
      </trkpt>
      <trkpt lat="37.05571" lon="28.14137">
        <ele>760.9</ele>
      </trkpt>
      <trkpt lat="37.05567" lon="28.14141">
        <ele>762.2</ele>
      </trkpt>
      <trkpt lat="37.0556" lon="28.14147">
        <ele>764.4</ele>
      </trkpt>
      <trkpt lat="37.05559" lon="28.14154">
        <ele>765.4</ele>
      </trkpt>
      <trkpt lat="37.05562" lon="28.14176">
        <ele>765.5</ele>
      </trkpt>
      <trkpt lat="37.05561" lon="28.14181">
        <ele>765.6</ele>
      </trkpt>
      <trkpt lat="37.05564" lon="28.14203">
        <ele>764.9</ele>
      </trkpt>
      <trkpt lat="37.0556" lon="28.14226">
        <ele>766</ele>
      </trkpt>
      <trkpt lat="37.05557" lon="28.14241">
        <ele>767</ele>
      </trkpt>
      <trkpt lat="37.05553" lon="28.14257">
        <ele>767.6</ele>
      </trkpt>
      <trkpt lat="37.0555" lon="28.14268">
        <ele>767.9</ele>
      </trkpt>
      <trkpt lat="37.05546" lon="28.14286">
        <ele>767.9</ele>
      </trkpt>
      <trkpt lat="37.0554" lon="28.14307">
        <ele>768.3</ele>
      </trkpt>
      <trkpt lat="37.05533" lon="28.14324">
        <ele>769.4</ele>
      </trkpt>
      <trkpt lat="37.05526" lon="28.14342">
        <ele>770.5</ele>
      </trkpt>
      <trkpt lat="37.05516" lon="28.14355">
        <ele>772.2</ele>
      </trkpt>
      <trkpt lat="37.0551" lon="28.14371">
        <ele>772</ele>
      </trkpt>
      <trkpt lat="37.05501" lon="28.14394">
        <ele>771</ele>
      </trkpt>
      <trkpt lat="37.05486" lon="28.14401">
        <ele>770.6</ele>
      </trkpt>
      <trkpt lat="37.05478" lon="28.14409">
        <ele>769.4</ele>
      </trkpt>
      <trkpt lat="37.05464" lon="28.14424">
        <ele>768.3</ele>
      </trkpt>
      <trkpt lat="37.05454" lon="28.1444">
        <ele>768</ele>
      </trkpt>
      <trkpt lat="37.05437" lon="28.14455">
        <ele>767.8</ele>
      </trkpt>
      <trkpt lat="37.05436" lon="28.14455">
        <ele>767.9</ele>
      </trkpt>
      <trkpt lat="37.05427" lon="28.14445">
        <ele>768.2</ele>
      </trkpt>
      <trkpt lat="37.0542" lon="28.14432">
        <ele>768.6</ele>
      </trkpt>
      <trkpt lat="37.05404" lon="28.14427">
        <ele>769.1</ele>
      </trkpt>
      <trkpt lat="37.05387" lon="28.14424">
        <ele>769.6</ele>
      </trkpt>
      <trkpt lat="37.05374" lon="28.14428">
        <ele>769.8</ele>
      </trkpt>
      <trkpt lat="37.05365" lon="28.14436">
        <ele>769.9</ele>
      </trkpt>
      <trkpt lat="37.05363" lon="28.14439">
        <ele>769.9</ele>
      </trkpt>
      <trkpt lat="37.05333" lon="28.14464">
        <ele>770.4</ele>
      </trkpt>
      <trkpt lat="37.05315" lon="28.1447">
        <ele>771.6</ele>
      </trkpt>
      <trkpt lat="37.05292" lon="28.1447">
        <ele>773.1</ele>
      </trkpt>
      <trkpt lat="37.0529" lon="28.1447">
        <ele>773.3</ele>
      </trkpt>
      <trkpt lat="37.05279" lon="28.14474">
        <ele>774</ele>
      </trkpt>
      <trkpt lat="37.05263" lon="28.14473">
        <ele>775.2</ele>
      </trkpt>
      <trkpt lat="37.05249" lon="28.1448">
        <ele>776.3</ele>
      </trkpt>
      <trkpt lat="37.0523" lon="28.14484">
        <ele>776.3</ele>
      </trkpt>
      <trkpt lat="37.05213" lon="28.14485">
        <ele>776.2</ele>
      </trkpt>
      <trkpt lat="37.05197" lon="28.14481">
        <ele>776.1</ele>
      </trkpt>
      <trkpt lat="37.05182" lon="28.1448">
        <ele>776.1</ele>
      </trkpt>
      <trkpt lat="37.05163" lon="28.14485">
        <ele>776.2</ele>
      </trkpt>
      <trkpt lat="37.05149" lon="28.1449">
        <ele>776.7</ele>
      </trkpt>
      <trkpt lat="37.05136" lon="28.14498">
        <ele>777.1</ele>
      </trkpt>
      <trkpt lat="37.0512" lon="28.14499">
        <ele>777.7</ele>
      </trkpt>
      <trkpt lat="37.05105" lon="28.14503">
        <ele>778.3</ele>
      </trkpt>
      <trkpt lat="37.05084" lon="28.14504">
        <ele>779</ele>
      </trkpt>
      <trkpt lat="37.05056" lon="28.1452">
        <ele>780.5</ele>
      </trkpt>
      <trkpt lat="37.0504" lon="28.14523">
        <ele>781.2</ele>
      </trkpt>
      <trkpt lat="37.05019" lon="28.14536">
        <ele>782.2</ele>
      </trkpt>
      <trkpt lat="37.04999" lon="28.14544">
        <ele>783</ele>
      </trkpt>
      <trkpt lat="37.04987" lon="28.14548">
        <ele>783.4</ele>
      </trkpt>
      <trkpt lat="37.04969" lon="28.14552">
        <ele>783.8</ele>
      </trkpt>
      <trkpt lat="37.04951" lon="28.14562">
        <ele>784</ele>
      </trkpt>
      <trkpt lat="37.04925" lon="28.14569">
        <ele>784.4</ele>
      </trkpt>
      <trkpt lat="37.04904" lon="28.14573">
        <ele>785.3</ele>
      </trkpt>
      <trkpt lat="37.04883" lon="28.1456">
        <ele>787.4</ele>
      </trkpt>
      <trkpt lat="37.04863" lon="28.14561">
        <ele>788.9</ele>
      </trkpt>
      <trkpt lat="37.04862" lon="28.1456">
        <ele>789</ele>
      </trkpt>
      <trkpt lat="37.04846" lon="28.14551">
        <ele>790.6</ele>
      </trkpt>
      <trkpt lat="37.04828" lon="28.14544">
        <ele>792.4</ele>
      </trkpt>
      <trkpt lat="37.04815" lon="28.14548">
        <ele>793.3</ele>
      </trkpt>
      <trkpt lat="37.04808" lon="28.14548">
        <ele>794</ele>
      </trkpt>
      <trkpt lat="37.04792" lon="28.14547">
        <ele>795.4</ele>
      </trkpt>
      <trkpt lat="37.04776" lon="28.14556">
        <ele>796.3</ele>
      </trkpt>
      <trkpt lat="37.04773" lon="28.14565">
        <ele>796.1</ele>
      </trkpt>
      <trkpt lat="37.04771" lon="28.14571">
        <ele>795.9</ele>
      </trkpt>
      <trkpt lat="37.04765" lon="28.14587">
        <ele>796.1</ele>
      </trkpt>
      <trkpt lat="37.04761" lon="28.14597">
        <ele>797.2</ele>
      </trkpt>
      <trkpt lat="37.0475" lon="28.14607">
        <ele>799</ele>
      </trkpt>
      <trkpt lat="37.04747" lon="28.14611">
        <ele>799.6</ele>
      </trkpt>
      <trkpt lat="37.04742" lon="28.14613">
        <ele>800.5</ele>
      </trkpt>
      <trkpt lat="37.04732" lon="28.14615">
        <ele>801.8</ele>
      </trkpt>
      <trkpt lat="37.0473" lon="28.14615">
        <ele>802</ele>
      </trkpt>
      <trkpt lat="37.04719" lon="28.14617">
        <ele>803.4</ele>
      </trkpt>
      <trkpt lat="37.04704" lon="28.14622">
        <ele>805.3</ele>
      </trkpt>
      <trkpt lat="37.04693" lon="28.14621">
        <ele>806.5</ele>
      </trkpt>
      <trkpt lat="37.04677" lon="28.14626">
        <ele>808.4</ele>
      </trkpt>
      <trkpt lat="37.04662" lon="28.14638">
        <ele>811.1</ele>
      </trkpt>
      <trkpt lat="37.0465" lon="28.14652">
        <ele>814.3</ele>
      </trkpt>
      <trkpt lat="37.04643" lon="28.14671">
        <ele>816.2</ele>
      </trkpt>
      <trkpt lat="37.04637" lon="28.14685">
        <ele>817.9</ele>
      </trkpt>
      <trkpt lat="37.04634" lon="28.14705">
        <ele>818.6</ele>
      </trkpt>
      <trkpt lat="37.04629" lon="28.14715">
        <ele>818.9</ele>
      </trkpt>
      <trkpt lat="37.04622" lon="28.14729">
        <ele>818.5</ele>
      </trkpt>
      <trkpt lat="37.04619" lon="28.14732">
        <ele>818.3</ele>
      </trkpt>
      <trkpt lat="37.04615" lon="28.14733">
        <ele>818.1</ele>
      </trkpt>
      <trkpt lat="37.04607" lon="28.14739">
        <ele>817.1</ele>
      </trkpt>
      <trkpt lat="37.04607" lon="28.1474">
        <ele>816.9</ele>
      </trkpt>
      <trkpt lat="37.04606" lon="28.14742">
        <ele>816.6</ele>
      </trkpt>
      <trkpt lat="37.04602" lon="28.14751">
        <ele>815.1</ele>
      </trkpt>
      <trkpt lat="37.04601" lon="28.14765">
        <ele>812.5</ele>
      </trkpt>
      <trkpt lat="37.04601" lon="28.14766">
        <ele>812.3</ele>
      </trkpt>
      <trkpt lat="37.04603" lon="28.14772">
        <ele>811.6</ele>
      </trkpt>
      <trkpt lat="37.04594" lon="28.14774">
        <ele>809.2</ele>
      </trkpt>
      <trkpt lat="37.04596" lon="28.14784">
        <ele>807.6</ele>
      </trkpt>
      <trkpt lat="37.04598" lon="28.14793">
        <ele>806.6</ele>
      </trkpt>
      <trkpt lat="37.04596" lon="28.14803">
        <ele>803.7</ele>
      </trkpt>
      <trkpt lat="37.04592" lon="28.14807">
        <ele>801.4</ele>
      </trkpt>
      <trkpt lat="37.04583" lon="28.14807">
        <ele>798.1</ele>
      </trkpt>
      <trkpt lat="37.04584" lon="28.14816">
        <ele>795.7</ele>
      </trkpt>
      <trkpt lat="37.04582" lon="28.14819">
        <ele>794.5</ele>
      </trkpt>
      <trkpt lat="37.0457" lon="28.14833">
        <ele>785.7</ele>
      </trkpt>
      <trkpt lat="37.04571" lon="28.14844">
        <ele>785.7</ele>
      </trkpt>
      <trkpt lat="37.0457" lon="28.1485">
        <ele>785.1</ele>
      </trkpt>
      <trkpt lat="37.04569" lon="28.14852">
        <ele>784.4</ele>
      </trkpt>
      <trkpt lat="37.04565" lon="28.14848">
        <ele>783</ele>
      </trkpt>
      <trkpt lat="37.04562" lon="28.14863">
        <ele>780.6</ele>
      </trkpt>
      <trkpt lat="37.04561" lon="28.14865">
        <ele>780</ele>
      </trkpt>
      <trkpt lat="37.04559" lon="28.14859">
        <ele>779.7</ele>
      </trkpt>
      <trkpt lat="37.04559" lon="28.14846">
        <ele>780.4</ele>
      </trkpt>
      <trkpt lat="37.04555" lon="28.1484">
        <ele>779.3</ele>
      </trkpt>
      <trkpt lat="37.0455" lon="28.14835">
        <ele>777.6</ele>
      </trkpt>
      <trkpt lat="37.04547" lon="28.14834">
        <ele>776.4</ele>
      </trkpt>
      <trkpt lat="37.04538" lon="28.14828">
        <ele>775.2</ele>
      </trkpt>
      <trkpt lat="37.04534" lon="28.1482">
        <ele>776.3</ele>
      </trkpt>
      <trkpt lat="37.04532" lon="28.14819">
        <ele>776.2</ele>
      </trkpt>
      <trkpt lat="37.04525" lon="28.14811">
        <ele>776.3</ele>
      </trkpt>
      <trkpt lat="37.04519" lon="28.14809">
        <ele>775.3</ele>
      </trkpt>
      <trkpt lat="37.0451" lon="28.1481">
        <ele>771.8</ele>
      </trkpt>
      <trkpt lat="37.04502" lon="28.1481">
        <ele>769</ele>
      </trkpt>
      <trkpt lat="37.04497" lon="28.14809">
        <ele>767.6</ele>
      </trkpt>
      <trkpt lat="37.04485" lon="28.14812">
        <ele>762.4</ele>
      </trkpt>
      <trkpt lat="37.04472" lon="28.14813">
        <ele>757.6</ele>
      </trkpt>
      <trkpt lat="37.04465" lon="28.14816">
        <ele>753.8</ele>
      </trkpt>
      <trkpt lat="37.04451" lon="28.14819">
        <ele>748.1</ele>
      </trkpt>
      <trkpt lat="37.04448" lon="28.14819">
        <ele>747.1</ele>
      </trkpt>
      <trkpt lat="37.04443" lon="28.14819">
        <ele>745.4</ele>
      </trkpt>
      <trkpt lat="37.04442" lon="28.14828">
        <ele>742.5</ele>
      </trkpt>
      <trkpt lat="37.04446" lon="28.14832">
        <ele>742.2</ele>
      </trkpt>
      <trkpt lat="37.04447" lon="28.14834">
        <ele>742.1</ele>
      </trkpt>
      <trkpt lat="37.0445" lon="28.1484">
        <ele>741.1</ele>
      </trkpt>
      <trkpt lat="37.04449" lon="28.1484">
        <ele>741</ele>
      </trkpt>
      <trkpt lat="37.04439" lon="28.14833">
        <ele>739.6</ele>
      </trkpt>
      <trkpt lat="37.04435" lon="28.14837">
        <ele>737.3</ele>
      </trkpt>
      <trkpt lat="37.04428" lon="28.14846">
        <ele>732.6</ele>
      </trkpt>
      <trkpt lat="37.04427" lon="28.14847">
        <ele>732.3</ele>
      </trkpt>
      <trkpt lat="37.04433" lon="28.1485">
        <ele>732.8</ele>
      </trkpt>
      <trkpt lat="37.04434" lon="28.14853">
        <ele>732.5</ele>
      </trkpt>
      <trkpt lat="37.04442" lon="28.14861">
        <ele>732.9</ele>
      </trkpt>
      <trkpt lat="37.04455" lon="28.14868">
        <ele>735.6</ele>
      </trkpt>
      <trkpt lat="37.04457" lon="28.14872">
        <ele>735</ele>
      </trkpt>
      <trkpt lat="37.04458" lon="28.14869">
        <ele>736.1</ele>
      </trkpt>
      <trkpt lat="37.04458" lon="28.14869">
        <ele>736.1</ele>
      </trkpt>
      <trkpt lat="37.04458" lon="28.14877">
        <ele>734.2</ele>
      </trkpt>
      <trkpt lat="37.04467" lon="28.14883">
        <ele>735.7</ele>
      </trkpt>
      <trkpt lat="37.04471" lon="28.14889">
        <ele>735.8</ele>
      </trkpt>
      <trkpt lat="37.0447" lon="28.1489">
        <ele>735.2</ele>
      </trkpt>
      <trkpt lat="37.04463" lon="28.14894">
        <ele>731.7</ele>
      </trkpt>
      <trkpt lat="37.04455" lon="28.14901">
        <ele>726.7</ele>
      </trkpt>
      <trkpt lat="37.04446" lon="28.14906">
        <ele>722</ele>
      </trkpt>
      <trkpt lat="37.04446" lon="28.14907">
        <ele>721.6</ele>
      </trkpt>
      <trkpt lat="37.04441" lon="28.14908">
        <ele>719.4</ele>
      </trkpt>
      <trkpt lat="37.04433" lon="28.14913">
        <ele>714.6</ele>
      </trkpt>
      <trkpt lat="37.04429" lon="28.14922">
        <ele>711.6</ele>
      </trkpt>
      <trkpt lat="37.04426" lon="28.14929">
        <ele>709.6</ele>
      </trkpt>
      <trkpt lat="37.04422" lon="28.14934">
        <ele>706.8</ele>
      </trkpt>
      <trkpt lat="37.04413" lon="28.14952">
        <ele>700</ele>
      </trkpt>
      <trkpt lat="37.04413" lon="28.14954">
        <ele>699.4</ele>
      </trkpt>
      <trkpt lat="37.0441" lon="28.14963">
        <ele>696.3</ele>
      </trkpt>
      <trkpt lat="37.04409" lon="28.14962">
        <ele>696.3</ele>
      </trkpt>
      <trkpt lat="37.04409" lon="28.14956">
        <ele>697.1</ele>
      </trkpt>
      <trkpt lat="37.0441" lon="28.14951">
        <ele>698.1</ele>
      </trkpt>
      <trkpt lat="37.04411" lon="28.14943">
        <ele>699.9</ele>
      </trkpt>
      <trkpt lat="37.04408" lon="28.14942">
        <ele>698.8</ele>
      </trkpt>
      <trkpt lat="37.04406" lon="28.14949">
        <ele>696.2</ele>
      </trkpt>
      <trkpt lat="37.04404" lon="28.14955">
        <ele>694.2</ele>
      </trkpt>
      <trkpt lat="37.04398" lon="28.14963">
        <ele>689.4</ele>
      </trkpt>
      <trkpt lat="37.04395" lon="28.14971">
        <ele>686.6</ele>
      </trkpt>
      <trkpt lat="37.04389" lon="28.14987">
        <ele>679.8</ele>
      </trkpt>
      <trkpt lat="37.04384" lon="28.15004">
        <ele>674.1</ele>
      </trkpt>
      <trkpt lat="37.04381" lon="28.15017">
        <ele>671.2</ele>
      </trkpt>
      <trkpt lat="37.04373" lon="28.15027">
        <ele>664.8</ele>
      </trkpt>
      <trkpt lat="37.04366" lon="28.15036">
        <ele>659.3</ele>
      </trkpt>
      <trkpt lat="37.04363" lon="28.1504">
        <ele>657.4</ele>
      </trkpt>
      <trkpt lat="37.0436" lon="28.15046">
        <ele>654.7</ele>
      </trkpt>
      <trkpt lat="37.04358" lon="28.15051">
        <ele>652.8</ele>
      </trkpt>
      <trkpt lat="37.04355" lon="28.15057">
        <ele>649.8</ele>
      </trkpt>
      <trkpt lat="37.04354" lon="28.1507">
        <ele>648.2</ele>
      </trkpt>
      <trkpt lat="37.04351" lon="28.15079">
        <ele>645</ele>
      </trkpt>
      <trkpt lat="37.04347" lon="28.15082">
        <ele>641.8</ele>
      </trkpt>
      <trkpt lat="37.04347" lon="28.15085">
        <ele>641.9</ele>
      </trkpt>
      <trkpt lat="37.04346" lon="28.15099">
        <ele>639.9</ele>
      </trkpt>
      <trkpt lat="37.04346" lon="28.15112">
        <ele>639</ele>
      </trkpt>
      <trkpt lat="37.04343" lon="28.1512">
        <ele>636.6</ele>
      </trkpt>
      <trkpt lat="37.04344" lon="28.15126">
        <ele>637</ele>
      </trkpt>
      <trkpt lat="37.04344" lon="28.15138">
        <ele>636.3</ele>
      </trkpt>
      <trkpt lat="37.04344" lon="28.15146">
        <ele>635.8</ele>
      </trkpt>
      <trkpt lat="37.04344" lon="28.1515">
        <ele>635.8</ele>
      </trkpt>
      <trkpt lat="37.04345" lon="28.15159">
        <ele>635.7</ele>
      </trkpt>
      <trkpt lat="37.04347" lon="28.15164">
        <ele>636.5</ele>
      </trkpt>
      <trkpt lat="37.04346" lon="28.15178">
        <ele>633.8</ele>
      </trkpt>
      <trkpt lat="37.04346" lon="28.15184">
        <ele>632.5</ele>
      </trkpt>
      <trkpt lat="37.04347" lon="28.15196">
        <ele>631.4</ele>
      </trkpt>
      <trkpt lat="37.04348" lon="28.15212">
        <ele>628.6</ele>
      </trkpt>
      <trkpt lat="37.04351" lon="28.15231">
        <ele>627.1</ele>
      </trkpt>
      <trkpt lat="37.04354" lon="28.15239">
        <ele>627.1</ele>
      </trkpt>
      <trkpt lat="37.04354" lon="28.15243">
        <ele>626.8</ele>
      </trkpt>
      <trkpt lat="37.04354" lon="28.1525">
        <ele>625.1</ele>
      </trkpt>
      <trkpt lat="37.04354" lon="28.15255">
        <ele>623.9</ele>
      </trkpt>
      <trkpt lat="37.04357" lon="28.15272">
        <ele>620.2</ele>
      </trkpt>
      <trkpt lat="37.04352" lon="28.15273">
        <ele>617.1</ele>
      </trkpt>
      <trkpt lat="37.04345" lon="28.15258">
        <ele>617.3</ele>
      </trkpt>
      <trkpt lat="37.04338" lon="28.15242">
        <ele>617.2</ele>
      </trkpt>
      <trkpt lat="37.04336" lon="28.15239">
        <ele>616.5</ele>
      </trkpt>
      <trkpt lat="37.04334" lon="28.15236">
        <ele>616.2</ele>
      </trkpt>
      <trkpt lat="37.04332" lon="28.15232">
        <ele>615.5</ele>
      </trkpt>
      <trkpt lat="37.04331" lon="28.15234">
        <ele>614.7</ele>
      </trkpt>
      <trkpt lat="37.04333" lon="28.15247">
        <ele>613.5</ele>
      </trkpt>
      <trkpt lat="37.04331" lon="28.1525">
        <ele>612</ele>
      </trkpt>
      <trkpt lat="37.04331" lon="28.15247">
        <ele>612.3</ele>
      </trkpt>
      <trkpt lat="37.0433" lon="28.15244">
        <ele>612.1</ele>
      </trkpt>
      <trkpt lat="37.04322" lon="28.15235">
        <ele>610.1</ele>
      </trkpt>
      <trkpt lat="37.04315" lon="28.15226">
        <ele>608.3</ele>
      </trkpt>
      <trkpt lat="37.0431" lon="28.15218">
        <ele>607.2</ele>
      </trkpt>
      <trkpt lat="37.04305" lon="28.15212">
        <ele>605.8</ele>
      </trkpt>
      <trkpt lat="37.04299" lon="28.15199">
        <ele>605.2</ele>
      </trkpt>
      <trkpt lat="37.04291" lon="28.15192">
        <ele>602.9</ele>
      </trkpt>
      <trkpt lat="37.04282" lon="28.15185">
        <ele>599.8</ele>
      </trkpt>
      <trkpt lat="37.04282" lon="28.1519">
        <ele>598.5</ele>
      </trkpt>
      <trkpt lat="37.04286" lon="28.15203">
        <ele>598.3</ele>
      </trkpt>
      <trkpt lat="37.04286" lon="28.15204">
        <ele>598.2</ele>
      </trkpt>
      <trkpt lat="37.0429" lon="28.15215">
        <ele>598.2</ele>
      </trkpt>
      <trkpt lat="37.04294" lon="28.15222">
        <ele>598.5</ele>
      </trkpt>
      <trkpt lat="37.04301" lon="28.15237">
        <ele>598.9</ele>
      </trkpt>
      <trkpt lat="37.04301" lon="28.15241">
        <ele>598.4</ele>
      </trkpt>
      <trkpt lat="37.04299" lon="28.15254">
        <ele>594.4</ele>
      </trkpt>
      <trkpt lat="37.04296" lon="28.15253">
        <ele>593</ele>
      </trkpt>
      <trkpt lat="37.04286" lon="28.15247">
        <ele>590</ele>
      </trkpt>
      <trkpt lat="37.04285" lon="28.15245">
        <ele>589.7</ele>
      </trkpt>
      <trkpt lat="37.04273" lon="28.15231">
        <ele>586.2</ele>
      </trkpt>
      <trkpt lat="37.04266" lon="28.15225">
        <ele>584.3</ele>
      </trkpt>
      <trkpt lat="37.04263" lon="28.15221">
        <ele>583.1</ele>
      </trkpt>
      <trkpt lat="37.0425" lon="28.15213">
        <ele>578.7</ele>
      </trkpt>
      <trkpt lat="37.04241" lon="28.15209">
        <ele>573.1</ele>
      </trkpt>
      <trkpt lat="37.04239" lon="28.15207">
        <ele>571.8</ele>
      </trkpt>
      <trkpt lat="37.04231" lon="28.15198">
        <ele>567.6</ele>
      </trkpt>
      <trkpt lat="37.04228" lon="28.15191">
        <ele>566.1</ele>
      </trkpt>
      <trkpt lat="37.04227" lon="28.1519">
        <ele>565.5</ele>
      </trkpt>
      <trkpt lat="37.0422" lon="28.15186">
        <ele>560.9</ele>
      </trkpt>
      <trkpt lat="37.04219" lon="28.15187">
        <ele>560.3</ele>
      </trkpt>
      <trkpt lat="37.04219" lon="28.1519">
        <ele>559.4</ele>
      </trkpt>
      <trkpt lat="37.04219" lon="28.15196">
        <ele>558.5</ele>
      </trkpt>
      <trkpt lat="37.04223" lon="28.15204">
        <ele>560.1</ele>
      </trkpt>
      <trkpt lat="37.04222" lon="28.15219">
        <ele>557.1</ele>
      </trkpt>
      <trkpt lat="37.04218" lon="28.15222">
        <ele>553.9</ele>
      </trkpt>
      <trkpt lat="37.04216" lon="28.15222">
        <ele>552.5</ele>
      </trkpt>
      <trkpt lat="37.04209" lon="28.15216">
        <ele>548.4</ele>
      </trkpt>
      <trkpt lat="37.042" lon="28.15209">
        <ele>543.1</ele>
      </trkpt>
      <trkpt lat="37.04192" lon="28.15201">
        <ele>537.8</ele>
      </trkpt>
      <trkpt lat="37.04187" lon="28.15199">
        <ele>534.2</ele>
      </trkpt>
      <trkpt lat="37.04178" lon="28.15193">
        <ele>528.3</ele>
      </trkpt>
      <trkpt lat="37.04174" lon="28.1519">
        <ele>525.8</ele>
      </trkpt>
      <trkpt lat="37.04171" lon="28.15186">
        <ele>523.4</ele>
      </trkpt>
      <trkpt lat="37.04161" lon="28.15187">
        <ele>516.2</ele>
      </trkpt>
      <trkpt lat="37.04162" lon="28.15192">
        <ele>516</ele>
      </trkpt>
      <trkpt lat="37.04165" lon="28.15206">
        <ele>517.4</ele>
      </trkpt>
      <trkpt lat="37.04169" lon="28.1522">
        <ele>519.2</ele>
      </trkpt>
      <trkpt lat="37.04174" lon="28.15235">
        <ele>521.5</ele>
      </trkpt>
      <trkpt lat="37.04175" lon="28.15237">
        <ele>521.6</ele>
      </trkpt>
      <trkpt lat="37.04177" lon="28.15241">
        <ele>522.6</ele>
      </trkpt>
      <trkpt lat="37.0418" lon="28.15259">
        <ele>522.4</ele>
      </trkpt>
      <trkpt lat="37.04185" lon="28.15271">
        <ele>523.6</ele>
      </trkpt>
      <trkpt lat="37.04191" lon="28.1528">
        <ele>525.4</ele>
      </trkpt>
      <trkpt lat="37.04202" lon="28.15293">
        <ele>528.8</ele>
      </trkpt>
      <trkpt lat="37.04206" lon="28.153">
        <ele>529.1</ele>
      </trkpt>
      <trkpt lat="37.04209" lon="28.1531">
        <ele>527.7</ele>
      </trkpt>
      <trkpt lat="37.04211" lon="28.15315">
        <ele>527.3</ele>
      </trkpt>
      <trkpt lat="37.04219" lon="28.15318">
        <ele>530</ele>
      </trkpt>
      <trkpt lat="37.04227" lon="28.1533">
        <ele>530.1</ele>
      </trkpt>
      <trkpt lat="37.04233" lon="28.15337">
        <ele>529.4</ele>
      </trkpt>
      <trkpt lat="37.04232" lon="28.15337">
        <ele>529.1</ele>
      </trkpt>
      <trkpt lat="37.04224" lon="28.15331">
        <ele>528.4</ele>
      </trkpt>
      <trkpt lat="37.04223" lon="28.1533">
        <ele>528.3</ele>
      </trkpt>
      <trkpt lat="37.04222" lon="28.1533">
        <ele>528.2</ele>
      </trkpt>
      <trkpt lat="37.04214" lon="28.15327">
        <ele>525.4</ele>
      </trkpt>
      <trkpt lat="37.04214" lon="28.1533">
        <ele>524.7</ele>
      </trkpt>
      <trkpt lat="37.04219" lon="28.15339">
        <ele>523.1</ele>
      </trkpt>
      <trkpt lat="37.04226" lon="28.15351">
        <ele>520.1</ele>
      </trkpt>
      <trkpt lat="37.04237" lon="28.1536">
        <ele>521.4</ele>
      </trkpt>
      <trkpt lat="37.04242" lon="28.15372">
        <ele>518.7</ele>
      </trkpt>
      <trkpt lat="37.04244" lon="28.15374">
        <ele>518.4</ele>
      </trkpt>
      <trkpt lat="37.04247" lon="28.15378">
        <ele>518.7</ele>
      </trkpt>
      <trkpt lat="37.0425" lon="28.1539">
        <ele>514.7</ele>
      </trkpt>
      <trkpt lat="37.04252" lon="28.15397">
        <ele>513.2</ele>
      </trkpt>
      <trkpt lat="37.04253" lon="28.15398">
        <ele>513.3</ele>
      </trkpt>
      <trkpt lat="37.04254" lon="28.15399">
        <ele>513.2</ele>
      </trkpt>
      <trkpt lat="37.0425" lon="28.15404">
        <ele>509.1</ele>
      </trkpt>
      <trkpt lat="37.0425" lon="28.15405">
        <ele>508.7</ele>
      </trkpt>
      <trkpt lat="37.04253" lon="28.15417">
        <ele>505.7</ele>
      </trkpt>
      <trkpt lat="37.04256" lon="28.15424">
        <ele>505</ele>
      </trkpt>
      <trkpt lat="37.0426" lon="28.15437">
        <ele>502.7</ele>
      </trkpt>
      <trkpt lat="37.04265" lon="28.15443">
        <ele>503.3</ele>
      </trkpt>
      <trkpt lat="37.04266" lon="28.15446">
        <ele>502.4</ele>
      </trkpt>
      <trkpt lat="37.04262" lon="28.15446">
        <ele>500.3</ele>
      </trkpt>
      <trkpt lat="37.04259" lon="28.15443">
        <ele>499.9</ele>
      </trkpt>
      <trkpt lat="37.04261" lon="28.15449">
        <ele>498.8</ele>
      </trkpt>
      <trkpt lat="37.04261" lon="28.1545">
        <ele>498.8</ele>
      </trkpt>
      <trkpt lat="37.04264" lon="28.15463">
        <ele>495.2</ele>
      </trkpt>
      <trkpt lat="37.04263" lon="28.15465">
        <ele>494.6</ele>
      </trkpt>
      <trkpt lat="37.04263" lon="28.15467">
        <ele>493.6</ele>
      </trkpt>
      <trkpt lat="37.04264" lon="28.15469">
        <ele>493.3</ele>
      </trkpt>
      <trkpt lat="37.04268" lon="28.15475">
        <ele>493.2</ele>
      </trkpt>
      <trkpt lat="37.04269" lon="28.15489">
        <ele>488.5</ele>
      </trkpt>
      <trkpt lat="37.04269" lon="28.1549">
        <ele>488.2</ele>
      </trkpt>
      <trkpt lat="37.04274" lon="28.15498">
        <ele>487.4</ele>
      </trkpt>
      <trkpt lat="37.04279" lon="28.15502">
        <ele>487.7</ele>
      </trkpt>
      <trkpt lat="37.04282" lon="28.15516">
        <ele>485</ele>
      </trkpt>
      <trkpt lat="37.04283" lon="28.15521">
        <ele>483.7</ele>
      </trkpt>
      <trkpt lat="37.04289" lon="28.15531">
        <ele>482.9</ele>
      </trkpt>
      <trkpt lat="37.04297" lon="28.15548">
        <ele>480.3</ele>
      </trkpt>
      <trkpt lat="37.04307" lon="28.15553">
        <ele>481.2</ele>
      </trkpt>
      <trkpt lat="37.04311" lon="28.1556">
        <ele>479.9</ele>
      </trkpt>
      <trkpt lat="37.04318" lon="28.15573">
        <ele>477.4</ele>
      </trkpt>
      <trkpt lat="37.04318" lon="28.15582">
        <ele>474</ele>
      </trkpt>
      <trkpt lat="37.04316" lon="28.15583">
        <ele>473.1</ele>
      </trkpt>
      <trkpt lat="37.04303" lon="28.15584">
        <ele>469.9</ele>
      </trkpt>
      <trkpt lat="37.043" lon="28.15589">
        <ele>468.5</ele>
      </trkpt>
      <trkpt lat="37.04301" lon="28.15599">
        <ele>467.5</ele>
      </trkpt>
      <trkpt lat="37.04299" lon="28.15604">
        <ele>466.2</ele>
      </trkpt>
      <trkpt lat="37.04297" lon="28.15608">
        <ele>465.2</ele>
      </trkpt>
      <trkpt lat="37.04284" lon="28.15612">
        <ele>461</ele>
      </trkpt>
      <trkpt lat="37.0428" lon="28.15613">
        <ele>460</ele>
      </trkpt>
      <trkpt lat="37.04271" lon="28.15624">
        <ele>455.2</ele>
      </trkpt>
      <trkpt lat="37.04268" lon="28.15635">
        <ele>452.4</ele>
      </trkpt>
      <trkpt lat="37.04265" lon="28.15642">
        <ele>450.1</ele>
      </trkpt>
      <trkpt lat="37.04262" lon="28.15646">
        <ele>448.4</ele>
      </trkpt>
      <trkpt lat="37.04257" lon="28.15664">
        <ele>443</ele>
      </trkpt>
      <trkpt lat="37.04256" lon="28.15665">
        <ele>442.5</ele>
      </trkpt>
      <trkpt lat="37.04256" lon="28.15667">
        <ele>442</ele>
      </trkpt>
      <trkpt lat="37.04255" lon="28.1567">
        <ele>440.9</ele>
      </trkpt>
      <trkpt lat="37.04252" lon="28.15673">
        <ele>439.4</ele>
      </trkpt>
      <trkpt lat="37.04252" lon="28.15678">
        <ele>438.4</ele>
      </trkpt>
      <trkpt lat="37.0425" lon="28.15692">
        <ele>435.1</ele>
      </trkpt>
      <trkpt lat="37.04248" lon="28.15694">
        <ele>433.1</ele>
      </trkpt>
      <trkpt lat="37.04245" lon="28.15692">
        <ele>431.1</ele>
      </trkpt>
      <trkpt lat="37.04242" lon="28.1569">
        <ele>429.9</ele>
      </trkpt>
      <trkpt lat="37.04237" lon="28.15686">
        <ele>427.4</ele>
      </trkpt>
      <trkpt lat="37.04239" lon="28.15694">
        <ele>426.9</ele>
      </trkpt>
      <trkpt lat="37.04238" lon="28.15704">
        <ele>424.3</ele>
      </trkpt>
      <trkpt lat="37.04239" lon="28.15716">
        <ele>422</ele>
      </trkpt>
      <trkpt lat="37.04239" lon="28.15717">
        <ele>422.1</ele>
      </trkpt>
      <trkpt lat="37.04241" lon="28.15734">
        <ele>419.8</ele>
      </trkpt>
      <trkpt lat="37.04247" lon="28.1575">
        <ele>420.4</ele>
      </trkpt>
      <trkpt lat="37.04255" lon="28.15757">
        <ele>423.3</ele>
      </trkpt>
      <trkpt lat="37.04261" lon="28.1578">
        <ele>420.9</ele>
      </trkpt>
      <trkpt lat="37.04267" lon="28.1579">
        <ele>421.1</ele>
      </trkpt>
      <trkpt lat="37.04277" lon="28.158">
        <ele>422.4</ele>
      </trkpt>
      <trkpt lat="37.04284" lon="28.15812">
        <ele>422.5</ele>
      </trkpt>
      <trkpt lat="37.04295" lon="28.1582">
        <ele>424.8</ele>
      </trkpt>
      <trkpt lat="37.04308" lon="28.15825">
        <ele>428.5</ele>
      </trkpt>
      <trkpt lat="37.04319" lon="28.15831">
        <ele>430.9</ele>
      </trkpt>
      <trkpt lat="37.0432" lon="28.15836">
        <ele>430.7</ele>
      </trkpt>
      <trkpt lat="37.04315" lon="28.15847">
        <ele>427.9</ele>
      </trkpt>
      <trkpt lat="37.04313" lon="28.15847">
        <ele>427</ele>
      </trkpt>
      <trkpt lat="37.04313" lon="28.15847">
        <ele>427.1</ele>
      </trkpt>
      <trkpt lat="37.04308" lon="28.15858">
        <ele>424.1</ele>
      </trkpt>
      <trkpt lat="37.04306" lon="28.15871">
        <ele>422</ele>
      </trkpt>
      <trkpt lat="37.04302" lon="28.15888">
        <ele>418.4</ele>
      </trkpt>
      <trkpt lat="37.04304" lon="28.15901">
        <ele>418.3</ele>
      </trkpt>
      <trkpt lat="37.04304" lon="28.15903">
        <ele>417.9</ele>
      </trkpt>
      <trkpt lat="37.04299" lon="28.15911">
        <ele>414.7</ele>
      </trkpt>
      <trkpt lat="37.04297" lon="28.15929">
        <ele>412.3</ele>
      </trkpt>
      <trkpt lat="37.04295" lon="28.15944">
        <ele>409.9</ele>
      </trkpt>
      <trkpt lat="37.04294" lon="28.15956">
        <ele>408.9</ele>
      </trkpt>
      <trkpt lat="37.04295" lon="28.15966">
        <ele>409</ele>
      </trkpt>
      <trkpt lat="37.04295" lon="28.15973">
        <ele>408.7</ele>
      </trkpt>
      <trkpt lat="37.04297" lon="28.15978">
        <ele>409.5</ele>
      </trkpt>
      <trkpt lat="37.04297" lon="28.15985">
        <ele>409</ele>
      </trkpt>
      <trkpt lat="37.04298" lon="28.15988">
        <ele>409.4</ele>
      </trkpt>
      <trkpt lat="37.04301" lon="28.15997">
        <ele>411.2</ele>
      </trkpt>
      <trkpt lat="37.04298" lon="28.16004">
        <ele>408.4</ele>
      </trkpt>
      <trkpt lat="37.04291" lon="28.16015">
        <ele>403.1</ele>
      </trkpt>
      <trkpt lat="37.0429" lon="28.16011">
        <ele>402.2</ele>
      </trkpt>
      <trkpt lat="37.04288" lon="28.16002">
        <ele>401.7</ele>
      </trkpt>
      <trkpt lat="37.0428" lon="28.15995">
        <ele>396.3</ele>
      </trkpt>
      <trkpt lat="37.04278" lon="28.15997">
        <ele>395.1</ele>
      </trkpt>
      <trkpt lat="37.04277" lon="28.16">
        <ele>394.2</ele>
      </trkpt>
      <trkpt lat="37.04277" lon="28.16006">
        <ele>394.1</ele>
      </trkpt>
      <trkpt lat="37.04272" lon="28.16021">
        <ele>389.9</ele>
      </trkpt>
      <trkpt lat="37.04269" lon="28.1603">
        <ele>387.4</ele>
      </trkpt>
      <trkpt lat="37.04264" lon="28.1604">
        <ele>383.8</ele>
      </trkpt>
      <trkpt lat="37.04262" lon="28.16046">
        <ele>382.1</ele>
      </trkpt>
      <trkpt lat="37.04253" lon="28.16061">
        <ele>376.2</ele>
      </trkpt>
      <trkpt lat="37.04253" lon="28.16067">
        <ele>376</ele>
      </trkpt>
      <trkpt lat="37.04253" lon="28.16075">
        <ele>375.9</ele>
      </trkpt>
      <trkpt lat="37.04248" lon="28.16087">
        <ele>372.4</ele>
      </trkpt>
      <trkpt lat="37.04247" lon="28.16108">
        <ele>372.7</ele>
      </trkpt>
      <trkpt lat="37.04254" lon="28.16122">
        <ele>376.4</ele>
      </trkpt>
      <trkpt lat="37.0425" lon="28.16144">
        <ele>374.8</ele>
      </trkpt>
      <trkpt lat="37.04248" lon="28.1616">
        <ele>373.7</ele>
      </trkpt>
      <trkpt lat="37.04248" lon="28.16162">
        <ele>374</ele>
      </trkpt>
      <trkpt lat="37.04241" lon="28.16168">
        <ele>370.6</ele>
      </trkpt>
      <trkpt lat="37.04235" lon="28.16171">
        <ele>368.1</ele>
      </trkpt>
      <trkpt lat="37.04233" lon="28.1617">
        <ele>367</ele>
      </trkpt>
      <trkpt lat="37.04232" lon="28.16166">
        <ele>366.2</ele>
      </trkpt>
      <trkpt lat="37.04237" lon="28.16153">
        <ele>368.3</ele>
      </trkpt>
      <trkpt lat="37.04237" lon="28.16152">
        <ele>368.3</ele>
      </trkpt>
      <trkpt lat="37.04234" lon="28.16136">
        <ele>365.9</ele>
      </trkpt>
      <trkpt lat="37.04226" lon="28.16144">
        <ele>361.9</ele>
      </trkpt>
      <trkpt lat="37.04218" lon="28.16153">
        <ele>358.1</ele>
      </trkpt>
      <trkpt lat="37.04214" lon="28.16161">
        <ele>357</ele>
      </trkpt>
      <trkpt lat="37.04214" lon="28.16161">
        <ele>356.7</ele>
      </trkpt>
      <trkpt lat="37.04211" lon="28.16158">
        <ele>355.2</ele>
      </trkpt>
      <trkpt lat="37.04207" lon="28.16157">
        <ele>352.8</ele>
      </trkpt>
      <trkpt lat="37.04199" lon="28.16172">
        <ele>350.1</ele>
      </trkpt>
      <trkpt lat="37.04199" lon="28.1618">
        <ele>350.9</ele>
      </trkpt>
      <trkpt lat="37.04199" lon="28.16189">
        <ele>351</ele>
      </trkpt>
      <trkpt lat="37.04198" lon="28.16195">
        <ele>351.3</ele>
      </trkpt>
      <trkpt lat="37.04194" lon="28.16207">
        <ele>349.5</ele>
      </trkpt>
      <trkpt lat="37.04189" lon="28.16215">
        <ele>347.4</ele>
      </trkpt>
      <trkpt lat="37.04186" lon="28.16205">
        <ele>345.3</ele>
      </trkpt>
      <trkpt lat="37.04185" lon="28.16201">
        <ele>344.9</ele>
      </trkpt>
      <trkpt lat="37.04184" lon="28.16195">
        <ele>343.7</ele>
      </trkpt>
      <trkpt lat="37.0418" lon="28.16186">
        <ele>341.2</ele>
      </trkpt>
      <trkpt lat="37.04174" lon="28.16171">
        <ele>337.8</ele>
      </trkpt>
      <trkpt lat="37.04173" lon="28.1616">
        <ele>336.2</ele>
      </trkpt>
      <trkpt lat="37.04173" lon="28.16154">
        <ele>335</ele>
      </trkpt>
      <trkpt lat="37.04173" lon="28.16146">
        <ele>333.9</ele>
      </trkpt>
      <trkpt lat="37.04169" lon="28.16147">
        <ele>331.9</ele>
      </trkpt>
      <trkpt lat="37.04161" lon="28.16156">
        <ele>329.3</ele>
      </trkpt>
      <trkpt lat="37.04157" lon="28.16159">
        <ele>327.6</ele>
      </trkpt>
      <trkpt lat="37.04158" lon="28.16158">
        <ele>328.1</ele>
      </trkpt>
      <trkpt lat="37.04158" lon="28.16158">
        <ele>328.1</ele>
      </trkpt>
      <trkpt lat="37.04158" lon="28.16158">
        <ele>328.1</ele>
      </trkpt>
      <trkpt lat="37.04158" lon="28.16159">
        <ele>328.1</ele>
      </trkpt>
      <trkpt lat="37.04152" lon="28.16176">
        <ele>326.7</ele>
      </trkpt>
      <trkpt lat="37.04142" lon="28.16189">
        <ele>322.4</ele>
      </trkpt>
      <trkpt lat="37.04139" lon="28.16194">
        <ele>320.7</ele>
      </trkpt>
      <trkpt lat="37.04134" lon="28.1621">
        <ele>318.5</ele>
      </trkpt>
      <trkpt lat="37.04134" lon="28.16211">
        <ele>318.6</ele>
      </trkpt>
      <trkpt lat="37.04133" lon="28.16212">
        <ele>318.2</ele>
      </trkpt>
      <trkpt lat="37.04129" lon="28.16219">
        <ele>316.4</ele>
      </trkpt>
      <trkpt lat="37.04129" lon="28.16224">
        <ele>316.3</ele>
      </trkpt>
      <trkpt lat="37.04126" lon="28.1623">
        <ele>315.2</ele>
      </trkpt>
      <trkpt lat="37.04119" lon="28.16236">
        <ele>311.5</ele>
      </trkpt>
      <trkpt lat="37.04114" lon="28.16239">
        <ele>308.8</ele>
      </trkpt>
      <trkpt lat="37.04107" lon="28.16229">
        <ele>305.1</ele>
      </trkpt>
      <trkpt lat="37.04106" lon="28.16227">
        <ele>304.6</ele>
      </trkpt>
      <trkpt lat="37.04103" lon="28.16217">
        <ele>302.7</ele>
      </trkpt>
      <trkpt lat="37.04102" lon="28.16216">
        <ele>302.4</ele>
      </trkpt>
      <trkpt lat="37.04097" lon="28.16207">
        <ele>299.5</ele>
      </trkpt>
      <trkpt lat="37.04094" lon="28.16193">
        <ele>297.8</ele>
      </trkpt>
      <trkpt lat="37.04094" lon="28.16186">
        <ele>297.9</ele>
      </trkpt>
      <trkpt lat="37.04094" lon="28.1618">
        <ele>297.4</ele>
      </trkpt>
      <trkpt lat="37.04091" lon="28.16175">
        <ele>296.1</ele>
      </trkpt>
      <trkpt lat="37.04091" lon="28.16163">
        <ele>295.3</ele>
      </trkpt>
      <trkpt lat="37.04088" lon="28.16156">
        <ele>292.5</ele>
      </trkpt>
      <trkpt lat="37.04079" lon="28.16151">
        <ele>287.4</ele>
      </trkpt>
      <trkpt lat="37.04078" lon="28.16148">
        <ele>286.5</ele>
      </trkpt>
      <trkpt lat="37.04071" lon="28.16143">
        <ele>282.9</ele>
      </trkpt>
      <trkpt lat="37.04068" lon="28.16145">
        <ele>282</ele>
      </trkpt>
      <trkpt lat="37.04063" lon="28.16149">
        <ele>280.2</ele>
      </trkpt>
      <trkpt lat="37.04064" lon="28.16135">
        <ele>278.4</ele>
      </trkpt>
      <trkpt lat="37.04069" lon="28.16125">
        <ele>279.3</ele>
      </trkpt>
      <trkpt lat="37.04071" lon="28.16114">
        <ele>278.5</ele>
      </trkpt>
      <trkpt lat="37.04073" lon="28.16104">
        <ele>277.7</ele>
      </trkpt>
      <trkpt lat="37.04073" lon="28.16103">
        <ele>277.3</ele>
      </trkpt>
      <trkpt lat="37.0407" lon="28.16105">
        <ele>276.6</ele>
      </trkpt>
      <trkpt lat="37.04062" lon="28.16106">
        <ele>273.7</ele>
      </trkpt>
      <trkpt lat="37.04057" lon="28.16109">
        <ele>272.4</ele>
      </trkpt>
      <trkpt lat="37.04049" lon="28.16121">
        <ele>270.6</ele>
      </trkpt>
      <trkpt lat="37.04046" lon="28.16125">
        <ele>269.9</ele>
      </trkpt>
      <trkpt lat="37.04037" lon="28.16132">
        <ele>267</ele>
      </trkpt>
      <trkpt lat="37.04031" lon="28.16139">
        <ele>265.5</ele>
      </trkpt>
      <trkpt lat="37.04029" lon="28.16144">
        <ele>265</ele>
      </trkpt>
      <trkpt lat="37.04025" lon="28.16137">
        <ele>262.8</ele>
      </trkpt>
      <trkpt lat="37.04022" lon="28.16131">
        <ele>260.9</ele>
      </trkpt>
      <trkpt lat="37.0402" lon="28.16127">
        <ele>259.9</ele>
      </trkpt>
      <trkpt lat="37.0402" lon="28.16124">
        <ele>259.4</ele>
      </trkpt>
      <trkpt lat="37.04013" lon="28.16118">
        <ele>256</ele>
      </trkpt>
      <trkpt lat="37.04004" lon="28.16106">
        <ele>251.9</ele>
      </trkpt>
      <trkpt lat="37.04001" lon="28.161">
        <ele>250.3</ele>
      </trkpt>
      <trkpt lat="37.03997" lon="28.16091">
        <ele>248.2</ele>
      </trkpt>
      <trkpt lat="37.03998" lon="28.16079">
        <ele>247.3</ele>
      </trkpt>
      <trkpt lat="37.03994" lon="28.16062">
        <ele>242.8</ele>
      </trkpt>
      <trkpt lat="37.03993" lon="28.16053">
        <ele>240.6</ele>
      </trkpt>
      <trkpt lat="37.0399" lon="28.1605">
        <ele>239.1</ele>
      </trkpt>
      <trkpt lat="37.03987" lon="28.16052">
        <ele>238.4</ele>
      </trkpt>
      <trkpt lat="37.0398" lon="28.16055">
        <ele>236.4</ele>
      </trkpt>
      <trkpt lat="37.03976" lon="28.1606">
        <ele>235.5</ele>
      </trkpt>
      <trkpt lat="37.03973" lon="28.16058">
        <ele>234</ele>
      </trkpt>
      <trkpt lat="37.03972" lon="28.16043">
        <ele>230.9</ele>
      </trkpt>
      <trkpt lat="37.03972" lon="28.16033">
        <ele>228.9</ele>
      </trkpt>
      <trkpt lat="37.03969" lon="28.1603">
        <ele>227.7</ele>
      </trkpt>
      <trkpt lat="37.03958" lon="28.16041">
        <ele>225.2</ele>
      </trkpt>
      <trkpt lat="37.0395" lon="28.16049">
        <ele>223.7</ele>
      </trkpt>
      <trkpt lat="37.03941" lon="28.16057">
        <ele>221.4</ele>
      </trkpt>
      <trkpt lat="37.03939" lon="28.16053">
        <ele>220</ele>
      </trkpt>
      <trkpt lat="37.03941" lon="28.16046">
        <ele>219.5</ele>
      </trkpt>
      <trkpt lat="37.03941" lon="28.16043">
        <ele>219.1</ele>
      </trkpt>
      <trkpt lat="37.03937" lon="28.16044">
        <ele>217.7</ele>
      </trkpt>
      <trkpt lat="37.03924" lon="28.16053">
        <ele>214.4</ele>
      </trkpt>
      <trkpt lat="37.03923" lon="28.16054">
        <ele>214.1</ele>
      </trkpt>
      <trkpt lat="37.03918" lon="28.16059">
        <ele>213.2</ele>
      </trkpt>
      <trkpt lat="37.03909" lon="28.16064">
        <ele>210.4</ele>
      </trkpt>
      <trkpt lat="37.03907" lon="28.16067">
        <ele>210</ele>
      </trkpt>
      <trkpt lat="37.03905" lon="28.16063">
        <ele>208.5</ele>
      </trkpt>
      <trkpt lat="37.03903" lon="28.16064">
        <ele>208.1</ele>
      </trkpt>
      <trkpt lat="37.03899" lon="28.16072">
        <ele>208.1</ele>
      </trkpt>
      <trkpt lat="37.03899" lon="28.16071">
        <ele>207.7</ele>
      </trkpt>
      <trkpt lat="37.03896" lon="28.16068">
        <ele>206.1</ele>
      </trkpt>
      <trkpt lat="37.03895" lon="28.1607">
        <ele>205.7</ele>
      </trkpt>
      <trkpt lat="37.03893" lon="28.16079">
        <ele>206.6</ele>
      </trkpt>
      <trkpt lat="37.03887" lon="28.16083">
        <ele>204.8</ele>
      </trkpt>
      <trkpt lat="37.03884" lon="28.16095">
        <ele>204</ele>
      </trkpt>
      <trkpt lat="37.03882" lon="28.16099">
        <ele>203.5</ele>
      </trkpt>
      <trkpt lat="37.03879" lon="28.16105">
        <ele>202.6</ele>
      </trkpt>
      <trkpt lat="37.03875" lon="28.16109">
        <ele>201.1</ele>
      </trkpt>
      <trkpt lat="37.03868" lon="28.16104">
        <ele>198.1</ele>
      </trkpt>
      <trkpt lat="37.03865" lon="28.16108">
        <ele>197</ele>
      </trkpt>
      <trkpt lat="37.03864" lon="28.16108">
        <ele>196.6</ele>
      </trkpt>
      <trkpt lat="37.03862" lon="28.16108">
        <ele>195.8</ele>
      </trkpt>
      <trkpt lat="37.03847" lon="28.16106">
        <ele>189.3</ele>
      </trkpt>
      <trkpt lat="37.03846" lon="28.16107">
        <ele>189</ele>
      </trkpt>
      <trkpt lat="37.03844" lon="28.1611">
        <ele>188.2</ele>
      </trkpt>
      <trkpt lat="37.03836" lon="28.16124">
        <ele>185.7</ele>
      </trkpt>
      <trkpt lat="37.03834" lon="28.16119">
        <ele>184.6</ele>
      </trkpt>
      <trkpt lat="37.03834" lon="28.16121">
        <ele>184.6</ele>
      </trkpt>
      <trkpt lat="37.03835" lon="28.16124">
        <ele>184.9</ele>
      </trkpt>
      <trkpt lat="37.03835" lon="28.16125">
        <ele>185</ele>
      </trkpt>
      <trkpt lat="37.03833" lon="28.16142">
        <ele>184.9</ele>
      </trkpt>
      <trkpt lat="37.03833" lon="28.16163">
        <ele>185.6</ele>
      </trkpt>
      <trkpt lat="37.03833" lon="28.16165">
        <ele>185.6</ele>
      </trkpt>
      <trkpt lat="37.03835" lon="28.16188">
        <ele>185.2</ele>
      </trkpt>
      <trkpt lat="37.03833" lon="28.16204">
        <ele>183.3</ele>
      </trkpt>
      <trkpt lat="37.03829" lon="28.16218">
        <ele>180.9</ele>
      </trkpt>
      <trkpt lat="37.03829" lon="28.16239">
        <ele>179.3</ele>
      </trkpt>
      <trkpt lat="37.03826" lon="28.16249">
        <ele>177.9</ele>
      </trkpt>
      <trkpt lat="37.03824" lon="28.16267">
        <ele>176.2</ele>
      </trkpt>
      <trkpt lat="37.03827" lon="28.16291">
        <ele>175.5</ele>
      </trkpt>
      <trkpt lat="37.03825" lon="28.16305">
        <ele>174.3</ele>
      </trkpt>
      <trkpt lat="37.03822" lon="28.16321">
        <ele>172.5</ele>
      </trkpt>
      <trkpt lat="37.03821" lon="28.16335">
        <ele>171.5</ele>
      </trkpt>
      <trkpt lat="37.0382" lon="28.1636">
        <ele>169.4</ele>
      </trkpt>
      <trkpt lat="37.03818" lon="28.16383">
        <ele>167.4</ele>
      </trkpt>
      <trkpt lat="37.03821" lon="28.16404">
        <ele>166.8</ele>
      </trkpt>
      <trkpt lat="37.03822" lon="28.16423">
        <ele>165.6</ele>
      </trkpt>
      <trkpt lat="37.03815" lon="28.16441">
        <ele>162.4</ele>
      </trkpt>
      <trkpt lat="37.03804" lon="28.16455">
        <ele>158.8</ele>
      </trkpt>
      <trkpt lat="37.03789" lon="28.16462">
        <ele>154.5</ele>
      </trkpt>
      <trkpt lat="37.03772" lon="28.16464">
        <ele>150.5</ele>
      </trkpt>
      <trkpt lat="37.03763" lon="28.16467">
        <ele>148.1</ele>
      </trkpt>
      <trkpt lat="37.03745" lon="28.16472">
        <ele>144</ele>
      </trkpt>
      <trkpt lat="37.03744" lon="28.16472">
        <ele>143.8</ele>
      </trkpt>
      <trkpt lat="37.03728" lon="28.16476">
        <ele>141.4</ele>
      </trkpt>
      <trkpt lat="37.0372" lon="28.16479">
        <ele>140.1</ele>
      </trkpt>
      <trkpt lat="37.03717" lon="28.16481">
        <ele>139.6</ele>
      </trkpt>
      <trkpt lat="37.03714" lon="28.16491">
        <ele>138.5</ele>
      </trkpt>
      <trkpt lat="37.03701" lon="28.16515">
        <ele>134.5</ele>
      </trkpt>
      <trkpt lat="37.03697" lon="28.16522">
        <ele>133.1</ele>
      </trkpt>
      <trkpt lat="37.03697" lon="28.16521">
        <ele>133.2</ele>
      </trkpt>
      <trkpt lat="37.03711" lon="28.16534">
        <ele>133.8</ele>
      </trkpt>
      <trkpt lat="37.03719" lon="28.16542">
        <ele>134.2</ele>
      </trkpt>
      <trkpt lat="37.03721" lon="28.16544">
        <ele>134.2</ele>
      </trkpt>
      <trkpt lat="37.03732" lon="28.16558">
        <ele>134.4</ele>
      </trkpt>
      <trkpt lat="37.03737" lon="28.16576">
        <ele>133</ele>
      </trkpt>
      <trkpt lat="37.03745" lon="28.16597">
        <ele>133.4</ele>
      </trkpt>
      <trkpt lat="37.0375" lon="28.16611">
        <ele>134.3</ele>
      </trkpt>
      <trkpt lat="37.03738" lon="28.1665">
        <ele>132.1</ele>
      </trkpt>
      <trkpt lat="37.03728" lon="28.16674">
        <ele>129.7</ele>
      </trkpt>
      <trkpt lat="37.03718" lon="28.16697">
        <ele>128.4</ele>
      </trkpt>
      <trkpt lat="37.03712" lon="28.16724">
        <ele>127.9</ele>
      </trkpt>
      <trkpt lat="37.03707" lon="28.16743">
        <ele>127.3</ele>
      </trkpt>
      <trkpt lat="37.03705" lon="28.16765">
        <ele>125.7</ele>
      </trkpt>
      <trkpt lat="37.03707" lon="28.16779">
        <ele>125.3</ele>
      </trkpt>
      <trkpt lat="37.03708" lon="28.16802">
        <ele>123.6</ele>
      </trkpt>
      <trkpt lat="37.03709" lon="28.16809">
        <ele>123.2</ele>
      </trkpt>
      <trkpt lat="37.0371" lon="28.16815">
        <ele>122.9</ele>
      </trkpt>
      <trkpt lat="37.03712" lon="28.1682">
        <ele>123</ele>
      </trkpt>
      <trkpt lat="37.03714" lon="28.16825">
        <ele>123.2</ele>
      </trkpt>
      <trkpt lat="37.0372" lon="28.16838">
        <ele>124.1</ele>
      </trkpt>
      <trkpt lat="37.03724" lon="28.16853">
        <ele>125.7</ele>
      </trkpt>
      <trkpt lat="37.03724" lon="28.16855">
        <ele>125.8</ele>
      </trkpt>
      <trkpt lat="37.03712" lon="28.16863">
        <ele>123.4</ele>
      </trkpt>
      <trkpt lat="37.03709" lon="28.16869">
        <ele>123</ele>
      </trkpt>
      <trkpt lat="37.03707" lon="28.16877">
        <ele>123.1</ele>
      </trkpt>
      <trkpt lat="37.03699" lon="28.16888">
        <ele>122.3</ele>
      </trkpt>
      <trkpt lat="37.03691" lon="28.16903">
        <ele>122.2</ele>
      </trkpt>
      <trkpt lat="37.03684" lon="28.16921">
        <ele>122</ele>
      </trkpt>
      <trkpt lat="37.03681" lon="28.16919">
        <ele>121.8</ele>
      </trkpt>
      <trkpt lat="37.03673" lon="28.16932">
        <ele>119.7</ele>
      </trkpt>
      <trkpt lat="37.03661" lon="28.16956">
        <ele>115.5</ele>
      </trkpt>
      <trkpt lat="37.0366" lon="28.16961">
        <ele>115</ele>
      </trkpt>
      <trkpt lat="37.0366" lon="28.16975">
        <ele>114</ele>
      </trkpt>
      <trkpt lat="37.03663" lon="28.16988">
        <ele>114</ele>
      </trkpt>
      <trkpt lat="37.03668" lon="28.16995">
        <ele>114.5</ele>
      </trkpt>
      <trkpt lat="37.03672" lon="28.16996">
        <ele>115.1</ele>
      </trkpt>
      <trkpt lat="37.03684" lon="28.16998">
        <ele>116.9</ele>
      </trkpt>
      <trkpt lat="37.03678" lon="28.17003">
        <ele>115.3</ele>
      </trkpt>
      <trkpt lat="37.03667" lon="28.17002">
        <ele>113.7</ele>
      </trkpt>
      <trkpt lat="37.03664" lon="28.17001">
        <ele>113.1</ele>
      </trkpt>
      <trkpt lat="37.03655" lon="28.17">
        <ele>110.8</ele>
      </trkpt>
      <trkpt lat="37.03644" lon="28.17007">
        <ele>107.1</ele>
      </trkpt>
      <trkpt lat="37.03638" lon="28.1701">
        <ele>105</ele>
      </trkpt>
      <trkpt lat="37.03643" lon="28.17019">
        <ele>104.7</ele>
      </trkpt>
      <trkpt lat="37.0365" lon="28.17028">
        <ele>105.3</ele>
      </trkpt>
      <trkpt lat="37.03657" lon="28.17034">
        <ele>106.2</ele>
      </trkpt>
      <trkpt lat="37.03664" lon="28.17036">
        <ele>107.6</ele>
      </trkpt>
      <trkpt lat="37.03678" lon="28.17043">
        <ele>109.3</ele>
      </trkpt>
      <trkpt lat="37.03681" lon="28.17045">
        <ele>109.6</ele>
      </trkpt>
      <trkpt lat="37.03686" lon="28.17054">
        <ele>109.2</ele>
      </trkpt>
      <trkpt lat="37.03687" lon="28.1706">
        <ele>108.4</ele>
      </trkpt>
      <trkpt lat="37.03685" lon="28.17077">
        <ele>105.7</ele>
      </trkpt>
      <trkpt lat="37.03684" lon="28.17083">
        <ele>104.6</ele>
      </trkpt>
      <trkpt lat="37.03673" lon="28.1709">
        <ele>103.1</ele>
      </trkpt>
      <trkpt lat="37.03659" lon="28.17092">
        <ele>100.2</ele>
      </trkpt>
      <trkpt lat="37.03656" lon="28.17097">
        <ele>99.8</ele>
      </trkpt>
      <trkpt lat="37.03651" lon="28.17112">
        <ele>100.6</ele>
      </trkpt>
      <trkpt lat="37.03652" lon="28.17118">
        <ele>101.6</ele>
      </trkpt>
      <trkpt lat="37.03652" lon="28.17133">
        <ele>103.2</ele>
      </trkpt>
      <trkpt lat="37.03652" lon="28.17142">
        <ele>104.4</ele>
      </trkpt>
      <trkpt lat="37.03657" lon="28.17155">
        <ele>107.4</ele>
      </trkpt>
      <trkpt lat="37.03667" lon="28.17166">
        <ele>111</ele>
      </trkpt>
      <trkpt lat="37.03672" lon="28.17175">
        <ele>111.1</ele>
      </trkpt>
      <trkpt lat="37.03684" lon="28.17185">
        <ele>111.9</ele>
      </trkpt>
      <trkpt lat="37.0369" lon="28.17189">
        <ele>112.3</ele>
      </trkpt>
      <trkpt lat="37.03695" lon="28.172">
        <ele>112.3</ele>
      </trkpt>
      <trkpt lat="37.03699" lon="28.17206">
        <ele>112.4</ele>
      </trkpt>
      <trkpt lat="37.03714" lon="28.17223">
        <ele>113.4</ele>
      </trkpt>
      <trkpt lat="37.03719" lon="28.17226">
        <ele>113.9</ele>
      </trkpt>
      <trkpt lat="37.03726" lon="28.17227">
        <ele>114.7</ele>
      </trkpt>
      <trkpt lat="37.03735" lon="28.17239">
        <ele>115.3</ele>
      </trkpt>
      <trkpt lat="37.03736" lon="28.17245">
        <ele>115.2</ele>
      </trkpt>
      <trkpt lat="37.03733" lon="28.17256">
        <ele>114.7</ele>
      </trkpt>
      <trkpt lat="37.03731" lon="28.17272">
        <ele>114.6</ele>
      </trkpt>
      <trkpt lat="37.03732" lon="28.17291">
        <ele>115</ele>
      </trkpt>
      <trkpt lat="37.03732" lon="28.17292">
        <ele>115.1</ele>
      </trkpt>
      <trkpt lat="37.03734" lon="28.17316">
        <ele>115.9</ele>
      </trkpt>
      <trkpt lat="37.03734" lon="28.17325">
        <ele>115.9</ele>
      </trkpt>
      <trkpt lat="37.03732" lon="28.17345">
        <ele>115.8</ele>
      </trkpt>
      <trkpt lat="37.03739" lon="28.17356">
        <ele>117.7</ele>
      </trkpt>
      <trkpt lat="37.03736" lon="28.17367">
        <ele>117.1</ele>
      </trkpt>
      <trkpt lat="37.03732" lon="28.17368">
        <ele>116.1</ele>
      </trkpt>
      <trkpt lat="37.03726" lon="28.17373">
        <ele>114.7</ele>
      </trkpt>
      <trkpt lat="37.03727" lon="28.17376">
        <ele>115</ele>
      </trkpt>
      <trkpt lat="37.03736" lon="28.17392">
        <ele>117.4</ele>
      </trkpt>
      <trkpt lat="37.03735" lon="28.17394">
        <ele>117.4</ele>
      </trkpt>
      <trkpt lat="37.03731" lon="28.17404">
        <ele>116.4</ele>
      </trkpt>
      <trkpt lat="37.03733" lon="28.17407">
        <ele>117</ele>
      </trkpt>
      <trkpt lat="37.0373" lon="28.17415">
        <ele>116.2</ele>
      </trkpt>
      <trkpt lat="37.03725" lon="28.1742">
        <ele>115</ele>
      </trkpt>
      <trkpt lat="37.03725" lon="28.17424">
        <ele>114.9</ele>
      </trkpt>
      <trkpt lat="37.03724" lon="28.17425">
        <ele>114.7</ele>
      </trkpt>
      <trkpt lat="37.0372" lon="28.17445">
        <ele>113.9</ele>
      </trkpt>
      <trkpt lat="37.03717" lon="28.17453">
        <ele>113.5</ele>
      </trkpt>
      <trkpt lat="37.03717" lon="28.17464">
        <ele>113.5</ele>
      </trkpt>
      <trkpt lat="37.03717" lon="28.17469">
        <ele>113.7</ele>
      </trkpt>
      <trkpt lat="37.03716" lon="28.17483">
        <ele>113.7</ele>
      </trkpt>
      <trkpt lat="37.03719" lon="28.17497">
        <ele>115.2</ele>
      </trkpt>
      <trkpt lat="37.03723" lon="28.1751">
        <ele>116.3</ele>
      </trkpt>
      <trkpt lat="37.03721" lon="28.17518">
        <ele>115.6</ele>
      </trkpt>
      <trkpt lat="37.0372" lon="28.17524">
        <ele>115.3</ele>
      </trkpt>
      <trkpt lat="37.0372" lon="28.17541">
        <ele>114.7</ele>
      </trkpt>
      <trkpt lat="37.03719" lon="28.17565">
        <ele>114.2</ele>
      </trkpt>
      <trkpt lat="37.03721" lon="28.17573">
        <ele>114.8</ele>
      </trkpt>
      <trkpt lat="37.0372" lon="28.17578">
        <ele>114</ele>
      </trkpt>
      <trkpt lat="37.03719" lon="28.17589">
        <ele>113.6</ele>
      </trkpt>
      <trkpt lat="37.03716" lon="28.1761">
        <ele>111</ele>
      </trkpt>
      <trkpt lat="37.03718" lon="28.17631">
        <ele>110.2</ele>
      </trkpt>
      <trkpt lat="37.03725" lon="28.17645">
        <ele>112.3</ele>
      </trkpt>
      <trkpt lat="37.03725" lon="28.17656">
        <ele>111.9</ele>
      </trkpt>
      <trkpt lat="37.03723" lon="28.17664">
        <ele>110.5</ele>
      </trkpt>
      <trkpt lat="37.03723" lon="28.17668">
        <ele>110.2</ele>
      </trkpt>
      <trkpt lat="37.03722" lon="28.17672">
        <ele>109.8</ele>
      </trkpt>
      <trkpt lat="37.03721" lon="28.17676">
        <ele>109.4</ele>
      </trkpt>
      <trkpt lat="37.0372" lon="28.17695">
        <ele>108.8</ele>
      </trkpt>
      <trkpt lat="37.03722" lon="28.17711">
        <ele>109.4</ele>
      </trkpt>
      <trkpt lat="37.03723" lon="28.17728">
        <ele>109.6</ele>
      </trkpt>
      <trkpt lat="37.03725" lon="28.17741">
        <ele>110.7</ele>
      </trkpt>
      <trkpt lat="37.03733" lon="28.17755">
        <ele>113.6</ele>
      </trkpt>
      <trkpt lat="37.03733" lon="28.17757">
        <ele>113.7</ele>
      </trkpt>
      <trkpt lat="37.03738" lon="28.17771">
        <ele>114.8</ele>
      </trkpt>
      <trkpt lat="37.03742" lon="28.17788">
        <ele>115.5</ele>
      </trkpt>
      <trkpt lat="37.03743" lon="28.17796">
        <ele>115.4</ele>
      </trkpt>
      <trkpt lat="37.03744" lon="28.17811">
        <ele>115</ele>
      </trkpt>
      <trkpt lat="37.03744" lon="28.17818">
        <ele>114.7</ele>
      </trkpt>
      <trkpt lat="37.03747" lon="28.17837">
        <ele>114.5</ele>
      </trkpt>
      <trkpt lat="37.03752" lon="28.1786">
        <ele>113.2</ele>
      </trkpt>
      <trkpt lat="37.03751" lon="28.17866">
        <ele>112</ele>
      </trkpt>
      <trkpt lat="37.03751" lon="28.17866">
        <ele>112</ele>
      </trkpt>
      <trkpt lat="37.03752" lon="28.17865">
        <ele>112.6</ele>
      </trkpt>
      <trkpt lat="37.03754" lon="28.17864">
        <ele>113.4</ele>
      </trkpt>
      <trkpt lat="37.03755" lon="28.17876">
        <ele>112.5</ele>
      </trkpt>
      <trkpt lat="37.03759" lon="28.17877">
        <ele>113.7</ele>
      </trkpt>
      <trkpt lat="37.03763" lon="28.17887">
        <ele>114.1</ele>
      </trkpt>
      <trkpt lat="37.03766" lon="28.17897">
        <ele>114.2</ele>
      </trkpt>
      <trkpt lat="37.03765" lon="28.17916">
        <ele>111.3</ele>
      </trkpt>
      <trkpt lat="37.03766" lon="28.17936">
        <ele>107.7</ele>
      </trkpt>
      <trkpt lat="37.03773" lon="28.17948">
        <ele>107.6</ele>
      </trkpt>
      <trkpt lat="37.03786" lon="28.17956">
        <ele>110.2</ele>
      </trkpt>
      <trkpt lat="37.03793" lon="28.1797">
        <ele>109.2</ele>
      </trkpt>
      <trkpt lat="37.03801" lon="28.17981">
        <ele>108.9</ele>
      </trkpt>
      <trkpt lat="37.03806" lon="28.17995">
        <ele>106.8</ele>
      </trkpt>
      <trkpt lat="37.0381" lon="28.18009">
        <ele>104.9</ele>
      </trkpt>
      <trkpt lat="37.0381" lon="28.18019">
        <ele>102.7</ele>
      </trkpt>
      <trkpt lat="37.03808" lon="28.18035">
        <ele>99.1</ele>
      </trkpt>
      <trkpt lat="37.03809" lon="28.18049">
        <ele>96.7</ele>
      </trkpt>
      <trkpt lat="37.03815" lon="28.18063">
        <ele>95.4</ele>
      </trkpt>
      <trkpt lat="37.03807" lon="28.18079">
        <ele>90.7</ele>
      </trkpt>
      <trkpt lat="37.03845" lon="28.18154">
        <ele>92.3</ele>
      </trkpt>
      <trkpt lat="37.03844" lon="28.18156">
        <ele>91.9</ele>
      </trkpt>
      <trkpt lat="37.03844" lon="28.18172">
        <ele>90.3</ele>
      </trkpt>
      <trkpt lat="37.03837" lon="28.18177">
        <ele>88.8</ele>
      </trkpt>
      <trkpt lat="37.03829" lon="28.18184">
        <ele>86.9</ele>
      </trkpt>
      <trkpt lat="37.03821" lon="28.18198">
        <ele>84.7</ele>
      </trkpt>
      <trkpt lat="37.03816" lon="28.18204">
        <ele>83.7</ele>
      </trkpt>
      <trkpt lat="37.03804" lon="28.18211">
        <ele>81.8</ele>
      </trkpt>
      <trkpt lat="37.038" lon="28.18215">
        <ele>81.2</ele>
      </trkpt>
      <trkpt lat="37.03792" lon="28.18222">
        <ele>79.9</ele>
      </trkpt>
      <trkpt lat="37.03778" lon="28.18234">
        <ele>77.9</ele>
      </trkpt>
      <trkpt lat="37.03774" lon="28.18239">
        <ele>77.3</ele>
      </trkpt>
      <trkpt lat="37.03768" lon="28.1825">
        <ele>76.5</ele>
      </trkpt>
      <trkpt lat="37.03766" lon="28.18256">
        <ele>75.9</ele>
      </trkpt>
      <trkpt lat="37.03755" lon="28.1827">
        <ele>73.6</ele>
      </trkpt>
      <trkpt lat="37.03744" lon="28.1829">
        <ele>70.5</ele>
      </trkpt>
      <trkpt lat="37.03739" lon="28.18303">
        <ele>68.7</ele>
      </trkpt>
      <trkpt lat="37.03739" lon="28.18304">
        <ele>68.6</ele>
      </trkpt>
      <trkpt lat="37.03735" lon="28.18302">
        <ele>68.4</ele>
      </trkpt>
      <trkpt lat="37.03721" lon="28.18315">
        <ele>65.9</ele>
      </trkpt>
      <trkpt lat="37.03708" lon="28.18326">
        <ele>63.9</ele>
      </trkpt>
      <trkpt lat="37.037" lon="28.18338">
        <ele>62.4</ele>
      </trkpt>
      <trkpt lat="37.03694" lon="28.18349">
        <ele>60.7</ele>
      </trkpt>
      <trkpt lat="37.03695" lon="28.18358">
        <ele>59.7</ele>
      </trkpt>
      <trkpt lat="37.03688" lon="28.18364">
        <ele>58.6</ele>
      </trkpt>
      <trkpt lat="37.03682" lon="28.1838">
        <ele>56.6</ele>
      </trkpt>
      <trkpt lat="37.03673" lon="28.18399">
        <ele>54.1</ele>
      </trkpt>
      <trkpt lat="37.03668" lon="28.18412">
        <ele>52.5</ele>
      </trkpt>
      <trkpt lat="37.03661" lon="28.1843">
        <ele>49.2</ele>
      </trkpt>
      <trkpt lat="37.03657" lon="28.18447">
        <ele>46.1</ele>
      </trkpt>
      <trkpt lat="37.03653" lon="28.18458">
        <ele>44</ele>
      </trkpt>
      <trkpt lat="37.03651" lon="28.18461">
        <ele>43.5</ele>
      </trkpt>
      <trkpt lat="37.03645" lon="28.18478">
        <ele>40.5</ele>
      </trkpt>
      <trkpt lat="37.03637" lon="28.1849">
        <ele>38.2</ele>
      </trkpt>
      <trkpt lat="37.0363" lon="28.18503">
        <ele>36.1</ele>
      </trkpt>
      <trkpt lat="37.0363" lon="28.18503">
        <ele>36.1</ele>
      </trkpt>
      <trkpt lat="37.03631" lon="28.18517">
        <ele>33.8</ele>
      </trkpt>
      <trkpt lat="37.03631" lon="28.18517">
        <ele>33.8</ele>
      </trkpt>
      <trkpt lat="37.03631" lon="28.18517">
        <ele>33.8</ele>
      </trkpt>
      <trkpt lat="37.0363" lon="28.18518">
        <ele>33.7</ele>
      </trkpt>
      <trkpt lat="37.03645" lon="28.18514">
        <ele>34.6</ele>
      </trkpt>
      <trkpt lat="37.03663" lon="28.18503">
        <ele>36.5</ele>
      </trkpt>
      <trkpt lat="37.03687" lon="28.18503">
        <ele>39.5</ele>
      </trkpt>
      <trkpt lat="37.03707" lon="28.18514">
        <ele>40.7</ele>
      </trkpt>
      <trkpt lat="37.0374" lon="28.18537">
        <ele>41.7</ele>
      </trkpt>
      <trkpt lat="37.03762" lon="28.18579">
        <ele>42.2</ele>
      </trkpt>
      <trkpt lat="37.03781" lon="28.18638">
        <ele>39.3</ele>
      </trkpt>
      <trkpt lat="37.03803" lon="28.18688">
        <ele>38.2</ele>
      </trkpt>
      <trkpt lat="37.03799" lon="28.18706">
        <ele>33.9</ele>
      </trkpt>
      <trkpt lat="37.03808" lon="28.18743">
        <ele>29.7</ele>
      </trkpt>
      <trkpt lat="37.03823" lon="28.18788">
        <ele>25.5</ele>
      </trkpt>
      <trkpt lat="37.0385" lon="28.18828">
        <ele>25.1</ele>
      </trkpt>
      <trkpt lat="37.03874" lon="28.18857">
        <ele>27</ele>
      </trkpt>
      <trkpt lat="37.03899" lon="28.18887">
        <ele>26.9</ele>
      </trkpt>
      <trkpt lat="37.03919" lon="28.18921">
        <ele>23.6</ele>
      </trkpt>
      <trkpt lat="37.03929" lon="28.18926">
        <ele>26</ele>
      </trkpt>
      <trkpt lat="37.03938" lon="28.18924">
        <ele>28.4</ele>
      </trkpt>
      <trkpt lat="37.03941" lon="28.18924">
        <ele>29</ele>
      </trkpt>
      <trkpt lat="37.03948" lon="28.18928">
        <ele>30.7</ele>
      </trkpt>
      <trkpt lat="37.03951" lon="28.18928">
        <ele>31.8</ele>
      </trkpt>
      <trkpt lat="37.03965" lon="28.18931">
        <ele>35.2</ele>
      </trkpt>
      <trkpt lat="37.03967" lon="28.18927">
        <ele>35.8</ele>
      </trkpt>
      <trkpt lat="37.03966" lon="28.18935">
        <ele>35.5</ele>
      </trkpt>
      <trkpt lat="37.03967" lon="28.18938">
        <ele>35.8</ele>
      </trkpt>
      <trkpt lat="37.03967" lon="28.18938">
        <ele>35.8</ele>
      </trkpt>
      <trkpt lat="37.03967" lon="28.1894">
        <ele>35.9</ele>
      </trkpt>
      <trkpt lat="37.03965" lon="28.18945">
        <ele>35.4</ele>
      </trkpt>
      <trkpt lat="37.03965" lon="28.18947">
        <ele>35.5</ele>
      </trkpt>
      <trkpt lat="37.03964" lon="28.18949">
        <ele>35.3</ele>
      </trkpt>
      <trkpt lat="37.03963" lon="28.18958">
        <ele>35</ele>
      </trkpt>
      <trkpt lat="37.03961" lon="28.18967">
        <ele>34.5</ele>
      </trkpt>
      <trkpt lat="37.03961" lon="28.18971">
        <ele>34.7</ele>
      </trkpt>
      <trkpt lat="37.0396" lon="28.18976">
        <ele>34.3</ele>
      </trkpt>
      <trkpt lat="37.03961" lon="28.18985">
        <ele>34.6</ele>
      </trkpt>
      <trkpt lat="37.0396" lon="28.18987">
        <ele>34.5</ele>
      </trkpt>
      <trkpt lat="37.0396" lon="28.18994">
        <ele>34.5</ele>
      </trkpt>
      <trkpt lat="37.03959" lon="28.18997">
        <ele>34.1</ele>
      </trkpt>
      <trkpt lat="37.03958" lon="28.19004">
        <ele>34</ele>
      </trkpt>
      <trkpt lat="37.03959" lon="28.19009">
        <ele>34.4</ele>
      </trkpt>
      <trkpt lat="37.03959" lon="28.19015">
        <ele>34.2</ele>
      </trkpt>
      <trkpt lat="37.0396" lon="28.1902">
        <ele>34.7</ele>
      </trkpt>
      <trkpt lat="37.03962" lon="28.19032">
        <ele>35.3</ele>
      </trkpt>
      <trkpt lat="37.03963" lon="28.19034">
        <ele>35.5</ele>
      </trkpt>
      <trkpt lat="37.03965" lon="28.19037">
        <ele>36.3</ele>
      </trkpt>
      <trkpt lat="37.03966" lon="28.19038">
        <ele>36.5</ele>
      </trkpt>
      <trkpt lat="37.03965" lon="28.1904">
        <ele>36.3</ele>
      </trkpt>
      <trkpt lat="37.03965" lon="28.19044">
        <ele>36.5</ele>
      </trkpt>
      <trkpt lat="37.03965" lon="28.19049">
        <ele>36.5</ele>
      </trkpt>
      <trkpt lat="37.0397" lon="28.19059">
        <ele>38.1</ele>
      </trkpt>
      <trkpt lat="37.0397" lon="28.19068">
        <ele>38.1</ele>
      </trkpt>
      <trkpt lat="37.03975" lon="28.19078">
        <ele>39.7</ele>
      </trkpt>
      <trkpt lat="37.03977" lon="28.19085">
        <ele>40.6</ele>
      </trkpt>
      <trkpt lat="37.03978" lon="28.19085">
        <ele>40.6</ele>
      </trkpt>
      <trkpt lat="37.03975" lon="28.19086">
        <ele>39.8</ele>
      </trkpt>
      <trkpt lat="37.03976" lon="28.19091">
        <ele>39.7</ele>
      </trkpt>
      <trkpt lat="37.03979" lon="28.19098">
        <ele>40.4</ele>
      </trkpt>
      <trkpt lat="37.03984" lon="28.19106">
        <ele>41.6</ele>
      </trkpt>
      <trkpt lat="37.03984" lon="28.19107">
        <ele>41.5</ele>
      </trkpt>
      <trkpt lat="37.03984" lon="28.1911">
        <ele>41.5</ele>
      </trkpt>
      <trkpt lat="37.03989" lon="28.19118">
        <ele>42.5</ele>
      </trkpt>
      <trkpt lat="37.03994" lon="28.19128">
        <ele>43.3</ele>
      </trkpt>
      <trkpt lat="37.03993" lon="28.19131">
        <ele>43.1</ele>
      </trkpt>
      <trkpt lat="37.03994" lon="28.19142">
        <ele>42.6</ele>
      </trkpt>
      <trkpt lat="37.03992" lon="28.19149">
        <ele>41.6</ele>
      </trkpt>
      <trkpt lat="37.03992" lon="28.1916">
        <ele>41.1</ele>
      </trkpt>
      <trkpt lat="37.03992" lon="28.19164">
        <ele>40.8</ele>
      </trkpt>
      <trkpt lat="37.0399" lon="28.19175">
        <ele>40.5</ele>
      </trkpt>
      <trkpt lat="37.0399" lon="28.19182">
        <ele>40.8</ele>
      </trkpt>
      <trkpt lat="37.03988" lon="28.19185">
        <ele>40.4</ele>
      </trkpt>
      <trkpt lat="37.03987" lon="28.19186">
        <ele>40.3</ele>
      </trkpt>
      <trkpt lat="37.03989" lon="28.1919">
        <ele>41.1</ele>
      </trkpt>
      <trkpt lat="37.03992" lon="28.19188">
        <ele>42</ele>
      </trkpt>
      <trkpt lat="37.03998" lon="28.1919">
        <ele>43.9</ele>
      </trkpt>
      <trkpt lat="37.03999" lon="28.19191">
        <ele>44</ele>
      </trkpt>
      <trkpt lat="37.03996" lon="28.19192">
        <ele>43.4</ele>
      </trkpt>
      <trkpt lat="37.03996" lon="28.19193">
        <ele>43.3</ele>
      </trkpt>
      <trkpt lat="37.03994" lon="28.19201">
        <ele>43.1</ele>
      </trkpt>
      <trkpt lat="37.03993" lon="28.19206">
        <ele>43.2</ele>
      </trkpt>
      <trkpt lat="37.03991" lon="28.19207">
        <ele>42.7</ele>
      </trkpt>
      <trkpt lat="37.04" lon="28.19209">
        <ele>45.6</ele>
      </trkpt>
      <trkpt lat="37.04001" lon="28.19209">
        <ele>45.7</ele>
      </trkpt>
      <trkpt lat="37.04004" lon="28.19218">
        <ele>47.3</ele>
      </trkpt>
      <trkpt lat="37.04004" lon="28.19218">
        <ele>47.3</ele>
      </trkpt>
      <trkpt lat="37.04004" lon="28.19218">
        <ele>47.3</ele>
      </trkpt>
      <trkpt lat="37.04007" lon="28.19222">
        <ele>48.4</ele>
      </trkpt>
      <trkpt lat="37.04015" lon="28.19228">
        <ele>50.9</ele>
      </trkpt>
      <trkpt lat="37.04018" lon="28.19233">
        <ele>51.8</ele>
      </trkpt>
      <trkpt lat="37.04018" lon="28.1924">
        <ele>52.2</ele>
      </trkpt>
      <trkpt lat="37.04017" lon="28.1924">
        <ele>51.8</ele>
      </trkpt>
      <trkpt lat="37.04019" lon="28.19239">
        <ele>52.3</ele>
      </trkpt>
      <trkpt lat="37.04024" lon="28.19242">
        <ele>53.8</ele>
      </trkpt>
      <trkpt lat="37.04029" lon="28.19243">
        <ele>55.2</ele>
      </trkpt>
      <trkpt lat="37.0403" lon="28.19243">
        <ele>55.3</ele>
      </trkpt>
      <trkpt lat="37.0403" lon="28.19241">
        <ele>55.3</ele>
      </trkpt>
      <trkpt lat="37.04031" lon="28.19251">
        <ele>55.7</ele>
      </trkpt>
      <trkpt lat="37.04035" lon="28.1926">
        <ele>57</ele>
      </trkpt>
      <trkpt lat="37.04036" lon="28.19261">
        <ele>57.2</ele>
      </trkpt>
      <trkpt lat="37.0404" lon="28.19266">
        <ele>58.4</ele>
      </trkpt>
      <trkpt lat="37.04048" lon="28.19278">
        <ele>61.1</ele>
      </trkpt>
      <trkpt lat="37.04048" lon="28.19281">
        <ele>61.1</ele>
      </trkpt>
      <trkpt lat="37.04049" lon="28.19283">
        <ele>61.5</ele>
      </trkpt>
      <trkpt lat="37.04049" lon="28.19284">
        <ele>61.7</ele>
      </trkpt>
      <trkpt lat="37.04054" lon="28.19291">
        <ele>63.2</ele>
      </trkpt>
      <trkpt lat="37.04054" lon="28.19292">
        <ele>63.3</ele>
      </trkpt>
      <trkpt lat="37.04058" lon="28.19291">
        <ele>64.4</ele>
      </trkpt>
      <trkpt lat="37.04058" lon="28.19291">
        <ele>64.4</ele>
      </trkpt>
      <trkpt lat="37.04057" lon="28.19293">
        <ele>64.4</ele>
      </trkpt>
      <trkpt lat="37.04058" lon="28.19296">
        <ele>64.7</ele>
      </trkpt>
      <trkpt lat="37.04058" lon="28.19305">
        <ele>65.2</ele>
      </trkpt>
      <trkpt lat="37.04062" lon="28.19314">
        <ele>66.8</ele>
      </trkpt>
      <trkpt lat="37.04066" lon="28.19322">
        <ele>68.5</ele>
      </trkpt>
      <trkpt lat="37.04068" lon="28.1933">
        <ele>69.5</ele>
      </trkpt>
      <trkpt lat="37.04069" lon="28.1933">
        <ele>70</ele>
      </trkpt>
      <trkpt lat="37.04073" lon="28.19336">
        <ele>71.6</ele>
      </trkpt>
      <trkpt lat="37.04073" lon="28.19336">
        <ele>71.7</ele>
      </trkpt>
      <trkpt lat="37.04075" lon="28.1934">
        <ele>72.6</ele>
      </trkpt>
      <trkpt lat="37.04076" lon="28.19343">
        <ele>72.9</ele>
      </trkpt>
      <trkpt lat="37.04081" lon="28.19348">
        <ele>74.7</ele>
      </trkpt>
      <trkpt lat="37.04082" lon="28.19349">
        <ele>75.4</ele>
      </trkpt>
      <trkpt lat="37.04081" lon="28.1935">
        <ele>74.8</ele>
      </trkpt>
      <trkpt lat="37.04081" lon="28.19348">
        <ele>74.7</ele>
      </trkpt>
      <trkpt lat="37.04081" lon="28.19348">
        <ele>74.9</ele>
      </trkpt>
      <trkpt lat="37.04079" lon="28.19351">
        <ele>74.4</ele>
      </trkpt>
      <trkpt lat="37.04079" lon="28.19352">
        <ele>74.3</ele>
      </trkpt>
      <trkpt lat="37.04083" lon="28.19361">
        <ele>76.2</ele>
      </trkpt>
      <trkpt lat="37.04085" lon="28.19369">
        <ele>77.6</ele>
      </trkpt>
      <trkpt lat="37.04088" lon="28.19373">
        <ele>79</ele>
      </trkpt>
      <trkpt lat="37.04091" lon="28.19377">
        <ele>80.3</ele>
      </trkpt>
      <trkpt lat="37.04092" lon="28.1938">
        <ele>80.8</ele>
      </trkpt>
      <trkpt lat="37.04095" lon="28.19386">
        <ele>82.4</ele>
      </trkpt>
      <trkpt lat="37.04096" lon="28.19391">
        <ele>83.3</ele>
      </trkpt>
      <trkpt lat="37.04097" lon="28.19395">
        <ele>83.9</ele>
      </trkpt>
      <trkpt lat="37.04101" lon="28.19402">
        <ele>86.5</ele>
      </trkpt>
      <trkpt lat="37.04101" lon="28.19403">
        <ele>86.5</ele>
      </trkpt>
      <trkpt lat="37.04102" lon="28.19406">
        <ele>86.8</ele>
      </trkpt>
      <trkpt lat="37.04102" lon="28.19406">
        <ele>86.8</ele>
      </trkpt>
      <trkpt lat="37.041" lon="28.19407">
        <ele>86.3</ele>
      </trkpt>
      <trkpt lat="37.04099" lon="28.19418">
        <ele>86.2</ele>
      </trkpt>
      <trkpt lat="37.041" lon="28.19423">
        <ele>87.2</ele>
      </trkpt>
      <trkpt lat="37.04102" lon="28.19433">
        <ele>88.5</ele>
      </trkpt>
      <trkpt lat="37.04105" lon="28.1944">
        <ele>89.8</ele>
      </trkpt>
      <trkpt lat="37.0411" lon="28.19449">
        <ele>92.6</ele>
      </trkpt>
      <trkpt lat="37.04108" lon="28.19455">
        <ele>92.1</ele>
      </trkpt>
      <trkpt lat="37.04113" lon="28.19464">
        <ele>94.3</ele>
      </trkpt>
      <trkpt lat="37.04113" lon="28.19465">
        <ele>94.5</ele>
      </trkpt>
      <trkpt lat="37.04113" lon="28.19465">
        <ele>94.4</ele>
      </trkpt>
      <trkpt lat="37.04109" lon="28.19467">
        <ele>92.7</ele>
      </trkpt>
      <trkpt lat="37.04103" lon="28.19473">
        <ele>90.4</ele>
      </trkpt>
      <trkpt lat="37.04109" lon="28.1948">
        <ele>93.3</ele>
      </trkpt>
      <trkpt lat="37.04111" lon="28.19485">
        <ele>94.3</ele>
      </trkpt>
      <trkpt lat="37.0411" lon="28.19485">
        <ele>93.9</ele>
      </trkpt>
      <trkpt lat="37.04111" lon="28.19489">
        <ele>94.3</ele>
      </trkpt>
      <trkpt lat="37.04113" lon="28.19496">
        <ele>95.5</ele>
      </trkpt>
      <trkpt lat="37.04114" lon="28.19504">
        <ele>95.9</ele>
      </trkpt>
      <trkpt lat="37.04116" lon="28.1951">
        <ele>96.2</ele>
      </trkpt>
      <trkpt lat="37.04116" lon="28.19522">
        <ele>95.2</ele>
      </trkpt>
      <trkpt lat="37.04117" lon="28.19525">
        <ele>95.6</ele>
      </trkpt>
      <trkpt lat="37.04121" lon="28.19534">
        <ele>96.6</ele>
      </trkpt>
      <trkpt lat="37.0412" lon="28.19537">
        <ele>96</ele>
      </trkpt>
      <trkpt lat="37.0412" lon="28.19537">
        <ele>96</ele>
      </trkpt>
      <trkpt lat="37.0412" lon="28.19536">
        <ele>96.1</ele>
      </trkpt>
      <trkpt lat="37.04121" lon="28.19537">
        <ele>96.3</ele>
      </trkpt>
      <trkpt lat="37.04125" lon="28.19539">
        <ele>97.7</ele>
      </trkpt>
      <trkpt lat="37.04125" lon="28.19539">
        <ele>97.7</ele>
      </trkpt>
      <trkpt lat="37.04124" lon="28.19542">
        <ele>97.1</ele>
      </trkpt>
      <trkpt lat="37.04123" lon="28.19544">
        <ele>96.5</ele>
      </trkpt>
      <trkpt lat="37.04123" lon="28.19552">
        <ele>96.2</ele>
      </trkpt>
      <trkpt lat="37.04125" lon="28.19557">
        <ele>96.7</ele>
      </trkpt>
      <trkpt lat="37.04128" lon="28.1956">
        <ele>97.5</ele>
      </trkpt>
      <trkpt lat="37.0413" lon="28.19563">
        <ele>98.4</ele>
      </trkpt>
      <trkpt lat="37.04134" lon="28.19569">
        <ele>99.8</ele>
      </trkpt>
      <trkpt lat="37.04142" lon="28.19575">
        <ele>103.5</ele>
      </trkpt>
      <trkpt lat="37.04147" lon="28.19575">
        <ele>105.6</ele>
      </trkpt>
      <trkpt lat="37.04148" lon="28.19577">
        <ele>106.2</ele>
      </trkpt>
      <trkpt lat="37.04147" lon="28.19581">
        <ele>105.7</ele>
      </trkpt>
      <trkpt lat="37.04148" lon="28.19584">
        <ele>105.7</ele>
      </trkpt>
      <trkpt lat="37.04151" lon="28.1959">
        <ele>106.5</ele>
      </trkpt>
      <trkpt lat="37.04155" lon="28.19601">
        <ele>107.7</ele>
      </trkpt>
      <trkpt lat="37.04155" lon="28.19604">
        <ele>107.6</ele>
      </trkpt>
      <trkpt lat="37.04157" lon="28.1961">
        <ele>108</ele>
      </trkpt>
      <trkpt lat="37.04158" lon="28.19614">
        <ele>108.1</ele>
      </trkpt>
      <trkpt lat="37.04159" lon="28.19617">
        <ele>108.3</ele>
      </trkpt>
      <trkpt lat="37.04164" lon="28.19627">
        <ele>109.4</ele>
      </trkpt>
      <trkpt lat="37.04164" lon="28.19627">
        <ele>109.4</ele>
      </trkpt>
      <trkpt lat="37.04163" lon="28.19629">
        <ele>108.9</ele>
      </trkpt>
      <trkpt lat="37.04166" lon="28.1964">
        <ele>109.2</ele>
      </trkpt>
      <trkpt lat="37.04168" lon="28.19647">
        <ele>109.3</ele>
      </trkpt>
      <trkpt lat="37.04168" lon="28.19648">
        <ele>109.3</ele>
      </trkpt>
      <trkpt lat="37.04167" lon="28.19651">
        <ele>108.7</ele>
      </trkpt>
      <trkpt lat="37.0417" lon="28.19658">
        <ele>109.7</ele>
      </trkpt>
      <trkpt lat="37.04176" lon="28.19666">
        <ele>111.9</ele>
      </trkpt>
      <trkpt lat="37.0418" lon="28.19671">
        <ele>113.5</ele>
      </trkpt>
      <trkpt lat="37.04183" lon="28.19676">
        <ele>114.9</ele>
      </trkpt>
      <trkpt lat="37.04187" lon="28.19684">
        <ele>116.1</ele>
      </trkpt>
      <trkpt lat="37.04192" lon="28.19691">
        <ele>118</ele>
      </trkpt>
      <trkpt lat="37.04192" lon="28.19691">
        <ele>118.2</ele>
      </trkpt>
      <trkpt lat="37.04191" lon="28.19695">
        <ele>117.5</ele>
      </trkpt>
      <trkpt lat="37.04192" lon="28.19699">
        <ele>117.4</ele>
      </trkpt>
      <trkpt lat="37.04191" lon="28.1971">
        <ele>116.5</ele>
      </trkpt>
      <trkpt lat="37.04191" lon="28.19717">
        <ele>115.8</ele>
      </trkpt>
      <trkpt lat="37.04193" lon="28.19722">
        <ele>116.3</ele>
      </trkpt>
      <trkpt lat="37.04193" lon="28.19727">
        <ele>115.8</ele>
      </trkpt>
      <trkpt lat="37.04191" lon="28.19739">
        <ele>114.4</ele>
      </trkpt>
      <trkpt lat="37.0419" lon="28.19743">
        <ele>113.5</ele>
      </trkpt>
      <trkpt lat="37.04189" lon="28.19742">
        <ele>113.4</ele>
      </trkpt>
      <trkpt lat="37.04188" lon="28.1975">
        <ele>112.5</ele>
      </trkpt>
      <trkpt lat="37.04192" lon="28.19748">
        <ele>113.9</ele>
      </trkpt>
      <trkpt lat="37.04192" lon="28.19748">
        <ele>113.9</ele>
      </trkpt>
      <trkpt lat="37.04192" lon="28.19748">
        <ele>114</ele>
      </trkpt>
      <trkpt lat="37.04193" lon="28.19751">
        <ele>114.3</ele>
      </trkpt>
      <trkpt lat="37.0419" lon="28.19758">
        <ele>113</ele>
      </trkpt>
      <trkpt lat="37.04191" lon="28.19761">
        <ele>113</ele>
      </trkpt>
      <trkpt lat="37.04192" lon="28.19764">
        <ele>113.4</ele>
      </trkpt>
      <trkpt lat="37.04194" lon="28.19769">
        <ele>113.8</ele>
      </trkpt>
      <trkpt lat="37.04194" lon="28.19775">
        <ele>113.5</ele>
      </trkpt>
      <trkpt lat="37.04195" lon="28.19782">
        <ele>113.7</ele>
      </trkpt>
      <trkpt lat="37.04197" lon="28.19787">
        <ele>113.9</ele>
      </trkpt>
      <trkpt lat="37.04198" lon="28.19784">
        <ele>114.4</ele>
      </trkpt>
      <trkpt lat="37.042" lon="28.19789">
        <ele>114.8</ele>
      </trkpt>
      <trkpt lat="37.042" lon="28.19814">
        <ele>113.6</ele>
      </trkpt>
      <trkpt lat="37.04196" lon="28.19825">
        <ele>112</ele>
      </trkpt>
      <trkpt lat="37.04191" lon="28.19834">
        <ele>110.5</ele>
      </trkpt>
      <trkpt lat="37.04191" lon="28.19836">
        <ele>110.2</ele>
      </trkpt>
      <trkpt lat="37.04199" lon="28.19828">
        <ele>112.7</ele>
      </trkpt>
      <trkpt lat="37.04199" lon="28.19826">
        <ele>112.7</ele>
      </trkpt>
      <trkpt lat="37.04201" lon="28.19824">
        <ele>113.3</ele>
      </trkpt>
      <trkpt lat="37.04207" lon="28.19822">
        <ele>114.9</ele>
      </trkpt>
      <trkpt lat="37.04213" lon="28.19822">
        <ele>116.2</ele>
      </trkpt>
      <trkpt lat="37.04216" lon="28.19821">
        <ele>117.2</ele>
      </trkpt>
      <trkpt lat="37.04218" lon="28.1982">
        <ele>117.6</ele>
      </trkpt>
      <trkpt lat="37.04219" lon="28.19822">
        <ele>117.9</ele>
      </trkpt>
      <trkpt lat="37.04222" lon="28.19825">
        <ele>118.3</ele>
      </trkpt>
      <trkpt lat="37.0423" lon="28.19823">
        <ele>120.4</ele>
      </trkpt>
      <trkpt lat="37.04234" lon="28.19824">
        <ele>121.4</ele>
      </trkpt>
      <trkpt lat="37.04242" lon="28.19823">
        <ele>123.4</ele>
      </trkpt>
      <trkpt lat="37.04247" lon="28.19822">
        <ele>124.6</ele>
      </trkpt>
      <trkpt lat="37.04254" lon="28.19824">
        <ele>126.6</ele>
      </trkpt>
      <trkpt lat="37.04259" lon="28.19824">
        <ele>128.8</ele>
      </trkpt>
      <trkpt lat="37.04266" lon="28.19823">
        <ele>131.3</ele>
      </trkpt>
      <trkpt lat="37.04268" lon="28.19822">
        <ele>132.4</ele>
      </trkpt>
      <trkpt lat="37.04268" lon="28.19825">
        <ele>132.1</ele>
      </trkpt>
      <trkpt lat="37.04272" lon="28.19828">
        <ele>132.9</ele>
      </trkpt>
      <trkpt lat="37.04276" lon="28.19831">
        <ele>133.7</ele>
      </trkpt>
      <trkpt lat="37.04277" lon="28.19832">
        <ele>133.9</ele>
      </trkpt>
      <trkpt lat="37.04284" lon="28.19831">
        <ele>136.7</ele>
      </trkpt>
      <trkpt lat="37.04285" lon="28.19832">
        <ele>136.8</ele>
      </trkpt>
      <trkpt lat="37.04289" lon="28.19837">
        <ele>137.1</ele>
      </trkpt>
      <trkpt lat="37.04292" lon="28.19841">
        <ele>137.4</ele>
      </trkpt>
      <trkpt lat="37.04296" lon="28.19843">
        <ele>138.4</ele>
      </trkpt>
      <trkpt lat="37.04298" lon="28.19845">
        <ele>138.8</ele>
      </trkpt>
      <trkpt lat="37.04307" lon="28.19848">
        <ele>141.4</ele>
      </trkpt>
      <trkpt lat="37.04307" lon="28.1985">
        <ele>141.2</ele>
      </trkpt>
      <trkpt lat="37.04314" lon="28.19848">
        <ele>144.1</ele>
      </trkpt>
      <trkpt lat="37.04314" lon="28.1985">
        <ele>143.5</ele>
      </trkpt>
      <trkpt lat="37.04315" lon="28.19853">
        <ele>143.2</ele>
      </trkpt>
      <trkpt lat="37.04316" lon="28.19855">
        <ele>143.1</ele>
      </trkpt>
      <trkpt lat="37.04318" lon="28.1986">
        <ele>143</ele>
      </trkpt>
      <trkpt lat="37.04325" lon="28.19866">
        <ele>144.1</ele>
      </trkpt>
      <trkpt lat="37.04329" lon="28.19872">
        <ele>144.4</ele>
      </trkpt>
      <trkpt lat="37.04333" lon="28.19877">
        <ele>144.3</ele>
      </trkpt>
      <trkpt lat="37.04334" lon="28.19878">
        <ele>144.7</ele>
      </trkpt>
      <trkpt lat="37.04337" lon="28.19884">
        <ele>145.7</ele>
      </trkpt>
      <trkpt lat="37.04338" lon="28.19883">
        <ele>147</ele>
      </trkpt>
      <trkpt lat="37.04343" lon="28.19884">
        <ele>151.1</ele>
      </trkpt>
      <trkpt lat="37.04345" lon="28.19884">
        <ele>152.6</ele>
      </trkpt>
      <trkpt lat="37.04344" lon="28.19891">
        <ele>149.7</ele>
      </trkpt>
      <trkpt lat="37.04343" lon="28.19894">
        <ele>148.6</ele>
      </trkpt>
      <trkpt lat="37.04341" lon="28.19898">
        <ele>145.9</ele>
      </trkpt>
      <trkpt lat="37.04341" lon="28.19898">
        <ele>145.9</ele>
      </trkpt>
      <trkpt lat="37.04341" lon="28.19898">
        <ele>145.9</ele>
      </trkpt>
      <trkpt lat="37.04343" lon="28.19906">
        <ele>145.4</ele>
      </trkpt>
      <trkpt lat="37.04346" lon="28.19909">
        <ele>147.4</ele>
      </trkpt>
      <trkpt lat="37.04345" lon="28.19915">
        <ele>144.9</ele>
      </trkpt>
      <trkpt lat="37.04342" lon="28.19921">
        <ele>143</ele>
      </trkpt>
      <trkpt lat="37.04336" lon="28.1993">
        <ele>140</ele>
      </trkpt>
      <trkpt lat="37.04336" lon="28.19932">
        <ele>139.8</ele>
      </trkpt>
      <trkpt lat="37.04333" lon="28.19935">
        <ele>138.5</ele>
      </trkpt>
      <trkpt lat="37.04331" lon="28.19938">
        <ele>138</ele>
      </trkpt>
      <trkpt lat="37.04331" lon="28.19934">
        <ele>137.6</ele>
      </trkpt>
      <trkpt lat="37.04329" lon="28.19938">
        <ele>137.4</ele>
      </trkpt>
      <trkpt lat="37.04329" lon="28.19939">
        <ele>137.4</ele>
      </trkpt>
      <trkpt lat="37.04321" lon="28.19945">
        <ele>135</ele>
      </trkpt>
      <trkpt lat="37.04318" lon="28.19948">
        <ele>134.1</ele>
      </trkpt>
      <trkpt lat="37.04316" lon="28.19951">
        <ele>133.8</ele>
      </trkpt>
      <trkpt lat="37.04313" lon="28.19958">
        <ele>133.3</ele>
      </trkpt>
      <trkpt lat="37.04313" lon="28.19962">
        <ele>133.7</ele>
      </trkpt>
      <trkpt lat="37.04313" lon="28.19965">
        <ele>133.9</ele>
      </trkpt>
      <trkpt lat="37.04313" lon="28.19966">
        <ele>134.1</ele>
      </trkpt>
      <trkpt lat="37.04315" lon="28.19976">
        <ele>136</ele>
      </trkpt>
      <trkpt lat="37.04317" lon="28.1998">
        <ele>137.1</ele>
      </trkpt>
      <trkpt lat="37.04317" lon="28.1998">
        <ele>137.1</ele>
      </trkpt>
      <trkpt lat="37.04315" lon="28.19981">
        <ele>136.4</ele>
      </trkpt>
      <trkpt lat="37.04319" lon="28.19992">
        <ele>139.3</ele>
      </trkpt>
      <trkpt lat="37.04318" lon="28.19993">
        <ele>139.3</ele>
      </trkpt>
      <trkpt lat="37.04319" lon="28.19999">
        <ele>140.3</ele>
      </trkpt>
      <trkpt lat="37.04319" lon="28.20001">
        <ele>140.3</ele>
      </trkpt>
      <trkpt lat="37.0432" lon="28.20002">
        <ele>141.2</ele>
      </trkpt>
      <trkpt lat="37.0432" lon="28.20001">
        <ele>141</ele>
      </trkpt>
      <trkpt lat="37.04317" lon="28.20007">
        <ele>140.4</ele>
      </trkpt>
      <trkpt lat="37.04316" lon="28.20018">
        <ele>141.3</ele>
      </trkpt>
      <trkpt lat="37.04319" lon="28.2002">
        <ele>143</ele>
      </trkpt>
      <trkpt lat="37.04319" lon="28.2002">
        <ele>143</ele>
      </trkpt>
      <trkpt lat="37.04315" lon="28.2002">
        <ele>141</ele>
      </trkpt>
      <trkpt lat="37.04314" lon="28.2002">
        <ele>140.4</ele>
      </trkpt>
      <trkpt lat="37.04312" lon="28.20024">
        <ele>139.6</ele>
      </trkpt>
      <trkpt lat="37.04311" lon="28.20038">
        <ele>141</ele>
      </trkpt>
      <trkpt lat="37.04312" lon="28.20043">
        <ele>141.7</ele>
      </trkpt>
      <trkpt lat="37.04312" lon="28.20054">
        <ele>143.5</ele>
      </trkpt>
      <trkpt lat="37.04311" lon="28.2006">
        <ele>143.7</ele>
      </trkpt>
      <trkpt lat="37.04312" lon="28.20068">
        <ele>145.2</ele>
      </trkpt>
      <trkpt lat="37.04314" lon="28.20074">
        <ele>146.6</ele>
      </trkpt>
      <trkpt lat="37.04318" lon="28.20077">
        <ele>149.9</ele>
      </trkpt>
      <trkpt lat="37.04318" lon="28.20076">
        <ele>149.7</ele>
      </trkpt>
      <trkpt lat="37.04318" lon="28.20081">
        <ele>150</ele>
      </trkpt>
      <trkpt lat="37.04324" lon="28.20087">
        <ele>154</ele>
      </trkpt>
      <trkpt lat="37.04324" lon="28.20087">
        <ele>154</ele>
      </trkpt>
      <trkpt lat="37.04323" lon="28.20087">
        <ele>153.4</ele>
      </trkpt>
      <trkpt lat="37.04323" lon="28.20095">
        <ele>153.1</ele>
      </trkpt>
      <trkpt lat="37.04325" lon="28.20103">
        <ele>154.1</ele>
      </trkpt>
      <trkpt lat="37.04325" lon="28.2011">
        <ele>154.1</ele>
      </trkpt>
      <trkpt lat="37.04325" lon="28.20114">
        <ele>153.8</ele>
      </trkpt>
      <trkpt lat="37.04327" lon="28.20122">
        <ele>154.3</ele>
      </trkpt>
      <trkpt lat="37.04327" lon="28.20126">
        <ele>154.2</ele>
      </trkpt>
      <trkpt lat="37.04327" lon="28.20126">
        <ele>154.2</ele>
      </trkpt>
      <trkpt lat="37.04326" lon="28.20127">
        <ele>154</ele>
      </trkpt>
      <trkpt lat="37.04326" lon="28.20128">
        <ele>153.9</ele>
      </trkpt>
      <trkpt lat="37.04326" lon="28.20126">
        <ele>153.7</ele>
      </trkpt>
      <trkpt lat="37.04326" lon="28.20125">
        <ele>153.9</ele>
      </trkpt>
      <trkpt lat="37.04326" lon="28.20125">
        <ele>153.7</ele>
      </trkpt>
      <trkpt lat="37.04328" lon="28.20133">
        <ele>154.5</ele>
      </trkpt>
      <trkpt lat="37.04329" lon="28.20135">
        <ele>155.3</ele>
      </trkpt>
      <trkpt lat="37.04331" lon="28.20137">
        <ele>156.3</ele>
      </trkpt>
      <trkpt lat="37.04335" lon="28.20141">
        <ele>157.8</ele>
      </trkpt>
      <trkpt lat="37.04337" lon="28.20144">
        <ele>158.7</ele>
      </trkpt>
      <trkpt lat="37.04338" lon="28.20146">
        <ele>159.2</ele>
      </trkpt>
      <trkpt lat="37.04338" lon="28.20146">
        <ele>159.4</ele>
      </trkpt>
      <trkpt lat="37.04336" lon="28.20148">
        <ele>158.2</ele>
      </trkpt>
      <trkpt lat="37.04337" lon="28.2015">
        <ele>158.4</ele>
      </trkpt>
      <trkpt lat="37.0434" lon="28.20156">
        <ele>159.5</ele>
      </trkpt>
      <trkpt lat="37.04339" lon="28.20157">
        <ele>159.1</ele>
      </trkpt>
      <trkpt lat="37.04338" lon="28.20157">
        <ele>158.8</ele>
      </trkpt>
      <trkpt lat="37.04338" lon="28.20163">
        <ele>158.2</ele>
      </trkpt>
      <trkpt lat="37.0434" lon="28.20165">
        <ele>159.2</ele>
      </trkpt>
      <trkpt lat="37.0434" lon="28.20165">
        <ele>159.2</ele>
      </trkpt>
      <trkpt lat="37.04338" lon="28.2017">
        <ele>158.1</ele>
      </trkpt>
      <trkpt lat="37.04338" lon="28.20171">
        <ele>158.2</ele>
      </trkpt>
      <trkpt lat="37.04338" lon="28.20178">
        <ele>158</ele>
      </trkpt>
      <trkpt lat="37.04339" lon="28.20188">
        <ele>158.2</ele>
      </trkpt>
      <trkpt lat="37.04339" lon="28.20193">
        <ele>158</ele>
      </trkpt>
      <trkpt lat="37.0434" lon="28.20197">
        <ele>158.4</ele>
      </trkpt>
      <trkpt lat="37.0434" lon="28.20203">
        <ele>158.3</ele>
      </trkpt>
      <trkpt lat="37.04341" lon="28.20206">
        <ele>158.7</ele>
      </trkpt>
      <trkpt lat="37.04343" lon="28.20215">
        <ele>159.2</ele>
      </trkpt>
      <trkpt lat="37.04343" lon="28.20216">
        <ele>159.1</ele>
      </trkpt>
      <trkpt lat="37.04341" lon="28.20225">
        <ele>158.3</ele>
      </trkpt>
      <trkpt lat="37.04341" lon="28.20227">
        <ele>158.1</ele>
      </trkpt>
      <trkpt lat="37.04341" lon="28.20227">
        <ele>158.3</ele>
      </trkpt>
      <trkpt lat="37.04341" lon="28.20231">
        <ele>158.2</ele>
      </trkpt>
      <trkpt lat="37.04341" lon="28.20234">
        <ele>158.1</ele>
      </trkpt>
      <trkpt lat="37.0434" lon="28.20238">
        <ele>157.6</ele>
      </trkpt>
      <trkpt lat="37.04338" lon="28.20242">
        <ele>156.9</ele>
      </trkpt>
      <trkpt lat="37.04339" lon="28.20245">
        <ele>157.1</ele>
      </trkpt>
      <trkpt lat="37.04338" lon="28.2025">
        <ele>156.7</ele>
      </trkpt>
      <trkpt lat="37.04339" lon="28.20259">
        <ele>156.9</ele>
      </trkpt>
      <trkpt lat="37.04338" lon="28.20267">
        <ele>156.3</ele>
      </trkpt>
      <trkpt lat="37.04339" lon="28.20276">
        <ele>156</ele>
      </trkpt>
      <trkpt lat="37.04337" lon="28.20278">
        <ele>155.4</ele>
      </trkpt>
      <trkpt lat="37.04338" lon="28.20282">
        <ele>155.5</ele>
      </trkpt>
      <trkpt lat="37.04336" lon="28.20288">
        <ele>154.6</ele>
      </trkpt>
      <trkpt lat="37.04336" lon="28.2029">
        <ele>154.7</ele>
      </trkpt>
      <trkpt lat="37.04341" lon="28.20296">
        <ele>156.2</ele>
      </trkpt>
      <trkpt lat="37.04346" lon="28.203">
        <ele>158.1</ele>
      </trkpt>
      <trkpt lat="37.04348" lon="28.20303">
        <ele>158.6</ele>
      </trkpt>
      <trkpt lat="37.04352" lon="28.20309">
        <ele>160.3</ele>
      </trkpt>
      <trkpt lat="37.04359" lon="28.20316">
        <ele>162.5</ele>
      </trkpt>
      <trkpt lat="37.04359" lon="28.20318">
        <ele>162.8</ele>
      </trkpt>
      <trkpt lat="37.04363" lon="28.20323">
        <ele>163.9</ele>
      </trkpt>
      <trkpt lat="37.04363" lon="28.20324">
        <ele>164.2</ele>
      </trkpt>
      <trkpt lat="37.04366" lon="28.20327">
        <ele>165</ele>
      </trkpt>
      <trkpt lat="37.04365" lon="28.20331">
        <ele>164.8</ele>
      </trkpt>
      <trkpt lat="37.04366" lon="28.20333">
        <ele>165</ele>
      </trkpt>
      <trkpt lat="37.04366" lon="28.20341">
        <ele>164</ele>
      </trkpt>
      <trkpt lat="37.04365" lon="28.20352">
        <ele>161.9</ele>
      </trkpt>
      <trkpt lat="37.04365" lon="28.20356">
        <ele>161.5</ele>
      </trkpt>
      <trkpt lat="37.04366" lon="28.20367">
        <ele>160.4</ele>
      </trkpt>
      <trkpt lat="37.04367" lon="28.20369">
        <ele>160.4</ele>
      </trkpt>
      <trkpt lat="37.0437" lon="28.2038">
        <ele>159.9</ele>
      </trkpt>
      <trkpt lat="37.04371" lon="28.20387">
        <ele>159.3</ele>
      </trkpt>
      <trkpt lat="37.0437" lon="28.2039">
        <ele>158.7</ele>
      </trkpt>
      <trkpt lat="37.04371" lon="28.20393">
        <ele>158.5</ele>
      </trkpt>
      <trkpt lat="37.04374" lon="28.20399">
        <ele>158.6</ele>
      </trkpt>
      <trkpt lat="37.04376" lon="28.20407">
        <ele>158.3</ele>
      </trkpt>
      <trkpt lat="37.04377" lon="28.20408">
        <ele>158.5</ele>
      </trkpt>
      <trkpt lat="37.04377" lon="28.20409">
        <ele>158.4</ele>
      </trkpt>
      <trkpt lat="37.04377" lon="28.20409">
        <ele>158.1</ele>
      </trkpt>
      <trkpt lat="37.04379" lon="28.20411">
        <ele>158.7</ele>
      </trkpt>
      <trkpt lat="37.04385" lon="28.20418">
        <ele>159.4</ele>
      </trkpt>
      <trkpt lat="37.04388" lon="28.20422">
        <ele>159.7</ele>
      </trkpt>
      <trkpt lat="37.0439" lon="28.20424">
        <ele>160.1</ele>
      </trkpt>
      <trkpt lat="37.04397" lon="28.20431">
        <ele>161.1</ele>
      </trkpt>
      <trkpt lat="37.04401" lon="28.20436">
        <ele>161.4</ele>
      </trkpt>
      <trkpt lat="37.04409" lon="28.20444">
        <ele>162.6</ele>
      </trkpt>
      <trkpt lat="37.04415" lon="28.20448">
        <ele>163.7</ele>
      </trkpt>
      <trkpt lat="37.04415" lon="28.20448">
        <ele>163.9</ele>
      </trkpt>
      <trkpt lat="37.04418" lon="28.20455">
        <ele>163.4</ele>
      </trkpt>
      <trkpt lat="37.04422" lon="28.20461">
        <ele>164.5</ele>
      </trkpt>
      <trkpt lat="37.04423" lon="28.20463">
        <ele>164.2</ele>
      </trkpt>
      <trkpt lat="37.04424" lon="28.20467">
        <ele>163.9</ele>
      </trkpt>
      <trkpt lat="37.04425" lon="28.20471">
        <ele>163.9</ele>
      </trkpt>
      <trkpt lat="37.04426" lon="28.20479">
        <ele>163</ele>
      </trkpt>
      <trkpt lat="37.04428" lon="28.20482">
        <ele>163.2</ele>
      </trkpt>
      <trkpt lat="37.0443" lon="28.20488">
        <ele>163.1</ele>
      </trkpt>
      <trkpt lat="37.04432" lon="28.20495">
        <ele>162.7</ele>
      </trkpt>
      <trkpt lat="37.04435" lon="28.20499">
        <ele>163</ele>
      </trkpt>
      <trkpt lat="37.04438" lon="28.20507">
        <ele>163.2</ele>
      </trkpt>
      <trkpt lat="37.04443" lon="28.20516">
        <ele>163.8</ele>
      </trkpt>
      <trkpt lat="37.04446" lon="28.2052">
        <ele>164.5</ele>
      </trkpt>
      <trkpt lat="37.0445" lon="28.20525">
        <ele>165.3</ele>
      </trkpt>
      <trkpt lat="37.04456" lon="28.20532">
        <ele>166.9</ele>
      </trkpt>
      <trkpt lat="37.04456" lon="28.20534">
        <ele>166.5</ele>
      </trkpt>
      <trkpt lat="37.04456" lon="28.20533">
        <ele>166.7</ele>
      </trkpt>
      <trkpt lat="37.04457" lon="28.20535">
        <ele>166.7</ele>
      </trkpt>
      <trkpt lat="37.04457" lon="28.20535">
        <ele>166.6</ele>
      </trkpt>
      <trkpt lat="37.04464" lon="28.20544">
        <ele>168</ele>
      </trkpt>
      <trkpt lat="37.04468" lon="28.20554">
        <ele>168.3</ele>
      </trkpt>
      <trkpt lat="37.04472" lon="28.20563">
        <ele>168.5</ele>
      </trkpt>
      <trkpt lat="37.04473" lon="28.20567">
        <ele>168.1</ele>
      </trkpt>
      <trkpt lat="37.04477" lon="28.20572">
        <ele>168.7</ele>
      </trkpt>
      <trkpt lat="37.0448" lon="28.20577">
        <ele>169.3</ele>
      </trkpt>
      <trkpt lat="37.04484" lon="28.20584">
        <ele>169.7</ele>
      </trkpt>
      <trkpt lat="37.04484" lon="28.20585">
        <ele>169.9</ele>
      </trkpt>
      <trkpt lat="37.04482" lon="28.20589">
        <ele>169.1</ele>
      </trkpt>
      <trkpt lat="37.04482" lon="28.20592">
        <ele>169.3</ele>
      </trkpt>
      <trkpt lat="37.04484" lon="28.20599">
        <ele>170.3</ele>
      </trkpt>
      <trkpt lat="37.04488" lon="28.20603">
        <ele>171.6</ele>
      </trkpt>
      <trkpt lat="37.04489" lon="28.20603">
        <ele>172.2</ele>
      </trkpt>
      <trkpt lat="37.04489" lon="28.20603">
        <ele>172.2</ele>
      </trkpt>
      <trkpt lat="37.04488" lon="28.20609">
        <ele>171.8</ele>
      </trkpt>
      <trkpt lat="37.04486" lon="28.20617">
        <ele>171.3</ele>
      </trkpt>
      <trkpt lat="37.04484" lon="28.20623">
        <ele>170.8</ele>
      </trkpt>
      <trkpt lat="37.04483" lon="28.20625">
        <ele>170.5</ele>
      </trkpt>
      <trkpt lat="37.0448" lon="28.20627">
        <ele>169.6</ele>
      </trkpt>
      <trkpt lat="37.04478" lon="28.2063">
        <ele>169.2</ele>
      </trkpt>
      <trkpt lat="37.04478" lon="28.20632">
        <ele>168.9</ele>
      </trkpt>
      <trkpt lat="37.04476" lon="28.20639">
        <ele>168.8</ele>
      </trkpt>
      <trkpt lat="37.04476" lon="28.20639">
        <ele>168.8</ele>
      </trkpt>
      <trkpt lat="37.04475" lon="28.20641">
        <ele>168.3</ele>
      </trkpt>
      <trkpt lat="37.04473" lon="28.20643">
        <ele>168</ele>
      </trkpt>
      <trkpt lat="37.04467" lon="28.20651">
        <ele>166.4</ele>
      </trkpt>
      <trkpt lat="37.04462" lon="28.20656">
        <ele>165.1</ele>
      </trkpt>
      <trkpt lat="37.04459" lon="28.20661">
        <ele>164.5</ele>
      </trkpt>
      <trkpt lat="37.04458" lon="28.20666">
        <ele>164.3</ele>
      </trkpt>
      <trkpt lat="37.04454" lon="28.20673">
        <ele>163.5</ele>
      </trkpt>
      <trkpt lat="37.0445" lon="28.20686">
        <ele>162.9</ele>
      </trkpt>
      <trkpt lat="37.0445" lon="28.20688">
        <ele>163</ele>
      </trkpt>
      <trkpt lat="37.0445" lon="28.2069">
        <ele>163</ele>
      </trkpt>
      <trkpt lat="37.04449" lon="28.20691">
        <ele>162.7</ele>
      </trkpt>
      <trkpt lat="37.04448" lon="28.20685">
        <ele>162.2</ele>
      </trkpt>
      <trkpt lat="37.04447" lon="28.20683">
        <ele>161.8</ele>
      </trkpt>
      <trkpt lat="37.04446" lon="28.20684">
        <ele>161.5</ele>
      </trkpt>
      <trkpt lat="37.04446" lon="28.20684">
        <ele>161.5</ele>
      </trkpt>
      <trkpt lat="37.04446" lon="28.20687">
        <ele>161.7</ele>
      </trkpt>
      <trkpt lat="37.04448" lon="28.20697">
        <ele>162.6</ele>
      </trkpt>
      <trkpt lat="37.04452" lon="28.20703">
        <ele>164.2</ele>
      </trkpt>
      <trkpt lat="37.04456" lon="28.20711">
        <ele>165.8</ele>
      </trkpt>
      <trkpt lat="37.04461" lon="28.20719">
        <ele>167.4</ele>
      </trkpt>
      <trkpt lat="37.04465" lon="28.20726">
        <ele>168.8</ele>
      </trkpt>
      <trkpt lat="37.04465" lon="28.20727">
        <ele>169</ele>
      </trkpt>
      <trkpt lat="37.04463" lon="28.20729">
        <ele>168.5</ele>
      </trkpt>
      <trkpt lat="37.04462" lon="28.20739">
        <ele>168.7</ele>
      </trkpt>
      <trkpt lat="37.04464" lon="28.20741">
        <ele>169.3</ele>
      </trkpt>
      <trkpt lat="37.04464" lon="28.20741">
        <ele>169.3</ele>
      </trkpt>
      <trkpt lat="37.04463" lon="28.20742">
        <ele>169</ele>
      </trkpt>
      <trkpt lat="37.04465" lon="28.20757">
        <ele>170.2</ele>
      </trkpt>
      <trkpt lat="37.04469" lon="28.20762">
        <ele>171.5</ele>
      </trkpt>
      <trkpt lat="37.04469" lon="28.20762">
        <ele>171.5</ele>
      </trkpt>
      <trkpt lat="37.04468" lon="28.20763">
        <ele>171.2</ele>
      </trkpt>
      <trkpt lat="37.04466" lon="28.20765">
        <ele>170.9</ele>
      </trkpt>
      <trkpt lat="37.04463" lon="28.20779">
        <ele>170.4</ele>
      </trkpt>
      <trkpt lat="37.04461" lon="28.20782">
        <ele>169.8</ele>
      </trkpt>
      <trkpt lat="37.04459" lon="28.20785">
        <ele>169.3</ele>
      </trkpt>
      <trkpt lat="37.04455" lon="28.20794">
        <ele>168.1</ele>
      </trkpt>
      <trkpt lat="37.04454" lon="28.20796">
        <ele>167.7</ele>
      </trkpt>
      <trkpt lat="37.0445" lon="28.208">
        <ele>166.5</ele>
      </trkpt>
      <trkpt lat="37.0445" lon="28.20803">
        <ele>166.5</ele>
      </trkpt>
      <trkpt lat="37.04451" lon="28.20803">
        <ele>166.9</ele>
      </trkpt>
      <trkpt lat="37.04447" lon="28.20804">
        <ele>165.3</ele>
      </trkpt>
      <trkpt lat="37.04444" lon="28.20807">
        <ele>164.2</ele>
      </trkpt>
      <trkpt lat="37.04444" lon="28.20807">
        <ele>164.3</ele>
      </trkpt>
      <trkpt lat="37.04444" lon="28.20808">
        <ele>164.2</ele>
      </trkpt>
      <trkpt lat="37.0444" lon="28.20811">
        <ele>162.6</ele>
      </trkpt>
      <trkpt lat="37.04438" lon="28.20812">
        <ele>162.1</ele>
      </trkpt>
      <trkpt lat="37.04438" lon="28.20812">
        <ele>162.1</ele>
      </trkpt>
      <trkpt lat="37.04436" lon="28.20812">
        <ele>161.2</ele>
      </trkpt>
      <trkpt lat="37.04432" lon="28.20817">
        <ele>159.4</ele>
      </trkpt>
      <trkpt lat="37.04428" lon="28.20815">
        <ele>158.2</ele>
      </trkpt>
      <trkpt lat="37.04423" lon="28.20813">
        <ele>156.1</ele>
      </trkpt>
      <trkpt lat="37.04423" lon="28.20813">
        <ele>156.1</ele>
      </trkpt>
      <trkpt lat="37.04419" lon="28.2081">
        <ele>154.8</ele>
      </trkpt>
      <trkpt lat="37.04416" lon="28.20806">
        <ele>153.5</ele>
      </trkpt>
      <trkpt lat="37.04414" lon="28.20801">
        <ele>152.9</ele>
      </trkpt>
      <trkpt lat="37.04413" lon="28.20799">
        <ele>152.4</ele>
      </trkpt>
      <trkpt lat="37.04413" lon="28.20802">
        <ele>152.2</ele>
      </trkpt>
      <trkpt lat="37.04416" lon="28.20809">
        <ele>153.3</ele>
      </trkpt>
      <trkpt lat="37.04421" lon="28.20811">
        <ele>155.3</ele>
      </trkpt>
      <trkpt lat="37.04421" lon="28.20811">
        <ele>155.3</ele>
      </trkpt>
      <trkpt lat="37.04422" lon="28.20812">
        <ele>155.7</ele>
      </trkpt>
      <trkpt lat="37.04423" lon="28.20813">
        <ele>156.2</ele>
      </trkpt>
      <trkpt lat="37.04427" lon="28.20815">
        <ele>157.7</ele>
      </trkpt>
      <trkpt lat="37.04431" lon="28.20817">
        <ele>159.3</ele>
      </trkpt>
      <trkpt lat="37.04437" lon="28.20821">
        <ele>161.4</ele>
      </trkpt>
      <trkpt lat="37.04437" lon="28.20826">
        <ele>161.6</ele>
      </trkpt>
      <trkpt lat="37.04439" lon="28.20829">
        <ele>162.5</ele>
      </trkpt>
      <trkpt lat="37.0444" lon="28.20832">
        <ele>162.9</ele>
      </trkpt>
      <trkpt lat="37.04443" lon="28.20841">
        <ele>163.6</ele>
      </trkpt>
      <trkpt lat="37.04446" lon="28.20852">
        <ele>164.6</ele>
      </trkpt>
      <trkpt lat="37.04448" lon="28.20864">
        <ele>165.5</ele>
      </trkpt>
      <trkpt lat="37.04448" lon="28.20866">
        <ele>165.6</ele>
      </trkpt>
      <trkpt lat="37.04452" lon="28.20875">
        <ele>167.3</ele>
      </trkpt>
      <trkpt lat="37.04452" lon="28.20879">
        <ele>167.3</ele>
      </trkpt>
      <trkpt lat="37.04454" lon="28.20887">
        <ele>167.8</ele>
      </trkpt>
      <trkpt lat="37.04452" lon="28.20894">
        <ele>166.7</ele>
      </trkpt>
      <trkpt lat="37.04452" lon="28.209">
        <ele>166.6</ele>
      </trkpt>
      <trkpt lat="37.0445" lon="28.20905">
        <ele>165.5</ele>
      </trkpt>
      <trkpt lat="37.04451" lon="28.20909">
        <ele>166.3</ele>
      </trkpt>
      <trkpt lat="37.0445" lon="28.20913">
        <ele>165.5</ele>
      </trkpt>
      <trkpt lat="37.04452" lon="28.2092">
        <ele>166.4</ele>
      </trkpt>
      <trkpt lat="37.04448" lon="28.20926">
        <ele>165.1</ele>
      </trkpt>
      <trkpt lat="37.04448" lon="28.20932">
        <ele>165.3</ele>
      </trkpt>
      <trkpt lat="37.04448" lon="28.20937">
        <ele>165.2</ele>
      </trkpt>
      <trkpt lat="37.04448" lon="28.20935">
        <ele>165.2</ele>
      </trkpt>
      <trkpt lat="37.04447" lon="28.20939">
        <ele>165.1</ele>
      </trkpt>
      <trkpt lat="37.04447" lon="28.2094">
        <ele>165.4</ele>
      </trkpt>
      <trkpt lat="37.04449" lon="28.20942">
        <ele>166.3</ele>
      </trkpt>
      <trkpt lat="37.0445" lon="28.20945">
        <ele>167</ele>
      </trkpt>
      <trkpt lat="37.0445" lon="28.20946">
        <ele>166.8</ele>
      </trkpt>
      <trkpt lat="37.04449" lon="28.20945">
        <ele>166.4</ele>
      </trkpt>
      <trkpt lat="37.04447" lon="28.20948">
        <ele>165.7</ele>
      </trkpt>
      <trkpt lat="37.04445" lon="28.20944">
        <ele>164.2</ele>
      </trkpt>
      <trkpt lat="37.04445" lon="28.20942">
        <ele>164.1</ele>
      </trkpt>
      <trkpt lat="37.04444" lon="28.20939">
        <ele>163.5</ele>
      </trkpt>
      <trkpt lat="37.04442" lon="28.20937">
        <ele>162.4</ele>
      </trkpt>
      <trkpt lat="37.04439" lon="28.20934">
        <ele>160.5</ele>
      </trkpt>
      <trkpt lat="37.04436" lon="28.20929">
        <ele>158.7</ele>
      </trkpt>
      <trkpt lat="37.04434" lon="28.20921">
        <ele>157.1</ele>
      </trkpt>
      <trkpt lat="37.04434" lon="28.2092">
        <ele>156.7</ele>
      </trkpt>
      <trkpt lat="37.04431" lon="28.20913">
        <ele>155.1</ele>
      </trkpt>
      <trkpt lat="37.0443" lon="28.2091">
        <ele>154.8</ele>
      </trkpt>
      <trkpt lat="37.04428" lon="28.20908">
        <ele>153.7</ele>
      </trkpt>
      <trkpt lat="37.04426" lon="28.20908">
        <ele>152.5</ele>
      </trkpt>
      <trkpt lat="37.04422" lon="28.20907">
        <ele>150.7</ele>
      </trkpt>
      <trkpt lat="37.0442" lon="28.20913">
        <ele>149.3</ele>
      </trkpt>
      <trkpt lat="37.04419" lon="28.20916">
        <ele>148.3</ele>
      </trkpt>
      <trkpt lat="37.04419" lon="28.2092">
        <ele>148.8</ele>
      </trkpt>
      <trkpt lat="37.04419" lon="28.20922">
        <ele>148.9</ele>
      </trkpt>
      <trkpt lat="37.04417" lon="28.20928">
        <ele>148.5</ele>
      </trkpt>
      <trkpt lat="37.04416" lon="28.20935">
        <ele>148.2</ele>
      </trkpt>
      <trkpt lat="37.04413" lon="28.20938">
        <ele>147.1</ele>
      </trkpt>
      <trkpt lat="37.0441" lon="28.20943">
        <ele>146.2</ele>
      </trkpt>
      <trkpt lat="37.04407" lon="28.20947">
        <ele>145.4</ele>
      </trkpt>
      <trkpt lat="37.04405" lon="28.20949">
        <ele>144.5</ele>
      </trkpt>
      <trkpt lat="37.04404" lon="28.20951">
        <ele>144.5</ele>
      </trkpt>
      <trkpt lat="37.04404" lon="28.20954">
        <ele>144.5</ele>
      </trkpt>
      <trkpt lat="37.04402" lon="28.20958">
        <ele>143.9</ele>
      </trkpt>
      <trkpt lat="37.04401" lon="28.20962">
        <ele>143.7</ele>
      </trkpt>
      <trkpt lat="37.04399" lon="28.20964">
        <ele>143</ele>
      </trkpt>
      <trkpt lat="37.04398" lon="28.20967">
        <ele>143</ele>
      </trkpt>
      <trkpt lat="37.04397" lon="28.20968">
        <ele>142.7</ele>
      </trkpt>
      <trkpt lat="37.044" lon="28.20972">
        <ele>144.2</ele>
      </trkpt>
      <trkpt lat="37.044" lon="28.20982">
        <ele>145.3</ele>
      </trkpt>
      <trkpt lat="37.04399" lon="28.20981">
        <ele>144.9</ele>
      </trkpt>
      <trkpt lat="37.04398" lon="28.20985">
        <ele>144.7</ele>
      </trkpt>
      <trkpt lat="37.04396" lon="28.20991">
        <ele>144.3</ele>
      </trkpt>
      <trkpt lat="37.04396" lon="28.20996">
        <ele>144.7</ele>
      </trkpt>
      <trkpt lat="37.04397" lon="28.21002">
        <ele>145.9</ele>
      </trkpt>
      <trkpt lat="37.04397" lon="28.21003">
        <ele>146</ele>
      </trkpt>
      <trkpt lat="37.04397" lon="28.21009">
        <ele>146.1</ele>
      </trkpt>
      <trkpt lat="37.04396" lon="28.21014">
        <ele>146.2</ele>
      </trkpt>
      <trkpt lat="37.04394" lon="28.21022">
        <ele>145.5</ele>
      </trkpt>
      <trkpt lat="37.04393" lon="28.21024">
        <ele>145.3</ele>
      </trkpt>
      <trkpt lat="37.04393" lon="28.21025">
        <ele>145.4</ele>
      </trkpt>
      <trkpt lat="37.04391" lon="28.21032">
        <ele>144.8</ele>
      </trkpt>
      <trkpt lat="37.04389" lon="28.21043">
        <ele>144.7</ele>
      </trkpt>
      <trkpt lat="37.04385" lon="28.21054">
        <ele>143.6</ele>
      </trkpt>
      <trkpt lat="37.04384" lon="28.21062">
        <ele>143.9</ele>
      </trkpt>
      <trkpt lat="37.04384" lon="28.21063">
        <ele>143.9</ele>
      </trkpt>
      <trkpt lat="37.04385" lon="28.21062">
        <ele>144.2</ele>
      </trkpt>
      <trkpt lat="37.04384" lon="28.21069">
        <ele>144.3</ele>
      </trkpt>
      <trkpt lat="37.04384" lon="28.2107">
        <ele>144.3</ele>
      </trkpt>
      <trkpt lat="37.04382" lon="28.21077">
        <ele>144.2</ele>
      </trkpt>
      <trkpt lat="37.04378" lon="28.21082">
        <ele>142.9</ele>
      </trkpt>
      <trkpt lat="37.04379" lon="28.21083">
        <ele>143</ele>
      </trkpt>
      <trkpt lat="37.04378" lon="28.21083">
        <ele>142.9</ele>
      </trkpt>
      <trkpt lat="37.04376" lon="28.21087">
        <ele>141.9</ele>
      </trkpt>
      <trkpt lat="37.04372" lon="28.21095">
        <ele>140.4</ele>
      </trkpt>
      <trkpt lat="37.04371" lon="28.21099">
        <ele>139.6</ele>
      </trkpt>
      <trkpt lat="37.04369" lon="28.21101">
        <ele>138.8</ele>
      </trkpt>
      <trkpt lat="37.04367" lon="28.21102">
        <ele>138.3</ele>
      </trkpt>
      <trkpt lat="37.04367" lon="28.21102">
        <ele>138.3</ele>
      </trkpt>
      <trkpt lat="37.04366" lon="28.21104">
        <ele>137.6</ele>
      </trkpt>
      <trkpt lat="37.04366" lon="28.21103">
        <ele>137.6</ele>
      </trkpt>
      <trkpt lat="37.04362" lon="28.21106">
        <ele>136.2</ele>
      </trkpt>
      <trkpt lat="37.04363" lon="28.21107">
        <ele>136.3</ele>
      </trkpt>
      <trkpt lat="37.04362" lon="28.21107">
        <ele>136.2</ele>
      </trkpt>
      <trkpt lat="37.04362" lon="28.21107">
        <ele>136.2</ele>
      </trkpt>
      <trkpt lat="37.04364" lon="28.21107">
        <ele>136.7</ele>
      </trkpt>
      <trkpt lat="37.04362" lon="28.21106">
        <ele>136.3</ele>
      </trkpt>
      <trkpt lat="37.04363" lon="28.21106">
        <ele>136.4</ele>
      </trkpt>
      <trkpt lat="37.04365" lon="28.21108">
        <ele>137.4</ele>
      </trkpt>
      <trkpt lat="37.04366" lon="28.21108">
        <ele>137.6</ele>
      </trkpt>
      <trkpt lat="37.04365" lon="28.21107">
        <ele>137.2</ele>
      </trkpt>
      <trkpt lat="37.04366" lon="28.2113">
        <ele>137.6</ele>
      </trkpt>
      <trkpt lat="37.04364" lon="28.21139">
        <ele>137.1</ele>
      </trkpt>
      <trkpt lat="37.04362" lon="28.2115">
        <ele>136.1</ele>
      </trkpt>
      <trkpt lat="37.0436" lon="28.21158">
        <ele>135.6</ele>
      </trkpt>
      <trkpt lat="37.04358" lon="28.21161">
        <ele>134.8</ele>
      </trkpt>
      <trkpt lat="37.04358" lon="28.21168">
        <ele>134.7</ele>
      </trkpt>
      <trkpt lat="37.0436" lon="28.2117">
        <ele>135.2</ele>
      </trkpt>
      <trkpt lat="37.0436" lon="28.2117">
        <ele>135.2</ele>
      </trkpt>
      <trkpt lat="37.04358" lon="28.21171">
        <ele>134.3</ele>
      </trkpt>
      <trkpt lat="37.04357" lon="28.21171">
        <ele>134</ele>
      </trkpt>
      <trkpt lat="37.04354" lon="28.21178">
        <ele>132.5</ele>
      </trkpt>
      <trkpt lat="37.04353" lon="28.21187">
        <ele>131.3</ele>
      </trkpt>
      <trkpt lat="37.04353" lon="28.21188">
        <ele>131</ele>
      </trkpt>
      <trkpt lat="37.04351" lon="28.212">
        <ele>129.5</ele>
      </trkpt>
      <trkpt lat="37.0435" lon="28.21206">
        <ele>128.5</ele>
      </trkpt>
      <trkpt lat="37.04351" lon="28.21213">
        <ele>128.1</ele>
      </trkpt>
      <trkpt lat="37.04352" lon="28.21218">
        <ele>127.9</ele>
      </trkpt>
      <trkpt lat="37.04349" lon="28.21217">
        <ele>127.3</ele>
      </trkpt>
      <trkpt lat="37.04349" lon="28.21224">
        <ele>126.5</ele>
      </trkpt>
      <trkpt lat="37.04347" lon="28.21232">
        <ele>125.4</ele>
      </trkpt>
      <trkpt lat="37.04349" lon="28.21244">
        <ele>124.7</ele>
      </trkpt>
      <trkpt lat="37.04349" lon="28.21246">
        <ele>124.6</ele>
      </trkpt>
      <trkpt lat="37.04349" lon="28.21246">
        <ele>124.6</ele>
      </trkpt>
      <trkpt lat="37.04355" lon="28.21255">
        <ele>124.7</ele>
      </trkpt>
      <trkpt lat="37.04355" lon="28.21259">
        <ele>124.1</ele>
      </trkpt>
      <trkpt lat="37.04356" lon="28.21266">
        <ele>122.7</ele>
      </trkpt>
      <trkpt lat="37.04358" lon="28.21272">
        <ele>121.8</ele>
      </trkpt>
      <trkpt lat="37.04359" lon="28.21275">
        <ele>121.6</ele>
      </trkpt>
      <trkpt lat="37.04362" lon="28.21284">
        <ele>120.7</ele>
      </trkpt>
      <trkpt lat="37.04366" lon="28.21291">
        <ele>120.2</ele>
      </trkpt>
      <trkpt lat="37.04369" lon="28.21294">
        <ele>120.5</ele>
      </trkpt>
      <trkpt lat="37.0437" lon="28.21295">
        <ele>120.5</ele>
      </trkpt>
      <trkpt lat="37.04371" lon="28.21303">
        <ele>119.2</ele>
      </trkpt>
      <trkpt lat="37.04371" lon="28.21307">
        <ele>118.2</ele>
      </trkpt>
      <trkpt lat="37.04372" lon="28.21316">
        <ele>116.5</ele>
      </trkpt>
      <trkpt lat="37.04373" lon="28.21319">
        <ele>116.4</ele>
      </trkpt>
      <trkpt lat="37.04373" lon="28.21323">
        <ele>115.4</ele>
      </trkpt>
      <trkpt lat="37.04374" lon="28.21325">
        <ele>115.5</ele>
      </trkpt>
      <trkpt lat="37.04377" lon="28.21327">
        <ele>116</ele>
      </trkpt>
      <trkpt lat="37.04378" lon="28.21329">
        <ele>116</ele>
      </trkpt>
      <trkpt lat="37.0438" lon="28.21334">
        <ele>115.6</ele>
      </trkpt>
      <trkpt lat="37.0438" lon="28.21335">
        <ele>115.4</ele>
      </trkpt>
      <trkpt lat="37.04377" lon="28.21343">
        <ele>113.6</ele>
      </trkpt>
      <trkpt lat="37.04373" lon="28.21351">
        <ele>111.8</ele>
      </trkpt>
      <trkpt lat="37.04373" lon="28.21355">
        <ele>111.3</ele>
      </trkpt>
      <trkpt lat="37.04373" lon="28.21358">
        <ele>111</ele>
      </trkpt>
      <trkpt lat="37.04377" lon="28.21366">
        <ele>111.6</ele>
      </trkpt>
      <trkpt lat="37.04377" lon="28.21369">
        <ele>111.4</ele>
      </trkpt>
      <trkpt lat="37.04375" lon="28.21371">
        <ele>110.5</ele>
      </trkpt>
      <trkpt lat="37.04373" lon="28.21379">
        <ele>108.7</ele>
      </trkpt>
      <trkpt lat="37.04371" lon="28.21384">
        <ele>107.5</ele>
      </trkpt>
      <trkpt lat="37.0437" lon="28.21384">
        <ele>107.3</ele>
      </trkpt>
      <trkpt lat="37.0437" lon="28.21389">
        <ele>106.6</ele>
      </trkpt>
      <trkpt lat="37.04369" lon="28.21393">
        <ele>105.8</ele>
      </trkpt>
      <trkpt lat="37.04371" lon="28.21403">
        <ele>105.6</ele>
      </trkpt>
      <trkpt lat="37.04373" lon="28.21407">
        <ele>106.1</ele>
      </trkpt>
      <trkpt lat="37.04372" lon="28.21412">
        <ele>105.1</ele>
      </trkpt>
      <trkpt lat="37.04371" lon="28.21422">
        <ele>103.7</ele>
      </trkpt>
      <trkpt lat="37.04371" lon="28.21427">
        <ele>103.3</ele>
      </trkpt>
      <trkpt lat="37.04371" lon="28.21433">
        <ele>102.3</ele>
      </trkpt>
      <trkpt lat="37.04372" lon="28.2144">
        <ele>101.9</ele>
      </trkpt>
      <trkpt lat="37.04373" lon="28.21445">
        <ele>101.7</ele>
      </trkpt>
      <trkpt lat="37.04374" lon="28.21448">
        <ele>101.6</ele>
      </trkpt>
      <trkpt lat="37.04375" lon="28.21451">
        <ele>101.7</ele>
      </trkpt>
      <trkpt lat="37.04377" lon="28.2146">
        <ele>101.6</ele>
      </trkpt>
      <trkpt lat="37.04378" lon="28.21462">
        <ele>101.6</ele>
      </trkpt>
      <trkpt lat="37.0438" lon="28.21471">
        <ele>101.7</ele>
      </trkpt>
      <trkpt lat="37.04381" lon="28.21479">
        <ele>101.1</ele>
      </trkpt>
      <trkpt lat="37.04382" lon="28.21486">
        <ele>100.5</ele>
      </trkpt>
      <trkpt lat="37.04385" lon="28.21492">
        <ele>101.2</ele>
      </trkpt>
      <trkpt lat="37.0439" lon="28.21501">
        <ele>101.7</ele>
      </trkpt>
      <trkpt lat="37.0439" lon="28.21501">
        <ele>101.8</ele>
      </trkpt>
      <trkpt lat="37.0439" lon="28.21507">
        <ele>100.8</ele>
      </trkpt>
      <trkpt lat="37.04389" lon="28.21515">
        <ele>98.6</ele>
      </trkpt>
      <trkpt lat="37.0439" lon="28.21518">
        <ele>98.5</ele>
      </trkpt>
      <trkpt lat="37.0439" lon="28.21521">
        <ele>97.9</ele>
      </trkpt>
      <trkpt lat="37.04393" lon="28.21526">
        <ele>97.9</ele>
      </trkpt>
      <trkpt lat="37.04397" lon="28.21536">
        <ele>97.3</ele>
      </trkpt>
      <trkpt lat="37.044" lon="28.21546">
        <ele>96.3</ele>
      </trkpt>
      <trkpt lat="37.04403" lon="28.2155">
        <ele>96.3</ele>
      </trkpt>
      <trkpt lat="37.04404" lon="28.21552">
        <ele>96.3</ele>
      </trkpt>
      <trkpt lat="37.04408" lon="28.21556">
        <ele>96.9</ele>
      </trkpt>
      <trkpt lat="37.04411" lon="28.21558">
        <ele>97.3</ele>
      </trkpt>
      <trkpt lat="37.04412" lon="28.21561">
        <ele>96.9</ele>
      </trkpt>
      <trkpt lat="37.04413" lon="28.21567">
        <ele>95.6</ele>
      </trkpt>
      <trkpt lat="37.04416" lon="28.21575">
        <ele>94.7</ele>
      </trkpt>
      <trkpt lat="37.04417" lon="28.21582">
        <ele>93.6</ele>
      </trkpt>
      <trkpt lat="37.04417" lon="28.21586">
        <ele>93</ele>
      </trkpt>
      <trkpt lat="37.04417" lon="28.21589">
        <ele>92.7</ele>
      </trkpt>
      <trkpt lat="37.04417" lon="28.21591">
        <ele>92.5</ele>
      </trkpt>
      <trkpt lat="37.04416" lon="28.21603">
        <ele>91.1</ele>
      </trkpt>
      <trkpt lat="37.04418" lon="28.21613">
        <ele>90.7</ele>
      </trkpt>
      <trkpt lat="37.04418" lon="28.21614">
        <ele>90.7</ele>
      </trkpt>
      <trkpt lat="37.04416" lon="28.21618">
        <ele>89.4</ele>
      </trkpt>
      <trkpt lat="37.04416" lon="28.21622">
        <ele>89</ele>
      </trkpt>
      <trkpt lat="37.04415" lon="28.21632">
        <ele>87.9</ele>
      </trkpt>
      <trkpt lat="37.04414" lon="28.21641">
        <ele>86.9</ele>
      </trkpt>
      <trkpt lat="37.04414" lon="28.21649">
        <ele>86.1</ele>
      </trkpt>
      <trkpt lat="37.04415" lon="28.2165">
        <ele>86.1</ele>
      </trkpt>
      <trkpt lat="37.04416" lon="28.21659">
        <ele>85.6</ele>
      </trkpt>
      <trkpt lat="37.04418" lon="28.21662">
        <ele>85.9</ele>
      </trkpt>
      <trkpt lat="37.04418" lon="28.21664">
        <ele>85.7</ele>
      </trkpt>
      <trkpt lat="37.04417" lon="28.21672">
        <ele>85.1</ele>
      </trkpt>
      <trkpt lat="37.04417" lon="28.21673">
        <ele>85.1</ele>
      </trkpt>
      <trkpt lat="37.04418" lon="28.21679">
        <ele>85.4</ele>
      </trkpt>
      <trkpt lat="37.04417" lon="28.21684">
        <ele>85.2</ele>
      </trkpt>
      <trkpt lat="37.04419" lon="28.21685">
        <ele>85.7</ele>
      </trkpt>
      <trkpt lat="37.04419" lon="28.21691">
        <ele>85.7</ele>
      </trkpt>
      <trkpt lat="37.04421" lon="28.21691">
        <ele>86.6</ele>
      </trkpt>
      <trkpt lat="37.0442" lon="28.21692">
        <ele>86.3</ele>
      </trkpt>
      <trkpt lat="37.04421" lon="28.21706">
        <ele>86.6</ele>
      </trkpt>
      <trkpt lat="37.04422" lon="28.21707">
        <ele>86.7</ele>
      </trkpt>
      <trkpt lat="37.0442" lon="28.21708">
        <ele>86.2</ele>
      </trkpt>
      <trkpt lat="37.04418" lon="28.21717">
        <ele>85.5</ele>
      </trkpt>
      <trkpt lat="37.04416" lon="28.21733">
        <ele>84.9</ele>
      </trkpt>
      <trkpt lat="37.04415" lon="28.21746">
        <ele>84.7</ele>
      </trkpt>
      <trkpt lat="37.04413" lon="28.21757">
        <ele>84.4</ele>
      </trkpt>
      <trkpt lat="37.0441" lon="28.2177">
        <ele>84.3</ele>
      </trkpt>
      <trkpt lat="37.04405" lon="28.2178">
        <ele>83.7</ele>
      </trkpt>
      <trkpt lat="37.04402" lon="28.2179">
        <ele>83.2</ele>
      </trkpt>
      <trkpt lat="37.04399" lon="28.21802">
        <ele>83</ele>
      </trkpt>
      <trkpt lat="37.04394" lon="28.21813">
        <ele>82.4</ele>
      </trkpt>
      <trkpt lat="37.0439" lon="28.21823">
        <ele>81.9</ele>
      </trkpt>
      <trkpt lat="37.04389" lon="28.21832">
        <ele>82.1</ele>
      </trkpt>
      <trkpt lat="37.04386" lon="28.21844">
        <ele>81.1</ele>
      </trkpt>
      <trkpt lat="37.04387" lon="28.21852">
        <ele>81</ele>
      </trkpt>
      <trkpt lat="37.04384" lon="28.21858">
        <ele>80.1</ele>
      </trkpt>
      <trkpt lat="37.04384" lon="28.21868">
        <ele>80</ele>
      </trkpt>
      <trkpt lat="37.04385" lon="28.21875">
        <ele>80</ele>
      </trkpt>
      <trkpt lat="37.04388" lon="28.21888">
        <ele>80.3</ele>
      </trkpt>
      <trkpt lat="37.04391" lon="28.219">
        <ele>80.5</ele>
      </trkpt>
      <trkpt lat="37.04394" lon="28.21914">
        <ele>80.9</ele>
      </trkpt>
      <trkpt lat="37.04403" lon="28.2192">
        <ele>82.7</ele>
      </trkpt>
      <trkpt lat="37.04404" lon="28.21928">
        <ele>82.8</ele>
      </trkpt>
      <trkpt lat="37.04408" lon="28.21937">
        <ele>83.2</ele>
      </trkpt>
      <trkpt lat="37.04407" lon="28.21948">
        <ele>82.6</ele>
      </trkpt>
      <trkpt lat="37.04408" lon="28.2196">
        <ele>82.4</ele>
      </trkpt>
      <trkpt lat="37.04408" lon="28.21972">
        <ele>81.8</ele>
      </trkpt>
      <trkpt lat="37.04412" lon="28.21983">
        <ele>82.4</ele>
      </trkpt>
      <trkpt lat="37.04412" lon="28.21994">
        <ele>82</ele>
      </trkpt>
      <trkpt lat="37.04417" lon="28.22006">
        <ele>83</ele>
      </trkpt>
      <trkpt lat="37.0442" lon="28.22015">
        <ele>83.7</ele>
      </trkpt>
      <trkpt lat="37.04423" lon="28.22026">
        <ele>84.2</ele>
      </trkpt>
      <trkpt lat="37.04432" lon="28.22036">
        <ele>85.6</ele>
      </trkpt>
      <trkpt lat="37.04435" lon="28.22043">
        <ele>86.2</ele>
      </trkpt>
      <trkpt lat="37.04433" lon="28.22049">
        <ele>85.7</ele>
      </trkpt>
      <trkpt lat="37.04432" lon="28.2206">
        <ele>85.5</ele>
      </trkpt>
      <trkpt lat="37.04432" lon="28.2206">
        <ele>85.5</ele>
      </trkpt>
      <trkpt lat="37.04433" lon="28.22062">
        <ele>85.6</ele>
      </trkpt>
      <trkpt lat="37.04432" lon="28.22074">
        <ele>85.5</ele>
      </trkpt>
      <trkpt lat="37.04432" lon="28.2208">
        <ele>85.4</ele>
      </trkpt>
      <trkpt lat="37.04434" lon="28.22087">
        <ele>85.6</ele>
      </trkpt>
      <trkpt lat="37.04436" lon="28.22099">
        <ele>85.4</ele>
      </trkpt>
      <trkpt lat="37.04434" lon="28.22111">
        <ele>84.5</ele>
      </trkpt>
      <trkpt lat="37.04431" lon="28.22118">
        <ele>83.9</ele>
      </trkpt>
      <trkpt lat="37.04429" lon="28.22126">
        <ele>83</ele>
      </trkpt>
      <trkpt lat="37.04429" lon="28.22134">
        <ele>82.7</ele>
      </trkpt>
      <trkpt lat="37.04429" lon="28.22143">
        <ele>82.3</ele>
      </trkpt>
      <trkpt lat="37.04428" lon="28.22157">
        <ele>81.6</ele>
      </trkpt>
      <trkpt lat="37.04429" lon="28.22168">
        <ele>81.2</ele>
      </trkpt>
      <trkpt lat="37.04431" lon="28.22178">
        <ele>81.1</ele>
      </trkpt>
      <trkpt lat="37.04434" lon="28.22191">
        <ele>80.8</ele>
      </trkpt>
      <trkpt lat="37.04437" lon="28.22195">
        <ele>81.2</ele>
      </trkpt>
      <trkpt lat="37.04443" lon="28.22205">
        <ele>81.8</ele>
      </trkpt>
      <trkpt lat="37.04448" lon="28.22216">
        <ele>82</ele>
      </trkpt>
      <trkpt lat="37.04449" lon="28.22223">
        <ele>81.7</ele>
      </trkpt>
      <trkpt lat="37.04448" lon="28.2223">
        <ele>81.2</ele>
      </trkpt>
      <trkpt lat="37.0445" lon="28.22243">
        <ele>80.8</ele>
      </trkpt>
      <trkpt lat="37.04451" lon="28.22255">
        <ele>80.2</ele>
      </trkpt>
      <trkpt lat="37.04449" lon="28.22263">
        <ele>79.3</ele>
      </trkpt>
      <trkpt lat="37.04445" lon="28.22269">
        <ele>78</ele>
      </trkpt>
      <trkpt lat="37.04439" lon="28.22274">
        <ele>76.4</ele>
      </trkpt>
      <trkpt lat="37.04434" lon="28.22284">
        <ele>74.6</ele>
      </trkpt>
      <trkpt lat="37.0443" lon="28.22295">
        <ele>72.9</ele>
      </trkpt>
      <trkpt lat="37.04425" lon="28.22299">
        <ele>71.7</ele>
      </trkpt>
      <trkpt lat="37.04419" lon="28.22302">
        <ele>70.2</ele>
      </trkpt>
      <trkpt lat="37.04416" lon="28.22313">
        <ele>68.6</ele>
      </trkpt>
      <trkpt lat="37.04413" lon="28.22324">
        <ele>67.3</ele>
      </trkpt>
      <trkpt lat="37.04408" lon="28.22334">
        <ele>66</ele>
      </trkpt>
      <trkpt lat="37.0441" lon="28.22346">
        <ele>66</ele>
      </trkpt>
      <trkpt lat="37.04414" lon="28.22354">
        <ele>66.2</ele>
      </trkpt>
      <trkpt lat="37.04417" lon="28.22364">
        <ele>66.4</ele>
      </trkpt>
      <trkpt lat="37.0442" lon="28.22376">
        <ele>66.6</ele>
      </trkpt>
      <trkpt lat="37.04417" lon="28.22381">
        <ele>66</ele>
      </trkpt>
      <trkpt lat="37.04417" lon="28.22381">
        <ele>66</ele>
      </trkpt>
      <trkpt lat="37.04417" lon="28.22391">
        <ele>65.8</ele>
      </trkpt>
      <trkpt lat="37.04416" lon="28.22397">
        <ele>65.4</ele>
      </trkpt>
      <trkpt lat="37.04421" lon="28.22405">
        <ele>66.2</ele>
      </trkpt>
      <trkpt lat="37.04425" lon="28.2241">
        <ele>66.9</ele>
      </trkpt>
      <trkpt lat="37.0443" lon="28.22416">
        <ele>67.9</ele>
      </trkpt>
      <trkpt lat="37.04434" lon="28.22423">
        <ele>69.4</ele>
      </trkpt>
      <trkpt lat="37.04439" lon="28.22434">
        <ele>71.5</ele>
      </trkpt>
      <trkpt lat="37.04443" lon="28.22438">
        <ele>72.9</ele>
      </trkpt>
      <trkpt lat="37.04447" lon="28.22443">
        <ele>74.4</ele>
      </trkpt>
      <trkpt lat="37.04451" lon="28.22448">
        <ele>75.8</ele>
      </trkpt>
      <trkpt lat="37.04453" lon="28.22454">
        <ele>77.2</ele>
      </trkpt>
      <trkpt lat="37.04455" lon="28.2246">
        <ele>78.3</ele>
      </trkpt>
      <trkpt lat="37.04457" lon="28.22467">
        <ele>79.6</ele>
      </trkpt>
      <trkpt lat="37.04457" lon="28.22474">
        <ele>80.6</ele>
      </trkpt>
      <trkpt lat="37.04457" lon="28.22482">
        <ele>81.5</ele>
      </trkpt>
      <trkpt lat="37.04458" lon="28.22489">
        <ele>82.5</ele>
      </trkpt>
      <trkpt lat="37.04458" lon="28.22495">
        <ele>83.4</ele>
      </trkpt>
      <trkpt lat="37.04455" lon="28.22506">
        <ele>84.4</ele>
      </trkpt>
      <trkpt lat="37.04454" lon="28.22513">
        <ele>85.5</ele>
      </trkpt>
      <trkpt lat="37.04452" lon="28.2252">
        <ele>86.5</ele>
      </trkpt>
      <trkpt lat="37.04448" lon="28.2253">
        <ele>87.6</ele>
      </trkpt>
      <trkpt lat="37.04446" lon="28.22542">
        <ele>89.5</ele>
      </trkpt>
      <trkpt lat="37.04445" lon="28.22553">
        <ele>91.4</ele>
      </trkpt>
      <trkpt lat="37.04445" lon="28.22559">
        <ele>92.8</ele>
      </trkpt>
      <trkpt lat="37.04442" lon="28.22569">
        <ele>93.9</ele>
      </trkpt>
      <trkpt lat="37.04436" lon="28.22578">
        <ele>93.8</ele>
      </trkpt>
      <trkpt lat="37.04434" lon="28.22586">
        <ele>95.1</ele>
      </trkpt>
      <trkpt lat="37.04429" lon="28.22596">
        <ele>95.6</ele>
      </trkpt>
      <trkpt lat="37.04424" lon="28.22606">
        <ele>96.2</ele>
      </trkpt>
      <trkpt lat="37.04419" lon="28.22616">
        <ele>96.5</ele>
      </trkpt>
      <trkpt lat="37.04414" lon="28.22626">
        <ele>96.9</ele>
      </trkpt>
      <trkpt lat="37.04411" lon="28.22631">
        <ele>97.3</ele>
      </trkpt>
      <trkpt lat="37.04406" lon="28.22641">
        <ele>97.9</ele>
      </trkpt>
      <trkpt lat="37.04404" lon="28.22647">
        <ele>98.4</ele>
      </trkpt>
      <trkpt lat="37.04403" lon="28.22658">
        <ele>100.7</ele>
      </trkpt>
      <trkpt lat="37.04401" lon="28.22665">
        <ele>101.6</ele>
      </trkpt>
      <trkpt lat="37.04398" lon="28.22676">
        <ele>103.4</ele>
      </trkpt>
      <trkpt lat="37.04394" lon="28.22683">
        <ele>103.8</ele>
      </trkpt>
      <trkpt lat="37.04391" lon="28.22693">
        <ele>105.2</ele>
      </trkpt>
      <trkpt lat="37.04388" lon="28.22706">
        <ele>107.1</ele>
      </trkpt>
      <trkpt lat="37.04385" lon="28.22713">
        <ele>108.1</ele>
      </trkpt>
      <trkpt lat="37.04383" lon="28.22721">
        <ele>109.1</ele>
      </trkpt>
      <trkpt lat="37.04379" lon="28.22733">
        <ele>110.3</ele>
      </trkpt>
      <trkpt lat="37.04378" lon="28.22739">
        <ele>111.4</ele>
      </trkpt>
      <trkpt lat="37.04378" lon="28.22747">
        <ele>113.4</ele>
      </trkpt>
      <trkpt lat="37.04378" lon="28.2276">
        <ele>116.3</ele>
      </trkpt>
      <trkpt lat="37.04377" lon="28.2277">
        <ele>118.1</ele>
      </trkpt>
      <trkpt lat="37.04377" lon="28.22781">
        <ele>120.1</ele>
      </trkpt>
      <trkpt lat="37.04374" lon="28.22791">
        <ele>121.1</ele>
      </trkpt>
      <trkpt lat="37.04372" lon="28.22802">
        <ele>122.9</ele>
      </trkpt>
      <trkpt lat="37.04372" lon="28.22808">
        <ele>123.9</ele>
      </trkpt>
      <trkpt lat="37.04366" lon="28.22817">
        <ele>123.4</ele>
      </trkpt>
      <trkpt lat="37.04361" lon="28.22828">
        <ele>123.5</ele>
      </trkpt>
      <trkpt lat="37.04358" lon="28.2284">
        <ele>124.2</ele>
      </trkpt>
      <trkpt lat="37.04356" lon="28.22854">
        <ele>125.4</ele>
      </trkpt>
      <trkpt lat="37.04359" lon="28.22866">
        <ele>128</ele>
      </trkpt>
      <trkpt lat="37.04358" lon="28.22878">
        <ele>129.2</ele>
      </trkpt>
      <trkpt lat="37.04356" lon="28.22889">
        <ele>130.1</ele>
      </trkpt>
      <trkpt lat="37.04359" lon="28.22901">
        <ele>132.8</ele>
      </trkpt>
      <trkpt lat="37.04367" lon="28.22909">
        <ele>136.7</ele>
      </trkpt>
      <trkpt lat="37.04369" lon="28.22917">
        <ele>138.5</ele>
      </trkpt>
      <trkpt lat="37.04371" lon="28.22928">
        <ele>139.9</ele>
      </trkpt>
      <trkpt lat="37.04368" lon="28.22939">
        <ele>139.2</ele>
      </trkpt>
      <trkpt lat="37.04365" lon="28.22949">
        <ele>138.8</ele>
      </trkpt>
      <trkpt lat="37.04368" lon="28.22962">
        <ele>140.3</ele>
      </trkpt>
      <trkpt lat="37.04368" lon="28.22975">
        <ele>140.9</ele>
      </trkpt>
      <trkpt lat="37.04366" lon="28.22983">
        <ele>140.8</ele>
      </trkpt>
      <trkpt lat="37.04366" lon="28.22995">
        <ele>141.3</ele>
      </trkpt>
      <trkpt lat="37.04362" lon="28.23006">
        <ele>140.5</ele>
      </trkpt>
      <trkpt lat="37.04361" lon="28.23018">
        <ele>140.9</ele>
      </trkpt>
      <trkpt lat="37.04361" lon="28.2303">
        <ele>141.4</ele>
      </trkpt>
      <trkpt lat="37.0436" lon="28.23042">
        <ele>141.6</ele>
      </trkpt>
      <trkpt lat="37.0436" lon="28.23055">
        <ele>142.1</ele>
      </trkpt>
      <trkpt lat="37.04357" lon="28.23067">
        <ele>141.7</ele>
      </trkpt>
      <trkpt lat="37.04354" lon="28.23078">
        <ele>141.3</ele>
      </trkpt>
      <trkpt lat="37.04354" lon="28.23089">
        <ele>141.3</ele>
      </trkpt>
      <trkpt lat="37.04355" lon="28.23102">
        <ele>141.7</ele>
      </trkpt>
      <trkpt lat="37.04354" lon="28.23115">
        <ele>141.2</ele>
      </trkpt>
      <trkpt lat="37.04355" lon="28.23127">
        <ele>141.5</ele>
      </trkpt>
      <trkpt lat="37.04358" lon="28.23135">
        <ele>142.7</ele>
      </trkpt>
      <trkpt lat="37.04361" lon="28.23145">
        <ele>143.7</ele>
      </trkpt>
      <trkpt lat="37.04362" lon="28.23158">
        <ele>143.8</ele>
      </trkpt>
      <trkpt lat="37.04364" lon="28.23169">
        <ele>144.6</ele>
      </trkpt>
      <trkpt lat="37.04363" lon="28.23181">
        <ele>144.6</ele>
      </trkpt>
      <trkpt lat="37.04364" lon="28.23192">
        <ele>145.4</ele>
      </trkpt>
      <trkpt lat="37.0437" lon="28.23202">
        <ele>147.8</ele>
      </trkpt>
      <trkpt lat="37.04377" lon="28.2321">
        <ele>150.6</ele>
      </trkpt>
      <trkpt lat="37.0438" lon="28.23216">
        <ele>152</ele>
      </trkpt>
      <trkpt lat="37.04385" lon="28.23227">
        <ele>153.9</ele>
      </trkpt>
      <trkpt lat="37.04389" lon="28.23238">
        <ele>155.8</ele>
      </trkpt>
      <trkpt lat="37.04391" lon="28.23247">
        <ele>156.9</ele>
      </trkpt>
      <trkpt lat="37.04391" lon="28.23255">
        <ele>156.8</ele>
      </trkpt>
      <trkpt lat="37.04393" lon="28.23267">
        <ele>157.6</ele>
      </trkpt>
      <trkpt lat="37.04395" lon="28.23279">
        <ele>158.1</ele>
      </trkpt>
      <trkpt lat="37.04394" lon="28.23291">
        <ele>157.7</ele>
      </trkpt>
      <trkpt lat="37.04397" lon="28.23298">
        <ele>159</ele>
      </trkpt>
      <trkpt lat="37.04403" lon="28.23308">
        <ele>160.9</ele>
      </trkpt>
      <trkpt lat="37.044" lon="28.23319">
        <ele>159.9</ele>
      </trkpt>
      <trkpt lat="37.044" lon="28.23331">
        <ele>159.9</ele>
      </trkpt>
      <trkpt lat="37.04403" lon="28.23342">
        <ele>161.5</ele>
      </trkpt>
      <trkpt lat="37.04405" lon="28.23354">
        <ele>162.9</ele>
      </trkpt>
      <trkpt lat="37.04402" lon="28.23362">
        <ele>162.5</ele>
      </trkpt>
      <trkpt lat="37.04402" lon="28.23373">
        <ele>163.2</ele>
      </trkpt>
      <trkpt lat="37.04404" lon="28.23386">
        <ele>164.7</ele>
      </trkpt>
      <trkpt lat="37.04405" lon="28.23395">
        <ele>166</ele>
      </trkpt>
      <trkpt lat="37.04408" lon="28.234">
        <ele>167.3</ele>
      </trkpt>
      <trkpt lat="37.04409" lon="28.23405">
        <ele>168.2</ele>
      </trkpt>
      <trkpt lat="37.04412" lon="28.23416">
        <ele>170.1</ele>
      </trkpt>
      <trkpt lat="37.04412" lon="28.23427">
        <ele>171.3</ele>
      </trkpt>
      <trkpt lat="37.04414" lon="28.2344">
        <ele>173.2</ele>
      </trkpt>
      <trkpt lat="37.04414" lon="28.23451">
        <ele>174.4</ele>
      </trkpt>
      <trkpt lat="37.04417" lon="28.2346">
        <ele>176.1</ele>
      </trkpt>
      <trkpt lat="37.04416" lon="28.23467">
        <ele>176.4</ele>
      </trkpt>
      <trkpt lat="37.04417" lon="28.2348">
        <ele>178.2</ele>
      </trkpt>
      <trkpt lat="37.04422" lon="28.23491">
        <ele>181.4</ele>
      </trkpt>
      <trkpt lat="37.04422" lon="28.23502">
        <ele>182.3</ele>
      </trkpt>
      <trkpt lat="37.04423" lon="28.23514">
        <ele>182.9</ele>
      </trkpt>
      <trkpt lat="37.04425" lon="28.23526">
        <ele>184.1</ele>
      </trkpt>
      <trkpt lat="37.0443" lon="28.23534">
        <ele>186.7</ele>
      </trkpt>
      <trkpt lat="37.04434" lon="28.23542">
        <ele>188.5</ele>
      </trkpt>
      <trkpt lat="37.04433" lon="28.23549">
        <ele>188</ele>
      </trkpt>
      <trkpt lat="37.04432" lon="28.23555">
        <ele>187.7</ele>
      </trkpt>
      <trkpt lat="37.04433" lon="28.23561">
        <ele>188.3</ele>
      </trkpt>
      <trkpt lat="37.04435" lon="28.23568">
        <ele>189.4</ele>
      </trkpt>
      <trkpt lat="37.04442" lon="28.23577">
        <ele>192.1</ele>
      </trkpt>
      <trkpt lat="37.04447" lon="28.23587">
        <ele>194.4</ele>
      </trkpt>
      <trkpt lat="37.04447" lon="28.23593">
        <ele>195.2</ele>
      </trkpt>
      <trkpt lat="37.04449" lon="28.23606">
        <ele>196.8</ele>
      </trkpt>
      <trkpt lat="37.04448" lon="28.23617">
        <ele>197.4</ele>
      </trkpt>
      <trkpt lat="37.04449" lon="28.23627">
        <ele>198.2</ele>
      </trkpt>
      <trkpt lat="37.04452" lon="28.23633">
        <ele>199.9</ele>
      </trkpt>
      <trkpt lat="37.04456" lon="28.2364">
        <ele>202.3</ele>
      </trkpt>
      <trkpt lat="37.04454" lon="28.23647">
        <ele>201.9</ele>
      </trkpt>
      <trkpt lat="37.04458" lon="28.23651">
        <ele>203.6</ele>
      </trkpt>
      <trkpt lat="37.04465" lon="28.23659">
        <ele>206.8</ele>
      </trkpt>
      <trkpt lat="37.04471" lon="28.2366">
        <ele>209.4</ele>
      </trkpt>
      <trkpt lat="37.04473" lon="28.23666">
        <ele>210.4</ele>
      </trkpt>
      <trkpt lat="37.04476" lon="28.23675">
        <ele>212.9</ele>
      </trkpt>
      <trkpt lat="37.04479" lon="28.23681">
        <ele>214.6</ele>
      </trkpt>
      <trkpt lat="37.04483" lon="28.23685">
        <ele>216.6</ele>
      </trkpt>
      <trkpt lat="37.04487" lon="28.23692">
        <ele>218.9</ele>
      </trkpt>
      <trkpt lat="37.04484" lon="28.237">
        <ele>219.1</ele>
      </trkpt>
      <trkpt lat="37.0448" lon="28.23711">
        <ele>218.8</ele>
      </trkpt>
      <trkpt lat="37.04478" lon="28.23719">
        <ele>219.1</ele>
      </trkpt>
      <trkpt lat="37.04476" lon="28.23724">
        <ele>219</ele>
      </trkpt>
      <trkpt lat="37.04472" lon="28.23727">
        <ele>217.8</ele>
      </trkpt>
      <trkpt lat="37.04471" lon="28.23729">
        <ele>217.8</ele>
      </trkpt>
      <trkpt lat="37.04468" lon="28.23739">
        <ele>218</ele>
      </trkpt>
      <trkpt lat="37.04466" lon="28.23752">
        <ele>219</ele>
      </trkpt>
      <trkpt lat="37.04466" lon="28.23764">
        <ele>219.6</ele>
      </trkpt>
      <trkpt lat="37.04465" lon="28.23776">
        <ele>220.2</ele>
      </trkpt>
      <trkpt lat="37.04469" lon="28.23788">
        <ele>222.6</ele>
      </trkpt>
      <trkpt lat="37.04473" lon="28.23795">
        <ele>224.2</ele>
      </trkpt>
      <trkpt lat="37.0448" lon="28.238">
        <ele>227.1</ele>
      </trkpt>
      <trkpt lat="37.04483" lon="28.23807">
        <ele>228.9</ele>
      </trkpt>
      <trkpt lat="37.04486" lon="28.23815">
        <ele>230.4</ele>
      </trkpt>
      <trkpt lat="37.04484" lon="28.23827">
        <ele>230.7</ele>
      </trkpt>
      <trkpt lat="37.04486" lon="28.23833">
        <ele>231.6</ele>
      </trkpt>
      <trkpt lat="37.04488" lon="28.23843">
        <ele>232.3</ele>
      </trkpt>
      <trkpt lat="37.04494" lon="28.23852">
        <ele>233.9</ele>
      </trkpt>
      <trkpt lat="37.045" lon="28.2386">
        <ele>236</ele>
      </trkpt>
      <trkpt lat="37.045" lon="28.23872">
        <ele>235.5</ele>
      </trkpt>
      <trkpt lat="37.04503" lon="28.23883">
        <ele>236.2</ele>
      </trkpt>
      <trkpt lat="37.04509" lon="28.23892">
        <ele>237.6</ele>
      </trkpt>
      <trkpt lat="37.04512" lon="28.23901">
        <ele>238.2</ele>
      </trkpt>
      <trkpt lat="37.04515" lon="28.23913">
        <ele>238.7</ele>
      </trkpt>
      <trkpt lat="37.0452" lon="28.23924">
        <ele>239.7</ele>
      </trkpt>
      <trkpt lat="37.04524" lon="28.23934">
        <ele>240.7</ele>
      </trkpt>
      <trkpt lat="37.04526" lon="28.23945">
        <ele>240.9</ele>
      </trkpt>
      <trkpt lat="37.04531" lon="28.23954">
        <ele>242.4</ele>
      </trkpt>
      <trkpt lat="37.04534" lon="28.2396">
        <ele>243.3</ele>
      </trkpt>
      <trkpt lat="37.04534" lon="28.23966">
        <ele>243.1</ele>
      </trkpt>
      <trkpt lat="37.04534" lon="28.23973">
        <ele>243.1</ele>
      </trkpt>
      <trkpt lat="37.04536" lon="28.23985">
        <ele>243.4</ele>
      </trkpt>
      <trkpt lat="37.04539" lon="28.23996">
        <ele>244.4</ele>
      </trkpt>
      <trkpt lat="37.0454" lon="28.24002">
        <ele>244.8</ele>
      </trkpt>
      <trkpt lat="37.04541" lon="28.2401">
        <ele>244.7</ele>
      </trkpt>
      <trkpt lat="37.04543" lon="28.24022">
        <ele>244.8</ele>
      </trkpt>
      <trkpt lat="37.04548" lon="28.24032">
        <ele>246.6</ele>
      </trkpt>
      <trkpt lat="37.04549" lon="28.24043">
        <ele>246.5</ele>
      </trkpt>
      <trkpt lat="37.04549" lon="28.24054">
        <ele>246</ele>
      </trkpt>
      <trkpt lat="37.04548" lon="28.24064">
        <ele>245.1</ele>
      </trkpt>
      <trkpt lat="37.04552" lon="28.24074">
        <ele>246.4</ele>
      </trkpt>
      <trkpt lat="37.04554" lon="28.24084">
        <ele>247</ele>
      </trkpt>
      <trkpt lat="37.04557" lon="28.24094">
        <ele>248</ele>
      </trkpt>
      <trkpt lat="37.04561" lon="28.24103">
        <ele>249.4</ele>
      </trkpt>
      <trkpt lat="37.04563" lon="28.24113">
        <ele>250</ele>
      </trkpt>
      <trkpt lat="37.04564" lon="28.24119">
        <ele>250.5</ele>
      </trkpt>
      <trkpt lat="37.04565" lon="28.24127">
        <ele>250.8</ele>
      </trkpt>
      <trkpt lat="37.0457" lon="28.24136">
        <ele>252.6</ele>
      </trkpt>
      <trkpt lat="37.04573" lon="28.24147">
        <ele>254</ele>
      </trkpt>
      <trkpt lat="37.04577" lon="28.24154">
        <ele>255.3</ele>
      </trkpt>
      <trkpt lat="37.04578" lon="28.24163">
        <ele>255.5</ele>
      </trkpt>
      <trkpt lat="37.04579" lon="28.24173">
        <ele>256.1</ele>
      </trkpt>
      <trkpt lat="37.0458" lon="28.24182">
        <ele>256.8</ele>
      </trkpt>
      <trkpt lat="37.04581" lon="28.24194">
        <ele>257.2</ele>
      </trkpt>
      <trkpt lat="37.04581" lon="28.24205">
        <ele>257.3</ele>
      </trkpt>
      <trkpt lat="37.04581" lon="28.24217">
        <ele>257.6</ele>
      </trkpt>
      <trkpt lat="37.04581" lon="28.24229">
        <ele>257.8</ele>
      </trkpt>
      <trkpt lat="37.04582" lon="28.24242">
        <ele>258.3</ele>
      </trkpt>
      <trkpt lat="37.04582" lon="28.24254">
        <ele>257.9</ele>
      </trkpt>
      <trkpt lat="37.04584" lon="28.24264">
        <ele>258.4</ele>
      </trkpt>
      <trkpt lat="37.04584" lon="28.24272">
        <ele>258.1</ele>
      </trkpt>
      <trkpt lat="37.04584" lon="28.24283">
        <ele>257.5</ele>
      </trkpt>
      <trkpt lat="37.04587" lon="28.24292">
        <ele>258.1</ele>
      </trkpt>
      <trkpt lat="37.0459" lon="28.24302">
        <ele>258.6</ele>
      </trkpt>
      <trkpt lat="37.04591" lon="28.24314">
        <ele>258.6</ele>
      </trkpt>
      <trkpt lat="37.04596" lon="28.24322">
        <ele>260.2</ele>
      </trkpt>
      <trkpt lat="37.04598" lon="28.24331">
        <ele>260.5</ele>
      </trkpt>
      <trkpt lat="37.04601" lon="28.2434">
        <ele>261</ele>
      </trkpt>
      <trkpt lat="37.04603" lon="28.24352">
        <ele>261.6</ele>
      </trkpt>
      <trkpt lat="37.04606" lon="28.2436">
        <ele>262.1</ele>
      </trkpt>
      <trkpt lat="37.04608" lon="28.2437">
        <ele>262.2</ele>
      </trkpt>
      <trkpt lat="37.04612" lon="28.24381">
        <ele>263.3</ele>
      </trkpt>
      <trkpt lat="37.04615" lon="28.24391">
        <ele>263.7</ele>
      </trkpt>
      <trkpt lat="37.04615" lon="28.24403">
        <ele>263.2</ele>
      </trkpt>
      <trkpt lat="37.04619" lon="28.24413">
        <ele>264</ele>
      </trkpt>
      <trkpt lat="37.04623" lon="28.2442">
        <ele>264.9</ele>
      </trkpt>
      <trkpt lat="37.04628" lon="28.2443">
        <ele>266.4</ele>
      </trkpt>
      <trkpt lat="37.04631" lon="28.24435">
        <ele>267.3</ele>
      </trkpt>
      <trkpt lat="37.04634" lon="28.24445">
        <ele>268.2</ele>
      </trkpt>
      <trkpt lat="37.04637" lon="28.24457">
        <ele>268.5</ele>
      </trkpt>
      <trkpt lat="37.0464" lon="28.24468">
        <ele>269.3</ele>
      </trkpt>
      <trkpt lat="37.04644" lon="28.2448">
        <ele>270.2</ele>
      </trkpt>
      <trkpt lat="37.04648" lon="28.24486">
        <ele>271.2</ele>
      </trkpt>
      <trkpt lat="37.04653" lon="28.24493">
        <ele>272.4</ele>
      </trkpt>
      <trkpt lat="37.04655" lon="28.24499">
        <ele>272.9</ele>
      </trkpt>
      <trkpt lat="37.04657" lon="28.24506">
        <ele>272.7</ele>
      </trkpt>
      <trkpt lat="37.04658" lon="28.24512">
        <ele>272.2</ele>
      </trkpt>
      <trkpt lat="37.04661" lon="28.24521">
        <ele>271.9</ele>
      </trkpt>
      <trkpt lat="37.04663" lon="28.24532">
        <ele>271.1</ele>
      </trkpt>
      <trkpt lat="37.04664" lon="28.24544">
        <ele>269.4</ele>
      </trkpt>
      <trkpt lat="37.04666" lon="28.24554">
        <ele>268.8</ele>
      </trkpt>
      <trkpt lat="37.04667" lon="28.24561">
        <ele>268.4</ele>
      </trkpt>
      <trkpt lat="37.04672" lon="28.24571">
        <ele>268.3</ele>
      </trkpt>
      <trkpt lat="37.04678" lon="28.2458">
        <ele>268.6</ele>
      </trkpt>
      <trkpt lat="37.04685" lon="28.24587">
        <ele>269.3</ele>
      </trkpt>
      <trkpt lat="37.04689" lon="28.24594">
        <ele>268.8</ele>
      </trkpt>
      <trkpt lat="37.04694" lon="28.246">
        <ele>269</ele>
      </trkpt>
      <trkpt lat="37.04701" lon="28.24609">
        <ele>269.4</ele>
      </trkpt>
      <trkpt lat="37.04705" lon="28.24617">
        <ele>268.8</ele>
      </trkpt>
      <trkpt lat="37.04711" lon="28.24625">
        <ele>269</ele>
      </trkpt>
      <trkpt lat="37.04717" lon="28.24631">
        <ele>269.3</ele>
      </trkpt>
      <trkpt lat="37.04721" lon="28.24636">
        <ele>269.4</ele>
      </trkpt>
      <trkpt lat="37.04728" lon="28.24646">
        <ele>269.2</ele>
      </trkpt>
      <trkpt lat="37.04733" lon="28.24652">
        <ele>269.6</ele>
      </trkpt>
      <trkpt lat="37.04737" lon="28.24656">
        <ele>269.6</ele>
      </trkpt>
      <trkpt lat="37.04739" lon="28.24662">
        <ele>269.2</ele>
      </trkpt>
      <trkpt lat="37.04742" lon="28.24666">
        <ele>269.1</ele>
      </trkpt>
      <trkpt lat="37.04749" lon="28.24675">
        <ele>268.2</ele>
      </trkpt>
      <trkpt lat="37.04755" lon="28.24685">
        <ele>266.9</ele>
      </trkpt>
      <trkpt lat="37.04759" lon="28.24689">
        <ele>266.2</ele>
      </trkpt>
      <trkpt lat="37.04763" lon="28.24695">
        <ele>265.3</ele>
      </trkpt>
      <trkpt lat="37.04769" lon="28.24701">
        <ele>264.9</ele>
      </trkpt>
      <trkpt lat="37.04774" lon="28.24711">
        <ele>263.1</ele>
      </trkpt>
      <trkpt lat="37.04777" lon="28.2472">
        <ele>261.4</ele>
      </trkpt>
      <trkpt lat="37.04784" lon="28.24725">
        <ele>261.4</ele>
      </trkpt>
      <trkpt lat="37.04789" lon="28.24726">
        <ele>262.2</ele>
      </trkpt>
      <trkpt lat="37.04795" lon="28.24723">
        <ele>264.2</ele>
      </trkpt>
      <trkpt lat="37.04802" lon="28.24726">
        <ele>265.1</ele>
      </trkpt>
      <trkpt lat="37.04807" lon="28.24726">
        <ele>266.2</ele>
      </trkpt>
      <trkpt lat="37.04807" lon="28.24724">
        <ele>266.5</ele>
      </trkpt>
      <trkpt lat="37.04808" lon="28.24724">
        <ele>266.9</ele>
      </trkpt>
      <trkpt lat="37.04808" lon="28.24724">
        <ele>266.9</ele>
      </trkpt>
      <trkpt lat="37.04809" lon="28.24726">
        <ele>266.7</ele>
      </trkpt>
      <trkpt lat="37.04809" lon="28.24726">
        <ele>266.7</ele>
      </trkpt>
      <trkpt lat="37.04809" lon="28.24726">
        <ele>266.7</ele>
      </trkpt>
      <trkpt lat="37.04808" lon="28.24726">
        <ele>266.3</ele>
      </trkpt>
      <trkpt lat="37.04802" lon="28.2473">
        <ele>264</ele>
      </trkpt>
      <trkpt lat="37.04804" lon="28.24737">
        <ele>262.6</ele>
      </trkpt>
      <trkpt lat="37.04808" lon="28.24741">
        <ele>262.7</ele>
      </trkpt>
      <trkpt lat="37.04813" lon="28.24751">
        <ele>261.1</ele>
      </trkpt>
      <trkpt lat="37.04813" lon="28.24757">
        <ele>258.9</ele>
      </trkpt>
      <trkpt lat="37.04819" lon="28.24758">
        <ele>259.7</ele>
      </trkpt>
      <trkpt lat="37.04826" lon="28.24765">
        <ele>259.1</ele>
      </trkpt>
      <trkpt lat="37.0483" lon="28.2477">
        <ele>258.6</ele>
      </trkpt>
      <trkpt lat="37.04833" lon="28.24775">
        <ele>257.9</ele>
      </trkpt>
      <trkpt lat="37.04838" lon="28.24785">
        <ele>256</ele>
      </trkpt>
      <trkpt lat="37.04842" lon="28.24789">
        <ele>255.5</ele>
      </trkpt>
      <trkpt lat="37.04842" lon="28.24789">
        <ele>255.5</ele>
      </trkpt>
      <trkpt lat="37.04846" lon="28.24791">
        <ele>256</ele>
      </trkpt>
      <trkpt lat="37.04852" lon="28.24791">
        <ele>257.7</ele>
      </trkpt>
      <trkpt lat="37.04858" lon="28.24789">
        <ele>259.7</ele>
      </trkpt>
      <trkpt lat="37.04863" lon="28.24787">
        <ele>261.7</ele>
      </trkpt>
      <trkpt lat="37.04868" lon="28.2479">
        <ele>262.1</ele>
      </trkpt>
      <trkpt lat="37.04873" lon="28.24795">
        <ele>262.1</ele>
      </trkpt>
      <trkpt lat="37.04876" lon="28.24796">
        <ele>262.8</ele>
      </trkpt>
      <trkpt lat="37.04869" lon="28.24793">
        <ele>261.7</ele>
      </trkpt>
      <trkpt lat="37.04865" lon="28.24791">
        <ele>260.9</ele>
      </trkpt>
      <trkpt lat="37.04859" lon="28.24793">
        <ele>258.8</ele>
      </trkpt>
      <trkpt lat="37.04853" lon="28.24797">
        <ele>256</ele>
      </trkpt>
      <trkpt lat="37.04849" lon="28.24801">
        <ele>253.8</ele>
      </trkpt>
      <trkpt lat="37.04845" lon="28.24807">
        <ele>251.1</ele>
      </trkpt>
      <trkpt lat="37.04838" lon="28.24806">
        <ele>249</ele>
      </trkpt>
      <trkpt lat="37.04832" lon="28.24809">
        <ele>246.3</ele>
      </trkpt>
      <trkpt lat="37.04829" lon="28.24816">
        <ele>243.4</ele>
      </trkpt>
      <trkpt lat="37.04824" lon="28.2482">
        <ele>240.4</ele>
      </trkpt>
      <trkpt lat="37.04818" lon="28.24826">
        <ele>236</ele>
      </trkpt>
      <trkpt lat="37.04813" lon="28.24835">
        <ele>231.6</ele>
      </trkpt>
      <trkpt lat="37.04806" lon="28.2484">
        <ele>229.7</ele>
      </trkpt>
      <trkpt lat="37.04801" lon="28.2484">
        <ele>228</ele>
      </trkpt>
      <trkpt lat="37.04797" lon="28.24844">
        <ele>226.6</ele>
      </trkpt>
      <trkpt lat="37.04792" lon="28.2485">
        <ele>225.7</ele>
      </trkpt>
      <trkpt lat="37.04789" lon="28.24856">
        <ele>225.3</ele>
      </trkpt>
      <trkpt lat="37.04786" lon="28.24854">
        <ele>223.8</ele>
      </trkpt>
      <trkpt lat="37.04783" lon="28.24859">
        <ele>223.3</ele>
      </trkpt>
      <trkpt lat="37.04782" lon="28.24863">
        <ele>223.5</ele>
      </trkpt>
      <trkpt lat="37.04781" lon="28.2487">
        <ele>223.7</ele>
      </trkpt>
      <trkpt lat="37.04779" lon="28.24876">
        <ele>223.9</ele>
      </trkpt>
      <trkpt lat="37.04774" lon="28.24885">
        <ele>222.7</ele>
      </trkpt>
      <trkpt lat="37.04771" lon="28.2489">
        <ele>222.1</ele>
      </trkpt>
      <trkpt lat="37.04768" lon="28.24898">
        <ele>221.9</ele>
      </trkpt>
      <trkpt lat="37.04769" lon="28.24906">
        <ele>223.4</ele>
      </trkpt>
      <trkpt lat="37.04765" lon="28.2491">
        <ele>222.2</ele>
      </trkpt>
      <trkpt lat="37.04761" lon="28.24916">
        <ele>221.4</ele>
      </trkpt>
      <trkpt lat="37.04756" lon="28.24919">
        <ele>219.5</ele>
      </trkpt>
      <trkpt lat="37.04753" lon="28.24923">
        <ele>218</ele>
      </trkpt>
      <trkpt lat="37.04753" lon="28.24923">
        <ele>218</ele>
      </trkpt>
      <trkpt lat="37.04751" lon="28.24929">
        <ele>217.1</ele>
      </trkpt>
      <trkpt lat="37.04747" lon="28.24933">
        <ele>215.4</ele>
      </trkpt>
      <trkpt lat="37.04746" lon="28.24939">
        <ele>214.8</ele>
      </trkpt>
      <trkpt lat="37.04743" lon="28.24948">
        <ele>213.4</ele>
      </trkpt>
      <trkpt lat="37.0474" lon="28.24959">
        <ele>212.1</ele>
      </trkpt>
      <trkpt lat="37.04737" lon="28.2497">
        <ele>210.6</ele>
      </trkpt>
      <trkpt lat="37.04739" lon="28.24979">
        <ele>211.5</ele>
      </trkpt>
      <trkpt lat="37.04738" lon="28.2499">
        <ele>211.2</ele>
      </trkpt>
      <trkpt lat="37.04737" lon="28.25003">
        <ele>210.8</ele>
      </trkpt>
      <trkpt lat="37.04734" lon="28.25013">
        <ele>210</ele>
      </trkpt>
      <trkpt lat="37.04729" lon="28.25021">
        <ele>208.4</ele>
      </trkpt>
      <trkpt lat="37.04728" lon="28.25029">
        <ele>208.2</ele>
      </trkpt>
      <trkpt lat="37.04724" lon="28.25036">
        <ele>207.2</ele>
      </trkpt>
      <trkpt lat="37.0472" lon="28.2504">
        <ele>205.6</ele>
      </trkpt>
      <trkpt lat="37.04713" lon="28.25046">
        <ele>203.4</ele>
      </trkpt>
      <trkpt lat="37.0471" lon="28.25058">
        <ele>202.7</ele>
      </trkpt>
      <trkpt lat="37.04707" lon="28.25063">
        <ele>202.1</ele>
      </trkpt>
      <trkpt lat="37.04704" lon="28.25067">
        <ele>201</ele>
      </trkpt>
      <trkpt lat="37.04703" lon="28.25075">
        <ele>201.1</ele>
      </trkpt>
      <trkpt lat="37.04697" lon="28.25078">
        <ele>199.3</ele>
      </trkpt>
      <trkpt lat="37.04695" lon="28.25084">
        <ele>198.6</ele>
      </trkpt>
      <trkpt lat="37.04689" lon="28.25092">
        <ele>195.7</ele>
      </trkpt>
      <trkpt lat="37.04684" lon="28.25103">
        <ele>192.7</ele>
      </trkpt>
      <trkpt lat="37.04681" lon="28.25108">
        <ele>191.3</ele>
      </trkpt>
      <trkpt lat="37.04681" lon="28.25108">
        <ele>191.3</ele>
      </trkpt>
      <trkpt lat="37.0468" lon="28.25111">
        <ele>190.7</ele>
      </trkpt>
      <trkpt lat="37.04683" lon="28.25117">
        <ele>191.1</ele>
      </trkpt>
      <trkpt lat="37.04691" lon="28.25124">
        <ele>193.2</ele>
      </trkpt>
      <trkpt lat="37.04695" lon="28.25128">
        <ele>194</ele>
      </trkpt>
      <trkpt lat="37.047" lon="28.25136">
        <ele>194.8</ele>
      </trkpt>
      <trkpt lat="37.04705" lon="28.25143">
        <ele>195.8</ele>
      </trkpt>
      <trkpt lat="37.04706" lon="28.25152">
        <ele>195.1</ele>
      </trkpt>
      <trkpt lat="37.0471" lon="28.25159">
        <ele>195.8</ele>
      </trkpt>
      <trkpt lat="37.04715" lon="28.25167">
        <ele>196.8</ele>
      </trkpt>
      <trkpt lat="37.04719" lon="28.25172">
        <ele>197.1</ele>
      </trkpt>
      <trkpt lat="37.04727" lon="28.25177">
        <ele>199.1</ele>
      </trkpt>
      <trkpt lat="37.04731" lon="28.25186">
        <ele>199.1</ele>
      </trkpt>
      <trkpt lat="37.04736" lon="28.25195">
        <ele>199.5</ele>
      </trkpt>
      <trkpt lat="37.0474" lon="28.25202">
        <ele>200.1</ele>
      </trkpt>
      <trkpt lat="37.04749" lon="28.25208">
        <ele>203</ele>
      </trkpt>
      <trkpt lat="37.04751" lon="28.25213">
        <ele>203.4</ele>
      </trkpt>
      <trkpt lat="37.04748" lon="28.25217">
        <ele>201.4</ele>
      </trkpt>
      <trkpt lat="37.04747" lon="28.25224">
        <ele>200.2</ele>
      </trkpt>
      <trkpt lat="37.04749" lon="28.25234">
        <ele>199.4</ele>
      </trkpt>
      <trkpt lat="37.04749" lon="28.25243">
        <ele>198.2</ele>
      </trkpt>
      <trkpt lat="37.0475" lon="28.25249">
        <ele>197.8</ele>
      </trkpt>
      <trkpt lat="37.04744" lon="28.25251">
        <ele>195</ele>
      </trkpt>
      <trkpt lat="37.04739" lon="28.25253">
        <ele>192.1</ele>
      </trkpt>
      <trkpt lat="37.04735" lon="28.25257">
        <ele>189.6</ele>
      </trkpt>
      <trkpt lat="37.04737" lon="28.25266">
        <ele>190.4</ele>
      </trkpt>
      <trkpt lat="37.04738" lon="28.2527">
        <ele>190.7</ele>
      </trkpt>
      <trkpt lat="37.04741" lon="28.25275">
        <ele>192</ele>
      </trkpt>
      <trkpt lat="37.04741" lon="28.25275">
        <ele>192</ele>
      </trkpt>
      <trkpt lat="37.04741" lon="28.25275">
        <ele>192</ele>
      </trkpt>
      <trkpt lat="37.04741" lon="28.25275">
        <ele>192</ele>
      </trkpt>
      <trkpt lat="37.04741" lon="28.25275">
        <ele>192</ele>
      </trkpt>
      <trkpt lat="37.04741" lon="28.25275">
        <ele>192</ele>
      </trkpt>
      <trkpt lat="37.04741" lon="28.25275">
        <ele>192</ele>
      </trkpt>
      <trkpt lat="37.04741" lon="28.25275">
        <ele>192</ele>
      </trkpt>
      <trkpt lat="37.0474" lon="28.25272">
        <ele>191.5</ele>
      </trkpt>
      <trkpt lat="37.0474" lon="28.25272">
        <ele>191.5</ele>
      </trkpt>
      <trkpt lat="37.0474" lon="28.25272">
        <ele>191.5</ele>
      </trkpt>
      <trkpt lat="37.0474" lon="28.25272">
        <ele>191.5</ele>
      </trkpt>
      <trkpt lat="37.0474" lon="28.25272">
        <ele>191.5</ele>
      </trkpt>
      <trkpt lat="37.0474" lon="28.25272">
        <ele>191.5</ele>
      </trkpt>
      <trkpt lat="37.0474" lon="28.25272">
        <ele>191.5</ele>
      </trkpt>
      <trkpt lat="37.0474" lon="28.25272">
        <ele>191.5</ele>
      </trkpt>
      <trkpt lat="37.0474" lon="28.25272">
        <ele>191.5</ele>
      </trkpt>
      <trkpt lat="37.0474" lon="28.25272">
        <ele>191.5</ele>
      </trkpt>
      <trkpt lat="37.0474" lon="28.25272">
        <ele>191.5</ele>
      </trkpt>
      <trkpt lat="37.0474" lon="28.25272">
        <ele>191.5</ele>
      </trkpt>
      <trkpt lat="37.0474" lon="28.25272">
        <ele>191.5</ele>
      </trkpt>
      <trkpt lat="37.0474" lon="28.25272">
        <ele>191.5</ele>
      </trkpt>
      <trkpt lat="37.0474" lon="28.25272">
        <ele>191.5</ele>
      </trkpt>
      <trkpt lat="37.0474" lon="28.25272">
        <ele>191.5</ele>
      </trkpt>
      <trkpt lat="37.0474" lon="28.25272">
        <ele>191.5</ele>
      </trkpt>
      <trkpt lat="37.0474" lon="28.25272">
        <ele>191.5</ele>
      </trkpt>
      <trkpt lat="37.0474" lon="28.25272">
        <ele>191.5</ele>
      </trkpt>
      <trkpt lat="37.0474" lon="28.25272">
        <ele>191.5</ele>
      </trkpt>
      <trkpt lat="37.0474" lon="28.25272">
        <ele>191.5</ele>
      </trkpt>
      <trkpt lat="37.0474" lon="28.25272">
        <ele>191.5</ele>
      </trkpt>
      <trkpt lat="37.0474" lon="28.25272">
        <ele>191.5</ele>
      </trkpt>
      <trkpt lat="37.0474" lon="28.25272">
        <ele>191.5</ele>
      </trkpt>
      <trkpt lat="37.0474" lon="28.25272">
        <ele>191.5</ele>
      </trkpt>
      <trkpt lat="37.0474" lon="28.25272">
        <ele>191.5</ele>
      </trkpt>
      <trkpt lat="37.04739" lon="28.25272">
        <ele>190.8</ele>
      </trkpt>
      <trkpt lat="37.04739" lon="28.25272">
        <ele>190.8</ele>
      </trkpt>
      <trkpt lat="37.04739" lon="28.25272">
        <ele>190.8</ele>
      </trkpt>
      <trkpt lat="37.04739" lon="28.25272">
        <ele>190.8</ele>
      </trkpt>
      <trkpt lat="37.04739" lon="28.25272">
        <ele>190.8</ele>
      </trkpt>
      <trkpt lat="37.04739" lon="28.25272">
        <ele>190.8</ele>
      </trkpt>
      <trkpt lat="37.04739" lon="28.25272">
        <ele>190.8</ele>
      </trkpt>
      <trkpt lat="37.04738" lon="28.25274">
        <ele>190.2</ele>
      </trkpt>
      <trkpt lat="37.04738" lon="28.25274">
        <ele>190.2</ele>
      </trkpt>
      <trkpt lat="37.04738" lon="28.25274">
        <ele>190.2</ele>
      </trkpt>
      <trkpt lat="37.04738" lon="28.25274">
        <ele>190.2</ele>
      </trkpt>
      <trkpt lat="37.04738" lon="28.25274">
        <ele>190.2</ele>
      </trkpt>
      <trkpt lat="37.04738" lon="28.25274">
        <ele>190.2</ele>
      </trkpt>
      <trkpt lat="37.04738" lon="28.25274">
        <ele>190.2</ele>
      </trkpt>
      <trkpt lat="37.04738" lon="28.25274">
        <ele>190.2</ele>
      </trkpt>
      <trkpt lat="37.04738" lon="28.25274">
        <ele>190.2</ele>
      </trkpt>
      <trkpt lat="37.04737" lon="28.25272">
        <ele>190</ele>
      </trkpt>
      <trkpt lat="37.04737" lon="28.25272">
        <ele>190</ele>
      </trkpt>
      <trkpt lat="37.04737" lon="28.25272">
        <ele>190</ele>
      </trkpt>
      <trkpt lat="37.04737" lon="28.25272">
        <ele>190</ele>
      </trkpt>
      <trkpt lat="37.04737" lon="28.25272">
        <ele>190</ele>
      </trkpt>
      <trkpt lat="37.04737" lon="28.25272">
        <ele>190</ele>
      </trkpt>
      <trkpt lat="37.04737" lon="28.25272">
        <ele>190</ele>
      </trkpt>
      <trkpt lat="37.04737" lon="28.25272">
        <ele>190</ele>
      </trkpt>
      <trkpt lat="37.04737" lon="28.25272">
        <ele>190</ele>
      </trkpt>
      <trkpt lat="37.04737" lon="28.25272">
        <ele>190</ele>
      </trkpt>
      <trkpt lat="37.04737" lon="28.25272">
        <ele>190</ele>
      </trkpt>
      <trkpt lat="37.04737" lon="28.25272">
        <ele>190</ele>
      </trkpt>
      <trkpt lat="37.04737" lon="28.25272">
        <ele>190</ele>
      </trkpt>
      <trkpt lat="37.04735" lon="28.25275">
        <ele>188.5</ele>
      </trkpt>
      <trkpt lat="37.04735" lon="28.25275">
        <ele>188.5</ele>
      </trkpt>
      <trkpt lat="37.04735" lon="28.25275">
        <ele>188.5</ele>
      </trkpt>
      <trkpt lat="37.04735" lon="28.25275">
        <ele>188.5</ele>
      </trkpt>
      <trkpt lat="37.04735" lon="28.25275">
        <ele>188.5</ele>
      </trkpt>
      <trkpt lat="37.04735" lon="28.25275">
        <ele>188.5</ele>
      </trkpt>
      <trkpt lat="37.04735" lon="28.25275">
        <ele>188.5</ele>
      </trkpt>
      <trkpt lat="37.04735" lon="28.25275">
        <ele>188.5</ele>
      </trkpt>
      <trkpt lat="37.04735" lon="28.25275">
        <ele>188.5</ele>
      </trkpt>
      <trkpt lat="37.04735" lon="28.25275">
        <ele>188.5</ele>
      </trkpt>
      <trkpt lat="37.04735" lon="28.25275">
        <ele>188.5</ele>
      </trkpt>
      <trkpt lat="37.04735" lon="28.25275">
        <ele>188.5</ele>
      </trkpt>
      <trkpt lat="37.04735" lon="28.25275">
        <ele>188.5</ele>
      </trkpt>
      <trkpt lat="37.04735" lon="28.25275">
        <ele>188.5</ele>
      </trkpt>
      <trkpt lat="37.04735" lon="28.25275">
        <ele>188.5</ele>
      </trkpt>
      <trkpt lat="37.04735" lon="28.25275">
        <ele>188.5</ele>
      </trkpt>
      <trkpt lat="37.04735" lon="28.25275">
        <ele>188.5</ele>
      </trkpt>
      <trkpt lat="37.04735" lon="28.25275">
        <ele>188.5</ele>
      </trkpt>
      <trkpt lat="37.04735" lon="28.25275">
        <ele>188.5</ele>
      </trkpt>
      <trkpt lat="37.04735" lon="28.25275">
        <ele>188.5</ele>
      </trkpt>
      <trkpt lat="37.04735" lon="28.25275">
        <ele>188.5</ele>
      </trkpt>
      <trkpt lat="37.04735" lon="28.25275">
        <ele>188.5</ele>
      </trkpt>
      <trkpt lat="37.04735" lon="28.25275">
        <ele>188.5</ele>
      </trkpt>
      <trkpt lat="37.04735" lon="28.25275">
        <ele>188.5</ele>
      </trkpt>
      <trkpt lat="37.04735" lon="28.25275">
        <ele>188.5</ele>
      </trkpt>
      <trkpt lat="37.04735" lon="28.25275">
        <ele>188.5</ele>
      </trkpt>
      <trkpt lat="37.04735" lon="28.25275">
        <ele>188.5</ele>
      </trkpt>
      <trkpt lat="37.04735" lon="28.25275">
        <ele>188.5</ele>
      </trkpt>
      <trkpt lat="37.04735" lon="28.25275">
        <ele>188.5</ele>
      </trkpt>
      <trkpt lat="37.04735" lon="28.25275">
        <ele>188.5</ele>
      </trkpt>
      <trkpt lat="37.04735" lon="28.25275">
        <ele>188.5</ele>
      </trkpt>
      <trkpt lat="37.04735" lon="28.25275">
        <ele>188.5</ele>
      </trkpt>
      <trkpt lat="37.04735" lon="28.25275">
        <ele>188.5</ele>
      </trkpt>
      <trkpt lat="37.04735" lon="28.25275">
        <ele>188.5</ele>
      </trkpt>
      <trkpt lat="37.04735" lon="28.25275">
        <ele>188.5</ele>
      </trkpt>
      <trkpt lat="37.04735" lon="28.25275">
        <ele>188.5</ele>
      </trkpt>
      <trkpt lat="37.04735" lon="28.25275">
        <ele>188.5</ele>
      </trkpt>
      <trkpt lat="37.04735" lon="28.25275">
        <ele>188.5</ele>
      </trkpt>
      <trkpt lat="37.04735" lon="28.25275">
        <ele>188.5</ele>
      </trkpt>
      <trkpt lat="37.04735" lon="28.25275">
        <ele>188.5</ele>
      </trkpt>
      <trkpt lat="37.04735" lon="28.25275">
        <ele>188.5</ele>
      </trkpt>
      <trkpt lat="37.04735" lon="28.25275">
        <ele>188.5</ele>
      </trkpt>
      <trkpt lat="37.04735" lon="28.25275">
        <ele>188.5</ele>
      </trkpt>
      <trkpt lat="37.04735" lon="28.25275">
        <ele>188.5</ele>
      </trkpt>
      <trkpt lat="37.04735" lon="28.25275">
        <ele>188.5</ele>
      </trkpt>
      <trkpt lat="37.04735" lon="28.25275">
        <ele>188.5</ele>
      </trkpt>
      <trkpt lat="37.04735" lon="28.25275">
        <ele>188.5</ele>
      </trkpt>
      <trkpt lat="37.04735" lon="28.25275">
        <ele>188.5</ele>
      </trkpt>
      <trkpt lat="37.04735" lon="28.25275">
        <ele>188.5</ele>
      </trkpt>
      <trkpt lat="37.04735" lon="28.25272">
        <ele>189</ele>
      </trkpt>
      <trkpt lat="37.04735" lon="28.25272">
        <ele>189</ele>
      </trkpt>
      <trkpt lat="37.04735" lon="28.2527">
        <ele>189.2</ele>
      </trkpt>
      <trkpt lat="37.04735" lon="28.2527">
        <ele>189.2</ele>
      </trkpt>
      <trkpt lat="37.04737" lon="28.25271">
        <ele>189.7</ele>
      </trkpt>
      <trkpt lat="37.04737" lon="28.25271">
        <ele>189.7</ele>
      </trkpt>
      <trkpt lat="37.04735" lon="28.25272">
        <ele>188.6</ele>
      </trkpt>
      <trkpt lat="37.04734" lon="28.25266">
        <ele>188.6</ele>
      </trkpt>
      <trkpt lat="37.04733" lon="28.25273">
        <ele>187.7</ele>
      </trkpt>
      <trkpt lat="37.04731" lon="28.25281">
        <ele>186.1</ele>
      </trkpt>
      <trkpt lat="37.04733" lon="28.25287">
        <ele>186.3</ele>
      </trkpt>
      <trkpt lat="37.04734" lon="28.25296">
        <ele>186.2</ele>
      </trkpt>
      <trkpt lat="37.04734" lon="28.25306">
        <ele>185.6</ele>
      </trkpt>
      <trkpt lat="37.04736" lon="28.25313">
        <ele>186.5</ele>
      </trkpt>
      <trkpt lat="37.04739" lon="28.25321">
        <ele>187.5</ele>
      </trkpt>
      <trkpt lat="37.04744" lon="28.25326">
        <ele>190.1</ele>
      </trkpt>
      <trkpt lat="37.04747" lon="28.25331">
        <ele>191.6</ele>
      </trkpt>
      <trkpt lat="37.0475" lon="28.25337">
        <ele>191.7</ele>
      </trkpt>
      <trkpt lat="37.04755" lon="28.25339">
        <ele>192.4</ele>
      </trkpt>
      <trkpt lat="37.04759" lon="28.25342">
        <ele>192.2</ele>
      </trkpt>
      <trkpt lat="37.04765" lon="28.25345">
        <ele>193.2</ele>
      </trkpt>
      <trkpt lat="37.04771" lon="28.25354">
        <ele>191.3</ele>
      </trkpt>
      <trkpt lat="37.04774" lon="28.25361">
        <ele>189.7</ele>
      </trkpt>
      <trkpt lat="37.0478" lon="28.25363">
        <ele>190.3</ele>
      </trkpt>
      <trkpt lat="37.04784" lon="28.25363">
        <ele>191.5</ele>
      </trkpt>
      <trkpt lat="37.04789" lon="28.25363">
        <ele>192.7</ele>
      </trkpt>
      <trkpt lat="37.04795" lon="28.25368">
        <ele>192.4</ele>
      </trkpt>
      <trkpt lat="37.04803" lon="28.25369">
        <ele>194</ele>
      </trkpt>
      <trkpt lat="37.0481" lon="28.2537">
        <ele>195.5</ele>
      </trkpt>
      <trkpt lat="37.04816" lon="28.25376">
        <ele>194.6</ele>
      </trkpt>
      <trkpt lat="37.0482" lon="28.2538">
        <ele>194</ele>
      </trkpt>
      <trkpt lat="37.04829" lon="28.25388">
        <ele>193.1</ele>
      </trkpt>
      <trkpt lat="37.04833" lon="28.25391">
        <ele>192.5</ele>
      </trkpt>
      <trkpt lat="37.04833" lon="28.25397">
        <ele>190</ele>
      </trkpt>
      <trkpt lat="37.04831" lon="28.25404">
        <ele>186.6</ele>
      </trkpt>
      <trkpt lat="37.04826" lon="28.25416">
        <ele>180.6</ele>
      </trkpt>
      <trkpt lat="37.04819" lon="28.25417">
        <ele>178.8</ele>
      </trkpt>
      <trkpt lat="37.0481" lon="28.25421">
        <ele>177.5</ele>
      </trkpt>
      <trkpt lat="37.04804" lon="28.25426">
        <ele>177</ele>
      </trkpt>
      <trkpt lat="37.04799" lon="28.2543">
        <ele>176.5</ele>
      </trkpt>
      <trkpt lat="37.04792" lon="28.25434">
        <ele>175.5</ele>
      </trkpt>
      <trkpt lat="37.04784" lon="28.25441">
        <ele>174.8</ele>
      </trkpt>
      <trkpt lat="37.04778" lon="28.25448">
        <ele>174.6</ele>
      </trkpt>
      <trkpt lat="37.04772" lon="28.25449">
        <ele>173.5</ele>
      </trkpt>
      <trkpt lat="37.04771" lon="28.25458">
        <ele>174.6</ele>
      </trkpt>
      <trkpt lat="37.04775" lon="28.25463">
        <ele>176.4</ele>
      </trkpt>
      <trkpt lat="37.04775" lon="28.25467">
        <ele>177.1</ele>
      </trkpt>
      <trkpt lat="37.04775" lon="28.25467">
        <ele>177.1</ele>
      </trkpt>
      <trkpt lat="37.04773" lon="28.25472">
        <ele>177.3</ele>
      </trkpt>
      <trkpt lat="37.04775" lon="28.25478">
        <ele>178.9</ele>
      </trkpt>
      <trkpt lat="37.04771" lon="28.25478">
        <ele>177.8</ele>
      </trkpt>
      <trkpt lat="37.04767" lon="28.25485">
        <ele>178</ele>
      </trkpt>
      <trkpt lat="37.04763" lon="28.25492">
        <ele>178.1</ele>
      </trkpt>
      <trkpt lat="37.04761" lon="28.25501">
        <ele>178.9</ele>
      </trkpt>
      <trkpt lat="37.04763" lon="28.25506">
        <ele>179.5</ele>
      </trkpt>
      <trkpt lat="37.04765" lon="28.25512">
        <ele>180.1</ele>
      </trkpt>
      <trkpt lat="37.04766" lon="28.25518">
        <ele>180.4</ele>
      </trkpt>
      <trkpt lat="37.04767" lon="28.25525">
        <ele>180.8</ele>
      </trkpt>
      <trkpt lat="37.04771" lon="28.25531">
        <ele>181.8</ele>
      </trkpt>
      <trkpt lat="37.04775" lon="28.25536">
        <ele>182.8</ele>
      </trkpt>
      <trkpt lat="37.04777" lon="28.25538">
        <ele>183.5</ele>
      </trkpt>
      <trkpt lat="37.04781" lon="28.25541">
        <ele>184.5</ele>
      </trkpt>
      <trkpt lat="37.0478" lon="28.25547">
        <ele>184.4</ele>
      </trkpt>
      <trkpt lat="37.04781" lon="28.25559">
        <ele>184.5</ele>
      </trkpt>
      <trkpt lat="37.0478" lon="28.25566">
        <ele>184.5</ele>
      </trkpt>
      <trkpt lat="37.0478" lon="28.25573">
        <ele>184.5</ele>
      </trkpt>
      <trkpt lat="37.04776" lon="28.25579">
        <ele>183.6</ele>
      </trkpt>
      <trkpt lat="37.04771" lon="28.25585">
        <ele>182.3</ele>
      </trkpt>
      <trkpt lat="37.04766" lon="28.2559">
        <ele>180.6</ele>
      </trkpt>
      <trkpt lat="37.0476" lon="28.25599">
        <ele>178.6</ele>
      </trkpt>
      <trkpt lat="37.04755" lon="28.25602">
        <ele>177.4</ele>
      </trkpt>
      <trkpt lat="37.04747" lon="28.25604">
        <ele>176</ele>
      </trkpt>
      <trkpt lat="37.04739" lon="28.25605">
        <ele>175.8</ele>
      </trkpt>
      <trkpt lat="37.04731" lon="28.25604">
        <ele>175.7</ele>
      </trkpt>
      <trkpt lat="37.04721" lon="28.25605">
        <ele>175.5</ele>
      </trkpt>
      <trkpt lat="37.04712" lon="28.25609">
        <ele>175.1</ele>
      </trkpt>
      <trkpt lat="37.04714" lon="28.25619">
        <ele>174.8</ele>
      </trkpt>
      <trkpt lat="37.04713" lon="28.25631">
        <ele>174.3</ele>
      </trkpt>
      <trkpt lat="37.04713" lon="28.25637">
        <ele>174.1</ele>
      </trkpt>
      <trkpt lat="37.04712" lon="28.25638">
        <ele>174.1</ele>
      </trkpt>
      <trkpt lat="37.0471" lon="28.25643">
        <ele>173.9</ele>
      </trkpt>
      <trkpt lat="37.04709" lon="28.25649">
        <ele>173.7</ele>
      </trkpt>
      <trkpt lat="37.04708" lon="28.2566">
        <ele>173.2</ele>
      </trkpt>
      <trkpt lat="37.04711" lon="28.2567">
        <ele>172.7</ele>
      </trkpt>
      <trkpt lat="37.04718" lon="28.25679">
        <ele>172.1</ele>
      </trkpt>
      <trkpt lat="37.04725" lon="28.25687">
        <ele>171.5</ele>
      </trkpt>
      <trkpt lat="37.04733" lon="28.25694">
        <ele>171</ele>
      </trkpt>
      <trkpt lat="37.04739" lon="28.25702">
        <ele>170.4</ele>
      </trkpt>
      <trkpt lat="37.04744" lon="28.25713">
        <ele>169.7</ele>
      </trkpt>
      <trkpt lat="37.04748" lon="28.25724">
        <ele>168.9</ele>
      </trkpt>
      <trkpt lat="37.04752" lon="28.25735">
        <ele>168.6</ele>
      </trkpt>
      <trkpt lat="37.04757" lon="28.25744">
        <ele>169.3</ele>
      </trkpt>
      <trkpt lat="37.04761" lon="28.25755">
        <ele>169.8</ele>
      </trkpt>
      <trkpt lat="37.04763" lon="28.25767">
        <ele>169.7</ele>
      </trkpt>
      <trkpt lat="37.04765" lon="28.25778">
        <ele>169.7</ele>
      </trkpt>
      <trkpt lat="37.04767" lon="28.2579">
        <ele>169.6</ele>
      </trkpt>
      <trkpt lat="37.04773" lon="28.25799">
        <ele>170.6</ele>
      </trkpt>
      <trkpt lat="37.04778" lon="28.25809">
        <ele>171.4</ele>
      </trkpt>
      <trkpt lat="37.04782" lon="28.2582">
        <ele>171.9</ele>
      </trkpt>
      <trkpt lat="37.04785" lon="28.25831">
        <ele>171.9</ele>
      </trkpt>
      <trkpt lat="37.04789" lon="28.25841">
        <ele>172</ele>
      </trkpt>
      <trkpt lat="37.04794" lon="28.25852">
        <ele>171.9</ele>
      </trkpt>
      <trkpt lat="37.04798" lon="28.25862">
        <ele>171.8</ele>
      </trkpt>
      <trkpt lat="37.04806" lon="28.25866">
        <ele>173.1</ele>
      </trkpt>
      <trkpt lat="37.04814" lon="28.25868">
        <ele>174.7</ele>
      </trkpt>
      <trkpt lat="37.0482" lon="28.25873">
        <ele>175.6</ele>
      </trkpt>
      <trkpt lat="37.04825" lon="28.2588">
        <ele>175.8</ele>
      </trkpt>
      <trkpt lat="37.04828" lon="28.25884">
        <ele>176</ele>
      </trkpt>
      <trkpt lat="37.04826" lon="28.25891">
        <ele>174.8</ele>
      </trkpt>
      <trkpt lat="37.0483" lon="28.25901">
        <ele>174.3</ele>
      </trkpt>
      <trkpt lat="37.04834" lon="28.25909">
        <ele>174.4</ele>
      </trkpt>
      <trkpt lat="37.04838" lon="28.25918">
        <ele>175.2</ele>
      </trkpt>
      <trkpt lat="37.04846" lon="28.25926">
        <ele>177.6</ele>
      </trkpt>
      <trkpt lat="37.04849" lon="28.2593">
        <ele>178.6</ele>
      </trkpt>
      <trkpt lat="37.04852" lon="28.25938">
        <ele>179.2</ele>
      </trkpt>
      <trkpt lat="37.04857" lon="28.25946">
        <ele>180.5</ele>
      </trkpt>
      <trkpt lat="37.04862" lon="28.25955">
        <ele>181.9</ele>
      </trkpt>
      <trkpt lat="37.04866" lon="28.25962">
        <ele>182.8</ele>
      </trkpt>
      <trkpt lat="37.04868" lon="28.25971">
        <ele>182.7</ele>
      </trkpt>
      <trkpt lat="37.04869" lon="28.25978">
        <ele>182.3</ele>
      </trkpt>
      <trkpt lat="37.04871" lon="28.25987">
        <ele>182.1</ele>
      </trkpt>
      <trkpt lat="37.0487" lon="28.25995">
        <ele>180.9</ele>
      </trkpt>
      <trkpt lat="37.04873" lon="28.25994">
        <ele>182.5</ele>
      </trkpt>
      <trkpt lat="37.04873" lon="28.25994">
        <ele>182.5</ele>
      </trkpt>
      <trkpt lat="37.04873" lon="28.25994">
        <ele>182.5</ele>
      </trkpt>
      <trkpt lat="37.04873" lon="28.25994">
        <ele>182.5</ele>
      </trkpt>
      <trkpt lat="37.04873" lon="28.25994">
        <ele>182.5</ele>
      </trkpt>
      <trkpt lat="37.04875" lon="28.25996">
        <ele>182.9</ele>
      </trkpt>
      <trkpt lat="37.04876" lon="28.25999">
        <ele>183</ele>
      </trkpt>
      <trkpt lat="37.0488" lon="28.26002">
        <ele>184.3</ele>
      </trkpt>
      <trkpt lat="37.04886" lon="28.26011">
        <ele>185.6</ele>
      </trkpt>
      <trkpt lat="37.04891" lon="28.26015">
        <ele>187.2</ele>
      </trkpt>
      <trkpt lat="37.04898" lon="28.26022">
        <ele>189.4</ele>
      </trkpt>
      <trkpt lat="37.04901" lon="28.26027">
        <ele>189.9</ele>
      </trkpt>
      <trkpt lat="37.04903" lon="28.26034">
        <ele>189.9</ele>
      </trkpt>
      <trkpt lat="37.04904" lon="28.26043">
        <ele>189.5</ele>
      </trkpt>
      <trkpt lat="37.04903" lon="28.26052">
        <ele>187.5</ele>
      </trkpt>
      <trkpt lat="37.04903" lon="28.26058">
        <ele>186.8</ele>
      </trkpt>
      <trkpt lat="37.04907" lon="28.26063">
        <ele>187.7</ele>
      </trkpt>
      <trkpt lat="37.04907" lon="28.26063">
        <ele>187.7</ele>
      </trkpt>
      <trkpt lat="37.04907" lon="28.26063">
        <ele>187.7</ele>
      </trkpt>
      <trkpt lat="37.04907" lon="28.26063">
        <ele>187.7</ele>
      </trkpt>
      <trkpt lat="37.04907" lon="28.26063">
        <ele>187.7</ele>
      </trkpt>
      <trkpt lat="37.04907" lon="28.26063">
        <ele>187.7</ele>
      </trkpt>
      <trkpt lat="37.04907" lon="28.26063">
        <ele>187.7</ele>
      </trkpt>
      <trkpt lat="37.04907" lon="28.26063">
        <ele>187.7</ele>
      </trkpt>
      <trkpt lat="37.04911" lon="28.26067">
        <ele>189</ele>
      </trkpt>
      <trkpt lat="37.04917" lon="28.26067">
        <ele>191.1</ele>
      </trkpt>
      <trkpt lat="37.04919" lon="28.26075">
        <ele>191.4</ele>
      </trkpt>
      <trkpt lat="37.04923" lon="28.26084">
        <ele>191.8</ele>
      </trkpt>
      <trkpt lat="37.04926" lon="28.26089">
        <ele>192.4</ele>
      </trkpt>
      <trkpt lat="37.04927" lon="28.26098">
        <ele>191.3</ele>
      </trkpt>
      <trkpt lat="37.04929" lon="28.26108">
        <ele>190.1</ele>
      </trkpt>
      <trkpt lat="37.04932" lon="28.26115">
        <ele>190.6</ele>
      </trkpt>
      <trkpt lat="37.04935" lon="28.26121">
        <ele>191</ele>
      </trkpt>
      <trkpt lat="37.04934" lon="28.26128">
        <ele>189.3</ele>
      </trkpt>
      <trkpt lat="37.04937" lon="28.26138">
        <ele>189</ele>
      </trkpt>
      <trkpt lat="37.04944" lon="28.26146">
        <ele>191</ele>
      </trkpt>
      <trkpt lat="37.0495" lon="28.26151">
        <ele>193.1</ele>
      </trkpt>
      <trkpt lat="37.04958" lon="28.26157">
        <ele>196.5</ele>
      </trkpt>
      <trkpt lat="37.04965" lon="28.2616">
        <ele>199.4</ele>
      </trkpt>
      <trkpt lat="37.04969" lon="28.26165">
        <ele>200.7</ele>
      </trkpt>
      <trkpt lat="37.04974" lon="28.26176">
        <ele>201.6</ele>
      </trkpt>
      <trkpt lat="37.04979" lon="28.26184">
        <ele>203.1</ele>
      </trkpt>
      <trkpt lat="37.04983" lon="28.26193">
        <ele>203.6</ele>
      </trkpt>
      <trkpt lat="37.04987" lon="28.26204">
        <ele>203.9</ele>
      </trkpt>
      <trkpt lat="37.0499" lon="28.26215">
        <ele>203.5</ele>
      </trkpt>
      <trkpt lat="37.04996" lon="28.26224">
        <ele>204.7</ele>
      </trkpt>
      <trkpt lat="37.05002" lon="28.26231">
        <ele>206.5</ele>
      </trkpt>
      <trkpt lat="37.05006" lon="28.26239">
        <ele>207.1</ele>
      </trkpt>
      <trkpt lat="37.05011" lon="28.26246">
        <ele>208.1</ele>
      </trkpt>
      <trkpt lat="37.05015" lon="28.26254">
        <ele>208.8</ele>
      </trkpt>
      <trkpt lat="37.05018" lon="28.26265">
        <ele>208.9</ele>
      </trkpt>
      <trkpt lat="37.05026" lon="28.2627">
        <ele>212.2</ele>
      </trkpt>
      <trkpt lat="37.05031" lon="28.26274">
        <ele>214.5</ele>
      </trkpt>
      <trkpt lat="37.05035" lon="28.2628">
        <ele>215.3</ele>
      </trkpt>
      <trkpt lat="37.05036" lon="28.26289">
        <ele>215</ele>
      </trkpt>
      <trkpt lat="37.05043" lon="28.26298">
        <ele>216.9</ele>
      </trkpt>
      <trkpt lat="37.05045" lon="28.26308">
        <ele>216.9</ele>
      </trkpt>
      <trkpt lat="37.05046" lon="28.26318">
        <ele>216.3</ele>
      </trkpt>
      <trkpt lat="37.05048" lon="28.26327">
        <ele>216.2</ele>
      </trkpt>
      <trkpt lat="37.05049" lon="28.26336">
        <ele>215</ele>
      </trkpt>
      <trkpt lat="37.05055" lon="28.2634">
        <ele>216.2</ele>
      </trkpt>
      <trkpt lat="37.05057" lon="28.26347">
        <ele>214.6</ele>
      </trkpt>
      <trkpt lat="37.0506" lon="28.26352">
        <ele>214.7</ele>
      </trkpt>
      <trkpt lat="37.05064" lon="28.26358">
        <ele>214.6</ele>
      </trkpt>
      <trkpt lat="37.0507" lon="28.26365">
        <ele>214.7</ele>
      </trkpt>
      <trkpt lat="37.05077" lon="28.26373">
        <ele>215.4</ele>
      </trkpt>
      <trkpt lat="37.05084" lon="28.26377">
        <ele>217.3</ele>
      </trkpt>
      <trkpt lat="37.05089" lon="28.26384">
        <ele>217.1</ele>
      </trkpt>
      <trkpt lat="37.05095" lon="28.26389">
        <ele>218.1</ele>
      </trkpt>
      <trkpt lat="37.051" lon="28.26393">
        <ele>219.2</ele>
      </trkpt>
      <trkpt lat="37.05105" lon="28.26394">
        <ele>220.9</ele>
      </trkpt>
      <trkpt lat="37.05105" lon="28.26394">
        <ele>220.9</ele>
      </trkpt>
      <trkpt lat="37.05108" lon="28.264">
        <ele>220.1</ele>
      </trkpt>
      <trkpt lat="37.05113" lon="28.26399">
        <ele>222.7</ele>
      </trkpt>
      <trkpt lat="37.05118" lon="28.26401">
        <ele>224.3</ele>
      </trkpt>
      <trkpt lat="37.05124" lon="28.26402">
        <ele>226.4</ele>
      </trkpt>
      <trkpt lat="37.0513" lon="28.26405">
        <ele>227.8</ele>
      </trkpt>
      <trkpt lat="37.05136" lon="28.26412">
        <ele>227.9</ele>
      </trkpt>
      <trkpt lat="37.05142" lon="28.26421">
        <ele>228.6</ele>
      </trkpt>
      <trkpt lat="37.05151" lon="28.26422">
        <ele>232.4</ele>
      </trkpt>
      <trkpt lat="37.05158" lon="28.26419">
        <ele>235.4</ele>
      </trkpt>
      <trkpt lat="37.05163" lon="28.2642">
        <ele>237.3</ele>
      </trkpt>
      <trkpt lat="37.05168" lon="28.26425">
        <ele>239.5</ele>
      </trkpt>
      <trkpt lat="37.05169" lon="28.26432">
        <ele>240.1</ele>
      </trkpt>
      <trkpt lat="37.05171" lon="28.2644">
        <ele>241</ele>
      </trkpt>
      <trkpt lat="37.05174" lon="28.26445">
        <ele>242.9</ele>
      </trkpt>
      <trkpt lat="37.05179" lon="28.26448">
        <ele>245.3</ele>
      </trkpt>
      <trkpt lat="37.05183" lon="28.26449">
        <ele>247.7</ele>
      </trkpt>
      <trkpt lat="37.05185" lon="28.26455">
        <ele>248.9</ele>
      </trkpt>
      <trkpt lat="37.05183" lon="28.2646">
        <ele>247.5</ele>
      </trkpt>
      <trkpt lat="37.05183" lon="28.26464">
        <ele>247.8</ele>
      </trkpt>
      <trkpt lat="37.05181" lon="28.26472">
        <ele>246.8</ele>
      </trkpt>
      <trkpt lat="37.05178" lon="28.26482">
        <ele>245.6</ele>
      </trkpt>
      <trkpt lat="37.05177" lon="28.26487">
        <ele>244.8</ele>
      </trkpt>
      <trkpt lat="37.05173" lon="28.26493">
        <ele>242.4</ele>
      </trkpt>
      <trkpt lat="37.05167" lon="28.265">
        <ele>239.3</ele>
      </trkpt>
      <trkpt lat="37.05166" lon="28.26509">
        <ele>241.9</ele>
      </trkpt>
      <trkpt lat="37.0517" lon="28.26515">
        <ele>246.3</ele>
      </trkpt>
      <trkpt lat="37.05172" lon="28.26521">
        <ele>249.6</ele>
      </trkpt>
      <trkpt lat="37.05166" lon="28.26525">
        <ele>247.7</ele>
      </trkpt>
      <trkpt lat="37.05162" lon="28.26529">
        <ele>247</ele>
      </trkpt>
      <trkpt lat="37.05159" lon="28.26533">
        <ele>247.2</ele>
      </trkpt>
      <trkpt lat="37.05156" lon="28.26537">
        <ele>247.1</ele>
      </trkpt>
      <trkpt lat="37.05151" lon="28.2654">
        <ele>246.2</ele>
      </trkpt>
      <trkpt lat="37.05147" lon="28.26547">
        <ele>246.5</ele>
      </trkpt>
      <trkpt lat="37.0514" lon="28.26554">
        <ele>245.2</ele>
      </trkpt>
      <trkpt lat="37.05139" lon="28.26559">
        <ele>246.7</ele>
      </trkpt>
      <trkpt lat="37.05135" lon="28.2657">
        <ele>247.9</ele>
      </trkpt>
      <trkpt lat="37.05133" lon="28.26581">
        <ele>250.1</ele>
      </trkpt>
      <trkpt lat="37.05131" lon="28.26587">
        <ele>251.2</ele>
      </trkpt>
      <trkpt lat="37.0513" lon="28.26597">
        <ele>252.7</ele>
      </trkpt>
      <trkpt lat="37.05131" lon="28.26595">
        <ele>252.7</ele>
      </trkpt>
      <trkpt lat="37.05131" lon="28.26595">
        <ele>252.7</ele>
      </trkpt>
      <trkpt lat="37.05131" lon="28.26595">
        <ele>252.7</ele>
      </trkpt>
      <trkpt lat="37.05131" lon="28.26595">
        <ele>252.7</ele>
      </trkpt>
      <trkpt lat="37.05131" lon="28.26595">
        <ele>252.7</ele>
      </trkpt>
      <trkpt lat="37.05131" lon="28.26595">
        <ele>252.7</ele>
      </trkpt>
      <trkpt lat="37.05131" lon="28.26595">
        <ele>252.7</ele>
      </trkpt>
      <trkpt lat="37.05131" lon="28.26595">
        <ele>252.7</ele>
      </trkpt>
      <trkpt lat="37.05131" lon="28.26595">
        <ele>252.7</ele>
      </trkpt>
      <trkpt lat="37.05131" lon="28.26595">
        <ele>252.7</ele>
      </trkpt>
      <trkpt lat="37.05131" lon="28.26595">
        <ele>252.7</ele>
      </trkpt>
      <trkpt lat="37.05131" lon="28.26595">
        <ele>252.7</ele>
      </trkpt>
      <trkpt lat="37.05131" lon="28.26595">
        <ele>252.7</ele>
      </trkpt>
      <trkpt lat="37.05131" lon="28.26595">
        <ele>252.7</ele>
      </trkpt>
      <trkpt lat="37.05131" lon="28.26595">
        <ele>252.7</ele>
      </trkpt>
      <trkpt lat="37.05131" lon="28.26595">
        <ele>252.7</ele>
      </trkpt>
      <trkpt lat="37.05131" lon="28.26595">
        <ele>252.7</ele>
      </trkpt>
      <trkpt lat="37.05131" lon="28.26595">
        <ele>252.7</ele>
      </trkpt>
      <trkpt lat="37.05131" lon="28.26595">
        <ele>252.7</ele>
      </trkpt>
      <trkpt lat="37.05131" lon="28.26595">
        <ele>252.7</ele>
      </trkpt>
      <trkpt lat="37.05131" lon="28.26595">
        <ele>252.7</ele>
      </trkpt>
      <trkpt lat="37.05131" lon="28.26595">
        <ele>252.7</ele>
      </trkpt>
      <trkpt lat="37.05131" lon="28.26595">
        <ele>252.7</ele>
      </trkpt>
      <trkpt lat="37.05131" lon="28.26595">
        <ele>252.7</ele>
      </trkpt>
      <trkpt lat="37.05131" lon="28.26595">
        <ele>252.7</ele>
      </trkpt>
      <trkpt lat="37.05131" lon="28.26595">
        <ele>252.7</ele>
      </trkpt>
      <trkpt lat="37.05131" lon="28.26595">
        <ele>252.7</ele>
      </trkpt>
      <trkpt lat="37.05131" lon="28.26595">
        <ele>252.7</ele>
      </trkpt>
      <trkpt lat="37.05131" lon="28.26595">
        <ele>252.7</ele>
      </trkpt>
      <trkpt lat="37.05131" lon="28.26595">
        <ele>252.7</ele>
      </trkpt>
      <trkpt lat="37.05131" lon="28.26595">
        <ele>252.7</ele>
      </trkpt>
      <trkpt lat="37.05131" lon="28.26595">
        <ele>252.7</ele>
      </trkpt>
      <trkpt lat="37.05131" lon="28.26595">
        <ele>252.7</ele>
      </trkpt>
      <trkpt lat="37.05131" lon="28.26595">
        <ele>252.7</ele>
      </trkpt>
      <trkpt lat="37.05131" lon="28.26595">
        <ele>252.7</ele>
      </trkpt>
      <trkpt lat="37.05131" lon="28.26595">
        <ele>252.7</ele>
      </trkpt>
      <trkpt lat="37.05131" lon="28.26595">
        <ele>252.7</ele>
      </trkpt>
      <trkpt lat="37.05131" lon="28.26595">
        <ele>252.7</ele>
      </trkpt>
      <trkpt lat="37.05131" lon="28.26595">
        <ele>252.7</ele>
      </trkpt>
      <trkpt lat="37.05131" lon="28.26595">
        <ele>252.7</ele>
      </trkpt>
      <trkpt lat="37.05131" lon="28.26595">
        <ele>252.7</ele>
      </trkpt>
      <trkpt lat="37.05131" lon="28.26595">
        <ele>252.7</ele>
      </trkpt>
      <trkpt lat="37.05131" lon="28.26595">
        <ele>252.7</ele>
      </trkpt>
      <trkpt lat="37.05131" lon="28.26595">
        <ele>252.7</ele>
      </trkpt>
      <trkpt lat="37.05131" lon="28.26595">
        <ele>252.7</ele>
      </trkpt>
      <trkpt lat="37.05131" lon="28.26595">
        <ele>252.7</ele>
      </trkpt>
      <trkpt lat="37.05132" lon="28.26592">
        <ele>252.9</ele>
      </trkpt>
      <trkpt lat="37.05133" lon="28.26588">
        <ele>252.6</ele>
      </trkpt>
      <trkpt lat="37.05135" lon="28.26588">
        <ele>253.2</ele>
      </trkpt>
      <trkpt lat="37.05133" lon="28.26589">
        <ele>252.7</ele>
      </trkpt>
      <trkpt lat="37.05135" lon="28.26586">
        <ele>253</ele>
      </trkpt>
      <trkpt lat="37.05142" lon="28.26577">
        <ele>253.8</ele>
      </trkpt>
      <trkpt lat="37.05149" lon="28.26575">
        <ele>256.8</ele>
      </trkpt>
      <trkpt lat="37.05157" lon="28.2657">
        <ele>259.1</ele>
      </trkpt>
      <trkpt lat="37.05163" lon="28.26569">
        <ele>262.2</ele>
      </trkpt>
      <trkpt lat="37.05168" lon="28.26575">
        <ele>266.1</ele>
      </trkpt>
      <trkpt lat="37.05168" lon="28.26575">
        <ele>266.1</ele>
      </trkpt>
      <trkpt lat="37.05168" lon="28.26575">
        <ele>266.1</ele>
      </trkpt>
      <trkpt lat="37.05168" lon="28.26577">
        <ele>267.3</ele>
      </trkpt>
      <trkpt lat="37.05167" lon="28.26583">
        <ele>269.1</ele>
      </trkpt>
      <trkpt lat="37.05161" lon="28.26592">
        <ele>268</ele>
      </trkpt>
      <trkpt lat="37.05156" lon="28.266">
        <ele>267.6</ele>
      </trkpt>
      <trkpt lat="37.0515" lon="28.26608">
        <ele>265.9</ele>
      </trkpt>
      <trkpt lat="37.05145" lon="28.26617">
        <ele>265.8</ele>
      </trkpt>
      <trkpt lat="37.05144" lon="28.26627">
        <ele>267.5</ele>
      </trkpt>
      <trkpt lat="37.05145" lon="28.26638">
        <ele>270.7</ele>
      </trkpt>
      <trkpt lat="37.05145" lon="28.26648">
        <ele>273</ele>
      </trkpt>
      <trkpt lat="37.05145" lon="28.26658">
        <ele>275.8</ele>
      </trkpt>
      <trkpt lat="37.05144" lon="28.26668">
        <ele>277.3</ele>
      </trkpt>
      <trkpt lat="37.05145" lon="28.2668">
        <ele>280</ele>
      </trkpt>
      <trkpt lat="37.05144" lon="28.26693">
        <ele>281.9</ele>
      </trkpt>
      <trkpt lat="37.05145" lon="28.26704">
        <ele>284.4</ele>
      </trkpt>
      <trkpt lat="37.05141" lon="28.26715">
        <ele>284.1</ele>
      </trkpt>
      <trkpt lat="37.05138" lon="28.26723">
        <ele>284.2</ele>
      </trkpt>
      <trkpt lat="37.05134" lon="28.26733">
        <ele>283.7</ele>
      </trkpt>
      <trkpt lat="37.05131" lon="28.2674">
        <ele>284</ele>
      </trkpt>
      <trkpt lat="37.05128" lon="28.26749">
        <ele>284.2</ele>
      </trkpt>
      <trkpt lat="37.05128" lon="28.26756">
        <ele>284.7</ele>
      </trkpt>
      <trkpt lat="37.05128" lon="28.26756">
        <ele>284.7</ele>
      </trkpt>
      <trkpt lat="37.05125" lon="28.26763">
        <ele>284.2</ele>
      </trkpt>
      <trkpt lat="37.05128" lon="28.26767">
        <ele>285.9</ele>
      </trkpt>
      <trkpt lat="37.05134" lon="28.26762">
        <ele>288.2</ele>
      </trkpt>
      <trkpt lat="37.05142" lon="28.26755">
        <ele>291.4</ele>
      </trkpt>
      <trkpt lat="37.05148" lon="28.26749">
        <ele>293.1</ele>
      </trkpt>
      <trkpt lat="37.05151" lon="28.26745">
        <ele>293.9</ele>
      </trkpt>
      <trkpt lat="37.0516" lon="28.26745">
        <ele>298.4</ele>
      </trkpt>
      <trkpt lat="37.05166" lon="28.26747">
        <ele>301.3</ele>
      </trkpt>
      <trkpt lat="37.05173" lon="28.2675">
        <ele>303.5</ele>
      </trkpt>
      <trkpt lat="37.0517" lon="28.26761">
        <ele>303.6</ele>
      </trkpt>
      <trkpt lat="37.05164" lon="28.26768">
        <ele>302.3</ele>
      </trkpt>
      <trkpt lat="37.05172" lon="28.2677">
        <ele>304.8</ele>
      </trkpt>
      <trkpt lat="37.0518" lon="28.26767">
        <ele>306.6</ele>
      </trkpt>
      <trkpt lat="37.05186" lon="28.26766">
        <ele>307.8</ele>
      </trkpt>
      <trkpt lat="37.05189" lon="28.26777">
        <ele>309.5</ele>
      </trkpt>
      <trkpt lat="37.05191" lon="28.26785">
        <ele>310.3</ele>
      </trkpt>
      <trkpt lat="37.05198" lon="28.26792">
        <ele>312.2</ele>
      </trkpt>
      <trkpt lat="37.05201" lon="28.268">
        <ele>313.3</ele>
      </trkpt>
      <trkpt lat="37.05202" lon="28.26811">
        <ele>314.3</ele>
      </trkpt>
      <trkpt lat="37.05198" lon="28.2682">
        <ele>313.9</ele>
      </trkpt>
      <trkpt lat="37.05197" lon="28.26828">
        <ele>314.2</ele>
      </trkpt>
      <trkpt lat="37.05205" lon="28.26836">
        <ele>316</ele>
      </trkpt>
      <trkpt lat="37.05211" lon="28.26838">
        <ele>317.2</ele>
      </trkpt>
      <trkpt lat="37.05218" lon="28.26838">
        <ele>318.5</ele>
      </trkpt>
      <trkpt lat="37.05227" lon="28.26836">
        <ele>319.9</ele>
      </trkpt>
      <trkpt lat="37.05233" lon="28.2683">
        <ele>320.8</ele>
      </trkpt>
      <trkpt lat="37.05239" lon="28.26821">
        <ele>321.7</ele>
      </trkpt>
      <trkpt lat="37.05245" lon="28.26813">
        <ele>322.7</ele>
      </trkpt>
      <trkpt lat="37.05248" lon="28.26803">
        <ele>323.3</ele>
      </trkpt>
      <trkpt lat="37.05251" lon="28.26791">
        <ele>323.6</ele>
      </trkpt>
      <trkpt lat="37.05252" lon="28.2678">
        <ele>323.6</ele>
      </trkpt>
      <trkpt lat="37.05253" lon="28.26767">
        <ele>323.6</ele>
      </trkpt>
      <trkpt lat="37.05254" lon="28.26756">
        <ele>323.7</ele>
      </trkpt>
      <trkpt lat="37.05257" lon="28.26746">
        <ele>323.5</ele>
      </trkpt>
      <trkpt lat="37.0526" lon="28.26735">
        <ele>322.8</ele>
      </trkpt>
      <trkpt lat="37.05267" lon="28.26734">
        <ele>323.9</ele>
      </trkpt>
      <trkpt lat="37.05271" lon="28.26745">
        <ele>325.6</ele>
      </trkpt>
      <trkpt lat="37.05276" lon="28.26755">
        <ele>326.9</ele>
      </trkpt>
      <trkpt lat="37.05278" lon="28.2676">
        <ele>327.3</ele>
      </trkpt>
      <trkpt lat="37.0528" lon="28.26772">
        <ele>327.7</ele>
      </trkpt>
      <trkpt lat="37.05281" lon="28.26783">
        <ele>328</ele>
      </trkpt>
      <trkpt lat="37.05282" lon="28.26795">
        <ele>328.3</ele>
      </trkpt>
      <trkpt lat="37.05284" lon="28.26806">
        <ele>328.8</ele>
      </trkpt>
      <trkpt lat="37.05287" lon="28.26816">
        <ele>329.4</ele>
      </trkpt>
      <trkpt lat="37.05292" lon="28.26823">
        <ele>330.3</ele>
      </trkpt>
      <trkpt lat="37.05295" lon="28.26829">
        <ele>330.9</ele>
      </trkpt>
      <trkpt lat="37.05297" lon="28.26834">
        <ele>331.4</ele>
      </trkpt>
      <trkpt lat="37.05302" lon="28.26841">
        <ele>332.2</ele>
      </trkpt>
      <trkpt lat="37.05306" lon="28.26852">
        <ele>332.8</ele>
      </trkpt>
      <trkpt lat="37.0531" lon="28.26862">
        <ele>333.4</ele>
      </trkpt>
      <trkpt lat="37.05319" lon="28.26867">
        <ele>334.4</ele>
      </trkpt>
      <trkpt lat="37.05329" lon="28.26868">
        <ele>335.6</ele>
      </trkpt>
      <trkpt lat="37.05338" lon="28.26872">
        <ele>336.9</ele>
      </trkpt>
      <trkpt lat="37.05347" lon="28.26867">
        <ele>338.4</ele>
      </trkpt>
      <trkpt lat="37.05356" lon="28.26865">
        <ele>340</ele>
      </trkpt>
      <trkpt lat="37.05366" lon="28.26862">
        <ele>341.6</ele>
      </trkpt>
      <trkpt lat="37.05375" lon="28.26859">
        <ele>343.2</ele>
      </trkpt>
      <trkpt lat="37.05383" lon="28.2686">
        <ele>344.6</ele>
      </trkpt>
      <trkpt lat="37.05386" lon="28.26865">
        <ele>344.7</ele>
      </trkpt>
      <trkpt lat="37.05385" lon="28.26871">
        <ele>344.2</ele>
      </trkpt>
      <trkpt lat="37.05385" lon="28.2688">
        <ele>343.8</ele>
      </trkpt>
      <trkpt lat="37.05386" lon="28.26892">
        <ele>343.3</ele>
      </trkpt>
      <trkpt lat="37.05387" lon="28.26904">
        <ele>342.8</ele>
      </trkpt>
      <trkpt lat="37.05389" lon="28.26917">
        <ele>342.4</ele>
      </trkpt>
      <trkpt lat="37.05391" lon="28.26929">
        <ele>341.7</ele>
      </trkpt>
      <trkpt lat="37.05393" lon="28.26942">
        <ele>340.8</ele>
      </trkpt>
      <trkpt lat="37.05395" lon="28.26953">
        <ele>340</ele>
      </trkpt>
      <trkpt lat="37.05398" lon="28.26964">
        <ele>339.2</ele>
      </trkpt>
      <trkpt lat="37.054" lon="28.26976">
        <ele>338.4</ele>
      </trkpt>
      <trkpt lat="37.05404" lon="28.26987">
        <ele>337.6</ele>
      </trkpt>
      <trkpt lat="37.05408" lon="28.26998">
        <ele>336.8</ele>
      </trkpt>
      <trkpt lat="37.05413" lon="28.27009">
        <ele>335.4</ele>
      </trkpt>
      <trkpt lat="37.05418" lon="28.2702">
        <ele>334.2</ele>
      </trkpt>
      <trkpt lat="37.05423" lon="28.27031">
        <ele>333.3</ele>
      </trkpt>
      <trkpt lat="37.05427" lon="28.27043">
        <ele>332.4</ele>
      </trkpt>
      <trkpt lat="37.05432" lon="28.27053">
        <ele>331.6</ele>
      </trkpt>
      <trkpt lat="37.05436" lon="28.27064">
        <ele>330.7</ele>
      </trkpt>
      <trkpt lat="37.0544" lon="28.27075">
        <ele>329.6</ele>
      </trkpt>
      <trkpt lat="37.05444" lon="28.27086">
        <ele>328.4</ele>
      </trkpt>
      <trkpt lat="37.05448" lon="28.27097">
        <ele>327.2</ele>
      </trkpt>
      <trkpt lat="37.05453" lon="28.27107">
        <ele>326.2</ele>
      </trkpt>
      <trkpt lat="37.05457" lon="28.27117">
        <ele>325.1</ele>
      </trkpt>
      <trkpt lat="37.05463" lon="28.27127">
        <ele>324.1</ele>
      </trkpt>
      <trkpt lat="37.05467" lon="28.27138">
        <ele>322.8</ele>
      </trkpt>
      <trkpt lat="37.05472" lon="28.27149">
        <ele>321.4</ele>
      </trkpt>
      <trkpt lat="37.05475" lon="28.27161">
        <ele>319.7</ele>
      </trkpt>
      <trkpt lat="37.05478" lon="28.27172">
        <ele>317.9</ele>
      </trkpt>
      <trkpt lat="37.05482" lon="28.27183">
        <ele>316.3</ele>
      </trkpt>
      <trkpt lat="37.05487" lon="28.27194">
        <ele>314.9</ele>
      </trkpt>
      <trkpt lat="37.05491" lon="28.27203">
        <ele>313.6</ele>
      </trkpt>
      <trkpt lat="37.05495" lon="28.27212">
        <ele>312.2</ele>
      </trkpt>
      <trkpt lat="37.05499" lon="28.27223">
        <ele>310.5</ele>
      </trkpt>
      <trkpt lat="37.05502" lon="28.27233">
        <ele>308.9</ele>
      </trkpt>
      <trkpt lat="37.05505" lon="28.27243">
        <ele>307.7</ele>
      </trkpt>
      <trkpt lat="37.05509" lon="28.27253">
        <ele>306.8</ele>
      </trkpt>
      <trkpt lat="37.05514" lon="28.27263">
        <ele>306.2</ele>
      </trkpt>
      <trkpt lat="37.0552" lon="28.27271">
        <ele>306.5</ele>
      </trkpt>
      <trkpt lat="37.05529" lon="28.27277">
        <ele>307.8</ele>
      </trkpt>
      <trkpt lat="37.05537" lon="28.2728">
        <ele>309.4</ele>
      </trkpt>
      <trkpt lat="37.05544" lon="28.27288">
        <ele>309.9</ele>
      </trkpt>
      <trkpt lat="37.05545" lon="28.27299">
        <ele>308.6</ele>
      </trkpt>
      <trkpt lat="37.05544" lon="28.27311">
        <ele>306.5</ele>
      </trkpt>
      <trkpt lat="37.05544" lon="28.27323">
        <ele>304.6</ele>
      </trkpt>
      <trkpt lat="37.05543" lon="28.27335">
        <ele>302.6</ele>
      </trkpt>
      <trkpt lat="37.05544" lon="28.27345">
        <ele>301.1</ele>
      </trkpt>
      <trkpt lat="37.05547" lon="28.27356">
        <ele>299.9</ele>
      </trkpt>
      <trkpt lat="37.0555" lon="28.27366">
        <ele>299.3</ele>
      </trkpt>
      <trkpt lat="37.05556" lon="28.27375">
        <ele>299.3</ele>
      </trkpt>
      <trkpt lat="37.0556" lon="28.27386">
        <ele>298.5</ele>
      </trkpt>
      <trkpt lat="37.05562" lon="28.27393">
        <ele>297.9</ele>
      </trkpt>
      <trkpt lat="37.05565" lon="28.27404">
        <ele>296.8</ele>
      </trkpt>
      <trkpt lat="37.05568" lon="28.27415">
        <ele>295.8</ele>
      </trkpt>
      <trkpt lat="37.05571" lon="28.27425">
        <ele>294.7</ele>
      </trkpt>
      <trkpt lat="37.05572" lon="28.27432">
        <ele>293.6</ele>
      </trkpt>
      <trkpt lat="37.05575" lon="28.27443">
        <ele>292.5</ele>
      </trkpt>
      <trkpt lat="37.05579" lon="28.27455">
        <ele>291.4</ele>
      </trkpt>
      <trkpt lat="37.05582" lon="28.27465">
        <ele>290.2</ele>
      </trkpt>
      <trkpt lat="37.05583" lon="28.27475">
        <ele>288.8</ele>
      </trkpt>
      <trkpt lat="37.05586" lon="28.27486">
        <ele>287.8</ele>
      </trkpt>
      <trkpt lat="37.05589" lon="28.27498">
        <ele>286.8</ele>
      </trkpt>
      <trkpt lat="37.05593" lon="28.27509">
        <ele>286.2</ele>
      </trkpt>
      <trkpt lat="37.05595" lon="28.27515">
        <ele>285.7</ele>
      </trkpt>
      <trkpt lat="37.05595" lon="28.27517">
        <ele>285.6</ele>
      </trkpt>
      <trkpt lat="37.05597" lon="28.27529">
        <ele>284.2</ele>
      </trkpt>
      <trkpt lat="37.05601" lon="28.27541">
        <ele>283.2</ele>
      </trkpt>
      <trkpt lat="37.05603" lon="28.27553">
        <ele>281.7</ele>
      </trkpt>
      <trkpt lat="37.05604" lon="28.27566">
        <ele>279.7</ele>
      </trkpt>
      <trkpt lat="37.05606" lon="28.27577">
        <ele>278.2</ele>
      </trkpt>
      <trkpt lat="37.05607" lon="28.2759">
        <ele>277</ele>
      </trkpt>
      <trkpt lat="37.05607" lon="28.27602">
        <ele>276.6</ele>
      </trkpt>
      <trkpt lat="37.05608" lon="28.27613">
        <ele>276.3</ele>
      </trkpt>
      <trkpt lat="37.05606" lon="28.27622">
        <ele>275.2</ele>
      </trkpt>
      <trkpt lat="37.05605" lon="28.27623">
        <ele>275</ele>
      </trkpt>
      <trkpt lat="37.05605" lon="28.27623">
        <ele>275</ele>
      </trkpt>
      <trkpt lat="37.05605" lon="28.27623">
        <ele>275</ele>
      </trkpt>
      <trkpt lat="37.05605" lon="28.27623">
        <ele>275</ele>
      </trkpt>
      <trkpt lat="37.05606" lon="28.27629">
        <ele>274.9</ele>
      </trkpt>
      <trkpt lat="37.05604" lon="28.2764">
        <ele>273.8</ele>
      </trkpt>
      <trkpt lat="37.05604" lon="28.27653">
        <ele>273.3</ele>
      </trkpt>
      <trkpt lat="37.056" lon="28.27664">
        <ele>272</ele>
      </trkpt>
      <trkpt lat="37.05597" lon="28.27675">
        <ele>270.5</ele>
      </trkpt>
      <trkpt lat="37.05595" lon="28.27687">
        <ele>269.4</ele>
      </trkpt>
      <trkpt lat="37.05594" lon="28.27697">
        <ele>268.5</ele>
      </trkpt>
      <trkpt lat="37.05594" lon="28.27706">
        <ele>267.9</ele>
      </trkpt>
      <trkpt lat="37.05593" lon="28.27718">
        <ele>266.9</ele>
      </trkpt>
      <trkpt lat="37.05592" lon="28.27728">
        <ele>266.1</ele>
      </trkpt>
      <trkpt lat="37.05591" lon="28.27735">
        <ele>265.4</ele>
      </trkpt>
      <trkpt lat="37.05589" lon="28.27745">
        <ele>264.4</ele>
      </trkpt>
      <trkpt lat="37.05587" lon="28.27757">
        <ele>263.2</ele>
      </trkpt>
      <trkpt lat="37.05586" lon="28.27769">
        <ele>262</ele>
      </trkpt>
      <trkpt lat="37.05585" lon="28.2778">
        <ele>260.8</ele>
      </trkpt>
      <trkpt lat="37.05585" lon="28.27792">
        <ele>259.7</ele>
      </trkpt>
      <trkpt lat="37.05584" lon="28.27804">
        <ele>258.6</ele>
      </trkpt>
      <trkpt lat="37.05584" lon="28.27816">
        <ele>257.5</ele>
      </trkpt>
      <trkpt lat="37.05583" lon="28.27829">
        <ele>256.4</ele>
      </trkpt>
      <trkpt lat="37.05584" lon="28.27839">
        <ele>255.6</ele>
      </trkpt>
      <trkpt lat="37.05585" lon="28.27852">
        <ele>254.5</ele>
      </trkpt>
      <trkpt lat="37.05585" lon="28.27864">
        <ele>253.4</ele>
      </trkpt>
      <trkpt lat="37.05585" lon="28.27875">
        <ele>252.3</ele>
      </trkpt>
      <trkpt lat="37.05585" lon="28.27887">
        <ele>251.1</ele>
      </trkpt>
      <trkpt lat="37.05585" lon="28.27899">
        <ele>249.9</ele>
      </trkpt>
      <trkpt lat="37.05585" lon="28.27912">
        <ele>248.7</ele>
      </trkpt>
      <trkpt lat="37.05585" lon="28.27923">
        <ele>247.9</ele>
      </trkpt>
      <trkpt lat="37.05584" lon="28.27935">
        <ele>247.3</ele>
      </trkpt>
      <trkpt lat="37.05583" lon="28.27947">
        <ele>246.6</ele>
      </trkpt>
      <trkpt lat="37.05581" lon="28.27958">
        <ele>246.3</ele>
      </trkpt>
      <trkpt lat="37.0558" lon="28.27968">
        <ele>246</ele>
      </trkpt>
      <trkpt lat="37.05577" lon="28.27974">
        <ele>246</ele>
      </trkpt>
      <trkpt lat="37.05575" lon="28.27972">
        <ele>246.3</ele>
      </trkpt>
      <trkpt lat="37.05575" lon="28.27972">
        <ele>246.3</ele>
      </trkpt>
      <trkpt lat="37.05575" lon="28.27972">
        <ele>246.3</ele>
      </trkpt>
      <trkpt lat="37.05575" lon="28.27972">
        <ele>246.3</ele>
      </trkpt>
      <trkpt lat="37.05575" lon="28.27972">
        <ele>246.3</ele>
      </trkpt>
      <trkpt lat="37.05575" lon="28.27972">
        <ele>246.3</ele>
      </trkpt>
      <trkpt lat="37.05575" lon="28.27972">
        <ele>246.3</ele>
      </trkpt>
      <trkpt lat="37.05575" lon="28.27972">
        <ele>246.3</ele>
      </trkpt>
      <trkpt lat="37.05575" lon="28.27972">
        <ele>246.3</ele>
      </trkpt>
      <trkpt lat="37.05575" lon="28.27972">
        <ele>246.3</ele>
      </trkpt>
      <trkpt lat="37.05575" lon="28.27972">
        <ele>246.3</ele>
      </trkpt>
      <trkpt lat="37.05575" lon="28.27972">
        <ele>246.3</ele>
      </trkpt>
      <trkpt lat="37.05575" lon="28.27972">
        <ele>246.3</ele>
      </trkpt>
      <trkpt lat="37.05575" lon="28.27972">
        <ele>246.3</ele>
      </trkpt>
      <trkpt lat="37.05575" lon="28.27972">
        <ele>246.3</ele>
      </trkpt>
      <trkpt lat="37.05575" lon="28.27972">
        <ele>246.3</ele>
      </trkpt>
      <trkpt lat="37.05575" lon="28.27972">
        <ele>246.3</ele>
      </trkpt>
      <trkpt lat="37.05575" lon="28.27972">
        <ele>246.3</ele>
      </trkpt>
      <trkpt lat="37.05575" lon="28.27972">
        <ele>246.3</ele>
      </trkpt>
      <trkpt lat="37.05575" lon="28.27972">
        <ele>246.3</ele>
      </trkpt>
      <trkpt lat="37.05575" lon="28.27972">
        <ele>246.3</ele>
      </trkpt>
      <trkpt lat="37.05575" lon="28.27972">
        <ele>246.3</ele>
      </trkpt>
      <trkpt lat="37.05575" lon="28.27972">
        <ele>246.3</ele>
      </trkpt>
      <trkpt lat="37.05575" lon="28.27972">
        <ele>246.3</ele>
      </trkpt>
      <trkpt lat="37.05575" lon="28.27972">
        <ele>246.3</ele>
      </trkpt>
      <trkpt lat="37.05575" lon="28.27972">
        <ele>246.3</ele>
      </trkpt>
      <trkpt lat="37.05575" lon="28.27972">
        <ele>246.3</ele>
      </trkpt>
      <trkpt lat="37.05575" lon="28.27972">
        <ele>246.3</ele>
      </trkpt>
      <trkpt lat="37.05575" lon="28.27972">
        <ele>246.3</ele>
      </trkpt>
      <trkpt lat="37.05575" lon="28.27972">
        <ele>246.3</ele>
      </trkpt>
      <trkpt lat="37.05575" lon="28.27972">
        <ele>246.3</ele>
      </trkpt>
      <trkpt lat="37.05575" lon="28.27972">
        <ele>246.3</ele>
      </trkpt>
      <trkpt lat="37.05575" lon="28.27972">
        <ele>246.3</ele>
      </trkpt>
      <trkpt lat="37.05575" lon="28.27972">
        <ele>246.3</ele>
      </trkpt>
      <trkpt lat="37.05575" lon="28.27972">
        <ele>246.3</ele>
      </trkpt>
      <trkpt lat="37.05575" lon="28.27972">
        <ele>246.3</ele>
      </trkpt>
      <trkpt lat="37.05575" lon="28.27972">
        <ele>246.3</ele>
      </trkpt>
      <trkpt lat="37.05575" lon="28.27972">
        <ele>246.3</ele>
      </trkpt>
      <trkpt lat="37.05575" lon="28.27972">
        <ele>246.3</ele>
      </trkpt>
      <trkpt lat="37.05575" lon="28.27972">
        <ele>246.3</ele>
      </trkpt>
      <trkpt lat="37.05576" lon="28.2797">
        <ele>246.2</ele>
      </trkpt>
      <trkpt lat="37.05576" lon="28.2797">
        <ele>246.2</ele>
      </trkpt>
      <trkpt lat="37.05576" lon="28.2797">
        <ele>246.2</ele>
      </trkpt>
      <trkpt lat="37.05575" lon="28.27972">
        <ele>246.4</ele>
      </trkpt>
      <trkpt lat="37.05575" lon="28.27972">
        <ele>246.4</ele>
      </trkpt>
      <trkpt lat="37.05575" lon="28.27972">
        <ele>246.4</ele>
      </trkpt>
      <trkpt lat="37.05575" lon="28.27972">
        <ele>246.4</ele>
      </trkpt>
      <trkpt lat="37.05575" lon="28.27972">
        <ele>246.4</ele>
      </trkpt>
      <trkpt lat="37.05575" lon="28.27979">
        <ele>246.1</ele>
      </trkpt>
      <trkpt lat="37.05573" lon="28.27989">
        <ele>245.9</ele>
      </trkpt>
      <trkpt lat="37.05571" lon="28.28001">
        <ele>245.7</ele>
      </trkpt>
      <trkpt lat="37.05568" lon="28.28013">
        <ele>245.6</ele>
      </trkpt>
      <trkpt lat="37.05567" lon="28.28026">
        <ele>245.3</ele>
      </trkpt>
      <trkpt lat="37.05565" lon="28.28036">
        <ele>245</ele>
      </trkpt>
      <trkpt lat="37.05563" lon="28.28046">
        <ele>244.9</ele>
      </trkpt>
      <trkpt lat="37.05561" lon="28.28058">
        <ele>244.6</ele>
      </trkpt>
      <trkpt lat="37.05559" lon="28.28068">
        <ele>244.4</ele>
      </trkpt>
      <trkpt lat="37.05556" lon="28.2808">
        <ele>244.4</ele>
      </trkpt>
      <trkpt lat="37.05556" lon="28.28092">
        <ele>243.1</ele>
      </trkpt>
      <trkpt lat="37.05556" lon="28.28103">
        <ele>241.5</ele>
      </trkpt>
      <trkpt lat="37.05557" lon="28.28115">
        <ele>239.7</ele>
      </trkpt>
      <trkpt lat="37.05559" lon="28.28127">
        <ele>237.7</ele>
      </trkpt>
      <trkpt lat="37.0556" lon="28.28138">
        <ele>236</ele>
      </trkpt>
      <trkpt lat="37.05564" lon="28.28148">
        <ele>233.9</ele>
      </trkpt>
      <trkpt lat="37.05568" lon="28.28159">
        <ele>231.7</ele>
      </trkpt>
      <trkpt lat="37.05571" lon="28.28169">
        <ele>229.5</ele>
      </trkpt>
      <trkpt lat="37.05572" lon="28.28176">
        <ele>228.1</ele>
      </trkpt>
      <trkpt lat="37.05578" lon="28.28174">
        <ele>227.4</ele>
      </trkpt>
      <trkpt lat="37.05586" lon="28.28173">
        <ele>226.3</ele>
      </trkpt>
      <trkpt lat="37.0559" lon="28.28174">
        <ele>225.5</ele>
      </trkpt>
      <trkpt lat="37.0559" lon="28.28174">
        <ele>225.5</ele>
      </trkpt>
      <trkpt lat="37.05592" lon="28.28173">
        <ele>225.3</ele>
      </trkpt>
      <trkpt lat="37.05601" lon="28.28168">
        <ele>224.7</ele>
      </trkpt>
      <trkpt lat="37.05609" lon="28.28162">
        <ele>224.3</ele>
      </trkpt>
      <trkpt lat="37.05616" lon="28.28161">
        <ele>223.4</ele>
      </trkpt>
      <trkpt lat="37.05625" lon="28.28155">
        <ele>223.1</ele>
      </trkpt>
      <trkpt lat="37.05634" lon="28.28154">
        <ele>222.1</ele>
      </trkpt>
      <trkpt lat="37.05643" lon="28.28153">
        <ele>220.9</ele>
      </trkpt>
      <trkpt lat="37.05651" lon="28.28151">
        <ele>220.1</ele>
      </trkpt>
      <trkpt lat="37.0566" lon="28.28151">
        <ele>218.6</ele>
      </trkpt>
      <trkpt lat="37.05669" lon="28.28151">
        <ele>218.1</ele>
      </trkpt>
      <trkpt lat="37.05678" lon="28.2815">
        <ele>219.7</ele>
      </trkpt>
      <trkpt lat="37.05686" lon="28.28149">
        <ele>221.1</ele>
      </trkpt>
      <trkpt lat="37.05695" lon="28.2815">
        <ele>222.2</ele>
      </trkpt>
      <trkpt lat="37.05704" lon="28.28149">
        <ele>223.6</ele>
      </trkpt>
      <trkpt lat="37.05706" lon="28.28157">
        <ele>222.2</ele>
      </trkpt>
      <trkpt lat="37.05702" lon="28.28168">
        <ele>219.4</ele>
      </trkpt>
      <trkpt lat="37.05695" lon="28.28176">
        <ele>218.8</ele>
      </trkpt>
      <trkpt lat="37.05688" lon="28.28184">
        <ele>218</ele>
      </trkpt>
      <trkpt lat="37.0568" lon="28.28192">
        <ele>217</ele>
      </trkpt>
      <trkpt lat="37.05672" lon="28.28199">
        <ele>215.7</ele>
      </trkpt>
      <trkpt lat="37.05663" lon="28.28204">
        <ele>215</ele>
      </trkpt>
      <trkpt lat="37.05655" lon="28.28211">
        <ele>215.7</ele>
      </trkpt>
      <trkpt lat="37.05648" lon="28.28218">
        <ele>215.9</ele>
      </trkpt>
      <trkpt lat="37.05641" lon="28.28227">
        <ele>215.8</ele>
      </trkpt>
      <trkpt lat="37.05636" lon="28.28237">
        <ele>215.4</ele>
      </trkpt>
      <trkpt lat="37.05631" lon="28.28248">
        <ele>214.6</ele>
      </trkpt>
      <trkpt lat="37.05628" lon="28.28259">
        <ele>214.1</ele>
      </trkpt>
      <trkpt lat="37.05625" lon="28.28265">
        <ele>213.8</ele>
      </trkpt>
      <trkpt lat="37.05622" lon="28.28275">
        <ele>213.1</ele>
      </trkpt>
      <trkpt lat="37.05618" lon="28.28285">
        <ele>212.3</ele>
      </trkpt>
      <trkpt lat="37.05614" lon="28.28297">
        <ele>211.3</ele>
      </trkpt>
      <trkpt lat="37.05612" lon="28.28309">
        <ele>210.3</ele>
      </trkpt>
      <trkpt lat="37.05609" lon="28.2832">
        <ele>209.2</ele>
      </trkpt>
      <trkpt lat="37.05607" lon="28.28331">
        <ele>208.1</ele>
      </trkpt>
      <trkpt lat="37.05602" lon="28.28342">
        <ele>207.4</ele>
      </trkpt>
      <trkpt lat="37.05597" lon="28.28354">
        <ele>207.1</ele>
      </trkpt>
      <trkpt lat="37.05591" lon="28.28362">
        <ele>206.3</ele>
      </trkpt>
      <trkpt lat="37.05584" lon="28.28371">
        <ele>205.7</ele>
      </trkpt>
      <trkpt lat="37.05577" lon="28.28379">
        <ele>205.9</ele>
      </trkpt>
      <trkpt lat="37.0557" lon="28.28387">
        <ele>205.8</ele>
      </trkpt>
      <trkpt lat="37.05564" lon="28.28396">
        <ele>205.6</ele>
      </trkpt>
      <trkpt lat="37.05557" lon="28.28403">
        <ele>204.9</ele>
      </trkpt>
      <trkpt lat="37.05551" lon="28.28412">
        <ele>204.1</ele>
      </trkpt>
      <trkpt lat="37.05544" lon="28.2842">
        <ele>203</ele>
      </trkpt>
      <trkpt lat="37.05537" lon="28.28429">
        <ele>202.1</ele>
      </trkpt>
      <trkpt lat="37.05531" lon="28.28438">
        <ele>201.5</ele>
      </trkpt>
      <trkpt lat="37.05526" lon="28.28449">
        <ele>201.1</ele>
      </trkpt>
      <trkpt lat="37.05523" lon="28.2846">
        <ele>201.2</ele>
      </trkpt>
      <trkpt lat="37.05521" lon="28.28468">
        <ele>201.2</ele>
      </trkpt>
      <trkpt lat="37.05519" lon="28.2848">
        <ele>201.5</ele>
      </trkpt>
      <trkpt lat="37.05517" lon="28.28492">
        <ele>201.8</ele>
      </trkpt>
      <trkpt lat="37.05517" lon="28.28505">
        <ele>201.9</ele>
      </trkpt>
      <trkpt lat="37.05518" lon="28.28515">
        <ele>201.2</ele>
      </trkpt>
      <trkpt lat="37.05519" lon="28.28528">
        <ele>200.3</ele>
      </trkpt>
      <trkpt lat="37.0552" lon="28.28539">
        <ele>199.4</ele>
      </trkpt>
      <trkpt lat="37.05519" lon="28.28551">
        <ele>198.4</ele>
      </trkpt>
      <trkpt lat="37.05519" lon="28.28561">
        <ele>197.5</ele>
      </trkpt>
      <trkpt lat="37.05518" lon="28.28572">
        <ele>196.6</ele>
      </trkpt>
      <trkpt lat="37.05519" lon="28.28584">
        <ele>195.8</ele>
      </trkpt>
      <trkpt lat="37.0552" lon="28.28596">
        <ele>195.4</ele>
      </trkpt>
      <trkpt lat="37.05521" lon="28.28603">
        <ele>195.2</ele>
      </trkpt>
      <trkpt lat="37.05524" lon="28.28609">
        <ele>195.2</ele>
      </trkpt>
      <trkpt lat="37.05527" lon="28.28613">
        <ele>195.3</ele>
      </trkpt>
      <trkpt lat="37.05531" lon="28.28621">
        <ele>195.3</ele>
      </trkpt>
      <trkpt lat="37.05537" lon="28.2863">
        <ele>195.4</ele>
      </trkpt>
      <trkpt lat="37.05541" lon="28.28638">
        <ele>195.3</ele>
      </trkpt>
      <trkpt lat="37.05543" lon="28.28645">
        <ele>195.2</ele>
      </trkpt>
      <trkpt lat="37.05545" lon="28.28649">
        <ele>195.1</ele>
      </trkpt>
      <trkpt lat="37.05544" lon="28.28648">
        <ele>195.1</ele>
      </trkpt>
      <trkpt lat="37.05545" lon="28.28649">
        <ele>195.1</ele>
      </trkpt>
      <trkpt lat="37.0555" lon="28.28658">
        <ele>195</ele>
      </trkpt>
      <trkpt lat="37.05554" lon="28.28668">
        <ele>194.8</ele>
      </trkpt>
      <trkpt lat="37.05557" lon="28.28679">
        <ele>194.7</ele>
      </trkpt>
      <trkpt lat="37.05562" lon="28.28689">
        <ele>194.7</ele>
      </trkpt>
      <trkpt lat="37.05565" lon="28.287">
        <ele>194.6</ele>
      </trkpt>
      <trkpt lat="37.05566" lon="28.28712">
        <ele>194.3</ele>
      </trkpt>
      <trkpt lat="37.0557" lon="28.28724">
        <ele>194.3</ele>
      </trkpt>
      <trkpt lat="37.05575" lon="28.28734">
        <ele>194.5</ele>
      </trkpt>
      <trkpt lat="37.05582" lon="28.28742">
        <ele>195.1</ele>
      </trkpt>
      <trkpt lat="37.05586" lon="28.28754">
        <ele>195.1</ele>
      </trkpt>
      <trkpt lat="37.05591" lon="28.28765">
        <ele>194.9</ele>
      </trkpt>
      <trkpt lat="37.05593" lon="28.28778">
        <ele>194.5</ele>
      </trkpt>
      <trkpt lat="37.05596" lon="28.28789">
        <ele>194.3</ele>
      </trkpt>
      <trkpt lat="37.05603" lon="28.28797">
        <ele>194.8</ele>
      </trkpt>
      <trkpt lat="37.05607" lon="28.28806">
        <ele>194.9</ele>
      </trkpt>
      <trkpt lat="37.05612" lon="28.28817">
        <ele>195.1</ele>
      </trkpt>
      <trkpt lat="37.05619" lon="28.28825">
        <ele>196</ele>
      </trkpt>
      <trkpt lat="37.05627" lon="28.28833">
        <ele>196.9</ele>
      </trkpt>
      <trkpt lat="37.05633" lon="28.28842">
        <ele>196.3</ele>
      </trkpt>
      <trkpt lat="37.0564" lon="28.28851">
        <ele>196</ele>
      </trkpt>
      <trkpt lat="37.05645" lon="28.2886">
        <ele>195.5</ele>
      </trkpt>
      <trkpt lat="37.0565" lon="28.28869">
        <ele>194.9</ele>
      </trkpt>
      <trkpt lat="37.05658" lon="28.28876">
        <ele>195</ele>
      </trkpt>
      <trkpt lat="37.05666" lon="28.28884">
        <ele>194.9</ele>
      </trkpt>
      <trkpt lat="37.05671" lon="28.28894">
        <ele>194.4</ele>
      </trkpt>
      <trkpt lat="37.05673" lon="28.28906">
        <ele>193.1</ele>
      </trkpt>
      <trkpt lat="37.05674" lon="28.28919">
        <ele>191.3</ele>
      </trkpt>
      <trkpt lat="37.05676" lon="28.28932">
        <ele>189.9</ele>
      </trkpt>
      <trkpt lat="37.05678" lon="28.28943">
        <ele>188.7</ele>
      </trkpt>
      <trkpt lat="37.05681" lon="28.28956">
        <ele>187.5</ele>
      </trkpt>
      <trkpt lat="37.05682" lon="28.28968">
        <ele>186.1</ele>
      </trkpt>
      <trkpt lat="37.05683" lon="28.28977">
        <ele>185.3</ele>
      </trkpt>
      <trkpt lat="37.05685" lon="28.28989">
        <ele>184.1</ele>
      </trkpt>
      <trkpt lat="37.05688" lon="28.29001">
        <ele>183.3</ele>
      </trkpt>
      <trkpt lat="37.0569" lon="28.29013">
        <ele>182.6</ele>
      </trkpt>
      <trkpt lat="37.0569" lon="28.29026">
        <ele>181.7</ele>
      </trkpt>
      <trkpt lat="37.05689" lon="28.29038">
        <ele>180.3</ele>
      </trkpt>
      <trkpt lat="37.05689" lon="28.2905">
        <ele>178.9</ele>
      </trkpt>
      <trkpt lat="37.05687" lon="28.29061">
        <ele>177.5</ele>
      </trkpt>
      <trkpt lat="37.05688" lon="28.29072">
        <ele>176.6</ele>
      </trkpt>
      <trkpt lat="37.05686" lon="28.29084">
        <ele>174.8</ele>
      </trkpt>
      <trkpt lat="37.05684" lon="28.29094">
        <ele>174.2</ele>
      </trkpt>
      <trkpt lat="37.05684" lon="28.29106">
        <ele>174.1</ele>
      </trkpt>
      <trkpt lat="37.05684" lon="28.29108">
        <ele>173.7</ele>
      </trkpt>
      <trkpt lat="37.05684" lon="28.29108">
        <ele>173.7</ele>
      </trkpt>
      <trkpt lat="37.05684" lon="28.29108">
        <ele>173.7</ele>
      </trkpt>
      <trkpt lat="37.05684" lon="28.29108">
        <ele>173.7</ele>
      </trkpt>
      <trkpt lat="37.05684" lon="28.29108">
        <ele>173.7</ele>
      </trkpt>
      <trkpt lat="37.05684" lon="28.29108">
        <ele>173.7</ele>
      </trkpt>
      <trkpt lat="37.05683" lon="28.29105">
        <ele>173.6</ele>
      </trkpt>
      <trkpt lat="37.05682" lon="28.29111">
        <ele>173.2</ele>
      </trkpt>
      <trkpt lat="37.05682" lon="28.29111">
        <ele>173.2</ele>
      </trkpt>
      <trkpt lat="37.05682" lon="28.29117">
        <ele>172.9</ele>
      </trkpt>
      <trkpt lat="37.05683" lon="28.29123">
        <ele>173.3</ele>
      </trkpt>
      <trkpt lat="37.05682" lon="28.29129">
        <ele>172.7</ele>
      </trkpt>
      <trkpt lat="37.05681" lon="28.2914">
        <ele>172.5</ele>
      </trkpt>
      <trkpt lat="37.05681" lon="28.29152">
        <ele>172.3</ele>
      </trkpt>
      <trkpt lat="37.05681" lon="28.29164">
        <ele>172.1</ele>
      </trkpt>
      <trkpt lat="37.05683" lon="28.29175">
        <ele>172.3</ele>
      </trkpt>
      <trkpt lat="37.05684" lon="28.29187">
        <ele>172.3</ele>
      </trkpt>
      <trkpt lat="37.05685" lon="28.29197">
        <ele>172.5</ele>
      </trkpt>
      <trkpt lat="37.05685" lon="28.29208">
        <ele>172.1</ele>
      </trkpt>
      <trkpt lat="37.05687" lon="28.2922">
        <ele>172.4</ele>
      </trkpt>
      <trkpt lat="37.05687" lon="28.29232">
        <ele>172</ele>
      </trkpt>
      <trkpt lat="37.05687" lon="28.29244">
        <ele>171.7</ele>
      </trkpt>
      <trkpt lat="37.05686" lon="28.29256">
        <ele>171</ele>
      </trkpt>
      <trkpt lat="37.05687" lon="28.29268">
        <ele>170.7</ele>
      </trkpt>
      <trkpt lat="37.0569" lon="28.2928">
        <ele>170.9</ele>
      </trkpt>
      <trkpt lat="37.05692" lon="28.29292">
        <ele>170.9</ele>
      </trkpt>
      <trkpt lat="37.05696" lon="28.29303">
        <ele>171.4</ele>
      </trkpt>
      <trkpt lat="37.05698" lon="28.29315">
        <ele>171.6</ele>
      </trkpt>
      <trkpt lat="37.05702" lon="28.29325">
        <ele>172.3</ele>
      </trkpt>
      <trkpt lat="37.05704" lon="28.29336">
        <ele>172.1</ele>
      </trkpt>
      <trkpt lat="37.05707" lon="28.29341">
        <ele>172.8</ele>
      </trkpt>
      <trkpt lat="37.05711" lon="28.29351">
        <ele>172.7</ele>
      </trkpt>
      <trkpt lat="37.05714" lon="28.29363">
        <ele>172.2</ele>
      </trkpt>
      <trkpt lat="37.05718" lon="28.29373">
        <ele>171.9</ele>
      </trkpt>
      <trkpt lat="37.05724" lon="28.29383">
        <ele>172.6</ele>
      </trkpt>
      <trkpt lat="37.05729" lon="28.29392">
        <ele>173.1</ele>
      </trkpt>
      <trkpt lat="37.05734" lon="28.29401">
        <ele>173.5</ele>
      </trkpt>
      <trkpt lat="37.05739" lon="28.29411">
        <ele>173.4</ele>
      </trkpt>
      <trkpt lat="37.05742" lon="28.29421">
        <ele>172.9</ele>
      </trkpt>
      <trkpt lat="37.05742" lon="28.29434">
        <ele>171</ele>
      </trkpt>
      <trkpt lat="37.05745" lon="28.29446">
        <ele>169.9</ele>
      </trkpt>
      <trkpt lat="37.0575" lon="28.29454">
        <ele>169.7</ele>
      </trkpt>
      <trkpt lat="37.05754" lon="28.29465">
        <ele>169.5</ele>
      </trkpt>
      <trkpt lat="37.05759" lon="28.29476">
        <ele>169.9</ele>
      </trkpt>
      <trkpt lat="37.05764" lon="28.29487">
        <ele>169.7</ele>
      </trkpt>
      <trkpt lat="37.05769" lon="28.29496">
        <ele>170.4</ele>
      </trkpt>
      <trkpt lat="37.05775" lon="28.29504">
        <ele>171.4</ele>
      </trkpt>
      <trkpt lat="37.05781" lon="28.29513">
        <ele>172.1</ele>
      </trkpt>
      <trkpt lat="37.05787" lon="28.29523">
        <ele>172.4</ele>
      </trkpt>
      <trkpt lat="37.05793" lon="28.29532">
        <ele>172.6</ele>
      </trkpt>
      <trkpt lat="37.05799" lon="28.29541">
        <ele>173</ele>
      </trkpt>
      <trkpt lat="37.05804" lon="28.2955">
        <ele>172.7</ele>
      </trkpt>
      <trkpt lat="37.05806" lon="28.29562">
        <ele>170.7</ele>
      </trkpt>
      <trkpt lat="37.05807" lon="28.29575">
        <ele>168.3</ele>
      </trkpt>
      <trkpt lat="37.05808" lon="28.29586">
        <ele>166.3</ele>
      </trkpt>
      <trkpt lat="37.05808" lon="28.29599">
        <ele>165.4</ele>
      </trkpt>
      <trkpt lat="37.05809" lon="28.29611">
        <ele>164.6</ele>
      </trkpt>
      <trkpt lat="37.05811" lon="28.29623">
        <ele>164.3</ele>
      </trkpt>
      <trkpt lat="37.05812" lon="28.29635">
        <ele>163.7</ele>
      </trkpt>
      <trkpt lat="37.05811" lon="28.29646">
        <ele>162.6</ele>
      </trkpt>
      <trkpt lat="37.05809" lon="28.29658">
        <ele>161.2</ele>
      </trkpt>
      <trkpt lat="37.05807" lon="28.29669">
        <ele>159.9</ele>
      </trkpt>
      <trkpt lat="37.05805" lon="28.29681">
        <ele>159.3</ele>
      </trkpt>
      <trkpt lat="37.05805" lon="28.29692">
        <ele>159.2</ele>
      </trkpt>
      <trkpt lat="37.05809" lon="28.29702">
        <ele>159.9</ele>
      </trkpt>
      <trkpt lat="37.05812" lon="28.29712">
        <ele>160.3</ele>
      </trkpt>
      <trkpt lat="37.05817" lon="28.29722">
        <ele>161.2</ele>
      </trkpt>
      <trkpt lat="37.05822" lon="28.29732">
        <ele>162.1</ele>
      </trkpt>
      <trkpt lat="37.05827" lon="28.29742">
        <ele>162.9</ele>
      </trkpt>
      <trkpt lat="37.0583" lon="28.29751">
        <ele>163.3</ele>
      </trkpt>
      <trkpt lat="37.05835" lon="28.29762">
        <ele>163</ele>
      </trkpt>
      <trkpt lat="37.0584" lon="28.29773">
        <ele>163.6</ele>
      </trkpt>
      <trkpt lat="37.05845" lon="28.29779">
        <ele>164.2</ele>
      </trkpt>
      <trkpt lat="37.05852" lon="28.29787">
        <ele>165.5</ele>
      </trkpt>
      <trkpt lat="37.05857" lon="28.29797">
        <ele>165.8</ele>
      </trkpt>
      <trkpt lat="37.05863" lon="28.29807">
        <ele>165.9</ele>
      </trkpt>
      <trkpt lat="37.05864" lon="28.29813">
        <ele>165.4</ele>
      </trkpt>
      <trkpt lat="37.05865" lon="28.29819">
        <ele>164.7</ele>
      </trkpt>
      <trkpt lat="37.05868" lon="28.29824">
        <ele>164.6</ele>
      </trkpt>
      <trkpt lat="37.05869" lon="28.29832">
        <ele>163.7</ele>
      </trkpt>
      <trkpt lat="37.05875" lon="28.29841">
        <ele>164.2</ele>
      </trkpt>
      <trkpt lat="37.05879" lon="28.29849">
        <ele>164.2</ele>
      </trkpt>
      <trkpt lat="37.05881" lon="28.29857">
        <ele>163.7</ele>
      </trkpt>
      <trkpt lat="37.05888" lon="28.29865">
        <ele>164.3</ele>
      </trkpt>
      <trkpt lat="37.05893" lon="28.29874">
        <ele>164.5</ele>
      </trkpt>
      <trkpt lat="37.059" lon="28.29879">
        <ele>165.2</ele>
      </trkpt>
      <trkpt lat="37.05907" lon="28.29886">
        <ele>165.9</ele>
      </trkpt>
      <trkpt lat="37.0591" lon="28.29892">
        <ele>165.4</ele>
      </trkpt>
      <trkpt lat="37.05914" lon="28.29903">
        <ele>164.5</ele>
      </trkpt>
      <trkpt lat="37.05917" lon="28.29912">
        <ele>163.7</ele>
      </trkpt>
      <trkpt lat="37.05918" lon="28.29918">
        <ele>163.6</ele>
      </trkpt>
      <trkpt lat="37.05922" lon="28.29922">
        <ele>165.1</ele>
      </trkpt>
      <trkpt lat="37.05927" lon="28.29926">
        <ele>166.8</ele>
      </trkpt>
      <trkpt lat="37.0593" lon="28.29929">
        <ele>168.2</ele>
      </trkpt>
      <trkpt lat="37.05931" lon="28.29937">
        <ele>167.8</ele>
      </trkpt>
      <trkpt lat="37.05931" lon="28.29943">
        <ele>167.4</ele>
      </trkpt>
      <trkpt lat="37.05929" lon="28.29954">
        <ele>165.5</ele>
      </trkpt>
      <trkpt lat="37.05931" lon="28.29963">
        <ele>165.6</ele>
      </trkpt>
      <trkpt lat="37.05933" lon="28.29974">
        <ele>165.7</ele>
      </trkpt>
      <trkpt lat="37.05933" lon="28.29982">
        <ele>165.1</ele>
      </trkpt>
      <trkpt lat="37.05933" lon="28.29989">
        <ele>164.5</ele>
      </trkpt>
      <trkpt lat="37.05933" lon="28.29995">
        <ele>164</ele>
      </trkpt>
      <trkpt lat="37.05937" lon="28.30004">
        <ele>164.4</ele>
      </trkpt>
      <trkpt lat="37.0594" lon="28.30012">
        <ele>164.7</ele>
      </trkpt>
      <trkpt lat="37.05944" lon="28.30023">
        <ele>165.3</ele>
      </trkpt>
      <trkpt lat="37.05951" lon="28.3003">
        <ele>167.2</ele>
      </trkpt>
      <trkpt lat="37.05949" lon="28.30042">
        <ele>165.2</ele>
      </trkpt>
      <trkpt lat="37.05948" lon="28.30054">
        <ele>163.5</ele>
      </trkpt>
      <trkpt lat="37.05952" lon="28.30061">
        <ele>164.1</ele>
      </trkpt>
      <trkpt lat="37.05955" lon="28.30069">
        <ele>164.3</ele>
      </trkpt>
      <trkpt lat="37.05962" lon="28.30073">
        <ele>166.4</ele>
      </trkpt>
      <trkpt lat="37.05966" lon="28.30081">
        <ele>167.1</ele>
      </trkpt>
      <trkpt lat="37.05971" lon="28.30091">
        <ele>167.6</ele>
      </trkpt>
      <trkpt lat="37.05974" lon="28.30099">
        <ele>168</ele>
      </trkpt>
      <trkpt lat="37.05981" lon="28.30104">
        <ele>169.7</ele>
      </trkpt>
      <trkpt lat="37.05985" lon="28.30106">
        <ele>171.2</ele>
      </trkpt>
      <trkpt lat="37.05986" lon="28.30114">
        <ele>170.5</ele>
      </trkpt>
      <trkpt lat="37.05987" lon="28.30122">
        <ele>169.8</ele>
      </trkpt>
      <trkpt lat="37.05991" lon="28.30131">
        <ele>170.6</ele>
      </trkpt>
      <trkpt lat="37.0599" lon="28.30141">
        <ele>169</ele>
      </trkpt>
      <trkpt lat="37.05993" lon="28.30147">
        <ele>169.4</ele>
      </trkpt>
      <trkpt lat="37.05996" lon="28.30154">
        <ele>169.7</ele>
      </trkpt>
      <trkpt lat="37.06" lon="28.30163">
        <ele>170.2</ele>
      </trkpt>
      <trkpt lat="37.06004" lon="28.3017">
        <ele>171.5</ele>
      </trkpt>
      <trkpt lat="37.06005" lon="28.30179">
        <ele>171</ele>
      </trkpt>
      <trkpt lat="37.0601" lon="28.30187">
        <ele>172.3</ele>
      </trkpt>
      <trkpt lat="37.06016" lon="28.30196">
        <ele>173.9</ele>
      </trkpt>
      <trkpt lat="37.06019" lon="28.30204">
        <ele>174.4</ele>
      </trkpt>
      <trkpt lat="37.06021" lon="28.3021">
        <ele>174.5</ele>
      </trkpt>
      <trkpt lat="37.06024" lon="28.30219">
        <ele>174.3</ele>
      </trkpt>
      <trkpt lat="37.06028" lon="28.30229">
        <ele>175.2</ele>
      </trkpt>
      <trkpt lat="37.06027" lon="28.30238">
        <ele>173.5</ele>
      </trkpt>
      <trkpt lat="37.06026" lon="28.30247">
        <ele>172.1</ele>
      </trkpt>
      <trkpt lat="37.0603" lon="28.30258">
        <ele>172.8</ele>
      </trkpt>
      <trkpt lat="37.06036" lon="28.30264">
        <ele>175.5</ele>
      </trkpt>
      <trkpt lat="37.06037" lon="28.30273">
        <ele>175.3</ele>
      </trkpt>
      <trkpt lat="37.06034" lon="28.30279">
        <ele>174</ele>
      </trkpt>
      <trkpt lat="37.06033" lon="28.30291">
        <ele>172.6</ele>
      </trkpt>
      <trkpt lat="37.06037" lon="28.30299">
        <ele>174.2</ele>
      </trkpt>
      <trkpt lat="37.06039" lon="28.30309">
        <ele>174.6</ele>
      </trkpt>
      <trkpt lat="37.06039" lon="28.30318">
        <ele>174.4</ele>
      </trkpt>
      <trkpt lat="37.06039" lon="28.30327">
        <ele>173.9</ele>
      </trkpt>
      <trkpt lat="37.06038" lon="28.30337">
        <ele>173.4</ele>
      </trkpt>
      <trkpt lat="37.06035" lon="28.30347">
        <ele>172.2</ele>
      </trkpt>
      <trkpt lat="37.06039" lon="28.30356">
        <ele>173.8</ele>
      </trkpt>
      <trkpt lat="37.06042" lon="28.30362">
        <ele>175.5</ele>
      </trkpt>
      <trkpt lat="37.06041" lon="28.30374">
        <ele>175</ele>
      </trkpt>
      <trkpt lat="37.06042" lon="28.30385">
        <ele>175.3</ele>
      </trkpt>
      <trkpt lat="37.06043" lon="28.30392">
        <ele>176</ele>
      </trkpt>
      <trkpt lat="37.06047" lon="28.304">
        <ele>177.4</ele>
      </trkpt>
      <trkpt lat="37.06046" lon="28.30411">
        <ele>177.2</ele>
      </trkpt>
      <trkpt lat="37.06042" lon="28.30421">
        <ele>175.7</ele>
      </trkpt>
      <trkpt lat="37.06041" lon="28.30432">
        <ele>174.9</ele>
      </trkpt>
      <trkpt lat="37.06038" lon="28.30438">
        <ele>173.9</ele>
      </trkpt>
      <trkpt lat="37.06035" lon="28.3045">
        <ele>172.4</ele>
      </trkpt>
      <trkpt lat="37.06036" lon="28.30458">
        <ele>172.5</ele>
      </trkpt>
      <trkpt lat="37.0604" lon="28.30458">
        <ele>174.3</ele>
      </trkpt>
      <trkpt lat="37.0604" lon="28.30458">
        <ele>174.3</ele>
      </trkpt>
      <trkpt lat="37.06041" lon="28.30464">
        <ele>174.3</ele>
      </trkpt>
      <trkpt lat="37.06036" lon="28.30469">
        <ele>172.5</ele>
      </trkpt>
      <trkpt lat="37.06032" lon="28.30477">
        <ele>170.9</ele>
      </trkpt>
      <trkpt lat="37.06028" lon="28.30486">
        <ele>169.1</ele>
      </trkpt>
      <trkpt lat="37.06025" lon="28.30493">
        <ele>168.2</ele>
      </trkpt>
      <trkpt lat="37.06026" lon="28.30499">
        <ele>168.3</ele>
      </trkpt>
      <trkpt lat="37.06024" lon="28.30507">
        <ele>167.7</ele>
      </trkpt>
      <trkpt lat="37.06021" lon="28.30511">
        <ele>166.5</ele>
      </trkpt>
      <trkpt lat="37.06018" lon="28.30517">
        <ele>165.6</ele>
      </trkpt>
      <trkpt lat="37.06016" lon="28.30528">
        <ele>164.8</ele>
      </trkpt>
      <trkpt lat="37.06016" lon="28.30535">
        <ele>164.8</ele>
      </trkpt>
      <trkpt lat="37.06023" lon="28.30544">
        <ele>167.5</ele>
      </trkpt>
      <trkpt lat="37.06032" lon="28.30553">
        <ele>170.6</ele>
      </trkpt>
      <trkpt lat="37.06037" lon="28.30555">
        <ele>172.3</ele>
      </trkpt>
      <trkpt lat="37.06045" lon="28.30558">
        <ele>175</ele>
      </trkpt>
      <trkpt lat="37.06046" lon="28.30564">
        <ele>175.4</ele>
      </trkpt>
      <trkpt lat="37.06046" lon="28.30564">
        <ele>175.4</ele>
      </trkpt>
      <trkpt lat="37.06046" lon="28.30564">
        <ele>175.4</ele>
      </trkpt>
      <trkpt lat="37.06046" lon="28.30564">
        <ele>175.4</ele>
      </trkpt>
      <trkpt lat="37.06046" lon="28.30564">
        <ele>175.4</ele>
      </trkpt>
      <trkpt lat="37.06046" lon="28.30564">
        <ele>175.4</ele>
      </trkpt>
      <trkpt lat="37.06046" lon="28.30564">
        <ele>175.4</ele>
      </trkpt>
      <trkpt lat="37.06046" lon="28.30564">
        <ele>175.4</ele>
      </trkpt>
      <trkpt lat="37.06045" lon="28.3057">
        <ele>175.2</ele>
      </trkpt>
      <trkpt lat="37.06041" lon="28.30576">
        <ele>173.9</ele>
      </trkpt>
      <trkpt lat="37.06038" lon="28.30584">
        <ele>172.8</ele>
      </trkpt>
      <trkpt lat="37.06033" lon="28.30594">
        <ele>171.3</ele>
      </trkpt>
      <trkpt lat="37.06029" lon="28.306">
        <ele>169.8</ele>
      </trkpt>
      <trkpt lat="37.06024" lon="28.30602">
        <ele>168.3</ele>
      </trkpt>
      <trkpt lat="37.0602" lon="28.3061">
        <ele>166.8</ele>
      </trkpt>
      <trkpt lat="37.06018" lon="28.30616">
        <ele>166.2</ele>
      </trkpt>
      <trkpt lat="37.06018" lon="28.30625">
        <ele>166.3</ele>
      </trkpt>
      <trkpt lat="37.06016" lon="28.30634">
        <ele>165.4</ele>
      </trkpt>
      <trkpt lat="37.06012" lon="28.30647">
        <ele>164.1</ele>
      </trkpt>
      <trkpt lat="37.06012" lon="28.30656">
        <ele>164.4</ele>
      </trkpt>
      <trkpt lat="37.06009" lon="28.30662">
        <ele>163.4</ele>
      </trkpt>
      <trkpt lat="37.06007" lon="28.30672">
        <ele>162.6</ele>
      </trkpt>
      <trkpt lat="37.06006" lon="28.30681">
        <ele>162.2</ele>
      </trkpt>
      <trkpt lat="37.06004" lon="28.30687">
        <ele>161.5</ele>
      </trkpt>
      <trkpt lat="37.06007" lon="28.30698">
        <ele>162.2</ele>
      </trkpt>
      <trkpt lat="37.06007" lon="28.30698">
        <ele>162.2</ele>
      </trkpt>
      <trkpt lat="37.06004" lon="28.30699">
        <ele>161.3</ele>
      </trkpt>
      <trkpt lat="37.05999" lon="28.30707">
        <ele>159.6</ele>
      </trkpt>
      <trkpt lat="37.06" lon="28.30718">
        <ele>159.9</ele>
      </trkpt>
      <trkpt lat="37.05999" lon="28.30724">
        <ele>159.6</ele>
      </trkpt>
      <trkpt lat="37.06001" lon="28.30729">
        <ele>160.3</ele>
      </trkpt>
      <trkpt lat="37.05998" lon="28.30735">
        <ele>159.4</ele>
      </trkpt>
      <trkpt lat="37.05995" lon="28.3074">
        <ele>158.3</ele>
      </trkpt>
      <trkpt lat="37.05992" lon="28.30748">
        <ele>157.4</ele>
      </trkpt>
      <trkpt lat="37.05992" lon="28.30759">
        <ele>157.3</ele>
      </trkpt>
      <trkpt lat="37.05992" lon="28.30769">
        <ele>157.1</ele>
      </trkpt>
      <trkpt lat="37.05992" lon="28.30778">
        <ele>156.6</ele>
      </trkpt>
      <trkpt lat="37.05989" lon="28.30783">
        <ele>155.7</ele>
      </trkpt>
      <trkpt lat="37.05988" lon="28.30792">
        <ele>155.2</ele>
      </trkpt>
      <trkpt lat="37.05982" lon="28.30801">
        <ele>153.4</ele>
      </trkpt>
      <trkpt lat="37.05979" lon="28.30811">
        <ele>152.2</ele>
      </trkpt>
      <trkpt lat="37.05976" lon="28.30819">
        <ele>151.4</ele>
      </trkpt>
      <trkpt lat="37.05972" lon="28.30829">
        <ele>150.4</ele>
      </trkpt>
      <trkpt lat="37.05968" lon="28.30836">
        <ele>149.2</ele>
      </trkpt>
      <trkpt lat="37.05969" lon="28.30847">
        <ele>148.6</ele>
      </trkpt>
      <trkpt lat="37.05965" lon="28.30856">
        <ele>147.2</ele>
      </trkpt>
      <trkpt lat="37.05961" lon="28.30869">
        <ele>145.3</ele>
      </trkpt>
      <trkpt lat="37.05959" lon="28.30877">
        <ele>144.3</ele>
      </trkpt>
      <trkpt lat="37.05958" lon="28.30885">
        <ele>143.6</ele>
      </trkpt>
      <trkpt lat="37.05955" lon="28.30893">
        <ele>142.2</ele>
      </trkpt>
      <trkpt lat="37.0595" lon="28.30899">
        <ele>140.7</ele>
      </trkpt>
      <trkpt lat="37.05949" lon="28.30909">
        <ele>139.8</ele>
      </trkpt>
      <trkpt lat="37.05947" lon="28.30915">
        <ele>138.8</ele>
      </trkpt>
      <trkpt lat="37.05946" lon="28.30921">
        <ele>137.9</ele>
      </trkpt>
      <trkpt lat="37.05942" lon="28.30925">
        <ele>136.6</ele>
      </trkpt>
      <trkpt lat="37.05938" lon="28.30936">
        <ele>134.3</ele>
      </trkpt>
      <trkpt lat="37.05935" lon="28.30943">
        <ele>133</ele>
      </trkpt>
      <trkpt lat="37.05929" lon="28.30951">
        <ele>130.5</ele>
      </trkpt>
      <trkpt lat="37.05925" lon="28.30959">
        <ele>128.5</ele>
      </trkpt>
      <trkpt lat="37.0592" lon="28.30964">
        <ele>126.9</ele>
      </trkpt>
      <trkpt lat="37.05913" lon="28.3097">
        <ele>124.6</ele>
      </trkpt>
      <trkpt lat="37.05909" lon="28.30976">
        <ele>123.4</ele>
      </trkpt>
      <trkpt lat="37.05908" lon="28.30987">
        <ele>122.1</ele>
      </trkpt>
      <trkpt lat="37.05906" lon="28.30994">
        <ele>121.1</ele>
      </trkpt>
      <trkpt lat="37.05901" lon="28.30994">
        <ele>120.3</ele>
      </trkpt>
      <trkpt lat="37.05901" lon="28.30992">
        <ele>120.5</ele>
      </trkpt>
      <trkpt lat="37.05901" lon="28.30992">
        <ele>120.5</ele>
      </trkpt>
      <trkpt lat="37.05901" lon="28.30992">
        <ele>120.5</ele>
      </trkpt>
      <trkpt lat="37.05901" lon="28.30992">
        <ele>120.5</ele>
      </trkpt>
      <trkpt lat="37.05899" lon="28.30998">
        <ele>119.6</ele>
      </trkpt>
      <trkpt lat="37.05896" lon="28.3101">
        <ele>118.2</ele>
      </trkpt>
      <trkpt lat="37.05894" lon="28.31017">
        <ele>117.4</ele>
      </trkpt>
      <trkpt lat="37.05886" lon="28.31021">
        <ele>115.8</ele>
      </trkpt>
      <trkpt lat="37.05882" lon="28.31025">
        <ele>114.7</ele>
      </trkpt>
      <trkpt lat="37.05877" lon="28.31032">
        <ele>113.3</ele>
      </trkpt>
      <trkpt lat="37.05871" lon="28.31042">
        <ele>111.2</ele>
      </trkpt>
      <trkpt lat="37.05865" lon="28.31049">
        <ele>109.1</ele>
      </trkpt>
      <trkpt lat="37.05858" lon="28.31058">
        <ele>106.9</ele>
      </trkpt>
      <trkpt lat="37.05855" lon="28.31067">
        <ele>105.1</ele>
      </trkpt>
      <trkpt lat="37.05849" lon="28.31075">
        <ele>102.9</ele>
      </trkpt>
      <trkpt lat="37.05844" lon="28.31077">
        <ele>101.4</ele>
      </trkpt>
      <trkpt lat="37.0584" lon="28.31079">
        <ele>100.2</ele>
      </trkpt>
      <trkpt lat="37.05831" lon="28.31082">
        <ele>97.6</ele>
      </trkpt>
      <trkpt lat="37.05825" lon="28.31088">
        <ele>96</ele>
      </trkpt>
      <trkpt lat="37.05817" lon="28.3109">
        <ele>94.2</ele>
      </trkpt>
      <trkpt lat="37.0581" lon="28.31092">
        <ele>92.6</ele>
      </trkpt>
      <trkpt lat="37.0581" lon="28.31092">
        <ele>92.6</ele>
      </trkpt>
      <trkpt lat="37.05803" lon="28.31097">
        <ele>90.6</ele>
      </trkpt>
      <trkpt lat="37.05794" lon="28.31097">
        <ele>88.8</ele>
      </trkpt>
      <trkpt lat="37.05794" lon="28.31097">
        <ele>88.8</ele>
      </trkpt>
      <trkpt lat="37.05788" lon="28.31097">
        <ele>87.5</ele>
      </trkpt>
      <trkpt lat="37.05783" lon="28.311">
        <ele>85.9</ele>
      </trkpt>
      <trkpt lat="37.05779" lon="28.31104">
        <ele>84.5</ele>
      </trkpt>
      <trkpt lat="37.05774" lon="28.31105">
        <ele>83.4</ele>
      </trkpt>
      <trkpt lat="37.05765" lon="28.31108">
        <ele>80.8</ele>
      </trkpt>
      <trkpt lat="37.05756" lon="28.3111">
        <ele>78.5</ele>
      </trkpt>
      <trkpt lat="37.05748" lon="28.31116">
        <ele>75.6</ele>
      </trkpt>
      <trkpt lat="37.05743" lon="28.31122">
        <ele>73.3</ele>
      </trkpt>
      <trkpt lat="37.05738" lon="28.31124">
        <ele>71.9</ele>
      </trkpt>
      <trkpt lat="37.05735" lon="28.31128">
        <ele>70.5</ele>
      </trkpt>
      <trkpt lat="37.05732" lon="28.31126">
        <ele>70.3</ele>
      </trkpt>
      <trkpt lat="37.05732" lon="28.31127">
        <ele>70</ele>
      </trkpt>
      <trkpt lat="37.0573" lon="28.31134">
        <ele>68.6</ele>
      </trkpt>
      <trkpt lat="37.0573" lon="28.31134">
        <ele>68.6</ele>
      </trkpt>
      <trkpt lat="37.05731" lon="28.31134">
        <ele>68.6</ele>
      </trkpt>
      <trkpt lat="37.05728" lon="28.31135">
        <ele>67.9</ele>
      </trkpt>
      <trkpt lat="37.05726" lon="28.31142">
        <ele>66.4</ele>
      </trkpt>
      <trkpt lat="37.05726" lon="28.31143">
        <ele>66.2</ele>
      </trkpt>
      <trkpt lat="37.05722" lon="28.31152">
        <ele>64.2</ele>
      </trkpt>
      <trkpt lat="37.0572" lon="28.31153">
        <ele>63.5</ele>
      </trkpt>
      <trkpt lat="37.05717" lon="28.31156">
        <ele>62.6</ele>
      </trkpt>
      <trkpt lat="37.05716" lon="28.31158">
        <ele>62.1</ele>
      </trkpt>
      <trkpt lat="37.05711" lon="28.31159">
        <ele>60.9</ele>
      </trkpt>
      <trkpt lat="37.05706" lon="28.31159">
        <ele>60.1</ele>
      </trkpt>
      <trkpt lat="37.05704" lon="28.31159">
        <ele>59.8</ele>
      </trkpt>
      <trkpt lat="37.057" lon="28.3116">
        <ele>58.7</ele>
      </trkpt>
      <trkpt lat="37.05696" lon="28.31161">
        <ele>58</ele>
      </trkpt>
      <trkpt lat="37.0569" lon="28.31159">
        <ele>57</ele>
      </trkpt>
      <trkpt lat="37.05687" lon="28.3116">
        <ele>56.4</ele>
      </trkpt>
      <trkpt lat="37.05683" lon="28.31159">
        <ele>55.7</ele>
      </trkpt>
      <trkpt lat="37.05678" lon="28.31158">
        <ele>54.9</ele>
      </trkpt>
      <trkpt lat="37.05673" lon="28.31157">
        <ele>54</ele>
      </trkpt>
      <trkpt lat="37.05669" lon="28.31156">
        <ele>53.3</ele>
      </trkpt>
      <trkpt lat="37.05663" lon="28.31156">
        <ele>52.1</ele>
      </trkpt>
      <trkpt lat="37.05659" lon="28.31157">
        <ele>51.1</ele>
      </trkpt>
      <trkpt lat="37.05658" lon="28.31159">
        <ele>50.8</ele>
      </trkpt>
      <trkpt lat="37.05654" lon="28.3116">
        <ele>49.9</ele>
      </trkpt>
      <trkpt lat="37.0565" lon="28.31162">
        <ele>48.8</ele>
      </trkpt>
      <trkpt lat="37.05645" lon="28.31163">
        <ele>47.6</ele>
      </trkpt>
      <trkpt lat="37.05641" lon="28.3116">
        <ele>47</ele>
      </trkpt>
      <trkpt lat="37.0564" lon="28.31164">
        <ele>46.5</ele>
      </trkpt>
      <trkpt lat="37.05642" lon="28.31172">
        <ele>46.7</ele>
      </trkpt>
      <trkpt lat="37.05642" lon="28.31172">
        <ele>46.9</ele>
      </trkpt>
      <trkpt lat="37.05637" lon="28.31181">
        <ele>45.9</ele>
      </trkpt>
      <trkpt lat="37.05636" lon="28.31185">
        <ele>45.9</ele>
      </trkpt>
      <trkpt lat="37.05633" lon="28.31189">
        <ele>45.3</ele>
      </trkpt>
      <trkpt lat="37.05632" lon="28.31192">
        <ele>45.1</ele>
      </trkpt>
      <trkpt lat="37.05629" lon="28.31199">
        <ele>44.4</ele>
      </trkpt>
      <trkpt lat="37.05625" lon="28.31203">
        <ele>43.5</ele>
      </trkpt>
      <trkpt lat="37.05621" lon="28.31204">
        <ele>42.6</ele>
      </trkpt>
      <trkpt lat="37.05614" lon="28.31207">
        <ele>41</ele>
      </trkpt>
      <trkpt lat="37.05609" lon="28.31208">
        <ele>39.9</ele>
      </trkpt>
      <trkpt lat="37.05604" lon="28.31214">
        <ele>38.5</ele>
      </trkpt>
      <trkpt lat="37.05599" lon="28.31218">
        <ele>37.4</ele>
      </trkpt>
      <trkpt lat="37.05596" lon="28.31221">
        <ele>36.5</ele>
      </trkpt>
      <trkpt lat="37.05592" lon="28.31226">
        <ele>35.6</ele>
      </trkpt>
      <trkpt lat="37.05592" lon="28.31231">
        <ele>35.5</ele>
      </trkpt>
      <trkpt lat="37.05588" lon="28.31237">
        <ele>34.5</ele>
      </trkpt>
      <trkpt lat="37.05586" lon="28.31241">
        <ele>33.8</ele>
      </trkpt>
      <trkpt lat="37.05579" lon="28.31245">
        <ele>32.9</ele>
      </trkpt>
      <trkpt lat="37.05579" lon="28.31246">
        <ele>32.9</ele>
      </trkpt>
      <trkpt lat="37.05575" lon="28.31253">
        <ele>32.8</ele>
      </trkpt>
      <trkpt lat="37.05572" lon="28.31259">
        <ele>32.9</ele>
      </trkpt>
      <trkpt lat="37.05571" lon="28.31262">
        <ele>33</ele>
      </trkpt>
      <trkpt lat="37.05569" lon="28.31262">
        <ele>32.9</ele>
      </trkpt>
      <trkpt lat="37.05566" lon="28.31266">
        <ele>33</ele>
      </trkpt>
      <trkpt lat="37.05566" lon="28.31268">
        <ele>33</ele>
      </trkpt>
      <trkpt lat="37.05565" lon="28.31283">
        <ele>33.5</ele>
      </trkpt>
      <trkpt lat="37.05563" lon="28.31291">
        <ele>33.7</ele>
      </trkpt>
      <trkpt lat="37.05557" lon="28.31302">
        <ele>33.9</ele>
      </trkpt>
      <trkpt lat="37.05555" lon="28.3131">
        <ele>34.1</ele>
      </trkpt>
      <trkpt lat="37.0555" lon="28.31321">
        <ele>34.4</ele>
      </trkpt>
      <trkpt lat="37.05548" lon="28.31322">
        <ele>34.3</ele>
      </trkpt>
      <trkpt lat="37.05545" lon="28.31328">
        <ele>34.4</ele>
      </trkpt>
      <trkpt lat="37.05543" lon="28.31333">
        <ele>34.5</ele>
      </trkpt>
      <trkpt lat="37.05541" lon="28.31345">
        <ele>34.5</ele>
      </trkpt>
      <trkpt lat="37.05542" lon="28.31348">
        <ele>34.5</ele>
      </trkpt>
      <trkpt lat="37.05541" lon="28.31356">
        <ele>34.5</ele>
      </trkpt>
      <trkpt lat="37.05542" lon="28.31361">
        <ele>34.5</ele>
      </trkpt>
      <trkpt lat="37.05542" lon="28.31367">
        <ele>34.5</ele>
      </trkpt>
      <trkpt lat="37.05544" lon="28.31379">
        <ele>34.5</ele>
      </trkpt>
      <trkpt lat="37.05545" lon="28.31381">
        <ele>34.5</ele>
      </trkpt>
      <trkpt lat="37.05545" lon="28.31388">
        <ele>34.5</ele>
      </trkpt>
      <trkpt lat="37.05546" lon="28.31392">
        <ele>34.4</ele>
      </trkpt>
      <trkpt lat="37.05557" lon="28.31404">
        <ele>34.1</ele>
      </trkpt>
      <trkpt lat="37.05564" lon="28.3141">
        <ele>33.8</ele>
      </trkpt>
      <trkpt lat="37.05574" lon="28.31413">
        <ele>33.4</ele>
      </trkpt>
      <trkpt lat="37.05578" lon="28.31429">
        <ele>33.6</ele>
      </trkpt>
      <trkpt lat="37.05576" lon="28.31441">
        <ele>34.1</ele>
      </trkpt>
      <trkpt lat="37.05575" lon="28.31442">
        <ele>34.1</ele>
      </trkpt>
      <trkpt lat="37.05574" lon="28.31453">
        <ele>34.6</ele>
      </trkpt>
      <trkpt lat="37.05576" lon="28.31468">
        <ele>35</ele>
      </trkpt>
      <trkpt lat="37.05577" lon="28.31475">
        <ele>35.2</ele>
      </trkpt>
      <trkpt lat="37.05579" lon="28.31481">
        <ele>35.4</ele>
      </trkpt>
      <trkpt lat="37.05582" lon="28.31492">
        <ele>35.7</ele>
      </trkpt>
      <trkpt lat="37.05582" lon="28.31493">
        <ele>35.8</ele>
      </trkpt>
      <trkpt lat="37.05583" lon="28.31504">
        <ele>36.2</ele>
      </trkpt>
      <trkpt lat="37.0558" lon="28.31513">
        <ele>36.6</ele>
      </trkpt>
      <trkpt lat="37.05579" lon="28.31514">
        <ele>36.7</ele>
      </trkpt>
      <trkpt lat="37.05577" lon="28.31523">
        <ele>37.2</ele>
      </trkpt>
      <trkpt lat="37.05577" lon="28.31529">
        <ele>37.4</ele>
      </trkpt>
      <trkpt lat="37.05577" lon="28.31536">
        <ele>37.7</ele>
      </trkpt>
      <trkpt lat="37.05576" lon="28.31543">
        <ele>38.1</ele>
      </trkpt>
      <trkpt lat="37.05575" lon="28.31553">
        <ele>38.5</ele>
      </trkpt>
      <trkpt lat="37.05575" lon="28.31561">
        <ele>38.9</ele>
      </trkpt>
      <trkpt lat="37.05576" lon="28.3157">
        <ele>39.3</ele>
      </trkpt>
      <trkpt lat="37.05577" lon="28.3158">
        <ele>39.8</ele>
      </trkpt>
      <trkpt lat="37.05577" lon="28.31584">
        <ele>40</ele>
      </trkpt>
      <trkpt lat="37.05578" lon="28.31591">
        <ele>40.6</ele>
      </trkpt>
      <trkpt lat="37.05579" lon="28.31599">
        <ele>41.4</ele>
      </trkpt>
      <trkpt lat="37.05578" lon="28.31605">
        <ele>41.9</ele>
      </trkpt>
      <trkpt lat="37.05577" lon="28.31617">
        <ele>43.1</ele>
      </trkpt>
      <trkpt lat="37.05578" lon="28.31631">
        <ele>44.4</ele>
      </trkpt>
      <trkpt lat="37.05577" lon="28.31638">
        <ele>45</ele>
      </trkpt>
      <trkpt lat="37.05579" lon="28.31648">
        <ele>46</ele>
      </trkpt>
      <trkpt lat="37.0558" lon="28.31651">
        <ele>46.3</ele>
      </trkpt>
      <trkpt lat="37.0558" lon="28.31657">
        <ele>46.9</ele>
      </trkpt>
      <trkpt lat="37.05581" lon="28.31659">
        <ele>47.1</ele>
      </trkpt>
      <trkpt lat="37.05584" lon="28.31669">
        <ele>48.2</ele>
      </trkpt>
      <trkpt lat="37.05583" lon="28.31675">
        <ele>48.7</ele>
      </trkpt>
      <trkpt lat="37.05583" lon="28.31679">
        <ele>49</ele>
      </trkpt>
      <trkpt lat="37.05583" lon="28.31688">
        <ele>49.8</ele>
      </trkpt>
      <trkpt lat="37.05586" lon="28.31697">
        <ele>50.9</ele>
      </trkpt>
      <trkpt lat="37.05587" lon="28.31704">
        <ele>51.5</ele>
      </trkpt>
      <trkpt lat="37.05591" lon="28.31714">
        <ele>52.7</ele>
      </trkpt>
      <trkpt lat="37.0559" lon="28.31716">
        <ele>52.8</ele>
      </trkpt>
      <trkpt lat="37.05591" lon="28.31723">
        <ele>53.4</ele>
      </trkpt>
      <trkpt lat="37.05591" lon="28.31729">
        <ele>53.9</ele>
      </trkpt>
      <trkpt lat="37.05594" lon="28.31737">
        <ele>54.7</ele>
      </trkpt>
      <trkpt lat="37.05595" lon="28.31738">
        <ele>54.8</ele>
      </trkpt>
      <trkpt lat="37.05595" lon="28.31743">
        <ele>55.2</ele>
      </trkpt>
      <trkpt lat="37.05595" lon="28.31747">
        <ele>55.5</ele>
      </trkpt>
      <trkpt lat="37.05594" lon="28.31748">
        <ele>55.5</ele>
      </trkpt>
      <trkpt lat="37.05597" lon="28.31753">
        <ele>55.8</ele>
      </trkpt>
      <trkpt lat="37.05593" lon="28.31774">
        <ele>55.3</ele>
      </trkpt>
      <trkpt lat="37.05588" lon="28.31783">
        <ele>54.7</ele>
      </trkpt>
      <trkpt lat="37.05585" lon="28.31786">
        <ele>54.3</ele>
      </trkpt>
      <trkpt lat="37.05581" lon="28.3179">
        <ele>53.8</ele>
      </trkpt>
      <trkpt lat="37.05575" lon="28.31793">
        <ele>53.1</ele>
      </trkpt>
      <trkpt lat="37.0557" lon="28.31798">
        <ele>52.4</ele>
      </trkpt>
      <trkpt lat="37.05564" lon="28.31804">
        <ele>51.6</ele>
      </trkpt>
      <trkpt lat="37.05562" lon="28.31807">
        <ele>51.3</ele>
      </trkpt>
      <trkpt lat="37.05557" lon="28.31812">
        <ele>50.6</ele>
      </trkpt>
      <trkpt lat="37.05548" lon="28.31819">
        <ele>49.6</ele>
      </trkpt>
      <trkpt lat="37.05546" lon="28.3182">
        <ele>49.2</ele>
      </trkpt>
      <trkpt lat="37.05541" lon="28.31827">
        <ele>48.5</ele>
      </trkpt>
      <trkpt lat="37.05539" lon="28.3183">
        <ele>48.3</ele>
      </trkpt>
      <trkpt lat="37.05534" lon="28.31836">
        <ele>47.6</ele>
      </trkpt>
      <trkpt lat="37.05531" lon="28.31839">
        <ele>47.2</ele>
      </trkpt>
      <trkpt lat="37.05526" lon="28.31843">
        <ele>46.5</ele>
      </trkpt>
      <trkpt lat="37.05525" lon="28.31847">
        <ele>46.3</ele>
      </trkpt>
      <trkpt lat="37.05521" lon="28.31854">
        <ele>45.4</ele>
      </trkpt>
      <trkpt lat="37.05518" lon="28.31857">
        <ele>44.9</ele>
      </trkpt>
      <trkpt lat="37.05514" lon="28.31865">
        <ele>44</ele>
      </trkpt>
      <trkpt lat="37.05513" lon="28.3187">
        <ele>43.7</ele>
      </trkpt>
      <trkpt lat="37.05509" lon="28.31879">
        <ele>42.7</ele>
      </trkpt>
      <trkpt lat="37.05502" lon="28.31887">
        <ele>41.1</ele>
      </trkpt>
      <trkpt lat="37.05496" lon="28.31893">
        <ele>40.3</ele>
      </trkpt>
      <trkpt lat="37.05492" lon="28.31895">
        <ele>40.2</ele>
      </trkpt>
      <trkpt lat="37.05487" lon="28.31901">
        <ele>39.7</ele>
      </trkpt>
      <trkpt lat="37.05481" lon="28.31904">
        <ele>39.5</ele>
      </trkpt>
      <trkpt lat="37.05477" lon="28.31908">
        <ele>39.2</ele>
      </trkpt>
      <trkpt lat="37.05473" lon="28.31912">
        <ele>38.9</ele>
      </trkpt>
      <trkpt lat="37.05471" lon="28.31917">
        <ele>38.6</ele>
      </trkpt>
      <trkpt lat="37.05468" lon="28.31925">
        <ele>38.4</ele>
      </trkpt>
      <trkpt lat="37.05462" lon="28.31934">
        <ele>38</ele>
      </trkpt>
      <trkpt lat="37.0546" lon="28.3194">
        <ele>37.8</ele>
      </trkpt>
      <trkpt lat="37.05459" lon="28.31941">
        <ele>37.8</ele>
      </trkpt>
      <trkpt lat="37.05459" lon="28.31953">
        <ele>37.4</ele>
      </trkpt>
      <trkpt lat="37.05457" lon="28.31958">
        <ele>37.2</ele>
      </trkpt>
      <trkpt lat="37.05451" lon="28.31969">
        <ele>36.8</ele>
      </trkpt>
      <trkpt lat="37.05449" lon="28.31973">
        <ele>36.6</ele>
      </trkpt>
      <trkpt lat="37.0545" lon="28.31975">
        <ele>36.6</ele>
      </trkpt>
      <trkpt lat="37.05447" lon="28.32">
        <ele>35.7</ele>
      </trkpt>
      <trkpt lat="37.0545" lon="28.32011">
        <ele>35.5</ele>
      </trkpt>
      <trkpt lat="37.05475" lon="28.32106">
        <ele>34.6</ele>
      </trkpt>
      <trkpt lat="37.05493" lon="28.32184">
        <ele>33</ele>
      </trkpt>
      <trkpt lat="37.05513" lon="28.3227">
        <ele>37.1</ele>
      </trkpt>
      <trkpt lat="37.05528" lon="28.32334">
        <ele>39.4</ele>
      </trkpt>
      <trkpt lat="37.05536" lon="28.3236">
        <ele>39.7</ele>
      </trkpt>
      <trkpt lat="37.05538" lon="28.32356">
        <ele>39.9</ele>
      </trkpt>
      <trkpt lat="37.05542" lon="28.32379">
        <ele>40</ele>
      </trkpt>
      <trkpt lat="37.05543" lon="28.32378">
        <ele>40.1</ele>
      </trkpt>
      <trkpt lat="37.05517" lon="28.32394">
        <ele>37.3</ele>
      </trkpt>
      <trkpt lat="37.05497" lon="28.32408">
        <ele>34.9</ele>
      </trkpt>
      <trkpt lat="37.0546" lon="28.32426">
        <ele>30</ele>
      </trkpt>
      <trkpt lat="37.05426" lon="28.32442">
        <ele>26.1</ele>
      </trkpt>
      <trkpt lat="37.05395" lon="28.32459">
        <ele>22.4</ele>
      </trkpt>
      <trkpt lat="37.0536" lon="28.32482">
        <ele>18.9</ele>
      </trkpt>
      <trkpt lat="37.05335" lon="28.32504">
        <ele>17.3</ele>
      </trkpt>
      <trkpt lat="37.05303" lon="28.32495">
        <ele>14.2</ele>
      </trkpt>
      <trkpt lat="37.05268" lon="28.32485">
        <ele>11</ele>
      </trkpt>
      <trkpt lat="37.05236" lon="28.32475">
        <ele>8.8</ele>
      </trkpt>
      <trkpt lat="37.05193" lon="28.3246">
        <ele>6.7</ele>
      </trkpt>
      <trkpt lat="37.05185" lon="28.32486">
        <ele>7.2</ele>
      </trkpt>
      <trkpt lat="37.05179" lon="28.3251">
        <ele>7.3</ele>
      </trkpt>
      <trkpt lat="37.05176" lon="28.32538">
        <ele>6.9</ele>
      </trkpt>
      <trkpt lat="37.05175" lon="28.32572">
        <ele>6.5</ele>
      </trkpt>
      <trkpt lat="37.05176" lon="28.32593">
        <ele>6.4</ele>
      </trkpt>
      <trkpt lat="37.05188" lon="28.32611">
        <ele>6.8</ele>
      </trkpt>
      <trkpt lat="37.05192" lon="28.32651">
        <ele>6.7</ele>
      </trkpt>
      <trkpt lat="37.05198" lon="28.32695">
        <ele>6.5</ele>
      </trkpt>
      <trkpt lat="37.05203" lon="28.32744">
        <ele>6.3</ele>
      </trkpt>
      <trkpt lat="37.05206" lon="28.32778">
        <ele>5.4</ele>
      </trkpt>
      <trkpt lat="37.05213" lon="28.32834">
        <ele>3.6</ele>
      </trkpt>
      <trkpt lat="37.05213" lon="28.32834">
        <ele>3.6</ele>
      </trkpt>
      <trkpt lat="37.05213" lon="28.32834">
        <ele>3.6</ele>
      </trkpt>
      <trkpt lat="37.05213" lon="28.32834">
        <ele>3.6</ele>
      </trkpt>
      <trkpt lat="37.05239" lon="28.32848">
        <ele>3.7</ele>
      </trkpt>
      <trkpt lat="37.05266" lon="28.3288">
        <ele>4.4</ele>
      </trkpt>
      <trkpt lat="37.05294" lon="28.32908">
        <ele>5.3</ele>
      </trkpt>
      <trkpt lat="37.05324" lon="28.32941">
        <ele>6</ele>
      </trkpt>
      <trkpt lat="37.05341" lon="28.32961">
        <ele>6.6</ele>
      </trkpt>
      <trkpt lat="37.05363" lon="28.32992">
        <ele>7.1</ele>
      </trkpt>
      <trkpt lat="37.05367" lon="28.33024">
        <ele>6.3</ele>
      </trkpt>
      <trkpt lat="37.05389" lon="28.33065">
        <ele>6.2</ele>
      </trkpt>
      <trkpt lat="37.05408" lon="28.33101">
        <ele>6.8</ele>
      </trkpt>
      <trkpt lat="37.05422" lon="28.33119">
        <ele>7.7</ele>
      </trkpt>
      <trkpt lat="37.05438" lon="28.33139">
        <ele>8.4</ele>
      </trkpt>
      <trkpt lat="37.05463" lon="28.33168">
        <ele>9.1</ele>
      </trkpt>
      <trkpt lat="37.05518" lon="28.3323">
        <ele>10.6</ele>
      </trkpt>
      <trkpt lat="37.05531" lon="28.33246">
        <ele>10.8</ele>
      </trkpt>
      <trkpt lat="37.05575" lon="28.3331">
        <ele>8.9</ele>
      </trkpt>
      <trkpt lat="37.05585" lon="28.33324">
        <ele>8.5</ele>
      </trkpt>
      <trkpt lat="37.05592" lon="28.33334">
        <ele>8.4</ele>
      </trkpt>
      <trkpt lat="37.05598" lon="28.33356">
        <ele>7.7</ele>
      </trkpt>
      <trkpt lat="37.05611" lon="28.33379">
        <ele>7.5</ele>
      </trkpt>
      <trkpt lat="37.05625" lon="28.33396">
        <ele>7.8</ele>
      </trkpt>
      <trkpt lat="37.05647" lon="28.33409">
        <ele>8.8</ele>
      </trkpt>
      <trkpt lat="37.05658" lon="28.33396">
        <ele>10</ele>
      </trkpt>
      <trkpt lat="37.05652" lon="28.33432">
        <ele>9.9</ele>
      </trkpt>
      <trkpt lat="37.05631" lon="28.33492">
        <ele>10.9</ele>
      </trkpt>
      <trkpt lat="37.05611" lon="28.33552">
        <ele>10.1</ele>
      </trkpt>
      <trkpt lat="37.05611" lon="28.33584">
        <ele>11</ele>
      </trkpt>
      <trkpt lat="37.05616" lon="28.33617">
        <ele>12.6</ele>
      </trkpt>
      <trkpt lat="37.05613" lon="28.33659">
        <ele>13.1</ele>
      </trkpt>
      <trkpt lat="37.05607" lon="28.33681">
        <ele>12.4</ele>
      </trkpt>
      <trkpt lat="37.05594" lon="28.33705">
        <ele>10.5</ele>
      </trkpt>
      <trkpt lat="37.05579" lon="28.3373">
        <ele>8.8</ele>
      </trkpt>
      <trkpt lat="37.05708" lon="28.33762">
        <ele>45.9</ele>
      </trkpt>
      <trkpt lat="37.05729" lon="28.33775">
        <ele>53.7</ele>
      </trkpt>
      <trkpt lat="37.05744" lon="28.33805">
        <ele>59.5</ele>
      </trkpt>
      <trkpt lat="37.05716" lon="28.33846">
        <ele>52.8</ele>
      </trkpt>
      <trkpt lat="37.05684" lon="28.33956">
        <ele>54.1</ele>
      </trkpt>
      <trkpt lat="37.05665" lon="28.34005">
        <ele>54.7</ele>
      </trkpt>
      <trkpt lat="37.05644" lon="28.34057">
        <ele>52.1</ele>
      </trkpt>
      <trkpt lat="37.0565" lon="28.34061">
        <ele>52.7</ele>
      </trkpt>
      <trkpt lat="37.05644" lon="28.34057">
        <ele>52.1</ele>
      </trkpt>
      <trkpt lat="37.05611" lon="28.34138">
        <ele>47.8</ele>
      </trkpt>
      <trkpt lat="37.05551" lon="28.3428">
        <ele>37.1</ele>
      </trkpt>
      <trkpt lat="37.05498" lon="28.34271">
        <ele>29.9</ele>
      </trkpt>
      <trkpt lat="37.05457" lon="28.34305">
        <ele>24.8</ele>
      </trkpt>
      <trkpt lat="37.05452" lon="28.34329">
        <ele>25.1</ele>
      </trkpt>
      <trkpt lat="37.05452" lon="28.3435">
        <ele>25.6</ele>
      </trkpt>
      <trkpt lat="37.0544" lon="28.34363">
        <ele>24.2</ele>
      </trkpt>
      <trkpt lat="37.05399" lon="28.3437">
        <ele>19.2</ele>
      </trkpt>
      <trkpt lat="37.0538" lon="28.34368">
        <ele>16.8</ele>
      </trkpt>
      <trkpt lat="37.05385" lon="28.34387">
        <ele>17.6</ele>
      </trkpt>
      <trkpt lat="37.05381" lon="28.34477">
        <ele>16.2</ele>
      </trkpt>
      <trkpt lat="37.05377" lon="28.34577">
        <ele>14.8</ele>
      </trkpt>
      <trkpt lat="37.05375" lon="28.34637">
        <ele>15.2</ele>
      </trkpt>
      <trkpt lat="37.05373" lon="28.34695">
        <ele>14.2</ele>
      </trkpt>
      <trkpt lat="37.05367" lon="28.34845">
        <ele>12</ele>
      </trkpt>
      <trkpt lat="37.05361" lon="28.34988">
        <ele>13.1</ele>
      </trkpt>
      <trkpt lat="37.05358" lon="28.3503">
        <ele>15.1</ele>
      </trkpt>
      <trkpt lat="37.05351" lon="28.35072">
        <ele>16.9</ele>
      </trkpt>
      <trkpt lat="37.05328" lon="28.35127">
        <ele>19.7</ele>
      </trkpt>
      <trkpt lat="37.05295" lon="28.35196">
        <ele>24.4</ele>
      </trkpt>
      <trkpt lat="37.05256" lon="28.35257">
        <ele>24.1</ele>
      </trkpt>
      <trkpt lat="37.05251" lon="28.35264">
        <ele>23.5</ele>
      </trkpt>
      <trkpt lat="37.05244" lon="28.35273">
        <ele>23.4</ele>
      </trkpt>
      <trkpt lat="37.05244" lon="28.35273">
        <ele>23.4</ele>
      </trkpt>
      <trkpt lat="37.05244" lon="28.35273">
        <ele>23.4</ele>
      </trkpt>
      <trkpt lat="37.05244" lon="28.35273">
        <ele>23.4</ele>
      </trkpt>
      <trkpt lat="37.05244" lon="28.35273">
        <ele>23.4</ele>
      </trkpt>
      <trkpt lat="37.05244" lon="28.35273">
        <ele>23.4</ele>
      </trkpt>
      <trkpt lat="37.05221" lon="28.35307">
        <ele>23.7</ele>
      </trkpt>
      <trkpt lat="37.05208" lon="28.35347">
        <ele>23.8</ele>
      </trkpt>
      <trkpt lat="37.05208" lon="28.3535">
        <ele>23.8</ele>
      </trkpt>
      <trkpt lat="37.05211" lon="28.35357">
        <ele>24.1</ele>
      </trkpt>
      <trkpt lat="37.05216" lon="28.35369">
        <ele>24.5</ele>
      </trkpt>
      <trkpt lat="37.0525" lon="28.35428">
        <ele>26.1</ele>
      </trkpt>
      <trkpt lat="37.05259" lon="28.35444">
        <ele>28.3</ele>
      </trkpt>
      <trkpt lat="37.05287" lon="28.355">
        <ele>33.9</ele>
      </trkpt>
      <trkpt lat="37.05304" lon="28.35558">
        <ele>35.6</ele>
      </trkpt>
      <trkpt lat="37.05313" lon="28.35651">
        <ele>29.4</ele>
      </trkpt>
      <trkpt lat="37.05314" lon="28.35664">
        <ele>28.3</ele>
      </trkpt>
      <trkpt lat="37.05328" lon="28.35727">
        <ele>25.4</ele>
      </trkpt>
      <trkpt lat="37.05353" lon="28.35748">
        <ele>28</ele>
      </trkpt>
      <trkpt lat="37.05382" lon="28.35771">
        <ele>30.5</ele>
      </trkpt>
      <trkpt lat="37.05423" lon="28.35811">
        <ele>30.4</ele>
      </trkpt>
      <trkpt lat="37.05429" lon="28.35821">
        <ele>31</ele>
      </trkpt>
      <trkpt lat="37.05447" lon="28.35855">
        <ele>34.3</ele>
      </trkpt>
      <trkpt lat="37.0541" lon="28.35882">
        <ele>22.3</ele>
      </trkpt>
      <trkpt lat="37.05358" lon="28.35905">
        <ele>20.7</ele>
      </trkpt>
      <trkpt lat="37.05345" lon="28.35908">
        <ele>20.4</ele>
      </trkpt>
      <trkpt lat="37.05278" lon="28.35909">
        <ele>20.6</ele>
      </trkpt>
      <trkpt lat="37.0526" lon="28.35909">
        <ele>20.8</ele>
      </trkpt>
      <trkpt lat="37.05253" lon="28.35909">
        <ele>20.9</ele>
      </trkpt>
      <trkpt lat="37.05253" lon="28.35909">
        <ele>20.9</ele>
      </trkpt>
      <trkpt lat="37.05253" lon="28.35909">
        <ele>20.9</ele>
      </trkpt>
      <trkpt lat="37.05253" lon="28.35909">
        <ele>20.9</ele>
      </trkpt>
      <trkpt lat="37.05253" lon="28.35909">
        <ele>20.9</ele>
      </trkpt>
      <trkpt lat="37.05253" lon="28.35909">
        <ele>20.9</ele>
      </trkpt>
      <trkpt lat="37.05253" lon="28.35909">
        <ele>20.9</ele>
      </trkpt>
      <trkpt lat="37.05253" lon="28.35909">
        <ele>20.9</ele>
      </trkpt>
      <trkpt lat="37.05245" lon="28.35909">
        <ele>20.9</ele>
      </trkpt>
      <trkpt lat="37.05208" lon="28.35908">
        <ele>20.8</ele>
      </trkpt>
      <trkpt lat="37.05163" lon="28.35908">
        <ele>20.7</ele>
      </trkpt>
      <trkpt lat="37.05083" lon="28.35907">
        <ele>19.9</ele>
      </trkpt>
      <trkpt lat="37.05059" lon="28.35907">
        <ele>19.6</ele>
      </trkpt>
      <trkpt lat="37.05032" lon="28.35907">
        <ele>19.3</ele>
      </trkpt>
      <trkpt lat="37.0499" lon="28.35903">
        <ele>18.9</ele>
      </trkpt>
      <trkpt lat="37.04975" lon="28.359">
        <ele>18.8</ele>
      </trkpt>
      <trkpt lat="37.04975" lon="28.359">
        <ele>18.8</ele>
      </trkpt>
      <trkpt lat="37.04979" lon="28.35901">
        <ele>18.8</ele>
      </trkpt>
      <trkpt lat="37.04966" lon="28.35898">
        <ele>18.7</ele>
      </trkpt>
      <trkpt lat="37.04966" lon="28.35898">
        <ele>18.7</ele>
      </trkpt>
      <trkpt lat="37.04966" lon="28.35898">
        <ele>18.7</ele>
      </trkpt>
      <trkpt lat="37.04966" lon="28.35898">
        <ele>18.7</ele>
      </trkpt>
      <trkpt lat="37.04955" lon="28.35899">
        <ele>18.6</ele>
      </trkpt>
      <trkpt lat="37.04948" lon="28.35894">
        <ele>18.5</ele>
      </trkpt>
      <trkpt lat="37.0494" lon="28.3589">
        <ele>18.5</ele>
      </trkpt>
      <trkpt lat="37.04929" lon="28.35888">
        <ele>18.4</ele>
      </trkpt>
      <trkpt lat="37.04909" lon="28.35887">
        <ele>18.3</ele>
      </trkpt>
      <trkpt lat="37.04903" lon="28.35887">
        <ele>18.3</ele>
      </trkpt>
      <trkpt lat="37.04888" lon="28.35886">
        <ele>18.2</ele>
      </trkpt>
      <trkpt lat="37.04835" lon="28.35884">
        <ele>17.8</ele>
      </trkpt>
      <trkpt lat="37.04835" lon="28.35884">
        <ele>17.8</ele>
      </trkpt>
      <trkpt lat="37.04835" lon="28.35884">
        <ele>17.8</ele>
      </trkpt>
      <trkpt lat="37.04835" lon="28.35884">
        <ele>17.8</ele>
      </trkpt>
      <trkpt lat="37.04835" lon="28.35884">
        <ele>17.8</ele>
      </trkpt>
      <trkpt lat="37.0472" lon="28.35886">
        <ele>16.1</ele>
      </trkpt>
      <trkpt lat="37.0472" lon="28.35886">
        <ele>16.1</ele>
      </trkpt>
      <trkpt lat="37.0472" lon="28.35886">
        <ele>16.1</ele>
      </trkpt>
      <trkpt lat="37.0472" lon="28.35886">
        <ele>16.1</ele>
      </trkpt>
      <trkpt lat="37.0472" lon="28.35886">
        <ele>16.1</ele>
      </trkpt>
      <trkpt lat="37.0463" lon="28.35886">
        <ele>15.6</ele>
      </trkpt>
      <trkpt lat="37.0463" lon="28.35886">
        <ele>15.6</ele>
      </trkpt>
      <trkpt lat="37.0463" lon="28.35886">
        <ele>15.6</ele>
      </trkpt>
      <trkpt lat="37.0463" lon="28.35886">
        <ele>15.6</ele>
      </trkpt>
      <trkpt lat="37.0463" lon="28.35886">
        <ele>15.6</ele>
      </trkpt>
      <trkpt lat="37.0463" lon="28.35886">
        <ele>15.6</ele>
      </trkpt>
      <trkpt lat="37.0463" lon="28.35886">
        <ele>15.6</ele>
      </trkpt>
      <trkpt lat="37.04561" lon="28.35885">
        <ele>16.1</ele>
      </trkpt>
      <trkpt lat="37.04561" lon="28.35885">
        <ele>16.1</ele>
      </trkpt>
      <trkpt lat="37.04561" lon="28.35885">
        <ele>16.1</ele>
      </trkpt>
      <trkpt lat="37.04561" lon="28.35885">
        <ele>16.1</ele>
      </trkpt>
      <trkpt lat="37.04561" lon="28.35885">
        <ele>16.1</ele>
      </trkpt>
      <trkpt lat="37.04561" lon="28.35885">
        <ele>16.1</ele>
      </trkpt>
      <trkpt lat="37.04561" lon="28.35885">
        <ele>16.1</ele>
      </trkpt>
      <trkpt lat="37.04561" lon="28.35885">
        <ele>16.1</ele>
      </trkpt>
      <trkpt lat="37.04561" lon="28.35885">
        <ele>16.1</ele>
      </trkpt>
      <trkpt lat="37.04561" lon="28.35885">
        <ele>16.1</ele>
      </trkpt>
      <trkpt lat="37.04549" lon="28.35884">
        <ele>16.1</ele>
      </trkpt>
      <trkpt lat="37.04499" lon="28.35884">
        <ele>16</ele>
      </trkpt>
      <trkpt lat="37.04431" lon="28.35883">
        <ele>14.1</ele>
      </trkpt>
      <trkpt lat="37.04378" lon="28.35882">
        <ele>13.9</ele>
      </trkpt>
      <trkpt lat="37.04321" lon="28.35881">
        <ele>14</ele>
      </trkpt>
      <trkpt lat="37.04269" lon="28.3588">
        <ele>13.4</ele>
      </trkpt>
      <trkpt lat="37.04218" lon="28.3588">
        <ele>12.7</ele>
      </trkpt>
      <trkpt lat="37.04182" lon="28.35879">
        <ele>12.1</ele>
      </trkpt>
      <trkpt lat="37.04148" lon="28.35878">
        <ele>11.6</ele>
      </trkpt>
      <trkpt lat="37.04107" lon="28.35878">
        <ele>11.3</ele>
      </trkpt>
      <trkpt lat="37.04039" lon="28.35877">
        <ele>11.9</ele>
      </trkpt>
      <trkpt lat="37.04021" lon="28.35877">
        <ele>12.2</ele>
      </trkpt>
      <trkpt lat="37.04013" lon="28.35876">
        <ele>12.3</ele>
      </trkpt>
      <trkpt lat="37.03964" lon="28.35876">
        <ele>12.3</ele>
      </trkpt>
      <trkpt lat="37.03928" lon="28.35875">
        <ele>12.1</ele>
      </trkpt>
      <trkpt lat="37.03869" lon="28.35874">
        <ele>11.1</ele>
      </trkpt>
      <trkpt lat="37.03827" lon="28.35872">
        <ele>10.4</ele>
      </trkpt>
      <trkpt lat="37.03784" lon="28.3587">
        <ele>10.1</ele>
      </trkpt>
      <trkpt lat="37.03752" lon="28.35868">
        <ele>9.9</ele>
      </trkpt>
      <trkpt lat="37.03706" lon="28.35866">
        <ele>10.7</ele>
      </trkpt>
      <trkpt lat="37.03627" lon="28.35862">
        <ele>10.6</ele>
      </trkpt>
      <trkpt lat="37.03545" lon="28.35851">
        <ele>10.7</ele>
      </trkpt>
      <trkpt lat="37.03485" lon="28.3583">
        <ele>11.4</ele>
      </trkpt>
      <trkpt lat="37.03438" lon="28.35891">
        <ele>11.2</ele>
      </trkpt>
      <trkpt lat="37.0338" lon="28.35887">
        <ele>11.9</ele>
      </trkpt>
      <trkpt lat="37.0332" lon="28.35887">
        <ele>13.8</ele>
      </trkpt>
      <trkpt lat="37.03238" lon="28.35885">
        <ele>14.5</ele>
      </trkpt>
      <trkpt lat="37.03144" lon="28.35885">
        <ele>11</ele>
      </trkpt>
      <trkpt lat="37.03077" lon="28.35885">
        <ele>10.3</ele>
      </trkpt>
      <trkpt lat="37.02993" lon="28.35885">
        <ele>10.5</ele>
      </trkpt>
      <trkpt lat="37.02891" lon="28.35883">
        <ele>9.7</ele>
      </trkpt>
      <trkpt lat="37.0281" lon="28.35881">
        <ele>10.6</ele>
      </trkpt>
      <trkpt lat="37.02748" lon="28.3588">
        <ele>10.1</ele>
      </trkpt>
      <trkpt lat="37.02612" lon="28.35909">
        <ele>18.9</ele>
      </trkpt>
      <trkpt lat="37.02605" lon="28.35916">
        <ele>19.7</ele>
      </trkpt>
      <trkpt lat="37.02603" lon="28.3592">
        <ele>20</ele>
      </trkpt>
      <trkpt lat="37.026" lon="28.35924">
        <ele>20.5</ele>
      </trkpt>
      <trkpt lat="37.02594" lon="28.35942">
        <ele>21.7</ele>
      </trkpt>
      <trkpt lat="37.02594" lon="28.35945">
        <ele>21.8</ele>
      </trkpt>
      <trkpt lat="37.02593" lon="28.35947">
        <ele>22</ele>
      </trkpt>
      <trkpt lat="37.0259" lon="28.35949">
        <ele>22.7</ele>
      </trkpt>
      <trkpt lat="37.02585" lon="28.3595">
        <ele>23.5</ele>
      </trkpt>
      <trkpt lat="37.02583" lon="28.35953">
        <ele>24.1</ele>
      </trkpt>
      <trkpt lat="37.02582" lon="28.35954">
        <ele>24.6</ele>
      </trkpt>
      <trkpt lat="37.02575" lon="28.35964">
        <ele>28.3</ele>
      </trkpt>
      <trkpt lat="37.02572" lon="28.35969">
        <ele>29.9</ele>
      </trkpt>
      <trkpt lat="37.02571" lon="28.35974">
        <ele>30.8</ele>
      </trkpt>
      <trkpt lat="37.02569" lon="28.35977">
        <ele>31.9</ele>
      </trkpt>
      <trkpt lat="37.02568" lon="28.35981">
        <ele>32.3</ele>
      </trkpt>
      <trkpt lat="37.02564" lon="28.35988">
        <ele>34.9</ele>
      </trkpt>
      <trkpt lat="37.02559" lon="28.35991">
        <ele>37.4</ele>
      </trkpt>
      <trkpt lat="37.02555" lon="28.35987">
        <ele>39.4</ele>
      </trkpt>
      <trkpt lat="37.02553" lon="28.35984">
        <ele>40.3</ele>
      </trkpt>
      <trkpt lat="37.02549" lon="28.35975">
        <ele>41.8</ele>
      </trkpt>
      <trkpt lat="37.02545" lon="28.35971">
        <ele>43.7</ele>
      </trkpt>
      <trkpt lat="37.02539" lon="28.35976">
        <ele>46.9</ele>
      </trkpt>
      <trkpt lat="37.02538" lon="28.35992">
        <ele>49</ele>
      </trkpt>
      <trkpt lat="37.02534" lon="28.35996">
        <ele>51.1</ele>
      </trkpt>
      <trkpt lat="37.02531" lon="28.35991">
        <ele>52.6</ele>
      </trkpt>
      <trkpt lat="37.02527" lon="28.35972">
        <ele>52.8</ele>
      </trkpt>
      <trkpt lat="37.02524" lon="28.35954">
        <ele>52.7</ele>
      </trkpt>
      <trkpt lat="37.02524" lon="28.35949">
        <ele>52.2</ele>
      </trkpt>
      <trkpt lat="37.02522" lon="28.3595">
        <ele>53.5</ele>
      </trkpt>
      <trkpt lat="37.02519" lon="28.35957">
        <ele>55.3</ele>
      </trkpt>
      <trkpt lat="37.02518" lon="28.35961">
        <ele>56.4</ele>
      </trkpt>
      <trkpt lat="37.02519" lon="28.35978">
        <ele>57.8</ele>
      </trkpt>
      <trkpt lat="37.02517" lon="28.35985">
        <ele>59.5</ele>
      </trkpt>
      <trkpt lat="37.02514" lon="28.35991">
        <ele>61.8</ele>
      </trkpt>
      <trkpt lat="37.02517" lon="28.35997">
        <ele>60.5</ele>
      </trkpt>
      <trkpt lat="37.02522" lon="28.36005">
        <ele>58.3</ele>
      </trkpt>
      <trkpt lat="37.02521" lon="28.36012">
        <ele>58.7</ele>
      </trkpt>
      <trkpt lat="37.02518" lon="28.36016">
        <ele>60.5</ele>
      </trkpt>
      <trkpt lat="37.02518" lon="28.36028">
        <ele>60.8</ele>
      </trkpt>
      <trkpt lat="37.02516" lon="28.36039">
        <ele>62</ele>
      </trkpt>
      <trkpt lat="37.02513" lon="28.36044">
        <ele>63.7</ele>
      </trkpt>
      <trkpt lat="37.02511" lon="28.36043">
        <ele>64.5</ele>
      </trkpt>
      <trkpt lat="37.02511" lon="28.36035">
        <ele>64.6</ele>
      </trkpt>
      <trkpt lat="37.02511" lon="28.36035">
        <ele>64.6</ele>
      </trkpt>
      <trkpt lat="37.02509" lon="28.36024">
        <ele>65.4</ele>
      </trkpt>
      <trkpt lat="37.02507" lon="28.36023">
        <ele>66.9</ele>
      </trkpt>
      <trkpt lat="37.02505" lon="28.36017">
        <ele>67.8</ele>
      </trkpt>
      <trkpt lat="37.025" lon="28.35998">
        <ele>69.5</ele>
      </trkpt>
      <trkpt lat="37.02497" lon="28.35979">
        <ele>68.8</ele>
      </trkpt>
      <trkpt lat="37.02495" lon="28.35967">
        <ele>68.4</ele>
      </trkpt>
      <trkpt lat="37.02488" lon="28.3595">
        <ele>69.1</ele>
      </trkpt>
      <trkpt lat="37.02483" lon="28.35935">
        <ele>69.4</ele>
      </trkpt>
      <trkpt lat="37.02479" lon="28.35927">
        <ele>69.7</ele>
      </trkpt>
      <trkpt lat="37.02472" lon="28.35915">
        <ele>70.6</ele>
      </trkpt>
      <trkpt lat="37.02466" lon="28.35898">
        <ele>70</ele>
      </trkpt>
      <trkpt lat="37.0246" lon="28.35885">
        <ele>69.7</ele>
      </trkpt>
      <trkpt lat="37.0245" lon="28.35872">
        <ele>70</ele>
      </trkpt>
      <trkpt lat="37.0244" lon="28.35861">
        <ele>70.6</ele>
      </trkpt>
      <trkpt lat="37.02433" lon="28.35854">
        <ele>71</ele>
      </trkpt>
      <trkpt lat="37.02422" lon="28.35843">
        <ele>71.4</ele>
      </trkpt>
      <trkpt lat="37.0241" lon="28.35829">
        <ele>69.8</ele>
      </trkpt>
      <trkpt lat="37.02399" lon="28.35818">
        <ele>67.8</ele>
      </trkpt>
      <trkpt lat="37.02385" lon="28.35809">
        <ele>66.3</ele>
      </trkpt>
      <trkpt lat="37.02375" lon="28.35803">
        <ele>65.7</ele>
      </trkpt>
      <trkpt lat="37.02367" lon="28.35798">
        <ele>64.9</ele>
      </trkpt>
      <trkpt lat="37.02358" lon="28.358">
        <ele>66.4</ele>
      </trkpt>
      <trkpt lat="37.02348" lon="28.35801">
        <ele>67.8</ele>
      </trkpt>
      <trkpt lat="37.02345" lon="28.35801">
        <ele>68.1</ele>
      </trkpt>
      <trkpt lat="37.02342" lon="28.35805">
        <ele>70</ele>
      </trkpt>
      <trkpt lat="37.02334" lon="28.35807">
        <ele>71.7</ele>
      </trkpt>
      <trkpt lat="37.02332" lon="28.35806">
        <ele>71.8</ele>
      </trkpt>
      <trkpt lat="37.02315" lon="28.35809">
        <ele>76.8</ele>
      </trkpt>
      <trkpt lat="37.02313" lon="28.35808">
        <ele>77</ele>
      </trkpt>
      <trkpt lat="37.02301" lon="28.35812">
        <ele>81.1</ele>
      </trkpt>
      <trkpt lat="37.02299" lon="28.35815">
        <ele>82.6</ele>
      </trkpt>
      <trkpt lat="37.0229" lon="28.35821">
        <ele>86.3</ele>
      </trkpt>
      <trkpt lat="37.02279" lon="28.35821">
        <ele>88.7</ele>
      </trkpt>
      <trkpt lat="37.02262" lon="28.35824">
        <ele>93</ele>
      </trkpt>
      <trkpt lat="37.02253" lon="28.35818">
        <ele>93.2</ele>
      </trkpt>
      <trkpt lat="37.02243" lon="28.35826">
        <ele>96.2</ele>
      </trkpt>
      <trkpt lat="37.02226" lon="28.35825">
        <ele>96.7</ele>
      </trkpt>
      <trkpt lat="37.02215" lon="28.35827">
        <ele>97.5</ele>
      </trkpt>
      <trkpt lat="37.02209" lon="28.35836">
        <ele>99.3</ele>
      </trkpt>
      <trkpt lat="37.0221" lon="28.35838">
        <ele>99.7</ele>
      </trkpt>
      <trkpt lat="37.02201" lon="28.35843">
        <ele>100.9</ele>
      </trkpt>
      <trkpt lat="37.02195" lon="28.35856">
        <ele>103.8</ele>
      </trkpt>
      <trkpt lat="37.0219" lon="28.35872">
        <ele>107.3</ele>
      </trkpt>
      <trkpt lat="37.02179" lon="28.35885">
        <ele>109.2</ele>
      </trkpt>
      <trkpt lat="37.0217" lon="28.35888">
        <ele>109.1</ele>
      </trkpt>
      <trkpt lat="37.02169" lon="28.35895">
        <ele>110.4</ele>
      </trkpt>
      <trkpt lat="37.02166" lon="28.35907">
        <ele>112.2</ele>
      </trkpt>
      <trkpt lat="37.02167" lon="28.35922">
        <ele>114.8</ele>
      </trkpt>
      <trkpt lat="37.02147" lon="28.35938">
        <ele>117</ele>
      </trkpt>
      <trkpt lat="37.02132" lon="28.35942">
        <ele>117.6</ele>
      </trkpt>
      <trkpt lat="37.02124" lon="28.3594">
        <ele>117.2</ele>
      </trkpt>
      <trkpt lat="37.02108" lon="28.35946">
        <ele>118.2</ele>
      </trkpt>
      <trkpt lat="37.02101" lon="28.35958">
        <ele>120.3</ele>
      </trkpt>
      <trkpt lat="37.02088" lon="28.35968">
        <ele>122.2</ele>
      </trkpt>
      <trkpt lat="37.0207" lon="28.35982">
        <ele>127.2</ele>
      </trkpt>
      <trkpt lat="37.02059" lon="28.35987">
        <ele>130.1</ele>
      </trkpt>
      <trkpt lat="37.02048" lon="28.35994">
        <ele>133.1</ele>
      </trkpt>
      <trkpt lat="37.0204" lon="28.36001">
        <ele>135.5</ele>
      </trkpt>
      <trkpt lat="37.0203" lon="28.36007">
        <ele>138.7</ele>
      </trkpt>
      <trkpt lat="37.02013" lon="28.36016">
        <ele>143.9</ele>
      </trkpt>
      <trkpt lat="37.01995" lon="28.36014">
        <ele>145.1</ele>
      </trkpt>
      <trkpt lat="37.01983" lon="28.36018">
        <ele>145.2</ele>
      </trkpt>
      <trkpt lat="37.01968" lon="28.36015">
        <ele>143.9</ele>
      </trkpt>
      <trkpt lat="37.01952" lon="28.36013">
        <ele>142.8</ele>
      </trkpt>
      <trkpt lat="37.01908" lon="28.35962">
        <ele>145.4</ele>
      </trkpt>
      <trkpt lat="37.01909" lon="28.35943">
        <ele>146.9</ele>
      </trkpt>
      <trkpt lat="37.01913" lon="28.35925">
        <ele>147.8</ele>
      </trkpt>
      <trkpt lat="37.01921" lon="28.35913">
        <ele>147.7</ele>
      </trkpt>
      <trkpt lat="37.01923" lon="28.35909">
        <ele>147.6</ele>
      </trkpt>
      <trkpt lat="37.01925" lon="28.35893">
        <ele>148.4</ele>
      </trkpt>
      <trkpt lat="37.01927" lon="28.35881">
        <ele>148.8</ele>
      </trkpt>
      <trkpt lat="37.01932" lon="28.35865">
        <ele>149.2</ele>
      </trkpt>
      <trkpt lat="37.01937" lon="28.35853">
        <ele>149.5</ele>
      </trkpt>
      <trkpt lat="37.01936" lon="28.35829">
        <ele>151.1</ele>
      </trkpt>
      <trkpt lat="37.01937" lon="28.35811">
        <ele>151.4</ele>
      </trkpt>
      <trkpt lat="37.01936" lon="28.35793">
        <ele>152.1</ele>
      </trkpt>
      <trkpt lat="37.01933" lon="28.35767">
        <ele>152.8</ele>
      </trkpt>
      <trkpt lat="37.01941" lon="28.3575">
        <ele>153.3</ele>
      </trkpt>
      <trkpt lat="37.01942" lon="28.35741">
        <ele>152.6</ele>
      </trkpt>
      <trkpt lat="37.01938" lon="28.35729">
        <ele>151.3</ele>
      </trkpt>
      <trkpt lat="37.01937" lon="28.3572">
        <ele>150.3</ele>
      </trkpt>
      <trkpt lat="37.01943" lon="28.35712">
        <ele>150.1</ele>
      </trkpt>
      <trkpt lat="37.01944" lon="28.35712">
        <ele>150.2</ele>
      </trkpt>
      <trkpt lat="37.01948" lon="28.35705">
        <ele>150.2</ele>
      </trkpt>
      <trkpt lat="37.01951" lon="28.3569">
        <ele>149.5</ele>
      </trkpt>
      <trkpt lat="37.01951" lon="28.35679">
        <ele>148.7</ele>
      </trkpt>
      <trkpt lat="37.01952" lon="28.35672">
        <ele>148.5</ele>
      </trkpt>
      <trkpt lat="37.01958" lon="28.35665">
        <ele>149.1</ele>
      </trkpt>
      <trkpt lat="37.01955" lon="28.35652">
        <ele>146.1</ele>
      </trkpt>
      <trkpt lat="37.01959" lon="28.35639">
        <ele>144.2</ele>
      </trkpt>
      <trkpt lat="37.01958" lon="28.3563">
        <ele>142.3</ele>
      </trkpt>
      <trkpt lat="37.01957" lon="28.35628">
        <ele>141.8</ele>
      </trkpt>
      <trkpt lat="37.01961" lon="28.35619">
        <ele>140.7</ele>
      </trkpt>
      <trkpt lat="37.01966" lon="28.35603">
        <ele>138.9</ele>
      </trkpt>
      <trkpt lat="37.01969" lon="28.35587">
        <ele>136.3</ele>
      </trkpt>
      <trkpt lat="37.01969" lon="28.35581">
        <ele>135.1</ele>
      </trkpt>
      <trkpt lat="37.01968" lon="28.35574">
        <ele>133.4</ele>
      </trkpt>
      <trkpt lat="37.01968" lon="28.35572">
        <ele>133</ele>
      </trkpt>
      <trkpt lat="37.01968" lon="28.35569">
        <ele>132.5</ele>
      </trkpt>
      <trkpt lat="37.01969" lon="28.3556">
        <ele>130.8</ele>
      </trkpt>
      <trkpt lat="37.01971" lon="28.35558">
        <ele>130.7</ele>
      </trkpt>
      <trkpt lat="37.01972" lon="28.35554">
        <ele>130.1</ele>
      </trkpt>
      <trkpt lat="37.01974" lon="28.3554">
        <ele>127.2</ele>
      </trkpt>
      <trkpt lat="37.01975" lon="28.3553">
        <ele>125</ele>
      </trkpt>
      <trkpt lat="37.01979" lon="28.35527">
        <ele>124.6</ele>
      </trkpt>
      <trkpt lat="37.01975" lon="28.35526">
        <ele>124</ele>
      </trkpt>
      <trkpt lat="37.0197" lon="28.35523">
        <ele>123.1</ele>
      </trkpt>
      <trkpt lat="37.01964" lon="28.35513">
        <ele>121</ele>
      </trkpt>
      <trkpt lat="37.01963" lon="28.35509">
        <ele>120.2</ele>
      </trkpt>
      <trkpt lat="37.01959" lon="28.35508">
        <ele>120</ele>
      </trkpt>
      <trkpt lat="37.01956" lon="28.3551">
        <ele>120.3</ele>
      </trkpt>
      <trkpt lat="37.0195" lon="28.35511">
        <ele>120.4</ele>
      </trkpt>
      <trkpt lat="37.01949" lon="28.35512">
        <ele>120.5</ele>
      </trkpt>
      <trkpt lat="37.01941" lon="28.35522">
        <ele>121.6</ele>
      </trkpt>
      <trkpt lat="37.01933" lon="28.35524">
        <ele>121.5</ele>
      </trkpt>
      <trkpt lat="37.01932" lon="28.35529">
        <ele>122</ele>
      </trkpt>
      <trkpt lat="37.01927" lon="28.35531">
        <ele>121.9</ele>
      </trkpt>
      <trkpt lat="37.01916" lon="28.35539">
        <ele>121.6</ele>
      </trkpt>
      <trkpt lat="37.01913" lon="28.35541">
        <ele>121.1</ele>
      </trkpt>
      <trkpt lat="37.01903" lon="28.35546">
        <ele>119.3</ele>
      </trkpt>
      <trkpt lat="37.01897" lon="28.35548">
        <ele>118.1</ele>
      </trkpt>
      <trkpt lat="37.01889" lon="28.35557">
        <ele>117.2</ele>
      </trkpt>
      <trkpt lat="37.01878" lon="28.35571">
        <ele>115.8</ele>
      </trkpt>
      <trkpt lat="37.01877" lon="28.35571">
        <ele>115.5</ele>
      </trkpt>
      <trkpt lat="37.01865" lon="28.35569">
        <ele>112.7</ele>
      </trkpt>
      <trkpt lat="37.0186" lon="28.35559">
        <ele>110.9</ele>
      </trkpt>
      <trkpt lat="37.01857" lon="28.35558">
        <ele>110.2</ele>
      </trkpt>
      <trkpt lat="37.01856" lon="28.35561">
        <ele>110.2</ele>
      </trkpt>
      <trkpt lat="37.01853" lon="28.35543">
        <ele>108.4</ele>
      </trkpt>
      <trkpt lat="37.01837" lon="28.35532">
        <ele>104</ele>
      </trkpt>
      <trkpt lat="37.01827" lon="28.35522">
        <ele>101</ele>
      </trkpt>
      <trkpt lat="37.01828" lon="28.35508">
        <ele>100.1</ele>
      </trkpt>
      <trkpt lat="37.01803" lon="28.35502">
        <ele>93.2</ele>
      </trkpt>
      <trkpt lat="37.018" lon="28.35507">
        <ele>92.9</ele>
      </trkpt>
      <trkpt lat="37.01793" lon="28.35525">
        <ele>92.7</ele>
      </trkpt>
      <trkpt lat="37.01786" lon="28.35542">
        <ele>92.7</ele>
      </trkpt>
      <trkpt lat="37.01775" lon="28.35559">
        <ele>91.8</ele>
      </trkpt>
      <trkpt lat="37.01766" lon="28.35561">
        <ele>89.9</ele>
      </trkpt>
      <trkpt lat="37.01752" lon="28.35569">
        <ele>87.7</ele>
      </trkpt>
      <trkpt lat="37.01737" lon="28.35572">
        <ele>85.4</ele>
      </trkpt>
      <trkpt lat="37.01736" lon="28.35573">
        <ele>85.2</ele>
      </trkpt>
      <trkpt lat="37.01732" lon="28.35565">
        <ele>83.3</ele>
      </trkpt>
      <trkpt lat="37.01743" lon="28.35559">
        <ele>84.8</ele>
      </trkpt>
      <trkpt lat="37.01748" lon="28.35544">
        <ele>83.8</ele>
      </trkpt>
      <trkpt lat="37.01747" lon="28.35522">
        <ele>80.8</ele>
      </trkpt>
      <trkpt lat="37.01746" lon="28.35502">
        <ele>78.2</ele>
      </trkpt>
      <trkpt lat="37.01749" lon="28.35488">
        <ele>77.8</ele>
      </trkpt>
      <trkpt lat="37.0175" lon="28.35472">
        <ele>76.7</ele>
      </trkpt>
      <trkpt lat="37.01748" lon="28.35452">
        <ele>74.4</ele>
      </trkpt>
      <trkpt lat="37.01742" lon="28.35434">
        <ele>71.6</ele>
      </trkpt>
      <trkpt lat="37.01737" lon="28.35415">
        <ele>68.7</ele>
      </trkpt>
      <trkpt lat="37.01738" lon="28.35412">
        <ele>68.5</ele>
      </trkpt>
      <trkpt lat="37.01748" lon="28.35402">
        <ele>68.9</ele>
      </trkpt>
      <trkpt lat="37.01755" lon="28.35392">
        <ele>68.5</ele>
      </trkpt>
      <trkpt lat="37.01765" lon="28.35377">
        <ele>68.1</ele>
      </trkpt>
      <trkpt lat="37.01772" lon="28.35365">
        <ele>67.4</ele>
      </trkpt>
      <trkpt lat="37.01777" lon="28.35351">
        <ele>66.1</ele>
      </trkpt>
      <trkpt lat="37.01783" lon="28.35337">
        <ele>64.7</ele>
      </trkpt>
      <trkpt lat="37.01789" lon="28.35319">
        <ele>64</ele>
      </trkpt>
      <trkpt lat="37.01795" lon="28.35303">
        <ele>63.9</ele>
      </trkpt>
      <trkpt lat="37.01804" lon="28.35291">
        <ele>65</ele>
      </trkpt>
      <trkpt lat="37.01812" lon="28.35279">
        <ele>65.8</ele>
      </trkpt>
      <trkpt lat="37.01813" lon="28.35265">
        <ele>64.9</ele>
      </trkpt>
      <trkpt lat="37.01813" lon="28.35246">
        <ele>64</ele>
      </trkpt>
      <trkpt lat="37.01816" lon="28.35225">
        <ele>66.1</ele>
      </trkpt>
      <trkpt lat="37.01823" lon="28.35206">
        <ele>69</ele>
      </trkpt>
      <trkpt lat="37.01822" lon="28.35192">
        <ele>69.6</ele>
      </trkpt>
      <trkpt lat="37.0182" lon="28.35173">
        <ele>70.4</ele>
      </trkpt>
      <trkpt lat="37.01813" lon="28.35156">
        <ele>68.8</ele>
      </trkpt>
      <trkpt lat="37.01805" lon="28.35144">
        <ele>66.8</ele>
      </trkpt>
      <trkpt lat="37.01795" lon="28.35134">
        <ele>64.6</ele>
      </trkpt>
      <trkpt lat="37.01794" lon="28.35137">
        <ele>64.5</ele>
      </trkpt>
      <trkpt lat="37.01793" lon="28.35136">
        <ele>64.3</ele>
      </trkpt>
      <trkpt lat="37.01791" lon="28.35131">
        <ele>63.9</ele>
      </trkpt>
      <trkpt lat="37.01782" lon="28.35124">
        <ele>62.3</ele>
      </trkpt>
      <trkpt lat="37.0178" lon="28.35126">
        <ele>62</ele>
      </trkpt>
      <trkpt lat="37.01781" lon="28.35126">
        <ele>62</ele>
      </trkpt>
      <trkpt lat="37.01782" lon="28.35125">
        <ele>62.3</ele>
      </trkpt>
      <trkpt lat="37.01778" lon="28.3512">
        <ele>61.6</ele>
      </trkpt>
      <trkpt lat="37.01777" lon="28.35118">
        <ele>61.5</ele>
      </trkpt>
      <trkpt lat="37.0178" lon="28.35131">
        <ele>61.7</ele>
      </trkpt>
      <trkpt lat="37.01785" lon="28.35141">
        <ele>62.7</ele>
      </trkpt>
      <trkpt lat="37.01776" lon="28.35151">
        <ele>60.5</ele>
      </trkpt>
      <trkpt lat="37.01778" lon="28.35159">
        <ele>60.9</ele>
      </trkpt>
      <trkpt lat="37.01779" lon="28.35169">
        <ele>60.9</ele>
      </trkpt>
      <trkpt lat="37.01778" lon="28.35167">
        <ele>60.6</ele>
      </trkpt>
      <trkpt lat="37.01777" lon="28.35167">
        <ele>60.4</ele>
      </trkpt>
      <trkpt lat="37.01772" lon="28.35166">
        <ele>59.2</ele>
      </trkpt>
      <trkpt lat="37.01764" lon="28.35172">
        <ele>57</ele>
      </trkpt>
      <trkpt lat="37.01765" lon="28.35182">
        <ele>56.3</ele>
      </trkpt>
      <trkpt lat="37.01759" lon="28.35193">
        <ele>54</ele>
      </trkpt>
      <trkpt lat="37.01758" lon="28.35193">
        <ele>53.8</ele>
      </trkpt>
      <trkpt lat="37.01755" lon="28.352">
        <ele>52.4</ele>
      </trkpt>
      <trkpt lat="37.01746" lon="28.35199">
        <ele>49.8</ele>
      </trkpt>
      <trkpt lat="37.01743" lon="28.35199">
        <ele>48.9</ele>
      </trkpt>
      <trkpt lat="37.0174" lon="28.35207">
        <ele>47.2</ele>
      </trkpt>
      <trkpt lat="37.01738" lon="28.35208">
        <ele>46.4</ele>
      </trkpt>
      <trkpt lat="37.01734" lon="28.35208">
        <ele>45.3</ele>
      </trkpt>
      <trkpt lat="37.01734" lon="28.35206">
        <ele>45.4</ele>
      </trkpt>
      <trkpt lat="37.01735" lon="28.35204">
        <ele>45.7</ele>
      </trkpt>
      <trkpt lat="37.01736" lon="28.35202">
        <ele>46</ele>
      </trkpt>
      <trkpt lat="37.01736" lon="28.35197">
        <ele>46.6</ele>
      </trkpt>
      <trkpt lat="37.01734" lon="28.35194">
        <ele>46.1</ele>
      </trkpt>
      <trkpt lat="37.01725" lon="28.35195">
        <ele>42.8</ele>
      </trkpt>
      <trkpt lat="37.01722" lon="28.35196">
        <ele>41.8</ele>
      </trkpt>
      <trkpt lat="37.01718" lon="28.35206">
        <ele>39.9</ele>
      </trkpt>
      <trkpt lat="37.01713" lon="28.35206">
        <ele>38</ele>
      </trkpt>
      <trkpt lat="37.01711" lon="28.35207">
        <ele>37.3</ele>
      </trkpt>
      <trkpt lat="37.01709" lon="28.35209">
        <ele>36.6</ele>
      </trkpt>
      <trkpt lat="37.01705" lon="28.35212">
        <ele>35.4</ele>
      </trkpt>
      <trkpt lat="37.01701" lon="28.35217">
        <ele>33.9</ele>
      </trkpt>
      <trkpt lat="37.01697" lon="28.35211">
        <ele>32.7</ele>
      </trkpt>
      <trkpt lat="37.01696" lon="28.35211">
        <ele>32.3</ele>
      </trkpt>
      <trkpt lat="37.01684" lon="28.35208">
        <ele>28.4</ele>
      </trkpt>
      <trkpt lat="37.01677" lon="28.35211">
        <ele>26.1</ele>
      </trkpt>
      <trkpt lat="37.01668" lon="28.35213">
        <ele>23.2</ele>
      </trkpt>
      <trkpt lat="37.01653" lon="28.35205">
        <ele>21.3</ele>
      </trkpt>
      <trkpt lat="37.0164" lon="28.35204">
        <ele>20.1</ele>
      </trkpt>
      <trkpt lat="37.01631" lon="28.35202">
        <ele>19.3</ele>
      </trkpt>
      <trkpt lat="37.01626" lon="28.352">
        <ele>18.9</ele>
      </trkpt>
      <trkpt lat="37.01616" lon="28.35197">
        <ele>18</ele>
      </trkpt>
      <trkpt lat="37.01603" lon="28.35194">
        <ele>16.9</ele>
      </trkpt>
      <trkpt lat="37.0159" lon="28.35188">
        <ele>15.8</ele>
      </trkpt>
      <trkpt lat="37.0158" lon="28.35187">
        <ele>15.3</ele>
      </trkpt>
      <trkpt lat="37.01562" lon="28.35182">
        <ele>15.4</ele>
      </trkpt>
      <trkpt lat="37.01549" lon="28.35177">
        <ele>15.5</ele>
      </trkpt>
      <trkpt lat="37.01537" lon="28.35174">
        <ele>15.6</ele>
      </trkpt>
      <trkpt lat="37.01523" lon="28.35172">
        <ele>15.7</ele>
      </trkpt>
      <trkpt lat="37.01519" lon="28.3517">
        <ele>15.8</ele>
      </trkpt>
      <trkpt lat="37.01511" lon="28.35167">
        <ele>15.9</ele>
      </trkpt>
      <trkpt lat="37.01494" lon="28.35168">
        <ele>15.9</ele>
      </trkpt>
      <trkpt lat="37.01486" lon="28.35164">
        <ele>15.6</ele>
      </trkpt>
      <trkpt lat="37.01479" lon="28.35162">
        <ele>15.5</ele>
      </trkpt>
      <trkpt lat="37.01479" lon="28.35145">
        <ele>15.4</ele>
      </trkpt>
      <trkpt lat="37.0148" lon="28.35127">
        <ele>15.3</ele>
      </trkpt>
      <trkpt lat="37.01479" lon="28.35111">
        <ele>15.2</ele>
      </trkpt>
      <trkpt lat="37.0148" lon="28.35093">
        <ele>15.1</ele>
      </trkpt>
      <trkpt lat="37.01482" lon="28.35073">
        <ele>14.9</ele>
      </trkpt>
      <trkpt lat="37.01479" lon="28.35064">
        <ele>14.9</ele>
      </trkpt>
      <trkpt lat="37.01479" lon="28.35047">
        <ele>14.8</ele>
      </trkpt>
      <trkpt lat="37.01478" lon="28.35028">
        <ele>14.7</ele>
      </trkpt>
      <trkpt lat="37.01475" lon="28.35007">
        <ele>14.6</ele>
      </trkpt>
      <trkpt lat="37.01474" lon="28.34994">
        <ele>14.6</ele>
      </trkpt>
      <trkpt lat="37.01478" lon="28.34982">
        <ele>14.6</ele>
      </trkpt>
      <trkpt lat="37.01478" lon="28.34982">
        <ele>14.6</ele>
      </trkpt>
      <trkpt lat="37.01481" lon="28.34975">
        <ele>14.6</ele>
      </trkpt>
      <trkpt lat="37.01448" lon="28.34941">
        <ele>14.6</ele>
      </trkpt>
      <trkpt lat="37.01423" lon="28.34947">
        <ele>14.7</ele>
      </trkpt>
      <trkpt lat="37.01423" lon="28.34947">
        <ele>14.7</ele>
      </trkpt>
      <trkpt lat="37.01423" lon="28.34947">
        <ele>14.7</ele>
      </trkpt>
      <trkpt lat="37.01423" lon="28.34947">
        <ele>14.7</ele>
      </trkpt>
      <trkpt lat="37.01423" lon="28.34947">
        <ele>14.7</ele>
      </trkpt>
      <trkpt lat="37.01488" lon="28.34928">
        <ele>14.8</ele>
      </trkpt>
      <trkpt lat="37.01489" lon="28.34922">
        <ele>14.8</ele>
      </trkpt>
      <trkpt lat="37.01485" lon="28.34919">
        <ele>14.8</ele>
      </trkpt>
      <trkpt lat="37.0148" lon="28.34918">
        <ele>14.7</ele>
      </trkpt>
      <trkpt lat="37.01475" lon="28.34917">
        <ele>14.7</ele>
      </trkpt>
      <trkpt lat="37.0147" lon="28.34919">
        <ele>14.6</ele>
      </trkpt>
      <trkpt lat="37.01466" lon="28.34919">
        <ele>14.6</ele>
      </trkpt>
      <trkpt lat="37.01461" lon="28.34919">
        <ele>14.5</ele>
      </trkpt>
      <trkpt lat="37.01456" lon="28.3492">
        <ele>14.5</ele>
      </trkpt>
      <trkpt lat="37.01452" lon="28.34921">
        <ele>14.5</ele>
      </trkpt>
      <trkpt lat="37.01447" lon="28.34922">
        <ele>14.4</ele>
      </trkpt>
      <trkpt lat="37.01442" lon="28.34923">
        <ele>14.4</ele>
      </trkpt>
      <trkpt lat="37.01437" lon="28.34924">
        <ele>14.4</ele>
      </trkpt>
      <trkpt lat="37.0143" lon="28.34925">
        <ele>14.3</ele>
      </trkpt>
      <trkpt lat="37.01427" lon="28.34919">
        <ele>14.2</ele>
      </trkpt>
      <trkpt lat="37.0143" lon="28.34914">
        <ele>14.2</ele>
      </trkpt>
      <trkpt lat="37.01425" lon="28.34912">
        <ele>14.2</ele>
      </trkpt>
      <trkpt lat="37.01421" lon="28.34907">
        <ele>14.3</ele>
      </trkpt>
      <trkpt lat="37.01424" lon="28.34901">
        <ele>14.4</ele>
      </trkpt>
      <trkpt lat="37.01424" lon="28.34895">
        <ele>14.6</ele>
      </trkpt>
      <trkpt lat="37.01423" lon="28.34889">
        <ele>14.7</ele>
      </trkpt>
      <trkpt lat="37.01423" lon="28.34883">
        <ele>14.8</ele>
      </trkpt>
      <trkpt lat="37.01422" lon="28.34877">
        <ele>15</ele>
      </trkpt>
      <trkpt lat="37.01423" lon="28.3487">
        <ele>15.1</ele>
      </trkpt>
      <trkpt lat="37.01422" lon="28.34864">
        <ele>15.2</ele>
      </trkpt>
      <trkpt lat="37.01421" lon="28.34858">
        <ele>15.4</ele>
      </trkpt>
      <trkpt lat="37.01419" lon="28.34853">
        <ele>15.5</ele>
      </trkpt>
      <trkpt lat="37.01419" lon="28.34847">
        <ele>15.7</ele>
      </trkpt>
      <trkpt lat="37.01418" lon="28.3484">
        <ele>15.8</ele>
      </trkpt>
      <trkpt lat="37.01419" lon="28.34834">
        <ele>16</ele>
      </trkpt>
      <trkpt lat="37.01418" lon="28.34827">
        <ele>15.8</ele>
      </trkpt>
      <trkpt lat="37.01418" lon="28.34819">
        <ele>15.7</ele>
      </trkpt>
      <trkpt lat="37.01418" lon="28.34813">
        <ele>15.5</ele>
      </trkpt>
      <trkpt lat="37.01417" lon="28.34805">
        <ele>15.3</ele>
      </trkpt>
      <trkpt lat="37.01418" lon="28.34799">
        <ele>15.2</ele>
      </trkpt>
      <trkpt lat="37.01416" lon="28.34793">
        <ele>15</ele>
      </trkpt>
      <trkpt lat="37.01415" lon="28.34786">
        <ele>14.9</ele>
      </trkpt>
      <trkpt lat="37.01415" lon="28.3478">
        <ele>14.7</ele>
      </trkpt>
      <trkpt lat="37.01414" lon="28.34773">
        <ele>14.6</ele>
      </trkpt>
      <trkpt lat="37.01414" lon="28.34767">
        <ele>14.4</ele>
      </trkpt>
      <trkpt lat="37.01414" lon="28.34761">
        <ele>14.3</ele>
      </trkpt>
      <trkpt lat="37.01415" lon="28.34755">
        <ele>14.1</ele>
      </trkpt>
      <trkpt lat="37.01413" lon="28.34748">
        <ele>14</ele>
      </trkpt>
      <trkpt lat="37.01413" lon="28.34742">
        <ele>13.8</ele>
      </trkpt>
      <trkpt lat="37.01413" lon="28.34735">
        <ele>13.7</ele>
      </trkpt>
      <trkpt lat="37.01413" lon="28.34729">
        <ele>13.5</ele>
      </trkpt>
      <trkpt lat="37.01413" lon="28.34722">
        <ele>13.4</ele>
      </trkpt>
      <trkpt lat="37.01412" lon="28.34715">
        <ele>13.2</ele>
      </trkpt>
      <trkpt lat="37.01411" lon="28.34709">
        <ele>13.1</ele>
      </trkpt>
      <trkpt lat="37.01411" lon="28.34702">
        <ele>12.9</ele>
      </trkpt>
      <trkpt lat="37.01412" lon="28.34695">
        <ele>12.8</ele>
      </trkpt>
      <trkpt lat="37.01412" lon="28.34688">
        <ele>12.6</ele>
      </trkpt>
      <trkpt lat="37.01413" lon="28.34682">
        <ele>12.5</ele>
      </trkpt>
      <trkpt lat="37.01414" lon="28.34676">
        <ele>12.3</ele>
      </trkpt>
      <trkpt lat="37.01414" lon="28.3467">
        <ele>12.1</ele>
      </trkpt>
      <trkpt lat="37.01415" lon="28.34664">
        <ele>12.1</ele>
      </trkpt>
      <trkpt lat="37.01416" lon="28.34657">
        <ele>12.2</ele>
      </trkpt>
      <trkpt lat="37.01418" lon="28.34652">
        <ele>12.4</ele>
      </trkpt>
      <trkpt lat="37.01419" lon="28.34646">
        <ele>12.6</ele>
      </trkpt>
      <trkpt lat="37.01421" lon="28.3464">
        <ele>12.7</ele>
      </trkpt>
      <trkpt lat="37.01422" lon="28.34634">
        <ele>12.9</ele>
      </trkpt>
      <trkpt lat="37.01423" lon="28.34629">
        <ele>13</ele>
      </trkpt>
      <trkpt lat="37.01424" lon="28.34622">
        <ele>13.1</ele>
      </trkpt>
      <trkpt lat="37.01426" lon="28.34616">
        <ele>13.2</ele>
      </trkpt>
      <trkpt lat="37.01427" lon="28.34611">
        <ele>13.3</ele>
      </trkpt>
      <trkpt lat="37.01429" lon="28.34605">
        <ele>13.4</ele>
      </trkpt>
      <trkpt lat="37.01431" lon="28.34599">
        <ele>13.4</ele>
      </trkpt>
      <trkpt lat="37.01432" lon="28.34593">
        <ele>13.5</ele>
      </trkpt>
      <trkpt lat="37.01434" lon="28.34587">
        <ele>13.5</ele>
      </trkpt>
      <trkpt lat="37.01436" lon="28.34582">
        <ele>13.5</ele>
      </trkpt>
      <trkpt lat="37.01439" lon="28.34576">
        <ele>13.5</ele>
      </trkpt>
      <trkpt lat="37.01441" lon="28.34571">
        <ele>13.5</ele>
      </trkpt>
      <trkpt lat="37.01443" lon="28.34565">
        <ele>13.4</ele>
      </trkpt>
      <trkpt lat="37.01445" lon="28.34558">
        <ele>13.4</ele>
      </trkpt>
      <trkpt lat="37.01446" lon="28.34552">
        <ele>13.4</ele>
      </trkpt>
      <trkpt lat="37.01448" lon="28.34546">
        <ele>13.4</ele>
      </trkpt>
      <trkpt lat="37.0145" lon="28.34539">
        <ele>13.4</ele>
      </trkpt>
      <trkpt lat="37.01452" lon="28.34533">
        <ele>13.4</ele>
      </trkpt>
      <trkpt lat="37.01453" lon="28.34527">
        <ele>13.4</ele>
      </trkpt>
      <trkpt lat="37.01455" lon="28.34522">
        <ele>13.4</ele>
      </trkpt>
      <trkpt lat="37.01457" lon="28.34515">
        <ele>13.4</ele>
      </trkpt>
      <trkpt lat="37.01458" lon="28.34509">
        <ele>13.5</ele>
      </trkpt>
      <trkpt lat="37.0146" lon="28.34502">
        <ele>13.5</ele>
      </trkpt>
      <trkpt lat="37.01462" lon="28.34496">
        <ele>13.5</ele>
      </trkpt>
      <trkpt lat="37.01463" lon="28.3449">
        <ele>13.5</ele>
      </trkpt>
      <trkpt lat="37.01465" lon="28.34484">
        <ele>13.5</ele>
      </trkpt>
      <trkpt lat="37.01468" lon="28.34478">
        <ele>13.6</ele>
      </trkpt>
      <trkpt lat="37.01469" lon="28.34471">
        <ele>13.6</ele>
      </trkpt>
      <trkpt lat="37.0147" lon="28.34466">
        <ele>13.6</ele>
      </trkpt>
      <trkpt lat="37.01472" lon="28.34459">
        <ele>13.7</ele>
      </trkpt>
      <trkpt lat="37.01475" lon="28.34452">
        <ele>13.7</ele>
      </trkpt>
      <trkpt lat="37.01478" lon="28.34447">
        <ele>13.7</ele>
      </trkpt>
      <trkpt lat="37.01478" lon="28.34441">
        <ele>13.8</ele>
      </trkpt>
      <trkpt lat="37.01479" lon="28.34435">
        <ele>13.8</ele>
      </trkpt>
      <trkpt lat="37.0148" lon="28.34429">
        <ele>13.9</ele>
      </trkpt>
      <trkpt lat="37.01482" lon="28.34423">
        <ele>13.9</ele>
      </trkpt>
      <trkpt lat="37.01484" lon="28.34416">
        <ele>14</ele>
      </trkpt>
      <trkpt lat="37.01486" lon="28.34411">
        <ele>14</ele>
      </trkpt>
      <trkpt lat="37.01487" lon="28.34405">
        <ele>14</ele>
      </trkpt>
      <trkpt lat="37.0149" lon="28.344">
        <ele>14</ele>
      </trkpt>
      <trkpt lat="37.01492" lon="28.34394">
        <ele>14</ele>
      </trkpt>
      <trkpt lat="37.01494" lon="28.34389">
        <ele>14</ele>
      </trkpt>
      <trkpt lat="37.01495" lon="28.34383">
        <ele>14</ele>
      </trkpt>
      <trkpt lat="37.01497" lon="28.34377">
        <ele>14</ele>
      </trkpt>
      <trkpt lat="37.01501" lon="28.34373">
        <ele>14</ele>
      </trkpt>
      <trkpt lat="37.01503" lon="28.34367">
        <ele>13.9</ele>
      </trkpt>
      <trkpt lat="37.01506" lon="28.34361">
        <ele>13.8</ele>
      </trkpt>
      <trkpt lat="37.01508" lon="28.34356">
        <ele>13.8</ele>
      </trkpt>
      <trkpt lat="37.01512" lon="28.34351">
        <ele>13.7</ele>
      </trkpt>
      <trkpt lat="37.01516" lon="28.34347">
        <ele>13.6</ele>
      </trkpt>
      <trkpt lat="37.01518" lon="28.34342">
        <ele>13.5</ele>
      </trkpt>
      <trkpt lat="37.01521" lon="28.34337">
        <ele>13.5</ele>
      </trkpt>
      <trkpt lat="37.01525" lon="28.34332">
        <ele>13.5</ele>
      </trkpt>
      <trkpt lat="37.01527" lon="28.34326">
        <ele>13.7</ele>
      </trkpt>
      <trkpt lat="37.01528" lon="28.34319">
        <ele>14</ele>
      </trkpt>
      <trkpt lat="37.01527" lon="28.34312">
        <ele>14.4</ele>
      </trkpt>
      <trkpt lat="37.01525" lon="28.34306">
        <ele>14.8</ele>
      </trkpt>
      <trkpt lat="37.01521" lon="28.34303">
        <ele>15.1</ele>
      </trkpt>
      <trkpt lat="37.01517" lon="28.34299">
        <ele>15.6</ele>
      </trkpt>
      <trkpt lat="37.01514" lon="28.34294">
        <ele>16</ele>
      </trkpt>
      <trkpt lat="37.0151" lon="28.34291">
        <ele>16.5</ele>
      </trkpt>
      <trkpt lat="37.01505" lon="28.34287">
        <ele>17</ele>
      </trkpt>
      <trkpt lat="37.015" lon="28.34286">
        <ele>17.4</ele>
      </trkpt>
      <trkpt lat="37.01496" lon="28.34285">
        <ele>17.9</ele>
      </trkpt>
      <trkpt lat="37.01491" lon="28.34282">
        <ele>18.6</ele>
      </trkpt>
      <trkpt lat="37.01487" lon="28.34278">
        <ele>19.5</ele>
      </trkpt>
      <trkpt lat="37.01482" lon="28.34276">
        <ele>20.2</ele>
      </trkpt>
      <trkpt lat="37.01477" lon="28.34274">
        <ele>20.9</ele>
      </trkpt>
      <trkpt lat="37.01473" lon="28.34272">
        <ele>21.7</ele>
      </trkpt>
      <trkpt lat="37.01468" lon="28.3427">
        <ele>22.6</ele>
      </trkpt>
      <trkpt lat="37.01464" lon="28.34267">
        <ele>23.5</ele>
      </trkpt>
      <trkpt lat="37.01463" lon="28.34261">
        <ele>24.6</ele>
      </trkpt>
      <trkpt lat="37.01466" lon="28.34256">
        <ele>24.9</ele>
      </trkpt>
      <trkpt lat="37.0147" lon="28.34251">
        <ele>24.9</ele>
      </trkpt>
      <trkpt lat="37.01472" lon="28.34246">
        <ele>26.1</ele>
      </trkpt>
      <trkpt lat="37.01475" lon="28.3424">
        <ele>27.2</ele>
      </trkpt>
      <trkpt lat="37.01479" lon="28.34237">
        <ele>27.6</ele>
      </trkpt>
      <trkpt lat="37.01483" lon="28.34233">
        <ele>28</ele>
      </trkpt>
      <trkpt lat="37.01486" lon="28.34228">
        <ele>29.2</ele>
      </trkpt>
      <trkpt lat="37.01488" lon="28.34222">
        <ele>30.4</ele>
      </trkpt>
      <trkpt lat="37.01491" lon="28.34218">
        <ele>31.3</ele>
      </trkpt>
      <trkpt lat="37.01495" lon="28.34213">
        <ele>32</ele>
      </trkpt>
      <trkpt lat="37.015" lon="28.34212">
        <ele>31.5</ele>
      </trkpt>
      <trkpt lat="37.01504" lon="28.34208">
        <ele>31.7</ele>
      </trkpt>
      <trkpt lat="37.01508" lon="28.34205">
        <ele>31.7</ele>
      </trkpt>
      <trkpt lat="37.01512" lon="28.34201">
        <ele>31.5</ele>
      </trkpt>
      <trkpt lat="37.01517" lon="28.34199">
        <ele>30.8</ele>
      </trkpt>
      <trkpt lat="37.01522" lon="28.34195">
        <ele>30.3</ele>
      </trkpt>
      <trkpt lat="37.01525" lon="28.34191">
        <ele>30.2</ele>
      </trkpt>
      <trkpt lat="37.01528" lon="28.34186">
        <ele>30.3</ele>
      </trkpt>
      <trkpt lat="37.0153" lon="28.3418">
        <ele>30.9</ele>
      </trkpt>
      <trkpt lat="37.01534" lon="28.34176">
        <ele>30.2</ele>
      </trkpt>
      <trkpt lat="37.01537" lon="28.34172">
        <ele>30.1</ele>
      </trkpt>
      <trkpt lat="37.01539" lon="28.34166">
        <ele>30</ele>
      </trkpt>
      <trkpt lat="37.01543" lon="28.34161">
        <ele>29.4</ele>
      </trkpt>
      <trkpt lat="37.01545" lon="28.34156">
        <ele>29.1</ele>
      </trkpt>
      <trkpt lat="37.01549" lon="28.34151">
        <ele>28.3</ele>
      </trkpt>
      <trkpt lat="37.01552" lon="28.34146">
        <ele>27.9</ele>
      </trkpt>
      <trkpt lat="37.0155" lon="28.34139">
        <ele>29.5</ele>
      </trkpt>
      <trkpt lat="37.01552" lon="28.34134">
        <ele>29.2</ele>
      </trkpt>
      <trkpt lat="37.01556" lon="28.3413">
        <ele>27.9</ele>
      </trkpt>
      <trkpt lat="37.0156" lon="28.34127">
        <ele>26.5</ele>
      </trkpt>
      <trkpt lat="37.01562" lon="28.34121">
        <ele>26.2</ele>
      </trkpt>
      <trkpt lat="37.01565" lon="28.34116">
        <ele>25.5</ele>
      </trkpt>
      <trkpt lat="37.01567" lon="28.3411">
        <ele>25.5</ele>
      </trkpt>
      <trkpt lat="37.01568" lon="28.34104">
        <ele>25.4</ele>
      </trkpt>
      <trkpt lat="37.0157" lon="28.34097">
        <ele>25.5</ele>
      </trkpt>
      <trkpt lat="37.0157" lon="28.3409">
        <ele>26.3</ele>
      </trkpt>
      <trkpt lat="37.01569" lon="28.34084">
        <ele>27.2</ele>
      </trkpt>
      <trkpt lat="37.01572" lon="28.34077">
        <ele>26.4</ele>
      </trkpt>
      <trkpt lat="37.01572" lon="28.3407">
        <ele>26.7</ele>
      </trkpt>
      <trkpt lat="37.01572" lon="28.34064">
        <ele>27.6</ele>
      </trkpt>
      <trkpt lat="37.01573" lon="28.34058">
        <ele>27.6</ele>
      </trkpt>
      <trkpt lat="37.01576" lon="28.34052">
        <ele>26.6</ele>
      </trkpt>
      <trkpt lat="37.01579" lon="28.34049">
        <ele>25.1</ele>
      </trkpt>
      <trkpt lat="37.01581" lon="28.34043">
        <ele>24.8</ele>
      </trkpt>
      <trkpt lat="37.01584" lon="28.34038">
        <ele>23.7</ele>
      </trkpt>
      <trkpt lat="37.01586" lon="28.34032">
        <ele>23.9</ele>
      </trkpt>
      <trkpt lat="37.01591" lon="28.34027">
        <ele>23.5</ele>
      </trkpt>
      <trkpt lat="37.01593" lon="28.34021">
        <ele>23.5</ele>
      </trkpt>
      <trkpt lat="37.01596" lon="28.34016">
        <ele>23.4</ele>
      </trkpt>
      <trkpt lat="37.01598" lon="28.3401">
        <ele>23.3</ele>
      </trkpt>
      <trkpt lat="37.01601" lon="28.34003">
        <ele>23.3</ele>
      </trkpt>
      <trkpt lat="37.01603" lon="28.33996">
        <ele>22.9</ele>
      </trkpt>
      <trkpt lat="37.01606" lon="28.33991">
        <ele>22.1</ele>
      </trkpt>
      <trkpt lat="37.01609" lon="28.33985">
        <ele>21.2</ele>
      </trkpt>
      <trkpt lat="37.01611" lon="28.33977">
        <ele>20.4</ele>
      </trkpt>
      <trkpt lat="37.01614" lon="28.33971">
        <ele>19.5</ele>
      </trkpt>
      <trkpt lat="37.01614" lon="28.33964">
        <ele>19.3</ele>
      </trkpt>
      <trkpt lat="37.01613" lon="28.33957">
        <ele>19.2</ele>
      </trkpt>
      <trkpt lat="37.0161" lon="28.33952">
        <ele>19.6</ele>
      </trkpt>
      <trkpt lat="37.01609" lon="28.33946">
        <ele>19.5</ele>
      </trkpt>
      <trkpt lat="37.01609" lon="28.3394">
        <ele>19.4</ele>
      </trkpt>
      <trkpt lat="37.01605" lon="28.33934">
        <ele>19.8</ele>
      </trkpt>
      <trkpt lat="37.01601" lon="28.3393">
        <ele>20.4</ele>
      </trkpt>
      <trkpt lat="37.01598" lon="28.33925">
        <ele>20.7</ele>
      </trkpt>
      <trkpt lat="37.01594" lon="28.33922">
        <ele>21.3</ele>
      </trkpt>
      <trkpt lat="37.01593" lon="28.33914">
        <ele>21</ele>
      </trkpt>
      <trkpt lat="37.01589" lon="28.33907">
        <ele>20.9</ele>
      </trkpt>
      <trkpt lat="37.01587" lon="28.339">
        <ele>20.7</ele>
      </trkpt>
      <trkpt lat="37.01584" lon="28.33895">
        <ele>20.6</ele>
      </trkpt>
      <trkpt lat="37.01579" lon="28.33897">
        <ele>23</ele>
      </trkpt>
      <trkpt lat="37.01576" lon="28.33892">
        <ele>24.1</ele>
      </trkpt>
      <trkpt lat="37.01573" lon="28.33886">
        <ele>24.8</ele>
      </trkpt>
      <trkpt lat="37.0157" lon="28.33879">
        <ele>25.1</ele>
      </trkpt>
      <trkpt lat="37.01566" lon="28.33871">
        <ele>26.2</ele>
      </trkpt>
      <trkpt lat="37.01561" lon="28.33869">
        <ele>28.4</ele>
      </trkpt>
      <trkpt lat="37.01557" lon="28.33865">
        <ele>29.9</ele>
      </trkpt>
      <trkpt lat="37.01554" lon="28.33859">
        <ele>30.5</ele>
      </trkpt>
      <trkpt lat="37.01551" lon="28.33851">
        <ele>30.9</ele>
      </trkpt>
      <trkpt lat="37.01547" lon="28.33846">
        <ele>32.3</ele>
      </trkpt>
      <trkpt lat="37.01545" lon="28.3384">
        <ele>32.4</ele>
      </trkpt>
      <trkpt lat="37.01544" lon="28.33834">
        <ele>32.1</ele>
      </trkpt>
      <trkpt lat="37.01543" lon="28.33828">
        <ele>33.5</ele>
      </trkpt>
      <trkpt lat="37.01545" lon="28.33822">
        <ele>33.7</ele>
      </trkpt>
      <trkpt lat="37.01547" lon="28.33817">
        <ele>33.4</ele>
      </trkpt>
      <trkpt lat="37.01551" lon="28.33813">
        <ele>32.4</ele>
      </trkpt>
      <trkpt lat="37.01555" lon="28.33809">
        <ele>31.2</ele>
      </trkpt>
      <trkpt lat="37.01558" lon="28.33806">
        <ele>30.1</ele>
      </trkpt>
      <trkpt lat="37.01561" lon="28.33801">
        <ele>29.4</ele>
      </trkpt>
      <trkpt lat="37.01565" lon="28.33796">
        <ele>28.5</ele>
      </trkpt>
      <trkpt lat="37.01568" lon="28.33792">
        <ele>27.8</ele>
      </trkpt>
      <trkpt lat="37.01573" lon="28.33789">
        <ele>26.2</ele>
      </trkpt>
      <trkpt lat="37.01576" lon="28.33785">
        <ele>25</ele>
      </trkpt>
      <trkpt lat="37.01577" lon="28.33778">
        <ele>25.7</ele>
      </trkpt>
      <trkpt lat="37.01578" lon="28.33771">
        <ele>26.3</ele>
      </trkpt>
      <trkpt lat="37.01579" lon="28.33765">
        <ele>26.8</ele>
      </trkpt>
      <trkpt lat="37.0158" lon="28.33759">
        <ele>27.3</ele>
      </trkpt>
      <trkpt lat="37.01582" lon="28.33754">
        <ele>27</ele>
      </trkpt>
      <trkpt lat="37.01585" lon="28.33749">
        <ele>26.8</ele>
      </trkpt>
      <trkpt lat="37.01591" lon="28.33745">
        <ele>26.4</ele>
      </trkpt>
      <trkpt lat="37.01591" lon="28.33739">
        <ele>27.5</ele>
      </trkpt>
      <trkpt lat="37.01592" lon="28.33734">
        <ele>28.3</ele>
      </trkpt>
      <trkpt lat="37.01592" lon="28.33727">
        <ele>29.7</ele>
      </trkpt>
      <trkpt lat="37.01594" lon="28.33722">
        <ele>30.3</ele>
      </trkpt>
      <trkpt lat="37.01595" lon="28.33716">
        <ele>31.2</ele>
      </trkpt>
      <trkpt lat="37.01598" lon="28.33711">
        <ele>31.4</ele>
      </trkpt>
      <trkpt lat="37.01598" lon="28.33705">
        <ele>32.7</ele>
      </trkpt>
      <trkpt lat="37.01604" lon="28.33702">
        <ele>31.3</ele>
      </trkpt>
      <trkpt lat="37.01607" lon="28.33696">
        <ele>31.6</ele>
      </trkpt>
      <trkpt lat="37.01611" lon="28.33693">
        <ele>30.6</ele>
      </trkpt>
      <trkpt lat="37.01613" lon="28.33688">
        <ele>30.7</ele>
      </trkpt>
      <trkpt lat="37.01619" lon="28.33684">
        <ele>29.5</ele>
      </trkpt>
      <trkpt lat="37.01622" lon="28.3368">
        <ele>29.1</ele>
      </trkpt>
      <trkpt lat="37.01622" lon="28.33673">
        <ele>30</ele>
      </trkpt>
      <trkpt lat="37.01624" lon="28.33668">
        <ele>30.3</ele>
      </trkpt>
      <trkpt lat="37.01627" lon="28.33664">
        <ele>29.9</ele>
      </trkpt>
      <trkpt lat="37.01627" lon="28.33658">
        <ele>31.2</ele>
      </trkpt>
      <trkpt lat="37.01628" lon="28.33651">
        <ele>32.2</ele>
      </trkpt>
      <trkpt lat="37.01627" lon="28.33643">
        <ele>33.9</ele>
      </trkpt>
      <trkpt lat="37.01628" lon="28.33638">
        <ele>35</ele>
      </trkpt>
      <trkpt lat="37.01627" lon="28.33632">
        <ele>36.7</ele>
      </trkpt>
      <trkpt lat="37.0163" lon="28.33627">
        <ele>36.3</ele>
      </trkpt>
      <trkpt lat="37.01632" lon="28.33621">
        <ele>36.8</ele>
      </trkpt>
      <trkpt lat="37.01631" lon="28.33614">
        <ele>38.5</ele>
      </trkpt>
      <trkpt lat="37.01631" lon="28.33607">
        <ele>40.1</ele>
      </trkpt>
      <trkpt lat="37.01634" lon="28.336">
        <ele>40.3</ele>
      </trkpt>
      <trkpt lat="37.01636" lon="28.33594">
        <ele>40.4</ele>
      </trkpt>
      <trkpt lat="37.0164" lon="28.33588">
        <ele>39.5</ele>
      </trkpt>
      <trkpt lat="37.01644" lon="28.33581">
        <ele>39</ele>
      </trkpt>
      <trkpt lat="37.01647" lon="28.33576">
        <ele>37.9</ele>
      </trkpt>
      <trkpt lat="37.01648" lon="28.3357">
        <ele>38.1</ele>
      </trkpt>
      <trkpt lat="37.0165" lon="28.33563">
        <ele>38.2</ele>
      </trkpt>
      <trkpt lat="37.01651" lon="28.33558">
        <ele>38.3</ele>
      </trkpt>
      <trkpt lat="37.01652" lon="28.3355">
        <ele>38.5</ele>
      </trkpt>
      <trkpt lat="37.01654" lon="28.33544">
        <ele>38.3</ele>
      </trkpt>
      <trkpt lat="37.01654" lon="28.33538">
        <ele>38.7</ele>
      </trkpt>
      <trkpt lat="37.01657" lon="28.33533">
        <ele>37.7</ele>
      </trkpt>
      <trkpt lat="37.01659" lon="28.33527">
        <ele>37.2</ele>
      </trkpt>
      <trkpt lat="37.01662" lon="28.33521">
        <ele>35.9</ele>
      </trkpt>
      <trkpt lat="37.01661" lon="28.33514">
        <ele>37.3</ele>
      </trkpt>
      <trkpt lat="37.01665" lon="28.33509">
        <ele>35.4</ele>
      </trkpt>
      <trkpt lat="37.01668" lon="28.33503">
        <ele>34.4</ele>
      </trkpt>
      <trkpt lat="37.01668" lon="28.33496">
        <ele>35.1</ele>
      </trkpt>
      <trkpt lat="37.0167" lon="28.33491">
        <ele>34.7</ele>
      </trkpt>
      <trkpt lat="37.01672" lon="28.33486">
        <ele>34.5</ele>
      </trkpt>
      <trkpt lat="37.01674" lon="28.33479">
        <ele>34.5</ele>
      </trkpt>
      <trkpt lat="37.01674" lon="28.33473">
        <ele>35</ele>
      </trkpt>
      <trkpt lat="37.01676" lon="28.33467">
        <ele>35</ele>
      </trkpt>
      <trkpt lat="37.01677" lon="28.33461">
        <ele>35</ele>
      </trkpt>
      <trkpt lat="37.01679" lon="28.33455">
        <ele>35</ele>
      </trkpt>
      <trkpt lat="37.01681" lon="28.3345">
        <ele>34.7</ele>
      </trkpt>
      <trkpt lat="37.01682" lon="28.33444">
        <ele>34.8</ele>
      </trkpt>
      <trkpt lat="37.01683" lon="28.33437">
        <ele>35.1</ele>
      </trkpt>
      <trkpt lat="37.01687" lon="28.3343">
        <ele>34.4</ele>
      </trkpt>
      <trkpt lat="37.01689" lon="28.33425">
        <ele>34</ele>
      </trkpt>
      <trkpt lat="37.0169" lon="28.33418">
        <ele>34.3</ele>
      </trkpt>
      <trkpt lat="37.01692" lon="28.33413">
        <ele>34.1</ele>
      </trkpt>
      <trkpt lat="37.01693" lon="28.33406">
        <ele>34.2</ele>
      </trkpt>
      <trkpt lat="37.01697" lon="28.33401">
        <ele>33.3</ele>
      </trkpt>
      <trkpt lat="37.01697" lon="28.33395">
        <ele>34</ele>
      </trkpt>
      <trkpt lat="37.01695" lon="28.33389">
        <ele>34.9</ele>
      </trkpt>
      <trkpt lat="37.01695" lon="28.33383">
        <ele>35.3</ele>
      </trkpt>
      <trkpt lat="37.01694" lon="28.33378">
        <ele>36.2</ele>
      </trkpt>
      <trkpt lat="37.01691" lon="28.33372">
        <ele>37.7</ele>
      </trkpt>
      <trkpt lat="37.01691" lon="28.33365">
        <ele>37.9</ele>
      </trkpt>
      <trkpt lat="37.0169" lon="28.33359">
        <ele>38.9</ele>
      </trkpt>
      <trkpt lat="37.01686" lon="28.33354">
        <ele>40.3</ele>
      </trkpt>
      <trkpt lat="37.01683" lon="28.33349">
        <ele>41.8</ele>
      </trkpt>
      <trkpt lat="37.0168" lon="28.33345">
        <ele>43.1</ele>
      </trkpt>
      <trkpt lat="37.01676" lon="28.3334">
        <ele>44.5</ele>
      </trkpt>
      <trkpt lat="37.01673" lon="28.33336">
        <ele>45.8</ele>
      </trkpt>
      <trkpt lat="37.0167" lon="28.33332">
        <ele>47.2</ele>
      </trkpt>
      <trkpt lat="37.01666" lon="28.33327">
        <ele>48.9</ele>
      </trkpt>
      <trkpt lat="37.01664" lon="28.33322">
        <ele>50.7</ele>
      </trkpt>
      <trkpt lat="37.0166" lon="28.33318">
        <ele>53</ele>
      </trkpt>
      <trkpt lat="37.01659" lon="28.33312">
        <ele>54</ele>
      </trkpt>
      <trkpt lat="37.01655" lon="28.33308">
        <ele>56</ele>
      </trkpt>
      <trkpt lat="37.01652" lon="28.33303">
        <ele>57.7</ele>
      </trkpt>
      <trkpt lat="37.01649" lon="28.33298">
        <ele>59.1</ele>
      </trkpt>
      <trkpt lat="37.01646" lon="28.33294">
        <ele>60.8</ele>
      </trkpt>
      <trkpt lat="37.01642" lon="28.33291">
        <ele>62.6</ele>
      </trkpt>
      <trkpt lat="37.01639" lon="28.33287">
        <ele>63.9</ele>
      </trkpt>
      <trkpt lat="37.01635" lon="28.33281">
        <ele>65.3</ele>
      </trkpt>
      <trkpt lat="37.01633" lon="28.33276">
        <ele>66.3</ele>
      </trkpt>
      <trkpt lat="37.01631" lon="28.3327">
        <ele>67</ele>
      </trkpt>
      <trkpt lat="37.01629" lon="28.33265">
        <ele>67.6</ele>
      </trkpt>
      <trkpt lat="37.01627" lon="28.3326">
        <ele>68.5</ele>
      </trkpt>
      <trkpt lat="37.01625" lon="28.33255">
        <ele>69.1</ele>
      </trkpt>
      <trkpt lat="37.01624" lon="28.33248">
        <ele>69.7</ele>
      </trkpt>
      <trkpt lat="37.01622" lon="28.33242">
        <ele>71.5</ele>
      </trkpt>
      <trkpt lat="37.01619" lon="28.33237">
        <ele>73.3</ele>
      </trkpt>
      <trkpt lat="37.01618" lon="28.33231">
        <ele>74.7</ele>
      </trkpt>
      <trkpt lat="37.01618" lon="28.33226">
        <ele>75.8</ele>
      </trkpt>
      <trkpt lat="37.01616" lon="28.3322">
        <ele>77.3</ele>
      </trkpt>
      <trkpt lat="37.01615" lon="28.33214">
        <ele>78.6</ele>
      </trkpt>
      <trkpt lat="37.01615" lon="28.33208">
        <ele>79.7</ele>
      </trkpt>
      <trkpt lat="37.01614" lon="28.33202">
        <ele>80.8</ele>
      </trkpt>
      <trkpt lat="37.01615" lon="28.33197">
        <ele>81.7</ele>
      </trkpt>
      <trkpt lat="37.01619" lon="28.33193">
        <ele>82</ele>
      </trkpt>
      <trkpt lat="37.01627" lon="28.3319">
        <ele>82.3</ele>
      </trkpt>
      <trkpt lat="37.01631" lon="28.3319">
        <ele>81.9</ele>
      </trkpt>
      <trkpt lat="37.01636" lon="28.3319">
        <ele>81.8</ele>
      </trkpt>
      <trkpt lat="37.01639" lon="28.33185">
        <ele>83.1</ele>
      </trkpt>
      <trkpt lat="37.01639" lon="28.33175">
        <ele>85.6</ele>
      </trkpt>
      <trkpt lat="37.01644" lon="28.33171">
        <ele>86.9</ele>
      </trkpt>
      <trkpt lat="37.01646" lon="28.33164">
        <ele>89.3</ele>
      </trkpt>
      <trkpt lat="37.01642" lon="28.33162">
        <ele>90.3</ele>
      </trkpt>
      <trkpt lat="37.01642" lon="28.33154">
        <ele>93.4</ele>
      </trkpt>
      <trkpt lat="37.01638" lon="28.33149">
        <ele>95.2</ele>
      </trkpt>
      <trkpt lat="37.01643" lon="28.33151">
        <ele>95</ele>
      </trkpt>
      <trkpt lat="37.01639" lon="28.3315">
        <ele>94.8</ele>
      </trkpt>
      <trkpt lat="37.01634" lon="28.3315">
        <ele>94.7</ele>
      </trkpt>
      <trkpt lat="37.01636" lon="28.33156">
        <ele>92.4</ele>
      </trkpt>
      <trkpt lat="37.01631" lon="28.33153">
        <ele>93.4</ele>
      </trkpt>
      <trkpt lat="37.01628" lon="28.33149">
        <ele>94.9</ele>
      </trkpt>
      <trkpt lat="37.01623" lon="28.33146">
        <ele>95.7</ele>
      </trkpt>
      <trkpt lat="37.0162" lon="28.33142">
        <ele>97.1</ele>
      </trkpt>
      <trkpt lat="37.01617" lon="28.33138">
        <ele>98.6</ele>
      </trkpt>
      <trkpt lat="37.01611" lon="28.33136">
        <ele>99</ele>
      </trkpt>
      <trkpt lat="37.01607" lon="28.33133">
        <ele>99.7</ele>
      </trkpt>
      <trkpt lat="37.01602" lon="28.33133">
        <ele>99.2</ele>
      </trkpt>
      <trkpt lat="37.01601" lon="28.33127">
        <ele>101.4</ele>
      </trkpt>
      <trkpt lat="37.01598" lon="28.33122">
        <ele>103</ele>
      </trkpt>
      <trkpt lat="37.01595" lon="28.33118">
        <ele>104.2</ele>
      </trkpt>
      <trkpt lat="37.01591" lon="28.33115">
        <ele>104.7</ele>
      </trkpt>
      <trkpt lat="37.01586" lon="28.33112">
        <ele>105.2</ele>
      </trkpt>
      <trkpt lat="37.01584" lon="28.33107">
        <ele>106.7</ele>
      </trkpt>
      <trkpt lat="37.01583" lon="28.33102">
        <ele>108.8</ele>
      </trkpt>
      <trkpt lat="37.0158" lon="28.33096">
        <ele>111</ele>
      </trkpt>
      <trkpt lat="37.01576" lon="28.33092">
        <ele>113.1</ele>
      </trkpt>
      <trkpt lat="37.01574" lon="28.33086">
        <ele>115.1</ele>
      </trkpt>
      <trkpt lat="37.01572" lon="28.33082">
        <ele>117</ele>
      </trkpt>
      <trkpt lat="37.01568" lon="28.33077">
        <ele>119.1</ele>
      </trkpt>
      <trkpt lat="37.01566" lon="28.33072">
        <ele>121.4</ele>
      </trkpt>
      <trkpt lat="37.01563" lon="28.33067">
        <ele>123.4</ele>
      </trkpt>
      <trkpt lat="37.01559" lon="28.33062">
        <ele>125.7</ele>
      </trkpt>
      <trkpt lat="37.01556" lon="28.33059">
        <ele>127.4</ele>
      </trkpt>
      <trkpt lat="37.01557" lon="28.33053">
        <ele>129.3</ele>
      </trkpt>
      <trkpt lat="37.01555" lon="28.33047">
        <ele>131.5</ele>
      </trkpt>
      <trkpt lat="37.01555" lon="28.33042">
        <ele>133.6</ele>
      </trkpt>
      <trkpt lat="37.01553" lon="28.33037">
        <ele>135.5</ele>
      </trkpt>
      <trkpt lat="37.0155" lon="28.33032">
        <ele>137.4</ele>
      </trkpt>
      <trkpt lat="37.01548" lon="28.33027">
        <ele>139.4</ele>
      </trkpt>
      <trkpt lat="37.01544" lon="28.33023">
        <ele>140.9</ele>
      </trkpt>
      <trkpt lat="37.0154" lon="28.33019">
        <ele>142.6</ele>
      </trkpt>
      <trkpt lat="37.01535" lon="28.33017">
        <ele>143.5</ele>
      </trkpt>
      <trkpt lat="37.01531" lon="28.33013">
        <ele>145</ele>
      </trkpt>
      <trkpt lat="37.01529" lon="28.33007">
        <ele>146.9</ele>
      </trkpt>
      <trkpt lat="37.01526" lon="28.33003">
        <ele>148.4</ele>
      </trkpt>
      <trkpt lat="37.01522" lon="28.33">
        <ele>149.6</ele>
      </trkpt>
      <trkpt lat="37.01517" lon="28.32998">
        <ele>150.2</ele>
      </trkpt>
      <trkpt lat="37.01513" lon="28.32995">
        <ele>151</ele>
      </trkpt>
      <trkpt lat="37.01509" lon="28.32996">
        <ele>150.9</ele>
      </trkpt>
      <trkpt lat="37.01504" lon="28.32997">
        <ele>150.7</ele>
      </trkpt>
      <trkpt lat="37.015" lon="28.32999">
        <ele>150.2</ele>
      </trkpt>
      <trkpt lat="37.01496" lon="28.33003">
        <ele>150.1</ele>
      </trkpt>
      <trkpt lat="37.01493" lon="28.32999">
        <ele>152.3</ele>
      </trkpt>
      <trkpt lat="37.01493" lon="28.32993">
        <ele>154</ele>
      </trkpt>
      <trkpt lat="37.01492" lon="28.32987">
        <ele>155.7</ele>
      </trkpt>
      <trkpt lat="37.01494" lon="28.32982">
        <ele>156.6</ele>
      </trkpt>
      <trkpt lat="37.01493" lon="28.32976">
        <ele>158.5</ele>
      </trkpt>
      <trkpt lat="37.01495" lon="28.32971">
        <ele>159.3</ele>
      </trkpt>
      <trkpt lat="37.01493" lon="28.32965">
        <ele>161.2</ele>
      </trkpt>
      <trkpt lat="37.01494" lon="28.32959">
        <ele>162.8</ele>
      </trkpt>
      <trkpt lat="37.01494" lon="28.32954">
        <ele>164.1</ele>
      </trkpt>
      <trkpt lat="37.01496" lon="28.32948">
        <ele>165.3</ele>
      </trkpt>
      <trkpt lat="37.01495" lon="28.32942">
        <ele>167.2</ele>
      </trkpt>
      <trkpt lat="37.01498" lon="28.32937">
        <ele>167.9</ele>
      </trkpt>
      <trkpt lat="37.01499" lon="28.32931">
        <ele>169.2</ele>
      </trkpt>
      <trkpt lat="37.01496" lon="28.32927">
        <ele>171.1</ele>
      </trkpt>
      <trkpt lat="37.01493" lon="28.32921">
        <ele>173.3</ele>
      </trkpt>
      <trkpt lat="37.01493" lon="28.32914">
        <ele>174.7</ele>
      </trkpt>
      <trkpt lat="37.01493" lon="28.32908">
        <ele>175.2</ele>
      </trkpt>
      <trkpt lat="37.01494" lon="28.32903">
        <ele>175.5</ele>
      </trkpt>
      <trkpt lat="37.01496" lon="28.32897">
        <ele>175.5</ele>
      </trkpt>
      <trkpt lat="37.015" lon="28.32892">
        <ele>175.2</ele>
      </trkpt>
      <trkpt lat="37.01503" lon="28.32886">
        <ele>176</ele>
      </trkpt>
      <trkpt lat="37.01502" lon="28.3288">
        <ele>176.4</ele>
      </trkpt>
      <trkpt lat="37.01502" lon="28.32873">
        <ele>177</ele>
      </trkpt>
      <trkpt lat="37.01503" lon="28.32866">
        <ele>177.8</ele>
      </trkpt>
      <trkpt lat="37.01504" lon="28.3286">
        <ele>178.7</ele>
      </trkpt>
      <trkpt lat="37.01503" lon="28.32855">
        <ele>178.9</ele>
      </trkpt>
      <trkpt lat="37.01503" lon="28.32849">
        <ele>179.6</ele>
      </trkpt>
      <trkpt lat="37.01504" lon="28.32843">
        <ele>180.3</ele>
      </trkpt>
      <trkpt lat="37.01502" lon="28.32836">
        <ele>180.3</ele>
      </trkpt>
      <trkpt lat="37.01501" lon="28.32831">
        <ele>180.2</ele>
      </trkpt>
      <trkpt lat="37.015" lon="28.32825">
        <ele>180.2</ele>
      </trkpt>
      <trkpt lat="37.01501" lon="28.32819">
        <ele>180.5</ele>
      </trkpt>
      <trkpt lat="37.01498" lon="28.32814">
        <ele>180.8</ele>
      </trkpt>
      <trkpt lat="37.01499" lon="28.32808">
        <ele>180.9</ele>
      </trkpt>
      <trkpt lat="37.01497" lon="28.32803">
        <ele>181.2</ele>
      </trkpt>
      <trkpt lat="37.01499" lon="28.32797">
        <ele>181</ele>
      </trkpt>
      <trkpt lat="37.01497" lon="28.32792">
        <ele>181.5</ele>
      </trkpt>
      <trkpt lat="37.01498" lon="28.32787">
        <ele>181.5</ele>
      </trkpt>
      <trkpt lat="37.015" lon="28.3278">
        <ele>181.3</ele>
      </trkpt>
      <trkpt lat="37.015" lon="28.32774">
        <ele>181.5</ele>
      </trkpt>
      <trkpt lat="37.01505" lon="28.32771">
        <ele>183.3</ele>
      </trkpt>
      <trkpt lat="37.01507" lon="28.32764">
        <ele>184.3</ele>
      </trkpt>
      <trkpt lat="37.01507" lon="28.32757">
        <ele>184.5</ele>
      </trkpt>
      <trkpt lat="37.01509" lon="28.32753">
        <ele>185.5</ele>
      </trkpt>
      <trkpt lat="37.01511" lon="28.32746">
        <ele>186.3</ele>
      </trkpt>
      <trkpt lat="37.01511" lon="28.3274">
        <ele>186.6</ele>
      </trkpt>
      <trkpt lat="37.01512" lon="28.32733">
        <ele>186.8</ele>
      </trkpt>
      <trkpt lat="37.0151" lon="28.32727">
        <ele>186.4</ele>
      </trkpt>
      <trkpt lat="37.01511" lon="28.32721">
        <ele>186.6</ele>
      </trkpt>
      <trkpt lat="37.01513" lon="28.32716">
        <ele>187.5</ele>
      </trkpt>
      <trkpt lat="37.01515" lon="28.3271">
        <ele>188.4</ele>
      </trkpt>
      <trkpt lat="37.01518" lon="28.32706">
        <ele>189.6</ele>
      </trkpt>
      <trkpt lat="37.01523" lon="28.32705">
        <ele>191.3</ele>
      </trkpt>
      <trkpt lat="37.01523" lon="28.32698">
        <ele>191.3</ele>
      </trkpt>
      <trkpt lat="37.01522" lon="28.32693">
        <ele>191.2</ele>
      </trkpt>
      <trkpt lat="37.01523" lon="28.32687">
        <ele>191.5</ele>
      </trkpt>
      <trkpt lat="37.01521" lon="28.32681">
        <ele>191</ele>
      </trkpt>
      <trkpt lat="37.01517" lon="28.32677">
        <ele>189.7</ele>
      </trkpt>
      <trkpt lat="37.01513" lon="28.32674">
        <ele>188.4</ele>
      </trkpt>
      <trkpt lat="37.01509" lon="28.32673">
        <ele>186.8</ele>
      </trkpt>
      <trkpt lat="37.01505" lon="28.32668">
        <ele>185.6</ele>
      </trkpt>
      <trkpt lat="37.01501" lon="28.32667">
        <ele>184.2</ele>
      </trkpt>
      <trkpt lat="37.01497" lon="28.32663">
        <ele>184.1</ele>
      </trkpt>
      <trkpt lat="37.01493" lon="28.32659">
        <ele>184.2</ele>
      </trkpt>
      <trkpt lat="37.0149" lon="28.32654">
        <ele>184.2</ele>
      </trkpt>
      <trkpt lat="37.0149" lon="28.32648">
        <ele>184.1</ele>
      </trkpt>
      <trkpt lat="37.01486" lon="28.32643">
        <ele>183.9</ele>
      </trkpt>
      <trkpt lat="37.01483" lon="28.32638">
        <ele>183.8</ele>
      </trkpt>
      <trkpt lat="37.01482" lon="28.32632">
        <ele>183.5</ele>
      </trkpt>
      <trkpt lat="37.01479" lon="28.32627">
        <ele>183.2</ele>
      </trkpt>
      <trkpt lat="37.01477" lon="28.32622">
        <ele>182.9</ele>
      </trkpt>
      <trkpt lat="37.01475" lon="28.32615">
        <ele>182.4</ele>
      </trkpt>
      <trkpt lat="37.01471" lon="28.3261">
        <ele>181.8</ele>
      </trkpt>
      <trkpt lat="37.01468" lon="28.32605">
        <ele>181.3</ele>
      </trkpt>
      <trkpt lat="37.01466" lon="28.32599">
        <ele>180.7</ele>
      </trkpt>
      <trkpt lat="37.01466" lon="28.32592">
        <ele>180.2</ele>
      </trkpt>
      <trkpt lat="37.01466" lon="28.32586">
        <ele>179.7</ele>
      </trkpt>
      <trkpt lat="37.01466" lon="28.32579">
        <ele>178.9</ele>
      </trkpt>
      <trkpt lat="37.01465" lon="28.32574">
        <ele>177.9</ele>
      </trkpt>
      <trkpt lat="37.01465" lon="28.32567">
        <ele>177</ele>
      </trkpt>
      <trkpt lat="37.01464" lon="28.32561">
        <ele>176</ele>
      </trkpt>
      <trkpt lat="37.01462" lon="28.32555">
        <ele>174.8</ele>
      </trkpt>
      <trkpt lat="37.01459" lon="28.3255">
        <ele>173.7</ele>
      </trkpt>
      <trkpt lat="37.01457" lon="28.32545">
        <ele>172.5</ele>
      </trkpt>
      <trkpt lat="37.01454" lon="28.3254">
        <ele>171.3</ele>
      </trkpt>
      <trkpt lat="37.01452" lon="28.32536">
        <ele>170.1</ele>
      </trkpt>
      <trkpt lat="37.01451" lon="28.32529">
        <ele>169</ele>
      </trkpt>
      <trkpt lat="37.01451" lon="28.32523">
        <ele>167.9</ele>
      </trkpt>
      <trkpt lat="37.01451" lon="28.32517">
        <ele>167</ele>
      </trkpt>
      <trkpt lat="37.01452" lon="28.3251">
        <ele>166.2</ele>
      </trkpt>
      <trkpt lat="37.01453" lon="28.32504">
        <ele>165.4</ele>
      </trkpt>
      <trkpt lat="37.01453" lon="28.32498">
        <ele>164.7</ele>
      </trkpt>
      <trkpt lat="37.01454" lon="28.32491">
        <ele>164.3</ele>
      </trkpt>
      <trkpt lat="37.01455" lon="28.32485">
        <ele>164</ele>
      </trkpt>
      <trkpt lat="37.01455" lon="28.32478">
        <ele>163.4</ele>
      </trkpt>
      <trkpt lat="37.01455" lon="28.32472">
        <ele>163</ele>
      </trkpt>
      <trkpt lat="37.01453" lon="28.32465">
        <ele>162</ele>
      </trkpt>
      <trkpt lat="37.01454" lon="28.3246">
        <ele>161.6</ele>
      </trkpt>
      <trkpt lat="37.01455" lon="28.32452">
        <ele>161.3</ele>
      </trkpt>
      <trkpt lat="37.01455" lon="28.32446">
        <ele>160.7</ele>
      </trkpt>
      <trkpt lat="37.01456" lon="28.3244">
        <ele>160.5</ele>
      </trkpt>
      <trkpt lat="37.01458" lon="28.32435">
        <ele>160.4</ele>
      </trkpt>
      <trkpt lat="37.0146" lon="28.32428">
        <ele>160.3</ele>
      </trkpt>
      <trkpt lat="37.01461" lon="28.32422">
        <ele>160.1</ele>
      </trkpt>
      <trkpt lat="37.01465" lon="28.32417">
        <ele>160.4</ele>
      </trkpt>
      <trkpt lat="37.01468" lon="28.32413">
        <ele>161</ele>
      </trkpt>
      <trkpt lat="37.01471" lon="28.32408">
        <ele>161.6</ele>
      </trkpt>
      <trkpt lat="37.01475" lon="28.32403">
        <ele>162.3</ele>
      </trkpt>
      <trkpt lat="37.01479" lon="28.324">
        <ele>163.1</ele>
      </trkpt>
      <trkpt lat="37.01483" lon="28.32394">
        <ele>163.6</ele>
      </trkpt>
      <trkpt lat="37.01485" lon="28.3239">
        <ele>163.9</ele>
      </trkpt>
      <trkpt lat="37.01488" lon="28.32385">
        <ele>164.1</ele>
      </trkpt>
      <trkpt lat="37.01488" lon="28.32379">
        <ele>164</ele>
      </trkpt>
      <trkpt lat="37.01489" lon="28.32371">
        <ele>163.8</ele>
      </trkpt>
      <trkpt lat="37.01491" lon="28.32364">
        <ele>163.7</ele>
      </trkpt>
      <trkpt lat="37.0149" lon="28.32356">
        <ele>163.2</ele>
      </trkpt>
      <trkpt lat="37.01486" lon="28.32352">
        <ele>162.7</ele>
      </trkpt>
      <trkpt lat="37.01487" lon="28.32346">
        <ele>162.5</ele>
      </trkpt>
      <trkpt lat="37.01485" lon="28.32339">
        <ele>162.1</ele>
      </trkpt>
      <trkpt lat="37.01481" lon="28.32335">
        <ele>161.7</ele>
      </trkpt>
      <trkpt lat="37.01476" lon="28.32332">
        <ele>161.6</ele>
      </trkpt>
      <trkpt lat="37.01473" lon="28.32328">
        <ele>162.6</ele>
      </trkpt>
      <trkpt lat="37.0147" lon="28.32321">
        <ele>164.3</ele>
      </trkpt>
      <trkpt lat="37.01468" lon="28.32315">
        <ele>165.8</ele>
      </trkpt>
      <trkpt lat="37.01469" lon="28.32309">
        <ele>167.6</ele>
      </trkpt>
      <trkpt lat="37.0147" lon="28.32303">
        <ele>169.3</ele>
      </trkpt>
      <trkpt lat="37.01474" lon="28.32301">
        <ele>170</ele>
      </trkpt>
      <trkpt lat="37.01476" lon="28.32294">
        <ele>172</ele>
      </trkpt>
      <trkpt lat="37.01478" lon="28.32288">
        <ele>173.9</ele>
      </trkpt>
      <trkpt lat="37.01482" lon="28.32284">
        <ele>175.2</ele>
      </trkpt>
      <trkpt lat="37.01485" lon="28.32279">
        <ele>176.7</ele>
      </trkpt>
      <trkpt lat="37.01488" lon="28.32274">
        <ele>178.2</ele>
      </trkpt>
      <trkpt lat="37.01492" lon="28.32271">
        <ele>179.1</ele>
      </trkpt>
      <trkpt lat="37.01494" lon="28.32265">
        <ele>180.9</ele>
      </trkpt>
      <trkpt lat="37.01497" lon="28.32259">
        <ele>182.4</ele>
      </trkpt>
      <trkpt lat="37.01499" lon="28.32254">
        <ele>184</ele>
      </trkpt>
      <trkpt lat="37.01501" lon="28.32248">
        <ele>185</ele>
      </trkpt>
      <trkpt lat="37.01505" lon="28.32242">
        <ele>185.7</ele>
      </trkpt>
      <trkpt lat="37.01507" lon="28.32238">
        <ele>186.1</ele>
      </trkpt>
      <trkpt lat="37.0151" lon="28.32234">
        <ele>186.2</ele>
      </trkpt>
      <trkpt lat="37.01514" lon="28.32229">
        <ele>186.3</ele>
      </trkpt>
      <trkpt lat="37.01518" lon="28.32225">
        <ele>186.2</ele>
      </trkpt>
      <trkpt lat="37.01521" lon="28.32222">
        <ele>185.8</ele>
      </trkpt>
      <trkpt lat="37.01525" lon="28.32218">
        <ele>185.8</ele>
      </trkpt>
      <trkpt lat="37.01528" lon="28.32213">
        <ele>186.1</ele>
      </trkpt>
      <trkpt lat="37.01531" lon="28.32208">
        <ele>186.7</ele>
      </trkpt>
      <trkpt lat="37.01535" lon="28.32204">
        <ele>186.3</ele>
      </trkpt>
      <trkpt lat="37.0154" lon="28.32203">
        <ele>185.1</ele>
      </trkpt>
      <trkpt lat="37.01544" lon="28.322">
        <ele>184.6</ele>
      </trkpt>
      <trkpt lat="37.01549" lon="28.32196">
        <ele>184.2</ele>
      </trkpt>
      <trkpt lat="37.01553" lon="28.32192">
        <ele>183.7</ele>
      </trkpt>
      <trkpt lat="37.01554" lon="28.32186">
        <ele>185.4</ele>
      </trkpt>
      <trkpt lat="37.01559" lon="28.32185">
        <ele>183.9</ele>
      </trkpt>
      <trkpt lat="37.0156" lon="28.32179">
        <ele>185.4</ele>
      </trkpt>
      <trkpt lat="37.01562" lon="28.32173">
        <ele>186.4</ele>
      </trkpt>
      <trkpt lat="37.01568" lon="28.32171">
        <ele>185</ele>
      </trkpt>
      <trkpt lat="37.01567" lon="28.32165">
        <ele>187.2</ele>
      </trkpt>
      <trkpt lat="37.0157" lon="28.32159">
        <ele>188.4</ele>
      </trkpt>
      <trkpt lat="37.01568" lon="28.32153">
        <ele>191.2</ele>
      </trkpt>
      <trkpt lat="37.01572" lon="28.32152">
        <ele>190.3</ele>
      </trkpt>
      <trkpt lat="37.01577" lon="28.3215">
        <ele>189.4</ele>
      </trkpt>
      <trkpt lat="37.0158" lon="28.32145">
        <ele>189.7</ele>
      </trkpt>
      <trkpt lat="37.01577" lon="28.32142">
        <ele>192.3</ele>
      </trkpt>
      <trkpt lat="37.01583" lon="28.32141">
        <ele>190.4</ele>
      </trkpt>
      <trkpt lat="37.01589" lon="28.32142">
        <ele>188.9</ele>
      </trkpt>
      <trkpt lat="37.01583" lon="28.32138">
        <ele>191.3</ele>
      </trkpt>
      <trkpt lat="37.01589" lon="28.32136">
        <ele>191.3</ele>
      </trkpt>
      <trkpt lat="37.01593" lon="28.32134">
        <ele>191.2</ele>
      </trkpt>
      <trkpt lat="37.01598" lon="28.3213">
        <ele>191.9</ele>
      </trkpt>
      <trkpt lat="37.01602" lon="28.32125">
        <ele>193.5</ele>
      </trkpt>
      <trkpt lat="37.01606" lon="28.32121">
        <ele>194.3</ele>
      </trkpt>
      <trkpt lat="37.01611" lon="28.32123">
        <ele>192.9</ele>
      </trkpt>
      <trkpt lat="37.01616" lon="28.32122">
        <ele>192.4</ele>
      </trkpt>
      <trkpt lat="37.01622" lon="28.3212">
        <ele>192.2</ele>
      </trkpt>
      <trkpt lat="37.01627" lon="28.32118">
        <ele>192.4</ele>
      </trkpt>
      <trkpt lat="37.01631" lon="28.3212">
        <ele>190.7</ele>
      </trkpt>
      <trkpt lat="37.01635" lon="28.32116">
        <ele>191.7</ele>
      </trkpt>
      <trkpt lat="37.01638" lon="28.3212">
        <ele>190</ele>
      </trkpt>
      <trkpt lat="37.01644" lon="28.32121">
        <ele>188.9</ele>
      </trkpt>
      <trkpt lat="37.0165" lon="28.32122">
        <ele>187.7</ele>
      </trkpt>
      <trkpt lat="37.01655" lon="28.32121">
        <ele>187.3</ele>
      </trkpt>
      <trkpt lat="37.0166" lon="28.32119">
        <ele>187</ele>
      </trkpt>
      <trkpt lat="37.01665" lon="28.32119">
        <ele>186.5</ele>
      </trkpt>
      <trkpt lat="37.01669" lon="28.32118">
        <ele>186.2</ele>
      </trkpt>
      <trkpt lat="37.01674" lon="28.32117">
        <ele>185.6</ele>
      </trkpt>
      <trkpt lat="37.01679" lon="28.32115">
        <ele>185.4</ele>
      </trkpt>
      <trkpt lat="37.01683" lon="28.32114">
        <ele>185.1</ele>
      </trkpt>
      <trkpt lat="37.01688" lon="28.32111">
        <ele>184.9</ele>
      </trkpt>
      <trkpt lat="37.01694" lon="28.32108">
        <ele>185</ele>
      </trkpt>
      <trkpt lat="37.01698" lon="28.32105">
        <ele>185.3</ele>
      </trkpt>
      <trkpt lat="37.01701" lon="28.321">
        <ele>186.1</ele>
      </trkpt>
      <trkpt lat="37.01704" lon="28.32095">
        <ele>187.1</ele>
      </trkpt>
      <trkpt lat="37.01706" lon="28.3209">
        <ele>188.5</ele>
      </trkpt>
      <trkpt lat="37.01709" lon="28.32084">
        <ele>189.6</ele>
      </trkpt>
      <trkpt lat="37.01711" lon="28.32078">
        <ele>190.6</ele>
      </trkpt>
      <trkpt lat="37.01715" lon="28.32073">
        <ele>191.2</ele>
      </trkpt>
      <trkpt lat="37.01717" lon="28.32067">
        <ele>192.2</ele>
      </trkpt>
      <trkpt lat="37.01717" lon="28.32061">
        <ele>193.6</ele>
      </trkpt>
      <trkpt lat="37.01717" lon="28.32055">
        <ele>195.1</ele>
      </trkpt>
      <trkpt lat="37.01717" lon="28.32049">
        <ele>196.5</ele>
      </trkpt>
      <trkpt lat="37.01718" lon="28.32042">
        <ele>197.7</ele>
      </trkpt>
      <trkpt lat="37.01718" lon="28.32036">
        <ele>199.3</ele>
      </trkpt>
      <trkpt lat="37.01718" lon="28.32029">
        <ele>201.1</ele>
      </trkpt>
      <trkpt lat="37.01717" lon="28.32023">
        <ele>202.7</ele>
      </trkpt>
      <trkpt lat="37.01718" lon="28.32017">
        <ele>203.9</ele>
      </trkpt>
      <trkpt lat="37.01719" lon="28.32011">
        <ele>205.1</ele>
      </trkpt>
      <trkpt lat="37.0172" lon="28.32005">
        <ele>206.4</ele>
      </trkpt>
      <trkpt lat="37.0172" lon="28.31999">
        <ele>207.7</ele>
      </trkpt>
      <trkpt lat="37.01725" lon="28.32001">
        <ele>206.2</ele>
      </trkpt>
      <trkpt lat="37.01727" lon="28.31996">
        <ele>206.9</ele>
      </trkpt>
      <trkpt lat="37.01729" lon="28.3199">
        <ele>207.5</ele>
      </trkpt>
      <trkpt lat="37.01732" lon="28.31983">
        <ele>208.5</ele>
      </trkpt>
      <trkpt lat="37.01734" lon="28.31978">
        <ele>209.2</ele>
      </trkpt>
      <trkpt lat="37.01737" lon="28.31972">
        <ele>209.7</ele>
      </trkpt>
      <trkpt lat="37.0174" lon="28.31967">
        <ele>210</ele>
      </trkpt>
      <trkpt lat="37.01742" lon="28.31961">
        <ele>210.6</ele>
      </trkpt>
      <trkpt lat="37.01745" lon="28.31956">
        <ele>210.8</ele>
      </trkpt>
      <trkpt lat="37.01748" lon="28.31952">
        <ele>211.1</ele>
      </trkpt>
      <trkpt lat="37.01753" lon="28.31943">
        <ele>211</ele>
      </trkpt>
      <trkpt lat="37.01756" lon="28.31934">
        <ele>211.6</ele>
      </trkpt>
      <trkpt lat="37.01758" lon="28.31927">
        <ele>212.4</ele>
      </trkpt>
      <trkpt lat="37.01762" lon="28.3192">
        <ele>212.3</ele>
      </trkpt>
      <trkpt lat="37.01764" lon="28.31914">
        <ele>212.9</ele>
      </trkpt>
      <trkpt lat="37.01767" lon="28.31909">
        <ele>212.8</ele>
      </trkpt>
      <trkpt lat="37.01771" lon="28.31904">
        <ele>212.1</ele>
      </trkpt>
      <trkpt lat="37.01774" lon="28.31899">
        <ele>211.9</ele>
      </trkpt>
      <trkpt lat="37.01777" lon="28.31893">
        <ele>212.3</ele>
      </trkpt>
      <trkpt lat="37.01779" lon="28.31887">
        <ele>212.8</ele>
      </trkpt>
      <trkpt lat="37.01781" lon="28.31881">
        <ele>212.9</ele>
      </trkpt>
      <trkpt lat="37.01784" lon="28.31874">
        <ele>213.4</ele>
      </trkpt>
      <trkpt lat="37.01786" lon="28.31868">
        <ele>214</ele>
      </trkpt>
      <trkpt lat="37.01786" lon="28.31861">
        <ele>215</ele>
      </trkpt>
      <trkpt lat="37.01788" lon="28.31855">
        <ele>215.4</ele>
      </trkpt>
      <trkpt lat="37.01789" lon="28.31849">
        <ele>216.5</ele>
      </trkpt>
      <trkpt lat="37.01788" lon="28.31843">
        <ele>218</ele>
      </trkpt>
      <trkpt lat="37.01788" lon="28.31836">
        <ele>219.5</ele>
      </trkpt>
      <trkpt lat="37.01788" lon="28.3183">
        <ele>220.6</ele>
      </trkpt>
      <trkpt lat="37.0179" lon="28.31824">
        <ele>221</ele>
      </trkpt>
      <trkpt lat="37.01792" lon="28.31818">
        <ele>221.4</ele>
      </trkpt>
      <trkpt lat="37.01794" lon="28.31813">
        <ele>221.2</ele>
      </trkpt>
      <trkpt lat="37.01796" lon="28.31806">
        <ele>221.4</ele>
      </trkpt>
      <trkpt lat="37.01799" lon="28.31801">
        <ele>221.2</ele>
      </trkpt>
      <trkpt lat="37.01803" lon="28.31796">
        <ele>220.4</ele>
      </trkpt>
      <trkpt lat="37.01807" lon="28.31793">
        <ele>219.5</ele>
      </trkpt>
      <trkpt lat="37.0181" lon="28.31788">
        <ele>219</ele>
      </trkpt>
      <trkpt lat="37.01813" lon="28.31782">
        <ele>219</ele>
      </trkpt>
      <trkpt lat="37.01815" lon="28.31776">
        <ele>218.9</ele>
      </trkpt>
      <trkpt lat="37.01819" lon="28.31773">
        <ele>217.8</ele>
      </trkpt>
      <trkpt lat="37.01823" lon="28.31767">
        <ele>217.4</ele>
      </trkpt>
      <trkpt lat="37.01826" lon="28.31761">
        <ele>217.3</ele>
      </trkpt>
      <trkpt lat="37.0183" lon="28.31756">
        <ele>216.5</ele>
      </trkpt>
      <trkpt lat="37.01831" lon="28.3175">
        <ele>216.9</ele>
      </trkpt>
      <trkpt lat="37.01835" lon="28.31744">
        <ele>217</ele>
      </trkpt>
      <trkpt lat="37.01837" lon="28.31738">
        <ele>217.6</ele>
      </trkpt>
      <trkpt lat="37.0184" lon="28.31734">
        <ele>217.6</ele>
      </trkpt>
      <trkpt lat="37.01842" lon="28.31728">
        <ele>218.4</ele>
      </trkpt>
      <trkpt lat="37.01845" lon="28.31722">
        <ele>218.8</ele>
      </trkpt>
      <trkpt lat="37.01848" lon="28.31717">
        <ele>218.9</ele>
      </trkpt>
      <trkpt lat="37.01851" lon="28.31711">
        <ele>219.4</ele>
      </trkpt>
      <trkpt lat="37.01854" lon="28.31707">
        <ele>219.4</ele>
      </trkpt>
      <trkpt lat="37.01858" lon="28.31703">
        <ele>219.2</ele>
      </trkpt>
      <trkpt lat="37.01863" lon="28.317">
        <ele>218.7</ele>
      </trkpt>
      <trkpt lat="37.01866" lon="28.31695">
        <ele>218.9</ele>
      </trkpt>
      <trkpt lat="37.0187" lon="28.31692">
        <ele>218.7</ele>
      </trkpt>
      <trkpt lat="37.01873" lon="28.31688">
        <ele>218.6</ele>
      </trkpt>
      <trkpt lat="37.01875" lon="28.31682">
        <ele>219.3</ele>
      </trkpt>
      <trkpt lat="37.01879" lon="28.31678">
        <ele>219.2</ele>
      </trkpt>
      <trkpt lat="37.01883" lon="28.31674">
        <ele>219.2</ele>
      </trkpt>
      <trkpt lat="37.01887" lon="28.31671">
        <ele>218.8</ele>
      </trkpt>
      <trkpt lat="37.01892" lon="28.31669">
        <ele>217.8</ele>
      </trkpt>
      <trkpt lat="37.01897" lon="28.31672">
        <ele>215.9</ele>
      </trkpt>
      <trkpt lat="37.01902" lon="28.31672">
        <ele>214.7</ele>
      </trkpt>
      <trkpt lat="37.01907" lon="28.31672">
        <ele>213.2</ele>
      </trkpt>
      <trkpt lat="37.01913" lon="28.3167">
        <ele>212.3</ele>
      </trkpt>
      <trkpt lat="37.01918" lon="28.31669">
        <ele>211.3</ele>
      </trkpt>
      <trkpt lat="37.01922" lon="28.31667">
        <ele>210.2</ele>
      </trkpt>
      <trkpt lat="37.01926" lon="28.31665">
        <ele>209.6</ele>
      </trkpt>
      <trkpt lat="37.01931" lon="28.3166">
        <ele>209.2</ele>
      </trkpt>
      <trkpt lat="37.01935" lon="28.31657">
        <ele>208.7</ele>
      </trkpt>
      <trkpt lat="37.01939" lon="28.31655">
        <ele>207.8</ele>
      </trkpt>
      <trkpt lat="37.01944" lon="28.31651">
        <ele>207.2</ele>
      </trkpt>
      <trkpt lat="37.01948" lon="28.31649">
        <ele>206.3</ele>
      </trkpt>
      <trkpt lat="37.01953" lon="28.31645">
        <ele>205.7</ele>
      </trkpt>
      <trkpt lat="37.01957" lon="28.31641">
        <ele>205</ele>
      </trkpt>
      <trkpt lat="37.01961" lon="28.31637">
        <ele>204.9</ele>
      </trkpt>
      <trkpt lat="37.01963" lon="28.31632">
        <ele>205</ele>
      </trkpt>
      <trkpt lat="37.01966" lon="28.31627">
        <ele>205.2</ele>
      </trkpt>
      <trkpt lat="37.01969" lon="28.31622">
        <ele>205.4</ele>
      </trkpt>
      <trkpt lat="37.01971" lon="28.31617">
        <ele>205.7</ele>
      </trkpt>
      <trkpt lat="37.01973" lon="28.31612">
        <ele>206</ele>
      </trkpt>
      <trkpt lat="37.01975" lon="28.31605">
        <ele>206.7</ele>
      </trkpt>
      <trkpt lat="37.01977" lon="28.31599">
        <ele>207.4</ele>
      </trkpt>
      <trkpt lat="37.0198" lon="28.31593">
        <ele>207.6</ele>
      </trkpt>
      <trkpt lat="37.01981" lon="28.31587">
        <ele>208.5</ele>
      </trkpt>
      <trkpt lat="37.01982" lon="28.31581">
        <ele>209.2</ele>
      </trkpt>
      <trkpt lat="37.01983" lon="28.31575">
        <ele>209.9</ele>
      </trkpt>
      <trkpt lat="37.01985" lon="28.31568">
        <ele>210.2</ele>
      </trkpt>
      <trkpt lat="37.01985" lon="28.31562">
        <ele>211.2</ele>
      </trkpt>
      <trkpt lat="37.01985" lon="28.31556">
        <ele>211.9</ele>
      </trkpt>
      <trkpt lat="37.01986" lon="28.31549">
        <ele>212.7</ele>
      </trkpt>
      <trkpt lat="37.01987" lon="28.31542">
        <ele>213.5</ele>
      </trkpt>
      <trkpt lat="37.0199" lon="28.31537">
        <ele>213.6</ele>
      </trkpt>
      <trkpt lat="37.01993" lon="28.31531">
        <ele>213.4</ele>
      </trkpt>
      <trkpt lat="37.01994" lon="28.31524">
        <ele>214</ele>
      </trkpt>
      <trkpt lat="37.01996" lon="28.31519">
        <ele>214.4</ele>
      </trkpt>
      <trkpt lat="37.01997" lon="28.31513">
        <ele>214.8</ele>
      </trkpt>
      <trkpt lat="37.01997" lon="28.31507">
        <ele>215.7</ele>
      </trkpt>
      <trkpt lat="37.01998" lon="28.31501">
        <ele>216.7</ele>
      </trkpt>
      <trkpt lat="37.01998" lon="28.31495">
        <ele>216.8</ele>
      </trkpt>
      <trkpt lat="37.01998" lon="28.31489">
        <ele>216.7</ele>
      </trkpt>
      <trkpt lat="37.01999" lon="28.31482">
        <ele>216.6</ele>
      </trkpt>
      <trkpt lat="37.01999" lon="28.31476">
        <ele>216.8</ele>
      </trkpt>
      <trkpt lat="37.01998" lon="28.31469">
        <ele>217.2</ele>
      </trkpt>
      <trkpt lat="37.01997" lon="28.31463">
        <ele>217.4</ele>
      </trkpt>
      <trkpt lat="37.01997" lon="28.31458">
        <ele>217.6</ele>
      </trkpt>
      <trkpt lat="37.01996" lon="28.31451">
        <ele>217.9</ele>
      </trkpt>
      <trkpt lat="37.01994" lon="28.31444">
        <ele>218.4</ele>
      </trkpt>
      <trkpt lat="37.01993" lon="28.31438">
        <ele>218.8</ele>
      </trkpt>
      <trkpt lat="37.01992" lon="28.31432">
        <ele>219.3</ele>
      </trkpt>
      <trkpt lat="37.01992" lon="28.31426">
        <ele>219.2</ele>
      </trkpt>
      <trkpt lat="37.01991" lon="28.3142">
        <ele>219.5</ele>
      </trkpt>
      <trkpt lat="37.01988" lon="28.31413">
        <ele>219.9</ele>
      </trkpt>
      <trkpt lat="37.01986" lon="28.31408">
        <ele>220.1</ele>
      </trkpt>
      <trkpt lat="37.01984" lon="28.31402">
        <ele>219.8</ele>
      </trkpt>
      <trkpt lat="37.01981" lon="28.31397">
        <ele>220.1</ele>
      </trkpt>
      <trkpt lat="37.01977" lon="28.31393">
        <ele>220.5</ele>
      </trkpt>
      <trkpt lat="37.01973" lon="28.31389">
        <ele>221.2</ele>
      </trkpt>
      <trkpt lat="37.01968" lon="28.31386">
        <ele>221.8</ele>
      </trkpt>
      <trkpt lat="37.01963" lon="28.31384">
        <ele>222.6</ele>
      </trkpt>
      <trkpt lat="37.01959" lon="28.31381">
        <ele>223.3</ele>
      </trkpt>
      <trkpt lat="37.01954" lon="28.31379">
        <ele>224.1</ele>
      </trkpt>
      <trkpt lat="37.01949" lon="28.31378">
        <ele>224.9</ele>
      </trkpt>
      <trkpt lat="37.01944" lon="28.31375">
        <ele>225.7</ele>
      </trkpt>
      <trkpt lat="37.01939" lon="28.31373">
        <ele>226.4</ele>
      </trkpt>
      <trkpt lat="37.01934" lon="28.3137">
        <ele>226.9</ele>
      </trkpt>
      <trkpt lat="37.0193" lon="28.31369">
        <ele>227.5</ele>
      </trkpt>
      <trkpt lat="37.01925" lon="28.31365">
        <ele>227.8</ele>
      </trkpt>
      <trkpt lat="37.0192" lon="28.31363">
        <ele>228.3</ele>
      </trkpt>
      <trkpt lat="37.01916" lon="28.31361">
        <ele>228.8</ele>
      </trkpt>
      <trkpt lat="37.01911" lon="28.31359">
        <ele>229.5</ele>
      </trkpt>
      <trkpt lat="37.01907" lon="28.31357">
        <ele>230.1</ele>
      </trkpt>
      <trkpt lat="37.01902" lon="28.31357">
        <ele>231</ele>
      </trkpt>
      <trkpt lat="37.01896" lon="28.31357">
        <ele>232.4</ele>
      </trkpt>
      <trkpt lat="37.01892" lon="28.31354">
        <ele>232.7</ele>
      </trkpt>
      <trkpt lat="37.01887" lon="28.31353">
        <ele>233.5</ele>
      </trkpt>
      <trkpt lat="37.01882" lon="28.31351">
        <ele>234.2</ele>
      </trkpt>
      <trkpt lat="37.01877" lon="28.31351">
        <ele>235.1</ele>
      </trkpt>
      <trkpt lat="37.01872" lon="28.3135">
        <ele>236.1</ele>
      </trkpt>
      <trkpt lat="37.01867" lon="28.3135">
        <ele>237.2</ele>
      </trkpt>
      <trkpt lat="37.01862" lon="28.31349">
        <ele>238.1</ele>
      </trkpt>
      <trkpt lat="37.01858" lon="28.31347">
        <ele>238.5</ele>
      </trkpt>
      <trkpt lat="37.01853" lon="28.31345">
        <ele>239.1</ele>
      </trkpt>
      <trkpt lat="37.01849" lon="28.31343">
        <ele>239.6</ele>
      </trkpt>
      <trkpt lat="37.01845" lon="28.3134">
        <ele>239.9</ele>
      </trkpt>
      <trkpt lat="37.0184" lon="28.31336">
        <ele>240.2</ele>
      </trkpt>
      <trkpt lat="37.01836" lon="28.31333">
        <ele>240.2</ele>
      </trkpt>
      <trkpt lat="37.01832" lon="28.31329">
        <ele>240</ele>
      </trkpt>
      <trkpt lat="37.01828" lon="28.31325">
        <ele>239.9</ele>
      </trkpt>
      <trkpt lat="37.01823" lon="28.31322">
        <ele>240.1</ele>
      </trkpt>
      <trkpt lat="37.01819" lon="28.31319">
        <ele>240.5</ele>
      </trkpt>
      <trkpt lat="37.01814" lon="28.31317">
        <ele>240.9</ele>
      </trkpt>
      <trkpt lat="37.0181" lon="28.31313">
        <ele>240.7</ele>
      </trkpt>
      <trkpt lat="37.01806" lon="28.3131">
        <ele>240.8</ele>
      </trkpt>
      <trkpt lat="37.01801" lon="28.31307">
        <ele>241</ele>
      </trkpt>
      <trkpt lat="37.01796" lon="28.31305">
        <ele>241.3</ele>
      </trkpt>
      <trkpt lat="37.01792" lon="28.31303">
        <ele>241.7</ele>
      </trkpt>
      <trkpt lat="37.01787" lon="28.31301">
        <ele>242.4</ele>
      </trkpt>
      <trkpt lat="37.01783" lon="28.31299">
        <ele>242.6</ele>
      </trkpt>
      <trkpt lat="37.01778" lon="28.31297">
        <ele>243.2</ele>
      </trkpt>
      <trkpt lat="37.01773" lon="28.31296">
        <ele>244</ele>
      </trkpt>
      <trkpt lat="37.01769" lon="28.31294">
        <ele>244.2</ele>
      </trkpt>
      <trkpt lat="37.01764" lon="28.31292">
        <ele>244.7</ele>
      </trkpt>
      <trkpt lat="37.01758" lon="28.31289">
        <ele>245</ele>
      </trkpt>
      <trkpt lat="37.01753" lon="28.31287">
        <ele>245.6</ele>
      </trkpt>
      <trkpt lat="37.01749" lon="28.31284">
        <ele>245.5</ele>
      </trkpt>
      <trkpt lat="37.01744" lon="28.31283">
        <ele>245.4</ele>
      </trkpt>
      <trkpt lat="37.01739" lon="28.31282">
        <ele>245.3</ele>
      </trkpt>
      <trkpt lat="37.01733" lon="28.31283">
        <ele>245.7</ele>
      </trkpt>
      <trkpt lat="37.01728" lon="28.31283">
        <ele>245.9</ele>
      </trkpt>
      <trkpt lat="37.01724" lon="28.31282">
        <ele>245.9</ele>
      </trkpt>
      <trkpt lat="37.01718" lon="28.31284">
        <ele>246.3</ele>
      </trkpt>
      <trkpt lat="37.01714" lon="28.31284">
        <ele>246.6</ele>
      </trkpt>
      <trkpt lat="37.01709" lon="28.31287">
        <ele>247.4</ele>
      </trkpt>
      <trkpt lat="37.01704" lon="28.31289">
        <ele>248</ele>
      </trkpt>
      <trkpt lat="37.01699" lon="28.31289">
        <ele>248.1</ele>
      </trkpt>
      <trkpt lat="37.01695" lon="28.31292">
        <ele>248.8</ele>
      </trkpt>
      <trkpt lat="37.0169" lon="28.31295">
        <ele>249.6</ele>
      </trkpt>
      <trkpt lat="37.01686" lon="28.31297">
        <ele>250.2</ele>
      </trkpt>
      <trkpt lat="37.01682" lon="28.313">
        <ele>251</ele>
      </trkpt>
      <trkpt lat="37.01677" lon="28.31301">
        <ele>251.2</ele>
      </trkpt>
      <trkpt lat="37.0167" lon="28.31303">
        <ele>251.8</ele>
      </trkpt>
      <trkpt lat="37.01665" lon="28.31305">
        <ele>252.3</ele>
      </trkpt>
      <trkpt lat="37.0166" lon="28.31308">
        <ele>252.6</ele>
      </trkpt>
      <trkpt lat="37.01655" lon="28.31309">
        <ele>252.7</ele>
      </trkpt>
      <trkpt lat="37.01651" lon="28.31309">
        <ele>252.6</ele>
      </trkpt>
      <trkpt lat="37.01646" lon="28.31311">
        <ele>252.8</ele>
      </trkpt>
      <trkpt lat="37.01642" lon="28.31314">
        <ele>253.2</ele>
      </trkpt>
      <trkpt lat="37.01639" lon="28.31319">
        <ele>254.3</ele>
      </trkpt>
      <trkpt lat="37.01634" lon="28.3132">
        <ele>254.4</ele>
      </trkpt>
      <trkpt lat="37.0163" lon="28.31322">
        <ele>254.8</ele>
      </trkpt>
      <trkpt lat="37.01625" lon="28.31325">
        <ele>255.5</ele>
      </trkpt>
      <trkpt lat="37.0162" lon="28.31329">
        <ele>256.3</ele>
      </trkpt>
      <trkpt lat="37.01615" lon="28.31332">
        <ele>257.1</ele>
      </trkpt>
      <trkpt lat="37.0161" lon="28.31332">
        <ele>257.1</ele>
      </trkpt>
      <trkpt lat="37.01606" lon="28.31336">
        <ele>257.8</ele>
      </trkpt>
      <trkpt lat="37.016" lon="28.31337">
        <ele>258</ele>
      </trkpt>
      <trkpt lat="37.01594" lon="28.31336">
        <ele>257.8</ele>
      </trkpt>
      <trkpt lat="37.01588" lon="28.31334">
        <ele>257.3</ele>
      </trkpt>
      <trkpt lat="37.01584" lon="28.31334">
        <ele>257.2</ele>
      </trkpt>
      <trkpt lat="37.01579" lon="28.31335">
        <ele>257.4</ele>
      </trkpt>
      <trkpt lat="37.01574" lon="28.31333">
        <ele>257.3</ele>
      </trkpt>
      <trkpt lat="37.01569" lon="28.31334">
        <ele>257.6</ele>
      </trkpt>
      <trkpt lat="37.01574" lon="28.31333">
        <ele>257.4</ele>
      </trkpt>
      <trkpt lat="37.0157" lon="28.31328">
        <ele>256.2</ele>
      </trkpt>
      <trkpt lat="37.01566" lon="28.31328">
        <ele>256.2</ele>
      </trkpt>
      <trkpt lat="37.01561" lon="28.31327">
        <ele>256</ele>
      </trkpt>
      <trkpt lat="37.01556" lon="28.31325">
        <ele>255.7</ele>
      </trkpt>
      <trkpt lat="37.01551" lon="28.31321">
        <ele>255.2</ele>
      </trkpt>
      <trkpt lat="37.01546" lon="28.3132">
        <ele>255.1</ele>
      </trkpt>
      <trkpt lat="37.01539" lon="28.31319">
        <ele>255</ele>
      </trkpt>
      <trkpt lat="37.01534" lon="28.31317">
        <ele>255</ele>
      </trkpt>
      <trkpt lat="37.01528" lon="28.31319">
        <ele>255.5</ele>
      </trkpt>
      <trkpt lat="37.01522" lon="28.31317">
        <ele>255.5</ele>
      </trkpt>
      <trkpt lat="37.01518" lon="28.31316">
        <ele>255.5</ele>
      </trkpt>
      <trkpt lat="37.01512" lon="28.31315">
        <ele>255.5</ele>
      </trkpt>
      <trkpt lat="37.01508" lon="28.31315">
        <ele>255.6</ele>
      </trkpt>
      <trkpt lat="37.01502" lon="28.31315">
        <ele>255.9</ele>
      </trkpt>
      <trkpt lat="37.01497" lon="28.31312">
        <ele>255.4</ele>
      </trkpt>
      <trkpt lat="37.01492" lon="28.31312">
        <ele>255.2</ele>
      </trkpt>
      <trkpt lat="37.01487" lon="28.31311">
        <ele>254.9</ele>
      </trkpt>
      <trkpt lat="37.01481" lon="28.3131">
        <ele>254.7</ele>
      </trkpt>
      <trkpt lat="37.01476" lon="28.31312">
        <ele>255</ele>
      </trkpt>
      <trkpt lat="37.01471" lon="28.31314">
        <ele>255.2</ele>
      </trkpt>
      <trkpt lat="37.01467" lon="28.31316">
        <ele>255.5</ele>
      </trkpt>
      <trkpt lat="37.01462" lon="28.31319">
        <ele>255.7</ele>
      </trkpt>
      <trkpt lat="37.01458" lon="28.31321">
        <ele>255.8</ele>
      </trkpt>
      <trkpt lat="37.01454" lon="28.31324">
        <ele>256.1</ele>
      </trkpt>
      <trkpt lat="37.01448" lon="28.31326">
        <ele>256.1</ele>
      </trkpt>
      <trkpt lat="37.01445" lon="28.31334">
        <ele>256.7</ele>
      </trkpt>
      <trkpt lat="37.01443" lon="28.31339">
        <ele>257.5</ele>
      </trkpt>
      <trkpt lat="37.01442" lon="28.31345">
        <ele>258.1</ele>
      </trkpt>
      <trkpt lat="37.0144" lon="28.31351">
        <ele>258.9</ele>
      </trkpt>
      <trkpt lat="37.01438" lon="28.31356">
        <ele>259.4</ele>
      </trkpt>
      <trkpt lat="37.01437" lon="28.31362">
        <ele>260.1</ele>
      </trkpt>
      <trkpt lat="37.01435" lon="28.31368">
        <ele>260.8</ele>
      </trkpt>
      <trkpt lat="37.01434" lon="28.31374">
        <ele>261.5</ele>
      </trkpt>
      <trkpt lat="37.01434" lon="28.31381">
        <ele>262.4</ele>
      </trkpt>
      <trkpt lat="37.01434" lon="28.31387">
        <ele>263.3</ele>
      </trkpt>
      <trkpt lat="37.01432" lon="28.31393">
        <ele>263.9</ele>
      </trkpt>
      <trkpt lat="37.01433" lon="28.314">
        <ele>264.8</ele>
      </trkpt>
      <trkpt lat="37.01433" lon="28.31406">
        <ele>265.8</ele>
      </trkpt>
      <trkpt lat="37.01431" lon="28.31411">
        <ele>266.1</ele>
      </trkpt>
      <trkpt lat="37.01431" lon="28.31418">
        <ele>267</ele>
      </trkpt>
      <trkpt lat="37.0143" lon="28.31425">
        <ele>267.9</ele>
      </trkpt>
      <trkpt lat="37.01431" lon="28.31432">
        <ele>268.9</ele>
      </trkpt>
      <trkpt lat="37.01432" lon="28.31438">
        <ele>269.9</ele>
      </trkpt>
      <trkpt lat="37.01433" lon="28.31445">
        <ele>270.9</ele>
      </trkpt>
      <trkpt lat="37.01432" lon="28.31451">
        <ele>271.6</ele>
      </trkpt>
      <trkpt lat="37.01428" lon="28.31455">
        <ele>271.8</ele>
      </trkpt>
      <trkpt lat="37.01423" lon="28.31453">
        <ele>271</ele>
      </trkpt>
      <trkpt lat="37.01419" lon="28.31449">
        <ele>269.9</ele>
      </trkpt>
      <trkpt lat="37.01416" lon="28.31444">
        <ele>268.9</ele>
      </trkpt>
      <trkpt lat="37.01413" lon="28.3144">
        <ele>268.3</ele>
      </trkpt>
      <trkpt lat="37.01407" lon="28.31437">
        <ele>267.7</ele>
      </trkpt>
      <trkpt lat="37.01402" lon="28.31435">
        <ele>267.3</ele>
      </trkpt>
      <trkpt lat="37.01398" lon="28.31433">
        <ele>266.8</ele>
      </trkpt>
      <trkpt lat="37.01393" lon="28.31433">
        <ele>266.7</ele>
      </trkpt>
      <trkpt lat="37.01387" lon="28.31432">
        <ele>266.3</ele>
      </trkpt>
      <trkpt lat="37.01382" lon="28.31432">
        <ele>266.2</ele>
      </trkpt>
      <trkpt lat="37.01377" lon="28.31432">
        <ele>266.1</ele>
      </trkpt>
      <trkpt lat="37.01373" lon="28.31433">
        <ele>266.1</ele>
      </trkpt>
      <trkpt lat="37.01368" lon="28.31435">
        <ele>266.3</ele>
      </trkpt>
      <trkpt lat="37.01364" lon="28.31438">
        <ele>266.7</ele>
      </trkpt>
      <trkpt lat="37.0136" lon="28.31442">
        <ele>267.2</ele>
      </trkpt>
      <trkpt lat="37.01356" lon="28.31447">
        <ele>268</ele>
      </trkpt>
      <trkpt lat="37.01352" lon="28.31451">
        <ele>268.5</ele>
      </trkpt>
      <trkpt lat="37.01349" lon="28.31457">
        <ele>269.5</ele>
      </trkpt>
      <trkpt lat="37.01347" lon="28.31462">
        <ele>270.3</ele>
      </trkpt>
      <trkpt lat="37.01344" lon="28.31467">
        <ele>271.3</ele>
      </trkpt>
      <trkpt lat="37.01342" lon="28.31473">
        <ele>272.2</ele>
      </trkpt>
      <trkpt lat="37.0134" lon="28.31478">
        <ele>273.2</ele>
      </trkpt>
      <trkpt lat="37.01337" lon="28.31485">
        <ele>274.3</ele>
      </trkpt>
      <trkpt lat="37.01335" lon="28.3149">
        <ele>275.2</ele>
      </trkpt>
      <trkpt lat="37.01331" lon="28.31495">
        <ele>276.4</ele>
      </trkpt>
      <trkpt lat="37.01327" lon="28.315">
        <ele>277.6</ele>
      </trkpt>
      <trkpt lat="37.01322" lon="28.31498">
        <ele>277.9</ele>
      </trkpt>
      <trkpt lat="37.01318" lon="28.31494">
        <ele>277.6</ele>
      </trkpt>
      <trkpt lat="37.01314" lon="28.31491">
        <ele>277.5</ele>
      </trkpt>
      <trkpt lat="37.01309" lon="28.31487">
        <ele>277.5</ele>
      </trkpt>
      <trkpt lat="37.01306" lon="28.31481">
        <ele>277</ele>
      </trkpt>
      <trkpt lat="37.01303" lon="28.31475">
        <ele>276.4</ele>
      </trkpt>
      <trkpt lat="37.01301" lon="28.3147">
        <ele>275.9</ele>
      </trkpt>
      <trkpt lat="37.01297" lon="28.31465">
        <ele>275.7</ele>
      </trkpt>
      <trkpt lat="37.01294" lon="28.3146">
        <ele>275.4</ele>
      </trkpt>
      <trkpt lat="37.01291" lon="28.31454">
        <ele>274.9</ele>
      </trkpt>
      <trkpt lat="37.01289" lon="28.31448">
        <ele>274.5</ele>
      </trkpt>
      <trkpt lat="37.01285" lon="28.31445">
        <ele>274.6</ele>
      </trkpt>
      <trkpt lat="37.01282" lon="28.3144">
        <ele>274.4</ele>
      </trkpt>
      <trkpt lat="37.01279" lon="28.31435">
        <ele>274.3</ele>
      </trkpt>
      <trkpt lat="37.01274" lon="28.31432">
        <ele>274.7</ele>
      </trkpt>
      <trkpt lat="37.0127" lon="28.31428">
        <ele>274.9</ele>
      </trkpt>
      <trkpt lat="37.01266" lon="28.31424">
        <ele>275.1</ele>
      </trkpt>
      <trkpt lat="37.01262" lon="28.31421">
        <ele>275.3</ele>
      </trkpt>
      <trkpt lat="37.01259" lon="28.31415">
        <ele>275.3</ele>
      </trkpt>
      <trkpt lat="37.01257" lon="28.31411">
        <ele>275.7</ele>
      </trkpt>
      <trkpt lat="37.01253" lon="28.31405">
        <ele>276.2</ele>
      </trkpt>
      <trkpt lat="37.0125" lon="28.314">
        <ele>276.8</ele>
      </trkpt>
      <trkpt lat="37.01247" lon="28.31396">
        <ele>276.2</ele>
      </trkpt>
      <trkpt lat="37.01244" lon="28.3139">
        <ele>275.6</ele>
      </trkpt>
      <trkpt lat="37.01242" lon="28.31384">
        <ele>275.2</ele>
      </trkpt>
      <trkpt lat="37.0124" lon="28.31378">
        <ele>274.8</ele>
      </trkpt>
      <trkpt lat="37.01239" lon="28.31372">
        <ele>274.4</ele>
      </trkpt>
      <trkpt lat="37.01238" lon="28.31366">
        <ele>274.2</ele>
      </trkpt>
      <trkpt lat="37.01235" lon="28.31361">
        <ele>273.7</ele>
      </trkpt>
      <trkpt lat="37.01232" lon="28.31355">
        <ele>273.2</ele>
      </trkpt>
      <trkpt lat="37.01231" lon="28.31349">
        <ele>272.9</ele>
      </trkpt>
      <trkpt lat="37.01228" lon="28.31344">
        <ele>272.3</ele>
      </trkpt>
      <trkpt lat="37.01226" lon="28.31339">
        <ele>271.9</ele>
      </trkpt>
      <trkpt lat="37.01223" lon="28.31333">
        <ele>271.4</ele>
      </trkpt>
      <trkpt lat="37.01218" lon="28.31329">
        <ele>270.8</ele>
      </trkpt>
      <trkpt lat="37.01216" lon="28.31323">
        <ele>270.9</ele>
      </trkpt>
      <trkpt lat="37.01216" lon="28.31316">
        <ele>271.2</ele>
      </trkpt>
      <trkpt lat="37.01216" lon="28.3131">
        <ele>271.5</ele>
      </trkpt>
      <trkpt lat="37.01216" lon="28.31304">
        <ele>271.8</ele>
      </trkpt>
      <trkpt lat="37.01215" lon="28.31299">
        <ele>272</ele>
      </trkpt>
      <trkpt lat="37.01214" lon="28.31292">
        <ele>272.3</ele>
      </trkpt>
      <trkpt lat="37.01215" lon="28.31286">
        <ele>272.7</ele>
      </trkpt>
      <trkpt lat="37.01215" lon="28.31279">
        <ele>273.1</ele>
      </trkpt>
      <trkpt lat="37.01216" lon="28.31272">
        <ele>273.6</ele>
      </trkpt>
      <trkpt lat="37.01216" lon="28.31265">
        <ele>274.1</ele>
      </trkpt>
      <trkpt lat="37.01217" lon="28.31259">
        <ele>274.5</ele>
      </trkpt>
      <trkpt lat="37.01216" lon="28.31253">
        <ele>274.7</ele>
      </trkpt>
      <trkpt lat="37.01216" lon="28.31246">
        <ele>275.3</ele>
      </trkpt>
      <trkpt lat="37.01216" lon="28.3124">
        <ele>275.8</ele>
      </trkpt>
      <trkpt lat="37.01216" lon="28.31234">
        <ele>276.2</ele>
      </trkpt>
      <trkpt lat="37.01215" lon="28.31227">
        <ele>276.6</ele>
      </trkpt>
      <trkpt lat="37.01214" lon="28.3122">
        <ele>277</ele>
      </trkpt>
      <trkpt lat="37.01213" lon="28.31214">
        <ele>277.5</ele>
      </trkpt>
      <trkpt lat="37.01212" lon="28.31207">
        <ele>277.8</ele>
      </trkpt>
      <trkpt lat="37.0121" lon="28.31201">
        <ele>278.1</ele>
      </trkpt>
      <trkpt lat="37.01209" lon="28.31195">
        <ele>278.5</ele>
      </trkpt>
      <trkpt lat="37.01209" lon="28.31188">
        <ele>279.1</ele>
      </trkpt>
      <trkpt lat="37.01207" lon="28.31181">
        <ele>279.5</ele>
      </trkpt>
      <trkpt lat="37.01207" lon="28.31175">
        <ele>280.1</ele>
      </trkpt>
      <trkpt lat="37.01206" lon="28.31169">
        <ele>280.6</ele>
      </trkpt>
      <trkpt lat="37.01206" lon="28.31163">
        <ele>281.2</ele>
      </trkpt>
      <trkpt lat="37.01206" lon="28.31156">
        <ele>282</ele>
      </trkpt>
      <trkpt lat="37.01204" lon="28.31151">
        <ele>282.5</ele>
      </trkpt>
      <trkpt lat="37.01202" lon="28.31144">
        <ele>283.1</ele>
      </trkpt>
      <trkpt lat="37.01199" lon="28.31138">
        <ele>283.5</ele>
      </trkpt>
      <trkpt lat="37.01197" lon="28.31132">
        <ele>284.1</ele>
      </trkpt>
      <trkpt lat="37.01196" lon="28.31126">
        <ele>284.7</ele>
      </trkpt>
      <trkpt lat="37.01194" lon="28.31121">
        <ele>285.1</ele>
      </trkpt>
      <trkpt lat="37.01194" lon="28.31114">
        <ele>286</ele>
      </trkpt>
      <trkpt lat="37.01194" lon="28.31108">
        <ele>286.9</ele>
      </trkpt>
      <trkpt lat="37.01196" lon="28.31102">
        <ele>287.8</ele>
      </trkpt>
      <trkpt lat="37.01195" lon="28.31096">
        <ele>288.5</ele>
      </trkpt>
      <trkpt lat="37.01195" lon="28.3109">
        <ele>289.2</ele>
      </trkpt>
      <trkpt lat="37.01194" lon="28.31084">
        <ele>290</ele>
      </trkpt>
      <trkpt lat="37.01193" lon="28.31078">
        <ele>290.6</ele>
      </trkpt>
      <trkpt lat="37.01193" lon="28.31071">
        <ele>291.4</ele>
      </trkpt>
      <trkpt lat="37.01192" lon="28.31064">
        <ele>292.2</ele>
      </trkpt>
      <trkpt lat="37.01192" lon="28.31057">
        <ele>293</ele>
      </trkpt>
      <trkpt lat="37.01191" lon="28.31051">
        <ele>293.6</ele>
      </trkpt>
      <trkpt lat="37.01189" lon="28.31045">
        <ele>294.3</ele>
      </trkpt>
      <trkpt lat="37.01188" lon="28.31038">
        <ele>295</ele>
      </trkpt>
      <trkpt lat="37.01188" lon="28.31032">
        <ele>295.8</ele>
      </trkpt>
      <trkpt lat="37.01187" lon="28.31025">
        <ele>296.6</ele>
      </trkpt>
      <trkpt lat="37.01189" lon="28.3102">
        <ele>297.4</ele>
      </trkpt>
      <trkpt lat="37.01189" lon="28.31014">
        <ele>298.3</ele>
      </trkpt>
      <trkpt lat="37.01191" lon="28.31007">
        <ele>299.2</ele>
      </trkpt>
      <trkpt lat="37.01191" lon="28.31001">
        <ele>300</ele>
      </trkpt>
      <trkpt lat="37.01191" lon="28.30995">
        <ele>300.5</ele>
      </trkpt>
      <trkpt lat="37.01193" lon="28.30989">
        <ele>301.2</ele>
      </trkpt>
      <trkpt lat="37.01194" lon="28.30982">
        <ele>301.8</ele>
      </trkpt>
      <trkpt lat="37.01196" lon="28.30976">
        <ele>302.6</ele>
      </trkpt>
      <trkpt lat="37.01198" lon="28.30969">
        <ele>303.3</ele>
      </trkpt>
      <trkpt lat="37.01199" lon="28.30963">
        <ele>303.9</ele>
      </trkpt>
      <trkpt lat="37.01198" lon="28.30956">
        <ele>304.3</ele>
      </trkpt>
      <trkpt lat="37.01199" lon="28.3095">
        <ele>304.9</ele>
      </trkpt>
      <trkpt lat="37.01201" lon="28.30944">
        <ele>305.7</ele>
      </trkpt>
      <trkpt lat="37.01203" lon="28.30938">
        <ele>306.5</ele>
      </trkpt>
      <trkpt lat="37.01203" lon="28.30932">
        <ele>307</ele>
      </trkpt>
      <trkpt lat="37.01203" lon="28.30926">
        <ele>307.5</ele>
      </trkpt>
      <trkpt lat="37.01204" lon="28.3092">
        <ele>308.3</ele>
      </trkpt>
      <trkpt lat="37.01205" lon="28.30913">
        <ele>309.1</ele>
      </trkpt>
      <trkpt lat="37.01206" lon="28.30908">
        <ele>309.9</ele>
      </trkpt>
      <trkpt lat="37.01205" lon="28.30901">
        <ele>310.7</ele>
      </trkpt>
      <trkpt lat="37.01207" lon="28.30894">
        <ele>311.8</ele>
      </trkpt>
      <trkpt lat="37.01208" lon="28.30889">
        <ele>312.8</ele>
      </trkpt>
      <trkpt lat="37.01208" lon="28.30883">
        <ele>313.4</ele>
      </trkpt>
      <trkpt lat="37.01208" lon="28.30877">
        <ele>314.3</ele>
      </trkpt>
      <trkpt lat="37.01207" lon="28.30871">
        <ele>314.7</ele>
      </trkpt>
      <trkpt lat="37.01206" lon="28.30864">
        <ele>315.3</ele>
      </trkpt>
      <trkpt lat="37.01206" lon="28.30857">
        <ele>316</ele>
      </trkpt>
      <trkpt lat="37.01209" lon="28.30851">
        <ele>317.4</ele>
      </trkpt>
      <trkpt lat="37.01208" lon="28.30844">
        <ele>318.2</ele>
      </trkpt>
      <trkpt lat="37.01207" lon="28.30837">
        <ele>318.7</ele>
      </trkpt>
      <trkpt lat="37.01207" lon="28.30831">
        <ele>319.3</ele>
      </trkpt>
      <trkpt lat="37.01206" lon="28.30824">
        <ele>319.8</ele>
      </trkpt>
      <trkpt lat="37.01204" lon="28.30818">
        <ele>319.9</ele>
      </trkpt>
      <trkpt lat="37.01204" lon="28.30811">
        <ele>320.4</ele>
      </trkpt>
      <trkpt lat="37.01205" lon="28.30805">
        <ele>321.3</ele>
      </trkpt>
      <trkpt lat="37.01205" lon="28.30799">
        <ele>321.8</ele>
      </trkpt>
      <trkpt lat="37.01206" lon="28.30793">
        <ele>322.7</ele>
      </trkpt>
      <trkpt lat="37.01204" lon="28.30788">
        <ele>322.7</ele>
      </trkpt>
      <trkpt lat="37.01204" lon="28.30781">
        <ele>323.4</ele>
      </trkpt>
      <trkpt lat="37.01204" lon="28.30776">
        <ele>323.9</ele>
      </trkpt>
      <trkpt lat="37.01204" lon="28.3077">
        <ele>324.5</ele>
      </trkpt>
      <trkpt lat="37.01206" lon="28.30763">
        <ele>325.6</ele>
      </trkpt>
      <trkpt lat="37.01207" lon="28.30758">
        <ele>326.3</ele>
      </trkpt>
      <trkpt lat="37.01208" lon="28.30751">
        <ele>327.2</ele>
      </trkpt>
      <trkpt lat="37.01209" lon="28.30746">
        <ele>327.7</ele>
      </trkpt>
      <trkpt lat="37.01209" lon="28.3074">
        <ele>327.7</ele>
      </trkpt>
      <trkpt lat="37.0121" lon="28.30732">
        <ele>328</ele>
      </trkpt>
      <trkpt lat="37.0121" lon="28.30725">
        <ele>328.1</ele>
      </trkpt>
      <trkpt lat="37.01211" lon="28.30718">
        <ele>328.3</ele>
      </trkpt>
      <trkpt lat="37.01211" lon="28.30711">
        <ele>328.3</ele>
      </trkpt>
      <trkpt lat="37.01211" lon="28.30704">
        <ele>328.3</ele>
      </trkpt>
      <trkpt lat="37.01208" lon="28.30699">
        <ele>327.8</ele>
      </trkpt>
      <trkpt lat="37.01209" lon="28.30692">
        <ele>328</ele>
      </trkpt>
      <trkpt lat="37.01209" lon="28.30686">
        <ele>328</ele>
      </trkpt>
      <trkpt lat="37.01209" lon="28.3068">
        <ele>328</ele>
      </trkpt>
      <trkpt lat="37.01208" lon="28.30674">
        <ele>327.9</ele>
      </trkpt>
      <trkpt lat="37.01207" lon="28.30668">
        <ele>327.7</ele>
      </trkpt>
      <trkpt lat="37.01204" lon="28.30662">
        <ele>327.3</ele>
      </trkpt>
      <trkpt lat="37.01203" lon="28.30657">
        <ele>327.3</ele>
      </trkpt>
      <trkpt lat="37.01202" lon="28.30651">
        <ele>327.2</ele>
      </trkpt>
      <trkpt lat="37.01199" lon="28.30646">
        <ele>326.9</ele>
      </trkpt>
      <trkpt lat="37.01197" lon="28.3064">
        <ele>326.8</ele>
      </trkpt>
      <trkpt lat="37.01197" lon="28.30634">
        <ele>327</ele>
      </trkpt>
      <trkpt lat="37.01196" lon="28.30627">
        <ele>326.9</ele>
      </trkpt>
      <trkpt lat="37.01196" lon="28.30621">
        <ele>327.2</ele>
      </trkpt>
      <trkpt lat="37.01196" lon="28.30613">
        <ele>327.5</ele>
      </trkpt>
      <trkpt lat="37.01197" lon="28.30606">
        <ele>327.9</ele>
      </trkpt>
      <trkpt lat="37.01197" lon="28.306">
        <ele>328.1</ele>
      </trkpt>
      <trkpt lat="37.01196" lon="28.30591">
        <ele>328.3</ele>
      </trkpt>
      <trkpt lat="37.01196" lon="28.30585">
        <ele>328.5</ele>
      </trkpt>
      <trkpt lat="37.01198" lon="28.3058">
        <ele>329</ele>
      </trkpt>
      <trkpt lat="37.01199" lon="28.30574">
        <ele>329.4</ele>
      </trkpt>
      <trkpt lat="37.012" lon="28.30568">
        <ele>329.9</ele>
      </trkpt>
      <trkpt lat="37.01198" lon="28.30563">
        <ele>329.9</ele>
      </trkpt>
      <trkpt lat="37.01198" lon="28.30557">
        <ele>330.4</ele>
      </trkpt>
      <trkpt lat="37.012" lon="28.30552">
        <ele>330.9</ele>
      </trkpt>
      <trkpt lat="37.01203" lon="28.30547">
        <ele>331.4</ele>
      </trkpt>
      <trkpt lat="37.01205" lon="28.30541">
        <ele>331.8</ele>
      </trkpt>
      <trkpt lat="37.01208" lon="28.30534">
        <ele>332.3</ele>
      </trkpt>
      <trkpt lat="37.01209" lon="28.30528">
        <ele>332.7</ele>
      </trkpt>
      <trkpt lat="37.01211" lon="28.30522">
        <ele>333.1</ele>
      </trkpt>
      <trkpt lat="37.01214" lon="28.30516">
        <ele>333.5</ele>
      </trkpt>
      <trkpt lat="37.01216" lon="28.30508">
        <ele>333.8</ele>
      </trkpt>
      <trkpt lat="37.01216" lon="28.30503">
        <ele>334.1</ele>
      </trkpt>
      <trkpt lat="37.01217" lon="28.30497">
        <ele>334.3</ele>
      </trkpt>
      <trkpt lat="37.01216" lon="28.30491">
        <ele>334.5</ele>
      </trkpt>
      <trkpt lat="37.01216" lon="28.30483">
        <ele>334.7</ele>
      </trkpt>
      <trkpt lat="37.01218" lon="28.30477">
        <ele>334.9</ele>
      </trkpt>
      <trkpt lat="37.01218" lon="28.30469">
        <ele>335.1</ele>
      </trkpt>
      <trkpt lat="37.01221" lon="28.30465">
        <ele>335.1</ele>
      </trkpt>
      <trkpt lat="37.01222" lon="28.30458">
        <ele>335.2</ele>
      </trkpt>
      <trkpt lat="37.01223" lon="28.30451">
        <ele>335.3</ele>
      </trkpt>
      <trkpt lat="37.01225" lon="28.30445">
        <ele>335.3</ele>
      </trkpt>
      <trkpt lat="37.01225" lon="28.30438">
        <ele>335.4</ele>
      </trkpt>
      <trkpt lat="37.01226" lon="28.30431">
        <ele>335.4</ele>
      </trkpt>
      <trkpt lat="37.01225" lon="28.30425">
        <ele>335.6</ele>
      </trkpt>
      <trkpt lat="37.01224" lon="28.30417">
        <ele>335.8</ele>
      </trkpt>
      <trkpt lat="37.01223" lon="28.30412">
        <ele>336.2</ele>
      </trkpt>
      <trkpt lat="37.01219" lon="28.30406">
        <ele>336.8</ele>
      </trkpt>
      <trkpt lat="37.01217" lon="28.304">
        <ele>337.2</ele>
      </trkpt>
      <trkpt lat="37.01215" lon="28.30394">
        <ele>337.7</ele>
      </trkpt>
      <trkpt lat="37.01211" lon="28.3039">
        <ele>338.3</ele>
      </trkpt>
      <trkpt lat="37.01211" lon="28.30384">
        <ele>338.5</ele>
      </trkpt>
      <trkpt lat="37.01215" lon="28.30376">
        <ele>338.4</ele>
      </trkpt>
      <trkpt lat="37.01218" lon="28.30372">
        <ele>338.1</ele>
      </trkpt>
      <trkpt lat="37.01221" lon="28.30368">
        <ele>338</ele>
      </trkpt>
      <trkpt lat="37.01225" lon="28.30364">
        <ele>337.5</ele>
      </trkpt>
      <trkpt lat="37.01226" lon="28.30357">
        <ele>337.7</ele>
      </trkpt>
      <trkpt lat="37.01225" lon="28.30351">
        <ele>338</ele>
      </trkpt>
      <trkpt lat="37.01228" lon="28.30344">
        <ele>337.9</ele>
      </trkpt>
      <trkpt lat="37.01231" lon="28.3034">
        <ele>337.6</ele>
      </trkpt>
      <trkpt lat="37.0123" lon="28.30333">
        <ele>337.8</ele>
      </trkpt>
      <trkpt lat="37.01227" lon="28.30328">
        <ele>338.4</ele>
      </trkpt>
      <trkpt lat="37.01229" lon="28.30322">
        <ele>338.3</ele>
      </trkpt>
      <trkpt lat="37.01232" lon="28.30317">
        <ele>338</ele>
      </trkpt>
      <trkpt lat="37.01234" lon="28.30308">
        <ele>338</ele>
      </trkpt>
      <trkpt lat="37.01238" lon="28.303">
        <ele>337.5</ele>
      </trkpt>
      <trkpt lat="37.0124" lon="28.30295">
        <ele>337.4</ele>
      </trkpt>
      <trkpt lat="37.0124" lon="28.30289">
        <ele>337.5</ele>
      </trkpt>
      <trkpt lat="37.01243" lon="28.30283">
        <ele>337.3</ele>
      </trkpt>
      <trkpt lat="37.01241" lon="28.30278">
        <ele>337.6</ele>
      </trkpt>
      <trkpt lat="37.01244" lon="28.3027">
        <ele>337.3</ele>
      </trkpt>
      <trkpt lat="37.01246" lon="28.30262">
        <ele>337.3</ele>
      </trkpt>
      <trkpt lat="37.01242" lon="28.30256">
        <ele>338</ele>
      </trkpt>
      <trkpt lat="37.0124" lon="28.3025">
        <ele>338.5</ele>
      </trkpt>
      <trkpt lat="37.0124" lon="28.30244">
        <ele>338.3</ele>
      </trkpt>
      <trkpt lat="37.01237" lon="28.30237">
        <ele>338.6</ele>
      </trkpt>
      <trkpt lat="37.01237" lon="28.30231">
        <ele>338.5</ele>
      </trkpt>
      <trkpt lat="37.01241" lon="28.30227">
        <ele>337.9</ele>
      </trkpt>
      <trkpt lat="37.01241" lon="28.3022">
        <ele>337.7</ele>
      </trkpt>
      <trkpt lat="37.0124" lon="28.30214">
        <ele>337.7</ele>
      </trkpt>
      <trkpt lat="37.01241" lon="28.30207">
        <ele>337.6</ele>
      </trkpt>
      <trkpt lat="37.01241" lon="28.30201">
        <ele>337.5</ele>
      </trkpt>
      <trkpt lat="37.0124" lon="28.30194">
        <ele>337.4</ele>
      </trkpt>
      <trkpt lat="37.01238" lon="28.30185">
        <ele>337.5</ele>
      </trkpt>
      <trkpt lat="37.01239" lon="28.30178">
        <ele>337.3</ele>
      </trkpt>
      <trkpt lat="37.01238" lon="28.3017">
        <ele>337.2</ele>
      </trkpt>
      <trkpt lat="37.01237" lon="28.30163">
        <ele>337.1</ele>
      </trkpt>
      <trkpt lat="37.01236" lon="28.30157">
        <ele>337.1</ele>
      </trkpt>
      <trkpt lat="37.01235" lon="28.30151">
        <ele>337.1</ele>
      </trkpt>
      <trkpt lat="37.01233" lon="28.30145">
        <ele>337</ele>
      </trkpt>
      <trkpt lat="37.0123" lon="28.30139">
        <ele>337</ele>
      </trkpt>
      <trkpt lat="37.01229" lon="28.30133">
        <ele>336.9</ele>
      </trkpt>
      <trkpt lat="37.01229" lon="28.30126">
        <ele>336.7</ele>
      </trkpt>
      <trkpt lat="37.01227" lon="28.30121">
        <ele>336.6</ele>
      </trkpt>
      <trkpt lat="37.01227" lon="28.30114">
        <ele>336.4</ele>
      </trkpt>
      <trkpt lat="37.01224" lon="28.30109">
        <ele>336.3</ele>
      </trkpt>
      <trkpt lat="37.01222" lon="28.30103">
        <ele>336.1</ele>
      </trkpt>
      <trkpt lat="37.0122" lon="28.30097">
        <ele>335.9</ele>
      </trkpt>
      <trkpt lat="37.01218" lon="28.3009">
        <ele>335.7</ele>
      </trkpt>
      <trkpt lat="37.01217" lon="28.30083">
        <ele>335.4</ele>
      </trkpt>
      <trkpt lat="37.01215" lon="28.30078">
        <ele>334.8</ele>
      </trkpt>
      <trkpt lat="37.01212" lon="28.30073">
        <ele>334.1</ele>
      </trkpt>
      <trkpt lat="37.0121" lon="28.30067">
        <ele>333.3</ele>
      </trkpt>
      <trkpt lat="37.01211" lon="28.30061">
        <ele>332.6</ele>
      </trkpt>
      <trkpt lat="37.01209" lon="28.30053">
        <ele>331.5</ele>
      </trkpt>
      <trkpt lat="37.01207" lon="28.30047">
        <ele>330.7</ele>
      </trkpt>
      <trkpt lat="37.01206" lon="28.3004">
        <ele>329.8</ele>
      </trkpt>
      <trkpt lat="37.01205" lon="28.30034">
        <ele>329</ele>
      </trkpt>
      <trkpt lat="37.01204" lon="28.30028">
        <ele>328.1</ele>
      </trkpt>
      <trkpt lat="37.01204" lon="28.30021">
        <ele>327.2</ele>
      </trkpt>
      <trkpt lat="37.01202" lon="28.30015">
        <ele>326.3</ele>
      </trkpt>
      <trkpt lat="37.012" lon="28.30009">
        <ele>325.5</ele>
      </trkpt>
      <trkpt lat="37.01197" lon="28.30004">
        <ele>324.7</ele>
      </trkpt>
      <trkpt lat="37.01193" lon="28.3">
        <ele>323.9</ele>
      </trkpt>
      <trkpt lat="37.01187" lon="28.29999">
        <ele>323.6</ele>
      </trkpt>
      <trkpt lat="37.01185" lon="28.29994">
        <ele>323</ele>
      </trkpt>
      <trkpt lat="37.01181" lon="28.29989">
        <ele>322.4</ele>
      </trkpt>
      <trkpt lat="37.01177" lon="28.29986">
        <ele>321.8</ele>
      </trkpt>
      <trkpt lat="37.01174" lon="28.29981">
        <ele>321.2</ele>
      </trkpt>
      <trkpt lat="37.01169" lon="28.29979">
        <ele>320.8</ele>
      </trkpt>
      <trkpt lat="37.01166" lon="28.29975">
        <ele>320.4</ele>
      </trkpt>
      <trkpt lat="37.01162" lon="28.29971">
        <ele>320.8</ele>
      </trkpt>
      <trkpt lat="37.0116" lon="28.29965">
        <ele>320.7</ele>
      </trkpt>
      <trkpt lat="37.01157" lon="28.2996">
        <ele>321</ele>
      </trkpt>
      <trkpt lat="37.01157" lon="28.29952">
        <ele>319.9</ele>
      </trkpt>
      <trkpt lat="37.01153" lon="28.29948">
        <ele>320.6</ele>
      </trkpt>
      <trkpt lat="37.01148" lon="28.29945">
        <ele>321.3</ele>
      </trkpt>
      <trkpt lat="37.0115" lon="28.29938">
        <ele>320.2</ele>
      </trkpt>
      <trkpt lat="37.01148" lon="28.29931">
        <ele>319.7</ele>
      </trkpt>
      <trkpt lat="37.01146" lon="28.29924">
        <ele>319.5</ele>
      </trkpt>
      <trkpt lat="37.01143" lon="28.29919">
        <ele>319.5</ele>
      </trkpt>
      <trkpt lat="37.01143" lon="28.29912">
        <ele>318.8</ele>
      </trkpt>
      <trkpt lat="37.01141" lon="28.29905">
        <ele>318.5</ele>
      </trkpt>
      <trkpt lat="37.0114" lon="28.29899">
        <ele>318</ele>
      </trkpt>
      <trkpt lat="37.0114" lon="28.29893">
        <ele>317.4</ele>
      </trkpt>
      <trkpt lat="37.0114" lon="28.29887">
        <ele>316.7</ele>
      </trkpt>
      <trkpt lat="37.0114" lon="28.2988">
        <ele>315.9</ele>
      </trkpt>
      <trkpt lat="37.01138" lon="28.29874">
        <ele>315.6</ele>
      </trkpt>
      <trkpt lat="37.01137" lon="28.29867">
        <ele>315</ele>
      </trkpt>
      <trkpt lat="37.01138" lon="28.29861">
        <ele>314.1</ele>
      </trkpt>
      <trkpt lat="37.01137" lon="28.29854">
        <ele>313.4</ele>
      </trkpt>
      <trkpt lat="37.01137" lon="28.29846">
        <ele>312.5</ele>
      </trkpt>
      <trkpt lat="37.01133" lon="28.29842">
        <ele>312.8</ele>
      </trkpt>
      <trkpt lat="37.01127" lon="28.29843">
        <ele>313.8</ele>
      </trkpt>
      <trkpt lat="37.01132" lon="28.29839">
        <ele>312.5</ele>
      </trkpt>
      <trkpt lat="37.0113" lon="28.29833">
        <ele>312.2</ele>
      </trkpt>
      <trkpt lat="37.0113" lon="28.29828">
        <ele>311.2</ele>
      </trkpt>
      <trkpt lat="37.0113" lon="28.29821">
        <ele>310.3</ele>
      </trkpt>
      <trkpt lat="37.01131" lon="28.29814">
        <ele>309</ele>
      </trkpt>
      <trkpt lat="37.01131" lon="28.29807">
        <ele>308</ele>
      </trkpt>
      <trkpt lat="37.01131" lon="28.29801">
        <ele>307</ele>
      </trkpt>
      <trkpt lat="37.01128" lon="28.29795">
        <ele>306.7</ele>
      </trkpt>
      <trkpt lat="37.01126" lon="28.29789">
        <ele>306</ele>
      </trkpt>
      <trkpt lat="37.01123" lon="28.29783">
        <ele>305.5</ele>
      </trkpt>
      <trkpt lat="37.0112" lon="28.29778">
        <ele>305</ele>
      </trkpt>
      <trkpt lat="37.0112" lon="28.29772">
        <ele>304.1</ele>
      </trkpt>
      <trkpt lat="37.01119" lon="28.29764">
        <ele>303</ele>
      </trkpt>
      <trkpt lat="37.01117" lon="28.29759">
        <ele>302.4</ele>
      </trkpt>
      <trkpt lat="37.01113" lon="28.29754">
        <ele>302.1</ele>
      </trkpt>
      <trkpt lat="37.01109" lon="28.29753">
        <ele>302.5</ele>
      </trkpt>
      <trkpt lat="37.01106" lon="28.29747">
        <ele>302</ele>
      </trkpt>
      <trkpt lat="37.01103" lon="28.29742">
        <ele>301.5</ele>
      </trkpt>
      <trkpt lat="37.01101" lon="28.29736">
        <ele>301</ele>
      </trkpt>
      <trkpt lat="37.01097" lon="28.29731">
        <ele>300.8</ele>
      </trkpt>
      <trkpt lat="37.01093" lon="28.29727">
        <ele>300.7</ele>
      </trkpt>
      <trkpt lat="37.01089" lon="28.29724">
        <ele>300.7</ele>
      </trkpt>
      <trkpt lat="37.01086" lon="28.29718">
        <ele>300.1</ele>
      </trkpt>
      <trkpt lat="37.01081" lon="28.29715">
        <ele>299.6</ele>
      </trkpt>
      <trkpt lat="37.01076" lon="28.29713">
        <ele>298.8</ele>
      </trkpt>
      <trkpt lat="37.0107" lon="28.2971">
        <ele>297.9</ele>
      </trkpt>
      <trkpt lat="37.01066" lon="28.29706">
        <ele>296.9</ele>
      </trkpt>
      <trkpt lat="37.01062" lon="28.29703">
        <ele>296.1</ele>
      </trkpt>
      <trkpt lat="37.01058" lon="28.297">
        <ele>295.4</ele>
      </trkpt>
      <trkpt lat="37.01054" lon="28.29696">
        <ele>294.5</ele>
      </trkpt>
      <trkpt lat="37.01049" lon="28.29692">
        <ele>293.7</ele>
      </trkpt>
      <trkpt lat="37.01045" lon="28.29688">
        <ele>292.9</ele>
      </trkpt>
      <trkpt lat="37.01042" lon="28.29683">
        <ele>292.2</ele>
      </trkpt>
      <trkpt lat="37.01037" lon="28.29681">
        <ele>291.6</ele>
      </trkpt>
      <trkpt lat="37.01033" lon="28.29676">
        <ele>290.9</ele>
      </trkpt>
      <trkpt lat="37.0103" lon="28.29672">
        <ele>290.3</ele>
      </trkpt>
      <trkpt lat="37.01029" lon="28.29666">
        <ele>289.8</ele>
      </trkpt>
      <trkpt lat="37.01026" lon="28.29662">
        <ele>289.9</ele>
      </trkpt>
      <trkpt lat="37.01024" lon="28.29656">
        <ele>290.3</ele>
      </trkpt>
      <trkpt lat="37.01022" lon="28.2965">
        <ele>290.6</ele>
      </trkpt>
      <trkpt lat="37.01019" lon="28.29644">
        <ele>291</ele>
      </trkpt>
      <trkpt lat="37.01017" lon="28.29638">
        <ele>291.4</ele>
      </trkpt>
      <trkpt lat="37.01016" lon="28.2963">
        <ele>291.9</ele>
      </trkpt>
      <trkpt lat="37.01013" lon="28.29625">
        <ele>292.2</ele>
      </trkpt>
      <trkpt lat="37.01011" lon="28.29618">
        <ele>292.7</ele>
      </trkpt>
      <trkpt lat="37.01007" lon="28.29611">
        <ele>293</ele>
      </trkpt>
      <trkpt lat="37.01011" lon="28.29608">
        <ele>293.5</ele>
      </trkpt>
      <trkpt lat="37.01001" lon="28.29614">
        <ele>292.5</ele>
      </trkpt>
      <trkpt lat="37.01001" lon="28.29606">
        <ele>293.1</ele>
      </trkpt>
      <trkpt lat="37.01001" lon="28.296">
        <ele>293.7</ele>
      </trkpt>
      <trkpt lat="37.01002" lon="28.29594">
        <ele>294.2</ele>
      </trkpt>
      <trkpt lat="37.01001" lon="28.29587">
        <ele>294.7</ele>
      </trkpt>
      <trkpt lat="37.01003" lon="28.29582">
        <ele>295.5</ele>
      </trkpt>
      <trkpt lat="37.01003" lon="28.29576">
        <ele>296.8</ele>
      </trkpt>
      <trkpt lat="37.01001" lon="28.29571">
        <ele>297.8</ele>
      </trkpt>
      <trkpt lat="37.00994" lon="28.2957">
        <ele>297.6</ele>
      </trkpt>
      <trkpt lat="37.00992" lon="28.29564">
        <ele>298.8</ele>
      </trkpt>
      <trkpt lat="37.00987" lon="28.29562">
        <ele>298.8</ele>
      </trkpt>
      <trkpt lat="37.0099" lon="28.29557">
        <ele>300.1</ele>
      </trkpt>
      <trkpt lat="37.00989" lon="28.29551">
        <ele>301.3</ele>
      </trkpt>
      <trkpt lat="37.00991" lon="28.29546">
        <ele>302.5</ele>
      </trkpt>
      <trkpt lat="37.00986" lon="28.29543">
        <ele>302.8</ele>
      </trkpt>
      <trkpt lat="37.00984" lon="28.29537">
        <ele>303.8</ele>
      </trkpt>
      <trkpt lat="37.00979" lon="28.29533">
        <ele>304.3</ele>
      </trkpt>
      <trkpt lat="37.00975" lon="28.2953">
        <ele>304.6</ele>
      </trkpt>
      <trkpt lat="37.00971" lon="28.29531">
        <ele>304</ele>
      </trkpt>
      <trkpt lat="37.00967" lon="28.29528">
        <ele>304.4</ele>
      </trkpt>
      <trkpt lat="37.00962" lon="28.29526">
        <ele>304.3</ele>
      </trkpt>
      <trkpt lat="37.00956" lon="28.29526">
        <ele>303.8</ele>
      </trkpt>
      <trkpt lat="37.00952" lon="28.29525">
        <ele>303.6</ele>
      </trkpt>
      <trkpt lat="37.00947" lon="28.29524">
        <ele>303.4</ele>
      </trkpt>
      <trkpt lat="37.00942" lon="28.29522">
        <ele>303.3</ele>
      </trkpt>
      <trkpt lat="37.00937" lon="28.29524">
        <ele>302.7</ele>
      </trkpt>
      <trkpt lat="37.00932" lon="28.29524">
        <ele>302.1</ele>
      </trkpt>
      <trkpt lat="37.00927" lon="28.29525">
        <ele>301.6</ele>
      </trkpt>
      <trkpt lat="37.00921" lon="28.29525">
        <ele>301.2</ele>
      </trkpt>
      <trkpt lat="37.00915" lon="28.29527">
        <ele>300.2</ele>
      </trkpt>
      <trkpt lat="37.0091" lon="28.29523">
        <ele>300.1</ele>
      </trkpt>
      <trkpt lat="37.00906" lon="28.29518">
        <ele>300.4</ele>
      </trkpt>
      <trkpt lat="37.00902" lon="28.29514">
        <ele>300.4</ele>
      </trkpt>
      <trkpt lat="37.00898" lon="28.2951">
        <ele>300.3</ele>
      </trkpt>
      <trkpt lat="37.00896" lon="28.29504">
        <ele>300.7</ele>
      </trkpt>
      <trkpt lat="37.00893" lon="28.29499">
        <ele>300.9</ele>
      </trkpt>
      <trkpt lat="37.0089" lon="28.29492">
        <ele>300.9</ele>
      </trkpt>
      <trkpt lat="37.00887" lon="28.29487">
        <ele>300.8</ele>
      </trkpt>
      <trkpt lat="37.00883" lon="28.29484">
        <ele>300.5</ele>
      </trkpt>
      <trkpt lat="37.00881" lon="28.29477">
        <ele>300.7</ele>
      </trkpt>
      <trkpt lat="37.00877" lon="28.29472">
        <ele>300.4</ele>
      </trkpt>
      <trkpt lat="37.00876" lon="28.29466">
        <ele>300.8</ele>
      </trkpt>
      <trkpt lat="37.00873" lon="28.29461">
        <ele>300.7</ele>
      </trkpt>
      <trkpt lat="37.00874" lon="28.29454">
        <ele>301.4</ele>
      </trkpt>
      <trkpt lat="37.00873" lon="28.29448">
        <ele>301.8</ele>
      </trkpt>
      <trkpt lat="37.00873" lon="28.29442">
        <ele>302.4</ele>
      </trkpt>
      <trkpt lat="37.00874" lon="28.29435">
        <ele>303.1</ele>
      </trkpt>
      <trkpt lat="37.00875" lon="28.29429">
        <ele>303.8</ele>
      </trkpt>
      <trkpt lat="37.00877" lon="28.29423">
        <ele>304.9</ele>
      </trkpt>
      <trkpt lat="37.00878" lon="28.29417">
        <ele>305.6</ele>
      </trkpt>
      <trkpt lat="37.00878" lon="28.2941">
        <ele>305.9</ele>
      </trkpt>
      <trkpt lat="37.00879" lon="28.29404">
        <ele>306.3</ele>
      </trkpt>
      <trkpt lat="37.0088" lon="28.29398">
        <ele>306.7</ele>
      </trkpt>
      <trkpt lat="37.00882" lon="28.29392">
        <ele>307.3</ele>
      </trkpt>
      <trkpt lat="37.00882" lon="28.29386">
        <ele>307.5</ele>
      </trkpt>
      <trkpt lat="37.00882" lon="28.2938">
        <ele>307.8</ele>
      </trkpt>
      <trkpt lat="37.00884" lon="28.29375">
        <ele>308.3</ele>
      </trkpt>
      <trkpt lat="37.00888" lon="28.29371">
        <ele>309.2</ele>
      </trkpt>
      <trkpt lat="37.0089" lon="28.29365">
        <ele>309.7</ele>
      </trkpt>
      <trkpt lat="37.00894" lon="28.2936">
        <ele>310.3</ele>
      </trkpt>
      <trkpt lat="37.00897" lon="28.29354">
        <ele>310.9</ele>
      </trkpt>
      <trkpt lat="37.009" lon="28.2935">
        <ele>311.5</ele>
      </trkpt>
      <trkpt lat="37.00903" lon="28.29344">
        <ele>312.1</ele>
      </trkpt>
      <trkpt lat="37.00907" lon="28.29339">
        <ele>312.7</ele>
      </trkpt>
      <trkpt lat="37.00911" lon="28.29334">
        <ele>313.3</ele>
      </trkpt>
      <trkpt lat="37.00915" lon="28.2933">
        <ele>313.8</ele>
      </trkpt>
      <trkpt lat="37.00916" lon="28.29324">
        <ele>314</ele>
      </trkpt>
      <trkpt lat="37.0092" lon="28.29318">
        <ele>314.9</ele>
      </trkpt>
      <trkpt lat="37.00923" lon="28.29311">
        <ele>315.7</ele>
      </trkpt>
      <trkpt lat="37.00927" lon="28.29305">
        <ele>316.6</ele>
      </trkpt>
      <trkpt lat="37.00926" lon="28.29298">
        <ele>316.2</ele>
      </trkpt>
      <trkpt lat="37.00923" lon="28.29292">
        <ele>315.8</ele>
      </trkpt>
      <trkpt lat="37.00919" lon="28.29288">
        <ele>315</ele>
      </trkpt>
      <trkpt lat="37.00915" lon="28.29284">
        <ele>314.5</ele>
      </trkpt>
      <trkpt lat="37.0091" lon="28.29283">
        <ele>314.2</ele>
      </trkpt>
      <trkpt lat="37.00905" lon="28.29281">
        <ele>314</ele>
      </trkpt>
      <trkpt lat="37.009" lon="28.29282">
        <ele>313.6</ele>
      </trkpt>
      <trkpt lat="37.00895" lon="28.29281">
        <ele>313.4</ele>
      </trkpt>
      <trkpt lat="37.00891" lon="28.29278">
        <ele>313.3</ele>
      </trkpt>
      <trkpt lat="37.00888" lon="28.29272">
        <ele>313.5</ele>
      </trkpt>
      <trkpt lat="37.00884" lon="28.29269">
        <ele>313.5</ele>
      </trkpt>
      <trkpt lat="37.00881" lon="28.29263">
        <ele>313.7</ele>
      </trkpt>
      <trkpt lat="37.00882" lon="28.29257">
        <ele>314.1</ele>
      </trkpt>
      <trkpt lat="37.0088" lon="28.29252">
        <ele>314.4</ele>
      </trkpt>
      <trkpt lat="37.00877" lon="28.29245">
        <ele>314.5</ele>
      </trkpt>
      <trkpt lat="37.00878" lon="28.29239">
        <ele>314.6</ele>
      </trkpt>
      <trkpt lat="37.0088" lon="28.29231">
        <ele>314.6</ele>
      </trkpt>
      <trkpt lat="37.0088" lon="28.29225">
        <ele>314.6</ele>
      </trkpt>
      <trkpt lat="37.00879" lon="28.2922">
        <ele>314.6</ele>
      </trkpt>
      <trkpt lat="37.00879" lon="28.29212">
        <ele>314.6</ele>
      </trkpt>
      <trkpt lat="37.00876" lon="28.29205">
        <ele>314.7</ele>
      </trkpt>
      <trkpt lat="37.00873" lon="28.29199">
        <ele>314.9</ele>
      </trkpt>
      <trkpt lat="37.00871" lon="28.29193">
        <ele>315</ele>
      </trkpt>
      <trkpt lat="37.00869" lon="28.29188">
        <ele>315.2</ele>
      </trkpt>
      <trkpt lat="37.00865" lon="28.29182">
        <ele>315.5</ele>
      </trkpt>
      <trkpt lat="37.00861" lon="28.29178">
        <ele>315.8</ele>
      </trkpt>
      <trkpt lat="37.00856" lon="28.29175">
        <ele>316.2</ele>
      </trkpt>
      <trkpt lat="37.00852" lon="28.29172">
        <ele>316.5</ele>
      </trkpt>
      <trkpt lat="37.00848" lon="28.2917">
        <ele>316.9</ele>
      </trkpt>
      <trkpt lat="37.00844" lon="28.29166">
        <ele>317.2</ele>
      </trkpt>
      <trkpt lat="37.00841" lon="28.29161">
        <ele>316.9</ele>
      </trkpt>
      <trkpt lat="37.00839" lon="28.29156">
        <ele>316.5</ele>
      </trkpt>
      <trkpt lat="37.00835" lon="28.29155">
        <ele>316.8</ele>
      </trkpt>
      <trkpt lat="37.00831" lon="28.29152">
        <ele>317.1</ele>
      </trkpt>
      <trkpt lat="37.00826" lon="28.29151">
        <ele>318.2</ele>
      </trkpt>
      <trkpt lat="37.00821" lon="28.2915">
        <ele>319</ele>
      </trkpt>
      <trkpt lat="37.00817" lon="28.29148">
        <ele>319.8</ele>
      </trkpt>
      <trkpt lat="37.00811" lon="28.29144">
        <ele>320.5</ele>
      </trkpt>
      <trkpt lat="37.00807" lon="28.2914">
        <ele>321</ele>
      </trkpt>
      <trkpt lat="37.00803" lon="28.29137">
        <ele>321.5</ele>
      </trkpt>
      <trkpt lat="37.00799" lon="28.29134">
        <ele>322.1</ele>
      </trkpt>
      <trkpt lat="37.00796" lon="28.2913">
        <ele>322.4</ele>
      </trkpt>
      <trkpt lat="37.00792" lon="28.29125">
        <ele>322.5</ele>
      </trkpt>
      <trkpt lat="37.00789" lon="28.2912">
        <ele>322.8</ele>
      </trkpt>
      <trkpt lat="37.00784" lon="28.29114">
        <ele>323.1</ele>
      </trkpt>
      <trkpt lat="37.00781" lon="28.29109">
        <ele>323.3</ele>
      </trkpt>
      <trkpt lat="37.0078" lon="28.29104">
        <ele>323</ele>
      </trkpt>
      <trkpt lat="37.00779" lon="28.29096">
        <ele>322.5</ele>
      </trkpt>
      <trkpt lat="37.00777" lon="28.29089">
        <ele>322</ele>
      </trkpt>
      <trkpt lat="37.00774" lon="28.29084">
        <ele>322.2</ele>
      </trkpt>
      <trkpt lat="37.00775" lon="28.29077">
        <ele>321.4</ele>
      </trkpt>
      <trkpt lat="37.00773" lon="28.2907">
        <ele>321</ele>
      </trkpt>
      <trkpt lat="37.00771" lon="28.29065">
        <ele>321</ele>
      </trkpt>
      <trkpt lat="37.0077" lon="28.29059">
        <ele>320.7</ele>
      </trkpt>
      <trkpt lat="37.00767" lon="28.29055">
        <ele>320.9</ele>
      </trkpt>
      <trkpt lat="37.00766" lon="28.29049">
        <ele>320.5</ele>
      </trkpt>
      <trkpt lat="37.00766" lon="28.29043">
        <ele>320.1</ele>
      </trkpt>
      <trkpt lat="37.00766" lon="28.29037">
        <ele>319.4</ele>
      </trkpt>
      <trkpt lat="37.00766" lon="28.29031">
        <ele>318.9</ele>
      </trkpt>
      <trkpt lat="37.00765" lon="28.29024">
        <ele>318.3</ele>
      </trkpt>
      <trkpt lat="37.00763" lon="28.29017">
        <ele>318.2</ele>
      </trkpt>
      <trkpt lat="37.00762" lon="28.29011">
        <ele>318</ele>
      </trkpt>
      <trkpt lat="37.00763" lon="28.29005">
        <ele>317.3</ele>
      </trkpt>
      <trkpt lat="37.00761" lon="28.28998">
        <ele>317</ele>
      </trkpt>
      <trkpt lat="37.00761" lon="28.28992">
        <ele>316.6</ele>
      </trkpt>
      <trkpt lat="37.00761" lon="28.28986">
        <ele>315.9</ele>
      </trkpt>
      <trkpt lat="37.00759" lon="28.28981">
        <ele>316</ele>
      </trkpt>
      <trkpt lat="37.00757" lon="28.28975">
        <ele>316.1</ele>
      </trkpt>
      <trkpt lat="37.00757" lon="28.28968">
        <ele>315.4</ele>
      </trkpt>
      <trkpt lat="37.00756" lon="28.28963">
        <ele>315.3</ele>
      </trkpt>
      <trkpt lat="37.00755" lon="28.28955">
        <ele>314.8</ele>
      </trkpt>
      <trkpt lat="37.00754" lon="28.28949">
        <ele>314.6</ele>
      </trkpt>
      <trkpt lat="37.00753" lon="28.28943">
        <ele>314.4</ele>
      </trkpt>
      <trkpt lat="37.00753" lon="28.28936">
        <ele>313.7</ele>
      </trkpt>
      <trkpt lat="37.00754" lon="28.2893">
        <ele>312.9</ele>
      </trkpt>
      <trkpt lat="37.00753" lon="28.28923">
        <ele>312.5</ele>
      </trkpt>
      <trkpt lat="37.00752" lon="28.28917">
        <ele>312.4</ele>
      </trkpt>
      <trkpt lat="37.0075" lon="28.28912">
        <ele>312.4</ele>
      </trkpt>
      <trkpt lat="37.00747" lon="28.28905">
        <ele>311.8</ele>
      </trkpt>
      <trkpt lat="37.00748" lon="28.28898">
        <ele>310.9</ele>
      </trkpt>
      <trkpt lat="37.00747" lon="28.28891">
        <ele>310</ele>
      </trkpt>
      <trkpt lat="37.00745" lon="28.28885">
        <ele>309.5</ele>
      </trkpt>
      <trkpt lat="37.00744" lon="28.28878">
        <ele>308.7</ele>
      </trkpt>
      <trkpt lat="37.00743" lon="28.28872">
        <ele>307.9</ele>
      </trkpt>
      <trkpt lat="37.00741" lon="28.28865">
        <ele>307.2</ele>
      </trkpt>
      <trkpt lat="37.0074" lon="28.28859">
        <ele>306.5</ele>
      </trkpt>
      <trkpt lat="37.00739" lon="28.28853">
        <ele>305.7</ele>
      </trkpt>
      <trkpt lat="37.00737" lon="28.28847">
        <ele>305.2</ele>
      </trkpt>
      <trkpt lat="37.00735" lon="28.28841">
        <ele>304.6</ele>
      </trkpt>
      <trkpt lat="37.00731" lon="28.28836">
        <ele>304.1</ele>
      </trkpt>
      <trkpt lat="37.00731" lon="28.28829">
        <ele>303.2</ele>
      </trkpt>
      <trkpt lat="37.00729" lon="28.28823">
        <ele>302.6</ele>
      </trkpt>
      <trkpt lat="37.00725" lon="28.28818">
        <ele>302.1</ele>
      </trkpt>
      <trkpt lat="37.00724" lon="28.28812">
        <ele>301.4</ele>
      </trkpt>
      <trkpt lat="37.00722" lon="28.28807">
        <ele>300.9</ele>
      </trkpt>
      <trkpt lat="37.00725" lon="28.28812">
        <ele>301.4</ele>
      </trkpt>
      <trkpt lat="37.00722" lon="28.28807">
        <ele>300.9</ele>
      </trkpt>
      <trkpt lat="37.00717" lon="28.28804">
        <ele>300.8</ele>
      </trkpt>
      <trkpt lat="37.00713" lon="28.288">
        <ele>300.7</ele>
      </trkpt>
      <trkpt lat="37.00708" lon="28.28801">
        <ele>301.2</ele>
      </trkpt>
      <trkpt lat="37.00703" lon="28.28802">
        <ele>301.7</ele>
      </trkpt>
      <trkpt lat="37.00698" lon="28.28802">
        <ele>302.2</ele>
      </trkpt>
      <trkpt lat="37.00693" lon="28.28803">
        <ele>302.7</ele>
      </trkpt>
      <trkpt lat="37.00688" lon="28.28801">
        <ele>302.9</ele>
      </trkpt>
      <trkpt lat="37.00683" lon="28.28803">
        <ele>303.5</ele>
      </trkpt>
      <trkpt lat="37.00679" lon="28.28806">
        <ele>304.4</ele>
      </trkpt>
      <trkpt lat="37.00673" lon="28.28806">
        <ele>304.9</ele>
      </trkpt>
      <trkpt lat="37.00668" lon="28.2881">
        <ele>305.9</ele>
      </trkpt>
      <trkpt lat="37.00663" lon="28.28812">
        <ele>306.5</ele>
      </trkpt>
      <trkpt lat="37.00658" lon="28.28815">
        <ele>306.9</ele>
      </trkpt>
      <trkpt lat="37.00653" lon="28.28818">
        <ele>307.6</ele>
      </trkpt>
      <trkpt lat="37.00648" lon="28.28821">
        <ele>308</ele>
      </trkpt>
      <trkpt lat="37.00644" lon="28.28823">
        <ele>308.5</ele>
      </trkpt>
      <trkpt lat="37.0064" lon="28.28826">
        <ele>309.1</ele>
      </trkpt>
      <trkpt lat="37.00634" lon="28.28829">
        <ele>309.6</ele>
      </trkpt>
      <trkpt lat="37.00629" lon="28.28832">
        <ele>310.2</ele>
      </trkpt>
      <trkpt lat="37.00624" lon="28.2883">
        <ele>310</ele>
      </trkpt>
      <trkpt lat="37.00619" lon="28.28827">
        <ele>309.3</ele>
      </trkpt>
      <trkpt lat="37.00616" lon="28.28822">
        <ele>308.5</ele>
      </trkpt>
      <trkpt lat="37.00614" lon="28.28816">
        <ele>307.5</ele>
      </trkpt>
      <trkpt lat="37.0061" lon="28.2881">
        <ele>306.4</ele>
      </trkpt>
      <trkpt lat="37.00607" lon="28.28804">
        <ele>305.3</ele>
      </trkpt>
      <trkpt lat="37.00604" lon="28.28798">
        <ele>304.1</ele>
      </trkpt>
      <trkpt lat="37.00602" lon="28.28792">
        <ele>303.1</ele>
      </trkpt>
      <trkpt lat="37.00599" lon="28.28786">
        <ele>302</ele>
      </trkpt>
      <trkpt lat="37.00597" lon="28.2878">
        <ele>300.8</ele>
      </trkpt>
      <trkpt lat="37.00595" lon="28.28774">
        <ele>299.7</ele>
      </trkpt>
      <trkpt lat="37.00592" lon="28.2877">
        <ele>298.8</ele>
      </trkpt>
      <trkpt lat="37.00587" lon="28.28766">
        <ele>298.1</ele>
      </trkpt>
      <trkpt lat="37.00584" lon="28.28761">
        <ele>297.1</ele>
      </trkpt>
      <trkpt lat="37.0058" lon="28.28757">
        <ele>296.9</ele>
      </trkpt>
      <trkpt lat="37.00575" lon="28.28752">
        <ele>297.1</ele>
      </trkpt>
      <trkpt lat="37.00575" lon="28.28744">
        <ele>295.5</ele>
      </trkpt>
      <trkpt lat="37.00572" lon="28.28739">
        <ele>295</ele>
      </trkpt>
      <trkpt lat="37.00569" lon="28.28735">
        <ele>294.8</ele>
      </trkpt>
      <trkpt lat="37.00568" lon="28.28728">
        <ele>293.4</ele>
      </trkpt>
      <trkpt lat="37.00568" lon="28.28722">
        <ele>292.3</ele>
      </trkpt>
      <trkpt lat="37.00565" lon="28.28716">
        <ele>291.7</ele>
      </trkpt>
      <trkpt lat="37.00558" lon="28.28714">
        <ele>292.7</ele>
      </trkpt>
      <trkpt lat="37.00559" lon="28.28725">
        <ele>294.8</ele>
      </trkpt>
      <trkpt lat="37.00555" lon="28.28722">
        <ele>295.1</ele>
      </trkpt>
      <trkpt lat="37.00552" lon="28.28719">
        <ele>295.1</ele>
      </trkpt>
      <trkpt lat="37.00545" lon="28.28719">
        <ele>296.5</ele>
      </trkpt>
      <trkpt lat="37.0054" lon="28.28714">
        <ele>296.7</ele>
      </trkpt>
      <trkpt lat="37.00536" lon="28.28709">
        <ele>296.6</ele>
      </trkpt>
      <trkpt lat="37.00534" lon="28.28716">
        <ele>298.3</ele>
      </trkpt>
      <trkpt lat="37.00533" lon="28.2871">
        <ele>297.6</ele>
      </trkpt>
      <trkpt lat="37.00528" lon="28.28707">
        <ele>298</ele>
      </trkpt>
      <trkpt lat="37.00525" lon="28.28704">
        <ele>298.1</ele>
      </trkpt>
      <trkpt lat="37.0052" lon="28.287">
        <ele>298.6</ele>
      </trkpt>
      <trkpt lat="37.00515" lon="28.28697">
        <ele>299</ele>
      </trkpt>
      <trkpt lat="37.00509" lon="28.28696">
        <ele>300.2</ele>
      </trkpt>
      <trkpt lat="37.00504" lon="28.28694">
        <ele>301</ele>
      </trkpt>
      <trkpt lat="37.00499" lon="28.28694">
        <ele>301.9</ele>
      </trkpt>
      <trkpt lat="37.00495" lon="28.28693">
        <ele>301.4</ele>
      </trkpt>
      <trkpt lat="37.0049" lon="28.28691">
        <ele>300.8</ele>
      </trkpt>
      <trkpt lat="37.00486" lon="28.2869">
        <ele>300.4</ele>
      </trkpt>
      <trkpt lat="37.00481" lon="28.28689">
        <ele>300.1</ele>
      </trkpt>
      <trkpt lat="37.00476" lon="28.28686">
        <ele>299.3</ele>
      </trkpt>
      <trkpt lat="37.00471" lon="28.28683">
        <ele>298.8</ele>
      </trkpt>
      <trkpt lat="37.00467" lon="28.2868">
        <ele>298.2</ele>
      </trkpt>
      <trkpt lat="37.00462" lon="28.28677">
        <ele>297.8</ele>
      </trkpt>
      <trkpt lat="37.00459" lon="28.28673">
        <ele>297.1</ele>
      </trkpt>
      <trkpt lat="37.00455" lon="28.28669">
        <ele>296.7</ele>
      </trkpt>
      <trkpt lat="37.00451" lon="28.28664">
        <ele>296.5</ele>
      </trkpt>
      <trkpt lat="37.00447" lon="28.28659">
        <ele>296.7</ele>
      </trkpt>
      <trkpt lat="37.00444" lon="28.28654">
        <ele>296.9</ele>
      </trkpt>
      <trkpt lat="37.00441" lon="28.28649">
        <ele>297.2</ele>
      </trkpt>
      <trkpt lat="37.00437" lon="28.28645">
        <ele>297.4</ele>
      </trkpt>
      <trkpt lat="37.00433" lon="28.2864">
        <ele>297.7</ele>
      </trkpt>
      <trkpt lat="37.00429" lon="28.28635">
        <ele>298.1</ele>
      </trkpt>
      <trkpt lat="37.00427" lon="28.2863">
        <ele>298.4</ele>
      </trkpt>
      <trkpt lat="37.00425" lon="28.28624">
        <ele>298.8</ele>
      </trkpt>
      <trkpt lat="37.00423" lon="28.28619">
        <ele>299.3</ele>
      </trkpt>
      <trkpt lat="37.00421" lon="28.28611">
        <ele>299.8</ele>
      </trkpt>
      <trkpt lat="37.00417" lon="28.28606">
        <ele>300.3</ele>
      </trkpt>
      <trkpt lat="37.00415" lon="28.28601">
        <ele>300.7</ele>
      </trkpt>
      <trkpt lat="37.0041" lon="28.28599">
        <ele>301</ele>
      </trkpt>
      <trkpt lat="37.00409" lon="28.28592">
        <ele>301.5</ele>
      </trkpt>
      <trkpt lat="37.00409" lon="28.28585">
        <ele>302.1</ele>
      </trkpt>
      <trkpt lat="37.00409" lon="28.28578">
        <ele>302.7</ele>
      </trkpt>
      <trkpt lat="37.00409" lon="28.28572">
        <ele>303.2</ele>
      </trkpt>
      <trkpt lat="37.00409" lon="28.28566">
        <ele>303.8</ele>
      </trkpt>
      <trkpt lat="37.00408" lon="28.2856">
        <ele>304.4</ele>
      </trkpt>
      <trkpt lat="37.00407" lon="28.28553">
        <ele>305.1</ele>
      </trkpt>
      <trkpt lat="37.00407" lon="28.28546">
        <ele>305.7</ele>
      </trkpt>
      <trkpt lat="37.00407" lon="28.2854">
        <ele>306.3</ele>
      </trkpt>
      <trkpt lat="37.00407" lon="28.28535">
        <ele>306.8</ele>
      </trkpt>
      <trkpt lat="37.00406" lon="28.28528">
        <ele>307.6</ele>
      </trkpt>
      <trkpt lat="37.00406" lon="28.28521">
        <ele>308.1</ele>
      </trkpt>
      <trkpt lat="37.00407" lon="28.28514">
        <ele>308.7</ele>
      </trkpt>
      <trkpt lat="37.00407" lon="28.28508">
        <ele>309.3</ele>
      </trkpt>
      <trkpt lat="37.00406" lon="28.28502">
        <ele>310</ele>
      </trkpt>
      <trkpt lat="37.00406" lon="28.28496">
        <ele>310.4</ele>
      </trkpt>
      <trkpt lat="37.00405" lon="28.28491">
        <ele>310.8</ele>
      </trkpt>
      <trkpt lat="37.00405" lon="28.28484">
        <ele>311.2</ele>
      </trkpt>
      <trkpt lat="37.00405" lon="28.28477">
        <ele>311.4</ele>
      </trkpt>
      <trkpt lat="37.00406" lon="28.28471">
        <ele>311.7</ele>
      </trkpt>
      <trkpt lat="37.00405" lon="28.28465">
        <ele>312.2</ele>
      </trkpt>
      <trkpt lat="37.00405" lon="28.28459">
        <ele>312.6</ele>
      </trkpt>
      <trkpt lat="37.00405" lon="28.28453">
        <ele>312.9</ele>
      </trkpt>
      <trkpt lat="37.00405" lon="28.28447">
        <ele>313.2</ele>
      </trkpt>
      <trkpt lat="37.00406" lon="28.28441">
        <ele>313.3</ele>
      </trkpt>
      <trkpt lat="37.00407" lon="28.28434">
        <ele>313.6</ele>
      </trkpt>
      <trkpt lat="37.00407" lon="28.28429">
        <ele>313.9</ele>
      </trkpt>
      <trkpt lat="37.00407" lon="28.28423">
        <ele>314.2</ele>
      </trkpt>
      <trkpt lat="37.00408" lon="28.28416">
        <ele>314.3</ele>
      </trkpt>
      <trkpt lat="37.00408" lon="28.2841">
        <ele>314.3</ele>
      </trkpt>
      <trkpt lat="37.00409" lon="28.28404">
        <ele>314.4</ele>
      </trkpt>
      <trkpt lat="37.00409" lon="28.28398">
        <ele>314.3</ele>
      </trkpt>
      <trkpt lat="37.0041" lon="28.28391">
        <ele>314.3</ele>
      </trkpt>
      <trkpt lat="37.00411" lon="28.28384">
        <ele>314.2</ele>
      </trkpt>
      <trkpt lat="37.00412" lon="28.28378">
        <ele>314.1</ele>
      </trkpt>
      <trkpt lat="37.00412" lon="28.28372">
        <ele>314.1</ele>
      </trkpt>
      <trkpt lat="37.00414" lon="28.28365">
        <ele>314</ele>
      </trkpt>
      <trkpt lat="37.00415" lon="28.28359">
        <ele>313.9</ele>
      </trkpt>
      <trkpt lat="37.00417" lon="28.28353">
        <ele>313.8</ele>
      </trkpt>
      <trkpt lat="37.00419" lon="28.28347">
        <ele>313.8</ele>
      </trkpt>
      <trkpt lat="37.00418" lon="28.28341">
        <ele>313.9</ele>
      </trkpt>
      <trkpt lat="37.00418" lon="28.28334">
        <ele>314</ele>
      </trkpt>
      <trkpt lat="37.00418" lon="28.28329">
        <ele>313.5</ele>
      </trkpt>
      <trkpt lat="37.00417" lon="28.28322">
        <ele>312.9</ele>
      </trkpt>
      <trkpt lat="37.00415" lon="28.28316">
        <ele>312.5</ele>
      </trkpt>
      <trkpt lat="37.00412" lon="28.28311">
        <ele>312.3</ele>
      </trkpt>
      <trkpt lat="37.0041" lon="28.28305">
        <ele>311.8</ele>
      </trkpt>
      <trkpt lat="37.00408" lon="28.28299">
        <ele>311.5</ele>
      </trkpt>
      <trkpt lat="37.00406" lon="28.28294">
        <ele>311.2</ele>
      </trkpt>
      <trkpt lat="37.00404" lon="28.28288">
        <ele>310.8</ele>
      </trkpt>
      <trkpt lat="37.00401" lon="28.28283">
        <ele>310.6</ele>
      </trkpt>
      <trkpt lat="37.00402" lon="28.28277">
        <ele>309.9</ele>
      </trkpt>
      <trkpt lat="37.00402" lon="28.2827">
        <ele>309.2</ele>
      </trkpt>
      <trkpt lat="37.00401" lon="28.28264">
        <ele>308.7</ele>
      </trkpt>
      <trkpt lat="37.00402" lon="28.28258">
        <ele>308</ele>
      </trkpt>
      <trkpt lat="37.00403" lon="28.28251">
        <ele>307.3</ele>
      </trkpt>
      <trkpt lat="37.00402" lon="28.28246">
        <ele>307</ele>
      </trkpt>
      <trkpt lat="37.00399" lon="28.2824">
        <ele>306.9</ele>
      </trkpt>
      <trkpt lat="37.00396" lon="28.28235">
        <ele>307</ele>
      </trkpt>
      <trkpt lat="37.00391" lon="28.28233">
        <ele>307.3</ele>
      </trkpt>
      <trkpt lat="37.00387" lon="28.28228">
        <ele>307.5</ele>
      </trkpt>
      <trkpt lat="37.00383" lon="28.28225">
        <ele>307.8</ele>
      </trkpt>
      <trkpt lat="37.00379" lon="28.28224">
        <ele>308.2</ele>
      </trkpt>
      <trkpt lat="37.00374" lon="28.28221">
        <ele>308.5</ele>
      </trkpt>
      <trkpt lat="37.0037" lon="28.28219">
        <ele>309</ele>
      </trkpt>
      <trkpt lat="37.00365" lon="28.28216">
        <ele>309.5</ele>
      </trkpt>
      <trkpt lat="37.00361" lon="28.28214">
        <ele>309.9</ele>
      </trkpt>
      <trkpt lat="37.00359" lon="28.28207">
        <ele>309.9</ele>
      </trkpt>
      <trkpt lat="37.00363" lon="28.28203">
        <ele>309.3</ele>
      </trkpt>
      <trkpt lat="37.00366" lon="28.28198">
        <ele>308.8</ele>
      </trkpt>
      <trkpt lat="37.00368" lon="28.28193">
        <ele>308.3</ele>
      </trkpt>
      <trkpt lat="37.00372" lon="28.28188">
        <ele>307.7</ele>
      </trkpt>
      <trkpt lat="37.00374" lon="28.28182">
        <ele>307.2</ele>
      </trkpt>
      <trkpt lat="37.00378" lon="28.28178">
        <ele>306.4</ele>
      </trkpt>
      <trkpt lat="37.00382" lon="28.28174">
        <ele>305.7</ele>
      </trkpt>
      <trkpt lat="37.00387" lon="28.28171">
        <ele>304.8</ele>
      </trkpt>
      <trkpt lat="37.0039" lon="28.28166">
        <ele>304.1</ele>
      </trkpt>
      <trkpt lat="37.00395" lon="28.28162">
        <ele>303.7</ele>
      </trkpt>
      <trkpt lat="37.00397" lon="28.28157">
        <ele>303.4</ele>
      </trkpt>
      <trkpt lat="37.00401" lon="28.28152">
        <ele>303.1</ele>
      </trkpt>
      <trkpt lat="37.00404" lon="28.28147">
        <ele>302.9</ele>
      </trkpt>
      <trkpt lat="37.00408" lon="28.28143">
        <ele>302.6</ele>
      </trkpt>
      <trkpt lat="37.00412" lon="28.28139">
        <ele>302.3</ele>
      </trkpt>
      <trkpt lat="37.00416" lon="28.28135">
        <ele>302</ele>
      </trkpt>
      <trkpt lat="37.0042" lon="28.28132">
        <ele>301.2</ele>
      </trkpt>
      <trkpt lat="37.00424" lon="28.28128">
        <ele>300.6</ele>
      </trkpt>
      <trkpt lat="37.00427" lon="28.28123">
        <ele>300</ele>
      </trkpt>
      <trkpt lat="37.0043" lon="28.28118">
        <ele>299.5</ele>
      </trkpt>
      <trkpt lat="37.00433" lon="28.28112">
        <ele>299</ele>
      </trkpt>
      <trkpt lat="37.00437" lon="28.28109">
        <ele>298</ele>
      </trkpt>
      <trkpt lat="37.00441" lon="28.28106">
        <ele>297</ele>
      </trkpt>
      <trkpt lat="37.00445" lon="28.28102">
        <ele>295.8</ele>
      </trkpt>
      <trkpt lat="37.0045" lon="28.281">
        <ele>294.4</ele>
      </trkpt>
      <trkpt lat="37.00453" lon="28.28094">
        <ele>293.6</ele>
      </trkpt>
      <trkpt lat="37.00458" lon="28.28093">
        <ele>292.1</ele>
      </trkpt>
      <trkpt lat="37.00463" lon="28.28088">
        <ele>290.7</ele>
      </trkpt>
      <trkpt lat="37.00466" lon="28.28083">
        <ele>289.7</ele>
      </trkpt>
      <trkpt lat="37.00469" lon="28.28078">
        <ele>288.8</ele>
      </trkpt>
      <trkpt lat="37.00471" lon="28.28073">
        <ele>288.2</ele>
      </trkpt>
      <trkpt lat="37.00473" lon="28.28067">
        <ele>287.9</ele>
      </trkpt>
      <trkpt lat="37.00477" lon="28.28062">
        <ele>287</ele>
      </trkpt>
      <trkpt lat="37.00481" lon="28.28057">
        <ele>286.1</ele>
      </trkpt>
      <trkpt lat="37.00486" lon="28.28057">
        <ele>284.9</ele>
      </trkpt>
      <trkpt lat="37.00491" lon="28.28055">
        <ele>283.8</ele>
      </trkpt>
      <trkpt lat="37.00494" lon="28.2805">
        <ele>283.3</ele>
      </trkpt>
      <trkpt lat="37.00498" lon="28.28044">
        <ele>282.8</ele>
      </trkpt>
      <trkpt lat="37.00501" lon="28.28036">
        <ele>282.5</ele>
      </trkpt>
      <trkpt lat="37.00506" lon="28.28032">
        <ele>281</ele>
      </trkpt>
      <trkpt lat="37.00509" lon="28.28026">
        <ele>280</ele>
      </trkpt>
      <trkpt lat="37.00513" lon="28.2802">
        <ele>279.2</ele>
      </trkpt>
      <trkpt lat="37.00515" lon="28.28013">
        <ele>279</ele>
      </trkpt>
      <trkpt lat="37.00518" lon="28.28008">
        <ele>278.2</ele>
      </trkpt>
      <trkpt lat="37.00519" lon="28.27998">
        <ele>278.3</ele>
      </trkpt>
      <trkpt lat="37.00519" lon="28.2799">
        <ele>277.4</ele>
      </trkpt>
      <trkpt lat="37.00518" lon="28.27984">
        <ele>276.9</ele>
      </trkpt>
      <trkpt lat="37.00516" lon="28.27978">
        <ele>277</ele>
      </trkpt>
      <trkpt lat="37.00515" lon="28.27972">
        <ele>276.8</ele>
      </trkpt>
      <trkpt lat="37.00511" lon="28.27966">
        <ele>277.7</ele>
      </trkpt>
      <trkpt lat="37.00507" lon="28.27961">
        <ele>278.5</ele>
      </trkpt>
      <trkpt lat="37.00503" lon="28.27957">
        <ele>279.3</ele>
      </trkpt>
      <trkpt lat="37.00498" lon="28.27955">
        <ele>280.3</ele>
      </trkpt>
      <trkpt lat="37.00494" lon="28.27952">
        <ele>280.6</ele>
      </trkpt>
      <trkpt lat="37.00489" lon="28.27948">
        <ele>280.7</ele>
      </trkpt>
      <trkpt lat="37.00486" lon="28.27944">
        <ele>280.7</ele>
      </trkpt>
      <trkpt lat="37.00482" lon="28.27941">
        <ele>280.9</ele>
      </trkpt>
      <trkpt lat="37.00476" lon="28.27938">
        <ele>281.2</ele>
      </trkpt>
      <trkpt lat="37.00472" lon="28.27934">
        <ele>281.4</ele>
      </trkpt>
      <trkpt lat="37.00467" lon="28.27931">
        <ele>281.8</ele>
      </trkpt>
      <trkpt lat="37.00462" lon="28.27929">
        <ele>282.2</ele>
      </trkpt>
      <trkpt lat="37.00458" lon="28.27926">
        <ele>282.4</ele>
      </trkpt>
      <trkpt lat="37.00452" lon="28.27923">
        <ele>282.8</ele>
      </trkpt>
      <trkpt lat="37.00447" lon="28.27921">
        <ele>283.2</ele>
      </trkpt>
      <trkpt lat="37.00443" lon="28.27918">
        <ele>283.5</ele>
      </trkpt>
      <trkpt lat="37.00438" lon="28.27915">
        <ele>283.9</ele>
      </trkpt>
      <trkpt lat="37.00434" lon="28.27911">
        <ele>284.4</ele>
      </trkpt>
      <trkpt lat="37.00431" lon="28.27905">
        <ele>284.9</ele>
      </trkpt>
      <trkpt lat="37.00429" lon="28.27899">
        <ele>285.1</ele>
      </trkpt>
      <trkpt lat="37.0043" lon="28.27893">
        <ele>285</ele>
      </trkpt>
      <trkpt lat="37.0043" lon="28.27887">
        <ele>284.8</ele>
      </trkpt>
      <trkpt lat="37.00431" lon="28.27881">
        <ele>284.6</ele>
      </trkpt>
      <trkpt lat="37.00433" lon="28.27874">
        <ele>284.2</ele>
      </trkpt>
      <trkpt lat="37.00434" lon="28.27867">
        <ele>283.8</ele>
      </trkpt>
      <trkpt lat="37.00436" lon="28.2786">
        <ele>283.2</ele>
      </trkpt>
      <trkpt lat="37.00438" lon="28.27855">
        <ele>282.5</ele>
      </trkpt>
      <trkpt lat="37.00441" lon="28.27849">
        <ele>281.4</ele>
      </trkpt>
      <trkpt lat="37.00444" lon="28.27843">
        <ele>280.1</ele>
      </trkpt>
      <trkpt lat="37.00444" lon="28.27837">
        <ele>280</ele>
      </trkpt>
      <trkpt lat="37.00446" lon="28.27832">
        <ele>279.4</ele>
      </trkpt>
      <trkpt lat="37.00449" lon="28.27826">
        <ele>278.8</ele>
      </trkpt>
      <trkpt lat="37.00453" lon="28.27821">
        <ele>278.2</ele>
      </trkpt>
      <trkpt lat="37.00455" lon="28.27816">
        <ele>278.1</ele>
      </trkpt>
      <trkpt lat="37.00457" lon="28.2781">
        <ele>277.8</ele>
      </trkpt>
      <trkpt lat="37.0046" lon="28.27805">
        <ele>277.2</ele>
      </trkpt>
      <trkpt lat="37.00464" lon="28.27799">
        <ele>276.5</ele>
      </trkpt>
      <trkpt lat="37.00467" lon="28.27795">
        <ele>275.8</ele>
      </trkpt>
      <trkpt lat="37.00471" lon="28.27791">
        <ele>274.9</ele>
      </trkpt>
      <trkpt lat="37.00475" lon="28.27785">
        <ele>274.2</ele>
      </trkpt>
      <trkpt lat="37.00478" lon="28.27781">
        <ele>273.2</ele>
      </trkpt>
      <trkpt lat="37.00481" lon="28.27776">
        <ele>272.6</ele>
      </trkpt>
      <trkpt lat="37.00484" lon="28.27772">
        <ele>271.8</ele>
      </trkpt>
      <trkpt lat="37.00487" lon="28.27767">
        <ele>271.3</ele>
      </trkpt>
      <trkpt lat="37.00491" lon="28.27762">
        <ele>270.4</ele>
      </trkpt>
      <trkpt lat="37.00493" lon="28.27757">
        <ele>270.2</ele>
      </trkpt>
      <trkpt lat="37.00497" lon="28.27752">
        <ele>269</ele>
      </trkpt>
      <trkpt lat="37.005" lon="28.27747">
        <ele>268.2</ele>
      </trkpt>
      <trkpt lat="37.00502" lon="28.27741">
        <ele>268</ele>
      </trkpt>
      <trkpt lat="37.00506" lon="28.27738">
        <ele>266.9</ele>
      </trkpt>
      <trkpt lat="37.00508" lon="28.27732">
        <ele>266.9</ele>
      </trkpt>
      <trkpt lat="37.00511" lon="28.27727">
        <ele>266.2</ele>
      </trkpt>
      <trkpt lat="37.00514" lon="28.27722">
        <ele>265.6</ele>
      </trkpt>
      <trkpt lat="37.00516" lon="28.27717">
        <ele>265.3</ele>
      </trkpt>
      <trkpt lat="37.00518" lon="28.27711">
        <ele>265</ele>
      </trkpt>
      <trkpt lat="37.00522" lon="28.27707">
        <ele>264</ele>
      </trkpt>
      <trkpt lat="37.00525" lon="28.27701">
        <ele>263.3</ele>
      </trkpt>
      <trkpt lat="37.00527" lon="28.27695">
        <ele>263.2</ele>
      </trkpt>
      <trkpt lat="37.00531" lon="28.2769">
        <ele>262.3</ele>
      </trkpt>
      <trkpt lat="37.00535" lon="28.27685">
        <ele>261.5</ele>
      </trkpt>
      <trkpt lat="37.00536" lon="28.27678">
        <ele>262</ele>
      </trkpt>
      <trkpt lat="37.00539" lon="28.27673">
        <ele>261.2</ele>
      </trkpt>
      <trkpt lat="37.00541" lon="28.27668">
        <ele>261.1</ele>
      </trkpt>
      <trkpt lat="37.00542" lon="28.27662">
        <ele>260.8</ele>
      </trkpt>
      <trkpt lat="37.00543" lon="28.27656">
        <ele>260.2</ele>
      </trkpt>
      <trkpt lat="37.00543" lon="28.27647">
        <ele>260.1</ele>
      </trkpt>
      <trkpt lat="37.00544" lon="28.27641">
        <ele>259.6</ele>
      </trkpt>
      <trkpt lat="37.00544" lon="28.27633">
        <ele>259.1</ele>
      </trkpt>
      <trkpt lat="37.00545" lon="28.27626">
        <ele>258.8</ele>
      </trkpt>
      <trkpt lat="37.00543" lon="28.27619">
        <ele>259.2</ele>
      </trkpt>
      <trkpt lat="37.00542" lon="28.27613">
        <ele>259.2</ele>
      </trkpt>
      <trkpt lat="37.00542" lon="28.27606">
        <ele>259.1</ele>
      </trkpt>
      <trkpt lat="37.00541" lon="28.27601">
        <ele>259.4</ele>
      </trkpt>
      <trkpt lat="37.00539" lon="28.27596">
        <ele>259.7</ele>
      </trkpt>
      <trkpt lat="37.00537" lon="28.2759">
        <ele>260.3</ele>
      </trkpt>
      <trkpt lat="37.00534" lon="28.27584">
        <ele>260.9</ele>
      </trkpt>
      <trkpt lat="37.00531" lon="28.27578">
        <ele>260.9</ele>
      </trkpt>
      <trkpt lat="37.00529" lon="28.27573">
        <ele>260.7</ele>
      </trkpt>
      <trkpt lat="37.00527" lon="28.27568">
        <ele>260.3</ele>
      </trkpt>
      <trkpt lat="37.00525" lon="28.27562">
        <ele>259.9</ele>
      </trkpt>
      <trkpt lat="37.00521" lon="28.27557">
        <ele>260.1</ele>
      </trkpt>
      <trkpt lat="37.00518" lon="28.27552">
        <ele>260.2</ele>
      </trkpt>
      <trkpt lat="37.00516" lon="28.27547">
        <ele>259.9</ele>
      </trkpt>
      <trkpt lat="37.00513" lon="28.27542">
        <ele>259.8</ele>
      </trkpt>
      <trkpt lat="37.0051" lon="28.27538">
        <ele>259.8</ele>
      </trkpt>
      <trkpt lat="37.00507" lon="28.27533">
        <ele>259.7</ele>
      </trkpt>
      <trkpt lat="37.00503" lon="28.27528">
        <ele>259.9</ele>
      </trkpt>
      <trkpt lat="37.005" lon="28.27522">
        <ele>259.6</ele>
      </trkpt>
      <trkpt lat="37.00497" lon="28.27517">
        <ele>259.4</ele>
      </trkpt>
      <trkpt lat="37.00495" lon="28.27513">
        <ele>259.3</ele>
      </trkpt>
      <trkpt lat="37.00491" lon="28.27506">
        <ele>259.3</ele>
      </trkpt>
      <trkpt lat="37.00489" lon="28.27501">
        <ele>259</ele>
      </trkpt>
      <trkpt lat="37.00486" lon="28.27496">
        <ele>259</ele>
      </trkpt>
      <trkpt lat="37.00483" lon="28.27489">
        <ele>258.9</ele>
      </trkpt>
      <trkpt lat="37.00481" lon="28.27483">
        <ele>258.5</ele>
      </trkpt>
      <trkpt lat="37.0048" lon="28.27477">
        <ele>257.9</ele>
      </trkpt>
      <trkpt lat="37.00479" lon="28.27471">
        <ele>257.6</ele>
      </trkpt>
      <trkpt lat="37.00477" lon="28.27464">
        <ele>257.2</ele>
      </trkpt>
      <trkpt lat="37.00475" lon="28.27458">
        <ele>256.8</ele>
      </trkpt>
      <trkpt lat="37.00473" lon="28.27451">
        <ele>256.4</ele>
      </trkpt>
      <trkpt lat="37.00472" lon="28.27446">
        <ele>256.1</ele>
      </trkpt>
      <trkpt lat="37.0047" lon="28.27438">
        <ele>255.5</ele>
      </trkpt>
      <trkpt lat="37.0047" lon="28.27432">
        <ele>254.7</ele>
      </trkpt>
      <trkpt lat="37.00469" lon="28.27426">
        <ele>253.8</ele>
      </trkpt>
      <trkpt lat="37.0047" lon="28.2742">
        <ele>252.8</ele>
      </trkpt>
      <trkpt lat="37.0047" lon="28.27414">
        <ele>252.2</ele>
      </trkpt>
      <trkpt lat="37.00469" lon="28.27408">
        <ele>252.1</ele>
      </trkpt>
      <trkpt lat="37.0047" lon="28.27401">
        <ele>251.7</ele>
      </trkpt>
      <trkpt lat="37.00471" lon="28.27394">
        <ele>251</ele>
      </trkpt>
      <trkpt lat="37.00473" lon="28.27388">
        <ele>250</ele>
      </trkpt>
      <trkpt lat="37.00474" lon="28.2738">
        <ele>249.3</ele>
      </trkpt>
      <trkpt lat="37.00475" lon="28.27373">
        <ele>248.6</ele>
      </trkpt>
      <trkpt lat="37.00476" lon="28.27367">
        <ele>248</ele>
      </trkpt>
      <trkpt lat="37.00477" lon="28.27361">
        <ele>247.3</ele>
      </trkpt>
      <trkpt lat="37.00477" lon="28.27355">
        <ele>247</ele>
      </trkpt>
      <trkpt lat="37.00478" lon="28.27349">
        <ele>246.5</ele>
      </trkpt>
      <trkpt lat="37.0048" lon="28.27343">
        <ele>245.6</ele>
      </trkpt>
      <trkpt lat="37.00482" lon="28.27336">
        <ele>244.6</ele>
      </trkpt>
      <trkpt lat="37.00482" lon="28.2733">
        <ele>244.5</ele>
      </trkpt>
      <trkpt lat="37.00482" lon="28.27322">
        <ele>244.8</ele>
      </trkpt>
      <trkpt lat="37.00484" lon="28.27317">
        <ele>244.3</ele>
      </trkpt>
      <trkpt lat="37.00486" lon="28.2731">
        <ele>243.7</ele>
      </trkpt>
      <trkpt lat="37.00489" lon="28.27305">
        <ele>242.7</ele>
      </trkpt>
      <trkpt lat="37.00491" lon="28.27299">
        <ele>242.3</ele>
      </trkpt>
      <trkpt lat="37.00492" lon="28.27292">
        <ele>242</ele>
      </trkpt>
      <trkpt lat="37.00493" lon="28.27287">
        <ele>241.9</ele>
      </trkpt>
      <trkpt lat="37.00495" lon="28.2728">
        <ele>241.5</ele>
      </trkpt>
      <trkpt lat="37.00497" lon="28.27273">
        <ele>240.9</ele>
      </trkpt>
      <trkpt lat="37.00497" lon="28.27267">
        <ele>241.3</ele>
      </trkpt>
      <trkpt lat="37.00498" lon="28.2726">
        <ele>241.4</ele>
      </trkpt>
      <trkpt lat="37.00499" lon="28.27254">
        <ele>241.4</ele>
      </trkpt>
      <trkpt lat="37.00501" lon="28.27249">
        <ele>240.3</ele>
      </trkpt>
      <trkpt lat="37.00504" lon="28.27243">
        <ele>239.2</ele>
      </trkpt>
      <trkpt lat="37.00506" lon="28.27237">
        <ele>238</ele>
      </trkpt>
      <trkpt lat="37.0051" lon="28.27233">
        <ele>236.2</ele>
      </trkpt>
      <trkpt lat="37.00511" lon="28.27226">
        <ele>235.6</ele>
      </trkpt>
      <trkpt lat="37.00512" lon="28.27219">
        <ele>235.3</ele>
      </trkpt>
      <trkpt lat="37.00512" lon="28.27212">
        <ele>235.4</ele>
      </trkpt>
      <trkpt lat="37.00512" lon="28.27205">
        <ele>235.5</ele>
      </trkpt>
      <trkpt lat="37.00514" lon="28.27198">
        <ele>234.4</ele>
      </trkpt>
      <trkpt lat="37.00517" lon="28.27193">
        <ele>233.4</ele>
      </trkpt>
      <trkpt lat="37.00517" lon="28.27185">
        <ele>233.4</ele>
      </trkpt>
      <trkpt lat="37.00518" lon="28.27179">
        <ele>232.8</ele>
      </trkpt>
      <trkpt lat="37.0052" lon="28.27173">
        <ele>232.3</ele>
      </trkpt>
      <trkpt lat="37.00523" lon="28.27169">
        <ele>231.1</ele>
      </trkpt>
      <trkpt lat="37.00524" lon="28.27163">
        <ele>230.9</ele>
      </trkpt>
      <trkpt lat="37.00525" lon="28.27155">
        <ele>230.5</ele>
      </trkpt>
      <trkpt lat="37.00525" lon="28.2715">
        <ele>230.4</ele>
      </trkpt>
      <trkpt lat="37.00525" lon="28.27143">
        <ele>230.5</ele>
      </trkpt>
      <trkpt lat="37.00526" lon="28.27138">
        <ele>230.2</ele>
      </trkpt>
      <trkpt lat="37.00528" lon="28.27131">
        <ele>229.5</ele>
      </trkpt>
      <trkpt lat="37.0053" lon="28.27124">
        <ele>229.2</ele>
      </trkpt>
      <trkpt lat="37.00531" lon="28.27118">
        <ele>228.7</ele>
      </trkpt>
      <trkpt lat="37.00533" lon="28.27113">
        <ele>228.2</ele>
      </trkpt>
      <trkpt lat="37.00535" lon="28.27107">
        <ele>227.4</ele>
      </trkpt>
      <trkpt lat="37.00537" lon="28.271">
        <ele>227</ele>
      </trkpt>
      <trkpt lat="37.0054" lon="28.27096">
        <ele>225.9</ele>
      </trkpt>
      <trkpt lat="37.00541" lon="28.27089">
        <ele>225.5</ele>
      </trkpt>
      <trkpt lat="37.00542" lon="28.27082">
        <ele>225.4</ele>
      </trkpt>
      <trkpt lat="37.00543" lon="28.27076">
        <ele>224.9</ele>
      </trkpt>
      <trkpt lat="37.00545" lon="28.2707">
        <ele>224.4</ele>
      </trkpt>
      <trkpt lat="37.00545" lon="28.27064">
        <ele>224.2</ele>
      </trkpt>
      <trkpt lat="37.00545" lon="28.27057">
        <ele>224.1</ele>
      </trkpt>
      <trkpt lat="37.00546" lon="28.2705">
        <ele>223.8</ele>
      </trkpt>
      <trkpt lat="37.00547" lon="28.27045">
        <ele>223.5</ele>
      </trkpt>
      <trkpt lat="37.00548" lon="28.27039">
        <ele>223.3</ele>
      </trkpt>
      <trkpt lat="37.0055" lon="28.27033">
        <ele>222.7</ele>
      </trkpt>
      <trkpt lat="37.0055" lon="28.27027">
        <ele>222.7</ele>
      </trkpt>
      <trkpt lat="37.00551" lon="28.2702">
        <ele>222.3</ele>
      </trkpt>
      <trkpt lat="37.00552" lon="28.27014">
        <ele>222.2</ele>
      </trkpt>
      <trkpt lat="37.00552" lon="28.27007">
        <ele>222</ele>
      </trkpt>
      <trkpt lat="37.00553" lon="28.27002">
        <ele>221.6</ele>
      </trkpt>
      <trkpt lat="37.00554" lon="28.26995">
        <ele>221.1</ele>
      </trkpt>
      <trkpt lat="37.00555" lon="28.26989">
        <ele>220.3</ele>
      </trkpt>
      <trkpt lat="37.00554" lon="28.26982">
        <ele>220.2</ele>
      </trkpt>
      <trkpt lat="37.00555" lon="28.26976">
        <ele>219.5</ele>
      </trkpt>
      <trkpt lat="37.00554" lon="28.2697">
        <ele>219.4</ele>
      </trkpt>
      <trkpt lat="37.00554" lon="28.26963">
        <ele>219</ele>
      </trkpt>
      <trkpt lat="37.00553" lon="28.26957">
        <ele>218.9</ele>
      </trkpt>
      <trkpt lat="37.00551" lon="28.26952">
        <ele>218.9</ele>
      </trkpt>
      <trkpt lat="37.00549" lon="28.26946">
        <ele>219.1</ele>
      </trkpt>
      <trkpt lat="37.00546" lon="28.26939">
        <ele>219.3</ele>
      </trkpt>
      <trkpt lat="37.00545" lon="28.26933">
        <ele>218.9</ele>
      </trkpt>
      <trkpt lat="37.00543" lon="28.26927">
        <ele>218.9</ele>
      </trkpt>
      <trkpt lat="37.00541" lon="28.26921">
        <ele>219.1</ele>
      </trkpt>
      <trkpt lat="37.00539" lon="28.26914">
        <ele>218.8</ele>
      </trkpt>
      <trkpt lat="37.00537" lon="28.26907">
        <ele>218.3</ele>
      </trkpt>
      <trkpt lat="37.00535" lon="28.26902">
        <ele>218.1</ele>
      </trkpt>
      <trkpt lat="37.00534" lon="28.26895">
        <ele>217.5</ele>
      </trkpt>
      <trkpt lat="37.00532" lon="28.26889">
        <ele>217.3</ele>
      </trkpt>
      <trkpt lat="37.00531" lon="28.26884">
        <ele>216.8</ele>
      </trkpt>
      <trkpt lat="37.0053" lon="28.26877">
        <ele>216.2</ele>
      </trkpt>
      <trkpt lat="37.00527" lon="28.26871">
        <ele>216</ele>
      </trkpt>
      <trkpt lat="37.00524" lon="28.26865">
        <ele>215.9</ele>
      </trkpt>
      <trkpt lat="37.00523" lon="28.26859">
        <ele>215.4</ele>
      </trkpt>
      <trkpt lat="37.00522" lon="28.26853">
        <ele>214.8</ele>
      </trkpt>
      <trkpt lat="37.00521" lon="28.26847">
        <ele>214.2</ele>
      </trkpt>
      <trkpt lat="37.00518" lon="28.2684">
        <ele>214</ele>
      </trkpt>
      <trkpt lat="37.00516" lon="28.26833">
        <ele>213.5</ele>
      </trkpt>
      <trkpt lat="37.00509" lon="28.26826">
        <ele>214.1</ele>
      </trkpt>
      <trkpt lat="37.0051" lon="28.2682">
        <ele>213.1</ele>
      </trkpt>
      <trkpt lat="37.00507" lon="28.26814">
        <ele>213</ele>
      </trkpt>
      <trkpt lat="37.00505" lon="28.26808">
        <ele>212.4</ele>
      </trkpt>
      <trkpt lat="37.00503" lon="28.26803">
        <ele>212.2</ele>
      </trkpt>
      <trkpt lat="37.005" lon="28.26799">
        <ele>212.4</ele>
      </trkpt>
      <trkpt lat="37.00496" lon="28.26795">
        <ele>212.9</ele>
      </trkpt>
      <trkpt lat="37.00493" lon="28.26789">
        <ele>212.6</ele>
      </trkpt>
      <trkpt lat="37.0049" lon="28.26782">
        <ele>212.4</ele>
      </trkpt>
      <trkpt lat="37.00486" lon="28.26776">
        <ele>212.6</ele>
      </trkpt>
      <trkpt lat="37.00486" lon="28.26769">
        <ele>211.7</ele>
      </trkpt>
      <trkpt lat="37.00484" lon="28.26761">
        <ele>211</ele>
      </trkpt>
      <trkpt lat="37.00485" lon="28.26755">
        <ele>210.1</ele>
      </trkpt>
      <trkpt lat="37.00484" lon="28.26748">
        <ele>209.4</ele>
      </trkpt>
      <trkpt lat="37.00485" lon="28.26742">
        <ele>208.1</ele>
      </trkpt>
      <trkpt lat="37.00487" lon="28.26737">
        <ele>206.9</ele>
      </trkpt>
      <trkpt lat="37.00486" lon="28.26731">
        <ele>206</ele>
      </trkpt>
      <trkpt lat="37.00483" lon="28.26726">
        <ele>205.9</ele>
      </trkpt>
      <trkpt lat="37.00481" lon="28.26719">
        <ele>205.1</ele>
      </trkpt>
      <trkpt lat="37.0048" lon="28.26712">
        <ele>204.1</ele>
      </trkpt>
      <trkpt lat="37.0048" lon="28.26704">
        <ele>202.9</ele>
      </trkpt>
      <trkpt lat="37.00477" lon="28.26698">
        <ele>202.4</ele>
      </trkpt>
      <trkpt lat="37.00474" lon="28.26694">
        <ele>202.1</ele>
      </trkpt>
      <trkpt lat="37.00471" lon="28.26688">
        <ele>201.6</ele>
      </trkpt>
      <trkpt lat="37.00468" lon="28.2668">
        <ele>200.7</ele>
      </trkpt>
      <trkpt lat="37.00463" lon="28.26676">
        <ele>200.7</ele>
      </trkpt>
      <trkpt lat="37.00459" lon="28.2667">
        <ele>200.1</ele>
      </trkpt>
      <trkpt lat="37.00456" lon="28.26665">
        <ele>199.5</ele>
      </trkpt>
      <trkpt lat="37.00452" lon="28.26659">
        <ele>198.7</ele>
      </trkpt>
      <trkpt lat="37.00448" lon="28.26653">
        <ele>198</ele>
      </trkpt>
      <trkpt lat="37.00443" lon="28.2665">
        <ele>197.9</ele>
      </trkpt>
      <trkpt lat="37.00438" lon="28.26645">
        <ele>197.4</ele>
      </trkpt>
      <trkpt lat="37.0043" lon="28.2664">
        <ele>197.1</ele>
      </trkpt>
      <trkpt lat="37.00425" lon="28.26638">
        <ele>197.2</ele>
      </trkpt>
      <trkpt lat="37.0042" lon="28.26635">
        <ele>197.2</ele>
      </trkpt>
      <trkpt lat="37.00414" lon="28.26635">
        <ele>197.3</ele>
      </trkpt>
      <trkpt lat="37.0041" lon="28.26637">
        <ele>197.7</ele>
      </trkpt>
      <trkpt lat="37.00405" lon="28.2664">
        <ele>198.2</ele>
      </trkpt>
      <trkpt lat="37.00401" lon="28.26641">
        <ele>198.4</ele>
      </trkpt>
      <trkpt lat="37.00396" lon="28.26642">
        <ele>198.4</ele>
      </trkpt>
      <trkpt lat="37.00391" lon="28.2664">
        <ele>197.9</ele>
      </trkpt>
      <trkpt lat="37.00387" lon="28.2664">
        <ele>197.8</ele>
      </trkpt>
      <trkpt lat="37.00382" lon="28.2664">
        <ele>197.6</ele>
      </trkpt>
      <trkpt lat="37.00378" lon="28.26644">
        <ele>198.3</ele>
      </trkpt>
      <trkpt lat="37.00372" lon="28.2664">
        <ele>197.3</ele>
      </trkpt>
      <trkpt lat="37.00366" lon="28.26637">
        <ele>196.5</ele>
      </trkpt>
      <trkpt lat="37.0036" lon="28.26632">
        <ele>195.2</ele>
      </trkpt>
      <trkpt lat="37.00357" lon="28.26628">
        <ele>194.2</ele>
      </trkpt>
      <trkpt lat="37.00352" lon="28.26624">
        <ele>193.3</ele>
      </trkpt>
      <trkpt lat="37.00348" lon="28.26621">
        <ele>192.4</ele>
      </trkpt>
      <trkpt lat="37.00345" lon="28.26616">
        <ele>191.3</ele>
      </trkpt>
      <trkpt lat="37.0034" lon="28.26618">
        <ele>191.7</ele>
      </trkpt>
      <trkpt lat="37.00338" lon="28.26613">
        <ele>190.4</ele>
      </trkpt>
      <trkpt lat="37.00334" lon="28.26609">
        <ele>189.5</ele>
      </trkpt>
      <trkpt lat="37.00331" lon="28.26605">
        <ele>188.9</ele>
      </trkpt>
      <trkpt lat="37.00327" lon="28.266">
        <ele>188.3</ele>
      </trkpt>
      <trkpt lat="37.00324" lon="28.26594">
        <ele>187.4</ele>
      </trkpt>
      <trkpt lat="37.0032" lon="28.2659">
        <ele>187.2</ele>
      </trkpt>
      <trkpt lat="37.00317" lon="28.26585">
        <ele>186.5</ele>
      </trkpt>
      <trkpt lat="37.00313" lon="28.26581">
        <ele>186.3</ele>
      </trkpt>
      <trkpt lat="37.00311" lon="28.26575">
        <ele>185.9</ele>
      </trkpt>
      <trkpt lat="37.00309" lon="28.26566">
        <ele>185</ele>
      </trkpt>
      <trkpt lat="37.00308" lon="28.26561">
        <ele>184.3</ele>
      </trkpt>
      <trkpt lat="37.00307" lon="28.26555">
        <ele>183.7</ele>
      </trkpt>
      <trkpt lat="37.00305" lon="28.26547">
        <ele>183</ele>
      </trkpt>
      <trkpt lat="37.00306" lon="28.26541">
        <ele>182</ele>
      </trkpt>
      <trkpt lat="37.00307" lon="28.26534">
        <ele>181</ele>
      </trkpt>
      <trkpt lat="37.00304" lon="28.26529">
        <ele>180.7</ele>
      </trkpt>
      <trkpt lat="37.00305" lon="28.26523">
        <ele>179.8</ele>
      </trkpt>
      <trkpt lat="37.00304" lon="28.26516">
        <ele>179</ele>
      </trkpt>
      <trkpt lat="37.00301" lon="28.26509">
        <ele>178.7</ele>
      </trkpt>
      <trkpt lat="37.00299" lon="28.26504">
        <ele>178.3</ele>
      </trkpt>
      <trkpt lat="37.00296" lon="28.265">
        <ele>178.2</ele>
      </trkpt>
      <trkpt lat="37.00297" lon="28.26493">
        <ele>177</ele>
      </trkpt>
      <trkpt lat="37.00294" lon="28.26488">
        <ele>176.7</ele>
      </trkpt>
      <trkpt lat="37.00292" lon="28.26483">
        <ele>176.2</ele>
      </trkpt>
      <trkpt lat="37.0029" lon="28.26477">
        <ele>175.7</ele>
      </trkpt>
      <trkpt lat="37.00288" lon="28.2647">
        <ele>175</ele>
      </trkpt>
      <trkpt lat="37.00285" lon="28.26464">
        <ele>174.4</ele>
      </trkpt>
      <trkpt lat="37.00282" lon="28.26459">
        <ele>174.2</ele>
      </trkpt>
      <trkpt lat="37.0028" lon="28.26454">
        <ele>173.7</ele>
      </trkpt>
      <trkpt lat="37.00279" lon="28.26447">
        <ele>173</ele>
      </trkpt>
      <trkpt lat="37.00277" lon="28.26442">
        <ele>172.5</ele>
      </trkpt>
      <trkpt lat="37.00274" lon="28.26437">
        <ele>172.2</ele>
      </trkpt>
      <trkpt lat="37.00271" lon="28.26432">
        <ele>171.9</ele>
      </trkpt>
      <trkpt lat="37.00268" lon="28.26426">
        <ele>171.4</ele>
      </trkpt>
      <trkpt lat="37.00265" lon="28.2642">
        <ele>171.1</ele>
      </trkpt>
      <trkpt lat="37.00261" lon="28.26417">
        <ele>171.3</ele>
      </trkpt>
      <trkpt lat="37.00258" lon="28.26412">
        <ele>170.8</ele>
      </trkpt>
      <trkpt lat="37.00256" lon="28.26407">
        <ele>170</ele>
      </trkpt>
      <trkpt lat="37.00252" lon="28.26404">
        <ele>170.2</ele>
      </trkpt>
      <trkpt lat="37.00248" lon="28.26399">
        <ele>169.8</ele>
      </trkpt>
      <trkpt lat="37.00243" lon="28.26396">
        <ele>170</ele>
      </trkpt>
      <trkpt lat="37.00239" lon="28.26392">
        <ele>169.7</ele>
      </trkpt>
      <trkpt lat="37.00234" lon="28.26388">
        <ele>169.7</ele>
      </trkpt>
      <trkpt lat="37.0023" lon="28.26384">
        <ele>169.8</ele>
      </trkpt>
      <trkpt lat="37.00227" lon="28.26379">
        <ele>169.5</ele>
      </trkpt>
      <trkpt lat="37.00229" lon="28.26373">
        <ele>168.2</ele>
      </trkpt>
      <trkpt lat="37.00232" lon="28.26369">
        <ele>166.7</ele>
      </trkpt>
      <trkpt lat="37.00231" lon="28.26361">
        <ele>165.5</ele>
      </trkpt>
      <trkpt lat="37.00231" lon="28.26354">
        <ele>164.3</ele>
      </trkpt>
      <trkpt lat="37.0023" lon="28.26347">
        <ele>163.3</ele>
      </trkpt>
      <trkpt lat="37.00228" lon="28.26341">
        <ele>162.7</ele>
      </trkpt>
      <trkpt lat="37.00226" lon="28.26335">
        <ele>162.1</ele>
      </trkpt>
      <trkpt lat="37.00224" lon="28.26328">
        <ele>161.4</ele>
      </trkpt>
      <trkpt lat="37.00223" lon="28.26322">
        <ele>160.6</ele>
      </trkpt>
      <trkpt lat="37.0022" lon="28.26318">
        <ele>160.7</ele>
      </trkpt>
      <trkpt lat="37.00219" lon="28.26311">
        <ele>160</ele>
      </trkpt>
      <trkpt lat="37.00216" lon="28.26303">
        <ele>159.7</ele>
      </trkpt>
      <trkpt lat="37.00214" lon="28.26298">
        <ele>159.2</ele>
      </trkpt>
      <trkpt lat="37.00212" lon="28.26293">
        <ele>158.9</ele>
      </trkpt>
      <trkpt lat="37.00211" lon="28.26286">
        <ele>158.3</ele>
      </trkpt>
      <trkpt lat="37.0021" lon="28.26281">
        <ele>157.5</ele>
      </trkpt>
      <trkpt lat="37.00208" lon="28.26274">
        <ele>157.2</ele>
      </trkpt>
      <trkpt lat="37.00206" lon="28.26268">
        <ele>156.8</ele>
      </trkpt>
      <trkpt lat="37.00205" lon="28.26261">
        <ele>156.2</ele>
      </trkpt>
      <trkpt lat="37.00203" lon="28.26256">
        <ele>155.9</ele>
      </trkpt>
      <trkpt lat="37.00204" lon="28.2625">
        <ele>154.8</ele>
      </trkpt>
      <trkpt lat="37.00203" lon="28.26244">
        <ele>154.1</ele>
      </trkpt>
      <trkpt lat="37.00202" lon="28.26237">
        <ele>153.3</ele>
      </trkpt>
      <trkpt lat="37.002" lon="28.2623">
        <ele>152.7</ele>
      </trkpt>
      <trkpt lat="37.00201" lon="28.26223">
        <ele>151.6</ele>
      </trkpt>
      <trkpt lat="37.002" lon="28.26216">
        <ele>150.8</ele>
      </trkpt>
      <trkpt lat="37.002" lon="28.26209">
        <ele>149.8</ele>
      </trkpt>
      <trkpt lat="37.002" lon="28.26202">
        <ele>148.8</ele>
      </trkpt>
      <trkpt lat="37.00197" lon="28.26195">
        <ele>148.4</ele>
      </trkpt>
      <trkpt lat="37.00196" lon="28.26189">
        <ele>147.8</ele>
      </trkpt>
      <trkpt lat="37.00194" lon="28.26182">
        <ele>147.4</ele>
      </trkpt>
      <trkpt lat="37.00192" lon="28.26176">
        <ele>147.1</ele>
      </trkpt>
      <trkpt lat="37.0019" lon="28.26171">
        <ele>146.9</ele>
      </trkpt>
      <trkpt lat="37.00189" lon="28.26165">
        <ele>146</ele>
      </trkpt>
      <trkpt lat="37.00187" lon="28.26159">
        <ele>145.5</ele>
      </trkpt>
      <trkpt lat="37.00185" lon="28.26153">
        <ele>144.9</ele>
      </trkpt>
      <trkpt lat="37.00183" lon="28.26147">
        <ele>144.4</ele>
      </trkpt>
      <trkpt lat="37.00179" lon="28.26142">
        <ele>144.4</ele>
      </trkpt>
      <trkpt lat="37.00176" lon="28.26137">
        <ele>144.3</ele>
      </trkpt>
      <trkpt lat="37.00173" lon="28.26133">
        <ele>144.1</ele>
      </trkpt>
      <trkpt lat="37.00169" lon="28.26128">
        <ele>144.1</ele>
      </trkpt>
      <trkpt lat="37.00166" lon="28.26124">
        <ele>143.8</ele>
      </trkpt>
      <trkpt lat="37.00163" lon="28.26119">
        <ele>143.5</ele>
      </trkpt>
      <trkpt lat="37.00159" lon="28.26114">
        <ele>143</ele>
      </trkpt>
      <trkpt lat="37.00157" lon="28.26109">
        <ele>142.4</ele>
      </trkpt>
      <trkpt lat="37.00154" lon="28.26104">
        <ele>141.8</ele>
      </trkpt>
      <trkpt lat="37.00151" lon="28.26099">
        <ele>141.3</ele>
      </trkpt>
      <trkpt lat="37.00146" lon="28.26095">
        <ele>141.2</ele>
      </trkpt>
      <trkpt lat="37.00143" lon="28.2609">
        <ele>140.7</ele>
      </trkpt>
      <trkpt lat="37.00141" lon="28.26084">
        <ele>139.9</ele>
      </trkpt>
      <trkpt lat="37.00137" lon="28.26078">
        <ele>139.3</ele>
      </trkpt>
      <trkpt lat="37.00135" lon="28.26074">
        <ele>138.8</ele>
      </trkpt>
      <trkpt lat="37.00131" lon="28.26071">
        <ele>138.8</ele>
      </trkpt>
      <trkpt lat="37.00128" lon="28.26065">
        <ele>138.1</ele>
      </trkpt>
      <trkpt lat="37.00125" lon="28.2606">
        <ele>137.5</ele>
      </trkpt>
      <trkpt lat="37.00122" lon="28.26056">
        <ele>137.2</ele>
      </trkpt>
      <trkpt lat="37.00118" lon="28.26052">
        <ele>136.8</ele>
      </trkpt>
      <trkpt lat="37.00115" lon="28.26048">
        <ele>136.7</ele>
      </trkpt>
      <trkpt lat="37.00112" lon="28.26044">
        <ele>136.1</ele>
      </trkpt>
      <trkpt lat="37.00107" lon="28.26037">
        <ele>135.4</ele>
      </trkpt>
      <trkpt lat="37.00104" lon="28.26032">
        <ele>134.9</ele>
      </trkpt>
      <trkpt lat="37.001" lon="28.26027">
        <ele>134.4</ele>
      </trkpt>
      <trkpt lat="37.00096" lon="28.26023">
        <ele>134.1</ele>
      </trkpt>
      <trkpt lat="37.00092" lon="28.26018">
        <ele>133.6</ele>
      </trkpt>
      <trkpt lat="37.00088" lon="28.26014">
        <ele>133.3</ele>
      </trkpt>
      <trkpt lat="37.00084" lon="28.26011">
        <ele>133.1</ele>
      </trkpt>
      <trkpt lat="37.00079" lon="28.26009">
        <ele>133.2</ele>
      </trkpt>
      <trkpt lat="37.00075" lon="28.26005">
        <ele>133</ele>
      </trkpt>
      <trkpt lat="37.00071" lon="28.26002">
        <ele>132.6</ele>
      </trkpt>
      <trkpt lat="37.00065" lon="28.25997">
        <ele>132.2</ele>
      </trkpt>
      <trkpt lat="37.00061" lon="28.25991">
        <ele>131.6</ele>
      </trkpt>
      <trkpt lat="37.0006" lon="28.25986">
        <ele>130.8</ele>
      </trkpt>
      <trkpt lat="37.00056" lon="28.2598">
        <ele>130.1</ele>
      </trkpt>
      <trkpt lat="37.00054" lon="28.25976">
        <ele>129.6</ele>
      </trkpt>
      <trkpt lat="37.0005" lon="28.25972">
        <ele>129.2</ele>
      </trkpt>
      <trkpt lat="37.00047" lon="28.25965">
        <ele>128.3</ele>
      </trkpt>
      <trkpt lat="37.00047" lon="28.25959">
        <ele>127.1</ele>
      </trkpt>
      <trkpt lat="37.00045" lon="28.25952">
        <ele>126.2</ele>
      </trkpt>
      <trkpt lat="37.00043" lon="28.25947">
        <ele>125.3</ele>
      </trkpt>
      <trkpt lat="37.0004" lon="28.25943">
        <ele>124.9</ele>
      </trkpt>
      <trkpt lat="37.00036" lon="28.25936">
        <ele>123.9</ele>
      </trkpt>
      <trkpt lat="37.00034" lon="28.25931">
        <ele>123.1</ele>
      </trkpt>
      <trkpt lat="37.00031" lon="28.25925">
        <ele>122.4</ele>
      </trkpt>
      <trkpt lat="37.00027" lon="28.25921">
        <ele>121.8</ele>
      </trkpt>
      <trkpt lat="37.00023" lon="28.25916">
        <ele>121.2</ele>
      </trkpt>
      <trkpt lat="37.0002" lon="28.25912">
        <ele>120.9</ele>
      </trkpt>
      <trkpt lat="37.00017" lon="28.25907">
        <ele>120.5</ele>
      </trkpt>
      <trkpt lat="37.00013" lon="28.25903">
        <ele>120.2</ele>
      </trkpt>
      <trkpt lat="37.0001" lon="28.25898">
        <ele>119.8</ele>
      </trkpt>
      <trkpt lat="37.00007" lon="28.25895">
        <ele>119.5</ele>
      </trkpt>
      <trkpt lat="37.00003" lon="28.25889">
        <ele>119.1</ele>
      </trkpt>
      <trkpt lat="36.99999" lon="28.25886">
        <ele>119</ele>
      </trkpt>
      <trkpt lat="36.99995" lon="28.25882">
        <ele>118.8</ele>
      </trkpt>
      <trkpt lat="36.99991" lon="28.25878">
        <ele>118.6</ele>
      </trkpt>
      <trkpt lat="36.99988" lon="28.25872">
        <ele>118</ele>
      </trkpt>
      <trkpt lat="36.99985" lon="28.25866">
        <ele>117.4</ele>
      </trkpt>
      <trkpt lat="36.99987" lon="28.25859">
        <ele>116.3</ele>
      </trkpt>
      <trkpt lat="36.99991" lon="28.25854">
        <ele>115.4</ele>
      </trkpt>
      <trkpt lat="36.99994" lon="28.25849">
        <ele>114.5</ele>
      </trkpt>
      <trkpt lat="36.99998" lon="28.25847">
        <ele>113.9</ele>
      </trkpt>
      <trkpt lat="37.00002" lon="28.25843">
        <ele>113.1</ele>
      </trkpt>
      <trkpt lat="37.00009" lon="28.25841">
        <ele>112</ele>
      </trkpt>
      <trkpt lat="37.00014" lon="28.25839">
        <ele>111.2</ele>
      </trkpt>
      <trkpt lat="37.00019" lon="28.25838">
        <ele>110.5</ele>
      </trkpt>
      <trkpt lat="37.00025" lon="28.25836">
        <ele>109.8</ele>
      </trkpt>
      <trkpt lat="37.00029" lon="28.25836">
        <ele>109.2</ele>
      </trkpt>
      <trkpt lat="37.00034" lon="28.25835">
        <ele>108.6</ele>
      </trkpt>
      <trkpt lat="37.00038" lon="28.25835">
        <ele>108.2</ele>
      </trkpt>
      <trkpt lat="37.00043" lon="28.25837">
        <ele>107.8</ele>
      </trkpt>
      <trkpt lat="37.00048" lon="28.25838">
        <ele>107.4</ele>
      </trkpt>
      <trkpt lat="37.00054" lon="28.25838">
        <ele>107</ele>
      </trkpt>
      <trkpt lat="37.00059" lon="28.25839">
        <ele>106.5</ele>
      </trkpt>
      <trkpt lat="37.00064" lon="28.25839">
        <ele>106.1</ele>
      </trkpt>
      <trkpt lat="37.00069" lon="28.2584">
        <ele>105.6</ele>
      </trkpt>
      <trkpt lat="37.00074" lon="28.2584">
        <ele>105.1</ele>
      </trkpt>
      <trkpt lat="37.00079" lon="28.2584">
        <ele>104.5</ele>
      </trkpt>
      <trkpt lat="37.00086" lon="28.2584">
        <ele>103.7</ele>
      </trkpt>
      <trkpt lat="37.00091" lon="28.25839">
        <ele>102.9</ele>
      </trkpt>
      <trkpt lat="37.00097" lon="28.25837">
        <ele>101.8</ele>
      </trkpt>
      <trkpt lat="37.00101" lon="28.25836">
        <ele>100.9</ele>
      </trkpt>
      <trkpt lat="37.001" lon="28.25829">
        <ele>100.1</ele>
      </trkpt>
      <trkpt lat="37.00097" lon="28.25824">
        <ele>100.1</ele>
      </trkpt>
      <trkpt lat="37.00093" lon="28.25821">
        <ele>100.3</ele>
      </trkpt>
      <trkpt lat="37.00089" lon="28.25817">
        <ele>100.5</ele>
      </trkpt>
      <trkpt lat="37.00085" lon="28.25814">
        <ele>100.7</ele>
      </trkpt>
      <trkpt lat="37.00082" lon="28.25809">
        <ele>100.6</ele>
      </trkpt>
      <trkpt lat="37.00078" lon="28.25806">
        <ele>100.6</ele>
      </trkpt>
      <trkpt lat="37.00074" lon="28.25803">
        <ele>100.7</ele>
      </trkpt>
      <trkpt lat="37.0007" lon="28.25801">
        <ele>101</ele>
      </trkpt>
      <trkpt lat="37.00065" lon="28.25797">
        <ele>101.2</ele>
      </trkpt>
      <trkpt lat="37.00061" lon="28.25794">
        <ele>101.2</ele>
      </trkpt>
      <trkpt lat="37.00057" lon="28.2579">
        <ele>101.3</ele>
      </trkpt>
      <trkpt lat="37.00052" lon="28.25788">
        <ele>101.6</ele>
      </trkpt>
      <trkpt lat="37.00048" lon="28.25785">
        <ele>101.9</ele>
      </trkpt>
      <trkpt lat="37.00044" lon="28.25784">
        <ele>102.2</ele>
      </trkpt>
      <trkpt lat="37.00041" lon="28.25779">
        <ele>102</ele>
      </trkpt>
      <trkpt lat="37.00041" lon="28.25773">
        <ele>101.4</ele>
      </trkpt>
      <trkpt lat="37.00045" lon="28.25769">
        <ele>100.5</ele>
      </trkpt>
      <trkpt lat="37.00048" lon="28.25763">
        <ele>99.6</ele>
      </trkpt>
      <trkpt lat="37.00051" lon="28.25757">
        <ele>98.6</ele>
      </trkpt>
      <trkpt lat="37.00051" lon="28.25749">
        <ele>97.7</ele>
      </trkpt>
      <trkpt lat="37.00052" lon="28.25742">
        <ele>96.8</ele>
      </trkpt>
      <trkpt lat="37.00053" lon="28.25735">
        <ele>95.7</ele>
      </trkpt>
      <trkpt lat="37.00051" lon="28.25729">
        <ele>95.1</ele>
      </trkpt>
      <trkpt lat="37.0005" lon="28.25723">
        <ele>94.5</ele>
      </trkpt>
      <trkpt lat="37.00048" lon="28.25717">
        <ele>93.9</ele>
      </trkpt>
      <trkpt lat="37.00046" lon="28.25711">
        <ele>93.3</ele>
      </trkpt>
      <trkpt lat="37.00043" lon="28.25704">
        <ele>92.6</ele>
      </trkpt>
      <trkpt lat="37.0004" lon="28.25699">
        <ele>92.1</ele>
      </trkpt>
      <trkpt lat="37.00038" lon="28.25695">
        <ele>91.7</ele>
      </trkpt>
      <trkpt lat="37.00034" lon="28.25691">
        <ele>91.4</ele>
      </trkpt>
      <trkpt lat="37.00031" lon="28.25686">
        <ele>91</ele>
      </trkpt>
      <trkpt lat="37.00028" lon="28.25681">
        <ele>90.4</ele>
      </trkpt>
      <trkpt lat="37.00023" lon="28.25676">
        <ele>90</ele>
      </trkpt>
      <trkpt lat="37.0002" lon="28.25673">
        <ele>89.7</ele>
      </trkpt>
      <trkpt lat="37.00016" lon="28.25667">
        <ele>89.1</ele>
      </trkpt>
      <trkpt lat="37.00011" lon="28.2566">
        <ele>88.8</ele>
      </trkpt>
      <trkpt lat="37.00008" lon="28.25655">
        <ele>88.6</ele>
      </trkpt>
      <trkpt lat="37.00004" lon="28.25649">
        <ele>88.3</ele>
      </trkpt>
      <trkpt lat="37" lon="28.25645">
        <ele>88.2</ele>
      </trkpt>
      <trkpt lat="36.99996" lon="28.25642">
        <ele>87.8</ele>
      </trkpt>
      <trkpt lat="36.99993" lon="28.25637">
        <ele>87.3</ele>
      </trkpt>
      <trkpt lat="36.9999" lon="28.25631">
        <ele>86.8</ele>
      </trkpt>
      <trkpt lat="36.99987" lon="28.25626">
        <ele>86.2</ele>
      </trkpt>
      <trkpt lat="36.99983" lon="28.2562">
        <ele>85.5</ele>
      </trkpt>
      <trkpt lat="36.99978" lon="28.25615">
        <ele>84.8</ele>
      </trkpt>
      <trkpt lat="36.99975" lon="28.2561">
        <ele>84.2</ele>
      </trkpt>
      <trkpt lat="36.99971" lon="28.25605">
        <ele>83.5</ele>
      </trkpt>
      <trkpt lat="36.99966" lon="28.25602">
        <ele>83</ele>
      </trkpt>
      <trkpt lat="36.99964" lon="28.25597">
        <ele>82.4</ele>
      </trkpt>
      <trkpt lat="36.99959" lon="28.25594">
        <ele>81.7</ele>
      </trkpt>
      <trkpt lat="36.99955" lon="28.2559">
        <ele>81</ele>
      </trkpt>
      <trkpt lat="36.9995" lon="28.25591">
        <ele>80.8</ele>
      </trkpt>
      <trkpt lat="36.99944" lon="28.25589">
        <ele>80.3</ele>
      </trkpt>
      <trkpt lat="36.99938" lon="28.25588">
        <ele>79.8</ele>
      </trkpt>
      <trkpt lat="36.99933" lon="28.25586">
        <ele>79.4</ele>
      </trkpt>
      <trkpt lat="36.99927" lon="28.25585">
        <ele>78.9</ele>
      </trkpt>
      <trkpt lat="36.99923" lon="28.25586">
        <ele>78.7</ele>
      </trkpt>
      <trkpt lat="36.99917" lon="28.25585">
        <ele>78.3</ele>
      </trkpt>
      <trkpt lat="36.99912" lon="28.25587">
        <ele>77.4</ele>
      </trkpt>
      <trkpt lat="36.99906" lon="28.25586">
        <ele>76.2</ele>
      </trkpt>
      <trkpt lat="36.99901" lon="28.25587">
        <ele>75.2</ele>
      </trkpt>
      <trkpt lat="36.99897" lon="28.2559">
        <ele>74.7</ele>
      </trkpt>
      <trkpt lat="36.99892" lon="28.2559">
        <ele>73.7</ele>
      </trkpt>
      <trkpt lat="36.99887" lon="28.25593">
        <ele>73</ele>
      </trkpt>
      <trkpt lat="36.99881" lon="28.25595">
        <ele>72</ele>
      </trkpt>
      <trkpt lat="36.99877" lon="28.25598">
        <ele>71.5</ele>
      </trkpt>
      <trkpt lat="36.99871" lon="28.25601">
        <ele>70.7</ele>
      </trkpt>
      <trkpt lat="36.99867" lon="28.25603">
        <ele>70.1</ele>
      </trkpt>
      <trkpt lat="36.99863" lon="28.25607">
        <ele>69.8</ele>
      </trkpt>
      <trkpt lat="36.99858" lon="28.2561">
        <ele>69.2</ele>
      </trkpt>
      <trkpt lat="36.99852" lon="28.25614">
        <ele>68.4</ele>
      </trkpt>
      <trkpt lat="36.99848" lon="28.25616">
        <ele>67.8</ele>
      </trkpt>
      <trkpt lat="36.99843" lon="28.25617">
        <ele>67</ele>
      </trkpt>
      <trkpt lat="36.99838" lon="28.25622">
        <ele>66.6</ele>
      </trkpt>
      <trkpt lat="36.99835" lon="28.25626">
        <ele>66.5</ele>
      </trkpt>
      <trkpt lat="36.99832" lon="28.25631">
        <ele>66.4</ele>
      </trkpt>
      <trkpt lat="36.9983" lon="28.25637">
        <ele>66.4</ele>
      </trkpt>
      <trkpt lat="36.99827" lon="28.25642">
        <ele>66.2</ele>
      </trkpt>
      <trkpt lat="36.99823" lon="28.25646">
        <ele>65.6</ele>
      </trkpt>
      <trkpt lat="36.99821" lon="28.25652">
        <ele>65.6</ele>
      </trkpt>
      <trkpt lat="36.99818" lon="28.25657">
        <ele>65.1</ele>
      </trkpt>
      <trkpt lat="36.99815" lon="28.25663">
        <ele>64.9</ele>
      </trkpt>
      <trkpt lat="36.99812" lon="28.25669">
        <ele>64.9</ele>
      </trkpt>
      <trkpt lat="36.99808" lon="28.25674">
        <ele>64.6</ele>
      </trkpt>
      <trkpt lat="36.99805" lon="28.25679">
        <ele>64.3</ele>
      </trkpt>
      <trkpt lat="36.99803" lon="28.25685">
        <ele>65</ele>
      </trkpt>
      <trkpt lat="36.99799" lon="28.2569">
        <ele>64.6</ele>
      </trkpt>
      <trkpt lat="36.99797" lon="28.25695">
        <ele>64.6</ele>
      </trkpt>
      <trkpt lat="36.99793" lon="28.25701">
        <ele>64.4</ele>
      </trkpt>
      <trkpt lat="36.99788" lon="28.25704">
        <ele>63.6</ele>
      </trkpt>
      <trkpt lat="36.99785" lon="28.25709">
        <ele>63.3</ele>
      </trkpt>
      <trkpt lat="36.99781" lon="28.25714">
        <ele>62.9</ele>
      </trkpt>
      <trkpt lat="36.99778" lon="28.25718">
        <ele>62.8</ele>
      </trkpt>
      <trkpt lat="36.99774" lon="28.25722">
        <ele>62.3</ele>
      </trkpt>
      <trkpt lat="36.99769" lon="28.25729">
        <ele>62</ele>
      </trkpt>
      <trkpt lat="36.99767" lon="28.25734">
        <ele>62.4</ele>
      </trkpt>
      <trkpt lat="36.99765" lon="28.2574">
        <ele>62.8</ele>
      </trkpt>
      <trkpt lat="36.99761" lon="28.25745">
        <ele>62.6</ele>
      </trkpt>
      <trkpt lat="36.99757" lon="28.25749">
        <ele>62</ele>
      </trkpt>
      <trkpt lat="36.99754" lon="28.25755">
        <ele>62.4</ele>
      </trkpt>
      <trkpt lat="36.99754" lon="28.25762">
        <ele>63.6</ele>
      </trkpt>
      <trkpt lat="36.99751" lon="28.25767">
        <ele>63.8</ele>
      </trkpt>
      <trkpt lat="36.99748" lon="28.25771">
        <ele>64</ele>
      </trkpt>
      <trkpt lat="36.99745" lon="28.25775">
        <ele>64.1</ele>
      </trkpt>
      <trkpt lat="36.99741" lon="28.25781">
        <ele>64.7</ele>
      </trkpt>
      <trkpt lat="36.99737" lon="28.25786">
        <ele>65</ele>
      </trkpt>
      <trkpt lat="36.99733" lon="28.25791">
        <ele>65.4</ele>
      </trkpt>
      <trkpt lat="36.99728" lon="28.25794">
        <ele>65.2</ele>
      </trkpt>
      <trkpt lat="36.99723" lon="28.25795">
        <ele>64.7</ele>
      </trkpt>
      <trkpt lat="36.99717" lon="28.25794">
        <ele>63.5</ele>
      </trkpt>
      <trkpt lat="36.99712" lon="28.25794">
        <ele>62.7</ele>
      </trkpt>
      <trkpt lat="36.99706" lon="28.25792">
        <ele>61.2</ele>
      </trkpt>
      <trkpt lat="36.997" lon="28.2579">
        <ele>59.8</ele>
      </trkpt>
      <trkpt lat="36.99696" lon="28.25792">
        <ele>59.3</ele>
      </trkpt>
      <trkpt lat="36.99691" lon="28.25787">
        <ele>57.4</ele>
      </trkpt>
      <trkpt lat="36.99686" lon="28.25782">
        <ele>55.4</ele>
      </trkpt>
      <trkpt lat="36.99684" lon="28.25777">
        <ele>53.5</ele>
      </trkpt>
      <trkpt lat="36.9968" lon="28.25773">
        <ele>51.8</ele>
      </trkpt>
      <trkpt lat="36.99674" lon="28.25771">
        <ele>50.1</ele>
      </trkpt>
      <trkpt lat="36.99672" lon="28.25765">
        <ele>48.2</ele>
      </trkpt>
      <trkpt lat="36.99667" lon="28.25766">
        <ele>47.4</ele>
      </trkpt>
      <trkpt lat="36.9966" lon="28.25767">
        <ele>46.6</ele>
      </trkpt>
      <trkpt lat="36.99658" lon="28.25772">
        <ele>47.9</ele>
      </trkpt>
      <trkpt lat="36.99654" lon="28.25775">
        <ele>48</ele>
      </trkpt>
      <trkpt lat="36.99648" lon="28.25776">
        <ele>47.4</ele>
      </trkpt>
      <trkpt lat="36.99644" lon="28.2578">
        <ele>48.2</ele>
      </trkpt>
      <trkpt lat="36.99639" lon="28.25779">
        <ele>47.4</ele>
      </trkpt>
      <trkpt lat="36.99636" lon="28.25784">
        <ele>48.2</ele>
      </trkpt>
      <trkpt lat="36.99634" lon="28.25791">
        <ele>50.2</ele>
      </trkpt>
      <trkpt lat="36.9963" lon="28.25796">
        <ele>51.4</ele>
      </trkpt>
      <trkpt lat="36.99626" lon="28.25794">
        <ele>50.2</ele>
      </trkpt>
      <trkpt lat="36.99621" lon="28.25799">
        <ele>51.3</ele>
      </trkpt>
      <trkpt lat="36.99618" lon="28.25802">
        <ele>52.2</ele>
      </trkpt>
      <trkpt lat="36.99616" lon="28.25808">
        <ele>53.7</ele>
      </trkpt>
      <trkpt lat="36.99613" lon="28.25813">
        <ele>55.1</ele>
      </trkpt>
      <trkpt lat="36.9961" lon="28.25818">
        <ele>56.6</ele>
      </trkpt>
      <trkpt lat="36.99608" lon="28.25823">
        <ele>58.3</ele>
      </trkpt>
      <trkpt lat="36.99602" lon="28.25824">
        <ele>58.2</ele>
      </trkpt>
      <trkpt lat="36.99597" lon="28.25824">
        <ele>57.6</ele>
      </trkpt>
      <trkpt lat="36.99593" lon="28.25819">
        <ele>55.5</ele>
      </trkpt>
      <trkpt lat="36.99587" lon="28.25818">
        <ele>54.6</ele>
      </trkpt>
      <trkpt lat="36.99582" lon="28.25816">
        <ele>53.4</ele>
      </trkpt>
      <trkpt lat="36.99577" lon="28.25816">
        <ele>53</ele>
      </trkpt>
      <trkpt lat="36.99575" lon="28.25811">
        <ele>50.8</ele>
      </trkpt>
      <trkpt lat="36.99571" lon="28.25807">
        <ele>49.4</ele>
      </trkpt>
      <trkpt lat="36.99565" lon="28.25806">
        <ele>48.2</ele>
      </trkpt>
      <trkpt lat="36.99561" lon="28.25802">
        <ele>46.9</ele>
      </trkpt>
      <trkpt lat="36.99557" lon="28.25799">
        <ele>45.2</ele>
      </trkpt>
      <trkpt lat="36.99552" lon="28.25798">
        <ele>44.7</ele>
      </trkpt>
      <trkpt lat="36.99549" lon="28.25793">
        <ele>42.6</ele>
      </trkpt>
      <trkpt lat="36.99544" lon="28.25791">
        <ele>41.8</ele>
      </trkpt>
      <trkpt lat="36.99539" lon="28.2579">
        <ele>41.1</ele>
      </trkpt>
      <trkpt lat="36.99535" lon="28.25789">
        <ele>40.2</ele>
      </trkpt>
      <trkpt lat="36.9953" lon="28.25785">
        <ele>38.8</ele>
      </trkpt>
      <trkpt lat="36.99523" lon="28.25783">
        <ele>37.8</ele>
      </trkpt>
      <trkpt lat="36.99518" lon="28.25781">
        <ele>36.9</ele>
      </trkpt>
      <trkpt lat="36.99514" lon="28.25779">
        <ele>35.7</ele>
      </trkpt>
      <trkpt lat="36.9951" lon="28.25775">
        <ele>34.3</ele>
      </trkpt>
      <trkpt lat="36.99507" lon="28.25771">
        <ele>32.9</ele>
      </trkpt>
      <trkpt lat="36.99502" lon="28.25769">
        <ele>31.9</ele>
      </trkpt>
      <trkpt lat="36.99496" lon="28.25767">
        <ele>30.5</ele>
      </trkpt>
      <trkpt lat="36.99491" lon="28.25765">
        <ele>29</ele>
      </trkpt>
      <trkpt lat="36.99487" lon="28.25761">
        <ele>27.1</ele>
      </trkpt>
      <trkpt lat="36.99483" lon="28.25758">
        <ele>25.5</ele>
      </trkpt>
      <trkpt lat="36.99477" lon="28.25758">
        <ele>24.4</ele>
      </trkpt>
      <trkpt lat="36.99471" lon="28.25755">
        <ele>22.7</ele>
      </trkpt>
      <trkpt lat="36.99466" lon="28.25753">
        <ele>21.4</ele>
      </trkpt>
      <trkpt lat="36.99461" lon="28.2575">
        <ele>20</ele>
      </trkpt>
      <trkpt lat="36.99455" lon="28.2575">
        <ele>19</ele>
      </trkpt>
      <trkpt lat="36.9945" lon="28.25753">
        <ele>18.7</ele>
      </trkpt>
      <trkpt lat="36.99446" lon="28.25757">
        <ele>18.7</ele>
      </trkpt>
      <trkpt lat="36.99442" lon="28.25761">
        <ele>18.9</ele>
      </trkpt>
      <trkpt lat="36.99439" lon="28.25766">
        <ele>19.1</ele>
      </trkpt>
      <trkpt lat="36.99436" lon="28.25772">
        <ele>19.5</ele>
      </trkpt>
      <trkpt lat="36.99434" lon="28.25778">
        <ele>20.1</ele>
      </trkpt>
      <trkpt lat="36.99433" lon="28.25785">
        <ele>21.1</ele>
      </trkpt>
      <trkpt lat="36.99429" lon="28.25789">
        <ele>20.8</ele>
      </trkpt>
      <trkpt lat="36.99423" lon="28.25799">
        <ele>20.5</ele>
      </trkpt>
      <trkpt lat="36.9943" lon="28.25802">
        <ele>22.8</ele>
      </trkpt>
      <trkpt lat="36.99423" lon="28.25811">
        <ele>22.1</ele>
      </trkpt>
      <trkpt lat="36.99425" lon="28.25817">
        <ele>23.6</ele>
      </trkpt>
      <trkpt lat="36.99429" lon="28.25824">
        <ele>25.8</ele>
      </trkpt>
      <trkpt lat="36.99426" lon="28.2583">
        <ele>25.7</ele>
      </trkpt>
      <trkpt lat="36.99433" lon="28.25834">
        <ele>28.8</ele>
      </trkpt>
      <trkpt lat="36.9943" lon="28.25837">
        <ele>28</ele>
      </trkpt>
      <trkpt lat="36.99427" lon="28.25844">
        <ele>28</ele>
      </trkpt>
      <trkpt lat="36.99421" lon="28.2584">
        <ele>25.2</ele>
      </trkpt>
      <trkpt lat="36.99428" lon="28.25835">
        <ele>27</ele>
      </trkpt>
      <trkpt lat="36.99425" lon="28.25843">
        <ele>27.1</ele>
      </trkpt>
      <trkpt lat="36.99431" lon="28.2584">
        <ele>28.8</ele>
      </trkpt>
      <trkpt lat="36.99429" lon="28.25848">
        <ele>29</ele>
      </trkpt>
      <trkpt lat="36.99433" lon="28.25854">
        <ele>31.2</ele>
      </trkpt>
      <trkpt lat="36.99431" lon="28.25861">
        <ele>31.5</ele>
      </trkpt>
      <trkpt lat="36.99429" lon="28.25867">
        <ele>31.2</ele>
      </trkpt>
      <trkpt lat="36.9943" lon="28.25873">
        <ele>32.3</ele>
      </trkpt>
      <trkpt lat="36.9943" lon="28.25878">
        <ele>33.2</ele>
      </trkpt>
      <trkpt lat="36.99429" lon="28.25885">
        <ele>33.4</ele>
      </trkpt>
      <trkpt lat="36.9943" lon="28.25891">
        <ele>34.6</ele>
      </trkpt>
      <trkpt lat="36.99427" lon="28.25897">
        <ele>34.5</ele>
      </trkpt>
      <trkpt lat="36.9943" lon="28.25903">
        <ele>36</ele>
      </trkpt>
      <trkpt lat="36.99428" lon="28.25911">
        <ele>36.4</ele>
      </trkpt>
      <trkpt lat="36.99428" lon="28.25919">
        <ele>37.5</ele>
      </trkpt>
      <trkpt lat="36.99424" lon="28.25926">
        <ele>38</ele>
      </trkpt>
      <trkpt lat="36.99421" lon="28.25931">
        <ele>38.5</ele>
      </trkpt>
      <trkpt lat="36.99417" lon="28.25934">
        <ele>37.9</ele>
      </trkpt>
      <trkpt lat="36.99413" lon="28.25931">
        <ele>36.8</ele>
      </trkpt>
      <trkpt lat="36.99407" lon="28.25926">
        <ele>35.1</ele>
      </trkpt>
      <trkpt lat="36.99404" lon="28.25921">
        <ele>33.7</ele>
      </trkpt>
      <trkpt lat="36.994" lon="28.25918">
        <ele>32.7</ele>
      </trkpt>
      <trkpt lat="36.99395" lon="28.25915">
        <ele>32</ele>
      </trkpt>
      <trkpt lat="36.9939" lon="28.25912">
        <ele>31.3</ele>
      </trkpt>
      <trkpt lat="36.99385" lon="28.25911">
        <ele>30.9</ele>
      </trkpt>
      <trkpt lat="36.9938" lon="28.25911">
        <ele>30.7</ele>
      </trkpt>
      <trkpt lat="36.99376" lon="28.25908">
        <ele>30</ele>
      </trkpt>
      <trkpt lat="36.9937" lon="28.25906">
        <ele>29.2</ele>
      </trkpt>
      <trkpt lat="36.99366" lon="28.25901">
        <ele>28.2</ele>
      </trkpt>
      <trkpt lat="36.99361" lon="28.25899">
        <ele>27.4</ele>
      </trkpt>
      <trkpt lat="36.99356" lon="28.25895">
        <ele>26.3</ele>
      </trkpt>
      <trkpt lat="36.99352" lon="28.2589">
        <ele>24.9</ele>
      </trkpt>
      <trkpt lat="36.99348" lon="28.25886">
        <ele>23.8</ele>
      </trkpt>
      <trkpt lat="36.99345" lon="28.25882">
        <ele>22.6</ele>
      </trkpt>
      <trkpt lat="36.9934" lon="28.25877">
        <ele>21.1</ele>
      </trkpt>
      <trkpt lat="36.99336" lon="28.25874">
        <ele>20</ele>
      </trkpt>
      <trkpt lat="36.99332" lon="28.25868">
        <ele>18.1</ele>
      </trkpt>
      <trkpt lat="36.99328" lon="28.25865">
        <ele>17.1</ele>
      </trkpt>
      <trkpt lat="36.99324" lon="28.2586">
        <ele>15.7</ele>
      </trkpt>
      <trkpt lat="36.9932" lon="28.25857">
        <ele>14.6</ele>
      </trkpt>
      <trkpt lat="36.99316" lon="28.25852">
        <ele>13.2</ele>
      </trkpt>
      <trkpt lat="36.9931" lon="28.25847">
        <ele>11.9</ele>
      </trkpt>
      <trkpt lat="36.99306" lon="28.25844">
        <ele>10.8</ele>
      </trkpt>
      <trkpt lat="36.99303" lon="28.25838">
        <ele>9.4</ele>
      </trkpt>
      <trkpt lat="36.99299" lon="28.25837">
        <ele>9</ele>
      </trkpt>
      <trkpt lat="36.99295" lon="28.25831">
        <ele>8</ele>
      </trkpt>
      <trkpt lat="36.99291" lon="28.25828">
        <ele>7.6</ele>
      </trkpt>
      <trkpt lat="36.99286" lon="28.25827">
        <ele>7.3</ele>
      </trkpt>
      <trkpt lat="36.9928" lon="28.25827">
        <ele>7.1</ele>
      </trkpt>
      <trkpt lat="36.99275" lon="28.25827">
        <ele>6.9</ele>
      </trkpt>
      <trkpt lat="36.9927" lon="28.25828">
        <ele>6.7</ele>
      </trkpt>
      <trkpt lat="36.99265" lon="28.2583">
        <ele>6.6</ele>
      </trkpt>
      <trkpt lat="36.9926" lon="28.25832">
        <ele>6.4</ele>
      </trkpt>
      <trkpt lat="36.99255" lon="28.25836">
        <ele>6.7</ele>
      </trkpt>
      <trkpt lat="36.99251" lon="28.25841">
        <ele>7.2</ele>
      </trkpt>
      <trkpt lat="36.99247" lon="28.25845">
        <ele>7.6</ele>
      </trkpt>
      <trkpt lat="36.99244" lon="28.25849">
        <ele>8</ele>
      </trkpt>
      <trkpt lat="36.99241" lon="28.25855">
        <ele>8.7</ele>
      </trkpt>
      <trkpt lat="36.99236" lon="28.25857">
        <ele>8.5</ele>
      </trkpt>
      <trkpt lat="36.99229" lon="28.25858">
        <ele>8.3</ele>
      </trkpt>
      <trkpt lat="36.99226" lon="28.25863">
        <ele>8.7</ele>
      </trkpt>
      <trkpt lat="36.99223" lon="28.25867">
        <ele>9</ele>
      </trkpt>
      <trkpt lat="36.99219" lon="28.25872">
        <ele>9.3</ele>
      </trkpt>
      <trkpt lat="36.99219" lon="28.25879">
        <ele>10</ele>
      </trkpt>
      <trkpt lat="36.99219" lon="28.25884">
        <ele>10.6</ele>
      </trkpt>
      <trkpt lat="36.99219" lon="28.25891">
        <ele>11.4</ele>
      </trkpt>
      <trkpt lat="36.99216" lon="28.25896">
        <ele>11.6</ele>
      </trkpt>
      <trkpt lat="36.99216" lon="28.25904">
        <ele>12.5</ele>
      </trkpt>
      <trkpt lat="36.99219" lon="28.25911">
        <ele>13.5</ele>
      </trkpt>
      <trkpt lat="36.99221" lon="28.25916">
        <ele>14.5</ele>
      </trkpt>
      <trkpt lat="36.99219" lon="28.25923">
        <ele>14.2</ele>
      </trkpt>
      <trkpt lat="36.99223" lon="28.25927">
        <ele>14.8</ele>
      </trkpt>
      <trkpt lat="36.99226" lon="28.25932">
        <ele>15.1</ele>
      </trkpt>
      <trkpt lat="36.99226" lon="28.25938">
        <ele>15.1</ele>
      </trkpt>
      <trkpt lat="36.99226" lon="28.25945">
        <ele>15.1</ele>
      </trkpt>
      <trkpt lat="36.99226" lon="28.25951">
        <ele>15</ele>
      </trkpt>
      <trkpt lat="36.99225" lon="28.25958">
        <ele>15</ele>
      </trkpt>
      <trkpt lat="36.99225" lon="28.25965">
        <ele>14.9</ele>
      </trkpt>
      <trkpt lat="36.99224" lon="28.25972">
        <ele>14.8</ele>
      </trkpt>
      <trkpt lat="36.99222" lon="28.25978">
        <ele>14.6</ele>
      </trkpt>
      <trkpt lat="36.99222" lon="28.25986">
        <ele>14.6</ele>
      </trkpt>
      <trkpt lat="36.99227" lon="28.25985">
        <ele>15.1</ele>
      </trkpt>
      <trkpt lat="36.99222" lon="28.25984">
        <ele>14.6</ele>
      </trkpt>
      <trkpt lat="36.99219" lon="28.25988">
        <ele>14.3</ele>
      </trkpt>
      <trkpt lat="36.99217" lon="28.25994">
        <ele>14.2</ele>
      </trkpt>
      <trkpt lat="36.99214" lon="28.26">
        <ele>14</ele>
      </trkpt>
      <trkpt lat="36.99211" lon="28.26004">
        <ele>13.5</ele>
      </trkpt>
      <trkpt lat="36.99209" lon="28.26012">
        <ele>13.1</ele>
      </trkpt>
      <trkpt lat="36.99206" lon="28.26017">
        <ele>12.7</ele>
      </trkpt>
      <trkpt lat="36.99204" lon="28.26023">
        <ele>12.3</ele>
      </trkpt>
      <trkpt lat="36.99203" lon="28.26029">
        <ele>12</ele>
      </trkpt>
      <trkpt lat="36.99201" lon="28.26035">
        <ele>11.6</ele>
      </trkpt>
      <trkpt lat="36.99198" lon="28.26041">
        <ele>11.2</ele>
      </trkpt>
      <trkpt lat="36.99193" lon="28.26048">
        <ele>10.5</ele>
      </trkpt>
      <trkpt lat="36.99194" lon="28.26054">
        <ele>10.3</ele>
      </trkpt>
      <trkpt lat="36.99192" lon="28.2606">
        <ele>9.9</ele>
      </trkpt>
      <trkpt lat="36.99189" lon="28.26067">
        <ele>9.4</ele>
      </trkpt>
      <trkpt lat="36.99186" lon="28.26074">
        <ele>9</ele>
      </trkpt>
      <trkpt lat="36.99184" lon="28.2608">
        <ele>8.6</ele>
      </trkpt>
      <trkpt lat="36.99196" lon="28.26212">
        <ele>7.5</ele>
      </trkpt>
      <trkpt lat="36.99193" lon="28.26205">
        <ele>7.2</ele>
      </trkpt>
      <trkpt lat="36.99198" lon="28.26192">
        <ele>7.3</ele>
      </trkpt>
      <trkpt lat="36.99191" lon="28.26208">
        <ele>7.2</ele>
      </trkpt>
      <trkpt lat="36.99195" lon="28.26205">
        <ele>7.3</ele>
      </trkpt>
      <trkpt lat="36.99191" lon="28.26208">
        <ele>7.2</ele>
      </trkpt>
      <trkpt lat="36.99187" lon="28.26209">
        <ele>7</ele>
      </trkpt>
      <trkpt lat="36.99182" lon="28.26212">
        <ele>6.8</ele>
      </trkpt>
      <trkpt lat="36.99179" lon="28.26216">
        <ele>6.7</ele>
      </trkpt>
      <trkpt lat="36.99174" lon="28.26219">
        <ele>6.6</ele>
      </trkpt>
      <trkpt lat="36.9917" lon="28.26223">
        <ele>6.5</ele>
      </trkpt>
      <trkpt lat="36.99164" lon="28.26227">
        <ele>6.4</ele>
      </trkpt>
      <trkpt lat="36.9916" lon="28.26231">
        <ele>6.3</ele>
      </trkpt>
      <trkpt lat="36.99155" lon="28.26234">
        <ele>6.3</ele>
      </trkpt>
      <trkpt lat="36.99151" lon="28.26236">
        <ele>6.2</ele>
      </trkpt>
      <trkpt lat="36.99146" lon="28.2624">
        <ele>6.1</ele>
      </trkpt>
      <trkpt lat="36.99141" lon="28.26243">
        <ele>6</ele>
      </trkpt>
      <trkpt lat="36.99137" lon="28.26245">
        <ele>5.9</ele>
      </trkpt>
      <trkpt lat="36.99132" lon="28.26249">
        <ele>5.8</ele>
      </trkpt>
      <trkpt lat="36.99128" lon="28.26252">
        <ele>5.7</ele>
      </trkpt>
      <trkpt lat="36.99124" lon="28.26255">
        <ele>5.7</ele>
      </trkpt>
      <trkpt lat="36.9912" lon="28.26258">
        <ele>5.6</ele>
      </trkpt>
      <trkpt lat="36.99114" lon="28.26262">
        <ele>5.6</ele>
      </trkpt>
      <trkpt lat="36.9911" lon="28.26264">
        <ele>5.6</ele>
      </trkpt>
      <trkpt lat="36.99105" lon="28.26266">
        <ele>5.5</ele>
      </trkpt>
      <trkpt lat="36.99101" lon="28.26269">
        <ele>5.5</ele>
      </trkpt>
      <trkpt lat="36.99096" lon="28.26271">
        <ele>5.4</ele>
      </trkpt>
      <trkpt lat="36.9909" lon="28.26274">
        <ele>5.4</ele>
      </trkpt>
      <trkpt lat="36.99086" lon="28.26274">
        <ele>5.2</ele>
      </trkpt>
      <trkpt lat="36.99081" lon="28.26276">
        <ele>5.3</ele>
      </trkpt>
      <trkpt lat="36.99076" lon="28.2628">
        <ele>5.6</ele>
      </trkpt>
      <trkpt lat="36.99072" lon="28.26282">
        <ele>5.9</ele>
      </trkpt>
      <trkpt lat="36.99067" lon="28.26286">
        <ele>6.3</ele>
      </trkpt>
      <trkpt lat="36.99063" lon="28.26289">
        <ele>6.7</ele>
      </trkpt>
      <trkpt lat="36.99058" lon="28.26291">
        <ele>7</ele>
      </trkpt>
      <trkpt lat="36.99053" lon="28.26292">
        <ele>7.3</ele>
      </trkpt>
      <trkpt lat="36.99049" lon="28.26295">
        <ele>7.7</ele>
      </trkpt>
      <trkpt lat="36.99045" lon="28.26296">
        <ele>8</ele>
      </trkpt>
      <trkpt lat="36.9904" lon="28.26297">
        <ele>8.3</ele>
      </trkpt>
      <trkpt lat="36.99035" lon="28.263">
        <ele>8.8</ele>
      </trkpt>
      <trkpt lat="36.99031" lon="28.26303">
        <ele>9.3</ele>
      </trkpt>
      <trkpt lat="36.99027" lon="28.26305">
        <ele>9.8</ele>
      </trkpt>
      <trkpt lat="36.99022" lon="28.26308">
        <ele>10.4</ele>
      </trkpt>
      <trkpt lat="36.99018" lon="28.26311">
        <ele>11</ele>
      </trkpt>
      <trkpt lat="36.99013" lon="28.26313">
        <ele>11.5</ele>
      </trkpt>
      <trkpt lat="36.99008" lon="28.26313">
        <ele>11.8</ele>
      </trkpt>
      <trkpt lat="36.99003" lon="28.26313">
        <ele>12.2</ele>
      </trkpt>
      <trkpt lat="36.98998" lon="28.26315">
        <ele>12.7</ele>
      </trkpt>
      <trkpt lat="36.98992" lon="28.26315">
        <ele>13</ele>
      </trkpt>
      <trkpt lat="36.98987" lon="28.26316">
        <ele>13.3</ele>
      </trkpt>
      <trkpt lat="36.98982" lon="28.26314">
        <ele>13.3</ele>
      </trkpt>
      <trkpt lat="36.98978" lon="28.26312">
        <ele>13.1</ele>
      </trkpt>
      <trkpt lat="36.98974" lon="28.26308">
        <ele>12.8</ele>
      </trkpt>
      <trkpt lat="36.98969" lon="28.26304">
        <ele>12.5</ele>
      </trkpt>
      <trkpt lat="36.98965" lon="28.26302">
        <ele>12.4</ele>
      </trkpt>
      <trkpt lat="36.98959" lon="28.263">
        <ele>12.3</ele>
      </trkpt>
      <trkpt lat="36.98955" lon="28.26297">
        <ele>12.2</ele>
      </trkpt>
      <trkpt lat="36.9895" lon="28.26294">
        <ele>11.9</ele>
      </trkpt>
      <trkpt lat="36.98945" lon="28.26291">
        <ele>11.7</ele>
      </trkpt>
      <trkpt lat="36.98939" lon="28.26289">
        <ele>11.6</ele>
      </trkpt>
      <trkpt lat="36.98934" lon="28.26287">
        <ele>11.7</ele>
      </trkpt>
      <trkpt lat="36.9893" lon="28.26289">
        <ele>12.1</ele>
      </trkpt>
      <trkpt lat="36.98926" lon="28.26294">
        <ele>12.9</ele>
      </trkpt>
      <trkpt lat="36.98921" lon="28.26293">
        <ele>13</ele>
      </trkpt>
      <trkpt lat="36.98916" lon="28.26292">
        <ele>13.1</ele>
      </trkpt>
      <trkpt lat="36.98908" lon="28.26289">
        <ele>11.9</ele>
      </trkpt>
      <trkpt lat="36.98904" lon="28.26291">
        <ele>11.8</ele>
      </trkpt>
      <trkpt lat="36.98899" lon="28.26289">
        <ele>11.1</ele>
      </trkpt>
      <trkpt lat="36.98894" lon="28.2629">
        <ele>11</ele>
      </trkpt>
      <trkpt lat="36.9889" lon="28.26289">
        <ele>10.5</ele>
      </trkpt>
      <trkpt lat="36.98884" lon="28.26291">
        <ele>10.2</ele>
      </trkpt>
      <trkpt lat="36.9888" lon="28.26291">
        <ele>9.8</ele>
      </trkpt>
      <trkpt lat="36.98875" lon="28.26293">
        <ele>9.7</ele>
      </trkpt>
      <trkpt lat="36.9887" lon="28.26296">
        <ele>9.4</ele>
      </trkpt>
      <trkpt lat="36.98867" lon="28.26303">
        <ele>9.6</ele>
      </trkpt>
      <trkpt lat="36.98866" lon="28.26309">
        <ele>9.9</ele>
      </trkpt>
      <trkpt lat="36.98867" lon="28.26315">
        <ele>10.6</ele>
      </trkpt>
      <trkpt lat="36.98867" lon="28.26322">
        <ele>11</ele>
      </trkpt>
      <trkpt lat="36.98869" lon="28.26328">
        <ele>11.7</ele>
      </trkpt>
      <trkpt lat="36.98869" lon="28.26334">
        <ele>12.1</ele>
      </trkpt>
      <trkpt lat="36.98869" lon="28.26343">
        <ele>12.3</ele>
      </trkpt>
      <trkpt lat="36.98876" lon="28.26338">
        <ele>13.1</ele>
      </trkpt>
      <trkpt lat="36.98873" lon="28.26333">
        <ele>12.6</ele>
      </trkpt>
      <trkpt lat="36.98873" lon="28.26341">
        <ele>12.9</ele>
      </trkpt>
      <trkpt lat="36.98878" lon="28.26344">
        <ele>13.6</ele>
      </trkpt>
      <trkpt lat="36.98879" lon="28.26351">
        <ele>13.7</ele>
      </trkpt>
      <trkpt lat="36.98883" lon="28.26353">
        <ele>14.4</ele>
      </trkpt>
      <trkpt lat="36.98888" lon="28.26356">
        <ele>15.2</ele>
      </trkpt>
      <trkpt lat="36.98892" lon="28.26363">
        <ele>15.8</ele>
      </trkpt>
      <trkpt lat="36.98897" lon="28.26362">
        <ele>16.5</ele>
      </trkpt>
      <trkpt lat="36.98901" lon="28.26366">
        <ele>17.1</ele>
      </trkpt>
      <trkpt lat="36.98897" lon="28.26369">
        <ele>16.5</ele>
      </trkpt>
      <trkpt lat="36.98902" lon="28.26373">
        <ele>17.3</ele>
      </trkpt>
      <trkpt lat="36.98902" lon="28.26381">
        <ele>17.5</ele>
      </trkpt>
      <trkpt lat="36.98906" lon="28.26384">
        <ele>18</ele>
      </trkpt>
      <trkpt lat="36.98911" lon="28.26387">
        <ele>18.8</ele>
      </trkpt>
      <trkpt lat="36.98916" lon="28.26391">
        <ele>19.5</ele>
      </trkpt>
      <trkpt lat="36.98917" lon="28.26396">
        <ele>19.8</ele>
      </trkpt>
      <trkpt lat="36.98914" lon="28.26405">
        <ele>19.4</ele>
      </trkpt>
      <trkpt lat="36.98916" lon="28.2641">
        <ele>19.8</ele>
      </trkpt>
      <trkpt lat="36.98918" lon="28.26415">
        <ele>20.2</ele>
      </trkpt>
      <trkpt lat="36.98923" lon="28.26419">
        <ele>21.1</ele>
      </trkpt>
      <trkpt lat="36.98922" lon="28.26425">
        <ele>21.4</ele>
      </trkpt>
      <trkpt lat="36.98917" lon="28.2643">
        <ele>21.2</ele>
      </trkpt>
      <trkpt lat="36.98917" lon="28.26436">
        <ele>21.7</ele>
      </trkpt>
      <trkpt lat="36.98916" lon="28.26442">
        <ele>21.9</ele>
      </trkpt>
      <trkpt lat="36.98917" lon="28.26448">
        <ele>22.7</ele>
      </trkpt>
      <trkpt lat="36.98915" lon="28.26454">
        <ele>22.8</ele>
      </trkpt>
      <trkpt lat="36.98911" lon="28.2646">
        <ele>22.7</ele>
      </trkpt>
      <trkpt lat="36.98908" lon="28.26467">
        <ele>22.8</ele>
      </trkpt>
      <trkpt lat="36.98904" lon="28.26471">
        <ele>22.6</ele>
      </trkpt>
      <trkpt lat="36.989" lon="28.26475">
        <ele>22.2</ele>
      </trkpt>
      <trkpt lat="36.98897" lon="28.26481">
        <ele>22.1</ele>
      </trkpt>
      <trkpt lat="36.98894" lon="28.26487">
        <ele>22.1</ele>
      </trkpt>
      <trkpt lat="36.98889" lon="28.26492">
        <ele>21.7</ele>
      </trkpt>
      <trkpt lat="36.98886" lon="28.26497">
        <ele>21.5</ele>
      </trkpt>
      <trkpt lat="36.98882" lon="28.26501">
        <ele>21.4</ele>
      </trkpt>
      <trkpt lat="36.98877" lon="28.26507">
        <ele>21.8</ele>
      </trkpt>
      <trkpt lat="36.98872" lon="28.26507">
        <ele>21.2</ele>
      </trkpt>
      <trkpt lat="36.98869" lon="28.26512">
        <ele>21.6</ele>
      </trkpt>
      <trkpt lat="36.98866" lon="28.26516">
        <ele>21.8</ele>
      </trkpt>
      <trkpt lat="36.98861" lon="28.26519">
        <ele>21.9</ele>
      </trkpt>
      <trkpt lat="36.98857" lon="28.26522">
        <ele>21.5</ele>
      </trkpt>
      <trkpt lat="36.98853" lon="28.26525">
        <ele>21.5</ele>
      </trkpt>
      <trkpt lat="36.98847" lon="28.26525">
        <ele>20.6</ele>
      </trkpt>
      <trkpt lat="36.98843" lon="28.26527">
        <ele>20.2</ele>
      </trkpt>
      <trkpt lat="36.98838" lon="28.26528">
        <ele>19.5</ele>
      </trkpt>
      <trkpt lat="36.98832" lon="28.26529">
        <ele>18.8</ele>
      </trkpt>
      <trkpt lat="36.98827" lon="28.2653">
        <ele>18.5</ele>
      </trkpt>
      <trkpt lat="36.98822" lon="28.26531">
        <ele>18</ele>
      </trkpt>
      <trkpt lat="36.98816" lon="28.26532">
        <ele>17.6</ele>
      </trkpt>
      <trkpt lat="36.98811" lon="28.26533">
        <ele>17.1</ele>
      </trkpt>
      <trkpt lat="36.98805" lon="28.26535">
        <ele>16.8</ele>
      </trkpt>
      <trkpt lat="36.988" lon="28.26536">
        <ele>16.3</ele>
      </trkpt>
      <trkpt lat="36.98796" lon="28.26536">
        <ele>15.8</ele>
      </trkpt>
      <trkpt lat="36.98792" lon="28.2654">
        <ele>15.9</ele>
      </trkpt>
      <trkpt lat="36.98788" lon="28.26543">
        <ele>15.6</ele>
      </trkpt>
      <trkpt lat="36.98784" lon="28.26548">
        <ele>15.6</ele>
      </trkpt>
      <trkpt lat="36.98781" lon="28.26554">
        <ele>15.7</ele>
      </trkpt>
      <trkpt lat="36.98778" lon="28.26559">
        <ele>15.9</ele>
      </trkpt>
      <trkpt lat="36.98776" lon="28.26565">
        <ele>15.9</ele>
      </trkpt>
      <trkpt lat="36.98773" lon="28.2657">
        <ele>15.9</ele>
      </trkpt>
      <trkpt lat="36.98771" lon="28.26576">
        <ele>15.9</ele>
      </trkpt>
      <trkpt lat="36.98768" lon="28.26581">
        <ele>15.8</ele>
      </trkpt>
      <trkpt lat="36.98766" lon="28.26587">
        <ele>15.6</ele>
      </trkpt>
      <trkpt lat="36.98764" lon="28.26592">
        <ele>15.4</ele>
      </trkpt>
      <trkpt lat="36.98762" lon="28.26597">
        <ele>15.2</ele>
      </trkpt>
      <trkpt lat="36.98759" lon="28.26602">
        <ele>14.9</ele>
      </trkpt>
      <trkpt lat="36.98756" lon="28.26606">
        <ele>14.2</ele>
      </trkpt>
      <trkpt lat="36.98753" lon="28.26611">
        <ele>13.8</ele>
      </trkpt>
      <trkpt lat="36.9875" lon="28.26616">
        <ele>13.2</ele>
      </trkpt>
      <trkpt lat="36.98747" lon="28.26622">
        <ele>13.3</ele>
      </trkpt>
      <trkpt lat="36.98743" lon="28.26625">
        <ele>13.2</ele>
      </trkpt>
      <trkpt lat="36.98744" lon="28.26631">
        <ele>13.5</ele>
      </trkpt>
      <trkpt lat="36.9874" lon="28.26632">
        <ele>13.3</ele>
      </trkpt>
      <trkpt lat="36.98735" lon="28.26633">
        <ele>13.2</ele>
      </trkpt>
      <trkpt lat="36.98729" lon="28.26635">
        <ele>13</ele>
      </trkpt>
      <trkpt lat="36.98725" lon="28.26637">
        <ele>12.9</ele>
      </trkpt>
      <trkpt lat="36.98721" lon="28.2664">
        <ele>12.9</ele>
      </trkpt>
      <trkpt lat="36.98717" lon="28.26643">
        <ele>12.8</ele>
      </trkpt>
      <trkpt lat="36.98713" lon="28.26646">
        <ele>12.8</ele>
      </trkpt>
      <trkpt lat="36.98708" lon="28.26649">
        <ele>12.7</ele>
      </trkpt>
      <trkpt lat="36.98703" lon="28.26652">
        <ele>12.7</ele>
      </trkpt>
      <trkpt lat="36.98699" lon="28.26655">
        <ele>12.6</ele>
      </trkpt>
      <trkpt lat="36.98695" lon="28.26658">
        <ele>12.6</ele>
      </trkpt>
      <trkpt lat="36.9869" lon="28.26662">
        <ele>12.6</ele>
      </trkpt>
      <trkpt lat="36.98687" lon="28.26666">
        <ele>12.7</ele>
      </trkpt>
      <trkpt lat="36.98681" lon="28.26669">
        <ele>12.5</ele>
      </trkpt>
      <trkpt lat="36.98677" lon="28.26671">
        <ele>12.4</ele>
      </trkpt>
      <trkpt lat="36.98671" lon="28.26673">
        <ele>12.2</ele>
      </trkpt>
      <trkpt lat="36.98668" lon="28.26678">
        <ele>12</ele>
      </trkpt>
      <trkpt lat="36.98665" lon="28.26673">
        <ele>11.9</ele>
      </trkpt>
      <trkpt lat="36.98663" lon="28.26666">
        <ele>11.9</ele>
      </trkpt>
      <trkpt lat="36.98658" lon="28.26665">
        <ele>11.6</ele>
      </trkpt>
      <trkpt lat="36.98653" lon="28.2666">
        <ele>11.2</ele>
      </trkpt>
      <trkpt lat="36.98648" lon="28.26657">
        <ele>10.9</ele>
      </trkpt>
      <trkpt lat="36.98644" lon="28.26653">
        <ele>10.6</ele>
      </trkpt>
      <trkpt lat="36.98642" lon="28.26647">
        <ele>10.3</ele>
      </trkpt>
      <trkpt lat="36.98641" lon="28.26637">
        <ele>9.9</ele>
      </trkpt>
      <trkpt lat="36.98636" lon="28.26637">
        <ele>9.7</ele>
      </trkpt>
      <trkpt lat="36.98633" lon="28.26631">
        <ele>9.4</ele>
      </trkpt>
      <trkpt lat="36.98627" lon="28.2663">
        <ele>9.2</ele>
      </trkpt>
      <trkpt lat="36.98625" lon="28.26623">
        <ele>8.9</ele>
      </trkpt>
      <trkpt lat="36.98621" lon="28.26618">
        <ele>8.6</ele>
      </trkpt>
      <trkpt lat="36.98618" lon="28.26613">
        <ele>8.4</ele>
      </trkpt>
      <trkpt lat="36.98615" lon="28.26606">
        <ele>8.1</ele>
      </trkpt>
      <trkpt lat="36.98613" lon="28.26601">
        <ele>7.9</ele>
      </trkpt>
      <trkpt lat="36.98611" lon="28.26596">
        <ele>7.7</ele>
      </trkpt>
      <trkpt lat="36.98608" lon="28.26591">
        <ele>7.5</ele>
      </trkpt>
      <trkpt lat="36.98605" lon="28.26586">
        <ele>7.3</ele>
      </trkpt>
      <trkpt lat="36.98602" lon="28.26581">
        <ele>7.2</ele>
      </trkpt>
      <trkpt lat="36.98599" lon="28.26577">
        <ele>7.1</ele>
      </trkpt>
      <trkpt lat="36.98596" lon="28.26572">
        <ele>7</ele>
      </trkpt>
      <trkpt lat="36.98592" lon="28.26567">
        <ele>6.9</ele>
      </trkpt>
      <trkpt lat="36.9859" lon="28.26561">
        <ele>6.8</ele>
      </trkpt>
      <trkpt lat="36.98587" lon="28.26556">
        <ele>6.7</ele>
      </trkpt>
      <trkpt lat="36.98583" lon="28.26551">
        <ele>6.6</ele>
      </trkpt>
      <trkpt lat="36.9858" lon="28.26547">
        <ele>6.5</ele>
      </trkpt>
      <trkpt lat="36.98576" lon="28.26541">
        <ele>6.4</ele>
      </trkpt>
      <trkpt lat="36.98572" lon="28.26538">
        <ele>6.3</ele>
      </trkpt>
      <trkpt lat="36.98569" lon="28.26534">
        <ele>6.2</ele>
      </trkpt>
      <trkpt lat="36.98566" lon="28.26529">
        <ele>6.1</ele>
      </trkpt>
      <trkpt lat="36.98564" lon="28.26523">
        <ele>6</ele>
      </trkpt>
      <trkpt lat="36.9856" lon="28.26519">
        <ele>5.9</ele>
      </trkpt>
      <trkpt lat="36.98557" lon="28.26513">
        <ele>5.8</ele>
      </trkpt>
      <trkpt lat="36.98552" lon="28.26511">
        <ele>5.8</ele>
      </trkpt>
      <trkpt lat="36.98548" lon="28.26507">
        <ele>5.7</ele>
      </trkpt>
      <trkpt lat="36.98545" lon="28.26503">
        <ele>5.6</ele>
      </trkpt>
      <trkpt lat="36.98541" lon="28.26498">
        <ele>5.5</ele>
      </trkpt>
      <trkpt lat="36.98536" lon="28.26493">
        <ele>5.4</ele>
      </trkpt>
      <trkpt lat="36.98532" lon="28.26489">
        <ele>5.3</ele>
      </trkpt>
      <trkpt lat="36.98528" lon="28.26486">
        <ele>5.2</ele>
      </trkpt>
      <trkpt lat="36.98524" lon="28.26481">
        <ele>5.2</ele>
      </trkpt>
      <trkpt lat="36.9852" lon="28.26478">
        <ele>5.1</ele>
      </trkpt>
      <trkpt lat="36.98515" lon="28.2648">
        <ele>5.1</ele>
      </trkpt>
      <trkpt lat="36.9851" lon="28.26478">
        <ele>5.1</ele>
      </trkpt>
      <trkpt lat="36.98506" lon="28.26477">
        <ele>5</ele>
      </trkpt>
      <trkpt lat="36.98502" lon="28.26481">
        <ele>5</ele>
      </trkpt>
      <trkpt lat="36.98497" lon="28.26483">
        <ele>5</ele>
      </trkpt>
      <trkpt lat="36.98498" lon="28.26475">
        <ele>5</ele>
      </trkpt>
      <trkpt lat="36.98493" lon="28.26473">
        <ele>5</ele>
      </trkpt>
      <trkpt lat="36.98492" lon="28.26482">
        <ele>5</ele>
      </trkpt>
      <trkpt lat="36.98487" lon="28.26489">
        <ele>5</ele>
      </trkpt>
      <trkpt lat="36.9849" lon="28.26496">
        <ele>5</ele>
      </trkpt>
      <trkpt lat="36.98485" lon="28.26498">
        <ele>5</ele>
      </trkpt>
      <trkpt lat="36.98482" lon="28.26504">
        <ele>5</ele>
      </trkpt>
      <trkpt lat="36.98487" lon="28.26508">
        <ele>5.1</ele>
      </trkpt>
      <trkpt lat="36.98483" lon="28.26504">
        <ele>5</ele>
      </trkpt>
      <trkpt lat="36.98477" lon="28.26509">
        <ele>5.1</ele>
      </trkpt>
      <trkpt lat="36.98472" lon="28.26516">
        <ele>5.1</ele>
      </trkpt>
      <trkpt lat="36.98467" lon="28.26522">
        <ele>5.2</ele>
      </trkpt>
      <trkpt lat="36.98463" lon="28.26525">
        <ele>5.2</ele>
      </trkpt>
      <trkpt lat="36.98461" lon="28.2653">
        <ele>5.2</ele>
      </trkpt>
      <trkpt lat="36.98457" lon="28.26535">
        <ele>5.2</ele>
      </trkpt>
      <trkpt lat="36.98453" lon="28.26539">
        <ele>5.2</ele>
      </trkpt>
      <trkpt lat="36.98449" lon="28.26545">
        <ele>5.2</ele>
      </trkpt>
      <trkpt lat="36.98447" lon="28.2655">
        <ele>5.2</ele>
      </trkpt>
      <trkpt lat="36.98442" lon="28.26553">
        <ele>5.2</ele>
      </trkpt>
      <trkpt lat="36.98439" lon="28.26559">
        <ele>5.2</ele>
      </trkpt>
      <trkpt lat="36.98434" lon="28.26561">
        <ele>5.1</ele>
      </trkpt>
      <trkpt lat="36.98433" lon="28.26566">
        <ele>5.2</ele>
      </trkpt>
      <trkpt lat="36.98429" lon="28.26573">
        <ele>5.1</ele>
      </trkpt>
      <trkpt lat="36.98425" lon="28.26578">
        <ele>5.1</ele>
      </trkpt>
      <trkpt lat="36.98421" lon="28.26576">
        <ele>5</ele>
      </trkpt>
      <trkpt lat="36.98419" lon="28.26581">
        <ele>5</ele>
      </trkpt>
      <trkpt lat="36.98415" lon="28.26578">
        <ele>5</ele>
      </trkpt>
      <trkpt lat="36.9841" lon="28.26576">
        <ele>5</ele>
      </trkpt>
      <trkpt lat="36.98404" lon="28.26575">
        <ele>5</ele>
      </trkpt>
      <trkpt lat="36.98399" lon="28.26575">
        <ele>5</ele>
      </trkpt>
      <trkpt lat="36.98394" lon="28.26573">
        <ele>5</ele>
      </trkpt>
      <trkpt lat="36.98389" lon="28.2657">
        <ele>4.9</ele>
      </trkpt>
      <trkpt lat="36.98385" lon="28.26567">
        <ele>4.9</ele>
      </trkpt>
      <trkpt lat="36.98381" lon="28.26564">
        <ele>4.9</ele>
      </trkpt>
      <trkpt lat="36.98377" lon="28.2656">
        <ele>4.9</ele>
      </trkpt>
      <trkpt lat="36.98372" lon="28.26556">
        <ele>4.8</ele>
      </trkpt>
      <trkpt lat="36.98368" lon="28.26555">
        <ele>4.8</ele>
      </trkpt>
      <trkpt lat="36.98363" lon="28.26552">
        <ele>4.8</ele>
      </trkpt>
      <trkpt lat="36.98359" lon="28.2655">
        <ele>4.7</ele>
      </trkpt>
      <trkpt lat="36.98354" lon="28.26547">
        <ele>4.7</ele>
      </trkpt>
      <trkpt lat="36.98349" lon="28.26545">
        <ele>4.6</ele>
      </trkpt>
      <trkpt lat="36.98345" lon="28.26543">
        <ele>4.6</ele>
      </trkpt>
      <trkpt lat="36.98339" lon="28.2654">
        <ele>4.5</ele>
      </trkpt>
      <trkpt lat="36.98334" lon="28.26537">
        <ele>4.4</ele>
      </trkpt>
      <trkpt lat="36.98329" lon="28.26535">
        <ele>4.4</ele>
      </trkpt>
      <trkpt lat="36.98325" lon="28.26533">
        <ele>4.4</ele>
      </trkpt>
      <trkpt lat="36.9832" lon="28.26531">
        <ele>4.4</ele>
      </trkpt>
      <trkpt lat="36.98315" lon="28.26529">
        <ele>4.4</ele>
      </trkpt>
      <trkpt lat="36.9831" lon="28.26529">
        <ele>4.3</ele>
      </trkpt>
      <trkpt lat="36.98304" lon="28.2653">
        <ele>4.4</ele>
      </trkpt>
      <trkpt lat="36.98299" lon="28.2653">
        <ele>4.4</ele>
      </trkpt>
      <trkpt lat="36.98295" lon="28.26531">
        <ele>4.4</ele>
      </trkpt>
      <trkpt lat="36.9829" lon="28.26533">
        <ele>4.4</ele>
      </trkpt>
      <trkpt lat="36.98284" lon="28.26535">
        <ele>4.4</ele>
      </trkpt>
      <trkpt lat="36.98279" lon="28.26535">
        <ele>4.4</ele>
      </trkpt>
      <trkpt lat="36.98274" lon="28.26536">
        <ele>4.4</ele>
      </trkpt>
      <trkpt lat="36.98269" lon="28.26537">
        <ele>4.4</ele>
      </trkpt>
      <trkpt lat="36.98263" lon="28.26537">
        <ele>4.4</ele>
      </trkpt>
      <trkpt lat="36.98258" lon="28.2654">
        <ele>4.5</ele>
      </trkpt>
      <trkpt lat="36.98253" lon="28.26541">
        <ele>4.5</ele>
      </trkpt>
      <trkpt lat="36.98248" lon="28.26542">
        <ele>4.5</ele>
      </trkpt>
      <trkpt lat="36.98243" lon="28.26544">
        <ele>4.6</ele>
      </trkpt>
      <trkpt lat="36.98238" lon="28.26545">
        <ele>4.7</ele>
      </trkpt>
      <trkpt lat="36.98233" lon="28.26546">
        <ele>4.7</ele>
      </trkpt>
      <trkpt lat="36.98228" lon="28.26547">
        <ele>4.8</ele>
      </trkpt>
      <trkpt lat="36.98224" lon="28.26545">
        <ele>4.8</ele>
      </trkpt>
      <trkpt lat="36.9822" lon="28.26541">
        <ele>4.9</ele>
      </trkpt>
      <trkpt lat="36.98216" lon="28.26538">
        <ele>4.9</ele>
      </trkpt>
      <trkpt lat="36.98212" lon="28.26533">
        <ele>5</ele>
      </trkpt>
      <trkpt lat="36.98208" lon="28.26528">
        <ele>5</ele>
      </trkpt>
      <trkpt lat="36.98205" lon="28.26524">
        <ele>5.1</ele>
      </trkpt>
      <trkpt lat="36.98201" lon="28.2652">
        <ele>5.1</ele>
      </trkpt>
      <trkpt lat="36.98197" lon="28.26517">
        <ele>5.2</ele>
      </trkpt>
      <trkpt lat="36.98195" lon="28.26511">
        <ele>5.3</ele>
      </trkpt>
      <trkpt lat="36.9819" lon="28.26507">
        <ele>5.4</ele>
      </trkpt>
      <trkpt lat="36.98187" lon="28.26503">
        <ele>5.5</ele>
      </trkpt>
      <trkpt lat="36.98183" lon="28.26498">
        <ele>5.6</ele>
      </trkpt>
      <trkpt lat="36.98179" lon="28.26494">
        <ele>5.7</ele>
      </trkpt>
      <trkpt lat="36.98175" lon="28.2649">
        <ele>5.7</ele>
      </trkpt>
      <trkpt lat="36.98172" lon="28.26486">
        <ele>5.7</ele>
      </trkpt>
      <trkpt lat="36.98168" lon="28.26482">
        <ele>5.8</ele>
      </trkpt>
      <trkpt lat="36.98164" lon="28.26477">
        <ele>5.7</ele>
      </trkpt>
      <trkpt lat="36.9816" lon="28.26473">
        <ele>5.7</ele>
      </trkpt>
      <trkpt lat="36.98156" lon="28.26469">
        <ele>5.6</ele>
      </trkpt>
      <trkpt lat="36.98152" lon="28.26465">
        <ele>5.6</ele>
      </trkpt>
      <trkpt lat="36.98148" lon="28.26461">
        <ele>5.5</ele>
      </trkpt>
      <trkpt lat="36.98144" lon="28.26457">
        <ele>5.5</ele>
      </trkpt>
      <trkpt lat="36.98141" lon="28.26451">
        <ele>5.4</ele>
      </trkpt>
      <trkpt lat="36.98137" lon="28.26446">
        <ele>5.4</ele>
      </trkpt>
      <trkpt lat="36.98133" lon="28.26442">
        <ele>5.3</ele>
      </trkpt>
      <trkpt lat="36.98129" lon="28.26438">
        <ele>5.3</ele>
      </trkpt>
      <trkpt lat="36.98126" lon="28.26434">
        <ele>5.2</ele>
      </trkpt>
      <trkpt lat="36.98122" lon="28.26428">
        <ele>5.1</ele>
      </trkpt>
      <trkpt lat="36.98118" lon="28.26424">
        <ele>5.1</ele>
      </trkpt>
      <trkpt lat="36.98114" lon="28.2642">
        <ele>5</ele>
      </trkpt>
      <trkpt lat="36.98111" lon="28.26415">
        <ele>5</ele>
      </trkpt>
      <trkpt lat="36.98107" lon="28.26411">
        <ele>4.9</ele>
      </trkpt>
      <trkpt lat="36.98104" lon="28.26406">
        <ele>4.8</ele>
      </trkpt>
      <trkpt lat="36.981" lon="28.26402">
        <ele>4.8</ele>
      </trkpt>
      <trkpt lat="36.98096" lon="28.26398">
        <ele>4.7</ele>
      </trkpt>
      <trkpt lat="36.98092" lon="28.26394">
        <ele>4.7</ele>
      </trkpt>
      <trkpt lat="36.98088" lon="28.2639">
        <ele>4.7</ele>
      </trkpt>
      <trkpt lat="36.98084" lon="28.26387">
        <ele>4.6</ele>
      </trkpt>
      <trkpt lat="36.98079" lon="28.26384">
        <ele>4.6</ele>
      </trkpt>
      <trkpt lat="36.98073" lon="28.26383">
        <ele>4.5</ele>
      </trkpt>
      <trkpt lat="36.9789" lon="28.26243">
        <ele>7.8</ele>
      </trkpt>
      <trkpt lat="36.97895" lon="28.26211">
        <ele>8.6</ele>
      </trkpt>
      <trkpt lat="36.97895" lon="28.26196">
        <ele>9.1</ele>
      </trkpt>
      <trkpt lat="36.97896" lon="28.26168">
        <ele>9.9</ele>
      </trkpt>
      <trkpt lat="36.979" lon="28.26148">
        <ele>10.7</ele>
      </trkpt>
      <trkpt lat="36.9791" lon="28.26101">
        <ele>11.7</ele>
      </trkpt>
      <trkpt lat="36.97917" lon="28.26049">
        <ele>11.4</ele>
      </trkpt>
      <trkpt lat="36.97919" lon="28.26036">
        <ele>11.4</ele>
      </trkpt>
      <trkpt lat="36.97935" lon="28.25969">
        <ele>10.4</ele>
      </trkpt>
      <trkpt lat="36.97954" lon="28.25916">
        <ele>8.9</ele>
      </trkpt>
      <trkpt lat="36.97988" lon="28.25888">
        <ele>11.4</ele>
      </trkpt>
      <trkpt lat="36.98004" lon="28.25879">
        <ele>11.7</ele>
      </trkpt>
      <trkpt lat="36.98018" lon="28.25869">
        <ele>12.1</ele>
      </trkpt>
      <trkpt lat="36.98031" lon="28.2584">
        <ele>14.2</ele>
      </trkpt>
      <trkpt lat="36.98053" lon="28.25787">
        <ele>16.8</ele>
      </trkpt>
      <trkpt lat="36.98081" lon="28.25754">
        <ele>15</ele>
      </trkpt>
      <trkpt lat="36.98095" lon="28.2573">
        <ele>14.2</ele>
      </trkpt>
      <trkpt lat="36.981" lon="28.25719">
        <ele>14</ele>
      </trkpt>
      <trkpt lat="36.98121" lon="28.25656">
        <ele>13.5</ele>
      </trkpt>
      <trkpt lat="36.98112" lon="28.25584">
        <ele>11.7</ele>
      </trkpt>
      <trkpt lat="36.98096" lon="28.25503">
        <ele>10.6</ele>
      </trkpt>
      <trkpt lat="36.98092" lon="28.25486">
        <ele>11</ele>
      </trkpt>
      <trkpt lat="36.98092" lon="28.25442">
        <ele>12</ele>
      </trkpt>
      <trkpt lat="36.98111" lon="28.25414">
        <ele>11.8</ele>
      </trkpt>
      <trkpt lat="36.9821" lon="28.25298">
        <ele>10.2</ele>
      </trkpt>
      <trkpt lat="36.98266" lon="28.25233">
        <ele>10.5</ele>
      </trkpt>
      <trkpt lat="36.98289" lon="28.25207">
        <ele>11.9</ele>
      </trkpt>
      <trkpt lat="36.98294" lon="28.25201">
        <ele>12.3</ele>
      </trkpt>
      <trkpt lat="36.98299" lon="28.25195">
        <ele>12.7</ele>
      </trkpt>
      <trkpt lat="36.98311" lon="28.25183">
        <ele>13.5</ele>
      </trkpt>
      <trkpt lat="36.9835" lon="28.25162">
        <ele>15.3</ele>
      </trkpt>
      <trkpt lat="36.9836" lon="28.25159">
        <ele>15.5</ele>
      </trkpt>
      <trkpt lat="36.9836" lon="28.25159">
        <ele>15.5</ele>
      </trkpt>
      <trkpt lat="36.98371" lon="28.25156">
        <ele>15.8</ele>
      </trkpt>
      <trkpt lat="36.98395" lon="28.25156">
        <ele>15.3</ele>
      </trkpt>
      <trkpt lat="36.98436" lon="28.25149">
        <ele>15.2</ele>
      </trkpt>
      <trkpt lat="36.98467" lon="28.25128">
        <ele>17.1</ele>
      </trkpt>
      <trkpt lat="36.98475" lon="28.25124">
        <ele>17.4</ele>
      </trkpt>
      <trkpt lat="36.98499" lon="28.25117">
        <ele>17.2</ele>
      </trkpt>
      <trkpt lat="36.98548" lon="28.25133">
        <ele>17.9</ele>
      </trkpt>
      <trkpt lat="36.98569" lon="28.25152">
        <ele>15</ele>
      </trkpt>
      <trkpt lat="36.98577" lon="28.2516">
        <ele>13.5</ele>
      </trkpt>
      <trkpt lat="36.98577" lon="28.2516">
        <ele>13.5</ele>
      </trkpt>
      <trkpt lat="36.98577" lon="28.2516">
        <ele>13.5</ele>
      </trkpt>
      <trkpt lat="36.98577" lon="28.2516">
        <ele>13.5</ele>
      </trkpt>
      <trkpt lat="36.98686" lon="28.25169">
        <ele>13.9</ele>
      </trkpt>
      <trkpt lat="36.98688" lon="28.25168">
        <ele>13.9</ele>
      </trkpt>
      <trkpt lat="36.98782" lon="28.25135">
        <ele>12.8</ele>
      </trkpt>
      <trkpt lat="36.98818" lon="28.25118">
        <ele>11.5</ele>
      </trkpt>
      <trkpt lat="36.98845" lon="28.25092">
        <ele>13.7</ele>
      </trkpt>
      <trkpt lat="36.9886" lon="28.2507">
        <ele>18</ele>
      </trkpt>
      <trkpt lat="36.98861" lon="28.2507">
        <ele>18.1</ele>
      </trkpt>
      <trkpt lat="36.98862" lon="28.25069">
        <ele>18.3</ele>
      </trkpt>
      <trkpt lat="36.98864" lon="28.25069">
        <ele>18.4</ele>
      </trkpt>
      <trkpt lat="36.98865" lon="28.25068">
        <ele>18.5</ele>
      </trkpt>
      <trkpt lat="36.98866" lon="28.25067">
        <ele>18.8</ele>
      </trkpt>
      <trkpt lat="36.98867" lon="28.25065">
        <ele>19.2</ele>
      </trkpt>
      <trkpt lat="36.98869" lon="28.25064">
        <ele>19.5</ele>
      </trkpt>
      <trkpt lat="36.9887" lon="28.25063">
        <ele>19.7</ele>
      </trkpt>
      <trkpt lat="36.98871" lon="28.25062">
        <ele>19.9</ele>
      </trkpt>
      <trkpt lat="36.98873" lon="28.25061">
        <ele>20.1</ele>
      </trkpt>
      <trkpt lat="36.98874" lon="28.2506">
        <ele>20.4</ele>
      </trkpt>
      <trkpt lat="36.98875" lon="28.25059">
        <ele>20.7</ele>
      </trkpt>
      <trkpt lat="36.98876" lon="28.25057">
        <ele>21</ele>
      </trkpt>
      <trkpt lat="36.98877" lon="28.25056">
        <ele>21.3</ele>
      </trkpt>
      <trkpt lat="36.98878" lon="28.25054">
        <ele>21.6</ele>
      </trkpt>
      <trkpt lat="36.9888" lon="28.25054">
        <ele>21.8</ele>
      </trkpt>
      <trkpt lat="36.98881" lon="28.25052">
        <ele>22.1</ele>
      </trkpt>
      <trkpt lat="36.98881" lon="28.25052">
        <ele>22.1</ele>
      </trkpt>
      <trkpt lat="36.98881" lon="28.25052">
        <ele>22.1</ele>
      </trkpt>
      <trkpt lat="36.98881" lon="28.25052">
        <ele>22.1</ele>
      </trkpt>
      <trkpt lat="36.98845" lon="28.2508">
        <ele>15.7</ele>
      </trkpt>
      <trkpt lat="36.98845" lon="28.2508">
        <ele>15.7</ele>
      </trkpt>
      <trkpt lat="36.98839" lon="28.25089">
        <ele>14.2</ele>
      </trkpt>
      <trkpt lat="36.98867" lon="28.25046">
        <ele>23.4</ele>
      </trkpt>
      <trkpt lat="36.9888" lon="28.24978">
        <ele>30.8</ele>
      </trkpt>
      <trkpt lat="36.9888" lon="28.24862">
        <ele>23.1</ele>
      </trkpt>
      <trkpt lat="36.98891" lon="28.2483">
        <ele>18</ele>
      </trkpt>
      <trkpt lat="36.98876" lon="28.24748">
        <ele>24.4</ele>
      </trkpt>
      <trkpt lat="36.98874" lon="28.24712">
        <ele>29.4</ele>
      </trkpt>
      <trkpt lat="36.98884" lon="28.24686">
        <ele>26.8</ele>
      </trkpt>
      <trkpt lat="36.9891" lon="28.24656">
        <ele>17.7</ele>
      </trkpt>
      <trkpt lat="36.98938" lon="28.2457">
        <ele>24.9</ele>
      </trkpt>
      <trkpt lat="36.98944" lon="28.24544">
        <ele>26.4</ele>
      </trkpt>
      <trkpt lat="36.98964" lon="28.24523">
        <ele>22</ele>
      </trkpt>
      <trkpt lat="36.98981" lon="28.24516">
        <ele>16</ele>
      </trkpt>
      <trkpt lat="36.99004" lon="28.24486">
        <ele>12</ele>
      </trkpt>
      <trkpt lat="36.99015" lon="28.24458">
        <ele>15</ele>
      </trkpt>
      <trkpt lat="36.99019" lon="28.24433">
        <ele>17.3</ele>
      </trkpt>
      <trkpt lat="36.99013" lon="28.24405">
        <ele>23.5</ele>
      </trkpt>
      <trkpt lat="36.99017" lon="28.24385">
        <ele>28</ele>
      </trkpt>
      <trkpt lat="36.99032" lon="28.24375">
        <ele>28.5</ele>
      </trkpt>
      <trkpt lat="36.99067" lon="28.24366">
        <ele>26</ele>
      </trkpt>
      <trkpt lat="36.9911" lon="28.24328">
        <ele>28.1</ele>
      </trkpt>
      <trkpt lat="36.9914" lon="28.24293">
        <ele>26.7</ele>
      </trkpt>
      <trkpt lat="36.99172" lon="28.24261">
        <ele>22.4</ele>
      </trkpt>
      <trkpt lat="36.99191" lon="28.24233">
        <ele>23.7</ele>
      </trkpt>
      <trkpt lat="36.99206" lon="28.24167">
        <ele>32.8</ele>
      </trkpt>
      <trkpt lat="36.99213" lon="28.241">
        <ele>34.3</ele>
      </trkpt>
      <trkpt lat="36.99213" lon="28.24044">
        <ele>31.5</ele>
      </trkpt>
      <trkpt lat="36.99202" lon="28.24006">
        <ele>33.1</ele>
      </trkpt>
      <trkpt lat="36.99176" lon="28.23969">
        <ele>39.2</ele>
      </trkpt>
      <trkpt lat="36.9915" lon="28.23922">
        <ele>40.6</ele>
      </trkpt>
      <trkpt lat="36.99131" lon="28.23873">
        <ele>42.5</ele>
      </trkpt>
      <trkpt lat="36.99098" lon="28.23769">
        <ele>46</ele>
      </trkpt>
      <trkpt lat="36.99093" lon="28.23746">
        <ele>45.7</ele>
      </trkpt>
      <trkpt lat="36.99093" lon="28.23746">
        <ele>45.7</ele>
      </trkpt>
      <trkpt lat="36.99097" lon="28.23765">
        <ele>46</ele>
      </trkpt>
      <trkpt lat="36.99088" lon="28.23725">
        <ele>45.9</ele>
      </trkpt>
      <trkpt lat="36.99075" lon="28.23688">
        <ele>48.9</ele>
      </trkpt>
      <trkpt lat="36.99056" lon="28.23652">
        <ele>57</ele>
      </trkpt>
      <trkpt lat="36.99041" lon="28.23611">
        <ele>65.1</ele>
      </trkpt>
      <trkpt lat="36.99056" lon="28.23574">
        <ele>58.4</ele>
      </trkpt>
      <trkpt lat="36.99065" lon="28.23561">
        <ele>54.9</ele>
      </trkpt>
      <trkpt lat="36.99067" lon="28.23542">
        <ele>55.1</ele>
      </trkpt>
      <trkpt lat="36.9906" lon="28.23534">
        <ele>58.7</ele>
      </trkpt>
      <trkpt lat="36.9905" lon="28.23549">
        <ele>63</ele>
      </trkpt>
      <trkpt lat="36.99037" lon="28.23579">
        <ele>67.8</ele>
      </trkpt>
      <trkpt lat="36.99024" lon="28.23598">
        <ele>73.9</ele>
      </trkpt>
      <trkpt lat="36.99019" lon="28.23624">
        <ele>75.7</ele>
      </trkpt>
      <trkpt lat="36.99024" lon="28.23645">
        <ele>73.3</ele>
      </trkpt>
      <trkpt lat="36.99032" lon="28.23671">
        <ele>69.1</ele>
      </trkpt>
      <trkpt lat="36.99035" lon="28.23682">
        <ele>68.9</ele>
      </trkpt>
      <trkpt lat="36.99028" lon="28.2369">
        <ele>72.9</ele>
      </trkpt>
      <trkpt lat="36.99019" lon="28.23684">
        <ele>76.7</ele>
      </trkpt>
      <trkpt lat="36.99007" lon="28.23624">
        <ele>82.2</ele>
      </trkpt>
      <trkpt lat="36.99" lon="28.23602">
        <ele>85.7</ele>
      </trkpt>
      <trkpt lat="36.99002" lon="28.23579">
        <ele>85</ele>
      </trkpt>
      <trkpt lat="36.99015" lon="28.23546">
        <ele>80</ele>
      </trkpt>
      <trkpt lat="36.99013" lon="28.23525">
        <ele>81.9</ele>
      </trkpt>
      <trkpt lat="36.99007" lon="28.23501">
        <ele>85.9</ele>
      </trkpt>
      <trkpt lat="36.99005" lon="28.23452">
        <ele>85.6</ele>
      </trkpt>
      <trkpt lat="36.99009" lon="28.23449">
        <ele>84</ele>
      </trkpt>
      <trkpt lat="36.99008" lon="28.23442">
        <ele>84.5</ele>
      </trkpt>
      <trkpt lat="36.99005" lon="28.23437">
        <ele>85.3</ele>
      </trkpt>
      <trkpt lat="36.99007" lon="28.23431">
        <ele>84.5</ele>
      </trkpt>
      <trkpt lat="36.99005" lon="28.23425">
        <ele>85.3</ele>
      </trkpt>
      <trkpt lat="36.99004" lon="28.23419">
        <ele>85.5</ele>
      </trkpt>
      <trkpt lat="36.99001" lon="28.23415">
        <ele>86.3</ele>
      </trkpt>
      <trkpt lat="36.98999" lon="28.2341">
        <ele>86.7</ele>
      </trkpt>
      <trkpt lat="36.98996" lon="28.23403">
        <ele>86.6</ele>
      </trkpt>
      <trkpt lat="36.98991" lon="28.23399">
        <ele>86.7</ele>
      </trkpt>
      <trkpt lat="36.98997" lon="28.23397">
        <ele>86.1</ele>
      </trkpt>
      <trkpt lat="36.98993" lon="28.23392">
        <ele>86.1</ele>
      </trkpt>
      <trkpt lat="36.98991" lon="28.23387">
        <ele>86</ele>
      </trkpt>
      <trkpt lat="36.98987" lon="28.23384">
        <ele>86.1</ele>
      </trkpt>
      <trkpt lat="36.98983" lon="28.23379">
        <ele>86</ele>
      </trkpt>
      <trkpt lat="36.98977" lon="28.23378">
        <ele>86.4</ele>
      </trkpt>
      <trkpt lat="36.98973" lon="28.23375">
        <ele>86.4</ele>
      </trkpt>
      <trkpt lat="36.98967" lon="28.2337">
        <ele>86.5</ele>
      </trkpt>
      <trkpt lat="36.98963" lon="28.23367">
        <ele>86.5</ele>
      </trkpt>
      <trkpt lat="36.9896" lon="28.23362">
        <ele>86.3</ele>
      </trkpt>
      <trkpt lat="36.98956" lon="28.23359">
        <ele>86.4</ele>
      </trkpt>
      <trkpt lat="36.98951" lon="28.23355">
        <ele>86.2</ele>
      </trkpt>
      <trkpt lat="36.98947" lon="28.23348">
        <ele>85.9</ele>
      </trkpt>
      <trkpt lat="36.98943" lon="28.23345">
        <ele>85.8</ele>
      </trkpt>
      <trkpt lat="36.98941" lon="28.2334">
        <ele>85.5</ele>
      </trkpt>
      <trkpt lat="36.98937" lon="28.23336">
        <ele>85.2</ele>
      </trkpt>
      <trkpt lat="36.98936" lon="28.2333">
        <ele>84.9</ele>
      </trkpt>
      <trkpt lat="36.98932" lon="28.23325">
        <ele>84.8</ele>
      </trkpt>
      <trkpt lat="36.98931" lon="28.23319">
        <ele>84.5</ele>
      </trkpt>
      <trkpt lat="36.98927" lon="28.23315">
        <ele>84.5</ele>
      </trkpt>
      <trkpt lat="36.98923" lon="28.23311">
        <ele>84.4</ele>
      </trkpt>
      <trkpt lat="36.98927" lon="28.23307">
        <ele>84</ele>
      </trkpt>
      <trkpt lat="36.98927" lon="28.23302">
        <ele>83.7</ele>
      </trkpt>
      <trkpt lat="36.98924" lon="28.23294">
        <ele>83.4</ele>
      </trkpt>
      <trkpt lat="36.98925" lon="28.23287">
        <ele>82.9</ele>
      </trkpt>
      <trkpt lat="36.98928" lon="28.23282">
        <ele>82.6</ele>
      </trkpt>
      <trkpt lat="36.98924" lon="28.23277">
        <ele>82.4</ele>
      </trkpt>
      <trkpt lat="36.98927" lon="28.23271">
        <ele>81.9</ele>
      </trkpt>
      <trkpt lat="36.98923" lon="28.23266">
        <ele>81.8</ele>
      </trkpt>
      <trkpt lat="36.98922" lon="28.23259">
        <ele>81.4</ele>
      </trkpt>
      <trkpt lat="36.98924" lon="28.23254">
        <ele>81</ele>
      </trkpt>
      <trkpt lat="36.98924" lon="28.23248">
        <ele>80.8</ele>
      </trkpt>
      <trkpt lat="36.98924" lon="28.23242">
        <ele>80.6</ele>
      </trkpt>
      <trkpt lat="36.98924" lon="28.23234">
        <ele>80.5</ele>
      </trkpt>
      <trkpt lat="36.98924" lon="28.23227">
        <ele>80.3</ele>
      </trkpt>
      <trkpt lat="36.98925" lon="28.23221">
        <ele>80.2</ele>
      </trkpt>
      <trkpt lat="36.98927" lon="28.23215">
        <ele>80</ele>
      </trkpt>
      <trkpt lat="36.98928" lon="28.23208">
        <ele>79.9</ele>
      </trkpt>
      <trkpt lat="36.98929" lon="28.23202">
        <ele>79.7</ele>
      </trkpt>
      <trkpt lat="36.9893" lon="28.23195">
        <ele>79.6</ele>
      </trkpt>
      <trkpt lat="36.98932" lon="28.2319">
        <ele>79.5</ele>
      </trkpt>
      <trkpt lat="36.98934" lon="28.23184">
        <ele>79.3</ele>
      </trkpt>
      <trkpt lat="36.98935" lon="28.23177">
        <ele>79.2</ele>
      </trkpt>
      <trkpt lat="36.98934" lon="28.23172">
        <ele>79.1</ele>
      </trkpt>
      <trkpt lat="36.98936" lon="28.23166">
        <ele>79</ele>
      </trkpt>
      <trkpt lat="36.98938" lon="28.2316">
        <ele>78.9</ele>
      </trkpt>
      <trkpt lat="36.98941" lon="28.23154">
        <ele>78.7</ele>
      </trkpt>
      <trkpt lat="36.98941" lon="28.23148">
        <ele>78.6</ele>
      </trkpt>
      <trkpt lat="36.98942" lon="28.23141">
        <ele>78.5</ele>
      </trkpt>
      <trkpt lat="36.98941" lon="28.23135">
        <ele>78.4</ele>
      </trkpt>
      <trkpt lat="36.9894" lon="28.23129">
        <ele>78.2</ele>
      </trkpt>
      <trkpt lat="36.98941" lon="28.23122">
        <ele>78.1</ele>
      </trkpt>
      <trkpt lat="36.98941" lon="28.23116">
        <ele>78</ele>
      </trkpt>
      <trkpt lat="36.98942" lon="28.23109">
        <ele>77.8</ele>
      </trkpt>
      <trkpt lat="36.9894" lon="28.23104">
        <ele>77.7</ele>
      </trkpt>
      <trkpt lat="36.98939" lon="28.23097">
        <ele>77.6</ele>
      </trkpt>
      <trkpt lat="36.98941" lon="28.23092">
        <ele>77.5</ele>
      </trkpt>
      <trkpt lat="36.98941" lon="28.23086">
        <ele>77.4</ele>
      </trkpt>
      <trkpt lat="36.9894" lon="28.2308">
        <ele>77.2</ele>
      </trkpt>
      <trkpt lat="36.98938" lon="28.23073">
        <ele>76.9</ele>
      </trkpt>
      <trkpt lat="36.98936" lon="28.23067">
        <ele>76.7</ele>
      </trkpt>
      <trkpt lat="36.98934" lon="28.23061">
        <ele>76.5</ele>
      </trkpt>
      <trkpt lat="36.98934" lon="28.23054">
        <ele>76.3</ele>
      </trkpt>
      <trkpt lat="36.98932" lon="28.23049">
        <ele>76.1</ele>
      </trkpt>
      <trkpt lat="36.98931" lon="28.23043">
        <ele>75.9</ele>
      </trkpt>
      <trkpt lat="36.98928" lon="28.23036">
        <ele>75.6</ele>
      </trkpt>
      <trkpt lat="36.98925" lon="28.2303">
        <ele>75.3</ele>
      </trkpt>
      <trkpt lat="36.98923" lon="28.23024">
        <ele>75</ele>
      </trkpt>
      <trkpt lat="36.9892" lon="28.23019">
        <ele>74.8</ele>
      </trkpt>
      <trkpt lat="36.98917" lon="28.23015">
        <ele>74.5</ele>
      </trkpt>
      <trkpt lat="36.98913" lon="28.23009">
        <ele>74.5</ele>
      </trkpt>
      <trkpt lat="36.98908" lon="28.23005">
        <ele>74.4</ele>
      </trkpt>
      <trkpt lat="36.98904" lon="28.23001">
        <ele>74.4</ele>
      </trkpt>
      <trkpt lat="36.98901" lon="28.22995">
        <ele>74.1</ele>
      </trkpt>
      <trkpt lat="36.98897" lon="28.22991">
        <ele>73.9</ele>
      </trkpt>
      <trkpt lat="36.98895" lon="28.22986">
        <ele>73.6</ele>
      </trkpt>
      <trkpt lat="36.9889" lon="28.22984">
        <ele>73.5</ele>
      </trkpt>
      <trkpt lat="36.98887" lon="28.2298">
        <ele>73.3</ele>
      </trkpt>
      <trkpt lat="36.98885" lon="28.22973">
        <ele>72.9</ele>
      </trkpt>
      <trkpt lat="36.98882" lon="28.22969">
        <ele>72.6</ele>
      </trkpt>
      <trkpt lat="36.9888" lon="28.22964">
        <ele>72.3</ele>
      </trkpt>
      <trkpt lat="36.98876" lon="28.22959">
        <ele>72</ele>
      </trkpt>
      <trkpt lat="36.98873" lon="28.22954">
        <ele>71.7</ele>
      </trkpt>
      <trkpt lat="36.98872" lon="28.22947">
        <ele>71.2</ele>
      </trkpt>
      <trkpt lat="36.98874" lon="28.22941">
        <ele>70.8</ele>
      </trkpt>
      <trkpt lat="36.98871" lon="28.22936">
        <ele>70.4</ele>
      </trkpt>
      <trkpt lat="36.9887" lon="28.22931">
        <ele>70</ele>
      </trkpt>
      <trkpt lat="36.98864" lon="28.22931">
        <ele>70</ele>
      </trkpt>
      <trkpt lat="36.9886" lon="28.22926">
        <ele>69.7</ele>
      </trkpt>
      <trkpt lat="36.98856" lon="28.22921">
        <ele>69.3</ele>
      </trkpt>
      <trkpt lat="36.98856" lon="28.22915">
        <ele>68.8</ele>
      </trkpt>
      <trkpt lat="36.98856" lon="28.22908">
        <ele>68.2</ele>
      </trkpt>
      <trkpt lat="36.98852" lon="28.22902">
        <ele>67.6</ele>
      </trkpt>
      <trkpt lat="36.98847" lon="28.22899">
        <ele>67.2</ele>
      </trkpt>
      <trkpt lat="36.98844" lon="28.22895">
        <ele>66.7</ele>
      </trkpt>
      <trkpt lat="36.98841" lon="28.2289">
        <ele>66.2</ele>
      </trkpt>
      <trkpt lat="36.98841" lon="28.22883">
        <ele>65.5</ele>
      </trkpt>
      <trkpt lat="36.9884" lon="28.22876">
        <ele>64.7</ele>
      </trkpt>
      <trkpt lat="36.98833" lon="28.22874">
        <ele>64.4</ele>
      </trkpt>
      <trkpt lat="36.98829" lon="28.22868">
        <ele>63.7</ele>
      </trkpt>
      <trkpt lat="36.98826" lon="28.22864">
        <ele>63.1</ele>
      </trkpt>
      <trkpt lat="36.9882" lon="28.22866">
        <ele>63.2</ele>
      </trkpt>
      <trkpt lat="36.98816" lon="28.22861">
        <ele>62.6</ele>
      </trkpt>
      <trkpt lat="36.98812" lon="28.2286">
        <ele>62.3</ele>
      </trkpt>
      <trkpt lat="36.98806" lon="28.22859">
        <ele>62</ele>
      </trkpt>
      <trkpt lat="36.98802" lon="28.22855">
        <ele>61.5</ele>
      </trkpt>
      <trkpt lat="36.98797" lon="28.22854">
        <ele>61.3</ele>
      </trkpt>
      <trkpt lat="36.98792" lon="28.2285">
        <ele>60.6</ele>
      </trkpt>
      <trkpt lat="36.98786" lon="28.22849">
        <ele>60.4</ele>
      </trkpt>
      <trkpt lat="36.98783" lon="28.22846">
        <ele>59.8</ele>
      </trkpt>
      <trkpt lat="36.98778" lon="28.22845">
        <ele>59.5</ele>
      </trkpt>
      <trkpt lat="36.98772" lon="28.22844">
        <ele>59.2</ele>
      </trkpt>
      <trkpt lat="36.98766" lon="28.22843">
        <ele>58.9</ele>
      </trkpt>
      <trkpt lat="36.9876" lon="28.22844">
        <ele>58.8</ele>
      </trkpt>
      <trkpt lat="36.98754" lon="28.22844">
        <ele>58.7</ele>
      </trkpt>
      <trkpt lat="36.9875" lon="28.22841">
        <ele>58.1</ele>
      </trkpt>
      <trkpt lat="36.98744" lon="28.22842">
        <ele>58.4</ele>
      </trkpt>
      <trkpt lat="36.98738" lon="28.2284">
        <ele>58.3</ele>
      </trkpt>
      <trkpt lat="36.98733" lon="28.2284">
        <ele>58.6</ele>
      </trkpt>
      <trkpt lat="36.98727" lon="28.22837">
        <ele>58.3</ele>
      </trkpt>
      <trkpt lat="36.98722" lon="28.22833">
        <ele>58</ele>
      </trkpt>
      <trkpt lat="36.98716" lon="28.22833">
        <ele>58.2</ele>
      </trkpt>
      <trkpt lat="36.98712" lon="28.22831">
        <ele>58.2</ele>
      </trkpt>
      <trkpt lat="36.98713" lon="28.22824">
        <ele>57.5</ele>
      </trkpt>
      <trkpt lat="36.98712" lon="28.22818">
        <ele>57.1</ele>
      </trkpt>
      <trkpt lat="36.98708" lon="28.22814">
        <ele>56.9</ele>
      </trkpt>
      <trkpt lat="36.98709" lon="28.22807">
        <ele>56.3</ele>
      </trkpt>
      <trkpt lat="36.98704" lon="28.22803">
        <ele>56.2</ele>
      </trkpt>
      <trkpt lat="36.98699" lon="28.228">
        <ele>56.2</ele>
      </trkpt>
      <trkpt lat="36.98696" lon="28.22797">
        <ele>56.1</ele>
      </trkpt>
      <trkpt lat="36.9869" lon="28.22795">
        <ele>56.3</ele>
      </trkpt>
      <trkpt lat="36.98686" lon="28.22792">
        <ele>56.4</ele>
      </trkpt>
      <trkpt lat="36.98682" lon="28.22788">
        <ele>56.4</ele>
      </trkpt>
      <trkpt lat="36.98677" lon="28.22787">
        <ele>56.6</ele>
      </trkpt>
      <trkpt lat="36.98673" lon="28.22783">
        <ele>56.6</ele>
      </trkpt>
      <trkpt lat="36.9867" lon="28.22777">
        <ele>56.4</ele>
      </trkpt>
      <trkpt lat="36.98671" lon="28.22769">
        <ele>55.9</ele>
      </trkpt>
      <trkpt lat="36.98675" lon="28.22764">
        <ele>55.2</ele>
      </trkpt>
      <trkpt lat="36.98678" lon="28.22758">
        <ele>54.6</ele>
      </trkpt>
      <trkpt lat="36.98681" lon="28.22753">
        <ele>54</ele>
      </trkpt>
      <trkpt lat="36.98684" lon="28.22748">
        <ele>53.5</ele>
      </trkpt>
      <trkpt lat="36.98686" lon="28.22742">
        <ele>53</ele>
      </trkpt>
      <trkpt lat="36.98688" lon="28.22737">
        <ele>52.5</ele>
      </trkpt>
      <trkpt lat="36.98691" lon="28.22732">
        <ele>52</ele>
      </trkpt>
      <trkpt lat="36.98694" lon="28.22728">
        <ele>51.5</ele>
      </trkpt>
      <trkpt lat="36.98696" lon="28.22722">
        <ele>51.1</ele>
      </trkpt>
      <trkpt lat="36.98699" lon="28.22718">
        <ele>50.6</ele>
      </trkpt>
      <trkpt lat="36.98701" lon="28.22711">
        <ele>50.1</ele>
      </trkpt>
      <trkpt lat="36.98702" lon="28.22705">
        <ele>49.6</ele>
      </trkpt>
      <trkpt lat="36.98705" lon="28.227">
        <ele>49.1</ele>
      </trkpt>
      <trkpt lat="36.98709" lon="28.22697">
        <ele>48.5</ele>
      </trkpt>
      <trkpt lat="36.98711" lon="28.22689">
        <ele>48</ele>
      </trkpt>
      <trkpt lat="36.98715" lon="28.22685">
        <ele>47.4</ele>
      </trkpt>
      <trkpt lat="36.98718" lon="28.22679">
        <ele>46.7</ele>
      </trkpt>
      <trkpt lat="36.98722" lon="28.22674">
        <ele>46.1</ele>
      </trkpt>
      <trkpt lat="36.98724" lon="28.22669">
        <ele>45.6</ele>
      </trkpt>
      <trkpt lat="36.98727" lon="28.22663">
        <ele>45</ele>
      </trkpt>
      <trkpt lat="36.98727" lon="28.22657">
        <ele>44.5</ele>
      </trkpt>
      <trkpt lat="36.98728" lon="28.2265">
        <ele>43.9</ele>
      </trkpt>
      <trkpt lat="36.98728" lon="28.22643">
        <ele>43.5</ele>
      </trkpt>
      <trkpt lat="36.98728" lon="28.22637">
        <ele>43.2</ele>
      </trkpt>
      <trkpt lat="36.98729" lon="28.22631">
        <ele>42.6</ele>
      </trkpt>
      <trkpt lat="36.98728" lon="28.22625">
        <ele>42.3</ele>
      </trkpt>
      <trkpt lat="36.98727" lon="28.22619">
        <ele>42</ele>
      </trkpt>
      <trkpt lat="36.98724" lon="28.22613">
        <ele>41.9</ele>
      </trkpt>
      <trkpt lat="36.98724" lon="28.22606">
        <ele>41.4</ele>
      </trkpt>
      <trkpt lat="36.98724" lon="28.226">
        <ele>41</ele>
      </trkpt>
      <trkpt lat="36.98721" lon="28.22594">
        <ele>40.8</ele>
      </trkpt>
      <trkpt lat="36.9872" lon="28.22588">
        <ele>40.5</ele>
      </trkpt>
      <trkpt lat="36.9872" lon="28.22582">
        <ele>40.1</ele>
      </trkpt>
      <trkpt lat="36.98719" lon="28.22576">
        <ele>39.7</ele>
      </trkpt>
      <trkpt lat="36.98718" lon="28.2257">
        <ele>39.4</ele>
      </trkpt>
      <trkpt lat="36.98718" lon="28.22564">
        <ele>39</ele>
      </trkpt>
      <trkpt lat="36.98717" lon="28.22558">
        <ele>38.6</ele>
      </trkpt>
      <trkpt lat="36.98716" lon="28.22551">
        <ele>38.1</ele>
      </trkpt>
      <trkpt lat="36.98715" lon="28.22545">
        <ele>37.8</ele>
      </trkpt>
      <trkpt lat="36.98713" lon="28.22539">
        <ele>37.5</ele>
      </trkpt>
      <trkpt lat="36.98714" lon="28.22533">
        <ele>37</ele>
      </trkpt>
      <trkpt lat="36.98714" lon="28.22527">
        <ele>36.6</ele>
      </trkpt>
      <trkpt lat="36.98714" lon="28.22521">
        <ele>36.1</ele>
      </trkpt>
      <trkpt lat="36.98714" lon="28.22515">
        <ele>35.7</ele>
      </trkpt>
      <trkpt lat="36.98715" lon="28.22509">
        <ele>35.2</ele>
      </trkpt>
      <trkpt lat="36.98716" lon="28.22502">
        <ele>34.6</ele>
      </trkpt>
      <trkpt lat="36.98717" lon="28.22495">
        <ele>34.1</ele>
      </trkpt>
      <trkpt lat="36.98719" lon="28.22489">
        <ele>33.6</ele>
      </trkpt>
      <trkpt lat="36.98719" lon="28.22483">
        <ele>33.1</ele>
      </trkpt>
      <trkpt lat="36.98722" lon="28.22478">
        <ele>32.6</ele>
      </trkpt>
      <trkpt lat="36.98725" lon="28.22472">
        <ele>32</ele>
      </trkpt>
      <trkpt lat="36.98728" lon="28.22467">
        <ele>31.4</ele>
      </trkpt>
      <trkpt lat="36.98729" lon="28.22461">
        <ele>30.9</ele>
      </trkpt>
      <trkpt lat="36.98731" lon="28.22456">
        <ele>30.4</ele>
      </trkpt>
      <trkpt lat="36.98732" lon="28.2245">
        <ele>29.9</ele>
      </trkpt>
      <trkpt lat="36.98734" lon="28.22444">
        <ele>29.4</ele>
      </trkpt>
      <trkpt lat="36.98736" lon="28.22439">
        <ele>28.9</ele>
      </trkpt>
      <trkpt lat="36.98737" lon="28.22432">
        <ele>28.3</ele>
      </trkpt>
      <trkpt lat="36.98739" lon="28.22427">
        <ele>27.8</ele>
      </trkpt>
      <trkpt lat="36.98742" lon="28.22421">
        <ele>27.1</ele>
      </trkpt>
      <trkpt lat="36.98746" lon="28.22418">
        <ele>26.5</ele>
      </trkpt>
      <trkpt lat="36.9875" lon="28.22412">
        <ele>25.8</ele>
      </trkpt>
      <trkpt lat="36.98751" lon="28.22406">
        <ele>25.6</ele>
      </trkpt>
      <trkpt lat="36.98754" lon="28.22402">
        <ele>25.6</ele>
      </trkpt>
      <trkpt lat="36.98757" lon="28.22397">
        <ele>25.7</ele>
      </trkpt>
      <trkpt lat="36.9876" lon="28.22392">
        <ele>25.6</ele>
      </trkpt>
      <trkpt lat="36.98761" lon="28.22387">
        <ele>25.5</ele>
      </trkpt>
      <trkpt lat="36.98763" lon="28.2238">
        <ele>25.3</ele>
      </trkpt>
      <trkpt lat="36.98765" lon="28.22375">
        <ele>25.2</ele>
      </trkpt>
      <trkpt lat="36.98768" lon="28.22369">
        <ele>25.1</ele>
      </trkpt>
      <trkpt lat="36.98772" lon="28.22365">
        <ele>25.2</ele>
      </trkpt>
      <trkpt lat="36.98775" lon="28.22359">
        <ele>25.2</ele>
      </trkpt>
      <trkpt lat="36.98777" lon="28.22354">
        <ele>25</ele>
      </trkpt>
      <trkpt lat="36.98779" lon="28.22348">
        <ele>24.9</ele>
      </trkpt>
      <trkpt lat="36.98781" lon="28.22342">
        <ele>24.7</ele>
      </trkpt>
      <trkpt lat="36.98784" lon="28.22337">
        <ele>24.6</ele>
      </trkpt>
      <trkpt lat="36.98784" lon="28.22331">
        <ele>24.3</ele>
      </trkpt>
      <trkpt lat="36.98784" lon="28.22325">
        <ele>24.1</ele>
      </trkpt>
      <trkpt lat="36.9878" lon="28.22318">
        <ele>23.5</ele>
      </trkpt>
      <trkpt lat="36.98777" lon="28.22313">
        <ele>23.1</ele>
      </trkpt>
      <trkpt lat="36.98774" lon="28.22308">
        <ele>22.7</ele>
      </trkpt>
      <trkpt lat="36.98768" lon="28.22305">
        <ele>22.1</ele>
      </trkpt>
      <trkpt lat="36.98763" lon="28.22303">
        <ele>21.6</ele>
      </trkpt>
      <trkpt lat="36.98757" lon="28.223">
        <ele>21</ele>
      </trkpt>
      <trkpt lat="36.98752" lon="28.22301">
        <ele>20.6</ele>
      </trkpt>
      <trkpt lat="36.98747" lon="28.22301">
        <ele>20.8</ele>
      </trkpt>
      <trkpt lat="36.98743" lon="28.22302">
        <ele>21.4</ele>
      </trkpt>
      <trkpt lat="36.98737" lon="28.22301">
        <ele>22</ele>
      </trkpt>
      <trkpt lat="36.98733" lon="28.22299">
        <ele>22.4</ele>
      </trkpt>
      <trkpt lat="36.98729" lon="28.22294">
        <ele>22.7</ele>
      </trkpt>
      <trkpt lat="36.98726" lon="28.22289">
        <ele>22.8</ele>
      </trkpt>
      <trkpt lat="36.98721" lon="28.22283">
        <ele>23.1</ele>
      </trkpt>
      <trkpt lat="36.98718" lon="28.22277">
        <ele>23.1</ele>
      </trkpt>
      <trkpt lat="36.9872" lon="28.22271">
        <ele>22.7</ele>
      </trkpt>
      <trkpt lat="36.98721" lon="28.22266">
        <ele>22.3</ele>
      </trkpt>
      <trkpt lat="36.9872" lon="28.2226">
        <ele>22.1</ele>
      </trkpt>
      <trkpt lat="36.98719" lon="28.22254">
        <ele>21.9</ele>
      </trkpt>
      <trkpt lat="36.98719" lon="28.22247">
        <ele>21.6</ele>
      </trkpt>
      <trkpt lat="36.98717" lon="28.22242">
        <ele>21.6</ele>
      </trkpt>
      <trkpt lat="36.98716" lon="28.22236">
        <ele>21.3</ele>
      </trkpt>
      <trkpt lat="36.98714" lon="28.22231">
        <ele>21.4</ele>
      </trkpt>
      <trkpt lat="36.98712" lon="28.22226">
        <ele>21.2</ele>
      </trkpt>
      <trkpt lat="36.98709" lon="28.22221">
        <ele>21.1</ele>
      </trkpt>
      <trkpt lat="36.98705" lon="28.22217">
        <ele>21.3</ele>
      </trkpt>
      <trkpt lat="36.987" lon="28.22213">
        <ele>21.4</ele>
      </trkpt>
      <trkpt lat="36.98696" lon="28.2221">
        <ele>21.5</ele>
      </trkpt>
      <trkpt lat="36.98691" lon="28.22207">
        <ele>21.7</ele>
      </trkpt>
      <trkpt lat="36.98687" lon="28.22205">
        <ele>21.7</ele>
      </trkpt>
      <trkpt lat="36.98684" lon="28.22199">
        <ele>21.4</ele>
      </trkpt>
      <trkpt lat="36.98679" lon="28.22196">
        <ele>21.5</ele>
      </trkpt>
      <trkpt lat="36.98675" lon="28.22195">
        <ele>21.5</ele>
      </trkpt>
      <trkpt lat="36.9867" lon="28.22193">
        <ele>21.6</ele>
      </trkpt>
      <trkpt lat="36.98665" lon="28.22192">
        <ele>21.8</ele>
      </trkpt>
      <trkpt lat="36.98658" lon="28.22192">
        <ele>22.1</ele>
      </trkpt>
      <trkpt lat="36.98652" lon="28.22193">
        <ele>22.6</ele>
      </trkpt>
      <trkpt lat="36.98646" lon="28.22193">
        <ele>22.9</ele>
      </trkpt>
      <trkpt lat="36.98642" lon="28.2219">
        <ele>22.8</ele>
      </trkpt>
      <trkpt lat="36.98638" lon="28.22187">
        <ele>22.7</ele>
      </trkpt>
      <trkpt lat="36.98636" lon="28.22181">
        <ele>22</ele>
      </trkpt>
      <trkpt lat="36.98634" lon="28.22175">
        <ele>21.3</ele>
      </trkpt>
      <trkpt lat="36.98631" lon="28.22171">
        <ele>20.9</ele>
      </trkpt>
      <trkpt lat="36.98627" lon="28.22167">
        <ele>20.4</ele>
      </trkpt>
      <trkpt lat="36.98625" lon="28.22161">
        <ele>20.1</ele>
      </trkpt>
      <trkpt lat="36.98622" lon="28.22156">
        <ele>19.8</ele>
      </trkpt>
      <trkpt lat="36.98621" lon="28.2215">
        <ele>19.4</ele>
      </trkpt>
      <trkpt lat="36.98619" lon="28.22145">
        <ele>19.1</ele>
      </trkpt>
      <trkpt lat="36.98625" lon="28.22142">
        <ele>18.7</ele>
      </trkpt>
      <trkpt lat="36.98629" lon="28.22139">
        <ele>18.4</ele>
      </trkpt>
      <trkpt lat="36.98633" lon="28.22136">
        <ele>18.1</ele>
      </trkpt>
      <trkpt lat="36.98641" lon="28.22133">
        <ele>17.8</ele>
      </trkpt>
      <trkpt lat="36.98632" lon="28.22142">
        <ele>18.5</ele>
      </trkpt>
      <trkpt lat="36.98629" lon="28.22136">
        <ele>18.2</ele>
      </trkpt>
      <trkpt lat="36.98624" lon="28.2214">
        <ele>18.6</ele>
      </trkpt>
      <trkpt lat="36.98628" lon="28.22133">
        <ele>18</ele>
      </trkpt>
      <trkpt lat="36.98625" lon="28.22128">
        <ele>17.7</ele>
      </trkpt>
      <trkpt lat="36.98617" lon="28.22125">
        <ele>17.6</ele>
      </trkpt>
      <trkpt lat="36.98608" lon="28.22123">
        <ele>17.5</ele>
      </trkpt>
      <trkpt lat="36.98607" lon="28.22128">
        <ele>18</ele>
      </trkpt>
      <trkpt lat="36.98603" lon="28.22132">
        <ele>18.4</ele>
      </trkpt>
      <trkpt lat="36.98597" lon="28.22133">
        <ele>18.5</ele>
      </trkpt>
      <trkpt lat="36.9859" lon="28.22134">
        <ele>18.7</ele>
      </trkpt>
      <trkpt lat="36.98585" lon="28.22136">
        <ele>19</ele>
      </trkpt>
      <trkpt lat="36.98579" lon="28.22135">
        <ele>19.3</ele>
      </trkpt>
      <trkpt lat="36.98574" lon="28.22135">
        <ele>19.7</ele>
      </trkpt>
      <trkpt lat="36.98569" lon="28.22132">
        <ele>19.8</ele>
      </trkpt>
      <trkpt lat="36.98566" lon="28.22127">
        <ele>19.5</ele>
      </trkpt>
      <trkpt lat="36.98564" lon="28.22122">
        <ele>19.2</ele>
      </trkpt>
      <trkpt lat="36.98561" lon="28.22118">
        <ele>19</ele>
      </trkpt>
      <trkpt lat="36.98557" lon="28.22112">
        <ele>18.7</ele>
      </trkpt>
      <trkpt lat="36.98557" lon="28.22106">
        <ele>18.2</ele>
      </trkpt>
      <trkpt lat="36.98556" lon="28.221">
        <ele>17.7</ele>
      </trkpt>
      <trkpt lat="36.98554" lon="28.22094">
        <ele>17.1</ele>
      </trkpt>
      <trkpt lat="36.98553" lon="28.22088">
        <ele>16.6</ele>
      </trkpt>
      <trkpt lat="36.98551" lon="28.22082">
        <ele>16.4</ele>
      </trkpt>
      <trkpt lat="36.98553" lon="28.22077">
        <ele>16.6</ele>
      </trkpt>
      <trkpt lat="36.98555" lon="28.22071">
        <ele>16.7</ele>
      </trkpt>
      <trkpt lat="36.98557" lon="28.22066">
        <ele>16.8</ele>
      </trkpt>
      <trkpt lat="36.98559" lon="28.2206">
        <ele>16.9</ele>
      </trkpt>
      <trkpt lat="36.98561" lon="28.22055">
        <ele>16.9</ele>
      </trkpt>
      <trkpt lat="36.98563" lon="28.2205">
        <ele>16.9</ele>
      </trkpt>
      <trkpt lat="36.98566" lon="28.22045">
        <ele>16.9</ele>
      </trkpt>
      <trkpt lat="36.98568" lon="28.22039">
        <ele>16.8</ele>
      </trkpt>
      <trkpt lat="36.98569" lon="28.22033">
        <ele>16.9</ele>
      </trkpt>
      <trkpt lat="36.9857" lon="28.22027">
        <ele>17.1</ele>
      </trkpt>
      <trkpt lat="36.9857" lon="28.22021">
        <ele>17.3</ele>
      </trkpt>
      <trkpt lat="36.98571" lon="28.22015">
        <ele>17.4</ele>
      </trkpt>
      <trkpt lat="36.98572" lon="28.22009">
        <ele>17.5</ele>
      </trkpt>
      <trkpt lat="36.98573" lon="28.22002">
        <ele>17.6</ele>
      </trkpt>
      <trkpt lat="36.98572" lon="28.21996">
        <ele>17.6</ele>
      </trkpt>
      <trkpt lat="36.98573" lon="28.2199">
        <ele>17.3</ele>
      </trkpt>
      <trkpt lat="36.98572" lon="28.21985">
        <ele>17.2</ele>
      </trkpt>
      <trkpt lat="36.98571" lon="28.21979">
        <ele>17.2</ele>
      </trkpt>
      <trkpt lat="36.98571" lon="28.21972">
        <ele>17</ele>
      </trkpt>
      <trkpt lat="36.98571" lon="28.21965">
        <ele>16.6</ele>
      </trkpt>
      <trkpt lat="36.98571" lon="28.2196">
        <ele>16.6</ele>
      </trkpt>
      <trkpt lat="36.98568" lon="28.21954">
        <ele>16.8</ele>
      </trkpt>
      <trkpt lat="36.98566" lon="28.21948">
        <ele>16.8</ele>
      </trkpt>
      <trkpt lat="36.98563" lon="28.21944">
        <ele>17.2</ele>
      </trkpt>
      <trkpt lat="36.9856" lon="28.21939">
        <ele>17.5</ele>
      </trkpt>
      <trkpt lat="36.98556" lon="28.21936">
        <ele>17.9</ele>
      </trkpt>
      <trkpt lat="36.98552" lon="28.21932">
        <ele>18.4</ele>
      </trkpt>
      <trkpt lat="36.98547" lon="28.21929">
        <ele>19</ele>
      </trkpt>
      <trkpt lat="36.98543" lon="28.21926">
        <ele>19.7</ele>
      </trkpt>
      <trkpt lat="36.98539" lon="28.21923">
        <ele>20.2</ele>
      </trkpt>
      <trkpt lat="36.98533" lon="28.21922">
        <ele>21</ele>
      </trkpt>
      <trkpt lat="36.98528" lon="28.2192">
        <ele>21.7</ele>
      </trkpt>
      <trkpt lat="36.98525" lon="28.21915">
        <ele>22.1</ele>
      </trkpt>
      <trkpt lat="36.98521" lon="28.21912">
        <ele>22.5</ele>
      </trkpt>
      <trkpt lat="36.98517" lon="28.2191">
        <ele>23</ele>
      </trkpt>
      <trkpt lat="36.98513" lon="28.21907">
        <ele>23.4</ele>
      </trkpt>
      <trkpt lat="36.98509" lon="28.21903">
        <ele>23.8</ele>
      </trkpt>
      <trkpt lat="36.98506" lon="28.21898">
        <ele>24</ele>
      </trkpt>
      <trkpt lat="36.98502" lon="28.21893">
        <ele>24.2</ele>
      </trkpt>
      <trkpt lat="36.98499" lon="28.2189">
        <ele>24.7</ele>
      </trkpt>
      <trkpt lat="36.98496" lon="28.21884">
        <ele>24.7</ele>
      </trkpt>
      <trkpt lat="36.98494" lon="28.21879">
        <ele>24.8</ele>
      </trkpt>
      <trkpt lat="36.98491" lon="28.21874">
        <ele>25.1</ele>
      </trkpt>
      <trkpt lat="36.98488" lon="28.21869">
        <ele>25.3</ele>
      </trkpt>
      <trkpt lat="36.98484" lon="28.21864">
        <ele>25.7</ele>
      </trkpt>
      <trkpt lat="36.9848" lon="28.2186">
        <ele>26.2</ele>
      </trkpt>
      <trkpt lat="36.98475" lon="28.21857">
        <ele>27</ele>
      </trkpt>
      <trkpt lat="36.9847" lon="28.21855">
        <ele>27.7</ele>
      </trkpt>
      <trkpt lat="36.98465" lon="28.21854">
        <ele>28.5</ele>
      </trkpt>
      <trkpt lat="36.98461" lon="28.21852">
        <ele>29</ele>
      </trkpt>
      <trkpt lat="36.98457" lon="28.2185">
        <ele>29.8</ele>
      </trkpt>
      <trkpt lat="36.98452" lon="28.21847">
        <ele>30.4</ele>
      </trkpt>
      <trkpt lat="36.98449" lon="28.21842">
        <ele>30.8</ele>
      </trkpt>
      <trkpt lat="36.98446" lon="28.21837">
        <ele>31</ele>
      </trkpt>
      <trkpt lat="36.9844" lon="28.21834">
        <ele>31.9</ele>
      </trkpt>
      <trkpt lat="36.98435" lon="28.21832">
        <ele>32.5</ele>
      </trkpt>
      <trkpt lat="36.9843" lon="28.21829">
        <ele>33.2</ele>
      </trkpt>
      <trkpt lat="36.98426" lon="28.21825">
        <ele>33.6</ele>
      </trkpt>
      <trkpt lat="36.98422" lon="28.21821">
        <ele>33.9</ele>
      </trkpt>
      <trkpt lat="36.98418" lon="28.21818">
        <ele>34.4</ele>
      </trkpt>
      <trkpt lat="36.98412" lon="28.21816">
        <ele>35.4</ele>
      </trkpt>
      <trkpt lat="36.9841" lon="28.21811">
        <ele>35.4</ele>
      </trkpt>
      <trkpt lat="36.98407" lon="28.21806">
        <ele>35.6</ele>
      </trkpt>
      <trkpt lat="36.98403" lon="28.21803">
        <ele>36.3</ele>
      </trkpt>
      <trkpt lat="36.984" lon="28.21798">
        <ele>36.4</ele>
      </trkpt>
      <trkpt lat="36.98396" lon="28.21797">
        <ele>37.4</ele>
      </trkpt>
      <trkpt lat="36.9839" lon="28.21794">
        <ele>38.5</ele>
      </trkpt>
      <trkpt lat="36.98385" lon="28.21792">
        <ele>39.3</ele>
      </trkpt>
      <trkpt lat="36.98381" lon="28.21788">
        <ele>40.1</ele>
      </trkpt>
      <trkpt lat="36.98377" lon="28.21783">
        <ele>40.3</ele>
      </trkpt>
      <trkpt lat="36.98372" lon="28.2178">
        <ele>41.3</ele>
      </trkpt>
      <trkpt lat="36.98367" lon="28.21777">
        <ele>42</ele>
      </trkpt>
      <trkpt lat="36.98364" lon="28.21773">
        <ele>42.4</ele>
      </trkpt>
      <trkpt lat="36.9836" lon="28.2177">
        <ele>42.9</ele>
      </trkpt>
      <trkpt lat="36.98356" lon="28.21766">
        <ele>43.6</ele>
      </trkpt>
      <trkpt lat="36.98352" lon="28.21762">
        <ele>44.1</ele>
      </trkpt>
      <trkpt lat="36.98348" lon="28.21759">
        <ele>44.7</ele>
      </trkpt>
      <trkpt lat="36.98343" lon="28.21756">
        <ele>45.4</ele>
      </trkpt>
      <trkpt lat="36.98339" lon="28.21751">
        <ele>45.9</ele>
      </trkpt>
      <trkpt lat="36.98335" lon="28.21747">
        <ele>46.7</ele>
      </trkpt>
      <trkpt lat="36.98331" lon="28.21743">
        <ele>47.4</ele>
      </trkpt>
      <trkpt lat="36.98326" lon="28.2174">
        <ele>48.3</ele>
      </trkpt>
      <trkpt lat="36.98322" lon="28.21737">
        <ele>49.1</ele>
      </trkpt>
      <trkpt lat="36.98318" lon="28.21733">
        <ele>49.7</ele>
      </trkpt>
      <trkpt lat="36.98314" lon="28.21729">
        <ele>50.5</ele>
      </trkpt>
      <trkpt lat="36.98312" lon="28.21724">
        <ele>51</ele>
      </trkpt>
      <trkpt lat="36.9831" lon="28.21718">
        <ele>51.2</ele>
      </trkpt>
      <trkpt lat="36.98309" lon="28.21712">
        <ele>51.3</ele>
      </trkpt>
      <trkpt lat="36.98309" lon="28.21705">
        <ele>51.2</ele>
      </trkpt>
      <trkpt lat="36.98311" lon="28.21699">
        <ele>50.9</ele>
      </trkpt>
      <trkpt lat="36.98312" lon="28.21693">
        <ele>50.5</ele>
      </trkpt>
      <trkpt lat="36.98314" lon="28.21687">
        <ele>50.1</ele>
      </trkpt>
      <trkpt lat="36.98317" lon="28.21681">
        <ele>49.6</ele>
      </trkpt>
      <trkpt lat="36.9832" lon="28.21677">
        <ele>48.9</ele>
      </trkpt>
      <trkpt lat="36.98322" lon="28.21671">
        <ele>48.5</ele>
      </trkpt>
      <trkpt lat="36.98323" lon="28.21665">
        <ele>48.3</ele>
      </trkpt>
      <trkpt lat="36.98325" lon="28.21659">
        <ele>48.2</ele>
      </trkpt>
      <trkpt lat="36.98326" lon="28.21653">
        <ele>48.2</ele>
      </trkpt>
      <trkpt lat="36.98326" lon="28.21647">
        <ele>48.6</ele>
      </trkpt>
      <trkpt lat="36.98326" lon="28.2164">
        <ele>49</ele>
      </trkpt>
      <trkpt lat="36.98325" lon="28.21634">
        <ele>49.5</ele>
      </trkpt>
      <trkpt lat="36.98327" lon="28.21629">
        <ele>49.5</ele>
      </trkpt>
      <trkpt lat="36.98328" lon="28.21622">
        <ele>49.7</ele>
      </trkpt>
      <trkpt lat="36.98329" lon="28.21616">
        <ele>49.9</ele>
      </trkpt>
      <trkpt lat="36.9833" lon="28.21609">
        <ele>50.2</ele>
      </trkpt>
      <trkpt lat="36.98331" lon="28.21603">
        <ele>50.3</ele>
      </trkpt>
      <trkpt lat="36.98329" lon="28.21597">
        <ele>51</ele>
      </trkpt>
      <trkpt lat="36.98328" lon="28.2159">
        <ele>51.6</ele>
      </trkpt>
      <trkpt lat="36.98327" lon="28.21585">
        <ele>52.1</ele>
      </trkpt>
      <trkpt lat="36.98326" lon="28.21578">
        <ele>52.4</ele>
      </trkpt>
      <trkpt lat="36.98324" lon="28.21571">
        <ele>52.8</ele>
      </trkpt>
      <trkpt lat="36.98324" lon="28.21565">
        <ele>52.9</ele>
      </trkpt>
      <trkpt lat="36.98323" lon="28.21558">
        <ele>53.1</ele>
      </trkpt>
      <trkpt lat="36.98323" lon="28.21551">
        <ele>53.2</ele>
      </trkpt>
      <trkpt lat="36.98322" lon="28.21545">
        <ele>53.4</ele>
      </trkpt>
      <trkpt lat="36.98321" lon="28.21539">
        <ele>53.6</ele>
      </trkpt>
      <trkpt lat="36.98321" lon="28.21532">
        <ele>53.8</ele>
      </trkpt>
      <trkpt lat="36.98322" lon="28.21525">
        <ele>53.7</ele>
      </trkpt>
      <trkpt lat="36.98321" lon="28.21518">
        <ele>53.9</ele>
      </trkpt>
      <trkpt lat="36.98321" lon="28.21511">
        <ele>54</ele>
      </trkpt>
      <trkpt lat="36.98321" lon="28.21504">
        <ele>54.1</ele>
      </trkpt>
      <trkpt lat="36.98321" lon="28.21497">
        <ele>53.7</ele>
      </trkpt>
      <trkpt lat="36.98321" lon="28.21491">
        <ele>53.3</ele>
      </trkpt>
      <trkpt lat="36.98321" lon="28.21486">
        <ele>52.8</ele>
      </trkpt>
      <trkpt lat="36.98321" lon="28.21479">
        <ele>52.1</ele>
      </trkpt>
      <trkpt lat="36.98321" lon="28.21473">
        <ele>51.8</ele>
      </trkpt>
      <trkpt lat="36.9832" lon="28.21466">
        <ele>51.4</ele>
      </trkpt>
      <trkpt lat="36.98317" lon="28.2146">
        <ele>51.2</ele>
      </trkpt>
      <trkpt lat="36.98316" lon="28.21454">
        <ele>51</ele>
      </trkpt>
      <trkpt lat="36.98315" lon="28.21447">
        <ele>50.6</ele>
      </trkpt>
      <trkpt lat="36.98314" lon="28.21441">
        <ele>50.2</ele>
      </trkpt>
      <trkpt lat="36.98311" lon="28.21435">
        <ele>50.4</ele>
      </trkpt>
      <trkpt lat="36.98308" lon="28.2143">
        <ele>50.7</ele>
      </trkpt>
      <trkpt lat="36.98308" lon="28.21424">
        <ele>50.1</ele>
      </trkpt>
      <trkpt lat="36.98307" lon="28.21419">
        <ele>49.8</ele>
      </trkpt>
      <trkpt lat="36.98306" lon="28.21413">
        <ele>49.5</ele>
      </trkpt>
      <trkpt lat="36.98305" lon="28.21405">
        <ele>49.3</ele>
      </trkpt>
      <trkpt lat="36.98303" lon="28.214">
        <ele>49.3</ele>
      </trkpt>
      <trkpt lat="36.98303" lon="28.21393">
        <ele>48.9</ele>
      </trkpt>
      <trkpt lat="36.98303" lon="28.21387">
        <ele>48.5</ele>
      </trkpt>
      <trkpt lat="36.98302" lon="28.2138">
        <ele>48.1</ele>
      </trkpt>
      <trkpt lat="36.98301" lon="28.21374">
        <ele>47.9</ele>
      </trkpt>
      <trkpt lat="36.983" lon="28.21367">
        <ele>47.8</ele>
      </trkpt>
      <trkpt lat="36.98299" lon="28.21361">
        <ele>47.4</ele>
      </trkpt>
      <trkpt lat="36.98299" lon="28.21355">
        <ele>47</ele>
      </trkpt>
      <trkpt lat="36.98298" lon="28.21348">
        <ele>46.8</ele>
      </trkpt>
      <trkpt lat="36.983" lon="28.21343">
        <ele>46</ele>
      </trkpt>
      <trkpt lat="36.98297" lon="28.21337">
        <ele>46.1</ele>
      </trkpt>
      <trkpt lat="36.98296" lon="28.2133">
        <ele>45.9</ele>
      </trkpt>
      <trkpt lat="36.98296" lon="28.21324">
        <ele>45.5</ele>
      </trkpt>
      <trkpt lat="36.98295" lon="28.21318">
        <ele>45.3</ele>
      </trkpt>
      <trkpt lat="36.98295" lon="28.21311">
        <ele>44.8</ele>
      </trkpt>
      <trkpt lat="36.98295" lon="28.21305">
        <ele>44.5</ele>
      </trkpt>
      <trkpt lat="36.98294" lon="28.21299">
        <ele>44.2</ele>
      </trkpt>
      <trkpt lat="36.98293" lon="28.21292">
        <ele>44</ele>
      </trkpt>
      <trkpt lat="36.98292" lon="28.21287">
        <ele>43.8</ele>
      </trkpt>
      <trkpt lat="36.98292" lon="28.21281">
        <ele>43.4</ele>
      </trkpt>
      <trkpt lat="36.98292" lon="28.21274">
        <ele>43</ele>
      </trkpt>
      <trkpt lat="36.98291" lon="28.21268">
        <ele>42.7</ele>
      </trkpt>
      <trkpt lat="36.9829" lon="28.21262">
        <ele>42.5</ele>
      </trkpt>
      <trkpt lat="36.98289" lon="28.21256">
        <ele>42.3</ele>
      </trkpt>
      <trkpt lat="36.98288" lon="28.21249">
        <ele>41.9</ele>
      </trkpt>
      <trkpt lat="36.98286" lon="28.21243">
        <ele>41.2</ele>
      </trkpt>
      <trkpt lat="36.98284" lon="28.21236">
        <ele>40.7</ele>
      </trkpt>
      <trkpt lat="36.98282" lon="28.21231">
        <ele>40</ele>
      </trkpt>
      <trkpt lat="36.98279" lon="28.21225">
        <ele>39.6</ele>
      </trkpt>
      <trkpt lat="36.98276" lon="28.2122">
        <ele>39.3</ele>
      </trkpt>
      <trkpt lat="36.98273" lon="28.21215">
        <ele>38.8</ele>
      </trkpt>
      <trkpt lat="36.98271" lon="28.21208">
        <ele>38.2</ele>
      </trkpt>
      <trkpt lat="36.98267" lon="28.21203">
        <ele>37.8</ele>
      </trkpt>
      <trkpt lat="36.98264" lon="28.21199">
        <ele>37.5</ele>
      </trkpt>
      <trkpt lat="36.9826" lon="28.21194">
        <ele>37.3</ele>
      </trkpt>
      <trkpt lat="36.98256" lon="28.2119">
        <ele>37.3</ele>
      </trkpt>
      <trkpt lat="36.98251" lon="28.21188">
        <ele>37.5</ele>
      </trkpt>
      <trkpt lat="36.98247" lon="28.21185">
        <ele>36.7</ele>
      </trkpt>
      <trkpt lat="36.98242" lon="28.21182">
        <ele>35.6</ele>
      </trkpt>
      <trkpt lat="36.98236" lon="28.21183">
        <ele>35</ele>
      </trkpt>
      <trkpt lat="36.98231" lon="28.21183">
        <ele>34.3</ele>
      </trkpt>
      <trkpt lat="36.98227" lon="28.21185">
        <ele>34.1</ele>
      </trkpt>
      <trkpt lat="36.98223" lon="28.21189">
        <ele>34.1</ele>
      </trkpt>
      <trkpt lat="36.98219" lon="28.21194">
        <ele>34.2</ele>
      </trkpt>
      <trkpt lat="36.98216" lon="28.21199">
        <ele>34.6</ele>
      </trkpt>
      <trkpt lat="36.98214" lon="28.21205">
        <ele>34.9</ele>
      </trkpt>
      <trkpt lat="36.98212" lon="28.21211">
        <ele>35.4</ele>
      </trkpt>
      <trkpt lat="36.98211" lon="28.21216">
        <ele>35.9</ele>
      </trkpt>
      <trkpt lat="36.9821" lon="28.21223">
        <ele>36.6</ele>
      </trkpt>
      <trkpt lat="36.98209" lon="28.21228">
        <ele>37</ele>
      </trkpt>
      <trkpt lat="36.98207" lon="28.21234">
        <ele>37.3</ele>
      </trkpt>
      <trkpt lat="36.98206" lon="28.21239">
        <ele>37.7</ele>
      </trkpt>
      <trkpt lat="36.98204" lon="28.21245">
        <ele>38</ele>
      </trkpt>
      <trkpt lat="36.98201" lon="28.21251">
        <ele>38.1</ele>
      </trkpt>
      <trkpt lat="36.98199" lon="28.21257">
        <ele>38.3</ele>
      </trkpt>
      <trkpt lat="36.98197" lon="28.21262">
        <ele>38.5</ele>
      </trkpt>
      <trkpt lat="36.98194" lon="28.21267">
        <ele>38.3</ele>
      </trkpt>
      <trkpt lat="36.98192" lon="28.21273">
        <ele>38.6</ele>
      </trkpt>
      <trkpt lat="36.98191" lon="28.21279">
        <ele>39</ele>
      </trkpt>
      <trkpt lat="36.98189" lon="28.21284">
        <ele>39.1</ele>
      </trkpt>
      <trkpt lat="36.98187" lon="28.2129">
        <ele>39.4</ele>
      </trkpt>
      <trkpt lat="36.98187" lon="28.21296">
        <ele>40</ele>
      </trkpt>
      <trkpt lat="36.98187" lon="28.21302">
        <ele>40.6</ele>
      </trkpt>
      <trkpt lat="36.98186" lon="28.21308">
        <ele>41</ele>
      </trkpt>
      <trkpt lat="36.98186" lon="28.21314">
        <ele>41.7</ele>
      </trkpt>
      <trkpt lat="36.98186" lon="28.21323">
        <ele>42.6</ele>
      </trkpt>
      <trkpt lat="36.98193" lon="28.21321">
        <ele>43.7</ele>
      </trkpt>
      <trkpt lat="36.98189" lon="28.21326">
        <ele>43.5</ele>
      </trkpt>
      <trkpt lat="36.98185" lon="28.21329">
        <ele>43</ele>
      </trkpt>
      <trkpt lat="36.9818" lon="28.21332">
        <ele>42.4</ele>
      </trkpt>
      <trkpt lat="36.98176" lon="28.21336">
        <ele>41.9</ele>
      </trkpt>
      <trkpt lat="36.98172" lon="28.21343">
        <ele>41.6</ele>
      </trkpt>
      <trkpt lat="36.98167" lon="28.2135">
        <ele>41.1</ele>
      </trkpt>
      <trkpt lat="36.98165" lon="28.21356">
        <ele>41.4</ele>
      </trkpt>
      <trkpt lat="36.98165" lon="28.21365">
        <ele>41.9</ele>
      </trkpt>
      <trkpt lat="36.98167" lon="28.21372">
        <ele>42.3</ele>
      </trkpt>
      <trkpt lat="36.98167" lon="28.21377">
        <ele>42.7</ele>
      </trkpt>
      <trkpt lat="36.98163" lon="28.21381">
        <ele>42.8</ele>
      </trkpt>
      <trkpt lat="36.98157" lon="28.21385">
        <ele>43.1</ele>
      </trkpt>
      <trkpt lat="36.98157" lon="28.21391">
        <ele>43.5</ele>
      </trkpt>
      <trkpt lat="36.98154" lon="28.21398">
        <ele>44</ele>
      </trkpt>
      <trkpt lat="36.98155" lon="28.21405">
        <ele>44.4</ele>
      </trkpt>
      <trkpt lat="36.98151" lon="28.21409">
        <ele>44.7</ele>
      </trkpt>
      <trkpt lat="36.98149" lon="28.21414">
        <ele>45.1</ele>
      </trkpt>
      <trkpt lat="36.98145" lon="28.21414">
        <ele>45.1</ele>
      </trkpt>
      <trkpt lat="36.9814" lon="28.21412">
        <ele>45</ele>
      </trkpt>
      <trkpt lat="36.98137" lon="28.21408">
        <ele>44.7</ele>
      </trkpt>
      <trkpt lat="36.98135" lon="28.21401">
        <ele>44.3</ele>
      </trkpt>
      <trkpt lat="36.98133" lon="28.21393">
        <ele>43.8</ele>
      </trkpt>
      <trkpt lat="36.9813" lon="28.21386">
        <ele>43.3</ele>
      </trkpt>
      <trkpt lat="36.98128" lon="28.21381">
        <ele>42.9</ele>
      </trkpt>
      <trkpt lat="36.98127" lon="28.21375">
        <ele>42.5</ele>
      </trkpt>
      <trkpt lat="36.98126" lon="28.21368">
        <ele>42</ele>
      </trkpt>
      <trkpt lat="36.98123" lon="28.21363">
        <ele>41.6</ele>
      </trkpt>
      <trkpt lat="36.98122" lon="28.21357">
        <ele>41.2</ele>
      </trkpt>
      <trkpt lat="36.9812" lon="28.2135">
        <ele>40.7</ele>
      </trkpt>
      <trkpt lat="36.98117" lon="28.21344">
        <ele>40.2</ele>
      </trkpt>
      <trkpt lat="36.98114" lon="28.21339">
        <ele>39.8</ele>
      </trkpt>
      <trkpt lat="36.98112" lon="28.21334">
        <ele>39.4</ele>
      </trkpt>
      <trkpt lat="36.98108" lon="28.21328">
        <ele>38.7</ele>
      </trkpt>
      <trkpt lat="36.98104" lon="28.21324">
        <ele>38.2</ele>
      </trkpt>
      <trkpt lat="36.98099" lon="28.21319">
        <ele>37.6</ele>
      </trkpt>
      <trkpt lat="36.98096" lon="28.21314">
        <ele>37</ele>
      </trkpt>
      <trkpt lat="36.98092" lon="28.21308">
        <ele>36.4</ele>
      </trkpt>
      <trkpt lat="36.98089" lon="28.21304">
        <ele>35.9</ele>
      </trkpt>
      <trkpt lat="36.98085" lon="28.21298">
        <ele>35.2</ele>
      </trkpt>
      <trkpt lat="36.9808" lon="28.21293">
        <ele>35.1</ele>
      </trkpt>
      <trkpt lat="36.98076" lon="28.21288">
        <ele>35</ele>
      </trkpt>
      <trkpt lat="36.98073" lon="28.21284">
        <ele>35</ele>
      </trkpt>
      <trkpt lat="36.98069" lon="28.2128">
        <ele>35</ele>
      </trkpt>
      <trkpt lat="36.98066" lon="28.21274">
        <ele>34.8</ele>
      </trkpt>
      <trkpt lat="36.98064" lon="28.21269">
        <ele>34.5</ele>
      </trkpt>
      <trkpt lat="36.98061" lon="28.21263">
        <ele>34.1</ele>
      </trkpt>
      <trkpt lat="36.98058" lon="28.21259">
        <ele>34.1</ele>
      </trkpt>
      <trkpt lat="36.98054" lon="28.21255">
        <ele>34.1</ele>
      </trkpt>
      <trkpt lat="36.98051" lon="28.21249">
        <ele>33.8</ele>
      </trkpt>
      <trkpt lat="36.98048" lon="28.21245">
        <ele>33.9</ele>
      </trkpt>
      <trkpt lat="36.98045" lon="28.21241">
        <ele>33.8</ele>
      </trkpt>
      <trkpt lat="36.98042" lon="28.21236">
        <ele>33.6</ele>
      </trkpt>
      <trkpt lat="36.98039" lon="28.21231">
        <ele>33.6</ele>
      </trkpt>
      <trkpt lat="36.98036" lon="28.21225">
        <ele>33.4</ele>
      </trkpt>
      <trkpt lat="36.98034" lon="28.2122">
        <ele>33.2</ele>
      </trkpt>
      <trkpt lat="36.98029" lon="28.21215">
        <ele>33.2</ele>
      </trkpt>
      <trkpt lat="36.98026" lon="28.2121">
        <ele>33</ele>
      </trkpt>
      <trkpt lat="36.98022" lon="28.21205">
        <ele>33</ele>
      </trkpt>
      <trkpt lat="36.98018" lon="28.21202">
        <ele>33.1</ele>
      </trkpt>
      <trkpt lat="36.98015" lon="28.21197">
        <ele>32.8</ele>
      </trkpt>
      <trkpt lat="36.98014" lon="28.21191">
        <ele>32.3</ele>
      </trkpt>
      <trkpt lat="36.98011" lon="28.21185">
        <ele>32</ele>
      </trkpt>
      <trkpt lat="36.98009" lon="28.21179">
        <ele>31.5</ele>
      </trkpt>
      <trkpt lat="36.98007" lon="28.21172">
        <ele>31</ele>
      </trkpt>
      <trkpt lat="36.98005" lon="28.21166">
        <ele>30.6</ele>
      </trkpt>
      <trkpt lat="36.98005" lon="28.21159">
        <ele>30.4</ele>
      </trkpt>
      <trkpt lat="36.98004" lon="28.21154">
        <ele>30.4</ele>
      </trkpt>
      <trkpt lat="36.98" lon="28.2115">
        <ele>30.6</ele>
      </trkpt>
      <trkpt lat="36.97996" lon="28.21145">
        <ele>29.6</ele>
      </trkpt>
      <trkpt lat="36.97991" lon="28.21146">
        <ele>28.6</ele>
      </trkpt>
      <trkpt lat="36.97986" lon="28.21148">
        <ele>27.7</ele>
      </trkpt>
      <trkpt lat="36.97981" lon="28.2115">
        <ele>26.8</ele>
      </trkpt>
      <trkpt lat="36.97977" lon="28.21153">
        <ele>26.1</ele>
      </trkpt>
      <trkpt lat="36.97974" lon="28.21158">
        <ele>25.8</ele>
      </trkpt>
      <trkpt lat="36.97971" lon="28.21163">
        <ele>25.2</ele>
      </trkpt>
      <trkpt lat="36.97967" lon="28.21168">
        <ele>24.8</ele>
      </trkpt>
      <trkpt lat="36.97965" lon="28.21174">
        <ele>24.9</ele>
      </trkpt>
      <trkpt lat="36.97963" lon="28.21181">
        <ele>25.3</ele>
      </trkpt>
      <trkpt lat="36.9796" lon="28.21187">
        <ele>25.2</ele>
      </trkpt>
      <trkpt lat="36.97957" lon="28.21192">
        <ele>25</ele>
      </trkpt>
      <trkpt lat="36.97953" lon="28.21196">
        <ele>24.7</ele>
      </trkpt>
      <trkpt lat="36.97951" lon="28.21202">
        <ele>24.8</ele>
      </trkpt>
      <trkpt lat="36.97949" lon="28.21209">
        <ele>25</ele>
      </trkpt>
      <trkpt lat="36.97947" lon="28.21214">
        <ele>25.2</ele>
      </trkpt>
      <trkpt lat="36.97945" lon="28.21222">
        <ele>25.5</ele>
      </trkpt>
      <trkpt lat="36.97942" lon="28.21226">
        <ele>25.4</ele>
      </trkpt>
      <trkpt lat="36.97941" lon="28.21232">
        <ele>25.6</ele>
      </trkpt>
      <trkpt lat="36.9794" lon="28.2124">
        <ele>26</ele>
      </trkpt>
      <trkpt lat="36.97941" lon="28.21247">
        <ele>27</ele>
      </trkpt>
      <trkpt lat="36.97941" lon="28.21256">
        <ele>27.7</ele>
      </trkpt>
      <trkpt lat="36.97937" lon="28.21263">
        <ele>27.5</ele>
      </trkpt>
      <trkpt lat="36.97936" lon="28.21269">
        <ele>28.1</ele>
      </trkpt>
      <trkpt lat="36.97938" lon="28.21275">
        <ele>29</ele>
      </trkpt>
      <trkpt lat="36.97937" lon="28.21282">
        <ele>29.6</ele>
      </trkpt>
      <trkpt lat="36.97934" lon="28.21288">
        <ele>29.4</ele>
      </trkpt>
      <trkpt lat="36.97934" lon="28.21294">
        <ele>29.8</ele>
      </trkpt>
      <trkpt lat="36.97932" lon="28.213">
        <ele>30</ele>
      </trkpt>
      <trkpt lat="36.97931" lon="28.21305">
        <ele>30.2</ele>
      </trkpt>
      <trkpt lat="36.97929" lon="28.21312">
        <ele>30.4</ele>
      </trkpt>
      <trkpt lat="36.97927" lon="28.21318">
        <ele>30.5</ele>
      </trkpt>
      <trkpt lat="36.97926" lon="28.21324">
        <ele>30.6</ele>
      </trkpt>
      <trkpt lat="36.97924" lon="28.2133">
        <ele>30.6</ele>
      </trkpt>
      <trkpt lat="36.97921" lon="28.21335">
        <ele>30.3</ele>
      </trkpt>
      <trkpt lat="36.97919" lon="28.21341">
        <ele>30.2</ele>
      </trkpt>
      <trkpt lat="36.97917" lon="28.21347">
        <ele>30.1</ele>
      </trkpt>
      <trkpt lat="36.97915" lon="28.21352">
        <ele>30.1</ele>
      </trkpt>
      <trkpt lat="36.97914" lon="28.21358">
        <ele>30.1</ele>
      </trkpt>
      <trkpt lat="36.97912" lon="28.21364">
        <ele>30.1</ele>
      </trkpt>
      <trkpt lat="36.9791" lon="28.2137">
        <ele>29.9</ele>
      </trkpt>
      <trkpt lat="36.97907" lon="28.21375">
        <ele>29.4</ele>
      </trkpt>
      <trkpt lat="36.97905" lon="28.2138">
        <ele>29</ele>
      </trkpt>
      <trkpt lat="36.97903" lon="28.21386">
        <ele>29</ele>
      </trkpt>
      <trkpt lat="36.97903" lon="28.21393">
        <ele>29.3</ele>
      </trkpt>
      <trkpt lat="36.97902" lon="28.21398">
        <ele>29.4</ele>
      </trkpt>
      <trkpt lat="36.979" lon="28.21404">
        <ele>29.2</ele>
      </trkpt>
      <trkpt lat="36.97898" lon="28.21411">
        <ele>28.9</ele>
      </trkpt>
      <trkpt lat="36.97897" lon="28.21416">
        <ele>28.8</ele>
      </trkpt>
      <trkpt lat="36.97895" lon="28.21423">
        <ele>29.4</ele>
      </trkpt>
      <trkpt lat="36.97893" lon="28.2143">
        <ele>30</ele>
      </trkpt>
      <trkpt lat="36.97891" lon="28.21436">
        <ele>30.5</ele>
      </trkpt>
      <trkpt lat="36.97889" lon="28.21441">
        <ele>30.6</ele>
      </trkpt>
      <trkpt lat="36.97887" lon="28.21446">
        <ele>30.6</ele>
      </trkpt>
      <trkpt lat="36.97885" lon="28.21452">
        <ele>31</ele>
      </trkpt>
      <trkpt lat="36.97883" lon="28.21458">
        <ele>31.2</ele>
      </trkpt>
      <trkpt lat="36.9788" lon="28.21464">
        <ele>31</ele>
      </trkpt>
      <trkpt lat="36.97878" lon="28.21469">
        <ele>31.2</ele>
      </trkpt>
      <trkpt lat="36.97875" lon="28.21475">
        <ele>31.3</ele>
      </trkpt>
      <trkpt lat="36.97872" lon="28.2148">
        <ele>31</ele>
      </trkpt>
      <trkpt lat="36.9787" lon="28.21486">
        <ele>31</ele>
      </trkpt>
      <trkpt lat="36.97867" lon="28.21491">
        <ele>30.7</ele>
      </trkpt>
      <trkpt lat="36.97865" lon="28.21497">
        <ele>30.9</ele>
      </trkpt>
      <trkpt lat="36.97863" lon="28.21501">
        <ele>30.6</ele>
      </trkpt>
      <trkpt lat="36.9786" lon="28.21507">
        <ele>30.9</ele>
      </trkpt>
      <trkpt lat="36.97858" lon="28.21513">
        <ele>31</ele>
      </trkpt>
      <trkpt lat="36.97855" lon="28.21518">
        <ele>31</ele>
      </trkpt>
      <trkpt lat="36.97852" lon="28.21524">
        <ele>30.8</ele>
      </trkpt>
      <trkpt lat="36.97848" lon="28.21529">
        <ele>30.4</ele>
      </trkpt>
      <trkpt lat="36.97846" lon="28.21534">
        <ele>30.4</ele>
      </trkpt>
      <trkpt lat="36.97843" lon="28.21539">
        <ele>30.2</ele>
      </trkpt>
      <trkpt lat="36.97841" lon="28.21545">
        <ele>30.6</ele>
      </trkpt>
      <trkpt lat="36.97837" lon="28.2155">
        <ele>30.3</ele>
      </trkpt>
      <trkpt lat="36.97833" lon="28.21552">
        <ele>29.2</ele>
      </trkpt>
      <trkpt lat="36.97831" lon="28.21558">
        <ele>29.8</ele>
      </trkpt>
      <trkpt lat="36.97829" lon="28.21564">
        <ele>30.3</ele>
      </trkpt>
      <trkpt lat="36.97826" lon="28.21569">
        <ele>30.8</ele>
      </trkpt>
      <trkpt lat="36.97824" lon="28.21574">
        <ele>30.9</ele>
      </trkpt>
      <trkpt lat="36.97821" lon="28.21579">
        <ele>30.8</ele>
      </trkpt>
      <trkpt lat="36.97817" lon="28.21585">
        <ele>30.8</ele>
      </trkpt>
      <trkpt lat="36.97814" lon="28.21589">
        <ele>30.4</ele>
      </trkpt>
      <trkpt lat="36.97812" lon="28.21594">
        <ele>30.3</ele>
      </trkpt>
      <trkpt lat="36.9781" lon="28.216">
        <ele>30.3</ele>
      </trkpt>
      <trkpt lat="36.97807" lon="28.21606">
        <ele>30.3</ele>
      </trkpt>
      <trkpt lat="36.97805" lon="28.21613">
        <ele>30.5</ele>
      </trkpt>
      <trkpt lat="36.97803" lon="28.21619">
        <ele>30.8</ele>
      </trkpt>
      <trkpt lat="36.97802" lon="28.21624">
        <ele>30.9</ele>
      </trkpt>
      <trkpt lat="36.978" lon="28.2163">
        <ele>31</ele>
      </trkpt>
      <trkpt lat="36.97799" lon="28.21636">
        <ele>31.7</ele>
      </trkpt>
      <trkpt lat="36.97797" lon="28.21643">
        <ele>31.8</ele>
      </trkpt>
      <trkpt lat="36.97795" lon="28.21648">
        <ele>31.9</ele>
      </trkpt>
      <trkpt lat="36.97793" lon="28.21654">
        <ele>32</ele>
      </trkpt>
      <trkpt lat="36.9779" lon="28.21659">
        <ele>31.9</ele>
      </trkpt>
      <trkpt lat="36.97788" lon="28.21664">
        <ele>32</ele>
      </trkpt>
      <trkpt lat="36.97785" lon="28.21668">
        <ele>31.7</ele>
      </trkpt>
      <trkpt lat="36.97782" lon="28.21674">
        <ele>32</ele>
      </trkpt>
      <trkpt lat="36.97779" lon="28.21679">
        <ele>32</ele>
      </trkpt>
      <trkpt lat="36.97776" lon="28.21685">
        <ele>32.2</ele>
      </trkpt>
      <trkpt lat="36.97773" lon="28.2169">
        <ele>32.3</ele>
      </trkpt>
      <trkpt lat="36.97771" lon="28.21696">
        <ele>32.9</ele>
      </trkpt>
      <trkpt lat="36.97769" lon="28.21701">
        <ele>33.5</ele>
      </trkpt>
      <trkpt lat="36.97767" lon="28.21706">
        <ele>34.4</ele>
      </trkpt>
      <trkpt lat="36.97765" lon="28.21713">
        <ele>35.1</ele>
      </trkpt>
      <trkpt lat="36.97761" lon="28.21718">
        <ele>35.4</ele>
      </trkpt>
      <trkpt lat="36.97757" lon="28.21722">
        <ele>35.4</ele>
      </trkpt>
      <trkpt lat="36.97752" lon="28.21723">
        <ele>34.6</ele>
      </trkpt>
      <trkpt lat="36.97747" lon="28.21723">
        <ele>33.9</ele>
      </trkpt>
      <trkpt lat="36.97742" lon="28.21722">
        <ele>33</ele>
      </trkpt>
      <trkpt lat="36.97738" lon="28.21721">
        <ele>32.3</ele>
      </trkpt>
      <trkpt lat="36.97733" lon="28.21719">
        <ele>31.3</ele>
      </trkpt>
      <trkpt lat="36.97728" lon="28.21718">
        <ele>30.6</ele>
      </trkpt>
      <trkpt lat="36.97723" lon="28.21714">
        <ele>29.2</ele>
      </trkpt>
      <trkpt lat="36.97718" lon="28.21712">
        <ele>28.3</ele>
      </trkpt>
      <trkpt lat="36.97714" lon="28.21711">
        <ele>27.6</ele>
      </trkpt>
      <trkpt lat="36.97709" lon="28.21709">
        <ele>26.6</ele>
      </trkpt>
      <trkpt lat="36.97704" lon="28.21706">
        <ele>25.7</ele>
      </trkpt>
      <trkpt lat="36.977" lon="28.21705">
        <ele>25</ele>
      </trkpt>
      <trkpt lat="36.97695" lon="28.21705">
        <ele>24.5</ele>
      </trkpt>
      <trkpt lat="36.9769" lon="28.21705">
        <ele>24.1</ele>
      </trkpt>
      <trkpt lat="36.97685" lon="28.21706">
        <ele>23.8</ele>
      </trkpt>
      <trkpt lat="36.9768" lon="28.21707">
        <ele>23.6</ele>
      </trkpt>
      <trkpt lat="36.97675" lon="28.21709">
        <ele>23.5</ele>
      </trkpt>
      <trkpt lat="36.97671" lon="28.21712">
        <ele>23.5</ele>
      </trkpt>
      <trkpt lat="36.97666" lon="28.21716">
        <ele>23.8</ele>
      </trkpt>
      <trkpt lat="36.97663" lon="28.2172">
        <ele>24.1</ele>
      </trkpt>
      <trkpt lat="36.97659" lon="28.21726">
        <ele>24.5</ele>
      </trkpt>
      <trkpt lat="36.97654" lon="28.2173">
        <ele>24.5</ele>
      </trkpt>
      <trkpt lat="36.97651" lon="28.21735">
        <ele>24.7</ele>
      </trkpt>
      <trkpt lat="36.97648" lon="28.2174">
        <ele>25.1</ele>
      </trkpt>
      <trkpt lat="36.97645" lon="28.21746">
        <ele>25.4</ele>
      </trkpt>
      <trkpt lat="36.97642" lon="28.21752">
        <ele>25.8</ele>
      </trkpt>
      <trkpt lat="36.9764" lon="28.21758">
        <ele>26.7</ele>
      </trkpt>
      <trkpt lat="36.9764" lon="28.21765">
        <ele>27.9</ele>
      </trkpt>
      <trkpt lat="36.97639" lon="28.21772">
        <ele>29</ele>
      </trkpt>
      <trkpt lat="36.97641" lon="28.21777">
        <ele>30.2</ele>
      </trkpt>
      <trkpt lat="36.97641" lon="28.21785">
        <ele>31.5</ele>
      </trkpt>
      <trkpt lat="36.97641" lon="28.2179">
        <ele>32.7</ele>
      </trkpt>
      <trkpt lat="36.97641" lon="28.21796">
        <ele>33.7</ele>
      </trkpt>
      <trkpt lat="36.97641" lon="28.21802">
        <ele>34.8</ele>
      </trkpt>
      <trkpt lat="36.9764" lon="28.21808">
        <ele>35.7</ele>
      </trkpt>
      <trkpt lat="36.97639" lon="28.21815">
        <ele>36.7</ele>
      </trkpt>
      <trkpt lat="36.9764" lon="28.21822">
        <ele>38.1</ele>
      </trkpt>
      <trkpt lat="36.97641" lon="28.21828">
        <ele>39.3</ele>
      </trkpt>
      <trkpt lat="36.9764" lon="28.21834">
        <ele>40.4</ele>
      </trkpt>
      <trkpt lat="36.9764" lon="28.2184">
        <ele>41.2</ele>
      </trkpt>
      <trkpt lat="36.97638" lon="28.21847">
        <ele>42.1</ele>
      </trkpt>
      <trkpt lat="36.97637" lon="28.21854">
        <ele>43.1</ele>
      </trkpt>
      <trkpt lat="36.97636" lon="28.21859">
        <ele>43.7</ele>
      </trkpt>
      <trkpt lat="36.97634" lon="28.21865">
        <ele>44.4</ele>
      </trkpt>
      <trkpt lat="36.97631" lon="28.2187">
        <ele>44.8</ele>
      </trkpt>
      <trkpt lat="36.97628" lon="28.21875">
        <ele>45</ele>
      </trkpt>
      <trkpt lat="36.97626" lon="28.2188">
        <ele>45.8</ele>
      </trkpt>
      <trkpt lat="36.97623" lon="28.21885">
        <ele>46.1</ele>
      </trkpt>
      <trkpt lat="36.9762" lon="28.2189">
        <ele>46.7</ele>
      </trkpt>
      <trkpt lat="36.9762" lon="28.21896">
        <ele>47.7</ele>
      </trkpt>
      <trkpt lat="36.97621" lon="28.21902">
        <ele>49</ele>
      </trkpt>
      <trkpt lat="36.97622" lon="28.21908">
        <ele>50.2</ele>
      </trkpt>
      <trkpt lat="36.97622" lon="28.21916">
        <ele>51.4</ele>
      </trkpt>
      <trkpt lat="36.97623" lon="28.21921">
        <ele>52.2</ele>
      </trkpt>
      <trkpt lat="36.97622" lon="28.21929">
        <ele>52.8</ele>
      </trkpt>
      <trkpt lat="36.97623" lon="28.21935">
        <ele>53.5</ele>
      </trkpt>
      <trkpt lat="36.97622" lon="28.21942">
        <ele>54.1</ele>
      </trkpt>
      <trkpt lat="36.97622" lon="28.2195">
        <ele>54.8</ele>
      </trkpt>
      <trkpt lat="36.97622" lon="28.21956">
        <ele>55.4</ele>
      </trkpt>
      <trkpt lat="36.97621" lon="28.21962">
        <ele>55.9</ele>
      </trkpt>
      <trkpt lat="36.97623" lon="28.21967">
        <ele>56.6</ele>
      </trkpt>
      <trkpt lat="36.97622" lon="28.21973">
        <ele>57.1</ele>
      </trkpt>
      <trkpt lat="36.97623" lon="28.21979">
        <ele>57.7</ele>
      </trkpt>
      <trkpt lat="36.97622" lon="28.21986">
        <ele>58.4</ele>
      </trkpt>
      <trkpt lat="36.97622" lon="28.21992">
        <ele>58.9</ele>
      </trkpt>
      <trkpt lat="36.97622" lon="28.21998">
        <ele>59.5</ele>
      </trkpt>
      <trkpt lat="36.97622" lon="28.22003">
        <ele>60</ele>
      </trkpt>
      <trkpt lat="36.97622" lon="28.2201">
        <ele>60.6</ele>
      </trkpt>
      <trkpt lat="36.97623" lon="28.22016">
        <ele>61.3</ele>
      </trkpt>
      <trkpt lat="36.97624" lon="28.22024">
        <ele>62</ele>
      </trkpt>
      <trkpt lat="36.97627" lon="28.22029">
        <ele>62.8</ele>
      </trkpt>
      <trkpt lat="36.97631" lon="28.22033">
        <ele>63.6</ele>
      </trkpt>
      <trkpt lat="36.97638" lon="28.22033">
        <ele>64.2</ele>
      </trkpt>
      <trkpt lat="36.97643" lon="28.22033">
        <ele>64.8</ele>
      </trkpt>
      <trkpt lat="36.97647" lon="28.22028">
        <ele>64.7</ele>
      </trkpt>
      <trkpt lat="36.97653" lon="28.22024">
        <ele>64.9</ele>
      </trkpt>
      <trkpt lat="36.97657" lon="28.22021">
        <ele>65.1</ele>
      </trkpt>
      <trkpt lat="36.97661" lon="28.22017">
        <ele>65</ele>
      </trkpt>
      <trkpt lat="36.97666" lon="28.22014">
        <ele>65.2</ele>
      </trkpt>
      <trkpt lat="36.9767" lon="28.22009">
        <ele>65</ele>
      </trkpt>
      <trkpt lat="36.97672" lon="28.22003">
        <ele>64.5</ele>
      </trkpt>
      <trkpt lat="36.97673" lon="28.21997">
        <ele>64.1</ele>
      </trkpt>
      <trkpt lat="36.97676" lon="28.21992">
        <ele>63.9</ele>
      </trkpt>
      <trkpt lat="36.97679" lon="28.21987">
        <ele>63.7</ele>
      </trkpt>
      <trkpt lat="36.97684" lon="28.21984">
        <ele>63.8</ele>
      </trkpt>
      <trkpt lat="36.97692" lon="28.21983">
        <ele>64.3</ele>
      </trkpt>
      <trkpt lat="36.97698" lon="28.21984">
        <ele>64.7</ele>
      </trkpt>
      <trkpt lat="36.97702" lon="28.21983">
        <ele>65</ele>
      </trkpt>
      <trkpt lat="36.97707" lon="28.21984">
        <ele>65.3</ele>
      </trkpt>
      <trkpt lat="36.97712" lon="28.21982">
        <ele>65.6</ele>
      </trkpt>
      <trkpt lat="36.97717" lon="28.21982">
        <ele>65.9</ele>
      </trkpt>
      <trkpt lat="36.97722" lon="28.21981">
        <ele>66.2</ele>
      </trkpt>
      <trkpt lat="36.97727" lon="28.2198">
        <ele>66.4</ele>
      </trkpt>
      <trkpt lat="36.97732" lon="28.21978">
        <ele>66.7</ele>
      </trkpt>
      <trkpt lat="36.97736" lon="28.21978">
        <ele>67</ele>
      </trkpt>
      <trkpt lat="36.97741" lon="28.21978">
        <ele>67.3</ele>
      </trkpt>
      <trkpt lat="36.97745" lon="28.21982">
        <ele>67.8</ele>
      </trkpt>
      <trkpt lat="36.97749" lon="28.21986">
        <ele>68.3</ele>
      </trkpt>
      <trkpt lat="36.97752" lon="28.21992">
        <ele>68.6</ele>
      </trkpt>
      <trkpt lat="36.97754" lon="28.21998">
        <ele>68.8</ele>
      </trkpt>
      <trkpt lat="36.97756" lon="28.22004">
        <ele>68.9</ele>
      </trkpt>
      <trkpt lat="36.97758" lon="28.22009">
        <ele>69</ele>
      </trkpt>
      <trkpt lat="36.9776" lon="28.22015">
        <ele>69.1</ele>
      </trkpt>
      <trkpt lat="36.97763" lon="28.2202">
        <ele>69.1</ele>
      </trkpt>
      <trkpt lat="36.97765" lon="28.22026">
        <ele>69.2</ele>
      </trkpt>
      <trkpt lat="36.97765" lon="28.22032">
        <ele>69.3</ele>
      </trkpt>
      <trkpt lat="36.97762" lon="28.22038">
        <ele>69.6</ele>
      </trkpt>
      <trkpt lat="36.97759" lon="28.22043">
        <ele>69.7</ele>
      </trkpt>
      <trkpt lat="36.97758" lon="28.22048">
        <ele>69.9</ele>
      </trkpt>
      <trkpt lat="36.97754" lon="28.22054">
        <ele>70.2</ele>
      </trkpt>
      <trkpt lat="36.97751" lon="28.22059">
        <ele>70.4</ele>
      </trkpt>
      <trkpt lat="36.97752" lon="28.22067">
        <ele>70.5</ele>
      </trkpt>
      <trkpt lat="36.97749" lon="28.22073">
        <ele>70.7</ele>
      </trkpt>
      <trkpt lat="36.97745" lon="28.22077">
        <ele>70.9</ele>
      </trkpt>
      <trkpt lat="36.97742" lon="28.22081">
        <ele>71</ele>
      </trkpt>
      <trkpt lat="36.97737" lon="28.22083">
        <ele>71.1</ele>
      </trkpt>
      <trkpt lat="36.97732" lon="28.2208">
        <ele>71.1</ele>
      </trkpt>
      <trkpt lat="36.97728" lon="28.22086">
        <ele>71.5</ele>
      </trkpt>
      <trkpt lat="36.97723" lon="28.22085">
        <ele>71.5</ele>
      </trkpt>
      <trkpt lat="36.97719" lon="28.22087">
        <ele>71.8</ele>
      </trkpt>
      <trkpt lat="36.97714" lon="28.22086">
        <ele>71.8</ele>
      </trkpt>
      <trkpt lat="36.9771" lon="28.22089">
        <ele>72.1</ele>
      </trkpt>
      <trkpt lat="36.97706" lon="28.22092">
        <ele>72.5</ele>
      </trkpt>
      <trkpt lat="36.97704" lon="28.22097">
        <ele>73.1</ele>
      </trkpt>
      <trkpt lat="36.97703" lon="28.22103">
        <ele>73.7</ele>
      </trkpt>
      <trkpt lat="36.977" lon="28.22109">
        <ele>74.5</ele>
      </trkpt>
      <trkpt lat="36.97697" lon="28.22113">
        <ele>75</ele>
      </trkpt>
      <trkpt lat="36.97693" lon="28.22117">
        <ele>75.4</ele>
      </trkpt>
      <trkpt lat="36.97688" lon="28.22118">
        <ele>75.6</ele>
      </trkpt>
      <trkpt lat="36.97683" lon="28.22122">
        <ele>76</ele>
      </trkpt>
      <trkpt lat="36.97679" lon="28.22125">
        <ele>76.4</ele>
      </trkpt>
      <trkpt lat="36.97675" lon="28.22129">
        <ele>76.9</ele>
      </trkpt>
      <trkpt lat="36.97672" lon="28.22135">
        <ele>77.6</ele>
      </trkpt>
      <trkpt lat="36.9767" lon="28.22141">
        <ele>78.2</ele>
      </trkpt>
      <trkpt lat="36.97669" lon="28.22148">
        <ele>78.9</ele>
      </trkpt>
      <trkpt lat="36.97667" lon="28.22154">
        <ele>79.7</ele>
      </trkpt>
      <trkpt lat="36.97664" lon="28.22161">
        <ele>80.2</ele>
      </trkpt>
      <trkpt lat="36.97662" lon="28.22165">
        <ele>80.6</ele>
      </trkpt>
      <trkpt lat="36.97663" lon="28.22171">
        <ele>81</ele>
      </trkpt>
      <trkpt lat="36.97661" lon="28.22176">
        <ele>81.2</ele>
      </trkpt>
      <trkpt lat="36.9766" lon="28.22182">
        <ele>81.5</ele>
      </trkpt>
      <trkpt lat="36.97657" lon="28.22187">
        <ele>81.7</ele>
      </trkpt>
      <trkpt lat="36.97655" lon="28.22193">
        <ele>82.1</ele>
      </trkpt>
      <trkpt lat="36.97654" lon="28.22199">
        <ele>82.4</ele>
      </trkpt>
      <trkpt lat="36.97651" lon="28.22204">
        <ele>82.7</ele>
      </trkpt>
      <trkpt lat="36.97648" lon="28.22211">
        <ele>83.2</ele>
      </trkpt>
      <trkpt lat="36.97645" lon="28.22216">
        <ele>83.6</ele>
      </trkpt>
      <trkpt lat="36.97644" lon="28.22222">
        <ele>84</ele>
      </trkpt>
      <trkpt lat="36.97642" lon="28.2223">
        <ele>84.6</ele>
      </trkpt>
      <trkpt lat="36.9764" lon="28.22235">
        <ele>85.1</ele>
      </trkpt>
      <trkpt lat="36.97638" lon="28.22241">
        <ele>85.7</ele>
      </trkpt>
      <trkpt lat="36.97635" lon="28.22248">
        <ele>86.4</ele>
      </trkpt>
      <trkpt lat="36.97635" lon="28.22255">
        <ele>86.8</ele>
      </trkpt>
      <trkpt lat="36.97631" lon="28.22251">
        <ele>86.7</ele>
      </trkpt>
      <trkpt lat="36.97627" lon="28.22247">
        <ele>86.6</ele>
      </trkpt>
      <trkpt lat="36.97623" lon="28.22242">
        <ele>86.3</ele>
      </trkpt>
      <trkpt lat="36.9762" lon="28.22238">
        <ele>86</ele>
      </trkpt>
      <trkpt lat="36.97615" lon="28.22235">
        <ele>85.8</ele>
      </trkpt>
      <trkpt lat="36.97611" lon="28.22232">
        <ele>85.7</ele>
      </trkpt>
      <trkpt lat="36.97606" lon="28.22229">
        <ele>85.4</ele>
      </trkpt>
      <trkpt lat="36.97602" lon="28.22224">
        <ele>85</ele>
      </trkpt>
      <trkpt lat="36.97597" lon="28.22222">
        <ele>84.8</ele>
      </trkpt>
      <trkpt lat="36.97591" lon="28.2222">
        <ele>84.6</ele>
      </trkpt>
      <trkpt lat="36.97587" lon="28.22217">
        <ele>84.1</ele>
      </trkpt>
      <trkpt lat="36.97583" lon="28.22215">
        <ele>83.9</ele>
      </trkpt>
      <trkpt lat="36.97577" lon="28.22213">
        <ele>83.4</ele>
      </trkpt>
      <trkpt lat="36.97571" lon="28.22211">
        <ele>82.9</ele>
      </trkpt>
      <trkpt lat="36.97565" lon="28.22209">
        <ele>82.4</ele>
      </trkpt>
      <trkpt lat="36.97561" lon="28.2221">
        <ele>82.5</ele>
      </trkpt>
      <trkpt lat="36.97555" lon="28.22212">
        <ele>82.6</ele>
      </trkpt>
      <trkpt lat="36.97552" lon="28.22217">
        <ele>83.3</ele>
      </trkpt>
      <trkpt lat="36.97549" lon="28.22222">
        <ele>84.1</ele>
      </trkpt>
      <trkpt lat="36.97545" lon="28.22226">
        <ele>84.8</ele>
      </trkpt>
      <trkpt lat="36.97541" lon="28.22232">
        <ele>85.7</ele>
      </trkpt>
      <trkpt lat="36.97539" lon="28.22238">
        <ele>86.8</ele>
      </trkpt>
      <trkpt lat="36.97538" lon="28.22244">
        <ele>87.8</ele>
      </trkpt>
      <trkpt lat="36.97535" lon="28.22248">
        <ele>88.6</ele>
      </trkpt>
      <trkpt lat="36.97529" lon="28.2225">
        <ele>89</ele>
      </trkpt>
      <trkpt lat="36.97524" lon="28.22253">
        <ele>89.4</ele>
      </trkpt>
      <trkpt lat="36.9752" lon="28.22256">
        <ele>89.8</ele>
      </trkpt>
      <trkpt lat="36.97516" lon="28.22258">
        <ele>90.1</ele>
      </trkpt>
      <trkpt lat="36.97512" lon="28.2226">
        <ele>90.5</ele>
      </trkpt>
      <trkpt lat="36.97508" lon="28.22264">
        <ele>91.1</ele>
      </trkpt>
      <trkpt lat="36.97504" lon="28.22267">
        <ele>91.6</ele>
      </trkpt>
      <trkpt lat="36.97499" lon="28.22269">
        <ele>91.9</ele>
      </trkpt>
      <trkpt lat="36.97494" lon="28.2227">
        <ele>91.7</ele>
      </trkpt>
      <trkpt lat="36.97489" lon="28.2227">
        <ele>91.5</ele>
      </trkpt>
      <trkpt lat="36.97484" lon="28.2227">
        <ele>91.2</ele>
      </trkpt>
      <trkpt lat="36.97478" lon="28.2227">
        <ele>90.9</ele>
      </trkpt>
      <trkpt lat="36.97471" lon="28.22271">
        <ele>90.6</ele>
      </trkpt>
      <trkpt lat="36.97466" lon="28.22272">
        <ele>90.5</ele>
      </trkpt>
      <trkpt lat="36.97459" lon="28.22271">
        <ele>89.9</ele>
      </trkpt>
      <trkpt lat="36.97457" lon="28.22277">
        <ele>90.7</ele>
      </trkpt>
      <trkpt lat="36.97453" lon="28.22282">
        <ele>91.1</ele>
      </trkpt>
      <trkpt lat="36.9745" lon="28.22287">
        <ele>91.5</ele>
      </trkpt>
      <trkpt lat="36.97447" lon="28.22293">
        <ele>92.1</ele>
      </trkpt>
      <trkpt lat="36.97444" lon="28.22297">
        <ele>92.5</ele>
      </trkpt>
      <trkpt lat="36.97441" lon="28.22304">
        <ele>93.2</ele>
      </trkpt>
      <trkpt lat="36.97439" lon="28.22309">
        <ele>93.7</ele>
      </trkpt>
      <trkpt lat="36.97437" lon="28.22314">
        <ele>94.3</ele>
      </trkpt>
      <trkpt lat="36.97438" lon="28.2232">
        <ele>95</ele>
      </trkpt>
      <trkpt lat="36.97435" lon="28.22325">
        <ele>95.6</ele>
      </trkpt>
      <trkpt lat="36.97435" lon="28.22332">
        <ele>96.3</ele>
      </trkpt>
      <trkpt lat="36.97433" lon="28.22338">
        <ele>96.7</ele>
      </trkpt>
      <trkpt lat="36.97431" lon="28.22344">
        <ele>97.1</ele>
      </trkpt>
      <trkpt lat="36.97429" lon="28.2235">
        <ele>97.5</ele>
      </trkpt>
      <trkpt lat="36.97428" lon="28.22356">
        <ele>97.9</ele>
      </trkpt>
      <trkpt lat="36.97425" lon="28.22361">
        <ele>98.2</ele>
      </trkpt>
      <trkpt lat="36.97421" lon="28.22367">
        <ele>98.5</ele>
      </trkpt>
      <trkpt lat="36.97417" lon="28.22371">
        <ele>98.6</ele>
      </trkpt>
      <trkpt lat="36.97412" lon="28.22374">
        <ele>98.7</ele>
      </trkpt>
      <trkpt lat="36.97407" lon="28.22376">
        <ele>98.8</ele>
      </trkpt>
      <trkpt lat="36.97403" lon="28.22379">
        <ele>99</ele>
      </trkpt>
      <trkpt lat="36.97399" lon="28.22383">
        <ele>99.3</ele>
      </trkpt>
      <trkpt lat="36.97396" lon="28.22388">
        <ele>99.6</ele>
      </trkpt>
      <trkpt lat="36.97393" lon="28.22393">
        <ele>100</ele>
      </trkpt>
      <trkpt lat="36.97392" lon="28.22399">
        <ele>100.5</ele>
      </trkpt>
      <trkpt lat="36.9739" lon="28.22405">
        <ele>100.9</ele>
      </trkpt>
      <trkpt lat="36.97388" lon="28.22411">
        <ele>101.5</ele>
      </trkpt>
      <trkpt lat="36.97387" lon="28.22417">
        <ele>101.9</ele>
      </trkpt>
      <trkpt lat="36.97384" lon="28.22421">
        <ele>102.5</ele>
      </trkpt>
      <trkpt lat="36.97381" lon="28.22426">
        <ele>103.2</ele>
      </trkpt>
      <trkpt lat="36.97379" lon="28.22432">
        <ele>103.9</ele>
      </trkpt>
      <trkpt lat="36.97376" lon="28.22437">
        <ele>104.6</ele>
      </trkpt>
      <trkpt lat="36.97372" lon="28.22441">
        <ele>105.2</ele>
      </trkpt>
      <trkpt lat="36.97369" lon="28.22444">
        <ele>105.7</ele>
      </trkpt>
      <trkpt lat="36.97365" lon="28.22449">
        <ele>106.3</ele>
      </trkpt>
      <trkpt lat="36.9736" lon="28.22453">
        <ele>106.9</ele>
      </trkpt>
      <trkpt lat="36.97357" lon="28.22456">
        <ele>107.5</ele>
      </trkpt>
      <trkpt lat="36.97353" lon="28.2246">
        <ele>108</ele>
      </trkpt>
      <trkpt lat="36.97348" lon="28.22461">
        <ele>108.1</ele>
      </trkpt>
      <trkpt lat="36.97343" lon="28.2246">
        <ele>108</ele>
      </trkpt>
      <trkpt lat="36.97339" lon="28.22462">
        <ele>108.2</ele>
      </trkpt>
      <trkpt lat="36.97333" lon="28.22462">
        <ele>108.2</ele>
      </trkpt>
      <trkpt lat="36.97328" lon="28.22462">
        <ele>109.1</ele>
      </trkpt>
      <trkpt lat="36.97323" lon="28.22461">
        <ele>109.6</ele>
      </trkpt>
      <trkpt lat="36.97321" lon="28.22456">
        <ele>109.2</ele>
      </trkpt>
      <trkpt lat="36.97317" lon="28.22451">
        <ele>109</ele>
      </trkpt>
      <trkpt lat="36.97316" lon="28.22445">
        <ele>108.1</ele>
      </trkpt>
      <trkpt lat="36.97317" lon="28.22437">
        <ele>106.6</ele>
      </trkpt>
      <trkpt lat="36.97316" lon="28.22431">
        <ele>105.7</ele>
      </trkpt>
      <trkpt lat="36.97315" lon="28.22425">
        <ele>105.1</ele>
      </trkpt>
      <trkpt lat="36.97315" lon="28.22419">
        <ele>103.9</ele>
      </trkpt>
      <trkpt lat="36.97312" lon="28.22413">
        <ele>103.7</ele>
      </trkpt>
      <trkpt lat="36.97311" lon="28.22407">
        <ele>103.5</ele>
      </trkpt>
      <trkpt lat="36.97307" lon="28.22402">
        <ele>103.7</ele>
      </trkpt>
      <trkpt lat="36.97306" lon="28.22395">
        <ele>103.4</ele>
      </trkpt>
      <trkpt lat="36.97301" lon="28.22393">
        <ele>104</ele>
      </trkpt>
      <trkpt lat="36.97296" lon="28.2239">
        <ele>104.6</ele>
      </trkpt>
      <trkpt lat="36.97292" lon="28.22388">
        <ele>105.1</ele>
      </trkpt>
      <trkpt lat="36.97287" lon="28.22386">
        <ele>105.9</ele>
      </trkpt>
      <trkpt lat="36.97282" lon="28.22384">
        <ele>106.7</ele>
      </trkpt>
      <trkpt lat="36.97276" lon="28.22383">
        <ele>107.6</ele>
      </trkpt>
      <trkpt lat="36.9727" lon="28.22382">
        <ele>108.7</ele>
      </trkpt>
      <trkpt lat="36.97264" lon="28.2238">
        <ele>109.5</ele>
      </trkpt>
      <trkpt lat="36.97261" lon="28.22377">
        <ele>109.8</ele>
      </trkpt>
      <trkpt lat="36.97261" lon="28.22369">
        <ele>108.9</ele>
      </trkpt>
      <trkpt lat="36.97259" lon="28.22363">
        <ele>108.6</ele>
      </trkpt>
      <trkpt lat="36.9726" lon="28.22357">
        <ele>107.8</ele>
      </trkpt>
      <trkpt lat="36.97257" lon="28.22349">
        <ele>107.5</ele>
      </trkpt>
      <trkpt lat="36.97255" lon="28.22342">
        <ele>107</ele>
      </trkpt>
      <trkpt lat="36.97251" lon="28.22338">
        <ele>107.3</ele>
      </trkpt>
      <trkpt lat="36.9725" lon="28.22331">
        <ele>106.6</ele>
      </trkpt>
      <trkpt lat="36.97247" lon="28.22325">
        <ele>105.9</ele>
      </trkpt>
      <trkpt lat="36.97244" lon="28.22316">
        <ele>104.7</ele>
      </trkpt>
      <trkpt lat="36.9724" lon="28.22315">
        <ele>105.2</ele>
      </trkpt>
      <trkpt lat="36.97245" lon="28.22316">
        <ele>104.6</ele>
      </trkpt>
      <trkpt lat="36.9724" lon="28.22313">
        <ele>104.9</ele>
      </trkpt>
      <trkpt lat="36.97245" lon="28.22313">
        <ele>103.9</ele>
      </trkpt>
      <trkpt lat="36.97241" lon="28.22315">
        <ele>105.2</ele>
      </trkpt>
      <trkpt lat="36.97245" lon="28.22318">
        <ele>104.9</ele>
      </trkpt>
      <trkpt lat="36.97249" lon="28.22322">
        <ele>105</ele>
      </trkpt>
      <trkpt lat="36.97252" lon="28.22327">
        <ele>105.4</ele>
      </trkpt>
      <trkpt lat="36.97254" lon="28.22332">
        <ele>106.1</ele>
      </trkpt>
      <trkpt lat="36.97257" lon="28.22339">
        <ele>106.5</ele>
      </trkpt>
      <trkpt lat="36.97259" lon="28.22345">
        <ele>106.7</ele>
      </trkpt>
      <trkpt lat="36.97259" lon="28.22351">
        <ele>107.3</ele>
      </trkpt>
      <trkpt lat="36.97259" lon="28.22357">
        <ele>108</ele>
      </trkpt>
      <trkpt lat="36.97263" lon="28.22362">
        <ele>107.7</ele>
      </trkpt>
      <trkpt lat="36.97261" lon="28.22357">
        <ele>107.7</ele>
      </trkpt>
      <trkpt lat="36.97257" lon="28.22352">
        <ele>107.8</ele>
      </trkpt>
      <trkpt lat="36.97255" lon="28.22347">
        <ele>107.7</ele>
      </trkpt>
      <trkpt lat="36.97253" lon="28.22341">
        <ele>107.4</ele>
      </trkpt>
      <trkpt lat="36.97251" lon="28.22335">
        <ele>107</ele>
      </trkpt>
      <trkpt lat="36.97248" lon="28.22329">
        <ele>106.5</ele>
      </trkpt>
      <trkpt lat="36.97247" lon="28.22324">
        <ele>105.7</ele>
      </trkpt>
      <trkpt lat="36.97243" lon="28.22318">
        <ele>105.3</ele>
      </trkpt>
      <trkpt lat="36.97248" lon="28.2232">
        <ele>104.8</ele>
      </trkpt>
      <trkpt lat="36.97244" lon="28.22315">
        <ele>104.6</ele>
      </trkpt>
      <trkpt lat="36.97239" lon="28.22312">
        <ele>104.8</ele>
      </trkpt>
      <trkpt lat="36.97235" lon="28.2231">
        <ele>105.2</ele>
      </trkpt>
      <trkpt lat="36.97231" lon="28.22308">
        <ele>105.4</ele>
      </trkpt>
      <trkpt lat="36.97226" lon="28.22305">
        <ele>105.7</ele>
      </trkpt>
      <trkpt lat="36.97222" lon="28.22301">
        <ele>105.7</ele>
      </trkpt>
      <trkpt lat="36.97219" lon="28.22296">
        <ele>105.4</ele>
      </trkpt>
      <trkpt lat="36.97216" lon="28.2229">
        <ele>104.6</ele>
      </trkpt>
      <trkpt lat="36.97212" lon="28.22287">
        <ele>104.6</ele>
      </trkpt>
      <trkpt lat="36.97208" lon="28.22283">
        <ele>104.6</ele>
      </trkpt>
      <trkpt lat="36.97204" lon="28.22279">
        <ele>104.6</ele>
      </trkpt>
      <trkpt lat="36.97198" lon="28.22277">
        <ele>105.1</ele>
      </trkpt>
      <trkpt lat="36.97194" lon="28.22273">
        <ele>105</ele>
      </trkpt>
      <trkpt lat="36.97188" lon="28.22273">
        <ele>106</ele>
      </trkpt>
      <trkpt lat="36.97182" lon="28.22272">
        <ele>106.7</ele>
      </trkpt>
      <trkpt lat="36.97177" lon="28.2227">
        <ele>107.3</ele>
      </trkpt>
      <trkpt lat="36.97173" lon="28.22269">
        <ele>107.9</ele>
      </trkpt>
      <trkpt lat="36.97167" lon="28.22268">
        <ele>108.7</ele>
      </trkpt>
      <trkpt lat="36.97162" lon="28.2227">
        <ele>110</ele>
      </trkpt>
      <trkpt lat="36.97157" lon="28.2227">
        <ele>110.9</ele>
      </trkpt>
      <trkpt lat="36.97153" lon="28.22269">
        <ele>111.8</ele>
      </trkpt>
      <trkpt lat="36.97148" lon="28.2227">
        <ele>112.9</ele>
      </trkpt>
      <trkpt lat="36.97142" lon="28.22272">
        <ele>114.3</ele>
      </trkpt>
      <trkpt lat="36.97138" lon="28.22274">
        <ele>115.4</ele>
      </trkpt>
      <trkpt lat="36.97133" lon="28.22275">
        <ele>116.5</ele>
      </trkpt>
      <trkpt lat="36.97128" lon="28.22276">
        <ele>117.5</ele>
      </trkpt>
      <trkpt lat="36.97123" lon="28.22279">
        <ele>118.6</ele>
      </trkpt>
      <trkpt lat="36.97118" lon="28.22279">
        <ele>119.6</ele>
      </trkpt>
      <trkpt lat="36.97114" lon="28.22283">
        <ele>120.4</ele>
      </trkpt>
      <trkpt lat="36.97109" lon="28.2228">
        <ele>121.1</ele>
      </trkpt>
      <trkpt lat="36.97107" lon="28.22274">
        <ele>121.3</ele>
      </trkpt>
      <trkpt lat="36.97104" lon="28.22266">
        <ele>121.8</ele>
      </trkpt>
      <trkpt lat="36.97104" lon="28.22258">
        <ele>121.6</ele>
      </trkpt>
      <trkpt lat="36.97105" lon="28.22251">
        <ele>121.4</ele>
      </trkpt>
      <trkpt lat="36.97105" lon="28.22242">
        <ele>120.6</ele>
      </trkpt>
      <trkpt lat="36.97109" lon="28.22239">
        <ele>119.2</ele>
      </trkpt>
      <trkpt lat="36.9711" lon="28.22233">
        <ele>118.2</ele>
      </trkpt>
      <trkpt lat="36.97111" lon="28.22227">
        <ele>117.6</ele>
      </trkpt>
      <trkpt lat="36.97111" lon="28.22221">
        <ele>116.8</ele>
      </trkpt>
      <trkpt lat="36.97109" lon="28.22214">
        <ele>116.7</ele>
      </trkpt>
      <trkpt lat="36.97109" lon="28.22208">
        <ele>116.2</ele>
      </trkpt>
      <trkpt lat="36.97109" lon="28.22202">
        <ele>115.6</ele>
      </trkpt>
      <trkpt lat="36.97111" lon="28.22196">
        <ele>114.4</ele>
      </trkpt>
      <trkpt lat="36.97112" lon="28.22189">
        <ele>113.2</ele>
      </trkpt>
      <trkpt lat="36.97115" lon="28.22182">
        <ele>111.7</ele>
      </trkpt>
      <trkpt lat="36.97116" lon="28.22177">
        <ele>110.7</ele>
      </trkpt>
      <trkpt lat="36.97117" lon="28.22171">
        <ele>109.9</ele>
      </trkpt>
      <trkpt lat="36.97118" lon="28.22165">
        <ele>108.8</ele>
      </trkpt>
      <trkpt lat="36.97119" lon="28.22159">
        <ele>107.4</ele>
      </trkpt>
      <trkpt lat="36.97122" lon="28.22153">
        <ele>105.7</ele>
      </trkpt>
      <trkpt lat="36.97124" lon="28.22147">
        <ele>104.4</ele>
      </trkpt>
      <trkpt lat="36.97124" lon="28.22141">
        <ele>103.4</ele>
      </trkpt>
      <trkpt lat="36.97124" lon="28.22135">
        <ele>102.7</ele>
      </trkpt>
      <trkpt lat="36.97122" lon="28.22128">
        <ele>102.3</ele>
      </trkpt>
      <trkpt lat="36.97117" lon="28.22125">
        <ele>103.1</ele>
      </trkpt>
      <trkpt lat="36.97111" lon="28.22123">
        <ele>104.4</ele>
      </trkpt>
      <trkpt lat="36.97107" lon="28.2212">
        <ele>104.8</ele>
      </trkpt>
      <trkpt lat="36.97103" lon="28.22117">
        <ele>105.5</ele>
      </trkpt>
      <trkpt lat="36.97099" lon="28.22115">
        <ele>106.1</ele>
      </trkpt>
      <trkpt lat="36.97094" lon="28.22117">
        <ele>107.5</ele>
      </trkpt>
      <trkpt lat="36.97089" lon="28.22116">
        <ele>108.6</ele>
      </trkpt>
      <trkpt lat="36.97083" lon="28.22116">
        <ele>110.1</ele>
      </trkpt>
      <trkpt lat="36.97078" lon="28.22116">
        <ele>109.7</ele>
      </trkpt>
      <trkpt lat="36.97072" lon="28.22114">
        <ele>108.9</ele>
      </trkpt>
      <trkpt lat="36.97066" lon="28.22116">
        <ele>108.7</ele>
      </trkpt>
      <trkpt lat="36.97061" lon="28.22119">
        <ele>109.3</ele>
      </trkpt>
      <trkpt lat="36.97056" lon="28.2212">
        <ele>109.2</ele>
      </trkpt>
      <trkpt lat="36.97051" lon="28.22123">
        <ele>109.7</ele>
      </trkpt>
      <trkpt lat="36.97046" lon="28.22124">
        <ele>109.6</ele>
      </trkpt>
      <trkpt lat="36.97041" lon="28.22125">
        <ele>109.4</ele>
      </trkpt>
      <trkpt lat="36.97036" lon="28.22124">
        <ele>108.8</ele>
      </trkpt>
      <trkpt lat="36.97031" lon="28.22124">
        <ele>108.4</ele>
      </trkpt>
      <trkpt lat="36.97026" lon="28.22126">
        <ele>108.7</ele>
      </trkpt>
      <trkpt lat="36.97021" lon="28.22124">
        <ele>108</ele>
      </trkpt>
      <trkpt lat="36.97016" lon="28.22125">
        <ele>107.9</ele>
      </trkpt>
      <trkpt lat="36.97012" lon="28.22125">
        <ele>107.6</ele>
      </trkpt>
      <trkpt lat="36.97005" lon="28.22125">
        <ele>107.2</ele>
      </trkpt>
      <trkpt lat="36.97001" lon="28.22127">
        <ele>107.7</ele>
      </trkpt>
      <trkpt lat="36.96996" lon="28.2213">
        <ele>107.7</ele>
      </trkpt>
      <trkpt lat="36.9699" lon="28.2213">
        <ele>106.8</ele>
      </trkpt>
      <trkpt lat="36.96984" lon="28.22131">
        <ele>106.2</ele>
      </trkpt>
      <trkpt lat="36.9698" lon="28.22128">
        <ele>104.4</ele>
      </trkpt>
      <trkpt lat="36.96975" lon="28.22127">
        <ele>103.2</ele>
      </trkpt>
      <trkpt lat="36.9697" lon="28.22128">
        <ele>102.7</ele>
      </trkpt>
      <trkpt lat="36.96965" lon="28.22129">
        <ele>102</ele>
      </trkpt>
      <trkpt lat="36.96961" lon="28.22132">
        <ele>102.4</ele>
      </trkpt>
      <trkpt lat="36.96957" lon="28.22135">
        <ele>102.4</ele>
      </trkpt>
      <trkpt lat="36.96953" lon="28.2214">
        <ele>103.3</ele>
      </trkpt>
      <trkpt lat="36.96951" lon="28.22146">
        <ele>104.6</ele>
      </trkpt>
      <trkpt lat="36.96949" lon="28.22154">
        <ele>106.5</ele>
      </trkpt>
      <trkpt lat="36.96947" lon="28.2216">
        <ele>107.8</ele>
      </trkpt>
      <trkpt lat="36.96944" lon="28.22165">
        <ele>108.8</ele>
      </trkpt>
      <trkpt lat="36.96942" lon="28.22171">
        <ele>109.9</ele>
      </trkpt>
      <trkpt lat="36.96938" lon="28.22175">
        <ele>110</ele>
      </trkpt>
      <trkpt lat="36.96934" lon="28.22179">
        <ele>110.4</ele>
      </trkpt>
      <trkpt lat="36.96931" lon="28.22184">
        <ele>111.2</ele>
      </trkpt>
      <trkpt lat="36.96928" lon="28.22188">
        <ele>111.7</ele>
      </trkpt>
      <trkpt lat="36.96926" lon="28.22194">
        <ele>112.7</ele>
      </trkpt>
      <trkpt lat="36.96921" lon="28.22196">
        <ele>112.3</ele>
      </trkpt>
      <trkpt lat="36.96915" lon="28.22195">
        <ele>111.3</ele>
      </trkpt>
      <trkpt lat="36.96911" lon="28.22194">
        <ele>110.6</ele>
      </trkpt>
      <trkpt lat="36.96906" lon="28.22195">
        <ele>110.1</ele>
      </trkpt>
      <trkpt lat="36.96901" lon="28.22193">
        <ele>109</ele>
      </trkpt>
      <trkpt lat="36.96896" lon="28.22191">
        <ele>107.9</ele>
      </trkpt>
      <trkpt lat="36.96892" lon="28.22193">
        <ele>107.8</ele>
      </trkpt>
      <trkpt lat="36.96887" lon="28.22197">
        <ele>108.1</ele>
      </trkpt>
      <trkpt lat="36.96883" lon="28.22199">
        <ele>108.4</ele>
      </trkpt>
      <trkpt lat="36.96878" lon="28.22201">
        <ele>108.3</ele>
      </trkpt>
      <trkpt lat="36.96874" lon="28.22204">
        <ele>108.8</ele>
      </trkpt>
      <trkpt lat="36.96869" lon="28.22205">
        <ele>108.4</ele>
      </trkpt>
      <trkpt lat="36.96867" lon="28.2221">
        <ele>109.8</ele>
      </trkpt>
      <trkpt lat="36.96863" lon="28.22214">
        <ele>110.6</ele>
      </trkpt>
      <trkpt lat="36.96859" lon="28.22216">
        <ele>110.7</ele>
      </trkpt>
      <trkpt lat="36.96854" lon="28.22217">
        <ele>110.8</ele>
      </trkpt>
      <trkpt lat="36.96849" lon="28.22218">
        <ele>110.5</ele>
      </trkpt>
      <trkpt lat="36.96847" lon="28.22223">
        <ele>112</ele>
      </trkpt>
      <trkpt lat="36.96843" lon="28.22225">
        <ele>112.4</ele>
      </trkpt>
      <trkpt lat="36.96838" lon="28.22226">
        <ele>112.1</ele>
      </trkpt>
      <trkpt lat="36.96835" lon="28.22222">
        <ele>110.4</ele>
      </trkpt>
      <trkpt lat="36.96829" lon="28.22223">
        <ele>111</ele>
      </trkpt>
      <trkpt lat="36.96824" lon="28.22222">
        <ele>111.2</ele>
      </trkpt>
      <trkpt lat="36.96819" lon="28.22225">
        <ele>112.8</ele>
      </trkpt>
      <trkpt lat="36.96815" lon="28.22228">
        <ele>114</ele>
      </trkpt>
      <trkpt lat="36.96811" lon="28.22232">
        <ele>115.7</ele>
      </trkpt>
      <trkpt lat="36.96805" lon="28.22234">
        <ele>116.9</ele>
      </trkpt>
      <trkpt lat="36.968" lon="28.22236">
        <ele>118.2</ele>
      </trkpt>
      <trkpt lat="36.96794" lon="28.22237">
        <ele>118.9</ele>
      </trkpt>
      <trkpt lat="36.96789" lon="28.22237">
        <ele>119.3</ele>
      </trkpt>
      <trkpt lat="36.96784" lon="28.22237">
        <ele>119.8</ele>
      </trkpt>
      <trkpt lat="36.9678" lon="28.22239">
        <ele>120.7</ele>
      </trkpt>
      <trkpt lat="36.96776" lon="28.22243">
        <ele>122.1</ele>
      </trkpt>
      <trkpt lat="36.96772" lon="28.22238">
        <ele>121.2</ele>
      </trkpt>
      <trkpt lat="36.96767" lon="28.22235">
        <ele>120.6</ele>
      </trkpt>
      <trkpt lat="36.96764" lon="28.22231">
        <ele>119.8</ele>
      </trkpt>
      <trkpt lat="36.9676" lon="28.22225">
        <ele>118.6</ele>
      </trkpt>
      <trkpt lat="36.96757" lon="28.22221">
        <ele>117.9</ele>
      </trkpt>
      <trkpt lat="36.96755" lon="28.22214">
        <ele>116.3</ele>
      </trkpt>
      <trkpt lat="36.96751" lon="28.2221">
        <ele>115.7</ele>
      </trkpt>
      <trkpt lat="36.96748" lon="28.22206">
        <ele>115.6</ele>
      </trkpt>
      <trkpt lat="36.96746" lon="28.22201">
        <ele>114.8</ele>
      </trkpt>
      <trkpt lat="36.96745" lon="28.22195">
        <ele>114.1</ele>
      </trkpt>
      <trkpt lat="36.9674" lon="28.22191">
        <ele>114.4</ele>
      </trkpt>
      <trkpt lat="36.96735" lon="28.2219">
        <ele>116.2</ele>
      </trkpt>
      <trkpt lat="36.9673" lon="28.22188">
        <ele>117.6</ele>
      </trkpt>
      <trkpt lat="36.96724" lon="28.22187">
        <ele>119.3</ele>
      </trkpt>
      <trkpt lat="36.96718" lon="28.22186">
        <ele>121</ele>
      </trkpt>
      <trkpt lat="36.96712" lon="28.22184">
        <ele>122.8</ele>
      </trkpt>
      <trkpt lat="36.96707" lon="28.22182">
        <ele>123.9</ele>
      </trkpt>
      <trkpt lat="36.96703" lon="28.22179">
        <ele>124.8</ele>
      </trkpt>
      <trkpt lat="36.967" lon="28.22174">
        <ele>124.5</ele>
      </trkpt>
      <trkpt lat="36.96701" lon="28.22166">
        <ele>122.9</ele>
      </trkpt>
      <trkpt lat="36.96699" lon="28.2216">
        <ele>124.1</ele>
      </trkpt>
      <trkpt lat="36.96704" lon="28.22159">
        <ele>122.5</ele>
      </trkpt>
      <trkpt lat="36.96704" lon="28.22153">
        <ele>123.2</ele>
      </trkpt>
      <trkpt lat="36.96716" lon="28.22159">
        <ele>118.2</ele>
      </trkpt>
      <trkpt lat="36.96721" lon="28.22156">
        <ele>116.5</ele>
      </trkpt>
      <trkpt lat="36.96712" lon="28.22155">
        <ele>120.2</ele>
      </trkpt>
      <trkpt lat="36.96713" lon="28.22145">
        <ele>120.9</ele>
      </trkpt>
      <trkpt lat="36.96718" lon="28.22148">
        <ele>118.8</ele>
      </trkpt>
      <trkpt lat="36.96716" lon="28.2214">
        <ele>120.2</ele>
      </trkpt>
      <trkpt lat="36.96717" lon="28.22133">
        <ele>120.6</ele>
      </trkpt>
      <trkpt lat="36.96725" lon="28.22129">
        <ele>117.8</ele>
      </trkpt>
      <trkpt lat="36.96724" lon="28.22121">
        <ele>118.8</ele>
      </trkpt>
      <trkpt lat="36.96728" lon="28.22117">
        <ele>117.5</ele>
      </trkpt>
      <trkpt lat="36.96732" lon="28.22115">
        <ele>116.1</ele>
      </trkpt>
      <trkpt lat="36.96737" lon="28.22112">
        <ele>114.1</ele>
      </trkpt>
      <trkpt lat="36.96741" lon="28.22107">
        <ele>112.6</ele>
      </trkpt>
      <trkpt lat="36.96745" lon="28.22102">
        <ele>111.1</ele>
      </trkpt>
      <trkpt lat="36.96747" lon="28.22095">
        <ele>110.9</ele>
      </trkpt>
      <trkpt lat="36.96747" lon="28.22089">
        <ele>111.2</ele>
      </trkpt>
      <trkpt lat="36.96748" lon="28.22082">
        <ele>111.3</ele>
      </trkpt>
      <trkpt lat="36.96747" lon="28.22074">
        <ele>112.3</ele>
      </trkpt>
      <trkpt lat="36.96746" lon="28.22069">
        <ele>113</ele>
      </trkpt>
      <trkpt lat="36.96743" lon="28.22063">
        <ele>114.6</ele>
      </trkpt>
      <trkpt lat="36.96745" lon="28.22056">
        <ele>114.5</ele>
      </trkpt>
      <trkpt lat="36.96742" lon="28.22051">
        <ele>116.2</ele>
      </trkpt>
      <trkpt lat="36.9674" lon="28.22045">
        <ele>117.5</ele>
      </trkpt>
      <trkpt lat="36.96743" lon="28.2204">
        <ele>116.4</ele>
      </trkpt>
      <trkpt lat="36.96744" lon="28.22035">
        <ele>116</ele>
      </trkpt>
      <trkpt lat="36.96749" lon="28.2203">
        <ele>114</ele>
      </trkpt>
      <trkpt lat="36.96752" lon="28.22025">
        <ele>113</ele>
      </trkpt>
      <trkpt lat="36.96754" lon="28.2202">
        <ele>112.6</ele>
      </trkpt>
      <trkpt lat="36.96757" lon="28.22014">
        <ele>112.3</ele>
      </trkpt>
      <trkpt lat="36.9676" lon="28.22007">
        <ele>111.7</ele>
      </trkpt>
      <trkpt lat="36.96756" lon="28.22003">
        <ele>113.1</ele>
      </trkpt>
      <trkpt lat="36.96759" lon="28.21998">
        <ele>113</ele>
      </trkpt>
      <trkpt lat="36.96753" lon="28.21992">
        <ele>116.3</ele>
      </trkpt>
      <trkpt lat="36.9675" lon="28.21989">
        <ele>118.4</ele>
      </trkpt>
      <trkpt lat="36.96749" lon="28.21982">
        <ele>120.7</ele>
      </trkpt>
      <trkpt lat="36.96749" lon="28.21976">
        <ele>122.6</ele>
      </trkpt>
      <trkpt lat="36.96747" lon="28.21969">
        <ele>125.5</ele>
      </trkpt>
      <trkpt lat="36.96749" lon="28.21963">
        <ele>125.9</ele>
      </trkpt>
      <trkpt lat="36.96754" lon="28.21959">
        <ele>125.4</ele>
      </trkpt>
      <trkpt lat="36.9676" lon="28.21961">
        <ele>123.2</ele>
      </trkpt>
      <trkpt lat="36.96766" lon="28.21962">
        <ele>120.9</ele>
      </trkpt>
      <trkpt lat="36.96771" lon="28.21963">
        <ele>119.1</ele>
      </trkpt>
      <trkpt lat="36.96777" lon="28.21964">
        <ele>117.2</ele>
      </trkpt>
      <trkpt lat="36.96783" lon="28.21962">
        <ele>115.7</ele>
      </trkpt>
      <trkpt lat="36.96788" lon="28.2196">
        <ele>114.6</ele>
      </trkpt>
      <trkpt lat="36.96793" lon="28.21961">
        <ele>113</ele>
      </trkpt>
      <trkpt lat="36.96797" lon="28.21959">
        <ele>112.2</ele>
      </trkpt>
      <trkpt lat="36.96802" lon="28.21956">
        <ele>111.4</ele>
      </trkpt>
      <trkpt lat="36.96807" lon="28.21955">
        <ele>110.1</ele>
      </trkpt>
      <trkpt lat="36.96813" lon="28.21954">
        <ele>108.6</ele>
      </trkpt>
      <trkpt lat="36.96817" lon="28.21951">
        <ele>107.7</ele>
      </trkpt>
      <trkpt lat="36.96822" lon="28.2195">
        <ele>106.5</ele>
      </trkpt>
      <trkpt lat="36.96826" lon="28.2195">
        <ele>105.1</ele>
      </trkpt>
      <trkpt lat="36.96832" lon="28.21946">
        <ele>104.1</ele>
      </trkpt>
      <trkpt lat="36.96836" lon="28.21941">
        <ele>103.8</ele>
      </trkpt>
      <trkpt lat="36.96837" lon="28.21933">
        <ele>105.4</ele>
      </trkpt>
      <trkpt lat="36.96835" lon="28.21927">
        <ele>107.2</ele>
      </trkpt>
      <trkpt lat="36.96833" lon="28.21921">
        <ele>109.1</ele>
      </trkpt>
      <trkpt lat="36.96829" lon="28.21916">
        <ele>111.6</ele>
      </trkpt>
      <trkpt lat="36.96827" lon="28.2191">
        <ele>112.7</ele>
      </trkpt>
      <trkpt lat="36.96825" lon="28.21905">
        <ele>113.5</ele>
      </trkpt>
      <trkpt lat="36.96823" lon="28.21899">
        <ele>114.7</ele>
      </trkpt>
      <trkpt lat="36.9682" lon="28.21894">
        <ele>116</ele>
      </trkpt>
      <trkpt lat="36.96819" lon="28.21888">
        <ele>117.1</ele>
      </trkpt>
      <trkpt lat="36.96817" lon="28.21881">
        <ele>118.2</ele>
      </trkpt>
      <trkpt lat="36.96816" lon="28.21875">
        <ele>119.1</ele>
      </trkpt>
      <trkpt lat="36.96814" lon="28.2187">
        <ele>120.2</ele>
      </trkpt>
      <trkpt lat="36.96811" lon="28.21864">
        <ele>122</ele>
      </trkpt>
      <trkpt lat="36.96808" lon="28.21859">
        <ele>123.4</ele>
      </trkpt>
      <trkpt lat="36.96808" lon="28.21853">
        <ele>123.8</ele>
      </trkpt>
      <trkpt lat="36.96812" lon="28.21847">
        <ele>122.9</ele>
      </trkpt>
      <trkpt lat="36.96809" lon="28.21842">
        <ele>124.4</ele>
      </trkpt>
      <trkpt lat="36.9681" lon="28.21836">
        <ele>124.6</ele>
      </trkpt>
      <trkpt lat="36.96813" lon="28.2183">
        <ele>123.6</ele>
      </trkpt>
      <trkpt lat="36.96817" lon="28.21827">
        <ele>121.8</ele>
      </trkpt>
      <trkpt lat="36.96823" lon="28.21825">
        <ele>119</ele>
      </trkpt>
      <trkpt lat="36.96828" lon="28.2182">
        <ele>117.2</ele>
      </trkpt>
      <trkpt lat="36.96833" lon="28.21817">
        <ele>114.9</ele>
      </trkpt>
      <trkpt lat="36.96837" lon="28.21814">
        <ele>113.6</ele>
      </trkpt>
      <trkpt lat="36.96841" lon="28.21807">
        <ele>112.4</ele>
      </trkpt>
      <trkpt lat="36.96844" lon="28.218">
        <ele>111.3</ele>
      </trkpt>
      <trkpt lat="36.96846" lon="28.21795">
        <ele>110.9</ele>
      </trkpt>
      <trkpt lat="36.96844" lon="28.21788">
        <ele>111.8</ele>
      </trkpt>
      <trkpt lat="36.96838" lon="28.21782">
        <ele>114.4</ele>
      </trkpt>
      <trkpt lat="36.96838" lon="28.21776">
        <ele>114.7</ele>
      </trkpt>
      <trkpt lat="36.96835" lon="28.21771">
        <ele>116.2</ele>
      </trkpt>
      <trkpt lat="36.96834" lon="28.21765">
        <ele>116.9</ele>
      </trkpt>
      <trkpt lat="36.96832" lon="28.21759">
        <ele>118.2</ele>
      </trkpt>
      <trkpt lat="36.9683" lon="28.21753">
        <ele>119.4</ele>
      </trkpt>
      <trkpt lat="36.96827" lon="28.21747">
        <ele>120.9</ele>
      </trkpt>
      <trkpt lat="36.96828" lon="28.21741">
        <ele>120.8</ele>
      </trkpt>
      <trkpt lat="36.96824" lon="28.21737">
        <ele>122.4</ele>
      </trkpt>
      <trkpt lat="36.96823" lon="28.21731">
        <ele>123</ele>
      </trkpt>
      <trkpt lat="36.96823" lon="28.21724">
        <ele>122.9</ele>
      </trkpt>
      <trkpt lat="36.96828" lon="28.21726">
        <ele>120.5</ele>
      </trkpt>
      <trkpt lat="36.9683" lon="28.2172">
        <ele>120</ele>
      </trkpt>
      <trkpt lat="36.96826" lon="28.21717">
        <ele>121.7</ele>
      </trkpt>
      <trkpt lat="36.96829" lon="28.21712">
        <ele>120.5</ele>
      </trkpt>
      <trkpt lat="36.96828" lon="28.21705">
        <ele>120.8</ele>
      </trkpt>
      <trkpt lat="36.9683" lon="28.21699">
        <ele>119.9</ele>
      </trkpt>
      <trkpt lat="36.9683" lon="28.21692">
        <ele>119.9</ele>
      </trkpt>
      <trkpt lat="36.96831" lon="28.21686">
        <ele>119.9</ele>
      </trkpt>
      <trkpt lat="36.96831" lon="28.2168">
        <ele>119.7</ele>
      </trkpt>
      <trkpt lat="36.96832" lon="28.21674">
        <ele>119.6</ele>
      </trkpt>
      <trkpt lat="36.9683" lon="28.21668">
        <ele>120.2</ele>
      </trkpt>
      <trkpt lat="36.9683" lon="28.21661">
        <ele>120.7</ele>
      </trkpt>
      <trkpt lat="36.96827" lon="28.21656">
        <ele>121.9</ele>
      </trkpt>
      <trkpt lat="36.96826" lon="28.21649">
        <ele>122.5</ele>
      </trkpt>
      <trkpt lat="36.96822" lon="28.21646">
        <ele>124.1</ele>
      </trkpt>
      <trkpt lat="36.9682" lon="28.21641">
        <ele>125.1</ele>
      </trkpt>
      <trkpt lat="36.96817" lon="28.21635">
        <ele>126.4</ele>
      </trkpt>
      <trkpt lat="36.96814" lon="28.21629">
        <ele>127.7</ele>
      </trkpt>
      <trkpt lat="36.96812" lon="28.21624">
        <ele>128.5</ele>
      </trkpt>
      <trkpt lat="36.96812" lon="28.21617">
        <ele>128.5</ele>
      </trkpt>
      <trkpt lat="36.96816" lon="28.21611">
        <ele>127.4</ele>
      </trkpt>
      <trkpt lat="36.96818" lon="28.21606">
        <ele>126.7</ele>
      </trkpt>
      <trkpt lat="36.96819" lon="28.216">
        <ele>126.5</ele>
      </trkpt>
      <trkpt lat="36.96822" lon="28.21594">
        <ele>125.6</ele>
      </trkpt>
      <trkpt lat="36.96824" lon="28.21587">
        <ele>125.2</ele>
      </trkpt>
      <trkpt lat="36.96824" lon="28.21582">
        <ele>125.1</ele>
      </trkpt>
      <trkpt lat="36.96824" lon="28.21576">
        <ele>125.1</ele>
      </trkpt>
      <trkpt lat="36.96821" lon="28.21569">
        <ele>125.8</ele>
      </trkpt>
      <trkpt lat="36.96819" lon="28.21563">
        <ele>126.3</ele>
      </trkpt>
      <trkpt lat="36.96818" lon="28.21557">
        <ele>126.6</ele>
      </trkpt>
      <trkpt lat="36.96816" lon="28.21552">
        <ele>126.9</ele>
      </trkpt>
      <trkpt lat="36.96815" lon="28.21545">
        <ele>127.1</ele>
      </trkpt>
      <trkpt lat="36.96814" lon="28.21538">
        <ele>127.1</ele>
      </trkpt>
      <trkpt lat="36.96812" lon="28.21533">
        <ele>127.5</ele>
      </trkpt>
      <trkpt lat="36.96811" lon="28.21526">
        <ele>127.7</ele>
      </trkpt>
      <trkpt lat="36.9681" lon="28.21519">
        <ele>127.7</ele>
      </trkpt>
      <trkpt lat="36.96809" lon="28.21513">
        <ele>127.8</ele>
      </trkpt>
      <trkpt lat="36.96808" lon="28.21507">
        <ele>128</ele>
      </trkpt>
      <trkpt lat="36.96808" lon="28.21501">
        <ele>127.7</ele>
      </trkpt>
      <trkpt lat="36.96807" lon="28.21496">
        <ele>127.6</ele>
      </trkpt>
      <trkpt lat="36.96805" lon="28.21489">
        <ele>127.3</ele>
      </trkpt>
      <trkpt lat="36.96801" lon="28.21486">
        <ele>128</ele>
      </trkpt>
      <trkpt lat="36.96798" lon="28.21481">
        <ele>128.4</ele>
      </trkpt>
      <trkpt lat="36.96794" lon="28.21477">
        <ele>129.1</ele>
      </trkpt>
      <trkpt lat="36.9679" lon="28.21473">
        <ele>129.6</ele>
      </trkpt>
      <trkpt lat="36.96787" lon="28.21467">
        <ele>129.5</ele>
      </trkpt>
      <trkpt lat="36.96783" lon="28.21463">
        <ele>129.9</ele>
      </trkpt>
      <trkpt lat="36.96779" lon="28.21457">
        <ele>130.2</ele>
      </trkpt>
      <trkpt lat="36.96777" lon="28.21453">
        <ele>130</ele>
      </trkpt>
      <trkpt lat="36.96776" lon="28.21447">
        <ele>129.5</ele>
      </trkpt>
      <trkpt lat="36.96774" lon="28.2144">
        <ele>128.8</ele>
      </trkpt>
      <trkpt lat="36.96773" lon="28.21434">
        <ele>128.3</ele>
      </trkpt>
      <trkpt lat="36.96772" lon="28.21429">
        <ele>127.6</ele>
      </trkpt>
      <trkpt lat="36.96769" lon="28.21423">
        <ele>127.4</ele>
      </trkpt>
      <trkpt lat="36.96765" lon="28.2142">
        <ele>127.6</ele>
      </trkpt>
      <trkpt lat="36.9676" lon="28.21416">
        <ele>127.9</ele>
      </trkpt>
      <trkpt lat="36.96755" lon="28.21414">
        <ele>128.7</ele>
      </trkpt>
      <trkpt lat="36.96751" lon="28.21412">
        <ele>129.2</ele>
      </trkpt>
      <trkpt lat="36.96746" lon="28.21411">
        <ele>129.7</ele>
      </trkpt>
      <trkpt lat="36.96741" lon="28.21409">
        <ele>129.9</ele>
      </trkpt>
      <trkpt lat="36.96737" lon="28.21406">
        <ele>130.2</ele>
      </trkpt>
      <trkpt lat="36.96732" lon="28.21404">
        <ele>130.4</ele>
      </trkpt>
      <trkpt lat="36.96726" lon="28.21402">
        <ele>130.7</ele>
      </trkpt>
      <trkpt lat="36.96722" lon="28.21397">
        <ele>130.6</ele>
      </trkpt>
      <trkpt lat="36.96717" lon="28.21394">
        <ele>130.8</ele>
      </trkpt>
      <trkpt lat="36.96711" lon="28.21391">
        <ele>130.9</ele>
      </trkpt>
      <trkpt lat="36.96708" lon="28.21386">
        <ele>130.6</ele>
      </trkpt>
      <trkpt lat="36.96704" lon="28.21382">
        <ele>130.5</ele>
      </trkpt>
      <trkpt lat="36.967" lon="28.21379">
        <ele>130.5</ele>
      </trkpt>
      <trkpt lat="36.96695" lon="28.21376">
        <ele>130.6</ele>
      </trkpt>
      <trkpt lat="36.9669" lon="28.21375">
        <ele>131</ele>
      </trkpt>
      <trkpt lat="36.96685" lon="28.21377">
        <ele>131.8</ele>
      </trkpt>
      <trkpt lat="36.9668" lon="28.21377">
        <ele>132.3</ele>
      </trkpt>
      <trkpt lat="36.96675" lon="28.21378">
        <ele>133</ele>
      </trkpt>
      <trkpt lat="36.96671" lon="28.21378">
        <ele>133.5</ele>
      </trkpt>
      <trkpt lat="36.96665" lon="28.21377">
        <ele>134.3</ele>
      </trkpt>
      <trkpt lat="36.9666" lon="28.21377">
        <ele>135.8</ele>
      </trkpt>
      <trkpt lat="36.96654" lon="28.21378">
        <ele>137.3</ele>
      </trkpt>
      <trkpt lat="36.9665" lon="28.2138">
        <ele>138.8</ele>
      </trkpt>
      <trkpt lat="36.96646" lon="28.21376">
        <ele>139.3</ele>
      </trkpt>
      <trkpt lat="36.96645" lon="28.21369">
        <ele>138.7</ele>
      </trkpt>
      <trkpt lat="36.96645" lon="28.21364">
        <ele>137.9</ele>
      </trkpt>
      <trkpt lat="36.96646" lon="28.21357">
        <ele>136.9</ele>
      </trkpt>
      <trkpt lat="36.96646" lon="28.21351">
        <ele>136</ele>
      </trkpt>
      <trkpt lat="36.96644" lon="28.21345">
        <ele>135.7</ele>
      </trkpt>
      <trkpt lat="36.96642" lon="28.21339">
        <ele>135.9</ele>
      </trkpt>
      <trkpt lat="36.9664" lon="28.21334">
        <ele>135.8</ele>
      </trkpt>
      <trkpt lat="36.96636" lon="28.21329">
        <ele>136.6</ele>
      </trkpt>
      <trkpt lat="36.96632" lon="28.21324">
        <ele>137.4</ele>
      </trkpt>
      <trkpt lat="36.96628" lon="28.2132">
        <ele>138.2</ele>
      </trkpt>
      <trkpt lat="36.96626" lon="28.21315">
        <ele>138.5</ele>
      </trkpt>
      <trkpt lat="36.96623" lon="28.21309">
        <ele>138.8</ele>
      </trkpt>
      <trkpt lat="36.96622" lon="28.21303">
        <ele>138.9</ele>
      </trkpt>
      <trkpt lat="36.9662" lon="28.21298">
        <ele>138.9</ele>
      </trkpt>
      <trkpt lat="36.96617" lon="28.21293">
        <ele>139.2</ele>
      </trkpt>
      <trkpt lat="36.96614" lon="28.21288">
        <ele>139.9</ele>
      </trkpt>
      <trkpt lat="36.9661" lon="28.21284">
        <ele>140.5</ele>
      </trkpt>
      <trkpt lat="36.96609" lon="28.21278">
        <ele>140.4</ele>
      </trkpt>
      <trkpt lat="36.96607" lon="28.21271">
        <ele>140.1</ele>
      </trkpt>
      <trkpt lat="36.96609" lon="28.21265">
        <ele>139.2</ele>
      </trkpt>
      <trkpt lat="36.96608" lon="28.21259">
        <ele>138.9</ele>
      </trkpt>
      <trkpt lat="36.96607" lon="28.21252">
        <ele>138.5</ele>
      </trkpt>
      <trkpt lat="36.96606" lon="28.21246">
        <ele>138.2</ele>
      </trkpt>
      <trkpt lat="36.96604" lon="28.2124">
        <ele>137.9</ele>
      </trkpt>
      <trkpt lat="36.96603" lon="28.21234">
        <ele>137.5</ele>
      </trkpt>
      <trkpt lat="36.966" lon="28.21229">
        <ele>137.9</ele>
      </trkpt>
      <trkpt lat="36.96598" lon="28.21224">
        <ele>138.2</ele>
      </trkpt>
      <trkpt lat="36.96596" lon="28.21218">
        <ele>137.9</ele>
      </trkpt>
      <trkpt lat="36.96595" lon="28.21212">
        <ele>137.8</ele>
      </trkpt>
      <trkpt lat="36.96592" lon="28.21206">
        <ele>137.8</ele>
      </trkpt>
      <trkpt lat="36.96592" lon="28.212">
        <ele>137.1</ele>
      </trkpt>
      <trkpt lat="36.96591" lon="28.21193">
        <ele>136.7</ele>
      </trkpt>
      <trkpt lat="36.96589" lon="28.21189">
        <ele>136.8</ele>
      </trkpt>
      <trkpt lat="36.96588" lon="28.21183">
        <ele>136.5</ele>
      </trkpt>
      <trkpt lat="36.96588" lon="28.21177">
        <ele>136</ele>
      </trkpt>
      <trkpt lat="36.96587" lon="28.21171">
        <ele>135.5</ele>
      </trkpt>
      <trkpt lat="36.96586" lon="28.21165">
        <ele>135.1</ele>
      </trkpt>
      <trkpt lat="36.96587" lon="28.21158">
        <ele>134.3</ele>
      </trkpt>
      <trkpt lat="36.96587" lon="28.21152">
        <ele>133.7</ele>
      </trkpt>
      <trkpt lat="36.96587" lon="28.21146">
        <ele>133.1</ele>
      </trkpt>
      <trkpt lat="36.9659" lon="28.21141">
        <ele>131.7</ele>
      </trkpt>
      <trkpt lat="36.96589" lon="28.21135">
        <ele>131.5</ele>
      </trkpt>
      <trkpt lat="36.96588" lon="28.21129">
        <ele>131.1</ele>
      </trkpt>
      <trkpt lat="36.96585" lon="28.21125">
        <ele>131.5</ele>
      </trkpt>
      <trkpt lat="36.96582" lon="28.21119">
        <ele>131.8</ele>
      </trkpt>
      <trkpt lat="36.96579" lon="28.21114">
        <ele>132</ele>
      </trkpt>
      <trkpt lat="36.96576" lon="28.21109">
        <ele>132</ele>
      </trkpt>
      <trkpt lat="36.96574" lon="28.21103">
        <ele>131.9</ele>
      </trkpt>
      <trkpt lat="36.96572" lon="28.21097">
        <ele>131.8</ele>
      </trkpt>
      <trkpt lat="36.9657" lon="28.2109">
        <ele>131.5</ele>
      </trkpt>
      <trkpt lat="36.96568" lon="28.21085">
        <ele>131.4</ele>
      </trkpt>
      <trkpt lat="36.96566" lon="28.2108">
        <ele>131.5</ele>
      </trkpt>
      <trkpt lat="36.96562" lon="28.21076">
        <ele>131.9</ele>
      </trkpt>
      <trkpt lat="36.96559" lon="28.2107">
        <ele>132</ele>
      </trkpt>
      <trkpt lat="36.96556" lon="28.21065">
        <ele>132.2</ele>
      </trkpt>
      <trkpt lat="36.96551" lon="28.21062">
        <ele>133</ele>
      </trkpt>
      <trkpt lat="36.96548" lon="28.21058">
        <ele>133.3</ele>
      </trkpt>
      <trkpt lat="36.96543" lon="28.21054">
        <ele>134</ele>
      </trkpt>
      <trkpt lat="36.96539" lon="28.21049">
        <ele>134.5</ele>
      </trkpt>
      <trkpt lat="36.96536" lon="28.21046">
        <ele>135</ele>
      </trkpt>
      <trkpt lat="36.96533" lon="28.21041">
        <ele>135.2</ele>
      </trkpt>
      <trkpt lat="36.96529" lon="28.21037">
        <ele>135.7</ele>
      </trkpt>
      <trkpt lat="36.96526" lon="28.21032">
        <ele>135.9</ele>
      </trkpt>
      <trkpt lat="36.96524" lon="28.21027">
        <ele>136</ele>
      </trkpt>
      <trkpt lat="36.96521" lon="28.21022">
        <ele>136.2</ele>
      </trkpt>
      <trkpt lat="36.96517" lon="28.21018">
        <ele>136.8</ele>
      </trkpt>
      <trkpt lat="36.96514" lon="28.21013">
        <ele>136.9</ele>
      </trkpt>
      <trkpt lat="36.96511" lon="28.21009">
        <ele>137.2</ele>
      </trkpt>
      <trkpt lat="36.96508" lon="28.21004">
        <ele>137.6</ele>
      </trkpt>
      <trkpt lat="36.96504" lon="28.20998">
        <ele>138.1</ele>
      </trkpt>
      <trkpt lat="36.96499" lon="28.20994">
        <ele>138.9</ele>
      </trkpt>
      <trkpt lat="36.96495" lon="28.20989">
        <ele>139.5</ele>
      </trkpt>
      <trkpt lat="36.96492" lon="28.20985">
        <ele>140.1</ele>
      </trkpt>
      <trkpt lat="36.96489" lon="28.2098">
        <ele>140.4</ele>
      </trkpt>
      <trkpt lat="36.96486" lon="28.20975">
        <ele>140.8</ele>
      </trkpt>
      <trkpt lat="36.96482" lon="28.20969">
        <ele>141.2</ele>
      </trkpt>
      <trkpt lat="36.96479" lon="28.20965">
        <ele>141.6</ele>
      </trkpt>
      <trkpt lat="36.96477" lon="28.2096">
        <ele>141.7</ele>
      </trkpt>
      <trkpt lat="36.96476" lon="28.20954">
        <ele>141.7</ele>
      </trkpt>
      <trkpt lat="36.9647" lon="28.20953">
        <ele>142.9</ele>
      </trkpt>
      <trkpt lat="36.96468" lon="28.20947">
        <ele>142.9</ele>
      </trkpt>
      <trkpt lat="36.96465" lon="28.20942">
        <ele>143.3</ele>
      </trkpt>
      <trkpt lat="36.96461" lon="28.20938">
        <ele>143.8</ele>
      </trkpt>
      <trkpt lat="36.96457" lon="28.20933">
        <ele>144.3</ele>
      </trkpt>
      <trkpt lat="36.96453" lon="28.20929">
        <ele>144.8</ele>
      </trkpt>
      <trkpt lat="36.9645" lon="28.20924">
        <ele>145.1</ele>
      </trkpt>
      <trkpt lat="36.96446" lon="28.20919">
        <ele>145.6</ele>
      </trkpt>
      <trkpt lat="36.96442" lon="28.20914">
        <ele>146</ele>
      </trkpt>
      <trkpt lat="36.96439" lon="28.20909">
        <ele>146.1</ele>
      </trkpt>
      <trkpt lat="36.96436" lon="28.20904">
        <ele>146.3</ele>
      </trkpt>
      <trkpt lat="36.96433" lon="28.20899">
        <ele>146.5</ele>
      </trkpt>
      <trkpt lat="36.96431" lon="28.20894">
        <ele>146.6</ele>
      </trkpt>
      <trkpt lat="36.96426" lon="28.20888">
        <ele>147.1</ele>
      </trkpt>
      <trkpt lat="36.96422" lon="28.20884">
        <ele>147.6</ele>
      </trkpt>
      <trkpt lat="36.96418" lon="28.20879">
        <ele>148</ele>
      </trkpt>
      <trkpt lat="36.96413" lon="28.20876">
        <ele>148.7</ele>
      </trkpt>
      <trkpt lat="36.9641" lon="28.20872">
        <ele>149</ele>
      </trkpt>
      <trkpt lat="36.96406" lon="28.20868">
        <ele>149.5</ele>
      </trkpt>
      <trkpt lat="36.96402" lon="28.20864">
        <ele>150</ele>
      </trkpt>
      <trkpt lat="36.96398" lon="28.2086">
        <ele>150.4</ele>
      </trkpt>
      <trkpt lat="36.96394" lon="28.20856">
        <ele>150.8</ele>
      </trkpt>
      <trkpt lat="36.9639" lon="28.20852">
        <ele>151.3</ele>
      </trkpt>
      <trkpt lat="36.96387" lon="28.20849">
        <ele>151.6</ele>
      </trkpt>
      <trkpt lat="36.96383" lon="28.20844">
        <ele>151.9</ele>
      </trkpt>
      <trkpt lat="36.96379" lon="28.20841">
        <ele>152.4</ele>
      </trkpt>
      <trkpt lat="36.96374" lon="28.20838">
        <ele>153</ele>
      </trkpt>
      <trkpt lat="36.9637" lon="28.20835">
        <ele>153.5</ele>
      </trkpt>
      <trkpt lat="36.96366" lon="28.20831">
        <ele>153.7</ele>
      </trkpt>
      <trkpt lat="36.96362" lon="28.20828">
        <ele>154</ele>
      </trkpt>
      <trkpt lat="36.96358" lon="28.20825">
        <ele>154.1</ele>
      </trkpt>
      <trkpt lat="36.96353" lon="28.20823">
        <ele>154.6</ele>
      </trkpt>
      <trkpt lat="36.96348" lon="28.20819">
        <ele>154.8</ele>
      </trkpt>
      <trkpt lat="36.96345" lon="28.20816">
        <ele>154.8</ele>
      </trkpt>
      <trkpt lat="36.9634" lon="28.20814">
        <ele>155.1</ele>
      </trkpt>
      <trkpt lat="36.96335" lon="28.20815">
        <ele>156</ele>
      </trkpt>
      <trkpt lat="36.9633" lon="28.20813">
        <ele>155.6</ele>
      </trkpt>
      <trkpt lat="36.96325" lon="28.20812">
        <ele>154.9</ele>
      </trkpt>
      <trkpt lat="36.9632" lon="28.20811">
        <ele>154.4</ele>
      </trkpt>
      <trkpt lat="36.96315" lon="28.2081">
        <ele>153.7</ele>
      </trkpt>
      <trkpt lat="36.9631" lon="28.20812">
        <ele>153.9</ele>
      </trkpt>
      <trkpt lat="36.96306" lon="28.20814">
        <ele>154</ele>
      </trkpt>
      <trkpt lat="36.96302" lon="28.20814">
        <ele>153.9</ele>
      </trkpt>
      <trkpt lat="36.96297" lon="28.20815">
        <ele>153.8</ele>
      </trkpt>
      <trkpt lat="36.96291" lon="28.20816">
        <ele>153.8</ele>
      </trkpt>
      <trkpt lat="36.96287" lon="28.20815">
        <ele>153.1</ele>
      </trkpt>
      <trkpt lat="36.96282" lon="28.20817">
        <ele>153.4</ele>
      </trkpt>
      <trkpt lat="36.96277" lon="28.20817">
        <ele>153.2</ele>
      </trkpt>
      <trkpt lat="36.96272" lon="28.20819">
        <ele>153.9</ele>
      </trkpt>
      <trkpt lat="36.96268" lon="28.20822">
        <ele>154.7</ele>
      </trkpt>
      <trkpt lat="36.96265" lon="28.20826">
        <ele>156.2</ele>
      </trkpt>
      <trkpt lat="36.96261" lon="28.2083">
        <ele>157.9</ele>
      </trkpt>
      <trkpt lat="36.96258" lon="28.20836">
        <ele>159.5</ele>
      </trkpt>
      <trkpt lat="36.96254" lon="28.20841">
        <ele>160.2</ele>
      </trkpt>
      <trkpt lat="36.96252" lon="28.20846">
        <ele>161</ele>
      </trkpt>
      <trkpt lat="36.96248" lon="28.20851">
        <ele>161.1</ele>
      </trkpt>
      <trkpt lat="36.96245" lon="28.20857">
        <ele>160.9</ele>
      </trkpt>
      <trkpt lat="36.96242" lon="28.20862">
        <ele>160.8</ele>
      </trkpt>
      <trkpt lat="36.96238" lon="28.20866">
        <ele>160.3</ele>
      </trkpt>
      <trkpt lat="36.96235" lon="28.20871">
        <ele>160</ele>
      </trkpt>
      <trkpt lat="36.96232" lon="28.20876">
        <ele>160</ele>
      </trkpt>
      <trkpt lat="36.96232" lon="28.20876">
        <ele>160</ele>
      </trkpt>
      <trkpt lat="36.9623" lon="28.20881">
        <ele>160.2</ele>
      </trkpt>
      <trkpt lat="36.96227" lon="28.20886">
        <ele>160.2</ele>
      </trkpt>
      <trkpt lat="36.96224" lon="28.20892">
        <ele>160.4</ele>
      </trkpt>
      <trkpt lat="36.96222" lon="28.20898">
        <ele>160.6</ele>
      </trkpt>
      <trkpt lat="36.9622" lon="28.20903">
        <ele>161</ele>
      </trkpt>
      <trkpt lat="36.96219" lon="28.20909">
        <ele>161.5</ele>
      </trkpt>
      <trkpt lat="36.96216" lon="28.20914">
        <ele>161.7</ele>
      </trkpt>
      <trkpt lat="36.96213" lon="28.2092">
        <ele>161.7</ele>
      </trkpt>
      <trkpt lat="36.96211" lon="28.20926">
        <ele>161.6</ele>
      </trkpt>
      <trkpt lat="36.9621" lon="28.20932">
        <ele>161.8</ele>
      </trkpt>
      <trkpt lat="36.96209" lon="28.20937">
        <ele>161.9</ele>
      </trkpt>
      <trkpt lat="36.96208" lon="28.20943">
        <ele>162.2</ele>
      </trkpt>
      <trkpt lat="36.96207" lon="28.20949">
        <ele>162.6</ele>
      </trkpt>
      <trkpt lat="36.96206" lon="28.20955">
        <ele>162.7</ele>
      </trkpt>
      <trkpt lat="36.96205" lon="28.20961">
        <ele>163.2</ele>
      </trkpt>
      <trkpt lat="36.96205" lon="28.20967">
        <ele>163.6</ele>
      </trkpt>
      <trkpt lat="36.96204" lon="28.20974">
        <ele>164.1</ele>
      </trkpt>
      <trkpt lat="36.96204" lon="28.2098">
        <ele>164.5</ele>
      </trkpt>
      <trkpt lat="36.96204" lon="28.20986">
        <ele>165.2</ele>
      </trkpt>
      <trkpt lat="36.96205" lon="28.20992">
        <ele>166</ele>
      </trkpt>
      <trkpt lat="36.96204" lon="28.20998">
        <ele>166.4</ele>
      </trkpt>
      <trkpt lat="36.962" lon="28.21001">
        <ele>165.7</ele>
      </trkpt>
      <trkpt lat="36.96197" lon="28.20997">
        <ele>164.5</ele>
      </trkpt>
      <trkpt lat="36.96195" lon="28.2099">
        <ele>163.4</ele>
      </trkpt>
      <trkpt lat="36.96193" lon="28.20984">
        <ele>162.5</ele>
      </trkpt>
      <trkpt lat="36.96192" lon="28.20979">
        <ele>161.5</ele>
      </trkpt>
      <trkpt lat="36.9619" lon="28.20973">
        <ele>160.5</ele>
      </trkpt>
      <trkpt lat="36.96189" lon="28.20967">
        <ele>159.6</ele>
      </trkpt>
      <trkpt lat="36.96188" lon="28.20961">
        <ele>158.6</ele>
      </trkpt>
      <trkpt lat="36.96186" lon="28.20955">
        <ele>157.6</ele>
      </trkpt>
      <trkpt lat="36.96184" lon="28.20949">
        <ele>156.6</ele>
      </trkpt>
      <trkpt lat="36.96183" lon="28.20943">
        <ele>155.5</ele>
      </trkpt>
      <trkpt lat="36.96182" lon="28.20937">
        <ele>154.6</ele>
      </trkpt>
      <trkpt lat="36.96181" lon="28.2093">
        <ele>153.7</ele>
      </trkpt>
      <trkpt lat="36.96181" lon="28.20925">
        <ele>153</ele>
      </trkpt>
      <trkpt lat="36.9618" lon="28.20919">
        <ele>152</ele>
      </trkpt>
      <trkpt lat="36.96179" lon="28.20914">
        <ele>150.9</ele>
      </trkpt>
      <trkpt lat="36.96179" lon="28.20908">
        <ele>149.8</ele>
      </trkpt>
      <trkpt lat="36.9618" lon="28.20901">
        <ele>148.7</ele>
      </trkpt>
      <trkpt lat="36.96181" lon="28.20894">
        <ele>147.6</ele>
      </trkpt>
      <trkpt lat="36.96183" lon="28.20888">
        <ele>147.1</ele>
      </trkpt>
      <trkpt lat="36.96185" lon="28.20882">
        <ele>146.6</ele>
      </trkpt>
      <trkpt lat="36.96188" lon="28.20877">
        <ele>146.6</ele>
      </trkpt>
      <trkpt lat="36.96186" lon="28.20871">
        <ele>144.6</ele>
      </trkpt>
      <trkpt lat="36.96189" lon="28.20866">
        <ele>144.6</ele>
      </trkpt>
      <trkpt lat="36.96189" lon="28.2086">
        <ele>143.6</ele>
      </trkpt>
      <trkpt lat="36.96189" lon="28.2086">
        <ele>143.6</ele>
      </trkpt>
      <trkpt lat="36.96186" lon="28.20865">
        <ele>143.4</ele>
      </trkpt>
      <trkpt lat="36.96182" lon="28.20869">
        <ele>143.2</ele>
      </trkpt>
      <trkpt lat="36.9618" lon="28.20874">
        <ele>143.5</ele>
      </trkpt>
      <trkpt lat="36.96178" lon="28.20879">
        <ele>143.8</ele>
      </trkpt>
      <trkpt lat="36.96174" lon="28.20884">
        <ele>143.5</ele>
      </trkpt>
      <trkpt lat="36.96172" lon="28.20889">
        <ele>143.8</ele>
      </trkpt>
      <trkpt lat="36.96168" lon="28.20894">
        <ele>143.8</ele>
      </trkpt>
      <trkpt lat="36.96165" lon="28.20899">
        <ele>143.8</ele>
      </trkpt>
      <trkpt lat="36.96162" lon="28.20903">
        <ele>143.8</ele>
      </trkpt>
      <trkpt lat="36.96159" lon="28.20909">
        <ele>144</ele>
      </trkpt>
      <trkpt lat="36.96156" lon="28.20913">
        <ele>144</ele>
      </trkpt>
      <trkpt lat="36.96152" lon="28.20918">
        <ele>143.9</ele>
      </trkpt>
      <trkpt lat="36.96149" lon="28.20924">
        <ele>143.7</ele>
      </trkpt>
      <trkpt lat="36.96147" lon="28.20929">
        <ele>143.7</ele>
      </trkpt>
      <trkpt lat="36.96144" lon="28.20934">
        <ele>143.3</ele>
      </trkpt>
      <trkpt lat="36.9614" lon="28.20937">
        <ele>142.5</ele>
      </trkpt>
      <trkpt lat="36.96136" lon="28.20939">
        <ele>141.6</ele>
      </trkpt>
      <trkpt lat="36.96131" lon="28.20942">
        <ele>140.5</ele>
      </trkpt>
      <trkpt lat="36.96127" lon="28.20945">
        <ele>139.5</ele>
      </trkpt>
      <trkpt lat="36.96123" lon="28.20948">
        <ele>138.5</ele>
      </trkpt>
      <trkpt lat="36.96118" lon="28.20951">
        <ele>137.5</ele>
      </trkpt>
      <trkpt lat="36.96115" lon="28.20955">
        <ele>136.8</ele>
      </trkpt>
      <trkpt lat="36.96112" lon="28.2096">
        <ele>136.5</ele>
      </trkpt>
      <trkpt lat="36.96111" lon="28.20966">
        <ele>136.7</ele>
      </trkpt>
      <trkpt lat="36.9611" lon="28.20972">
        <ele>137.1</ele>
      </trkpt>
      <trkpt lat="36.96109" lon="28.20978">
        <ele>137.3</ele>
      </trkpt>
      <trkpt lat="36.96109" lon="28.20985">
        <ele>137.7</ele>
      </trkpt>
      <trkpt lat="36.96106" lon="28.20991">
        <ele>137.6</ele>
      </trkpt>
      <trkpt lat="36.96104" lon="28.20997">
        <ele>137.5</ele>
      </trkpt>
      <trkpt lat="36.96103" lon="28.21003">
        <ele>137.5</ele>
      </trkpt>
      <trkpt lat="36.96101" lon="28.21008">
        <ele>137.4</ele>
      </trkpt>
      <trkpt lat="36.96099" lon="28.21014">
        <ele>137.2</ele>
      </trkpt>
      <trkpt lat="36.96097" lon="28.2102">
        <ele>136.9</ele>
      </trkpt>
      <trkpt lat="36.96095" lon="28.21025">
        <ele>136.5</ele>
      </trkpt>
      <trkpt lat="36.96094" lon="28.21032">
        <ele>136.5</ele>
      </trkpt>
      <trkpt lat="36.96093" lon="28.21037">
        <ele>136.3</ele>
      </trkpt>
      <trkpt lat="36.96091" lon="28.21044">
        <ele>136.2</ele>
      </trkpt>
      <trkpt lat="36.96091" lon="28.2105">
        <ele>136.2</ele>
      </trkpt>
      <trkpt lat="36.9609" lon="28.21055">
        <ele>136.2</ele>
      </trkpt>
      <trkpt lat="36.96088" lon="28.21062">
        <ele>136</ele>
      </trkpt>
      <trkpt lat="36.96088" lon="28.21068">
        <ele>136</ele>
      </trkpt>
      <trkpt lat="36.96087" lon="28.21074">
        <ele>136.3</ele>
      </trkpt>
      <trkpt lat="36.96087" lon="28.2108">
        <ele>136.5</ele>
      </trkpt>
      <trkpt lat="36.96087" lon="28.21087">
        <ele>136.6</ele>
      </trkpt>
      <trkpt lat="36.96086" lon="28.21093">
        <ele>136.6</ele>
      </trkpt>
      <trkpt lat="36.96085" lon="28.21099">
        <ele>136.3</ele>
      </trkpt>
      <trkpt lat="36.96084" lon="28.21104">
        <ele>135.8</ele>
      </trkpt>
      <trkpt lat="36.96083" lon="28.2111">
        <ele>135.7</ele>
      </trkpt>
      <trkpt lat="36.96082" lon="28.21116">
        <ele>135.1</ele>
      </trkpt>
      <trkpt lat="36.96081" lon="28.21121">
        <ele>134.7</ele>
      </trkpt>
      <trkpt lat="36.9608" lon="28.21127">
        <ele>134</ele>
      </trkpt>
      <trkpt lat="36.96077" lon="28.21133">
        <ele>132.7</ele>
      </trkpt>
      <trkpt lat="36.96074" lon="28.21139">
        <ele>131.4</ele>
      </trkpt>
      <trkpt lat="36.96072" lon="28.21145">
        <ele>130.7</ele>
      </trkpt>
      <trkpt lat="36.9607" lon="28.2115">
        <ele>129.8</ele>
      </trkpt>
      <trkpt lat="36.96067" lon="28.21156">
        <ele>128.8</ele>
      </trkpt>
      <trkpt lat="36.96065" lon="28.21161">
        <ele>127.9</ele>
      </trkpt>
      <trkpt lat="36.96064" lon="28.21167">
        <ele>127.2</ele>
      </trkpt>
      <trkpt lat="36.96061" lon="28.21172">
        <ele>126.7</ele>
      </trkpt>
      <trkpt lat="36.96059" lon="28.21178">
        <ele>126.1</ele>
      </trkpt>
      <trkpt lat="36.96057" lon="28.21184">
        <ele>125.3</ele>
      </trkpt>
      <trkpt lat="36.96054" lon="28.21189">
        <ele>124.7</ele>
      </trkpt>
      <trkpt lat="36.96052" lon="28.21194">
        <ele>124</ele>
      </trkpt>
      <trkpt lat="36.96049" lon="28.212">
        <ele>123.1</ele>
      </trkpt>
      <trkpt lat="36.96047" lon="28.21205">
        <ele>122.5</ele>
      </trkpt>
      <trkpt lat="36.96043" lon="28.21209">
        <ele>121.1</ele>
      </trkpt>
      <trkpt lat="36.96041" lon="28.21214">
        <ele>120.7</ele>
      </trkpt>
      <trkpt lat="36.96038" lon="28.21219">
        <ele>119.8</ele>
      </trkpt>
      <trkpt lat="36.96035" lon="28.21224">
        <ele>119</ele>
      </trkpt>
      <trkpt lat="36.96031" lon="28.21228">
        <ele>117.9</ele>
      </trkpt>
      <trkpt lat="36.96029" lon="28.21233">
        <ele>117.1</ele>
      </trkpt>
      <trkpt lat="36.96025" lon="28.21237">
        <ele>115.9</ele>
      </trkpt>
      <trkpt lat="36.9602" lon="28.21239">
        <ele>114.3</ele>
      </trkpt>
      <trkpt lat="36.96016" lon="28.21241">
        <ele>112.5</ele>
      </trkpt>
      <trkpt lat="36.96012" lon="28.21246">
        <ele>111.7</ele>
      </trkpt>
      <trkpt lat="36.96009" lon="28.21248">
        <ele>110.4</ele>
      </trkpt>
      <trkpt lat="36.96004" lon="28.21252">
        <ele>108.9</ele>
      </trkpt>
      <trkpt lat="36.95999" lon="28.21254">
        <ele>107.5</ele>
      </trkpt>
      <trkpt lat="36.95996" lon="28.21259">
        <ele>107.2</ele>
      </trkpt>
      <trkpt lat="36.95992" lon="28.21263">
        <ele>106.7</ele>
      </trkpt>
      <trkpt lat="36.95989" lon="28.21268">
        <ele>106.7</ele>
      </trkpt>
      <trkpt lat="36.95985" lon="28.21271">
        <ele>106.1</ele>
      </trkpt>
      <trkpt lat="36.95981" lon="28.21275">
        <ele>105.7</ele>
      </trkpt>
      <trkpt lat="36.95978" lon="28.2128">
        <ele>105.5</ele>
      </trkpt>
      <trkpt lat="36.95974" lon="28.21285">
        <ele>105.4</ele>
      </trkpt>
      <trkpt lat="36.95971" lon="28.21288">
        <ele>105</ele>
      </trkpt>
      <trkpt lat="36.95968" lon="28.21293">
        <ele>105.1</ele>
      </trkpt>
      <trkpt lat="36.95965" lon="28.21299">
        <ele>105.1</ele>
      </trkpt>
      <trkpt lat="36.95961" lon="28.21303">
        <ele>104.8</ele>
      </trkpt>
      <trkpt lat="36.95957" lon="28.21308">
        <ele>104.5</ele>
      </trkpt>
      <trkpt lat="36.95953" lon="28.21312">
        <ele>104</ele>
      </trkpt>
      <trkpt lat="36.95949" lon="28.21315">
        <ele>103.5</ele>
      </trkpt>
      <trkpt lat="36.95945" lon="28.21318">
        <ele>102.9</ele>
      </trkpt>
      <trkpt lat="36.95941" lon="28.21321">
        <ele>102.3</ele>
      </trkpt>
      <trkpt lat="36.95937" lon="28.21324">
        <ele>101.7</ele>
      </trkpt>
      <trkpt lat="36.95932" lon="28.21326">
        <ele>100.7</ele>
      </trkpt>
      <trkpt lat="36.95927" lon="28.21327">
        <ele>99.6</ele>
      </trkpt>
      <trkpt lat="36.95922" lon="28.21329">
        <ele>98.6</ele>
      </trkpt>
      <trkpt lat="36.95916" lon="28.21328">
        <ele>97</ele>
      </trkpt>
      <trkpt lat="36.95912" lon="28.21325">
        <ele>96</ele>
      </trkpt>
      <trkpt lat="36.95908" lon="28.21321">
        <ele>95</ele>
      </trkpt>
      <trkpt lat="36.95904" lon="28.21318">
        <ele>94.1</ele>
      </trkpt>
      <trkpt lat="36.95901" lon="28.21314">
        <ele>93.1</ele>
      </trkpt>
      <trkpt lat="36.95898" lon="28.2131">
        <ele>92.1</ele>
      </trkpt>
      <trkpt lat="36.95893" lon="28.21306">
        <ele>91.1</ele>
      </trkpt>
      <trkpt lat="36.95889" lon="28.21303">
        <ele>90.2</ele>
      </trkpt>
      <trkpt lat="36.95885" lon="28.21301">
        <ele>89.5</ele>
      </trkpt>
      <trkpt lat="36.9588" lon="28.21299">
        <ele>88.7</ele>
      </trkpt>
      <trkpt lat="36.95875" lon="28.21297">
        <ele>87.9</ele>
      </trkpt>
      <trkpt lat="36.95871" lon="28.21296">
        <ele>87.2</ele>
      </trkpt>
      <trkpt lat="36.95866" lon="28.21294">
        <ele>86.5</ele>
      </trkpt>
      <trkpt lat="36.95862" lon="28.21291">
        <ele>85.7</ele>
      </trkpt>
      <trkpt lat="36.95856" lon="28.2129">
        <ele>84.9</ele>
      </trkpt>
      <trkpt lat="36.95852" lon="28.21287">
        <ele>84.1</ele>
      </trkpt>
      <trkpt lat="36.95848" lon="28.21284">
        <ele>83.3</ele>
      </trkpt>
      <trkpt lat="36.95843" lon="28.21282">
        <ele>82.5</ele>
      </trkpt>
      <trkpt lat="36.95839" lon="28.21279">
        <ele>81.7</ele>
      </trkpt>
      <trkpt lat="36.95835" lon="28.21276">
        <ele>80.9</ele>
      </trkpt>
      <trkpt lat="36.9583" lon="28.21274">
        <ele>79.8</ele>
      </trkpt>
      <trkpt lat="36.95825" lon="28.21274">
        <ele>78.9</ele>
      </trkpt>
      <trkpt lat="36.95821" lon="28.21273">
        <ele>78</ele>
      </trkpt>
      <trkpt lat="36.95816" lon="28.21274">
        <ele>77.2</ele>
      </trkpt>
      <trkpt lat="36.95812" lon="28.21277">
        <ele>76.8</ele>
      </trkpt>
      <trkpt lat="36.95807" lon="28.2128">
        <ele>76.3</ele>
      </trkpt>
      <trkpt lat="36.95803" lon="28.21283">
        <ele>76.1</ele>
      </trkpt>
      <trkpt lat="36.95798" lon="28.21286">
        <ele>75.5</ele>
      </trkpt>
      <trkpt lat="36.95793" lon="28.21287">
        <ele>74.7</ele>
      </trkpt>
      <trkpt lat="36.95789" lon="28.21289">
        <ele>74.1</ele>
      </trkpt>
      <trkpt lat="36.95783" lon="28.21289">
        <ele>72.9</ele>
      </trkpt>
      <trkpt lat="36.95778" lon="28.21287">
        <ele>71.8</ele>
      </trkpt>
      <trkpt lat="36.95774" lon="28.21284">
        <ele>70.6</ele>
      </trkpt>
      <trkpt lat="36.95769" lon="28.21282">
        <ele>69.4</ele>
      </trkpt>
      <trkpt lat="36.95765" lon="28.21279">
        <ele>68.2</ele>
      </trkpt>
      <trkpt lat="36.9576" lon="28.21277">
        <ele>67</ele>
      </trkpt>
      <trkpt lat="36.95756" lon="28.21274">
        <ele>65.9</ele>
      </trkpt>
      <trkpt lat="36.95751" lon="28.21272">
        <ele>64.8</ele>
      </trkpt>
      <trkpt lat="36.95746" lon="28.21273">
        <ele>63.1</ele>
      </trkpt>
      <trkpt lat="36.95743" lon="28.21278">
        <ele>62.6</ele>
      </trkpt>
      <trkpt lat="36.95741" lon="28.21284">
        <ele>62.2</ele>
      </trkpt>
      <trkpt lat="36.9574" lon="28.2129">
        <ele>62.6</ele>
      </trkpt>
      <trkpt lat="36.9574" lon="28.21296">
        <ele>63.2</ele>
      </trkpt>
      <trkpt lat="36.95739" lon="28.21302">
        <ele>63.7</ele>
      </trkpt>
      <trkpt lat="36.95738" lon="28.21309">
        <ele>64</ele>
      </trkpt>
      <trkpt lat="36.95735" lon="28.21312">
        <ele>62.9</ele>
      </trkpt>
      <trkpt lat="36.95732" lon="28.21317">
        <ele>62.4</ele>
      </trkpt>
      <trkpt lat="36.9573" lon="28.21323">
        <ele>61.8</ele>
      </trkpt>
      <trkpt lat="36.95727" lon="28.21328">
        <ele>61.1</ele>
      </trkpt>
      <trkpt lat="36.95725" lon="28.21333">
        <ele>60.3</ele>
      </trkpt>
      <trkpt lat="36.95722" lon="28.21338">
        <ele>59.6</ele>
      </trkpt>
      <trkpt lat="36.9572" lon="28.21344">
        <ele>58.8</ele>
      </trkpt>
      <trkpt lat="36.95716" lon="28.21349">
        <ele>57.6</ele>
      </trkpt>
      <trkpt lat="36.95714" lon="28.21355">
        <ele>56.6</ele>
      </trkpt>
      <trkpt lat="36.95711" lon="28.21361">
        <ele>55.8</ele>
      </trkpt>
      <trkpt lat="36.95709" lon="28.21366">
        <ele>55</ele>
      </trkpt>
      <trkpt lat="36.95706" lon="28.21372">
        <ele>54.1</ele>
      </trkpt>
      <trkpt lat="36.95704" lon="28.21378">
        <ele>53.1</ele>
      </trkpt>
      <trkpt lat="36.95701" lon="28.21383">
        <ele>52.1</ele>
      </trkpt>
      <trkpt lat="36.957" lon="28.21388">
        <ele>51.8</ele>
      </trkpt>
      <trkpt lat="36.957" lon="28.21394">
        <ele>52</ele>
      </trkpt>
      <trkpt lat="36.95699" lon="28.214">
        <ele>52</ele>
      </trkpt>
      <trkpt lat="36.95699" lon="28.21406">
        <ele>52.3</ele>
      </trkpt>
      <trkpt lat="36.95699" lon="28.21412">
        <ele>52.2</ele>
      </trkpt>
      <trkpt lat="36.95698" lon="28.21417">
        <ele>51.9</ele>
      </trkpt>
      <trkpt lat="36.95695" lon="28.21423">
        <ele>50.6</ele>
      </trkpt>
      <trkpt lat="36.95699" lon="28.21427">
        <ele>52.1</ele>
      </trkpt>
      <trkpt lat="36.95695" lon="28.21431">
        <ele>50.1</ele>
      </trkpt>
      <trkpt lat="36.95698" lon="28.21437">
        <ele>51.5</ele>
      </trkpt>
      <trkpt lat="36.95701" lon="28.21443">
        <ele>52.5</ele>
      </trkpt>
      <trkpt lat="36.95694" lon="28.21442">
        <ele>49.3</ele>
      </trkpt>
      <trkpt lat="36.95696" lon="28.21448">
        <ele>49.6</ele>
      </trkpt>
      <trkpt lat="36.95698" lon="28.21452">
        <ele>50.7</ele>
      </trkpt>
      <trkpt lat="36.95701" lon="28.21456">
        <ele>52.3</ele>
      </trkpt>
      <trkpt lat="36.95697" lon="28.21456">
        <ele>50</ele>
      </trkpt>
      <trkpt lat="36.95699" lon="28.21463">
        <ele>50.6</ele>
      </trkpt>
      <trkpt lat="36.95698" lon="28.21469">
        <ele>50</ele>
      </trkpt>
      <trkpt lat="36.95699" lon="28.21476">
        <ele>50.2</ele>
      </trkpt>
      <trkpt lat="36.95701" lon="28.21482">
        <ele>51</ele>
      </trkpt>
      <trkpt lat="36.95701" lon="28.21488">
        <ele>50.7</ele>
      </trkpt>
      <trkpt lat="36.95702" lon="28.21495">
        <ele>51</ele>
      </trkpt>
      <trkpt lat="36.95702" lon="28.21502">
        <ele>50.9</ele>
      </trkpt>
      <trkpt lat="36.957" lon="28.21508">
        <ele>49.4</ele>
      </trkpt>
      <trkpt lat="36.95699" lon="28.21514">
        <ele>48.5</ele>
      </trkpt>
      <trkpt lat="36.95699" lon="28.2152">
        <ele>47.9</ele>
      </trkpt>
      <trkpt lat="36.95698" lon="28.21526">
        <ele>47.1</ele>
      </trkpt>
      <trkpt lat="36.95698" lon="28.21532">
        <ele>46.4</ele>
      </trkpt>
      <trkpt lat="36.95694" lon="28.21536">
        <ele>44.4</ele>
      </trkpt>
      <trkpt lat="36.95697" lon="28.21541">
        <ele>45.2</ele>
      </trkpt>
      <trkpt lat="36.95697" lon="28.21547">
        <ele>44.6</ele>
      </trkpt>
      <trkpt lat="36.95699" lon="28.21553">
        <ele>45.2</ele>
      </trkpt>
      <trkpt lat="36.95701" lon="28.21559">
        <ele>45.7</ele>
      </trkpt>
      <trkpt lat="36.95701" lon="28.21566">
        <ele>45.5</ele>
      </trkpt>
      <trkpt lat="36.95701" lon="28.21573">
        <ele>44.9</ele>
      </trkpt>
      <trkpt lat="36.95705" lon="28.21578">
        <ele>46.3</ele>
      </trkpt>
      <trkpt lat="36.95707" lon="28.21584">
        <ele>46.7</ele>
      </trkpt>
      <trkpt lat="36.95705" lon="28.21592">
        <ele>44.7</ele>
      </trkpt>
      <trkpt lat="36.95708" lon="28.21601">
        <ele>44.7</ele>
      </trkpt>
      <trkpt lat="36.95707" lon="28.21608">
        <ele>43.1</ele>
      </trkpt>
      <trkpt lat="36.9571" lon="28.21615">
        <ele>42.9</ele>
      </trkpt>
      <trkpt lat="36.95712" lon="28.21621">
        <ele>42.7</ele>
      </trkpt>
      <trkpt lat="36.95715" lon="28.21627">
        <ele>43</ele>
      </trkpt>
      <trkpt lat="36.95716" lon="28.21635">
        <ele>41.8</ele>
      </trkpt>
      <trkpt lat="36.95716" lon="28.21641">
        <ele>40.6</ele>
      </trkpt>
      <trkpt lat="36.95718" lon="28.21646">
        <ele>40.5</ele>
      </trkpt>
      <trkpt lat="36.95721" lon="28.21651">
        <ele>40.2</ele>
      </trkpt>
      <trkpt lat="36.95724" lon="28.21657">
        <ele>40</ele>
      </trkpt>
      <trkpt lat="36.95725" lon="28.21663">
        <ele>39</ele>
      </trkpt>
      <trkpt lat="36.95726" lon="28.21669">
        <ele>38.7</ele>
      </trkpt>
      <trkpt lat="36.9573" lon="28.21675">
        <ele>39.6</ele>
      </trkpt>
      <trkpt lat="36.95732" lon="28.21681">
        <ele>39.9</ele>
      </trkpt>
      <trkpt lat="36.95733" lon="28.21687">
        <ele>40.3</ele>
      </trkpt>
      <trkpt lat="36.95737" lon="28.21691">
        <ele>41.1</ele>
      </trkpt>
      <trkpt lat="36.9574" lon="28.21697">
        <ele>41.8</ele>
      </trkpt>
      <trkpt lat="36.95741" lon="28.21702">
        <ele>41.9</ele>
      </trkpt>
      <trkpt lat="36.95743" lon="28.21708">
        <ele>42.4</ele>
      </trkpt>
      <trkpt lat="36.95744" lon="28.21715">
        <ele>42.4</ele>
      </trkpt>
      <trkpt lat="36.95745" lon="28.21722">
        <ele>42.5</ele>
      </trkpt>
      <trkpt lat="36.95744" lon="28.21727">
        <ele>42.1</ele>
      </trkpt>
      <trkpt lat="36.95739" lon="28.21732">
        <ele>41</ele>
      </trkpt>
      <trkpt lat="36.95735" lon="28.21738">
        <ele>40</ele>
      </trkpt>
      <trkpt lat="36.95734" lon="28.21744">
        <ele>39.5</ele>
      </trkpt>
      <trkpt lat="36.9573" lon="28.21748">
        <ele>38.7</ele>
      </trkpt>
      <trkpt lat="36.95726" lon="28.21751">
        <ele>37.9</ele>
      </trkpt>
      <trkpt lat="36.95723" lon="28.21756">
        <ele>38.1</ele>
      </trkpt>
      <trkpt lat="36.95721" lon="28.21761">
        <ele>38.3</ele>
      </trkpt>
      <trkpt lat="36.95718" lon="28.21765">
        <ele>38.1</ele>
      </trkpt>
      <trkpt lat="36.95714" lon="28.21771">
        <ele>38</ele>
      </trkpt>
      <trkpt lat="36.95712" lon="28.21776">
        <ele>38.1</ele>
      </trkpt>
      <trkpt lat="36.95708" lon="28.21781">
        <ele>37.8</ele>
      </trkpt>
      <trkpt lat="36.95704" lon="28.21785">
        <ele>37.4</ele>
      </trkpt>
      <trkpt lat="36.957" lon="28.21787">
        <ele>36.6</ele>
      </trkpt>
      <trkpt lat="36.95697" lon="28.21792">
        <ele>36.3</ele>
      </trkpt>
      <trkpt lat="36.95694" lon="28.21797">
        <ele>36.2</ele>
      </trkpt>
      <trkpt lat="36.95691" lon="28.21801">
        <ele>35.8</ele>
      </trkpt>
      <trkpt lat="36.95687" lon="28.21806">
        <ele>35.4</ele>
      </trkpt>
      <trkpt lat="36.95686" lon="28.21812">
        <ele>35.7</ele>
      </trkpt>
      <trkpt lat="36.95683" lon="28.21817">
        <ele>35.3</ele>
      </trkpt>
      <trkpt lat="36.95679" lon="28.2182">
        <ele>34.5</ele>
      </trkpt>
      <trkpt lat="36.95675" lon="28.21824">
        <ele>33.5</ele>
      </trkpt>
      <trkpt lat="36.95672" lon="28.21828">
        <ele>33</ele>
      </trkpt>
      <trkpt lat="36.95666" lon="28.2183">
        <ele>31.7</ele>
      </trkpt>
      <trkpt lat="36.95666" lon="28.21836">
        <ele>32.3</ele>
      </trkpt>
      <trkpt lat="36.95663" lon="28.21841">
        <ele>32.8</ele>
      </trkpt>
      <trkpt lat="36.95659" lon="28.21845">
        <ele>33.5</ele>
      </trkpt>
      <trkpt lat="36.95655" lon="28.21849">
        <ele>34.2</ele>
      </trkpt>
      <trkpt lat="36.9565" lon="28.21848">
        <ele>34.6</ele>
      </trkpt>
      <trkpt lat="36.95645" lon="28.21849">
        <ele>35.1</ele>
      </trkpt>
      <trkpt lat="36.9564" lon="28.21851">
        <ele>35.7</ele>
      </trkpt>
      <trkpt lat="36.95635" lon="28.21848">
        <ele>35.9</ele>
      </trkpt>
      <trkpt lat="36.95631" lon="28.21845">
        <ele>36</ele>
      </trkpt>
      <trkpt lat="36.95627" lon="28.21841">
        <ele>36.1</ele>
      </trkpt>
      <trkpt lat="36.95623" lon="28.21838">
        <ele>36.1</ele>
      </trkpt>
      <trkpt lat="36.95627" lon="28.21836">
        <ele>35.5</ele>
      </trkpt>
      <trkpt lat="36.95622" lon="28.21837">
        <ele>36.2</ele>
      </trkpt>
      <trkpt lat="36.95628" lon="28.21841">
        <ele>35.9</ele>
      </trkpt>
      <trkpt lat="36.95623" lon="28.21841">
        <ele>36.3</ele>
      </trkpt>
      <trkpt lat="36.95627" lon="28.21838">
        <ele>35.8</ele>
      </trkpt>
      <trkpt lat="36.95622" lon="28.21835">
        <ele>35.9</ele>
      </trkpt>
      <trkpt lat="36.95619" lon="28.21831">
        <ele>35.8</ele>
      </trkpt>
      <trkpt lat="36.95615" lon="28.21826">
        <ele>35.6</ele>
      </trkpt>
      <trkpt lat="36.95611" lon="28.21824">
        <ele>35.7</ele>
      </trkpt>
      <trkpt lat="36.95606" lon="28.21823">
        <ele>36</ele>
      </trkpt>
      <trkpt lat="36.95601" lon="28.21822">
        <ele>36.2</ele>
      </trkpt>
      <trkpt lat="36.95596" lon="28.2182">
        <ele>36.4</ele>
      </trkpt>
      <trkpt lat="36.95591" lon="28.21818">
        <ele>36.6</ele>
      </trkpt>
      <trkpt lat="36.95587" lon="28.21816">
        <ele>36.7</ele>
      </trkpt>
      <trkpt lat="36.95581" lon="28.21814">
        <ele>37.5</ele>
      </trkpt>
      <trkpt lat="36.95577" lon="28.21809">
        <ele>38.5</ele>
      </trkpt>
      <trkpt lat="36.9558" lon="28.21804">
        <ele>36.9</ele>
      </trkpt>
      <trkpt lat="36.95575" lon="28.218">
        <ele>38</ele>
      </trkpt>
      <trkpt lat="36.95574" lon="28.21794">
        <ele>37.7</ele>
      </trkpt>
      <trkpt lat="36.95575" lon="28.21788">
        <ele>36.8</ele>
      </trkpt>
      <trkpt lat="36.95575" lon="28.21782">
        <ele>35.8</ele>
      </trkpt>
      <trkpt lat="36.95575" lon="28.21775">
        <ele>35</ele>
      </trkpt>
      <trkpt lat="36.95577" lon="28.21768">
        <ele>33.7</ele>
      </trkpt>
      <trkpt lat="36.95579" lon="28.21763">
        <ele>32.1</ele>
      </trkpt>
      <trkpt lat="36.95582" lon="28.21757">
        <ele>30.5</ele>
      </trkpt>
      <trkpt lat="36.95584" lon="28.21751">
        <ele>29.1</ele>
      </trkpt>
      <trkpt lat="36.95582" lon="28.21744">
        <ele>29.3</ele>
      </trkpt>
      <trkpt lat="36.95579" lon="28.21739">
        <ele>30.4</ele>
      </trkpt>
      <trkpt lat="36.95577" lon="28.21733">
        <ele>30.9</ele>
      </trkpt>
      <trkpt lat="36.95575" lon="28.21726">
        <ele>31.6</ele>
      </trkpt>
      <trkpt lat="36.95575" lon="28.2172">
        <ele>31.5</ele>
      </trkpt>
      <trkpt lat="36.95574" lon="28.21713">
        <ele>31.8</ele>
      </trkpt>
      <trkpt lat="36.95574" lon="28.21707">
        <ele>31.6</ele>
      </trkpt>
      <trkpt lat="36.95575" lon="28.21701">
        <ele>31.4</ele>
      </trkpt>
      <trkpt lat="36.95577" lon="28.21695">
        <ele>30.5</ele>
      </trkpt>
      <trkpt lat="36.95577" lon="28.21688">
        <ele>30.5</ele>
      </trkpt>
      <trkpt lat="36.95579" lon="28.21682">
        <ele>29.6</ele>
      </trkpt>
      <trkpt lat="36.9558" lon="28.21674">
        <ele>29.2</ele>
      </trkpt>
      <trkpt lat="36.95582" lon="28.21667">
        <ele>28.6</ele>
      </trkpt>
      <trkpt lat="36.95581" lon="28.2166">
        <ele>28.2</ele>
      </trkpt>
      <trkpt lat="36.95581" lon="28.21654">
        <ele>28</ele>
      </trkpt>
      <trkpt lat="36.9558" lon="28.21647">
        <ele>27.7</ele>
      </trkpt>
      <trkpt lat="36.95578" lon="28.21641">
        <ele>27.9</ele>
      </trkpt>
      <trkpt lat="36.95577" lon="28.21635">
        <ele>27.8</ele>
      </trkpt>
      <trkpt lat="36.95576" lon="28.2163">
        <ele>27.5</ele>
      </trkpt>
      <trkpt lat="36.95576" lon="28.21624">
        <ele>27.1</ele>
      </trkpt>
      <trkpt lat="36.95574" lon="28.21619">
        <ele>27.4</ele>
      </trkpt>
      <trkpt lat="36.9557" lon="28.21613">
        <ele>27.7</ele>
      </trkpt>
      <trkpt lat="36.95567" lon="28.21609">
        <ele>28.1</ele>
      </trkpt>
      <trkpt lat="36.95563" lon="28.21605">
        <ele>28.5</ele>
      </trkpt>
      <trkpt lat="36.9556" lon="28.21599">
        <ele>28.6</ele>
      </trkpt>
      <trkpt lat="36.95556" lon="28.21594">
        <ele>28.8</ele>
      </trkpt>
      <trkpt lat="36.95552" lon="28.21588">
        <ele>28.9</ele>
      </trkpt>
      <trkpt lat="36.95549" lon="28.21584">
        <ele>28.9</ele>
      </trkpt>
      <trkpt lat="36.95545" lon="28.21581">
        <ele>29.2</ele>
      </trkpt>
      <trkpt lat="36.95542" lon="28.21577">
        <ele>29</ele>
      </trkpt>
      <trkpt lat="36.95538" lon="28.21574">
        <ele>29.3</ele>
      </trkpt>
      <trkpt lat="36.95535" lon="28.2157">
        <ele>29</ele>
      </trkpt>
      <trkpt lat="36.95532" lon="28.21565">
        <ele>28.6</ele>
      </trkpt>
      <trkpt lat="36.95528" lon="28.21561">
        <ele>28.6</ele>
      </trkpt>
      <trkpt lat="36.95525" lon="28.21556">
        <ele>28.2</ele>
      </trkpt>
      <trkpt lat="36.95521" lon="28.21551">
        <ele>27.7</ele>
      </trkpt>
      <trkpt lat="36.95518" lon="28.21547">
        <ele>27.2</ele>
      </trkpt>
      <trkpt lat="36.95514" lon="28.21544">
        <ele>27.1</ele>
      </trkpt>
      <trkpt lat="36.95511" lon="28.21539">
        <ele>26.4</ele>
      </trkpt>
      <trkpt lat="36.95507" lon="28.21532">
        <ele>25.4</ele>
      </trkpt>
      <trkpt lat="36.95503" lon="28.21531">
        <ele>25.5</ele>
      </trkpt>
      <trkpt lat="36.95497" lon="28.21529">
        <ele>25.8</ele>
      </trkpt>
      <trkpt lat="36.95497" lon="28.21523">
        <ele>24.7</ele>
      </trkpt>
      <trkpt lat="36.95492" lon="28.2152">
        <ele>24.9</ele>
      </trkpt>
      <trkpt lat="36.95489" lon="28.21516">
        <ele>24.7</ele>
      </trkpt>
      <trkpt lat="36.95485" lon="28.21511">
        <ele>24.2</ele>
      </trkpt>
      <trkpt lat="36.95482" lon="28.21506">
        <ele>23.7</ele>
      </trkpt>
      <trkpt lat="36.95478" lon="28.21502">
        <ele>23.5</ele>
      </trkpt>
      <trkpt lat="36.95475" lon="28.21496">
        <ele>23.2</ele>
      </trkpt>
      <trkpt lat="36.9547" lon="28.21494">
        <ele>23.8</ele>
      </trkpt>
      <trkpt lat="36.95466" lon="28.2149">
        <ele>23.9</ele>
      </trkpt>
      <trkpt lat="36.95462" lon="28.21486">
        <ele>24.1</ele>
      </trkpt>
      <trkpt lat="36.95457" lon="28.21484">
        <ele>24.5</ele>
      </trkpt>
      <trkpt lat="36.95452" lon="28.21481">
        <ele>24.8</ele>
      </trkpt>
      <trkpt lat="36.95448" lon="28.21478">
        <ele>25.1</ele>
      </trkpt>
      <trkpt lat="36.95443" lon="28.2148">
        <ele>26</ele>
      </trkpt>
      <trkpt lat="36.95443" lon="28.21474">
        <ele>25.1</ele>
      </trkpt>
      <trkpt lat="36.95438" lon="28.21472">
        <ele>25.4</ele>
      </trkpt>
      <trkpt lat="36.95436" lon="28.21467">
        <ele>24.6</ele>
      </trkpt>
      <trkpt lat="36.95432" lon="28.21465">
        <ele>24.7</ele>
      </trkpt>
      <trkpt lat="36.9543" lon="28.21459">
        <ele>23.9</ele>
      </trkpt>
      <trkpt lat="36.95426" lon="28.21458">
        <ele>24</ele>
      </trkpt>
      <trkpt lat="36.95422" lon="28.21453">
        <ele>23.5</ele>
      </trkpt>
      <trkpt lat="36.95417" lon="28.21451">
        <ele>23.4</ele>
      </trkpt>
      <trkpt lat="36.95413" lon="28.21449">
        <ele>23.6</ele>
      </trkpt>
      <trkpt lat="36.95408" lon="28.21446">
        <ele>23.4</ele>
      </trkpt>
      <trkpt lat="36.95403" lon="28.21444">
        <ele>23.8</ele>
      </trkpt>
      <trkpt lat="36.95398" lon="28.21442">
        <ele>24</ele>
      </trkpt>
      <trkpt lat="36.95393" lon="28.21443">
        <ele>24.8</ele>
      </trkpt>
      <trkpt lat="36.95386" lon="28.21441">
        <ele>25.2</ele>
      </trkpt>
      <trkpt lat="36.95383" lon="28.21437">
        <ele>24.8</ele>
      </trkpt>
      <trkpt lat="36.95378" lon="28.21434">
        <ele>24.8</ele>
      </trkpt>
      <trkpt lat="36.95373" lon="28.21434">
        <ele>25.4</ele>
      </trkpt>
      <trkpt lat="36.95368" lon="28.21432">
        <ele>25.7</ele>
      </trkpt>
      <trkpt lat="36.95363" lon="28.21429">
        <ele>25.5</ele>
      </trkpt>
      <trkpt lat="36.95358" lon="28.21429">
        <ele>26</ele>
      </trkpt>
      <trkpt lat="36.95354" lon="28.21425">
        <ele>25.7</ele>
      </trkpt>
      <trkpt lat="36.9535" lon="28.21422">
        <ele>25.4</ele>
      </trkpt>
      <trkpt lat="36.95345" lon="28.21421">
        <ele>25.7</ele>
      </trkpt>
      <trkpt lat="36.95342" lon="28.21416">
        <ele>24.8</ele>
      </trkpt>
      <trkpt lat="36.95337" lon="28.21412">
        <ele>24.8</ele>
      </trkpt>
      <trkpt lat="36.95333" lon="28.21407">
        <ele>24.7</ele>
      </trkpt>
      <trkpt lat="36.95328" lon="28.21403">
        <ele>24.9</ele>
      </trkpt>
      <trkpt lat="36.95322" lon="28.214">
        <ele>25.4</ele>
      </trkpt>
      <trkpt lat="36.95323" lon="28.21393">
        <ele>24.3</ele>
      </trkpt>
      <trkpt lat="36.9532" lon="28.2139">
        <ele>24.4</ele>
      </trkpt>
      <trkpt lat="36.95315" lon="28.21387">
        <ele>24.6</ele>
      </trkpt>
      <trkpt lat="36.95312" lon="28.21383">
        <ele>24.6</ele>
      </trkpt>
      <trkpt lat="36.95309" lon="28.21377">
        <ele>24.3</ele>
      </trkpt>
      <trkpt lat="36.95307" lon="28.21372">
        <ele>23.8</ele>
      </trkpt>
      <trkpt lat="36.95304" lon="28.21368">
        <ele>23.7</ele>
      </trkpt>
      <trkpt lat="36.953" lon="28.21364">
        <ele>23.8</ele>
      </trkpt>
      <trkpt lat="36.95297" lon="28.21359">
        <ele>23.5</ele>
      </trkpt>
      <trkpt lat="36.95293" lon="28.21355">
        <ele>23.5</ele>
      </trkpt>
      <trkpt lat="36.95289" lon="28.21353">
        <ele>23.8</ele>
      </trkpt>
      <trkpt lat="36.95285" lon="28.21351">
        <ele>24.2</ele>
      </trkpt>
      <trkpt lat="36.95279" lon="28.21349">
        <ele>24.7</ele>
      </trkpt>
      <trkpt lat="36.95275" lon="28.21346">
        <ele>25</ele>
      </trkpt>
      <trkpt lat="36.95271" lon="28.21342">
        <ele>24.9</ele>
      </trkpt>
      <trkpt lat="36.95267" lon="28.21339">
        <ele>25.2</ele>
      </trkpt>
      <trkpt lat="36.95265" lon="28.21333">
        <ele>24.7</ele>
      </trkpt>
      <trkpt lat="36.95263" lon="28.21327">
        <ele>25.3</ele>
      </trkpt>
      <trkpt lat="36.95262" lon="28.2132">
        <ele>25.7</ele>
      </trkpt>
      <trkpt lat="36.95262" lon="28.21313">
        <ele>25.9</ele>
      </trkpt>
      <trkpt lat="36.95264" lon="28.21307">
        <ele>25.7</ele>
      </trkpt>
      <trkpt lat="36.95265" lon="28.21302">
        <ele>25.7</ele>
      </trkpt>
      <trkpt lat="36.95264" lon="28.21296">
        <ele>26.1</ele>
      </trkpt>
      <trkpt lat="36.95265" lon="28.21289">
        <ele>26.2</ele>
      </trkpt>
      <trkpt lat="36.95267" lon="28.21284">
        <ele>25.9</ele>
      </trkpt>
      <trkpt lat="36.95267" lon="28.21277">
        <ele>26.3</ele>
      </trkpt>
      <trkpt lat="36.95268" lon="28.2127">
        <ele>26.3</ele>
      </trkpt>
      <trkpt lat="36.95269" lon="28.21265">
        <ele>26.2</ele>
      </trkpt>
      <trkpt lat="36.95272" lon="28.21259">
        <ele>25.8</ele>
      </trkpt>
      <trkpt lat="36.95274" lon="28.21254">
        <ele>25.5</ele>
      </trkpt>
      <trkpt lat="36.95276" lon="28.21248">
        <ele>25.2</ele>
      </trkpt>
      <trkpt lat="36.95278" lon="28.21242">
        <ele>24.7</ele>
      </trkpt>
      <trkpt lat="36.9528" lon="28.21236">
        <ele>24.4</ele>
      </trkpt>
      <trkpt lat="36.95282" lon="28.21231">
        <ele>24.1</ele>
      </trkpt>
      <trkpt lat="36.95283" lon="28.21224">
        <ele>23.9</ele>
      </trkpt>
      <trkpt lat="36.95285" lon="28.21219">
        <ele>23.5</ele>
      </trkpt>
      <trkpt lat="36.95285" lon="28.21213">
        <ele>23.5</ele>
      </trkpt>
      <trkpt lat="36.95285" lon="28.21206">
        <ele>23.7</ele>
      </trkpt>
      <trkpt lat="36.95287" lon="28.212">
        <ele>23.2</ele>
      </trkpt>
      <trkpt lat="36.95289" lon="28.21195">
        <ele>22.7</ele>
      </trkpt>
      <trkpt lat="36.95292" lon="28.21189">
        <ele>22.3</ele>
      </trkpt>
      <trkpt lat="36.95294" lon="28.21184">
        <ele>21.7</ele>
      </trkpt>
      <trkpt lat="36.95294" lon="28.21177">
        <ele>21.7</ele>
      </trkpt>
      <trkpt lat="36.95295" lon="28.21172">
        <ele>21.5</ele>
      </trkpt>
      <trkpt lat="36.95295" lon="28.21165">
        <ele>21.5</ele>
      </trkpt>
      <trkpt lat="36.95295" lon="28.21159">
        <ele>21.5</ele>
      </trkpt>
      <trkpt lat="36.95294" lon="28.21152">
        <ele>21.7</ele>
      </trkpt>
      <trkpt lat="36.95294" lon="28.21146">
        <ele>21.6</ele>
      </trkpt>
      <trkpt lat="36.95296" lon="28.21141">
        <ele>21</ele>
      </trkpt>
      <trkpt lat="36.95295" lon="28.21133">
        <ele>21.2</ele>
      </trkpt>
      <trkpt lat="36.95294" lon="28.21127">
        <ele>21.3</ele>
      </trkpt>
      <trkpt lat="36.95293" lon="28.21121">
        <ele>21.3</ele>
      </trkpt>
      <trkpt lat="36.95293" lon="28.21115">
        <ele>21.2</ele>
      </trkpt>
      <trkpt lat="36.95292" lon="28.21109">
        <ele>21.5</ele>
      </trkpt>
      <trkpt lat="36.9529" lon="28.21104">
        <ele>21.7</ele>
      </trkpt>
      <trkpt lat="36.9529" lon="28.21098">
        <ele>21.7</ele>
      </trkpt>
      <trkpt lat="36.95289" lon="28.21091">
        <ele>21.8</ele>
      </trkpt>
      <trkpt lat="36.95289" lon="28.21085">
        <ele>21.7</ele>
      </trkpt>
      <trkpt lat="36.95286" lon="28.21079">
        <ele>22</ele>
      </trkpt>
      <trkpt lat="36.95284" lon="28.21074">
        <ele>21.9</ele>
      </trkpt>
      <trkpt lat="36.95283" lon="28.21067">
        <ele>21.7</ele>
      </trkpt>
      <trkpt lat="36.95282" lon="28.21061">
        <ele>21.4</ele>
      </trkpt>
      <trkpt lat="36.95282" lon="28.21052">
        <ele>20.8</ele>
      </trkpt>
      <trkpt lat="36.9528" lon="28.21047">
        <ele>20.7</ele>
      </trkpt>
      <trkpt lat="36.95282" lon="28.21041">
        <ele>19.9</ele>
      </trkpt>
      <trkpt lat="36.95281" lon="28.21034">
        <ele>19.5</ele>
      </trkpt>
      <trkpt lat="36.95282" lon="28.21028">
        <ele>18.9</ele>
      </trkpt>
      <trkpt lat="36.95278" lon="28.21024">
        <ele>19.2</ele>
      </trkpt>
      <trkpt lat="36.95279" lon="28.21017">
        <ele>18.6</ele>
      </trkpt>
      <trkpt lat="36.95282" lon="28.21011">
        <ele>17.6</ele>
      </trkpt>
      <trkpt lat="36.95279" lon="28.21007">
        <ele>17.7</ele>
      </trkpt>
      <trkpt lat="36.95277" lon="28.20999">
        <ele>17.3</ele>
      </trkpt>
      <trkpt lat="36.95275" lon="28.20992">
        <ele>16.6</ele>
      </trkpt>
      <trkpt lat="36.95274" lon="28.20985">
        <ele>15.7</ele>
      </trkpt>
      <trkpt lat="36.9527" lon="28.20979">
        <ele>15.3</ele>
      </trkpt>
      <trkpt lat="36.95271" lon="28.20973">
        <ele>14.3</ele>
      </trkpt>
      <trkpt lat="36.95266" lon="28.20971">
        <ele>14.4</ele>
      </trkpt>
      <trkpt lat="36.9527" lon="28.20965">
        <ele>13.3</ele>
      </trkpt>
      <trkpt lat="36.95272" lon="28.2096">
        <ele>12.4</ele>
      </trkpt>
      <trkpt lat="36.95269" lon="28.20954">
        <ele>11.8</ele>
      </trkpt>
      <trkpt lat="36.95264" lon="28.20951">
        <ele>11.5</ele>
      </trkpt>
      <trkpt lat="36.95261" lon="28.20946">
        <ele>10.8</ele>
      </trkpt>
      <trkpt lat="36.95258" lon="28.20941">
        <ele>10.1</ele>
      </trkpt>
      <trkpt lat="36.95253" lon="28.20941">
        <ele>10.3</ele>
      </trkpt>
      <trkpt lat="36.95247" lon="28.2094">
        <ele>10.4</ele>
      </trkpt>
      <trkpt lat="36.95243" lon="28.20941">
        <ele>10.8</ele>
      </trkpt>
      <trkpt lat="36.95237" lon="28.20943">
        <ele>11.5</ele>
      </trkpt>
      <trkpt lat="36.95232" lon="28.20942">
        <ele>11.8</ele>
      </trkpt>
      <trkpt lat="36.95244" lon="28.20938">
        <ele>10.2</ele>
      </trkpt>
      <trkpt lat="36.9524" lon="28.2094">
        <ele>10.9</ele>
      </trkpt>
      <trkpt lat="36.95233" lon="28.20945">
        <ele>12.2</ele>
      </trkpt>
      <trkpt lat="36.9523" lon="28.20946">
        <ele>12.6</ele>
      </trkpt>
      <trkpt lat="36.95225" lon="28.20948">
        <ele>13.5</ele>
      </trkpt>
      <trkpt lat="36.95217" lon="28.20952">
        <ele>14.8</ele>
      </trkpt>
      <trkpt lat="36.95217" lon="28.20953">
        <ele>15.1</ele>
      </trkpt>
      <trkpt lat="36.9521" lon="28.20955">
        <ele>16.1</ele>
      </trkpt>
      <trkpt lat="36.95198" lon="28.20953">
        <ele>16.6</ele>
      </trkpt>
      <trkpt lat="36.95191" lon="28.20953">
        <ele>17.2</ele>
      </trkpt>
      <trkpt lat="36.95185" lon="28.20954">
        <ele>18</ele>
      </trkpt>
      <trkpt lat="36.95179" lon="28.20956">
        <ele>18.9</ele>
      </trkpt>
      <trkpt lat="36.95173" lon="28.20955">
        <ele>19</ele>
      </trkpt>
      <trkpt lat="36.95165" lon="28.20958">
        <ele>20.3</ele>
      </trkpt>
      <trkpt lat="36.95156" lon="28.20963">
        <ele>21.2</ele>
      </trkpt>
      <trkpt lat="36.95152" lon="28.20965">
        <ele>21.6</ele>
      </trkpt>
      <trkpt lat="36.95143" lon="28.2097">
        <ele>22.4</ele>
      </trkpt>
      <trkpt lat="36.95142" lon="28.20971">
        <ele>22.6</ele>
      </trkpt>
      <trkpt lat="36.95139" lon="28.20975">
        <ele>23.5</ele>
      </trkpt>
      <trkpt lat="36.95134" lon="28.20975">
        <ele>23.1</ele>
      </trkpt>
      <trkpt lat="36.95132" lon="28.20976">
        <ele>23.2</ele>
      </trkpt>
      <trkpt lat="36.9513" lon="28.20975">
        <ele>23</ele>
      </trkpt>
      <trkpt lat="36.95123" lon="28.20981">
        <ele>23.8</ele>
      </trkpt>
      <trkpt lat="36.95118" lon="28.20983">
        <ele>24.1</ele>
      </trkpt>
      <trkpt lat="36.95107" lon="28.20986">
        <ele>23.9</ele>
      </trkpt>
      <trkpt lat="36.95092" lon="28.20986">
        <ele>23</ele>
      </trkpt>
      <trkpt lat="36.95078" lon="28.20982">
        <ele>21.2</ele>
      </trkpt>
      <trkpt lat="36.95071" lon="28.20981">
        <ele>20.7</ele>
      </trkpt>
      <trkpt lat="36.95063" lon="28.2098">
        <ele>20</ele>
      </trkpt>
      <trkpt lat="36.9505" lon="28.20977">
        <ele>18.9</ele>
      </trkpt>
      <trkpt lat="36.95044" lon="28.20975">
        <ele>18.3</ele>
      </trkpt>
      <trkpt lat="36.95037" lon="28.20969">
        <ele>17.2</ele>
      </trkpt>
      <trkpt lat="36.95033" lon="28.20964">
        <ele>16.3</ele>
      </trkpt>
      <trkpt lat="36.95034" lon="28.20964">
        <ele>16.4</ele>
      </trkpt>
      <trkpt lat="36.95033" lon="28.20963">
        <ele>16.1</ele>
      </trkpt>
      <trkpt lat="36.95023" lon="28.20961">
        <ele>15.5</ele>
      </trkpt>
      <trkpt lat="36.95017" lon="28.2096">
        <ele>15.2</ele>
      </trkpt>
      <trkpt lat="36.95014" lon="28.2096">
        <ele>15.1</ele>
      </trkpt>
      <trkpt lat="36.95008" lon="28.20969">
        <ele>16</ele>
      </trkpt>
      <trkpt lat="36.95004" lon="28.20976">
        <ele>16.6</ele>
      </trkpt>
      <trkpt lat="36.95001" lon="28.20977">
        <ele>16.5</ele>
      </trkpt>
      <trkpt lat="36.94999" lon="28.20984">
        <ele>17.1</ele>
      </trkpt>
      <trkpt lat="36.94995" lon="28.20992">
        <ele>17.7</ele>
      </trkpt>
      <trkpt lat="36.94992" lon="28.20999">
        <ele>18.1</ele>
      </trkpt>
      <trkpt lat="36.94987" lon="28.21009">
        <ele>20.1</ele>
      </trkpt>
      <trkpt lat="36.94985" lon="28.21013">
        <ele>20.9</ele>
      </trkpt>
      <trkpt lat="36.94981" lon="28.21018">
        <ele>21.7</ele>
      </trkpt>
      <trkpt lat="36.9498" lon="28.21023">
        <ele>22.5</ele>
      </trkpt>
      <trkpt lat="36.94978" lon="28.21028">
        <ele>23.5</ele>
      </trkpt>
      <trkpt lat="36.94974" lon="28.21038">
        <ele>25.1</ele>
      </trkpt>
      <trkpt lat="36.94972" lon="28.2104">
        <ele>25.1</ele>
      </trkpt>
      <trkpt lat="36.94965" lon="28.21045">
        <ele>24.8</ele>
      </trkpt>
      <trkpt lat="36.94961" lon="28.21051">
        <ele>25</ele>
      </trkpt>
      <trkpt lat="36.94954" lon="28.21057">
        <ele>24.7</ele>
      </trkpt>
      <trkpt lat="36.94954" lon="28.21057">
        <ele>24.6</ele>
      </trkpt>
      <trkpt lat="36.94953" lon="28.21061">
        <ele>25</ele>
      </trkpt>
      <trkpt lat="36.94949" lon="28.21067">
        <ele>25.2</ele>
      </trkpt>
      <trkpt lat="36.94943" lon="28.21075">
        <ele>24.8</ele>
      </trkpt>
      <trkpt lat="36.94939" lon="28.21078">
        <ele>24.1</ele>
      </trkpt>
      <trkpt lat="36.94936" lon="28.21076">
        <ele>22.9</ele>
      </trkpt>
      <trkpt lat="36.94934" lon="28.2109">
        <ele>24.8</ele>
      </trkpt>
      <trkpt lat="36.94928" lon="28.21098">
        <ele>24.8</ele>
      </trkpt>
      <trkpt lat="36.94925" lon="28.21107">
        <ele>26.2</ele>
      </trkpt>
      <trkpt lat="36.94918" lon="28.21115">
        <ele>25.8</ele>
      </trkpt>
      <trkpt lat="36.94917" lon="28.21117">
        <ele>25.8</ele>
      </trkpt>
      <trkpt lat="36.94905" lon="28.21123">
        <ele>25.3</ele>
      </trkpt>
      <trkpt lat="36.94899" lon="28.21126">
        <ele>25.2</ele>
      </trkpt>
      <trkpt lat="36.9489" lon="28.21135">
        <ele>25.6</ele>
      </trkpt>
      <trkpt lat="36.9488" lon="28.21138">
        <ele>24.3</ele>
      </trkpt>
      <trkpt lat="36.94877" lon="28.2114">
        <ele>24.1</ele>
      </trkpt>
      <trkpt lat="36.94874" lon="28.21144">
        <ele>24.3</ele>
      </trkpt>
      <trkpt lat="36.94866" lon="28.21147">
        <ele>23.4</ele>
      </trkpt>
      <trkpt lat="36.94858" lon="28.21151">
        <ele>22.3</ele>
      </trkpt>
      <trkpt lat="36.9485" lon="28.21157">
        <ele>21.6</ele>
      </trkpt>
      <trkpt lat="36.94848" lon="28.21159">
        <ele>21.4</ele>
      </trkpt>
      <trkpt lat="36.94843" lon="28.21161">
        <ele>20.5</ele>
      </trkpt>
      <trkpt lat="36.94841" lon="28.21164">
        <ele>20.3</ele>
      </trkpt>
      <trkpt lat="36.94838" lon="28.21166">
        <ele>19.9</ele>
      </trkpt>
      <trkpt lat="36.94835" lon="28.21172">
        <ele>20.4</ele>
      </trkpt>
      <trkpt lat="36.94831" lon="28.21177">
        <ele>20.8</ele>
      </trkpt>
      <trkpt lat="36.94824" lon="28.21181">
        <ele>21.3</ele>
      </trkpt>
      <trkpt lat="36.94822" lon="28.21188">
        <ele>22.4</ele>
      </trkpt>
      <trkpt lat="36.94821" lon="28.21189">
        <ele>22.5</ele>
      </trkpt>
      <trkpt lat="36.94819" lon="28.21192">
        <ele>22.9</ele>
      </trkpt>
      <trkpt lat="36.94819" lon="28.21192">
        <ele>22.9</ele>
      </trkpt>
      <trkpt lat="36.94816" lon="28.21203">
        <ele>24.4</ele>
      </trkpt>
      <trkpt lat="36.94816" lon="28.21204">
        <ele>24.6</ele>
      </trkpt>
      <trkpt lat="36.94811" lon="28.21217">
        <ele>25.9</ele>
      </trkpt>
      <trkpt lat="36.94809" lon="28.21222">
        <ele>26.5</ele>
      </trkpt>
      <trkpt lat="36.94802" lon="28.21235">
        <ele>27.3</ele>
      </trkpt>
      <trkpt lat="36.94798" lon="28.2124">
        <ele>27</ele>
      </trkpt>
      <trkpt lat="36.94788" lon="28.21249">
        <ele>26</ele>
      </trkpt>
      <trkpt lat="36.94786" lon="28.2125">
        <ele>25.8</ele>
      </trkpt>
      <trkpt lat="36.94779" lon="28.21252">
        <ele>24.8</ele>
      </trkpt>
      <trkpt lat="36.94771" lon="28.2126">
        <ele>24.9</ele>
      </trkpt>
      <trkpt lat="36.94762" lon="28.21273">
        <ele>25.8</ele>
      </trkpt>
      <trkpt lat="36.94758" lon="28.21281">
        <ele>26.2</ele>
      </trkpt>
      <trkpt lat="36.94753" lon="28.21288">
        <ele>26.5</ele>
      </trkpt>
      <trkpt lat="36.94752" lon="28.21289">
        <ele>26.5</ele>
      </trkpt>
      <trkpt lat="36.94749" lon="28.21295">
        <ele>27</ele>
      </trkpt>
      <trkpt lat="36.94747" lon="28.21301">
        <ele>28.1</ele>
      </trkpt>
      <trkpt lat="36.94744" lon="28.21306">
        <ele>28.7</ele>
      </trkpt>
      <trkpt lat="36.94741" lon="28.21312">
        <ele>29.4</ele>
      </trkpt>
      <trkpt lat="36.94735" lon="28.21324">
        <ele>30.7</ele>
      </trkpt>
      <trkpt lat="36.94734" lon="28.21326">
        <ele>30.8</ele>
      </trkpt>
      <trkpt lat="36.94729" lon="28.21335">
        <ele>31.1</ele>
      </trkpt>
      <trkpt lat="36.94728" lon="28.21343">
        <ele>32.2</ele>
      </trkpt>
      <trkpt lat="36.94726" lon="28.21348">
        <ele>32.5</ele>
      </trkpt>
      <trkpt lat="36.94726" lon="28.21349">
        <ele>32.5</ele>
      </trkpt>
      <trkpt lat="36.94726" lon="28.21348">
        <ele>32.4</ele>
      </trkpt>
      <trkpt lat="36.94724" lon="28.21353">
        <ele>32.7</ele>
      </trkpt>
      <trkpt lat="36.94719" lon="28.21363">
        <ele>32.9</ele>
      </trkpt>
      <trkpt lat="36.94719" lon="28.21364">
        <ele>32.9</ele>
      </trkpt>
      <trkpt lat="36.94714" lon="28.2137">
        <ele>32.5</ele>
      </trkpt>
      <trkpt lat="36.94712" lon="28.21374">
        <ele>32.2</ele>
      </trkpt>
      <trkpt lat="36.94709" lon="28.21384">
        <ele>32.6</ele>
      </trkpt>
      <trkpt lat="36.94707" lon="28.21386">
        <ele>32.3</ele>
      </trkpt>
      <trkpt lat="36.94701" lon="28.21396">
        <ele>31.5</ele>
      </trkpt>
      <trkpt lat="36.947" lon="28.21405">
        <ele>32</ele>
      </trkpt>
      <trkpt lat="36.94697" lon="28.21418">
        <ele>31.9</ele>
      </trkpt>
      <trkpt lat="36.94696" lon="28.21419">
        <ele>32</ele>
      </trkpt>
      <trkpt lat="36.94695" lon="28.21428">
        <ele>33.1</ele>
      </trkpt>
      <trkpt lat="36.94689" lon="28.21442">
        <ele>32.7</ele>
      </trkpt>
      <trkpt lat="36.94688" lon="28.21455">
        <ele>33.6</ele>
      </trkpt>
      <trkpt lat="36.94686" lon="28.21458">
        <ele>33.3</ele>
      </trkpt>
      <trkpt lat="36.9468" lon="28.21468">
        <ele>32.1</ele>
      </trkpt>
      <trkpt lat="36.94678" lon="28.21476">
        <ele>32.1</ele>
      </trkpt>
      <trkpt lat="36.94676" lon="28.21491">
        <ele>32.9</ele>
      </trkpt>
      <trkpt lat="36.94675" lon="28.21493">
        <ele>32.4</ele>
      </trkpt>
      <trkpt lat="36.94671" lon="28.21503">
        <ele>31.6</ele>
      </trkpt>
      <trkpt lat="36.9467" lon="28.21505">
        <ele>31.6</ele>
      </trkpt>
      <trkpt lat="36.94668" lon="28.21508">
        <ele>31.4</ele>
      </trkpt>
      <trkpt lat="36.94665" lon="28.21514">
        <ele>31.6</ele>
      </trkpt>
      <trkpt lat="36.94663" lon="28.21517">
        <ele>31.8</ele>
      </trkpt>
      <trkpt lat="36.94662" lon="28.21525">
        <ele>33.2</ele>
      </trkpt>
      <trkpt lat="36.94654" lon="28.21533">
        <ele>33.6</ele>
      </trkpt>
      <trkpt lat="36.94654" lon="28.2154">
        <ele>34.5</ele>
      </trkpt>
      <trkpt lat="36.94648" lon="28.21547">
        <ele>34.8</ele>
      </trkpt>
      <trkpt lat="36.94646" lon="28.21553">
        <ele>35.3</ele>
      </trkpt>
      <trkpt lat="36.94642" lon="28.21555">
        <ele>34.9</ele>
      </trkpt>
      <trkpt lat="36.94643" lon="28.21564">
        <ele>36.4</ele>
      </trkpt>
      <trkpt lat="36.94643" lon="28.21565">
        <ele>36.5</ele>
      </trkpt>
      <trkpt lat="36.94643" lon="28.21565">
        <ele>36.5</ele>
      </trkpt>
      <trkpt lat="36.94638" lon="28.2157">
        <ele>36.1</ele>
      </trkpt>
      <trkpt lat="36.94638" lon="28.21571">
        <ele>36.1</ele>
      </trkpt>
      <trkpt lat="36.94633" lon="28.2158">
        <ele>36.2</ele>
      </trkpt>
      <trkpt lat="36.94632" lon="28.21585">
        <ele>36.6</ele>
      </trkpt>
      <trkpt lat="36.94631" lon="28.21588">
        <ele>37.1</ele>
      </trkpt>
      <trkpt lat="36.9463" lon="28.21591">
        <ele>37.5</ele>
      </trkpt>
      <trkpt lat="36.94625" lon="28.21601">
        <ele>38.1</ele>
      </trkpt>
      <trkpt lat="36.94621" lon="28.2161">
        <ele>38.9</ele>
      </trkpt>
      <trkpt lat="36.94611" lon="28.21624">
        <ele>38.3</ele>
      </trkpt>
      <trkpt lat="36.94608" lon="28.21627">
        <ele>37.9</ele>
      </trkpt>
      <trkpt lat="36.94604" lon="28.21642">
        <ele>38.6</ele>
      </trkpt>
      <trkpt lat="36.94602" lon="28.21645">
        <ele>38.5</ele>
      </trkpt>
      <trkpt lat="36.946" lon="28.2165">
        <ele>38.6</ele>
      </trkpt>
      <trkpt lat="36.94592" lon="28.21659">
        <ele>36.9</ele>
      </trkpt>
      <trkpt lat="36.94589" lon="28.21668">
        <ele>36.7</ele>
      </trkpt>
      <trkpt lat="36.94585" lon="28.21677">
        <ele>36.4</ele>
      </trkpt>
      <trkpt lat="36.9458" lon="28.21681">
        <ele>36.4</ele>
      </trkpt>
      <trkpt lat="36.94577" lon="28.21687">
        <ele>37.1</ele>
      </trkpt>
      <trkpt lat="36.94574" lon="28.21693">
        <ele>37.8</ele>
      </trkpt>
      <trkpt lat="36.94569" lon="28.217">
        <ele>38.4</ele>
      </trkpt>
      <trkpt lat="36.94564" lon="28.21707">
        <ele>38.7</ele>
      </trkpt>
      <trkpt lat="36.94562" lon="28.21719">
        <ele>40</ele>
      </trkpt>
      <trkpt lat="36.94557" lon="28.21729">
        <ele>40.2</ele>
      </trkpt>
      <trkpt lat="36.94554" lon="28.21735">
        <ele>40.3</ele>
      </trkpt>
      <trkpt lat="36.94552" lon="28.21738">
        <ele>40.2</ele>
      </trkpt>
      <trkpt lat="36.9455" lon="28.21742">
        <ele>40.1</ele>
      </trkpt>
      <trkpt lat="36.94549" lon="28.21744">
        <ele>40.1</ele>
      </trkpt>
      <trkpt lat="36.9455" lon="28.21744">
        <ele>40.3</ele>
      </trkpt>
      <trkpt lat="36.94548" lon="28.21746">
        <ele>40.1</ele>
      </trkpt>
      <trkpt lat="36.94544" lon="28.21757">
        <ele>40.8</ele>
      </trkpt>
      <trkpt lat="36.94543" lon="28.21751">
        <ele>39.4</ele>
      </trkpt>
      <trkpt lat="36.94539" lon="28.21747">
        <ele>38.1</ele>
      </trkpt>
      <trkpt lat="36.94537" lon="28.21748">
        <ele>37.7</ele>
      </trkpt>
      <trkpt lat="36.94533" lon="28.21749">
        <ele>36.8</ele>
      </trkpt>
      <trkpt lat="36.94532" lon="28.21751">
        <ele>36.9</ele>
      </trkpt>
      <trkpt lat="36.94532" lon="28.21753">
        <ele>37.1</ele>
      </trkpt>
      <trkpt lat="36.94525" lon="28.21753">
        <ele>35.4</ele>
      </trkpt>
      <trkpt lat="36.94512" lon="28.21756">
        <ele>33</ele>
      </trkpt>
      <trkpt lat="36.94504" lon="28.21755">
        <ele>30.9</ele>
      </trkpt>
      <trkpt lat="36.945" lon="28.21753">
        <ele>29.6</ele>
      </trkpt>
      <trkpt lat="36.94496" lon="28.21745">
        <ele>30.1</ele>
      </trkpt>
      <trkpt lat="36.94494" lon="28.21742">
        <ele>30.6</ele>
      </trkpt>
      <trkpt lat="36.94488" lon="28.21731">
        <ele>32.9</ele>
      </trkpt>
      <trkpt lat="36.94487" lon="28.2173">
        <ele>33.1</ele>
      </trkpt>
      <trkpt lat="36.94486" lon="28.21719">
        <ele>34.1</ele>
      </trkpt>
      <trkpt lat="36.94486" lon="28.21714">
        <ele>34.4</ele>
      </trkpt>
      <trkpt lat="36.94487" lon="28.21711">
        <ele>34.2</ele>
      </trkpt>
      <trkpt lat="36.9449" lon="28.21706">
        <ele>33.5</ele>
      </trkpt>
      <trkpt lat="36.94492" lon="28.21695">
        <ele>33.3</ele>
      </trkpt>
      <trkpt lat="36.94497" lon="28.21689">
        <ele>31.8</ele>
      </trkpt>
      <trkpt lat="36.94497" lon="28.21681">
        <ele>32</ele>
      </trkpt>
      <trkpt lat="36.94497" lon="28.21679">
        <ele>32</ele>
      </trkpt>
      <trkpt lat="36.94502" lon="28.21669">
        <ele>31</ele>
      </trkpt>
      <trkpt lat="36.94503" lon="28.21665">
        <ele>31.4</ele>
      </trkpt>
      <trkpt lat="36.94504" lon="28.21658">
        <ele>32.5</ele>
      </trkpt>
      <trkpt lat="36.94507" lon="28.21644">
        <ele>34.5</ele>
      </trkpt>
      <trkpt lat="36.94508" lon="28.21635">
        <ele>35.7</ele>
      </trkpt>
      <trkpt lat="36.94509" lon="28.21631">
        <ele>36.2</ele>
      </trkpt>
      <trkpt lat="36.94511" lon="28.21629">
        <ele>36.3</ele>
      </trkpt>
      <trkpt lat="36.94509" lon="28.21621">
        <ele>37.6</ele>
      </trkpt>
      <trkpt lat="36.94509" lon="28.21617">
        <ele>38</ele>
      </trkpt>
      <trkpt lat="36.94513" lon="28.21615">
        <ele>37.7</ele>
      </trkpt>
      <trkpt lat="36.94515" lon="28.21612">
        <ele>37.9</ele>
      </trkpt>
      <trkpt lat="36.94518" lon="28.21601">
        <ele>38.6</ele>
      </trkpt>
      <trkpt lat="36.94518" lon="28.21596">
        <ele>39</ele>
      </trkpt>
      <trkpt lat="36.94518" lon="28.2159">
        <ele>39.7</ele>
      </trkpt>
      <trkpt lat="36.94522" lon="28.2158">
        <ele>39.9</ele>
      </trkpt>
      <trkpt lat="36.94523" lon="28.21579">
        <ele>40</ele>
      </trkpt>
      <trkpt lat="36.94531" lon="28.21574">
        <ele>38.3</ele>
      </trkpt>
      <trkpt lat="36.94535" lon="28.21571">
        <ele>37.7</ele>
      </trkpt>
      <trkpt lat="36.94538" lon="28.21569">
        <ele>36.8</ele>
      </trkpt>
      <trkpt lat="36.94545" lon="28.21559">
        <ele>35.9</ele>
      </trkpt>
      <trkpt lat="36.94548" lon="28.21556">
        <ele>35</ele>
      </trkpt>
      <trkpt lat="36.94552" lon="28.21554">
        <ele>34.1</ele>
      </trkpt>
      <trkpt lat="36.94553" lon="28.21549">
        <ele>33.9</ele>
      </trkpt>
      <trkpt lat="36.94552" lon="28.21545">
        <ele>34.7</ele>
      </trkpt>
      <trkpt lat="36.94553" lon="28.21544">
        <ele>34.3</ele>
      </trkpt>
      <trkpt lat="36.94552" lon="28.21544">
        <ele>34.5</ele>
      </trkpt>
      <trkpt lat="36.94558" lon="28.21541">
        <ele>32.8</ele>
      </trkpt>
      <trkpt lat="36.94558" lon="28.2154">
        <ele>32.6</ele>
      </trkpt>
      <trkpt lat="36.94565" lon="28.21532">
        <ele>30.4</ele>
      </trkpt>
      <trkpt lat="36.94571" lon="28.21522">
        <ele>28.5</ele>
      </trkpt>
      <trkpt lat="36.94575" lon="28.21508">
        <ele>26.6</ele>
      </trkpt>
      <trkpt lat="36.94577" lon="28.21503">
        <ele>25.8</ele>
      </trkpt>
      <trkpt lat="36.94584" lon="28.21492">
        <ele>23.8</ele>
      </trkpt>
      <trkpt lat="36.94586" lon="28.21478">
        <ele>25.1</ele>
      </trkpt>
      <trkpt lat="36.94586" lon="28.21478">
        <ele>25.2</ele>
      </trkpt>
      <trkpt lat="36.94584" lon="28.21472">
        <ele>25.7</ele>
      </trkpt>
      <trkpt lat="36.94584" lon="28.21466">
        <ele>26.3</ele>
      </trkpt>
      <trkpt lat="36.94588" lon="28.21458">
        <ele>26.9</ele>
      </trkpt>
      <trkpt lat="36.9459" lon="28.21453">
        <ele>27.3</ele>
      </trkpt>
      <trkpt lat="36.94598" lon="28.21449">
        <ele>27.2</ele>
      </trkpt>
      <trkpt lat="36.94599" lon="28.21447">
        <ele>27.3</ele>
      </trkpt>
      <trkpt lat="36.94599" lon="28.2144">
        <ele>27.7</ele>
      </trkpt>
      <trkpt lat="36.94598" lon="28.21438">
        <ele>27.9</ele>
      </trkpt>
      <trkpt lat="36.94601" lon="28.21433">
        <ele>28</ele>
      </trkpt>
      <trkpt lat="36.94604" lon="28.21418">
        <ele>28.4</ele>
      </trkpt>
      <trkpt lat="36.94605" lon="28.21405">
        <ele>30.4</ele>
      </trkpt>
      <trkpt lat="36.94611" lon="28.21397">
        <ele>30.6</ele>
      </trkpt>
      <trkpt lat="36.94616" lon="28.21377">
        <ele>32.3</ele>
      </trkpt>
      <trkpt lat="36.94621" lon="28.2137">
        <ele>31.8</ele>
      </trkpt>
      <trkpt lat="36.94628" lon="28.21362">
        <ele>30.7</ele>
      </trkpt>
      <trkpt lat="36.94629" lon="28.21353">
        <ele>31.3</ele>
      </trkpt>
      <trkpt lat="36.94632" lon="28.21347">
        <ele>30.7</ele>
      </trkpt>
      <trkpt lat="36.94633" lon="28.21343">
        <ele>30.8</ele>
      </trkpt>
      <trkpt lat="36.94634" lon="28.21335">
        <ele>30.9</ele>
      </trkpt>
      <trkpt lat="36.94638" lon="28.21323">
        <ele>30.8</ele>
      </trkpt>
      <trkpt lat="36.9464" lon="28.21316">
        <ele>30.9</ele>
      </trkpt>
      <trkpt lat="36.9464" lon="28.21312">
        <ele>31</ele>
      </trkpt>
      <trkpt lat="36.94642" lon="28.21309">
        <ele>30.7</ele>
      </trkpt>
      <trkpt lat="36.9464" lon="28.21299">
        <ele>32.4</ele>
      </trkpt>
      <trkpt lat="36.9464" lon="28.21299">
        <ele>32.4</ele>
      </trkpt>
      <trkpt lat="36.94644" lon="28.21298">
        <ele>31.1</ele>
      </trkpt>
      <trkpt lat="36.94643" lon="28.21285">
        <ele>32.4</ele>
      </trkpt>
      <trkpt lat="36.94645" lon="28.21279">
        <ele>32.2</ele>
      </trkpt>
      <trkpt lat="36.94644" lon="28.21274">
        <ele>33</ele>
      </trkpt>
      <trkpt lat="36.94646" lon="28.21265">
        <ele>33.1</ele>
      </trkpt>
      <trkpt lat="36.9465" lon="28.2126">
        <ele>30.9</ele>
      </trkpt>
      <trkpt lat="36.94652" lon="28.21257">
        <ele>30.2</ele>
      </trkpt>
      <trkpt lat="36.94654" lon="28.21253">
        <ele>29.5</ele>
      </trkpt>
      <trkpt lat="36.9466" lon="28.21245">
        <ele>26.2</ele>
      </trkpt>
      <trkpt lat="36.94664" lon="28.21238">
        <ele>24.8</ele>
      </trkpt>
      <trkpt lat="36.9467" lon="28.21235">
        <ele>23.4</ele>
      </trkpt>
      <trkpt lat="36.94672" lon="28.21233">
        <ele>23.4</ele>
      </trkpt>
      <trkpt lat="36.94677" lon="28.21225">
        <ele>23.7</ele>
      </trkpt>
      <trkpt lat="36.94678" lon="28.21222">
        <ele>24</ele>
      </trkpt>
      <trkpt lat="36.94676" lon="28.21215">
        <ele>24.8</ele>
      </trkpt>
      <trkpt lat="36.94674" lon="28.21211">
        <ele>25.4</ele>
      </trkpt>
      <trkpt lat="36.94674" lon="28.21212">
        <ele>25.3</ele>
      </trkpt>
      <trkpt lat="36.94682" lon="28.21202">
        <ele>25.3</ele>
      </trkpt>
      <trkpt lat="36.94685" lon="28.21194">
        <ele>25.6</ele>
      </trkpt>
      <trkpt lat="36.94686" lon="28.21189">
        <ele>25.8</ele>
      </trkpt>
      <trkpt lat="36.94689" lon="28.21186">
        <ele>25.6</ele>
      </trkpt>
      <trkpt lat="36.94689" lon="28.21186">
        <ele>25.6</ele>
      </trkpt>
      <trkpt lat="36.9469" lon="28.21185">
        <ele>25.5</ele>
      </trkpt>
      <trkpt lat="36.94696" lon="28.21176">
        <ele>25.1</ele>
      </trkpt>
      <trkpt lat="36.94696" lon="28.21176">
        <ele>25.1</ele>
      </trkpt>
      <trkpt lat="36.94697" lon="28.21169">
        <ele>25.4</ele>
      </trkpt>
      <trkpt lat="36.94697" lon="28.21159">
        <ele>25.9</ele>
      </trkpt>
      <trkpt lat="36.94698" lon="28.21152">
        <ele>26</ele>
      </trkpt>
      <trkpt lat="36.947" lon="28.21147">
        <ele>25.8</ele>
      </trkpt>
      <trkpt lat="36.94701" lon="28.21142">
        <ele>25.9</ele>
      </trkpt>
      <trkpt lat="36.947" lon="28.21134">
        <ele>26.4</ele>
      </trkpt>
      <trkpt lat="36.94699" lon="28.21128">
        <ele>26.8</ele>
      </trkpt>
      <trkpt lat="36.94699" lon="28.21119">
        <ele>27.3</ele>
      </trkpt>
      <trkpt lat="36.94699" lon="28.21113">
        <ele>27.5</ele>
      </trkpt>
      <trkpt lat="36.94701" lon="28.21102">
        <ele>27.6</ele>
      </trkpt>
      <trkpt lat="36.94701" lon="28.21101">
        <ele>27.6</ele>
      </trkpt>
      <trkpt lat="36.94703" lon="28.21088">
        <ele>27.7</ele>
      </trkpt>
      <trkpt lat="36.94703" lon="28.21082">
        <ele>27.9</ele>
      </trkpt>
      <trkpt lat="36.94704" lon="28.21073">
        <ele>28.1</ele>
      </trkpt>
      <trkpt lat="36.94704" lon="28.21059">
        <ele>28.7</ele>
      </trkpt>
      <trkpt lat="36.94705" lon="28.21056">
        <ele>28.4</ele>
      </trkpt>
      <trkpt lat="36.94707" lon="28.21048">
        <ele>28.2</ele>
      </trkpt>
      <trkpt lat="36.94707" lon="28.21048">
        <ele>28.2</ele>
      </trkpt>
      <trkpt lat="36.94712" lon="28.21042">
        <ele>27.4</ele>
      </trkpt>
      <trkpt lat="36.94712" lon="28.21029">
        <ele>27.9</ele>
      </trkpt>
      <trkpt lat="36.94714" lon="28.21023">
        <ele>27.8</ele>
      </trkpt>
      <trkpt lat="36.94715" lon="28.21015">
        <ele>27.7</ele>
      </trkpt>
      <trkpt lat="36.94717" lon="28.21005">
        <ele>27.7</ele>
      </trkpt>
      <trkpt lat="36.94717" lon="28.21003">
        <ele>27.8</ele>
      </trkpt>
      <trkpt lat="36.94717" lon="28.20998">
        <ele>28.1</ele>
      </trkpt>
      <trkpt lat="36.94718" lon="28.20991">
        <ele>28.4</ele>
      </trkpt>
      <trkpt lat="36.9472" lon="28.20988">
        <ele>28.3</ele>
      </trkpt>
      <trkpt lat="36.9472" lon="28.20988">
        <ele>28.2</ele>
      </trkpt>
      <trkpt lat="36.94726" lon="28.20987">
        <ele>27</ele>
      </trkpt>
      <trkpt lat="36.94731" lon="28.20988">
        <ele>25.7</ele>
      </trkpt>
      <trkpt lat="36.94733" lon="28.20986">
        <ele>25.5</ele>
      </trkpt>
      <trkpt lat="36.94733" lon="28.20986">
        <ele>25.5</ele>
      </trkpt>
      <trkpt lat="36.94734" lon="28.20986">
        <ele>25.2</ele>
      </trkpt>
      <trkpt lat="36.94738" lon="28.20981">
        <ele>25</ele>
      </trkpt>
      <trkpt lat="36.94739" lon="28.20969">
        <ele>25.9</ele>
      </trkpt>
      <trkpt lat="36.94739" lon="28.20963">
        <ele>26.4</ele>
      </trkpt>
      <trkpt lat="36.94738" lon="28.20959">
        <ele>27</ele>
      </trkpt>
      <trkpt lat="36.94738" lon="28.20951">
        <ele>27.9</ele>
      </trkpt>
      <trkpt lat="36.9474" lon="28.20945">
        <ele>28.1</ele>
      </trkpt>
      <trkpt lat="36.94745" lon="28.20939">
        <ele>27.7</ele>
      </trkpt>
      <trkpt lat="36.94748" lon="28.20936">
        <ele>27.5</ele>
      </trkpt>
      <trkpt lat="36.94751" lon="28.2093">
        <ele>27.4</ele>
      </trkpt>
      <trkpt lat="36.94756" lon="28.20926">
        <ele>27</ele>
      </trkpt>
      <trkpt lat="36.94757" lon="28.20925">
        <ele>27</ele>
      </trkpt>
      <trkpt lat="36.94758" lon="28.2092">
        <ele>27.3</ele>
      </trkpt>
      <trkpt lat="36.94759" lon="28.20917">
        <ele>27.4</ele>
      </trkpt>
      <trkpt lat="36.94761" lon="28.20915">
        <ele>27.4</ele>
      </trkpt>
      <trkpt lat="36.94767" lon="28.2091">
        <ele>27.1</ele>
      </trkpt>
      <trkpt lat="36.94771" lon="28.20908">
        <ele>26.8</ele>
      </trkpt>
      <trkpt lat="36.94776" lon="28.20902">
        <ele>27</ele>
      </trkpt>
      <trkpt lat="36.94776" lon="28.20899">
        <ele>27.2</ele>
      </trkpt>
      <trkpt lat="36.9478" lon="28.20894">
        <ele>27.2</ele>
      </trkpt>
      <trkpt lat="36.94783" lon="28.20887">
        <ele>27.7</ele>
      </trkpt>
      <trkpt lat="36.94792" lon="28.20877">
        <ele>27.2</ele>
      </trkpt>
      <trkpt lat="36.94796" lon="28.20874">
        <ele>26.7</ele>
      </trkpt>
      <trkpt lat="36.94799" lon="28.20867">
        <ele>27</ele>
      </trkpt>
      <trkpt lat="36.94802" lon="28.20866">
        <ele>26.4</ele>
      </trkpt>
      <trkpt lat="36.94806" lon="28.20855">
        <ele>26.9</ele>
      </trkpt>
      <trkpt lat="36.94809" lon="28.20849">
        <ele>26.6</ele>
      </trkpt>
      <trkpt lat="36.94811" lon="28.20845">
        <ele>26.6</ele>
      </trkpt>
      <trkpt lat="36.94814" lon="28.20839">
        <ele>26.4</ele>
      </trkpt>
      <trkpt lat="36.94817" lon="28.20834">
        <ele>26.3</ele>
      </trkpt>
      <trkpt lat="36.94818" lon="28.20828">
        <ele>26.4</ele>
      </trkpt>
      <trkpt lat="36.94819" lon="28.20827">
        <ele>26.4</ele>
      </trkpt>
      <trkpt lat="36.94819" lon="28.20825">
        <ele>26.5</ele>
      </trkpt>
      <trkpt lat="36.94824" lon="28.20814">
        <ele>26.2</ele>
      </trkpt>
      <trkpt lat="36.94824" lon="28.20813">
        <ele>26.3</ele>
      </trkpt>
      <trkpt lat="36.94833" lon="28.20806">
        <ele>24.5</ele>
      </trkpt>
      <trkpt lat="36.94833" lon="28.20805">
        <ele>24.4</ele>
      </trkpt>
      <trkpt lat="36.94837" lon="28.20799">
        <ele>24.2</ele>
      </trkpt>
      <trkpt lat="36.9484" lon="28.20795">
        <ele>24.1</ele>
      </trkpt>
      <trkpt lat="36.9484" lon="28.20787">
        <ele>24.7</ele>
      </trkpt>
      <trkpt lat="36.94843" lon="28.20783">
        <ele>24.5</ele>
      </trkpt>
      <trkpt lat="36.94844" lon="28.20775">
        <ele>25</ele>
      </trkpt>
      <trkpt lat="36.94848" lon="28.2077">
        <ele>24.7</ele>
      </trkpt>
      <trkpt lat="36.9485" lon="28.20762">
        <ele>24.8</ele>
      </trkpt>
      <trkpt lat="36.94855" lon="28.20754">
        <ele>24.6</ele>
      </trkpt>
      <trkpt lat="36.94856" lon="28.20751">
        <ele>24.6</ele>
      </trkpt>
      <trkpt lat="36.94858" lon="28.20749">
        <ele>24.3</ele>
      </trkpt>
      <trkpt lat="36.9486" lon="28.2074">
        <ele>24.5</ele>
      </trkpt>
      <trkpt lat="36.94864" lon="28.20731">
        <ele>24.4</ele>
      </trkpt>
      <trkpt lat="36.94864" lon="28.20726">
        <ele>24.7</ele>
      </trkpt>
      <trkpt lat="36.94867" lon="28.20719">
        <ele>24.8</ele>
      </trkpt>
      <trkpt lat="36.94866" lon="28.20715">
        <ele>25.3</ele>
      </trkpt>
      <trkpt lat="36.94865" lon="28.20713">
        <ele>25.5</ele>
      </trkpt>
      <trkpt lat="36.94864" lon="28.2071">
        <ele>25.7</ele>
      </trkpt>
      <trkpt lat="36.94859" lon="28.207">
        <ele>26.9</ele>
      </trkpt>
      <trkpt lat="36.94853" lon="28.2069">
        <ele>27.8</ele>
      </trkpt>
      <trkpt lat="36.9485" lon="28.20686">
        <ele>28.1</ele>
      </trkpt>
      <trkpt lat="36.94848" lon="28.20675">
        <ele>28.6</ele>
      </trkpt>
      <trkpt lat="36.94846" lon="28.20667">
        <ele>28.8</ele>
      </trkpt>
      <trkpt lat="36.94844" lon="28.20661">
        <ele>28.9</ele>
      </trkpt>
      <trkpt lat="36.94844" lon="28.20657">
        <ele>29</ele>
      </trkpt>
      <trkpt lat="36.94843" lon="28.20649">
        <ele>29.1</ele>
      </trkpt>
      <trkpt lat="36.94843" lon="28.20647">
        <ele>29.1</ele>
      </trkpt>
      <trkpt lat="36.94843" lon="28.20644">
        <ele>29.1</ele>
      </trkpt>
      <trkpt lat="36.94843" lon="28.2064">
        <ele>29.1</ele>
      </trkpt>
      <trkpt lat="36.9484" lon="28.20629">
        <ele>29.2</ele>
      </trkpt>
      <trkpt lat="36.9484" lon="28.20628">
        <ele>29.2</ele>
      </trkpt>
      <trkpt lat="36.9484" lon="28.20623">
        <ele>29.2</ele>
      </trkpt>
      <trkpt lat="36.94839" lon="28.20614">
        <ele>29.2</ele>
      </trkpt>
      <trkpt lat="36.94839" lon="28.20612">
        <ele>29.2</ele>
      </trkpt>
      <trkpt lat="36.94838" lon="28.20603">
        <ele>29.2</ele>
      </trkpt>
      <trkpt lat="36.94837" lon="28.20596">
        <ele>29.2</ele>
      </trkpt>
      <trkpt lat="36.94837" lon="28.20582">
        <ele>29.2</ele>
      </trkpt>
      <trkpt lat="36.94836" lon="28.20578">
        <ele>29.1</ele>
      </trkpt>
      <trkpt lat="36.94838" lon="28.20571">
        <ele>29</ele>
      </trkpt>
      <trkpt lat="36.9484" lon="28.20566">
        <ele>29</ele>
      </trkpt>
      <trkpt lat="36.94841" lon="28.20555">
        <ele>28.7</ele>
      </trkpt>
      <trkpt lat="36.94841" lon="28.20552">
        <ele>28.7</ele>
      </trkpt>
      <trkpt lat="36.94844" lon="28.20542">
        <ele>28.5</ele>
      </trkpt>
      <trkpt lat="36.94846" lon="28.20536">
        <ele>28.4</ele>
      </trkpt>
      <trkpt lat="36.94846" lon="28.20536">
        <ele>28.4</ele>
      </trkpt>
      <trkpt lat="36.94847" lon="28.20534">
        <ele>28.4</ele>
      </trkpt>
      <trkpt lat="36.94847" lon="28.20522">
        <ele>28</ele>
      </trkpt>
      <trkpt lat="36.94846" lon="28.20513">
        <ele>27.7</ele>
      </trkpt>
      <trkpt lat="36.94847" lon="28.20509">
        <ele>27.6</ele>
      </trkpt>
      <trkpt lat="36.94848" lon="28.20507">
        <ele>27.6</ele>
      </trkpt>
      <trkpt lat="36.94851" lon="28.20501">
        <ele>27.5</ele>
      </trkpt>
      <trkpt lat="36.94852" lon="28.20496">
        <ele>27.3</ele>
      </trkpt>
      <trkpt lat="36.94857" lon="28.20492">
        <ele>27.2</ele>
      </trkpt>
      <trkpt lat="36.94856" lon="28.20491">
        <ele>27.1</ele>
      </trkpt>
      <trkpt lat="36.94858" lon="28.20483">
        <ele>26.8</ele>
      </trkpt>
      <trkpt lat="36.94859" lon="28.20475">
        <ele>26.5</ele>
      </trkpt>
      <trkpt lat="36.94859" lon="28.20474">
        <ele>26.4</ele>
      </trkpt>
      <trkpt lat="36.94858" lon="28.20465">
        <ele>25.9</ele>
      </trkpt>
      <trkpt lat="36.94857" lon="28.20462">
        <ele>25.8</ele>
      </trkpt>
      <trkpt lat="36.94858" lon="28.20459">
        <ele>25.7</ele>
      </trkpt>
      <trkpt lat="36.94857" lon="28.20455">
        <ele>25.5</ele>
      </trkpt>
      <trkpt lat="36.94855" lon="28.20453">
        <ele>25.4</ele>
      </trkpt>
      <trkpt lat="36.94854" lon="28.20448">
        <ele>25.2</ele>
      </trkpt>
      <trkpt lat="36.94853" lon="28.20444">
        <ele>25</ele>
      </trkpt>
      <trkpt lat="36.94852" lon="28.20441">
        <ele>24.9</ele>
      </trkpt>
      <trkpt lat="36.94851" lon="28.20436">
        <ele>24.6</ele>
      </trkpt>
      <trkpt lat="36.94849" lon="28.2043">
        <ele>24.4</ele>
      </trkpt>
      <trkpt lat="36.94848" lon="28.20427">
        <ele>24.3</ele>
      </trkpt>
      <trkpt lat="36.9485" lon="28.20424">
        <ele>24.1</ele>
      </trkpt>
      <trkpt lat="36.94848" lon="28.20418">
        <ele>23.9</ele>
      </trkpt>
      <trkpt lat="36.94846" lon="28.20411">
        <ele>23.4</ele>
      </trkpt>
      <trkpt lat="36.94844" lon="28.20406">
        <ele>23</ele>
      </trkpt>
      <trkpt lat="36.94842" lon="28.20398">
        <ele>22.3</ele>
      </trkpt>
      <trkpt lat="36.94843" lon="28.20392">
        <ele>21.8</ele>
      </trkpt>
      <trkpt lat="36.9484" lon="28.20388">
        <ele>21.5</ele>
      </trkpt>
      <trkpt lat="36.94838" lon="28.20382">
        <ele>21.1</ele>
      </trkpt>
      <trkpt lat="36.94837" lon="28.20376">
        <ele>20.5</ele>
      </trkpt>
      <trkpt lat="36.94835" lon="28.2037">
        <ele>20.1</ele>
      </trkpt>
      <trkpt lat="36.94831" lon="28.20365">
        <ele>20</ele>
      </trkpt>
      <trkpt lat="36.94827" lon="28.2036">
        <ele>20.5</ele>
      </trkpt>
      <trkpt lat="36.94823" lon="28.20355">
        <ele>20.8</ele>
      </trkpt>
      <trkpt lat="36.94821" lon="28.2035">
        <ele>20.9</ele>
      </trkpt>
      <trkpt lat="36.94818" lon="28.20344">
        <ele>21</ele>
      </trkpt>
      <trkpt lat="36.94817" lon="28.20338">
        <ele>20.7</ele>
      </trkpt>
      <trkpt lat="36.94813" lon="28.20334">
        <ele>20.9</ele>
      </trkpt>
      <trkpt lat="36.9481" lon="28.20329">
        <ele>21.1</ele>
      </trkpt>
      <trkpt lat="36.94808" lon="28.20322">
        <ele>20.9</ele>
      </trkpt>
      <trkpt lat="36.94806" lon="28.20317">
        <ele>20.8</ele>
      </trkpt>
      <trkpt lat="36.94804" lon="28.20311">
        <ele>20.7</ele>
      </trkpt>
      <trkpt lat="36.94802" lon="28.20305">
        <ele>20.6</ele>
      </trkpt>
      <trkpt lat="36.948" lon="28.20299">
        <ele>20.6</ele>
      </trkpt>
      <trkpt lat="36.94798" lon="28.20293">
        <ele>20.6</ele>
      </trkpt>
      <trkpt lat="36.94795" lon="28.20287">
        <ele>20.6</ele>
      </trkpt>
      <trkpt lat="36.94791" lon="28.20283">
        <ele>21.3</ele>
      </trkpt>
      <trkpt lat="36.94788" lon="28.20278">
        <ele>21.6</ele>
      </trkpt>
      <trkpt lat="36.94783" lon="28.20275">
        <ele>22.2</ele>
      </trkpt>
      <trkpt lat="36.94779" lon="28.2027">
        <ele>22.8</ele>
      </trkpt>
      <trkpt lat="36.94776" lon="28.20265">
        <ele>23.1</ele>
      </trkpt>
      <trkpt lat="36.94774" lon="28.20259">
        <ele>23.1</ele>
      </trkpt>
      <trkpt lat="36.94773" lon="28.20253">
        <ele>22.9</ele>
      </trkpt>
      <trkpt lat="36.94775" lon="28.20247">
        <ele>22.2</ele>
      </trkpt>
      <trkpt lat="36.94776" lon="28.2024">
        <ele>22</ele>
      </trkpt>
      <trkpt lat="36.94778" lon="28.20235">
        <ele>21.5</ele>
      </trkpt>
      <trkpt lat="36.94781" lon="28.20228">
        <ele>21</ele>
      </trkpt>
      <trkpt lat="36.94783" lon="28.20224">
        <ele>20.5</ele>
      </trkpt>
      <trkpt lat="36.94786" lon="28.20218">
        <ele>19.9</ele>
      </trkpt>
      <trkpt lat="36.94788" lon="28.20212">
        <ele>19.5</ele>
      </trkpt>
      <trkpt lat="36.94791" lon="28.20208">
        <ele>18.9</ele>
      </trkpt>
      <trkpt lat="36.94796" lon="28.20204">
        <ele>17.9</ele>
      </trkpt>
      <trkpt lat="36.94799" lon="28.202">
        <ele>17.3</ele>
      </trkpt>
      <trkpt lat="36.94802" lon="28.20195">
        <ele>16.9</ele>
      </trkpt>
      <trkpt lat="36.94804" lon="28.20188">
        <ele>16.6</ele>
      </trkpt>
      <trkpt lat="36.94807" lon="28.20184">
        <ele>16.1</ele>
      </trkpt>
      <trkpt lat="36.94808" lon="28.20178">
        <ele>16</ele>
      </trkpt>
      <trkpt lat="36.9481" lon="28.20171">
        <ele>15.9</ele>
      </trkpt>
      <trkpt lat="36.94812" lon="28.20165">
        <ele>15.5</ele>
      </trkpt>
      <trkpt lat="36.94813" lon="28.20158">
        <ele>14.9</ele>
      </trkpt>
      <trkpt lat="36.94814" lon="28.20151">
        <ele>14.4</ele>
      </trkpt>
      <trkpt lat="36.94815" lon="28.20145">
        <ele>13.8</ele>
      </trkpt>
      <trkpt lat="36.94814" lon="28.20138">
        <ele>13.7</ele>
      </trkpt>
      <trkpt lat="36.94815" lon="28.20131">
        <ele>13.1</ele>
      </trkpt>
      <trkpt lat="36.94813" lon="28.20126">
        <ele>13.1</ele>
      </trkpt>
      <trkpt lat="36.94813" lon="28.2012">
        <ele>12.7</ele>
      </trkpt>
      <trkpt lat="36.94813" lon="28.20114">
        <ele>12.5</ele>
      </trkpt>
      <trkpt lat="36.94811" lon="28.20107">
        <ele>12.4</ele>
      </trkpt>
      <trkpt lat="36.94808" lon="28.20102">
        <ele>12.4</ele>
      </trkpt>
      <trkpt lat="36.94805" lon="28.20097">
        <ele>12.6</ele>
      </trkpt>
      <trkpt lat="36.94802" lon="28.20093">
        <ele>12.7</ele>
      </trkpt>
      <trkpt lat="36.94798" lon="28.20089">
        <ele>13</ele>
      </trkpt>
      <trkpt lat="36.94793" lon="28.20085">
        <ele>13.4</ele>
      </trkpt>
      <trkpt lat="36.94788" lon="28.20082">
        <ele>14.1</ele>
      </trkpt>
      <trkpt lat="36.94784" lon="28.20079">
        <ele>14.9</ele>
      </trkpt>
      <trkpt lat="36.9478" lon="28.20076">
        <ele>15.7</ele>
      </trkpt>
      <trkpt lat="36.94775" lon="28.20075">
        <ele>16.5</ele>
      </trkpt>
      <trkpt lat="36.94771" lon="28.20072">
        <ele>17.3</ele>
      </trkpt>
      <trkpt lat="36.9477" lon="28.20066">
        <ele>18</ele>
      </trkpt>
      <trkpt lat="36.94773" lon="28.20061">
        <ele>18</ele>
      </trkpt>
      <trkpt lat="36.94777" lon="28.20058">
        <ele>17.6</ele>
      </trkpt>
      <trkpt lat="36.94781" lon="28.20054">
        <ele>17.2</ele>
      </trkpt>
      <trkpt lat="36.94785" lon="28.20049">
        <ele>16.7</ele>
      </trkpt>
      <trkpt lat="36.94789" lon="28.20045">
        <ele>16.3</ele>
      </trkpt>
      <trkpt lat="36.94793" lon="28.20041">
        <ele>15.9</ele>
      </trkpt>
      <trkpt lat="36.94796" lon="28.20036">
        <ele>15.4</ele>
      </trkpt>
      <trkpt lat="36.948" lon="28.20032">
        <ele>14.9</ele>
      </trkpt>
      <trkpt lat="36.94803" lon="28.20027">
        <ele>14.2</ele>
      </trkpt>
      <trkpt lat="36.94807" lon="28.20022">
        <ele>13.6</ele>
      </trkpt>
      <trkpt lat="36.9481" lon="28.20017">
        <ele>13</ele>
      </trkpt>
      <trkpt lat="36.94814" lon="28.20013">
        <ele>12.1</ele>
      </trkpt>
      <trkpt lat="36.94817" lon="28.20008">
        <ele>11.4</ele>
      </trkpt>
      <trkpt lat="36.9482" lon="28.20003">
        <ele>10.8</ele>
      </trkpt>
      <trkpt lat="36.94823" lon="28.19998">
        <ele>10</ele>
      </trkpt>
      <trkpt lat="36.94826" lon="28.19993">
        <ele>9.5</ele>
      </trkpt>
      <trkpt lat="36.94829" lon="28.19988">
        <ele>9.2</ele>
      </trkpt>
      <trkpt lat="36.94831" lon="28.19982">
        <ele>8.9</ele>
      </trkpt>
      <trkpt lat="36.94833" lon="28.19976">
        <ele>8.8</ele>
      </trkpt>
      <trkpt lat="36.94837" lon="28.19972">
        <ele>9</ele>
      </trkpt>
      <trkpt lat="36.94838" lon="28.19966">
        <ele>9.5</ele>
      </trkpt>
      <trkpt lat="36.9484" lon="28.1996">
        <ele>9.9</ele>
      </trkpt>
      <trkpt lat="36.94842" lon="28.19954">
        <ele>10.3</ele>
      </trkpt>
      <trkpt lat="36.94844" lon="28.19948">
        <ele>10.7</ele>
      </trkpt>
      <trkpt lat="36.94846" lon="28.19942">
        <ele>11.2</ele>
      </trkpt>
      <trkpt lat="36.94846" lon="28.19935">
        <ele>11.7</ele>
      </trkpt>
      <trkpt lat="36.94849" lon="28.19929">
        <ele>12.1</ele>
      </trkpt>
      <trkpt lat="36.9485" lon="28.19923">
        <ele>12.5</ele>
      </trkpt>
      <trkpt lat="36.94854" lon="28.19917">
        <ele>13</ele>
      </trkpt>
      <trkpt lat="36.94855" lon="28.19911">
        <ele>12.7</ele>
      </trkpt>
      <trkpt lat="36.94855" lon="28.19905">
        <ele>12.4</ele>
      </trkpt>
      <trkpt lat="36.94857" lon="28.19899">
        <ele>12.1</ele>
      </trkpt>
      <trkpt lat="36.94858" lon="28.19893">
        <ele>11.8</ele>
      </trkpt>
      <trkpt lat="36.94858" lon="28.19886">
        <ele>11.5</ele>
      </trkpt>
      <trkpt lat="36.94858" lon="28.19878">
        <ele>11.2</ele>
      </trkpt>
      <trkpt lat="36.94857" lon="28.19872">
        <ele>10.8</ele>
      </trkpt>
      <trkpt lat="36.94855" lon="28.19866">
        <ele>10.6</ele>
      </trkpt>
      <trkpt lat="36.94852" lon="28.19862">
        <ele>10.4</ele>
      </trkpt>
      <trkpt lat="36.9485" lon="28.19856">
        <ele>10.1</ele>
      </trkpt>
      <trkpt lat="36.94847" lon="28.19852">
        <ele>9.9</ele>
      </trkpt>
      <trkpt lat="36.94845" lon="28.19847">
        <ele>9.6</ele>
      </trkpt>
      <trkpt lat="36.94843" lon="28.19841">
        <ele>9.4</ele>
      </trkpt>
      <trkpt lat="36.94842" lon="28.19836">
        <ele>9.1</ele>
      </trkpt>
      <trkpt lat="36.94838" lon="28.19833">
        <ele>8.9</ele>
      </trkpt>
      <trkpt lat="36.94834" lon="28.19829">
        <ele>8.5</ele>
      </trkpt>
      <trkpt lat="36.94831" lon="28.19823">
        <ele>8.6</ele>
      </trkpt>
      <trkpt lat="36.94828" lon="28.19817">
        <ele>8.7</ele>
      </trkpt>
      <trkpt lat="36.94825" lon="28.19813">
        <ele>9</ele>
      </trkpt>
      <trkpt lat="36.94823" lon="28.19807">
        <ele>9</ele>
      </trkpt>
      <trkpt lat="36.9482" lon="28.19802">
        <ele>9.3</ele>
      </trkpt>
      <trkpt lat="36.94816" lon="28.19797">
        <ele>9.5</ele>
      </trkpt>
      <trkpt lat="36.94815" lon="28.19791">
        <ele>9.2</ele>
      </trkpt>
      <trkpt lat="36.94812" lon="28.19784">
        <ele>9.5</ele>
      </trkpt>
      <trkpt lat="36.94809" lon="28.19779">
        <ele>9.7</ele>
      </trkpt>
      <trkpt lat="36.94805" lon="28.19777">
        <ele>10.6</ele>
      </trkpt>
      <trkpt lat="36.94801" lon="28.19774">
        <ele>11.3</ele>
      </trkpt>
      <trkpt lat="36.94795" lon="28.19776">
        <ele>12.9</ele>
      </trkpt>
      <trkpt lat="36.94792" lon="28.19771">
        <ele>13.1</ele>
      </trkpt>
      <trkpt lat="36.94787" lon="28.1977">
        <ele>14.3</ele>
      </trkpt>
      <trkpt lat="36.94782" lon="28.19769">
        <ele>15.4</ele>
      </trkpt>
      <trkpt lat="36.94778" lon="28.19765">
        <ele>16.2</ele>
      </trkpt>
      <trkpt lat="36.94773" lon="28.19765">
        <ele>17.5</ele>
      </trkpt>
      <trkpt lat="36.94767" lon="28.19762">
        <ele>18.7</ele>
      </trkpt>
      <trkpt lat="36.94767" lon="28.19756">
        <ele>18.2</ele>
      </trkpt>
      <trkpt lat="36.9477" lon="28.19751">
        <ele>17</ele>
      </trkpt>
      <trkpt lat="36.94773" lon="28.19746">
        <ele>16.6</ele>
      </trkpt>
      <trkpt lat="36.94777" lon="28.19741">
        <ele>16.4</ele>
      </trkpt>
      <trkpt lat="36.94778" lon="28.19735">
        <ele>16.8</ele>
      </trkpt>
      <trkpt lat="36.9478" lon="28.1973">
        <ele>17</ele>
      </trkpt>
      <trkpt lat="36.94782" lon="28.19724">
        <ele>17.5</ele>
      </trkpt>
      <trkpt lat="36.94778" lon="28.19719">
        <ele>18.6</ele>
      </trkpt>
      <trkpt lat="36.94777" lon="28.19713">
        <ele>19.5</ele>
      </trkpt>
      <trkpt lat="36.94775" lon="28.19708">
        <ele>20.3</ele>
      </trkpt>
      <trkpt lat="36.94771" lon="28.19704">
        <ele>21.3</ele>
      </trkpt>
      <trkpt lat="36.94769" lon="28.19698">
        <ele>22.1</ele>
      </trkpt>
      <trkpt lat="36.94764" lon="28.19695">
        <ele>22.7</ele>
      </trkpt>
      <trkpt lat="36.94759" lon="28.19694">
        <ele>23.3</ele>
      </trkpt>
      <trkpt lat="36.94755" lon="28.19692">
        <ele>23.7</ele>
      </trkpt>
      <trkpt lat="36.94752" lon="28.19687">
        <ele>24.1</ele>
      </trkpt>
      <trkpt lat="36.94749" lon="28.19682">
        <ele>24.8</ele>
      </trkpt>
      <trkpt lat="36.94747" lon="28.19676">
        <ele>25.9</ele>
      </trkpt>
      <trkpt lat="36.94746" lon="28.1967">
        <ele>26.4</ele>
      </trkpt>
      <trkpt lat="36.94743" lon="28.19666">
        <ele>27.7</ele>
      </trkpt>
      <trkpt lat="36.94738" lon="28.19665">
        <ele>29.4</ele>
      </trkpt>
      <trkpt lat="36.94735" lon="28.1966">
        <ele>30.7</ele>
      </trkpt>
      <trkpt lat="36.94731" lon="28.19655">
        <ele>32.2</ele>
      </trkpt>
      <trkpt lat="36.94727" lon="28.19651">
        <ele>33.9</ele>
      </trkpt>
      <trkpt lat="36.94724" lon="28.19646">
        <ele>35.1</ele>
      </trkpt>
      <trkpt lat="36.94721" lon="28.19643">
        <ele>36.5</ele>
      </trkpt>
      <trkpt lat="36.94719" lon="28.19637">
        <ele>37.5</ele>
      </trkpt>
      <trkpt lat="36.94715" lon="28.19632">
        <ele>38.8</ele>
      </trkpt>
      <trkpt lat="36.94711" lon="28.19629">
        <ele>40.2</ele>
      </trkpt>
      <trkpt lat="36.94707" lon="28.19628">
        <ele>41.7</ele>
      </trkpt>
      <trkpt lat="36.94702" lon="28.19626">
        <ele>43.2</ele>
      </trkpt>
      <trkpt lat="36.94699" lon="28.19622">
        <ele>44.3</ele>
      </trkpt>
      <trkpt lat="36.94695" lon="28.19617">
        <ele>45.7</ele>
      </trkpt>
      <trkpt lat="36.94695" lon="28.19611">
        <ele>46.1</ele>
      </trkpt>
      <trkpt lat="36.94691" lon="28.19605">
        <ele>47.2</ele>
      </trkpt>
      <trkpt lat="36.94689" lon="28.196">
        <ele>47.9</ele>
      </trkpt>
      <trkpt lat="36.94689" lon="28.19594">
        <ele>48.3</ele>
      </trkpt>
      <trkpt lat="36.94687" lon="28.19588">
        <ele>48.8</ele>
      </trkpt>
      <trkpt lat="36.94683" lon="28.19584">
        <ele>50</ele>
      </trkpt>
      <trkpt lat="36.94679" lon="28.1958">
        <ele>51.2</ele>
      </trkpt>
      <trkpt lat="36.94675" lon="28.19577">
        <ele>52.2</ele>
      </trkpt>
      <trkpt lat="36.9467" lon="28.19574">
        <ele>53.7</ele>
      </trkpt>
      <trkpt lat="36.94666" lon="28.1957">
        <ele>54.7</ele>
      </trkpt>
      <trkpt lat="36.94662" lon="28.19567">
        <ele>55.6</ele>
      </trkpt>
      <trkpt lat="36.94659" lon="28.19562">
        <ele>56</ele>
      </trkpt>
      <trkpt lat="36.94655" lon="28.19557">
        <ele>56.8</ele>
      </trkpt>
      <trkpt lat="36.9465" lon="28.19554">
        <ele>57.8</ele>
      </trkpt>
      <trkpt lat="36.94647" lon="28.1955">
        <ele>58.4</ele>
      </trkpt>
      <trkpt lat="36.94643" lon="28.19547">
        <ele>59.2</ele>
      </trkpt>
      <trkpt lat="36.94639" lon="28.19543">
        <ele>59.9</ele>
      </trkpt>
      <trkpt lat="36.94635" lon="28.19539">
        <ele>60.6</ele>
      </trkpt>
      <trkpt lat="36.94631" lon="28.19534">
        <ele>61.2</ele>
      </trkpt>
      <trkpt lat="36.94629" lon="28.19529">
        <ele>61.5</ele>
      </trkpt>
      <trkpt lat="36.94625" lon="28.19526">
        <ele>62.3</ele>
      </trkpt>
      <trkpt lat="36.94623" lon="28.1952">
        <ele>62.4</ele>
      </trkpt>
      <trkpt lat="36.9462" lon="28.19515">
        <ele>62.9</ele>
      </trkpt>
      <trkpt lat="36.94615" lon="28.19514">
        <ele>64</ele>
      </trkpt>
      <trkpt lat="36.94611" lon="28.19511">
        <ele>64.7</ele>
      </trkpt>
      <trkpt lat="36.94609" lon="28.19506">
        <ele>65</ele>
      </trkpt>
      <trkpt lat="36.94606" lon="28.19501">
        <ele>65.4</ele>
      </trkpt>
      <trkpt lat="36.94603" lon="28.19496">
        <ele>65</ele>
      </trkpt>
      <trkpt lat="36.94599" lon="28.19493">
        <ele>65.1</ele>
      </trkpt>
      <trkpt lat="36.94597" lon="28.19488">
        <ele>64.4</ele>
      </trkpt>
      <trkpt lat="36.94597" lon="28.19481">
        <ele>62.7</ele>
      </trkpt>
      <trkpt lat="36.94594" lon="28.19476">
        <ele>61.9</ele>
      </trkpt>
      <trkpt lat="36.94594" lon="28.19469">
        <ele>60.5</ele>
      </trkpt>
      <trkpt lat="36.94596" lon="28.19465">
        <ele>58.8</ele>
      </trkpt>
      <trkpt lat="36.94595" lon="28.19459">
        <ele>57.7</ele>
      </trkpt>
      <trkpt lat="36.94595" lon="28.19453">
        <ele>56.3</ele>
      </trkpt>
      <trkpt lat="36.94593" lon="28.19447">
        <ele>55</ele>
      </trkpt>
      <trkpt lat="36.94588" lon="28.19442">
        <ele>54.8</ele>
      </trkpt>
      <trkpt lat="36.94583" lon="28.19441">
        <ele>55.1</ele>
      </trkpt>
      <trkpt lat="36.94579" lon="28.19438">
        <ele>54.5</ele>
      </trkpt>
      <trkpt lat="36.94574" lon="28.19438">
        <ele>54.5</ele>
      </trkpt>
      <trkpt lat="36.94568" lon="28.19439">
        <ele>54.9</ele>
      </trkpt>
      <trkpt lat="36.94564" lon="28.19438">
        <ele>54.8</ele>
      </trkpt>
      <trkpt lat="36.94558" lon="28.19436">
        <ele>54.3</ele>
      </trkpt>
      <trkpt lat="36.94554" lon="28.19438">
        <ele>55</ele>
      </trkpt>
      <trkpt lat="36.94549" lon="28.19438">
        <ele>55</ele>
      </trkpt>
      <trkpt lat="36.94544" lon="28.19436">
        <ele>54.4</ele>
      </trkpt>
      <trkpt lat="36.9454" lon="28.19431">
        <ele>52.9</ele>
      </trkpt>
      <trkpt lat="36.94534" lon="28.1943">
        <ele>52.4</ele>
      </trkpt>
      <trkpt lat="36.94531" lon="28.19426">
        <ele>50.7</ele>
      </trkpt>
      <trkpt lat="36.94525" lon="28.19424">
        <ele>49.9</ele>
      </trkpt>
      <trkpt lat="36.94522" lon="28.1942">
        <ele>48.1</ele>
      </trkpt>
      <trkpt lat="36.94517" lon="28.19419">
        <ele>47.8</ele>
      </trkpt>
      <trkpt lat="36.94521" lon="28.19422">
        <ele>48.8</ele>
      </trkpt>
      <trkpt lat="36.94515" lon="28.19418">
        <ele>47.2</ele>
      </trkpt>
      <trkpt lat="36.94508" lon="28.19418">
        <ele>46.7</ele>
      </trkpt>
      <trkpt lat="36.94504" lon="28.19415">
        <ele>45.2</ele>
      </trkpt>
      <trkpt lat="36.94499" lon="28.19411">
        <ele>43.2</ele>
      </trkpt>
      <trkpt lat="36.94494" lon="28.19413">
        <ele>43.4</ele>
      </trkpt>
      <trkpt lat="36.9449" lon="28.19412">
        <ele>42.6</ele>
      </trkpt>
      <trkpt lat="36.94485" lon="28.19412">
        <ele>42</ele>
      </trkpt>
      <trkpt lat="36.9448" lon="28.19411">
        <ele>40.8</ele>
      </trkpt>
      <trkpt lat="36.94475" lon="28.1941">
        <ele>39.7</ele>
      </trkpt>
      <trkpt lat="36.9447" lon="28.19409">
        <ele>38.7</ele>
      </trkpt>
      <trkpt lat="36.94465" lon="28.1941">
        <ele>38.7</ele>
      </trkpt>
      <trkpt lat="36.9446" lon="28.19409">
        <ele>37.5</ele>
      </trkpt>
      <trkpt lat="36.94457" lon="28.19415">
        <ele>39.7</ele>
      </trkpt>
      <trkpt lat="36.94453" lon="28.19418">
        <ele>40.5</ele>
      </trkpt>
      <trkpt lat="36.94447" lon="28.1942">
        <ele>40.9</ele>
      </trkpt>
      <trkpt lat="36.94443" lon="28.19418">
        <ele>39.2</ele>
      </trkpt>
      <trkpt lat="36.9444" lon="28.19413">
        <ele>36.8</ele>
      </trkpt>
      <trkpt lat="36.94436" lon="28.19413">
        <ele>36.2</ele>
      </trkpt>
      <trkpt lat="36.94431" lon="28.19413">
        <ele>35.6</ele>
      </trkpt>
      <trkpt lat="36.94426" lon="28.19415">
        <ele>35.5</ele>
      </trkpt>
      <trkpt lat="36.94422" lon="28.19412">
        <ele>34</ele>
      </trkpt>
      <trkpt lat="36.94417" lon="28.1941">
        <ele>32.8</ele>
      </trkpt>
      <trkpt lat="36.94413" lon="28.1941">
        <ele>32.4</ele>
      </trkpt>
      <trkpt lat="36.94408" lon="28.19411">
        <ele>32.3</ele>
      </trkpt>
      <trkpt lat="36.94403" lon="28.1941">
        <ele>31.9</ele>
      </trkpt>
      <trkpt lat="36.94399" lon="28.19408">
        <ele>30.8</ele>
      </trkpt>
      <trkpt lat="36.94395" lon="28.19407">
        <ele>30.2</ele>
      </trkpt>
      <trkpt lat="36.9439" lon="28.19405">
        <ele>29.2</ele>
      </trkpt>
      <trkpt lat="36.94385" lon="28.19405">
        <ele>29.1</ele>
      </trkpt>
      <trkpt lat="36.94382" lon="28.19401">
        <ele>27.4</ele>
      </trkpt>
      <trkpt lat="36.94378" lon="28.19401">
        <ele>27.2</ele>
      </trkpt>
      <trkpt lat="36.94372" lon="28.19399">
        <ele>26.4</ele>
      </trkpt>
      <trkpt lat="36.94368" lon="28.19399">
        <ele>26.1</ele>
      </trkpt>
      <trkpt lat="36.94363" lon="28.19398">
        <ele>25.4</ele>
      </trkpt>
      <trkpt lat="36.94358" lon="28.19395">
        <ele>24.2</ele>
      </trkpt>
      <trkpt lat="36.94354" lon="28.19393">
        <ele>23.4</ele>
      </trkpt>
      <trkpt lat="36.94349" lon="28.19392">
        <ele>22.9</ele>
      </trkpt>
      <trkpt lat="36.94343" lon="28.19393">
        <ele>22.7</ele>
      </trkpt>
      <trkpt lat="36.94338" lon="28.19391">
        <ele>21.9</ele>
      </trkpt>
      <trkpt lat="36.94334" lon="28.19389">
        <ele>21.1</ele>
      </trkpt>
      <trkpt lat="36.94329" lon="28.1939">
        <ele>21.4</ele>
      </trkpt>
      <trkpt lat="36.94326" lon="28.19386">
        <ele>20.3</ele>
      </trkpt>
      <trkpt lat="36.94322" lon="28.19382">
        <ele>19.6</ele>
      </trkpt>
      <trkpt lat="36.94318" lon="28.19379">
        <ele>18.8</ele>
      </trkpt>
      <trkpt lat="36.94314" lon="28.19375">
        <ele>17.9</ele>
      </trkpt>
      <trkpt lat="36.94309" lon="28.19374">
        <ele>17.8</ele>
      </trkpt>
      <trkpt lat="36.94304" lon="28.19376">
        <ele>18.7</ele>
      </trkpt>
      <trkpt lat="36.94299" lon="28.19377">
        <ele>19</ele>
      </trkpt>
      <trkpt lat="36.94294" lon="28.19376">
        <ele>19</ele>
      </trkpt>
      <trkpt lat="36.94289" lon="28.19378">
        <ele>19.8</ele>
      </trkpt>
      <trkpt lat="36.94285" lon="28.19381">
        <ele>20.7</ele>
      </trkpt>
      <trkpt lat="36.9428" lon="28.19378">
        <ele>20.3</ele>
      </trkpt>
      <trkpt lat="36.94276" lon="28.19378">
        <ele>20.4</ele>
      </trkpt>
      <trkpt lat="36.94271" lon="28.19374">
        <ele>19.7</ele>
      </trkpt>
      <trkpt lat="36.94267" lon="28.19371">
        <ele>19.4</ele>
      </trkpt>
      <trkpt lat="36.94263" lon="28.19369">
        <ele>19.1</ele>
      </trkpt>
      <trkpt lat="36.94257" lon="28.1937">
        <ele>19.7</ele>
      </trkpt>
      <trkpt lat="36.94253" lon="28.19368">
        <ele>19.4</ele>
      </trkpt>
      <trkpt lat="36.94248" lon="28.19367">
        <ele>19.6</ele>
      </trkpt>
      <trkpt lat="36.94244" lon="28.19366">
        <ele>20</ele>
      </trkpt>
      <trkpt lat="36.9424" lon="28.19361">
        <ele>19.4</ele>
      </trkpt>
      <trkpt lat="36.94239" lon="28.19355">
        <ele>18.6</ele>
      </trkpt>
      <trkpt lat="36.94239" lon="28.1935">
        <ele>17.5</ele>
      </trkpt>
      <trkpt lat="36.94238" lon="28.19344">
        <ele>16.5</ele>
      </trkpt>
      <trkpt lat="36.94234" lon="28.1934">
        <ele>16.3</ele>
      </trkpt>
      <trkpt lat="36.9423" lon="28.19338">
        <ele>16.2</ele>
      </trkpt>
      <trkpt lat="36.94227" lon="28.19332">
        <ele>15.6</ele>
      </trkpt>
      <trkpt lat="36.94225" lon="28.19325">
        <ele>14.9</ele>
      </trkpt>
      <trkpt lat="36.94225" lon="28.19319">
        <ele>14.2</ele>
      </trkpt>
      <trkpt lat="36.94221" lon="28.19314">
        <ele>14</ele>
      </trkpt>
      <trkpt lat="36.94218" lon="28.19309">
        <ele>13.6</ele>
      </trkpt>
      <trkpt lat="36.94214" lon="28.19307">
        <ele>13.9</ele>
      </trkpt>
      <trkpt lat="36.94219" lon="28.19307">
        <ele>13.3</ele>
      </trkpt>
      <trkpt lat="36.94215" lon="28.19311">
        <ele>14.3</ele>
      </trkpt>
      <trkpt lat="36.94218" lon="28.19305">
        <ele>13.3</ele>
      </trkpt>
      <trkpt lat="36.94215" lon="28.19301">
        <ele>13.1</ele>
      </trkpt>
      <trkpt lat="36.94212" lon="28.19296">
        <ele>12.8</ele>
      </trkpt>
      <trkpt lat="36.94212" lon="28.1929">
        <ele>12.1</ele>
      </trkpt>
      <trkpt lat="36.94209" lon="28.19285">
        <ele>11.8</ele>
      </trkpt>
      <trkpt lat="36.94206" lon="28.19281">
        <ele>11.7</ele>
      </trkpt>
      <trkpt lat="36.94203" lon="28.19275">
        <ele>11.4</ele>
      </trkpt>
      <trkpt lat="36.94201" lon="28.19269">
        <ele>10.8</ele>
      </trkpt>
      <trkpt lat="36.94198" lon="28.19264">
        <ele>10.6</ele>
      </trkpt>
      <trkpt lat="36.94199" lon="28.19258">
        <ele>9.8</ele>
      </trkpt>
      <trkpt lat="36.94195" lon="28.19252">
        <ele>9.5</ele>
      </trkpt>
      <trkpt lat="36.94195" lon="28.19246">
        <ele>8.9</ele>
      </trkpt>
      <trkpt lat="36.94191" lon="28.19241">
        <ele>8.9</ele>
      </trkpt>
      <trkpt lat="36.94188" lon="28.19236">
        <ele>8.7</ele>
      </trkpt>
      <trkpt lat="36.94182" lon="28.19233">
        <ele>8.9</ele>
      </trkpt>
      <trkpt lat="36.94177" lon="28.19234">
        <ele>9.6</ele>
      </trkpt>
      <trkpt lat="36.94172" lon="28.19232">
        <ele>9.9</ele>
      </trkpt>
      <trkpt lat="36.94168" lon="28.1923">
        <ele>9.9</ele>
      </trkpt>
      <trkpt lat="36.94165" lon="28.19225">
        <ele>9.6</ele>
      </trkpt>
      <trkpt lat="36.94165" lon="28.19219">
        <ele>8.8</ele>
      </trkpt>
      <trkpt lat="36.94161" lon="28.19215">
        <ele>8.6</ele>
      </trkpt>
      <trkpt lat="36.94157" lon="28.19212">
        <ele>8.7</ele>
      </trkpt>
      <trkpt lat="36.94153" lon="28.1921">
        <ele>9</ele>
      </trkpt>
      <trkpt lat="36.94149" lon="28.19208">
        <ele>9.1</ele>
      </trkpt>
      <trkpt lat="36.94145" lon="28.19204">
        <ele>9</ele>
      </trkpt>
      <trkpt lat="36.94141" lon="28.19203">
        <ele>9.5</ele>
      </trkpt>
      <trkpt lat="36.94137" lon="28.192">
        <ele>9.6</ele>
      </trkpt>
      <trkpt lat="36.94132" lon="28.192">
        <ele>10.1</ele>
      </trkpt>
      <trkpt lat="36.94127" lon="28.19195">
        <ele>10</ele>
      </trkpt>
      <trkpt lat="36.94123" lon="28.19191">
        <ele>9.9</ele>
      </trkpt>
      <trkpt lat="36.94118" lon="28.19189">
        <ele>10.3</ele>
      </trkpt>
      <trkpt lat="36.94113" lon="28.19189">
        <ele>10.9</ele>
      </trkpt>
      <trkpt lat="36.94107" lon="28.19191">
        <ele>11.8</ele>
      </trkpt>
      <trkpt lat="36.94102" lon="28.19191">
        <ele>12.4</ele>
      </trkpt>
      <trkpt lat="36.94097" lon="28.19191">
        <ele>13.1</ele>
      </trkpt>
      <trkpt lat="36.94093" lon="28.19192">
        <ele>13.8</ele>
      </trkpt>
      <trkpt lat="36.94088" lon="28.19192">
        <ele>14.5</ele>
      </trkpt>
      <trkpt lat="36.94083" lon="28.19192">
        <ele>14.9</ele>
      </trkpt>
      <trkpt lat="36.94079" lon="28.19188">
        <ele>14.4</ele>
      </trkpt>
      <trkpt lat="36.94076" lon="28.19184">
        <ele>13.7</ele>
      </trkpt>
      <trkpt lat="36.94073" lon="28.19178">
        <ele>12.8</ele>
      </trkpt>
      <trkpt lat="36.9407" lon="28.19174">
        <ele>12.2</ele>
      </trkpt>
      <trkpt lat="36.94067" lon="28.19169">
        <ele>11.5</ele>
      </trkpt>
      <trkpt lat="36.94064" lon="28.19165">
        <ele>11.2</ele>
      </trkpt>
      <trkpt lat="36.9406" lon="28.19162">
        <ele>11.2</ele>
      </trkpt>
      <trkpt lat="36.94055" lon="28.1916">
        <ele>11.2</ele>
      </trkpt>
      <trkpt lat="36.94054" lon="28.19165">
        <ele>11.3</ele>
      </trkpt>
      <trkpt lat="36.94051" lon="28.19171">
        <ele>12</ele>
      </trkpt>
      <trkpt lat="36.94046" lon="28.19175">
        <ele>12.6</ele>
      </trkpt>
      <trkpt lat="36.94042" lon="28.19177">
        <ele>13</ele>
      </trkpt>
      <trkpt lat="36.94037" lon="28.19181">
        <ele>13.7</ele>
      </trkpt>
      <trkpt lat="36.94033" lon="28.19185">
        <ele>14.4</ele>
      </trkpt>
      <trkpt lat="36.94028" lon="28.19188">
        <ele>14.8</ele>
      </trkpt>
      <trkpt lat="36.94023" lon="28.19189">
        <ele>15</ele>
      </trkpt>
      <trkpt lat="36.94019" lon="28.1919">
        <ele>15.2</ele>
      </trkpt>
      <trkpt lat="36.94014" lon="28.19191">
        <ele>15.4</ele>
      </trkpt>
      <trkpt lat="36.94009" lon="28.19191">
        <ele>15.5</ele>
      </trkpt>
      <trkpt lat="36.94004" lon="28.19193">
        <ele>15.8</ele>
      </trkpt>
      <trkpt lat="36.94" lon="28.19196">
        <ele>16.3</ele>
      </trkpt>
      <trkpt lat="36.93995" lon="28.19199">
        <ele>16.5</ele>
      </trkpt>
      <trkpt lat="36.9399" lon="28.19204">
        <ele>17</ele>
      </trkpt>
      <trkpt lat="36.93986" lon="28.19205">
        <ele>17</ele>
      </trkpt>
      <trkpt lat="36.93982" lon="28.19209">
        <ele>17.2</ele>
      </trkpt>
      <trkpt lat="36.93978" lon="28.19212">
        <ele>17.3</ele>
      </trkpt>
      <trkpt lat="36.93974" lon="28.19216">
        <ele>17.5</ele>
      </trkpt>
      <trkpt lat="36.9397" lon="28.19219">
        <ele>17.4</ele>
      </trkpt>
      <trkpt lat="36.93967" lon="28.19225">
        <ele>17.7</ele>
      </trkpt>
      <trkpt lat="36.93963" lon="28.19231">
        <ele>17.8</ele>
      </trkpt>
      <trkpt lat="36.93959" lon="28.19235">
        <ele>17.7</ele>
      </trkpt>
      <trkpt lat="36.93955" lon="28.1924">
        <ele>17.5</ele>
      </trkpt>
      <trkpt lat="36.93952" lon="28.19246">
        <ele>17.5</ele>
      </trkpt>
      <trkpt lat="36.93951" lon="28.19251">
        <ele>17.6</ele>
      </trkpt>
      <trkpt lat="36.93947" lon="28.19256">
        <ele>18</ele>
      </trkpt>
      <trkpt lat="36.93943" lon="28.1926">
        <ele>18.1</ele>
      </trkpt>
      <trkpt lat="36.93939" lon="28.19264">
        <ele>18.2</ele>
      </trkpt>
      <trkpt lat="36.93935" lon="28.19268">
        <ele>18.3</ele>
      </trkpt>
      <trkpt lat="36.9393" lon="28.19272">
        <ele>18.5</ele>
      </trkpt>
      <trkpt lat="36.93926" lon="28.19277">
        <ele>18.8</ele>
      </trkpt>
      <trkpt lat="36.93923" lon="28.19281">
        <ele>19</ele>
      </trkpt>
      <trkpt lat="36.93919" lon="28.19286">
        <ele>19.3</ele>
      </trkpt>
      <trkpt lat="36.93914" lon="28.19289">
        <ele>19.4</ele>
      </trkpt>
      <trkpt lat="36.9391" lon="28.19294">
        <ele>19.7</ele>
      </trkpt>
      <trkpt lat="36.93905" lon="28.19298">
        <ele>19.8</ele>
      </trkpt>
      <trkpt lat="36.939" lon="28.19301">
        <ele>19.7</ele>
      </trkpt>
      <trkpt lat="36.93896" lon="28.19304">
        <ele>19.5</ele>
      </trkpt>
      <trkpt lat="36.93891" lon="28.19307">
        <ele>19.3</ele>
      </trkpt>
      <trkpt lat="36.93886" lon="28.1931">
        <ele>19.1</ele>
      </trkpt>
      <trkpt lat="36.93881" lon="28.19312">
        <ele>18.6</ele>
      </trkpt>
      <trkpt lat="36.93876" lon="28.19314">
        <ele>18.2</ele>
      </trkpt>
      <trkpt lat="36.93871" lon="28.19316">
        <ele>17.6</ele>
      </trkpt>
      <trkpt lat="36.93867" lon="28.19319">
        <ele>17.3</ele>
      </trkpt>
      <trkpt lat="36.93863" lon="28.19324">
        <ele>17.3</ele>
      </trkpt>
      <trkpt lat="36.93859" lon="28.19328">
        <ele>16.9</ele>
      </trkpt>
      <trkpt lat="36.93856" lon="28.19333">
        <ele>16.8</ele>
      </trkpt>
      <trkpt lat="36.93853" lon="28.19337">
        <ele>16.7</ele>
      </trkpt>
      <trkpt lat="36.93849" lon="28.19342">
        <ele>16.6</ele>
      </trkpt>
      <trkpt lat="36.93848" lon="28.19348">
        <ele>16.9</ele>
      </trkpt>
      <trkpt lat="36.93846" lon="28.19353">
        <ele>17.2</ele>
      </trkpt>
      <trkpt lat="36.93844" lon="28.19359">
        <ele>17.3</ele>
      </trkpt>
      <trkpt lat="36.93844" lon="28.19365">
        <ele>17.7</ele>
      </trkpt>
      <trkpt lat="36.93842" lon="28.19371">
        <ele>18.1</ele>
      </trkpt>
      <trkpt lat="36.93841" lon="28.19378">
        <ele>18.4</ele>
      </trkpt>
      <trkpt lat="36.93839" lon="28.19385">
        <ele>18.7</ele>
      </trkpt>
      <trkpt lat="36.93837" lon="28.19391">
        <ele>18.8</ele>
      </trkpt>
      <trkpt lat="36.93835" lon="28.19397">
        <ele>18.8</ele>
      </trkpt>
      <trkpt lat="36.93833" lon="28.19404">
        <ele>18.9</ele>
      </trkpt>
      <trkpt lat="36.93831" lon="28.1941">
        <ele>19.3</ele>
      </trkpt>
      <trkpt lat="36.9383" lon="28.19417">
        <ele>19.7</ele>
      </trkpt>
      <trkpt lat="36.93828" lon="28.19423">
        <ele>20.5</ele>
      </trkpt>
      <trkpt lat="36.93826" lon="28.1943">
        <ele>21.3</ele>
      </trkpt>
      <trkpt lat="36.93824" lon="28.19436">
        <ele>22.1</ele>
      </trkpt>
      <trkpt lat="36.93823" lon="28.19442">
        <ele>23</ele>
      </trkpt>
      <trkpt lat="36.93822" lon="28.19449">
        <ele>23.9</ele>
      </trkpt>
      <trkpt lat="36.93822" lon="28.19455">
        <ele>24.8</ele>
      </trkpt>
      <trkpt lat="36.93819" lon="28.19461">
        <ele>25.4</ele>
      </trkpt>
      <trkpt lat="36.93818" lon="28.19467">
        <ele>26.2</ele>
      </trkpt>
      <trkpt lat="36.93815" lon="28.19473">
        <ele>26.8</ele>
      </trkpt>
      <trkpt lat="36.93811" lon="28.19478">
        <ele>27.2</ele>
      </trkpt>
      <trkpt lat="36.93808" lon="28.19483">
        <ele>27.5</ele>
      </trkpt>
      <trkpt lat="36.93804" lon="28.19487">
        <ele>27.8</ele>
      </trkpt>
      <trkpt lat="36.938" lon="28.19489">
        <ele>27.7</ele>
      </trkpt>
      <trkpt lat="36.93796" lon="28.19492">
        <ele>27.6</ele>
      </trkpt>
      <trkpt lat="36.93791" lon="28.19493">
        <ele>27.4</ele>
      </trkpt>
      <trkpt lat="36.93786" lon="28.19494">
        <ele>27</ele>
      </trkpt>
      <trkpt lat="36.93781" lon="28.19496">
        <ele>26.7</ele>
      </trkpt>
      <trkpt lat="36.93776" lon="28.19498">
        <ele>26.5</ele>
      </trkpt>
      <trkpt lat="36.93771" lon="28.19499">
        <ele>26.2</ele>
      </trkpt>
      <trkpt lat="36.93766" lon="28.195">
        <ele>25.8</ele>
      </trkpt>
      <trkpt lat="36.93762" lon="28.19502">
        <ele>25.8</ele>
      </trkpt>
      <trkpt lat="36.93757" lon="28.19504">
        <ele>25.5</ele>
      </trkpt>
      <trkpt lat="36.93752" lon="28.19505">
        <ele>25.2</ele>
      </trkpt>
      <trkpt lat="36.93746" lon="28.19505">
        <ele>25.8</ele>
      </trkpt>
      <trkpt lat="36.93741" lon="28.19504">
        <ele>26.9</ele>
      </trkpt>
      <trkpt lat="36.93736" lon="28.19504">
        <ele>28</ele>
      </trkpt>
      <trkpt lat="36.93731" lon="28.19503">
        <ele>28.9</ele>
      </trkpt>
      <trkpt lat="36.93727" lon="28.19502">
        <ele>29.8</ele>
      </trkpt>
      <trkpt lat="36.93722" lon="28.19499">
        <ele>30.5</ele>
      </trkpt>
      <trkpt lat="36.93719" lon="28.19496">
        <ele>31.1</ele>
      </trkpt>
      <trkpt lat="36.93714" lon="28.19493">
        <ele>31.8</ele>
      </trkpt>
      <trkpt lat="36.9371" lon="28.19489">
        <ele>32.6</ele>
      </trkpt>
      <trkpt lat="36.93709" lon="28.19483">
        <ele>32.2</ele>
      </trkpt>
      <trkpt lat="36.93708" lon="28.19477">
        <ele>31.7</ele>
      </trkpt>
      <trkpt lat="36.93708" lon="28.19471">
        <ele>31.2</ele>
      </trkpt>
      <trkpt lat="36.93708" lon="28.19464">
        <ele>30.6</ele>
      </trkpt>
      <trkpt lat="36.93707" lon="28.19458">
        <ele>30.1</ele>
      </trkpt>
      <trkpt lat="36.93706" lon="28.19452">
        <ele>29.8</ele>
      </trkpt>
      <trkpt lat="36.93707" lon="28.19446">
        <ele>29</ele>
      </trkpt>
      <trkpt lat="36.93708" lon="28.1944">
        <ele>28.1</ele>
      </trkpt>
      <trkpt lat="36.93709" lon="28.19434">
        <ele>27.1</ele>
      </trkpt>
      <trkpt lat="36.9371" lon="28.19428">
        <ele>26.3</ele>
      </trkpt>
      <trkpt lat="36.9371" lon="28.19422">
        <ele>25.5</ele>
      </trkpt>
      <trkpt lat="36.93709" lon="28.19416">
        <ele>25.2</ele>
      </trkpt>
      <trkpt lat="36.93707" lon="28.1941">
        <ele>25.3</ele>
      </trkpt>
      <trkpt lat="36.93707" lon="28.19403">
        <ele>24.7</ele>
      </trkpt>
      <trkpt lat="36.93708" lon="28.19397">
        <ele>23.8</ele>
      </trkpt>
      <trkpt lat="36.93706" lon="28.19391">
        <ele>23.7</ele>
      </trkpt>
      <trkpt lat="36.93704" lon="28.19385">
        <ele>23.6</ele>
      </trkpt>
      <trkpt lat="36.93703" lon="28.19379">
        <ele>23.4</ele>
      </trkpt>
      <trkpt lat="36.93701" lon="28.19373">
        <ele>23.2</ele>
      </trkpt>
      <trkpt lat="36.93702" lon="28.19367">
        <ele>22.4</ele>
      </trkpt>
      <trkpt lat="36.93702" lon="28.19361">
        <ele>21.7</ele>
      </trkpt>
      <trkpt lat="36.93699" lon="28.19355">
        <ele>21.8</ele>
      </trkpt>
      <trkpt lat="36.937" lon="28.19349">
        <ele>21</ele>
      </trkpt>
      <trkpt lat="36.93699" lon="28.19343">
        <ele>20.5</ele>
      </trkpt>
      <trkpt lat="36.93698" lon="28.19337">
        <ele>20</ele>
      </trkpt>
      <trkpt lat="36.93698" lon="28.19332">
        <ele>19.5</ele>
      </trkpt>
      <trkpt lat="36.93696" lon="28.19326">
        <ele>19</ele>
      </trkpt>
      <trkpt lat="36.93695" lon="28.1932">
        <ele>18.5</ele>
      </trkpt>
      <trkpt lat="36.93695" lon="28.19315">
        <ele>17.9</ele>
      </trkpt>
      <trkpt lat="36.93692" lon="28.19309">
        <ele>17.6</ele>
      </trkpt>
      <trkpt lat="36.93691" lon="28.19304">
        <ele>17.1</ele>
      </trkpt>
      <trkpt lat="36.93688" lon="28.19299">
        <ele>16.7</ele>
      </trkpt>
      <trkpt lat="36.93685" lon="28.19294">
        <ele>16.5</ele>
      </trkpt>
      <trkpt lat="36.9368" lon="28.19292">
        <ele>16.6</ele>
      </trkpt>
      <trkpt lat="36.93676" lon="28.1929">
        <ele>16.7</ele>
      </trkpt>
      <trkpt lat="36.93671" lon="28.19287">
        <ele>16.7</ele>
      </trkpt>
      <trkpt lat="36.93666" lon="28.19285">
        <ele>16.8</ele>
      </trkpt>
      <trkpt lat="36.9366" lon="28.19286">
        <ele>18.1</ele>
      </trkpt>
      <trkpt lat="36.93656" lon="28.19283">
        <ele>18.6</ele>
      </trkpt>
      <trkpt lat="36.93651" lon="28.1928">
        <ele>19</ele>
      </trkpt>
      <trkpt lat="36.93647" lon="28.19278">
        <ele>19.5</ele>
      </trkpt>
      <trkpt lat="36.93642" lon="28.19275">
        <ele>20.1</ele>
      </trkpt>
      <trkpt lat="36.93636" lon="28.19276">
        <ele>21.3</ele>
      </trkpt>
      <trkpt lat="36.93632" lon="28.19274">
        <ele>22</ele>
      </trkpt>
      <trkpt lat="36.93627" lon="28.19273">
        <ele>22.8</ele>
      </trkpt>
      <trkpt lat="36.93623" lon="28.1927">
        <ele>23.4</ele>
      </trkpt>
      <trkpt lat="36.93618" lon="28.19266">
        <ele>23.9</ele>
      </trkpt>
      <trkpt lat="36.93614" lon="28.19262">
        <ele>24.2</ele>
      </trkpt>
      <trkpt lat="36.93609" lon="28.19258">
        <ele>24.8</ele>
      </trkpt>
      <trkpt lat="36.93606" lon="28.19253">
        <ele>24.9</ele>
      </trkpt>
      <trkpt lat="36.93605" lon="28.19247">
        <ele>24.7</ele>
      </trkpt>
      <trkpt lat="36.93605" lon="28.19241">
        <ele>24.4</ele>
      </trkpt>
      <trkpt lat="36.93606" lon="28.19235">
        <ele>24.1</ele>
      </trkpt>
      <trkpt lat="36.93606" lon="28.19228">
        <ele>23.8</ele>
      </trkpt>
      <trkpt lat="36.93608" lon="28.19223">
        <ele>23.2</ele>
      </trkpt>
      <trkpt lat="36.93607" lon="28.19216">
        <ele>23</ele>
      </trkpt>
      <trkpt lat="36.93609" lon="28.1921">
        <ele>22.4</ele>
      </trkpt>
      <trkpt lat="36.93611" lon="28.19203">
        <ele>21.7</ele>
      </trkpt>
      <trkpt lat="36.93611" lon="28.19196">
        <ele>21.3</ele>
      </trkpt>
      <trkpt lat="36.93614" lon="28.19191">
        <ele>20.5</ele>
      </trkpt>
      <trkpt lat="36.93614" lon="28.19185">
        <ele>20.4</ele>
      </trkpt>
      <trkpt lat="36.93615" lon="28.19178">
        <ele>19.7</ele>
      </trkpt>
      <trkpt lat="36.93619" lon="28.19172">
        <ele>18.6</ele>
      </trkpt>
      <trkpt lat="36.9362" lon="28.19166">
        <ele>18.1</ele>
      </trkpt>
      <trkpt lat="36.9362" lon="28.1916">
        <ele>17.9</ele>
      </trkpt>
      <trkpt lat="36.93621" lon="28.19154">
        <ele>17.1</ele>
      </trkpt>
      <trkpt lat="36.93621" lon="28.19148">
        <ele>16.7</ele>
      </trkpt>
      <trkpt lat="36.93623" lon="28.19141">
        <ele>15.9</ele>
      </trkpt>
      <trkpt lat="36.93624" lon="28.19135">
        <ele>15.2</ele>
      </trkpt>
      <trkpt lat="36.93625" lon="28.19129">
        <ele>14.8</ele>
      </trkpt>
      <trkpt lat="36.93626" lon="28.19123">
        <ele>14.2</ele>
      </trkpt>
      <trkpt lat="36.93626" lon="28.19116">
        <ele>13.8</ele>
      </trkpt>
      <trkpt lat="36.93627" lon="28.19109">
        <ele>13.3</ele>
      </trkpt>
      <trkpt lat="36.93622" lon="28.19106">
        <ele>13.7</ele>
      </trkpt>
      <trkpt lat="36.9362" lon="28.191">
        <ele>13.7</ele>
      </trkpt>
      <trkpt lat="36.93617" lon="28.19095">
        <ele>13.6</ele>
      </trkpt>
      <trkpt lat="36.93614" lon="28.1909">
        <ele>13.5</ele>
      </trkpt>
      <trkpt lat="36.93611" lon="28.19085">
        <ele>13.4</ele>
      </trkpt>
      <trkpt lat="36.93606" lon="28.19082">
        <ele>13.8</ele>
      </trkpt>
      <trkpt lat="36.93602" lon="28.19079">
        <ele>13.9</ele>
      </trkpt>
      <trkpt lat="36.93598" lon="28.19079">
        <ele>14.3</ele>
      </trkpt>
      <trkpt lat="36.93584" lon="28.19077">
        <ele>15.5</ele>
      </trkpt>
      <trkpt lat="36.93584" lon="28.19077">
        <ele>15.5</ele>
      </trkpt>
      <trkpt lat="36.93584" lon="28.19077">
        <ele>15.5</ele>
      </trkpt>
      <trkpt lat="36.93584" lon="28.19077">
        <ele>15.5</ele>
      </trkpt>
      <trkpt lat="36.93582" lon="28.19078">
        <ele>15.6</ele>
      </trkpt>
      <trkpt lat="36.93581" lon="28.19078">
        <ele>15.6</ele>
      </trkpt>
      <trkpt lat="36.9357" lon="28.1908">
        <ele>16.4</ele>
      </trkpt>
      <trkpt lat="36.93556" lon="28.19083">
        <ele>17.3</ele>
      </trkpt>
      <trkpt lat="36.93541" lon="28.19081">
        <ele>17.8</ele>
      </trkpt>
      <trkpt lat="36.93525" lon="28.1908">
        <ele>18.4</ele>
      </trkpt>
      <trkpt lat="36.93512" lon="28.1908">
        <ele>19.1</ele>
      </trkpt>
      <trkpt lat="36.93498" lon="28.19082">
        <ele>19.7</ele>
      </trkpt>
      <trkpt lat="36.93487" lon="28.19086">
        <ele>19.5</ele>
      </trkpt>
      <trkpt lat="36.93485" lon="28.19087">
        <ele>19.5</ele>
      </trkpt>
      <trkpt lat="36.93483" lon="28.19087">
        <ele>19.5</ele>
      </trkpt>
      <trkpt lat="36.93481" lon="28.19088">
        <ele>19.4</ele>
      </trkpt>
      <trkpt lat="36.93477" lon="28.1909">
        <ele>19.7</ele>
      </trkpt>
      <trkpt lat="36.93476" lon="28.19091">
        <ele>19.6</ele>
      </trkpt>
      <trkpt lat="36.93473" lon="28.19091">
        <ele>19.4</ele>
      </trkpt>
      <trkpt lat="36.93472" lon="28.19092">
        <ele>19.4</ele>
      </trkpt>
      <trkpt lat="36.93471" lon="28.19092">
        <ele>19.4</ele>
      </trkpt>
      <trkpt lat="36.93461" lon="28.19095">
        <ele>19.2</ele>
      </trkpt>
      <trkpt lat="36.93444" lon="28.19104">
        <ele>19.5</ele>
      </trkpt>
      <trkpt lat="36.93442" lon="28.19105">
        <ele>19.5</ele>
      </trkpt>
      <trkpt lat="36.93436" lon="28.1911">
        <ele>19.9</ele>
      </trkpt>
      <trkpt lat="36.93423" lon="28.19119">
        <ele>20.3</ele>
      </trkpt>
      <trkpt lat="36.93404" lon="28.19127">
        <ele>20.3</ele>
      </trkpt>
      <trkpt lat="36.93403" lon="28.19128">
        <ele>20.3</ele>
      </trkpt>
      <trkpt lat="36.93389" lon="28.19133">
        <ele>19.7</ele>
      </trkpt>
      <trkpt lat="36.93376" lon="28.19142">
        <ele>19.5</ele>
      </trkpt>
      <trkpt lat="36.93374" lon="28.19143">
        <ele>19.4</ele>
      </trkpt>
      <trkpt lat="36.93373" lon="28.19144">
        <ele>19.3</ele>
      </trkpt>
      <trkpt lat="36.9337" lon="28.19143">
        <ele>18.9</ele>
      </trkpt>
      <trkpt lat="36.93368" lon="28.19144">
        <ele>18.8</ele>
      </trkpt>
      <trkpt lat="36.93367" lon="28.19145">
        <ele>18.7</ele>
      </trkpt>
      <trkpt lat="36.93365" lon="28.19145">
        <ele>18.5</ele>
      </trkpt>
      <trkpt lat="36.93364" lon="28.19146">
        <ele>18.3</ele>
      </trkpt>
      <trkpt lat="36.93362" lon="28.19147">
        <ele>18.2</ele>
      </trkpt>
      <trkpt lat="36.93348" lon="28.19158">
        <ele>17</ele>
      </trkpt>
      <trkpt lat="36.93339" lon="28.19167">
        <ele>16.3</ele>
      </trkpt>
      <trkpt lat="36.9333" lon="28.1918">
        <ele>17.8</ele>
      </trkpt>
      <trkpt lat="36.93329" lon="28.19181">
        <ele>18</ele>
      </trkpt>
      <trkpt lat="36.93324" lon="28.19185">
        <ele>18.6</ele>
      </trkpt>
      <trkpt lat="36.93323" lon="28.19186">
        <ele>18.6</ele>
      </trkpt>
      <trkpt lat="36.93319" lon="28.19193">
        <ele>19.7</ele>
      </trkpt>
      <trkpt lat="36.93318" lon="28.19194">
        <ele>19.9</ele>
      </trkpt>
      <trkpt lat="36.93317" lon="28.19196">
        <ele>20.1</ele>
      </trkpt>
      <trkpt lat="36.93303" lon="28.19208">
        <ele>20.7</ele>
      </trkpt>
      <trkpt lat="36.93295" lon="28.19218">
        <ele>21.4</ele>
      </trkpt>
      <trkpt lat="36.93294" lon="28.19219">
        <ele>21.4</ele>
      </trkpt>
      <trkpt lat="36.93292" lon="28.19221">
        <ele>21.3</ele>
      </trkpt>
      <trkpt lat="36.9329" lon="28.19223">
        <ele>21.3</ele>
      </trkpt>
      <trkpt lat="36.93289" lon="28.19226">
        <ele>21.5</ele>
      </trkpt>
      <trkpt lat="36.93282" lon="28.19233">
        <ele>21.5</ele>
      </trkpt>
      <trkpt lat="36.93277" lon="28.19237">
        <ele>20.9</ele>
      </trkpt>
      <trkpt lat="36.93276" lon="28.19239">
        <ele>21</ele>
      </trkpt>
      <trkpt lat="36.93275" lon="28.1924">
        <ele>21</ele>
      </trkpt>
      <trkpt lat="36.93274" lon="28.19242">
        <ele>21</ele>
      </trkpt>
      <trkpt lat="36.93273" lon="28.19243">
        <ele>21</ele>
      </trkpt>
      <trkpt lat="36.9327" lon="28.19249">
        <ele>20.8</ele>
      </trkpt>
      <trkpt lat="36.93269" lon="28.1925">
        <ele>20.8</ele>
      </trkpt>
      <trkpt lat="36.93263" lon="28.19258">
        <ele>21.3</ele>
      </trkpt>
      <trkpt lat="36.93262" lon="28.19259">
        <ele>21.5</ele>
      </trkpt>
      <trkpt lat="36.93261" lon="28.19262">
        <ele>21.8</ele>
      </trkpt>
      <trkpt lat="36.93254" lon="28.19271">
        <ele>22.3</ele>
      </trkpt>
      <trkpt lat="36.93252" lon="28.19273">
        <ele>22.3</ele>
      </trkpt>
      <trkpt lat="36.93251" lon="28.19273">
        <ele>22.3</ele>
      </trkpt>
      <trkpt lat="36.93245" lon="28.19279">
        <ele>23.1</ele>
      </trkpt>
      <trkpt lat="36.93244" lon="28.19281">
        <ele>23.3</ele>
      </trkpt>
      <trkpt lat="36.93234" lon="28.19287">
        <ele>24.1</ele>
      </trkpt>
      <trkpt lat="36.9322" lon="28.19293">
        <ele>24.4</ele>
      </trkpt>
      <trkpt lat="36.93218" lon="28.19293">
        <ele>24.4</ele>
      </trkpt>
      <trkpt lat="36.9321" lon="28.19296">
        <ele>24.5</ele>
      </trkpt>
      <trkpt lat="36.93209" lon="28.19297">
        <ele>24.5</ele>
      </trkpt>
      <trkpt lat="36.93205" lon="28.19296">
        <ele>24.2</ele>
      </trkpt>
      <trkpt lat="36.93203" lon="28.19296">
        <ele>24.1</ele>
      </trkpt>
      <trkpt lat="36.93202" lon="28.19297">
        <ele>24.1</ele>
      </trkpt>
      <trkpt lat="36.932" lon="28.19297">
        <ele>24.1</ele>
      </trkpt>
      <trkpt lat="36.93199" lon="28.19298">
        <ele>24.1</ele>
      </trkpt>
      <trkpt lat="36.93184" lon="28.19299">
        <ele>23.4</ele>
      </trkpt>
      <trkpt lat="36.93183" lon="28.193">
        <ele>23.4</ele>
      </trkpt>
      <trkpt lat="36.93175" lon="28.19301">
        <ele>23.2</ele>
      </trkpt>
      <trkpt lat="36.93174" lon="28.19302">
        <ele>23.2</ele>
      </trkpt>
      <trkpt lat="36.93168" lon="28.19305">
        <ele>23.3</ele>
      </trkpt>
      <trkpt lat="36.93166" lon="28.19306">
        <ele>23.3</ele>
      </trkpt>
      <trkpt lat="36.93163" lon="28.19308">
        <ele>23.4</ele>
      </trkpt>
      <trkpt lat="36.93162" lon="28.19309">
        <ele>23.3</ele>
      </trkpt>
      <trkpt lat="36.9316" lon="28.19309">
        <ele>23.2</ele>
      </trkpt>
      <trkpt lat="36.93159" lon="28.1931">
        <ele>23.1</ele>
      </trkpt>
      <trkpt lat="36.93157" lon="28.1931">
        <ele>23</ele>
      </trkpt>
      <trkpt lat="36.93156" lon="28.1931">
        <ele>22.9</ele>
      </trkpt>
      <trkpt lat="36.9315" lon="28.19316">
        <ele>23</ele>
      </trkpt>
      <trkpt lat="36.93149" lon="28.19316">
        <ele>23</ele>
      </trkpt>
      <trkpt lat="36.93148" lon="28.19317">
        <ele>22.9</ele>
      </trkpt>
      <trkpt lat="36.93147" lon="28.19318">
        <ele>22.8</ele>
      </trkpt>
      <trkpt lat="36.93146" lon="28.19319">
        <ele>23</ele>
      </trkpt>
      <trkpt lat="36.93146" lon="28.1932">
        <ele>23.1</ele>
      </trkpt>
      <trkpt lat="36.93145" lon="28.19322">
        <ele>23.2</ele>
      </trkpt>
      <trkpt lat="36.93145" lon="28.19323">
        <ele>23.3</ele>
      </trkpt>
      <trkpt lat="36.93143" lon="28.19324">
        <ele>23.2</ele>
      </trkpt>
      <trkpt lat="36.93142" lon="28.19328">
        <ele>23.5</ele>
      </trkpt>
      <trkpt lat="36.9314" lon="28.19333">
        <ele>23.8</ele>
      </trkpt>
      <trkpt lat="36.93137" lon="28.19358">
        <ele>26.3</ele>
      </trkpt>
      <trkpt lat="36.93133" lon="28.19378">
        <ele>28</ele>
      </trkpt>
      <trkpt lat="36.93132" lon="28.19402">
        <ele>30.4</ele>
      </trkpt>
      <trkpt lat="36.93132" lon="28.19403">
        <ele>30.6</ele>
      </trkpt>
      <trkpt lat="36.93129" lon="28.19421">
        <ele>31.6</ele>
      </trkpt>
      <trkpt lat="36.93124" lon="28.19439">
        <ele>30.5</ele>
      </trkpt>
      <trkpt lat="36.93124" lon="28.1944">
        <ele>30.6</ele>
      </trkpt>
      <trkpt lat="36.93124" lon="28.19442">
        <ele>30.6</ele>
      </trkpt>
      <trkpt lat="36.93123" lon="28.1945">
        <ele>30.6</ele>
      </trkpt>
      <trkpt lat="36.93122" lon="28.19453">
        <ele>30.7</ele>
      </trkpt>
      <trkpt lat="36.93119" lon="28.19465">
        <ele>30.2</ele>
      </trkpt>
      <trkpt lat="36.93119" lon="28.19467">
        <ele>30.2</ele>
      </trkpt>
      <trkpt lat="36.93118" lon="28.19469">
        <ele>30.2</ele>
      </trkpt>
      <trkpt lat="36.93117" lon="28.19484">
        <ele>30.3</ele>
      </trkpt>
      <trkpt lat="36.93115" lon="28.19504">
        <ele>30.7</ele>
      </trkpt>
      <trkpt lat="36.9311" lon="28.19522">
        <ele>30.8</ele>
      </trkpt>
      <trkpt lat="36.93107" lon="28.19534">
        <ele>31.2</ele>
      </trkpt>
      <trkpt lat="36.93103" lon="28.19544">
        <ele>31</ele>
      </trkpt>
      <trkpt lat="36.93101" lon="28.19545">
        <ele>30.7</ele>
      </trkpt>
      <trkpt lat="36.931" lon="28.19547">
        <ele>30.5</ele>
      </trkpt>
      <trkpt lat="36.93098" lon="28.19549">
        <ele>30.2</ele>
      </trkpt>
      <trkpt lat="36.93097" lon="28.19551">
        <ele>30.2</ele>
      </trkpt>
      <trkpt lat="36.93093" lon="28.19559">
        <ele>29.9</ele>
      </trkpt>
      <trkpt lat="36.93092" lon="28.19559">
        <ele>29.7</ele>
      </trkpt>
      <trkpt lat="36.93087" lon="28.1956">
        <ele>28.4</ele>
      </trkpt>
      <trkpt lat="36.93086" lon="28.19559">
        <ele>28</ele>
      </trkpt>
      <trkpt lat="36.93069" lon="28.19553">
        <ele>25.4</ele>
      </trkpt>
      <trkpt lat="36.93068" lon="28.19552">
        <ele>25.2</ele>
      </trkpt>
      <trkpt lat="36.93067" lon="28.19552">
        <ele>25.1</ele>
      </trkpt>
      <trkpt lat="36.93059" lon="28.1955">
        <ele>24.3</ele>
      </trkpt>
      <trkpt lat="36.93058" lon="28.1955">
        <ele>24.2</ele>
      </trkpt>
      <trkpt lat="36.93048" lon="28.1955">
        <ele>23.2</ele>
      </trkpt>
      <trkpt lat="36.93031" lon="28.19553">
        <ele>22</ele>
      </trkpt>
      <trkpt lat="36.9301" lon="28.19552">
        <ele>20.1</ele>
      </trkpt>
      <trkpt lat="36.92993" lon="28.19556">
        <ele>19.1</ele>
      </trkpt>
      <trkpt lat="36.9298" lon="28.19563">
        <ele>19.1</ele>
      </trkpt>
      <trkpt lat="36.92966" lon="28.1958">
        <ele>19.2</ele>
      </trkpt>
      <trkpt lat="36.92959" lon="28.19597">
        <ele>19.3</ele>
      </trkpt>
      <trkpt lat="36.92952" lon="28.19616">
        <ele>19.4</ele>
      </trkpt>
      <trkpt lat="36.92947" lon="28.19625">
        <ele>19.4</ele>
      </trkpt>
      <trkpt lat="36.92947" lon="28.19626">
        <ele>19.4</ele>
      </trkpt>
      <trkpt lat="36.92945" lon="28.19628">
        <ele>19.4</ele>
      </trkpt>
      <trkpt lat="36.92944" lon="28.19629">
        <ele>19.4</ele>
      </trkpt>
      <trkpt lat="36.92943" lon="28.1963">
        <ele>19.4</ele>
      </trkpt>
      <trkpt lat="36.92941" lon="28.19626">
        <ele>19.2</ele>
      </trkpt>
      <trkpt lat="36.92943" lon="28.1963">
        <ele>19.4</ele>
      </trkpt>
      <trkpt lat="36.92943" lon="28.19627">
        <ele>19.3</ele>
      </trkpt>
      <trkpt lat="36.92943" lon="28.19632">
        <ele>19.4</ele>
      </trkpt>
      <trkpt lat="36.92945" lon="28.19633">
        <ele>19.6</ele>
      </trkpt>
      <trkpt lat="36.92941" lon="28.19636">
        <ele>19.5</ele>
      </trkpt>
      <trkpt lat="36.9294" lon="28.19637">
        <ele>19.5</ele>
      </trkpt>
      <trkpt lat="36.92936" lon="28.19639">
        <ele>19.5</ele>
      </trkpt>
      <trkpt lat="36.92931" lon="28.19639">
        <ele>19.3</ele>
      </trkpt>
      <trkpt lat="36.92929" lon="28.19639">
        <ele>19.3</ele>
      </trkpt>
      <trkpt lat="36.92928" lon="28.19639">
        <ele>19.3</ele>
      </trkpt>
      <trkpt lat="36.92921" lon="28.19642">
        <ele>19.2</ele>
      </trkpt>
      <trkpt lat="36.9292" lon="28.19642">
        <ele>19.2</ele>
      </trkpt>
      <trkpt lat="36.92914" lon="28.19645">
        <ele>19.1</ele>
      </trkpt>
      <trkpt lat="36.92913" lon="28.19646">
        <ele>19.1</ele>
      </trkpt>
      <trkpt lat="36.92906" lon="28.1965">
        <ele>19.1</ele>
      </trkpt>
      <trkpt lat="36.92905" lon="28.19651">
        <ele>19.1</ele>
      </trkpt>
      <trkpt lat="36.92896" lon="28.19654">
        <ele>18.9</ele>
      </trkpt>
      <trkpt lat="36.92885" lon="28.19653">
        <ele>18.5</ele>
      </trkpt>
      <trkpt lat="36.92872" lon="28.19656">
        <ele>18.1</ele>
      </trkpt>
      <trkpt lat="36.92871" lon="28.19656">
        <ele>18.1</ele>
      </trkpt>
      <trkpt lat="36.92869" lon="28.19656">
        <ele>18.1</ele>
      </trkpt>
      <trkpt lat="36.92868" lon="28.19656">
        <ele>18</ele>
      </trkpt>
      <trkpt lat="36.92857" lon="28.19645">
        <ele>17.4</ele>
      </trkpt>
      <trkpt lat="36.92851" lon="28.19624">
        <ele>16.9</ele>
      </trkpt>
      <trkpt lat="36.92848" lon="28.19609">
        <ele>16.6</ele>
      </trkpt>
      <trkpt lat="36.92846" lon="28.19592">
        <ele>16.3</ele>
      </trkpt>
      <trkpt lat="36.9284" lon="28.1957">
        <ele>16.1</ele>
      </trkpt>
      <trkpt lat="36.9284" lon="28.19568">
        <ele>16.1</ele>
      </trkpt>
      <trkpt lat="36.92841" lon="28.19561">
        <ele>16.1</ele>
      </trkpt>
      <trkpt lat="36.92844" lon="28.19544">
        <ele>16.1</ele>
      </trkpt>
      <trkpt lat="36.92845" lon="28.19541">
        <ele>16.1</ele>
      </trkpt>
      <trkpt lat="36.92848" lon="28.19529">
        <ele>16.1</ele>
      </trkpt>
      <trkpt lat="36.92861" lon="28.19507">
        <ele>16</ele>
      </trkpt>
      <trkpt lat="36.92862" lon="28.19506">
        <ele>16</ele>
      </trkpt>
      <trkpt lat="36.92863" lon="28.19505">
        <ele>16</ele>
      </trkpt>
      <trkpt lat="36.92868" lon="28.19495">
        <ele>15.9</ele>
      </trkpt>
      <trkpt lat="36.92873" lon="28.19485">
        <ele>15.8</ele>
      </trkpt>
      <trkpt lat="36.9288" lon="28.1947">
        <ele>15.6</ele>
      </trkpt>
      <trkpt lat="36.92881" lon="28.1946">
        <ele>15.5</ele>
      </trkpt>
      <trkpt lat="36.92883" lon="28.1946">
        <ele>15.5</ele>
      </trkpt>
      <trkpt lat="36.9288" lon="28.19447">
        <ele>15.4</ele>
      </trkpt>
      <trkpt lat="36.9288" lon="28.19445">
        <ele>15.3</ele>
      </trkpt>
      <trkpt lat="36.92878" lon="28.19438">
        <ele>15.3</ele>
      </trkpt>
      <trkpt lat="36.92877" lon="28.19436">
        <ele>15.2</ele>
      </trkpt>
      <trkpt lat="36.92876" lon="28.19431">
        <ele>15.2</ele>
      </trkpt>
      <trkpt lat="36.92875" lon="28.19429">
        <ele>15.1</ele>
      </trkpt>
      <trkpt lat="36.92875" lon="28.19427">
        <ele>15.1</ele>
      </trkpt>
      <trkpt lat="36.92873" lon="28.1942">
        <ele>15</ele>
      </trkpt>
      <trkpt lat="36.92872" lon="28.19418">
        <ele>15</ele>
      </trkpt>
      <trkpt lat="36.9287" lon="28.19411">
        <ele>15.3</ele>
      </trkpt>
      <trkpt lat="36.92869" lon="28.19409">
        <ele>15.4</ele>
      </trkpt>
      <trkpt lat="36.92867" lon="28.19396">
        <ele>16.1</ele>
      </trkpt>
      <trkpt lat="36.92866" lon="28.19394">
        <ele>16.2</ele>
      </trkpt>
      <trkpt lat="36.92866" lon="28.19392">
        <ele>16.3</ele>
      </trkpt>
      <trkpt lat="36.92864" lon="28.19389">
        <ele>16.6</ele>
      </trkpt>
      <trkpt lat="36.92863" lon="28.19388">
        <ele>16.7</ele>
      </trkpt>
      <trkpt lat="36.92862" lon="28.19385">
        <ele>16.9</ele>
      </trkpt>
      <trkpt lat="36.92862" lon="28.19378">
        <ele>17.3</ele>
      </trkpt>
      <trkpt lat="36.92861" lon="28.19377">
        <ele>17.4</ele>
      </trkpt>
      <trkpt lat="36.9286" lon="28.19375">
        <ele>17.5</ele>
      </trkpt>
      <trkpt lat="36.92859" lon="28.19374">
        <ele>17.7</ele>
      </trkpt>
      <trkpt lat="36.92849" lon="28.19362">
        <ele>19.2</ele>
      </trkpt>
      <trkpt lat="36.92834" lon="28.19349">
        <ele>21.5</ele>
      </trkpt>
      <trkpt lat="36.9282" lon="28.19346">
        <ele>21.7</ele>
      </trkpt>
      <trkpt lat="36.92809" lon="28.1934">
        <ele>22.1</ele>
      </trkpt>
      <trkpt lat="36.92807" lon="28.19339">
        <ele>22.2</ele>
      </trkpt>
      <trkpt lat="36.92797" lon="28.1933">
        <ele>23.2</ele>
      </trkpt>
      <trkpt lat="36.92783" lon="28.19324">
        <ele>24.5</ele>
      </trkpt>
      <trkpt lat="36.92782" lon="28.19322">
        <ele>24.9</ele>
      </trkpt>
      <trkpt lat="36.9278" lon="28.1932">
        <ele>25.4</ele>
      </trkpt>
      <trkpt lat="36.92777" lon="28.19317">
        <ele>26.1</ele>
      </trkpt>
      <trkpt lat="36.92771" lon="28.19301">
        <ele>29.8</ele>
      </trkpt>
      <trkpt lat="36.92772" lon="28.19298">
        <ele>30.5</ele>
      </trkpt>
      <trkpt lat="36.92771" lon="28.19296">
        <ele>31.1</ele>
      </trkpt>
      <trkpt lat="36.92759" lon="28.19276">
        <ele>36.1</ele>
      </trkpt>
      <trkpt lat="36.92746" lon="28.19258">
        <ele>41</ele>
      </trkpt>
      <trkpt lat="36.92733" lon="28.19246">
        <ele>44.2</ele>
      </trkpt>
      <trkpt lat="36.92731" lon="28.19245">
        <ele>44.5</ele>
      </trkpt>
      <trkpt lat="36.9273" lon="28.19244">
        <ele>44.8</ele>
      </trkpt>
      <trkpt lat="36.92726" lon="28.19242">
        <ele>45.4</ele>
      </trkpt>
      <trkpt lat="36.92707" lon="28.1924">
        <ele>46.1</ele>
      </trkpt>
      <trkpt lat="36.92689" lon="28.19242">
        <ele>45.3</ele>
      </trkpt>
      <trkpt lat="36.92665" lon="28.19238">
        <ele>46.4</ele>
      </trkpt>
      <trkpt lat="36.92648" lon="28.1924">
        <ele>47.3</ele>
      </trkpt>
      <trkpt lat="36.92638" lon="28.19242">
        <ele>47.8</ele>
      </trkpt>
      <trkpt lat="36.92637" lon="28.19242">
        <ele>47.8</ele>
      </trkpt>
      <trkpt lat="36.92625" lon="28.19232">
        <ele>51.3</ele>
      </trkpt>
      <trkpt lat="36.92624" lon="28.19231">
        <ele>51.6</ele>
      </trkpt>
      <trkpt lat="36.92624" lon="28.1923">
        <ele>51.9</ele>
      </trkpt>
      <trkpt lat="36.92614" lon="28.19221">
        <ele>54.8</ele>
      </trkpt>
      <trkpt lat="36.92604" lon="28.19211">
        <ele>57.6</ele>
      </trkpt>
      <trkpt lat="36.92603" lon="28.19211">
        <ele>57.8</ele>
      </trkpt>
      <trkpt lat="36.92602" lon="28.1921">
        <ele>58</ele>
      </trkpt>
      <trkpt lat="36.926" lon="28.1921">
        <ele>58.2</ele>
      </trkpt>
      <trkpt lat="36.92599" lon="28.1921">
        <ele>58.2</ele>
      </trkpt>
      <trkpt lat="36.92597" lon="28.1921">
        <ele>58.2</ele>
      </trkpt>
      <trkpt lat="36.92593" lon="28.1921">
        <ele>58.5</ele>
      </trkpt>
      <trkpt lat="36.9258" lon="28.19211">
        <ele>59.4</ele>
      </trkpt>
      <trkpt lat="36.92578" lon="28.19211">
        <ele>59.5</ele>
      </trkpt>
      <trkpt lat="36.92574" lon="28.1921">
        <ele>60.1</ele>
      </trkpt>
      <trkpt lat="36.92573" lon="28.1921">
        <ele>60.2</ele>
      </trkpt>
      <trkpt lat="36.92571" lon="28.1921">
        <ele>60.4</ele>
      </trkpt>
      <trkpt lat="36.92559" lon="28.19203">
        <ele>63</ele>
      </trkpt>
      <trkpt lat="36.92545" lon="28.19196">
        <ele>65.3</ele>
      </trkpt>
      <trkpt lat="36.92538" lon="28.19186">
        <ele>67.4</ele>
      </trkpt>
      <trkpt lat="36.92537" lon="28.19186">
        <ele>67.5</ele>
      </trkpt>
      <trkpt lat="36.92536" lon="28.19185">
        <ele>67.6</ele>
      </trkpt>
      <trkpt lat="36.92527" lon="28.19186">
        <ele>68.2</ele>
      </trkpt>
      <trkpt lat="36.92518" lon="28.19191">
        <ele>68.2</ele>
      </trkpt>
      <trkpt lat="36.92517" lon="28.19192">
        <ele>68.3</ele>
      </trkpt>
      <trkpt lat="36.92515" lon="28.19192">
        <ele>68.3</ele>
      </trkpt>
      <trkpt lat="36.92514" lon="28.19193">
        <ele>68.4</ele>
      </trkpt>
      <trkpt lat="36.92512" lon="28.19194">
        <ele>68.4</ele>
      </trkpt>
      <trkpt lat="36.92506" lon="28.19201">
        <ele>68.2</ele>
      </trkpt>
      <trkpt lat="36.92504" lon="28.19202">
        <ele>68.2</ele>
      </trkpt>
      <trkpt lat="36.92503" lon="28.19204">
        <ele>68.2</ele>
      </trkpt>
      <trkpt lat="36.92499" lon="28.19209">
        <ele>68.2</ele>
      </trkpt>
      <trkpt lat="36.92497" lon="28.1921">
        <ele>68.2</ele>
      </trkpt>
      <trkpt lat="36.92495" lon="28.19212">
        <ele>68.4</ele>
      </trkpt>
      <trkpt lat="36.92494" lon="28.19213">
        <ele>68.5</ele>
      </trkpt>
      <trkpt lat="36.92489" lon="28.19219">
        <ele>68.9</ele>
      </trkpt>
      <trkpt lat="36.92483" lon="28.19234">
        <ele>68.9</ele>
      </trkpt>
      <trkpt lat="36.92482" lon="28.19235">
        <ele>69.1</ele>
      </trkpt>
      <trkpt lat="36.92481" lon="28.19237">
        <ele>69.2</ele>
      </trkpt>
      <trkpt lat="36.92481" lon="28.19239">
        <ele>69.2</ele>
      </trkpt>
      <trkpt lat="36.92471" lon="28.19244">
        <ele>71.2</ele>
      </trkpt>
      <trkpt lat="36.9247" lon="28.19242">
        <ele>71.4</ele>
      </trkpt>
      <trkpt lat="36.92468" lon="28.1924">
        <ele>71.8</ele>
      </trkpt>
      <trkpt lat="36.92469" lon="28.19235">
        <ele>71.8</ele>
      </trkpt>
      <trkpt lat="36.92473" lon="28.19213">
        <ele>71.5</ele>
      </trkpt>
      <trkpt lat="36.92472" lon="28.1921">
        <ele>71.8</ele>
      </trkpt>
      <trkpt lat="36.9247" lon="28.19206">
        <ele>72.3</ele>
      </trkpt>
      <trkpt lat="36.92465" lon="28.19199">
        <ele>72.9</ele>
      </trkpt>
      <trkpt lat="36.92464" lon="28.19195">
        <ele>73.1</ele>
      </trkpt>
      <trkpt lat="36.92464" lon="28.19195">
        <ele>73.1</ele>
      </trkpt>
      <trkpt lat="36.92466" lon="28.19193">
        <ele>72.9</ele>
      </trkpt>
      <trkpt lat="36.92467" lon="28.19193">
        <ele>72.8</ele>
      </trkpt>
      <trkpt lat="36.92468" lon="28.19193">
        <ele>72.7</ele>
      </trkpt>
      <trkpt lat="36.92467" lon="28.19194">
        <ele>72.7</ele>
      </trkpt>
      <trkpt lat="36.92469" lon="28.19192">
        <ele>72.6</ele>
      </trkpt>
      <trkpt lat="36.92469" lon="28.19191">
        <ele>72.7</ele>
      </trkpt>
      <trkpt lat="36.92469" lon="28.19187">
        <ele>72.7</ele>
      </trkpt>
      <trkpt lat="36.92469" lon="28.19191">
        <ele>72.7</ele>
      </trkpt>
      <trkpt lat="36.92467" lon="28.19188">
        <ele>72.8</ele>
      </trkpt>
      <trkpt lat="36.9246" lon="28.19187">
        <ele>73.5</ele>
      </trkpt>
      <trkpt lat="36.92455" lon="28.19186">
        <ele>73.9</ele>
      </trkpt>
      <trkpt lat="36.92453" lon="28.19186">
        <ele>74.1</ele>
      </trkpt>
      <trkpt lat="36.92449" lon="28.19184">
        <ele>74.3</ele>
      </trkpt>
      <trkpt lat="36.92448" lon="28.19183">
        <ele>74.4</ele>
      </trkpt>
      <trkpt lat="36.92433" lon="28.19177">
        <ele>75.1</ele>
      </trkpt>
      <trkpt lat="36.92418" lon="28.19178">
        <ele>76.2</ele>
      </trkpt>
      <trkpt lat="36.92409" lon="28.1918">
        <ele>76.4</ele>
      </trkpt>
      <trkpt lat="36.92408" lon="28.1918">
        <ele>76.4</ele>
      </trkpt>
      <trkpt lat="36.92406" lon="28.19181">
        <ele>76.4</ele>
      </trkpt>
      <trkpt lat="36.92394" lon="28.19183">
        <ele>76.5</ele>
      </trkpt>
      <trkpt lat="36.92393" lon="28.19183">
        <ele>76.5</ele>
      </trkpt>
      <trkpt lat="36.92382" lon="28.19185">
        <ele>76.5</ele>
      </trkpt>
      <trkpt lat="36.92381" lon="28.19185">
        <ele>76.5</ele>
      </trkpt>
      <trkpt lat="36.92377" lon="28.19186">
        <ele>76.5</ele>
      </trkpt>
      <trkpt lat="36.92376" lon="28.19186">
        <ele>76.5</ele>
      </trkpt>
      <trkpt lat="36.9237" lon="28.19187">
        <ele>76.5</ele>
      </trkpt>
      <trkpt lat="36.9236" lon="28.19187">
        <ele>76.4</ele>
      </trkpt>
      <trkpt lat="36.92359" lon="28.19187">
        <ele>76.4</ele>
      </trkpt>
      <trkpt lat="36.92356" lon="28.19188">
        <ele>76.3</ele>
      </trkpt>
      <trkpt lat="36.92354" lon="28.19188">
        <ele>76.4</ele>
      </trkpt>
      <trkpt lat="36.9235" lon="28.19189">
        <ele>76.4</ele>
      </trkpt>
      <trkpt lat="36.92348" lon="28.1919">
        <ele>76.4</ele>
      </trkpt>
      <trkpt lat="36.92336" lon="28.19192">
        <ele>76.3</ele>
      </trkpt>
      <trkpt lat="36.92336" lon="28.19192">
        <ele>76.3</ele>
      </trkpt>
      <trkpt lat="36.9233" lon="28.19193">
        <ele>75.8</ele>
      </trkpt>
      <trkpt lat="36.9233" lon="28.19193">
        <ele>75.7</ele>
      </trkpt>
      <trkpt lat="36.92326" lon="28.19194">
        <ele>75.2</ele>
      </trkpt>
      <trkpt lat="36.92324" lon="28.19195">
        <ele>75</ele>
      </trkpt>
      <trkpt lat="36.92317" lon="28.19196">
        <ele>74.1</ele>
      </trkpt>
      <trkpt lat="36.92307" lon="28.19198">
        <ele>72.7</ele>
      </trkpt>
      <trkpt lat="36.92293" lon="28.19201">
        <ele>71</ele>
      </trkpt>
      <trkpt lat="36.92292" lon="28.19202">
        <ele>70.8</ele>
      </trkpt>
      <trkpt lat="36.92287" lon="28.19203">
        <ele>70.2</ele>
      </trkpt>
      <trkpt lat="36.92286" lon="28.19203">
        <ele>70.1</ele>
      </trkpt>
      <trkpt lat="36.92282" lon="28.19204">
        <ele>69.6</ele>
      </trkpt>
      <trkpt lat="36.92281" lon="28.19204">
        <ele>69.5</ele>
      </trkpt>
      <trkpt lat="36.92272" lon="28.19207">
        <ele>68.4</ele>
      </trkpt>
      <trkpt lat="36.92271" lon="28.19207">
        <ele>68.3</ele>
      </trkpt>
      <trkpt lat="36.92265" lon="28.19208">
        <ele>67.6</ele>
      </trkpt>
      <trkpt lat="36.92264" lon="28.19209">
        <ele>67.5</ele>
      </trkpt>
      <trkpt lat="36.92257" lon="28.19209">
        <ele>66.6</ele>
      </trkpt>
      <trkpt lat="36.92253" lon="28.1921">
        <ele>66.1</ele>
      </trkpt>
      <trkpt lat="36.92249" lon="28.19211">
        <ele>65.6</ele>
      </trkpt>
      <trkpt lat="36.92248" lon="28.19211">
        <ele>65.5</ele>
      </trkpt>
      <trkpt lat="36.92243" lon="28.19212">
        <ele>65.2</ele>
      </trkpt>
      <trkpt lat="36.92233" lon="28.19212">
        <ele>64.3</ele>
      </trkpt>
      <trkpt lat="36.92232" lon="28.19212">
        <ele>64.2</ele>
      </trkpt>
      <trkpt lat="36.92228" lon="28.19212">
        <ele>63.8</ele>
      </trkpt>
      <trkpt lat="36.9222" lon="28.19212">
        <ele>63.1</ele>
      </trkpt>
      <trkpt lat="36.92211" lon="28.19209">
        <ele>62.1</ele>
      </trkpt>
      <trkpt lat="36.92211" lon="28.19209">
        <ele>62</ele>
      </trkpt>
      <trkpt lat="36.92206" lon="28.19207">
        <ele>61.4</ele>
      </trkpt>
      <trkpt lat="36.92205" lon="28.19206">
        <ele>61.3</ele>
      </trkpt>
      <trkpt lat="36.92196" lon="28.19204">
        <ele>60.3</ele>
      </trkpt>
      <trkpt lat="36.92194" lon="28.19204">
        <ele>60.1</ele>
      </trkpt>
      <trkpt lat="36.92179" lon="28.19198">
        <ele>58.4</ele>
      </trkpt>
      <trkpt lat="36.92165" lon="28.19189">
        <ele>56.6</ele>
      </trkpt>
      <trkpt lat="36.92153" lon="28.19185">
        <ele>55.7</ele>
      </trkpt>
      <trkpt lat="36.92149" lon="28.19184">
        <ele>55.4</ele>
      </trkpt>
      <trkpt lat="36.92143" lon="28.19184">
        <ele>55.1</ele>
      </trkpt>
      <trkpt lat="36.92141" lon="28.19184">
        <ele>55</ele>
      </trkpt>
      <trkpt lat="36.92137" lon="28.19184">
        <ele>54.9</ele>
      </trkpt>
      <trkpt lat="36.92127" lon="28.19181">
        <ele>54.1</ele>
      </trkpt>
      <trkpt lat="36.92115" lon="28.19176">
        <ele>52.9</ele>
      </trkpt>
      <trkpt lat="36.92114" lon="28.19175">
        <ele>52.7</ele>
      </trkpt>
      <trkpt lat="36.92111" lon="28.19172">
        <ele>52.3</ele>
      </trkpt>
      <trkpt lat="36.92096" lon="28.19166">
        <ele>50.9</ele>
      </trkpt>
      <trkpt lat="36.92095" lon="28.19165">
        <ele>50.9</ele>
      </trkpt>
      <trkpt lat="36.92093" lon="28.19162">
        <ele>51.1</ele>
      </trkpt>
      <trkpt lat="36.92088" lon="28.19159">
        <ele>51.1</ele>
      </trkpt>
      <trkpt lat="36.92083" lon="28.19158">
        <ele>51</ele>
      </trkpt>
      <trkpt lat="36.92065" lon="28.19149">
        <ele>50.9</ele>
      </trkpt>
      <trkpt lat="36.92056" lon="28.19143">
        <ele>50.9</ele>
      </trkpt>
      <trkpt lat="36.92055" lon="28.19143">
        <ele>50.9</ele>
      </trkpt>
      <trkpt lat="36.92051" lon="28.19141">
        <ele>50.8</ele>
      </trkpt>
      <trkpt lat="36.92049" lon="28.1914">
        <ele>50.7</ele>
      </trkpt>
      <trkpt lat="36.92043" lon="28.19137">
        <ele>50.5</ele>
      </trkpt>
      <trkpt lat="36.92042" lon="28.19137">
        <ele>50.5</ele>
      </trkpt>
      <trkpt lat="36.92036" lon="28.19135">
        <ele>50.2</ele>
      </trkpt>
      <trkpt lat="36.92029" lon="28.19131">
        <ele>49.9</ele>
      </trkpt>
      <trkpt lat="36.92018" lon="28.19125">
        <ele>49.4</ele>
      </trkpt>
      <trkpt lat="36.92017" lon="28.19124">
        <ele>49.3</ele>
      </trkpt>
      <trkpt lat="36.92012" lon="28.1912">
        <ele>49.1</ele>
      </trkpt>
      <trkpt lat="36.92006" lon="28.19117">
        <ele>48.7</ele>
      </trkpt>
      <trkpt lat="36.91994" lon="28.19103">
        <ele>48.5</ele>
      </trkpt>
      <trkpt lat="36.91979" lon="28.19098">
        <ele>48.1</ele>
      </trkpt>
      <trkpt lat="36.91969" lon="28.19087">
        <ele>47.1</ele>
      </trkpt>
      <trkpt lat="36.91965" lon="28.19084">
        <ele>46.5</ele>
      </trkpt>
      <trkpt lat="36.91961" lon="28.19082">
        <ele>46.4</ele>
      </trkpt>
      <trkpt lat="36.91956" lon="28.19078">
        <ele>46.5</ele>
      </trkpt>
      <trkpt lat="36.91949" lon="28.19072">
        <ele>46.5</ele>
      </trkpt>
      <trkpt lat="36.91937" lon="28.19066">
        <ele>46.3</ele>
      </trkpt>
      <trkpt lat="36.91934" lon="28.19066">
        <ele>46.2</ele>
      </trkpt>
      <trkpt lat="36.91931" lon="28.19065">
        <ele>46</ele>
      </trkpt>
      <trkpt lat="36.91929" lon="28.19065">
        <ele>45.8</ele>
      </trkpt>
      <trkpt lat="36.91913" lon="28.19065">
        <ele>45</ele>
      </trkpt>
      <trkpt lat="36.91912" lon="28.19064">
        <ele>45</ele>
      </trkpt>
      <trkpt lat="36.91909" lon="28.19064">
        <ele>45</ele>
      </trkpt>
      <trkpt lat="36.91895" lon="28.19061">
        <ele>45</ele>
      </trkpt>
      <trkpt lat="36.91884" lon="28.19057">
        <ele>44.9</ele>
      </trkpt>
      <trkpt lat="36.91869" lon="28.19051">
        <ele>44.4</ele>
      </trkpt>
      <trkpt lat="36.91855" lon="28.19043">
        <ele>43.5</ele>
      </trkpt>
      <trkpt lat="36.91842" lon="28.19037">
        <ele>42.2</ele>
      </trkpt>
      <trkpt lat="36.91837" lon="28.19036">
        <ele>41.7</ele>
      </trkpt>
      <trkpt lat="36.91821" lon="28.19026">
        <ele>39.7</ele>
      </trkpt>
      <trkpt lat="36.91812" lon="28.1902">
        <ele>38.8</ele>
      </trkpt>
      <trkpt lat="36.91811" lon="28.1902">
        <ele>38.7</ele>
      </trkpt>
      <trkpt lat="36.91807" lon="28.19016">
        <ele>38.1</ele>
      </trkpt>
      <trkpt lat="36.91804" lon="28.19014">
        <ele>37.9</ele>
      </trkpt>
      <trkpt lat="36.91794" lon="28.19008">
        <ele>36.8</ele>
      </trkpt>
      <trkpt lat="36.91793" lon="28.19008">
        <ele>36.7</ele>
      </trkpt>
      <trkpt lat="36.9179" lon="28.1901">
        <ele>36.8</ele>
      </trkpt>
      <trkpt lat="36.91788" lon="28.1901">
        <ele>36.7</ele>
      </trkpt>
      <trkpt lat="36.91786" lon="28.19003">
        <ele>36</ele>
      </trkpt>
      <trkpt lat="36.91783" lon="28.19001">
        <ele>35.6</ele>
      </trkpt>
      <trkpt lat="36.91776" lon="28.19">
        <ele>35.3</ele>
      </trkpt>
      <trkpt lat="36.91771" lon="28.18997">
        <ele>35.2</ele>
      </trkpt>
      <trkpt lat="36.91767" lon="28.18996">
        <ele>35</ele>
      </trkpt>
      <trkpt lat="36.91758" lon="28.18996">
        <ele>34.7</ele>
      </trkpt>
      <trkpt lat="36.91755" lon="28.18997">
        <ele>34.5</ele>
      </trkpt>
      <trkpt lat="36.91751" lon="28.18996">
        <ele>34.4</ele>
      </trkpt>
      <trkpt lat="36.91751" lon="28.18995">
        <ele>34.4</ele>
      </trkpt>
      <trkpt lat="36.91749" lon="28.18995">
        <ele>34.4</ele>
      </trkpt>
      <trkpt lat="36.91748" lon="28.18995">
        <ele>34.5</ele>
      </trkpt>
      <trkpt lat="36.9174" lon="28.18997">
        <ele>34.7</ele>
      </trkpt>
      <trkpt lat="36.91738" lon="28.18997">
        <ele>34.8</ele>
      </trkpt>
      <trkpt lat="36.91737" lon="28.18997">
        <ele>34.8</ele>
      </trkpt>
      <trkpt lat="36.91737" lon="28.18998">
        <ele>34.7</ele>
      </trkpt>
      <trkpt lat="36.91728" lon="28.19">
        <ele>34.8</ele>
      </trkpt>
      <trkpt lat="36.91726" lon="28.19">
        <ele>34.9</ele>
      </trkpt>
      <trkpt lat="36.91721" lon="28.19001">
        <ele>35.1</ele>
      </trkpt>
      <trkpt lat="36.91712" lon="28.19004">
        <ele>35.4</ele>
      </trkpt>
      <trkpt lat="36.91711" lon="28.19004">
        <ele>35.4</ele>
      </trkpt>
      <trkpt lat="36.91704" lon="28.19007">
        <ele>35.6</ele>
      </trkpt>
      <trkpt lat="36.91697" lon="28.19012">
        <ele>35.6</ele>
      </trkpt>
      <trkpt lat="36.9169" lon="28.19018">
        <ele>35.4</ele>
      </trkpt>
      <trkpt lat="36.91689" lon="28.19018">
        <ele>35.4</ele>
      </trkpt>
      <trkpt lat="36.91683" lon="28.19023">
        <ele>35.2</ele>
      </trkpt>
      <trkpt lat="36.91674" lon="28.19027">
        <ele>34.8</ele>
      </trkpt>
      <trkpt lat="36.91671" lon="28.1903">
        <ele>34.6</ele>
      </trkpt>
      <trkpt lat="36.91664" lon="28.19035">
        <ele>34.3</ele>
      </trkpt>
      <trkpt lat="36.91663" lon="28.19035">
        <ele>34.2</ele>
      </trkpt>
      <trkpt lat="36.9166" lon="28.19039">
        <ele>34.1</ele>
      </trkpt>
      <trkpt lat="36.91652" lon="28.19045">
        <ele>33.9</ele>
      </trkpt>
      <trkpt lat="36.9165" lon="28.19046">
        <ele>33.9</ele>
      </trkpt>
      <trkpt lat="36.9165" lon="28.19047">
        <ele>33.8</ele>
      </trkpt>
      <trkpt lat="36.91649" lon="28.19045">
        <ele>34</ele>
      </trkpt>
      <trkpt lat="36.91649" lon="28.19044">
        <ele>34.1</ele>
      </trkpt>
      <trkpt lat="36.9164" lon="28.1905">
        <ele>33.9</ele>
      </trkpt>
      <trkpt lat="36.91632" lon="28.19058">
        <ele>33.3</ele>
      </trkpt>
      <trkpt lat="36.91622" lon="28.19064">
        <ele>32.9</ele>
      </trkpt>
      <trkpt lat="36.91616" lon="28.19066">
        <ele>32.9</ele>
      </trkpt>
      <trkpt lat="36.91605" lon="28.19072">
        <ele>32.3</ele>
      </trkpt>
      <trkpt lat="36.91596" lon="28.19078">
        <ele>31.6</ele>
      </trkpt>
      <trkpt lat="36.91588" lon="28.19084">
        <ele>30.9</ele>
      </trkpt>
      <trkpt lat="36.9158" lon="28.19086">
        <ele>31.1</ele>
      </trkpt>
      <trkpt lat="36.91569" lon="28.19087">
        <ele>31.4</ele>
      </trkpt>
      <trkpt lat="36.91567" lon="28.19089">
        <ele>31.4</ele>
      </trkpt>
      <trkpt lat="36.91561" lon="28.19095">
        <ele>31.3</ele>
      </trkpt>
      <trkpt lat="36.91555" lon="28.19097">
        <ele>31.4</ele>
      </trkpt>
      <trkpt lat="36.91548" lon="28.19102">
        <ele>31.3</ele>
      </trkpt>
      <trkpt lat="36.91545" lon="28.19105">
        <ele>31.3</ele>
      </trkpt>
      <trkpt lat="36.91543" lon="28.19103">
        <ele>31.4</ele>
      </trkpt>
      <trkpt lat="36.91535" lon="28.19103">
        <ele>31.6</ele>
      </trkpt>
      <trkpt lat="36.91528" lon="28.19104">
        <ele>31.7</ele>
      </trkpt>
      <trkpt lat="36.91522" lon="28.19102">
        <ele>31.9</ele>
      </trkpt>
      <trkpt lat="36.91517" lon="28.19104">
        <ele>31.9</ele>
      </trkpt>
      <trkpt lat="36.91516" lon="28.19105">
        <ele>31.8</ele>
      </trkpt>
      <trkpt lat="36.91516" lon="28.19106">
        <ele>31.8</ele>
      </trkpt>
      <trkpt lat="36.91518" lon="28.19107">
        <ele>31.7</ele>
      </trkpt>
      <trkpt lat="36.91516" lon="28.19111">
        <ele>31.4</ele>
      </trkpt>
      <trkpt lat="36.91515" lon="28.19109">
        <ele>31.6</ele>
      </trkpt>
      <trkpt lat="36.91515" lon="28.19108">
        <ele>31.7</ele>
      </trkpt>
      <trkpt lat="36.91513" lon="28.19107">
        <ele>31.8</ele>
      </trkpt>
      <trkpt lat="36.9151" lon="28.19108">
        <ele>31.7</ele>
      </trkpt>
      <trkpt lat="36.91506" lon="28.19106">
        <ele>32</ele>
      </trkpt>
      <trkpt lat="36.91505" lon="28.19107">
        <ele>31.9</ele>
      </trkpt>
      <trkpt lat="36.91504" lon="28.19107">
        <ele>32</ele>
      </trkpt>
      <trkpt lat="36.91502" lon="28.19109">
        <ele>31.9</ele>
      </trkpt>
      <trkpt lat="36.91499" lon="28.19108">
        <ele>31.9</ele>
      </trkpt>
      <trkpt lat="36.91495" lon="28.19108">
        <ele>31.7</ele>
      </trkpt>
      <trkpt lat="36.91494" lon="28.19108">
        <ele>31.7</ele>
      </trkpt>
      <trkpt lat="36.91493" lon="28.19111">
        <ele>31.4</ele>
      </trkpt>
      <trkpt lat="36.91493" lon="28.19112">
        <ele>31.3</ele>
      </trkpt>
      <trkpt lat="36.91493" lon="28.19115">
        <ele>31.1</ele>
      </trkpt>
      <trkpt lat="36.91487" lon="28.19112">
        <ele>31.1</ele>
      </trkpt>
      <trkpt lat="36.91482" lon="28.19111">
        <ele>31.1</ele>
      </trkpt>
      <trkpt lat="36.91478" lon="28.19112">
        <ele>30.8</ele>
      </trkpt>
      <trkpt lat="36.91476" lon="28.19114">
        <ele>30.6</ele>
      </trkpt>
      <trkpt lat="36.9148" lon="28.19117">
        <ele>30.5</ele>
      </trkpt>
      <trkpt lat="36.91481" lon="28.19118">
        <ele>30.5</ele>
      </trkpt>
      <trkpt lat="36.91484" lon="28.19116">
        <ele>30.7</ele>
      </trkpt>
      <trkpt lat="36.91485" lon="28.1912">
        <ele>30.4</ele>
      </trkpt>
      <trkpt lat="36.91484" lon="28.19123">
        <ele>30.2</ele>
      </trkpt>
      <trkpt lat="36.91481" lon="28.19121">
        <ele>30.3</ele>
      </trkpt>
      <trkpt lat="36.91479" lon="28.19121">
        <ele>30.2</ele>
      </trkpt>
      <trkpt lat="36.91481" lon="28.19121">
        <ele>30.3</ele>
      </trkpt>
      <trkpt lat="36.91472" lon="28.19112">
        <ele>30.6</ele>
      </trkpt>
      <trkpt lat="36.9147" lon="28.19118">
        <ele>30.1</ele>
      </trkpt>
      <trkpt lat="36.91473" lon="28.19123">
        <ele>29.8</ele>
      </trkpt>
      <trkpt lat="36.91478" lon="28.19133">
        <ele>29.3</ele>
      </trkpt>
      <trkpt lat="36.91473" lon="28.19139">
        <ele>28.7</ele>
      </trkpt>
      <trkpt lat="36.91472" lon="28.19136">
        <ele>28.9</ele>
      </trkpt>
      <trkpt lat="36.91468" lon="28.19135">
        <ele>28.9</ele>
      </trkpt>
      <trkpt lat="36.91467" lon="28.19137">
        <ele>28.6</ele>
      </trkpt>
      <trkpt lat="36.91463" lon="28.19134">
        <ele>28.8</ele>
      </trkpt>
      <trkpt lat="36.9146" lon="28.19133">
        <ele>28.8</ele>
      </trkpt>
      <trkpt lat="36.91462" lon="28.19131">
        <ele>28.9</ele>
      </trkpt>
      <trkpt lat="36.9147" lon="28.19127">
        <ele>29.5</ele>
      </trkpt>
      <trkpt lat="36.91471" lon="28.19124">
        <ele>29.7</ele>
      </trkpt>
      <trkpt lat="36.91469" lon="28.19123">
        <ele>29.7</ele>
      </trkpt>
      <trkpt lat="36.91465" lon="28.19123">
        <ele>29.6</ele>
      </trkpt>
      <trkpt lat="36.91459" lon="28.19121">
        <ele>29.5</ele>
      </trkpt>
      <trkpt lat="36.91459" lon="28.19124">
        <ele>29.3</ele>
      </trkpt>
      <trkpt lat="36.91455" lon="28.1912">
        <ele>29.5</ele>
      </trkpt>
      <trkpt lat="36.91451" lon="28.19115">
        <ele>29.7</ele>
      </trkpt>
      <trkpt lat="36.91447" lon="28.19113">
        <ele>29.6</ele>
      </trkpt>
      <trkpt lat="36.91443" lon="28.19114">
        <ele>29.5</ele>
      </trkpt>
      <trkpt lat="36.91442" lon="28.19115">
        <ele>29.4</ele>
      </trkpt>
      <trkpt lat="36.91439" lon="28.19113">
        <ele>29.4</ele>
      </trkpt>
      <trkpt lat="36.91436" lon="28.19109">
        <ele>29.5</ele>
      </trkpt>
      <trkpt lat="36.91434" lon="28.1911">
        <ele>29.3</ele>
      </trkpt>
      <trkpt lat="36.91431" lon="28.19104">
        <ele>29.6</ele>
      </trkpt>
      <trkpt lat="36.91429" lon="28.19106">
        <ele>29.4</ele>
      </trkpt>
      <trkpt lat="36.91426" lon="28.19104">
        <ele>29.4</ele>
      </trkpt>
      <trkpt lat="36.91423" lon="28.19099">
        <ele>29.5</ele>
      </trkpt>
      <trkpt lat="36.9142" lon="28.19101">
        <ele>29.3</ele>
      </trkpt>
      <trkpt lat="36.91418" lon="28.19102">
        <ele>29.1</ele>
      </trkpt>
      <trkpt lat="36.91413" lon="28.191">
        <ele>29</ele>
      </trkpt>
      <trkpt lat="36.91413" lon="28.19101">
        <ele>29</ele>
      </trkpt>
      <trkpt lat="36.91407" lon="28.19099">
        <ele>28.8</ele>
      </trkpt>
      <trkpt lat="36.91402" lon="28.19096">
        <ele>28.8</ele>
      </trkpt>
      <trkpt lat="36.91402" lon="28.19094">
        <ele>28.8</ele>
      </trkpt>
      <trkpt lat="36.91402" lon="28.19097">
        <ele>28.8</ele>
      </trkpt>
      <trkpt lat="36.91399" lon="28.19097">
        <ele>28.6</ele>
      </trkpt>
      <trkpt lat="36.91396" lon="28.19101">
        <ele>28.3</ele>
      </trkpt>
      <trkpt lat="36.91391" lon="28.19096">
        <ele>28.3</ele>
      </trkpt>
      <trkpt lat="36.91389" lon="28.19104">
        <ele>27.9</ele>
      </trkpt>
      <trkpt lat="36.91394" lon="28.19091">
        <ele>28.6</ele>
      </trkpt>
      <trkpt lat="36.91374" lon="28.19086">
        <ele>27.9</ele>
      </trkpt>
      <trkpt lat="36.91359" lon="28.19084">
        <ele>27.2</ele>
      </trkpt>
      <trkpt lat="36.91345" lon="28.19083">
        <ele>26.6</ele>
      </trkpt>
      <trkpt lat="36.91328" lon="28.19075">
        <ele>26.6</ele>
      </trkpt>
      <trkpt lat="36.9132" lon="28.19065">
        <ele>27.3</ele>
      </trkpt>
      <trkpt lat="36.91319" lon="28.19065">
        <ele>27.3</ele>
      </trkpt>
      <trkpt lat="36.91312" lon="28.1906">
        <ele>27.5</ele>
      </trkpt>
      <trkpt lat="36.91295" lon="28.19051">
        <ele>27.7</ele>
      </trkpt>
      <trkpt lat="36.91275" lon="28.19042">
        <ele>27.5</ele>
      </trkpt>
      <trkpt lat="36.91273" lon="28.19042">
        <ele>27.5</ele>
      </trkpt>
      <trkpt lat="36.91272" lon="28.19042">
        <ele>27.4</ele>
      </trkpt>
      <trkpt lat="36.9127" lon="28.19041">
        <ele>27.4</ele>
      </trkpt>
      <trkpt lat="36.91268" lon="28.19041">
        <ele>27.3</ele>
      </trkpt>
      <trkpt lat="36.91265" lon="28.19039">
        <ele>27.3</ele>
      </trkpt>
      <trkpt lat="36.91243" lon="28.19034">
        <ele>26.9</ele>
      </trkpt>
      <trkpt lat="36.91224" lon="28.19031">
        <ele>26.8</ele>
      </trkpt>
      <trkpt lat="36.91199" lon="28.19021">
        <ele>27</ele>
      </trkpt>
      <trkpt lat="36.91176" lon="28.19009">
        <ele>27</ele>
      </trkpt>
      <trkpt lat="36.91175" lon="28.19008">
        <ele>27</ele>
      </trkpt>
      <trkpt lat="36.91156" lon="28.18998">
        <ele>26.5</ele>
      </trkpt>
      <trkpt lat="36.91155" lon="28.18998">
        <ele>26.5</ele>
      </trkpt>
      <trkpt lat="36.9114" lon="28.18995">
        <ele>25.8</ele>
      </trkpt>
      <trkpt lat="36.91127" lon="28.18988">
        <ele>25.3</ele>
      </trkpt>
      <trkpt lat="36.91115" lon="28.18982">
        <ele>24.7</ele>
      </trkpt>
      <trkpt lat="36.91109" lon="28.18977">
        <ele>24.4</ele>
      </trkpt>
      <trkpt lat="36.91107" lon="28.18977">
        <ele>24</ele>
      </trkpt>
      <trkpt lat="36.91106" lon="28.18983">
        <ele>23.6</ele>
      </trkpt>
      <trkpt lat="36.91107" lon="28.18975">
        <ele>24.2</ele>
      </trkpt>
      <trkpt lat="36.91107" lon="28.18968">
        <ele>24.6</ele>
      </trkpt>
      <trkpt lat="36.91099" lon="28.18949">
        <ele>24.4</ele>
      </trkpt>
      <trkpt lat="36.91099" lon="28.18947">
        <ele>24.4</ele>
      </trkpt>
      <trkpt lat="36.91098" lon="28.18946">
        <ele>24.4</ele>
      </trkpt>
      <trkpt lat="36.9109" lon="28.18932">
        <ele>23.2</ele>
      </trkpt>
      <trkpt lat="36.91084" lon="28.18914">
        <ele>22.3</ele>
      </trkpt>
      <trkpt lat="36.91077" lon="28.18898">
        <ele>22.7</ele>
      </trkpt>
      <trkpt lat="36.91067" lon="28.1888">
        <ele>22.7</ele>
      </trkpt>
      <trkpt lat="36.91052" lon="28.18869">
        <ele>21.6</ele>
      </trkpt>
      <trkpt lat="36.91051" lon="28.18869">
        <ele>21.5</ele>
      </trkpt>
      <trkpt lat="36.9105" lon="28.18868">
        <ele>21.4</ele>
      </trkpt>
      <trkpt lat="36.91048" lon="28.18867">
        <ele>21.3</ele>
      </trkpt>
      <trkpt lat="36.91047" lon="28.18865">
        <ele>21.2</ele>
      </trkpt>
      <trkpt lat="36.91039" lon="28.18859">
        <ele>20.4</ele>
      </trkpt>
      <trkpt lat="36.91037" lon="28.18857">
        <ele>20.1</ele>
      </trkpt>
      <trkpt lat="36.91027" lon="28.18841">
        <ele>19</ele>
      </trkpt>
      <trkpt lat="36.91017" lon="28.18819">
        <ele>17.8</ele>
      </trkpt>
      <trkpt lat="36.91005" lon="28.18796">
        <ele>17</ele>
      </trkpt>
      <trkpt lat="36.90994" lon="28.18779">
        <ele>16.8</ele>
      </trkpt>
      <trkpt lat="36.90988" lon="28.18763">
        <ele>17.2</ele>
      </trkpt>
      <trkpt lat="36.90976" lon="28.18745">
        <ele>17.9</ele>
      </trkpt>
      <trkpt lat="36.90969" lon="28.18738">
        <ele>18.5</ele>
      </trkpt>
      <trkpt lat="36.90959" lon="28.18724">
        <ele>19.8</ele>
      </trkpt>
      <trkpt lat="36.90951" lon="28.18709">
        <ele>21.1</ele>
      </trkpt>
      <trkpt lat="36.90939" lon="28.18692">
        <ele>22</ele>
      </trkpt>
      <trkpt lat="36.90921" lon="28.18669">
        <ele>22.3</ele>
      </trkpt>
      <trkpt lat="36.90909" lon="28.18652">
        <ele>23.4</ele>
      </trkpt>
      <trkpt lat="36.90902" lon="28.18638">
        <ele>24.4</ele>
      </trkpt>
      <trkpt lat="36.90895" lon="28.18626">
        <ele>25.2</ele>
      </trkpt>
      <trkpt lat="36.90891" lon="28.18621">
        <ele>25.3</ele>
      </trkpt>
      <trkpt lat="36.90883" lon="28.18612">
        <ele>25.5</ele>
      </trkpt>
      <trkpt lat="36.90876" lon="28.18598">
        <ele>26</ele>
      </trkpt>
      <trkpt lat="36.90875" lon="28.18597">
        <ele>26</ele>
      </trkpt>
      <trkpt lat="36.90875" lon="28.18595">
        <ele>26</ele>
      </trkpt>
      <trkpt lat="36.90874" lon="28.18592">
        <ele>26.2</ele>
      </trkpt>
      <trkpt lat="36.90873" lon="28.18591">
        <ele>26.2</ele>
      </trkpt>
      <trkpt lat="36.90864" lon="28.18576">
        <ele>26.1</ele>
      </trkpt>
      <trkpt lat="36.90853" lon="28.18555">
        <ele>25.6</ele>
      </trkpt>
      <trkpt lat="36.90846" lon="28.1853">
        <ele>25.3</ele>
      </trkpt>
      <trkpt lat="36.90845" lon="28.18529">
        <ele>25.2</ele>
      </trkpt>
      <trkpt lat="36.90844" lon="28.18528">
        <ele>25</ele>
      </trkpt>
      <trkpt lat="36.90836" lon="28.18513">
        <ele>23.5</ele>
      </trkpt>
      <trkpt lat="36.90833" lon="28.18505">
        <ele>22.9</ele>
      </trkpt>
      <trkpt lat="36.90825" lon="28.18489">
        <ele>22.5</ele>
      </trkpt>
      <trkpt lat="36.90819" lon="28.18466">
        <ele>21.7</ele>
      </trkpt>
      <trkpt lat="36.90811" lon="28.18449">
        <ele>21.4</ele>
      </trkpt>
      <trkpt lat="36.90805" lon="28.18427">
        <ele>21</ele>
      </trkpt>
      <trkpt lat="36.90804" lon="28.18412">
        <ele>20.5</ele>
      </trkpt>
      <trkpt lat="36.90814" lon="28.18386">
        <ele>18.5</ele>
      </trkpt>
      <trkpt lat="36.90813" lon="28.18362">
        <ele>17.2</ele>
      </trkpt>
      <trkpt lat="36.90806" lon="28.18344">
        <ele>16.8</ele>
      </trkpt>
      <trkpt lat="36.90804" lon="28.18321">
        <ele>16.5</ele>
      </trkpt>
      <trkpt lat="36.90803" lon="28.18314">
        <ele>16.5</ele>
      </trkpt>
      <trkpt lat="36.90802" lon="28.18309">
        <ele>16.6</ele>
      </trkpt>
      <trkpt lat="36.908" lon="28.18305">
        <ele>16.8</ele>
      </trkpt>
      <trkpt lat="36.908" lon="28.18304">
        <ele>16.8</ele>
      </trkpt>
      <trkpt lat="36.90807" lon="28.18284">
        <ele>16</ele>
      </trkpt>
      <trkpt lat="36.90811" lon="28.1826">
        <ele>15.3</ele>
      </trkpt>
      <trkpt lat="36.90814" lon="28.18233">
        <ele>14.6</ele>
      </trkpt>
      <trkpt lat="36.90819" lon="28.18214">
        <ele>13.7</ele>
      </trkpt>
      <trkpt lat="36.90819" lon="28.18213">
        <ele>13.7</ele>
      </trkpt>
      <trkpt lat="36.90819" lon="28.1821">
        <ele>13.6</ele>
      </trkpt>
      <trkpt lat="36.90815" lon="28.18191">
        <ele>13.9</ele>
      </trkpt>
      <trkpt lat="36.90817" lon="28.18168">
        <ele>13.3</ele>
      </trkpt>
      <trkpt lat="36.90816" lon="28.18158">
        <ele>13.4</ele>
      </trkpt>
      <trkpt lat="36.90816" lon="28.18156">
        <ele>13.4</ele>
      </trkpt>
      <trkpt lat="36.90816" lon="28.18155">
        <ele>13.4</ele>
      </trkpt>
      <trkpt lat="36.90817" lon="28.18154">
        <ele>13.1</ele>
      </trkpt>
      <trkpt lat="36.90817" lon="28.18143">
        <ele>13.1</ele>
      </trkpt>
      <trkpt lat="36.9082" lon="28.18131">
        <ele>12.5</ele>
      </trkpt>
      <trkpt lat="36.9082" lon="28.18113">
        <ele>12.2</ele>
      </trkpt>
      <trkpt lat="36.9082" lon="28.18098">
        <ele>12</ele>
      </trkpt>
      <trkpt lat="36.90818" lon="28.18079">
        <ele>12.4</ele>
      </trkpt>
      <trkpt lat="36.90816" lon="28.18054">
        <ele>13.9</ele>
      </trkpt>
      <trkpt lat="36.90811" lon="28.18027">
        <ele>15.7</ele>
      </trkpt>
      <trkpt lat="36.9081" lon="28.18017">
        <ele>16.2</ele>
      </trkpt>
      <trkpt lat="36.90805" lon="28.18004">
        <ele>17.2</ele>
      </trkpt>
      <trkpt lat="36.90794" lon="28.18003">
        <ele>18.2</ele>
      </trkpt>
      <trkpt lat="36.90795" lon="28.18003">
        <ele>18.2</ele>
      </trkpt>
      <trkpt lat="36.90804" lon="28.18">
        <ele>17.5</ele>
      </trkpt>
      <trkpt lat="36.908" lon="28.1799">
        <ele>17.7</ele>
      </trkpt>
      <trkpt lat="36.90797" lon="28.17986">
        <ele>17.9</ele>
      </trkpt>
      <trkpt lat="36.90789" lon="28.17975">
        <ele>18.2</ele>
      </trkpt>
      <trkpt lat="36.90778" lon="28.17964">
        <ele>18.5</ele>
      </trkpt>
      <trkpt lat="36.90771" lon="28.17957">
        <ele>18.5</ele>
      </trkpt>
      <trkpt lat="36.9077" lon="28.17955">
        <ele>18.5</ele>
      </trkpt>
      <trkpt lat="36.90767" lon="28.17952">
        <ele>18.5</ele>
      </trkpt>
      <trkpt lat="36.90757" lon="28.17935">
        <ele>18</ele>
      </trkpt>
      <trkpt lat="36.90756" lon="28.17933">
        <ele>17.9</ele>
      </trkpt>
      <trkpt lat="36.90756" lon="28.17932">
        <ele>17.8</ele>
      </trkpt>
      <trkpt lat="36.90753" lon="28.17928">
        <ele>17.6</ele>
      </trkpt>
      <trkpt lat="36.90745" lon="28.17908">
        <ele>17.2</ele>
      </trkpt>
      <trkpt lat="36.9074" lon="28.17898">
        <ele>17.3</ele>
      </trkpt>
      <trkpt lat="36.90737" lon="28.17893">
        <ele>17.4</ele>
      </trkpt>
      <trkpt lat="36.90735" lon="28.17887">
        <ele>17.5</ele>
      </trkpt>
      <trkpt lat="36.90734" lon="28.17885">
        <ele>17.5</ele>
      </trkpt>
      <trkpt lat="36.90732" lon="28.17883">
        <ele>17.6</ele>
      </trkpt>
      <trkpt lat="36.90729" lon="28.1787">
        <ele>17.4</ele>
      </trkpt>
      <trkpt lat="36.90731" lon="28.17881">
        <ele>17.7</ele>
      </trkpt>
      <trkpt lat="36.90729" lon="28.17884">
        <ele>18.3</ele>
      </trkpt>
      <trkpt lat="36.90725" lon="28.1787">
        <ele>18.1</ele>
      </trkpt>
      <trkpt lat="36.90725" lon="28.17859">
        <ele>17.4</ele>
      </trkpt>
      <trkpt lat="36.9073" lon="28.1785">
        <ele>15.8</ele>
      </trkpt>
      <trkpt lat="36.90727" lon="28.17826">
        <ele>15.5</ele>
      </trkpt>
      <trkpt lat="36.90725" lon="28.178">
        <ele>16.1</ele>
      </trkpt>
      <trkpt lat="36.90721" lon="28.17779">
        <ele>17</ele>
      </trkpt>
      <trkpt lat="36.90716" lon="28.1776">
        <ele>18</ele>
      </trkpt>
      <trkpt lat="36.90716" lon="28.17756">
        <ele>18</ele>
      </trkpt>
      <trkpt lat="36.90716" lon="28.17755">
        <ele>18.1</ele>
      </trkpt>
      <trkpt lat="36.90721" lon="28.17738">
        <ele>18.7</ele>
      </trkpt>
      <trkpt lat="36.90727" lon="28.17724">
        <ele>19.1</ele>
      </trkpt>
      <trkpt lat="36.90734" lon="28.17693">
        <ele>21</ele>
      </trkpt>
      <trkpt lat="36.90743" lon="28.17666">
        <ele>21.6</ele>
      </trkpt>
      <trkpt lat="36.90752" lon="28.17636">
        <ele>21.8</ele>
      </trkpt>
      <trkpt lat="36.90759" lon="28.17621">
        <ele>21.7</ele>
      </trkpt>
      <trkpt lat="36.90764" lon="28.17606">
        <ele>21.6</ele>
      </trkpt>
      <trkpt lat="36.90765" lon="28.1759">
        <ele>22.3</ele>
      </trkpt>
      <trkpt lat="36.90766" lon="28.17578">
        <ele>22.2</ele>
      </trkpt>
      <trkpt lat="36.90768" lon="28.1756">
        <ele>20.7</ele>
      </trkpt>
      <trkpt lat="36.90768" lon="28.17558">
        <ele>20.6</ele>
      </trkpt>
      <trkpt lat="36.90769" lon="28.17555">
        <ele>20.3</ele>
      </trkpt>
      <trkpt lat="36.90766" lon="28.17534">
        <ele>19.5</ele>
      </trkpt>
      <trkpt lat="36.90759" lon="28.17508">
        <ele>19.2</ele>
      </trkpt>
      <trkpt lat="36.90758" lon="28.17507">
        <ele>19.2</ele>
      </trkpt>
      <trkpt lat="36.90757" lon="28.17504">
        <ele>19.1</ele>
      </trkpt>
      <trkpt lat="36.90757" lon="28.17502">
        <ele>19.1</ele>
      </trkpt>
      <trkpt lat="36.90756" lon="28.175">
        <ele>19</ele>
      </trkpt>
      <trkpt lat="36.90755" lon="28.17497">
        <ele>18.8</ele>
      </trkpt>
      <trkpt lat="36.90748" lon="28.17485">
        <ele>18.7</ele>
      </trkpt>
      <trkpt lat="36.90747" lon="28.17483">
        <ele>18.7</ele>
      </trkpt>
      <trkpt lat="36.90746" lon="28.17481">
        <ele>18.8</ele>
      </trkpt>
      <trkpt lat="36.90745" lon="28.17479">
        <ele>18.8</ele>
      </trkpt>
      <trkpt lat="36.90741" lon="28.17464">
        <ele>17.9</ele>
      </trkpt>
      <trkpt lat="36.90731" lon="28.17442">
        <ele>17.4</ele>
      </trkpt>
      <trkpt lat="36.90729" lon="28.17437">
        <ele>16.9</ele>
      </trkpt>
      <trkpt lat="36.90717" lon="28.17414">
        <ele>16.3</ele>
      </trkpt>
      <trkpt lat="36.90713" lon="28.17398">
        <ele>16</ele>
      </trkpt>
      <trkpt lat="36.90712" lon="28.17397">
        <ele>16.1</ele>
      </trkpt>
      <trkpt lat="36.90711" lon="28.17395">
        <ele>16.2</ele>
      </trkpt>
      <trkpt lat="36.90707" lon="28.17379">
        <ele>15.8</ele>
      </trkpt>
      <trkpt lat="36.90707" lon="28.17377">
        <ele>15.7</ele>
      </trkpt>
      <trkpt lat="36.90706" lon="28.17375">
        <ele>15.7</ele>
      </trkpt>
      <trkpt lat="36.90706" lon="28.17373">
        <ele>15.6</ele>
      </trkpt>
      <trkpt lat="36.90706" lon="28.17371">
        <ele>15.5</ele>
      </trkpt>
      <trkpt lat="36.90704" lon="28.17367">
        <ele>15.3</ele>
      </trkpt>
      <trkpt lat="36.90697" lon="28.17351">
        <ele>15.5</ele>
      </trkpt>
      <trkpt lat="36.90692" lon="28.17342">
        <ele>15.6</ele>
      </trkpt>
      <trkpt lat="36.90692" lon="28.17341">
        <ele>15.5</ele>
      </trkpt>
      <trkpt lat="36.9069" lon="28.17339">
        <ele>15.7</ele>
      </trkpt>
      <trkpt lat="36.90685" lon="28.17337">
        <ele>16.3</ele>
      </trkpt>
      <trkpt lat="36.90686" lon="28.17338">
        <ele>16.3</ele>
      </trkpt>
      <trkpt lat="36.90686" lon="28.1733">
        <ele>15.8</ele>
      </trkpt>
      <trkpt lat="36.90684" lon="28.17328">
        <ele>16.2</ele>
      </trkpt>
      <trkpt lat="36.90683" lon="28.17311">
        <ele>17.2</ele>
      </trkpt>
      <trkpt lat="36.90681" lon="28.17299">
        <ele>17.9</ele>
      </trkpt>
      <trkpt lat="36.90679" lon="28.17289">
        <ele>18.7</ele>
      </trkpt>
      <trkpt lat="36.9068" lon="28.17282">
        <ele>18.8</ele>
      </trkpt>
      <trkpt lat="36.90681" lon="28.17281">
        <ele>18.7</ele>
      </trkpt>
      <trkpt lat="36.90681" lon="28.1728">
        <ele>18.8</ele>
      </trkpt>
      <trkpt lat="36.90683" lon="28.17269">
        <ele>18.8</ele>
      </trkpt>
      <trkpt lat="36.90682" lon="28.17258">
        <ele>19.5</ele>
      </trkpt>
      <trkpt lat="36.90681" lon="28.17257">
        <ele>19.6</ele>
      </trkpt>
      <trkpt lat="36.90682" lon="28.17252">
        <ele>19.6</ele>
      </trkpt>
      <trkpt lat="36.90682" lon="28.17247">
        <ele>19.6</ele>
      </trkpt>
      <trkpt lat="36.90681" lon="28.17239">
        <ele>19.6</ele>
      </trkpt>
      <trkpt lat="36.90688" lon="28.17221">
        <ele>17.6</ele>
      </trkpt>
      <trkpt lat="36.90687" lon="28.17183">
        <ele>16.6</ele>
      </trkpt>
      <trkpt lat="36.90685" lon="28.17146">
        <ele>14.8</ele>
      </trkpt>
      <trkpt lat="36.90676" lon="28.17115">
        <ele>13.7</ele>
      </trkpt>
      <trkpt lat="36.90664" lon="28.17088">
        <ele>13.2</ele>
      </trkpt>
      <trkpt lat="36.90659" lon="28.17065">
        <ele>14.3</ele>
      </trkpt>
      <trkpt lat="36.90657" lon="28.17053">
        <ele>14.8</ele>
      </trkpt>
      <trkpt lat="36.90658" lon="28.17038">
        <ele>14.9</ele>
      </trkpt>
      <trkpt lat="36.90659" lon="28.17024">
        <ele>14.8</ele>
      </trkpt>
      <trkpt lat="36.90662" lon="28.17005">
        <ele>14</ele>
      </trkpt>
      <trkpt lat="36.90669" lon="28.16984">
        <ele>13.3</ele>
      </trkpt>
      <trkpt lat="36.9067" lon="28.16957">
        <ele>14</ele>
      </trkpt>
      <trkpt lat="36.90669" lon="28.16954">
        <ele>14.3</ele>
      </trkpt>
      <trkpt lat="36.90669" lon="28.16921">
        <ele>15.3</ele>
      </trkpt>
      <trkpt lat="36.90671" lon="28.16893">
        <ele>13.7</ele>
      </trkpt>
      <trkpt lat="36.90671" lon="28.16891">
        <ele>13.6</ele>
      </trkpt>
      <trkpt lat="36.90667" lon="28.16869">
        <ele>12.6</ele>
      </trkpt>
      <trkpt lat="36.90654" lon="28.16852">
        <ele>12.6</ele>
      </trkpt>
      <trkpt lat="36.90643" lon="28.1684">
        <ele>12.7</ele>
      </trkpt>
      <trkpt lat="36.90641" lon="28.16839">
        <ele>12.8</ele>
      </trkpt>
      <trkpt lat="36.90637" lon="28.16833">
        <ele>12.5</ele>
      </trkpt>
      <trkpt lat="36.90633" lon="28.16832">
        <ele>12.8</ele>
      </trkpt>
      <trkpt lat="36.90621" lon="28.16826">
        <ele>13.1</ele>
      </trkpt>
      <trkpt lat="36.90613" lon="28.16821">
        <ele>13.2</ele>
      </trkpt>
      <trkpt lat="36.90605" lon="28.16816">
        <ele>13.3</ele>
      </trkpt>
      <trkpt lat="36.90586" lon="28.16816">
        <ele>14.7</ele>
      </trkpt>
      <trkpt lat="36.90569" lon="28.16822">
        <ele>14.7</ele>
      </trkpt>
      <trkpt lat="36.90561" lon="28.16828">
        <ele>14.7</ele>
      </trkpt>
      <trkpt lat="36.9056" lon="28.16829">
        <ele>14.7</ele>
      </trkpt>
      <trkpt lat="36.90558" lon="28.1683">
        <ele>14.6</ele>
      </trkpt>
      <trkpt lat="36.90557" lon="28.16831">
        <ele>14.5</ele>
      </trkpt>
      <trkpt lat="36.90555" lon="28.16832">
        <ele>14.5</ele>
      </trkpt>
      <trkpt lat="36.90531" lon="28.16836">
        <ele>12.9</ele>
      </trkpt>
      <trkpt lat="36.9053" lon="28.16837">
        <ele>12.9</ele>
      </trkpt>
      <trkpt lat="36.90512" lon="28.16842">
        <ele>12</ele>
      </trkpt>
      <trkpt lat="36.905" lon="28.16845">
        <ele>11.3</ele>
      </trkpt>
      <trkpt lat="36.90488" lon="28.1687">
        <ele>13.8</ele>
      </trkpt>
      <trkpt lat="36.90482" lon="28.1688">
        <ele>14.9</ele>
      </trkpt>
      <trkpt lat="36.90477" lon="28.16888">
        <ele>15.8</ele>
      </trkpt>
      <trkpt lat="36.90462" lon="28.16893">
        <ele>16.4</ele>
      </trkpt>
      <trkpt lat="36.90448" lon="28.16894">
        <ele>16.4</ele>
      </trkpt>
      <trkpt lat="36.90428" lon="28.169">
        <ele>17</ele>
      </trkpt>
      <trkpt lat="36.90413" lon="28.16898">
        <ele>17</ele>
      </trkpt>
      <trkpt lat="36.90399" lon="28.16888">
        <ele>16.8</ele>
      </trkpt>
      <trkpt lat="36.90394" lon="28.16894">
        <ele>17.6</ele>
      </trkpt>
      <trkpt lat="36.9039" lon="28.16892">
        <ele>17.7</ele>
      </trkpt>
      <trkpt lat="36.90369" lon="28.16881">
        <ele>18.2</ele>
      </trkpt>
      <trkpt lat="36.9035" lon="28.1688">
        <ele>19.5</ele>
      </trkpt>
      <trkpt lat="36.90336" lon="28.16872">
        <ele>20.2</ele>
      </trkpt>
      <trkpt lat="36.90316" lon="28.16868">
        <ele>21.9</ele>
      </trkpt>
      <trkpt lat="36.90288" lon="28.16871">
        <ele>24.8</ele>
      </trkpt>
      <trkpt lat="36.90271" lon="28.16866">
        <ele>26.2</ele>
      </trkpt>
      <trkpt lat="36.90253" lon="28.1686">
        <ele>27.3</ele>
      </trkpt>
      <trkpt lat="36.90246" lon="28.16845">
        <ele>27</ele>
      </trkpt>
      <trkpt lat="36.90231" lon="28.16817">
        <ele>27.1</ele>
      </trkpt>
      <trkpt lat="36.90231" lon="28.16815">
        <ele>26.9</ele>
      </trkpt>
      <trkpt lat="36.90213" lon="28.16782">
        <ele>26.4</ele>
      </trkpt>
      <trkpt lat="36.90198" lon="28.16765">
        <ele>26.2</ele>
      </trkpt>
      <trkpt lat="36.90189" lon="28.16749">
        <ele>25.3</ele>
      </trkpt>
      <trkpt lat="36.90181" lon="28.16741">
        <ele>25.6</ele>
      </trkpt>
      <trkpt lat="36.90165" lon="28.16721">
        <ele>26</ele>
      </trkpt>
      <trkpt lat="36.90162" lon="28.16718">
        <ele>26.3</ele>
      </trkpt>
      <trkpt lat="36.9016" lon="28.16714">
        <ele>26.5</ele>
      </trkpt>
      <trkpt lat="36.90153" lon="28.16706">
        <ele>27.1</ele>
      </trkpt>
      <trkpt lat="36.90155" lon="28.16707">
        <ele>26.8</ele>
      </trkpt>
      <trkpt lat="36.9015" lon="28.16698">
        <ele>26.8</ele>
      </trkpt>
      <trkpt lat="36.90145" lon="28.16692">
        <ele>27.1</ele>
      </trkpt>
      <trkpt lat="36.9014" lon="28.16686">
        <ele>27</ele>
      </trkpt>
      <trkpt lat="36.90131" lon="28.16669">
        <ele>26.1</ele>
      </trkpt>
      <trkpt lat="36.90117" lon="28.16651">
        <ele>25.4</ele>
      </trkpt>
      <trkpt lat="36.90101" lon="28.16629">
        <ele>23.5</ele>
      </trkpt>
      <trkpt lat="36.90086" lon="28.16618">
        <ele>22.4</ele>
      </trkpt>
      <trkpt lat="36.90081" lon="28.16606">
        <ele>20.5</ele>
      </trkpt>
      <trkpt lat="36.90079" lon="28.16597">
        <ele>19.1</ele>
      </trkpt>
      <trkpt lat="36.90078" lon="28.16596">
        <ele>18.8</ele>
      </trkpt>
      <trkpt lat="36.90075" lon="28.1659">
        <ele>17.9</ele>
      </trkpt>
      <trkpt lat="36.90072" lon="28.16586">
        <ele>17.3</ele>
      </trkpt>
      <trkpt lat="36.90074" lon="28.16577">
        <ele>16.4</ele>
      </trkpt>
      <trkpt lat="36.90073" lon="28.16569">
        <ele>16.3</ele>
      </trkpt>
      <trkpt lat="36.90073" lon="28.16569">
        <ele>16.3</ele>
      </trkpt>
      <trkpt lat="36.90074" lon="28.16572">
        <ele>16.2</ele>
      </trkpt>
      <trkpt lat="36.90072" lon="28.16575">
        <ele>16.5</ele>
      </trkpt>
      <trkpt lat="36.90069" lon="28.16573">
        <ele>16.6</ele>
      </trkpt>
      <trkpt lat="36.90069" lon="28.16573">
        <ele>16.6</ele>
      </trkpt>
      <trkpt lat="36.9007" lon="28.16568">
        <ele>16.4</ele>
      </trkpt>
      <trkpt lat="36.90071" lon="28.16567">
        <ele>16.3</ele>
      </trkpt>
      <trkpt lat="36.90072" lon="28.16565">
        <ele>16.2</ele>
      </trkpt>
      <trkpt lat="36.90073" lon="28.16559">
        <ele>16</ele>
      </trkpt>
      <trkpt lat="36.90077" lon="28.16539">
        <ele>15.3</ele>
      </trkpt>
      <trkpt lat="36.90084" lon="28.16531">
        <ele>14.8</ele>
      </trkpt>
      <trkpt lat="36.90084" lon="28.1653">
        <ele>14.7</ele>
      </trkpt>
      <trkpt lat="36.90085" lon="28.16528">
        <ele>14.7</ele>
      </trkpt>
      <trkpt lat="36.90085" lon="28.16526">
        <ele>14.6</ele>
      </trkpt>
      <trkpt lat="36.90086" lon="28.16524">
        <ele>14.6</ele>
      </trkpt>
      <trkpt lat="36.90086" lon="28.16523">
        <ele>14.6</ele>
      </trkpt>
      <trkpt lat="36.90085" lon="28.16522">
        <ele>14.5</ele>
      </trkpt>
      <trkpt lat="36.90085" lon="28.16517">
        <ele>14.4</ele>
      </trkpt>
      <trkpt lat="36.90087" lon="28.16516">
        <ele>14.4</ele>
      </trkpt>
      <trkpt lat="36.90087" lon="28.16517">
        <ele>14.4</ele>
      </trkpt>
      <trkpt lat="36.90087" lon="28.16516">
        <ele>14.4</ele>
      </trkpt>
      <trkpt lat="36.90088" lon="28.16515">
        <ele>14.4</ele>
      </trkpt>
      <trkpt lat="36.90092" lon="28.16508">
        <ele>14.3</ele>
      </trkpt>
      <trkpt lat="36.90098" lon="28.16495">
        <ele>14.4</ele>
      </trkpt>
      <trkpt lat="36.90098" lon="28.16489">
        <ele>14.7</ele>
      </trkpt>
      <trkpt lat="36.901" lon="28.16486">
        <ele>14.8</ele>
      </trkpt>
      <trkpt lat="36.90105" lon="28.16479">
        <ele>15.2</ele>
      </trkpt>
      <trkpt lat="36.90113" lon="28.16454">
        <ele>16.4</ele>
      </trkpt>
      <trkpt lat="36.90139" lon="28.16432">
        <ele>17.4</ele>
      </trkpt>
      <trkpt lat="36.90151" lon="28.1643">
        <ele>17.5</ele>
      </trkpt>
      <trkpt lat="36.9016" lon="28.16432">
        <ele>17.4</ele>
      </trkpt>
      <trkpt lat="36.90161" lon="28.16433">
        <ele>17.4</ele>
      </trkpt>
      <trkpt lat="36.90163" lon="28.16433">
        <ele>17.4</ele>
      </trkpt>
      <trkpt lat="36.90169" lon="28.16436">
        <ele>17.4</ele>
      </trkpt>
      <trkpt lat="36.90171" lon="28.16436">
        <ele>17.5</ele>
      </trkpt>
      <trkpt lat="36.90172" lon="28.16436">
        <ele>17.6</ele>
      </trkpt>
      <trkpt lat="36.90182" lon="28.1644">
        <ele>17.8</ele>
      </trkpt>
      <trkpt lat="36.90194" lon="28.16444">
        <ele>18.1</ele>
      </trkpt>
      <trkpt lat="36.9021" lon="28.1645">
        <ele>18.3</ele>
      </trkpt>
      <trkpt lat="36.90217" lon="28.16456">
        <ele>18.1</ele>
      </trkpt>
      <trkpt lat="36.90231" lon="28.1647">
        <ele>17.5</ele>
      </trkpt>
      <trkpt lat="36.90243" lon="28.16474">
        <ele>17.3</ele>
      </trkpt>
      <trkpt lat="36.90266" lon="28.16488">
        <ele>15.8</ele>
      </trkpt>
      <trkpt lat="36.90277" lon="28.16495">
        <ele>14.8</ele>
      </trkpt>
      <trkpt lat="36.90297" lon="28.16489">
        <ele>14.9</ele>
      </trkpt>
      <trkpt lat="36.90312" lon="28.16471">
        <ele>16.3</ele>
      </trkpt>
      <trkpt lat="36.90326" lon="28.16456">
        <ele>17.4</ele>
      </trkpt>
      <trkpt lat="36.90333" lon="28.16436">
        <ele>19.2</ele>
      </trkpt>
      <trkpt lat="36.90335" lon="28.16424">
        <ele>20.2</ele>
      </trkpt>
      <trkpt lat="36.90345" lon="28.1641">
        <ele>20.5</ele>
      </trkpt>
      <trkpt lat="36.90367" lon="28.16397">
        <ele>19.2</ele>
      </trkpt>
      <trkpt lat="36.90385" lon="28.16371">
        <ele>18.1</ele>
      </trkpt>
      <trkpt lat="36.90394" lon="28.16349">
        <ele>17.5</ele>
      </trkpt>
      <trkpt lat="36.90401" lon="28.16338">
        <ele>16.6</ele>
      </trkpt>
      <trkpt lat="36.9041" lon="28.16324">
        <ele>16.2</ele>
      </trkpt>
      <trkpt lat="36.90411" lon="28.16322">
        <ele>16.2</ele>
      </trkpt>
      <trkpt lat="36.90413" lon="28.1632">
        <ele>16.1</ele>
      </trkpt>
      <trkpt lat="36.9042" lon="28.16313">
        <ele>16.3</ele>
      </trkpt>
      <trkpt lat="36.90441" lon="28.16292">
        <ele>19.2</ele>
      </trkpt>
      <trkpt lat="36.90464" lon="28.16305">
        <ele>18.6</ele>
      </trkpt>
      <trkpt lat="36.90468" lon="28.16316">
        <ele>17.6</ele>
      </trkpt>
      <trkpt lat="36.90469" lon="28.16316">
        <ele>17.7</ele>
      </trkpt>
      <trkpt lat="36.9048" lon="28.16338">
        <ele>15.8</ele>
      </trkpt>
      <trkpt lat="36.90481" lon="28.16342">
        <ele>15.5</ele>
      </trkpt>
      <trkpt lat="36.90504" lon="28.16359">
        <ele>13.5</ele>
      </trkpt>
      <trkpt lat="36.90528" lon="28.16348">
        <ele>11.5</ele>
      </trkpt>
      <trkpt lat="36.90535" lon="28.1634">
        <ele>11.3</ele>
      </trkpt>
      <trkpt lat="36.90542" lon="28.16331">
        <ele>11.2</ele>
      </trkpt>
      <trkpt lat="36.90541" lon="28.16333">
        <ele>11.2</ele>
      </trkpt>
      <trkpt lat="36.90561" lon="28.16312">
        <ele>10.9</ele>
      </trkpt>
      <trkpt lat="36.90576" lon="28.16285">
        <ele>12.2</ele>
      </trkpt>
      <trkpt lat="36.90591" lon="28.16258">
        <ele>14.9</ele>
      </trkpt>
      <trkpt lat="36.90601" lon="28.16245">
        <ele>16.4</ele>
      </trkpt>
      <trkpt lat="36.90602" lon="28.16244">
        <ele>16.5</ele>
      </trkpt>
      <trkpt lat="36.90604" lon="28.16242">
        <ele>16.5</ele>
      </trkpt>
      <trkpt lat="36.90606" lon="28.16241">
        <ele>16.5</ele>
      </trkpt>
      <trkpt lat="36.90607" lon="28.1624">
        <ele>16.6</ele>
      </trkpt>
      <trkpt lat="36.90607" lon="28.16238">
        <ele>16.7</ele>
      </trkpt>
      <trkpt lat="36.90608" lon="28.16237">
        <ele>16.7</ele>
      </trkpt>
      <trkpt lat="36.90608" lon="28.16235">
        <ele>16.8</ele>
      </trkpt>
      <trkpt lat="36.90622" lon="28.16218">
        <ele>16.3</ele>
      </trkpt>
      <trkpt lat="36.90631" lon="28.16205">
        <ele>15.2</ele>
      </trkpt>
      <trkpt lat="36.9064" lon="28.16181">
        <ele>12.7</ele>
      </trkpt>
      <trkpt lat="36.90641" lon="28.16159">
        <ele>12.4</ele>
      </trkpt>
      <trkpt lat="36.90641" lon="28.16157">
        <ele>12.8</ele>
      </trkpt>
      <trkpt lat="36.90641" lon="28.16153">
        <ele>13.1</ele>
      </trkpt>
      <trkpt lat="36.90642" lon="28.16152">
        <ele>13.1</ele>
      </trkpt>
      <trkpt lat="36.90645" lon="28.16146">
        <ele>12.9</ele>
      </trkpt>
      <trkpt lat="36.90648" lon="28.16127">
        <ele>14</ele>
      </trkpt>
      <trkpt lat="36.90658" lon="28.16099">
        <ele>14.3</ele>
      </trkpt>
      <trkpt lat="36.90658" lon="28.16097">
        <ele>14.5</ele>
      </trkpt>
      <trkpt lat="36.90658" lon="28.16096">
        <ele>14.7</ele>
      </trkpt>
      <trkpt lat="36.90665" lon="28.16068">
        <ele>14.3</ele>
      </trkpt>
      <trkpt lat="36.90667" lon="28.16041">
        <ele>13.4</ele>
      </trkpt>
      <trkpt lat="36.90671" lon="28.16005">
        <ele>12.4</ele>
      </trkpt>
      <trkpt lat="36.90679" lon="28.15984">
        <ele>12.6</ele>
      </trkpt>
      <trkpt lat="36.90679" lon="28.15983">
        <ele>12.7</ele>
      </trkpt>
      <trkpt lat="36.90681" lon="28.15976">
        <ele>13</ele>
      </trkpt>
      <trkpt lat="36.90688" lon="28.15955">
        <ele>13.3</ele>
      </trkpt>
      <trkpt lat="36.90692" lon="28.15943">
        <ele>13.6</ele>
      </trkpt>
      <trkpt lat="36.90708" lon="28.15911">
        <ele>12.4</ele>
      </trkpt>
      <trkpt lat="36.90729" lon="28.15885">
        <ele>9.1</ele>
      </trkpt>
      <trkpt lat="36.90739" lon="28.1587">
        <ele>8</ele>
      </trkpt>
      <trkpt lat="36.9074" lon="28.15851">
        <ele>8.7</ele>
      </trkpt>
      <trkpt lat="36.90741" lon="28.15849">
        <ele>8.7</ele>
      </trkpt>
      <trkpt lat="36.90731" lon="28.15825">
        <ele>11.4</ele>
      </trkpt>
      <trkpt lat="36.9073" lon="28.15808">
        <ele>11.8</ele>
      </trkpt>
      <trkpt lat="36.90728" lon="28.15802">
        <ele>12.3</ele>
      </trkpt>
      <trkpt lat="36.90728" lon="28.158">
        <ele>12.4</ele>
      </trkpt>
      <trkpt lat="36.90727" lon="28.15795">
        <ele>12.5</ele>
      </trkpt>
      <trkpt lat="36.90727" lon="28.15793">
        <ele>12.5</ele>
      </trkpt>
      <trkpt lat="36.90728" lon="28.1579">
        <ele>12.5</ele>
      </trkpt>
      <trkpt lat="36.90725" lon="28.15764">
        <ele>13.3</ele>
      </trkpt>
      <trkpt lat="36.90726" lon="28.15755">
        <ele>13.3</ele>
      </trkpt>
      <trkpt lat="36.90729" lon="28.15747">
        <ele>13</ele>
      </trkpt>
      <trkpt lat="36.90731" lon="28.15745">
        <ele>12.8</ele>
      </trkpt>
      <trkpt lat="36.90732" lon="28.15743">
        <ele>12.7</ele>
      </trkpt>
      <trkpt lat="36.90728" lon="28.15736">
        <ele>13.3</ele>
      </trkpt>
      <trkpt lat="36.90736" lon="28.15717">
        <ele>12.4</ele>
      </trkpt>
      <trkpt lat="36.90738" lon="28.15709">
        <ele>12.4</ele>
      </trkpt>
      <trkpt lat="36.9074" lon="28.15705">
        <ele>12.2</ele>
      </trkpt>
      <trkpt lat="36.9075" lon="28.15693">
        <ele>11.4</ele>
      </trkpt>
      <trkpt lat="36.90757" lon="28.15669">
        <ele>12.3</ele>
      </trkpt>
      <trkpt lat="36.90757" lon="28.15667">
        <ele>12.3</ele>
      </trkpt>
      <trkpt lat="36.90758" lon="28.15666">
        <ele>12.4</ele>
      </trkpt>
      <trkpt lat="36.90758" lon="28.15664">
        <ele>12.4</ele>
      </trkpt>
      <trkpt lat="36.90758" lon="28.15662">
        <ele>12.4</ele>
      </trkpt>
      <trkpt lat="36.90759" lon="28.1566">
        <ele>12.5</ele>
      </trkpt>
      <trkpt lat="36.90759" lon="28.15658">
        <ele>12.5</ele>
      </trkpt>
      <trkpt lat="36.90755" lon="28.15633">
        <ele>12.5</ele>
      </trkpt>
      <trkpt lat="36.90753" lon="28.15602">
        <ele>12.4</ele>
      </trkpt>
      <trkpt lat="36.90753" lon="28.15579">
        <ele>12.8</ele>
      </trkpt>
      <trkpt lat="36.90753" lon="28.15565">
        <ele>13.6</ele>
      </trkpt>
      <trkpt lat="36.90753" lon="28.15563">
        <ele>13.7</ele>
      </trkpt>
      <trkpt lat="36.90753" lon="28.15562">
        <ele>13.8</ele>
      </trkpt>
      <trkpt lat="36.90752" lon="28.1556">
        <ele>13.8</ele>
      </trkpt>
      <trkpt lat="36.90751" lon="28.15559">
        <ele>13.8</ele>
      </trkpt>
      <trkpt lat="36.90751" lon="28.15557">
        <ele>13.9</ele>
      </trkpt>
      <trkpt lat="36.90748" lon="28.15546">
        <ele>14.2</ele>
      </trkpt>
      <trkpt lat="36.90746" lon="28.15533">
        <ele>15</ele>
      </trkpt>
      <trkpt lat="36.90745" lon="28.15531">
        <ele>15.1</ele>
      </trkpt>
      <trkpt lat="36.90748" lon="28.15527">
        <ele>15.3</ele>
      </trkpt>
      <trkpt lat="36.90743" lon="28.15505">
        <ele>16.5</ele>
      </trkpt>
      <trkpt lat="36.90738" lon="28.15484">
        <ele>18.2</ele>
      </trkpt>
      <trkpt lat="36.90726" lon="28.15471">
        <ele>18.8</ele>
      </trkpt>
      <trkpt lat="36.90716" lon="28.1545">
        <ele>19.6</ele>
      </trkpt>
      <trkpt lat="36.90715" lon="28.15448">
        <ele>19.6</ele>
      </trkpt>
      <trkpt lat="36.90712" lon="28.15442">
        <ele>19.8</ele>
      </trkpt>
      <trkpt lat="36.90712" lon="28.15439">
        <ele>20</ele>
      </trkpt>
      <trkpt lat="36.90707" lon="28.15423">
        <ele>20.4</ele>
      </trkpt>
      <trkpt lat="36.90707" lon="28.15421">
        <ele>20.6</ele>
      </trkpt>
      <trkpt lat="36.90706" lon="28.15416">
        <ele>20.6</ele>
      </trkpt>
      <trkpt lat="36.90699" lon="28.15401">
        <ele>20.3</ele>
      </trkpt>
      <trkpt lat="36.90697" lon="28.15399">
        <ele>20.2</ele>
      </trkpt>
      <trkpt lat="36.90696" lon="28.15397">
        <ele>20.1</ele>
      </trkpt>
      <trkpt lat="36.90693" lon="28.15387">
        <ele>20</ele>
      </trkpt>
      <trkpt lat="36.90692" lon="28.15386">
        <ele>20</ele>
      </trkpt>
      <trkpt lat="36.90689" lon="28.15377">
        <ele>19.9</ele>
      </trkpt>
      <trkpt lat="36.9069" lon="28.15362">
        <ele>20.6</ele>
      </trkpt>
      <trkpt lat="36.90692" lon="28.15339">
        <ele>22</ele>
      </trkpt>
      <trkpt lat="36.90692" lon="28.15312">
        <ele>23</ele>
      </trkpt>
      <trkpt lat="36.90691" lon="28.15308">
        <ele>23</ele>
      </trkpt>
      <trkpt lat="36.9069" lon="28.15288">
        <ele>23.6</ele>
      </trkpt>
      <trkpt lat="36.90689" lon="28.15263">
        <ele>24.4</ele>
      </trkpt>
      <trkpt lat="36.90683" lon="28.15232">
        <ele>24.4</ele>
      </trkpt>
      <trkpt lat="36.90676" lon="28.15206">
        <ele>23.5</ele>
      </trkpt>
      <trkpt lat="36.90676" lon="28.15204">
        <ele>23.5</ele>
      </trkpt>
      <trkpt lat="36.90674" lon="28.152">
        <ele>23.1</ele>
      </trkpt>
      <trkpt lat="36.90673" lon="28.15199">
        <ele>23.1</ele>
      </trkpt>
      <trkpt lat="36.90672" lon="28.15197">
        <ele>23</ele>
      </trkpt>
      <trkpt lat="36.90671" lon="28.15195">
        <ele>22.7</ele>
      </trkpt>
      <trkpt lat="36.90669" lon="28.15189">
        <ele>22.5</ele>
      </trkpt>
      <trkpt lat="36.90666" lon="28.15176">
        <ele>22</ele>
      </trkpt>
      <trkpt lat="36.90655" lon="28.15152">
        <ele>22.3</ele>
      </trkpt>
      <trkpt lat="36.90652" lon="28.15134">
        <ele>22.6</ele>
      </trkpt>
      <trkpt lat="36.90647" lon="28.15105">
        <ele>23.2</ele>
      </trkpt>
      <trkpt lat="36.90647" lon="28.15091">
        <ele>23.4</ele>
      </trkpt>
      <trkpt lat="36.90647" lon="28.1509">
        <ele>23.4</ele>
      </trkpt>
      <trkpt lat="36.90648" lon="28.15071">
        <ele>23.8</ele>
      </trkpt>
      <trkpt lat="36.90662" lon="28.15037">
        <ele>24.2</ele>
      </trkpt>
      <trkpt lat="36.90671" lon="28.15007">
        <ele>25.8</ele>
      </trkpt>
      <trkpt lat="36.90675" lon="28.14981">
        <ele>27.7</ele>
      </trkpt>
      <trkpt lat="36.90673" lon="28.14956">
        <ele>27.8</ele>
      </trkpt>
      <trkpt lat="36.90669" lon="28.14929">
        <ele>27.4</ele>
      </trkpt>
      <trkpt lat="36.90663" lon="28.14907">
        <ele>27.3</ele>
      </trkpt>
      <trkpt lat="36.90663" lon="28.14905">
        <ele>27.4</ele>
      </trkpt>
      <trkpt lat="36.90663" lon="28.14904">
        <ele>27.4</ele>
      </trkpt>
      <trkpt lat="36.9066" lon="28.1489">
        <ele>27.8</ele>
      </trkpt>
      <trkpt lat="36.90661" lon="28.14887">
        <ele>27.9</ele>
      </trkpt>
      <trkpt lat="36.90663" lon="28.14872">
        <ele>28.1</ele>
      </trkpt>
      <trkpt lat="36.90662" lon="28.14851">
        <ele>28.6</ele>
      </trkpt>
      <trkpt lat="36.90665" lon="28.1483">
        <ele>29.1</ele>
      </trkpt>
      <trkpt lat="36.90667" lon="28.14812">
        <ele>29.5</ele>
      </trkpt>
      <trkpt lat="36.90667" lon="28.1481">
        <ele>29.6</ele>
      </trkpt>
      <trkpt lat="36.90667" lon="28.14808">
        <ele>29.6</ele>
      </trkpt>
      <trkpt lat="36.90666" lon="28.14805">
        <ele>29.7</ele>
      </trkpt>
      <trkpt lat="36.90666" lon="28.14803">
        <ele>29.7</ele>
      </trkpt>
      <trkpt lat="36.90667" lon="28.14794">
        <ele>30</ele>
      </trkpt>
      <trkpt lat="36.9067" lon="28.14775">
        <ele>31</ele>
      </trkpt>
      <trkpt lat="36.90672" lon="28.14762">
        <ele>31.4</ele>
      </trkpt>
      <trkpt lat="36.90672" lon="28.14744">
        <ele>31.7</ele>
      </trkpt>
      <trkpt lat="36.90672" lon="28.14743">
        <ele>31.7</ele>
      </trkpt>
      <trkpt lat="36.90672" lon="28.14741">
        <ele>31.7</ele>
      </trkpt>
      <trkpt lat="36.90672" lon="28.14737">
        <ele>31.8</ele>
      </trkpt>
      <trkpt lat="36.90673" lon="28.14724">
        <ele>31.8</ele>
      </trkpt>
      <trkpt lat="36.90673" lon="28.14722">
        <ele>31.8</ele>
      </trkpt>
      <trkpt lat="36.90673" lon="28.1472">
        <ele>31.8</ele>
      </trkpt>
      <trkpt lat="36.90673" lon="28.14719">
        <ele>31.8</ele>
      </trkpt>
      <trkpt lat="36.90672" lon="28.14701">
        <ele>31.6</ele>
      </trkpt>
      <trkpt lat="36.90671" lon="28.14697">
        <ele>31.6</ele>
      </trkpt>
      <trkpt lat="36.90675" lon="28.14678">
        <ele>32.1</ele>
      </trkpt>
      <trkpt lat="36.90675" lon="28.14665">
        <ele>32</ele>
      </trkpt>
      <trkpt lat="36.90672" lon="28.14651">
        <ele>31.5</ele>
      </trkpt>
      <trkpt lat="36.90668" lon="28.14649">
        <ele>30.9</ele>
      </trkpt>
      <trkpt lat="36.9067" lon="28.14652">
        <ele>31.2</ele>
      </trkpt>
      <trkpt lat="36.9067" lon="28.14655">
        <ele>31.2</ele>
      </trkpt>
      <trkpt lat="36.9067" lon="28.14656">
        <ele>31.3</ele>
      </trkpt>
      <trkpt lat="36.90684" lon="28.14647">
        <ele>32.9</ele>
      </trkpt>
      <trkpt lat="36.90687" lon="28.14639">
        <ele>33.2</ele>
      </trkpt>
      <trkpt lat="36.90685" lon="28.14638">
        <ele>32.9</ele>
      </trkpt>
      <trkpt lat="36.90688" lon="28.14628">
        <ele>33.2</ele>
      </trkpt>
      <trkpt lat="36.90688" lon="28.14606">
        <ele>33</ele>
      </trkpt>
      <trkpt lat="36.90695" lon="28.14577">
        <ele>34.1</ele>
      </trkpt>
      <trkpt lat="36.90696" lon="28.14552">
        <ele>35.5</ele>
      </trkpt>
      <trkpt lat="36.907" lon="28.14529">
        <ele>37.2</ele>
      </trkpt>
      <trkpt lat="36.90702" lon="28.14514">
        <ele>38.1</ele>
      </trkpt>
      <trkpt lat="36.90702" lon="28.14496">
        <ele>39</ele>
      </trkpt>
      <trkpt lat="36.90703" lon="28.14476">
        <ele>40.2</ele>
      </trkpt>
      <trkpt lat="36.90705" lon="28.14458">
        <ele>41.3</ele>
      </trkpt>
      <trkpt lat="36.90708" lon="28.14445">
        <ele>42.1</ele>
      </trkpt>
      <trkpt lat="36.90714" lon="28.14426">
        <ele>43.3</ele>
      </trkpt>
      <trkpt lat="36.90714" lon="28.14425">
        <ele>43.4</ele>
      </trkpt>
      <trkpt lat="36.90714" lon="28.14422">
        <ele>43.5</ele>
      </trkpt>
      <trkpt lat="36.90715" lon="28.1442">
        <ele>43.6</ele>
      </trkpt>
      <trkpt lat="36.90715" lon="28.14418">
        <ele>43.7</ele>
      </trkpt>
      <trkpt lat="36.90716" lon="28.14413">
        <ele>44</ele>
      </trkpt>
      <trkpt lat="36.90716" lon="28.14411">
        <ele>44</ele>
      </trkpt>
      <trkpt lat="36.90716" lon="28.14409">
        <ele>44.1</ele>
      </trkpt>
      <trkpt lat="36.90717" lon="28.14408">
        <ele>44.2</ele>
      </trkpt>
      <trkpt lat="36.90717" lon="28.14406">
        <ele>44.3</ele>
      </trkpt>
      <trkpt lat="36.90718" lon="28.14404">
        <ele>44.4</ele>
      </trkpt>
      <trkpt lat="36.90716" lon="28.14404">
        <ele>44.4</ele>
      </trkpt>
      <trkpt lat="36.90716" lon="28.14404">
        <ele>44.4</ele>
      </trkpt>
      <trkpt lat="36.90714" lon="28.14402">
        <ele>44.5</ele>
      </trkpt>
      <trkpt lat="36.90715" lon="28.14405">
        <ele>44.3</ele>
      </trkpt>
      <trkpt lat="36.90722" lon="28.14401">
        <ele>44.5</ele>
      </trkpt>
      <trkpt lat="36.90723" lon="28.144">
        <ele>44.5</ele>
      </trkpt>
      <trkpt lat="36.90735" lon="28.14382">
        <ele>44.5</ele>
      </trkpt>
      <trkpt lat="36.90744" lon="28.14369">
        <ele>43.7</ele>
      </trkpt>
      <trkpt lat="36.90746" lon="28.14367">
        <ele>43.6</ele>
      </trkpt>
      <trkpt lat="36.90747" lon="28.14366">
        <ele>43.4</ele>
      </trkpt>
      <trkpt lat="36.90759" lon="28.14348">
        <ele>42.2</ele>
      </trkpt>
      <trkpt lat="36.90772" lon="28.1433">
        <ele>40.2</ele>
      </trkpt>
      <trkpt lat="36.90775" lon="28.14318">
        <ele>39</ele>
      </trkpt>
      <trkpt lat="36.90775" lon="28.14317">
        <ele>38.8</ele>
      </trkpt>
      <trkpt lat="36.90776" lon="28.14315">
        <ele>38.7</ele>
      </trkpt>
      <trkpt lat="36.90786" lon="28.14298">
        <ele>36.1</ele>
      </trkpt>
      <trkpt lat="36.90793" lon="28.1428">
        <ele>33.4</ele>
      </trkpt>
      <trkpt lat="36.90794" lon="28.14264">
        <ele>31.5</ele>
      </trkpt>
      <trkpt lat="36.9079" lon="28.14244">
        <ele>30.3</ele>
      </trkpt>
      <trkpt lat="36.90789" lon="28.14242">
        <ele>30.3</ele>
      </trkpt>
      <trkpt lat="36.90787" lon="28.14236">
        <ele>30.4</ele>
      </trkpt>
      <trkpt lat="36.90784" lon="28.14221">
        <ele>29.8</ele>
      </trkpt>
      <trkpt lat="36.90784" lon="28.14208">
        <ele>28.7</ele>
      </trkpt>
      <trkpt lat="36.9079" lon="28.14186">
        <ele>26.2</ele>
      </trkpt>
      <trkpt lat="36.90792" lon="28.14174">
        <ele>25</ele>
      </trkpt>
      <trkpt lat="36.90793" lon="28.14166">
        <ele>24.2</ele>
      </trkpt>
      <trkpt lat="36.908" lon="28.14148">
        <ele>22.7</ele>
      </trkpt>
      <trkpt lat="36.90808" lon="28.14127">
        <ele>20.8</ele>
      </trkpt>
      <trkpt lat="36.90812" lon="28.14104">
        <ele>19.5</ele>
      </trkpt>
      <trkpt lat="36.9082" lon="28.14082">
        <ele>17.5</ele>
      </trkpt>
      <trkpt lat="36.90828" lon="28.14063">
        <ele>16.7</ele>
      </trkpt>
      <trkpt lat="36.9083" lon="28.14056">
        <ele>16.5</ele>
      </trkpt>
      <trkpt lat="36.90835" lon="28.14036">
        <ele>16.1</ele>
      </trkpt>
      <trkpt lat="36.90839" lon="28.14004">
        <ele>16.7</ele>
      </trkpt>
      <trkpt lat="36.90833" lon="28.13979">
        <ele>17</ele>
      </trkpt>
      <trkpt lat="36.90833" lon="28.13977">
        <ele>17.2</ele>
      </trkpt>
      <trkpt lat="36.90832" lon="28.13975">
        <ele>17.3</ele>
      </trkpt>
      <trkpt lat="36.90831" lon="28.13973">
        <ele>17.6</ele>
      </trkpt>
      <trkpt lat="36.90831" lon="28.13971">
        <ele>17.8</ele>
      </trkpt>
      <trkpt lat="36.9083" lon="28.1397">
        <ele>18</ele>
      </trkpt>
      <trkpt lat="36.9083" lon="28.13968">
        <ele>17.9</ele>
      </trkpt>
      <trkpt lat="36.90831" lon="28.13964">
        <ele>17.8</ele>
      </trkpt>
      <trkpt lat="36.90831" lon="28.13962">
        <ele>17.8</ele>
      </trkpt>
      <trkpt lat="36.90827" lon="28.13957">
        <ele>18.7</ele>
      </trkpt>
      <trkpt lat="36.90827" lon="28.13956">
        <ele>18.9</ele>
      </trkpt>
      <trkpt lat="36.90827" lon="28.13954">
        <ele>18.7</ele>
      </trkpt>
      <trkpt lat="36.90824" lon="28.13945">
        <ele>19.6</ele>
      </trkpt>
      <trkpt lat="36.90824" lon="28.13929">
        <ele>19.7</ele>
      </trkpt>
      <trkpt lat="36.90829" lon="28.13912">
        <ele>18.1</ele>
      </trkpt>
      <trkpt lat="36.90837" lon="28.13895">
        <ele>16.4</ele>
      </trkpt>
      <trkpt lat="36.90853" lon="28.13881">
        <ele>15.9</ele>
      </trkpt>
      <trkpt lat="36.90878" lon="28.13864">
        <ele>15.3</ele>
      </trkpt>
      <trkpt lat="36.90897" lon="28.13849">
        <ele>15.1</ele>
      </trkpt>
      <trkpt lat="36.9091" lon="28.1383">
        <ele>15.1</ele>
      </trkpt>
      <trkpt lat="36.90913" lon="28.13827">
        <ele>15.2</ele>
      </trkpt>
      <trkpt lat="36.90917" lon="28.13825">
        <ele>15.3</ele>
      </trkpt>
      <trkpt lat="36.90921" lon="28.13826">
        <ele>15.8</ele>
      </trkpt>
      <trkpt lat="36.90922" lon="28.13827">
        <ele>15.8</ele>
      </trkpt>
      <trkpt lat="36.90919" lon="28.13821">
        <ele>15.7</ele>
      </trkpt>
      <trkpt lat="36.90917" lon="28.13818">
        <ele>15.6</ele>
      </trkpt>
      <trkpt lat="36.90924" lon="28.13819">
        <ele>16.3</ele>
      </trkpt>
      <trkpt lat="36.90925" lon="28.13819">
        <ele>16.5</ele>
      </trkpt>
      <trkpt lat="36.90926" lon="28.1382">
        <ele>16.6</ele>
      </trkpt>
      <trkpt lat="36.90931" lon="28.13823">
        <ele>17</ele>
      </trkpt>
      <trkpt lat="36.90943" lon="28.13833">
        <ele>17.8</ele>
      </trkpt>
      <trkpt lat="36.90953" lon="28.13843">
        <ele>18.6</ele>
      </trkpt>
      <trkpt lat="36.90955" lon="28.13844">
        <ele>18.7</ele>
      </trkpt>
      <trkpt lat="36.9096" lon="28.13851">
        <ele>18.9</ele>
      </trkpt>
      <trkpt lat="36.90961" lon="28.13852">
        <ele>18.9</ele>
      </trkpt>
      <trkpt lat="36.90963" lon="28.13852">
        <ele>19</ele>
      </trkpt>
      <trkpt lat="36.90963" lon="28.13853">
        <ele>19</ele>
      </trkpt>
      <trkpt lat="36.90964" lon="28.13854">
        <ele>19</ele>
      </trkpt>
      <trkpt lat="36.90969" lon="28.1386">
        <ele>19</ele>
      </trkpt>
      <trkpt lat="36.90971" lon="28.13864">
        <ele>18.9</ele>
      </trkpt>
      <trkpt lat="36.90972" lon="28.13865">
        <ele>19</ele>
      </trkpt>
      <trkpt lat="36.90975" lon="28.13869">
        <ele>18.9</ele>
      </trkpt>
      <trkpt lat="36.90979" lon="28.13874">
        <ele>18.8</ele>
      </trkpt>
      <trkpt lat="36.9098" lon="28.13876">
        <ele>18.7</ele>
      </trkpt>
      <trkpt lat="36.90981" lon="28.13879">
        <ele>18.6</ele>
      </trkpt>
      <trkpt lat="36.90981" lon="28.13881">
        <ele>18.4</ele>
      </trkpt>
      <trkpt lat="36.90982" lon="28.13882">
        <ele>18.4</ele>
      </trkpt>
      <trkpt lat="36.90989" lon="28.13898">
        <ele>17.4</ele>
      </trkpt>
      <trkpt lat="36.91001" lon="28.13914">
        <ele>16.4</ele>
      </trkpt>
      <trkpt lat="36.91003" lon="28.13918">
        <ele>16.3</ele>
      </trkpt>
      <trkpt lat="36.91012" lon="28.13931">
        <ele>16.8</ele>
      </trkpt>
      <trkpt lat="36.91026" lon="28.13939">
        <ele>17.8</ele>
      </trkpt>
      <trkpt lat="36.91027" lon="28.1394">
        <ele>17.9</ele>
      </trkpt>
      <trkpt lat="36.91028" lon="28.13941">
        <ele>17.9</ele>
      </trkpt>
      <trkpt lat="36.9103" lon="28.13943">
        <ele>18</ele>
      </trkpt>
      <trkpt lat="36.91045" lon="28.13956">
        <ele>18.3</ele>
      </trkpt>
      <trkpt lat="36.91046" lon="28.13957">
        <ele>18.3</ele>
      </trkpt>
      <trkpt lat="36.91049" lon="28.13959">
        <ele>18.2</ele>
      </trkpt>
      <trkpt lat="36.91064" lon="28.13969">
        <ele>18.3</ele>
      </trkpt>
      <trkpt lat="36.91065" lon="28.1397">
        <ele>18.2</ele>
      </trkpt>
      <trkpt lat="36.91073" lon="28.13978">
        <ele>17.7</ele>
      </trkpt>
      <trkpt lat="36.91075" lon="28.1398">
        <ele>17.5</ele>
      </trkpt>
      <trkpt lat="36.91079" lon="28.13984">
        <ele>17</ele>
      </trkpt>
      <trkpt lat="36.91089" lon="28.14">
        <ele>15.4</ele>
      </trkpt>
      <trkpt lat="36.91105" lon="28.14018">
        <ele>16.1</ele>
      </trkpt>
      <trkpt lat="36.91112" lon="28.14021">
        <ele>16.4</ele>
      </trkpt>
      <trkpt lat="36.91116" lon="28.14026">
        <ele>16.4</ele>
      </trkpt>
      <trkpt lat="36.91123" lon="28.1403">
        <ele>16.7</ele>
      </trkpt>
      <trkpt lat="36.91145" lon="28.14039">
        <ele>17.2</ele>
      </trkpt>
      <trkpt lat="36.91147" lon="28.1404">
        <ele>17.3</ele>
      </trkpt>
      <trkpt lat="36.91149" lon="28.1404">
        <ele>17.4</ele>
      </trkpt>
      <trkpt lat="36.91159" lon="28.1404">
        <ele>17.8</ele>
      </trkpt>
      <trkpt lat="36.9118" lon="28.14028">
        <ele>20</ele>
      </trkpt>
      <trkpt lat="36.91181" lon="28.14027">
        <ele>20.1</ele>
      </trkpt>
      <trkpt lat="36.91182" lon="28.14026">
        <ele>20.3</ele>
      </trkpt>
      <trkpt lat="36.91186" lon="28.14026">
        <ele>20.6</ele>
      </trkpt>
      <trkpt lat="36.91197" lon="28.14029">
        <ele>21.2</ele>
      </trkpt>
      <trkpt lat="36.91199" lon="28.14031">
        <ele>21.2</ele>
      </trkpt>
      <trkpt lat="36.91207" lon="28.14046">
        <ele>20.5</ele>
      </trkpt>
      <trkpt lat="36.91211" lon="28.14071">
        <ele>18.8</ele>
      </trkpt>
      <trkpt lat="36.91213" lon="28.14076">
        <ele>18.4</ele>
      </trkpt>
      <trkpt lat="36.91219" lon="28.14097">
        <ele>17.8</ele>
      </trkpt>
      <trkpt lat="36.91235" lon="28.14115">
        <ele>17.7</ele>
      </trkpt>
      <trkpt lat="36.91259" lon="28.14118">
        <ele>17.5</ele>
      </trkpt>
      <trkpt lat="36.91282" lon="28.14111">
        <ele>17.1</ele>
      </trkpt>
      <trkpt lat="36.91297" lon="28.14117">
        <ele>16.1</ele>
      </trkpt>
      <trkpt lat="36.91299" lon="28.14118">
        <ele>15.9</ele>
      </trkpt>
      <trkpt lat="36.913" lon="28.14119">
        <ele>15.8</ele>
      </trkpt>
      <trkpt lat="36.9131" lon="28.14132">
        <ele>14.5</ele>
      </trkpt>
      <trkpt lat="36.91312" lon="28.14136">
        <ele>14.2</ele>
      </trkpt>
      <trkpt lat="36.91319" lon="28.14146">
        <ele>13.1</ele>
      </trkpt>
      <trkpt lat="36.91336" lon="28.14169">
        <ele>10.9</ele>
      </trkpt>
      <trkpt lat="36.91338" lon="28.1417">
        <ele>10.9</ele>
      </trkpt>
      <trkpt lat="36.9134" lon="28.14171">
        <ele>10.8</ele>
      </trkpt>
      <trkpt lat="36.91357" lon="28.14171">
        <ele>10.6</ele>
      </trkpt>
      <trkpt lat="36.91371" lon="28.1415">
        <ele>12.1</ele>
      </trkpt>
      <trkpt lat="36.91372" lon="28.14149">
        <ele>12.2</ele>
      </trkpt>
      <trkpt lat="36.91373" lon="28.14147">
        <ele>12.4</ele>
      </trkpt>
      <trkpt lat="36.91374" lon="28.14144">
        <ele>12.6</ele>
      </trkpt>
      <trkpt lat="36.91375" lon="28.14144">
        <ele>12.7</ele>
      </trkpt>
      <trkpt lat="36.91374" lon="28.14142">
        <ele>12.9</ele>
      </trkpt>
      <trkpt lat="36.91374" lon="28.14139">
        <ele>13.2</ele>
      </trkpt>
      <trkpt lat="36.91374" lon="28.14137">
        <ele>13.4</ele>
      </trkpt>
      <trkpt lat="36.91372" lon="28.14111">
        <ele>15.8</ele>
      </trkpt>
      <trkpt lat="36.91368" lon="28.14101">
        <ele>16.6</ele>
      </trkpt>
      <trkpt lat="36.91369" lon="28.14099">
        <ele>16.8</ele>
      </trkpt>
      <trkpt lat="36.91367" lon="28.14098">
        <ele>16.9</ele>
      </trkpt>
      <trkpt lat="36.91371" lon="28.14085">
        <ele>18.2</ele>
      </trkpt>
      <trkpt lat="36.91372" lon="28.14083">
        <ele>18.4</ele>
      </trkpt>
      <trkpt lat="36.91374" lon="28.1408">
        <ele>18.8</ele>
      </trkpt>
      <trkpt lat="36.91375" lon="28.1408">
        <ele>19</ele>
      </trkpt>
      <trkpt lat="36.91377" lon="28.14079">
        <ele>19.1</ele>
      </trkpt>
      <trkpt lat="36.91379" lon="28.14078">
        <ele>19.3</ele>
      </trkpt>
      <trkpt lat="36.9138" lon="28.14077">
        <ele>19.4</ele>
      </trkpt>
      <trkpt lat="36.91383" lon="28.14075">
        <ele>19.8</ele>
      </trkpt>
      <trkpt lat="36.91385" lon="28.14074">
        <ele>20</ele>
      </trkpt>
      <trkpt lat="36.91386" lon="28.14073">
        <ele>20.2</ele>
      </trkpt>
      <trkpt lat="36.9139" lon="28.14072">
        <ele>20.4</ele>
      </trkpt>
      <trkpt lat="36.91392" lon="28.14074">
        <ele>20.2</ele>
      </trkpt>
      <trkpt lat="36.91394" lon="28.14075">
        <ele>20.2</ele>
      </trkpt>
      <trkpt lat="36.91395" lon="28.14077">
        <ele>20</ele>
      </trkpt>
      <trkpt lat="36.91397" lon="28.1408">
        <ele>19.7</ele>
      </trkpt>
      <trkpt lat="36.91411" lon="28.14098">
        <ele>18.1</ele>
      </trkpt>
      <trkpt lat="36.91424" lon="28.14112">
        <ele>17.3</ele>
      </trkpt>
      <trkpt lat="36.91442" lon="28.14119">
        <ele>18.5</ele>
      </trkpt>
      <trkpt lat="36.91452" lon="28.14133">
        <ele>18.2</ele>
      </trkpt>
      <trkpt lat="36.91454" lon="28.1414">
        <ele>17.8</ele>
      </trkpt>
      <trkpt lat="36.91454" lon="28.14141">
        <ele>17.6</ele>
      </trkpt>
      <trkpt lat="36.91455" lon="28.14143">
        <ele>17.4</ele>
      </trkpt>
      <trkpt lat="36.91455" lon="28.14145">
        <ele>17.3</ele>
      </trkpt>
      <trkpt lat="36.91455" lon="28.14147">
        <ele>17.1</ele>
      </trkpt>
      <trkpt lat="36.91451" lon="28.1416">
        <ele>15.2</ele>
      </trkpt>
      <trkpt lat="36.9145" lon="28.14161">
        <ele>15</ele>
      </trkpt>
      <trkpt lat="36.9145" lon="28.14162">
        <ele>14.8</ele>
      </trkpt>
      <trkpt lat="36.91446" lon="28.14183">
        <ele>13.3</ele>
      </trkpt>
      <trkpt lat="36.91451" lon="28.1421">
        <ele>12.8</ele>
      </trkpt>
      <trkpt lat="36.91451" lon="28.14225">
        <ele>12.2</ele>
      </trkpt>
      <trkpt lat="36.91455" lon="28.14249">
        <ele>11.4</ele>
      </trkpt>
      <trkpt lat="36.91458" lon="28.14252">
        <ele>11.5</ele>
      </trkpt>
      <trkpt lat="36.91479" lon="28.14258">
        <ele>12.1</ele>
      </trkpt>
      <trkpt lat="36.91487" lon="28.14259">
        <ele>12.3</ele>
      </trkpt>
      <trkpt lat="36.9151" lon="28.14259">
        <ele>12.3</ele>
      </trkpt>
      <trkpt lat="36.91525" lon="28.1426">
        <ele>11.8</ele>
      </trkpt>
      <trkpt lat="36.9154" lon="28.14262">
        <ele>11.3</ele>
      </trkpt>
      <trkpt lat="36.91561" lon="28.14262">
        <ele>10.6</ele>
      </trkpt>
      <trkpt lat="36.91577" lon="28.14264">
        <ele>10</ele>
      </trkpt>
      <trkpt lat="36.91579" lon="28.14261">
        <ele>10</ele>
      </trkpt>
      <trkpt lat="36.91584" lon="28.1426">
        <ele>9.9</ele>
      </trkpt>
      <trkpt lat="36.91604" lon="28.14249">
        <ele>9.6</ele>
      </trkpt>
      <trkpt lat="36.91606" lon="28.14248">
        <ele>9.8</ele>
      </trkpt>
      <trkpt lat="36.91612" lon="28.1424">
        <ele>11.2</ele>
      </trkpt>
      <trkpt lat="36.91639" lon="28.14246">
        <ele>9.3</ele>
      </trkpt>
      <trkpt lat="36.91658" lon="28.14247">
        <ele>8.6</ele>
      </trkpt>
      <trkpt lat="36.91665" lon="28.14247">
        <ele>8.5</ele>
      </trkpt>
      <trkpt lat="36.91676" lon="28.14244">
        <ele>8.4</ele>
      </trkpt>
      <trkpt lat="36.91695" lon="28.14241">
        <ele>8</ele>
      </trkpt>
      <trkpt lat="36.91715" lon="28.1423">
        <ele>8.1</ele>
      </trkpt>
      <trkpt lat="36.91738" lon="28.1422">
        <ele>7.5</ele>
      </trkpt>
      <trkpt lat="36.91744" lon="28.1422">
        <ele>7.2</ele>
      </trkpt>
      <trkpt lat="36.91761" lon="28.1423">
        <ele>7.3</ele>
      </trkpt>
      <trkpt lat="36.91776" lon="28.14239">
        <ele>7.8</ele>
      </trkpt>
      <trkpt lat="36.91782" lon="28.14244">
        <ele>7.8</ele>
      </trkpt>
      <trkpt lat="36.91787" lon="28.14249">
        <ele>7.8</ele>
      </trkpt>
      <trkpt lat="36.918" lon="28.1426">
        <ele>8.2</ele>
      </trkpt>
      <trkpt lat="36.91813" lon="28.14273">
        <ele>8.5</ele>
      </trkpt>
      <trkpt lat="36.91825" lon="28.14288">
        <ele>8.3</ele>
      </trkpt>
      <trkpt lat="36.91831" lon="28.143">
        <ele>7.9</ele>
      </trkpt>
      <trkpt lat="36.91839" lon="28.14314">
        <ele>8.1</ele>
      </trkpt>
      <trkpt lat="36.91843" lon="28.14321">
        <ele>8.5</ele>
      </trkpt>
      <trkpt lat="36.9185" lon="28.14334">
        <ele>8.9</ele>
      </trkpt>
      <trkpt lat="36.91858" lon="28.14359">
        <ele>8.3</ele>
      </trkpt>
      <trkpt lat="36.9187" lon="28.14372">
        <ele>8.6</ele>
      </trkpt>
      <trkpt lat="36.91874" lon="28.14379">
        <ele>8.5</ele>
      </trkpt>
      <trkpt lat="36.9188" lon="28.14401">
        <ele>6.6</ele>
      </trkpt>
      <trkpt lat="36.91899" lon="28.14415">
        <ele>6.2</ele>
      </trkpt>
      <trkpt lat="36.9191" lon="28.1442">
        <ele>6.4</ele>
      </trkpt>
      <trkpt lat="36.91924" lon="28.14426">
        <ele>7</ele>
      </trkpt>
      <trkpt lat="36.91939" lon="28.14425">
        <ele>8.4</ele>
      </trkpt>
      <trkpt lat="36.91957" lon="28.14434">
        <ele>8.9</ele>
      </trkpt>
      <trkpt lat="36.91961" lon="28.14435">
        <ele>9</ele>
      </trkpt>
      <trkpt lat="36.91978" lon="28.14438">
        <ele>9.8</ele>
      </trkpt>
      <trkpt lat="36.91987" lon="28.14445">
        <ele>9.4</ele>
      </trkpt>
      <trkpt lat="36.92005" lon="28.14449">
        <ele>9.1</ele>
      </trkpt>
      <trkpt lat="36.92023" lon="28.14443">
        <ele>8.5</ele>
      </trkpt>
      <trkpt lat="36.92042" lon="28.14434">
        <ele>7.7</ele>
      </trkpt>
      <trkpt lat="36.9206" lon="28.14429">
        <ele>6.2</ele>
      </trkpt>
      <trkpt lat="36.92078" lon="28.1442">
        <ele>4.6</ele>
      </trkpt>
      <trkpt lat="36.92088" lon="28.14414">
        <ele>4.5</ele>
      </trkpt>
      <trkpt lat="36.92089" lon="28.14416">
        <ele>4.2</ele>
      </trkpt>
      <trkpt lat="36.92093" lon="28.14412">
        <ele>4.8</ele>
      </trkpt>
      <trkpt lat="36.92095" lon="28.14411">
        <ele>4.9</ele>
      </trkpt>
      <trkpt lat="36.92103" lon="28.1441">
        <ele>5</ele>
      </trkpt>
      <trkpt lat="36.92108" lon="28.14405">
        <ele>5.8</ele>
      </trkpt>
      <trkpt lat="36.92111" lon="28.144">
        <ele>6.5</ele>
      </trkpt>
      <trkpt lat="36.92113" lon="28.14397">
        <ele>6.8</ele>
      </trkpt>
      <trkpt lat="36.92122" lon="28.14384">
        <ele>8.1</ele>
      </trkpt>
      <trkpt lat="36.92133" lon="28.14374">
        <ele>8.6</ele>
      </trkpt>
      <trkpt lat="36.92136" lon="28.14372">
        <ele>8.5</ele>
      </trkpt>
      <trkpt lat="36.92142" lon="28.14368">
        <ele>8.4</ele>
      </trkpt>
      <trkpt lat="36.92146" lon="28.14364">
        <ele>8.5</ele>
      </trkpt>
      <trkpt lat="36.92175" lon="28.1435">
        <ele>7.2</ele>
      </trkpt>
      <trkpt lat="36.9218" lon="28.14349">
        <ele>7.3</ele>
      </trkpt>
      <trkpt lat="36.92186" lon="28.14357">
        <ele>6.9</ele>
      </trkpt>
      <trkpt lat="36.92188" lon="28.14363">
        <ele>6.6</ele>
      </trkpt>
      <trkpt lat="36.92194" lon="28.14365">
        <ele>6.5</ele>
      </trkpt>
      <trkpt lat="36.922" lon="28.14372">
        <ele>6.1</ele>
      </trkpt>
      <trkpt lat="36.92205" lon="28.14381">
        <ele>5.5</ele>
      </trkpt>
      <trkpt lat="36.92206" lon="28.14383">
        <ele>5.4</ele>
      </trkpt>
      <trkpt lat="36.92207" lon="28.14384">
        <ele>5.3</ele>
      </trkpt>
      <trkpt lat="36.92209" lon="28.14389">
        <ele>5</ele>
      </trkpt>
      <trkpt lat="36.92218" lon="28.14383">
        <ele>5.5</ele>
      </trkpt>
      <trkpt lat="36.92219" lon="28.14381">
        <ele>5.7</ele>
      </trkpt>
      <trkpt lat="36.92223" lon="28.14362">
        <ele>7.2</ele>
      </trkpt>
      <trkpt lat="36.92222" lon="28.1436">
        <ele>7.3</ele>
      </trkpt>
      <trkpt lat="36.92221" lon="28.14356">
        <ele>7.6</ele>
      </trkpt>
      <trkpt lat="36.9223" lon="28.14348">
        <ele>8.4</ele>
      </trkpt>
      <trkpt lat="36.92231" lon="28.14348">
        <ele>8.4</ele>
      </trkpt>
      <trkpt lat="36.92247" lon="28.14354">
        <ele>8.2</ele>
      </trkpt>
      <trkpt lat="36.92261" lon="28.14363">
        <ele>8.4</ele>
      </trkpt>
      <trkpt lat="36.92273" lon="28.1437">
        <ele>8.6</ele>
      </trkpt>
      <trkpt lat="36.92284" lon="28.14373">
        <ele>9</ele>
      </trkpt>
      <trkpt lat="36.92299" lon="28.14368">
        <ele>10.8</ele>
      </trkpt>
      <trkpt lat="36.9232" lon="28.14361">
        <ele>13.9</ele>
      </trkpt>
      <trkpt lat="36.92335" lon="28.14358">
        <ele>15.6</ele>
      </trkpt>
      <trkpt lat="36.92353" lon="28.14352">
        <ele>14</ele>
      </trkpt>
      <trkpt lat="36.92354" lon="28.14351">
        <ele>14</ele>
      </trkpt>
      <trkpt lat="36.92355" lon="28.14351">
        <ele>14</ele>
      </trkpt>
      <trkpt lat="36.92364" lon="28.14342">
        <ele>13.8</ele>
      </trkpt>
      <trkpt lat="36.92365" lon="28.14341">
        <ele>13.7</ele>
      </trkpt>
      <trkpt lat="36.92367" lon="28.1434">
        <ele>13.7</ele>
      </trkpt>
      <trkpt lat="36.92376" lon="28.14333">
        <ele>12.9</ele>
      </trkpt>
      <trkpt lat="36.92377" lon="28.14332">
        <ele>13</ele>
      </trkpt>
      <trkpt lat="36.92378" lon="28.1433">
        <ele>13.1</ele>
      </trkpt>
      <trkpt lat="36.92386" lon="28.14325">
        <ele>13</ele>
      </trkpt>
      <trkpt lat="36.92388" lon="28.14324">
        <ele>13</ele>
      </trkpt>
      <trkpt lat="36.92389" lon="28.14323">
        <ele>13</ele>
      </trkpt>
      <trkpt lat="36.92398" lon="28.14317">
        <ele>12.8</ele>
      </trkpt>
      <trkpt lat="36.92399" lon="28.14316">
        <ele>12.9</ele>
      </trkpt>
      <trkpt lat="36.92412" lon="28.14302">
        <ele>14.1</ele>
      </trkpt>
      <trkpt lat="36.92422" lon="28.1429">
        <ele>16.5</ele>
      </trkpt>
      <trkpt lat="36.9243" lon="28.14278">
        <ele>19.6</ele>
      </trkpt>
      <trkpt lat="36.92437" lon="28.14268">
        <ele>22.1</ele>
      </trkpt>
      <trkpt lat="36.92447" lon="28.14254">
        <ele>26.1</ele>
      </trkpt>
      <trkpt lat="36.92448" lon="28.14252">
        <ele>26.4</ele>
      </trkpt>
      <trkpt lat="36.92449" lon="28.14251">
        <ele>26.7</ele>
      </trkpt>
      <trkpt lat="36.9245" lon="28.14249">
        <ele>27.1</ele>
      </trkpt>
      <trkpt lat="36.92465" lon="28.1424">
        <ele>28.4</ele>
      </trkpt>
      <trkpt lat="36.92478" lon="28.14236">
        <ele>29</ele>
      </trkpt>
      <trkpt lat="36.92479" lon="28.14235">
        <ele>29.2</ele>
      </trkpt>
      <trkpt lat="36.92485" lon="28.1423">
        <ele>29.8</ele>
      </trkpt>
      <trkpt lat="36.92489" lon="28.14221">
        <ele>31.1</ele>
      </trkpt>
      <trkpt lat="36.92489" lon="28.14203">
        <ele>33.7</ele>
      </trkpt>
      <trkpt lat="36.92489" lon="28.14201">
        <ele>34</ele>
      </trkpt>
      <trkpt lat="36.92489" lon="28.142">
        <ele>34.2</ele>
      </trkpt>
      <trkpt lat="36.92481" lon="28.14182">
        <ele>36.8</ele>
      </trkpt>
      <trkpt lat="36.92481" lon="28.1418">
        <ele>37</ele>
      </trkpt>
      <trkpt lat="36.92477" lon="28.14176">
        <ele>37.6</ele>
      </trkpt>
      <trkpt lat="36.92474" lon="28.14166">
        <ele>38.9</ele>
      </trkpt>
      <trkpt lat="36.92471" lon="28.14159">
        <ele>36.5</ele>
      </trkpt>
      <trkpt lat="36.92468" lon="28.14146">
        <ele>32.6</ele>
      </trkpt>
      <trkpt lat="36.92468" lon="28.14123">
        <ele>25.4</ele>
      </trkpt>
      <trkpt lat="36.92468" lon="28.1412">
        <ele>24.6</ele>
      </trkpt>
      <trkpt lat="36.92461" lon="28.14095">
        <ele>18.6</ele>
      </trkpt>
      <trkpt lat="36.92458" lon="28.14086">
        <ele>17</ele>
      </trkpt>
      <trkpt lat="36.92458" lon="28.14085">
        <ele>16.6</ele>
      </trkpt>
      <trkpt lat="36.92456" lon="28.14081">
        <ele>16.4</ele>
      </trkpt>
      <trkpt lat="36.92457" lon="28.14076">
        <ele>15.7</ele>
      </trkpt>
      <trkpt lat="36.92452" lon="28.14067">
        <ele>16</ele>
      </trkpt>
      <trkpt lat="36.92447" lon="28.14053">
        <ele>15.8</ele>
      </trkpt>
      <trkpt lat="36.92446" lon="28.14051">
        <ele>15.7</ele>
      </trkpt>
      <trkpt lat="36.92445" lon="28.14049">
        <ele>15.7</ele>
      </trkpt>
      <trkpt lat="36.92443" lon="28.14046">
        <ele>15.6</ele>
      </trkpt>
      <trkpt lat="36.92442" lon="28.14044">
        <ele>15.5</ele>
      </trkpt>
      <trkpt lat="36.92441" lon="28.14042">
        <ele>15.5</ele>
      </trkpt>
      <trkpt lat="36.9244" lon="28.14041">
        <ele>15.5</ele>
      </trkpt>
      <trkpt lat="36.92434" lon="28.1403">
        <ele>14.8</ele>
      </trkpt>
      <trkpt lat="36.92431" lon="28.14013">
        <ele>12.5</ele>
      </trkpt>
      <trkpt lat="36.92432" lon="28.14005">
        <ele>11.1</ele>
      </trkpt>
      <trkpt lat="36.92438" lon="28.13999">
        <ele>10.1</ele>
      </trkpt>
      <trkpt lat="36.92443" lon="28.13971">
        <ele>11.8</ele>
      </trkpt>
      <trkpt lat="36.92452" lon="28.13954">
        <ele>12.8</ele>
      </trkpt>
      <trkpt lat="36.92474" lon="28.13947">
        <ele>12.7</ele>
      </trkpt>
      <trkpt lat="36.92495" lon="28.13944">
        <ele>12.5</ele>
      </trkpt>
      <trkpt lat="36.92518" lon="28.13937">
        <ele>13.5</ele>
      </trkpt>
      <trkpt lat="36.92534" lon="28.13929">
        <ele>14.5</ele>
      </trkpt>
      <trkpt lat="36.92547" lon="28.13925">
        <ele>15</ele>
      </trkpt>
      <trkpt lat="36.92548" lon="28.13924">
        <ele>15.1</ele>
      </trkpt>
      <trkpt lat="36.92552" lon="28.13922">
        <ele>15.3</ele>
      </trkpt>
      <trkpt lat="36.92553" lon="28.13921">
        <ele>15.3</ele>
      </trkpt>
      <trkpt lat="36.92575" lon="28.13907">
        <ele>18.9</ele>
      </trkpt>
      <trkpt lat="36.9258" lon="28.13907">
        <ele>19.1</ele>
      </trkpt>
      <trkpt lat="36.92591" lon="28.13896">
        <ele>23</ele>
      </trkpt>
      <trkpt lat="36.92592" lon="28.13895">
        <ele>23.4</ele>
      </trkpt>
      <trkpt lat="36.92593" lon="28.13893">
        <ele>23.9</ele>
      </trkpt>
      <trkpt lat="36.92595" lon="28.13891">
        <ele>24.6</ele>
      </trkpt>
      <trkpt lat="36.92596" lon="28.1389">
        <ele>25.2</ele>
      </trkpt>
      <trkpt lat="36.92605" lon="28.13897">
        <ele>23.1</ele>
      </trkpt>
      <trkpt lat="36.92606" lon="28.13899">
        <ele>22.6</ele>
      </trkpt>
      <trkpt lat="36.92609" lon="28.13908">
        <ele>20</ele>
      </trkpt>
      <trkpt lat="36.92613" lon="28.13919">
        <ele>17.2</ele>
      </trkpt>
      <trkpt lat="36.92619" lon="28.13935">
        <ele>15.7</ele>
      </trkpt>
      <trkpt lat="36.92632" lon="28.13941">
        <ele>14.9</ele>
      </trkpt>
      <trkpt lat="36.92638" lon="28.13942">
        <ele>14.8</ele>
      </trkpt>
      <trkpt lat="36.92647" lon="28.13942">
        <ele>14.8</ele>
      </trkpt>
      <trkpt lat="36.92659" lon="28.13942">
        <ele>14.9</ele>
      </trkpt>
      <trkpt lat="36.9266" lon="28.13941">
        <ele>15</ele>
      </trkpt>
      <trkpt lat="36.92662" lon="28.13941">
        <ele>15</ele>
      </trkpt>
      <trkpt lat="36.9268" lon="28.13932">
        <ele>15.2</ele>
      </trkpt>
      <trkpt lat="36.92689" lon="28.13919">
        <ele>16.3</ele>
      </trkpt>
      <trkpt lat="36.92705" lon="28.13901">
        <ele>18.8</ele>
      </trkpt>
      <trkpt lat="36.92706" lon="28.13899">
        <ele>19.1</ele>
      </trkpt>
      <trkpt lat="36.92706" lon="28.13897">
        <ele>19.4</ele>
      </trkpt>
      <trkpt lat="36.92715" lon="28.13881">
        <ele>22.5</ele>
      </trkpt>
      <trkpt lat="36.92727" lon="28.13864">
        <ele>25</ele>
      </trkpt>
      <trkpt lat="36.92742" lon="28.13851">
        <ele>25.7</ele>
      </trkpt>
      <trkpt lat="36.9276" lon="28.13844">
        <ele>24.7</ele>
      </trkpt>
      <trkpt lat="36.92776" lon="28.13834">
        <ele>24.2</ele>
      </trkpt>
      <trkpt lat="36.9279" lon="28.13823">
        <ele>24.6</ele>
      </trkpt>
      <trkpt lat="36.92791" lon="28.13822">
        <ele>24.6</ele>
      </trkpt>
      <trkpt lat="36.92798" lon="28.13818">
        <ele>24.7</ele>
      </trkpt>
      <trkpt lat="36.92805" lon="28.13815">
        <ele>24.1</ele>
      </trkpt>
      <trkpt lat="36.92806" lon="28.13814">
        <ele>24.1</ele>
      </trkpt>
      <trkpt lat="36.92812" lon="28.13813">
        <ele>23.3</ele>
      </trkpt>
      <trkpt lat="36.92815" lon="28.13814">
        <ele>22.5</ele>
      </trkpt>
      <trkpt lat="36.92815" lon="28.13813">
        <ele>22.9</ele>
      </trkpt>
      <trkpt lat="36.92817" lon="28.13813">
        <ele>22.6</ele>
      </trkpt>
      <trkpt lat="36.92834" lon="28.13808">
        <ele>20.9</ele>
      </trkpt>
      <trkpt lat="36.92836" lon="28.13808">
        <ele>20.9</ele>
      </trkpt>
      <trkpt lat="36.92837" lon="28.13807">
        <ele>20.9</ele>
      </trkpt>
      <trkpt lat="36.92854" lon="28.138">
        <ele>20.9</ele>
      </trkpt>
      <trkpt lat="36.92867" lon="28.13791">
        <ele>21.7</ele>
      </trkpt>
      <trkpt lat="36.92881" lon="28.13785">
        <ele>21.3</ele>
      </trkpt>
      <trkpt lat="36.92896" lon="28.13779">
        <ele>20.4</ele>
      </trkpt>
      <trkpt lat="36.92906" lon="28.13775">
        <ele>19.7</ele>
      </trkpt>
      <trkpt lat="36.92913" lon="28.13773">
        <ele>19</ele>
      </trkpt>
      <trkpt lat="36.92914" lon="28.13772">
        <ele>19</ele>
      </trkpt>
      <trkpt lat="36.92912" lon="28.13772">
        <ele>19.3</ele>
      </trkpt>
      <trkpt lat="36.92913" lon="28.13771">
        <ele>19.3</ele>
      </trkpt>
      <trkpt lat="36.92922" lon="28.13773">
        <ele>18.3</ele>
      </trkpt>
      <trkpt lat="36.92924" lon="28.13773">
        <ele>18.3</ele>
      </trkpt>
      <trkpt lat="36.92941" lon="28.13768">
        <ele>18.6</ele>
      </trkpt>
      <trkpt lat="36.92943" lon="28.13767">
        <ele>18.6</ele>
      </trkpt>
      <trkpt lat="36.92954" lon="28.13762">
        <ele>19.1</ele>
      </trkpt>
      <trkpt lat="36.92964" lon="28.1376">
        <ele>19</ele>
      </trkpt>
      <trkpt lat="36.92968" lon="28.13759">
        <ele>19</ele>
      </trkpt>
      <trkpt lat="36.92974" lon="28.13743">
        <ele>18.9</ele>
      </trkpt>
      <trkpt lat="36.92974" lon="28.13732">
        <ele>17.3</ele>
      </trkpt>
      <trkpt lat="36.92958" lon="28.1371">
        <ele>15</ele>
      </trkpt>
      <trkpt lat="36.92957" lon="28.13708">
        <ele>14.8</ele>
      </trkpt>
      <trkpt lat="36.92956" lon="28.13707">
        <ele>14.7</ele>
      </trkpt>
      <trkpt lat="36.92951" lon="28.13702">
        <ele>14.3</ele>
      </trkpt>
      <trkpt lat="36.92952" lon="28.13701">
        <ele>14.1</ele>
      </trkpt>
      <trkpt lat="36.92954" lon="28.137">
        <ele>13.9</ele>
      </trkpt>
      <trkpt lat="36.92951" lon="28.137">
        <ele>14.1</ele>
      </trkpt>
      <trkpt lat="36.92949" lon="28.137">
        <ele>14.2</ele>
      </trkpt>
      <trkpt lat="36.92944" lon="28.13697">
        <ele>14</ele>
      </trkpt>
      <trkpt lat="36.92943" lon="28.13697">
        <ele>14.1</ele>
      </trkpt>
      <trkpt lat="36.92941" lon="28.13695">
        <ele>13.9</ele>
      </trkpt>
      <trkpt lat="36.92942" lon="28.13697">
        <ele>14.2</ele>
      </trkpt>
      <trkpt lat="36.92926" lon="28.13698">
        <ele>15.2</ele>
      </trkpt>
      <trkpt lat="36.92909" lon="28.1369">
        <ele>16.4</ele>
      </trkpt>
      <trkpt lat="36.92903" lon="28.13688">
        <ele>17.2</ele>
      </trkpt>
      <trkpt lat="36.92887" lon="28.13677">
        <ele>18.9</ele>
      </trkpt>
      <trkpt lat="36.92875" lon="28.1366">
        <ele>19.1</ele>
      </trkpt>
      <trkpt lat="36.9287" lon="28.13635">
        <ele>16</ele>
      </trkpt>
      <trkpt lat="36.92862" lon="28.13606">
        <ele>12.8</ele>
      </trkpt>
      <trkpt lat="36.92842" lon="28.13582">
        <ele>11.8</ele>
      </trkpt>
      <trkpt lat="36.92826" lon="28.13561">
        <ele>11.9</ele>
      </trkpt>
      <trkpt lat="36.92824" lon="28.13558">
        <ele>11.8</ele>
      </trkpt>
      <trkpt lat="36.92822" lon="28.13556">
        <ele>11.7</ele>
      </trkpt>
      <trkpt lat="36.92812" lon="28.13538">
        <ele>11.1</ele>
      </trkpt>
      <trkpt lat="36.92809" lon="28.13536">
        <ele>11.2</ele>
      </trkpt>
      <trkpt lat="36.92793" lon="28.13526">
        <ele>11.4</ele>
      </trkpt>
      <trkpt lat="36.92778" lon="28.13525">
        <ele>12.4</ele>
      </trkpt>
      <trkpt lat="36.92772" lon="28.13524">
        <ele>12.6</ele>
      </trkpt>
      <trkpt lat="36.92759" lon="28.13522">
        <ele>13.3</ele>
      </trkpt>
      <trkpt lat="36.92745" lon="28.13518">
        <ele>14</ele>
      </trkpt>
      <trkpt lat="36.92739" lon="28.13516">
        <ele>14.4</ele>
      </trkpt>
      <trkpt lat="36.92732" lon="28.13514">
        <ele>14.9</ele>
      </trkpt>
      <trkpt lat="36.92726" lon="28.13508">
        <ele>14.8</ele>
      </trkpt>
      <trkpt lat="36.92725" lon="28.13507">
        <ele>14.8</ele>
      </trkpt>
      <trkpt lat="36.92723" lon="28.13488">
        <ele>14.1</ele>
      </trkpt>
      <trkpt lat="36.92723" lon="28.13488">
        <ele>14.1</ele>
      </trkpt>
      <trkpt lat="36.92721" lon="28.13476">
        <ele>14.1</ele>
      </trkpt>
      <trkpt lat="36.92714" lon="28.13458">
        <ele>14.1</ele>
      </trkpt>
      <trkpt lat="36.92706" lon="28.13437">
        <ele>14.1</ele>
      </trkpt>
      <trkpt lat="36.92693" lon="28.13433">
        <ele>14.6</ele>
      </trkpt>
      <trkpt lat="36.9269" lon="28.13431">
        <ele>14.6</ele>
      </trkpt>
      <trkpt lat="36.9267" lon="28.13423">
        <ele>15.2</ele>
      </trkpt>
      <trkpt lat="36.92664" lon="28.13422">
        <ele>15.5</ele>
      </trkpt>
      <trkpt lat="36.92655" lon="28.13418">
        <ele>16</ele>
      </trkpt>
      <trkpt lat="36.92635" lon="28.13411">
        <ele>18.5</ele>
      </trkpt>
      <trkpt lat="36.92635" lon="28.13411">
        <ele>18.4</ele>
      </trkpt>
      <trkpt lat="36.92629" lon="28.13407">
        <ele>19.6</ele>
      </trkpt>
      <trkpt lat="36.92628" lon="28.13407">
        <ele>19.6</ele>
      </trkpt>
      <trkpt lat="36.92611" lon="28.13401">
        <ele>22.1</ele>
      </trkpt>
      <trkpt lat="36.92601" lon="28.134">
        <ele>23.4</ele>
      </trkpt>
      <trkpt lat="36.92595" lon="28.134">
        <ele>23.9</ele>
      </trkpt>
      <trkpt lat="36.92578" lon="28.13397">
        <ele>26</ele>
      </trkpt>
      <trkpt lat="36.92573" lon="28.1338">
        <ele>29.1</ele>
      </trkpt>
      <trkpt lat="36.92564" lon="28.13358">
        <ele>32.6</ele>
      </trkpt>
      <trkpt lat="36.92548" lon="28.13343">
        <ele>34</ele>
      </trkpt>
      <trkpt lat="36.92532" lon="28.13335">
        <ele>33.8</ele>
      </trkpt>
      <trkpt lat="36.92511" lon="28.13334">
        <ele>32.6</ele>
      </trkpt>
      <trkpt lat="36.92505" lon="28.13335">
        <ele>32.3</ele>
      </trkpt>
      <trkpt lat="36.92501" lon="28.13335">
        <ele>32.1</ele>
      </trkpt>
      <trkpt lat="36.92484" lon="28.13341">
        <ele>32.9</ele>
      </trkpt>
      <trkpt lat="36.92473" lon="28.13344">
        <ele>33.6</ele>
      </trkpt>
      <trkpt lat="36.92461" lon="28.13348">
        <ele>34.4</ele>
      </trkpt>
      <trkpt lat="36.92442" lon="28.13347">
        <ele>35.3</ele>
      </trkpt>
      <trkpt lat="36.92417" lon="28.13329">
        <ele>35.8</ele>
      </trkpt>
      <trkpt lat="36.92398" lon="28.13315">
        <ele>38.7</ele>
      </trkpt>
      <trkpt lat="36.92382" lon="28.13312">
        <ele>39.1</ele>
      </trkpt>
      <trkpt lat="36.92353" lon="28.13293">
        <ele>40.3</ele>
      </trkpt>
      <trkpt lat="36.92347" lon="28.13287">
        <ele>40.4</ele>
      </trkpt>
      <trkpt lat="36.92337" lon="28.13279">
        <ele>40.2</ele>
      </trkpt>
      <trkpt lat="36.92319" lon="28.13269">
        <ele>42</ele>
      </trkpt>
      <trkpt lat="36.9231" lon="28.13256">
        <ele>43.3</ele>
      </trkpt>
      <trkpt lat="36.92309" lon="28.13234">
        <ele>45.6</ele>
      </trkpt>
      <trkpt lat="36.92308" lon="28.13214">
        <ele>48.1</ele>
      </trkpt>
      <trkpt lat="36.92308" lon="28.13185">
        <ele>51.8</ele>
      </trkpt>
      <trkpt lat="36.92312" lon="28.13169">
        <ele>53</ele>
      </trkpt>
      <trkpt lat="36.9232" lon="28.13154">
        <ele>53</ele>
      </trkpt>
      <trkpt lat="36.92326" lon="28.13142">
        <ele>53.1</ele>
      </trkpt>
      <trkpt lat="36.92335" lon="28.13132">
        <ele>52.9</ele>
      </trkpt>
      <trkpt lat="36.92338" lon="28.13129">
        <ele>53.7</ele>
      </trkpt>
      <trkpt lat="36.92345" lon="28.13116">
        <ele>55.8</ele>
      </trkpt>
      <trkpt lat="36.92346" lon="28.13109">
        <ele>56.4</ele>
      </trkpt>
      <trkpt lat="36.92349" lon="28.13091">
        <ele>58.4</ele>
      </trkpt>
      <trkpt lat="36.92348" lon="28.13085">
        <ele>58.5</ele>
      </trkpt>
      <trkpt lat="36.92347" lon="28.13082">
        <ele>58.6</ele>
      </trkpt>
      <trkpt lat="36.92347" lon="28.13077">
        <ele>59.1</ele>
      </trkpt>
      <trkpt lat="36.92344" lon="28.13064">
        <ele>60</ele>
      </trkpt>
      <trkpt lat="36.92344" lon="28.13063">
        <ele>60.1</ele>
      </trkpt>
      <trkpt lat="36.92342" lon="28.1305">
        <ele>61.2</ele>
      </trkpt>
      <trkpt lat="36.92337" lon="28.1304">
        <ele>61.6</ele>
      </trkpt>
      <trkpt lat="36.92334" lon="28.13036">
        <ele>61.8</ele>
      </trkpt>
      <trkpt lat="36.9233" lon="28.13019">
        <ele>64.2</ele>
      </trkpt>
      <trkpt lat="36.92331" lon="28.13004">
        <ele>65.9</ele>
      </trkpt>
      <trkpt lat="36.92328" lon="28.12991">
        <ele>67.6</ele>
      </trkpt>
      <trkpt lat="36.92324" lon="28.12974">
        <ele>70</ele>
      </trkpt>
      <trkpt lat="36.92325" lon="28.12947">
        <ele>72.7</ele>
      </trkpt>
      <trkpt lat="36.92334" lon="28.12922">
        <ele>74.4</ele>
      </trkpt>
      <trkpt lat="36.92335" lon="28.12911">
        <ele>75.6</ele>
      </trkpt>
      <trkpt lat="36.92337" lon="28.12896">
        <ele>77.2</ele>
      </trkpt>
      <trkpt lat="36.92338" lon="28.12877">
        <ele>78.8</ele>
      </trkpt>
      <trkpt lat="36.92322" lon="28.12857">
        <ele>81.5</ele>
      </trkpt>
      <trkpt lat="36.92309" lon="28.12836">
        <ele>84.7</ele>
      </trkpt>
      <trkpt lat="36.92297" lon="28.12817">
        <ele>88.8</ele>
      </trkpt>
      <trkpt lat="36.92284" lon="28.128">
        <ele>91.7</ele>
      </trkpt>
      <trkpt lat="36.92265" lon="28.12781">
        <ele>93.9</ele>
      </trkpt>
      <trkpt lat="36.92243" lon="28.12764">
        <ele>96.1</ele>
      </trkpt>
      <trkpt lat="36.92237" lon="28.1275">
        <ele>97.9</ele>
      </trkpt>
      <trkpt lat="36.92228" lon="28.12726">
        <ele>102.1</ele>
      </trkpt>
      <trkpt lat="36.92227" lon="28.1271">
        <ele>104</ele>
      </trkpt>
      <trkpt lat="36.9223" lon="28.12689">
        <ele>105.3</ele>
      </trkpt>
      <trkpt lat="36.92231" lon="28.12666">
        <ele>107.4</ele>
      </trkpt>
      <trkpt lat="36.92239" lon="28.12643">
        <ele>107.7</ele>
      </trkpt>
      <trkpt lat="36.92241" lon="28.12638">
        <ele>107.6</ele>
      </trkpt>
      <trkpt lat="36.92241" lon="28.12637">
        <ele>107.7</ele>
      </trkpt>
      <trkpt lat="36.92239" lon="28.1262">
        <ele>109.5</ele>
      </trkpt>
      <trkpt lat="36.92246" lon="28.12604">
        <ele>109.2</ele>
      </trkpt>
      <trkpt lat="36.92258" lon="28.12585">
        <ele>110.3</ele>
      </trkpt>
      <trkpt lat="36.92268" lon="28.1257">
        <ele>111.2</ele>
      </trkpt>
      <trkpt lat="36.92281" lon="28.12554">
        <ele>112</ele>
      </trkpt>
      <trkpt lat="36.92283" lon="28.12552">
        <ele>112.1</ele>
      </trkpt>
      <trkpt lat="36.92293" lon="28.12537">
        <ele>112.6</ele>
      </trkpt>
      <trkpt lat="36.92298" lon="28.12529">
        <ele>112.8</ele>
      </trkpt>
      <trkpt lat="36.923" lon="28.12524">
        <ele>112.8</ele>
      </trkpt>
      <trkpt lat="36.9231" lon="28.12505">
        <ele>113</ele>
      </trkpt>
      <trkpt lat="36.92311" lon="28.12503">
        <ele>113</ele>
      </trkpt>
      <trkpt lat="36.92313" lon="28.12488">
        <ele>112.6</ele>
      </trkpt>
      <trkpt lat="36.92312" lon="28.12485">
        <ele>112.5</ele>
      </trkpt>
      <trkpt lat="36.9231" lon="28.12475">
        <ele>112.1</ele>
      </trkpt>
      <trkpt lat="36.92308" lon="28.12459">
        <ele>111.5</ele>
      </trkpt>
      <trkpt lat="36.92309" lon="28.12439">
        <ele>110.8</ele>
      </trkpt>
      <trkpt lat="36.92311" lon="28.12435">
        <ele>110.7</ele>
      </trkpt>
      <trkpt lat="36.92314" lon="28.1241">
        <ele>109.7</ele>
      </trkpt>
      <trkpt lat="36.92316" lon="28.12391">
        <ele>108.6</ele>
      </trkpt>
      <trkpt lat="36.92318" lon="28.12366">
        <ele>107.3</ele>
      </trkpt>
      <trkpt lat="36.92319" lon="28.12344">
        <ele>106.1</ele>
      </trkpt>
      <trkpt lat="36.92325" lon="28.12326">
        <ele>105.3</ele>
      </trkpt>
      <trkpt lat="36.92329" lon="28.12302">
        <ele>105.1</ele>
      </trkpt>
      <trkpt lat="36.92328" lon="28.12283">
        <ele>105.1</ele>
      </trkpt>
      <trkpt lat="36.92328" lon="28.1226">
        <ele>105.1</ele>
      </trkpt>
      <trkpt lat="36.9233" lon="28.12253">
        <ele>105</ele>
      </trkpt>
      <trkpt lat="36.92329" lon="28.12252">
        <ele>105.1</ele>
      </trkpt>
      <trkpt lat="36.9233" lon="28.12239">
        <ele>105</ele>
      </trkpt>
      <trkpt lat="36.92326" lon="28.1223">
        <ele>105</ele>
      </trkpt>
      <trkpt lat="36.92325" lon="28.12228">
        <ele>105</ele>
      </trkpt>
      <trkpt lat="36.92328" lon="28.12228">
        <ele>105</ele>
      </trkpt>
      <trkpt lat="36.92331" lon="28.12217">
        <ele>105</ele>
      </trkpt>
      <trkpt lat="36.9233" lon="28.12201">
        <ele>105</ele>
      </trkpt>
      <trkpt lat="36.92326" lon="28.1218">
        <ele>104.9</ele>
      </trkpt>
      <trkpt lat="36.92323" lon="28.12159">
        <ele>104.8</ele>
      </trkpt>
      <trkpt lat="36.92318" lon="28.1214">
        <ele>104.6</ele>
      </trkpt>
      <trkpt lat="36.92314" lon="28.12118">
        <ele>104.5</ele>
      </trkpt>
      <trkpt lat="36.92314" lon="28.12108">
        <ele>104.4</ele>
      </trkpt>
      <trkpt lat="36.9231" lon="28.12092">
        <ele>104.3</ele>
      </trkpt>
      <trkpt lat="36.9231" lon="28.1209">
        <ele>104.3</ele>
      </trkpt>
      <trkpt lat="36.92308" lon="28.12084">
        <ele>104.3</ele>
      </trkpt>
      <trkpt lat="36.92304" lon="28.12077">
        <ele>104.1</ele>
      </trkpt>
      <trkpt lat="36.923" lon="28.12072">
        <ele>103.9</ele>
      </trkpt>
      <trkpt lat="36.92292" lon="28.12055">
        <ele>103.3</ele>
      </trkpt>
      <trkpt lat="36.92271" lon="28.12046">
        <ele>103.3</ele>
      </trkpt>
      <trkpt lat="36.92249" lon="28.12032">
        <ele>103.3</ele>
      </trkpt>
      <trkpt lat="36.92228" lon="28.12026">
        <ele>105.8</ele>
      </trkpt>
      <trkpt lat="36.92221" lon="28.12023">
        <ele>106.6</ele>
      </trkpt>
      <trkpt lat="36.92216" lon="28.1202">
        <ele>107.2</ele>
      </trkpt>
      <trkpt lat="36.9221" lon="28.12016">
        <ele>108</ele>
      </trkpt>
      <trkpt lat="36.92206" lon="28.12008">
        <ele>108.4</ele>
      </trkpt>
      <trkpt lat="36.92206" lon="28.12006">
        <ele>108.4</ele>
      </trkpt>
      <trkpt lat="36.92207" lon="28.12004">
        <ele>108.3</ele>
      </trkpt>
      <trkpt lat="36.92207" lon="28.11993">
        <ele>108.3</ele>
      </trkpt>
      <trkpt lat="36.92203" lon="28.11981">
        <ele>109.1</ele>
      </trkpt>
      <trkpt lat="36.92202" lon="28.11978">
        <ele>109.3</ele>
      </trkpt>
      <trkpt lat="36.92202" lon="28.11977">
        <ele>109.4</ele>
      </trkpt>
      <trkpt lat="36.92196" lon="28.11958">
        <ele>110.7</ele>
      </trkpt>
      <trkpt lat="36.92196" lon="28.11956">
        <ele>110.7</ele>
      </trkpt>
      <trkpt lat="36.92196" lon="28.11954">
        <ele>110.7</ele>
      </trkpt>
      <trkpt lat="36.92195" lon="28.11948">
        <ele>110.9</ele>
      </trkpt>
      <trkpt lat="36.92198" lon="28.11943">
        <ele>110.6</ele>
      </trkpt>
      <trkpt lat="36.92202" lon="28.11926">
        <ele>110.3</ele>
      </trkpt>
      <trkpt lat="36.92202" lon="28.11924">
        <ele>110.3</ele>
      </trkpt>
      <trkpt lat="36.92203" lon="28.11923">
        <ele>110.2</ele>
      </trkpt>
      <trkpt lat="36.92204" lon="28.11919">
        <ele>110.1</ele>
      </trkpt>
      <trkpt lat="36.92208" lon="28.11903">
        <ele>109.5</ele>
      </trkpt>
      <trkpt lat="36.92208" lon="28.11901">
        <ele>109.5</ele>
      </trkpt>
      <trkpt lat="36.92208" lon="28.11899">
        <ele>109.4</ele>
      </trkpt>
      <trkpt lat="36.92213" lon="28.11887">
        <ele>108.7</ele>
      </trkpt>
      <trkpt lat="36.92218" lon="28.11868">
        <ele>108</ele>
      </trkpt>
      <trkpt lat="36.92224" lon="28.11853">
        <ele>107.4</ele>
      </trkpt>
      <trkpt lat="36.92226" lon="28.11837">
        <ele>107.3</ele>
      </trkpt>
      <trkpt lat="36.92223" lon="28.11817">
        <ele>107.4</ele>
      </trkpt>
      <trkpt lat="36.92221" lon="28.11805">
        <ele>107.6</ele>
      </trkpt>
      <trkpt lat="36.92221" lon="28.11781">
        <ele>107.4</ele>
      </trkpt>
      <trkpt lat="36.92226" lon="28.11765">
        <ele>106.6</ele>
      </trkpt>
      <trkpt lat="36.92232" lon="28.11741">
        <ele>105.7</ele>
      </trkpt>
      <trkpt lat="36.92232" lon="28.11739">
        <ele>105.6</ele>
      </trkpt>
      <trkpt lat="36.92233" lon="28.11737">
        <ele>105.6</ele>
      </trkpt>
      <trkpt lat="36.9224" lon="28.1172">
        <ele>104.8</ele>
      </trkpt>
      <trkpt lat="36.92246" lon="28.11701">
        <ele>104.1</ele>
      </trkpt>
      <trkpt lat="36.92252" lon="28.11684">
        <ele>103.7</ele>
      </trkpt>
      <trkpt lat="36.9226" lon="28.11662">
        <ele>103.6</ele>
      </trkpt>
      <trkpt lat="36.92264" lon="28.11644">
        <ele>103.4</ele>
      </trkpt>
      <trkpt lat="36.92268" lon="28.11627">
        <ele>103</ele>
      </trkpt>
      <trkpt lat="36.92268" lon="28.11624">
        <ele>103</ele>
      </trkpt>
      <trkpt lat="36.92269" lon="28.11622">
        <ele>102.9</ele>
      </trkpt>
      <trkpt lat="36.92274" lon="28.11605">
        <ele>102.5</ele>
      </trkpt>
      <trkpt lat="36.92279" lon="28.11585">
        <ele>102</ele>
      </trkpt>
      <trkpt lat="36.92273" lon="28.11559">
        <ele>102.9</ele>
      </trkpt>
      <trkpt lat="36.92279" lon="28.1154">
        <ele>102.8</ele>
      </trkpt>
      <trkpt lat="36.92297" lon="28.1152">
        <ele>101.1</ele>
      </trkpt>
      <trkpt lat="36.92309" lon="28.115">
        <ele>100</ele>
      </trkpt>
      <trkpt lat="36.92319" lon="28.11481">
        <ele>99.3</ele>
      </trkpt>
      <trkpt lat="36.9232" lon="28.11479">
        <ele>99.3</ele>
      </trkpt>
      <trkpt lat="36.9232" lon="28.11476">
        <ele>99.3</ele>
      </trkpt>
      <trkpt lat="36.92321" lon="28.11475">
        <ele>99.2</ele>
      </trkpt>
      <trkpt lat="36.92322" lon="28.11473">
        <ele>99.2</ele>
      </trkpt>
      <trkpt lat="36.92322" lon="28.11472">
        <ele>99.1</ele>
      </trkpt>
      <trkpt lat="36.92323" lon="28.1147">
        <ele>99</ele>
      </trkpt>
      <trkpt lat="36.92332" lon="28.11451">
        <ele>98.4</ele>
      </trkpt>
      <trkpt lat="36.92343" lon="28.11431">
        <ele>98.6</ele>
      </trkpt>
      <trkpt lat="36.92351" lon="28.11415">
        <ele>99</ele>
      </trkpt>
      <trkpt lat="36.92352" lon="28.11413">
        <ele>98.9</ele>
      </trkpt>
      <trkpt lat="36.92353" lon="28.11407">
        <ele>98.8</ele>
      </trkpt>
      <trkpt lat="36.92353" lon="28.11405">
        <ele>98.7</ele>
      </trkpt>
      <trkpt lat="36.92354" lon="28.11403">
        <ele>98.7</ele>
      </trkpt>
      <trkpt lat="36.92355" lon="28.11401">
        <ele>98.6</ele>
      </trkpt>
      <trkpt lat="36.92355" lon="28.11399">
        <ele>98.6</ele>
      </trkpt>
      <trkpt lat="36.92355" lon="28.11388">
        <ele>98.3</ele>
      </trkpt>
      <trkpt lat="36.92355" lon="28.11386">
        <ele>98.2</ele>
      </trkpt>
      <trkpt lat="36.92351" lon="28.11374">
        <ele>98</ele>
      </trkpt>
      <trkpt lat="36.92351" lon="28.11369">
        <ele>97.9</ele>
      </trkpt>
      <trkpt lat="36.92351" lon="28.11367">
        <ele>97.9</ele>
      </trkpt>
      <trkpt lat="36.92351" lon="28.11365">
        <ele>97.8</ele>
      </trkpt>
      <trkpt lat="36.92355" lon="28.11353">
        <ele>97.4</ele>
      </trkpt>
      <trkpt lat="36.92364" lon="28.1134">
        <ele>96.7</ele>
      </trkpt>
      <trkpt lat="36.92372" lon="28.11331">
        <ele>96.1</ele>
      </trkpt>
      <trkpt lat="36.92374" lon="28.11329">
        <ele>96.1</ele>
      </trkpt>
      <trkpt lat="36.9238" lon="28.11318">
        <ele>95.6</ele>
      </trkpt>
      <trkpt lat="36.92383" lon="28.113">
        <ele>95.1</ele>
      </trkpt>
      <trkpt lat="36.92383" lon="28.11298">
        <ele>95.1</ele>
      </trkpt>
      <trkpt lat="36.92381" lon="28.11288">
        <ele>95.2</ele>
      </trkpt>
      <trkpt lat="36.9238" lon="28.11286">
        <ele>95.3</ele>
      </trkpt>
      <trkpt lat="36.92379" lon="28.11284">
        <ele>95.3</ele>
      </trkpt>
      <trkpt lat="36.92378" lon="28.1128">
        <ele>95.3</ele>
      </trkpt>
      <trkpt lat="36.92374" lon="28.11264">
        <ele>95.7</ele>
      </trkpt>
      <trkpt lat="36.92374" lon="28.11261">
        <ele>95.7</ele>
      </trkpt>
      <trkpt lat="36.92375" lon="28.1126">
        <ele>95.6</ele>
      </trkpt>
      <trkpt lat="36.92375" lon="28.11259">
        <ele>95.5</ele>
      </trkpt>
      <trkpt lat="36.92377" lon="28.11243">
        <ele>95.2</ele>
      </trkpt>
      <trkpt lat="36.92379" lon="28.11221">
        <ele>94.6</ele>
      </trkpt>
      <trkpt lat="36.92379" lon="28.11219">
        <ele>94.5</ele>
      </trkpt>
      <trkpt lat="36.9238" lon="28.11217">
        <ele>94.4</ele>
      </trkpt>
      <trkpt lat="36.9238" lon="28.11214">
        <ele>94.3</ele>
      </trkpt>
      <trkpt lat="36.9238" lon="28.11211">
        <ele>94.3</ele>
      </trkpt>
      <trkpt lat="36.92378" lon="28.11192">
        <ele>94.3</ele>
      </trkpt>
      <trkpt lat="36.92378" lon="28.1119">
        <ele>94.2</ele>
      </trkpt>
      <trkpt lat="36.92379" lon="28.11189">
        <ele>94.1</ele>
      </trkpt>
      <trkpt lat="36.92379" lon="28.11186">
        <ele>94.1</ele>
      </trkpt>
      <trkpt lat="36.92383" lon="28.11163">
        <ele>93</ele>
      </trkpt>
      <trkpt lat="36.92382" lon="28.11147">
        <ele>93.1</ele>
      </trkpt>
      <trkpt lat="36.92376" lon="28.1113">
        <ele>94.2</ele>
      </trkpt>
      <trkpt lat="36.92375" lon="28.11129">
        <ele>94.3</ele>
      </trkpt>
      <trkpt lat="36.92376" lon="28.11118">
        <ele>94</ele>
      </trkpt>
      <trkpt lat="36.92376" lon="28.11117">
        <ele>94</ele>
      </trkpt>
      <trkpt lat="36.92378" lon="28.11115">
        <ele>93.7</ele>
      </trkpt>
      <trkpt lat="36.92391" lon="28.11099">
        <ele>91.7</ele>
      </trkpt>
      <trkpt lat="36.92404" lon="28.11081">
        <ele>89.9</ele>
      </trkpt>
      <trkpt lat="36.92405" lon="28.1108">
        <ele>89.7</ele>
      </trkpt>
      <trkpt lat="36.92408" lon="28.11077">
        <ele>89.3</ele>
      </trkpt>
      <trkpt lat="36.92422" lon="28.11061">
        <ele>88.3</ele>
      </trkpt>
      <trkpt lat="36.9244" lon="28.11047">
        <ele>87.6</ele>
      </trkpt>
      <trkpt lat="36.92446" lon="28.11043">
        <ele>87.4</ele>
      </trkpt>
      <trkpt lat="36.92452" lon="28.11039">
        <ele>87.1</ele>
      </trkpt>
      <trkpt lat="36.92466" lon="28.11023">
        <ele>86.4</ele>
      </trkpt>
      <trkpt lat="36.92475" lon="28.11002">
        <ele>85.8</ele>
      </trkpt>
      <trkpt lat="36.92481" lon="28.10981">
        <ele>83.5</ele>
      </trkpt>
      <trkpt lat="36.92481" lon="28.10951">
        <ele>80.6</ele>
      </trkpt>
      <trkpt lat="36.92479" lon="28.10941">
        <ele>79.8</ele>
      </trkpt>
      <trkpt lat="36.92479" lon="28.10939">
        <ele>79.6</ele>
      </trkpt>
      <trkpt lat="36.92479" lon="28.10938">
        <ele>79.5</ele>
      </trkpt>
      <trkpt lat="36.92479" lon="28.10935">
        <ele>79.2</ele>
      </trkpt>
      <trkpt lat="36.9247" lon="28.10923">
        <ele>79.2</ele>
      </trkpt>
      <trkpt lat="36.92465" lon="28.10912">
        <ele>79</ele>
      </trkpt>
      <trkpt lat="36.92474" lon="28.10891">
        <ele>77.1</ele>
      </trkpt>
      <trkpt lat="36.92475" lon="28.10889">
        <ele>77</ele>
      </trkpt>
      <trkpt lat="36.92474" lon="28.10883">
        <ele>76.9</ele>
      </trkpt>
      <trkpt lat="36.92476" lon="28.10879">
        <ele>76.6</ele>
      </trkpt>
      <trkpt lat="36.92475" lon="28.10878">
        <ele>76.6</ele>
      </trkpt>
      <trkpt lat="36.92478" lon="28.10877">
        <ele>76.2</ele>
      </trkpt>
      <trkpt lat="36.92479" lon="28.10875">
        <ele>76.1</ele>
      </trkpt>
      <trkpt lat="36.92473" lon="28.10861">
        <ele>76.3</ele>
      </trkpt>
      <trkpt lat="36.92471" lon="28.10863">
        <ele>76.6</ele>
      </trkpt>
      <trkpt lat="36.92457" lon="28.10857">
        <ele>78</ele>
      </trkpt>
      <trkpt lat="36.92441" lon="28.1086">
        <ele>80.1</ele>
      </trkpt>
      <trkpt lat="36.92439" lon="28.1086">
        <ele>80.3</ele>
      </trkpt>
      <trkpt lat="36.92437" lon="28.1086">
        <ele>80.5</ele>
      </trkpt>
      <trkpt lat="36.92428" lon="28.1086">
        <ele>81.5</ele>
      </trkpt>
      <trkpt lat="36.92428" lon="28.10857">
        <ele>81.5</ele>
      </trkpt>
      <trkpt lat="36.92427" lon="28.10855">
        <ele>81.5</ele>
      </trkpt>
      <trkpt lat="36.92427" lon="28.10853">
        <ele>81.4</ele>
      </trkpt>
      <trkpt lat="36.92444" lon="28.10836">
        <ele>78.8</ele>
      </trkpt>
      <trkpt lat="36.92471" lon="28.10831">
        <ele>75.5</ele>
      </trkpt>
      <trkpt lat="36.92496" lon="28.10832">
        <ele>72.5</ele>
      </trkpt>
      <trkpt lat="36.92514" lon="28.10825">
        <ele>71.6</ele>
      </trkpt>
      <trkpt lat="36.92525" lon="28.10822">
        <ele>71.1</ele>
      </trkpt>
      <trkpt lat="36.92535" lon="28.10825">
        <ele>70.4</ele>
      </trkpt>
      <trkpt lat="36.92536" lon="28.10826">
        <ele>70.4</ele>
      </trkpt>
      <trkpt lat="36.92531" lon="28.10828">
        <ele>70.6</ele>
      </trkpt>
      <trkpt lat="36.92541" lon="28.1083">
        <ele>70.1</ele>
      </trkpt>
      <trkpt lat="36.92543" lon="28.10829">
        <ele>70</ele>
      </trkpt>
      <trkpt lat="36.92545" lon="28.10828">
        <ele>69.9</ele>
      </trkpt>
      <trkpt lat="36.92546" lon="28.10827">
        <ele>69.8</ele>
      </trkpt>
      <trkpt lat="36.92555" lon="28.10809">
        <ele>69.2</ele>
      </trkpt>
      <trkpt lat="36.92569" lon="28.10793">
        <ele>67.8</ele>
      </trkpt>
      <trkpt lat="36.9257" lon="28.10792">
        <ele>67.7</ele>
      </trkpt>
      <trkpt lat="36.92572" lon="28.10788">
        <ele>67.4</ele>
      </trkpt>
      <trkpt lat="36.92576" lon="28.10769">
        <ele>66.5</ele>
      </trkpt>
      <trkpt lat="36.92575" lon="28.10754">
        <ele>66.2</ele>
      </trkpt>
      <trkpt lat="36.92575" lon="28.10752">
        <ele>66.1</ele>
      </trkpt>
      <trkpt lat="36.9258" lon="28.10741">
        <ele>65.3</ele>
      </trkpt>
      <trkpt lat="36.92588" lon="28.10724">
        <ele>63.8</ele>
      </trkpt>
      <trkpt lat="36.92598" lon="28.1071">
        <ele>62.3</ele>
      </trkpt>
      <trkpt lat="36.92608" lon="28.10702">
        <ele>60.9</ele>
      </trkpt>
      <trkpt lat="36.92614" lon="28.1069">
        <ele>59.8</ele>
      </trkpt>
      <trkpt lat="36.92616" lon="28.10676">
        <ele>59.3</ele>
      </trkpt>
      <trkpt lat="36.92617" lon="28.10665">
        <ele>58.9</ele>
      </trkpt>
      <trkpt lat="36.92616" lon="28.10656">
        <ele>59</ele>
      </trkpt>
      <trkpt lat="36.92621" lon="28.10633">
        <ele>58.4</ele>
      </trkpt>
      <trkpt lat="36.9262" lon="28.10622">
        <ele>58.4</ele>
      </trkpt>
      <trkpt lat="36.92607" lon="28.10613">
        <ele>59.3</ele>
      </trkpt>
      <trkpt lat="36.92605" lon="28.10612">
        <ele>59.4</ele>
      </trkpt>
      <trkpt lat="36.92593" lon="28.10612">
        <ele>60.3</ele>
      </trkpt>
      <trkpt lat="36.92592" lon="28.10612">
        <ele>60.4</ele>
      </trkpt>
      <trkpt lat="36.9259" lon="28.10612">
        <ele>60.5</ele>
      </trkpt>
      <trkpt lat="36.92589" lon="28.10611">
        <ele>60.6</ele>
      </trkpt>
      <trkpt lat="36.92588" lon="28.10611">
        <ele>60.7</ele>
      </trkpt>
      <trkpt lat="36.92583" lon="28.10607">
        <ele>60.9</ele>
      </trkpt>
      <trkpt lat="36.92583" lon="28.10605">
        <ele>60.8</ele>
      </trkpt>
      <trkpt lat="36.92584" lon="28.10603">
        <ele>60.7</ele>
      </trkpt>
      <trkpt lat="36.92594" lon="28.10594">
        <ele>59.8</ele>
      </trkpt>
      <trkpt lat="36.92613" lon="28.10582">
        <ele>58.5</ele>
      </trkpt>
      <trkpt lat="36.92622" lon="28.10569">
        <ele>57.3</ele>
      </trkpt>
      <trkpt lat="36.92622" lon="28.10567">
        <ele>57.1</ele>
      </trkpt>
      <trkpt lat="36.92622" lon="28.10565">
        <ele>57</ele>
      </trkpt>
      <trkpt lat="36.92623" lon="28.1056">
        <ele>56.7</ele>
      </trkpt>
      <trkpt lat="36.92623" lon="28.10558">
        <ele>56.6</ele>
      </trkpt>
      <trkpt lat="36.92623" lon="28.10553">
        <ele>56.3</ele>
      </trkpt>
      <trkpt lat="36.92622" lon="28.10551">
        <ele>56.3</ele>
      </trkpt>
      <trkpt lat="36.92621" lon="28.10549">
        <ele>56.1</ele>
      </trkpt>
      <trkpt lat="36.92622" lon="28.10548">
        <ele>56</ele>
      </trkpt>
      <trkpt lat="36.9262" lon="28.10541">
        <ele>55.7</ele>
      </trkpt>
      <trkpt lat="36.92619" lon="28.10538">
        <ele>55.6</ele>
      </trkpt>
      <trkpt lat="36.92618" lon="28.10539">
        <ele>55.6</ele>
      </trkpt>
      <trkpt lat="36.92618" lon="28.10537">
        <ele>55.6</ele>
      </trkpt>
      <trkpt lat="36.92618" lon="28.10534">
        <ele>55.4</ele>
      </trkpt>
      <trkpt lat="36.92618" lon="28.10528">
        <ele>55</ele>
      </trkpt>
      <trkpt lat="36.92617" lon="28.10525">
        <ele>54.9</ele>
      </trkpt>
      <trkpt lat="36.92617" lon="28.10506">
        <ele>53.7</ele>
      </trkpt>
      <trkpt lat="36.92617" lon="28.10504">
        <ele>53.6</ele>
      </trkpt>
      <trkpt lat="36.92617" lon="28.10501">
        <ele>53.5</ele>
      </trkpt>
      <trkpt lat="36.92617" lon="28.10499">
        <ele>53.3</ele>
      </trkpt>
      <trkpt lat="36.92618" lon="28.10498">
        <ele>53.2</ele>
      </trkpt>
      <trkpt lat="36.92619" lon="28.10493">
        <ele>52.9</ele>
      </trkpt>
      <trkpt lat="36.92625" lon="28.10482">
        <ele>52.1</ele>
      </trkpt>
      <trkpt lat="36.9263" lon="28.10481">
        <ele>52</ele>
      </trkpt>
      <trkpt lat="36.92631" lon="28.10479">
        <ele>51.9</ele>
      </trkpt>
      <trkpt lat="36.92633" lon="28.10477">
        <ele>51.7</ele>
      </trkpt>
      <trkpt lat="36.92638" lon="28.10472">
        <ele>51.4</ele>
      </trkpt>
      <trkpt lat="36.92647" lon="28.10469">
        <ele>51.2</ele>
      </trkpt>
      <trkpt lat="36.9266" lon="28.10468">
        <ele>51.1</ele>
      </trkpt>
      <trkpt lat="36.92685" lon="28.10461">
        <ele>52.9</ele>
      </trkpt>
      <trkpt lat="36.92708" lon="28.10447">
        <ele>55</ele>
      </trkpt>
      <trkpt lat="36.92717" lon="28.10437">
        <ele>55.7</ele>
      </trkpt>
      <trkpt lat="36.92719" lon="28.10436">
        <ele>55.8</ele>
      </trkpt>
      <trkpt lat="36.9272" lon="28.10434">
        <ele>55.9</ele>
      </trkpt>
      <trkpt lat="36.92722" lon="28.10432">
        <ele>56</ele>
      </trkpt>
      <trkpt lat="36.92723" lon="28.1043">
        <ele>56.1</ele>
      </trkpt>
      <trkpt lat="36.92724" lon="28.10429">
        <ele>56.1</ele>
      </trkpt>
      <trkpt lat="36.92726" lon="28.10425">
        <ele>56.2</ele>
      </trkpt>
      <trkpt lat="36.92727" lon="28.10423">
        <ele>56.2</ele>
      </trkpt>
      <trkpt lat="36.92728" lon="28.1042">
        <ele>56.3</ele>
      </trkpt>
      <trkpt lat="36.9273" lon="28.10417">
        <ele>56.3</ele>
      </trkpt>
      <trkpt lat="36.92715" lon="28.10387">
        <ele>56.8</ele>
      </trkpt>
      <trkpt lat="36.92702" lon="28.10361">
        <ele>56.1</ele>
      </trkpt>
      <trkpt lat="36.9269" lon="28.10337">
        <ele>54.2</ele>
      </trkpt>
      <trkpt lat="36.92689" lon="28.10335">
        <ele>54.1</ele>
      </trkpt>
      <trkpt lat="36.92689" lon="28.10334">
        <ele>54</ele>
      </trkpt>
      <trkpt lat="36.92688" lon="28.10331">
        <ele>54.1</ele>
      </trkpt>
      <trkpt lat="36.92686" lon="28.10328">
        <ele>54</ele>
      </trkpt>
      <trkpt lat="36.92677" lon="28.10313">
        <ele>53.1</ele>
      </trkpt>
      <trkpt lat="36.92666" lon="28.10304">
        <ele>51.3</ele>
      </trkpt>
      <trkpt lat="36.92655" lon="28.10296">
        <ele>50.1</ele>
      </trkpt>
      <trkpt lat="36.92643" lon="28.10285">
        <ele>48.6</ele>
      </trkpt>
      <trkpt lat="36.9263" lon="28.10275">
        <ele>46.8</ele>
      </trkpt>
      <trkpt lat="36.92629" lon="28.10274">
        <ele>46.5</ele>
      </trkpt>
      <trkpt lat="36.92626" lon="28.10273">
        <ele>46.2</ele>
      </trkpt>
      <trkpt lat="36.92624" lon="28.10272">
        <ele>45.8</ele>
      </trkpt>
      <trkpt lat="36.92622" lon="28.10272">
        <ele>45.5</ele>
      </trkpt>
      <trkpt lat="36.92619" lon="28.10271">
        <ele>44.8</ele>
      </trkpt>
      <trkpt lat="36.92617" lon="28.10271">
        <ele>44.4</ele>
      </trkpt>
      <trkpt lat="36.92615" lon="28.10272">
        <ele>43.9</ele>
      </trkpt>
      <trkpt lat="36.92612" lon="28.10273">
        <ele>43.4</ele>
      </trkpt>
      <trkpt lat="36.92611" lon="28.10275">
        <ele>43.1</ele>
      </trkpt>
      <trkpt lat="36.9261" lon="28.10277">
        <ele>42.7</ele>
      </trkpt>
      <trkpt lat="36.92604" lon="28.10298">
        <ele>41.1</ele>
      </trkpt>
      <trkpt lat="36.92601" lon="28.1032">
        <ele>39.9</ele>
      </trkpt>
      <trkpt lat="36.92596" lon="28.10351">
        <ele>40.6</ele>
      </trkpt>
      <trkpt lat="36.92593" lon="28.10379">
        <ele>43.3</ele>
      </trkpt>
      <trkpt lat="36.92593" lon="28.10381">
        <ele>43.6</ele>
      </trkpt>
      <trkpt lat="36.92591" lon="28.10394">
        <ele>44.9</ele>
      </trkpt>
      <trkpt lat="36.92588" lon="28.10396">
        <ele>44.9</ele>
      </trkpt>
      <trkpt lat="36.92576" lon="28.10397">
        <ele>44.7</ele>
      </trkpt>
      <trkpt lat="36.92574" lon="28.10397">
        <ele>44.7</ele>
      </trkpt>
      <trkpt lat="36.92572" lon="28.10397">
        <ele>44.8</ele>
      </trkpt>
      <trkpt lat="36.92566" lon="28.10394">
        <ele>44.6</ele>
      </trkpt>
      <trkpt lat="36.92565" lon="28.10393">
        <ele>44.6</ele>
      </trkpt>
      <trkpt lat="36.92563" lon="28.10392">
        <ele>44.5</ele>
      </trkpt>
      <trkpt lat="36.92558" lon="28.10387">
        <ele>44.2</ele>
      </trkpt>
      <trkpt lat="36.92557" lon="28.10386">
        <ele>44.1</ele>
      </trkpt>
      <trkpt lat="36.92556" lon="28.10384">
        <ele>44</ele>
      </trkpt>
      <trkpt lat="36.92555" lon="28.10374">
        <ele>43.3</ele>
      </trkpt>
      <trkpt lat="36.92543" lon="28.10357">
        <ele>42.8</ele>
      </trkpt>
      <trkpt lat="36.92537" lon="28.10354">
        <ele>43.1</ele>
      </trkpt>
      <trkpt lat="36.92537" lon="28.10348">
        <ele>42.8</ele>
      </trkpt>
      <trkpt lat="36.92533" lon="28.10342">
        <ele>42.8</ele>
      </trkpt>
      <trkpt lat="36.92531" lon="28.1033">
        <ele>42.5</ele>
      </trkpt>
      <trkpt lat="36.9253" lon="28.10328">
        <ele>42.5</ele>
      </trkpt>
      <trkpt lat="36.92528" lon="28.10326">
        <ele>42.6</ele>
      </trkpt>
      <trkpt lat="36.92529" lon="28.10329">
        <ele>42.7</ele>
      </trkpt>
      <trkpt lat="36.92532" lon="28.10327">
        <ele>42.3</ele>
      </trkpt>
      <trkpt lat="36.92533" lon="28.10324">
        <ele>42</ele>
      </trkpt>
      <trkpt lat="36.92533" lon="28.10322">
        <ele>41.9</ele>
      </trkpt>
      <trkpt lat="36.92533" lon="28.1032">
        <ele>41.8</ele>
      </trkpt>
      <trkpt lat="36.92533" lon="28.10317">
        <ele>41.7</ele>
      </trkpt>
      <trkpt lat="36.92533" lon="28.10316">
        <ele>41.7</ele>
      </trkpt>
      <trkpt lat="36.92536" lon="28.10303">
        <ele>40.8</ele>
      </trkpt>
      <trkpt lat="36.92537" lon="28.10302">
        <ele>40.7</ele>
      </trkpt>
      <trkpt lat="36.92538" lon="28.103">
        <ele>40.5</ele>
      </trkpt>
      <trkpt lat="36.9255" lon="28.10289">
        <ele>39.4</ele>
      </trkpt>
      <trkpt lat="36.92567" lon="28.10274">
        <ele>38.4</ele>
      </trkpt>
      <trkpt lat="36.92568" lon="28.10256">
        <ele>38.2</ele>
      </trkpt>
      <trkpt lat="36.92568" lon="28.10255">
        <ele>38.2</ele>
      </trkpt>
      <trkpt lat="36.92568" lon="28.10253">
        <ele>38.2</ele>
      </trkpt>
      <trkpt lat="36.92569" lon="28.10251">
        <ele>38.2</ele>
      </trkpt>
      <trkpt lat="36.92567" lon="28.10238">
        <ele>38.8</ele>
      </trkpt>
      <trkpt lat="36.92567" lon="28.10232">
        <ele>39.1</ele>
      </trkpt>
      <trkpt lat="36.92563" lon="28.10209">
        <ele>39.9</ele>
      </trkpt>
      <trkpt lat="36.92562" lon="28.10194">
        <ele>40.3</ele>
      </trkpt>
      <trkpt lat="36.92558" lon="28.10177">
        <ele>40.2</ele>
      </trkpt>
      <trkpt lat="36.92554" lon="28.10161">
        <ele>39.1</ele>
      </trkpt>
      <trkpt lat="36.92546" lon="28.10142">
        <ele>36.1</ele>
      </trkpt>
      <trkpt lat="36.92546" lon="28.1014">
        <ele>35.8</ele>
      </trkpt>
      <trkpt lat="36.92545" lon="28.10137">
        <ele>35.5</ele>
      </trkpt>
      <trkpt lat="36.92543" lon="28.10127">
        <ele>34.3</ele>
      </trkpt>
      <trkpt lat="36.9254" lon="28.10106">
        <ele>32.4</ele>
      </trkpt>
      <trkpt lat="36.92541" lon="28.10096">
        <ele>31.9</ele>
      </trkpt>
      <trkpt lat="36.92549" lon="28.10079">
        <ele>31.8</ele>
      </trkpt>
      <trkpt lat="36.92559" lon="28.10065">
        <ele>32.8</ele>
      </trkpt>
      <trkpt lat="36.92567" lon="28.1005">
        <ele>33.3</ele>
      </trkpt>
      <trkpt lat="36.92568" lon="28.10048">
        <ele>33.3</ele>
      </trkpt>
      <trkpt lat="36.92568" lon="28.10046">
        <ele>33.3</ele>
      </trkpt>
      <trkpt lat="36.92569" lon="28.10045">
        <ele>33.3</ele>
      </trkpt>
      <trkpt lat="36.9257" lon="28.10043">
        <ele>33.4</ele>
      </trkpt>
      <trkpt lat="36.92572" lon="28.10023">
        <ele>32.8</ele>
      </trkpt>
      <trkpt lat="36.92569" lon="28.10012">
        <ele>32</ele>
      </trkpt>
      <trkpt lat="36.92566" lon="28.09995">
        <ele>30.8</ele>
      </trkpt>
      <trkpt lat="36.92568" lon="28.09976">
        <ele>29.8</ele>
      </trkpt>
      <trkpt lat="36.92576" lon="28.09957">
        <ele>29.3</ele>
      </trkpt>
      <trkpt lat="36.92579" lon="28.09942">
        <ele>28.4</ele>
      </trkpt>
      <trkpt lat="36.92583" lon="28.09933">
        <ele>28.1</ele>
      </trkpt>
      <trkpt lat="36.92583" lon="28.09932">
        <ele>28.1</ele>
      </trkpt>
      <trkpt lat="36.9259" lon="28.09916">
        <ele>28.8</ele>
      </trkpt>
      <trkpt lat="36.92595" lon="28.09906">
        <ele>29</ele>
      </trkpt>
      <trkpt lat="36.92602" lon="28.09887">
        <ele>27.9</ele>
      </trkpt>
      <trkpt lat="36.92603" lon="28.09871">
        <ele>25.6</ele>
      </trkpt>
      <trkpt lat="36.92607" lon="28.09856">
        <ele>23.8</ele>
      </trkpt>
      <trkpt lat="36.9261" lon="28.0984">
        <ele>21.4</ele>
      </trkpt>
      <trkpt lat="36.92611" lon="28.09838">
        <ele>21.1</ele>
      </trkpt>
      <trkpt lat="36.92611" lon="28.09836">
        <ele>20.8</ele>
      </trkpt>
      <trkpt lat="36.92618" lon="28.09824">
        <ele>20.2</ele>
      </trkpt>
      <trkpt lat="36.92634" lon="28.09813">
        <ele>20.7</ele>
      </trkpt>
      <trkpt lat="36.92635" lon="28.09813">
        <ele>20.8</ele>
      </trkpt>
      <trkpt lat="36.92647" lon="28.09812">
        <ele>21.5</ele>
      </trkpt>
      <trkpt lat="36.92649" lon="28.09813">
        <ele>21.6</ele>
      </trkpt>
      <trkpt lat="36.9265" lon="28.09813">
        <ele>21.7</ele>
      </trkpt>
      <trkpt lat="36.92652" lon="28.09815">
        <ele>21.9</ele>
      </trkpt>
      <trkpt lat="36.92653" lon="28.09816">
        <ele>21.9</ele>
      </trkpt>
      <trkpt lat="36.92654" lon="28.09818">
        <ele>22.1</ele>
      </trkpt>
      <trkpt lat="36.92664" lon="28.09824">
        <ele>22.7</ele>
      </trkpt>
      <trkpt lat="36.92675" lon="28.09831">
        <ele>22.5</ele>
      </trkpt>
      <trkpt lat="36.9269" lon="28.09841">
        <ele>23.8</ele>
      </trkpt>
      <trkpt lat="36.927" lon="28.09844">
        <ele>24.1</ele>
      </trkpt>
      <trkpt lat="36.92706" lon="28.09845">
        <ele>23.8</ele>
      </trkpt>
      <trkpt lat="36.92713" lon="28.09848">
        <ele>23.8</ele>
      </trkpt>
      <trkpt lat="36.92715" lon="28.09849">
        <ele>24</ele>
      </trkpt>
      <trkpt lat="36.92715" lon="28.09849">
        <ele>24</ele>
      </trkpt>
      <trkpt lat="36.92711" lon="28.09846">
        <ele>23.6</ele>
      </trkpt>
      <trkpt lat="36.92714" lon="28.0985">
        <ele>24.3</ele>
      </trkpt>
      <trkpt lat="36.92718" lon="28.09852">
        <ele>24.6</ele>
      </trkpt>
      <trkpt lat="36.92733" lon="28.09862">
        <ele>25.4</ele>
      </trkpt>
      <trkpt lat="36.92748" lon="28.09872">
        <ele>25.7</ele>
      </trkpt>
      <trkpt lat="36.92762" lon="28.09884">
        <ele>26.9</ele>
      </trkpt>
      <trkpt lat="36.92767" lon="28.09889">
        <ele>27.5</ele>
      </trkpt>
      <trkpt lat="36.92789" lon="28.09891">
        <ele>26.6</ele>
      </trkpt>
      <trkpt lat="36.92802" lon="28.09894">
        <ele>26.2</ele>
      </trkpt>
      <trkpt lat="36.92817" lon="28.09888">
        <ele>24.2</ele>
      </trkpt>
      <trkpt lat="36.9284" lon="28.09886">
        <ele>23.5</ele>
      </trkpt>
      <trkpt lat="36.92841" lon="28.09885">
        <ele>23.6</ele>
      </trkpt>
      <trkpt lat="36.92852" lon="28.09875">
        <ele>23.1</ele>
      </trkpt>
      <trkpt lat="36.92858" lon="28.09867">
        <ele>22.5</ele>
      </trkpt>
      <trkpt lat="36.92862" lon="28.09862">
        <ele>21.9</ele>
      </trkpt>
      <trkpt lat="36.92866" lon="28.09863">
        <ele>22.6</ele>
      </trkpt>
      <trkpt lat="36.92866" lon="28.09864">
        <ele>22.8</ele>
      </trkpt>
      <trkpt lat="36.92869" lon="28.09861">
        <ele>22.6</ele>
      </trkpt>
      <trkpt lat="36.9287" lon="28.09859">
        <ele>22.3</ele>
      </trkpt>
      <trkpt lat="36.92871" lon="28.09858">
        <ele>22.4</ele>
      </trkpt>
      <trkpt lat="36.92877" lon="28.0985">
        <ele>21.7</ele>
      </trkpt>
      <trkpt lat="36.92891" lon="28.09841">
        <ele>21.7</ele>
      </trkpt>
      <trkpt lat="36.92902" lon="28.09824">
        <ele>21.1</ele>
      </trkpt>
      <trkpt lat="36.92906" lon="28.09819">
        <ele>21.3</ele>
      </trkpt>
      <trkpt lat="36.92909" lon="28.09815">
        <ele>21.2</ele>
      </trkpt>
      <trkpt lat="36.92915" lon="28.09806">
        <ele>20.9</ele>
      </trkpt>
      <trkpt lat="36.92918" lon="28.09785">
        <ele>19.4</ele>
      </trkpt>
      <trkpt lat="36.92924" lon="28.09763">
        <ele>17.6</ele>
      </trkpt>
      <trkpt lat="36.92918" lon="28.09755">
        <ele>17.3</ele>
      </trkpt>
      <trkpt lat="36.92927" lon="28.09736">
        <ele>16.5</ele>
      </trkpt>
      <trkpt lat="36.92941" lon="28.09722">
        <ele>16</ele>
      </trkpt>
      <trkpt lat="36.92953" lon="28.09718">
        <ele>15.6</ele>
      </trkpt>
      <trkpt lat="36.92959" lon="28.09714">
        <ele>15.5</ele>
      </trkpt>
      <trkpt lat="36.92967" lon="28.09712">
        <ele>15.3</ele>
      </trkpt>
      <trkpt lat="36.92978" lon="28.09709">
        <ele>15</ele>
      </trkpt>
      <trkpt lat="36.92997" lon="28.09711">
        <ele>14.6</ele>
      </trkpt>
      <trkpt lat="36.93006" lon="28.09709">
        <ele>14.3</ele>
      </trkpt>
      <trkpt lat="36.9301" lon="28.09704">
        <ele>14.1</ele>
      </trkpt>
      <trkpt lat="36.93013" lon="28.09705">
        <ele>14</ele>
      </trkpt>
      <trkpt lat="36.93031" lon="28.09705">
        <ele>13.2</ele>
      </trkpt>
      <trkpt lat="36.93045" lon="28.09695">
        <ele>12.3</ele>
      </trkpt>
      <trkpt lat="36.93054" lon="28.09689">
        <ele>11.7</ele>
      </trkpt>
      <trkpt lat="36.93055" lon="28.09688">
        <ele>11.7</ele>
      </trkpt>
      <trkpt lat="36.93061" lon="28.09682">
        <ele>11.1</ele>
      </trkpt>
      <trkpt lat="36.93071" lon="28.09661">
        <ele>9.8</ele>
      </trkpt>
      <trkpt lat="36.93076" lon="28.09646">
        <ele>9.1</ele>
      </trkpt>
      <trkpt lat="36.9307" lon="28.09629">
        <ele>9.2</ele>
      </trkpt>
      <trkpt lat="36.93067" lon="28.09615">
        <ele>9.3</ele>
      </trkpt>
      <trkpt lat="36.93066" lon="28.09609">
        <ele>9.3</ele>
      </trkpt>
      <trkpt lat="36.93062" lon="28.0961">
        <ele>9.7</ele>
      </trkpt>
      <trkpt lat="36.93061" lon="28.09612">
        <ele>9.9</ele>
      </trkpt>
      <trkpt lat="36.93053" lon="28.0962">
        <ele>10.7</ele>
      </trkpt>
      <trkpt lat="36.93049" lon="28.09619">
        <ele>11.1</ele>
      </trkpt>
      <trkpt lat="36.93043" lon="28.09617">
        <ele>11.6</ele>
      </trkpt>
      <trkpt lat="36.93045" lon="28.09615">
        <ele>11.3</ele>
      </trkpt>
      <trkpt lat="36.93051" lon="28.0961">
        <ele>10.8</ele>
      </trkpt>
      <trkpt lat="36.93055" lon="28.09607">
        <ele>10.4</ele>
      </trkpt>
      <trkpt lat="36.93054" lon="28.09604">
        <ele>10.4</ele>
      </trkpt>
      <trkpt lat="36.93053" lon="28.09608">
        <ele>10.5</ele>
      </trkpt>
      <trkpt lat="36.93058" lon="28.09604">
        <ele>10</ele>
      </trkpt>
      <trkpt lat="36.93075" lon="28.09596">
        <ele>8.2</ele>
      </trkpt>
      <trkpt lat="36.93073" lon="28.09593">
        <ele>8.3</ele>
      </trkpt>
      <trkpt lat="36.93074" lon="28.09592">
        <ele>8.1</ele>
      </trkpt>
      <trkpt lat="36.93079" lon="28.09592">
        <ele>7.7</ele>
      </trkpt>
      <trkpt lat="36.93087" lon="28.09582">
        <ele>6.8</ele>
      </trkpt>
      <trkpt lat="36.93092" lon="28.09577">
        <ele>6.8</ele>
      </trkpt>
      <trkpt lat="36.93094" lon="28.09576">
        <ele>6.7</ele>
      </trkpt>
      <trkpt lat="36.93097" lon="28.09575">
        <ele>6.6</ele>
      </trkpt>
      <trkpt lat="36.93109" lon="28.0957">
        <ele>6.2</ele>
      </trkpt>
      <trkpt lat="36.93122" lon="28.09569">
        <ele>5.6</ele>
      </trkpt>
      <trkpt lat="36.93127" lon="28.09567">
        <ele>5.5</ele>
      </trkpt>
      <trkpt lat="36.93135" lon="28.09561">
        <ele>5.6</ele>
      </trkpt>
      <trkpt lat="36.93143" lon="28.09552">
        <ele>5.9</ele>
      </trkpt>
      <trkpt lat="36.93149" lon="28.09549">
        <ele>6</ele>
      </trkpt>
      <trkpt lat="36.93149" lon="28.09549">
        <ele>6</ele>
      </trkpt>
      <trkpt lat="36.93149" lon="28.09549">
        <ele>6</ele>
      </trkpt>
      <trkpt lat="36.93149" lon="28.09549">
        <ele>6</ele>
      </trkpt>
      <trkpt lat="36.93149" lon="28.09549">
        <ele>6</ele>
      </trkpt>
      <trkpt lat="36.93143" lon="28.09552">
        <ele>5.9</ele>
      </trkpt>
      <trkpt lat="36.93135" lon="28.09561">
        <ele>5.6</ele>
      </trkpt>
      <trkpt lat="36.93127" lon="28.09567">
        <ele>5.5</ele>
      </trkpt>
      <trkpt lat="36.93122" lon="28.09569">
        <ele>5.6</ele>
      </trkpt>
      <trkpt lat="36.93109" lon="28.0957">
        <ele>6.2</ele>
      </trkpt>
      <trkpt lat="36.93097" lon="28.09575">
        <ele>6.6</ele>
      </trkpt>
      <trkpt lat="36.93094" lon="28.09576">
        <ele>6.7</ele>
      </trkpt>
      <trkpt lat="36.93092" lon="28.09577">
        <ele>6.8</ele>
      </trkpt>
      <trkpt lat="36.93087" lon="28.09582">
        <ele>6.8</ele>
      </trkpt>
      <trkpt lat="36.93079" lon="28.09592">
        <ele>7.7</ele>
      </trkpt>
      <trkpt lat="36.93074" lon="28.09592">
        <ele>8.1</ele>
      </trkpt>
      <trkpt lat="36.93073" lon="28.09593">
        <ele>8.3</ele>
      </trkpt>
      <trkpt lat="36.93075" lon="28.09596">
        <ele>8.2</ele>
      </trkpt>
      <trkpt lat="36.93058" lon="28.09604">
        <ele>10</ele>
      </trkpt>
      <trkpt lat="36.93053" lon="28.09608">
        <ele>10.5</ele>
      </trkpt>
      <trkpt lat="36.93053" lon="28.09606">
        <ele>10.6</ele>
      </trkpt>
      <trkpt lat="36.93037" lon="28.09605">
        <ele>12.1</ele>
      </trkpt>
      <trkpt lat="36.93017" lon="28.09605">
        <ele>14</ele>
      </trkpt>
      <trkpt lat="36.92986" lon="28.09592">
        <ele>16.5</ele>
      </trkpt>
      <trkpt lat="36.92966" lon="28.09556">
        <ele>17.5</ele>
      </trkpt>
      <trkpt lat="36.92969" lon="28.09525">
        <ele>17.2</ele>
      </trkpt>
      <trkpt lat="36.92972" lon="28.0951">
        <ele>17</ele>
      </trkpt>
      <trkpt lat="36.92972" lon="28.09488">
        <ele>17.2</ele>
      </trkpt>
      <trkpt lat="36.92966" lon="28.09471">
        <ele>17.5</ele>
      </trkpt>
      <trkpt lat="36.92961" lon="28.09424">
        <ele>17.9</ele>
      </trkpt>
      <trkpt lat="36.92961" lon="28.09419">
        <ele>18</ele>
      </trkpt>
      <trkpt lat="36.92964" lon="28.09408">
        <ele>17.9</ele>
      </trkpt>
      <trkpt lat="36.92965" lon="28.09382">
        <ele>17.5</ele>
      </trkpt>
      <trkpt lat="36.92956" lon="28.09364">
        <ele>17</ele>
      </trkpt>
      <trkpt lat="36.92967" lon="28.09341">
        <ele>16.9</ele>
      </trkpt>
      <trkpt lat="36.92973" lon="28.09335">
        <ele>17</ele>
      </trkpt>
      <trkpt lat="36.93002" lon="28.09301">
        <ele>17.4</ele>
      </trkpt>
      <trkpt lat="36.93011" lon="28.09272">
        <ele>15.7</ele>
      </trkpt>
      <trkpt lat="36.9301" lon="28.09265">
        <ele>15.8</ele>
      </trkpt>
      <trkpt lat="36.93017" lon="28.09211">
        <ele>16.3</ele>
      </trkpt>
      <trkpt lat="36.93015" lon="28.0918">
        <ele>18</ele>
      </trkpt>
      <trkpt lat="36.93046" lon="28.09128">
        <ele>17.1</ele>
      </trkpt>
      <trkpt lat="36.93051" lon="28.0912">
        <ele>17</ele>
      </trkpt>
      <trkpt lat="36.93057" lon="28.09092">
        <ele>18.4</ele>
      </trkpt>
      <trkpt lat="36.93052" lon="28.09044">
        <ele>19.7</ele>
      </trkpt>
      <trkpt lat="36.93053" lon="28.09029">
        <ele>19.5</ele>
      </trkpt>
      <trkpt lat="36.93055" lon="28.09023">
        <ele>19.2</ele>
      </trkpt>
      <trkpt lat="36.93055" lon="28.08982">
        <ele>18.1</ele>
      </trkpt>
      <trkpt lat="36.93055" lon="28.08974">
        <ele>17.7</ele>
      </trkpt>
      <trkpt lat="36.93057" lon="28.0895">
        <ele>16.2</ele>
      </trkpt>
      <trkpt lat="36.93057" lon="28.08941">
        <ele>15.7</ele>
      </trkpt>
      <trkpt lat="36.93056" lon="28.08888">
        <ele>13.3</ele>
      </trkpt>
      <trkpt lat="36.93052" lon="28.08855">
        <ele>12.4</ele>
      </trkpt>
      <trkpt lat="36.93051" lon="28.08844">
        <ele>12</ele>
      </trkpt>
      <trkpt lat="36.93038" lon="28.08807">
        <ele>11.7</ele>
      </trkpt>
      <trkpt lat="36.93024" lon="28.08789">
        <ele>11.5</ele>
      </trkpt>
      <trkpt lat="36.93002" lon="28.08793">
        <ele>13</ele>
      </trkpt>
      <trkpt lat="36.92993" lon="28.08797">
        <ele>13.4</ele>
      </trkpt>
      <trkpt lat="36.92964" lon="28.08814">
        <ele>14.5</ele>
      </trkpt>
      <trkpt lat="36.92946" lon="28.08841">
        <ele>16.2</ele>
      </trkpt>
      <trkpt lat="36.9293" lon="28.08886">
        <ele>19</ele>
      </trkpt>
      <trkpt lat="36.92907" lon="28.08941">
        <ele>24.1</ele>
      </trkpt>
      <trkpt lat="36.92888" lon="28.0895">
        <ele>26.4</ele>
      </trkpt>
      <trkpt lat="36.92876" lon="28.08927">
        <ele>24.7</ele>
      </trkpt>
      <trkpt lat="36.92861" lon="28.08888">
        <ele>22</ele>
      </trkpt>
      <trkpt lat="36.92856" lon="28.08855">
        <ele>19.7</ele>
      </trkpt>
      <trkpt lat="36.92855" lon="28.08837">
        <ele>18.2</ele>
      </trkpt>
      <trkpt lat="36.92836" lon="28.08773">
        <ele>16.7</ele>
      </trkpt>
      <trkpt lat="36.9281" lon="28.08693">
        <ele>17.3</ele>
      </trkpt>
      <trkpt lat="36.92781" lon="28.08611">
        <ele>18.3</ele>
      </trkpt>
      <trkpt lat="36.92777" lon="28.08584">
        <ele>18.1</ele>
      </trkpt>
      <trkpt lat="36.92784" lon="28.0852">
        <ele>17.5</ele>
      </trkpt>
      <trkpt lat="36.92789" lon="28.08498">
        <ele>17.3</ele>
      </trkpt>
      <trkpt lat="36.92814" lon="28.08447">
        <ele>16.8</ele>
      </trkpt>
      <trkpt lat="36.92839" lon="28.084">
        <ele>16.4</ele>
      </trkpt>
      <trkpt lat="36.92846" lon="28.08381">
        <ele>16.6</ele>
      </trkpt>
      <trkpt lat="36.92849" lon="28.08372">
        <ele>16.7</ele>
      </trkpt>
      <trkpt lat="36.92849" lon="28.08369">
        <ele>16.8</ele>
      </trkpt>
      <trkpt lat="36.92836" lon="28.08326">
        <ele>19.4</ele>
      </trkpt>
      <trkpt lat="36.92834" lon="28.0828">
        <ele>22.8</ele>
      </trkpt>
      <trkpt lat="36.92833" lon="28.08265">
        <ele>23.9</ele>
      </trkpt>
      <trkpt lat="36.92839" lon="28.08225">
        <ele>26.1</ele>
      </trkpt>
      <trkpt lat="36.92842" lon="28.08206">
        <ele>26.9</ele>
      </trkpt>
      <trkpt lat="36.92843" lon="28.08163">
        <ele>29.7</ele>
      </trkpt>
      <trkpt lat="36.92841" lon="28.08136">
        <ele>32.6</ele>
      </trkpt>
      <trkpt lat="36.92836" lon="28.08113">
        <ele>35.6</ele>
      </trkpt>
      <trkpt lat="36.9284" lon="28.08087">
        <ele>37.2</ele>
      </trkpt>
      <trkpt lat="36.92852" lon="28.08076">
        <ele>36.2</ele>
      </trkpt>
      <trkpt lat="36.92867" lon="28.08042">
        <ele>36.9</ele>
      </trkpt>
      <trkpt lat="36.92872" lon="28.07993">
        <ele>40.2</ele>
      </trkpt>
      <trkpt lat="36.92871" lon="28.07985">
        <ele>40.3</ele>
      </trkpt>
      <trkpt lat="36.92859" lon="28.07955">
        <ele>43.2</ele>
      </trkpt>
      <trkpt lat="36.92848" lon="28.07945">
        <ele>46.4</ele>
      </trkpt>
      <trkpt lat="36.92835" lon="28.07936">
        <ele>50.5</ele>
      </trkpt>
      <trkpt lat="36.92828" lon="28.0793">
        <ele>53.5</ele>
      </trkpt>
      <trkpt lat="36.92805" lon="28.07893">
        <ele>63.3</ele>
      </trkpt>
      <trkpt lat="36.92799" lon="28.07867">
        <ele>64.4</ele>
      </trkpt>
      <trkpt lat="36.92796" lon="28.07848">
        <ele>64.5</ele>
      </trkpt>
      <trkpt lat="36.92799" lon="28.07795">
        <ele>62.1</ele>
      </trkpt>
      <trkpt lat="36.92799" lon="28.07785">
        <ele>62</ele>
      </trkpt>
      <trkpt lat="36.92797" lon="28.07753">
        <ele>63.7</ele>
      </trkpt>
      <trkpt lat="36.92802" lon="28.07716">
        <ele>57</ele>
      </trkpt>
      <trkpt lat="36.92809" lon="28.07696">
        <ele>51.3</ele>
      </trkpt>
      <trkpt lat="36.92788" lon="28.07697">
        <ele>59.7</ele>
      </trkpt>
      <trkpt lat="36.9277" lon="28.07701">
        <ele>67.5</ele>
      </trkpt>
      <trkpt lat="36.92758" lon="28.07703">
        <ele>72.7</ele>
      </trkpt>
      <trkpt lat="36.92754" lon="28.07703">
        <ele>74.6</ele>
      </trkpt>
      <trkpt lat="36.92743" lon="28.07704">
        <ele>77.3</ele>
      </trkpt>
      <trkpt lat="36.92733" lon="28.07699">
        <ele>77.9</ele>
      </trkpt>
      <trkpt lat="36.92728" lon="28.07685">
        <ele>76.1</ele>
      </trkpt>
      <trkpt lat="36.92727" lon="28.07661">
        <ele>72.6</ele>
      </trkpt>
      <trkpt lat="36.92709" lon="28.07647">
        <ele>75.1</ele>
      </trkpt>
      <trkpt lat="36.92689" lon="28.07655">
        <ele>79</ele>
      </trkpt>
      <trkpt lat="36.92665" lon="28.07671">
        <ele>83.8</ele>
      </trkpt>
      <trkpt lat="36.92645" lon="28.07689">
        <ele>86.7</ele>
      </trkpt>
      <trkpt lat="36.92638" lon="28.07694">
        <ele>87.2</ele>
      </trkpt>
      <trkpt lat="36.92619" lon="28.07723">
        <ele>89.7</ele>
      </trkpt>
      <trkpt lat="36.92612" lon="28.07742">
        <ele>90.7</ele>
      </trkpt>
      <trkpt lat="36.9259" lon="28.07768">
        <ele>91.6</ele>
      </trkpt>
      <trkpt lat="36.92569" lon="28.07793">
        <ele>95.8</ele>
      </trkpt>
      <trkpt lat="36.92536" lon="28.07812">
        <ele>99.4</ele>
      </trkpt>
      <trkpt lat="36.92524" lon="28.07793">
        <ele>98.8</ele>
      </trkpt>
      <trkpt lat="36.92532" lon="28.07775">
        <ele>97</ele>
      </trkpt>
      <trkpt lat="36.92547" lon="28.0776">
        <ele>94.3</ele>
      </trkpt>
      <trkpt lat="36.92555" lon="28.07731">
        <ele>91.8</ele>
      </trkpt>
      <trkpt lat="36.92553" lon="28.07723">
        <ele>91.9</ele>
      </trkpt>
      <trkpt lat="36.92561" lon="28.07689">
        <ele>89.7</ele>
      </trkpt>
      <trkpt lat="36.92577" lon="28.07679">
        <ele>86.6</ele>
      </trkpt>
      <trkpt lat="36.92598" lon="28.0765">
        <ele>84.7</ele>
      </trkpt>
      <trkpt lat="36.92594" lon="28.07624">
        <ele>84.7</ele>
      </trkpt>
      <trkpt lat="36.92573" lon="28.07604">
        <ele>86.8</ele>
      </trkpt>
      <trkpt lat="36.92564" lon="28.07599">
        <ele>88.2</ele>
      </trkpt>
      <trkpt lat="36.92547" lon="28.0759">
        <ele>90.8</ele>
      </trkpt>
      <trkpt lat="36.92539" lon="28.07574">
        <ele>92.4</ele>
      </trkpt>
      <trkpt lat="36.92549" lon="28.0757">
        <ele>91</ele>
      </trkpt>
      <trkpt lat="36.92561" lon="28.0757">
        <ele>89.3</ele>
      </trkpt>
      <trkpt lat="36.92584" lon="28.07544">
        <ele>87.8</ele>
      </trkpt>
      <trkpt lat="36.92595" lon="28.0752">
        <ele>89.4</ele>
      </trkpt>
      <trkpt lat="36.92599" lon="28.07512">
        <ele>89.9</ele>
      </trkpt>
      <trkpt lat="36.92603" lon="28.07499">
        <ele>90.6</ele>
      </trkpt>
      <trkpt lat="36.92594" lon="28.07494">
        <ele>90.2</ele>
      </trkpt>
      <trkpt lat="36.92572" lon="28.07487">
        <ele>91</ele>
      </trkpt>
      <trkpt lat="36.92559" lon="28.07481">
        <ele>92</ele>
      </trkpt>
      <trkpt lat="36.92543" lon="28.07452">
        <ele>91.5</ele>
      </trkpt>
      <trkpt lat="36.92543" lon="28.07443">
        <ele>90.7</ele>
      </trkpt>
      <trkpt lat="36.92543" lon="28.07421">
        <ele>88.7</ele>
      </trkpt>
      <trkpt lat="36.92531" lon="28.07402">
        <ele>87.1</ele>
      </trkpt>
      <trkpt lat="36.92524" lon="28.07409">
        <ele>89.7</ele>
      </trkpt>
      <trkpt lat="36.9252" lon="28.07415">
        <ele>91.6</ele>
      </trkpt>
      <trkpt lat="36.92493" lon="28.07446">
        <ele>98.2</ele>
      </trkpt>
      <trkpt lat="36.92469" lon="28.07449">
        <ele>102.1</ele>
      </trkpt>
      <trkpt lat="36.9246" lon="28.07443">
        <ele>103.1</ele>
      </trkpt>
      <trkpt lat="36.92441" lon="28.07435">
        <ele>105.3</ele>
      </trkpt>
      <trkpt lat="36.92422" lon="28.07417">
        <ele>107.2</ele>
      </trkpt>
      <trkpt lat="36.92416" lon="28.07402">
        <ele>107.2</ele>
      </trkpt>
      <trkpt lat="36.92392" lon="28.07376">
        <ele>117.4</ele>
      </trkpt>
      <trkpt lat="36.92387" lon="28.07339">
        <ele>117.8</ele>
      </trkpt>
      <trkpt lat="36.92402" lon="28.07324">
        <ele>109.6</ele>
      </trkpt>
      <trkpt lat="36.92411" lon="28.07316">
        <ele>105</ele>
      </trkpt>
      <trkpt lat="36.92418" lon="28.07279">
        <ele>101.7</ele>
      </trkpt>
      <trkpt lat="36.92413" lon="28.07233">
        <ele>103.6</ele>
      </trkpt>
      <trkpt lat="36.92405" lon="28.07202">
        <ele>107.6</ele>
      </trkpt>
      <trkpt lat="36.92411" lon="28.07166">
        <ele>104.3</ele>
      </trkpt>
      <trkpt lat="36.9242" lon="28.07151">
        <ele>98.3</ele>
      </trkpt>
      <trkpt lat="36.92412" lon="28.07119">
        <ele>96.2</ele>
      </trkpt>
      <trkpt lat="36.92394" lon="28.07095">
        <ele>98.7</ele>
      </trkpt>
      <trkpt lat="36.92376" lon="28.07079">
        <ele>102.4</ele>
      </trkpt>
      <trkpt lat="36.92355" lon="28.07079">
        <ele>109.9</ele>
      </trkpt>
      <trkpt lat="36.92329" lon="28.0707">
        <ele>118.6</ele>
      </trkpt>
      <trkpt lat="36.9233" lon="28.07037">
        <ele>113.6</ele>
      </trkpt>
      <trkpt lat="36.92329" lon="28.06998">
        <ele>109.1</ele>
      </trkpt>
      <trkpt lat="36.92319" lon="28.06975">
        <ele>112.3</ele>
      </trkpt>
      <trkpt lat="36.92314" lon="28.0696">
        <ele>113.4</ele>
      </trkpt>
      <trkpt lat="36.92296" lon="28.0693">
        <ele>118</ele>
      </trkpt>
      <trkpt lat="36.92269" lon="28.06898">
        <ele>123.2</ele>
      </trkpt>
      <trkpt lat="36.92259" lon="28.06866">
        <ele>117.7</ele>
      </trkpt>
      <trkpt lat="36.92259" lon="28.06858">
        <ele>115.6</ele>
      </trkpt>
      <trkpt lat="36.92244" lon="28.0685">
        <ele>116.9</ele>
      </trkpt>
      <trkpt lat="36.92237" lon="28.06852">
        <ele>118.6</ele>
      </trkpt>
      <trkpt lat="36.92222" lon="28.06859">
        <ele>123.1</ele>
      </trkpt>
      <trkpt lat="36.92208" lon="28.06871">
        <ele>128.7</ele>
      </trkpt>
      <trkpt lat="36.92205" lon="28.06877">
        <ele>130.8</ele>
      </trkpt>
      <trkpt lat="36.922" lon="28.06889">
        <ele>135.2</ele>
      </trkpt>
      <trkpt lat="36.9219" lon="28.06891">
        <ele>137.2</ele>
      </trkpt>
      <trkpt lat="36.9218" lon="28.06883">
        <ele>136.2</ele>
      </trkpt>
      <trkpt lat="36.9217" lon="28.06878">
        <ele>135.8</ele>
      </trkpt>
      <trkpt lat="36.92169" lon="28.06883">
        <ele>137.5</ele>
      </trkpt>
      <trkpt lat="36.92164" lon="28.06896">
        <ele>142.4</ele>
      </trkpt>
      <trkpt lat="36.92152" lon="28.06917">
        <ele>149.9</ele>
      </trkpt>
      <trkpt lat="36.92134" lon="28.06921">
        <ele>153.3</ele>
      </trkpt>
      <trkpt lat="36.92129" lon="28.06913">
        <ele>152.2</ele>
      </trkpt>
      <trkpt lat="36.9212" lon="28.06898">
        <ele>150</ele>
      </trkpt>
      <trkpt lat="36.92107" lon="28.06886">
        <ele>149.4</ele>
      </trkpt>
      <trkpt lat="36.92092" lon="28.06864">
        <ele>147.7</ele>
      </trkpt>
      <trkpt lat="36.92062" lon="28.06844">
        <ele>147.2</ele>
      </trkpt>
      <trkpt lat="36.92045" lon="28.06841">
        <ele>148</ele>
      </trkpt>
      <trkpt lat="36.92028" lon="28.06824">
        <ele>148.2</ele>
      </trkpt>
      <trkpt lat="36.92024" lon="28.06808">
        <ele>148</ele>
      </trkpt>
      <trkpt lat="36.92019" lon="28.06797">
        <ele>148.4</ele>
      </trkpt>
      <trkpt lat="36.92012" lon="28.0679">
        <ele>149.5</ele>
      </trkpt>
      <trkpt lat="36.92015" lon="28.06794">
        <ele>149</ele>
      </trkpt>
      <trkpt lat="36.92012" lon="28.06788">
        <ele>149.4</ele>
      </trkpt>
      <trkpt lat="36.92013" lon="28.06814">
        <ele>149.6</ele>
      </trkpt>
      <trkpt lat="36.92008" lon="28.0683">
        <ele>150.3</ele>
      </trkpt>
      <trkpt lat="36.92003" lon="28.06878">
        <ele>151.6</ele>
      </trkpt>
      <trkpt lat="36.92003" lon="28.06885">
        <ele>151.7</ele>
      </trkpt>
      <trkpt lat="36.9201" lon="28.06898">
        <ele>152.3</ele>
      </trkpt>
      <trkpt lat="36.92021" lon="28.06904">
        <ele>153.1</ele>
      </trkpt>
      <trkpt lat="36.92028" lon="28.06916">
        <ele>154.3</ele>
      </trkpt>
      <trkpt lat="36.92017" lon="28.0695">
        <ele>152.5</ele>
      </trkpt>
      <trkpt lat="36.92004" lon="28.06972">
        <ele>149.4</ele>
      </trkpt>
      <trkpt lat="36.92011" lon="28.06991">
        <ele>150.2</ele>
      </trkpt>
      <trkpt lat="36.92029" lon="28.07011">
        <ele>154.3</ele>
      </trkpt>
      <trkpt lat="36.92056" lon="28.07027">
        <ele>161.6</ele>
      </trkpt>
      <trkpt lat="36.92052" lon="28.07056">
        <ele>160.9</ele>
      </trkpt>
      <trkpt lat="36.9202" lon="28.07113">
        <ele>149.2</ele>
      </trkpt>
      <trkpt lat="36.9202" lon="28.07148">
        <ele>147.4</ele>
      </trkpt>
      <trkpt lat="36.92024" lon="28.07154">
        <ele>148.4</ele>
      </trkpt>
      <trkpt lat="36.92033" lon="28.07166">
        <ele>150.6</ele>
      </trkpt>
      <trkpt lat="36.92036" lon="28.07192">
        <ele>152.8</ele>
      </trkpt>
      <trkpt lat="36.92016" lon="28.07209">
        <ele>148.1</ele>
      </trkpt>
      <trkpt lat="36.91996" lon="28.0722">
        <ele>143.7</ele>
      </trkpt>
      <trkpt lat="36.91983" lon="28.07232">
        <ele>142.2</ele>
      </trkpt>
      <trkpt lat="36.91979" lon="28.07261">
        <ele>143</ele>
      </trkpt>
      <trkpt lat="36.91992" lon="28.07269">
        <ele>145.8</ele>
      </trkpt>
      <trkpt lat="36.92015" lon="28.0728">
        <ele>151.3</ele>
      </trkpt>
      <trkpt lat="36.92005" lon="28.07293">
        <ele>149.3</ele>
      </trkpt>
      <trkpt lat="36.91994" lon="28.07315">
        <ele>147.4</ele>
      </trkpt>
      <trkpt lat="36.91991" lon="28.07333">
        <ele>147.4</ele>
      </trkpt>
      <trkpt lat="36.9199" lon="28.07346">
        <ele>147</ele>
      </trkpt>
      <trkpt lat="36.91973" lon="28.07367">
        <ele>144.2</ele>
      </trkpt>
      <trkpt lat="36.91961" lon="28.07371">
        <ele>142.1</ele>
      </trkpt>
      <trkpt lat="36.91955" lon="28.07399">
        <ele>141.4</ele>
      </trkpt>
      <trkpt lat="36.9197" lon="28.07424">
        <ele>144.2</ele>
      </trkpt>
      <trkpt lat="36.91976" lon="28.07427">
        <ele>145.3</ele>
      </trkpt>
      <trkpt lat="36.92002" lon="28.07437">
        <ele>149.5</ele>
      </trkpt>
      <trkpt lat="36.91997" lon="28.07448">
        <ele>149.2</ele>
      </trkpt>
      <trkpt lat="36.91987" lon="28.0745">
        <ele>148.2</ele>
      </trkpt>
      <trkpt lat="36.91951" lon="28.07449">
        <ele>144</ele>
      </trkpt>
      <trkpt lat="36.91945" lon="28.07455">
        <ele>144.1</ele>
      </trkpt>
      <trkpt lat="36.9195" lon="28.07474">
        <ele>146.5</ele>
      </trkpt>
      <trkpt lat="36.91937" lon="28.07476">
        <ele>145.6</ele>
      </trkpt>
      <trkpt lat="36.91932" lon="28.07473">
        <ele>144.7</ele>
      </trkpt>
      <trkpt lat="36.91915" lon="28.07472">
        <ele>143.4</ele>
      </trkpt>
      <trkpt lat="36.91917" lon="28.07486">
        <ele>145.2</ele>
      </trkpt>
      <trkpt lat="36.91919" lon="28.07505">
        <ele>148.1</ele>
      </trkpt>
      <trkpt lat="36.91909" lon="28.07526">
        <ele>152.3</ele>
      </trkpt>
      <trkpt lat="36.91883" lon="28.07531">
        <ele>152</ele>
      </trkpt>
      <trkpt lat="36.9187" lon="28.07517">
        <ele>149.6</ele>
      </trkpt>
      <trkpt lat="36.91878" lon="28.07501">
        <ele>147.6</ele>
      </trkpt>
      <trkpt lat="36.91885" lon="28.07485">
        <ele>146.2</ele>
      </trkpt>
      <trkpt lat="36.91872" lon="28.0748">
        <ele>146.5</ele>
      </trkpt>
      <trkpt lat="36.9185" lon="28.07474">
        <ele>147.4</ele>
      </trkpt>
      <trkpt lat="36.91834" lon="28.07454">
        <ele>148.5</ele>
      </trkpt>
      <trkpt lat="36.91839" lon="28.07429">
        <ele>148.1</ele>
      </trkpt>
      <trkpt lat="36.91851" lon="28.07416">
        <ele>146.2</ele>
      </trkpt>
      <trkpt lat="36.91894" lon="28.07389">
        <ele>139.2</ele>
      </trkpt>
      <trkpt lat="36.91907" lon="28.07359">
        <ele>136.4</ele>
      </trkpt>
      <trkpt lat="36.91906" lon="28.0735">
        <ele>136.5</ele>
      </trkpt>
      <trkpt lat="36.91903" lon="28.07331">
        <ele>136.7</ele>
      </trkpt>
      <trkpt lat="36.91904" lon="28.07316">
        <ele>135.6</ele>
      </trkpt>
      <trkpt lat="36.91898" lon="28.07294">
        <ele>135.5</ele>
      </trkpt>
      <trkpt lat="36.91889" lon="28.0728">
        <ele>136</ele>
      </trkpt>
      <trkpt lat="36.91879" lon="28.0725">
        <ele>135.5</ele>
      </trkpt>
      <trkpt lat="36.91873" lon="28.07251">
        <ele>136.4</ele>
      </trkpt>
      <trkpt lat="36.91856" lon="28.07249">
        <ele>138.9</ele>
      </trkpt>
      <trkpt lat="36.91859" lon="28.07234">
        <ele>138.9</ele>
      </trkpt>
      <trkpt lat="36.91864" lon="28.0723">
        <ele>138.2</ele>
      </trkpt>
      <trkpt lat="36.91875" lon="28.07226">
        <ele>136.4</ele>
      </trkpt>
      <trkpt lat="36.91892" lon="28.07203">
        <ele>133.1</ele>
      </trkpt>
      <trkpt lat="36.91894" lon="28.07193">
        <ele>132.6</ele>
      </trkpt>
      <trkpt lat="36.91896" lon="28.07174">
        <ele>131.7</ele>
      </trkpt>
      <trkpt lat="36.91911" lon="28.0714">
        <ele>126.6</ele>
      </trkpt>
      <trkpt lat="36.91916" lon="28.07128">
        <ele>124.9</ele>
      </trkpt>
      <trkpt lat="36.91909" lon="28.07114">
        <ele>126</ele>
      </trkpt>
      <trkpt lat="36.91902" lon="28.07107">
        <ele>127.2</ele>
      </trkpt>
      <trkpt lat="36.91882" lon="28.07089">
        <ele>130.9</ele>
      </trkpt>
      <trkpt lat="36.91871" lon="28.07077">
        <ele>131.8</ele>
      </trkpt>
      <trkpt lat="36.91868" lon="28.07049">
        <ele>128.3</ele>
      </trkpt>
      <trkpt lat="36.91847" lon="28.07001">
        <ele>121</ele>
      </trkpt>
      <trkpt lat="36.91822" lon="28.06981">
        <ele>120.2</ele>
      </trkpt>
      <trkpt lat="36.91804" lon="28.06977">
        <ele>122.1</ele>
      </trkpt>
      <trkpt lat="36.918" lon="28.06982">
        <ele>123.1</ele>
      </trkpt>
      <trkpt lat="36.91783" lon="28.07001">
        <ele>127.3</ele>
      </trkpt>
      <trkpt lat="36.91775" lon="28.06993">
        <ele>127.4</ele>
      </trkpt>
      <trkpt lat="36.91779" lon="28.0698">
        <ele>125.5</ele>
      </trkpt>
      <trkpt lat="36.91793" lon="28.06966">
        <ele>122.3</ele>
      </trkpt>
      <trkpt lat="36.91801" lon="28.06953">
        <ele>120</ele>
      </trkpt>
      <trkpt lat="36.91813" lon="28.06938">
        <ele>117</ele>
      </trkpt>
      <trkpt lat="36.91821" lon="28.06913">
        <ele>113.4</ele>
      </trkpt>
      <trkpt lat="36.9182" lon="28.06882">
        <ele>111.6</ele>
      </trkpt>
      <trkpt lat="36.91815" lon="28.06852">
        <ele>110.1</ele>
      </trkpt>
      <trkpt lat="36.91806" lon="28.06838">
        <ele>109.7</ele>
      </trkpt>
      <trkpt lat="36.91805" lon="28.06812">
        <ele>108.2</ele>
      </trkpt>
      <trkpt lat="36.91823" lon="28.06789">
        <ele>106.6</ele>
      </trkpt>
      <trkpt lat="36.91825" lon="28.06773">
        <ele>105.9</ele>
      </trkpt>
      <trkpt lat="36.91811" lon="28.06746">
        <ele>104.9</ele>
      </trkpt>
      <trkpt lat="36.91807" lon="28.06737">
        <ele>105.1</ele>
      </trkpt>
      <trkpt lat="36.918" lon="28.06724">
        <ele>105.4</ele>
      </trkpt>
      <trkpt lat="36.91789" lon="28.06731">
        <ele>104.9</ele>
      </trkpt>
      <trkpt lat="36.91785" lon="28.06759">
        <ele>105</ele>
      </trkpt>
      <trkpt lat="36.9177" lon="28.0677">
        <ele>105.9</ele>
      </trkpt>
      <trkpt lat="36.91761" lon="28.06761">
        <ele>105.1</ele>
      </trkpt>
      <trkpt lat="36.91764" lon="28.06745">
        <ele>104.2</ele>
      </trkpt>
      <trkpt lat="36.91771" lon="28.06728">
        <ele>104.5</ele>
      </trkpt>
      <trkpt lat="36.91773" lon="28.06707">
        <ele>104.8</ele>
      </trkpt>
      <trkpt lat="36.91793" lon="28.06689">
        <ele>106</ele>
      </trkpt>
      <trkpt lat="36.9181" lon="28.06666">
        <ele>107.6</ele>
      </trkpt>
      <trkpt lat="36.91795" lon="28.06631">
        <ele>106.3</ele>
      </trkpt>
      <trkpt lat="36.91776" lon="28.06622">
        <ele>103.1</ele>
      </trkpt>
      <trkpt lat="36.91761" lon="28.06623">
        <ele>100.6</ele>
      </trkpt>
      <trkpt lat="36.91734" lon="28.06606">
        <ele>100</ele>
      </trkpt>
      <trkpt lat="36.91734" lon="28.0658">
        <ele>97.1</ele>
      </trkpt>
      <trkpt lat="36.91745" lon="28.06556">
        <ele>94.9</ele>
      </trkpt>
      <trkpt lat="36.91734" lon="28.06556">
        <ele>97.4</ele>
      </trkpt>
      <trkpt lat="36.91728" lon="28.0656">
        <ele>98.5</ele>
      </trkpt>
      <trkpt lat="36.9171" lon="28.06573">
        <ele>101.9</ele>
      </trkpt>
      <trkpt lat="36.91693" lon="28.06571">
        <ele>105.3</ele>
      </trkpt>
      <trkpt lat="36.91701" lon="28.06548">
        <ele>104.1</ele>
      </trkpt>
      <trkpt lat="36.91711" lon="28.06537">
        <ele>102.2</ele>
      </trkpt>
      <trkpt lat="36.91717" lon="28.06517">
        <ele>101.4</ele>
      </trkpt>
      <trkpt lat="36.91711" lon="28.06499">
        <ele>102.8</ele>
      </trkpt>
      <trkpt lat="36.91707" lon="28.06484">
        <ele>104.2</ele>
      </trkpt>
      <trkpt lat="36.91692" lon="28.0647">
        <ele>108.6</ele>
      </trkpt>
      <trkpt lat="36.91685" lon="28.06457">
        <ele>111.2</ele>
      </trkpt>
      <trkpt lat="36.91698" lon="28.0645">
        <ele>108</ele>
      </trkpt>
      <trkpt lat="36.91707" lon="28.06446">
        <ele>105.5</ele>
      </trkpt>
      <trkpt lat="36.91722" lon="28.06434">
        <ele>101.3</ele>
      </trkpt>
      <trkpt lat="36.91734" lon="28.06409">
        <ele>97.2</ele>
      </trkpt>
      <trkpt lat="36.91734" lon="28.06398">
        <ele>95.8</ele>
      </trkpt>
      <trkpt lat="36.91733" lon="28.06368">
        <ele>92.3</ele>
      </trkpt>
      <trkpt lat="36.9172" lon="28.06356">
        <ele>94.2</ele>
      </trkpt>
      <trkpt lat="36.91713" lon="28.06355">
        <ele>96</ele>
      </trkpt>
      <trkpt lat="36.91682" lon="28.06342">
        <ele>101.6</ele>
      </trkpt>
      <trkpt lat="36.91676" lon="28.06339">
        <ele>102.6</ele>
      </trkpt>
      <trkpt lat="36.91649" lon="28.06346">
        <ele>110.8</ele>
      </trkpt>
      <trkpt lat="36.9162" lon="28.06341">
        <ele>117.5</ele>
      </trkpt>
      <trkpt lat="36.91611" lon="28.06326">
        <ele>118.2</ele>
      </trkpt>
      <trkpt lat="36.91602" lon="28.06305">
        <ele>118.2</ele>
      </trkpt>
      <trkpt lat="36.9158" lon="28.0629">
        <ele>121.4</ele>
      </trkpt>
      <trkpt lat="36.91545" lon="28.06278">
        <ele>126.9</ele>
      </trkpt>
      <trkpt lat="36.91526" lon="28.06272">
        <ele>129.9</ele>
      </trkpt>
      <trkpt lat="36.91528" lon="28.06256">
        <ele>127.4</ele>
      </trkpt>
      <trkpt lat="36.91553" lon="28.06242">
        <ele>122.9</ele>
      </trkpt>
      <trkpt lat="36.91566" lon="28.06237">
        <ele>121</ele>
      </trkpt>
      <trkpt lat="36.91581" lon="28.06228">
        <ele>119.4</ele>
      </trkpt>
      <trkpt lat="36.91589" lon="28.06218">
        <ele>119.4</ele>
      </trkpt>
      <trkpt lat="36.91593" lon="28.06195">
        <ele>121.8</ele>
      </trkpt>
      <trkpt lat="36.91593" lon="28.06155">
        <ele>127.2</ele>
      </trkpt>
      <trkpt lat="36.9161" lon="28.06149">
        <ele>125.3</ele>
      </trkpt>
      <trkpt lat="36.91627" lon="28.06164">
        <ele>121</ele>
      </trkpt>
      <trkpt lat="36.91649" lon="28.0617">
        <ele>117</ele>
      </trkpt>
      <trkpt lat="36.91655" lon="28.06155">
        <ele>117.6</ele>
      </trkpt>
      <trkpt lat="36.91662" lon="28.06124">
        <ele>118.6</ele>
      </trkpt>
      <trkpt lat="36.91664" lon="28.06098">
        <ele>119.8</ele>
      </trkpt>
      <trkpt lat="36.91654" lon="28.06091">
        <ele>122.4</ele>
      </trkpt>
      <trkpt lat="36.91607" lon="28.0605">
        <ele>133</ele>
      </trkpt>
      <trkpt lat="36.91594" lon="28.06025">
        <ele>136</ele>
      </trkpt>
      <trkpt lat="36.91592" lon="28.06015">
        <ele>136.5</ele>
      </trkpt>
      <trkpt lat="36.91589" lon="28.05996">
        <ele>137.8</ele>
      </trkpt>
      <trkpt lat="36.91594" lon="28.05951">
        <ele>141.3</ele>
      </trkpt>
      <trkpt lat="36.91595" lon="28.05936">
        <ele>142.8</ele>
      </trkpt>
      <trkpt lat="36.91617" lon="28.05904">
        <ele>141.6</ele>
      </trkpt>
      <trkpt lat="36.91634" lon="28.05884">
        <ele>140.7</ele>
      </trkpt>
      <trkpt lat="36.91656" lon="28.05877">
        <ele>139.3</ele>
      </trkpt>
      <trkpt lat="36.91662" lon="28.05882">
        <ele>137.9</ele>
      </trkpt>
      <trkpt lat="36.9168" lon="28.05901">
        <ele>132.9</ele>
      </trkpt>
      <trkpt lat="36.91702" lon="28.05897">
        <ele>130.4</ele>
      </trkpt>
      <trkpt lat="36.91713" lon="28.05889">
        <ele>130</ele>
      </trkpt>
      <trkpt lat="36.91731" lon="28.05884">
        <ele>128.3</ele>
      </trkpt>
      <trkpt lat="36.91745" lon="28.05855">
        <ele>129.5</ele>
      </trkpt>
      <trkpt lat="36.91733" lon="28.05844">
        <ele>132.6</ele>
      </trkpt>
      <trkpt lat="36.91726" lon="28.05836">
        <ele>134.7</ele>
      </trkpt>
      <trkpt lat="36.91722" lon="28.05832">
        <ele>135.8</ele>
      </trkpt>
      <trkpt lat="36.9172" lon="28.05808">
        <ele>136.8</ele>
      </trkpt>
      <trkpt lat="36.91726" lon="28.05801">
        <ele>136.1</ele>
      </trkpt>
      <trkpt lat="36.91738" lon="28.05793">
        <ele>134.7</ele>
      </trkpt>
      <trkpt lat="36.91739" lon="28.05766">
        <ele>135.6</ele>
      </trkpt>
      <trkpt lat="36.91736" lon="28.05759">
        <ele>136.3</ele>
      </trkpt>
      <trkpt lat="36.91732" lon="28.05742">
        <ele>137.1</ele>
      </trkpt>
      <trkpt lat="36.91732" lon="28.05714">
        <ele>137.2</ele>
      </trkpt>
      <trkpt lat="36.91729" lon="28.05677">
        <ele>137.5</ele>
      </trkpt>
      <trkpt lat="36.91721" lon="28.05653">
        <ele>137.7</ele>
      </trkpt>
      <trkpt lat="36.91721" lon="28.0564">
        <ele>136.9</ele>
      </trkpt>
      <trkpt lat="36.91722" lon="28.05612">
        <ele>135.3</ele>
      </trkpt>
      <trkpt lat="36.91721" lon="28.05613">
        <ele>135.4</ele>
      </trkpt>
      <trkpt lat="36.91722" lon="28.05614">
        <ele>135.4</ele>
      </trkpt>
      <trkpt lat="36.91718" lon="28.05607">
        <ele>135.2</ele>
      </trkpt>
      <trkpt lat="36.91717" lon="28.05605">
        <ele>135.1</ele>
      </trkpt>
      <trkpt lat="36.9171" lon="28.05602">
        <ele>135.3</ele>
      </trkpt>
      <trkpt lat="36.91698" lon="28.05598">
        <ele>135.5</ele>
      </trkpt>
      <trkpt lat="36.91676" lon="28.05604">
        <ele>137</ele>
      </trkpt>
      <trkpt lat="36.91667" lon="28.05623">
        <ele>139.7</ele>
      </trkpt>
      <trkpt lat="36.91663" lon="28.05632">
        <ele>140.2</ele>
      </trkpt>
      <trkpt lat="36.91656" lon="28.05659">
        <ele>142.2</ele>
      </trkpt>
      <trkpt lat="36.91654" lon="28.05695">
        <ele>142.8</ele>
      </trkpt>
      <trkpt lat="36.91653" lon="28.05719">
        <ele>142.8</ele>
      </trkpt>
      <trkpt lat="36.91648" lon="28.05746">
        <ele>142.3</ele>
      </trkpt>
      <trkpt lat="36.9164" lon="28.05758">
        <ele>141.6</ele>
      </trkpt>
      <trkpt lat="36.91629" lon="28.05763">
        <ele>140.4</ele>
      </trkpt>
      <trkpt lat="36.91618" lon="28.05755">
        <ele>138.4</ele>
      </trkpt>
      <trkpt lat="36.91601" lon="28.05736">
        <ele>135.1</ele>
      </trkpt>
      <trkpt lat="36.91583" lon="28.05731">
        <ele>132.1</ele>
      </trkpt>
      <trkpt lat="36.91579" lon="28.05738">
        <ele>132.6</ele>
      </trkpt>
      <trkpt lat="36.91568" lon="28.05747">
        <ele>133.9</ele>
      </trkpt>
      <trkpt lat="36.91556" lon="28.05719">
        <ele>132</ele>
      </trkpt>
      <trkpt lat="36.91539" lon="28.0571">
        <ele>131.3</ele>
      </trkpt>
      <trkpt lat="36.91521" lon="28.05717">
        <ele>132.3</ele>
      </trkpt>
      <trkpt lat="36.91516" lon="28.05698">
        <ele>129.4</ele>
      </trkpt>
      <trkpt lat="36.91507" lon="28.05676">
        <ele>125.2</ele>
      </trkpt>
      <trkpt lat="36.91502" lon="28.05672">
        <ele>124.1</ele>
      </trkpt>
      <trkpt lat="36.91493" lon="28.05666">
        <ele>123.7</ele>
      </trkpt>
      <trkpt lat="36.91474" lon="28.05654">
        <ele>124.7</ele>
      </trkpt>
      <trkpt lat="36.91455" lon="28.0564">
        <ele>124.9</ele>
      </trkpt>
      <trkpt lat="36.91426" lon="28.05605">
        <ele>121.5</ele>
      </trkpt>
      <trkpt lat="36.91417" lon="28.05593">
        <ele>119.6</ele>
      </trkpt>
      <trkpt lat="36.91406" lon="28.05565">
        <ele>116.6</ele>
      </trkpt>
      <trkpt lat="36.91399" lon="28.05556">
        <ele>116</ele>
      </trkpt>
      <trkpt lat="36.91396" lon="28.05535">
        <ele>113</ele>
      </trkpt>
      <trkpt lat="36.91397" lon="28.05526">
        <ele>111.4</ele>
      </trkpt>
      <trkpt lat="36.91406" lon="28.05479">
        <ele>103.9</ele>
      </trkpt>
      <trkpt lat="36.91421" lon="28.05447">
        <ele>99.7</ele>
      </trkpt>
      <trkpt lat="36.91434" lon="28.05436">
        <ele>98.6</ele>
      </trkpt>
      <trkpt lat="36.91439" lon="28.05408">
        <ele>95</ele>
      </trkpt>
      <trkpt lat="36.91423" lon="28.05392">
        <ele>91</ele>
      </trkpt>
      <trkpt lat="36.91406" lon="28.05399">
        <ele>91.3</ele>
      </trkpt>
      <trkpt lat="36.9139" lon="28.05411">
        <ele>92.8</ele>
      </trkpt>
      <trkpt lat="36.91362" lon="28.05419">
        <ele>92.6</ele>
      </trkpt>
      <trkpt lat="36.91344" lon="28.05427">
        <ele>93.3</ele>
      </trkpt>
      <trkpt lat="36.91328" lon="28.05448">
        <ele>97.3</ele>
      </trkpt>
      <trkpt lat="36.91326" lon="28.05453">
        <ele>98.5</ele>
      </trkpt>
      <trkpt lat="36.91307" lon="28.05472">
        <ele>100.3</ele>
      </trkpt>
      <trkpt lat="36.91301" lon="28.05471">
        <ele>99</ele>
      </trkpt>
      <trkpt lat="36.91283" lon="28.05463">
        <ele>94</ele>
      </trkpt>
      <trkpt lat="36.91267" lon="28.05468">
        <ele>92.7</ele>
      </trkpt>
      <trkpt lat="36.91272" lon="28.0549">
        <ele>99.2</ele>
      </trkpt>
      <trkpt lat="36.91268" lon="28.05512">
        <ele>103</ele>
      </trkpt>
      <trkpt lat="36.91253" lon="28.05515">
        <ele>100.8</ele>
      </trkpt>
      <trkpt lat="36.91238" lon="28.05518">
        <ele>96.6</ele>
      </trkpt>
      <trkpt lat="36.91228" lon="28.05533">
        <ele>95.1</ele>
      </trkpt>
      <trkpt lat="36.9124" lon="28.05568">
        <ele>104.9</ele>
      </trkpt>
      <trkpt lat="36.91228" lon="28.05586">
        <ele>102.8</ele>
      </trkpt>
      <trkpt lat="36.91217" lon="28.05591">
        <ele>99</ele>
      </trkpt>
      <trkpt lat="36.91213" lon="28.05612">
        <ele>99.2</ele>
      </trkpt>
      <trkpt lat="36.9122" lon="28.05628">
        <ele>102</ele>
      </trkpt>
      <trkpt lat="36.91202" lon="28.05643">
        <ele>98.1</ele>
      </trkpt>
      <trkpt lat="36.91181" lon="28.05652">
        <ele>93.4</ele>
      </trkpt>
      <trkpt lat="36.91168" lon="28.05665">
        <ele>92</ele>
      </trkpt>
      <trkpt lat="36.91165" lon="28.05684">
        <ele>92.7</ele>
      </trkpt>
      <trkpt lat="36.91174" lon="28.05691">
        <ele>94.6</ele>
      </trkpt>
      <trkpt lat="36.912" lon="28.05707">
        <ele>100.1</ele>
      </trkpt>
      <trkpt lat="36.91213" lon="28.0573">
        <ele>102.6</ele>
      </trkpt>
      <trkpt lat="36.9121" lon="28.05746">
        <ele>102.2</ele>
      </trkpt>
      <trkpt lat="36.91193" lon="28.05755">
        <ele>100.5</ele>
      </trkpt>
      <trkpt lat="36.91187" lon="28.05752">
        <ele>99.1</ele>
      </trkpt>
      <trkpt lat="36.91174" lon="28.05742">
        <ele>96.7</ele>
      </trkpt>
      <trkpt lat="36.91167" lon="28.05739">
        <ele>95.5</ele>
      </trkpt>
      <trkpt lat="36.91143" lon="28.05748">
        <ele>94.1</ele>
      </trkpt>
      <trkpt lat="36.91135" lon="28.05757">
        <ele>94.5</ele>
      </trkpt>
      <trkpt lat="36.91085" lon="28.05775">
        <ele>91.9</ele>
      </trkpt>
      <trkpt lat="36.91036" lon="28.0579">
        <ele>91.2</ele>
      </trkpt>
      <trkpt lat="36.91025" lon="28.05795">
        <ele>91</ele>
      </trkpt>
      <trkpt lat="36.91007" lon="28.05812">
        <ele>90.8</ele>
      </trkpt>
      <trkpt lat="36.90968" lon="28.05837">
        <ele>89.4</ele>
      </trkpt>
      <trkpt lat="36.90945" lon="28.05841">
        <ele>88.3</ele>
      </trkpt>
      <trkpt lat="36.90907" lon="28.05871">
        <ele>88.3</ele>
      </trkpt>
      <trkpt lat="36.9089" lon="28.05896">
        <ele>88.8</ele>
      </trkpt>
      <trkpt lat="36.90859" lon="28.05897">
        <ele>86.7</ele>
      </trkpt>
      <trkpt lat="36.90852" lon="28.05895">
        <ele>86.2</ele>
      </trkpt>
      <trkpt lat="36.90828" lon="28.05911">
        <ele>85.8</ele>
      </trkpt>
      <trkpt lat="36.90816" lon="28.05953">
        <ele>86.6</ele>
      </trkpt>
      <trkpt lat="36.90815" lon="28.05965">
        <ele>86.4</ele>
      </trkpt>
      <trkpt lat="36.90814" lon="28.05996">
        <ele>85.6</ele>
      </trkpt>
      <trkpt lat="36.90798" lon="28.06033">
        <ele>83.9</ele>
      </trkpt>
      <trkpt lat="36.90796" lon="28.0606">
        <ele>82.2</ele>
      </trkpt>
      <trkpt lat="36.90802" lon="28.06059">
        <ele>82.5</ele>
      </trkpt>
      <trkpt lat="36.90808" lon="28.06057">
        <ele>82.8</ele>
      </trkpt>
      <trkpt lat="36.90816" lon="28.06053">
        <ele>83.2</ele>
      </trkpt>
      <trkpt lat="36.90814" lon="28.0607">
        <ele>82.4</ele>
      </trkpt>
      <trkpt lat="36.90795" lon="28.06077">
        <ele>81.1</ele>
      </trkpt>
      <trkpt lat="36.90786" lon="28.06086">
        <ele>80.2</ele>
      </trkpt>
      <trkpt lat="36.90758" lon="28.06095">
        <ele>78.2</ele>
      </trkpt>
      <trkpt lat="36.90734" lon="28.06106">
        <ele>79.1</ele>
      </trkpt>
      <trkpt lat="36.90727" lon="28.06125">
        <ele>78.6</ele>
      </trkpt>
      <trkpt lat="36.90731" lon="28.06149">
        <ele>76.5</ele>
      </trkpt>
      <trkpt lat="36.90743" lon="28.06162">
        <ele>75.3</ele>
      </trkpt>
      <trkpt lat="36.90756" lon="28.06172">
        <ele>76.8</ele>
      </trkpt>
      <trkpt lat="36.90767" lon="28.06173">
        <ele>78.6</ele>
      </trkpt>
      <trkpt lat="36.90755" lon="28.06183">
        <ele>78.3</ele>
      </trkpt>
      <trkpt lat="36.90748" lon="28.06185">
        <ele>77.8</ele>
      </trkpt>
      <trkpt lat="36.90705" lon="28.06207">
        <ele>76.3</ele>
      </trkpt>
      <trkpt lat="36.90693" lon="28.06211">
        <ele>74.9</ele>
      </trkpt>
      <trkpt lat="36.90685" lon="28.06229">
        <ele>73.3</ele>
      </trkpt>
      <trkpt lat="36.90684" lon="28.06237">
        <ele>72.6</ele>
      </trkpt>
      <trkpt lat="36.90653" lon="28.06263">
        <ele>67.6</ele>
      </trkpt>
      <trkpt lat="36.90621" lon="28.06261">
        <ele>63.2</ele>
      </trkpt>
      <trkpt lat="36.90605" lon="28.06272">
        <ele>61.5</ele>
      </trkpt>
      <trkpt lat="36.90586" lon="28.06305">
        <ele>59.2</ele>
      </trkpt>
      <trkpt lat="36.90564" lon="28.06315">
        <ele>56.6</ele>
      </trkpt>
      <trkpt lat="36.90533" lon="28.06311">
        <ele>52.8</ele>
      </trkpt>
      <trkpt lat="36.905" lon="28.06335">
        <ele>49</ele>
      </trkpt>
      <trkpt lat="36.90479" lon="28.0638">
        <ele>47.8</ele>
      </trkpt>
      <trkpt lat="36.9047" lon="28.06415">
        <ele>47.4</ele>
      </trkpt>
      <trkpt lat="36.90452" lon="28.0645">
        <ele>47</ele>
      </trkpt>
      <trkpt lat="36.90432" lon="28.06475">
        <ele>46.2</ele>
      </trkpt>
      <trkpt lat="36.90419" lon="28.06489">
        <ele>45.6</ele>
      </trkpt>
      <trkpt lat="36.90406" lon="28.06486">
        <ele>45.5</ele>
      </trkpt>
      <trkpt lat="36.90357" lon="28.06466">
        <ele>44.8</ele>
      </trkpt>
      <trkpt lat="36.90281" lon="28.06445">
        <ele>40.8</ele>
      </trkpt>
      <trkpt lat="36.90221" lon="28.06443">
        <ele>39.4</ele>
      </trkpt>
      <trkpt lat="36.90213" lon="28.06442">
        <ele>39.3</ele>
      </trkpt>
      <trkpt lat="36.90189" lon="28.06447">
        <ele>39.1</ele>
      </trkpt>
      <trkpt lat="36.90174" lon="28.06456">
        <ele>38.8</ele>
      </trkpt>
      <trkpt lat="36.90158" lon="28.06471">
        <ele>38</ele>
      </trkpt>
      <trkpt lat="36.90113" lon="28.0651">
        <ele>33.9</ele>
      </trkpt>
      <trkpt lat="36.90087" lon="28.06516">
        <ele>31.7</ele>
      </trkpt>
      <trkpt lat="36.9007" lon="28.06511">
        <ele>31</ele>
      </trkpt>
      <trkpt lat="36.90019" lon="28.06534">
        <ele>28.6</ele>
      </trkpt>
      <trkpt lat="36.89991" lon="28.06549">
        <ele>27.8</ele>
      </trkpt>
      <trkpt lat="36.89983" lon="28.06564">
        <ele>27.6</ele>
      </trkpt>
      <trkpt lat="36.89986" lon="28.0657">
        <ele>27.7</ele>
      </trkpt>
      <trkpt lat="36.89986" lon="28.06568">
        <ele>27.7</ele>
      </trkpt>
      <trkpt lat="36.89986" lon="28.06569">
        <ele>27.7</ele>
      </trkpt>
      <trkpt lat="36.89997" lon="28.06593">
        <ele>27.8</ele>
      </trkpt>
      <trkpt lat="36.90007" lon="28.06618">
        <ele>27.6</ele>
      </trkpt>
      <trkpt lat="36.90023" lon="28.06658">
        <ele>27.1</ele>
      </trkpt>
      <trkpt lat="36.90049" lon="28.06732">
        <ele>26.2</ele>
      </trkpt>
      <trkpt lat="36.90068" lon="28.06779">
        <ele>26.1</ele>
      </trkpt>
      <trkpt lat="36.90081" lon="28.06807">
        <ele>26</ele>
      </trkpt>
      <trkpt lat="36.90086" lon="28.06814">
        <ele>26.1</ele>
      </trkpt>
      <trkpt lat="36.90084" lon="28.06812">
        <ele>26</ele>
      </trkpt>
      <trkpt lat="36.90091" lon="28.06823">
        <ele>26.2</ele>
      </trkpt>
      <trkpt lat="36.90093" lon="28.06826">
        <ele>26.2</ele>
      </trkpt>
      <trkpt lat="36.90096" lon="28.06832">
        <ele>26.3</ele>
      </trkpt>
      <trkpt lat="36.90097" lon="28.06838">
        <ele>26.2</ele>
      </trkpt>
      <trkpt lat="36.90097" lon="28.06855">
        <ele>25.8</ele>
      </trkpt>
      <trkpt lat="36.90097" lon="28.06854">
        <ele>25.9</ele>
      </trkpt>
      <trkpt lat="36.90105" lon="28.06873">
        <ele>25.7</ele>
      </trkpt>
      <trkpt lat="36.90117" lon="28.06899">
        <ele>25.6</ele>
      </trkpt>
      <trkpt lat="36.90159" lon="28.06998">
        <ele>26.8</ele>
      </trkpt>
      <trkpt lat="36.90159" lon="28.07086">
        <ele>28.9</ele>
      </trkpt>
      <trkpt lat="36.90083" lon="28.07072">
        <ele>26.8</ele>
      </trkpt>
      <trkpt lat="36.90026" lon="28.07059">
        <ele>27.6</ele>
      </trkpt>
      <trkpt lat="36.89965" lon="28.07059">
        <ele>28.7</ele>
      </trkpt>
      <trkpt lat="36.89946" lon="28.07063">
        <ele>28.9</ele>
      </trkpt>
      <trkpt lat="36.89911" lon="28.07082">
        <ele>28.3</ele>
      </trkpt>
      <trkpt lat="36.89882" lon="28.07081">
        <ele>29.9</ele>
      </trkpt>
      <trkpt lat="36.89833" lon="28.07062">
        <ele>34.9</ele>
      </trkpt>
      <trkpt lat="36.89823" lon="28.07063">
        <ele>35</ele>
      </trkpt>
      <trkpt lat="36.89794" lon="28.0707">
        <ele>34.9</ele>
      </trkpt>
      <trkpt lat="36.89779" lon="28.0707">
        <ele>35.4</ele>
      </trkpt>
      <trkpt lat="36.89756" lon="28.07076">
        <ele>34.9</ele>
      </trkpt>
      <trkpt lat="36.89744" lon="28.07073">
        <ele>35.4</ele>
      </trkpt>
      <trkpt lat="36.89724" lon="28.07079">
        <ele>33.6</ele>
      </trkpt>
      <trkpt lat="36.8972" lon="28.07079">
        <ele>33.5</ele>
      </trkpt>
      <trkpt lat="36.89691" lon="28.07094">
        <ele>30.9</ele>
      </trkpt>
      <trkpt lat="36.89683" lon="28.07107">
        <ele>30.1</ele>
      </trkpt>
      <trkpt lat="36.89654" lon="28.07116">
        <ele>29.7</ele>
      </trkpt>
      <trkpt lat="36.89642" lon="28.07106">
        <ele>30.5</ele>
      </trkpt>
      <trkpt lat="36.89611" lon="28.07073">
        <ele>31.3</ele>
      </trkpt>
      <trkpt lat="36.89583" lon="28.07071">
        <ele>30.8</ele>
      </trkpt>
      <trkpt lat="36.89567" lon="28.0708">
        <ele>31.1</ele>
      </trkpt>
      <trkpt lat="36.89557" lon="28.07081">
        <ele>31.6</ele>
      </trkpt>
      <trkpt lat="36.8952" lon="28.07083">
        <ele>33.8</ele>
      </trkpt>
      <trkpt lat="36.89489" lon="28.07077">
        <ele>38.3</ele>
      </trkpt>
      <trkpt lat="36.89485" lon="28.07071">
        <ele>39.1</ele>
      </trkpt>
      <trkpt lat="36.89485" lon="28.07019">
        <ele>33.9</ele>
      </trkpt>
      <trkpt lat="36.89497" lon="28.07">
        <ele>26.4</ele>
      </trkpt>
      <trkpt lat="36.89506" lon="28.06986">
        <ele>26.1</ele>
      </trkpt>
      <trkpt lat="36.89496" lon="28.06963">
        <ele>27.2</ele>
      </trkpt>
      <trkpt lat="36.89486" lon="28.06952">
        <ele>32.1</ele>
      </trkpt>
      <trkpt lat="36.89491" lon="28.06908">
        <ele>30</ele>
      </trkpt>
      <trkpt lat="36.89497" lon="28.06888">
        <ele>26.4</ele>
      </trkpt>
      <trkpt lat="36.89498" lon="28.0685">
        <ele>25</ele>
      </trkpt>
      <trkpt lat="36.89484" lon="28.06817">
        <ele>27.9</ele>
      </trkpt>
      <trkpt lat="36.8943" lon="28.06764">
        <ele>27.6</ele>
      </trkpt>
      <trkpt lat="36.89393" lon="28.06724">
        <ele>23.1</ele>
      </trkpt>
      <trkpt lat="36.8936" lon="28.06711">
        <ele>24</ele>
      </trkpt>
      <trkpt lat="36.89333" lon="28.06691">
        <ele>21.6</ele>
      </trkpt>
      <trkpt lat="36.89304" lon="28.06681">
        <ele>20.6</ele>
      </trkpt>
      <trkpt lat="36.8925" lon="28.06666">
        <ele>19</ele>
      </trkpt>
      <trkpt lat="36.89215" lon="28.06666">
        <ele>18.2</ele>
      </trkpt>
      <trkpt lat="36.89187" lon="28.06683">
        <ele>21.2</ele>
      </trkpt>
      <trkpt lat="36.89173" lon="28.06696">
        <ele>23.3</ele>
      </trkpt>
      <trkpt lat="36.89159" lon="28.067">
        <ele>24.7</ele>
      </trkpt>
      <trkpt lat="36.89148" lon="28.06695">
        <ele>24.9</ele>
      </trkpt>
      <trkpt lat="36.8912" lon="28.06666">
        <ele>22</ele>
      </trkpt>
      <trkpt lat="36.89088" lon="28.06624">
        <ele>19.6</ele>
      </trkpt>
      <trkpt lat="36.89076" lon="28.06605">
        <ele>17.1</ele>
      </trkpt>
      <trkpt lat="36.8904" lon="28.06571">
        <ele>13.6</ele>
      </trkpt>
      <trkpt lat="36.89018" lon="28.06569">
        <ele>13.4</ele>
      </trkpt>
      <trkpt lat="36.89006" lon="28.06589">
        <ele>14.6</ele>
      </trkpt>
      <trkpt lat="36.89005" lon="28.0662">
        <ele>18.1</ele>
      </trkpt>
      <trkpt lat="36.89008" lon="28.06631">
        <ele>19.3</ele>
      </trkpt>
      <trkpt lat="36.88992" lon="28.0665">
        <ele>21.6</ele>
      </trkpt>
      <trkpt lat="36.88978" lon="28.06653">
        <ele>22.5</ele>
      </trkpt>
      <trkpt lat="36.88942" lon="28.0663">
        <ele>20.7</ele>
      </trkpt>
      <trkpt lat="36.88944" lon="28.06628">
        <ele>20.3</ele>
      </trkpt>
      <trkpt lat="36.88945" lon="28.06628">
        <ele>20.3</ele>
      </trkpt>
      <trkpt lat="36.88944" lon="28.0662">
        <ele>19</ele>
      </trkpt>
      <trkpt lat="36.88939" lon="28.06603">
        <ele>16.5</ele>
      </trkpt>
      <trkpt lat="36.88932" lon="28.06591">
        <ele>14.5</ele>
      </trkpt>
      <trkpt lat="36.88919" lon="28.06575">
        <ele>12.5</ele>
      </trkpt>
      <trkpt lat="36.88914" lon="28.06573">
        <ele>13.4</ele>
      </trkpt>
      <trkpt lat="36.88908" lon="28.06576">
        <ele>15.9</ele>
      </trkpt>
      <trkpt lat="36.88901" lon="28.06564">
        <ele>17.6</ele>
      </trkpt>
      <trkpt lat="36.88895" lon="28.0656">
        <ele>19.3</ele>
      </trkpt>
      <trkpt lat="36.88873" lon="28.06522">
        <ele>22.3</ele>
      </trkpt>
      <trkpt lat="36.8885" lon="28.06472">
        <ele>22.7</ele>
      </trkpt>
      <trkpt lat="36.88826" lon="28.06419">
        <ele>20.9</ele>
      </trkpt>
      <trkpt lat="36.88814" lon="28.06389">
        <ele>21.5</ele>
      </trkpt>
      <trkpt lat="36.88807" lon="28.06348">
        <ele>16.9</ele>
      </trkpt>
      <trkpt lat="36.8879" lon="28.06318">
        <ele>15.5</ele>
      </trkpt>
      <trkpt lat="36.88775" lon="28.06314">
        <ele>16.4</ele>
      </trkpt>
      <trkpt lat="36.88756" lon="28.06315">
        <ele>17.8</ele>
      </trkpt>
      <trkpt lat="36.88737" lon="28.06319">
        <ele>19.3</ele>
      </trkpt>
      <trkpt lat="36.88713" lon="28.06328">
        <ele>21.7</ele>
      </trkpt>
      <trkpt lat="36.88689" lon="28.06327">
        <ele>22.9</ele>
      </trkpt>
      <trkpt lat="36.88681" lon="28.0631">
        <ele>21.2</ele>
      </trkpt>
      <trkpt lat="36.88676" lon="28.06292">
        <ele>19.1</ele>
      </trkpt>
      <trkpt lat="36.88648" lon="28.06271">
        <ele>17.1</ele>
      </trkpt>
      <trkpt lat="36.88641" lon="28.06269">
        <ele>16.9</ele>
      </trkpt>
      <trkpt lat="36.88629" lon="28.06263">
        <ele>16.2</ele>
      </trkpt>
      <trkpt lat="36.88612" lon="28.06248">
        <ele>14.5</ele>
      </trkpt>
      <trkpt lat="36.88607" lon="28.06245">
        <ele>14.3</ele>
      </trkpt>
      <trkpt lat="36.88584" lon="28.06242">
        <ele>14.5</ele>
      </trkpt>
      <trkpt lat="36.88571" lon="28.06264">
        <ele>15.5</ele>
      </trkpt>
      <trkpt lat="36.88566" lon="28.06284">
        <ele>17.3</ele>
      </trkpt>
      <trkpt lat="36.88562" lon="28.06292">
        <ele>17.8</ele>
      </trkpt>
      <trkpt lat="36.88546" lon="28.06318">
        <ele>17.6</ele>
      </trkpt>
      <trkpt lat="36.88536" lon="28.06356">
        <ele>20.4</ele>
      </trkpt>
      <trkpt lat="36.88523" lon="28.06372">
        <ele>19.6</ele>
      </trkpt>
      <trkpt lat="36.88518" lon="28.06372">
        <ele>18</ele>
      </trkpt>
      <trkpt lat="36.88505" lon="28.06374">
        <ele>14.8</ele>
      </trkpt>
      <trkpt lat="36.88483" lon="28.06405">
        <ele>16</ele>
      </trkpt>
      <trkpt lat="36.88475" lon="28.06449">
        <ele>21.6</ele>
      </trkpt>
      <trkpt lat="36.88463" lon="28.06476">
        <ele>23.8</ele>
      </trkpt>
      <trkpt lat="36.88443" lon="28.06471">
        <ele>19.4</ele>
      </trkpt>
      <trkpt lat="36.88397" lon="28.06447">
        <ele>17.9</ele>
      </trkpt>
      <trkpt lat="36.88388" lon="28.06433">
        <ele>20.6</ele>
      </trkpt>
      <trkpt lat="36.88384" lon="28.0641">
        <ele>23.8</ele>
      </trkpt>
      <trkpt lat="36.88388" lon="28.06402">
        <ele>23.7</ele>
      </trkpt>
      <trkpt lat="36.88402" lon="28.0638">
        <ele>21.7</ele>
      </trkpt>
      <trkpt lat="36.88425" lon="28.06323">
        <ele>21</ele>
      </trkpt>
      <trkpt lat="36.88462" lon="28.06267">
        <ele>17.6</ele>
      </trkpt>
      <trkpt lat="36.88472" lon="28.06253">
        <ele>15.3</ele>
      </trkpt>
      <trkpt lat="36.88478" lon="28.06242">
        <ele>13.6</ele>
      </trkpt>
      <trkpt lat="36.88472" lon="28.06234">
        <ele>15.1</ele>
      </trkpt>
      <trkpt lat="36.88467" lon="28.06232">
        <ele>16.3</ele>
      </trkpt>
      <trkpt lat="36.88455" lon="28.0622">
        <ele>19.1</ele>
      </trkpt>
      <trkpt lat="36.88438" lon="28.06186">
        <ele>20.8</ele>
      </trkpt>
      <trkpt lat="36.88429" lon="28.06167">
        <ele>21</ele>
      </trkpt>
      <trkpt lat="36.88416" lon="28.06134">
        <ele>17.9</ele>
      </trkpt>
      <trkpt lat="36.88413" lon="28.06105">
        <ele>14.2</ele>
      </trkpt>
      <trkpt lat="36.88402" lon="28.06074">
        <ele>12.9</ele>
      </trkpt>
      <trkpt lat="36.8839" lon="28.06067">
        <ele>15.9</ele>
      </trkpt>
      <trkpt lat="36.88335" lon="28.06032">
        <ele>22.4</ele>
      </trkpt>
      <trkpt lat="36.8831" lon="28.05995">
        <ele>20.2</ele>
      </trkpt>
      <trkpt lat="36.88302" lon="28.05981">
        <ele>19.7</ele>
      </trkpt>
      <trkpt lat="36.88281" lon="28.05959">
        <ele>20</ele>
      </trkpt>
      <trkpt lat="36.88278" lon="28.05961">
        <ele>21.2</ele>
      </trkpt>
      <trkpt lat="36.8828" lon="28.05962">
        <ele>21.1</ele>
      </trkpt>
      <trkpt lat="36.88254" lon="28.05951">
        <ele>23.4</ele>
      </trkpt>
      <trkpt lat="36.88222" lon="28.0593">
        <ele>19</ele>
      </trkpt>
      <trkpt lat="36.88212" lon="28.05935">
        <ele>21.2</ele>
      </trkpt>
      <trkpt lat="36.88205" lon="28.05949">
        <ele>25.5</ele>
      </trkpt>
      <trkpt lat="36.88189" lon="28.05962">
        <ele>29.8</ele>
      </trkpt>
      <trkpt lat="36.8818" lon="28.05964">
        <ele>30.4</ele>
      </trkpt>
      <trkpt lat="36.88173" lon="28.05965">
        <ele>30.8</ele>
      </trkpt>
      <trkpt lat="36.88159" lon="28.05967">
        <ele>31.3</ele>
      </trkpt>
      <trkpt lat="36.88143" lon="28.05979">
        <ele>33</ele>
      </trkpt>
      <trkpt lat="36.8815" lon="28.06001">
        <ele>37.7</ele>
      </trkpt>
      <trkpt lat="36.88157" lon="28.06047">
        <ele>42.7</ele>
      </trkpt>
      <trkpt lat="36.88165" lon="28.06086">
        <ele>46.9</ele>
      </trkpt>
      <trkpt lat="36.88177" lon="28.06133">
        <ele>51.4</ele>
      </trkpt>
      <trkpt lat="36.8818" lon="28.06143">
        <ele>52.5</ele>
      </trkpt>
      <trkpt lat="36.88195" lon="28.06178">
        <ele>59.9</ele>
      </trkpt>
      <trkpt lat="36.88201" lon="28.06205">
        <ele>64.8</ele>
      </trkpt>
      <trkpt lat="36.88186" lon="28.06209">
        <ele>61.9</ele>
      </trkpt>
      <trkpt lat="36.88171" lon="28.06203">
        <ele>57.2</ele>
      </trkpt>
      <trkpt lat="36.88163" lon="28.06197">
        <ele>54.6</ele>
      </trkpt>
      <trkpt lat="36.88148" lon="28.06206">
        <ele>55.9</ele>
      </trkpt>
      <trkpt lat="36.88146" lon="28.06215">
        <ele>57.5</ele>
      </trkpt>
      <trkpt lat="36.88124" lon="28.06236">
        <ele>60.4</ele>
      </trkpt>
      <trkpt lat="36.88117" lon="28.06232">
        <ele>59.3</ele>
      </trkpt>
      <trkpt lat="36.88096" lon="28.06235">
        <ele>59</ele>
      </trkpt>
      <trkpt lat="36.88093" lon="28.06245">
        <ele>60.5</ele>
      </trkpt>
      <trkpt lat="36.88069" lon="28.06268">
        <ele>68.7</ele>
      </trkpt>
      <trkpt lat="36.88059" lon="28.06279">
        <ele>73.3</ele>
      </trkpt>
      <trkpt lat="36.88035" lon="28.06285">
        <ele>79.5</ele>
      </trkpt>
      <trkpt lat="36.88041" lon="28.06257">
        <ele>72.9</ele>
      </trkpt>
      <trkpt lat="36.88047" lon="28.06239">
        <ele>68.3</ele>
      </trkpt>
      <trkpt lat="36.88036" lon="28.06216">
        <ele>67.5</ele>
      </trkpt>
      <trkpt lat="36.88023" lon="28.06183">
        <ele>65.6</ele>
      </trkpt>
      <trkpt lat="36.88027" lon="28.06164">
        <ele>61.6</ele>
      </trkpt>
      <trkpt lat="36.8801" lon="28.06118">
        <ele>59.1</ele>
      </trkpt>
      <trkpt lat="36.87996" lon="28.06111">
        <ele>59.6</ele>
      </trkpt>
      <trkpt lat="36.87988" lon="28.06126">
        <ele>61</ele>
      </trkpt>
      <trkpt lat="36.87977" lon="28.06144">
        <ele>62.6</ele>
      </trkpt>
      <trkpt lat="36.87943" lon="28.06159">
        <ele>61.3</ele>
      </trkpt>
      <trkpt lat="36.87936" lon="28.0616">
        <ele>60.7</ele>
      </trkpt>
      <trkpt lat="36.87932" lon="28.06184">
        <ele>65.2</ele>
      </trkpt>
      <trkpt lat="36.87943" lon="28.06221">
        <ele>74</ele>
      </trkpt>
      <trkpt lat="36.87944" lon="28.06256">
        <ele>81.6</ele>
      </trkpt>
      <trkpt lat="36.87932" lon="28.06283">
        <ele>89.6</ele>
      </trkpt>
      <trkpt lat="36.87918" lon="28.06288">
        <ele>92.2</ele>
      </trkpt>
      <trkpt lat="36.87902" lon="28.06287">
        <ele>92.9</ele>
      </trkpt>
      <trkpt lat="36.87881" lon="28.0627">
        <ele>88.7</ele>
      </trkpt>
      <trkpt lat="36.87875" lon="28.06249">
        <ele>81.6</ele>
      </trkpt>
      <trkpt lat="36.87859" lon="28.06258">
        <ele>85.8</ele>
      </trkpt>
      <trkpt lat="36.87843" lon="28.06271">
        <ele>91.6</ele>
      </trkpt>
      <trkpt lat="36.87822" lon="28.06279">
        <ele>98.8</ele>
      </trkpt>
      <trkpt lat="36.87806" lon="28.06267">
        <ele>100</ele>
      </trkpt>
      <trkpt lat="36.87801" lon="28.06234">
        <ele>92.2</ele>
      </trkpt>
      <trkpt lat="36.878" lon="28.06223">
        <ele>89.2</ele>
      </trkpt>
      <trkpt lat="36.87791" lon="28.06197">
        <ele>85.7</ele>
      </trkpt>
      <trkpt lat="36.87784" lon="28.06198">
        <ele>88.6</ele>
      </trkpt>
      <trkpt lat="36.87759" lon="28.06186">
        <ele>95.2</ele>
      </trkpt>
      <trkpt lat="36.87758" lon="28.06168">
        <ele>90.9</ele>
      </trkpt>
      <trkpt lat="36.87739" lon="28.06137">
        <ele>91.1</ele>
      </trkpt>
      <trkpt lat="36.87733" lon="28.06098">
        <ele>84.9</ele>
      </trkpt>
      <trkpt lat="36.87702" lon="28.06073">
        <ele>86.5</ele>
      </trkpt>
      <trkpt lat="36.87677" lon="28.06071">
        <ele>90.6</ele>
      </trkpt>
      <trkpt lat="36.87647" lon="28.06081">
        <ele>96.8</ele>
      </trkpt>
      <trkpt lat="36.87629" lon="28.06115">
        <ele>105.7</ele>
      </trkpt>
      <trkpt lat="36.87616" lon="28.06123">
        <ele>108.6</ele>
      </trkpt>
      <trkpt lat="36.8761" lon="28.06103">
        <ele>105.9</ele>
      </trkpt>
      <trkpt lat="36.87603" lon="28.06049">
        <ele>98.8</ele>
      </trkpt>
      <trkpt lat="36.87608" lon="28.06008">
        <ele>92.2</ele>
      </trkpt>
      <trkpt lat="36.87615" lon="28.05985">
        <ele>87.6</ele>
      </trkpt>
      <trkpt lat="36.87596" lon="28.05987">
        <ele>89.3</ele>
      </trkpt>
      <trkpt lat="36.87596" lon="28.05989">
        <ele>89.8</ele>
      </trkpt>
      <trkpt lat="36.8759" lon="28.05988">
        <ele>90.1</ele>
      </trkpt>
      <trkpt lat="36.87572" lon="28.05987">
        <ele>90.6</ele>
      </trkpt>
      <trkpt lat="36.87543" lon="28.05972">
        <ele>86.8</ele>
      </trkpt>
      <trkpt lat="36.87537" lon="28.05962">
        <ele>83.7</ele>
      </trkpt>
      <trkpt lat="36.87513" lon="28.05953">
        <ele>80.8</ele>
      </trkpt>
      <trkpt lat="36.87493" lon="28.05965">
        <ele>83.9</ele>
      </trkpt>
      <trkpt lat="36.87485" lon="28.05975">
        <ele>85.4</ele>
      </trkpt>
      <trkpt lat="36.87459" lon="28.05992">
        <ele>83.9</ele>
      </trkpt>
      <trkpt lat="36.87447" lon="28.06002">
        <ele>82.8</ele>
      </trkpt>
      <trkpt lat="36.87451" lon="28.06009">
        <ele>84.3</ele>
      </trkpt>
      <trkpt lat="36.87457" lon="28.06024">
        <ele>87.4</ele>
      </trkpt>
      <trkpt lat="36.87455" lon="28.06053">
        <ele>88.6</ele>
      </trkpt>
      <trkpt lat="36.87451" lon="28.0606">
        <ele>88</ele>
      </trkpt>
      <trkpt lat="36.87458" lon="28.06095">
        <ele>93.6</ele>
      </trkpt>
      <trkpt lat="36.87468" lon="28.061">
        <ele>97.5</ele>
      </trkpt>
      <trkpt lat="36.87479" lon="28.06107">
        <ele>101.6</ele>
      </trkpt>
      <trkpt lat="36.87487" lon="28.06129">
        <ele>106</ele>
      </trkpt>
      <trkpt lat="36.87465" lon="28.06142">
        <ele>102.4</ele>
      </trkpt>
      <trkpt lat="36.8745" lon="28.06145">
        <ele>99.4</ele>
      </trkpt>
      <trkpt lat="36.87426" lon="28.06137">
        <ele>92.3</ele>
      </trkpt>
      <trkpt lat="36.87385" lon="28.06102">
        <ele>77.3</ele>
      </trkpt>
      <trkpt lat="36.87379" lon="28.06096">
        <ele>74.8</ele>
      </trkpt>
      <trkpt lat="36.87375" lon="28.06089">
        <ele>72.4</ele>
      </trkpt>
      <trkpt lat="36.8735" lon="28.06077">
        <ele>65.5</ele>
      </trkpt>
      <trkpt lat="36.87346" lon="28.06082">
        <ele>65.9</ele>
      </trkpt>
      <trkpt lat="36.8734" lon="28.0611">
        <ele>72.1</ele>
      </trkpt>
      <trkpt lat="36.87344" lon="28.06124">
        <ele>76.4</ele>
      </trkpt>
      <trkpt lat="36.87348" lon="28.06139">
        <ele>80.9</ele>
      </trkpt>
      <trkpt lat="36.87336" lon="28.06144">
        <ele>80.5</ele>
      </trkpt>
      <trkpt lat="36.87315" lon="28.06133">
        <ele>75.4</ele>
      </trkpt>
      <trkpt lat="36.87301" lon="28.06126">
        <ele>72.7</ele>
      </trkpt>
      <trkpt lat="36.87286" lon="28.06121">
        <ele>70.4</ele>
      </trkpt>
      <trkpt lat="36.87267" lon="28.06095">
        <ele>64.4</ele>
      </trkpt>
      <trkpt lat="36.87249" lon="28.06068">
        <ele>59.7</ele>
      </trkpt>
      <trkpt lat="36.87234" lon="28.06068">
        <ele>58.3</ele>
      </trkpt>
      <trkpt lat="36.8719" lon="28.06068">
        <ele>53.9</ele>
      </trkpt>
      <trkpt lat="36.87165" lon="28.06048">
        <ele>49.4</ele>
      </trkpt>
      <trkpt lat="36.87153" lon="28.06045">
        <ele>47.4</ele>
      </trkpt>
      <trkpt lat="36.87147" lon="28.0605">
        <ele>47.1</ele>
      </trkpt>
      <trkpt lat="36.87136" lon="28.06062">
        <ele>46.2</ele>
      </trkpt>
      <trkpt lat="36.87124" lon="28.0607">
        <ele>44.7</ele>
      </trkpt>
      <trkpt lat="36.87115" lon="28.06094">
        <ele>43.8</ele>
      </trkpt>
      <trkpt lat="36.87121" lon="28.06111">
        <ele>44.8</ele>
      </trkpt>
      <trkpt lat="36.87132" lon="28.06124">
        <ele>46.7</ele>
      </trkpt>
      <trkpt lat="36.87143" lon="28.06133">
        <ele>48.8</ele>
      </trkpt>
      <trkpt lat="36.87152" lon="28.06144">
        <ele>50.4</ele>
      </trkpt>
      <trkpt lat="36.87163" lon="28.06166">
        <ele>52.3</ele>
      </trkpt>
      <trkpt lat="36.87178" lon="28.06181">
        <ele>56.6</ele>
      </trkpt>
      <trkpt lat="36.8718" lon="28.06194">
        <ele>58</ele>
      </trkpt>
      <trkpt lat="36.87158" lon="28.06201">
        <ele>53.7</ele>
      </trkpt>
      <trkpt lat="36.87134" lon="28.06201">
        <ele>49.6</ele>
      </trkpt>
      <trkpt lat="36.87119" lon="28.062">
        <ele>47</ele>
      </trkpt>
      <trkpt lat="36.87103" lon="28.06197">
        <ele>44.2</ele>
      </trkpt>
      <trkpt lat="36.87057" lon="28.06195">
        <ele>36.2</ele>
      </trkpt>
      <trkpt lat="36.87033" lon="28.06189">
        <ele>31.9</ele>
      </trkpt>
      <trkpt lat="36.87008" lon="28.06191">
        <ele>27.9</ele>
      </trkpt>
      <trkpt lat="36.87003" lon="28.06216">
        <ele>27.8</ele>
      </trkpt>
      <trkpt lat="36.87009" lon="28.06236">
        <ele>29.5</ele>
      </trkpt>
      <trkpt lat="36.87019" lon="28.06273">
        <ele>32.3</ele>
      </trkpt>
      <trkpt lat="36.87017" lon="28.06282">
        <ele>32</ele>
      </trkpt>
      <trkpt lat="36.8701" lon="28.06298">
        <ele>30.6</ele>
      </trkpt>
      <trkpt lat="36.87019" lon="28.06342">
        <ele>33.4</ele>
      </trkpt>
      <trkpt lat="36.87002" lon="28.06359">
        <ele>31.6</ele>
      </trkpt>
      <trkpt lat="36.86976" lon="28.06351">
        <ele>30.4</ele>
      </trkpt>
      <trkpt lat="36.86948" lon="28.06322">
        <ele>28.5</ele>
      </trkpt>
      <trkpt lat="36.86938" lon="28.06303">
        <ele>27.3</ele>
      </trkpt>
      <trkpt lat="36.86906" lon="28.06277">
        <ele>25.2</ele>
      </trkpt>
      <trkpt lat="36.86881" lon="28.06281">
        <ele>26</ele>
      </trkpt>
      <trkpt lat="36.86865" lon="28.06306">
        <ele>27.7</ele>
      </trkpt>
      <trkpt lat="36.86846" lon="28.06354">
        <ele>28.6</ele>
      </trkpt>
      <trkpt lat="36.86822" lon="28.06377">
        <ele>26.6</ele>
      </trkpt>
      <trkpt lat="36.86807" lon="28.06383">
        <ele>25.3</ele>
      </trkpt>
      <trkpt lat="36.86786" lon="28.06391">
        <ele>23.3</ele>
      </trkpt>
      <trkpt lat="36.8678" lon="28.06395">
        <ele>22.6</ele>
      </trkpt>
      <trkpt lat="36.86754" lon="28.06398">
        <ele>20.5</ele>
      </trkpt>
      <trkpt lat="36.86746" lon="28.06394">
        <ele>20.2</ele>
      </trkpt>
      <trkpt lat="36.86732" lon="28.06391">
        <ele>19.9</ele>
      </trkpt>
      <trkpt lat="36.86728" lon="28.06391">
        <ele>19.8</ele>
      </trkpt>
      <trkpt lat="36.86701" lon="28.06377">
        <ele>19.9</ele>
      </trkpt>
      <trkpt lat="36.86686" lon="28.06372">
        <ele>19.8</ele>
      </trkpt>
      <trkpt lat="36.86648" lon="28.06378">
        <ele>19.6</ele>
      </trkpt>
      <trkpt lat="36.86634" lon="28.06388">
        <ele>19.2</ele>
      </trkpt>
      <trkpt lat="36.8661" lon="28.06394">
        <ele>19.5</ele>
      </trkpt>
      <trkpt lat="36.86574" lon="28.06377">
        <ele>23.2</ele>
      </trkpt>
      <trkpt lat="36.86568" lon="28.06372">
        <ele>24</ele>
      </trkpt>
      <trkpt lat="36.86556" lon="28.0636">
        <ele>25.6</ele>
      </trkpt>
      <trkpt lat="36.86516" lon="28.06343">
        <ele>27.6</ele>
      </trkpt>
      <trkpt lat="36.86497" lon="28.0632">
        <ele>30.1</ele>
      </trkpt>
      <trkpt lat="36.86495" lon="28.06312">
        <ele>31.5</ele>
      </trkpt>
      <trkpt lat="36.86462" lon="28.06293">
        <ele>36.1</ele>
      </trkpt>
      <trkpt lat="36.86448" lon="28.06289">
        <ele>37.4</ele>
      </trkpt>
      <trkpt lat="36.8641" lon="28.0627">
        <ele>42.1</ele>
      </trkpt>
      <trkpt lat="36.86402" lon="28.06265">
        <ele>43</ele>
      </trkpt>
      <trkpt lat="36.8638" lon="28.06242">
        <ele>46</ele>
      </trkpt>
      <trkpt lat="36.86369" lon="28.0624">
        <ele>46.4</ele>
      </trkpt>
      <trkpt lat="36.86348" lon="28.06247">
        <ele>45.9</ele>
      </trkpt>
      <trkpt lat="36.86334" lon="28.06247">
        <ele>46.3</ele>
      </trkpt>
      <trkpt lat="36.86321" lon="28.06239">
        <ele>46.3</ele>
      </trkpt>
      <trkpt lat="36.86277" lon="28.06202">
        <ele>44.5</ele>
      </trkpt>
      <trkpt lat="36.8624" lon="28.06185">
        <ele>40.8</ele>
      </trkpt>
      <trkpt lat="36.86187" lon="28.06159">
        <ele>37.1</ele>
      </trkpt>
      <trkpt lat="36.86174" lon="28.06146">
        <ele>36.1</ele>
      </trkpt>
      <trkpt lat="36.86171" lon="28.0613">
        <ele>35.5</ele>
      </trkpt>
      <trkpt lat="36.86171" lon="28.06102">
        <ele>34.9</ele>
      </trkpt>
      <trkpt lat="36.8616" lon="28.06053">
        <ele>35.5</ele>
      </trkpt>
      <trkpt lat="36.86134" lon="28.05999">
        <ele>35.9</ele>
      </trkpt>
      <trkpt lat="36.8612" lon="28.05978">
        <ele>37.1</ele>
      </trkpt>
      <trkpt lat="36.86082" lon="28.05954">
        <ele>33.7</ele>
      </trkpt>
      <trkpt lat="36.86068" lon="28.05952">
        <ele>33.5</ele>
      </trkpt>
      <trkpt lat="36.86039" lon="28.05916">
        <ele>33.4</ele>
      </trkpt>
      <trkpt lat="36.86021" lon="28.0589">
        <ele>33.4</ele>
      </trkpt>
      <trkpt lat="36.85997" lon="28.05882">
        <ele>31.5</ele>
      </trkpt>
      <trkpt lat="36.85984" lon="28.05881">
        <ele>31.9</ele>
      </trkpt>
      <trkpt lat="36.85937" lon="28.05854">
        <ele>31.4</ele>
      </trkpt>
      <trkpt lat="36.85926" lon="28.05849">
        <ele>30.8</ele>
      </trkpt>
      <trkpt lat="36.85892" lon="28.05847">
        <ele>30.2</ele>
      </trkpt>
      <trkpt lat="36.85883" lon="28.05847">
        <ele>30.1</ele>
      </trkpt>
      <trkpt lat="36.85857" lon="28.05833">
        <ele>28.3</ele>
      </trkpt>
      <trkpt lat="36.85842" lon="28.05822">
        <ele>27.8</ele>
      </trkpt>
      <trkpt lat="36.85821" lon="28.05823">
        <ele>28.3</ele>
      </trkpt>
      <trkpt lat="36.85795" lon="28.05819">
        <ele>29</ele>
      </trkpt>
      <trkpt lat="36.85763" lon="28.05797">
        <ele>28.3</ele>
      </trkpt>
      <trkpt lat="36.85713" lon="28.05737">
        <ele>24.9</ele>
      </trkpt>
      <trkpt lat="36.85641" lon="28.05677">
        <ele>23.3</ele>
      </trkpt>
      <trkpt lat="36.85598" lon="28.05646">
        <ele>22.7</ele>
      </trkpt>
      <trkpt lat="36.8556" lon="28.05621">
        <ele>22.2</ele>
      </trkpt>
      <trkpt lat="36.85552" lon="28.05611">
        <ele>21.8</ele>
      </trkpt>
      <trkpt lat="36.85526" lon="28.05595">
        <ele>21.3</ele>
      </trkpt>
      <trkpt lat="36.85511" lon="28.05584">
        <ele>20.9</ele>
      </trkpt>
      <trkpt lat="36.85488" lon="28.05568">
        <ele>21.4</ele>
      </trkpt>
      <trkpt lat="36.85462" lon="28.05546">
        <ele>21.7</ele>
      </trkpt>
      <trkpt lat="36.85455" lon="28.05539">
        <ele>21.8</ele>
      </trkpt>
      <trkpt lat="36.8542" lon="28.05518">
        <ele>21.6</ele>
      </trkpt>
      <trkpt lat="36.8535" lon="28.05502">
        <ele>21.1</ele>
      </trkpt>
      <trkpt lat="36.85336" lon="28.05498">
        <ele>21</ele>
      </trkpt>
      <trkpt lat="36.85298" lon="28.05507">
        <ele>20.9</ele>
      </trkpt>
      <trkpt lat="36.8528" lon="28.05515">
        <ele>21.2</ele>
      </trkpt>
      <trkpt lat="36.85271" lon="28.05514">
        <ele>21.1</ele>
      </trkpt>
      <trkpt lat="36.85253" lon="28.05514">
        <ele>20.8</ele>
      </trkpt>
      <trkpt lat="36.85246" lon="28.05513">
        <ele>20.8</ele>
      </trkpt>
      <trkpt lat="36.85205" lon="28.05507">
        <ele>20.5</ele>
      </trkpt>
      <trkpt lat="36.85196" lon="28.05507">
        <ele>20.5</ele>
      </trkpt>
      <trkpt lat="36.8517" lon="28.0551">
        <ele>20.7</ele>
      </trkpt>
      <trkpt lat="36.85145" lon="28.05512">
        <ele>19.8</ele>
      </trkpt>
      <trkpt lat="36.85092" lon="28.05529">
        <ele>17.5</ele>
      </trkpt>
      <trkpt lat="36.85085" lon="28.05549">
        <ele>17.1</ele>
      </trkpt>
      <trkpt lat="36.85088" lon="28.05571">
        <ele>17.4</ele>
      </trkpt>
      <trkpt lat="36.8508" lon="28.05617">
        <ele>15.9</ele>
      </trkpt>
      <trkpt lat="36.85071" lon="28.05636">
        <ele>15.3</ele>
      </trkpt>
      <trkpt lat="36.8506" lon="28.05641">
        <ele>15.2</ele>
      </trkpt>
      <trkpt lat="36.85028" lon="28.05644">
        <ele>15.4</ele>
      </trkpt>
      <trkpt lat="36.84998" lon="28.05631">
        <ele>16.6</ele>
      </trkpt>
      <trkpt lat="36.84974" lon="28.05619">
        <ele>18</ele>
      </trkpt>
      <trkpt lat="36.84908" lon="28.05597">
        <ele>19.7</ele>
      </trkpt>
      <trkpt lat="36.84894" lon="28.05588">
        <ele>19.9</ele>
      </trkpt>
      <trkpt lat="36.84886" lon="28.05581">
        <ele>20.2</ele>
      </trkpt>
      <trkpt lat="36.84879" lon="28.05583">
        <ele>20.1</ele>
      </trkpt>
      <trkpt lat="36.84855" lon="28.05594">
        <ele>20</ele>
      </trkpt>
      <trkpt lat="36.84824" lon="28.05594">
        <ele>19.9</ele>
      </trkpt>
      <trkpt lat="36.84812" lon="28.05592">
        <ele>19.6</ele>
      </trkpt>
      <trkpt lat="36.84788" lon="28.0559">
        <ele>18.9</ele>
      </trkpt>
      <trkpt lat="36.84742" lon="28.05559">
        <ele>18.6</ele>
      </trkpt>
      <trkpt lat="36.84733" lon="28.05551">
        <ele>18.9</ele>
      </trkpt>
      <trkpt lat="36.8471" lon="28.05518">
        <ele>20.3</ele>
      </trkpt>
      <trkpt lat="36.84703" lon="28.05505">
        <ele>20.9</ele>
      </trkpt>
      <trkpt lat="36.84695" lon="28.05498">
        <ele>21.3</ele>
      </trkpt>
      <trkpt lat="36.84695" lon="28.05501">
        <ele>21.3</ele>
      </trkpt>
      <trkpt lat="36.84691" lon="28.05498">
        <ele>21.4</ele>
      </trkpt>
      <trkpt lat="36.84659" lon="28.05499">
        <ele>22.5</ele>
      </trkpt>
      <trkpt lat="36.84628" lon="28.05522">
        <ele>23.1</ele>
      </trkpt>
      <trkpt lat="36.84594" lon="28.05525">
        <ele>24.8</ele>
      </trkpt>
      <trkpt lat="36.84548" lon="28.05519">
        <ele>30.1</ele>
      </trkpt>
      <trkpt lat="36.84532" lon="28.05533">
        <ele>30.4</ele>
      </trkpt>
      <trkpt lat="36.84531" lon="28.05542">
        <ele>29.5</ele>
      </trkpt>
      <trkpt lat="36.84527" lon="28.05595">
        <ele>24.3</ele>
      </trkpt>
      <trkpt lat="36.84532" lon="28.05634">
        <ele>21.2</ele>
      </trkpt>
      <trkpt lat="36.84555" lon="28.05673">
        <ele>17.6</ele>
      </trkpt>
      <trkpt lat="36.84561" lon="28.05714">
        <ele>16.7</ele>
      </trkpt>
      <trkpt lat="36.84547" lon="28.05737">
        <ele>16.1</ele>
      </trkpt>
      <trkpt lat="36.84528" lon="28.05741">
        <ele>15.5</ele>
      </trkpt>
      <trkpt lat="36.84527" lon="28.05742">
        <ele>15.4</ele>
      </trkpt>
      <trkpt lat="36.84518" lon="28.05738">
        <ele>15.4</ele>
      </trkpt>
      <trkpt lat="36.84504" lon="28.0573">
        <ele>15.8</ele>
      </trkpt>
      <trkpt lat="36.84498" lon="28.05723">
        <ele>16.1</ele>
      </trkpt>
      <trkpt lat="36.84476" lon="28.05697">
        <ele>17.4</ele>
      </trkpt>
      <trkpt lat="36.84453" lon="28.05651">
        <ele>20.5</ele>
      </trkpt>
      <trkpt lat="36.84451" lon="28.05639">
        <ele>21.9</ele>
      </trkpt>
      <trkpt lat="36.84446" lon="28.05593">
        <ele>27.5</ele>
      </trkpt>
      <trkpt lat="36.84429" lon="28.05564">
        <ele>30.6</ele>
      </trkpt>
      <trkpt lat="36.84397" lon="28.05562">
        <ele>32.7</ele>
      </trkpt>
      <trkpt lat="36.8439" lon="28.05573">
        <ele>32.8</ele>
      </trkpt>
      <trkpt lat="36.84407" lon="28.05597">
        <ele>28.2</ele>
      </trkpt>
      <trkpt lat="36.84415" lon="28.05612">
        <ele>25.1</ele>
      </trkpt>
      <trkpt lat="36.84411" lon="28.05663">
        <ele>18.1</ele>
      </trkpt>
      <trkpt lat="36.84392" lon="28.05699">
        <ele>17</ele>
      </trkpt>
      <trkpt lat="36.84369" lon="28.0571">
        <ele>17.8</ele>
      </trkpt>
      <trkpt lat="36.84337" lon="28.05727">
        <ele>18.1</ele>
      </trkpt>
      <trkpt lat="36.84328" lon="28.05733">
        <ele>18</ele>
      </trkpt>
      <trkpt lat="36.84296" lon="28.05747">
        <ele>19</ele>
      </trkpt>
      <trkpt lat="36.84282" lon="28.05757">
        <ele>19.7</ele>
      </trkpt>
      <trkpt lat="36.84283" lon="28.05757">
        <ele>19.6</ele>
      </trkpt>
      <trkpt lat="36.84277" lon="28.05765">
        <ele>19.9</ele>
      </trkpt>
      <trkpt lat="36.8426" lon="28.05778">
        <ele>20.6</ele>
      </trkpt>
      <trkpt lat="36.84232" lon="28.05784">
        <ele>19.9</ele>
      </trkpt>
      <trkpt lat="36.84195" lon="28.05773">
        <ele>17.8</ele>
      </trkpt>
      <trkpt lat="36.84188" lon="28.0576">
        <ele>17.1</ele>
      </trkpt>
      <trkpt lat="36.84167" lon="28.05719">
        <ele>18</ele>
      </trkpt>
      <trkpt lat="36.84157" lon="28.05667">
        <ele>22.5</ele>
      </trkpt>
      <trkpt lat="36.84135" lon="28.0562">
        <ele>26.1</ele>
      </trkpt>
      <trkpt lat="36.84122" lon="28.05619">
        <ele>25.4</ele>
      </trkpt>
      <trkpt lat="36.84113" lon="28.05632">
        <ele>23.7</ele>
      </trkpt>
      <trkpt lat="36.84109" lon="28.05634">
        <ele>23.2</ele>
      </trkpt>
      <trkpt lat="36.8411" lon="28.05656">
        <ele>21.2</ele>
      </trkpt>
      <trkpt lat="36.84103" lon="28.05695">
        <ele>16.7</ele>
      </trkpt>
      <trkpt lat="36.84076" lon="28.05702">
        <ele>15</ele>
      </trkpt>
      <trkpt lat="36.84052" lon="28.05696">
        <ele>16.6</ele>
      </trkpt>
      <trkpt lat="36.84038" lon="28.05694">
        <ele>17.3</ele>
      </trkpt>
      <trkpt lat="36.84011" lon="28.0569">
        <ele>19</ele>
      </trkpt>
      <trkpt lat="36.83957" lon="28.05683">
        <ele>21.5</ele>
      </trkpt>
      <trkpt lat="36.83929" lon="28.05684">
        <ele>21.9</ele>
      </trkpt>
      <trkpt lat="36.8392" lon="28.05692">
        <ele>21</ele>
      </trkpt>
      <trkpt lat="36.83904" lon="28.05698">
        <ele>20.6</ele>
      </trkpt>
      <trkpt lat="36.83875" lon="28.05705">
        <ele>20.2</ele>
      </trkpt>
      <trkpt lat="36.83813" lon="28.05725">
        <ele>18</ele>
      </trkpt>
      <trkpt lat="36.83806" lon="28.05728">
        <ele>17.6</ele>
      </trkpt>
      <trkpt lat="36.83781" lon="28.05761">
        <ele>14.9</ele>
      </trkpt>
      <trkpt lat="36.83781" lon="28.05782">
        <ele>12.8</ele>
      </trkpt>
      <trkpt lat="36.83773" lon="28.05833">
        <ele>8.2</ele>
      </trkpt>
      <trkpt lat="36.83761" lon="28.05852">
        <ele>8.9</ele>
      </trkpt>
      <trkpt lat="36.83749" lon="28.05853">
        <ele>9</ele>
      </trkpt>
      <trkpt lat="36.83723" lon="28.05854">
        <ele>10.1</ele>
      </trkpt>
      <trkpt lat="36.83703" lon="28.05845">
        <ele>10.6</ele>
      </trkpt>
      <trkpt lat="36.83695" lon="28.05841">
        <ele>10.7</ele>
      </trkpt>
      <trkpt lat="36.83671" lon="28.05835">
        <ele>11</ele>
      </trkpt>
      <trkpt lat="36.83658" lon="28.0584">
        <ele>11.9</ele>
      </trkpt>
      <trkpt lat="36.83633" lon="28.05841">
        <ele>13.4</ele>
      </trkpt>
      <trkpt lat="36.83622" lon="28.05839">
        <ele>13.8</ele>
      </trkpt>
      <trkpt lat="36.83598" lon="28.05825">
        <ele>14.2</ele>
      </trkpt>
      <trkpt lat="36.83598" lon="28.05825">
        <ele>14.2</ele>
      </trkpt>
      <trkpt lat="36.83598" lon="28.05825">
        <ele>14.2</ele>
      </trkpt>
      <trkpt lat="36.83598" lon="28.05825">
        <ele>14.2</ele>
      </trkpt>
      <trkpt lat="36.83598" lon="28.05825">
        <ele>14.2</ele>
      </trkpt>
      <trkpt lat="36.83565" lon="28.05808">
        <ele>15.1</ele>
      </trkpt>
      <trkpt lat="36.83557" lon="28.05806">
        <ele>15.5</ele>
      </trkpt>
      <trkpt lat="36.83533" lon="28.05798">
        <ele>16.3</ele>
      </trkpt>
      <trkpt lat="36.83508" lon="28.05794">
        <ele>17.3</ele>
      </trkpt>
      <trkpt lat="36.83446" lon="28.05778">
        <ele>22.9</ele>
      </trkpt>
      <trkpt lat="36.8339" lon="28.05755">
        <ele>24</ele>
      </trkpt>
      <trkpt lat="36.83347" lon="28.05719">
        <ele>20.3</ele>
      </trkpt>
      <trkpt lat="36.83304" lon="28.05684">
        <ele>17.8</ele>
      </trkpt>
      <trkpt lat="36.8327" lon="28.05651">
        <ele>15.4</ele>
      </trkpt>
      <trkpt lat="36.83225" lon="28.05611">
        <ele>14.5</ele>
      </trkpt>
      <trkpt lat="36.83172" lon="28.05558">
        <ele>18.11</ele>
      </trkpt>
      <trkpt lat="36.83165" lon="28.0555">
        <ele>18.8</ele>
      </trkpt>
      <trkpt lat="36.83151" lon="28.05532">
        <ele>20.2</ele>
      </trkpt>
      <trkpt lat="36.83094" lon="28.0546">
        <ele>18</ele>
      </trkpt>
      <trkpt lat="36.83061" lon="28.05415">
        <ele>32.8</ele>
      </trkpt>
      <trkpt lat="36.83036" lon="28.05341">
        <ele>25.7</ele>
      </trkpt>
      <trkpt lat="36.83031" lon="28.05327">
        <ele>23.9</ele>
      </trkpt>
      <trkpt lat="36.83022" lon="28.05299">
        <ele>19.6</ele>
      </trkpt>
      <trkpt lat="36.83018" lon="28.05285">
        <ele>17.5</ele>
      </trkpt>
      <trkpt lat="36.83009" lon="28.05246">
        <ele>11.5</ele>
      </trkpt>
      <trkpt lat="36.83005" lon="28.05223">
        <ele>8.4</ele>
      </trkpt>
      <trkpt lat="36.82994" lon="28.05201">
        <ele>5.5</ele>
      </trkpt>
      <trkpt lat="36.82985" lon="28.05216">
        <ele>7.2</ele>
      </trkpt>
      <trkpt lat="36.82981" lon="28.05233">
        <ele>9.1</ele>
      </trkpt>
      <trkpt lat="36.82967" lon="28.05282">
        <ele>14.5</ele>
      </trkpt>
      <trkpt lat="36.82967" lon="28.05355">
        <ele>23</ele>
      </trkpt>
      <trkpt lat="36.82976" lon="28.05407">
        <ele>29</ele>
      </trkpt>
      <trkpt lat="36.82965" lon="28.05435">
        <ele>29.7</ele>
      </trkpt>
      <trkpt lat="36.82958" lon="28.05437">
        <ele>28.8</ele>
      </trkpt>
      <trkpt lat="36.82933" lon="28.05471">
        <ele>27.1</ele>
      </trkpt>
      <trkpt lat="36.82931" lon="28.05519">
        <ele>30.5</ele>
      </trkpt>
      <trkpt lat="36.82922" lon="28.05533">
        <ele>31</ele>
      </trkpt>
      <trkpt lat="36.82902" lon="28.05514">
        <ele>26.3</ele>
      </trkpt>
      <trkpt lat="36.82892" lon="28.05492">
        <ele>22.6</ele>
      </trkpt>
      <trkpt lat="36.82869" lon="28.05481">
        <ele>18.9</ele>
      </trkpt>
      <trkpt lat="36.82836" lon="28.05506">
        <ele>17.6</ele>
      </trkpt>
      <trkpt lat="36.82823" lon="28.05525">
        <ele>19.3</ele>
      </trkpt>
      <trkpt lat="36.82806" lon="28.05544">
        <ele>19.5</ele>
      </trkpt>
      <trkpt lat="36.82798" lon="28.05575">
        <ele>23.7</ele>
      </trkpt>
      <trkpt lat="36.82779" lon="28.05592">
        <ele>21</ele>
      </trkpt>
      <trkpt lat="36.82767" lon="28.05583">
        <ele>17.3</ele>
      </trkpt>
      <trkpt lat="36.82746" lon="28.05575">
        <ele>11.4</ele>
      </trkpt>
      <trkpt lat="36.82737" lon="28.05574">
        <ele>10.3</ele>
      </trkpt>
      <trkpt lat="36.82725" lon="28.0559">
        <ele>10.1</ele>
      </trkpt>
      <trkpt lat="36.82727" lon="28.05608">
        <ele>11.3</ele>
      </trkpt>
      <trkpt lat="36.82726" lon="28.05662">
        <ele>14.1</ele>
      </trkpt>
      <trkpt lat="36.82734" lon="28.05686">
        <ele>15.5</ele>
      </trkpt>
      <trkpt lat="36.82741" lon="28.05689">
        <ele>16.6</ele>
      </trkpt>
      <trkpt lat="36.82756" lon="28.05697">
        <ele>19.4</ele>
      </trkpt>
      <trkpt lat="36.82791" lon="28.05744">
        <ele>25.4</ele>
      </trkpt>
      <trkpt lat="36.82803" lon="28.0576">
        <ele>27.2</ele>
      </trkpt>
      <trkpt lat="36.82814" lon="28.0577">
        <ele>28.7</ele>
      </trkpt>
      <trkpt lat="36.82821" lon="28.05788">
        <ele>28.6</ele>
      </trkpt>
      <trkpt lat="36.82799" lon="28.05806">
        <ele>25.4</ele>
      </trkpt>
      <trkpt lat="36.82792" lon="28.05809">
        <ele>24.6</ele>
      </trkpt>
      <trkpt lat="36.82773" lon="28.05811">
        <ele>23.1</ele>
      </trkpt>
      <trkpt lat="36.82746" lon="28.05821">
        <ele>21.5</ele>
      </trkpt>
      <trkpt lat="36.82736" lon="28.05821">
        <ele>20.4</ele>
      </trkpt>
      <trkpt lat="36.82674" lon="28.05813">
        <ele>12.9</ele>
      </trkpt>
      <trkpt lat="36.82669" lon="28.05814">
        <ele>12.4</ele>
      </trkpt>
      <trkpt lat="36.82658" lon="28.05831">
        <ele>13.8</ele>
      </trkpt>
      <trkpt lat="36.82658" lon="28.0584">
        <ele>14.1</ele>
      </trkpt>
      <trkpt lat="36.82655" lon="28.0586">
        <ele>14</ele>
      </trkpt>
      <trkpt lat="36.82639" lon="28.05883">
        <ele>12.6</ele>
      </trkpt>
      <trkpt lat="36.82655" lon="28.05896">
        <ele>14.1</ele>
      </trkpt>
      <trkpt lat="36.82663" lon="28.05895">
        <ele>15</ele>
      </trkpt>
      <trkpt lat="36.82679" lon="28.05894">
        <ele>18</ele>
      </trkpt>
      <trkpt lat="36.82702" lon="28.05916">
        <ele>24.8</ele>
      </trkpt>
      <trkpt lat="36.82698" lon="28.05948">
        <ele>26.2</ele>
      </trkpt>
      <trkpt lat="36.82689" lon="28.05952">
        <ele>24.7</ele>
      </trkpt>
      <trkpt lat="36.82677" lon="28.05952">
        <ele>22.2</ele>
      </trkpt>
      <trkpt lat="36.82663" lon="28.05952">
        <ele>19.6</ele>
      </trkpt>
      <trkpt lat="36.82628" lon="28.05976">
        <ele>17.8</ele>
      </trkpt>
      <trkpt lat="36.82601" lon="28.05978">
        <ele>14.3</ele>
      </trkpt>
      <trkpt lat="36.82575" lon="28.05989">
        <ele>13.4</ele>
      </trkpt>
      <trkpt lat="36.82563" lon="28.06016">
        <ele>16.9</ele>
      </trkpt>
      <trkpt lat="36.82562" lon="28.06022">
        <ele>17.6</ele>
      </trkpt>
      <trkpt lat="36.82558" lon="28.06048">
        <ele>19.7</ele>
      </trkpt>
      <trkpt lat="36.82541" lon="28.06087">
        <ele>17.3</ele>
      </trkpt>
      <trkpt lat="36.82537" lon="28.06102">
        <ele>15.6</ele>
      </trkpt>
      <trkpt lat="36.82535" lon="28.0611">
        <ele>14.6</ele>
      </trkpt>
      <trkpt lat="36.82528" lon="28.06136">
        <ele>12.4</ele>
      </trkpt>
      <trkpt lat="36.82531" lon="28.06171">
        <ele>13</ele>
      </trkpt>
      <trkpt lat="36.82536" lon="28.06175">
        <ele>14.1</ele>
      </trkpt>
      <trkpt lat="36.82549" lon="28.06182">
        <ele>17.5</ele>
      </trkpt>
      <trkpt lat="36.82536" lon="28.06198">
        <ele>14.6</ele>
      </trkpt>
      <trkpt lat="36.82533" lon="28.06199">
        <ele>13.8</ele>
      </trkpt>
      <trkpt lat="36.82506" lon="28.06206">
        <ele>7.9</ele>
      </trkpt>
      <trkpt lat="36.82491" lon="28.06219">
        <ele>6.4</ele>
      </trkpt>
      <trkpt lat="36.82491" lon="28.06221">
        <ele>6.5</ele>
      </trkpt>
      <trkpt lat="36.82489" lon="28.06221">
        <ele>6.3</ele>
      </trkpt>
      <trkpt lat="36.82488" lon="28.06223">
        <ele>6.4</ele>
      </trkpt>
      <trkpt lat="36.8249" lon="28.06223">
        <ele>6.4</ele>
      </trkpt>
      <trkpt lat="36.82489" lon="28.06223">
        <ele>6.4</ele>
      </trkpt>
      <trkpt lat="36.82498" lon="28.06241">
        <ele>7.5</ele>
      </trkpt>
      <trkpt lat="36.82521" lon="28.06269">
        <ele>11.8</ele>
      </trkpt>
      <trkpt lat="36.82562" lon="28.06296">
        <ele>17.6</ele>
      </trkpt>
      <trkpt lat="36.82576" lon="28.06334">
        <ele>17</ele>
      </trkpt>
      <trkpt lat="36.82589" lon="28.0639">
        <ele>15.6</ele>
      </trkpt>
      <trkpt lat="36.82593" lon="28.06412">
        <ele>14.7</ele>
      </trkpt>
      <trkpt lat="36.82598" lon="28.06432">
        <ele>14.3</ele>
      </trkpt>
      <trkpt lat="36.82607" lon="28.06476">
        <ele>13.1</ele>
      </trkpt>
      <trkpt lat="36.82611" lon="28.06498">
        <ele>12.5</ele>
      </trkpt>
      <trkpt lat="36.82619" lon="28.06527">
        <ele>12.4</ele>
      </trkpt>
      <trkpt lat="36.82625" lon="28.06573">
        <ele>11.8</ele>
      </trkpt>
      <trkpt lat="36.82629" lon="28.06612">
        <ele>11.6</ele>
      </trkpt>
      <trkpt lat="36.82634" lon="28.06647">
        <ele>11.7</ele>
      </trkpt>
      <trkpt lat="36.8263" lon="28.06679">
        <ele>11</ele>
      </trkpt>
      <trkpt lat="36.82612" lon="28.06701">
        <ele>8.8</ele>
      </trkpt>
      <trkpt lat="36.82584" lon="28.06715">
        <ele>4.6</ele>
      </trkpt>
      <trkpt lat="36.82557" lon="28.06727">
        <ele>5</ele>
      </trkpt>
      <trkpt lat="36.82536" lon="28.06739">
        <ele>5.4</ele>
      </trkpt>
      <trkpt lat="36.82509" lon="28.06765">
        <ele>6.1</ele>
      </trkpt>
      <trkpt lat="36.82482" lon="28.06782">
        <ele>7</ele>
      </trkpt>
      <trkpt lat="36.82471" lon="28.0679">
        <ele>7.4</ele>
      </trkpt>
      <trkpt lat="36.82467" lon="28.06823">
        <ele>7.7</ele>
      </trkpt>
      <trkpt lat="36.82446" lon="28.06886">
        <ele>8.5</ele>
      </trkpt>
      <trkpt lat="36.82453" lon="28.06894">
        <ele>8.2</ele>
      </trkpt>
      <trkpt lat="36.82469" lon="28.06913">
        <ele>7.5</ele>
      </trkpt>
      <trkpt lat="36.82469" lon="28.06913">
        <ele>7.5</ele>
      </trkpt>
      <trkpt lat="36.82479" lon="28.06925">
        <ele>7.1</ele>
      </trkpt>
      <trkpt lat="36.82503" lon="28.06953">
        <ele>5.9</ele>
      </trkpt>
      <trkpt lat="36.8251" lon="28.06962">
        <ele>5.8</ele>
      </trkpt>
      <trkpt lat="36.82523" lon="28.06977">
        <ele>5.8</ele>
      </trkpt>
      <trkpt lat="36.82523" lon="28.06977">
        <ele>5.8</ele>
      </trkpt>
      <trkpt lat="36.82523" lon="28.06977">
        <ele>5.8</ele>
      </trkpt>
      <trkpt lat="36.82524" lon="28.06977">
        <ele>5.8</ele>
      </trkpt>
      <trkpt lat="36.82524" lon="28.06977">
        <ele>5.8</ele>
      </trkpt>
      <trkpt lat="36.82526" lon="28.06976">
        <ele>5.7</ele>
      </trkpt>
      <trkpt lat="36.82527" lon="28.06976">
        <ele>5.7</ele>
      </trkpt>
      <trkpt lat="36.82529" lon="28.06978">
        <ele>5.7</ele>
      </trkpt>
      <trkpt lat="36.8253" lon="28.06978">
        <ele>5.7</ele>
      </trkpt>
      <trkpt lat="36.82532" lon="28.06978">
        <ele>5.7</ele>
      </trkpt>
      <trkpt lat="36.82534" lon="28.06977">
        <ele>5.7</ele>
      </trkpt>
      <trkpt lat="36.82536" lon="28.06976">
        <ele>5.6</ele>
      </trkpt>
      <trkpt lat="36.82538" lon="28.06975">
        <ele>5.6</ele>
      </trkpt>
      <trkpt lat="36.82541" lon="28.06973">
        <ele>5.5</ele>
      </trkpt>
      <trkpt lat="36.82542" lon="28.06972">
        <ele>5.5</ele>
      </trkpt>
      <trkpt lat="36.82543" lon="28.06971">
        <ele>5.4</ele>
      </trkpt>
      <trkpt lat="36.82545" lon="28.06969">
        <ele>5.4</ele>
      </trkpt>
      <trkpt lat="36.82547" lon="28.06969">
        <ele>5.4</ele>
      </trkpt>
      <trkpt lat="36.82549" lon="28.0697">
        <ele>5.4</ele>
      </trkpt>
      <trkpt lat="36.82551" lon="28.0697">
        <ele>5.3</ele>
      </trkpt>
      <trkpt lat="36.82553" lon="28.0697">
        <ele>5.3</ele>
      </trkpt>
      <trkpt lat="36.82553" lon="28.0697">
        <ele>5.3</ele>
      </trkpt>
      <trkpt lat="36.82554" lon="28.06992">
        <ele>5.8</ele>
      </trkpt>
      <trkpt lat="36.82552" lon="28.07008">
        <ele>6.2</ele>
      </trkpt>
      <trkpt lat="36.82549" lon="28.0703">
        <ele>6.7</ele>
      </trkpt>
      <trkpt lat="36.82542" lon="28.07048">
        <ele>7.1</ele>
      </trkpt>
      <trkpt lat="36.82538" lon="28.07064">
        <ele>7.6</ele>
      </trkpt>
      <trkpt lat="36.82529" lon="28.07076">
        <ele>8.1</ele>
      </trkpt>
      <trkpt lat="36.8252" lon="28.07089">
        <ele>8.9</ele>
      </trkpt>
      <trkpt lat="36.82503" lon="28.07096">
        <ele>9.8</ele>
      </trkpt>
      <trkpt lat="36.82487" lon="28.07099">
        <ele>11.1</ele>
      </trkpt>
      <trkpt lat="36.82484" lon="28.071">
        <ele>11.4</ele>
      </trkpt>
      <trkpt lat="36.82484" lon="28.071">
        <ele>11.4</ele>
      </trkpt>
      <trkpt lat="36.82455" lon="28.07115">
        <ele>14.7</ele>
      </trkpt>
      <trkpt lat="36.82433" lon="28.07088">
        <ele>14.2</ele>
      </trkpt>
      <trkpt lat="36.82435" lon="28.0708">
        <ele>13.6</ele>
      </trkpt>
      <trkpt lat="36.82427" lon="28.07064">
        <ele>14</ele>
      </trkpt>
      <trkpt lat="36.82422" lon="28.07056">
        <ele>14.3</ele>
      </trkpt>
      <trkpt lat="36.82417" lon="28.07047">
        <ele>14.6</ele>
      </trkpt>
      <trkpt lat="36.82413" lon="28.07037">
        <ele>15</ele>
      </trkpt>
      <trkpt lat="36.8241" lon="28.07027">
        <ele>15.3</ele>
      </trkpt>
      <trkpt lat="36.82403" lon="28.07013">
        <ele>15.9</ele>
      </trkpt>
      <trkpt lat="36.824" lon="28.07005">
        <ele>16.1</ele>
      </trkpt>
      <trkpt lat="36.82397" lon="28.06992">
        <ele>16</ele>
      </trkpt>
      <trkpt lat="36.82394" lon="28.0698">
        <ele>15.9</ele>
      </trkpt>
      <trkpt lat="36.82392" lon="28.06966">
        <ele>15.4</ele>
      </trkpt>
      <trkpt lat="36.82391" lon="28.06954">
        <ele>15.1</ele>
      </trkpt>
      <trkpt lat="36.82389" lon="28.06936">
        <ele>14.4</ele>
      </trkpt>
      <trkpt lat="36.82388" lon="28.06926">
        <ele>14.2</ele>
      </trkpt>
      <trkpt lat="36.82383" lon="28.06911">
        <ele>14.3</ele>
      </trkpt>
      <trkpt lat="36.82378" lon="28.06897">
        <ele>14.4</ele>
      </trkpt>
      <trkpt lat="36.82373" lon="28.06887">
        <ele>14.6</ele>
      </trkpt>
      <trkpt lat="36.82373" lon="28.06873">
        <ele>14.1</ele>
      </trkpt>
      <trkpt lat="36.82373" lon="28.06862">
        <ele>13.7</ele>
      </trkpt>
      <trkpt lat="36.82375" lon="28.06852">
        <ele>13.2</ele>
      </trkpt>
      <trkpt lat="36.8238" lon="28.06842">
        <ele>12.3</ele>
      </trkpt>
      <trkpt lat="36.82382" lon="28.06836">
        <ele>12</ele>
      </trkpt>
      <trkpt lat="36.82386" lon="28.06824">
        <ele>11.4</ele>
      </trkpt>
      <trkpt lat="36.82388" lon="28.0681">
        <ele>11.1</ele>
      </trkpt>
      <trkpt lat="36.82388" lon="28.06808">
        <ele>11</ele>
      </trkpt>
      <trkpt lat="36.82388" lon="28.06795">
        <ele>10.8</ele>
      </trkpt>
      <trkpt lat="36.82388" lon="28.06787">
        <ele>10.7</ele>
      </trkpt>
      <trkpt lat="36.82381" lon="28.06773">
        <ele>10.8</ele>
      </trkpt>
      <trkpt lat="36.82373" lon="28.06769">
        <ele>11.1</ele>
      </trkpt>
      <trkpt lat="36.82364" lon="28.06765">
        <ele>11.3</ele>
      </trkpt>
      <trkpt lat="36.82354" lon="28.06765">
        <ele>11.8</ele>
      </trkpt>
      <trkpt lat="36.82344" lon="28.06768">
        <ele>12.4</ele>
      </trkpt>
      <trkpt lat="36.82335" lon="28.06776">
        <ele>13.2</ele>
      </trkpt>
      <trkpt lat="36.82322" lon="28.06788">
        <ele>13.7</ele>
      </trkpt>
      <trkpt lat="36.82313" lon="28.06798">
        <ele>14.1</ele>
      </trkpt>
      <trkpt lat="36.82303" lon="28.06806">
        <ele>14.5</ele>
      </trkpt>
      <trkpt lat="36.82296" lon="28.06814">
        <ele>14.9</ele>
      </trkpt>
      <trkpt lat="36.82288" lon="28.06816">
        <ele>15</ele>
      </trkpt>
      <trkpt lat="36.82281" lon="28.06816">
        <ele>14.9</ele>
      </trkpt>
      <trkpt lat="36.82277" lon="28.06812">
        <ele>14.6</ele>
      </trkpt>
      <trkpt lat="36.8227" lon="28.06804">
        <ele>14.1</ele>
      </trkpt>
      <trkpt lat="36.82262" lon="28.0679">
        <ele>13</ele>
      </trkpt>
      <trkpt lat="36.82251" lon="28.06776">
        <ele>11.9</ele>
      </trkpt>
      <trkpt lat="36.82244" lon="28.06768">
        <ele>12.2</ele>
      </trkpt>
      <trkpt lat="36.82234" lon="28.06766">
        <ele>13.6</ele>
      </trkpt>
      <trkpt lat="36.82226" lon="28.06757">
        <ele>14.1</ele>
      </trkpt>
      <trkpt lat="36.82212" lon="28.06741">
        <ele>14.7</ele>
      </trkpt>
      <trkpt lat="36.82203" lon="28.06727">
        <ele>14.4</ele>
      </trkpt>
      <trkpt lat="36.82199" lon="28.06715">
        <ele>13.8</ele>
      </trkpt>
      <trkpt lat="36.82195" lon="28.06705">
        <ele>13.2</ele>
      </trkpt>
      <trkpt lat="36.82194" lon="28.06695">
        <ele>12.3</ele>
      </trkpt>
      <trkpt lat="36.82189" lon="28.06682">
        <ele>11.5</ele>
      </trkpt>
      <trkpt lat="36.82186" lon="28.06674">
        <ele>11</ele>
      </trkpt>
      <trkpt lat="36.82183" lon="28.06666">
        <ele>10.4</ele>
      </trkpt>
      <trkpt lat="36.82175" lon="28.06654">
        <ele>10.2</ele>
      </trkpt>
      <trkpt lat="36.82169" lon="28.0665">
        <ele>10.4</ele>
      </trkpt>
      <trkpt lat="36.82161" lon="28.0665">
        <ele>10.8</ele>
      </trkpt>
      <trkpt lat="36.82154" lon="28.0665">
        <ele>11.1</ele>
      </trkpt>
      <trkpt lat="36.8214" lon="28.0665">
        <ele>11.8</ele>
      </trkpt>
      <trkpt lat="36.82125" lon="28.0665">
        <ele>12.4</ele>
      </trkpt>
      <trkpt lat="36.82115" lon="28.0665">
        <ele>12.8</ele>
      </trkpt>
      <trkpt lat="36.82104" lon="28.0665">
        <ele>13.3</ele>
      </trkpt>
      <trkpt lat="36.82099" lon="28.06646">
        <ele>13.1</ele>
      </trkpt>
      <trkpt lat="36.82088" lon="28.06638">
        <ele>12.7</ele>
      </trkpt>
      <trkpt lat="36.82079" lon="28.06634">
        <ele>12.1</ele>
      </trkpt>
      <trkpt lat="36.82071" lon="28.06629">
        <ele>11</ele>
      </trkpt>
      <trkpt lat="36.82068" lon="28.06627">
        <ele>10.6</ele>
      </trkpt>
      <trkpt lat="36.82058" lon="28.06629">
        <ele>10.1</ele>
      </trkpt>
      <trkpt lat="36.82056" lon="28.06636">
        <ele>10.5</ele>
      </trkpt>
      <trkpt lat="36.82052" lon="28.06642">
        <ele>10.6</ele>
      </trkpt>
      <trkpt lat="36.82042" lon="28.06652">
        <ele>10.4</ele>
      </trkpt>
      <trkpt lat="36.82027" lon="28.06658">
        <ele>9.4</ele>
      </trkpt>
      <trkpt lat="36.8202" lon="28.06666">
        <ele>9.2</ele>
      </trkpt>
      <trkpt lat="36.82016" lon="28.06677">
        <ele>9.4</ele>
      </trkpt>
      <trkpt lat="36.82014" lon="28.06681">
        <ele>9.5</ele>
      </trkpt>
      <trkpt lat="36.82009" lon="28.06687">
        <ele>9.3</ele>
      </trkpt>
      <trkpt lat="36.82004" lon="28.06697">
        <ele>9.4</ele>
      </trkpt>
      <trkpt lat="36.81999" lon="28.06699">
        <ele>8.9</ele>
      </trkpt>
      <trkpt lat="36.81991" lon="28.06703">
        <ele>9.2</ele>
      </trkpt>
      <trkpt lat="36.81981" lon="28.06705">
        <ele>9.4</ele>
      </trkpt>
      <trkpt lat="36.81968" lon="28.06705">
        <ele>9.5</ele>
      </trkpt>
      <trkpt lat="36.81965" lon="28.06705">
        <ele>9.5</ele>
      </trkpt>
      <trkpt lat="36.81957" lon="28.06705">
        <ele>9.6</ele>
      </trkpt>
      <trkpt lat="36.81948" lon="28.06705">
        <ele>9.6</ele>
      </trkpt>
      <trkpt lat="36.81927" lon="28.06697">
        <ele>9.4</ele>
      </trkpt>
      <trkpt lat="36.81919" lon="28.06693">
        <ele>9.2</ele>
      </trkpt>
      <trkpt lat="36.81907" lon="28.06687">
        <ele>9.6</ele>
      </trkpt>
      <trkpt lat="36.81891" lon="28.06678">
        <ele>10.2</ele>
      </trkpt>
      <trkpt lat="36.81883" lon="28.06674">
        <ele>10.5</ele>
      </trkpt>
      <trkpt lat="36.81873" lon="28.06668">
        <ele>10.7</ele>
      </trkpt>
      <trkpt lat="36.81865" lon="28.06662">
        <ele>10.9</ele>
      </trkpt>
      <trkpt lat="36.8186" lon="28.06658">
        <ele>11.1</ele>
      </trkpt>
      <trkpt lat="36.81852" lon="28.06654">
        <ele>11.4</ele>
      </trkpt>
      <trkpt lat="36.81845" lon="28.06652">
        <ele>11.7</ele>
      </trkpt>
      <trkpt lat="36.81837" lon="28.06646">
        <ele>12</ele>
      </trkpt>
      <trkpt lat="36.81829" lon="28.06644">
        <ele>12.3</ele>
      </trkpt>
      <trkpt lat="36.81818" lon="28.06633">
        <ele>12.1</ele>
      </trkpt>
      <trkpt lat="36.81813" lon="28.06631">
        <ele>12.1</ele>
      </trkpt>
      <trkpt lat="36.81805" lon="28.06627">
        <ele>12.1</ele>
      </trkpt>
      <trkpt lat="36.81788" lon="28.06617">
        <ele>12</ele>
      </trkpt>
      <trkpt lat="36.81769" lon="28.06601">
        <ele>11.6</ele>
      </trkpt>
      <trkpt lat="36.81759" lon="28.06591">
        <ele>11.2</ele>
      </trkpt>
      <trkpt lat="36.81752" lon="28.06586">
        <ele>11.1</ele>
      </trkpt>
      <trkpt lat="36.81741" lon="28.06578">
        <ele>11.4</ele>
      </trkpt>
      <trkpt lat="36.81734" lon="28.06574">
        <ele>11.7</ele>
      </trkpt>
      <trkpt lat="36.81726" lon="28.0657">
        <ele>12</ele>
      </trkpt>
      <trkpt lat="36.8172" lon="28.06568">
        <ele>12.4</ele>
      </trkpt>
      <trkpt lat="36.81713" lon="28.06562">
        <ele>12.5</ele>
      </trkpt>
      <trkpt lat="36.81708" lon="28.06556">
        <ele>12.5</ele>
      </trkpt>
      <trkpt lat="36.81702" lon="28.06552">
        <ele>12.8</ele>
      </trkpt>
      <trkpt lat="36.81687" lon="28.06542">
        <ele>13.2</ele>
      </trkpt>
      <trkpt lat="36.81679" lon="28.06536">
        <ele>13.3</ele>
      </trkpt>
      <trkpt lat="36.81676" lon="28.06533">
        <ele>13.4</ele>
      </trkpt>
      <trkpt lat="36.81664" lon="28.06523">
        <ele>13.6</ele>
      </trkpt>
      <trkpt lat="36.81655" lon="28.06515">
        <ele>13.7</ele>
      </trkpt>
      <trkpt lat="36.81646" lon="28.06509">
        <ele>13.9</ele>
      </trkpt>
      <trkpt lat="36.81637" lon="28.06499">
        <ele>14.1</ele>
      </trkpt>
      <trkpt lat="36.81627" lon="28.06491">
        <ele>14.6</ele>
      </trkpt>
      <trkpt lat="36.81616" lon="28.06479">
        <ele>15.2</ele>
      </trkpt>
      <trkpt lat="36.81604" lon="28.06468">
        <ele>15.9</ele>
      </trkpt>
      <trkpt lat="36.81598" lon="28.06462">
        <ele>16.4</ele>
      </trkpt>
      <trkpt lat="36.81591" lon="28.06456">
        <ele>16.8</ele>
      </trkpt>
      <trkpt lat="36.8158" lon="28.06448">
        <ele>17.5</ele>
      </trkpt>
      <trkpt lat="36.81572" lon="28.06438">
        <ele>17.8</ele>
      </trkpt>
      <trkpt lat="36.81564" lon="28.06434">
        <ele>18.1</ele>
      </trkpt>
      <trkpt lat="36.81557" lon="28.06428">
        <ele>18.4</ele>
      </trkpt>
      <trkpt lat="36.81556" lon="28.0642">
        <ele>18.4</ele>
      </trkpt>
      <trkpt lat="36.81553" lon="28.0641">
        <ele>18.5</ele>
      </trkpt>
      <trkpt lat="36.81551" lon="28.06403">
        <ele>18.7</ele>
      </trkpt>
      <trkpt lat="36.81548" lon="28.06391">
        <ele>18.9</ele>
      </trkpt>
      <trkpt lat="36.81546" lon="28.06379">
        <ele>19</ele>
      </trkpt>
      <trkpt lat="36.81543" lon="28.06369">
        <ele>19.2</ele>
      </trkpt>
      <trkpt lat="36.81538" lon="28.06357">
        <ele>19.5</ele>
      </trkpt>
      <trkpt lat="36.81535" lon="28.06355">
        <ele>19.6</ele>
      </trkpt>
      <trkpt lat="36.81527" lon="28.06343">
        <ele>20</ele>
      </trkpt>
      <trkpt lat="36.81521" lon="28.06335">
        <ele>20.3</ele>
      </trkpt>
      <trkpt lat="36.81511" lon="28.06321">
        <ele>21.3</ele>
      </trkpt>
      <trkpt lat="36.81506" lon="28.06315">
        <ele>21.6</ele>
      </trkpt>
      <trkpt lat="36.815" lon="28.06293">
        <ele>22.5</ele>
      </trkpt>
      <trkpt lat="36.81496" lon="28.06277">
        <ele>23.5</ele>
      </trkpt>
      <trkpt lat="36.81495" lon="28.06263">
        <ele>24.1</ele>
      </trkpt>
      <trkpt lat="36.8149" lon="28.06253">
        <ele>25</ele>
      </trkpt>
      <trkpt lat="36.81489" lon="28.06241">
        <ele>25.9</ele>
      </trkpt>
      <trkpt lat="36.81484" lon="28.06233">
        <ele>26.9</ele>
      </trkpt>
      <trkpt lat="36.81483" lon="28.06227">
        <ele>27.4</ele>
      </trkpt>
      <trkpt lat="36.81482" lon="28.06218">
        <ele>28.1</ele>
      </trkpt>
      <trkpt lat="36.81478" lon="28.06205">
        <ele>29</ele>
      </trkpt>
      <trkpt lat="36.81471" lon="28.06184">
        <ele>30.1</ele>
      </trkpt>
      <trkpt lat="36.81467" lon="28.0617">
        <ele>30.7</ele>
      </trkpt>
      <trkpt lat="36.81467" lon="28.06156">
        <ele>30.5</ele>
      </trkpt>
      <trkpt lat="36.81467" lon="28.06136">
        <ele>29.9</ele>
      </trkpt>
      <trkpt lat="36.81467" lon="28.0612">
        <ele>29.5</ele>
      </trkpt>
      <trkpt lat="36.81466" lon="28.06111">
        <ele>29.2</ele>
      </trkpt>
      <trkpt lat="36.81464" lon="28.06095">
        <ele>28.6</ele>
      </trkpt>
      <trkpt lat="36.81464" lon="28.06083">
        <ele>28.3</ele>
      </trkpt>
      <trkpt lat="36.81463" lon="28.06067">
        <ele>27.7</ele>
      </trkpt>
      <trkpt lat="36.81458" lon="28.06055">
        <ele>27.1</ele>
      </trkpt>
      <trkpt lat="36.81457" lon="28.06047">
        <ele>26.9</ele>
      </trkpt>
      <trkpt lat="36.81457" lon="28.06029">
        <ele>26.4</ele>
      </trkpt>
      <trkpt lat="36.81457" lon="28.06017">
        <ele>26</ele>
      </trkpt>
      <trkpt lat="36.81457" lon="28.05997">
        <ele>25.5</ele>
      </trkpt>
      <trkpt lat="36.81457" lon="28.05983">
        <ele>25.5</ele>
      </trkpt>
      <trkpt lat="36.81455" lon="28.0597">
        <ele>25.6</ele>
      </trkpt>
      <trkpt lat="36.81455" lon="28.0596">
        <ele>25.7</ele>
      </trkpt>
      <trkpt lat="36.81453" lon="28.05952">
        <ele>25.8</ele>
      </trkpt>
      <trkpt lat="36.81452" lon="28.05936">
        <ele>26</ele>
      </trkpt>
      <trkpt lat="36.81451" lon="28.05932">
        <ele>26</ele>
      </trkpt>
      <trkpt lat="36.81451" lon="28.05917">
        <ele>26.1</ele>
      </trkpt>
      <trkpt lat="36.81451" lon="28.05908">
        <ele>26.2</ele>
      </trkpt>
      <trkpt lat="36.81446" lon="28.05896">
        <ele>26.8</ele>
      </trkpt>
      <trkpt lat="36.81443" lon="28.05895">
        <ele>27.1</ele>
      </trkpt>
      <trkpt lat="36.81432" lon="28.05887">
        <ele>28.1</ele>
      </trkpt>
      <trkpt lat="36.81424" lon="28.05881">
        <ele>28.8</ele>
      </trkpt>
      <trkpt lat="36.81418" lon="28.05874">
        <ele>29.4</ele>
      </trkpt>
      <trkpt lat="36.81413" lon="28.05862">
        <ele>30.3</ele>
      </trkpt>
      <trkpt lat="36.81413" lon="28.05854">
        <ele>30.3</ele>
      </trkpt>
      <trkpt lat="36.81407" lon="28.0584">
        <ele>31.5</ele>
      </trkpt>
      <trkpt lat="36.81406" lon="28.0584">
        <ele>31.8</ele>
      </trkpt>
      <trkpt lat="36.81397" lon="28.05818">
        <ele>33.5</ele>
      </trkpt>
      <trkpt lat="36.81397" lon="28.05806">
        <ele>33.6</ele>
      </trkpt>
      <trkpt lat="36.81397" lon="28.05798">
        <ele>33.6</ele>
      </trkpt>
      <trkpt lat="36.81396" lon="28.05782">
        <ele>33.7</ele>
      </trkpt>
      <trkpt lat="36.81389" lon="28.05774">
        <ele>34.8</ele>
      </trkpt>
      <trkpt lat="36.81385" lon="28.05766">
        <ele>35.6</ele>
      </trkpt>
      <trkpt lat="36.81383" lon="28.05764">
        <ele>35.8</ele>
      </trkpt>
      <trkpt lat="36.81378" lon="28.05758">
        <ele>36.6</ele>
      </trkpt>
      <trkpt lat="36.81373" lon="28.0575">
        <ele>37.3</ele>
      </trkpt>
      <trkpt lat="36.81367" lon="28.05742">
        <ele>36.7</ele>
      </trkpt>
      <trkpt lat="36.81358" lon="28.05734">
        <ele>36.4</ele>
      </trkpt>
      <trkpt lat="36.81351" lon="28.05728">
        <ele>36</ele>
      </trkpt>
      <trkpt lat="36.81342" lon="28.05724">
        <ele>36.3</ele>
      </trkpt>
      <trkpt lat="36.81334" lon="28.0572">
        <ele>36.4</ele>
      </trkpt>
      <trkpt lat="36.81331" lon="28.05709">
        <ele>34.2</ele>
      </trkpt>
      <trkpt lat="36.81331" lon="28.05705">
        <ele>33.3</ele>
      </trkpt>
      <trkpt lat="36.8133" lon="28.05697">
        <ele>31.6</ele>
      </trkpt>
      <trkpt lat="36.8133" lon="28.05686">
        <ele>29.4</ele>
      </trkpt>
      <trkpt lat="36.81331" lon="28.05678">
        <ele>27.6</ele>
      </trkpt>
      <trkpt lat="36.8133" lon="28.05663">
        <ele>24.4</ele>
      </trkpt>
      <trkpt lat="36.81329" lon="28.05655">
        <ele>22.3</ele>
      </trkpt>
      <trkpt lat="36.8132" lon="28.05638">
        <ele>18.7</ele>
      </trkpt>
      <trkpt lat="36.81312" lon="28.05632">
        <ele>17.8</ele>
      </trkpt>
      <trkpt lat="36.81302" lon="28.05628">
        <ele>17.7</ele>
      </trkpt>
      <trkpt lat="36.81296" lon="28.05624">
        <ele>17.3</ele>
      </trkpt>
      <trkpt lat="36.81284" lon="28.0562">
        <ele>17.4</ele>
      </trkpt>
      <trkpt lat="36.81274" lon="28.05616">
        <ele>17.5</ele>
      </trkpt>
      <trkpt lat="36.81263" lon="28.05612">
        <ele>17.8</ele>
      </trkpt>
      <trkpt lat="36.81255" lon="28.05605">
        <ele>17.3</ele>
      </trkpt>
      <trkpt lat="36.81247" lon="28.05603">
        <ele>17.1</ele>
      </trkpt>
      <trkpt lat="36.81242" lon="28.05605">
        <ele>17.2</ele>
      </trkpt>
      <trkpt lat="36.81234" lon="28.0562">
        <ele>18.8</ele>
      </trkpt>
      <trkpt lat="36.81232" lon="28.0563">
        <ele>20.3</ele>
      </trkpt>
      <trkpt lat="36.81228" lon="28.05644">
        <ele>21.8</ele>
      </trkpt>
      <trkpt lat="36.81228" lon="28.05659">
        <ele>23.8</ele>
      </trkpt>
      <trkpt lat="36.81226" lon="28.05674">
        <ele>24.7</ele>
      </trkpt>
      <trkpt lat="36.81226" lon="28.05686">
        <ele>25.3</ele>
      </trkpt>
      <trkpt lat="36.81226" lon="28.05692">
        <ele>25.6</ele>
      </trkpt>
      <trkpt lat="36.8122" lon="28.05706">
        <ele>24.4</ele>
      </trkpt>
      <trkpt lat="36.81217" lon="28.0571">
        <ele>23.5</ele>
      </trkpt>
      <trkpt lat="36.81212" lon="28.05722">
        <ele>22.5</ele>
      </trkpt>
      <trkpt lat="36.81211" lon="28.05732">
        <ele>22.3</ele>
      </trkpt>
      <trkpt lat="36.8121" lon="28.05746">
        <ele>22.6</ele>
      </trkpt>
      <trkpt lat="36.8121" lon="28.05763">
        <ele>23</ele>
      </trkpt>
      <trkpt lat="36.81216" lon="28.05771">
        <ele>25.4</ele>
      </trkpt>
      <trkpt lat="36.81217" lon="28.05784">
        <ele>26.3</ele>
      </trkpt>
      <trkpt lat="36.81217" lon="28.05796">
        <ele>26.6</ele>
      </trkpt>
      <trkpt lat="36.81216" lon="28.058">
        <ele>26.7</ele>
      </trkpt>
      <trkpt lat="36.81215" lon="28.05812">
        <ele>26.5</ele>
      </trkpt>
      <trkpt lat="36.81207" lon="28.05816">
        <ele>23.9</ele>
      </trkpt>
      <trkpt lat="36.81204" lon="28.05824">
        <ele>23.2</ele>
      </trkpt>
      <trkpt lat="36.81202" lon="28.05828">
        <ele>22.8</ele>
      </trkpt>
      <trkpt lat="36.81199" lon="28.05838">
        <ele>22.5</ele>
      </trkpt>
      <trkpt lat="36.81193" lon="28.05844">
        <ele>21.2</ele>
      </trkpt>
      <trkpt lat="36.81187" lon="28.05848">
        <ele>19.7</ele>
      </trkpt>
      <trkpt lat="36.81178" lon="28.05856">
        <ele>17.7</ele>
      </trkpt>
      <trkpt lat="36.8117" lon="28.05864">
        <ele>16.2</ele>
      </trkpt>
      <trkpt lat="36.81165" lon="28.05874">
        <ele>16.2</ele>
      </trkpt>
      <trkpt lat="36.81162" lon="28.05882">
        <ele>16.8</ele>
      </trkpt>
      <trkpt lat="36.81159" lon="28.05894">
        <ele>17.8</ele>
      </trkpt>
      <trkpt lat="36.81157" lon="28.05904">
        <ele>18.6</ele>
      </trkpt>
      <trkpt lat="36.81152" lon="28.05913">
        <ele>18.5</ele>
      </trkpt>
      <trkpt lat="36.81146" lon="28.05917">
        <ele>17.5</ele>
      </trkpt>
      <trkpt lat="36.81136" lon="28.05925">
        <ele>16.2</ele>
      </trkpt>
      <trkpt lat="36.81132" lon="28.05927">
        <ele>15.3</ele>
      </trkpt>
      <trkpt lat="36.81125" lon="28.05937">
        <ele>14.9</ele>
      </trkpt>
      <trkpt lat="36.8112" lon="28.05949">
        <ele>15.1</ele>
      </trkpt>
      <trkpt lat="36.81117" lon="28.05955">
        <ele>15</ele>
      </trkpt>
      <trkpt lat="36.81117" lon="28.05968">
        <ele>16.2</ele>
      </trkpt>
      <trkpt lat="36.81116" lon="28.0598">
        <ele>17.3</ele>
      </trkpt>
      <trkpt lat="36.81116" lon="28.05996">
        <ele>18.9</ele>
      </trkpt>
      <trkpt lat="36.81116" lon="28.06006">
        <ele>20</ele>
      </trkpt>
      <trkpt lat="36.81116" lon="28.06016">
        <ele>21.2</ele>
      </trkpt>
      <trkpt lat="36.81112" lon="28.06024">
        <ele>21.6</ele>
      </trkpt>
      <trkpt lat="36.81104" lon="28.06028">
        <ele>20.7</ele>
      </trkpt>
      <trkpt lat="36.81094" lon="28.06028">
        <ele>19</ele>
      </trkpt>
      <trkpt lat="36.81091" lon="28.06024">
        <ele>17.9</ele>
      </trkpt>
      <trkpt lat="36.81083" lon="28.06012">
        <ele>14.8</ele>
      </trkpt>
      <trkpt lat="36.81078" lon="28.06002">
        <ele>14.7</ele>
      </trkpt>
      <trkpt lat="36.8107" lon="28.05994">
        <ele>15.9</ele>
      </trkpt>
      <trkpt lat="36.81062" lon="28.05984">
        <ele>16.8</ele>
      </trkpt>
      <trkpt lat="36.81056" lon="28.05974">
        <ele>17.1</ele>
      </trkpt>
      <trkpt lat="36.81053" lon="28.0597">
        <ele>17.4</ele>
      </trkpt>
      <trkpt lat="36.81048" lon="28.05959">
        <ele>17.2</ele>
      </trkpt>
      <trkpt lat="36.81045" lon="28.05949">
        <ele>16.5</ele>
      </trkpt>
      <trkpt lat="36.8104" lon="28.05935">
        <ele>15.5</ele>
      </trkpt>
      <trkpt lat="36.81034" lon="28.05929">
        <ele>16</ele>
      </trkpt>
      <trkpt lat="36.81025" lon="28.05921">
        <ele>16.4</ele>
      </trkpt>
      <trkpt lat="36.81021" lon="28.05908">
        <ele>16.2</ele>
      </trkpt>
      <trkpt lat="36.81021" lon="28.05904">
        <ele>15.9</ele>
      </trkpt>
      <trkpt lat="36.81018" lon="28.0589">
        <ele>15.4</ele>
      </trkpt>
      <trkpt lat="36.81016" lon="28.0588">
        <ele>14.8</ele>
      </trkpt>
      <trkpt lat="36.81016" lon="28.05875">
        <ele>14.4</ele>
      </trkpt>
      <trkpt lat="36.81016" lon="28.05859">
        <ele>13.1</ele>
      </trkpt>
      <trkpt lat="36.81015" lon="28.05851">
        <ele>12.5</ele>
      </trkpt>
      <trkpt lat="36.81013" lon="28.0584">
        <ele>11.6</ele>
      </trkpt>
      <trkpt lat="36.81008" lon="28.0583">
        <ele>10.6</ele>
      </trkpt>
      <trkpt lat="36.81003" lon="28.05824">
        <ele>9.9</ele>
      </trkpt>
      <trkpt lat="36.81" lon="28.0582">
        <ele>9.4</ele>
      </trkpt>
      <trkpt lat="36.8099" lon="28.05816">
        <ele>8.5</ele>
      </trkpt>
      <trkpt lat="36.8098" lon="28.05803">
        <ele>6.8</ele>
      </trkpt>
      <trkpt lat="36.80972" lon="28.05801">
        <ele>6.3</ele>
      </trkpt>
      <trkpt lat="36.80966" lon="28.05801">
        <ele>6.1</ele>
      </trkpt>
      <trkpt lat="36.80959" lon="28.05807">
        <ele>6.5</ele>
      </trkpt>
      <trkpt lat="36.80952" lon="28.05816">
        <ele>7.1</ele>
      </trkpt>
      <trkpt lat="36.80949" lon="28.05828">
        <ele>8.1</ele>
      </trkpt>
      <trkpt lat="36.80944" lon="28.05847">
        <ele>10</ele>
      </trkpt>
      <trkpt lat="36.80939" lon="28.05863">
        <ele>11.9</ele>
      </trkpt>
      <trkpt lat="36.80937" lon="28.05872">
        <ele>12.9</ele>
      </trkpt>
      <trkpt lat="36.80932" lon="28.05886">
        <ele>14.6</ele>
      </trkpt>
      <trkpt lat="36.80931" lon="28.059">
        <ele>16.4</ele>
      </trkpt>
      <trkpt lat="36.80927" lon="28.05915">
        <ele>18.1</ele>
      </trkpt>
      <trkpt lat="36.80922" lon="28.05927">
        <ele>19.1</ele>
      </trkpt>
      <trkpt lat="36.80916" lon="28.05933">
        <ele>19.3</ele>
      </trkpt>
      <trkpt lat="36.80911" lon="28.05937">
        <ele>19</ele>
      </trkpt>
      <trkpt lat="36.80903" lon="28.05945">
        <ele>18.7</ele>
      </trkpt>
      <trkpt lat="36.809" lon="28.05953">
        <ele>19.1</ele>
      </trkpt>
      <trkpt lat="36.80898" lon="28.05959">
        <ele>19.5</ele>
      </trkpt>
      <trkpt lat="36.80896" lon="28.05974">
        <ele>20.6</ele>
      </trkpt>
      <trkpt lat="36.80895" lon="28.05988">
        <ele>21.7</ele>
      </trkpt>
      <trkpt lat="36.80895" lon="28.05994">
        <ele>22.3</ele>
      </trkpt>
      <trkpt lat="36.80895" lon="28.06006">
        <ele>23.5</ele>
      </trkpt>
      <trkpt lat="36.80895" lon="28.06022">
        <ele>25</ele>
      </trkpt>
      <trkpt lat="36.80895" lon="28.06034">
        <ele>26.2</ele>
      </trkpt>
      <trkpt lat="36.80895" lon="28.06038">
        <ele>26.6</ele>
      </trkpt>
      <trkpt lat="36.80893" lon="28.06046">
        <ele>27.3</ele>
      </trkpt>
      <trkpt lat="36.80885" lon="28.06058">
        <ele>28.3</ele>
      </trkpt>
      <trkpt lat="36.8088" lon="28.06055">
        <ele>27.7</ele>
      </trkpt>
      <trkpt lat="36.8087" lon="28.06048">
        <ele>26.6</ele>
      </trkpt>
      <trkpt lat="36.80857" lon="28.06038">
        <ele>24.7</ele>
      </trkpt>
      <trkpt lat="36.80854" lon="28.06036">
        <ele>24.2</ele>
      </trkpt>
      <trkpt lat="36.80844" lon="28.06024">
        <ele>21.8</ele>
      </trkpt>
      <trkpt lat="36.80836" lon="28.0601">
        <ele>18.9</ele>
      </trkpt>
      <trkpt lat="36.80833" lon="28.06004">
        <ele>17.7</ele>
      </trkpt>
      <trkpt lat="36.80828" lon="28.05986">
        <ele>15.9</ele>
      </trkpt>
      <trkpt lat="36.80823" lon="28.05978">
        <ele>15.5</ele>
      </trkpt>
      <trkpt lat="36.80818" lon="28.05965">
        <ele>14.4</ele>
      </trkpt>
      <trkpt lat="36.80813" lon="28.05951">
        <ele>13.1</ele>
      </trkpt>
      <trkpt lat="36.8081" lon="28.05943">
        <ele>12.4</ele>
      </trkpt>
      <trkpt lat="36.80807" lon="28.05933">
        <ele>11.4</ele>
      </trkpt>
      <trkpt lat="36.80803" lon="28.05918">
        <ele>9.7</ele>
      </trkpt>
      <trkpt lat="36.808" lon="28.0591">
        <ele>9.2</ele>
      </trkpt>
      <trkpt lat="36.80793" lon="28.059">
        <ele>8.7</ele>
      </trkpt>
      <trkpt lat="36.80785" lon="28.05889">
        <ele>8.1</ele>
      </trkpt>
      <trkpt lat="36.80773" lon="28.05887">
        <ele>8.5</ele>
      </trkpt>
      <trkpt lat="36.80764" lon="28.05887">
        <ele>9</ele>
      </trkpt>
      <trkpt lat="36.80754" lon="28.05887">
        <ele>9.6</ele>
      </trkpt>
      <trkpt lat="36.80738" lon="28.05896">
        <ele>9.6</ele>
      </trkpt>
      <trkpt lat="36.80728" lon="28.05904">
        <ele>9.4</ele>
      </trkpt>
      <trkpt lat="36.80724" lon="28.05912">
        <ele>9.8</ele>
      </trkpt>
      <trkpt lat="36.80724" lon="28.05922">
        <ele>11</ele>
      </trkpt>
      <trkpt lat="36.8072" lon="28.05937">
        <ele>11.9</ele>
      </trkpt>
      <trkpt lat="36.80713" lon="28.05951">
        <ele>12.2</ele>
      </trkpt>
      <trkpt lat="36.80712" lon="28.05957">
        <ele>12.5</ele>
      </trkpt>
      <trkpt lat="36.807" lon="28.05974">
        <ele>11.6</ele>
      </trkpt>
      <trkpt lat="36.807" lon="28.05984">
        <ele>12.5</ele>
      </trkpt>
      <trkpt lat="36.807" lon="28.05996">
        <ele>13.5</ele>
      </trkpt>
      <trkpt lat="36.80697" lon="28.06006">
        <ele>13.5</ele>
      </trkpt>
      <trkpt lat="36.80692" lon="28.06018">
        <ele>13.2</ele>
      </trkpt>
      <trkpt lat="36.80687" lon="28.06025">
        <ele>12.5</ele>
      </trkpt>
      <trkpt lat="36.80686" lon="28.06029">
        <ele>12.5</ele>
      </trkpt>
      <trkpt lat="36.80674" lon="28.06037">
        <ele>10.4</ele>
      </trkpt>
      <trkpt lat="36.80674" lon="28.06047">
        <ele>11.3</ele>
      </trkpt>
      <trkpt lat="36.80674" lon="28.06057">
        <ele>12.3</ele>
      </trkpt>
      <trkpt lat="36.80676" lon="28.06067">
        <ele>13.6</ele>
      </trkpt>
      <trkpt lat="36.80676" lon="28.06075">
        <ele>14.4</ele>
      </trkpt>
      <trkpt lat="36.80676" lon="28.06083">
        <ele>15.1</ele>
      </trkpt>
      <trkpt lat="36.80678" lon="28.06096">
        <ele>16.9</ele>
      </trkpt>
      <trkpt lat="36.80683" lon="28.06106">
        <ele>19.1</ele>
      </trkpt>
      <trkpt lat="36.80682" lon="28.06114">
        <ele>19.7</ele>
      </trkpt>
      <trkpt lat="36.80675" lon="28.06114">
        <ele>18.5</ele>
      </trkpt>
      <trkpt lat="36.80668" lon="28.0611">
        <ele>16.8</ele>
      </trkpt>
      <trkpt lat="36.8066" lon="28.06098">
        <ele>14.6</ele>
      </trkpt>
      <trkpt lat="36.80655" lon="28.06094">
        <ele>13.9</ele>
      </trkpt>
      <trkpt lat="36.80639" lon="28.06084">
        <ele>12.3</ele>
      </trkpt>
      <trkpt lat="36.80625" lon="28.06078">
        <ele>11.4</ele>
      </trkpt>
      <trkpt lat="36.80617" lon="28.06076">
        <ele>11</ele>
      </trkpt>
      <trkpt lat="36.80604" lon="28.06068">
        <ele>9.7</ele>
      </trkpt>
      <trkpt lat="36.80595" lon="28.06061">
        <ele>8.7</ele>
      </trkpt>
      <trkpt lat="36.8059" lon="28.06059">
        <ele>8.3</ele>
      </trkpt>
      <trkpt lat="36.80582" lon="28.06047">
        <ele>6.6</ele>
      </trkpt>
      <trkpt lat="36.80578" lon="28.06045">
        <ele>6.2</ele>
      </trkpt>
      <trkpt lat="36.80572" lon="28.06043">
        <ele>5.7</ele>
      </trkpt>
      <trkpt lat="36.8056" lon="28.06037">
        <ele>4.7</ele>
      </trkpt>
      <trkpt lat="36.80553" lon="28.06037">
        <ele>4.5</ele>
      </trkpt>
      <trkpt lat="36.80545" lon="28.06037">
        <ele>4.2</ele>
      </trkpt>
      <trkpt lat="36.80537" lon="28.06037">
        <ele>4</ele>
      </trkpt>
      <trkpt lat="36.8053" lon="28.06037">
        <ele>3.7</ele>
      </trkpt>
      <trkpt lat="36.8052" lon="28.06043">
        <ele>3.8</ele>
      </trkpt>
      <trkpt lat="36.80518" lon="28.06052">
        <ele>4.3</ele>
      </trkpt>
      <trkpt lat="36.80519" lon="28.06058">
        <ele>4.7</ele>
      </trkpt>
      <trkpt lat="36.80519" lon="28.06072">
        <ele>5.6</ele>
      </trkpt>
      <trkpt lat="36.80519" lon="28.06078">
        <ele>6</ele>
      </trkpt>
      <trkpt lat="36.80521" lon="28.06096">
        <ele>6.8</ele>
      </trkpt>
      <trkpt lat="36.80521" lon="28.06111">
        <ele>7.2</ele>
      </trkpt>
      <trkpt lat="36.80521" lon="28.06127">
        <ele>7.6</ele>
      </trkpt>
      <trkpt lat="36.80525" lon="28.06133">
        <ele>8</ele>
      </trkpt>
      <trkpt lat="36.8053" lon="28.06145">
        <ele>8.6</ele>
      </trkpt>
      <trkpt lat="36.80533" lon="28.06151">
        <ele>9</ele>
      </trkpt>
      <trkpt lat="36.80535" lon="28.06159">
        <ele>9.3</ele>
      </trkpt>
      <trkpt lat="36.8054" lon="28.06182">
        <ele>10.4</ele>
      </trkpt>
      <trkpt lat="36.80538" lon="28.06192">
        <ele>10.6</ele>
      </trkpt>
      <trkpt lat="36.80532" lon="28.06198">
        <ele>10.5</ele>
      </trkpt>
      <trkpt lat="36.80518" lon="28.06198">
        <ele>10</ele>
      </trkpt>
      <trkpt lat="36.80508" lon="28.06199">
        <ele>9.6</ele>
      </trkpt>
      <trkpt lat="36.80497" lon="28.06199">
        <ele>9.3</ele>
      </trkpt>
      <trkpt lat="36.80495" lon="28.06199">
        <ele>9.3</ele>
      </trkpt>
      <trkpt lat="36.80482" lon="28.06195">
        <ele>9</ele>
      </trkpt>
      <trkpt lat="36.80467" lon="28.06193">
        <ele>8.8</ele>
      </trkpt>
      <trkpt lat="36.80454" lon="28.06195">
        <ele>9</ele>
      </trkpt>
      <trkpt lat="36.80448" lon="28.06203">
        <ele>9.8</ele>
      </trkpt>
      <trkpt lat="36.8044" lon="28.06213">
        <ele>10.8</ele>
      </trkpt>
      <trkpt lat="36.8043" lon="28.06219">
        <ele>11.5</ele>
      </trkpt>
      <trkpt lat="36.80425" lon="28.06221">
        <ele>11.7</ele>
      </trkpt>
      <trkpt lat="36.80412" lon="28.06217">
        <ele>11.9</ele>
      </trkpt>
      <trkpt lat="36.80406" lon="28.06211">
        <ele>12</ele>
      </trkpt>
      <trkpt lat="36.80399" lon="28.06202">
        <ele>11.8</ele>
      </trkpt>
      <trkpt lat="36.80392" lon="28.06192">
        <ele>11.3</ele>
      </trkpt>
      <trkpt lat="36.80381" lon="28.06184">
        <ele>11.3</ele>
      </trkpt>
      <trkpt lat="36.80366" lon="28.06174">
        <ele>11.2</ele>
      </trkpt>
      <trkpt lat="36.80357" lon="28.06164">
        <ele>10.7</ele>
      </trkpt>
      <trkpt lat="36.80352" lon="28.06157">
        <ele>10.5</ele>
      </trkpt>
      <trkpt lat="36.80342" lon="28.06151">
        <ele>10.5</ele>
      </trkpt>
      <trkpt lat="36.80332" lon="28.06147">
        <ele>10.6</ele>
      </trkpt>
      <trkpt lat="36.80324" lon="28.06143">
        <ele>10.1</ele>
      </trkpt>
      <trkpt lat="36.80315" lon="28.06137">
        <ele>9.4</ele>
      </trkpt>
      <trkpt lat="36.80307" lon="28.06137">
        <ele>9.4</ele>
      </trkpt>
      <trkpt lat="36.80306" lon="28.06137">
        <ele>9.4</ele>
      </trkpt>
      <trkpt lat="36.8028" lon="28.06124">
        <ele>8.3</ele>
      </trkpt>
      <trkpt lat="36.80272" lon="28.06124">
        <ele>8.3</ele>
      </trkpt>
      <trkpt lat="36.80262" lon="28.06124">
        <ele>8.4</ele>
      </trkpt>
      <trkpt lat="36.80253" lon="28.06127">
        <ele>8.6</ele>
      </trkpt>
      <trkpt lat="36.80246" lon="28.06127">
        <ele>8.5</ele>
      </trkpt>
      <trkpt lat="36.80244" lon="28.06131">
        <ele>8.7</ele>
      </trkpt>
      <trkpt lat="36.80241" lon="28.06141">
        <ele>9.2</ele>
      </trkpt>
      <trkpt lat="36.80234" lon="28.06149">
        <ele>9.4</ele>
      </trkpt>
      <trkpt lat="36.80228" lon="28.06157">
        <ele>9.7</ele>
      </trkpt>
      <trkpt lat="36.80223" lon="28.06163">
        <ele>9.8</ele>
      </trkpt>
      <trkpt lat="36.80218" lon="28.06171">
        <ele>10.1</ele>
      </trkpt>
      <trkpt lat="36.80216" lon="28.06183">
        <ele>10.7</ele>
      </trkpt>
      <trkpt lat="36.80213" lon="28.06195">
        <ele>11.2</ele>
      </trkpt>
      <trkpt lat="36.80208" lon="28.06198">
        <ele>11.2</ele>
      </trkpt>
      <trkpt lat="36.80198" lon="28.06198">
        <ele>10.8</ele>
      </trkpt>
      <trkpt lat="36.80192" lon="28.06194">
        <ele>10.3</ele>
      </trkpt>
      <trkpt lat="36.80184" lon="28.06192">
        <ele>9.9</ele>
      </trkpt>
      <trkpt lat="36.80169" lon="28.06188">
        <ele>9.1</ele>
      </trkpt>
      <trkpt lat="36.80161" lon="28.06186">
        <ele>9.2</ele>
      </trkpt>
      <trkpt lat="36.80151" lon="28.06182">
        <ele>9.6</ele>
      </trkpt>
      <trkpt lat="36.80145" lon="28.06178">
        <ele>9.7</ele>
      </trkpt>
      <trkpt lat="36.80138" lon="28.06172">
        <ele>9.7</ele>
      </trkpt>
      <trkpt lat="36.80133" lon="28.06169">
        <ele>9.8</ele>
      </trkpt>
      <trkpt lat="36.80121" lon="28.06163">
        <ele>10</ele>
      </trkpt>
      <trkpt lat="36.80111" lon="28.06153">
        <ele>10</ele>
      </trkpt>
      <trkpt lat="36.8011" lon="28.06141">
        <ele>9.5</ele>
      </trkpt>
      <trkpt lat="36.8011" lon="28.06131">
        <ele>9</ele>
      </trkpt>
      <trkpt lat="36.80109" lon="28.06118">
        <ele>8.5</ele>
      </trkpt>
      <trkpt lat="36.80109" lon="28.06108">
        <ele>8</ele>
      </trkpt>
      <trkpt lat="36.8011" lon="28.06099">
        <ele>7.4</ele>
      </trkpt>
      <trkpt lat="36.80112" lon="28.06093">
        <ele>7.1</ele>
      </trkpt>
      <trkpt lat="36.80114" lon="28.06081">
        <ele>6.3</ele>
      </trkpt>
      <trkpt lat="36.80114" lon="28.06065">
        <ele>5.3</ele>
      </trkpt>
      <trkpt lat="36.80114" lon="28.06061">
        <ele>5</ele>
      </trkpt>
      <trkpt lat="36.80109" lon="28.06048">
        <ele>4.3</ele>
      </trkpt>
      <trkpt lat="36.80099" lon="28.06046">
        <ele>4.4</ele>
      </trkpt>
      <trkpt lat="36.80086" lon="28.06046">
        <ele>4.8</ele>
      </trkpt>
      <trkpt lat="36.80078" lon="28.06049">
        <ele>5.9</ele>
      </trkpt>
      <trkpt lat="36.80074" lon="28.06053">
        <ele>6.7</ele>
      </trkpt>
      <trkpt lat="36.80067" lon="28.06057">
        <ele>7.9</ele>
      </trkpt>
      <trkpt lat="36.80061" lon="28.06059">
        <ele>9</ele>
      </trkpt>
      <trkpt lat="36.80046" lon="28.06062">
        <ele>11.3</ele>
      </trkpt>
      <trkpt lat="36.80036" lon="28.06066">
        <ele>12.9</ele>
      </trkpt>
      <trkpt lat="36.80031" lon="28.06073">
        <ele>14.2</ele>
      </trkpt>
      <trkpt lat="36.80022" lon="28.06075">
        <ele>15.4</ele>
      </trkpt>
      <trkpt lat="36.80019" lon="28.06065">
        <ele>15.1</ele>
      </trkpt>
      <trkpt lat="36.80019" lon="28.06051">
        <ele>14</ele>
      </trkpt>
      <trkpt lat="36.80019" lon="28.06035">
        <ele>12.8</ele>
      </trkpt>
      <trkpt lat="36.80016" lon="28.06029">
        <ele>12.8</ele>
      </trkpt>
      <trkpt lat="36.80011" lon="28.06017">
        <ele>12.6</ele>
      </trkpt>
      <trkpt lat="36.80006" lon="28.06009">
        <ele>12.7</ele>
      </trkpt>
      <trkpt lat="36.80007" lon="28.06003">
        <ele>12.3</ele>
      </trkpt>
      <trkpt lat="36.79954" lon="28.0599">
        <ele>15.5</ele>
      </trkpt>
      <trkpt lat="36.79925" lon="28.05984">
        <ele>17.2</ele>
      </trkpt>
      <trkpt lat="36.79897" lon="28.05983">
        <ele>18.9</ele>
      </trkpt>
      <trkpt lat="36.79877" lon="28.06011">
        <ele>21.5</ele>
      </trkpt>
      <trkpt lat="36.79867" lon="28.0605">
        <ele>25.2</ele>
      </trkpt>
      <trkpt lat="36.79866" lon="28.06086">
        <ele>28.5</ele>
      </trkpt>
      <trkpt lat="36.79851" lon="28.06073">
        <ele>27.7</ele>
      </trkpt>
      <trkpt lat="36.79828" lon="28.06054">
        <ele>27.1</ele>
      </trkpt>
      <trkpt lat="36.79804" lon="28.0603">
        <ele>27.4</ele>
      </trkpt>
      <trkpt lat="36.79769" lon="28.06013">
        <ele>29.3</ele>
      </trkpt>
      <trkpt lat="36.79747" lon="28.05989">
        <ele>30.1</ele>
      </trkpt>
      <trkpt lat="36.79732" lon="28.05962">
        <ele>30.2</ele>
      </trkpt>
      <trkpt lat="36.79711" lon="28.05924">
        <ele>29.2</ele>
      </trkpt>
      <trkpt lat="36.7969" lon="28.05909">
        <ele>28.3</ele>
      </trkpt>
      <trkpt lat="36.79664" lon="28.05901">
        <ele>27.4</ele>
      </trkpt>
      <trkpt lat="36.79629" lon="28.0589">
        <ele>27.8</ele>
      </trkpt>
      <trkpt lat="36.79604" lon="28.05879">
        <ele>27.4</ele>
      </trkpt>
      <trkpt lat="36.7958" lon="28.05856">
        <ele>25.7</ele>
      </trkpt>
      <trkpt lat="36.79553" lon="28.05824">
        <ele>24.7</ele>
      </trkpt>
      <trkpt lat="36.79525" lon="28.05781">
        <ele>23.3</ele>
      </trkpt>
      <trkpt lat="36.79493" lon="28.05755">
        <ele>21</ele>
      </trkpt>
      <trkpt lat="36.79476" lon="28.05712">
        <ele>22.5</ele>
      </trkpt>
      <trkpt lat="36.79459" lon="28.05669">
        <ele>22.6</ele>
      </trkpt>
      <trkpt lat="36.79437" lon="28.05627">
        <ele>20</ele>
      </trkpt>
      <trkpt lat="36.79407" lon="28.05592">
        <ele>18</ele>
      </trkpt>
      <trkpt lat="36.79379" lon="28.05555">
        <ele>17.8</ele>
      </trkpt>
      <trkpt lat="36.79347" lon="28.05512">
        <ele>16.6</ele>
      </trkpt>
      <trkpt lat="36.79321" lon="28.05464">
        <ele>16.8</ele>
      </trkpt>
      <trkpt lat="36.79295" lon="28.05415">
        <ele>16.5</ele>
      </trkpt>
      <trkpt lat="36.79265" lon="28.05388">
        <ele>16.4</ele>
      </trkpt>
      <trkpt lat="36.79226" lon="28.05361">
        <ele>15.2</ele>
      </trkpt>
      <trkpt lat="36.79183" lon="28.05345">
        <ele>13.8</ele>
      </trkpt>
      <trkpt lat="36.79162" lon="28.05354">
        <ele>13.7</ele>
      </trkpt>
      <trkpt lat="36.7914" lon="28.05373">
        <ele>13.7</ele>
      </trkpt>
      <trkpt lat="36.79131" lon="28.05313">
        <ele>14.1</ele>
      </trkpt>
      <trkpt lat="36.79119" lon="28.05215">
        <ele>18.7</ele>
      </trkpt>
      <trkpt lat="36.79093" lon="28.05121">
        <ele>17.6</ele>
      </trkpt>
      <trkpt lat="36.7906" lon="28.05048">
        <ele>15.7</ele>
      </trkpt>
      <trkpt lat="36.79024" lon="28.04962">
        <ele>20.8</ele>
      </trkpt>
      <trkpt lat="36.78981" lon="28.04892">
        <ele>25.2</ele>
      </trkpt>
      <trkpt lat="36.78951" lon="28.04815">
        <ele>27.1</ele>
      </trkpt>
      <trkpt lat="36.78907" lon="28.04732">
        <ele>31.2</ele>
      </trkpt>
      <trkpt lat="36.78875" lon="28.04628">
        <ele>37.1</ele>
      </trkpt>
      <trkpt lat="36.78847" lon="28.04473">
        <ele>44.1</ele>
      </trkpt>
      <trkpt lat="36.78847" lon="28.04413">
        <ele>44.7</ele>
      </trkpt>
      <trkpt lat="36.78852" lon="28.04332">
        <ele>49.3</ele>
      </trkpt>
      <trkpt lat="36.78855" lon="28.0424">
        <ele>55.3</ele>
      </trkpt>
      <trkpt lat="36.78858" lon="28.04157">
        <ele>58.8</ele>
      </trkpt>
      <trkpt lat="36.78856" lon="28.04078">
        <ele>58.8</ele>
      </trkpt>
      <trkpt lat="36.78857" lon="28.04014">
        <ele>50.7</ele>
      </trkpt>
      <trkpt lat="36.78862" lon="28.03967">
        <ele>45.5</ele>
      </trkpt>
      <trkpt lat="36.78857" lon="28.03954">
        <ele>44.9</ele>
      </trkpt>
      <trkpt lat="36.78848" lon="28.03937">
        <ele>44.4</ele>
      </trkpt>
      <trkpt lat="36.78847" lon="28.03931">
        <ele>44.2</ele>
      </trkpt>
      <trkpt lat="36.78835" lon="28.03911">
        <ele>44.4</ele>
      </trkpt>
      <trkpt lat="36.78832" lon="28.03903">
        <ele>44.1</ele>
      </trkpt>
      <trkpt lat="36.78827" lon="28.03889">
        <ele>43.1</ele>
      </trkpt>
      <trkpt lat="36.78826" lon="28.03883">
        <ele>42.7</ele>
      </trkpt>
      <trkpt lat="36.78821" lon="28.03871">
        <ele>41.8</ele>
      </trkpt>
      <trkpt lat="36.78819" lon="28.03863">
        <ele>41.4</ele>
      </trkpt>
      <trkpt lat="36.78819" lon="28.03849">
        <ele>40.6</ele>
      </trkpt>
      <trkpt lat="36.78816" lon="28.03843">
        <ele>40.3</ele>
      </trkpt>
      <trkpt lat="36.78809" lon="28.03827">
        <ele>39.2</ele>
      </trkpt>
      <trkpt lat="36.78806" lon="28.03817">
        <ele>38.4</ele>
      </trkpt>
      <trkpt lat="36.78799" lon="28.03811">
        <ele>38</ele>
      </trkpt>
      <trkpt lat="36.78791" lon="28.038">
        <ele>37.5</ele>
      </trkpt>
      <trkpt lat="36.78786" lon="28.03794">
        <ele>37.3</ele>
      </trkpt>
      <trkpt lat="36.78782" lon="28.03786">
        <ele>37.1</ele>
      </trkpt>
      <trkpt lat="36.78775" lon="28.03776">
        <ele>37</ele>
      </trkpt>
      <trkpt lat="36.78769" lon="28.03766">
        <ele>37</ele>
      </trkpt>
      <trkpt lat="36.78764" lon="28.03754">
        <ele>37</ele>
      </trkpt>
      <trkpt lat="36.78759" lon="28.0374">
        <ele>36.6</ele>
      </trkpt>
      <trkpt lat="36.78749" lon="28.03736">
        <ele>37.1</ele>
      </trkpt>
      <trkpt lat="36.78743" lon="28.03732">
        <ele>36.8</ele>
      </trkpt>
      <trkpt lat="36.78731" lon="28.03724">
        <ele>36.2</ele>
      </trkpt>
      <trkpt lat="36.78718" lon="28.03714">
        <ele>35.8</ele>
      </trkpt>
      <trkpt lat="36.78712" lon="28.03708">
        <ele>35.7</ele>
      </trkpt>
      <trkpt lat="36.78702" lon="28.03698">
        <ele>35.7</ele>
      </trkpt>
      <trkpt lat="36.78696" lon="28.03692">
        <ele>35.7</ele>
      </trkpt>
      <trkpt lat="36.78696" lon="28.03692">
        <ele>35.7</ele>
      </trkpt>
      <trkpt lat="36.78696" lon="28.03692">
        <ele>35.7</ele>
      </trkpt>
      <trkpt lat="36.78696" lon="28.03692">
        <ele>35.7</ele>
      </trkpt>
      <trkpt lat="36.78696" lon="28.03692">
        <ele>35.7</ele>
      </trkpt>
      <trkpt lat="36.78696" lon="28.03692">
        <ele>35.7</ele>
      </trkpt>
      <trkpt lat="36.78696" lon="28.03692">
        <ele>37.691</ele>
      </trkpt>
      <trkpt lat="36.78701" lon="28.0369">
        <ele>37.527</ele>
      </trkpt>
      <trkpt lat="36.78702" lon="28.0369">
        <ele>37.525</ele>
      </trkpt>
      <trkpt lat="36.78705" lon="28.03689">
        <ele>37.448</ele>
      </trkpt>
      <trkpt lat="36.78713" lon="28.03681">
        <ele>36.569</ele>
      </trkpt>
      <trkpt lat="36.78729" lon="28.0366">
        <ele>33.92</ele>
      </trkpt>
      <trkpt lat="36.7874" lon="28.03644">
        <ele>31.364</ele>
      </trkpt>
      <trkpt lat="36.78755" lon="28.03626">
        <ele>28.955</ele>
      </trkpt>
      <trkpt lat="36.78765" lon="28.03609">
        <ele>26.781</ele>
      </trkpt>
      <trkpt lat="36.78777" lon="28.03588">
        <ele>26.066</ele>
      </trkpt>
      <trkpt lat="36.7879" lon="28.03568">
        <ele>25.918</ele>
      </trkpt>
      <trkpt lat="36.78803" lon="28.03545">
        <ele>26.006</ele>
      </trkpt>
      <trkpt lat="36.78808" lon="28.03526">
        <ele>24.651</ele>
      </trkpt>
      <trkpt lat="36.78815" lon="28.0351">
        <ele>23.019</ele>
      </trkpt>
      <trkpt lat="36.78818" lon="28.03498">
        <ele>21.993</ele>
      </trkpt>
      <trkpt lat="36.78817" lon="28.03492">
        <ele>21.538</ele>
      </trkpt>
      <trkpt lat="36.78818" lon="28.03483">
        <ele>20.839</ele>
      </trkpt>
      <trkpt lat="36.78818" lon="28.03478">
        <ele>20.454</ele>
      </trkpt>
      <trkpt lat="36.78816" lon="28.03473">
        <ele>20.023</ele>
      </trkpt>
      <trkpt lat="36.78817" lon="28.03465">
        <ele>18.863</ele>
      </trkpt>
      <trkpt lat="36.78815" lon="28.0346">
        <ele>18.016</ele>
      </trkpt>
      <trkpt lat="36.78816" lon="28.03454">
        <ele>16.889</ele>
      </trkpt>
      <trkpt lat="36.78816" lon="28.03452">
        <ele>16.638</ele>
      </trkpt>
      <trkpt lat="36.78818" lon="28.03443">
        <ele>15.227</ele>
      </trkpt>
      <trkpt lat="36.78822" lon="28.03434">
        <ele>14.062</ele>
      </trkpt>
      <trkpt lat="36.78821" lon="28.03422">
        <ele>12.304</ele>
      </trkpt>
      <trkpt lat="36.78816" lon="28.03414">
        <ele>11.021</ele>
      </trkpt>
      <trkpt lat="36.78816" lon="28.03412">
        <ele>10.684</ele>
      </trkpt>
      <trkpt lat="36.78818" lon="28.03407">
        <ele>10.055</ele>
      </trkpt>
      <trkpt lat="36.78819" lon="28.03404">
        <ele>9.654</ele>
      </trkpt>
      <trkpt lat="36.78821" lon="28.03396">
        <ele>8.576</ele>
      </trkpt>
      <trkpt lat="36.78812" lon="28.03392">
        <ele>7.653</ele>
      </trkpt>
      <trkpt lat="36.78798" lon="28.03391">
        <ele>8.105</ele>
      </trkpt>
      <trkpt lat="36.78782" lon="28.03381">
        <ele>8.907</ele>
      </trkpt>
      <trkpt lat="36.78773" lon="28.03365">
        <ele>8.907</ele>
      </trkpt>
      <trkpt lat="36.7877" lon="28.03351">
        <ele>9.392</ele>
      </trkpt>
      <trkpt lat="36.78771" lon="28.03334">
        <ele>9.523</ele>
      </trkpt>
      <trkpt lat="36.78773" lon="28.03324">
        <ele>8.658</ele>
      </trkpt>
      <trkpt lat="36.78777" lon="28.03314">
        <ele>7.376</ele>
      </trkpt>
      <trkpt lat="36.78777" lon="28.03305">
        <ele>7.011</ele>
      </trkpt>
      <trkpt lat="36.78779" lon="28.03297">
        <ele>4.717</ele>
      </trkpt>
      <trkpt lat="36.78773" lon="28.03284">
        <ele>3.131</ele>
      </trkpt>
      <trkpt lat="36.78764" lon="28.03281">
        <ele>5.537</ele>
      </trkpt>
      <trkpt lat="36.78754" lon="28.03276">
        <ele>8.29</ele>
      </trkpt>
      <trkpt lat="36.78745" lon="28.03275">
        <ele>9.991</ele>
      </trkpt>
      <trkpt lat="36.78734" lon="28.03273">
        <ele>10.526</ele>
      </trkpt>
      <trkpt lat="36.7873" lon="28.0327">
        <ele>10.552</ele>
      </trkpt>
      <trkpt lat="36.78717" lon="28.0326">
        <ele>10.765</ele>
      </trkpt>
      <trkpt lat="36.78707" lon="28.03246">
        <ele>10.877</ele>
      </trkpt>
      <trkpt lat="36.78704" lon="28.03239">
        <ele>10.587</ele>
      </trkpt>
      <trkpt lat="36.78698" lon="28.03227">
        <ele>10.188</ele>
      </trkpt>
      <trkpt lat="36.78691" lon="28.03219">
        <ele>10.279</ele>
      </trkpt>
      <trkpt lat="36.78683" lon="28.03202">
        <ele>10.464</ele>
      </trkpt>
      <trkpt lat="36.78679" lon="28.03191">
        <ele>10.637</ele>
      </trkpt>
      <trkpt lat="36.78681" lon="28.03183">
        <ele>10.417</ele>
      </trkpt>
      <trkpt lat="36.78688" lon="28.03164">
        <ele>9.853</ele>
      </trkpt>
      <trkpt lat="36.78695" lon="28.0316">
        <ele>9.399</ele>
      </trkpt>
      <trkpt lat="36.78695" lon="28.03148">
        <ele>10.247</ele>
      </trkpt>
      <trkpt lat="36.78695" lon="28.03147">
        <ele>10.35</ele>
      </trkpt>
      <trkpt lat="36.78695" lon="28.03144">
        <ele>10.643</ele>
      </trkpt>
      <trkpt lat="36.78699" lon="28.03131">
        <ele>10.833</ele>
      </trkpt>
      <trkpt lat="36.78705" lon="28.03125">
        <ele>10.528</ele>
      </trkpt>
      <trkpt lat="36.78715" lon="28.03117">
        <ele>10.15</ele>
      </trkpt>
      <trkpt lat="36.78729" lon="28.03112">
        <ele>9.225</ele>
      </trkpt>
      <trkpt lat="36.78731" lon="28.03108">
        <ele>9.248</ele>
      </trkpt>
      <trkpt lat="36.78735" lon="28.03093">
        <ele>9.564</ele>
      </trkpt>
      <trkpt lat="36.78743" lon="28.03085">
        <ele>9.4</ele>
      </trkpt>
      <trkpt lat="36.78755" lon="28.03082">
        <ele>9.104</ele>
      </trkpt>
      <trkpt lat="36.78767" lon="28.03087">
        <ele>8.77</ele>
      </trkpt>
      <trkpt lat="36.78773" lon="28.03095">
        <ele>8.16</ele>
      </trkpt>
      <trkpt lat="36.7877" lon="28.03082">
        <ele>9.107</ele>
      </trkpt>
      <trkpt lat="36.78773" lon="28.03071">
        <ele>9.917</ele>
      </trkpt>
      <trkpt lat="36.78773" lon="28.03068">
        <ele>10.078</ele>
      </trkpt>
      <trkpt lat="36.78778" lon="28.03067">
        <ele>10.174</ele>
      </trkpt>
      <trkpt lat="36.78791" lon="28.03057">
        <ele>12.831</ele>
      </trkpt>
      <trkpt lat="36.78798" lon="28.03054">
        <ele>14.21</ele>
      </trkpt>
      <trkpt lat="36.78808" lon="28.03046">
        <ele>16.627</ele>
      </trkpt>
      <trkpt lat="36.78817" lon="28.03043">
        <ele>17.966</ele>
      </trkpt>
      <trkpt lat="36.78825" lon="28.0304">
        <ele>19.002</ele>
      </trkpt>
      <trkpt lat="36.78836" lon="28.03037">
        <ele>19.73</ele>
      </trkpt>
      <trkpt lat="36.78847" lon="28.03036">
        <ele>18.755</ele>
      </trkpt>
      <trkpt lat="36.78859" lon="28.03036">
        <ele>17.663</ele>
      </trkpt>
      <trkpt lat="36.78862" lon="28.03034">
        <ele>17.429</ele>
      </trkpt>
      <trkpt lat="36.78868" lon="28.03025">
        <ele>16.386</ele>
      </trkpt>
      <trkpt lat="36.78876" lon="28.03017">
        <ele>14.491</ele>
      </trkpt>
      <trkpt lat="36.7888" lon="28.03006">
        <ele>12.838</ele>
      </trkpt>
      <trkpt lat="36.7888" lon="28.03005">
        <ele>12.729</ele>
      </trkpt>
      <trkpt lat="36.78877" lon="28.02998">
        <ele>13.347</ele>
      </trkpt>
      <trkpt lat="36.78871" lon="28.02986">
        <ele>14.975</ele>
      </trkpt>
      <trkpt lat="36.7887" lon="28.02984">
        <ele>15.202</ele>
      </trkpt>
      <trkpt lat="36.7887" lon="28.02979">
        <ele>15.313</ele>
      </trkpt>
      <trkpt lat="36.78865" lon="28.02964">
        <ele>17.46</ele>
      </trkpt>
      <trkpt lat="36.78864" lon="28.02962">
        <ele>17.886</ele>
      </trkpt>
      <trkpt lat="36.78862" lon="28.02959">
        <ele>18.623</ele>
      </trkpt>
      <trkpt lat="36.7886" lon="28.02945">
        <ele>20.278</ele>
      </trkpt>
      <trkpt lat="36.78864" lon="28.02934">
        <ele>20.931</ele>
      </trkpt>
      <trkpt lat="36.78864" lon="28.02927">
        <ele>22.192</ele>
      </trkpt>
      <trkpt lat="36.78867" lon="28.02922">
        <ele>22.062</ele>
      </trkpt>
      <trkpt lat="36.7887" lon="28.02918">
        <ele>21.456</ele>
      </trkpt>
      <trkpt lat="36.78876" lon="28.02909">
        <ele>20.599</ele>
      </trkpt>
      <trkpt lat="36.78887" lon="28.02898">
        <ele>18.904</ele>
      </trkpt>
      <trkpt lat="36.78894" lon="28.02893">
        <ele>18.368</ele>
      </trkpt>
      <trkpt lat="36.789" lon="28.02884">
        <ele>18.746</ele>
      </trkpt>
      <trkpt lat="36.78902" lon="28.02879">
        <ele>19.286</ele>
      </trkpt>
      <trkpt lat="36.78905" lon="28.02869">
        <ele>20.383</ele>
      </trkpt>
      <trkpt lat="36.7891" lon="28.0286">
        <ele>20.536</ele>
      </trkpt>
      <trkpt lat="36.78918" lon="28.02851">
        <ele>19.124</ele>
      </trkpt>
      <trkpt lat="36.78921" lon="28.02849">
        <ele>18.882</ele>
      </trkpt>
      <trkpt lat="36.78926" lon="28.02841">
        <ele>18.649</ele>
      </trkpt>
      <trkpt lat="36.78927" lon="28.02838">
        <ele>18.599</ele>
      </trkpt>
      <trkpt lat="36.78932" lon="28.02825">
        <ele>18.329</ele>
      </trkpt>
      <trkpt lat="36.78933" lon="28.02824">
        <ele>18.277</ele>
      </trkpt>
      <trkpt lat="36.78937" lon="28.0281">
        <ele>17.757</ele>
      </trkpt>
      <trkpt lat="36.78935" lon="28.02801">
        <ele>17.827</ele>
      </trkpt>
      <trkpt lat="36.78929" lon="28.02795">
        <ele>18.043</ele>
      </trkpt>
      <trkpt lat="36.78926" lon="28.02782">
        <ele>17.571</ele>
      </trkpt>
      <trkpt lat="36.78926" lon="28.02769">
        <ele>17.209</ele>
      </trkpt>
      <trkpt lat="36.78927" lon="28.02766">
        <ele>17.119</ele>
      </trkpt>
      <trkpt lat="36.78935" lon="28.02749">
        <ele>16.081</ele>
      </trkpt>
      <trkpt lat="36.7894" lon="28.02739">
        <ele>15.955</ele>
      </trkpt>
      <trkpt lat="36.78944" lon="28.02733">
        <ele>15.671</ele>
      </trkpt>
      <trkpt lat="36.78948" lon="28.02726">
        <ele>15.795</ele>
      </trkpt>
      <trkpt lat="36.78959" lon="28.02716">
        <ele>15.163</ele>
      </trkpt>
      <trkpt lat="36.78963" lon="28.02707">
        <ele>14.266</ele>
      </trkpt>
      <trkpt lat="36.78967" lon="28.02697">
        <ele>12.924</ele>
      </trkpt>
      <trkpt lat="36.78974" lon="28.0269">
        <ele>11.706</ele>
      </trkpt>
      <trkpt lat="36.78975" lon="28.02686">
        <ele>11.532</ele>
      </trkpt>
      <trkpt lat="36.78978" lon="28.02681">
        <ele>11.264</ele>
      </trkpt>
      <trkpt lat="36.7898" lon="28.02674">
        <ele>10.83</ele>
      </trkpt>
      <trkpt lat="36.78987" lon="28.02661">
        <ele>10.509</ele>
      </trkpt>
      <trkpt lat="36.78992" lon="28.02649">
        <ele>10.443</ele>
      </trkpt>
      <trkpt lat="36.78994" lon="28.02646">
        <ele>10.361</ele>
      </trkpt>
      <trkpt lat="36.79005" lon="28.02634">
        <ele>10.437</ele>
      </trkpt>
      <trkpt lat="36.79015" lon="28.02626">
        <ele>10.789</ele>
      </trkpt>
      <trkpt lat="36.79025" lon="28.0262">
        <ele>10.616</ele>
      </trkpt>
      <trkpt lat="36.79029" lon="28.02616">
        <ele>10.324</ele>
      </trkpt>
      <trkpt lat="36.79033" lon="28.02607">
        <ele>10.06</ele>
      </trkpt>
      <trkpt lat="36.7904" lon="28.02604">
        <ele>9.931</ele>
      </trkpt>
      <trkpt lat="36.79047" lon="28.02594">
        <ele>9.331</ele>
      </trkpt>
      <trkpt lat="36.79055" lon="28.02587">
        <ele>8.333</ele>
      </trkpt>
      <trkpt lat="36.79055" lon="28.02576">
        <ele>8.065</ele>
      </trkpt>
      <trkpt lat="36.79049" lon="28.02571">
        <ele>8.727</ele>
      </trkpt>
      <trkpt lat="36.79044" lon="28.0257">
        <ele>9.27</ele>
      </trkpt>
      <trkpt lat="36.79027" lon="28.02564">
        <ele>11.103</ele>
      </trkpt>
      <trkpt lat="36.79025" lon="28.02556">
        <ele>11.452</ele>
      </trkpt>
      <trkpt lat="36.79022" lon="28.02548">
        <ele>11.567</ele>
      </trkpt>
      <trkpt lat="36.79022" lon="28.02545">
        <ele>11.394</ele>
      </trkpt>
      <trkpt lat="36.79023" lon="28.0253">
        <ele>10.606</ele>
      </trkpt>
      <trkpt lat="36.79028" lon="28.02514">
        <ele>9.028</ele>
      </trkpt>
      <trkpt lat="36.79032" lon="28.02505">
        <ele>7.327</ele>
      </trkpt>
      <trkpt lat="36.79032" lon="28.02498">
        <ele>6.657</ele>
      </trkpt>
      <trkpt lat="36.79032" lon="28.02497">
        <ele>6.551</ele>
      </trkpt>
      <trkpt lat="36.7903" lon="28.02491">
        <ele>6.571</ele>
      </trkpt>
      <trkpt lat="36.79024" lon="28.02476">
        <ele>5.833</ele>
      </trkpt>
      <trkpt lat="36.79024" lon="28.02471">
        <ele>5.394</ele>
      </trkpt>
      <trkpt lat="36.79025" lon="28.02454">
        <ele>4.667</ele>
      </trkpt>
      <trkpt lat="36.79025" lon="28.02438">
        <ele>4.814</ele>
      </trkpt>
      <trkpt lat="36.7903" lon="28.02419">
        <ele>5.634</ele>
      </trkpt>
      <trkpt lat="36.79029" lon="28.0242">
        <ele>5.656</ele>
      </trkpt>
      <trkpt lat="36.79032" lon="28.02416">
        <ele>5.665</ele>
      </trkpt>
      <trkpt lat="36.7904" lon="28.02403">
        <ele>5.155</ele>
      </trkpt>
      <trkpt lat="36.79042" lon="28.024">
        <ele>5.005</ele>
      </trkpt>
      <trkpt lat="36.79049" lon="28.02393">
        <ele>4.455</ele>
      </trkpt>
      <trkpt lat="36.79055" lon="28.02384">
        <ele>4.073</ele>
      </trkpt>
      <trkpt lat="36.79055" lon="28.02372">
        <ele>4.022</ele>
      </trkpt>
      <trkpt lat="36.7905" lon="28.02368">
        <ele>4.386</ele>
      </trkpt>
      <trkpt lat="36.79047" lon="28.02365">
        <ele>4.592</ele>
      </trkpt>
      <trkpt lat="36.79042" lon="28.02363">
        <ele>4.957</ele>
      </trkpt>
      <trkpt lat="36.79029" lon="28.02361">
        <ele>5.915</ele>
      </trkpt>
      <trkpt lat="36.79025" lon="28.02368">
        <ele>6.026</ele>
      </trkpt>
      <trkpt lat="36.79017" lon="28.02368">
        <ele>6.099</ele>
      </trkpt>
      <trkpt lat="36.79013" lon="28.02366">
        <ele>6.097</ele>
      </trkpt>
      <trkpt lat="36.78998" lon="28.02359">
        <ele>5.801</ele>
      </trkpt>
      <trkpt lat="36.78987" lon="28.02363">
        <ele>5.662</ele>
      </trkpt>
      <trkpt lat="36.7898" lon="28.02372">
        <ele>5.971</ele>
      </trkpt>
      <trkpt lat="36.78973" lon="28.02378">
        <ele>6.236</ele>
      </trkpt>
      <trkpt lat="36.78965" lon="28.02382">
        <ele>7.024</ele>
      </trkpt>
      <trkpt lat="36.78965" lon="28.02381">
        <ele>6.914</ele>
      </trkpt>
      <trkpt lat="36.78962" lon="28.02382">
        <ele>7.229</ele>
      </trkpt>
      <trkpt lat="36.78945" lon="28.02382">
        <ele>8.517</ele>
      </trkpt>
      <trkpt lat="36.78931" lon="28.02378">
        <ele>8.39</ele>
      </trkpt>
      <trkpt lat="36.78916" lon="28.0237">
        <ele>7.223</ele>
      </trkpt>
      <trkpt lat="36.78912" lon="28.02358">
        <ele>5.285</ele>
      </trkpt>
      <trkpt lat="36.78912" lon="28.02347">
        <ele>3.754</ele>
      </trkpt>
      <trkpt lat="36.78912" lon="28.02344">
        <ele>3.282</ele>
      </trkpt>
      <trkpt lat="36.78898" lon="28.0234">
        <ele>5.347</ele>
      </trkpt>
      <trkpt lat="36.78886" lon="28.02336">
        <ele>6.67</ele>
      </trkpt>
      <trkpt lat="36.78882" lon="28.02333">
        <ele>6.745</ele>
      </trkpt>
      <trkpt lat="36.78873" lon="28.02324">
        <ele>7.079</ele>
      </trkpt>
      <trkpt lat="36.78873" lon="28.02323">
        <ele>7.065</ele>
      </trkpt>
      <trkpt lat="36.7887" lon="28.0232">
        <ele>7.205</ele>
      </trkpt>
      <trkpt lat="36.78867" lon="28.02313">
        <ele>7.389</ele>
      </trkpt>
      <trkpt lat="36.78873" lon="28.02305">
        <ele>5.896</ele>
      </trkpt>
      <trkpt lat="36.78878" lon="28.02296">
        <ele>4.942</ele>
      </trkpt>
      <trkpt lat="36.78876" lon="28.02275">
        <ele>5.567</ele>
      </trkpt>
      <trkpt lat="36.78878" lon="28.02256">
        <ele>6.515</ele>
      </trkpt>
      <trkpt lat="36.78879" lon="28.02243">
        <ele>7.679</ele>
      </trkpt>
      <trkpt lat="36.78879" lon="28.0224">
        <ele>8.085</ele>
      </trkpt>
      <trkpt lat="36.78889" lon="28.02231">
        <ele>7.761</ele>
      </trkpt>
      <trkpt lat="36.78892" lon="28.02223">
        <ele>8.593</ele>
      </trkpt>
      <trkpt lat="36.78893" lon="28.02222">
        <ele>8.519</ele>
      </trkpt>
      <trkpt lat="36.78905" lon="28.02223">
        <ele>7.224</ele>
      </trkpt>
      <trkpt lat="36.78906" lon="28.02222">
        <ele>7.149</ele>
      </trkpt>
      <trkpt lat="36.78914" lon="28.0222">
        <ele>6.633</ele>
      </trkpt>
      <trkpt lat="36.78914" lon="28.0222">
        <ele>6.603</ele>
      </trkpt>
      <trkpt lat="36.78918" lon="28.02216">
        <ele>6.334</ele>
      </trkpt>
      <trkpt lat="36.7893" lon="28.02213">
        <ele>3.595</ele>
      </trkpt>
      <trkpt lat="36.78941" lon="28.02207">
        <ele>0.876</ele>
      </trkpt>
      <trkpt lat="36.78941" lon="28.02207">
        <ele>0.949</ele>
      </trkpt>
      <trkpt lat="36.7894" lon="28.02205">
        <ele>1.2</ele>
      </trkpt>
      <trkpt lat="36.7894" lon="28.02206">
        <ele>1.126</ele>
      </trkpt>
      <trkpt lat="36.78945" lon="28.02202">
        <ele>6</ele>
      </trkpt>
      <trkpt lat="36.78956" lon="28.0219">
        <ele>7.1</ele>
      </trkpt>
      <trkpt lat="36.78962" lon="28.02176">
        <ele>8.2</ele>
      </trkpt>
      <trkpt lat="36.78961" lon="28.02169">
        <ele>8.8</ele>
      </trkpt>
      <trkpt lat="36.7896" lon="28.0217">
        <ele>8.7</ele>
      </trkpt>
      <trkpt lat="36.78959" lon="28.02166">
        <ele>9</ele>
      </trkpt>
      <trkpt lat="36.78957" lon="28.02166">
        <ele>9</ele>
      </trkpt>
      <trkpt lat="36.78946" lon="28.02153">
        <ele>9.1</ele>
      </trkpt>
      <trkpt lat="36.78943" lon="28.02148">
        <ele>0.368</ele>
      </trkpt>
      <trkpt lat="36.7894" lon="28.02145">
        <ele>1.563</ele>
      </trkpt>
      <trkpt lat="36.78938" lon="28.02143">
        <ele>2.234</ele>
      </trkpt>
      <trkpt lat="36.78937" lon="28.02136">
        <ele>2.573</ele>
      </trkpt>
      <trkpt lat="36.78938" lon="28.02132">
        <ele>2.76</ele>
      </trkpt>
      <trkpt lat="36.78937" lon="28.02114">
        <ele>5.152</ele>
      </trkpt>
      <trkpt lat="36.78935" lon="28.02096">
        <ele>8.147</ele>
      </trkpt>
      <trkpt lat="36.7894" lon="28.02086">
        <ele>9.564</ele>
      </trkpt>
      <trkpt lat="36.78948" lon="28.02083">
        <ele>9.868</ele>
      </trkpt>
      <trkpt lat="36.78957" lon="28.02083">
        <ele>9.164</ele>
      </trkpt>
      <trkpt lat="36.78975" lon="28.02084">
        <ele>7.443</ele>
      </trkpt>
      <trkpt lat="36.78994" lon="28.02081">
        <ele>5.972</ele>
      </trkpt>
      <trkpt lat="36.79006" lon="28.02077">
        <ele>6.369</ele>
      </trkpt>
      <trkpt lat="36.79012" lon="28.02065">
        <ele>8.05</ele>
      </trkpt>
      <trkpt lat="36.79013" lon="28.02057">
        <ele>8.913</ele>
      </trkpt>
      <trkpt lat="36.79015" lon="28.02054">
        <ele>9.18</ele>
      </trkpt>
      <trkpt lat="36.79017" lon="28.02043">
        <ele>10.719</ele>
      </trkpt>
      <trkpt lat="36.79016" lon="28.02039">
        <ele>11.311</ele>
      </trkpt>
      <trkpt lat="36.79019" lon="28.02014">
        <ele>14.12</ele>
      </trkpt>
      <trkpt lat="36.79019" lon="28.02005">
        <ele>14.984</ele>
      </trkpt>
      <trkpt lat="36.79022" lon="28.0199">
        <ele>15.876</ele>
      </trkpt>
      <trkpt lat="36.79022" lon="28.01988">
        <ele>16.196</ele>
      </trkpt>
      <trkpt lat="36.79027" lon="28.0197">
        <ele>16.184</ele>
      </trkpt>
      <trkpt lat="36.79026" lon="28.01954">
        <ele>16.417</ele>
      </trkpt>
      <trkpt lat="36.79025" lon="28.01941">
        <ele>16.74</ele>
      </trkpt>
      <trkpt lat="36.79024" lon="28.0193">
        <ele>16.958</ele>
      </trkpt>
      <trkpt lat="36.79023" lon="28.01924">
        <ele>17.194</ele>
      </trkpt>
      <trkpt lat="36.79019" lon="28.01907">
        <ele>17.778</ele>
      </trkpt>
      <trkpt lat="36.79013" lon="28.01889">
        <ele>17.634</ele>
      </trkpt>
      <trkpt lat="36.79013" lon="28.0188">
        <ele>18.43</ele>
      </trkpt>
      <trkpt lat="36.79012" lon="28.01873">
        <ele>19.088</ele>
      </trkpt>
      <trkpt lat="36.79007" lon="28.01856">
        <ele>20.849</ele>
      </trkpt>
      <trkpt lat="36.79011" lon="28.01843">
        <ele>23.631</ele>
      </trkpt>
      <trkpt lat="36.79012" lon="28.01828">
        <ele>25.97</ele>
      </trkpt>
      <trkpt lat="36.79009" lon="28.01823">
        <ele>25.864</ele>
      </trkpt>
      <trkpt lat="36.79013" lon="28.01815">
        <ele>26.85</ele>
      </trkpt>
      <trkpt lat="36.79014" lon="28.01813">
        <ele>27.16</ele>
      </trkpt>
      <trkpt lat="36.79014" lon="28.01813">
        <ele>27.105</ele>
      </trkpt>
      <trkpt lat="36.79008" lon="28.01812">
        <ele>26.495</ele>
      </trkpt>
      <trkpt lat="36.79009" lon="28.01801">
        <ele>26.896</ele>
      </trkpt>
      <trkpt lat="36.79011" lon="28.01792">
        <ele>26.788</ele>
      </trkpt>
      <trkpt lat="36.79014" lon="28.01789">
        <ele>26.927</ele>
      </trkpt>
      <trkpt lat="36.79008" lon="28.01776">
        <ele>26.132</ele>
      </trkpt>
      <trkpt lat="36.79004" lon="28.01766">
        <ele>25.203</ele>
      </trkpt>
      <trkpt lat="36.78999" lon="28.01753">
        <ele>24.302</ele>
      </trkpt>
      <trkpt lat="36.78996" lon="28.01743">
        <ele>23.21</ele>
      </trkpt>
      <trkpt lat="36.78994" lon="28.01728">
        <ele>21.153</ele>
      </trkpt>
      <trkpt lat="36.78987" lon="28.01721">
        <ele>21.866</ele>
      </trkpt>
      <trkpt lat="36.78987" lon="28.01705">
        <ele>21.556</ele>
      </trkpt>
      <trkpt lat="36.78986" lon="28.01691">
        <ele>21.334</ele>
      </trkpt>
      <trkpt lat="36.78988" lon="28.01676">
        <ele>20.07</ele>
      </trkpt>
      <trkpt lat="36.78986" lon="28.01661">
        <ele>19.142</ele>
      </trkpt>
      <trkpt lat="36.78988" lon="28.01652">
        <ele>17.272</ele>
      </trkpt>
      <trkpt lat="36.78987" lon="28.01643">
        <ele>16.053</ele>
      </trkpt>
      <trkpt lat="36.78988" lon="28.01633">
        <ele>14.063</ele>
      </trkpt>
      <trkpt lat="36.7899" lon="28.01628">
        <ele>13.066</ele>
      </trkpt>
      <trkpt lat="36.78992" lon="28.01616">
        <ele>10.586</ele>
      </trkpt>
      <trkpt lat="36.7899" lon="28.01598">
        <ele>9.409</ele>
      </trkpt>
      <trkpt lat="36.78987" lon="28.0159">
        <ele>9.333</ele>
      </trkpt>
      <trkpt lat="36.78987" lon="28.0158">
        <ele>8.723</ele>
      </trkpt>
      <trkpt lat="36.78987" lon="28.01578">
        <ele>8.566</ele>
      </trkpt>
      <trkpt lat="36.78984" lon="28.0156">
        <ele>7.332</ele>
      </trkpt>
      <trkpt lat="36.78981" lon="28.0155">
        <ele>6.59</ele>
      </trkpt>
      <trkpt lat="36.78974" lon="28.01544">
        <ele>6.194</ele>
      </trkpt>
      <trkpt lat="36.78973" lon="28.01544">
        <ele>6.199</ele>
      </trkpt>
      <trkpt lat="36.78962" lon="28.01543">
        <ele>6.686</ele>
      </trkpt>
      <trkpt lat="36.78961" lon="28.01543">
        <ele>6.742</ele>
      </trkpt>
      <trkpt lat="36.78953" lon="28.01546">
        <ele>7.482</ele>
      </trkpt>
      <trkpt lat="36.78952" lon="28.01546">
        <ele>7.576</ele>
      </trkpt>
      <trkpt lat="36.78948" lon="28.01547">
        <ele>7.857</ele>
      </trkpt>
      <trkpt lat="36.78945" lon="28.01547">
        <ele>8.084</ele>
      </trkpt>
      <trkpt lat="36.78938" lon="28.01547">
        <ele>8.626</ele>
      </trkpt>
      <trkpt lat="36.7893" lon="28.01545">
        <ele>9.052</ele>
      </trkpt>
      <trkpt lat="36.78925" lon="28.01535">
        <ele>8.713</ele>
      </trkpt>
      <trkpt lat="36.7892" lon="28.01521">
        <ele>8.564</ele>
      </trkpt>
      <trkpt lat="36.78917" lon="28.01519">
        <ele>8.96</ele>
      </trkpt>
      <trkpt lat="36.78914" lon="28.01511">
        <ele>9.536</ele>
      </trkpt>
      <trkpt lat="36.78907" lon="28.01496">
        <ele>10.563</ele>
      </trkpt>
      <trkpt lat="36.78905" lon="28.01495">
        <ele>11.001</ele>
      </trkpt>
      <trkpt lat="36.789" lon="28.01493">
        <ele>11.776</ele>
      </trkpt>
      <trkpt lat="36.78896" lon="28.01492">
        <ele>12.516</ele>
      </trkpt>
      <trkpt lat="36.78891" lon="28.01492">
        <ele>13.272</ele>
      </trkpt>
      <trkpt lat="36.78875" lon="28.01485">
        <ele>15.059</ele>
      </trkpt>
      <trkpt lat="36.78868" lon="28.01479">
        <ele>15.641</ele>
      </trkpt>
      <trkpt lat="36.78867" lon="28.01478">
        <ele>15.694</ele>
      </trkpt>
      <trkpt lat="36.78866" lon="28.01463">
        <ele>15.886</ele>
      </trkpt>
      <trkpt lat="36.78871" lon="28.0145">
        <ele>15.928</ele>
      </trkpt>
      <trkpt lat="36.78866" lon="28.0144">
        <ele>15.971</ele>
      </trkpt>
      <trkpt lat="36.78866" lon="28.01438">
        <ele>15.964</ele>
      </trkpt>
      <trkpt lat="36.78869" lon="28.01425">
        <ele>15.808</ele>
      </trkpt>
      <trkpt lat="36.78874" lon="28.01415">
        <ele>15.539</ele>
      </trkpt>
      <trkpt lat="36.78878" lon="28.01399">
        <ele>15.384</ele>
      </trkpt>
      <trkpt lat="36.78881" lon="28.01394">
        <ele>15.297</ele>
      </trkpt>
      <trkpt lat="36.7888" lon="28.01382">
        <ele>15.495</ele>
      </trkpt>
      <trkpt lat="36.78882" lon="28.01368">
        <ele>15.663</ele>
      </trkpt>
      <trkpt lat="36.78882" lon="28.01367">
        <ele>15.68</ele>
      </trkpt>
      <trkpt lat="36.7889" lon="28.01359">
        <ele>14.594</ele>
      </trkpt>
      <trkpt lat="36.78894" lon="28.01346">
        <ele>12.874</ele>
      </trkpt>
      <trkpt lat="36.78896" lon="28.01343">
        <ele>12.451</ele>
      </trkpt>
      <trkpt lat="36.78899" lon="28.01336">
        <ele>11.579</ele>
      </trkpt>
      <trkpt lat="36.78895" lon="28.0133">
        <ele>11.471</ele>
      </trkpt>
      <trkpt lat="36.78893" lon="28.01326">
        <ele>11.516</ele>
      </trkpt>
      <trkpt lat="36.78893" lon="28.01325">
        <ele>11.514</ele>
      </trkpt>
      <trkpt lat="36.78896" lon="28.0132">
        <ele>11.265</ele>
      </trkpt>
      <trkpt lat="36.78894" lon="28.01314">
        <ele>11.204</ele>
      </trkpt>
      <trkpt lat="36.78883" lon="28.01303">
        <ele>11.728</ele>
      </trkpt>
      <trkpt lat="36.7888" lon="28.01292">
        <ele>11.314</ele>
      </trkpt>
      <trkpt lat="36.78885" lon="28.01288">
        <ele>10.367</ele>
      </trkpt>
      <trkpt lat="36.7889" lon="28.0127">
        <ele>9.3</ele>
      </trkpt>
      <trkpt lat="36.78895" lon="28.0126">
        <ele>9.657</ele>
      </trkpt>
      <trkpt lat="36.78894" lon="28.01258">
        <ele>9.688</ele>
      </trkpt>
      <trkpt lat="36.78888" lon="28.0124">
        <ele>10.045</ele>
      </trkpt>
      <trkpt lat="36.78882" lon="28.01224">
        <ele>10.704</ele>
      </trkpt>
      <trkpt lat="36.78874" lon="28.01199">
        <ele>11.638</ele>
      </trkpt>
      <trkpt lat="36.78877" lon="28.0118">
        <ele>12.228</ele>
        <time>2018-05-11T14:57:30Z</time>
      </trkpt>
      <trkpt lat="36.7888" lon="28.01177">
        <ele>12.022</ele>
        <time>2018-05-11T14:57:29Z</time>
      </trkpt>
      <trkpt lat="36.78902" lon="28.01136">
        <ele>10.86</ele>
        <time>2018-05-11T14:57:19Z</time>
      </trkpt>
      <trkpt lat="36.78902" lon="28.01131">
        <ele>11.164</ele>
        <time>2018-05-11T14:57:18Z</time>
      </trkpt>
      <trkpt lat="36.78902" lon="28.01125">
        <ele>11.442</ele>
        <time>2018-05-11T14:57:17Z</time>
      </trkpt>
      <trkpt lat="36.78903" lon="28.01119">
        <ele>11.557</ele>
        <time>2018-05-11T14:57:16Z</time>
      </trkpt>
      <trkpt lat="36.78904" lon="28.01115">
        <ele>11.688</ele>
        <time>2018-05-11T14:57:15Z</time>
      </trkpt>
      <trkpt lat="36.78905" lon="28.01111">
        <ele>11.714</ele>
        <time>2018-05-11T14:57:14Z</time>
      </trkpt>
      <trkpt lat="36.78907" lon="28.01108">
        <ele>11.488</ele>
        <time>2018-05-11T14:57:13Z</time>
      </trkpt>
      <trkpt lat="36.78909" lon="28.01105">
        <ele>11.256</ele>
        <time>2018-05-11T14:57:12Z</time>
      </trkpt>
      <trkpt lat="36.78912" lon="28.01103">
        <ele>10.932</ele>
        <time>2018-05-11T14:57:11Z</time>
      </trkpt>
      <trkpt lat="36.78915" lon="28.01101">
        <ele>10.549</ele>
        <time>2018-05-11T14:57:10Z</time>
      </trkpt>
      <trkpt lat="36.78919" lon="28.01099">
        <ele>10.321</ele>
        <time>2018-05-11T14:57:09Z</time>
      </trkpt>
      <trkpt lat="36.78922" lon="28.01098">
        <ele>10.192</ele>
        <time>2018-05-11T14:57:08Z</time>
      </trkpt>
      <trkpt lat="36.78924" lon="28.01098">
        <ele>10.069</ele>
        <time>2018-05-11T14:57:07Z</time>
      </trkpt>
      <trkpt lat="36.78927" lon="28.01097">
        <ele>9.928</ele>
        <time>2018-05-11T14:57:06Z</time>
      </trkpt>
      <trkpt lat="36.7893" lon="28.01097">
        <ele>9.806</ele>
        <time>2018-05-11T14:57:05Z</time>
      </trkpt>
      <trkpt lat="36.78939" lon="28.01102">
        <ele>8.943</ele>
        <time>2018-05-11T14:57:00Z</time>
      </trkpt>
      <trkpt lat="36.78978" lon="28.01139">
        <ele>4.189</ele>
        <time>2018-05-11T14:56:48Z</time>
      </trkpt>
      <trkpt lat="36.79013" lon="28.01167">
        <ele>3.424</ele>
        <time>2018-05-11T14:56:37Z</time>
      </trkpt>
      <trkpt lat="36.79037" lon="28.01178">
        <ele>5.572</ele>
        <time>2018-05-11T14:56:25Z</time>
      </trkpt>
      <trkpt lat="36.79063" lon="28.01188">
        <ele>8.075</ele>
        <time>2018-05-11T14:56:14Z</time>
      </trkpt>
      <trkpt lat="36.79083" lon="28.01154">
        <ele>12.953</ele>
        <time>2018-05-11T14:55:58Z</time>
      </trkpt>
      <trkpt lat="36.79093" lon="28.01132">
        <ele>14.53</ele>
        <time>2018-05-11T14:55:45Z</time>
      </trkpt>
      <trkpt lat="36.79112" lon="28.01096">
        <ele>17.619</ele>
        <time>2018-05-11T14:55:30Z</time>
      </trkpt>
      <trkpt lat="36.79122" lon="28.01084">
        <ele>19.283</ele>
        <time>2018-05-11T14:55:23Z</time>
      </trkpt>
      <trkpt lat="36.79137" lon="28.01065">
        <ele>23.333</ele>
        <time>2018-05-11T14:55:14Z</time>
      </trkpt>
      <trkpt lat="36.7916" lon="28.01039">
        <ele>27.536</ele>
        <time>2018-05-11T14:55:01Z</time>
      </trkpt>
      <trkpt lat="36.79167" lon="28.01024">
        <ele>27.919</ele>
        <time>2018-05-11T14:54:53Z</time>
      </trkpt>
      <trkpt lat="36.79171" lon="28.01">
        <ele>26.806</ele>
        <time>2018-05-11T14:54:45Z</time>
      </trkpt>
      <trkpt lat="36.79171" lon="28.00965">
        <ele>24</ele>
        <time>2018-05-11T14:54:31Z</time>
      </trkpt>
      <trkpt lat="36.79179" lon="28.00921">
        <ele>20.541</ele>
        <time>2018-05-11T14:54:15Z</time>
      </trkpt>
      <trkpt lat="36.79179" lon="28.00893">
        <ele>18.117</ele>
        <time>2018-05-11T14:54:04Z</time>
      </trkpt>
      <trkpt lat="36.79178" lon="28.0087">
        <ele>16.193</ele>
        <time>2018-05-11T14:53:55Z</time>
      </trkpt>
      <trkpt lat="36.7918" lon="28.00835">
        <ele>13.682</ele>
        <time>2018-05-11T14:53:41Z</time>
      </trkpt>
      <trkpt lat="36.79194" lon="28.00808">
        <ele>12.091</ele>
        <time>2018-05-11T14:53:28Z</time>
      </trkpt>
      <trkpt lat="36.79193" lon="28.00766">
        <ele>10.989</ele>
        <time>2018-05-11T14:53:11Z</time>
      </trkpt>
      <trkpt lat="36.79186" lon="28.00729">
        <ele>9.748</ele>
        <time>2018-05-11T14:52:52Z</time>
      </trkpt>
      <trkpt lat="36.79187" lon="28.00723">
        <ele>9.364</ele>
        <time>2018-05-11T14:52:48Z</time>
      </trkpt>
      <trkpt lat="36.7919" lon="28.00714">
        <ele>8.164</ele>
        <time>2018-05-11T14:47:25Z</time>
      </trkpt>
      <trkpt lat="36.79194" lon="28.00699">
        <ele>6.344</ele>
        <time>2018-05-11T14:47:09Z</time>
      </trkpt>
      <trkpt lat="36.79197" lon="28.00678">
        <ele>6.513</ele>
        <time>2018-05-11T14:46:54Z</time>
      </trkpt>
      <trkpt lat="36.79199" lon="28.00675">
        <ele>6.573</ele>
        <time>2018-05-11T14:46:52Z</time>
      </trkpt>
      <trkpt lat="36.79212" lon="28.00659">
        <ele>6.923</ele>
        <time>2018-05-11T14:46:41Z</time>
      </trkpt>
      <trkpt lat="36.79215" lon="28.00655">
        <ele>7.109</ele>
        <time>2018-05-11T14:46:37Z</time>
      </trkpt>
      <trkpt lat="36.79225" lon="28.00638">
        <ele>8.063</ele>
        <time>2018-05-11T14:46:22Z</time>
      </trkpt>
      <trkpt lat="36.79235" lon="28.00616">
        <ele>8.913</ele>
        <time>2018-05-11T14:46:08Z</time>
      </trkpt>
      <trkpt lat="36.79236" lon="28.00611">
        <ele>9.015</ele>
        <time>2018-05-11T14:46:04Z</time>
      </trkpt>
      <trkpt lat="36.7924" lon="28.00602">
        <ele>8.731</ele>
        <time>2018-05-11T14:45:56Z</time>
      </trkpt>
      <trkpt lat="36.79249" lon="28.00578">
        <ele>8.262</ele>
        <time>2018-05-11T14:45:41Z</time>
      </trkpt>
      <trkpt lat="36.79251" lon="28.0057">
        <ele>8.498</ele>
        <time>2018-05-11T14:45:35Z</time>
      </trkpt>
      <trkpt lat="36.79257" lon="28.00549">
        <ele>9.812</ele>
        <time>2018-05-11T14:45:20Z</time>
      </trkpt>
      <trkpt lat="36.79266" lon="28.00529">
        <ele>11.343</ele>
        <time>2018-05-11T14:45:06Z</time>
      </trkpt>
      <trkpt lat="36.7927" lon="28.00525">
        <ele>11.611</ele>
        <time>2018-05-11T14:45:02Z</time>
      </trkpt>
      <trkpt lat="36.79271" lon="28.00525">
        <ele>11.587</ele>
        <time>2018-05-11T14:45:01Z</time>
      </trkpt>
      <trkpt lat="36.79293" lon="28.00524">
        <ele>12.237</ele>
        <time>2018-05-11T14:44:45Z</time>
      </trkpt>
      <trkpt lat="36.79319" lon="28.00529">
        <ele>13.958</ele>
        <time>2018-05-11T14:44:28Z</time>
      </trkpt>
      <trkpt lat="36.7934" lon="28.00524">
        <ele>15.552</ele>
        <time>2018-05-11T14:44:12Z</time>
      </trkpt>
      <trkpt lat="36.79359" lon="28.00519">
        <ele>17.424</ele>
        <time>2018-05-11T14:43:56Z</time>
      </trkpt>
      <trkpt lat="36.79381" lon="28.00516">
        <ele>21.858</ele>
        <time>2018-05-11T14:43:39Z</time>
      </trkpt>
      <trkpt lat="36.79402" lon="28.00499">
        <ele>28.016</ele>
        <time>2018-05-11T14:43:21Z</time>
      </trkpt>
      <trkpt lat="36.79405" lon="28.00488">
        <ele>30.087</ele>
        <time>2018-05-11T14:43:13Z</time>
      </trkpt>
      <trkpt lat="36.79405" lon="28.00482">
        <ele>30.703</ele>
        <time>2018-05-11T14:31:59Z</time>
      </trkpt>
      <trkpt lat="36.79399" lon="28.00466">
        <ele>31.1</ele>
        <time>2018-05-11T14:31:48Z</time>
      </trkpt>
      <trkpt lat="36.79394" lon="28.00459">
        <ele>30.616</ele>
        <time>2018-05-11T14:31:41Z</time>
      </trkpt>
      <trkpt lat="36.79391" lon="28.00449">
        <ele>30.988</ele>
        <time>2018-05-11T14:31:34Z</time>
      </trkpt>
      <trkpt lat="36.79388" lon="28.00422">
        <ele>33.164</ele>
        <time>2018-05-11T14:31:17Z</time>
      </trkpt>
      <trkpt lat="36.79392" lon="28.00395">
        <ele>35.887</ele>
        <time>2018-05-11T14:31:02Z</time>
      </trkpt>
      <trkpt lat="36.79391" lon="28.00362">
        <ele>38.723</ele>
        <time>2018-05-11T14:30:44Z</time>
      </trkpt>
      <trkpt lat="36.79391" lon="28.00359">
        <ele>38.905</ele>
        <time>2018-05-11T14:30:42Z</time>
      </trkpt>
      <trkpt lat="36.79395" lon="28.00352">
        <ele>38.892</ele>
        <time>2018-05-11T14:30:35Z</time>
      </trkpt>
      <trkpt lat="36.79399" lon="28.00351">
        <ele>38.338</ele>
        <time>2018-05-11T14:30:31Z</time>
      </trkpt>
      <trkpt lat="36.79419" lon="28.00358">
        <ele>35.893</ele>
        <time>2018-05-11T14:30:13Z</time>
      </trkpt>
      <trkpt lat="36.79428" lon="28.00359">
        <ele>35.443</ele>
        <time>2018-05-11T14:30:06Z</time>
      </trkpt>
      <trkpt lat="36.79438" lon="28.00344">
        <ele>33.333</ele>
        <time>2018-05-11T14:29:53Z</time>
      </trkpt>
      <trkpt lat="36.7945" lon="28.00328">
        <ele>30.675</ele>
        <time>2018-05-11T14:29:38Z</time>
      </trkpt>
      <trkpt lat="36.79453" lon="28.0032">
        <ele>29.918</ele>
        <time>2018-05-11T14:29:33Z</time>
      </trkpt>
      <trkpt lat="36.79453" lon="28.00315">
        <ele>29.196</ele>
        <time>2018-05-11T14:29:29Z</time>
      </trkpt>
      <trkpt lat="36.79451" lon="28.00301">
        <ele>27.339</ele>
        <time>2018-05-11T14:29:20Z</time>
      </trkpt>
      <trkpt lat="36.79446" lon="28.00277">
        <ele>23.813</ele>
        <time>2018-05-11T14:29:05Z</time>
      </trkpt>
      <trkpt lat="36.79442" lon="28.00253">
        <ele>21.422</ele>
        <time>2018-05-11T14:28:49Z</time>
      </trkpt>
      <trkpt lat="36.79442" lon="28.00252">
        <ele>21.242</ele>
        <time>2018-05-11T14:28:48Z</time>
      </trkpt>
      <trkpt lat="36.79436" lon="28.0022">
        <ele>18.689</ele>
        <time>2018-05-11T14:28:29Z</time>
      </trkpt>
      <trkpt lat="36.79439" lon="28.002">
        <ele>15.262</ele>
        <time>2018-05-11T14:28:15Z</time>
      </trkpt>
      <trkpt lat="36.79449" lon="28.00173">
        <ele>10.276</ele>
        <time>2018-05-11T14:27:58Z</time>
      </trkpt>
      <trkpt lat="36.79449" lon="28.00168">
        <ele>9.78</ele>
        <time>2018-05-11T14:27:55Z</time>
      </trkpt>
      <trkpt lat="36.79441" lon="28.00147">
        <ele>9.807</ele>
        <time>2018-05-11T14:27:40Z</time>
      </trkpt>
      <trkpt lat="36.79427" lon="28.00117">
        <ele>9.372</ele>
        <time>2018-05-11T14:27:22Z</time>
      </trkpt>
      <trkpt lat="36.79422" lon="28.00104">
        <ele>8.896</ele>
        <time>2018-05-11T14:27:13Z</time>
      </trkpt>
      <trkpt lat="36.79436" lon="28.00111">
        <ele>7.938</ele>
        <time>2018-05-11T14:27:02Z</time>
      </trkpt>
      <trkpt lat="36.79445" lon="28.00114">
        <ele>7.173</ele>
        <time>2018-05-11T14:26:56Z</time>
      </trkpt>
      <trkpt lat="36.79477" lon="28.00123">
        <ele>6.516</ele>
        <time>2018-05-11T14:26:33Z</time>
      </trkpt>
      <trkpt lat="36.79513" lon="28.00129">
        <ele>3.718</ele>
        <time>2018-05-11T14:26:07Z</time>
      </trkpt>
      <trkpt lat="36.79528" lon="28.0013">
        <ele>5</ele>
        <time>2018-05-11T14:25:54Z</time>
      </trkpt>
      <trkpt lat="36.7953" lon="28.00125">
        <ele>4.9</ele>
        <time>2018-05-11T14:25:50Z</time>
      </trkpt>
      <trkpt lat="36.79531" lon="28.00093">
        <ele>5</ele>
        <time>2018-05-11T14:25:31Z</time>
      </trkpt>
      <trkpt lat="36.79543" lon="28.00059">
        <ele>5.6</ele>
        <time>2018-05-11T14:25:06Z</time>
      </trkpt>
      <trkpt lat="36.79549" lon="28.00033">
        <ele>3.512</ele>
        <time>2018-05-11T14:24:46Z</time>
      </trkpt>
      <trkpt lat="36.79557" lon="28.00011">
        <ele>3.481</ele>
        <time>2018-05-11T14:24:31Z</time>
      </trkpt>
      <trkpt lat="36.79563" lon="27.99996">
        <ele>3.599</ele>
        <time>2018-05-11T14:24:18Z</time>
      </trkpt>
      <trkpt lat="36.79573" lon="27.99968">
        <ele>4.842</ele>
        <time>2018-05-11T14:23:59Z</time>
      </trkpt>
      <trkpt lat="36.79585" lon="27.99955">
        <ele>5.712</ele>
        <time>2018-05-11T14:23:47Z</time>
      </trkpt>
      <trkpt lat="36.79592" lon="27.99946">
        <ele>6.282</ele>
        <time>2018-05-11T14:23:39Z</time>
      </trkpt>
      <trkpt lat="36.79596" lon="27.9994">
        <ele>6.542</ele>
        <time>2018-05-11T14:23:34Z</time>
      </trkpt>
      <trkpt lat="36.79603" lon="27.99925">
        <ele>6.917</ele>
        <time>2018-05-11T14:23:20Z</time>
      </trkpt>
      <trkpt lat="36.79618" lon="27.99915">
        <ele>7.051</ele>
        <time>2018-05-11T14:23:05Z</time>
      </trkpt>
      <trkpt lat="36.79618" lon="27.99913">
        <ele>7.14</ele>
        <time>2018-05-11T14:23:03Z</time>
      </trkpt>
      <trkpt lat="36.79627" lon="27.99907">
        <ele>7.365</ele>
        <time>2018-05-11T14:22:56Z</time>
      </trkpt>
      <trkpt lat="36.79644" lon="27.99894">
        <ele>8.211</ele>
        <time>2018-05-11T14:22:42Z</time>
      </trkpt>
      <trkpt lat="36.79653" lon="27.99874">
        <ele>8.455</ele>
        <time>2018-05-11T14:22:30Z</time>
      </trkpt>
      <trkpt lat="36.79666" lon="27.99857">
        <ele>8.927</ele>
        <time>2018-05-11T14:22:14Z</time>
      </trkpt>
      <trkpt lat="36.79671" lon="27.9984">
        <ele>9.439</ele>
        <time>2018-05-11T14:22:02Z</time>
      </trkpt>
      <trkpt lat="36.79673" lon="27.99833">
        <ele>9.719</ele>
        <time>2018-05-11T14:21:58Z</time>
      </trkpt>
      <trkpt lat="36.79684" lon="27.99821">
        <ele>10.998</ele>
        <time>2018-05-11T14:21:43Z</time>
      </trkpt>
      <trkpt lat="36.7969" lon="27.99814">
        <ele>11.656</ele>
        <time>2018-05-11T14:21:38Z</time>
      </trkpt>
      <trkpt lat="36.7969" lon="27.9979">
        <ele>13.29</ele>
        <time>2018-05-11T14:21:25Z</time>
      </trkpt>
      <trkpt lat="36.79689" lon="27.99787">
        <ele>13.442</ele>
        <time>2018-05-11T14:21:22Z</time>
      </trkpt>
      <trkpt lat="36.79684" lon="27.99777">
        <ele>13.93</ele>
        <time>2018-05-11T14:21:10Z</time>
      </trkpt>
      <trkpt lat="36.7968" lon="27.9977">
        <ele>14.194</ele>
        <time>2018-05-11T14:21:05Z</time>
      </trkpt>
      <trkpt lat="36.79679" lon="27.9977">
        <ele>14.113</ele>
        <time>2018-05-11T14:21:02Z</time>
      </trkpt>
      <trkpt lat="36.79679" lon="27.9977">
        <ele>13.986</ele>
        <time>2018-05-11T14:20:46Z</time>
      </trkpt>
      <trkpt lat="36.79677" lon="27.99771">
        <ele>13.682</ele>
        <time>2018-05-11T14:20:07Z</time>
      </trkpt>
      <trkpt lat="36.79676" lon="27.99767">
        <ele>14.038</ele>
        <time>2018-05-11T14:19:55Z</time>
      </trkpt>
      <trkpt lat="36.79676" lon="27.9976">
        <ele>14.665</ele>
        <time>2018-05-11T14:19:51Z</time>
      </trkpt>
      <trkpt lat="36.79672" lon="27.99757">
        <ele>14.692</ele>
        <time>2018-05-11T14:19:47Z</time>
      </trkpt>
      <trkpt lat="36.79669" lon="27.99753">
        <ele>14.813</ele>
        <time>2018-05-11T14:19:44Z</time>
      </trkpt>
      <trkpt lat="36.79663" lon="27.99735">
        <ele>15.851</ele>
        <time>2018-05-11T14:19:34Z</time>
      </trkpt>
      <trkpt lat="36.79663" lon="27.99722">
        <ele>16.736</ele>
        <time>2018-05-11T14:19:28Z</time>
      </trkpt>
      <trkpt lat="36.79662" lon="27.99719">
        <ele>17.036</ele>
        <time>2018-05-11T14:19:26Z</time>
      </trkpt>
      <trkpt lat="36.79662" lon="27.99713">
        <ele>17.641</ele>
        <time>2018-05-11T14:19:22Z</time>
      </trkpt>
      <trkpt lat="36.79661" lon="27.99696">
        <ele>19.46</ele>
        <time>2018-05-11T14:19:13Z</time>
      </trkpt>
      <trkpt lat="36.79659" lon="27.9969">
        <ele>19.441</ele>
        <time>2018-05-11T14:19:09Z</time>
      </trkpt>
      <trkpt lat="36.79656" lon="27.99669">
        <ele>19.761</ele>
        <time>2018-05-11T14:18:57Z</time>
      </trkpt>
      <trkpt lat="36.79654" lon="27.99644">
        <ele>19.324</ele>
        <time>2018-05-11T14:18:42Z</time>
      </trkpt>
      <trkpt lat="36.79651" lon="27.9964">
        <ele>19.846</ele>
        <time>2018-05-11T14:18:38Z</time>
      </trkpt>
      <trkpt lat="36.7965" lon="27.99638">
        <ele>19.816</ele>
        <time>2018-05-11T14:18:36Z</time>
      </trkpt>
      <trkpt lat="36.79651" lon="27.99634">
        <ele>19.269</ele>
        <time>2018-05-11T14:18:33Z</time>
      </trkpt>
      <trkpt lat="36.79651" lon="27.99625">
        <ele>17.995</ele>
        <time>2018-05-11T14:18:24Z</time>
      </trkpt>
      <trkpt lat="36.79648" lon="27.99613">
        <ele>16.897</ele>
        <time>2018-05-11T14:18:14Z</time>
      </trkpt>
      <trkpt lat="36.79649" lon="27.99599">
        <ele>14.886</ele>
        <time>2018-05-11T14:18:04Z</time>
      </trkpt>
      <trkpt lat="36.79647" lon="27.99591">
        <ele>14.097</ele>
        <time>2018-05-11T14:17:57Z</time>
      </trkpt>
      <trkpt lat="36.79647" lon="27.99588">
        <ele>13.706</ele>
        <time>2018-05-11T14:17:54Z</time>
      </trkpt>
      <trkpt lat="36.79645" lon="27.99577">
        <ele>13.039</ele>
        <time>2018-05-11T14:17:43Z</time>
      </trkpt>
      <trkpt lat="36.79638" lon="27.99556">
        <ele>13.264</ele>
        <time>2018-05-11T14:17:27Z</time>
      </trkpt>
      <trkpt lat="36.79638" lon="27.99554">
        <ele>13.699</ele>
        <time>2018-05-11T14:17:25Z</time>
      </trkpt>
      <trkpt lat="36.79643" lon="27.99544">
        <ele>12.36</ele>
        <time>2018-05-11T14:17:12Z</time>
      </trkpt>
      <trkpt lat="36.79648" lon="27.99539">
        <ele>10.683</ele>
        <time>2018-05-11T14:17:07Z</time>
      </trkpt>
      <trkpt lat="36.79652" lon="27.99534">
        <ele>9.331</ele>
        <time>2018-05-11T14:17:04Z</time>
      </trkpt>
      <trkpt lat="36.79657" lon="27.99522">
        <ele>7.944</ele>
        <time>2018-05-11T14:16:57Z</time>
      </trkpt>
      <trkpt lat="36.79661" lon="27.99509">
        <ele>7.382</ele>
        <time>2018-05-11T14:16:50Z</time>
      </trkpt>
      <trkpt lat="36.7966" lon="27.99492">
        <ele>10.047</ele>
        <time>2018-05-11T14:16:39Z</time>
      </trkpt>
      <trkpt lat="36.79663" lon="27.9948">
        <ele>11.002</ele>
        <time>2018-05-11T14:16:32Z</time>
      </trkpt>
      <trkpt lat="36.79669" lon="27.99465">
        <ele>11.366</ele>
        <time>2018-05-11T14:16:21Z</time>
      </trkpt>
      <trkpt lat="36.7967" lon="27.99463">
        <ele>11.434</ele>
        <time>2018-05-11T14:16:20Z</time>
      </trkpt>
      <trkpt lat="36.79673" lon="27.99439">
        <ele>12.963</ele>
        <time>2018-05-11T14:16:04Z</time>
      </trkpt>
      <trkpt lat="36.79671" lon="27.99434">
        <ele>13.51</ele>
        <time>2018-05-11T14:16:00Z</time>
      </trkpt>
      <trkpt lat="36.79671" lon="27.99408">
        <ele>14.593</ele>
        <time>2018-05-11T14:15:41Z</time>
      </trkpt>
      <trkpt lat="36.79674" lon="27.99399">
        <ele>14.451</ele>
        <time>2018-05-11T14:15:35Z</time>
      </trkpt>
      <trkpt lat="36.79686" lon="27.99382">
        <ele>12.748</ele>
        <time>2018-05-11T14:15:19Z</time>
      </trkpt>
      <trkpt lat="36.79691" lon="27.99367">
        <ele>12.6</ele>
        <time>2018-05-11T14:15:08Z</time>
      </trkpt>
      <trkpt lat="36.79696" lon="27.9935">
        <ele>12.583</ele>
        <time>2018-05-11T14:14:56Z</time>
      </trkpt>
      <trkpt lat="36.79696" lon="27.99348">
        <ele>12.638</ele>
        <time>2018-05-11T14:14:54Z</time>
      </trkpt>
      <trkpt lat="36.79704" lon="27.9933">
        <ele>12.408</ele>
        <time>2018-05-11T14:14:42Z</time>
      </trkpt>
      <trkpt lat="36.79701" lon="27.99327">
        <ele>13.116</ele>
        <time>2018-05-11T14:14:38Z</time>
      </trkpt>
      <trkpt lat="36.7971" lon="27.99309">
        <ele>12.568</ele>
        <time>2018-05-11T14:14:25Z</time>
      </trkpt>
      <trkpt lat="36.79718" lon="27.99305">
        <ele>11.602</ele>
        <time>2018-05-11T14:14:20Z</time>
      </trkpt>
      <trkpt lat="36.7972" lon="27.99302">
        <ele>11.385</ele>
        <time>2018-05-11T14:14:18Z</time>
      </trkpt>
      <trkpt lat="36.7972" lon="27.9929">
        <ele>11.857</ele>
        <time>2018-05-11T14:14:05Z</time>
      </trkpt>
      <trkpt lat="36.79717" lon="27.99268">
        <ele>11.899</ele>
        <time>2018-05-11T14:13:50Z</time>
      </trkpt>
      <trkpt lat="36.79713" lon="27.99246">
        <ele>11.144</ele>
        <time>2018-05-11T14:13:37Z</time>
      </trkpt>
      <trkpt lat="36.79715" lon="27.99236">
        <ele>10.123</ele>
        <time>2018-05-11T14:13:32Z</time>
      </trkpt>
      <trkpt lat="36.79718" lon="27.99227">
        <ele>9.021</ele>
        <time>2018-05-11T14:13:25Z</time>
      </trkpt>
      <trkpt lat="36.79721" lon="27.99222">
        <ele>8.282</ele>
        <time>2018-05-11T14:13:21Z</time>
      </trkpt>
      <trkpt lat="36.7972" lon="27.99214">
        <ele>8.089</ele>
        <time>2018-05-11T14:13:16Z</time>
      </trkpt>
      <trkpt lat="36.7972" lon="27.99212">
        <ele>7.989</ele>
        <time>2018-05-11T14:13:15Z</time>
      </trkpt>
      <trkpt lat="36.79722" lon="27.99188">
        <ele>7.379</ele>
        <time>2018-05-11T14:13:00Z</time>
      </trkpt>
      <trkpt lat="36.79723" lon="27.99178">
        <ele>7.554</ele>
        <time>2018-05-11T14:12:54Z</time>
      </trkpt>
      <trkpt lat="36.79722" lon="27.99176">
        <ele>7.672</ele>
        <time>2018-05-11T14:12:52Z</time>
      </trkpt>
      <trkpt lat="36.79722" lon="27.99158">
        <ele>9.119</ele>
        <time>2018-05-11T14:12:37Z</time>
      </trkpt>
      <trkpt lat="36.79727" lon="27.99145">
        <ele>10.005</ele>
        <time>2018-05-11T14:12:23Z</time>
      </trkpt>
      <trkpt lat="36.79738" lon="27.99136">
        <ele>10.111</ele>
        <time>2018-05-11T14:12:07Z</time>
      </trkpt>
      <trkpt lat="36.79744" lon="27.99132">
        <ele>9.907</ele>
        <time>2018-05-11T14:11:46Z</time>
      </trkpt>
      <trkpt lat="36.79747" lon="27.99124">
        <ele>10.272</ele>
        <time>2018-05-11T14:11:40Z</time>
      </trkpt>
      <trkpt lat="36.79751" lon="27.99118">
        <ele>10.377</ele>
        <time>2018-05-11T14:11:35Z</time>
      </trkpt>
      <trkpt lat="36.79754" lon="27.99115">
        <ele>10.278</ele>
        <time>2018-05-11T14:11:32Z</time>
      </trkpt>
      <trkpt lat="36.79768" lon="27.991">
        <ele>9.186</ele>
        <time>2018-05-11T14:11:07Z</time>
      </trkpt>
      <trkpt lat="36.79768" lon="27.99089">
        <ele>9.299</ele>
        <time>2018-05-11T14:10:59Z</time>
      </trkpt>
      <trkpt lat="36.7977" lon="27.99081">
        <ele>9.364</ele>
        <time>2018-05-11T14:10:53Z</time>
      </trkpt>
      <trkpt lat="36.79774" lon="27.99074">
        <ele>9.628</ele>
        <time>2018-05-11T14:10:47Z</time>
      </trkpt>
      <trkpt lat="36.79784" lon="27.99065">
        <ele>8.889</ele>
        <time>2018-05-11T14:10:38Z</time>
      </trkpt>
      <trkpt lat="36.7979" lon="27.99061">
        <ele>8.701</ele>
        <time>2018-05-11T14:10:30Z</time>
      </trkpt>
      <trkpt lat="36.79798" lon="27.9906">
        <ele>7.657</ele>
        <time>2018-05-11T14:10:18Z</time>
      </trkpt>
      <trkpt lat="36.79804" lon="27.99041">
        <ele>8.139</ele>
        <time>2018-05-11T14:10:00Z</time>
      </trkpt>
      <trkpt lat="36.79798" lon="27.99028">
        <ele>8.78</ele>
        <time>2018-05-11T14:09:40Z</time>
      </trkpt>
      <trkpt lat="36.79794" lon="27.99021">
        <ele>9.105</ele>
        <time>2018-05-11T14:09:17Z</time>
      </trkpt>
      <trkpt lat="36.79794" lon="27.99006">
        <ele>8.936</ele>
        <time>2018-05-11T14:09:00Z</time>
      </trkpt>
      <trkpt lat="36.79797" lon="27.98988">
        <ele>8.204</ele>
        <time>2018-05-11T14:08:40Z</time>
      </trkpt>
      <trkpt lat="36.79803" lon="27.98984">
        <ele>7.584</ele>
        <time>2018-05-11T14:08:34Z</time>
      </trkpt>
      <trkpt lat="36.79814" lon="27.98976">
        <ele>6.726</ele>
        <time>2018-05-11T14:08:19Z</time>
      </trkpt>
      <trkpt lat="36.79852" lon="27.98968">
        <ele>6.767</ele>
        <time>2018-05-11T13:38:57Z</time>
      </trkpt>
      <trkpt lat="36.79854" lon="27.98966">
        <ele>6.86</ele>
        <time>2018-05-11T13:38:34Z</time>
      </trkpt>
      <trkpt lat="36.79862" lon="27.98968">
        <ele>7.023</ele>
        <time>2018-05-11T13:38:12Z</time>
      </trkpt>
      <trkpt lat="36.79876" lon="27.98968">
        <ele>7.447</ele>
        <time>2018-05-11T13:37:47Z</time>
      </trkpt>
      <trkpt lat="36.7988" lon="27.98971">
        <ele>7.667</ele>
        <time>2018-05-11T13:37:24Z</time>
      </trkpt>
      <trkpt lat="36.79888" lon="27.98975">
        <ele>7.879</ele>
        <time>2018-05-11T13:36:56Z</time>
      </trkpt>
      <trkpt lat="36.79895" lon="27.98977">
        <ele>8.51</ele>
        <time>2018-05-11T13:34:05Z</time>
      </trkpt>
      <trkpt lat="36.79907" lon="27.98972">
        <ele>9.984</ele>
        <time>2018-05-11T13:33:54Z</time>
      </trkpt>
      <trkpt lat="36.79909" lon="27.98972">
        <ele>10.204</ele>
        <time>2018-05-11T13:33:39Z</time>
      </trkpt>
      <trkpt lat="36.79914" lon="27.98972">
        <ele>10.749</ele>
        <time>2018-05-11T13:33:19Z</time>
      </trkpt>
      <trkpt lat="36.79916" lon="27.9897">
        <ele>10.845</ele>
        <time>2018-05-11T13:33:17Z</time>
      </trkpt>
      <trkpt lat="36.79919" lon="27.98969">
        <ele>11.385</ele>
        <time>2018-05-11T13:32:51Z</time>
      </trkpt>
      <trkpt lat="36.79924" lon="27.98958">
        <ele>12.014</ele>
        <time>2018-05-11T13:32:36Z</time>
      </trkpt>
      <trkpt lat="36.79925" lon="27.98956">
        <ele>12.139</ele>
        <time>2018-05-11T13:32:26Z</time>
      </trkpt>
      <trkpt lat="36.79925" lon="27.98949">
        <ele>11.841</ele>
        <time>2018-05-11T13:32:11Z</time>
      </trkpt>
      <trkpt lat="36.79924" lon="27.98938">
        <ele>11.197</ele>
        <time>2018-05-11T13:32:04Z</time>
      </trkpt>
      <trkpt lat="36.79923" lon="27.98936">
        <ele>11.081</ele>
        <time>2018-05-11T13:32:00Z</time>
      </trkpt>
      <trkpt lat="36.79923" lon="27.98931">
        <ele>10.961</ele>
        <time>2018-05-11T13:31:36Z</time>
      </trkpt>
      <trkpt lat="36.79921" lon="27.98931">
        <ele>10.64</ele>
        <time>2018-05-11T13:31:28Z</time>
      </trkpt>
      <trkpt lat="36.79923" lon="27.98922">
        <ele>10.964</ele>
        <time>2018-05-11T13:31:22Z</time>
      </trkpt>
      <trkpt lat="36.79926" lon="27.98919">
        <ele>11.341</ele>
        <time>2018-05-11T13:30:48Z</time>
      </trkpt>
      <trkpt lat="36.79932" lon="27.9891">
        <ele>12.583</ele>
        <time>2018-05-11T13:30:38Z</time>
      </trkpt>
      <trkpt lat="36.79934" lon="27.98904">
        <ele>13.135</ele>
        <time>2018-05-11T13:30:22Z</time>
      </trkpt>
      <trkpt lat="36.79935" lon="27.98895">
        <ele>13.718</ele>
        <time>2018-05-11T13:30:09Z</time>
      </trkpt>
      <trkpt lat="36.79935" lon="27.98892">
        <ele>13.85</ele>
        <time>2018-05-11T13:30:05Z</time>
      </trkpt>
      <trkpt lat="36.79935" lon="27.98891">
        <ele>13.84</ele>
        <time>2018-05-11T13:29:46Z</time>
      </trkpt>
      <trkpt lat="36.79934" lon="27.98876">
        <ele>15.068</ele>
        <time>2018-05-11T13:29:32Z</time>
      </trkpt>
      <trkpt lat="36.79934" lon="27.98864">
        <ele>16.182</ele>
        <time>2018-05-11T13:29:25Z</time>
      </trkpt>
      <trkpt lat="36.79934" lon="27.98862">
        <ele>16.392</ele>
        <time>2018-05-11T13:29:15Z</time>
      </trkpt>
      <trkpt lat="36.79934" lon="27.98861">
        <ele>16.498</ele>
        <time>2018-05-11T13:29:07Z</time>
      </trkpt>
      <trkpt lat="36.7994" lon="27.98848">
        <ele>18.23</ele>
        <time>2018-05-11T13:28:55Z</time>
      </trkpt>
      <trkpt lat="36.79946" lon="27.98824">
        <ele>20.809</ele>
        <time>2018-05-11T13:28:39Z</time>
      </trkpt>
      <trkpt lat="36.79947" lon="27.98822">
        <ele>21.023</ele>
        <time>2018-05-11T13:28:11Z</time>
      </trkpt>
      <trkpt lat="36.79948" lon="27.98822">
        <ele>21.072</ele>
        <time>2018-05-11T13:28:05Z</time>
      </trkpt>
      <trkpt lat="36.79957" lon="27.98805">
        <ele>22.934</ele>
        <time>2018-05-11T13:27:52Z</time>
      </trkpt>
      <trkpt lat="36.79957" lon="27.98802">
        <ele>23.289</ele>
        <time>2018-05-11T13:27:50Z</time>
      </trkpt>
      <trkpt lat="36.79959" lon="27.98799">
        <ele>23.606</ele>
        <time>2018-05-11T13:27:29Z</time>
      </trkpt>
      <trkpt lat="36.7996" lon="27.98796">
        <ele>23.943</ele>
        <time>2018-05-11T13:27:23Z</time>
      </trkpt>
      <trkpt lat="36.79959" lon="27.98783">
        <ele>25.058</ele>
        <time>2018-05-11T13:27:10Z</time>
      </trkpt>
      <trkpt lat="36.79962" lon="27.98784">
        <ele>25.1</ele>
        <time>2018-05-11T13:27:05Z</time>
      </trkpt>
      <trkpt lat="36.7996" lon="27.98783">
        <ele>25.097</ele>
        <time>2018-05-11T13:26:58Z</time>
      </trkpt>
      <trkpt lat="36.7996" lon="27.98774">
        <ele>25.924</ele>
        <time>2018-05-11T13:26:39Z</time>
      </trkpt>
      <trkpt lat="36.7996" lon="27.98766">
        <ele>26.786</ele>
        <time>2018-05-11T13:26:35Z</time>
      </trkpt>
      <trkpt lat="36.79959" lon="27.98763">
        <ele>27.048</ele>
        <time>2018-05-11T13:26:11Z</time>
      </trkpt>
      <trkpt lat="36.79956" lon="27.98761">
        <ele>27.357</ele>
        <time>2018-05-11T13:25:54Z</time>
      </trkpt>
      <trkpt lat="36.79955" lon="27.98753">
        <ele>28.274</ele>
        <time>2018-05-11T13:25:37Z</time>
      </trkpt>
      <trkpt lat="36.79954" lon="27.98748">
        <ele>28.922</ele>
        <time>2018-05-11T13:25:29Z</time>
      </trkpt>
      <trkpt lat="36.79952" lon="27.98738">
        <ele>30.155</ele>
        <time>2018-05-11T13:25:20Z</time>
      </trkpt>
      <trkpt lat="36.79951" lon="27.98736">
        <ele>30.478</ele>
        <time>2018-05-11T13:24:53Z</time>
      </trkpt>
      <trkpt lat="36.79948" lon="27.98731">
        <ele>31.375</ele>
        <time>2018-05-11T13:24:35Z</time>
      </trkpt>
      <trkpt lat="36.79947" lon="27.98724">
        <ele>32.372</ele>
        <time>2018-05-11T13:24:22Z</time>
      </trkpt>
      <trkpt lat="36.79949" lon="27.98723">
        <ele>32.262</ele>
        <time>2018-05-11T13:24:04Z</time>
      </trkpt>
      <trkpt lat="36.7994" lon="27.98714">
        <ele>32.682</ele>
        <time>2018-05-11T13:22:17Z</time>
      </trkpt>
      <trkpt lat="36.79941" lon="27.98712">
        <ele>32.534</ele>
        <time>2018-05-11T13:22:12Z</time>
      </trkpt>
      <trkpt lat="36.7994" lon="27.98705">
        <ele>32.425</ele>
        <time>2018-05-11T13:21:54Z</time>
      </trkpt>
      <trkpt lat="36.79935" lon="27.98701">
        <ele>33.067</ele>
        <time>2018-05-11T13:21:39Z</time>
      </trkpt>
      <trkpt lat="36.79927" lon="27.98684">
        <ele>34.618</ele>
        <time>2018-05-11T13:21:26Z</time>
      </trkpt>
      <trkpt lat="36.79922" lon="27.98679">
        <ele>35.98</ele>
        <time>2018-05-11T13:21:22Z</time>
      </trkpt>
      <trkpt lat="36.79921" lon="27.98676">
        <ele>36.363</ele>
        <time>2018-05-11T13:21:04Z</time>
      </trkpt>
      <trkpt lat="36.79918" lon="27.98666">
        <ele>37.667</ele>
        <time>2018-05-11T13:20:48Z</time>
      </trkpt>
      <trkpt lat="36.79914" lon="27.98658">
        <ele>38.881</ele>
        <time>2018-05-11T13:20:42Z</time>
      </trkpt>
      <trkpt lat="36.79913" lon="27.98654">
        <ele>39.543</ele>
        <time>2018-05-11T13:20:31Z</time>
      </trkpt>
      <trkpt lat="36.79913" lon="27.98647">
        <ele>39.718</ele>
        <time>2018-05-11T13:20:14Z</time>
      </trkpt>
      <trkpt lat="36.79909" lon="27.98645">
        <ele>41.161</ele>
        <time>2018-05-11T13:19:58Z</time>
      </trkpt>
      <trkpt lat="36.79908" lon="27.98642">
        <ele>42.117</ele>
        <time>2018-05-11T13:19:43Z</time>
      </trkpt>
      <trkpt lat="36.79906" lon="27.98636">
        <ele>43.152</ele>
        <time>2018-05-11T13:19:40Z</time>
      </trkpt>
      <trkpt lat="36.79906" lon="27.98632">
        <ele>42.787</ele>
        <time>2018-05-11T13:19:19Z</time>
      </trkpt>
      <trkpt lat="36.79905" lon="27.98623">
        <ele>43.328</ele>
        <time>2018-05-11T13:18:59Z</time>
      </trkpt>
      <trkpt lat="36.79905" lon="27.98616">
        <ele>43.524</ele>
        <time>2018-05-11T13:18:54Z</time>
      </trkpt>
      <trkpt lat="36.79907" lon="27.98604">
        <ele>42.099</ele>
        <time>2018-05-11T13:18:47Z</time>
      </trkpt>
      <trkpt lat="36.79909" lon="27.98588">
        <ele>40.198</ele>
        <time>2018-05-11T13:18:36Z</time>
      </trkpt>
      <trkpt lat="36.79912" lon="27.98581">
        <ele>38.362</ele>
        <time>2018-05-11T13:18:23Z</time>
      </trkpt>
      <trkpt lat="36.79909" lon="27.98573">
        <ele>38.887</ele>
        <time>2018-05-11T13:18:03Z</time>
      </trkpt>
      <trkpt lat="36.79905" lon="27.9857">
        <ele>40.289</ele>
        <time>2018-05-11T13:17:59Z</time>
      </trkpt>
      <trkpt lat="36.79904" lon="27.9857">
        <ele>41.003</ele>
        <time>2018-05-11T13:17:51Z</time>
      </trkpt>
      <trkpt lat="36.79899" lon="27.9856">
        <ele>41.903</ele>
        <time>2018-05-11T13:17:27Z</time>
      </trkpt>
      <trkpt lat="36.79891" lon="27.9855">
        <ele>44.101</ele>
        <time>2018-05-11T13:17:06Z</time>
      </trkpt>
      <trkpt lat="36.7989" lon="27.98536">
        <ele>42.007</ele>
        <time>2018-05-11T13:16:53Z</time>
      </trkpt>
      <trkpt lat="36.79885" lon="27.98531">
        <ele>43.655</ele>
        <time>2018-05-11T13:16:50Z</time>
      </trkpt>
      <trkpt lat="36.79883" lon="27.9853">
        <ele>44.21</ele>
        <time>2018-05-11T13:16:48Z</time>
      </trkpt>
      <trkpt lat="36.79883" lon="27.98529">
        <ele>44.181</ele>
        <time>2018-05-11T13:16:46Z</time>
      </trkpt>
      <trkpt lat="36.79888" lon="27.98526">
        <ele>41.388</ele>
        <time>2018-05-11T13:16:19Z</time>
      </trkpt>
      <trkpt lat="36.79888" lon="27.98519">
        <ele>40.504</ele>
        <time>2018-05-11T13:15:47Z</time>
      </trkpt>
      <trkpt lat="36.79886" lon="27.98516">
        <ele>40.776</ele>
        <time>2018-05-11T13:15:23Z</time>
      </trkpt>
      <trkpt lat="36.79885" lon="27.98505">
        <ele>39.421</ele>
        <time>2018-05-11T13:15:07Z</time>
      </trkpt>
      <trkpt lat="36.79887" lon="27.98496">
        <ele>37.127</ele>
        <time>2018-05-11T13:14:49Z</time>
      </trkpt>
      <trkpt lat="36.7989" lon="27.98485">
        <ele>34.305</ele>
        <time>2018-05-11T13:14:37Z</time>
      </trkpt>
      <trkpt lat="36.79885" lon="27.98482">
        <ele>36.246</ele>
        <time>2018-05-11T13:14:16Z</time>
      </trkpt>
      <trkpt lat="36.79882" lon="27.98474">
        <ele>36.212</ele>
        <time>2018-05-11T13:14:08Z</time>
      </trkpt>
      <trkpt lat="36.79882" lon="27.98474">
        <ele>36.276</ele>
        <time>2018-05-11T13:13:43Z</time>
      </trkpt>
      <trkpt lat="36.79884" lon="27.98472">
        <ele>34.934</ele>
        <time>2018-05-11T13:13:27Z</time>
      </trkpt>
      <trkpt lat="36.79883" lon="27.9847">
        <ele>35.12</ele>
        <time>2018-05-11T13:11:56Z</time>
      </trkpt>
      <trkpt lat="36.79885" lon="27.98461">
        <ele>32.706</ele>
        <time>2018-05-11T13:11:38Z</time>
      </trkpt>
      <trkpt lat="36.7988" lon="27.98455">
        <ele>33.442</ele>
        <time>2018-05-11T13:11:20Z</time>
      </trkpt>
      <trkpt lat="36.79875" lon="27.98446">
        <ele>33.547</ele>
        <time>2018-05-11T13:10:55Z</time>
      </trkpt>
      <trkpt lat="36.7988" lon="27.98438">
        <ele>30.706</ele>
        <time>2018-05-11T13:10:40Z</time>
      </trkpt>
      <trkpt lat="36.79878" lon="27.98427">
        <ele>30.21</ele>
        <time>2018-05-11T13:10:22Z</time>
      </trkpt>
      <trkpt lat="36.79877" lon="27.98423">
        <ele>30.127</ele>
        <time>2018-05-11T13:10:06Z</time>
      </trkpt>
      <trkpt lat="36.79873" lon="27.98419">
        <ele>31.079</ele>
        <time>2018-05-11T13:09:44Z</time>
      </trkpt>
      <trkpt lat="36.79873" lon="27.98401">
        <ele>29.159</ele>
        <time>2018-05-11T13:09:24Z</time>
      </trkpt>
      <trkpt lat="36.79875" lon="27.98399">
        <ele>27.945</ele>
        <time>2018-05-11T13:09:18Z</time>
      </trkpt>
      <trkpt lat="36.79879" lon="27.98391">
        <ele>25.711</ele>
        <time>2018-05-11T13:09:00Z</time>
      </trkpt>
      <trkpt lat="36.79885" lon="27.98372">
        <ele>21.791</ele>
        <time>2018-05-11T13:05:13Z</time>
      </trkpt>
      <trkpt lat="36.79882" lon="27.98356">
        <ele>21.813</ele>
        <time>2018-05-11T13:04:55Z</time>
      </trkpt>
      <trkpt lat="36.79888" lon="27.9834">
        <ele>18.759</ele>
        <time>2018-05-11T13:04:38Z</time>
      </trkpt>
      <trkpt lat="36.79882" lon="27.98327">
        <ele>18.887</ele>
        <time>2018-05-11T13:04:15Z</time>
      </trkpt>
      <trkpt lat="36.79874" lon="27.98321">
        <ele>20.133</ele>
        <time>2018-05-11T13:03:59Z</time>
      </trkpt>
      <trkpt lat="36.79867" lon="27.98311">
        <ele>20.504</ele>
        <time>2018-05-11T13:03:45Z</time>
      </trkpt>
      <trkpt lat="36.79867" lon="27.98311">
        <ele>20.379</ele>
        <time>2018-05-11T13:03:26Z</time>
      </trkpt>
      <trkpt lat="36.7986" lon="27.98304">
        <ele>20.93</ele>
        <time>2018-05-11T13:03:11Z</time>
      </trkpt>
      <trkpt lat="36.79859" lon="27.983">
        <ele>20.828</ele>
        <time>2018-05-11T13:03:08Z</time>
      </trkpt>
      <trkpt lat="36.79855" lon="27.98295">
        <ele>20.968</ele>
        <time>2018-05-11T13:02:46Z</time>
      </trkpt>
      <trkpt lat="36.79852" lon="27.98292">
        <ele>21.11</ele>
        <time>2018-05-11T13:02:19Z</time>
      </trkpt>
      <trkpt lat="36.79848" lon="27.98288">
        <ele>21.161</ele>
        <time>2018-05-11T13:02:14Z</time>
      </trkpt>
      <trkpt lat="36.79852" lon="27.98278">
        <ele>18.692</ele>
        <time>2018-05-11T13:01:45Z</time>
      </trkpt>
      <trkpt lat="36.79848" lon="27.98269">
        <ele>18.209</ele>
        <time>2018-05-11T13:01:19Z</time>
      </trkpt>
      <trkpt lat="36.79851" lon="27.98268">
        <ele>17.729</ele>
        <time>2018-05-11T13:01:03Z</time>
      </trkpt>
      <trkpt lat="36.79843" lon="27.98259">
        <ele>17.727</ele>
        <time>2018-05-11T13:00:42Z</time>
      </trkpt>
      <trkpt lat="36.79839" lon="27.98252">
        <ele>17.375</ele>
        <time>2018-05-11T13:00:23Z</time>
      </trkpt>
      <trkpt lat="36.79836" lon="27.98247">
        <ele>16.939</ele>
        <time>2018-05-11T13:00:04Z</time>
      </trkpt>
      <trkpt lat="36.79832" lon="27.98239">
        <ele>16.015</ele>
        <time>2018-05-11T12:59:39Z</time>
      </trkpt>
      <trkpt lat="36.79823" lon="27.98235">
        <ele>14.93</ele>
        <time>2018-05-11T12:59:19Z</time>
      </trkpt>
      <trkpt lat="36.79816" lon="27.98235">
        <ele>14.709</ele>
        <time>2018-05-11T12:58:59Z</time>
      </trkpt>
      <trkpt lat="36.79813" lon="27.98235">
        <ele>14.451</ele>
        <time>2018-05-11T12:58:39Z</time>
      </trkpt>
      <trkpt lat="36.79807" lon="27.98233">
        <ele>13.688</ele>
        <time>2018-05-11T12:58:16Z</time>
      </trkpt>
      <trkpt lat="36.79802" lon="27.9823">
        <ele>12.864</ele>
        <time>2018-05-11T12:57:52Z</time>
      </trkpt>
      <trkpt lat="36.798" lon="27.98227">
        <ele>12.024</ele>
        <time>2018-05-11T12:57:08Z</time>
      </trkpt>
      <trkpt lat="36.79799" lon="27.98225">
        <ele>11.611</ele>
        <time>2018-05-11T12:56:33Z</time>
      </trkpt>
      <trkpt lat="36.79795" lon="27.98217">
        <ele>8.966</ele>
        <time>2018-05-11T12:56:15Z</time>
      </trkpt>
      <trkpt lat="36.79794" lon="27.98219">
        <ele>9.438</ele>
        <time>2018-05-11T12:55:42Z</time>
      </trkpt>
      <trkpt lat="36.79786" lon="27.98218">
        <ele>9.106</ele>
        <time>2018-05-11T12:55:19Z</time>
      </trkpt>
      <trkpt lat="36.79787" lon="27.98218">
        <ele>9.147</ele>
        <time>2018-05-11T12:54:57Z</time>
      </trkpt>
      <trkpt lat="36.79778" lon="27.98216">
        <ele>8.72</ele>
        <time>2018-05-11T12:54:32Z</time>
      </trkpt>
      <trkpt lat="36.79768" lon="27.98208">
        <ele>7.407</ele>
        <time>2018-05-11T12:54:15Z</time>
      </trkpt>
      <trkpt lat="36.79762" lon="27.98202">
        <ele>6.671</ele>
        <time>2018-05-11T12:53:47Z</time>
      </trkpt>
      <trkpt lat="36.79754" lon="27.98198">
        <ele>6.378</ele>
        <time>2018-05-11T12:52:35Z</time>
      </trkpt>
      <trkpt lat="36.79742" lon="27.98188">
        <ele>7.692</ele>
        <time>2018-05-11T12:52:24Z</time>
      </trkpt>
      <trkpt lat="36.7974" lon="27.98177">
        <ele>6.717</ele>
        <time>2018-05-11T12:52:15Z</time>
      </trkpt>
      <trkpt lat="36.7974" lon="27.98173">
        <ele>6.202</ele>
        <time>2018-05-11T12:51:57Z</time>
      </trkpt>
      <trkpt lat="36.7974" lon="27.98174">
        <ele>6.485</ele>
        <time>2018-05-11T12:51:41Z</time>
      </trkpt>
      <trkpt lat="36.79736" lon="27.98169">
        <ele>7.937</ele>
        <time>2018-05-11T12:51:15Z</time>
      </trkpt>
      <trkpt lat="36.7973" lon="27.98166">
        <ele>10.505</ele>
        <time>2018-05-11T12:50:46Z</time>
      </trkpt>
      <trkpt lat="36.7973" lon="27.98157">
        <ele>6.846</ele>
        <time>2018-05-11T12:50:20Z</time>
      </trkpt>
      <trkpt lat="36.79727" lon="27.98147">
        <ele>3.473</ele>
        <time>2018-05-11T12:49:55Z</time>
      </trkpt>
      <trkpt lat="36.79727" lon="27.98143">
        <ele>1.908</ele>
        <time>2018-05-11T12:49:43Z</time>
      </trkpt>
      <trkpt lat="36.79722" lon="27.98142">
        <ele>1.513</ele>
        <time>2018-05-11T12:49:13Z</time>
      </trkpt>
      <trkpt lat="36.7972" lon="27.98129">
        <ele>1.739</ele>
        <time>2018-05-11T12:48:56Z</time>
      </trkpt>
      <trkpt lat="36.79717" lon="27.98126">
        <ele>3.752</ele>
        <time>2018-05-11T12:48:45Z</time>
      </trkpt>
      <trkpt lat="36.79713" lon="27.98121">
        <ele>6.193</ele>
        <time>2018-05-11T12:48:21Z</time>
      </trkpt>
      <trkpt lat="36.79712" lon="27.9811">
        <ele>5.955</ele>
        <time>2018-05-11T12:48:00Z</time>
      </trkpt>
      <trkpt lat="36.79719" lon="27.98105">
        <ele>2.591</ele>
        <time>2018-05-11T12:47:39Z</time>
      </trkpt>
      <trkpt lat="36.79716" lon="27.98106">
        <ele>4.17</ele>
        <time>2018-05-11T12:46:40Z</time>
      </trkpt>
      <trkpt lat="36.79718" lon="27.981">
        <ele>3.367</ele>
        <time>2018-05-11T12:46:33Z</time>
      </trkpt>
      <trkpt lat="36.79716" lon="27.981">
        <ele>4.401</ele>
        <time>2018-05-11T12:46:17Z</time>
      </trkpt>
      <trkpt lat="36.79717" lon="27.98094">
        <ele>4.319</ele>
        <time>2018-05-11T12:45:59Z</time>
      </trkpt>
      <trkpt lat="36.79715" lon="27.98079">
        <ele>5.452</ele>
        <time>2018-05-11T12:45:42Z</time>
      </trkpt>
      <trkpt lat="36.79718" lon="27.98058">
        <ele>4.686</ele>
        <time>2018-05-11T12:45:16Z</time>
      </trkpt>
      <trkpt lat="36.79717" lon="27.98051">
        <ele>5.527</ele>
        <time>2018-05-11T12:44:51Z</time>
      </trkpt>
      <trkpt lat="36.79719" lon="27.98051">
        <ele>5.204</ele>
        <time>2018-05-11T12:43:39Z</time>
      </trkpt>
      <trkpt lat="36.79719" lon="27.98051">
        <ele>5.272</ele>
        <time>2018-05-11T12:43:14Z</time>
      </trkpt>
      <trkpt lat="36.79716" lon="27.98052">
        <ele>5.438</ele>
        <time>2018-05-11T12:42:51Z</time>
      </trkpt>
      <trkpt lat="36.79709" lon="27.98049">
        <ele>7.179</ele>
        <time>2018-05-11T12:42:35Z</time>
      </trkpt>
      <trkpt lat="36.79706" lon="27.98045">
        <ele>8.652</ele>
        <time>2018-05-11T12:42:31Z</time>
      </trkpt>
      <trkpt lat="36.79704" lon="27.98038">
        <ele>10.469</ele>
        <time>2018-05-11T12:42:06Z</time>
      </trkpt>
      <trkpt lat="36.79705" lon="27.98039">
        <ele>9.892</ele>
        <time>2018-05-11T12:41:44Z</time>
      </trkpt>
      <trkpt lat="36.79712" lon="27.98027">
        <ele>10.9</ele>
        <time>2018-05-11T12:41:29Z</time>
      </trkpt>
      <trkpt lat="36.79719" lon="27.98026">
        <ele>9.519</ele>
        <time>2018-05-11T12:41:20Z</time>
      </trkpt>
      <trkpt lat="36.79719" lon="27.98027">
        <ele>9.246</ele>
        <time>2018-05-11T12:41:16Z</time>
      </trkpt>
      <trkpt lat="36.79724" lon="27.98018">
        <ele>10.737</ele>
        <time>2018-05-11T12:40:59Z</time>
      </trkpt>
      <trkpt lat="36.79724" lon="27.98014">
        <ele>12.251</ele>
        <time>2018-05-11T12:40:39Z</time>
      </trkpt>
      <trkpt lat="36.79722" lon="27.98003">
        <ele>15.948</ele>
        <time>2018-05-11T12:40:23Z</time>
      </trkpt>
      <trkpt lat="36.79721" lon="27.98003">
        <ele>16.288</ele>
        <time>2018-05-11T12:40:06Z</time>
      </trkpt>
      <trkpt lat="36.79718" lon="27.97992">
        <ele>18.284</ele>
        <time>2018-05-11T12:39:50Z</time>
      </trkpt>
      <trkpt lat="36.79718" lon="27.97978">
        <ele>19.307</ele>
        <time>2018-05-11T12:39:31Z</time>
      </trkpt>
      <trkpt lat="36.79717" lon="27.97969">
        <ele>19.582</ele>
        <time>2018-05-11T12:38:48Z</time>
      </trkpt>
      <trkpt lat="36.79716" lon="27.97969">
        <ele>19.861</ele>
        <time>2018-05-11T12:38:18Z</time>
      </trkpt>
      <trkpt lat="36.79717" lon="27.97966">
        <ele>19.297</ele>
        <time>2018-05-11T12:37:42Z</time>
      </trkpt>
      <trkpt lat="36.79712" lon="27.97958">
        <ele>19.645</ele>
        <time>2018-05-11T12:37:19Z</time>
      </trkpt>
      <trkpt lat="36.79705" lon="27.97952">
        <ele>20.803</ele>
        <time>2018-05-11T12:37:08Z</time>
      </trkpt>
      <trkpt lat="36.79698" lon="27.97944">
        <ele>22.106</ele>
        <time>2018-05-11T12:36:47Z</time>
      </trkpt>
      <trkpt lat="36.79688" lon="27.97936">
        <ele>23.14</ele>
        <time>2018-05-11T12:36:25Z</time>
      </trkpt>
      <trkpt lat="36.7968" lon="27.97932">
        <ele>24.437</ele>
        <time>2018-05-11T12:36:00Z</time>
      </trkpt>
      <trkpt lat="36.79673" lon="27.97924">
        <ele>25.562</ele>
        <time>2018-05-11T12:35:31Z</time>
      </trkpt>
      <trkpt lat="36.79672" lon="27.97922">
        <ele>25.749</ele>
        <time>2018-05-11T12:35:13Z</time>
      </trkpt>
      <trkpt lat="36.79667" lon="27.97917">
        <ele>26.946</ele>
        <time>2018-05-11T12:34:49Z</time>
      </trkpt>
      <trkpt lat="36.79674" lon="27.97909">
        <ele>24.133</ele>
        <time>2018-05-11T12:34:30Z</time>
      </trkpt>
      <trkpt lat="36.79673" lon="27.97893">
        <ele>22.867</ele>
        <time>2018-05-11T12:34:08Z</time>
      </trkpt>
      <trkpt lat="36.79676" lon="27.97881">
        <ele>20.283</ele>
        <time>2018-05-11T12:33:43Z</time>
      </trkpt>
      <trkpt lat="36.79675" lon="27.97869">
        <ele>19.326</ele>
        <time>2018-05-11T12:33:17Z</time>
      </trkpt>
      <trkpt lat="36.79671" lon="27.97858">
        <ele>19.646</ele>
        <time>2018-05-11T12:32:59Z</time>
      </trkpt>
      <trkpt lat="36.7967" lon="27.97857">
        <ele>20.121</ele>
        <time>2018-05-11T12:32:36Z</time>
      </trkpt>
      <trkpt lat="36.79663" lon="27.9785">
        <ele>20.818</ele>
        <time>2018-05-11T12:32:22Z</time>
      </trkpt>
      <trkpt lat="36.79657" lon="27.97837">
        <ele>19.112</ele>
        <time>2018-05-11T12:32:04Z</time>
      </trkpt>
      <trkpt lat="36.79656" lon="27.97832">
        <ele>18.046</ele>
        <time>2018-05-11T12:31:33Z</time>
      </trkpt>
      <trkpt lat="36.79652" lon="27.9783">
        <ele>18.193</ele>
        <time>2018-05-11T12:30:43Z</time>
      </trkpt>
      <trkpt lat="36.79645" lon="27.9783">
        <ele>19.113</ele>
        <time>2018-05-11T12:30:19Z</time>
      </trkpt>
      <trkpt lat="36.79635" lon="27.97827">
        <ele>19.472</ele>
        <time>2018-05-11T12:29:58Z</time>
      </trkpt>
      <trkpt lat="36.79626" lon="27.9782">
        <ele>18.139</ele>
        <time>2018-05-11T12:29:24Z</time>
      </trkpt>
      <trkpt lat="36.79618" lon="27.97816">
        <ele>17.797</ele>
        <time>2018-05-11T12:29:05Z</time>
      </trkpt>
      <trkpt lat="36.79611" lon="27.97811">
        <ele>16.616</ele>
        <time>2018-05-11T12:28:39Z</time>
      </trkpt>
      <trkpt lat="36.7961" lon="27.97805">
        <ele>15.156</ele>
        <time>2018-05-11T12:28:12Z</time>
      </trkpt>
      <trkpt lat="36.79596" lon="27.97788">
        <ele>14.431</ele>
        <time>2018-05-11T12:27:53Z</time>
      </trkpt>
      <trkpt lat="36.79597" lon="27.97782">
        <ele>13.137</ele>
        <time>2018-05-11T12:27:25Z</time>
      </trkpt>
      <trkpt lat="36.79601" lon="27.97773">
        <ele>11.337</ele>
        <time>2018-05-11T12:26:52Z</time>
      </trkpt>
      <trkpt lat="36.79605" lon="27.9776">
        <ele>9.122</ele>
        <time>2018-05-11T12:26:15Z</time>
      </trkpt>
      <trkpt lat="36.79603" lon="27.97745">
        <ele>8.33</ele>
        <time>2018-05-11T12:25:55Z</time>
      </trkpt>
      <trkpt lat="36.79602" lon="27.9774">
        <ele>8.258</ele>
        <time>2018-05-11T12:25:32Z</time>
      </trkpt>
      <trkpt lat="36.79601" lon="27.97732">
        <ele>8.087</ele>
        <time>2018-05-11T12:25:05Z</time>
      </trkpt>
      <trkpt lat="36.79596" lon="27.97716">
        <ele>7.636</ele>
        <time>2018-05-11T12:24:44Z</time>
      </trkpt>
      <trkpt lat="36.79587" lon="27.97713">
        <ele>8.042</ele>
        <time>2018-05-11T12:22:41Z</time>
      </trkpt>
      <trkpt lat="36.79583" lon="27.97706">
        <ele>7.931</ele>
        <time>2018-05-11T12:22:07Z</time>
      </trkpt>
      <trkpt lat="36.79582" lon="27.977">
        <ele>7.741</ele>
        <time>2018-05-11T12:21:39Z</time>
      </trkpt>
      <trkpt lat="36.79584" lon="27.97697">
        <ele>7.139</ele>
        <time>2018-05-11T12:21:05Z</time>
      </trkpt>
      <trkpt lat="36.79582" lon="27.97689">
        <ele>7.076</ele>
        <time>2018-05-11T12:20:45Z</time>
      </trkpt>
      <trkpt lat="36.79581" lon="27.97689">
        <ele>7.136</ele>
        <time>2018-05-11T12:20:33Z</time>
      </trkpt>
      <trkpt lat="36.79582" lon="27.97683">
        <ele>6.489</ele>
        <time>2018-05-11T12:20:05Z</time>
      </trkpt>
      <trkpt lat="36.79584" lon="27.97676">
        <ele>5.606</ele>
        <time>2018-05-11T12:19:44Z</time>
      </trkpt>
      <trkpt lat="36.79588" lon="27.97663">
        <ele>4.511</ele>
        <time>2018-05-11T12:19:15Z</time>
      </trkpt>
      <trkpt lat="36.7959" lon="27.97653">
        <ele>3.77</ele>
        <time>2018-05-11T12:18:57Z</time>
      </trkpt>
      <trkpt lat="36.7959" lon="27.97655">
        <ele>3.922</ele>
        <time>2018-05-11T12:18:37Z</time>
      </trkpt>
      <trkpt lat="36.79589" lon="27.97653">
        <ele>3.861</ele>
        <time>2018-05-11T12:18:17Z</time>
      </trkpt>
      <trkpt lat="36.79585" lon="27.97641">
        <ele>3.839</ele>
        <time>2018-05-11T12:17:59Z</time>
      </trkpt>
      <trkpt lat="36.79585" lon="27.97637">
        <ele>3.884</ele>
        <time>2018-05-11T12:17:37Z</time>
      </trkpt>
      <trkpt lat="36.79582" lon="27.97636">
        <ele>4.351</ele>
        <time>2018-05-11T12:17:12Z</time>
      </trkpt>
      <trkpt lat="36.79577" lon="27.97628">
        <ele>5.415</ele>
        <time>2018-05-11T12:16:57Z</time>
      </trkpt>
      <trkpt lat="36.79576" lon="27.97626">
        <ele>5.614</ele>
        <time>2018-05-11T12:16:53Z</time>
      </trkpt>
      <trkpt lat="36.79574" lon="27.97623">
        <ele>5.92</ele>
        <time>2018-05-11T12:16:42Z</time>
      </trkpt>
      <trkpt lat="36.79571" lon="27.9762">
        <ele>6.319</ele>
        <time>2018-05-11T12:16:05Z</time>
      </trkpt>
      <trkpt lat="36.7957" lon="27.97621">
        <ele>6.404</ele>
        <time>2018-05-11T12:15:43Z</time>
      </trkpt>
      <trkpt lat="36.79573" lon="27.97617">
        <ele>6.111</ele>
        <time>2018-05-11T12:13:02Z</time>
      </trkpt>
      <trkpt lat="36.79579" lon="27.97601">
        <ele>5.193</ele>
        <time>2018-05-11T12:12:37Z</time>
      </trkpt>
      <trkpt lat="36.7958" lon="27.97591">
        <ele>4.763</ele>
        <time>2018-05-11T12:12:15Z</time>
      </trkpt>
      <trkpt lat="36.79581" lon="27.9759">
        <ele>4.554</ele>
        <time>2018-05-11T12:11:53Z</time>
      </trkpt>
      <trkpt lat="36.7958" lon="27.97587">
        <ele>4.598</ele>
        <time>2018-05-11T12:11:35Z</time>
      </trkpt>
      <trkpt lat="36.79577" lon="27.9757">
        <ele>3.268</ele>
        <time>2018-05-11T12:11:16Z</time>
      </trkpt>
      <trkpt lat="36.79577" lon="27.97564">
        <ele>2.697</ele>
        <time>2018-05-11T12:11:12Z</time>
      </trkpt>
      <trkpt lat="36.79573" lon="27.97554">
        <ele>2.63</ele>
        <time>2018-05-11T12:11:05Z</time>
      </trkpt>
      <trkpt lat="36.79564" lon="27.97533">
        <ele>2.125</ele>
        <time>2018-05-11T12:10:49Z</time>
      </trkpt>
      <trkpt lat="36.79561" lon="27.97527">
        <ele>1.54</ele>
        <time>2018-05-11T12:10:22Z</time>
      </trkpt>
      <trkpt lat="36.79561" lon="27.9752">
        <ele>1.162</ele>
        <time>2018-05-11T12:10:07Z</time>
      </trkpt>
      <trkpt lat="36.79561" lon="27.97517">
        <ele>1.008</ele>
        <time>2018-05-11T12:09:45Z</time>
      </trkpt>
      <trkpt lat="36.79555" lon="27.97503">
        <ele>0.278</ele>
        <time>2018-05-11T12:09:20Z</time>
      </trkpt>
      <trkpt lat="36.79554" lon="27.97502">
        <ele>0.411</ele>
        <time>2018-05-11T12:09:19Z</time>
      </trkpt>
      <trkpt lat="36.79549" lon="27.9749">
        <ele>1.436</ele>
        <time>2018-05-11T12:09:02Z</time>
      </trkpt>
      <trkpt lat="36.79543" lon="27.9748">
        <ele>2.334</ele>
        <time>2018-05-11T12:08:54Z</time>
      </trkpt>
      <trkpt lat="36.79535" lon="27.97459">
        <ele>3.672</ele>
        <time>2018-05-11T12:08:39Z</time>
      </trkpt>
      <trkpt lat="36.79527" lon="27.97437">
        <ele>3.791</ele>
        <time>2018-05-11T12:08:20Z</time>
      </trkpt>
      <trkpt lat="36.79521" lon="27.97422">
        <ele>3.045</ele>
        <time>2018-05-11T12:07:53Z</time>
      </trkpt>
      <trkpt lat="36.79522" lon="27.97415">
        <ele>2.074</ele>
        <time>2018-05-11T12:07:33Z</time>
      </trkpt>
      <trkpt lat="36.79525" lon="27.97408">
        <ele>1.167</ele>
        <time>2018-05-11T12:06:58Z</time>
      </trkpt>
      <trkpt lat="36.79525" lon="27.97397">
        <ele>1.155</ele>
        <time>2018-05-11T12:06:34Z</time>
      </trkpt>
      <trkpt lat="36.79527" lon="27.9739">
        <ele>0.381</ele>
        <time>2018-05-11T12:06:03Z</time>
      </trkpt>
      <trkpt lat="36.79532" lon="27.97387">
        <ele>0.509</ele>
        <time>2018-05-11T12:05:32Z</time>
      </trkpt>
      <trkpt lat="36.79538" lon="27.97378">
        <ele>1.941</ele>
        <time>2018-05-11T12:05:08Z</time>
      </trkpt>
      <trkpt lat="36.79539" lon="27.97377">
        <ele>2.005</ele>
        <time>2018-05-11T12:04:42Z</time>
      </trkpt>
      <trkpt lat="36.79537" lon="27.97375">
        <ele>2.633</ele>
        <time>2018-05-11T12:04:13Z</time>
      </trkpt>
      <trkpt lat="36.79535" lon="27.9737">
        <ele>4.073</ele>
        <time>2018-05-11T12:03:57Z</time>
      </trkpt>
      <trkpt lat="36.79532" lon="27.97363">
        <ele>6.435</ele>
        <time>2018-05-11T12:03:53Z</time>
      </trkpt>
      <trkpt lat="36.79527" lon="27.97345">
        <ele>8.69</ele>
        <time>2018-05-11T12:03:41Z</time>
      </trkpt>
      <trkpt lat="36.79526" lon="27.97341">
        <ele>8.983</ele>
        <time>2018-05-11T12:03:38Z</time>
      </trkpt>
      <trkpt lat="36.79525" lon="27.97337">
        <ele>9.174</ele>
        <time>2018-05-11T12:03:36Z</time>
      </trkpt>
      <trkpt lat="36.79526" lon="27.97319">
        <ele>9.287</ele>
        <time>2018-05-11T12:03:25Z</time>
      </trkpt>
      <trkpt lat="36.79523" lon="27.97311">
        <ele>9.842</ele>
        <time>2018-05-11T12:03:20Z</time>
      </trkpt>
      <trkpt lat="36.79522" lon="27.97309">
        <ele>10.025</ele>
        <time>2018-05-11T12:03:08Z</time>
      </trkpt>
      <trkpt lat="36.7952" lon="27.97309">
        <ele>10.296</ele>
        <time>2018-05-11T12:02:45Z</time>
      </trkpt>
      <trkpt lat="36.79518" lon="27.9731">
        <ele>10.653</ele>
        <time>2018-05-11T12:02:43Z</time>
      </trkpt>
      <trkpt lat="36.79514" lon="27.97311">
        <ele>11.318</ele>
        <time>2018-05-11T12:02:29Z</time>
      </trkpt>
      <trkpt lat="36.79516" lon="27.97313">
        <ele>10.834</ele>
        <time>2018-05-11T12:02:01Z</time>
      </trkpt>
      <trkpt lat="36.79515" lon="27.97309">
        <ele>11.231</ele>
        <time>2018-05-11T12:01:31Z</time>
      </trkpt>
      <trkpt lat="36.79516" lon="27.97302">
        <ele>11.419</ele>
        <time>2018-05-11T12:01:01Z</time>
      </trkpt>
      <trkpt lat="36.7952" lon="27.97291">
        <ele>11.816</ele>
        <time>2018-05-11T12:00:44Z</time>
      </trkpt>
      <trkpt lat="36.79522" lon="27.97281">
        <ele>12.577</ele>
        <time>2018-05-11T12:00:25Z</time>
      </trkpt>
      <trkpt lat="36.7953" lon="27.97271">
        <ele>12.02</ele>
        <time>2018-05-11T11:59:52Z</time>
      </trkpt>
      <trkpt lat="36.79534" lon="27.97262">
        <ele>11.588</ele>
        <time>2018-05-11T11:59:46Z</time>
      </trkpt>
      <trkpt lat="36.79541" lon="27.97252">
        <ele>10.488</ele>
        <time>2018-05-11T11:59:17Z</time>
      </trkpt>
      <trkpt lat="36.79541" lon="27.97237">
        <ele>10.594</ele>
        <time>2018-05-11T11:58:54Z</time>
      </trkpt>
      <trkpt lat="36.79542" lon="27.9723">
        <ele>10.381</ele>
        <time>2018-05-11T11:58:50Z</time>
      </trkpt>
      <trkpt lat="36.79542" lon="27.97216">
        <ele>10.577</ele>
        <time>2018-05-11T11:58:29Z</time>
      </trkpt>
      <trkpt lat="36.7954" lon="27.97201">
        <ele>11.455</ele>
        <time>2018-05-11T11:58:09Z</time>
      </trkpt>
      <trkpt lat="36.79538" lon="27.97186">
        <ele>13.215</ele>
        <time>2018-05-11T11:57:50Z</time>
      </trkpt>
      <trkpt lat="36.7954" lon="27.97182">
        <ele>13.052</ele>
        <time>2018-05-11T11:57:24Z</time>
      </trkpt>
      <trkpt lat="36.79536" lon="27.9717">
        <ele>15.611</ele>
        <time>2018-05-11T11:57:09Z</time>
      </trkpt>
      <trkpt lat="36.79539" lon="27.97162">
        <ele>14.937</ele>
        <time>2018-05-11T11:56:53Z</time>
      </trkpt>
      <trkpt lat="36.7954" lon="27.97141">
        <ele>15.062</ele>
        <time>2018-05-11T11:56:33Z</time>
      </trkpt>
      <trkpt lat="36.79543" lon="27.97135">
        <ele>13.924</ele>
        <time>2018-05-11T11:56:13Z</time>
      </trkpt>
      <trkpt lat="36.79545" lon="27.97129">
        <ele>13.113</ele>
        <time>2018-05-11T11:55:45Z</time>
      </trkpt>
      <trkpt lat="36.79546" lon="27.97122">
        <ele>12.734</ele>
        <time>2018-05-11T11:55:23Z</time>
      </trkpt>
      <trkpt lat="36.79546" lon="27.97117">
        <ele>12.719</ele>
        <time>2018-05-11T11:55:03Z</time>
      </trkpt>
      <trkpt lat="36.7955" lon="27.97111">
        <ele>12.081</ele>
        <time>2018-05-11T11:54:42Z</time>
      </trkpt>
      <trkpt lat="36.79545" lon="27.97104">
        <ele>10.978</ele>
        <time>2018-05-11T11:54:28Z</time>
      </trkpt>
      <trkpt lat="36.79538" lon="27.97094">
        <ele>10.594</ele>
        <time>2018-05-11T11:53:52Z</time>
      </trkpt>
      <trkpt lat="36.79533" lon="27.97079">
        <ele>10.175</ele>
        <time>2018-05-11T11:53:30Z</time>
      </trkpt>
      <trkpt lat="36.79533" lon="27.97072">
        <ele>9.787</ele>
        <time>2018-05-11T11:53:17Z</time>
      </trkpt>
      <trkpt lat="36.79527" lon="27.97052">
        <ele>9.674</ele>
        <time>2018-05-11T11:53:01Z</time>
      </trkpt>
      <trkpt lat="36.79526" lon="27.9703">
        <ele>7.559</ele>
        <time>2018-05-11T11:52:42Z</time>
      </trkpt>
      <trkpt lat="36.79526" lon="27.97033">
        <ele>7.821</ele>
        <time>2018-05-11T11:52:11Z</time>
      </trkpt>
      <trkpt lat="36.79525" lon="27.97028">
        <ele>7.437</ele>
        <time>2018-05-11T11:51:44Z</time>
      </trkpt>
      <trkpt lat="36.7952" lon="27.97011">
        <ele>5.094</ele>
        <time>2018-05-11T11:51:24Z</time>
      </trkpt>
      <trkpt lat="36.79518" lon="27.96995">
        <ele>3.889</ele>
        <time>2018-05-11T11:51:11Z</time>
      </trkpt>
      <trkpt lat="36.79515" lon="27.96993">
        <ele>5.217</ele>
        <time>2018-05-11T11:51:00Z</time>
      </trkpt>
      <trkpt lat="36.79517" lon="27.96988">
        <ele>4.435</ele>
        <time>2018-05-11T11:50:36Z</time>
      </trkpt>
      <trkpt lat="36.79516" lon="27.9699">
        <ele>4.71</ele>
        <time>2018-05-11T11:49:36Z</time>
      </trkpt>
      <trkpt lat="36.79518" lon="27.96983">
        <ele>4.048</ele>
        <time>2018-05-11T11:48:40Z</time>
      </trkpt>
      <trkpt lat="36.79519" lon="27.96981">
        <ele>3.613</ele>
        <time>2018-05-11T11:48:14Z</time>
      </trkpt>
      <trkpt lat="36.79521" lon="27.96981">
        <ele>2.75</ele>
        <time>2018-05-11T10:45:15Z</time>
      </trkpt>
      <trkpt lat="36.79517" lon="27.96968">
        <ele>4.691</ele>
        <time>2018-05-11T10:45:01Z</time>
      </trkpt>
      <trkpt lat="36.79518" lon="27.96961">
        <ele>4.582</ele>
        <time>2018-05-11T10:44:55Z</time>
      </trkpt>
      <trkpt lat="36.79514" lon="27.96938">
        <ele>4.859</ele>
        <time>2018-05-11T10:44:35Z</time>
      </trkpt>
      <trkpt lat="36.79515" lon="27.96932">
        <ele>3.26</ele>
        <time>2018-05-11T10:44:30Z</time>
      </trkpt>
      <trkpt lat="36.79513" lon="27.96921">
        <ele>0.99</ele>
        <time>2018-05-11T10:44:23Z</time>
      </trkpt>
      <trkpt lat="36.79512" lon="27.96918">
        <ele>0.33</ele>
        <time>2018-05-11T10:44:18Z</time>
      </trkpt>
      <trkpt lat="36.79516" lon="27.96905">
        <ele>2.181</ele>
        <time>2018-05-11T10:43:56Z</time>
      </trkpt>
      <trkpt lat="36.79518" lon="27.96885">
        <ele>4.043</ele>
        <time>2018-05-11T10:43:39Z</time>
      </trkpt>
      <trkpt lat="36.79517" lon="27.96884">
        <ele>4.441</ele>
        <time>2018-05-11T10:43:11Z</time>
      </trkpt>
      <trkpt lat="36.79521" lon="27.96872">
        <ele>2.854</ele>
        <time>2018-05-11T10:42:51Z</time>
      </trkpt>
      <trkpt lat="36.79518" lon="27.96863">
        <ele>3.763</ele>
        <time>2018-05-11T10:42:26Z</time>
      </trkpt>
      <trkpt lat="36.79523" lon="27.96855">
        <ele>3.196</ele>
        <time>2018-05-11T10:42:06Z</time>
      </trkpt>
      <trkpt lat="36.7953" lon="27.96853">
        <ele>1.89</ele>
        <time>2018-05-11T10:41:43Z</time>
      </trkpt>
      <trkpt lat="36.79538" lon="27.96844">
        <ele>2.768</ele>
        <time>2018-05-11T10:41:14Z</time>
      </trkpt>
      <trkpt lat="36.79541" lon="27.96839">
        <ele>2.882</ele>
        <time>2018-05-11T10:40:49Z</time>
      </trkpt>
      <trkpt lat="36.79538" lon="27.96836">
        <ele>4.018</ele>
        <time>2018-05-11T10:40:22Z</time>
      </trkpt>
      <trkpt lat="36.79538" lon="27.96839">
        <ele>3.495</ele>
        <time>2018-05-11T10:39:40Z</time>
      </trkpt>
      <trkpt lat="36.79539" lon="27.9683">
        <ele>4.403</ele>
        <time>2018-05-11T10:39:14Z</time>
      </trkpt>
      <trkpt lat="36.79534" lon="27.96833">
        <ele>5.425</ele>
        <time>2018-05-11T10:38:44Z</time>
      </trkpt>
      <trkpt lat="36.79531" lon="27.96825">
        <ele>6.305</ele>
        <time>2018-05-11T10:38:19Z</time>
      </trkpt>
      <trkpt lat="36.79531" lon="27.96817">
        <ele>6.523</ele>
        <time>2018-05-11T10:38:03Z</time>
      </trkpt>
      <trkpt lat="36.79532" lon="27.96814">
        <ele>6.375</ele>
        <time>2018-05-11T10:37:52Z</time>
      </trkpt>
      <trkpt lat="36.79533" lon="27.96811">
        <ele>6.271</ele>
        <time>2018-05-11T10:37:17Z</time>
      </trkpt>
      <trkpt lat="36.79536" lon="27.96807">
        <ele>6.039</ele>
        <time>2018-05-11T10:36:48Z</time>
      </trkpt>
      <trkpt lat="36.79536" lon="27.96788">
        <ele>6.743</ele>
        <time>2018-05-11T10:36:29Z</time>
      </trkpt>
      <trkpt lat="36.79532" lon="27.96779">
        <ele>7.541</ele>
        <time>2018-05-11T10:36:18Z</time>
      </trkpt>
      <trkpt lat="36.79528" lon="27.96766">
        <ele>8.369</ele>
        <time>2018-05-11T10:35:54Z</time>
      </trkpt>
      <trkpt lat="36.7952" lon="27.96753">
        <ele>9.198</ele>
        <time>2018-05-11T10:35:38Z</time>
      </trkpt>
      <trkpt lat="36.79513" lon="27.96741">
        <ele>10.98</ele>
        <time>2018-05-11T10:35:19Z</time>
      </trkpt>
      <trkpt lat="36.79508" lon="27.96736">
        <ele>11.899</ele>
        <time>2018-05-11T10:34:58Z</time>
      </trkpt>
      <trkpt lat="36.795" lon="27.96729">
        <ele>12.99</ele>
        <time>2018-05-11T10:34:41Z</time>
      </trkpt>
      <trkpt lat="36.79497" lon="27.96729">
        <ele>12.986</ele>
        <time>2018-05-11T10:34:39Z</time>
      </trkpt>
      <trkpt lat="36.79496" lon="27.96722">
        <ele>13.828</ele>
        <time>2018-05-11T10:34:20Z</time>
      </trkpt>
      <trkpt lat="36.79494" lon="27.96711">
        <ele>15.259</ele>
        <time>2018-05-11T10:34:01Z</time>
      </trkpt>
      <trkpt lat="36.79493" lon="27.96705">
        <ele>16.071</ele>
        <time>2018-05-11T10:33:42Z</time>
      </trkpt>
      <trkpt lat="36.7949" lon="27.96702">
        <ele>16.243</ele>
        <time>2018-05-11T10:33:15Z</time>
      </trkpt>
      <trkpt lat="36.79484" lon="27.967">
        <ele>16.148</ele>
        <time>2018-05-11T10:32:55Z</time>
      </trkpt>
      <trkpt lat="36.79479" lon="27.96683">
        <ele>16.197</ele>
        <time>2018-05-11T10:32:37Z</time>
      </trkpt>
      <trkpt lat="36.79478" lon="27.96673">
        <ele>15.76</ele>
        <time>2018-05-11T10:32:15Z</time>
      </trkpt>
      <trkpt lat="36.79473" lon="27.96673">
        <ele>15.309</ele>
        <time>2018-05-11T10:31:53Z</time>
      </trkpt>
      <trkpt lat="36.79467" lon="27.96667">
        <ele>15.39</ele>
        <time>2018-05-11T10:31:29Z</time>
      </trkpt>
      <trkpt lat="36.79472" lon="27.96662">
        <ele>15.036</ele>
        <time>2018-05-11T10:31:08Z</time>
      </trkpt>
      <trkpt lat="36.79472" lon="27.96657">
        <ele>15.021</ele>
        <time>2018-05-11T10:30:48Z</time>
      </trkpt>
      <trkpt lat="36.79466" lon="27.96653">
        <ele>15.226</ele>
        <time>2018-05-11T10:30:29Z</time>
      </trkpt>
      <trkpt lat="36.79463" lon="27.96636">
        <ele>14.88</ele>
        <time>2018-05-11T10:30:12Z</time>
      </trkpt>
      <trkpt lat="36.79463" lon="27.96635">
        <ele>14.831</ele>
        <time>2018-05-11T10:30:02Z</time>
      </trkpt>
      <trkpt lat="36.79463" lon="27.9662">
        <ele>14.08</ele>
        <time>2018-05-11T10:28:45Z</time>
      </trkpt>
      <trkpt lat="36.79464" lon="27.96614">
        <ele>13.845</ele>
        <time>2018-05-11T10:27:32Z</time>
      </trkpt>
      <trkpt lat="36.79461" lon="27.96598">
        <ele>13.855</ele>
        <time>2018-05-11T10:27:16Z</time>
      </trkpt>
      <trkpt lat="36.79463" lon="27.96593">
        <ele>14.077</ele>
        <time>2018-05-11T10:27:06Z</time>
      </trkpt>
      <trkpt lat="36.79458" lon="27.96581">
        <ele>14.109</ele>
        <time>2018-05-11T10:26:10Z</time>
      </trkpt>
      <trkpt lat="36.79457" lon="27.96561">
        <ele>14.696</ele>
        <time>2018-05-11T10:25:55Z</time>
      </trkpt>
      <trkpt lat="36.79454" lon="27.96554">
        <ele>14.9</ele>
        <time>2018-05-11T10:25:48Z</time>
      </trkpt>
      <trkpt lat="36.79448" lon="27.96552">
        <ele>14.64</ele>
        <time>2018-05-11T10:25:31Z</time>
      </trkpt>
      <trkpt lat="36.79445" lon="27.96546">
        <ele>14.809</ele>
        <time>2018-05-11T10:25:27Z</time>
      </trkpt>
      <trkpt lat="36.79445" lon="27.96544">
        <ele>14.883</ele>
        <time>2018-05-11T10:25:21Z</time>
      </trkpt>
      <trkpt lat="36.79442" lon="27.96533">
        <ele>15.842</ele>
        <time>2018-05-11T10:25:09Z</time>
      </trkpt>
      <trkpt lat="36.7944" lon="27.96531">
        <ele>16.129</ele>
        <time>2018-05-11T10:25:07Z</time>
      </trkpt>
      <trkpt lat="36.7944" lon="27.96505">
        <ele>19.376</ele>
        <time>2018-05-11T10:24:50Z</time>
      </trkpt>
      <trkpt lat="36.79437" lon="27.96502">
        <ele>19.751</ele>
        <time>2018-05-11T10:24:12Z</time>
      </trkpt>
      <trkpt lat="36.79439" lon="27.96491">
        <ele>20.7</ele>
        <time>2018-05-11T10:23:56Z</time>
      </trkpt>
      <trkpt lat="36.79439" lon="27.96483">
        <ele>21.381</ele>
        <time>2018-05-11T10:23:51Z</time>
      </trkpt>
      <trkpt lat="36.79439" lon="27.96476">
        <ele>21.825</ele>
        <time>2018-05-11T10:23:28Z</time>
      </trkpt>
      <trkpt lat="36.79431" lon="27.96464">
        <ele>21.597</ele>
        <time>2018-05-11T10:23:12Z</time>
      </trkpt>
      <trkpt lat="36.79429" lon="27.96462">
        <ele>21.476</ele>
        <time>2018-05-11T10:23:10Z</time>
      </trkpt>
      <trkpt lat="36.7943" lon="27.96456">
        <ele>22.089</ele>
        <time>2018-05-11T10:22:47Z</time>
      </trkpt>
      <trkpt lat="36.79431" lon="27.9644">
        <ele>23.369</ele>
        <time>2018-05-11T10:22:31Z</time>
      </trkpt>
      <trkpt lat="36.79428" lon="27.96438">
        <ele>23.257</ele>
        <time>2018-05-11T10:22:09Z</time>
      </trkpt>
      <trkpt lat="36.79423" lon="27.96419">
        <ele>24.485</ele>
        <time>2018-05-11T10:21:22Z</time>
      </trkpt>
      <trkpt lat="36.79419" lon="27.96412">
        <ele>24.656</ele>
        <time>2018-05-11T10:21:05Z</time>
      </trkpt>
      <trkpt lat="36.7942" lon="27.96408">
        <ele>24.992</ele>
        <time>2018-05-11T10:21:01Z</time>
      </trkpt>
      <trkpt lat="36.79421" lon="27.96399">
        <ele>25.795</ele>
        <time>2018-05-11T10:20:54Z</time>
      </trkpt>
      <trkpt lat="36.79421" lon="27.96396">
        <ele>26.104</ele>
        <time>2018-05-11T10:20:51Z</time>
      </trkpt>
      <trkpt lat="36.79424" lon="27.96397">
        <ele>26.358</ele>
        <time>2018-05-11T10:20:34Z</time>
      </trkpt>
      <trkpt lat="36.79429" lon="27.96384">
        <ele>28.178</ele>
        <time>2018-05-11T10:20:21Z</time>
      </trkpt>
      <trkpt lat="36.79426" lon="27.96378">
        <ele>28.215</ele>
        <time>2018-05-11T10:20:04Z</time>
      </trkpt>
      <trkpt lat="36.79425" lon="27.96369">
        <ele>28.915</ele>
        <time>2018-05-11T10:19:43Z</time>
      </trkpt>
      <trkpt lat="36.79422" lon="27.96367">
        <ele>28.568</ele>
        <time>2018-05-11T10:19:29Z</time>
      </trkpt>
      <trkpt lat="36.79415" lon="27.96346">
        <ele>28.931</ele>
        <time>2018-05-11T10:19:12Z</time>
      </trkpt>
      <trkpt lat="36.79411" lon="27.96334">
        <ele>29.423</ele>
        <time>2018-05-11T10:19:05Z</time>
      </trkpt>
      <trkpt lat="36.79412" lon="27.96332">
        <ele>29.582</ele>
        <time>2018-05-11T10:18:50Z</time>
      </trkpt>
      <trkpt lat="36.79413" lon="27.96333">
        <ele>29.567</ele>
        <time>2018-05-11T10:18:26Z</time>
      </trkpt>
      <trkpt lat="36.79411" lon="27.96325">
        <ele>29.888</ele>
        <time>2018-05-11T10:18:02Z</time>
      </trkpt>
      <trkpt lat="36.79407" lon="27.96313">
        <ele>30.092</ele>
        <time>2018-05-11T10:17:44Z</time>
      </trkpt>
      <trkpt lat="36.79406" lon="27.96308">
        <ele>30.336</ele>
        <time>2018-05-11T10:17:39Z</time>
      </trkpt>
      <trkpt lat="36.79405" lon="27.96307">
        <ele>30.242</ele>
        <time>2018-05-11T10:17:30Z</time>
      </trkpt>
      <trkpt lat="36.79398" lon="27.96299">
        <ele>29.617</ele>
        <time>2018-05-11T10:17:03Z</time>
      </trkpt>
      <trkpt lat="36.79398" lon="27.96294">
        <ele>29.895</ele>
        <time>2018-05-11T10:16:44Z</time>
      </trkpt>
      <trkpt lat="36.79401" lon="27.96284">
        <ele>30.568</ele>
        <time>2018-05-11T10:16:25Z</time>
      </trkpt>
      <trkpt lat="36.79401" lon="27.96279">
        <ele>30.827</ele>
        <time>2018-05-11T10:16:10Z</time>
      </trkpt>
      <trkpt lat="36.79401" lon="27.96267">
        <ele>31.493</ele>
        <time>2018-05-11T10:15:56Z</time>
      </trkpt>
      <trkpt lat="36.79401" lon="27.9626">
        <ele>31.836</ele>
        <time>2018-05-11T10:15:51Z</time>
      </trkpt>
      <trkpt lat="36.79397" lon="27.96257">
        <ele>31.883</ele>
        <time>2018-05-11T10:15:31Z</time>
      </trkpt>
      <trkpt lat="36.79397" lon="27.96252">
        <ele>32.145</ele>
        <time>2018-05-11T10:15:08Z</time>
      </trkpt>
      <trkpt lat="36.79395" lon="27.96244">
        <ele>32.761</ele>
        <time>2018-05-11T10:14:52Z</time>
      </trkpt>
      <trkpt lat="36.79396" lon="27.96233">
        <ele>33.617</ele>
        <time>2018-05-11T10:14:33Z</time>
      </trkpt>
      <trkpt lat="36.79393" lon="27.96227">
        <ele>34.251</ele>
        <time>2018-05-11T10:14:08Z</time>
      </trkpt>
      <trkpt lat="36.79389" lon="27.96221">
        <ele>35.15</ele>
        <time>2018-05-11T10:13:54Z</time>
      </trkpt>
      <trkpt lat="36.79391" lon="27.96216">
        <ele>35.556</ele>
        <time>2018-05-11T10:13:37Z</time>
      </trkpt>
      <trkpt lat="36.79391" lon="27.96208">
        <ele>36.437</ele>
        <time>2018-05-11T10:13:21Z</time>
      </trkpt>
      <trkpt lat="36.79388" lon="27.962">
        <ele>37.527</ele>
        <time>2018-05-11T10:12:55Z</time>
      </trkpt>
      <trkpt lat="36.79385" lon="27.96194">
        <ele>38.769</ele>
        <time>2018-05-11T10:12:36Z</time>
      </trkpt>
      <trkpt lat="36.79384" lon="27.96191">
        <ele>39.314</ele>
        <time>2018-05-11T10:12:33Z</time>
      </trkpt>
      <trkpt lat="36.79384" lon="27.96189">
        <ele>39.519</ele>
        <time>2018-05-11T10:12:25Z</time>
      </trkpt>
      <trkpt lat="36.79378" lon="27.96179">
        <ele>41.309</ele>
        <time>2018-05-11T10:12:06Z</time>
      </trkpt>
      <trkpt lat="36.79376" lon="27.96176">
        <ele>41.787</ele>
        <time>2018-05-11T10:12:03Z</time>
      </trkpt>
      <trkpt lat="36.79371" lon="27.9617">
        <ele>42.508</ele>
        <time>2018-05-11T10:11:55Z</time>
      </trkpt>
      <trkpt lat="36.79368" lon="27.96165">
        <ele>43.067</ele>
        <time>2018-05-11T10:11:50Z</time>
      </trkpt>
      <trkpt lat="36.79367" lon="27.96166">
        <ele>42.909</ele>
        <time>2018-05-11T10:11:37Z</time>
      </trkpt>
      <trkpt lat="36.79365" lon="27.96163">
        <ele>43.399</ele>
        <time>2018-05-11T10:10:58Z</time>
      </trkpt>
      <trkpt lat="36.79355" lon="27.9615">
        <ele>46.442</ele>
        <time>2018-05-11T10:10:37Z</time>
      </trkpt>
      <trkpt lat="36.79352" lon="27.96149">
        <ele>47.275</ele>
        <time>2018-05-11T10:10:20Z</time>
      </trkpt>
      <trkpt lat="36.79349" lon="27.96148">
        <ele>47.792</ele>
        <time>2018-05-11T10:09:53Z</time>
      </trkpt>
      <trkpt lat="36.79343" lon="27.96143">
        <ele>49.38</ele>
        <time>2018-05-11T10:09:40Z</time>
      </trkpt>
      <trkpt lat="36.79341" lon="27.96134">
        <ele>50.449</ele>
        <time>2018-05-11T10:09:35Z</time>
      </trkpt>
      <trkpt lat="36.79342" lon="27.96128">
        <ele>51.018</ele>
        <time>2018-05-11T10:09:23Z</time>
      </trkpt>
      <trkpt lat="36.79338" lon="27.9612">
        <ele>52.138</ele>
        <time>2018-05-11T10:08:16Z</time>
      </trkpt>
      <trkpt lat="36.79336" lon="27.96117">
        <ele>52.536</ele>
        <time>2018-05-11T10:07:59Z</time>
      </trkpt>
      <trkpt lat="36.79336" lon="27.96103">
        <ele>53.949</ele>
        <time>2018-05-11T10:07:35Z</time>
      </trkpt>
      <trkpt lat="36.79336" lon="27.96079">
        <ele>56.433</ele>
        <time>2018-05-11T10:07:19Z</time>
      </trkpt>
      <trkpt lat="36.79335" lon="27.96074">
        <ele>56.796</ele>
        <time>2018-05-11T10:07:01Z</time>
      </trkpt>
      <trkpt lat="36.79332" lon="27.96057">
        <ele>58.013</ele>
        <time>2018-05-11T10:06:41Z</time>
      </trkpt>
      <trkpt lat="36.79331" lon="27.96052">
        <ele>58.598</ele>
        <time>2018-05-11T10:06:38Z</time>
      </trkpt>
      <trkpt lat="36.7933" lon="27.96049">
        <ele>59.106</ele>
        <time>2018-05-11T10:06:28Z</time>
      </trkpt>
      <trkpt lat="36.79328" lon="27.96044">
        <ele>59.749</ele>
        <time>2018-05-11T10:06:11Z</time>
      </trkpt>
      <trkpt lat="36.7933" lon="27.96037">
        <ele>60.301</ele>
        <time>2018-05-11T10:05:50Z</time>
      </trkpt>
      <trkpt lat="36.79333" lon="27.9603">
        <ele>60.786</ele>
        <time>2018-05-11T10:05:44Z</time>
      </trkpt>
      <trkpt lat="36.79337" lon="27.96016">
        <ele>59.97</ele>
        <time>2018-05-11T10:05:22Z</time>
      </trkpt>
      <trkpt lat="36.79336" lon="27.96008">
        <ele>59.044</ele>
        <time>2018-05-11T10:05:01Z</time>
      </trkpt>
      <trkpt lat="36.79338" lon="27.95997">
        <ele>57.825</ele>
        <time>2018-05-11T10:04:45Z</time>
      </trkpt>
      <trkpt lat="36.7934" lon="27.95982">
        <ele>55.4</ele>
        <time>2018-05-11T10:04:33Z</time>
      </trkpt>
      <trkpt lat="36.79343" lon="27.95976">
        <ele>54.273</ele>
        <time>2018-05-11T10:04:16Z</time>
      </trkpt>
      <trkpt lat="36.79341" lon="27.95967">
        <ele>52.513</ele>
        <time>2018-05-11T10:03:59Z</time>
      </trkpt>
      <trkpt lat="36.79347" lon="27.95959">
        <ele>50.436</ele>
        <time>2018-05-11T10:03:52Z</time>
      </trkpt>
      <trkpt lat="36.79347" lon="27.9596">
        <ele>50.616</ele>
        <time>2018-05-11T10:03:33Z</time>
      </trkpt>
      <trkpt lat="36.79346" lon="27.95954">
        <ele>49.394</ele>
        <time>2018-05-11T10:03:10Z</time>
      </trkpt>
      <trkpt lat="36.79351" lon="27.95953">
        <ele>48.627</ele>
        <time>2018-05-11T10:02:43Z</time>
      </trkpt>
      <trkpt lat="36.79355" lon="27.95948">
        <ele>46.917</ele>
        <time>2018-05-11T10:02:11Z</time>
      </trkpt>
      <trkpt lat="36.79351" lon="27.9594">
        <ele>45.504</ele>
        <time>2018-05-11T10:01:45Z</time>
      </trkpt>
      <trkpt lat="36.79349" lon="27.95932">
        <ele>44.45</ele>
        <time>2018-05-11T10:01:28Z</time>
      </trkpt>
      <trkpt lat="36.79349" lon="27.95928">
        <ele>43.676</ele>
        <time>2018-05-11T10:01:04Z</time>
      </trkpt>
      <trkpt lat="36.79347" lon="27.95912">
        <ele>41.207</ele>
        <time>2018-05-11T10:00:45Z</time>
      </trkpt>
      <trkpt lat="36.79347" lon="27.95908">
        <ele>40.547</ele>
        <time>2018-05-11T10:00:27Z</time>
      </trkpt>
      <trkpt lat="36.79347" lon="27.95893">
        <ele>37.802</ele>
        <time>2018-05-11T10:00:03Z</time>
      </trkpt>
      <trkpt lat="36.79343" lon="27.95882">
        <ele>36.802</ele>
        <time>2018-05-11T09:59:24Z</time>
      </trkpt>
      <trkpt lat="36.79341" lon="27.95878">
        <ele>36.68</ele>
        <time>2018-05-11T09:59:04Z</time>
      </trkpt>
      <trkpt lat="36.7934" lon="27.95865">
        <ele>35.79</ele>
        <time>2018-05-11T09:58:40Z</time>
      </trkpt>
      <trkpt lat="36.79342" lon="27.95858">
        <ele>34.979</ele>
        <time>2018-05-11T09:58:22Z</time>
      </trkpt>
      <trkpt lat="36.79344" lon="27.95854">
        <ele>34.32</ele>
        <time>2018-05-11T09:57:59Z</time>
      </trkpt>
      <trkpt lat="36.79347" lon="27.95846">
        <ele>33.058</ele>
        <time>2018-05-11T09:57:42Z</time>
      </trkpt>
      <trkpt lat="36.79349" lon="27.95839">
        <ele>32.159</ele>
        <time>2018-05-11T09:57:04Z</time>
      </trkpt>
      <trkpt lat="36.79351" lon="27.95831">
        <ele>31.091</ele>
        <time>2018-05-11T09:56:42Z</time>
      </trkpt>
      <trkpt lat="36.79356" lon="27.95821">
        <ele>29.535</ele>
        <time>2018-05-11T09:56:25Z</time>
      </trkpt>
      <trkpt lat="36.79355" lon="27.95814">
        <ele>28.523</ele>
        <time>2018-05-11T09:55:53Z</time>
      </trkpt>
      <trkpt lat="36.79356" lon="27.95802">
        <ele>26.782</ele>
        <time>2018-05-11T09:55:31Z</time>
      </trkpt>
      <trkpt lat="36.79356" lon="27.95795">
        <ele>25.755</ele>
        <time>2018-05-11T09:55:12Z</time>
      </trkpt>
      <trkpt lat="36.79359" lon="27.95791">
        <ele>24.956</ele>
        <time>2018-05-11T09:54:57Z</time>
      </trkpt>
      <trkpt lat="36.79359" lon="27.9578">
        <ele>23.29</ele>
        <time>2018-05-11T09:54:40Z</time>
      </trkpt>
      <trkpt lat="36.79359" lon="27.95771">
        <ele>22.277</ele>
        <time>2018-05-11T09:54:19Z</time>
      </trkpt>
      <trkpt lat="36.7936" lon="27.95768">
        <ele>21.981</ele>
        <time>2018-05-11T09:54:03Z</time>
      </trkpt>
      <trkpt lat="36.79361" lon="27.95759">
        <ele>21.019</ele>
        <time>2018-05-11T09:53:39Z</time>
      </trkpt>
      <trkpt lat="36.79367" lon="27.95755">
        <ele>20.806</ele>
        <time>2018-05-11T09:53:19Z</time>
      </trkpt>
      <trkpt lat="36.79374" lon="27.95745">
        <ele>19.911</ele>
        <time>2018-05-11T09:52:55Z</time>
      </trkpt>
      <trkpt lat="36.79373" lon="27.95741">
        <ele>19.546</ele>
        <time>2018-05-11T09:52:43Z</time>
      </trkpt>
      <trkpt lat="36.79375" lon="27.95734">
        <ele>18.746</ele>
        <time>2018-05-11T09:52:04Z</time>
      </trkpt>
      <trkpt lat="36.79379" lon="27.95728">
        <ele>18.025</ele>
        <time>2018-05-11T09:51:26Z</time>
      </trkpt>
      <trkpt lat="36.79386" lon="27.95726">
        <ele>17.657</ele>
        <time>2018-05-11T09:51:06Z</time>
      </trkpt>
      <trkpt lat="36.79386" lon="27.95725">
        <ele>17.521</ele>
        <time>2018-05-11T09:50:41Z</time>
      </trkpt>
      <trkpt lat="36.7939" lon="27.95715">
        <ele>16.815</ele>
        <time>2018-05-11T09:50:14Z</time>
      </trkpt>
      <trkpt lat="36.79395" lon="27.9571">
        <ele>16.824</ele>
        <time>2018-05-11T09:49:52Z</time>
      </trkpt>
      <trkpt lat="36.79403" lon="27.95697">
        <ele>15.806</ele>
        <time>2018-05-11T09:49:42Z</time>
      </trkpt>
      <trkpt lat="36.79402" lon="27.95695">
        <ele>15.583</ele>
        <time>2018-05-11T09:49:36Z</time>
      </trkpt>
      <trkpt lat="36.79407" lon="27.95686">
        <ele>14.548</ele>
        <time>2018-05-11T09:49:19Z</time>
      </trkpt>
      <trkpt lat="36.79409" lon="27.95681">
        <ele>13.925</ele>
        <time>2018-05-11T09:49:15Z</time>
      </trkpt>
      <trkpt lat="36.79413" lon="27.95675">
        <ele>13.191</ele>
        <time>2018-05-11T09:48:50Z</time>
      </trkpt>
      <trkpt lat="36.79412" lon="27.95675">
        <ele>13.114</ele>
        <time>2018-05-11T09:48:36Z</time>
      </trkpt>
      <trkpt lat="36.79422" lon="27.95663">
        <ele>12.211</ele>
        <time>2018-05-11T09:47:58Z</time>
      </trkpt>
      <trkpt lat="36.7943" lon="27.95655">
        <ele>12.399</ele>
        <time>2018-05-11T09:47:40Z</time>
      </trkpt>
      <trkpt lat="36.79434" lon="27.95656">
        <ele>12.877</ele>
        <time>2018-05-11T09:47:18Z</time>
      </trkpt>
      <trkpt lat="36.79441" lon="27.95653">
        <ele>13.265</ele>
        <time>2018-05-11T09:46:56Z</time>
      </trkpt>
      <trkpt lat="36.79445" lon="27.95643">
        <ele>12.496</ele>
        <time>2018-05-11T09:46:35Z</time>
      </trkpt>
      <trkpt lat="36.79444" lon="27.95643">
        <ele>12.388</ele>
        <time>2018-05-11T09:46:34Z</time>
      </trkpt>
      <trkpt lat="36.79452" lon="27.95639">
        <ele>12.267</ele>
        <time>2018-05-11T09:46:15Z</time>
      </trkpt>
      <trkpt lat="36.79462" lon="27.9563">
        <ele>12.226</ele>
        <time>2018-05-11T09:44:58Z</time>
      </trkpt>
      <trkpt lat="36.79472" lon="27.95626">
        <ele>12.059</ele>
        <time>2018-05-11T09:44:42Z</time>
      </trkpt>
      <trkpt lat="36.79473" lon="27.95626">
        <ele>12.07</ele>
        <time>2018-05-11T09:44:11Z</time>
      </trkpt>
      <trkpt lat="36.79477" lon="27.95625">
        <ele>12.107</ele>
        <time>2018-05-11T09:43:51Z</time>
      </trkpt>
      <trkpt lat="36.79483" lon="27.9561">
        <ele>10.514</ele>
        <time>2018-05-11T09:43:31Z</time>
      </trkpt>
      <trkpt lat="36.79485" lon="27.9561">
        <ele>10.446</ele>
        <time>2018-05-11T09:42:56Z</time>
      </trkpt>
      <trkpt lat="36.79498" lon="27.95602">
        <ele>9.099</ele>
        <time>2018-05-11T09:42:37Z</time>
      </trkpt>
      <trkpt lat="36.79501" lon="27.956">
        <ele>8.796</ele>
        <time>2018-05-11T09:42:34Z</time>
      </trkpt>
      <trkpt lat="36.79505" lon="27.95597">
        <ele>8.431</ele>
        <time>2018-05-11T09:42:26Z</time>
      </trkpt>
      <trkpt lat="36.79506" lon="27.95591">
        <ele>7.86</ele>
        <time>2018-05-11T09:42:12Z</time>
      </trkpt>
      <trkpt lat="36.79509" lon="27.95592">
        <ele>7.98</ele>
        <time>2018-05-11T09:42:01Z</time>
      </trkpt>
      <trkpt lat="36.79512" lon="27.95588">
        <ele>7.463</ele>
        <time>2018-05-11T09:41:48Z</time>
      </trkpt>
      <trkpt lat="36.79513" lon="27.95587">
        <ele>7.425</ele>
        <time>2018-05-11T09:41:47Z</time>
      </trkpt>
      <trkpt lat="36.79526" lon="27.95577">
        <ele>6.784</ele>
        <time>2018-05-11T09:41:33Z</time>
      </trkpt>
      <trkpt lat="36.7953" lon="27.95576">
        <ele>6.747</ele>
        <time>2018-05-11T09:41:18Z</time>
      </trkpt>
      <trkpt lat="36.79536" lon="27.9557">
        <ele>6.667</ele>
        <time>2018-05-11T09:40:56Z</time>
      </trkpt>
      <trkpt lat="36.79544" lon="27.95566">
        <ele>6.735</ele>
        <time>2018-05-11T09:40:46Z</time>
      </trkpt>
      <trkpt lat="36.79544" lon="27.95562">
        <ele>6.691</ele>
        <time>2018-05-11T09:40:32Z</time>
      </trkpt>
      <trkpt lat="36.79545" lon="27.95558">
        <ele>6.661</ele>
        <time>2018-05-11T09:39:59Z</time>
      </trkpt>
      <trkpt lat="36.79548" lon="27.95556">
        <ele>6.741</ele>
        <time>2018-05-11T09:39:34Z</time>
      </trkpt>
      <trkpt lat="36.79558" lon="27.95551">
        <ele>7.51</ele>
        <time>2018-05-11T09:38:52Z</time>
      </trkpt>
      <trkpt lat="36.79561" lon="27.9555">
        <ele>7.684</ele>
        <time>2018-05-11T09:38:48Z</time>
      </trkpt>
      <trkpt lat="36.79566" lon="27.95547">
        <ele>8.021</ele>
        <time>2018-05-11T09:38:36Z</time>
      </trkpt>
      <trkpt lat="36.79573" lon="27.95544">
        <ele>8.307</ele>
        <time>2018-05-11T09:38:05Z</time>
      </trkpt>
      <trkpt lat="36.79581" lon="27.95534">
        <ele>8.247</ele>
        <time>2018-05-11T09:37:43Z</time>
      </trkpt>
      <trkpt lat="36.7958" lon="27.95533">
        <ele>8.233</ele>
        <time>2018-05-11T09:37:21Z</time>
      </trkpt>
      <trkpt lat="36.79591" lon="27.95521">
        <ele>8.876</ele>
        <time>2018-05-11T09:37:00Z</time>
      </trkpt>
      <trkpt lat="36.79594" lon="27.95519">
        <ele>9.122</ele>
        <time>2018-05-11T09:36:19Z</time>
      </trkpt>
      <trkpt lat="36.7961" lon="27.95519">
        <ele>9.965</ele>
        <time>2018-05-11T09:36:04Z</time>
      </trkpt>
      <trkpt lat="36.79611" lon="27.95518">
        <ele>10.014</ele>
        <time>2018-05-11T09:35:06Z</time>
      </trkpt>
      <trkpt lat="36.79616" lon="27.95515">
        <ele>10.396</ele>
        <time>2018-05-11T09:34:42Z</time>
      </trkpt>
      <trkpt lat="36.79616" lon="27.95502">
        <ele>10.472</ele>
        <time>2018-05-11T09:34:20Z</time>
      </trkpt>
      <trkpt lat="36.79617" lon="27.95501">
        <ele>10.615</ele>
        <time>2018-05-11T09:33:38Z</time>
      </trkpt>
      <trkpt lat="36.7962" lon="27.95495">
        <ele>11.362</ele>
        <time>2018-05-11T09:33:16Z</time>
      </trkpt>
      <trkpt lat="36.7962" lon="27.95492">
        <ele>11.655</ele>
        <time>2018-05-11T09:32:58Z</time>
      </trkpt>
      <trkpt lat="36.79643" lon="27.95485">
        <ele>13.841</ele>
        <time>2018-05-11T09:32:36Z</time>
      </trkpt>
      <trkpt lat="36.79647" lon="27.95491">
        <ele>13.908</ele>
        <time>2018-05-11T09:32:16Z</time>
      </trkpt>
      <trkpt lat="36.79653" lon="27.95489">
        <ele>14.435</ele>
        <time>2018-05-11T09:28:49Z</time>
      </trkpt>
      <trkpt lat="36.79657" lon="27.9549">
        <ele>14.676</ele>
        <time>2018-05-11T09:27:10Z</time>
      </trkpt>
      <trkpt lat="36.7967" lon="27.95489">
        <ele>15.333</ele>
        <time>2018-05-11T09:26:58Z</time>
      </trkpt>
      <trkpt lat="36.79677" lon="27.95491">
        <ele>15.197</ele>
        <time>2018-05-11T09:26:23Z</time>
      </trkpt>
      <trkpt lat="36.7968" lon="27.95493">
        <ele>15.135</ele>
        <time>2018-05-11T09:26:10Z</time>
      </trkpt>
      <trkpt lat="36.79692" lon="27.95493">
        <ele>15.022</ele>
        <time>2018-05-11T09:25:53Z</time>
      </trkpt>
      <trkpt lat="36.79694" lon="27.95485">
        <ele>15.012</ele>
        <time>2018-05-11T09:25:21Z</time>
      </trkpt>
      <trkpt lat="36.79697" lon="27.95479">
        <ele>14.318</ele>
        <time>2018-05-11T09:24:47Z</time>
      </trkpt>
      <trkpt lat="36.79694" lon="27.95477">
        <ele>15.001</ele>
        <time>2018-05-11T09:24:28Z</time>
      </trkpt>
      <trkpt lat="36.79695" lon="27.95476">
        <ele>14.831</ele>
        <time>2018-05-11T09:23:57Z</time>
      </trkpt>
      <trkpt lat="36.79699" lon="27.95466">
        <ele>15.124</ele>
        <time>2018-05-11T09:23:32Z</time>
      </trkpt>
      <trkpt lat="36.797" lon="27.95469">
        <ele>14.617</ele>
        <time>2018-05-11T09:22:58Z</time>
      </trkpt>
      <trkpt lat="36.79703" lon="27.95464">
        <ele>14.773</ele>
        <time>2018-05-11T09:22:39Z</time>
      </trkpt>
      <trkpt lat="36.79709" lon="27.95462">
        <ele>14.169</ele>
        <time>2018-05-11T09:22:33Z</time>
      </trkpt>
      <trkpt lat="36.79713" lon="27.95458">
        <ele>14.26</ele>
        <time>2018-05-11T09:22:17Z</time>
      </trkpt>
      <trkpt lat="36.79717" lon="27.95461">
        <ele>13.305</ele>
        <time>2018-05-11T09:21:45Z</time>
      </trkpt>
      <trkpt lat="36.7973" lon="27.95447">
        <ele>10.472</ele>
        <time>2018-05-11T09:21:24Z</time>
      </trkpt>
      <trkpt lat="36.79735" lon="27.95441">
        <ele>8.544</ele>
        <time>2018-05-11T09:20:54Z</time>
      </trkpt>
      <trkpt lat="36.79741" lon="27.95425">
        <ele>5.951</ele>
        <time>2018-05-11T09:20:32Z</time>
      </trkpt>
      <trkpt lat="36.79742" lon="27.95424">
        <ele>5.584</ele>
        <time>2018-05-11T09:19:00Z</time>
      </trkpt>
      <trkpt lat="36.79745" lon="27.95418">
        <ele>3.676</ele>
        <time>2018-05-11T09:18:28Z</time>
      </trkpt>
      <trkpt lat="36.79751" lon="27.95399">
        <ele>6</ele>
        <time>2018-05-11T09:18:12Z</time>
      </trkpt>
      <trkpt lat="36.7975" lon="27.95389">
        <ele>0.028</ele>
        <time>2018-05-11T09:17:49Z</time>
      </trkpt>
      <trkpt lat="36.79751" lon="27.95378">
        <ele>6</ele>
        <time>2018-05-11T09:17:24Z</time>
      </trkpt>
      <trkpt lat="36.79749" lon="27.9537">
        <ele>0.554</ele>
        <time>2018-05-11T09:17:05Z</time>
      </trkpt>
      <trkpt lat="36.79746" lon="27.95367">
        <ele>2.811</ele>
        <time>2018-05-11T09:17:01Z</time>
      </trkpt>
      <trkpt lat="36.79745" lon="27.95365">
        <ele>3.559</ele>
        <time>2018-05-11T09:16:39Z</time>
      </trkpt>
      <trkpt lat="36.79745" lon="27.95365">
        <ele>3.565</ele>
        <time>2018-05-11T09:16:11Z</time>
      </trkpt>
      <trkpt lat="36.79744" lon="27.95357">
        <ele>4.557</ele>
        <time>2018-05-11T09:15:42Z</time>
      </trkpt>
      <trkpt lat="36.79744" lon="27.9535">
        <ele>4.332</ele>
        <time>2018-05-11T09:15:22Z</time>
      </trkpt>
      <trkpt lat="36.79735" lon="27.95332">
        <ele>9.148</ele>
        <time>2018-05-11T09:14:57Z</time>
      </trkpt>
      <trkpt lat="36.7973" lon="27.95315">
        <ele>10.111</ele>
        <time>2018-05-11T09:14:35Z</time>
      </trkpt>
      <trkpt lat="36.79729" lon="27.95305">
        <ele>8.814</ele>
        <time>2018-05-11T09:13:56Z</time>
      </trkpt>
      <trkpt lat="36.79728" lon="27.95296">
        <ele>6.399</ele>
        <time>2018-05-11T09:13:41Z</time>
      </trkpt>
      <trkpt lat="36.79724" lon="27.95286">
        <ele>3.375</ele>
        <time>2018-05-11T09:13:18Z</time>
      </trkpt>
      <trkpt lat="36.79723" lon="27.95287">
        <ele>3.827</ele>
        <time>2018-05-11T09:12:43Z</time>
      </trkpt>
      <trkpt lat="36.79724" lon="27.9528">
        <ele>0.915</ele>
        <time>2018-05-11T09:12:15Z</time>
      </trkpt>
      <trkpt lat="36.79727" lon="27.95275">
        <ele>19.7</ele>
        <time>2018-05-11T09:11:48Z</time>
      </trkpt>
      <trkpt lat="36.79723" lon="27.95269">
        <ele>20.8</ele>
        <time>2018-05-11T09:09:34Z</time>
      </trkpt>
      <trkpt lat="36.79723" lon="27.95267">
        <ele>21</ele>
        <time>2018-05-11T09:09:09Z</time>
      </trkpt>
      <trkpt lat="36.7972" lon="27.95262">
        <ele>1.462</ele>
        <time>2018-05-11T09:08:40Z</time>
      </trkpt>
      <trkpt lat="36.79712" lon="27.95242">
        <ele>5.341</ele>
        <time>2018-05-11T09:08:11Z</time>
      </trkpt>
      <trkpt lat="36.79708" lon="27.95233">
        <ele>6.309</ele>
        <time>2018-05-11T09:07:45Z</time>
      </trkpt>
      <trkpt lat="36.79708" lon="27.95221">
        <ele>5.446</ele>
        <time>2018-05-11T09:07:20Z</time>
      </trkpt>
      <trkpt lat="36.79706" lon="27.95197">
        <ele>5.543</ele>
        <time>2018-05-11T09:07:00Z</time>
      </trkpt>
      <trkpt lat="36.79702" lon="27.95192">
        <ele>6.423</ele>
        <time>2018-05-11T09:06:30Z</time>
      </trkpt>
      <trkpt lat="36.79701" lon="27.95183">
        <ele>6.559</ele>
        <time>2018-05-11T09:06:11Z</time>
      </trkpt>
      <trkpt lat="36.79701" lon="27.95184">
        <ele>6.616</ele>
        <time>2018-05-11T09:05:46Z</time>
      </trkpt>
      <trkpt lat="36.79691" lon="27.95181">
        <ele>9.498</ele>
        <time>2018-05-11T09:05:27Z</time>
      </trkpt>
      <trkpt lat="36.7969" lon="27.95179">
        <ele>9.791</ele>
        <time>2018-05-11T09:05:25Z</time>
      </trkpt>
      <trkpt lat="36.7969" lon="27.95172">
        <ele>9.653</ele>
        <time>2018-05-11T09:05:05Z</time>
      </trkpt>
      <trkpt lat="36.7969" lon="27.95161">
        <ele>9.548</ele>
        <time>2018-05-11T09:04:43Z</time>
      </trkpt>
      <trkpt lat="36.79692" lon="27.95144">
        <ele>9.484</ele>
        <time>2018-05-11T09:04:27Z</time>
      </trkpt>
      <trkpt lat="36.79692" lon="27.95144">
        <ele>9.412</ele>
        <time>2018-05-11T09:04:26Z</time>
      </trkpt>
      <trkpt lat="36.79699" lon="27.95128">
        <ele>9.048</ele>
        <time>2018-05-11T09:04:08Z</time>
      </trkpt>
      <trkpt lat="36.79702" lon="27.95121">
        <ele>9.487</ele>
        <time>2018-05-11T09:03:51Z</time>
      </trkpt>
      <trkpt lat="36.79709" lon="27.95108">
        <ele>10.865</ele>
        <time>2018-05-11T09:03:32Z</time>
      </trkpt>
      <trkpt lat="36.79713" lon="27.95105">
        <ele>10.625</ele>
        <time>2018-05-11T09:03:09Z</time>
      </trkpt>
      <trkpt lat="36.79719" lon="27.95096">
        <ele>11.054</ele>
        <time>2018-05-11T09:02:52Z</time>
      </trkpt>
      <trkpt lat="36.79727" lon="27.95087">
        <ele>11.04</ele>
        <time>2018-05-11T09:02:36Z</time>
      </trkpt>
      <trkpt lat="36.79731" lon="27.95084">
        <ele>10.955</ele>
        <time>2018-05-11T09:02:11Z</time>
      </trkpt>
      <trkpt lat="36.79744" lon="27.95079">
        <ele>9.993</ele>
        <time>2018-05-11T09:01:50Z</time>
      </trkpt>
      <trkpt lat="36.79757" lon="27.95077">
        <ele>8.072</ele>
        <time>2018-05-11T09:01:30Z</time>
      </trkpt>
      <trkpt lat="36.79762" lon="27.95073">
        <ele>7.612</ele>
        <time>2018-05-11T09:01:09Z</time>
      </trkpt>
      <trkpt lat="36.79765" lon="27.95068">
        <ele>7.409</ele>
        <time>2018-05-11T09:01:03Z</time>
      </trkpt>
      <trkpt lat="36.79767" lon="27.95066">
        <ele>7.392</ele>
        <time>2018-05-11T09:00:48Z</time>
      </trkpt>
      <trkpt lat="36.79774" lon="27.95055">
        <ele>7.523</ele>
        <time>2018-05-11T09:00:30Z</time>
      </trkpt>
      <trkpt lat="36.79777" lon="27.95053">
        <ele>7.391</ele>
        <time>2018-05-11T09:00:02Z</time>
      </trkpt>
      <trkpt lat="36.79777" lon="27.95042">
        <ele>8.567</ele>
        <time>2018-05-11T08:59:41Z</time>
      </trkpt>
      <trkpt lat="36.7978" lon="27.9503">
        <ele>9.447</ele>
        <time>2018-05-11T08:59:24Z</time>
      </trkpt>
      <trkpt lat="36.79778" lon="27.95026">
        <ele>10.204</ele>
        <time>2018-05-11T08:59:02Z</time>
      </trkpt>
      <trkpt lat="36.79776" lon="27.95024">
        <ele>10.627</ele>
        <time>2018-05-11T08:58:41Z</time>
      </trkpt>
      <trkpt lat="36.79779" lon="27.9501">
        <ele>11.131</ele>
        <time>2018-05-11T08:57:24Z</time>
      </trkpt>
      <trkpt lat="36.79782" lon="27.95001">
        <ele>11.407</ele>
        <time>2018-05-11T08:57:01Z</time>
      </trkpt>
      <trkpt lat="36.7978" lon="27.9499">
        <ele>10.56</ele>
        <time>2018-05-11T08:56:41Z</time>
      </trkpt>
      <trkpt lat="36.79778" lon="27.94976">
        <ele>9.301</ele>
        <time>2018-05-11T08:56:27Z</time>
      </trkpt>
      <trkpt lat="36.79773" lon="27.94972">
        <ele>9.883</ele>
        <time>2018-05-11T08:56:23Z</time>
      </trkpt>
      <trkpt lat="36.7977" lon="27.9497">
        <ele>10.013</ele>
        <time>2018-05-11T08:56:05Z</time>
      </trkpt>
      <trkpt lat="36.79763" lon="27.94961">
        <ele>10.007</ele>
        <time>2018-05-11T08:55:47Z</time>
      </trkpt>
      <trkpt lat="36.7976" lon="27.94952">
        <ele>9</ele>
        <time>2018-05-11T08:55:20Z</time>
      </trkpt>
      <trkpt lat="36.79762" lon="27.94948">
        <ele>7.41</ele>
        <time>2018-05-11T08:55:02Z</time>
      </trkpt>
      <trkpt lat="36.79759" lon="27.94939">
        <ele>7.404</ele>
        <time>2018-05-11T08:54:27Z</time>
      </trkpt>
      <trkpt lat="36.79758" lon="27.94926">
        <ele>6.58</ele>
        <time>2018-05-11T08:54:07Z</time>
      </trkpt>
      <trkpt lat="36.79757" lon="27.94923">
        <ele>6.726</ele>
        <time>2018-05-11T08:53:50Z</time>
      </trkpt>
      <trkpt lat="36.79758" lon="27.94923">
        <ele>6.358</ele>
        <time>2018-05-11T08:53:45Z</time>
      </trkpt>
      <trkpt lat="36.7976" lon="27.94908">
        <ele>4.239</ele>
        <time>2018-05-11T08:53:25Z</time>
      </trkpt>
      <trkpt lat="36.79754" lon="27.94883">
        <ele>3.29</ele>
        <time>2018-05-11T08:53:05Z</time>
      </trkpt>
      <trkpt lat="36.79755" lon="27.94882">
        <ele>3.122</ele>
        <time>2018-05-11T08:52:33Z</time>
      </trkpt>
      <trkpt lat="36.79756" lon="27.94879">
        <ele>2.874</ele>
        <time>2018-05-11T08:51:59Z</time>
      </trkpt>
      <trkpt lat="36.7976" lon="27.94858">
        <ele>1.96</ele>
        <time>2018-05-11T08:51:44Z</time>
      </trkpt>
      <trkpt lat="36.79761" lon="27.94841">
        <ele>2.2</ele>
        <time>2018-05-11T08:51:32Z</time>
      </trkpt>
      <trkpt lat="36.79759" lon="27.9482">
        <ele>3.39</ele>
        <time>2018-05-11T08:51:14Z</time>
      </trkpt>
      <trkpt lat="36.79757" lon="27.94823">
        <ele>3.643</ele>
        <time>2018-05-11T08:50:43Z</time>
      </trkpt>
      <trkpt lat="36.79761" lon="27.9482">
        <ele>2.969</ele>
        <time>2018-05-11T08:50:18Z</time>
      </trkpt>
      <trkpt lat="36.79765" lon="27.94797">
        <ele>2.983</ele>
        <time>2018-05-11T08:49:58Z</time>
      </trkpt>
      <trkpt lat="36.79764" lon="27.94793">
        <ele>3.245</ele>
        <time>2018-05-11T08:48:48Z</time>
      </trkpt>
      <trkpt lat="36.79763" lon="27.94795">
        <ele>3.354</ele>
        <time>2018-05-11T08:48:24Z</time>
      </trkpt>
      <trkpt lat="36.79762" lon="27.94768">
        <ele>4.073</ele>
        <time>2018-05-11T08:42:21Z</time>
      </trkpt>
      <trkpt lat="36.79763" lon="27.94765">
        <ele>3.851</ele>
        <time>2018-05-11T08:42:03Z</time>
      </trkpt>
      <trkpt lat="36.79765" lon="27.94756">
        <ele>3.228</ele>
        <time>2018-05-11T08:41:34Z</time>
      </trkpt>
      <trkpt lat="36.79766" lon="27.9475">
        <ele>2.932</ele>
        <time>2018-05-11T08:41:28Z</time>
      </trkpt>
      <trkpt lat="36.79763" lon="27.9474">
        <ele>4.492</ele>
        <time>2018-05-11T08:40:47Z</time>
      </trkpt>
      <trkpt lat="36.79768" lon="27.94729">
        <ele>5.167</ele>
        <time>2018-05-11T08:40:28Z</time>
      </trkpt>
      <trkpt lat="36.79772" lon="27.94725">
        <ele>5.53</ele>
        <time>2018-05-11T08:39:59Z</time>
      </trkpt>
      <trkpt lat="36.79772" lon="27.94718">
        <ele>5.869</ele>
        <time>2018-05-11T08:39:39Z</time>
      </trkpt>
      <trkpt lat="36.79766" lon="27.94716">
        <ele>5.877</ele>
        <time>2018-05-11T08:39:17Z</time>
      </trkpt>
      <trkpt lat="36.79772" lon="27.94703">
        <ele>5.462</ele>
        <time>2018-05-11T08:38:55Z</time>
      </trkpt>
      <trkpt lat="36.79776" lon="27.94699">
        <ele>5.228</ele>
        <time>2018-05-11T08:37:49Z</time>
      </trkpt>
      <trkpt lat="36.79777" lon="27.94695">
        <ele>5.032</ele>
        <time>2018-05-11T08:37:36Z</time>
      </trkpt>
      <trkpt lat="36.79782" lon="27.94691">
        <ele>5.111</ele>
        <time>2018-05-11T08:36:43Z</time>
      </trkpt>
      <trkpt lat="36.79782" lon="27.94687">
        <ele>5.284</ele>
        <time>2018-05-11T08:36:26Z</time>
      </trkpt>
      <trkpt lat="36.79782" lon="27.94689">
        <ele>5.212</ele>
        <time>2018-05-11T08:36:00Z</time>
      </trkpt>
      <trkpt lat="36.79787" lon="27.94682">
        <ele>5.449</ele>
        <time>2018-05-11T08:35:36Z</time>
      </trkpt>
      <trkpt lat="36.7979" lon="27.94678">
        <ele>5.593</ele>
        <time>2018-05-11T08:35:14Z</time>
      </trkpt>
      <trkpt lat="36.79796" lon="27.94673">
        <ele>5.782</ele>
        <time>2018-05-11T08:34:53Z</time>
      </trkpt>
      <trkpt lat="36.79805" lon="27.94663">
        <ele>6.611</ele>
        <time>2018-05-11T08:34:34Z</time>
      </trkpt>
      <trkpt lat="36.79815" lon="27.94655">
        <ele>7.133</ele>
        <time>2018-05-11T08:34:12Z</time>
      </trkpt>
      <trkpt lat="36.79818" lon="27.94653">
        <ele>7.358</ele>
        <time>2018-05-11T08:34:08Z</time>
      </trkpt>
      <trkpt lat="36.79817" lon="27.94652">
        <ele>7.448</ele>
        <time>2018-05-11T08:33:41Z</time>
      </trkpt>
      <trkpt lat="36.79821" lon="27.94647">
        <ele>7.839</ele>
        <time>2018-05-11T08:33:13Z</time>
      </trkpt>
      <trkpt lat="36.7983" lon="27.94638">
        <ele>8.312</ele>
        <time>2018-05-11T08:32:46Z</time>
      </trkpt>
      <trkpt lat="36.79837" lon="27.94634">
        <ele>7.21</ele>
        <time>2018-05-11T08:32:27Z</time>
      </trkpt>
      <trkpt lat="36.79839" lon="27.9463">
        <ele>6.879</ele>
        <time>2018-05-11T08:32:24Z</time>
      </trkpt>
      <trkpt lat="36.7984" lon="27.94624">
        <ele>6.769</ele>
        <time>2018-05-11T08:32:19Z</time>
      </trkpt>
      <trkpt lat="36.79841" lon="27.94617">
        <ele>6.819</ele>
        <time>2018-05-11T08:32:14Z</time>
      </trkpt>
      <trkpt lat="36.79842" lon="27.94616">
        <ele>6.491</ele>
        <time>2018-05-11T08:32:09Z</time>
      </trkpt>
      <trkpt lat="36.79846" lon="27.94611">
        <ele>5.554</ele>
        <time>2018-05-11T08:31:43Z</time>
      </trkpt>
      <trkpt lat="36.79844" lon="27.94598">
        <ele>6.467</ele>
        <time>2018-05-11T08:31:34Z</time>
      </trkpt>
      <trkpt lat="36.79846" lon="27.94589">
        <ele>5.906</ele>
        <time>2018-05-11T08:31:06Z</time>
      </trkpt>
      <trkpt lat="36.79842" lon="27.94579">
        <ele>7.404</ele>
        <time>2018-05-11T08:30:40Z</time>
      </trkpt>
      <trkpt lat="36.79842" lon="27.94561">
        <ele>6.979</ele>
        <time>2018-05-11T08:30:18Z</time>
      </trkpt>
      <trkpt lat="36.79841" lon="27.94558">
        <ele>7.168</ele>
        <time>2018-05-11T08:30:07Z</time>
      </trkpt>
      <trkpt lat="36.79839" lon="27.94544">
        <ele>4.692</ele>
        <time>2018-05-11T08:29:47Z</time>
      </trkpt>
      <trkpt lat="36.79832" lon="27.94532">
        <ele>1.913</ele>
        <time>2018-05-11T08:29:22Z</time>
      </trkpt>
      <trkpt lat="36.79827" lon="27.94519">
        <ele>3.04</ele>
        <time>2018-05-11T08:28:56Z</time>
      </trkpt>
      <trkpt lat="36.79815" lon="27.94499">
        <ele>5.043</ele>
        <time>2018-05-11T08:28:35Z</time>
      </trkpt>
      <trkpt lat="36.79809" lon="27.94487">
        <ele>3.888</ele>
        <time>2018-05-11T08:28:11Z</time>
      </trkpt>
      <trkpt lat="36.79803" lon="27.94484">
        <ele>4.159</ele>
        <time>2018-05-11T08:27:44Z</time>
      </trkpt>
      <trkpt lat="36.79795" lon="27.94476">
        <ele>4.007</ele>
        <time>2018-05-11T08:27:11Z</time>
      </trkpt>
      <trkpt lat="36.79789" lon="27.94471">
        <ele>4.692</ele>
        <time>2018-05-11T08:26:51Z</time>
      </trkpt>
      <trkpt lat="36.7978" lon="27.94459">
        <ele>3.745</ele>
        <time>2018-05-11T08:26:38Z</time>
      </trkpt>
      <trkpt lat="36.79779" lon="27.94455">
        <ele>2.891</ele>
        <time>2018-05-11T08:26:10Z</time>
      </trkpt>
      <trkpt lat="36.7978" lon="27.94451">
        <ele>1.797</ele>
        <time>2018-05-11T08:25:42Z</time>
      </trkpt>
      <trkpt lat="36.79775" lon="27.9445">
        <ele>2.395</ele>
        <time>2018-05-11T08:24:58Z</time>
      </trkpt>
      <trkpt lat="36.79774" lon="27.94447">
        <ele>1.954</ele>
        <time>2018-05-11T08:24:41Z</time>
      </trkpt>
      <trkpt lat="36.79775" lon="27.94443">
        <ele>0.966</ele>
        <time>2018-05-11T08:24:21Z</time>
      </trkpt>
      <trkpt lat="36.79783" lon="27.94412">
        <ele>6.9</ele>
        <time>2018-05-11T08:23:22Z</time>
      </trkpt>
      <trkpt lat="36.79781" lon="27.94379">
        <ele>6.3</ele>
        <time>2018-05-11T08:22:58Z</time>
      </trkpt>
      <trkpt lat="36.79785" lon="27.94356">
        <ele>0.662</ele>
        <time>2018-05-11T08:22:38Z</time>
      </trkpt>
      <trkpt lat="36.79793" lon="27.94334">
        <ele>2.247</ele>
        <time>2018-05-11T08:22:20Z</time>
      </trkpt>
      <trkpt lat="36.79798" lon="27.94331">
        <ele>2.167</ele>
        <time>2018-05-11T08:22:03Z</time>
      </trkpt>
      <trkpt lat="36.79804" lon="27.94324">
        <ele>4.342</ele>
        <time>2018-05-11T08:21:46Z</time>
      </trkpt>
      <trkpt lat="36.79808" lon="27.94315">
        <ele>8.494</ele>
        <time>2018-05-11T08:21:19Z</time>
      </trkpt>
      <trkpt lat="36.79808" lon="27.9431">
        <ele>10.827</ele>
        <time>2018-05-11T08:20:56Z</time>
      </trkpt>
      <trkpt lat="36.79815" lon="27.9431">
        <ele>10.102</ele>
        <time>2018-05-11T08:20:29Z</time>
      </trkpt>
      <trkpt lat="36.79823" lon="27.94302">
        <ele>12.034</ele>
        <time>2018-05-11T08:20:07Z</time>
      </trkpt>
      <trkpt lat="36.7984" lon="27.94295">
        <ele>10.836</ele>
        <time>2018-05-11T08:19:43Z</time>
      </trkpt>
      <trkpt lat="36.7986" lon="27.94283">
        <ele>12.483</ele>
        <time>2018-05-11T08:19:25Z</time>
      </trkpt>
      <trkpt lat="36.79862" lon="27.94279">
        <ele>14.295</ele>
        <time>2018-05-11T08:19:21Z</time>
      </trkpt>
      <trkpt lat="36.79871" lon="27.94273">
        <ele>11.575</ele>
        <time>2018-05-11T08:18:59Z</time>
      </trkpt>
      <trkpt lat="36.7988" lon="27.94265">
        <ele>11.031</ele>
        <time>2018-05-11T08:18:37Z</time>
      </trkpt>
      <trkpt lat="36.79883" lon="27.94263">
        <ele>10.875</ele>
        <time>2018-05-11T08:18:09Z</time>
      </trkpt>
      <trkpt lat="36.79897" lon="27.94248">
        <ele>10.868</ele>
        <time>2018-05-11T08:17:38Z</time>
      </trkpt>
      <trkpt lat="36.79911" lon="27.94228">
        <ele>4.363</ele>
        <time>2018-05-11T08:17:16Z</time>
      </trkpt>
      <trkpt lat="36.79914" lon="27.9422">
        <ele>4.082</ele>
        <time>2018-05-11T08:16:49Z</time>
      </trkpt>
      <trkpt lat="36.79925" lon="27.942">
        <ele>10.91</ele>
        <time>2018-05-11T08:16:28Z</time>
      </trkpt>
      <trkpt lat="36.79924" lon="27.94196">
        <ele>13.603</ele>
        <time>2018-05-11T08:16:05Z</time>
      </trkpt>
      <trkpt lat="36.79924" lon="27.94185">
        <ele>16.267</ele>
        <time>2018-05-11T08:15:43Z</time>
      </trkpt>
      <trkpt lat="36.79926" lon="27.9418">
        <ele>15.045</ele>
        <time>2018-05-11T08:15:17Z</time>
      </trkpt>
      <trkpt lat="36.7993" lon="27.94178">
        <ele>12.114</ele>
        <time>2018-05-11T08:15:03Z</time>
      </trkpt>
      <trkpt lat="36.79932" lon="27.94163">
        <ele>11.462</ele>
        <time>2018-05-11T08:14:44Z</time>
      </trkpt>
      <trkpt lat="36.79936" lon="27.94155">
        <ele>8.136</ele>
        <time>2018-05-11T08:14:11Z</time>
      </trkpt>
      <trkpt lat="36.79941" lon="27.94142">
        <ele>3.292</ele>
        <time>2018-05-11T08:13:40Z</time>
      </trkpt>
      <trkpt lat="36.79945" lon="27.94128">
        <ele>20</ele>
        <time>2018-05-11T08:13:20Z</time>
      </trkpt>
      <trkpt lat="36.79948" lon="27.94122">
        <ele>19.3</ele>
        <time>2018-05-11T08:12:57Z</time>
      </trkpt>
      <trkpt lat="36.79948" lon="27.941">
        <ele>8.154</ele>
        <time>2018-05-11T08:12:37Z</time>
      </trkpt>
      <trkpt lat="36.79949" lon="27.94094">
        <ele>12.022</ele>
        <time>2018-05-11T08:12:19Z</time>
      </trkpt>
      <trkpt lat="36.79947" lon="27.94081">
        <ele>21.062</ele>
        <time>2018-05-11T08:11:52Z</time>
      </trkpt>
      <trkpt lat="36.79947" lon="27.94071">
        <ele>21.671</ele>
        <time>2018-05-11T08:11:36Z</time>
      </trkpt>
      <trkpt lat="36.79944" lon="27.94066">
        <ele>23.074</ele>
        <time>2018-05-11T08:11:33Z</time>
      </trkpt>
      <trkpt lat="36.79945" lon="27.94063">
        <ele>22.554</ele>
        <time>2018-05-11T08:11:26Z</time>
      </trkpt>
      <trkpt lat="36.79942" lon="27.94051">
        <ele>23.662</ele>
        <time>2018-05-11T08:11:11Z</time>
      </trkpt>
      <trkpt lat="36.79944" lon="27.94052">
        <ele>23.127</ele>
        <time>2018-05-11T08:11:00Z</time>
      </trkpt>
      <trkpt lat="36.79946" lon="27.94044">
        <ele>22.599</ele>
        <time>2018-05-11T08:10:25Z</time>
      </trkpt>
      <trkpt lat="36.79947" lon="27.94041">
        <ele>22.419</ele>
        <time>2018-05-11T08:10:22Z</time>
      </trkpt>
      <trkpt lat="36.79946" lon="27.94018">
        <ele>22.587</ele>
        <time>2018-05-11T08:10:06Z</time>
      </trkpt>
      <trkpt lat="36.79946" lon="27.94015">
        <ele>22.56</ele>
        <time>2018-05-11T08:10:04Z</time>
      </trkpt>
      <trkpt lat="36.79945" lon="27.94001">
        <ele>22.91</ele>
        <time>2018-05-11T08:09:42Z</time>
      </trkpt>
      <trkpt lat="36.79946" lon="27.93996">
        <ele>22.437</ele>
        <time>2018-05-11T08:09:12Z</time>
      </trkpt>
      <trkpt lat="36.79939" lon="27.93986">
        <ele>22.547</ele>
        <time>2018-05-11T08:08:54Z</time>
      </trkpt>
      <trkpt lat="36.7994" lon="27.93983">
        <ele>22.215</ele>
        <time>2018-05-11T08:08:25Z</time>
      </trkpt>
      <trkpt lat="36.79941" lon="27.93974">
        <ele>21.387</ele>
        <time>2018-05-11T08:08:00Z</time>
      </trkpt>
      <trkpt lat="36.79935" lon="27.93965">
        <ele>19.722</ele>
        <time>2018-05-11T08:07:41Z</time>
      </trkpt>
      <trkpt lat="36.79935" lon="27.93959">
        <ele>18.262</ele>
        <time>2018-05-11T08:07:27Z</time>
      </trkpt>
      <trkpt lat="36.79933" lon="27.93954">
        <ele>16.815</ele>
        <time>2018-05-11T08:07:08Z</time>
      </trkpt>
      <trkpt lat="36.79936" lon="27.93945">
        <ele>14.492</ele>
        <time>2018-05-11T08:06:45Z</time>
      </trkpt>
      <trkpt lat="36.79932" lon="27.93934">
        <ele>12.059</ele>
        <time>2018-05-11T08:06:26Z</time>
      </trkpt>
      <trkpt lat="36.79932" lon="27.93934">
        <ele>11.957</ele>
        <time>2018-05-11T08:06:11Z</time>
      </trkpt>
      <trkpt lat="36.79931" lon="27.93932">
        <ele>11.552</ele>
        <time>2018-05-11T08:05:46Z</time>
      </trkpt>
      <trkpt lat="36.79928" lon="27.93925">
        <ele>9.884</ele>
        <time>2018-05-11T08:05:12Z</time>
      </trkpt>
      <trkpt lat="36.79928" lon="27.93921">
        <ele>8.931</ele>
        <time>2018-05-11T08:04:38Z</time>
      </trkpt>
      <trkpt lat="36.79927" lon="27.93922">
        <ele>9.34</ele>
        <time>2018-05-11T08:04:08Z</time>
      </trkpt>
      <trkpt lat="36.79928" lon="27.93913">
        <ele>7.766</ele>
        <time>2018-05-11T08:03:49Z</time>
      </trkpt>
      <trkpt lat="36.79921" lon="27.93904">
        <ele>7.094</ele>
        <time>2018-05-11T08:03:29Z</time>
      </trkpt>
      <trkpt lat="36.7992" lon="27.93909">
        <ele>7.467</ele>
        <time>2018-05-11T08:03:15Z</time>
      </trkpt>
      <trkpt lat="36.79924" lon="27.93899">
        <ele>6.742</ele>
        <time>2018-05-11T08:02:47Z</time>
      </trkpt>
      <trkpt lat="36.79926" lon="27.93881">
        <ele>5.593</ele>
        <time>2018-05-11T08:02:27Z</time>
      </trkpt>
      <trkpt lat="36.79926" lon="27.93879">
        <ele>5.522</ele>
        <time>2018-05-11T08:02:26Z</time>
      </trkpt>
      <trkpt lat="36.79923" lon="27.93864">
        <ele>4.891</ele>
        <time>2018-05-11T07:53:41Z</time>
      </trkpt>
      <trkpt lat="36.7991" lon="27.93853">
        <ele>3.166</ele>
        <time>2018-05-11T07:53:22Z</time>
      </trkpt>
      <trkpt lat="36.79908" lon="27.93852">
        <ele>2.987</ele>
        <time>2018-05-11T07:53:02Z</time>
      </trkpt>
      <trkpt lat="36.79894" lon="27.93837">
        <ele>0.403</ele>
        <time>2018-05-11T07:52:44Z</time>
      </trkpt>
      <trkpt lat="36.7989" lon="27.9383">
        <ele>2.4</ele>
        <time>2018-05-11T07:52:36Z</time>
      </trkpt>
      <trkpt lat="36.79883" lon="27.93821">
        <ele>0.226</ele>
        <time>2018-05-11T07:52:18Z</time>
      </trkpt>
      <trkpt lat="36.79872" lon="27.93807">
        <ele>0.067</ele>
        <time>2018-05-11T07:52:02Z</time>
      </trkpt>
      <trkpt lat="36.79867" lon="27.938">
        <ele>4</ele>
        <time>2018-05-11T07:51:55Z</time>
      </trkpt>
      <trkpt lat="36.79866" lon="27.93788">
        <ele>4.3</ele>
        <time>2018-05-11T07:51:45Z</time>
      </trkpt>
      <trkpt lat="36.79859" lon="27.93778">
        <ele>4.6</ele>
        <time>2018-05-11T07:51:35Z</time>
      </trkpt>
      <trkpt lat="36.79846" lon="27.93765">
        <ele>4.9</ele>
        <time>2018-05-11T07:51:22Z</time>
      </trkpt>
      <trkpt lat="36.79843" lon="27.93761">
        <ele>4.9</ele>
        <time>2018-05-11T07:51:15Z</time>
      </trkpt>
      <trkpt lat="36.79842" lon="27.93757">
        <ele>5</ele>
        <time>2018-05-11T07:51:11Z</time>
      </trkpt>
      <trkpt lat="36.79836" lon="27.93753">
        <ele>5</ele>
        <time>2018-05-11T07:50:51Z</time>
      </trkpt>
      <trkpt lat="36.79836" lon="27.93744">
        <ele>5.2</ele>
        <time>2018-05-11T07:50:33Z</time>
      </trkpt>
      <trkpt lat="36.79834" lon="27.9374">
        <ele>5.2</ele>
        <time>2018-05-11T07:50:14Z</time>
      </trkpt>
      <trkpt lat="36.79832" lon="27.93741">
        <ele>0.777</ele>
        <time>2018-05-11T07:49:59Z</time>
      </trkpt>
      <trkpt lat="36.79834" lon="27.93732">
        <ele>5.4</ele>
        <time>2018-05-11T07:49:21Z</time>
      </trkpt>
      <trkpt lat="36.79836" lon="27.93722">
        <ele>5.7</ele>
        <time>2018-05-11T07:49:02Z</time>
      </trkpt>
      <trkpt lat="36.79839" lon="27.93721">
        <ele>5.7</ele>
        <time>2018-05-11T07:48:52Z</time>
      </trkpt>
      <trkpt lat="36.79838" lon="27.93705">
        <ele>6.1</ele>
        <time>2018-05-11T07:48:36Z</time>
      </trkpt>
      <trkpt lat="36.79839" lon="27.93704">
        <ele>6.1</ele>
        <time>2018-05-11T07:48:31Z</time>
      </trkpt>
      <trkpt lat="36.79846" lon="27.93688">
        <ele>1.299</ele>
        <time>2018-05-11T07:48:07Z</time>
      </trkpt>
      <trkpt lat="36.79848" lon="27.93671">
        <ele>4.35</ele>
        <time>2018-05-11T07:47:52Z</time>
      </trkpt>
      <trkpt lat="36.79851" lon="27.93665">
        <ele>3.836</ele>
        <time>2018-05-11T07:47:38Z</time>
      </trkpt>
      <trkpt lat="36.79852" lon="27.93663">
        <ele>3.491</ele>
        <time>2018-05-11T07:47:36Z</time>
      </trkpt>
      <trkpt lat="36.79852" lon="27.93657">
        <ele>3.316</ele>
        <time>2018-05-11T07:47:04Z</time>
      </trkpt>
      <trkpt lat="36.79847" lon="27.93643">
        <ele>4.654</ele>
        <time>2018-05-11T07:46:40Z</time>
      </trkpt>
      <trkpt lat="36.79842" lon="27.93635">
        <ele>6.003</ele>
        <time>2018-05-11T07:46:19Z</time>
      </trkpt>
      <trkpt lat="36.79838" lon="27.93629">
        <ele>6.883</ele>
        <time>2018-05-11T07:45:58Z</time>
      </trkpt>
      <trkpt lat="36.79835" lon="27.93622">
        <ele>7.335</ele>
        <time>2018-05-11T07:45:29Z</time>
      </trkpt>
      <trkpt lat="36.79827" lon="27.93613">
        <ele>7.644</ele>
        <time>2018-05-11T07:45:03Z</time>
      </trkpt>
      <trkpt lat="36.79823" lon="27.9361">
        <ele>7.624</ele>
        <time>2018-05-11T07:44:52Z</time>
      </trkpt>
      <trkpt lat="36.7982" lon="27.93609">
        <ele>7.697</ele>
        <time>2018-05-11T07:44:28Z</time>
      </trkpt>
      <trkpt lat="36.7982" lon="27.936">
        <ele>7</ele>
        <time>2018-05-11T07:44:16Z</time>
      </trkpt>
      <trkpt lat="36.7982" lon="27.93594">
        <ele>6.455</ele>
        <time>2018-05-11T07:44:11Z</time>
      </trkpt>
      <trkpt lat="36.79824" lon="27.93591">
        <ele>5.954</ele>
        <time>2018-05-11T07:42:39Z</time>
      </trkpt>
      <trkpt lat="36.79825" lon="27.93571">
        <ele>3.563</ele>
        <time>2018-05-11T07:42:23Z</time>
      </trkpt>
      <trkpt lat="36.79821" lon="27.9356">
        <ele>2.826</ele>
        <time>2018-05-11T07:42:15Z</time>
      </trkpt>
      <trkpt lat="36.79811" lon="27.93538">
        <ele>1.457</ele>
        <time>2018-05-11T07:41:08Z</time>
      </trkpt>
      <trkpt lat="36.79811" lon="27.93538">
        <ele>1.481</ele>
        <time>2018-05-11T07:41:06Z</time>
      </trkpt>
      <trkpt lat="36.79811" lon="27.93538">
        <ele>1.502</ele>
        <time>2018-05-11T07:40:45Z</time>
      </trkpt>
      <trkpt lat="36.79813" lon="27.93537">
        <ele>1.258</ele>
        <time>2018-05-11T07:40:15Z</time>
      </trkpt>
      <trkpt lat="36.79809" lon="27.93516">
        <ele>6.6</ele>
        <time>2018-05-11T07:39:56Z</time>
      </trkpt>
      <trkpt lat="36.79806" lon="27.93495">
        <ele>7.2</ele>
        <time>2018-05-11T07:39:41Z</time>
      </trkpt>
      <trkpt lat="36.79805" lon="27.93488">
        <ele>0.126</ele>
        <time>2018-05-11T07:39:36Z</time>
      </trkpt>
      <trkpt lat="36.79802" lon="27.93451">
        <ele>1.063</ele>
        <time>2018-05-11T07:39:14Z</time>
      </trkpt>
      <trkpt lat="36.79803" lon="27.93447">
        <ele>0.981</ele>
        <time>2018-05-11T07:38:45Z</time>
      </trkpt>
      <trkpt lat="36.79804" lon="27.93452">
        <ele>0.571</ele>
        <time>2018-05-11T07:38:28Z</time>
      </trkpt>
      <trkpt lat="36.79802" lon="27.93442">
        <ele>1.025</ele>
        <time>2018-05-11T07:38:10Z</time>
      </trkpt>
      <trkpt lat="36.79789" lon="27.93432">
        <ele>5.195</ele>
        <time>2018-05-11T07:37:59Z</time>
      </trkpt>
      <trkpt lat="36.79764" lon="27.93421">
        <ele>9.148</ele>
        <time>2018-05-11T07:37:41Z</time>
      </trkpt>
      <trkpt lat="36.79764" lon="27.93422">
        <ele>9.18</ele>
        <time>2018-05-11T07:37:32Z</time>
      </trkpt>
      <trkpt lat="36.79751" lon="27.93407">
        <ele>9.898</ele>
        <time>2018-05-11T07:25:53Z</time>
      </trkpt>
      <trkpt lat="36.79744" lon="27.9338">
        <ele>10.133</ele>
        <time>2018-05-11T07:25:35Z</time>
      </trkpt>
      <trkpt lat="36.79737" lon="27.93362">
        <ele>10.921</ele>
        <time>2018-05-11T07:25:21Z</time>
      </trkpt>
      <trkpt lat="36.7973" lon="27.93335">
        <ele>10.771</ele>
        <time>2018-05-11T07:25:04Z</time>
      </trkpt>
      <trkpt lat="36.7973" lon="27.9333">
        <ele>10.694</ele>
        <time>2018-05-11T07:25:01Z</time>
      </trkpt>
      <trkpt lat="36.79726" lon="27.93322">
        <ele>10.785</ele>
        <time>2018-05-11T07:24:40Z</time>
      </trkpt>
      <trkpt lat="36.79726" lon="27.93325">
        <ele>10.821</ele>
        <time>2018-05-11T07:24:33Z</time>
      </trkpt>
      <trkpt lat="36.79722" lon="27.93316">
        <ele>11.008</ele>
        <time>2018-05-11T07:24:17Z</time>
      </trkpt>
      <trkpt lat="36.7972" lon="27.93315">
        <ele>11.084</ele>
        <time>2018-05-11T07:24:13Z</time>
      </trkpt>
      <trkpt lat="36.79705" lon="27.9328">
        <ele>11.29</ele>
        <time>2018-05-11T07:23:48Z</time>
      </trkpt>
      <trkpt lat="36.79701" lon="27.93279">
        <ele>11.524</ele>
        <time>2018-05-11T07:23:31Z</time>
      </trkpt>
      <trkpt lat="36.79698" lon="27.93276">
        <ele>11.779</ele>
        <time>2018-05-11T07:23:05Z</time>
      </trkpt>
      <trkpt lat="36.79698" lon="27.93273">
        <ele>11.93</ele>
        <time>2018-05-11T07:23:03Z</time>
      </trkpt>
      <trkpt lat="36.79683" lon="27.93262">
        <ele>12.975</ele>
        <time>2018-05-11T07:22:47Z</time>
      </trkpt>
      <trkpt lat="36.79675" lon="27.93242">
        <ele>14.32</ele>
        <time>2018-05-11T07:22:35Z</time>
      </trkpt>
      <trkpt lat="36.79673" lon="27.93223">
        <ele>15.74</ele>
        <time>2018-05-11T07:22:24Z</time>
      </trkpt>
      <trkpt lat="36.79673" lon="27.93198">
        <ele>20.25</ele>
        <time>2018-05-11T07:22:11Z</time>
      </trkpt>
      <trkpt lat="36.7967" lon="27.93194">
        <ele>21.214</ele>
        <time>2018-05-11T07:22:02Z</time>
      </trkpt>
      <trkpt lat="36.79663" lon="27.93197">
        <ele>20.683</ele>
        <time>2018-05-11T07:21:34Z</time>
      </trkpt>
      <trkpt lat="36.79661" lon="27.93197">
        <ele>20.764</ele>
        <time>2018-05-11T07:21:29Z</time>
      </trkpt>
      <trkpt lat="36.7965" lon="27.93184">
        <ele>23.624</ele>
        <time>2018-05-11T07:21:15Z</time>
      </trkpt>
      <trkpt lat="36.79649" lon="27.93181">
        <ele>24.03</ele>
        <time>2018-05-11T07:21:13Z</time>
      </trkpt>
      <trkpt lat="36.79638" lon="27.93168">
        <ele>25.829</ele>
        <time>2018-05-11T07:21:02Z</time>
      </trkpt>
      <trkpt lat="36.7963" lon="27.93154">
        <ele>28.618</ele>
        <time>2018-05-11T07:20:50Z</time>
      </trkpt>
      <trkpt lat="36.79631" lon="27.93154">
        <ele>28.651</ele>
        <time>2018-05-11T07:20:47Z</time>
      </trkpt>
      <trkpt lat="36.7963" lon="27.93154">
        <ele>28.568</ele>
        <time>2018-05-11T07:20:04Z</time>
      </trkpt>
      <trkpt lat="36.79625" lon="27.93156">
        <ele>28.52</ele>
        <time>2018-05-11T07:19:40Z</time>
      </trkpt>
      <trkpt lat="36.79625" lon="27.93149">
        <ele>29.484</ele>
        <time>2018-05-11T07:19:23Z</time>
      </trkpt>
      <trkpt lat="36.79616" lon="27.93131">
        <ele>31.381</ele>
        <time>2018-05-11T07:19:09Z</time>
      </trkpt>
      <trkpt lat="36.79607" lon="27.93115">
        <ele>32.455</ele>
        <time>2018-05-11T07:18:57Z</time>
      </trkpt>
      <trkpt lat="36.79607" lon="27.93113">
        <ele>32.526</ele>
        <time>2018-05-11T07:18:55Z</time>
      </trkpt>
      <trkpt lat="36.79608" lon="27.93102">
        <ele>32.091</ele>
        <time>2018-05-11T07:18:38Z</time>
      </trkpt>
      <trkpt lat="36.79605" lon="27.93074">
        <ele>29.874</ele>
        <time>2018-05-11T07:18:19Z</time>
      </trkpt>
      <trkpt lat="36.796" lon="27.93072">
        <ele>30.086</ele>
        <time>2018-05-11T07:18:12Z</time>
      </trkpt>
      <trkpt lat="36.79601" lon="27.93068">
        <ele>29.248</ele>
        <time>2018-05-11T07:17:51Z</time>
      </trkpt>
      <trkpt lat="36.79597" lon="27.93046">
        <ele>26.072</ele>
        <time>2018-05-11T07:17:35Z</time>
      </trkpt>
      <trkpt lat="36.79597" lon="27.93043">
        <ele>25.482</ele>
        <time>2018-05-11T07:17:33Z</time>
      </trkpt>
      <trkpt lat="36.79593" lon="27.9303">
        <ele>23.257</ele>
        <time>2018-05-11T07:17:24Z</time>
      </trkpt>
      <trkpt lat="36.79594" lon="27.93026">
        <ele>22.287</ele>
        <time>2018-05-11T07:17:07Z</time>
      </trkpt>
      <trkpt lat="36.79591" lon="27.93006">
        <ele>19.959</ele>
        <time>2018-05-11T07:16:52Z</time>
      </trkpt>
      <trkpt lat="36.79588" lon="27.92985">
        <ele>18.218</ele>
        <time>2018-05-11T07:16:37Z</time>
      </trkpt>
      <trkpt lat="36.79587" lon="27.92962">
        <ele>16.802</ele>
        <time>2018-05-11T07:16:23Z</time>
      </trkpt>
      <trkpt lat="36.79585" lon="27.92954">
        <ele>16.446</ele>
        <time>2018-05-11T07:16:18Z</time>
      </trkpt>
      <trkpt lat="36.79584" lon="27.92941">
        <ele>15.929</ele>
        <time>2018-05-11T07:16:11Z</time>
      </trkpt>
      <trkpt lat="36.7958" lon="27.92927">
        <ele>15.53</ele>
        <time>2018-05-11T07:16:03Z</time>
      </trkpt>
      <trkpt lat="36.79579" lon="27.92912">
        <ele>15.129</ele>
        <time>2018-05-11T07:15:53Z</time>
      </trkpt>
      <trkpt lat="36.79579" lon="27.92908">
        <ele>15.117</ele>
        <time>2018-05-11T07:15:29Z</time>
      </trkpt>
      <trkpt lat="36.79581" lon="27.92907">
        <ele>15.057</ele>
        <time>2018-05-11T07:14:57Z</time>
      </trkpt>
      <trkpt lat="36.79577" lon="27.92907">
        <ele>15.16</ele>
        <time>2018-05-11T07:14:29Z</time>
      </trkpt>
      <trkpt lat="36.79572" lon="27.92899">
        <ele>15.143</ele>
        <time>2018-05-11T07:14:22Z</time>
      </trkpt>
      <trkpt lat="36.79566" lon="27.92887">
        <ele>14.914</ele>
        <time>2018-05-11T07:14:14Z</time>
      </trkpt>
      <trkpt lat="36.79565" lon="27.92886">
        <ele>14.858</ele>
        <time>2018-05-11T07:14:10Z</time>
      </trkpt>
      <trkpt lat="36.79568" lon="27.92874">
        <ele>14.206</ele>
        <time>2018-05-11T07:12:03Z</time>
      </trkpt>
      <trkpt lat="36.79568" lon="27.92873">
        <ele>14.145</ele>
        <time>2018-05-11T07:12:02Z</time>
      </trkpt>
      <trkpt lat="36.79569" lon="27.92865">
        <ele>13.746</ele>
        <time>2018-05-11T07:11:26Z</time>
      </trkpt>
      <trkpt lat="36.7957" lon="27.92858">
        <ele>13.317</ele>
        <time>2018-05-11T07:11:21Z</time>
      </trkpt>
      <trkpt lat="36.79573" lon="27.9283">
        <ele>11.672</ele>
        <time>2018-05-11T07:11:01Z</time>
      </trkpt>
      <trkpt lat="36.79571" lon="27.92821">
        <ele>10.885</ele>
        <time>2018-05-11T07:10:56Z</time>
      </trkpt>
      <trkpt lat="36.7957" lon="27.92817">
        <ele>10.546</ele>
        <time>2018-05-11T07:10:52Z</time>
      </trkpt>
      <trkpt lat="36.79567" lon="27.9281">
        <ele>9.968</ele>
        <time>2018-05-11T07:10:21Z</time>
      </trkpt>
      <trkpt lat="36.79564" lon="27.92805">
        <ele>9.652</ele>
        <time>2018-05-11T07:09:20Z</time>
      </trkpt>
      <trkpt lat="36.79574" lon="27.92795">
        <ele>8.607</ele>
        <time>2018-05-11T07:09:03Z</time>
      </trkpt>
      <trkpt lat="36.79575" lon="27.92793">
        <ele>8.406</ele>
        <time>2018-05-11T07:08:38Z</time>
      </trkpt>
      <trkpt lat="36.7958" lon="27.9279">
        <ele>8</ele>
        <time>2018-05-11T07:08:18Z</time>
      </trkpt>
      <trkpt lat="36.7959" lon="27.92781">
        <ele>7.708</ele>
        <time>2018-05-11T07:08:03Z</time>
      </trkpt>
      <trkpt lat="36.79601" lon="27.92772">
        <ele>8.159</ele>
        <time>2018-05-11T07:07:39Z</time>
      </trkpt>
      <trkpt lat="36.79613" lon="27.92766">
        <ele>8.901</ele>
        <time>2018-05-11T07:07:21Z</time>
      </trkpt>
      <trkpt lat="36.79624" lon="27.92756">
        <ele>10.439</ele>
        <time>2018-05-11T07:07:08Z</time>
      </trkpt>
      <trkpt lat="36.79623" lon="27.92752">
        <ele>10.256</ele>
        <time>2018-05-11T07:07:06Z</time>
      </trkpt>
      <trkpt lat="36.79628" lon="27.9275">
        <ele>11.017</ele>
        <time>2018-05-11T07:06:49Z</time>
      </trkpt>
      <trkpt lat="36.79631" lon="27.92748">
        <ele>11.462</ele>
        <time>2018-05-11T07:06:46Z</time>
      </trkpt>
      <trkpt lat="36.7963" lon="27.92747">
        <ele>11.267</ele>
        <time>2018-05-11T07:06:30Z</time>
      </trkpt>
      <trkpt lat="36.79639" lon="27.92744">
        <ele>12.83</ele>
        <time>2018-05-11T07:05:36Z</time>
      </trkpt>
      <trkpt lat="36.79642" lon="27.92744">
        <ele>13.334</ele>
        <time>2018-05-11T07:05:13Z</time>
      </trkpt>
      <trkpt lat="36.79648" lon="27.92744">
        <ele>14.263</ele>
        <time>2018-05-11T07:04:47Z</time>
      </trkpt>
      <trkpt lat="36.79648" lon="27.92744">
        <ele>14.291</ele>
        <time>2018-05-11T07:04:15Z</time>
      </trkpt>
      <trkpt lat="36.79651" lon="27.92742">
        <ele>14.71</ele>
        <time>2018-05-11T07:03:46Z</time>
      </trkpt>
      <trkpt lat="36.79657" lon="27.92733">
        <ele>15.312</ele>
        <time>2018-05-11T07:03:29Z</time>
      </trkpt>
      <trkpt lat="36.79661" lon="27.92728">
        <ele>15.503</ele>
        <time>2018-05-11T07:03:25Z</time>
      </trkpt>
      <trkpt lat="36.79661" lon="27.92726">
        <ele>15.478</ele>
        <time>2018-05-11T07:03:09Z</time>
      </trkpt>
      <trkpt lat="36.79665" lon="27.92721">
        <ele>15.546</ele>
        <time>2018-05-11T07:02:42Z</time>
      </trkpt>
      <trkpt lat="36.79669" lon="27.92718">
        <ele>15.518</ele>
        <time>2018-05-11T07:02:12Z</time>
      </trkpt>
      <trkpt lat="36.79673" lon="27.92716">
        <ele>15.76</ele>
        <time>2018-05-11T07:01:57Z</time>
      </trkpt>
      <trkpt lat="36.79681" lon="27.92707">
        <ele>14.692</ele>
        <time>2018-05-11T07:01:32Z</time>
      </trkpt>
      <trkpt lat="36.79685" lon="27.92703">
        <ele>14.223</ele>
        <time>2018-05-11T07:01:15Z</time>
      </trkpt>
      <trkpt lat="36.79688" lon="27.92703">
        <ele>14.481</ele>
        <time>2018-05-11T07:00:42Z</time>
      </trkpt>
      <trkpt lat="36.79694" lon="27.927">
        <ele>14.083</ele>
        <time>2018-05-11T07:00:25Z</time>
      </trkpt>
      <trkpt lat="36.79699" lon="27.92696">
        <ele>13.427</ele>
        <time>2018-05-11T07:00:12Z</time>
      </trkpt>
      <trkpt lat="36.79708" lon="27.9269">
        <ele>12.176</ele>
        <time>2018-05-11T06:59:52Z</time>
      </trkpt>
      <trkpt lat="36.79716" lon="27.9269">
        <ele>12.01</ele>
        <time>2018-05-11T06:59:27Z</time>
      </trkpt>
      <trkpt lat="36.79718" lon="27.9269">
        <ele>11.971</ele>
        <time>2018-05-11T06:59:01Z</time>
      </trkpt>
      <trkpt lat="36.79726" lon="27.92684">
        <ele>10.486</ele>
        <time>2018-05-11T06:58:27Z</time>
      </trkpt>
      <trkpt lat="36.79731" lon="27.92685">
        <ele>10.399</ele>
        <time>2018-05-11T06:57:58Z</time>
      </trkpt>
      <trkpt lat="36.79737" lon="27.92686">
        <ele>10.118</ele>
        <time>2018-05-11T06:57:34Z</time>
      </trkpt>
      <trkpt lat="36.79738" lon="27.92688">
        <ele>10.245</ele>
        <time>2018-05-11T06:57:15Z</time>
      </trkpt>
      <trkpt lat="36.79745" lon="27.9269">
        <ele>9.988</ele>
        <time>2018-05-11T06:56:52Z</time>
      </trkpt>
      <trkpt lat="36.79756" lon="27.92688">
        <ele>8.398</ele>
        <time>2018-05-11T06:56:34Z</time>
      </trkpt>
      <trkpt lat="36.79757" lon="27.92688">
        <ele>8.341</ele>
        <time>2018-05-11T06:56:30Z</time>
      </trkpt>
      <trkpt lat="36.79764" lon="27.92687">
        <ele>7.245</ele>
        <time>2018-05-11T06:56:04Z</time>
      </trkpt>
      <trkpt lat="36.79771" lon="27.92684">
        <ele>5.828</ele>
        <time>2018-05-11T06:55:39Z</time>
      </trkpt>
      <trkpt lat="36.79779" lon="27.92695">
        <ele>5.831</ele>
        <time>2018-05-11T06:55:06Z</time>
      </trkpt>
      <trkpt lat="36.79784" lon="27.92701">
        <ele>5.631</ele>
        <time>2018-05-11T06:54:44Z</time>
      </trkpt>
      <trkpt lat="36.79791" lon="27.92699">
        <ele>3.607</ele>
        <time>2018-05-11T06:54:05Z</time>
      </trkpt>
      <trkpt lat="36.79797" lon="27.92697">
        <ele>1.904</ele>
        <time>2018-05-11T06:53:49Z</time>
      </trkpt>
      <trkpt lat="36.79797" lon="27.92696">
        <ele>1.862</ele>
        <time>2018-05-11T06:53:46Z</time>
      </trkpt>
      <trkpt lat="36.79799" lon="27.92698">
        <ele>1.544</ele>
        <time>2018-05-11T06:53:25Z</time>
      </trkpt>
      <trkpt lat="36.79805" lon="27.92696">
        <ele>0.216</ele>
        <time>2018-05-11T06:51:44Z</time>
      </trkpt>
      <trkpt lat="36.79805" lon="27.92696">
        <ele>0.216</ele>
        <time>2018-05-11T06:51:44Z</time>
      </trkpt>
      <trkpt lat="36.79805" lon="27.92696">
        <ele>0.216</ele>
        <time>2018-05-11T06:51:44Z</time>
      </trkpt>
      <trkpt lat="36.79805" lon="27.92696">
        <ele>0.216</ele>
        <time>2018-05-11T06:51:44Z</time>
      </trkpt>
      <trkpt lat="36.79802" lon="27.92701">
        <ele>0.921</ele>
      </trkpt>
      <trkpt lat="36.79802" lon="27.92698">
        <ele>0.879</ele>
      </trkpt>
      <trkpt lat="36.79802" lon="27.92695">
        <ele>0.81</ele>
      </trkpt>
      <trkpt lat="36.79802" lon="27.92692">
        <ele>0.782</ele>
      </trkpt>
      <trkpt lat="36.79802" lon="27.9269">
        <ele>0.739</ele>
      </trkpt>
      <trkpt lat="36.79802" lon="27.92687">
        <ele>0.716</ele>
      </trkpt>
      <trkpt lat="36.79802" lon="27.92684">
        <ele>0.69</ele>
      </trkpt>
      <trkpt lat="36.79802" lon="27.92681">
        <ele>0.645</ele>
      </trkpt>
      <trkpt lat="36.79802" lon="27.92678">
        <ele>0.616</ele>
      </trkpt>
      <trkpt lat="36.79802" lon="27.92675">
        <ele>0.57</ele>
      </trkpt>
      <trkpt lat="36.79801" lon="27.92672">
        <ele>0.535</ele>
      </trkpt>
      <trkpt lat="36.79801" lon="27.92669">
        <ele>0.499</ele>
      </trkpt>
      <trkpt lat="36.79801" lon="27.92666">
        <ele>0.457</ele>
      </trkpt>
      <trkpt lat="36.79801" lon="27.92663">
        <ele>0.451</ele>
      </trkpt>
      <trkpt lat="36.79801" lon="27.9266">
        <ele>0.435</ele>
      </trkpt>
      <trkpt lat="36.79801" lon="27.92658">
        <ele>0.428</ele>
      </trkpt>
      <trkpt lat="36.79801" lon="27.92655">
        <ele>0.421</ele>
      </trkpt>
      <trkpt lat="36.79801" lon="27.92652">
        <ele>0.403</ele>
      </trkpt>
      <trkpt lat="36.79801" lon="27.92649">
        <ele>0.395</ele>
      </trkpt>
      <trkpt lat="36.79801" lon="27.92646">
        <ele>0.377</ele>
      </trkpt>
      <trkpt lat="36.798" lon="27.92639">
        <ele>0.369</ele>
      </trkpt>
      <trkpt lat="36.79801" lon="27.92634">
        <ele>0.298</ele>
      </trkpt>
      <trkpt lat="36.79802" lon="27.92629">
        <ele>0.24</ele>
      </trkpt>
      <trkpt lat="36.79802" lon="27.92625">
        <ele>0.181</ele>
      </trkpt>
      <trkpt lat="36.79803" lon="27.92619">
        <ele>0.123</ele>
      </trkpt>
      <trkpt lat="36.79803" lon="27.92616">
        <ele>0.099</ele>
      </trkpt>
      <trkpt lat="36.79804" lon="27.9261">
        <ele>0.063</ele>
      </trkpt>
      <trkpt lat="36.79803" lon="27.92606">
        <ele>0.088</ele>
      </trkpt>
      <trkpt lat="36.79803" lon="27.92603">
        <ele>0.088</ele>
      </trkpt>
      <trkpt lat="36.79804" lon="27.92596">
        <ele>0.049</ele>
      </trkpt>
      <trkpt lat="36.79805" lon="27.92592">
        <ele>0.027</ele>
      </trkpt>
      <trkpt lat="36.79805" lon="27.92587">
        <ele>0.013</ele>
      </trkpt>
      <trkpt lat="36.79805" lon="27.92582">
        <ele>0.027</ele>
      </trkpt>
      <trkpt lat="36.79805" lon="27.92578">
        <ele>0.024</ele>
      </trkpt>
      <trkpt lat="36.79806" lon="27.92572">
        <ele>0.002</ele>
      </trkpt>
      <trkpt lat="36.79806" lon="27.92565">
        <ele>0.002</ele>
      </trkpt>
      <trkpt lat="36.79803" lon="27.9256">
        <ele>0.078</ele>
      </trkpt>
      <trkpt lat="36.79802" lon="27.92553">
        <ele>0.131</ele>
      </trkpt>
      <trkpt lat="36.798" lon="27.92551">
        <ele>0.158</ele>
      </trkpt>
      <trkpt lat="36.79799" lon="27.92547">
        <ele>0.163</ele>
      </trkpt>
      <trkpt lat="36.79797" lon="27.92543">
        <ele>0.171</ele>
      </trkpt>
      <trkpt lat="36.79794" lon="27.92537">
        <ele>0.143</ele>
      </trkpt>
      <trkpt lat="36.79792" lon="27.92531">
        <ele>0.062</ele>
      </trkpt>
      <trkpt lat="36.79791" lon="27.92525">
        <ele>1.3</ele>
      </trkpt>
      <trkpt lat="36.79789" lon="27.92521">
        <ele>1.2</ele>
      </trkpt>
      <trkpt lat="36.79788" lon="27.92516">
        <ele>1.2</ele>
      </trkpt>
      <trkpt lat="36.79788" lon="27.92512">
        <ele>1.1</ele>
      </trkpt>
      <trkpt lat="36.79786" lon="27.92506">
        <ele>1.1</ele>
      </trkpt>
      <trkpt lat="36.79785" lon="27.92503">
        <ele>1</ele>
      </trkpt>
      <trkpt lat="36.79783" lon="27.92496">
        <ele>1</ele>
      </trkpt>
      <trkpt lat="36.79783" lon="27.92491">
        <ele>1</ele>
      </trkpt>
      <trkpt lat="36.79782" lon="27.92486">
        <ele>1</ele>
      </trkpt>
      <trkpt lat="36.79781" lon="27.92482">
        <ele>1</ele>
      </trkpt>
      <trkpt lat="36.79779" lon="27.92476">
        <ele>1</ele>
      </trkpt>
      <trkpt lat="36.79778" lon="27.9247">
        <ele>0.003</ele>
      </trkpt>
      <trkpt lat="36.79776" lon="27.92467">
        <ele>0.053</ele>
      </trkpt>
      <trkpt lat="36.79776" lon="27.92462">
        <ele>0.082</ele>
      </trkpt>
      <trkpt lat="36.79774" lon="27.92459">
        <ele>0.147</ele>
      </trkpt>
      <trkpt lat="36.79772" lon="27.92454">
        <ele>0.204</ele>
      </trkpt>
      <trkpt lat="36.7977" lon="27.92448">
        <ele>0.287</ele>
      </trkpt>
      <trkpt lat="36.79769" lon="27.92443">
        <ele>0.334</ele>
      </trkpt>
      <trkpt lat="36.79768" lon="27.92439">
        <ele>0.352</ele>
      </trkpt>
      <trkpt lat="36.79766" lon="27.92435">
        <ele>0.428</ele>
      </trkpt>
      <trkpt lat="36.79765" lon="27.92431">
        <ele>0.446</ele>
      </trkpt>
      <trkpt lat="36.79764" lon="27.92426">
        <ele>0.493</ele>
      </trkpt>
      <trkpt lat="36.79763" lon="27.92421">
        <ele>0.521</ele>
      </trkpt>
      <trkpt lat="36.79762" lon="27.92415">
        <ele>0.568</ele>
      </trkpt>
      <trkpt lat="36.79762" lon="27.92411">
        <ele>0.553</ele>
      </trkpt>
      <trkpt lat="36.79762" lon="27.92407">
        <ele>0.564</ele>
      </trkpt>
      <trkpt lat="36.79762" lon="27.92401">
        <ele>0.575</ele>
      </trkpt>
      <trkpt lat="36.7976" lon="27.92396">
        <ele>0.644</ele>
      </trkpt>
      <trkpt lat="36.79757" lon="27.9239">
        <ele>0.748</ele>
      </trkpt>
      <trkpt lat="36.79756" lon="27.92387">
        <ele>0.802</ele>
      </trkpt>
      <trkpt lat="36.79756" lon="27.92383">
        <ele>0.825</ele>
      </trkpt>
      <trkpt lat="36.79755" lon="27.92377">
        <ele>0.89</ele>
      </trkpt>
      <trkpt lat="36.79755" lon="27.92373">
        <ele>0.925</ele>
      </trkpt>
      <trkpt lat="36.79753" lon="27.92367">
        <ele>0.978</ele>
      </trkpt>
      <trkpt lat="36.79751" lon="27.92364">
        <ele>0.998</ele>
      </trkpt>
      <trkpt lat="36.79751" lon="27.92356">
        <ele>1</ele>
      </trkpt>
      <trkpt lat="36.7975" lon="27.92352">
        <ele>1</ele>
      </trkpt>
      <trkpt lat="36.7975" lon="27.92348">
        <ele>1.009</ele>
      </trkpt>
      <trkpt lat="36.79748" lon="27.92344">
        <ele>1.189</ele>
      </trkpt>
      <trkpt lat="36.79748" lon="27.92338">
        <ele>1.141</ele>
      </trkpt>
      <trkpt lat="36.79748" lon="27.92335">
        <ele>1.162</ele>
      </trkpt>
      <trkpt lat="36.79747" lon="27.92329">
        <ele>1.254</ele>
      </trkpt>
      <trkpt lat="36.79748" lon="27.92322">
        <ele>1.207</ele>
      </trkpt>
      <trkpt lat="36.79747" lon="27.92319">
        <ele>1.264</ele>
      </trkpt>
      <trkpt lat="36.79746" lon="27.92315">
        <ele>1.362</ele>
      </trkpt>
      <trkpt lat="36.79747" lon="27.92311">
        <ele>1.332</ele>
      </trkpt>
      <trkpt lat="36.79747" lon="27.92307">
        <ele>1.319</ele>
      </trkpt>
      <trkpt lat="36.79747" lon="27.92304">
        <ele>1.295</ele>
      </trkpt>
      <trkpt lat="36.79746" lon="27.92297">
        <ele>1.346</ele>
      </trkpt>
      <trkpt lat="36.79744" lon="27.92294">
        <ele>1.52</ele>
      </trkpt>
      <trkpt lat="36.79743" lon="27.92289">
        <ele>1.588</ele>
      </trkpt>
      <trkpt lat="36.79742" lon="27.92285">
        <ele>1.675</ele>
      </trkpt>
      <trkpt lat="36.79743" lon="27.92282">
        <ele>1.523</ele>
      </trkpt>
      <trkpt lat="36.79745" lon="27.92277">
        <ele>1.341</ele>
      </trkpt>
      <trkpt lat="36.79744" lon="27.92273">
        <ele>1.148</ele>
      </trkpt>
      <trkpt lat="36.79746" lon="27.92268">
        <ele>0.858</ele>
      </trkpt>
      <trkpt lat="36.79745" lon="27.92264">
        <ele>0.674</ele>
      </trkpt>
      <trkpt lat="36.79747" lon="27.92259">
        <ele>0.397</ele>
      </trkpt>
      <trkpt lat="36.79746" lon="27.92255">
        <ele>0.22</ele>
      </trkpt>
      <trkpt lat="36.79747" lon="27.9225">
        <ele>8</ele>
      </trkpt>
      <trkpt lat="36.79748" lon="27.92246">
        <ele>8.2</ele>
      </trkpt>
      <trkpt lat="36.7975" lon="27.92242">
        <ele>8.5</ele>
      </trkpt>
      <trkpt lat="36.79749" lon="27.92238">
        <ele>8.7</ele>
      </trkpt>
      <trkpt lat="36.79747" lon="27.92234">
        <ele>9</ele>
      </trkpt>
      <trkpt lat="36.79747" lon="27.9223">
        <ele>9.2</ele>
      </trkpt>
      <trkpt lat="36.79746" lon="27.92227">
        <ele>9.4</ele>
      </trkpt>
      <trkpt lat="36.79746" lon="27.92223">
        <ele>9.6</ele>
      </trkpt>
      <trkpt lat="36.79746" lon="27.92218">
        <ele>9.9</ele>
      </trkpt>
      <trkpt lat="36.79745" lon="27.92211">
        <ele>10.3</ele>
      </trkpt>
      <trkpt lat="36.79745" lon="27.92206">
        <ele>10.7</ele>
      </trkpt>
      <trkpt lat="36.79746" lon="27.92201">
        <ele>10.9</ele>
      </trkpt>
      <trkpt lat="36.79744" lon="27.92197">
        <ele>11.2</ele>
      </trkpt>
      <trkpt lat="36.79745" lon="27.92194">
        <ele>11.4</ele>
      </trkpt>
      <trkpt lat="36.79746" lon="27.92189">
        <ele>11.7</ele>
      </trkpt>
      <trkpt lat="36.79746" lon="27.92184">
        <ele>11.9</ele>
      </trkpt>
      <trkpt lat="36.79746" lon="27.92181">
        <ele>12.1</ele>
      </trkpt>
      <trkpt lat="36.79746" lon="27.92176">
        <ele>12.5</ele>
      </trkpt>
      <trkpt lat="36.79746" lon="27.9217">
        <ele>12.8</ele>
      </trkpt>
      <trkpt lat="36.79745" lon="27.92166">
        <ele>13</ele>
      </trkpt>
      <trkpt lat="36.79745" lon="27.92162">
        <ele>12.9</ele>
      </trkpt>
      <trkpt lat="36.79744" lon="27.92157">
        <ele>12.9</ele>
      </trkpt>
      <trkpt lat="36.79745" lon="27.92153">
        <ele>12.8</ele>
      </trkpt>
      <trkpt lat="36.79745" lon="27.92149">
        <ele>12.8</ele>
      </trkpt>
      <trkpt lat="36.79745" lon="27.92145">
        <ele>12.7</ele>
      </trkpt>
      <trkpt lat="36.79744" lon="27.92141">
        <ele>12.7</ele>
      </trkpt>
      <trkpt lat="36.79746" lon="27.92138">
        <ele>12.7</ele>
      </trkpt>
      <trkpt lat="36.79745" lon="27.92134">
        <ele>12.6</ele>
      </trkpt>
      <trkpt lat="36.79743" lon="27.9213">
        <ele>12.6</ele>
      </trkpt>
      <trkpt lat="36.79743" lon="27.92125">
        <ele>12.5</ele>
      </trkpt>
      <trkpt lat="36.79743" lon="27.92121">
        <ele>12.5</ele>
      </trkpt>
      <trkpt lat="36.79742" lon="27.92117">
        <ele>12.4</ele>
      </trkpt>
      <trkpt lat="36.79741" lon="27.92111">
        <ele>12.3</ele>
      </trkpt>
      <trkpt lat="36.79741" lon="27.92105">
        <ele>12.3</ele>
      </trkpt>
      <trkpt lat="36.79742" lon="27.921">
        <ele>12.2</ele>
      </trkpt>
      <trkpt lat="36.79741" lon="27.92096">
        <ele>12.2</ele>
      </trkpt>
      <trkpt lat="36.7974" lon="27.92093">
        <ele>12.1</ele>
      </trkpt>
      <trkpt lat="36.79739" lon="27.92088">
        <ele>12.1</ele>
      </trkpt>
      <trkpt lat="36.79738" lon="27.92084">
        <ele>12</ele>
      </trkpt>
      <trkpt lat="36.79738" lon="27.92079">
        <ele>12.2</ele>
      </trkpt>
      <trkpt lat="36.79737" lon="27.92072">
        <ele>12.5</ele>
      </trkpt>
      <trkpt lat="36.79737" lon="27.92069">
        <ele>12.7</ele>
      </trkpt>
      <trkpt lat="36.79736" lon="27.92063">
        <ele>13</ele>
      </trkpt>
      <trkpt lat="36.79737" lon="27.92059">
        <ele>13.2</ele>
      </trkpt>
      <trkpt lat="36.79737" lon="27.92054">
        <ele>13.4</ele>
      </trkpt>
      <trkpt lat="36.79736" lon="27.9205">
        <ele>13.6</ele>
      </trkpt>
      <trkpt lat="36.79736" lon="27.92045">
        <ele>13.8</ele>
      </trkpt>
      <trkpt lat="36.79735" lon="27.92041">
        <ele>14</ele>
      </trkpt>
      <trkpt lat="36.79737" lon="27.92034">
        <ele>14.4</ele>
      </trkpt>
      <trkpt lat="36.79738" lon="27.92028">
        <ele>14.6</ele>
      </trkpt>
      <trkpt lat="36.79736" lon="27.92025">
        <ele>14.8</ele>
      </trkpt>
      <trkpt lat="36.79736" lon="27.92019">
        <ele>15.1</ele>
      </trkpt>
      <trkpt lat="36.79735" lon="27.92013">
        <ele>15.4</ele>
      </trkpt>
      <trkpt lat="36.79735" lon="27.92005">
        <ele>15.7</ele>
      </trkpt>
      <trkpt lat="36.79737" lon="27.91999">
        <ele>15.9</ele>
      </trkpt>
      <trkpt lat="36.79738" lon="27.91993">
        <ele>15.3</ele>
      </trkpt>
      <trkpt lat="36.79738" lon="27.91989">
        <ele>15</ele>
      </trkpt>
      <trkpt lat="36.79739" lon="27.91983">
        <ele>14.4</ele>
      </trkpt>
      <trkpt lat="36.79739" lon="27.91977">
        <ele>13.8</ele>
      </trkpt>
      <trkpt lat="36.7974" lon="27.91973">
        <ele>13.4</ele>
      </trkpt>
      <trkpt lat="36.79742" lon="27.91967">
        <ele>0.896</ele>
      </trkpt>
      <trkpt lat="36.79742" lon="27.91963">
        <ele>1.44</ele>
      </trkpt>
      <trkpt lat="36.79741" lon="27.91958">
        <ele>2.543</ele>
      </trkpt>
      <trkpt lat="36.7974" lon="27.91953">
        <ele>3.549</ele>
      </trkpt>
      <trkpt lat="36.79742" lon="27.9195">
        <ele>3.384</ele>
      </trkpt>
      <trkpt lat="36.79742" lon="27.91944">
        <ele>4.21</ele>
      </trkpt>
      <trkpt lat="36.79743" lon="27.91939">
        <ele>4.052</ele>
      </trkpt>
      <trkpt lat="36.79742" lon="27.91935">
        <ele>4.482</ele>
      </trkpt>
      <trkpt lat="36.79745" lon="27.91932">
        <ele>2.753</ele>
      </trkpt>
      <trkpt lat="36.79748" lon="27.91928">
        <ele>1.133</ele>
      </trkpt>
      <trkpt lat="36.79749" lon="27.91923">
        <ele>0.757</ele>
      </trkpt>
      <trkpt lat="36.79751" lon="27.91917">
        <ele>6</ele>
      </trkpt>
      <trkpt lat="36.79752" lon="27.91911">
        <ele>2.012</ele>
      </trkpt>
      <trkpt lat="36.79754" lon="27.91906">
        <ele>3.769</ele>
      </trkpt>
      <trkpt lat="36.79756" lon="27.91902">
        <ele>4.449</ele>
      </trkpt>
      <trkpt lat="36.7976" lon="27.91899">
        <ele>4.476</ele>
      </trkpt>
      <trkpt lat="36.79762" lon="27.91892">
        <ele>5.419</ele>
      </trkpt>
      <trkpt lat="36.79766" lon="27.91888">
        <ele>4.856</ele>
      </trkpt>
      <trkpt lat="36.79767" lon="27.91884">
        <ele>4.246</ele>
      </trkpt>
      <trkpt lat="36.79768" lon="27.91881">
        <ele>3.889</ele>
      </trkpt>
      <trkpt lat="36.79768" lon="27.91875">
        <ele>3.852</ele>
      </trkpt>
      <trkpt lat="36.79765" lon="27.91873">
        <ele>4.942</ele>
      </trkpt>
      <trkpt lat="36.79764" lon="27.91869">
        <ele>5.218</ele>
      </trkpt>
      <trkpt lat="36.79764" lon="27.91864">
        <ele>5.123</ele>
      </trkpt>
      <trkpt lat="36.79763" lon="27.91861">
        <ele>5.376</ele>
      </trkpt>
      <trkpt lat="36.79766" lon="27.91856">
        <ele>5.06</ele>
      </trkpt>
      <trkpt lat="36.79768" lon="27.91853">
        <ele>5.041</ele>
      </trkpt>
      <trkpt lat="36.79769" lon="27.9185">
        <ele>5.23</ele>
      </trkpt>
      <trkpt lat="36.79772" lon="27.91848">
        <ele>4.908</ele>
      </trkpt>
      <trkpt lat="36.79774" lon="27.91843">
        <ele>5.611</ele>
      </trkpt>
      <trkpt lat="36.79776" lon="27.91838">
        <ele>6.037</ele>
      </trkpt>
      <trkpt lat="36.79779" lon="27.91837">
        <ele>5.995</ele>
      </trkpt>
      <trkpt lat="36.79781" lon="27.91833">
        <ele>6.247</ele>
      </trkpt>
      <trkpt lat="36.79784" lon="27.91833">
        <ele>5.506</ele>
      </trkpt>
      <trkpt lat="36.79786" lon="27.91832">
        <ele>5.217</ele>
      </trkpt>
      <trkpt lat="36.79787" lon="27.91827">
        <ele>5.862</ele>
      </trkpt>
      <trkpt lat="36.7979" lon="27.91823">
        <ele>6.352</ele>
      </trkpt>
      <trkpt lat="36.79792" lon="27.91818">
        <ele>7.124</ele>
      </trkpt>
      <trkpt lat="36.79795" lon="27.91816">
        <ele>7.078</ele>
      </trkpt>
      <trkpt lat="36.79798" lon="27.91816">
        <ele>6.781</ele>
      </trkpt>
      <trkpt lat="36.79801" lon="27.91814">
        <ele>6.778</ele>
      </trkpt>
      <trkpt lat="36.79804" lon="27.91813">
        <ele>6.854</ele>
      </trkpt>
      <trkpt lat="36.79807" lon="27.91812">
        <ele>6.916</ele>
      </trkpt>
      <trkpt lat="36.79811" lon="27.9181">
        <ele>7.386</ele>
      </trkpt>
      <trkpt lat="36.79813" lon="27.91808">
        <ele>7.707</ele>
      </trkpt>
      <trkpt lat="36.79816" lon="27.91805">
        <ele>8.385</ele>
      </trkpt>
      <trkpt lat="36.79819" lon="27.91802">
        <ele>8.729</ele>
      </trkpt>
      <trkpt lat="36.79822" lon="27.91799">
        <ele>8.92</ele>
      </trkpt>
      <trkpt lat="36.79824" lon="27.91796">
        <ele>9.192</ele>
      </trkpt>
      <trkpt lat="36.79829" lon="27.91793">
        <ele>9.203</ele>
      </trkpt>
      <trkpt lat="36.79833" lon="27.91791">
        <ele>9.215</ele>
      </trkpt>
      <trkpt lat="36.79836" lon="27.91789">
        <ele>9.101</ele>
      </trkpt>
      <trkpt lat="36.79839" lon="27.91787">
        <ele>8.873</ele>
      </trkpt>
      <trkpt lat="36.79842" lon="27.91786">
        <ele>8.529</ele>
      </trkpt>
      <trkpt lat="36.79845" lon="27.91784">
        <ele>8.543</ele>
      </trkpt>
      <trkpt lat="36.79849" lon="27.91781">
        <ele>8.583</ele>
      </trkpt>
      <trkpt lat="36.79854" lon="27.91782">
        <ele>7.619</ele>
      </trkpt>
      <trkpt lat="36.79858" lon="27.91782">
        <ele>7.323</ele>
      </trkpt>
      <trkpt lat="36.79863" lon="27.91779">
        <ele>6.968</ele>
      </trkpt>
      <trkpt lat="36.79867" lon="27.91777">
        <ele>6.443</ele>
      </trkpt>
      <trkpt lat="36.79871" lon="27.91774">
        <ele>6.277</ele>
      </trkpt>
      <trkpt lat="36.79875" lon="27.91771">
        <ele>5.951</ele>
      </trkpt>
      <trkpt lat="36.79878" lon="27.91771">
        <ele>5.284</ele>
      </trkpt>
      <trkpt lat="36.79881" lon="27.91771">
        <ele>4.77</ele>
      </trkpt>
      <trkpt lat="36.79885" lon="27.91766">
        <ele>5.561</ele>
      </trkpt>
      <trkpt lat="36.79888" lon="27.91766">
        <ele>5.443</ele>
      </trkpt>
      <trkpt lat="36.79892" lon="27.91762">
        <ele>6.882</ele>
      </trkpt>
      <trkpt lat="36.79895" lon="27.91758">
        <ele>8.292</ele>
      </trkpt>
      <trkpt lat="36.79899" lon="27.91754">
        <ele>9.966</ele>
      </trkpt>
      <trkpt lat="36.79902" lon="27.9175">
        <ele>11.488</ele>
      </trkpt>
      <trkpt lat="36.79906" lon="27.91747">
        <ele>11.887</ele>
      </trkpt>
      <trkpt lat="36.7991" lon="27.91744">
        <ele>12.075</ele>
      </trkpt>
      <trkpt lat="36.79913" lon="27.9174">
        <ele>12.316</ele>
      </trkpt>
      <trkpt lat="36.79917" lon="27.91736">
        <ele>12.486</ele>
      </trkpt>
      <trkpt lat="36.7992" lon="27.91731">
        <ele>12.45</ele>
      </trkpt>
      <trkpt lat="36.79923" lon="27.91729">
        <ele>12.323</ele>
      </trkpt>
      <trkpt lat="36.79926" lon="27.91726">
        <ele>11.918</ele>
      </trkpt>
      <trkpt lat="36.79929" lon="27.91724">
        <ele>11.613</ele>
      </trkpt>
      <trkpt lat="36.79931" lon="27.91721">
        <ele>11.529</ele>
      </trkpt>
      <trkpt lat="36.79934" lon="27.91717">
        <ele>11.277</ele>
      </trkpt>
      <trkpt lat="36.79937" lon="27.91714">
        <ele>11.026</ele>
      </trkpt>
      <trkpt lat="36.7994" lon="27.91713">
        <ele>10.432</ele>
      </trkpt>
      <trkpt lat="36.79944" lon="27.91712">
        <ele>9.85</ele>
      </trkpt>
      <trkpt lat="36.79948" lon="27.91709">
        <ele>9.866</ele>
      </trkpt>
      <trkpt lat="36.79951" lon="27.91707">
        <ele>9.907</ele>
      </trkpt>
      <trkpt lat="36.79954" lon="27.91703">
        <ele>10.214</ele>
      </trkpt>
      <trkpt lat="36.79957" lon="27.917">
        <ele>10.404</ele>
      </trkpt>
      <trkpt lat="36.79959" lon="27.91698">
        <ele>10.563</ele>
      </trkpt>
      <trkpt lat="36.79962" lon="27.91698">
        <ele>10.628</ele>
      </trkpt>
      <trkpt lat="36.79965" lon="27.91697">
        <ele>10.666</ele>
      </trkpt>
      <trkpt lat="36.79968" lon="27.91697">
        <ele>10.617</ele>
      </trkpt>
      <trkpt lat="36.79972" lon="27.91696">
        <ele>10.849</ele>
      </trkpt>
      <trkpt lat="36.79977" lon="27.91695">
        <ele>11.092</ele>
      </trkpt>
      <trkpt lat="36.79983" lon="27.91695">
        <ele>11.355</ele>
      </trkpt>
      <trkpt lat="36.79986" lon="27.91695">
        <ele>11.401</ele>
      </trkpt>
      <trkpt lat="36.79988" lon="27.91698">
        <ele>11.135</ele>
      </trkpt>
      <trkpt lat="36.79992" lon="27.917">
        <ele>10.909</ele>
      </trkpt>
      <trkpt lat="36.79994" lon="27.91701">
        <ele>10.818</ele>
      </trkpt>
      <trkpt lat="36.79997" lon="27.91701">
        <ele>10.898</ele>
      </trkpt>
      <trkpt lat="36.80003" lon="27.91701">
        <ele>10.884</ele>
      </trkpt>
      <trkpt lat="36.80006" lon="27.917">
        <ele>10.763</ele>
      </trkpt>
      <trkpt lat="36.8001" lon="27.91699">
        <ele>10.63</ele>
      </trkpt>
      <trkpt lat="36.80013" lon="27.91699">
        <ele>10.491</ele>
      </trkpt>
      <trkpt lat="36.80018" lon="27.91699">
        <ele>10.111</ele>
      </trkpt>
      <trkpt lat="36.80021" lon="27.91698">
        <ele>10.091</ele>
      </trkpt>
      <trkpt lat="36.80024" lon="27.91694">
        <ele>10.373</ele>
      </trkpt>
      <trkpt lat="36.80027" lon="27.91693">
        <ele>10.42</ele>
      </trkpt>
      <trkpt lat="36.8003" lon="27.91691">
        <ele>10.506</ele>
      </trkpt>
      <trkpt lat="36.80035" lon="27.91688">
        <ele>10.806</ele>
      </trkpt>
      <trkpt lat="36.80037" lon="27.91684">
        <ele>11.239</ele>
      </trkpt>
      <trkpt lat="36.8004" lon="27.91679">
        <ele>11.806</ele>
      </trkpt>
      <trkpt lat="36.80043" lon="27.91678">
        <ele>11.826</ele>
      </trkpt>
      <trkpt lat="36.80045" lon="27.91674">
        <ele>12.125</ele>
      </trkpt>
      <trkpt lat="36.80047" lon="27.91671">
        <ele>12.392</ele>
      </trkpt>
      <trkpt lat="36.80048" lon="27.91666">
        <ele>12.89</ele>
      </trkpt>
      <trkpt lat="36.80051" lon="27.91662">
        <ele>12.999</ele>
      </trkpt>
      <trkpt lat="36.80054" lon="27.91657">
        <ele>13.255</ele>
      </trkpt>
      <trkpt lat="36.80056" lon="27.91654">
        <ele>13.395</ele>
      </trkpt>
      <trkpt lat="36.80056" lon="27.9165">
        <ele>13.815</ele>
      </trkpt>
      <trkpt lat="36.80056" lon="27.91646">
        <ele>14.28</ele>
      </trkpt>
      <trkpt lat="36.8006" lon="27.91642">
        <ele>14.551</ele>
      </trkpt>
      <trkpt lat="36.80062" lon="27.91638">
        <ele>14.75</ele>
      </trkpt>
      <trkpt lat="36.80062" lon="27.91631">
        <ele>14.509</ele>
      </trkpt>
      <trkpt lat="36.80064" lon="27.91624">
        <ele>14.149</ele>
      </trkpt>
      <trkpt lat="36.80064" lon="27.9162">
        <ele>14.016</ele>
      </trkpt>
      <trkpt lat="36.80069" lon="27.91613">
        <ele>13.57</ele>
      </trkpt>
      <trkpt lat="36.80071" lon="27.91609">
        <ele>13.339</ele>
      </trkpt>
      <trkpt lat="36.80072" lon="27.91605">
        <ele>13.206</ele>
      </trkpt>
      <trkpt lat="36.80074" lon="27.91601">
        <ele>12.983</ele>
      </trkpt>
      <trkpt lat="36.80077" lon="27.91596">
        <ele>12.702</ele>
      </trkpt>
      <trkpt lat="36.80078" lon="27.91593">
        <ele>12.536</ele>
      </trkpt>
      <trkpt lat="36.8008" lon="27.91589">
        <ele>12.328</ele>
      </trkpt>
      <trkpt lat="36.80081" lon="27.91584">
        <ele>12.086</ele>
      </trkpt>
      <trkpt lat="36.80084" lon="27.91579">
        <ele>12.3</ele>
      </trkpt>
      <trkpt lat="36.80083" lon="27.91575">
        <ele>12.629</ele>
      </trkpt>
      <trkpt lat="36.80084" lon="27.91569">
        <ele>13.006</ele>
      </trkpt>
      <trkpt lat="36.80087" lon="27.91564">
        <ele>13.396</ele>
      </trkpt>
      <trkpt lat="36.80085" lon="27.91558">
        <ele>13.795</ele>
      </trkpt>
      <trkpt lat="36.80086" lon="27.91555">
        <ele>14.066</ele>
      </trkpt>
      <trkpt lat="36.80087" lon="27.91551">
        <ele>14.309</ele>
      </trkpt>
      <trkpt lat="36.80087" lon="27.91547">
        <ele>14.552</ele>
      </trkpt>
      <trkpt lat="36.80089" lon="27.9154">
        <ele>15.006</ele>
      </trkpt>
      <trkpt lat="36.80091" lon="27.91536">
        <ele>15.221</ele>
      </trkpt>
      <trkpt lat="36.80092" lon="27.91531">
        <ele>15.473</ele>
      </trkpt>
      <trkpt lat="36.80094" lon="27.91528">
        <ele>15.61</ele>
      </trkpt>
      <trkpt lat="36.80096" lon="27.91522">
        <ele>15.637</ele>
      </trkpt>
      <trkpt lat="36.80098" lon="27.91515">
        <ele>15.726</ele>
      </trkpt>
      <trkpt lat="36.80098" lon="27.9151">
        <ele>15.813</ele>
      </trkpt>
      <trkpt lat="36.80099" lon="27.91507">
        <ele>15.867</ele>
      </trkpt>
      <trkpt lat="36.80098" lon="27.91503">
        <ele>15.946</ele>
      </trkpt>
      <trkpt lat="36.801" lon="27.91501">
        <ele>15.985</ele>
      </trkpt>
      <trkpt lat="36.801" lon="27.91497">
        <ele>16</ele>
      </trkpt>
      <trkpt lat="36.801" lon="27.91492">
        <ele>16</ele>
      </trkpt>
      <trkpt lat="36.80098" lon="27.9149">
        <ele>16</ele>
      </trkpt>
      <trkpt lat="36.801" lon="27.91488">
        <ele>16</ele>
      </trkpt>
      <trkpt lat="36.80099" lon="27.91483">
        <ele>16</ele>
      </trkpt>
      <trkpt lat="36.80101" lon="27.9148">
        <ele>16</ele>
      </trkpt>
      <trkpt lat="36.80104" lon="27.91476">
        <ele>16</ele>
      </trkpt>
      <trkpt lat="36.80104" lon="27.91468">
        <ele>15.882</ele>
      </trkpt>
      <trkpt lat="36.80107" lon="27.91465">
        <ele>15.768</ele>
      </trkpt>
      <trkpt lat="36.80106" lon="27.9146">
        <ele>15.65</ele>
      </trkpt>
      <trkpt lat="36.80108" lon="27.91458">
        <ele>15.533</ele>
      </trkpt>
      <trkpt lat="36.80111" lon="27.91455">
        <ele>15.408</ele>
      </trkpt>
      <trkpt lat="36.80111" lon="27.91451">
        <ele>15.239</ele>
      </trkpt>
      <trkpt lat="36.80112" lon="27.91447">
        <ele>15.125</ele>
      </trkpt>
      <trkpt lat="36.80114" lon="27.91444">
        <ele>15.095</ele>
      </trkpt>
      <trkpt lat="36.80116" lon="27.91442">
        <ele>15.272</ele>
      </trkpt>
      <trkpt lat="36.80118" lon="27.91436">
        <ele>15.595</ele>
      </trkpt>
      <trkpt lat="36.80118" lon="27.91431">
        <ele>15.828</ele>
      </trkpt>
      <trkpt lat="36.80118" lon="27.91427">
        <ele>15.991</ele>
      </trkpt>
      <trkpt lat="36.80119" lon="27.91422">
        <ele>16.303</ele>
      </trkpt>
      <trkpt lat="36.8012" lon="27.91417">
        <ele>16.676</ele>
      </trkpt>
      <trkpt lat="36.80121" lon="27.91412">
        <ele>17.085</ele>
      </trkpt>
      <trkpt lat="36.8012" lon="27.91408">
        <ele>17.539</ele>
      </trkpt>
      <trkpt lat="36.80121" lon="27.91403">
        <ele>18</ele>
      </trkpt>
      <trkpt lat="36.80122" lon="27.91399">
        <ele>18.5</ele>
      </trkpt>
      <trkpt lat="36.80124" lon="27.91395">
        <ele>18.938</ele>
      </trkpt>
      <trkpt lat="36.80125" lon="27.9139">
        <ele>19.424</ele>
      </trkpt>
      <trkpt lat="36.80125" lon="27.91386">
        <ele>19.648</ele>
      </trkpt>
      <trkpt lat="36.80125" lon="27.91381">
        <ele>19.914</ele>
      </trkpt>
      <trkpt lat="36.80125" lon="27.91377">
        <ele>20.153</ele>
      </trkpt>
      <trkpt lat="36.80124" lon="27.91374">
        <ele>20.286</ele>
      </trkpt>
      <trkpt lat="36.80126" lon="27.9137">
        <ele>20.534</ele>
      </trkpt>
      <trkpt lat="36.80126" lon="27.91367">
        <ele>20.769</ele>
      </trkpt>
      <trkpt lat="36.80127" lon="27.91361">
        <ele>21.155</ele>
      </trkpt>
      <trkpt lat="36.80129" lon="27.91357">
        <ele>21.492</ele>
      </trkpt>
      <trkpt lat="36.80132" lon="27.91354">
        <ele>21.882</ele>
      </trkpt>
      <trkpt lat="36.80128" lon="27.91352">
        <ele>21.666</ele>
      </trkpt>
      <trkpt lat="36.80127" lon="27.91348">
        <ele>21.665</ele>
      </trkpt>
      <trkpt lat="36.80125" lon="27.91345">
        <ele>21.61</ele>
      </trkpt>
      <trkpt lat="36.80128" lon="27.91339">
        <ele>22.176</ele>
      </trkpt>
      <trkpt lat="36.80128" lon="27.91335">
        <ele>22.309</ele>
      </trkpt>
      <trkpt lat="36.80127" lon="27.91331">
        <ele>22.391</ele>
      </trkpt>
      <trkpt lat="36.80127" lon="27.91328">
        <ele>22.715</ele>
      </trkpt>
      <trkpt lat="36.80128" lon="27.91322">
        <ele>23.176</ele>
      </trkpt>
      <trkpt lat="36.80127" lon="27.91317">
        <ele>23.485</ele>
      </trkpt>
      <trkpt lat="36.80128" lon="27.91312">
        <ele>23.918</ele>
      </trkpt>
      <trkpt lat="36.80129" lon="27.91308">
        <ele>24.428</ele>
      </trkpt>
      <trkpt lat="36.80131" lon="27.91303">
        <ele>24.977</ele>
      </trkpt>
      <trkpt lat="36.80133" lon="27.91297">
        <ele>25.805</ele>
      </trkpt>
      <trkpt lat="36.80133" lon="27.91292">
        <ele>26.056</ele>
      </trkpt>
      <trkpt lat="36.80131" lon="27.91289">
        <ele>26.077</ele>
      </trkpt>
      <trkpt lat="36.8013" lon="27.91284">
        <ele>26.279</ele>
      </trkpt>
      <trkpt lat="36.80128" lon="27.9128">
        <ele>26.358</ele>
      </trkpt>
      <trkpt lat="36.8013" lon="27.91276">
        <ele>26.925</ele>
      </trkpt>
      <trkpt lat="36.80129" lon="27.91273">
        <ele>27.403</ele>
      </trkpt>
      <trkpt lat="36.8013" lon="27.91268">
        <ele>28.198</ele>
      </trkpt>
      <trkpt lat="36.80132" lon="27.91265">
        <ele>29.008</ele>
      </trkpt>
      <trkpt lat="36.80134" lon="27.91261">
        <ele>29.776</ele>
      </trkpt>
      <trkpt lat="36.80138" lon="27.91259">
        <ele>30.609</ele>
      </trkpt>
      <trkpt lat="36.8014" lon="27.91256">
        <ele>31.434</ele>
      </trkpt>
      <trkpt lat="36.80143" lon="27.91252">
        <ele>32.745</ele>
      </trkpt>
      <trkpt lat="36.80146" lon="27.91251">
        <ele>33.635</ele>
      </trkpt>
      <trkpt lat="36.80149" lon="27.91246">
        <ele>35.333</ele>
      </trkpt>
      <trkpt lat="36.80152" lon="27.91244">
        <ele>36.595</ele>
      </trkpt>
      <trkpt lat="36.80154" lon="27.91242">
        <ele>37.783</ele>
      </trkpt>
      <trkpt lat="36.80153" lon="27.91236">
        <ele>38.71</ele>
      </trkpt>
      <trkpt lat="36.80154" lon="27.91234">
        <ele>39.711</ele>
      </trkpt>
      <trkpt lat="36.80157" lon="27.9123">
        <ele>41.043</ele>
      </trkpt>
      <trkpt lat="36.80159" lon="27.91228">
        <ele>42.084</ele>
      </trkpt>
      <trkpt lat="36.80162" lon="27.91226">
        <ele>43.154</ele>
      </trkpt>
      <trkpt lat="36.80163" lon="27.91221">
        <ele>44.247</ele>
      </trkpt>
      <trkpt lat="36.80162" lon="27.91218">
        <ele>44.749</ele>
      </trkpt>
      <trkpt lat="36.80165" lon="27.91216">
        <ele>45.595</ele>
      </trkpt>
      <trkpt lat="36.80167" lon="27.91212">
        <ele>46.534</ele>
      </trkpt>
      <trkpt lat="36.80168" lon="27.91209">
        <ele>47.225</ele>
      </trkpt>
      <trkpt lat="36.8017" lon="27.91203">
        <ele>48.204</ele>
      </trkpt>
      <trkpt lat="36.80172" lon="27.91202">
        <ele>48.794</ele>
      </trkpt>
      <trkpt lat="36.80174" lon="27.91198">
        <ele>49.601</ele>
      </trkpt>
      <trkpt lat="36.80177" lon="27.91196">
        <ele>50.234</ele>
      </trkpt>
      <trkpt lat="36.80179" lon="27.91194">
        <ele>50.919</ele>
      </trkpt>
      <trkpt lat="36.80182" lon="27.91191">
        <ele>51.624</ele>
      </trkpt>
      <trkpt lat="36.80183" lon="27.91188">
        <ele>52.113</ele>
      </trkpt>
      <trkpt lat="36.80186" lon="27.91187">
        <ele>52.611</ele>
      </trkpt>
      <trkpt lat="36.80189" lon="27.91186">
        <ele>52.989</ele>
      </trkpt>
      <trkpt lat="36.80191" lon="27.91183">
        <ele>53.495</ele>
      </trkpt>
      <trkpt lat="36.80193" lon="27.91179">
        <ele>53.965</ele>
      </trkpt>
      <trkpt lat="36.80195" lon="27.91177">
        <ele>54.389</ele>
      </trkpt>
      <trkpt lat="36.80194" lon="27.91172">
        <ele>54.593</ele>
      </trkpt>
      <trkpt lat="36.80197" lon="27.9117">
        <ele>54.997</ele>
      </trkpt>
      <trkpt lat="36.80199" lon="27.91167">
        <ele>55.452</ele>
      </trkpt>
      <trkpt lat="36.80199" lon="27.91164">
        <ele>55.569</ele>
      </trkpt>
      <trkpt lat="36.80201" lon="27.91159">
        <ele>55.806</ele>
      </trkpt>
      <trkpt lat="36.80201" lon="27.91155">
        <ele>55.905</ele>
      </trkpt>
      <trkpt lat="36.80202" lon="27.91151">
        <ele>56.092</ele>
      </trkpt>
      <trkpt lat="36.80205" lon="27.91148">
        <ele>56.288</ele>
      </trkpt>
      <trkpt lat="36.80207" lon="27.91144">
        <ele>56.415</ele>
      </trkpt>
      <trkpt lat="36.80206" lon="27.91141">
        <ele>56.414</ele>
      </trkpt>
      <trkpt lat="36.80208" lon="27.91137">
        <ele>56.481</ele>
      </trkpt>
      <trkpt lat="36.80209" lon="27.91132">
        <ele>56.518</ele>
      </trkpt>
      <trkpt lat="36.80211" lon="27.91127">
        <ele>56.515</ele>
      </trkpt>
      <trkpt lat="36.80213" lon="27.91123">
        <ele>56.48</ele>
      </trkpt>
      <trkpt lat="36.80216" lon="27.9112">
        <ele>56.409</ele>
      </trkpt>
      <trkpt lat="36.80217" lon="27.91117">
        <ele>56.314</ele>
      </trkpt>
      <trkpt lat="36.80219" lon="27.91113">
        <ele>56.173</ele>
      </trkpt>
      <trkpt lat="36.80221" lon="27.91109">
        <ele>55.986</ele>
      </trkpt>
      <trkpt lat="36.80223" lon="27.91106">
        <ele>55.864</ele>
      </trkpt>
      <trkpt lat="36.80224" lon="27.91102">
        <ele>55.843</ele>
      </trkpt>
      <trkpt lat="36.80226" lon="27.91099">
        <ele>55.979</ele>
      </trkpt>
      <trkpt lat="36.80228" lon="27.91095">
        <ele>55.986</ele>
      </trkpt>
      <trkpt lat="36.80229" lon="27.9109">
        <ele>55.958</ele>
      </trkpt>
      <trkpt lat="36.80232" lon="27.91084">
        <ele>56.08</ele>
      </trkpt>
      <trkpt lat="36.80234" lon="27.9108">
        <ele>55.968</ele>
      </trkpt>
      <trkpt lat="36.80235" lon="27.91076">
        <ele>55.696</ele>
      </trkpt>
      <trkpt lat="36.80236" lon="27.91072">
        <ele>55.414</ele>
      </trkpt>
      <trkpt lat="36.80235" lon="27.91068">
        <ele>54.969</ele>
      </trkpt>
      <trkpt lat="36.80235" lon="27.91064">
        <ele>54.634</ele>
      </trkpt>
      <trkpt lat="36.80236" lon="27.9106">
        <ele>54.397</ele>
      </trkpt>
      <trkpt lat="36.80238" lon="27.91056">
        <ele>54.206</ele>
      </trkpt>
      <trkpt lat="36.8024" lon="27.91051">
        <ele>53.834</ele>
      </trkpt>
      <trkpt lat="36.80242" lon="27.91047">
        <ele>53.457</ele>
      </trkpt>
      <trkpt lat="36.80241" lon="27.91043">
        <ele>52.977</ele>
      </trkpt>
      <trkpt lat="36.80242" lon="27.91038">
        <ele>52.467</ele>
      </trkpt>
      <trkpt lat="36.80244" lon="27.91033">
        <ele>51.885</ele>
      </trkpt>
      <trkpt lat="36.80242" lon="27.91029">
        <ele>51.385</ele>
      </trkpt>
      <trkpt lat="36.80244" lon="27.91026">
        <ele>51.075</ele>
      </trkpt>
      <trkpt lat="36.80244" lon="27.91021">
        <ele>50.779</ele>
      </trkpt>
      <trkpt lat="36.80244" lon="27.91017">
        <ele>50.519</ele>
      </trkpt>
      <trkpt lat="36.80245" lon="27.91013">
        <ele>50.174</ele>
      </trkpt>
      <trkpt lat="36.80247" lon="27.91008">
        <ele>49.792</ele>
      </trkpt>
      <trkpt lat="36.80249" lon="27.91003">
        <ele>49.298</ele>
      </trkpt>
      <trkpt lat="36.8025" lon="27.90999">
        <ele>49.076</ele>
      </trkpt>
      <trkpt lat="36.80252" lon="27.90994">
        <ele>49.26</ele>
      </trkpt>
      <trkpt lat="36.80255" lon="27.90989">
        <ele>49.422</ele>
      </trkpt>
      <trkpt lat="36.80256" lon="27.90985">
        <ele>49.519</ele>
      </trkpt>
      <trkpt lat="36.80258" lon="27.90981">
        <ele>49.584</ele>
      </trkpt>
      <trkpt lat="36.8026" lon="27.90978">
        <ele>49.577</ele>
      </trkpt>
      <trkpt lat="36.80263" lon="27.90975">
        <ele>49.52</ele>
      </trkpt>
      <trkpt lat="36.80267" lon="27.90972">
        <ele>49.398</ele>
      </trkpt>
      <trkpt lat="36.80269" lon="27.90969">
        <ele>49.53</ele>
      </trkpt>
      <trkpt lat="36.8027" lon="27.90963">
        <ele>49.769</ele>
      </trkpt>
      <trkpt lat="36.80273" lon="27.9096">
        <ele>49.812</ele>
      </trkpt>
      <trkpt lat="36.80275" lon="27.90955">
        <ele>49.886</ele>
      </trkpt>
      <trkpt lat="36.80278" lon="27.90951">
        <ele>49.759</ele>
      </trkpt>
      <trkpt lat="36.80279" lon="27.90947">
        <ele>49.813</ele>
      </trkpt>
      <trkpt lat="36.80282" lon="27.90944">
        <ele>49.7</ele>
      </trkpt>
      <trkpt lat="36.80282" lon="27.9094">
        <ele>49.807</ele>
      </trkpt>
      <trkpt lat="36.80284" lon="27.90937">
        <ele>49.673</ele>
      </trkpt>
      <trkpt lat="36.80287" lon="27.90933">
        <ele>49.458</ele>
      </trkpt>
      <trkpt lat="36.80291" lon="27.90929">
        <ele>49.109</ele>
      </trkpt>
      <trkpt lat="36.80293" lon="27.90925">
        <ele>48.838</ele>
      </trkpt>
      <trkpt lat="36.80295" lon="27.90922">
        <ele>48.617</ele>
      </trkpt>
      <trkpt lat="36.80294" lon="27.90919">
        <ele>48.717</ele>
      </trkpt>
      <trkpt lat="36.80295" lon="27.90915">
        <ele>48.523</ele>
      </trkpt>
      <trkpt lat="36.80297" lon="27.90911">
        <ele>48.131</ele>
      </trkpt>
      <trkpt lat="36.80298" lon="27.90908">
        <ele>47.822</ele>
      </trkpt>
      <trkpt lat="36.803" lon="27.90903">
        <ele>47.371</ele>
      </trkpt>
      <trkpt lat="36.803" lon="27.90898">
        <ele>47.341</ele>
      </trkpt>
      <trkpt lat="36.80299" lon="27.90895">
        <ele>47.365</ele>
      </trkpt>
      <trkpt lat="36.80302" lon="27.90891">
        <ele>46.701</ele>
      </trkpt>
      <trkpt lat="36.80303" lon="27.90885">
        <ele>46.421</ele>
      </trkpt>
      <trkpt lat="36.80302" lon="27.9088">
        <ele>46.38</ele>
      </trkpt>
      <trkpt lat="36.80302" lon="27.90873">
        <ele>46.05</ele>
      </trkpt>
      <trkpt lat="36.80303" lon="27.90869">
        <ele>45.733</ele>
      </trkpt>
      <trkpt lat="36.80302" lon="27.90865">
        <ele>45.81</ele>
      </trkpt>
      <trkpt lat="36.80303" lon="27.90861">
        <ele>45.405</ele>
      </trkpt>
      <trkpt lat="36.80304" lon="27.90855">
        <ele>45.19</ele>
      </trkpt>
      <trkpt lat="36.80306" lon="27.90853">
        <ele>45</ele>
      </trkpt>
      <trkpt lat="36.80309" lon="27.90847">
        <ele>45</ele>
      </trkpt>
      <trkpt lat="36.80307" lon="27.90842">
        <ele>45</ele>
      </trkpt>
      <trkpt lat="36.80307" lon="27.90838">
        <ele>45</ele>
      </trkpt>
      <trkpt lat="36.80306" lon="27.90834">
        <ele>45</ele>
      </trkpt>
      <trkpt lat="36.80308" lon="27.90831">
        <ele>44.902</ele>
      </trkpt>
      <trkpt lat="36.80311" lon="27.90834">
        <ele>45</ele>
      </trkpt>
      <trkpt lat="36.80307" lon="27.90834">
        <ele>45</ele>
      </trkpt>
      <trkpt lat="36.80309" lon="27.90826">
        <ele>44.7</ele>
      </trkpt>
      <trkpt lat="36.80309" lon="27.90822">
        <ele>44.536</ele>
      </trkpt>
      <trkpt lat="36.8031" lon="27.90818">
        <ele>44.378</ele>
      </trkpt>
      <trkpt lat="36.80311" lon="27.90813">
        <ele>44.105</ele>
      </trkpt>
      <trkpt lat="36.80314" lon="27.90808">
        <ele>43.796</ele>
      </trkpt>
      <trkpt lat="36.80316" lon="27.90805">
        <ele>43.603</ele>
      </trkpt>
      <trkpt lat="36.8032" lon="27.90804">
        <ele>43.339</ele>
      </trkpt>
      <trkpt lat="36.80324" lon="27.908">
        <ele>42.891</ele>
      </trkpt>
      <trkpt lat="36.80325" lon="27.90797">
        <ele>42.541</ele>
      </trkpt>
      <trkpt lat="36.80325" lon="27.90793">
        <ele>42.237</ele>
      </trkpt>
      <trkpt lat="36.80324" lon="27.90788">
        <ele>41.848</ele>
      </trkpt>
      <trkpt lat="36.80324" lon="27.90784">
        <ele>41.528</ele>
      </trkpt>
      <trkpt lat="36.80325" lon="27.90779">
        <ele>41.024</ele>
      </trkpt>
      <trkpt lat="36.80323" lon="27.90774">
        <ele>40.844</ele>
      </trkpt>
      <trkpt lat="36.80322" lon="27.90769">
        <ele>40.646</ele>
      </trkpt>
      <trkpt lat="36.80323" lon="27.90764">
        <ele>40.138</ele>
      </trkpt>
      <trkpt lat="36.80322" lon="27.90761">
        <ele>39.98</ele>
      </trkpt>
      <trkpt lat="36.80324" lon="27.90756">
        <ele>39.484</ele>
      </trkpt>
      <trkpt lat="36.80324" lon="27.90753">
        <ele>39.228</ele>
      </trkpt>
      <trkpt lat="36.80324" lon="27.90749">
        <ele>39.018</ele>
      </trkpt>
      <trkpt lat="36.80324" lon="27.90744">
        <ele>39.146</ele>
      </trkpt>
      <trkpt lat="36.80324" lon="27.90741">
        <ele>39.202</ele>
      </trkpt>
      <trkpt lat="36.80324" lon="27.90737">
        <ele>39.243</ele>
      </trkpt>
      <trkpt lat="36.80325" lon="27.90732">
        <ele>39.106</ele>
      </trkpt>
      <trkpt lat="36.80327" lon="27.90727">
        <ele>38.725</ele>
      </trkpt>
      <trkpt lat="36.80329" lon="27.90722">
        <ele>38.176</ele>
      </trkpt>
      <trkpt lat="36.80332" lon="27.90717">
        <ele>37.594</ele>
      </trkpt>
      <trkpt lat="36.80335" lon="27.90714">
        <ele>37.199</ele>
      </trkpt>
      <trkpt lat="36.80337" lon="27.9071">
        <ele>37.14</ele>
      </trkpt>
      <trkpt lat="36.80339" lon="27.90706">
        <ele>37.045</ele>
      </trkpt>
      <trkpt lat="36.8034" lon="27.90702">
        <ele>36.931</ele>
      </trkpt>
      <trkpt lat="36.80343" lon="27.907">
        <ele>36.653</ele>
      </trkpt>
      <trkpt lat="36.80345" lon="27.90696">
        <ele>36.276</ele>
      </trkpt>
      <trkpt lat="36.80348" lon="27.90693">
        <ele>35.987</ele>
      </trkpt>
      <trkpt lat="36.8035" lon="27.9069">
        <ele>35.756</ele>
      </trkpt>
      <trkpt lat="36.80352" lon="27.90687">
        <ele>35.53</ele>
      </trkpt>
      <trkpt lat="36.80354" lon="27.90684">
        <ele>35.342</ele>
      </trkpt>
      <trkpt lat="36.80355" lon="27.90681">
        <ele>35.381</ele>
      </trkpt>
      <trkpt lat="36.80356" lon="27.90676">
        <ele>35.385</ele>
      </trkpt>
      <trkpt lat="36.80358" lon="27.90673">
        <ele>35.199</ele>
      </trkpt>
      <trkpt lat="36.8036" lon="27.90668">
        <ele>35.105</ele>
      </trkpt>
      <trkpt lat="36.80363" lon="27.90664">
        <ele>35.155</ele>
      </trkpt>
      <trkpt lat="36.80366" lon="27.90659">
        <ele>35.427</ele>
      </trkpt>
      <trkpt lat="36.80367" lon="27.90656">
        <ele>35.572</ele>
      </trkpt>
      <trkpt lat="36.80366" lon="27.90652">
        <ele>35.578</ele>
      </trkpt>
      <trkpt lat="36.80367" lon="27.90647">
        <ele>35.674</ele>
      </trkpt>
      <trkpt lat="36.80365" lon="27.90643">
        <ele>35.57</ele>
      </trkpt>
      <trkpt lat="36.80363" lon="27.90641">
        <ele>35.291</ele>
      </trkpt>
      <trkpt lat="36.8036" lon="27.90639">
        <ele>35.173</ele>
      </trkpt>
      <trkpt lat="36.80359" lon="27.90635">
        <ele>35.33</ele>
      </trkpt>
      <trkpt lat="36.80357" lon="27.90632">
        <ele>35.626</ele>
      </trkpt>
      <trkpt lat="36.80356" lon="27.90628">
        <ele>35.838</ele>
      </trkpt>
      <trkpt lat="36.80353" lon="27.90624">
        <ele>36.093</ele>
      </trkpt>
      <trkpt lat="36.80352" lon="27.90621">
        <ele>36.199</ele>
      </trkpt>
      <trkpt lat="36.80352" lon="27.90617">
        <ele>36.237</ele>
      </trkpt>
      <trkpt lat="36.80349" lon="27.90613">
        <ele>36.415</ele>
      </trkpt>
      <trkpt lat="36.80347" lon="27.90609">
        <ele>36.303</ele>
      </trkpt>
      <trkpt lat="36.80344" lon="27.90605">
        <ele>36.069</ele>
      </trkpt>
      <trkpt lat="36.80342" lon="27.90602">
        <ele>35.838</ele>
      </trkpt>
      <trkpt lat="36.80341" lon="27.90598">
        <ele>35.409</ele>
      </trkpt>
      <trkpt lat="36.8034" lon="27.90593">
        <ele>34.91</ele>
      </trkpt>
      <trkpt lat="36.80338" lon="27.90588">
        <ele>34.465</ele>
      </trkpt>
      <trkpt lat="36.80337" lon="27.90585">
        <ele>34.131</ele>
      </trkpt>
      <trkpt lat="36.80337" lon="27.9058">
        <ele>33.796</ele>
      </trkpt>
      <trkpt lat="36.80337" lon="27.90576">
        <ele>33.53</ele>
      </trkpt>
      <trkpt lat="36.80334" lon="27.90572">
        <ele>33.176</ele>
      </trkpt>
      <trkpt lat="36.80335" lon="27.90568">
        <ele>32.912</ele>
      </trkpt>
      <trkpt lat="36.80335" lon="27.90562">
        <ele>32.526</ele>
      </trkpt>
      <trkpt lat="36.80336" lon="27.90558">
        <ele>32.271</ele>
      </trkpt>
      <trkpt lat="36.80334" lon="27.90555">
        <ele>31.972</ele>
      </trkpt>
      <trkpt lat="36.80334" lon="27.90551">
        <ele>31.723</ele>
      </trkpt>
      <trkpt lat="36.80334" lon="27.90546">
        <ele>31.313</ele>
      </trkpt>
      <trkpt lat="36.80333" lon="27.90542">
        <ele>31.017</ele>
      </trkpt>
      <trkpt lat="36.80332" lon="27.90536">
        <ele>30.683</ele>
      </trkpt>
      <trkpt lat="36.80331" lon="27.90531">
        <ele>30.345</ele>
      </trkpt>
      <trkpt lat="36.80331" lon="27.90528">
        <ele>30.086</ele>
      </trkpt>
      <trkpt lat="36.80332" lon="27.90524">
        <ele>29.764</ele>
      </trkpt>
      <trkpt lat="36.80333" lon="27.9052">
        <ele>29.44</ele>
      </trkpt>
      <trkpt lat="36.80332" lon="27.90515">
        <ele>29.078</ele>
      </trkpt>
      <trkpt lat="36.80331" lon="27.9051">
        <ele>28.73</ele>
      </trkpt>
      <trkpt lat="36.80329" lon="27.90506">
        <ele>28.465</ele>
      </trkpt>
      <trkpt lat="36.80328" lon="27.90502">
        <ele>28.15</ele>
      </trkpt>
      <trkpt lat="36.80326" lon="27.90498">
        <ele>28.034</ele>
      </trkpt>
      <trkpt lat="36.80325" lon="27.90494">
        <ele>28.085</ele>
      </trkpt>
      <trkpt lat="36.80321" lon="27.90491">
        <ele>28.042</ele>
      </trkpt>
      <trkpt lat="36.8032" lon="27.90485">
        <ele>28.021</ele>
      </trkpt>
      <trkpt lat="36.80319" lon="27.90482">
        <ele>27.955</ele>
      </trkpt>
      <trkpt lat="36.80314" lon="27.90479">
        <ele>27.712</ele>
      </trkpt>
      <trkpt lat="36.80312" lon="27.90478">
        <ele>27.543</ele>
      </trkpt>
      <trkpt lat="36.8031" lon="27.90474">
        <ele>27.347</ele>
      </trkpt>
      <trkpt lat="36.80308" lon="27.90468">
        <ele>27.338</ele>
      </trkpt>
      <trkpt lat="36.80305" lon="27.90464">
        <ele>27.319</ele>
      </trkpt>
      <trkpt lat="36.80305" lon="27.90459">
        <ele>27.537</ele>
      </trkpt>
      <trkpt lat="36.80302" lon="27.90455">
        <ele>27.804</ele>
      </trkpt>
      <trkpt lat="36.80299" lon="27.90451">
        <ele>27.993</ele>
      </trkpt>
      <trkpt lat="36.80295" lon="27.90449">
        <ele>28.078</ele>
      </trkpt>
      <trkpt lat="36.80292" lon="27.90446">
        <ele>28.045</ele>
      </trkpt>
      <trkpt lat="36.8029" lon="27.90443">
        <ele>28.042</ele>
      </trkpt>
      <trkpt lat="36.80287" lon="27.9044">
        <ele>28.048</ele>
      </trkpt>
      <trkpt lat="36.80286" lon="27.90436">
        <ele>28.038</ele>
      </trkpt>
      <trkpt lat="36.80286" lon="27.90433">
        <ele>28.048</ele>
      </trkpt>
      <trkpt lat="36.80285" lon="27.90429">
        <ele>28.055</ele>
      </trkpt>
      <trkpt lat="36.80284" lon="27.90423">
        <ele>27.865</ele>
      </trkpt>
      <trkpt lat="36.80282" lon="27.90417">
        <ele>27.655</ele>
      </trkpt>
      <trkpt lat="36.80281" lon="27.90411">
        <ele>27.654</ele>
      </trkpt>
      <trkpt lat="36.80278" lon="27.90407">
        <ele>27.432</ele>
      </trkpt>
      <trkpt lat="36.80275" lon="27.90403">
        <ele>27.444</ele>
      </trkpt>
      <trkpt lat="36.80272" lon="27.90398">
        <ele>27.524</ele>
      </trkpt>
      <trkpt lat="36.80272" lon="27.90394">
        <ele>27.629</ele>
      </trkpt>
      <trkpt lat="36.80271" lon="27.90389">
        <ele>27.785</ele>
      </trkpt>
      <trkpt lat="36.8027" lon="27.90384">
        <ele>28.192</ele>
      </trkpt>
      <trkpt lat="36.80266" lon="27.90384">
        <ele>27.947</ele>
      </trkpt>
      <trkpt lat="36.80263" lon="27.90383">
        <ele>27.767</ele>
      </trkpt>
      <trkpt lat="36.80261" lon="27.9038">
        <ele>27.703</ele>
      </trkpt>
      <trkpt lat="36.80259" lon="27.90377">
        <ele>27.582</ele>
      </trkpt>
      <trkpt lat="36.80256" lon="27.90376">
        <ele>27.253</ele>
      </trkpt>
      <trkpt lat="36.80254" lon="27.90371">
        <ele>27.022</ele>
      </trkpt>
      <trkpt lat="36.80253" lon="27.90366">
        <ele>26.802</ele>
      </trkpt>
      <trkpt lat="36.80249" lon="27.90363">
        <ele>26.084</ele>
      </trkpt>
      <trkpt lat="36.80246" lon="27.90358">
        <ele>26.194</ele>
      </trkpt>
      <trkpt lat="36.80243" lon="27.90353">
        <ele>26.362</ele>
      </trkpt>
      <trkpt lat="36.8024" lon="27.90349">
        <ele>26.421</ele>
      </trkpt>
      <trkpt lat="36.80237" lon="27.90344">
        <ele>26.391</ele>
      </trkpt>
      <trkpt lat="36.80234" lon="27.9034">
        <ele>26.208</ele>
      </trkpt>
      <trkpt lat="36.80232" lon="27.90339">
        <ele>26.001</ele>
      </trkpt>
      <trkpt lat="36.80227" lon="27.90336">
        <ele>25.593</ele>
      </trkpt>
      <trkpt lat="36.80224" lon="27.9033">
        <ele>25.2</ele>
      </trkpt>
      <trkpt lat="36.80223" lon="27.90327">
        <ele>25.102</ele>
      </trkpt>
      <trkpt lat="36.8022" lon="27.90324">
        <ele>24.971</ele>
      </trkpt>
      <trkpt lat="36.80216" lon="27.90319">
        <ele>24.887</ele>
      </trkpt>
      <trkpt lat="36.80212" lon="27.90318">
        <ele>24.792</ele>
      </trkpt>
      <trkpt lat="36.8021" lon="27.90315">
        <ele>24.702</ele>
      </trkpt>
      <trkpt lat="36.80208" lon="27.90309">
        <ele>24.547</ele>
      </trkpt>
      <trkpt lat="36.80208" lon="27.90304">
        <ele>24.467</ele>
      </trkpt>
      <trkpt lat="36.80205" lon="27.90299">
        <ele>24.313</ele>
      </trkpt>
      <trkpt lat="36.80203" lon="27.90295">
        <ele>24.136</ele>
      </trkpt>
      <trkpt lat="36.80202" lon="27.9029">
        <ele>24.044</ele>
      </trkpt>
      <trkpt lat="36.80201" lon="27.90286">
        <ele>23.9</ele>
      </trkpt>
      <trkpt lat="36.802" lon="27.90282">
        <ele>23.68</ele>
      </trkpt>
      <trkpt lat="36.80199" lon="27.90276">
        <ele>23.547</ele>
      </trkpt>
      <trkpt lat="36.80199" lon="27.90272">
        <ele>23.827</ele>
      </trkpt>
      <trkpt lat="36.80198" lon="27.90268">
        <ele>24.054</ele>
      </trkpt>
      <trkpt lat="36.80197" lon="27.90265">
        <ele>24.147</ele>
      </trkpt>
      <trkpt lat="36.80197" lon="27.90261">
        <ele>24.372</ele>
      </trkpt>
      <trkpt lat="36.80193" lon="27.90258">
        <ele>24.464</ele>
      </trkpt>
      <trkpt lat="36.80191" lon="27.90255">
        <ele>24.682</ele>
      </trkpt>
      <trkpt lat="36.80189" lon="27.9025">
        <ele>25</ele>
      </trkpt>
      <trkpt lat="36.80188" lon="27.90247">
        <ele>25</ele>
      </trkpt>
      <trkpt lat="36.80185" lon="27.90245">
        <ele>25</ele>
      </trkpt>
      <trkpt lat="36.80184" lon="27.90242">
        <ele>25</ele>
      </trkpt>
      <trkpt lat="36.80182" lon="27.90236">
        <ele>25</ele>
      </trkpt>
      <trkpt lat="36.80181" lon="27.9023">
        <ele>25</ele>
      </trkpt>
      <trkpt lat="36.80179" lon="27.90224">
        <ele>25</ele>
      </trkpt>
      <trkpt lat="36.80178" lon="27.9022">
        <ele>25</ele>
      </trkpt>
      <trkpt lat="36.80178" lon="27.90214">
        <ele>25</ele>
      </trkpt>
      <trkpt lat="36.80177" lon="27.90209">
        <ele>25</ele>
      </trkpt>
      <trkpt lat="36.80176" lon="27.90204">
        <ele>25</ele>
      </trkpt>
      <trkpt lat="36.80173" lon="27.90202">
        <ele>25</ele>
      </trkpt>
      <trkpt lat="36.80172" lon="27.90198">
        <ele>25</ele>
      </trkpt>
      <trkpt lat="36.80168" lon="27.90195">
        <ele>25</ele>
      </trkpt>
      <trkpt lat="36.80166" lon="27.90192">
        <ele>24.929</ele>
      </trkpt>
      <trkpt lat="36.80167" lon="27.90186">
        <ele>24.713</ele>
      </trkpt>
      <trkpt lat="36.80165" lon="27.90184">
        <ele>24.684</ele>
      </trkpt>
      <trkpt lat="36.80165" lon="27.90178">
        <ele>24.468</ele>
      </trkpt>
      <trkpt lat="36.80163" lon="27.90171">
        <ele>24.288</ele>
      </trkpt>
      <trkpt lat="36.80162" lon="27.90168">
        <ele>24.209</ele>
      </trkpt>
      <trkpt lat="36.80161" lon="27.90161">
        <ele>24.366</ele>
      </trkpt>
      <trkpt lat="36.8016" lon="27.90158">
        <ele>24.487</ele>
      </trkpt>
      <trkpt lat="36.80157" lon="27.90153">
        <ele>24.67</ele>
      </trkpt>
      <trkpt lat="36.80155" lon="27.90151">
        <ele>24.76</ele>
      </trkpt>
      <trkpt lat="36.80154" lon="27.90146">
        <ele>24.856</ele>
      </trkpt>
      <trkpt lat="36.80153" lon="27.9014">
        <ele>24.974</ele>
      </trkpt>
      <trkpt lat="36.80153" lon="27.90135">
        <ele>25</ele>
      </trkpt>
      <trkpt lat="36.80151" lon="27.90129">
        <ele>25</ele>
      </trkpt>
      <trkpt lat="36.80149" lon="27.90126">
        <ele>25</ele>
      </trkpt>
      <trkpt lat="36.80148" lon="27.90122">
        <ele>25</ele>
      </trkpt>
      <trkpt lat="36.80144" lon="27.90123">
        <ele>25</ele>
      </trkpt>
      <trkpt lat="36.80143" lon="27.90119">
        <ele>25</ele>
      </trkpt>
      <trkpt lat="36.80141" lon="27.90115">
        <ele>25</ele>
      </trkpt>
      <trkpt lat="36.80139" lon="27.9011">
        <ele>25.043</ele>
      </trkpt>
      <trkpt lat="36.80135" lon="27.90107">
        <ele>25.103</ele>
      </trkpt>
      <trkpt lat="36.80133" lon="27.90105">
        <ele>25.128</ele>
      </trkpt>
      <trkpt lat="36.80131" lon="27.90103">
        <ele>25.117</ele>
      </trkpt>
      <trkpt lat="36.80127" lon="27.90097">
        <ele>25.078</ele>
      </trkpt>
      <trkpt lat="36.80124" lon="27.90093">
        <ele>24.952</ele>
      </trkpt>
      <trkpt lat="36.80123" lon="27.90089">
        <ele>24.88</ele>
      </trkpt>
      <trkpt lat="36.8012" lon="27.90084">
        <ele>24.647</ele>
      </trkpt>
      <trkpt lat="36.8012" lon="27.9008">
        <ele>24.79</ele>
      </trkpt>
      <trkpt lat="36.80118" lon="27.90074">
        <ele>24.902</ele>
      </trkpt>
      <trkpt lat="36.80117" lon="27.9007">
        <ele>25.006</ele>
      </trkpt>
      <trkpt lat="36.80116" lon="27.90066">
        <ele>25.064</ele>
      </trkpt>
      <trkpt lat="36.80112" lon="27.90063">
        <ele>24.805</ele>
      </trkpt>
      <trkpt lat="36.80109" lon="27.90058">
        <ele>24.757</ele>
      </trkpt>
      <trkpt lat="36.80106" lon="27.90055">
        <ele>24.672</ele>
      </trkpt>
      <trkpt lat="36.80102" lon="27.90053">
        <ele>24.55</ele>
      </trkpt>
      <trkpt lat="36.80097" lon="27.90049">
        <ele>24.478</ele>
      </trkpt>
      <trkpt lat="36.80093" lon="27.90046">
        <ele>24.392</ele>
      </trkpt>
      <trkpt lat="36.8009" lon="27.90045">
        <ele>24.269</ele>
      </trkpt>
      <trkpt lat="36.80089" lon="27.90041">
        <ele>24.427</ele>
      </trkpt>
      <trkpt lat="36.80085" lon="27.90039">
        <ele>24.291</ele>
      </trkpt>
      <trkpt lat="36.80083" lon="27.90036">
        <ele>24.405</ele>
      </trkpt>
      <trkpt lat="36.80079" lon="27.90031">
        <ele>24.626</ele>
      </trkpt>
      <trkpt lat="36.80077" lon="27.90029">
        <ele>24.671</ele>
      </trkpt>
      <trkpt lat="36.80075" lon="27.90026">
        <ele>24.723</ele>
      </trkpt>
      <trkpt lat="36.80072" lon="27.90026">
        <ele>24.622</ele>
      </trkpt>
      <trkpt lat="36.8007" lon="27.90024">
        <ele>24.588</ele>
      </trkpt>
      <trkpt lat="36.80067" lon="27.90022">
        <ele>24.519</ele>
      </trkpt>
      <trkpt lat="36.80064" lon="27.90019">
        <ele>24.42</ele>
      </trkpt>
      <trkpt lat="36.80062" lon="27.90014">
        <ele>24.372</ele>
      </trkpt>
      <trkpt lat="36.80058" lon="27.90009">
        <ele>24.173</ele>
      </trkpt>
      <trkpt lat="36.80055" lon="27.90005">
        <ele>23.985</ele>
      </trkpt>
      <trkpt lat="36.80051" lon="27.90004">
        <ele>23.817</ele>
      </trkpt>
      <trkpt lat="36.80048" lon="27.90004">
        <ele>23.68</ele>
      </trkpt>
      <trkpt lat="36.80044" lon="27.90002">
        <ele>23.572</ele>
      </trkpt>
      <trkpt lat="36.80042" lon="27.9">
        <ele>23.505</ele>
      </trkpt>
      <trkpt lat="36.8004" lon="27.89997">
        <ele>23.437</ele>
      </trkpt>
      <trkpt lat="36.80037" lon="27.89995">
        <ele>23.332</ele>
      </trkpt>
      <trkpt lat="36.80034" lon="27.89994">
        <ele>23.231</ele>
      </trkpt>
      <trkpt lat="36.80032" lon="27.8999">
        <ele>23.163</ele>
      </trkpt>
      <trkpt lat="36.80031" lon="27.89987">
        <ele>23.116</ele>
      </trkpt>
      <trkpt lat="36.8003" lon="27.89984">
        <ele>23.087</ele>
      </trkpt>
      <trkpt lat="36.80028" lon="27.89981">
        <ele>23.004</ele>
      </trkpt>
      <trkpt lat="36.80027" lon="27.89978">
        <ele>23.042</ele>
      </trkpt>
      <trkpt lat="36.80025" lon="27.89975">
        <ele>23.089</ele>
      </trkpt>
      <trkpt lat="36.80025" lon="27.89972">
        <ele>23.124</ele>
      </trkpt>
      <trkpt lat="36.80022" lon="27.89968">
        <ele>23.343</ele>
      </trkpt>
      <trkpt lat="36.80021" lon="27.89964">
        <ele>23.466</ele>
      </trkpt>
      <trkpt lat="36.80022" lon="27.89957">
        <ele>23.649</ele>
      </trkpt>
      <trkpt lat="36.8002" lon="27.89952">
        <ele>23.802</ele>
      </trkpt>
      <trkpt lat="36.8002" lon="27.89945">
        <ele>23.983</ele>
      </trkpt>
      <trkpt lat="36.80022" lon="27.8994">
        <ele>23.969</ele>
      </trkpt>
      <trkpt lat="36.80023" lon="27.89934">
        <ele>23.929</ele>
      </trkpt>
      <trkpt lat="36.80025" lon="27.89929">
        <ele>23.933</ele>
      </trkpt>
      <trkpt lat="36.80024" lon="27.8992">
        <ele>23.886</ele>
      </trkpt>
      <trkpt lat="36.80025" lon="27.89916">
        <ele>23.939</ele>
      </trkpt>
      <trkpt lat="36.80025" lon="27.89911">
        <ele>24.132</ele>
      </trkpt>
      <trkpt lat="36.80026" lon="27.89906">
        <ele>24.334</ele>
      </trkpt>
      <trkpt lat="36.80028" lon="27.89902">
        <ele>24.528</ele>
      </trkpt>
      <trkpt lat="36.80027" lon="27.89898">
        <ele>24.686</ele>
      </trkpt>
      <trkpt lat="36.80026" lon="27.89894">
        <ele>24.808</ele>
      </trkpt>
      <trkpt lat="36.80025" lon="27.89888">
        <ele>25.026</ele>
      </trkpt>
      <trkpt lat="36.80024" lon="27.89884">
        <ele>25.167</ele>
      </trkpt>
      <trkpt lat="36.80024" lon="27.89878">
        <ele>25.331</ele>
      </trkpt>
      <trkpt lat="36.80023" lon="27.89875">
        <ele>25.433</ele>
      </trkpt>
      <trkpt lat="36.80021" lon="27.89868">
        <ele>25.558</ele>
      </trkpt>
      <trkpt lat="36.80021" lon="27.89864">
        <ele>25.683</ele>
      </trkpt>
      <trkpt lat="36.80021" lon="27.89856">
        <ele>25.565</ele>
      </trkpt>
      <trkpt lat="36.80021" lon="27.89849">
        <ele>25.334</ele>
      </trkpt>
      <trkpt lat="36.80022" lon="27.89845">
        <ele>25.197</ele>
      </trkpt>
      <trkpt lat="36.80022" lon="27.8984">
        <ele>25.028</ele>
      </trkpt>
      <trkpt lat="36.80023" lon="27.89834">
        <ele>24.849</ele>
      </trkpt>
      <trkpt lat="36.80024" lon="27.89827">
        <ele>24.622</ele>
      </trkpt>
      <trkpt lat="36.80024" lon="27.8982">
        <ele>24.38</ele>
      </trkpt>
      <trkpt lat="36.80023" lon="27.89816">
        <ele>24.183</ele>
      </trkpt>
      <trkpt lat="36.80022" lon="27.89811">
        <ele>24.003</ele>
      </trkpt>
      <trkpt lat="36.80021" lon="27.89805">
        <ele>23.743</ele>
      </trkpt>
      <trkpt lat="36.80021" lon="27.89801">
        <ele>23.561</ele>
      </trkpt>
      <trkpt lat="36.80021" lon="27.89796">
        <ele>23.308</ele>
      </trkpt>
      <trkpt lat="36.8002" lon="27.89793">
        <ele>23.112</ele>
      </trkpt>
      <trkpt lat="36.8002" lon="27.89789">
        <ele>22.972</ele>
      </trkpt>
      <trkpt lat="36.80021" lon="27.89783">
        <ele>22.695</ele>
      </trkpt>
      <trkpt lat="36.80021" lon="27.89779">
        <ele>22.599</ele>
      </trkpt>
      <trkpt lat="36.80021" lon="27.89773">
        <ele>22.354</ele>
      </trkpt>
      <trkpt lat="36.80019" lon="27.89768">
        <ele>22.124</ele>
      </trkpt>
      <trkpt lat="36.80018" lon="27.89763">
        <ele>21.937</ele>
      </trkpt>
      <trkpt lat="36.80016" lon="27.8976">
        <ele>21.764</ele>
      </trkpt>
      <trkpt lat="36.80014" lon="27.89756">
        <ele>21.605</ele>
      </trkpt>
      <trkpt lat="36.80013" lon="27.8975">
        <ele>21.454</ele>
      </trkpt>
      <trkpt lat="36.80012" lon="27.89747">
        <ele>21.486</ele>
      </trkpt>
      <trkpt lat="36.80011" lon="27.8974">
        <ele>21.511</ele>
      </trkpt>
      <trkpt lat="36.8001" lon="27.89734">
        <ele>21.556</ele>
      </trkpt>
      <trkpt lat="36.80009" lon="27.89728">
        <ele>21.559</ele>
      </trkpt>
      <trkpt lat="36.80008" lon="27.89725">
        <ele>21.559</ele>
      </trkpt>
      <trkpt lat="36.80006" lon="27.89719">
        <ele>21.432</ele>
      </trkpt>
      <trkpt lat="36.80004" lon="27.89714">
        <ele>21.267</ele>
      </trkpt>
      <trkpt lat="36.80003" lon="27.8971">
        <ele>21.201</ele>
      </trkpt>
      <trkpt lat="36.80002" lon="27.89707">
        <ele>21.166</ele>
      </trkpt>
      <trkpt lat="36.80004" lon="27.89703">
        <ele>21.252</ele>
      </trkpt>
      <trkpt lat="36.80005" lon="27.897">
        <ele>21.324</ele>
      </trkpt>
      <trkpt lat="36.80005" lon="27.89696">
        <ele>21.382</ele>
      </trkpt>
      <trkpt lat="36.80007" lon="27.89692">
        <ele>21.494</ele>
      </trkpt>
      <trkpt lat="36.80007" lon="27.89687">
        <ele>21.428</ele>
      </trkpt>
      <trkpt lat="36.80007" lon="27.89681">
        <ele>21.367</ele>
      </trkpt>
      <trkpt lat="36.80008" lon="27.89674">
        <ele>21.373</ele>
      </trkpt>
      <trkpt lat="36.80006" lon="27.89673">
        <ele>21.24</ele>
      </trkpt>
      <trkpt lat="36.80006" lon="27.89667">
        <ele>21.226</ele>
      </trkpt>
      <trkpt lat="36.80008" lon="27.89663">
        <ele>21.031</ele>
      </trkpt>
      <trkpt lat="36.80007" lon="27.89659">
        <ele>20.664</ele>
      </trkpt>
      <trkpt lat="36.80007" lon="27.89655">
        <ele>20.419</ele>
      </trkpt>
      <trkpt lat="36.80007" lon="27.89648">
        <ele>19.919</ele>
      </trkpt>
      <trkpt lat="36.80007" lon="27.89644">
        <ele>19.627</ele>
      </trkpt>
      <trkpt lat="36.80008" lon="27.8964">
        <ele>19.368</ele>
      </trkpt>
      <trkpt lat="36.8001" lon="27.89629">
        <ele>18.634</ele>
      </trkpt>
      <trkpt lat="36.80012" lon="27.89626">
        <ele>18.479</ele>
      </trkpt>
      <trkpt lat="36.80011" lon="27.8962">
        <ele>18.068</ele>
      </trkpt>
      <trkpt lat="36.80013" lon="27.89614">
        <ele>17.68</ele>
      </trkpt>
      <trkpt lat="36.80014" lon="27.89609">
        <ele>17.403</ele>
      </trkpt>
      <trkpt lat="36.80016" lon="27.89606">
        <ele>17.283</ele>
      </trkpt>
      <trkpt lat="36.80016" lon="27.89601">
        <ele>16.984</ele>
      </trkpt>
      <trkpt lat="36.80015" lon="27.89595">
        <ele>16.67</ele>
      </trkpt>
      <trkpt lat="36.80016" lon="27.8959">
        <ele>16.354</ele>
      </trkpt>
      <trkpt lat="36.80017" lon="27.89586">
        <ele>16.126</ele>
      </trkpt>
      <trkpt lat="36.80017" lon="27.89581">
        <ele>15.912</ele>
      </trkpt>
      <trkpt lat="36.80018" lon="27.89577">
        <ele>15.772</ele>
      </trkpt>
      <trkpt lat="36.80019" lon="27.89571">
        <ele>15.567</ele>
      </trkpt>
      <trkpt lat="36.8002" lon="27.89566">
        <ele>15.383</ele>
      </trkpt>
      <trkpt lat="36.80021" lon="27.89563">
        <ele>15.25</ele>
      </trkpt>
      <trkpt lat="36.80022" lon="27.89559">
        <ele>15.128</ele>
      </trkpt>
      <trkpt lat="36.80022" lon="27.89555">
        <ele>14.951</ele>
      </trkpt>
      <trkpt lat="36.80023" lon="27.89551">
        <ele>14.738</ele>
      </trkpt>
      <trkpt lat="36.80023" lon="27.89544">
        <ele>14.329</ele>
      </trkpt>
      <trkpt lat="36.80023" lon="27.89539">
        <ele>14.014</ele>
      </trkpt>
      <trkpt lat="36.80024" lon="27.89532">
        <ele>13.584</ele>
      </trkpt>
      <trkpt lat="36.80024" lon="27.89528">
        <ele>13.292</ele>
      </trkpt>
      <trkpt lat="36.80024" lon="27.89522">
        <ele>13.053</ele>
      </trkpt>
      <trkpt lat="36.80024" lon="27.89516">
        <ele>12.794</ele>
      </trkpt>
      <trkpt lat="36.80024" lon="27.89509">
        <ele>12.502</ele>
      </trkpt>
      <trkpt lat="36.80025" lon="27.89505">
        <ele>12.289</ele>
      </trkpt>
      <trkpt lat="36.80028" lon="27.89499">
        <ele>12.05</ele>
      </trkpt>
      <trkpt lat="36.8003" lon="27.89494">
        <ele>12.209</ele>
      </trkpt>
      <trkpt lat="36.80032" lon="27.8949">
        <ele>12.371</ele>
      </trkpt>
      <trkpt lat="36.80035" lon="27.89484">
        <ele>12.565</ele>
      </trkpt>
      <trkpt lat="36.80037" lon="27.89478">
        <ele>12.789</ele>
      </trkpt>
      <trkpt lat="36.80038" lon="27.89475">
        <ele>12.911</ele>
      </trkpt>
      <trkpt lat="36.80038" lon="27.89469">
        <ele>13.127</ele>
      </trkpt>
      <trkpt lat="36.80038" lon="27.89462">
        <ele>13.379</ele>
      </trkpt>
      <trkpt lat="36.80039" lon="27.89455">
        <ele>13.62</ele>
      </trkpt>
      <trkpt lat="36.8004" lon="27.89452">
        <ele>13.746</ele>
      </trkpt>
      <trkpt lat="36.8004" lon="27.89448">
        <ele>13.883</ele>
      </trkpt>
      <trkpt lat="36.80041" lon="27.89444">
        <ele>14.015</ele>
      </trkpt>
      <trkpt lat="36.80041" lon="27.8944">
        <ele>14.089</ele>
      </trkpt>
      <trkpt lat="36.80041" lon="27.89436">
        <ele>14.156</ele>
      </trkpt>
      <trkpt lat="36.8004" lon="27.89433">
        <ele>14.226</ele>
      </trkpt>
      <trkpt lat="36.8004" lon="27.89428">
        <ele>14.336</ele>
      </trkpt>
      <trkpt lat="36.8004" lon="27.89424">
        <ele>14.413</ele>
      </trkpt>
      <trkpt lat="36.80042" lon="27.89418">
        <ele>14.475</ele>
      </trkpt>
      <trkpt lat="36.80043" lon="27.89415">
        <ele>14.421</ele>
      </trkpt>
      <trkpt lat="36.80043" lon="27.8941">
        <ele>14.316</ele>
      </trkpt>
      <trkpt lat="36.80044" lon="27.89403">
        <ele>14.135</ele>
      </trkpt>
      <trkpt lat="36.80043" lon="27.89398">
        <ele>14.086</ele>
      </trkpt>
      <trkpt lat="36.80043" lon="27.8939">
        <ele>13.911</ele>
      </trkpt>
      <trkpt lat="36.80043" lon="27.89386">
        <ele>13.818</ele>
      </trkpt>
      <trkpt lat="36.80044" lon="27.89379">
        <ele>13.639</ele>
      </trkpt>
      <trkpt lat="36.80046" lon="27.89375">
        <ele>13.336</ele>
      </trkpt>
      <trkpt lat="36.80046" lon="27.89371">
        <ele>13.228</ele>
      </trkpt>
      <trkpt lat="36.80047" lon="27.89365">
        <ele>13.008</ele>
      </trkpt>
      <trkpt lat="36.80048" lon="27.8936">
        <ele>12.814</ele>
      </trkpt>
      <trkpt lat="36.80047" lon="27.89355">
        <ele>12.946</ele>
      </trkpt>
      <trkpt lat="36.80051" lon="27.89348">
        <ele>12.606</ele>
      </trkpt>
      <trkpt lat="36.80051" lon="27.89344">
        <ele>12.579</ele>
      </trkpt>
      <trkpt lat="36.80052" lon="27.89337">
        <ele>12.521</ele>
      </trkpt>
      <trkpt lat="36.80051" lon="27.89332">
        <ele>12.679</ele>
      </trkpt>
      <trkpt lat="36.80052" lon="27.89329">
        <ele>12.607</ele>
      </trkpt>
      <trkpt lat="36.80053" lon="27.89326">
        <ele>12.607</ele>
      </trkpt>
      <trkpt lat="36.80053" lon="27.89319">
        <ele>12.88</ele>
      </trkpt>
      <trkpt lat="36.80054" lon="27.89313">
        <ele>12.945</ele>
      </trkpt>
      <trkpt lat="36.80054" lon="27.89309">
        <ele>13.158</ele>
      </trkpt>
      <trkpt lat="36.80053" lon="27.89306">
        <ele>13.309</ele>
      </trkpt>
      <trkpt lat="36.80053" lon="27.89301">
        <ele>13.791</ele>
      </trkpt>
      <trkpt lat="36.80053" lon="27.89297">
        <ele>14.204</ele>
      </trkpt>
      <trkpt lat="36.80053" lon="27.89293">
        <ele>14.665</ele>
      </trkpt>
      <trkpt lat="36.80052" lon="27.89289">
        <ele>15.127</ele>
      </trkpt>
      <trkpt lat="36.80051" lon="27.89285">
        <ele>15.623</ele>
      </trkpt>
      <trkpt lat="36.8005" lon="27.89281">
        <ele>16.153</ele>
      </trkpt>
      <trkpt lat="36.80048" lon="27.89274">
        <ele>17.268</ele>
      </trkpt>
      <trkpt lat="36.80045" lon="27.89269">
        <ele>18.276</ele>
      </trkpt>
      <trkpt lat="36.80042" lon="27.89263">
        <ele>19.365</ele>
      </trkpt>
      <trkpt lat="36.80041" lon="27.89259">
        <ele>20.031</ele>
      </trkpt>
      <trkpt lat="36.8004" lon="27.89255">
        <ele>20.766</ele>
      </trkpt>
      <trkpt lat="36.80039" lon="27.8925">
        <ele>21.55</ele>
      </trkpt>
      <trkpt lat="36.80037" lon="27.89244">
        <ele>21.971</ele>
      </trkpt>
      <trkpt lat="36.80034" lon="27.89241">
        <ele>22.188</ele>
      </trkpt>
      <trkpt lat="36.80029" lon="27.89243">
        <ele>22.219</ele>
      </trkpt>
      <trkpt lat="36.80028" lon="27.89238">
        <ele>22.415</ele>
      </trkpt>
      <trkpt lat="36.80029" lon="27.89235">
        <ele>22.52</ele>
      </trkpt>
      <trkpt lat="36.80028" lon="27.89231">
        <ele>22.695</ele>
      </trkpt>
      <trkpt lat="36.80026" lon="27.89228">
        <ele>22.757</ele>
      </trkpt>
      <trkpt lat="36.80023" lon="27.89222">
        <ele>22.836</ele>
      </trkpt>
      <trkpt lat="36.8002" lon="27.89217">
        <ele>22.901</ele>
      </trkpt>
      <trkpt lat="36.80017" lon="27.89212">
        <ele>22.976</ele>
      </trkpt>
      <trkpt lat="36.80016" lon="27.89209">
        <ele>23.027</ele>
      </trkpt>
      <trkpt lat="36.80012" lon="27.89205">
        <ele>23.052</ele>
      </trkpt>
      <trkpt lat="36.8001" lon="27.89199">
        <ele>23.192</ele>
      </trkpt>
      <trkpt lat="36.80006" lon="27.89196">
        <ele>23.149</ele>
      </trkpt>
      <trkpt lat="36.80005" lon="27.89192">
        <ele>23.229</ele>
      </trkpt>
      <trkpt lat="36.80003" lon="27.89185">
        <ele>23.368</ele>
      </trkpt>
      <trkpt lat="36.80003" lon="27.89181">
        <ele>23.484</ele>
      </trkpt>
      <trkpt lat="36.8" lon="27.89176">
        <ele>23.657</ele>
      </trkpt>
      <trkpt lat="36.79998" lon="27.8917">
        <ele>23.88</ele>
      </trkpt>
      <trkpt lat="36.79997" lon="27.89161">
        <ele>23.811</ele>
      </trkpt>
      <trkpt lat="36.79996" lon="27.89156">
        <ele>23.609</ele>
      </trkpt>
      <trkpt lat="36.79996" lon="27.89152">
        <ele>23.472</ele>
      </trkpt>
      <trkpt lat="36.79996" lon="27.89146">
        <ele>23.238</ele>
      </trkpt>
      <trkpt lat="36.79996" lon="27.89139">
        <ele>23.004</ele>
      </trkpt>
      <trkpt lat="36.79995" lon="27.89133">
        <ele>23.401</ele>
      </trkpt>
      <trkpt lat="36.79993" lon="27.89127">
        <ele>23.723</ele>
      </trkpt>
      <trkpt lat="36.79992" lon="27.89121">
        <ele>24.1</ele>
      </trkpt>
      <trkpt lat="36.79987" lon="27.89119">
        <ele>24.099</ele>
      </trkpt>
      <trkpt lat="36.79985" lon="27.89116">
        <ele>24.194</ele>
      </trkpt>
      <trkpt lat="36.79983" lon="27.89113">
        <ele>24.279</ele>
      </trkpt>
      <trkpt lat="36.7998" lon="27.89112">
        <ele>24.262</ele>
      </trkpt>
      <trkpt lat="36.79977" lon="27.89111">
        <ele>24.142</ele>
      </trkpt>
      <trkpt lat="36.79974" lon="27.8911">
        <ele>24.142</ele>
      </trkpt>
      <trkpt lat="36.7997" lon="27.89107">
        <ele>24.31</ele>
      </trkpt>
      <trkpt lat="36.79966" lon="27.89105">
        <ele>24.375</ele>
      </trkpt>
      <trkpt lat="36.7996" lon="27.89103">
        <ele>24.469</ele>
      </trkpt>
      <trkpt lat="36.79956" lon="27.89103">
        <ele>24.406</ele>
      </trkpt>
      <trkpt lat="36.79953" lon="27.89102">
        <ele>24.421</ele>
      </trkpt>
      <trkpt lat="36.79949" lon="27.891">
        <ele>24.457</ele>
      </trkpt>
      <trkpt lat="36.79946" lon="27.891">
        <ele>24.439</ele>
      </trkpt>
      <trkpt lat="36.79943" lon="27.89099">
        <ele>24.325</ele>
      </trkpt>
      <trkpt lat="36.79939" lon="27.89097">
        <ele>24.142</ele>
      </trkpt>
      <trkpt lat="36.79936" lon="27.89093">
        <ele>23.905</ele>
      </trkpt>
      <trkpt lat="36.79931" lon="27.8909">
        <ele>23.567</ele>
      </trkpt>
      <trkpt lat="36.79929" lon="27.89089">
        <ele>23.344</ele>
      </trkpt>
      <trkpt lat="36.79927" lon="27.89086">
        <ele>23.103</ele>
      </trkpt>
      <trkpt lat="36.79923" lon="27.89085">
        <ele>22.764</ele>
      </trkpt>
      <trkpt lat="36.79919" lon="27.89081">
        <ele>22.295</ele>
      </trkpt>
      <trkpt lat="36.79917" lon="27.89079">
        <ele>21.993</ele>
      </trkpt>
      <trkpt lat="36.79912" lon="27.89076">
        <ele>21.807</ele>
      </trkpt>
      <trkpt lat="36.79907" lon="27.89075">
        <ele>21.562</ele>
      </trkpt>
      <trkpt lat="36.79905" lon="27.89073">
        <ele>21.417</ele>
      </trkpt>
      <trkpt lat="36.799" lon="27.89071">
        <ele>21.135</ele>
      </trkpt>
      <trkpt lat="36.79898" lon="27.8907">
        <ele>20.971</ele>
      </trkpt>
      <trkpt lat="36.79894" lon="27.89069">
        <ele>20.75</ele>
      </trkpt>
      <trkpt lat="36.79889" lon="27.89069">
        <ele>20.499</ele>
      </trkpt>
      <trkpt lat="36.79883" lon="27.89067">
        <ele>20.401</ele>
      </trkpt>
      <trkpt lat="36.79877" lon="27.89065">
        <ele>20.333</ele>
      </trkpt>
      <trkpt lat="36.79873" lon="27.89063">
        <ele>20.275</ele>
      </trkpt>
      <trkpt lat="36.79868" lon="27.89062">
        <ele>20.246</ele>
      </trkpt>
      <trkpt lat="36.79864" lon="27.8906">
        <ele>20.142</ele>
      </trkpt>
      <trkpt lat="36.79861" lon="27.89058">
        <ele>20.074</ele>
      </trkpt>
      <trkpt lat="36.79858" lon="27.89056">
        <ele>20.022</ele>
      </trkpt>
      <trkpt lat="36.79856" lon="27.89054">
        <ele>19.976</ele>
      </trkpt>
      <trkpt lat="36.79852" lon="27.89053">
        <ele>19.932</ele>
      </trkpt>
      <trkpt lat="36.79849" lon="27.8905">
        <ele>19.821</ele>
      </trkpt>
      <trkpt lat="36.79845" lon="27.89048">
        <ele>19.697</ele>
      </trkpt>
      <trkpt lat="36.79842" lon="27.89047">
        <ele>19.586</ele>
      </trkpt>
      <trkpt lat="36.79838" lon="27.89046">
        <ele>19.432</ele>
      </trkpt>
      <trkpt lat="36.79835" lon="27.89045">
        <ele>19.249</ele>
      </trkpt>
      <trkpt lat="36.79832" lon="27.89044">
        <ele>19.182</ele>
      </trkpt>
      <trkpt lat="36.79829" lon="27.89045">
        <ele>19.331</ele>
      </trkpt>
      <trkpt lat="36.79826" lon="27.89046">
        <ele>19.403</ele>
      </trkpt>
      <trkpt lat="36.79821" lon="27.89046">
        <ele>19.459</ele>
      </trkpt>
      <trkpt lat="36.79817" lon="27.89046">
        <ele>19.486</ele>
      </trkpt>
      <trkpt lat="36.79813" lon="27.89046">
        <ele>19.581</ele>
      </trkpt>
      <trkpt lat="36.7981" lon="27.89042">
        <ele>19.451</ele>
      </trkpt>
      <trkpt lat="36.79806" lon="27.8904">
        <ele>19.421</ele>
      </trkpt>
      <trkpt lat="36.79809" lon="27.89033">
        <ele>19.079</ele>
      </trkpt>
      <trkpt lat="36.79811" lon="27.89028">
        <ele>18.805</ele>
      </trkpt>
      <trkpt lat="36.79815" lon="27.89022">
        <ele>18.463</ele>
      </trkpt>
      <trkpt lat="36.79817" lon="27.89019">
        <ele>18.297</ele>
      </trkpt>
      <trkpt lat="36.7982" lon="27.89015">
        <ele>18.006</ele>
      </trkpt>
      <trkpt lat="36.79822" lon="27.89012">
        <ele>17.844</ele>
      </trkpt>
      <trkpt lat="36.79825" lon="27.89007">
        <ele>17.552</ele>
      </trkpt>
      <trkpt lat="36.79827" lon="27.89003">
        <ele>17.304</ele>
      </trkpt>
      <trkpt lat="36.79829" lon="27.89">
        <ele>17.146</ele>
      </trkpt>
      <trkpt lat="36.79832" lon="27.88994">
        <ele>16.869</ele>
      </trkpt>
      <trkpt lat="36.79835" lon="27.88989">
        <ele>16.632</ele>
      </trkpt>
      <trkpt lat="36.79836" lon="27.88986">
        <ele>16.553</ele>
      </trkpt>
      <trkpt lat="36.79838" lon="27.88983">
        <ele>16.448</ele>
      </trkpt>
      <trkpt lat="36.7984" lon="27.8898">
        <ele>16.348</ele>
      </trkpt>
      <trkpt lat="36.79842" lon="27.88975">
        <ele>16.148</ele>
      </trkpt>
      <trkpt lat="36.79843" lon="27.88972">
        <ele>16.009</ele>
      </trkpt>
      <trkpt lat="36.79845" lon="27.88968">
        <ele>15.793</ele>
      </trkpt>
      <trkpt lat="36.79849" lon="27.88963">
        <ele>15.495</ele>
      </trkpt>
      <trkpt lat="36.79852" lon="27.88958">
        <ele>15.152</ele>
      </trkpt>
      <trkpt lat="36.79855" lon="27.88953">
        <ele>14.761</ele>
      </trkpt>
      <trkpt lat="36.79859" lon="27.88948">
        <ele>14.32</ele>
      </trkpt>
      <trkpt lat="36.79864" lon="27.88943">
        <ele>14.004</ele>
      </trkpt>
      <trkpt lat="36.79867" lon="27.88939">
        <ele>14.045</ele>
      </trkpt>
      <trkpt lat="36.7987" lon="27.88935">
        <ele>14.113</ele>
      </trkpt>
      <trkpt lat="36.79872" lon="27.88932">
        <ele>14.184</ele>
      </trkpt>
      <trkpt lat="36.79875" lon="27.88927">
        <ele>14.324</ele>
      </trkpt>
      <trkpt lat="36.79879" lon="27.88922">
        <ele>14.518</ele>
      </trkpt>
      <trkpt lat="36.7988" lon="27.88919">
        <ele>14.634</ele>
      </trkpt>
      <trkpt lat="36.79882" lon="27.88916">
        <ele>14.752</ele>
      </trkpt>
      <trkpt lat="36.79883" lon="27.88913">
        <ele>14.799</ele>
      </trkpt>
      <trkpt lat="36.79885" lon="27.8891">
        <ele>14.853</ele>
      </trkpt>
      <trkpt lat="36.79887" lon="27.88907">
        <ele>14.928</ele>
      </trkpt>
      <trkpt lat="36.79889" lon="27.88901">
        <ele>15.008</ele>
      </trkpt>
      <trkpt lat="36.79893" lon="27.88895">
        <ele>15.112</ele>
      </trkpt>
      <trkpt lat="36.79894" lon="27.8889">
        <ele>15.166</ele>
      </trkpt>
      <trkpt lat="36.79896" lon="27.88887">
        <ele>15.295</ele>
      </trkpt>
      <trkpt lat="36.79897" lon="27.88882">
        <ele>15.536</ele>
      </trkpt>
      <trkpt lat="36.79899" lon="27.88879">
        <ele>15.695</ele>
      </trkpt>
      <trkpt lat="36.799" lon="27.88876">
        <ele>15.857</ele>
      </trkpt>
      <trkpt lat="36.79901" lon="27.88871">
        <ele>16.084</ele>
      </trkpt>
      <trkpt lat="36.79904" lon="27.88867">
        <ele>16.328</ele>
      </trkpt>
      <trkpt lat="36.79905" lon="27.88863">
        <ele>16.497</ele>
      </trkpt>
      <trkpt lat="36.79907" lon="27.88858">
        <ele>16.582</ele>
      </trkpt>
      <trkpt lat="36.79909" lon="27.88852">
        <ele>16.497</ele>
      </trkpt>
      <trkpt lat="36.79912" lon="27.88849">
        <ele>16.464</ele>
      </trkpt>
      <trkpt lat="36.79958" lon="27.88713">
        <ele>15.812</ele>
      </trkpt>
      <trkpt lat="36.79962" lon="27.88702">
        <ele>15.152</ele>
      </trkpt>
      <trkpt lat="36.79965" lon="27.88692">
        <ele>14.614</ele>
      </trkpt>
      <trkpt lat="36.79965" lon="27.8869">
        <ele>14.512</ele>
      </trkpt>
      <trkpt lat="36.79966" lon="27.88687">
        <ele>14.351</ele>
      </trkpt>
      <trkpt lat="36.7997" lon="27.88675">
        <ele>13.594</ele>
      </trkpt>
      <trkpt lat="36.79973" lon="27.88662">
        <ele>12.831</ele>
      </trkpt>
      <trkpt lat="36.79978" lon="27.88647">
        <ele>12.299</ele>
      </trkpt>
      <trkpt lat="36.79986" lon="27.88633">
        <ele>12</ele>
      </trkpt>
      <trkpt lat="36.79992" lon="27.88621">
        <ele>12</ele>
      </trkpt>
      <trkpt lat="36.8" lon="27.88601">
        <ele>12.355</ele>
      </trkpt>
      <trkpt lat="36.80007" lon="27.88587">
        <ele>12.876</ele>
      </trkpt>
      <trkpt lat="36.8001" lon="27.88572">
        <ele>12.738</ele>
      </trkpt>
      <trkpt lat="36.8001" lon="27.88572">
        <ele>12.733</ele>
      </trkpt>
      <trkpt lat="36.80011" lon="27.88571">
        <ele>12.737</ele>
      </trkpt>
      <trkpt lat="36.80011" lon="27.88571">
        <ele>12.729</ele>
      </trkpt>
      <trkpt lat="36.80013" lon="27.88568">
        <ele>12.717</ele>
      </trkpt>
      <trkpt lat="36.80018" lon="27.88554">
        <ele>12.608</ele>
      </trkpt>
      <trkpt lat="36.80025" lon="27.88538">
        <ele>12.34</ele>
      </trkpt>
      <trkpt lat="36.80028" lon="27.88532">
        <ele>12.153</ele>
      </trkpt>
      <trkpt lat="36.80039" lon="27.88507">
        <ele>12.104</ele>
      </trkpt>
      <trkpt lat="36.80048" lon="27.88482">
        <ele>11.338</ele>
      </trkpt>
      <trkpt lat="36.80051" lon="27.88458">
        <ele>10.579</ele>
      </trkpt>
      <trkpt lat="36.80049" lon="27.88429">
        <ele>10.25</ele>
      </trkpt>
      <trkpt lat="36.80048" lon="27.88396">
        <ele>11.225</ele>
      </trkpt>
      <trkpt lat="36.8005" lon="27.88371">
        <ele>12.166</ele>
      </trkpt>
      <trkpt lat="36.80052" lon="27.88354">
        <ele>12.518</ele>
      </trkpt>
      <trkpt lat="36.80053" lon="27.88336">
        <ele>12.57</ele>
      </trkpt>
      <trkpt lat="36.80056" lon="27.88323">
        <ele>12.749</ele>
      </trkpt>
      <trkpt lat="36.80062" lon="27.88311">
        <ele>13.207</ele>
      </trkpt>
      <trkpt lat="36.80067" lon="27.88294">
        <ele>13.599</ele>
      </trkpt>
      <trkpt lat="36.80069" lon="27.88276">
        <ele>14.152</ele>
      </trkpt>
      <trkpt lat="36.80079" lon="27.8826">
        <ele>14.611</ele>
      </trkpt>
      <trkpt lat="36.80095" lon="27.88242">
        <ele>14.482</ele>
      </trkpt>
      <trkpt lat="36.80105" lon="27.88224">
        <ele>15.678</ele>
      </trkpt>
      <trkpt lat="36.80122" lon="27.88208">
        <ele>15.1</ele>
      </trkpt>
      <trkpt lat="36.80131" lon="27.88204">
        <ele>14.134</ele>
      </trkpt>
      <trkpt lat="36.80136" lon="27.88191">
        <ele>14.712</ele>
      </trkpt>
      <trkpt lat="36.80142" lon="27.88173">
        <ele>15.068</ele>
      </trkpt>
      <trkpt lat="36.80144" lon="27.88167">
        <ele>15.036</ele>
      </trkpt>
      <trkpt lat="36.80145" lon="27.88168">
        <ele>14.769</ele>
      </trkpt>
      <trkpt lat="36.80147" lon="27.88157">
        <ele>14.833</ele>
      </trkpt>
      <trkpt lat="36.80158" lon="27.88142">
        <ele>13.517</ele>
      </trkpt>
      <trkpt lat="36.80164" lon="27.88126">
        <ele>12.403</ele>
      </trkpt>
      <trkpt lat="36.80168" lon="27.88107">
        <ele>11.76</ele>
      </trkpt>
      <trkpt lat="36.80173" lon="27.88089">
        <ele>11.326</ele>
      </trkpt>
      <trkpt lat="36.80183" lon="27.88068">
        <ele>11.442</ele>
      </trkpt>
      <trkpt lat="36.80188" lon="27.88056">
        <ele>11.437</ele>
      </trkpt>
      <trkpt lat="36.80195" lon="27.88043">
        <ele>10.85</ele>
      </trkpt>
      <trkpt lat="36.80202" lon="27.88022">
        <ele>11.095</ele>
      </trkpt>
      <trkpt lat="36.80203" lon="27.88006">
        <ele>10.988</ele>
      </trkpt>
      <trkpt lat="36.80205" lon="27.88">
        <ele>10.726</ele>
      </trkpt>
      <trkpt lat="36.80209" lon="27.87973">
        <ele>10.245</ele>
      </trkpt>
      <trkpt lat="36.80215" lon="27.8795">
        <ele>10.862</ele>
      </trkpt>
      <trkpt lat="36.80225" lon="27.87929">
        <ele>11.107</ele>
      </trkpt>
      <trkpt lat="36.80225" lon="27.87929">
        <ele>11.107</ele>
      </trkpt>
      <trkpt lat="36.80234" lon="27.87915">
        <ele>10.535</ele>
      </trkpt>
      <trkpt lat="36.80243" lon="27.87895">
        <ele>11.532</ele>
      </trkpt>
      <trkpt lat="36.80243" lon="27.87892">
        <ele>11.825</ele>
      </trkpt>
      <trkpt lat="36.80249" lon="27.87886">
        <ele>11.338</ele>
      </trkpt>
      <trkpt lat="36.80248" lon="27.87883">
        <ele>11.54</ele>
      </trkpt>
      <trkpt lat="36.80248" lon="27.8788">
        <ele>11.667</ele>
      </trkpt>
      <trkpt lat="36.8025" lon="27.87865">
        <ele>11.916</ele>
      </trkpt>
      <trkpt lat="36.80256" lon="27.87841">
        <ele>10.963</ele>
      </trkpt>
      <trkpt lat="36.80262" lon="27.87819">
        <ele>9.881</ele>
      </trkpt>
      <trkpt lat="36.80271" lon="27.87792">
        <ele>8.164</ele>
      </trkpt>
      <trkpt lat="36.80274" lon="27.87785">
        <ele>7.63</ele>
      </trkpt>
      <trkpt lat="36.80273" lon="27.87769">
        <ele>7.92</ele>
      </trkpt>
      <trkpt lat="36.80274" lon="27.87769">
        <ele>7.774</ele>
      </trkpt>
      <trkpt lat="36.80274" lon="27.87768">
        <ele>7.808</ele>
      </trkpt>
      <trkpt lat="36.80282" lon="27.87744">
        <ele>8</ele>
      </trkpt>
      <trkpt lat="36.803" lon="27.87725">
        <ele>8</ele>
      </trkpt>
      <trkpt lat="36.80317" lon="27.87692">
        <ele>6.618</ele>
      </trkpt>
      <trkpt lat="36.80338" lon="27.87636">
        <ele>7.958</ele>
      </trkpt>
      <trkpt lat="36.80346" lon="27.87612">
        <ele>8.5</ele>
      </trkpt>
      <trkpt lat="36.8035" lon="27.87593">
        <ele>9.065</ele>
      </trkpt>
      <trkpt lat="36.80348" lon="27.87579">
        <ele>9.528</ele>
      </trkpt>
      <trkpt lat="36.80354" lon="27.87553">
        <ele>9.512</ele>
      </trkpt>
      <trkpt lat="36.80365" lon="27.87532">
        <ele>8.589</ele>
      </trkpt>
      <trkpt lat="36.80374" lon="27.87506">
        <ele>7.291</ele>
      </trkpt>
      <trkpt lat="36.80376" lon="27.87483">
        <ele>7.734</ele>
      </trkpt>
      <trkpt lat="36.80383" lon="27.87443">
        <ele>8.045</ele>
      </trkpt>
      <trkpt lat="36.80391" lon="27.87387">
        <ele>8.73</ele>
      </trkpt>
      <trkpt lat="36.80403" lon="27.87337">
        <ele>8.438</ele>
      </trkpt>
      <trkpt lat="36.80409" lon="27.87316">
        <ele>7.38</ele>
      </trkpt>
      <trkpt lat="36.80412" lon="27.87299">
        <ele>7.491</ele>
      </trkpt>
      <trkpt lat="36.8042" lon="27.87281">
        <ele>7.529</ele>
      </trkpt>
      <trkpt lat="36.80448" lon="27.87239">
        <ele>9.6</ele>
      </trkpt>
      <trkpt lat="36.80465" lon="27.87175">
        <ele>3.371</ele>
      </trkpt>
      <trkpt lat="36.80473" lon="27.87158">
        <ele>13.5</ele>
      </trkpt>
      <trkpt lat="36.8048" lon="27.87134">
        <ele>12</ele>
      </trkpt>
      <trkpt lat="36.80468" lon="27.87119">
        <ele>1.481</ele>
      </trkpt>
      <trkpt lat="36.80445" lon="27.87118">
        <ele>9.37</ele>
      </trkpt>
      <trkpt lat="36.8044" lon="27.87119">
        <ele>10</ele>
      </trkpt>
      <trkpt lat="36.80427" lon="27.87121">
        <ele>11.244</ele>
      </trkpt>
      <trkpt lat="36.80425" lon="27.87097">
        <ele>9.194</ele>
      </trkpt>
      <trkpt lat="36.80426" lon="27.87093">
        <ele>8.775</ele>
      </trkpt>
      <trkpt lat="36.80436" lon="27.87075">
        <ele>6.159</ele>
      </trkpt>
      <trkpt lat="36.80454" lon="27.87033">
        <ele>1.95</ele>
      </trkpt>
      <trkpt lat="36.80456" lon="27.87019">
        <ele>1.962</ele>
      </trkpt>
      <trkpt lat="36.80448" lon="27.86977">
        <ele>4.191</ele>
      </trkpt>
      <trkpt lat="36.80441" lon="27.8697">
        <ele>5.775</ele>
      </trkpt>
      <trkpt lat="36.80432" lon="27.86961">
        <ele>7.973</ele>
      </trkpt>
      <trkpt lat="36.80441" lon="27.86939">
        <ele>5.937</ele>
      </trkpt>
      <trkpt lat="36.80443" lon="27.86919">
        <ele>4.526</ele>
      </trkpt>
      <trkpt lat="36.80441" lon="27.86873">
        <ele>1.827</ele>
      </trkpt>
      <trkpt lat="36.8044" lon="27.86864">
        <ele>2.388</ele>
      </trkpt>
      <trkpt lat="36.80448" lon="27.86848">
        <ele>3.487</ele>
      </trkpt>
      <trkpt lat="36.80454" lon="27.86835">
        <ele>4.905</ele>
      </trkpt>
      <trkpt lat="36.80462" lon="27.86811">
        <ele>3.655</ele>
      </trkpt>
      <trkpt lat="36.80463" lon="27.86796">
        <ele>3.403</ele>
      </trkpt>
      <trkpt lat="36.80465" lon="27.86769">
        <ele>2.737</ele>
      </trkpt>
      <trkpt lat="36.80465" lon="27.86769">
        <ele>2.737</ele>
      </trkpt>
      <trkpt lat="36.80464" lon="27.86723">
        <ele>2.95</ele>
      </trkpt>
      <trkpt lat="36.80444" lon="27.86679">
        <ele>0.211</ele>
      </trkpt>
      <trkpt lat="36.80425" lon="27.86632">
        <ele>3.168</ele>
      </trkpt>
      <trkpt lat="36.80418" lon="27.86626">
        <ele>3.086</ele>
      </trkpt>
      <trkpt lat="36.80403" lon="27.8661">
        <ele>3.421</ele>
      </trkpt>
      <trkpt lat="36.80377" lon="27.86586">
        <ele>7</ele>
      </trkpt>
      <trkpt lat="36.8036" lon="27.86587">
        <ele>7</ele>
      </trkpt>
      <trkpt lat="36.80348" lon="27.86581">
        <ele>7.2</ele>
      </trkpt>
      <trkpt lat="36.80328" lon="27.86557">
        <ele>8.894</ele>
      </trkpt>
      <trkpt lat="36.80302" lon="27.86534">
        <ele>9.798</ele>
      </trkpt>
      <trkpt lat="36.80278" lon="27.86518">
        <ele>10.721</ele>
      </trkpt>
      <trkpt lat="36.80254" lon="27.86498">
        <ele>13.853</ele>
      </trkpt>
      <trkpt lat="36.80225" lon="27.86487">
        <ele>15.876</ele>
      </trkpt>
      <trkpt lat="36.80206" lon="27.86469">
        <ele>16.585</ele>
      </trkpt>
      <trkpt lat="36.80187" lon="27.86447">
        <ele>17.289</ele>
      </trkpt>
      <trkpt lat="36.80161" lon="27.86433">
        <ele>18.76</ele>
      </trkpt>
      <trkpt lat="36.80146" lon="27.86416">
        <ele>19.738</ele>
      </trkpt>
      <trkpt lat="36.80126" lon="27.86379">
        <ele>20.656</ele>
      </trkpt>
      <trkpt lat="36.80124" lon="27.86374">
        <ele>20.505</ele>
      </trkpt>
      <trkpt lat="36.8011" lon="27.86324">
        <ele>16.97</ele>
      </trkpt>
      <trkpt lat="36.80106" lon="27.86303">
        <ele>15.222</ele>
      </trkpt>
      <trkpt lat="36.80105" lon="27.8629">
        <ele>15.045</ele>
      </trkpt>
      <trkpt lat="36.80102" lon="27.86271">
        <ele>14.933</ele>
      </trkpt>
      <trkpt lat="36.80099" lon="27.86244">
        <ele>14.476</ele>
      </trkpt>
      <trkpt lat="36.80093" lon="27.862">
        <ele>13.212</ele>
      </trkpt>
      <trkpt lat="36.80091" lon="27.86187">
        <ele>13.147</ele>
      </trkpt>
      <trkpt lat="36.80085" lon="27.86148">
        <ele>13.18</ele>
      </trkpt>
      <trkpt lat="36.80073" lon="27.86093">
        <ele>13.491</ele>
      </trkpt>
      <trkpt lat="36.80073" lon="27.86076">
        <ele>14.544</ele>
      </trkpt>
      <trkpt lat="36.80073" lon="27.86076">
        <ele>14.544</ele>
      </trkpt>
      <trkpt lat="36.80072" lon="27.86069">
        <ele>15.078</ele>
      </trkpt>
      <trkpt lat="36.80072" lon="27.86065">
        <ele>15.264</ele>
      </trkpt>
      <trkpt lat="36.80077" lon="27.86053">
        <ele>15.739</ele>
      </trkpt>
      <trkpt lat="36.80095" lon="27.86035">
        <ele>16.586</ele>
      </trkpt>
      <trkpt lat="36.80131" lon="27.86018">
        <ele>15.744</ele>
      </trkpt>
      <trkpt lat="36.80159" lon="27.86005">
        <ele>14.042</ele>
      </trkpt>
      <trkpt lat="36.80185" lon="27.85979">
        <ele>12.49</ele>
      </trkpt>
      <trkpt lat="36.80203" lon="27.85941">
        <ele>11.179</ele>
      </trkpt>
      <trkpt lat="36.80224" lon="27.85923">
        <ele>8.116</ele>
      </trkpt>
      <trkpt lat="36.80226" lon="27.85908">
        <ele>7.651</ele>
      </trkpt>
      <trkpt lat="36.8023" lon="27.85873">
        <ele>7.595</ele>
      </trkpt>
      <trkpt lat="36.80231" lon="27.85872">
        <ele>7.467</ele>
      </trkpt>
      <trkpt lat="36.80241" lon="27.85849">
        <ele>6.877</ele>
      </trkpt>
      <trkpt lat="36.80252" lon="27.85822">
        <ele>6.874</ele>
      </trkpt>
      <trkpt lat="36.8026" lon="27.85769">
        <ele>10.403</ele>
      </trkpt>
      <trkpt lat="36.80266" lon="27.85706">
        <ele>12.513</ele>
      </trkpt>
      <trkpt lat="36.8027" lon="27.85686">
        <ele>12.764</ele>
      </trkpt>
      <trkpt lat="36.80272" lon="27.85671">
        <ele>13.69</ele>
      </trkpt>
      <trkpt lat="36.80271" lon="27.85655">
        <ele>14.693</ele>
      </trkpt>
      <trkpt lat="36.80265" lon="27.85635">
        <ele>16.467</ele>
      </trkpt>
      <trkpt lat="36.80264" lon="27.85599">
        <ele>18.395</ele>
      </trkpt>
      <trkpt lat="36.80265" lon="27.85578">
        <ele>18.792</ele>
      </trkpt>
      <trkpt lat="36.80279" lon="27.85548">
        <ele>16.954</ele>
      </trkpt>
      <trkpt lat="36.80281" lon="27.85545">
        <ele>16.786</ele>
      </trkpt>
      <trkpt lat="36.80288" lon="27.85538">
        <ele>16.19</ele>
      </trkpt>
      <trkpt lat="36.80284" lon="27.85514">
        <ele>16.377</ele>
      </trkpt>
      <trkpt lat="36.8028" lon="27.85504">
        <ele>16.772</ele>
      </trkpt>
      <trkpt lat="36.80291" lon="27.855">
        <ele>15.709</ele>
      </trkpt>
      <trkpt lat="36.80308" lon="27.85511">
        <ele>13.748</ele>
      </trkpt>
      <trkpt lat="36.80312" lon="27.85518">
        <ele>13.196</ele>
      </trkpt>
      <trkpt lat="36.80322" lon="27.85527">
        <ele>11.734</ele>
      </trkpt>
      <trkpt lat="36.80336" lon="27.8553">
        <ele>9.955</ele>
      </trkpt>
      <trkpt lat="36.80365" lon="27.85528">
        <ele>7.682</ele>
      </trkpt>
      <trkpt lat="36.8038" lon="27.8552">
        <ele>7.469</ele>
      </trkpt>
      <trkpt lat="36.80407" lon="27.85516">
        <ele>6.663</ele>
      </trkpt>
      <trkpt lat="36.80438" lon="27.85515">
        <ele>5.307</ele>
      </trkpt>
      <trkpt lat="36.80456" lon="27.85502">
        <ele>3.487</ele>
      </trkpt>
      <trkpt lat="36.80456" lon="27.85485">
        <ele>3.912</ele>
      </trkpt>
      <trkpt lat="36.80456" lon="27.85431">
        <ele>12</ele>
      </trkpt>
      <trkpt lat="36.80456" lon="27.85431">
        <ele>12</ele>
      </trkpt>
      <trkpt lat="36.80457" lon="27.85374">
        <ele>18.1</ele>
      </trkpt>
      <trkpt lat="36.80458" lon="27.8536">
        <ele>0.306</ele>
      </trkpt>
      <trkpt lat="36.80474" lon="27.853">
        <ele>3.212</ele>
      </trkpt>
      <trkpt lat="36.80473" lon="27.85292">
        <ele>3.859</ele>
      </trkpt>
      <trkpt lat="36.80475" lon="27.85274">
        <ele>4.616</ele>
      </trkpt>
      <trkpt lat="36.80473" lon="27.85258">
        <ele>4.913</ele>
      </trkpt>
      <trkpt lat="36.80473" lon="27.8525">
        <ele>4.93</ele>
      </trkpt>
      <trkpt lat="36.80472" lon="27.85236">
        <ele>5.078</ele>
      </trkpt>
      <trkpt lat="36.80469" lon="27.85221">
        <ele>5.54</ele>
      </trkpt>
      <trkpt lat="36.80466" lon="27.85211">
        <ele>5.469</ele>
      </trkpt>
      <trkpt lat="36.80466" lon="27.85206">
        <ele>5.322</ele>
      </trkpt>
      <trkpt lat="36.80461" lon="27.85196">
        <ele>5.308</ele>
      </trkpt>
      <trkpt lat="36.80453" lon="27.85175">
        <ele>6.103</ele>
      </trkpt>
      <trkpt lat="36.80443" lon="27.85153">
        <ele>7.168</ele>
      </trkpt>
      <trkpt lat="36.80432" lon="27.85131">
        <ele>7.735</ele>
      </trkpt>
      <trkpt lat="36.80426" lon="27.85115">
        <ele>8.066</ele>
      </trkpt>
      <trkpt lat="36.8042" lon="27.85093">
        <ele>8.692</ele>
      </trkpt>
      <trkpt lat="36.80415" lon="27.85077">
        <ele>8.948</ele>
      </trkpt>
      <trkpt lat="36.80407" lon="27.85064">
        <ele>9.119</ele>
      </trkpt>
      <trkpt lat="36.80403" lon="27.8505">
        <ele>9.116</ele>
      </trkpt>
      <trkpt lat="36.80403" lon="27.85049">
        <ele>9.099</ele>
      </trkpt>
      <trkpt lat="36.80403" lon="27.85049">
        <ele>9.119</ele>
      </trkpt>
      <trkpt lat="36.80405" lon="27.85039">
        <ele>9.204</ele>
      </trkpt>
      <trkpt lat="36.80408" lon="27.85026">
        <ele>9.293</ele>
      </trkpt>
      <trkpt lat="36.80422" lon="27.84994">
        <ele>8.234</ele>
      </trkpt>
      <trkpt lat="36.80437" lon="27.84976">
        <ele>8.876</ele>
      </trkpt>
      <trkpt lat="36.80453" lon="27.84954">
        <ele>8.417</ele>
      </trkpt>
      <trkpt lat="36.80458" lon="27.84938">
        <ele>7.934</ele>
      </trkpt>
      <trkpt lat="36.80461" lon="27.84918">
        <ele>7.442</ele>
      </trkpt>
      <trkpt lat="36.80467" lon="27.84896">
        <ele>6.566</ele>
      </trkpt>
      <trkpt lat="36.80487" lon="27.84877">
        <ele>5.673</ele>
      </trkpt>
      <trkpt lat="36.80499" lon="27.84869">
        <ele>5.049</ele>
      </trkpt>
      <trkpt lat="36.80505" lon="27.84865">
        <ele>4.629</ele>
      </trkpt>
      <trkpt lat="36.8052" lon="27.84847">
        <ele>4.26</ele>
      </trkpt>
      <trkpt lat="36.80528" lon="27.84839">
        <ele>3.8</ele>
      </trkpt>
      <trkpt lat="36.80543" lon="27.84823">
        <ele>3.824</ele>
      </trkpt>
      <trkpt lat="36.80558" lon="27.84806">
        <ele>3.811</ele>
      </trkpt>
      <trkpt lat="36.80575" lon="27.84786">
        <ele>3.097</ele>
      </trkpt>
      <trkpt lat="36.80594" lon="27.84763">
        <ele>2.296</ele>
      </trkpt>
      <trkpt lat="36.80604" lon="27.84745">
        <ele>1.879</ele>
      </trkpt>
      <trkpt lat="36.80615" lon="27.84727">
        <ele>1.836</ele>
      </trkpt>
      <trkpt lat="36.80625" lon="27.8471">
        <ele>2.453</ele>
      </trkpt>
      <trkpt lat="36.80639" lon="27.84693">
        <ele>3.095</ele>
      </trkpt>
      <trkpt lat="36.80657" lon="27.84674">
        <ele>3.503</ele>
      </trkpt>
      <trkpt lat="36.80674" lon="27.84657">
        <ele>2.483</ele>
      </trkpt>
      <trkpt lat="36.80693" lon="27.84645">
        <ele>1.136</ele>
      </trkpt>
      <trkpt lat="36.80709" lon="27.84632">
        <ele>1.11</ele>
      </trkpt>
      <trkpt lat="36.80721" lon="27.84611">
        <ele>1.063</ele>
      </trkpt>
      <trkpt lat="36.80725" lon="27.84603">
        <ele>1.444</ele>
      </trkpt>
      <trkpt lat="36.80736" lon="27.84586">
        <ele>1.399</ele>
      </trkpt>
      <trkpt lat="36.80748" lon="27.84563">
        <ele>1.066</ele>
      </trkpt>
      <trkpt lat="36.80754" lon="27.84535">
        <ele>1.524</ele>
      </trkpt>
      <trkpt lat="36.80756" lon="27.84507">
        <ele>2.127</ele>
      </trkpt>
      <trkpt lat="36.80759" lon="27.84475">
        <ele>2.621</ele>
      </trkpt>
      <trkpt lat="36.80761" lon="27.84467">
        <ele>2.419</ele>
      </trkpt>
      <trkpt lat="36.80761" lon="27.84467">
        <ele>2.419</ele>
      </trkpt>
      <trkpt lat="36.80763" lon="27.84461">
        <ele>2.318</ele>
      </trkpt>
      <trkpt lat="36.80763" lon="27.84456">
        <ele>2.356</ele>
      </trkpt>
      <trkpt lat="36.80764" lon="27.84452">
        <ele>2.371</ele>
      </trkpt>
      <trkpt lat="36.80764" lon="27.84451">
        <ele>2.401</ele>
      </trkpt>
      <trkpt lat="36.80764" lon="27.84443">
        <ele>2.532</ele>
      </trkpt>
      <trkpt lat="36.80764" lon="27.84438">
        <ele>2.604</ele>
      </trkpt>
      <trkpt lat="36.80764" lon="27.84439">
        <ele>2.592</ele>
      </trkpt>
      <trkpt lat="36.80763" lon="27.84439">
        <ele>2.629</ele>
      </trkpt>
      <trkpt lat="36.80762" lon="27.84439">
        <ele>2.66</ele>
      </trkpt>
      <trkpt lat="36.8076" lon="27.84436">
        <ele>2.848</ele>
      </trkpt>
      <trkpt lat="36.80758" lon="27.84436">
        <ele>2.941</ele>
      </trkpt>
      <trkpt lat="36.80758" lon="27.84436">
        <ele>2.941</ele>
      </trkpt>
      <trkpt lat="36.80758" lon="27.84428">
        <ele>3.16</ele>
      </trkpt>
      <trkpt lat="36.80757" lon="27.84421">
        <ele>3.368</ele>
      </trkpt>
      <trkpt lat="36.80754" lon="27.84417">
        <ele>3.744</ele>
      </trkpt>
      <trkpt lat="36.80751" lon="27.84415">
        <ele>3.968</ele>
      </trkpt>
      <trkpt lat="36.80748" lon="27.8441">
        <ele>4.365</ele>
      </trkpt>
      <trkpt lat="36.80741" lon="27.84405">
        <ele>4.958</ele>
      </trkpt>
      <trkpt lat="36.80736" lon="27.84402">
        <ele>5.27</ele>
      </trkpt>
      <trkpt lat="36.8072" lon="27.84397">
        <ele>6.142</ele>
      </trkpt>
      <trkpt lat="36.80711" lon="27.84393">
        <ele>6.522</ele>
      </trkpt>
      <trkpt lat="36.80705" lon="27.84391">
        <ele>6.69</ele>
      </trkpt>
      <trkpt lat="36.80702" lon="27.8439">
        <ele>6.77</ele>
      </trkpt>
      <trkpt lat="36.807" lon="27.84388">
        <ele>6.814</ele>
      </trkpt>
      <trkpt lat="36.80696" lon="27.84385">
        <ele>6.951</ele>
      </trkpt>
      <trkpt lat="36.80694" lon="27.84383">
        <ele>7.035</ele>
      </trkpt>
      <trkpt lat="36.80691" lon="27.84379">
        <ele>7.375</ele>
      </trkpt>
      <trkpt lat="36.80691" lon="27.84377">
        <ele>7.369</ele>
      </trkpt>
      <trkpt lat="36.80688" lon="27.84375">
        <ele>7.62</ele>
      </trkpt>
      <trkpt lat="36.80684" lon="27.8437">
        <ele>7.754</ele>
      </trkpt>
      <trkpt lat="36.80681" lon="27.84368">
        <ele>7.818</ele>
      </trkpt>
      <trkpt lat="36.80675" lon="27.84365">
        <ele>7.979</ele>
      </trkpt>
      <trkpt lat="36.80672" lon="27.84364">
        <ele>8.093</ele>
      </trkpt>
      <trkpt lat="36.8067" lon="27.84364">
        <ele>8.134</ele>
      </trkpt>
      <trkpt lat="36.80663" lon="27.84362">
        <ele>8.615</ele>
      </trkpt>
      <trkpt lat="36.80659" lon="27.8436">
        <ele>9.094</ele>
      </trkpt>
      <trkpt lat="36.80654" lon="27.8436">
        <ele>9.795</ele>
      </trkpt>
      <trkpt lat="36.8065" lon="27.84358">
        <ele>10.417</ele>
      </trkpt>
      <trkpt lat="36.80647" lon="27.84357">
        <ele>10.782</ele>
      </trkpt>
      <trkpt lat="36.80643" lon="27.84351">
        <ele>11.164</ele>
      </trkpt>
      <trkpt lat="36.80642" lon="27.84345">
        <ele>11.194</ele>
      </trkpt>
      <trkpt lat="36.80642" lon="27.84345">
        <ele>11.177</ele>
      </trkpt>
      <trkpt lat="36.80641" lon="27.84345">
        <ele>11.256</ele>
      </trkpt>
      <trkpt lat="36.80637" lon="27.84342">
        <ele>11.388</ele>
      </trkpt>
      <trkpt lat="36.80637" lon="27.84339">
        <ele>11.314</ele>
      </trkpt>
      <trkpt lat="36.80634" lon="27.84337">
        <ele>11.315</ele>
      </trkpt>
      <trkpt lat="36.80633" lon="27.84334">
        <ele>11.232</ele>
      </trkpt>
      <trkpt lat="36.80632" lon="27.84333">
        <ele>11.263</ele>
      </trkpt>
      <trkpt lat="36.80634" lon="27.84332">
        <ele>11.276</ele>
      </trkpt>
      <trkpt lat="36.80628" lon="27.8433">
        <ele>11.557</ele>
      </trkpt>
      <trkpt lat="36.80624" lon="27.84329">
        <ele>11.692</ele>
      </trkpt>
      <trkpt lat="36.80623" lon="27.8433">
        <ele>11.667</ele>
      </trkpt>
      <trkpt lat="36.80623" lon="27.8433">
        <ele>11.659</ele>
      </trkpt>
      <trkpt lat="36.80624" lon="27.8433">
        <ele>11.668</ele>
      </trkpt>
      <trkpt lat="36.80623" lon="27.84331">
        <ele>11.638</ele>
      </trkpt>
      <trkpt lat="36.80623" lon="27.8433">
        <ele>11.677</ele>
      </trkpt>
      <trkpt lat="36.80621" lon="27.8433">
        <ele>11.73</ele>
      </trkpt>
      <trkpt lat="36.8062" lon="27.8433">
        <ele>11.772</ele>
      </trkpt>
      <trkpt lat="36.80618" lon="27.84332">
        <ele>11.778</ele>
      </trkpt>
      <trkpt lat="36.80613" lon="27.84327">
        <ele>11.958</ele>
      </trkpt>
      <trkpt lat="36.80613" lon="27.84326">
        <ele>11.971</ele>
      </trkpt>
      <trkpt lat="36.80611" lon="27.84318">
        <ele>12.006</ele>
      </trkpt>
      <trkpt lat="36.8061" lon="27.84317">
        <ele>12.013</ele>
      </trkpt>
      <trkpt lat="36.8061" lon="27.84316">
        <ele>12.019</ele>
      </trkpt>
      <trkpt lat="36.8061" lon="27.84316">
        <ele>12.01</ele>
      </trkpt>
      <trkpt lat="36.8061" lon="27.84316">
        <ele>12.015</ele>
      </trkpt>
      <trkpt lat="36.8061" lon="27.84316">
        <ele>12.022</ele>
      </trkpt>
      <trkpt lat="36.80609" lon="27.84315">
        <ele>12.025</ele>
      </trkpt>
      <trkpt lat="36.8061" lon="27.84314">
        <ele>12.017</ele>
      </trkpt>
      <trkpt lat="36.8061" lon="27.84312">
        <ele>12.011</ele>
      </trkpt>
      <trkpt lat="36.80611" lon="27.84308">
        <ele>12.001</ele>
      </trkpt>
      <trkpt lat="36.80612" lon="27.84307">
        <ele>12.017</ele>
      </trkpt>
      <trkpt lat="36.80612" lon="27.84306">
        <ele>12.046</ele>
      </trkpt>
      <trkpt lat="36.80612" lon="27.84303">
        <ele>12.203</ele>
      </trkpt>
      <trkpt lat="36.80609" lon="27.84296">
        <ele>12.638</ele>
      </trkpt>
      <trkpt lat="36.80602" lon="27.84286">
        <ele>13.164</ele>
      </trkpt>
      <trkpt lat="36.80601" lon="27.84281">
        <ele>13.457</ele>
      </trkpt>
      <trkpt lat="36.806" lon="27.84275">
        <ele>14.106</ele>
      </trkpt>
      <trkpt lat="36.806" lon="27.84273">
        <ele>14.406</ele>
      </trkpt>
      <trkpt lat="36.80603" lon="27.84259">
        <ele>17.055</ele>
      </trkpt>
      <trkpt lat="36.80603" lon="27.84253">
        <ele>18.266</ele>
      </trkpt>
      <trkpt lat="36.80603" lon="27.84241">
        <ele>20.687</ele>
      </trkpt>
      <trkpt lat="36.80603" lon="27.84236">
        <ele>21.924</ele>
      </trkpt>
      <trkpt lat="36.80601" lon="27.84228">
        <ele>23.644</ele>
      </trkpt>
      <trkpt lat="36.80601" lon="27.84221">
        <ele>25.11</ele>
      </trkpt>
      <trkpt lat="36.80599" lon="27.84213">
        <ele>26.351</ele>
      </trkpt>
      <trkpt lat="36.80597" lon="27.84203">
        <ele>27.935</ele>
      </trkpt>
      <trkpt lat="36.80596" lon="27.84198">
        <ele>28.785</ele>
      </trkpt>
      <trkpt lat="36.80595" lon="27.84194">
        <ele>29.436</ele>
      </trkpt>
      <trkpt lat="36.80595" lon="27.84187">
        <ele>30.219</ele>
      </trkpt>
      <trkpt lat="36.80592" lon="27.84178">
        <ele>30.866</ele>
      </trkpt>
      <trkpt lat="36.8059" lon="27.84176">
        <ele>30.916</ele>
      </trkpt>
      <trkpt lat="36.80589" lon="27.84171">
        <ele>31.177</ele>
      </trkpt>
      <trkpt lat="36.80587" lon="27.84165">
        <ele>31.599</ele>
      </trkpt>
      <trkpt lat="36.80587" lon="27.84162">
        <ele>31.88</ele>
      </trkpt>
      <trkpt lat="36.80588" lon="27.84151">
        <ele>33.077</ele>
      </trkpt>
      <trkpt lat="36.8059" lon="27.84148">
        <ele>33.528</ele>
      </trkpt>
      <trkpt lat="36.8059" lon="27.84147">
        <ele>33.656</ele>
      </trkpt>
      <trkpt lat="36.80595" lon="27.84137">
        <ele>34.838</ele>
      </trkpt>
      <trkpt lat="36.80595" lon="27.84136">
        <ele>34.871</ele>
      </trkpt>
      <trkpt lat="36.80595" lon="27.84131">
        <ele>34.845</ele>
      </trkpt>
      <trkpt lat="36.80596" lon="27.84126">
        <ele>34.919</ele>
      </trkpt>
      <trkpt lat="36.80597" lon="27.84124">
        <ele>34.986</ele>
      </trkpt>
      <trkpt lat="36.80599" lon="27.84117">
        <ele>35.149</ele>
      </trkpt>
      <trkpt lat="36.80602" lon="27.8411">
        <ele>35.306</ele>
      </trkpt>
      <trkpt lat="36.80602" lon="27.84106">
        <ele>35.251</ele>
      </trkpt>
      <trkpt lat="36.80603" lon="27.84101">
        <ele>35.258</ele>
      </trkpt>
      <trkpt lat="36.80604" lon="27.84092">
        <ele>35.155</ele>
      </trkpt>
      <trkpt lat="36.806" lon="27.84084">
        <ele>35.005</ele>
      </trkpt>
      <trkpt lat="36.80601" lon="27.84084">
        <ele>35.004</ele>
      </trkpt>
      <trkpt lat="36.80601" lon="27.84082">
        <ele>35.103</ele>
      </trkpt>
      <trkpt lat="36.80601" lon="27.84082">
        <ele>35.156</ele>
      </trkpt>
      <trkpt lat="36.806" lon="27.84078">
        <ele>35.557</ele>
      </trkpt>
      <trkpt lat="36.80598" lon="27.84075">
        <ele>35.872</ele>
      </trkpt>
      <trkpt lat="36.80594" lon="27.84066">
        <ele>36.891</ele>
      </trkpt>
      <trkpt lat="36.80593" lon="27.84059">
        <ele>37.677</ele>
      </trkpt>
      <trkpt lat="36.80591" lon="27.84053">
        <ele>38.506</ele>
      </trkpt>
      <trkpt lat="36.80589" lon="27.84052">
        <ele>38.634</ele>
      </trkpt>
      <trkpt lat="36.8059" lon="27.84052">
        <ele>38.607</ele>
      </trkpt>
      <trkpt lat="36.80591" lon="27.84054">
        <ele>38.296</ele>
      </trkpt>
      <trkpt lat="36.80591" lon="27.84054">
        <ele>38.296</ele>
      </trkpt>
      <trkpt lat="36.80592" lon="27.84056">
        <ele>37.944</ele>
      </trkpt>
      <trkpt lat="36.80593" lon="27.84058">
        <ele>37.707</ele>
      </trkpt>
      <trkpt lat="36.80595" lon="27.84059">
        <ele>37.624</ele>
      </trkpt>
      <trkpt lat="36.80598" lon="27.84055">
        <ele>38.043</ele>
      </trkpt>
      <trkpt lat="36.80603" lon="27.84054">
        <ele>38.222</ele>
      </trkpt>
      <trkpt lat="36.80611" lon="27.84052">
        <ele>38.475</ele>
      </trkpt>
      <trkpt lat="36.80619" lon="27.84049">
        <ele>38.205</ele>
      </trkpt>
      <trkpt lat="36.80625" lon="27.84046">
        <ele>38.273</ele>
      </trkpt>
      <trkpt lat="36.80629" lon="27.84046">
        <ele>37.97</ele>
      </trkpt>
      <trkpt lat="36.80637" lon="27.84045">
        <ele>37.502</ele>
      </trkpt>
      <trkpt lat="36.80645" lon="27.84038">
        <ele>38.523</ele>
      </trkpt>
      <trkpt lat="36.80646" lon="27.84034">
        <ele>39.393</ele>
      </trkpt>
      <trkpt lat="36.80655" lon="27.84027">
        <ele>40.574</ele>
      </trkpt>
      <trkpt lat="36.8066" lon="27.84023">
        <ele>41.495</ele>
      </trkpt>
      <trkpt lat="36.80666" lon="27.84017">
        <ele>42.669</ele>
      </trkpt>
      <trkpt lat="36.80671" lon="27.84013">
        <ele>43.169</ele>
      </trkpt>
      <trkpt lat="36.80675" lon="27.84009">
        <ele>43.817</ele>
      </trkpt>
      <trkpt lat="36.80676" lon="27.84006">
        <ele>44.286</ele>
      </trkpt>
      <trkpt lat="36.80679" lon="27.84">
        <ele>45.171</ele>
      </trkpt>
      <trkpt lat="36.80681" lon="27.83989">
        <ele>47.038</ele>
      </trkpt>
      <trkpt lat="36.80681" lon="27.83987">
        <ele>47.303</ele>
      </trkpt>
      <trkpt lat="36.80683" lon="27.8398">
        <ele>48.336</ele>
      </trkpt>
      <trkpt lat="36.80684" lon="27.83977">
        <ele>48.675</ele>
      </trkpt>
      <trkpt lat="36.80687" lon="27.8397">
        <ele>49.632</ele>
      </trkpt>
      <trkpt lat="36.80689" lon="27.83967">
        <ele>49.986</ele>
      </trkpt>
      <trkpt lat="36.8069" lon="27.83963">
        <ele>50.739</ele>
      </trkpt>
      <trkpt lat="36.80691" lon="27.83951">
        <ele>53.325</ele>
      </trkpt>
      <trkpt lat="36.80691" lon="27.83951">
        <ele>53.325</ele>
      </trkpt>
      <trkpt lat="36.80691" lon="27.83951">
        <ele>53.452</ele>
      </trkpt>
      <trkpt lat="36.8069" lon="27.83951">
        <ele>53.433</ele>
      </trkpt>
      <trkpt lat="36.80693" lon="27.83946">
        <ele>53.972</ele>
      </trkpt>
      <trkpt lat="36.80693" lon="27.83942">
        <ele>55.042</ele>
      </trkpt>
      <trkpt lat="36.80697" lon="27.83932">
        <ele>58.058</ele>
      </trkpt>
      <trkpt lat="36.80709" lon="27.83927">
        <ele>59.213</ele>
      </trkpt>
      <trkpt lat="36.80716" lon="27.83925">
        <ele>59.823</ele>
      </trkpt>
      <trkpt lat="36.80717" lon="27.83924">
        <ele>59.897</ele>
      </trkpt>
      <trkpt lat="36.80726" lon="27.83923">
        <ele>60.725</ele>
      </trkpt>
      <trkpt lat="36.80733" lon="27.83923">
        <ele>61.534</ele>
      </trkpt>
      <trkpt lat="36.80734" lon="27.83924">
        <ele>61.524</ele>
      </trkpt>
      <trkpt lat="36.80738" lon="27.83924">
        <ele>61.713</ele>
      </trkpt>
      <trkpt lat="36.80744" lon="27.83925">
        <ele>62.378</ele>
      </trkpt>
      <trkpt lat="36.80747" lon="27.83924">
        <ele>62.924</ele>
      </trkpt>
      <trkpt lat="36.80749" lon="27.83924">
        <ele>63.25</ele>
      </trkpt>
      <trkpt lat="36.80749" lon="27.83925">
        <ele>63.098</ele>
      </trkpt>
      <trkpt lat="36.80753" lon="27.83922">
        <ele>63.959</ele>
      </trkpt>
      <trkpt lat="36.80755" lon="27.83922">
        <ele>64.113</ele>
      </trkpt>
      <trkpt lat="36.80756" lon="27.83922">
        <ele>64.222</ele>
      </trkpt>
      <trkpt lat="36.80763" lon="27.83922">
        <ele>64.048</ele>
      </trkpt>
      <trkpt lat="36.80765" lon="27.83922">
        <ele>64.286</ele>
      </trkpt>
      <trkpt lat="36.80769" lon="27.83922">
        <ele>64.198</ele>
      </trkpt>
      <trkpt lat="36.80777" lon="27.83923">
        <ele>63.955</ele>
      </trkpt>
      <trkpt lat="36.8078" lon="27.83925">
        <ele>63.274</ele>
      </trkpt>
      <trkpt lat="36.80785" lon="27.83923">
        <ele>64.168</ele>
      </trkpt>
      <trkpt lat="36.80789" lon="27.83924">
        <ele>63.826</ele>
      </trkpt>
      <trkpt lat="36.80794" lon="27.83924">
        <ele>64.067</ele>
      </trkpt>
      <trkpt lat="36.80797" lon="27.83919">
        <ele>65.752</ele>
      </trkpt>
      <trkpt lat="36.80797" lon="27.83917">
        <ele>66.497</ele>
      </trkpt>
      <trkpt lat="36.80798" lon="27.83917">
        <ele>66.757</ele>
      </trkpt>
      <trkpt lat="36.80804" lon="27.8391">
        <ele>68.922</ele>
      </trkpt>
      <trkpt lat="36.80812" lon="27.83906">
        <ele>69.656</ele>
      </trkpt>
      <trkpt lat="36.80815" lon="27.83904">
        <ele>69.999</ele>
      </trkpt>
      <trkpt lat="36.80821" lon="27.83902">
        <ele>70.051</ele>
      </trkpt>
      <trkpt lat="36.80822" lon="27.83902">
        <ele>69.968</ele>
      </trkpt>
      <trkpt lat="36.8083" lon="27.83901">
        <ele>69.703</ele>
      </trkpt>
      <trkpt lat="36.80833" lon="27.83897">
        <ele>70.311</ele>
      </trkpt>
      <trkpt lat="36.80838" lon="27.83895">
        <ele>70.543</ele>
      </trkpt>
      <trkpt lat="36.80845" lon="27.83891">
        <ele>71.083</ele>
      </trkpt>
      <trkpt lat="36.80849" lon="27.83887">
        <ele>71.789</ele>
      </trkpt>
      <trkpt lat="36.80855" lon="27.83881">
        <ele>72.853</ele>
      </trkpt>
      <trkpt lat="36.80857" lon="27.8388">
        <ele>72.856</ele>
      </trkpt>
      <trkpt lat="36.80859" lon="27.8388">
        <ele>72.783</ele>
      </trkpt>
      <trkpt lat="36.80865" lon="27.83875">
        <ele>73.051</ele>
      </trkpt>
      <trkpt lat="36.8087" lon="27.83869">
        <ele>73.629</ele>
      </trkpt>
      <trkpt lat="36.80873" lon="27.83865">
        <ele>74.025</ele>
      </trkpt>
      <trkpt lat="36.80873" lon="27.83864">
        <ele>74.192</ele>
      </trkpt>
      <trkpt lat="36.8088" lon="27.83859">
        <ele>74.376</ele>
      </trkpt>
      <trkpt lat="36.80885" lon="27.83855">
        <ele>74.475</ele>
      </trkpt>
      <trkpt lat="36.80889" lon="27.83853">
        <ele>74.21</ele>
      </trkpt>
      <trkpt lat="36.80891" lon="27.83853">
        <ele>73.426</ele>
      </trkpt>
      <trkpt lat="36.80895" lon="27.83854">
        <ele>72.1</ele>
      </trkpt>
      <trkpt lat="36.80895" lon="27.83852">
        <ele>72.208</ele>
      </trkpt>
      <trkpt lat="36.80894" lon="27.83854">
        <ele>72.174</ele>
      </trkpt>
      <trkpt lat="36.80894" lon="27.83852">
        <ele>72.511</ele>
      </trkpt>
      <trkpt lat="36.80897" lon="27.83851">
        <ele>71.915</ele>
      </trkpt>
      <trkpt lat="36.80896" lon="27.83853">
        <ele>71.992</ele>
      </trkpt>
      <trkpt lat="36.80896" lon="27.83851">
        <ele>72.046</ele>
      </trkpt>
      <trkpt lat="36.80898" lon="27.83847">
        <ele>72.191</ele>
      </trkpt>
      <trkpt lat="36.80902" lon="27.83841">
        <ele>72.019</ele>
      </trkpt>
      <trkpt lat="36.80904" lon="27.83839">
        <ele>71.685</ele>
      </trkpt>
      <trkpt lat="36.80906" lon="27.83837">
        <ele>71.492</ele>
      </trkpt>
      <trkpt lat="36.80909" lon="27.83829">
        <ele>71.584</ele>
      </trkpt>
      <trkpt lat="36.80911" lon="27.83826">
        <ele>71.497</ele>
      </trkpt>
      <trkpt lat="36.80913" lon="27.8382">
        <ele>71.441</ele>
      </trkpt>
      <trkpt lat="36.80916" lon="27.83803">
        <ele>72.38</ele>
      </trkpt>
      <trkpt lat="36.80914" lon="27.83786">
        <ele>73.555</ele>
      </trkpt>
      <trkpt lat="36.80914" lon="27.83781">
        <ele>73.776</ele>
      </trkpt>
      <trkpt lat="36.80908" lon="27.83772">
        <ele>75.881</ele>
      </trkpt>
      <trkpt lat="36.80908" lon="27.83757">
        <ele>75.99</ele>
      </trkpt>
      <trkpt lat="36.80908" lon="27.83739">
        <ele>75.506</ele>
      </trkpt>
      <trkpt lat="36.80908" lon="27.83739">
        <ele>75.506</ele>
      </trkpt>
      <trkpt lat="36.80904" lon="27.83725">
        <ele>76.986</ele>
      </trkpt>
      <trkpt lat="36.80901" lon="27.83711">
        <ele>78.084</ele>
      </trkpt>
      <trkpt lat="36.80896" lon="27.83699">
        <ele>79.65</ele>
      </trkpt>
      <trkpt lat="36.80888" lon="27.8369">
        <ele>83.312</ele>
      </trkpt>
      <trkpt lat="36.80884" lon="27.83684">
        <ele>85.004</ele>
      </trkpt>
      <trkpt lat="36.80883" lon="27.83678">
        <ele>84.742</ele>
      </trkpt>
      <trkpt lat="36.80883" lon="27.83673">
        <ele>84.276</ele>
      </trkpt>
      <trkpt lat="36.80877" lon="27.83665">
        <ele>86.914</ele>
      </trkpt>
      <trkpt lat="36.80872" lon="27.83666">
        <ele>89.487</ele>
      </trkpt>
      <trkpt lat="36.80865" lon="27.83667">
        <ele>93.966</ele>
      </trkpt>
      <trkpt lat="36.80858" lon="27.83662">
        <ele>96.512</ele>
      </trkpt>
      <trkpt lat="36.80859" lon="27.8366">
        <ele>96.19</ele>
      </trkpt>
      <trkpt lat="36.80858" lon="27.83655">
        <ele>96.287</ele>
      </trkpt>
      <trkpt lat="36.80854" lon="27.83648">
        <ele>96.858</ele>
      </trkpt>
      <trkpt lat="36.80843" lon="27.8364">
        <ele>99.236</ele>
      </trkpt>
      <trkpt lat="36.80839" lon="27.83635">
        <ele>100.33</ele>
      </trkpt>
      <trkpt lat="36.80838" lon="27.83634">
        <ele>100.502</ele>
      </trkpt>
      <trkpt lat="36.80837" lon="27.83632">
        <ele>100.867</ele>
      </trkpt>
      <trkpt lat="36.80833" lon="27.8363">
        <ele>101.637</ele>
      </trkpt>
      <trkpt lat="36.80827" lon="27.83624">
        <ele>102.538</ele>
      </trkpt>
      <trkpt lat="36.80818" lon="27.83614">
        <ele>102.884</ele>
      </trkpt>
      <trkpt lat="36.8081" lon="27.83602">
        <ele>103.087</ele>
      </trkpt>
      <trkpt lat="36.80809" lon="27.83601">
        <ele>103.066</ele>
      </trkpt>
      <trkpt lat="36.80806" lon="27.83588">
        <ele>102.324</ele>
      </trkpt>
      <trkpt lat="36.80797" lon="27.83571">
        <ele>104.14</ele>
      </trkpt>
      <trkpt lat="36.80794" lon="27.8357">
        <ele>104.542</ele>
      </trkpt>
      <trkpt lat="36.80788" lon="27.83569">
        <ele>105.078</ele>
      </trkpt>
      <trkpt lat="36.80781" lon="27.83569">
        <ele>105.756</ele>
      </trkpt>
      <trkpt lat="36.80768" lon="27.83573">
        <ele>106.832</ele>
      </trkpt>
      <trkpt lat="36.80763" lon="27.83576">
        <ele>107.329</ele>
      </trkpt>
      <trkpt lat="36.80756" lon="27.83579">
        <ele>108.098</ele>
      </trkpt>
      <trkpt lat="36.80746" lon="27.83581">
        <ele>109.104</ele>
      </trkpt>
      <trkpt lat="36.8074" lon="27.83584">
        <ele>109.851</ele>
      </trkpt>
      <trkpt lat="36.80739" lon="27.83587">
        <ele>110.43</ele>
      </trkpt>
      <trkpt lat="36.80735" lon="27.83593">
        <ele>111.562</ele>
      </trkpt>
      <trkpt lat="36.8072" lon="27.83602">
        <ele>113.585</ele>
      </trkpt>
      <trkpt lat="36.80717" lon="27.83603">
        <ele>113.511</ele>
      </trkpt>
      <trkpt lat="36.80704" lon="27.83611">
        <ele>113.633</ele>
      </trkpt>
      <trkpt lat="36.80696" lon="27.83619">
        <ele>113.92</ele>
      </trkpt>
      <trkpt lat="36.80691" lon="27.83626">
        <ele>115.117</ele>
      </trkpt>
      <trkpt lat="36.80689" lon="27.83631">
        <ele>115.866</ele>
      </trkpt>
      <trkpt lat="36.80685" lon="27.83644">
        <ele>117.314</ele>
      </trkpt>
      <trkpt lat="36.80687" lon="27.83655">
        <ele>117.974</ele>
      </trkpt>
      <trkpt lat="36.80685" lon="27.83662">
        <ele>118.658</ele>
      </trkpt>
      <trkpt lat="36.80677" lon="27.83664">
        <ele>119.673</ele>
      </trkpt>
      <trkpt lat="36.80678" lon="27.83672">
        <ele>120.043</ele>
      </trkpt>
      <trkpt lat="36.80673" lon="27.83681">
        <ele>120.916</ele>
      </trkpt>
      <trkpt lat="36.80674" lon="27.83683">
        <ele>121.004</ele>
      </trkpt>
      <trkpt lat="36.80671" lon="27.83692">
        <ele>121.575</ele>
      </trkpt>
      <trkpt lat="36.80664" lon="27.83694">
        <ele>122.589</ele>
      </trkpt>
      <trkpt lat="36.80661" lon="27.837">
        <ele>123.113</ele>
      </trkpt>
      <trkpt lat="36.80657" lon="27.83709">
        <ele>123.523</ele>
      </trkpt>
      <trkpt lat="36.80656" lon="27.83721">
        <ele>123.067</ele>
      </trkpt>
      <trkpt lat="36.80656" lon="27.83725">
        <ele>122.767</ele>
      </trkpt>
      <trkpt lat="36.80654" lon="27.83727">
        <ele>122.817</ele>
      </trkpt>
      <trkpt lat="36.80648" lon="27.83731">
        <ele>123.608</ele>
      </trkpt>
      <trkpt lat="36.80644" lon="27.83739">
        <ele>123.85</ele>
      </trkpt>
      <trkpt lat="36.8064" lon="27.83741">
        <ele>124.454</ele>
      </trkpt>
      <trkpt lat="36.80637" lon="27.83743">
        <ele>124.74</ele>
      </trkpt>
      <trkpt lat="36.80634" lon="27.83748">
        <ele>124.875</ele>
      </trkpt>
      <trkpt lat="36.80623" lon="27.83755">
        <ele>126.188</ele>
      </trkpt>
      <trkpt lat="36.80614" lon="27.83756">
        <ele>127.351</ele>
      </trkpt>
      <trkpt lat="36.80614" lon="27.83756">
        <ele>127.439</ele>
      </trkpt>
      <trkpt lat="36.80611" lon="27.83756">
        <ele>127.818</ele>
      </trkpt>
      <trkpt lat="36.80604" lon="27.83756">
        <ele>128.892</ele>
      </trkpt>
      <trkpt lat="36.80598" lon="27.83758">
        <ele>129.554</ele>
      </trkpt>
      <trkpt lat="36.80593" lon="27.83759">
        <ele>130.3</ele>
      </trkpt>
      <trkpt lat="36.80587" lon="27.83768">
        <ele>130.891</ele>
      </trkpt>
      <trkpt lat="36.80575" lon="27.83777">
        <ele>131.326</ele>
      </trkpt>
      <trkpt lat="36.80565" lon="27.83789">
        <ele>130.466</ele>
      </trkpt>
      <trkpt lat="36.80558" lon="27.83793">
        <ele>130.276</ele>
      </trkpt>
      <trkpt lat="36.80541" lon="27.838">
        <ele>129.797</ele>
      </trkpt>
      <trkpt lat="36.8053" lon="27.83808">
        <ele>128.649</ele>
      </trkpt>
      <trkpt lat="36.80518" lon="27.83815">
        <ele>128.239</ele>
      </trkpt>
      <trkpt lat="36.80513" lon="27.83819">
        <ele>128.009</ele>
      </trkpt>
      <trkpt lat="36.80511" lon="27.8382">
        <ele>127.755</ele>
      </trkpt>
      <trkpt lat="36.80503" lon="27.83827">
        <ele>126.738</ele>
      </trkpt>
      <trkpt lat="36.80492" lon="27.8383">
        <ele>127.749</ele>
      </trkpt>
      <trkpt lat="36.80485" lon="27.83831">
        <ele>128.809</ele>
      </trkpt>
      <trkpt lat="36.80484" lon="27.83831">
        <ele>128.977</ele>
      </trkpt>
      <trkpt lat="36.80473" lon="27.83835">
        <ele>130.065</ele>
      </trkpt>
      <trkpt lat="36.80459" lon="27.83839">
        <ele>131.04</ele>
      </trkpt>
      <trkpt lat="36.80457" lon="27.83839">
        <ele>131.406</ele>
      </trkpt>
      <trkpt lat="36.80453" lon="27.83841">
        <ele>131.41</ele>
      </trkpt>
      <trkpt lat="36.80446" lon="27.83841">
        <ele>132.543</ele>
      </trkpt>
      <trkpt lat="36.80438" lon="27.8384">
        <ele>133.193</ele>
      </trkpt>
      <trkpt lat="36.80435" lon="27.83842">
        <ele>132.803</ele>
      </trkpt>
      <trkpt lat="36.80424" lon="27.83842">
        <ele>132.639</ele>
      </trkpt>
      <trkpt lat="36.80423" lon="27.83843">
        <ele>132.498</ele>
      </trkpt>
      <trkpt lat="36.80417" lon="27.83845">
        <ele>131.53</ele>
      </trkpt>
      <trkpt lat="36.80407" lon="27.83848">
        <ele>131.071</ele>
      </trkpt>
      <trkpt lat="36.80402" lon="27.83847">
        <ele>131.855</ele>
      </trkpt>
      <trkpt lat="36.804" lon="27.83852">
        <ele>130.132</ele>
      </trkpt>
      <trkpt lat="36.80396" lon="27.8385">
        <ele>131.026</ele>
      </trkpt>
      <trkpt lat="36.8039" lon="27.83851">
        <ele>131.329</ele>
      </trkpt>
      <trkpt lat="36.80378" lon="27.83855">
        <ele>129.202</ele>
      </trkpt>
      <trkpt lat="36.8037" lon="27.8386">
        <ele>126.864</ele>
      </trkpt>
      <trkpt lat="36.8037" lon="27.83861">
        <ele>126.215</ele>
      </trkpt>
      <trkpt lat="36.80364" lon="27.83862">
        <ele>125.716</ele>
      </trkpt>
      <trkpt lat="36.80362" lon="27.83861">
        <ele>125.863</ele>
      </trkpt>
      <trkpt lat="36.80357" lon="27.83855">
        <ele>127.177</ele>
      </trkpt>
      <trkpt lat="36.80352" lon="27.83848">
        <ele>128.165</ele>
      </trkpt>
      <trkpt lat="36.80347" lon="27.83838">
        <ele>130.282</ele>
      </trkpt>
      <trkpt lat="36.8034" lon="27.8383">
        <ele>131.183</ele>
      </trkpt>
      <trkpt lat="36.80337" lon="27.83825">
        <ele>131.33</ele>
      </trkpt>
      <trkpt lat="36.80336" lon="27.83825">
        <ele>131.146</ele>
      </trkpt>
      <trkpt lat="36.80326" lon="27.83822">
        <ele>128.402</ele>
      </trkpt>
      <trkpt lat="36.80325" lon="27.83819">
        <ele>128.837</ele>
      </trkpt>
      <trkpt lat="36.80318" lon="27.8381">
        <ele>128.669</ele>
      </trkpt>
      <trkpt lat="36.80312" lon="27.83806">
        <ele>127.135</ele>
      </trkpt>
      <trkpt lat="36.80309" lon="27.83803">
        <ele>127.007</ele>
      </trkpt>
      <trkpt lat="36.80306" lon="27.83798">
        <ele>127.4</ele>
      </trkpt>
      <trkpt lat="36.80299" lon="27.83792">
        <ele>127.043</ele>
      </trkpt>
      <trkpt lat="36.80298" lon="27.8379">
        <ele>127.197</ele>
      </trkpt>
      <trkpt lat="36.80292" lon="27.83783">
        <ele>127.869</ele>
      </trkpt>
      <trkpt lat="36.80281" lon="27.83777">
        <ele>127.187</ele>
      </trkpt>
      <trkpt lat="36.80279" lon="27.83776">
        <ele>127.058</ele>
      </trkpt>
      <trkpt lat="36.80275" lon="27.83771">
        <ele>128.092</ele>
      </trkpt>
      <trkpt lat="36.80265" lon="27.83771">
        <ele>126.815</ele>
      </trkpt>
      <trkpt lat="36.80254" lon="27.8377">
        <ele>125.848</ele>
      </trkpt>
      <trkpt lat="36.80245" lon="27.83771">
        <ele>125.762</ele>
      </trkpt>
      <trkpt lat="36.8024" lon="27.83772">
        <ele>125.906</ele>
      </trkpt>
      <trkpt lat="36.80238" lon="27.83775">
        <ele>124.781</ele>
      </trkpt>
      <trkpt lat="36.80233" lon="27.83781">
        <ele>123.507</ele>
      </trkpt>
      <trkpt lat="36.80233" lon="27.83779">
        <ele>123.969</ele>
      </trkpt>
      <trkpt lat="36.80228" lon="27.83782">
        <ele>123.914</ele>
      </trkpt>
      <trkpt lat="36.80215" lon="27.83786">
        <ele>123.699</ele>
      </trkpt>
      <trkpt lat="36.80207" lon="27.83793">
        <ele>122.575</ele>
      </trkpt>
      <trkpt lat="36.80196" lon="27.83796">
        <ele>123.171</ele>
      </trkpt>
      <trkpt lat="36.80191" lon="27.838">
        <ele>122.486</ele>
      </trkpt>
      <trkpt lat="36.80184" lon="27.83805">
        <ele>121.547</ele>
      </trkpt>
      <trkpt lat="36.80173" lon="27.83807">
        <ele>121.694</ele>
      </trkpt>
      <trkpt lat="36.80165" lon="27.83808">
        <ele>122.155</ele>
      </trkpt>
      <trkpt lat="36.80156" lon="27.83805">
        <ele>124.913</ele>
      </trkpt>
      <trkpt lat="36.80147" lon="27.83801">
        <ele>128.309</ele>
      </trkpt>
      <trkpt lat="36.80144" lon="27.83798">
        <ele>129.85</ele>
      </trkpt>
      <trkpt lat="36.80139" lon="27.83797">
        <ele>131.018</ele>
      </trkpt>
      <trkpt lat="36.80134" lon="27.83796">
        <ele>133.152</ele>
      </trkpt>
      <trkpt lat="36.80125" lon="27.83791">
        <ele>137.647</ele>
      </trkpt>
      <trkpt lat="36.80121" lon="27.83792">
        <ele>138.791</ele>
      </trkpt>
      <trkpt lat="36.80124" lon="27.83799">
        <ele>136.629</ele>
      </trkpt>
      <trkpt lat="36.80126" lon="27.83812">
        <ele>134.332</ele>
      </trkpt>
      <trkpt lat="36.80125" lon="27.83821">
        <ele>134.617</ele>
      </trkpt>
      <trkpt lat="36.80124" lon="27.83826">
        <ele>134.983</ele>
      </trkpt>
      <trkpt lat="36.8013" lon="27.83838">
        <ele>131.996</ele>
      </trkpt>
      <trkpt lat="36.80129" lon="27.83844">
        <ele>132.547</ele>
      </trkpt>
      <trkpt lat="36.80126" lon="27.83857">
        <ele>134.911</ele>
      </trkpt>
      <trkpt lat="36.80123" lon="27.83866">
        <ele>137.165</ele>
      </trkpt>
      <trkpt lat="36.8012" lon="27.83869">
        <ele>138.778</ele>
      </trkpt>
      <trkpt lat="36.80126" lon="27.83874">
        <ele>136.595</ele>
      </trkpt>
      <trkpt lat="36.80126" lon="27.83874">
        <ele>136.434</ele>
      </trkpt>
      <trkpt lat="36.80133" lon="27.83883">
        <ele>134.54</ele>
      </trkpt>
      <trkpt lat="36.80138" lon="27.83886">
        <ele>132.973</ele>
      </trkpt>
      <trkpt lat="36.80141" lon="27.83895">
        <ele>133.612</ele>
      </trkpt>
      <trkpt lat="36.80139" lon="27.83899">
        <ele>134.635</ele>
      </trkpt>
      <trkpt lat="36.80141" lon="27.83911">
        <ele>136.61</ele>
      </trkpt>
      <trkpt lat="36.80141" lon="27.83916">
        <ele>137.543</ele>
      </trkpt>
      <trkpt lat="36.80141" lon="27.83926">
        <ele>137.302</ele>
      </trkpt>
      <trkpt lat="36.8014" lon="27.83931">
        <ele>137.224</ele>
      </trkpt>
      <trkpt lat="36.8013" lon="27.83936">
        <ele>139.742</ele>
      </trkpt>
      <trkpt lat="36.80129" lon="27.83936">
        <ele>140.025</ele>
      </trkpt>
      <trkpt lat="36.80125" lon="27.83943">
        <ele>140.548</ele>
      </trkpt>
      <trkpt lat="36.80118" lon="27.83957">
        <ele>139.93</ele>
      </trkpt>
      <trkpt lat="36.80115" lon="27.83965">
        <ele>139.268</ele>
      </trkpt>
      <trkpt lat="36.80114" lon="27.83972">
        <ele>138.33</ele>
      </trkpt>
      <trkpt lat="36.8011" lon="27.8398">
        <ele>137.831</ele>
      </trkpt>
      <trkpt lat="36.80109" lon="27.83981">
        <ele>138.162</ele>
      </trkpt>
      <trkpt lat="36.80104" lon="27.83986">
        <ele>138.88</ele>
      </trkpt>
      <trkpt lat="36.80096" lon="27.83991">
        <ele>140.38</ele>
      </trkpt>
      <trkpt lat="36.80081" lon="27.83987">
        <ele>145.374</ele>
      </trkpt>
      <trkpt lat="36.80078" lon="27.83987">
        <ele>146.315</ele>
      </trkpt>
      <trkpt lat="36.80065" lon="27.83988">
        <ele>149.658</ele>
      </trkpt>
      <trkpt lat="36.80054" lon="27.83987">
        <ele>152.627</ele>
      </trkpt>
      <trkpt lat="36.80052" lon="27.83992">
        <ele>151.914</ele>
      </trkpt>
      <trkpt lat="36.80046" lon="27.84001">
        <ele>150.572</ele>
      </trkpt>
      <trkpt lat="36.80043" lon="27.84007">
        <ele>148.802</ele>
      </trkpt>
      <trkpt lat="36.80024" lon="27.84012">
        <ele>150.224</ele>
      </trkpt>
      <trkpt lat="36.80015" lon="27.84016">
        <ele>150.688</ele>
      </trkpt>
      <trkpt lat="36.80006" lon="27.84017">
        <ele>152.762</ele>
      </trkpt>
      <trkpt lat="36.79996" lon="27.84016">
        <ele>156.138</ele>
      </trkpt>
      <trkpt lat="36.79986" lon="27.8402">
        <ele>158.289</ele>
      </trkpt>
      <trkpt lat="36.79979" lon="27.84028">
        <ele>157.537</ele>
      </trkpt>
      <trkpt lat="36.79972" lon="27.84034">
        <ele>157.619</ele>
      </trkpt>
      <trkpt lat="36.79971" lon="27.84034">
        <ele>157.775</ele>
      </trkpt>
      <trkpt lat="36.7996" lon="27.84032">
        <ele>162.74</ele>
      </trkpt>
      <trkpt lat="36.79953" lon="27.84036">
        <ele>164.069</ele>
      </trkpt>
      <trkpt lat="36.79944" lon="27.84039">
        <ele>166.02</ele>
      </trkpt>
      <trkpt lat="36.7994" lon="27.8404">
        <ele>167.002</ele>
      </trkpt>
      <trkpt lat="36.79925" lon="27.84044">
        <ele>171.199</ele>
      </trkpt>
      <trkpt lat="36.79917" lon="27.84045">
        <ele>173.888</ele>
      </trkpt>
      <trkpt lat="36.79915" lon="27.84046">
        <ele>174.106</ele>
      </trkpt>
      <trkpt lat="36.79908" lon="27.84052">
        <ele>174.095</ele>
      </trkpt>
      <trkpt lat="36.799" lon="27.8406">
        <ele>173.655</ele>
      </trkpt>
      <trkpt lat="36.79899" lon="27.84063">
        <ele>173.108</ele>
      </trkpt>
      <trkpt lat="36.79891" lon="27.84075">
        <ele>171.74</ele>
      </trkpt>
      <trkpt lat="36.79882" lon="27.8408">
        <ele>171.773</ele>
      </trkpt>
      <trkpt lat="36.79877" lon="27.84077">
        <ele>172.996</ele>
      </trkpt>
      <trkpt lat="36.79873" lon="27.84077">
        <ele>173.428</ele>
      </trkpt>
      <trkpt lat="36.79863" lon="27.84074">
        <ele>175.177</ele>
      </trkpt>
      <trkpt lat="36.79849" lon="27.84065">
        <ele>178.504</ele>
      </trkpt>
      <trkpt lat="36.79848" lon="27.84064">
        <ele>178.814</ele>
      </trkpt>
      <trkpt lat="36.79835" lon="27.84061">
        <ele>180.128</ele>
      </trkpt>
      <trkpt lat="36.79834" lon="27.84059">
        <ele>180.489</ele>
      </trkpt>
      <trkpt lat="36.79827" lon="27.84066">
        <ele>179.827</ele>
      </trkpt>
      <trkpt lat="36.79823" lon="27.84069">
        <ele>179.849</ele>
      </trkpt>
      <trkpt lat="36.79823" lon="27.84077">
        <ele>179.056</ele>
      </trkpt>
      <trkpt lat="36.79814" lon="27.84087">
        <ele>179.619</ele>
      </trkpt>
      <trkpt lat="36.79814" lon="27.84087">
        <ele>179.619</ele>
      </trkpt>
      <trkpt lat="36.79807" lon="27.84081">
        <ele>180.754</ele>
      </trkpt>
      <trkpt lat="36.79793" lon="27.8408">
        <ele>182.263</ele>
      </trkpt>
      <trkpt lat="36.79774" lon="27.84073">
        <ele>183.502</ele>
      </trkpt>
      <trkpt lat="36.79757" lon="27.84068">
        <ele>184.393</ele>
      </trkpt>
      <trkpt lat="36.79741" lon="27.84061">
        <ele>185.69</ele>
      </trkpt>
      <trkpt lat="36.79726" lon="27.84054">
        <ele>187.42</ele>
      </trkpt>
      <trkpt lat="36.7971" lon="27.84039">
        <ele>188.396</ele>
      </trkpt>
      <trkpt lat="36.79697" lon="27.84026">
        <ele>188.796</ele>
      </trkpt>
      <trkpt lat="36.79696" lon="27.84025">
        <ele>188.934</ele>
      </trkpt>
      <trkpt lat="36.79686" lon="27.84016">
        <ele>191.207</ele>
      </trkpt>
      <trkpt lat="36.79682" lon="27.84016">
        <ele>192.037</ele>
      </trkpt>
      <trkpt lat="36.7966" lon="27.84015">
        <ele>196.373</ele>
      </trkpt>
      <trkpt lat="36.79658" lon="27.84015">
        <ele>196.642</ele>
      </trkpt>
      <trkpt lat="36.79643" lon="27.84013">
        <ele>199.769</ele>
      </trkpt>
      <trkpt lat="36.79628" lon="27.84014">
        <ele>202.302</ele>
      </trkpt>
      <trkpt lat="36.79628" lon="27.84014">
        <ele>202.302</ele>
      </trkpt>
      <trkpt lat="36.79615" lon="27.84016">
        <ele>204.467</ele>
      </trkpt>
      <trkpt lat="36.79604" lon="27.84018">
        <ele>205.942</ele>
      </trkpt>
      <trkpt lat="36.79596" lon="27.8402">
        <ele>206.662</ele>
      </trkpt>
      <trkpt lat="36.79594" lon="27.8402">
        <ele>206.851</ele>
      </trkpt>
      <trkpt lat="36.7958" lon="27.84017">
        <ele>207.653</ele>
      </trkpt>
      <trkpt lat="36.79569" lon="27.84013">
        <ele>207.745</ele>
      </trkpt>
      <trkpt lat="36.79561" lon="27.8401">
        <ele>207.887</ele>
      </trkpt>
      <trkpt lat="36.79552" lon="27.84006">
        <ele>207.689</ele>
      </trkpt>
      <trkpt lat="36.79547" lon="27.84004">
        <ele>207.32</ele>
      </trkpt>
      <trkpt lat="36.79545" lon="27.84003">
        <ele>207.212</ele>
      </trkpt>
      <trkpt lat="36.79535" lon="27.84004">
        <ele>206.412</ele>
      </trkpt>
      <trkpt lat="36.79532" lon="27.84004">
        <ele>206.154</ele>
      </trkpt>
      <trkpt lat="36.79509" lon="27.84009">
        <ele>203.892</ele>
      </trkpt>
      <trkpt lat="36.79492" lon="27.84019">
        <ele>200.524</ele>
      </trkpt>
      <trkpt lat="36.79478" lon="27.84025">
        <ele>197.486</ele>
      </trkpt>
      <trkpt lat="36.7946" lon="27.84034">
        <ele>193.974</ele>
      </trkpt>
      <trkpt lat="36.79438" lon="27.84043">
        <ele>191.21</ele>
      </trkpt>
      <trkpt lat="36.79406" lon="27.84043">
        <ele>189.406</ele>
      </trkpt>
      <trkpt lat="36.79399" lon="27.84039">
        <ele>189.102</ele>
      </trkpt>
      <trkpt lat="36.79387" lon="27.84035">
        <ele>188.244</ele>
      </trkpt>
      <trkpt lat="36.79364" lon="27.84028">
        <ele>185.426</ele>
      </trkpt>
      <trkpt lat="36.79349" lon="27.84026">
        <ele>184.05</ele>
      </trkpt>
      <trkpt lat="36.79342" lon="27.84025">
        <ele>183.402</ele>
      </trkpt>
      <trkpt lat="36.79316" lon="27.84017">
        <ele>185.026</ele>
      </trkpt>
      <trkpt lat="36.79296" lon="27.84002">
        <ele>185.603</ele>
      </trkpt>
      <trkpt lat="36.79262" lon="27.83984">
        <ele>184.49</ele>
      </trkpt>
      <trkpt lat="36.79235" lon="27.83984">
        <ele>181.811</ele>
      </trkpt>
      <trkpt lat="36.79204" lon="27.8398">
        <ele>178.336</ele>
      </trkpt>
      <trkpt lat="36.79178" lon="27.83956">
        <ele>175.845</ele>
      </trkpt>
      <trkpt lat="36.79162" lon="27.83965">
        <ele>172.438</ele>
      </trkpt>
      <trkpt lat="36.79158" lon="27.8397">
        <ele>171.141</ele>
      </trkpt>
      <trkpt lat="36.79134" lon="27.83997">
        <ele>168.206</ele>
      </trkpt>
      <trkpt lat="36.7913" lon="27.84003">
        <ele>168.548</ele>
      </trkpt>
      <trkpt lat="36.79115" lon="27.84008">
        <ele>167.806</ele>
      </trkpt>
      <trkpt lat="36.79113" lon="27.84003">
        <ele>166.684</ele>
      </trkpt>
      <trkpt lat="36.79095" lon="27.83994">
        <ele>166.248</ele>
      </trkpt>
      <trkpt lat="36.79073" lon="27.83977">
        <ele>166.718</ele>
      </trkpt>
      <trkpt lat="36.79061" lon="27.83971">
        <ele>167.345</ele>
      </trkpt>
      <trkpt lat="36.79047" lon="27.83941">
        <ele>165.52</ele>
      </trkpt>
      <trkpt lat="36.79036" lon="27.83905">
        <ele>164.932</ele>
      </trkpt>
      <trkpt lat="36.79015" lon="27.83895">
        <ele>164.063</ele>
      </trkpt>
      <trkpt lat="36.78991" lon="27.8389">
        <ele>163.051</ele>
      </trkpt>
      <trkpt lat="36.78979" lon="27.83892">
        <ele>163.124</ele>
      </trkpt>
      <trkpt lat="36.78962" lon="27.83901">
        <ele>163.811</ele>
      </trkpt>
      <trkpt lat="36.78959" lon="27.83899">
        <ele>163.838</ele>
      </trkpt>
      <trkpt lat="36.78949" lon="27.83895">
        <ele>164.05</ele>
      </trkpt>
      <trkpt lat="36.7892" lon="27.83878">
        <ele>164.459</ele>
      </trkpt>
      <trkpt lat="36.78899" lon="27.83862">
        <ele>163.074</ele>
      </trkpt>
      <trkpt lat="36.78865" lon="27.83854">
        <ele>162.946</ele>
      </trkpt>
      <trkpt lat="36.78859" lon="27.83858">
        <ele>161.717</ele>
      </trkpt>
      <trkpt lat="36.78847" lon="27.83865">
        <ele>159.409</ele>
      </trkpt>
      <trkpt lat="36.78821" lon="27.83858">
        <ele>157.719</ele>
      </trkpt>
      <trkpt lat="36.78809" lon="27.83842">
        <ele>159.018</ele>
      </trkpt>
      <trkpt lat="36.78791" lon="27.83838">
        <ele>158.104</ele>
      </trkpt>
      <trkpt lat="36.78766" lon="27.83832">
        <ele>156.847</ele>
      </trkpt>
      <trkpt lat="36.78752" lon="27.83822">
        <ele>155.697</ele>
      </trkpt>
      <trkpt lat="36.78732" lon="27.83814">
        <ele>151.425</ele>
      </trkpt>
      <trkpt lat="36.78722" lon="27.838">
        <ele>148.703</ele>
      </trkpt>
      <trkpt lat="36.78722" lon="27.838">
        <ele>148.703</ele>
      </trkpt>
      <trkpt lat="36.78713" lon="27.83789">
        <ele>145.93</ele>
      </trkpt>
      <trkpt lat="36.78701" lon="27.83768">
        <ele>142.457</ele>
      </trkpt>
      <trkpt lat="36.78699" lon="27.83752">
        <ele>141.453</ele>
      </trkpt>
      <trkpt lat="36.78695" lon="27.83734">
        <ele>141.359</ele>
      </trkpt>
      <trkpt lat="36.78695" lon="27.83711">
        <ele>143.984</ele>
      </trkpt>
      <trkpt lat="36.78695" lon="27.83708">
        <ele>144.35</ele>
      </trkpt>
      <trkpt lat="36.78689" lon="27.83691">
        <ele>144.825</ele>
      </trkpt>
      <trkpt lat="36.78668" lon="27.83667">
        <ele>141.422</ele>
      </trkpt>
      <trkpt lat="36.78658" lon="27.83655">
        <ele>142.37</ele>
      </trkpt>
      <trkpt lat="36.78642" lon="27.83642">
        <ele>143.578</ele>
      </trkpt>
      <trkpt lat="36.78633" lon="27.83647">
        <ele>141.195</ele>
      </trkpt>
      <trkpt lat="36.78622" lon="27.83655">
        <ele>138.255</ele>
      </trkpt>
      <trkpt lat="36.78608" lon="27.8366">
        <ele>136.22</ele>
      </trkpt>
      <trkpt lat="36.78598" lon="27.83666">
        <ele>134.815</ele>
      </trkpt>
      <trkpt lat="36.78586" lon="27.83668">
        <ele>134.62</ele>
      </trkpt>
      <trkpt lat="36.78574" lon="27.83669">
        <ele>133.986</ele>
      </trkpt>
      <trkpt lat="36.78557" lon="27.8367">
        <ele>132.702</ele>
      </trkpt>
      <trkpt lat="36.78528" lon="27.83676">
        <ele>130.342</ele>
      </trkpt>
      <trkpt lat="36.78504" lon="27.83688">
        <ele>125.931</ele>
      </trkpt>
      <trkpt lat="36.78479" lon="27.83697">
        <ele>122.592</ele>
      </trkpt>
      <trkpt lat="36.78472" lon="27.83696">
        <ele>121.314</ele>
      </trkpt>
      <trkpt lat="36.78449" lon="27.83675">
        <ele>119.007</ele>
      </trkpt>
      <trkpt lat="36.78432" lon="27.83656">
        <ele>115.529</ele>
      </trkpt>
      <trkpt lat="36.78415" lon="27.83625">
        <ele>109.497</ele>
      </trkpt>
      <trkpt lat="36.78412" lon="27.83607">
        <ele>108.266</ele>
      </trkpt>
      <trkpt lat="36.7841" lon="27.83591">
        <ele>108.459</ele>
      </trkpt>
      <trkpt lat="36.78403" lon="27.83577">
        <ele>107.493</ele>
      </trkpt>
      <trkpt lat="36.78393" lon="27.83566">
        <ele>105.295</ele>
      </trkpt>
      <trkpt lat="36.7838" lon="27.83559">
        <ele>103.103</ele>
      </trkpt>
      <trkpt lat="36.78376" lon="27.83558">
        <ele>102.422</ele>
      </trkpt>
      <trkpt lat="36.78361" lon="27.83541">
        <ele>101.598</ele>
      </trkpt>
      <trkpt lat="36.7836" lon="27.83504">
        <ele>107.303</ele>
      </trkpt>
      <trkpt lat="36.78365" lon="27.83475">
        <ele>115.244</ele>
      </trkpt>
      <trkpt lat="36.78365" lon="27.83473">
        <ele>115.542</ele>
      </trkpt>
      <trkpt lat="36.78357" lon="27.83471">
        <ele>114.697</ele>
      </trkpt>
      <trkpt lat="36.78343" lon="27.83483">
        <ele>110.216</ele>
      </trkpt>
      <trkpt lat="36.78327" lon="27.8351">
        <ele>104.575</ele>
      </trkpt>
      <trkpt lat="36.78328" lon="27.8351">
        <ele>104.593</ele>
      </trkpt>
      <trkpt lat="36.78328" lon="27.83509">
        <ele>104.773</ele>
      </trkpt>
      <trkpt lat="36.78327" lon="27.83511">
        <ele>104.494</ele>
      </trkpt>
      <trkpt lat="36.78325" lon="27.83511">
        <ele>104.407</ele>
      </trkpt>
      <trkpt lat="36.78312" lon="27.83511">
        <ele>104.452</ele>
      </trkpt>
      <trkpt lat="36.783" lon="27.83506">
        <ele>105.364</ele>
      </trkpt>
      <trkpt lat="36.78299" lon="27.83506">
        <ele>105.463</ele>
      </trkpt>
      <trkpt lat="36.78283" lon="27.83499">
        <ele>107.097</ele>
      </trkpt>
      <trkpt lat="36.78272" lon="27.83493">
        <ele>108.995</ele>
      </trkpt>
      <trkpt lat="36.78268" lon="27.83495">
        <ele>108.502</ele>
      </trkpt>
      <trkpt lat="36.78254" lon="27.83498">
        <ele>108.234</ele>
      </trkpt>
      <trkpt lat="36.78241" lon="27.83499">
        <ele>107.215</ele>
      </trkpt>
      <trkpt lat="36.78227" lon="27.83509">
        <ele>104.204</ele>
      </trkpt>
      <trkpt lat="36.78211" lon="27.83504">
        <ele>103.627</ele>
      </trkpt>
      <trkpt lat="36.78208" lon="27.83497">
        <ele>104.309</ele>
      </trkpt>
      <trkpt lat="36.78203" lon="27.83488">
        <ele>104.904</ele>
      </trkpt>
      <trkpt lat="36.78195" lon="27.83469">
        <ele>105.436</ele>
      </trkpt>
      <trkpt lat="36.78194" lon="27.83463">
        <ele>105.597</ele>
      </trkpt>
      <trkpt lat="36.78199" lon="27.83446">
        <ele>108.072</ele>
      </trkpt>
      <trkpt lat="36.782" lon="27.83431">
        <ele>109.359</ele>
      </trkpt>
      <trkpt lat="36.78195" lon="27.83411">
        <ele>109.424</ele>
      </trkpt>
      <trkpt lat="36.78189" lon="27.83399">
        <ele>107.809</ele>
      </trkpt>
      <trkpt lat="36.78182" lon="27.83383">
        <ele>105.754</ele>
      </trkpt>
      <trkpt lat="36.78173" lon="27.83371">
        <ele>102.5</ele>
      </trkpt>
      <trkpt lat="36.78168" lon="27.83369">
        <ele>100.701</ele>
      </trkpt>
      <trkpt lat="36.78161" lon="27.83364">
        <ele>98.922</ele>
      </trkpt>
      <trkpt lat="36.78157" lon="27.83349">
        <ele>97.431</ele>
      </trkpt>
      <trkpt lat="36.78157" lon="27.83347">
        <ele>97.394</ele>
      </trkpt>
      <trkpt lat="36.78166" lon="27.83333">
        <ele>97.908</ele>
      </trkpt>
      <trkpt lat="36.78167" lon="27.83318">
        <ele>97.528</ele>
      </trkpt>
      <trkpt lat="36.78169" lon="27.83297">
        <ele>96.901</ele>
      </trkpt>
      <trkpt lat="36.7818" lon="27.83284">
        <ele>98.4</ele>
      </trkpt>
      <trkpt lat="36.78191" lon="27.83279">
        <ele>100.218</ele>
      </trkpt>
      <trkpt lat="36.78197" lon="27.83266">
        <ele>102.237</ele>
      </trkpt>
      <trkpt lat="36.78197" lon="27.83264">
        <ele>102.233</ele>
      </trkpt>
      <trkpt lat="36.78186" lon="27.8325">
        <ele>99.769</ele>
      </trkpt>
      <trkpt lat="36.78184" lon="27.83236">
        <ele>100.327</ele>
      </trkpt>
      <trkpt lat="36.78183" lon="27.83233">
        <ele>100.348</ele>
      </trkpt>
      <trkpt lat="36.78181" lon="27.83229">
        <ele>100.127</ele>
      </trkpt>
      <trkpt lat="36.78181" lon="27.83226">
        <ele>100.182</ele>
      </trkpt>
      <trkpt lat="36.78183" lon="27.83208">
        <ele>102.185</ele>
      </trkpt>
      <trkpt lat="36.78182" lon="27.83204">
        <ele>102.081</ele>
      </trkpt>
      <trkpt lat="36.78166" lon="27.83196">
        <ele>97.822</ele>
      </trkpt>
      <trkpt lat="36.78157" lon="27.83183">
        <ele>95.903</ele>
      </trkpt>
      <trkpt lat="36.78153" lon="27.83166">
        <ele>95.054</ele>
      </trkpt>
      <trkpt lat="36.78152" lon="27.83151">
        <ele>94.795</ele>
      </trkpt>
      <trkpt lat="36.78155" lon="27.83132">
        <ele>95.312</ele>
      </trkpt>
      <trkpt lat="36.78162" lon="27.83113">
        <ele>96.3</ele>
      </trkpt>
      <trkpt lat="36.78163" lon="27.83101">
        <ele>96.684</ele>
      </trkpt>
      <trkpt lat="36.78158" lon="27.83085">
        <ele>96.386</ele>
      </trkpt>
      <trkpt lat="36.78151" lon="27.83067">
        <ele>96.339</ele>
      </trkpt>
      <trkpt lat="36.78146" lon="27.83053">
        <ele>96.211</ele>
      </trkpt>
      <trkpt lat="36.78144" lon="27.83039">
        <ele>95.587</ele>
      </trkpt>
      <trkpt lat="36.78142" lon="27.83018">
        <ele>94.369</ele>
      </trkpt>
      <trkpt lat="36.78138" lon="27.83001">
        <ele>92.875</ele>
      </trkpt>
      <trkpt lat="36.78137" lon="27.82982">
        <ele>91.443</ele>
      </trkpt>
      <trkpt lat="36.78144" lon="27.8296">
        <ele>91.277</ele>
      </trkpt>
      <trkpt lat="36.78151" lon="27.82946">
        <ele>91.734</ele>
      </trkpt>
      <trkpt lat="36.78161" lon="27.82935">
        <ele>95.136</ele>
      </trkpt>
      <trkpt lat="36.7817" lon="27.82923">
        <ele>97.954</ele>
      </trkpt>
      <trkpt lat="36.78177" lon="27.82909">
        <ele>101.124</ele>
      </trkpt>
      <trkpt lat="36.78176" lon="27.82908">
        <ele>101.21</ele>
      </trkpt>
      <trkpt lat="36.78155" lon="27.8291">
        <ele>98.428</ele>
      </trkpt>
      <trkpt lat="36.78139" lon="27.82901">
        <ele>99.423</ele>
      </trkpt>
      <trkpt lat="36.78125" lon="27.82896">
        <ele>100.419</ele>
      </trkpt>
      <trkpt lat="36.78125" lon="27.82891">
        <ele>101.923</ele>
      </trkpt>
      <trkpt lat="36.78124" lon="27.82889">
        <ele>102.394</ele>
      </trkpt>
      <trkpt lat="36.78122" lon="27.82889">
        <ele>102.445</ele>
      </trkpt>
      <trkpt lat="36.78108" lon="27.82884">
        <ele>102.649</ele>
      </trkpt>
      <trkpt lat="36.78106" lon="27.8288">
        <ele>103.101</ele>
      </trkpt>
      <trkpt lat="36.781" lon="27.82869">
        <ele>104.441</ele>
      </trkpt>
      <trkpt lat="36.78097" lon="27.82856">
        <ele>106.188</ele>
      </trkpt>
      <trkpt lat="36.781" lon="27.82852">
        <ele>107.194</ele>
      </trkpt>
      <trkpt lat="36.78099" lon="27.82851">
        <ele>107.248</ele>
      </trkpt>
      <trkpt lat="36.78095" lon="27.82842">
        <ele>107.904</ele>
      </trkpt>
      <trkpt lat="36.78093" lon="27.82835">
        <ele>108.555</ele>
      </trkpt>
      <trkpt lat="36.78091" lon="27.82828">
        <ele>109.391</ele>
      </trkpt>
      <trkpt lat="36.78091" lon="27.82823">
        <ele>110.105</ele>
      </trkpt>
      <trkpt lat="36.78088" lon="27.82811">
        <ele>111.835</ele>
      </trkpt>
      <trkpt lat="36.78088" lon="27.82803">
        <ele>113.207</ele>
      </trkpt>
      <trkpt lat="36.78087" lon="27.82801">
        <ele>113.206</ele>
      </trkpt>
      <trkpt lat="36.78083" lon="27.82798">
        <ele>112.928</ele>
      </trkpt>
      <trkpt lat="36.78076" lon="27.82786">
        <ele>112.984</ele>
      </trkpt>
      <trkpt lat="36.78075" lon="27.82774">
        <ele>114.396</ele>
      </trkpt>
      <trkpt lat="36.78076" lon="27.82761">
        <ele>116.644</ele>
      </trkpt>
      <trkpt lat="36.78074" lon="27.82757">
        <ele>117.019</ele>
      </trkpt>
      <trkpt lat="36.78074" lon="27.82757">
        <ele>117.019</ele>
      </trkpt>
      <trkpt lat="36.78071" lon="27.82741">
        <ele>117.639</ele>
      </trkpt>
      <trkpt lat="36.7807" lon="27.82734">
        <ele>117.643</ele>
      </trkpt>
      <trkpt lat="36.78071" lon="27.82728">
        <ele>118.158</ele>
      </trkpt>
      <trkpt lat="36.78078" lon="27.82716">
        <ele>119.65</ele>
      </trkpt>
      <trkpt lat="36.78081" lon="27.82708">
        <ele>119.952</ele>
      </trkpt>
      <trkpt lat="36.78087" lon="27.82696">
        <ele>121.364</ele>
      </trkpt>
      <trkpt lat="36.78095" lon="27.82682">
        <ele>125.276</ele>
      </trkpt>
      <trkpt lat="36.78096" lon="27.8267">
        <ele>126.746</ele>
      </trkpt>
      <trkpt lat="36.78096" lon="27.82661">
        <ele>128.607</ele>
      </trkpt>
      <trkpt lat="36.78095" lon="27.82649">
        <ele>131.856</ele>
      </trkpt>
      <trkpt lat="36.78085" lon="27.82641">
        <ele>130.895</ele>
      </trkpt>
      <trkpt lat="36.78075" lon="27.82634">
        <ele>130.213</ele>
      </trkpt>
      <trkpt lat="36.78073" lon="27.82631">
        <ele>130.658</ele>
      </trkpt>
      <trkpt lat="36.78067" lon="27.82623">
        <ele>132.593</ele>
      </trkpt>
      <trkpt lat="36.78059" lon="27.82622">
        <ele>129.983</ele>
      </trkpt>
      <trkpt lat="36.7805" lon="27.82614">
        <ele>130.115</ele>
      </trkpt>
      <trkpt lat="36.78045" lon="27.82605">
        <ele>131.541</ele>
      </trkpt>
      <trkpt lat="36.78041" lon="27.82591">
        <ele>136.02</ele>
      </trkpt>
      <trkpt lat="36.78034" lon="27.82578">
        <ele>137.234</ele>
      </trkpt>
      <trkpt lat="36.78026" lon="27.82568">
        <ele>136.11</ele>
      </trkpt>
      <trkpt lat="36.78025" lon="27.82567">
        <ele>135.863</ele>
      </trkpt>
      <trkpt lat="36.78018" lon="27.82557">
        <ele>134.656</ele>
      </trkpt>
      <trkpt lat="36.7801" lon="27.82547">
        <ele>133.152</ele>
      </trkpt>
      <trkpt lat="36.78005" lon="27.82541">
        <ele>132.671</ele>
      </trkpt>
      <trkpt lat="36.78002" lon="27.82535">
        <ele>132.835</ele>
      </trkpt>
      <trkpt lat="36.77997" lon="27.82531">
        <ele>132.221</ele>
      </trkpt>
      <trkpt lat="36.77995" lon="27.82524">
        <ele>133.337</ele>
      </trkpt>
      <trkpt lat="36.77993" lon="27.82522">
        <ele>133.463</ele>
      </trkpt>
      <trkpt lat="36.77987" lon="27.82515">
        <ele>133.589</ele>
      </trkpt>
      <trkpt lat="36.77978" lon="27.82502">
        <ele>135.437</ele>
      </trkpt>
      <trkpt lat="36.7797" lon="27.82487">
        <ele>135.871</ele>
      </trkpt>
      <trkpt lat="36.77968" lon="27.82483">
        <ele>136.051</ele>
      </trkpt>
      <trkpt lat="36.77963" lon="27.82464">
        <ele>139.277</ele>
      </trkpt>
      <trkpt lat="36.77955" lon="27.8246">
        <ele>138.783</ele>
      </trkpt>
      <trkpt lat="36.77954" lon="27.82461">
        <ele>138.209</ele>
      </trkpt>
      <trkpt lat="36.7795" lon="27.82459">
        <ele>137.84</ele>
      </trkpt>
      <trkpt lat="36.77942" lon="27.82449">
        <ele>139.211</ele>
      </trkpt>
      <trkpt lat="36.77942" lon="27.82449">
        <ele>139.061</ele>
      </trkpt>
      <trkpt lat="36.77931" lon="27.82445">
        <ele>137.382</ele>
      </trkpt>
      <trkpt lat="36.77928" lon="27.82445">
        <ele>136.861</ele>
      </trkpt>
      <trkpt lat="36.77919" lon="27.82439">
        <ele>136.24</ele>
      </trkpt>
      <trkpt lat="36.77915" lon="27.82435">
        <ele>136.437</ele>
      </trkpt>
      <trkpt lat="36.77908" lon="27.82427">
        <ele>137.132</ele>
      </trkpt>
      <trkpt lat="36.77901" lon="27.82423">
        <ele>136.731</ele>
      </trkpt>
      <trkpt lat="36.77901" lon="27.8242">
        <ele>137.186</ele>
      </trkpt>
      <trkpt lat="36.77898" lon="27.82418">
        <ele>136.884</ele>
      </trkpt>
      <trkpt lat="36.77892" lon="27.82407">
        <ele>137.596</ele>
      </trkpt>
      <trkpt lat="36.77885" lon="27.82396">
        <ele>137.726</ele>
      </trkpt>
      <trkpt lat="36.77883" lon="27.82389">
        <ele>138.275</ele>
      </trkpt>
      <trkpt lat="36.77879" lon="27.82377">
        <ele>139.144</ele>
      </trkpt>
      <trkpt lat="36.77879" lon="27.82372">
        <ele>139.934</ele>
      </trkpt>
      <trkpt lat="36.77877" lon="27.8237">
        <ele>139.831</ele>
      </trkpt>
      <trkpt lat="36.77872" lon="27.82359">
        <ele>139.647</ele>
      </trkpt>
      <trkpt lat="36.77871" lon="27.82343">
        <ele>140.026</ele>
      </trkpt>
      <trkpt lat="36.77869" lon="27.82333">
        <ele>139.784</ele>
      </trkpt>
      <trkpt lat="36.77868" lon="27.82331">
        <ele>139.806</ele>
      </trkpt>
      <trkpt lat="36.77865" lon="27.82313">
        <ele>139.799</ele>
      </trkpt>
      <trkpt lat="36.77862" lon="27.82298">
        <ele>139.699</ele>
      </trkpt>
      <trkpt lat="36.77859" lon="27.82282">
        <ele>138.993</ele>
      </trkpt>
      <trkpt lat="36.77856" lon="27.82268">
        <ele>137.451</ele>
      </trkpt>
      <trkpt lat="36.77852" lon="27.82251">
        <ele>134.717</ele>
      </trkpt>
      <trkpt lat="36.7785" lon="27.82231">
        <ele>130.97</ele>
      </trkpt>
      <trkpt lat="36.77852" lon="27.82215">
        <ele>129.771</ele>
      </trkpt>
      <trkpt lat="36.77857" lon="27.82201">
        <ele>130.804</ele>
      </trkpt>
      <trkpt lat="36.77859" lon="27.82192">
        <ele>130.747</ele>
      </trkpt>
      <trkpt lat="36.77862" lon="27.82178">
        <ele>131.127</ele>
      </trkpt>
      <trkpt lat="36.77866" lon="27.8216">
        <ele>131.224</ele>
      </trkpt>
      <trkpt lat="36.77873" lon="27.82152">
        <ele>132.206</ele>
      </trkpt>
      <trkpt lat="36.77881" lon="27.82137">
        <ele>132.041</ele>
      </trkpt>
      <trkpt lat="36.77887" lon="27.82118">
        <ele>131.984</ele>
      </trkpt>
      <trkpt lat="36.7789" lon="27.82107">
        <ele>132.289</ele>
      </trkpt>
      <trkpt lat="36.77891" lon="27.82103">
        <ele>132.418</ele>
      </trkpt>
      <trkpt lat="36.77882" lon="27.82089">
        <ele>130.398</ele>
      </trkpt>
      <trkpt lat="36.7788" lon="27.82089">
        <ele>129.985</ele>
      </trkpt>
      <trkpt lat="36.7788" lon="27.8209">
        <ele>130.075</ele>
      </trkpt>
      <trkpt lat="36.77875" lon="27.82085">
        <ele>128.89</ele>
      </trkpt>
      <trkpt lat="36.77869" lon="27.82066">
        <ele>130.78</ele>
      </trkpt>
      <trkpt lat="36.77864" lon="27.82049">
        <ele>132.814</ele>
      </trkpt>
      <trkpt lat="36.77863" lon="27.82047">
        <ele>133.24</ele>
      </trkpt>
      <trkpt lat="36.77862" lon="27.82037">
        <ele>135.24</ele>
      </trkpt>
      <trkpt lat="36.77861" lon="27.8202">
        <ele>137.558</ele>
      </trkpt>
      <trkpt lat="36.77864" lon="27.82002">
        <ele>139.1</ele>
      </trkpt>
      <trkpt lat="36.77867" lon="27.8198">
        <ele>139.073</ele>
      </trkpt>
      <trkpt lat="36.77878" lon="27.81964">
        <ele>139.951</ele>
      </trkpt>
      <trkpt lat="36.77886" lon="27.81948">
        <ele>139.929</ele>
      </trkpt>
      <trkpt lat="36.77892" lon="27.81923">
        <ele>140.615</ele>
      </trkpt>
      <trkpt lat="36.77897" lon="27.819">
        <ele>141.635</ele>
      </trkpt>
      <trkpt lat="36.77899" lon="27.81883">
        <ele>141.959</ele>
      </trkpt>
      <trkpt lat="36.779" lon="27.81862">
        <ele>142.559</ele>
      </trkpt>
      <trkpt lat="36.779" lon="27.81848">
        <ele>144.668</ele>
      </trkpt>
      <trkpt lat="36.77895" lon="27.81826">
        <ele>146.492</ele>
      </trkpt>
      <trkpt lat="36.77893" lon="27.81811">
        <ele>149.041</ele>
      </trkpt>
      <trkpt lat="36.77891" lon="27.81796">
        <ele>150.775</ele>
      </trkpt>
      <trkpt lat="36.77887" lon="27.8178">
        <ele>151</ele>
      </trkpt>
      <trkpt lat="36.77885" lon="27.81761">
        <ele>151.684</ele>
      </trkpt>
      <trkpt lat="36.7788" lon="27.81741">
        <ele>152.35</ele>
      </trkpt>
      <trkpt lat="36.77879" lon="27.81728">
        <ele>153.942</ele>
      </trkpt>
      <trkpt lat="36.77877" lon="27.8172">
        <ele>154.656</ele>
      </trkpt>
      <trkpt lat="36.77878" lon="27.81705">
        <ele>156.23</ele>
      </trkpt>
      <trkpt lat="36.77879" lon="27.81697">
        <ele>157.36</ele>
      </trkpt>
      <trkpt lat="36.7788" lon="27.81697">
        <ele>157.67</ele>
      </trkpt>
      <trkpt lat="36.7787" lon="27.81688">
        <ele>153.753</ele>
      </trkpt>
      <trkpt lat="36.77868" lon="27.81686">
        <ele>152.949</ele>
      </trkpt>
      <trkpt lat="36.77859" lon="27.8168">
        <ele>149.385</ele>
      </trkpt>
      <trkpt lat="36.77858" lon="27.81669">
        <ele>148.152</ele>
      </trkpt>
      <trkpt lat="36.77859" lon="27.81653">
        <ele>147.408</ele>
      </trkpt>
      <trkpt lat="36.77861" lon="27.81639">
        <ele>146.794</ele>
      </trkpt>
      <trkpt lat="36.77859" lon="27.8163">
        <ele>146.684</ele>
      </trkpt>
      <trkpt lat="36.77859" lon="27.81628">
        <ele>146.514</ele>
      </trkpt>
      <trkpt lat="36.77856" lon="27.81623">
        <ele>145.75</ele>
      </trkpt>
      <trkpt lat="36.77854" lon="27.81621">
        <ele>145.05</ele>
      </trkpt>
      <trkpt lat="36.7785" lon="27.81614">
        <ele>143.897</ele>
      </trkpt>
      <trkpt lat="36.77849" lon="27.81613">
        <ele>143.696</ele>
      </trkpt>
      <trkpt lat="36.77844" lon="27.81602">
        <ele>142.137</ele>
      </trkpt>
      <trkpt lat="36.77838" lon="27.81591">
        <ele>140.357</ele>
      </trkpt>
      <trkpt lat="36.77834" lon="27.81578">
        <ele>139.13</ele>
      </trkpt>
      <trkpt lat="36.77826" lon="27.81576">
        <ele>136.494</ele>
      </trkpt>
      <trkpt lat="36.77825" lon="27.81576">
        <ele>135.885</ele>
      </trkpt>
      <trkpt lat="36.77814" lon="27.81576">
        <ele>132.587</ele>
      </trkpt>
      <trkpt lat="36.77814" lon="27.81576">
        <ele>132.587</ele>
      </trkpt>
      <trkpt lat="36.77814" lon="27.81576">
        <ele>132.587</ele>
      </trkpt>
      <trkpt lat="36.77814" lon="27.81576">
        <ele>132.587</ele>
      </trkpt>
      <trkpt lat="36.77814" lon="27.81575">
        <ele>132.536</ele>
      </trkpt>
      <trkpt lat="36.77814" lon="27.81575">
        <ele>132.378</ele>
      </trkpt>
      <trkpt lat="36.77814" lon="27.81573">
        <ele>132.39</ele>
      </trkpt>
      <trkpt lat="36.77815" lon="27.81572">
        <ele>132.516</ele>
      </trkpt>
      <trkpt lat="36.77815" lon="27.81571">
        <ele>132.65</ele>
      </trkpt>
      <trkpt lat="36.77816" lon="27.8157">
        <ele>132.767</ele>
      </trkpt>
      <trkpt lat="36.77816" lon="27.81568">
        <ele>132.932</ele>
      </trkpt>
      <trkpt lat="36.77817" lon="27.81567">
        <ele>133.142</ele>
      </trkpt>
      <trkpt lat="36.77818" lon="27.81567">
        <ele>133.376</ele>
      </trkpt>
      <trkpt lat="36.77819" lon="27.81566">
        <ele>133.717</ele>
      </trkpt>
      <trkpt lat="36.7782" lon="27.81566">
        <ele>134.02</ele>
      </trkpt>
      <trkpt lat="36.77821" lon="27.81565">
        <ele>134.29</ele>
      </trkpt>
      <trkpt lat="36.77822" lon="27.81564">
        <ele>134.62</ele>
      </trkpt>
      <trkpt lat="36.77823" lon="27.81562">
        <ele>134.931</ele>
      </trkpt>
      <trkpt lat="36.77825" lon="27.8156">
        <ele>135.342</ele>
      </trkpt>
      <trkpt lat="36.77825" lon="27.81559">
        <ele>135.532</ele>
      </trkpt>
      <trkpt lat="36.77827" lon="27.81557">
        <ele>135.856</ele>
      </trkpt>
      <trkpt lat="36.77827" lon="27.81557">
        <ele>135.823</ele>
      </trkpt>
      <trkpt lat="36.77828" lon="27.81539">
        <ele>134.525</ele>
      </trkpt>
      <trkpt lat="36.77831" lon="27.81527">
        <ele>134.111</ele>
      </trkpt>
      <trkpt lat="36.7783" lon="27.81525">
        <ele>133.884</ele>
      </trkpt>
      <trkpt lat="36.77832" lon="27.81509">
        <ele>133.026</ele>
      </trkpt>
      <trkpt lat="36.77831" lon="27.81504">
        <ele>132.576</ele>
      </trkpt>
      <trkpt lat="36.77832" lon="27.81496">
        <ele>131.583</ele>
      </trkpt>
      <trkpt lat="36.77832" lon="27.81485">
        <ele>129.472</ele>
      </trkpt>
      <trkpt lat="36.77835" lon="27.81477">
        <ele>128.686</ele>
      </trkpt>
      <trkpt lat="36.77832" lon="27.81467">
        <ele>126.212</ele>
      </trkpt>
      <trkpt lat="36.77834" lon="27.81456">
        <ele>125.259</ele>
      </trkpt>
      <trkpt lat="36.77835" lon="27.81443">
        <ele>123.994</ele>
      </trkpt>
      <trkpt lat="36.77837" lon="27.8143">
        <ele>121.587</ele>
      </trkpt>
      <trkpt lat="36.77838" lon="27.81417">
        <ele>119.438</ele>
      </trkpt>
      <trkpt lat="36.77846" lon="27.81396">
        <ele>117.362</ele>
      </trkpt>
      <trkpt lat="36.77845" lon="27.81394">
        <ele>117.001</ele>
      </trkpt>
      <trkpt lat="36.77847" lon="27.81391">
        <ele>116.798</ele>
      </trkpt>
      <trkpt lat="36.77847" lon="27.8139">
        <ele>116.806</ele>
      </trkpt>
      <trkpt lat="36.7785" lon="27.81384">
        <ele>116.992</ele>
      </trkpt>
      <trkpt lat="36.77857" lon="27.81373">
        <ele>118.543</ele>
      </trkpt>
      <trkpt lat="36.77859" lon="27.81361">
        <ele>118.502</ele>
      </trkpt>
      <trkpt lat="36.77852" lon="27.81355">
        <ele>117.594</ele>
      </trkpt>
      <trkpt lat="36.77842" lon="27.81345">
        <ele>117.205</ele>
      </trkpt>
      <trkpt lat="36.77836" lon="27.81345">
        <ele>116.244</ele>
      </trkpt>
      <trkpt lat="36.77826" lon="27.81345">
        <ele>115.605</ele>
      </trkpt>
      <trkpt lat="36.7781" lon="27.81334">
        <ele>116.165</ele>
      </trkpt>
      <trkpt lat="36.77796" lon="27.8132">
        <ele>116.926</ele>
      </trkpt>
      <trkpt lat="36.77787" lon="27.81315">
        <ele>116.901</ele>
      </trkpt>
      <trkpt lat="36.7778" lon="27.81299">
        <ele>117.9</ele>
      </trkpt>
      <trkpt lat="36.77771" lon="27.81278">
        <ele>118.933</ele>
      </trkpt>
      <trkpt lat="36.77766" lon="27.8126">
        <ele>118.978</ele>
      </trkpt>
      <trkpt lat="36.77766" lon="27.81258">
        <ele>118.953</ele>
      </trkpt>
      <trkpt lat="36.77762" lon="27.81239">
        <ele>118.667</ele>
      </trkpt>
      <trkpt lat="36.77763" lon="27.8121">
        <ele>118.676</ele>
      </trkpt>
      <trkpt lat="36.77763" lon="27.81192">
        <ele>118.356</ele>
      </trkpt>
      <trkpt lat="36.77766" lon="27.81177">
        <ele>118.714</ele>
      </trkpt>
      <trkpt lat="36.77769" lon="27.81161">
        <ele>118.815</ele>
      </trkpt>
      <trkpt lat="36.7777" lon="27.81143">
        <ele>118.299</ele>
      </trkpt>
      <trkpt lat="36.77773" lon="27.81127">
        <ele>117.641</ele>
      </trkpt>
      <trkpt lat="36.77776" lon="27.8111">
        <ele>116.873</ele>
      </trkpt>
      <trkpt lat="36.77777" lon="27.81094">
        <ele>116.96</ele>
      </trkpt>
      <trkpt lat="36.7778" lon="27.81077">
        <ele>117.228</ele>
      </trkpt>
      <trkpt lat="36.77784" lon="27.81058">
        <ele>117.624</ele>
      </trkpt>
      <trkpt lat="36.77784" lon="27.81057">
        <ele>117.673</ele>
      </trkpt>
      <trkpt lat="36.77795" lon="27.81043">
        <ele>118.817</ele>
      </trkpt>
      <trkpt lat="36.77805" lon="27.81035">
        <ele>119.955</ele>
      </trkpt>
      <trkpt lat="36.77805" lon="27.81018">
        <ele>119.977</ele>
      </trkpt>
      <trkpt lat="36.77806" lon="27.81015">
        <ele>119.991</ele>
      </trkpt>
      <trkpt lat="36.77806" lon="27.81015">
        <ele>119.991</ele>
      </trkpt>
      <trkpt lat="36.77806" lon="27.81015">
        <ele>119.99</ele>
      </trkpt>
      <trkpt lat="36.77805" lon="27.81015">
        <ele>119.988</ele>
      </trkpt>
      <trkpt lat="36.77806" lon="27.81015">
        <ele>119.99</ele>
      </trkpt>
      <trkpt lat="36.77806" lon="27.81015">
        <ele>119.99</ele>
      </trkpt>
      <trkpt lat="36.77806" lon="27.81015">
        <ele>119.99</ele>
      </trkpt>
      <trkpt lat="36.77805" lon="27.81014">
        <ele>119.987</ele>
      </trkpt>
      <trkpt lat="36.77805" lon="27.81014">
        <ele>119.986</ele>
      </trkpt>
      <trkpt lat="36.77805" lon="27.81014">
        <ele>119.982</ele>
      </trkpt>
      <trkpt lat="36.77805" lon="27.81014">
        <ele>119.981</ele>
      </trkpt>
      <trkpt lat="36.77806" lon="27.81012">
        <ele>120.006</ele>
      </trkpt>
      <trkpt lat="36.77801" lon="27.81007">
        <ele>119.49</ele>
      </trkpt>
      <trkpt lat="36.77803" lon="27.80995">
        <ele>120.035</ele>
      </trkpt>
      <trkpt lat="36.77804" lon="27.80993">
        <ele>120.313</ele>
      </trkpt>
      <trkpt lat="36.77804" lon="27.80991">
        <ele>120.433</ele>
      </trkpt>
      <trkpt lat="36.77804" lon="27.8099">
        <ele>120.537</ele>
      </trkpt>
      <trkpt lat="36.77804" lon="27.8099">
        <ele>120.477</ele>
      </trkpt>
      <trkpt lat="36.77804" lon="27.8099">
        <ele>120.485</ele>
      </trkpt>
      <trkpt lat="36.77804" lon="27.8099">
        <ele>120.473</ele>
      </trkpt>
      <trkpt lat="36.77804" lon="27.8099">
        <ele>120.469</ele>
      </trkpt>
      <trkpt lat="36.77804" lon="27.8099">
        <ele>120.459</ele>
      </trkpt>
      <trkpt lat="36.77804" lon="27.8099">
        <ele>120.453</ele>
      </trkpt>
      <trkpt lat="36.77803" lon="27.8099">
        <ele>120.448</ele>
      </trkpt>
      <trkpt lat="36.77803" lon="27.8099">
        <ele>120.434</ele>
      </trkpt>
      <trkpt lat="36.77803" lon="27.80989">
        <ele>120.433</ele>
      </trkpt>
      <trkpt lat="36.77803" lon="27.80989">
        <ele>120.426</ele>
      </trkpt>
      <trkpt lat="36.77803" lon="27.80989">
        <ele>120.445</ele>
      </trkpt>
      <trkpt lat="36.77803" lon="27.80989">
        <ele>120.446</ele>
      </trkpt>
      <trkpt lat="36.77802" lon="27.80978">
        <ele>120.926</ele>
      </trkpt>
      <trkpt lat="36.77804" lon="27.80961">
        <ele>123.114</ele>
      </trkpt>
      <trkpt lat="36.778" lon="27.80951">
        <ele>123.268</ele>
      </trkpt>
      <trkpt lat="36.77799" lon="27.80944">
        <ele>123.74</ele>
      </trkpt>
      <trkpt lat="36.77799" lon="27.80944">
        <ele>123.74</ele>
      </trkpt>
      <trkpt lat="36.77799" lon="27.80944">
        <ele>123.737</ele>
      </trkpt>
      <trkpt lat="36.77799" lon="27.80944">
        <ele>123.734</ele>
      </trkpt>
      <trkpt lat="36.77799" lon="27.80944">
        <ele>123.73</ele>
      </trkpt>
      <trkpt lat="36.77799" lon="27.80944">
        <ele>123.73</ele>
      </trkpt>
      <trkpt lat="36.77799" lon="27.80944">
        <ele>123.727</ele>
      </trkpt>
      <trkpt lat="36.77799" lon="27.80944">
        <ele>123.727</ele>
      </trkpt>
      <trkpt lat="36.77799" lon="27.80944">
        <ele>123.727</ele>
      </trkpt>
      <trkpt lat="36.77799" lon="27.80944">
        <ele>123.723</ele>
      </trkpt>
      <trkpt lat="36.77799" lon="27.80944">
        <ele>123.723</ele>
      </trkpt>
      <trkpt lat="36.77799" lon="27.80944">
        <ele>123.724</ele>
      </trkpt>
      <trkpt lat="36.77799" lon="27.80944">
        <ele>123.741</ele>
      </trkpt>
      <trkpt lat="36.77799" lon="27.80944">
        <ele>123.733</ele>
      </trkpt>
      <trkpt lat="36.77799" lon="27.80944">
        <ele>123.72</ele>
      </trkpt>
      <trkpt lat="36.77798" lon="27.80944">
        <ele>123.715</ele>
      </trkpt>
      <trkpt lat="36.77798" lon="27.80944">
        <ele>123.718</ele>
      </trkpt>
      <trkpt lat="36.77798" lon="27.80944">
        <ele>123.715</ele>
      </trkpt>
      <trkpt lat="36.77798" lon="27.80944">
        <ele>123.7</ele>
      </trkpt>
      <trkpt lat="36.77798" lon="27.80944">
        <ele>123.698</ele>
      </trkpt>
      <trkpt lat="36.77798" lon="27.80944">
        <ele>123.706</ele>
      </trkpt>
      <trkpt lat="36.77798" lon="27.80944">
        <ele>123.708</ele>
      </trkpt>
      <trkpt lat="36.77798" lon="27.80944">
        <ele>123.705</ele>
      </trkpt>
      <trkpt lat="36.77798" lon="27.80944">
        <ele>123.682</ele>
      </trkpt>
      <trkpt lat="36.77798" lon="27.80944">
        <ele>123.678</ele>
      </trkpt>
      <trkpt lat="36.77798" lon="27.80944">
        <ele>123.681</ele>
      </trkpt>
      <trkpt lat="36.77798" lon="27.80944">
        <ele>123.68</ele>
      </trkpt>
      <trkpt lat="36.77798" lon="27.80944">
        <ele>123.674</ele>
      </trkpt>
      <trkpt lat="36.77798" lon="27.80944">
        <ele>123.664</ele>
      </trkpt>
      <trkpt lat="36.77798" lon="27.80944">
        <ele>123.658</ele>
      </trkpt>
      <trkpt lat="36.77798" lon="27.80944">
        <ele>123.658</ele>
      </trkpt>
      <trkpt lat="36.77798" lon="27.80944">
        <ele>123.658</ele>
      </trkpt>
      <trkpt lat="36.77793" lon="27.80933">
        <ele>122.981</ele>
      </trkpt>
      <trkpt lat="36.77787" lon="27.80928">
        <ele>121.701</ele>
      </trkpt>
      <trkpt lat="36.77779" lon="27.8091">
        <ele>122.103</ele>
      </trkpt>
      <trkpt lat="36.77777" lon="27.80903">
        <ele>122.426</ele>
      </trkpt>
      <trkpt lat="36.77777" lon="27.80895">
        <ele>123.249</ele>
      </trkpt>
      <trkpt lat="36.77775" lon="27.80888">
        <ele>123.672</ele>
      </trkpt>
      <trkpt lat="36.77773" lon="27.80881">
        <ele>124.717</ele>
      </trkpt>
      <trkpt lat="36.77772" lon="27.80881">
        <ele>124.385</ele>
      </trkpt>
      <trkpt lat="36.77772" lon="27.80881">
        <ele>124.409</ele>
      </trkpt>
      <trkpt lat="36.77771" lon="27.8088">
        <ele>124.382</ele>
      </trkpt>
      <trkpt lat="36.77771" lon="27.80881">
        <ele>124.31</ele>
      </trkpt>
      <trkpt lat="36.7777" lon="27.80882">
        <ele>123.961</ele>
      </trkpt>
      <trkpt lat="36.7777" lon="27.80882">
        <ele>123.886</ele>
      </trkpt>
      <trkpt lat="36.7777" lon="27.80882">
        <ele>123.871</ele>
      </trkpt>
      <trkpt lat="36.7777" lon="27.80882">
        <ele>123.861</ele>
      </trkpt>
      <trkpt lat="36.7777" lon="27.80882">
        <ele>123.86</ele>
      </trkpt>
      <trkpt lat="36.7777" lon="27.80882">
        <ele>123.857</ele>
      </trkpt>
      <trkpt lat="36.7777" lon="27.80882">
        <ele>123.859</ele>
      </trkpt>
      <trkpt lat="36.7777" lon="27.80882">
        <ele>123.835</ele>
      </trkpt>
      <trkpt lat="36.77767" lon="27.80872">
        <ele>124.93</ele>
      </trkpt>
      <trkpt lat="36.77765" lon="27.80867">
        <ele>125.411</ele>
      </trkpt>
      <trkpt lat="36.77766" lon="27.80865">
        <ele>125.786</ele>
      </trkpt>
      <trkpt lat="36.77761" lon="27.80862">
        <ele>125.008</ele>
      </trkpt>
      <trkpt lat="36.77758" lon="27.80857">
        <ele>124.733</ele>
      </trkpt>
      <trkpt lat="36.77752" lon="27.80852">
        <ele>123.708</ele>
      </trkpt>
      <trkpt lat="36.7775" lon="27.80849">
        <ele>123.442</ele>
      </trkpt>
      <trkpt lat="36.77747" lon="27.80844">
        <ele>123.045</ele>
      </trkpt>
      <trkpt lat="36.77746" lon="27.80833">
        <ele>123.779</ele>
      </trkpt>
      <trkpt lat="36.77743" lon="27.80828">
        <ele>123.796</ele>
      </trkpt>
      <trkpt lat="36.77744" lon="27.80824">
        <ele>124.388</ele>
      </trkpt>
      <trkpt lat="36.77739" lon="27.80823">
        <ele>122.985</ele>
      </trkpt>
      <trkpt lat="36.77737" lon="27.80821">
        <ele>122.737</ele>
      </trkpt>
      <trkpt lat="36.77734" lon="27.80815">
        <ele>122.249</ele>
      </trkpt>
      <trkpt lat="36.77732" lon="27.80814">
        <ele>121.645</ele>
      </trkpt>
      <trkpt lat="36.77729" lon="27.80811">
        <ele>120.992</ele>
      </trkpt>
      <trkpt lat="36.77727" lon="27.80808">
        <ele>120.478</ele>
      </trkpt>
      <trkpt lat="36.77721" lon="27.80804">
        <ele>118.984</ele>
      </trkpt>
      <trkpt lat="36.77721" lon="27.80803">
        <ele>119.102</ele>
      </trkpt>
      <trkpt lat="36.7772" lon="27.80797">
        <ele>119.524</ele>
      </trkpt>
      <trkpt lat="36.7772" lon="27.80791">
        <ele>120.336</ele>
      </trkpt>
      <trkpt lat="36.77721" lon="27.80788">
        <ele>121.05</ele>
      </trkpt>
      <trkpt lat="36.77719" lon="27.80788">
        <ele>120.541</ele>
      </trkpt>
      <trkpt lat="36.77719" lon="27.80788">
        <ele>120.572</ele>
      </trkpt>
      <trkpt lat="36.77719" lon="27.80788">
        <ele>120.48</ele>
      </trkpt>
      <trkpt lat="36.77719" lon="27.80788">
        <ele>120.471</ele>
      </trkpt>
      <trkpt lat="36.77719" lon="27.80788">
        <ele>120.476</ele>
      </trkpt>
      <trkpt lat="36.77719" lon="27.80788">
        <ele>120.48</ele>
      </trkpt>
      <trkpt lat="36.77719" lon="27.80788">
        <ele>120.481</ele>
      </trkpt>
      <trkpt lat="36.77719" lon="27.80788">
        <ele>120.479</ele>
      </trkpt>
      <trkpt lat="36.77719" lon="27.80788">
        <ele>120.473</ele>
      </trkpt>
      <trkpt lat="36.77719" lon="27.80788">
        <ele>120.483</ele>
      </trkpt>
      <trkpt lat="36.77719" lon="27.80788">
        <ele>120.491</ele>
      </trkpt>
      <trkpt lat="36.77719" lon="27.80788">
        <ele>120.482</ele>
      </trkpt>
      <trkpt lat="36.77719" lon="27.80788">
        <ele>120.475</ele>
      </trkpt>
      <trkpt lat="36.77719" lon="27.80787">
        <ele>120.495</ele>
      </trkpt>
      <trkpt lat="36.77719" lon="27.80785">
        <ele>120.869</ele>
      </trkpt>
      <trkpt lat="36.77715" lon="27.80776">
        <ele>120.429</ele>
      </trkpt>
      <trkpt lat="36.77714" lon="27.80774">
        <ele>120.484</ele>
      </trkpt>
      <trkpt lat="36.77712" lon="27.80773">
        <ele>119.899</ele>
      </trkpt>
      <trkpt lat="36.77712" lon="27.80773">
        <ele>119.884</ele>
      </trkpt>
      <trkpt lat="36.77712" lon="27.80773">
        <ele>119.878</ele>
      </trkpt>
      <trkpt lat="36.77712" lon="27.80773">
        <ele>119.867</ele>
      </trkpt>
      <trkpt lat="36.77712" lon="27.80773">
        <ele>119.845</ele>
      </trkpt>
      <trkpt lat="36.77712" lon="27.80773">
        <ele>119.837</ele>
      </trkpt>
      <trkpt lat="36.77707" lon="27.80765">
        <ele>118.719</ele>
      </trkpt>
      <trkpt lat="36.77703" lon="27.8075">
        <ele>118.545</ele>
      </trkpt>
      <trkpt lat="36.77698" lon="27.80749">
        <ele>116.755</ele>
      </trkpt>
      <trkpt lat="36.77696" lon="27.8074">
        <ele>116.5</ele>
      </trkpt>
      <trkpt lat="36.77694" lon="27.80743">
        <ele>115.508</ele>
      </trkpt>
      <trkpt lat="36.77692" lon="27.80742">
        <ele>114.619</ele>
      </trkpt>
      <trkpt lat="36.77691" lon="27.80742">
        <ele>114.245</ele>
      </trkpt>
      <trkpt lat="36.7769" lon="27.80742">
        <ele>114.047</ele>
      </trkpt>
      <trkpt lat="36.7769" lon="27.80742">
        <ele>113.916</ele>
      </trkpt>
      <trkpt lat="36.7769" lon="27.80741">
        <ele>113.91</ele>
      </trkpt>
      <trkpt lat="36.7769" lon="27.8074">
        <ele>113.972</ele>
      </trkpt>
      <trkpt lat="36.7769" lon="27.8074">
        <ele>113.935</ele>
      </trkpt>
      <trkpt lat="36.7769" lon="27.8074">
        <ele>113.93</ele>
      </trkpt>
      <trkpt lat="36.7769" lon="27.8074">
        <ele>113.951</ele>
      </trkpt>
      <trkpt lat="36.77689" lon="27.80731">
        <ele>114.101</ele>
      </trkpt>
      <trkpt lat="36.77686" lon="27.80707">
        <ele>114.655</ele>
      </trkpt>
      <trkpt lat="36.77682" lon="27.80696">
        <ele>113.815</ele>
      </trkpt>
      <trkpt lat="36.77679" lon="27.80692">
        <ele>112.242</ele>
      </trkpt>
      <trkpt lat="36.77679" lon="27.80683">
        <ele>112.671</ele>
      </trkpt>
      <trkpt lat="36.77674" lon="27.80681">
        <ele>110.264</ele>
      </trkpt>
      <trkpt lat="36.77674" lon="27.8068">
        <ele>110.476</ele>
      </trkpt>
      <trkpt lat="36.77675" lon="27.80679">
        <ele>110.969</ele>
      </trkpt>
      <trkpt lat="36.77675" lon="27.8068">
        <ele>110.719</ele>
      </trkpt>
      <trkpt lat="36.77675" lon="27.80679">
        <ele>110.919</ele>
      </trkpt>
      <trkpt lat="36.77674" lon="27.80678">
        <ele>110.65</ele>
      </trkpt>
      <trkpt lat="36.77674" lon="27.80678">
        <ele>110.452</ele>
      </trkpt>
      <trkpt lat="36.77674" lon="27.80678">
        <ele>110.494</ele>
      </trkpt>
      <trkpt lat="36.77674" lon="27.80678">
        <ele>110.472</ele>
      </trkpt>
      <trkpt lat="36.77674" lon="27.80678">
        <ele>110.481</ele>
      </trkpt>
      <trkpt lat="36.77675" lon="27.80672">
        <ele>111.377</ele>
      </trkpt>
      <trkpt lat="36.77681" lon="27.80662">
        <ele>115.053</ele>
      </trkpt>
      <trkpt lat="36.77677" lon="27.80657">
        <ele>113.158</ele>
      </trkpt>
      <trkpt lat="36.77676" lon="27.80657">
        <ele>112.945</ele>
      </trkpt>
      <trkpt lat="36.77677" lon="27.80656">
        <ele>113.052</ele>
      </trkpt>
      <trkpt lat="36.77676" lon="27.80656">
        <ele>112.873</ele>
      </trkpt>
      <trkpt lat="36.77676" lon="27.80656">
        <ele>112.623</ele>
      </trkpt>
      <trkpt lat="36.77675" lon="27.80655">
        <ele>112.279</ele>
      </trkpt>
      <trkpt lat="36.77675" lon="27.80654">
        <ele>112.378</ele>
      </trkpt>
      <trkpt lat="36.77675" lon="27.80655">
        <ele>112.346</ele>
      </trkpt>
      <trkpt lat="36.77675" lon="27.80655">
        <ele>112.32</ele>
      </trkpt>
      <trkpt lat="36.77675" lon="27.80655">
        <ele>112.317</ele>
      </trkpt>
      <trkpt lat="36.77675" lon="27.80655">
        <ele>112.314</ele>
      </trkpt>
      <trkpt lat="36.77675" lon="27.80655">
        <ele>112.313</ele>
      </trkpt>
      <trkpt lat="36.77675" lon="27.80655">
        <ele>112.291</ele>
      </trkpt>
      <trkpt lat="36.77675" lon="27.80655">
        <ele>112.283</ele>
      </trkpt>
      <trkpt lat="36.77675" lon="27.80655">
        <ele>112.284</ele>
      </trkpt>
      <trkpt lat="36.77675" lon="27.80655">
        <ele>112.283</ele>
      </trkpt>
      <trkpt lat="36.77675" lon="27.80655">
        <ele>112.275</ele>
      </trkpt>
      <trkpt lat="36.77675" lon="27.80655">
        <ele>112.248</ele>
      </trkpt>
      <trkpt lat="36.77675" lon="27.80654">
        <ele>112.259</ele>
      </trkpt>
      <trkpt lat="36.77675" lon="27.80654">
        <ele>112.252</ele>
      </trkpt>
      <trkpt lat="36.77675" lon="27.80654">
        <ele>112.252</ele>
      </trkpt>
      <trkpt lat="36.77675" lon="27.80654">
        <ele>112.25</ele>
      </trkpt>
      <trkpt lat="36.77675" lon="27.80654">
        <ele>112.25</ele>
      </trkpt>
      <trkpt lat="36.77675" lon="27.80654">
        <ele>112.242</ele>
      </trkpt>
      <trkpt lat="36.77674" lon="27.80651">
        <ele>112.453</ele>
      </trkpt>
      <trkpt lat="36.77673" lon="27.80638">
        <ele>112.623</ele>
      </trkpt>
      <trkpt lat="36.77671" lon="27.80634">
        <ele>112.289</ele>
      </trkpt>
      <trkpt lat="36.77675" lon="27.80614">
        <ele>115.414</ele>
      </trkpt>
      <trkpt lat="36.7768" lon="27.80601">
        <ele>116.631</ele>
      </trkpt>
      <trkpt lat="36.77683" lon="27.80584">
        <ele>116.727</ele>
      </trkpt>
      <trkpt lat="36.77687" lon="27.80567">
        <ele>117.657</ele>
      </trkpt>
      <trkpt lat="36.77693" lon="27.80549">
        <ele>118.691</ele>
      </trkpt>
      <trkpt lat="36.77699" lon="27.80526">
        <ele>119.96</ele>
      </trkpt>
      <trkpt lat="36.77708" lon="27.80505">
        <ele>121.05</ele>
      </trkpt>
      <trkpt lat="36.77712" lon="27.80487">
        <ele>120.752</ele>
      </trkpt>
      <trkpt lat="36.77718" lon="27.80474">
        <ele>120.651</ele>
      </trkpt>
      <trkpt lat="36.77727" lon="27.80455">
        <ele>122.276</ele>
      </trkpt>
      <trkpt lat="36.77735" lon="27.80435">
        <ele>126.758</ele>
      </trkpt>
      <trkpt lat="36.77741" lon="27.80416">
        <ele>130.886</ele>
      </trkpt>
      <trkpt lat="36.77737" lon="27.80404">
        <ele>130.493</ele>
      </trkpt>
      <trkpt lat="36.77736" lon="27.80401">
        <ele>130.516</ele>
      </trkpt>
      <trkpt lat="36.77738" lon="27.80397">
        <ele>131.282</ele>
      </trkpt>
      <trkpt lat="36.77738" lon="27.80393">
        <ele>131.859</ele>
      </trkpt>
      <trkpt lat="36.77741" lon="27.80389">
        <ele>133.008</ele>
      </trkpt>
      <trkpt lat="36.77743" lon="27.80384">
        <ele>133.745</ele>
      </trkpt>
      <trkpt lat="36.77744" lon="27.80381">
        <ele>134.136</ele>
      </trkpt>
      <trkpt lat="36.77746" lon="27.80379">
        <ele>134.708</ele>
      </trkpt>
      <trkpt lat="36.77748" lon="27.80374">
        <ele>135.014</ele>
      </trkpt>
      <trkpt lat="36.7775" lon="27.80371">
        <ele>135.33</ele>
      </trkpt>
      <trkpt lat="36.77751" lon="27.80367">
        <ele>135.417</ele>
      </trkpt>
      <trkpt lat="36.77753" lon="27.80364">
        <ele>135.526</ele>
      </trkpt>
      <trkpt lat="36.77755" lon="27.8036">
        <ele>135.876</ele>
      </trkpt>
      <trkpt lat="36.77757" lon="27.80356">
        <ele>136.31</ele>
      </trkpt>
      <trkpt lat="36.77758" lon="27.80352">
        <ele>136.695</ele>
      </trkpt>
      <trkpt lat="36.77757" lon="27.80348">
        <ele>136.814</ele>
      </trkpt>
      <trkpt lat="36.77759" lon="27.80346">
        <ele>137.256</ele>
      </trkpt>
      <trkpt lat="36.77761" lon="27.80343">
        <ele>137.653</ele>
      </trkpt>
      <trkpt lat="36.77764" lon="27.80341">
        <ele>138.035</ele>
      </trkpt>
      <trkpt lat="36.77767" lon="27.80338">
        <ele>138.591</ele>
      </trkpt>
      <trkpt lat="36.77769" lon="27.80335">
        <ele>138.983</ele>
      </trkpt>
      <trkpt lat="36.77771" lon="27.80331">
        <ele>139.444</ele>
      </trkpt>
      <trkpt lat="36.77772" lon="27.80326">
        <ele>139.815</ele>
      </trkpt>
      <trkpt lat="36.77773" lon="27.80323">
        <ele>140.059</ele>
      </trkpt>
      <trkpt lat="36.77774" lon="27.8032">
        <ele>140.294</ele>
      </trkpt>
      <trkpt lat="36.77776" lon="27.80317">
        <ele>140.518</ele>
      </trkpt>
      <trkpt lat="36.77777" lon="27.80313">
        <ele>140.705</ele>
      </trkpt>
      <trkpt lat="36.77778" lon="27.80309">
        <ele>140.882</ele>
      </trkpt>
      <trkpt lat="36.77779" lon="27.80305">
        <ele>141.189</ele>
      </trkpt>
      <trkpt lat="36.7778" lon="27.80302">
        <ele>141.67</ele>
      </trkpt>
      <trkpt lat="36.77782" lon="27.80298">
        <ele>142.171</ele>
      </trkpt>
      <trkpt lat="36.77784" lon="27.80295">
        <ele>142.556</ele>
      </trkpt>
      <trkpt lat="36.77787" lon="27.80292">
        <ele>142.922</ele>
      </trkpt>
      <trkpt lat="36.77789" lon="27.80289">
        <ele>143.265</ele>
      </trkpt>
      <trkpt lat="36.7779" lon="27.80286">
        <ele>143.518</ele>
      </trkpt>
      <trkpt lat="36.77792" lon="27.80283">
        <ele>143.723</ele>
      </trkpt>
      <trkpt lat="36.77793" lon="27.8028">
        <ele>143.907</ele>
      </trkpt>
      <trkpt lat="36.77796" lon="27.80276">
        <ele>144.227</ele>
      </trkpt>
      <trkpt lat="36.77797" lon="27.80272">
        <ele>144.643</ele>
      </trkpt>
      <trkpt lat="36.77794" lon="27.80268">
        <ele>145.165</ele>
      </trkpt>
      <trkpt lat="36.77796" lon="27.80265">
        <ele>145.515</ele>
      </trkpt>
      <trkpt lat="36.77797" lon="27.80261">
        <ele>145.955</ele>
      </trkpt>
      <trkpt lat="36.77798" lon="27.80258">
        <ele>146.321</ele>
      </trkpt>
      <trkpt lat="36.77799" lon="27.80255">
        <ele>146.709</ele>
      </trkpt>
      <trkpt lat="36.778" lon="27.8025">
        <ele>147.163</ele>
      </trkpt>
      <trkpt lat="36.77802" lon="27.80246">
        <ele>147.401</ele>
      </trkpt>
      <trkpt lat="36.77802" lon="27.80243">
        <ele>147.654</ele>
      </trkpt>
      <trkpt lat="36.77804" lon="27.80239">
        <ele>147.898</ele>
      </trkpt>
      <trkpt lat="36.77804" lon="27.80233">
        <ele>148.247</ele>
      </trkpt>
      <trkpt lat="36.77804" lon="27.80229">
        <ele>148.546</ele>
      </trkpt>
      <trkpt lat="36.77806" lon="27.80225">
        <ele>148.777</ele>
      </trkpt>
      <trkpt lat="36.77806" lon="27.80222">
        <ele>149.122</ele>
      </trkpt>
      <trkpt lat="36.77806" lon="27.80217">
        <ele>149.052</ele>
      </trkpt>
      <trkpt lat="36.77806" lon="27.80213">
        <ele>149.069</ele>
      </trkpt>
      <trkpt lat="36.77807" lon="27.8021">
        <ele>149.23</ele>
      </trkpt>
      <trkpt lat="36.77809" lon="27.80207">
        <ele>149.483</ele>
      </trkpt>
      <trkpt lat="36.7781" lon="27.80202">
        <ele>149.672</ele>
      </trkpt>
      <trkpt lat="36.77812" lon="27.80201">
        <ele>150.175</ele>
      </trkpt>
      <trkpt lat="36.77813" lon="27.80196">
        <ele>150.364</ele>
      </trkpt>
      <trkpt lat="36.77816" lon="27.80198">
        <ele>150.879</ele>
      </trkpt>
      <trkpt lat="36.77817" lon="27.80192">
        <ele>151.325</ele>
      </trkpt>
      <trkpt lat="36.77819" lon="27.80188">
        <ele>151.999</ele>
      </trkpt>
      <trkpt lat="36.7782" lon="27.80184">
        <ele>152.539</ele>
      </trkpt>
      <trkpt lat="36.77823" lon="27.80181">
        <ele>153.116</ele>
      </trkpt>
      <trkpt lat="36.77825" lon="27.80178">
        <ele>153.553</ele>
      </trkpt>
      <trkpt lat="36.77827" lon="27.80176">
        <ele>153.954</ele>
      </trkpt>
      <trkpt lat="36.77829" lon="27.80174">
        <ele>154.312</ele>
      </trkpt>
      <trkpt lat="36.77832" lon="27.80172">
        <ele>154.705</ele>
      </trkpt>
      <trkpt lat="36.77835" lon="27.80169">
        <ele>155.168</ele>
      </trkpt>
      <trkpt lat="36.77837" lon="27.80168">
        <ele>155.827</ele>
      </trkpt>
      <trkpt lat="36.7784" lon="27.80164">
        <ele>156.963</ele>
      </trkpt>
      <trkpt lat="36.77841" lon="27.8016">
        <ele>157.859</ele>
      </trkpt>
      <trkpt lat="36.77841" lon="27.80155">
        <ele>158.904</ele>
      </trkpt>
      <trkpt lat="36.77841" lon="27.80151">
        <ele>159.555</ele>
      </trkpt>
      <trkpt lat="36.77842" lon="27.80146">
        <ele>160.653</ele>
      </trkpt>
      <trkpt lat="36.77844" lon="27.80144">
        <ele>161.385</ele>
      </trkpt>
      <trkpt lat="36.77847" lon="27.80141">
        <ele>162.157</ele>
      </trkpt>
      <trkpt lat="36.77847" lon="27.80136">
        <ele>162.766</ele>
      </trkpt>
      <trkpt lat="36.77849" lon="27.80133">
        <ele>163.307</ele>
      </trkpt>
      <trkpt lat="36.77851" lon="27.8013">
        <ele>163.9</ele>
      </trkpt>
      <trkpt lat="36.77853" lon="27.80127">
        <ele>164.44</ele>
      </trkpt>
      <trkpt lat="36.77851" lon="27.80124">
        <ele>164.56</ele>
      </trkpt>
      <trkpt lat="36.77853" lon="27.80121">
        <ele>165.066</ele>
      </trkpt>
      <trkpt lat="36.77854" lon="27.80117">
        <ele>165.649</ele>
      </trkpt>
      <trkpt lat="36.77858" lon="27.80114">
        <ele>166.33</ele>
      </trkpt>
      <trkpt lat="36.77858" lon="27.8011">
        <ele>166.655</ele>
      </trkpt>
      <trkpt lat="36.7786" lon="27.80109">
        <ele>166.922</ele>
      </trkpt>
      <trkpt lat="36.77862" lon="27.80106">
        <ele>167.036</ele>
      </trkpt>
      <trkpt lat="36.77863" lon="27.80101">
        <ele>167.075</ele>
      </trkpt>
      <trkpt lat="36.77866" lon="27.80097">
        <ele>167.165</ele>
      </trkpt>
      <trkpt lat="36.77868" lon="27.80094">
        <ele>167.241</ele>
      </trkpt>
      <trkpt lat="36.7787" lon="27.80092">
        <ele>167.306</ele>
      </trkpt>
      <trkpt lat="36.77871" lon="27.80089">
        <ele>167.363</ele>
      </trkpt>
      <trkpt lat="36.77873" lon="27.80086">
        <ele>167.442</ele>
      </trkpt>
      <trkpt lat="36.77875" lon="27.80082">
        <ele>167.539</ele>
      </trkpt>
      <trkpt lat="36.77878" lon="27.80079">
        <ele>167.703</ele>
      </trkpt>
      <trkpt lat="36.7788" lon="27.80077">
        <ele>167.848</ele>
      </trkpt>
      <trkpt lat="36.77883" lon="27.80075">
        <ele>168.035</ele>
      </trkpt>
      <trkpt lat="36.77886" lon="27.80074">
        <ele>168.213</ele>
      </trkpt>
      <trkpt lat="36.77889" lon="27.80071">
        <ele>168.427</ele>
      </trkpt>
      <trkpt lat="36.77891" lon="27.80067">
        <ele>168.984</ele>
      </trkpt>
      <trkpt lat="36.77892" lon="27.80063">
        <ele>169.267</ele>
      </trkpt>
      <trkpt lat="36.77894" lon="27.8006">
        <ele>169.593</ele>
      </trkpt>
      <trkpt lat="36.77896" lon="27.80057">
        <ele>169.934</ele>
      </trkpt>
      <trkpt lat="36.77897" lon="27.80052">
        <ele>170.405</ele>
      </trkpt>
      <trkpt lat="36.77899" lon="27.8005">
        <ele>170.943</ele>
      </trkpt>
      <trkpt lat="36.77899" lon="27.80046">
        <ele>171.321</ele>
      </trkpt>
      <trkpt lat="36.77901" lon="27.80043">
        <ele>171.82</ele>
      </trkpt>
      <trkpt lat="36.77901" lon="27.80039">
        <ele>172.291</ele>
      </trkpt>
      <trkpt lat="36.77904" lon="27.80038">
        <ele>172.76</ele>
      </trkpt>
      <trkpt lat="36.77905" lon="27.80034">
        <ele>173.181</ele>
      </trkpt>
      <trkpt lat="36.77907" lon="27.80031">
        <ele>173.636</ele>
      </trkpt>
      <trkpt lat="36.77907" lon="27.80028">
        <ele>173.922</ele>
      </trkpt>
      <trkpt lat="36.77906" lon="27.80024">
        <ele>174.104</ele>
      </trkpt>
      <trkpt lat="36.77907" lon="27.8002">
        <ele>174.444</ele>
      </trkpt>
      <trkpt lat="36.77907" lon="27.80016">
        <ele>174.691</ele>
      </trkpt>
      <trkpt lat="36.77906" lon="27.8001">
        <ele>174.979</ele>
      </trkpt>
      <trkpt lat="36.77909" lon="27.80009">
        <ele>175.211</ele>
      </trkpt>
      <trkpt lat="36.7791" lon="27.80005">
        <ele>175.511</ele>
      </trkpt>
      <trkpt lat="36.77909" lon="27.8">
        <ele>175.72</ele>
      </trkpt>
      <trkpt lat="36.7791" lon="27.79996">
        <ele>175.615</ele>
      </trkpt>
      <trkpt lat="36.77911" lon="27.79992">
        <ele>175.466</ele>
      </trkpt>
      <trkpt lat="36.77911" lon="27.79988">
        <ele>175.302</ele>
      </trkpt>
      <trkpt lat="36.77911" lon="27.79983">
        <ele>175.065</ele>
      </trkpt>
      <trkpt lat="36.77911" lon="27.79979">
        <ele>174.919</ele>
      </trkpt>
      <trkpt lat="36.77911" lon="27.79975">
        <ele>174.702</ele>
      </trkpt>
      <trkpt lat="36.77912" lon="27.79972">
        <ele>174.49</ele>
      </trkpt>
      <trkpt lat="36.77911" lon="27.79968">
        <ele>174.298</ele>
      </trkpt>
      <trkpt lat="36.7791" lon="27.79965">
        <ele>174.328</ele>
      </trkpt>
      <trkpt lat="36.77913" lon="27.79964">
        <ele>173.853</ele>
      </trkpt>
      <trkpt lat="36.77915" lon="27.7996">
        <ele>173.325</ele>
      </trkpt>
      <trkpt lat="36.77916" lon="27.79955">
        <ele>172.795</ele>
      </trkpt>
      <trkpt lat="36.77916" lon="27.79951">
        <ele>172.602</ele>
      </trkpt>
      <trkpt lat="36.77919" lon="27.79949">
        <ele>172.598</ele>
      </trkpt>
      <trkpt lat="36.77921" lon="27.79946">
        <ele>172.495</ele>
      </trkpt>
      <trkpt lat="36.77922" lon="27.7994">
        <ele>172.171</ele>
      </trkpt>
      <trkpt lat="36.77923" lon="27.79937">
        <ele>171.847</ele>
      </trkpt>
      <trkpt lat="36.77924" lon="27.79931">
        <ele>171.351</ele>
      </trkpt>
      <trkpt lat="36.77923" lon="27.79926">
        <ele>170.735</ele>
      </trkpt>
      <trkpt lat="36.77924" lon="27.79923">
        <ele>170.444</ele>
      </trkpt>
      <trkpt lat="36.77927" lon="27.79921">
        <ele>170.573</ele>
      </trkpt>
      <trkpt lat="36.77927" lon="27.79917">
        <ele>170.142</ele>
      </trkpt>
      <trkpt lat="36.77927" lon="27.79913">
        <ele>169.769</ele>
      </trkpt>
      <trkpt lat="36.77925" lon="27.79908">
        <ele>169.151</ele>
      </trkpt>
      <trkpt lat="36.77929" lon="27.79911">
        <ele>169.807</ele>
      </trkpt>
      <trkpt lat="36.77929" lon="27.79907">
        <ele>169.466</ele>
      </trkpt>
      <trkpt lat="36.77932" lon="27.79906">
        <ele>169.685</ele>
      </trkpt>
      <trkpt lat="36.77936" lon="27.79902">
        <ele>169.701</ele>
      </trkpt>
      <trkpt lat="36.77939" lon="27.799">
        <ele>169.704</ele>
      </trkpt>
      <trkpt lat="36.77936" lon="27.79896">
        <ele>169.066</ele>
      </trkpt>
      <trkpt lat="36.77938" lon="27.79894">
        <ele>168.988</ele>
      </trkpt>
      <trkpt lat="36.77942" lon="27.79893">
        <ele>169.172</ele>
      </trkpt>
      <trkpt lat="36.77939" lon="27.79889">
        <ele>168.601</ele>
      </trkpt>
      <trkpt lat="36.77937" lon="27.79883">
        <ele>168.026</ele>
      </trkpt>
      <trkpt lat="36.7794" lon="27.79881">
        <ele>168.091</ele>
      </trkpt>
      <trkpt lat="36.77942" lon="27.79878">
        <ele>167.99</ele>
      </trkpt>
      <trkpt lat="36.77942" lon="27.79873">
        <ele>167.644</ele>
      </trkpt>
      <trkpt lat="36.77944" lon="27.79875">
        <ele>167.99</ele>
      </trkpt>
      <trkpt lat="36.77944" lon="27.79869">
        <ele>167.485</ele>
      </trkpt>
      <trkpt lat="36.77941" lon="27.79866">
        <ele>167.082</ele>
      </trkpt>
      <trkpt lat="36.7794" lon="27.79862">
        <ele>166.679</ele>
      </trkpt>
      <trkpt lat="36.7794" lon="27.79858">
        <ele>166.42</ele>
      </trkpt>
      <trkpt lat="36.77941" lon="27.7985">
        <ele>166.038</ele>
      </trkpt>
      <trkpt lat="36.77946" lon="27.79845">
        <ele>166.05</ele>
      </trkpt>
      <trkpt lat="36.77948" lon="27.79843">
        <ele>166.157</ele>
      </trkpt>
      <trkpt lat="36.77951" lon="27.7984">
        <ele>166.46</ele>
      </trkpt>
      <trkpt lat="36.77954" lon="27.79835">
        <ele>166.561</ele>
      </trkpt>
      <trkpt lat="36.77957" lon="27.7983">
        <ele>166.443</ele>
      </trkpt>
      <trkpt lat="36.77956" lon="27.7982">
        <ele>165.501</ele>
      </trkpt>
      <trkpt lat="36.77956" lon="27.79817">
        <ele>165.151</ele>
      </trkpt>
      <trkpt lat="36.77956" lon="27.79812">
        <ele>164.85</ele>
      </trkpt>
      <trkpt lat="36.77957" lon="27.79809">
        <ele>164.617</ele>
      </trkpt>
      <trkpt lat="36.77956" lon="27.79805">
        <ele>164.183</ele>
      </trkpt>
      <trkpt lat="36.77957" lon="27.798">
        <ele>163.945</ele>
      </trkpt>
      <trkpt lat="36.77958" lon="27.79796">
        <ele>163.714</ele>
      </trkpt>
      <trkpt lat="36.77959" lon="27.7979">
        <ele>163.416</ele>
      </trkpt>
      <trkpt lat="36.77961" lon="27.79786">
        <ele>163.373</ele>
      </trkpt>
      <trkpt lat="36.77961" lon="27.79781">
        <ele>163.009</ele>
      </trkpt>
      <trkpt lat="36.77962" lon="27.79777">
        <ele>162.851</ele>
      </trkpt>
      <trkpt lat="36.77963" lon="27.79774">
        <ele>162.916</ele>
      </trkpt>
      <trkpt lat="36.77962" lon="27.79771">
        <ele>162.767</ele>
      </trkpt>
      <trkpt lat="36.77964" lon="27.79767">
        <ele>162.847</ele>
      </trkpt>
      <trkpt lat="36.77961" lon="27.79766">
        <ele>162.505</ele>
      </trkpt>
      <trkpt lat="36.77961" lon="27.79766">
        <ele>162.515</ele>
      </trkpt>
      <trkpt lat="36.77961" lon="27.79766">
        <ele>162.521</ele>
      </trkpt>
      <trkpt lat="36.77962" lon="27.79761">
        <ele>162.528</ele>
      </trkpt>
      <trkpt lat="36.77964" lon="27.79753">
        <ele>162.507</ele>
      </trkpt>
      <trkpt lat="36.77971" lon="27.79739">
        <ele>162.541</ele>
      </trkpt>
      <trkpt lat="36.77971" lon="27.79738">
        <ele>162.51</ele>
      </trkpt>
      <trkpt lat="36.77971" lon="27.79738">
        <ele>162.499</ele>
      </trkpt>
      <trkpt lat="36.7797" lon="27.79739">
        <ele>162.485</ele>
      </trkpt>
      <trkpt lat="36.77969" lon="27.79738">
        <ele>162.459</ele>
      </trkpt>
      <trkpt lat="36.77969" lon="27.79737">
        <ele>162.414</ele>
      </trkpt>
      <trkpt lat="36.77965" lon="27.79726">
        <ele>162.063</ele>
      </trkpt>
      <trkpt lat="36.77965" lon="27.79725">
        <ele>162.05</ele>
      </trkpt>
      <trkpt lat="36.77964" lon="27.79724">
        <ele>162.02</ele>
      </trkpt>
      <trkpt lat="36.77965" lon="27.79715">
        <ele>161.613</ele>
      </trkpt>
      <trkpt lat="36.77966" lon="27.79714">
        <ele>161.586</ele>
      </trkpt>
      <trkpt lat="36.77965" lon="27.79712">
        <ele>161.467</ele>
      </trkpt>
      <trkpt lat="36.77964" lon="27.79701">
        <ele>160.769</ele>
      </trkpt>
      <trkpt lat="36.77963" lon="27.79701">
        <ele>160.737</ele>
      </trkpt>
      <trkpt lat="36.77967" lon="27.79693">
        <ele>160.557</ele>
      </trkpt>
      <trkpt lat="36.77967" lon="27.79693">
        <ele>160.589</ele>
      </trkpt>
      <trkpt lat="36.77966" lon="27.79693">
        <ele>160.498</ele>
      </trkpt>
      <trkpt lat="36.77959" lon="27.79692">
        <ele>159.968</ele>
      </trkpt>
      <trkpt lat="36.7796" lon="27.79692">
        <ele>160.026</ele>
      </trkpt>
      <trkpt lat="36.77954" lon="27.7969">
        <ele>159.519</ele>
      </trkpt>
      <trkpt lat="36.77949" lon="27.79693">
        <ele>159.226</ele>
      </trkpt>
      <trkpt lat="36.77949" lon="27.79694">
        <ele>159.338</ele>
      </trkpt>
      <trkpt lat="36.77947" lon="27.79692">
        <ele>159.104</ele>
      </trkpt>
      <trkpt lat="36.77945" lon="27.79693">
        <ele>158.973</ele>
      </trkpt>
      <trkpt lat="36.77935" lon="27.797">
        <ele>158.662</ele>
      </trkpt>
      <trkpt lat="36.77934" lon="27.797">
        <ele>158.513</ele>
      </trkpt>
      <trkpt lat="36.77934" lon="27.797">
        <ele>158.53</ele>
      </trkpt>
      <trkpt lat="36.77934" lon="27.797">
        <ele>158.555</ele>
      </trkpt>
      <trkpt lat="36.77934" lon="27.797">
        <ele>158.503</ele>
      </trkpt>
      <trkpt lat="36.77929" lon="27.79699">
        <ele>157.986</ele>
      </trkpt>
      <trkpt lat="36.77928" lon="27.797">
        <ele>157.916</ele>
      </trkpt>
      <trkpt lat="36.77926" lon="27.79699">
        <ele>157.54</ele>
      </trkpt>
      <trkpt lat="36.77917" lon="27.7969">
        <ele>155.92</ele>
      </trkpt>
      <trkpt lat="36.77918" lon="27.7969">
        <ele>155.995</ele>
      </trkpt>
      <trkpt lat="36.77918" lon="27.7969">
        <ele>156.01</ele>
      </trkpt>
      <trkpt lat="36.77918" lon="27.79689">
        <ele>155.971</ele>
      </trkpt>
      <trkpt lat="36.77917" lon="27.79688">
        <ele>155.792</ele>
      </trkpt>
      <trkpt lat="36.77917" lon="27.79684">
        <ele>155.695</ele>
      </trkpt>
      <trkpt lat="36.77918" lon="27.79674">
        <ele>155.416</ele>
      </trkpt>
      <trkpt lat="36.7792" lon="27.79661">
        <ele>155.593</ele>
      </trkpt>
      <trkpt lat="36.77922" lon="27.79653">
        <ele>156.096</ele>
      </trkpt>
      <trkpt lat="36.77922" lon="27.79652">
        <ele>156.131</ele>
      </trkpt>
      <trkpt lat="36.77918" lon="27.79636">
        <ele>156.22</ele>
      </trkpt>
      <trkpt lat="36.77917" lon="27.7963">
        <ele>156.331</ele>
      </trkpt>
      <trkpt lat="36.77917" lon="27.7963">
        <ele>156.333</ele>
      </trkpt>
      <trkpt lat="36.77916" lon="27.79626">
        <ele>156.336</ele>
      </trkpt>
      <trkpt lat="36.77914" lon="27.79624">
        <ele>156.203</ele>
      </trkpt>
      <trkpt lat="36.77915" lon="27.79624">
        <ele>156.26</ele>
      </trkpt>
      <trkpt lat="36.77915" lon="27.79623">
        <ele>156.315</ele>
      </trkpt>
      <trkpt lat="36.7791" lon="27.79612">
        <ele>156.246</ele>
      </trkpt>
      <trkpt lat="36.7791" lon="27.79611">
        <ele>156.296</ele>
      </trkpt>
      <trkpt lat="36.7791" lon="27.7961">
        <ele>156.304</ele>
      </trkpt>
      <trkpt lat="36.77909" lon="27.79607">
        <ele>156.281</ele>
      </trkpt>
      <trkpt lat="36.77908" lon="27.796">
        <ele>156.166</ele>
      </trkpt>
      <trkpt lat="36.77906" lon="27.79577">
        <ele>155.78</ele>
      </trkpt>
      <trkpt lat="36.77903" lon="27.79562">
        <ele>154.747</ele>
      </trkpt>
      <trkpt lat="36.77902" lon="27.7956">
        <ele>154.524</ele>
      </trkpt>
      <trkpt lat="36.77906" lon="27.7955">
        <ele>155.028</ele>
      </trkpt>
      <trkpt lat="36.77906" lon="27.79545">
        <ele>154.981</ele>
      </trkpt>
      <trkpt lat="36.77904" lon="27.79543">
        <ele>154.587</ele>
      </trkpt>
      <trkpt lat="36.77904" lon="27.79542">
        <ele>154.508</ele>
      </trkpt>
      <trkpt lat="36.77897" lon="27.7953">
        <ele>152.751</ele>
      </trkpt>
      <trkpt lat="36.77897" lon="27.7953">
        <ele>152.818</ele>
      </trkpt>
      <trkpt lat="36.77896" lon="27.7953">
        <ele>152.667</ele>
      </trkpt>
      <trkpt lat="36.77894" lon="27.79526">
        <ele>152.222</ele>
      </trkpt>
      <trkpt lat="36.77894" lon="27.79525">
        <ele>152.23</ele>
      </trkpt>
      <trkpt lat="36.77886" lon="27.79516">
        <ele>151.62</ele>
      </trkpt>
      <trkpt lat="36.77883" lon="27.79515">
        <ele>151.279</ele>
      </trkpt>
      <trkpt lat="36.77878" lon="27.79513">
        <ele>150.841</ele>
      </trkpt>
      <trkpt lat="36.77877" lon="27.79512">
        <ele>150.782</ele>
      </trkpt>
      <trkpt lat="36.77869" lon="27.79506">
        <ele>149.994</ele>
      </trkpt>
      <trkpt lat="36.77865" lon="27.79503">
        <ele>149.577</ele>
      </trkpt>
      <trkpt lat="36.77862" lon="27.79503">
        <ele>149.073</ele>
      </trkpt>
      <trkpt lat="36.7786" lon="27.79503">
        <ele>148.934</ele>
      </trkpt>
      <trkpt lat="36.77859" lon="27.79503">
        <ele>148.818</ele>
      </trkpt>
      <trkpt lat="36.77858" lon="27.79504">
        <ele>148.761</ele>
      </trkpt>
      <trkpt lat="36.77856" lon="27.79504">
        <ele>148.6</ele>
      </trkpt>
      <trkpt lat="36.77851" lon="27.79506">
        <ele>148.104</ele>
      </trkpt>
      <trkpt lat="36.77847" lon="27.79508">
        <ele>147.69</ele>
      </trkpt>
      <trkpt lat="36.77844" lon="27.7951">
        <ele>147.294</ele>
      </trkpt>
      <trkpt lat="36.77836" lon="27.79511">
        <ele>146.477</ele>
      </trkpt>
      <trkpt lat="36.77835" lon="27.7951">
        <ele>146.431</ele>
      </trkpt>
      <trkpt lat="36.77834" lon="27.79509">
        <ele>146.351</ele>
      </trkpt>
      <trkpt lat="36.7782" lon="27.79513">
        <ele>144.175</ele>
      </trkpt>
      <trkpt lat="36.77817" lon="27.79513">
        <ele>143.859</ele>
      </trkpt>
      <trkpt lat="36.77818" lon="27.79512">
        <ele>143.966</ele>
      </trkpt>
      <trkpt lat="36.77815" lon="27.79511">
        <ele>143.8</ele>
      </trkpt>
      <trkpt lat="36.77815" lon="27.7951">
        <ele>143.75</ele>
      </trkpt>
      <trkpt lat="36.77812" lon="27.79509">
        <ele>143.655</ele>
      </trkpt>
      <trkpt lat="36.77805" lon="27.79505">
        <ele>143.171</ele>
      </trkpt>
      <trkpt lat="36.77804" lon="27.79505">
        <ele>142.974</ele>
      </trkpt>
      <trkpt lat="36.77793" lon="27.79497">
        <ele>141.215</ele>
      </trkpt>
      <trkpt lat="36.77791" lon="27.79497">
        <ele>140.748</ele>
      </trkpt>
      <trkpt lat="36.77785" lon="27.79496">
        <ele>139.584</ele>
      </trkpt>
      <trkpt lat="36.77779" lon="27.79499">
        <ele>138.254</ele>
      </trkpt>
      <trkpt lat="36.77775" lon="27.795">
        <ele>137.812</ele>
      </trkpt>
      <trkpt lat="36.77768" lon="27.79498">
        <ele>137.214</ele>
      </trkpt>
      <trkpt lat="36.77765" lon="27.79497">
        <ele>137.021</ele>
      </trkpt>
      <trkpt lat="36.77757" lon="27.79494">
        <ele>136.16</ele>
      </trkpt>
      <trkpt lat="36.77753" lon="27.79487">
        <ele>135.393</ele>
      </trkpt>
      <trkpt lat="36.77753" lon="27.79484">
        <ele>135.121</ele>
      </trkpt>
      <trkpt lat="36.77752" lon="27.79475">
        <ele>134.401</ele>
      </trkpt>
      <trkpt lat="36.77751" lon="27.79475">
        <ele>134.362</ele>
      </trkpt>
      <trkpt lat="36.77747" lon="27.79457">
        <ele>132.12</ele>
      </trkpt>
      <trkpt lat="36.77742" lon="27.79445">
        <ele>129.926</ele>
      </trkpt>
      <trkpt lat="36.77742" lon="27.7944">
        <ele>129.42</ele>
      </trkpt>
      <trkpt lat="36.77743" lon="27.79435">
        <ele>128.85</ele>
      </trkpt>
      <trkpt lat="36.77744" lon="27.79431">
        <ele>128.644</ele>
      </trkpt>
      <trkpt lat="36.77743" lon="27.79424">
        <ele>127.691</ele>
      </trkpt>
      <trkpt lat="36.7774" lon="27.79419">
        <ele>126.76</ele>
      </trkpt>
      <trkpt lat="36.77737" lon="27.79416">
        <ele>126.09</ele>
      </trkpt>
      <trkpt lat="36.77732" lon="27.79412">
        <ele>125.548</ele>
      </trkpt>
      <trkpt lat="36.77731" lon="27.79412">
        <ele>125.465</ele>
      </trkpt>
      <trkpt lat="36.77729" lon="27.79408">
        <ele>125.293</ele>
      </trkpt>
      <trkpt lat="36.77727" lon="27.79401">
        <ele>125.217</ele>
      </trkpt>
      <trkpt lat="36.77727" lon="27.79401">
        <ele>125.166</ele>
      </trkpt>
      <trkpt lat="36.77725" lon="27.79395">
        <ele>125.181</ele>
      </trkpt>
      <trkpt lat="36.77722" lon="27.79392">
        <ele>124.866</ele>
      </trkpt>
      <trkpt lat="36.77717" lon="27.7939">
        <ele>124.276</ele>
      </trkpt>
      <trkpt lat="36.77716" lon="27.79389">
        <ele>124.133</ele>
      </trkpt>
      <trkpt lat="36.77701" lon="27.79387">
        <ele>121.98</ele>
      </trkpt>
      <trkpt lat="36.777" lon="27.79387">
        <ele>121.911</ele>
      </trkpt>
      <trkpt lat="36.777" lon="27.79387">
        <ele>121.87</ele>
      </trkpt>
      <trkpt lat="36.777" lon="27.79387">
        <ele>121.828</ele>
      </trkpt>
      <trkpt lat="36.77684" lon="27.7938">
        <ele>120.821</ele>
      </trkpt>
      <trkpt lat="36.77673" lon="27.79378">
        <ele>120.304</ele>
      </trkpt>
      <trkpt lat="36.77659" lon="27.79372">
        <ele>119.602</ele>
      </trkpt>
      <trkpt lat="36.77641" lon="27.79362">
        <ele>119.049</ele>
      </trkpt>
      <trkpt lat="36.7764" lon="27.79362">
        <ele>119.008</ele>
      </trkpt>
      <trkpt lat="36.77635" lon="27.7936">
        <ele>118.742</ele>
      </trkpt>
      <trkpt lat="36.7763" lon="27.79359">
        <ele>118.409</ele>
      </trkpt>
      <trkpt lat="36.7763" lon="27.7936">
        <ele>118.387</ele>
      </trkpt>
      <trkpt lat="36.77622" lon="27.79356">
        <ele>117.984</ele>
      </trkpt>
      <trkpt lat="36.77618" lon="27.79354">
        <ele>117.741</ele>
      </trkpt>
      <trkpt lat="36.77618" lon="27.79354">
        <ele>117.75</ele>
      </trkpt>
      <trkpt lat="36.77599" lon="27.7935">
        <ele>115.581</ele>
      </trkpt>
      <trkpt lat="36.77591" lon="27.79348">
        <ele>114.612</ele>
      </trkpt>
      <trkpt lat="36.77591" lon="27.79348">
        <ele>114.625</ele>
      </trkpt>
      <trkpt lat="36.77589" lon="27.79347">
        <ele>114.315</ele>
      </trkpt>
      <trkpt lat="36.77574" lon="27.79336">
        <ele>112.248</ele>
      </trkpt>
      <trkpt lat="36.77566" lon="27.7932">
        <ele>110.268</ele>
      </trkpt>
      <trkpt lat="36.77561" lon="27.79311">
        <ele>108.735</ele>
      </trkpt>
      <trkpt lat="36.77561" lon="27.79311">
        <ele>108.694</ele>
      </trkpt>
      <trkpt lat="36.7756" lon="27.7931">
        <ele>108.304</ele>
      </trkpt>
      <trkpt lat="36.77559" lon="27.7931">
        <ele>108.166</ele>
      </trkpt>
      <trkpt lat="36.77558" lon="27.79309">
        <ele>107.937</ele>
      </trkpt>
      <trkpt lat="36.77555" lon="27.79307">
        <ele>106.979</ele>
      </trkpt>
      <trkpt lat="36.7755" lon="27.79299">
        <ele>105.881</ele>
      </trkpt>
      <trkpt lat="36.77535" lon="27.79289">
        <ele>103.017</ele>
      </trkpt>
      <trkpt lat="36.77529" lon="27.79285">
        <ele>101.697</ele>
      </trkpt>
      <trkpt lat="36.77529" lon="27.79285">
        <ele>101.634</ele>
      </trkpt>
      <trkpt lat="36.77527" lon="27.79281">
        <ele>101.052</ele>
      </trkpt>
      <trkpt lat="36.77516" lon="27.7927">
        <ele>99.872</ele>
      </trkpt>
      <trkpt lat="36.77504" lon="27.79259">
        <ele>98.835</ele>
      </trkpt>
      <trkpt lat="36.77492" lon="27.79252">
        <ele>97.815</ele>
      </trkpt>
      <trkpt lat="36.77485" lon="27.79251">
        <ele>96.83</ele>
      </trkpt>
      <trkpt lat="36.77478" lon="27.79248">
        <ele>95.811</ele>
      </trkpt>
      <trkpt lat="36.77479" lon="27.79248">
        <ele>95.938</ele>
      </trkpt>
      <trkpt lat="36.77479" lon="27.79248">
        <ele>95.913</ele>
      </trkpt>
      <trkpt lat="36.77472" lon="27.79246">
        <ele>94.984</ele>
      </trkpt>
      <trkpt lat="36.7745" lon="27.79237">
        <ele>92.621</ele>
      </trkpt>
      <trkpt lat="36.77445" lon="27.79235">
        <ele>92.055</ele>
      </trkpt>
      <trkpt lat="36.77445" lon="27.79234">
        <ele>92.003</ele>
      </trkpt>
      <trkpt lat="36.77437" lon="27.79231">
        <ele>90.618</ele>
      </trkpt>
      <trkpt lat="36.77428" lon="27.79228">
        <ele>89.024</ele>
      </trkpt>
      <trkpt lat="36.77407" lon="27.79231">
        <ele>85.684</ele>
      </trkpt>
      <trkpt lat="36.77397" lon="27.79231">
        <ele>84.414</ele>
      </trkpt>
      <trkpt lat="36.77397" lon="27.79231">
        <ele>84.439</ele>
      </trkpt>
      <trkpt lat="36.77385" lon="27.79225">
        <ele>82.965</ele>
      </trkpt>
      <trkpt lat="36.7737" lon="27.79208">
        <ele>82.667</ele>
      </trkpt>
      <trkpt lat="36.77352" lon="27.7919">
        <ele>81.16</ele>
      </trkpt>
      <trkpt lat="36.77346" lon="27.7917">
        <ele>80.743</ele>
      </trkpt>
      <trkpt lat="36.77345" lon="27.79169">
        <ele>80.655</ele>
      </trkpt>
      <trkpt lat="36.77345" lon="27.79168">
        <ele>80.596</ele>
      </trkpt>
      <trkpt lat="36.77344" lon="27.79167">
        <ele>80.56</ele>
      </trkpt>
      <trkpt lat="36.77344" lon="27.79166">
        <ele>80.604</ele>
      </trkpt>
      <trkpt lat="36.77344" lon="27.79165">
        <ele>80.645</ele>
      </trkpt>
      <trkpt lat="36.77346" lon="27.79151">
        <ele>81.664</ele>
      </trkpt>
      <trkpt lat="36.77349" lon="27.79139">
        <ele>82.706</ele>
      </trkpt>
      <trkpt lat="36.77363" lon="27.79096">
        <ele>82.048</ele>
      </trkpt>
      <trkpt lat="36.77367" lon="27.79084">
        <ele>81.439</ele>
      </trkpt>
      <trkpt lat="36.77367" lon="27.7908">
        <ele>81.327</ele>
      </trkpt>
      <trkpt lat="36.77367" lon="27.7908">
        <ele>81.324</ele>
      </trkpt>
      <trkpt lat="36.77368" lon="27.79078">
        <ele>81.351</ele>
      </trkpt>
      <trkpt lat="36.77375" lon="27.79057">
        <ele>81.53</ele>
      </trkpt>
      <trkpt lat="36.77383" lon="27.79036">
        <ele>82.235</ele>
      </trkpt>
      <trkpt lat="36.77392" lon="27.79016">
        <ele>82.27</ele>
      </trkpt>
      <trkpt lat="36.77398" lon="27.79004">
        <ele>81.862</ele>
      </trkpt>
      <trkpt lat="36.77398" lon="27.79004">
        <ele>81.925</ele>
      </trkpt>
      <trkpt lat="36.77395" lon="27.79">
        <ele>81.489</ele>
      </trkpt>
      <trkpt lat="36.77391" lon="27.78998">
        <ele>80.913</ele>
      </trkpt>
      <trkpt lat="36.77387" lon="27.78994">
        <ele>80.199</ele>
      </trkpt>
      <trkpt lat="36.77386" lon="27.78995">
        <ele>80.234</ele>
      </trkpt>
      <trkpt lat="36.77382" lon="27.78991">
        <ele>79.382</ele>
      </trkpt>
      <trkpt lat="36.77369" lon="27.78978">
        <ele>77.595</ele>
      </trkpt>
      <trkpt lat="36.77358" lon="27.7897">
        <ele>76.523</ele>
      </trkpt>
      <trkpt lat="36.7735" lon="27.78962">
        <ele>75.206</ele>
      </trkpt>
      <trkpt lat="36.77349" lon="27.78961">
        <ele>75.033</ele>
      </trkpt>
      <trkpt lat="36.77349" lon="27.7896">
        <ele>74.989</ele>
      </trkpt>
      <trkpt lat="36.77348" lon="27.78957">
        <ele>74.763</ele>
      </trkpt>
      <trkpt lat="36.77342" lon="27.78938">
        <ele>73.308</ele>
      </trkpt>
      <trkpt lat="36.77329" lon="27.78909">
        <ele>71.414</ele>
      </trkpt>
      <trkpt lat="36.77321" lon="27.78893">
        <ele>70.295</ele>
      </trkpt>
      <trkpt lat="36.77315" lon="27.78881">
        <ele>69.372</ele>
      </trkpt>
      <trkpt lat="36.77314" lon="27.78878">
        <ele>69.057</ele>
      </trkpt>
      <trkpt lat="36.77314" lon="27.78878">
        <ele>69.07</ele>
      </trkpt>
      <trkpt lat="36.77312" lon="27.78874">
        <ele>68.666</ele>
      </trkpt>
      <trkpt lat="36.773" lon="27.78851">
        <ele>66.392</ele>
      </trkpt>
      <trkpt lat="36.77297" lon="27.78839">
        <ele>65.449</ele>
      </trkpt>
      <trkpt lat="36.77297" lon="27.78838">
        <ele>65.353</ele>
      </trkpt>
      <trkpt lat="36.77298" lon="27.78838">
        <ele>65.402</ele>
      </trkpt>
      <trkpt lat="36.77297" lon="27.78836">
        <ele>65.223</ele>
      </trkpt>
      <trkpt lat="36.77287" lon="27.78818">
        <ele>63.201</ele>
      </trkpt>
      <trkpt lat="36.77273" lon="27.78802">
        <ele>60.993</ele>
      </trkpt>
      <trkpt lat="36.77262" lon="27.78793">
        <ele>60.311</ele>
      </trkpt>
      <trkpt lat="36.77261" lon="27.78792">
        <ele>60.184</ele>
      </trkpt>
      <trkpt lat="36.77261" lon="27.78791">
        <ele>60.091</ele>
      </trkpt>
      <trkpt lat="36.77261" lon="27.78791">
        <ele>60.139</ele>
      </trkpt>
      <trkpt lat="36.77258" lon="27.7879">
        <ele>59.961</ele>
      </trkpt>
      <trkpt lat="36.77245" lon="27.78783">
        <ele>58.663</ele>
      </trkpt>
      <trkpt lat="36.77224" lon="27.78771">
        <ele>57.508</ele>
      </trkpt>
      <trkpt lat="36.77212" lon="27.78764">
        <ele>56.628</ele>
      </trkpt>
      <trkpt lat="36.77209" lon="27.78763">
        <ele>56.425</ele>
      </trkpt>
      <trkpt lat="36.77207" lon="27.78762">
        <ele>56.295</ele>
      </trkpt>
      <trkpt lat="36.77202" lon="27.7876">
        <ele>55.995</ele>
      </trkpt>
      <trkpt lat="36.77185" lon="27.78749">
        <ele>54.594</ele>
      </trkpt>
      <trkpt lat="36.77169" lon="27.78734">
        <ele>53.464</ele>
      </trkpt>
      <trkpt lat="36.7716" lon="27.78712">
        <ele>52.226</ele>
      </trkpt>
      <trkpt lat="36.77154" lon="27.7869">
        <ele>50.652</ele>
      </trkpt>
      <trkpt lat="36.77154" lon="27.78688">
        <ele>50.539</ele>
      </trkpt>
      <trkpt lat="36.77154" lon="27.78688">
        <ele>50.544</ele>
      </trkpt>
      <trkpt lat="36.77154" lon="27.78688">
        <ele>50.538</ele>
      </trkpt>
      <trkpt lat="36.77152" lon="27.78685">
        <ele>50.331</ele>
      </trkpt>
      <trkpt lat="36.77143" lon="27.78663">
        <ele>48.707</ele>
      </trkpt>
      <trkpt lat="36.77127" lon="27.78636">
        <ele>46.862</ele>
      </trkpt>
      <trkpt lat="36.77114" lon="27.78624">
        <ele>45.948</ele>
      </trkpt>
      <trkpt lat="36.77114" lon="27.78622">
        <ele>45.864</ele>
      </trkpt>
      <trkpt lat="36.7711" lon="27.78617">
        <ele>45.464</ele>
      </trkpt>
      <trkpt lat="36.77101" lon="27.78602">
        <ele>44.891</ele>
      </trkpt>
      <trkpt lat="36.77096" lon="27.78595">
        <ele>44.647</ele>
      </trkpt>
      <trkpt lat="36.77096" lon="27.78595">
        <ele>44.655</ele>
      </trkpt>
      <trkpt lat="36.77094" lon="27.7859">
        <ele>44.397</ele>
      </trkpt>
      <trkpt lat="36.7709" lon="27.78569">
        <ele>43.626</ele>
      </trkpt>
      <trkpt lat="36.77081" lon="27.78545">
        <ele>42.663</ele>
      </trkpt>
      <trkpt lat="36.77067" lon="27.78525">
        <ele>41.869</ele>
      </trkpt>
      <trkpt lat="36.77055" lon="27.78516">
        <ele>41.133</ele>
      </trkpt>
      <trkpt lat="36.77043" lon="27.78511">
        <ele>40.968</ele>
      </trkpt>
      <trkpt lat="36.77044" lon="27.78511">
        <ele>40.973</ele>
      </trkpt>
      <trkpt lat="36.77038" lon="27.78506">
        <ele>40.537</ele>
      </trkpt>
      <trkpt lat="36.7702" lon="27.78495">
        <ele>40.104</ele>
      </trkpt>
      <trkpt lat="36.77017" lon="27.78494">
        <ele>40.252</ele>
      </trkpt>
      <trkpt lat="36.77017" lon="27.78495">
        <ele>40.312</ele>
      </trkpt>
      <trkpt lat="36.77007" lon="27.78487">
        <ele>40.213</ele>
      </trkpt>
      <trkpt lat="36.76992" lon="27.78477">
        <ele>39.488</ele>
      </trkpt>
      <trkpt lat="36.76987" lon="27.7847">
        <ele>38.728</ele>
      </trkpt>
      <trkpt lat="36.76978" lon="27.78464">
        <ele>38.134</ele>
      </trkpt>
      <trkpt lat="36.76978" lon="27.78467">
        <ele>38.437</ele>
      </trkpt>
      <trkpt lat="36.76972" lon="27.78464">
        <ele>38.092</ele>
      </trkpt>
      <trkpt lat="36.7697" lon="27.78463">
        <ele>38.05</ele>
      </trkpt>
      <trkpt lat="36.7697" lon="27.78463">
        <ele>38.03</ele>
      </trkpt>
      <trkpt lat="36.76967" lon="27.78465">
        <ele>38.268</ele>
      </trkpt>
      <trkpt lat="36.76943" lon="27.7847">
        <ele>38.736</ele>
      </trkpt>
      <trkpt lat="36.76921" lon="27.78475">
        <ele>38.118</ele>
      </trkpt>
      <trkpt lat="36.769" lon="27.78475">
        <ele>36.068</ele>
      </trkpt>
      <trkpt lat="36.76888" lon="27.78473">
        <ele>34.919</ele>
      </trkpt>
      <trkpt lat="36.76879" lon="27.78472">
        <ele>34.272</ele>
      </trkpt>
      <trkpt lat="36.76868" lon="27.78471">
        <ele>33.447</ele>
      </trkpt>
      <trkpt lat="36.76864" lon="27.78469">
        <ele>33.178</ele>
      </trkpt>
      <trkpt lat="36.76855" lon="27.78467">
        <ele>33</ele>
      </trkpt>
      <trkpt lat="36.76853" lon="27.78467">
        <ele>33</ele>
      </trkpt>
      <trkpt lat="36.76849" lon="27.78466">
        <ele>33</ele>
      </trkpt>
      <trkpt lat="36.76845" lon="27.78466">
        <ele>33</ele>
      </trkpt>
      <trkpt lat="36.76846" lon="27.78467">
        <ele>33</ele>
      </trkpt>
      <trkpt lat="36.76846" lon="27.78466">
        <ele>33</ele>
      </trkpt>
      <trkpt lat="36.76832" lon="27.78465">
        <ele>32.992</ele>
      </trkpt>
      <trkpt lat="36.76831" lon="27.78467">
        <ele>32.986</ele>
      </trkpt>
      <trkpt lat="36.76829" lon="27.78467">
        <ele>32.969</ele>
      </trkpt>
      <trkpt lat="36.76815" lon="27.7846">
        <ele>32.706</ele>
      </trkpt>
      <trkpt lat="36.7679" lon="27.78453">
        <ele>30.812</ele>
      </trkpt>
      <trkpt lat="36.76776" lon="27.7845">
        <ele>29.248</ele>
      </trkpt>
      <trkpt lat="36.76769" lon="27.78447">
        <ele>28.63</ele>
      </trkpt>
      <trkpt lat="36.76756" lon="27.78446">
        <ele>27.52</ele>
      </trkpt>
      <trkpt lat="36.76744" lon="27.78444">
        <ele>26.994</ele>
      </trkpt>
      <trkpt lat="36.76743" lon="27.78444">
        <ele>26.992</ele>
      </trkpt>
      <trkpt lat="36.76728" lon="27.78442">
        <ele>26.933</ele>
      </trkpt>
      <trkpt lat="36.76728" lon="27.78446">
        <ele>27.07</ele>
      </trkpt>
      <trkpt lat="36.76728" lon="27.78444">
        <ele>26.978</ele>
      </trkpt>
      <trkpt lat="36.76719" lon="27.78439">
        <ele>26.66</ele>
      </trkpt>
      <trkpt lat="36.767" lon="27.78433">
        <ele>25.779</ele>
      </trkpt>
      <trkpt lat="36.76679" lon="27.78432">
        <ele>25.244</ele>
      </trkpt>
      <trkpt lat="36.76657" lon="27.78432">
        <ele>24.305</ele>
      </trkpt>
      <trkpt lat="36.76646" lon="27.78433">
        <ele>23.517</ele>
      </trkpt>
      <trkpt lat="36.76627" lon="27.78432">
        <ele>22.12</ele>
      </trkpt>
      <trkpt lat="36.76612" lon="27.78432">
        <ele>21.084</ele>
      </trkpt>
      <trkpt lat="36.76601" lon="27.78427">
        <ele>20.422</ele>
      </trkpt>
      <trkpt lat="36.766" lon="27.78427">
        <ele>20.32</ele>
      </trkpt>
      <trkpt lat="36.76599" lon="27.78425">
        <ele>20.259</ele>
      </trkpt>
      <trkpt lat="36.76592" lon="27.78424">
        <ele>19.806</ele>
      </trkpt>
      <trkpt lat="36.76592" lon="27.78424">
        <ele>19.794</ele>
      </trkpt>
      <trkpt lat="36.76575" lon="27.78423">
        <ele>19.148</ele>
      </trkpt>
      <trkpt lat="36.76561" lon="27.78419">
        <ele>19.015</ele>
      </trkpt>
      <trkpt lat="36.76561" lon="27.78418">
        <ele>19.011</ele>
      </trkpt>
      <trkpt lat="36.76562" lon="27.78418">
        <ele>19.009</ele>
      </trkpt>
      <trkpt lat="36.76554" lon="27.78416">
        <ele>18.87</ele>
      </trkpt>
      <trkpt lat="36.76541" lon="27.78411">
        <ele>17.858</ele>
      </trkpt>
      <trkpt lat="36.76542" lon="27.78411">
        <ele>17.907</ele>
      </trkpt>
      <trkpt lat="36.76539" lon="27.78411">
        <ele>17.712</ele>
      </trkpt>
      <trkpt lat="36.76539" lon="27.7841">
        <ele>17.733</ele>
      </trkpt>
      <trkpt lat="36.76539" lon="27.7841">
        <ele>17.737</ele>
      </trkpt>
      <trkpt lat="36.7653" lon="27.78415">
        <ele>17.172</ele>
      </trkpt>
      <trkpt lat="36.76528" lon="27.78418">
        <ele>17.071</ele>
      </trkpt>
      <trkpt lat="36.76529" lon="27.78418">
        <ele>17.105</ele>
      </trkpt>
      <trkpt lat="36.76524" lon="27.78412">
        <ele>16.564</ele>
      </trkpt>
      <trkpt lat="36.76516" lon="27.78411">
        <ele>15.793</ele>
      </trkpt>
      <trkpt lat="36.76523" lon="27.78417">
        <ele>16.438</ele>
      </trkpt>
      <trkpt lat="36.76518" lon="27.78529">
        <ele>16.29</ele>
      </trkpt>
      <trkpt lat="36.76516" lon="27.78528">
        <ele>16.179</ele>
      </trkpt>
      <trkpt lat="36.76516" lon="27.78522">
        <ele>16.115</ele>
      </trkpt>
      <trkpt lat="36.76464" lon="27.78507">
        <ele>12.924</ele>
      </trkpt>
      <trkpt lat="36.76436" lon="27.78491">
        <ele>12.366</ele>
      </trkpt>
      <trkpt lat="36.7641" lon="27.78475">
        <ele>11.084</ele>
      </trkpt>
      <trkpt lat="36.76374" lon="27.78459">
        <ele>10.72</ele>
      </trkpt>
      <trkpt lat="36.76354" lon="27.78456">
        <ele>10.571</ele>
      </trkpt>
      <trkpt lat="36.76337" lon="27.78457">
        <ele>10.533</ele>
      </trkpt>
      <trkpt lat="36.76335" lon="27.78463">
        <ele>10.345</ele>
      </trkpt>
      <trkpt lat="36.76319" lon="27.78469">
        <ele>11.513</ele>
      </trkpt>
      <trkpt lat="36.76291" lon="27.78437">
        <ele>12.568</ele>
      </trkpt>
      <trkpt lat="36.76274" lon="27.78414">
        <ele>12.51</ele>
      </trkpt>
      <trkpt lat="36.76247" lon="27.78376">
        <ele>12.168</ele>
      </trkpt>
      <trkpt lat="36.76241" lon="27.78361">
        <ele>11.615</ele>
      </trkpt>
      <trkpt lat="36.76233" lon="27.78338">
        <ele>10.229</ele>
      </trkpt>
      <trkpt lat="36.76219" lon="27.78314">
        <ele>9.203</ele>
      </trkpt>
      <trkpt lat="36.76199" lon="27.78287">
        <ele>8.313</ele>
      </trkpt>
      <trkpt lat="36.76196" lon="27.78283">
        <ele>7.833</ele>
      </trkpt>
      <trkpt lat="36.7619" lon="27.78274">
        <ele>7.673</ele>
      </trkpt>
      <trkpt lat="36.7617" lon="27.78245">
        <ele>7.616</ele>
      </trkpt>
      <trkpt lat="36.76162" lon="27.78231">
        <ele>7.788</ele>
      </trkpt>
      <trkpt lat="36.76141" lon="27.78205">
        <ele>8.899</ele>
      </trkpt>
      <trkpt lat="36.76129" lon="27.78188">
        <ele>9.946</ele>
      </trkpt>
      <trkpt lat="36.76116" lon="27.7817">
        <ele>10.754</ele>
      </trkpt>
      <trkpt lat="36.76106" lon="27.7815">
        <ele>10.351</ele>
      </trkpt>
      <trkpt lat="36.76093" lon="27.78131">
        <ele>9.541</ele>
      </trkpt>
      <trkpt lat="36.76085" lon="27.78116">
        <ele>8.5</ele>
      </trkpt>
      <trkpt lat="36.76069" lon="27.78091">
        <ele>8.418</ele>
      </trkpt>
      <trkpt lat="36.7606" lon="27.78074">
        <ele>7.989</ele>
      </trkpt>
      <trkpt lat="36.76042" lon="27.78048">
        <ele>8.622</ele>
      </trkpt>
      <trkpt lat="36.76027" lon="27.78025">
        <ele>9.071</ele>
      </trkpt>
      <trkpt lat="36.76006" lon="27.78016">
        <ele>11.055</ele>
      </trkpt>
      <trkpt lat="36.75992" lon="27.78011">
        <ele>12.251</ele>
      </trkpt>
      <trkpt lat="36.75978" lon="27.78002">
        <ele>12.658</ele>
      </trkpt>
      <trkpt lat="36.75965" lon="27.77993">
        <ele>13.076</ele>
      </trkpt>
      <trkpt lat="36.7596" lon="27.7799">
        <ele>13.327</ele>
      </trkpt>
      <trkpt lat="36.75953" lon="27.77987">
        <ele>13.782</ele>
      </trkpt>
      <trkpt lat="36.75934" lon="27.77981">
        <ele>14.051</ele>
      </trkpt>
      <trkpt lat="36.75932" lon="27.77979">
        <ele>13.665</ele>
      </trkpt>
      <trkpt lat="36.75926" lon="27.77961">
        <ele>10.949</ele>
      </trkpt>
      <trkpt lat="36.75925" lon="27.7794">
        <ele>8.752</ele>
      </trkpt>
      <trkpt lat="36.75922" lon="27.77914">
        <ele>7.175</ele>
      </trkpt>
      <trkpt lat="36.7593" lon="27.77893">
        <ele>7.465</ele>
      </trkpt>
      <trkpt lat="36.75931" lon="27.77864">
        <ele>7.955</ele>
      </trkpt>
      <trkpt lat="36.75931" lon="27.77854">
        <ele>8.132</ele>
      </trkpt>
      <trkpt lat="36.75929" lon="27.77855">
        <ele>8.127</ele>
      </trkpt>
      <trkpt lat="36.75928" lon="27.77855">
        <ele>8.13</ele>
      </trkpt>
      <trkpt lat="36.75922" lon="27.77774">
        <ele>10.156</ele>
      </trkpt>
      <trkpt lat="36.75911" lon="27.77739">
        <ele>9.65</ele>
      </trkpt>
      <trkpt lat="36.75901" lon="27.77703">
        <ele>9.731</ele>
      </trkpt>
      <trkpt lat="36.75895" lon="27.77667">
        <ele>1.916</ele>
      </trkpt>
      <trkpt lat="36.75886" lon="27.77633">
        <ele>6.6</ele>
      </trkpt>
      <trkpt lat="36.75866" lon="27.77609">
        <ele>0.086</ele>
      </trkpt>
      <trkpt lat="36.75847" lon="27.77586">
        <ele>6</ele>
      </trkpt>
      <trkpt lat="36.75847" lon="27.77586">
        <ele>6</ele>
      </trkpt>
      <trkpt lat="36.75832" lon="27.77559">
      </trkpt>
      <trkpt lat="36.75832" lon="27.77559">
      </trkpt>
      <trkpt lat="36.75842" lon="27.77535">
        <ele>5.4</ele>
      </trkpt>
      <trkpt lat="36.75865" lon="27.77518">
        <ele>5.2</ele>
      </trkpt>
      <trkpt lat="36.75885" lon="27.77502">
        <ele>5</ele>
      </trkpt>
      <trkpt lat="36.75906" lon="27.77482">
        <ele>1.839</ele>
      </trkpt>
      <trkpt lat="36.75924" lon="27.77465">
        <ele>1.714</ele>
      </trkpt>
      <trkpt lat="36.75938" lon="27.77441">
        <ele>5.055</ele>
      </trkpt>
      <trkpt lat="36.7596" lon="27.7742">
        <ele>4.755</ele>
      </trkpt>
      <trkpt lat="36.75977" lon="27.77399">
        <ele>4.558</ele>
      </trkpt>
      <trkpt lat="36.75998" lon="27.77374">
        <ele>6.843</ele>
      </trkpt>
      <trkpt lat="36.76013" lon="27.77343">
        <ele>9.628</ele>
      </trkpt>
      <trkpt lat="36.76028" lon="27.77311">
        <ele>9.142</ele>
      </trkpt>
      <trkpt lat="36.7604" lon="27.77284">
        <ele>3.804</ele>
      </trkpt>
      <trkpt lat="36.76053" lon="27.77261">
        <ele>2.169</ele>
      </trkpt>
      <trkpt lat="36.76065" lon="27.77234">
        <ele>1.658</ele>
      </trkpt>
      <trkpt lat="36.76077" lon="27.77203">
        <ele>1.203</ele>
      </trkpt>
      <trkpt lat="36.76092" lon="27.77171">
        <ele>2.413</ele>
      </trkpt>
      <trkpt lat="36.761" lon="27.77138">
        <ele>5.484</ele>
      </trkpt>
      <trkpt lat="36.76106" lon="27.77095">
        <ele>6.922</ele>
      </trkpt>
      <trkpt lat="36.76129" lon="27.7705">
        <ele>7.66</ele>
      </trkpt>
      <trkpt lat="36.76138" lon="27.76996">
        <ele>4.63</ele>
      </trkpt>
      <trkpt lat="36.76142" lon="27.76957">
        <ele>3.139</ele>
      </trkpt>
      <trkpt lat="36.76156" lon="27.76919">
        <ele>3.973</ele>
      </trkpt>
      <trkpt lat="36.76158" lon="27.76867">
        <ele>3.652</ele>
      </trkpt>
      <trkpt lat="36.76167" lon="27.76834">
        <ele>3.036</ele>
      </trkpt>
      <trkpt lat="36.76178" lon="27.76803">
        <ele>3.477</ele>
      </trkpt>
      <trkpt lat="36.76182" lon="27.76763">
        <ele>4</ele>
      </trkpt>
      <trkpt lat="36.76189" lon="27.76731">
        <ele>4</ele>
      </trkpt>
      <trkpt lat="36.76201" lon="27.76683">
        <ele>4.315</ele>
      </trkpt>
      <trkpt lat="36.762" lon="27.76646">
        <ele>4.672</ele>
      </trkpt>
      <trkpt lat="36.76201" lon="27.76611">
        <ele>3.011</ele>
      </trkpt>
      <trkpt lat="36.762" lon="27.76573">
        <ele>1.585</ele>
      </trkpt>
      <trkpt lat="36.762" lon="27.76538">
        <ele>2.189</ele>
      </trkpt>
      <trkpt lat="36.76204" lon="27.76502">
        <ele>3.262</ele>
      </trkpt>
      <trkpt lat="36.7621" lon="27.76462">
        <ele>3.382</ele>
      </trkpt>
      <trkpt lat="36.76223" lon="27.76428">
        <ele>5.212</ele>
      </trkpt>
      <trkpt lat="36.76233" lon="27.764">
        <ele>7.57</ele>
      </trkpt>
      <trkpt lat="36.76224" lon="27.76353">
        <ele>8.753</ele>
      </trkpt>
      <trkpt lat="36.76232" lon="27.76305">
        <ele>6</ele>
      </trkpt>
      <trkpt lat="36.76255" lon="27.76253">
        <ele>6.169</ele>
      </trkpt>
      <trkpt lat="36.76258" lon="27.76215">
        <ele>6.479</ele>
      </trkpt>
      <trkpt lat="36.76271" lon="27.7616">
        <ele>7.565</ele>
      </trkpt>
      <trkpt lat="36.76285" lon="27.76123">
        <ele>6.692</ele>
      </trkpt>
      <trkpt lat="36.76288" lon="27.76078">
        <ele>5.355</ele>
      </trkpt>
      <trkpt lat="36.76292" lon="27.76041">
        <ele>5.76</ele>
      </trkpt>
      <trkpt lat="36.76297" lon="27.76008">
        <ele>6.488</ele>
      </trkpt>
      <trkpt lat="36.76309" lon="27.75975">
        <ele>7</ele>
      </trkpt>
      <trkpt lat="36.76317" lon="27.75944">
        <ele>5.557</ele>
      </trkpt>
      <trkpt lat="36.76326" lon="27.75912">
        <ele>5</ele>
      </trkpt>
      <trkpt lat="36.76314" lon="27.75871">
        <ele>5.436</ele>
      </trkpt>
      <trkpt lat="36.76317" lon="27.75835">
        <ele>5.982</ele>
      </trkpt>
      <trkpt lat="36.76323" lon="27.75798">
        <ele>3.228</ele>
      </trkpt>
      <trkpt lat="36.76335" lon="27.75763">
        <ele>0.32</ele>
      </trkpt>
      <trkpt lat="36.76343" lon="27.75727">
        <ele>1.453</ele>
      </trkpt>
      <trkpt lat="36.7635" lon="27.75689">
        <ele>3.15</ele>
      </trkpt>
      <trkpt lat="36.76349" lon="27.75649">
        <ele>3.311</ele>
      </trkpt>
      <trkpt lat="36.76345" lon="27.75613">
        <ele>2.513</ele>
      </trkpt>
      <trkpt lat="36.76352" lon="27.75585">
        <ele>3.314</ele>
      </trkpt>
      <trkpt lat="36.76354" lon="27.75578">
        <ele>2.962</ele>
      </trkpt>
      <trkpt lat="36.76442" lon="27.7545">
        <ele>1.298</ele>
      </trkpt>
      <trkpt lat="36.76396" lon="27.75319">
        <ele>1</ele>
      </trkpt>
      <trkpt lat="36.76403" lon="27.75206">
        <ele>1.872</ele>
      </trkpt>
      <trkpt lat="36.7638" lon="27.7508">
      </trkpt>
      <trkpt lat="36.76379" lon="27.74962">
      </trkpt>
      <trkpt lat="36.76403" lon="27.74842">
        <ele>1</ele>
      </trkpt>
      <trkpt lat="36.76411" lon="27.74737">
        <ele>1.112</ele>
      </trkpt>
      <trkpt lat="36.76405" lon="27.74603">
        <ele>1.787</ele>
      </trkpt>
      <trkpt lat="36.76442" lon="27.7446">
        <ele>4</ele>
      </trkpt>
      <trkpt lat="36.76472" lon="27.74361">
        <ele>3</ele>
      </trkpt>
      <trkpt lat="36.76502" lon="27.74262">
        <ele>3.583</ele>
      </trkpt>
      <trkpt lat="36.76465" lon="27.74135">
        <ele>4</ele>
      </trkpt>
      <trkpt lat="36.76428" lon="27.74008">
        <ele>4.9</ele>
      </trkpt>
      <trkpt lat="36.76391" lon="27.7388">
        <ele>1</ele>
      </trkpt>
      <trkpt lat="36.76408" lon="27.73761">
        <ele>1</ele>
      </trkpt>
      <trkpt lat="36.76369" lon="27.73625">
        <ele>3.5</ele>
      </trkpt>
      <trkpt lat="36.7633" lon="27.7349">
        <ele>3.473</ele>
      </trkpt>
      <trkpt lat="36.76289" lon="27.73349">
        <ele>1.5</ele>
      </trkpt>
      <trkpt lat="36.7625" lon="27.73214">
        <ele>1</ele>
      </trkpt>
      <trkpt lat="36.76294" lon="27.731">
        <ele>1.8</ele>
      </trkpt>
      <trkpt lat="36.7627" lon="27.73135">
        <ele>1.4</ele>
      </trkpt>
      <trkpt lat="36.76269" lon="27.73139">
        <ele>1.3</ele>
      </trkpt>
      <trkpt lat="36.76225" lon="27.73039">
        <ele>1</ele>
      </trkpt>
      <trkpt lat="36.76228" lon="27.73038">
        <ele>1</ele>
      </trkpt>
      <trkpt lat="36.76228" lon="27.73034">
        <ele>1</ele>
      </trkpt>
      <trkpt lat="36.76227" lon="27.73028">
        <ele>1</ele>
      </trkpt>
      <trkpt lat="36.7615" lon="27.72779">
        <ele>1</ele>
      </trkpt>
      <trkpt lat="36.76149" lon="27.72775">
        <ele>1</ele>
      </trkpt>
      <trkpt lat="36.76148" lon="27.7277">
        <ele>1</ele>
      </trkpt>
      <trkpt lat="36.76146" lon="27.72764">
        <ele>1</ele>
      </trkpt>
      <trkpt lat="36.76144" lon="27.72759">
        <ele>1</ele>
      </trkpt>
      <trkpt lat="36.76142" lon="27.72753">
        <ele>1</ele>
      </trkpt>
      <trkpt lat="36.76141" lon="27.72749">
        <ele>0.003</ele>
      </trkpt>
      <trkpt lat="36.7614" lon="27.72746">
        <ele>0.012</ele>
      </trkpt>
      <trkpt lat="36.76139" lon="27.72743">
        <ele>1.2</ele>
      </trkpt>
      <trkpt lat="36.76137" lon="27.72739">
        <ele>1.3</ele>
      </trkpt>
      <trkpt lat="36.76134" lon="27.72732">
        <ele>1.4</ele>
      </trkpt>
      <trkpt lat="36.76132" lon="27.72729">
        <ele>1.5</ele>
      </trkpt>
      <trkpt lat="36.76132" lon="27.72725">
        <ele>1.6</ele>
      </trkpt>
      <trkpt lat="36.76131" lon="27.72722">
        <ele>0.021</ele>
      </trkpt>
      <trkpt lat="36.76129" lon="27.72718">
        <ele>0.219</ele>
      </trkpt>
      <trkpt lat="36.76128" lon="27.72713">
        <ele>0.415</ele>
      </trkpt>
      <trkpt lat="36.76127" lon="27.72709">
        <ele>0.571</ele>
      </trkpt>
      <trkpt lat="36.76126" lon="27.72705">
        <ele>0.673</ele>
      </trkpt>
      <trkpt lat="36.76125" lon="27.72701">
        <ele>0.775</ele>
      </trkpt>
      <trkpt lat="36.76125" lon="27.72698">
        <ele>0.847</ele>
      </trkpt>
      <trkpt lat="36.76123" lon="27.72694">
        <ele>0.841</ele>
      </trkpt>
      <trkpt lat="36.76122" lon="27.7269">
        <ele>0.755</ele>
      </trkpt>
      <trkpt lat="36.7612" lon="27.72686">
        <ele>0.625</ele>
      </trkpt>
      <trkpt lat="36.76117" lon="27.72682">
        <ele>0.417</ele>
      </trkpt>
      <trkpt lat="36.76117" lon="27.72678">
        <ele>0.388</ele>
      </trkpt>
      <trkpt lat="36.76116" lon="27.72674">
        <ele>0.352</ele>
      </trkpt>
      <trkpt lat="36.76115" lon="27.72671">
        <ele>0.302</ele>
      </trkpt>
      <trkpt lat="36.76114" lon="27.72667">
        <ele>0.215</ele>
      </trkpt>
      <trkpt lat="36.76112" lon="27.72663">
        <ele>0.086</ele>
      </trkpt>
      <trkpt lat="36.76111" lon="27.72659">
        <ele>2.9</ele>
      </trkpt>
      <trkpt lat="36.7611" lon="27.72656">
        <ele>2.9</ele>
      </trkpt>
      <trkpt lat="36.76108" lon="27.72652">
        <ele>2.8</ele>
      </trkpt>
      <trkpt lat="36.76106" lon="27.72647">
        <ele>2.8</ele>
      </trkpt>
      <trkpt lat="36.76104" lon="27.7264">
        <ele>2.7</ele>
      </trkpt>
      <trkpt lat="36.76103" lon="27.72636">
        <ele>2.6</ele>
      </trkpt>
      <trkpt lat="36.76102" lon="27.72633">
        <ele>2.6</ele>
      </trkpt>
      <trkpt lat="36.76101" lon="27.72629">
        <ele>2.5</ele>
      </trkpt>
      <trkpt lat="36.761" lon="27.72625">
        <ele>2.5</ele>
      </trkpt>
      <trkpt lat="36.761" lon="27.72621">
        <ele>2.5</ele>
      </trkpt>
      <trkpt lat="36.76098" lon="27.72617">
        <ele>2.4</ele>
      </trkpt>
      <trkpt lat="36.76098" lon="27.72613">
        <ele>2.4</ele>
      </trkpt>
      <trkpt lat="36.76096" lon="27.7261">
        <ele>0.024</ele>
      </trkpt>
      <trkpt lat="36.76093" lon="27.72603">
        <ele>0.107</ele>
      </trkpt>
      <trkpt lat="36.76092" lon="27.72599">
        <ele>0.136</ele>
      </trkpt>
      <trkpt lat="36.76092" lon="27.72596">
        <ele>0.165</ele>
      </trkpt>
      <trkpt lat="36.7609" lon="27.72592">
        <ele>0.172</ele>
      </trkpt>
      <trkpt lat="36.76089" lon="27.72589">
        <ele>0.177</ele>
      </trkpt>
      <trkpt lat="36.76089" lon="27.72585">
        <ele>0.184</ele>
      </trkpt>
      <trkpt lat="36.76088" lon="27.7258">
        <ele>0.172</ele>
      </trkpt>
      <trkpt lat="36.76086" lon="27.72574">
        <ele>0.107</ele>
      </trkpt>
      <trkpt lat="36.76085" lon="27.72567">
        <ele>0.049</ele>
      </trkpt>
      <trkpt lat="36.76084" lon="27.72564">
        <ele>0.006</ele>
      </trkpt>
      <trkpt lat="36.76081" lon="27.72558">
        <ele>1</ele>
      </trkpt>
      <trkpt lat="36.7608" lon="27.72554">
        <ele>0.04</ele>
      </trkpt>
      <trkpt lat="36.76079" lon="27.72548">
        <ele>0.218</ele>
      </trkpt>
      <trkpt lat="36.76076" lon="27.72546">
        <ele>0.269</ele>
      </trkpt>
      <trkpt lat="36.76074" lon="27.72543">
        <ele>0.298</ele>
      </trkpt>
      <trkpt lat="36.76072" lon="27.72538">
        <ele>0.385</ele>
      </trkpt>
      <trkpt lat="36.76071" lon="27.72534">
        <ele>0.421</ele>
      </trkpt>
      <trkpt lat="36.76069" lon="27.72528">
        <ele>0.473</ele>
      </trkpt>
      <trkpt lat="36.76067" lon="27.72523">
        <ele>0.394</ele>
      </trkpt>
      <trkpt lat="36.76065" lon="27.72518">
        <ele>0.347</ele>
      </trkpt>
      <trkpt lat="36.76064" lon="27.72515">
        <ele>0.315</ele>
      </trkpt>
      <trkpt lat="36.76063" lon="27.72509">
        <ele>0.254</ele>
      </trkpt>
      <trkpt lat="36.76062" lon="27.72506">
        <ele>0.232</ele>
      </trkpt>
      <trkpt lat="36.76058" lon="27.72501">
        <ele>0.102</ele>
      </trkpt>
      <trkpt lat="36.76056" lon="27.72498">
        <ele>0.027</ele>
      </trkpt>
      <trkpt lat="36.76054" lon="27.72492">
        <ele>1.1</ele>
      </trkpt>
      <trkpt lat="36.76052" lon="27.72489">
        <ele>1.1</ele>
      </trkpt>
      <trkpt lat="36.76051" lon="27.72486">
        <ele>1.2</ele>
      </trkpt>
      <trkpt lat="36.7605" lon="27.72482">
        <ele>1.2</ele>
      </trkpt>
      <trkpt lat="36.76048" lon="27.72479">
        <ele>1.3</ele>
      </trkpt>
      <trkpt lat="36.76047" lon="27.72475">
        <ele>1.3</ele>
      </trkpt>
      <trkpt lat="36.76046" lon="27.72472">
        <ele>1.3</ele>
      </trkpt>
      <trkpt lat="36.76046" lon="27.72467">
        <ele>1.4</ele>
      </trkpt>
      <trkpt lat="36.76045" lon="27.72464">
        <ele>1.4</ele>
      </trkpt>
      <trkpt lat="36.76043" lon="27.7246">
        <ele>1.5</ele>
      </trkpt>
      <trkpt lat="36.76041" lon="27.72454">
        <ele>1.6</ele>
      </trkpt>
      <trkpt lat="36.7604" lon="27.72448">
        <ele>1.6</ele>
      </trkpt>
      <trkpt lat="36.7604" lon="27.72445">
        <ele>1.7</ele>
      </trkpt>
      <trkpt lat="36.76037" lon="27.72442">
        <ele>0.062</ele>
      </trkpt>
      <trkpt lat="36.76034" lon="27.72439">
        <ele>0.086</ele>
      </trkpt>
      <trkpt lat="36.76032" lon="27.72435">
        <ele>0.113</ele>
      </trkpt>
      <trkpt lat="36.76031" lon="27.72431">
        <ele>0.099</ele>
      </trkpt>
      <trkpt lat="36.76031" lon="27.72426">
        <ele>0.14</ele>
      </trkpt>
      <trkpt lat="36.76031" lon="27.72422">
        <ele>0.172</ele>
      </trkpt>
      <trkpt lat="36.76027" lon="27.72419">
        <ele>2</ele>
      </trkpt>
      <trkpt lat="36.76026" lon="27.72416">
        <ele>2</ele>
      </trkpt>
      <trkpt lat="36.76025" lon="27.72412">
        <ele>2</ele>
      </trkpt>
      <trkpt lat="36.76022" lon="27.7241">
        <ele>2</ele>
      </trkpt>
      <trkpt lat="36.76021" lon="27.72406">
        <ele>2</ele>
      </trkpt>
      <trkpt lat="36.7602" lon="27.72401">
        <ele>1.9</ele>
      </trkpt>
      <trkpt lat="36.76018" lon="27.72397">
        <ele>1.9</ele>
      </trkpt>
      <trkpt lat="36.76016" lon="27.72393">
        <ele>1.9</ele>
      </trkpt>
      <trkpt lat="36.76015" lon="27.7239">
        <ele>1.8</ele>
      </trkpt>
      <trkpt lat="36.76013" lon="27.72386">
        <ele>0.05</ele>
      </trkpt>
      <trkpt lat="36.76012" lon="27.72383">
        <ele>0.095</ele>
      </trkpt>
      <trkpt lat="36.76009" lon="27.7238">
        <ele>0.114</ele>
      </trkpt>
      <trkpt lat="36.76009" lon="27.72376">
        <ele>0.145</ele>
      </trkpt>
      <trkpt lat="36.76007" lon="27.72373">
        <ele>0.139</ele>
      </trkpt>
      <trkpt lat="36.76005" lon="27.7237">
        <ele>0.12</ele>
      </trkpt>
      <trkpt lat="36.76004" lon="27.72366">
        <ele>0.105</ele>
      </trkpt>
      <trkpt lat="36.76002" lon="27.72363">
        <ele>0.071</ele>
      </trkpt>
      <trkpt lat="36.76001" lon="27.72359">
        <ele>0.047</ele>
      </trkpt>
      <trkpt lat="36.75998" lon="27.72353">
        <ele>1</ele>
      </trkpt>
      <trkpt lat="36.75998" lon="27.72348">
        <ele>1</ele>
      </trkpt>
      <trkpt lat="36.75997" lon="27.72343">
        <ele>1</ele>
      </trkpt>
      <trkpt lat="36.75996" lon="27.7234">
        <ele>1</ele>
      </trkpt>
      <trkpt lat="36.75994" lon="27.72336">
        <ele>1</ele>
      </trkpt>
      <trkpt lat="36.75993" lon="27.72332">
        <ele>0.038</ele>
      </trkpt>
      <trkpt lat="36.75989" lon="27.72328">
        <ele>0.118</ele>
      </trkpt>
      <trkpt lat="36.75988" lon="27.72325">
        <ele>0.176</ele>
      </trkpt>
      <trkpt lat="36.75986" lon="27.7232">
        <ele>0.226</ele>
      </trkpt>
      <trkpt lat="36.75985" lon="27.72317">
        <ele>0.275</ele>
      </trkpt>
      <trkpt lat="36.75984" lon="27.72312">
        <ele>0.321</ele>
      </trkpt>
      <trkpt lat="36.75983" lon="27.72305">
        <ele>0.395</ele>
      </trkpt>
      <trkpt lat="36.75981" lon="27.72303">
        <ele>0.327</ele>
      </trkpt>
      <trkpt lat="36.7598" lon="27.72299">
        <ele>0.28</ele>
      </trkpt>
      <trkpt lat="36.75978" lon="27.72292">
        <ele>0.201</ele>
      </trkpt>
      <trkpt lat="36.75976" lon="27.7229">
        <ele>0.122</ele>
      </trkpt>
      <trkpt lat="36.75974" lon="27.72287">
        <ele>0.06</ele>
      </trkpt>
      <trkpt lat="36.75973" lon="27.72283">
        <ele>0.014</ele>
      </trkpt>
      <trkpt lat="36.7597" lon="27.72281">
        <ele>1</ele>
      </trkpt>
      <trkpt lat="36.75969" lon="27.72277">
        <ele>1</ele>
      </trkpt>
      <trkpt lat="36.75968" lon="27.72273">
        <ele>1</ele>
      </trkpt>
      <trkpt lat="36.75966" lon="27.72269">
        <ele>1</ele>
      </trkpt>
      <trkpt lat="36.75965" lon="27.72265">
        <ele>1</ele>
      </trkpt>
      <trkpt lat="36.75964" lon="27.72261">
        <ele>1</ele>
      </trkpt>
      <trkpt lat="36.75961" lon="27.72256">
        <ele>1</ele>
      </trkpt>
      <trkpt lat="36.7596" lon="27.72252">
        <ele>1</ele>
      </trkpt>
      <trkpt lat="36.75956" lon="27.72247">
        <ele>1</ele>
      </trkpt>
      <trkpt lat="36.75954" lon="27.72244">
        <ele>1</ele>
      </trkpt>
      <trkpt lat="36.75954" lon="27.72241">
        <ele>1</ele>
      </trkpt>
      <trkpt lat="36.75952" lon="27.72237">
        <ele>1</ele>
      </trkpt>
      <trkpt lat="36.75949" lon="27.72233">
        <ele>1</ele>
      </trkpt>
      <trkpt lat="36.75949" lon="27.7223">
        <ele>1</ele>
      </trkpt>
      <trkpt lat="36.75947" lon="27.72226">
        <ele>1</ele>
      </trkpt>
      <trkpt lat="36.75945" lon="27.72223">
        <ele>1</ele>
      </trkpt>
      <trkpt lat="36.75943" lon="27.7222">
        <ele>1</ele>
      </trkpt>
      <trkpt lat="36.75941" lon="27.72217">
        <ele>1</ele>
      </trkpt>
      <trkpt lat="36.7594" lon="27.72213">
        <ele>1</ele>
      </trkpt>
      <trkpt lat="36.75944" lon="27.72211">
        <ele>1</ele>
      </trkpt>
      <trkpt lat="36.75942" lon="27.72206">
        <ele>1</ele>
      </trkpt>
      <trkpt lat="36.7594" lon="27.72203">
        <ele>1</ele>
      </trkpt>
      <trkpt lat="36.7594" lon="27.72199">
        <ele>1</ele>
      </trkpt>
      <trkpt lat="36.75937" lon="27.72196">
        <ele>1</ele>
      </trkpt>
      <trkpt lat="36.75937" lon="27.72192">
        <ele>1</ele>
      </trkpt>
      <trkpt lat="36.75936" lon="27.72188">
        <ele>1</ele>
      </trkpt>
      <trkpt lat="36.75935" lon="27.72183">
        <ele>1</ele>
      </trkpt>
      <trkpt lat="36.75937" lon="27.72177">
        <ele>1</ele>
      </trkpt>
      <trkpt lat="36.75936" lon="27.72175">
        <ele>1</ele>
      </trkpt>
      <trkpt lat="36.75935" lon="27.72171">
        <ele>1</ele>
      </trkpt>
      <trkpt lat="36.75938" lon="27.72164">
        <ele>1</ele>
      </trkpt>
      <trkpt lat="36.75938" lon="27.72159">
        <ele>1.1</ele>
      </trkpt>
      <trkpt lat="36.75938" lon="27.72155">
        <ele>1.1</ele>
      </trkpt>
      <trkpt lat="36.75938" lon="27.7215">
        <ele>1.2</ele>
      </trkpt>
      <trkpt lat="36.75938" lon="27.72146">
        <ele>1.2</ele>
      </trkpt>
      <trkpt lat="36.75938" lon="27.72141">
        <ele>1.2</ele>
      </trkpt>
      <trkpt lat="36.75938" lon="27.72135">
        <ele>1.3</ele>
      </trkpt>
      <trkpt lat="36.75938" lon="27.72129">
        <ele>1.3</ele>
      </trkpt>
      <trkpt lat="36.75936" lon="27.72122">
        <ele>1.4</ele>
      </trkpt>
      <trkpt lat="36.75933" lon="27.72117">
        <ele>1.4</ele>
      </trkpt>
      <trkpt lat="36.7593" lon="27.72112">
        <ele>1.3</ele>
      </trkpt>
      <trkpt lat="36.75927" lon="27.7211">
        <ele>0.042</ele>
      </trkpt>
      <trkpt lat="36.75923" lon="27.72106">
        <ele>0.077</ele>
      </trkpt>
      <trkpt lat="36.75919" lon="27.72102">
        <ele>0.053</ele>
      </trkpt>
      <trkpt lat="36.75915" lon="27.72098">
        <ele>1</ele>
      </trkpt>
      <trkpt lat="36.75912" lon="27.72094">
        <ele>1</ele>
      </trkpt>
      <trkpt lat="36.7591" lon="27.7209">
        <ele>1</ele>
      </trkpt>
      <trkpt lat="36.75907" lon="27.72085">
        <ele>1</ele>
      </trkpt>
      <trkpt lat="36.75904" lon="27.72081">
        <ele>0.042</ele>
      </trkpt>
      <trkpt lat="36.75902" lon="27.72077">
        <ele>0.097</ele>
      </trkpt>
      <trkpt lat="36.75899" lon="27.72073">
        <ele>0.131</ele>
      </trkpt>
      <trkpt lat="36.75896" lon="27.72069">
        <ele>0.14</ele>
      </trkpt>
      <trkpt lat="36.75894" lon="27.72064">
        <ele>0.127</ele>
      </trkpt>
      <trkpt lat="36.75892" lon="27.7206">
        <ele>0.083</ele>
      </trkpt>
      <trkpt lat="36.75889" lon="27.72056">
        <ele>0.014</ele>
      </trkpt>
      <trkpt lat="36.75886" lon="27.72052">
        <ele>0.114</ele>
      </trkpt>
      <trkpt lat="36.75884" lon="27.72048">
        <ele>0.279</ele>
      </trkpt>
      <trkpt lat="36.75883" lon="27.72044">
        <ele>0.402</ele>
      </trkpt>
      <trkpt lat="36.75883" lon="27.7204">
        <ele>0.564</ele>
      </trkpt>
      <trkpt lat="36.75882" lon="27.72035">
        <ele>0.733</ele>
      </trkpt>
      <trkpt lat="36.75882" lon="27.72031">
        <ele>0.873</ele>
      </trkpt>
      <trkpt lat="36.75883" lon="27.72027">
        <ele>1</ele>
      </trkpt>
      <trkpt lat="36.75883" lon="27.72023">
        <ele>1</ele>
      </trkpt>
      <trkpt lat="36.75884" lon="27.72018">
        <ele>1</ele>
      </trkpt>
      <trkpt lat="36.75885" lon="27.72014">
        <ele>1</ele>
      </trkpt>
      <trkpt lat="36.75886" lon="27.72009">
        <ele>1</ele>
      </trkpt>
      <trkpt lat="36.75888" lon="27.72005">
        <ele>1</ele>
      </trkpt>
      <trkpt lat="36.7589" lon="27.72001">
        <ele>1</ele>
      </trkpt>
      <trkpt lat="36.75892" lon="27.71996">
        <ele>1.34</ele>
      </trkpt>
      <trkpt lat="36.75894" lon="27.71992">
        <ele>1.649</ele>
      </trkpt>
      <trkpt lat="36.75896" lon="27.71988">
        <ele>2.006</ele>
      </trkpt>
      <trkpt lat="36.75899" lon="27.71984">
        <ele>2.325</ele>
      </trkpt>
      <trkpt lat="36.75901" lon="27.7198">
        <ele>2.746</ele>
      </trkpt>
      <trkpt lat="36.75903" lon="27.71977">
        <ele>3.092</ele>
      </trkpt>
      <trkpt lat="36.75905" lon="27.71973">
        <ele>3.485</ele>
      </trkpt>
      <trkpt lat="36.75906" lon="27.7197">
        <ele>3.789</ele>
      </trkpt>
      <trkpt lat="36.75908" lon="27.71966">
        <ele>4.02</ele>
      </trkpt>
      <trkpt lat="36.75911" lon="27.71962">
        <ele>4.32</ele>
      </trkpt>
      <trkpt lat="36.7591" lon="27.71959">
        <ele>4.491</ele>
      </trkpt>
      <trkpt lat="36.75909" lon="27.71955">
        <ele>4.672</ele>
      </trkpt>
      <trkpt lat="36.75907" lon="27.71951">
        <ele>4.95</ele>
      </trkpt>
      <trkpt lat="36.75907" lon="27.71945">
        <ele>5.304</ele>
      </trkpt>
      <trkpt lat="36.75904" lon="27.71942">
        <ele>5.507</ele>
      </trkpt>
      <trkpt lat="36.75901" lon="27.71939">
        <ele>5.657</ele>
      </trkpt>
      <trkpt lat="36.75897" lon="27.71935">
        <ele>5.812</ele>
      </trkpt>
      <trkpt lat="36.75893" lon="27.71931">
        <ele>5.931</ele>
      </trkpt>
      <trkpt lat="36.75889" lon="27.71927">
        <ele>5.996</ele>
      </trkpt>
      <trkpt lat="36.75886" lon="27.71921">
        <ele>6.034</ele>
      </trkpt>
      <trkpt lat="36.75883" lon="27.71917">
        <ele>6.211</ele>
      </trkpt>
      <trkpt lat="36.7588" lon="27.71912">
        <ele>6.395</ele>
      </trkpt>
      <trkpt lat="36.75875" lon="27.71906">
        <ele>6.675</ele>
      </trkpt>
      <trkpt lat="36.75872" lon="27.71903">
        <ele>6.916</ele>
      </trkpt>
      <trkpt lat="36.75869" lon="27.719">
        <ele>7.151</ele>
      </trkpt>
      <trkpt lat="36.75864" lon="27.71894">
        <ele>7.634</ele>
      </trkpt>
      <trkpt lat="36.75861" lon="27.71891">
        <ele>7.915</ele>
      </trkpt>
      <trkpt lat="36.7586" lon="27.71887">
        <ele>8.112</ele>
      </trkpt>
      <trkpt lat="36.75857" lon="27.71881">
        <ele>8.407</ele>
      </trkpt>
      <trkpt lat="36.75855" lon="27.71878">
        <ele>8.541</ele>
      </trkpt>
      <trkpt lat="36.75852" lon="27.71875">
        <ele>8.659</ele>
      </trkpt>
      <trkpt lat="36.7585" lon="27.71872">
        <ele>8.768</ele>
      </trkpt>
      <trkpt lat="36.75847" lon="27.71866">
        <ele>8.921</ele>
      </trkpt>
      <trkpt lat="36.75844" lon="27.7186">
        <ele>8.945</ele>
      </trkpt>
      <trkpt lat="36.75843" lon="27.71856">
        <ele>8.831</ele>
      </trkpt>
      <trkpt lat="36.75841" lon="27.71854">
        <ele>8.737</ele>
      </trkpt>
      <trkpt lat="36.75839" lon="27.71851">
        <ele>8.618</ele>
      </trkpt>
      <trkpt lat="36.75837" lon="27.71847">
        <ele>8.496</ele>
      </trkpt>
      <trkpt lat="36.75835" lon="27.71843">
        <ele>8.348</ele>
      </trkpt>
      <trkpt lat="36.75832" lon="27.71837">
        <ele>7.992</ele>
      </trkpt>
      <trkpt lat="36.75828" lon="27.71832">
        <ele>7.33</ele>
      </trkpt>
      <trkpt lat="36.75822" lon="27.71833">
        <ele>6.735</ele>
      </trkpt>
      <trkpt lat="36.75825" lon="27.71828">
        <ele>6.97</ele>
      </trkpt>
      <trkpt lat="36.75826" lon="27.71822">
        <ele>6.872</ele>
      </trkpt>
      <trkpt lat="36.75824" lon="27.71819">
        <ele>6.627</ele>
      </trkpt>
      <trkpt lat="36.75822" lon="27.71814">
        <ele>6.397</ele>
      </trkpt>
      <trkpt lat="36.75819" lon="27.7181">
        <ele>6.052</ele>
      </trkpt>
      <trkpt lat="36.75819" lon="27.7181">
        <ele>6.052</ele>
      </trkpt>
      <trkpt lat="36.75816" lon="27.71805">
        <ele>5.793</ele>
      </trkpt>
      <trkpt lat="36.75815" lon="27.71802">
        <ele>5.808</ele>
      </trkpt>
      <trkpt lat="36.75811" lon="27.71797">
        <ele>5.707</ele>
      </trkpt>
      <trkpt lat="36.7581" lon="27.71794">
        <ele>5.7</ele>
      </trkpt>
      <trkpt lat="36.75807" lon="27.71791">
        <ele>5.61</ele>
      </trkpt>
      <trkpt lat="36.75804" lon="27.71787">
        <ele>5.48</ele>
      </trkpt>
      <trkpt lat="36.75802" lon="27.71783">
        <ele>5.483</ele>
      </trkpt>
      <trkpt lat="36.75801" lon="27.7178">
        <ele>5.438</ele>
      </trkpt>
      <trkpt lat="36.75798" lon="27.71776">
        <ele>5.207</ele>
      </trkpt>
      <trkpt lat="36.75796" lon="27.71772">
        <ele>5.143</ele>
      </trkpt>
      <trkpt lat="36.75794" lon="27.71767">
        <ele>4.964</ele>
      </trkpt>
      <trkpt lat="36.75793" lon="27.71763">
        <ele>4.87</ele>
      </trkpt>
      <trkpt lat="36.7579" lon="27.71759">
        <ele>4.666</ele>
      </trkpt>
      <trkpt lat="36.75789" lon="27.71756">
        <ele>4.498</ele>
      </trkpt>
      <trkpt lat="36.75786" lon="27.71751">
        <ele>4.199</ele>
      </trkpt>
      <trkpt lat="36.75784" lon="27.71748">
        <ele>4.047</ele>
      </trkpt>
      <trkpt lat="36.75781" lon="27.71743">
        <ele>3.859</ele>
      </trkpt>
      <trkpt lat="36.75777" lon="27.71739">
        <ele>3.729</ele>
      </trkpt>
      <trkpt lat="36.75773" lon="27.71736">
        <ele>3.599</ele>
      </trkpt>
      <trkpt lat="36.75773" lon="27.71732">
        <ele>3.956</ele>
      </trkpt>
      <trkpt lat="36.75776" lon="27.7173">
        <ele>4.299</ele>
      </trkpt>
      <trkpt lat="36.75776" lon="27.71733">
        <ele>4.015</ele>
      </trkpt>
      <trkpt lat="36.75774" lon="27.71729">
        <ele>4.205</ele>
      </trkpt>
      <trkpt lat="36.75773" lon="27.71723">
        <ele>4.565</ele>
      </trkpt>
      <trkpt lat="36.75772" lon="27.7172">
        <ele>4.731</ele>
      </trkpt>
      <trkpt lat="36.75768" lon="27.71718">
        <ele>4.545</ele>
      </trkpt>
      <trkpt lat="36.75766" lon="27.71714">
        <ele>4.616</ele>
      </trkpt>
      <trkpt lat="36.75764" lon="27.7171">
        <ele>4.627</ele>
      </trkpt>
      <trkpt lat="36.75761" lon="27.71706">
        <ele>4.587</ele>
      </trkpt>
      <trkpt lat="36.75758" lon="27.71706">
        <ele>4.352</ele>
      </trkpt>
      <trkpt lat="36.75755" lon="27.71705">
        <ele>4.092</ele>
      </trkpt>
      <trkpt lat="36.75752" lon="27.71707">
        <ele>3.69</ele>
      </trkpt>
      <trkpt lat="36.75748" lon="27.7171">
        <ele>3.225</ele>
      </trkpt>
      <trkpt lat="36.75746" lon="27.71712">
        <ele>2.942</ele>
      </trkpt>
      <trkpt lat="36.75743" lon="27.71715">
        <ele>2.639</ele>
      </trkpt>
      <trkpt lat="36.75738" lon="27.71717">
        <ele>2.119</ele>
      </trkpt>
      <trkpt lat="36.75735" lon="27.71722">
        <ele>1.887</ele>
      </trkpt>
      <trkpt lat="36.7573" lon="27.71723">
        <ele>1.539</ele>
      </trkpt>
      <trkpt lat="36.75728" lon="27.71726">
        <ele>1.355</ele>
      </trkpt>
      <trkpt lat="36.75726" lon="27.71727">
        <ele>1.174</ele>
      </trkpt>
      <trkpt lat="36.75722" lon="27.7173">
        <ele>0.999</ele>
      </trkpt>
      <trkpt lat="36.75718" lon="27.71734">
        <ele>0.94</ele>
      </trkpt>
      <trkpt lat="36.75715" lon="27.71735">
        <ele>0.887</ele>
      </trkpt>
      <trkpt lat="36.75712" lon="27.71735">
        <ele>0.82</ele>
      </trkpt>
      <trkpt lat="36.75707" lon="27.71734">
        <ele>0.769</ele>
      </trkpt>
      <trkpt lat="36.75703" lon="27.71731">
        <ele>0.776</ele>
      </trkpt>
      <trkpt lat="36.75699" lon="27.71728">
        <ele>0.821</ele>
      </trkpt>
      <trkpt lat="36.75696" lon="27.71724">
        <ele>0.956</ele>
      </trkpt>
      <trkpt lat="36.75692" lon="27.71718">
        <ele>0.714</ele>
      </trkpt>
      <trkpt lat="36.75689" lon="27.71712">
        <ele>0.405</ele>
      </trkpt>
      <trkpt lat="36.75684" lon="27.71706">
        <ele>0.28</ele>
      </trkpt>
      <trkpt lat="36.75679" lon="27.717">
        <ele>0.28</ele>
      </trkpt>
      <trkpt lat="36.75673" lon="27.71693">
        <ele>0.529</ele>
      </trkpt>
      <trkpt lat="36.75667" lon="27.71688">
        <ele>0.728</ele>
      </trkpt>
      <trkpt lat="36.75661" lon="27.71683">
        <ele>0.516</ele>
      </trkpt>
      <trkpt lat="36.75655" lon="27.71678">
        <ele>0.186</ele>
      </trkpt>
      <trkpt lat="36.75651" lon="27.7167">
        <ele>-0.376</ele>
      </trkpt>
      <trkpt lat="36.75647" lon="27.71663">
        <ele>-0.674</ele>
      </trkpt>
      <trkpt lat="36.75644" lon="27.71654">
        <ele>-0.756</ele>
      </trkpt>
      <trkpt lat="36.75641" lon="27.71645">
        <ele>-0.897</ele>
      </trkpt>
      <trkpt lat="36.75637" lon="27.71636">
        <ele>-0.869</ele>
      </trkpt>
      <trkpt lat="36.75632" lon="27.71628">
        <ele>-0.782</ele>
      </trkpt>
      <trkpt lat="36.75627" lon="27.71623">
        <ele>-0.863</ele>
      </trkpt>
      <trkpt lat="36.75622" lon="27.71618">
        <ele>-1.191</ele>
      </trkpt>
      <trkpt lat="36.75617" lon="27.71613">
        <ele>-1.621</ele>
      </trkpt>
      <trkpt lat="36.75612" lon="27.71609">
        <ele>-1.92</ele>
      </trkpt>
      <trkpt lat="36.75609" lon="27.71604">
        <ele>-1.509</ele>
      </trkpt>
      <trkpt lat="36.75607" lon="27.71599">
        <ele>-1.191</ele>
      </trkpt>
      <trkpt lat="36.75606" lon="27.71593">
        <ele>-0.899</ele>
      </trkpt>
      <trkpt lat="36.75606" lon="27.71586">
        <ele>-0.73</ele>
      </trkpt>
      <trkpt lat="36.75603" lon="27.71584">
        <ele>-0.418</ele>
      </trkpt>
      <trkpt lat="36.75599" lon="27.71581">
        <ele>-0.107</ele>
      </trkpt>
      <trkpt lat="36.75596" lon="27.71579">
        <ele>0.189</ele>
      </trkpt>
      <trkpt lat="36.7559" lon="27.7158">
        <ele>0.532</ele>
      </trkpt>
      <trkpt lat="36.75586" lon="27.71578">
        <ele>0.812</ele>
      </trkpt>
      <trkpt lat="36.75583" lon="27.71577">
        <ele>0.996</ele>
      </trkpt>
      <trkpt lat="36.75579" lon="27.71573">
        <ele>0.964</ele>
      </trkpt>
      <trkpt lat="36.75575" lon="27.71569">
        <ele>1.003</ele>
      </trkpt>
      <trkpt lat="36.75572" lon="27.71564">
        <ele>1.16</ele>
      </trkpt>
      <trkpt lat="36.75568" lon="27.7156">
        <ele>1.365</ele>
      </trkpt>
      <trkpt lat="36.75566" lon="27.71557">
        <ele>1.59</ele>
      </trkpt>
      <trkpt lat="36.75563" lon="27.71553">
        <ele>1.774</ele>
      </trkpt>
      <trkpt lat="36.7556" lon="27.71549">
        <ele>1.884</ele>
      </trkpt>
      <trkpt lat="36.75557" lon="27.71545">
        <ele>1.977</ele>
      </trkpt>
      <trkpt lat="36.75554" lon="27.71542">
        <ele>1.917</ele>
      </trkpt>
      <trkpt lat="36.75552" lon="27.71538">
        <ele>1.773</ele>
      </trkpt>
      <trkpt lat="36.7555" lon="27.71534">
        <ele>1.593</ele>
      </trkpt>
      <trkpt lat="36.75547" lon="27.7153">
        <ele>1.399</ele>
      </trkpt>
      <trkpt lat="36.75545" lon="27.71526">
        <ele>1.253</ele>
      </trkpt>
      <trkpt lat="36.75542" lon="27.71523">
        <ele>1.187</ele>
      </trkpt>
      <trkpt lat="36.75539" lon="27.7152">
        <ele>1.141</ele>
      </trkpt>
      <trkpt lat="36.75536" lon="27.71517">
        <ele>1.158</ele>
      </trkpt>
      <trkpt lat="36.75533" lon="27.71513">
        <ele>1.249</ele>
      </trkpt>
      <trkpt lat="36.75531" lon="27.71509">
        <ele>1.434</ele>
      </trkpt>
      <trkpt lat="36.75529" lon="27.71506">
        <ele>1.6</ele>
      </trkpt>
      <trkpt lat="36.75527" lon="27.71503">
        <ele>1.735</ele>
      </trkpt>
      <trkpt lat="36.75525" lon="27.715">
        <ele>1.823</ele>
      </trkpt>
      <trkpt lat="36.75523" lon="27.71496">
        <ele>1.596</ele>
      </trkpt>
      <trkpt lat="36.75521" lon="27.71492">
        <ele>1.344</ele>
      </trkpt>
      <trkpt lat="36.75519" lon="27.71488">
        <ele>1.192</ele>
      </trkpt>
      <trkpt lat="36.75516" lon="27.71484">
        <ele>1.074</ele>
      </trkpt>
      <trkpt lat="36.75514" lon="27.7148">
        <ele>1.01</ele>
      </trkpt>
      <trkpt lat="36.75512" lon="27.71476">
        <ele>0.981</ele>
      </trkpt>
      <trkpt lat="36.7551" lon="27.71472">
        <ele>0.997</ele>
      </trkpt>
      <trkpt lat="36.75506" lon="27.71468">
        <ele>0.966</ele>
      </trkpt>
      <trkpt lat="36.75504" lon="27.71465">
        <ele>0.961</ele>
      </trkpt>
      <trkpt lat="36.75502" lon="27.71462">
        <ele>0.974</ele>
      </trkpt>
      <trkpt lat="36.75499" lon="27.7146">
        <ele>1.007</ele>
      </trkpt>
      <trkpt lat="36.75497" lon="27.71458">
        <ele>1.063</ele>
      </trkpt>
      <trkpt lat="36.75494" lon="27.71455">
        <ele>1.168</ele>
      </trkpt>
      <trkpt lat="36.75492" lon="27.71453">
        <ele>1.321</ele>
      </trkpt>
      <trkpt lat="36.75489" lon="27.7145">
        <ele>1.532</ele>
      </trkpt>
      <trkpt lat="36.75487" lon="27.71448">
        <ele>1.751</ele>
      </trkpt>
      <trkpt lat="36.75485" lon="27.71445">
        <ele>2.092</ele>
      </trkpt>
      <trkpt lat="36.75482" lon="27.71442">
        <ele>2.426</ele>
      </trkpt>
      <trkpt lat="36.75479" lon="27.71439">
        <ele>2.804</ele>
      </trkpt>
      <trkpt lat="36.75476" lon="27.71436">
        <ele>3.275</ele>
      </trkpt>
      <trkpt lat="36.75474" lon="27.71432">
        <ele>3.734</ele>
      </trkpt>
      <trkpt lat="36.75471" lon="27.71425">
        <ele>4.343</ele>
      </trkpt>
      <trkpt lat="36.75469" lon="27.71421">
        <ele>4.646</ele>
      </trkpt>
      <trkpt lat="36.75465" lon="27.71413">
        <ele>4.868</ele>
      </trkpt>
      <trkpt lat="36.75463" lon="27.71411">
        <ele>4.778</ele>
      </trkpt>
      <trkpt lat="36.7546" lon="27.71408">
        <ele>4.685</ele>
      </trkpt>
      <trkpt lat="36.7546" lon="27.71402">
        <ele>4.465</ele>
      </trkpt>
      <trkpt lat="36.75458" lon="27.71398">
        <ele>4.335</ele>
      </trkpt>
      <trkpt lat="36.75455" lon="27.71396">
        <ele>4.271</ele>
      </trkpt>
      <trkpt lat="36.75451" lon="27.71392">
        <ele>4.115</ele>
      </trkpt>
      <trkpt lat="36.75449" lon="27.7139">
        <ele>4.047</ele>
      </trkpt>
      <trkpt lat="36.75443" lon="27.7139">
        <ele>3.973</ele>
      </trkpt>
      <trkpt lat="36.75439" lon="27.71389">
        <ele>3.808</ele>
      </trkpt>
      <trkpt lat="36.75436" lon="27.71389">
        <ele>3.686</ele>
      </trkpt>
      <trkpt lat="36.75434" lon="27.71385">
        <ele>3.351</ele>
      </trkpt>
      <trkpt lat="36.75431" lon="27.71381">
        <ele>2.963</ele>
      </trkpt>
      <trkpt lat="36.75427" lon="27.71379">
        <ele>2.703</ele>
      </trkpt>
      <trkpt lat="36.75425" lon="27.71376">
        <ele>2.329</ele>
      </trkpt>
      <trkpt lat="36.75421" lon="27.7137">
        <ele>1.778</ele>
      </trkpt>
      <trkpt lat="36.75416" lon="27.71367">
        <ele>1.403</ele>
      </trkpt>
      <trkpt lat="36.75413" lon="27.71363">
        <ele>1.222</ele>
      </trkpt>
      <trkpt lat="36.7541" lon="27.71358">
        <ele>1.211</ele>
      </trkpt>
      <trkpt lat="36.75406" lon="27.71354">
        <ele>1.276</ele>
      </trkpt>
      <trkpt lat="36.75403" lon="27.71348">
        <ele>1.258</ele>
      </trkpt>
      <trkpt lat="36.754" lon="27.71346">
        <ele>1.282</ele>
      </trkpt>
      <trkpt lat="36.75396" lon="27.71343">
        <ele>1.271</ele>
      </trkpt>
      <trkpt lat="36.75394" lon="27.71341">
        <ele>1.224</ele>
      </trkpt>
      <trkpt lat="36.75391" lon="27.71337">
        <ele>1.133</ele>
      </trkpt>
      <trkpt lat="36.75387" lon="27.71336">
        <ele>1.185</ele>
      </trkpt>
      <trkpt lat="36.75382" lon="27.71333">
        <ele>1.513</ele>
      </trkpt>
      <trkpt lat="36.75378" lon="27.71327">
        <ele>1.703</ele>
      </trkpt>
      <trkpt lat="36.75374" lon="27.71322">
        <ele>1.826</ele>
      </trkpt>
      <trkpt lat="36.75371" lon="27.71319">
        <ele>1.975</ele>
      </trkpt>
      <trkpt lat="36.75366" lon="27.71316">
        <ele>2.117</ele>
      </trkpt>
      <trkpt lat="36.75362" lon="27.71312">
        <ele>2.191</ele>
      </trkpt>
      <trkpt lat="36.75359" lon="27.71307">
        <ele>2.005</ele>
      </trkpt>
      <trkpt lat="36.75356" lon="27.71303">
        <ele>1.751</ele>
      </trkpt>
      <trkpt lat="36.75353" lon="27.71299">
        <ele>1.54</ele>
      </trkpt>
      <trkpt lat="36.75349" lon="27.71296">
        <ele>1.373</ele>
      </trkpt>
      <trkpt lat="36.75347" lon="27.71291">
        <ele>1.231</ele>
      </trkpt>
      <trkpt lat="36.75343" lon="27.71285">
        <ele>1.097</ele>
      </trkpt>
      <trkpt lat="36.75341" lon="27.71281">
        <ele>1.032</ele>
      </trkpt>
      <trkpt lat="36.75338" lon="27.71277">
        <ele>1</ele>
      </trkpt>
      <trkpt lat="36.75335" lon="27.71274">
        <ele>1</ele>
      </trkpt>
      <trkpt lat="36.75331" lon="27.71269">
        <ele>1</ele>
      </trkpt>
      <trkpt lat="36.75328" lon="27.71265">
        <ele>1</ele>
      </trkpt>
      <trkpt lat="36.75324" lon="27.7126">
        <ele>1</ele>
      </trkpt>
      <trkpt lat="36.75321" lon="27.71257">
        <ele>1</ele>
      </trkpt>
      <trkpt lat="36.75319" lon="27.71253">
        <ele>1</ele>
      </trkpt>
      <trkpt lat="36.75318" lon="27.71248">
        <ele>1.028</ele>
      </trkpt>
      <trkpt lat="36.75314" lon="27.71246">
        <ele>1.047</ele>
      </trkpt>
      <trkpt lat="36.75311" lon="27.71241">
        <ele>1.064</ele>
      </trkpt>
      <trkpt lat="36.75308" lon="27.71238">
        <ele>1.033</ele>
      </trkpt>
      <trkpt lat="36.75303" lon="27.71234">
        <ele>1</ele>
      </trkpt>
      <trkpt lat="36.75299" lon="27.71229">
        <ele>1</ele>
      </trkpt>
      <trkpt lat="36.75296" lon="27.71224">
        <ele>1</ele>
      </trkpt>
      <trkpt lat="36.75294" lon="27.7122">
        <ele>1.013</ele>
      </trkpt>
      <trkpt lat="36.7529" lon="27.71216">
        <ele>0.973</ele>
      </trkpt>
      <trkpt lat="36.75287" lon="27.71211">
        <ele>0.866</ele>
      </trkpt>
      <trkpt lat="36.75284" lon="27.71208">
        <ele>0.706</ele>
      </trkpt>
      <trkpt lat="36.75281" lon="27.71204">
        <ele>0.498</ele>
      </trkpt>
      <trkpt lat="36.75278" lon="27.71201">
        <ele>0.228</ele>
      </trkpt>
      <trkpt lat="36.75274" lon="27.71197">
        <ele>0.225</ele>
      </trkpt>
      <trkpt lat="36.75271" lon="27.71193">
        <ele>0.322</ele>
      </trkpt>
      <trkpt lat="36.75269" lon="27.7119">
        <ele>0.501</ele>
      </trkpt>
      <trkpt lat="36.75267" lon="27.71185">
        <ele>0.681</ele>
      </trkpt>
      <trkpt lat="36.75264" lon="27.7118">
        <ele>0.755</ele>
      </trkpt>
      <trkpt lat="36.75261" lon="27.71176">
        <ele>0.732</ele>
      </trkpt>
      <trkpt lat="36.75259" lon="27.71173">
        <ele>0.674</ele>
      </trkpt>
      <trkpt lat="36.75254" lon="27.71172">
        <ele>0.403</ele>
      </trkpt>
      <trkpt lat="36.75251" lon="27.71167">
        <ele>0.109</ele>
      </trkpt>
      <trkpt lat="36.75247" lon="27.71166">
        <ele>0.101</ele>
      </trkpt>
      <trkpt lat="36.75244" lon="27.71163">
        <ele>0.267</ele>
      </trkpt>
      <trkpt lat="36.75239" lon="27.7116">
        <ele>0.353</ele>
      </trkpt>
      <trkpt lat="36.75235" lon="27.71157">
        <ele>0.324</ele>
      </trkpt>
      <trkpt lat="36.75231" lon="27.71155">
        <ele>0.26</ele>
      </trkpt>
      <trkpt lat="36.75227" lon="27.71151">
        <ele>0.017</ele>
      </trkpt>
      <trkpt lat="36.75224" lon="27.71148">
        <ele>-0.256</ele>
      </trkpt>
      <trkpt lat="36.7522" lon="27.71145">
        <ele>-0.443</ele>
      </trkpt>
      <trkpt lat="36.75216" lon="27.71141">
        <ele>-0.466</ele>
      </trkpt>
      <trkpt lat="36.75213" lon="27.71136">
        <ele>-0.444</ele>
      </trkpt>
      <trkpt lat="36.7521" lon="27.71133">
        <ele>-0.395</ele>
      </trkpt>
      <trkpt lat="36.75207" lon="27.71131">
        <ele>-0.344</ele>
      </trkpt>
      <trkpt lat="36.75202" lon="27.71129">
        <ele>-0.283</ele>
      </trkpt>
      <trkpt lat="36.75196" lon="27.71125">
        <ele>-0.503</ele>
      </trkpt>
      <trkpt lat="36.75191" lon="27.71122">
        <ele>-0.589</ele>
      </trkpt>
      <trkpt lat="36.75191" lon="27.71118">
        <ele>-0.96</ele>
      </trkpt>
      <trkpt lat="36.75188" lon="27.71115">
        <ele>-1.004</ele>
      </trkpt>
      <trkpt lat="36.75185" lon="27.71109">
        <ele>-0.961</ele>
      </trkpt>
      <trkpt lat="36.75178" lon="27.71106">
        <ele>-0.104</ele>
      </trkpt>
      <trkpt lat="36.75174" lon="27.71104">
        <ele>0.246</ele>
      </trkpt>
      <trkpt lat="36.75172" lon="27.71099">
        <ele>0.528</ele>
      </trkpt>
      <trkpt lat="36.75167" lon="27.71094">
        <ele>0.997</ele>
      </trkpt>
      <trkpt lat="36.75163" lon="27.7109">
        <ele>0.966</ele>
      </trkpt>
      <trkpt lat="36.7516" lon="27.71088">
        <ele>0.961</ele>
      </trkpt>
      <trkpt lat="36.75158" lon="27.71084">
        <ele>0.994</ele>
      </trkpt>
      <trkpt lat="36.75155" lon="27.71082">
        <ele>1</ele>
      </trkpt>
      <trkpt lat="36.75152" lon="27.71078">
        <ele>1</ele>
      </trkpt>
      <trkpt lat="36.75148" lon="27.71075">
        <ele>1</ele>
      </trkpt>
      <trkpt lat="36.75144" lon="27.7107">
        <ele>1</ele>
      </trkpt>
      <trkpt lat="36.75143" lon="27.71066">
        <ele>1</ele>
      </trkpt>
      <trkpt lat="36.75141" lon="27.71061">
        <ele>1</ele>
      </trkpt>
      <trkpt lat="36.75136" lon="27.71059">
        <ele>0.878</ele>
      </trkpt>
      <trkpt lat="36.75133" lon="27.71055">
        <ele>0.808</ele>
      </trkpt>
      <trkpt lat="36.7513" lon="27.71052">
        <ele>0.804</ele>
      </trkpt>
      <trkpt lat="36.75126" lon="27.71049">
        <ele>0.761</ele>
      </trkpt>
      <trkpt lat="36.75123" lon="27.71043">
        <ele>0.869</ele>
      </trkpt>
      <trkpt lat="36.75119" lon="27.71039">
        <ele>0.88</ele>
      </trkpt>
      <trkpt lat="36.75115" lon="27.71037">
        <ele>0.808</ele>
      </trkpt>
      <trkpt lat="36.75111" lon="27.71033">
        <ele>0.808</ele>
      </trkpt>
      <trkpt lat="36.75107" lon="27.71029">
        <ele>0.809</ele>
      </trkpt>
      <trkpt lat="36.75104" lon="27.71026">
        <ele>0.804</ele>
      </trkpt>
      <trkpt lat="36.75101" lon="27.71023">
        <ele>0.812</ele>
      </trkpt>
      <trkpt lat="36.75097" lon="27.71019">
        <ele>0.804</ele>
      </trkpt>
      <trkpt lat="36.75095" lon="27.71017">
        <ele>0.79</ele>
      </trkpt>
      <trkpt lat="36.75091" lon="27.71012">
        <ele>0.826</ele>
      </trkpt>
      <trkpt lat="36.75089" lon="27.71008">
        <ele>0.909</ele>
      </trkpt>
      <trkpt lat="36.75088" lon="27.71003">
        <ele>1.06</ele>
      </trkpt>
      <trkpt lat="36.75085" lon="27.71001">
        <ele>1.028</ele>
      </trkpt>
      <trkpt lat="36.75079" lon="27.70995">
        <ele>1.226</ele>
      </trkpt>
      <trkpt lat="36.75078" lon="27.70987">
        <ele>1.64</ele>
      </trkpt>
      <trkpt lat="36.75075" lon="27.70985">
        <ele>1.578</ele>
      </trkpt>
      <trkpt lat="36.75072" lon="27.70981">
        <ele>1.694</ele>
      </trkpt>
      <trkpt lat="36.75067" lon="27.70977">
        <ele>1.582</ele>
      </trkpt>
      <trkpt lat="36.7506" lon="27.70978">
        <ele>1.064</ele>
      </trkpt>
      <trkpt lat="36.75053" lon="27.70971">
        <ele>0.923</ele>
      </trkpt>
      <trkpt lat="36.7505" lon="27.70972">
        <ele>0.809</ele>
      </trkpt>
      <trkpt lat="36.75047" lon="27.70969">
        <ele>0.728</ele>
      </trkpt>
      <trkpt lat="36.75043" lon="27.70965">
        <ele>0.681</ele>
      </trkpt>
      <trkpt lat="36.7504" lon="27.70961">
        <ele>0.665</ele>
      </trkpt>
      <trkpt lat="36.75038" lon="27.70956">
        <ele>0.722</ele>
      </trkpt>
      <trkpt lat="36.75034" lon="27.70953">
        <ele>0.775</ele>
      </trkpt>
      <trkpt lat="36.75032" lon="27.70947">
        <ele>0.912</ele>
      </trkpt>
      <trkpt lat="36.75027" lon="27.70944">
        <ele>0.962</ele>
      </trkpt>
      <trkpt lat="36.75024" lon="27.70938">
        <ele>0.904</ele>
      </trkpt>
      <trkpt lat="36.75021" lon="27.70933">
        <ele>0.855</ele>
      </trkpt>
      <trkpt lat="36.75018" lon="27.70928">
        <ele>0.859</ele>
      </trkpt>
      <trkpt lat="36.75015" lon="27.70924">
        <ele>0.887</ele>
      </trkpt>
      <trkpt lat="36.75012" lon="27.70922">
        <ele>0.894</ele>
      </trkpt>
      <trkpt lat="36.75007" lon="27.70919">
        <ele>0.938</ele>
      </trkpt>
      <trkpt lat="36.75003" lon="27.70916">
        <ele>0.985</ele>
      </trkpt>
      <trkpt lat="36.75001" lon="27.70911">
        <ele>0.8</ele>
      </trkpt>
      <trkpt lat="36.74998" lon="27.70905">
        <ele>0.609</ele>
      </trkpt>
      <trkpt lat="36.74997" lon="27.70901">
        <ele>0.516</ele>
      </trkpt>
      <trkpt lat="36.74992" lon="27.70897">
        <ele>0.488</ele>
      </trkpt>
      <trkpt lat="36.74988" lon="27.70896">
        <ele>0.571</ele>
      </trkpt>
      <trkpt lat="36.74985" lon="27.70893">
        <ele>0.616</ele>
      </trkpt>
      <trkpt lat="36.74981" lon="27.70889">
        <ele>0.694</ele>
      </trkpt>
      <trkpt lat="36.74976" lon="27.70889">
        <ele>0.88</ele>
      </trkpt>
      <trkpt lat="36.74973" lon="27.70888">
        <ele>0.987</ele>
      </trkpt>
      <trkpt lat="36.74971" lon="27.70885">
        <ele>1</ele>
      </trkpt>
      <trkpt lat="36.74967" lon="27.70881">
        <ele>1</ele>
      </trkpt>
      <trkpt lat="36.74963" lon="27.70881">
        <ele>1</ele>
      </trkpt>
      <trkpt lat="36.74958" lon="27.70877">
        <ele>1</ele>
      </trkpt>
      <trkpt lat="36.74953" lon="27.70874">
        <ele>1</ele>
      </trkpt>
      <trkpt lat="36.74948" lon="27.70873">
        <ele>1</ele>
      </trkpt>
      <trkpt lat="36.74942" lon="27.70869">
        <ele>1.164</ele>
      </trkpt>
      <trkpt lat="36.74938" lon="27.70869">
        <ele>1.408</ele>
      </trkpt>
      <trkpt lat="36.74933" lon="27.70868">
        <ele>1.712</ele>
      </trkpt>
      <trkpt lat="36.7493" lon="27.70865">
        <ele>1.981</ele>
      </trkpt>
      <trkpt lat="36.74926" lon="27.70862">
        <ele>2.318</ele>
      </trkpt>
      <trkpt lat="36.74921" lon="27.7086">
        <ele>2.722</ele>
      </trkpt>
      <trkpt lat="36.74917" lon="27.70859">
        <ele>2.963</ele>
      </trkpt>
      <trkpt lat="36.74913" lon="27.70857">
        <ele>2.983</ele>
      </trkpt>
      <trkpt lat="36.7491" lon="27.70855">
        <ele>2.946</ele>
      </trkpt>
      <trkpt lat="36.74907" lon="27.7085">
        <ele>2.853</ele>
      </trkpt>
      <trkpt lat="36.74903" lon="27.70845">
        <ele>2.718</ele>
      </trkpt>
      <trkpt lat="36.74898" lon="27.70841">
        <ele>2.528</ele>
      </trkpt>
      <trkpt lat="36.74895" lon="27.7084">
        <ele>2.404</ele>
      </trkpt>
      <trkpt lat="36.74893" lon="27.70836">
        <ele>2.198</ele>
      </trkpt>
      <trkpt lat="36.7489" lon="27.70834">
        <ele>2.056</ele>
      </trkpt>
      <trkpt lat="36.74886" lon="27.70832">
        <ele>1.752</ele>
      </trkpt>
      <trkpt lat="36.74879" lon="27.70831">
        <ele>1.278</ele>
      </trkpt>
      <trkpt lat="36.74876" lon="27.70829">
        <ele>1.03</ele>
      </trkpt>
      <trkpt lat="36.74872" lon="27.70826">
        <ele>0.836</ele>
      </trkpt>
      <trkpt lat="36.74868" lon="27.70823">
        <ele>0.68</ele>
      </trkpt>
      <trkpt lat="36.74865" lon="27.70819">
        <ele>0.65</ele>
      </trkpt>
      <trkpt lat="36.74861" lon="27.70814">
        <ele>0.709</ele>
      </trkpt>
      <trkpt lat="36.74859" lon="27.7081">
        <ele>0.755</ele>
      </trkpt>
      <trkpt lat="36.74853" lon="27.70806">
        <ele>0.713</ele>
      </trkpt>
      <trkpt lat="36.7485" lon="27.70801">
        <ele>0.68</ele>
      </trkpt>
      <trkpt lat="36.74847" lon="27.70796">
        <ele>0.668</ele>
      </trkpt>
      <trkpt lat="36.74843" lon="27.70792">
        <ele>0.674</ele>
      </trkpt>
      <trkpt lat="36.74837" lon="27.70788">
        <ele>0.696</ele>
      </trkpt>
      <trkpt lat="36.74834" lon="27.70783">
        <ele>0.826</ele>
      </trkpt>
      <trkpt lat="36.7483" lon="27.70778">
        <ele>0.989</ele>
      </trkpt>
      <trkpt lat="36.74825" lon="27.70774">
        <ele>0.948</ele>
      </trkpt>
      <trkpt lat="36.74821" lon="27.70771">
        <ele>0.973</ele>
      </trkpt>
      <trkpt lat="36.74819" lon="27.70767">
        <ele>1.018</ele>
      </trkpt>
      <trkpt lat="36.74814" lon="27.70764">
        <ele>1.19</ele>
      </trkpt>
      <trkpt lat="36.74809" lon="27.70762">
        <ele>1.423</ele>
      </trkpt>
      <trkpt lat="36.74806" lon="27.7076">
        <ele>1.638</ele>
      </trkpt>
      <trkpt lat="36.74803" lon="27.70758">
        <ele>1.671</ele>
      </trkpt>
      <trkpt lat="36.74798" lon="27.70753">
        <ele>1.845</ele>
      </trkpt>
      <trkpt lat="36.74793" lon="27.70753">
        <ele>1.849</ele>
      </trkpt>
      <trkpt lat="36.74791" lon="27.7075">
        <ele>1.995</ele>
      </trkpt>
      <trkpt lat="36.74783" lon="27.70748">
        <ele>1.989</ele>
      </trkpt>
      <trkpt lat="36.74779" lon="27.70745">
        <ele>1.988</ele>
      </trkpt>
      <trkpt lat="36.74777" lon="27.7074">
        <ele>1.943</ele>
      </trkpt>
      <trkpt lat="36.74775" lon="27.70735">
        <ele>1.854</ele>
      </trkpt>
      <trkpt lat="36.74773" lon="27.7073">
        <ele>1.763</ele>
      </trkpt>
      <trkpt lat="36.74768" lon="27.70727">
        <ele>1.579</ele>
      </trkpt>
      <trkpt lat="36.74765" lon="27.70723">
        <ele>1.534</ele>
      </trkpt>
      <trkpt lat="36.74761" lon="27.7072">
        <ele>1.345</ele>
      </trkpt>
      <trkpt lat="36.74758" lon="27.70716">
        <ele>1.163</ele>
      </trkpt>
      <trkpt lat="36.74755" lon="27.70713">
        <ele>1.055</ele>
      </trkpt>
      <trkpt lat="36.74751" lon="27.70711">
        <ele>1.009</ele>
      </trkpt>
      <trkpt lat="36.74749" lon="27.70708">
        <ele>1</ele>
      </trkpt>
      <trkpt lat="36.74746" lon="27.70705">
        <ele>1</ele>
      </trkpt>
      <trkpt lat="36.74743" lon="27.70701">
        <ele>1</ele>
      </trkpt>
      <trkpt lat="36.74739" lon="27.70699">
        <ele>1</ele>
      </trkpt>
      <trkpt lat="36.74735" lon="27.70695">
        <ele>1</ele>
      </trkpt>
      <trkpt lat="36.74733" lon="27.7069">
        <ele>0.851</ele>
      </trkpt>
      <trkpt lat="36.74728" lon="27.70686">
        <ele>0.707</ele>
      </trkpt>
      <trkpt lat="36.74724" lon="27.70684">
        <ele>0.624</ele>
      </trkpt>
      <trkpt lat="36.74721" lon="27.7068">
        <ele>0.505</ele>
      </trkpt>
      <trkpt lat="36.74717" lon="27.70678">
        <ele>0.523</ele>
      </trkpt>
      <trkpt lat="36.74712" lon="27.70673">
        <ele>0.509</ele>
      </trkpt>
      <trkpt lat="36.74709" lon="27.70668">
        <ele>0.489</ele>
      </trkpt>
      <trkpt lat="36.74706" lon="27.70663">
        <ele>0.381</ele>
      </trkpt>
      <trkpt lat="36.74702" lon="27.70659">
        <ele>0.271</ele>
      </trkpt>
      <trkpt lat="36.74699" lon="27.70657">
        <ele>0.197</ele>
      </trkpt>
      <trkpt lat="36.74695" lon="27.70653">
        <ele>0.029</ele>
      </trkpt>
      <trkpt lat="36.74693" lon="27.70649">
        <ele>-0.4</ele>
      </trkpt>
      <trkpt lat="36.74689" lon="27.70645">
        <ele>-1.048</ele>
      </trkpt>
      <trkpt lat="36.74685" lon="27.70644">
        <ele>-1.519</ele>
      </trkpt>
      <trkpt lat="36.74682" lon="27.70642">
        <ele>-1.971</ele>
      </trkpt>
      <trkpt lat="36.74679" lon="27.7064">
        <ele>-2.534</ele>
      </trkpt>
      <trkpt lat="36.74675" lon="27.70636">
        <ele>-2.909</ele>
      </trkpt>
      <trkpt lat="36.74672" lon="27.70633">
        <ele>-3.066</ele>
      </trkpt>
      <trkpt lat="36.7467" lon="27.7063">
        <ele>-3.093</ele>
      </trkpt>
      <trkpt lat="36.74667" lon="27.70627">
        <ele>-3.116</ele>
      </trkpt>
      <trkpt lat="36.74665" lon="27.70624">
        <ele>-3.012</ele>
      </trkpt>
      <trkpt lat="36.74662" lon="27.70622">
        <ele>-3.011</ele>
      </trkpt>
      <trkpt lat="36.74658" lon="27.7062">
        <ele>-3.164</ele>
      </trkpt>
      <trkpt lat="36.74654" lon="27.70617">
        <ele>-3.214</ele>
      </trkpt>
      <trkpt lat="36.74651" lon="27.70614">
        <ele>-3.281</ele>
      </trkpt>
      <trkpt lat="36.74648" lon="27.70611">
        <ele>-3.329</ele>
      </trkpt>
      <trkpt lat="36.74646" lon="27.70607">
        <ele>-3.192</ele>
      </trkpt>
      <trkpt lat="36.74644" lon="27.70603">
        <ele>-3.098</ele>
      </trkpt>
      <trkpt lat="36.74641" lon="27.70602">
        <ele>-3.206</ele>
      </trkpt>
      <trkpt lat="36.74638" lon="27.706">
        <ele>-3.189</ele>
      </trkpt>
      <trkpt lat="36.74634" lon="27.70598">
        <ele>-3.149</ele>
      </trkpt>
      <trkpt lat="36.74628" lon="27.70603">
        <ele>-3.506</ele>
      </trkpt>
      <trkpt lat="36.74623" lon="27.70601">
        <ele>-3.475</ele>
      </trkpt>
      <trkpt lat="36.7462" lon="27.70596">
        <ele>-3.289</ele>
      </trkpt>
      <trkpt lat="36.74617" lon="27.70598">
        <ele>-3.423</ele>
      </trkpt>
      <trkpt lat="36.74612" lon="27.70599">
        <ele>-3.556</ele>
      </trkpt>
      <trkpt lat="36.74608" lon="27.706">
        <ele>-3.142</ele>
      </trkpt>
      <trkpt lat="36.74606" lon="27.70597">
        <ele>-2.635</ele>
      </trkpt>
      <trkpt lat="36.74604" lon="27.70594">
        <ele>-2.207</ele>
      </trkpt>
      <trkpt lat="36.74601" lon="27.70593">
        <ele>-1.678</ele>
      </trkpt>
      <trkpt lat="36.74597" lon="27.70591">
        <ele>-1.119</ele>
      </trkpt>
      <trkpt lat="36.74594" lon="27.7059">
        <ele>-0.655</ele>
      </trkpt>
      <trkpt lat="36.74589" lon="27.7059">
        <ele>0.101</ele>
      </trkpt>
      <trkpt lat="36.74582" lon="27.70588">
        <ele>0.994</ele>
      </trkpt>
      <trkpt lat="36.74578" lon="27.70586">
        <ele>0.983</ele>
      </trkpt>
      <trkpt lat="36.74576" lon="27.70583">
        <ele>0.984</ele>
      </trkpt>
      <trkpt lat="36.74571" lon="27.70587">
        <ele>0.944</ele>
      </trkpt>
      <trkpt lat="36.74568" lon="27.70587">
        <ele>0.933</ele>
      </trkpt>
      <trkpt lat="36.74565" lon="27.70586">
        <ele>0.945</ele>
      </trkpt>
      <trkpt lat="36.7456" lon="27.70587">
        <ele>0.885</ele>
      </trkpt>
      <trkpt lat="36.74557" lon="27.70588">
        <ele>0.84</ele>
      </trkpt>
      <trkpt lat="36.7455" lon="27.70586">
        <ele>0.9</ele>
      </trkpt>
      <trkpt lat="36.74548" lon="27.70582">
        <ele>0.904</ele>
      </trkpt>
      <trkpt lat="36.74546" lon="27.70579">
        <ele>0.6</ele>
      </trkpt>
      <trkpt lat="36.74546" lon="27.70575">
        <ele>0.199</ele>
      </trkpt>
      <trkpt lat="36.74544" lon="27.70567">
        <ele>-0.416</ele>
      </trkpt>
      <trkpt lat="36.74544" lon="27.70563">
        <ele>-0.785</ele>
      </trkpt>
      <trkpt lat="36.74544" lon="27.70555">
        <ele>-1.277</ele>
      </trkpt>
      <trkpt lat="36.74543" lon="27.7055">
        <ele>-1.024</ele>
      </trkpt>
      <trkpt lat="36.74546" lon="27.70546">
        <ele>-1.102</ele>
      </trkpt>
      <trkpt lat="36.74545" lon="27.70542">
        <ele>-0.909</ele>
      </trkpt>
      <trkpt lat="36.74546" lon="27.70536">
        <ele>-0.71</ele>
      </trkpt>
      <trkpt lat="36.74546" lon="27.7053">
        <ele>-0.398</ele>
      </trkpt>
      <trkpt lat="36.74547" lon="27.70526">
        <ele>-0.404</ele>
      </trkpt>
      <trkpt lat="36.74547" lon="27.70519">
        <ele>-0.371</ele>
      </trkpt>
      <trkpt lat="36.74551" lon="27.70517">
        <ele>-0.462</ele>
      </trkpt>
      <trkpt lat="36.74553" lon="27.70511">
        <ele>-0.382</ele>
      </trkpt>
      <trkpt lat="36.74555" lon="27.70506">
        <ele>-0.217</ele>
      </trkpt>
      <trkpt lat="36.74556" lon="27.70501">
        <ele>-0.02</ele>
      </trkpt>
      <trkpt lat="36.74558" lon="27.70497">
        <ele>0.085</ele>
      </trkpt>
      <trkpt lat="36.74559" lon="27.70492">
        <ele>0.117</ele>
      </trkpt>
      <trkpt lat="36.7456" lon="27.70487">
        <ele>0.153</ele>
      </trkpt>
      <trkpt lat="36.7456" lon="27.70482">
        <ele>0.142</ele>
      </trkpt>
      <trkpt lat="36.74561" lon="27.70478">
        <ele>0.192</ele>
      </trkpt>
      <trkpt lat="36.74561" lon="27.70473">
        <ele>0.207</ele>
      </trkpt>
      <trkpt lat="36.74562" lon="27.70468">
        <ele>0.251</ele>
      </trkpt>
      <trkpt lat="36.74562" lon="27.70463">
        <ele>0.318</ele>
      </trkpt>
      <trkpt lat="36.74561" lon="27.70458">
        <ele>0.32</ele>
      </trkpt>
      <trkpt lat="36.74561" lon="27.70454">
        <ele>0.314</ele>
      </trkpt>
      <trkpt lat="36.7456" lon="27.70447">
        <ele>0.287</ele>
      </trkpt>
      <trkpt lat="36.7456" lon="27.70441">
        <ele>0.419</ele>
      </trkpt>
      <trkpt lat="36.74559" lon="27.70436">
        <ele>0.567</ele>
      </trkpt>
      <trkpt lat="36.74559" lon="27.70432">
        <ele>0.671</ele>
      </trkpt>
      <trkpt lat="36.74559" lon="27.70428">
        <ele>0.826</ele>
      </trkpt>
      <trkpt lat="36.74558" lon="27.70425">
        <ele>0.883</ele>
      </trkpt>
      <trkpt lat="36.74556" lon="27.70422">
        <ele>0.836</ele>
      </trkpt>
      <trkpt lat="36.74553" lon="27.70423">
        <ele>0.583</ele>
      </trkpt>
      <trkpt lat="36.74548" lon="27.70423">
        <ele>0.262</ele>
      </trkpt>
      <trkpt lat="36.74544" lon="27.70424">
        <ele>0.031</ele>
      </trkpt>
      <trkpt lat="36.7454" lon="27.70426">
        <ele>-0.272</ele>
      </trkpt>
      <trkpt lat="36.74537" lon="27.70427">
        <ele>-0.446</ele>
      </trkpt>
      <trkpt lat="36.74534" lon="27.70426">
        <ele>-0.63</ele>
      </trkpt>
      <trkpt lat="36.74531" lon="27.70425">
        <ele>-0.817</ele>
      </trkpt>
      <trkpt lat="36.74528" lon="27.70424">
        <ele>-1</ele>
      </trkpt>
      <trkpt lat="36.74524" lon="27.70425">
        <ele>-1</ele>
      </trkpt>
      <trkpt lat="36.74522" lon="27.70422">
        <ele>-1</ele>
      </trkpt>
      <trkpt lat="36.74521" lon="27.70417">
        <ele>-1</ele>
      </trkpt>
      <trkpt lat="36.74519" lon="27.70413">
        <ele>-0.898</ele>
      </trkpt>
      <trkpt lat="36.74518" lon="27.70408">
        <ele>-0.798</ele>
      </trkpt>
      <trkpt lat="36.74517" lon="27.70405">
        <ele>-0.736</ele>
      </trkpt>
      <trkpt lat="36.74517" lon="27.704">
        <ele>-0.646</ele>
      </trkpt>
      <trkpt lat="36.74515" lon="27.70395">
        <ele>-0.579</ele>
      </trkpt>
      <trkpt lat="36.74515" lon="27.70389">
        <ele>-0.471</ele>
      </trkpt>
      <trkpt lat="36.74516" lon="27.70385">
        <ele>-0.431</ele>
      </trkpt>
      <trkpt lat="36.74516" lon="27.7038">
        <ele>-0.41</ele>
      </trkpt>
      <trkpt lat="36.74515" lon="27.70373">
        <ele>-0.46</ele>
      </trkpt>
      <trkpt lat="36.74515" lon="27.70367">
        <ele>-0.456</ele>
      </trkpt>
      <trkpt lat="36.74514" lon="27.70361">
        <ele>-0.485</ele>
      </trkpt>
      <trkpt lat="36.74511" lon="27.70355">
        <ele>-0.402</ele>
      </trkpt>
      <trkpt lat="36.74508" lon="27.70349">
        <ele>-0.283</ele>
      </trkpt>
      <trkpt lat="36.74505" lon="27.70344">
        <ele>-0.208</ele>
      </trkpt>
      <trkpt lat="36.745" lon="27.70338">
        <ele>-0.168</ele>
      </trkpt>
      <trkpt lat="36.74497" lon="27.70335">
        <ele>0.055</ele>
      </trkpt>
      <trkpt lat="36.74493" lon="27.7033">
        <ele>0.481</ele>
      </trkpt>
      <trkpt lat="36.74489" lon="27.70325">
        <ele>0.872</ele>
      </trkpt>
      <trkpt lat="36.74486" lon="27.70321">
        <ele>1.191</ele>
      </trkpt>
      <trkpt lat="36.74483" lon="27.70316">
        <ele>1.478</ele>
      </trkpt>
      <trkpt lat="36.7448" lon="27.70313">
        <ele>1.67</ele>
      </trkpt>
      <trkpt lat="36.74476" lon="27.70309">
        <ele>1.86</ele>
      </trkpt>
      <trkpt lat="36.74471" lon="27.70306">
        <ele>1.973</ele>
      </trkpt>
      <trkpt lat="36.74468" lon="27.70302">
        <ele>2.125</ele>
      </trkpt>
      <trkpt lat="36.74464" lon="27.703">
        <ele>2.207</ele>
      </trkpt>
      <trkpt lat="36.74461" lon="27.70298">
        <ele>2.272</ele>
      </trkpt>
      <trkpt lat="36.74457" lon="27.70298">
        <ele>2.268</ele>
      </trkpt>
      <trkpt lat="36.74453" lon="27.70294">
        <ele>2.405</ele>
      </trkpt>
      <trkpt lat="36.74451" lon="27.7029">
        <ele>2.564</ele>
      </trkpt>
      <trkpt lat="36.74448" lon="27.70286">
        <ele>2.708</ele>
      </trkpt>
      <trkpt lat="36.74444" lon="27.70281">
        <ele>2.88</ele>
      </trkpt>
      <trkpt lat="36.74441" lon="27.70278">
        <ele>3.011</ele>
      </trkpt>
      <trkpt lat="36.7444" lon="27.70274">
        <ele>3.181</ele>
      </trkpt>
      <trkpt lat="36.74437" lon="27.7027">
        <ele>3.368</ele>
      </trkpt>
      <trkpt lat="36.74434" lon="27.70263">
        <ele>3.705</ele>
      </trkpt>
      <trkpt lat="36.74431" lon="27.70259">
        <ele>4.01</ele>
      </trkpt>
      <trkpt lat="36.74428" lon="27.70255">
        <ele>4.331</ele>
      </trkpt>
      <trkpt lat="36.74424" lon="27.70252">
        <ele>4.624</ele>
      </trkpt>
      <trkpt lat="36.74421" lon="27.70249">
        <ele>4.934</ele>
      </trkpt>
      <trkpt lat="36.74417" lon="27.70245">
        <ele>5.377</ele>
      </trkpt>
      <trkpt lat="36.74414" lon="27.70242">
        <ele>5.579</ele>
      </trkpt>
      <trkpt lat="36.74411" lon="27.70238">
        <ele>5.78</ele>
      </trkpt>
      <trkpt lat="36.74407" lon="27.70235">
        <ele>5.906</ele>
      </trkpt>
      <trkpt lat="36.74405" lon="27.70229">
        <ele>6.214</ele>
      </trkpt>
      <trkpt lat="36.74403" lon="27.70227">
        <ele>6.276</ele>
      </trkpt>
      <trkpt lat="36.74402" lon="27.7022">
        <ele>6.516</ele>
      </trkpt>
      <trkpt lat="36.744" lon="27.70213">
        <ele>6.598</ele>
      </trkpt>
      <trkpt lat="36.74394" lon="27.70207">
        <ele>6.636</ele>
      </trkpt>
      <trkpt lat="36.7439" lon="27.70205">
        <ele>6.649</ele>
      </trkpt>
      <trkpt lat="36.74386" lon="27.70201">
        <ele>6.664</ele>
      </trkpt>
      <trkpt lat="36.74383" lon="27.70198">
        <ele>6.66</ele>
      </trkpt>
      <trkpt lat="36.74379" lon="27.70195">
        <ele>6.613</ele>
      </trkpt>
      <trkpt lat="36.74375" lon="27.70193">
        <ele>6.507</ele>
      </trkpt>
      <trkpt lat="36.74372" lon="27.7019">
        <ele>6.392</ele>
      </trkpt>
      <trkpt lat="36.74369" lon="27.70187">
        <ele>6.277</ele>
      </trkpt>
      <trkpt lat="36.74366" lon="27.70184">
        <ele>6.158</ele>
      </trkpt>
      <trkpt lat="36.74361" lon="27.70183">
        <ele>6.01</ele>
      </trkpt>
      <trkpt lat="36.74358" lon="27.70181">
        <ele>5.769</ele>
      </trkpt>
      <trkpt lat="36.74355" lon="27.70178">
        <ele>5.581</ele>
      </trkpt>
      <trkpt lat="36.74352" lon="27.70176">
        <ele>5.315</ele>
      </trkpt>
      <trkpt lat="36.74348" lon="27.70173">
        <ele>5.063</ele>
      </trkpt>
      <trkpt lat="36.74345" lon="27.7017">
        <ele>4.826</ele>
      </trkpt>
      <trkpt lat="36.74342" lon="27.70167">
        <ele>4.602</ele>
      </trkpt>
      <trkpt lat="36.74339" lon="27.70164">
        <ele>4.358</ele>
      </trkpt>
      <trkpt lat="36.74336" lon="27.7016">
        <ele>4.137</ele>
      </trkpt>
      <trkpt lat="36.74332" lon="27.70158">
        <ele>3.943</ele>
      </trkpt>
      <trkpt lat="36.74327" lon="27.70155">
        <ele>3.619</ele>
      </trkpt>
      <trkpt lat="36.74327" lon="27.70155">
        <ele>3.619</ele>
      </trkpt>
      <trkpt lat="36.74327" lon="27.70155">
        <ele>3.619</ele>
      </trkpt>
      <trkpt lat="36.74327" lon="27.70155">
        <ele>3.619</ele>
      </trkpt>
      <trkpt lat="36.74323" lon="27.70166">
        <ele>3.6</ele>
      </trkpt>
      <trkpt lat="36.74323" lon="27.70166">
        <ele>3.6</ele>
      </trkpt>
      <trkpt lat="36.74323" lon="27.70166">
        <ele>3.6</ele>
      </trkpt>
      <trkpt lat="36.74323" lon="27.70166">
        <ele>3.6</ele>
      </trkpt>
      <trkpt lat="36.7432" lon="27.70171">
        <ele>3.4</ele>
      </trkpt>
      <trkpt lat="36.74316" lon="27.70176">
        <ele>3.2</ele>
      </trkpt>
      <trkpt lat="36.74314" lon="27.7018">
        <ele>3.1</ele>
      </trkpt>
      <trkpt lat="36.74312" lon="27.70183">
        <ele>3</ele>
      </trkpt>
      <trkpt lat="36.7431" lon="27.70184">
        <ele>2.9</ele>
      </trkpt>
      <trkpt lat="36.74305" lon="27.70188">
        <ele>2.7</ele>
      </trkpt>
      <trkpt lat="36.74303" lon="27.70192">
        <ele>2.6</ele>
      </trkpt>
      <trkpt lat="36.74301" lon="27.70196">
        <ele>2.5</ele>
      </trkpt>
      <trkpt lat="36.74298" lon="27.70202">
        <ele>2.4</ele>
      </trkpt>
      <trkpt lat="36.74296" lon="27.70204">
        <ele>2.4</ele>
      </trkpt>
      <trkpt lat="36.74293" lon="27.70209">
        <ele>2.3</ele>
      </trkpt>
      <trkpt lat="36.74291" lon="27.70212">
        <ele>2.2</ele>
      </trkpt>
      <trkpt lat="36.74287" lon="27.70216">
        <ele>2.1</ele>
      </trkpt>
      <trkpt lat="36.74285" lon="27.70219">
        <ele>2.1</ele>
      </trkpt>
      <trkpt lat="36.74281" lon="27.70223">
        <ele>2</ele>
      </trkpt>
      <trkpt lat="36.74278" lon="27.70227">
        <ele>2</ele>
      </trkpt>
      <trkpt lat="36.74275" lon="27.70233">
        <ele>2</ele>
      </trkpt>
      <trkpt lat="36.74272" lon="27.70236">
        <ele>2</ele>
      </trkpt>
      <trkpt lat="36.74268" lon="27.7024">
        <ele>2</ele>
      </trkpt>
      <trkpt lat="36.74267" lon="27.70243">
        <ele>2</ele>
      </trkpt>
      <trkpt lat="36.74263" lon="27.70249">
        <ele>2</ele>
      </trkpt>
      <trkpt lat="36.7426" lon="27.70252">
        <ele>2</ele>
      </trkpt>
      <trkpt lat="36.74258" lon="27.70254">
        <ele>2</ele>
      </trkpt>
      <trkpt lat="36.74256" lon="27.70257">
        <ele>2</ele>
      </trkpt>
      <trkpt lat="36.74254" lon="27.70259">
        <ele>2</ele>
      </trkpt>
      <trkpt lat="36.74251" lon="27.70263">
        <ele>2</ele>
      </trkpt>
      <trkpt lat="36.74249" lon="27.70267">
        <ele>1.99</ele>
      </trkpt>
      <trkpt lat="36.74249" lon="27.70271">
        <ele>1.99</ele>
      </trkpt>
      <trkpt lat="36.74245" lon="27.70276">
        <ele>1.94</ele>
      </trkpt>
      <trkpt lat="36.74245" lon="27.7028">
        <ele>1.94</ele>
      </trkpt>
      <trkpt lat="36.74243" lon="27.70285">
        <ele>1.91</ele>
      </trkpt>
      <trkpt lat="36.74241" lon="27.70288">
        <ele>1.9</ele>
      </trkpt>
      <trkpt lat="36.74239" lon="27.70293">
        <ele>1.87</ele>
      </trkpt>
      <trkpt lat="36.74237" lon="27.70296">
        <ele>1.85</ele>
      </trkpt>
      <trkpt lat="36.74234" lon="27.70302">
        <ele>1.81</ele>
      </trkpt>
      <trkpt lat="36.74232" lon="27.70304">
        <ele>1.78</ele>
      </trkpt>
      <trkpt lat="36.74228" lon="27.70307">
        <ele>1.73</ele>
      </trkpt>
      <trkpt lat="36.74224" lon="27.7031">
        <ele>1.69</ele>
      </trkpt>
      <trkpt lat="36.7422" lon="27.70307">
        <ele>1.64</ele>
      </trkpt>
      <trkpt lat="36.74217" lon="27.70305">
        <ele>1.6</ele>
      </trkpt>
      <trkpt lat="36.74214" lon="27.70303">
        <ele>1.56</ele>
      </trkpt>
      <trkpt lat="36.74211" lon="27.70299">
        <ele>1.53</ele>
      </trkpt>
      <trkpt lat="36.74208" lon="27.70295">
        <ele>1.49</ele>
      </trkpt>
      <trkpt lat="36.74204" lon="27.70291">
        <ele>1.44</ele>
      </trkpt>
      <trkpt lat="36.74201" lon="27.70288">
        <ele>1.42</ele>
      </trkpt>
      <trkpt lat="36.74198" lon="27.70285">
        <ele>1.38</ele>
      </trkpt>
      <trkpt lat="36.74194" lon="27.70281">
        <ele>1.33</ele>
      </trkpt>
      <trkpt lat="36.74191" lon="27.70279">
        <ele>1.3</ele>
      </trkpt>
      <trkpt lat="36.74187" lon="27.70279">
        <ele>1.24</ele>
      </trkpt>
      <trkpt lat="36.74181" lon="27.70277">
        <ele>1.17</ele>
      </trkpt>
      <trkpt lat="36.74178" lon="27.70276">
        <ele>1.14</ele>
      </trkpt>
      <trkpt lat="36.74175" lon="27.70274">
        <ele>1.1</ele>
      </trkpt>
      <trkpt lat="36.7417" lon="27.70272">
        <ele>1.04</ele>
      </trkpt>
      <trkpt lat="36.74166" lon="27.70271">
        <ele>1</ele>
      </trkpt>
      <trkpt lat="36.74163" lon="27.70269">
        <ele>1</ele>
      </trkpt>
      <trkpt lat="36.7416" lon="27.70267">
        <ele>1</ele>
      </trkpt>
      <trkpt lat="36.74156" lon="27.70264">
        <ele>1</ele>
      </trkpt>
      <trkpt lat="36.74154" lon="27.70262">
        <ele>1</ele>
      </trkpt>
      <trkpt lat="36.74151" lon="27.70259">
        <ele>1</ele>
      </trkpt>
      <trkpt lat="36.74149" lon="27.70256">
        <ele>1</ele>
      </trkpt>
      <trkpt lat="36.74146" lon="27.70252">
        <ele>1</ele>
      </trkpt>
      <trkpt lat="36.74141" lon="27.70247">
        <ele>1</ele>
      </trkpt>
      <trkpt lat="36.74138" lon="27.70247">
        <ele>1</ele>
      </trkpt>
      <trkpt lat="36.74134" lon="27.70244">
        <ele>1</ele>
      </trkpt>
      <trkpt lat="36.74131" lon="27.70244">
        <ele>1</ele>
      </trkpt>
      <trkpt lat="36.74129" lon="27.7024">
        <ele>1</ele>
      </trkpt>
      <trkpt lat="36.74129" lon="27.70236">
        <ele>1</ele>
      </trkpt>
      <trkpt lat="36.74125" lon="27.70231">
        <ele>1</ele>
      </trkpt>
      <trkpt lat="36.74121" lon="27.70228">
        <ele>1</ele>
      </trkpt>
      <trkpt lat="36.74118" lon="27.70223">
        <ele>1</ele>
      </trkpt>
      <trkpt lat="36.74116" lon="27.7022">
        <ele>1</ele>
      </trkpt>
      <trkpt lat="36.74114" lon="27.70216">
        <ele>1</ele>
      </trkpt>
      <trkpt lat="36.74112" lon="27.70212">
        <ele>1</ele>
      </trkpt>
      <trkpt lat="36.7411" lon="27.70208">
        <ele>1</ele>
      </trkpt>
      <trkpt lat="36.74108" lon="27.70205">
        <ele>1</ele>
      </trkpt>
      <trkpt lat="36.74106" lon="27.70202">
        <ele>1</ele>
      </trkpt>
      <trkpt lat="36.74105" lon="27.70198">
        <ele>1</ele>
      </trkpt>
      <trkpt lat="36.74103" lon="27.70196">
        <ele>1</ele>
      </trkpt>
      <trkpt lat="36.74101" lon="27.70192">
        <ele>1</ele>
      </trkpt>
      <trkpt lat="36.74099" lon="27.70188">
        <ele>1</ele>
      </trkpt>
      <trkpt lat="36.74095" lon="27.70184">
        <ele>1</ele>
      </trkpt>
      <trkpt lat="36.74092" lon="27.70179">
        <ele>1</ele>
      </trkpt>
      <trkpt lat="36.74089" lon="27.70175">
        <ele>1</ele>
      </trkpt>
      <trkpt lat="36.74086" lon="27.70169">
        <ele>1</ele>
      </trkpt>
      <trkpt lat="36.74084" lon="27.70165">
        <ele>1</ele>
      </trkpt>
      <trkpt lat="36.74081" lon="27.7016">
        <ele>1.2</ele>
      </trkpt>
      <trkpt lat="36.74076" lon="27.70158">
        <ele>1.2</ele>
      </trkpt>
      <trkpt lat="36.74073" lon="27.70156">
        <ele>1.2</ele>
      </trkpt>
      <trkpt lat="36.74069" lon="27.70152">
        <ele>1.3</ele>
      </trkpt>
      <trkpt lat="36.74067" lon="27.7015">
        <ele>1.4</ele>
      </trkpt>
      <trkpt lat="36.74063" lon="27.70148">
        <ele>1.4</ele>
      </trkpt>
      <trkpt lat="36.74057" lon="27.70144">
        <ele>1.5</ele>
      </trkpt>
      <trkpt lat="36.74055" lon="27.70141">
        <ele>1.5</ele>
      </trkpt>
      <trkpt lat="36.74053" lon="27.70139">
        <ele>1.5</ele>
      </trkpt>
      <trkpt lat="36.74049" lon="27.70136">
        <ele>1.6</ele>
      </trkpt>
      <trkpt lat="36.74047" lon="27.70133">
        <ele>1.6</ele>
      </trkpt>
      <trkpt lat="36.74044" lon="27.70131">
        <ele>1.7</ele>
      </trkpt>
      <trkpt lat="36.7404" lon="27.70128">
        <ele>1.7</ele>
      </trkpt>
      <trkpt lat="36.74038" lon="27.70125">
        <ele>1.7</ele>
      </trkpt>
      <trkpt lat="36.74036" lon="27.70123">
        <ele>1.8</ele>
      </trkpt>
      <trkpt lat="36.74034" lon="27.7012">
        <ele>1.8</ele>
      </trkpt>
      <trkpt lat="36.74033" lon="27.70117">
        <ele>1.8</ele>
      </trkpt>
      <trkpt lat="36.74031" lon="27.70114">
        <ele>1.9</ele>
      </trkpt>
      <trkpt lat="36.74028" lon="27.7011">
        <ele>1.9</ele>
      </trkpt>
      <trkpt lat="36.74024" lon="27.70108">
        <ele>1.9</ele>
      </trkpt>
      <trkpt lat="36.74019" lon="27.70106">
        <ele>1.9</ele>
      </trkpt>
      <trkpt lat="36.74016" lon="27.70104">
        <ele>1.9</ele>
      </trkpt>
      <trkpt lat="36.74014" lon="27.70102">
        <ele>1.9</ele>
      </trkpt>
      <trkpt lat="36.7401" lon="27.701">
        <ele>1.9</ele>
      </trkpt>
      <trkpt lat="36.74008" lon="27.70099">
        <ele>1.9</ele>
      </trkpt>
      <trkpt lat="36.74003" lon="27.70099">
        <ele>1.8</ele>
      </trkpt>
      <trkpt lat="36.73997" lon="27.701">
        <ele>1.8</ele>
      </trkpt>
      <trkpt lat="36.73994" lon="27.70101">
        <ele>1.8</ele>
      </trkpt>
      <trkpt lat="36.73991" lon="27.70102">
        <ele>1.8</ele>
      </trkpt>
      <trkpt lat="36.73987" lon="27.70103">
        <ele>1.8</ele>
      </trkpt>
      <trkpt lat="36.73981" lon="27.70104">
        <ele>1.8</ele>
      </trkpt>
      <trkpt lat="36.73976" lon="27.70106">
        <ele>1.7</ele>
      </trkpt>
      <trkpt lat="36.73973" lon="27.70107">
        <ele>1.7</ele>
      </trkpt>
      <trkpt lat="36.73969" lon="27.70107">
        <ele>1.7</ele>
      </trkpt>
      <trkpt lat="36.73964" lon="27.70107">
        <ele>1.7</ele>
      </trkpt>
      <trkpt lat="36.73961" lon="27.70107">
        <ele>1.7</ele>
      </trkpt>
      <trkpt lat="36.73958" lon="27.70108">
        <ele>1.7</ele>
      </trkpt>
      <trkpt lat="36.73954" lon="27.70108">
        <ele>1.7</ele>
      </trkpt>
      <trkpt lat="36.73949" lon="27.70111">
        <ele>1.7</ele>
      </trkpt>
      <trkpt lat="36.73946" lon="27.70112">
        <ele>1.7</ele>
      </trkpt>
      <trkpt lat="36.73944" lon="27.70114">
        <ele>1.6</ele>
      </trkpt>
      <trkpt lat="36.73939" lon="27.70118">
        <ele>1.6</ele>
      </trkpt>
      <trkpt lat="36.73935" lon="27.7012">
        <ele>1.6</ele>
      </trkpt>
      <trkpt lat="36.7393" lon="27.70121">
        <ele>1.5</ele>
      </trkpt>
      <trkpt lat="36.73926" lon="27.70123">
        <ele>1.5</ele>
      </trkpt>
      <trkpt lat="36.7392" lon="27.70126">
        <ele>1.5</ele>
      </trkpt>
      <trkpt lat="36.73915" lon="27.70127">
        <ele>1</ele>
      </trkpt>
      <trkpt lat="36.73911" lon="27.70129">
        <ele>1</ele>
      </trkpt>
      <trkpt lat="36.73908" lon="27.70129">
        <ele>1</ele>
      </trkpt>
      <trkpt lat="36.73903" lon="27.70129">
        <ele>1</ele>
      </trkpt>
      <trkpt lat="36.73899" lon="27.70129">
        <ele>1</ele>
      </trkpt>
      <trkpt lat="36.73896" lon="27.70129">
        <ele>1</ele>
      </trkpt>
      <trkpt lat="36.73893" lon="27.70129">
        <ele>1</ele>
      </trkpt>
      <trkpt lat="36.73888" lon="27.70129">
        <ele>1</ele>
      </trkpt>
      <trkpt lat="36.73885" lon="27.70128">
        <ele>1</ele>
      </trkpt>
      <trkpt lat="36.73882" lon="27.70129">
        <ele>1</ele>
      </trkpt>
      <trkpt lat="36.73878" lon="27.70128">
        <ele>1</ele>
      </trkpt>
      <trkpt lat="36.73874" lon="27.70127">
        <ele>1</ele>
      </trkpt>
      <trkpt lat="36.73871" lon="27.70128">
        <ele>1</ele>
      </trkpt>
      <trkpt lat="36.73868" lon="27.70128">
        <ele>1</ele>
      </trkpt>
      <trkpt lat="36.73864" lon="27.70126">
        <ele>1</ele>
      </trkpt>
      <trkpt lat="36.73859" lon="27.70124">
        <ele>1</ele>
      </trkpt>
      <trkpt lat="36.73855" lon="27.70122">
        <ele>1</ele>
      </trkpt>
      <trkpt lat="36.73851" lon="27.70124">
        <ele>1</ele>
      </trkpt>
      <trkpt lat="36.73847" lon="27.70124">
        <ele>1</ele>
      </trkpt>
      <trkpt lat="36.73843" lon="27.70125">
        <ele>1</ele>
      </trkpt>
      <trkpt lat="36.73839" lon="27.70124">
        <ele>1</ele>
      </trkpt>
      <trkpt lat="36.73837" lon="27.70122">
        <ele>1</ele>
      </trkpt>
      <trkpt lat="36.73831" lon="27.70118">
        <ele>1</ele>
      </trkpt>
      <trkpt lat="36.73825" lon="27.70114">
        <ele>1</ele>
      </trkpt>
      <trkpt lat="36.73823" lon="27.70112">
        <ele>1</ele>
      </trkpt>
      <trkpt lat="36.73819" lon="27.7011">
        <ele>1</ele>
      </trkpt>
      <trkpt lat="36.73815" lon="27.70107">
        <ele>1</ele>
      </trkpt>
      <trkpt lat="36.7381" lon="27.70105">
        <ele>1</ele>
      </trkpt>
      <trkpt lat="36.73807" lon="27.70104">
        <ele>1</ele>
      </trkpt>
      <trkpt lat="36.73803" lon="27.701">
        <ele>1</ele>
      </trkpt>
      <trkpt lat="36.73801" lon="27.70098">
        <ele>1</ele>
      </trkpt>
      <trkpt lat="36.73798" lon="27.70096">
        <ele>1</ele>
      </trkpt>
      <trkpt lat="36.73794" lon="27.70093">
        <ele>1</ele>
      </trkpt>
      <trkpt lat="36.73792" lon="27.7009">
        <ele>1</ele>
      </trkpt>
      <trkpt lat="36.73783" lon="27.70088">
        <ele>1</ele>
      </trkpt>
      <trkpt lat="36.73782" lon="27.70085">
        <ele>1</ele>
      </trkpt>
      <trkpt lat="36.73778" lon="27.70081">
        <ele>1</ele>
      </trkpt>
      <trkpt lat="36.73774" lon="27.70078">
        <ele>1</ele>
      </trkpt>
      <trkpt lat="36.73769" lon="27.70076">
        <ele>1</ele>
      </trkpt>
      <trkpt lat="36.73765" lon="27.70074">
        <ele>1</ele>
      </trkpt>
      <trkpt lat="36.73763" lon="27.70071">
        <ele>1</ele>
      </trkpt>
      <trkpt lat="36.73759" lon="27.70072">
        <ele>1</ele>
      </trkpt>
      <trkpt lat="36.73754" lon="27.7007">
        <ele>1</ele>
      </trkpt>
      <trkpt lat="36.7375" lon="27.70067">
        <ele>1</ele>
      </trkpt>
      <trkpt lat="36.73747" lon="27.70066">
        <ele>1</ele>
      </trkpt>
      <trkpt lat="36.73742" lon="27.70064">
        <ele>1</ele>
      </trkpt>
      <trkpt lat="36.73738" lon="27.7006">
        <ele>1</ele>
      </trkpt>
      <trkpt lat="36.73735" lon="27.70058">
        <ele>1</ele>
      </trkpt>
      <trkpt lat="36.73734" lon="27.70055">
        <ele>1</ele>
      </trkpt>
      <trkpt lat="36.73729" lon="27.70051">
        <ele>1</ele>
      </trkpt>
      <trkpt lat="36.73726" lon="27.70049">
        <ele>1</ele>
      </trkpt>
      <trkpt lat="36.73721" lon="27.70045">
        <ele>1</ele>
      </trkpt>
      <trkpt lat="36.73719" lon="27.70043">
        <ele>1</ele>
      </trkpt>
      <trkpt lat="36.73714" lon="27.70042">
        <ele>1</ele>
      </trkpt>
      <trkpt lat="36.73712" lon="27.7004">
        <ele>1</ele>
      </trkpt>
      <trkpt lat="36.73706" lon="27.70036">
        <ele>1</ele>
      </trkpt>
      <trkpt lat="36.73704" lon="27.70034">
        <ele>1</ele>
      </trkpt>
      <trkpt lat="36.737" lon="27.70031">
        <ele>1</ele>
      </trkpt>
      <trkpt lat="36.73697" lon="27.7003">
        <ele>1</ele>
      </trkpt>
      <trkpt lat="36.73695" lon="27.70028">
        <ele>1</ele>
      </trkpt>
      <trkpt lat="36.73691" lon="27.70024">
        <ele>1</ele>
      </trkpt>
      <trkpt lat="36.73688" lon="27.70021">
        <ele>1</ele>
      </trkpt>
      <trkpt lat="36.73685" lon="27.7002">
        <ele>1</ele>
      </trkpt>
      <trkpt lat="36.7368" lon="27.70017">
        <ele>1</ele>
      </trkpt>
      <trkpt lat="36.73676" lon="27.70016">
        <ele>1</ele>
      </trkpt>
      <trkpt lat="36.73673" lon="27.70013">
        <ele>1</ele>
      </trkpt>
      <trkpt lat="36.7367" lon="27.7001">
        <ele>1</ele>
      </trkpt>
      <trkpt lat="36.73667" lon="27.70006">
        <ele>1</ele>
      </trkpt>
      <trkpt lat="36.73662" lon="27.70003">
        <ele>1</ele>
      </trkpt>
      <trkpt lat="36.7366" lon="27.70001">
        <ele>1</ele>
      </trkpt>
      <trkpt lat="36.73657" lon="27.7">
        <ele>1</ele>
      </trkpt>
      <trkpt lat="36.73652" lon="27.7">
        <ele>1</ele>
      </trkpt>
      <trkpt lat="36.73647" lon="27.7">
        <ele>1</ele>
      </trkpt>
      <trkpt lat="36.73643" lon="27.69997">
        <ele>1</ele>
      </trkpt>
      <trkpt lat="36.7364" lon="27.69996">
        <ele>1</ele>
      </trkpt>
      <trkpt lat="36.73636" lon="27.69995">
        <ele>1</ele>
      </trkpt>
      <trkpt lat="36.73632" lon="27.69994">
        <ele>1</ele>
      </trkpt>
      <trkpt lat="36.73628" lon="27.69992">
        <ele>1</ele>
      </trkpt>
      <trkpt lat="36.73623" lon="27.69991">
        <ele>1</ele>
      </trkpt>
      <trkpt lat="36.73617" lon="27.6999">
        <ele>1</ele>
      </trkpt>
      <trkpt lat="36.73614" lon="27.69992">
        <ele>1</ele>
      </trkpt>
      <trkpt lat="36.73612" lon="27.69996">
        <ele>1</ele>
      </trkpt>
      <trkpt lat="36.73609" lon="27.69999">
        <ele>1</ele>
      </trkpt>
      <trkpt lat="36.73607" lon="27.70005">
        <ele>1</ele>
      </trkpt>
      <trkpt lat="36.73603" lon="27.70009">
        <ele>1</ele>
      </trkpt>
      <trkpt lat="36.73601" lon="27.70013">
        <ele>1</ele>
      </trkpt>
      <trkpt lat="36.73599" lon="27.70017">
        <ele>1</ele>
      </trkpt>
      <trkpt lat="36.73595" lon="27.70019">
        <ele>1</ele>
      </trkpt>
      <trkpt lat="36.73593" lon="27.70021">
        <ele>1</ele>
      </trkpt>
      <trkpt lat="36.73587" lon="27.70024">
        <ele>1</ele>
      </trkpt>
      <trkpt lat="36.73582" lon="27.70024">
        <ele>1.02</ele>
      </trkpt>
      <trkpt lat="36.73577" lon="27.70022">
        <ele>1.07</ele>
      </trkpt>
      <trkpt lat="36.73575" lon="27.70019">
        <ele>1.1</ele>
      </trkpt>
      <trkpt lat="36.73571" lon="27.70018">
        <ele>1.15</ele>
      </trkpt>
      <trkpt lat="36.73566" lon="27.70019">
        <ele>1.21</ele>
      </trkpt>
      <trkpt lat="36.73564" lon="27.70017">
        <ele>1.24</ele>
      </trkpt>
      <trkpt lat="36.7356" lon="27.70016">
        <ele>1.28</ele>
      </trkpt>
      <trkpt lat="36.73555" lon="27.70014">
        <ele>1.34</ele>
      </trkpt>
      <trkpt lat="36.73552" lon="27.70012">
        <ele>1.38</ele>
      </trkpt>
      <trkpt lat="36.73548" lon="27.70011">
        <ele>1.43</ele>
      </trkpt>
      <trkpt lat="36.73544" lon="27.70009">
        <ele>1.48</ele>
      </trkpt>
      <trkpt lat="36.7354" lon="27.70009">
        <ele>1.52</ele>
      </trkpt>
      <trkpt lat="36.73536" lon="27.70007">
        <ele>1.57</ele>
      </trkpt>
      <trkpt lat="36.73533" lon="27.70005">
        <ele>1.6</ele>
      </trkpt>
      <trkpt lat="36.73529" lon="27.70002">
        <ele>1.65</ele>
      </trkpt>
      <trkpt lat="36.73525" lon="27.69999">
        <ele>1.7</ele>
      </trkpt>
      <trkpt lat="36.73521" lon="27.69997">
        <ele>1.8</ele>
      </trkpt>
      <trkpt lat="36.73517" lon="27.69997">
        <ele>1.8</ele>
      </trkpt>
      <trkpt lat="36.73514" lon="27.69996">
        <ele>1.9</ele>
      </trkpt>
      <trkpt lat="36.7351" lon="27.69996">
        <ele>1.9</ele>
      </trkpt>
      <trkpt lat="36.73508" lon="27.69997">
        <ele>1.9</ele>
      </trkpt>
      <trkpt lat="36.73504" lon="27.69997">
        <ele>2</ele>
      </trkpt>
      <trkpt lat="36.735" lon="27.7">
        <ele>2</ele>
      </trkpt>
      <trkpt lat="36.73496" lon="27.7">
        <ele>2.1</ele>
      </trkpt>
      <trkpt lat="36.73491" lon="27.70001">
        <ele>2.11</ele>
      </trkpt>
      <trkpt lat="36.73487" lon="27.7">
        <ele>2.16</ele>
      </trkpt>
      <trkpt lat="36.73483" lon="27.70001">
        <ele>2.2</ele>
      </trkpt>
      <trkpt lat="36.7348" lon="27.70004">
        <ele>2.24</ele>
      </trkpt>
      <trkpt lat="36.73475" lon="27.70005">
        <ele>2.3</ele>
      </trkpt>
      <trkpt lat="36.73472" lon="27.70009">
        <ele>2.34</ele>
      </trkpt>
      <trkpt lat="36.73469" lon="27.70011">
        <ele>2.37</ele>
      </trkpt>
      <trkpt lat="36.73465" lon="27.70012">
        <ele>2.42</ele>
      </trkpt>
      <trkpt lat="36.73462" lon="27.70013">
        <ele>2.45</ele>
      </trkpt>
      <trkpt lat="36.73457" lon="27.70012">
        <ele>2.52</ele>
      </trkpt>
      <trkpt lat="36.73451" lon="27.70011">
        <ele>2.58</ele>
      </trkpt>
      <trkpt lat="36.73447" lon="27.7001">
        <ele>2.64</ele>
      </trkpt>
      <trkpt lat="36.73444" lon="27.70008">
        <ele>2.67</ele>
      </trkpt>
      <trkpt lat="36.73442" lon="27.70005">
        <ele>2.69</ele>
      </trkpt>
      <trkpt lat="36.73439" lon="27.70002">
        <ele>2.73</ele>
      </trkpt>
      <trkpt lat="36.73437" lon="27.69999">
        <ele>2.8</ele>
      </trkpt>
      <trkpt lat="36.73432" lon="27.69995">
        <ele>3</ele>
      </trkpt>
      <trkpt lat="36.73428" lon="27.69992">
        <ele>3.1</ele>
      </trkpt>
      <trkpt lat="36.73425" lon="27.69988">
        <ele>3.3</ele>
      </trkpt>
      <trkpt lat="36.73423" lon="27.69985">
        <ele>3.4</ele>
      </trkpt>
      <trkpt lat="36.73422" lon="27.69982">
        <ele>3.6</ele>
      </trkpt>
      <trkpt lat="36.7342" lon="27.69979">
        <ele>3.7</ele>
      </trkpt>
      <trkpt lat="36.73418" lon="27.69975">
        <ele>3.9</ele>
      </trkpt>
      <trkpt lat="36.73415" lon="27.69969">
        <ele>4.1</ele>
      </trkpt>
      <trkpt lat="36.73413" lon="27.69966">
        <ele>4.1</ele>
      </trkpt>
      <trkpt lat="36.7341" lon="27.69962">
        <ele>4.2</ele>
      </trkpt>
      <trkpt lat="36.73408" lon="27.69959">
        <ele>4.2</ele>
      </trkpt>
      <trkpt lat="36.73405" lon="27.69955">
        <ele>4.2</ele>
      </trkpt>
      <trkpt lat="36.73403" lon="27.69952">
        <ele>4.3</ele>
      </trkpt>
      <trkpt lat="36.73399" lon="27.69949">
        <ele>4.2</ele>
      </trkpt>
      <trkpt lat="36.73396" lon="27.69948">
        <ele>4.1</ele>
      </trkpt>
      <trkpt lat="36.73394" lon="27.69946">
        <ele>4.1</ele>
      </trkpt>
      <trkpt lat="36.7339" lon="27.69942">
        <ele>4</ele>
      </trkpt>
      <trkpt lat="36.73388" lon="27.69939">
        <ele>3.9</ele>
      </trkpt>
      <trkpt lat="36.73384" lon="27.69936">
        <ele>3.8</ele>
      </trkpt>
      <trkpt lat="36.73381" lon="27.69932">
        <ele>3.7</ele>
      </trkpt>
      <trkpt lat="36.73377" lon="27.69929">
        <ele>3.5</ele>
      </trkpt>
      <trkpt lat="36.73375" lon="27.69925">
        <ele>3.4</ele>
      </trkpt>
      <trkpt lat="36.73372" lon="27.69922">
        <ele>3.3</ele>
      </trkpt>
      <trkpt lat="36.7337" lon="27.69919">
        <ele>3.2</ele>
      </trkpt>
      <trkpt lat="36.73366" lon="27.69914">
        <ele>3.1</ele>
      </trkpt>
      <trkpt lat="36.73362" lon="27.6991">
        <ele>3</ele>
      </trkpt>
      <trkpt lat="36.7336" lon="27.69907">
        <ele>3</ele>
      </trkpt>
      <trkpt lat="36.73358" lon="27.69903">
        <ele>3</ele>
      </trkpt>
      <trkpt lat="36.73354" lon="27.69898">
        <ele>3.1</ele>
      </trkpt>
      <trkpt lat="36.73352" lon="27.69896">
        <ele>3.1</ele>
      </trkpt>
      <trkpt lat="36.73348" lon="27.69892">
        <ele>3.1</ele>
      </trkpt>
      <trkpt lat="36.73346" lon="27.6989">
        <ele>3.1</ele>
      </trkpt>
      <trkpt lat="36.73344" lon="27.69887">
        <ele>3.2</ele>
      </trkpt>
      <trkpt lat="36.73341" lon="27.69883">
        <ele>3.3</ele>
      </trkpt>
      <trkpt lat="36.73339" lon="27.69882">
        <ele>3.3</ele>
      </trkpt>
      <trkpt lat="36.73334" lon="27.69878">
        <ele>3.4</ele>
      </trkpt>
      <trkpt lat="36.73331" lon="27.69874">
        <ele>3.6</ele>
      </trkpt>
      <trkpt lat="36.73328" lon="27.69871">
        <ele>3.8</ele>
      </trkpt>
      <trkpt lat="36.73327" lon="27.69867">
        <ele>4</ele>
      </trkpt>
      <trkpt lat="36.73325" lon="27.69864">
        <ele>4.1</ele>
      </trkpt>
      <trkpt lat="36.73322" lon="27.69858">
        <ele>4.5</ele>
      </trkpt>
      <trkpt lat="36.73318" lon="27.69854">
        <ele>4.7</ele>
      </trkpt>
      <trkpt lat="36.73314" lon="27.6985">
        <ele>5</ele>
      </trkpt>
      <trkpt lat="36.73311" lon="27.69844">
        <ele>5.4</ele>
      </trkpt>
      <trkpt lat="36.7331" lon="27.6984">
        <ele>5.6</ele>
      </trkpt>
      <trkpt lat="36.73307" lon="27.69836">
        <ele>5.8</ele>
      </trkpt>
      <trkpt lat="36.73306" lon="27.69832">
        <ele>6</ele>
      </trkpt>
      <trkpt lat="36.73304" lon="27.69828">
        <ele>5.9</ele>
      </trkpt>
      <trkpt lat="36.73303" lon="27.69824">
        <ele>5.8</ele>
      </trkpt>
      <trkpt lat="36.73302" lon="27.69821">
        <ele>5.8</ele>
      </trkpt>
      <trkpt lat="36.73303" lon="27.69816">
        <ele>5.7</ele>
      </trkpt>
      <trkpt lat="36.73302" lon="27.69811">
        <ele>5.6</ele>
      </trkpt>
      <trkpt lat="36.73299" lon="27.69805">
        <ele>5.4</ele>
      </trkpt>
      <trkpt lat="36.73296" lon="27.69798">
        <ele>5.2</ele>
      </trkpt>
      <trkpt lat="36.73292" lon="27.69796">
        <ele>5.1</ele>
      </trkpt>
      <trkpt lat="36.7329" lon="27.69794">
        <ele>5</ele>
      </trkpt>
      <trkpt lat="36.73288" lon="27.69789">
        <ele>4.8</ele>
      </trkpt>
      <trkpt lat="36.73286" lon="27.69784">
        <ele>4.6</ele>
      </trkpt>
      <trkpt lat="36.73281" lon="27.69781">
        <ele>4.4</ele>
      </trkpt>
      <trkpt lat="36.73276" lon="27.6978">
        <ele>4.2</ele>
      </trkpt>
      <trkpt lat="36.73271" lon="27.69778">
        <ele>4</ele>
      </trkpt>
      <trkpt lat="36.73268" lon="27.69778">
        <ele>3.9</ele>
      </trkpt>
      <trkpt lat="36.73265" lon="27.69776">
        <ele>3.7</ele>
      </trkpt>
      <trkpt lat="36.73262" lon="27.69774">
        <ele>3.6</ele>
      </trkpt>
      <trkpt lat="36.73259" lon="27.6977">
        <ele>3.3</ele>
      </trkpt>
      <trkpt lat="36.73256" lon="27.69766">
        <ele>3</ele>
      </trkpt>
      <trkpt lat="36.73254" lon="27.69762">
        <ele>2.7</ele>
      </trkpt>
      <trkpt lat="36.73251" lon="27.69757">
        <ele>2.4</ele>
      </trkpt>
      <trkpt lat="36.73249" lon="27.69753">
        <ele>2</ele>
      </trkpt>
      <trkpt lat="36.73247" lon="27.69748">
        <ele>2</ele>
      </trkpt>
      <trkpt lat="36.73244" lon="27.69743">
        <ele>1.9</ele>
      </trkpt>
      <trkpt lat="36.73243" lon="27.69739">
        <ele>1.9</ele>
      </trkpt>
      <trkpt lat="36.73243" lon="27.69735">
        <ele>1.8</ele>
      </trkpt>
      <trkpt lat="36.73243" lon="27.69729">
        <ele>1.8</ele>
      </trkpt>
      <trkpt lat="36.73242" lon="27.69723">
        <ele>1.7</ele>
      </trkpt>
      <trkpt lat="36.73239" lon="27.69718">
        <ele>1.6</ele>
      </trkpt>
      <trkpt lat="36.73238" lon="27.69715">
        <ele>1.6</ele>
      </trkpt>
      <trkpt lat="36.73235" lon="27.6971">
        <ele>1.5</ele>
      </trkpt>
      <trkpt lat="36.73234" lon="27.69705">
        <ele>1.5</ele>
      </trkpt>
      <trkpt lat="36.73231" lon="27.69699">
        <ele>1.4</ele>
      </trkpt>
      <trkpt lat="36.73229" lon="27.69695">
        <ele>1.3</ele>
      </trkpt>
      <trkpt lat="36.73228" lon="27.6969">
        <ele>1.3</ele>
      </trkpt>
      <trkpt lat="36.73227" lon="27.69686">
        <ele>1.2</ele>
      </trkpt>
      <trkpt lat="36.73227" lon="27.69683">
        <ele>1.2</ele>
      </trkpt>
      <trkpt lat="36.73223" lon="27.69679">
        <ele>1.1</ele>
      </trkpt>
      <trkpt lat="36.7322" lon="27.69673">
        <ele>1.1</ele>
      </trkpt>
      <trkpt lat="36.73207" lon="27.69656">
        <ele>1.1</ele>
      </trkpt>
      <trkpt lat="36.73206" lon="27.69652">
        <ele>1.2</ele>
      </trkpt>
      <trkpt lat="36.73205" lon="27.69647">
        <ele>1.2</ele>
      </trkpt>
      <trkpt lat="36.73206" lon="27.69641">
        <ele>1.3</ele>
      </trkpt>
      <trkpt lat="36.73205" lon="27.69633">
        <ele>1.4</ele>
      </trkpt>
      <trkpt lat="36.73205" lon="27.69628">
        <ele>1.5</ele>
      </trkpt>
      <trkpt lat="36.73206" lon="27.69625">
        <ele>1.5</ele>
      </trkpt>
      <trkpt lat="36.73207" lon="27.69621">
        <ele>1.5</ele>
      </trkpt>
      <trkpt lat="36.73208" lon="27.69614">
        <ele>1.6</ele>
      </trkpt>
      <trkpt lat="36.73209" lon="27.69609">
        <ele>1.7</ele>
      </trkpt>
      <trkpt lat="36.7321" lon="27.69601">
        <ele>1.8</ele>
      </trkpt>
      <trkpt lat="36.73208" lon="27.69596">
        <ele>1.9</ele>
      </trkpt>
      <trkpt lat="36.73208" lon="27.69592">
        <ele>1.9</ele>
      </trkpt>
      <trkpt lat="36.73207" lon="27.69586">
        <ele>2</ele>
      </trkpt>
      <trkpt lat="36.73206" lon="27.69581">
        <ele>2</ele>
      </trkpt>
      <trkpt lat="36.73204" lon="27.69576">
        <ele>2.1</ele>
      </trkpt>
      <trkpt lat="36.73202" lon="27.69571">
        <ele>2.2</ele>
      </trkpt>
      <trkpt lat="36.73201" lon="27.69567">
        <ele>2.2</ele>
      </trkpt>
      <trkpt lat="36.732" lon="27.69563">
        <ele>2.2</ele>
      </trkpt>
      <trkpt lat="36.73196" lon="27.69558">
        <ele>2.3</ele>
      </trkpt>
      <trkpt lat="36.73196" lon="27.69555">
        <ele>2.3</ele>
      </trkpt>
      <trkpt lat="36.73195" lon="27.69551">
        <ele>2.4</ele>
      </trkpt>
      <trkpt lat="36.73191" lon="27.69549">
        <ele>2.4</ele>
      </trkpt>
      <trkpt lat="36.73189" lon="27.69544">
        <ele>2.5</ele>
      </trkpt>
      <trkpt lat="36.73188" lon="27.6954">
        <ele>2.5</ele>
      </trkpt>
      <trkpt lat="36.73187" lon="27.69536">
        <ele>2.6</ele>
      </trkpt>
      <trkpt lat="36.73185" lon="27.6953">
        <ele>2.6</ele>
      </trkpt>
      <trkpt lat="36.73183" lon="27.69525">
        <ele>2.7</ele>
      </trkpt>
      <trkpt lat="36.73183" lon="27.6952">
        <ele>2.8</ele>
      </trkpt>
      <trkpt lat="36.73183" lon="27.69515">
        <ele>2.8</ele>
      </trkpt>
      <trkpt lat="36.73184" lon="27.6951">
        <ele>2.9</ele>
      </trkpt>
      <trkpt lat="36.73183" lon="27.69505">
        <ele>2.9</ele>
      </trkpt>
      <trkpt lat="36.73183" lon="27.69502">
        <ele>3</ele>
      </trkpt>
      <trkpt lat="36.73183" lon="27.69498">
        <ele>3</ele>
      </trkpt>
      <trkpt lat="36.73182" lon="27.69492">
        <ele>2.9</ele>
      </trkpt>
      <trkpt lat="36.73182" lon="27.69486">
        <ele>2.9</ele>
      </trkpt>
      <trkpt lat="36.73183" lon="27.69481">
        <ele>2.9</ele>
      </trkpt>
      <trkpt lat="36.73184" lon="27.69477">
        <ele>2.8</ele>
      </trkpt>
      <trkpt lat="36.73182" lon="27.69472">
        <ele>2.8</ele>
      </trkpt>
      <trkpt lat="36.73181" lon="27.69469">
        <ele>2.7</ele>
      </trkpt>
      <trkpt lat="36.7318" lon="27.69465">
        <ele>2.7</ele>
      </trkpt>
      <trkpt lat="36.73179" lon="27.69459">
        <ele>2.6</ele>
      </trkpt>
      <trkpt lat="36.73179" lon="27.69453">
        <ele>2.6</ele>
      </trkpt>
      <trkpt lat="36.73179" lon="27.69449">
        <ele>2.6</ele>
      </trkpt>
      <trkpt lat="36.73179" lon="27.69446">
        <ele>2.5</ele>
      </trkpt>
      <trkpt lat="36.73178" lon="27.69442">
        <ele>2.5</ele>
      </trkpt>
      <trkpt lat="36.73176" lon="27.69436">
        <ele>2.4</ele>
      </trkpt>
      <trkpt lat="36.73175" lon="27.6943">
        <ele>2.3</ele>
      </trkpt>
      <trkpt lat="36.73174" lon="27.69427">
        <ele>2.3</ele>
      </trkpt>
      <trkpt lat="36.73174" lon="27.69423">
        <ele>2.2</ele>
      </trkpt>
      <trkpt lat="36.73173" lon="27.69418">
        <ele>2.2</ele>
      </trkpt>
      <trkpt lat="36.73172" lon="27.69414">
        <ele>2.2</ele>
      </trkpt>
      <trkpt lat="36.7317" lon="27.6941">
        <ele>2.2</ele>
      </trkpt>
      <trkpt lat="36.73171" lon="27.69403">
        <ele>2.3</ele>
      </trkpt>
      <trkpt lat="36.73172" lon="27.69398">
        <ele>2.4</ele>
      </trkpt>
      <trkpt lat="36.73173" lon="27.69394">
        <ele>2.4</ele>
      </trkpt>
      <trkpt lat="36.73172" lon="27.69388">
        <ele>2.5</ele>
      </trkpt>
      <trkpt lat="36.73172" lon="27.69382">
        <ele>2.6</ele>
      </trkpt>
      <trkpt lat="36.73171" lon="27.69378">
        <ele>2.6</ele>
      </trkpt>
      <trkpt lat="36.73171" lon="27.69372">
        <ele>2.7</ele>
      </trkpt>
      <trkpt lat="36.73171" lon="27.69368">
        <ele>2.7</ele>
      </trkpt>
      <trkpt lat="36.73174" lon="27.69366">
        <ele>2.8</ele>
      </trkpt>
      <trkpt lat="36.73176" lon="27.69361">
        <ele>3</ele>
      </trkpt>
      <trkpt lat="36.73177" lon="27.69357">
        <ele>3.1</ele>
      </trkpt>
      <trkpt lat="36.73177" lon="27.69353">
        <ele>3.1</ele>
      </trkpt>
      <trkpt lat="36.73175" lon="27.69347">
        <ele>3.1</ele>
      </trkpt>
      <trkpt lat="36.73173" lon="27.69343">
        <ele>3.1</ele>
      </trkpt>
      <trkpt lat="36.73173" lon="27.69339">
        <ele>3.2</ele>
      </trkpt>
      <trkpt lat="36.73175" lon="27.69335">
        <ele>3.3</ele>
      </trkpt>
      <trkpt lat="36.73177" lon="27.69331">
        <ele>3.5</ele>
      </trkpt>
      <trkpt lat="36.73175" lon="27.69328">
        <ele>3.5</ele>
      </trkpt>
      <trkpt lat="36.73175" lon="27.69322">
        <ele>3.7</ele>
      </trkpt>
      <trkpt lat="36.73174" lon="27.69318">
        <ele>3.9</ele>
      </trkpt>
      <trkpt lat="36.73173" lon="27.69314">
        <ele>4</ele>
      </trkpt>
      <trkpt lat="36.73171" lon="27.6931">
        <ele>4.1</ele>
      </trkpt>
      <trkpt lat="36.7317" lon="27.69306">
        <ele>4.2</ele>
      </trkpt>
      <trkpt lat="36.7317" lon="27.69301">
        <ele>4.3</ele>
      </trkpt>
      <trkpt lat="36.73167" lon="27.69295">
        <ele>4.4</ele>
      </trkpt>
      <trkpt lat="36.73166" lon="27.69291">
        <ele>4.5</ele>
      </trkpt>
      <trkpt lat="36.73165" lon="27.69287">
        <ele>4.7</ele>
      </trkpt>
      <trkpt lat="36.73164" lon="27.69284">
        <ele>4.8</ele>
      </trkpt>
      <trkpt lat="36.73163" lon="27.6928">
        <ele>4.9</ele>
      </trkpt>
      <trkpt lat="36.73159" lon="27.69274">
        <ele>5.1</ele>
      </trkpt>
      <trkpt lat="36.73158" lon="27.69269">
        <ele>5.3</ele>
      </trkpt>
      <trkpt lat="36.73156" lon="27.69264">
        <ele>5.5</ele>
      </trkpt>
      <trkpt lat="36.73155" lon="27.6926">
        <ele>5.6</ele>
      </trkpt>
      <trkpt lat="36.73152" lon="27.69255">
        <ele>5.8</ele>
      </trkpt>
      <trkpt lat="36.7315" lon="27.69251">
        <ele>6</ele>
      </trkpt>
      <trkpt lat="36.73149" lon="27.69246">
        <ele>6.4</ele>
      </trkpt>
      <trkpt lat="36.73147" lon="27.69241">
        <ele>6.8</ele>
      </trkpt>
      <trkpt lat="36.73145" lon="27.69237">
        <ele>7.1</ele>
      </trkpt>
      <trkpt lat="36.73144" lon="27.69234">
        <ele>7.3</ele>
      </trkpt>
      <trkpt lat="36.73142" lon="27.69232">
        <ele>7.4</ele>
      </trkpt>
      <trkpt lat="36.7314" lon="27.69226">
        <ele>7.8</ele>
      </trkpt>
      <trkpt lat="36.73138" lon="27.69223">
        <ele>7.9</ele>
      </trkpt>
      <trkpt lat="36.73136" lon="27.69221">
        <ele>7.9</ele>
      </trkpt>
      <trkpt lat="36.73134" lon="27.69214">
        <ele>8.2</ele>
      </trkpt>
      <trkpt lat="36.73133" lon="27.69209">
        <ele>8.4</ele>
      </trkpt>
      <trkpt lat="36.73132" lon="27.69206">
        <ele>8.5</ele>
      </trkpt>
      <trkpt lat="36.7313" lon="27.69202">
        <ele>8.5</ele>
      </trkpt>
      <trkpt lat="36.73128" lon="27.69198">
        <ele>8.6</ele>
      </trkpt>
      <trkpt lat="36.73128" lon="27.69193">
        <ele>8.7</ele>
      </trkpt>
      <trkpt lat="36.73127" lon="27.69189">
        <ele>8.8</ele>
      </trkpt>
      <trkpt lat="36.73125" lon="27.69184">
        <ele>8.8</ele>
      </trkpt>
      <trkpt lat="36.73124" lon="27.69177">
        <ele>8.9</ele>
      </trkpt>
      <trkpt lat="36.73123" lon="27.69172">
        <ele>8.8</ele>
      </trkpt>
      <trkpt lat="36.73122" lon="27.69168">
        <ele>8.9</ele>
      </trkpt>
      <trkpt lat="36.73121" lon="27.69163">
        <ele>8.7</ele>
      </trkpt>
      <trkpt lat="36.73119" lon="27.69157">
        <ele>8.5</ele>
      </trkpt>
      <trkpt lat="36.73118" lon="27.69151">
        <ele>8.4</ele>
      </trkpt>
      <trkpt lat="36.73118" lon="27.69147">
        <ele>8.4</ele>
      </trkpt>
      <trkpt lat="36.73116" lon="27.69145">
        <ele>8.1</ele>
      </trkpt>
      <trkpt lat="36.73114" lon="27.69142">
        <ele>7.9</ele>
      </trkpt>
      <trkpt lat="36.73112" lon="27.69136">
        <ele>7.6</ele>
      </trkpt>
      <trkpt lat="36.73111" lon="27.69133">
        <ele>7.5</ele>
      </trkpt>
      <trkpt lat="36.7311" lon="27.69129">
        <ele>7.4</ele>
      </trkpt>
      <trkpt lat="36.73106" lon="27.69124">
        <ele>6.9</ele>
      </trkpt>
      <trkpt lat="36.73104" lon="27.69118">
        <ele>6.7</ele>
      </trkpt>
      <trkpt lat="36.73101" lon="27.69116">
        <ele>6.4</ele>
      </trkpt>
      <trkpt lat="36.731" lon="27.69113">
        <ele>6.2</ele>
      </trkpt>
      <trkpt lat="36.73099" lon="27.6911">
        <ele>6.2</ele>
      </trkpt>
      <trkpt lat="36.73097" lon="27.69107">
        <ele>6</ele>
      </trkpt>
      <trkpt lat="36.73095" lon="27.69104">
        <ele>5.8</ele>
      </trkpt>
      <trkpt lat="36.73092" lon="27.691">
        <ele>5.5</ele>
      </trkpt>
      <trkpt lat="36.73089" lon="27.69096">
        <ele>5.3</ele>
      </trkpt>
      <trkpt lat="36.73087" lon="27.69092">
        <ele>5.1</ele>
      </trkpt>
      <trkpt lat="36.73084" lon="27.69088">
        <ele>4.9</ele>
      </trkpt>
      <trkpt lat="36.73081" lon="27.69086">
        <ele>4.8</ele>
      </trkpt>
      <trkpt lat="36.73079" lon="27.69083">
        <ele>4.8</ele>
      </trkpt>
      <trkpt lat="36.73077" lon="27.6908">
        <ele>4.7</ele>
      </trkpt>
      <trkpt lat="36.73075" lon="27.69078">
        <ele>4.7</ele>
      </trkpt>
      <trkpt lat="36.73073" lon="27.69076">
        <ele>4.6</ele>
      </trkpt>
      <trkpt lat="36.7307" lon="27.69072">
        <ele>4.5</ele>
      </trkpt>
      <trkpt lat="36.73068" lon="27.69069">
        <ele>4.5</ele>
      </trkpt>
      <trkpt lat="36.73065" lon="27.69067">
        <ele>4.4</ele>
      </trkpt>
      <trkpt lat="36.7306" lon="27.69063">
        <ele>4.3</ele>
      </trkpt>
      <trkpt lat="36.73056" lon="27.69059">
        <ele>4.2</ele>
      </trkpt>
      <trkpt lat="36.73052" lon="27.69055">
        <ele>4.1</ele>
      </trkpt>
      <trkpt lat="36.73048" lon="27.69051">
        <ele>4</ele>
      </trkpt>
      <trkpt lat="36.73044" lon="27.69051">
        <ele>3.9</ele>
      </trkpt>
      <trkpt lat="36.73041" lon="27.69047">
        <ele>3.8</ele>
      </trkpt>
      <trkpt lat="36.73036" lon="27.69043">
        <ele>3.8</ele>
      </trkpt>
      <trkpt lat="36.73032" lon="27.6904">
        <ele>3.7</ele>
      </trkpt>
      <trkpt lat="36.73029" lon="27.69037">
        <ele>3.7</ele>
      </trkpt>
      <trkpt lat="36.73027" lon="27.69035">
        <ele>3.7</ele>
      </trkpt>
      <trkpt lat="36.73023" lon="27.69032">
        <ele>3.6</ele>
      </trkpt>
      <trkpt lat="36.73021" lon="27.6903">
        <ele>3.6</ele>
      </trkpt>
      <trkpt lat="36.73018" lon="27.69028">
        <ele>3.6</ele>
      </trkpt>
      <trkpt lat="36.73015" lon="27.69028">
        <ele>3.5</ele>
      </trkpt>
      <trkpt lat="36.73012" lon="27.69026">
        <ele>3.4</ele>
      </trkpt>
      <trkpt lat="36.73009" lon="27.69023">
        <ele>3.4</ele>
      </trkpt>
      <trkpt lat="36.73006" lon="27.6902">
        <ele>3.5</ele>
      </trkpt>
      <trkpt lat="36.73001" lon="27.69019">
        <ele>3.3</ele>
      </trkpt>
      <trkpt lat="36.72997" lon="27.69015">
        <ele>3.4</ele>
      </trkpt>
      <trkpt lat="36.72995" lon="27.69013">
        <ele>3.4</ele>
      </trkpt>
      <trkpt lat="36.72992" lon="27.69011">
        <ele>3.3</ele>
      </trkpt>
      <trkpt lat="36.72988" lon="27.69009">
        <ele>3.3</ele>
      </trkpt>
      <trkpt lat="36.72984" lon="27.69007">
        <ele>3.2</ele>
      </trkpt>
      <trkpt lat="36.7298" lon="27.69003">
        <ele>3.2</ele>
      </trkpt>
      <trkpt lat="36.72976" lon="27.68998">
        <ele>3.2</ele>
      </trkpt>
      <trkpt lat="36.72971" lon="27.68993">
        <ele>3.4</ele>
      </trkpt>
      <trkpt lat="36.72968" lon="27.68991">
        <ele>3.5</ele>
      </trkpt>
      <trkpt lat="36.72965" lon="27.68987">
        <ele>3.6</ele>
      </trkpt>
      <trkpt lat="36.72962" lon="27.68986">
        <ele>3.7</ele>
      </trkpt>
      <trkpt lat="36.7296" lon="27.68984">
        <ele>3.8</ele>
      </trkpt>
      <trkpt lat="36.72958" lon="27.68981">
        <ele>4</ele>
      </trkpt>
      <trkpt lat="36.72953" lon="27.68976">
        <ele>4.3</ele>
      </trkpt>
      <trkpt lat="36.7295" lon="27.68975">
        <ele>4.3</ele>
      </trkpt>
      <trkpt lat="36.72947" lon="27.68973">
        <ele>4.5</ele>
      </trkpt>
      <trkpt lat="36.72944" lon="27.68971">
        <ele>4.6</ele>
      </trkpt>
      <trkpt lat="36.7294" lon="27.68968">
        <ele>4.9</ele>
      </trkpt>
      <trkpt lat="36.72935" lon="27.68966">
        <ele>5.2</ele>
      </trkpt>
      <trkpt lat="36.7293" lon="27.68963">
        <ele>5.5</ele>
      </trkpt>
      <trkpt lat="36.72927" lon="27.68962">
        <ele>5.6</ele>
      </trkpt>
      <trkpt lat="36.72924" lon="27.6896">
        <ele>5.8</ele>
      </trkpt>
      <trkpt lat="36.72921" lon="27.68958">
        <ele>6.1</ele>
      </trkpt>
      <trkpt lat="36.72916" lon="27.68954">
        <ele>6.5</ele>
      </trkpt>
      <trkpt lat="36.72913" lon="27.68953">
        <ele>6.5</ele>
      </trkpt>
      <trkpt lat="36.7291" lon="27.68949">
        <ele>6.9</ele>
      </trkpt>
      <trkpt lat="36.72906" lon="27.68944">
        <ele>7.2</ele>
      </trkpt>
      <trkpt lat="36.72902" lon="27.68941">
        <ele>7.3</ele>
      </trkpt>
      <trkpt lat="36.72898" lon="27.68939">
        <ele>7.3</ele>
      </trkpt>
      <trkpt lat="36.72895" lon="27.68937">
        <ele>7.4</ele>
      </trkpt>
      <trkpt lat="36.72891" lon="27.68936">
        <ele>7.3</ele>
      </trkpt>
      <trkpt lat="36.72889" lon="27.68934">
        <ele>7.3</ele>
      </trkpt>
      <trkpt lat="36.72886" lon="27.68932">
        <ele>7.4</ele>
      </trkpt>
      <trkpt lat="36.72882" lon="27.68928">
        <ele>7.5</ele>
      </trkpt>
      <trkpt lat="36.72879" lon="27.68927">
        <ele>7.4</ele>
      </trkpt>
      <trkpt lat="36.72876" lon="27.68926">
        <ele>7.3</ele>
      </trkpt>
      <trkpt lat="36.72873" lon="27.68925">
        <ele>7.2</ele>
      </trkpt>
      <trkpt lat="36.72868" lon="27.68923">
        <ele>7</ele>
      </trkpt>
      <trkpt lat="36.72865" lon="27.68922">
        <ele>6.9</ele>
      </trkpt>
      <trkpt lat="36.7286" lon="27.6892">
        <ele>6.7</ele>
      </trkpt>
      <trkpt lat="36.72857" lon="27.68917">
        <ele>6.7</ele>
      </trkpt>
      <trkpt lat="36.72855" lon="27.68914">
        <ele>6.7</ele>
      </trkpt>
      <trkpt lat="36.72852" lon="27.68913">
        <ele>6.5</ele>
      </trkpt>
      <trkpt lat="36.72849" lon="27.68912">
        <ele>6.5</ele>
      </trkpt>
      <trkpt lat="36.72846" lon="27.6891">
        <ele>6.3</ele>
      </trkpt>
      <trkpt lat="36.72843" lon="27.68908">
        <ele>6.3</ele>
      </trkpt>
      <trkpt lat="36.7284" lon="27.68906">
        <ele>6.2</ele>
      </trkpt>
      <trkpt lat="36.72838" lon="27.68904">
        <ele>6.2</ele>
      </trkpt>
      <trkpt lat="36.72835" lon="27.68902">
        <ele>6.2</ele>
      </trkpt>
      <trkpt lat="36.72832" lon="27.689">
        <ele>6.2</ele>
      </trkpt>
      <trkpt lat="36.72828" lon="27.68898">
        <ele>6.3</ele>
      </trkpt>
      <trkpt lat="36.72825" lon="27.68898">
        <ele>6.3</ele>
      </trkpt>
      <trkpt lat="36.7282" lon="27.68894">
        <ele>6.5</ele>
      </trkpt>
      <trkpt lat="36.72818" lon="27.68892">
        <ele>6.6</ele>
      </trkpt>
      <trkpt lat="36.72815" lon="27.68889">
        <ele>6.8</ele>
      </trkpt>
      <trkpt lat="36.72813" lon="27.68887">
        <ele>6.9</ele>
      </trkpt>
      <trkpt lat="36.72808" lon="27.68884">
        <ele>7</ele>
      </trkpt>
      <trkpt lat="36.72806" lon="27.68881">
        <ele>7.1</ele>
      </trkpt>
      <trkpt lat="36.72802" lon="27.6888">
        <ele>7.1</ele>
      </trkpt>
      <trkpt lat="36.72799" lon="27.68879">
        <ele>7.2</ele>
      </trkpt>
      <trkpt lat="36.72794" lon="27.68876">
        <ele>7.2</ele>
      </trkpt>
      <trkpt lat="36.72792" lon="27.68875">
        <ele>7.3</ele>
      </trkpt>
      <trkpt lat="36.72786" lon="27.68873">
        <ele>7.2</ele>
      </trkpt>
      <trkpt lat="36.72781" lon="27.68871">
        <ele>7.2</ele>
      </trkpt>
      <trkpt lat="36.72778" lon="27.68871">
        <ele>7.2</ele>
      </trkpt>
      <trkpt lat="36.72774" lon="27.68868">
        <ele>7.3</ele>
      </trkpt>
      <trkpt lat="36.72768" lon="27.68863">
        <ele>7.4</ele>
      </trkpt>
      <trkpt lat="36.72766" lon="27.6886">
        <ele>7.4</ele>
      </trkpt>
      <trkpt lat="36.72762" lon="27.68856">
        <ele>7.5</ele>
      </trkpt>
      <trkpt lat="36.72758" lon="27.68856">
        <ele>7.4</ele>
      </trkpt>
      <trkpt lat="36.72755" lon="27.68857">
        <ele>7.3</ele>
      </trkpt>
      <trkpt lat="36.72752" lon="27.68855">
        <ele>7.3</ele>
      </trkpt>
      <trkpt lat="36.72747" lon="27.68852">
        <ele>7.81</ele>
      </trkpt>
      <trkpt lat="36.72745" lon="27.6885">
        <ele>7.61</ele>
      </trkpt>
      <trkpt lat="36.72742" lon="27.68848">
        <ele>7.41</ele>
      </trkpt>
      <trkpt lat="36.72739" lon="27.68845">
        <ele>7.19</ele>
      </trkpt>
      <trkpt lat="36.72734" lon="27.68843">
        <ele>6.86</ele>
      </trkpt>
      <trkpt lat="36.72731" lon="27.68843">
        <ele>6.6</ele>
      </trkpt>
      <trkpt lat="36.72727" lon="27.68843">
        <ele>6.35</ele>
      </trkpt>
      <trkpt lat="36.72724" lon="27.68842">
        <ele>6.11</ele>
      </trkpt>
      <trkpt lat="36.72722" lon="27.68839">
        <ele>5.98</ele>
      </trkpt>
      <trkpt lat="36.72718" lon="27.68837">
        <ele>5.68</ele>
      </trkpt>
      <trkpt lat="36.72714" lon="27.68836">
        <ele>5.38</ele>
      </trkpt>
      <trkpt lat="36.7271" lon="27.68833">
        <ele>5.2</ele>
      </trkpt>
      <trkpt lat="36.72705" lon="27.68831">
        <ele>5</ele>
      </trkpt>
      <trkpt lat="36.72702" lon="27.68831">
        <ele>4.8</ele>
      </trkpt>
      <trkpt lat="36.727" lon="27.68827">
        <ele>4.8</ele>
      </trkpt>
      <trkpt lat="36.72605" lon="27.68658">
        <ele>5.48</ele>
        <time>2018-05-15T09:16:52Z</time>
      </trkpt>
      <trkpt lat="36.72605" lon="27.68658">
        <ele>5.48</ele>
        <time>2018-05-15T09:16:52Z</time>
      </trkpt>
      <trkpt lat="36.72605" lon="27.68658">
        <ele>5.48</ele>
        <time>2018-05-15T09:16:52Z</time>
      </trkpt>
      <trkpt lat="36.72605" lon="27.68658">
        <ele>5.48</ele>
        <time>2018-05-15T09:16:52Z</time>
      </trkpt>
      <trkpt lat="36.72565" lon="27.68634">
        <ele>4.328</ele>
      </trkpt>
      <trkpt lat="36.72525" lon="27.68626">
        <ele>5.374</ele>
      </trkpt>
      <trkpt lat="36.72486" lon="27.68619">
        <ele>3.739</ele>
      </trkpt>
      <trkpt lat="36.72449" lon="27.68628">
        <ele>3.203</ele>
      </trkpt>
      <trkpt lat="36.72423" lon="27.68635">
        <ele>4.962</ele>
      </trkpt>
      <trkpt lat="36.72384" lon="27.6865">
        <ele>5.636</ele>
      </trkpt>
      <trkpt lat="36.72367" lon="27.6868">
        <ele>3.217</ele>
      </trkpt>
      <trkpt lat="36.72366" lon="27.68681">
        <ele>3.235</ele>
      </trkpt>
      <trkpt lat="36.72369" lon="27.68743">
        <ele>4.339</ele>
      </trkpt>
      <trkpt lat="36.72371" lon="27.6878">
        <ele>4.218</ele>
      </trkpt>
      <trkpt lat="36.7237" lon="27.68831">
        <ele>5.17</ele>
      </trkpt>
      <trkpt lat="36.72377" lon="27.6886">
        <ele>6.456</ele>
      </trkpt>
      <trkpt lat="36.72371" lon="27.68876">
        <ele>5.784</ele>
      </trkpt>
      <trkpt lat="36.72348" lon="27.68884">
        <ele>6.283</ele>
      </trkpt>
      <trkpt lat="36.72329" lon="27.68902">
        <ele>4.11</ele>
      </trkpt>
      <trkpt lat="36.72314" lon="27.68912">
        <ele>2.654</ele>
      </trkpt>
      <trkpt lat="36.72292" lon="27.68879">
        <ele>6.633</ele>
      </trkpt>
      <trkpt lat="36.72267" lon="27.68853">
        <ele>8.179</ele>
      </trkpt>
      <trkpt lat="36.72247" lon="27.68833">
        <ele>8.107</ele>
      </trkpt>
      <trkpt lat="36.7224" lon="27.68814">
        <ele>8.11</ele>
      </trkpt>
      <trkpt lat="36.72222" lon="27.68782">
        <ele>6.292</ele>
      </trkpt>
      <trkpt lat="36.72206" lon="27.68773">
        <ele>6.481</ele>
      </trkpt>
      <trkpt lat="36.72185" lon="27.6877">
        <ele>7.065</ele>
      </trkpt>
      <trkpt lat="36.72171" lon="27.68756">
        <ele>7.066</ele>
      </trkpt>
      <trkpt lat="36.72154" lon="27.68707">
        <ele>7.13</ele>
      </trkpt>
      <trkpt lat="36.72141" lon="27.68703">
        <ele>6.473</ele>
      </trkpt>
      <trkpt lat="36.72089" lon="27.68698">
        <ele>2.788</ele>
      </trkpt>
      <trkpt lat="36.7206" lon="27.68699">
        <ele>5.717</ele>
      </trkpt>
      <trkpt lat="36.72043" lon="27.68696">
        <ele>6.52</ele>
      </trkpt>
      <trkpt lat="36.72036" lon="27.6869">
        <ele>7.283</ele>
      </trkpt>
      <trkpt lat="36.72027" lon="27.68693">
        <ele>7.175</ele>
      </trkpt>
      <trkpt lat="36.72015" lon="27.68699">
        <ele>6.628</ele>
      </trkpt>
      <trkpt lat="36.72006" lon="27.68702">
        <ele>6.101</ele>
      </trkpt>
      <trkpt lat="36.71995" lon="27.68704">
        <ele>5.667</ele>
      </trkpt>
      <trkpt lat="36.71983" lon="27.68706">
        <ele>5.6</ele>
      </trkpt>
      <trkpt lat="36.71974" lon="27.6871">
        <ele>5.437</ele>
      </trkpt>
      <trkpt lat="36.71962" lon="27.68713">
        <ele>5.962</ele>
      </trkpt>
      <trkpt lat="36.7195" lon="27.68721">
        <ele>6.642</ele>
      </trkpt>
      <trkpt lat="36.71935" lon="27.68729">
        <ele>6.658</ele>
      </trkpt>
      <trkpt lat="36.71926" lon="27.68738">
        <ele>6.635</ele>
      </trkpt>
      <trkpt lat="36.71906" lon="27.68747">
        <ele>7.382</ele>
      </trkpt>
      <trkpt lat="36.71893" lon="27.68751">
        <ele>7.788</ele>
      </trkpt>
      <trkpt lat="36.71868" lon="27.68748">
        <ele>8.817</ele>
      </trkpt>
      <trkpt lat="36.71832" lon="27.68754">
        <ele>10.979</ele>
      </trkpt>
      <trkpt lat="36.71809" lon="27.68766">
        <ele>12.182</ele>
      </trkpt>
      <trkpt lat="36.71792" lon="27.68779">
        <ele>12.415</ele>
      </trkpt>
      <trkpt lat="36.71769" lon="27.6879">
        <ele>11.851</ele>
      </trkpt>
      <trkpt lat="36.7175" lon="27.68797">
        <ele>11.242</ele>
      </trkpt>
      <trkpt lat="36.71717" lon="27.68771">
        <ele>12.728</ele>
      </trkpt>
      <trkpt lat="36.717" lon="27.68759">
        <ele>14.034</ele>
      </trkpt>
      <trkpt lat="36.71662" lon="27.68746">
        <ele>16.789</ele>
      </trkpt>
      <trkpt lat="36.71603" lon="27.68765">
        <ele>17.81</ele>
      </trkpt>
      <trkpt lat="36.71547" lon="27.68773">
        <ele>13.949</ele>
      </trkpt>
      <trkpt lat="36.71507" lon="27.68782">
        <ele>13.122</ele>
      </trkpt>
      <trkpt lat="36.71375" lon="27.68786">
        <ele>15.412</ele>
      </trkpt>
      <trkpt lat="36.71347" lon="27.68789">
        <ele>16.021</ele>
      </trkpt>
      <trkpt lat="36.713" lon="27.68801">
        <ele>16.821</ele>
      </trkpt>
      <trkpt lat="36.71282" lon="27.6881">
        <ele>17.146</ele>
      </trkpt>
      <trkpt lat="36.71271" lon="27.68789">
        <ele>16.834</ele>
      </trkpt>
      <trkpt lat="36.71264" lon="27.68743">
        <ele>16.123</ele>
      </trkpt>
      <trkpt lat="36.71258" lon="27.6872">
        <ele>16.928</ele>
      </trkpt>
      <trkpt lat="36.71253" lon="27.68709">
        <ele>17.89</ele>
      </trkpt>
      <trkpt lat="36.71216" lon="27.68703">
        <ele>19.226</ele>
      </trkpt>
      <trkpt lat="36.71128" lon="27.68708">
        <ele>20.422</ele>
      </trkpt>
      <trkpt lat="36.71081" lon="27.68723">
        <ele>22.236</ele>
      </trkpt>
      <trkpt lat="36.71031" lon="27.68751">
        <ele>22.796</ele>
      </trkpt>
      <trkpt lat="36.71006" lon="27.68773">
        <ele>22.331</ele>
      </trkpt>
      <trkpt lat="36.70962" lon="27.68798">
        <ele>21.992</ele>
      </trkpt>
      <trkpt lat="36.70939" lon="27.68807">
        <ele>23.409</ele>
      </trkpt>
      <trkpt lat="36.70896" lon="27.68798">
        <ele>27.713</ele>
      </trkpt>
      <trkpt lat="36.70828" lon="27.68768">
        <ele>31.174</ele>
      </trkpt>
      <trkpt lat="36.70707" lon="27.68707">
        <ele>37.083</ele>
      </trkpt>
      <trkpt lat="36.70668" lon="27.68671">
        <ele>38.401</ele>
      </trkpt>
      <trkpt lat="36.70611" lon="27.68614">
        <ele>31.981</ele>
      </trkpt>
      <trkpt lat="36.70563" lon="27.68542">
        <ele>35.874</ele>
      </trkpt>
      <trkpt lat="36.70526" lon="27.68483">
        <ele>40.826</ele>
      </trkpt>
      <trkpt lat="36.70491" lon="27.68433">
        <ele>41.612</ele>
      </trkpt>
      <trkpt lat="36.7048" lon="27.68406">
        <ele>38.527</ele>
      </trkpt>
      <trkpt lat="36.70489" lon="27.68298">
        <ele>32.779</ele>
      </trkpt>
      <trkpt lat="36.70496" lon="27.68224">
        <ele>23.56</ele>
      </trkpt>
      <trkpt lat="36.70513" lon="27.68132">
        <ele>25.604</ele>
      </trkpt>
      <trkpt lat="36.70519" lon="27.68098">
        <ele>26.454</ele>
      </trkpt>
      <trkpt lat="36.70486" lon="27.68041">
        <ele>17.545</ele>
      </trkpt>
      <trkpt lat="36.70428" lon="27.67977">
        <ele>11.379</ele>
      </trkpt>
      <trkpt lat="36.70398" lon="27.67913">
        <ele>6.731</ele>
      </trkpt>
      <trkpt lat="36.70377" lon="27.67874">
        <ele>9.415</ele>
      </trkpt>
      <trkpt lat="36.70352" lon="27.67826">
        <ele>15.308</ele>
      </trkpt>
      <trkpt lat="36.70312" lon="27.67774">
        <ele>9.692</ele>
      </trkpt>
      <trkpt lat="36.70285" lon="27.67736">
        <ele>4.716</ele>
      </trkpt>
      <trkpt lat="36.70267" lon="27.67709">
        <ele>9.264</ele>
      </trkpt>
      <trkpt lat="36.70228" lon="27.67703">
        <ele>16.713</ele>
      </trkpt>
      <trkpt lat="36.70179" lon="27.67714">
        <ele>10.043</ele>
      </trkpt>
      <trkpt lat="36.70139" lon="27.67685">
        <ele>13.848</ele>
      </trkpt>
      <trkpt lat="36.70129" lon="27.676">
        <ele>10.134</ele>
      </trkpt>
      <trkpt lat="36.70127" lon="27.6757">
        <ele>10.693</ele>
      </trkpt>
      <trkpt lat="36.70131" lon="27.67588">
        <ele>10.517</ele>
      </trkpt>
      <trkpt lat="36.70127" lon="27.67577">
        <ele>10.009</ele>
      </trkpt>
      <trkpt lat="36.7012" lon="27.67555">
        <ele>10.836</ele>
      </trkpt>
      <trkpt lat="36.70121" lon="27.67538">
        <ele>12.331</ele>
      </trkpt>
      <trkpt lat="36.70123" lon="27.67515">
        <ele>13.968</ele>
      </trkpt>
      <trkpt lat="36.70124" lon="27.675">
        <ele>14.698</ele>
      </trkpt>
      <trkpt lat="36.70123" lon="27.67474">
        <ele>18.13</ele>
      </trkpt>
      <trkpt lat="36.70116" lon="27.6745">
        <ele>19.87</ele>
      </trkpt>
      <trkpt lat="36.70105" lon="27.67423">
        <ele>20.835</ele>
      </trkpt>
      <trkpt lat="36.70094" lon="27.67401">
        <ele>20.572</ele>
      </trkpt>
      <trkpt lat="36.70085" lon="27.6736">
        <ele>21.273</ele>
      </trkpt>
      <trkpt lat="36.70072" lon="27.6733">
        <ele>15.862</ele>
      </trkpt>
      <trkpt lat="36.7006" lon="27.67307">
        <ele>13.053</ele>
      </trkpt>
      <trkpt lat="36.70048" lon="27.67289">
        <ele>13.826</ele>
      </trkpt>
      <trkpt lat="36.70034" lon="27.67273">
        <ele>14.24</ele>
      </trkpt>
      <trkpt lat="36.70012" lon="27.67265">
        <ele>12.216</ele>
      </trkpt>
      <trkpt lat="36.69994" lon="27.67267">
        <ele>9.975</ele>
      </trkpt>
      <trkpt lat="36.69976" lon="27.6727">
        <ele>9.819</ele>
      </trkpt>
      <trkpt lat="36.69959" lon="27.67274">
        <ele>9.198</ele>
      </trkpt>
      <trkpt lat="36.69945" lon="27.67272">
        <ele>9.003</ele>
      </trkpt>
      <trkpt lat="36.69922" lon="27.67271">
        <ele>7.778</ele>
      </trkpt>
      <trkpt lat="36.69894" lon="27.67272">
        <ele>7.639</ele>
      </trkpt>
      <trkpt lat="36.69864" lon="27.67274">
        <ele>9.948</ele>
      </trkpt>
      <trkpt lat="36.69847" lon="27.67285">
        <ele>12.977</ele>
      </trkpt>
      <trkpt lat="36.69839" lon="27.67308">
        <ele>13.59</ele>
      </trkpt>
      <trkpt lat="36.69832" lon="27.67326">
        <ele>15.277</ele>
      </trkpt>
      <trkpt lat="36.69823" lon="27.67342">
        <ele>17.222</ele>
      </trkpt>
      <trkpt lat="36.69814" lon="27.67355">
        <ele>19.016</ele>
      </trkpt>
      <trkpt lat="36.6981" lon="27.67365">
        <ele>19.429</ele>
      </trkpt>
      <trkpt lat="36.69806" lon="27.67376">
        <ele>18.672</ele>
      </trkpt>
      <trkpt lat="36.69805" lon="27.67388">
        <ele>17.173</ele>
      </trkpt>
      <trkpt lat="36.69794" lon="27.67398">
        <ele>16.734</ele>
      </trkpt>
      <trkpt lat="36.6978" lon="27.67429">
        <ele>11.103</ele>
      </trkpt>
      <trkpt lat="36.69778" lon="27.67444">
        <ele>8.013</ele>
      </trkpt>
      <trkpt lat="36.69766" lon="27.67465">
        <ele>6.843</ele>
      </trkpt>
      <trkpt lat="36.69747" lon="27.67486">
        <ele>7.455</ele>
      </trkpt>
      <trkpt lat="36.69732" lon="27.675">
        <ele>7.637</ele>
      </trkpt>
      <trkpt lat="36.69726" lon="27.67517">
        <ele>6.784</ele>
      </trkpt>
      <trkpt lat="36.69711" lon="27.67547">
        <ele>5.611</ele>
      </trkpt>
      <trkpt lat="36.69699" lon="27.67568">
        <ele>5.567</ele>
      </trkpt>
      <trkpt lat="36.69691" lon="27.67584">
        <ele>6.633</ele>
      </trkpt>
      <trkpt lat="36.69691" lon="27.67602">
        <ele>8.023</ele>
      </trkpt>
      <trkpt lat="36.697" lon="27.67615">
        <ele>8.037</ele>
      </trkpt>
      <trkpt lat="36.697" lon="27.67625">
        <ele>9.946</ele>
      </trkpt>
      <trkpt lat="36.69706" lon="27.67638">
        <ele>11.118</ele>
      </trkpt>
      <trkpt lat="36.69712" lon="27.67635">
        <ele>9.134</ele>
        <time>2018-05-14T12:26:31Z</time>
      </trkpt>
      <trkpt lat="36.69711" lon="27.67641">
        <ele>10.146</ele>
        <time>2018-05-14T12:26:45Z</time>
      </trkpt>
      <trkpt lat="36.69709" lon="27.67647">
        <ele>11.975</ele>
        <time>2018-05-14T12:26:49Z</time>
      </trkpt>
      <trkpt lat="36.69704" lon="27.6765">
        <ele>13.95</ele>
        <time>2018-05-14T12:26:53Z</time>
      </trkpt>
      <trkpt lat="36.69699" lon="27.67651">
        <ele>15.5</ele>
        <time>2018-05-14T12:26:57Z</time>
      </trkpt>
      <trkpt lat="36.69695" lon="27.67651">
        <ele>16.866</ele>
        <time>2018-05-14T12:27:02Z</time>
      </trkpt>
      <trkpt lat="36.6969" lon="27.67651">
        <ele>17.866</ele>
        <time>2018-05-14T12:27:24Z</time>
      </trkpt>
      <trkpt lat="36.69684" lon="27.67652">
        <ele>19.047</ele>
        <time>2018-05-14T12:27:29Z</time>
      </trkpt>
      <trkpt lat="36.6968" lon="27.67651">
        <ele>19.774</ele>
        <time>2018-05-14T12:27:34Z</time>
      </trkpt>
      <trkpt lat="36.69674" lon="27.67651">
        <ele>20.61</ele>
        <time>2018-05-14T12:27:39Z</time>
      </trkpt>
      <trkpt lat="36.6967" lon="27.67651">
        <ele>21.542</ele>
        <time>2018-05-14T12:28:13Z</time>
      </trkpt>
      <trkpt lat="36.69665" lon="27.67649">
        <ele>21.77</ele>
        <time>2018-05-14T12:28:19Z</time>
      </trkpt>
      <trkpt lat="36.6966" lon="27.6765">
        <ele>22.855</ele>
        <time>2018-05-14T12:28:25Z</time>
      </trkpt>
      <trkpt lat="36.69655" lon="27.67648">
        <ele>23.521</ele>
        <time>2018-05-14T12:28:31Z</time>
      </trkpt>
      <trkpt lat="36.6965" lon="27.67646">
        <ele>23.942</ele>
        <time>2018-05-14T12:28:37Z</time>
      </trkpt>
      <trkpt lat="36.69646" lon="27.67643">
        <ele>24.219</ele>
        <time>2018-05-14T12:28:43Z</time>
      </trkpt>
      <trkpt lat="36.69642" lon="27.67644">
        <ele>25.296</ele>
        <time>2018-05-14T12:28:49Z</time>
      </trkpt>
      <trkpt lat="36.69642" lon="27.67643">
        <ele>25.062</ele>
        <time>2018-05-14T12:29:32Z</time>
      </trkpt>
      <trkpt lat="36.69643" lon="27.6765">
        <ele>26.136</ele>
        <time>2018-05-14T12:29:49Z</time>
      </trkpt>
      <trkpt lat="36.69641" lon="27.67655">
        <ele>27.657</ele>
        <time>2018-05-14T12:29:58Z</time>
      </trkpt>
      <trkpt lat="36.69638" lon="27.6766">
        <ele>29.067</ele>
        <time>2018-05-14T12:30:03Z</time>
      </trkpt>
      <trkpt lat="36.69635" lon="27.67665">
        <ele>30.433</ele>
        <time>2018-05-14T12:30:09Z</time>
      </trkpt>
      <trkpt lat="36.69631" lon="27.67667">
        <ele>31.565</ele>
        <time>2018-05-14T12:30:15Z</time>
      </trkpt>
      <trkpt lat="36.69626" lon="27.6767">
        <ele>32.648</ele>
        <time>2018-05-14T12:30:21Z</time>
      </trkpt>
      <trkpt lat="36.69623" lon="27.67675">
        <ele>33.477</ele>
        <time>2018-05-14T12:30:28Z</time>
      </trkpt>
      <trkpt lat="36.69619" lon="27.67678">
        <ele>34.156</ele>
        <time>2018-05-14T12:30:33Z</time>
      </trkpt>
      <trkpt lat="36.69615" lon="27.67681">
        <ele>34.694</ele>
        <time>2018-05-14T12:30:38Z</time>
      </trkpt>
      <trkpt lat="36.6961" lon="27.67682">
        <ele>34.955</ele>
        <time>2018-05-14T12:31:13Z</time>
      </trkpt>
      <trkpt lat="36.69606" lon="27.67678">
        <ele>34.931</ele>
        <time>2018-05-14T12:31:18Z</time>
      </trkpt>
      <trkpt lat="36.69602" lon="27.67673">
        <ele>35.235</ele>
        <time>2018-05-14T12:31:23Z</time>
      </trkpt>
      <trkpt lat="36.69599" lon="27.67668">
        <ele>35.794</ele>
        <time>2018-05-14T12:31:28Z</time>
      </trkpt>
      <trkpt lat="36.69596" lon="27.67662">
        <ele>36.691</ele>
        <time>2018-05-14T12:31:33Z</time>
      </trkpt>
      <trkpt lat="36.69593" lon="27.67657">
        <ele>37.875</ele>
        <time>2018-05-14T12:31:38Z</time>
      </trkpt>
      <trkpt lat="36.69588" lon="27.67655">
        <ele>38.977</ele>
        <time>2018-05-14T12:31:44Z</time>
      </trkpt>
      <trkpt lat="36.69584" lon="27.67653">
        <ele>40.327</ele>
        <time>2018-05-14T12:31:52Z</time>
      </trkpt>
      <trkpt lat="36.69583" lon="27.67646">
        <ele>42.113</ele>
        <time>2018-05-14T12:32:29Z</time>
      </trkpt>
      <trkpt lat="36.69579" lon="27.67645">
        <ele>43.339</ele>
        <time>2018-05-14T12:33:24Z</time>
      </trkpt>
      <trkpt lat="36.6958" lon="27.67639">
        <ele>44.746</ele>
        <time>2018-05-14T12:33:35Z</time>
      </trkpt>
      <trkpt lat="36.69575" lon="27.6764">
        <ele>45.541</ele>
        <time>2018-05-14T12:34:14Z</time>
      </trkpt>
      <trkpt lat="36.69574" lon="27.67633">
        <ele>46.826</ele>
        <time>2018-05-14T12:34:45Z</time>
      </trkpt>
      <trkpt lat="36.69574" lon="27.67628">
        <ele>47.904</ele>
        <time>2018-05-14T12:34:53Z</time>
      </trkpt>
      <trkpt lat="36.6957" lon="27.67623">
        <ele>49.674</ele>
        <time>2018-05-14T12:35:35Z</time>
      </trkpt>
      <trkpt lat="36.69567" lon="27.67617">
        <ele>51.778</ele>
        <time>2018-05-14T12:35:40Z</time>
      </trkpt>
      <trkpt lat="36.69563" lon="27.67612">
        <ele>54.094</ele>
        <time>2018-05-14T12:35:44Z</time>
      </trkpt>
      <trkpt lat="36.69559" lon="27.67609">
        <ele>55.791</ele>
        <time>2018-05-14T12:35:52Z</time>
      </trkpt>
      <trkpt lat="36.69555" lon="27.67605">
        <ele>57.472</ele>
        <time>2018-05-14T12:36:07Z</time>
      </trkpt>
      <trkpt lat="36.69552" lon="27.676">
        <ele>58.05</ele>
        <time>2018-05-14T12:36:13Z</time>
      </trkpt>
      <trkpt lat="36.69549" lon="27.67597">
        <ele>58.697</ele>
        <time>2018-05-14T12:36:19Z</time>
      </trkpt>
      <trkpt lat="36.69544" lon="27.67595">
        <ele>59.303</ele>
        <time>2018-05-14T12:37:35Z</time>
      </trkpt>
      <trkpt lat="36.69542" lon="27.6759">
        <ele>60.134</ele>
        <time>2018-05-14T12:38:02Z</time>
      </trkpt>
      <trkpt lat="36.69538" lon="27.67584">
        <ele>61.393</ele>
        <time>2018-05-14T12:39:17Z</time>
      </trkpt>
      <trkpt lat="36.69536" lon="27.67578">
        <ele>62.964</ele>
        <time>2018-05-14T12:39:21Z</time>
      </trkpt>
      <trkpt lat="36.69532" lon="27.67573">
        <ele>64.758</ele>
        <time>2018-05-14T12:39:25Z</time>
      </trkpt>
      <trkpt lat="36.69535" lon="27.67574">
        <ele>63.936</ele>
        <time>2018-05-14T12:40:41Z</time>
      </trkpt>
      <trkpt lat="36.69539" lon="27.67575">
        <ele>62.749</ele>
        <time>2018-05-14T12:40:44Z</time>
      </trkpt>
      <trkpt lat="36.69544" lon="27.67576">
        <ele>61.72</ele>
        <time>2018-05-14T12:40:50Z</time>
      </trkpt>
      <trkpt lat="36.6954" lon="27.67572">
        <ele>63.102</ele>
        <time>2018-05-14T12:42:11Z</time>
      </trkpt>
      <trkpt lat="36.69539" lon="27.67566">
        <ele>64.42</ele>
        <time>2018-05-14T12:42:46Z</time>
      </trkpt>
      <trkpt lat="36.69538" lon="27.67561">
        <ele>65.849</ele>
        <time>2018-05-14T12:42:49Z</time>
      </trkpt>
      <trkpt lat="36.69535" lon="27.67554">
        <ele>67.639</ele>
        <time>2018-05-14T12:42:53Z</time>
      </trkpt>
      <trkpt lat="36.69533" lon="27.6755">
        <ele>68.832</ele>
        <time>2018-05-14T12:42:58Z</time>
      </trkpt>
      <trkpt lat="36.69532" lon="27.67543">
        <ele>69.31</ele>
        <time>2018-05-14T12:44:30Z</time>
      </trkpt>
      <trkpt lat="36.69531" lon="27.67537">
        <ele>70.1</ele>
        <time>2018-05-14T12:44:34Z</time>
      </trkpt>
      <trkpt lat="36.69529" lon="27.67531">
        <ele>71.229</ele>
        <time>2018-05-14T12:44:55Z</time>
      </trkpt>
      <trkpt lat="36.69527" lon="27.67526">
        <ele>72.225</ele>
        <time>2018-05-14T12:45:02Z</time>
      </trkpt>
      <trkpt lat="36.69526" lon="27.6752">
        <ele>72.869</ele>
        <time>2018-05-14T12:45:08Z</time>
      </trkpt>
      <trkpt lat="36.69525" lon="27.67514">
        <ele>73.392</ele>
        <time>2018-05-14T12:45:17Z</time>
      </trkpt>
      <trkpt lat="36.69524" lon="27.67507">
        <ele>74.124</ele>
        <time>2018-05-14T12:45:34Z</time>
      </trkpt>
      <trkpt lat="36.69523" lon="27.675">
        <ele>75.059</ele>
        <time>2018-05-14T12:45:39Z</time>
      </trkpt>
      <trkpt lat="36.69522" lon="27.67495">
        <ele>75.588</ele>
        <time>2018-05-14T12:46:34Z</time>
      </trkpt>
      <trkpt lat="36.6952" lon="27.6749">
        <ele>76.54</ele>
        <time>2018-05-14T12:46:40Z</time>
      </trkpt>
      <trkpt lat="36.69517" lon="27.67485">
        <ele>77.619</ele>
        <time>2018-05-14T12:46:45Z</time>
      </trkpt>
      <trkpt lat="36.69513" lon="27.67481">
        <ele>78.937</ele>
        <time>2018-05-14T12:47:29Z</time>
      </trkpt>
      <trkpt lat="36.69512" lon="27.67471">
        <ele>80.062</ele>
        <time>2018-05-14T12:47:51Z</time>
      </trkpt>
      <trkpt lat="36.6951" lon="27.67466">
        <ele>81.106</ele>
        <time>2018-05-14T12:47:57Z</time>
      </trkpt>
      <trkpt lat="36.69507" lon="27.67461">
        <ele>82.257</ele>
        <time>2018-05-14T12:48:03Z</time>
      </trkpt>
      <trkpt lat="36.69505" lon="27.67456">
        <ele>83.538</ele>
        <time>2018-05-14T12:48:10Z</time>
      </trkpt>
      <trkpt lat="36.69503" lon="27.67456">
        <ele>84.09</ele>
        <time>2018-05-14T12:53:19Z</time>
      </trkpt>
      <trkpt lat="36.69498" lon="27.67455">
        <ele>85.123</ele>
        <time>2018-05-14T12:53:26Z</time>
      </trkpt>
      <trkpt lat="36.69494" lon="27.67457">
        <ele>85.188</ele>
        <time>2018-05-14T12:54:16Z</time>
      </trkpt>
      <trkpt lat="36.6949" lon="27.67461">
        <ele>84.986</ele>
        <time>2018-05-14T12:55:12Z</time>
      </trkpt>
      <trkpt lat="36.6949" lon="27.67462">
        <ele>84.904</ele>
        <time>2018-05-14T12:56:39Z</time>
      </trkpt>
      <trkpt lat="36.69488" lon="27.67456">
        <ele>85.926</ele>
        <time>2018-05-14T12:56:44Z</time>
      </trkpt>
      <trkpt lat="36.69485" lon="27.67452">
        <ele>86.893</ele>
        <time>2018-05-14T12:56:48Z</time>
      </trkpt>
      <trkpt lat="36.69481" lon="27.67447">
        <ele>88.198</ele>
        <time>2018-05-14T12:56:52Z</time>
      </trkpt>
      <trkpt lat="36.69478" lon="27.67443">
        <ele>89.344</ele>
        <time>2018-05-14T12:57:16Z</time>
      </trkpt>
      <trkpt lat="36.69475" lon="27.67439">
        <ele>90.433</ele>
        <time>2018-05-14T12:57:34Z</time>
      </trkpt>
      <trkpt lat="36.69471" lon="27.67436">
        <ele>91.164</ele>
        <time>2018-05-14T12:57:39Z</time>
      </trkpt>
      <trkpt lat="36.69468" lon="27.67431">
        <ele>91.704</ele>
        <time>2018-05-14T12:57:43Z</time>
      </trkpt>
      <trkpt lat="36.69464" lon="27.67427">
        <ele>92.064</ele>
        <time>2018-05-14T12:58:48Z</time>
      </trkpt>
      <trkpt lat="36.6946" lon="27.67423">
        <ele>92.62</ele>
        <time>2018-05-14T12:58:53Z</time>
      </trkpt>
      <trkpt lat="36.69457" lon="27.67418">
        <ele>93.177</ele>
        <time>2018-05-14T12:58:57Z</time>
      </trkpt>
      <trkpt lat="36.69453" lon="27.67415">
        <ele>93.45</ele>
        <time>2018-05-14T12:59:01Z</time>
      </trkpt>
      <trkpt lat="36.69449" lon="27.67413">
        <ele>93.576</ele>
        <time>2018-05-14T12:59:10Z</time>
      </trkpt>
      <trkpt lat="36.69445" lon="27.67409">
        <ele>93.829</ele>
        <time>2018-05-14T12:59:33Z</time>
      </trkpt>
      <trkpt lat="36.69441" lon="27.67407">
        <ele>93.398</ele>
        <time>2018-05-14T12:59:39Z</time>
      </trkpt>
      <trkpt lat="36.69438" lon="27.67402">
        <ele>93.437</ele>
        <time>2018-05-14T12:59:43Z</time>
      </trkpt>
      <trkpt lat="36.69437" lon="27.67397">
        <ele>93.958</ele>
        <time>2018-05-14T12:59:46Z</time>
      </trkpt>
      <trkpt lat="36.69436" lon="27.67391">
        <ele>94.436</ele>
        <time>2018-05-14T12:59:51Z</time>
      </trkpt>
      <trkpt lat="36.69437" lon="27.67389">
        <ele>94.866</ele>
        <time>2018-05-14T13:00:54Z</time>
      </trkpt>
      <trkpt lat="36.69435" lon="27.67383">
        <ele>94.535</ele>
        <time>2018-05-14T13:00:57Z</time>
      </trkpt>
      <trkpt lat="36.69433" lon="27.67378">
        <ele>94.154</ele>
        <time>2018-05-14T13:01:04Z</time>
      </trkpt>
      <trkpt lat="36.69429" lon="27.67374">
        <ele>93.519</ele>
        <time>2018-05-14T13:01:19Z</time>
      </trkpt>
      <trkpt lat="36.69426" lon="27.6737">
        <ele>93.114</ele>
        <time>2018-05-14T13:01:25Z</time>
      </trkpt>
      <trkpt lat="36.69422" lon="27.67367">
        <ele>92.591</ele>
        <time>2018-05-14T13:01:49Z</time>
      </trkpt>
      <trkpt lat="36.69417" lon="27.67363">
        <ele>92.081</ele>
        <time>2018-05-14T13:01:54Z</time>
      </trkpt>
      <trkpt lat="36.69414" lon="27.6736">
        <ele>91.016</ele>
        <time>2018-05-14T13:01:58Z</time>
      </trkpt>
      <trkpt lat="36.6941" lon="27.67355">
        <ele>89.796</ele>
        <time>2018-05-14T13:02:03Z</time>
      </trkpt>
      <trkpt lat="36.69406" lon="27.6735">
        <ele>88.874</ele>
        <time>2018-05-14T13:02:08Z</time>
      </trkpt>
      <trkpt lat="36.69403" lon="27.67346">
        <ele>88.304</ele>
        <time>2018-05-14T13:02:44Z</time>
      </trkpt>
      <trkpt lat="36.694" lon="27.67341">
        <ele>87.829</ele>
        <time>2018-05-14T13:03:04Z</time>
      </trkpt>
      <trkpt lat="36.69395" lon="27.67338">
        <ele>87.355</ele>
        <time>2018-05-14T13:03:08Z</time>
      </trkpt>
      <trkpt lat="36.69391" lon="27.67336">
        <ele>86.942</ele>
        <time>2018-05-14T13:03:13Z</time>
      </trkpt>
      <trkpt lat="36.69387" lon="27.67334">
        <ele>86.538</ele>
        <time>2018-05-14T13:03:17Z</time>
      </trkpt>
      <trkpt lat="36.69383" lon="27.6733">
        <ele>85.769</ele>
        <time>2018-05-14T13:03:20Z</time>
      </trkpt>
      <trkpt lat="36.69375" lon="27.67323">
        <ele>84.852</ele>
        <time>2018-05-14T13:05:45Z</time>
      </trkpt>
      <trkpt lat="36.6937" lon="27.67319">
        <ele>84.888</ele>
        <time>2018-05-14T13:05:49Z</time>
      </trkpt>
      <trkpt lat="36.69366" lon="27.67316">
        <ele>85.108</ele>
        <time>2018-05-14T13:05:54Z</time>
      </trkpt>
      <trkpt lat="36.69361" lon="27.67314">
        <ele>85.434</ele>
        <time>2018-05-14T13:06:09Z</time>
      </trkpt>
      <trkpt lat="36.69357" lon="27.67311">
        <ele>86.428</ele>
        <time>2018-05-14T13:06:34Z</time>
      </trkpt>
      <trkpt lat="36.69355" lon="27.67305">
        <ele>87.732</ele>
        <time>2018-05-14T13:06:40Z</time>
      </trkpt>
      <trkpt lat="36.69351" lon="27.67301">
        <ele>88.375</ele>
        <time>2018-05-14T13:06:45Z</time>
      </trkpt>
      <trkpt lat="36.69347" lon="27.67298">
        <ele>89.114</ele>
        <time>2018-05-14T13:06:50Z</time>
      </trkpt>
      <trkpt lat="36.69342" lon="27.67295">
        <ele>89.888</ele>
        <time>2018-05-14T13:07:22Z</time>
      </trkpt>
      <trkpt lat="36.69338" lon="27.67293">
        <ele>90.657</ele>
        <time>2018-05-14T13:07:28Z</time>
      </trkpt>
      <trkpt lat="36.69334" lon="27.67294">
        <ele>91.258</ele>
        <time>2018-05-14T13:07:56Z</time>
      </trkpt>
      <trkpt lat="36.69329" lon="27.67292">
        <ele>91.686</ele>
        <time>2018-05-14T13:08:06Z</time>
      </trkpt>
      <trkpt lat="36.69323" lon="27.67291">
        <ele>92.091</ele>
        <time>2018-05-14T13:08:12Z</time>
      </trkpt>
      <trkpt lat="36.69318" lon="27.6729">
        <ele>92.447</ele>
        <time>2018-05-14T13:08:16Z</time>
      </trkpt>
      <trkpt lat="36.69313" lon="27.67289">
        <ele>92.805</ele>
        <time>2018-05-14T13:08:20Z</time>
      </trkpt>
      <trkpt lat="36.69308" lon="27.67291">
        <ele>92.964</ele>
        <time>2018-05-14T13:08:24Z</time>
      </trkpt>
      <trkpt lat="36.69303" lon="27.67291">
        <ele>93.232</ele>
        <time>2018-05-14T13:08:28Z</time>
      </trkpt>
      <trkpt lat="36.69298" lon="27.67292">
        <ele>93.563</ele>
        <time>2018-05-14T13:08:32Z</time>
      </trkpt>
      <trkpt lat="36.69292" lon="27.67293">
        <ele>93.887</ele>
        <time>2018-05-14T13:08:37Z</time>
      </trkpt>
      <trkpt lat="36.69287" lon="27.67294">
        <ele>94.175</ele>
        <time>2018-05-14T13:08:41Z</time>
      </trkpt>
      <trkpt lat="36.69282" lon="27.67296">
        <ele>94.442</ele>
        <time>2018-05-14T13:08:45Z</time>
      </trkpt>
      <trkpt lat="36.69276" lon="27.67297">
        <ele>94.816</ele>
        <time>2018-05-14T13:08:50Z</time>
      </trkpt>
      <trkpt lat="36.69271" lon="27.67298">
        <ele>95.24</ele>
        <time>2018-05-14T13:08:54Z</time>
      </trkpt>
      <trkpt lat="36.69267" lon="27.67298">
        <ele>95.726</ele>
        <time>2018-05-14T13:09:10Z</time>
      </trkpt>
      <trkpt lat="36.69262" lon="27.673">
        <ele>96.129</ele>
        <time>2018-05-14T13:09:29Z</time>
      </trkpt>
      <trkpt lat="36.69257" lon="27.673">
        <ele>96.587</ele>
        <time>2018-05-14T13:09:32Z</time>
      </trkpt>
      <trkpt lat="36.69253" lon="27.67301">
        <ele>97.048</ele>
        <time>2018-05-14T13:09:37Z</time>
      </trkpt>
      <trkpt lat="36.69248" lon="27.67302">
        <ele>97.448</ele>
        <time>2018-05-14T13:09:43Z</time>
      </trkpt>
      <trkpt lat="36.69243" lon="27.67302">
        <ele>97.864</ele>
        <time>2018-05-14T13:09:48Z</time>
      </trkpt>
      <trkpt lat="36.69238" lon="27.67303">
        <ele>98.188</ele>
        <time>2018-05-14T13:09:54Z</time>
      </trkpt>
      <trkpt lat="36.69233" lon="27.67304">
        <ele>98.522</ele>
        <time>2018-05-14T13:09:59Z</time>
      </trkpt>
      <trkpt lat="36.69228" lon="27.67304">
        <ele>98.799</ele>
        <time>2018-05-14T13:10:31Z</time>
      </trkpt>
      <trkpt lat="36.69224" lon="27.67303">
        <ele>99.476</ele>
        <time>2018-05-14T13:10:35Z</time>
      </trkpt>
      <trkpt lat="36.69219" lon="27.67301">
        <ele>100.173</ele>
        <time>2018-05-14T13:10:40Z</time>
      </trkpt>
      <trkpt lat="36.69213" lon="27.67301">
        <ele>100.748</ele>
        <time>2018-05-14T13:10:46Z</time>
      </trkpt>
      <trkpt lat="36.69209" lon="27.67299">
        <ele>101.404</ele>
        <time>2018-05-14T13:10:50Z</time>
      </trkpt>
      <trkpt lat="36.69204" lon="27.67297">
        <ele>102.211</ele>
        <time>2018-05-14T13:10:54Z</time>
      </trkpt>
      <trkpt lat="36.69199" lon="27.67296">
        <ele>102.629</ele>
        <time>2018-05-14T13:10:58Z</time>
      </trkpt>
      <trkpt lat="36.69195" lon="27.67296">
        <ele>103.146</ele>
        <time>2018-05-14T13:11:03Z</time>
      </trkpt>
      <trkpt lat="36.6919" lon="27.67294">
        <ele>103.315</ele>
        <time>2018-05-14T13:11:07Z</time>
      </trkpt>
      <trkpt lat="36.69185" lon="27.67291">
        <ele>103.633</ele>
        <time>2018-05-14T13:11:10Z</time>
      </trkpt>
      <trkpt lat="36.69179" lon="27.67289">
        <ele>103.891</ele>
        <time>2018-05-14T13:11:14Z</time>
      </trkpt>
      <trkpt lat="36.69174" lon="27.67289">
        <ele>103.674</ele>
        <time>2018-05-14T13:11:18Z</time>
      </trkpt>
      <trkpt lat="36.69169" lon="27.67287">
        <ele>104.267</ele>
        <time>2018-05-14T13:11:21Z</time>
      </trkpt>
      <trkpt lat="36.69165" lon="27.67282">
        <ele>105.59</ele>
        <time>2018-05-14T13:11:25Z</time>
      </trkpt>
      <trkpt lat="36.6916" lon="27.67281">
        <ele>106.173</ele>
        <time>2018-05-14T13:11:30Z</time>
      </trkpt>
      <trkpt lat="36.69155" lon="27.67282">
        <ele>106.243</ele>
        <time>2018-05-14T13:11:34Z</time>
      </trkpt>
      <trkpt lat="36.6915" lon="27.67282">
        <ele>106.369</ele>
        <time>2018-05-14T13:11:39Z</time>
      </trkpt>
      <trkpt lat="36.69145" lon="27.67281">
        <ele>106.772</ele>
        <time>2018-05-14T13:11:44Z</time>
      </trkpt>
      <trkpt lat="36.6914" lon="27.6728">
        <ele>107.242</ele>
        <time>2018-05-14T13:11:51Z</time>
      </trkpt>
      <trkpt lat="36.69136" lon="27.67281">
        <ele>107.546</ele>
        <time>2018-05-14T13:12:12Z</time>
      </trkpt>
      <trkpt lat="36.69131" lon="27.67282">
        <ele>108.2</ele>
        <time>2018-05-14T13:12:41Z</time>
      </trkpt>
      <trkpt lat="36.69129" lon="27.67277">
        <ele>110.24</ele>
        <time>2018-05-14T13:13:01Z</time>
      </trkpt>
      <trkpt lat="36.69125" lon="27.67281">
        <ele>109.486</ele>
        <time>2018-05-14T13:14:27Z</time>
      </trkpt>
      <trkpt lat="36.69121" lon="27.67281">
        <ele>110.008</ele>
        <time>2018-05-14T13:14:32Z</time>
      </trkpt>
      <trkpt lat="36.69116" lon="27.67282">
        <ele>110.711</ele>
        <time>2018-05-14T13:14:37Z</time>
      </trkpt>
      <trkpt lat="36.69111" lon="27.67282">
        <ele>111.248</ele>
        <time>2018-05-14T13:14:41Z</time>
      </trkpt>
      <trkpt lat="36.69105" lon="27.67282">
        <ele>111.175</ele>
        <time>2018-05-14T13:14:45Z</time>
      </trkpt>
      <trkpt lat="36.691" lon="27.6728">
        <ele>112.003</ele>
        <time>2018-05-14T13:14:49Z</time>
      </trkpt>
      <trkpt lat="36.69096" lon="27.67277">
        <ele>113.28</ele>
        <time>2018-05-14T13:14:53Z</time>
      </trkpt>
      <trkpt lat="36.69091" lon="27.67275">
        <ele>114.143</ele>
        <time>2018-05-14T13:15:12Z</time>
      </trkpt>
      <trkpt lat="36.69087" lon="27.67271">
        <ele>115.44</ele>
        <time>2018-05-14T13:15:17Z</time>
      </trkpt>
      <trkpt lat="36.69082" lon="27.67267">
        <ele>116.568</ele>
        <time>2018-05-14T13:15:23Z</time>
      </trkpt>
      <trkpt lat="36.69078" lon="27.67263">
        <ele>117.56</ele>
        <time>2018-05-14T13:15:27Z</time>
      </trkpt>
      <trkpt lat="36.69074" lon="27.67259">
        <ele>118.309</ele>
        <time>2018-05-14T13:15:32Z</time>
      </trkpt>
      <trkpt lat="36.69069" lon="27.67255">
        <ele>119.291</ele>
        <time>2018-05-14T13:15:36Z</time>
      </trkpt>
      <trkpt lat="36.69065" lon="27.67251">
        <ele>119.938</ele>
        <time>2018-05-14T13:15:39Z</time>
      </trkpt>
      <trkpt lat="36.69061" lon="27.67248">
        <ele>120.494</ele>
        <time>2018-05-14T13:15:43Z</time>
      </trkpt>
      <trkpt lat="36.69057" lon="27.67244">
        <ele>121.203</ele>
        <time>2018-05-14T13:15:49Z</time>
      </trkpt>
      <trkpt lat="36.69053" lon="27.67239">
        <ele>122.131</ele>
        <time>2018-05-14T13:15:53Z</time>
      </trkpt>
      <trkpt lat="36.69049" lon="27.67233">
        <ele>122.93</ele>
        <time>2018-05-14T13:15:57Z</time>
      </trkpt>
      <trkpt lat="36.69045" lon="27.67231">
        <ele>122.402</ele>
        <time>2018-05-14T13:16:01Z</time>
      </trkpt>
      <trkpt lat="36.6904" lon="27.67231">
        <ele>121.186</ele>
        <time>2018-05-14T13:16:06Z</time>
      </trkpt>
      <trkpt lat="36.69036" lon="27.67229">
        <ele>120.752</ele>
        <time>2018-05-14T13:16:10Z</time>
      </trkpt>
      <trkpt lat="36.69031" lon="27.67226">
        <ele>120.692</ele>
        <time>2018-05-14T13:16:14Z</time>
      </trkpt>
      <trkpt lat="36.69026" lon="27.67222">
        <ele>120.602</ele>
        <time>2018-05-14T13:16:18Z</time>
      </trkpt>
      <trkpt lat="36.69023" lon="27.67218">
        <ele>120.19</ele>
        <time>2018-05-14T13:16:21Z</time>
      </trkpt>
      <trkpt lat="36.6902" lon="27.67214">
        <ele>119.881</ele>
        <time>2018-05-14T13:16:25Z</time>
      </trkpt>
      <trkpt lat="36.69017" lon="27.67209">
        <ele>119.725</ele>
        <time>2018-05-14T13:16:34Z</time>
      </trkpt>
      <trkpt lat="36.69012" lon="27.67205">
        <ele>119.221</ele>
        <time>2018-05-14T13:16:37Z</time>
      </trkpt>
      <trkpt lat="36.69008" lon="27.67201">
        <ele>118.751</ele>
        <time>2018-05-14T13:16:40Z</time>
      </trkpt>
      <trkpt lat="36.69004" lon="27.67197">
        <ele>118.626</ele>
        <time>2018-05-14T13:16:44Z</time>
      </trkpt>
      <trkpt lat="36.69001" lon="27.67193">
        <ele>118.558</ele>
        <time>2018-05-14T13:16:49Z</time>
      </trkpt>
      <trkpt lat="36.69005" lon="27.6719">
        <ele>119.897</ele>
        <time>2018-05-14T13:17:01Z</time>
      </trkpt>
      <trkpt lat="36.69007" lon="27.67185">
        <ele>120.872</ele>
        <time>2018-05-14T13:17:42Z</time>
      </trkpt>
      <trkpt lat="36.69001" lon="27.67185">
        <ele>119.681</ele>
        <time>2018-05-14T13:17:49Z</time>
      </trkpt>
      <trkpt lat="36.68998" lon="27.6718">
        <ele>119.712</ele>
        <time>2018-05-14T13:17:53Z</time>
      </trkpt>
      <trkpt lat="36.68996" lon="27.67176">
        <ele>119.993</ele>
        <time>2018-05-14T13:17:56Z</time>
      </trkpt>
      <trkpt lat="36.68993" lon="27.6717">
        <ele>120.404</ele>
        <time>2018-05-14T13:18:00Z</time>
      </trkpt>
      <trkpt lat="36.68989" lon="27.67165">
        <ele>120.585</ele>
        <time>2018-05-14T13:18:04Z</time>
      </trkpt>
      <trkpt lat="36.68986" lon="27.6716">
        <ele>120.531</ele>
        <time>2018-05-14T13:18:07Z</time>
      </trkpt>
      <trkpt lat="36.68983" lon="27.67155">
        <ele>120.468</ele>
        <time>2018-05-14T13:18:10Z</time>
      </trkpt>
      <trkpt lat="36.68979" lon="27.67151">
        <ele>120.315</ele>
        <time>2018-05-14T13:18:13Z</time>
      </trkpt>
      <trkpt lat="36.68974" lon="27.67148">
        <ele>120.204</ele>
        <time>2018-05-14T13:18:16Z</time>
      </trkpt>
      <trkpt lat="36.68971" lon="27.67144">
        <ele>120.209</ele>
        <time>2018-05-14T13:18:19Z</time>
      </trkpt>
      <trkpt lat="36.68967" lon="27.67139">
        <ele>120.224</ele>
        <time>2018-05-14T13:18:22Z</time>
      </trkpt>
      <trkpt lat="36.68963" lon="27.67134">
        <ele>119.974</ele>
        <time>2018-05-14T13:18:25Z</time>
      </trkpt>
      <trkpt lat="36.68959" lon="27.67131">
        <ele>119.681</ele>
        <time>2018-05-14T13:18:30Z</time>
      </trkpt>
      <trkpt lat="36.68956" lon="27.67127">
        <ele>119.592</ele>
        <time>2018-05-14T13:18:35Z</time>
      </trkpt>
      <trkpt lat="36.68952" lon="27.67121">
        <ele>119.679</ele>
        <time>2018-05-14T13:18:41Z</time>
      </trkpt>
      <trkpt lat="36.6895" lon="27.67115">
        <ele>120.022</ele>
        <time>2018-05-14T13:18:44Z</time>
      </trkpt>
      <trkpt lat="36.68946" lon="27.6711">
        <ele>120.194</ele>
        <time>2018-05-14T13:18:48Z</time>
      </trkpt>
      <trkpt lat="36.68942" lon="27.67104">
        <ele>120.251</ele>
        <time>2018-05-14T13:18:51Z</time>
      </trkpt>
      <trkpt lat="36.6894" lon="27.67099">
        <ele>120.284</ele>
        <time>2018-05-14T13:18:54Z</time>
      </trkpt>
      <trkpt lat="36.68938" lon="27.67094">
        <ele>120.419</ele>
        <time>2018-05-14T13:19:00Z</time>
      </trkpt>
      <trkpt lat="36.68938" lon="27.67087">
        <ele>121.006</ele>
        <time>2018-05-14T13:19:05Z</time>
      </trkpt>
      <trkpt lat="36.68936" lon="27.67081">
        <ele>121.044</ele>
        <time>2018-05-14T13:19:44Z</time>
      </trkpt>
      <trkpt lat="36.68934" lon="27.67077">
        <ele>120.649</ele>
        <time>2018-05-14T13:19:50Z</time>
      </trkpt>
      <trkpt lat="36.68931" lon="27.6707">
        <ele>120.264</ele>
        <time>2018-05-14T13:19:54Z</time>
      </trkpt>
      <trkpt lat="36.68927" lon="27.67065">
        <ele>120.051</ele>
        <time>2018-05-14T13:19:57Z</time>
      </trkpt>
      <trkpt lat="36.68925" lon="27.6706">
        <ele>119.981</ele>
        <time>2018-05-14T13:20:00Z</time>
      </trkpt>
      <trkpt lat="36.68922" lon="27.67055">
        <ele>119.992</ele>
        <time>2018-05-14T13:20:02Z</time>
      </trkpt>
      <trkpt lat="36.68918" lon="27.67049">
        <ele>119.974</ele>
        <time>2018-05-14T13:20:05Z</time>
      </trkpt>
      <trkpt lat="36.68915" lon="27.67044">
        <ele>120.035</ele>
        <time>2018-05-14T13:20:09Z</time>
      </trkpt>
      <trkpt lat="36.68913" lon="27.67038">
        <ele>120.249</ele>
        <time>2018-05-14T13:20:14Z</time>
      </trkpt>
      <trkpt lat="36.6891" lon="27.67034">
        <ele>120.673</ele>
        <time>2018-05-14T13:20:19Z</time>
      </trkpt>
      <trkpt lat="36.68906" lon="27.67029">
        <ele>121.417</ele>
        <time>2018-05-14T13:20:24Z</time>
      </trkpt>
      <trkpt lat="36.68902" lon="27.67024">
        <ele>122.331</ele>
        <time>2018-05-14T13:20:28Z</time>
      </trkpt>
      <trkpt lat="36.68899" lon="27.6702">
        <ele>123.073</ele>
        <time>2018-05-14T13:20:33Z</time>
      </trkpt>
      <trkpt lat="36.68894" lon="27.67016">
        <ele>124.014</ele>
        <time>2018-05-14T13:20:37Z</time>
      </trkpt>
      <trkpt lat="36.6889" lon="27.67011">
        <ele>125.085</ele>
        <time>2018-05-14T13:20:40Z</time>
      </trkpt>
      <trkpt lat="36.68886" lon="27.67006">
        <ele>125.857</ele>
        <time>2018-05-14T13:20:44Z</time>
      </trkpt>
      <trkpt lat="36.68883" lon="27.67001">
        <ele>126.718</ele>
        <time>2018-05-14T13:20:49Z</time>
      </trkpt>
      <trkpt lat="36.68881" lon="27.66995">
        <ele>127.646</ele>
        <time>2018-05-14T13:20:58Z</time>
      </trkpt>
      <trkpt lat="36.68878" lon="27.6699">
        <ele>128.765</ele>
        <time>2018-05-14T13:21:18Z</time>
      </trkpt>
      <trkpt lat="36.68875" lon="27.66984">
        <ele>130.045</ele>
        <time>2018-05-14T13:21:22Z</time>
      </trkpt>
      <trkpt lat="36.68873" lon="27.66979">
        <ele>130.972</ele>
        <time>2018-05-14T13:21:26Z</time>
      </trkpt>
      <trkpt lat="36.68869" lon="27.66974">
        <ele>132.218</ele>
        <time>2018-05-14T13:21:36Z</time>
      </trkpt>
      <trkpt lat="36.68865" lon="27.6697">
        <ele>133.297</ele>
        <time>2018-05-14T13:21:40Z</time>
      </trkpt>
      <trkpt lat="36.6886" lon="27.66966">
        <ele>134.316</ele>
        <time>2018-05-14T13:21:44Z</time>
      </trkpt>
      <trkpt lat="36.68856" lon="27.66964">
        <ele>135.018</ele>
        <time>2018-05-14T13:21:52Z</time>
      </trkpt>
      <trkpt lat="36.68852" lon="27.66962">
        <ele>135.724</ele>
        <time>2018-05-14T13:22:19Z</time>
      </trkpt>
      <trkpt lat="36.6885" lon="27.66956">
        <ele>136.209</ele>
        <time>2018-05-14T13:22:23Z</time>
      </trkpt>
      <trkpt lat="36.68848" lon="27.66949">
        <ele>136.742</ele>
        <time>2018-05-14T13:22:27Z</time>
      </trkpt>
      <trkpt lat="36.68845" lon="27.66944">
        <ele>137.345</ele>
        <time>2018-05-14T13:22:33Z</time>
      </trkpt>
      <trkpt lat="36.68843" lon="27.66939">
        <ele>138.004</ele>
        <time>2018-05-14T13:22:37Z</time>
      </trkpt>
      <trkpt lat="36.68841" lon="27.66933">
        <ele>138.759</ele>
        <time>2018-05-14T13:22:40Z</time>
      </trkpt>
      <trkpt lat="36.68838" lon="27.66927">
        <ele>139.765</ele>
        <time>2018-05-14T13:22:43Z</time>
      </trkpt>
      <trkpt lat="36.68836" lon="27.66922">
        <ele>140.838</ele>
        <time>2018-05-14T13:22:46Z</time>
      </trkpt>
      <trkpt lat="36.68835" lon="27.66915">
        <ele>141.728</ele>
        <time>2018-05-14T13:22:51Z</time>
      </trkpt>
      <trkpt lat="36.68834" lon="27.66909">
        <ele>142.051</ele>
        <time>2018-05-14T13:22:55Z</time>
      </trkpt>
      <trkpt lat="36.68833" lon="27.66904">
        <ele>142.573</ele>
        <time>2018-05-14T13:23:02Z</time>
      </trkpt>
      <trkpt lat="36.68831" lon="27.66898">
        <ele>143.443</ele>
        <time>2018-05-14T13:23:29Z</time>
      </trkpt>
      <trkpt lat="36.68828" lon="27.66892">
        <ele>144.738</ele>
        <time>2018-05-14T13:23:35Z</time>
      </trkpt>
      <trkpt lat="36.68827" lon="27.66887">
        <ele>145.245</ele>
        <time>2018-05-14T13:23:43Z</time>
      </trkpt>
      <trkpt lat="36.68826" lon="27.66881">
        <ele>145.699</ele>
        <time>2018-05-14T13:24:16Z</time>
      </trkpt>
      <trkpt lat="36.68825" lon="27.66875">
        <ele>146.393</ele>
        <time>2018-05-14T13:24:20Z</time>
      </trkpt>
      <trkpt lat="36.6882" lon="27.66869">
        <ele>147.691</ele>
        <time>2018-05-14T13:24:24Z</time>
      </trkpt>
      <trkpt lat="36.68816" lon="27.66864">
        <ele>148.798</ele>
        <time>2018-05-14T13:24:28Z</time>
      </trkpt>
      <trkpt lat="36.68812" lon="27.66861">
        <ele>149.579</ele>
        <time>2018-05-14T13:24:32Z</time>
      </trkpt>
      <trkpt lat="36.68809" lon="27.66856">
        <ele>150.022</ele>
        <time>2018-05-14T13:24:39Z</time>
      </trkpt>
      <trkpt lat="36.68807" lon="27.66849">
        <ele>150.195</ele>
        <time>2018-05-14T13:24:45Z</time>
      </trkpt>
      <trkpt lat="36.68806" lon="27.66843">
        <ele>150.26</ele>
        <time>2018-05-14T13:24:48Z</time>
      </trkpt>
      <trkpt lat="36.68804" lon="27.66837">
        <ele>150.877</ele>
        <time>2018-05-14T13:24:52Z</time>
      </trkpt>
      <trkpt lat="36.68801" lon="27.66831">
        <ele>152.066</ele>
        <time>2018-05-14T13:24:56Z</time>
      </trkpt>
      <trkpt lat="36.688" lon="27.66826">
        <ele>152.951</ele>
        <time>2018-05-14T13:24:59Z</time>
      </trkpt>
      <trkpt lat="36.68798" lon="27.6682">
        <ele>153.996</ele>
        <time>2018-05-14T13:25:04Z</time>
      </trkpt>
      <trkpt lat="36.68796" lon="27.66815">
        <ele>155.183</ele>
        <time>2018-05-14T13:25:31Z</time>
      </trkpt>
      <trkpt lat="36.68793" lon="27.6681">
        <ele>156.68</ele>
        <time>2018-05-14T13:25:45Z</time>
      </trkpt>
      <trkpt lat="36.68791" lon="27.66805">
        <ele>157.857</ele>
        <time>2018-05-14T13:25:51Z</time>
      </trkpt>
      <trkpt lat="36.68789" lon="27.66798">
        <ele>158.832</ele>
        <time>2018-05-14T13:25:55Z</time>
      </trkpt>
      <trkpt lat="36.68789" lon="27.66791">
        <ele>158.94</ele>
        <time>2018-05-14T13:25:58Z</time>
      </trkpt>
      <trkpt lat="36.68789" lon="27.66785">
        <ele>158.796</ele>
        <time>2018-05-14T13:26:01Z</time>
      </trkpt>
      <trkpt lat="36.68788" lon="27.66779">
        <ele>159.088</ele>
        <time>2018-05-14T13:26:05Z</time>
      </trkpt>
      <trkpt lat="36.68788" lon="27.66772">
        <ele>158.62</ele>
        <time>2018-05-14T13:26:10Z</time>
      </trkpt>
      <trkpt lat="36.68786" lon="27.66767">
        <ele>158.714</ele>
        <time>2018-05-14T13:26:14Z</time>
      </trkpt>
      <trkpt lat="36.68783" lon="27.66762">
        <ele>159.043</ele>
        <time>2018-05-14T13:26:18Z</time>
      </trkpt>
      <trkpt lat="36.6878" lon="27.66757">
        <ele>159.655</ele>
        <time>2018-05-14T13:26:26Z</time>
      </trkpt>
      <trkpt lat="36.68775" lon="27.66755">
        <ele>160.798</ele>
        <time>2018-05-14T13:26:30Z</time>
      </trkpt>
      <trkpt lat="36.68772" lon="27.6675">
        <ele>161.217</ele>
        <time>2018-05-14T13:26:33Z</time>
      </trkpt>
      <trkpt lat="36.68769" lon="27.66744">
        <ele>161.589</ele>
        <time>2018-05-14T13:26:36Z</time>
      </trkpt>
      <trkpt lat="36.68765" lon="27.66738">
        <ele>162.219</ele>
        <time>2018-05-14T13:26:39Z</time>
      </trkpt>
      <trkpt lat="36.68761" lon="27.66734">
        <ele>163.021</ele>
        <time>2018-05-14T13:26:42Z</time>
      </trkpt>
      <trkpt lat="36.68757" lon="27.6673">
        <ele>163.975</ele>
        <time>2018-05-14T13:26:47Z</time>
      </trkpt>
      <trkpt lat="36.68753" lon="27.66726">
        <ele>164.678</ele>
        <time>2018-05-14T13:26:56Z</time>
      </trkpt>
      <trkpt lat="36.68749" lon="27.66723">
        <ele>165.391</ele>
        <time>2018-05-14T13:27:27Z</time>
      </trkpt>
      <trkpt lat="36.68748" lon="27.66717">
        <ele>165.028</ele>
        <time>2018-05-14T13:27:34Z</time>
      </trkpt>
      <trkpt lat="36.68746" lon="27.66712">
        <ele>164.882</ele>
        <time>2018-05-14T13:27:40Z</time>
      </trkpt>
      <trkpt lat="36.68742" lon="27.66708">
        <ele>165.65</ele>
        <time>2018-05-14T13:27:45Z</time>
      </trkpt>
      <trkpt lat="36.68738" lon="27.66706">
        <ele>166.439</ele>
        <time>2018-05-14T13:27:48Z</time>
      </trkpt>
      <trkpt lat="36.68733" lon="27.66703">
        <ele>167.529</ele>
        <time>2018-05-14T13:27:53Z</time>
      </trkpt>
      <trkpt lat="36.68728" lon="27.66701">
        <ele>168.654</ele>
        <time>2018-05-14T13:27:57Z</time>
      </trkpt>
      <trkpt lat="36.68723" lon="27.667">
        <ele>170.007</ele>
        <time>2018-05-14T13:28:02Z</time>
      </trkpt>
      <trkpt lat="36.68718" lon="27.66699">
        <ele>171.288</ele>
        <time>2018-05-14T13:28:06Z</time>
      </trkpt>
      <trkpt lat="36.68713" lon="27.66696">
        <ele>172.248</ele>
        <time>2018-05-14T13:28:10Z</time>
      </trkpt>
      <trkpt lat="36.68709" lon="27.66691">
        <ele>172.815</ele>
        <time>2018-05-14T13:28:13Z</time>
      </trkpt>
      <trkpt lat="36.68707" lon="27.66686">
        <ele>173.064</ele>
        <time>2018-05-14T13:28:16Z</time>
      </trkpt>
      <trkpt lat="36.68705" lon="27.66681">
        <ele>173.181</ele>
        <time>2018-05-14T13:28:18Z</time>
      </trkpt>
      <trkpt lat="36.68704" lon="27.66673">
        <ele>172.588</ele>
        <time>2018-05-14T13:28:21Z</time>
      </trkpt>
      <trkpt lat="36.68704" lon="27.66667">
        <ele>172.103</ele>
        <time>2018-05-14T13:28:24Z</time>
      </trkpt>
      <trkpt lat="36.68703" lon="27.6666">
        <ele>172.325</ele>
        <time>2018-05-14T13:28:28Z</time>
      </trkpt>
      <trkpt lat="36.68702" lon="27.66655">
        <ele>172.503</ele>
        <time>2018-05-14T13:28:31Z</time>
      </trkpt>
      <trkpt lat="36.68701" lon="27.66649">
        <ele>172.621</ele>
        <time>2018-05-14T13:28:34Z</time>
      </trkpt>
      <trkpt lat="36.687" lon="27.66643">
        <ele>172.889</ele>
        <time>2018-05-14T13:28:37Z</time>
      </trkpt>
      <trkpt lat="36.68698" lon="27.66638">
        <ele>173.59</ele>
        <time>2018-05-14T13:28:41Z</time>
      </trkpt>
      <trkpt lat="36.68695" lon="27.66632">
        <ele>174.459</ele>
        <time>2018-05-14T13:28:46Z</time>
      </trkpt>
      <trkpt lat="36.68693" lon="27.66626">
        <ele>175.379</ele>
        <time>2018-05-14T13:28:50Z</time>
      </trkpt>
      <trkpt lat="36.68691" lon="27.66621">
        <ele>176.259</ele>
        <time>2018-05-14T13:29:03Z</time>
      </trkpt>
      <trkpt lat="36.68687" lon="27.66625">
        <ele>178.114</ele>
        <time>2018-05-14T13:29:30Z</time>
      </trkpt>
      <trkpt lat="36.68684" lon="27.66621">
        <ele>179.399</ele>
        <time>2018-05-14T13:29:38Z</time>
      </trkpt>
      <trkpt lat="36.68683" lon="27.66615">
        <ele>179.845</ele>
        <time>2018-05-14T13:29:42Z</time>
      </trkpt>
      <trkpt lat="36.68681" lon="27.66609">
        <ele>180.95</ele>
        <time>2018-05-14T13:29:46Z</time>
      </trkpt>
      <trkpt lat="36.6868" lon="27.66603">
        <ele>181.835</ele>
        <time>2018-05-14T13:29:51Z</time>
      </trkpt>
      <trkpt lat="36.68678" lon="27.66598">
        <ele>183.113</ele>
        <time>2018-05-14T13:29:56Z</time>
      </trkpt>
      <trkpt lat="36.68675" lon="27.66592">
        <ele>184.412</ele>
        <time>2018-05-14T13:30:01Z</time>
      </trkpt>
      <trkpt lat="36.68674" lon="27.66585">
        <ele>184.755</ele>
        <time>2018-05-14T13:30:05Z</time>
      </trkpt>
      <trkpt lat="36.68674" lon="27.66579">
        <ele>185.422</ele>
        <time>2018-05-14T13:30:09Z</time>
      </trkpt>
      <trkpt lat="36.68673" lon="27.66573">
        <ele>186.352</ele>
        <time>2018-05-14T13:30:12Z</time>
      </trkpt>
      <trkpt lat="36.68671" lon="27.66568">
        <ele>187.455</ele>
        <time>2018-05-14T13:30:16Z</time>
      </trkpt>
      <trkpt lat="36.68669" lon="27.66563">
        <ele>188.247</ele>
        <time>2018-05-14T13:30:22Z</time>
      </trkpt>
      <trkpt lat="36.68667" lon="27.66557">
        <ele>188.853</ele>
        <time>2018-05-14T13:30:26Z</time>
      </trkpt>
      <trkpt lat="36.68664" lon="27.66553">
        <ele>190.01</ele>
        <time>2018-05-14T13:30:34Z</time>
      </trkpt>
      <trkpt lat="36.68659" lon="27.66552">
        <ele>190.957</ele>
        <time>2018-05-14T13:31:07Z</time>
      </trkpt>
      <trkpt lat="36.6866" lon="27.66546">
        <ele>192.05</ele>
        <time>2018-05-14T13:31:22Z</time>
      </trkpt>
      <trkpt lat="36.6866" lon="27.6654">
        <ele>193.105</ele>
        <time>2018-05-14T13:31:26Z</time>
      </trkpt>
      <trkpt lat="36.6866" lon="27.66535">
        <ele>194.204</ele>
        <time>2018-05-14T13:31:31Z</time>
      </trkpt>
      <trkpt lat="36.68657" lon="27.6653">
        <ele>195.303</ele>
        <time>2018-05-14T13:32:00Z</time>
      </trkpt>
      <trkpt lat="36.68657" lon="27.66524">
        <ele>195.989</ele>
        <time>2018-05-14T13:32:07Z</time>
      </trkpt>
      <trkpt lat="36.68654" lon="27.6652">
        <ele>196.524</ele>
        <time>2018-05-14T13:32:11Z</time>
      </trkpt>
      <trkpt lat="36.68651" lon="27.66514">
        <ele>197.033</ele>
        <time>2018-05-14T13:32:17Z</time>
      </trkpt>
      <trkpt lat="36.68646" lon="27.66515">
        <ele>197.15</ele>
        <time>2018-05-14T13:32:25Z</time>
      </trkpt>
      <trkpt lat="36.68647" lon="27.66509">
        <ele>197.515</ele>
        <time>2018-05-14T13:32:54Z</time>
      </trkpt>
      <trkpt lat="36.68648" lon="27.66503">
        <ele>197.818</ele>
        <time>2018-05-14T13:33:00Z</time>
      </trkpt>
      <trkpt lat="36.6865" lon="27.66497">
        <ele>198.15</ele>
        <time>2018-05-14T13:33:21Z</time>
      </trkpt>
      <trkpt lat="36.68652" lon="27.66493">
        <ele>198.409</ele>
        <time>2018-05-14T13:33:27Z</time>
      </trkpt>
      <trkpt lat="36.68652" lon="27.66486">
        <ele>198.757</ele>
        <time>2018-05-14T13:33:33Z</time>
      </trkpt>
      <trkpt lat="36.68652" lon="27.66481">
        <ele>199.085</ele>
        <time>2018-05-14T13:33:44Z</time>
      </trkpt>
      <trkpt lat="36.68651" lon="27.66475">
        <ele>199.423</ele>
        <time>2018-05-14T13:33:49Z</time>
      </trkpt>
      <trkpt lat="36.6865" lon="27.66468">
        <ele>199.675</ele>
        <time>2018-05-14T13:33:56Z</time>
      </trkpt>
      <trkpt lat="36.68649" lon="27.66462">
        <ele>199.87</ele>
        <time>2018-05-14T13:34:02Z</time>
      </trkpt>
      <trkpt lat="36.68647" lon="27.66457">
        <ele>200.076</ele>
        <time>2018-05-14T13:34:07Z</time>
      </trkpt>
      <trkpt lat="36.68646" lon="27.66452">
        <ele>200.315</ele>
        <time>2018-05-14T13:34:14Z</time>
      </trkpt>
      <trkpt lat="36.68641" lon="27.66452">
        <ele>200.581</ele>
        <time>2018-05-14T13:34:37Z</time>
      </trkpt>
      <trkpt lat="36.6864" lon="27.66458">
        <ele>200.451</ele>
        <time>2018-05-14T13:35:36Z</time>
      </trkpt>
      <trkpt lat="36.68639" lon="27.66455">
        <ele>200.624</ele>
        <time>2018-05-14T13:36:30Z</time>
      </trkpt>
      <trkpt lat="36.68634" lon="27.66453">
        <ele>201.145</ele>
        <time>2018-05-14T13:37:42Z</time>
      </trkpt>
      <trkpt lat="36.68631" lon="27.66449">
        <ele>201.49</ele>
        <time>2018-05-14T13:38:03Z</time>
      </trkpt>
      <trkpt lat="36.68627" lon="27.66447">
        <ele>201.874</ele>
        <time>2018-05-14T13:38:18Z</time>
      </trkpt>
      <trkpt lat="36.68624" lon="27.66451">
        <ele>202.126</ele>
        <time>2018-05-14T13:38:37Z</time>
      </trkpt>
      <trkpt lat="36.68619" lon="27.66447">
        <ele>202.451</ele>
        <time>2018-05-14T13:38:53Z</time>
      </trkpt>
      <trkpt lat="36.68616" lon="27.66442">
        <ele>202.474</ele>
        <time>2018-05-14T13:38:58Z</time>
      </trkpt>
      <trkpt lat="36.68613" lon="27.66437">
        <ele>202.334</ele>
        <time>2018-05-14T13:39:03Z</time>
      </trkpt>
      <trkpt lat="36.6861" lon="27.66432">
        <ele>202.246</ele>
        <time>2018-05-14T13:39:08Z</time>
      </trkpt>
      <trkpt lat="36.68605" lon="27.6643">
        <ele>202.62</ele>
        <time>2018-05-14T13:39:42Z</time>
      </trkpt>
      <trkpt lat="36.68602" lon="27.66426">
        <ele>202.674</ele>
        <time>2018-05-14T13:39:48Z</time>
      </trkpt>
      <trkpt lat="36.68598" lon="27.66422">
        <ele>202.785</ele>
        <time>2018-05-14T13:39:53Z</time>
      </trkpt>
      <trkpt lat="36.68583" lon="27.66418">
        <ele>204.15</ele>
        <time>2018-05-14T13:54:00Z</time>
      </trkpt>
      <trkpt lat="36.68577" lon="27.66417">
        <ele>204.65</ele>
        <time>2018-05-14T13:54:04Z</time>
      </trkpt>
      <trkpt lat="36.68574" lon="27.66421">
        <ele>205.299</ele>
        <time>2018-05-14T13:54:24Z</time>
      </trkpt>
      <trkpt lat="36.6857" lon="27.66416">
        <ele>205.306</ele>
        <time>2018-05-14T13:54:45Z</time>
      </trkpt>
      <trkpt lat="36.68567" lon="27.66412">
        <ele>204.931</ele>
        <time>2018-05-14T13:54:48Z</time>
      </trkpt>
      <trkpt lat="36.68566" lon="27.66406">
        <ele>203.992</ele>
        <time>2018-05-14T13:54:53Z</time>
      </trkpt>
      <trkpt lat="36.68565" lon="27.664">
        <ele>203.105</ele>
        <time>2018-05-14T13:54:59Z</time>
      </trkpt>
      <trkpt lat="36.6856" lon="27.66397">
        <ele>202.919</ele>
        <time>2018-05-14T13:55:06Z</time>
      </trkpt>
      <trkpt lat="36.68565" lon="27.66392">
        <ele>201.619</ele>
        <time>2018-05-14T13:55:27Z</time>
      </trkpt>
      <trkpt lat="36.68563" lon="27.66387">
        <ele>201</ele>
        <time>2018-05-14T13:55:33Z</time>
      </trkpt>
      <trkpt lat="36.68557" lon="27.66385">
        <ele>201.34</ele>
        <time>2018-05-14T13:55:38Z</time>
      </trkpt>
      <trkpt lat="36.68552" lon="27.66383">
        <ele>201.907</ele>
        <time>2018-05-14T13:55:43Z</time>
      </trkpt>
      <trkpt lat="36.68549" lon="27.66379">
        <ele>201.894</ele>
        <time>2018-05-14T13:55:49Z</time>
      </trkpt>
      <trkpt lat="36.68545" lon="27.66375">
        <ele>201.98</ele>
        <time>2018-05-14T13:55:53Z</time>
      </trkpt>
      <trkpt lat="36.68541" lon="27.6637">
        <ele>201.864</ele>
        <time>2018-05-14T13:55:57Z</time>
      </trkpt>
      <trkpt lat="36.68538" lon="27.66365">
        <ele>201.551</ele>
        <time>2018-05-14T13:56:00Z</time>
      </trkpt>
      <trkpt lat="36.68534" lon="27.66361">
        <ele>201.3</ele>
        <time>2018-05-14T13:56:04Z</time>
      </trkpt>
      <trkpt lat="36.6853" lon="27.66358">
        <ele>201.435</ele>
        <time>2018-05-14T13:56:09Z</time>
      </trkpt>
      <trkpt lat="36.68526" lon="27.66353">
        <ele>201.17</ele>
        <time>2018-05-14T13:56:13Z</time>
      </trkpt>
      <trkpt lat="36.68521" lon="27.66354">
        <ele>201.359</ele>
        <time>2018-05-14T13:56:17Z</time>
      </trkpt>
      <trkpt lat="36.68521" lon="27.6636">
        <ele>202.142</ele>
        <time>2018-05-14T13:56:22Z</time>
      </trkpt>
      <trkpt lat="36.68518" lon="27.66355">
        <ele>201.48</ele>
        <time>2018-05-14T13:56:39Z</time>
      </trkpt>
      <trkpt lat="36.68514" lon="27.66351">
        <ele>201.06</ele>
        <time>2018-05-14T13:56:44Z</time>
      </trkpt>
      <trkpt lat="36.68509" lon="27.66349">
        <ele>200.794</ele>
        <time>2018-05-14T13:56:49Z</time>
      </trkpt>
      <trkpt lat="36.68505" lon="27.66351">
        <ele>201.085</ele>
        <time>2018-05-14T13:57:01Z</time>
      </trkpt>
      <trkpt lat="36.685" lon="27.66352">
        <ele>201.269</ele>
        <time>2018-05-14T13:57:21Z</time>
      </trkpt>
      <trkpt lat="36.68496" lon="27.66355">
        <ele>201.763</ele>
        <time>2018-05-14T13:57:32Z</time>
      </trkpt>
      <trkpt lat="36.68492" lon="27.66357">
        <ele>202.092</ele>
        <time>2018-05-14T13:57:36Z</time>
      </trkpt>
      <trkpt lat="36.68487" lon="27.66358">
        <ele>202.271</ele>
        <time>2018-05-14T13:57:41Z</time>
      </trkpt>
      <trkpt lat="36.68482" lon="27.66356">
        <ele>201.8</ele>
        <time>2018-05-14T13:57:47Z</time>
      </trkpt>
      <trkpt lat="36.68477" lon="27.66354">
        <ele>201.393</ele>
        <time>2018-05-14T13:57:52Z</time>
      </trkpt>
      <trkpt lat="36.68473" lon="27.66352">
        <ele>200.786</ele>
        <time>2018-05-14T13:57:57Z</time>
      </trkpt>
      <trkpt lat="36.68468" lon="27.6635">
        <ele>200.241</ele>
        <time>2018-05-14T13:58:01Z</time>
      </trkpt>
      <trkpt lat="36.68462" lon="27.66351">
        <ele>200.242</ele>
        <time>2018-05-14T13:58:04Z</time>
      </trkpt>
      <trkpt lat="36.68458" lon="27.66351">
        <ele>200.223</ele>
        <time>2018-05-14T13:58:07Z</time>
      </trkpt>
      <trkpt lat="36.68453" lon="27.66351">
        <ele>200.201</ele>
        <time>2018-05-14T13:58:10Z</time>
      </trkpt>
      <trkpt lat="36.68449" lon="27.66349">
        <ele>199.838</ele>
        <time>2018-05-14T13:58:13Z</time>
      </trkpt>
      <trkpt lat="36.68444" lon="27.66347">
        <ele>199.45</ele>
        <time>2018-05-14T13:58:16Z</time>
      </trkpt>
      <trkpt lat="36.68438" lon="27.66345">
        <ele>199.66</ele>
        <time>2018-05-14T13:58:20Z</time>
      </trkpt>
      <trkpt lat="36.68433" lon="27.66344">
        <ele>200.091</ele>
        <time>2018-05-14T13:58:23Z</time>
      </trkpt>
      <trkpt lat="36.6843" lon="27.66339">
        <ele>199.289</ele>
        <time>2018-05-14T13:58:39Z</time>
      </trkpt>
      <trkpt lat="36.68425" lon="27.66336">
        <ele>199.036</ele>
        <time>2018-05-14T13:58:53Z</time>
      </trkpt>
      <trkpt lat="36.68422" lon="27.66332">
        <ele>198.589</ele>
        <time>2018-05-14T13:58:59Z</time>
      </trkpt>
      <trkpt lat="36.68418" lon="27.66329">
        <ele>198.761</ele>
        <time>2018-05-14T13:59:06Z</time>
      </trkpt>
      <trkpt lat="36.68413" lon="27.66325">
        <ele>199.354</ele>
        <time>2018-05-14T13:59:10Z</time>
      </trkpt>
      <trkpt lat="36.68409" lon="27.66323">
        <ele>199.983</ele>
        <time>2018-05-14T13:59:14Z</time>
      </trkpt>
      <trkpt lat="36.68404" lon="27.6632">
        <ele>200.597</ele>
        <time>2018-05-14T13:59:18Z</time>
      </trkpt>
      <trkpt lat="36.68399" lon="27.66316">
        <ele>201.078</ele>
        <time>2018-05-14T13:59:23Z</time>
      </trkpt>
      <trkpt lat="36.68396" lon="27.66311">
        <ele>201.282</ele>
        <time>2018-05-14T13:59:26Z</time>
      </trkpt>
      <trkpt lat="36.68393" lon="27.66307">
        <ele>201.521</ele>
        <time>2018-05-14T13:59:29Z</time>
      </trkpt>
      <trkpt lat="36.68388" lon="27.66303">
        <ele>202.127</ele>
        <time>2018-05-14T13:59:32Z</time>
      </trkpt>
      <trkpt lat="36.68383" lon="27.66301">
        <ele>202.624</ele>
        <time>2018-05-14T13:59:35Z</time>
      </trkpt>
      <trkpt lat="36.68377" lon="27.66298">
        <ele>203.096</ele>
        <time>2018-05-14T13:59:38Z</time>
      </trkpt>
      <trkpt lat="36.68373" lon="27.66295">
        <ele>203.535</ele>
        <time>2018-05-14T13:59:41Z</time>
      </trkpt>
      <trkpt lat="36.6837" lon="27.6629">
        <ele>203.96</ele>
        <time>2018-05-14T13:59:45Z</time>
      </trkpt>
      <trkpt lat="36.68369" lon="27.66284">
        <ele>204.205</ele>
        <time>2018-05-14T14:00:10Z</time>
      </trkpt>
      <trkpt lat="36.68373" lon="27.66282">
        <ele>203.949</ele>
        <time>2018-05-14T14:00:48Z</time>
      </trkpt>
      <trkpt lat="36.68373" lon="27.66276">
        <ele>204.159</ele>
        <time>2018-05-14T14:00:53Z</time>
      </trkpt>
      <trkpt lat="36.68372" lon="27.66269">
        <ele>204.223</ele>
        <time>2018-05-14T14:00:58Z</time>
      </trkpt>
      <trkpt lat="36.68371" lon="27.66263">
        <ele>204.288</ele>
        <time>2018-05-14T14:01:02Z</time>
      </trkpt>
      <trkpt lat="36.68369" lon="27.66257">
        <ele>204.446</ele>
        <time>2018-05-14T14:01:06Z</time>
      </trkpt>
      <trkpt lat="36.68367" lon="27.66252">
        <ele>204.569</ele>
        <time>2018-05-14T14:01:09Z</time>
      </trkpt>
      <trkpt lat="36.68364" lon="27.66247">
        <ele>204.778</ele>
        <time>2018-05-14T14:01:12Z</time>
      </trkpt>
      <trkpt lat="36.68363" lon="27.6624">
        <ele>204.883</ele>
        <time>2018-05-14T14:02:21Z</time>
      </trkpt>
      <trkpt lat="36.68368" lon="27.66239">
        <ele>204.615</ele>
        <time>2018-05-14T14:02:31Z</time>
      </trkpt>
      <trkpt lat="36.68372" lon="27.66236">
        <ele>204.422</ele>
        <time>2018-05-14T14:02:47Z</time>
      </trkpt>
      <trkpt lat="36.68368" lon="27.66233">
        <ele>204.683</ele>
        <time>2018-05-14T14:02:55Z</time>
      </trkpt>
      <trkpt lat="36.68363" lon="27.66233">
        <ele>204.91</ele>
        <time>2018-05-14T14:03:00Z</time>
      </trkpt>
      <trkpt lat="36.6836" lon="27.66229">
        <ele>205.131</ele>
        <time>2018-05-14T14:03:05Z</time>
      </trkpt>
      <trkpt lat="36.68357" lon="27.66224">
        <ele>205.498</ele>
        <time>2018-05-14T14:03:10Z</time>
      </trkpt>
      <trkpt lat="36.68354" lon="27.6622">
        <ele>205.74</ele>
        <time>2018-05-14T14:03:28Z</time>
      </trkpt>
      <trkpt lat="36.68349" lon="27.66218">
        <ele>206.155</ele>
        <time>2018-05-14T14:03:56Z</time>
      </trkpt>
      <trkpt lat="36.68346" lon="27.66214">
        <ele>206.275</ele>
        <time>2018-05-14T14:04:03Z</time>
      </trkpt>
      <trkpt lat="36.68343" lon="27.66218">
        <ele>206.782</ele>
        <time>2018-05-14T14:04:15Z</time>
      </trkpt>
      <trkpt lat="36.68336" lon="27.66212">
        <ele>207.094</ele>
        <time>2018-05-14T14:07:57Z</time>
      </trkpt>
      <trkpt lat="36.6833" lon="27.6621">
        <ele>207.364</ele>
        <time>2018-05-14T14:08:02Z</time>
      </trkpt>
      <trkpt lat="36.68325" lon="27.66209">
        <ele>207.767</ele>
        <time>2018-05-14T14:08:07Z</time>
      </trkpt>
      <trkpt lat="36.68321" lon="27.66205">
        <ele>207.884</ele>
        <time>2018-05-14T14:08:12Z</time>
      </trkpt>
      <trkpt lat="36.68319" lon="27.662">
        <ele>207.876</ele>
        <time>2018-05-14T14:08:17Z</time>
      </trkpt>
      <trkpt lat="36.68316" lon="27.66195">
        <ele>207.931</ele>
        <time>2018-05-14T14:08:27Z</time>
      </trkpt>
      <trkpt lat="36.68314" lon="27.6619">
        <ele>207.982</ele>
        <time>2018-05-14T14:08:34Z</time>
      </trkpt>
      <trkpt lat="36.68308" lon="27.6619">
        <ele>208.555</ele>
        <time>2018-05-14T14:08:43Z</time>
      </trkpt>
      <trkpt lat="36.68303" lon="27.66187">
        <ele>208.842</ele>
        <time>2018-05-14T14:08:48Z</time>
      </trkpt>
      <trkpt lat="36.68298" lon="27.66185">
        <ele>209.015</ele>
        <time>2018-05-14T14:08:53Z</time>
      </trkpt>
      <trkpt lat="36.68294" lon="27.66183">
        <ele>209.167</ele>
        <time>2018-05-14T14:08:56Z</time>
      </trkpt>
      <trkpt lat="36.6829" lon="27.66179">
        <ele>209.31</ele>
        <time>2018-05-14T14:09:00Z</time>
      </trkpt>
      <trkpt lat="36.68289" lon="27.66174">
        <ele>209.333</ele>
        <time>2018-05-14T14:09:04Z</time>
      </trkpt>
      <trkpt lat="36.68287" lon="27.66169">
        <ele>209.338</ele>
        <time>2018-05-14T14:09:07Z</time>
      </trkpt>
      <trkpt lat="36.68285" lon="27.66163">
        <ele>209.758</ele>
        <time>2018-05-14T14:09:10Z</time>
      </trkpt>
      <trkpt lat="36.68282" lon="27.66157">
        <ele>210.416</ele>
        <time>2018-05-14T14:09:14Z</time>
      </trkpt>
      <trkpt lat="36.68279" lon="27.66153">
        <ele>210.916</ele>
        <time>2018-05-14T14:09:18Z</time>
      </trkpt>
      <trkpt lat="36.68276" lon="27.66148">
        <ele>211.462</ele>
        <time>2018-05-14T14:09:23Z</time>
      </trkpt>
      <trkpt lat="36.68274" lon="27.66142">
        <ele>211.929</ele>
        <time>2018-05-14T14:09:28Z</time>
      </trkpt>
      <trkpt lat="36.68272" lon="27.66137">
        <ele>212.33</ele>
        <time>2018-05-14T14:09:32Z</time>
      </trkpt>
      <trkpt lat="36.68271" lon="27.66131">
        <ele>212.701</ele>
        <time>2018-05-14T14:09:36Z</time>
      </trkpt>
      <trkpt lat="36.6827" lon="27.66125">
        <ele>213.025</ele>
        <time>2018-05-14T14:09:40Z</time>
      </trkpt>
      <trkpt lat="36.68268" lon="27.66119">
        <ele>213.31</ele>
        <time>2018-05-14T14:09:44Z</time>
      </trkpt>
      <trkpt lat="36.68268" lon="27.66112">
        <ele>213.623</ele>
        <time>2018-05-14T14:09:48Z</time>
      </trkpt>
      <trkpt lat="36.68267" lon="27.66104">
        <ele>214.201</ele>
        <time>2018-05-14T14:09:52Z</time>
      </trkpt>
      <trkpt lat="36.68266" lon="27.66099">
        <ele>214.66</ele>
        <time>2018-05-14T14:09:57Z</time>
      </trkpt>
      <trkpt lat="36.68262" lon="27.66101">
        <ele>214.323</ele>
        <time>2018-05-14T14:10:17Z</time>
      </trkpt>
      <trkpt lat="36.6826" lon="27.66106">
        <ele>213.802</ele>
        <time>2018-05-14T14:10:35Z</time>
      </trkpt>
      <trkpt lat="36.68259" lon="27.66101">
        <ele>214.348</ele>
        <time>2018-05-14T14:10:58Z</time>
      </trkpt>
      <trkpt lat="36.68257" lon="27.66095">
        <ele>214.816</ele>
        <time>2018-05-14T14:11:05Z</time>
      </trkpt>
      <trkpt lat="36.68257" lon="27.66089">
        <ele>215.456</ele>
        <time>2018-05-14T14:11:23Z</time>
      </trkpt>
      <trkpt lat="36.68257" lon="27.66083">
        <ele>216.092</ele>
        <time>2018-05-14T14:11:27Z</time>
      </trkpt>
      <trkpt lat="36.68258" lon="27.66077">
        <ele>216.883</ele>
        <time>2018-05-14T14:11:32Z</time>
      </trkpt>
      <trkpt lat="36.68257" lon="27.66071">
        <ele>217.762</ele>
        <time>2018-05-14T14:11:36Z</time>
      </trkpt>
      <trkpt lat="36.68256" lon="27.66065">
        <ele>218.654</ele>
        <time>2018-05-14T14:11:40Z</time>
      </trkpt>
      <trkpt lat="36.68255" lon="27.66059">
        <ele>219.504</ele>
        <time>2018-05-14T14:11:44Z</time>
      </trkpt>
      <trkpt lat="36.68253" lon="27.66054">
        <ele>220.067</ele>
        <time>2018-05-14T14:11:48Z</time>
      </trkpt>
      <trkpt lat="36.68251" lon="27.66048">
        <ele>220.261</ele>
        <time>2018-05-14T14:11:53Z</time>
      </trkpt>
      <trkpt lat="36.68248" lon="27.66043">
        <ele>220.42</ele>
        <time>2018-05-14T14:12:57Z</time>
      </trkpt>
      <trkpt lat="36.68245" lon="27.66038">
        <ele>220.584</ele>
        <time>2018-05-14T14:13:01Z</time>
      </trkpt>
      <trkpt lat="36.68242" lon="27.66031">
        <ele>220.843</ele>
        <time>2018-05-14T14:13:05Z</time>
      </trkpt>
      <trkpt lat="36.68239" lon="27.66027">
        <ele>221.036</ele>
        <time>2018-05-14T14:13:09Z</time>
      </trkpt>
      <trkpt lat="36.68235" lon="27.66025">
        <ele>221.129</ele>
        <time>2018-05-14T14:13:13Z</time>
      </trkpt>
      <trkpt lat="36.68232" lon="27.6602">
        <ele>221.356</ele>
        <time>2018-05-14T14:13:18Z</time>
      </trkpt>
      <trkpt lat="36.68227" lon="27.66019">
        <ele>221.546</ele>
        <time>2018-05-14T14:14:14Z</time>
      </trkpt>
      <trkpt lat="36.68222" lon="27.66019">
        <ele>221.666</ele>
        <time>2018-05-14T14:14:20Z</time>
      </trkpt>
      <trkpt lat="36.68217" lon="27.66017">
        <ele>222.263</ele>
        <time>2018-05-14T14:14:25Z</time>
      </trkpt>
      <trkpt lat="36.68212" lon="27.66017">
        <ele>222.72</ele>
        <time>2018-05-14T14:14:29Z</time>
      </trkpt>
      <trkpt lat="36.68208" lon="27.66017">
        <ele>223.15</ele>
        <time>2018-05-14T14:14:33Z</time>
      </trkpt>
      <trkpt lat="36.68204" lon="27.66014">
        <ele>223.661</ele>
        <time>2018-05-14T14:14:38Z</time>
      </trkpt>
      <trkpt lat="36.68199" lon="27.66013">
        <ele>224.123</ele>
        <time>2018-05-14T14:14:55Z</time>
      </trkpt>
      <trkpt lat="36.68195" lon="27.66015">
        <ele>224.43</ele>
        <time>2018-05-14T14:15:19Z</time>
      </trkpt>
      <trkpt lat="36.6819" lon="27.66017">
        <ele>224.868</ele>
        <time>2018-05-14T14:15:25Z</time>
      </trkpt>
      <trkpt lat="36.68186" lon="27.66015">
        <ele>225.422</ele>
        <time>2018-05-14T14:15:30Z</time>
      </trkpt>
      <trkpt lat="36.68181" lon="27.66012">
        <ele>226.012</ele>
        <time>2018-05-14T14:15:34Z</time>
      </trkpt>
      <trkpt lat="36.68178" lon="27.66007">
        <ele>226.524</ele>
        <time>2018-05-14T14:15:38Z</time>
      </trkpt>
      <trkpt lat="36.68175" lon="27.66001">
        <ele>227.042</ele>
        <time>2018-05-14T14:15:42Z</time>
      </trkpt>
      <trkpt lat="36.68172" lon="27.65996">
        <ele>227.355</ele>
        <time>2018-05-14T14:15:46Z</time>
      </trkpt>
      <trkpt lat="36.68167" lon="27.65994">
        <ele>227.721</ele>
        <time>2018-05-14T14:16:18Z</time>
      </trkpt>
      <trkpt lat="36.68163" lon="27.65989">
        <ele>228.196</ele>
        <time>2018-05-14T14:16:23Z</time>
      </trkpt>
      <trkpt lat="36.6816" lon="27.65984">
        <ele>228.556</ele>
        <time>2018-05-14T14:16:28Z</time>
      </trkpt>
      <trkpt lat="36.68156" lon="27.6598">
        <ele>228.965</ele>
        <time>2018-05-14T14:16:32Z</time>
      </trkpt>
      <trkpt lat="36.68151" lon="27.65977">
        <ele>229.49</ele>
        <time>2018-05-14T14:16:37Z</time>
      </trkpt>
      <trkpt lat="36.68147" lon="27.65973">
        <ele>229.933</ele>
        <time>2018-05-14T14:16:41Z</time>
      </trkpt>
      <trkpt lat="36.68143" lon="27.65969">
        <ele>230.32</ele>
        <time>2018-05-14T14:16:46Z</time>
      </trkpt>
      <trkpt lat="36.68138" lon="27.65967">
        <ele>230.866</ele>
        <time>2018-05-14T14:17:14Z</time>
      </trkpt>
      <trkpt lat="36.68138" lon="27.65961">
        <ele>230.729</ele>
        <time>2018-05-14T14:18:23Z</time>
      </trkpt>
      <trkpt lat="36.68136" lon="27.6596">
        <ele>230.949</ele>
        <time>2018-05-14T14:19:19Z</time>
      </trkpt>
      <trkpt lat="36.68131" lon="27.65958">
        <ele>231.435</ele>
        <time>2018-05-14T14:19:24Z</time>
      </trkpt>
      <trkpt lat="36.6813" lon="27.65953">
        <ele>231.424</ele>
        <time>2018-05-14T14:19:29Z</time>
      </trkpt>
      <trkpt lat="36.68131" lon="27.65946">
        <ele>231.254</ele>
        <time>2018-05-14T14:19:34Z</time>
      </trkpt>
      <trkpt lat="36.68131" lon="27.65941">
        <ele>231.323</ele>
        <time>2018-05-14T14:19:56Z</time>
      </trkpt>
      <trkpt lat="36.68129" lon="27.65935">
        <ele>232.055</ele>
        <time>2018-05-14T14:20:15Z</time>
      </trkpt>
      <trkpt lat="36.68126" lon="27.6593">
        <ele>232.822</ele>
        <time>2018-05-14T14:20:21Z</time>
      </trkpt>
      <trkpt lat="36.68124" lon="27.65924">
        <ele>233.685</ele>
        <time>2018-05-14T14:20:29Z</time>
      </trkpt>
      <trkpt lat="36.6812" lon="27.65919">
        <ele>234.87</ele>
        <time>2018-05-14T14:20:34Z</time>
      </trkpt>
      <trkpt lat="36.68118" lon="27.65914">
        <ele>235.658</ele>
        <time>2018-05-14T14:20:42Z</time>
      </trkpt>
      <trkpt lat="36.68117" lon="27.65908">
        <ele>236.062</ele>
        <time>2018-05-14T14:20:52Z</time>
      </trkpt>
      <trkpt lat="36.6812" lon="27.65904">
        <ele>235.464</ele>
        <time>2018-05-14T14:21:16Z</time>
      </trkpt>
      <trkpt lat="36.68119" lon="27.65899">
        <ele>235.885</ele>
        <time>2018-05-14T14:21:52Z</time>
      </trkpt>
      <trkpt lat="36.6812" lon="27.65893">
        <ele>236.008</ele>
        <time>2018-05-14T14:21:59Z</time>
      </trkpt>
      <trkpt lat="36.68119" lon="27.65887">
        <ele>236.469</ele>
        <time>2018-05-14T14:22:23Z</time>
      </trkpt>
      <trkpt lat="36.68118" lon="27.65881">
        <ele>236.714</ele>
        <time>2018-05-14T14:22:45Z</time>
      </trkpt>
      <trkpt lat="36.68118" lon="27.65875">
        <ele>237.022</ele>
        <time>2018-05-14T14:22:50Z</time>
      </trkpt>
      <trkpt lat="36.68117" lon="27.65869">
        <ele>237.569</ele>
        <time>2018-05-14T14:22:55Z</time>
      </trkpt>
      <trkpt lat="36.68115" lon="27.65862">
        <ele>238.178</ele>
        <time>2018-05-14T14:22:59Z</time>
      </trkpt>
      <trkpt lat="36.68111" lon="27.65858">
        <ele>239.086</ele>
        <time>2018-05-14T14:23:04Z</time>
      </trkpt>
      <trkpt lat="36.68108" lon="27.65854">
        <ele>239.898</ele>
        <time>2018-05-14T14:23:11Z</time>
      </trkpt>
      <trkpt lat="36.68105" lon="27.65849">
        <ele>240.483</ele>
        <time>2018-05-14T14:23:18Z</time>
      </trkpt>
      <trkpt lat="36.68102" lon="27.65853">
        <ele>240.913</ele>
        <time>2018-05-14T14:24:00Z</time>
      </trkpt>
      <trkpt lat="36.681" lon="27.65847">
        <ele>241.566</ele>
        <time>2018-05-14T14:24:10Z</time>
      </trkpt>
      <trkpt lat="36.68096" lon="27.65842">
        <ele>242.415</ele>
        <time>2018-05-14T14:24:14Z</time>
      </trkpt>
      <trkpt lat="36.68093" lon="27.65838">
        <ele>243.172</ele>
        <time>2018-05-14T14:24:18Z</time>
      </trkpt>
      <trkpt lat="36.68088" lon="27.65835">
        <ele>244.09</ele>
        <time>2018-05-14T14:24:22Z</time>
      </trkpt>
      <trkpt lat="36.68083" lon="27.65833">
        <ele>245.068</ele>
        <time>2018-05-14T14:24:26Z</time>
      </trkpt>
      <trkpt lat="36.68079" lon="27.65831">
        <ele>245.511</ele>
        <time>2018-05-14T14:24:47Z</time>
      </trkpt>
      <trkpt lat="36.68074" lon="27.65829">
        <ele>246.008</ele>
        <time>2018-05-14T14:24:57Z</time>
      </trkpt>
      <trkpt lat="36.68069" lon="27.65828">
        <ele>246.505</ele>
        <time>2018-05-14T14:25:05Z</time>
      </trkpt>
      <trkpt lat="36.68065" lon="27.65828">
        <ele>247.034</ele>
        <time>2018-05-14T14:25:13Z</time>
      </trkpt>
      <trkpt lat="36.6806" lon="27.65826">
        <ele>247.574</ele>
        <time>2018-05-14T14:25:25Z</time>
      </trkpt>
      <trkpt lat="36.68054" lon="27.65822">
        <ele>248.144</ele>
        <time>2018-05-14T14:25:29Z</time>
      </trkpt>
      <trkpt lat="36.68049" lon="27.65819">
        <ele>248.728</ele>
        <time>2018-05-14T14:25:33Z</time>
      </trkpt>
      <trkpt lat="36.68045" lon="27.65817">
        <ele>249.132</ele>
        <time>2018-05-14T14:25:37Z</time>
      </trkpt>
      <trkpt lat="36.68041" lon="27.65814">
        <ele>249.359</ele>
        <time>2018-05-14T14:25:46Z</time>
      </trkpt>
      <trkpt lat="36.68036" lon="27.65813">
        <ele>249.749</ele>
        <time>2018-05-14T14:25:58Z</time>
      </trkpt>
      <trkpt lat="36.68033" lon="27.65809">
        <ele>249.847</ele>
        <time>2018-05-14T14:26:51Z</time>
      </trkpt>
      <trkpt lat="36.68028" lon="27.65807">
        <ele>250.093</ele>
        <time>2018-05-14T14:26:58Z</time>
      </trkpt>
      <trkpt lat="36.68024" lon="27.65805">
        <ele>250.905</ele>
        <time>2018-05-14T14:27:06Z</time>
      </trkpt>
      <trkpt lat="36.68019" lon="27.65802">
        <ele>251.768</ele>
        <time>2018-05-14T14:27:22Z</time>
      </trkpt>
      <trkpt lat="36.68015" lon="27.65799">
        <ele>252.4</ele>
        <time>2018-05-14T14:27:30Z</time>
      </trkpt>
      <trkpt lat="36.68011" lon="27.65796">
        <ele>253.125</ele>
        <time>2018-05-14T14:27:37Z</time>
      </trkpt>
      <trkpt lat="36.68015" lon="27.65794">
        <ele>252.143</ele>
        <time>2018-05-14T14:28:18Z</time>
      </trkpt>
      <trkpt lat="36.68015" lon="27.65792">
        <ele>252.003</ele>
        <time>2018-05-14T14:29:44Z</time>
      </trkpt>
      <trkpt lat="36.68014" lon="27.65787">
        <ele>251.985</ele>
        <time>2018-05-14T14:29:49Z</time>
      </trkpt>
      <trkpt lat="36.68012" lon="27.65781">
        <ele>252.009</ele>
        <time>2018-05-14T14:29:54Z</time>
      </trkpt>
      <trkpt lat="36.68008" lon="27.65778">
        <ele>252.616</ele>
        <time>2018-05-14T14:29:58Z</time>
      </trkpt>
      <trkpt lat="36.68003" lon="27.65775">
        <ele>253.314</ele>
        <time>2018-05-14T14:30:02Z</time>
      </trkpt>
      <trkpt lat="36.67999" lon="27.65772">
        <ele>253.876</ele>
        <time>2018-05-14T14:30:06Z</time>
      </trkpt>
      <trkpt lat="36.67995" lon="27.65769">
        <ele>254.584</ele>
        <time>2018-05-14T14:30:38Z</time>
      </trkpt>
      <trkpt lat="36.67989" lon="27.65769">
        <ele>255.778</ele>
        <time>2018-05-14T14:30:42Z</time>
      </trkpt>
      <trkpt lat="36.67984" lon="27.65767">
        <ele>256.775</ele>
        <time>2018-05-14T14:30:47Z</time>
      </trkpt>
      <trkpt lat="36.6798" lon="27.65766">
        <ele>257.541</ele>
        <time>2018-05-14T14:30:55Z</time>
      </trkpt>
      <trkpt lat="36.67977" lon="27.6577">
        <ele>258.782</ele>
        <time>2018-05-14T14:31:19Z</time>
      </trkpt>
      <trkpt lat="36.67973" lon="27.65765">
        <ele>259.041</ele>
        <time>2018-05-14T14:31:39Z</time>
      </trkpt>
      <trkpt lat="36.6797" lon="27.6576">
        <ele>259.72</ele>
        <time>2018-05-14T14:31:45Z</time>
      </trkpt>
      <trkpt lat="36.67968" lon="27.65755">
        <ele>259.998</ele>
        <time>2018-05-14T14:31:49Z</time>
      </trkpt>
      <trkpt lat="36.67964" lon="27.65751">
        <ele>261.276</ele>
        <time>2018-05-14T14:31:54Z</time>
      </trkpt>
      <trkpt lat="36.67961" lon="27.65747">
        <ele>262.986</ele>
        <time>2018-05-14T14:31:59Z</time>
      </trkpt>
      <trkpt lat="36.67958" lon="27.65742">
        <ele>264.661</ele>
        <time>2018-05-14T14:32:02Z</time>
      </trkpt>
      <trkpt lat="36.67954" lon="27.65738">
        <ele>266.572</ele>
        <time>2018-05-14T14:32:06Z</time>
      </trkpt>
      <trkpt lat="36.6795" lon="27.65734">
        <ele>268.127</ele>
        <time>2018-05-14T14:32:11Z</time>
      </trkpt>
      <trkpt lat="36.67947" lon="27.65729">
        <ele>269.424</ele>
        <time>2018-05-14T14:32:27Z</time>
      </trkpt>
      <trkpt lat="36.67944" lon="27.65724">
        <ele>270.282</ele>
        <time>2018-05-14T14:32:52Z</time>
      </trkpt>
      <trkpt lat="36.6794" lon="27.65719">
        <ele>271.903</ele>
        <time>2018-05-14T14:32:57Z</time>
      </trkpt>
      <trkpt lat="36.67936" lon="27.65715">
        <ele>273.829</ele>
        <time>2018-05-14T14:33:02Z</time>
      </trkpt>
      <trkpt lat="36.67932" lon="27.65712">
        <ele>275.874</ele>
        <time>2018-05-14T14:33:07Z</time>
      </trkpt>
      <trkpt lat="36.67928" lon="27.65709">
        <ele>277.64</ele>
        <time>2018-05-14T14:33:11Z</time>
      </trkpt>
      <trkpt lat="36.67925" lon="27.65704">
        <ele>279.051</ele>
        <time>2018-05-14T14:33:15Z</time>
      </trkpt>
      <trkpt lat="36.67923" lon="27.65699">
        <ele>280.271</ele>
        <time>2018-05-14T14:33:23Z</time>
      </trkpt>
      <trkpt lat="36.67921" lon="27.65694">
        <ele>281.412</ele>
        <time>2018-05-14T14:33:27Z</time>
      </trkpt>
      <trkpt lat="36.67922" lon="27.65689">
        <ele>281.788</ele>
        <time>2018-05-14T14:33:38Z</time>
      </trkpt>
      <trkpt lat="36.67926" lon="27.65684">
        <ele>280.849</ele>
        <time>2018-05-14T14:33:45Z</time>
      </trkpt>
      <trkpt lat="36.67924" lon="27.65678">
        <ele>282.902</ele>
        <time>2018-05-14T14:33:59Z</time>
      </trkpt>
      <trkpt lat="36.67924" lon="27.65672">
        <ele>284.508</ele>
        <time>2018-05-14T14:34:04Z</time>
      </trkpt>
      <trkpt lat="36.67921" lon="27.65666">
        <ele>286.626</ele>
        <time>2018-05-14T14:34:10Z</time>
      </trkpt>
      <trkpt lat="36.67919" lon="27.65661">
        <ele>287.958</ele>
        <time>2018-05-14T14:34:15Z</time>
      </trkpt>
      <trkpt lat="36.67918" lon="27.65655">
        <ele>288.557</ele>
        <time>2018-05-14T14:34:20Z</time>
      </trkpt>
      <trkpt lat="36.67916" lon="27.65648">
        <ele>289.176</ele>
        <time>2018-05-14T14:34:25Z</time>
      </trkpt>
      <trkpt lat="36.67915" lon="27.65643">
        <ele>289.574</ele>
        <time>2018-05-14T14:34:29Z</time>
      </trkpt>
      <trkpt lat="36.67912" lon="27.65637">
        <ele>290.182</ele>
        <time>2018-05-14T14:34:33Z</time>
      </trkpt>
      <trkpt lat="36.67911" lon="27.65631">
        <ele>290.278</ele>
        <time>2018-05-14T14:34:37Z</time>
      </trkpt>
      <trkpt lat="36.6791" lon="27.65624">
        <ele>290.384</ele>
        <time>2018-05-14T14:34:41Z</time>
      </trkpt>
      <trkpt lat="36.6791" lon="27.65617">
        <ele>290.42</ele>
        <time>2018-05-14T14:34:45Z</time>
      </trkpt>
      <trkpt lat="36.67908" lon="27.65611">
        <ele>290.712</ele>
        <time>2018-05-14T14:34:50Z</time>
      </trkpt>
      <trkpt lat="36.67906" lon="27.65605">
        <ele>291.423</ele>
        <time>2018-05-14T14:34:56Z</time>
      </trkpt>
      <trkpt lat="36.67903" lon="27.65601">
        <ele>292.591</ele>
        <time>2018-05-14T14:35:08Z</time>
      </trkpt>
      <trkpt lat="36.67906" lon="27.65597">
        <ele>291.554</ele>
        <time>2018-05-14T14:35:37Z</time>
      </trkpt>
      <trkpt lat="36.67905" lon="27.65591">
        <ele>291.779</ele>
        <time>2018-05-14T14:35:42Z</time>
      </trkpt>
      <trkpt lat="36.67903" lon="27.65585">
        <ele>292.558</ele>
        <time>2018-05-14T14:35:47Z</time>
      </trkpt>
      <trkpt lat="36.67899" lon="27.6558">
        <ele>293.603</ele>
        <time>2018-05-14T14:35:51Z</time>
      </trkpt>
      <trkpt lat="36.67896" lon="27.65575">
        <ele>294.201</ele>
        <time>2018-05-14T14:35:55Z</time>
      </trkpt>
      <trkpt lat="36.67894" lon="27.65569">
        <ele>294.334</ele>
        <time>2018-05-14T14:35:59Z</time>
      </trkpt>
      <trkpt lat="36.67892" lon="27.65564">
        <ele>294.519</ele>
        <time>2018-05-14T14:36:03Z</time>
      </trkpt>
      <trkpt lat="36.6789" lon="27.65559">
        <ele>294.997</ele>
        <time>2018-05-14T14:36:10Z</time>
      </trkpt>
      <trkpt lat="36.67887" lon="27.65554">
        <ele>295.28</ele>
        <time>2018-05-14T14:36:15Z</time>
      </trkpt>
      <trkpt lat="36.67885" lon="27.65548">
        <ele>295.231</ele>
        <time>2018-05-14T14:36:19Z</time>
      </trkpt>
      <trkpt lat="36.67883" lon="27.65542">
        <ele>295.119</ele>
        <time>2018-05-14T14:36:25Z</time>
      </trkpt>
      <trkpt lat="36.67882" lon="27.65537">
        <ele>294.753</ele>
        <time>2018-05-14T14:36:34Z</time>
      </trkpt>
      <trkpt lat="36.67882" lon="27.65531">
        <ele>294.305</ele>
        <time>2018-05-14T14:36:42Z</time>
      </trkpt>
      <trkpt lat="36.67878" lon="27.65527">
        <ele>295.42</ele>
        <time>2018-05-14T14:36:48Z</time>
      </trkpt>
      <trkpt lat="36.67874" lon="27.65522">
        <ele>295.64</ele>
        <time>2018-05-14T14:36:53Z</time>
      </trkpt>
      <trkpt lat="36.67871" lon="27.65517">
        <ele>295.827</ele>
        <time>2018-05-14T14:36:58Z</time>
      </trkpt>
      <trkpt lat="36.67868" lon="27.65513">
        <ele>296.055</ele>
        <time>2018-05-14T14:37:05Z</time>
      </trkpt>
      <trkpt lat="36.67863" lon="27.65511">
        <ele>297.096</ele>
        <time>2018-05-14T14:37:33Z</time>
      </trkpt>
      <trkpt lat="36.67859" lon="27.65507">
        <ele>297.328</ele>
        <time>2018-05-14T14:37:39Z</time>
      </trkpt>
      <trkpt lat="36.67858" lon="27.655">
        <ele>296.102</ele>
        <time>2018-05-14T14:37:43Z</time>
      </trkpt>
      <trkpt lat="36.67854" lon="27.65495">
        <ele>296.484</ele>
        <time>2018-05-14T14:37:48Z</time>
      </trkpt>
      <trkpt lat="36.6785" lon="27.65491">
        <ele>297.176</ele>
        <time>2018-05-14T14:37:55Z</time>
      </trkpt>
      <trkpt lat="36.67845" lon="27.6549">
        <ele>298.715</ele>
        <time>2018-05-14T14:37:59Z</time>
      </trkpt>
      <trkpt lat="36.6784" lon="27.65488">
        <ele>300.076</ele>
        <time>2018-05-14T14:38:03Z</time>
      </trkpt>
      <trkpt lat="36.67836" lon="27.65485">
        <ele>300.795</ele>
        <time>2018-05-14T14:38:09Z</time>
      </trkpt>
      <trkpt lat="36.67832" lon="27.65481">
        <ele>301.592</ele>
        <time>2018-05-14T14:38:16Z</time>
      </trkpt>
      <trkpt lat="36.67834" lon="27.65474">
        <ele>300.111</ele>
        <time>2018-05-14T14:38:32Z</time>
      </trkpt>
      <trkpt lat="36.67834" lon="27.65467">
        <ele>299.264</ele>
        <time>2018-05-14T14:38:36Z</time>
      </trkpt>
      <trkpt lat="36.67833" lon="27.65462">
        <ele>298.912</ele>
        <time>2018-05-14T14:38:45Z</time>
      </trkpt>
      <trkpt lat="36.67829" lon="27.65463">
        <ele>300.686</ele>
        <time>2018-05-14T14:39:10Z</time>
      </trkpt>
      <trkpt lat="36.67824" lon="27.65461">
        <ele>302.122</ele>
        <time>2018-05-14T14:39:16Z</time>
      </trkpt>
      <trkpt lat="36.67821" lon="27.65457">
        <ele>303.136</ele>
        <time>2018-05-14T14:39:20Z</time>
      </trkpt>
      <trkpt lat="36.67817" lon="27.65453">
        <ele>304.06</ele>
        <time>2018-05-14T14:39:28Z</time>
      </trkpt>
      <trkpt lat="36.67814" lon="27.65448">
        <ele>304.959</ele>
        <time>2018-05-14T14:39:33Z</time>
      </trkpt>
      <trkpt lat="36.67812" lon="27.65443">
        <ele>305.438</ele>
        <time>2018-05-14T14:39:37Z</time>
      </trkpt>
      <trkpt lat="36.67809" lon="27.65437">
        <ele>305.759</ele>
        <time>2018-05-14T14:39:41Z</time>
      </trkpt>
      <trkpt lat="36.67808" lon="27.65431">
        <ele>305.399</ele>
        <time>2018-05-14T14:39:44Z</time>
      </trkpt>
      <trkpt lat="36.67807" lon="27.65424">
        <ele>305.084</ele>
        <time>2018-05-14T14:39:48Z</time>
      </trkpt>
      <trkpt lat="36.67806" lon="27.65417">
        <ele>304.918</ele>
        <time>2018-05-14T14:39:52Z</time>
      </trkpt>
      <trkpt lat="36.67805" lon="27.6541">
        <ele>304.681</ele>
        <time>2018-05-14T14:39:57Z</time>
      </trkpt>
      <trkpt lat="36.67802" lon="27.65406">
        <ele>305.733</ele>
        <time>2018-05-14T14:40:01Z</time>
      </trkpt>
      <trkpt lat="36.67799" lon="27.654">
        <ele>306.738</ele>
        <time>2018-05-14T14:40:04Z</time>
      </trkpt>
      <trkpt lat="36.67796" lon="27.65394">
        <ele>307.559</ele>
        <time>2018-05-14T14:40:08Z</time>
      </trkpt>
      <trkpt lat="36.67797" lon="27.65388">
        <ele>307.062</ele>
        <time>2018-05-14T14:40:13Z</time>
      </trkpt>
      <trkpt lat="36.67796" lon="27.65382">
        <ele>307.819</ele>
        <time>2018-05-14T14:40:20Z</time>
      </trkpt>
      <trkpt lat="36.67795" lon="27.65376">
        <ele>308.8</ele>
        <time>2018-05-14T14:40:44Z</time>
      </trkpt>
      <trkpt lat="36.67793" lon="27.6537">
        <ele>310.303</ele>
        <time>2018-05-14T14:40:50Z</time>
      </trkpt>
      <trkpt lat="36.67792" lon="27.65364">
        <ele>311.502</ele>
        <time>2018-05-14T14:40:55Z</time>
      </trkpt>
      <trkpt lat="36.67792" lon="27.65357">
        <ele>312.059</ele>
        <time>2018-05-14T14:41:01Z</time>
      </trkpt>
      <trkpt lat="36.67794" lon="27.65351">
        <ele>311.677</ele>
        <time>2018-05-14T14:41:06Z</time>
      </trkpt>
      <trkpt lat="36.67795" lon="27.65346">
        <ele>311.382</ele>
        <time>2018-05-14T14:41:16Z</time>
      </trkpt>
      <trkpt lat="36.678" lon="27.65344">
        <ele>309.66</ele>
        <time>2018-05-14T14:41:36Z</time>
      </trkpt>
      <trkpt lat="36.67804" lon="27.65342">
        <ele>308.091</ele>
        <time>2018-05-14T14:41:48Z</time>
      </trkpt>
      <trkpt lat="36.67806" lon="27.65336">
        <ele>307.829</ele>
        <time>2018-05-14T14:41:55Z</time>
      </trkpt>
      <trkpt lat="36.67806" lon="27.6533">
        <ele>308.075</ele>
        <time>2018-05-14T14:41:59Z</time>
      </trkpt>
      <trkpt lat="36.67804" lon="27.65324">
        <ele>309.1</ele>
        <time>2018-05-14T14:42:07Z</time>
      </trkpt>
      <trkpt lat="36.67802" lon="27.65319">
        <ele>310.248</ele>
        <time>2018-05-14T14:42:14Z</time>
      </trkpt>
      <trkpt lat="36.67801" lon="27.65313">
        <ele>311.017</ele>
        <time>2018-05-14T14:42:20Z</time>
      </trkpt>
      <trkpt lat="36.67799" lon="27.65308">
        <ele>312.163</ele>
        <time>2018-05-14T14:42:25Z</time>
      </trkpt>
      <trkpt lat="36.67797" lon="27.65303">
        <ele>313.077</ele>
        <time>2018-05-14T14:42:29Z</time>
      </trkpt>
      <trkpt lat="36.67797" lon="27.65296">
        <ele>313.356</ele>
        <time>2018-05-14T14:42:33Z</time>
      </trkpt>
      <trkpt lat="36.67798" lon="27.65289">
        <ele>313.498</ele>
        <time>2018-05-14T14:42:39Z</time>
      </trkpt>
      <trkpt lat="36.67802" lon="27.65288">
        <ele>312.273</ele>
        <time>2018-05-14T14:43:23Z</time>
      </trkpt>
      <trkpt lat="36.67801" lon="27.65281">
        <ele>312.871</ele>
        <time>2018-05-14T14:43:41Z</time>
      </trkpt>
      <trkpt lat="36.67798" lon="27.65278">
        <ele>313.948</ele>
        <time>2018-05-14T14:43:46Z</time>
      </trkpt>
      <trkpt lat="36.67795" lon="27.65273">
        <ele>315.122</ele>
        <time>2018-05-14T14:43:51Z</time>
      </trkpt>
      <trkpt lat="36.67792" lon="27.65267">
        <ele>316.222</ele>
        <time>2018-05-14T14:43:55Z</time>
      </trkpt>
      <trkpt lat="36.6779" lon="27.65262">
        <ele>316.989</ele>
        <time>2018-05-14T14:43:59Z</time>
      </trkpt>
      <trkpt lat="36.67789" lon="27.65256">
        <ele>317.462</ele>
        <time>2018-05-14T14:44:03Z</time>
      </trkpt>
      <trkpt lat="36.67787" lon="27.65251">
        <ele>318.001</ele>
        <time>2018-05-14T14:44:37Z</time>
      </trkpt>
      <trkpt lat="36.6779" lon="27.65247">
        <ele>317.709</ele>
        <time>2018-05-14T14:48:56Z</time>
      </trkpt>
      <trkpt lat="36.67789" lon="27.65241">
        <ele>317.925</ele>
        <time>2018-05-14T14:50:03Z</time>
      </trkpt>
      <trkpt lat="36.67786" lon="27.65237">
        <ele>318.229</ele>
        <time>2018-05-14T14:50:08Z</time>
      </trkpt>
      <trkpt lat="36.67784" lon="27.65231">
        <ele>318.484</ele>
        <time>2018-05-14T14:50:12Z</time>
      </trkpt>
      <trkpt lat="36.67784" lon="27.65224">
        <ele>318.559</ele>
        <time>2018-05-14T14:51:10Z</time>
      </trkpt>
      <trkpt lat="36.67783" lon="27.65218">
        <ele>318.694</ele>
        <time>2018-05-14T14:51:16Z</time>
      </trkpt>
      <trkpt lat="36.67787" lon="27.65208">
        <ele>318.695</ele>
        <time>2018-05-14T15:21:20Z</time>
      </trkpt>
      <trkpt lat="36.67791" lon="27.65203">
        <ele>318.696</ele>
        <time>2018-05-14T15:21:25Z</time>
      </trkpt>
      <trkpt lat="36.67795" lon="27.652">
        <ele>318.767</ele>
        <time>2018-05-14T15:21:37Z</time>
      </trkpt>
      <trkpt lat="36.67798" lon="27.65196">
        <ele>318.911</ele>
        <time>2018-05-14T15:21:42Z</time>
      </trkpt>
      <trkpt lat="36.67802" lon="27.65192">
        <ele>318.919</ele>
        <time>2018-05-14T15:21:46Z</time>
      </trkpt>
      <trkpt lat="36.67806" lon="27.65188">
        <ele>318.765</ele>
        <time>2018-05-14T15:21:51Z</time>
      </trkpt>
      <trkpt lat="36.6781" lon="27.65184">
        <ele>318.718</ele>
        <time>2018-05-14T15:21:58Z</time>
      </trkpt>
      <trkpt lat="36.67811" lon="27.65178">
        <ele>318.647</ele>
        <time>2018-05-14T15:22:45Z</time>
      </trkpt>
      <trkpt lat="36.67813" lon="27.65173">
        <ele>318.648</ele>
        <time>2018-05-14T15:22:49Z</time>
      </trkpt>
      <trkpt lat="36.67815" lon="27.65168">
        <ele>318.712</ele>
        <time>2018-05-14T15:22:53Z</time>
      </trkpt>
      <trkpt lat="36.67817" lon="27.65162">
        <ele>318.631</ele>
        <time>2018-05-14T15:22:58Z</time>
      </trkpt>
      <trkpt lat="36.6782" lon="27.65157">
        <ele>318.66</ele>
        <time>2018-05-14T15:23:28Z</time>
      </trkpt>
      <trkpt lat="36.67819" lon="27.65151">
        <ele>318.372</ele>
        <time>2018-05-14T15:23:36Z</time>
      </trkpt>
      <trkpt lat="36.67823" lon="27.65153">
        <ele>318.757</ele>
        <time>2018-05-14T15:24:10Z</time>
      </trkpt>
      <trkpt lat="36.67824" lon="27.65148">
        <ele>318.671</ele>
        <time>2018-05-14T15:24:30Z</time>
      </trkpt>
      <trkpt lat="36.67825" lon="27.65145">
        <ele>318.609</ele>
        <time>2018-05-14T15:26:36Z</time>
      </trkpt>
      <trkpt lat="36.67822" lon="27.65141">
        <ele>318.235</ele>
        <time>2018-05-14T15:26:42Z</time>
      </trkpt>
      <trkpt lat="36.67819" lon="27.65135">
        <ele>317.763</ele>
        <time>2018-05-14T15:27:03Z</time>
      </trkpt>
      <trkpt lat="36.67816" lon="27.6513">
        <ele>317.201</ele>
        <time>2018-05-14T15:27:09Z</time>
      </trkpt>
      <trkpt lat="36.67813" lon="27.65124">
        <ele>316.558</ele>
        <time>2018-05-14T15:27:14Z</time>
      </trkpt>
      <trkpt lat="36.6781" lon="27.65118">
        <ele>315.943</ele>
        <time>2018-05-14T15:27:18Z</time>
      </trkpt>
      <trkpt lat="36.67808" lon="27.65113">
        <ele>315.37</ele>
        <time>2018-05-14T15:27:24Z</time>
      </trkpt>
      <trkpt lat="36.67807" lon="27.65107">
        <ele>314.75</ele>
        <time>2018-05-14T15:27:40Z</time>
      </trkpt>
      <trkpt lat="36.67807" lon="27.65101">
        <ele>314.171</ele>
        <time>2018-05-14T15:28:10Z</time>
      </trkpt>
      <trkpt lat="36.67804" lon="27.65097">
        <ele>313.262</ele>
        <time>2018-05-14T15:28:16Z</time>
      </trkpt>
      <trkpt lat="36.678" lon="27.65094">
        <ele>312.213</ele>
        <time>2018-05-14T15:28:22Z</time>
      </trkpt>
      <trkpt lat="36.67795" lon="27.65092">
        <ele>311.123</ele>
        <time>2018-05-14T15:28:29Z</time>
      </trkpt>
      <trkpt lat="36.67791" lon="27.65089">
        <ele>310.086</ele>
        <time>2018-05-14T15:28:33Z</time>
      </trkpt>
      <trkpt lat="36.67789" lon="27.65083">
        <ele>308.961</ele>
        <time>2018-05-14T15:28:37Z</time>
      </trkpt>
      <trkpt lat="36.67787" lon="27.65078">
        <ele>307.856</ele>
        <time>2018-05-14T15:28:43Z</time>
      </trkpt>
      <trkpt lat="36.67785" lon="27.65073">
        <ele>306.668</ele>
        <time>2018-05-14T15:28:50Z</time>
      </trkpt>
      <trkpt lat="36.67783" lon="27.65067">
        <ele>305.613</ele>
        <time>2018-05-14T15:29:36Z</time>
      </trkpt>
      <trkpt lat="36.6778" lon="27.65063">
        <ele>304.404</ele>
        <time>2018-05-14T15:29:43Z</time>
      </trkpt>
      <trkpt lat="36.67778" lon="27.65057">
        <ele>303.255</ele>
        <time>2018-05-14T15:29:48Z</time>
      </trkpt>
      <trkpt lat="36.67774" lon="27.65053">
        <ele>301.161</ele>
        <time>2018-05-14T15:29:54Z</time>
      </trkpt>
      <trkpt lat="36.67771" lon="27.65048">
        <ele>299.539</ele>
        <time>2018-05-14T15:29:59Z</time>
      </trkpt>
      <trkpt lat="36.67769" lon="27.65043">
        <ele>298.183</ele>
        <time>2018-05-14T15:30:11Z</time>
      </trkpt>
      <trkpt lat="36.67765" lon="27.65039">
        <ele>296.755</ele>
        <time>2018-05-14T15:30:31Z</time>
      </trkpt>
      <trkpt lat="36.67762" lon="27.65035">
        <ele>295.523</ele>
        <time>2018-05-14T15:30:40Z</time>
      </trkpt>
      <trkpt lat="36.6776" lon="27.65029">
        <ele>294.503</ele>
        <time>2018-05-14T15:30:46Z</time>
      </trkpt>
      <trkpt lat="36.67758" lon="27.65022">
        <ele>293.449</ele>
        <time>2018-05-14T15:30:51Z</time>
      </trkpt>
      <trkpt lat="36.67757" lon="27.65016">
        <ele>292.412</ele>
        <time>2018-05-14T15:30:56Z</time>
      </trkpt>
      <trkpt lat="36.67755" lon="27.6501">
        <ele>291.214</ele>
        <time>2018-05-14T15:31:02Z</time>
      </trkpt>
      <trkpt lat="36.67754" lon="27.65003">
        <ele>290.151</ele>
        <time>2018-05-14T15:31:08Z</time>
      </trkpt>
      <trkpt lat="36.67756" lon="27.64998">
        <ele>289.539</ele>
        <time>2018-05-14T15:31:42Z</time>
      </trkpt>
      <trkpt lat="36.67759" lon="27.64993">
        <ele>289.185</ele>
        <time>2018-05-14T15:31:49Z</time>
      </trkpt>
      <trkpt lat="36.67761" lon="27.64987">
        <ele>288.279</ele>
        <time>2018-05-14T15:31:55Z</time>
      </trkpt>
      <trkpt lat="36.67762" lon="27.64981">
        <ele>287.182</ele>
        <time>2018-05-14T15:31:59Z</time>
      </trkpt>
      <trkpt lat="36.67762" lon="27.64974">
        <ele>285.777</ele>
        <time>2018-05-14T15:32:03Z</time>
      </trkpt>
      <trkpt lat="36.67761" lon="27.64968">
        <ele>284.286</ele>
        <time>2018-05-14T15:32:08Z</time>
      </trkpt>
      <trkpt lat="36.67759" lon="27.64963">
        <ele>282.491</ele>
        <time>2018-05-14T15:32:46Z</time>
      </trkpt>
      <trkpt lat="36.67756" lon="27.64958">
        <ele>280.662</ele>
        <time>2018-05-14T15:32:52Z</time>
      </trkpt>
      <trkpt lat="36.67755" lon="27.64958">
        <ele>280.398</ele>
        <time>2018-05-14T15:33:29Z</time>
      </trkpt>
      <trkpt lat="36.67753" lon="27.64952">
        <ele>278.546</ele>
        <time>2018-05-14T15:33:34Z</time>
      </trkpt>
      <trkpt lat="36.67753" lon="27.64946">
        <ele>277.257</ele>
        <time>2018-05-14T15:33:37Z</time>
      </trkpt>
      <trkpt lat="36.67754" lon="27.6494">
        <ele>276.564</ele>
        <time>2018-05-14T15:33:43Z</time>
      </trkpt>
      <trkpt lat="36.67752" lon="27.64934">
        <ele>275.478</ele>
        <time>2018-05-14T15:33:50Z</time>
      </trkpt>
      <trkpt lat="36.67751" lon="27.64929">
        <ele>274.435</ele>
        <time>2018-05-14T15:34:12Z</time>
      </trkpt>
      <trkpt lat="36.67751" lon="27.64923">
        <ele>273.839</ele>
        <time>2018-05-14T15:34:35Z</time>
      </trkpt>
      <trkpt lat="36.6775" lon="27.64918">
        <ele>273.002</ele>
        <time>2018-05-14T15:34:43Z</time>
      </trkpt>
      <trkpt lat="36.67747" lon="27.64913">
        <ele>271.875</ele>
        <time>2018-05-14T15:34:53Z</time>
      </trkpt>
      <trkpt lat="36.67744" lon="27.64908">
        <ele>270.721</ele>
        <time>2018-05-14T15:35:08Z</time>
      </trkpt>
      <trkpt lat="36.67742" lon="27.64903">
        <ele>269.592</ele>
        <time>2018-05-14T15:35:13Z</time>
      </trkpt>
      <trkpt lat="36.67739" lon="27.64898">
        <ele>268.206</ele>
        <time>2018-05-14T15:35:19Z</time>
      </trkpt>
      <trkpt lat="36.67735" lon="27.64894">
        <ele>266.957</ele>
        <time>2018-05-14T15:35:23Z</time>
      </trkpt>
      <trkpt lat="36.67734" lon="27.64888">
        <ele>265.945</ele>
        <time>2018-05-14T15:35:52Z</time>
      </trkpt>
      <trkpt lat="36.67731" lon="27.64883">
        <ele>264.825</ele>
        <time>2018-05-14T15:35:56Z</time>
      </trkpt>
      <trkpt lat="36.67728" lon="27.64878">
        <ele>263.799</ele>
        <time>2018-05-14T15:36:00Z</time>
      </trkpt>
      <trkpt lat="36.67727" lon="27.64873">
        <ele>262.941</ele>
        <time>2018-05-14T15:36:04Z</time>
      </trkpt>
      <trkpt lat="36.67724" lon="27.64867">
        <ele>261.964</ele>
        <time>2018-05-14T15:36:08Z</time>
      </trkpt>
      <trkpt lat="36.67723" lon="27.64861">
        <ele>261.05</ele>
        <time>2018-05-14T15:36:13Z</time>
      </trkpt>
      <trkpt lat="36.67721" lon="27.64855">
        <ele>260.12</ele>
        <time>2018-05-14T15:36:18Z</time>
      </trkpt>
      <trkpt lat="36.67717" lon="27.64851">
        <ele>258.888</ele>
        <time>2018-05-14T15:36:24Z</time>
      </trkpt>
      <trkpt lat="36.67715" lon="27.64846">
        <ele>257.82</ele>
        <time>2018-05-14T15:36:29Z</time>
      </trkpt>
      <trkpt lat="36.67713" lon="27.6484">
        <ele>256.814</ele>
        <time>2018-05-14T15:36:37Z</time>
      </trkpt>
      <trkpt lat="36.67711" lon="27.64835">
        <ele>255.779</ele>
        <time>2018-05-14T15:38:05Z</time>
      </trkpt>
      <trkpt lat="36.67707" lon="27.64831">
        <ele>254.31</ele>
        <time>2018-05-14T15:38:32Z</time>
      </trkpt>
      <trkpt lat="36.67703" lon="27.64829">
        <ele>252.925</ele>
        <time>2018-05-14T15:38:40Z</time>
      </trkpt>
      <trkpt lat="36.67698" lon="27.64827">
        <ele>251.598</ele>
        <time>2018-05-14T15:38:45Z</time>
      </trkpt>
      <trkpt lat="36.67694" lon="27.64825">
        <ele>250.373</ele>
        <time>2018-05-14T15:38:49Z</time>
      </trkpt>
      <trkpt lat="36.6769" lon="27.64828">
        <ele>249.687</ele>
        <time>2018-05-14T15:39:04Z</time>
      </trkpt>
      <trkpt lat="36.67687" lon="27.64823">
        <ele>247.828</ele>
        <time>2018-05-14T15:39:10Z</time>
      </trkpt>
      <trkpt lat="36.67684" lon="27.64819">
        <ele>246.1</ele>
        <time>2018-05-14T15:39:14Z</time>
      </trkpt>
      <trkpt lat="36.67689" lon="27.64816">
        <ele>247.185</ele>
        <time>2018-05-14T15:39:33Z</time>
      </trkpt>
      <trkpt lat="36.67691" lon="27.64811">
        <ele>246.761</ele>
        <time>2018-05-14T15:39:43Z</time>
      </trkpt>
      <trkpt lat="36.67689" lon="27.64805">
        <ele>245.053</ele>
        <time>2018-05-14T15:39:50Z</time>
      </trkpt>
      <trkpt lat="36.67693" lon="27.64801">
        <ele>244.417</ele>
        <time>2018-05-14T15:40:12Z</time>
      </trkpt>
      <trkpt lat="36.67698" lon="27.648">
        <ele>244.998</ele>
        <time>2018-05-14T15:40:24Z</time>
      </trkpt>
      <trkpt lat="36.67703" lon="27.64799">
        <ele>245.205</ele>
        <time>2018-05-14T15:40:29Z</time>
      </trkpt>
      <trkpt lat="36.67708" lon="27.64796">
        <ele>244.659</ele>
        <time>2018-05-14T15:40:34Z</time>
      </trkpt>
      <trkpt lat="36.67712" lon="27.64793">
        <ele>243.823</ele>
        <time>2018-05-14T15:40:52Z</time>
      </trkpt>
      <trkpt lat="36.67709" lon="27.64788">
        <ele>241.596</ele>
        <time>2018-05-14T15:41:07Z</time>
      </trkpt>
      <trkpt lat="36.67714" lon="27.64789">
        <ele>242.578</ele>
        <time>2018-05-14T15:41:13Z</time>
      </trkpt>
      <trkpt lat="36.67719" lon="27.64788">
        <ele>243.233</ele>
        <time>2018-05-14T15:41:17Z</time>
      </trkpt>
      <trkpt lat="36.67723" lon="27.64785">
        <ele>242.669</ele>
        <time>2018-05-14T15:41:21Z</time>
      </trkpt>
      <trkpt lat="36.67727" lon="27.64782">
        <ele>241.315</ele>
        <time>2018-05-14T15:41:27Z</time>
      </trkpt>
      <trkpt lat="36.67731" lon="27.64777">
        <ele>239.818</ele>
        <time>2018-05-14T15:41:31Z</time>
      </trkpt>
      <trkpt lat="36.67737" lon="27.64776">
        <ele>239.311</ele>
        <time>2018-05-14T15:41:35Z</time>
      </trkpt>
      <trkpt lat="36.67742" lon="27.64777">
        <ele>239.512</ele>
        <time>2018-05-14T15:41:40Z</time>
      </trkpt>
      <trkpt lat="36.67746" lon="27.64775">
        <ele>238.819</ele>
        <time>2018-05-14T15:42:24Z</time>
      </trkpt>
      <trkpt lat="36.67749" lon="27.6477">
        <ele>236.611</ele>
        <time>2018-05-14T15:42:37Z</time>
      </trkpt>
      <trkpt lat="36.67753" lon="27.64767">
        <ele>235.092</ele>
        <time>2018-05-14T15:42:44Z</time>
      </trkpt>
      <trkpt lat="36.67752" lon="27.64761">
        <ele>232.648</ele>
        <time>2018-05-14T15:42:57Z</time>
      </trkpt>
      <trkpt lat="36.67752" lon="27.64756">
        <ele>230.28</ele>
        <time>2018-05-14T15:43:09Z</time>
      </trkpt>
      <trkpt lat="36.6775" lon="27.64751">
        <ele>228.202</ele>
        <time>2018-05-14T15:43:35Z</time>
      </trkpt>
      <trkpt lat="36.6775" lon="27.64751">
        <ele>228.297</ele>
        <time>2018-05-14T15:45:21Z</time>
      </trkpt>
      <trkpt lat="36.67755" lon="27.64749">
        <ele>227.049</ele>
        <time>2018-05-14T15:45:57Z</time>
      </trkpt>
      <trkpt lat="36.67759" lon="27.64748">
        <ele>226.429</ele>
        <time>2018-05-14T15:46:58Z</time>
      </trkpt>
      <trkpt lat="36.67762" lon="27.64743">
        <ele>223.855</ele>
        <time>2018-05-14T15:47:08Z</time>
      </trkpt>
      <trkpt lat="36.67766" lon="27.64743">
        <ele>223.691</ele>
        <time>2018-05-14T15:47:25Z</time>
      </trkpt>
      <trkpt lat="36.67772" lon="27.64745">
        <ele>223.942</ele>
        <time>2018-05-14T15:47:29Z</time>
      </trkpt>
      <trkpt lat="36.67777" lon="27.64745">
        <ele>223.774</ele>
        <time>2018-05-14T15:47:33Z</time>
      </trkpt>
      <trkpt lat="36.67783" lon="27.64745">
        <ele>223.702</ele>
        <time>2018-05-14T15:47:37Z</time>
      </trkpt>
      <trkpt lat="36.67788" lon="27.64746">
        <ele>224.051</ele>
        <time>2018-05-14T15:47:41Z</time>
      </trkpt>
      <trkpt lat="36.67792" lon="27.64747">
        <ele>224.071</ele>
        <time>2018-05-14T15:47:45Z</time>
      </trkpt>
      <trkpt lat="36.67797" lon="27.64747">
        <ele>224.089</ele>
        <time>2018-05-14T15:47:55Z</time>
      </trkpt>
      <trkpt lat="36.67802" lon="27.64745">
        <ele>223.284</ele>
        <time>2018-05-14T15:48:13Z</time>
      </trkpt>
      <trkpt lat="36.67806" lon="27.64743">
        <ele>222.006</ele>
        <time>2018-05-14T15:48:26Z</time>
      </trkpt>
      <trkpt lat="36.67809" lon="27.64738">
        <ele>220.152</ele>
        <time>2018-05-14T15:48:54Z</time>
      </trkpt>
      <trkpt lat="36.67814" lon="27.64741">
        <ele>221.018</ele>
        <time>2018-05-14T15:49:15Z</time>
      </trkpt>
      <trkpt lat="36.67819" lon="27.6474">
        <ele>220.397</ele>
        <time>2018-05-14T15:49:21Z</time>
      </trkpt>
      <trkpt lat="36.67823" lon="27.64737">
        <ele>219.213</ele>
        <time>2018-05-14T15:49:27Z</time>
      </trkpt>
      <trkpt lat="36.67827" lon="27.64733">
        <ele>217.623</ele>
        <time>2018-05-14T15:49:32Z</time>
      </trkpt>
      <trkpt lat="36.6783" lon="27.64729">
        <ele>215.812</ele>
        <time>2018-05-14T15:49:44Z</time>
      </trkpt>
      <trkpt lat="36.67832" lon="27.64727">
        <ele>214.849</ele>
        <time>2018-05-14T15:50:17Z</time>
      </trkpt>
      <trkpt lat="36.67837" lon="27.64724">
        <ele>214.049</ele>
        <time>2018-05-14T15:50:21Z</time>
      </trkpt>
      <trkpt lat="36.67841" lon="27.64721">
        <ele>213.527</ele>
        <time>2018-05-14T15:50:25Z</time>
      </trkpt>
      <trkpt lat="36.67846" lon="27.64718">
        <ele>212.8</ele>
        <time>2018-05-14T15:50:29Z</time>
      </trkpt>
      <trkpt lat="36.67849" lon="27.64713">
        <ele>210.81</ele>
        <time>2018-05-14T15:50:33Z</time>
      </trkpt>
      <trkpt lat="36.67852" lon="27.64707">
        <ele>208.753</ele>
        <time>2018-05-14T15:50:39Z</time>
      </trkpt>
      <trkpt lat="36.67856" lon="27.64703">
        <ele>207.056</ele>
        <time>2018-05-14T15:51:03Z</time>
      </trkpt>
      <trkpt lat="36.67859" lon="27.64698">
        <ele>205.24</ele>
        <time>2018-05-14T15:51:09Z</time>
      </trkpt>
      <trkpt lat="36.67862" lon="27.64692">
        <ele>202.746</ele>
        <time>2018-05-14T15:51:16Z</time>
      </trkpt>
      <trkpt lat="36.67867" lon="27.64691">
        <ele>201.776</ele>
        <time>2018-05-14T15:51:20Z</time>
      </trkpt>
      <trkpt lat="36.67871" lon="27.64691">
        <ele>201.876</ele>
        <time>2018-05-14T15:51:23Z</time>
      </trkpt>
      <trkpt lat="36.67876" lon="27.64692">
        <ele>202.148</ele>
        <time>2018-05-14T15:51:27Z</time>
      </trkpt>
      <trkpt lat="36.67881" lon="27.64691">
        <ele>201.794</ele>
        <time>2018-05-14T15:51:33Z</time>
      </trkpt>
      <trkpt lat="36.67886" lon="27.64692">
        <ele>201.973</ele>
        <time>2018-05-14T15:51:39Z</time>
      </trkpt>
      <trkpt lat="36.67891" lon="27.64693">
        <ele>201.957</ele>
        <time>2018-05-14T15:51:44Z</time>
      </trkpt>
      <trkpt lat="36.67896" lon="27.64695">
        <ele>201.839</ele>
        <time>2018-05-14T15:51:48Z</time>
      </trkpt>
      <trkpt lat="36.679" lon="27.64697">
        <ele>202.221</ele>
        <time>2018-05-14T15:51:51Z</time>
      </trkpt>
      <trkpt lat="36.67905" lon="27.64699">
        <ele>202.335</ele>
        <time>2018-05-14T15:51:55Z</time>
      </trkpt>
      <trkpt lat="36.67908" lon="27.64695">
        <ele>199.591</ele>
        <time>2018-05-14T15:52:06Z</time>
      </trkpt>
      <trkpt lat="36.67903" lon="27.64694">
        <ele>200.21</ele>
        <time>2018-05-14T15:52:19Z</time>
      </trkpt>
      <trkpt lat="36.6791" lon="27.64693">
        <ele>198.552</ele>
        <time>2018-05-14T15:52:41Z</time>
      </trkpt>
      <trkpt lat="36.67915" lon="27.64694">
        <ele>198.134</ele>
        <time>2018-05-14T15:52:43Z</time>
      </trkpt>
      <trkpt lat="36.67921" lon="27.64696">
        <ele>198.074</ele>
        <time>2018-05-14T15:52:46Z</time>
      </trkpt>
      <trkpt lat="36.67926" lon="27.64694">
        <ele>196.64</ele>
        <time>2018-05-14T15:52:49Z</time>
      </trkpt>
      <trkpt lat="36.67931" lon="27.64695">
        <ele>196.29</ele>
        <time>2018-05-14T15:52:51Z</time>
      </trkpt>
      <trkpt lat="36.67936" lon="27.64695">
        <ele>195.559</ele>
        <time>2018-05-14T15:52:54Z</time>
      </trkpt>
      <trkpt lat="36.67941" lon="27.64695">
        <ele>194.522</ele>
        <time>2018-05-14T15:52:58Z</time>
      </trkpt>
      <trkpt lat="36.67946" lon="27.64694">
        <ele>194.106</ele>
        <time>2018-05-14T15:53:15Z</time>
      </trkpt>
      <trkpt lat="36.6795" lon="27.64689">
        <ele>193.564</ele>
        <time>2018-05-14T15:53:18Z</time>
      </trkpt>
      <trkpt lat="36.67954" lon="27.64685">
        <ele>193.401</ele>
        <time>2018-05-14T15:53:22Z</time>
      </trkpt>
      <trkpt lat="36.67957" lon="27.6468">
        <ele>192.963</ele>
        <time>2018-05-14T15:53:26Z</time>
      </trkpt>
      <trkpt lat="36.67957" lon="27.64674">
        <ele>191.995</ele>
        <time>2018-05-14T15:53:36Z</time>
      </trkpt>
      <trkpt lat="36.67961" lon="27.64671">
        <ele>192.748</ele>
        <time>2018-05-14T15:53:43Z</time>
      </trkpt>
      <trkpt lat="36.67965" lon="27.64667">
        <ele>193.43</ele>
        <time>2018-05-14T15:53:49Z</time>
      </trkpt>
      <trkpt lat="36.67968" lon="27.64663">
        <ele>194.853</ele>
        <time>2018-05-14T15:54:01Z</time>
      </trkpt>
      <trkpt lat="36.67971" lon="27.64658">
        <ele>196.235</ele>
        <time>2018-05-14T15:54:19Z</time>
      </trkpt>
      <trkpt lat="36.67975" lon="27.64654">
        <ele>197.795</ele>
        <time>2018-05-14T15:54:33Z</time>
      </trkpt>
      <trkpt lat="36.67975" lon="27.64648">
        <ele>198.247</ele>
        <time>2018-05-14T15:54:52Z</time>
      </trkpt>
      <trkpt lat="36.67972" lon="27.64644">
        <ele>197.4</ele>
        <time>2018-05-14T15:55:00Z</time>
      </trkpt>
      <trkpt lat="36.67968" lon="27.6464">
        <ele>196.27</ele>
        <time>2018-05-14T15:55:04Z</time>
      </trkpt>
      <trkpt lat="36.67965" lon="27.64634">
        <ele>196.2</ele>
        <time>2018-05-14T15:55:09Z</time>
      </trkpt>
      <trkpt lat="36.67963" lon="27.64629">
        <ele>196.653</ele>
        <time>2018-05-14T15:55:15Z</time>
      </trkpt>
      <trkpt lat="36.6796" lon="27.64625">
        <ele>196.15</ele>
        <time>2018-05-14T15:55:26Z</time>
      </trkpt>
      <trkpt lat="36.67956" lon="27.64621">
        <ele>195.749</ele>
        <time>2018-05-14T15:55:34Z</time>
      </trkpt>
      <trkpt lat="36.67953" lon="27.64617">
        <ele>195.383</ele>
        <time>2018-05-14T15:55:53Z</time>
      </trkpt>
      <trkpt lat="36.6795" lon="27.64613">
        <ele>195.223</ele>
        <time>2018-05-14T15:55:57Z</time>
      </trkpt>
      <trkpt lat="36.67946" lon="27.64609">
        <ele>194.851</ele>
        <time>2018-05-14T15:56:03Z</time>
      </trkpt>
      <trkpt lat="36.67941" lon="27.64606">
        <ele>193.584</ele>
        <time>2018-05-14T15:56:09Z</time>
      </trkpt>
      <trkpt lat="36.67938" lon="27.64601">
        <ele>193.004</ele>
        <time>2018-05-14T15:56:14Z</time>
      </trkpt>
      <trkpt lat="36.67935" lon="27.64596">
        <ele>192.688</ele>
        <time>2018-05-14T15:56:28Z</time>
      </trkpt>
      <trkpt lat="36.67934" lon="27.64591">
        <ele>193.189</ele>
        <time>2018-05-14T15:56:43Z</time>
      </trkpt>
      <trkpt lat="36.6793" lon="27.64587">
        <ele>192.365</ele>
        <time>2018-05-14T15:56:46Z</time>
      </trkpt>
      <trkpt lat="36.67926" lon="27.64584">
        <ele>191.187</ele>
        <time>2018-05-14T15:56:50Z</time>
      </trkpt>
      <trkpt lat="36.67922" lon="27.6458">
        <ele>190.349</ele>
        <time>2018-05-14T15:56:57Z</time>
      </trkpt>
      <trkpt lat="36.67918" lon="27.64575">
        <ele>189.444</ele>
        <time>2018-05-14T15:57:01Z</time>
      </trkpt>
      <trkpt lat="36.67914" lon="27.6457">
        <ele>188.288</ele>
        <time>2018-05-14T15:57:04Z</time>
      </trkpt>
      <trkpt lat="36.67912" lon="27.64566">
        <ele>187.602</ele>
        <time>2018-05-14T15:57:07Z</time>
      </trkpt>
      <trkpt lat="36.67911" lon="27.64559">
        <ele>188.101</ele>
        <time>2018-05-14T15:57:11Z</time>
      </trkpt>
      <trkpt lat="36.67907" lon="27.64555">
        <ele>186.563</ele>
        <time>2018-05-14T15:57:37Z</time>
      </trkpt>
      <trkpt lat="36.67903" lon="27.64552">
        <ele>185.174</ele>
        <time>2018-05-14T15:57:41Z</time>
      </trkpt>
      <trkpt lat="36.67899" lon="27.64548">
        <ele>184.209</ele>
        <time>2018-05-14T15:57:45Z</time>
      </trkpt>
      <trkpt lat="36.67896" lon="27.64543">
        <ele>183.501</ele>
        <time>2018-05-14T15:57:49Z</time>
      </trkpt>
      <trkpt lat="36.67893" lon="27.64539">
        <ele>182.352</ele>
        <time>2018-05-14T15:57:53Z</time>
      </trkpt>
      <trkpt lat="36.67889" lon="27.64535">
        <ele>181.106</ele>
        <time>2018-05-14T15:57:56Z</time>
      </trkpt>
      <trkpt lat="36.67885" lon="27.6453">
        <ele>179.905</ele>
        <time>2018-05-14T15:58:00Z</time>
      </trkpt>
      <trkpt lat="36.67881" lon="27.64526">
        <ele>178.596</ele>
        <time>2018-05-14T15:58:04Z</time>
      </trkpt>
      <trkpt lat="36.67877" lon="27.64523">
        <ele>177.331</ele>
        <time>2018-05-14T15:58:10Z</time>
      </trkpt>
      <trkpt lat="36.67872" lon="27.64521">
        <ele>175.467</ele>
        <time>2018-05-14T15:58:18Z</time>
      </trkpt>
      <trkpt lat="36.67869" lon="27.64516">
        <ele>174.826</ele>
        <time>2018-05-14T15:58:36Z</time>
      </trkpt>
      <trkpt lat="36.67868" lon="27.6451">
        <ele>175.338</ele>
        <time>2018-05-14T15:58:41Z</time>
      </trkpt>
      <trkpt lat="36.67864" lon="27.64506">
        <ele>174.28</ele>
        <time>2018-05-14T15:58:48Z</time>
      </trkpt>
      <trkpt lat="36.67859" lon="27.64506">
        <ele>171.886</ele>
        <time>2018-05-14T15:59:33Z</time>
      </trkpt>
      <trkpt lat="36.67855" lon="27.64502">
        <ele>169.44</ele>
        <time>2018-05-14T15:59:37Z</time>
      </trkpt>
      <trkpt lat="36.67851" lon="27.64497">
        <ele>167.905</ele>
        <time>2018-05-14T15:59:41Z</time>
      </trkpt>
      <trkpt lat="36.67848" lon="27.64493">
        <ele>166.237</ele>
        <time>2018-05-14T15:59:46Z</time>
      </trkpt>
      <trkpt lat="36.67844" lon="27.64489">
        <ele>163.937</ele>
        <time>2018-05-14T15:59:51Z</time>
      </trkpt>
      <trkpt lat="36.6784" lon="27.64485">
        <ele>162.362</ele>
        <time>2018-05-14T15:59:57Z</time>
      </trkpt>
      <trkpt lat="36.67837" lon="27.6448">
        <ele>160.744</ele>
        <time>2018-05-14T16:00:03Z</time>
      </trkpt>
      <trkpt lat="36.67833" lon="27.64477">
        <ele>158.503</ele>
        <time>2018-05-14T16:00:11Z</time>
      </trkpt>
      <trkpt lat="36.6783" lon="27.64472">
        <ele>157.517</ele>
        <time>2018-05-14T16:00:16Z</time>
      </trkpt>
      <trkpt lat="36.67829" lon="27.64467">
        <ele>157.23</ele>
        <time>2018-05-14T16:00:25Z</time>
      </trkpt>
      <trkpt lat="36.67824" lon="27.6447">
        <ele>154.767</ele>
        <time>2018-05-14T16:01:53Z</time>
      </trkpt>
      <trkpt lat="36.67822" lon="27.64464">
        <ele>154.095</ele>
        <time>2018-05-14T16:02:18Z</time>
      </trkpt>
      <trkpt lat="36.67817" lon="27.6446">
        <ele>152.262</ele>
        <time>2018-05-14T16:02:24Z</time>
      </trkpt>
      <trkpt lat="36.67813" lon="27.64456">
        <ele>150.606</ele>
        <time>2018-05-14T16:02:28Z</time>
      </trkpt>
      <trkpt lat="36.6781" lon="27.6445">
        <ele>149.7</ele>
        <time>2018-05-14T16:02:32Z</time>
      </trkpt>
      <trkpt lat="36.67807" lon="27.64445">
        <ele>148.72</ele>
        <time>2018-05-14T16:02:36Z</time>
      </trkpt>
      <trkpt lat="36.67804" lon="27.64441">
        <ele>147.098</ele>
        <time>2018-05-14T16:02:40Z</time>
      </trkpt>
      <trkpt lat="36.678" lon="27.64439">
        <ele>144.793</ele>
        <time>2018-05-14T16:02:59Z</time>
      </trkpt>
      <trkpt lat="36.67798" lon="27.64432">
        <ele>143.855</ele>
        <time>2018-05-14T16:03:16Z</time>
      </trkpt>
      <trkpt lat="36.67797" lon="27.64426">
        <ele>142.945</ele>
        <time>2018-05-14T16:03:21Z</time>
      </trkpt>
      <trkpt lat="36.67796" lon="27.6442">
        <ele>142.589</ele>
        <time>2018-05-14T16:03:24Z</time>
      </trkpt>
      <trkpt lat="36.67795" lon="27.64414">
        <ele>141.758</ele>
        <time>2018-05-14T16:03:28Z</time>
      </trkpt>
      <trkpt lat="36.67794" lon="27.64408">
        <ele>140.822</ele>
        <time>2018-05-14T16:03:33Z</time>
      </trkpt>
      <trkpt lat="36.67793" lon="27.64401">
        <ele>139.78</ele>
        <time>2018-05-14T16:03:37Z</time>
      </trkpt>
      <trkpt lat="36.67791" lon="27.64396">
        <ele>138.221</ele>
        <time>2018-05-14T16:03:40Z</time>
      </trkpt>
      <trkpt lat="36.67788" lon="27.64389">
        <ele>136.412</ele>
        <time>2018-05-14T16:03:44Z</time>
      </trkpt>
      <trkpt lat="36.67786" lon="27.64383">
        <ele>134.895</ele>
        <time>2018-05-14T16:03:48Z</time>
      </trkpt>
      <trkpt lat="36.67785" lon="27.64377">
        <ele>133.902</ele>
        <time>2018-05-14T16:03:53Z</time>
      </trkpt>
      <trkpt lat="36.67784" lon="27.64371">
        <ele>133.04</ele>
        <time>2018-05-14T16:04:02Z</time>
      </trkpt>
      <trkpt lat="36.67784" lon="27.64366">
        <ele>132.847</ele>
        <time>2018-05-14T16:04:14Z</time>
      </trkpt>
      <trkpt lat="36.67784" lon="27.6436">
        <ele>132.317</ele>
        <time>2018-05-14T16:04:45Z</time>
      </trkpt>
      <trkpt lat="36.67787" lon="27.64354">
        <ele>132.963</ele>
        <time>2018-05-14T16:04:51Z</time>
      </trkpt>
      <trkpt lat="36.67787" lon="27.64349">
        <ele>132.854</ele>
        <time>2018-05-14T16:04:55Z</time>
      </trkpt>
      <trkpt lat="36.67787" lon="27.64342">
        <ele>132.08</ele>
        <time>2018-05-14T16:05:00Z</time>
      </trkpt>
      <trkpt lat="36.67787" lon="27.64336">
        <ele>131.15</ele>
        <time>2018-05-14T16:05:04Z</time>
      </trkpt>
      <trkpt lat="36.67786" lon="27.64331">
        <ele>130.031</ele>
        <time>2018-05-14T16:05:10Z</time>
      </trkpt>
      <trkpt lat="36.67786" lon="27.64324">
        <ele>129.322</ele>
        <time>2018-05-14T16:05:15Z</time>
      </trkpt>
      <trkpt lat="36.67786" lon="27.64318">
        <ele>128.507</ele>
        <time>2018-05-14T16:05:19Z</time>
      </trkpt>
      <trkpt lat="36.67786" lon="27.64313">
        <ele>127.734</ele>
        <time>2018-05-14T16:05:23Z</time>
      </trkpt>
      <trkpt lat="36.67786" lon="27.64307">
        <ele>126.895</ele>
        <time>2018-05-14T16:05:27Z</time>
      </trkpt>
      <trkpt lat="36.67786" lon="27.64301">
        <ele>125.865</ele>
        <time>2018-05-14T16:05:31Z</time>
      </trkpt>
      <trkpt lat="36.67783" lon="27.64296">
        <ele>123.807</ele>
        <time>2018-05-14T16:05:58Z</time>
      </trkpt>
      <trkpt lat="36.67781" lon="27.64289">
        <ele>122.175</ele>
        <time>2018-05-14T16:06:04Z</time>
      </trkpt>
      <trkpt lat="36.67779" lon="27.64283">
        <ele>120.431</ele>
        <time>2018-05-14T16:06:09Z</time>
      </trkpt>
      <trkpt lat="36.67782" lon="27.64277">
        <ele>120.348</ele>
        <time>2018-05-14T16:06:15Z</time>
      </trkpt>
      <trkpt lat="36.67783" lon="27.6427">
        <ele>120.094</ele>
        <time>2018-05-14T16:06:19Z</time>
      </trkpt>
      <trkpt lat="36.67784" lon="27.64264">
        <ele>119.509</ele>
        <time>2018-05-14T16:06:23Z</time>
      </trkpt>
      <trkpt lat="36.67785" lon="27.64257">
        <ele>119.161</ele>
        <time>2018-05-14T16:06:28Z</time>
      </trkpt>
      <trkpt lat="36.67786" lon="27.64252">
        <ele>118.851</ele>
        <time>2018-05-14T16:06:33Z</time>
      </trkpt>
      <trkpt lat="36.67786" lon="27.64245">
        <ele>118.408</ele>
        <time>2018-05-14T16:06:39Z</time>
      </trkpt>
      <trkpt lat="36.67785" lon="27.64239">
        <ele>118.032</ele>
        <time>2018-05-14T16:06:43Z</time>
      </trkpt>
      <trkpt lat="36.67785" lon="27.64233">
        <ele>117.677</ele>
        <time>2018-05-14T16:06:47Z</time>
      </trkpt>
      <trkpt lat="36.67785" lon="27.64227">
        <ele>117.652</ele>
        <time>2018-05-14T16:06:52Z</time>
      </trkpt>
      <trkpt lat="36.67784" lon="27.64221">
        <ele>117.35</ele>
        <time>2018-05-14T16:07:29Z</time>
      </trkpt>
      <trkpt lat="36.67786" lon="27.64214">
        <ele>117.448</ele>
        <time>2018-05-14T16:07:38Z</time>
      </trkpt>
      <trkpt lat="36.67788" lon="27.64209">
        <ele>117.95</ele>
        <time>2018-05-14T16:07:41Z</time>
      </trkpt>
      <trkpt lat="36.67792" lon="27.64204">
        <ele>118.715</ele>
        <time>2018-05-14T16:07:46Z</time>
      </trkpt>
      <trkpt lat="36.67795" lon="27.64198">
        <ele>119.141</ele>
        <time>2018-05-14T16:07:50Z</time>
      </trkpt>
      <trkpt lat="36.67797" lon="27.64192">
        <ele>118.578</ele>
        <time>2018-05-14T16:07:53Z</time>
      </trkpt>
      <trkpt lat="36.67799" lon="27.64186">
        <ele>117.902</ele>
        <time>2018-05-14T16:07:56Z</time>
      </trkpt>
      <trkpt lat="36.67801" lon="27.64181">
        <ele>117.475</ele>
        <time>2018-05-14T16:08:01Z</time>
      </trkpt>
      <trkpt lat="36.67805" lon="27.64178">
        <ele>118.003</ele>
        <time>2018-05-14T16:08:06Z</time>
      </trkpt>
      <trkpt lat="36.67811" lon="27.64179">
        <ele>118.748</ele>
        <time>2018-05-14T16:08:11Z</time>
      </trkpt>
      <trkpt lat="36.67816" lon="27.6418">
        <ele>119.567</ele>
        <time>2018-05-14T16:08:16Z</time>
      </trkpt>
      <trkpt lat="36.6782" lon="27.64179">
        <ele>120.024</ele>
        <time>2018-05-14T16:08:21Z</time>
      </trkpt>
      <trkpt lat="36.67826" lon="27.64179">
        <ele>120.714</ele>
        <time>2018-05-14T16:08:26Z</time>
      </trkpt>
      <trkpt lat="36.67831" lon="27.64177">
        <ele>120.715</ele>
        <time>2018-05-14T16:08:30Z</time>
      </trkpt>
      <trkpt lat="36.67835" lon="27.64174">
        <ele>120.127</ele>
        <time>2018-05-14T16:08:33Z</time>
      </trkpt>
      <trkpt lat="36.67839" lon="27.64171">
        <ele>119.555</ele>
        <time>2018-05-14T16:08:37Z</time>
      </trkpt>
      <trkpt lat="36.67842" lon="27.64166">
        <ele>118.512</ele>
        <time>2018-05-14T16:08:48Z</time>
      </trkpt>
      <trkpt lat="36.67848" lon="27.64166">
        <ele>118.886</ele>
        <time>2018-05-14T16:10:14Z</time>
      </trkpt>
      <trkpt lat="36.67852" lon="27.64165">
        <ele>118.754</ele>
        <time>2018-05-14T16:10:19Z</time>
      </trkpt>
      <trkpt lat="36.67856" lon="27.64162">
        <ele>118.376</ele>
        <time>2018-05-14T16:10:23Z</time>
      </trkpt>
      <trkpt lat="36.67859" lon="27.64158">
        <ele>117.577</ele>
        <time>2018-05-14T16:10:27Z</time>
      </trkpt>
      <trkpt lat="36.67864" lon="27.64154">
        <ele>117.365</ele>
        <time>2018-05-14T16:10:31Z</time>
      </trkpt>
      <trkpt lat="36.67867" lon="27.6415">
        <ele>116.955</ele>
        <time>2018-05-14T16:10:34Z</time>
      </trkpt>
      <trkpt lat="36.67871" lon="27.64146">
        <ele>116.74</ele>
        <time>2018-05-14T16:10:39Z</time>
      </trkpt>
      <trkpt lat="36.67876" lon="27.64145">
        <ele>117.482</ele>
        <time>2018-05-14T16:10:51Z</time>
      </trkpt>
      <trkpt lat="36.67876" lon="27.64138">
        <ele>116.255</ele>
        <time>2018-05-14T16:11:18Z</time>
      </trkpt>
      <trkpt lat="36.67875" lon="27.64133">
        <ele>115.81</ele>
        <time>2018-05-14T16:11:22Z</time>
      </trkpt>
      <trkpt lat="36.6787" lon="27.6413">
        <ele>114.601</ele>
        <time>2018-05-14T16:11:27Z</time>
      </trkpt>
      <trkpt lat="36.67869" lon="27.64124">
        <ele>113.96</ele>
        <time>2018-05-14T16:11:34Z</time>
      </trkpt>
      <trkpt lat="36.67866" lon="27.6412">
        <ele>112.653</ele>
        <time>2018-05-14T16:11:41Z</time>
      </trkpt>
      <trkpt lat="36.67863" lon="27.64116">
        <ele>111.013</ele>
        <time>2018-05-14T16:11:47Z</time>
      </trkpt>
      <trkpt lat="36.67859" lon="27.64112">
        <ele>109.593</ele>
        <time>2018-05-14T16:11:50Z</time>
      </trkpt>
      <trkpt lat="36.67856" lon="27.64108">
        <ele>109.2</ele>
        <time>2018-05-14T16:11:54Z</time>
      </trkpt>
      <trkpt lat="36.67854" lon="27.64102">
        <ele>109.427</ele>
        <time>2018-05-14T16:11:59Z</time>
      </trkpt>
      <trkpt lat="36.67849" lon="27.64102">
        <ele>107.905</ele>
        <time>2018-05-14T16:12:12Z</time>
      </trkpt>
      <trkpt lat="36.67846" lon="27.64099">
        <ele>107.06</ele>
        <time>2018-05-14T16:12:42Z</time>
      </trkpt>
      <trkpt lat="36.67846" lon="27.64092">
        <ele>107.841</ele>
        <time>2018-05-14T16:12:47Z</time>
      </trkpt>
      <trkpt lat="36.67847" lon="27.64085">
        <ele>108.561</ele>
        <time>2018-05-14T16:12:51Z</time>
      </trkpt>
      <trkpt lat="36.67846" lon="27.64079">
        <ele>108.975</ele>
        <time>2018-05-14T16:12:54Z</time>
      </trkpt>
      <trkpt lat="36.67841" lon="27.64075">
        <ele>107.578</ele>
        <time>2018-05-14T16:12:58Z</time>
      </trkpt>
      <trkpt lat="36.67836" lon="27.64073">
        <ele>105.51</ele>
        <time>2018-05-14T16:13:01Z</time>
      </trkpt>
      <trkpt lat="36.67834" lon="27.64067">
        <ele>105.26</ele>
        <time>2018-05-14T16:13:09Z</time>
      </trkpt>
      <trkpt lat="36.67834" lon="27.64062">
        <ele>105.487</ele>
        <time>2018-05-14T16:13:17Z</time>
      </trkpt>
      <trkpt lat="36.67832" lon="27.64056">
        <ele>104.982</ele>
        <time>2018-05-14T16:13:21Z</time>
      </trkpt>
      <trkpt lat="36.67828" lon="27.6405">
        <ele>103.278</ele>
        <time>2018-05-14T16:13:24Z</time>
      </trkpt>
      <trkpt lat="36.67826" lon="27.64044">
        <ele>102.712</ele>
        <time>2018-05-14T16:13:27Z</time>
      </trkpt>
      <trkpt lat="36.67825" lon="27.64037">
        <ele>102.998</ele>
        <time>2018-05-14T16:13:31Z</time>
      </trkpt>
      <trkpt lat="36.67825" lon="27.64031">
        <ele>103.382</ele>
        <time>2018-05-14T16:13:36Z</time>
      </trkpt>
      <trkpt lat="36.67822" lon="27.64036">
        <ele>101.065</ele>
        <time>2018-05-14T16:13:48Z</time>
      </trkpt>
      <trkpt lat="36.67819" lon="27.6404">
        <ele>98.422</ele>
        <time>2018-05-14T16:13:57Z</time>
      </trkpt>
      <trkpt lat="36.67818" lon="27.64035">
        <ele>98.34</ele>
        <time>2018-05-14T16:14:21Z</time>
      </trkpt>
      <trkpt lat="36.67819" lon="27.64029">
        <ele>99.758</ele>
        <time>2018-05-14T16:14:25Z</time>
      </trkpt>
      <trkpt lat="36.67817" lon="27.64023">
        <ele>99.607</ele>
        <time>2018-05-14T16:14:29Z</time>
      </trkpt>
      <trkpt lat="36.67815" lon="27.64016">
        <ele>99.147</ele>
        <time>2018-05-14T16:14:33Z</time>
      </trkpt>
      <trkpt lat="36.67813" lon="27.6401">
        <ele>98.73</ele>
        <time>2018-05-14T16:14:37Z</time>
      </trkpt>
      <trkpt lat="36.67812" lon="27.64004">
        <ele>98.448</ele>
        <time>2018-05-14T16:14:40Z</time>
      </trkpt>
      <trkpt lat="36.67811" lon="27.63998">
        <ele>98.238</ele>
        <time>2018-05-14T16:14:42Z</time>
      </trkpt>
      <trkpt lat="36.67809" lon="27.63991">
        <ele>97.487</ele>
        <time>2018-05-14T16:14:45Z</time>
      </trkpt>
      <trkpt lat="36.67807" lon="27.63985">
        <ele>96.966</ele>
        <time>2018-05-14T16:14:48Z</time>
      </trkpt>
      <trkpt lat="36.67804" lon="27.6398">
        <ele>96.172</ele>
        <time>2018-05-14T16:14:51Z</time>
      </trkpt>
      <trkpt lat="36.67801" lon="27.63974">
        <ele>95.309</ele>
        <time>2018-05-14T16:14:56Z</time>
      </trkpt>
      <trkpt lat="36.678" lon="27.63969">
        <ele>95.148</ele>
        <time>2018-05-14T16:15:08Z</time>
      </trkpt>
      <trkpt lat="36.67801" lon="27.63963">
        <ele>96.51</ele>
        <time>2018-05-14T16:15:14Z</time>
      </trkpt>
      <trkpt lat="36.67804" lon="27.63958">
        <ele>98.086</ele>
        <time>2018-05-14T16:15:26Z</time>
      </trkpt>
      <trkpt lat="36.678" lon="27.63954">
        <ele>96.812</ele>
        <time>2018-05-14T16:15:34Z</time>
      </trkpt>
      <trkpt lat="36.67796" lon="27.6395">
        <ele>95.457</ele>
        <time>2018-05-14T16:15:40Z</time>
      </trkpt>
      <trkpt lat="36.67792" lon="27.63946">
        <ele>94.228</ele>
        <time>2018-05-14T16:15:46Z</time>
      </trkpt>
      <trkpt lat="36.67788" lon="27.63942">
        <ele>93.433</ele>
        <time>2018-05-14T16:15:50Z</time>
      </trkpt>
      <trkpt lat="36.67785" lon="27.63937">
        <ele>93.273</ele>
        <time>2018-05-14T16:15:54Z</time>
      </trkpt>
      <trkpt lat="36.67781" lon="27.63932">
        <ele>92.928</ele>
        <time>2018-05-14T16:15:57Z</time>
      </trkpt>
      <trkpt lat="36.67778" lon="27.63927">
        <ele>92.785</ele>
        <time>2018-05-14T16:16:01Z</time>
      </trkpt>
      <trkpt lat="36.67775" lon="27.63922">
        <ele>92.839</ele>
        <time>2018-05-14T16:16:05Z</time>
      </trkpt>
      <trkpt lat="36.6777" lon="27.63919">
        <ele>91.977</ele>
        <time>2018-05-14T16:16:11Z</time>
      </trkpt>
      <trkpt lat="36.67766" lon="27.63916">
        <ele>91.252</ele>
        <time>2018-05-14T16:16:15Z</time>
      </trkpt>
      <trkpt lat="36.67761" lon="27.63913">
        <ele>89.848</ele>
        <time>2018-05-14T16:16:19Z</time>
      </trkpt>
      <trkpt lat="36.67757" lon="27.6391">
        <ele>88.477</ele>
        <time>2018-05-14T16:16:23Z</time>
      </trkpt>
      <trkpt lat="36.67753" lon="27.63907">
        <ele>87.279</ele>
        <time>2018-05-14T16:16:27Z</time>
      </trkpt>
      <trkpt lat="36.67748" lon="27.63904">
        <ele>85.552</ele>
        <time>2018-05-14T16:16:32Z</time>
      </trkpt>
      <trkpt lat="36.67743" lon="27.63904">
        <ele>83.015</ele>
        <time>2018-05-14T16:16:37Z</time>
      </trkpt>
      <trkpt lat="36.67739" lon="27.63903">
        <ele>80.805</ele>
        <time>2018-05-14T16:16:44Z</time>
      </trkpt>
      <trkpt lat="36.67738" lon="27.63898">
        <ele>81.095</ele>
        <time>2018-05-14T16:17:06Z</time>
      </trkpt>
      <trkpt lat="36.67738" lon="27.63892">
        <ele>81.306</ele>
        <time>2018-05-14T16:17:35Z</time>
      </trkpt>
      <trkpt lat="36.67736" lon="27.63886">
        <ele>81.093</ele>
        <time>2018-05-14T16:17:52Z</time>
      </trkpt>
      <trkpt lat="36.67734" lon="27.63881">
        <ele>80.135</ele>
        <time>2018-05-14T16:17:57Z</time>
      </trkpt>
      <trkpt lat="36.67729" lon="27.63878">
        <ele>78.582</ele>
        <time>2018-05-14T16:18:01Z</time>
      </trkpt>
      <trkpt lat="36.67726" lon="27.63873">
        <ele>77.517</ele>
        <time>2018-05-14T16:18:06Z</time>
      </trkpt>
      <trkpt lat="36.67724" lon="27.63868">
        <ele>76.96</ele>
        <time>2018-05-14T16:18:10Z</time>
      </trkpt>
      <trkpt lat="36.6772" lon="27.63864">
        <ele>75.759</ele>
        <time>2018-05-14T16:18:18Z</time>
      </trkpt>
      <trkpt lat="36.67716" lon="27.63862">
        <ele>74.168</ele>
        <time>2018-05-14T16:18:29Z</time>
      </trkpt>
      <trkpt lat="36.67712" lon="27.63866">
        <ele>72.037</ele>
        <time>2018-05-14T16:18:33Z</time>
      </trkpt>
      <trkpt lat="36.67707" lon="27.63866">
        <ele>69.929</ele>
        <time>2018-05-14T16:18:40Z</time>
      </trkpt>
      <trkpt lat="36.67706" lon="27.6386">
        <ele>69.738</ele>
        <time>2018-05-14T16:18:48Z</time>
      </trkpt>
      <trkpt lat="36.67706" lon="27.63853">
        <ele>68.763</ele>
        <time>2018-05-14T16:18:53Z</time>
      </trkpt>
      <trkpt lat="36.67704" lon="27.63848">
        <ele>67.203</ele>
        <time>2018-05-14T16:18:58Z</time>
      </trkpt>
      <trkpt lat="36.67703" lon="27.63842">
        <ele>66.08</ele>
        <time>2018-05-14T16:19:25Z</time>
      </trkpt>
      <trkpt lat="36.67702" lon="27.63835">
        <ele>64.737</ele>
        <time>2018-05-14T16:19:31Z</time>
      </trkpt>
      <trkpt lat="36.677" lon="27.63829">
        <ele>63.2</ele>
        <time>2018-05-14T16:19:35Z</time>
      </trkpt>
      <trkpt lat="36.677" lon="27.63823">
        <ele>61.867</ele>
        <time>2018-05-14T16:19:43Z</time>
      </trkpt>
      <trkpt lat="36.67695" lon="27.63824">
        <ele>60.537</ele>
        <time>2018-05-14T16:20:17Z</time>
      </trkpt>
      <trkpt lat="36.6769" lon="27.63825">
        <ele>58.846</ele>
        <time>2018-05-14T16:20:32Z</time>
      </trkpt>
      <trkpt lat="36.67694" lon="27.6382">
        <ele>59.339</ele>
        <time>2018-05-14T16:21:04Z</time>
      </trkpt>
      <trkpt lat="36.67695" lon="27.63814">
        <ele>58.567</ele>
        <time>2018-05-14T16:21:09Z</time>
      </trkpt>
      <trkpt lat="36.67698" lon="27.63809">
        <ele>58.681</ele>
        <time>2018-05-14T16:21:14Z</time>
      </trkpt>
      <trkpt lat="36.67703" lon="27.63807">
        <ele>59.528</ele>
        <time>2018-05-14T16:21:19Z</time>
      </trkpt>
      <trkpt lat="36.67707" lon="27.63804">
        <ele>59.62</ele>
        <time>2018-05-14T16:21:23Z</time>
      </trkpt>
      <trkpt lat="36.67711" lon="27.638">
        <ele>59.868</ele>
        <time>2018-05-14T16:21:28Z</time>
      </trkpt>
      <trkpt lat="36.67715" lon="27.63798">
        <ele>60.545</ele>
        <time>2018-05-14T16:21:39Z</time>
      </trkpt>
      <trkpt lat="36.67716" lon="27.63793">
        <ele>59.731</ele>
        <time>2018-05-14T16:22:08Z</time>
      </trkpt>
      <trkpt lat="36.67721" lon="27.63791">
        <ele>60.52</ele>
        <time>2018-05-14T16:22:19Z</time>
      </trkpt>
      <trkpt lat="36.67723" lon="27.63786">
        <ele>60.011</ele>
        <time>2018-05-14T16:22:31Z</time>
      </trkpt>
      <trkpt lat="36.67725" lon="27.6378">
        <ele>59.371</ele>
        <time>2018-05-14T16:22:40Z</time>
      </trkpt>
      <trkpt lat="36.67727" lon="27.63775">
        <ele>59.06</ele>
        <time>2018-05-14T16:22:44Z</time>
      </trkpt>
      <trkpt lat="36.67729" lon="27.63769">
        <ele>58.791</ele>
        <time>2018-05-14T16:22:50Z</time>
      </trkpt>
      <trkpt lat="36.67731" lon="27.63764">
        <ele>58.125</ele>
        <time>2018-05-14T16:22:56Z</time>
      </trkpt>
      <trkpt lat="36.67732" lon="27.63758">
        <ele>57.675</ele>
        <time>2018-05-14T16:23:03Z</time>
      </trkpt>
      <trkpt lat="36.67734" lon="27.63752">
        <ele>57.123</ele>
        <time>2018-05-14T16:23:29Z</time>
      </trkpt>
      <trkpt lat="36.67733" lon="27.63746">
        <ele>54.643</ele>
        <time>2018-05-14T16:23:33Z</time>
      </trkpt>
      <trkpt lat="36.67732" lon="27.6374">
        <ele>51.751</ele>
        <time>2018-05-14T16:23:45Z</time>
      </trkpt>
      <trkpt lat="36.67734" lon="27.63735">
        <ele>50.567</ele>
        <time>2018-05-14T16:23:48Z</time>
      </trkpt>
      <trkpt lat="36.67737" lon="27.63729">
        <ele>49.498</ele>
        <time>2018-05-14T16:23:51Z</time>
      </trkpt>
      <trkpt lat="36.67739" lon="27.63724">
        <ele>48.19</ele>
        <time>2018-05-14T16:23:55Z</time>
      </trkpt>
      <trkpt lat="36.6774" lon="27.63718">
        <ele>46.274</ele>
        <time>2018-05-14T16:24:00Z</time>
      </trkpt>
      <trkpt lat="36.67742" lon="27.6371">
        <ele>44.251</ele>
        <time>2018-05-14T16:24:04Z</time>
      </trkpt>
      <trkpt lat="36.67744" lon="27.63704">
        <ele>42.772</ele>
        <time>2018-05-14T16:24:07Z</time>
      </trkpt>
      <trkpt lat="36.67746" lon="27.63698">
        <ele>41.629</ele>
        <time>2018-05-14T16:24:10Z</time>
      </trkpt>
      <trkpt lat="36.67749" lon="27.63694">
        <ele>41.598</ele>
        <time>2018-05-14T16:24:16Z</time>
      </trkpt>
      <trkpt lat="36.6775" lon="27.63689">
        <ele>40.485</ele>
        <time>2018-05-14T16:24:27Z</time>
      </trkpt>
      <trkpt lat="36.67753" lon="27.63684">
        <ele>40.012</ele>
        <time>2018-05-14T16:24:57Z</time>
      </trkpt>
      <trkpt lat="36.67758" lon="27.63682">
        <ele>40.855</ele>
        <time>2018-05-14T16:25:11Z</time>
      </trkpt>
      <trkpt lat="36.67763" lon="27.63679">
        <ele>41.533</ele>
        <time>2018-05-14T16:25:15Z</time>
      </trkpt>
      <trkpt lat="36.67766" lon="27.63673">
        <ele>41.257</ele>
        <time>2018-05-14T16:25:18Z</time>
      </trkpt>
      <trkpt lat="36.67767" lon="27.63667">
        <ele>40.006</ele>
        <time>2018-05-14T16:25:26Z</time>
      </trkpt>
      <trkpt lat="36.67766" lon="27.63661">
        <ele>38.054</ele>
        <time>2018-05-14T16:25:37Z</time>
      </trkpt>
      <trkpt lat="36.6777" lon="27.63661">
        <ele>39.71</ele>
        <time>2018-05-14T16:25:46Z</time>
      </trkpt>
      <trkpt lat="36.67773" lon="27.63656">
        <ele>38.949</ele>
        <time>2018-05-14T16:25:49Z</time>
      </trkpt>
      <trkpt lat="36.67775" lon="27.63649">
        <ele>37.833</ele>
        <time>2018-05-14T16:25:52Z</time>
      </trkpt>
      <trkpt lat="36.67779" lon="27.63646">
        <ele>38.071</ele>
        <time>2018-05-14T16:25:56Z</time>
      </trkpt>
      <trkpt lat="36.67784" lon="27.63645">
        <ele>37.73</ele>
        <time>2018-05-14T16:26:02Z</time>
      </trkpt>
      <trkpt lat="36.67785" lon="27.6365">
        <ele>39.386</ele>
        <time>2018-05-14T16:26:51Z</time>
      </trkpt>
      <trkpt lat="36.67786" lon="27.63643">
        <ele>37.334</ele>
        <time>2018-05-14T16:27:00Z</time>
      </trkpt>
      <trkpt lat="36.67787" lon="27.63637">
        <ele>35.39</ele>
        <time>2018-05-14T16:27:13Z</time>
      </trkpt>
      <trkpt lat="36.67783" lon="27.63633">
        <ele>33.683</ele>
        <time>2018-05-14T16:27:18Z</time>
      </trkpt>
      <trkpt lat="36.67778" lon="27.63632">
        <ele>32.624</ele>
        <time>2018-05-14T16:27:23Z</time>
      </trkpt>
      <trkpt lat="36.67774" lon="27.63632">
        <ele>31.643</ele>
        <time>2018-05-14T16:27:50Z</time>
      </trkpt>
      <trkpt lat="36.67774" lon="27.63626">
        <ele>29.012</ele>
        <time>2018-05-14T16:28:02Z</time>
      </trkpt>
      <trkpt lat="36.67773" lon="27.63621">
        <ele>26.421</ele>
        <time>2018-05-14T16:28:37Z</time>
      </trkpt>
      <trkpt lat="36.67769" lon="27.63619">
        <ele>24.65</ele>
        <time>2018-05-14T16:28:57Z</time>
      </trkpt>
      <trkpt lat="36.67764" lon="27.63617">
        <ele>23.195</ele>
        <time>2018-05-14T16:29:14Z</time>
      </trkpt>
      <trkpt lat="36.6776" lon="27.63615">
        <ele>21.637</ele>
        <time>2018-05-14T16:29:22Z</time>
      </trkpt>
      <trkpt lat="36.67756" lon="27.63611">
        <ele>19.891</ele>
        <time>2018-05-14T16:29:40Z</time>
      </trkpt>
      <trkpt lat="36.67751" lon="27.63614">
        <ele>19.866</ele>
        <time>2018-05-14T16:29:49Z</time>
      </trkpt>
      <trkpt lat="36.67749" lon="27.63619">
        <ele>20.775</ele>
        <time>2018-05-14T16:30:25Z</time>
      </trkpt>
      <trkpt lat="36.67745" lon="27.63619">
        <ele>19.599</ele>
        <time>2018-05-14T16:30:36Z</time>
      </trkpt>
      <trkpt lat="36.6774" lon="27.63621">
        <ele>18.803</ele>
        <time>2018-05-14T16:31:01Z</time>
      </trkpt>
      <trkpt lat="36.67737" lon="27.63625">
        <ele>18.706</ele>
        <time>2018-05-14T16:31:07Z</time>
      </trkpt>
      <trkpt lat="36.67733" lon="27.63627">
        <ele>17.895</ele>
        <time>2018-05-14T16:31:37Z</time>
      </trkpt>
      <trkpt lat="36.6773" lon="27.63622">
        <ele>16.116</ele>
        <time>2018-05-14T16:31:45Z</time>
      </trkpt>
      <trkpt lat="36.67725" lon="27.63621">
        <ele>14.58</ele>
        <time>2018-05-14T16:31:51Z</time>
      </trkpt>
      <trkpt lat="36.67725" lon="27.63627">
        <ele>15.645</ele>
        <time>2018-05-14T16:32:16Z</time>
      </trkpt>
      <trkpt lat="36.67724" lon="27.63624">
        <ele>14.791</ele>
        <time>2018-05-14T16:32:58Z</time>
      </trkpt>
      <trkpt lat="36.67721" lon="27.6362">
        <ele>13.236</ele>
        <time>2018-05-14T16:33:06Z</time>
      </trkpt>
      <trkpt lat="36.67717" lon="27.63615">
        <ele>11.813</ele>
        <time>2018-05-14T16:33:14Z</time>
      </trkpt>
      <trkpt lat="36.67712" lon="27.63616">
        <ele>10.968</ele>
        <time>2018-05-14T16:33:19Z</time>
      </trkpt>
      <trkpt lat="36.67708" lon="27.63619">
        <ele>10.824</ele>
        <time>2018-05-14T16:33:48Z</time>
      </trkpt>
      <trkpt lat="36.67708" lon="27.63613">
        <ele>9.709</ele>
        <time>2018-05-14T16:34:30Z</time>
      </trkpt>
      <trkpt lat="36.67705" lon="27.63608">
        <ele>8.651</ele>
        <time>2018-05-14T16:34:37Z</time>
      </trkpt>
      <trkpt lat="36.67703" lon="27.63603">
        <ele>7.952</ele>
        <time>2018-05-14T16:34:44Z</time>
      </trkpt>
      <trkpt lat="36.677" lon="27.63598">
        <ele>7.081</ele>
        <time>2018-05-14T16:35:47Z</time>
      </trkpt>
      <trkpt lat="36.67698" lon="27.63593">
        <ele>6.344</ele>
        <time>2018-05-14T16:35:53Z</time>
      </trkpt>
      <trkpt lat="36.67696" lon="27.63587">
        <ele>5.541</ele>
        <time>2018-05-14T16:36:03Z</time>
      </trkpt>
      <trkpt lat="36.67694" lon="27.63582">
        <ele>4.897</ele>
        <time>2018-05-14T16:36:08Z</time>
      </trkpt>
      <trkpt lat="36.67692" lon="27.63577">
        <ele>4.723</ele>
        <time>2018-05-14T16:36:12Z</time>
      </trkpt>
      <trkpt lat="36.6769" lon="27.63572">
        <ele>4.519</ele>
        <time>2018-05-14T16:36:16Z</time>
      </trkpt>
      <trkpt lat="36.67687" lon="27.63567">
        <ele>4.381</ele>
        <time>2018-05-14T16:36:21Z</time>
      </trkpt>
      <trkpt lat="36.67684" lon="27.63562">
        <ele>4.362</ele>
        <time>2018-05-14T16:36:26Z</time>
      </trkpt>
      <trkpt lat="36.67681" lon="27.63558">
        <ele>4.399</ele>
        <time>2018-05-14T16:36:31Z</time>
      </trkpt>
      <trkpt lat="36.67679" lon="27.63552">
        <ele>4.861</ele>
        <time>2018-05-14T16:36:36Z</time>
      </trkpt>
      <trkpt lat="36.67678" lon="27.63546">
        <ele>5.404</ele>
        <time>2018-05-14T16:36:41Z</time>
      </trkpt>
      <trkpt lat="36.67677" lon="27.6354">
        <ele>6.088</ele>
        <time>2018-05-14T16:36:47Z</time>
      </trkpt>
      <trkpt lat="36.67674" lon="27.63534">
        <ele>6.564</ele>
        <time>2018-05-14T16:36:52Z</time>
      </trkpt>
      <trkpt lat="36.6767" lon="27.63529">
        <ele>6.952</ele>
        <time>2018-05-14T16:36:57Z</time>
      </trkpt>
      <trkpt lat="36.67667" lon="27.63524">
        <ele>7.559</ele>
        <time>2018-05-14T16:37:02Z</time>
      </trkpt>
      <trkpt lat="36.67664" lon="27.63519">
        <ele>8.478</ele>
        <time>2018-05-14T16:37:07Z</time>
      </trkpt>
      <trkpt lat="36.67664" lon="27.63513">
        <ele>9.299</ele>
        <time>2018-05-14T16:37:15Z</time>
      </trkpt>
      <trkpt lat="36.67666" lon="27.63508">
        <ele>10.004</ele>
        <time>2018-05-14T16:37:22Z</time>
      </trkpt>
      <trkpt lat="36.67514" lon="27.63609">
        <ele>0.143</ele>
      </trkpt>
      <trkpt lat="36.67514" lon="27.63609">
        <ele>0.143</ele>
      </trkpt>
      <trkpt lat="36.67514" lon="27.63609">
        <ele>0.143</ele>
      </trkpt>
      <trkpt lat="36.67514" lon="27.63609">
        <ele>0.143</ele>
      </trkpt>
      <trkpt lat="36.67504" lon="27.63591">
        <ele>0.415</ele>
      </trkpt>
      <trkpt lat="36.67495" lon="27.63575">
        <ele>1.325</ele>
      </trkpt>
      <trkpt lat="36.6749" lon="27.63562">
        <ele>2.761</ele>
      </trkpt>
      <trkpt lat="36.67487" lon="27.63546">
        <ele>4.171</ele>
      </trkpt>
      <trkpt lat="36.67483" lon="27.6354">
        <ele>4.224</ele>
      </trkpt>
      <trkpt lat="36.67481" lon="27.6353">
        <ele>5.047</ele>
      </trkpt>
      <trkpt lat="36.67473" lon="27.63525">
        <ele>4.467</ele>
      </trkpt>
      <trkpt lat="36.67472" lon="27.63527">
        <ele>4.117</ele>
      </trkpt>
      <trkpt lat="36.67472" lon="27.63527">
        <ele>4.072</ele>
      </trkpt>
      <trkpt lat="36.67473" lon="27.63524">
        <ele>4.519</ele>
      </trkpt>
      <trkpt lat="36.67467" lon="27.63501">
        <ele>5.992</ele>
      </trkpt>
      <trkpt lat="36.67462" lon="27.63481">
        <ele>6.204</ele>
      </trkpt>
      <trkpt lat="36.67462" lon="27.63479">
        <ele>6.292</ele>
      </trkpt>
      <trkpt lat="36.67457" lon="27.63461">
        <ele>6.419</ele>
      </trkpt>
      <trkpt lat="36.6745" lon="27.63441">
        <ele>6.342</ele>
      </trkpt>
      <trkpt lat="36.67445" lon="27.63428">
        <ele>7.001</ele>
      </trkpt>
      <trkpt lat="36.67441" lon="27.63422">
        <ele>7.132</ele>
      </trkpt>
      <trkpt lat="36.67441" lon="27.63421">
        <ele>7.11</ele>
      </trkpt>
      <trkpt lat="36.67432" lon="27.63422">
        <ele>6.217</ele>
      </trkpt>
      <trkpt lat="36.6743" lon="27.63423">
        <ele>5.905</ele>
      </trkpt>
      <trkpt lat="36.67429" lon="27.63424">
        <ele>5.614</ele>
      </trkpt>
      <trkpt lat="36.67424" lon="27.63416">
        <ele>5.974</ele>
      </trkpt>
      <trkpt lat="36.67422" lon="27.63415">
        <ele>5.901</ele>
      </trkpt>
      <trkpt lat="36.6742" lon="27.63401">
        <ele>8.271</ele>
      </trkpt>
      <trkpt lat="36.67419" lon="27.63394">
        <ele>9.359</ele>
      </trkpt>
      <trkpt lat="36.67416" lon="27.63391">
        <ele>9.657</ele>
      </trkpt>
      <trkpt lat="36.67412" lon="27.63385">
        <ele>10.173</ele>
      </trkpt>
      <trkpt lat="36.67403" lon="27.63375">
        <ele>11.002</ele>
      </trkpt>
      <trkpt lat="36.67394" lon="27.63365">
        <ele>11.277</ele>
      </trkpt>
      <trkpt lat="36.67388" lon="27.63352">
        <ele>13.747</ele>
      </trkpt>
      <trkpt lat="36.67383" lon="27.6334">
        <ele>17.446</ele>
      </trkpt>
      <trkpt lat="36.67381" lon="27.63336">
        <ele>18.835</ele>
      </trkpt>
      <trkpt lat="36.67369" lon="27.63335">
        <ele>19.842</ele>
      </trkpt>
      <trkpt lat="36.67357" lon="27.63338">
        <ele>19.911</ele>
      </trkpt>
      <trkpt lat="36.67344" lon="27.6334">
        <ele>21.055</ele>
      </trkpt>
      <trkpt lat="36.6734" lon="27.6334">
        <ele>21.601</ele>
      </trkpt>
      <trkpt lat="36.67339" lon="27.6334">
        <ele>21.924</ele>
      </trkpt>
      <trkpt lat="36.67334" lon="27.63342">
        <ele>22.001</ele>
      </trkpt>
      <trkpt lat="36.67329" lon="27.63343">
        <ele>21.981</ele>
      </trkpt>
      <trkpt lat="36.67319" lon="27.63344">
        <ele>21.87</ele>
      </trkpt>
      <trkpt lat="36.67309" lon="27.63353">
        <ele>19.238</ele>
      </trkpt>
      <trkpt lat="36.67299" lon="27.63356">
        <ele>19.504</ele>
      </trkpt>
      <trkpt lat="36.67292" lon="27.63362">
        <ele>19.228</ele>
      </trkpt>
      <trkpt lat="36.6728" lon="27.63369">
        <ele>19.861</ele>
      </trkpt>
      <trkpt lat="36.6727" lon="27.6337">
        <ele>20.121</ele>
      </trkpt>
      <trkpt lat="36.67263" lon="27.63369">
        <ele>20.473</ele>
      </trkpt>
      <trkpt lat="36.6726" lon="27.63365">
        <ele>22.086</ele>
      </trkpt>
      <trkpt lat="36.67257" lon="27.63359">
        <ele>24.103</ele>
      </trkpt>
      <trkpt lat="36.67255" lon="27.63351">
        <ele>25.809</ele>
      </trkpt>
      <trkpt lat="36.67255" lon="27.63343">
        <ele>27.39</ele>
      </trkpt>
      <trkpt lat="36.67255" lon="27.63343">
        <ele>27.433</ele>
      </trkpt>
      <trkpt lat="36.67257" lon="27.63337">
        <ele>28.73</ele>
      </trkpt>
      <trkpt lat="36.67258" lon="27.63324">
        <ele>30.307</ele>
      </trkpt>
      <trkpt lat="36.67259" lon="27.63317">
        <ele>30.984</ele>
      </trkpt>
      <trkpt lat="36.67258" lon="27.63309">
        <ele>31.59</ele>
      </trkpt>
      <trkpt lat="36.67259" lon="27.63298">
        <ele>32.029</ele>
      </trkpt>
      <trkpt lat="36.67262" lon="27.63285">
        <ele>32.632</ele>
      </trkpt>
      <trkpt lat="36.6726" lon="27.63273">
        <ele>32.425</ele>
      </trkpt>
      <trkpt lat="36.67259" lon="27.63271">
        <ele>32.251</ele>
      </trkpt>
      <trkpt lat="36.67256" lon="27.6327">
        <ele>31.838</ele>
      </trkpt>
      <trkpt lat="36.67255" lon="27.63267">
        <ele>31.607</ele>
      </trkpt>
      <trkpt lat="36.67247" lon="27.63261">
        <ele>30.023</ele>
      </trkpt>
      <trkpt lat="36.67244" lon="27.63259">
        <ele>28.941</ele>
      </trkpt>
      <trkpt lat="36.67243" lon="27.63255">
        <ele>28.544</ele>
      </trkpt>
      <trkpt lat="36.67243" lon="27.6325">
        <ele>28.937</ele>
      </trkpt>
      <trkpt lat="36.67242" lon="27.63244">
        <ele>27.927</ele>
      </trkpt>
      <trkpt lat="36.67246" lon="27.63238">
        <ele>27.844</ele>
      </trkpt>
      <trkpt lat="36.67242" lon="27.6323">
        <ele>25.907</ele>
      </trkpt>
      <trkpt lat="36.67243" lon="27.63226">
        <ele>25.493</ele>
      </trkpt>
      <trkpt lat="36.67256" lon="27.63229">
        <ele>27.584</ele>
      </trkpt>
      <trkpt lat="36.67263" lon="27.63226">
        <ele>27.305</ele>
      </trkpt>
      <trkpt lat="36.67272" lon="27.63224">
        <ele>27.225</ele>
      </trkpt>
      <trkpt lat="36.67281" lon="27.63218">
        <ele>26.243</ele>
      </trkpt>
      <trkpt lat="36.67282" lon="27.63211">
        <ele>24.887</ele>
      </trkpt>
      <trkpt lat="36.6729" lon="27.63212">
        <ele>25.617</ele>
      </trkpt>
      <trkpt lat="36.67292" lon="27.63209">
        <ele>25.149</ele>
      </trkpt>
      <trkpt lat="36.67297" lon="27.63203">
        <ele>24.212</ele>
      </trkpt>
      <trkpt lat="36.67307" lon="27.63193">
        <ele>22.762</ele>
      </trkpt>
      <trkpt lat="36.67314" lon="27.63189">
        <ele>22.62</ele>
      </trkpt>
      <trkpt lat="36.67323" lon="27.6319">
        <ele>23.518</ele>
      </trkpt>
      <trkpt lat="36.67335" lon="27.63187">
        <ele>24.193</ele>
      </trkpt>
      <trkpt lat="36.67345" lon="27.63183">
        <ele>26.086</ele>
      </trkpt>
      <trkpt lat="36.6735" lon="27.63183">
        <ele>27.229</ele>
      </trkpt>
      <trkpt lat="36.67357" lon="27.63186">
        <ele>29.207</ele>
      </trkpt>
      <trkpt lat="36.67366" lon="27.63182">
        <ele>30.891</ele>
      </trkpt>
      <trkpt lat="36.67367" lon="27.63181">
        <ele>30.998</ele>
      </trkpt>
      <trkpt lat="36.67374" lon="27.63176">
        <ele>32.479</ele>
      </trkpt>
      <trkpt lat="36.67377" lon="27.63173">
        <ele>32.99</ele>
      </trkpt>
      <trkpt lat="36.67381" lon="27.63172">
        <ele>34.094</ele>
      </trkpt>
      <trkpt lat="36.67379" lon="27.63168">
        <ele>33.093</ele>
      </trkpt>
      <trkpt lat="36.67372" lon="27.63154">
        <ele>30.882</ele>
      </trkpt>
      <trkpt lat="36.67366" lon="27.63143">
        <ele>29.24</ele>
      </trkpt>
      <trkpt lat="36.67362" lon="27.63139">
        <ele>28.173</ele>
      </trkpt>
      <trkpt lat="36.67357" lon="27.63132">
        <ele>27.194</ele>
      </trkpt>
      <trkpt lat="36.67351" lon="27.63119">
        <ele>25.973</ele>
      </trkpt>
      <trkpt lat="36.67348" lon="27.63109">
        <ele>25.518</ele>
      </trkpt>
      <trkpt lat="36.67347" lon="27.63103">
        <ele>24.799</ele>
      </trkpt>
      <trkpt lat="36.67346" lon="27.63097">
        <ele>24.188</ele>
      </trkpt>
      <trkpt lat="36.67346" lon="27.63088">
        <ele>23.574</ele>
      </trkpt>
      <trkpt lat="36.67343" lon="27.63081">
        <ele>21.695</ele>
      </trkpt>
      <trkpt lat="36.67343" lon="27.63079">
        <ele>21.27</ele>
      </trkpt>
      <trkpt lat="36.67344" lon="27.63079">
        <ele>21.397</ele>
      </trkpt>
      <trkpt lat="36.67351" lon="27.63077">
        <ele>22.645</ele>
      </trkpt>
      <trkpt lat="36.67355" lon="27.63076">
        <ele>23.308</ele>
      </trkpt>
      <trkpt lat="36.67357" lon="27.63073">
        <ele>22.949</ele>
      </trkpt>
      <trkpt lat="36.67363" lon="27.63067">
        <ele>22.552</ele>
      </trkpt>
      <trkpt lat="36.67371" lon="27.63067">
        <ele>23.28</ele>
      </trkpt>
      <trkpt lat="36.67373" lon="27.6307">
        <ele>24.269</ele>
      </trkpt>
      <trkpt lat="36.67378" lon="27.63069">
        <ele>24.242</ele>
      </trkpt>
      <trkpt lat="36.67375" lon="27.63065">
        <ele>22.755</ele>
      </trkpt>
      <trkpt lat="36.67382" lon="27.63061">
        <ele>22.152</ele>
      </trkpt>
      <trkpt lat="36.67382" lon="27.63055">
        <ele>20.357</ele>
      </trkpt>
      <trkpt lat="36.6738" lon="27.63052">
        <ele>19.54</ele>
      </trkpt>
      <trkpt lat="36.67378" lon="27.63047">
        <ele>17.985</ele>
      </trkpt>
      <trkpt lat="36.67378" lon="27.63045">
        <ele>17.353</ele>
      </trkpt>
      <trkpt lat="36.67378" lon="27.63041">
        <ele>16.398</ele>
      </trkpt>
      <trkpt lat="36.67383" lon="27.63037">
        <ele>16.453</ele>
      </trkpt>
      <trkpt lat="36.67386" lon="27.63033">
        <ele>16.205</ele>
      </trkpt>
      <trkpt lat="36.67387" lon="27.63033">
        <ele>16.43</ele>
      </trkpt>
      <trkpt lat="36.67395" lon="27.6303">
        <ele>18.104</ele>
      </trkpt>
      <trkpt lat="36.674" lon="27.63031">
        <ele>19.711</ele>
      </trkpt>
      <trkpt lat="36.67407" lon="27.63027">
        <ele>21.077</ele>
      </trkpt>
      <trkpt lat="36.67405" lon="27.63022">
        <ele>20.671</ele>
      </trkpt>
      <trkpt lat="36.67403" lon="27.6302">
        <ele>19.864</ele>
      </trkpt>
      <trkpt lat="36.67396" lon="27.63015">
        <ele>17.838</ele>
      </trkpt>
      <trkpt lat="36.67385" lon="27.63009">
        <ele>14.314</ele>
      </trkpt>
      <trkpt lat="36.67378" lon="27.62998">
        <ele>12.024</ele>
      </trkpt>
      <trkpt lat="36.67379" lon="27.62995">
        <ele>12.268</ele>
      </trkpt>
      <trkpt lat="36.67376" lon="27.6299">
        <ele>11.776</ele>
      </trkpt>
      <trkpt lat="36.67376" lon="27.62986">
        <ele>11.934</ele>
      </trkpt>
      <trkpt lat="36.67373" lon="27.62966">
        <ele>12.797</ele>
      </trkpt>
      <trkpt lat="36.67372" lon="27.62967">
        <ele>12.495</ele>
      </trkpt>
      <trkpt lat="36.67365" lon="27.62968">
        <ele>10.481</ele>
      </trkpt>
      <trkpt lat="36.67362" lon="27.62968">
        <ele>9.819</ele>
      </trkpt>
      <trkpt lat="36.67348" lon="27.62965">
        <ele>7.247</ele>
      </trkpt>
      <trkpt lat="36.67341" lon="27.62964">
        <ele>5.807</ele>
      </trkpt>
      <trkpt lat="36.6734" lon="27.62962">
        <ele>5.922</ele>
      </trkpt>
      <trkpt lat="36.67339" lon="27.62944">
        <ele>8.508</ele>
      </trkpt>
      <trkpt lat="36.67339" lon="27.62943">
        <ele>8.854</ele>
      </trkpt>
      <trkpt lat="36.67338" lon="27.62939">
        <ele>10.075</ele>
      </trkpt>
      <trkpt lat="36.67335" lon="27.62932">
        <ele>12.087</ele>
      </trkpt>
      <trkpt lat="36.6734" lon="27.62927">
        <ele>14.564</ele>
      </trkpt>
      <trkpt lat="36.67344" lon="27.6292">
        <ele>17.426</ele>
      </trkpt>
      <trkpt lat="36.67342" lon="27.62917">
        <ele>18.04</ele>
      </trkpt>
      <trkpt lat="36.67337" lon="27.62911">
        <ele>19.688</ele>
      </trkpt>
      <trkpt lat="36.67339" lon="27.62901">
        <ele>22.447</ele>
      </trkpt>
      <trkpt lat="36.67333" lon="27.62896">
        <ele>23.947</ele>
      </trkpt>
      <trkpt lat="36.67328" lon="27.62893">
        <ele>24.054</ele>
      </trkpt>
      <trkpt lat="36.67325" lon="27.62892">
        <ele>23.866</ele>
      </trkpt>
      <trkpt lat="36.67323" lon="27.6289">
        <ele>24.244</ele>
      </trkpt>
      <trkpt lat="36.67323" lon="27.62887">
        <ele>24.884</ele>
      </trkpt>
      <trkpt lat="36.67323" lon="27.62882">
        <ele>25.78</ele>
      </trkpt>
      <trkpt lat="36.67322" lon="27.62882">
        <ele>25.716</ele>
      </trkpt>
      <trkpt lat="36.67319" lon="27.62881">
        <ele>25.499</ele>
      </trkpt>
      <trkpt lat="36.67308" lon="27.62871">
        <ele>25.742</ele>
      </trkpt>
      <trkpt lat="36.67306" lon="27.6287">
        <ele>25.466</ele>
      </trkpt>
      <trkpt lat="36.67301" lon="27.62864">
        <ele>25.27</ele>
      </trkpt>
      <trkpt lat="36.67298" lon="27.62861">
        <ele>24.777</ele>
      </trkpt>
      <trkpt lat="36.67297" lon="27.62858">
        <ele>25.18</ele>
      </trkpt>
      <trkpt lat="36.6729" lon="27.62849">
        <ele>25.431</ele>
      </trkpt>
      <trkpt lat="36.67286" lon="27.62834">
        <ele>27.688</ele>
      </trkpt>
      <trkpt lat="36.67285" lon="27.62832">
        <ele>27.679</ele>
      </trkpt>
      <trkpt lat="36.67284" lon="27.62825">
        <ele>28.594</ele>
      </trkpt>
      <trkpt lat="36.67279" lon="27.62811">
        <ele>29.603</ele>
      </trkpt>
      <trkpt lat="36.67277" lon="27.62802">
        <ele>30.292</ele>
      </trkpt>
      <trkpt lat="36.67277" lon="27.62793">
        <ele>31.875</ele>
      </trkpt>
      <trkpt lat="36.67279" lon="27.6279">
        <ele>33.381</ele>
      </trkpt>
      <trkpt lat="36.67279" lon="27.62786">
        <ele>33.84</ele>
      </trkpt>
      <trkpt lat="36.6728" lon="27.62784">
        <ele>34.884</ele>
      </trkpt>
      <trkpt lat="36.67282" lon="27.62779">
        <ele>36.154</ele>
      </trkpt>
      <trkpt lat="36.67282" lon="27.62774">
        <ele>37.269</ele>
      </trkpt>
      <trkpt lat="36.67281" lon="27.62769">
        <ele>37.765</ele>
      </trkpt>
      <trkpt lat="36.67277" lon="27.6277">
        <ele>36.161</ele>
      </trkpt>
      <trkpt lat="36.67273" lon="27.62773">
        <ele>34.239</ele>
      </trkpt>
      <trkpt lat="36.67268" lon="27.62766">
        <ele>33.967</ele>
      </trkpt>
      <trkpt lat="36.6726" lon="27.62757">
        <ele>32.895</ele>
      </trkpt>
      <trkpt lat="36.67257" lon="27.62754">
        <ele>32.33</ele>
      </trkpt>
      <trkpt lat="36.67253" lon="27.6275">
        <ele>32.034</ele>
      </trkpt>
      <trkpt lat="36.67245" lon="27.62739">
        <ele>31.467</ele>
      </trkpt>
      <trkpt lat="36.67238" lon="27.62732">
        <ele>30.159</ele>
      </trkpt>
      <trkpt lat="36.67237" lon="27.62732">
        <ele>29.967</ele>
      </trkpt>
      <trkpt lat="36.67236" lon="27.62728">
        <ele>29.785</ele>
      </trkpt>
      <trkpt lat="36.6723" lon="27.62721">
        <ele>27.803</ele>
      </trkpt>
      <trkpt lat="36.6723" lon="27.62714">
        <ele>27.913</ele>
      </trkpt>
      <trkpt lat="36.67231" lon="27.62704">
        <ele>28.164</ele>
      </trkpt>
      <trkpt lat="36.67231" lon="27.62702">
        <ele>27.938</ele>
      </trkpt>
      <trkpt lat="36.67229" lon="27.62691">
        <ele>26.749</ele>
      </trkpt>
      <trkpt lat="36.67229" lon="27.62684">
        <ele>25.473</ele>
      </trkpt>
      <trkpt lat="36.67233" lon="27.62679">
        <ele>26.339</ele>
      </trkpt>
      <trkpt lat="36.67233" lon="27.62677">
        <ele>25.943</ele>
      </trkpt>
      <trkpt lat="36.67237" lon="27.62672">
        <ele>27.185</ele>
      </trkpt>
      <trkpt lat="36.67239" lon="27.62671">
        <ele>28.231</ele>
      </trkpt>
      <trkpt lat="36.67249" lon="27.6267">
        <ele>32.979</ele>
      </trkpt>
      <trkpt lat="36.67253" lon="27.62666">
        <ele>33.58</ele>
      </trkpt>
      <trkpt lat="36.67254" lon="27.62666">
        <ele>33.942</ele>
      </trkpt>
      <trkpt lat="36.67258" lon="27.62662">
        <ele>33.725</ele>
      </trkpt>
      <trkpt lat="36.67258" lon="27.62661">
        <ele>33.589</ele>
      </trkpt>
      <trkpt lat="36.67264" lon="27.6265">
        <ele>32.17</ele>
      </trkpt>
      <trkpt lat="36.67271" lon="27.62643">
        <ele>32.102</ele>
      </trkpt>
      <trkpt lat="36.67279" lon="27.6264">
        <ele>33.411</ele>
      </trkpt>
      <trkpt lat="36.67288" lon="27.62637">
        <ele>34.493</ele>
      </trkpt>
      <trkpt lat="36.67293" lon="27.62625">
        <ele>32.19</ele>
      </trkpt>
      <trkpt lat="36.67298" lon="27.62616">
        <ele>30.595</ele>
      </trkpt>
      <trkpt lat="36.67299" lon="27.62614">
        <ele>30.571</ele>
      </trkpt>
      <trkpt lat="36.67302" lon="27.62609">
        <ele>29.633</ele>
      </trkpt>
      <trkpt lat="36.67305" lon="27.62605">
        <ele>28.755</ele>
      </trkpt>
      <trkpt lat="36.6731" lon="27.62606">
        <ele>30.037</ele>
      </trkpt>
      <trkpt lat="36.67312" lon="27.62606">
        <ele>30.484</ele>
      </trkpt>
      <trkpt lat="36.67318" lon="27.62608">
        <ele>32.189</ele>
      </trkpt>
      <trkpt lat="36.67321" lon="27.62604">
        <ele>31.427</ele>
      </trkpt>
      <trkpt lat="36.67328" lon="27.62608">
        <ele>33.913</ele>
      </trkpt>
      <trkpt lat="36.67327" lon="27.62605">
        <ele>32.781</ele>
      </trkpt>
      <trkpt lat="36.67332" lon="27.62598">
        <ele>31.483</ele>
      </trkpt>
      <trkpt lat="36.67336" lon="27.62594">
        <ele>30.539</ele>
      </trkpt>
      <trkpt lat="36.67344" lon="27.62594">
        <ele>30.371</ele>
      </trkpt>
      <trkpt lat="36.67348" lon="27.6259">
        <ele>28.999</ele>
      </trkpt>
      <trkpt lat="36.67349" lon="27.62594">
        <ele>30.17</ele>
      </trkpt>
      <trkpt lat="36.67349" lon="27.62594">
        <ele>30.327</ele>
      </trkpt>
      <trkpt lat="36.67349" lon="27.62594">
        <ele>30.337</ele>
      </trkpt>
      <trkpt lat="36.67352" lon="27.62594">
        <ele>30.232</ele>
      </trkpt>
      <trkpt lat="36.67355" lon="27.62596">
        <ele>30.635</ele>
      </trkpt>
      <trkpt lat="36.67358" lon="27.62599">
        <ele>31.525</ele>
      </trkpt>
      <trkpt lat="36.67359" lon="27.62598">
        <ele>31.218</ele>
      </trkpt>
      <trkpt lat="36.67356" lon="27.6259">
        <ele>29.028</ele>
      </trkpt>
      <trkpt lat="36.67357" lon="27.62583">
        <ele>26.831</ele>
      </trkpt>
      <trkpt lat="36.67359" lon="27.62579">
        <ele>25.852</ele>
      </trkpt>
      <trkpt lat="36.6736" lon="27.62576">
        <ele>24.974</ele>
      </trkpt>
      <trkpt lat="36.67363" lon="27.62574">
        <ele>24.237</ele>
      </trkpt>
      <trkpt lat="36.67367" lon="27.62573">
        <ele>23.893</ele>
      </trkpt>
      <trkpt lat="36.67366" lon="27.62567">
        <ele>22.213</ele>
      </trkpt>
      <trkpt lat="36.67364" lon="27.62562">
        <ele>20.958</ele>
      </trkpt>
      <trkpt lat="36.67367" lon="27.62556">
        <ele>19.27</ele>
      </trkpt>
      <trkpt lat="36.67367" lon="27.62553">
        <ele>18.549</ele>
      </trkpt>
      <trkpt lat="36.67369" lon="27.6255">
        <ele>17.905</ele>
      </trkpt>
      <trkpt lat="36.67369" lon="27.62548">
        <ele>17.483</ele>
      </trkpt>
      <trkpt lat="36.67368" lon="27.62542">
        <ele>15.76</ele>
      </trkpt>
      <trkpt lat="36.67369" lon="27.62538">
        <ele>14.987</ele>
      </trkpt>
      <trkpt lat="36.67372" lon="27.62534">
        <ele>14.297</ele>
      </trkpt>
      <trkpt lat="36.67375" lon="27.62528">
        <ele>13.543</ele>
      </trkpt>
      <trkpt lat="36.67376" lon="27.62523">
        <ele>13.251</ele>
      </trkpt>
      <trkpt lat="36.67379" lon="27.62525">
        <ele>13.777</ele>
      </trkpt>
      <trkpt lat="36.67384" lon="27.62522">
        <ele>14.585</ele>
      </trkpt>
      <trkpt lat="36.67388" lon="27.62516">
        <ele>14.606</ele>
      </trkpt>
      <trkpt lat="36.67393" lon="27.62512">
        <ele>15.861</ele>
      </trkpt>
      <trkpt lat="36.67393" lon="27.62511">
        <ele>15.796</ele>
      </trkpt>
      <trkpt lat="36.67394" lon="27.62504">
        <ele>15.451</ele>
      </trkpt>
      <trkpt lat="36.67393" lon="27.62501">
        <ele>14.611</ele>
      </trkpt>
      <trkpt lat="36.67393" lon="27.62502">
        <ele>14.78</ele>
      </trkpt>
      <trkpt lat="36.67393" lon="27.62493">
        <ele>14.417</ele>
      </trkpt>
      <trkpt lat="36.67393" lon="27.62493">
        <ele>14.253</ele>
      </trkpt>
      <trkpt lat="36.67392" lon="27.62486">
        <ele>13.765</ele>
      </trkpt>
      <trkpt lat="36.67395" lon="27.62481">
        <ele>14.523</ele>
      </trkpt>
      <trkpt lat="36.67396" lon="27.62474">
        <ele>14.572</ele>
      </trkpt>
      <trkpt lat="36.67395" lon="27.62465">
        <ele>14.207</ele>
      </trkpt>
      <trkpt lat="36.67394" lon="27.62456">
        <ele>13.624</ele>
      </trkpt>
      <trkpt lat="36.67394" lon="27.62456">
        <ele>13.479</ele>
      </trkpt>
      <trkpt lat="36.67394" lon="27.62455">
        <ele>13.491</ele>
      </trkpt>
      <trkpt lat="36.67395" lon="27.62447">
        <ele>13.87</ele>
      </trkpt>
      <trkpt lat="36.67397" lon="27.62442">
        <ele>14.195</ele>
      </trkpt>
      <trkpt lat="36.67394" lon="27.62436">
        <ele>13.166</ele>
      </trkpt>
      <trkpt lat="36.6739" lon="27.62422">
        <ele>11.42</ele>
      </trkpt>
      <trkpt lat="36.67388" lon="27.62414">
        <ele>10.843</ele>
      </trkpt>
      <trkpt lat="36.67387" lon="27.62407">
        <ele>10.452</ele>
      </trkpt>
      <trkpt lat="36.67387" lon="27.62397">
        <ele>10.115</ele>
      </trkpt>
      <trkpt lat="36.67389" lon="27.62395">
        <ele>10.21</ele>
      </trkpt>
      <trkpt lat="36.67391" lon="27.62385">
        <ele>10.213</ele>
      </trkpt>
      <trkpt lat="36.67394" lon="27.62382">
        <ele>10.548</ele>
      </trkpt>
      <trkpt lat="36.67395" lon="27.62381">
        <ele>10.803</ele>
      </trkpt>
      <trkpt lat="36.67401" lon="27.62381">
        <ele>11.824</ele>
      </trkpt>
      <trkpt lat="36.67403" lon="27.62377">
        <ele>11.952</ele>
      </trkpt>
      <trkpt lat="36.67407" lon="27.62374">
        <ele>12.366</ele>
      </trkpt>
      <trkpt lat="36.67414" lon="27.62378">
        <ele>13.727</ele>
      </trkpt>
      <trkpt lat="36.67418" lon="27.62387">
        <ele>14.883</ele>
      </trkpt>
      <trkpt lat="36.67424" lon="27.62387">
        <ele>14.773</ele>
      </trkpt>
      <trkpt lat="36.67426" lon="27.62382">
        <ele>14.285</ele>
      </trkpt>
      <trkpt lat="36.6743" lon="27.6238">
        <ele>13.95</ele>
      </trkpt>
      <trkpt lat="36.67432" lon="27.62382">
        <ele>14.09</ele>
      </trkpt>
      <trkpt lat="36.67432" lon="27.62383">
        <ele>14.188</ele>
      </trkpt>
      <trkpt lat="36.6744" lon="27.62395">
        <ele>16.696</ele>
      </trkpt>
      <trkpt lat="36.67448" lon="27.62397">
        <ele>17.374</ele>
      </trkpt>
      <trkpt lat="36.67448" lon="27.62396">
        <ele>17.143</ele>
      </trkpt>
      <trkpt lat="36.67451" lon="27.62397">
        <ele>17.349</ele>
      </trkpt>
      <trkpt lat="36.67455" lon="27.624">
        <ele>18.161</ele>
      </trkpt>
      <trkpt lat="36.67458" lon="27.62403">
        <ele>18.701</ele>
      </trkpt>
      <trkpt lat="36.67464" lon="27.62405">
        <ele>19.01</ele>
      </trkpt>
      <trkpt lat="36.67466" lon="27.62408">
        <ele>19.316</ele>
      </trkpt>
      <trkpt lat="36.6747" lon="27.62413">
        <ele>19.767</ele>
      </trkpt>
      <trkpt lat="36.67472" lon="27.62416">
        <ele>19.899</ele>
      </trkpt>
      <trkpt lat="36.67477" lon="27.62414">
        <ele>20.706</ele>
      </trkpt>
      <trkpt lat="36.67478" lon="27.62415">
        <ele>21.011</ele>
      </trkpt>
      <trkpt lat="36.6748" lon="27.62412">
        <ele>21.174</ele>
      </trkpt>
      <trkpt lat="36.6748" lon="27.62409">
        <ele>21.069</ele>
      </trkpt>
      <trkpt lat="36.67478" lon="27.62404">
        <ele>20.03</ele>
      </trkpt>
      <trkpt lat="36.6747" lon="27.62399">
        <ele>18.111</ele>
      </trkpt>
      <trkpt lat="36.67472" lon="27.62395">
        <ele>17.624</ele>
      </trkpt>
      <trkpt lat="36.67473" lon="27.62395">
        <ele>17.964</ele>
      </trkpt>
      <trkpt lat="36.67471" lon="27.62394">
        <ele>17.465</ele>
      </trkpt>
      <trkpt lat="36.67471" lon="27.62388">
        <ele>16.842</ele>
      </trkpt>
      <trkpt lat="36.67466" lon="27.62382">
        <ele>15.632</ele>
      </trkpt>
      <trkpt lat="36.67462" lon="27.62372">
        <ele>13.977</ele>
      </trkpt>
      <trkpt lat="36.67462" lon="27.62368">
        <ele>13.392</ele>
      </trkpt>
      <trkpt lat="36.6746" lon="27.62368">
        <ele>13.293</ele>
      </trkpt>
      <trkpt lat="36.67455" lon="27.6236">
        <ele>11.305</ele>
      </trkpt>
      <trkpt lat="36.67455" lon="27.62357">
        <ele>10.943</ele>
      </trkpt>
      <trkpt lat="36.67454" lon="27.62347">
        <ele>9.563</ele>
      </trkpt>
      <trkpt lat="36.67453" lon="27.62345">
        <ele>9.06</ele>
      </trkpt>
      <trkpt lat="36.67452" lon="27.62342">
        <ele>8.576</ele>
      </trkpt>
      <trkpt lat="36.67452" lon="27.62338">
        <ele>8.063</ele>
      </trkpt>
      <trkpt lat="36.67452" lon="27.62333">
        <ele>7.363</ele>
      </trkpt>
      <trkpt lat="36.67446" lon="27.62319">
        <ele>5.188</ele>
      </trkpt>
      <trkpt lat="36.67447" lon="27.62313">
        <ele>4.857</ele>
      </trkpt>
      <trkpt lat="36.6745" lon="27.62308">
        <ele>4.801</ele>
      </trkpt>
      <trkpt lat="36.67453" lon="27.62297">
        <ele>4.022</ele>
      </trkpt>
      <trkpt lat="36.67453" lon="27.62296">
        <ele>3.921</ele>
      </trkpt>
      <trkpt lat="36.67452" lon="27.62291">
        <ele>3.252</ele>
      </trkpt>
      <trkpt lat="36.67451" lon="27.62288">
        <ele>2.819</ele>
      </trkpt>
      <trkpt lat="36.67456" lon="27.62276">
        <ele>2.174</ele>
      </trkpt>
      <trkpt lat="36.67459" lon="27.62274">
        <ele>2.539</ele>
      </trkpt>
      <trkpt lat="36.67461" lon="27.62278">
        <ele>2.832</ele>
      </trkpt>
      <trkpt lat="36.67462" lon="27.62278">
        <ele>2.854</ele>
      </trkpt>
      <trkpt lat="36.67467" lon="27.62273">
        <ele>3.334</ele>
      </trkpt>
      <trkpt lat="36.67479" lon="27.6226">
        <ele>4.262</ele>
      </trkpt>
      <trkpt lat="36.67486" lon="27.62255">
        <ele>5.16</ele>
      </trkpt>
      <trkpt lat="36.67496" lon="27.62242">
        <ele>6.485</ele>
      </trkpt>
      <trkpt lat="36.67506" lon="27.62232">
        <ele>8.067</ele>
      </trkpt>
      <trkpt lat="36.67513" lon="27.62228">
        <ele>9.607</ele>
      </trkpt>
      <trkpt lat="36.67512" lon="27.62221">
        <ele>9.64</ele>
      </trkpt>
      <trkpt lat="36.67512" lon="27.62218">
        <ele>9.865</ele>
      </trkpt>
      <trkpt lat="36.67509" lon="27.62214">
        <ele>9.416</ele>
      </trkpt>
      <trkpt lat="36.67508" lon="27.6221">
        <ele>9.178</ele>
      </trkpt>
      <trkpt lat="36.67504" lon="27.62203">
        <ele>8.652</ele>
      </trkpt>
      <trkpt lat="36.67507" lon="27.62197">
        <ele>9.635</ele>
      </trkpt>
      <trkpt lat="36.67507" lon="27.62195">
        <ele>9.675</ele>
      </trkpt>
      <trkpt lat="36.67505" lon="27.62189">
        <ele>8.933</ele>
      </trkpt>
      <trkpt lat="36.67507" lon="27.62184">
        <ele>9.377</ele>
      </trkpt>
      <trkpt lat="36.67504" lon="27.62179">
        <ele>8.484</ele>
      </trkpt>
      <trkpt lat="36.67499" lon="27.62173">
        <ele>7.139</ele>
      </trkpt>
      <trkpt lat="36.67502" lon="27.62169">
        <ele>7.398</ele>
      </trkpt>
      <trkpt lat="36.67506" lon="27.62168">
        <ele>8.461</ele>
      </trkpt>
      <trkpt lat="36.67508" lon="27.6216">
        <ele>8.311</ele>
      </trkpt>
      <trkpt lat="36.67508" lon="27.62159">
        <ele>8.236</ele>
      </trkpt>
      <trkpt lat="36.67508" lon="27.62158">
        <ele>8.138</ele>
      </trkpt>
      <trkpt lat="36.67508" lon="27.62153">
        <ele>7.785</ele>
      </trkpt>
      <trkpt lat="36.6751" lon="27.6215">
        <ele>7.835</ele>
      </trkpt>
      <trkpt lat="36.67513" lon="27.62146">
        <ele>8.04</ele>
      </trkpt>
      <trkpt lat="36.67514" lon="27.62143">
        <ele>7.838</ele>
      </trkpt>
      <trkpt lat="36.67522" lon="27.62127">
        <ele>7.075</ele>
      </trkpt>
      <trkpt lat="36.67527" lon="27.62121">
        <ele>7.001</ele>
      </trkpt>
      <trkpt lat="36.67529" lon="27.62116">
        <ele>6.737</ele>
      </trkpt>
      <trkpt lat="36.67534" lon="27.62107">
        <ele>6.598</ele>
      </trkpt>
      <trkpt lat="36.67538" lon="27.62104">
        <ele>7.12</ele>
      </trkpt>
      <trkpt lat="36.67546" lon="27.62098">
        <ele>8.313</ele>
      </trkpt>
      <trkpt lat="36.67548" lon="27.62093">
        <ele>8.634</ele>
      </trkpt>
      <trkpt lat="36.6755" lon="27.62086">
        <ele>8.875</ele>
      </trkpt>
      <trkpt lat="36.67551" lon="27.62085">
        <ele>9.042</ele>
      </trkpt>
      <trkpt lat="36.67549" lon="27.62085">
        <ele>8.596</ele>
      </trkpt>
      <trkpt lat="36.67546" lon="27.62088">
        <ele>7.96</ele>
      </trkpt>
      <trkpt lat="36.67541" lon="27.62087">
        <ele>7.078</ele>
      </trkpt>
      <trkpt lat="36.67539" lon="27.62068">
        <ele>7.791</ele>
      </trkpt>
      <trkpt lat="36.67538" lon="27.62063">
        <ele>7.952</ele>
      </trkpt>
      <trkpt lat="36.67542" lon="27.62046">
        <ele>11.243</ele>
      </trkpt>
      <trkpt lat="36.67545" lon="27.62043">
        <ele>12.437</ele>
      </trkpt>
      <trkpt lat="36.6755" lon="27.62045">
        <ele>13.44</ele>
      </trkpt>
      <trkpt lat="36.67549" lon="27.62041">
        <ele>13.735</ele>
      </trkpt>
      <trkpt lat="36.67549" lon="27.62036">
        <ele>14.717</ele>
      </trkpt>
      <trkpt lat="36.67555" lon="27.62033">
        <ele>16.78</ele>
      </trkpt>
      <trkpt lat="36.67553" lon="27.62026">
        <ele>17.844</ele>
      </trkpt>
      <trkpt lat="36.67552" lon="27.62023">
        <ele>18.34</ele>
      </trkpt>
      <trkpt lat="36.67551" lon="27.62017">
        <ele>19.544</ele>
      </trkpt>
      <trkpt lat="36.67548" lon="27.62007">
        <ele>21.09</ele>
      </trkpt>
      <trkpt lat="36.67545" lon="27.62003">
        <ele>20.967</ele>
      </trkpt>
      <trkpt lat="36.67545" lon="27.61998">
        <ele>22.32</ele>
      </trkpt>
      <trkpt lat="36.67544" lon="27.61992">
        <ele>24.209</ele>
      </trkpt>
      <trkpt lat="36.67543" lon="27.61989">
        <ele>24.871</ele>
      </trkpt>
      <trkpt lat="36.67546" lon="27.61985">
        <ele>27.389</ele>
      </trkpt>
      <trkpt lat="36.67545" lon="27.6198">
        <ele>28.59</ele>
      </trkpt>
      <trkpt lat="36.67541" lon="27.61971">
        <ele>29.888</ele>
      </trkpt>
      <trkpt lat="36.67538" lon="27.61967">
        <ele>29.617</ele>
      </trkpt>
      <trkpt lat="36.67536" lon="27.61965">
        <ele>29.185</ele>
      </trkpt>
      <trkpt lat="36.67534" lon="27.61964">
        <ele>28.7</ele>
      </trkpt>
      <trkpt lat="36.67529" lon="27.61959">
        <ele>28.25</ele>
      </trkpt>
      <trkpt lat="36.67524" lon="27.61954">
        <ele>28.112</ele>
      </trkpt>
      <trkpt lat="36.6752" lon="27.61949">
        <ele>28.28</ele>
      </trkpt>
      <trkpt lat="36.67519" lon="27.61946">
        <ele>28.746</ele>
      </trkpt>
      <trkpt lat="36.67519" lon="27.61938">
        <ele>29.88</ele>
      </trkpt>
      <trkpt lat="36.67515" lon="27.61936">
        <ele>29.482</ele>
      </trkpt>
      <trkpt lat="36.67512" lon="27.61936">
        <ele>28.831</ele>
      </trkpt>
      <trkpt lat="36.67508" lon="27.61932">
        <ele>28.658</ele>
      </trkpt>
      <trkpt lat="36.67506" lon="27.61929">
        <ele>28.882</ele>
      </trkpt>
      <trkpt lat="36.67507" lon="27.61921">
        <ele>30.369</ele>
      </trkpt>
      <trkpt lat="36.67508" lon="27.61915">
        <ele>31.209</ele>
      </trkpt>
      <trkpt lat="36.67511" lon="27.61909">
        <ele>31.546</ele>
      </trkpt>
      <trkpt lat="36.67519" lon="27.61906">
        <ele>32.729</ele>
      </trkpt>
      <trkpt lat="36.67521" lon="27.619">
        <ele>32.958</ele>
      </trkpt>
      <trkpt lat="36.67522" lon="27.61893">
        <ele>33.19</ele>
      </trkpt>
      <trkpt lat="36.67521" lon="27.61894">
        <ele>33.086</ele>
      </trkpt>
      <trkpt lat="36.67521" lon="27.61894">
        <ele>33.088</ele>
      </trkpt>
      <trkpt lat="36.67522" lon="27.61895">
        <ele>33.163</ele>
      </trkpt>
      <trkpt lat="36.67529" lon="27.61899">
        <ele>34.085</ele>
      </trkpt>
      <trkpt lat="36.67536" lon="27.61901">
        <ele>34.849</ele>
      </trkpt>
      <trkpt lat="36.67537" lon="27.61901">
        <ele>34.977</ele>
      </trkpt>
      <trkpt lat="36.67546" lon="27.61905">
        <ele>36.039</ele>
      </trkpt>
      <trkpt lat="36.67546" lon="27.61905">
        <ele>36.116</ele>
      </trkpt>
      <trkpt lat="36.67547" lon="27.61901">
        <ele>35.962</ele>
      </trkpt>
      <trkpt lat="36.67545" lon="27.61895">
        <ele>35.499</ele>
      </trkpt>
      <trkpt lat="36.67546" lon="27.61889">
        <ele>35.35</ele>
      </trkpt>
      <trkpt lat="36.67546" lon="27.6189">
        <ele>35.384</ele>
      </trkpt>
      <trkpt lat="36.67551" lon="27.61886">
        <ele>35.093</ele>
      </trkpt>
      <trkpt lat="36.67558" lon="27.61879">
        <ele>33.889</ele>
      </trkpt>
      <trkpt lat="36.67558" lon="27.61878">
        <ele>33.682</ele>
      </trkpt>
      <trkpt lat="36.67562" lon="27.61877">
        <ele>33.42</ele>
      </trkpt>
      <trkpt lat="36.67567" lon="27.61873">
        <ele>32.551</ele>
      </trkpt>
      <trkpt lat="36.67568" lon="27.61869">
        <ele>31.797</ele>
      </trkpt>
      <trkpt lat="36.67571" lon="27.61873">
        <ele>32.507</ele>
      </trkpt>
      <trkpt lat="36.67577" lon="27.61871">
        <ele>32.174</ele>
      </trkpt>
      <trkpt lat="36.67582" lon="27.61869">
        <ele>31.768</ele>
      </trkpt>
      <trkpt lat="36.67582" lon="27.61863">
        <ele>30.434</ele>
      </trkpt>
      <trkpt lat="36.67588" lon="27.61858">
        <ele>30.33</ele>
      </trkpt>
      <trkpt lat="36.6759" lon="27.61852">
        <ele>30.105</ele>
      </trkpt>
      <trkpt lat="36.67594" lon="27.6185">
        <ele>30.861</ele>
      </trkpt>
      <trkpt lat="36.67593" lon="27.61848">
        <ele>30.516</ele>
      </trkpt>
      <trkpt lat="36.67593" lon="27.61846">
        <ele>30.257</ele>
      </trkpt>
      <trkpt lat="36.67593" lon="27.6184">
        <ele>29.575</ele>
      </trkpt>
      <trkpt lat="36.67594" lon="27.61833">
        <ele>29.288</ele>
      </trkpt>
      <trkpt lat="36.67592" lon="27.61824">
        <ele>29.326</ele>
      </trkpt>
      <trkpt lat="36.67589" lon="27.61811">
        <ele>28.925</ele>
      </trkpt>
      <trkpt lat="36.67588" lon="27.61809">
        <ele>28.683</ele>
      </trkpt>
      <trkpt lat="36.67587" lon="27.618">
        <ele>28.993</ele>
      </trkpt>
      <trkpt lat="36.6759" lon="27.61796">
        <ele>30.538</ele>
      </trkpt>
      <trkpt lat="36.67588" lon="27.61787">
        <ele>30.805</ele>
      </trkpt>
      <trkpt lat="36.67588" lon="27.61786">
        <ele>30.85</ele>
      </trkpt>
      <trkpt lat="36.67587" lon="27.61774">
        <ele>31.145</ele>
      </trkpt>
      <trkpt lat="36.67584" lon="27.61764">
        <ele>30.078</ele>
      </trkpt>
      <trkpt lat="36.67584" lon="27.61758">
        <ele>30.099</ele>
      </trkpt>
      <trkpt lat="36.67585" lon="27.61746">
        <ele>29.913</ele>
      </trkpt>
      <trkpt lat="36.67584" lon="27.61745">
        <ele>29.653</ele>
      </trkpt>
      <trkpt lat="36.67584" lon="27.61742">
        <ele>29.174</ele>
      </trkpt>
      <trkpt lat="36.67586" lon="27.61737">
        <ele>29.14</ele>
      </trkpt>
      <trkpt lat="36.67587" lon="27.61733">
        <ele>28.936</ele>
      </trkpt>
      <trkpt lat="36.67594" lon="27.61726">
        <ele>30.212</ele>
      </trkpt>
      <trkpt lat="36.67603" lon="27.61719">
        <ele>31.326</ele>
      </trkpt>
      <trkpt lat="36.67609" lon="27.61713">
        <ele>31.493</ele>
      </trkpt>
      <trkpt lat="36.67615" lon="27.6171">
        <ele>32.042</ele>
      </trkpt>
      <trkpt lat="36.67624" lon="27.61706">
        <ele>33.552</ele>
      </trkpt>
      <trkpt lat="36.67628" lon="27.61707">
        <ele>34.774</ele>
      </trkpt>
      <trkpt lat="36.67629" lon="27.61704">
        <ele>34.593</ele>
      </trkpt>
      <trkpt lat="36.67636" lon="27.61698">
        <ele>34.941</ele>
      </trkpt>
      <trkpt lat="36.67642" lon="27.61696">
        <ele>36.304</ele>
      </trkpt>
      <trkpt lat="36.6765" lon="27.6169">
        <ele>37.303</ele>
      </trkpt>
      <trkpt lat="36.67657" lon="27.61682">
        <ele>38.099</ele>
      </trkpt>
      <trkpt lat="36.67655" lon="27.61673">
        <ele>36.063</ele>
      </trkpt>
      <trkpt lat="36.67655" lon="27.61662">
        <ele>34.906</ele>
      </trkpt>
      <trkpt lat="36.67655" lon="27.6165">
        <ele>33.87</ele>
      </trkpt>
      <trkpt lat="36.67655" lon="27.61646">
        <ele>33.624</ele>
      </trkpt>
      <trkpt lat="36.67655" lon="27.6164">
        <ele>33.432</ele>
      </trkpt>
      <trkpt lat="36.67657" lon="27.61638">
        <ele>33.874</ele>
      </trkpt>
      <trkpt lat="36.67658" lon="27.61636">
        <ele>34.009</ele>
      </trkpt>
      <trkpt lat="36.6766" lon="27.61631">
        <ele>34.003</ele>
      </trkpt>
      <trkpt lat="36.6766" lon="27.61631">
        <ele>34.082</ele>
      </trkpt>
      <trkpt lat="36.67663" lon="27.61623">
        <ele>34.193</ele>
      </trkpt>
      <trkpt lat="36.67664" lon="27.61622">
        <ele>34.367</ele>
      </trkpt>
      <trkpt lat="36.67666" lon="27.61622">
        <ele>34.773</ele>
      </trkpt>
      <trkpt lat="36.67673" lon="27.61617">
        <ele>35.943</ele>
      </trkpt>
      <trkpt lat="36.67675" lon="27.61616">
        <ele>36.123</ele>
      </trkpt>
      <trkpt lat="36.67675" lon="27.61616">
        <ele>36.227</ele>
      </trkpt>
      <trkpt lat="36.67678" lon="27.61615">
        <ele>36.522</ele>
      </trkpt>
      <trkpt lat="36.67677" lon="27.61615">
        <ele>36.478</ele>
      </trkpt>
      <trkpt lat="36.67681" lon="27.61612">
        <ele>36.742</ele>
      </trkpt>
      <trkpt lat="36.67692" lon="27.61603">
        <ele>35.784</ele>
      </trkpt>
      <trkpt lat="36.677" lon="27.61594">
        <ele>32.808</ele>
      </trkpt>
      <trkpt lat="36.67701" lon="27.61594">
        <ele>32.448</ele>
      </trkpt>
      <trkpt lat="36.67705" lon="27.6159">
        <ele>30.847</ele>
      </trkpt>
      <trkpt lat="36.67717" lon="27.61586">
        <ele>28.59</ele>
      </trkpt>
      <trkpt lat="36.67727" lon="27.61585">
        <ele>26.306</ele>
      </trkpt>
      <trkpt lat="36.67736" lon="27.61582">
        <ele>23.051</ele>
      </trkpt>
      <trkpt lat="36.67742" lon="27.61583">
        <ele>21.841</ele>
      </trkpt>
      <trkpt lat="36.67751" lon="27.61583">
        <ele>19.766</ele>
      </trkpt>
      <trkpt lat="36.67761" lon="27.61592">
        <ele>20.487</ele>
      </trkpt>
      <trkpt lat="36.6777" lon="27.61599">
        <ele>20.226</ele>
      </trkpt>
      <trkpt lat="36.67777" lon="27.61607">
        <ele>20.287</ele>
      </trkpt>
      <trkpt lat="36.67781" lon="27.61614">
        <ele>21.03</ele>
      </trkpt>
      <trkpt lat="36.67785" lon="27.61618">
        <ele>21.104</ele>
      </trkpt>
      <trkpt lat="36.67791" lon="27.61623">
        <ele>20.825</ele>
      </trkpt>
      <trkpt lat="36.67798" lon="27.61628">
        <ele>20.017</ele>
      </trkpt>
      <trkpt lat="36.678" lon="27.61635">
        <ele>21.028</ele>
      </trkpt>
      <trkpt lat="36.67808" lon="27.61639">
        <ele>19.389</ele>
      </trkpt>
      <trkpt lat="36.67813" lon="27.61642">
        <ele>18.242</ele>
      </trkpt>
      <trkpt lat="36.67815" lon="27.61642">
        <ele>17.753</ele>
      </trkpt>
      <trkpt lat="36.6782" lon="27.61646">
        <ele>16.696</ele>
      </trkpt>
      <trkpt lat="36.67827" lon="27.61654">
        <ele>15.539</ele>
      </trkpt>
      <trkpt lat="36.67835" lon="27.61659">
        <ele>13.961</ele>
      </trkpt>
      <trkpt lat="36.67842" lon="27.61666">
        <ele>13.154</ele>
      </trkpt>
      <trkpt lat="36.67842" lon="27.61665">
        <ele>12.924</ele>
      </trkpt>
      <trkpt lat="36.67846" lon="27.61671">
        <ele>12.314</ele>
      </trkpt>
      <trkpt lat="36.6785" lon="27.61676">
        <ele>11.727</ele>
      </trkpt>
      <trkpt lat="36.67856" lon="27.61685">
        <ele>10.869</ele>
      </trkpt>
      <trkpt lat="36.67857" lon="27.61688">
        <ele>10.573</ele>
      </trkpt>
      <trkpt lat="36.67858" lon="27.61688">
        <ele>10.509</ele>
      </trkpt>
      <trkpt lat="36.67861" lon="27.61689">
        <ele>9.935</ele>
      </trkpt>
      <trkpt lat="36.67866" lon="27.61695">
        <ele>9.821</ele>
      </trkpt>
      <trkpt lat="36.67869" lon="27.61689">
        <ele>9.436</ele>
      </trkpt>
      <trkpt lat="36.67869" lon="27.61688">
        <ele>9.428</ele>
      </trkpt>
      <trkpt lat="36.67867" lon="27.61684">
        <ele>9.326</ele>
      </trkpt>
      <trkpt lat="36.67872" lon="27.61678">
        <ele>8.796</ele>
      </trkpt>
      <trkpt lat="36.67867" lon="27.61674">
        <ele>8.921</ele>
      </trkpt>
      <trkpt lat="36.67865" lon="27.6167">
        <ele>8.881</ele>
      </trkpt>
      <trkpt lat="36.67865" lon="27.61669">
        <ele>8.855</ele>
      </trkpt>
      <trkpt lat="36.67865" lon="27.61663">
        <ele>8.481</ele>
      </trkpt>
      <trkpt lat="36.67869" lon="27.61649">
        <ele>7.132</ele>
      </trkpt>
      <trkpt lat="36.67873" lon="27.61645">
        <ele>6.577</ele>
      </trkpt>
      <trkpt lat="36.67873" lon="27.61645">
        <ele>6.577</ele>
      </trkpt>
      <trkpt lat="36.67884" lon="27.61629">
        <ele>3.447</ele>
      </trkpt>
      <trkpt lat="36.67898" lon="27.6162">
        <ele>1.321</ele>
      </trkpt>
      <trkpt lat="36.67901" lon="27.61618">
        <ele>1.075</ele>
      </trkpt>
      <trkpt lat="36.67905" lon="27.61614">
        <ele>0.346</ele>
      </trkpt>
      <trkpt lat="36.67913" lon="27.61611">
        <ele>3.5</ele>
      </trkpt>
      <trkpt lat="36.67923" lon="27.61607">
        <ele>0.222</ele>
      </trkpt>
      <trkpt lat="36.67935" lon="27.61593">
        <ele>0.672</ele>
      </trkpt>
      <trkpt lat="36.67945" lon="27.61581">
        <ele>0.901</ele>
      </trkpt>
      <trkpt lat="36.67957" lon="27.61567">
        <ele>0.67</ele>
      </trkpt>
      <trkpt lat="36.6797" lon="27.6155">
        <ele>0.721</ele>
      </trkpt>
      <trkpt lat="36.67976" lon="27.61542">
        <ele>0.571</ele>
      </trkpt>
      <trkpt lat="36.67989" lon="27.61523">
        <ele>0.589</ele>
      </trkpt>
      <trkpt lat="36.67997" lon="27.61509">
        <ele>0.897</ele>
      </trkpt>
      <trkpt lat="36.68005" lon="27.615">
        <ele>1</ele>
      </trkpt>
      <trkpt lat="36.6801" lon="27.6149">
        <ele>0.784</ele>
      </trkpt>
      <trkpt lat="36.68014" lon="27.61487">
        <ele>0.756</ele>
      </trkpt>
      <trkpt lat="36.68024" lon="27.6147">
        <ele>0.855</ele>
      </trkpt>
      <trkpt lat="36.68029" lon="27.61463">
        <ele>0.95</ele>
      </trkpt>
      <trkpt lat="36.68039" lon="27.61445">
        <ele>0.227</ele>
      </trkpt>
      <trkpt lat="36.6805" lon="27.6143">
        <ele>0.227</ele>
      </trkpt>
      <trkpt lat="36.68054" lon="27.61426">
        <ele>0.41</ele>
      </trkpt>
      <trkpt lat="36.68059" lon="27.61421">
        <ele>1.063</ele>
      </trkpt>
      <trkpt lat="36.68058" lon="27.61421">
        <ele>1.029</ele>
      </trkpt>
      <trkpt lat="36.68063" lon="27.61409">
        <ele>1.756</ele>
      </trkpt>
      <trkpt lat="36.68065" lon="27.61408">
        <ele>2.031</ele>
      </trkpt>
      <trkpt lat="36.68066" lon="27.61408">
        <ele>2.133</ele>
      </trkpt>
      <trkpt lat="36.68076" lon="27.61396">
        <ele>3.185</ele>
      </trkpt>
      <trkpt lat="36.68077" lon="27.61394">
        <ele>3.338</ele>
      </trkpt>
      <trkpt lat="36.68092" lon="27.61374">
        <ele>4.738</ele>
      </trkpt>
      <trkpt lat="36.68101" lon="27.61361">
        <ele>5.506</ele>
      </trkpt>
      <trkpt lat="36.68112" lon="27.61354">
        <ele>7.135</ele>
      </trkpt>
      <trkpt lat="36.68121" lon="27.61347">
        <ele>10.332</ele>
      </trkpt>
      <trkpt lat="36.68131" lon="27.61345">
        <ele>14.042</ele>
      </trkpt>
      <trkpt lat="36.68131" lon="27.61336">
        <ele>14.643</ele>
      </trkpt>
      <trkpt lat="36.68134" lon="27.61328">
        <ele>16.395</ele>
      </trkpt>
      <trkpt lat="36.68136" lon="27.61326">
        <ele>17.681</ele>
      </trkpt>
      <trkpt lat="36.68141" lon="27.61325">
        <ele>19.828</ele>
      </trkpt>
      <trkpt lat="36.68147" lon="27.61332">
        <ele>22.142</ele>
      </trkpt>
      <trkpt lat="36.68152" lon="27.61332">
        <ele>24.261</ele>
      </trkpt>
      <trkpt lat="36.68151" lon="27.61331">
        <ele>23.904</ele>
      </trkpt>
      <trkpt lat="36.68149" lon="27.61324">
        <ele>24.102</ele>
      </trkpt>
      <trkpt lat="36.68145" lon="27.61316">
        <ele>23.142</ele>
      </trkpt>
      <trkpt lat="36.68145" lon="27.61312">
        <ele>23.487</ele>
      </trkpt>
      <trkpt lat="36.6814" lon="27.61303">
        <ele>21.755</ele>
      </trkpt>
      <trkpt lat="36.68137" lon="27.61301">
        <ele>20.347</ele>
      </trkpt>
      <trkpt lat="36.68132" lon="27.61292">
        <ele>18.373</ele>
      </trkpt>
      <trkpt lat="36.68132" lon="27.61288">
        <ele>18.704</ele>
      </trkpt>
      <trkpt lat="36.68132" lon="27.61288">
        <ele>18.748</ele>
      </trkpt>
      <trkpt lat="36.68133" lon="27.61288">
        <ele>18.867</ele>
      </trkpt>
      <trkpt lat="36.68137" lon="27.61279">
        <ele>21.211</ele>
      </trkpt>
      <trkpt lat="36.68137" lon="27.61278">
        <ele>21.321</ele>
      </trkpt>
      <trkpt lat="36.68143" lon="27.61269">
        <ele>22.202</ele>
      </trkpt>
      <trkpt lat="36.68149" lon="27.61267">
        <ele>23.614</ele>
      </trkpt>
      <trkpt lat="36.68152" lon="27.6126">
        <ele>23.474</ele>
      </trkpt>
      <trkpt lat="36.68152" lon="27.61261">
        <ele>23.582</ele>
      </trkpt>
      <trkpt lat="36.68155" lon="27.61258">
        <ele>24.158</ele>
      </trkpt>
      <trkpt lat="36.68166" lon="27.61243">
        <ele>24.998</ele>
      </trkpt>
      <trkpt lat="36.68173" lon="27.61237">
        <ele>26.989</ele>
      </trkpt>
      <trkpt lat="36.68182" lon="27.61234">
        <ele>29.952</ele>
      </trkpt>
      <trkpt lat="36.68187" lon="27.6123">
        <ele>31.09</ele>
      </trkpt>
      <trkpt lat="36.68192" lon="27.61226">
        <ele>32.065</ele>
      </trkpt>
      <trkpt lat="36.68192" lon="27.61225">
        <ele>31.848</ele>
      </trkpt>
      <trkpt lat="36.68191" lon="27.61223">
        <ele>30.937</ele>
      </trkpt>
      <trkpt lat="36.6819" lon="27.61214">
        <ele>30.055</ele>
      </trkpt>
      <trkpt lat="36.68192" lon="27.61206">
        <ele>29.986</ele>
      </trkpt>
      <trkpt lat="36.68195" lon="27.61198">
        <ele>30.649</ele>
      </trkpt>
      <trkpt lat="36.68201" lon="27.61194">
        <ele>33.523</ele>
      </trkpt>
      <trkpt lat="36.68201" lon="27.61197">
        <ele>33.968</ele>
      </trkpt>
      <trkpt lat="36.68202" lon="27.61194">
        <ele>34.382</ele>
      </trkpt>
      <trkpt lat="36.68204" lon="27.61187">
        <ele>36.566</ele>
      </trkpt>
      <trkpt lat="36.68205" lon="27.61172">
        <ele>38.772</ele>
      </trkpt>
      <trkpt lat="36.682" lon="27.61164">
        <ele>37.356</ele>
      </trkpt>
      <trkpt lat="36.68204" lon="27.61158">
        <ele>40.607</ele>
      </trkpt>
      <trkpt lat="36.68206" lon="27.61149">
        <ele>43.076</ele>
      </trkpt>
      <trkpt lat="36.68202" lon="27.6114">
        <ele>42.436</ele>
      </trkpt>
      <trkpt lat="36.68204" lon="27.61134">
        <ele>44.5</ele>
      </trkpt>
      <trkpt lat="36.68204" lon="27.61127">
        <ele>46.099</ele>
      </trkpt>
      <trkpt lat="36.68206" lon="27.6112">
        <ele>48.139</ele>
      </trkpt>
      <trkpt lat="36.6821" lon="27.61115">
        <ele>51.116</ele>
      </trkpt>
      <trkpt lat="36.68208" lon="27.6111">
        <ele>51.124</ele>
      </trkpt>
      <trkpt lat="36.68206" lon="27.61111">
        <ele>49.658</ele>
      </trkpt>
      <trkpt lat="36.68202" lon="27.61103">
        <ele>48.905</ele>
      </trkpt>
      <trkpt lat="36.68201" lon="27.61098">
        <ele>48.981</ele>
      </trkpt>
      <trkpt lat="36.68201" lon="27.61095">
        <ele>49.029</ele>
      </trkpt>
      <trkpt lat="36.68201" lon="27.61083">
        <ele>50.454</ele>
      </trkpt>
      <trkpt lat="36.682" lon="27.61077">
        <ele>50.323</ele>
      </trkpt>
      <trkpt lat="36.68196" lon="27.61067">
        <ele>48.396</ele>
      </trkpt>
      <trkpt lat="36.68194" lon="27.61058">
        <ele>47.671</ele>
      </trkpt>
      <trkpt lat="36.68192" lon="27.61049">
        <ele>47.255</ele>
      </trkpt>
      <trkpt lat="36.68194" lon="27.61042">
        <ele>49.214</ele>
      </trkpt>
      <trkpt lat="36.68196" lon="27.61032">
        <ele>51.33</ele>
      </trkpt>
      <trkpt lat="36.68195" lon="27.61034">
        <ele>50.656</ele>
      </trkpt>
      <trkpt lat="36.68197" lon="27.61033">
        <ele>51.786</ele>
      </trkpt>
      <trkpt lat="36.68198" lon="27.6103">
        <ele>52.673</ele>
      </trkpt>
      <trkpt lat="36.68203" lon="27.61019">
        <ele>56.425</ele>
      </trkpt>
      <trkpt lat="36.68202" lon="27.61017">
        <ele>56.204</ele>
      </trkpt>
      <trkpt lat="36.68205" lon="27.61006">
        <ele>59.319</ele>
      </trkpt>
      <trkpt lat="36.68207" lon="27.61002">
        <ele>60.443</ele>
      </trkpt>
      <trkpt lat="36.68208" lon="27.60997">
        <ele>62.018</ele>
      </trkpt>
      <trkpt lat="36.68203" lon="27.60988">
        <ele>60.559</ele>
      </trkpt>
      <trkpt lat="36.68201" lon="27.60983">
        <ele>60.529</ele>
      </trkpt>
      <trkpt lat="36.68198" lon="27.60975">
        <ele>60.446</ele>
      </trkpt>
      <trkpt lat="36.68198" lon="27.6097">
        <ele>60.708</ele>
      </trkpt>
      <trkpt lat="36.68194" lon="27.60953">
        <ele>60.333</ele>
      </trkpt>
      <trkpt lat="36.68192" lon="27.60948">
        <ele>59.167</ele>
      </trkpt>
      <trkpt lat="36.6819" lon="27.6094">
        <ele>56.31</ele>
      </trkpt>
      <trkpt lat="36.68188" lon="27.60939">
        <ele>54.994</ele>
      </trkpt>
      <trkpt lat="36.68187" lon="27.60933">
        <ele>52.921</ele>
      </trkpt>
      <trkpt lat="36.68184" lon="27.60922">
        <ele>47.979</ele>
      </trkpt>
      <trkpt lat="36.68182" lon="27.60918">
        <ele>45.923</ele>
      </trkpt>
      <trkpt lat="36.6818" lon="27.60912">
        <ele>43.185</ele>
      </trkpt>
      <trkpt lat="36.68178" lon="27.60905">
        <ele>41.044</ele>
      </trkpt>
      <trkpt lat="36.68178" lon="27.60903">
        <ele>40.91</ele>
      </trkpt>
      <trkpt lat="36.68183" lon="27.60894">
        <ele>42.732</ele>
      </trkpt>
      <trkpt lat="36.68183" lon="27.60892">
        <ele>42.237</ele>
      </trkpt>
      <trkpt lat="36.68185" lon="27.60885">
        <ele>41.668</ele>
      </trkpt>
      <trkpt lat="36.68186" lon="27.60884">
        <ele>41.705</ele>
      </trkpt>
      <trkpt lat="36.68189" lon="27.6088">
        <ele>42.334</ele>
      </trkpt>
      <trkpt lat="36.68189" lon="27.6088">
        <ele>42.316</ele>
      </trkpt>
      <trkpt lat="36.68191" lon="27.6087">
        <ele>40.812</ele>
      </trkpt>
      <trkpt lat="36.68192" lon="27.60866">
        <ele>40.204</ele>
      </trkpt>
      <trkpt lat="36.68193" lon="27.60861">
        <ele>39.152</ele>
      </trkpt>
      <trkpt lat="36.68197" lon="27.60861">
        <ele>41.412</ele>
      </trkpt>
      <trkpt lat="36.68195" lon="27.60855">
        <ele>38.517</ele>
      </trkpt>
      <trkpt lat="36.68195" lon="27.60843">
        <ele>34.655</ele>
      </trkpt>
      <trkpt lat="36.68196" lon="27.60839">
        <ele>34.408</ele>
      </trkpt>
      <trkpt lat="36.68198" lon="27.60835">
        <ele>34.181</ele>
      </trkpt>
      <trkpt lat="36.682" lon="27.60833">
        <ele>35.064</ele>
      </trkpt>
      <trkpt lat="36.682" lon="27.60833">
        <ele>35.064</ele>
      </trkpt>
      <trkpt lat="36.682" lon="27.60833">
        <ele>35.065</ele>
      </trkpt>
      <trkpt lat="36.68205" lon="27.60829">
        <ele>37.159</ele>
      </trkpt>
      <trkpt lat="36.68211" lon="27.60825">
        <ele>40.198</ele>
      </trkpt>
      <trkpt lat="36.68213" lon="27.60825">
        <ele>41.395</ele>
      </trkpt>
      <trkpt lat="36.68219" lon="27.60824">
        <ele>44.352</ele>
      </trkpt>
      <trkpt lat="36.68227" lon="27.60822">
        <ele>44.786</ele>
      </trkpt>
      <trkpt lat="36.68232" lon="27.60821">
        <ele>43.463</ele>
      </trkpt>
      <trkpt lat="36.68233" lon="27.60821">
        <ele>42.996</ele>
      </trkpt>
      <trkpt lat="36.68238" lon="27.60821">
        <ele>41.961</ele>
      </trkpt>
      <trkpt lat="36.68237" lon="27.60821">
        <ele>42.137</ele>
      </trkpt>
      <trkpt lat="36.6824" lon="27.60818">
        <ele>40.101</ele>
      </trkpt>
      <trkpt lat="36.68251" lon="27.60816">
        <ele>36.883</ele>
      </trkpt>
      <trkpt lat="36.6826" lon="27.60811">
        <ele>29.944</ele>
      </trkpt>
      <trkpt lat="36.68265" lon="27.60814">
        <ele>28.799</ele>
      </trkpt>
      <trkpt lat="36.68267" lon="27.60813">
        <ele>27.157</ele>
      </trkpt>
      <trkpt lat="36.68269" lon="27.60813">
        <ele>25.969</ele>
      </trkpt>
      <trkpt lat="36.68274" lon="27.60814">
        <ele>23.971</ele>
      </trkpt>
      <trkpt lat="36.68276" lon="27.60814">
        <ele>23.12</ele>
      </trkpt>
      <trkpt lat="36.68285" lon="27.60815">
        <ele>21.259</ele>
      </trkpt>
      <trkpt lat="36.68287" lon="27.60814">
        <ele>20.654</ele>
      </trkpt>
      <trkpt lat="36.68288" lon="27.60815">
        <ele>20.705</ele>
      </trkpt>
      <trkpt lat="36.68295" lon="27.60812">
        <ele>18.351</ele>
      </trkpt>
      <trkpt lat="36.68298" lon="27.60811">
        <ele>17.443</ele>
      </trkpt>
      <trkpt lat="36.68304" lon="27.60809">
        <ele>15.75</ele>
      </trkpt>
      <trkpt lat="36.68308" lon="27.60808">
        <ele>14.925</ele>
      </trkpt>
      <trkpt lat="36.6831" lon="27.60803">
        <ele>13.291</ele>
      </trkpt>
      <trkpt lat="36.68313" lon="27.60796">
        <ele>11.558</ele>
      </trkpt>
      <trkpt lat="36.68313" lon="27.60794">
        <ele>11.048</ele>
      </trkpt>
      <trkpt lat="36.68314" lon="27.60794">
        <ele>10.896</ele>
      </trkpt>
      <trkpt lat="36.68319" lon="27.60798">
        <ele>12.05</ele>
      </trkpt>
      <trkpt lat="36.68321" lon="27.60797">
        <ele>11.712</ele>
      </trkpt>
      <trkpt lat="36.68327" lon="27.60795">
        <ele>11.14</ele>
      </trkpt>
      <trkpt lat="36.68329" lon="27.60792">
        <ele>10.087</ele>
      </trkpt>
      <trkpt lat="36.68333" lon="27.60786">
        <ele>8.444</ele>
      </trkpt>
      <trkpt lat="36.68339" lon="27.60778">
        <ele>7.493</ele>
      </trkpt>
      <trkpt lat="36.6834" lon="27.60769">
        <ele>7.134</ele>
      </trkpt>
      <trkpt lat="36.68336" lon="27.60764">
        <ele>6.144</ele>
      </trkpt>
      <trkpt lat="36.68342" lon="27.60757">
        <ele>6.951</ele>
      </trkpt>
      <trkpt lat="36.68342" lon="27.60756">
        <ele>6.92</ele>
      </trkpt>
      <trkpt lat="36.68341" lon="27.60752">
        <ele>6.516</ele>
      </trkpt>
      <trkpt lat="36.68337" lon="27.60738">
        <ele>5.524</ele>
      </trkpt>
      <trkpt lat="36.68333" lon="27.60733">
        <ele>4.998</ele>
      </trkpt>
      <trkpt lat="36.68335" lon="27.60726">
        <ele>5.305</ele>
      </trkpt>
      <trkpt lat="36.68344" lon="27.60709">
        <ele>7.436</ele>
      </trkpt>
      <trkpt lat="36.68352" lon="27.60703">
        <ele>9.118</ele>
      </trkpt>
      <trkpt lat="36.68358" lon="27.60703">
        <ele>9.91</ele>
      </trkpt>
      <trkpt lat="36.68361" lon="27.60698">
        <ele>10.78</ele>
      </trkpt>
      <trkpt lat="36.68366" lon="27.60688">
        <ele>15.594</ele>
      </trkpt>
      <trkpt lat="36.68367" lon="27.60689">
        <ele>15.455</ele>
      </trkpt>
      <trkpt lat="36.6837" lon="27.60692">
        <ele>14.972</ele>
      </trkpt>
      <trkpt lat="36.68377" lon="27.60686">
        <ele>19.899</ele>
      </trkpt>
      <trkpt lat="36.68379" lon="27.60684">
        <ele>21.522</ele>
      </trkpt>
      <trkpt lat="36.68379" lon="27.60685">
        <ele>20.904</ele>
      </trkpt>
      <trkpt lat="36.68387" lon="27.60682">
        <ele>24.717</ele>
      </trkpt>
      <trkpt lat="36.68391" lon="27.60685">
        <ele>24.857</ele>
      </trkpt>
      <trkpt lat="36.68394" lon="27.60687">
        <ele>25.107</ele>
      </trkpt>
      <trkpt lat="36.68399" lon="27.60689">
        <ele>25.997</ele>
      </trkpt>
      <trkpt lat="36.68402" lon="27.60684">
        <ele>29.173</ele>
      </trkpt>
      <trkpt lat="36.68409" lon="27.6068">
        <ele>33.935</ele>
      </trkpt>
      <trkpt lat="36.68409" lon="27.6068">
        <ele>33.863</ele>
      </trkpt>
      <trkpt lat="36.68406" lon="27.60676">
        <ele>34.254</ele>
      </trkpt>
      <trkpt lat="36.68407" lon="27.60673">
        <ele>36.097</ele>
      </trkpt>
      <trkpt lat="36.68407" lon="27.6067">
        <ele>37.249</ele>
      </trkpt>
      <trkpt lat="36.68403" lon="27.60669">
        <ele>35.938</ele>
      </trkpt>
      <trkpt lat="36.68399" lon="27.60671">
        <ele>33.775</ele>
      </trkpt>
      <trkpt lat="36.68395" lon="27.60667">
        <ele>34.188</ele>
      </trkpt>
      <trkpt lat="36.6839" lon="27.6066">
        <ele>33.523</ele>
      </trkpt>
      <trkpt lat="36.68384" lon="27.60656">
        <ele>32.405</ele>
      </trkpt>
      <trkpt lat="36.68381" lon="27.60652">
        <ele>32.14</ele>
      </trkpt>
      <trkpt lat="36.68382" lon="27.60651">
        <ele>32.467</ele>
      </trkpt>
      <trkpt lat="36.68381" lon="27.60642">
        <ele>33.744</ele>
      </trkpt>
      <trkpt lat="36.68381" lon="27.60641">
        <ele>33.949</ele>
      </trkpt>
      <trkpt lat="36.6838" lon="27.60637">
        <ele>34.348</ele>
      </trkpt>
      <trkpt lat="36.68383" lon="27.60632">
        <ele>35.563</ele>
      </trkpt>
      <trkpt lat="36.68387" lon="27.60622">
        <ele>37.481</ele>
      </trkpt>
      <trkpt lat="36.68391" lon="27.60618">
        <ele>38.981</ele>
      </trkpt>
      <trkpt lat="36.68394" lon="27.60624">
        <ele>39.671</ele>
      </trkpt>
      <trkpt lat="36.68396" lon="27.60626">
        <ele>40.28</ele>
      </trkpt>
      <trkpt lat="36.68397" lon="27.60629">
        <ele>40.483</ele>
      </trkpt>
      <trkpt lat="36.68403" lon="27.60629">
        <ele>42.837</ele>
      </trkpt>
      <trkpt lat="36.68406" lon="27.60633">
        <ele>44.158</ele>
      </trkpt>
      <trkpt lat="36.68408" lon="27.60633">
        <ele>44.854</ele>
      </trkpt>
      <trkpt lat="36.68414" lon="27.60625">
        <ele>47.313</ele>
      </trkpt>
      <trkpt lat="36.68409" lon="27.6062">
        <ele>45.373</ele>
      </trkpt>
      <trkpt lat="36.68408" lon="27.60617">
        <ele>45.188</ele>
      </trkpt>
      <trkpt lat="36.68406" lon="27.60613">
        <ele>44.531</ele>
      </trkpt>
      <trkpt lat="36.68407" lon="27.60611">
        <ele>44.687</ele>
      </trkpt>
      <trkpt lat="36.68402" lon="27.606">
        <ele>47.746</ele>
      </trkpt>
      <trkpt lat="36.68401" lon="27.60596">
        <ele>48.573</ele>
      </trkpt>
      <trkpt lat="36.684" lon="27.60594">
        <ele>49.007</ele>
      </trkpt>
      <trkpt lat="36.684" lon="27.60592">
        <ele>49.538</ele>
      </trkpt>
      <trkpt lat="36.68394" lon="27.60589">
        <ele>48.347</ele>
      </trkpt>
      <trkpt lat="36.6839" lon="27.60583">
        <ele>48.539</ele>
      </trkpt>
      <trkpt lat="36.68389" lon="27.60579">
        <ele>49.411</ele>
      </trkpt>
      <trkpt lat="36.68392" lon="27.60574">
        <ele>52.148</ele>
      </trkpt>
      <trkpt lat="36.68391" lon="27.60567">
        <ele>54.209</ele>
      </trkpt>
      <trkpt lat="36.68387" lon="27.60557">
        <ele>54.652</ele>
      </trkpt>
      <trkpt lat="36.68388" lon="27.60544">
        <ele>58.354</ele>
      </trkpt>
      <trkpt lat="36.68383" lon="27.60538">
        <ele>57.062</ele>
      </trkpt>
      <trkpt lat="36.68377" lon="27.60528">
        <ele>54.753</ele>
      </trkpt>
      <trkpt lat="36.68374" lon="27.60523">
        <ele>52.63</ele>
      </trkpt>
      <trkpt lat="36.68376" lon="27.60525">
        <ele>53.839</ele>
      </trkpt>
      <trkpt lat="36.68376" lon="27.60508">
        <ele>54.658</ele>
      </trkpt>
      <trkpt lat="36.68376" lon="27.605">
        <ele>55.142</ele>
      </trkpt>
      <trkpt lat="36.68382" lon="27.60493">
        <ele>60.615</ele>
      </trkpt>
      <trkpt lat="36.6838" lon="27.60488">
        <ele>58.747</ele>
      </trkpt>
      <trkpt lat="36.68386" lon="27.60481">
        <ele>63.622</ele>
      </trkpt>
      <trkpt lat="36.68385" lon="27.60475">
        <ele>62.811</ele>
      </trkpt>
      <trkpt lat="36.68381" lon="27.60471">
        <ele>58.745</ele>
      </trkpt>
      <trkpt lat="36.68377" lon="27.60465">
        <ele>56.181</ele>
      </trkpt>
      <trkpt lat="36.68378" lon="27.60452">
        <ele>57.473</ele>
      </trkpt>
      <trkpt lat="36.68377" lon="27.6045">
        <ele>55.982</ele>
      </trkpt>
      <trkpt lat="36.68375" lon="27.60436">
        <ele>56.387</ele>
      </trkpt>
      <trkpt lat="36.68368" lon="27.60419">
        <ele>55.894</ele>
      </trkpt>
      <trkpt lat="36.68366" lon="27.60403">
        <ele>58.616</ele>
      </trkpt>
      <trkpt lat="36.68367" lon="27.60391">
        <ele>62.784</ele>
      </trkpt>
      <trkpt lat="36.68368" lon="27.60389">
        <ele>63.718</ele>
      </trkpt>
      <trkpt lat="36.68363" lon="27.60382">
        <ele>62.62</ele>
      </trkpt>
      <trkpt lat="36.68359" lon="27.60378">
        <ele>61.838</ele>
      </trkpt>
      <trkpt lat="36.68358" lon="27.60375">
        <ele>61.793</ele>
      </trkpt>
      <trkpt lat="36.68358" lon="27.60366">
        <ele>64.047</ele>
      </trkpt>
      <trkpt lat="36.68356" lon="27.60361">
        <ele>64.297</ele>
      </trkpt>
      <trkpt lat="36.68347" lon="27.60359">
        <ele>60.72</ele>
      </trkpt>
      <trkpt lat="36.6834" lon="27.60356">
        <ele>58.413</ele>
      </trkpt>
      <trkpt lat="36.68333" lon="27.60347">
        <ele>57.738</ele>
      </trkpt>
      <trkpt lat="36.68329" lon="27.60339">
        <ele>58.484</ele>
      </trkpt>
      <trkpt lat="36.68328" lon="27.60338">
        <ele>58.625</ele>
      </trkpt>
      <trkpt lat="36.68324" lon="27.60325">
        <ele>60.378</ele>
      </trkpt>
      <trkpt lat="36.68322" lon="27.60318">
        <ele>61.661</ele>
      </trkpt>
      <trkpt lat="36.6832" lon="27.60304">
        <ele>66.086</ele>
      </trkpt>
      <trkpt lat="36.68319" lon="27.60301">
        <ele>67.186</ele>
      </trkpt>
      <trkpt lat="36.68307" lon="27.60294">
        <ele>65.451</ele>
      </trkpt>
      <trkpt lat="36.68304" lon="27.60291">
        <ele>65.788</ele>
      </trkpt>
      <trkpt lat="36.68297" lon="27.60285">
        <ele>65.832</ele>
      </trkpt>
      <trkpt lat="36.68294" lon="27.60283">
        <ele>65.91</ele>
      </trkpt>
      <trkpt lat="36.68291" lon="27.60279">
        <ele>66.518</ele>
      </trkpt>
      <trkpt lat="36.6829" lon="27.60271">
        <ele>69.41</ele>
      </trkpt>
      <trkpt lat="36.68289" lon="27.60271">
        <ele>69.035</ele>
      </trkpt>
      <trkpt lat="36.68285" lon="27.60272">
        <ele>66.515</ele>
      </trkpt>
      <trkpt lat="36.6828" lon="27.6026">
        <ele>67.921</ele>
      </trkpt>
      <trkpt lat="36.68279" lon="27.60257">
        <ele>68.458</ele>
      </trkpt>
      <trkpt lat="36.68277" lon="27.60248">
        <ele>70.024</ele>
      </trkpt>
      <trkpt lat="36.68276" lon="27.60247">
        <ele>69.666</ele>
      </trkpt>
      <trkpt lat="36.68274" lon="27.60242">
        <ele>69.786</ele>
      </trkpt>
      <trkpt lat="36.68266" lon="27.60232">
        <ele>67.299</ele>
      </trkpt>
      <trkpt lat="36.68264" lon="27.6023">
        <ele>66.474</ele>
      </trkpt>
      <trkpt lat="36.68256" lon="27.60222">
        <ele>64.205</ele>
      </trkpt>
      <trkpt lat="36.6825" lon="27.60213">
        <ele>62.461</ele>
      </trkpt>
      <trkpt lat="36.68254" lon="27.60197">
        <ele>66.126</ele>
      </trkpt>
      <trkpt lat="36.68252" lon="27.60194">
        <ele>65.915</ele>
      </trkpt>
      <trkpt lat="36.68255" lon="27.60191">
        <ele>67.327</ele>
      </trkpt>
      <trkpt lat="36.68256" lon="27.60186">
        <ele>68.349</ele>
      </trkpt>
      <trkpt lat="36.68256" lon="27.60185">
        <ele>68.522</ele>
      </trkpt>
      <trkpt lat="36.68261" lon="27.60176">
        <ele>71.705</ele>
      </trkpt>
      <trkpt lat="36.6826" lon="27.60176">
        <ele>71.49</ele>
      </trkpt>
      <trkpt lat="36.68249" lon="27.60169">
        <ele>66.894</ele>
      </trkpt>
      <trkpt lat="36.68242" lon="27.60167">
        <ele>62.826</ele>
      </trkpt>
      <trkpt lat="36.68226" lon="27.60163">
        <ele>54.375</ele>
      </trkpt>
      <trkpt lat="36.68224" lon="27.60162">
        <ele>53.278</ele>
      </trkpt>
      <trkpt lat="36.68216" lon="27.60161">
        <ele>48.326</ele>
      </trkpt>
      <trkpt lat="36.6821" lon="27.60161">
        <ele>44.532</ele>
      </trkpt>
      <trkpt lat="36.68198" lon="27.60154">
        <ele>38.785</ele>
      </trkpt>
      <trkpt lat="36.68197" lon="27.60156">
        <ele>37.655</ele>
      </trkpt>
      <trkpt lat="36.68195" lon="27.60155">
        <ele>37.115</ele>
      </trkpt>
      <trkpt lat="36.68195" lon="27.60154">
        <ele>37.202</ele>
      </trkpt>
      <trkpt lat="36.68196" lon="27.60154">
        <ele>37.413</ele>
      </trkpt>
      <trkpt lat="36.68196" lon="27.60154">
        <ele>37.509</ele>
      </trkpt>
      <trkpt lat="36.68192" lon="27.60147">
        <ele>37.519</ele>
      </trkpt>
      <trkpt lat="36.68189" lon="27.60136">
        <ele>38.974</ele>
      </trkpt>
      <trkpt lat="36.68187" lon="27.6013">
        <ele>40.069</ele>
      </trkpt>
      <trkpt lat="36.68186" lon="27.6012">
        <ele>42.41</ele>
      </trkpt>
      <trkpt lat="36.68185" lon="27.60114">
        <ele>43.748</ele>
      </trkpt>
      <trkpt lat="36.68186" lon="27.60109">
        <ele>44.997</ele>
      </trkpt>
      <trkpt lat="36.68186" lon="27.60105">
        <ele>45.274</ele>
      </trkpt>
      <trkpt lat="36.68187" lon="27.60097">
        <ele>46.075</ele>
      </trkpt>
      <trkpt lat="36.68188" lon="27.60096">
        <ele>46.562</ele>
      </trkpt>
      <trkpt lat="36.6819" lon="27.60093">
        <ele>47.442</ele>
      </trkpt>
      <trkpt lat="36.68195" lon="27.60083">
        <ele>50.115</ele>
      </trkpt>
      <trkpt lat="36.68201" lon="27.60075">
        <ele>54.933</ele>
      </trkpt>
      <trkpt lat="36.68203" lon="27.60072">
        <ele>56.824</ele>
      </trkpt>
      <trkpt lat="36.68205" lon="27.60064">
        <ele>59.065</ele>
      </trkpt>
      <trkpt lat="36.68205" lon="27.60063">
        <ele>59.166</ele>
      </trkpt>
      <trkpt lat="36.68201" lon="27.60058">
        <ele>56.562</ele>
      </trkpt>
      <trkpt lat="36.68195" lon="27.60055">
        <ele>51.331</ele>
      </trkpt>
      <trkpt lat="36.68187" lon="27.60049">
        <ele>48.171</ele>
      </trkpt>
      <trkpt lat="36.68178" lon="27.60041">
        <ele>44.729</ele>
      </trkpt>
      <trkpt lat="36.68172" lon="27.60024">
        <ele>45.061</ele>
      </trkpt>
      <trkpt lat="36.68167" lon="27.60018">
        <ele>43.932</ele>
      </trkpt>
      <trkpt lat="36.6816" lon="27.60007">
        <ele>45.198</ele>
      </trkpt>
      <trkpt lat="36.68161" lon="27.60001">
        <ele>47.494</ele>
      </trkpt>
      <trkpt lat="36.68161" lon="27.5999">
        <ele>50.755</ele>
      </trkpt>
      <trkpt lat="36.68163" lon="27.59979">
        <ele>55.221</ele>
      </trkpt>
      <trkpt lat="36.68161" lon="27.59975">
        <ele>55.461</ele>
      </trkpt>
      <trkpt lat="36.68153" lon="27.59969">
        <ele>53.128</ele>
      </trkpt>
      <trkpt lat="36.68152" lon="27.59962">
        <ele>54.326</ele>
      </trkpt>
      <trkpt lat="36.68153" lon="27.5996">
        <ele>55.346</ele>
      </trkpt>
      <trkpt lat="36.68152" lon="27.59958">
        <ele>55.508</ele>
      </trkpt>
      <trkpt lat="36.68147" lon="27.59952">
        <ele>54.993</ele>
      </trkpt>
      <trkpt lat="36.68141" lon="27.59947">
        <ele>53.098</ele>
      </trkpt>
      <trkpt lat="36.68138" lon="27.59938">
        <ele>53.431</ele>
      </trkpt>
      <trkpt lat="36.68137" lon="27.59936">
        <ele>53.124</ele>
      </trkpt>
      <trkpt lat="36.68133" lon="27.59926">
        <ele>52.329</ele>
      </trkpt>
      <trkpt lat="36.68127" lon="27.59916">
        <ele>49.908</ele>
      </trkpt>
      <trkpt lat="36.68123" lon="27.59909">
        <ele>46.722</ele>
      </trkpt>
      <trkpt lat="36.68119" lon="27.59895">
        <ele>42.485</ele>
      </trkpt>
      <trkpt lat="36.68118" lon="27.59895">
        <ele>41.902</ele>
      </trkpt>
      <trkpt lat="36.68119" lon="27.59891">
        <ele>41.597</ele>
      </trkpt>
      <trkpt lat="36.68124" lon="27.59883">
        <ele>42.762</ele>
      </trkpt>
      <trkpt lat="36.68124" lon="27.59881">
        <ele>42.362</ele>
      </trkpt>
      <trkpt lat="36.68125" lon="27.59881">
        <ele>42.54</ele>
      </trkpt>
      <trkpt lat="36.68135" lon="27.59872">
        <ele>44.403</ele>
      </trkpt>
      <trkpt lat="36.68137" lon="27.59869">
        <ele>44.425</ele>
      </trkpt>
      <trkpt lat="36.68141" lon="27.59866">
        <ele>44.767</ele>
      </trkpt>
      <trkpt lat="36.68146" lon="27.59862">
        <ele>44.838</ele>
      </trkpt>
      <trkpt lat="36.68147" lon="27.59861">
        <ele>44.769</ele>
      </trkpt>
      <trkpt lat="36.68148" lon="27.59857">
        <ele>43.909</ele>
      </trkpt>
      <trkpt lat="36.6815" lon="27.59856">
        <ele>43.63</ele>
      </trkpt>
      <trkpt lat="36.68157" lon="27.59846">
        <ele>41.174</ele>
      </trkpt>
      <trkpt lat="36.68163" lon="27.5984">
        <ele>39.433</ele>
      </trkpt>
      <trkpt lat="36.68168" lon="27.59832">
        <ele>36.919</ele>
      </trkpt>
      <trkpt lat="36.68172" lon="27.59828">
        <ele>36.372</ele>
      </trkpt>
      <trkpt lat="36.68175" lon="27.59822">
        <ele>35.065</ele>
      </trkpt>
      <trkpt lat="36.68175" lon="27.5982">
        <ele>34.483</ele>
      </trkpt>
      <trkpt lat="36.6818" lon="27.5981">
        <ele>32.476</ele>
      </trkpt>
      <trkpt lat="36.6818" lon="27.59807">
        <ele>31.919</ele>
      </trkpt>
      <trkpt lat="36.68181" lon="27.59799">
        <ele>29.447</ele>
      </trkpt>
      <trkpt lat="36.68181" lon="27.59796">
        <ele>28.493</ele>
      </trkpt>
      <trkpt lat="36.68181" lon="27.59792">
        <ele>27.482</ele>
      </trkpt>
      <trkpt lat="36.68182" lon="27.59786">
        <ele>25.562</ele>
      </trkpt>
      <trkpt lat="36.68184" lon="27.59781">
        <ele>24.364</ele>
      </trkpt>
      <trkpt lat="36.68184" lon="27.5978">
        <ele>24.076</ele>
      </trkpt>
      <trkpt lat="36.68187" lon="27.59771">
        <ele>22.551</ele>
      </trkpt>
      <trkpt lat="36.68183" lon="27.59769">
        <ele>20.755</ele>
      </trkpt>
      <trkpt lat="36.68177" lon="27.59758">
        <ele>16.427</ele>
      </trkpt>
      <trkpt lat="36.68177" lon="27.59756">
        <ele>15.706</ele>
      </trkpt>
      <trkpt lat="36.68178" lon="27.59753">
        <ele>15.321</ele>
      </trkpt>
      <trkpt lat="36.68182" lon="27.59746">
        <ele>14.063</ele>
      </trkpt>
      <trkpt lat="36.68183" lon="27.59744">
        <ele>13.78</ele>
      </trkpt>
      <trkpt lat="36.68189" lon="27.59745">
        <ele>14.763</ele>
      </trkpt>
      <trkpt lat="36.68195" lon="27.59742">
        <ele>14.632</ele>
      </trkpt>
      <trkpt lat="36.682" lon="27.59739">
        <ele>13.281</ele>
      </trkpt>
      <trkpt lat="36.68203" lon="27.59737">
        <ele>12.452</ele>
      </trkpt>
      <trkpt lat="36.68203" lon="27.59735">
        <ele>11.867</ele>
      </trkpt>
      <trkpt lat="36.68203" lon="27.59735">
        <ele>11.747</ele>
      </trkpt>
      <trkpt lat="36.68202" lon="27.59734">
        <ele>11.226</ele>
      </trkpt>
      <trkpt lat="36.68202" lon="27.59733">
        <ele>10.73</ele>
      </trkpt>
      <trkpt lat="36.68201" lon="27.5973">
        <ele>9.542</ele>
      </trkpt>
      <trkpt lat="36.68201" lon="27.59725">
        <ele>7.606</ele>
      </trkpt>
      <trkpt lat="36.68203" lon="27.59722">
        <ele>6.306</ele>
      </trkpt>
      <trkpt lat="36.68204" lon="27.59717">
        <ele>5.295</ele>
      </trkpt>
      <trkpt lat="36.68207" lon="27.59719">
        <ele>5.714</ele>
      </trkpt>
      <trkpt lat="36.68208" lon="27.59718">
        <ele>5.375</ele>
      </trkpt>
      <trkpt lat="36.68208" lon="27.59708">
        <ele>3.217</ele>
      </trkpt>
      <trkpt lat="36.68207" lon="27.59704">
        <ele>2.342</ele>
      </trkpt>
      <trkpt lat="36.68205" lon="27.59698">
        <ele>0.933</ele>
      </trkpt>
      <trkpt lat="36.6821" lon="27.59681">
        <ele>-0.102</ele>
      </trkpt>
      <trkpt lat="36.68216" lon="27.59668">
        <ele>-0.523</ele>
      </trkpt>
      <trkpt lat="36.68222" lon="27.59657">
        <ele>-0.654</ele>
      </trkpt>
      <trkpt lat="36.68226" lon="27.59651">
        <ele>-0.067</ele>
      </trkpt>
      <trkpt lat="36.68232" lon="27.59637">
        <ele>0.653</ele>
      </trkpt>
      <trkpt lat="36.68238" lon="27.59626">
        <ele>0.857</ele>
      </trkpt>
      <trkpt lat="36.68238" lon="27.59626">
        <ele>0.878</ele>
      </trkpt>
      <trkpt lat="36.68241" lon="27.59622">
        <ele>0.955</ele>
      </trkpt>
      <trkpt lat="36.68247" lon="27.59607">
        <ele>0.771</ele>
      </trkpt>
      <trkpt lat="36.68252" lon="27.59592">
        <ele>0.391</ele>
      </trkpt>
      <trkpt lat="36.68255" lon="27.59581">
        <ele>0.128</ele>
      </trkpt>
      <trkpt lat="36.6826" lon="27.59569">
        <ele>0.359</ele>
      </trkpt>
      <trkpt lat="36.68262" lon="27.59562">
        <ele>0.642</ele>
      </trkpt>
      <trkpt lat="36.68263" lon="27.59561">
        <ele>0.794</ele>
      </trkpt>
      <trkpt lat="36.68264" lon="27.59561">
        <ele>0.881</ele>
      </trkpt>
      <trkpt lat="36.68272" lon="27.59563">
        <ele>1.868</ele>
      </trkpt>
      <trkpt lat="36.6828" lon="27.59558">
        <ele>3.122</ele>
      </trkpt>
      <trkpt lat="36.68283" lon="27.59558">
        <ele>3.381</ele>
      </trkpt>
      <trkpt lat="36.68287" lon="27.59549">
        <ele>5.29</ele>
      </trkpt>
      <trkpt lat="36.68295" lon="27.59545">
        <ele>7.141</ele>
      </trkpt>
      <trkpt lat="36.68298" lon="27.59545">
        <ele>7.32</ele>
      </trkpt>
      <trkpt lat="36.6831" lon="27.59541">
        <ele>9.683</ele>
      </trkpt>
      <trkpt lat="36.68318" lon="27.59544">
        <ele>9.888</ele>
      </trkpt>
      <trkpt lat="36.68328" lon="27.59539">
        <ele>11.808</ele>
      </trkpt>
      <trkpt lat="36.68333" lon="27.59538">
        <ele>12.542</ele>
      </trkpt>
      <trkpt lat="36.6834" lon="27.59537">
        <ele>13.39</ele>
      </trkpt>
      <trkpt lat="36.68346" lon="27.59542">
        <ele>13.859</ele>
      </trkpt>
      <trkpt lat="36.68352" lon="27.59538">
        <ele>14.802</ele>
      </trkpt>
      <trkpt lat="36.68353" lon="27.59538">
        <ele>14.966</ele>
      </trkpt>
      <trkpt lat="36.6836" lon="27.59535">
        <ele>15.847</ele>
      </trkpt>
      <trkpt lat="36.68367" lon="27.59533">
        <ele>16.93</ele>
      </trkpt>
      <trkpt lat="36.6837" lon="27.59528">
        <ele>17.59</ele>
      </trkpt>
      <trkpt lat="36.68379" lon="27.59538">
        <ele>18.804</ele>
      </trkpt>
      <trkpt lat="36.68387" lon="27.5953">
        <ele>20.422</ele>
      </trkpt>
      <trkpt lat="36.68388" lon="27.59529">
        <ele>20.816</ele>
      </trkpt>
      <trkpt lat="36.68388" lon="27.59529">
        <ele>20.814</ele>
      </trkpt>
      <trkpt lat="36.68389" lon="27.5953">
        <ele>20.836</ele>
      </trkpt>
      <trkpt lat="36.6839" lon="27.59522">
        <ele>22.303</ele>
      </trkpt>
      <trkpt lat="36.68394" lon="27.59523">
        <ele>22.752</ele>
      </trkpt>
      <trkpt lat="36.68399" lon="27.5952">
        <ele>23.894</ele>
      </trkpt>
      <trkpt lat="36.68401" lon="27.59518">
        <ele>24.683</ele>
      </trkpt>
      <trkpt lat="36.68406" lon="27.59517">
        <ele>25.611</ele>
      </trkpt>
      <trkpt lat="36.6841" lon="27.59516">
        <ele>26.5</ele>
      </trkpt>
      <trkpt lat="36.6841" lon="27.59515">
        <ele>26.837</ele>
      </trkpt>
      <trkpt lat="36.68411" lon="27.59513">
        <ele>27.303</ele>
      </trkpt>
      <trkpt lat="36.68415" lon="27.59512">
        <ele>28.299</ele>
      </trkpt>
      <trkpt lat="36.68415" lon="27.5951">
        <ele>28.735</ele>
      </trkpt>
      <trkpt lat="36.68418" lon="27.59504">
        <ele>31.047</ele>
      </trkpt>
      <trkpt lat="36.68417" lon="27.59503">
        <ele>31.182</ele>
      </trkpt>
      <trkpt lat="36.68421" lon="27.59497">
        <ele>33.353</ele>
      </trkpt>
      <trkpt lat="36.68424" lon="27.59495">
        <ele>34.401</ele>
      </trkpt>
      <trkpt lat="36.68431" lon="27.59494">
        <ele>35.28</ele>
      </trkpt>
      <trkpt lat="36.68431" lon="27.59494">
        <ele>35.323</ele>
      </trkpt>
      <trkpt lat="36.6843" lon="27.59486">
        <ele>37.496</ele>
      </trkpt>
      <trkpt lat="36.6843" lon="27.59485">
        <ele>37.694</ele>
      </trkpt>
      <trkpt lat="36.68432" lon="27.59483">
        <ele>38.353</ele>
      </trkpt>
      <trkpt lat="36.68434" lon="27.59478">
        <ele>39.95</ele>
      </trkpt>
      <trkpt lat="36.68437" lon="27.59475">
        <ele>40.853</ele>
      </trkpt>
      <trkpt lat="36.68438" lon="27.59474">
        <ele>41.347</ele>
      </trkpt>
      <trkpt lat="36.68438" lon="27.59474">
        <ele>41.263</ele>
      </trkpt>
      <trkpt lat="36.68439" lon="27.5947">
        <ele>42.692</ele>
      </trkpt>
      <trkpt lat="36.68439" lon="27.5947">
        <ele>42.718</ele>
      </trkpt>
      <trkpt lat="36.68441" lon="27.59466">
        <ele>44.26</ele>
      </trkpt>
      <trkpt lat="36.68442" lon="27.59465">
        <ele>44.635</ele>
      </trkpt>
      <trkpt lat="36.68445" lon="27.59464">
        <ele>45.142</ele>
      </trkpt>
      <trkpt lat="36.68446" lon="27.59464">
        <ele>45.002</ele>
      </trkpt>
      <trkpt lat="36.68447" lon="27.59461">
        <ele>46.394</ele>
      </trkpt>
      <trkpt lat="36.68448" lon="27.59456">
        <ele>48.373</ele>
      </trkpt>
      <trkpt lat="36.6845" lon="27.59452">
        <ele>49.792</ele>
      </trkpt>
      <trkpt lat="36.68449" lon="27.5945">
        <ele>50.749</ele>
      </trkpt>
      <trkpt lat="36.68448" lon="27.59445">
        <ele>52.341</ele>
      </trkpt>
      <trkpt lat="36.68448" lon="27.59442">
        <ele>53.746</ele>
      </trkpt>
      <trkpt lat="36.6845" lon="27.59438">
        <ele>55.805</ele>
      </trkpt>
      <trkpt lat="36.6845" lon="27.59436">
        <ele>56.371</ele>
      </trkpt>
      <trkpt lat="36.68451" lon="27.59436">
        <ele>56.811</ele>
      </trkpt>
      <trkpt lat="36.6845" lon="27.59434">
        <ele>57.601</ele>
      </trkpt>
      <trkpt lat="36.68451" lon="27.59429">
        <ele>59.781</ele>
      </trkpt>
      <trkpt lat="36.68451" lon="27.59429">
        <ele>59.601</ele>
      </trkpt>
      <trkpt lat="36.68454" lon="27.59426">
        <ele>61.572</ele>
      </trkpt>
      <trkpt lat="36.68456" lon="27.5942">
        <ele>64.283</ele>
      </trkpt>
      <trkpt lat="36.68457" lon="27.59418">
        <ele>65.352</ele>
      </trkpt>
      <trkpt lat="36.68458" lon="27.59415">
        <ele>66.733</ele>
      </trkpt>
      <trkpt lat="36.68457" lon="27.59415">
        <ele>66.671</ele>
      </trkpt>
      <trkpt lat="36.68457" lon="27.59416">
        <ele>66.323</ele>
      </trkpt>
      <trkpt lat="36.6846" lon="27.5941">
        <ele>68.616</ele>
      </trkpt>
      <trkpt lat="36.68462" lon="27.59407">
        <ele>69.995</ele>
      </trkpt>
      <trkpt lat="36.68464" lon="27.59407">
        <ele>70.179</ele>
      </trkpt>
      <trkpt lat="36.68467" lon="27.59403">
        <ele>72.396</ele>
      </trkpt>
      <trkpt lat="36.68467" lon="27.59403">
        <ele>72.342</ele>
      </trkpt>
      <trkpt lat="36.68468" lon="27.59402">
        <ele>72.906</ele>
      </trkpt>
      <trkpt lat="36.68473" lon="27.59399">
        <ele>74.891</ele>
      </trkpt>
      <trkpt lat="36.68474" lon="27.59398">
        <ele>75.212</ele>
      </trkpt>
      <trkpt lat="36.68476" lon="27.59396">
        <ele>76.093</ele>
      </trkpt>
      <trkpt lat="36.68481" lon="27.59393">
        <ele>77.85</ele>
      </trkpt>
      <trkpt lat="36.68484" lon="27.59387">
        <ele>80.764</ele>
      </trkpt>
      <trkpt lat="36.68486" lon="27.59387">
        <ele>80.904</ele>
      </trkpt>
      <trkpt lat="36.68487" lon="27.59386">
        <ele>81.497</ele>
      </trkpt>
      <trkpt lat="36.6849" lon="27.5938">
        <ele>84.874</ele>
      </trkpt>
      <trkpt lat="36.68491" lon="27.5938">
        <ele>84.789</ele>
      </trkpt>
      <trkpt lat="36.68493" lon="27.59379">
        <ele>85.549</ele>
      </trkpt>
      <trkpt lat="36.68497" lon="27.59378">
        <ele>85.693</ele>
      </trkpt>
      <trkpt lat="36.68502" lon="27.59377">
        <ele>86.978</ele>
      </trkpt>
      <trkpt lat="36.68505" lon="27.59375">
        <ele>88.232</ele>
      </trkpt>
      <trkpt lat="36.68505" lon="27.59375">
        <ele>88.401</ele>
      </trkpt>
      <trkpt lat="36.68507" lon="27.59375">
        <ele>88.477</ele>
      </trkpt>
      <trkpt lat="36.68507" lon="27.59376">
        <ele>88.461</ele>
      </trkpt>
      <trkpt lat="36.68511" lon="27.59375">
        <ele>89.249</ele>
      </trkpt>
      <trkpt lat="36.68511" lon="27.59374">
        <ele>90.13</ele>
      </trkpt>
      <trkpt lat="36.68515" lon="27.59368">
        <ele>94.181</ele>
      </trkpt>
      <trkpt lat="36.68521" lon="27.59365">
        <ele>97.512</ele>
      </trkpt>
      <trkpt lat="36.68521" lon="27.59365">
        <ele>98.128</ele>
      </trkpt>
      <trkpt lat="36.68522" lon="27.59364">
        <ele>98.442</ele>
      </trkpt>
      <trkpt lat="36.68523" lon="27.59361">
        <ele>100.711</ele>
      </trkpt>
      <trkpt lat="36.68524" lon="27.59358">
        <ele>103.05</ele>
      </trkpt>
      <trkpt lat="36.68526" lon="27.59353">
        <ele>106.298</ele>
      </trkpt>
      <trkpt lat="36.68526" lon="27.59353">
        <ele>106.204</ele>
      </trkpt>
      <trkpt lat="36.68527" lon="27.59351">
        <ele>107.265</ele>
      </trkpt>
      <trkpt lat="36.6853" lon="27.59344">
        <ele>110.998</ele>
      </trkpt>
      <trkpt lat="36.68532" lon="27.59342">
        <ele>111.873</ele>
      </trkpt>
      <trkpt lat="36.68536" lon="27.59336">
        <ele>114.192</ele>
      </trkpt>
      <trkpt lat="36.68536" lon="27.59333">
        <ele>115.305</ele>
      </trkpt>
      <trkpt lat="36.68535" lon="27.59333">
        <ele>115.6</ele>
      </trkpt>
      <trkpt lat="36.68543" lon="27.59325">
        <ele>116.72</ele>
      </trkpt>
      <trkpt lat="36.68546" lon="27.59324">
        <ele>116.798</ele>
      </trkpt>
      <trkpt lat="36.6855" lon="27.59319">
        <ele>117.427</ele>
      </trkpt>
      <trkpt lat="36.68551" lon="27.59317">
        <ele>118.236</ele>
      </trkpt>
      <trkpt lat="36.68552" lon="27.59313">
        <ele>119.171</ele>
      </trkpt>
      <trkpt lat="36.68552" lon="27.59312">
        <ele>119.764</ele>
      </trkpt>
      <trkpt lat="36.68554" lon="27.59309">
        <ele>120.06</ele>
      </trkpt>
      <trkpt lat="36.68556" lon="27.59308">
        <ele>120.03</ele>
      </trkpt>
      <trkpt lat="36.68556" lon="27.59308">
        <ele>119.901</ele>
      </trkpt>
      <trkpt lat="36.68558" lon="27.59305">
        <ele>120.687</ele>
      </trkpt>
      <trkpt lat="36.68556" lon="27.59299">
        <ele>123.715</ele>
      </trkpt>
      <trkpt lat="36.68554" lon="27.59303">
        <ele>122.697</ele>
      </trkpt>
      <trkpt lat="36.68557" lon="27.59299">
        <ele>123.488</ele>
      </trkpt>
      <trkpt lat="36.68558" lon="27.59299">
        <ele>123.489</ele>
      </trkpt>
      <trkpt lat="36.68559" lon="27.59295">
        <ele>124.756</ele>
      </trkpt>
      <trkpt lat="36.68561" lon="27.59292">
        <ele>125.845</ele>
      </trkpt>
      <trkpt lat="36.68562" lon="27.59289">
        <ele>127.123</ele>
      </trkpt>
      <trkpt lat="36.68564" lon="27.59286">
        <ele>128.005</ele>
      </trkpt>
      <trkpt lat="36.68565" lon="27.59283">
        <ele>129.353</ele>
      </trkpt>
      <trkpt lat="36.68568" lon="27.5928">
        <ele>129.937</ele>
      </trkpt>
      <trkpt lat="36.68568" lon="27.59277">
        <ele>131.996</ele>
      </trkpt>
      <trkpt lat="36.68569" lon="27.59274">
        <ele>133.859</ele>
      </trkpt>
      <trkpt lat="36.68571" lon="27.59272">
        <ele>135.112</ele>
      </trkpt>
      <trkpt lat="36.68572" lon="27.59271">
        <ele>135.676</ele>
      </trkpt>
      <trkpt lat="36.68571" lon="27.59272">
        <ele>134.971</ele>
      </trkpt>
      <trkpt lat="36.68572" lon="27.59272">
        <ele>134.968</ele>
      </trkpt>
      <trkpt lat="36.68574" lon="27.5927">
        <ele>136.241</ele>
      </trkpt>
      <trkpt lat="36.68575" lon="27.59266">
        <ele>138.639</ele>
      </trkpt>
      <trkpt lat="36.68576" lon="27.59263">
        <ele>140.384</ele>
      </trkpt>
      <trkpt lat="36.68578" lon="27.59259">
        <ele>142.976</ele>
      </trkpt>
      <trkpt lat="36.68578" lon="27.59259">
        <ele>142.879</ele>
      </trkpt>
      <trkpt lat="36.68578" lon="27.59259">
        <ele>142.819</ele>
      </trkpt>
      <trkpt lat="36.68579" lon="27.59256">
        <ele>144.802</ele>
      </trkpt>
      <trkpt lat="36.68577" lon="27.59253">
        <ele>147.149</ele>
      </trkpt>
      <trkpt lat="36.68578" lon="27.59251">
        <ele>148.729</ele>
      </trkpt>
      <trkpt lat="36.68579" lon="27.59244">
        <ele>152.123</ele>
      </trkpt>
      <trkpt lat="36.68579" lon="27.59238">
        <ele>155.896</ele>
      </trkpt>
      <trkpt lat="36.6858" lon="27.59233">
        <ele>158.532</ele>
      </trkpt>
      <trkpt lat="36.6858" lon="27.59231">
        <ele>159.53</ele>
      </trkpt>
      <trkpt lat="36.68583" lon="27.59227">
        <ele>161.31</ele>
      </trkpt>
      <trkpt lat="36.68585" lon="27.59223">
        <ele>163.701</ele>
      </trkpt>
      <trkpt lat="36.68584" lon="27.59218">
        <ele>166.855</ele>
      </trkpt>
      <trkpt lat="36.68584" lon="27.59217">
        <ele>167.324</ele>
      </trkpt>
      <trkpt lat="36.68585" lon="27.59213">
        <ele>169.873</ele>
      </trkpt>
      <trkpt lat="36.68585" lon="27.59217">
        <ele>167.764</ele>
      </trkpt>
      <trkpt lat="36.68586" lon="27.59217">
        <ele>167.668</ele>
      </trkpt>
      <trkpt lat="36.68586" lon="27.59215">
        <ele>169.012</ele>
      </trkpt>
      <trkpt lat="36.68586" lon="27.59212">
        <ele>170.855</ele>
      </trkpt>
      <trkpt lat="36.68588" lon="27.59206">
        <ele>174.649</ele>
      </trkpt>
      <trkpt lat="36.6859" lon="27.59204">
        <ele>176.068</ele>
      </trkpt>
      <trkpt lat="36.6859" lon="27.59203">
        <ele>176.343</ele>
      </trkpt>
      <trkpt lat="36.68595" lon="27.59201">
        <ele>177.332</ele>
      </trkpt>
      <trkpt lat="36.68595" lon="27.592">
        <ele>177.58</ele>
      </trkpt>
      <trkpt lat="36.68595" lon="27.592">
        <ele>177.67</ele>
      </trkpt>
      <trkpt lat="36.68596" lon="27.59201">
        <ele>177.472</ele>
      </trkpt>
      <trkpt lat="36.686" lon="27.59198">
        <ele>178.712</ele>
      </trkpt>
      <trkpt lat="36.68606" lon="27.5919">
        <ele>181.249</ele>
      </trkpt>
      <trkpt lat="36.68608" lon="27.59186">
        <ele>182.275</ele>
      </trkpt>
      <trkpt lat="36.68608" lon="27.59185">
        <ele>182.851</ele>
      </trkpt>
      <trkpt lat="36.68612" lon="27.59185">
        <ele>182.624</ele>
      </trkpt>
      <trkpt lat="36.68614" lon="27.59183">
        <ele>183.761</ele>
      </trkpt>
      <trkpt lat="36.68622" lon="27.59177">
        <ele>186.92</ele>
      </trkpt>
      <trkpt lat="36.68627" lon="27.59174">
        <ele>188.307</ele>
      </trkpt>
      <trkpt lat="36.68627" lon="27.59174">
        <ele>188.31</ele>
      </trkpt>
      <trkpt lat="36.68627" lon="27.59174">
        <ele>188.317</ele>
      </trkpt>
      <trkpt lat="36.68628" lon="27.59174">
        <ele>188.21</ele>
      </trkpt>
      <trkpt lat="36.68627" lon="27.59175">
        <ele>188.102</ele>
      </trkpt>
      <trkpt lat="36.68627" lon="27.59175">
        <ele>188.086</ele>
      </trkpt>
      <trkpt lat="36.68628" lon="27.59174">
        <ele>188.331</ele>
      </trkpt>
      <trkpt lat="36.68629" lon="27.59174">
        <ele>188.479</ele>
      </trkpt>
      <trkpt lat="36.68629" lon="27.59174">
        <ele>188.521</ele>
      </trkpt>
      <trkpt lat="36.6863" lon="27.59174">
        <ele>188.761</ele>
      </trkpt>
      <trkpt lat="36.68633" lon="27.59173">
        <ele>189.143</ele>
      </trkpt>
      <trkpt lat="36.68633" lon="27.59173">
        <ele>189.256</ele>
      </trkpt>
      <trkpt lat="36.68633" lon="27.59171">
        <ele>189.559</ele>
      </trkpt>
      <trkpt lat="36.68633" lon="27.59171">
        <ele>189.713</ele>
      </trkpt>
      <trkpt lat="36.68634" lon="27.59171">
        <ele>189.751</ele>
      </trkpt>
      <trkpt lat="36.68635" lon="27.5917">
        <ele>190.06</ele>
      </trkpt>
      <trkpt lat="36.68638" lon="27.59167">
        <ele>190.877</ele>
      </trkpt>
      <trkpt lat="36.6864" lon="27.59165">
        <ele>191.354</ele>
      </trkpt>
      <trkpt lat="36.6864" lon="27.59164">
        <ele>191.507</ele>
      </trkpt>
      <trkpt lat="36.6864" lon="27.59164">
        <ele>191.574</ele>
      </trkpt>
      <trkpt lat="36.68641" lon="27.59164">
        <ele>191.478</ele>
      </trkpt>
      <trkpt lat="36.68641" lon="27.59158">
        <ele>192.478</ele>
      </trkpt>
      <trkpt lat="36.68642" lon="27.59157">
        <ele>192.526</ele>
      </trkpt>
      <trkpt lat="36.68642" lon="27.59157">
        <ele>192.571</ele>
      </trkpt>
      <trkpt lat="36.68642" lon="27.59157">
        <ele>192.643</ele>
      </trkpt>
      <trkpt lat="36.68644" lon="27.59151">
        <ele>193.527</ele>
      </trkpt>
      <trkpt lat="36.68645" lon="27.5915">
        <ele>193.62</ele>
      </trkpt>
      <trkpt lat="36.68651" lon="27.59149">
        <ele>193.965</ele>
      </trkpt>
      <trkpt lat="36.68652" lon="27.59148">
        <ele>194.183</ele>
      </trkpt>
      <trkpt lat="36.68658" lon="27.59149">
        <ele>194.305</ele>
      </trkpt>
      <trkpt lat="36.68664" lon="27.59151">
        <ele>194.467</ele>
      </trkpt>
      <trkpt lat="36.68668" lon="27.59146">
        <ele>194.933</ele>
      </trkpt>
      <trkpt lat="36.68673" lon="27.59141">
        <ele>195.601</ele>
      </trkpt>
      <trkpt lat="36.68675" lon="27.59139">
        <ele>195.822</ele>
      </trkpt>
      <trkpt lat="36.68679" lon="27.59132">
        <ele>195.069</ele>
      </trkpt>
      <trkpt lat="36.68679" lon="27.59128">
        <ele>194.485</ele>
      </trkpt>
      <trkpt lat="36.68677" lon="27.59128">
        <ele>194.271</ele>
      </trkpt>
      <trkpt lat="36.68674" lon="27.59122">
        <ele>192.861</ele>
      </trkpt>
      <trkpt lat="36.68675" lon="27.59119">
        <ele>192.623</ele>
      </trkpt>
      <trkpt lat="36.68677" lon="27.59117">
        <ele>192.383</ele>
      </trkpt>
      <trkpt lat="36.68683" lon="27.59112">
        <ele>192.502</ele>
      </trkpt>
      <trkpt lat="36.68686" lon="27.59108">
        <ele>192.25</ele>
      </trkpt>
      <trkpt lat="36.68688" lon="27.59097">
        <ele>190.789</ele>
      </trkpt>
      <trkpt lat="36.68689" lon="27.59089">
        <ele>189.829</ele>
      </trkpt>
      <trkpt lat="36.68692" lon="27.59083">
        <ele>189.357</ele>
      </trkpt>
      <trkpt lat="36.6869" lon="27.59081">
        <ele>188.915</ele>
      </trkpt>
      <trkpt lat="36.68687" lon="27.59081">
        <ele>188.28</ele>
      </trkpt>
      <trkpt lat="36.68689" lon="27.59078">
        <ele>188.473</ele>
      </trkpt>
      <trkpt lat="36.68691" lon="27.59074">
        <ele>188.836</ele>
      </trkpt>
      <trkpt lat="36.6869" lon="27.59068">
        <ele>188.336</ele>
      </trkpt>
      <trkpt lat="36.68687" lon="27.59067">
        <ele>187.556</ele>
      </trkpt>
      <trkpt lat="36.68685" lon="27.59067">
        <ele>186.976</ele>
      </trkpt>
      <trkpt lat="36.68682" lon="27.59061">
        <ele>185.673</ele>
      </trkpt>
      <trkpt lat="36.6868" lon="27.59058">
        <ele>185.007</ele>
      </trkpt>
      <trkpt lat="36.68678" lon="27.59053">
        <ele>184.182</ele>
      </trkpt>
      <trkpt lat="36.68672" lon="27.59045">
        <ele>182.482</ele>
      </trkpt>
      <trkpt lat="36.68666" lon="27.5904">
        <ele>180.871</ele>
      </trkpt>
      <trkpt lat="36.68662" lon="27.59037">
        <ele>180.264</ele>
      </trkpt>
      <trkpt lat="36.6866" lon="27.59041">
        <ele>180.036</ele>
      </trkpt>
      <trkpt lat="36.68659" lon="27.59038">
        <ele>179.791</ele>
      </trkpt>
      <trkpt lat="36.68659" lon="27.59037">
        <ele>179.621</ele>
      </trkpt>
      <trkpt lat="36.68654" lon="27.59034">
        <ele>178.727</ele>
      </trkpt>
      <trkpt lat="36.68654" lon="27.59032">
        <ele>178.487</ele>
      </trkpt>
      <trkpt lat="36.68655" lon="27.59028">
        <ele>178.44</ele>
      </trkpt>
      <trkpt lat="36.68656" lon="27.59024">
        <ele>178.511</ele>
      </trkpt>
      <trkpt lat="36.68658" lon="27.59019">
        <ele>178.572</ele>
      </trkpt>
      <trkpt lat="36.68657" lon="27.59015">
        <ele>178.205</ele>
      </trkpt>
      <trkpt lat="36.68653" lon="27.5901">
        <ele>176.701</ele>
      </trkpt>
      <trkpt lat="36.6865" lon="27.59008">
        <ele>175.849</ele>
      </trkpt>
      <trkpt lat="36.68647" lon="27.59004">
        <ele>174.773</ele>
      </trkpt>
      <trkpt lat="36.68646" lon="27.58995">
        <ele>173.426</ele>
      </trkpt>
      <trkpt lat="36.68644" lon="27.58989">
        <ele>172.221</ele>
      </trkpt>
      <trkpt lat="36.68643" lon="27.58984">
        <ele>171.403</ele>
      </trkpt>
      <trkpt lat="36.68643" lon="27.58983">
        <ele>171.312</ele>
      </trkpt>
      <trkpt lat="36.6864" lon="27.58981">
        <ele>170.132</ele>
      </trkpt>
      <trkpt lat="36.68638" lon="27.58978">
        <ele>169.519</ele>
      </trkpt>
      <trkpt lat="36.68639" lon="27.58975">
        <ele>169.191</ele>
      </trkpt>
      <trkpt lat="36.68637" lon="27.58969">
        <ele>168.294</ele>
      </trkpt>
      <trkpt lat="36.68636" lon="27.5896">
        <ele>166.598</ele>
      </trkpt>
      <trkpt lat="36.68637" lon="27.58956">
        <ele>166.207</ele>
      </trkpt>
      <trkpt lat="36.68633" lon="27.58946">
        <ele>163.849</ele>
      </trkpt>
      <trkpt lat="36.68631" lon="27.58941">
        <ele>162.231</ele>
      </trkpt>
      <trkpt lat="36.68629" lon="27.58938">
        <ele>161.297</ele>
      </trkpt>
      <trkpt lat="36.68629" lon="27.58929">
        <ele>159.331</ele>
      </trkpt>
      <trkpt lat="36.68628" lon="27.58923">
        <ele>157.735</ele>
      </trkpt>
      <trkpt lat="36.68627" lon="27.58918">
        <ele>156.464</ele>
      </trkpt>
      <trkpt lat="36.68627" lon="27.58915">
        <ele>155.83</ele>
      </trkpt>
      <trkpt lat="36.68627" lon="27.58911">
        <ele>154.863</ele>
      </trkpt>
      <trkpt lat="36.68627" lon="27.58911">
        <ele>154.863</ele>
      </trkpt>
      <trkpt lat="36.68626" lon="27.5891">
        <ele>154.572</ele>
      </trkpt>
      <trkpt lat="36.68626" lon="27.5891">
        <ele>154.492</ele>
      </trkpt>
      <trkpt lat="36.68628" lon="27.5891">
        <ele>154.672</ele>
      </trkpt>
      <trkpt lat="36.68629" lon="27.58909">
        <ele>154.509</ele>
      </trkpt>
      <trkpt lat="36.68628" lon="27.58902">
        <ele>152.709</ele>
      </trkpt>
      <trkpt lat="36.68627" lon="27.58898">
        <ele>151.668</ele>
      </trkpt>
      <trkpt lat="36.68628" lon="27.58897">
        <ele>151.42</ele>
      </trkpt>
      <trkpt lat="36.68629" lon="27.58889">
        <ele>149.58</ele>
      </trkpt>
      <trkpt lat="36.6863" lon="27.58883">
        <ele>147.921</ele>
      </trkpt>
      <trkpt lat="36.68634" lon="27.58875">
        <ele>145.472</ele>
      </trkpt>
      <trkpt lat="36.68635" lon="27.58868">
        <ele>143.499</ele>
      </trkpt>
      <trkpt lat="36.68634" lon="27.58862">
        <ele>141.489</ele>
      </trkpt>
      <trkpt lat="36.68634" lon="27.58855">
        <ele>140.204</ele>
      </trkpt>
      <trkpt lat="36.68631" lon="27.58846">
        <ele>138.627</ele>
      </trkpt>
      <trkpt lat="36.6863" lon="27.58839">
        <ele>137.323</ele>
      </trkpt>
      <trkpt lat="36.6863" lon="27.58837">
        <ele>137.05</ele>
      </trkpt>
      <trkpt lat="36.6863" lon="27.58835">
        <ele>136.586</ele>
      </trkpt>
      <trkpt lat="36.6863" lon="27.58831">
        <ele>135.844</ele>
      </trkpt>
      <trkpt lat="36.68631" lon="27.58823">
        <ele>134.493</ele>
      </trkpt>
      <trkpt lat="36.68631" lon="27.58823">
        <ele>134.5</ele>
      </trkpt>
      <trkpt lat="36.68629" lon="27.58823">
        <ele>134.639</ele>
      </trkpt>
      <trkpt lat="36.68629" lon="27.58818">
        <ele>133.721</ele>
      </trkpt>
      <trkpt lat="36.6863" lon="27.58813">
        <ele>132.823</ele>
      </trkpt>
      <trkpt lat="36.6863" lon="27.58805">
        <ele>131.504</ele>
      </trkpt>
      <trkpt lat="36.68634" lon="27.588">
        <ele>130.464</ele>
      </trkpt>
      <trkpt lat="36.68637" lon="27.58796">
        <ele>129.457</ele>
      </trkpt>
      <trkpt lat="36.68641" lon="27.5879">
        <ele>128.364</ele>
      </trkpt>
      <trkpt lat="36.68646" lon="27.58787">
        <ele>128.176</ele>
      </trkpt>
      <trkpt lat="36.68647" lon="27.58786">
        <ele>128.065</ele>
      </trkpt>
      <trkpt lat="36.68647" lon="27.58774">
        <ele>125.906</ele>
      </trkpt>
      <trkpt lat="36.68646" lon="27.5877">
        <ele>125.005</ele>
      </trkpt>
      <trkpt lat="36.68647" lon="27.58766">
        <ele>124.355</ele>
      </trkpt>
      <trkpt lat="36.68647" lon="27.58761">
        <ele>123.494</ele>
      </trkpt>
      <trkpt lat="36.6865" lon="27.58758">
        <ele>122.908</ele>
      </trkpt>
      <trkpt lat="36.68652" lon="27.58755">
        <ele>122.498</ele>
      </trkpt>
      <trkpt lat="36.68656" lon="27.58753">
        <ele>122.256</ele>
      </trkpt>
      <trkpt lat="36.68655" lon="27.58748">
        <ele>121.193</ele>
      </trkpt>
      <trkpt lat="36.68655" lon="27.58747">
        <ele>120.821</ele>
      </trkpt>
      <trkpt lat="36.6866" lon="27.58743">
        <ele>119.824</ele>
      </trkpt>
      <trkpt lat="36.6866" lon="27.58741">
        <ele>119.138</ele>
      </trkpt>
      <trkpt lat="36.68661" lon="27.58738">
        <ele>118.081</ele>
      </trkpt>
      <trkpt lat="36.68662" lon="27.58736">
        <ele>117.562</ele>
      </trkpt>
      <trkpt lat="36.68661" lon="27.58736">
        <ele>117.634</ele>
      </trkpt>
      <trkpt lat="36.68662" lon="27.58738">
        <ele>118.058</ele>
      </trkpt>
      <trkpt lat="36.68665" lon="27.5874">
        <ele>118.589</ele>
      </trkpt>
      <trkpt lat="36.68668" lon="27.5874">
        <ele>118.51</ele>
      </trkpt>
      <trkpt lat="36.68669" lon="27.58738">
        <ele>118.089</ele>
      </trkpt>
      <trkpt lat="36.68669" lon="27.58733">
        <ele>116.108</ele>
      </trkpt>
      <trkpt lat="36.6867" lon="27.58731">
        <ele>115.562</ele>
      </trkpt>
      <trkpt lat="36.68672" lon="27.58729">
        <ele>114.746</ele>
      </trkpt>
      <trkpt lat="36.68672" lon="27.58725">
        <ele>113.415</ele>
      </trkpt>
      <trkpt lat="36.68673" lon="27.58722">
        <ele>112.239</ele>
      </trkpt>
      <trkpt lat="36.68675" lon="27.58717">
        <ele>110.919</ele>
      </trkpt>
      <trkpt lat="36.68672" lon="27.58715">
        <ele>110.205</ele>
      </trkpt>
      <trkpt lat="36.68671" lon="27.58712">
        <ele>109.446</ele>
      </trkpt>
      <trkpt lat="36.68672" lon="27.58712">
        <ele>109.247</ele>
      </trkpt>
      <trkpt lat="36.68675" lon="27.58712">
        <ele>109.185</ele>
      </trkpt>
      <trkpt lat="36.68677" lon="27.58709">
        <ele>108.208</ele>
      </trkpt>
      <trkpt lat="36.6868" lon="27.58707">
        <ele>107.412</ele>
      </trkpt>
      <trkpt lat="36.68683" lon="27.58702">
        <ele>105.193</ele>
      </trkpt>
      <trkpt lat="36.68688" lon="27.58698">
        <ele>102.815</ele>
      </trkpt>
      <trkpt lat="36.68691" lon="27.58695">
        <ele>100.827</ele>
      </trkpt>
      <trkpt lat="36.68693" lon="27.58691">
        <ele>99.55</ele>
      </trkpt>
      <trkpt lat="36.68698" lon="27.58685">
        <ele>98.325</ele>
      </trkpt>
      <trkpt lat="36.687" lon="27.5868">
        <ele>97.628</ele>
      </trkpt>
      <trkpt lat="36.68702" lon="27.58674">
        <ele>96.305</ele>
      </trkpt>
      <trkpt lat="36.68704" lon="27.5867">
        <ele>95.456</ele>
      </trkpt>
      <trkpt lat="36.68706" lon="27.58665">
        <ele>94.586</ele>
      </trkpt>
      <trkpt lat="36.68709" lon="27.58659">
        <ele>93.684</ele>
      </trkpt>
      <trkpt lat="36.68711" lon="27.58653">
        <ele>92.798</ele>
      </trkpt>
      <trkpt lat="36.68712" lon="27.58651">
        <ele>92.28</ele>
      </trkpt>
      <trkpt lat="36.68719" lon="27.58649">
        <ele>91.572</ele>
      </trkpt>
      <trkpt lat="36.68724" lon="27.58646">
        <ele>91.129</ele>
      </trkpt>
      <trkpt lat="36.68724" lon="27.58644">
        <ele>90.592</ele>
      </trkpt>
      <trkpt lat="36.68725" lon="27.58637">
        <ele>88.892</ele>
      </trkpt>
      <trkpt lat="36.68726" lon="27.58632">
        <ele>88.071</ele>
      </trkpt>
      <trkpt lat="36.68733" lon="27.58623">
        <ele>86.947</ele>
      </trkpt>
      <trkpt lat="36.68734" lon="27.5862">
        <ele>86.3</ele>
      </trkpt>
      <trkpt lat="36.68733" lon="27.58618">
        <ele>85.562</ele>
      </trkpt>
      <trkpt lat="36.68737" lon="27.58616">
        <ele>85.928</ele>
      </trkpt>
      <trkpt lat="36.68736" lon="27.58609">
        <ele>84.138</ele>
      </trkpt>
      <trkpt lat="36.68736" lon="27.58606">
        <ele>83.644</ele>
      </trkpt>
      <trkpt lat="36.68736" lon="27.58599">
        <ele>82.497</ele>
      </trkpt>
      <trkpt lat="36.68736" lon="27.58597">
        <ele>82.204</ele>
      </trkpt>
      <trkpt lat="36.68737" lon="27.58592">
        <ele>81.671</ele>
      </trkpt>
      <trkpt lat="36.68742" lon="27.58585">
        <ele>81.764</ele>
      </trkpt>
      <trkpt lat="36.68742" lon="27.58582">
        <ele>81.464</ele>
      </trkpt>
      <trkpt lat="36.68743" lon="27.58571">
        <ele>80.497</ele>
      </trkpt>
      <trkpt lat="36.68743" lon="27.58569">
        <ele>80.249</ele>
      </trkpt>
      <trkpt lat="36.68743" lon="27.58567">
        <ele>79.923</ele>
      </trkpt>
      <trkpt lat="36.68741" lon="27.58564">
        <ele>79.003</ele>
      </trkpt>
      <trkpt lat="36.68742" lon="27.58561">
        <ele>78.663</ele>
      </trkpt>
      <trkpt lat="36.68741" lon="27.58555">
        <ele>77.788</ele>
      </trkpt>
      <trkpt lat="36.68742" lon="27.58548">
        <ele>77.144</ele>
      </trkpt>
      <trkpt lat="36.6874" lon="27.58544">
        <ele>75.697</ele>
      </trkpt>
      <trkpt lat="36.68739" lon="27.58538">
        <ele>74.726</ele>
      </trkpt>
      <trkpt lat="36.68739" lon="27.5853">
        <ele>73.502</ele>
      </trkpt>
      <trkpt lat="36.68739" lon="27.58523">
        <ele>72.608</ele>
      </trkpt>
      <trkpt lat="36.68741" lon="27.58514">
        <ele>71.98</ele>
      </trkpt>
      <trkpt lat="36.6874" lon="27.5851">
        <ele>71.055</ele>
      </trkpt>
      <trkpt lat="36.6874" lon="27.58505">
        <ele>70.181</ele>
      </trkpt>
      <trkpt lat="36.68739" lon="27.58497">
        <ele>69.28</ele>
      </trkpt>
      <trkpt lat="36.68738" lon="27.58495">
        <ele>68.576</ele>
      </trkpt>
      <trkpt lat="36.68737" lon="27.58492">
        <ele>68.031</ele>
      </trkpt>
      <trkpt lat="36.68739" lon="27.58485">
        <ele>68.364</ele>
      </trkpt>
      <trkpt lat="36.68738" lon="27.58482">
        <ele>68.109</ele>
      </trkpt>
      <trkpt lat="36.68737" lon="27.58478">
        <ele>67.111</ele>
      </trkpt>
      <trkpt lat="36.68738" lon="27.5847">
        <ele>67.243</ele>
      </trkpt>
      <trkpt lat="36.68736" lon="27.58463">
        <ele>66.168</ele>
      </trkpt>
      <trkpt lat="36.68736" lon="27.58459">
        <ele>65.826</ele>
      </trkpt>
      <trkpt lat="36.68735" lon="27.58454">
        <ele>65.089</ele>
      </trkpt>
      <trkpt lat="36.68734" lon="27.58448">
        <ele>64.693</ele>
      </trkpt>
      <trkpt lat="36.68733" lon="27.58441">
        <ele>63.822</ele>
      </trkpt>
      <trkpt lat="36.68731" lon="27.58433">
        <ele>62.443</ele>
      </trkpt>
      <trkpt lat="36.6873" lon="27.58431">
        <ele>61.959</ele>
      </trkpt>
      <trkpt lat="36.68728" lon="27.58429">
        <ele>61.205</ele>
      </trkpt>
      <trkpt lat="36.68728" lon="27.58428">
        <ele>61.055</ele>
      </trkpt>
      <trkpt lat="36.68725" lon="27.58424">
        <ele>60.049</ele>
      </trkpt>
      <trkpt lat="36.68725" lon="27.58421">
        <ele>59.874</ele>
      </trkpt>
      <trkpt lat="36.68722" lon="27.58416">
        <ele>58.776</ele>
      </trkpt>
      <trkpt lat="36.68719" lon="27.5841">
        <ele>56.911</ele>
      </trkpt>
      <trkpt lat="36.68717" lon="27.5841">
        <ele>56.084</ele>
      </trkpt>
      <trkpt lat="36.68716" lon="27.58408">
        <ele>55.376</ele>
      </trkpt>
      <trkpt lat="36.68712" lon="27.58403">
        <ele>53.317</ele>
      </trkpt>
      <trkpt lat="36.6871" lon="27.58401">
        <ele>52.367</ele>
      </trkpt>
      <trkpt lat="36.68711" lon="27.58396">
        <ele>52.077</ele>
      </trkpt>
      <trkpt lat="36.68705" lon="27.58392">
        <ele>49.198</ele>
      </trkpt>
      <trkpt lat="36.68704" lon="27.58387">
        <ele>48.427</ele>
      </trkpt>
      <trkpt lat="36.68694" lon="27.58368">
        <ele>41.995</ele>
      </trkpt>
      <trkpt lat="36.68694" lon="27.58363">
        <ele>41.011</ele>
      </trkpt>
      <trkpt lat="36.68693" lon="27.58362">
        <ele>40.803</ele>
      </trkpt>
      <trkpt lat="36.68695" lon="27.58356">
        <ele>39.638</ele>
      </trkpt>
      <trkpt lat="36.68694" lon="27.58357">
        <ele>39.649</ele>
      </trkpt>
      <trkpt lat="36.68691" lon="27.58357">
        <ele>38.912</ele>
      </trkpt>
      <trkpt lat="36.6869" lon="27.58352">
        <ele>37.34</ele>
      </trkpt>
      <trkpt lat="36.68693" lon="27.58347">
        <ele>36.558</ele>
      </trkpt>
      <trkpt lat="36.68695" lon="27.5834">
        <ele>34.91</ele>
      </trkpt>
      <trkpt lat="36.68695" lon="27.58333">
        <ele>33.17</ele>
      </trkpt>
      <trkpt lat="36.68697" lon="27.58328">
        <ele>32.451</ele>
      </trkpt>
      <trkpt lat="36.68698" lon="27.58321">
        <ele>31.153</ele>
      </trkpt>
      <trkpt lat="36.68698" lon="27.5832">
        <ele>30.748</ele>
      </trkpt>
      <trkpt lat="36.68697" lon="27.5832">
        <ele>30.575</ele>
      </trkpt>
      <trkpt lat="36.68698" lon="27.58316">
        <ele>29.745</ele>
      </trkpt>
      <trkpt lat="36.687" lon="27.58314">
        <ele>29.677</ele>
      </trkpt>
      <trkpt lat="36.687" lon="27.58314">
        <ele>29.677</ele>
      </trkpt>
      <trkpt lat="36.68703" lon="27.58313">
        <ele>29.78</ele>
      </trkpt>
      <trkpt lat="36.68703" lon="27.58313">
        <ele>29.861</ele>
      </trkpt>
      <trkpt lat="36.68706" lon="27.58304">
        <ele>27.611</ele>
      </trkpt>
      <trkpt lat="36.68708" lon="27.58303">
        <ele>27.414</ele>
      </trkpt>
      <trkpt lat="36.68705" lon="27.58303">
        <ele>27.267</ele>
      </trkpt>
      <trkpt lat="36.68701" lon="27.58303">
        <ele>26.951</ele>
      </trkpt>
      <trkpt lat="36.687" lon="27.58303">
        <ele>26.877</ele>
      </trkpt>
      <trkpt lat="36.68697" lon="27.58303">
        <ele>26.709</ele>
      </trkpt>
      <trkpt lat="36.68695" lon="27.58299">
        <ele>25.946</ele>
      </trkpt>
      <trkpt lat="36.68695" lon="27.58298">
        <ele>25.722</ele>
      </trkpt>
      <trkpt lat="36.68694" lon="27.583">
        <ele>25.985</ele>
      </trkpt>
      <trkpt lat="36.68701" lon="27.58275">
        <ele>21.953</ele>
      </trkpt>
      <trkpt lat="36.68702" lon="27.58273">
        <ele>21.806</ele>
      </trkpt>
      <trkpt lat="36.68706" lon="27.58268">
        <ele>21.515</ele>
      </trkpt>
      <trkpt lat="36.68711" lon="27.58266">
        <ele>21.524</ele>
      </trkpt>
      <trkpt lat="36.68712" lon="27.58264">
        <ele>21.508</ele>
      </trkpt>
      <trkpt lat="36.68717" lon="27.58263">
        <ele>21.641</ele>
      </trkpt>
      <trkpt lat="36.6872" lon="27.58259">
        <ele>21.543</ele>
      </trkpt>
      <trkpt lat="36.68718" lon="27.58252">
        <ele>20.834</ele>
      </trkpt>
      <trkpt lat="36.68718" lon="27.5825">
        <ele>20.692</ele>
      </trkpt>
      <trkpt lat="36.68716" lon="27.58248">
        <ele>20.539</ele>
      </trkpt>
      <trkpt lat="36.68714" lon="27.58246">
        <ele>20.384</ele>
      </trkpt>
      <trkpt lat="36.68711" lon="27.58241">
        <ele>20.202</ele>
      </trkpt>
      <trkpt lat="36.68709" lon="27.58241">
        <ele>20.042</ele>
      </trkpt>
      <trkpt lat="36.68704" lon="27.58238">
        <ele>19.719</ele>
      </trkpt>
      <trkpt lat="36.68702" lon="27.5824">
        <ele>19.526</ele>
      </trkpt>
      <trkpt lat="36.68696" lon="27.58238">
        <ele>19.086</ele>
      </trkpt>
      <trkpt lat="36.6869" lon="27.58239">
        <ele>19</ele>
      </trkpt>
      <trkpt lat="36.68687" lon="27.58238">
        <ele>19</ele>
      </trkpt>
      <trkpt lat="36.68679" lon="27.58231">
        <ele>19</ele>
      </trkpt>
      <trkpt lat="36.68677" lon="27.58229">
        <ele>19</ele>
      </trkpt>
      <trkpt lat="36.68675" lon="27.58226">
        <ele>19</ele>
      </trkpt>
      <trkpt lat="36.68675" lon="27.58221">
        <ele>19.015</ele>
      </trkpt>
      <trkpt lat="36.68673" lon="27.58212">
        <ele>19.087</ele>
      </trkpt>
      <trkpt lat="36.68674" lon="27.58205">
        <ele>19.159</ele>
      </trkpt>
      <trkpt lat="36.68678" lon="27.58199">
        <ele>19.343</ele>
      </trkpt>
      <trkpt lat="36.68679" lon="27.58195">
        <ele>19.443</ele>
      </trkpt>
      <trkpt lat="36.68685" lon="27.58184">
        <ele>19.776</ele>
      </trkpt>
      <trkpt lat="36.68685" lon="27.58184">
        <ele>19.776</ele>
      </trkpt>
      <trkpt lat="36.68689" lon="27.58175">
        <ele>19.94</ele>
      </trkpt>
      <trkpt lat="36.68691" lon="27.5817">
        <ele>19.984</ele>
      </trkpt>
      <trkpt lat="36.68694" lon="27.58162">
        <ele>20.169</ele>
      </trkpt>
      <trkpt lat="36.68694" lon="27.58152">
        <ele>20.505</ele>
      </trkpt>
      <trkpt lat="36.6869" lon="27.58145">
        <ele>20.67</ele>
      </trkpt>
      <trkpt lat="36.6869" lon="27.58144">
        <ele>20.703</ele>
      </trkpt>
      <trkpt lat="36.68684" lon="27.58134">
        <ele>20.841</ele>
      </trkpt>
      <trkpt lat="36.68679" lon="27.58126">
        <ele>20.831</ele>
      </trkpt>
      <trkpt lat="36.68678" lon="27.58125">
        <ele>20.834</ele>
      </trkpt>
      <trkpt lat="36.68676" lon="27.58121">
        <ele>20.76</ele>
      </trkpt>
      <trkpt lat="36.68672" lon="27.58119">
        <ele>20.463</ele>
      </trkpt>
      <trkpt lat="36.68668" lon="27.58112">
        <ele>20.121</ele>
      </trkpt>
      <trkpt lat="36.68662" lon="27.58106">
        <ele>19.907</ele>
      </trkpt>
      <trkpt lat="36.68659" lon="27.58098">
        <ele>19.96</ele>
      </trkpt>
      <trkpt lat="36.68654" lon="27.58097">
        <ele>19.309</ele>
      </trkpt>
      <trkpt lat="36.68649" lon="27.58088">
        <ele>18.517</ele>
      </trkpt>
      <trkpt lat="36.68644" lon="27.58083">
        <ele>17.337</ele>
      </trkpt>
      <trkpt lat="36.6864" lon="27.58075">
        <ele>16.844</ele>
      </trkpt>
      <trkpt lat="36.68638" lon="27.58069">
        <ele>16.927</ele>
      </trkpt>
      <trkpt lat="36.68639" lon="27.58057">
        <ele>17.823</ele>
      </trkpt>
      <trkpt lat="36.68638" lon="27.58054">
        <ele>18.075</ele>
      </trkpt>
      <trkpt lat="36.68636" lon="27.58051">
        <ele>18.129</ele>
      </trkpt>
      <trkpt lat="36.68627" lon="27.5804">
        <ele>17.398</ele>
      </trkpt>
      <trkpt lat="36.68625" lon="27.58038">
        <ele>16.983</ele>
      </trkpt>
      <trkpt lat="36.68616" lon="27.58031">
        <ele>15.362</ele>
      </trkpt>
      <trkpt lat="36.68612" lon="27.58025">
        <ele>14.76</ele>
      </trkpt>
      <trkpt lat="36.6861" lon="27.5802">
        <ele>15.076</ele>
      </trkpt>
      <trkpt lat="36.68608" lon="27.58006">
        <ele>16.787</ele>
      </trkpt>
      <trkpt lat="36.68607" lon="27.57995">
        <ele>18.123</ele>
      </trkpt>
      <trkpt lat="36.68607" lon="27.57986">
        <ele>19.153</ele>
      </trkpt>
      <trkpt lat="36.68606" lon="27.57976">
        <ele>20.172</ele>
      </trkpt>
      <trkpt lat="36.68606" lon="27.57975">
        <ele>20.352</ele>
      </trkpt>
      <trkpt lat="36.68607" lon="27.57963">
        <ele>21.757</ele>
      </trkpt>
      <trkpt lat="36.68605" lon="27.57953">
        <ele>22.112</ele>
      </trkpt>
      <trkpt lat="36.68604" lon="27.57945">
        <ele>22.354</ele>
      </trkpt>
      <trkpt lat="36.68602" lon="27.57931">
        <ele>22.834</ele>
      </trkpt>
      <trkpt lat="36.68601" lon="27.57922">
        <ele>23.337</ele>
      </trkpt>
      <trkpt lat="36.68601" lon="27.57911">
        <ele>23.676</ele>
      </trkpt>
      <trkpt lat="36.686" lon="27.57909">
        <ele>23.505</ele>
      </trkpt>
      <trkpt lat="36.68599" lon="27.57899">
        <ele>23.139</ele>
      </trkpt>
      <trkpt lat="36.68598" lon="27.57895">
        <ele>22.796</ele>
      </trkpt>
      <trkpt lat="36.68597" lon="27.5789">
        <ele>22.332</ele>
      </trkpt>
      <trkpt lat="36.68593" lon="27.57879">
        <ele>19.833</ele>
      </trkpt>
      <trkpt lat="36.68592" lon="27.57878">
        <ele>19.496</ele>
      </trkpt>
      <trkpt lat="36.6859" lon="27.57867">
        <ele>17.419</ele>
      </trkpt>
      <trkpt lat="36.68589" lon="27.57865">
        <ele>16.878</ele>
      </trkpt>
      <trkpt lat="36.68585" lon="27.57858">
        <ele>15.058</ele>
      </trkpt>
      <trkpt lat="36.68582" lon="27.57848">
        <ele>14.705</ele>
      </trkpt>
      <trkpt lat="36.6858" lon="27.57835">
        <ele>15.252</ele>
      </trkpt>
      <trkpt lat="36.6858" lon="27.5783">
        <ele>15.776</ele>
      </trkpt>
      <trkpt lat="36.68576" lon="27.5782">
        <ele>16.69</ele>
      </trkpt>
      <trkpt lat="36.68572" lon="27.57811">
        <ele>17.537</ele>
      </trkpt>
      <trkpt lat="36.68568" lon="27.57803">
        <ele>18.545</ele>
      </trkpt>
      <trkpt lat="36.68562" lon="27.57793">
        <ele>20.449</ele>
      </trkpt>
      <trkpt lat="36.68558" lon="27.57787">
        <ele>21.08</ele>
      </trkpt>
      <trkpt lat="36.68555" lon="27.57783">
        <ele>21.534</ele>
      </trkpt>
      <trkpt lat="36.68548" lon="27.57776">
        <ele>21.108</ele>
      </trkpt>
      <trkpt lat="36.68547" lon="27.57775">
        <ele>21.03</ele>
      </trkpt>
      <trkpt lat="36.68542" lon="27.57762">
        <ele>22.347</ele>
      </trkpt>
      <trkpt lat="36.68537" lon="27.57744">
        <ele>25.276</ele>
      </trkpt>
      <trkpt lat="36.68517" lon="27.57728">
        <ele>21.841</ele>
      </trkpt>
      <trkpt lat="36.68509" lon="27.57719">
        <ele>20.264</ele>
      </trkpt>
      <trkpt lat="36.68504" lon="27.57697">
        <ele>21.293</ele>
      </trkpt>
      <trkpt lat="36.68505" lon="27.57689">
        <ele>21.965</ele>
      </trkpt>
      <trkpt lat="36.68506" lon="27.57682">
        <ele>22.499</ele>
      </trkpt>
      <trkpt lat="36.68511" lon="27.57662">
        <ele>24.74</ele>
      </trkpt>
      <trkpt lat="36.68513" lon="27.5766">
        <ele>25.902</ele>
      </trkpt>
      <trkpt lat="36.68536" lon="27.57639">
        <ele>35.75</ele>
      </trkpt>
      <trkpt lat="36.6853" lon="27.57608">
        <ele>33.943</ele>
      </trkpt>
      <trkpt lat="36.68527" lon="27.57603">
        <ele>32.592</ele>
      </trkpt>
      <trkpt lat="36.68521" lon="27.57586">
        <ele>30.277</ele>
      </trkpt>
      <trkpt lat="36.68518" lon="27.57557">
        <ele>27.718</ele>
      </trkpt>
      <trkpt lat="36.6852" lon="27.57543">
        <ele>26.763</ele>
      </trkpt>
      <trkpt lat="36.68521" lon="27.57524">
        <ele>25.418</ele>
      </trkpt>
      <trkpt lat="36.68522" lon="27.57512">
        <ele>24.005</ele>
      </trkpt>
      <trkpt lat="36.68521" lon="27.57503">
        <ele>22.565</ele>
      </trkpt>
      <trkpt lat="36.6852" lon="27.57484">
        <ele>19.222</ele>
      </trkpt>
      <trkpt lat="36.68528" lon="27.5747">
        <ele>17.77</ele>
      </trkpt>
      <trkpt lat="36.68541" lon="27.57454">
        <ele>15.799</ele>
      </trkpt>
      <trkpt lat="36.68546" lon="27.57428">
        <ele>11.782</ele>
      </trkpt>
      <trkpt lat="36.68544" lon="27.57417">
        <ele>10.453</ele>
      </trkpt>
      <trkpt lat="36.68539" lon="27.574">
        <ele>9.27</ele>
      </trkpt>
      <trkpt lat="36.68536" lon="27.57375">
        <ele>7.235</ele>
      </trkpt>
      <trkpt lat="36.68523" lon="27.57337">
        <ele>4.055</ele>
      </trkpt>
      <trkpt lat="36.68512" lon="27.57304">
        <ele>6.031</ele>
      </trkpt>
      <trkpt lat="36.68496" lon="27.57272">
        <ele>6.053</ele>
      </trkpt>
      <trkpt lat="36.68462" lon="27.57242">
        <ele>5.975</ele>
      </trkpt>
      <trkpt lat="36.68453" lon="27.57232">
        <ele>5.61</ele>
      </trkpt>
      <trkpt lat="36.68438" lon="27.57219">
        <ele>4.976</ele>
      </trkpt>
      <trkpt lat="36.68419" lon="27.57212">
        <ele>4.648</ele>
      </trkpt>
      <trkpt lat="36.68395" lon="27.57204">
        <ele>3.594</ele>
      </trkpt>
      <trkpt lat="36.68367" lon="27.57209">
        <ele>6.273</ele>
      </trkpt>
      <trkpt lat="36.68347" lon="27.572">
        <ele>12.228</ele>
      </trkpt>
      <trkpt lat="36.68338" lon="27.57174">
        <ele>12.68</ele>
      </trkpt>
      <trkpt lat="36.68338" lon="27.57138">
        <ele>8.955</ele>
      </trkpt>
      <trkpt lat="36.68338" lon="27.57106">
        <ele>6.304</ele>
      </trkpt>
      <trkpt lat="36.68324" lon="27.57067">
        <ele>8.238</ele>
      </trkpt>
      <trkpt lat="36.68318" lon="27.57006">
        <ele>9.931</ele>
      </trkpt>
      <trkpt lat="36.68318" lon="27.56941">
        <ele>12.752</ele>
      </trkpt>
      <trkpt lat="36.6831" lon="27.56863">
        <ele>17.302</ele>
      </trkpt>
      <trkpt lat="36.68305" lon="27.56826">
        <ele>17.224</ele>
      </trkpt>
      <trkpt lat="36.68296" lon="27.5677">
        <ele>19.697</ele>
      </trkpt>
      <trkpt lat="36.68292" lon="27.56706">
        <ele>21.091</ele>
      </trkpt>
      <trkpt lat="36.6829" lon="27.5667">
        <ele>19.517</ele>
      </trkpt>
      <trkpt lat="36.68262" lon="27.56584">
        <ele>25.569</ele>
      </trkpt>
      <trkpt lat="36.68255" lon="27.56524">
        <ele>23.592</ele>
      </trkpt>
      <trkpt lat="36.68235" lon="27.56461">
        <ele>18.057</ele>
      </trkpt>
      <trkpt lat="36.68207" lon="27.56404">
        <ele>15.427</ele>
      </trkpt>
      <trkpt lat="36.68171" lon="27.56337">
        <ele>15.799</ele>
      </trkpt>
      <trkpt lat="36.68135" lon="27.56281">
        <ele>9.613</ele>
      </trkpt>
      <trkpt lat="36.68102" lon="27.56235">
        <ele>9.674</ele>
      </trkpt>
      <trkpt lat="36.68061" lon="27.562">
        <ele>8.736</ele>
      </trkpt>
      <trkpt lat="36.68022" lon="27.56187">
        <ele>7.957</ele>
      </trkpt>
      <trkpt lat="36.67979" lon="27.56161">
        <ele>4.171</ele>
      </trkpt>
      <trkpt lat="36.67973" lon="27.56146">
        <ele>2.74</ele>
      </trkpt>
      <trkpt lat="36.68026" lon="27.56069">
        <ele>0.943</ele>
      </trkpt>
      <trkpt lat="36.68046" lon="27.56035">
        <ele>0.917</ele>
      </trkpt>
      <trkpt lat="36.6807" lon="27.55998">
        <ele>1.457</ele>
      </trkpt>
      <trkpt lat="36.68086" lon="27.55975">
        <ele>1.212</ele>
      </trkpt>
      <trkpt lat="36.68101" lon="27.55938">
        <ele>0.915</ele>
      </trkpt>
      <trkpt lat="36.68116" lon="27.55904">
        <ele>1.177</ele>
      </trkpt>
      <trkpt lat="36.68136" lon="27.55867">
        <ele>1.798</ele>
      </trkpt>
      <trkpt lat="36.68205" lon="27.55889">
        <ele>2.374</ele>
      </trkpt>
      <trkpt lat="36.68249" lon="27.55904">
        <ele>3.543</ele>
      </trkpt>
      <trkpt lat="36.68277" lon="27.5593">
        <ele>4.987</ele>
      </trkpt>
      <trkpt lat="36.68306" lon="27.55945">
        <ele>6</ele>
      </trkpt>
      <trkpt lat="36.68337" lon="27.55956">
        <ele>7.144</ele>
      </trkpt>
      <trkpt lat="36.68364" lon="27.55968">
        <ele>8.103</ele>
      </trkpt>
      <trkpt lat="36.68399" lon="27.55968">
        <ele>9.146</ele>
      </trkpt>
      <trkpt lat="36.68435" lon="27.55972">
        <ele>10.307</ele>
      </trkpt>
      <trkpt lat="36.68479" lon="27.55976">
        <ele>14.116</ele>
      </trkpt>
      <trkpt lat="36.68507" lon="27.55994">
        <ele>15.256</ele>
      </trkpt>
      <trkpt lat="36.68548" lon="27.56016">
        <ele>16.14</ele>
      </trkpt>
      <trkpt lat="36.68584" lon="27.56024">
        <ele>16.146</ele>
      </trkpt>
      <trkpt lat="36.68636" lon="27.56016">
        <ele>18.858</ele>
      </trkpt>
      <trkpt lat="36.68697" lon="27.56011">
        <ele>22.748</ele>
      </trkpt>
      <trkpt lat="36.68754" lon="27.56009">
        <ele>25.182</ele>
      </trkpt>
      <trkpt lat="36.68812" lon="27.56009">
        <ele>26</ele>
      </trkpt>
      <trkpt lat="36.68858" lon="27.56016">
        <ele>26.743</ele>
      </trkpt>
      <trkpt lat="36.68925" lon="27.56016">
        <ele>33.094</ele>
      </trkpt>
      <trkpt lat="36.68923" lon="27.56016">
        <ele>32.919</ele>
      </trkpt>
      <trkpt lat="36.68913" lon="27.55983">
        <ele>33.267</ele>
      </trkpt>
      <trkpt lat="36.68905" lon="27.55953">
        <ele>33.543</ele>
      </trkpt>
      <trkpt lat="36.6889" lon="27.55892">
        <ele>32.964</ele>
      </trkpt>
      <trkpt lat="36.68868" lon="27.55783">
        <ele>34.828</ele>
      </trkpt>
      <trkpt lat="36.68868" lon="27.55783">
        <ele>34.828</ele>
      </trkpt>
      <trkpt lat="36.68858" lon="27.55718">
        <ele>38.357</ele>
      </trkpt>
      <trkpt lat="36.68859" lon="27.55707">
        <ele>39.991</ele>
      </trkpt>
      <trkpt lat="36.68878" lon="27.55676">
        <ele>45.226</ele>
      </trkpt>
      <trkpt lat="36.68895" lon="27.55667">
        <ele>46.92</ele>
      </trkpt>
      <trkpt lat="36.68912" lon="27.5566">
        <ele>48.009</ele>
      </trkpt>
      <trkpt lat="36.68921" lon="27.55654">
        <ele>48.86</ele>
      </trkpt>
      <trkpt lat="36.68924" lon="27.55651">
        <ele>49.205</ele>
      </trkpt>
      <trkpt lat="36.68934" lon="27.55626">
        <ele>52.277</ele>
      </trkpt>
      <trkpt lat="36.68929" lon="27.55602">
        <ele>55.404</ele>
      </trkpt>
      <trkpt lat="36.68908" lon="27.55548">
        <ele>55.193</ele>
      </trkpt>
      <trkpt lat="36.68874" lon="27.55477">
        <ele>57.118</ele>
      </trkpt>
      <trkpt lat="36.68865" lon="27.55429">
        <ele>59.244</ele>
      </trkpt>
      <trkpt lat="36.68877" lon="27.55406">
        <ele>62.809</ele>
      </trkpt>
      <trkpt lat="36.68888" lon="27.55396">
        <ele>64.686</ele>
      </trkpt>
      <trkpt lat="36.68903" lon="27.5538">
        <ele>66.946</ele>
      </trkpt>
      <trkpt lat="36.68885" lon="27.55327">
        <ele>71.064</ele>
      </trkpt>
      <trkpt lat="36.68889" lon="27.5533">
        <ele>71.584</ele>
      </trkpt>
      <trkpt lat="36.68896" lon="27.55319">
        <ele>74.799</ele>
      </trkpt>
      <trkpt lat="36.68895" lon="27.55307">
        <ele>76.322</ele>
      </trkpt>
      <trkpt lat="36.68896" lon="27.5529">
        <ele>78.255</ele>
      </trkpt>
      <trkpt lat="36.68892" lon="27.55278">
        <ele>78.677</ele>
      </trkpt>
      <trkpt lat="36.68889" lon="27.55272">
        <ele>79.018</ele>
      </trkpt>
      <trkpt lat="36.68885" lon="27.55264">
        <ele>80.124</ele>
      </trkpt>
      <trkpt lat="36.6888" lon="27.55256">
        <ele>81.036</ele>
      </trkpt>
      <trkpt lat="36.68871" lon="27.55244">
        <ele>82.967</ele>
      </trkpt>
      <trkpt lat="36.6886" lon="27.55239">
        <ele>83.469</ele>
      </trkpt>
      <trkpt lat="36.68858" lon="27.55237">
        <ele>83.963</ele>
      </trkpt>
      <trkpt lat="36.68852" lon="27.55227">
        <ele>86.608</ele>
      </trkpt>
      <trkpt lat="36.68844" lon="27.55217">
        <ele>89.309</ele>
      </trkpt>
      <trkpt lat="36.68837" lon="27.55211">
        <ele>90.681</ele>
      </trkpt>
      <trkpt lat="36.68835" lon="27.55203">
        <ele>93.102</ele>
      </trkpt>
      <trkpt lat="36.68831" lon="27.55195">
        <ele>94.935</ele>
      </trkpt>
      <trkpt lat="36.6883" lon="27.55194">
        <ele>95.203</ele>
      </trkpt>
      <trkpt lat="36.68824" lon="27.55179">
        <ele>97.459</ele>
      </trkpt>
      <trkpt lat="36.68818" lon="27.5516">
        <ele>101.334</ele>
      </trkpt>
      <trkpt lat="36.68813" lon="27.55146">
        <ele>103.919</ele>
      </trkpt>
      <trkpt lat="36.68807" lon="27.55138">
        <ele>104.639</ele>
      </trkpt>
      <trkpt lat="36.68796" lon="27.55127">
        <ele>105.626</ele>
      </trkpt>
      <trkpt lat="36.68787" lon="27.55117">
        <ele>105.728</ele>
      </trkpt>
      <trkpt lat="36.68774" lon="27.55113">
        <ele>102.969</ele>
      </trkpt>
      <trkpt lat="36.68765" lon="27.55105">
        <ele>103.2</ele>
      </trkpt>
      <trkpt lat="36.68754" lon="27.55095">
        <ele>103.284</ele>
      </trkpt>
      <trkpt lat="36.68747" lon="27.55084">
        <ele>104.147</ele>
      </trkpt>
      <trkpt lat="36.68745" lon="27.55081">
        <ele>104.837</ele>
      </trkpt>
      <trkpt lat="36.68745" lon="27.55077">
        <ele>105.942</ele>
      </trkpt>
      <trkpt lat="36.68743" lon="27.55071">
        <ele>107.486</ele>
      </trkpt>
      <trkpt lat="36.68742" lon="27.55066">
        <ele>108.788</ele>
      </trkpt>
      <trkpt lat="36.6874" lon="27.55059">
        <ele>110.305</ele>
      </trkpt>
      <trkpt lat="36.68737" lon="27.55046">
        <ele>113.339</ele>
      </trkpt>
      <trkpt lat="36.68732" lon="27.5504">
        <ele>113.459</ele>
      </trkpt>
      <trkpt lat="36.68726" lon="27.55027">
        <ele>114.53</ele>
      </trkpt>
      <trkpt lat="36.68725" lon="27.55029">
        <ele>113.952</ele>
      </trkpt>
      <trkpt lat="36.68723" lon="27.55027">
        <ele>113.2</ele>
      </trkpt>
      <trkpt lat="36.6872" lon="27.55014">
        <ele>115.376</ele>
      </trkpt>
      <trkpt lat="36.68712" lon="27.55004">
        <ele>115.475</ele>
      </trkpt>
      <trkpt lat="36.68706" lon="27.54992">
        <ele>116.536</ele>
      </trkpt>
      <trkpt lat="36.68705" lon="27.54988">
        <ele>117.102</ele>
      </trkpt>
      <trkpt lat="36.687" lon="27.54978">
        <ele>117.522</ele>
      </trkpt>
      <trkpt lat="36.68701" lon="27.54967">
        <ele>120.128</ele>
      </trkpt>
      <trkpt lat="36.68701" lon="27.54959">
        <ele>121.921</ele>
      </trkpt>
      <trkpt lat="36.68699" lon="27.54948">
        <ele>123.402</ele>
      </trkpt>
      <trkpt lat="36.68697" lon="27.54941">
        <ele>123.968</ele>
      </trkpt>
      <trkpt lat="36.68696" lon="27.54927">
        <ele>126.556</ele>
      </trkpt>
      <trkpt lat="36.68697" lon="27.54927">
        <ele>126.9</ele>
      </trkpt>
      <trkpt lat="36.68697" lon="27.5492">
        <ele>128.106</ele>
      </trkpt>
      <trkpt lat="36.68697" lon="27.5492">
        <ele>128.302</ele>
      </trkpt>
      <trkpt lat="36.68696" lon="27.54917">
        <ele>128.579</ele>
      </trkpt>
      <trkpt lat="36.68695" lon="27.54914">
        <ele>128.47</ele>
      </trkpt>
      <trkpt lat="36.68696" lon="27.54907">
        <ele>129.737</ele>
      </trkpt>
      <trkpt lat="36.68698" lon="27.54896">
        <ele>131.404</ele>
      </trkpt>
      <trkpt lat="36.68699" lon="27.54894">
        <ele>131.998</ele>
      </trkpt>
      <trkpt lat="36.687" lon="27.5489">
        <ele>132.844</ele>
      </trkpt>
      <trkpt lat="36.68702" lon="27.54882">
        <ele>134.199</ele>
      </trkpt>
      <trkpt lat="36.68707" lon="27.54864">
        <ele>137.884</ele>
      </trkpt>
      <trkpt lat="36.68709" lon="27.5485">
        <ele>140.229</ele>
      </trkpt>
      <trkpt lat="36.6871" lon="27.54846">
        <ele>141.076</ele>
      </trkpt>
      <trkpt lat="36.68714" lon="27.54835">
        <ele>143.785</ele>
      </trkpt>
      <trkpt lat="36.68711" lon="27.54823">
        <ele>143.695</ele>
      </trkpt>
      <trkpt lat="36.68712" lon="27.54813">
        <ele>145.188</ele>
      </trkpt>
      <trkpt lat="36.68713" lon="27.5481">
        <ele>145.572</ele>
      </trkpt>
      <trkpt lat="36.68713" lon="27.54806">
        <ele>145.835</ele>
      </trkpt>
      <trkpt lat="36.68714" lon="27.54795">
        <ele>147.283</ele>
      </trkpt>
      <trkpt lat="36.68712" lon="27.54788">
        <ele>147.2</ele>
      </trkpt>
      <trkpt lat="36.68712" lon="27.54781">
        <ele>148.081</ele>
      </trkpt>
      <trkpt lat="36.68715" lon="27.54771">
        <ele>150.006</ele>
      </trkpt>
      <trkpt lat="36.68714" lon="27.54765">
        <ele>150.787</ele>
      </trkpt>
      <trkpt lat="36.68715" lon="27.54764">
        <ele>150.988</ele>
      </trkpt>
      <trkpt lat="36.68716" lon="27.54759">
        <ele>152.005</ele>
      </trkpt>
      <trkpt lat="36.68714" lon="27.5475">
        <ele>152.351</ele>
      </trkpt>
      <trkpt lat="36.68705" lon="27.5474">
        <ele>148.972</ele>
      </trkpt>
      <trkpt lat="36.68704" lon="27.54722">
        <ele>149.366</ele>
      </trkpt>
      <trkpt lat="36.68704" lon="27.54707">
        <ele>148.333</ele>
      </trkpt>
      <trkpt lat="36.68705" lon="27.54703">
        <ele>148.468</ele>
      </trkpt>
      <trkpt lat="36.6871" lon="27.54689">
        <ele>148.731</ele>
      </trkpt>
      <trkpt lat="36.68714" lon="27.54675">
        <ele>148.047</ele>
      </trkpt>
      <trkpt lat="36.68714" lon="27.54673">
        <ele>147.918</ele>
      </trkpt>
      <trkpt lat="36.68714" lon="27.54669">
        <ele>147.095</ele>
      </trkpt>
      <trkpt lat="36.68716" lon="27.54656">
        <ele>146.808</ele>
      </trkpt>
      <trkpt lat="36.68715" lon="27.54645">
        <ele>145.882</ele>
      </trkpt>
      <trkpt lat="36.68718" lon="27.54635">
        <ele>146.208</ele>
      </trkpt>
      <trkpt lat="36.68719" lon="27.54628">
        <ele>146.384</ele>
      </trkpt>
      <trkpt lat="36.68719" lon="27.54621">
        <ele>146.473</ele>
      </trkpt>
      <trkpt lat="36.6872" lon="27.54619">
        <ele>146.631</ele>
      </trkpt>
      <trkpt lat="36.68721" lon="27.54615">
        <ele>146.858</ele>
      </trkpt>
      <trkpt lat="36.68727" lon="27.54607">
        <ele>148.201</ele>
      </trkpt>
      <trkpt lat="36.68738" lon="27.54599">
        <ele>151.062</ele>
      </trkpt>
      <trkpt lat="36.68746" lon="27.54587">
        <ele>152.33</ele>
      </trkpt>
      <trkpt lat="36.68756" lon="27.54577">
        <ele>154.374</ele>
      </trkpt>
      <trkpt lat="36.6876" lon="27.54561">
        <ele>154.921</ele>
      </trkpt>
      <trkpt lat="36.68764" lon="27.54556">
        <ele>156.118</ele>
      </trkpt>
      <trkpt lat="36.68761" lon="27.54542">
        <ele>158.119</ele>
      </trkpt>
      <trkpt lat="36.68752" lon="27.54539">
        <ele>155.478</ele>
      </trkpt>
      <trkpt lat="36.68746" lon="27.54536">
        <ele>154.664</ele>
      </trkpt>
      <trkpt lat="36.68736" lon="27.54529">
        <ele>153.633</ele>
      </trkpt>
      <trkpt lat="36.6873" lon="27.54524">
        <ele>153.86</ele>
      </trkpt>
      <trkpt lat="36.68719" lon="27.54516">
        <ele>154.276</ele>
      </trkpt>
      <trkpt lat="36.6871" lon="27.54504">
        <ele>155.803</ele>
      </trkpt>
      <trkpt lat="36.68705" lon="27.54496">
        <ele>156.615</ele>
      </trkpt>
      <trkpt lat="36.68701" lon="27.54486">
        <ele>157.773</ele>
      </trkpt>
      <trkpt lat="36.68694" lon="27.5448">
        <ele>157.253</ele>
      </trkpt>
      <trkpt lat="36.68691" lon="27.54478">
        <ele>157.223</ele>
      </trkpt>
      <trkpt lat="36.68682" lon="27.54471">
        <ele>156.948</ele>
      </trkpt>
      <trkpt lat="36.6868" lon="27.54464">
        <ele>157.532</ele>
      </trkpt>
      <trkpt lat="36.68677" lon="27.54448">
        <ele>159.217</ele>
      </trkpt>
      <trkpt lat="36.68675" lon="27.54433">
        <ele>161.287</ele>
      </trkpt>
      <trkpt lat="36.68665" lon="27.54429">
        <ele>161.338</ele>
      </trkpt>
      <trkpt lat="36.6866" lon="27.5443">
        <ele>161.893</ele>
      </trkpt>
      <trkpt lat="36.6865" lon="27.54434">
        <ele>162.315</ele>
      </trkpt>
      <trkpt lat="36.68637" lon="27.54437">
        <ele>163.518</ele>
      </trkpt>
      <trkpt lat="36.68631" lon="27.54441">
        <ele>164.214</ele>
      </trkpt>
      <trkpt lat="36.68626" lon="27.54451">
        <ele>164.282</ele>
      </trkpt>
      <trkpt lat="36.68625" lon="27.54455">
        <ele>164.206</ele>
      </trkpt>
      <trkpt lat="36.68625" lon="27.54456">
        <ele>164.171</ele>
      </trkpt>
      <trkpt lat="36.68623" lon="27.54454">
        <ele>164.611</ele>
      </trkpt>
      <trkpt lat="36.6862" lon="27.54452">
        <ele>165.439</ele>
      </trkpt>
      <trkpt lat="36.68613" lon="27.54454">
        <ele>166.53</ele>
      </trkpt>
      <trkpt lat="36.68606" lon="27.54455">
        <ele>167.072</ele>
      </trkpt>
      <trkpt lat="36.68601" lon="27.5445">
        <ele>167.74</ele>
      </trkpt>
      <trkpt lat="36.68599" lon="27.54449">
        <ele>167.936</ele>
      </trkpt>
      <trkpt lat="36.68592" lon="27.54442">
        <ele>169.051</ele>
      </trkpt>
      <trkpt lat="36.68584" lon="27.54438">
        <ele>170.087</ele>
      </trkpt>
      <trkpt lat="36.6858" lon="27.54431">
        <ele>171.488</ele>
      </trkpt>
      <trkpt lat="36.68578" lon="27.54429">
        <ele>171.778</ele>
      </trkpt>
      <trkpt lat="36.68576" lon="27.54423">
        <ele>172.656</ele>
      </trkpt>
      <trkpt lat="36.68578" lon="27.54421">
        <ele>173.06</ele>
      </trkpt>
      <trkpt lat="36.68579" lon="27.54417">
        <ele>173.874</ele>
      </trkpt>
      <trkpt lat="36.68578" lon="27.54398">
        <ele>178.343</ele>
      </trkpt>
      <trkpt lat="36.68576" lon="27.54385">
        <ele>181.386</ele>
      </trkpt>
      <trkpt lat="36.68571" lon="27.54378">
        <ele>182.489</ele>
      </trkpt>
      <trkpt lat="36.68566" lon="27.54377">
        <ele>182.335</ele>
      </trkpt>
      <trkpt lat="36.68564" lon="27.54371">
        <ele>183.933</ele>
      </trkpt>
      <trkpt lat="36.68556" lon="27.54371">
        <ele>183.306</ele>
      </trkpt>
      <trkpt lat="36.68555" lon="27.54378">
        <ele>181.369</ele>
      </trkpt>
      <trkpt lat="36.68553" lon="27.54379">
        <ele>181.089</ele>
      </trkpt>
      <trkpt lat="36.68553" lon="27.54374">
        <ele>182.604</ele>
      </trkpt>
      <trkpt lat="36.68553" lon="27.54373">
        <ele>182.937</ele>
      </trkpt>
      <trkpt lat="36.68556" lon="27.54365">
        <ele>185.023</ele>
      </trkpt>
      <trkpt lat="36.68552" lon="27.54354">
        <ele>188.231</ele>
      </trkpt>
      <trkpt lat="36.68552" lon="27.54346">
        <ele>190.679</ele>
      </trkpt>
      <trkpt lat="36.68551" lon="27.54338">
        <ele>192.935</ele>
      </trkpt>
      <trkpt lat="36.68547" lon="27.54328">
        <ele>196.69</ele>
      </trkpt>
      <trkpt lat="36.6854" lon="27.54323">
        <ele>199.352</ele>
      </trkpt>
      <trkpt lat="36.68532" lon="27.54318">
        <ele>202.002</ele>
      </trkpt>
      <trkpt lat="36.68524" lon="27.54314">
        <ele>203.641</ele>
      </trkpt>
      <trkpt lat="36.68521" lon="27.54313">
        <ele>204.202</ele>
      </trkpt>
      <trkpt lat="36.68519" lon="27.54311">
        <ele>204.642</ele>
      </trkpt>
      <trkpt lat="36.68509" lon="27.5431">
        <ele>204.804</ele>
      </trkpt>
      <trkpt lat="36.68501" lon="27.5431">
        <ele>204.611</ele>
      </trkpt>
      <trkpt lat="36.68497" lon="27.5431">
        <ele>204.809</ele>
      </trkpt>
      <trkpt lat="36.68489" lon="27.54312">
        <ele>204.114</ele>
      </trkpt>
      <trkpt lat="36.68483" lon="27.54305">
        <ele>205.574</ele>
      </trkpt>
      <trkpt lat="36.68478" lon="27.54307">
        <ele>204.951</ele>
      </trkpt>
      <trkpt lat="36.68482" lon="27.543">
        <ele>207.094</ele>
      </trkpt>
      <trkpt lat="36.68479" lon="27.54291">
        <ele>209.761</ele>
      </trkpt>
      <trkpt lat="36.68475" lon="27.54286">
        <ele>210.886</ele>
      </trkpt>
      <trkpt lat="36.68467" lon="27.54287">
        <ele>209.995</ele>
      </trkpt>
      <trkpt lat="36.68459" lon="27.54287">
        <ele>209.076</ele>
      </trkpt>
      <trkpt lat="36.68452" lon="27.54281">
        <ele>209.608</ele>
      </trkpt>
      <trkpt lat="36.68448" lon="27.54279">
        <ele>209.256</ele>
      </trkpt>
      <trkpt lat="36.68446" lon="27.54276">
        <ele>209.567</ele>
      </trkpt>
      <trkpt lat="36.68435" lon="27.54276">
        <ele>208.883</ele>
      </trkpt>
      <trkpt lat="36.68433" lon="27.54276">
        <ele>208.841</ele>
      </trkpt>
      <trkpt lat="36.68429" lon="27.54271">
        <ele>209.269</ele>
      </trkpt>
      <trkpt lat="36.6843" lon="27.54264">
        <ele>210.135</ele>
      </trkpt>
      <trkpt lat="36.68422" lon="27.54262">
        <ele>209.696</ele>
      </trkpt>
      <trkpt lat="36.68413" lon="27.5426">
        <ele>209.519</ele>
      </trkpt>
      <trkpt lat="36.68405" lon="27.54256">
        <ele>209.943</ele>
      </trkpt>
      <trkpt lat="36.68403" lon="27.5425">
        <ele>210.012</ele>
      </trkpt>
      <trkpt lat="36.68395" lon="27.54242">
        <ele>209.968</ele>
      </trkpt>
      <trkpt lat="36.68395" lon="27.54241">
        <ele>209.954</ele>
      </trkpt>
      <trkpt lat="36.68392" lon="27.54235">
        <ele>209.701</ele>
      </trkpt>
      <trkpt lat="36.68392" lon="27.54235">
        <ele>209.701</ele>
      </trkpt>
      <trkpt lat="36.68391" lon="27.54231">
        <ele>209.48</ele>
      </trkpt>
      <trkpt lat="36.68389" lon="27.54217">
        <ele>209.164</ele>
      </trkpt>
      <trkpt lat="36.68388" lon="27.54214">
        <ele>209.144</ele>
      </trkpt>
      <trkpt lat="36.68385" lon="27.54203">
        <ele>208.665</ele>
      </trkpt>
      <trkpt lat="36.68385" lon="27.54202">
        <ele>208.778</ele>
      </trkpt>
      <trkpt lat="36.68385" lon="27.54192">
        <ele>208.646</ele>
      </trkpt>
      <trkpt lat="36.68383" lon="27.54187">
        <ele>207.961</ele>
      </trkpt>
      <trkpt lat="36.68381" lon="27.54176">
        <ele>206.858</ele>
      </trkpt>
      <trkpt lat="36.6838" lon="27.54171">
        <ele>205.87</ele>
      </trkpt>
      <trkpt lat="36.68378" lon="27.54161">
        <ele>204.4</ele>
      </trkpt>
      <trkpt lat="36.68376" lon="27.5416">
        <ele>203.505</ele>
      </trkpt>
      <trkpt lat="36.68373" lon="27.54154">
        <ele>201.956</ele>
      </trkpt>
      <trkpt lat="36.68374" lon="27.54152">
        <ele>202.229</ele>
      </trkpt>
      <trkpt lat="36.68372" lon="27.54138">
        <ele>200.687</ele>
      </trkpt>
      <trkpt lat="36.68366" lon="27.54124">
        <ele>197.876</ele>
      </trkpt>
      <trkpt lat="36.68364" lon="27.5412">
        <ele>197.051</ele>
      </trkpt>
      <trkpt lat="36.68366" lon="27.54109">
        <ele>198.622</ele>
      </trkpt>
      <trkpt lat="36.68368" lon="27.54102">
        <ele>200.552</ele>
      </trkpt>
      <trkpt lat="36.6837" lon="27.5409">
        <ele>202.603</ele>
      </trkpt>
      <trkpt lat="36.6837" lon="27.5408">
        <ele>204.139</ele>
      </trkpt>
      <trkpt lat="36.6837" lon="27.5407">
        <ele>205.883</ele>
      </trkpt>
      <trkpt lat="36.68365" lon="27.54061">
        <ele>205.351</ele>
      </trkpt>
      <trkpt lat="36.68358" lon="27.54062">
        <ele>203.063</ele>
      </trkpt>
      <trkpt lat="36.6835" lon="27.54063">
        <ele>200.72</ele>
      </trkpt>
      <trkpt lat="36.68344" lon="27.54066">
        <ele>198.572</ele>
      </trkpt>
      <trkpt lat="36.68343" lon="27.54067">
        <ele>198.029</ele>
      </trkpt>
      <trkpt lat="36.68336" lon="27.54066">
        <ele>196.499</ele>
      </trkpt>
      <trkpt lat="36.68334" lon="27.54065">
        <ele>196.356</ele>
      </trkpt>
      <trkpt lat="36.68325" lon="27.54058">
        <ele>195.988</ele>
      </trkpt>
      <trkpt lat="36.68318" lon="27.5406">
        <ele>194.221</ele>
      </trkpt>
      <trkpt lat="36.68313" lon="27.54062">
        <ele>193.052</ele>
      </trkpt>
      <trkpt lat="36.68304" lon="27.54057">
        <ele>192.494</ele>
      </trkpt>
      <trkpt lat="36.68296" lon="27.54057">
        <ele>190.524</ele>
      </trkpt>
      <trkpt lat="36.68293" lon="27.54045">
        <ele>191.121</ele>
      </trkpt>
      <trkpt lat="36.68296" lon="27.54033">
        <ele>192.769</ele>
      </trkpt>
      <trkpt lat="36.68296" lon="27.54026">
        <ele>193.496</ele>
      </trkpt>
      <trkpt lat="36.68294" lon="27.54021">
        <ele>193.591</ele>
      </trkpt>
      <trkpt lat="36.68293" lon="27.54015">
        <ele>194.117</ele>
      </trkpt>
      <trkpt lat="36.6829" lon="27.54009">
        <ele>193.868</ele>
      </trkpt>
      <trkpt lat="36.68283" lon="27.53997">
        <ele>192.858</ele>
      </trkpt>
      <trkpt lat="36.68278" lon="27.53989">
        <ele>192.25</ele>
      </trkpt>
      <trkpt lat="36.68274" lon="27.53983">
        <ele>192.233</ele>
      </trkpt>
      <trkpt lat="36.68273" lon="27.53982">
        <ele>191.757</ele>
      </trkpt>
      <trkpt lat="36.6827" lon="27.53973">
        <ele>192.114</ele>
      </trkpt>
      <trkpt lat="36.6827" lon="27.53961">
        <ele>194.516</ele>
      </trkpt>
      <trkpt lat="36.6827" lon="27.53961">
        <ele>194.483</ele>
      </trkpt>
      <trkpt lat="36.68266" lon="27.53954">
        <ele>193.879</ele>
      </trkpt>
      <trkpt lat="36.68267" lon="27.53946">
        <ele>195.417</ele>
      </trkpt>
      <trkpt lat="36.68265" lon="27.53943">
        <ele>194.802</ele>
      </trkpt>
      <trkpt lat="36.68262" lon="27.53936">
        <ele>193.322</ele>
      </trkpt>
      <trkpt lat="36.68262" lon="27.53935">
        <ele>193.331</ele>
      </trkpt>
      <trkpt lat="36.6826" lon="27.53924">
        <ele>193.589</ele>
      </trkpt>
      <trkpt lat="36.68259" lon="27.53918">
        <ele>193.305</ele>
      </trkpt>
      <trkpt lat="36.68259" lon="27.53908">
        <ele>192.711</ele>
      </trkpt>
      <trkpt lat="36.68257" lon="27.53901">
        <ele>191.57</ele>
      </trkpt>
      <trkpt lat="36.68259" lon="27.53898">
        <ele>192</ele>
      </trkpt>
      <trkpt lat="36.68262" lon="27.53894">
        <ele>193.473</ele>
      </trkpt>
      <trkpt lat="36.68257" lon="27.53897">
        <ele>190.805</ele>
      </trkpt>
      <trkpt lat="36.68253" lon="27.53893">
        <ele>188.723</ele>
      </trkpt>
      <trkpt lat="36.68252" lon="27.53892">
        <ele>188.117</ele>
      </trkpt>
      <trkpt lat="36.68246" lon="27.53897">
        <ele>185.722</ele>
      </trkpt>
      <trkpt lat="36.68242" lon="27.53892">
        <ele>183.311</ele>
      </trkpt>
      <trkpt lat="36.68243" lon="27.53892">
        <ele>184.069</ele>
      </trkpt>
      <trkpt lat="36.68245" lon="27.53877">
        <ele>183.338</ele>
      </trkpt>
      <trkpt lat="36.68247" lon="27.53866">
        <ele>183.08</ele>
      </trkpt>
      <trkpt lat="36.68246" lon="27.53857">
        <ele>182.136</ele>
      </trkpt>
      <trkpt lat="36.68244" lon="27.53851">
        <ele>181.429</ele>
      </trkpt>
      <trkpt lat="36.68245" lon="27.53837">
        <ele>182.282</ele>
      </trkpt>
      <trkpt lat="36.68239" lon="27.53826">
        <ele>180.842</ele>
      </trkpt>
      <trkpt lat="36.68241" lon="27.5382">
        <ele>182.451</ele>
      </trkpt>
      <trkpt lat="36.68239" lon="27.53811">
        <ele>182.776</ele>
      </trkpt>
      <trkpt lat="36.68239" lon="27.53799">
        <ele>183.443</ele>
      </trkpt>
      <trkpt lat="36.68236" lon="27.53788">
        <ele>182.482</ele>
      </trkpt>
      <trkpt lat="36.68233" lon="27.53778">
        <ele>181.224</ele>
      </trkpt>
      <trkpt lat="36.6823" lon="27.5377">
        <ele>179.179</ele>
      </trkpt>
      <trkpt lat="36.68229" lon="27.53768">
        <ele>178.272</ele>
      </trkpt>
      <trkpt lat="36.68232" lon="27.53759">
        <ele>178.617</ele>
      </trkpt>
      <trkpt lat="36.68233" lon="27.53751">
        <ele>178.1</ele>
      </trkpt>
      <trkpt lat="36.68231" lon="27.53741">
        <ele>176.273</ele>
      </trkpt>
      <trkpt lat="36.68232" lon="27.53737">
        <ele>176.345</ele>
      </trkpt>
      <trkpt lat="36.68234" lon="27.53727">
        <ele>176.216</ele>
      </trkpt>
      <trkpt lat="36.68233" lon="27.53727">
        <ele>175.736</ele>
      </trkpt>
      <trkpt lat="36.68232" lon="27.53715">
        <ele>174.749</ele>
      </trkpt>
      <trkpt lat="36.68232" lon="27.53712">
        <ele>174.998</ele>
      </trkpt>
      <trkpt lat="36.68229" lon="27.53707">
        <ele>173.662</ele>
      </trkpt>
      <trkpt lat="36.6823" lon="27.537">
        <ele>174.088</ele>
      </trkpt>
      <trkpt lat="36.68234" lon="27.5369">
        <ele>176.906</ele>
      </trkpt>
      <trkpt lat="36.68231" lon="27.53686">
        <ele>175.536</ele>
      </trkpt>
      <trkpt lat="36.68228" lon="27.53681">
        <ele>174.112</ele>
      </trkpt>
      <trkpt lat="36.68226" lon="27.53676">
        <ele>173.431</ele>
      </trkpt>
      <trkpt lat="36.68224" lon="27.53671">
        <ele>172.44</ele>
      </trkpt>
      <trkpt lat="36.68219" lon="27.53665">
        <ele>169.951</ele>
      </trkpt>
      <trkpt lat="36.68214" lon="27.53653">
        <ele>167.14</ele>
      </trkpt>
      <trkpt lat="36.68205" lon="27.53645">
        <ele>162.554</ele>
      </trkpt>
      <trkpt lat="36.68206" lon="27.53637">
        <ele>163.228</ele>
      </trkpt>
      <trkpt lat="36.68204" lon="27.53635">
        <ele>162.528</ele>
      </trkpt>
      <trkpt lat="36.68199" lon="27.53628">
        <ele>160.014</ele>
      </trkpt>
      <trkpt lat="36.68194" lon="27.53618">
        <ele>158.206</ele>
      </trkpt>
      <trkpt lat="36.68191" lon="27.5361">
        <ele>157.855</ele>
      </trkpt>
      <trkpt lat="36.68188" lon="27.53593">
        <ele>161.004</ele>
      </trkpt>
      <trkpt lat="36.68186" lon="27.5359">
        <ele>160.856</ele>
      </trkpt>
      <trkpt lat="36.68182" lon="27.53592">
        <ele>158.824</ele>
      </trkpt>
      <trkpt lat="36.68183" lon="27.53583">
        <ele>160.952</ele>
      </trkpt>
      <trkpt lat="36.68181" lon="27.53566">
        <ele>164.122</ele>
      </trkpt>
      <trkpt lat="36.68178" lon="27.53552">
        <ele>166.024</ele>
      </trkpt>
      <trkpt lat="36.68174" lon="27.53542">
        <ele>166.988</ele>
      </trkpt>
      <trkpt lat="36.68173" lon="27.53534">
        <ele>168.683</ele>
      </trkpt>
      <trkpt lat="36.68168" lon="27.53523">
        <ele>169.425</ele>
      </trkpt>
      <trkpt lat="36.68169" lon="27.53514">
        <ele>171.294</ele>
      </trkpt>
      <trkpt lat="36.68169" lon="27.53511">
        <ele>171.801</ele>
      </trkpt>
      <trkpt lat="36.68176" lon="27.53505">
        <ele>175.348</ele>
      </trkpt>
      <trkpt lat="36.68177" lon="27.53501">
        <ele>176.457</ele>
      </trkpt>
      <trkpt lat="36.68178" lon="27.53505">
        <ele>176.29</ele>
      </trkpt>
      <trkpt lat="36.6818" lon="27.53496">
        <ele>178.348</ele>
      </trkpt>
      <trkpt lat="36.68177" lon="27.53493">
        <ele>177.674</ele>
      </trkpt>
      <trkpt lat="36.68174" lon="27.53494">
        <ele>176.181</ele>
      </trkpt>
      <trkpt lat="36.68172" lon="27.53494">
        <ele>175.576</ele>
      </trkpt>
      <trkpt lat="36.68167" lon="27.53489">
        <ele>174.257</ele>
      </trkpt>
      <trkpt lat="36.68163" lon="27.5349">
        <ele>174.149</ele>
      </trkpt>
      <trkpt lat="36.6816" lon="27.53491">
        <ele>174.114</ele>
      </trkpt>
      <trkpt lat="36.68157" lon="27.53487">
        <ele>174.97</ele>
      </trkpt>
      <trkpt lat="36.68156" lon="27.53483">
        <ele>176.057</ele>
      </trkpt>
      <trkpt lat="36.68154" lon="27.53479">
        <ele>177.24</ele>
      </trkpt>
      <trkpt lat="36.68156" lon="27.53471">
        <ele>178.821</ele>
      </trkpt>
      <trkpt lat="36.68159" lon="27.53469">
        <ele>179.227</ele>
      </trkpt>
      <trkpt lat="36.68157" lon="27.53469">
        <ele>179.729</ele>
      </trkpt>
      <trkpt lat="36.68155" lon="27.53467">
        <ele>180.85</ele>
      </trkpt>
      <trkpt lat="36.68146" lon="27.53461">
        <ele>186.364</ele>
      </trkpt>
      <trkpt lat="36.68145" lon="27.5346">
        <ele>187.287</ele>
      </trkpt>
      <trkpt lat="36.68144" lon="27.53456">
        <ele>189.637</ele>
      </trkpt>
      <trkpt lat="36.68136" lon="27.53456">
        <ele>191.596</ele>
      </trkpt>
      <trkpt lat="36.68127" lon="27.53461">
        <ele>189.262</ele>
      </trkpt>
      <trkpt lat="36.68121" lon="27.5346">
        <ele>190.676</ele>
      </trkpt>
      <trkpt lat="36.68118" lon="27.53453">
        <ele>194.111</ele>
      </trkpt>
      <trkpt lat="36.68109" lon="27.53459">
        <ele>191.196</ele>
      </trkpt>
      <trkpt lat="36.68106" lon="27.53458">
        <ele>191.575</ele>
      </trkpt>
      <trkpt lat="36.68103" lon="27.53455">
        <ele>192.48</ele>
      </trkpt>
      <trkpt lat="36.681" lon="27.53447">
        <ele>196.322</ele>
      </trkpt>
      <trkpt lat="36.68097" lon="27.5344">
        <ele>199.229</ele>
      </trkpt>
      <trkpt lat="36.68091" lon="27.53434">
        <ele>200.69</ele>
      </trkpt>
      <trkpt lat="36.68084" lon="27.53426">
        <ele>202.076</ele>
      </trkpt>
      <trkpt lat="36.68078" lon="27.53426">
        <ele>200.512</ele>
      </trkpt>
      <trkpt lat="36.68069" lon="27.53424">
        <ele>199.119</ele>
      </trkpt>
      <trkpt lat="36.68063" lon="27.53417">
        <ele>198.972</ele>
      </trkpt>
      <trkpt lat="36.68062" lon="27.53413">
        <ele>199.532</ele>
      </trkpt>
      <trkpt lat="36.68055" lon="27.53406">
        <ele>199.412</ele>
      </trkpt>
      <trkpt lat="36.68052" lon="27.53393">
        <ele>202.036</ele>
      </trkpt>
      <trkpt lat="36.68046" lon="27.53384">
        <ele>203.72</ele>
      </trkpt>
      <trkpt lat="36.68044" lon="27.53381">
        <ele>204.469</ele>
      </trkpt>
      <trkpt lat="36.6804" lon="27.53375">
        <ele>205.837</ele>
      </trkpt>
      <trkpt lat="36.68036" lon="27.53372">
        <ele>205.966</ele>
      </trkpt>
      <trkpt lat="36.68031" lon="27.53368">
        <ele>206.193</ele>
      </trkpt>
      <trkpt lat="36.68031" lon="27.53365">
        <ele>207.374</ele>
      </trkpt>
      <trkpt lat="36.68033" lon="27.53356">
        <ele>210.393</ele>
      </trkpt>
      <trkpt lat="36.68032" lon="27.53354">
        <ele>210.787</ele>
      </trkpt>
      <trkpt lat="36.68033" lon="27.53353">
        <ele>211.073</ele>
      </trkpt>
      <trkpt lat="36.68032" lon="27.53344">
        <ele>212.912</ele>
      </trkpt>
      <trkpt lat="36.68026" lon="27.53336">
        <ele>212.813</ele>
      </trkpt>
      <trkpt lat="36.68025" lon="27.53334">
        <ele>212.896</ele>
      </trkpt>
      <trkpt lat="36.68027" lon="27.5333">
        <ele>214.179</ele>
      </trkpt>
      <trkpt lat="36.68027" lon="27.53327">
        <ele>214.741</ele>
      </trkpt>
      <trkpt lat="36.68029" lon="27.53316">
        <ele>217.651</ele>
      </trkpt>
      <trkpt lat="36.68025" lon="27.53315">
        <ele>215.958</ele>
      </trkpt>
      <trkpt lat="36.68021" lon="27.53307">
        <ele>215.588</ele>
      </trkpt>
      <trkpt lat="36.6802" lon="27.53306">
        <ele>215.327</ele>
      </trkpt>
      <trkpt lat="36.6802" lon="27.53305">
        <ele>215.405</ele>
      </trkpt>
      <trkpt lat="36.6802" lon="27.53302">
        <ele>215.621</ele>
      </trkpt>
      <trkpt lat="36.68016" lon="27.53304">
        <ele>213.391</ele>
      </trkpt>
      <trkpt lat="36.68011" lon="27.53303">
        <ele>211.406</ele>
      </trkpt>
      <trkpt lat="36.68005" lon="27.53301">
        <ele>208.904</ele>
      </trkpt>
      <trkpt lat="36.67999" lon="27.53289">
        <ele>207.572</ele>
      </trkpt>
      <trkpt lat="36.67997" lon="27.53288">
        <ele>207.051</ele>
      </trkpt>
      <trkpt lat="36.67994" lon="27.53287">
        <ele>206.298</ele>
      </trkpt>
      <trkpt lat="36.67992" lon="27.53284">
        <ele>206.264</ele>
      </trkpt>
      <trkpt lat="36.67989" lon="27.5328">
        <ele>205.993</ele>
      </trkpt>
      <trkpt lat="36.67989" lon="27.53272">
        <ele>207.624</ele>
      </trkpt>
      <trkpt lat="36.67983" lon="27.5327">
        <ele>206.371</ele>
      </trkpt>
      <trkpt lat="36.67979" lon="27.53271">
        <ele>205.161</ele>
      </trkpt>
      <trkpt lat="36.67974" lon="27.53267">
        <ele>205.207</ele>
      </trkpt>
      <trkpt lat="36.67976" lon="27.53261">
        <ele>207.023</ele>
      </trkpt>
      <trkpt lat="36.67976" lon="27.5326">
        <ele>207.326</ele>
      </trkpt>
      <trkpt lat="36.67973" lon="27.53254">
        <ele>208.053</ele>
      </trkpt>
      <trkpt lat="36.67971" lon="27.53252">
        <ele>208.33</ele>
      </trkpt>
      <trkpt lat="36.67967" lon="27.53247">
        <ele>209.668</ele>
      </trkpt>
      <trkpt lat="36.67966" lon="27.53241">
        <ele>211.64</ele>
      </trkpt>
      <trkpt lat="36.67966" lon="27.53238">
        <ele>212.662</ele>
      </trkpt>
      <trkpt lat="36.67962" lon="27.53233">
        <ele>213.994</ele>
      </trkpt>
      <trkpt lat="36.67959" lon="27.53229">
        <ele>215.073</ele>
      </trkpt>
      <trkpt lat="36.67953" lon="27.53227">
        <ele>215.267</ele>
      </trkpt>
      <trkpt lat="36.67944" lon="27.53228">
        <ele>214.322</ele>
      </trkpt>
      <trkpt lat="36.67941" lon="27.53226">
        <ele>214.762</ele>
      </trkpt>
      <trkpt lat="36.67934" lon="27.53218">
        <ele>215.966</ele>
      </trkpt>
      <trkpt lat="36.67934" lon="27.5321">
        <ele>217.38</ele>
      </trkpt>
      <trkpt lat="36.67927" lon="27.53208">
        <ele>216.938</ele>
      </trkpt>
      <trkpt lat="36.67922" lon="27.532">
        <ele>217.654</ele>
      </trkpt>
      <trkpt lat="36.67917" lon="27.53198">
        <ele>217.607</ele>
      </trkpt>
      <trkpt lat="36.67906" lon="27.53199">
        <ele>215.214</ele>
      </trkpt>
      <trkpt lat="36.67894" lon="27.53198">
        <ele>213.305</ele>
      </trkpt>
      <trkpt lat="36.6789" lon="27.53199">
        <ele>212.297</ele>
      </trkpt>
      <trkpt lat="36.67883" lon="27.53194">
        <ele>212.208</ele>
      </trkpt>
      <trkpt lat="36.67881" lon="27.53191">
        <ele>212.442</ele>
      </trkpt>
      <trkpt lat="36.67881" lon="27.53186">
        <ele>213.17</ele>
      </trkpt>
      <trkpt lat="36.67874" lon="27.53177">
        <ele>213.972</ele>
      </trkpt>
      <trkpt lat="36.67873" lon="27.53177">
        <ele>214.082</ele>
      </trkpt>
      <trkpt lat="36.67873" lon="27.53167">
        <ele>215.812</ele>
      </trkpt>
      <trkpt lat="36.67871" lon="27.53164">
        <ele>215.978</ele>
      </trkpt>
      <trkpt lat="36.67866" lon="27.53157">
        <ele>216.227</ele>
      </trkpt>
      <trkpt lat="36.67867" lon="27.53158">
        <ele>216.271</ele>
      </trkpt>
      <trkpt lat="36.67874" lon="27.53154">
        <ele>216.856</ele>
      </trkpt>
      <trkpt lat="36.67869" lon="27.53141">
        <ele>217.799</ele>
      </trkpt>
      <trkpt lat="36.67866" lon="27.5313">
        <ele>217.565</ele>
      </trkpt>
      <trkpt lat="36.67859" lon="27.53124">
        <ele>217.468</ele>
      </trkpt>
      <trkpt lat="36.67861" lon="27.53114">
        <ele>217.114</ele>
      </trkpt>
      <trkpt lat="36.67863" lon="27.53114">
        <ele>216.979</ele>
      </trkpt>
      <trkpt lat="36.67868" lon="27.53109">
        <ele>216.087</ele>
      </trkpt>
      <trkpt lat="36.67874" lon="27.53108">
        <ele>215.288</ele>
      </trkpt>
      <trkpt lat="36.67878" lon="27.53105">
        <ele>214.475</ele>
      </trkpt>
      <trkpt lat="36.67891" lon="27.53098">
        <ele>212.74</ele>
      </trkpt>
      <trkpt lat="36.67893" lon="27.53097">
        <ele>212.767</ele>
      </trkpt>
      <trkpt lat="36.67904" lon="27.53088">
        <ele>212.29</ele>
      </trkpt>
      <trkpt lat="36.6791" lon="27.53086">
        <ele>212.597</ele>
      </trkpt>
      <trkpt lat="36.67918" lon="27.5308">
        <ele>212.528</ele>
      </trkpt>
      <trkpt lat="36.67925" lon="27.53077">
        <ele>213.242</ele>
      </trkpt>
      <trkpt lat="36.67929" lon="27.53074">
        <ele>213.46</ele>
      </trkpt>
      <trkpt lat="36.67926" lon="27.53071">
        <ele>212.115</ele>
      </trkpt>
      <trkpt lat="36.67924" lon="27.53068">
        <ele>211.205</ele>
      </trkpt>
      <trkpt lat="36.67928" lon="27.53059">
        <ele>209.718</ele>
      </trkpt>
      <trkpt lat="36.6793" lon="27.53054">
        <ele>208.781</ele>
      </trkpt>
      <trkpt lat="36.67932" lon="27.53049">
        <ele>206.918</ele>
      </trkpt>
      <trkpt lat="36.67936" lon="27.53043">
        <ele>205.181</ele>
      </trkpt>
      <trkpt lat="36.67936" lon="27.53042">
        <ele>205.116</ele>
      </trkpt>
      <trkpt lat="36.67945" lon="27.53031">
        <ele>202.276</ele>
      </trkpt>
      <trkpt lat="36.67954" lon="27.53028">
        <ele>199.273</ele>
      </trkpt>
      <trkpt lat="36.67956" lon="27.5303">
        <ele>199.72</ele>
      </trkpt>
      <trkpt lat="36.67953" lon="27.53017">
        <ele>194.72</ele>
      </trkpt>
      <trkpt lat="36.67954" lon="27.53016">
        <ele>194.038</ele>
      </trkpt>
      <trkpt lat="36.67956" lon="27.53014">
        <ele>193.01</ele>
      </trkpt>
      <trkpt lat="36.67954" lon="27.53013">
        <ele>192.447</ele>
      </trkpt>
      <trkpt lat="36.67954" lon="27.53013">
        <ele>192.498</ele>
      </trkpt>
      <trkpt lat="36.67954" lon="27.53012">
        <ele>192.354</ele>
      </trkpt>
      <trkpt lat="36.67949" lon="27.53008">
        <ele>191.423</ele>
      </trkpt>
      <trkpt lat="36.67946" lon="27.53006">
        <ele>190.787</ele>
      </trkpt>
      <trkpt lat="36.67945" lon="27.52996">
        <ele>186.682</ele>
      </trkpt>
      <trkpt lat="36.67946" lon="27.52987">
        <ele>184.18</ele>
      </trkpt>
      <trkpt lat="36.67947" lon="27.52981">
        <ele>182.476</ele>
      </trkpt>
      <trkpt lat="36.67947" lon="27.5298">
        <ele>182.273</ele>
      </trkpt>
      <trkpt lat="36.67948" lon="27.5298">
        <ele>182.271</ele>
      </trkpt>
      <trkpt lat="36.6795" lon="27.52976">
        <ele>180.886</ele>
      </trkpt>
      <trkpt lat="36.67949" lon="27.52965">
        <ele>178.727</ele>
      </trkpt>
      <trkpt lat="36.67948" lon="27.52959">
        <ele>177.589</ele>
      </trkpt>
      <trkpt lat="36.67948" lon="27.52953">
        <ele>176.477</ele>
      </trkpt>
      <trkpt lat="36.67947" lon="27.52951">
        <ele>176.105</ele>
      </trkpt>
      <trkpt lat="36.67948" lon="27.52943">
        <ele>174.517</ele>
      </trkpt>
      <trkpt lat="36.67949" lon="27.52934">
        <ele>172.758</ele>
      </trkpt>
      <trkpt lat="36.6795" lon="27.52928">
        <ele>171.687</ele>
      </trkpt>
      <trkpt lat="36.67948" lon="27.52922">
        <ele>170.669</ele>
      </trkpt>
      <trkpt lat="36.67951" lon="27.5291">
        <ele>168.004</ele>
      </trkpt>
      <trkpt lat="36.67951" lon="27.52909">
        <ele>167.841</ele>
      </trkpt>
      <trkpt lat="36.6795" lon="27.52908">
        <ele>167.622</ele>
      </trkpt>
      <trkpt lat="36.6795" lon="27.52898">
        <ele>165.689</ele>
      </trkpt>
      <trkpt lat="36.67951" lon="27.52888">
        <ele>163.453</ele>
      </trkpt>
      <trkpt lat="36.6795" lon="27.52883">
        <ele>163.172</ele>
      </trkpt>
      <trkpt lat="36.67945" lon="27.52874">
        <ele>163.218</ele>
      </trkpt>
      <trkpt lat="36.67942" lon="27.5287">
        <ele>162.315</ele>
      </trkpt>
      <trkpt lat="36.67943" lon="27.52864">
        <ele>161.975</ele>
      </trkpt>
      <trkpt lat="36.67945" lon="27.5286">
        <ele>161.741</ele>
      </trkpt>
      <trkpt lat="36.67946" lon="27.5286">
        <ele>161.373</ele>
      </trkpt>
      <trkpt lat="36.67945" lon="27.52859">
        <ele>161.32</ele>
      </trkpt>
      <trkpt lat="36.67948" lon="27.5285">
        <ele>158.317</ele>
      </trkpt>
      <trkpt lat="36.67949" lon="27.52844">
        <ele>156.413</ele>
      </trkpt>
      <trkpt lat="36.67948" lon="27.5284">
        <ele>155.757</ele>
      </trkpt>
      <trkpt lat="36.67947" lon="27.52838">
        <ele>155.366</ele>
      </trkpt>
      <trkpt lat="36.67946" lon="27.52834">
        <ele>154.785</ele>
      </trkpt>
      <trkpt lat="36.67942" lon="27.52827">
        <ele>151.029</ele>
      </trkpt>
      <trkpt lat="36.67946" lon="27.52824">
        <ele>150.481</ele>
      </trkpt>
      <trkpt lat="36.67945" lon="27.52822">
        <ele>149.384</ele>
      </trkpt>
      <trkpt lat="36.67953" lon="27.52821">
        <ele>148.028</ele>
      </trkpt>
      <trkpt lat="36.6796" lon="27.52819">
        <ele>146.762</ele>
      </trkpt>
      <trkpt lat="36.67959" lon="27.52814">
        <ele>145.124</ele>
      </trkpt>
      <trkpt lat="36.67961" lon="27.52804">
        <ele>142.169</ele>
      </trkpt>
      <trkpt lat="36.67966" lon="27.528">
        <ele>141.019</ele>
      </trkpt>
      <trkpt lat="36.67968" lon="27.528">
        <ele>141.012</ele>
      </trkpt>
      <trkpt lat="36.67967" lon="27.52797">
        <ele>139.753</ele>
      </trkpt>
      <trkpt lat="36.67966" lon="27.52792">
        <ele>138.198</ele>
      </trkpt>
      <trkpt lat="36.67968" lon="27.52788">
        <ele>136.973</ele>
      </trkpt>
      <trkpt lat="36.67971" lon="27.52783">
        <ele>135.603</ele>
      </trkpt>
      <trkpt lat="36.67973" lon="27.52782">
        <ele>135.155</ele>
      </trkpt>
      <trkpt lat="36.67977" lon="27.5278">
        <ele>133.825</ele>
      </trkpt>
      <trkpt lat="36.67981" lon="27.52772">
        <ele>131.028</ele>
      </trkpt>
      <trkpt lat="36.67982" lon="27.5277">
        <ele>130.406</ele>
      </trkpt>
      <trkpt lat="36.67981" lon="27.52768">
        <ele>129.885</ele>
      </trkpt>
      <trkpt lat="36.67983" lon="27.5276">
        <ele>127.151</ele>
      </trkpt>
      <trkpt lat="36.67983" lon="27.52758">
        <ele>126.625</ele>
      </trkpt>
      <trkpt lat="36.67982" lon="27.52755">
        <ele>125.827</ele>
      </trkpt>
      <trkpt lat="36.67981" lon="27.52757">
        <ele>126.385</ele>
      </trkpt>
      <trkpt lat="36.67982" lon="27.52756">
        <ele>126.108</ele>
      </trkpt>
      <trkpt lat="36.6798" lon="27.5275">
        <ele>124.451</ele>
      </trkpt>
      <trkpt lat="36.6798" lon="27.52746">
        <ele>123.308</ele>
      </trkpt>
      <trkpt lat="36.67983" lon="27.52739">
        <ele>120.048</ele>
      </trkpt>
      <trkpt lat="36.67984" lon="27.52733">
        <ele>118.142</ele>
      </trkpt>
      <trkpt lat="36.67986" lon="27.5273">
        <ele>116.524</ele>
      </trkpt>
      <trkpt lat="36.67987" lon="27.52728">
        <ele>115.696</ele>
      </trkpt>
      <trkpt lat="36.67986" lon="27.52723">
        <ele>114.36</ele>
      </trkpt>
      <trkpt lat="36.67984" lon="27.5272">
        <ele>113.559</ele>
      </trkpt>
      <trkpt lat="36.67984" lon="27.52713">
        <ele>110.761</ele>
      </trkpt>
      <trkpt lat="36.67981" lon="27.52706">
        <ele>108.65</ele>
      </trkpt>
      <trkpt lat="36.67982" lon="27.52706">
        <ele>108.16</ele>
      </trkpt>
      <trkpt lat="36.67983" lon="27.52704">
        <ele>107.376</ele>
      </trkpt>
      <trkpt lat="36.67984" lon="27.527">
        <ele>105.849</ele>
      </trkpt>
      <trkpt lat="36.67987" lon="27.52694">
        <ele>103.017</ele>
      </trkpt>
      <trkpt lat="36.67989" lon="27.52691">
        <ele>101.495</ele>
      </trkpt>
      <trkpt lat="36.6799" lon="27.52685">
        <ele>98.953</ele>
      </trkpt>
      <trkpt lat="36.6799" lon="27.52683">
        <ele>98.152</ele>
      </trkpt>
      <trkpt lat="36.67993" lon="27.52676">
        <ele>94.886</ele>
      </trkpt>
      <trkpt lat="36.67996" lon="27.5267">
        <ele>92.531</ele>
      </trkpt>
      <trkpt lat="36.67996" lon="27.52667">
        <ele>91.13</ele>
      </trkpt>
      <trkpt lat="36.67996" lon="27.52665">
        <ele>90.23</ele>
      </trkpt>
      <trkpt lat="36.67997" lon="27.52658">
        <ele>86.982</ele>
      </trkpt>
      <trkpt lat="36.67998" lon="27.52653">
        <ele>84.358</ele>
      </trkpt>
      <trkpt lat="36.67999" lon="27.52652">
        <ele>84.036</ele>
      </trkpt>
      <trkpt lat="36.68001" lon="27.52646">
        <ele>81.305</ele>
      </trkpt>
      <trkpt lat="36.68002" lon="27.52641">
        <ele>78.685</ele>
      </trkpt>
      <trkpt lat="36.68004" lon="27.52639">
        <ele>77.361</ele>
      </trkpt>
      <trkpt lat="36.68003" lon="27.52633">
        <ele>74.83</ele>
      </trkpt>
      <trkpt lat="36.68002" lon="27.52627">
        <ele>72.172</ele>
      </trkpt>
      <trkpt lat="36.68003" lon="27.52618">
        <ele>68.2</ele>
      </trkpt>
      <trkpt lat="36.68001" lon="27.52617">
        <ele>67.519</ele>
      </trkpt>
      <trkpt lat="36.68" lon="27.52616">
        <ele>67.371</ele>
      </trkpt>
      <trkpt lat="36.68" lon="27.52614">
        <ele>66.496</ele>
      </trkpt>
      <trkpt lat="36.68" lon="27.52608">
        <ele>64.03</ele>
      </trkpt>
      <trkpt lat="36.67999" lon="27.52603">
        <ele>62.268</ele>
      </trkpt>
      <trkpt lat="36.68002" lon="27.52598">
        <ele>60.611</ele>
      </trkpt>
      <trkpt lat="36.67998" lon="27.52592">
        <ele>58.79</ele>
      </trkpt>
      <trkpt lat="36.68002" lon="27.52585">
        <ele>56.423</ele>
      </trkpt>
      <trkpt lat="36.68003" lon="27.52582">
        <ele>55.631</ele>
      </trkpt>
      <trkpt lat="36.68002" lon="27.52575">
        <ele>53.985</ele>
      </trkpt>
      <trkpt lat="36.68003" lon="27.52569">
        <ele>52.527</ele>
      </trkpt>
      <trkpt lat="36.68003" lon="27.52569">
        <ele>52.374</ele>
      </trkpt>
      <trkpt lat="36.68003" lon="27.52566">
        <ele>51.624</ele>
      </trkpt>
      <trkpt lat="36.68004" lon="27.52562">
        <ele>50.688</ele>
      </trkpt>
      <trkpt lat="36.68007" lon="27.52554">
        <ele>48.938</ele>
      </trkpt>
      <trkpt lat="36.68008" lon="27.52545">
        <ele>46.433</ele>
      </trkpt>
      <trkpt lat="36.6801" lon="27.52535">
        <ele>43.607</ele>
      </trkpt>
      <trkpt lat="36.68009" lon="27.52526">
        <ele>41.258</ele>
      </trkpt>
      <trkpt lat="36.6801" lon="27.5252">
        <ele>39.814</ele>
      </trkpt>
      <trkpt lat="36.68002" lon="27.52517">
        <ele>38.493</ele>
      </trkpt>
      <trkpt lat="36.67994" lon="27.52522">
        <ele>38.088</ele>
      </trkpt>
      <trkpt lat="36.67994" lon="27.52522">
        <ele>37.989</ele>
      </trkpt>
      <trkpt lat="36.67983" lon="27.52523">
        <ele>35.711</ele>
      </trkpt>
      <trkpt lat="36.67976" lon="27.52522">
        <ele>33.496</ele>
      </trkpt>
      <trkpt lat="36.67976" lon="27.52522">
        <ele>33.496</ele>
      </trkpt>
      <trkpt lat="36.67972" lon="27.5252">
        <ele>32.239</ele>
      </trkpt>
      <trkpt lat="36.67964" lon="27.52518">
        <ele>31.178</ele>
      </trkpt>
      <trkpt lat="36.67957" lon="27.52516">
        <ele>30.214</ele>
      </trkpt>
      <trkpt lat="36.67958" lon="27.52511">
        <ele>29.071</ele>
      </trkpt>
      <trkpt lat="36.67958" lon="27.52507">
        <ele>28.074</ele>
      </trkpt>
      <trkpt lat="36.67959" lon="27.52507">
        <ele>28.268</ele>
      </trkpt>
      <trkpt lat="36.67975" lon="27.5251">
        <ele>30.763</ele>
      </trkpt>
      <trkpt lat="36.67978" lon="27.52511">
        <ele>31.736</ele>
      </trkpt>
      <trkpt lat="36.6798" lon="27.52511">
        <ele>31.959</ele>
      </trkpt>
      <trkpt lat="36.67979" lon="27.5251">
        <ele>31.634</ele>
      </trkpt>
      <trkpt lat="36.67979" lon="27.52509">
        <ele>31.369</ele>
      </trkpt>
      <trkpt lat="36.67981" lon="27.52505">
        <ele>30.931</ele>
      </trkpt>
      <trkpt lat="36.67981" lon="27.52498">
        <ele>29.752</ele>
      </trkpt>
      <trkpt lat="36.67987" lon="27.52492">
        <ele>30.476</ele>
      </trkpt>
      <trkpt lat="36.67989" lon="27.5249">
        <ele>30.533</ele>
      </trkpt>
      <trkpt lat="36.67989" lon="27.5249">
        <ele>30.586</ele>
      </trkpt>
      <trkpt lat="36.67989" lon="27.52489">
        <ele>30.509</ele>
      </trkpt>
      <trkpt lat="36.67989" lon="27.52489">
        <ele>30.518</ele>
      </trkpt>
      <trkpt lat="36.67974" lon="27.52477">
        <ele>27.377</ele>
      </trkpt>
      <trkpt lat="36.67972" lon="27.52479">
        <ele>27.179</ele>
      </trkpt>
      <trkpt lat="36.67967" lon="27.52474">
        <ele>26.29</ele>
      </trkpt>
      <trkpt lat="36.67967" lon="27.52472">
        <ele>26.263</ele>
      </trkpt>
      <trkpt lat="36.67982" lon="27.52449">
        <ele>27.507</ele>
      </trkpt>
      <trkpt lat="36.67994" lon="27.52428">
        <ele>28.14</ele>
      </trkpt>
      <trkpt lat="36.67999" lon="27.52401">
        <ele>27.36</ele>
      </trkpt>
      <trkpt lat="36.67998" lon="27.52386">
        <ele>26.818</ele>
      </trkpt>
      <trkpt lat="36.67998" lon="27.5238">
        <ele>26.719</ele>
      </trkpt>
      <trkpt lat="36.67999" lon="27.5238">
        <ele>26.842</ele>
      </trkpt>
      <trkpt lat="36.67999" lon="27.5238">
        <ele>26.848</ele>
      </trkpt>
      <trkpt lat="36.67999" lon="27.5238">
        <ele>26.852</ele>
      </trkpt>
      <trkpt lat="36.67999" lon="27.5238">
        <ele>26.88</ele>
      </trkpt>
      <trkpt lat="36.68012" lon="27.52368">
        <ele>30.239</ele>
      </trkpt>
      <trkpt lat="36.67992" lon="27.52324">
        <ele>30.166</ele>
      </trkpt>
      <trkpt lat="36.67971" lon="27.52295">
        <ele>24.769</ele>
      </trkpt>
      <trkpt lat="36.67963" lon="27.52279">
        <ele>23.97</ele>
      </trkpt>
      <trkpt lat="36.67944" lon="27.52238">
        <ele>19.478</ele>
      </trkpt>
      <trkpt lat="36.67939" lon="27.52228">
        <ele>17.503</ele>
      </trkpt>
      <trkpt lat="36.6793" lon="27.52209">
        <ele>14.525</ele>
      </trkpt>
      <trkpt lat="36.6793" lon="27.52209">
        <ele>14.525</ele>
      </trkpt>
      <trkpt lat="36.67921" lon="27.52191">
        <ele>12.437</ele>
      </trkpt>
      <trkpt lat="36.67886" lon="27.52154">
        <ele>12.923</ele>
      </trkpt>
      <trkpt lat="36.67876" lon="27.5215">
        <ele>12.156</ele>
      </trkpt>
      <trkpt lat="36.67842" lon="27.52137">
        <ele>9.38</ele>
      </trkpt>
      <trkpt lat="36.67809" lon="27.521">
        <ele>10.141</ele>
      </trkpt>
      <trkpt lat="36.67804" lon="27.52089">
        <ele>9.599</ele>
      </trkpt>
      <trkpt lat="36.67772" lon="27.52024">
        <ele>13.041</ele>
      </trkpt>
      <trkpt lat="36.67766" lon="27.52007">
        <ele>12.301</ele>
      </trkpt>
      <trkpt lat="36.67764" lon="27.51966">
        <ele>11.216</ele>
      </trkpt>
      <trkpt lat="36.67782" lon="27.51934">
        <ele>12.931</ele>
      </trkpt>
      <trkpt lat="36.67788" lon="27.51927">
        <ele>13.334</ele>
      </trkpt>
      <trkpt lat="36.67833" lon="27.51891">
        <ele>13.453</ele>
      </trkpt>
      <trkpt lat="36.67846" lon="27.51872">
        <ele>13.472</ele>
      </trkpt>
      <trkpt lat="36.6785" lon="27.51852">
        <ele>12.638</ele>
      </trkpt>
      <trkpt lat="36.67847" lon="27.51711">
        <ele>12.169</ele>
      </trkpt>
      <trkpt lat="36.67821" lon="27.51652">
        <ele>7.54</ele>
      </trkpt>
      <trkpt lat="36.6782" lon="27.51653">
        <ele>7.291</ele>
      </trkpt>
      <trkpt lat="36.67827" lon="27.51649">
        <ele>8.461</ele>
      </trkpt>
      <trkpt lat="36.6783" lon="27.51646">
        <ele>8.957</ele>
      </trkpt>
      <trkpt lat="36.67835" lon="27.51642">
        <ele>10.126</ele>
      </trkpt>
      <trkpt lat="36.67835" lon="27.51637">
        <ele>10.457</ele>
      </trkpt>
      <trkpt lat="36.67835" lon="27.51637">
        <ele>10.457</ele>
      </trkpt>
      <trkpt lat="36.67831" lon="27.51632">
        <ele>10.232</ele>
      </trkpt>
      <trkpt lat="36.67822" lon="27.51635">
        <ele>8.773</ele>
      </trkpt>
      <trkpt lat="36.67811" lon="27.51629">
        <ele>8.003</ele>
      </trkpt>
      <trkpt lat="36.67805" lon="27.51622">
        <ele>8.293</ele>
      </trkpt>
      <trkpt lat="36.67802" lon="27.51619">
        <ele>8.178</ele>
      </trkpt>
      <trkpt lat="36.67793" lon="27.51615">
        <ele>6.793</ele>
      </trkpt>
      <trkpt lat="36.67791" lon="27.51614">
        <ele>6.48</ele>
      </trkpt>
      <trkpt lat="36.6778" lon="27.51603">
        <ele>5.624</ele>
      </trkpt>
      <trkpt lat="36.6778" lon="27.51597">
        <ele>6.379</ele>
      </trkpt>
      <trkpt lat="36.6778" lon="27.51595">
        <ele>6.57</ele>
      </trkpt>
      <trkpt lat="36.67777" lon="27.51589">
        <ele>6.998</ele>
      </trkpt>
      <trkpt lat="36.67769" lon="27.51576">
        <ele>5.958</ele>
      </trkpt>
      <trkpt lat="36.67762" lon="27.51563">
        <ele>4.826</ele>
      </trkpt>
      <trkpt lat="36.6776" lon="27.51558">
        <ele>4.645</ele>
      </trkpt>
      <trkpt lat="36.67758" lon="27.51559">
        <ele>4.167</ele>
      </trkpt>
      <trkpt lat="36.67753" lon="27.51559">
        <ele>3.244</ele>
      </trkpt>
      <trkpt lat="36.67744" lon="27.51553">
        <ele>2.444</ele>
      </trkpt>
      <trkpt lat="36.67742" lon="27.51549">
        <ele>2.184</ele>
      </trkpt>
      <trkpt lat="36.67739" lon="27.51535">
        <ele>1.452</ele>
      </trkpt>
      <trkpt lat="36.67735" lon="27.51526">
        <ele>0.922</ele>
      </trkpt>
      <trkpt lat="36.67735" lon="27.51525">
        <ele>0.915</ele>
      </trkpt>
      <trkpt lat="36.67739" lon="27.51512">
        <ele>1.213</ele>
      </trkpt>
      <trkpt lat="36.67739" lon="27.51508">
        <ele>1.191</ele>
      </trkpt>
      <trkpt lat="36.67738" lon="27.51496">
        <ele>1.077</ele>
      </trkpt>
      <trkpt lat="36.67737" lon="27.51484">
        <ele>0.732</ele>
      </trkpt>
      <trkpt lat="36.67745" lon="27.51477">
        <ele>0.959</ele>
      </trkpt>
      <trkpt lat="36.67747" lon="27.51473">
        <ele>0.929</ele>
      </trkpt>
      <trkpt lat="36.67746" lon="27.51459">
        <ele>0.854</ele>
      </trkpt>
      <trkpt lat="36.67744" lon="27.51443">
        <ele>0.817</ele>
      </trkpt>
      <trkpt lat="36.67743" lon="27.51428">
        <ele>1.17</ele>
      </trkpt>
      <trkpt lat="36.6774" lon="27.51409">
        <ele>1.352</ele>
      </trkpt>
      <trkpt lat="36.67735" lon="27.51394">
        <ele>1.353</ele>
      </trkpt>
      <trkpt lat="36.67729" lon="27.51387">
        <ele>1.382</ele>
      </trkpt>
      <trkpt lat="36.67723" lon="27.51374">
        <ele>2.081</ele>
      </trkpt>
      <trkpt lat="36.67718" lon="27.51363">
        <ele>2.556</ele>
      </trkpt>
      <trkpt lat="36.67711" lon="27.51345">
        <ele>2.792</ele>
      </trkpt>
      <trkpt lat="36.67704" lon="27.51327">
        <ele>2.662</ele>
      </trkpt>
      <trkpt lat="36.67696" lon="27.51315">
        <ele>2.124</ele>
      </trkpt>
      <trkpt lat="36.67691" lon="27.51297">
        <ele>1.871</ele>
      </trkpt>
      <trkpt lat="36.67685" lon="27.51285">
        <ele>1.648</ele>
      </trkpt>
      <trkpt lat="36.67678" lon="27.5127">
        <ele>1.408</ele>
      </trkpt>
      <trkpt lat="36.67676" lon="27.51265">
        <ele>1.33</ele>
      </trkpt>
      <trkpt lat="36.6767" lon="27.51252">
        <ele>1.131</ele>
      </trkpt>
      <trkpt lat="36.67666" lon="27.51243">
        <ele>1.78</ele>
      </trkpt>
      <trkpt lat="36.67653" lon="27.51228">
        <ele>2.156</ele>
      </trkpt>
      <trkpt lat="36.67643" lon="27.51212">
        <ele>1.894</ele>
      </trkpt>
      <trkpt lat="36.67637" lon="27.51198">
        <ele>1.805</ele>
      </trkpt>
      <trkpt lat="36.67632" lon="27.51187">
        <ele>2.144</ele>
      </trkpt>
      <trkpt lat="36.67631" lon="27.51178">
        <ele>2.534</ele>
      </trkpt>
      <trkpt lat="36.67629" lon="27.51172">
        <ele>2.658</ele>
      </trkpt>
      <trkpt lat="36.67614" lon="27.51117">
        <ele>2.276</ele>
      </trkpt>
      <trkpt lat="36.67587" lon="27.51064">
        <ele>0.316</ele>
      </trkpt>
      <trkpt lat="36.67565" lon="27.51027">
        <ele>-0.626</ele>
      </trkpt>
      <trkpt lat="36.67527" lon="27.50967">
        <ele>0.035</ele>
      </trkpt>
      <trkpt lat="36.67506" lon="27.5094">
        <ele>0.826</ele>
      </trkpt>
      <trkpt lat="36.67491" lon="27.50924">
        <ele>1.434</ele>
      </trkpt>
      <trkpt lat="36.67478" lon="27.50907">
        <ele>1.522</ele>
      </trkpt>
      <trkpt lat="36.67464" lon="27.50885">
        <ele>1</ele>
      </trkpt>
      <trkpt lat="36.67426" lon="27.50824">
        <ele>0.771</ele>
      </trkpt>
      <trkpt lat="36.67426" lon="27.50824">
        <ele>0.771</ele>
      </trkpt>
      <trkpt lat="36.67426" lon="27.50824">
        <ele>0.771</ele>
      </trkpt>
      <trkpt lat="36.67426" lon="27.50824">
        <ele>0.771</ele>
      </trkpt>
      <trkpt lat="36.67426" lon="27.50824">
        <ele>0.771</ele>
      </trkpt>
      <trkpt lat="36.67426" lon="27.50824">
        <ele>0.771</ele>
      </trkpt>
      <trkpt lat="36.67411" lon="27.50816">
        <ele>0.5</ele>
      </trkpt>
      <trkpt lat="36.67382" lon="27.50771">
        <ele>0.482</ele>
      </trkpt>
      <trkpt lat="36.6736" lon="27.50737">
        <ele>0.553</ele>
      </trkpt>
      <trkpt lat="36.6736" lon="27.50737">
        <ele>0.553</ele>
      </trkpt>
      <trkpt lat="36.67331" lon="27.50698">
        <ele>0.798</ele>
      </trkpt>
      <trkpt lat="36.67302" lon="27.50659">
        <ele>-1.515</ele>
      </trkpt>
      <trkpt lat="36.67273" lon="27.50621">
        <ele>-2.66</ele>
      </trkpt>
      <trkpt lat="36.67265" lon="27.5061">
        <ele>-2.532</ele>
      </trkpt>
      <trkpt lat="36.67245" lon="27.50583">
        <ele>-1.422</ele>
      </trkpt>
      <trkpt lat="36.67258" lon="27.50596">
        <ele>-2.133</ele>
      </trkpt>
      <trkpt lat="36.67258" lon="27.50596">
        <ele>-2.136</ele>
      </trkpt>
      <trkpt lat="36.67254" lon="27.506">
        <ele>-2.077</ele>
      </trkpt>
      <trkpt lat="36.67265" lon="27.5059">
        <ele>-2.133</ele>
      </trkpt>
      <trkpt lat="36.67282" lon="27.50568">
        <ele>-1.211</ele>
      </trkpt>
      <trkpt lat="36.67321" lon="27.5052">
        <ele>1.543</ele>
      </trkpt>
      <trkpt lat="36.67354" lon="27.50473">
        <ele>0.244</ele>
      </trkpt>
      <trkpt lat="36.67387" lon="27.50405">
        <ele>3.436</ele>
      </trkpt>
      <trkpt lat="36.67407" lon="27.50368">
        <ele>4.919</ele>
      </trkpt>
      <trkpt lat="36.67423" lon="27.50311">
        <ele>4.95</ele>
      </trkpt>
      <trkpt lat="36.67438" lon="27.50255">
        <ele>6.96</ele>
      </trkpt>
      <trkpt lat="36.67442" lon="27.50242">
        <ele>7</ele>
      </trkpt>
      <trkpt lat="36.67446" lon="27.5023">
        <ele>6.939</ele>
      </trkpt>
      <trkpt lat="36.67452" lon="27.50211">
        <ele>6.737</ele>
      </trkpt>
      <trkpt lat="36.67473" lon="27.50156">
        <ele>5.622</ele>
      </trkpt>
      <trkpt lat="36.67489" lon="27.5012">
        <ele>5.864</ele>
      </trkpt>
      <trkpt lat="36.67499" lon="27.50073">
        <ele>6.979</ele>
      </trkpt>
      <trkpt lat="36.67508" lon="27.50041">
        <ele>6.328</ele>
      </trkpt>
      <trkpt lat="36.6752" lon="27.49993">
        <ele>6.611</ele>
      </trkpt>
      <trkpt lat="36.67536" lon="27.49949">
        <ele>6.821</ele>
      </trkpt>
      <trkpt lat="36.67547" lon="27.49908">
        <ele>9.011</ele>
      </trkpt>
      <trkpt lat="36.67555" lon="27.4988">
        <ele>9.981</ele>
      </trkpt>
      <trkpt lat="36.67555" lon="27.49877">
        <ele>9.982</ele>
      </trkpt>
      <trkpt lat="36.67559" lon="27.49846">
        <ele>9.521</ele>
      </trkpt>
      <trkpt lat="36.67566" lon="27.49812">
        <ele>9.867</ele>
      </trkpt>
      <trkpt lat="36.67573" lon="27.49779">
        <ele>10.954</ele>
      </trkpt>
      <trkpt lat="36.67571" lon="27.4975">
        <ele>11.996</ele>
      </trkpt>
      <trkpt lat="36.67572" lon="27.49712">
        <ele>12.772</ele>
      </trkpt>
      <trkpt lat="36.67581" lon="27.49678">
        <ele>12.082</ele>
      </trkpt>
      <trkpt lat="36.67588" lon="27.4965">
        <ele>12.091</ele>
      </trkpt>
      <trkpt lat="36.67596" lon="27.49621">
        <ele>12.459</ele>
      </trkpt>
      <trkpt lat="36.67603" lon="27.49603">
        <ele>12.992</ele>
      </trkpt>
      <trkpt lat="36.67608" lon="27.49594">
        <ele>13.491</ele>
      </trkpt>
      <trkpt lat="36.67613" lon="27.49588">
        <ele>13.843</ele>
      </trkpt>
      <trkpt lat="36.67612" lon="27.49585">
        <ele>13.949</ele>
      </trkpt>
      <trkpt lat="36.67611" lon="27.49584">
        <ele>13.979</ele>
      </trkpt>
      <trkpt lat="36.67597" lon="27.49574">
        <ele>13.664</ele>
      </trkpt>
      <trkpt lat="36.67588" lon="27.4957">
        <ele>13.57</ele>
      </trkpt>
      <trkpt lat="36.6758" lon="27.49568">
        <ele>13.31</ele>
      </trkpt>
      <trkpt lat="36.67558" lon="27.4956">
        <ele>12.031</ele>
      </trkpt>
      <trkpt lat="36.67532" lon="27.49547">
        <ele>12.37</ele>
      </trkpt>
      <trkpt lat="36.67526" lon="27.49539">
        <ele>12.649</ele>
      </trkpt>
      <trkpt lat="36.6753" lon="27.49534">
        <ele>12.834</ele>
      </trkpt>
      <trkpt lat="36.67531" lon="27.49525">
        <ele>13.211</ele>
      </trkpt>
      <trkpt lat="36.67511" lon="27.49516">
        <ele>13.768</ele>
      </trkpt>
      <trkpt lat="36.67479" lon="27.49504">
        <ele>13.883</ele>
      </trkpt>
      <trkpt lat="36.67439" lon="27.49491">
        <ele>13.417</ele>
      </trkpt>
      <trkpt lat="36.67427" lon="27.49487">
        <ele>13.753</ele>
      </trkpt>
      <trkpt lat="36.67425" lon="27.4949">
        <ele>13.636</ele>
      </trkpt>
      <trkpt lat="36.67425" lon="27.49484">
        <ele>14.009</ele>
      </trkpt>
      <trkpt lat="36.67425" lon="27.49484">
        <ele>14.009</ele>
      </trkpt>
      <trkpt lat="36.67425" lon="27.49484">
        <ele>14.009</ele>
      </trkpt>
      <trkpt lat="36.67421" lon="27.49495">
        <ele>13.318</ele>
      </trkpt>
      <trkpt lat="36.67421" lon="27.49495">
        <ele>13.318</ele>
      </trkpt>
      <trkpt lat="36.67426" lon="27.49479">
        <ele>14.286</ele>
      </trkpt>
      <trkpt lat="36.67444" lon="27.49412">
        <ele>15</ele>
      </trkpt>
      <trkpt lat="36.67453" lon="27.49379">
        <ele>15.718</ele>
      </trkpt>
      <trkpt lat="36.67466" lon="27.49329">
        <ele>18.303</ele>
      </trkpt>
      <trkpt lat="36.67481" lon="27.49267">
        <ele>20.379</ele>
      </trkpt>
      <trkpt lat="36.67489" lon="27.49226">
        <ele>20.657</ele>
      </trkpt>
      <trkpt lat="36.67499" lon="27.49177">
        <ele>20.9</ele>
      </trkpt>
      <trkpt lat="36.67506" lon="27.49137">
        <ele>23.082</ele>
      </trkpt>
      <trkpt lat="36.67517" lon="27.49092">
        <ele>25.003</ele>
      </trkpt>
      <trkpt lat="36.67538" lon="27.48994">
        <ele>25.393</ele>
      </trkpt>
      <trkpt lat="36.67564" lon="27.48882">
        <ele>30.169</ele>
      </trkpt>
      <trkpt lat="36.6758" lon="27.48816">
        <ele>30</ele>
      </trkpt>
      <trkpt lat="36.67595" lon="27.48755">
        <ele>32.581</ele>
      </trkpt>
      <trkpt lat="36.67608" lon="27.48702">
        <ele>38.458</ele>
      </trkpt>
      <trkpt lat="36.6764" lon="27.48592">
        <ele>40.581</ele>
      </trkpt>
      <trkpt lat="36.67669" lon="27.48501">
        <ele>41.265</ele>
      </trkpt>
      <trkpt lat="36.67707" lon="27.48394">
        <ele>40.371</ele>
      </trkpt>
      <trkpt lat="36.67737" lon="27.48317">
        <ele>43.862</ele>
      </trkpt>
      <trkpt lat="36.67763" lon="27.48253">
        <ele>44.09</ele>
      </trkpt>
      <trkpt lat="36.67778" lon="27.48214">
        <ele>43.297</ele>
      </trkpt>
      <trkpt lat="36.6778" lon="27.482">
        <ele>43.878</ele>
      </trkpt>
      <trkpt lat="36.67771" lon="27.48188">
        <ele>44.24</ele>
      </trkpt>
      <trkpt lat="36.67749" lon="27.48169">
        <ele>44.958</ele>
      </trkpt>
      <trkpt lat="36.67716" lon="27.4815">
        <ele>46.605</ele>
      </trkpt>
      <trkpt lat="36.67698" lon="27.48128">
        <ele>46.593</ele>
      </trkpt>
      <trkpt lat="36.67659" lon="27.48091">
        <ele>45.926</ele>
      </trkpt>
      <trkpt lat="36.67643" lon="27.48081">
        <ele>46</ele>
      </trkpt>
      <trkpt lat="36.67619" lon="27.48068">
        <ele>46</ele>
      </trkpt>
      <trkpt lat="36.67615" lon="27.48064">
        <ele>46</ele>
      </trkpt>
      <trkpt lat="36.67588" lon="27.48041">
        <ele>45.088</ele>
      </trkpt>
      <trkpt lat="36.67584" lon="27.48037">
        <ele>45.003</ele>
      </trkpt>
      <trkpt lat="36.67574" lon="27.48026">
        <ele>44.729</ele>
      </trkpt>
      <trkpt lat="36.67625" lon="27.4796">
        <ele>46.714</ele>
      </trkpt>
      <trkpt lat="36.67638" lon="27.47916">
        <ele>47.974</ele>
      </trkpt>
      <trkpt lat="36.6763" lon="27.47884">
        <ele>48.126</ele>
      </trkpt>
      <trkpt lat="36.67623" lon="27.47862">
        <ele>48.424</ele>
      </trkpt>
      <trkpt lat="36.67618" lon="27.47844">
        <ele>49.332</ele>
      </trkpt>
      <trkpt lat="36.67607" lon="27.47838">
        <ele>49.717</ele>
      </trkpt>
      <trkpt lat="36.67582" lon="27.47816">
        <ele>50.707</ele>
      </trkpt>
      <trkpt lat="36.67568" lon="27.47802">
        <ele>52.328</ele>
      </trkpt>
      <trkpt lat="36.67544" lon="27.47827">
        <ele>53.257</ele>
      </trkpt>
      <trkpt lat="36.6754" lon="27.4783">
        <ele>53.415</ele>
      </trkpt>
      <trkpt lat="36.67511" lon="27.47847">
        <ele>54.266</ele>
      </trkpt>
      <trkpt lat="36.67491" lon="27.47852">
        <ele>56.3</ele>
      </trkpt>
      <trkpt lat="36.6749" lon="27.47853">
        <ele>56.585</ele>
      </trkpt>
      <trkpt lat="36.67472" lon="27.4785">
        <ele>60.032</ele>
      </trkpt>
      <trkpt lat="36.6746" lon="27.47849">
        <ele>62.135</ele>
      </trkpt>
      <trkpt lat="36.67452" lon="27.47851">
        <ele>63.638</ele>
      </trkpt>
      <trkpt lat="36.67417" lon="27.47863">
        <ele>65.84</ele>
      </trkpt>
      <trkpt lat="36.67406" lon="27.47857">
        <ele>67.568</ele>
      </trkpt>
      <trkpt lat="36.67393" lon="27.47854">
        <ele>69.474</ele>
      </trkpt>
      <trkpt lat="36.67366" lon="27.47862">
        <ele>73.005</ele>
      </trkpt>
      <trkpt lat="36.67337" lon="27.47871">
        <ele>74.84</ele>
      </trkpt>
      <trkpt lat="36.67328" lon="27.47881">
        <ele>74.021</ele>
      </trkpt>
      <trkpt lat="36.67311" lon="27.47885">
        <ele>74.779</ele>
      </trkpt>
      <trkpt lat="36.67292" lon="27.47884">
        <ele>77.537</ele>
      </trkpt>
      <trkpt lat="36.67294" lon="27.47877">
        <ele>79.733</ele>
      </trkpt>
      <trkpt lat="36.67304" lon="27.47865">
        <ele>82.961</ele>
      </trkpt>
      <trkpt lat="36.67307" lon="27.47858">
        <ele>84.488</ele>
      </trkpt>
      <trkpt lat="36.67308" lon="27.47857">
        <ele>84.465</ele>
      </trkpt>
      <trkpt lat="36.67314" lon="27.47847">
        <ele>85.794</ele>
      </trkpt>
      <trkpt lat="36.67335" lon="27.47815">
        <ele>87.549</ele>
      </trkpt>
      <trkpt lat="36.67339" lon="27.47804">
        <ele>88.753</ele>
      </trkpt>
      <trkpt lat="36.67355" lon="27.47781">
        <ele>87.632</ele>
      </trkpt>
      <trkpt lat="36.67362" lon="27.47771">
        <ele>88.132</ele>
      </trkpt>
      <trkpt lat="36.67369" lon="27.4776">
        <ele>88.728</ele>
      </trkpt>
      <trkpt lat="36.67392" lon="27.47729">
        <ele>89.53</ele>
      </trkpt>
      <trkpt lat="36.67409" lon="27.47703">
        <ele>89.284</ele>
      </trkpt>
      <trkpt lat="36.67434" lon="27.47662">
        <ele>90.172</ele>
      </trkpt>
      <trkpt lat="36.6746" lon="27.47627">
        <ele>92.767</ele>
      </trkpt>
      <trkpt lat="36.67474" lon="27.47615">
        <ele>91.83</ele>
      </trkpt>
      <trkpt lat="36.6748" lon="27.47606">
        <ele>92.531</ele>
      </trkpt>
      <trkpt lat="36.67513" lon="27.4758">
        <ele>90.355</ele>
      </trkpt>
      <trkpt lat="36.6753" lon="27.47554">
        <ele>91.518</ele>
      </trkpt>
      <trkpt lat="36.67533" lon="27.47519">
        <ele>96.139</ele>
      </trkpt>
      <trkpt lat="36.6754" lon="27.47492">
        <ele>96.732</ele>
      </trkpt>
      <trkpt lat="36.67537" lon="27.47467">
        <ele>98.125</ele>
      </trkpt>
      <trkpt lat="36.67534" lon="27.47463">
        <ele>98.874</ele>
      </trkpt>
      <trkpt lat="36.67541" lon="27.47425">
        <ele>93.436</ele>
      </trkpt>
      <trkpt lat="36.67557" lon="27.47402">
        <ele>89.119</ele>
      </trkpt>
      <trkpt lat="36.67561" lon="27.47381">
        <ele>90.31</ele>
      </trkpt>
      <trkpt lat="36.67561" lon="27.47358">
        <ele>93.777</ele>
      </trkpt>
      <trkpt lat="36.6756" lon="27.47358">
        <ele>94.089</ele>
      </trkpt>
      <trkpt lat="36.67561" lon="27.47357">
        <ele>93.95</ele>
      </trkpt>
      <trkpt lat="36.67559" lon="27.47339">
        <ele>97.938</ele>
      </trkpt>
      <trkpt lat="36.67555" lon="27.47328">
        <ele>100.109</ele>
      </trkpt>
      <trkpt lat="36.67551" lon="27.47312">
        <ele>101.716</ele>
      </trkpt>
      <trkpt lat="36.67558" lon="27.47264">
        <ele>104.377</ele>
      </trkpt>
      <trkpt lat="36.67563" lon="27.47237">
        <ele>105.073</ele>
      </trkpt>
      <trkpt lat="36.67559" lon="27.47223">
        <ele>106.789</ele>
      </trkpt>
      <trkpt lat="36.67556" lon="27.47204">
        <ele>108.029</ele>
      </trkpt>
      <trkpt lat="36.67568" lon="27.47188">
        <ele>104.461</ele>
      </trkpt>
      <trkpt lat="36.67569" lon="27.47183">
        <ele>104.534</ele>
      </trkpt>
      <trkpt lat="36.67581" lon="27.47143">
        <ele>106.265</ele>
      </trkpt>
      <trkpt lat="36.6758" lon="27.47128">
        <ele>109.575</ele>
      </trkpt>
      <trkpt lat="36.67579" lon="27.47113">
        <ele>113.729</ele>
      </trkpt>
      <trkpt lat="36.67573" lon="27.47095">
        <ele>117.815</ele>
      </trkpt>
      <trkpt lat="36.67571" lon="27.47091">
        <ele>118.828</ele>
      </trkpt>
      <trkpt lat="36.67575" lon="27.47066">
        <ele>120.278</ele>
      </trkpt>
      <trkpt lat="36.67586" lon="27.47032">
        <ele>122.695</ele>
      </trkpt>
      <trkpt lat="36.676" lon="27.47007">
        <ele>124.806</ele>
      </trkpt>
      <trkpt lat="36.67611" lon="27.46983">
        <ele>126.178</ele>
      </trkpt>
      <trkpt lat="36.67613" lon="27.46972">
        <ele>127.75</ele>
      </trkpt>
      <trkpt lat="36.6761" lon="27.46954">
        <ele>131.55</ele>
      </trkpt>
      <trkpt lat="36.6761" lon="27.46943">
        <ele>133.445</ele>
      </trkpt>
      <trkpt lat="36.6761" lon="27.46933">
        <ele>135.842</ele>
      </trkpt>
      <trkpt lat="36.67619" lon="27.46911">
        <ele>139.097</ele>
      </trkpt>
      <trkpt lat="36.67625" lon="27.469">
        <ele>139.95</ele>
      </trkpt>
      <trkpt lat="36.67628" lon="27.46897">
        <ele>139.687</ele>
      </trkpt>
      <trkpt lat="36.67631" lon="27.46896">
        <ele>139.22</ele>
      </trkpt>
      <trkpt lat="36.67648" lon="27.46894">
        <ele>137.674</ele>
      </trkpt>
      <trkpt lat="36.67656" lon="27.46883">
        <ele>138.256</ele>
      </trkpt>
      <trkpt lat="36.67659" lon="27.46872">
        <ele>138.412</ele>
      </trkpt>
      <trkpt lat="36.67651" lon="27.46841">
        <ele>140.452</ele>
      </trkpt>
      <trkpt lat="36.67644" lon="27.46822">
        <ele>143.262</ele>
      </trkpt>
      <trkpt lat="36.67642" lon="27.46817">
        <ele>144.602</ele>
      </trkpt>
      <trkpt lat="36.67629" lon="27.46791">
        <ele>151.362</ele>
      </trkpt>
      <trkpt lat="36.67618" lon="27.46759">
        <ele>156.082</ele>
      </trkpt>
      <trkpt lat="36.67617" lon="27.46755">
        <ele>156.43</ele>
      </trkpt>
      <trkpt lat="36.67616" lon="27.46712">
        <ele>157.405</ele>
      </trkpt>
      <trkpt lat="36.6761" lon="27.46687">
        <ele>160.491</ele>
      </trkpt>
      <trkpt lat="36.67614" lon="27.4664">
        <ele>163.369</ele>
      </trkpt>
      <trkpt lat="36.67619" lon="27.46619">
        <ele>162.861</ele>
      </trkpt>
      <trkpt lat="36.67617" lon="27.4661">
        <ele>163.062</ele>
      </trkpt>
      <trkpt lat="36.67614" lon="27.46596">
        <ele>161.961</ele>
      </trkpt>
      <trkpt lat="36.67615" lon="27.46585">
        <ele>160.771</ele>
      </trkpt>
      <trkpt lat="36.67617" lon="27.46563">
        <ele>157.388</ele>
      </trkpt>
      <trkpt lat="36.67616" lon="27.4652">
        <ele>155.345</ele>
      </trkpt>
      <trkpt lat="36.67615" lon="27.46508">
        <ele>156.484</ele>
      </trkpt>
      <trkpt lat="36.67618" lon="27.46497">
        <ele>156.492</ele>
      </trkpt>
      <trkpt lat="36.67635" lon="27.46491">
        <ele>152.076</ele>
      </trkpt>
      <trkpt lat="36.6767" lon="27.46466">
        <ele>145.029</ele>
      </trkpt>
      <trkpt lat="36.67685" lon="27.46447">
        <ele>145.032</ele>
      </trkpt>
      <trkpt lat="36.67686" lon="27.46444">
        <ele>145.282</ele>
      </trkpt>
      <trkpt lat="36.67687" lon="27.46448">
        <ele>144.614</ele>
      </trkpt>
      <trkpt lat="36.67686" lon="27.46418">
        <ele>146.885</ele>
      </trkpt>
      <trkpt lat="36.67683" lon="27.46403">
        <ele>145.762</ele>
      </trkpt>
      <trkpt lat="36.67679" lon="27.46363">
        <ele>142.73</ele>
      </trkpt>
      <trkpt lat="36.67683" lon="27.4634">
        <ele>140.546</ele>
      </trkpt>
      <trkpt lat="36.6768" lon="27.46313">
        <ele>142.895</ele>
      </trkpt>
      <trkpt lat="36.67675" lon="27.46272">
        <ele>147.062</ele>
      </trkpt>
      <trkpt lat="36.67669" lon="27.46264">
        <ele>147.042</ele>
      </trkpt>
      <trkpt lat="36.67671" lon="27.46249">
        <ele>147.166</ele>
      </trkpt>
      <trkpt lat="36.67686" lon="27.46243">
        <ele>148.212</ele>
      </trkpt>
      <trkpt lat="36.67689" lon="27.4624">
        <ele>148.625</ele>
      </trkpt>
      <trkpt lat="36.67702" lon="27.46222">
        <ele>150.486</ele>
      </trkpt>
      <trkpt lat="36.67708" lon="27.46198">
        <ele>150.111</ele>
      </trkpt>
      <trkpt lat="36.67708" lon="27.46185">
        <ele>149.274</ele>
      </trkpt>
      <trkpt lat="36.67709" lon="27.46173">
        <ele>147.974</ele>
      </trkpt>
      <trkpt lat="36.67703" lon="27.46154">
        <ele>147.929</ele>
      </trkpt>
      <trkpt lat="36.6769" lon="27.4613">
        <ele>148.112</ele>
      </trkpt>
      <trkpt lat="36.67689" lon="27.46126">
        <ele>148.076</ele>
      </trkpt>
      <trkpt lat="36.67685" lon="27.46096">
        <ele>148.807</ele>
      </trkpt>
      <trkpt lat="36.67684" lon="27.4608">
        <ele>150.241</ele>
      </trkpt>
      <trkpt lat="36.67686" lon="27.46079">
        <ele>150.145</ele>
      </trkpt>
      <trkpt lat="36.67693" lon="27.46083">
        <ele>149.255</ele>
      </trkpt>
      <trkpt lat="36.6772" lon="27.46074">
        <ele>149.067</ele>
      </trkpt>
      <trkpt lat="36.67729" lon="27.46055">
        <ele>150.332</ele>
      </trkpt>
      <trkpt lat="36.67727" lon="27.46032">
        <ele>152.351</ele>
      </trkpt>
      <trkpt lat="36.67732" lon="27.46007">
        <ele>152.338</ele>
      </trkpt>
      <trkpt lat="36.67733" lon="27.46001">
        <ele>152.395</ele>
      </trkpt>
      <trkpt lat="36.67748" lon="27.45975">
        <ele>154.368</ele>
      </trkpt>
      <trkpt lat="36.6776" lon="27.45974">
        <ele>156.059</ele>
      </trkpt>
      <trkpt lat="36.67768" lon="27.45967">
        <ele>158.522</ele>
      </trkpt>
      <trkpt lat="36.67769" lon="27.45963">
        <ele>159.238</ele>
      </trkpt>
      <trkpt lat="36.67775" lon="27.45944">
        <ele>161.991</ele>
      </trkpt>
      <trkpt lat="36.67776" lon="27.45919">
        <ele>165.655</ele>
      </trkpt>
      <trkpt lat="36.6778" lon="27.45909">
        <ele>167.097</ele>
      </trkpt>
      <trkpt lat="36.67789" lon="27.459">
        <ele>169.03</ele>
      </trkpt>
      <trkpt lat="36.67795" lon="27.45892">
        <ele>170.52</ele>
      </trkpt>
      <trkpt lat="36.67796" lon="27.45892">
        <ele>170.541</ele>
      </trkpt>
      <trkpt lat="36.678" lon="27.45891">
        <ele>171.103</ele>
      </trkpt>
      <trkpt lat="36.67818" lon="27.45867">
        <ele>173.039</ele>
      </trkpt>
      <trkpt lat="36.6783" lon="27.4583">
        <ele>174.746</ele>
      </trkpt>
      <trkpt lat="36.67846" lon="27.45793">
        <ele>177.146</ele>
      </trkpt>
      <trkpt lat="36.67857" lon="27.45773">
        <ele>178.03</ele>
      </trkpt>
      <trkpt lat="36.6787" lon="27.45752">
        <ele>177.028</ele>
      </trkpt>
      <trkpt lat="36.67882" lon="27.4575">
        <ele>175.744</ele>
      </trkpt>
      <trkpt lat="36.67888" lon="27.4575">
        <ele>175.069</ele>
      </trkpt>
      <trkpt lat="36.67894" lon="27.45733">
        <ele>174.046</ele>
      </trkpt>
      <trkpt lat="36.67894" lon="27.45715">
        <ele>173.374</ele>
      </trkpt>
      <trkpt lat="36.67894" lon="27.4571">
        <ele>173.166</ele>
      </trkpt>
      <trkpt lat="36.67898" lon="27.45708">
        <ele>172.814</ele>
      </trkpt>
      <trkpt lat="36.67897" lon="27.45696">
        <ele>172.465</ele>
      </trkpt>
      <trkpt lat="36.67899" lon="27.45683">
        <ele>171.9</ele>
      </trkpt>
      <trkpt lat="36.67904" lon="27.45673">
        <ele>171.126</ele>
      </trkpt>
      <trkpt lat="36.67912" lon="27.45667">
        <ele>170.354</ele>
      </trkpt>
      <trkpt lat="36.6792" lon="27.45661">
        <ele>170.362</ele>
      </trkpt>
      <trkpt lat="36.67922" lon="27.45649">
        <ele>171.053</ele>
      </trkpt>
      <trkpt lat="36.67915" lon="27.45642">
        <ele>171.825</ele>
      </trkpt>
      <trkpt lat="36.67911" lon="27.4563">
        <ele>172.395</ele>
      </trkpt>
      <trkpt lat="36.67913" lon="27.45621">
        <ele>172.74</ele>
      </trkpt>
      <trkpt lat="36.67916" lon="27.4561">
        <ele>173.042</ele>
      </trkpt>
      <trkpt lat="36.67907" lon="27.4561">
        <ele>173.41</ele>
      </trkpt>
      <trkpt lat="36.67893" lon="27.45598">
        <ele>174.35</ele>
      </trkpt>
      <trkpt lat="36.67875" lon="27.45586">
        <ele>175.351</ele>
      </trkpt>
      <trkpt lat="36.6787" lon="27.45583">
        <ele>175.684</ele>
      </trkpt>
      <trkpt lat="36.67862" lon="27.45566">
        <ele>176.59</ele>
      </trkpt>
      <trkpt lat="36.67852" lon="27.45554">
        <ele>177.259</ele>
      </trkpt>
      <trkpt lat="36.67839" lon="27.45552">
        <ele>177.606</ele>
      </trkpt>
      <trkpt lat="36.67831" lon="27.45566">
        <ele>178.534</ele>
      </trkpt>
      <trkpt lat="36.6782" lon="27.45588">
        <ele>179.92</ele>
      </trkpt>
      <trkpt lat="36.67803" lon="27.45602">
        <ele>181.029</ele>
      </trkpt>
      <trkpt lat="36.67788" lon="27.45616">
        <ele>181.762</ele>
      </trkpt>
      <trkpt lat="36.67772" lon="27.45628">
        <ele>182.684</ele>
      </trkpt>
      <trkpt lat="36.67759" lon="27.45637">
        <ele>184.109</ele>
      </trkpt>
      <trkpt lat="36.67755" lon="27.45639">
        <ele>184.647</ele>
      </trkpt>
      <trkpt lat="36.67748" lon="27.45642">
        <ele>184.992</ele>
      </trkpt>
      <trkpt lat="36.67727" lon="27.4565">
        <ele>184.441</ele>
      </trkpt>
      <trkpt lat="36.67722" lon="27.4565">
        <ele>184.221</ele>
      </trkpt>
      <trkpt lat="36.67716" lon="27.45654">
        <ele>184.236</ele>
      </trkpt>
      <trkpt lat="36.67694" lon="27.45653">
        <ele>182.967</ele>
      </trkpt>
      <trkpt lat="36.67689" lon="27.45652">
        <ele>182.948</ele>
      </trkpt>
      <trkpt lat="36.67676" lon="27.45651">
        <ele>183.071</ele>
      </trkpt>
      <trkpt lat="36.67673" lon="27.45653">
        <ele>183.446</ele>
      </trkpt>
      <trkpt lat="36.67656" lon="27.4566">
        <ele>184.151</ele>
      </trkpt>
      <trkpt lat="36.67639" lon="27.45665">
        <ele>183.826</ele>
      </trkpt>
      <trkpt lat="36.67616" lon="27.45672">
        <ele>183.37</ele>
      </trkpt>
      <trkpt lat="36.67601" lon="27.4568">
        <ele>184.461</ele>
      </trkpt>
      <trkpt lat="36.67591" lon="27.45672">
        <ele>182.878</ele>
      </trkpt>
      <trkpt lat="36.67584" lon="27.45648">
        <ele>180.649</ele>
      </trkpt>
      <trkpt lat="36.67575" lon="27.45628">
        <ele>180.293</ele>
      </trkpt>
      <trkpt lat="36.67564" lon="27.45611">
        <ele>179.692</ele>
      </trkpt>
      <trkpt lat="36.67548" lon="27.45602">
        <ele>179.49</ele>
      </trkpt>
      <trkpt lat="36.67544" lon="27.45598">
        <ele>179.233</ele>
      </trkpt>
      <trkpt lat="36.6753" lon="27.45583">
        <ele>177.973</ele>
      </trkpt>
      <trkpt lat="36.67527" lon="27.45572">
        <ele>177.242</ele>
      </trkpt>
      <trkpt lat="36.67522" lon="27.45555">
        <ele>176.566</ele>
      </trkpt>
      <trkpt lat="36.67503" lon="27.45542">
        <ele>177.711</ele>
      </trkpt>
      <trkpt lat="36.67481" lon="27.45528">
        <ele>181.073</ele>
      </trkpt>
      <trkpt lat="36.67465" lon="27.45515">
        <ele>183.081</ele>
      </trkpt>
      <trkpt lat="36.67445" lon="27.455">
        <ele>184.877</ele>
      </trkpt>
      <trkpt lat="36.67436" lon="27.45484">
        <ele>185.346</ele>
      </trkpt>
      <trkpt lat="36.67426" lon="27.45476">
        <ele>186.094</ele>
      </trkpt>
      <trkpt lat="36.67414" lon="27.45461">
        <ele>185.956</ele>
      </trkpt>
      <trkpt lat="36.67404" lon="27.4544">
        <ele>185.485</ele>
      </trkpt>
      <trkpt lat="36.67395" lon="27.45422">
        <ele>186.13</ele>
      </trkpt>
      <trkpt lat="36.67388" lon="27.45406">
        <ele>186.703</ele>
      </trkpt>
      <trkpt lat="36.67377" lon="27.45397">
        <ele>186.637</ele>
      </trkpt>
      <trkpt lat="36.67371" lon="27.45391">
        <ele>186.236</ele>
      </trkpt>
      <trkpt lat="36.67359" lon="27.45377">
        <ele>185.136</ele>
      </trkpt>
      <trkpt lat="36.67356" lon="27.45376">
        <ele>184.956</ele>
      </trkpt>
      <trkpt lat="36.67346" lon="27.45374">
        <ele>184.623</ele>
      </trkpt>
      <trkpt lat="36.67332" lon="27.45363">
        <ele>183.295</ele>
      </trkpt>
      <trkpt lat="36.67329" lon="27.45359">
        <ele>183.391</ele>
      </trkpt>
      <trkpt lat="36.67317" lon="27.45348">
        <ele>184.103</ele>
      </trkpt>
      <trkpt lat="36.67316" lon="27.45348">
        <ele>184.113</ele>
      </trkpt>
      <trkpt lat="36.67316" lon="27.45347">
        <ele>184.12</ele>
      </trkpt>
      <trkpt lat="36.67315" lon="27.45346">
        <ele>184.135</ele>
      </trkpt>
      <trkpt lat="36.67312" lon="27.45326">
        <ele>184.268</ele>
      </trkpt>
      <trkpt lat="36.67311" lon="27.45303">
        <ele>185.273</ele>
      </trkpt>
      <trkpt lat="36.67307" lon="27.45286">
        <ele>187.109</ele>
      </trkpt>
      <trkpt lat="36.67293" lon="27.45281">
        <ele>188.661</ele>
      </trkpt>
      <trkpt lat="36.67289" lon="27.45279">
        <ele>189.145</ele>
      </trkpt>
      <trkpt lat="36.67275" lon="27.45276">
        <ele>190.688</ele>
      </trkpt>
      <trkpt lat="36.67267" lon="27.45272">
        <ele>192.25</ele>
      </trkpt>
      <trkpt lat="36.67262" lon="27.45271">
        <ele>192.919</ele>
      </trkpt>
      <trkpt lat="36.67258" lon="27.4527">
        <ele>193.594</ele>
      </trkpt>
      <trkpt lat="36.67253" lon="27.45268">
        <ele>194.385</ele>
      </trkpt>
      <trkpt lat="36.67244" lon="27.45263">
        <ele>195.502</ele>
      </trkpt>
      <trkpt lat="36.67223" lon="27.4525">
        <ele>196.983</ele>
      </trkpt>
      <trkpt lat="36.67205" lon="27.45238">
        <ele>200.344</ele>
      </trkpt>
      <trkpt lat="36.67191" lon="27.45232">
        <ele>201.943</ele>
      </trkpt>
      <trkpt lat="36.6718" lon="27.45227">
        <ele>204.034</ele>
      </trkpt>
      <trkpt lat="36.67167" lon="27.45222">
        <ele>206.212</ele>
      </trkpt>
      <trkpt lat="36.67155" lon="27.45213">
        <ele>210.031</ele>
      </trkpt>
      <trkpt lat="36.67143" lon="27.45203">
        <ele>212.753</ele>
      </trkpt>
      <trkpt lat="36.67132" lon="27.45191">
        <ele>213.96</ele>
      </trkpt>
      <trkpt lat="36.67119" lon="27.4518">
        <ele>213.472</ele>
      </trkpt>
      <trkpt lat="36.67108" lon="27.4517">
        <ele>211.945</ele>
      </trkpt>
      <trkpt lat="36.67103" lon="27.45156">
        <ele>211.823</ele>
      </trkpt>
      <trkpt lat="36.67093" lon="27.45137">
        <ele>210.59</ele>
      </trkpt>
      <trkpt lat="36.67082" lon="27.45122">
        <ele>207.622</ele>
      </trkpt>
      <trkpt lat="36.67074" lon="27.45104">
        <ele>206.822</ele>
      </trkpt>
      <trkpt lat="36.67066" lon="27.45092">
        <ele>206.213</ele>
      </trkpt>
      <trkpt lat="36.67057" lon="27.45077">
        <ele>205.227</ele>
      </trkpt>
      <trkpt lat="36.6705" lon="27.45067">
        <ele>204.215</ele>
      </trkpt>
      <trkpt lat="36.6704" lon="27.45056">
        <ele>202.299</ele>
      </trkpt>
      <trkpt lat="36.6703" lon="27.45038">
        <ele>200.052</ele>
      </trkpt>
      <trkpt lat="36.67024" lon="27.45019">
        <ele>199.978</ele>
      </trkpt>
      <trkpt lat="36.67016" lon="27.45006">
        <ele>199.966</ele>
      </trkpt>
      <trkpt lat="36.67011" lon="27.44991">
        <ele>201.613</ele>
      </trkpt>
      <trkpt lat="36.67006" lon="27.44976">
        <ele>203.863</ele>
      </trkpt>
      <trkpt lat="36.66993" lon="27.4496">
        <ele>203.154</ele>
      </trkpt>
      <trkpt lat="36.66986" lon="27.44947">
        <ele>203.075</ele>
      </trkpt>
      <trkpt lat="36.66978" lon="27.44934">
        <ele>202.464</ele>
      </trkpt>
      <trkpt lat="36.66965" lon="27.44922">
        <ele>199.173</ele>
      </trkpt>
      <trkpt lat="36.66954" lon="27.44913">
        <ele>196.327</ele>
      </trkpt>
      <trkpt lat="36.66944" lon="27.44899">
        <ele>194.848</ele>
      </trkpt>
      <trkpt lat="36.66935" lon="27.44879">
        <ele>195.05</ele>
      </trkpt>
      <trkpt lat="36.66929" lon="27.4486">
        <ele>197.43</ele>
      </trkpt>
      <trkpt lat="36.66921" lon="27.44851">
        <ele>197.661</ele>
      </trkpt>
      <trkpt lat="36.66904" lon="27.44844">
        <ele>195.224</ele>
      </trkpt>
      <trkpt lat="36.66889" lon="27.44836">
        <ele>193.195</ele>
      </trkpt>
      <trkpt lat="36.66872" lon="27.44827">
        <ele>191.496</ele>
      </trkpt>
      <trkpt lat="36.66872" lon="27.44828">
        <ele>191.427</ele>
      </trkpt>
      <trkpt lat="36.66868" lon="27.44823">
        <ele>191.362</ele>
      </trkpt>
      <trkpt lat="36.66866" lon="27.44821">
        <ele>191.373</ele>
      </trkpt>
      <trkpt lat="36.66865" lon="27.44822">
        <ele>190.931</ele>
      </trkpt>
      <trkpt lat="36.66857" lon="27.44805">
        <ele>191.839</ele>
      </trkpt>
      <trkpt lat="36.66846" lon="27.44792">
        <ele>190.319</ele>
      </trkpt>
      <trkpt lat="36.66841" lon="27.44775">
        <ele>190.833</ele>
      </trkpt>
      <trkpt lat="36.66833" lon="27.44757">
        <ele>190.186</ele>
      </trkpt>
      <trkpt lat="36.66823" lon="27.44742">
        <ele>188.755</ele>
      </trkpt>
      <trkpt lat="36.66818" lon="27.44728">
        <ele>189.479</ele>
      </trkpt>
      <trkpt lat="36.66808" lon="27.44718">
        <ele>188.249</ele>
      </trkpt>
      <trkpt lat="36.66797" lon="27.44705">
        <ele>190.14</ele>
      </trkpt>
      <trkpt lat="36.66783" lon="27.44692">
        <ele>191.174</ele>
      </trkpt>
      <trkpt lat="36.6677" lon="27.44686">
        <ele>192.854</ele>
      </trkpt>
      <trkpt lat="36.66756" lon="27.44679">
        <ele>194.859</ele>
      </trkpt>
      <trkpt lat="36.66753" lon="27.44678">
        <ele>194.847</ele>
      </trkpt>
      <trkpt lat="36.66743" lon="27.44672">
        <ele>195.204</ele>
      </trkpt>
      <trkpt lat="36.66734" lon="27.44666">
        <ele>195.048</ele>
      </trkpt>
      <trkpt lat="36.66723" lon="27.4466">
        <ele>194.58</ele>
      </trkpt>
      <trkpt lat="36.66707" lon="27.4465">
        <ele>193.796</ele>
      </trkpt>
      <trkpt lat="36.66706" lon="27.44649">
        <ele>193.844</ele>
      </trkpt>
      <trkpt lat="36.66695" lon="27.44642">
        <ele>192.36</ele>
      </trkpt>
      <trkpt lat="36.66691" lon="27.44638">
        <ele>192.473</ele>
      </trkpt>
      <trkpt lat="36.66687" lon="27.44635">
        <ele>192.125</ele>
      </trkpt>
      <trkpt lat="36.66681" lon="27.44631">
        <ele>191.42</ele>
      </trkpt>
      <trkpt lat="36.66672" lon="27.44625">
        <ele>189.927</ele>
      </trkpt>
      <trkpt lat="36.66663" lon="27.44621">
        <ele>188.471</ele>
      </trkpt>
      <trkpt lat="36.66653" lon="27.44616">
        <ele>186.88</ele>
      </trkpt>
      <trkpt lat="36.66645" lon="27.44612">
        <ele>185.442</ele>
      </trkpt>
      <trkpt lat="36.66636" lon="27.44609">
        <ele>183.2</ele>
      </trkpt>
      <trkpt lat="36.66626" lon="27.44605">
        <ele>180.969</ele>
      </trkpt>
      <trkpt lat="36.66616" lon="27.44591">
        <ele>179.442</ele>
      </trkpt>
      <trkpt lat="36.66615" lon="27.44589">
        <ele>179.328</ele>
      </trkpt>
      <trkpt lat="36.66605" lon="27.4458">
        <ele>177.654</ele>
      </trkpt>
      <trkpt lat="36.666" lon="27.44573">
        <ele>176.231</ele>
      </trkpt>
      <trkpt lat="36.66595" lon="27.44561">
        <ele>174.796</ele>
      </trkpt>
      <trkpt lat="36.66593" lon="27.44549">
        <ele>173.608</ele>
      </trkpt>
      <trkpt lat="36.66593" lon="27.44539">
        <ele>172.701</ele>
      </trkpt>
      <trkpt lat="36.66592" lon="27.44526">
        <ele>170.969</ele>
      </trkpt>
      <trkpt lat="36.66591" lon="27.4452">
        <ele>169.828</ele>
      </trkpt>
      <trkpt lat="36.66591" lon="27.44515">
        <ele>169.016</ele>
      </trkpt>
      <trkpt lat="36.66591" lon="27.44507">
        <ele>167.427</ele>
      </trkpt>
      <trkpt lat="36.66593" lon="27.44499">
        <ele>166.526</ele>
      </trkpt>
      <trkpt lat="36.6659" lon="27.44498">
        <ele>165.544</ele>
      </trkpt>
      <trkpt lat="36.66592" lon="27.44488">
        <ele>163.895</ele>
      </trkpt>
      <trkpt lat="36.66592" lon="27.44472">
        <ele>160.781</ele>
      </trkpt>
      <trkpt lat="36.66591" lon="27.44467">
        <ele>160.058</ele>
      </trkpt>
      <trkpt lat="36.66593" lon="27.44455">
        <ele>159.139</ele>
      </trkpt>
      <trkpt lat="36.66597" lon="27.44441">
        <ele>158.586</ele>
      </trkpt>
      <trkpt lat="36.66599" lon="27.44436">
        <ele>158.239</ele>
      </trkpt>
      <trkpt lat="36.66599" lon="27.44429">
        <ele>157.283</ele>
      </trkpt>
      <trkpt lat="36.66603" lon="27.44416">
        <ele>156.355</ele>
      </trkpt>
      <trkpt lat="36.66605" lon="27.44404">
        <ele>155.251</ele>
      </trkpt>
      <trkpt lat="36.66607" lon="27.44397">
        <ele>154.626</ele>
      </trkpt>
      <trkpt lat="36.66605" lon="27.44389">
        <ele>152.996</ele>
      </trkpt>
      <trkpt lat="36.66611" lon="27.44375">
        <ele>153.996</ele>
      </trkpt>
      <trkpt lat="36.66614" lon="27.44362">
        <ele>154.451</ele>
      </trkpt>
      <trkpt lat="36.66621" lon="27.44354">
        <ele>156.092</ele>
      </trkpt>
      <trkpt lat="36.6662" lon="27.44348">
        <ele>156.527</ele>
      </trkpt>
      <trkpt lat="36.66614" lon="27.44345">
        <ele>156.432</ele>
      </trkpt>
      <trkpt lat="36.66612" lon="27.44346">
        <ele>156.286</ele>
      </trkpt>
      <trkpt lat="36.66609" lon="27.44345">
        <ele>156.157</ele>
      </trkpt>
      <trkpt lat="36.66608" lon="27.44345">
        <ele>156.206</ele>
      </trkpt>
      <trkpt lat="36.666" lon="27.44343">
        <ele>156.191</ele>
      </trkpt>
      <trkpt lat="36.6659" lon="27.44341">
        <ele>156.275</ele>
      </trkpt>
      <trkpt lat="36.66579" lon="27.44338">
        <ele>156.323</ele>
      </trkpt>
      <trkpt lat="36.66571" lon="27.44336">
        <ele>155.72</ele>
      </trkpt>
      <trkpt lat="36.66569" lon="27.44332">
        <ele>156.168</ele>
      </trkpt>
      <trkpt lat="36.66568" lon="27.4433">
        <ele>156.251</ele>
      </trkpt>
      <trkpt lat="36.66555" lon="27.44327">
        <ele>154.804</ele>
      </trkpt>
      <trkpt lat="36.66546" lon="27.44324">
        <ele>153.757</ele>
      </trkpt>
      <trkpt lat="36.6654" lon="27.4432">
        <ele>153.437</ele>
      </trkpt>
      <trkpt lat="36.66526" lon="27.4431">
        <ele>152.956</ele>
      </trkpt>
      <trkpt lat="36.66518" lon="27.44305">
        <ele>152.702</ele>
      </trkpt>
      <trkpt lat="36.66516" lon="27.44304">
        <ele>152.629</ele>
      </trkpt>
      <trkpt lat="36.66506" lon="27.44299">
        <ele>152.398</ele>
      </trkpt>
      <trkpt lat="36.66498" lon="27.44296">
        <ele>152.343</ele>
      </trkpt>
      <trkpt lat="36.66491" lon="27.44293">
        <ele>152.515</ele>
      </trkpt>
      <trkpt lat="36.66483" lon="27.44292">
        <ele>152.225</ele>
      </trkpt>
      <trkpt lat="36.66474" lon="27.4429">
        <ele>151.973</ele>
      </trkpt>
      <trkpt lat="36.66461" lon="27.44286">
        <ele>150.47</ele>
      </trkpt>
      <trkpt lat="36.66456" lon="27.44287">
        <ele>149.606</ele>
      </trkpt>
      <trkpt lat="36.66454" lon="27.44288">
        <ele>149.321</ele>
      </trkpt>
      <trkpt lat="36.66448" lon="27.44291">
        <ele>148.409</ele>
      </trkpt>
      <trkpt lat="36.66445" lon="27.44284">
        <ele>147.486</ele>
      </trkpt>
      <trkpt lat="36.66446" lon="27.44275">
        <ele>147.263</ele>
      </trkpt>
      <trkpt lat="36.66445" lon="27.44272">
        <ele>146.692</ele>
      </trkpt>
      <trkpt lat="36.66444" lon="27.44271">
        <ele>146.463</ele>
      </trkpt>
      <trkpt lat="36.66444" lon="27.44268">
        <ele>146.126</ele>
      </trkpt>
      <trkpt lat="36.66438" lon="27.44268">
        <ele>145.283</ele>
      </trkpt>
      <trkpt lat="36.66436" lon="27.44272">
        <ele>145.537</ele>
      </trkpt>
      <trkpt lat="36.66431" lon="27.44275">
        <ele>145.49</ele>
      </trkpt>
      <trkpt lat="36.66422" lon="27.44277">
        <ele>145.189</ele>
      </trkpt>
      <trkpt lat="36.66411" lon="27.44275">
        <ele>141.759</ele>
      </trkpt>
      <trkpt lat="36.66401" lon="27.44273">
        <ele>137.482</ele>
      </trkpt>
      <trkpt lat="36.66403" lon="27.4427">
        <ele>137.213</ele>
      </trkpt>
      <trkpt lat="36.66406" lon="27.44269">
        <ele>138.051</ele>
      </trkpt>
      <trkpt lat="36.66411" lon="27.44266">
        <ele>138.858</ele>
      </trkpt>
      <trkpt lat="36.66416" lon="27.44259">
        <ele>139.045</ele>
      </trkpt>
      <trkpt lat="36.6642" lon="27.44248">
        <ele>137.747</ele>
      </trkpt>
      <trkpt lat="36.66423" lon="27.44235">
        <ele>137.187</ele>
      </trkpt>
      <trkpt lat="36.66417" lon="27.44236">
        <ele>135.139</ele>
      </trkpt>
      <trkpt lat="36.66409" lon="27.44242">
        <ele>131.465</ele>
      </trkpt>
      <trkpt lat="36.664" lon="27.44241">
        <ele>126.599</ele>
      </trkpt>
      <trkpt lat="36.66395" lon="27.44239">
        <ele>123.251</ele>
      </trkpt>
      <trkpt lat="36.66397" lon="27.44239">
        <ele>124.194</ele>
      </trkpt>
      <trkpt lat="36.66399" lon="27.44228">
        <ele>122.786</ele>
      </trkpt>
      <trkpt lat="36.66399" lon="27.44221">
        <ele>121.482</ele>
      </trkpt>
      <trkpt lat="36.66394" lon="27.44206">
        <ele>116.924</ele>
      </trkpt>
      <trkpt lat="36.66393" lon="27.44194">
        <ele>115.167</ele>
      </trkpt>
      <trkpt lat="36.66389" lon="27.44183">
        <ele>111.586</ele>
      </trkpt>
      <trkpt lat="36.66388" lon="27.44165">
        <ele>110.449</ele>
      </trkpt>
      <trkpt lat="36.6639" lon="27.44154">
        <ele>110.92</ele>
      </trkpt>
      <trkpt lat="36.66383" lon="27.44151">
        <ele>104.904</ele>
      </trkpt>
      <trkpt lat="36.6638" lon="27.44144">
        <ele>102.911</ele>
      </trkpt>
      <trkpt lat="36.66377" lon="27.44138">
        <ele>100.54</ele>
      </trkpt>
      <trkpt lat="36.66377" lon="27.4413">
        <ele>99.729</ele>
      </trkpt>
      <trkpt lat="36.66378" lon="27.44116">
        <ele>100.153</ele>
      </trkpt>
      <trkpt lat="36.66378" lon="27.44117">
        <ele>100.098</ele>
      </trkpt>
      <trkpt lat="36.66375" lon="27.44107">
        <ele>97.507</ele>
      </trkpt>
      <trkpt lat="36.66366" lon="27.44093">
        <ele>90.301</ele>
      </trkpt>
      <trkpt lat="36.66358" lon="27.44085">
        <ele>86.069</ele>
      </trkpt>
      <trkpt lat="36.66354" lon="27.44082">
        <ele>84.833</ele>
      </trkpt>
      <trkpt lat="36.66354" lon="27.44081">
        <ele>84.873</ele>
      </trkpt>
      <trkpt lat="36.66341" lon="27.4407">
        <ele>81.59</ele>
      </trkpt>
      <trkpt lat="36.66336" lon="27.44053">
        <ele>80.685</ele>
      </trkpt>
      <trkpt lat="36.66336" lon="27.44053">
        <ele>80.685</ele>
      </trkpt>
      <trkpt lat="36.6634" lon="27.44038">
        <ele>81.564</ele>
      </trkpt>
      <trkpt lat="36.66344" lon="27.44034">
        <ele>82.627</ele>
      </trkpt>
      <trkpt lat="36.66346" lon="27.44032">
        <ele>83.06</ele>
      </trkpt>
      <trkpt lat="36.66356" lon="27.44026">
        <ele>85.57</ele>
      </trkpt>
      <trkpt lat="36.66365" lon="27.44015">
        <ele>85.999</ele>
      </trkpt>
      <trkpt lat="36.66373" lon="27.44003">
        <ele>85.726</ele>
      </trkpt>
      <trkpt lat="36.66379" lon="27.43992">
        <ele>84.005</ele>
      </trkpt>
      <trkpt lat="36.6639" lon="27.43977">
        <ele>81.557</ele>
      </trkpt>
      <trkpt lat="36.66395" lon="27.43969">
        <ele>81.487</ele>
      </trkpt>
      <trkpt lat="36.66406" lon="27.43949">
        <ele>80.962</ele>
      </trkpt>
      <trkpt lat="36.66408" lon="27.43936">
        <ele>78.793</ele>
      </trkpt>
      <trkpt lat="36.66411" lon="27.43922">
        <ele>76.171</ele>
      </trkpt>
      <trkpt lat="36.66414" lon="27.43913">
        <ele>74.635</ele>
      </trkpt>
      <trkpt lat="36.66417" lon="27.43902">
        <ele>73.03</ele>
      </trkpt>
      <trkpt lat="36.66423" lon="27.43887">
        <ele>69.967</ele>
      </trkpt>
      <trkpt lat="36.66428" lon="27.4387">
        <ele>66.461</ele>
      </trkpt>
      <trkpt lat="36.66426" lon="27.43866">
        <ele>65.057</ele>
      </trkpt>
      <trkpt lat="36.66427" lon="27.43857">
        <ele>62.491</ele>
      </trkpt>
      <trkpt lat="36.66423" lon="27.43842">
        <ele>58.08</ele>
      </trkpt>
      <trkpt lat="36.66421" lon="27.43838">
        <ele>56.988</ele>
      </trkpt>
      <trkpt lat="36.66427" lon="27.43833">
        <ele>55.497</ele>
      </trkpt>
      <trkpt lat="36.6643" lon="27.43834">
        <ele>55.834</ele>
      </trkpt>
      <trkpt lat="36.66437" lon="27.43834">
        <ele>55.508</ele>
      </trkpt>
      <trkpt lat="36.66443" lon="27.43829">
        <ele>53.437</ele>
      </trkpt>
      <trkpt lat="36.66446" lon="27.43824">
        <ele>51.702</ele>
      </trkpt>
      <trkpt lat="36.66449" lon="27.43824">
        <ele>51.555</ele>
      </trkpt>
      <trkpt lat="36.66455" lon="27.43814">
        <ele>48.096</ele>
      </trkpt>
      <trkpt lat="36.66457" lon="27.43809">
        <ele>46.432</ele>
      </trkpt>
      <trkpt lat="36.6646" lon="27.43802">
        <ele>43.711</ele>
      </trkpt>
      <trkpt lat="36.66462" lon="27.43797">
        <ele>41.889</ele>
      </trkpt>
      <trkpt lat="36.66465" lon="27.4379">
        <ele>39.36</ele>
      </trkpt>
      <trkpt lat="36.66468" lon="27.43781">
        <ele>36.332</ele>
      </trkpt>
      <trkpt lat="36.6647" lon="27.43775">
        <ele>33.904</ele>
      </trkpt>
      <trkpt lat="36.66472" lon="27.43769">
        <ele>31.869</ele>
      </trkpt>
      <trkpt lat="36.66475" lon="27.43764">
        <ele>29.895</ele>
      </trkpt>
      <trkpt lat="36.66475" lon="27.43761">
        <ele>28.604</ele>
      </trkpt>
      <trkpt lat="36.66472" lon="27.43757">
        <ele>27.608</ele>
      </trkpt>
      <trkpt lat="36.66469" lon="27.43756">
        <ele>27.079</ele>
      </trkpt>
      <trkpt lat="36.66468" lon="27.43753">
        <ele>25.912</ele>
      </trkpt>
      <trkpt lat="36.6647" lon="27.43744">
        <ele>22.472</ele>
      </trkpt>
      <trkpt lat="36.66475" lon="27.43735">
        <ele>18.995</ele>
      </trkpt>
      <trkpt lat="36.66481" lon="27.43726">
        <ele>15.52</ele>
      </trkpt>
      <trkpt lat="36.66474" lon="27.4372">
        <ele>13.475</ele>
      </trkpt>
      <trkpt lat="36.66469" lon="27.43719">
        <ele>13.418</ele>
      </trkpt>
      <trkpt lat="36.66464" lon="27.43723">
        <ele>14.422</ele>
      </trkpt>
      <trkpt lat="36.66467" lon="27.43717">
        <ele>12.964</ele>
      </trkpt>
      <trkpt lat="36.66468" lon="27.43716">
        <ele>12.782</ele>
      </trkpt>
      <trkpt lat="36.66472" lon="27.43706">
        <ele>10.472</ele>
      </trkpt>
      <trkpt lat="36.66476" lon="27.43697">
        <ele>8.65</ele>
      </trkpt>
      <trkpt lat="36.6647" lon="27.43697">
        <ele>8.548</ele>
      </trkpt>
      <trkpt lat="36.66469" lon="27.43696">
        <ele>8.279</ele>
      </trkpt>
      <trkpt lat="36.66473" lon="27.43693">
        <ele>7.842</ele>
      </trkpt>
      <trkpt lat="36.66481" lon="27.43688">
        <ele>7.775</ele>
      </trkpt>
      <trkpt lat="36.66488" lon="27.43689">
        <ele>8.355</ele>
      </trkpt>
      <trkpt lat="36.66497" lon="27.43687">
        <ele>9.041</ele>
      </trkpt>
      <trkpt lat="36.66497" lon="27.4368">
        <ele>9.115</ele>
      </trkpt>
      <trkpt lat="36.66495" lon="27.43671">
        <ele>8.878</ele>
      </trkpt>
      <trkpt lat="36.66494" lon="27.43655">
        <ele>9.68</ele>
      </trkpt>
      <trkpt lat="36.66494" lon="27.43653">
        <ele>9.879</ele>
      </trkpt>
      <trkpt lat="36.66492" lon="27.43632">
        <ele>11.404</ele>
      </trkpt>
      <trkpt lat="36.66492" lon="27.43628">
        <ele>11.649</ele>
      </trkpt>
      <trkpt lat="36.66491" lon="27.43621">
        <ele>12.012</ele>
      </trkpt>
      <trkpt lat="36.6649" lon="27.4361">
        <ele>12.545</ele>
      </trkpt>
      <trkpt lat="36.6649" lon="27.43607">
        <ele>12.625</ele>
      </trkpt>
      <trkpt lat="36.66494" lon="27.43604">
        <ele>14.213</ele>
      </trkpt>
      <trkpt lat="36.66497" lon="27.43601">
        <ele>15.727</ele>
      </trkpt>
      <trkpt lat="36.66504" lon="27.43598">
        <ele>18.312</ele>
      </trkpt>
      <trkpt lat="36.66489" lon="27.43572">
        <ele>13.515</ele>
      </trkpt>
      <trkpt lat="36.66494" lon="27.43565">
        <ele>15.177</ele>
      </trkpt>
      <trkpt lat="36.66494" lon="27.43567">
        <ele>15.274</ele>
      </trkpt>
      <trkpt lat="36.66501" lon="27.43553">
        <ele>17.34</ele>
      </trkpt>
      <trkpt lat="36.66502" lon="27.43554">
        <ele>17.84</ele>
      </trkpt>
      <trkpt lat="36.66504" lon="27.43554">
        <ele>18.655</ele>
      </trkpt>
      <trkpt lat="36.66505" lon="27.43546">
        <ele>18.47</ele>
      </trkpt>
      <trkpt lat="36.66505" lon="27.4353">
        <ele>18.126</ele>
      </trkpt>
      <trkpt lat="36.66496" lon="27.43509">
        <ele>16.882</ele>
      </trkpt>
      <trkpt lat="36.66484" lon="27.43491">
        <ele>14.344</ele>
      </trkpt>
      <trkpt lat="36.66491" lon="27.4347">
        <ele>19.04</ele>
      </trkpt>
      <trkpt lat="36.66485" lon="27.43448">
        <ele>17.55</ele>
      </trkpt>
      <trkpt lat="36.66479" lon="27.43426">
        <ele>16.752</ele>
      </trkpt>
      <trkpt lat="36.66484" lon="27.43402">
        <ele>19.31</ele>
      </trkpt>
      <trkpt lat="36.66482" lon="27.43378">
        <ele>18.163</ele>
      </trkpt>
      <trkpt lat="36.66484" lon="27.43355">
        <ele>17.945</ele>
      </trkpt>
      <trkpt lat="36.66475" lon="27.43334">
        <ele>13.909</ele>
      </trkpt>
      <trkpt lat="36.66472" lon="27.43311">
        <ele>8.884</ele>
      </trkpt>
      <trkpt lat="36.66468" lon="27.43289">
        <ele>6.528</ele>
      </trkpt>
      <trkpt lat="36.66454" lon="27.43269">
        <ele>4.904</ele>
      </trkpt>
      <trkpt lat="36.66457" lon="27.43245">
        <ele>3.492</ele>
      </trkpt>
      <trkpt lat="36.66475" lon="27.43239">
        <ele>2.752</ele>
      </trkpt>
      <trkpt lat="36.66493" lon="27.43239">
        <ele>2.072</ele>
      </trkpt>
      <trkpt lat="36.66512" lon="27.43238">
        <ele>1.473</ele>
      </trkpt>
      <trkpt lat="36.66529" lon="27.43249">
        <ele>1.889</ele>
      </trkpt>
      <trkpt lat="36.66544" lon="27.43263">
        <ele>4.659</ele>
      </trkpt>
      <trkpt lat="36.66559" lon="27.43277">
        <ele>7.397</ele>
      </trkpt>
      <trkpt lat="36.66579" lon="27.43278">
        <ele>5.743</ele>
      </trkpt>
      <trkpt lat="36.66599" lon="27.43268">
        <ele>6.867</ele>
      </trkpt>
      <trkpt lat="36.66614" lon="27.43251">
        <ele>2.445</ele>
      </trkpt>
      <trkpt lat="36.66627" lon="27.43235">
        <ele>3.624</ele>
      </trkpt>
      <trkpt lat="36.66642" lon="27.43219">
        <ele>3.519</ele>
      </trkpt>
      <trkpt lat="36.66649" lon="27.43198">
        <ele>3.078</ele>
      </trkpt>
      <trkpt lat="36.66663" lon="27.43182">
        <ele>5.828</ele>
      </trkpt>
      <trkpt lat="36.66673" lon="27.43163">
        <ele>7.68</ele>
      </trkpt>
      <trkpt lat="36.66684" lon="27.43144">
        <ele>9.418</ele>
      </trkpt>
      <trkpt lat="36.66695" lon="27.43124">
        <ele>10.113</ele>
      </trkpt>
      <trkpt lat="36.66699" lon="27.43102">
        <ele>7.849</ele>
      </trkpt>
      <trkpt lat="36.66707" lon="27.43081">
        <ele>6.448</ele>
      </trkpt>
      <trkpt lat="36.66721" lon="27.43065">
        <ele>6.244</ele>
      </trkpt>
      <trkpt lat="36.66737" lon="27.43052">
        <ele>6.142</ele>
      </trkpt>
      <trkpt lat="36.66745" lon="27.43031">
        <ele>4.281</ele>
      </trkpt>
      <trkpt lat="36.66755" lon="27.43009">
        <ele>3.802</ele>
      </trkpt>
      <trkpt lat="36.6677" lon="27.42996">
        <ele>5.774</ele>
      </trkpt>
      <trkpt lat="36.66789" lon="27.42985">
        <ele>8.693</ele>
      </trkpt>
      <trkpt lat="36.66799" lon="27.42965">
        <ele>8.013</ele>
      </trkpt>
      <trkpt lat="36.66816" lon="27.42955">
        <ele>10.314</ele>
      </trkpt>
      <trkpt lat="36.66833" lon="27.42945">
        <ele>12.211</ele>
      </trkpt>
      <trkpt lat="36.6685" lon="27.42929">
        <ele>14.003</ele>
      </trkpt>
      <trkpt lat="36.66857" lon="27.42907">
        <ele>10.747</ele>
      </trkpt>
      <trkpt lat="36.66865" lon="27.42887">
        <ele>8.689</ele>
      </trkpt>
      <trkpt lat="36.66873" lon="27.42865">
        <ele>8.368</ele>
      </trkpt>
      <trkpt lat="36.66885" lon="27.42846">
        <ele>10.746</ele>
      </trkpt>
      <trkpt lat="36.66893" lon="27.42827">
        <ele>11.104</ele>
      </trkpt>
      <trkpt lat="36.66906" lon="27.42808">
        <ele>12.357</ele>
      </trkpt>
      <trkpt lat="36.66915" lon="27.42785">
        <ele>11.081</ele>
      </trkpt>
      <trkpt lat="36.66919" lon="27.42762">
        <ele>9.757</ele>
      </trkpt>
      <trkpt lat="36.66926" lon="27.4274">
        <ele>11.667</ele>
      </trkpt>
      <trkpt lat="36.66931" lon="27.42718">
        <ele>13.577</ele>
      </trkpt>
      <trkpt lat="36.66928" lon="27.42696">
        <ele>12.844</ele>
      </trkpt>
      <trkpt lat="36.66925" lon="27.42674">
        <ele>11.789</ele>
      </trkpt>
      <trkpt lat="36.66918" lon="27.42652">
        <ele>9.75</ele>
      </trkpt>
      <trkpt lat="36.66898" lon="27.4266">
        <ele>5.685</ele>
      </trkpt>
      <trkpt lat="36.66905" lon="27.42639">
        <ele>6.355</ele>
      </trkpt>
      <trkpt lat="36.66918" lon="27.42623">
        <ele>8.096</ele>
      </trkpt>
      <trkpt lat="36.66926" lon="27.426">
        <ele>8.47</ele>
      </trkpt>
      <trkpt lat="36.66928" lon="27.42569">
        <ele>7.033</ele>
      </trkpt>
      <trkpt lat="36.66936" lon="27.42548">
        <ele>6.012</ele>
      </trkpt>
      <trkpt lat="36.66948" lon="27.42525">
        <ele>3.242</ele>
      </trkpt>
      <trkpt lat="36.66968" lon="27.42528">
        <ele>7.221</ele>
      </trkpt>
      <trkpt lat="36.66981" lon="27.42512">
        <ele>5.349</ele>
      </trkpt>
      <trkpt lat="36.66997" lon="27.42503">
        <ele>4.665</ele>
      </trkpt>
      <trkpt lat="36.67016" lon="27.425">
        <ele>4.523</ele>
      </trkpt>
      <trkpt lat="36.67027" lon="27.42482">
        <ele>2.429</ele>
      </trkpt>
      <trkpt lat="36.67022" lon="27.4246">
        <ele>0.915</ele>
      </trkpt>
      <trkpt lat="36.67032" lon="27.4244">
        <ele>0.988</ele>
      </trkpt>
      <trkpt lat="36.67046" lon="27.42422">
        <ele>0.87</ele>
      </trkpt>
      <trkpt lat="36.67057" lon="27.42399">
        <ele>1</ele>
      </trkpt>
      <trkpt lat="36.67065" lon="27.42377">
        <ele>1</ele>
      </trkpt>
      <trkpt lat="36.67068" lon="27.42352">
        <ele>1</ele>
      </trkpt>
      <trkpt lat="36.6707" lon="27.42326">
        <ele>1</ele>
      </trkpt>
      <trkpt lat="36.67069" lon="27.42303">
        <ele>1.097</ele>
      </trkpt>
      <trkpt lat="36.67064" lon="27.4228">
        <ele>2.314</ele>
      </trkpt>
      <trkpt lat="36.67061" lon="27.42257">
        <ele>1.413</ele>
      </trkpt>
      <trkpt lat="36.67065" lon="27.42231">
        <ele>0.775</ele>
      </trkpt>
      <trkpt lat="36.67067" lon="27.42209">
        <ele>0.599</ele>
      </trkpt>
      <trkpt lat="36.67066" lon="27.42186">
        <ele>0.409</ele>
      </trkpt>
      <trkpt lat="36.67081" lon="27.42168">
        <ele>-1.674</ele>
      </trkpt>
      <trkpt lat="36.67106" lon="27.42166">
        <ele>-1.167</ele>
      </trkpt>
      <trkpt lat="36.67117" lon="27.4214">
        <ele>0.208</ele>
      </trkpt>
      <trkpt lat="36.67098" lon="27.42138">
        <ele>-0.766</ele>
      </trkpt>
      <trkpt lat="36.67106" lon="27.42117">
        <ele>2.541</ele>
      </trkpt>
      <trkpt lat="36.67126" lon="27.42104">
        <ele>4.634</ele>
      </trkpt>
      <trkpt lat="36.6714" lon="27.4209">
        <ele>7.414</ele>
      </trkpt>
      <trkpt lat="36.67154" lon="27.42075">
        <ele>7.218</ele>
      </trkpt>
      <trkpt lat="36.67163" lon="27.42055">
        <ele>8.843</ele>
      </trkpt>
      <trkpt lat="36.67174" lon="27.42032">
        <ele>12.007</ele>
      </trkpt>
      <trkpt lat="36.67153" lon="27.42048">
        <ele>12.455</ele>
      </trkpt>
      <trkpt lat="36.67198" lon="27.42002">
        <ele>13.533</ele>
      </trkpt>
      <trkpt lat="36.67216" lon="27.41985">
        <ele>15.138</ele>
      </trkpt>
      <trkpt lat="36.67222" lon="27.41981">
        <ele>15.45</ele>
      </trkpt>
      <trkpt lat="36.6723" lon="27.41977">
        <ele>16.425</ele>
      </trkpt>
      <trkpt lat="36.67246" lon="27.4198">
        <ele>16.728</ele>
      </trkpt>
      <trkpt lat="36.67245" lon="27.41978">
        <ele>16.927</ele>
      </trkpt>
      <trkpt lat="36.67251" lon="27.41982">
        <ele>16.646</ele>
      </trkpt>
      <trkpt lat="36.67255" lon="27.41983">
        <ele>16.578</ele>
      </trkpt>
      <trkpt lat="36.67279" lon="27.41996">
        <ele>14.993</ele>
      </trkpt>
      <trkpt lat="36.67284" lon="27.41994">
        <ele>16.269</ele>
      </trkpt>
      <trkpt lat="36.67304" lon="27.41982">
        <ele>22.403</ele>
      </trkpt>
      <trkpt lat="36.67328" lon="27.41962">
        <ele>28.111</ele>
      </trkpt>
      <trkpt lat="36.67337" lon="27.41966">
        <ele>28.082</ele>
      </trkpt>
      <trkpt lat="36.67335" lon="27.41963">
        <ele>28.178</ele>
      </trkpt>
      <trkpt lat="36.67336" lon="27.41965">
        <ele>27.858</ele>
      </trkpt>
      <trkpt lat="36.67353" lon="27.41994">
        <ele>26.107</ele>
      </trkpt>
      <trkpt lat="36.6737" lon="27.42011">
        <ele>28.596</ele>
      </trkpt>
      <trkpt lat="36.67373" lon="27.42015">
        <ele>29.107</ele>
      </trkpt>
      <trkpt lat="36.67376" lon="27.42024">
        <ele>29.187</ele>
      </trkpt>
      <trkpt lat="36.67382" lon="27.42054">
        <ele>27.332</ele>
      </trkpt>
      <trkpt lat="36.67397" lon="27.42076">
        <ele>28.733</ele>
      </trkpt>
      <trkpt lat="36.67417" lon="27.42095">
        <ele>30.353</ele>
      </trkpt>
      <trkpt lat="36.67427" lon="27.42102">
        <ele>31.491</ele>
      </trkpt>
      <trkpt lat="36.67442" lon="27.42107">
        <ele>33.486</ele>
      </trkpt>
      <trkpt lat="36.67458" lon="27.42105">
        <ele>34.953</ele>
      </trkpt>
      <trkpt lat="36.67469" lon="27.42101">
        <ele>36.472</ele>
      </trkpt>
      <trkpt lat="36.67464" lon="27.42102">
        <ele>36.028</ele>
      </trkpt>
      <trkpt lat="36.6747" lon="27.42101">
        <ele>36.532</ele>
      </trkpt>
      <trkpt lat="36.67504" lon="27.42102">
        <ele>40.291</ele>
      </trkpt>
      <trkpt lat="36.67526" lon="27.42104">
        <ele>45.272</ele>
      </trkpt>
      <trkpt lat="36.6754" lon="27.42118">
        <ele>45.589</ele>
      </trkpt>
      <trkpt lat="36.67547" lon="27.4213">
        <ele>44.337</ele>
      </trkpt>
      <trkpt lat="36.67577" lon="27.42147">
        <ele>48.214</ele>
      </trkpt>
      <trkpt lat="36.67599" lon="27.4215">
        <ele>52.617</ele>
      </trkpt>
      <trkpt lat="36.67626" lon="27.42167">
        <ele>53.597</ele>
      </trkpt>
      <trkpt lat="36.6763" lon="27.42171">
        <ele>53.642</ele>
      </trkpt>
      <trkpt lat="36.67655" lon="27.42181">
        <ele>55.715</ele>
      </trkpt>
      <trkpt lat="36.67652" lon="27.42177">
        <ele>55.972</ele>
      </trkpt>
      <trkpt lat="36.67658" lon="27.42181">
        <ele>56.154</ele>
      </trkpt>
      <trkpt lat="36.67693" lon="27.42185">
        <ele>61.52</ele>
      </trkpt>
      <trkpt lat="36.67702" lon="27.42185">
        <ele>64.104</ele>
      </trkpt>
      <trkpt lat="36.67721" lon="27.42189">
        <ele>69.459</ele>
      </trkpt>
      <trkpt lat="36.67747" lon="27.42196">
        <ele>73.291</ele>
      </trkpt>
      <trkpt lat="36.67764" lon="27.422">
        <ele>74.144</ele>
      </trkpt>
      <trkpt lat="36.67786" lon="27.42204">
        <ele>74.098</ele>
      </trkpt>
      <trkpt lat="36.67791" lon="27.42206">
        <ele>73.496</ele>
      </trkpt>
      <trkpt lat="36.67795" lon="27.42209">
        <ele>72.613</ele>
      </trkpt>
      <trkpt lat="36.67803" lon="27.42212">
        <ele>71.468</ele>
      </trkpt>
      <trkpt lat="36.67798" lon="27.4221">
        <ele>72.163</ele>
      </trkpt>
      <trkpt lat="36.67795" lon="27.42212">
        <ele>72.195</ele>
      </trkpt>
      <trkpt lat="36.67801" lon="27.4221">
        <ele>72.002</ele>
      </trkpt>
      <trkpt lat="36.67809" lon="27.42204">
        <ele>73.532</ele>
      </trkpt>
      <trkpt lat="36.67824" lon="27.42179">
        <ele>81.775</ele>
      </trkpt>
      <trkpt lat="36.6783" lon="27.42145">
        <ele>85.012</ele>
      </trkpt>
      <trkpt lat="36.67835" lon="27.42139">
        <ele>85.232</ele>
      </trkpt>
      <trkpt lat="36.67834" lon="27.4214">
        <ele>85.111</ele>
      </trkpt>
      <trkpt lat="36.6782" lon="27.42135">
        <ele>84.387</ele>
      </trkpt>
      <trkpt lat="36.67813" lon="27.4214">
        <ele>84.22</ele>
      </trkpt>
      <trkpt lat="36.67815" lon="27.42141">
        <ele>84.245</ele>
      </trkpt>
      <trkpt lat="36.67794" lon="27.42129">
        <ele>83.937</ele>
      </trkpt>
      <trkpt lat="36.6777" lon="27.42118">
        <ele>84.041</ele>
      </trkpt>
      <trkpt lat="36.67741" lon="27.42096">
        <ele>83.596</ele>
      </trkpt>
      <trkpt lat="36.67711" lon="27.42069">
        <ele>87.225</ele>
      </trkpt>
      <trkpt lat="36.67706" lon="27.42061">
        <ele>88.145</ele>
      </trkpt>
      <trkpt lat="36.67708" lon="27.42065">
        <ele>87.647</ele>
      </trkpt>
      <trkpt lat="36.67704" lon="27.42061">
        <ele>88.354</ele>
      </trkpt>
      <trkpt lat="36.6768" lon="27.42026">
        <ele>89.086</ele>
      </trkpt>
      <trkpt lat="36.6766" lon="27.41993">
        <ele>93.32</ele>
      </trkpt>
      <trkpt lat="36.67641" lon="27.41973">
        <ele>94.968</ele>
      </trkpt>
      <trkpt lat="36.67619" lon="27.41948">
        <ele>96.529</ele>
      </trkpt>
      <trkpt lat="36.67595" lon="27.41936">
        <ele>96.606</ele>
      </trkpt>
      <trkpt lat="36.67585" lon="27.41915">
        <ele>96.93</ele>
      </trkpt>
      <trkpt lat="36.67578" lon="27.41902">
        <ele>95.992</ele>
      </trkpt>
      <trkpt lat="36.67579" lon="27.41906">
        <ele>96.185</ele>
      </trkpt>
      <trkpt lat="36.67575" lon="27.41905">
        <ele>95.725</ele>
      </trkpt>
      <trkpt lat="36.67576" lon="27.41906">
        <ele>95.854</ele>
      </trkpt>
      <trkpt lat="36.67567" lon="27.41895">
        <ele>95.245</ele>
      </trkpt>
      <trkpt lat="36.67538" lon="27.41861">
        <ele>92.436</ele>
      </trkpt>
      <trkpt lat="36.67521" lon="27.41834">
        <ele>91.704</ele>
      </trkpt>
      <trkpt lat="36.6752" lon="27.41815">
        <ele>94.365</ele>
      </trkpt>
      <trkpt lat="36.6752" lon="27.41815">
        <ele>94.334</ele>
      </trkpt>
      <trkpt lat="36.67518" lon="27.41829">
        <ele>92.229</ele>
      </trkpt>
      <trkpt lat="36.67519" lon="27.41829">
        <ele>92.276</ele>
      </trkpt>
      <trkpt lat="36.6752" lon="27.41828">
        <ele>92.539</ele>
      </trkpt>
      <trkpt lat="36.67521" lon="27.41821">
        <ele>93.596</ele>
      </trkpt>
      <trkpt lat="36.67517" lon="27.41788">
        <ele>96.619</ele>
      </trkpt>
      <trkpt lat="36.67512" lon="27.41764">
        <ele>97.653</ele>
      </trkpt>
      <trkpt lat="36.67509" lon="27.41739">
        <ele>98.325</ele>
      </trkpt>
      <trkpt lat="36.67504" lon="27.41723">
        <ele>100.442</ele>
      </trkpt>
      <trkpt lat="36.67497" lon="27.41694">
        <ele>104.782</ele>
      </trkpt>
      <trkpt lat="36.67495" lon="27.41665">
        <ele>105.54</ele>
      </trkpt>
      <trkpt lat="36.67495" lon="27.4166">
        <ele>106.123</ele>
      </trkpt>
      <trkpt lat="36.67496" lon="27.41642">
        <ele>107.608</ele>
      </trkpt>
      <trkpt lat="36.67502" lon="27.41616">
        <ele>110.276</ele>
      </trkpt>
      <trkpt lat="36.67502" lon="27.41615">
        <ele>110.701</ele>
      </trkpt>
      <trkpt lat="36.67505" lon="27.41605">
        <ele>110.495</ele>
      </trkpt>
      <trkpt lat="36.67506" lon="27.41603">
        <ele>110.5</ele>
      </trkpt>
      <trkpt lat="36.67508" lon="27.41598">
        <ele>110.39</ele>
      </trkpt>
      <trkpt lat="36.67513" lon="27.41573">
        <ele>111.923</ele>
      </trkpt>
      <trkpt lat="36.67514" lon="27.41569">
        <ele>112.308</ele>
      </trkpt>
      <trkpt lat="36.67515" lon="27.41563">
        <ele>112.992</ele>
      </trkpt>
      <trkpt lat="36.67517" lon="27.41543">
        <ele>114.82</ele>
      </trkpt>
      <trkpt lat="36.67518" lon="27.41524">
        <ele>115.384</ele>
      </trkpt>
      <trkpt lat="36.67506" lon="27.41502">
        <ele>117.329</ele>
      </trkpt>
      <trkpt lat="36.67495" lon="27.41479">
        <ele>117.795</ele>
      </trkpt>
      <trkpt lat="36.67479" lon="27.41448">
        <ele>119.593</ele>
      </trkpt>
      <trkpt lat="36.67472" lon="27.41429">
        <ele>117.084</ele>
      </trkpt>
      <trkpt lat="36.67472" lon="27.41407">
        <ele>111.26</ele>
      </trkpt>
      <trkpt lat="36.67474" lon="27.41381">
        <ele>107.676</ele>
      </trkpt>
      <trkpt lat="36.67468" lon="27.41366">
        <ele>109.678</ele>
      </trkpt>
      <trkpt lat="36.67467" lon="27.41349">
        <ele>110.167</ele>
      </trkpt>
      <trkpt lat="36.67469" lon="27.41325">
        <ele>109.902</ele>
      </trkpt>
      <trkpt lat="36.67471" lon="27.41293">
        <ele>109.123</ele>
      </trkpt>
      <trkpt lat="36.67471" lon="27.41265">
        <ele>108.161</ele>
      </trkpt>
      <trkpt lat="36.67471" lon="27.41242">
        <ele>107.546</ele>
      </trkpt>
      <trkpt lat="36.67476" lon="27.41215">
        <ele>106.435</ele>
      </trkpt>
      <trkpt lat="36.67484" lon="27.41189">
        <ele>107.64</ele>
      </trkpt>
      <trkpt lat="36.67494" lon="27.41171">
        <ele>109.522</ele>
      </trkpt>
      <trkpt lat="36.67513" lon="27.41157">
        <ele>108.957</ele>
      </trkpt>
      <trkpt lat="36.67521" lon="27.41132">
        <ele>111.369</ele>
      </trkpt>
      <trkpt lat="36.67525" lon="27.41106">
        <ele>113.502</ele>
      </trkpt>
      <trkpt lat="36.67531" lon="27.41086">
        <ele>113.852</ele>
      </trkpt>
      <trkpt lat="36.67535" lon="27.41065">
        <ele>113.036</ele>
      </trkpt>
      <trkpt lat="36.67537" lon="27.4104">
        <ele>112.122</ele>
      </trkpt>
      <trkpt lat="36.67537" lon="27.41019">
        <ele>110.254</ele>
      </trkpt>
      <trkpt lat="36.67525" lon="27.41002">
        <ele>110.036</ele>
      </trkpt>
      <trkpt lat="36.67511" lon="27.40987">
        <ele>110.588</ele>
      </trkpt>
      <trkpt lat="36.67495" lon="27.40969">
        <ele>111.615</ele>
      </trkpt>
      <trkpt lat="36.67492" lon="27.40966">
        <ele>111.682</ele>
      </trkpt>
      <trkpt lat="36.67477" lon="27.40951">
        <ele>111.71</ele>
      </trkpt>
      <trkpt lat="36.67455" lon="27.40935">
        <ele>110.299</ele>
      </trkpt>
      <trkpt lat="36.6743" lon="27.40926">
        <ele>109.557</ele>
      </trkpt>
      <trkpt lat="36.6741" lon="27.40916">
        <ele>108.877</ele>
      </trkpt>
      <trkpt lat="36.67385" lon="27.40907">
        <ele>110.573</ele>
      </trkpt>
      <trkpt lat="36.67382" lon="27.40905">
        <ele>110.924</ele>
      </trkpt>
      <trkpt lat="36.67371" lon="27.40898">
        <ele>111.76</ele>
      </trkpt>
      <trkpt lat="36.67354" lon="27.40892">
        <ele>112.98</ele>
      </trkpt>
      <trkpt lat="36.67343" lon="27.40881">
        <ele>111.353</ele>
      </trkpt>
      <trkpt lat="36.67342" lon="27.40881">
        <ele>111.36</ele>
      </trkpt>
      <trkpt lat="36.67345" lon="27.40877">
        <ele>110.418</ele>
      </trkpt>
      <trkpt lat="36.67343" lon="27.40864">
        <ele>108.401</ele>
      </trkpt>
      <trkpt lat="36.67341" lon="27.40857">
        <ele>107.727</ele>
      </trkpt>
      <trkpt lat="36.67342" lon="27.40853">
        <ele>107.019</ele>
      </trkpt>
      <trkpt lat="36.67343" lon="27.40843">
        <ele>105.522</ele>
      </trkpt>
      <trkpt lat="36.67344" lon="27.40831">
        <ele>103.582</ele>
      </trkpt>
      <trkpt lat="36.67342" lon="27.40823">
        <ele>102.555</ele>
      </trkpt>
      <trkpt lat="36.67342" lon="27.40822">
        <ele>102.398</ele>
      </trkpt>
      <trkpt lat="36.67342" lon="27.40811">
        <ele>100.405</ele>
      </trkpt>
      <trkpt lat="36.67341" lon="27.40801">
        <ele>98.926</ele>
      </trkpt>
      <trkpt lat="36.67343" lon="27.40791">
        <ele>96.785</ele>
      </trkpt>
      <trkpt lat="36.67344" lon="27.4078">
        <ele>94.361</ele>
      </trkpt>
      <trkpt lat="36.67346" lon="27.40777">
        <ele>93.654</ele>
      </trkpt>
      <trkpt lat="36.67347" lon="27.40771">
        <ele>92.513</ele>
      </trkpt>
      <trkpt lat="36.6735" lon="27.40765">
        <ele>91.187</ele>
      </trkpt>
      <trkpt lat="36.67353" lon="27.40758">
        <ele>89.665</ele>
      </trkpt>
      <trkpt lat="36.67351" lon="27.40747">
        <ele>88.372</ele>
      </trkpt>
      <trkpt lat="36.67352" lon="27.40742">
        <ele>87.251</ele>
      </trkpt>
      <trkpt lat="36.67352" lon="27.40741">
        <ele>87.147</ele>
      </trkpt>
      <trkpt lat="36.6735" lon="27.4073">
        <ele>85.72</ele>
      </trkpt>
      <trkpt lat="36.67352" lon="27.40724">
        <ele>84.256</ele>
      </trkpt>
      <trkpt lat="36.67347" lon="27.40713">
        <ele>83.307</ele>
      </trkpt>
      <trkpt lat="36.67348" lon="27.40707">
        <ele>82.009</ele>
      </trkpt>
      <trkpt lat="36.67352" lon="27.40699">
        <ele>80.121</ele>
      </trkpt>
      <trkpt lat="36.67354" lon="27.40691">
        <ele>78.223</ele>
      </trkpt>
      <trkpt lat="36.67349" lon="27.40684">
        <ele>76.848</ele>
      </trkpt>
      <trkpt lat="36.67349" lon="27.40682">
        <ele>76.457</ele>
      </trkpt>
      <trkpt lat="36.67353" lon="27.40671">
        <ele>72.913</ele>
      </trkpt>
      <trkpt lat="36.67351" lon="27.40662">
        <ele>70.434</ele>
      </trkpt>
      <trkpt lat="36.67344" lon="27.40655">
        <ele>68.604</ele>
      </trkpt>
      <trkpt lat="36.67336" lon="27.40648">
        <ele>66.358</ele>
      </trkpt>
      <trkpt lat="36.67333" lon="27.40643">
        <ele>64.683</ele>
      </trkpt>
      <trkpt lat="36.6733" lon="27.40642">
        <ele>64.823</ele>
      </trkpt>
      <trkpt lat="36.67326" lon="27.40639">
        <ele>64.705</ele>
      </trkpt>
      <trkpt lat="36.67317" lon="27.40632">
        <ele>65.236</ele>
      </trkpt>
      <trkpt lat="36.67316" lon="27.40631">
        <ele>65.232</ele>
      </trkpt>
      <trkpt lat="36.6731" lon="27.40624">
        <ele>64.895</ele>
      </trkpt>
      <trkpt lat="36.67305" lon="27.40618">
        <ele>64.096</ele>
      </trkpt>
      <trkpt lat="36.67304" lon="27.40616">
        <ele>63.534</ele>
      </trkpt>
      <trkpt lat="36.67304" lon="27.40611">
        <ele>62.143</ele>
      </trkpt>
      <trkpt lat="36.67302" lon="27.40609">
        <ele>61.957</ele>
      </trkpt>
      <trkpt lat="36.67298" lon="27.40607">
        <ele>62.03</ele>
      </trkpt>
      <trkpt lat="36.67298" lon="27.40607">
        <ele>62.094</ele>
      </trkpt>
      <trkpt lat="36.67295" lon="27.40604">
        <ele>61.943</ele>
      </trkpt>
      <trkpt lat="36.67296" lon="27.40603">
        <ele>61.712</ele>
      </trkpt>
      <trkpt lat="36.67297" lon="27.40602">
        <ele>61.421</ele>
      </trkpt>
      <trkpt lat="36.67301" lon="27.40598">
        <ele>60.306</ele>
      </trkpt>
      <trkpt lat="36.67305" lon="27.40599">
        <ele>59.767</ele>
      </trkpt>
      <trkpt lat="36.67312" lon="27.40596">
        <ele>58.174</ele>
      </trkpt>
      <trkpt lat="36.67318" lon="27.40599">
        <ele>57.507</ele>
      </trkpt>
      <trkpt lat="36.67323" lon="27.40602">
        <ele>57.02</ele>
      </trkpt>
      <trkpt lat="36.67332" lon="27.40601">
        <ele>55.222</ele>
      </trkpt>
      <trkpt lat="36.67337" lon="27.40599">
        <ele>54.535</ele>
      </trkpt>
      <trkpt lat="36.67342" lon="27.40602">
        <ele>54.76</ele>
      </trkpt>
      <trkpt lat="36.67344" lon="27.40607">
        <ele>55.196</ele>
      </trkpt>
      <trkpt lat="36.67351" lon="27.40609">
        <ele>55.123</ele>
      </trkpt>
      <trkpt lat="36.67361" lon="27.40614">
        <ele>55.642</ele>
      </trkpt>
      <trkpt lat="36.67369" lon="27.40616">
        <ele>56.886</ele>
      </trkpt>
      <trkpt lat="36.67372" lon="27.40616">
        <ele>57.185</ele>
      </trkpt>
      <trkpt lat="36.67382" lon="27.40615">
        <ele>57.992</ele>
      </trkpt>
      <trkpt lat="36.67382" lon="27.40616">
        <ele>58.139</ele>
      </trkpt>
      <trkpt lat="36.67384" lon="27.4062">
        <ele>59.189</ele>
      </trkpt>
      <trkpt lat="36.67394" lon="27.40617">
        <ele>59.19</ele>
      </trkpt>
      <trkpt lat="36.674" lon="27.4062">
        <ele>59.834</ele>
      </trkpt>
      <trkpt lat="36.67409" lon="27.40618">
        <ele>59.603</ele>
      </trkpt>
      <trkpt lat="36.67411" lon="27.40609">
        <ele>57.509</ele>
      </trkpt>
      <trkpt lat="36.67421" lon="27.40602">
        <ele>55.229</ele>
      </trkpt>
      <trkpt lat="36.67424" lon="27.40604">
        <ele>55.233</ele>
      </trkpt>
      <trkpt lat="36.67426" lon="27.40604">
        <ele>54.932</ele>
      </trkpt>
      <trkpt lat="36.67426" lon="27.40599">
        <ele>53.682</ele>
      </trkpt>
      <trkpt lat="36.67432" lon="27.40599">
        <ele>52.758</ele>
      </trkpt>
      <trkpt lat="36.67441" lon="27.40596">
        <ele>50.72</ele>
      </trkpt>
      <trkpt lat="36.67454" lon="27.40589">
        <ele>45.382</ele>
      </trkpt>
      <trkpt lat="36.67458" lon="27.40588">
        <ele>44.254</ele>
      </trkpt>
      <trkpt lat="36.67463" lon="27.40587">
        <ele>43.055</ele>
      </trkpt>
      <trkpt lat="36.67469" lon="27.40587">
        <ele>41.518</ele>
      </trkpt>
      <trkpt lat="36.67475" lon="27.40583">
        <ele>39.49</ele>
      </trkpt>
      <trkpt lat="36.67475" lon="27.40581">
        <ele>39.21</ele>
      </trkpt>
      <trkpt lat="36.67482" lon="27.40581">
        <ele>38.304</ele>
      </trkpt>
      <trkpt lat="36.6749" lon="27.40581">
        <ele>37.13</ele>
      </trkpt>
      <trkpt lat="36.67494" lon="27.4058">
        <ele>36.387</ele>
      </trkpt>
      <trkpt lat="36.67501" lon="27.40583">
        <ele>35.743</ele>
      </trkpt>
      <trkpt lat="36.67507" lon="27.40588">
        <ele>35.256</ele>
      </trkpt>
      <trkpt lat="36.67513" lon="27.40591">
        <ele>34.354</ele>
      </trkpt>
      <trkpt lat="36.67515" lon="27.40587">
        <ele>33.279</ele>
      </trkpt>
      <trkpt lat="36.67518" lon="27.40584">
        <ele>32.314</ele>
      </trkpt>
      <trkpt lat="36.67523" lon="27.40578">
        <ele>30.288</ele>
      </trkpt>
      <trkpt lat="36.67526" lon="27.4057">
        <ele>28.413</ele>
      </trkpt>
      <trkpt lat="36.67532" lon="27.4057">
        <ele>27.27</ele>
      </trkpt>
      <trkpt lat="36.67539" lon="27.40563">
        <ele>25.566</ele>
      </trkpt>
      <trkpt lat="36.6755" lon="27.40556">
        <ele>23.671</ele>
      </trkpt>
      <trkpt lat="36.67555" lon="27.40555">
        <ele>23.042</ele>
      </trkpt>
      <trkpt lat="36.67555" lon="27.40555">
        <ele>22.889</ele>
      </trkpt>
      <trkpt lat="36.67568" lon="27.40552">
        <ele>19.299</ele>
      </trkpt>
      <trkpt lat="36.67579" lon="27.40547">
        <ele>15.679</ele>
      </trkpt>
      <trkpt lat="36.6758" lon="27.40547">
        <ele>15.493</ele>
      </trkpt>
      <trkpt lat="36.67588" lon="27.40545">
        <ele>13.35</ele>
      </trkpt>
      <trkpt lat="36.67598" lon="27.4054">
        <ele>10.318</ele>
      </trkpt>
      <trkpt lat="36.67602" lon="27.40539">
        <ele>9.342</ele>
      </trkpt>
      <trkpt lat="36.67604" lon="27.40539">
        <ele>8.921</ele>
      </trkpt>
      <trkpt lat="36.67612" lon="27.40536">
        <ele>6.812</ele>
      </trkpt>
      <trkpt lat="36.67621" lon="27.40529">
        <ele>5.456</ele>
      </trkpt>
      <trkpt lat="36.67628" lon="27.40525">
        <ele>4.403</ele>
      </trkpt>
      <trkpt lat="36.67631" lon="27.40526">
        <ele>4.37</ele>
      </trkpt>
      <trkpt lat="36.67638" lon="27.40525">
        <ele>3.768</ele>
      </trkpt>
      <trkpt lat="36.67637" lon="27.40523">
        <ele>3.54</ele>
      </trkpt>
      <trkpt lat="36.67649" lon="27.4052">
        <ele>2.499</ele>
      </trkpt>
      <trkpt lat="36.67651" lon="27.40521">
        <ele>2.463</ele>
      </trkpt>
      <trkpt lat="36.67655" lon="27.40519">
        <ele>2.07</ele>
      </trkpt>
      <trkpt lat="36.67655" lon="27.40516">
        <ele>1.835</ele>
      </trkpt>
      <trkpt lat="36.67661" lon="27.4052">
        <ele>1.772</ele>
      </trkpt>
      <trkpt lat="36.67662" lon="27.4052">
        <ele>1.728</ele>
      </trkpt>
      <trkpt lat="36.67664" lon="27.4052">
        <ele>1.614</ele>
      </trkpt>
      <trkpt lat="36.67665" lon="27.4052">
        <ele>1.561</ele>
      </trkpt>
      <trkpt lat="36.67666" lon="27.4052">
        <ele>1.485</ele>
      </trkpt>
      <trkpt lat="36.67667" lon="27.4052">
        <ele>1.418</ele>
      </trkpt>
      <trkpt lat="36.67668" lon="27.4052">
        <ele>1.376</ele>
      </trkpt>
      <trkpt lat="36.67669" lon="27.40519">
        <ele>1.334</ele>
      </trkpt>
      <trkpt lat="36.6767" lon="27.40519">
        <ele>1.294</ele>
      </trkpt>
      <trkpt lat="36.67671" lon="27.40519">
        <ele>1.253</ele>
      </trkpt>
      <trkpt lat="36.67672" lon="27.40519">
        <ele>1.21</ele>
      </trkpt>
      <trkpt lat="36.67674" lon="27.40519">
        <ele>1.181</ele>
      </trkpt>
      <trkpt lat="36.67675" lon="27.40519">
        <ele>1.148</ele>
      </trkpt>
      <trkpt lat="36.67676" lon="27.40519">
        <ele>1.117</ele>
      </trkpt>
      <trkpt lat="36.67678" lon="27.40519">
        <ele>1.105</ele>
      </trkpt>
      <trkpt lat="36.67679" lon="27.40519">
        <ele>1.092</ele>
      </trkpt>
      <trkpt lat="36.6768" lon="27.4052">
        <ele>1.072</ele>
      </trkpt>
      <trkpt lat="36.67681" lon="27.4052">
        <ele>1.062</ele>
      </trkpt>
      <trkpt lat="36.67682" lon="27.4052">
        <ele>1.045</ele>
      </trkpt>
      <trkpt lat="36.67684" lon="27.4052">
        <ele>1.013</ele>
      </trkpt>
      <trkpt lat="36.67685" lon="27.40521">
        <ele>0.996</ele>
      </trkpt>
      <trkpt lat="36.67686" lon="27.40521">
        <ele>0.97</ele>
      </trkpt>
      <trkpt lat="36.67687" lon="27.40521">
        <ele>0.936</ele>
      </trkpt>
      <trkpt lat="36.67689" lon="27.40521">
        <ele>0.908</ele>
      </trkpt>
      <trkpt lat="36.6769" lon="27.40521">
        <ele>0.891</ele>
      </trkpt>
      <trkpt lat="36.67691" lon="27.40522">
        <ele>0.872</ele>
      </trkpt>
      <trkpt lat="36.67692" lon="27.40522">
        <ele>0.867</ele>
      </trkpt>
      <trkpt lat="36.67693" lon="27.40522">
        <ele>0.846</ele>
      </trkpt>
      <trkpt lat="36.67694" lon="27.40523">
        <ele>0.84</ele>
      </trkpt>
      <trkpt lat="36.67696" lon="27.40523">
        <ele>0.843</ele>
      </trkpt>
      <trkpt lat="36.67697" lon="27.40524">
        <ele>0.862</ele>
      </trkpt>
      <trkpt lat="36.67698" lon="27.40525">
        <ele>0.881</ele>
      </trkpt>
      <trkpt lat="36.67699" lon="27.40525">
        <ele>0.899</ele>
      </trkpt>
      <trkpt lat="36.67701" lon="27.40525">
        <ele>0.906</ele>
      </trkpt>
      <trkpt lat="36.67702" lon="27.40525">
        <ele>0.906</ele>
      </trkpt>
      <trkpt lat="36.67704" lon="27.40525">
        <ele>0.913</ele>
      </trkpt>
      <trkpt lat="36.67705" lon="27.40526">
        <ele>0.925</ele>
      </trkpt>
      <trkpt lat="36.67706" lon="27.40526">
        <ele>0.926</ele>
      </trkpt>
      <trkpt lat="36.67708" lon="27.40526">
        <ele>0.935</ele>
      </trkpt>
      <trkpt lat="36.67709" lon="27.40526">
        <ele>0.941</ele>
      </trkpt>
      <trkpt lat="36.6771" lon="27.40526">
        <ele>0.95</ele>
      </trkpt>
      <trkpt lat="36.67711" lon="27.40526">
        <ele>0.951</ele>
      </trkpt>
      <trkpt lat="36.67712" lon="27.40527">
        <ele>0.957</ele>
      </trkpt>
      <trkpt lat="36.67714" lon="27.40527">
        <ele>0.958</ele>
      </trkpt>
      <trkpt lat="36.67715" lon="27.40527">
        <ele>0.959</ele>
      </trkpt>
      <trkpt lat="36.67716" lon="27.40527">
        <ele>0.958</ele>
      </trkpt>
      <trkpt lat="36.67717" lon="27.40527">
        <ele>0.959</ele>
      </trkpt>
      <trkpt lat="36.67718" lon="27.40527">
        <ele>0.959</ele>
      </trkpt>
      <trkpt lat="36.67719" lon="27.40526">
        <ele>0.946</ele>
      </trkpt>
      <trkpt lat="36.6772" lon="27.40526">
        <ele>0.946</ele>
      </trkpt>
      <trkpt lat="36.67721" lon="27.40526">
        <ele>0.946</ele>
      </trkpt>
      <trkpt lat="36.67723" lon="27.40526">
        <ele>0.947</ele>
      </trkpt>
      <trkpt lat="36.67724" lon="27.40526">
        <ele>0.951</ele>
      </trkpt>
      <trkpt lat="36.67725" lon="27.40526">
        <ele>0.946</ele>
      </trkpt>
      <trkpt lat="36.67727" lon="27.40526">
        <ele>0.935</ele>
      </trkpt>
      <trkpt lat="36.67728" lon="27.40525">
        <ele>0.929</ele>
      </trkpt>
      <trkpt lat="36.67729" lon="27.40525">
        <ele>0.922</ele>
      </trkpt>
      <trkpt lat="36.67731" lon="27.40525">
        <ele>0.922</ele>
      </trkpt>
      <trkpt lat="36.67732" lon="27.40525">
        <ele>0.927</ele>
      </trkpt>
      <trkpt lat="36.67734" lon="27.40524">
        <ele>0.928</ele>
      </trkpt>
      <trkpt lat="36.67735" lon="27.40524">
        <ele>0.933</ele>
      </trkpt>
      <trkpt lat="36.67736" lon="27.40524">
        <ele>0.938</ele>
      </trkpt>
      <trkpt lat="36.67737" lon="27.40525">
        <ele>0.95</ele>
      </trkpt>
      <trkpt lat="36.67738" lon="27.40525">
        <ele>0.955</ele>
      </trkpt>
      <trkpt lat="36.6774" lon="27.40525">
        <ele>0.96</ele>
      </trkpt>
      <trkpt lat="36.67741" lon="27.40525">
        <ele>0.967</ele>
      </trkpt>
      <trkpt lat="36.67742" lon="27.40525">
        <ele>0.976</ele>
      </trkpt>
      <trkpt lat="36.67743" lon="27.40526">
        <ele>0.983</ele>
      </trkpt>
      <trkpt lat="36.67745" lon="27.40526">
        <ele>0.985</ele>
      </trkpt>
      <trkpt lat="36.67743" lon="27.40527">
        <ele>0.996</ele>
      </trkpt>
      <trkpt lat="36.67747" lon="27.40524">
        <ele>0.981</ele>
      </trkpt>
      <trkpt lat="36.67749" lon="27.40522">
        <ele>0.992</ele>
      </trkpt>
      <trkpt lat="36.67754" lon="27.40519">
        <ele>0.794</ele>
      </trkpt>
      <trkpt lat="36.67756" lon="27.40518">
        <ele>0.72</ele>
      </trkpt>
      <trkpt lat="36.67765" lon="27.40515">
        <ele>0.421</ele>
      </trkpt>
      <trkpt lat="36.67769" lon="27.40513">
        <ele>0.374</ele>
      </trkpt>
      <trkpt lat="36.67774" lon="27.4051">
        <ele>0.41</ele>
      </trkpt>
      <trkpt lat="36.67779" lon="27.40506">
        <ele>0.531</ele>
      </trkpt>
      <trkpt lat="36.67779" lon="27.40506">
        <ele>0.531</ele>
      </trkpt>
      <trkpt lat="36.67779" lon="27.40505">
        <ele>0.622</ele>
      </trkpt>
      <trkpt lat="36.67781" lon="27.40502">
        <ele>0.653</ele>
      </trkpt>
      <trkpt lat="36.67786" lon="27.40498">
        <ele>0.433</ele>
      </trkpt>
      <trkpt lat="36.67789" lon="27.40494">
        <ele>0.332</ele>
      </trkpt>
      <trkpt lat="36.67794" lon="27.4049">
        <ele>0.252</ele>
      </trkpt>
      <trkpt lat="36.67801" lon="27.40488">
        <ele>0.084</ele>
      </trkpt>
      <trkpt lat="36.67806" lon="27.40485">
        <ele>0.124</ele>
      </trkpt>
      <trkpt lat="36.67805" lon="27.40485">
        <ele>0.083</ele>
      </trkpt>
      <trkpt lat="36.67804" lon="27.40482">
        <ele>0.345</ele>
      </trkpt>
      <trkpt lat="36.67806" lon="27.4048">
        <ele>0.44</ele>
      </trkpt>
      <trkpt lat="36.67811" lon="27.40476">
        <ele>0.894</ele>
      </trkpt>
      <trkpt lat="36.67812" lon="27.40474">
        <ele>0.96</ele>
      </trkpt>
      <trkpt lat="36.67815" lon="27.40472">
        <ele>1</ele>
      </trkpt>
      <trkpt lat="36.67822" lon="27.40467">
        <ele>0.923</ele>
      </trkpt>
      <trkpt lat="36.67825" lon="27.40465">
        <ele>0.928</ele>
      </trkpt>
      <trkpt lat="36.67829" lon="27.40464">
        <ele>0.948</ele>
      </trkpt>
      <trkpt lat="36.67834" lon="27.40459">
        <ele>1.12</ele>
      </trkpt>
      <trkpt lat="36.67839" lon="27.40454">
        <ele>1.868</ele>
      </trkpt>
      <trkpt lat="36.67841" lon="27.40453">
        <ele>2.089</ele>
      </trkpt>
      <trkpt lat="36.6784" lon="27.40452">
        <ele>1.961</ele>
      </trkpt>
      <trkpt lat="36.67839" lon="27.40455">
        <ele>1.771</ele>
      </trkpt>
      <trkpt lat="36.67841" lon="27.40452">
        <ele>1.984</ele>
      </trkpt>
      <trkpt lat="36.67843" lon="27.40449">
        <ele>2.271</ele>
      </trkpt>
      <trkpt lat="36.67846" lon="27.40447">
        <ele>2.538</ele>
      </trkpt>
      <trkpt lat="36.67848" lon="27.40446">
        <ele>2.711</ele>
      </trkpt>
      <trkpt lat="36.67854" lon="27.40445">
        <ele>3.227</ele>
      </trkpt>
      <trkpt lat="36.67853" lon="27.40445">
        <ele>3.161</ele>
      </trkpt>
      <trkpt lat="36.67852" lon="27.40444">
        <ele>3.005</ele>
      </trkpt>
      <trkpt lat="36.67852" lon="27.40444">
        <ele>2.99</ele>
      </trkpt>
      <trkpt lat="36.67852" lon="27.40445">
        <ele>2.974</ele>
      </trkpt>
      <trkpt lat="36.67851" lon="27.40444">
        <ele>2.876</ele>
      </trkpt>
      <trkpt lat="36.67853" lon="27.40443">
        <ele>3.127</ele>
      </trkpt>
      <trkpt lat="36.67852" lon="27.40445">
        <ele>3.077</ele>
      </trkpt>
      <trkpt lat="36.67855" lon="27.40445">
        <ele>3.458</ele>
      </trkpt>
      <trkpt lat="36.67859" lon="27.40445">
        <ele>3.855</ele>
      </trkpt>
      <trkpt lat="36.67861" lon="27.40443">
        <ele>4.013</ele>
      </trkpt>
      <trkpt lat="36.67864" lon="27.40441">
        <ele>4.488</ele>
      </trkpt>
      <trkpt lat="36.67871" lon="27.40437">
        <ele>5.867</ele>
      </trkpt>
      <trkpt lat="36.67875" lon="27.40432">
        <ele>6.354</ele>
      </trkpt>
      <trkpt lat="36.6788" lon="27.40431">
        <ele>7.116</ele>
      </trkpt>
      <trkpt lat="36.6788" lon="27.40431">
        <ele>7.116</ele>
      </trkpt>
      <trkpt lat="36.67893" lon="27.40424">
        <ele>8.728</ele>
      </trkpt>
      <trkpt lat="36.679" lon="27.40413">
        <ele>9.321</ele>
      </trkpt>
      <trkpt lat="36.6791" lon="27.40406">
        <ele>10.572</ele>
      </trkpt>
      <trkpt lat="36.67915" lon="27.404">
        <ele>10.688</ele>
      </trkpt>
      <trkpt lat="36.67921" lon="27.40393">
        <ele>10.925</ele>
      </trkpt>
      <trkpt lat="36.67928" lon="27.40382">
        <ele>10.705</ele>
      </trkpt>
      <trkpt lat="36.67936" lon="27.40381">
        <ele>12.401</ele>
      </trkpt>
      <trkpt lat="36.67936" lon="27.40385">
        <ele>13.265</ele>
      </trkpt>
      <trkpt lat="36.67939" lon="27.40388">
        <ele>14.288</ele>
      </trkpt>
      <trkpt lat="36.6794" lon="27.40385">
        <ele>13.933</ele>
      </trkpt>
      <trkpt lat="36.67943" lon="27.4038">
        <ele>13.652</ele>
      </trkpt>
      <trkpt lat="36.67947" lon="27.40376">
        <ele>13.58</ele>
      </trkpt>
      <trkpt lat="36.67955" lon="27.40375">
        <ele>14.952</ele>
      </trkpt>
      <trkpt lat="36.67956" lon="27.40373">
        <ele>14.643</ele>
      </trkpt>
      <trkpt lat="36.67955" lon="27.40371">
        <ele>14.231</ele>
      </trkpt>
      <trkpt lat="36.67952" lon="27.40368">
        <ele>12.996</ele>
      </trkpt>
      <trkpt lat="36.67946" lon="27.40361">
        <ele>10.377</ele>
      </trkpt>
      <trkpt lat="36.67943" lon="27.40355">
        <ele>8.881</ele>
      </trkpt>
      <trkpt lat="36.67945" lon="27.40354">
        <ele>9.054</ele>
      </trkpt>
      <trkpt lat="36.67945" lon="27.40353">
        <ele>9.002</ele>
      </trkpt>
      <trkpt lat="36.67944" lon="27.4035">
        <ele>8.21</ele>
      </trkpt>
      <trkpt lat="36.67946" lon="27.40346">
        <ele>8.021</ele>
      </trkpt>
      <trkpt lat="36.67949" lon="27.40343">
        <ele>8.282</ele>
      </trkpt>
      <trkpt lat="36.67956" lon="27.40346">
        <ele>10.067</ele>
      </trkpt>
      <trkpt lat="36.67967" lon="27.40348">
        <ele>12.655</ele>
      </trkpt>
      <trkpt lat="36.67968" lon="27.40348">
        <ele>12.79</ele>
      </trkpt>
      <trkpt lat="36.67979" lon="27.40344">
        <ele>14.571</ele>
      </trkpt>
      <trkpt lat="36.67983" lon="27.4034">
        <ele>15.098</ele>
      </trkpt>
      <trkpt lat="36.67994" lon="27.40333">
        <ele>17.304</ele>
      </trkpt>
      <trkpt lat="36.68003" lon="27.40326">
        <ele>19.059</ele>
      </trkpt>
      <trkpt lat="36.68013" lon="27.40317">
        <ele>21.107</ele>
      </trkpt>
      <trkpt lat="36.68015" lon="27.40317">
        <ele>21.442</ele>
      </trkpt>
      <trkpt lat="36.68025" lon="27.40311">
        <ele>24.31</ele>
      </trkpt>
      <trkpt lat="36.68036" lon="27.40309">
        <ele>26.806</ele>
      </trkpt>
      <trkpt lat="36.68041" lon="27.40309">
        <ele>28.134</ele>
      </trkpt>
      <trkpt lat="36.68045" lon="27.40307">
        <ele>29.17</ele>
      </trkpt>
      <trkpt lat="36.68057" lon="27.40298">
        <ele>30.631</ele>
      </trkpt>
      <trkpt lat="36.68058" lon="27.40292">
        <ele>29.678</ele>
      </trkpt>
      <trkpt lat="36.6806" lon="27.40288">
        <ele>29.576</ele>
      </trkpt>
      <trkpt lat="36.68063" lon="27.40277">
        <ele>28.243</ele>
      </trkpt>
      <trkpt lat="36.68068" lon="27.40263">
        <ele>27.261</ele>
      </trkpt>
      <trkpt lat="36.68075" lon="27.40248">
        <ele>27.718</ele>
      </trkpt>
      <trkpt lat="36.68084" lon="27.40233">
        <ele>30.4</ele>
      </trkpt>
      <trkpt lat="36.68088" lon="27.40222">
        <ele>31.142</ele>
      </trkpt>
      <trkpt lat="36.68088" lon="27.40212">
        <ele>30.033</ele>
      </trkpt>
      <trkpt lat="36.68089" lon="27.40195">
        <ele>28.089</ele>
      </trkpt>
      <trkpt lat="36.68092" lon="27.40176">
        <ele>26.738</ele>
      </trkpt>
      <trkpt lat="36.68093" lon="27.40175">
        <ele>27.503</ele>
      </trkpt>
      <trkpt lat="36.68096" lon="27.40171">
        <ele>29.075</ele>
      </trkpt>
      <trkpt lat="36.681" lon="27.40157">
        <ele>29.512</ele>
      </trkpt>
      <trkpt lat="36.681" lon="27.40141">
        <ele>28.397</ele>
      </trkpt>
      <trkpt lat="36.68099" lon="27.4014">
        <ele>27.837</ele>
      </trkpt>
      <trkpt lat="36.68097" lon="27.40125">
        <ele>25.044</ele>
      </trkpt>
      <trkpt lat="36.68094" lon="27.4011">
        <ele>21.675</ele>
      </trkpt>
      <trkpt lat="36.68092" lon="27.40098">
        <ele>21.093</ele>
      </trkpt>
      <trkpt lat="36.68094" lon="27.40087">
        <ele>22.454</ele>
      </trkpt>
      <trkpt lat="36.68091" lon="27.40069">
        <ele>21.064</ele>
      </trkpt>
      <trkpt lat="36.68091" lon="27.40058">
        <ele>20.906</ele>
      </trkpt>
      <trkpt lat="36.68091" lon="27.40052">
        <ele>20.746</ele>
      </trkpt>
      <trkpt lat="36.68091" lon="27.4005">
        <ele>20.803</ele>
      </trkpt>
      <trkpt lat="36.68096" lon="27.40025">
        <ele>23.681</ele>
      </trkpt>
      <trkpt lat="36.68108" lon="27.40001">
        <ele>27.48</ele>
      </trkpt>
      <trkpt lat="36.68118" lon="27.39982">
        <ele>27.375</ele>
      </trkpt>
      <trkpt lat="36.68124" lon="27.3996">
        <ele>24.85</ele>
      </trkpt>
      <trkpt lat="36.68128" lon="27.39943">
        <ele>22.616</ele>
      </trkpt>
      <trkpt lat="36.68129" lon="27.39927">
        <ele>20.92</ele>
      </trkpt>
      <trkpt lat="36.6813" lon="27.39904">
        <ele>20.069</ele>
      </trkpt>
      <trkpt lat="36.6813" lon="27.39878">
        <ele>20.457</ele>
      </trkpt>
      <trkpt lat="36.68131" lon="27.3986">
        <ele>20.622</ele>
      </trkpt>
      <trkpt lat="36.68133" lon="27.39838">
        <ele>20.249</ele>
      </trkpt>
      <trkpt lat="36.68137" lon="27.39817">
        <ele>20.919</ele>
      </trkpt>
      <trkpt lat="36.68145" lon="27.39798">
        <ele>22.717</ele>
      </trkpt>
      <trkpt lat="36.68153" lon="27.39778">
        <ele>23.046</ele>
      </trkpt>
      <trkpt lat="36.68161" lon="27.39758">
        <ele>25.075</ele>
      </trkpt>
      <trkpt lat="36.68171" lon="27.39733">
        <ele>26.835</ele>
      </trkpt>
      <trkpt lat="36.68176" lon="27.39707">
        <ele>26.641</ele>
      </trkpt>
      <trkpt lat="36.68176" lon="27.39696">
        <ele>25.904</ele>
      </trkpt>
      <trkpt lat="36.68186" lon="27.39689">
        <ele>27.685</ele>
      </trkpt>
      <trkpt lat="36.68196" lon="27.39677">
        <ele>29.836</ele>
      </trkpt>
      <trkpt lat="36.68207" lon="27.39667">
        <ele>32.829</ele>
      </trkpt>
      <trkpt lat="36.68215" lon="27.39663">
        <ele>35.707</ele>
      </trkpt>
      <trkpt lat="36.6823" lon="27.39652">
        <ele>39.32</ele>
      </trkpt>
      <trkpt lat="36.68241" lon="27.39642">
        <ele>41.906</ele>
      </trkpt>
      <trkpt lat="36.68243" lon="27.39636">
        <ele>42.342</ele>
      </trkpt>
      <trkpt lat="36.68243" lon="27.39633">
        <ele>42.261</ele>
      </trkpt>
      <trkpt lat="36.68245" lon="27.39627">
        <ele>42.835</ele>
      </trkpt>
      <trkpt lat="36.68244" lon="27.39607">
        <ele>42.043</ele>
      </trkpt>
      <trkpt lat="36.6824" lon="27.39601">
        <ele>40.969</ele>
      </trkpt>
      <trkpt lat="36.68231" lon="27.39589">
        <ele>38.4</ele>
      </trkpt>
      <trkpt lat="36.6823" lon="27.39586">
        <ele>38.136</ele>
      </trkpt>
      <trkpt lat="36.68223" lon="27.39572">
        <ele>36.636</ele>
      </trkpt>
      <trkpt lat="36.68224" lon="27.39566">
        <ele>37.231</ele>
      </trkpt>
      <trkpt lat="36.68228" lon="27.39544">
        <ele>39.969</ele>
      </trkpt>
      <trkpt lat="36.68235" lon="27.39515">
        <ele>43.9</ele>
      </trkpt>
      <trkpt lat="36.68238" lon="27.39489">
        <ele>45.736</ele>
      </trkpt>
      <trkpt lat="36.68246" lon="27.39465">
        <ele>47.734</ele>
      </trkpt>
      <trkpt lat="36.68249" lon="27.39445">
        <ele>48.878</ele>
      </trkpt>
      <trkpt lat="36.68252" lon="27.39425">
        <ele>50.726</ele>
      </trkpt>
      <trkpt lat="36.68255" lon="27.39408">
        <ele>52.202</ele>
      </trkpt>
      <trkpt lat="36.68253" lon="27.39393">
        <ele>52.895</ele>
      </trkpt>
      <trkpt lat="36.68256" lon="27.39384">
        <ele>53.106</ele>
      </trkpt>
      <trkpt lat="36.68257" lon="27.39383">
        <ele>53.091</ele>
      </trkpt>
      <trkpt lat="36.68263" lon="27.39365">
        <ele>52.249</ele>
      </trkpt>
      <trkpt lat="36.68276" lon="27.39347">
        <ele>47.809</ele>
      </trkpt>
      <trkpt lat="36.68279" lon="27.39344">
        <ele>46.726</ele>
      </trkpt>
      <trkpt lat="36.68281" lon="27.39341">
        <ele>45.94</ele>
      </trkpt>
      <trkpt lat="36.68288" lon="27.39333">
        <ele>43.909</ele>
      </trkpt>
      <trkpt lat="36.68291" lon="27.3933">
        <ele>43.583</ele>
      </trkpt>
      <trkpt lat="36.68296" lon="27.3932">
        <ele>42.124</ele>
      </trkpt>
      <trkpt lat="36.68301" lon="27.39312">
        <ele>40.536</ele>
      </trkpt>
      <trkpt lat="36.68311" lon="27.39304">
        <ele>37.857</ele>
      </trkpt>
      <trkpt lat="36.68311" lon="27.39304">
        <ele>37.647</ele>
      </trkpt>
      <trkpt lat="36.68321" lon="27.39295">
        <ele>34.224</ele>
      </trkpt>
      <trkpt lat="36.68326" lon="27.39288">
        <ele>32.093</ele>
      </trkpt>
      <trkpt lat="36.68326" lon="27.39287">
        <ele>31.93</ele>
      </trkpt>
      <trkpt lat="36.68332" lon="27.3928">
        <ele>29.7</ele>
      </trkpt>
      <trkpt lat="36.6834" lon="27.39273">
        <ele>28.494</ele>
      </trkpt>
      <trkpt lat="36.68349" lon="27.39262">
        <ele>27.357</ele>
      </trkpt>
      <trkpt lat="36.68357" lon="27.39254">
        <ele>26.417</ele>
      </trkpt>
      <trkpt lat="36.68371" lon="27.39238">
        <ele>25.62</ele>
      </trkpt>
      <trkpt lat="36.68376" lon="27.39232">
        <ele>25.143</ele>
      </trkpt>
      <trkpt lat="36.68381" lon="27.39217">
        <ele>23.192</ele>
      </trkpt>
      <trkpt lat="36.68381" lon="27.39204">
        <ele>21.748</ele>
      </trkpt>
      <trkpt lat="36.68388" lon="27.39187">
        <ele>20.68</ele>
      </trkpt>
      <trkpt lat="36.68394" lon="27.39177">
        <ele>21.135</ele>
      </trkpt>
      <trkpt lat="36.68398" lon="27.39161">
        <ele>21.305</ele>
      </trkpt>
      <trkpt lat="36.68403" lon="27.39138">
        <ele>20.978</ele>
      </trkpt>
      <trkpt lat="36.68405" lon="27.39114">
        <ele>21.77</ele>
      </trkpt>
      <trkpt lat="36.68404" lon="27.39108">
        <ele>22.075</ele>
      </trkpt>
      <trkpt lat="36.68394" lon="27.39084">
        <ele>21.339</ele>
      </trkpt>
      <trkpt lat="36.6839" lon="27.39074">
        <ele>21.064</ele>
      </trkpt>
      <trkpt lat="36.6839" lon="27.39067">
        <ele>21.515</ele>
      </trkpt>
      <trkpt lat="36.68387" lon="27.3905">
        <ele>21.565</ele>
      </trkpt>
      <trkpt lat="36.68389" lon="27.39032">
        <ele>22.829</ele>
      </trkpt>
      <trkpt lat="36.68393" lon="27.39013">
        <ele>25.391</ele>
      </trkpt>
      <trkpt lat="36.68394" lon="27.38997">
        <ele>26.974</ele>
      </trkpt>
      <trkpt lat="36.68393" lon="27.38976">
        <ele>28.028</ele>
      </trkpt>
      <trkpt lat="36.68393" lon="27.38958">
        <ele>29.651</ele>
      </trkpt>
      <trkpt lat="36.68394" lon="27.38945">
        <ele>31.211</ele>
      </trkpt>
      <trkpt lat="36.684" lon="27.38945">
        <ele>32.694</ele>
      </trkpt>
      <trkpt lat="36.68402" lon="27.38944">
        <ele>33.413</ele>
      </trkpt>
      <trkpt lat="36.68401" lon="27.38938">
        <ele>33.141</ele>
      </trkpt>
      <trkpt lat="36.68401" lon="27.38913">
        <ele>33.736</ele>
      </trkpt>
      <trkpt lat="36.684" lon="27.38901">
        <ele>33.544</ele>
      </trkpt>
      <trkpt lat="36.68398" lon="27.3888">
        <ele>34.069</ele>
      </trkpt>
      <trkpt lat="36.68395" lon="27.38861">
        <ele>35.187</ele>
      </trkpt>
      <trkpt lat="36.68392" lon="27.38839">
        <ele>36.147</ele>
      </trkpt>
      <trkpt lat="36.68393" lon="27.38818">
        <ele>36.385</ele>
      </trkpt>
      <trkpt lat="36.68392" lon="27.38817">
        <ele>36.316</ele>
      </trkpt>
      <trkpt lat="36.68397" lon="27.38818">
        <ele>36.834</ele>
      </trkpt>
      <trkpt lat="36.684" lon="27.38821">
        <ele>37.272</ele>
      </trkpt>
      <trkpt lat="36.68415" lon="27.38825">
        <ele>39.574</ele>
      </trkpt>
      <trkpt lat="36.6842" lon="27.38828">
        <ele>40.913</ele>
      </trkpt>
      <trkpt lat="36.68422" lon="27.38829">
        <ele>41.453</ele>
      </trkpt>
      <trkpt lat="36.68431" lon="27.38827">
        <ele>42.608</ele>
      </trkpt>
      <trkpt lat="36.68435" lon="27.38826">
        <ele>43.179</ele>
      </trkpt>
      <trkpt lat="36.68442" lon="27.38836">
        <ele>45.735</ele>
      </trkpt>
      <trkpt lat="36.68452" lon="27.38846">
        <ele>49.935</ele>
      </trkpt>
      <trkpt lat="36.68454" lon="27.38853">
        <ele>51.175</ele>
      </trkpt>
      <trkpt lat="36.68455" lon="27.38854">
        <ele>51.72</ele>
      </trkpt>
      <trkpt lat="36.68463" lon="27.38859">
        <ele>55.296</ele>
      </trkpt>
      <trkpt lat="36.68465" lon="27.38861">
        <ele>55.958</ele>
      </trkpt>
      <trkpt lat="36.68466" lon="27.38863">
        <ele>56.443</ele>
      </trkpt>
      <trkpt lat="36.68469" lon="27.38867">
        <ele>57.971</ele>
      </trkpt>
      <trkpt lat="36.68471" lon="27.38867">
        <ele>58.6</ele>
      </trkpt>
      <trkpt lat="36.68471" lon="27.38865">
        <ele>58.711</ele>
      </trkpt>
      <trkpt lat="36.68479" lon="27.38827">
        <ele>59.866</ele>
      </trkpt>
      <trkpt lat="36.68503" lon="27.388">
        <ele>71.203</ele>
      </trkpt>
      <trkpt lat="36.6851" lon="27.38741">
        <ele>67.916</ele>
      </trkpt>
      <trkpt lat="36.68514" lon="27.38678">
        <ele>59.153</ele>
      </trkpt>
      <trkpt lat="36.68517" lon="27.38664">
        <ele>58.29</ele>
      </trkpt>
      <trkpt lat="36.68526" lon="27.38605">
        <ele>50.74</ele>
      </trkpt>
      <trkpt lat="36.68539" lon="27.38525">
        <ele>46.942</ele>
      </trkpt>
      <trkpt lat="36.68547" lon="27.3847">
        <ele>41.236</ele>
      </trkpt>
      <trkpt lat="36.68553" lon="27.38456">
        <ele>42.557</ele>
      </trkpt>
      <trkpt lat="36.68554" lon="27.3845">
        <ele>42.225</ele>
      </trkpt>
      <trkpt lat="36.68555" lon="27.38446">
        <ele>41.85</ele>
      </trkpt>
      <trkpt lat="36.68556" lon="27.38442">
        <ele>41.712</ele>
      </trkpt>
      <trkpt lat="36.68558" lon="27.38437">
        <ele>41.463</ele>
      </trkpt>
      <trkpt lat="36.6856" lon="27.38433">
        <ele>41.481</ele>
      </trkpt>
      <trkpt lat="36.68563" lon="27.38431">
        <ele>42.178</ele>
      </trkpt>
      <trkpt lat="36.68565" lon="27.38427">
        <ele>42.575</ele>
      </trkpt>
      <trkpt lat="36.68566" lon="27.38424">
        <ele>42.276</ele>
      </trkpt>
      <trkpt lat="36.68567" lon="27.38419">
        <ele>41.913</ele>
      </trkpt>
      <trkpt lat="36.68569" lon="27.38413">
        <ele>41.303</ele>
      </trkpt>
      <trkpt lat="36.68571" lon="27.3841">
        <ele>41.042</ele>
      </trkpt>
      <trkpt lat="36.68572" lon="27.38406">
        <ele>40.477</ele>
      </trkpt>
      <trkpt lat="36.68574" lon="27.38403">
        <ele>40.834</ele>
      </trkpt>
      <trkpt lat="36.68576" lon="27.384">
        <ele>40.885</ele>
      </trkpt>
      <trkpt lat="36.68578" lon="27.38397">
        <ele>40.624</ele>
      </trkpt>
      <trkpt lat="36.68578" lon="27.38393">
        <ele>39.742</ele>
      </trkpt>
      <trkpt lat="36.6858" lon="27.38386">
        <ele>38.945</ele>
      </trkpt>
      <trkpt lat="36.6858" lon="27.38384">
        <ele>38.541</ele>
      </trkpt>
      <trkpt lat="36.68581" lon="27.38377">
        <ele>37.463</ele>
      </trkpt>
      <trkpt lat="36.68582" lon="27.38373">
        <ele>37.346</ele>
      </trkpt>
      <trkpt lat="36.68583" lon="27.38369">
        <ele>37.245</ele>
      </trkpt>
      <trkpt lat="36.68585" lon="27.38363">
        <ele>37.444</ele>
      </trkpt>
      <trkpt lat="36.68587" lon="27.38361">
        <ele>38.305</ele>
      </trkpt>
      <trkpt lat="36.68589" lon="27.38357">
        <ele>39.366</ele>
      </trkpt>
      <trkpt lat="36.68593" lon="27.38353">
        <ele>41.199</ele>
      </trkpt>
      <trkpt lat="36.68598" lon="27.38347">
        <ele>43.453</ele>
      </trkpt>
      <trkpt lat="36.68599" lon="27.38343">
        <ele>43.768</ele>
      </trkpt>
      <trkpt lat="36.686" lon="27.3834">
        <ele>43.79</ele>
      </trkpt>
      <trkpt lat="36.686" lon="27.38335">
        <ele>43.236</ele>
      </trkpt>
      <trkpt lat="36.68599" lon="27.38329">
        <ele>43.612</ele>
      </trkpt>
      <trkpt lat="36.686" lon="27.38323">
        <ele>44.726</ele>
      </trkpt>
      <trkpt lat="36.68599" lon="27.38318">
        <ele>45.333</ele>
      </trkpt>
      <trkpt lat="36.68599" lon="27.38311">
        <ele>46.159</ele>
      </trkpt>
      <trkpt lat="36.68599" lon="27.38308">
        <ele>46.502</ele>
      </trkpt>
      <trkpt lat="36.68597" lon="27.38302">
        <ele>46.139</ele>
      </trkpt>
      <trkpt lat="36.68594" lon="27.383">
        <ele>45.007</ele>
      </trkpt>
      <trkpt lat="36.68593" lon="27.38297">
        <ele>44.318</ele>
      </trkpt>
      <trkpt lat="36.6859" lon="27.38296">
        <ele>42.659</ele>
      </trkpt>
      <trkpt lat="36.68589" lon="27.38294">
        <ele>42.351</ele>
      </trkpt>
      <trkpt lat="36.68585" lon="27.38291">
        <ele>40.373</ele>
      </trkpt>
      <trkpt lat="36.68582" lon="27.38287">
        <ele>39.152</ele>
      </trkpt>
      <trkpt lat="36.68582" lon="27.38283">
        <ele>39.397</ele>
      </trkpt>
      <trkpt lat="36.68581" lon="27.38279">
        <ele>39.073</ele>
      </trkpt>
      <trkpt lat="36.68577" lon="27.38268">
        <ele>36.607</ele>
      </trkpt>
      <trkpt lat="36.68575" lon="27.38265">
        <ele>34.718</ele>
      </trkpt>
      <trkpt lat="36.68574" lon="27.38261">
        <ele>33.931</ele>
      </trkpt>
      <trkpt lat="36.68572" lon="27.38258">
        <ele>32.491</ele>
      </trkpt>
      <trkpt lat="36.68572" lon="27.38253">
        <ele>32.2</ele>
      </trkpt>
      <trkpt lat="36.68571" lon="27.38248">
        <ele>31.94</ele>
      </trkpt>
      <trkpt lat="36.68571" lon="27.38244">
        <ele>31.752</ele>
      </trkpt>
      <trkpt lat="36.68571" lon="27.38238">
        <ele>31.465</ele>
      </trkpt>
      <trkpt lat="36.6857" lon="27.38233">
        <ele>31.224</ele>
      </trkpt>
      <trkpt lat="36.68571" lon="27.38224">
        <ele>32.152</ele>
      </trkpt>
      <trkpt lat="36.68573" lon="27.38221">
        <ele>33.296</ele>
      </trkpt>
      <trkpt lat="36.68573" lon="27.38216">
        <ele>33.379</ele>
      </trkpt>
      <trkpt lat="36.68573" lon="27.38212">
        <ele>32.906</ele>
      </trkpt>
      <trkpt lat="36.68573" lon="27.38206">
        <ele>32.85</ele>
      </trkpt>
      <trkpt lat="36.68573" lon="27.38201">
        <ele>32.261</ele>
      </trkpt>
      <trkpt lat="36.68574" lon="27.38199">
        <ele>32.657</ele>
      </trkpt>
      <trkpt lat="36.68574" lon="27.38192">
        <ele>32.176</ele>
      </trkpt>
      <trkpt lat="36.68575" lon="27.38188">
        <ele>31.919</ele>
      </trkpt>
      <trkpt lat="36.68575" lon="27.38183">
        <ele>31.442</ele>
      </trkpt>
      <trkpt lat="36.68576" lon="27.38179">
        <ele>31.173</ele>
      </trkpt>
      <trkpt lat="36.68576" lon="27.38166">
        <ele>29.608</ele>
      </trkpt>
      <trkpt lat="36.68578" lon="27.38161">
        <ele>30.098</ele>
      </trkpt>
      <trkpt lat="36.68578" lon="27.3816">
        <ele>29.77</ele>
      </trkpt>
      <trkpt lat="36.68578" lon="27.38153">
        <ele>29.171</ele>
      </trkpt>
      <trkpt lat="36.68579" lon="27.38148">
        <ele>29.048</ele>
      </trkpt>
      <trkpt lat="36.6858" lon="27.38146">
        <ele>29.757</ele>
      </trkpt>
      <trkpt lat="36.6858" lon="27.3814">
        <ele>29.253</ele>
      </trkpt>
      <trkpt lat="36.6858" lon="27.38135">
        <ele>28.783</ele>
      </trkpt>
      <trkpt lat="36.6858" lon="27.38134">
        <ele>28.719</ele>
      </trkpt>
      <trkpt lat="36.68581" lon="27.38126">
        <ele>29.178</ele>
      </trkpt>
      <trkpt lat="36.68581" lon="27.38125">
        <ele>29.111</ele>
      </trkpt>
      <trkpt lat="36.68581" lon="27.38121">
        <ele>28.86</ele>
      </trkpt>
      <trkpt lat="36.68581" lon="27.38114">
        <ele>28.871</ele>
      </trkpt>
      <trkpt lat="36.68581" lon="27.38112">
        <ele>28.747</ele>
      </trkpt>
      <trkpt lat="36.68581" lon="27.38107">
        <ele>28.162</ele>
      </trkpt>
      <trkpt lat="36.68581" lon="27.38075">
        <ele>25.789</ele>
      </trkpt>
      <trkpt lat="36.68582" lon="27.3807">
        <ele>25.845</ele>
      </trkpt>
      <trkpt lat="36.68582" lon="27.38066">
        <ele>25.946</ele>
      </trkpt>
      <trkpt lat="36.68583" lon="27.3806">
        <ele>25.912</ele>
      </trkpt>
      <trkpt lat="36.68583" lon="27.38056">
        <ele>25.987</ele>
      </trkpt>
      <trkpt lat="36.68584" lon="27.38047">
        <ele>26.712</ele>
      </trkpt>
      <trkpt lat="36.68583" lon="27.38043">
        <ele>26.888</ele>
      </trkpt>
      <trkpt lat="36.68585" lon="27.38037">
        <ele>27.86</ele>
      </trkpt>
      <trkpt lat="36.68584" lon="27.38033">
        <ele>28.028</ele>
      </trkpt>
      <trkpt lat="36.68583" lon="27.38028">
        <ele>27.914</ele>
      </trkpt>
      <trkpt lat="36.68581" lon="27.38023">
        <ele>27.372</ele>
      </trkpt>
      <trkpt lat="36.68579" lon="27.38019">
        <ele>27.359</ele>
      </trkpt>
      <trkpt lat="36.68578" lon="27.38014">
        <ele>27.088</ele>
      </trkpt>
      <trkpt lat="36.68577" lon="27.3801">
        <ele>27.377</ele>
      </trkpt>
      <trkpt lat="36.68579" lon="27.38006">
        <ele>28.334</ele>
      </trkpt>
      <trkpt lat="36.68574" lon="27.37993">
        <ele>27.841</ele>
      </trkpt>
      <trkpt lat="36.68573" lon="27.37991">
        <ele>27.689</ele>
      </trkpt>
      <trkpt lat="36.68571" lon="27.37988">
        <ele>27.371</ele>
      </trkpt>
      <trkpt lat="36.68569" lon="27.37981">
        <ele>26.96</ele>
      </trkpt>
      <trkpt lat="36.68567" lon="27.37977">
        <ele>26.69</ele>
      </trkpt>
      <trkpt lat="36.68564" lon="27.37973">
        <ele>25.929</ele>
      </trkpt>
      <trkpt lat="36.68562" lon="27.3797">
        <ele>25.017</ele>
      </trkpt>
      <trkpt lat="36.6856" lon="27.37968">
        <ele>24.478</ele>
      </trkpt>
      <trkpt lat="36.68557" lon="27.37965">
        <ele>23.602</ele>
      </trkpt>
      <trkpt lat="36.68555" lon="27.37959">
        <ele>23.184</ele>
      </trkpt>
      <trkpt lat="36.68553" lon="27.37955">
        <ele>22.977</ele>
      </trkpt>
      <trkpt lat="36.68552" lon="27.37952">
        <ele>22.938</ele>
      </trkpt>
      <trkpt lat="36.68551" lon="27.37945">
        <ele>23.177</ele>
      </trkpt>
      <trkpt lat="36.6855" lon="27.3794">
        <ele>23.115</ele>
      </trkpt>
      <trkpt lat="36.68549" lon="27.37936">
        <ele>22.979</ele>
      </trkpt>
      <trkpt lat="36.68548" lon="27.37932">
        <ele>22.836</ele>
      </trkpt>
      <trkpt lat="36.68546" lon="27.37928">
        <ele>22.724</ele>
      </trkpt>
      <trkpt lat="36.68546" lon="27.37921">
        <ele>22.994</ele>
      </trkpt>
      <trkpt lat="36.68546" lon="27.37912">
        <ele>22.802</ele>
      </trkpt>
      <trkpt lat="36.68545" lon="27.37906">
        <ele>22.378</ele>
      </trkpt>
      <trkpt lat="36.68545" lon="27.379">
        <ele>21.953</ele>
      </trkpt>
      <trkpt lat="36.68545" lon="27.37894">
        <ele>21.518</ele>
      </trkpt>
      <trkpt lat="36.68544" lon="27.37888">
        <ele>21.061</ele>
      </trkpt>
      <trkpt lat="36.68544" lon="27.37881">
        <ele>20.398</ele>
      </trkpt>
      <trkpt lat="36.68544" lon="27.37872">
        <ele>19.872</ele>
      </trkpt>
      <trkpt lat="36.68546" lon="27.3787">
        <ele>20.337</ele>
      </trkpt>
      <trkpt lat="36.68548" lon="27.37864">
        <ele>20.75</ele>
      </trkpt>
      <trkpt lat="36.68549" lon="27.37858">
        <ele>20.651</ele>
      </trkpt>
      <trkpt lat="36.6855" lon="27.3785">
        <ele>19.715</ele>
      </trkpt>
      <trkpt lat="36.6855" lon="27.37845">
        <ele>18.745</ele>
      </trkpt>
      <trkpt lat="36.6855" lon="27.37841">
        <ele>18.265</ele>
      </trkpt>
      <trkpt lat="36.68552" lon="27.37836">
        <ele>17.877</ele>
      </trkpt>
      <trkpt lat="36.68553" lon="27.37831">
        <ele>17.571</ele>
      </trkpt>
      <trkpt lat="36.68555" lon="27.37827">
        <ele>17.942</ele>
      </trkpt>
      <trkpt lat="36.68556" lon="27.37822">
        <ele>17.407</ele>
      </trkpt>
      <trkpt lat="36.68558" lon="27.37818">
        <ele>17.622</ele>
      </trkpt>
      <trkpt lat="36.68559" lon="27.37813">
        <ele>17.383</ele>
      </trkpt>
      <trkpt lat="36.6856" lon="27.37809">
        <ele>17.025</ele>
      </trkpt>
      <trkpt lat="36.6856" lon="27.37805">
        <ele>16.65</ele>
      </trkpt>
      <trkpt lat="36.68562" lon="27.37801">
        <ele>16.721</ele>
      </trkpt>
      <trkpt lat="36.68564" lon="27.37795">
        <ele>16.637</ele>
      </trkpt>
      <trkpt lat="36.68564" lon="27.37791">
        <ele>16.292</ele>
      </trkpt>
      <trkpt lat="36.68564" lon="27.3779">
        <ele>16.121</ele>
      </trkpt>
      <trkpt lat="36.68566" lon="27.37785">
        <ele>16.343</ele>
      </trkpt>
      <trkpt lat="36.68567" lon="27.37774">
        <ele>15.543</ele>
      </trkpt>
      <trkpt lat="36.68568" lon="27.3777">
        <ele>15.38</ele>
      </trkpt>
      <trkpt lat="36.68568" lon="27.37767">
        <ele>14.963</ele>
      </trkpt>
      <trkpt lat="36.68568" lon="27.37763">
        <ele>14.402</ele>
      </trkpt>
      <trkpt lat="36.68569" lon="27.37755">
        <ele>14.125</ele>
      </trkpt>
      <trkpt lat="36.68569" lon="27.37753">
        <ele>13.847</ele>
      </trkpt>
      <trkpt lat="36.68568" lon="27.37749">
        <ele>13.334</ele>
      </trkpt>
      <trkpt lat="36.68569" lon="27.37741">
        <ele>13.014</ele>
      </trkpt>
      <trkpt lat="36.68569" lon="27.37737">
        <ele>12.643</ele>
      </trkpt>
      <trkpt lat="36.68568" lon="27.37732">
        <ele>12.188</ele>
      </trkpt>
      <trkpt lat="36.68568" lon="27.37726">
        <ele>11.659</ele>
      </trkpt>
      <trkpt lat="36.68566" lon="27.37721">
        <ele>10.5</ele>
      </trkpt>
      <trkpt lat="36.68565" lon="27.37717">
        <ele>9.357</ele>
      </trkpt>
      <trkpt lat="36.68563" lon="27.37712">
        <ele>8.446</ele>
      </trkpt>
      <trkpt lat="36.68563" lon="27.37707">
        <ele>7.865</ele>
      </trkpt>
      <trkpt lat="36.68563" lon="27.37703">
        <ele>7.403</ele>
      </trkpt>
      <trkpt lat="36.68563" lon="27.37697">
        <ele>6.722</ele>
      </trkpt>
      <trkpt lat="36.68562" lon="27.37692">
        <ele>6.39</ele>
      </trkpt>
      <trkpt lat="36.68562" lon="27.37688">
        <ele>6.275</ele>
      </trkpt>
      <trkpt lat="36.68562" lon="27.37683">
        <ele>6.131</ele>
      </trkpt>
      <trkpt lat="36.68562" lon="27.37678">
        <ele>6.022</ele>
      </trkpt>
      <trkpt lat="36.68561" lon="27.37673">
        <ele>5.628</ele>
      </trkpt>
      <trkpt lat="36.68559" lon="27.37666">
        <ele>5.219</ele>
      </trkpt>
      <trkpt lat="36.68558" lon="27.37662">
        <ele>5.014</ele>
      </trkpt>
      <trkpt lat="36.68557" lon="27.37658">
        <ele>4.827</ele>
      </trkpt>
      <trkpt lat="36.68556" lon="27.37654">
        <ele>4.656</ele>
      </trkpt>
      <trkpt lat="36.68555" lon="27.3765">
        <ele>4.548</ele>
      </trkpt>
      <trkpt lat="36.68554" lon="27.37646">
        <ele>4.545</ele>
      </trkpt>
      <trkpt lat="36.68554" lon="27.37641">
        <ele>4.688</ele>
      </trkpt>
      <trkpt lat="36.68554" lon="27.3764">
        <ele>4.716</ele>
      </trkpt>
      <trkpt lat="36.68553" lon="27.37639">
        <ele>4.571</ele>
      </trkpt>
      <trkpt lat="36.68553" lon="27.37639">
        <ele>4.571</ele>
      </trkpt>
      <trkpt lat="36.68553" lon="27.37639">
        <ele>4.571</ele>
      </trkpt>
      <trkpt lat="36.68553" lon="27.37639">
        <ele>4.571</ele>
      </trkpt>
      <trkpt lat="36.68552" lon="27.37634">
        <ele>4.552</ele>
      </trkpt>
      <trkpt lat="36.68552" lon="27.37631">
        <ele>4.542</ele>
      </trkpt>
      <trkpt lat="36.68552" lon="27.37628">
        <ele>4.531</ele>
      </trkpt>
      <trkpt lat="36.68552" lon="27.37625">
        <ele>4.525</ele>
      </trkpt>
      <trkpt lat="36.68552" lon="27.37622">
        <ele>4.519</ele>
      </trkpt>
      <trkpt lat="36.68552" lon="27.37619">
        <ele>4.514</ele>
      </trkpt>
      <trkpt lat="36.68552" lon="27.37615">
        <ele>4.56</ele>
      </trkpt>
      <trkpt lat="36.68553" lon="27.37613">
        <ele>4.658</ele>
      </trkpt>
      <trkpt lat="36.68554" lon="27.37607">
        <ele>4.482</ele>
      </trkpt>
      <trkpt lat="36.68554" lon="27.37605">
        <ele>4.393</ele>
      </trkpt>
      <trkpt lat="36.68554" lon="27.37602">
        <ele>4.214</ele>
      </trkpt>
      <trkpt lat="36.68555" lon="27.376">
        <ele>4.162</ele>
      </trkpt>
      <trkpt lat="36.68556" lon="27.37598">
        <ele>4.086</ele>
      </trkpt>
      <trkpt lat="36.68556" lon="27.37595">
        <ele>3.84</ele>
      </trkpt>
      <trkpt lat="36.68556" lon="27.37593">
        <ele>3.749</ele>
      </trkpt>
      <trkpt lat="36.68557" lon="27.3759">
        <ele>3.767</ele>
      </trkpt>
      <trkpt lat="36.68557" lon="27.3759">
        <ele>3.828</ele>
      </trkpt>
      <trkpt lat="36.68558" lon="27.37584">
        <ele>3.61</ele>
      </trkpt>
      <trkpt lat="36.68559" lon="27.37582">
        <ele>3.709</ele>
      </trkpt>
      <trkpt lat="36.68562" lon="27.37575">
        <ele>4.146</ele>
      </trkpt>
      <trkpt lat="36.68561" lon="27.37573">
        <ele>3.844</ele>
      </trkpt>
      <trkpt lat="36.68561" lon="27.3757">
        <ele>3.531</ele>
      </trkpt>
      <trkpt lat="36.6856" lon="27.37563">
        <ele>3.022</ele>
      </trkpt>
      <trkpt lat="36.6856" lon="27.37562">
        <ele>3.015</ele>
      </trkpt>
      <trkpt lat="36.68561" lon="27.3756">
        <ele>3.078</ele>
      </trkpt>
      <trkpt lat="36.68562" lon="27.37558">
        <ele>3.091</ele>
      </trkpt>
      <trkpt lat="36.68562" lon="27.37556">
        <ele>2.962</ele>
      </trkpt>
      <trkpt lat="36.68564" lon="27.37551">
        <ele>3.042</ele>
      </trkpt>
      <trkpt lat="36.68565" lon="27.37543">
        <ele>3.091</ele>
      </trkpt>
      <trkpt lat="36.68567" lon="27.37534">
        <ele>3.013</ele>
      </trkpt>
      <trkpt lat="36.68567" lon="27.37531">
        <ele>2.905</ele>
      </trkpt>
      <trkpt lat="36.68568" lon="27.37522">
        <ele>3.116</ele>
      </trkpt>
      <trkpt lat="36.68568" lon="27.37518">
        <ele>3.228</ele>
      </trkpt>
      <trkpt lat="36.68569" lon="27.37512">
        <ele>3.572</ele>
      </trkpt>
      <trkpt lat="36.68571" lon="27.37502">
        <ele>4.022</ele>
      </trkpt>
      <trkpt lat="36.68571" lon="27.37496">
        <ele>3.79</ele>
      </trkpt>
      <trkpt lat="36.68572" lon="27.37493">
        <ele>3.53</ele>
      </trkpt>
      <trkpt lat="36.68575" lon="27.37481">
        <ele>2.826</ele>
      </trkpt>
      <trkpt lat="36.68575" lon="27.37475">
        <ele>2.335</ele>
      </trkpt>
      <trkpt lat="36.68577" lon="27.37466">
        <ele>1.949</ele>
      </trkpt>
      <trkpt lat="36.68578" lon="27.37457">
        <ele>1.531</ele>
      </trkpt>
      <trkpt lat="36.68578" lon="27.37446">
        <ele>0.887</ele>
      </trkpt>
      <trkpt lat="36.6858" lon="27.37436">
        <ele>0.902</ele>
      </trkpt>
      <trkpt lat="36.68581" lon="27.37428">
        <ele>0.965</ele>
      </trkpt>
      <trkpt lat="36.68581" lon="27.37421">
        <ele>0.989</ele>
      </trkpt>
      <trkpt lat="36.68582" lon="27.37417">
        <ele>1</ele>
      </trkpt>
      <trkpt lat="36.68582" lon="27.37412">
        <ele>1</ele>
      </trkpt>
      <trkpt lat="36.68585" lon="27.374">
        <ele>1</ele>
      </trkpt>
      <trkpt lat="36.68587" lon="27.37388">
        <ele>1.039</ele>
      </trkpt>
      <trkpt lat="36.68589" lon="27.37377">
        <ele>1.413</ele>
      </trkpt>
      <trkpt lat="36.6859" lon="27.37374">
        <ele>1.523</ele>
      </trkpt>
      <trkpt lat="36.68593" lon="27.37372">
        <ele>1.606</ele>
      </trkpt>
      <trkpt lat="36.68594" lon="27.3737">
        <ele>1.67</ele>
      </trkpt>
      <trkpt lat="36.68595" lon="27.3737">
        <ele>1.69</ele>
      </trkpt>
      <trkpt lat="36.68611" lon="27.37361">
        <ele>1.989</ele>
      </trkpt>
      <trkpt lat="36.68621" lon="27.37357">
        <ele>2.179</ele>
      </trkpt>
      <trkpt lat="36.68635" lon="27.37345">
        <ele>1.801</ele>
      </trkpt>
      <trkpt lat="36.68639" lon="27.37344">
        <ele>1.802</ele>
      </trkpt>
      <trkpt lat="36.68639" lon="27.37344">
        <ele>1.764</ele>
      </trkpt>
      <trkpt lat="36.68642" lon="27.37326">
        <ele>0.955</ele>
      </trkpt>
      <trkpt lat="36.68642" lon="27.37326">
        <ele>0.955</ele>
      </trkpt>
      <trkpt lat="36.68646" lon="27.37321">
        <ele>0.969</ele>
      </trkpt>
      <trkpt lat="36.68646" lon="27.37322">
        <ele>1.056</ele>
      </trkpt>
      <trkpt lat="36.68646" lon="27.37322">
        <ele>1.039</ele>
      </trkpt>
      <trkpt lat="36.68653" lon="27.37315">
        <ele>0.866</ele>
      </trkpt>
      <trkpt lat="36.68659" lon="27.37312">
        <ele>0.703</ele>
      </trkpt>
      <trkpt lat="36.68667" lon="27.37314">
        <ele>1.199</ele>
      </trkpt>
      <trkpt lat="36.68675" lon="27.37317">
        <ele>2.766</ele>
      </trkpt>
      <trkpt lat="36.6868" lon="27.37317">
        <ele>3.335</ele>
      </trkpt>
      <trkpt lat="36.68688" lon="27.37322">
        <ele>4.986</ele>
      </trkpt>
      <trkpt lat="36.68694" lon="27.37324">
        <ele>5.927</ele>
      </trkpt>
      <trkpt lat="36.68696" lon="27.37325">
        <ele>6.082</ele>
      </trkpt>
      <trkpt lat="36.68697" lon="27.37324">
        <ele>6.075</ele>
      </trkpt>
      <trkpt lat="36.68707" lon="27.37322">
        <ele>6.04</ele>
      </trkpt>
      <trkpt lat="36.68715" lon="27.37326">
        <ele>6.807</ele>
      </trkpt>
      <trkpt lat="36.68716" lon="27.37327">
        <ele>6.926</ele>
      </trkpt>
      <trkpt lat="36.68717" lon="27.37333">
        <ele>7.709</ele>
      </trkpt>
      <trkpt lat="36.6872" lon="27.37332">
        <ele>7.743</ele>
      </trkpt>
      <trkpt lat="36.68722" lon="27.37332">
        <ele>7.801</ele>
      </trkpt>
      <trkpt lat="36.68734" lon="27.37335">
        <ele>9.11</ele>
      </trkpt>
      <trkpt lat="36.68738" lon="27.37335">
        <ele>9.6</ele>
      </trkpt>
      <trkpt lat="36.68756" lon="27.37333">
        <ele>11.073</ele>
      </trkpt>
      <trkpt lat="36.68767" lon="27.37337">
        <ele>13.973</ele>
      </trkpt>
      <trkpt lat="36.68777" lon="27.37336">
        <ele>15.4</ele>
      </trkpt>
      <trkpt lat="36.68778" lon="27.37336">
        <ele>15.509</ele>
      </trkpt>
      <trkpt lat="36.68776" lon="27.37336">
        <ele>15.138</ele>
      </trkpt>
      <trkpt lat="36.68771" lon="27.3734">
        <ele>15.179</ele>
      </trkpt>
      <trkpt lat="36.68772" lon="27.37346">
        <ele>16.724</ele>
      </trkpt>
      <trkpt lat="36.68785" lon="27.37348">
        <ele>19.556</ele>
      </trkpt>
      <trkpt lat="36.68794" lon="27.3735">
        <ele>21.68</ele>
      </trkpt>
      <trkpt lat="36.68795" lon="27.37351">
        <ele>22.216</ele>
      </trkpt>
      <trkpt lat="36.68808" lon="27.37352">
        <ele>24.535</ele>
      </trkpt>
      <trkpt lat="36.68812" lon="27.3735">
        <ele>24.799</ele>
      </trkpt>
      <trkpt lat="36.68823" lon="27.3734">
        <ele>24.565</ele>
      </trkpt>
      <trkpt lat="36.68825" lon="27.37338">
        <ele>24.585</ele>
      </trkpt>
      <trkpt lat="36.68827" lon="27.37343">
        <ele>25.431</ele>
      </trkpt>
      <trkpt lat="36.68831" lon="27.37349">
        <ele>26.925</ele>
      </trkpt>
      <trkpt lat="36.68833" lon="27.37355">
        <ele>28.022</ele>
      </trkpt>
      <trkpt lat="36.6884" lon="27.3736">
        <ele>30.333</ele>
      </trkpt>
      <trkpt lat="36.68847" lon="27.37363">
        <ele>32.3</ele>
      </trkpt>
      <trkpt lat="36.68855" lon="27.37364">
        <ele>33.888</ele>
      </trkpt>
      <trkpt lat="36.6886" lon="27.37365">
        <ele>35.094</ele>
      </trkpt>
      <trkpt lat="36.68869" lon="27.37362">
        <ele>36.902</ele>
      </trkpt>
      <trkpt lat="36.68877" lon="27.37363">
        <ele>38.618</ele>
      </trkpt>
      <trkpt lat="36.6888" lon="27.37364">
        <ele>39.385</ele>
      </trkpt>
      <trkpt lat="36.6888" lon="27.37364">
        <ele>39.378</ele>
      </trkpt>
      <trkpt lat="36.68885" lon="27.37367">
        <ele>40.959</ele>
      </trkpt>
      <trkpt lat="36.68888" lon="27.37372">
        <ele>42.279</ele>
      </trkpt>
      <trkpt lat="36.6889" lon="27.37374">
        <ele>42.941</ele>
      </trkpt>
      <trkpt lat="36.68888" lon="27.37381">
        <ele>43.621</ele>
      </trkpt>
      <trkpt lat="36.68893" lon="27.37394">
        <ele>45.889</ele>
      </trkpt>
      <trkpt lat="36.68899" lon="27.37395">
        <ele>46.891</ele>
      </trkpt>
      <trkpt lat="36.68904" lon="27.37397">
        <ele>47.826</ele>
      </trkpt>
      <trkpt lat="36.68902" lon="27.37398">
        <ele>47.69</ele>
      </trkpt>
      <trkpt lat="36.68906" lon="27.37399">
        <ele>48.428</ele>
      </trkpt>
      <trkpt lat="36.68908" lon="27.37388">
        <ele>46.924</ele>
      </trkpt>
      <trkpt lat="36.68911" lon="27.37385">
        <ele>46.802</ele>
      </trkpt>
      <trkpt lat="36.68919" lon="27.37382">
        <ele>46.381</ele>
      </trkpt>
      <trkpt lat="36.68922" lon="27.37386">
        <ele>46.386</ele>
      </trkpt>
      <trkpt lat="36.68923" lon="27.37387">
        <ele>46.58</ele>
      </trkpt>
      <trkpt lat="36.68921" lon="27.37387">
        <ele>46.785</ele>
      </trkpt>
      <trkpt lat="36.68922" lon="27.37388">
        <ele>46.878</ele>
      </trkpt>
      <trkpt lat="36.6892" lon="27.37397">
        <ele>49.237</ele>
      </trkpt>
      <trkpt lat="36.6892" lon="27.37408">
        <ele>51.615</ele>
      </trkpt>
      <trkpt lat="36.6892" lon="27.37411">
        <ele>52.472</ele>
      </trkpt>
      <trkpt lat="36.68921" lon="27.37413">
        <ele>52.719</ele>
      </trkpt>
      <trkpt lat="36.68922" lon="27.37427">
        <ele>55.523</ele>
      </trkpt>
      <trkpt lat="36.68924" lon="27.37433">
        <ele>56.643</ele>
      </trkpt>
      <trkpt lat="36.68926" lon="27.37446">
        <ele>59.669</ele>
      </trkpt>
      <trkpt lat="36.68926" lon="27.37447">
        <ele>59.778</ele>
      </trkpt>
      <trkpt lat="36.68927" lon="27.37454">
        <ele>61.209</ele>
      </trkpt>
      <trkpt lat="36.6893" lon="27.37464">
        <ele>63.637</ele>
      </trkpt>
      <trkpt lat="36.68932" lon="27.3748">
        <ele>66.809</ele>
      </trkpt>
      <trkpt lat="36.68937" lon="27.37488">
        <ele>69.458</ele>
      </trkpt>
      <trkpt lat="36.68938" lon="27.37489">
        <ele>69.806</ele>
      </trkpt>
      <trkpt lat="36.68943" lon="27.37503">
        <ele>73.006</ele>
      </trkpt>
      <trkpt lat="36.68947" lon="27.37508">
        <ele>73.819</ele>
      </trkpt>
      <trkpt lat="36.68947" lon="27.37498">
        <ele>72.64</ele>
      </trkpt>
      <trkpt lat="36.68951" lon="27.37496">
        <ele>72.103</ele>
      </trkpt>
      <trkpt lat="36.68954" lon="27.37503">
        <ele>73.077</ele>
      </trkpt>
      <trkpt lat="36.68956" lon="27.37506">
        <ele>73.341</ele>
      </trkpt>
      <trkpt lat="36.68962" lon="27.37505">
        <ele>73.184</ele>
      </trkpt>
      <trkpt lat="36.68963" lon="27.37512">
        <ele>74.147</ele>
      </trkpt>
      <trkpt lat="36.6897" lon="27.37515">
        <ele>74.717</ele>
      </trkpt>
      <trkpt lat="36.68974" lon="27.37515">
        <ele>73.945</ele>
      </trkpt>
      <trkpt lat="36.68974" lon="27.37516">
        <ele>74.206</ele>
      </trkpt>
      <trkpt lat="36.68974" lon="27.37516">
        <ele>74.23</ele>
      </trkpt>
      <trkpt lat="36.68973" lon="27.37516">
        <ele>74.279</ele>
      </trkpt>
      <trkpt lat="36.68976" lon="27.3752">
        <ele>74.086</ele>
      </trkpt>
      <trkpt lat="36.68977" lon="27.37522">
        <ele>73.988</ele>
      </trkpt>
      <trkpt lat="36.68979" lon="27.37526">
        <ele>74.006</ele>
      </trkpt>
      <trkpt lat="36.68983" lon="27.37533">
        <ele>74.24</ele>
      </trkpt>
      <trkpt lat="36.68984" lon="27.37544">
        <ele>76.822</ele>
      </trkpt>
      <trkpt lat="36.68989" lon="27.37549">
        <ele>76.135</ele>
      </trkpt>
      <trkpt lat="36.6899" lon="27.37552">
        <ele>76.48</ele>
      </trkpt>
      <trkpt lat="36.68989" lon="27.37556">
        <ele>78.142</ele>
      </trkpt>
      <trkpt lat="36.68989" lon="27.37569">
        <ele>81.4</ele>
      </trkpt>
      <trkpt lat="36.68992" lon="27.37572">
        <ele>81.255</ele>
      </trkpt>
      <trkpt lat="36.68994" lon="27.37578">
        <ele>82.117</ele>
      </trkpt>
      <trkpt lat="36.68997" lon="27.37583">
        <ele>82.296</ele>
      </trkpt>
      <trkpt lat="36.68999" lon="27.37587">
        <ele>82.54</ele>
      </trkpt>
      <trkpt lat="36.69003" lon="27.37596">
        <ele>82.579</ele>
      </trkpt>
      <trkpt lat="36.6901" lon="27.37608">
        <ele>82.745</ele>
      </trkpt>
      <trkpt lat="36.69015" lon="27.37618">
        <ele>85.128</ele>
      </trkpt>
      <trkpt lat="36.69016" lon="27.3762">
        <ele>85.972</ele>
      </trkpt>
      <trkpt lat="36.69017" lon="27.37627">
        <ele>89.865</ele>
      </trkpt>
      <trkpt lat="36.69018" lon="27.37638">
        <ele>95.975</ele>
      </trkpt>
      <trkpt lat="36.69018" lon="27.37645">
        <ele>98.027</ele>
      </trkpt>
      <trkpt lat="36.69023" lon="27.37658">
        <ele>99.527</ele>
      </trkpt>
      <trkpt lat="36.69029" lon="27.37664">
        <ele>97.902</ele>
      </trkpt>
      <trkpt lat="36.69034" lon="27.37672">
        <ele>93.398</ele>
      </trkpt>
      <trkpt lat="36.69041" lon="27.37683">
        <ele>89.553</ele>
      </trkpt>
      <trkpt lat="36.69042" lon="27.37689">
        <ele>89.231</ele>
      </trkpt>
      <trkpt lat="36.69046" lon="27.37694">
        <ele>86.943</ele>
      </trkpt>
      <trkpt lat="36.69049" lon="27.37699">
        <ele>85.556</ele>
      </trkpt>
      <trkpt lat="36.69053" lon="27.3771">
        <ele>85.234</ele>
      </trkpt>
      <trkpt lat="36.69054" lon="27.37712">
        <ele>85.282</ele>
      </trkpt>
      <trkpt lat="36.69059" lon="27.37724">
        <ele>85.162</ele>
      </trkpt>
      <trkpt lat="36.69062" lon="27.37733">
        <ele>85.502</ele>
      </trkpt>
      <trkpt lat="36.69066" lon="27.3774">
        <ele>84.254</ele>
      </trkpt>
      <trkpt lat="36.69069" lon="27.37748">
        <ele>84.165</ele>
      </trkpt>
      <trkpt lat="36.69075" lon="27.37759">
        <ele>82.643</ele>
      </trkpt>
      <trkpt lat="36.69077" lon="27.37764">
        <ele>81.54</ele>
      </trkpt>
      <trkpt lat="36.6908" lon="27.37769">
        <ele>79.827</ele>
      </trkpt>
      <trkpt lat="36.69081" lon="27.37772">
        <ele>79.448</ele>
      </trkpt>
      <trkpt lat="36.69085" lon="27.37782">
        <ele>77.525</ele>
      </trkpt>
      <trkpt lat="36.69088" lon="27.37795">
        <ele>79.957</ele>
      </trkpt>
      <trkpt lat="36.6909" lon="27.37804">
        <ele>81.691</ele>
      </trkpt>
      <trkpt lat="36.69094" lon="27.37816">
        <ele>83.094</ele>
      </trkpt>
      <trkpt lat="36.69099" lon="27.3783">
        <ele>84.759</ele>
      </trkpt>
      <trkpt lat="36.69101" lon="27.37837">
        <ele>85.238</ele>
      </trkpt>
      <trkpt lat="36.69109" lon="27.37851">
        <ele>83.232</ele>
      </trkpt>
      <trkpt lat="36.69115" lon="27.37866">
        <ele>83.794</ele>
      </trkpt>
      <trkpt lat="36.69118" lon="27.37875">
        <ele>84.952</ele>
      </trkpt>
      <trkpt lat="36.69124" lon="27.37892">
        <ele>86.792</ele>
      </trkpt>
      <trkpt lat="36.69128" lon="27.37905">
        <ele>87.868</ele>
      </trkpt>
      <trkpt lat="36.6913" lon="27.37913">
        <ele>88.848</ele>
      </trkpt>
      <trkpt lat="36.69133" lon="27.37925">
        <ele>89.239</ele>
      </trkpt>
      <trkpt lat="36.69138" lon="27.37935">
        <ele>88.106</ele>
      </trkpt>
      <trkpt lat="36.69144" lon="27.37945">
        <ele>86.366</ele>
      </trkpt>
      <trkpt lat="36.69149" lon="27.37959">
        <ele>85.529</ele>
      </trkpt>
      <trkpt lat="36.69152" lon="27.37972">
        <ele>85.158</ele>
      </trkpt>
      <trkpt lat="36.69156" lon="27.37988">
        <ele>85.595</ele>
      </trkpt>
      <trkpt lat="36.69157" lon="27.37989">
        <ele>85.565</ele>
      </trkpt>
      <trkpt lat="36.69157" lon="27.37994">
        <ele>85.883</ele>
      </trkpt>
      <trkpt lat="36.69159" lon="27.38005">
        <ele>86.922</ele>
      </trkpt>
      <trkpt lat="36.69162" lon="27.38013">
        <ele>87.57</ele>
      </trkpt>
      <trkpt lat="36.69164" lon="27.38021">
        <ele>88.418</ele>
      </trkpt>
      <trkpt lat="36.69164" lon="27.38025">
        <ele>89.096</ele>
      </trkpt>
      <trkpt lat="36.6917" lon="27.38037">
        <ele>92.534</ele>
      </trkpt>
      <trkpt lat="36.69172" lon="27.38048">
        <ele>96.072</ele>
      </trkpt>
      <trkpt lat="36.69172" lon="27.38057">
        <ele>98.479</ele>
      </trkpt>
      <trkpt lat="36.69171" lon="27.3807">
        <ele>101.047</ele>
      </trkpt>
      <trkpt lat="36.69172" lon="27.38081">
        <ele>103.391</ele>
      </trkpt>
      <trkpt lat="36.69176" lon="27.38089">
        <ele>105.452</ele>
      </trkpt>
      <trkpt lat="36.6918" lon="27.38103">
        <ele>107.886</ele>
      </trkpt>
      <trkpt lat="36.6918" lon="27.3811">
        <ele>108.695</ele>
      </trkpt>
      <trkpt lat="36.69183" lon="27.38122">
        <ele>110.135</ele>
      </trkpt>
      <trkpt lat="36.69185" lon="27.38133">
        <ele>111.387</ele>
      </trkpt>
      <trkpt lat="36.69185" lon="27.38138">
        <ele>111.965</ele>
      </trkpt>
      <trkpt lat="36.69185" lon="27.38154">
        <ele>112.529</ele>
      </trkpt>
      <trkpt lat="36.69188" lon="27.3817">
        <ele>114.22</ele>
      </trkpt>
      <trkpt lat="36.69193" lon="27.38182">
        <ele>115.743</ele>
      </trkpt>
      <trkpt lat="36.69196" lon="27.38197">
        <ele>116.375</ele>
      </trkpt>
      <trkpt lat="36.69199" lon="27.38203">
        <ele>116.716</ele>
      </trkpt>
      <trkpt lat="36.69201" lon="27.38209">
        <ele>116.898</ele>
      </trkpt>
      <trkpt lat="36.69203" lon="27.38213">
        <ele>117.018</ele>
      </trkpt>
      <trkpt lat="36.69204" lon="27.38218">
        <ele>116.994</ele>
      </trkpt>
      <trkpt lat="36.69209" lon="27.38233">
        <ele>116.629</ele>
      </trkpt>
      <trkpt lat="36.69214" lon="27.38247">
        <ele>116.154</ele>
      </trkpt>
      <trkpt lat="36.69217" lon="27.38261">
        <ele>115.288</ele>
      </trkpt>
      <trkpt lat="36.69218" lon="27.38264">
        <ele>115.099</ele>
      </trkpt>
      <trkpt lat="36.6922" lon="27.38274">
        <ele>114.354</ele>
      </trkpt>
      <trkpt lat="36.6922" lon="27.38273">
        <ele>114.367</ele>
      </trkpt>
      <trkpt lat="36.69224" lon="27.38284">
        <ele>114.3</ele>
      </trkpt>
      <trkpt lat="36.69231" lon="27.3831">
        <ele>115.385</ele>
      </trkpt>
      <trkpt lat="36.69229" lon="27.38314">
        <ele>115.122</ele>
      </trkpt>
      <trkpt lat="36.69231" lon="27.38315">
        <ele>115.313</ele>
      </trkpt>
      <trkpt lat="36.69234" lon="27.38325">
        <ele>115.587</ele>
      </trkpt>
      <trkpt lat="36.69234" lon="27.38327">
        <ele>115.436</ele>
      </trkpt>
      <trkpt lat="36.69234" lon="27.38332">
        <ele>115.338</ele>
      </trkpt>
      <trkpt lat="36.6924" lon="27.38343">
        <ele>113.903</ele>
      </trkpt>
      <trkpt lat="36.69249" lon="27.38344">
        <ele>113.79</ele>
      </trkpt>
      <trkpt lat="36.69251" lon="27.38345">
        <ele>113.598</ele>
      </trkpt>
      <trkpt lat="36.69259" lon="27.38348">
        <ele>112.452</ele>
      </trkpt>
      <trkpt lat="36.69265" lon="27.3835">
        <ele>111.761</ele>
      </trkpt>
      <trkpt lat="36.69273" lon="27.38355">
        <ele>109.905</ele>
      </trkpt>
      <trkpt lat="36.69276" lon="27.38357">
        <ele>109.217</ele>
      </trkpt>
      <trkpt lat="36.69279" lon="27.38358">
        <ele>108.743</ele>
      </trkpt>
      <trkpt lat="36.69288" lon="27.38361">
        <ele>107.277</ele>
      </trkpt>
      <trkpt lat="36.69288" lon="27.38362">
        <ele>107.039</ele>
      </trkpt>
      <trkpt lat="36.69289" lon="27.38368">
        <ele>104.964</ele>
      </trkpt>
      <trkpt lat="36.69296" lon="27.38375">
        <ele>102.497</ele>
      </trkpt>
      <trkpt lat="36.69297" lon="27.38376">
        <ele>102.031</ele>
      </trkpt>
      <trkpt lat="36.69305" lon="27.38388">
        <ele>98.378</ele>
      </trkpt>
      <trkpt lat="36.69309" lon="27.38391">
        <ele>97.606</ele>
      </trkpt>
      <trkpt lat="36.69312" lon="27.38393">
        <ele>97.016</ele>
      </trkpt>
      <trkpt lat="36.69316" lon="27.38398">
        <ele>95.895</ele>
      </trkpt>
      <trkpt lat="36.6932" lon="27.38403">
        <ele>94.711</ele>
      </trkpt>
      <trkpt lat="36.69324" lon="27.38409">
        <ele>93.191</ele>
      </trkpt>
      <trkpt lat="36.69327" lon="27.38419">
        <ele>90.835</ele>
      </trkpt>
      <trkpt lat="36.69334" lon="27.38423">
        <ele>90.042</ele>
      </trkpt>
      <trkpt lat="36.6934" lon="27.3843">
        <ele>89.171</ele>
      </trkpt>
      <trkpt lat="36.6935" lon="27.38435">
        <ele>88.72</ele>
      </trkpt>
      <trkpt lat="36.69359" lon="27.38442">
        <ele>88.237</ele>
      </trkpt>
      <trkpt lat="36.69364" lon="27.38445">
        <ele>87.893</ele>
      </trkpt>
      <trkpt lat="36.69369" lon="27.38453">
        <ele>86.894</ele>
      </trkpt>
      <trkpt lat="36.69369" lon="27.38453">
        <ele>86.922</ele>
      </trkpt>
      <trkpt lat="36.69366" lon="27.38457">
        <ele>86.325</ele>
      </trkpt>
      <trkpt lat="36.69371" lon="27.38467">
        <ele>85.101</ele>
      </trkpt>
      <trkpt lat="36.6938" lon="27.38481">
        <ele>83.393</ele>
      </trkpt>
      <trkpt lat="36.69386" lon="27.38478">
        <ele>84.094</ele>
      </trkpt>
      <trkpt lat="36.69392" lon="27.38467">
        <ele>85.75</ele>
      </trkpt>
      <trkpt lat="36.69393" lon="27.38468">
        <ele>85.677</ele>
      </trkpt>
      <trkpt lat="36.69407" lon="27.38477">
        <ele>84.682</ele>
      </trkpt>
      <trkpt lat="36.69414" lon="27.38487">
        <ele>82.839</ele>
      </trkpt>
      <trkpt lat="36.69424" lon="27.38496">
        <ele>80.892</ele>
      </trkpt>
      <trkpt lat="36.69428" lon="27.38499">
        <ele>80.165</ele>
      </trkpt>
      <trkpt lat="36.69438" lon="27.38509">
        <ele>79.031</ele>
      </trkpt>
      <trkpt lat="36.69443" lon="27.38518">
        <ele>78.012</ele>
      </trkpt>
      <trkpt lat="36.69452" lon="27.38524">
        <ele>77.904</ele>
      </trkpt>
      <trkpt lat="36.69453" lon="27.38523">
        <ele>77.995</ele>
      </trkpt>
      <trkpt lat="36.69457" lon="27.38519">
        <ele>78.544</ele>
      </trkpt>
      <trkpt lat="36.6946" lon="27.38526">
        <ele>78.211</ele>
      </trkpt>
      <trkpt lat="36.69478" lon="27.3853">
        <ele>79.054</ele>
      </trkpt>
      <trkpt lat="36.69496" lon="27.38537">
        <ele>79.203</ele>
      </trkpt>
      <trkpt lat="36.69511" lon="27.38543">
        <ele>78.937</ele>
      </trkpt>
      <trkpt lat="36.69526" lon="27.3855">
        <ele>78.968</ele>
      </trkpt>
      <trkpt lat="36.69533" lon="27.38549">
        <ele>78.816</ele>
      </trkpt>
      <trkpt lat="36.69536" lon="27.38551">
        <ele>78.72</ele>
      </trkpt>
      <trkpt lat="36.69554" lon="27.38556">
        <ele>78.062</ele>
      </trkpt>
      <trkpt lat="36.69571" lon="27.3856">
        <ele>76.302</ele>
      </trkpt>
      <trkpt lat="36.69588" lon="27.38566">
        <ele>74.874</ele>
      </trkpt>
      <trkpt lat="36.69603" lon="27.38572">
        <ele>74.172</ele>
      </trkpt>
      <trkpt lat="36.69619" lon="27.38578">
        <ele>74.111</ele>
      </trkpt>
      <trkpt lat="36.69624" lon="27.38585">
        <ele>74.416</ele>
      </trkpt>
      <trkpt lat="36.69631" lon="27.38602">
        <ele>75.111</ele>
      </trkpt>
      <trkpt lat="36.69632" lon="27.38614">
        <ele>75.391</ele>
      </trkpt>
      <trkpt lat="36.69634" lon="27.38617">
        <ele>75.632</ele>
      </trkpt>
      <trkpt lat="36.69636" lon="27.38634">
        <ele>76.528</ele>
      </trkpt>
      <trkpt lat="36.69636" lon="27.38652">
        <ele>76.349</ele>
      </trkpt>
      <trkpt lat="36.69637" lon="27.38659">
        <ele>76.211</ele>
      </trkpt>
      <trkpt lat="36.69637" lon="27.38662">
        <ele>76.149</ele>
      </trkpt>
      <trkpt lat="36.69638" lon="27.38675">
        <ele>75.696</ele>
      </trkpt>
      <trkpt lat="36.69641" lon="27.38679">
        <ele>75.857</ele>
      </trkpt>
      <trkpt lat="36.6964" lon="27.3868">
        <ele>75.662</ele>
      </trkpt>
      <trkpt lat="36.69637" lon="27.38685">
        <ele>75.401</ele>
      </trkpt>
      <trkpt lat="36.69636" lon="27.3869">
        <ele>75.239</ele>
      </trkpt>
      <trkpt lat="36.69633" lon="27.38699">
        <ele>75.211</ele>
      </trkpt>
      <trkpt lat="36.69628" lon="27.38708">
        <ele>75.4</ele>
      </trkpt>
      <trkpt lat="36.6962" lon="27.38719">
        <ele>75.672</ele>
      </trkpt>
      <trkpt lat="36.69619" lon="27.38734">
        <ele>75.951</ele>
      </trkpt>
      <trkpt lat="36.69617" lon="27.38751">
        <ele>76.254</ele>
      </trkpt>
      <trkpt lat="36.69614" lon="27.38767">
        <ele>76.531</ele>
      </trkpt>
      <trkpt lat="36.69612" lon="27.38786">
        <ele>76.751</ele>
      </trkpt>
      <trkpt lat="36.69612" lon="27.38794">
        <ele>77.416</ele>
      </trkpt>
      <trkpt lat="36.6961" lon="27.38802">
        <ele>77.662</ele>
      </trkpt>
      <trkpt lat="36.6961" lon="27.38803">
        <ele>77.724</ele>
      </trkpt>
      <trkpt lat="36.6961" lon="27.38803">
        <ele>77.702</ele>
      </trkpt>
      <trkpt lat="36.69611" lon="27.38809">
        <ele>78.376</ele>
      </trkpt>
      <trkpt lat="36.69609" lon="27.38826">
        <ele>80.596</ele>
      </trkpt>
      <trkpt lat="36.69609" lon="27.38836">
        <ele>81.976</ele>
      </trkpt>
      <trkpt lat="36.69615" lon="27.38846">
        <ele>83.983</ele>
      </trkpt>
      <trkpt lat="36.69613" lon="27.38852">
        <ele>84.354</ele>
      </trkpt>
      <trkpt lat="36.69612" lon="27.38856">
        <ele>84.649</ele>
      </trkpt>
      <trkpt lat="36.69613" lon="27.38862">
        <ele>85.356</ele>
      </trkpt>
      <trkpt lat="36.69612" lon="27.38864">
        <ele>85.429</ele>
      </trkpt>
      <trkpt lat="36.69611" lon="27.38882">
        <ele>86.389</ele>
      </trkpt>
      <trkpt lat="36.69608" lon="27.38895">
        <ele>86.415</ele>
      </trkpt>
      <trkpt lat="36.69606" lon="27.389">
        <ele>86.002</ele>
      </trkpt>
      <trkpt lat="36.69606" lon="27.389">
        <ele>86.027</ele>
      </trkpt>
      <trkpt lat="36.69605" lon="27.38905">
        <ele>85.877</ele>
      </trkpt>
      <trkpt lat="36.69602" lon="27.38923">
        <ele>85.449</ele>
      </trkpt>
      <trkpt lat="36.69602" lon="27.38934">
        <ele>85.728</ele>
      </trkpt>
      <trkpt lat="36.69599" lon="27.38953">
        <ele>86.429</ele>
      </trkpt>
      <trkpt lat="36.696" lon="27.38959">
        <ele>87.285</ele>
      </trkpt>
      <trkpt lat="36.69601" lon="27.38969">
        <ele>88.59</ele>
      </trkpt>
      <trkpt lat="36.69606" lon="27.38972">
        <ele>89.383</ele>
      </trkpt>
      <trkpt lat="36.69605" lon="27.38982">
        <ele>90.714</ele>
      </trkpt>
      <trkpt lat="36.69606" lon="27.38987">
        <ele>91.491</ele>
      </trkpt>
      <trkpt lat="36.69606" lon="27.38996">
        <ele>92.884</ele>
      </trkpt>
      <trkpt lat="36.69607" lon="27.38998">
        <ele>93.28</ele>
      </trkpt>
      <trkpt lat="36.69605" lon="27.39004">
        <ele>93.811</ele>
      </trkpt>
      <trkpt lat="36.69605" lon="27.39005">
        <ele>93.941</ele>
      </trkpt>
      <trkpt lat="36.69605" lon="27.39014">
        <ele>94.989</ele>
      </trkpt>
      <trkpt lat="36.69605" lon="27.39014">
        <ele>94.916</ele>
      </trkpt>
      <trkpt lat="36.69603" lon="27.39013">
        <ele>94.575</ele>
      </trkpt>
      <trkpt lat="36.69603" lon="27.39015">
        <ele>94.938</ele>
      </trkpt>
      <trkpt lat="36.69603" lon="27.39015">
        <ele>94.902</ele>
      </trkpt>
      <trkpt lat="36.69603" lon="27.39023">
        <ele>95.758</ele>
      </trkpt>
      <trkpt lat="36.69599" lon="27.39038">
        <ele>97.368</ele>
      </trkpt>
      <trkpt lat="36.69598" lon="27.39043">
        <ele>97.945</ele>
      </trkpt>
      <trkpt lat="36.69598" lon="27.39051">
        <ele>98.941</ele>
      </trkpt>
      <trkpt lat="36.69598" lon="27.39056">
        <ele>99.562</ele>
      </trkpt>
      <trkpt lat="36.69597" lon="27.39056">
        <ele>99.53</ele>
      </trkpt>
      <trkpt lat="36.69586" lon="27.39064">
        <ele>98.909</ele>
      </trkpt>
      <trkpt lat="36.69587" lon="27.39059">
        <ele>98.603</ele>
      </trkpt>
      <trkpt lat="36.69585" lon="27.39063">
        <ele>98.664</ele>
      </trkpt>
      <trkpt lat="36.69581" lon="27.39063">
        <ele>98.621</ele>
      </trkpt>
      <trkpt lat="36.69578" lon="27.39069">
        <ele>99.043</ele>
      </trkpt>
      <trkpt lat="36.69575" lon="27.39072">
        <ele>99.278</ele>
      </trkpt>
      <trkpt lat="36.69571" lon="27.39086">
        <ele>100.214</ele>
      </trkpt>
      <trkpt lat="36.69572" lon="27.39085">
        <ele>100.121</ele>
      </trkpt>
      <trkpt lat="36.69577" lon="27.39078">
        <ele>99.653</ele>
      </trkpt>
      <trkpt lat="36.69581" lon="27.3908">
        <ele>99.751</ele>
      </trkpt>
      <trkpt lat="36.69586" lon="27.39086">
        <ele>100.597</ele>
      </trkpt>
      <trkpt lat="36.6959" lon="27.3909">
        <ele>101.322</ele>
      </trkpt>
      <trkpt lat="36.69596" lon="27.39098">
        <ele>102.64</ele>
      </trkpt>
      <trkpt lat="36.69599" lon="27.3911">
        <ele>103.631</ele>
      </trkpt>
      <trkpt lat="36.69597" lon="27.39123">
        <ele>103.484</ele>
      </trkpt>
      <trkpt lat="36.69597" lon="27.39138">
        <ele>103.524</ele>
      </trkpt>
      <trkpt lat="36.69599" lon="27.39141">
        <ele>103.642</ele>
      </trkpt>
      <trkpt lat="36.69603" lon="27.39152">
        <ele>104.18</ele>
      </trkpt>
      <trkpt lat="36.69609" lon="27.39166">
        <ele>104.215</ele>
      </trkpt>
      <trkpt lat="36.69612" lon="27.39168">
        <ele>103.869</ele>
      </trkpt>
      <trkpt lat="36.69617" lon="27.39174">
        <ele>103.201</ele>
      </trkpt>
      <trkpt lat="36.69623" lon="27.39182">
        <ele>102.15</ele>
      </trkpt>
      <trkpt lat="36.69628" lon="27.3919">
        <ele>100.987</ele>
      </trkpt>
      <trkpt lat="36.69629" lon="27.39197">
        <ele>100.175</ele>
      </trkpt>
      <trkpt lat="36.69638" lon="27.39209">
        <ele>97.24</ele>
      </trkpt>
      <trkpt lat="36.69642" lon="27.39217">
        <ele>94.918</ele>
      </trkpt>
      <trkpt lat="36.69646" lon="27.39217">
        <ele>94.028</ele>
      </trkpt>
      <trkpt lat="36.69649" lon="27.39214">
        <ele>93.923</ele>
      </trkpt>
      <trkpt lat="36.69655" lon="27.39214">
        <ele>92.539</ele>
      </trkpt>
      <trkpt lat="36.69658" lon="27.3922">
        <ele>90.798</ele>
      </trkpt>
      <trkpt lat="36.69658" lon="27.39221">
        <ele>90.439</ele>
      </trkpt>
      <trkpt lat="36.6966" lon="27.39226">
        <ele>89.393</ele>
      </trkpt>
      <trkpt lat="36.69666" lon="27.39224">
        <ele>87.995</ele>
      </trkpt>
      <trkpt lat="36.69675" lon="27.39222">
        <ele>86.849</ele>
      </trkpt>
      <trkpt lat="36.69676" lon="27.39222">
        <ele>86.835</ele>
      </trkpt>
      <trkpt lat="36.69676" lon="27.39235">
        <ele>84.946</ele>
      </trkpt>
      <trkpt lat="36.69676" lon="27.39238">
        <ele>84.52</ele>
      </trkpt>
      <trkpt lat="36.69678" lon="27.39244">
        <ele>83.4</ele>
      </trkpt>
      <trkpt lat="36.69681" lon="27.39248">
        <ele>82.228</ele>
      </trkpt>
      <trkpt lat="36.69684" lon="27.39251">
        <ele>81.141</ele>
      </trkpt>
      <trkpt lat="36.69686" lon="27.39253">
        <ele>80.827</ele>
      </trkpt>
      <trkpt lat="36.69693" lon="27.39265">
        <ele>78.755</ele>
      </trkpt>
      <trkpt lat="36.69698" lon="27.39284">
        <ele>77.062</ele>
      </trkpt>
      <trkpt lat="36.69698" lon="27.3929">
        <ele>76.731</ele>
      </trkpt>
      <trkpt lat="36.69698" lon="27.39301">
        <ele>76.355</ele>
      </trkpt>
      <trkpt lat="36.697" lon="27.39308">
        <ele>75.458</ele>
      </trkpt>
      <trkpt lat="36.69703" lon="27.39308">
        <ele>74.631</ele>
      </trkpt>
      <trkpt lat="36.69709" lon="27.39317">
        <ele>72.574</ele>
      </trkpt>
      <trkpt lat="36.6971" lon="27.39318">
        <ele>72.485</ele>
      </trkpt>
      <trkpt lat="36.69708" lon="27.39325">
        <ele>72.587</ele>
      </trkpt>
      <trkpt lat="36.6971" lon="27.39332">
        <ele>71.588</ele>
      </trkpt>
      <trkpt lat="36.69712" lon="27.39336">
        <ele>70.901</ele>
      </trkpt>
      <trkpt lat="36.69712" lon="27.39337">
        <ele>70.949</ele>
      </trkpt>
      <trkpt lat="36.69712" lon="27.3935">
        <ele>70.749</ele>
      </trkpt>
      <trkpt lat="36.69717" lon="27.39357">
        <ele>69.041</ele>
      </trkpt>
      <trkpt lat="36.69717" lon="27.39364">
        <ele>68.505</ele>
      </trkpt>
      <trkpt lat="36.69719" lon="27.39376">
        <ele>66.56</ele>
      </trkpt>
      <trkpt lat="36.69725" lon="27.39389">
        <ele>63.319</ele>
      </trkpt>
      <trkpt lat="36.69725" lon="27.3939">
        <ele>63.04</ele>
      </trkpt>
      <trkpt lat="36.69726" lon="27.39395">
        <ele>62.362</ele>
      </trkpt>
      <trkpt lat="36.69731" lon="27.39408">
        <ele>59.523</ele>
      </trkpt>
      <trkpt lat="36.69733" lon="27.3941">
        <ele>58.895</ele>
      </trkpt>
      <trkpt lat="36.6974" lon="27.39425">
        <ele>55.047</ele>
      </trkpt>
      <trkpt lat="36.69746" lon="27.39437">
        <ele>52.486</ele>
      </trkpt>
      <trkpt lat="36.69757" lon="27.39448">
        <ele>49.715</ele>
      </trkpt>
      <trkpt lat="36.69766" lon="27.39461">
        <ele>48.18</ele>
      </trkpt>
      <trkpt lat="36.69767" lon="27.39464">
        <ele>48.077</ele>
      </trkpt>
      <trkpt lat="36.69777" lon="27.39478">
        <ele>46.595</ele>
      </trkpt>
      <trkpt lat="36.69781" lon="27.39483">
        <ele>46.291</ele>
      </trkpt>
      <trkpt lat="36.6979" lon="27.39492">
        <ele>45.402</ele>
      </trkpt>
      <trkpt lat="36.69799" lon="27.39506">
        <ele>44.617</ele>
      </trkpt>
      <trkpt lat="36.69809" lon="27.39509">
        <ele>43.113</ele>
      </trkpt>
      <trkpt lat="36.69807" lon="27.3951">
        <ele>43.512</ele>
      </trkpt>
      <trkpt lat="36.69819" lon="27.39519">
        <ele>41.701</ele>
      </trkpt>
      <trkpt lat="36.69829" lon="27.39532">
        <ele>40.599</ele>
      </trkpt>
      <trkpt lat="36.69839" lon="27.3954">
        <ele>40.046</ele>
      </trkpt>
      <trkpt lat="36.69843" lon="27.39551">
        <ele>40.635</ele>
      </trkpt>
      <trkpt lat="36.69851" lon="27.39567">
        <ele>39.743</ele>
      </trkpt>
      <trkpt lat="36.69859" lon="27.3958">
        <ele>38.42</ele>
      </trkpt>
      <trkpt lat="36.6986" lon="27.3959">
        <ele>37.978</ele>
      </trkpt>
      <trkpt lat="36.69862" lon="27.39592">
        <ele>37.569</ele>
      </trkpt>
      <trkpt lat="36.69865" lon="27.39595">
        <ele>36.468</ele>
      </trkpt>
      <trkpt lat="36.69867" lon="27.39601">
        <ele>35.756</ele>
      </trkpt>
      <trkpt lat="36.69875" lon="27.39618">
        <ele>33.697</ele>
      </trkpt>
      <trkpt lat="36.69881" lon="27.39627">
        <ele>32.442</ele>
      </trkpt>
      <trkpt lat="36.69879" lon="27.39623">
        <ele>32.748</ele>
      </trkpt>
      <trkpt lat="36.69883" lon="27.39628">
        <ele>31.939</ele>
      </trkpt>
      <trkpt lat="36.6989" lon="27.39642">
        <ele>31.023</ele>
      </trkpt>
      <trkpt lat="36.6989" lon="27.39646">
        <ele>31.041</ele>
      </trkpt>
      <trkpt lat="36.69897" lon="27.39657">
        <ele>30.306</ele>
      </trkpt>
      <trkpt lat="36.69903" lon="27.3967">
        <ele>29.978</ele>
      </trkpt>
      <trkpt lat="36.6991" lon="27.39683">
        <ele>30.124</ele>
      </trkpt>
      <trkpt lat="36.69918" lon="27.39698">
        <ele>30.071</ele>
      </trkpt>
      <trkpt lat="36.69923" lon="27.39708">
        <ele>29.203</ele>
      </trkpt>
      <trkpt lat="36.69929" lon="27.3972">
        <ele>28.438</ele>
      </trkpt>
      <trkpt lat="36.69937" lon="27.39735">
        <ele>27.694</ele>
      </trkpt>
      <trkpt lat="36.69941" lon="27.39747">
        <ele>27.866</ele>
      </trkpt>
      <trkpt lat="36.69949" lon="27.39758">
        <ele>26.128</ele>
      </trkpt>
      <trkpt lat="36.6996" lon="27.39772">
        <ele>23.422</ele>
      </trkpt>
      <trkpt lat="36.69965" lon="27.39784">
        <ele>22.52</ele>
      </trkpt>
      <trkpt lat="36.69971" lon="27.39798">
        <ele>21.635</ele>
      </trkpt>
      <trkpt lat="36.69973" lon="27.398">
        <ele>21.204</ele>
      </trkpt>
      <trkpt lat="36.69978" lon="27.39812">
        <ele>20.296</ele>
      </trkpt>
      <trkpt lat="36.69982" lon="27.39831">
        <ele>21.573</ele>
      </trkpt>
      <trkpt lat="36.69989" lon="27.39846">
        <ele>21.425</ele>
      </trkpt>
      <trkpt lat="36.69997" lon="27.3986">
        <ele>20.212</ele>
      </trkpt>
      <trkpt lat="36.69998" lon="27.39861">
        <ele>19.835</ele>
      </trkpt>
      <trkpt lat="36.70008" lon="27.39873">
        <ele>19.522</ele>
      </trkpt>
      <trkpt lat="36.70017" lon="27.39888">
        <ele>20.05</ele>
      </trkpt>
      <trkpt lat="36.70025" lon="27.39899">
        <ele>19.772</ele>
      </trkpt>
      <trkpt lat="36.70038" lon="27.39908">
        <ele>20.692</ele>
      </trkpt>
      <trkpt lat="36.70051" lon="27.39916">
        <ele>20.687</ele>
      </trkpt>
      <trkpt lat="36.70061" lon="27.39923">
        <ele>20.035</ele>
      </trkpt>
      <trkpt lat="36.70061" lon="27.39925">
        <ele>20.317</ele>
      </trkpt>
      <trkpt lat="36.70071" lon="27.39928">
        <ele>17.793</ele>
      </trkpt>
      <trkpt lat="36.70076" lon="27.39931">
        <ele>16.855</ele>
      </trkpt>
      <trkpt lat="36.70079" lon="27.39932">
        <ele>16.032</ele>
      </trkpt>
      <trkpt lat="36.7009" lon="27.39935">
        <ele>12.785</ele>
      </trkpt>
      <trkpt lat="36.70094" lon="27.3994">
        <ele>12.194</ele>
      </trkpt>
      <trkpt lat="36.70098" lon="27.39941">
        <ele>11.235</ele>
      </trkpt>
      <trkpt lat="36.70109" lon="27.3995">
        <ele>9.326</ele>
      </trkpt>
      <trkpt lat="36.70118" lon="27.39963">
        <ele>8.584</ele>
      </trkpt>
      <trkpt lat="36.70123" lon="27.39969">
        <ele>7.637</ele>
      </trkpt>
      <trkpt lat="36.7013" lon="27.3998">
        <ele>7.232</ele>
      </trkpt>
      <trkpt lat="36.70138" lon="27.39994">
        <ele>7.366</ele>
      </trkpt>
      <trkpt lat="36.70139" lon="27.40008">
        <ele>9.08</ele>
      </trkpt>
      <trkpt lat="36.70138" lon="27.40014">
        <ele>10.224</ele>
      </trkpt>
      <trkpt lat="36.7014" lon="27.4003">
        <ele>11.789</ele>
      </trkpt>
      <trkpt lat="36.7014" lon="27.40033">
        <ele>11.832</ele>
      </trkpt>
      <trkpt lat="36.70141" lon="27.40043">
        <ele>11.417</ele>
      </trkpt>
      <trkpt lat="36.7014" lon="27.4006">
        <ele>11.702</ele>
      </trkpt>
      <trkpt lat="36.7014" lon="27.40068">
        <ele>11.668</ele>
      </trkpt>
      <trkpt lat="36.70149" lon="27.40081">
        <ele>9.773</ele>
      </trkpt>
      <trkpt lat="36.7015" lon="27.40085">
        <ele>9.725</ele>
      </trkpt>
      <trkpt lat="36.70159" lon="27.40097">
        <ele>8.419</ele>
      </trkpt>
      <trkpt lat="36.70166" lon="27.40112">
        <ele>7.234</ele>
      </trkpt>
      <trkpt lat="36.7017" lon="27.40123">
        <ele>7.391</ele>
      </trkpt>
      <trkpt lat="36.70177" lon="27.40131">
        <ele>6.387</ele>
      </trkpt>
      <trkpt lat="36.70182" lon="27.40142">
        <ele>5.015</ele>
      </trkpt>
      <trkpt lat="36.70182" lon="27.40143">
        <ele>4.967</ele>
      </trkpt>
      <trkpt lat="36.70181" lon="27.40158">
        <ele>5.079</ele>
      </trkpt>
      <trkpt lat="36.70181" lon="27.40165">
        <ele>4.839</ele>
      </trkpt>
      <trkpt lat="36.70181" lon="27.40168">
        <ele>4.852</ele>
      </trkpt>
      <trkpt lat="36.70182" lon="27.40177">
        <ele>5.386</ele>
      </trkpt>
      <trkpt lat="36.70191" lon="27.4018">
        <ele>3.426</ele>
      </trkpt>
      <trkpt lat="36.70194" lon="27.40184">
        <ele>2.821</ele>
      </trkpt>
      <trkpt lat="36.70195" lon="27.40189">
        <ele>3.328</ele>
      </trkpt>
      <trkpt lat="36.70197" lon="27.40189">
        <ele>3.158</ele>
      </trkpt>
      <trkpt lat="36.70196" lon="27.4019">
        <ele>3.277</ele>
      </trkpt>
      <trkpt lat="36.702" lon="27.402">
        <ele>3.529</ele>
      </trkpt>
      <trkpt lat="36.70201" lon="27.4021">
        <ele>3.841</ele>
      </trkpt>
      <trkpt lat="36.70207" lon="27.40222">
        <ele>3.189</ele>
      </trkpt>
      <trkpt lat="36.70215" lon="27.4024">
        <ele>2.935</ele>
      </trkpt>
      <trkpt lat="36.7022" lon="27.40254">
        <ele>2.603</ele>
      </trkpt>
      <trkpt lat="36.70226" lon="27.4027">
        <ele>1.731</ele>
      </trkpt>
      <trkpt lat="36.70234" lon="27.40288">
        <ele>2.439</ele>
      </trkpt>
      <trkpt lat="36.70239" lon="27.40299">
        <ele>2.716</ele>
      </trkpt>
      <trkpt lat="36.7024" lon="27.40304">
        <ele>2.945</ele>
      </trkpt>
      <trkpt lat="36.7024" lon="27.40311">
        <ele>4.393</ele>
      </trkpt>
      <trkpt lat="36.70249" lon="27.40326">
        <ele>4.959</ele>
      </trkpt>
      <trkpt lat="36.70255" lon="27.40334">
        <ele>5.142</ele>
      </trkpt>
      <trkpt lat="36.7026" lon="27.40344">
        <ele>5.583</ele>
      </trkpt>
      <trkpt lat="36.70258" lon="27.40346">
        <ele>6.669</ele>
      </trkpt>
      <trkpt lat="36.70257" lon="27.40344">
        <ele>6.505</ele>
      </trkpt>
      <trkpt lat="36.7026" lon="27.40348">
        <ele>6.333</ele>
      </trkpt>
      <trkpt lat="36.70261" lon="27.40353">
        <ele>6.487</ele>
      </trkpt>
      <trkpt lat="36.70269" lon="27.40372">
        <ele>5.181</ele>
      </trkpt>
      <trkpt lat="36.7028" lon="27.40383">
        <ele>18.6</ele>
      </trkpt>
      <trkpt lat="36.70287" lon="27.40394">
        <ele>0.797</ele>
      </trkpt>
      <trkpt lat="36.70293" lon="27.40411">
        <ele>2.544</ele>
      </trkpt>
      <trkpt lat="36.70303" lon="27.40425">
        <ele>0.883</ele>
      </trkpt>
      <trkpt lat="36.70301" lon="27.40437">
        <ele>1.918</ele>
      </trkpt>
      <trkpt lat="36.703" lon="27.40444">
        <ele>2.664</ele>
      </trkpt>
      <trkpt lat="36.703" lon="27.40451">
        <ele>4.268</ele>
      </trkpt>
      <trkpt lat="36.70305" lon="27.40456">
        <ele>3.245</ele>
      </trkpt>
      <trkpt lat="36.7031" lon="27.4047">
        <ele>5.337</ele>
      </trkpt>
      <trkpt lat="36.70315" lon="27.40488">
        <ele>5.784</ele>
      </trkpt>
      <trkpt lat="36.70326" lon="27.40497">
        <ele>2.727</ele>
      </trkpt>
      <trkpt lat="36.70334" lon="27.40515">
        <ele>1.638</ele>
      </trkpt>
      <trkpt lat="36.70336" lon="27.40522">
        <ele>2.107</ele>
      </trkpt>
      <trkpt lat="36.70339" lon="27.40526">
        <ele>2.229</ele>
      </trkpt>
      <trkpt lat="36.70341" lon="27.40536">
        <ele>1.971</ele>
      </trkpt>
      <trkpt lat="36.70341" lon="27.40537">
        <ele>1.962</ele>
      </trkpt>
      <trkpt lat="36.70342" lon="27.40542">
        <ele>1.765</ele>
      </trkpt>
      <trkpt lat="36.70346" lon="27.40554">
        <ele>1.139</ele>
      </trkpt>
      <trkpt lat="36.70351" lon="27.4056">
        <ele>1.053</ele>
      </trkpt>
      <trkpt lat="36.70358" lon="27.40582">
        <ele>1.54</ele>
      </trkpt>
      <trkpt lat="36.70369" lon="27.40596">
        <ele>2.287</ele>
      </trkpt>
      <trkpt lat="36.70378" lon="27.40609">
        <ele>2.112</ele>
      </trkpt>
      <trkpt lat="36.70388" lon="27.40621">
        <ele>0.345</ele>
      </trkpt>
      <trkpt lat="36.70395" lon="27.40628">
        <ele>8.5</ele>
      </trkpt>
      <trkpt lat="36.70402" lon="27.40629">
        <ele>7.4</ele>
      </trkpt>
      <trkpt lat="36.70404" lon="27.40631">
        <ele>7</ele>
      </trkpt>
      <trkpt lat="36.70403" lon="27.40645">
        <ele>0.4</ele>
      </trkpt>
      <trkpt lat="36.70403" lon="27.4065">
        <ele>0.816</ele>
      </trkpt>
      <trkpt lat="36.70407" lon="27.40668">
        <ele>1.391</ele>
      </trkpt>
      <trkpt lat="36.70414" lon="27.4068">
        <ele>0.551</ele>
      </trkpt>
      <trkpt lat="36.70415" lon="27.40696">
        <ele>0.598</ele>
      </trkpt>
      <trkpt lat="36.7041" lon="27.40712">
        <ele>3.176</ele>
      </trkpt>
      <trkpt lat="36.7041" lon="27.40716">
        <ele>3.369</ele>
      </trkpt>
      <trkpt lat="36.7041" lon="27.40717">
        <ele>3.603</ele>
      </trkpt>
      <trkpt lat="36.7041" lon="27.40717">
        <ele>3.576</ele>
      </trkpt>
      <trkpt lat="36.70411" lon="27.40731">
        <ele>4.467</ele>
      </trkpt>
      <trkpt lat="36.70413" lon="27.40737">
        <ele>4.785</ele>
      </trkpt>
      <trkpt lat="36.70417" lon="27.40751">
        <ele>5.18</ele>
      </trkpt>
      <trkpt lat="36.70422" lon="27.40769">
        <ele>5.814</ele>
      </trkpt>
      <trkpt lat="36.70423" lon="27.4077">
        <ele>5.83</ele>
      </trkpt>
      <trkpt lat="36.70423" lon="27.40779">
        <ele>6.69</ele>
      </trkpt>
      <trkpt lat="36.7042" lon="27.40784">
        <ele>8.027</ele>
      </trkpt>
      <trkpt lat="36.70423" lon="27.40791">
        <ele>8.64</ele>
      </trkpt>
      <trkpt lat="36.70427" lon="27.40804">
        <ele>9.911</ele>
      </trkpt>
      <trkpt lat="36.70433" lon="27.40818">
        <ele>12.75</ele>
      </trkpt>
      <trkpt lat="36.7044" lon="27.4084">
        <ele>17.833</ele>
      </trkpt>
      <trkpt lat="36.70444" lon="27.40858">
        <ele>20.474</ele>
      </trkpt>
      <trkpt lat="36.70446" lon="27.40871">
        <ele>21.166</ele>
      </trkpt>
      <trkpt lat="36.70448" lon="27.40885">
        <ele>21.254</ele>
      </trkpt>
      <trkpt lat="36.70447" lon="27.40902">
        <ele>21.427</ele>
      </trkpt>
      <trkpt lat="36.70445" lon="27.40924">
        <ele>22.283</ele>
      </trkpt>
      <trkpt lat="36.70441" lon="27.40949">
        <ele>25.83</ele>
      </trkpt>
      <trkpt lat="36.70437" lon="27.40969">
        <ele>28.909</ele>
      </trkpt>
      <trkpt lat="36.70435" lon="27.40986">
        <ele>30.934</ele>
      </trkpt>
      <trkpt lat="36.7043" lon="27.40995">
        <ele>32.492</ele>
      </trkpt>
      <trkpt lat="36.70428" lon="27.41">
        <ele>32.995</ele>
      </trkpt>
      <trkpt lat="36.70426" lon="27.41003">
        <ele>33.256</ele>
      </trkpt>
      <trkpt lat="36.70426" lon="27.41007">
        <ele>33.205</ele>
      </trkpt>
      <trkpt lat="36.70423" lon="27.41014">
        <ele>33.604</ele>
      </trkpt>
      <trkpt lat="36.70432" lon="27.41007">
        <ele>32.227</ele>
      </trkpt>
      <trkpt lat="36.70434" lon="27.4101">
        <ele>32.043</ele>
      </trkpt>
      <trkpt lat="36.70446" lon="27.41022">
        <ele>30.599</ele>
      </trkpt>
      <trkpt lat="36.70455" lon="27.41026">
        <ele>29.434</ele>
      </trkpt>
      <trkpt lat="36.70455" lon="27.41027">
        <ele>29.518</ele>
      </trkpt>
      <trkpt lat="36.70455" lon="27.41029">
        <ele>29.481</ele>
      </trkpt>
      <trkpt lat="36.70462" lon="27.4102">
        <ele>27.599</ele>
      </trkpt>
      <trkpt lat="36.70468" lon="27.41012">
        <ele>25.596</ele>
      </trkpt>
      <trkpt lat="36.70483" lon="27.41015">
        <ele>23.399</ele>
      </trkpt>
      <trkpt lat="36.70499" lon="27.41028">
        <ele>22.177</ele>
      </trkpt>
      <trkpt lat="36.70519" lon="27.41034">
        <ele>23.081</ele>
      </trkpt>
      <trkpt lat="36.70531" lon="27.41035">
        <ele>23.364</ele>
      </trkpt>
      <trkpt lat="36.70544" lon="27.41051">
        <ele>24.413</ele>
      </trkpt>
      <trkpt lat="36.70555" lon="27.41053">
        <ele>24.869</ele>
      </trkpt>
      <trkpt lat="36.70562" lon="27.41045">
        <ele>23.818</ele>
      </trkpt>
      <trkpt lat="36.7057" lon="27.41039">
        <ele>22.665</ele>
      </trkpt>
      <trkpt lat="36.70587" lon="27.4105">
        <ele>20.695</ele>
      </trkpt>
      <trkpt lat="36.70601" lon="27.41053">
        <ele>19.196</ele>
      </trkpt>
      <trkpt lat="36.70622" lon="27.41059">
        <ele>16.508</ele>
      </trkpt>
      <trkpt lat="36.70631" lon="27.41069">
        <ele>14.226</ele>
      </trkpt>
      <trkpt lat="36.70639" lon="27.41091">
        <ele>10.466</ele>
      </trkpt>
      <trkpt lat="36.70648" lon="27.41106">
        <ele>8.647</ele>
      </trkpt>
      <trkpt lat="36.70655" lon="27.4112">
        <ele>8.185</ele>
      </trkpt>
      <trkpt lat="36.70653" lon="27.41137">
        <ele>8.921</ele>
      </trkpt>
      <trkpt lat="36.70657" lon="27.41152">
        <ele>9.314</ele>
      </trkpt>
      <trkpt lat="36.70666" lon="27.41169">
        <ele>9.842</ele>
      </trkpt>
      <trkpt lat="36.70678" lon="27.41186">
        <ele>7.75</ele>
      </trkpt>
      <trkpt lat="36.70694" lon="27.41208">
        <ele>5.077</ele>
      </trkpt>
      <trkpt lat="36.70695" lon="27.41221">
        <ele>4.079</ele>
      </trkpt>
      <trkpt lat="36.70685" lon="27.41236">
        <ele>4.188</ele>
      </trkpt>
      <trkpt lat="36.70685" lon="27.41246">
        <ele>3.801</ele>
      </trkpt>
      <trkpt lat="36.70707" lon="27.41261">
        <ele>2.923</ele>
      </trkpt>
      <trkpt lat="36.70721" lon="27.41269">
        <ele>2.71</ele>
      </trkpt>
      <trkpt lat="36.70721" lon="27.41269">
        <ele>2.71</ele>
      </trkpt>
      <trkpt lat="36.70719" lon="27.41291">
        <ele>3.608</ele>
      </trkpt>
      <trkpt lat="36.70719" lon="27.41295">
        <ele>3.735</ele>
      </trkpt>
      <trkpt lat="36.7072" lon="27.413">
        <ele>3.866</ele>
      </trkpt>
      <trkpt lat="36.70722" lon="27.41306">
        <ele>4</ele>
      </trkpt>
      <trkpt lat="36.70723" lon="27.41311">
        <ele>3.978</ele>
      </trkpt>
      <trkpt lat="36.70724" lon="27.41315">
        <ele>3.964</ele>
      </trkpt>
      <trkpt lat="36.70724" lon="27.41319">
        <ele>3.969</ele>
      </trkpt>
      <trkpt lat="36.70724" lon="27.41323">
        <ele>3.974</ele>
      </trkpt>
      <trkpt lat="36.70724" lon="27.41328">
        <ele>3.987</ele>
      </trkpt>
      <trkpt lat="36.70725" lon="27.41335">
        <ele>4.125</ele>
      </trkpt>
      <trkpt lat="36.70725" lon="27.4134">
        <ele>4.496</ele>
      </trkpt>
      <trkpt lat="36.70725" lon="27.41345">
        <ele>4.815</ele>
      </trkpt>
      <trkpt lat="36.70725" lon="27.41348">
        <ele>5.083</ele>
      </trkpt>
      <trkpt lat="36.70725" lon="27.41356">
        <ele>5.608</ele>
      </trkpt>
      <trkpt lat="36.70724" lon="27.41361">
        <ele>5.977</ele>
      </trkpt>
      <trkpt lat="36.70724" lon="27.41366">
        <ele>5.849</ele>
      </trkpt>
      <trkpt lat="36.70724" lon="27.4137">
        <ele>5.715</ele>
      </trkpt>
      <trkpt lat="36.70724" lon="27.41376">
        <ele>5.564</ele>
      </trkpt>
      <trkpt lat="36.70724" lon="27.41383">
        <ele>5.324</ele>
      </trkpt>
      <trkpt lat="36.70724" lon="27.41388">
        <ele>5.179</ele>
      </trkpt>
      <trkpt lat="36.70725" lon="27.41397">
        <ele>5.178</ele>
      </trkpt>
      <trkpt lat="36.70727" lon="27.41425">
        <ele>5.579</ele>
      </trkpt>
      <trkpt lat="36.70728" lon="27.41437">
        <ele>5.972</ele>
      </trkpt>
      <trkpt lat="36.70728" lon="27.41446">
        <ele>6.249</ele>
      </trkpt>
      <trkpt lat="36.70726" lon="27.4145">
        <ele>6.334</ele>
      </trkpt>
      <trkpt lat="36.70723" lon="27.41456">
        <ele>6.454</ele>
      </trkpt>
      <trkpt lat="36.70721" lon="27.41459">
        <ele>6.533</ele>
      </trkpt>
      <trkpt lat="36.7072" lon="27.41461">
        <ele>6.59</ele>
      </trkpt>
      <trkpt lat="36.70718" lon="27.41465">
        <ele>6.725</ele>
      </trkpt>
      <trkpt lat="36.70715" lon="27.41468">
        <ele>6.835</ele>
      </trkpt>
      <trkpt lat="36.70713" lon="27.41475">
        <ele>7.103</ele>
      </trkpt>
      <trkpt lat="36.70712" lon="27.4148">
        <ele>7.289</ele>
      </trkpt>
      <trkpt lat="36.7071" lon="27.41488">
        <ele>7.582</ele>
      </trkpt>
      <trkpt lat="36.70706" lon="27.41495">
        <ele>7.826</ele>
      </trkpt>
      <trkpt lat="36.70702" lon="27.41503">
        <ele>8.088</ele>
      </trkpt>
      <trkpt lat="36.70699" lon="27.41509">
        <ele>8.261</ele>
      </trkpt>
      <trkpt lat="36.70697" lon="27.41512">
        <ele>8.399</ele>
      </trkpt>
      <trkpt lat="36.70697" lon="27.41514">
        <ele>8.456</ele>
      </trkpt>
      <trkpt lat="36.70696" lon="27.41517">
        <ele>8.563</ele>
      </trkpt>
      <trkpt lat="36.70694" lon="27.41522">
        <ele>8.772</ele>
      </trkpt>
      <trkpt lat="36.7069" lon="27.41526">
        <ele>8.794</ele>
      </trkpt>
      <trkpt lat="36.70688" lon="27.41528">
        <ele>8.776</ele>
      </trkpt>
      <trkpt lat="36.70686" lon="27.41533">
        <ele>8.749</ele>
      </trkpt>
      <trkpt lat="36.70685" lon="27.41533">
        <ele>8.741</ele>
      </trkpt>
      <trkpt lat="36.70685" lon="27.41539">
        <ele>8.79</ele>
      </trkpt>
      <trkpt lat="36.70685" lon="27.41546">
        <ele>8.878</ele>
      </trkpt>
      <trkpt lat="36.70685" lon="27.41552">
        <ele>8.961</ele>
      </trkpt>
      <trkpt lat="36.70685" lon="27.41557">
        <ele>9.022</ele>
      </trkpt>
      <trkpt lat="36.70686" lon="27.41563">
        <ele>9.088</ele>
      </trkpt>
      <trkpt lat="36.70686" lon="27.4157">
        <ele>9.201</ele>
      </trkpt>
      <trkpt lat="36.70687" lon="27.41573">
        <ele>9.272</ele>
      </trkpt>
      <trkpt lat="36.70687" lon="27.41579">
        <ele>9.376</ele>
      </trkpt>
      <trkpt lat="36.70686" lon="27.41583">
        <ele>9.415</ele>
      </trkpt>
      <trkpt lat="36.70686" lon="27.41588">
        <ele>9.387</ele>
      </trkpt>
      <trkpt lat="36.70686" lon="27.41593">
        <ele>9.402</ele>
      </trkpt>
      <trkpt lat="36.70687" lon="27.41604">
        <ele>9.438</ele>
      </trkpt>
      <trkpt lat="36.70687" lon="27.41617">
        <ele>9.595</ele>
      </trkpt>
      <trkpt lat="36.70688" lon="27.41625">
        <ele>9.763</ele>
      </trkpt>
      <trkpt lat="36.70689" lon="27.41632">
        <ele>9.898</ele>
      </trkpt>
      <trkpt lat="36.7069" lon="27.41638">
        <ele>9.991</ele>
      </trkpt>
      <trkpt lat="36.7069" lon="27.41647">
        <ele>10.616</ele>
      </trkpt>
      <trkpt lat="36.70691" lon="27.41656">
        <ele>11.233</ele>
      </trkpt>
      <trkpt lat="36.70692" lon="27.41663">
        <ele>11.747</ele>
      </trkpt>
      <trkpt lat="36.70692" lon="27.41667">
        <ele>11.995</ele>
      </trkpt>
      <trkpt lat="36.70692" lon="27.4167">
        <ele>11.766</ele>
      </trkpt>
      <trkpt lat="36.70693" lon="27.41678">
        <ele>11.225</ele>
      </trkpt>
      <trkpt lat="36.70695" lon="27.41685">
        <ele>10.651</ele>
      </trkpt>
      <trkpt lat="36.70695" lon="27.41691">
        <ele>10.23</ele>
      </trkpt>
      <trkpt lat="36.70695" lon="27.41695">
        <ele>9.966</ele>
      </trkpt>
      <trkpt lat="36.70695" lon="27.41699">
        <ele>9.655</ele>
      </trkpt>
      <trkpt lat="36.70695" lon="27.41701">
        <ele>9.5</ele>
      </trkpt>
      <trkpt lat="36.70696" lon="27.41705">
        <ele>9.192</ele>
      </trkpt>
      <trkpt lat="36.70696" lon="27.41708">
        <ele>8.989</ele>
      </trkpt>
      <trkpt lat="36.70695" lon="27.41713">
        <ele>8.646</ele>
      </trkpt>
      <trkpt lat="36.70695" lon="27.4172">
        <ele>8.14</ele>
      </trkpt>
      <trkpt lat="36.70694" lon="27.41725">
        <ele>7.951</ele>
      </trkpt>
      <trkpt lat="36.70691" lon="27.41729">
        <ele>8.119</ele>
      </trkpt>
      <trkpt lat="36.70691" lon="27.4173">
        <ele>8.106</ele>
      </trkpt>
      <trkpt lat="36.7069" lon="27.41731">
        <ele>8.086</ele>
      </trkpt>
      <trkpt lat="36.7069" lon="27.41733">
        <ele>7.976</ele>
      </trkpt>
      <trkpt lat="36.7069" lon="27.41753">
        <ele>7.392</ele>
      </trkpt>
      <trkpt lat="36.70688" lon="27.41773">
        <ele>8.101</ele>
      </trkpt>
      <trkpt lat="36.70685" lon="27.41783">
        <ele>8.52</ele>
      </trkpt>
      <trkpt lat="36.70686" lon="27.41784">
        <ele>8.548</ele>
      </trkpt>
      <trkpt lat="36.70683" lon="27.41799">
        <ele>9.004</ele>
      </trkpt>
      <trkpt lat="36.70684" lon="27.41805">
        <ele>9.237</ele>
      </trkpt>
      <trkpt lat="36.70684" lon="27.41803">
        <ele>9.201</ele>
      </trkpt>
      <trkpt lat="36.70684" lon="27.41808">
        <ele>9.439</ele>
      </trkpt>
      <trkpt lat="36.70686" lon="27.41813">
        <ele>9.936</ele>
      </trkpt>
      <trkpt lat="36.70694" lon="27.41819">
        <ele>10.989</ele>
      </trkpt>
      <trkpt lat="36.70695" lon="27.41818">
        <ele>10.954</ele>
      </trkpt>
      <trkpt lat="36.70699" lon="27.41802">
        <ele>10.742</ele>
      </trkpt>
      <trkpt lat="36.70693" lon="27.41814">
        <ele>10.537</ele>
      </trkpt>
      <trkpt lat="36.70696" lon="27.41825">
        <ele>11.661</ele>
      </trkpt>
      <trkpt lat="36.70693" lon="27.41835">
        <ele>12.047</ele>
      </trkpt>
      <trkpt lat="36.70702" lon="27.41834">
        <ele>14.22</ele>
      </trkpt>
      <trkpt lat="36.70709" lon="27.41829">
        <ele>15.678</ele>
      </trkpt>
      <trkpt lat="36.70706" lon="27.41835">
        <ele>15.462</ele>
      </trkpt>
      <trkpt lat="36.70706" lon="27.4184">
        <ele>15.788</ele>
      </trkpt>
      <trkpt lat="36.70704" lon="27.41852">
        <ele>16.088</ele>
      </trkpt>
      <trkpt lat="36.70708" lon="27.41859">
        <ele>17.749</ele>
      </trkpt>
      <trkpt lat="36.70707" lon="27.41862">
        <ele>17.639</ele>
      </trkpt>
      <trkpt lat="36.70707" lon="27.41871">
        <ele>18.03</ele>
      </trkpt>
      <trkpt lat="36.70706" lon="27.41877">
        <ele>18.133</ele>
      </trkpt>
      <trkpt lat="36.70704" lon="27.41889">
        <ele>18.145</ele>
      </trkpt>
      <trkpt lat="36.70703" lon="27.41902">
        <ele>19.026</ele>
      </trkpt>
      <trkpt lat="36.70701" lon="27.4191">
        <ele>19.123</ele>
      </trkpt>
      <trkpt lat="36.70699" lon="27.41912">
        <ele>18.967</ele>
      </trkpt>
      <trkpt lat="36.70697" lon="27.41927">
        <ele>20.008</ele>
      </trkpt>
      <trkpt lat="36.70699" lon="27.41933">
        <ele>21.141</ele>
      </trkpt>
      <trkpt lat="36.70693" lon="27.41935">
        <ele>19.745</ele>
      </trkpt>
      <trkpt lat="36.70697" lon="27.41933">
        <ele>20.454</ele>
      </trkpt>
      <trkpt lat="36.70697" lon="27.41934">
        <ele>20.758</ele>
      </trkpt>
      <trkpt lat="36.70703" lon="27.41942">
        <ele>23.442</ele>
      </trkpt>
      <trkpt lat="36.70702" lon="27.4195">
        <ele>23.759</ele>
      </trkpt>
      <trkpt lat="36.70698" lon="27.41953">
        <ele>22.885</ele>
      </trkpt>
      <trkpt lat="36.70697" lon="27.41952">
        <ele>22.327</ele>
      </trkpt>
      <trkpt lat="36.70698" lon="27.41956">
        <ele>22.929</ele>
      </trkpt>
      <trkpt lat="36.70698" lon="27.41964">
        <ele>23.565</ele>
      </trkpt>
      <trkpt lat="36.70698" lon="27.41977">
        <ele>24.397</ele>
      </trkpt>
      <trkpt lat="36.70699" lon="27.41985">
        <ele>24.749</ele>
      </trkpt>
      <trkpt lat="36.70698" lon="27.41994">
        <ele>25.043</ele>
      </trkpt>
      <trkpt lat="36.70699" lon="27.41997">
        <ele>25.208</ele>
      </trkpt>
      <trkpt lat="36.70698" lon="27.42006">
        <ele>25.008</ele>
      </trkpt>
      <trkpt lat="36.707" lon="27.42013">
        <ele>25.312</ele>
      </trkpt>
      <trkpt lat="36.707" lon="27.42019">
        <ele>25.138</ele>
      </trkpt>
      <trkpt lat="36.70701" lon="27.42019">
        <ele>25.468</ele>
      </trkpt>
      <trkpt lat="36.70706" lon="27.42031">
        <ele>26.856</ele>
      </trkpt>
      <trkpt lat="36.70707" lon="27.42035">
        <ele>27.098</ele>
      </trkpt>
      <trkpt lat="36.70707" lon="27.42039">
        <ele>27.316</ele>
      </trkpt>
      <trkpt lat="36.70701" lon="27.42049">
        <ele>25.695</ele>
      </trkpt>
      <trkpt lat="36.70698" lon="27.42054">
        <ele>25.051</ele>
      </trkpt>
      <trkpt lat="36.70708" lon="27.42056">
        <ele>27.882</ele>
      </trkpt>
      <trkpt lat="36.70717" lon="27.42058">
        <ele>30.77</ele>
      </trkpt>
      <trkpt lat="36.70728" lon="27.42062">
        <ele>33.808</ele>
      </trkpt>
      <trkpt lat="36.7073" lon="27.42062">
        <ele>34.173</ele>
      </trkpt>
      <trkpt lat="36.70743" lon="27.42068">
        <ele>37.436</ele>
      </trkpt>
      <trkpt lat="36.70746" lon="27.42069">
        <ele>38.099</ele>
      </trkpt>
      <trkpt lat="36.70752" lon="27.42079">
        <ele>40.581</ele>
      </trkpt>
      <trkpt lat="36.70754" lon="27.42083">
        <ele>41.566</ele>
      </trkpt>
      <trkpt lat="36.70755" lon="27.42087">
        <ele>43.196</ele>
      </trkpt>
      <trkpt lat="36.70756" lon="27.42089">
        <ele>44.068</ele>
      </trkpt>
      <trkpt lat="36.70758" lon="27.42092">
        <ele>45.512</ele>
      </trkpt>
      <trkpt lat="36.70768" lon="27.42095">
        <ele>48.536</ele>
      </trkpt>
      <trkpt lat="36.70773" lon="27.42097">
        <ele>50.045</ele>
      </trkpt>
      <trkpt lat="36.70776" lon="27.42102">
        <ele>51.013</ele>
      </trkpt>
      <trkpt lat="36.70783" lon="27.42103">
        <ele>52.813</ele>
      </trkpt>
      <trkpt lat="36.70789" lon="27.42111">
        <ele>54.439</ele>
      </trkpt>
      <trkpt lat="36.70799" lon="27.42118">
        <ele>58.206</ele>
      </trkpt>
      <trkpt lat="36.70808" lon="27.42124">
        <ele>60.794</ele>
      </trkpt>
      <trkpt lat="36.70818" lon="27.4213">
        <ele>63.565</ele>
      </trkpt>
      <trkpt lat="36.70831" lon="27.42128">
        <ele>65.793</ele>
      </trkpt>
      <trkpt lat="36.70836" lon="27.42126">
        <ele>66.553</ele>
      </trkpt>
      <trkpt lat="36.7084" lon="27.42126">
        <ele>67.158</ele>
      </trkpt>
      <trkpt lat="36.70844" lon="27.42125">
        <ele>67.737</ele>
      </trkpt>
      <trkpt lat="36.70847" lon="27.42128">
        <ele>68.302</ele>
      </trkpt>
      <trkpt lat="36.70859" lon="27.4213">
        <ele>69.953</ele>
      </trkpt>
      <trkpt lat="36.70864" lon="27.42128">
        <ele>70.852</ele>
      </trkpt>
      <trkpt lat="36.70872" lon="27.42129">
        <ele>72.235</ele>
      </trkpt>
      <trkpt lat="36.70874" lon="27.42129">
        <ele>72.529</ele>
      </trkpt>
      <trkpt lat="36.7088" lon="27.42133">
        <ele>73.516</ele>
      </trkpt>
      <trkpt lat="36.70881" lon="27.42138">
        <ele>73.552</ele>
      </trkpt>
      <trkpt lat="36.70881" lon="27.42141">
        <ele>74.07</ele>
      </trkpt>
      <trkpt lat="36.70895" lon="27.42145">
        <ele>78.231</ele>
      </trkpt>
      <trkpt lat="36.70897" lon="27.42143">
        <ele>78.938</ele>
      </trkpt>
      <trkpt lat="36.70902" lon="27.42148">
        <ele>81.169</ele>
      </trkpt>
      <trkpt lat="36.70902" lon="27.42148">
        <ele>81.325</ele>
      </trkpt>
      <trkpt lat="36.7091" lon="27.42153">
        <ele>84.553</ele>
      </trkpt>
      <trkpt lat="36.70917" lon="27.42157">
        <ele>87.293</ele>
      </trkpt>
      <trkpt lat="36.70926" lon="27.42158">
        <ele>89.863</ele>
      </trkpt>
      <trkpt lat="36.70931" lon="27.42162">
        <ele>91.045</ele>
      </trkpt>
      <trkpt lat="36.70936" lon="27.42164">
        <ele>92.33</ele>
      </trkpt>
      <trkpt lat="36.70947" lon="27.42166">
        <ele>94.663</ele>
      </trkpt>
      <trkpt lat="36.70951" lon="27.42169">
        <ele>95.985</ele>
      </trkpt>
      <trkpt lat="36.70962" lon="27.42171">
        <ele>98.788</ele>
      </trkpt>
      <trkpt lat="36.70972" lon="27.42177">
        <ele>100.999</ele>
      </trkpt>
      <trkpt lat="36.70981" lon="27.42181">
        <ele>102.102</ele>
      </trkpt>
      <trkpt lat="36.70983" lon="27.42186">
        <ele>102.31</ele>
      </trkpt>
      <trkpt lat="36.70986" lon="27.42197">
        <ele>102.962</ele>
      </trkpt>
      <trkpt lat="36.70986" lon="27.42198">
        <ele>103.154</ele>
      </trkpt>
      <trkpt lat="36.70988" lon="27.42205">
        <ele>104.459</ele>
      </trkpt>
      <trkpt lat="36.70996" lon="27.42202">
        <ele>104.385</ele>
      </trkpt>
      <trkpt lat="36.70997" lon="27.42199">
        <ele>104.124</ele>
      </trkpt>
      <trkpt lat="36.71007" lon="27.42205">
        <ele>105.289</ele>
      </trkpt>
      <trkpt lat="36.71014" lon="27.42216">
        <ele>106.275</ele>
      </trkpt>
      <trkpt lat="36.71025" lon="27.42226">
        <ele>107.527</ele>
      </trkpt>
      <trkpt lat="36.71031" lon="27.42226">
        <ele>107.344</ele>
      </trkpt>
      <trkpt lat="36.71032" lon="27.42234">
        <ele>108.369</ele>
      </trkpt>
      <trkpt lat="36.71033" lon="27.42239">
        <ele>109.031</ele>
      </trkpt>
      <trkpt lat="36.71043" lon="27.42249">
        <ele>109.801</ele>
      </trkpt>
      <trkpt lat="36.71045" lon="27.42254">
        <ele>110.431</ele>
      </trkpt>
      <trkpt lat="36.7105" lon="27.42263">
        <ele>111.396</ele>
      </trkpt>
      <trkpt lat="36.7105" lon="27.42273">
        <ele>112.88</ele>
      </trkpt>
      <trkpt lat="36.7105" lon="27.42283">
        <ele>114.764</ele>
      </trkpt>
      <trkpt lat="36.7105" lon="27.42287">
        <ele>115.675</ele>
      </trkpt>
      <trkpt lat="36.71054" lon="27.42292">
        <ele>116.71</ele>
      </trkpt>
      <trkpt lat="36.71059" lon="27.42299">
        <ele>118.13</ele>
      </trkpt>
      <trkpt lat="36.71059" lon="27.42297">
        <ele>117.454</ele>
      </trkpt>
      <trkpt lat="36.71062" lon="27.42296">
        <ele>116.989</ele>
      </trkpt>
      <trkpt lat="36.71064" lon="27.42293">
        <ele>115.817</ele>
      </trkpt>
      <trkpt lat="36.71072" lon="27.42286">
        <ele>113.25</ele>
      </trkpt>
      <trkpt lat="36.71078" lon="27.4229">
        <ele>113.668</ele>
      </trkpt>
      <trkpt lat="36.71084" lon="27.42292">
        <ele>113.451</ele>
      </trkpt>
      <trkpt lat="36.71091" lon="27.42293">
        <ele>113.013</ele>
      </trkpt>
      <trkpt lat="36.71096" lon="27.42294">
        <ele>112.448</ele>
      </trkpt>
      <trkpt lat="36.71107" lon="27.42296">
        <ele>111.848</ele>
      </trkpt>
      <trkpt lat="36.71115" lon="27.423">
        <ele>111.665</ele>
      </trkpt>
      <trkpt lat="36.71119" lon="27.42298">
        <ele>110.241</ele>
      </trkpt>
      <trkpt lat="36.71125" lon="27.42299">
        <ele>108.523</ele>
      </trkpt>
      <trkpt lat="36.7113" lon="27.42296">
        <ele>105.6</ele>
      </trkpt>
      <trkpt lat="36.71138" lon="27.42297">
        <ele>103.882</ele>
      </trkpt>
      <trkpt lat="36.71144" lon="27.42303">
        <ele>104.313</ele>
      </trkpt>
      <trkpt lat="36.71149" lon="27.42308">
        <ele>104.36</ele>
      </trkpt>
      <trkpt lat="36.7116" lon="27.42311">
        <ele>102.186</ele>
      </trkpt>
      <trkpt lat="36.71162" lon="27.42313">
        <ele>102.123</ele>
      </trkpt>
      <trkpt lat="36.71164" lon="27.42317">
        <ele>102.882</ele>
      </trkpt>
      <trkpt lat="36.71167" lon="27.42318">
        <ele>102.416</ele>
      </trkpt>
      <trkpt lat="36.71172" lon="27.42326">
        <ele>103.913</ele>
      </trkpt>
      <trkpt lat="36.7118" lon="27.42333">
        <ele>104.1</ele>
      </trkpt>
      <trkpt lat="36.71192" lon="27.42339">
        <ele>102.203</ele>
      </trkpt>
      <trkpt lat="36.712" lon="27.42347">
        <ele>103.226</ele>
      </trkpt>
      <trkpt lat="36.71206" lon="27.42355">
        <ele>104.927</ele>
      </trkpt>
      <trkpt lat="36.7121" lon="27.42361">
        <ele>106.452</ele>
      </trkpt>
      <trkpt lat="36.71218" lon="27.42364">
        <ele>106.949</ele>
      </trkpt>
      <trkpt lat="36.71224" lon="27.42363">
        <ele>106.729</ele>
      </trkpt>
      <trkpt lat="36.71225" lon="27.42361">
        <ele>106.565</ele>
      </trkpt>
      <trkpt lat="36.71232" lon="27.42358">
        <ele>106.616</ele>
      </trkpt>
      <trkpt lat="36.71239" lon="27.42353">
        <ele>106.424</ele>
      </trkpt>
      <trkpt lat="36.71241" lon="27.42345">
        <ele>104.391</ele>
      </trkpt>
      <trkpt lat="36.71242" lon="27.42344">
        <ele>104.027</ele>
      </trkpt>
      <trkpt lat="36.71246" lon="27.42337">
        <ele>102.641</ele>
      </trkpt>
      <trkpt lat="36.71248" lon="27.42331">
        <ele>100.969</ele>
      </trkpt>
      <trkpt lat="36.71251" lon="27.42323">
        <ele>98.282</ele>
      </trkpt>
      <trkpt lat="36.71256" lon="27.42321">
        <ele>97.075</ele>
      </trkpt>
      <trkpt lat="36.71264" lon="27.42328">
        <ele>99.736</ele>
      </trkpt>
      <trkpt lat="36.71268" lon="27.4233">
        <ele>100.366</ele>
      </trkpt>
      <trkpt lat="36.71273" lon="27.42333">
        <ele>101.843</ele>
      </trkpt>
      <trkpt lat="36.71275" lon="27.42335">
        <ele>102.595</ele>
      </trkpt>
      <trkpt lat="36.71276" lon="27.42338">
        <ele>104.155</ele>
      </trkpt>
      <trkpt lat="36.71283" lon="27.42345">
        <ele>104.78</ele>
      </trkpt>
      <trkpt lat="36.71289" lon="27.42349">
        <ele>104.211</ele>
      </trkpt>
      <trkpt lat="36.71291" lon="27.42352">
        <ele>104.781</ele>
      </trkpt>
      <trkpt lat="36.71297" lon="27.42365">
        <ele>109.65</ele>
      </trkpt>
      <trkpt lat="36.71298" lon="27.42366">
        <ele>110.09</ele>
      </trkpt>
      <trkpt lat="36.71301" lon="27.42377">
        <ele>113.465</ele>
      </trkpt>
      <trkpt lat="36.71303" lon="27.42381">
        <ele>114.816</ele>
      </trkpt>
      <trkpt lat="36.71303" lon="27.42383">
        <ele>115.061</ele>
      </trkpt>
      <trkpt lat="36.71302" lon="27.42385">
        <ele>116.078</ele>
      </trkpt>
      <trkpt lat="36.71311" lon="27.42385">
        <ele>114.62</ele>
      </trkpt>
      <trkpt lat="36.71315" lon="27.42377">
        <ele>109.728</ele>
      </trkpt>
      <trkpt lat="36.7132" lon="27.42374">
        <ele>106.433</ele>
      </trkpt>
      <trkpt lat="36.71324" lon="27.42372">
        <ele>104.15</ele>
      </trkpt>
      <trkpt lat="36.71327" lon="27.42369">
        <ele>101.379</ele>
      </trkpt>
      <trkpt lat="36.71335" lon="27.42364">
        <ele>94.687</ele>
      </trkpt>
      <trkpt lat="36.7134" lon="27.4236">
        <ele>92.246</ele>
      </trkpt>
      <trkpt lat="36.71345" lon="27.42354">
        <ele>88.506</ele>
      </trkpt>
      <trkpt lat="36.71352" lon="27.42356">
        <ele>90.069</ele>
      </trkpt>
      <trkpt lat="36.71353" lon="27.42359">
        <ele>91.522</ele>
      </trkpt>
      <trkpt lat="36.71358" lon="27.42357">
        <ele>90.918</ele>
      </trkpt>
      <trkpt lat="36.71357" lon="27.42354">
        <ele>89.029</ele>
      </trkpt>
      <trkpt lat="36.71357" lon="27.42348">
        <ele>86.052</ele>
      </trkpt>
      <trkpt lat="36.71355" lon="27.42342">
        <ele>82.469</ele>
      </trkpt>
      <trkpt lat="36.71355" lon="27.4234">
        <ele>81.429</ele>
      </trkpt>
      <trkpt lat="36.71353" lon="27.42335">
        <ele>77.882</ele>
      </trkpt>
      <trkpt lat="36.71353" lon="27.42325">
        <ele>73.85</ele>
      </trkpt>
      <trkpt lat="36.71361" lon="27.42331">
        <ele>77.842</ele>
      </trkpt>
      <trkpt lat="36.71368" lon="27.42337">
        <ele>80.417</ele>
      </trkpt>
      <trkpt lat="36.71371" lon="27.42338">
        <ele>80.821</ele>
      </trkpt>
      <trkpt lat="36.71374" lon="27.42339">
        <ele>81.248</ele>
      </trkpt>
      <trkpt lat="36.71377" lon="27.42343">
        <ele>82.583</ele>
      </trkpt>
      <trkpt lat="36.71382" lon="27.42347">
        <ele>84.053</ele>
      </trkpt>
      <trkpt lat="36.71387" lon="27.42351">
        <ele>85.075</ele>
      </trkpt>
      <trkpt lat="36.71393" lon="27.42355">
        <ele>84.404</ele>
      </trkpt>
      <trkpt lat="36.71396" lon="27.42356">
        <ele>83.721</ele>
      </trkpt>
      <trkpt lat="36.71399" lon="27.42361">
        <ele>83.954</ele>
      </trkpt>
      <trkpt lat="36.71401" lon="27.42363">
        <ele>83.677</ele>
      </trkpt>
      <trkpt lat="36.71402" lon="27.42368">
        <ele>84.788</ele>
      </trkpt>
      <trkpt lat="36.71403" lon="27.42374">
        <ele>86.329</ele>
      </trkpt>
      <trkpt lat="36.7141" lon="27.42376">
        <ele>84.051</ele>
      </trkpt>
      <trkpt lat="36.71418" lon="27.4238">
        <ele>82.833</ele>
      </trkpt>
      <trkpt lat="36.71421" lon="27.42382">
        <ele>82.289</ele>
      </trkpt>
      <trkpt lat="36.71429" lon="27.42384">
        <ele>79.292</ele>
      </trkpt>
      <trkpt lat="36.71433" lon="27.42385">
        <ele>77.697</ele>
      </trkpt>
      <trkpt lat="36.71444" lon="27.42385">
        <ele>72.882</ele>
      </trkpt>
      <trkpt lat="36.71448" lon="27.42382">
        <ele>70.426</ele>
      </trkpt>
      <trkpt lat="36.71452" lon="27.42383">
        <ele>69.455</ele>
      </trkpt>
      <trkpt lat="36.71457" lon="27.42382">
        <ele>67.698</ele>
      </trkpt>
      <trkpt lat="36.71464" lon="27.42381">
        <ele>65.203</ele>
      </trkpt>
      <trkpt lat="36.71468" lon="27.4238">
        <ele>63.358</ele>
      </trkpt>
      <trkpt lat="36.71473" lon="27.42379">
        <ele>61.515</ele>
      </trkpt>
      <trkpt lat="36.71481" lon="27.42377">
        <ele>59.487</ele>
      </trkpt>
      <trkpt lat="36.71484" lon="27.42374">
        <ele>58.018</ele>
      </trkpt>
      <trkpt lat="36.7149" lon="27.42374">
        <ele>56.52</ele>
      </trkpt>
      <trkpt lat="36.71496" lon="27.42372">
        <ele>55.108</ele>
      </trkpt>
      <trkpt lat="36.71498" lon="27.42372">
        <ele>54.419</ele>
      </trkpt>
      <trkpt lat="36.71506" lon="27.4237">
        <ele>52.798</ele>
      </trkpt>
      <trkpt lat="36.71514" lon="27.42369">
        <ele>51.733</ele>
      </trkpt>
      <trkpt lat="36.71521" lon="27.42366">
        <ele>50.328</ele>
      </trkpt>
      <trkpt lat="36.71528" lon="27.42365">
        <ele>49.07</ele>
      </trkpt>
      <trkpt lat="36.71531" lon="27.42363">
        <ele>48.023</ele>
      </trkpt>
      <trkpt lat="36.71541" lon="27.42364">
        <ele>46.639</ele>
      </trkpt>
      <trkpt lat="36.71551" lon="27.42364">
        <ele>44.846</ele>
      </trkpt>
      <trkpt lat="36.71553" lon="27.42362">
        <ele>43.803</ele>
      </trkpt>
      <trkpt lat="36.71564" lon="27.42359">
        <ele>42.701</ele>
      </trkpt>
      <trkpt lat="36.71572" lon="27.42355">
        <ele>41.831</ele>
      </trkpt>
      <trkpt lat="36.7158" lon="27.42352">
        <ele>41.33</ele>
      </trkpt>
      <trkpt lat="36.71583" lon="27.4235">
        <ele>40.508</ele>
      </trkpt>
      <trkpt lat="36.71587" lon="27.42349">
        <ele>40.409</ele>
      </trkpt>
      <trkpt lat="36.71591" lon="27.42345">
        <ele>39.137</ele>
      </trkpt>
      <trkpt lat="36.71592" lon="27.42339">
        <ele>37.119</ele>
      </trkpt>
      <trkpt lat="36.71597" lon="27.42336">
        <ele>36.923</ele>
      </trkpt>
      <trkpt lat="36.71602" lon="27.4233">
        <ele>35.593</ele>
      </trkpt>
      <trkpt lat="36.7161" lon="27.42325">
        <ele>35.515</ele>
      </trkpt>
      <trkpt lat="36.71617" lon="27.42319">
        <ele>34.348</ele>
      </trkpt>
      <trkpt lat="36.71621" lon="27.42315">
        <ele>33.704</ele>
      </trkpt>
      <trkpt lat="36.71629" lon="27.42311">
        <ele>33.265</ele>
      </trkpt>
      <trkpt lat="36.71634" lon="27.42308">
        <ele>33.122</ele>
      </trkpt>
      <trkpt lat="36.71637" lon="27.42305">
        <ele>32.692</ele>
      </trkpt>
      <trkpt lat="36.71638" lon="27.42298">
        <ele>31.02</ele>
      </trkpt>
      <trkpt lat="36.71641" lon="27.42297">
        <ele>30.512</ele>
      </trkpt>
      <trkpt lat="36.71646" lon="27.42295">
        <ele>29.636</ele>
      </trkpt>
      <trkpt lat="36.7165" lon="27.42297">
        <ele>29.51</ele>
      </trkpt>
      <trkpt lat="36.71655" lon="27.42296">
        <ele>28.827</ele>
      </trkpt>
      <trkpt lat="36.71657" lon="27.42293">
        <ele>28.063</ele>
      </trkpt>
      <trkpt lat="36.71662" lon="27.42291">
        <ele>27.421</ele>
      </trkpt>
      <trkpt lat="36.71666" lon="27.42287">
        <ele>26.332</ele>
      </trkpt>
      <trkpt lat="36.71668" lon="27.42287">
        <ele>26.122</ele>
      </trkpt>
      <trkpt lat="36.71676" lon="27.42293">
        <ele>25.693</ele>
      </trkpt>
      <trkpt lat="36.7168" lon="27.42294">
        <ele>25.209</ele>
      </trkpt>
      <trkpt lat="36.71681" lon="27.42295">
        <ele>25.211</ele>
      </trkpt>
      <trkpt lat="36.71682" lon="27.42299">
        <ele>25.863</ele>
      </trkpt>
      <trkpt lat="36.71685" lon="27.42303">
        <ele>25.966</ele>
      </trkpt>
      <trkpt lat="36.71688" lon="27.42307">
        <ele>26.111</ele>
      </trkpt>
      <trkpt lat="36.7169" lon="27.42304">
        <ele>25.29</ele>
      </trkpt>
      <trkpt lat="36.71693" lon="27.42308">
        <ele>25.508</ele>
      </trkpt>
      <trkpt lat="36.717" lon="27.42311">
        <ele>24.565</ele>
      </trkpt>
      <trkpt lat="36.71703" lon="27.42309">
        <ele>23.426</ele>
      </trkpt>
      <trkpt lat="36.71709" lon="27.42307">
        <ele>22.175</ele>
      </trkpt>
      <trkpt lat="36.71711" lon="27.42311">
        <ele>22.039</ele>
      </trkpt>
      <trkpt lat="36.71716" lon="27.42314">
        <ele>21.466</ele>
      </trkpt>
      <trkpt lat="36.71712" lon="27.42319">
        <ele>22.943</ele>
      </trkpt>
      <trkpt lat="36.71718" lon="27.42325">
        <ele>22.487</ele>
      </trkpt>
      <trkpt lat="36.71721" lon="27.42325">
        <ele>21.953</ele>
      </trkpt>
      <trkpt lat="36.7172" lon="27.42325">
        <ele>22.12</ele>
      </trkpt>
      <trkpt lat="36.71722" lon="27.42321">
        <ele>21.243</ele>
      </trkpt>
      <trkpt lat="36.71729" lon="27.42324">
        <ele>19.649</ele>
      </trkpt>
      <trkpt lat="36.7173" lon="27.42325">
        <ele>19.373</ele>
      </trkpt>
      <trkpt lat="36.71733" lon="27.42333">
        <ele>20.016</ele>
      </trkpt>
      <trkpt lat="36.7173" lon="27.42335">
        <ele>21.15</ele>
      </trkpt>
      <trkpt lat="36.71726" lon="27.42342">
        <ele>23.013</ele>
      </trkpt>
      <trkpt lat="36.71732" lon="27.42349">
        <ele>22.349</ele>
      </trkpt>
      <trkpt lat="36.71734" lon="27.4235">
        <ele>22.177</ele>
      </trkpt>
      <trkpt lat="36.71739" lon="27.4235">
        <ele>21.098</ele>
      </trkpt>
      <trkpt lat="36.71745" lon="27.42349">
        <ele>19.414</ele>
      </trkpt>
      <trkpt lat="36.71745" lon="27.42353">
        <ele>20.461</ele>
      </trkpt>
      <trkpt lat="36.71747" lon="27.42357">
        <ele>20.688</ele>
      </trkpt>
      <trkpt lat="36.71751" lon="27.42359">
        <ele>20.381</ele>
      </trkpt>
      <trkpt lat="36.71752" lon="27.42361">
        <ele>20.521</ele>
      </trkpt>
      <trkpt lat="36.71757" lon="27.42368">
        <ele>21.017</ele>
      </trkpt>
      <trkpt lat="36.71758" lon="27.42367">
        <ele>20.494</ele>
      </trkpt>
      <trkpt lat="36.71762" lon="27.42366">
        <ele>19.09</ele>
      </trkpt>
      <trkpt lat="36.71764" lon="27.42361">
        <ele>16.934</ele>
      </trkpt>
      <trkpt lat="36.71767" lon="27.4236">
        <ele>15.668</ele>
      </trkpt>
      <trkpt lat="36.71767" lon="27.42361">
        <ele>15.957</ele>
      </trkpt>
      <trkpt lat="36.71767" lon="27.42361">
        <ele>16.061</ele>
      </trkpt>
      <trkpt lat="36.71764" lon="27.42354">
        <ele>15.009</ele>
      </trkpt>
      <trkpt lat="36.71767" lon="27.42346">
        <ele>11.539</ele>
      </trkpt>
      <trkpt lat="36.71769" lon="27.42345">
        <ele>10.763</ele>
      </trkpt>
      <trkpt lat="36.71777" lon="27.42348">
        <ele>8.425</ele>
      </trkpt>
      <trkpt lat="36.71784" lon="27.42345">
        <ele>6.273</ele>
      </trkpt>
      <trkpt lat="36.71791" lon="27.42343">
        <ele>4.413</ele>
      </trkpt>
      <trkpt lat="36.71797" lon="27.42344">
        <ele>3.787</ele>
      </trkpt>
      <trkpt lat="36.71798" lon="27.42347">
        <ele>4.289</ele>
      </trkpt>
      <trkpt lat="36.71799" lon="27.42345">
        <ele>3.667</ele>
      </trkpt>
      <trkpt lat="36.71802" lon="27.42346">
        <ele>3.385</ele>
      </trkpt>
      <trkpt lat="36.71808" lon="27.42349">
        <ele>3.197</ele>
      </trkpt>
      <trkpt lat="36.71809" lon="27.42351">
        <ele>3.429</ele>
      </trkpt>
      <trkpt lat="36.71813" lon="27.42351">
        <ele>3.257</ele>
      </trkpt>
      <trkpt lat="36.7182" lon="27.42354">
        <ele>3.195</ele>
      </trkpt>
      <trkpt lat="36.71822" lon="27.4236">
        <ele>3.756</ele>
      </trkpt>
      <trkpt lat="36.71824" lon="27.42364">
        <ele>4.226</ele>
      </trkpt>
      <trkpt lat="36.71825" lon="27.42372">
        <ele>6.025</ele>
      </trkpt>
      <trkpt lat="36.71827" lon="27.42377">
        <ele>6.472</ele>
      </trkpt>
      <trkpt lat="36.71827" lon="27.42374">
        <ele>6.029</ele>
      </trkpt>
      <trkpt lat="36.71827" lon="27.42367">
        <ele>4.673</ele>
      </trkpt>
      <trkpt lat="36.71828" lon="27.42367">
        <ele>4.604</ele>
      </trkpt>
      <trkpt lat="36.71834" lon="27.42372">
        <ele>4.497</ele>
      </trkpt>
      <trkpt lat="36.71836" lon="27.42371">
        <ele>4.357</ele>
      </trkpt>
      <trkpt lat="36.7184" lon="27.4237">
        <ele>4.193</ele>
      </trkpt>
      <trkpt lat="36.71849" lon="27.42363">
        <ele>3.234</ele>
      </trkpt>
      <trkpt lat="36.71859" lon="27.42362">
        <ele>3.118</ele>
      </trkpt>
      <trkpt lat="36.71859" lon="27.42362">
        <ele>3.111</ele>
      </trkpt>
      <trkpt lat="36.71871" lon="27.42366">
        <ele>3.194</ele>
      </trkpt>
      <trkpt lat="36.71877" lon="27.42367">
        <ele>3.03</ele>
      </trkpt>
      <trkpt lat="36.71881" lon="27.42368">
        <ele>3.082</ele>
      </trkpt>
      <trkpt lat="36.71888" lon="27.42369">
        <ele>2.846</ele>
      </trkpt>
      <trkpt lat="36.71889" lon="27.42368">
        <ele>2.778</ele>
      </trkpt>
      <trkpt lat="36.71893" lon="27.4237">
        <ele>2.736</ele>
      </trkpt>
      <trkpt lat="36.71899" lon="27.42376">
        <ele>2.982</ele>
      </trkpt>
      <trkpt lat="36.71911" lon="27.42376">
        <ele>2.406</ele>
      </trkpt>
      <trkpt lat="36.71913" lon="27.42375">
        <ele>2.235</ele>
      </trkpt>
      <trkpt lat="36.71917" lon="27.42374">
        <ele>1.899</ele>
      </trkpt>
      <trkpt lat="36.71926" lon="27.42378">
        <ele>1.837</ele>
      </trkpt>
      <trkpt lat="36.71932" lon="27.42391">
        <ele>2.695</ele>
      </trkpt>
      <trkpt lat="36.71932" lon="27.42392">
        <ele>2.913</ele>
      </trkpt>
      <trkpt lat="36.71932" lon="27.42393">
        <ele>3.03</ele>
      </trkpt>
      <trkpt lat="36.71936" lon="27.42405">
        <ele>4.609</ele>
      </trkpt>
      <trkpt lat="36.7194" lon="27.42408">
        <ele>4.615</ele>
      </trkpt>
      <trkpt lat="36.71946" lon="27.42418">
        <ele>4.915</ele>
      </trkpt>
      <trkpt lat="36.71951" lon="27.42434">
        <ele>4.358</ele>
      </trkpt>
      <trkpt lat="36.71955" lon="27.42453">
        <ele>3.813</ele>
      </trkpt>
      <trkpt lat="36.71958" lon="27.42469">
        <ele>3.552</ele>
      </trkpt>
      <trkpt lat="36.7196" lon="27.42483">
        <ele>3.692</ele>
      </trkpt>
      <trkpt lat="36.71955" lon="27.42492">
        <ele>4.605</ele>
      </trkpt>
      <trkpt lat="36.71958" lon="27.4251">
        <ele>5.767</ele>
      </trkpt>
      <trkpt lat="36.7196" lon="27.42525">
        <ele>6.923</ele>
      </trkpt>
      <trkpt lat="36.71961" lon="27.42542">
        <ele>9.139</ele>
      </trkpt>
      <trkpt lat="36.71961" lon="27.42558">
        <ele>10.824</ele>
      </trkpt>
      <trkpt lat="36.71961" lon="27.42579">
        <ele>10.708</ele>
      </trkpt>
      <trkpt lat="36.71962" lon="27.42596">
        <ele>10.385</ele>
      </trkpt>
      <trkpt lat="36.71964" lon="27.42613">
        <ele>10.446</ele>
      </trkpt>
      <trkpt lat="36.71965" lon="27.42627">
        <ele>12.076</ele>
      </trkpt>
      <trkpt lat="36.71965" lon="27.4266">
        <ele>16.187</ele>
      </trkpt>
      <trkpt lat="36.71967" lon="27.42682">
        <ele>17.012</ele>
      </trkpt>
      <trkpt lat="36.71969" lon="27.42694">
        <ele>16.877</ele>
      </trkpt>
      <trkpt lat="36.71971" lon="27.42712">
        <ele>15.593</ele>
      </trkpt>
      <trkpt lat="36.71973" lon="27.42719">
        <ele>15.501</ele>
      </trkpt>
      <trkpt lat="36.71982" lon="27.42732">
        <ele>20.607</ele>
      </trkpt>
      <trkpt lat="36.71994" lon="27.42748">
        <ele>27.53</ele>
      </trkpt>
      <trkpt lat="36.72001" lon="27.4276">
        <ele>30.279</ele>
      </trkpt>
      <trkpt lat="36.72004" lon="27.42776">
        <ele>31.332</ele>
      </trkpt>
      <trkpt lat="36.72" lon="27.42792">
        <ele>30.116</ele>
      </trkpt>
      <trkpt lat="36.71994" lon="27.42812">
        <ele>29.677</ele>
      </trkpt>
      <trkpt lat="36.71993" lon="27.42829">
        <ele>29.507</ele>
      </trkpt>
      <trkpt lat="36.71999" lon="27.42842">
        <ele>27.711</ele>
      </trkpt>
      <trkpt lat="36.72007" lon="27.42856">
        <ele>27.978</ele>
      </trkpt>
      <trkpt lat="36.72014" lon="27.4287">
        <ele>29.666</ele>
      </trkpt>
      <trkpt lat="36.72025" lon="27.42884">
        <ele>29.713</ele>
      </trkpt>
      <trkpt lat="36.72035" lon="27.42893">
        <ele>30.127</ele>
      </trkpt>
      <trkpt lat="36.72046" lon="27.42901">
        <ele>30.867</ele>
      </trkpt>
      <trkpt lat="36.72059" lon="27.42913">
        <ele>29.961</ele>
      </trkpt>
      <trkpt lat="36.72071" lon="27.42922">
        <ele>29.709</ele>
      </trkpt>
      <trkpt lat="36.72086" lon="27.42932">
        <ele>28.679</ele>
      </trkpt>
      <trkpt lat="36.72097" lon="27.42935">
        <ele>29.398</ele>
      </trkpt>
      <trkpt lat="36.7211" lon="27.42933">
        <ele>32.057</ele>
      </trkpt>
      <trkpt lat="36.72121" lon="27.42934">
        <ele>34.103</ele>
      </trkpt>
      <trkpt lat="36.72135" lon="27.42941">
        <ele>34.958</ele>
      </trkpt>
      <trkpt lat="36.72149" lon="27.42946">
        <ele>35.715</ele>
      </trkpt>
      <trkpt lat="36.72161" lon="27.42949">
        <ele>36.541</ele>
      </trkpt>
      <trkpt lat="36.7217" lon="27.42952">
        <ele>37.285</ele>
      </trkpt>
      <trkpt lat="36.72177" lon="27.4296">
        <ele>37.235</ele>
      </trkpt>
      <trkpt lat="36.72187" lon="27.4297">
        <ele>37.721</ele>
      </trkpt>
      <trkpt lat="36.722" lon="27.42977">
        <ele>39.672</ele>
      </trkpt>
      <trkpt lat="36.72217" lon="27.42982">
        <ele>41.707</ele>
      </trkpt>
      <trkpt lat="36.7223" lon="27.42985">
        <ele>44.35</ele>
      </trkpt>
      <trkpt lat="36.72246" lon="27.42991">
        <ele>48.595</ele>
      </trkpt>
      <trkpt lat="36.72266" lon="27.42999">
        <ele>52.165</ele>
      </trkpt>
      <trkpt lat="36.72281" lon="27.43003">
        <ele>54.217</ele>
      </trkpt>
      <trkpt lat="36.72295" lon="27.43007">
        <ele>53.805</ele>
      </trkpt>
      <trkpt lat="36.72306" lon="27.43006">
        <ele>54.351</ele>
      </trkpt>
      <trkpt lat="36.72318" lon="27.42997">
        <ele>55.436</ele>
      </trkpt>
      <trkpt lat="36.72333" lon="27.42987">
        <ele>55.954</ele>
      </trkpt>
      <trkpt lat="36.72352" lon="27.4298">
        <ele>56.698</ele>
      </trkpt>
      <trkpt lat="36.72364" lon="27.4298">
        <ele>56.981</ele>
      </trkpt>
      <trkpt lat="36.72383" lon="27.42978">
        <ele>58.277</ele>
      </trkpt>
      <trkpt lat="36.72397" lon="27.42976">
        <ele>58.829</ele>
      </trkpt>
      <trkpt lat="36.72411" lon="27.42967">
        <ele>59.254</ele>
      </trkpt>
      <trkpt lat="36.72423" lon="27.4296">
        <ele>59.25</ele>
      </trkpt>
      <trkpt lat="36.72432" lon="27.42955">
        <ele>58.949</ele>
      </trkpt>
      <trkpt lat="36.72436" lon="27.42955">
        <ele>58.762</ele>
      </trkpt>
      <trkpt lat="36.72458" lon="27.42967">
        <ele>58.812</ele>
      </trkpt>
      <trkpt lat="36.72508" lon="27.42983">
        <ele>61.399</ele>
      </trkpt>
      <trkpt lat="36.72509" lon="27.42982">
        <ele>61.353</ele>
      </trkpt>
      <trkpt lat="36.72518" lon="27.42982">
        <ele>62.101</ele>
      </trkpt>
      <trkpt lat="36.72523" lon="27.42984">
        <ele>62.731</ele>
      </trkpt>
      <trkpt lat="36.7253" lon="27.42994">
        <ele>65.282</ele>
      </trkpt>
      <trkpt lat="36.72524" lon="27.43011">
        <ele>68.27</ele>
      </trkpt>
      <trkpt lat="36.72522" lon="27.43013">
        <ele>68.506</ele>
      </trkpt>
      <trkpt lat="36.7252" lon="27.43021">
        <ele>70.069</ele>
      </trkpt>
      <trkpt lat="36.72514" lon="27.43031">
        <ele>71.002</ele>
      </trkpt>
      <trkpt lat="36.72507" lon="27.43045">
        <ele>72.1</ele>
      </trkpt>
      <trkpt lat="36.72499" lon="27.43062">
        <ele>72.68</ele>
      </trkpt>
      <trkpt lat="36.725" lon="27.43074">
        <ele>74.677</ele>
      </trkpt>
      <trkpt lat="36.72502" lon="27.4309">
        <ele>77.19</ele>
      </trkpt>
      <trkpt lat="36.72499" lon="27.43104">
        <ele>78.117</ele>
      </trkpt>
      <trkpt lat="36.72496" lon="27.4312">
        <ele>79.192</ele>
      </trkpt>
      <trkpt lat="36.72494" lon="27.43137">
        <ele>80.675</ele>
      </trkpt>
      <trkpt lat="36.7249" lon="27.43159">
        <ele>81.391</ele>
      </trkpt>
      <trkpt lat="36.72486" lon="27.43167">
        <ele>81.511</ele>
      </trkpt>
      <trkpt lat="36.72485" lon="27.43182">
        <ele>82.558</ele>
      </trkpt>
      <trkpt lat="36.72489" lon="27.432">
        <ele>83.778</ele>
      </trkpt>
      <trkpt lat="36.72494" lon="27.43223">
        <ele>84.768</ele>
      </trkpt>
      <trkpt lat="36.725" lon="27.43245">
        <ele>84.997</ele>
      </trkpt>
      <trkpt lat="36.72509" lon="27.43269">
        <ele>85.106</ele>
      </trkpt>
      <trkpt lat="36.72515" lon="27.4329">
        <ele>84.553</ele>
      </trkpt>
      <trkpt lat="36.72522" lon="27.43314">
        <ele>83.686</ele>
      </trkpt>
      <trkpt lat="36.72524" lon="27.43329">
        <ele>83.165</ele>
      </trkpt>
      <trkpt lat="36.72519" lon="27.43342">
        <ele>83.101</ele>
      </trkpt>
      <trkpt lat="36.72505" lon="27.4335">
        <ele>83.49</ele>
      </trkpt>
      <trkpt lat="36.72495" lon="27.4336">
        <ele>83.968</ele>
      </trkpt>
      <trkpt lat="36.72487" lon="27.43371">
        <ele>84.865</ele>
      </trkpt>
      <trkpt lat="36.72483" lon="27.43389">
        <ele>86.407</ele>
      </trkpt>
      <trkpt lat="36.72485" lon="27.43404">
        <ele>87.285</ele>
      </trkpt>
      <trkpt lat="36.72494" lon="27.43424">
        <ele>88.793</ele>
      </trkpt>
      <trkpt lat="36.72502" lon="27.43444">
        <ele>90.121</ele>
      </trkpt>
      <trkpt lat="36.72512" lon="27.43467">
        <ele>92.496</ele>
      </trkpt>
      <trkpt lat="36.72518" lon="27.43492">
        <ele>95.142</ele>
      </trkpt>
      <trkpt lat="36.72526" lon="27.43511">
        <ele>97.615</ele>
      </trkpt>
      <trkpt lat="36.72533" lon="27.43528">
        <ele>99.393</ele>
      </trkpt>
      <trkpt lat="36.72543" lon="27.43545">
        <ele>100.107</ele>
      </trkpt>
      <trkpt lat="36.72553" lon="27.43558">
        <ele>100.994</ele>
      </trkpt>
      <trkpt lat="36.72557" lon="27.43575">
        <ele>102.414</ele>
      </trkpt>
      <trkpt lat="36.72565" lon="27.43592">
        <ele>103.801</ele>
      </trkpt>
      <trkpt lat="36.72567" lon="27.43608">
        <ele>105.328</ele>
      </trkpt>
      <trkpt lat="36.72566" lon="27.43628">
        <ele>106.451</ele>
      </trkpt>
      <trkpt lat="36.72568" lon="27.43651">
        <ele>107.053</ele>
      </trkpt>
      <trkpt lat="36.72569" lon="27.43669">
        <ele>107.38</ele>
      </trkpt>
      <trkpt lat="36.7257" lon="27.43694">
        <ele>110.244</ele>
      </trkpt>
      <trkpt lat="36.7257" lon="27.43713">
        <ele>113.971</ele>
      </trkpt>
      <trkpt lat="36.72566" lon="27.43729">
        <ele>117.988</ele>
      </trkpt>
      <trkpt lat="36.72564" lon="27.43746">
        <ele>121.387</ele>
      </trkpt>
      <trkpt lat="36.72559" lon="27.43765">
        <ele>125.902</ele>
      </trkpt>
      <trkpt lat="36.72555" lon="27.43782">
        <ele>129.896</ele>
      </trkpt>
      <trkpt lat="36.72558" lon="27.43786">
        <ele>130.54</ele>
      </trkpt>
      <trkpt lat="36.72568" lon="27.43792">
        <ele>130.328</ele>
      </trkpt>
      <trkpt lat="36.72579" lon="27.43801">
        <ele>131.17</ele>
      </trkpt>
      <trkpt lat="36.7259" lon="27.43809">
        <ele>132.13</ele>
      </trkpt>
      <trkpt lat="36.72596" lon="27.43811">
        <ele>132.261</ele>
      </trkpt>
      <trkpt lat="36.72611" lon="27.43816">
        <ele>132.616</ele>
      </trkpt>
      <trkpt lat="36.72613" lon="27.43817">
        <ele>132.792</ele>
      </trkpt>
      <trkpt lat="36.72613" lon="27.43817">
        <ele>133.013</ele>
      </trkpt>
      <trkpt lat="36.72625" lon="27.43819">
        <ele>133.04</ele>
      </trkpt>
      <trkpt lat="36.72637" lon="27.43829">
        <ele>136.473</ele>
      </trkpt>
      <trkpt lat="36.7265" lon="27.43833">
        <ele>136.85</ele>
      </trkpt>
      <trkpt lat="36.72668" lon="27.43835">
        <ele>136.613</ele>
      </trkpt>
      <trkpt lat="36.72678" lon="27.43837">
        <ele>136.957</ele>
      </trkpt>
      <trkpt lat="36.72692" lon="27.43841">
        <ele>138.361</ele>
      </trkpt>
      <trkpt lat="36.72707" lon="27.43844">
        <ele>139.3</ele>
      </trkpt>
      <trkpt lat="36.72723" lon="27.43846">
        <ele>140.099</ele>
      </trkpt>
      <trkpt lat="36.72744" lon="27.43848">
        <ele>142.344</ele>
      </trkpt>
      <trkpt lat="36.72756" lon="27.43849">
        <ele>143.463</ele>
      </trkpt>
      <trkpt lat="36.72771" lon="27.4385">
        <ele>144.261</ele>
      </trkpt>
      <trkpt lat="36.72788" lon="27.4385">
        <ele>144.468</ele>
      </trkpt>
      <trkpt lat="36.72804" lon="27.43851">
        <ele>144.428</ele>
      </trkpt>
      <trkpt lat="36.72811" lon="27.4385">
        <ele>144.019</ele>
      </trkpt>
      <trkpt lat="36.72809" lon="27.4385">
        <ele>143.942</ele>
      </trkpt>
      <trkpt lat="36.72816" lon="27.4385">
        <ele>143.991</ele>
      </trkpt>
      <trkpt lat="36.72828" lon="27.43848">
        <ele>143.598</ele>
      </trkpt>
      <trkpt lat="36.72847" lon="27.43842">
        <ele>143.727</ele>
      </trkpt>
      <trkpt lat="36.72851" lon="27.43839">
        <ele>143.715</ele>
      </trkpt>
      <trkpt lat="36.72862" lon="27.43835">
        <ele>144.455</ele>
      </trkpt>
      <trkpt lat="36.72875" lon="27.43829">
        <ele>144.939</ele>
      </trkpt>
      <trkpt lat="36.72889" lon="27.43827">
        <ele>146.606</ele>
      </trkpt>
      <trkpt lat="36.72898" lon="27.43827">
        <ele>148.54</ele>
      </trkpt>
      <trkpt lat="36.72899" lon="27.43827">
        <ele>148.844</ele>
      </trkpt>
      <trkpt lat="36.72904" lon="27.43827">
        <ele>149.947</ele>
      </trkpt>
      <trkpt lat="36.72917" lon="27.43831">
        <ele>153.587</ele>
      </trkpt>
      <trkpt lat="36.72932" lon="27.4383">
        <ele>155.547</ele>
      </trkpt>
      <trkpt lat="36.72952" lon="27.43832">
        <ele>157.826</ele>
      </trkpt>
      <trkpt lat="36.7297" lon="27.43832">
        <ele>158.559</ele>
      </trkpt>
      <trkpt lat="36.72981" lon="27.43832">
        <ele>159.214</ele>
      </trkpt>
      <trkpt lat="36.72998" lon="27.43833">
        <ele>160.685</ele>
      </trkpt>
      <trkpt lat="36.73015" lon="27.43832">
        <ele>162.283</ele>
      </trkpt>
      <trkpt lat="36.73033" lon="27.43829">
        <ele>164.007</ele>
      </trkpt>
      <trkpt lat="36.73053" lon="27.43829">
        <ele>167.161</ele>
      </trkpt>
      <trkpt lat="36.73068" lon="27.4383">
        <ele>167.556</ele>
      </trkpt>
      <trkpt lat="36.73078" lon="27.43831">
        <ele>167.519</ele>
      </trkpt>
      <trkpt lat="36.73082" lon="27.43831">
        <ele>167.139</ele>
      </trkpt>
      <trkpt lat="36.73099" lon="27.43826">
        <ele>167.208</ele>
      </trkpt>
      <trkpt lat="36.73113" lon="27.43823">
        <ele>168.042</ele>
      </trkpt>
      <trkpt lat="36.73128" lon="27.43818">
        <ele>170.586</ele>
      </trkpt>
      <trkpt lat="36.73138" lon="27.43815">
        <ele>172.876</ele>
      </trkpt>
      <trkpt lat="36.73153" lon="27.43814">
        <ele>174.706</ele>
      </trkpt>
      <trkpt lat="36.73167" lon="27.43821">
        <ele>178.319</ele>
      </trkpt>
      <trkpt lat="36.73173" lon="27.43825">
        <ele>179.637</ele>
      </trkpt>
      <trkpt lat="36.73188" lon="27.43824">
        <ele>179.677</ele>
      </trkpt>
      <trkpt lat="36.732" lon="27.43827">
        <ele>180.436</ele>
      </trkpt>
      <trkpt lat="36.73213" lon="27.43829">
        <ele>181.495</ele>
      </trkpt>
      <trkpt lat="36.73225" lon="27.43833">
        <ele>182.951</ele>
      </trkpt>
      <trkpt lat="36.73234" lon="27.43835">
        <ele>184.631</ele>
      </trkpt>
      <trkpt lat="36.73246" lon="27.43837">
        <ele>186.168</ele>
      </trkpt>
      <trkpt lat="36.73252" lon="27.43836">
        <ele>186.456</ele>
      </trkpt>
      <trkpt lat="36.73261" lon="27.43832">
        <ele>186.119</ele>
      </trkpt>
      <trkpt lat="36.73267" lon="27.43829">
        <ele>186.691</ele>
      </trkpt>
      <trkpt lat="36.73278" lon="27.43829">
        <ele>188.298</ele>
      </trkpt>
      <trkpt lat="36.73283" lon="27.43828">
        <ele>189.104</ele>
      </trkpt>
      <trkpt lat="36.73295" lon="27.43823">
        <ele>191.05</ele>
      </trkpt>
      <trkpt lat="36.73307" lon="27.43827">
        <ele>194.045</ele>
      </trkpt>
      <trkpt lat="36.73316" lon="27.43826">
        <ele>197.207</ele>
      </trkpt>
      <trkpt lat="36.73325" lon="27.43826">
        <ele>200.278</ele>
      </trkpt>
      <trkpt lat="36.73331" lon="27.43823">
        <ele>202.143</ele>
      </trkpt>
      <trkpt lat="36.73339" lon="27.43821">
        <ele>205.021</ele>
      </trkpt>
      <trkpt lat="36.73345" lon="27.4382">
        <ele>207.489</ele>
      </trkpt>
      <trkpt lat="36.73348" lon="27.43811">
        <ele>208.01</ele>
      </trkpt>
      <trkpt lat="36.73358" lon="27.43801">
        <ele>211.53</ele>
      </trkpt>
      <trkpt lat="36.73366" lon="27.4379">
        <ele>214.871</ele>
      </trkpt>
      <trkpt lat="36.7337" lon="27.43785">
        <ele>216.235</ele>
      </trkpt>
      <trkpt lat="36.73374" lon="27.4379">
        <ele>217.686</ele>
      </trkpt>
      <trkpt lat="36.73377" lon="27.43788">
        <ele>218.83</ele>
      </trkpt>
      <trkpt lat="36.73378" lon="27.43786">
        <ele>219.047</ele>
      </trkpt>
      <trkpt lat="36.73381" lon="27.43782">
        <ele>219.988</ele>
      </trkpt>
      <trkpt lat="36.73385" lon="27.43775">
        <ele>221.722</ele>
      </trkpt>
      <trkpt lat="36.73389" lon="27.43764">
        <ele>223.424</ele>
      </trkpt>
      <trkpt lat="36.73391" lon="27.43749">
        <ele>225.081</ele>
      </trkpt>
      <trkpt lat="36.73393" lon="27.43734">
        <ele>226.594</ele>
      </trkpt>
      <trkpt lat="36.73397" lon="27.43724">
        <ele>227.934</ele>
      </trkpt>
      <trkpt lat="36.73403" lon="27.43717">
        <ele>229.182</ele>
      </trkpt>
      <trkpt lat="36.7341" lon="27.43709">
        <ele>230.793</ele>
      </trkpt>
      <trkpt lat="36.73412" lon="27.43699">
        <ele>230.764</ele>
      </trkpt>
      <trkpt lat="36.73415" lon="27.4369">
        <ele>231.579</ele>
      </trkpt>
      <trkpt lat="36.7342" lon="27.43677">
        <ele>232.794</ele>
      </trkpt>
      <trkpt lat="36.73425" lon="27.43669">
        <ele>233.987</ele>
      </trkpt>
      <trkpt lat="36.73431" lon="27.43655">
        <ele>235.244</ele>
      </trkpt>
      <trkpt lat="36.73437" lon="27.43644">
        <ele>236.767</ele>
      </trkpt>
      <trkpt lat="36.73448" lon="27.43641">
        <ele>239.486</ele>
      </trkpt>
      <trkpt lat="36.73459" lon="27.43628">
        <ele>241.244</ele>
      </trkpt>
      <trkpt lat="36.73466" lon="27.43621">
        <ele>242.53</ele>
      </trkpt>
      <trkpt lat="36.73475" lon="27.43617">
        <ele>243.449</ele>
      </trkpt>
      <trkpt lat="36.73479" lon="27.43614">
        <ele>243.133</ele>
      </trkpt>
      <trkpt lat="36.7349" lon="27.43614">
        <ele>242.004</ele>
      </trkpt>
      <trkpt lat="36.73494" lon="27.43609">
        <ele>241.893</ele>
      </trkpt>
      <trkpt lat="36.73503" lon="27.43602">
        <ele>241.085</ele>
      </trkpt>
      <trkpt lat="36.73511" lon="27.43596">
        <ele>239.296</ele>
      </trkpt>
      <trkpt lat="36.73515" lon="27.43595">
        <ele>238.422</ele>
      </trkpt>
      <trkpt lat="36.73521" lon="27.43597">
        <ele>236.574</ele>
      </trkpt>
      <trkpt lat="36.73519" lon="27.43611">
        <ele>236.132</ele>
      </trkpt>
      <trkpt lat="36.73524" lon="27.43618">
        <ele>234.952</ele>
      </trkpt>
      <trkpt lat="36.73527" lon="27.43623">
        <ele>234.153</ele>
      </trkpt>
      <trkpt lat="36.73535" lon="27.43626">
        <ele>231.259</ele>
      </trkpt>
      <trkpt lat="36.73541" lon="27.43632">
        <ele>228.969</ele>
      </trkpt>
      <trkpt lat="36.73541" lon="27.43632">
        <ele>228.726</ele>
      </trkpt>
      <trkpt lat="36.73547" lon="27.43627">
        <ele>226.333</ele>
      </trkpt>
      <trkpt lat="36.73548" lon="27.43636">
        <ele>225.878</ele>
      </trkpt>
      <trkpt lat="36.73548" lon="27.43642">
        <ele>225.939</ele>
      </trkpt>
      <trkpt lat="36.7355" lon="27.43654">
        <ele>225.766</ele>
      </trkpt>
      <trkpt lat="36.73553" lon="27.43659">
        <ele>224.829</ele>
      </trkpt>
      <trkpt lat="36.73557" lon="27.43668">
        <ele>223.749</ele>
      </trkpt>
      <trkpt lat="36.7356" lon="27.43675">
        <ele>223.536</ele>
      </trkpt>
      <trkpt lat="36.73567" lon="27.43679">
        <ele>221.23</ele>
      </trkpt>
      <trkpt lat="36.73579" lon="27.43691">
        <ele>219.647</ele>
      </trkpt>
      <trkpt lat="36.7359" lon="27.437">
        <ele>218.446</ele>
      </trkpt>
      <trkpt lat="36.73599" lon="27.43706">
        <ele>217.513</ele>
      </trkpt>
      <trkpt lat="36.73609" lon="27.43708">
        <ele>214.883</ele>
      </trkpt>
      <trkpt lat="36.73622" lon="27.43711">
        <ele>210.601</ele>
      </trkpt>
      <trkpt lat="36.73625" lon="27.43714">
        <ele>209.846</ele>
      </trkpt>
      <trkpt lat="36.73634" lon="27.43721">
        <ele>208.704</ele>
      </trkpt>
      <trkpt lat="36.73646" lon="27.43727">
        <ele>206.651</ele>
      </trkpt>
      <trkpt lat="36.73657" lon="27.43731">
        <ele>204.751</ele>
      </trkpt>
      <trkpt lat="36.73672" lon="27.43739">
        <ele>201.722</ele>
      </trkpt>
      <trkpt lat="36.73685" lon="27.43748">
        <ele>200.146</ele>
      </trkpt>
      <trkpt lat="36.73694" lon="27.43758">
        <ele>199.714</ele>
      </trkpt>
      <trkpt lat="36.737" lon="27.43766">
        <ele>199.169</ele>
      </trkpt>
      <trkpt lat="36.73708" lon="27.43774">
        <ele>198.68</ele>
      </trkpt>
      <trkpt lat="36.73716" lon="27.43789">
        <ele>200.202</ele>
      </trkpt>
      <trkpt lat="36.73723" lon="27.43804">
        <ele>201.65</ele>
      </trkpt>
      <trkpt lat="36.73727" lon="27.4382">
        <ele>203.134</ele>
      </trkpt>
      <trkpt lat="36.73731" lon="27.43831">
        <ele>203.893</ele>
      </trkpt>
      <trkpt lat="36.73736" lon="27.43839">
        <ele>202.144</ele>
      </trkpt>
      <trkpt lat="36.73738" lon="27.43845">
        <ele>201.363</ele>
      </trkpt>
      <trkpt lat="36.73742" lon="27.43857">
        <ele>199.673</ele>
      </trkpt>
      <trkpt lat="36.73743" lon="27.4387">
        <ele>199.319</ele>
      </trkpt>
      <trkpt lat="36.73743" lon="27.43884">
        <ele>199.341</ele>
      </trkpt>
      <trkpt lat="36.73743" lon="27.43896">
        <ele>199.14</ele>
      </trkpt>
      <trkpt lat="36.73745" lon="27.43901">
        <ele>197.656</ele>
      </trkpt>
      <trkpt lat="36.7375" lon="27.43912">
        <ele>194.298</ele>
      </trkpt>
      <trkpt lat="36.73751" lon="27.43915">
        <ele>193.895</ele>
      </trkpt>
      <trkpt lat="36.73758" lon="27.43922">
        <ele>191.955</ele>
      </trkpt>
      <trkpt lat="36.73765" lon="27.43936">
        <ele>190.4</ele>
      </trkpt>
      <trkpt lat="36.73773" lon="27.43947">
        <ele>187.797</ele>
      </trkpt>
      <trkpt lat="36.73775" lon="27.43959">
        <ele>186.686</ele>
      </trkpt>
      <trkpt lat="36.73777" lon="27.43972">
        <ele>185.205</ele>
      </trkpt>
      <trkpt lat="36.73773" lon="27.43986">
        <ele>187.734</ele>
      </trkpt>
      <trkpt lat="36.73773" lon="27.43988">
        <ele>187.727</ele>
      </trkpt>
      <trkpt lat="36.7377" lon="27.43998">
        <ele>189.794</ele>
      </trkpt>
      <trkpt lat="36.73775" lon="27.44005">
        <ele>187.924</ele>
      </trkpt>
      <trkpt lat="36.73776" lon="27.44006">
        <ele>187.083</ele>
      </trkpt>
      <trkpt lat="36.73789" lon="27.44009">
        <ele>182.886</ele>
      </trkpt>
      <trkpt lat="36.73792" lon="27.4401">
        <ele>181.99</ele>
      </trkpt>
      <trkpt lat="36.73797" lon="27.44011">
        <ele>180.412</ele>
      </trkpt>
      <trkpt lat="36.73801" lon="27.44012">
        <ele>178.95</ele>
      </trkpt>
      <trkpt lat="36.73813" lon="27.44017">
        <ele>175.217</ele>
      </trkpt>
      <trkpt lat="36.73823" lon="27.4402">
        <ele>172.106</ele>
      </trkpt>
      <trkpt lat="36.7383" lon="27.44027">
        <ele>170.201</ele>
      </trkpt>
      <trkpt lat="36.73831" lon="27.44033">
        <ele>169.148</ele>
      </trkpt>
      <trkpt lat="36.7383" lon="27.4403">
        <ele>169.787</ele>
      </trkpt>
      <trkpt lat="36.73831" lon="27.44036">
        <ele>168.373</ele>
      </trkpt>
      <trkpt lat="36.7383" lon="27.44044">
        <ele>167.362</ele>
      </trkpt>
      <trkpt lat="36.73829" lon="27.44047">
        <ele>167.319</ele>
      </trkpt>
      <trkpt lat="36.73826" lon="27.44053">
        <ele>167.843</ele>
      </trkpt>
      <trkpt lat="36.73824" lon="27.44062">
        <ele>167.975</ele>
      </trkpt>
      <trkpt lat="36.73823" lon="27.44062">
        <ele>168.64</ele>
      </trkpt>
      <trkpt lat="36.73822" lon="27.44064">
        <ele>168.927</ele>
      </trkpt>
      <trkpt lat="36.73816" lon="27.44079">
        <ele>170.405</ele>
      </trkpt>
      <trkpt lat="36.73809" lon="27.44087">
        <ele>172.47</ele>
      </trkpt>
      <trkpt lat="36.73805" lon="27.44089">
        <ele>174.07</ele>
      </trkpt>
      <trkpt lat="36.73795" lon="27.44098">
        <ele>175.459</ele>
      </trkpt>
      <trkpt lat="36.73793" lon="27.44102">
        <ele>175.453</ele>
      </trkpt>
      <trkpt lat="36.73787" lon="27.4411">
        <ele>176.15</ele>
      </trkpt>
      <trkpt lat="36.73783" lon="27.44113">
        <ele>177.459</ele>
      </trkpt>
      <trkpt lat="36.73779" lon="27.44121">
        <ele>177.68</ele>
      </trkpt>
      <trkpt lat="36.73775" lon="27.44129">
        <ele>178.248</ele>
      </trkpt>
      <trkpt lat="36.73776" lon="27.44135">
        <ele>176.892</ele>
      </trkpt>
      <trkpt lat="36.73776" lon="27.44148">
        <ele>175.581</ele>
      </trkpt>
      <trkpt lat="36.73772" lon="27.44162">
        <ele>176.715</ele>
      </trkpt>
      <trkpt lat="36.73771" lon="27.44165">
        <ele>177.089</ele>
      </trkpt>
      <trkpt lat="36.73777" lon="27.44178">
        <ele>174.49</ele>
      </trkpt>
      <trkpt lat="36.73779" lon="27.4418">
        <ele>174.049</ele>
      </trkpt>
      <trkpt lat="36.73789" lon="27.4419">
        <ele>172.018</ele>
      </trkpt>
      <trkpt lat="36.7379" lon="27.44193">
        <ele>171.796</ele>
      </trkpt>
      <trkpt lat="36.73796" lon="27.44192">
        <ele>169.71</ele>
      </trkpt>
      <trkpt lat="36.73808" lon="27.44192">
        <ele>166.169</ele>
      </trkpt>
      <trkpt lat="36.73819" lon="27.44191">
        <ele>163.656</ele>
      </trkpt>
      <trkpt lat="36.73827" lon="27.44193">
        <ele>162.285</ele>
      </trkpt>
      <trkpt lat="36.73835" lon="27.44193">
        <ele>160.184</ele>
      </trkpt>
      <trkpt lat="36.73838" lon="27.44192">
        <ele>159.15</ele>
      </trkpt>
      <trkpt lat="36.73841" lon="27.44193">
        <ele>158.468</ele>
      </trkpt>
      <trkpt lat="36.73845" lon="27.44195">
        <ele>157.3</ele>
      </trkpt>
      <trkpt lat="36.73846" lon="27.44207">
        <ele>158.964</ele>
      </trkpt>
      <trkpt lat="36.73846" lon="27.44218">
        <ele>160.946</ele>
      </trkpt>
      <trkpt lat="36.73848" lon="27.44224">
        <ele>160.907</ele>
      </trkpt>
      <trkpt lat="36.73859" lon="27.44229">
        <ele>157.199</ele>
      </trkpt>
      <trkpt lat="36.73868" lon="27.44235">
        <ele>153.724</ele>
      </trkpt>
      <trkpt lat="36.73878" lon="27.44247">
        <ele>150.967</ele>
      </trkpt>
      <trkpt lat="36.73886" lon="27.44258">
        <ele>149.675</ele>
      </trkpt>
      <trkpt lat="36.73888" lon="27.44269">
        <ele>150.906</ele>
      </trkpt>
      <trkpt lat="36.73886" lon="27.44278">
        <ele>152.903</ele>
      </trkpt>
      <trkpt lat="36.73893" lon="27.44286">
        <ele>152.37</ele>
      </trkpt>
      <trkpt lat="36.73899" lon="27.44293">
        <ele>151.595</ele>
      </trkpt>
      <trkpt lat="36.73909" lon="27.443">
        <ele>149.257</ele>
      </trkpt>
      <trkpt lat="36.73917" lon="27.44302">
        <ele>146.396</ele>
      </trkpt>
      <trkpt lat="36.73925" lon="27.44309">
        <ele>144.328</ele>
      </trkpt>
      <trkpt lat="36.73935" lon="27.44317">
        <ele>141.122</ele>
      </trkpt>
      <trkpt lat="36.73943" lon="27.44319">
        <ele>138.569</ele>
      </trkpt>
      <trkpt lat="36.73944" lon="27.44319">
        <ele>138.259</ele>
      </trkpt>
      <trkpt lat="36.73947" lon="27.44323">
        <ele>137.592</ele>
      </trkpt>
      <trkpt lat="36.73951" lon="27.44325">
        <ele>136.827</ele>
      </trkpt>
      <trkpt lat="36.73958" lon="27.4432">
        <ele>135.162</ele>
      </trkpt>
      <trkpt lat="36.73961" lon="27.44324">
        <ele>134.31</ele>
      </trkpt>
      <trkpt lat="36.73957" lon="27.44334">
        <ele>135.419</ele>
      </trkpt>
      <trkpt lat="36.7396" lon="27.44337">
        <ele>134.872</ele>
      </trkpt>
      <trkpt lat="36.7396" lon="27.44343">
        <ele>135.306</ele>
      </trkpt>
      <trkpt lat="36.7396" lon="27.44346">
        <ele>135.581</ele>
      </trkpt>
      <trkpt lat="36.73955" lon="27.44362">
        <ele>138.629</ele>
      </trkpt>
      <trkpt lat="36.7395" lon="27.4437">
        <ele>142.465</ele>
      </trkpt>
      <trkpt lat="36.73956" lon="27.44369">
        <ele>140.32</ele>
      </trkpt>
      <trkpt lat="36.73964" lon="27.44364">
        <ele>136.49</ele>
      </trkpt>
      <trkpt lat="36.73972" lon="27.44364">
        <ele>133.883</ele>
      </trkpt>
      <trkpt lat="36.73976" lon="27.44363">
        <ele>132.457</ele>
      </trkpt>
      <trkpt lat="36.73988" lon="27.44365">
        <ele>130.055</ele>
      </trkpt>
      <trkpt lat="36.73998" lon="27.4437">
        <ele>128.002</ele>
      </trkpt>
      <trkpt lat="36.74004" lon="27.4437">
        <ele>126.778</ele>
      </trkpt>
      <trkpt lat="36.74009" lon="27.44369">
        <ele>125.525</ele>
      </trkpt>
      <trkpt lat="36.74006" lon="27.44366">
        <ele>125.596</ele>
      </trkpt>
      <trkpt lat="36.74003" lon="27.44359">
        <ele>125.462</ele>
      </trkpt>
      <trkpt lat="36.74015" lon="27.44361">
        <ele>123.332</ele>
      </trkpt>
      <trkpt lat="36.7402" lon="27.44357">
        <ele>122.626</ele>
      </trkpt>
      <trkpt lat="36.7403" lon="27.44362">
        <ele>120.322</ele>
      </trkpt>
      <trkpt lat="36.74036" lon="27.44364">
        <ele>118.216</ele>
      </trkpt>
      <trkpt lat="36.74043" lon="27.44365">
        <ele>115.561</ele>
      </trkpt>
      <trkpt lat="36.74043" lon="27.44355">
        <ele>116.212</ele>
      </trkpt>
      <trkpt lat="36.74052" lon="27.44356">
        <ele>112.768</ele>
      </trkpt>
      <trkpt lat="36.74056" lon="27.44356">
        <ele>111.422</ele>
      </trkpt>
      <trkpt lat="36.74066" lon="27.44347">
        <ele>105.895</ele>
      </trkpt>
      <trkpt lat="36.74073" lon="27.44346">
        <ele>100.787</ele>
      </trkpt>
      <trkpt lat="36.74074" lon="27.4435">
        <ele>99.98</ele>
      </trkpt>
      <trkpt lat="36.74085" lon="27.44348">
        <ele>93.453</ele>
      </trkpt>
      <trkpt lat="36.74087" lon="27.44349">
        <ele>92.364</ele>
      </trkpt>
      <trkpt lat="36.74094" lon="27.44355">
        <ele>89.17</ele>
      </trkpt>
      <trkpt lat="36.74101" lon="27.44356">
        <ele>86.253</ele>
      </trkpt>
      <trkpt lat="36.74104" lon="27.44363">
        <ele>84.894</ele>
      </trkpt>
      <trkpt lat="36.74107" lon="27.4437">
        <ele>84.154</ele>
      </trkpt>
      <trkpt lat="36.7411" lon="27.44391">
        <ele>84.142</ele>
      </trkpt>
      <trkpt lat="36.74114" lon="27.44402">
        <ele>86.185</ele>
      </trkpt>
      <trkpt lat="36.74123" lon="27.44408">
        <ele>82.49</ele>
      </trkpt>
      <trkpt lat="36.74126" lon="27.44414">
        <ele>82.459</ele>
      </trkpt>
      <trkpt lat="36.74132" lon="27.44416">
        <ele>79.159</ele>
      </trkpt>
      <trkpt lat="36.74139" lon="27.44415">
        <ele>74.664</ele>
      </trkpt>
      <trkpt lat="36.74139" lon="27.44411">
        <ele>74.032</ele>
      </trkpt>
      <trkpt lat="36.74138" lon="27.4441">
        <ele>74.264</ele>
      </trkpt>
      <trkpt lat="36.74133" lon="27.44397">
        <ele>74.364</ele>
      </trkpt>
      <trkpt lat="36.74138" lon="27.444">
        <ele>72.271</ele>
      </trkpt>
      <trkpt lat="36.7415" lon="27.44404">
        <ele>67.676</ele>
      </trkpt>
      <trkpt lat="36.74149" lon="27.44395">
        <ele>66.503</ele>
      </trkpt>
      <trkpt lat="36.7415" lon="27.44394">
        <ele>66.204</ele>
      </trkpt>
      <trkpt lat="36.74156" lon="27.44399">
        <ele>64.034</ele>
      </trkpt>
      <trkpt lat="36.74164" lon="27.44406">
        <ele>61.269</ele>
      </trkpt>
      <trkpt lat="36.74167" lon="27.44408">
        <ele>59.864</ele>
      </trkpt>
      <trkpt lat="36.74168" lon="27.44403">
        <ele>58.732</ele>
      </trkpt>
      <trkpt lat="36.74175" lon="27.44404">
        <ele>55.432</ele>
      </trkpt>
      <trkpt lat="36.74184" lon="27.44408">
        <ele>51.317</ele>
      </trkpt>
      <trkpt lat="36.74193" lon="27.44409">
        <ele>46.971</ele>
      </trkpt>
      <trkpt lat="36.74201" lon="27.4441">
        <ele>44.632</ele>
      </trkpt>
      <trkpt lat="36.74207" lon="27.44413">
        <ele>43.074</ele>
      </trkpt>
      <trkpt lat="36.74209" lon="27.44405">
        <ele>41.989</ele>
      </trkpt>
      <trkpt lat="36.74212" lon="27.44408">
        <ele>41.228</ele>
      </trkpt>
      <trkpt lat="36.74216" lon="27.4441">
        <ele>40.385</ele>
      </trkpt>
      <trkpt lat="36.7422" lon="27.44411">
        <ele>39.235</ele>
      </trkpt>
      <trkpt lat="36.74231" lon="27.4441">
        <ele>36.347</ele>
      </trkpt>
      <trkpt lat="36.74232" lon="27.44407">
        <ele>35.81</ele>
      </trkpt>
      <trkpt lat="36.74234" lon="27.44406">
        <ele>35.004</ele>
      </trkpt>
      <trkpt lat="36.74238" lon="27.44409">
        <ele>34.294</ele>
      </trkpt>
      <trkpt lat="36.74234" lon="27.4441">
        <ele>35.334</ele>
      </trkpt>
      <trkpt lat="36.74238" lon="27.44406">
        <ele>34.1</ele>
      </trkpt>
      <trkpt lat="36.74242" lon="27.44407">
        <ele>33.172</ele>
      </trkpt>
      <trkpt lat="36.74247" lon="27.44408">
        <ele>31.791</ele>
      </trkpt>
      <trkpt lat="36.74249" lon="27.44401">
        <ele>30.482</ele>
      </trkpt>
      <trkpt lat="36.74253" lon="27.44403">
        <ele>29.656</ele>
      </trkpt>
      <trkpt lat="36.74259" lon="27.444">
        <ele>27.999</ele>
      </trkpt>
      <trkpt lat="36.74264" lon="27.44398">
        <ele>26.397</ele>
      </trkpt>
      <trkpt lat="36.74265" lon="27.44397">
        <ele>26.124</ele>
      </trkpt>
      <trkpt lat="36.74268" lon="27.44398">
        <ele>25.518</ele>
      </trkpt>
      <trkpt lat="36.74274" lon="27.44398">
        <ele>23.923</ele>
      </trkpt>
      <trkpt lat="36.74282" lon="27.44401">
        <ele>22.502</ele>
      </trkpt>
      <trkpt lat="36.74282" lon="27.44401">
        <ele>22.522</ele>
      </trkpt>
      <trkpt lat="36.74285" lon="27.44409">
        <ele>22.486</ele>
      </trkpt>
      <trkpt lat="36.74291" lon="27.4441">
        <ele>21.281</ele>
      </trkpt>
      <trkpt lat="36.74295" lon="27.44418">
        <ele>20.628</ele>
      </trkpt>
      <trkpt lat="36.74299" lon="27.44427">
        <ele>20.023</ele>
      </trkpt>
      <trkpt lat="36.74299" lon="27.44427">
        <ele>19.858</ele>
      </trkpt>
      <trkpt lat="36.74299" lon="27.44433">
        <ele>20.209</ele>
      </trkpt>
      <trkpt lat="36.74304" lon="27.44442">
        <ele>19.283</ele>
      </trkpt>
      <trkpt lat="36.74304" lon="27.44442">
        <ele>19.258</ele>
      </trkpt>
      <trkpt lat="36.74313" lon="27.44473">
        <ele>19.278</ele>
      </trkpt>
      <trkpt lat="36.74314" lon="27.44474">
        <ele>19.281</ele>
      </trkpt>
      <trkpt lat="36.74324" lon="27.44501">
        <ele>20.123</ele>
      </trkpt>
      <trkpt lat="36.74335" lon="27.44523">
        <ele>19.075</ele>
      </trkpt>
      <trkpt lat="36.74341" lon="27.44542">
        <ele>18.465</ele>
      </trkpt>
      <trkpt lat="36.74342" lon="27.44561">
        <ele>18.595</ele>
      </trkpt>
      <trkpt lat="36.74337" lon="27.44581">
        <ele>19.768</ele>
      </trkpt>
      <trkpt lat="36.74336" lon="27.44598">
        <ele>18.916</ele>
      </trkpt>
      <trkpt lat="36.74342" lon="27.44615">
        <ele>15.423</ele>
      </trkpt>
      <trkpt lat="36.74351" lon="27.44624">
        <ele>12.082</ele>
      </trkpt>
      <trkpt lat="36.74357" lon="27.4463">
        <ele>10.131</ele>
      </trkpt>
      <trkpt lat="36.74356" lon="27.44648">
        <ele>9.917</ele>
      </trkpt>
      <trkpt lat="36.74356" lon="27.44668">
        <ele>9.16</ele>
      </trkpt>
      <trkpt lat="36.74364" lon="27.44684">
        <ele>7.556</ele>
      </trkpt>
      <trkpt lat="36.74375" lon="27.44702">
        <ele>5.427</ele>
      </trkpt>
      <trkpt lat="36.74388" lon="27.44718">
        <ele>3.197</ele>
      </trkpt>
      <trkpt lat="36.74391" lon="27.44724">
        <ele>3.069</ele>
      </trkpt>
      <trkpt lat="36.74375" lon="27.44735">
        <ele>5.921</ele>
      </trkpt>
      <trkpt lat="36.74379" lon="27.44754">
        <ele>6.058</ele>
      </trkpt>
      <trkpt lat="36.74357" lon="27.44771">
        <ele>7.675</ele>
      </trkpt>
      <trkpt lat="36.74344" lon="27.44783">
        <ele>8.646</ele>
      </trkpt>
      <trkpt lat="36.74337" lon="27.4479">
        <ele>9.507</ele>
      </trkpt>
      <trkpt lat="36.74339" lon="27.44814">
        <ele>9.114</ele>
      </trkpt>
      <trkpt lat="36.74338" lon="27.44828">
        <ele>9.295</ele>
      </trkpt>
      <trkpt lat="36.74335" lon="27.44847">
        <ele>9.87</ele>
      </trkpt>
      <trkpt lat="36.74338" lon="27.44859">
        <ele>9.626</ele>
      </trkpt>
      <trkpt lat="36.74341" lon="27.44864">
        <ele>9.737</ele>
      </trkpt>
      <trkpt lat="36.74343" lon="27.4487">
        <ele>10.04</ele>
      </trkpt>
      <trkpt lat="36.74344" lon="27.44875">
        <ele>10.454</ele>
      </trkpt>
      <trkpt lat="36.74341" lon="27.44879">
        <ele>10.899</ele>
      </trkpt>
      <trkpt lat="36.74339" lon="27.44882">
        <ele>11.236</ele>
      </trkpt>
      <trkpt lat="36.74336" lon="27.44885">
        <ele>11.634</ele>
      </trkpt>
      <trkpt lat="36.74335" lon="27.44888">
        <ele>11.86</ele>
      </trkpt>
      <trkpt lat="36.74331" lon="27.44892">
        <ele>12.274</ele>
      </trkpt>
      <trkpt lat="36.74329" lon="27.44895">
        <ele>12.58</ele>
      </trkpt>
      <trkpt lat="36.74327" lon="27.44899">
        <ele>13.008</ele>
      </trkpt>
      <trkpt lat="36.74324" lon="27.44901">
        <ele>13.387</ele>
      </trkpt>
      <trkpt lat="36.74322" lon="27.44904">
        <ele>13.796</ele>
      </trkpt>
      <trkpt lat="36.74322" lon="27.44909">
        <ele>14.149</ele>
      </trkpt>
      <trkpt lat="36.74323" lon="27.44913">
        <ele>14.286</ele>
      </trkpt>
      <trkpt lat="36.74323" lon="27.44916">
        <ele>14.467</ele>
      </trkpt>
      <trkpt lat="36.74323" lon="27.44922">
        <ele>15.108</ele>
      </trkpt>
      <trkpt lat="36.74323" lon="27.44927">
        <ele>15.68</ele>
      </trkpt>
      <trkpt lat="36.74323" lon="27.44933">
        <ele>16.397</ele>
      </trkpt>
      <trkpt lat="36.74322" lon="27.44938">
        <ele>17.105</ele>
      </trkpt>
      <trkpt lat="36.74323" lon="27.44944">
        <ele>17.704</ele>
      </trkpt>
      <trkpt lat="36.74322" lon="27.44948">
        <ele>17.881</ele>
      </trkpt>
      <trkpt lat="36.74321" lon="27.44952">
        <ele>18.049</ele>
      </trkpt>
      <trkpt lat="36.74322" lon="27.44958">
        <ele>18.119</ele>
      </trkpt>
      <trkpt lat="36.74323" lon="27.44961">
        <ele>18.137</ele>
      </trkpt>
      <trkpt lat="36.74323" lon="27.44966">
        <ele>18.208</ele>
      </trkpt>
      <trkpt lat="36.74325" lon="27.44971">
        <ele>18.275</ele>
      </trkpt>
      <trkpt lat="36.74326" lon="27.44978">
        <ele>18.587</ele>
      </trkpt>
      <trkpt lat="36.74329" lon="27.44981">
        <ele>18.762</ele>
      </trkpt>
      <trkpt lat="36.74331" lon="27.44986">
        <ele>19.023</ele>
      </trkpt>
      <trkpt lat="36.74333" lon="27.4499">
        <ele>19.31</ele>
      </trkpt>
      <trkpt lat="36.74335" lon="27.44995">
        <ele>19.412</ele>
      </trkpt>
      <trkpt lat="36.74337" lon="27.44998">
        <ele>19.377</ele>
      </trkpt>
      <trkpt lat="36.74339" lon="27.45004">
        <ele>19.507</ele>
      </trkpt>
      <trkpt lat="36.74341" lon="27.45008">
        <ele>19.415</ele>
      </trkpt>
      <trkpt lat="36.74343" lon="27.45011">
        <ele>19.378</ele>
      </trkpt>
      <trkpt lat="36.74345" lon="27.45013">
        <ele>19.264</ele>
      </trkpt>
      <trkpt lat="36.74348" lon="27.45018">
        <ele>19.249</ele>
      </trkpt>
      <trkpt lat="36.74352" lon="27.45024">
        <ele>19.039</ele>
      </trkpt>
      <trkpt lat="36.74354" lon="27.4503">
        <ele>19.073</ele>
      </trkpt>
      <trkpt lat="36.74355" lon="27.45035">
        <ele>19.141</ele>
      </trkpt>
      <trkpt lat="36.74357" lon="27.4504">
        <ele>19.01</ele>
      </trkpt>
      <trkpt lat="36.74359" lon="27.45045">
        <ele>18.879</ele>
      </trkpt>
      <trkpt lat="36.74361" lon="27.4505">
        <ele>18.754</ele>
      </trkpt>
      <trkpt lat="36.74365" lon="27.45053">
        <ele>18.505</ele>
      </trkpt>
      <trkpt lat="36.74366" lon="27.45059">
        <ele>18.575</ele>
      </trkpt>
      <trkpt lat="36.74369" lon="27.45065">
        <ele>18.533</ele>
      </trkpt>
      <trkpt lat="36.74371" lon="27.45068">
        <ele>18.513</ele>
      </trkpt>
      <trkpt lat="36.74374" lon="27.45071">
        <ele>18.417</ele>
      </trkpt>
      <trkpt lat="36.74379" lon="27.45082">
        <ele>18.608</ele>
      </trkpt>
      <trkpt lat="36.74381" lon="27.45086">
        <ele>18.797</ele>
      </trkpt>
      <trkpt lat="36.74383" lon="27.45093">
        <ele>19.111</ele>
      </trkpt>
      <trkpt lat="36.74386" lon="27.45099">
        <ele>19.326</ele>
      </trkpt>
      <trkpt lat="36.74388" lon="27.45105">
        <ele>19.641</ele>
      </trkpt>
      <trkpt lat="36.74388" lon="27.4511">
        <ele>19.95</ele>
      </trkpt>
      <trkpt lat="36.74389" lon="27.45115">
        <ele>20.264</ele>
      </trkpt>
      <trkpt lat="36.74389" lon="27.45121">
        <ele>20.668</ele>
      </trkpt>
      <trkpt lat="36.74391" lon="27.45125">
        <ele>20.78</ele>
      </trkpt>
      <trkpt lat="36.74392" lon="27.45131">
        <ele>20.978</ele>
      </trkpt>
      <trkpt lat="36.74392" lon="27.45137">
        <ele>21.384</ele>
      </trkpt>
      <trkpt lat="36.74393" lon="27.45144">
        <ele>21.958</ele>
      </trkpt>
      <trkpt lat="36.74394" lon="27.45149">
        <ele>22.413</ele>
      </trkpt>
      <trkpt lat="36.74394" lon="27.45155">
        <ele>23.045</ele>
      </trkpt>
      <trkpt lat="36.74396" lon="27.45161">
        <ele>23.307</ele>
      </trkpt>
      <trkpt lat="36.74398" lon="27.45165">
        <ele>23.591</ele>
      </trkpt>
      <trkpt lat="36.74399" lon="27.45172">
        <ele>23.853</ele>
      </trkpt>
      <trkpt lat="36.744" lon="27.45178">
        <ele>24.27</ele>
      </trkpt>
      <trkpt lat="36.74402" lon="27.45184">
        <ele>24.333</ele>
      </trkpt>
      <trkpt lat="36.74405" lon="27.4519">
        <ele>24.396</ele>
      </trkpt>
      <trkpt lat="36.74405" lon="27.45198">
        <ele>24.929</ele>
      </trkpt>
      <trkpt lat="36.74406" lon="27.45208">
        <ele>25.627</ele>
      </trkpt>
      <trkpt lat="36.74407" lon="27.45214">
        <ele>25.994</ele>
      </trkpt>
      <trkpt lat="36.74407" lon="27.4522">
        <ele>26.508</ele>
      </trkpt>
      <trkpt lat="36.74406" lon="27.45225">
        <ele>26.743</ele>
      </trkpt>
      <trkpt lat="36.74409" lon="27.45231">
        <ele>26.562</ele>
      </trkpt>
      <trkpt lat="36.74409" lon="27.45236">
        <ele>26.566</ele>
      </trkpt>
      <trkpt lat="36.74409" lon="27.45243">
        <ele>26.547</ele>
      </trkpt>
      <trkpt lat="36.7441" lon="27.45248">
        <ele>26.481</ele>
      </trkpt>
      <trkpt lat="36.7441" lon="27.45256">
        <ele>26.667</ele>
      </trkpt>
      <trkpt lat="36.7441" lon="27.45261">
        <ele>26.796</ele>
      </trkpt>
      <trkpt lat="36.74408" lon="27.45265">
        <ele>27.001</ele>
      </trkpt>
      <trkpt lat="36.74408" lon="27.45273">
        <ele>27.202</ele>
      </trkpt>
      <trkpt lat="36.74406" lon="27.45279">
        <ele>27.458</ele>
      </trkpt>
      <trkpt lat="36.74404" lon="27.45283">
        <ele>27.835</ele>
      </trkpt>
      <trkpt lat="36.74403" lon="27.45286">
        <ele>28.108</ele>
      </trkpt>
      <trkpt lat="36.74402" lon="27.45292">
        <ele>28.546</ele>
      </trkpt>
      <trkpt lat="36.744" lon="27.45298">
        <ele>28.935</ele>
      </trkpt>
      <trkpt lat="36.74397" lon="27.45302">
        <ele>29.072</ele>
      </trkpt>
      <trkpt lat="36.74398" lon="27.45308">
        <ele>29.502</ele>
      </trkpt>
      <trkpt lat="36.74395" lon="27.45313">
        <ele>29.791</ele>
      </trkpt>
      <trkpt lat="36.74392" lon="27.4532">
        <ele>30.148</ele>
      </trkpt>
      <trkpt lat="36.74389" lon="27.45325">
        <ele>30.437</ele>
      </trkpt>
      <trkpt lat="36.74388" lon="27.45331">
        <ele>30.881</ele>
      </trkpt>
      <trkpt lat="36.74385" lon="27.45337">
        <ele>32.011</ele>
      </trkpt>
      <trkpt lat="36.74383" lon="27.45344">
        <ele>33.464</ele>
      </trkpt>
      <trkpt lat="36.74381" lon="27.45349">
        <ele>34.507</ele>
      </trkpt>
      <trkpt lat="36.7438" lon="27.45354">
        <ele>35.461</ele>
      </trkpt>
      <trkpt lat="36.74379" lon="27.45359">
        <ele>36.405</ele>
      </trkpt>
      <trkpt lat="36.7438" lon="27.45364">
        <ele>37.138</ele>
      </trkpt>
      <trkpt lat="36.74381" lon="27.4537">
        <ele>38.267</ele>
      </trkpt>
      <trkpt lat="36.74381" lon="27.45371">
        <ele>38.432</ele>
      </trkpt>
      <trkpt lat="36.74377" lon="27.45374">
        <ele>38.964</ele>
      </trkpt>
      <trkpt lat="36.7438" lon="27.45375">
        <ele>39.156</ele>
      </trkpt>
      <trkpt lat="36.74385" lon="27.45372">
        <ele>38.476</ele>
      </trkpt>
      <trkpt lat="36.74389" lon="27.45372">
        <ele>38.356</ele>
      </trkpt>
      <trkpt lat="36.7439" lon="27.45371">
        <ele>38.098</ele>
      </trkpt>
      <trkpt lat="36.74398" lon="27.45369">
        <ele>37.347</ele>
      </trkpt>
      <trkpt lat="36.74404" lon="27.45368">
        <ele>36.797</ele>
      </trkpt>
      <trkpt lat="36.7441" lon="27.45366">
        <ele>36.19</ele>
      </trkpt>
      <trkpt lat="36.74413" lon="27.45367">
        <ele>36.227</ele>
      </trkpt>
      <trkpt lat="36.74421" lon="27.45367">
        <ele>35.923</ele>
      </trkpt>
      <trkpt lat="36.74422" lon="27.45368">
        <ele>35.988</ele>
      </trkpt>
      <trkpt lat="36.74429" lon="27.45368">
        <ele>35.764</ele>
      </trkpt>
      <trkpt lat="36.74433" lon="27.45368">
        <ele>35.665</ele>
      </trkpt>
      <trkpt lat="36.74435" lon="27.45369">
        <ele>35.749</ele>
      </trkpt>
      <trkpt lat="36.74441" lon="27.45368">
        <ele>35.357</ele>
      </trkpt>
      <trkpt lat="36.74443" lon="27.45368">
        <ele>35.34</ele>
      </trkpt>
      <trkpt lat="36.74452" lon="27.45368">
        <ele>35.079</ele>
      </trkpt>
      <trkpt lat="36.74453" lon="27.45368">
        <ele>35.119</ele>
      </trkpt>
      <trkpt lat="36.74459" lon="27.45371">
        <ele>35.326</ele>
      </trkpt>
      <trkpt lat="36.74463" lon="27.45372">
        <ele>35.434</ele>
      </trkpt>
      <trkpt lat="36.74468" lon="27.45371">
        <ele>35.222</ele>
      </trkpt>
      <trkpt lat="36.74477" lon="27.45371">
        <ele>34.917</ele>
      </trkpt>
      <trkpt lat="36.74482" lon="27.4537">
        <ele>34.632</ele>
      </trkpt>
      <trkpt lat="36.74483" lon="27.45369">
        <ele>34.428</ele>
      </trkpt>
      <trkpt lat="36.74489" lon="27.45369">
        <ele>34.089</ele>
      </trkpt>
      <trkpt lat="36.74494" lon="27.4537">
        <ele>34.159</ele>
      </trkpt>
      <trkpt lat="36.74497" lon="27.45371">
        <ele>34.177</ele>
      </trkpt>
      <trkpt lat="36.74501" lon="27.45374">
        <ele>34.747</ele>
      </trkpt>
      <trkpt lat="36.74502" lon="27.45383">
        <ele>36.532</ele>
      </trkpt>
      <trkpt lat="36.74499" lon="27.45383">
        <ele>36.605</ele>
      </trkpt>
      <trkpt lat="36.74496" lon="27.4538">
        <ele>36.117</ele>
      </trkpt>
      <trkpt lat="36.74491" lon="27.45378">
        <ele>35.769</ele>
      </trkpt>
      <trkpt lat="36.74493" lon="27.45377">
        <ele>35.574</ele>
      </trkpt>
      <trkpt lat="36.74498" lon="27.45381">
        <ele>36.376</ele>
      </trkpt>
      <trkpt lat="36.74503" lon="27.45384">
        <ele>36.527</ele>
      </trkpt>
      <trkpt lat="36.74508" lon="27.45386">
        <ele>36.31</ele>
      </trkpt>
      <trkpt lat="36.74514" lon="27.45387">
        <ele>35.474</ele>
      </trkpt>
      <trkpt lat="36.74515" lon="27.45387">
        <ele>35.311</ele>
      </trkpt>
      <trkpt lat="36.74525" lon="27.45388">
        <ele>34.103</ele>
      </trkpt>
      <trkpt lat="36.74528" lon="27.4539">
        <ele>34.471</ele>
      </trkpt>
      <trkpt lat="36.74532" lon="27.45391">
        <ele>34.355</ele>
      </trkpt>
      <trkpt lat="36.74539" lon="27.45394">
        <ele>34.408</ele>
      </trkpt>
      <trkpt lat="36.74544" lon="27.45397">
        <ele>35.163</ele>
      </trkpt>
      <trkpt lat="36.74548" lon="27.45398">
        <ele>34.879</ele>
      </trkpt>
      <trkpt lat="36.74552" lon="27.45402">
        <ele>35.555</ele>
      </trkpt>
      <trkpt lat="36.74555" lon="27.45403">
        <ele>35.65</ele>
      </trkpt>
      <trkpt lat="36.7456" lon="27.45406">
        <ele>35.693</ele>
      </trkpt>
      <trkpt lat="36.74564" lon="27.45406">
        <ele>35.004</ele>
      </trkpt>
      <trkpt lat="36.74569" lon="27.45406">
        <ele>34.298</ele>
      </trkpt>
      <trkpt lat="36.74572" lon="27.45407">
        <ele>34.141</ele>
      </trkpt>
      <trkpt lat="36.74575" lon="27.45408">
        <ele>33.985</ele>
      </trkpt>
      <trkpt lat="36.74579" lon="27.45407">
        <ele>32.983</ele>
      </trkpt>
      <trkpt lat="36.74585" lon="27.45412">
        <ele>33.305</ele>
      </trkpt>
      <trkpt lat="36.7459" lon="27.45418">
        <ele>33.655</ele>
      </trkpt>
      <trkpt lat="36.74597" lon="27.45426">
        <ele>33.923</ele>
      </trkpt>
      <trkpt lat="36.74604" lon="27.45435">
        <ele>34.515</ele>
      </trkpt>
      <trkpt lat="36.74607" lon="27.45441">
        <ele>35.011</ele>
      </trkpt>
      <trkpt lat="36.74612" lon="27.45443">
        <ele>34.466</ele>
      </trkpt>
      <trkpt lat="36.74615" lon="27.45445">
        <ele>34.469</ele>
      </trkpt>
      <trkpt lat="36.74617" lon="27.45447">
        <ele>34.765</ele>
      </trkpt>
      <trkpt lat="36.74623" lon="27.45453">
        <ele>35.28</ele>
      </trkpt>
      <trkpt lat="36.74627" lon="27.45454">
        <ele>35.072</ele>
      </trkpt>
      <trkpt lat="36.74635" lon="27.45456">
        <ele>34.072</ele>
      </trkpt>
      <trkpt lat="36.74641" lon="27.45458">
        <ele>33.74</ele>
      </trkpt>
      <trkpt lat="36.74643" lon="27.45457">
        <ele>33.341</ele>
      </trkpt>
      <trkpt lat="36.74648" lon="27.45455">
        <ele>32.563</ele>
      </trkpt>
      <trkpt lat="36.74653" lon="27.45453">
        <ele>31.736</ele>
      </trkpt>
      <trkpt lat="36.74657" lon="27.45454">
        <ele>31.828</ele>
      </trkpt>
      <trkpt lat="36.74663" lon="27.45452">
        <ele>30.926</ele>
      </trkpt>
      <trkpt lat="36.74663" lon="27.45452">
        <ele>30.926</ele>
      </trkpt>
      <trkpt lat="36.74665" lon="27.45453">
        <ele>31.331</ele>
      </trkpt>
      <trkpt lat="36.74666" lon="27.45454">
        <ele>31.489</ele>
      </trkpt>
      <trkpt lat="36.7467" lon="27.45456">
        <ele>31.495</ele>
      </trkpt>
      <trkpt lat="36.74675" lon="27.4546">
        <ele>31.88</ele>
      </trkpt>
      <trkpt lat="36.74679" lon="27.45466">
        <ele>32.472</ele>
      </trkpt>
      <trkpt lat="36.74685" lon="27.45473">
        <ele>32.84</ele>
      </trkpt>
      <trkpt lat="36.74691" lon="27.45482">
        <ele>33.054</ele>
      </trkpt>
      <trkpt lat="36.74693" lon="27.45483">
        <ele>32.856</ele>
      </trkpt>
      <trkpt lat="36.74697" lon="27.45486">
        <ele>32.302</ele>
      </trkpt>
      <trkpt lat="36.74705" lon="27.45489">
        <ele>29.806</ele>
      </trkpt>
      <trkpt lat="36.74706" lon="27.45489">
        <ele>29.509</ele>
      </trkpt>
      <trkpt lat="36.74705" lon="27.45489">
        <ele>29.859</ele>
      </trkpt>
      <trkpt lat="36.74702" lon="27.45492">
        <ele>31.258</ele>
      </trkpt>
      <trkpt lat="36.74702" lon="27.45491">
        <ele>31.128</ele>
      </trkpt>
      <trkpt lat="36.74703" lon="27.4549">
        <ele>30.488</ele>
      </trkpt>
      <trkpt lat="36.74707" lon="27.45493">
        <ele>29.407</ele>
      </trkpt>
      <trkpt lat="36.74711" lon="27.45495">
        <ele>28.359</ele>
      </trkpt>
      <trkpt lat="36.74715" lon="27.45502">
        <ele>26.694</ele>
      </trkpt>
      <trkpt lat="36.74718" lon="27.45507">
        <ele>25.516</ele>
      </trkpt>
      <trkpt lat="36.74717" lon="27.45504">
        <ele>26.088</ele>
      </trkpt>
      <trkpt lat="36.74718" lon="27.45511">
        <ele>25.505</ele>
      </trkpt>
      <trkpt lat="36.74718" lon="27.45512">
        <ele>25.243</ele>
      </trkpt>
      <trkpt lat="36.74718" lon="27.45518">
        <ele>25.361</ele>
      </trkpt>
      <trkpt lat="36.74717" lon="27.45521">
        <ele>25.429</ele>
      </trkpt>
      <trkpt lat="36.74715" lon="27.45528">
        <ele>26.09</ele>
      </trkpt>
      <trkpt lat="36.74713" lon="27.45534">
        <ele>26.507</ele>
      </trkpt>
      <trkpt lat="36.74709" lon="27.45538">
        <ele>28.298</ele>
      </trkpt>
      <trkpt lat="36.74709" lon="27.45539">
        <ele>28.338</ele>
      </trkpt>
      <trkpt lat="36.74709" lon="27.45545">
        <ele>27.812</ele>
      </trkpt>
      <trkpt lat="36.74708" lon="27.45558">
        <ele>27.455</ele>
      </trkpt>
      <trkpt lat="36.74708" lon="27.45559">
        <ele>27.57</ele>
      </trkpt>
      <trkpt lat="36.74707" lon="27.45564">
        <ele>27.424</ele>
      </trkpt>
      <trkpt lat="36.74707" lon="27.45572">
        <ele>26.937</ele>
      </trkpt>
      <trkpt lat="36.74708" lon="27.45573">
        <ele>26.843</ele>
      </trkpt>
      <trkpt lat="36.74711" lon="27.4558">
        <ele>25.574</ele>
      </trkpt>
      <trkpt lat="36.74712" lon="27.45581">
        <ele>25.336</ele>
      </trkpt>
      <trkpt lat="36.74715" lon="27.45583">
        <ele>24.553</ele>
      </trkpt>
      <trkpt lat="36.74716" lon="27.45584">
        <ele>24.415</ele>
      </trkpt>
      <trkpt lat="36.74717" lon="27.45588">
        <ele>24.151</ele>
      </trkpt>
      <trkpt lat="36.74718" lon="27.45588">
        <ele>23.921</ele>
      </trkpt>
      <trkpt lat="36.7472" lon="27.45592">
        <ele>23.349</ele>
      </trkpt>
      <trkpt lat="36.74724" lon="27.45594">
        <ele>22.806</ele>
      </trkpt>
      <trkpt lat="36.74731" lon="27.45601">
        <ele>22.193</ele>
      </trkpt>
      <trkpt lat="36.74736" lon="27.45608">
        <ele>22.268</ele>
      </trkpt>
      <trkpt lat="36.74738" lon="27.45609">
        <ele>22.3</ele>
      </trkpt>
      <trkpt lat="36.74738" lon="27.45609">
        <ele>22.265</ele>
      </trkpt>
      <trkpt lat="36.74741" lon="27.45612">
        <ele>22.399</ele>
      </trkpt>
      <trkpt lat="36.74745" lon="27.45614">
        <ele>22.515</ele>
      </trkpt>
      <trkpt lat="36.74741" lon="27.45612">
        <ele>22.498</ele>
      </trkpt>
      <trkpt lat="36.74739" lon="27.45611">
        <ele>22.435</ele>
      </trkpt>
      <trkpt lat="36.74736" lon="27.45611">
        <ele>22.522</ele>
      </trkpt>
      <trkpt lat="36.74734" lon="27.45614">
        <ele>22.887</ele>
      </trkpt>
      <trkpt lat="36.74731" lon="27.4562">
        <ele>23.48</ele>
      </trkpt>
      <trkpt lat="36.7473" lon="27.45622">
        <ele>23.764</ele>
      </trkpt>
      <trkpt lat="36.7473" lon="27.45622">
        <ele>23.764</ele>
      </trkpt>
      <trkpt lat="36.74729" lon="27.45623">
        <ele>23.815</ele>
      </trkpt>
      <trkpt lat="36.74729" lon="27.45623">
        <ele>23.811</ele>
      </trkpt>
      <trkpt lat="36.74729" lon="27.45621">
        <ele>23.665</ele>
      </trkpt>
      <trkpt lat="36.74731" lon="27.45623">
        <ele>23.767</ele>
      </trkpt>
      <trkpt lat="36.74733" lon="27.45619">
        <ele>23.395</ele>
      </trkpt>
      <trkpt lat="36.74735" lon="27.45611">
        <ele>22.532</ele>
      </trkpt>
      <trkpt lat="36.74734" lon="27.45611">
        <ele>22.589</ele>
      </trkpt>
      <trkpt lat="36.74734" lon="27.45609">
        <ele>22.446</ele>
      </trkpt>
      <trkpt lat="36.74734" lon="27.4561">
        <ele>22.504</ele>
      </trkpt>
      <trkpt lat="36.74732" lon="27.4561">
        <ele>22.591</ele>
      </trkpt>
      <trkpt lat="36.74732" lon="27.45609">
        <ele>22.549</ele>
      </trkpt>
      <trkpt lat="36.74733" lon="27.45609">
        <ele>22.447</ele>
      </trkpt>
      <trkpt lat="36.74734" lon="27.45609">
        <ele>22.423</ele>
      </trkpt>
      <trkpt lat="36.74736" lon="27.45613">
        <ele>22.654</ele>
      </trkpt>
      <trkpt lat="36.74737" lon="27.45613">
        <ele>22.697</ele>
      </trkpt>
      <trkpt lat="36.74734" lon="27.45617">
        <ele>23.193</ele>
      </trkpt>
      <trkpt lat="36.74732" lon="27.45622">
        <ele>23.694</ele>
      </trkpt>
      <trkpt lat="36.74729" lon="27.45622">
        <ele>23.687</ele>
      </trkpt>
      <trkpt lat="36.74729" lon="27.45622">
        <ele>23.745</ele>
      </trkpt>
      <trkpt lat="36.74733" lon="27.45623">
        <ele>23.757</ele>
      </trkpt>
      <trkpt lat="36.74734" lon="27.45623">
        <ele>23.784</ele>
      </trkpt>
      <trkpt lat="36.74736" lon="27.45625">
        <ele>23.948</ele>
      </trkpt>
      <trkpt lat="36.74738" lon="27.45625">
        <ele>24</ele>
      </trkpt>
      <trkpt lat="36.74742" lon="27.45628">
        <ele>24.338</ele>
      </trkpt>
      <trkpt lat="36.74745" lon="27.4563">
        <ele>24.663</ele>
      </trkpt>
      <trkpt lat="36.74746" lon="27.45632">
        <ele>24.941</ele>
      </trkpt>
      <trkpt lat="36.74746" lon="27.45633">
        <ele>25.06</ele>
      </trkpt>
      <trkpt lat="36.74752" lon="27.45637">
        <ele>25.884</ele>
      </trkpt>
      <trkpt lat="36.74751" lon="27.45637">
        <ele>25.925</ele>
      </trkpt>
      <trkpt lat="36.74754" lon="27.45639">
        <ele>26.561</ele>
      </trkpt>
      <trkpt lat="36.74758" lon="27.45644">
        <ele>28.19</ele>
      </trkpt>
      <trkpt lat="36.7476" lon="27.45645">
        <ele>28.803</ele>
      </trkpt>
      <trkpt lat="36.7476" lon="27.45652">
        <ele>30.165</ele>
      </trkpt>
      <trkpt lat="36.74763" lon="27.45659">
        <ele>32.376</ele>
      </trkpt>
      <trkpt lat="36.74764" lon="27.45662">
        <ele>33.315</ele>
      </trkpt>
      <trkpt lat="36.74764" lon="27.45666">
        <ele>34.502</ele>
      </trkpt>
      <trkpt lat="36.74764" lon="27.45667">
        <ele>34.655</ele>
      </trkpt>
      <trkpt lat="36.74764" lon="27.45668">
        <ele>34.933</ele>
      </trkpt>
      <trkpt lat="36.74766" lon="27.45677">
        <ele>37.404</ele>
      </trkpt>
      <trkpt lat="36.74766" lon="27.45682">
        <ele>38.562</ele>
      </trkpt>
      <trkpt lat="36.74766" lon="27.45688">
        <ele>39.814</ele>
      </trkpt>
      <trkpt lat="36.74765" lon="27.45698">
        <ele>41.763</ele>
      </trkpt>
      <trkpt lat="36.74765" lon="27.45701">
        <ele>42.274</ele>
      </trkpt>
      <trkpt lat="36.74762" lon="27.45708">
        <ele>42.447</ele>
      </trkpt>
      <trkpt lat="36.74762" lon="27.45709">
        <ele>42.717</ele>
      </trkpt>
      <trkpt lat="36.74764" lon="27.45715">
        <ele>44.827</ele>
      </trkpt>
      <trkpt lat="36.74765" lon="27.45717">
        <ele>45.638</ele>
      </trkpt>
      <trkpt lat="36.74765" lon="27.45718">
        <ele>45.656</ele>
      </trkpt>
      <trkpt lat="36.74766" lon="27.45721">
        <ele>46.786</ele>
      </trkpt>
      <trkpt lat="36.74769" lon="27.45727">
        <ele>49.035</ele>
      </trkpt>
      <trkpt lat="36.74769" lon="27.45729">
        <ele>49.057</ele>
      </trkpt>
      <trkpt lat="36.74769" lon="27.45734">
        <ele>49.421</ele>
      </trkpt>
      <trkpt lat="36.7477" lon="27.4574">
        <ele>50.636</ele>
      </trkpt>
      <trkpt lat="36.74775" lon="27.45745">
        <ele>53.284</ele>
      </trkpt>
      <trkpt lat="36.74779" lon="27.45751">
        <ele>55.322</ele>
      </trkpt>
      <trkpt lat="36.74781" lon="27.45751">
        <ele>55.963</ele>
      </trkpt>
      <trkpt lat="36.74783" lon="27.45751">
        <ele>56.806</ele>
      </trkpt>
      <trkpt lat="36.74785" lon="27.45751">
        <ele>57.702</ele>
      </trkpt>
      <trkpt lat="36.74786" lon="27.4575">
        <ele>57.929</ele>
      </trkpt>
      <trkpt lat="36.74786" lon="27.45751">
        <ele>58.032</ele>
      </trkpt>
      <trkpt lat="36.7479" lon="27.45753">
        <ele>59.478</ele>
      </trkpt>
      <trkpt lat="36.74791" lon="27.45758">
        <ele>59.672</ele>
      </trkpt>
      <trkpt lat="36.74795" lon="27.4576">
        <ele>60.984</ele>
      </trkpt>
      <trkpt lat="36.74798" lon="27.45762">
        <ele>62.031</ele>
      </trkpt>
      <trkpt lat="36.74803" lon="27.45765">
        <ele>63.397</ele>
      </trkpt>
      <trkpt lat="36.74807" lon="27.45766">
        <ele>64.718</ele>
      </trkpt>
      <trkpt lat="36.74813" lon="27.45768">
        <ele>66.581</ele>
      </trkpt>
      <trkpt lat="36.74817" lon="27.45768">
        <ele>67.749</ele>
      </trkpt>
      <trkpt lat="36.74827" lon="27.45766">
        <ele>70.515</ele>
      </trkpt>
      <trkpt lat="36.74833" lon="27.4576">
        <ele>71.61</ele>
      </trkpt>
      <trkpt lat="36.74837" lon="27.45764">
        <ele>72.948</ele>
      </trkpt>
      <trkpt lat="36.7484" lon="27.45763">
        <ele>73.56</ele>
      </trkpt>
      <trkpt lat="36.74845" lon="27.45762">
        <ele>74.665</ele>
      </trkpt>
      <trkpt lat="36.74848" lon="27.45762">
        <ele>75.463</ele>
      </trkpt>
      <trkpt lat="36.74854" lon="27.45766">
        <ele>77.48</ele>
      </trkpt>
      <trkpt lat="36.7486" lon="27.45768">
        <ele>78.973</ele>
      </trkpt>
      <trkpt lat="36.74863" lon="27.4577">
        <ele>79.969</ele>
      </trkpt>
      <trkpt lat="36.74868" lon="27.45771">
        <ele>81.192</ele>
      </trkpt>
      <trkpt lat="36.74871" lon="27.45773">
        <ele>82.15</ele>
      </trkpt>
      <trkpt lat="36.74874" lon="27.45774">
        <ele>82.873</ele>
      </trkpt>
      <trkpt lat="36.74876" lon="27.45774">
        <ele>83.388</ele>
      </trkpt>
      <trkpt lat="36.7488" lon="27.45775">
        <ele>84.468</ele>
      </trkpt>
      <trkpt lat="36.74881" lon="27.4578">
        <ele>85.613</ele>
      </trkpt>
      <trkpt lat="36.74882" lon="27.4578">
        <ele>85.958</ele>
      </trkpt>
      <trkpt lat="36.74887" lon="27.45782">
        <ele>87.272</ele>
      </trkpt>
      <trkpt lat="36.74888" lon="27.45782">
        <ele>87.587</ele>
      </trkpt>
      <trkpt lat="36.74891" lon="27.45783">
        <ele>88.732</ele>
      </trkpt>
      <trkpt lat="36.74897" lon="27.45787">
        <ele>90.529</ele>
      </trkpt>
      <trkpt lat="36.749" lon="27.45785">
        <ele>90.994</ele>
      </trkpt>
      <trkpt lat="36.74903" lon="27.45786">
        <ele>91.62</ele>
      </trkpt>
      <trkpt lat="36.74904" lon="27.45787">
        <ele>92.115</ele>
      </trkpt>
      <trkpt lat="36.74906" lon="27.45794">
        <ele>93.407</ele>
      </trkpt>
      <trkpt lat="36.74909" lon="27.45795">
        <ele>94.106</ele>
      </trkpt>
      <trkpt lat="36.74911" lon="27.45799">
        <ele>94.735</ele>
      </trkpt>
      <trkpt lat="36.74912" lon="27.45801">
        <ele>95.061</ele>
      </trkpt>
      <trkpt lat="36.74913" lon="27.45802">
        <ele>95.276</ele>
      </trkpt>
      <trkpt lat="36.74916" lon="27.45806">
        <ele>95.955</ele>
      </trkpt>
      <trkpt lat="36.74916" lon="27.45809">
        <ele>96.603</ele>
      </trkpt>
      <trkpt lat="36.74919" lon="27.45811">
        <ele>97.722</ele>
      </trkpt>
      <trkpt lat="36.74924" lon="27.45814">
        <ele>99.579</ele>
      </trkpt>
      <trkpt lat="36.74926" lon="27.45817">
        <ele>100.558</ele>
      </trkpt>
      <trkpt lat="36.74927" lon="27.45819">
        <ele>101.179</ele>
      </trkpt>
      <trkpt lat="36.74929" lon="27.45822">
        <ele>102.321</ele>
      </trkpt>
      <trkpt lat="36.74935" lon="27.45826">
        <ele>104.716</ele>
      </trkpt>
      <trkpt lat="36.74936" lon="27.45827">
        <ele>105.305</ele>
      </trkpt>
      <trkpt lat="36.74939" lon="27.45827">
        <ele>105.899</ele>
      </trkpt>
      <trkpt lat="36.74942" lon="27.45832">
        <ele>108.069</ele>
      </trkpt>
      <trkpt lat="36.74944" lon="27.45836">
        <ele>109.8</ele>
      </trkpt>
      <trkpt lat="36.74943" lon="27.45834">
        <ele>108.999</ele>
      </trkpt>
      <trkpt lat="36.74944" lon="27.45834">
        <ele>109.251</ele>
      </trkpt>
      <trkpt lat="36.74947" lon="27.45836">
        <ele>110.836</ele>
      </trkpt>
      <trkpt lat="36.74951" lon="27.45841">
        <ele>114.652</ele>
      </trkpt>
      <trkpt lat="36.74952" lon="27.45841">
        <ele>115.206</ele>
      </trkpt>
      <trkpt lat="36.74955" lon="27.45842">
        <ele>116.969</ele>
      </trkpt>
      <trkpt lat="36.74957" lon="27.45842">
        <ele>117.579</ele>
      </trkpt>
      <trkpt lat="36.74958" lon="27.45846">
        <ele>119.867</ele>
      </trkpt>
      <trkpt lat="36.7496" lon="27.45847">
        <ele>121.195</ele>
      </trkpt>
      <trkpt lat="36.74964" lon="27.45847">
        <ele>122.762</ele>
      </trkpt>
      <trkpt lat="36.74966" lon="27.45848">
        <ele>124.43</ele>
      </trkpt>
      <trkpt lat="36.74969" lon="27.45852">
        <ele>127.104</ele>
      </trkpt>
      <trkpt lat="36.74972" lon="27.45857">
        <ele>130.844</ele>
      </trkpt>
      <trkpt lat="36.74972" lon="27.4586">
        <ele>132.26</ele>
      </trkpt>
      <trkpt lat="36.74973" lon="27.4587">
        <ele>135.913</ele>
      </trkpt>
      <trkpt lat="36.74973" lon="27.45871">
        <ele>136.15</ele>
      </trkpt>
      <trkpt lat="36.74971" lon="27.45871">
        <ele>135.527</ele>
      </trkpt>
      <trkpt lat="36.74971" lon="27.45874">
        <ele>136.634</ele>
      </trkpt>
      <trkpt lat="36.7497" lon="27.45874">
        <ele>136.028</ele>
      </trkpt>
      <trkpt lat="36.7497" lon="27.45874">
        <ele>136.028</ele>
      </trkpt>
      <trkpt lat="36.7497" lon="27.45872">
        <ele>135.67</ele>
      </trkpt>
      <trkpt lat="36.74972" lon="27.45873">
        <ele>136.822</ele>
      </trkpt>
      <trkpt lat="36.74975" lon="27.45878">
        <ele>138.856</ele>
      </trkpt>
      <trkpt lat="36.74976" lon="27.45881">
        <ele>140.184</ele>
      </trkpt>
      <trkpt lat="36.7498" lon="27.45888">
        <ele>143.488</ele>
      </trkpt>
      <trkpt lat="36.74982" lon="27.45888">
        <ele>144.252</ele>
      </trkpt>
      <trkpt lat="36.74981" lon="27.45885">
        <ele>143.071</ele>
      </trkpt>
      <trkpt lat="36.74979" lon="27.4589">
        <ele>143.934</ele>
      </trkpt>
      <trkpt lat="36.74977" lon="27.45898">
        <ele>145.793</ele>
      </trkpt>
      <trkpt lat="36.74977" lon="27.45903">
        <ele>147.192</ele>
      </trkpt>
      <trkpt lat="36.74973" lon="27.45904">
        <ele>146.325</ele>
      </trkpt>
      <trkpt lat="36.74975" lon="27.45906">
        <ele>147.418</ele>
      </trkpt>
      <trkpt lat="36.74977" lon="27.45909">
        <ele>149.118</ele>
      </trkpt>
      <trkpt lat="36.74981" lon="27.45916">
        <ele>152.359</ele>
      </trkpt>
      <trkpt lat="36.74985" lon="27.45923">
        <ele>156.385</ele>
      </trkpt>
      <trkpt lat="36.74985" lon="27.45924">
        <ele>157.096</ele>
      </trkpt>
      <trkpt lat="36.74989" lon="27.45928">
        <ele>159.34</ele>
      </trkpt>
      <trkpt lat="36.74987" lon="27.45925">
        <ele>157.982</ele>
      </trkpt>
      <trkpt lat="36.74986" lon="27.4593">
        <ele>159.931</ele>
      </trkpt>
      <trkpt lat="36.74989" lon="27.45934">
        <ele>162.091</ele>
      </trkpt>
      <trkpt lat="36.74988" lon="27.4594">
        <ele>164.349</ele>
      </trkpt>
      <trkpt lat="36.74985" lon="27.45943">
        <ele>164.888</ele>
      </trkpt>
      <trkpt lat="36.74983" lon="27.45948">
        <ele>167.303</ele>
      </trkpt>
      <trkpt lat="36.74982" lon="27.45956">
        <ele>171.825</ele>
      </trkpt>
      <trkpt lat="36.74983" lon="27.45957">
        <ele>172.927</ele>
      </trkpt>
      <trkpt lat="36.74983" lon="27.45958">
        <ele>173.289</ele>
      </trkpt>
      <trkpt lat="36.74981" lon="27.45959">
        <ele>173.593</ele>
      </trkpt>
      <trkpt lat="36.74981" lon="27.45959">
        <ele>173.678</ele>
      </trkpt>
      <trkpt lat="36.74979" lon="27.45963">
        <ele>175.71</ele>
      </trkpt>
      <trkpt lat="36.74978" lon="27.45968">
        <ele>178.091</ele>
      </trkpt>
      <trkpt lat="36.74979" lon="27.45973">
        <ele>181.179</ele>
      </trkpt>
      <trkpt lat="36.74977" lon="27.45973">
        <ele>181.077</ele>
      </trkpt>
      <trkpt lat="36.74976" lon="27.45976">
        <ele>182.062</ele>
      </trkpt>
      <trkpt lat="36.74977" lon="27.45981">
        <ele>184.613</ele>
      </trkpt>
      <trkpt lat="36.74977" lon="27.45983">
        <ele>185.351</ele>
      </trkpt>
      <trkpt lat="36.74976" lon="27.45985">
        <ele>186.238</ele>
      </trkpt>
      <trkpt lat="36.74974" lon="27.45991">
        <ele>189.1</ele>
      </trkpt>
      <trkpt lat="36.74975" lon="27.45993">
        <ele>189.933</ele>
      </trkpt>
      <trkpt lat="36.74977" lon="27.45997">
        <ele>192.203</ele>
      </trkpt>
      <trkpt lat="36.74976" lon="27.46">
        <ele>193.675</ele>
      </trkpt>
      <trkpt lat="36.74977" lon="27.46004">
        <ele>195.23</ele>
      </trkpt>
      <trkpt lat="36.74977" lon="27.46005">
        <ele>195.66</ele>
      </trkpt>
      <trkpt lat="36.74977" lon="27.46013">
        <ele>198.166</ele>
      </trkpt>
      <trkpt lat="36.74976" lon="27.46017">
        <ele>199.08</ele>
      </trkpt>
      <trkpt lat="36.74976" lon="27.46023">
        <ele>201.095</ele>
      </trkpt>
      <trkpt lat="36.74976" lon="27.46028">
        <ele>202.427</ele>
      </trkpt>
      <trkpt lat="36.74974" lon="27.46032">
        <ele>203.386</ele>
      </trkpt>
      <trkpt lat="36.74972" lon="27.46031">
        <ele>202.932</ele>
      </trkpt>
      <trkpt lat="36.7497" lon="27.4604">
        <ele>205.654</ele>
      </trkpt>
      <trkpt lat="36.74967" lon="27.46044">
        <ele>207.053</ele>
      </trkpt>
      <trkpt lat="36.74963" lon="27.46048">
        <ele>208.478</ele>
      </trkpt>
      <trkpt lat="36.74955" lon="27.4605">
        <ele>209.634</ele>
      </trkpt>
      <trkpt lat="36.74949" lon="27.46062">
        <ele>212.617</ele>
      </trkpt>
      <trkpt lat="36.74945" lon="27.46071">
        <ele>213.684</ele>
      </trkpt>
      <trkpt lat="36.74944" lon="27.46073">
        <ele>213.839</ele>
      </trkpt>
      <trkpt lat="36.74944" lon="27.46075">
        <ele>213.986</ele>
      </trkpt>
      <trkpt lat="36.74943" lon="27.4608">
        <ele>214.494</ele>
      </trkpt>
      <trkpt lat="36.74943" lon="27.46083">
        <ele>214.939</ele>
      </trkpt>
      <trkpt lat="36.74943" lon="27.4609">
        <ele>215.638</ele>
      </trkpt>
      <trkpt lat="36.74944" lon="27.46092">
        <ele>215.97</ele>
      </trkpt>
      <trkpt lat="36.74945" lon="27.461">
        <ele>216.839</ele>
      </trkpt>
      <trkpt lat="36.74945" lon="27.46107">
        <ele>217.587</ele>
      </trkpt>
      <trkpt lat="36.74945" lon="27.46109">
        <ele>217.751</ele>
      </trkpt>
      <trkpt lat="36.74945" lon="27.46114">
        <ele>218.252</ele>
      </trkpt>
      <trkpt lat="36.74949" lon="27.46131">
        <ele>219.332</ele>
      </trkpt>
      <trkpt lat="36.74952" lon="27.46135">
        <ele>219.497</ele>
      </trkpt>
      <trkpt lat="36.74954" lon="27.46138">
        <ele>219.592</ele>
      </trkpt>
      <trkpt lat="36.74956" lon="27.4614">
        <ele>219.583</ele>
      </trkpt>
      <trkpt lat="36.74958" lon="27.46142">
        <ele>219.541</ele>
      </trkpt>
      <trkpt lat="36.74962" lon="27.46144">
        <ele>219.299</ele>
      </trkpt>
      <trkpt lat="36.74962" lon="27.46145">
        <ele>219.253</ele>
      </trkpt>
      <trkpt lat="36.74965" lon="27.46151">
        <ele>218.88</ele>
      </trkpt>
      <trkpt lat="36.74966" lon="27.46158">
        <ele>218.551</ele>
      </trkpt>
      <trkpt lat="36.74967" lon="27.46161">
        <ele>218.186</ele>
      </trkpt>
      <trkpt lat="36.74967" lon="27.46165">
        <ele>217.999</ele>
      </trkpt>
      <trkpt lat="36.74968" lon="27.4617">
        <ele>217.705</ele>
      </trkpt>
      <trkpt lat="36.74968" lon="27.46174">
        <ele>217.423</ele>
      </trkpt>
      <trkpt lat="36.7497" lon="27.46176">
        <ele>217.154</ele>
      </trkpt>
      <trkpt lat="36.74971" lon="27.46183">
        <ele>216.603</ele>
      </trkpt>
      <trkpt lat="36.74971" lon="27.46185">
        <ele>216.561</ele>
      </trkpt>
      <trkpt lat="36.74972" lon="27.46187">
        <ele>216.377</ele>
      </trkpt>
      <trkpt lat="36.74974" lon="27.4619">
        <ele>215.785</ele>
      </trkpt>
      <trkpt lat="36.74976" lon="27.46195">
        <ele>214.701</ele>
      </trkpt>
      <trkpt lat="36.74977" lon="27.462">
        <ele>213.743</ele>
      </trkpt>
      <trkpt lat="36.74978" lon="27.46205">
        <ele>212.767</ele>
      </trkpt>
      <trkpt lat="36.74978" lon="27.4621">
        <ele>211.981</ele>
      </trkpt>
      <trkpt lat="36.74978" lon="27.46215">
        <ele>211.119</ele>
      </trkpt>
      <trkpt lat="36.74979" lon="27.46223">
        <ele>209.603</ele>
      </trkpt>
      <trkpt lat="36.74979" lon="27.46227">
        <ele>208.935</ele>
      </trkpt>
      <trkpt lat="36.7498" lon="27.46233">
        <ele>207.884</ele>
      </trkpt>
      <trkpt lat="36.74981" lon="27.46237">
        <ele>207.028</ele>
      </trkpt>
      <trkpt lat="36.74983" lon="27.46243">
        <ele>205.519</ele>
      </trkpt>
      <trkpt lat="36.74982" lon="27.46247">
        <ele>205.137</ele>
      </trkpt>
      <trkpt lat="36.74983" lon="27.46252">
        <ele>203.945</ele>
      </trkpt>
      <trkpt lat="36.74983" lon="27.46254">
        <ele>203.525</ele>
      </trkpt>
      <trkpt lat="36.74983" lon="27.46256">
        <ele>203.192</ele>
      </trkpt>
      <trkpt lat="36.74983" lon="27.46259">
        <ele>202.653</ele>
      </trkpt>
      <trkpt lat="36.74982" lon="27.46264">
        <ele>202.078</ele>
      </trkpt>
      <trkpt lat="36.74982" lon="27.46264">
        <ele>201.947</ele>
      </trkpt>
      <trkpt lat="36.74982" lon="27.46268">
        <ele>201.149</ele>
      </trkpt>
      <trkpt lat="36.7498" lon="27.46269">
        <ele>201.208</ele>
      </trkpt>
      <trkpt lat="36.7498" lon="27.46273">
        <ele>200.634</ele>
      </trkpt>
      <trkpt lat="36.7498" lon="27.46279">
        <ele>199.541</ele>
      </trkpt>
      <trkpt lat="36.74979" lon="27.4628">
        <ele>199.411</ele>
      </trkpt>
      <trkpt lat="36.74978" lon="27.46284">
        <ele>199.004</ele>
      </trkpt>
      <trkpt lat="36.74978" lon="27.46284">
        <ele>198.991</ele>
      </trkpt>
      <trkpt lat="36.7498" lon="27.46286">
        <ele>198.156</ele>
      </trkpt>
      <trkpt lat="36.74982" lon="27.46291">
        <ele>197.097</ele>
      </trkpt>
      <trkpt lat="36.74983" lon="27.46297">
        <ele>195.738</ele>
      </trkpt>
      <trkpt lat="36.74981" lon="27.46303">
        <ele>195.168</ele>
      </trkpt>
      <trkpt lat="36.74979" lon="27.46306">
        <ele>195.196</ele>
      </trkpt>
      <trkpt lat="36.74978" lon="27.46308">
        <ele>195.049</ele>
      </trkpt>
      <trkpt lat="36.74981" lon="27.4631">
        <ele>193.886</ele>
      </trkpt>
      <trkpt lat="36.74982" lon="27.46313">
        <ele>193.25</ele>
      </trkpt>
      <trkpt lat="36.74981" lon="27.46324">
        <ele>191.468</ele>
      </trkpt>
      <trkpt lat="36.74981" lon="27.46329">
        <ele>190.515</ele>
      </trkpt>
      <trkpt lat="36.7498" lon="27.46332">
        <ele>190.052</ele>
      </trkpt>
      <trkpt lat="36.74981" lon="27.46335">
        <ele>189.608</ele>
      </trkpt>
      <trkpt lat="36.7498" lon="27.46341">
        <ele>189.275</ele>
      </trkpt>
      <trkpt lat="36.74979" lon="27.46346">
        <ele>188.986</ele>
      </trkpt>
      <trkpt lat="36.74978" lon="27.46348">
        <ele>189.024</ele>
      </trkpt>
      <trkpt lat="36.74978" lon="27.46349">
        <ele>188.929</ele>
      </trkpt>
      <trkpt lat="36.74979" lon="27.46355">
        <ele>188.204</ele>
      </trkpt>
      <trkpt lat="36.74981" lon="27.46361">
        <ele>187.414</ele>
      </trkpt>
      <trkpt lat="36.74981" lon="27.46362">
        <ele>187.362</ele>
      </trkpt>
      <trkpt lat="36.74985" lon="27.46365">
        <ele>186.514</ele>
      </trkpt>
      <trkpt lat="36.74986" lon="27.46368">
        <ele>186.178</ele>
      </trkpt>
      <trkpt lat="36.74988" lon="27.46372">
        <ele>185.648</ele>
      </trkpt>
      <trkpt lat="36.74991" lon="27.46377">
        <ele>184.945</ele>
      </trkpt>
      <trkpt lat="36.74993" lon="27.4638">
        <ele>184.46</ele>
      </trkpt>
      <trkpt lat="36.74995" lon="27.46381">
        <ele>184.074</ele>
      </trkpt>
      <trkpt lat="36.74997" lon="27.46387">
        <ele>183.495</ele>
      </trkpt>
      <trkpt lat="36.75" lon="27.4639">
        <ele>182.998</ele>
      </trkpt>
      <trkpt lat="36.75004" lon="27.46394">
        <ele>182.868</ele>
      </trkpt>
      <trkpt lat="36.75009" lon="27.46405">
        <ele>182.691</ele>
      </trkpt>
      <trkpt lat="36.75015" lon="27.46416">
        <ele>182.459</ele>
      </trkpt>
      <trkpt lat="36.7502" lon="27.46421">
        <ele>181.856</ele>
      </trkpt>
      <trkpt lat="36.75028" lon="27.46426">
        <ele>180.973</ele>
      </trkpt>
      <trkpt lat="36.75031" lon="27.46428">
        <ele>180.338</ele>
      </trkpt>
      <trkpt lat="36.75039" lon="27.46429">
        <ele>179.242</ele>
      </trkpt>
      <trkpt lat="36.75046" lon="27.46429">
        <ele>178.438</ele>
      </trkpt>
      <trkpt lat="36.75047" lon="27.4643">
        <ele>178.205</ele>
      </trkpt>
      <trkpt lat="36.75053" lon="27.46431">
        <ele>177.248</ele>
      </trkpt>
      <trkpt lat="36.75057" lon="27.46432">
        <ele>176.766</ele>
      </trkpt>
      <trkpt lat="36.75061" lon="27.46435">
        <ele>176.024</ele>
      </trkpt>
      <trkpt lat="36.75065" lon="27.46437">
        <ele>175.414</ele>
      </trkpt>
      <trkpt lat="36.75066" lon="27.46437">
        <ele>175.366</ele>
      </trkpt>
      <trkpt lat="36.75069" lon="27.4644">
        <ele>174.956</ele>
      </trkpt>
      <trkpt lat="36.75075" lon="27.4645">
        <ele>173.433</ele>
      </trkpt>
      <trkpt lat="36.75075" lon="27.46455">
        <ele>172.638</ele>
      </trkpt>
      <trkpt lat="36.75079" lon="27.4646">
        <ele>171.806</ele>
      </trkpt>
      <trkpt lat="36.75084" lon="27.46464">
        <ele>171.251</ele>
      </trkpt>
      <trkpt lat="36.75088" lon="27.46467">
        <ele>170.652</ele>
      </trkpt>
      <trkpt lat="36.75088" lon="27.46468">
        <ele>170.565</ele>
      </trkpt>
      <trkpt lat="36.75088" lon="27.46476">
        <ele>169.263</ele>
      </trkpt>
      <trkpt lat="36.75088" lon="27.46481">
        <ele>168.173</ele>
      </trkpt>
      <trkpt lat="36.7509" lon="27.46485">
        <ele>167.489</ele>
      </trkpt>
      <trkpt lat="36.75097" lon="27.465">
        <ele>164.967</ele>
      </trkpt>
      <trkpt lat="36.75102" lon="27.46501">
        <ele>165.004</ele>
      </trkpt>
      <trkpt lat="36.75103" lon="27.46502">
        <ele>165.066</ele>
      </trkpt>
      <trkpt lat="36.75108" lon="27.46503">
        <ele>165.183</ele>
      </trkpt>
      <trkpt lat="36.75113" lon="27.46507">
        <ele>164.407</ele>
      </trkpt>
      <trkpt lat="36.75114" lon="27.46507">
        <ele>164.24</ele>
      </trkpt>
      <trkpt lat="36.75117" lon="27.46511">
        <ele>163.258</ele>
      </trkpt>
      <trkpt lat="36.75121" lon="27.46513">
        <ele>162.738</ele>
      </trkpt>
      <trkpt lat="36.75122" lon="27.46512">
        <ele>162.698</ele>
      </trkpt>
      <trkpt lat="36.75127" lon="27.46513">
        <ele>162.245</ele>
      </trkpt>
      <trkpt lat="36.7513" lon="27.46515">
        <ele>161.822</ele>
      </trkpt>
      <trkpt lat="36.7513" lon="27.46517">
        <ele>161.385</ele>
      </trkpt>
      <trkpt lat="36.75129" lon="27.4652">
        <ele>160.968</ele>
      </trkpt>
      <trkpt lat="36.75128" lon="27.4652">
        <ele>160.964</ele>
      </trkpt>
      <trkpt lat="36.75129" lon="27.46524">
        <ele>160.032</ele>
      </trkpt>
      <trkpt lat="36.75128" lon="27.46528">
        <ele>159.446</ele>
      </trkpt>
      <trkpt lat="36.75127" lon="27.46529">
        <ele>158.923</ele>
      </trkpt>
      <trkpt lat="36.75126" lon="27.46529">
        <ele>158.842</ele>
      </trkpt>
      <trkpt lat="36.75126" lon="27.46529">
        <ele>158.876</ele>
      </trkpt>
      <trkpt lat="36.75128" lon="27.46529">
        <ele>159.088</ele>
      </trkpt>
      <trkpt lat="36.75126" lon="27.46525">
        <ele>160.033</ele>
      </trkpt>
      <trkpt lat="36.75125" lon="27.46525">
        <ele>160.008</ele>
      </trkpt>
      <trkpt lat="36.75124" lon="27.46531">
        <ele>158.396</ele>
      </trkpt>
      <trkpt lat="36.75123" lon="27.46532">
        <ele>157.852</ele>
      </trkpt>
      <trkpt lat="36.75123" lon="27.46533">
        <ele>157.705</ele>
      </trkpt>
      <trkpt lat="36.75123" lon="27.46532">
        <ele>158</ele>
      </trkpt>
      <trkpt lat="36.75122" lon="27.46532">
        <ele>158.205</ele>
      </trkpt>
      <trkpt lat="36.75121" lon="27.46534">
        <ele>157.187</ele>
      </trkpt>
      <trkpt lat="36.7512" lon="27.46536">
        <ele>156.456</ele>
      </trkpt>
      <trkpt lat="36.75118" lon="27.46537">
        <ele>156.095</ele>
      </trkpt>
      <trkpt lat="36.75118" lon="27.46543">
        <ele>153.802</ele>
      </trkpt>
      <trkpt lat="36.75119" lon="27.46548">
        <ele>151.883</ele>
      </trkpt>
      <trkpt lat="36.75119" lon="27.46551">
        <ele>150.884</ele>
      </trkpt>
      <trkpt lat="36.75121" lon="27.46556">
        <ele>148.92</ele>
      </trkpt>
      <trkpt lat="36.75122" lon="27.46561">
        <ele>146.729</ele>
      </trkpt>
      <trkpt lat="36.75122" lon="27.46566">
        <ele>144.692</ele>
      </trkpt>
      <trkpt lat="36.75123" lon="27.46566">
        <ele>144.57</ele>
      </trkpt>
      <trkpt lat="36.75123" lon="27.46569">
        <ele>143.128</ele>
      </trkpt>
      <trkpt lat="36.75122" lon="27.46571">
        <ele>142.296</ele>
      </trkpt>
      <trkpt lat="36.75122" lon="27.46573">
        <ele>141.561</ele>
      </trkpt>
      <trkpt lat="36.75122" lon="27.46575">
        <ele>140.641</ele>
      </trkpt>
      <trkpt lat="36.75121" lon="27.46579">
        <ele>138.586</ele>
      </trkpt>
      <trkpt lat="36.75122" lon="27.4658">
        <ele>138.353</ele>
      </trkpt>
      <trkpt lat="36.75122" lon="27.46579">
        <ele>138.731</ele>
      </trkpt>
      <trkpt lat="36.75123" lon="27.46582">
        <ele>137.496</ele>
      </trkpt>
      <trkpt lat="36.75125" lon="27.46585">
        <ele>136.971</ele>
      </trkpt>
      <trkpt lat="36.75126" lon="27.46589">
        <ele>135.991</ele>
      </trkpt>
      <trkpt lat="36.75129" lon="27.46594">
        <ele>135.414</ele>
      </trkpt>
      <trkpt lat="36.7513" lon="27.46596">
        <ele>135.164</ele>
      </trkpt>
      <trkpt lat="36.75131" lon="27.46597">
        <ele>135.015</ele>
      </trkpt>
      <trkpt lat="36.75135" lon="27.46607">
        <ele>133.327</ele>
      </trkpt>
      <trkpt lat="36.75134" lon="27.4661">
        <ele>132.255</ele>
      </trkpt>
      <trkpt lat="36.75134" lon="27.46611">
        <ele>132.007</ele>
      </trkpt>
      <trkpt lat="36.75136" lon="27.46614">
        <ele>131.521</ele>
      </trkpt>
      <trkpt lat="36.75136" lon="27.46615">
        <ele>131.23</ele>
      </trkpt>
      <trkpt lat="36.75137" lon="27.46616">
        <ele>131.136</ele>
      </trkpt>
      <trkpt lat="36.75141" lon="27.46622">
        <ele>129.844</ele>
      </trkpt>
      <trkpt lat="36.75142" lon="27.46625">
        <ele>128.991</ele>
      </trkpt>
      <trkpt lat="36.75144" lon="27.46628">
        <ele>128.077</ele>
      </trkpt>
      <trkpt lat="36.75146" lon="27.46635">
        <ele>125.842</ele>
      </trkpt>
      <trkpt lat="36.75149" lon="27.46638">
        <ele>125.178</ele>
      </trkpt>
      <trkpt lat="36.75149" lon="27.46641">
        <ele>124.043</ele>
      </trkpt>
      <trkpt lat="36.75151" lon="27.46648">
        <ele>122.091</ele>
      </trkpt>
      <trkpt lat="36.75152" lon="27.4665">
        <ele>121.555</ele>
      </trkpt>
      <trkpt lat="36.75154" lon="27.46658">
        <ele>119.22</ele>
      </trkpt>
      <trkpt lat="36.75155" lon="27.46661">
        <ele>118.224</ele>
      </trkpt>
      <trkpt lat="36.75157" lon="27.46664">
        <ele>117.4</ele>
      </trkpt>
      <trkpt lat="36.75159" lon="27.46669">
        <ele>116.198</ele>
      </trkpt>
      <trkpt lat="36.75162" lon="27.46672">
        <ele>115.138</ele>
      </trkpt>
      <trkpt lat="36.75165" lon="27.46673">
        <ele>114.848</ele>
      </trkpt>
      <trkpt lat="36.75168" lon="27.46674">
        <ele>114.897</ele>
      </trkpt>
      <trkpt lat="36.75169" lon="27.46675">
        <ele>114.949</ele>
      </trkpt>
      <trkpt lat="36.7517" lon="27.46677">
        <ele>114.54</ele>
      </trkpt>
      <trkpt lat="36.75173" lon="27.46678">
        <ele>114.765</ele>
      </trkpt>
      <trkpt lat="36.75174" lon="27.46681">
        <ele>114.446</ele>
      </trkpt>
      <trkpt lat="36.75177" lon="27.46687">
        <ele>113.29</ele>
      </trkpt>
      <trkpt lat="36.75177" lon="27.46688">
        <ele>113.29</ele>
      </trkpt>
      <trkpt lat="36.75181" lon="27.4669">
        <ele>113.8</ele>
      </trkpt>
      <trkpt lat="36.75183" lon="27.46692">
        <ele>113.841</ele>
      </trkpt>
      <trkpt lat="36.75185" lon="27.46695">
        <ele>113.938</ele>
      </trkpt>
      <trkpt lat="36.75186" lon="27.46699">
        <ele>113.326</ele>
      </trkpt>
      <trkpt lat="36.75187" lon="27.46702">
        <ele>112.725</ele>
      </trkpt>
      <trkpt lat="36.75188" lon="27.46706">
        <ele>112.043</ele>
      </trkpt>
      <trkpt lat="36.75191" lon="27.4671">
        <ele>111.932</ele>
      </trkpt>
      <trkpt lat="36.75193" lon="27.46715">
        <ele>111.513</ele>
      </trkpt>
      <trkpt lat="36.75194" lon="27.46716">
        <ele>111.646</ele>
      </trkpt>
      <trkpt lat="36.75199" lon="27.46721">
        <ele>112.152</ele>
      </trkpt>
      <trkpt lat="36.75201" lon="27.46724">
        <ele>112.174</ele>
      </trkpt>
      <trkpt lat="36.75202" lon="27.46728">
        <ele>111.125</ele>
      </trkpt>
      <trkpt lat="36.75206" lon="27.46733">
        <ele>110.543</ele>
      </trkpt>
      <trkpt lat="36.75209" lon="27.46738">
        <ele>109.809</ele>
      </trkpt>
      <trkpt lat="36.75209" lon="27.46739">
        <ele>109.534</ele>
      </trkpt>
      <trkpt lat="36.75211" lon="27.46747">
        <ele>107.051</ele>
      </trkpt>
      <trkpt lat="36.75211" lon="27.46747">
        <ele>107.051</ele>
      </trkpt>
      <trkpt lat="36.75208" lon="27.46741">
        <ele>108.286</ele>
      </trkpt>
      <trkpt lat="36.75206" lon="27.46739">
        <ele>108.542</ele>
      </trkpt>
      <trkpt lat="36.75207" lon="27.46744">
        <ele>106.966</ele>
      </trkpt>
      <trkpt lat="36.75206" lon="27.46746">
        <ele>105.777</ele>
      </trkpt>
      <trkpt lat="36.75206" lon="27.46746">
        <ele>105.809</ele>
      </trkpt>
      <trkpt lat="36.75208" lon="27.4675">
        <ele>104.784</ele>
      </trkpt>
      <trkpt lat="36.75208" lon="27.46751">
        <ele>104.555</ele>
      </trkpt>
      <trkpt lat="36.75209" lon="27.46754">
        <ele>103.51</ele>
      </trkpt>
      <trkpt lat="36.7521" lon="27.46758">
        <ele>101.776</ele>
      </trkpt>
      <trkpt lat="36.75212" lon="27.46759">
        <ele>102.059</ele>
      </trkpt>
      <trkpt lat="36.75213" lon="27.46763">
        <ele>100.29</ele>
      </trkpt>
      <trkpt lat="36.75216" lon="27.46769">
        <ele>98.399</ele>
      </trkpt>
      <trkpt lat="36.75216" lon="27.46771">
        <ele>97.093</ele>
      </trkpt>
      <trkpt lat="36.75217" lon="27.46772">
        <ele>96.803</ele>
      </trkpt>
      <trkpt lat="36.75219" lon="27.46775">
        <ele>95.854</ele>
      </trkpt>
      <trkpt lat="36.75221" lon="27.46776">
        <ele>95.558</ele>
      </trkpt>
      <trkpt lat="36.7522" lon="27.4678">
        <ele>93.966</ele>
      </trkpt>
      <trkpt lat="36.75219" lon="27.46787">
        <ele>91.611</ele>
      </trkpt>
      <trkpt lat="36.75219" lon="27.46788">
        <ele>91.088</ele>
      </trkpt>
      <trkpt lat="36.7522" lon="27.46793">
        <ele>89.876</ele>
      </trkpt>
      <trkpt lat="36.7522" lon="27.46794">
        <ele>89.556</ele>
      </trkpt>
      <trkpt lat="36.7522" lon="27.46795">
        <ele>89.033</ele>
      </trkpt>
      <trkpt lat="36.75221" lon="27.46797">
        <ele>88.623</ele>
      </trkpt>
      <trkpt lat="36.75222" lon="27.46803">
        <ele>86.873</ele>
      </trkpt>
      <trkpt lat="36.75225" lon="27.46807">
        <ele>86.218</ele>
      </trkpt>
      <trkpt lat="36.75226" lon="27.46806">
        <ele>86.591</ele>
      </trkpt>
      <trkpt lat="36.75226" lon="27.46811">
        <ele>85.412</ele>
      </trkpt>
      <trkpt lat="36.75226" lon="27.46814">
        <ele>84.629</ele>
      </trkpt>
      <trkpt lat="36.75224" lon="27.4682">
        <ele>82.756</ele>
      </trkpt>
      <trkpt lat="36.75224" lon="27.46823">
        <ele>81.991</ele>
      </trkpt>
      <trkpt lat="36.75224" lon="27.46826">
        <ele>81.283</ele>
      </trkpt>
      <trkpt lat="36.75224" lon="27.46829">
        <ele>80.456</ele>
      </trkpt>
      <trkpt lat="36.75224" lon="27.4683">
        <ele>80.244</ele>
      </trkpt>
      <trkpt lat="36.75224" lon="27.46834">
        <ele>79.096</ele>
      </trkpt>
      <trkpt lat="36.75224" lon="27.46836">
        <ele>78.256</ele>
      </trkpt>
      <trkpt lat="36.75225" lon="27.46836">
        <ele>78.258</ele>
      </trkpt>
      <trkpt lat="36.75226" lon="27.4684">
        <ele>76.639</ele>
      </trkpt>
      <trkpt lat="36.75227" lon="27.46846">
        <ele>74.628</ele>
      </trkpt>
      <trkpt lat="36.75229" lon="27.46849">
        <ele>73.802</ele>
      </trkpt>
      <trkpt lat="36.75231" lon="27.46855">
        <ele>71.974</ele>
      </trkpt>
      <trkpt lat="36.7523" lon="27.4686">
        <ele>69.303</ele>
      </trkpt>
      <trkpt lat="36.7523" lon="27.46864">
        <ele>67.857</ele>
      </trkpt>
      <trkpt lat="36.75233" lon="27.46868">
        <ele>67.978</ele>
      </trkpt>
      <trkpt lat="36.75234" lon="27.46872">
        <ele>67.085</ele>
      </trkpt>
      <trkpt lat="36.75235" lon="27.46874">
        <ele>66.49</ele>
      </trkpt>
      <trkpt lat="36.75235" lon="27.46878">
        <ele>65.353</ele>
      </trkpt>
      <trkpt lat="36.75237" lon="27.46882">
        <ele>64.211</ele>
      </trkpt>
      <trkpt lat="36.75237" lon="27.46886">
        <ele>62.827</ele>
      </trkpt>
      <trkpt lat="36.75236" lon="27.46888">
        <ele>61.78</ele>
      </trkpt>
      <trkpt lat="36.75235" lon="27.46892">
        <ele>60.26</ele>
      </trkpt>
      <trkpt lat="36.75235" lon="27.46893">
        <ele>60.082</ele>
      </trkpt>
      <trkpt lat="36.75235" lon="27.46894">
        <ele>60.147</ele>
      </trkpt>
      <trkpt lat="36.75235" lon="27.46894">
        <ele>59.818</ele>
      </trkpt>
      <trkpt lat="36.75235" lon="27.46897">
        <ele>59.39</ele>
      </trkpt>
      <trkpt lat="36.75234" lon="27.46906">
        <ele>57.161</ele>
      </trkpt>
      <trkpt lat="36.75236" lon="27.4693">
        <ele>53.501</ele>
      </trkpt>
      <trkpt lat="36.75236" lon="27.46935">
        <ele>52.647</ele>
      </trkpt>
      <trkpt lat="36.75235" lon="27.46942">
        <ele>51.085</ele>
      </trkpt>
      <trkpt lat="36.75235" lon="27.46944">
        <ele>50.586</ele>
      </trkpt>
      <trkpt lat="36.75233" lon="27.46948">
        <ele>49.97</ele>
      </trkpt>
      <trkpt lat="36.7523" lon="27.46952">
        <ele>48.653</ele>
      </trkpt>
      <trkpt lat="36.75226" lon="27.46955">
        <ele>47.444</ele>
      </trkpt>
      <trkpt lat="36.75227" lon="27.46959">
        <ele>47.317</ele>
      </trkpt>
      <trkpt lat="36.75219" lon="27.46965">
        <ele>44.77</ele>
      </trkpt>
      <trkpt lat="36.75214" lon="27.46986">
        <ele>39.979</ele>
      </trkpt>
      <trkpt lat="36.75213" lon="27.46987">
        <ele>39.34</ele>
      </trkpt>
      <trkpt lat="36.75211" lon="27.46993">
        <ele>37.637</ele>
      </trkpt>
      <trkpt lat="36.75212" lon="27.46994">
        <ele>37.578</ele>
      </trkpt>
      <trkpt lat="36.75212" lon="27.46994">
        <ele>37.578</ele>
      </trkpt>
      <trkpt lat="36.75212" lon="27.46992">
        <ele>38.002</ele>
      </trkpt>
      <trkpt lat="36.75203" lon="27.47013">
        <ele>33.445</ele>
      </trkpt>
      <trkpt lat="36.75202" lon="27.47022">
        <ele>32.664</ele>
      </trkpt>
      <trkpt lat="36.75203" lon="27.47023">
        <ele>32.741</ele>
      </trkpt>
      <trkpt lat="36.75203" lon="27.47026">
        <ele>32.598</ele>
      </trkpt>
      <trkpt lat="36.75202" lon="27.47031">
        <ele>32.437</ele>
      </trkpt>
      <trkpt lat="36.752" lon="27.47036">
        <ele>32.218</ele>
      </trkpt>
      <trkpt lat="36.752" lon="27.47041">
        <ele>32.32</ele>
      </trkpt>
      <trkpt lat="36.75202" lon="27.47044">
        <ele>32.622</ele>
      </trkpt>
      <trkpt lat="36.75202" lon="27.47046">
        <ele>32.644</ele>
      </trkpt>
      <trkpt lat="36.75202" lon="27.47057">
        <ele>32.884</ele>
      </trkpt>
      <trkpt lat="36.75201" lon="27.47064">
        <ele>32.913</ele>
      </trkpt>
      <trkpt lat="36.75201" lon="27.47067">
        <ele>32.978</ele>
      </trkpt>
      <trkpt lat="36.75201" lon="27.47067">
        <ele>33.068</ele>
      </trkpt>
      <trkpt lat="36.75201" lon="27.47068">
        <ele>32.999</ele>
      </trkpt>
      <trkpt lat="36.75198" lon="27.4707">
        <ele>32.862</ele>
      </trkpt>
      <trkpt lat="36.75197" lon="27.4707">
        <ele>32.721</ele>
      </trkpt>
      <trkpt lat="36.75192" lon="27.47074">
        <ele>33.274</ele>
      </trkpt>
      <trkpt lat="36.7519" lon="27.47074">
        <ele>33.733</ele>
      </trkpt>
      <trkpt lat="36.75189" lon="27.47074">
        <ele>33.874</ele>
      </trkpt>
      <trkpt lat="36.75188" lon="27.47073">
        <ele>34.166</ele>
      </trkpt>
      <trkpt lat="36.75187" lon="27.47074">
        <ele>34.362</ele>
      </trkpt>
      <trkpt lat="36.75187" lon="27.47075">
        <ele>34.458</ele>
      </trkpt>
      <trkpt lat="36.75187" lon="27.47081">
        <ele>34.605</ele>
      </trkpt>
      <trkpt lat="36.75187" lon="27.47085">
        <ele>34.369</ele>
      </trkpt>
      <trkpt lat="36.75187" lon="27.47096">
        <ele>32.945</ele>
      </trkpt>
      <trkpt lat="36.75187" lon="27.47101">
        <ele>32.188</ele>
      </trkpt>
      <trkpt lat="36.75188" lon="27.47108">
        <ele>30.894</ele>
      </trkpt>
      <trkpt lat="36.75188" lon="27.47114">
        <ele>29.967</ele>
      </trkpt>
      <trkpt lat="36.75188" lon="27.47119">
        <ele>29.248</ele>
      </trkpt>
      <trkpt lat="36.75188" lon="27.47124">
        <ele>28.362</ele>
      </trkpt>
      <trkpt lat="36.75188" lon="27.47127">
        <ele>27.99</ele>
      </trkpt>
      <trkpt lat="36.75188" lon="27.47138">
        <ele>26.323</ele>
      </trkpt>
      <trkpt lat="36.75188" lon="27.47144">
        <ele>25.49</ele>
      </trkpt>
      <trkpt lat="36.75187" lon="27.47148">
        <ele>25.05</ele>
      </trkpt>
      <trkpt lat="36.75186" lon="27.47154">
        <ele>24.488</ele>
      </trkpt>
      <trkpt lat="36.75187" lon="27.47157">
        <ele>23.845</ele>
      </trkpt>
      <trkpt lat="36.75187" lon="27.47159">
        <ele>23.734</ele>
      </trkpt>
      <trkpt lat="36.75186" lon="27.47163">
        <ele>23.34</ele>
      </trkpt>
      <trkpt lat="36.75186" lon="27.47167">
        <ele>22.771</ele>
      </trkpt>
      <trkpt lat="36.75185" lon="27.47172">
        <ele>22.662</ele>
      </trkpt>
      <trkpt lat="36.75185" lon="27.47176">
        <ele>22.555</ele>
      </trkpt>
      <trkpt lat="36.75185" lon="27.47181">
        <ele>22.171</ele>
      </trkpt>
      <trkpt lat="36.75184" lon="27.47184">
        <ele>22.251</ele>
      </trkpt>
      <trkpt lat="36.75183" lon="27.47188">
        <ele>22.027</ele>
      </trkpt>
      <trkpt lat="36.75183" lon="27.47199">
        <ele>20.926</ele>
      </trkpt>
      <trkpt lat="36.75179" lon="27.47213">
        <ele>18.974</ele>
      </trkpt>
      <trkpt lat="36.75176" lon="27.47217">
        <ele>18.568</ele>
      </trkpt>
      <trkpt lat="36.75175" lon="27.47222">
        <ele>17.826</ele>
      </trkpt>
      <trkpt lat="36.75173" lon="27.47227">
        <ele>17.275</ele>
      </trkpt>
      <trkpt lat="36.75171" lon="27.47234">
        <ele>16.161</ele>
      </trkpt>
      <trkpt lat="36.7517" lon="27.47244">
        <ele>14.249</ele>
      </trkpt>
      <trkpt lat="36.75168" lon="27.47246">
        <ele>13.911</ele>
      </trkpt>
      <trkpt lat="36.75168" lon="27.47245">
        <ele>13.961</ele>
      </trkpt>
      <trkpt lat="36.75167" lon="27.47244">
        <ele>14.194</ele>
      </trkpt>
      <trkpt lat="36.75165" lon="27.47248">
        <ele>13.818</ele>
      </trkpt>
      <trkpt lat="36.75162" lon="27.47252">
        <ele>13.634</ele>
      </trkpt>
      <trkpt lat="36.75154" lon="27.4726">
        <ele>14.104</ele>
      </trkpt>
      <trkpt lat="36.75144" lon="27.47263">
        <ele>15.017</ele>
      </trkpt>
      <trkpt lat="36.75143" lon="27.47264">
        <ele>15.058</ele>
      </trkpt>
      <trkpt lat="36.75138" lon="27.47263">
        <ele>15.744</ele>
      </trkpt>
      <trkpt lat="36.75135" lon="27.47263">
        <ele>16.36</ele>
      </trkpt>
      <trkpt lat="36.75129" lon="27.47261">
        <ele>18.164</ele>
      </trkpt>
      <trkpt lat="36.75124" lon="27.47256">
        <ele>20.012</ele>
      </trkpt>
      <trkpt lat="36.75119" lon="27.47255">
        <ele>21.25</ele>
      </trkpt>
      <trkpt lat="36.75111" lon="27.47254">
        <ele>23.232</ele>
      </trkpt>
      <trkpt lat="36.75107" lon="27.47252">
        <ele>24.477</ele>
      </trkpt>
      <trkpt lat="36.75101" lon="27.47251">
        <ele>25.952</ele>
      </trkpt>
      <trkpt lat="36.75099" lon="27.47255">
        <ele>25.888</ele>
      </trkpt>
      <trkpt lat="36.75094" lon="27.47258">
        <ele>26.383</ele>
      </trkpt>
      <trkpt lat="36.75093" lon="27.47262">
        <ele>26.156</ele>
      </trkpt>
      <trkpt lat="36.75093" lon="27.47266">
        <ele>25.647</ele>
      </trkpt>
      <trkpt lat="36.75091" lon="27.4727">
        <ele>25.465</ele>
      </trkpt>
      <trkpt lat="36.7509" lon="27.47273">
        <ele>25.65</ele>
      </trkpt>
      <trkpt lat="36.75089" lon="27.47273">
        <ele>25.733</ele>
      </trkpt>
      <trkpt lat="36.75088" lon="27.47272">
        <ele>26.323</ele>
      </trkpt>
      <trkpt lat="36.75087" lon="27.47272">
        <ele>26.379</ele>
      </trkpt>
      <trkpt lat="36.7509" lon="27.47276">
        <ele>25.024</ele>
      </trkpt>
      <trkpt lat="36.75088" lon="27.47283">
        <ele>25.071</ele>
      </trkpt>
      <trkpt lat="36.75086" lon="27.47289">
        <ele>24.891</ele>
      </trkpt>
      <trkpt lat="36.75083" lon="27.473">
        <ele>24.975</ele>
      </trkpt>
      <trkpt lat="36.75083" lon="27.47311">
        <ele>24.159</ele>
      </trkpt>
      <trkpt lat="36.75083" lon="27.4732">
        <ele>23.59</ele>
      </trkpt>
      <trkpt lat="36.75083" lon="27.47327">
        <ele>23.473</ele>
      </trkpt>
      <trkpt lat="36.75082" lon="27.47333">
        <ele>23.522</ele>
      </trkpt>
      <trkpt lat="36.75082" lon="27.47344">
        <ele>22.249</ele>
      </trkpt>
      <trkpt lat="36.75081" lon="27.47351">
        <ele>21.743</ele>
      </trkpt>
      <trkpt lat="36.75078" lon="27.47358">
        <ele>21.943</ele>
      </trkpt>
      <trkpt lat="36.75072" lon="27.47364">
        <ele>23.392</ele>
      </trkpt>
      <trkpt lat="36.75069" lon="27.47364">
        <ele>24.089</ele>
      </trkpt>
      <trkpt lat="36.75058" lon="27.47367">
        <ele>26.82</ele>
      </trkpt>
      <trkpt lat="36.75052" lon="27.47364">
        <ele>28.762</ele>
      </trkpt>
      <trkpt lat="36.75047" lon="27.47363">
        <ele>29.748</ele>
      </trkpt>
      <trkpt lat="36.7504" lon="27.47361">
        <ele>31.154</ele>
      </trkpt>
      <trkpt lat="36.75029" lon="27.4736">
        <ele>33.194</ele>
      </trkpt>
      <trkpt lat="36.75019" lon="27.47358">
        <ele>34.668</ele>
      </trkpt>
      <trkpt lat="36.75016" lon="27.47358">
        <ele>34.89</ele>
      </trkpt>
      <trkpt lat="36.75012" lon="27.47359">
        <ele>35.076</ele>
      </trkpt>
      <trkpt lat="36.75" lon="27.4736">
        <ele>35.553</ele>
      </trkpt>
      <trkpt lat="36.74999" lon="27.4736">
        <ele>35.27</ele>
      </trkpt>
      <trkpt lat="36.75" lon="27.47358">
        <ele>35.99</ele>
      </trkpt>
      <trkpt lat="36.74991" lon="27.47355">
        <ele>36.957</ele>
      </trkpt>
      <trkpt lat="36.74984" lon="27.47357">
        <ele>35.913</ele>
      </trkpt>
      <trkpt lat="36.7498" lon="27.47358">
        <ele>35.303</ele>
      </trkpt>
      <trkpt lat="36.7498" lon="27.47357">
        <ele>35.472</ele>
      </trkpt>
      <trkpt lat="36.74976" lon="27.47355">
        <ele>36.279</ele>
      </trkpt>
      <trkpt lat="36.74969" lon="27.47354">
        <ele>37.657</ele>
      </trkpt>
      <trkpt lat="36.74965" lon="27.47353">
        <ele>39.073</ele>
      </trkpt>
      <trkpt lat="36.74959" lon="27.47351">
        <ele>41.301</ele>
      </trkpt>
      <trkpt lat="36.74953" lon="27.47349">
        <ele>43.686</ele>
      </trkpt>
      <trkpt lat="36.74946" lon="27.47349">
        <ele>44.791</ele>
      </trkpt>
      <trkpt lat="36.74943" lon="27.47351">
        <ele>44.547</ele>
      </trkpt>
      <trkpt lat="36.74938" lon="27.47355">
        <ele>44.242</ele>
      </trkpt>
      <trkpt lat="36.74937" lon="27.47357">
        <ele>43.545</ele>
      </trkpt>
      <trkpt lat="36.74931" lon="27.47367">
        <ele>41.549</ele>
      </trkpt>
      <trkpt lat="36.74926" lon="27.47376">
        <ele>40.051</ele>
      </trkpt>
      <trkpt lat="36.74925" lon="27.47379">
        <ele>39.428</ele>
      </trkpt>
      <trkpt lat="36.74923" lon="27.4739">
        <ele>36.464</ele>
      </trkpt>
      <trkpt lat="36.74922" lon="27.4739">
        <ele>36.593</ele>
      </trkpt>
      <trkpt lat="36.74923" lon="27.47391">
        <ele>35.883</ele>
      </trkpt>
      <trkpt lat="36.74923" lon="27.47394">
        <ele>35.27</ele>
      </trkpt>
      <trkpt lat="36.74923" lon="27.47395">
        <ele>35.093</ele>
      </trkpt>
      <trkpt lat="36.7492" lon="27.47405">
        <ele>33.898</ele>
      </trkpt>
      <trkpt lat="36.74916" lon="27.47413">
        <ele>33.475</ele>
      </trkpt>
      <trkpt lat="36.74914" lon="27.47427">
        <ele>32.966</ele>
      </trkpt>
      <trkpt lat="36.74914" lon="27.4743">
        <ele>32.485</ele>
      </trkpt>
      <trkpt lat="36.74913" lon="27.47435">
        <ele>32.624</ele>
      </trkpt>
      <trkpt lat="36.74909" lon="27.47445">
        <ele>33.534</ele>
      </trkpt>
      <trkpt lat="36.74908" lon="27.47448">
        <ele>33.57</ele>
      </trkpt>
      <trkpt lat="36.74906" lon="27.4745">
        <ele>34.726</ele>
      </trkpt>
      <trkpt lat="36.74903" lon="27.47454">
        <ele>35.442</ele>
      </trkpt>
      <trkpt lat="36.74905" lon="27.47453">
        <ele>34.877</ele>
      </trkpt>
      <trkpt lat="36.74906" lon="27.47451">
        <ele>34.476</ele>
      </trkpt>
      <trkpt lat="36.74904" lon="27.47456">
        <ele>35.069</ele>
      </trkpt>
      <trkpt lat="36.74902" lon="27.4746">
        <ele>35.373</ele>
      </trkpt>
      <trkpt lat="36.74902" lon="27.47462">
        <ele>35.605</ele>
      </trkpt>
      <trkpt lat="36.74901" lon="27.47461">
        <ele>36.084</ele>
      </trkpt>
      <trkpt lat="36.74898" lon="27.47467">
        <ele>37.021</ele>
      </trkpt>
      <trkpt lat="36.74894" lon="27.47475">
        <ele>38.757</ele>
      </trkpt>
      <trkpt lat="36.74893" lon="27.4748">
        <ele>38.68</ele>
      </trkpt>
      <trkpt lat="36.74888" lon="27.47486">
        <ele>40.491</ele>
      </trkpt>
      <trkpt lat="36.74886" lon="27.47488">
        <ele>41.414</ele>
      </trkpt>
      <trkpt lat="36.74887" lon="27.47487">
        <ele>41.193</ele>
      </trkpt>
      <trkpt lat="36.74891" lon="27.47488">
        <ele>38.699</ele>
      </trkpt>
      <trkpt lat="36.74887" lon="27.47497">
        <ele>39.968</ele>
      </trkpt>
      <trkpt lat="36.74884" lon="27.475">
        <ele>40.917</ele>
      </trkpt>
      <trkpt lat="36.74884" lon="27.47502">
        <ele>41.009</ele>
      </trkpt>
      <trkpt lat="36.74881" lon="27.47512">
        <ele>40.435</ele>
      </trkpt>
      <trkpt lat="36.74881" lon="27.47516">
        <ele>39.618</ele>
      </trkpt>
      <trkpt lat="36.74881" lon="27.47519">
        <ele>39.108</ele>
      </trkpt>
      <trkpt lat="36.7488" lon="27.47528">
        <ele>38.111</ele>
      </trkpt>
      <trkpt lat="36.74879" lon="27.47532">
        <ele>38.126</ele>
      </trkpt>
      <trkpt lat="36.74878" lon="27.47541">
        <ele>38.592</ele>
      </trkpt>
      <trkpt lat="36.74877" lon="27.47548">
        <ele>38.284</ele>
      </trkpt>
      <trkpt lat="36.74875" lon="27.47554">
        <ele>39.216</ele>
      </trkpt>
      <trkpt lat="36.74874" lon="27.4756">
        <ele>39.58</ele>
      </trkpt>
      <trkpt lat="36.74872" lon="27.47567">
        <ele>40.005</ele>
      </trkpt>
      <trkpt lat="36.74872" lon="27.47568">
        <ele>39.81</ele>
      </trkpt>
      <trkpt lat="36.74872" lon="27.47576">
        <ele>39.283</ele>
      </trkpt>
      <trkpt lat="36.74872" lon="27.47583">
        <ele>39.014</ele>
      </trkpt>
      <trkpt lat="36.74873" lon="27.47592">
        <ele>37.23</ele>
      </trkpt>
      <trkpt lat="36.74876" lon="27.47598">
        <ele>35</ele>
      </trkpt>
      <trkpt lat="36.74879" lon="27.47604">
        <ele>33.14</ele>
      </trkpt>
      <trkpt lat="36.74879" lon="27.47604">
        <ele>33.084</ele>
      </trkpt>
      <trkpt lat="36.74881" lon="27.4761">
        <ele>31.606</ele>
      </trkpt>
      <trkpt lat="36.74882" lon="27.47612">
        <ele>31.099</ele>
      </trkpt>
      <trkpt lat="36.74885" lon="27.4762">
        <ele>29.532</ele>
      </trkpt>
      <trkpt lat="36.74885" lon="27.47621">
        <ele>29.406</ele>
      </trkpt>
      <trkpt lat="36.74883" lon="27.4763">
        <ele>29.614</ele>
      </trkpt>
      <trkpt lat="36.74882" lon="27.47632">
        <ele>29.706</ele>
      </trkpt>
      <trkpt lat="36.74876" lon="27.47642">
        <ele>30.597</ele>
      </trkpt>
      <trkpt lat="36.74871" lon="27.47644">
        <ele>31.816</ele>
      </trkpt>
      <trkpt lat="36.74867" lon="27.47643">
        <ele>33.008</ele>
      </trkpt>
      <trkpt lat="36.74859" lon="27.47647">
        <ele>34.053</ele>
      </trkpt>
      <trkpt lat="36.74852" lon="27.4765">
        <ele>34.043</ele>
      </trkpt>
      <trkpt lat="36.74848" lon="27.47651">
        <ele>34.055</ele>
      </trkpt>
      <trkpt lat="36.74841" lon="27.47654">
        <ele>33.871</ele>
      </trkpt>
      <trkpt lat="36.74835" lon="27.47657">
        <ele>33.111</ele>
      </trkpt>
      <trkpt lat="36.74831" lon="27.47659">
        <ele>32.569</ele>
      </trkpt>
      <trkpt lat="36.74829" lon="27.47661">
        <ele>32.244</ele>
      </trkpt>
      <trkpt lat="36.74829" lon="27.47661">
        <ele>32.301</ele>
      </trkpt>
      <trkpt lat="36.74825" lon="27.47663">
        <ele>31.568</ele>
      </trkpt>
      <trkpt lat="36.74821" lon="27.47666">
        <ele>30.698</ele>
      </trkpt>
      <trkpt lat="36.74821" lon="27.47666">
        <ele>30.698</ele>
      </trkpt>
      <trkpt lat="36.7482" lon="27.47666">
        <ele>31.005</ele>
      </trkpt>
      <trkpt lat="36.74819" lon="27.47669">
        <ele>29.998</ele>
      </trkpt>
      <trkpt lat="36.74819" lon="27.47669">
        <ele>30.025</ele>
      </trkpt>
      <trkpt lat="36.74818" lon="27.4767">
        <ele>29.737</ele>
      </trkpt>
      <trkpt lat="36.74812" lon="27.47677">
        <ele>28.588</ele>
      </trkpt>
      <trkpt lat="36.74805" lon="27.47685">
        <ele>27.669</ele>
      </trkpt>
      <trkpt lat="36.74803" lon="27.4769">
        <ele>27.413</ele>
      </trkpt>
      <trkpt lat="36.74798" lon="27.477">
        <ele>26.264</ele>
      </trkpt>
      <trkpt lat="36.74797" lon="27.47702">
        <ele>26.142</ele>
      </trkpt>
      <trkpt lat="36.74791" lon="27.47709">
        <ele>26.265</ele>
      </trkpt>
      <trkpt lat="36.74786" lon="27.47713">
        <ele>26.629</ele>
      </trkpt>
      <trkpt lat="36.74781" lon="27.47718">
        <ele>26.445</ele>
      </trkpt>
      <trkpt lat="36.7478" lon="27.47719">
        <ele>26.385</ele>
      </trkpt>
      <trkpt lat="36.74779" lon="27.4772">
        <ele>26.283</ele>
      </trkpt>
      <trkpt lat="36.74769" lon="27.47736">
        <ele>25.255</ele>
      </trkpt>
      <trkpt lat="36.74753" lon="27.4775">
        <ele>23.531</ele>
      </trkpt>
      <trkpt lat="36.74736" lon="27.47772">
        <ele>20.266</ele>
      </trkpt>
      <trkpt lat="36.74726" lon="27.47776">
        <ele>19.419</ele>
      </trkpt>
      <trkpt lat="36.74701" lon="27.47782">
        <ele>19.211</ele>
      </trkpt>
      <trkpt lat="36.74674" lon="27.4778">
        <ele>19.906</ele>
      </trkpt>
      <trkpt lat="36.74652" lon="27.4778">
        <ele>21.624</ele>
      </trkpt>
      <trkpt lat="36.74631" lon="27.4778">
        <ele>24.398</ele>
      </trkpt>
      <trkpt lat="36.74611" lon="27.47772">
        <ele>26.612</ele>
      </trkpt>
      <trkpt lat="36.74591" lon="27.47761">
        <ele>28.385</ele>
      </trkpt>
      <trkpt lat="36.74574" lon="27.47747">
        <ele>30.3</ele>
      </trkpt>
      <trkpt lat="36.74548" lon="27.47721">
        <ele>34.884</ele>
      </trkpt>
      <trkpt lat="36.74534" lon="27.47706">
        <ele>37.403</ele>
      </trkpt>
      <trkpt lat="36.745" lon="27.47697">
        <ele>40.883</ele>
      </trkpt>
      <trkpt lat="36.74487" lon="27.47682">
        <ele>41.693</ele>
      </trkpt>
      <trkpt lat="36.74482" lon="27.47661">
        <ele>44.098</ele>
      </trkpt>
      <trkpt lat="36.7447" lon="27.4766">
        <ele>43.79</ele>
      </trkpt>
      <trkpt lat="36.74458" lon="27.47676">
        <ele>42.541</ele>
      </trkpt>
      <trkpt lat="36.74451" lon="27.4769">
        <ele>42.487</ele>
      </trkpt>
      <trkpt lat="36.74452" lon="27.47712">
        <ele>43.251</ele>
      </trkpt>
      <trkpt lat="36.74451" lon="27.47742">
        <ele>45.469</ele>
      </trkpt>
      <trkpt lat="36.7446" lon="27.47777">
        <ele>46.868</ele>
      </trkpt>
      <trkpt lat="36.74464" lon="27.47803">
        <ele>49.226</ele>
      </trkpt>
      <trkpt lat="36.74463" lon="27.47818">
        <ele>51.651</ele>
      </trkpt>
      <trkpt lat="36.74463" lon="27.4782">
        <ele>52.045</ele>
      </trkpt>
      <trkpt lat="36.74462" lon="27.47821">
        <ele>52.216</ele>
      </trkpt>
      <trkpt lat="36.74462" lon="27.47822">
        <ele>52.461</ele>
      </trkpt>
      <trkpt lat="36.74461" lon="27.47823">
        <ele>52.713</ele>
      </trkpt>
      <trkpt lat="36.74461" lon="27.47824">
        <ele>52.992</ele>
      </trkpt>
      <trkpt lat="36.7446" lon="27.47825">
        <ele>53.306</ele>
      </trkpt>
      <trkpt lat="36.74459" lon="27.47826">
        <ele>53.664</ele>
      </trkpt>
      <trkpt lat="36.74459" lon="27.47828">
        <ele>53.917</ele>
      </trkpt>
      <trkpt lat="36.74459" lon="27.47829">
        <ele>54.201</ele>
      </trkpt>
      <trkpt lat="36.74464" lon="27.4784">
        <ele>55.004</ele>
      </trkpt>
      <trkpt lat="36.74466" lon="27.47842">
        <ele>54.914</ele>
      </trkpt>
      <trkpt lat="36.74474" lon="27.47853">
        <ele>54.905</ele>
      </trkpt>
      <trkpt lat="36.74478" lon="27.47857">
        <ele>54.761</ele>
      </trkpt>
      <trkpt lat="36.74485" lon="27.47865">
        <ele>53.913</ele>
      </trkpt>
      <trkpt lat="36.74501" lon="27.47879">
        <ele>52.095</ele>
      </trkpt>
      <trkpt lat="36.74517" lon="27.47886">
        <ele>49.848</ele>
      </trkpt>
      <trkpt lat="36.74531" lon="27.4789">
        <ele>47.815</ele>
      </trkpt>
      <trkpt lat="36.74547" lon="27.479">
        <ele>46.852</ele>
      </trkpt>
      <trkpt lat="36.74559" lon="27.47911">
        <ele>46.258</ele>
      </trkpt>
      <trkpt lat="36.7457" lon="27.47926">
        <ele>45.975</ele>
      </trkpt>
      <trkpt lat="36.74581" lon="27.47931">
        <ele>44.8</ele>
      </trkpt>
      <trkpt lat="36.746" lon="27.47942">
        <ele>42.386</ele>
      </trkpt>
      <trkpt lat="36.74606" lon="27.47959">
        <ele>43.852</ele>
      </trkpt>
      <trkpt lat="36.74611" lon="27.47972">
        <ele>44.985</ele>
      </trkpt>
      <trkpt lat="36.74622" lon="27.47974">
        <ele>43.886</ele>
      </trkpt>
      <trkpt lat="36.74643" lon="27.47983">
        <ele>42.038</ele>
      </trkpt>
      <trkpt lat="36.7466" lon="27.47994">
        <ele>39.732</ele>
      </trkpt>
      <trkpt lat="36.74674" lon="27.48008">
        <ele>38.778</ele>
      </trkpt>
      <trkpt lat="36.74686" lon="27.48022">
        <ele>39.838</ele>
      </trkpt>
      <trkpt lat="36.74697" lon="27.4803">
        <ele>39.803</ele>
      </trkpt>
      <trkpt lat="36.74718" lon="27.48042">
        <ele>37.773</ele>
      </trkpt>
      <trkpt lat="36.74739" lon="27.4805">
        <ele>36.391</ele>
      </trkpt>
      <trkpt lat="36.74761" lon="27.4806">
        <ele>34.944</ele>
      </trkpt>
      <trkpt lat="36.74786" lon="27.48075">
        <ele>33.254</ele>
      </trkpt>
      <trkpt lat="36.74802" lon="27.48086">
        <ele>30.933</ele>
      </trkpt>
      <trkpt lat="36.74821" lon="27.48103">
        <ele>30.671</ele>
      </trkpt>
      <trkpt lat="36.74836" lon="27.4811">
        <ele>29.794</ele>
      </trkpt>
      <trkpt lat="36.74861" lon="27.48116">
        <ele>29.519</ele>
      </trkpt>
      <trkpt lat="36.74886" lon="27.48119">
        <ele>27.34</ele>
      </trkpt>
      <trkpt lat="36.74905" lon="27.48129">
        <ele>26.602</ele>
      </trkpt>
      <trkpt lat="36.74922" lon="27.48143">
        <ele>25.667</ele>
      </trkpt>
      <trkpt lat="36.74932" lon="27.4816">
        <ele>25.386</ele>
      </trkpt>
      <trkpt lat="36.74938" lon="27.48172">
        <ele>25.136</ele>
      </trkpt>
      <trkpt lat="36.74943" lon="27.48173">
        <ele>24.465</ele>
      </trkpt>
      <trkpt lat="36.7495" lon="27.48175">
        <ele>23.547</ele>
      </trkpt>
      <trkpt lat="36.74962" lon="27.4818">
        <ele>22.594</ele>
      </trkpt>
      <trkpt lat="36.74963" lon="27.48181">
        <ele>22.553</ele>
      </trkpt>
      <trkpt lat="36.74966" lon="27.48182">
        <ele>22.28</ele>
      </trkpt>
      <trkpt lat="36.74974" lon="27.48173">
        <ele>20.463</ele>
      </trkpt>
      <trkpt lat="36.74984" lon="27.48172">
        <ele>18.457</ele>
      </trkpt>
      <trkpt lat="36.74994" lon="27.48186">
        <ele>17.721</ele>
      </trkpt>
      <trkpt lat="36.74995" lon="27.48189">
        <ele>17.635</ele>
      </trkpt>
      <trkpt lat="36.75004" lon="27.48192">
        <ele>15.539</ele>
      </trkpt>
      <trkpt lat="36.75005" lon="27.48191">
        <ele>15.179</ele>
      </trkpt>
      <trkpt lat="36.75012" lon="27.48197">
        <ele>13.595</ele>
      </trkpt>
      <trkpt lat="36.7502" lon="27.48208">
        <ele>11.981</ele>
      </trkpt>
      <trkpt lat="36.75024" lon="27.48211">
        <ele>10.84</ele>
      </trkpt>
      <trkpt lat="36.75027" lon="27.4821">
        <ele>9.915</ele>
      </trkpt>
      <trkpt lat="36.75042" lon="27.48219">
        <ele>5.545</ele>
      </trkpt>
      <trkpt lat="36.75045" lon="27.48225">
        <ele>4.619</ele>
      </trkpt>
      <trkpt lat="36.75043" lon="27.4824">
        <ele>5.463</ele>
      </trkpt>
      <trkpt lat="36.75033" lon="27.4821">
        <ele>15.991</ele>
        <time>2018-05-19T07:44:51Z</time>
      </trkpt>
      <trkpt lat="36.75033" lon="27.4821">
        <ele>15.991</ele>
        <time>2018-05-19T07:44:51Z</time>
      </trkpt>
      <trkpt lat="36.75033" lon="27.4821">
        <ele>15.991</ele>
        <time>2018-05-19T07:44:51Z</time>
      </trkpt>
      <trkpt lat="36.75033" lon="27.4821">
        <ele>15.991</ele>
        <time>2018-05-19T07:44:51Z</time>
      </trkpt>
      <trkpt lat="36.75037" lon="27.48214">
        <ele>15.784</ele>
        <time>2018-05-19T07:44:55Z</time>
      </trkpt>
      <trkpt lat="36.75042" lon="27.48216">
        <ele>12.859</ele>
        <time>2018-05-19T07:45:07Z</time>
      </trkpt>
      <trkpt lat="36.75041" lon="27.48222">
        <ele>11.862</ele>
        <time>2018-05-19T07:45:12Z</time>
      </trkpt>
      <trkpt lat="36.7504" lon="27.48228">
        <ele>10.399</ele>
        <time>2018-05-19T07:45:30Z</time>
      </trkpt>
      <trkpt lat="36.7504" lon="27.48233">
        <ele>9.426</ele>
        <time>2018-05-19T07:45:36Z</time>
      </trkpt>
      <trkpt lat="36.75039" lon="27.48239">
        <ele>8.577</ele>
        <time>2018-05-19T07:45:50Z</time>
      </trkpt>
      <trkpt lat="36.75037" lon="27.48246">
        <ele>8.731</ele>
        <time>2018-05-19T07:45:57Z</time>
      </trkpt>
      <trkpt lat="36.7504" lon="27.48251">
        <ele>8.427</ele>
        <time>2018-05-19T07:46:03Z</time>
      </trkpt>
      <trkpt lat="36.75039" lon="27.48258">
        <ele>7.668</ele>
        <time>2018-05-19T07:46:08Z</time>
      </trkpt>
      <trkpt lat="36.75039" lon="27.48264">
        <ele>7.514</ele>
        <time>2018-05-19T07:46:11Z</time>
      </trkpt>
      <trkpt lat="36.75038" lon="27.4827">
        <ele>9.008</ele>
        <time>2018-05-19T07:46:15Z</time>
      </trkpt>
      <trkpt lat="36.75042" lon="27.48274">
        <ele>11.154</ele>
        <time>2018-05-19T07:46:25Z</time>
      </trkpt>
      <trkpt lat="36.75046" lon="27.48277">
        <ele>11.577</ele>
        <time>2018-05-19T07:46:30Z</time>
      </trkpt>
      <trkpt lat="36.75047" lon="27.48283">
        <ele>12.652</ele>
        <time>2018-05-19T07:46:36Z</time>
      </trkpt>
      <trkpt lat="36.75051" lon="27.48286">
        <ele>13.645</ele>
        <time>2018-05-19T07:46:49Z</time>
      </trkpt>
      <trkpt lat="36.75054" lon="27.4829">
        <ele>13.622</ele>
        <time>2018-05-19T07:47:03Z</time>
      </trkpt>
      <trkpt lat="36.75056" lon="27.48296">
        <ele>13.869</ele>
        <time>2018-05-19T07:47:10Z</time>
      </trkpt>
      <trkpt lat="36.75055" lon="27.48301">
        <ele>14.28</ele>
        <time>2018-05-19T07:47:16Z</time>
      </trkpt>
      <trkpt lat="36.75058" lon="27.48306">
        <ele>16.174</ele>
        <time>2018-05-19T07:47:24Z</time>
      </trkpt>
      <trkpt lat="36.75058" lon="27.48312">
        <ele>17.628</ele>
        <time>2018-05-19T07:47:31Z</time>
      </trkpt>
      <trkpt lat="36.75059" lon="27.48318">
        <ele>18.489</ele>
        <time>2018-05-19T07:47:38Z</time>
      </trkpt>
      <trkpt lat="36.75062" lon="27.48322">
        <ele>19.317</ele>
        <time>2018-05-19T07:47:44Z</time>
      </trkpt>
      <trkpt lat="36.75065" lon="27.48328">
        <ele>18.808</ele>
        <time>2018-05-19T07:47:50Z</time>
      </trkpt>
      <trkpt lat="36.75067" lon="27.48333">
        <ele>19.674</ele>
        <time>2018-05-19T07:47:55Z</time>
      </trkpt>
      <trkpt lat="36.75066" lon="27.48339">
        <ele>19.887</ele>
        <time>2018-05-19T07:48:00Z</time>
      </trkpt>
      <trkpt lat="36.7507" lon="27.48344">
        <ele>20.582</ele>
        <time>2018-05-19T07:48:06Z</time>
      </trkpt>
      <trkpt lat="36.75075" lon="27.48345">
        <ele>21.235</ele>
        <time>2018-05-19T07:48:12Z</time>
      </trkpt>
      <trkpt lat="36.75075" lon="27.4835">
        <ele>21.382</ele>
        <time>2018-05-19T07:48:19Z</time>
      </trkpt>
      <trkpt lat="36.75079" lon="27.48354">
        <ele>22.769</ele>
        <time>2018-05-19T07:48:25Z</time>
      </trkpt>
      <trkpt lat="36.75082" lon="27.48359">
        <ele>23.59</ele>
        <time>2018-05-19T07:48:40Z</time>
      </trkpt>
      <trkpt lat="36.75084" lon="27.48364">
        <ele>24.434</ele>
        <time>2018-05-19T07:48:46Z</time>
      </trkpt>
      <trkpt lat="36.75085" lon="27.4837">
        <ele>24.251</ele>
        <time>2018-05-19T07:48:51Z</time>
      </trkpt>
      <trkpt lat="36.75087" lon="27.48376">
        <ele>25.101</ele>
        <time>2018-05-19T07:48:58Z</time>
      </trkpt>
      <trkpt lat="36.75088" lon="27.48382">
        <ele>26.111</ele>
        <time>2018-05-19T07:49:10Z</time>
      </trkpt>
      <trkpt lat="36.75091" lon="27.48387">
        <ele>25.508</ele>
        <time>2018-05-19T07:49:15Z</time>
      </trkpt>
      <trkpt lat="36.75091" lon="27.48393">
        <ele>27.077</ele>
        <time>2018-05-19T07:49:20Z</time>
      </trkpt>
      <trkpt lat="36.75094" lon="27.48398">
        <ele>27.07</ele>
        <time>2018-05-19T07:49:26Z</time>
      </trkpt>
      <trkpt lat="36.75093" lon="27.48403">
        <ele>27.955</ele>
        <time>2018-05-19T07:49:33Z</time>
      </trkpt>
      <trkpt lat="36.75096" lon="27.48411">
        <ele>29.058</ele>
        <time>2018-05-19T07:49:47Z</time>
      </trkpt>
      <trkpt lat="36.75097" lon="27.48417">
        <ele>29.785</ele>
        <time>2018-05-19T07:49:53Z</time>
      </trkpt>
      <trkpt lat="36.75099" lon="27.48422">
        <ele>30.432</ele>
        <time>2018-05-19T07:49:59Z</time>
      </trkpt>
      <trkpt lat="36.75099" lon="27.48428">
        <ele>32.133</ele>
        <time>2018-05-19T07:50:11Z</time>
      </trkpt>
      <trkpt lat="36.751" lon="27.48433">
        <ele>37.697</ele>
        <time>2018-05-19T07:51:01Z</time>
      </trkpt>
      <trkpt lat="36.75105" lon="27.48429">
        <ele>38.775</ele>
        <time>2018-05-19T07:51:05Z</time>
      </trkpt>
      <trkpt lat="36.75109" lon="27.48431">
        <ele>37.728</ele>
        <time>2018-05-19T07:51:20Z</time>
      </trkpt>
      <trkpt lat="36.75114" lon="27.48434">
        <ele>38.62</ele>
        <time>2018-05-19T07:51:27Z</time>
      </trkpt>
      <trkpt lat="36.75113" lon="27.4844">
        <ele>37.408</ele>
        <time>2018-05-19T07:51:35Z</time>
      </trkpt>
      <trkpt lat="36.75117" lon="27.48445">
        <ele>37.799</ele>
        <time>2018-05-19T07:51:44Z</time>
      </trkpt>
      <trkpt lat="36.7512" lon="27.4845">
        <ele>37.932</ele>
        <time>2018-05-19T07:51:53Z</time>
      </trkpt>
      <trkpt lat="36.75124" lon="27.48451">
        <ele>38.857</ele>
        <time>2018-05-19T07:52:24Z</time>
      </trkpt>
      <trkpt lat="36.75125" lon="27.48456">
        <ele>38.88</ele>
        <time>2018-05-19T07:52:32Z</time>
      </trkpt>
      <trkpt lat="36.75126" lon="27.48462">
        <ele>38.877</ele>
        <time>2018-05-19T07:52:38Z</time>
      </trkpt>
      <trkpt lat="36.75124" lon="27.48467">
        <ele>39.254</ele>
        <time>2018-05-19T07:52:46Z</time>
      </trkpt>
      <trkpt lat="36.75125" lon="27.48473">
        <ele>38.885</ele>
        <time>2018-05-19T07:52:53Z</time>
      </trkpt>
      <trkpt lat="36.75127" lon="27.48478">
        <ele>39.359</ele>
        <time>2018-05-19T07:52:58Z</time>
      </trkpt>
      <trkpt lat="36.75126" lon="27.48485">
        <ele>39.164</ele>
        <time>2018-05-19T07:53:04Z</time>
      </trkpt>
      <trkpt lat="36.75128" lon="27.4849">
        <ele>38.306</ele>
        <time>2018-05-19T07:53:09Z</time>
      </trkpt>
      <trkpt lat="36.75126" lon="27.48496">
        <ele>39.616</ele>
        <time>2018-05-19T07:53:15Z</time>
      </trkpt>
      <trkpt lat="36.75125" lon="27.48502">
        <ele>39.708</ele>
        <time>2018-05-19T07:53:22Z</time>
      </trkpt>
      <trkpt lat="36.75127" lon="27.48508">
        <ele>40.648</ele>
        <time>2018-05-19T07:53:29Z</time>
      </trkpt>
      <trkpt lat="36.75129" lon="27.48513">
        <ele>40.891</ele>
        <time>2018-05-19T07:53:34Z</time>
      </trkpt>
      <trkpt lat="36.75131" lon="27.48519">
        <ele>39.696</ele>
        <time>2018-05-19T07:53:42Z</time>
      </trkpt>
      <trkpt lat="36.75133" lon="27.48525">
        <ele>38.959</ele>
        <time>2018-05-19T07:53:49Z</time>
      </trkpt>
      <trkpt lat="36.75136" lon="27.48529">
        <ele>37.166</ele>
        <time>2018-05-19T07:53:56Z</time>
      </trkpt>
      <trkpt lat="36.75137" lon="27.48535">
        <ele>37.453</ele>
        <time>2018-05-19T07:54:04Z</time>
      </trkpt>
      <trkpt lat="36.75139" lon="27.48541">
        <ele>36.414</ele>
        <time>2018-05-19T07:54:11Z</time>
      </trkpt>
      <trkpt lat="36.75143" lon="27.48544">
        <ele>36.418</ele>
        <time>2018-05-19T07:54:20Z</time>
      </trkpt>
      <trkpt lat="36.75146" lon="27.48548">
        <ele>35.966</ele>
        <time>2018-05-19T07:54:28Z</time>
      </trkpt>
      <trkpt lat="36.75151" lon="27.48549">
        <ele>34.829</ele>
        <time>2018-05-19T07:54:36Z</time>
      </trkpt>
      <trkpt lat="36.75148" lon="27.48554">
        <ele>34.721</ele>
        <time>2018-05-19T07:54:42Z</time>
      </trkpt>
      <trkpt lat="36.75152" lon="27.48558">
        <ele>35.008</ele>
        <time>2018-05-19T07:54:50Z</time>
      </trkpt>
      <trkpt lat="36.75155" lon="27.48562">
        <ele>36.418</ele>
        <time>2018-05-19T07:54:57Z</time>
      </trkpt>
      <trkpt lat="36.75159" lon="27.48567">
        <ele>35.841</ele>
        <time>2018-05-19T07:55:03Z</time>
      </trkpt>
      <trkpt lat="36.75162" lon="27.48571">
        <ele>35.046</ele>
        <time>2018-05-19T07:55:11Z</time>
      </trkpt>
      <trkpt lat="36.75165" lon="27.48575">
        <ele>34.749</ele>
        <time>2018-05-19T07:55:22Z</time>
      </trkpt>
      <trkpt lat="36.75168" lon="27.4858">
        <ele>35.026</ele>
        <time>2018-05-19T07:55:30Z</time>
      </trkpt>
      <trkpt lat="36.75172" lon="27.48583">
        <ele>34.473</ele>
        <time>2018-05-19T07:55:37Z</time>
      </trkpt>
      <trkpt lat="36.75175" lon="27.48589">
        <ele>32.724</ele>
        <time>2018-05-19T07:55:47Z</time>
      </trkpt>
      <trkpt lat="36.75176" lon="27.48594">
        <ele>33.178</ele>
        <time>2018-05-19T07:55:58Z</time>
      </trkpt>
      <trkpt lat="36.75179" lon="27.48598">
        <ele>33.226</ele>
        <time>2018-05-19T07:56:05Z</time>
      </trkpt>
      <trkpt lat="36.75182" lon="27.48602">
        <ele>33.147</ele>
        <time>2018-05-19T07:56:11Z</time>
      </trkpt>
      <trkpt lat="36.75187" lon="27.48603">
        <ele>33.411</ele>
        <time>2018-05-19T07:56:16Z</time>
      </trkpt>
      <trkpt lat="36.75189" lon="27.48608">
        <ele>33.108</ele>
        <time>2018-05-19T07:56:24Z</time>
      </trkpt>
      <trkpt lat="36.75193" lon="27.48612">
        <ele>32.894</ele>
        <time>2018-05-19T07:56:32Z</time>
      </trkpt>
      <trkpt lat="36.75197" lon="27.48616">
        <ele>32.977</ele>
        <time>2018-05-19T07:56:45Z</time>
      </trkpt>
      <trkpt lat="36.75201" lon="27.48618">
        <ele>31.842</ele>
        <time>2018-05-19T07:56:56Z</time>
      </trkpt>
      <trkpt lat="36.75205" lon="27.48621">
        <ele>31.635</ele>
        <time>2018-05-19T07:57:05Z</time>
      </trkpt>
      <trkpt lat="36.75206" lon="27.48626">
        <ele>30.852</ele>
        <time>2018-05-19T07:57:12Z</time>
      </trkpt>
      <trkpt lat="36.75208" lon="27.48632">
        <ele>29.759</ele>
        <time>2018-05-19T07:57:19Z</time>
      </trkpt>
      <trkpt lat="36.7521" lon="27.48637">
        <ele>30.16</ele>
        <time>2018-05-19T07:57:28Z</time>
      </trkpt>
      <trkpt lat="36.75213" lon="27.48642">
        <ele>30.824</ele>
        <time>2018-05-19T07:57:40Z</time>
      </trkpt>
      <trkpt lat="36.75217" lon="27.48644">
        <ele>30.078</ele>
        <time>2018-05-19T07:57:49Z</time>
      </trkpt>
      <trkpt lat="36.75221" lon="27.48649">
        <ele>28.433</ele>
        <time>2018-05-19T07:57:58Z</time>
      </trkpt>
      <trkpt lat="36.75224" lon="27.48652">
        <ele>28.426</ele>
        <time>2018-05-19T07:58:08Z</time>
      </trkpt>
      <trkpt lat="36.75228" lon="27.48656">
        <ele>27.708</ele>
        <time>2018-05-19T07:58:15Z</time>
      </trkpt>
      <trkpt lat="36.75232" lon="27.48658">
        <ele>25.849</ele>
        <time>2018-05-19T07:58:22Z</time>
      </trkpt>
      <trkpt lat="36.75237" lon="27.4866">
        <ele>25.292</ele>
        <time>2018-05-19T07:58:34Z</time>
      </trkpt>
      <trkpt lat="36.75241" lon="27.48661">
        <ele>24.797</ele>
        <time>2018-05-19T07:58:41Z</time>
      </trkpt>
      <trkpt lat="36.75245" lon="27.48664">
        <ele>25.16</ele>
        <time>2018-05-19T07:58:49Z</time>
      </trkpt>
      <trkpt lat="36.7525" lon="27.48667">
        <ele>23.777</ele>
        <time>2018-05-19T07:58:59Z</time>
      </trkpt>
      <trkpt lat="36.75251" lon="27.48673">
        <ele>22.374</ele>
        <time>2018-05-19T07:59:09Z</time>
      </trkpt>
      <trkpt lat="36.75255" lon="27.48676">
        <ele>23.335</ele>
        <time>2018-05-19T07:59:19Z</time>
      </trkpt>
      <trkpt lat="36.75255" lon="27.48682">
        <ele>23.169</ele>
        <time>2018-05-19T07:59:28Z</time>
      </trkpt>
      <trkpt lat="36.75259" lon="27.48686">
        <ele>23.169</ele>
        <time>2018-05-19T07:59:36Z</time>
      </trkpt>
      <trkpt lat="36.75263" lon="27.48689">
        <ele>23.504</ele>
        <time>2018-05-19T07:59:43Z</time>
      </trkpt>
      <trkpt lat="36.75267" lon="27.48691">
        <ele>22.824</ele>
        <time>2018-05-19T07:59:52Z</time>
      </trkpt>
      <trkpt lat="36.75271" lon="27.48695">
        <ele>21.208</ele>
        <time>2018-05-19T08:00:06Z</time>
      </trkpt>
      <trkpt lat="36.75274" lon="27.48699">
        <ele>20.748</ele>
        <time>2018-05-19T08:00:16Z</time>
      </trkpt>
      <trkpt lat="36.75279" lon="27.487">
        <ele>21.391</ele>
        <time>2018-05-19T08:00:24Z</time>
      </trkpt>
      <trkpt lat="36.75284" lon="27.487">
        <ele>20.456</ele>
        <time>2018-05-19T08:00:31Z</time>
      </trkpt>
      <trkpt lat="36.75287" lon="27.48704">
        <ele>21.279</ele>
        <time>2018-05-19T08:00:42Z</time>
      </trkpt>
      <trkpt lat="36.75289" lon="27.4871">
        <ele>21.126</ele>
        <time>2018-05-19T08:00:49Z</time>
      </trkpt>
      <trkpt lat="36.75293" lon="27.48713">
        <ele>22.323</ele>
        <time>2018-05-19T08:00:56Z</time>
      </trkpt>
      <trkpt lat="36.75297" lon="27.48716">
        <ele>20.924</ele>
        <time>2018-05-19T08:01:03Z</time>
      </trkpt>
      <trkpt lat="36.75302" lon="27.48717">
        <ele>20.478</ele>
        <time>2018-05-19T08:01:10Z</time>
      </trkpt>
      <trkpt lat="36.75307" lon="27.48719">
        <ele>20.483</ele>
        <time>2018-05-19T08:01:19Z</time>
      </trkpt>
      <trkpt lat="36.75311" lon="27.48722">
        <ele>21.225</ele>
        <time>2018-05-19T08:01:32Z</time>
      </trkpt>
      <trkpt lat="36.75316" lon="27.48722">
        <ele>21.617</ele>
        <time>2018-05-19T08:01:39Z</time>
      </trkpt>
      <trkpt lat="36.7532" lon="27.48724">
        <ele>20.108</ele>
        <time>2018-05-19T08:01:46Z</time>
      </trkpt>
      <trkpt lat="36.75322" lon="27.4873">
        <ele>19.64</ele>
        <time>2018-05-19T08:01:56Z</time>
      </trkpt>
      <trkpt lat="36.75322" lon="27.48736">
        <ele>17.833</ele>
        <time>2018-05-19T08:02:06Z</time>
      </trkpt>
      <trkpt lat="36.75325" lon="27.48741">
        <ele>18.378</ele>
        <time>2018-05-19T08:02:14Z</time>
      </trkpt>
      <trkpt lat="36.75328" lon="27.48746">
        <ele>18.381</ele>
        <time>2018-05-19T08:02:21Z</time>
      </trkpt>
      <trkpt lat="36.7533" lon="27.48752">
        <ele>17.978</ele>
        <time>2018-05-19T08:02:28Z</time>
      </trkpt>
      <trkpt lat="36.75332" lon="27.48757">
        <ele>18.635</ele>
        <time>2018-05-19T08:02:33Z</time>
      </trkpt>
      <trkpt lat="36.75334" lon="27.48763">
        <ele>18.036</ele>
        <time>2018-05-19T08:02:41Z</time>
      </trkpt>
      <trkpt lat="36.75336" lon="27.48768">
        <ele>19.84</ele>
        <time>2018-05-19T08:02:50Z</time>
      </trkpt>
      <trkpt lat="36.7534" lon="27.48772">
        <ele>21.798</ele>
        <time>2018-05-19T08:02:56Z</time>
      </trkpt>
      <trkpt lat="36.75343" lon="27.48775">
        <ele>22.815</ele>
        <time>2018-05-19T08:03:01Z</time>
      </trkpt>
      <trkpt lat="36.75345" lon="27.48781">
        <ele>21.526</ele>
        <time>2018-05-19T08:03:08Z</time>
      </trkpt>
      <trkpt lat="36.75347" lon="27.48787">
        <ele>20.608</ele>
        <time>2018-05-19T08:03:14Z</time>
      </trkpt>
      <trkpt lat="36.7535" lon="27.48792">
        <ele>18.941</ele>
        <time>2018-05-19T08:03:25Z</time>
      </trkpt>
      <trkpt lat="36.75354" lon="27.48797">
        <ele>18.664</ele>
        <time>2018-05-19T08:03:33Z</time>
      </trkpt>
      <trkpt lat="36.75356" lon="27.48802">
        <ele>20.299</ele>
        <time>2018-05-19T08:03:41Z</time>
      </trkpt>
      <trkpt lat="36.75359" lon="27.48806">
        <ele>20.082</ele>
        <time>2018-05-19T08:03:48Z</time>
      </trkpt>
      <trkpt lat="36.75359" lon="27.48813">
        <ele>20.839</ele>
        <time>2018-05-19T08:03:54Z</time>
      </trkpt>
      <trkpt lat="36.7536" lon="27.48819">
        <ele>21.236</ele>
        <time>2018-05-19T08:04:02Z</time>
      </trkpt>
      <trkpt lat="36.75364" lon="27.48821">
        <ele>21.747</ele>
        <time>2018-05-19T08:04:09Z</time>
      </trkpt>
      <trkpt lat="36.75367" lon="27.48826">
        <ele>21.971</ele>
        <time>2018-05-19T08:04:20Z</time>
      </trkpt>
      <trkpt lat="36.75369" lon="27.48831">
        <ele>21.767</ele>
        <time>2018-05-19T08:04:28Z</time>
      </trkpt>
      <trkpt lat="36.75372" lon="27.48835">
        <ele>21.981</ele>
        <time>2018-05-19T08:04:35Z</time>
      </trkpt>
      <trkpt lat="36.75375" lon="27.4884">
        <ele>20.619</ele>
        <time>2018-05-19T08:04:46Z</time>
      </trkpt>
      <trkpt lat="36.75375" lon="27.48846">
        <ele>19.608</ele>
        <time>2018-05-19T08:04:53Z</time>
      </trkpt>
      <trkpt lat="36.75379" lon="27.4885">
        <ele>20.648</ele>
        <time>2018-05-19T08:05:00Z</time>
      </trkpt>
      <trkpt lat="36.75381" lon="27.48855">
        <ele>20.961</ele>
        <time>2018-05-19T08:05:06Z</time>
      </trkpt>
      <trkpt lat="36.75381" lon="27.48862">
        <ele>22.196</ele>
        <time>2018-05-19T08:05:13Z</time>
      </trkpt>
      <trkpt lat="36.75383" lon="27.48867">
        <ele>21.599</ele>
        <time>2018-05-19T08:05:20Z</time>
      </trkpt>
      <trkpt lat="36.75383" lon="27.48873">
        <ele>21.116</ele>
        <time>2018-05-19T08:05:25Z</time>
      </trkpt>
      <trkpt lat="36.75384" lon="27.48879">
        <ele>20.433</ele>
        <time>2018-05-19T08:05:32Z</time>
      </trkpt>
      <trkpt lat="36.75384" lon="27.48885">
        <ele>20.314</ele>
        <time>2018-05-19T08:05:42Z</time>
      </trkpt>
      <trkpt lat="36.75383" lon="27.48891">
        <ele>20.998</ele>
        <time>2018-05-19T08:05:49Z</time>
      </trkpt>
      <trkpt lat="36.75384" lon="27.48897">
        <ele>20.927</ele>
        <time>2018-05-19T08:05:56Z</time>
      </trkpt>
      <trkpt lat="36.75383" lon="27.48903">
        <ele>21.168</ele>
        <time>2018-05-19T08:06:03Z</time>
      </trkpt>
      <trkpt lat="36.75382" lon="27.48909">
        <ele>20.714</ele>
        <time>2018-05-19T08:06:08Z</time>
      </trkpt>
      <trkpt lat="36.75382" lon="27.48916">
        <ele>20.408</ele>
        <time>2018-05-19T08:06:14Z</time>
      </trkpt>
      <trkpt lat="36.75381" lon="27.48921">
        <ele>20.774</ele>
        <time>2018-05-19T08:06:20Z</time>
      </trkpt>
      <trkpt lat="36.75381" lon="27.48927">
        <ele>20.267</ele>
        <time>2018-05-19T08:06:27Z</time>
      </trkpt>
      <trkpt lat="36.75381" lon="27.48933">
        <ele>18.482</ele>
        <time>2018-05-19T08:06:33Z</time>
      </trkpt>
      <trkpt lat="36.75377" lon="27.48938">
        <ele>18.655</ele>
        <time>2018-05-19T08:06:39Z</time>
      </trkpt>
      <trkpt lat="36.75377" lon="27.48944">
        <ele>20.012</ele>
        <time>2018-05-19T08:06:46Z</time>
      </trkpt>
      <trkpt lat="36.75375" lon="27.4895">
        <ele>21.029</ele>
        <time>2018-05-19T08:06:58Z</time>
      </trkpt>
      <trkpt lat="36.75372" lon="27.48955">
        <ele>21.01</ele>
        <time>2018-05-19T08:07:08Z</time>
      </trkpt>
      <trkpt lat="36.75368" lon="27.48959">
        <ele>20.754</ele>
        <time>2018-05-19T08:07:15Z</time>
      </trkpt>
      <trkpt lat="36.75364" lon="27.48964">
        <ele>20.192</ele>
        <time>2018-05-19T08:07:20Z</time>
      </trkpt>
      <trkpt lat="36.7536" lon="27.48968">
        <ele>21.173</ele>
        <time>2018-05-19T08:07:28Z</time>
      </trkpt>
      <trkpt lat="36.75356" lon="27.48971">
        <ele>21.02</ele>
        <time>2018-05-19T08:07:35Z</time>
      </trkpt>
      <trkpt lat="36.75353" lon="27.48975">
        <ele>21.708</ele>
        <time>2018-05-19T08:07:41Z</time>
      </trkpt>
      <trkpt lat="36.7535" lon="27.4898">
        <ele>21.541</ele>
        <time>2018-05-19T08:07:47Z</time>
      </trkpt>
      <trkpt lat="36.75346" lon="27.48984">
        <ele>22.184</ele>
        <time>2018-05-19T08:07:54Z</time>
      </trkpt>
      <trkpt lat="36.75342" lon="27.48986">
        <ele>22.829</ele>
        <time>2018-05-19T08:08:01Z</time>
      </trkpt>
      <trkpt lat="36.75338" lon="27.48987">
        <ele>25.052</ele>
        <time>2018-05-19T08:08:14Z</time>
      </trkpt>
      <trkpt lat="36.75333" lon="27.48989">
        <ele>26.229</ele>
        <time>2018-05-19T08:08:25Z</time>
      </trkpt>
      <trkpt lat="36.75328" lon="27.4899">
        <ele>25.426</ele>
        <time>2018-05-19T08:08:41Z</time>
      </trkpt>
      <trkpt lat="36.75323" lon="27.48989">
        <ele>24.757</ele>
        <time>2018-05-19T08:08:49Z</time>
      </trkpt>
      <trkpt lat="36.75319" lon="27.48989">
        <ele>24.071</ele>
        <time>2018-05-19T08:09:03Z</time>
      </trkpt>
      <trkpt lat="36.75313" lon="27.48989">
        <ele>25.934</ele>
        <time>2018-05-19T08:09:22Z</time>
      </trkpt>
      <trkpt lat="36.75309" lon="27.4899">
        <ele>25.855</ele>
        <time>2018-05-19T08:09:31Z</time>
      </trkpt>
      <trkpt lat="36.75304" lon="27.48991">
        <ele>24.21</ele>
        <time>2018-05-19T08:09:46Z</time>
      </trkpt>
      <trkpt lat="36.75299" lon="27.48988">
        <ele>23.408</ele>
        <time>2018-05-19T08:09:50Z</time>
      </trkpt>
      <trkpt lat="36.75294" lon="27.48986">
        <ele>23.595</ele>
        <time>2018-05-19T08:09:52Z</time>
      </trkpt>
      <trkpt lat="36.75299" lon="27.4899">
        <ele>23.428</ele>
        <time>2018-05-19T08:09:58Z</time>
      </trkpt>
      <trkpt lat="36.75295" lon="27.48993">
        <ele>21.923</ele>
        <time>2018-05-19T08:10:26Z</time>
      </trkpt>
      <trkpt lat="36.75291" lon="27.48996">
        <ele>22.166</ele>
        <time>2018-05-19T08:10:33Z</time>
      </trkpt>
      <trkpt lat="36.75296" lon="27.49012">
        <ele>5.94</ele>
        <time>2018-05-19T08:12:45Z</time>
      </trkpt>
      <trkpt lat="36.75296" lon="27.49012">
        <ele>1.557</ele>
        <time>2018-05-19T08:12:51Z</time>
      </trkpt>
      <trkpt lat="36.75294" lon="27.49018">
        <ele>26</ele>
        <time>2018-05-19T08:12:53Z</time>
      </trkpt>
      <trkpt lat="36.75289" lon="27.49024">
        <ele>9.92</ele>
        <time>2018-05-19T08:14:01Z</time>
      </trkpt>
      <trkpt lat="36.75288" lon="27.49029">
        <ele>13.608</ele>
        <time>2018-05-19T08:14:48Z</time>
      </trkpt>
      <trkpt lat="36.75286" lon="27.49035">
        <ele>11.847</ele>
        <time>2018-05-19T08:14:59Z</time>
      </trkpt>
      <trkpt lat="36.75287" lon="27.49041">
        <ele>9.56</ele>
        <time>2018-05-19T08:15:05Z</time>
      </trkpt>
      <trkpt lat="36.75287" lon="27.49047">
        <ele>8.675</ele>
        <time>2018-05-19T08:15:28Z</time>
      </trkpt>
      <trkpt lat="36.75289" lon="27.49052">
        <ele>12.248</ele>
        <time>2018-05-19T08:15:40Z</time>
      </trkpt>
      <trkpt lat="36.7529" lon="27.49058">
        <ele>12.935</ele>
        <time>2018-05-19T08:15:48Z</time>
      </trkpt>
      <trkpt lat="36.75291" lon="27.49063">
        <ele>13.032</ele>
        <time>2018-05-19T08:15:59Z</time>
      </trkpt>
      <trkpt lat="36.7529" lon="27.49069">
        <ele>15.963</ele>
        <time>2018-05-19T08:16:10Z</time>
      </trkpt>
      <trkpt lat="36.75291" lon="27.49076">
        <ele>16.087</ele>
        <time>2018-05-19T08:16:16Z</time>
      </trkpt>
      <trkpt lat="36.7529" lon="27.49082">
        <ele>16.361</ele>
        <time>2018-05-19T08:16:23Z</time>
      </trkpt>
      <trkpt lat="36.7529" lon="27.49087">
        <ele>16.121</ele>
        <time>2018-05-19T08:16:29Z</time>
      </trkpt>
      <trkpt lat="36.7529" lon="27.49093">
        <ele>17.213</ele>
        <time>2018-05-19T08:16:39Z</time>
      </trkpt>
      <trkpt lat="36.7529" lon="27.491">
        <ele>17.108</ele>
        <time>2018-05-19T08:16:51Z</time>
      </trkpt>
      <trkpt lat="36.7529" lon="27.49105">
        <ele>15.788</ele>
        <time>2018-05-19T08:17:02Z</time>
      </trkpt>
      <trkpt lat="36.75288" lon="27.49111">
        <ele>13.231</ele>
        <time>2018-05-19T08:17:11Z</time>
      </trkpt>
      <trkpt lat="36.75284" lon="27.49114">
        <ele>15.086</ele>
        <time>2018-05-19T08:17:19Z</time>
      </trkpt>
      <trkpt lat="36.75282" lon="27.4912">
        <ele>14.439</ele>
        <time>2018-05-19T08:17:29Z</time>
      </trkpt>
      <trkpt lat="36.75282" lon="27.49126">
        <ele>12.786</ele>
        <time>2018-05-19T08:17:38Z</time>
      </trkpt>
      <trkpt lat="36.75278" lon="27.4913">
        <ele>11.713</ele>
        <time>2018-05-19T08:17:46Z</time>
      </trkpt>
      <trkpt lat="36.75277" lon="27.49136">
        <ele>10.784</ele>
        <time>2018-05-19T08:17:53Z</time>
      </trkpt>
      <trkpt lat="36.75277" lon="27.49142">
        <ele>10.318</ele>
        <time>2018-05-19T08:18:01Z</time>
      </trkpt>
      <trkpt lat="36.75276" lon="27.49148">
        <ele>9.329</ele>
        <time>2018-05-19T08:18:14Z</time>
      </trkpt>
      <trkpt lat="36.75275" lon="27.49154">
        <ele>9.4</ele>
        <time>2018-05-19T08:18:22Z</time>
      </trkpt>
      <trkpt lat="36.75275" lon="27.4916">
        <ele>8.52</ele>
        <time>2018-05-19T08:18:29Z</time>
      </trkpt>
      <trkpt lat="36.75279" lon="27.49164">
        <ele>9.608</ele>
        <time>2018-05-19T08:18:37Z</time>
      </trkpt>
      <trkpt lat="36.75281" lon="27.4917">
        <ele>9.434</ele>
        <time>2018-05-19T08:18:47Z</time>
      </trkpt>
      <trkpt lat="36.75282" lon="27.49176">
        <ele>8.437</ele>
        <time>2018-05-19T08:19:02Z</time>
      </trkpt>
      <trkpt lat="36.75285" lon="27.4918">
        <ele>8.272</ele>
        <time>2018-05-19T08:19:10Z</time>
      </trkpt>
      <trkpt lat="36.75289" lon="27.49185">
        <ele>7.565</ele>
        <time>2018-05-19T08:19:17Z</time>
      </trkpt>
      <trkpt lat="36.75289" lon="27.49191">
        <ele>6.092</ele>
        <time>2018-05-19T08:19:28Z</time>
      </trkpt>
      <trkpt lat="36.75292" lon="27.49196">
        <ele>6.569</ele>
        <time>2018-05-19T08:19:40Z</time>
      </trkpt>
      <trkpt lat="36.75295" lon="27.492">
        <ele>6.76</ele>
        <time>2018-05-19T08:19:48Z</time>
      </trkpt>
      <trkpt lat="36.75297" lon="27.49205">
        <ele>6.444</ele>
        <time>2018-05-19T08:19:55Z</time>
      </trkpt>
      <trkpt lat="36.75295" lon="27.4921">
        <ele>6.836</ele>
        <time>2018-05-19T08:20:09Z</time>
      </trkpt>
      <trkpt lat="36.75294" lon="27.49216">
        <ele>7.717</ele>
        <time>2018-05-19T08:20:24Z</time>
      </trkpt>
      <trkpt lat="36.75291" lon="27.49221">
        <ele>7.418</ele>
        <time>2018-05-19T08:20:33Z</time>
      </trkpt>
      <trkpt lat="36.7529" lon="27.49227">
        <ele>6.708</ele>
        <time>2018-05-19T08:20:41Z</time>
      </trkpt>
      <trkpt lat="36.75289" lon="27.49233">
        <ele>6.125</ele>
        <time>2018-05-19T08:20:49Z</time>
      </trkpt>
      <trkpt lat="36.7529" lon="27.49239">
        <ele>6.098</ele>
        <time>2018-05-19T08:20:57Z</time>
      </trkpt>
      <trkpt lat="36.75287" lon="27.49244">
        <ele>6.363</ele>
        <time>2018-05-19T08:21:06Z</time>
      </trkpt>
      <trkpt lat="36.75286" lon="27.4925">
        <ele>6.696</ele>
        <time>2018-05-19T08:21:17Z</time>
      </trkpt>
      <trkpt lat="36.75287" lon="27.49256">
        <ele>6.633</ele>
        <time>2018-05-19T08:21:25Z</time>
      </trkpt>
      <trkpt lat="36.75288" lon="27.49262">
        <ele>5.93</ele>
        <time>2018-05-19T08:21:35Z</time>
      </trkpt>
      <trkpt lat="36.75289" lon="27.49267">
        <ele>4.891</ele>
        <time>2018-05-19T08:21:45Z</time>
      </trkpt>
      <trkpt lat="36.7529" lon="27.49273">
        <ele>4.515</ele>
        <time>2018-05-19T08:21:53Z</time>
      </trkpt>
      <trkpt lat="36.75286" lon="27.49276">
        <ele>4.583</ele>
        <time>2018-05-19T08:22:02Z</time>
      </trkpt>
      <trkpt lat="36.75281" lon="27.49278">
        <ele>5.425</ele>
        <time>2018-05-19T08:22:09Z</time>
      </trkpt>
      <trkpt lat="36.7527" lon="27.49287">
        <ele>3.431</ele>
        <time>2018-05-19T08:25:38Z</time>
      </trkpt>
      <trkpt lat="36.75269" lon="27.49293">
        <ele>7.648</ele>
        <time>2018-05-19T08:25:53Z</time>
      </trkpt>
      <trkpt lat="36.75265" lon="27.49297">
        <ele>6.425</ele>
        <time>2018-05-19T08:26:05Z</time>
      </trkpt>
      <trkpt lat="36.75263" lon="27.49302">
        <ele>5.116</ele>
        <time>2018-05-19T08:26:16Z</time>
      </trkpt>
      <trkpt lat="36.75258" lon="27.49302">
        <ele>8.88</ele>
        <time>2018-05-19T08:26:28Z</time>
      </trkpt>
      <trkpt lat="36.75254" lon="27.49303">
        <ele>8.511</ele>
        <time>2018-05-19T08:26:34Z</time>
      </trkpt>
      <trkpt lat="36.7525" lon="27.49307">
        <ele>11.021</ele>
        <time>2018-05-19T08:26:46Z</time>
      </trkpt>
      <trkpt lat="36.75245" lon="27.49307">
        <ele>12.103</ele>
        <time>2018-05-19T08:26:54Z</time>
      </trkpt>
      <trkpt lat="36.75241" lon="27.49312">
        <ele>11.108</ele>
        <time>2018-05-19T08:27:01Z</time>
      </trkpt>
      <trkpt lat="36.75238" lon="27.49317">
        <ele>11.683</ele>
        <time>2018-05-19T08:27:10Z</time>
      </trkpt>
      <trkpt lat="36.75237" lon="27.49322">
        <ele>11.766</ele>
        <time>2018-05-19T08:27:19Z</time>
      </trkpt>
      <trkpt lat="36.75235" lon="27.49328">
        <ele>11.141</ele>
        <time>2018-05-19T08:27:33Z</time>
      </trkpt>
      <trkpt lat="36.75234" lon="27.49334">
        <ele>9.784</ele>
        <time>2018-05-19T08:27:43Z</time>
      </trkpt>
      <trkpt lat="36.75231" lon="27.49338">
        <ele>10.211</ele>
        <time>2018-05-19T08:27:50Z</time>
      </trkpt>
      <trkpt lat="36.75229" lon="27.49343">
        <ele>8.378</ele>
        <time>2018-05-19T08:28:00Z</time>
      </trkpt>
      <trkpt lat="36.75229" lon="27.49349">
        <ele>8.689</ele>
        <time>2018-05-19T08:28:08Z</time>
      </trkpt>
      <trkpt lat="36.75226" lon="27.49353">
        <ele>9.573</ele>
        <time>2018-05-19T08:28:16Z</time>
      </trkpt>
      <trkpt lat="36.75224" lon="27.49359">
        <ele>9.865</ele>
        <time>2018-05-19T08:28:36Z</time>
      </trkpt>
      <trkpt lat="36.75227" lon="27.49363">
        <ele>10.768</ele>
        <time>2018-05-19T08:28:44Z</time>
      </trkpt>
      <trkpt lat="36.7523" lon="27.49368">
        <ele>11.814</ele>
        <time>2018-05-19T08:28:51Z</time>
      </trkpt>
      <trkpt lat="36.75228" lon="27.49372">
        <ele>10.908</ele>
        <time>2018-05-19T08:29:00Z</time>
      </trkpt>
      <trkpt lat="36.75223" lon="27.49372">
        <ele>11.068</ele>
        <time>2018-05-19T08:29:06Z</time>
      </trkpt>
      <trkpt lat="36.7522" lon="27.49377">
        <ele>7.921</ele>
        <time>2018-05-19T08:29:15Z</time>
      </trkpt>
      <trkpt lat="36.75221" lon="27.49383">
        <ele>9.886</ele>
        <time>2018-05-19T08:29:22Z</time>
      </trkpt>
      <trkpt lat="36.75225" lon="27.49386">
        <ele>9.999</ele>
        <time>2018-05-19T08:29:26Z</time>
      </trkpt>
      <trkpt lat="36.75228" lon="27.49391">
        <ele>10.776</ele>
        <time>2018-05-19T08:29:30Z</time>
      </trkpt>
      <trkpt lat="36.75229" lon="27.49397">
        <ele>12.523</ele>
        <time>2018-05-19T08:29:37Z</time>
      </trkpt>
      <trkpt lat="36.75228" lon="27.49403">
        <ele>12.274</ele>
        <time>2018-05-19T08:29:47Z</time>
      </trkpt>
      <trkpt lat="36.75232" lon="27.49406">
        <ele>13.718</ele>
        <time>2018-05-19T08:29:57Z</time>
      </trkpt>
      <trkpt lat="36.75236" lon="27.4941">
        <ele>14.547</ele>
        <time>2018-05-19T08:30:03Z</time>
      </trkpt>
      <trkpt lat="36.75237" lon="27.49416">
        <ele>17.229</ele>
        <time>2018-05-19T08:30:15Z</time>
      </trkpt>
      <trkpt lat="36.75236" lon="27.49422">
        <ele>19.321</ele>
        <time>2018-05-19T08:30:22Z</time>
      </trkpt>
      <trkpt lat="36.75237" lon="27.49428">
        <ele>21.708</ele>
        <time>2018-05-19T08:30:35Z</time>
      </trkpt>
      <trkpt lat="36.75236" lon="27.49434">
        <ele>22.496</ele>
        <time>2018-05-19T08:30:47Z</time>
      </trkpt>
      <trkpt lat="36.75239" lon="27.49439">
        <ele>22.599</ele>
        <time>2018-05-19T08:30:53Z</time>
      </trkpt>
      <trkpt lat="36.75242" lon="27.49443">
        <ele>22.194</ele>
        <time>2018-05-19T08:30:59Z</time>
      </trkpt>
      <trkpt lat="36.75243" lon="27.49449">
        <ele>23.047</ele>
        <time>2018-05-19T08:31:09Z</time>
      </trkpt>
      <trkpt lat="36.75247" lon="27.49451">
        <ele>22.494</ele>
        <time>2018-05-19T08:31:14Z</time>
      </trkpt>
      <trkpt lat="36.75251" lon="27.49455">
        <ele>22.631</ele>
        <time>2018-05-19T08:31:20Z</time>
      </trkpt>
      <trkpt lat="36.75252" lon="27.49461">
        <ele>24.372</ele>
        <time>2018-05-19T08:31:29Z</time>
      </trkpt>
      <trkpt lat="36.75254" lon="27.49466">
        <ele>25.776</ele>
        <time>2018-05-19T08:31:38Z</time>
      </trkpt>
      <trkpt lat="36.75254" lon="27.49472">
        <ele>25.632</ele>
        <time>2018-05-19T08:31:51Z</time>
      </trkpt>
      <trkpt lat="36.75257" lon="27.49476">
        <ele>25.792</ele>
        <time>2018-05-19T08:32:00Z</time>
      </trkpt>
      <trkpt lat="36.7526" lon="27.4948">
        <ele>26.011</ele>
        <time>2018-05-19T08:32:14Z</time>
      </trkpt>
      <trkpt lat="36.75259" lon="27.49486">
        <ele>26.408</ele>
        <time>2018-05-19T08:32:25Z</time>
      </trkpt>
      <trkpt lat="36.75261" lon="27.49492">
        <ele>26.765</ele>
        <time>2018-05-19T08:32:32Z</time>
      </trkpt>
      <trkpt lat="36.75262" lon="27.49498">
        <ele>27.818</ele>
        <time>2018-05-19T08:32:39Z</time>
      </trkpt>
      <trkpt lat="36.75259" lon="27.49503">
        <ele>26.673</ele>
        <time>2018-05-19T08:32:51Z</time>
      </trkpt>
      <trkpt lat="36.75258" lon="27.49509">
        <ele>29.086</ele>
        <time>2018-05-19T08:33:04Z</time>
      </trkpt>
      <trkpt lat="36.75253" lon="27.4951">
        <ele>28.953</ele>
        <time>2018-05-19T08:33:16Z</time>
      </trkpt>
      <trkpt lat="36.75251" lon="27.49515">
        <ele>31.17</ele>
        <time>2018-05-19T08:33:28Z</time>
      </trkpt>
      <trkpt lat="36.75253" lon="27.4952">
        <ele>30.721</ele>
        <time>2018-05-19T08:33:34Z</time>
      </trkpt>
      <trkpt lat="36.75254" lon="27.49526">
        <ele>29.845</ele>
        <time>2018-05-19T08:33:41Z</time>
      </trkpt>
      <trkpt lat="36.75254" lon="27.49532">
        <ele>29.796</ele>
        <time>2018-05-19T08:33:48Z</time>
      </trkpt>
      <trkpt lat="36.75254" lon="27.49538">
        <ele>29.131</ele>
        <time>2018-05-19T08:33:58Z</time>
      </trkpt>
      <trkpt lat="36.75252" lon="27.49543">
        <ele>29.624</ele>
        <time>2018-05-19T08:34:06Z</time>
      </trkpt>
      <trkpt lat="36.75254" lon="27.49548">
        <ele>29.508</ele>
        <time>2018-05-19T08:34:13Z</time>
      </trkpt>
      <trkpt lat="36.75256" lon="27.49553">
        <ele>31.921</ele>
        <time>2018-05-19T08:34:20Z</time>
      </trkpt>
      <trkpt lat="36.75252" lon="27.49556">
        <ele>31.534</ele>
        <time>2018-05-19T08:36:32Z</time>
      </trkpt>
      <trkpt lat="36.75249" lon="27.49561">
        <ele>34.289</ele>
        <time>2018-05-19T08:36:42Z</time>
      </trkpt>
      <trkpt lat="36.7525" lon="27.49566">
        <ele>34.382</ele>
        <time>2018-05-19T08:36:50Z</time>
      </trkpt>
      <trkpt lat="36.75247" lon="27.49571">
        <ele>34.789</ele>
        <time>2018-05-19T08:36:59Z</time>
      </trkpt>
      <trkpt lat="36.75247" lon="27.49577">
        <ele>36.046</ele>
        <time>2018-05-19T08:37:14Z</time>
      </trkpt>
      <trkpt lat="36.75244" lon="27.49583">
        <ele>36.317</ele>
        <time>2018-05-19T08:37:19Z</time>
      </trkpt>
      <trkpt lat="36.75242" lon="27.49588">
        <ele>35.991</ele>
        <time>2018-05-19T08:37:28Z</time>
      </trkpt>
      <trkpt lat="36.75241" lon="27.49594">
        <ele>35.815</ele>
        <time>2018-05-19T08:38:08Z</time>
      </trkpt>
      <trkpt lat="36.75239" lon="27.496">
        <ele>37.665</ele>
        <time>2018-05-19T08:38:17Z</time>
      </trkpt>
      <trkpt lat="36.7524" lon="27.49606">
        <ele>38.711</ele>
        <time>2018-05-19T08:38:23Z</time>
      </trkpt>
      <trkpt lat="36.75236" lon="27.4961">
        <ele>38.908</ele>
        <time>2018-05-19T08:38:37Z</time>
      </trkpt>
      <trkpt lat="36.75232" lon="27.49611">
        <ele>37.893</ele>
        <time>2018-05-19T08:38:47Z</time>
      </trkpt>
      <trkpt lat="36.75229" lon="27.49617">
        <ele>37.326</ele>
        <time>2018-05-19T08:38:55Z</time>
      </trkpt>
      <trkpt lat="36.75226" lon="27.49622">
        <ele>36.361</ele>
        <time>2018-05-19T08:39:03Z</time>
      </trkpt>
      <trkpt lat="36.75228" lon="27.49628">
        <ele>35.624</ele>
        <time>2018-05-19T08:39:09Z</time>
      </trkpt>
      <trkpt lat="36.75222" lon="27.4963">
        <ele>32.731</ele>
        <time>2018-05-19T08:39:17Z</time>
      </trkpt>
      <trkpt lat="36.75219" lon="27.49635">
        <ele>33.298</ele>
        <time>2018-05-19T08:39:24Z</time>
      </trkpt>
      <trkpt lat="36.7522" lon="27.4964">
        <ele>32.839</ele>
        <time>2018-05-19T08:39:33Z</time>
      </trkpt>
      <trkpt lat="36.75217" lon="27.49644">
        <ele>34.823</ele>
        <time>2018-05-19T08:39:46Z</time>
      </trkpt>
      <trkpt lat="36.75214" lon="27.49649">
        <ele>34.724</ele>
        <time>2018-05-19T08:39:52Z</time>
      </trkpt>
      <trkpt lat="36.7521" lon="27.49653">
        <ele>35.004</ele>
        <time>2018-05-19T08:39:59Z</time>
      </trkpt>
      <trkpt lat="36.7521" lon="27.49659">
        <ele>34.714</ele>
        <time>2018-05-19T08:40:05Z</time>
      </trkpt>
      <trkpt lat="36.7521" lon="27.49664">
        <ele>34.708</ele>
        <time>2018-05-19T08:40:10Z</time>
      </trkpt>
      <trkpt lat="36.75207" lon="27.49669">
        <ele>33.944</ele>
        <time>2018-05-19T08:40:26Z</time>
      </trkpt>
      <trkpt lat="36.75203" lon="27.49671">
        <ele>32.287</ele>
        <time>2018-05-19T08:40:35Z</time>
      </trkpt>
      <trkpt lat="36.75199" lon="27.49672">
        <ele>30.882</ele>
        <time>2018-05-19T08:40:49Z</time>
      </trkpt>
      <trkpt lat="36.75194" lon="27.49674">
        <ele>31.315</ele>
        <time>2018-05-19T08:40:56Z</time>
      </trkpt>
      <trkpt lat="36.75189" lon="27.49674">
        <ele>30.072</ele>
        <time>2018-05-19T08:41:05Z</time>
      </trkpt>
      <trkpt lat="36.75184" lon="27.49673">
        <ele>29.719</ele>
        <time>2018-05-19T08:41:13Z</time>
      </trkpt>
      <trkpt lat="36.75179" lon="27.49674">
        <ele>30.34</ele>
        <time>2018-05-19T08:41:18Z</time>
      </trkpt>
      <trkpt lat="36.75175" lon="27.49671">
        <ele>30.084</ele>
        <time>2018-05-19T08:41:25Z</time>
      </trkpt>
      <trkpt lat="36.75171" lon="27.49673">
        <ele>29.458</ele>
        <time>2018-05-19T08:41:37Z</time>
      </trkpt>
      <trkpt lat="36.75166" lon="27.49675">
        <ele>29.052</ele>
        <time>2018-05-19T08:41:46Z</time>
      </trkpt>
      <trkpt lat="36.75163" lon="27.49679">
        <ele>27.317</ele>
        <time>2018-05-19T08:41:53Z</time>
      </trkpt>
      <trkpt lat="36.75158" lon="27.49678">
        <ele>26.808</ele>
        <time>2018-05-19T08:42:01Z</time>
      </trkpt>
      <trkpt lat="36.75154" lon="27.4968">
        <ele>26.757</ele>
        <time>2018-05-19T08:42:10Z</time>
      </trkpt>
      <trkpt lat="36.7515" lon="27.49681">
        <ele>27.24</ele>
        <time>2018-05-19T08:42:21Z</time>
      </trkpt>
      <trkpt lat="36.75145" lon="27.49681">
        <ele>26.125</ele>
        <time>2018-05-19T08:42:38Z</time>
      </trkpt>
      <trkpt lat="36.7514" lon="27.49682">
        <ele>24.858</ele>
        <time>2018-05-19T08:42:45Z</time>
      </trkpt>
      <trkpt lat="36.75136" lon="27.49684">
        <ele>22.945</ele>
        <time>2018-05-19T08:42:56Z</time>
      </trkpt>
      <trkpt lat="36.75133" lon="27.49688">
        <ele>22.372</ele>
        <time>2018-05-19T08:43:08Z</time>
      </trkpt>
      <trkpt lat="36.7513" lon="27.49693">
        <ele>21.313</ele>
        <time>2018-05-19T08:43:16Z</time>
      </trkpt>
      <trkpt lat="36.75125" lon="27.49692">
        <ele>20.887</ele>
        <time>2018-05-19T08:43:23Z</time>
      </trkpt>
      <trkpt lat="36.75121" lon="27.49694">
        <ele>20.343</ele>
        <time>2018-05-19T08:43:37Z</time>
      </trkpt>
      <trkpt lat="36.75116" lon="27.49696">
        <ele>20.364</ele>
        <time>2018-05-19T08:43:46Z</time>
      </trkpt>
      <trkpt lat="36.75112" lon="27.49699">
        <ele>18.71</ele>
        <time>2018-05-19T08:43:56Z</time>
      </trkpt>
      <trkpt lat="36.75108" lon="27.49701">
        <ele>16.408</ele>
        <time>2018-05-19T08:44:18Z</time>
      </trkpt>
      <trkpt lat="36.75106" lon="27.49707">
        <ele>16.076</ele>
        <time>2018-05-19T08:44:29Z</time>
      </trkpt>
      <trkpt lat="36.75102" lon="27.49708">
        <ele>14.359</ele>
        <time>2018-05-19T08:44:59Z</time>
      </trkpt>
      <trkpt lat="36.75097" lon="27.49709">
        <ele>12.954</ele>
        <time>2018-05-19T08:45:06Z</time>
      </trkpt>
      <trkpt lat="36.75093" lon="27.49713">
        <ele>9.857</ele>
        <time>2018-05-19T08:46:02Z</time>
      </trkpt>
      <trkpt lat="36.75091" lon="27.49718">
        <ele>6.744</ele>
        <time>2018-05-19T08:46:23Z</time>
      </trkpt>
      <trkpt lat="36.7509" lon="27.49724">
        <ele>5.951</ele>
        <time>2018-05-19T08:46:51Z</time>
      </trkpt>
      <trkpt lat="36.75092" lon="27.4973">
        <ele>3.222</ele>
        <time>2018-05-19T08:47:12Z</time>
      </trkpt>
      <trkpt lat="36.75093" lon="27.49735">
        <ele>1.816</ele>
        <time>2018-05-19T08:47:20Z</time>
      </trkpt>
      <trkpt lat="36.75096" lon="27.4974">
        <ele>2.376</ele>
        <time>2018-05-19T08:47:33Z</time>
      </trkpt>
      <trkpt lat="36.75095" lon="27.49745">
        <ele>2.09</ele>
        <time>2018-05-19T08:47:40Z</time>
      </trkpt>
      <trkpt lat="36.75098" lon="27.4975">
        <ele>2.519</ele>
        <time>2018-05-19T08:47:45Z</time>
      </trkpt>
      <trkpt lat="36.751" lon="27.49756">
        <ele>1.608</ele>
        <time>2018-05-19T08:47:50Z</time>
      </trkpt>
      <trkpt lat="36.75103" lon="27.49769">
        <ele>-5.517</ele>
        <time>2018-05-19T09:01:36Z</time>
      </trkpt>
      <trkpt lat="36.751" lon="27.49774">
        <ele>-4.95</ele>
        <time>2018-05-19T09:01:44Z</time>
      </trkpt>
      <trkpt lat="36.75097" lon="27.49778">
        <ele>-6.775</ele>
        <time>2018-05-19T09:01:53Z</time>
      </trkpt>
      <trkpt lat="36.75095" lon="27.49783">
        <ele>-7.158</ele>
        <time>2018-05-19T09:02:00Z</time>
      </trkpt>
      <trkpt lat="36.75092" lon="27.49787">
        <ele>-8.375</ele>
        <time>2018-05-19T09:02:09Z</time>
      </trkpt>
      <trkpt lat="36.75089" lon="27.49792">
        <ele>-7.782</ele>
        <time>2018-05-19T09:02:19Z</time>
      </trkpt>
      <trkpt lat="36.75088" lon="27.49797">
        <ele>-8.583</ele>
        <time>2018-05-19T09:02:27Z</time>
      </trkpt>
      <trkpt lat="36.75088" lon="27.49803">
        <ele>-9.147</ele>
        <time>2018-05-19T09:02:37Z</time>
      </trkpt>
      <trkpt lat="36.75087" lon="27.49809">
        <ele>-7.159</ele>
        <time>2018-05-19T09:02:49Z</time>
      </trkpt>
      <trkpt lat="36.75083" lon="27.49819">
        <ele>5.286</ele>
        <time>2018-05-19T09:07:04Z</time>
      </trkpt>
      <trkpt lat="36.7508" lon="27.49824">
        <ele>5.66</ele>
        <time>2018-05-19T09:07:12Z</time>
      </trkpt>
      <trkpt lat="36.75085" lon="27.49826">
        <ele>5.326</ele>
        <time>2018-05-19T09:07:21Z</time>
      </trkpt>
      <trkpt lat="36.75088" lon="27.4983">
        <ele>1.908</ele>
        <time>2018-05-19T09:07:26Z</time>
      </trkpt>
      <trkpt lat="36.75088" lon="27.49836">
        <ele>-1.05</ele>
        <time>2018-05-19T09:07:38Z</time>
      </trkpt>
      <trkpt lat="36.75084" lon="27.49836">
        <ele>7.113</ele>
        <time>2018-05-19T09:07:56Z</time>
      </trkpt>
      <trkpt lat="36.75079" lon="27.49838">
        <ele>9.378</ele>
        <time>2018-05-19T09:08:06Z</time>
      </trkpt>
      <trkpt lat="36.75077" lon="27.49843">
        <ele>10.791</ele>
        <time>2018-05-19T09:08:14Z</time>
      </trkpt>
      <trkpt lat="36.75081" lon="27.49848">
        <ele>10.298</ele>
        <time>2018-05-19T09:08:21Z</time>
      </trkpt>
      <trkpt lat="36.75077" lon="27.49846">
        <ele>13.425</ele>
        <time>2018-05-19T09:08:43Z</time>
      </trkpt>
      <trkpt lat="36.75072" lon="27.49846">
        <ele>14.876</ele>
        <time>2018-05-19T09:08:49Z</time>
      </trkpt>
      <trkpt lat="36.75071" lon="27.49851">
        <ele>14.68</ele>
        <time>2018-05-19T09:08:57Z</time>
      </trkpt>
      <trkpt lat="36.75074" lon="27.49856">
        <ele>14.842</ele>
        <time>2018-05-19T09:09:03Z</time>
      </trkpt>
      <trkpt lat="36.75073" lon="27.49862">
        <ele>15.822</ele>
        <time>2018-05-19T09:09:10Z</time>
      </trkpt>
      <trkpt lat="36.75069" lon="27.49864">
        <ele>15.214</ele>
        <time>2018-05-19T09:09:16Z</time>
      </trkpt>
      <trkpt lat="36.75068" lon="27.4987">
        <ele>16.008</ele>
        <time>2018-05-19T09:09:25Z</time>
      </trkpt>
      <trkpt lat="36.75068" lon="27.49875">
        <ele>17.336</ele>
        <time>2018-05-19T09:09:37Z</time>
      </trkpt>
      <trkpt lat="36.75064" lon="27.4988">
        <ele>16.639</ele>
        <time>2018-05-19T09:09:46Z</time>
      </trkpt>
      <trkpt lat="36.75059" lon="27.49882">
        <ele>15.554</ele>
        <time>2018-05-19T09:09:52Z</time>
      </trkpt>
      <trkpt lat="36.75056" lon="27.49887">
        <ele>13.917</ele>
        <time>2018-05-19T09:10:03Z</time>
      </trkpt>
      <trkpt lat="36.75052" lon="27.4989">
        <ele>13.524</ele>
        <time>2018-05-19T09:10:17Z</time>
      </trkpt>
      <trkpt lat="36.75047" lon="27.49889">
        <ele>13.981</ele>
        <time>2018-05-19T09:10:25Z</time>
      </trkpt>
      <trkpt lat="36.75049" lon="27.49895">
        <ele>13.912</ele>
        <time>2018-05-19T09:10:28Z</time>
      </trkpt>
      <trkpt lat="36.75045" lon="27.499">
        <ele>13.686</ele>
        <time>2018-05-19T09:10:34Z</time>
      </trkpt>
      <trkpt lat="36.75041" lon="27.49903">
        <ele>13.544</ele>
        <time>2018-05-19T09:10:49Z</time>
      </trkpt>
      <trkpt lat="36.75039" lon="27.49909">
        <ele>15.105</ele>
        <time>2018-05-19T09:11:03Z</time>
      </trkpt>
      <trkpt lat="36.7504" lon="27.49915">
        <ele>17.915</ele>
        <time>2018-05-19T09:11:17Z</time>
      </trkpt>
      <trkpt lat="36.75037" lon="27.49919">
        <ele>20.008</ele>
        <time>2018-05-19T09:11:32Z</time>
      </trkpt>
      <trkpt lat="36.75034" lon="27.49924">
        <ele>22.256</ele>
        <time>2018-05-19T09:11:52Z</time>
      </trkpt>
      <trkpt lat="36.75035" lon="27.49929">
        <ele>24.359</ele>
        <time>2018-05-19T09:12:00Z</time>
      </trkpt>
      <trkpt lat="36.75031" lon="27.49933">
        <ele>24.684</ele>
        <time>2018-05-19T09:12:18Z</time>
      </trkpt>
      <trkpt lat="36.75029" lon="27.49938">
        <ele>27.027</ele>
        <time>2018-05-19T09:12:27Z</time>
      </trkpt>
      <trkpt lat="36.75025" lon="27.49942">
        <ele>28.014</ele>
        <time>2018-05-19T09:12:35Z</time>
      </trkpt>
      <trkpt lat="36.7502" lon="27.49943">
        <ele>28.181</ele>
        <time>2018-05-19T09:12:41Z</time>
      </trkpt>
      <trkpt lat="36.75023" lon="27.49949">
        <ele>28.012</ele>
        <time>2018-05-19T09:12:48Z</time>
      </trkpt>
      <trkpt lat="36.7502" lon="27.49954">
        <ele>28.726</ele>
        <time>2018-05-19T09:13:02Z</time>
      </trkpt>
      <trkpt lat="36.75021" lon="27.4996">
        <ele>29.821</ele>
        <time>2018-05-19T09:13:11Z</time>
      </trkpt>
      <trkpt lat="36.75018" lon="27.49965">
        <ele>29.541</ele>
        <time>2018-05-19T09:13:20Z</time>
      </trkpt>
      <trkpt lat="36.75014" lon="27.49968">
        <ele>29.805</ele>
        <time>2018-05-19T09:13:29Z</time>
      </trkpt>
      <trkpt lat="36.75014" lon="27.49974">
        <ele>31.908</ele>
        <time>2018-05-19T09:13:37Z</time>
      </trkpt>
      <trkpt lat="36.75016" lon="27.4998">
        <ele>33.574</ele>
        <time>2018-05-19T09:13:42Z</time>
      </trkpt>
      <trkpt lat="36.75017" lon="27.49986">
        <ele>33.627</ele>
        <time>2018-05-19T09:13:48Z</time>
      </trkpt>
      <trkpt lat="36.7502" lon="27.4999">
        <ele>34.672</ele>
        <time>2018-05-19T09:13:55Z</time>
      </trkpt>
      <trkpt lat="36.75022" lon="27.49995">
        <ele>35.845</ele>
        <time>2018-05-19T09:14:06Z</time>
      </trkpt>
      <trkpt lat="36.75021" lon="27.50001">
        <ele>34.722</ele>
        <time>2018-05-19T09:14:29Z</time>
      </trkpt>
      <trkpt lat="36.7502" lon="27.50007">
        <ele>36.579</ele>
        <time>2018-05-19T09:14:40Z</time>
      </trkpt>
      <trkpt lat="36.75019" lon="27.50013">
        <ele>36.89</ele>
        <time>2018-05-19T09:14:47Z</time>
      </trkpt>
      <trkpt lat="36.75019" lon="27.50019">
        <ele>36.754</ele>
        <time>2018-05-19T09:14:57Z</time>
      </trkpt>
      <trkpt lat="36.7502" lon="27.50025">
        <ele>35.976</ele>
        <time>2018-05-19T09:15:06Z</time>
      </trkpt>
      <trkpt lat="36.7502" lon="27.50031">
        <ele>36.69</ele>
        <time>2018-05-19T09:15:23Z</time>
      </trkpt>
      <trkpt lat="36.75022" lon="27.50036">
        <ele>35.219</ele>
        <time>2018-05-19T09:15:32Z</time>
      </trkpt>
      <trkpt lat="36.75023" lon="27.50042">
        <ele>32.508</ele>
        <time>2018-05-19T09:15:49Z</time>
      </trkpt>
      <trkpt lat="36.75023" lon="27.50049">
        <ele>30.469</ele>
        <time>2018-05-19T09:16:07Z</time>
      </trkpt>
      <trkpt lat="36.75025" lon="27.50054">
        <ele>30.052</ele>
        <time>2018-05-19T09:16:12Z</time>
      </trkpt>
      <trkpt lat="36.75027" lon="27.50059">
        <ele>29.367</ele>
        <time>2018-05-19T09:16:22Z</time>
      </trkpt>
      <trkpt lat="36.75029" lon="27.50064">
        <ele>27.99</ele>
        <time>2018-05-19T09:16:31Z</time>
      </trkpt>
      <trkpt lat="36.75031" lon="27.50069">
        <ele>27.027</ele>
        <time>2018-05-19T09:16:38Z</time>
      </trkpt>
      <trkpt lat="36.7503" lon="27.50075">
        <ele>27.784</ele>
        <time>2018-05-19T09:16:46Z</time>
      </trkpt>
      <trkpt lat="36.75027" lon="27.50081">
        <ele>29.125</ele>
        <time>2018-05-19T09:16:54Z</time>
      </trkpt>
      <trkpt lat="36.75029" lon="27.50086">
        <ele>29.039</ele>
        <time>2018-05-19T09:17:00Z</time>
      </trkpt>
      <trkpt lat="36.7503" lon="27.50092">
        <ele>28.457</ele>
        <time>2018-05-19T09:17:07Z</time>
      </trkpt>
      <trkpt lat="36.7503" lon="27.50097">
        <ele>27.8</ele>
        <time>2018-05-19T09:17:14Z</time>
      </trkpt>
      <trkpt lat="36.75029" lon="27.50103">
        <ele>27.32</ele>
        <time>2018-05-19T09:17:22Z</time>
      </trkpt>
      <trkpt lat="36.7503" lon="27.50109">
        <ele>24.908</ele>
        <time>2018-05-19T09:17:35Z</time>
      </trkpt>
      <trkpt lat="36.75028" lon="27.50114">
        <ele>24.897</ele>
        <time>2018-05-19T09:17:44Z</time>
      </trkpt>
      <trkpt lat="36.75028" lon="27.5012">
        <ele>24.82</ele>
        <time>2018-05-19T09:17:52Z</time>
      </trkpt>
      <trkpt lat="36.7503" lon="27.50125">
        <ele>24.355</ele>
        <time>2018-05-19T09:18:01Z</time>
      </trkpt>
      <trkpt lat="36.75026" lon="27.50129">
        <ele>22.938</ele>
        <time>2018-05-19T09:18:10Z</time>
      </trkpt>
      <trkpt lat="36.75028" lon="27.50135">
        <ele>22.945</ele>
        <time>2018-05-19T09:18:18Z</time>
      </trkpt>
      <trkpt lat="36.7503" lon="27.50139">
        <ele>23.772</ele>
        <time>2018-05-19T09:18:24Z</time>
      </trkpt>
      <trkpt lat="36.75033" lon="27.50145">
        <ele>22.753</ele>
        <time>2018-05-19T09:18:31Z</time>
      </trkpt>
      <trkpt lat="36.75033" lon="27.50151">
        <ele>22.317</ele>
        <time>2018-05-19T09:18:37Z</time>
      </trkpt>
      <trkpt lat="36.75033" lon="27.50157">
        <ele>23.123</ele>
        <time>2018-05-19T09:18:50Z</time>
      </trkpt>
      <trkpt lat="36.75032" lon="27.50163">
        <ele>23.083</ele>
        <time>2018-05-19T09:19:00Z</time>
      </trkpt>
      <trkpt lat="36.75034" lon="27.50168">
        <ele>23.711</ele>
        <time>2018-05-19T09:19:06Z</time>
      </trkpt>
      <trkpt lat="36.75037" lon="27.50172">
        <ele>21.808</ele>
        <time>2018-05-19T09:19:14Z</time>
      </trkpt>
      <trkpt lat="36.75039" lon="27.50178">
        <ele>23.454</ele>
        <time>2018-05-19T09:19:23Z</time>
      </trkpt>
      <trkpt lat="36.7504" lon="27.50184">
        <ele>23.517</ele>
        <time>2018-05-19T09:19:33Z</time>
      </trkpt>
      <trkpt lat="36.75042" lon="27.50189">
        <ele>24.382</ele>
        <time>2018-05-19T09:19:42Z</time>
      </trkpt>
      <trkpt lat="36.75044" lon="27.50194">
        <ele>23.135</ele>
        <time>2018-05-19T09:19:49Z</time>
      </trkpt>
      <trkpt lat="36.75045" lon="27.502">
        <ele>23.182</ele>
        <time>2018-05-19T09:19:58Z</time>
      </trkpt>
      <trkpt lat="36.75048" lon="27.50206">
        <ele>22.899</ele>
        <time>2018-05-19T09:20:05Z</time>
      </trkpt>
      <trkpt lat="36.7505" lon="27.50211">
        <ele>22.77</ele>
        <time>2018-05-19T09:20:14Z</time>
      </trkpt>
      <trkpt lat="36.75048" lon="27.50217">
        <ele>20.964</ele>
        <time>2018-05-19T09:20:24Z</time>
      </trkpt>
      <trkpt lat="36.75044" lon="27.5022">
        <ele>20.681</ele>
        <time>2018-05-19T09:20:41Z</time>
      </trkpt>
      <trkpt lat="36.7504" lon="27.5022">
        <ele>20.861</ele>
        <time>2018-05-19T09:20:51Z</time>
      </trkpt>
      <trkpt lat="36.75036" lon="27.50224">
        <ele>21.917</ele>
        <time>2018-05-19T09:21:01Z</time>
      </trkpt>
      <trkpt lat="36.75033" lon="27.50228">
        <ele>19.608</ele>
        <time>2018-05-19T09:21:11Z</time>
      </trkpt>
      <trkpt lat="36.75028" lon="27.50229">
        <ele>13.84</ele>
        <time>2018-05-19T09:21:34Z</time>
      </trkpt>
      <trkpt lat="36.75024" lon="27.50232">
        <ele>12.663</ele>
        <time>2018-05-19T09:21:45Z</time>
      </trkpt>
      <trkpt lat="36.7502" lon="27.50234">
        <ele>14.728</ele>
        <time>2018-05-19T09:21:53Z</time>
      </trkpt>
      <trkpt lat="36.75016" lon="27.50238">
        <ele>12.551</ele>
        <time>2018-05-19T09:22:05Z</time>
      </trkpt>
      <trkpt lat="36.75012" lon="27.5024">
        <ele>10.988</ele>
        <time>2018-05-19T09:22:19Z</time>
      </trkpt>
      <trkpt lat="36.75009" lon="27.50245">
        <ele>11.115</ele>
        <time>2018-05-19T09:22:30Z</time>
      </trkpt>
      <trkpt lat="36.75005" lon="27.50248">
        <ele>9.316</ele>
        <time>2018-05-19T09:22:43Z</time>
      </trkpt>
      <trkpt lat="36.75002" lon="27.50252">
        <ele>8.86</ele>
        <time>2018-05-19T09:22:53Z</time>
      </trkpt>
      <trkpt lat="36.74999" lon="27.50258">
        <ele>8.918</ele>
        <time>2018-05-19T09:23:00Z</time>
      </trkpt>
      <trkpt lat="36.74997" lon="27.50262">
        <ele>8.098</ele>
        <time>2018-05-19T09:23:08Z</time>
      </trkpt>
      <trkpt lat="36.74995" lon="27.50268">
        <ele>7.417</ele>
        <time>2018-05-19T09:23:17Z</time>
      </trkpt>
      <trkpt lat="36.74993" lon="27.50273">
        <ele>8.108</ele>
        <time>2018-05-19T09:23:27Z</time>
      </trkpt>
      <trkpt lat="36.74991" lon="27.50278">
        <ele>7.023</ele>
        <time>2018-05-19T09:23:43Z</time>
      </trkpt>
      <trkpt lat="36.74987" lon="27.50279">
        <ele>9.086</ele>
        <time>2018-05-19T09:24:12Z</time>
      </trkpt>
      <trkpt lat="36.74982" lon="27.50277">
        <ele>6.441</ele>
        <time>2018-05-19T09:24:35Z</time>
      </trkpt>
      <trkpt lat="36.74977" lon="27.50277">
        <ele>6.944</ele>
        <time>2018-05-19T09:24:54Z</time>
      </trkpt>
      <trkpt lat="36.74972" lon="27.50279">
        <ele>6.381</ele>
        <time>2018-05-19T09:25:03Z</time>
      </trkpt>
      <trkpt lat="36.74968" lon="27.50282">
        <ele>6.098</ele>
        <time>2018-05-19T09:25:09Z</time>
      </trkpt>
      <trkpt lat="36.74965" lon="27.50286">
        <ele>6.269</ele>
        <time>2018-05-19T09:25:20Z</time>
      </trkpt>
      <trkpt lat="36.7496" lon="27.50288">
        <ele>4.673</ele>
        <time>2018-05-19T09:25:32Z</time>
      </trkpt>
      <trkpt lat="36.74955" lon="27.50305">
        <ele>11.792</ele>
        <time>2018-05-19T09:29:19Z</time>
      </trkpt>
      <trkpt lat="36.74949" lon="27.50307">
        <ele>12.427</ele>
        <time>2018-05-19T09:29:22Z</time>
      </trkpt>
      <trkpt lat="36.74946" lon="27.50311">
        <ele>12.74</ele>
        <time>2018-05-19T09:29:34Z</time>
      </trkpt>
      <trkpt lat="36.74944" lon="27.50317">
        <ele>13.257</ele>
        <time>2018-05-19T09:29:41Z</time>
      </trkpt>
      <trkpt lat="36.74939" lon="27.5032">
        <ele>14.194</ele>
        <time>2018-05-19T09:29:58Z</time>
      </trkpt>
      <trkpt lat="36.74943" lon="27.50325">
        <ele>13.685</ele>
        <time>2018-05-19T09:30:12Z</time>
      </trkpt>
      <trkpt lat="36.74942" lon="27.50331">
        <ele>14.159</ele>
        <time>2018-05-19T09:30:28Z</time>
      </trkpt>
      <trkpt lat="36.74937" lon="27.50331">
        <ele>15.549</ele>
        <time>2018-05-19T09:30:35Z</time>
      </trkpt>
      <trkpt lat="36.74933" lon="27.50333">
        <ele>15.102</ele>
        <time>2018-05-19T09:30:42Z</time>
      </trkpt>
      <trkpt lat="36.7493" lon="27.50338">
        <ele>15.022</ele>
        <time>2018-05-19T09:30:54Z</time>
      </trkpt>
      <trkpt lat="36.74924" lon="27.50342">
        <ele>15.352</ele>
        <time>2018-05-19T09:33:03Z</time>
      </trkpt>
      <trkpt lat="36.74926" lon="27.50349">
        <ele>14.676</ele>
        <time>2018-05-19T09:33:09Z</time>
      </trkpt>
      <trkpt lat="36.74921" lon="27.5035">
        <ele>15.786</ele>
        <time>2018-05-19T09:33:32Z</time>
      </trkpt>
      <trkpt lat="36.74921" lon="27.50356">
        <ele>15.16</ele>
        <time>2018-05-19T09:33:39Z</time>
      </trkpt>
      <trkpt lat="36.74915" lon="27.50356">
        <ele>16.026</ele>
        <time>2018-05-19T09:33:45Z</time>
      </trkpt>
      <trkpt lat="36.74916" lon="27.50362">
        <ele>16.108</ele>
        <time>2018-05-19T09:34:10Z</time>
      </trkpt>
      <trkpt lat="36.74921" lon="27.50363">
        <ele>14.09</ele>
        <time>2018-05-19T09:34:20Z</time>
      </trkpt>
      <trkpt lat="36.74925" lon="27.50367">
        <ele>13.023</ele>
        <time>2018-05-19T09:34:31Z</time>
      </trkpt>
      <trkpt lat="36.74923" lon="27.50373">
        <ele>13.528</ele>
        <time>2018-05-19T09:34:38Z</time>
      </trkpt>
      <trkpt lat="36.74928" lon="27.50373">
        <ele>11.761</ele>
        <time>2018-05-19T09:34:50Z</time>
      </trkpt>
      <trkpt lat="36.74931" lon="27.50376">
        <ele>11.668</ele>
        <time>2018-05-19T09:34:57Z</time>
      </trkpt>
      <trkpt lat="36.74934" lon="27.50381">
        <ele>11.335</ele>
        <time>2018-05-19T09:35:15Z</time>
      </trkpt>
      <trkpt lat="36.74939" lon="27.50381">
        <ele>10.336</ele>
        <time>2018-05-19T09:35:26Z</time>
      </trkpt>
      <trkpt lat="36.7494" lon="27.50387">
        <ele>10.47</ele>
        <time>2018-05-19T09:35:32Z</time>
      </trkpt>
      <trkpt lat="36.74942" lon="27.50392">
        <ele>11.069</ele>
        <time>2018-05-19T09:35:49Z</time>
      </trkpt>
      <trkpt lat="36.74937" lon="27.50395">
        <ele>11.704</ele>
        <time>2018-05-19T09:36:22Z</time>
      </trkpt>
      <trkpt lat="36.74941" lon="27.50398">
        <ele>12.024</ele>
        <time>2018-05-19T09:36:29Z</time>
      </trkpt>
      <trkpt lat="36.74946" lon="27.50399">
        <ele>11.308</ele>
        <time>2018-05-19T09:36:38Z</time>
      </trkpt>
      <trkpt lat="36.74947" lon="27.50404">
        <ele>11.268</ele>
        <time>2018-05-19T09:36:46Z</time>
      </trkpt>
      <trkpt lat="36.74951" lon="27.50408">
        <ele>11.631</ele>
        <time>2018-05-19T09:36:54Z</time>
      </trkpt>
      <trkpt lat="36.74949" lon="27.50414">
        <ele>12.476</ele>
        <time>2018-05-19T09:37:02Z</time>
      </trkpt>
      <trkpt lat="36.74947" lon="27.50419">
        <ele>12.579</ele>
        <time>2018-05-19T09:37:16Z</time>
      </trkpt>
      <trkpt lat="36.7495" lon="27.50425">
        <ele>13.926</ele>
        <time>2018-05-19T09:37:27Z</time>
      </trkpt>
      <trkpt lat="36.7495" lon="27.50432">
        <ele>13.363</ele>
        <time>2018-05-19T09:37:45Z</time>
      </trkpt>
      <trkpt lat="36.74955" lon="27.50432">
        <ele>15.234</ele>
        <time>2018-05-19T09:38:10Z</time>
      </trkpt>
      <trkpt lat="36.74953" lon="27.50437">
        <ele>15.268</ele>
        <time>2018-05-19T09:38:33Z</time>
      </trkpt>
      <trkpt lat="36.74952" lon="27.50443">
        <ele>17.541</ele>
        <time>2018-05-19T09:38:40Z</time>
      </trkpt>
      <trkpt lat="36.74949" lon="27.50449">
        <ele>18.681</ele>
        <time>2018-05-19T09:38:45Z</time>
      </trkpt>
      <trkpt lat="36.74949" lon="27.50454">
        <ele>20.509</ele>
        <time>2018-05-19T09:38:58Z</time>
      </trkpt>
      <trkpt lat="36.74949" lon="27.5046">
        <ele>22.008</ele>
        <time>2018-05-19T09:39:06Z</time>
      </trkpt>
      <trkpt lat="36.7495" lon="27.50466">
        <ele>22.036</ele>
        <time>2018-05-19T09:39:11Z</time>
      </trkpt>
      <trkpt lat="36.74949" lon="27.50472">
        <ele>21.989</ele>
        <time>2018-05-19T09:39:20Z</time>
      </trkpt>
      <trkpt lat="36.74949" lon="27.50477">
        <ele>22.524</ele>
        <time>2018-05-19T09:39:30Z</time>
      </trkpt>
      <trkpt lat="36.74951" lon="27.50483">
        <ele>23.477</ele>
        <time>2018-05-19T09:39:37Z</time>
      </trkpt>
      <trkpt lat="36.74954" lon="27.50487">
        <ele>23.894</ele>
        <time>2018-05-19T09:39:45Z</time>
      </trkpt>
      <trkpt lat="36.74955" lon="27.50492">
        <ele>23.591</ele>
        <time>2018-05-19T09:39:59Z</time>
      </trkpt>
      <trkpt lat="36.74959" lon="27.50497">
        <ele>24.452</ele>
        <time>2018-05-19T09:40:09Z</time>
      </trkpt>
      <trkpt lat="36.74962" lon="27.50502">
        <ele>25.626</ele>
        <time>2018-05-19T09:40:14Z</time>
      </trkpt>
      <trkpt lat="36.74967" lon="27.50502">
        <ele>24.817</ele>
        <time>2018-05-19T09:40:18Z</time>
      </trkpt>
      <trkpt lat="36.74971" lon="27.50506">
        <ele>23.487</ele>
        <time>2018-05-19T09:40:26Z</time>
      </trkpt>
      <trkpt lat="36.74974" lon="27.50511">
        <ele>23.315</ele>
        <time>2018-05-19T09:40:33Z</time>
      </trkpt>
      <trkpt lat="36.74975" lon="27.50517">
        <ele>23.108</ele>
        <time>2018-05-19T09:40:40Z</time>
      </trkpt>
      <trkpt lat="36.74977" lon="27.50522">
        <ele>23.213</ele>
        <time>2018-05-19T09:40:44Z</time>
      </trkpt>
      <trkpt lat="36.74979" lon="27.50528">
        <ele>25.166</ele>
        <time>2018-05-19T09:40:52Z</time>
      </trkpt>
      <trkpt lat="36.74979" lon="27.50533">
        <ele>25.441</ele>
        <time>2018-05-19T09:40:59Z</time>
      </trkpt>
      <trkpt lat="36.74979" lon="27.5054">
        <ele>25.764</ele>
        <time>2018-05-19T09:41:04Z</time>
      </trkpt>
      <trkpt lat="36.74983" lon="27.50542">
        <ele>25.931</ele>
        <time>2018-05-19T09:41:10Z</time>
      </trkpt>
      <trkpt lat="36.74987" lon="27.50545">
        <ele>26.368</ele>
        <time>2018-05-19T09:41:16Z</time>
      </trkpt>
      <trkpt lat="36.7499" lon="27.5055">
        <ele>27.179</ele>
        <time>2018-05-19T09:41:26Z</time>
      </trkpt>
      <trkpt lat="36.74991" lon="27.50555">
        <ele>28.163</ele>
        <time>2018-05-19T09:41:34Z</time>
      </trkpt>
      <trkpt lat="36.74994" lon="27.50561">
        <ele>29.032</ele>
        <time>2018-05-19T09:41:43Z</time>
      </trkpt>
      <trkpt lat="36.74994" lon="27.50568">
        <ele>29.592</ele>
        <time>2018-05-19T09:41:50Z</time>
      </trkpt>
      <trkpt lat="36.74995" lon="27.50574">
        <ele>29.311</ele>
        <time>2018-05-19T09:41:56Z</time>
      </trkpt>
      <trkpt lat="36.74994" lon="27.50579">
        <ele>31.108</ele>
        <time>2018-05-19T09:42:07Z</time>
      </trkpt>
      <trkpt lat="36.74995" lon="27.50585">
        <ele>31.665</ele>
        <time>2018-05-19T09:42:13Z</time>
      </trkpt>
      <trkpt lat="36.74992" lon="27.5059">
        <ele>31.958</ele>
        <time>2018-05-19T09:42:19Z</time>
      </trkpt>
      <trkpt lat="36.74991" lon="27.50596">
        <ele>33.213</ele>
        <time>2018-05-19T09:42:26Z</time>
      </trkpt>
      <trkpt lat="36.7499" lon="27.50602">
        <ele>33.366</ele>
        <time>2018-05-19T09:42:31Z</time>
      </trkpt>
      <trkpt lat="36.74991" lon="27.50608">
        <ele>33.473</ele>
        <time>2018-05-19T09:42:36Z</time>
      </trkpt>
      <trkpt lat="36.74992" lon="27.50613">
        <ele>33.96</ele>
        <time>2018-05-19T09:42:47Z</time>
      </trkpt>
      <trkpt lat="36.74987" lon="27.50613">
        <ele>35.941</ele>
        <time>2018-05-19T09:42:56Z</time>
      </trkpt>
      <trkpt lat="36.7499" lon="27.50618">
        <ele>38.115</ele>
        <time>2018-05-19T09:44:54Z</time>
      </trkpt>
      <trkpt lat="36.74985" lon="27.50617">
        <ele>39.642</ele>
        <time>2018-05-19T09:45:05Z</time>
      </trkpt>
      <trkpt lat="36.74985" lon="27.50622">
        <ele>40.222</ele>
        <time>2018-05-19T09:45:14Z</time>
      </trkpt>
      <trkpt lat="36.74983" lon="27.50628">
        <ele>37.414</ele>
        <time>2018-05-19T09:45:22Z</time>
      </trkpt>
      <trkpt lat="36.74983" lon="27.50634">
        <ele>37.908</ele>
        <time>2018-05-19T09:45:27Z</time>
      </trkpt>
      <trkpt lat="36.74984" lon="27.50639">
        <ele>37.966</ele>
        <time>2018-05-19T09:45:32Z</time>
      </trkpt>
      <trkpt lat="36.74987" lon="27.50644">
        <ele>37.419</ele>
        <time>2018-05-19T09:45:36Z</time>
      </trkpt>
      <trkpt lat="36.74988" lon="27.5065">
        <ele>36.154</ele>
        <time>2018-05-19T09:45:42Z</time>
      </trkpt>
      <trkpt lat="36.74991" lon="27.50654">
        <ele>36.667</ele>
        <time>2018-05-19T09:45:47Z</time>
      </trkpt>
      <trkpt lat="36.74993" lon="27.50659">
        <ele>35.794</ele>
        <time>2018-05-19T09:45:54Z</time>
      </trkpt>
      <trkpt lat="36.74996" lon="27.50664">
        <ele>35.091</ele>
        <time>2018-05-19T09:46:00Z</time>
      </trkpt>
      <trkpt lat="36.74994" lon="27.50669">
        <ele>36.882</ele>
        <time>2018-05-19T09:46:05Z</time>
      </trkpt>
      <trkpt lat="36.74994" lon="27.50676">
        <ele>38.216</ele>
        <time>2018-05-19T09:46:11Z</time>
      </trkpt>
      <trkpt lat="36.74997" lon="27.50681">
        <ele>37.866</ele>
        <time>2018-05-19T09:46:15Z</time>
      </trkpt>
      <trkpt lat="36.75001" lon="27.50684">
        <ele>36.529</ele>
        <time>2018-05-19T09:46:21Z</time>
      </trkpt>
      <trkpt lat="36.75004" lon="27.50689">
        <ele>35.621</ele>
        <time>2018-05-19T09:46:27Z</time>
      </trkpt>
      <trkpt lat="36.75003" lon="27.50695">
        <ele>34.508</ele>
        <time>2018-05-19T09:46:35Z</time>
      </trkpt>
      <trkpt lat="36.75004" lon="27.50701">
        <ele>34.658</ele>
        <time>2018-05-19T09:46:44Z</time>
      </trkpt>
      <trkpt lat="36.75007" lon="27.50706">
        <ele>34.491</ele>
        <time>2018-05-19T09:46:51Z</time>
      </trkpt>
      <trkpt lat="36.75009" lon="27.50711">
        <ele>33.746</ele>
        <time>2018-05-19T09:47:01Z</time>
      </trkpt>
      <trkpt lat="36.75013" lon="27.50715">
        <ele>31.689</ele>
        <time>2018-05-19T09:47:07Z</time>
      </trkpt>
      <trkpt lat="36.75016" lon="27.5072">
        <ele>31.236</ele>
        <time>2018-05-19T09:47:10Z</time>
      </trkpt>
      <trkpt lat="36.7502" lon="27.50724">
        <ele>30.283</ele>
        <time>2018-05-19T09:47:15Z</time>
      </trkpt>
      <trkpt lat="36.75019" lon="27.5073">
        <ele>28.594</ele>
        <time>2018-05-19T09:47:23Z</time>
      </trkpt>
      <trkpt lat="36.75019" lon="27.50736">
        <ele>27.888</ele>
        <time>2018-05-19T09:47:28Z</time>
      </trkpt>
      <trkpt lat="36.75023" lon="27.50739">
        <ele>27.153</ele>
        <time>2018-05-19T09:47:34Z</time>
      </trkpt>
      <trkpt lat="36.75027" lon="27.50742">
        <ele>25.504</ele>
        <time>2018-05-19T09:47:41Z</time>
      </trkpt>
      <trkpt lat="36.75028" lon="27.50748">
        <ele>25.414</ele>
        <time>2018-05-19T09:47:47Z</time>
      </trkpt>
      <trkpt lat="36.7503" lon="27.50753">
        <ele>25.008</ele>
        <time>2018-05-19T09:47:55Z</time>
      </trkpt>
      <trkpt lat="36.75032" lon="27.50759">
        <ele>23.987</ele>
        <time>2018-05-19T09:48:06Z</time>
      </trkpt>
      <trkpt lat="36.75034" lon="27.50765">
        <ele>23.31</ele>
        <time>2018-05-19T09:48:11Z</time>
      </trkpt>
      <trkpt lat="36.75033" lon="27.5077">
        <ele>23.125</ele>
        <time>2018-05-19T09:48:15Z</time>
      </trkpt>
      <trkpt lat="36.75033" lon="27.50776">
        <ele>23.028</ele>
        <time>2018-05-19T09:48:21Z</time>
      </trkpt>
      <trkpt lat="36.75029" lon="27.50781">
        <ele>22.895</ele>
        <time>2018-05-19T09:48:33Z</time>
      </trkpt>
      <trkpt lat="36.75026" lon="27.50785">
        <ele>22.282</ele>
        <time>2018-05-19T09:48:42Z</time>
      </trkpt>
      <trkpt lat="36.75025" lon="27.50792">
        <ele>21.583</ele>
        <time>2018-05-19T09:48:48Z</time>
      </trkpt>
      <trkpt lat="36.7502" lon="27.50793">
        <ele>21.787</ele>
        <time>2018-05-19T09:48:55Z</time>
      </trkpt>
      <trkpt lat="36.75021" lon="27.50798">
        <ele>21.863</ele>
        <time>2018-05-19T09:49:03Z</time>
      </trkpt>
      <trkpt lat="36.75021" lon="27.50804">
        <ele>22.144</ele>
        <time>2018-05-19T09:49:11Z</time>
      </trkpt>
      <trkpt lat="36.75024" lon="27.50809">
        <ele>21.718</ele>
        <time>2018-05-19T09:49:18Z</time>
      </trkpt>
      <trkpt lat="36.75019" lon="27.50813">
        <ele>21.108</ele>
        <time>2018-05-19T09:49:27Z</time>
      </trkpt>
      <trkpt lat="36.75014" lon="27.50816">
        <ele>21.498</ele>
        <time>2018-05-19T09:49:30Z</time>
      </trkpt>
      <trkpt lat="36.75011" lon="27.50821">
        <ele>21.621</ele>
        <time>2018-05-19T09:49:35Z</time>
      </trkpt>
      <trkpt lat="36.75013" lon="27.50827">
        <ele>20.766</ele>
        <time>2018-05-19T09:49:41Z</time>
      </trkpt>
      <trkpt lat="36.75014" lon="27.50833">
        <ele>19.559</ele>
        <time>2018-05-19T09:49:48Z</time>
      </trkpt>
      <trkpt lat="36.75019" lon="27.50835">
        <ele>18.986</ele>
        <time>2018-05-19T09:49:59Z</time>
      </trkpt>
      <trkpt lat="36.75018" lon="27.50841">
        <ele>18.453</ele>
        <time>2018-05-19T09:50:07Z</time>
      </trkpt>
      <trkpt lat="36.75023" lon="27.50842">
        <ele>18.164</ele>
        <time>2018-05-19T09:50:13Z</time>
      </trkpt>
      <trkpt lat="36.75028" lon="27.50845">
        <ele>15.828</ele>
        <time>2018-05-19T09:50:20Z</time>
      </trkpt>
      <trkpt lat="36.7503" lon="27.50851">
        <ele>15.075</ele>
        <time>2018-05-19T09:50:27Z</time>
      </trkpt>
      <trkpt lat="36.75029" lon="27.50857">
        <ele>12.128</ele>
        <time>2018-05-19T09:50:38Z</time>
      </trkpt>
      <trkpt lat="36.75026" lon="27.50861">
        <ele>12.12</ele>
        <time>2018-05-19T09:50:44Z</time>
      </trkpt>
      <trkpt lat="36.75026" lon="27.50868">
        <ele>10.108</ele>
        <time>2018-05-19T09:50:53Z</time>
      </trkpt>
      <trkpt lat="36.75029" lon="27.50872">
        <ele>9.639</ele>
        <time>2018-05-19T09:50:58Z</time>
      </trkpt>
      <trkpt lat="36.75034" lon="27.50871">
        <ele>8.352</ele>
        <time>2018-05-19T09:51:02Z</time>
      </trkpt>
      <trkpt lat="36.75038" lon="27.50874">
        <ele>8.097</ele>
        <time>2018-05-19T09:51:08Z</time>
      </trkpt>
      <trkpt lat="36.7504" lon="27.50879">
        <ele>6.84</ele>
        <time>2018-05-19T09:51:15Z</time>
      </trkpt>
      <trkpt lat="36.75038" lon="27.50885">
        <ele>7.757</ele>
        <time>2018-05-19T09:51:21Z</time>
      </trkpt>
      <trkpt lat="36.75037" lon="27.5089">
        <ele>8.614</ele>
        <time>2018-05-19T09:51:28Z</time>
      </trkpt>
      <trkpt lat="36.75036" lon="27.50896">
        <ele>8.665</ele>
        <time>2018-05-19T09:51:35Z</time>
      </trkpt>
      <trkpt lat="36.75035" lon="27.50902">
        <ele>8.799</ele>
        <time>2018-05-19T09:51:42Z</time>
      </trkpt>
      <trkpt lat="36.75039" lon="27.50906">
        <ele>8.729</ele>
        <time>2018-05-19T09:51:50Z</time>
      </trkpt>
      <trkpt lat="36.75042" lon="27.50911">
        <ele>7.6</ele>
        <time>2018-05-19T09:51:56Z</time>
      </trkpt>
      <trkpt lat="36.75044" lon="27.50916">
        <ele>7.82</ele>
        <time>2018-05-19T09:52:02Z</time>
      </trkpt>
      <trkpt lat="36.75044" lon="27.50922">
        <ele>7.308</ele>
        <time>2018-05-19T09:52:09Z</time>
      </trkpt>
      <trkpt lat="36.75044" lon="27.50928">
        <ele>6.414</ele>
        <time>2018-05-19T09:52:18Z</time>
      </trkpt>
      <trkpt lat="36.75047" lon="27.50933">
        <ele>6.587</ele>
        <time>2018-05-19T09:52:26Z</time>
      </trkpt>
      <trkpt lat="36.7505" lon="27.50938">
        <ele>6.292</ele>
        <time>2018-05-19T09:52:33Z</time>
      </trkpt>
      <trkpt lat="36.7505" lon="27.50944">
        <ele>6.035</ele>
        <time>2018-05-19T09:52:40Z</time>
      </trkpt>
      <trkpt lat="36.75052" lon="27.50949">
        <ele>6.372</ele>
        <time>2018-05-19T09:52:47Z</time>
      </trkpt>
      <trkpt lat="36.75054" lon="27.50955">
        <ele>6.439</ele>
        <time>2018-05-19T09:52:54Z</time>
      </trkpt>
      <trkpt lat="36.75057" lon="27.5096">
        <ele>6.26</ele>
        <time>2018-05-19T09:53:00Z</time>
      </trkpt>
      <trkpt lat="36.75058" lon="27.50966">
        <ele>6.944</ele>
        <time>2018-05-19T09:53:27Z</time>
      </trkpt>
      <trkpt lat="36.75058" lon="27.50972">
        <ele>5.911</ele>
        <time>2018-05-19T09:53:58Z</time>
      </trkpt>
      <trkpt lat="36.75063" lon="27.50973">
        <ele>6.521</ele>
        <time>2018-05-19T09:54:05Z</time>
      </trkpt>
      <trkpt lat="36.75066" lon="27.50978">
        <ele>7.103</ele>
        <time>2018-05-19T09:54:14Z</time>
      </trkpt>
      <trkpt lat="36.7507" lon="27.50981">
        <ele>8.708</ele>
        <time>2018-05-19T09:54:23Z</time>
      </trkpt>
      <trkpt lat="36.75071" lon="27.50987">
        <ele>8.533</ele>
        <time>2018-05-19T09:54:35Z</time>
      </trkpt>
      <trkpt lat="36.75075" lon="27.50991">
        <ele>9.036</ele>
        <time>2018-05-19T09:54:45Z</time>
      </trkpt>
      <trkpt lat="36.75077" lon="27.50996">
        <ele>9.741</ele>
        <time>2018-05-19T09:54:52Z</time>
      </trkpt>
      <trkpt lat="36.75072" lon="27.50999">
        <ele>9.754</ele>
        <time>2018-05-19T09:55:03Z</time>
      </trkpt>
      <trkpt lat="36.75069" lon="27.51003">
        <ele>10.811</ele>
        <time>2018-05-19T09:55:11Z</time>
      </trkpt>
      <trkpt lat="36.7507" lon="27.51009">
        <ele>11.958</ele>
        <time>2018-05-19T09:55:18Z</time>
      </trkpt>
      <trkpt lat="36.7507" lon="27.51015">
        <ele>12.119</ele>
        <time>2018-05-19T09:55:26Z</time>
      </trkpt>
      <trkpt lat="36.75073" lon="27.5102">
        <ele>12.033</ele>
        <time>2018-05-19T09:55:34Z</time>
      </trkpt>
      <trkpt lat="36.75076" lon="27.51023">
        <ele>12.637</ele>
        <time>2018-05-19T09:55:42Z</time>
      </trkpt>
      <trkpt lat="36.75076" lon="27.51029">
        <ele>13.149</ele>
        <time>2018-05-19T09:55:51Z</time>
      </trkpt>
      <trkpt lat="36.75077" lon="27.51035">
        <ele>14.613</ele>
        <time>2018-05-19T09:55:58Z</time>
      </trkpt>
      <trkpt lat="36.7508" lon="27.51041">
        <ele>12.508</ele>
        <time>2018-05-19T09:56:07Z</time>
      </trkpt>
      <trkpt lat="36.75078" lon="27.51047">
        <ele>12.565</ele>
        <time>2018-05-19T09:56:16Z</time>
      </trkpt>
      <trkpt lat="36.75076" lon="27.51052">
        <ele>12.168</ele>
        <time>2018-05-19T09:56:30Z</time>
      </trkpt>
      <trkpt lat="36.75077" lon="27.51058">
        <ele>12.023</ele>
        <time>2018-05-19T09:56:35Z</time>
      </trkpt>
      <trkpt lat="36.75075" lon="27.51063">
        <ele>11.886</ele>
        <time>2018-05-19T09:56:44Z</time>
      </trkpt>
      <trkpt lat="36.75077" lon="27.51068">
        <ele>9.223</ele>
        <time>2018-05-19T09:56:54Z</time>
      </trkpt>
      <trkpt lat="36.75075" lon="27.51074">
        <ele>7.73</ele>
        <time>2018-05-19T09:57:05Z</time>
      </trkpt>
      <trkpt lat="36.75071" lon="27.51073">
        <ele>9.031</ele>
        <time>2018-05-19T09:57:21Z</time>
      </trkpt>
      <trkpt lat="36.75067" lon="27.51076">
        <ele>8.845</ele>
        <time>2018-05-19T09:57:28Z</time>
      </trkpt>
      <trkpt lat="36.75066" lon="27.51082">
        <ele>7.337</ele>
        <time>2018-05-19T09:57:41Z</time>
      </trkpt>
      <trkpt lat="36.75064" lon="27.51088">
        <ele>6.349</ele>
        <time>2018-05-19T09:57:46Z</time>
      </trkpt>
      <trkpt lat="36.75061" lon="27.51092">
        <ele>6.013</ele>
        <time>2018-05-19T09:57:52Z</time>
      </trkpt>
      <trkpt lat="36.75058" lon="27.51097">
        <ele>4.808</ele>
        <time>2018-05-19T09:58:02Z</time>
      </trkpt>
      <trkpt lat="36.75052" lon="27.51098">
        <ele>4.395</ele>
        <time>2018-05-19T09:58:07Z</time>
      </trkpt>
      <trkpt lat="36.7505" lon="27.51103">
        <ele>4.138</ele>
        <time>2018-05-19T09:58:16Z</time>
      </trkpt>
      <trkpt lat="36.75046" lon="27.51107">
        <ele>3.753</ele>
        <time>2018-05-19T09:58:20Z</time>
      </trkpt>
      <trkpt lat="36.7505" lon="27.5111">
        <ele>4.016</ele>
        <time>2018-05-19T09:58:25Z</time>
      </trkpt>
      <trkpt lat="36.75051" lon="27.51116">
        <ele>3.783</ele>
        <time>2018-05-19T09:58:31Z</time>
      </trkpt>
      <trkpt lat="36.75049" lon="27.51121">
        <ele>3.58</ele>
        <time>2018-05-19T09:58:35Z</time>
      </trkpt>
      <trkpt lat="36.75049" lon="27.51128">
        <ele>3.571</ele>
        <time>2018-05-19T09:58:40Z</time>
      </trkpt>
      <trkpt lat="36.75045" lon="27.51132">
        <ele>4.285</ele>
        <time>2018-05-19T09:58:45Z</time>
      </trkpt>
      <trkpt lat="36.75042" lon="27.51136">
        <ele>5.047</ele>
        <time>2018-05-19T09:58:51Z</time>
      </trkpt>
      <trkpt lat="36.75044" lon="27.51141">
        <ele>4.729</ele>
        <time>2018-05-19T09:59:01Z</time>
      </trkpt>
      <trkpt lat="36.75046" lon="27.51147">
        <ele>5.821</ele>
        <time>2018-05-19T09:59:09Z</time>
      </trkpt>
      <trkpt lat="36.75049" lon="27.51152">
        <ele>6.808</ele>
        <time>2018-05-19T09:59:15Z</time>
      </trkpt>
      <trkpt lat="36.7505" lon="27.51158">
        <ele>6.596</ele>
        <time>2018-05-19T09:59:21Z</time>
      </trkpt>
      <trkpt lat="36.75049" lon="27.51165">
        <ele>8.559</ele>
        <time>2018-05-19T09:59:30Z</time>
      </trkpt>
      <trkpt lat="36.75048" lon="27.5117">
        <ele>8.934</ele>
        <time>2018-05-19T09:59:41Z</time>
      </trkpt>
      <trkpt lat="36.75046" lon="27.51177">
        <ele>9.177</ele>
        <time>2018-05-19T09:59:47Z</time>
      </trkpt>
      <trkpt lat="36.75045" lon="27.51183">
        <ele>8.274</ele>
        <time>2018-05-19T09:59:53Z</time>
      </trkpt>
      <trkpt lat="36.75043" lon="27.51188">
        <ele>8.931</ele>
        <time>2018-05-19T09:59:58Z</time>
      </trkpt>
      <trkpt lat="36.75041" lon="27.51194">
        <ele>6.672</ele>
        <time>2018-05-19T10:00:06Z</time>
      </trkpt>
      <trkpt lat="36.75042" lon="27.512">
        <ele>7.346</ele>
        <time>2018-05-19T10:00:17Z</time>
      </trkpt>
      <trkpt lat="36.75041" lon="27.51207">
        <ele>8.356</ele>
        <time>2018-05-19T10:00:24Z</time>
      </trkpt>
      <trkpt lat="36.75037" lon="27.5121">
        <ele>8.459</ele>
        <time>2018-05-19T10:00:28Z</time>
      </trkpt>
      <trkpt lat="36.75035" lon="27.51215">
        <ele>8.814</ele>
        <time>2018-05-19T10:00:35Z</time>
      </trkpt>
      <trkpt lat="36.75037" lon="27.5122">
        <ele>10.208</ele>
        <time>2018-05-19T10:00:45Z</time>
      </trkpt>
      <trkpt lat="36.75033" lon="27.51223">
        <ele>9.097</ele>
        <time>2018-05-19T10:00:51Z</time>
      </trkpt>
      <trkpt lat="36.75028" lon="27.51224">
        <ele>9.89</ele>
        <time>2018-05-19T10:01:03Z</time>
      </trkpt>
      <trkpt lat="36.75026" lon="27.51229">
        <ele>9.965</ele>
        <time>2018-05-19T10:01:13Z</time>
      </trkpt>
      <trkpt lat="36.75022" lon="27.51232">
        <ele>6.678</ele>
        <time>2018-05-19T10:01:20Z</time>
      </trkpt>
      <trkpt lat="36.75019" lon="27.51237">
        <ele>6.295</ele>
        <time>2018-05-19T10:01:38Z</time>
      </trkpt>
      <trkpt lat="36.75019" lon="27.51243">
        <ele>5.972</ele>
        <time>2018-05-19T10:01:47Z</time>
      </trkpt>
      <trkpt lat="36.75019" lon="27.51249">
        <ele>5.933</ele>
        <time>2018-05-19T10:02:25Z</time>
      </trkpt>
      <trkpt lat="36.75014" lon="27.51251">
        <ele>6.227</ele>
        <time>2018-05-19T10:02:31Z</time>
      </trkpt>
      <trkpt lat="36.75015" lon="27.51257">
        <ele>6.026</ele>
        <time>2018-05-19T10:02:41Z</time>
      </trkpt>
      <trkpt lat="36.75019" lon="27.51255">
        <ele>5.947</ele>
        <time>2018-05-19T10:02:53Z</time>
      </trkpt>
      <trkpt lat="36.75023" lon="27.51259">
        <ele>6.811</ele>
        <time>2018-05-19T10:02:59Z</time>
      </trkpt>
      <trkpt lat="36.75027" lon="27.51261">
        <ele>6.808</ele>
        <time>2018-05-19T10:03:03Z</time>
      </trkpt>
      <trkpt lat="36.75032" lon="27.51264">
        <ele>6.264</ele>
        <time>2018-05-19T10:03:16Z</time>
      </trkpt>
      <trkpt lat="36.75036" lon="27.51263">
        <ele>6.567</ele>
        <time>2018-05-19T10:03:24Z</time>
      </trkpt>
      <trkpt lat="36.75036" lon="27.51269">
        <ele>5.182</ele>
        <time>2018-05-19T10:03:42Z</time>
      </trkpt>
      <trkpt lat="36.75041" lon="27.5127">
        <ele>4.895</ele>
        <time>2018-05-19T10:03:50Z</time>
      </trkpt>
      <trkpt lat="36.75044" lon="27.51275">
        <ele>4.242</ele>
        <time>2018-05-19T10:03:58Z</time>
      </trkpt>
      <trkpt lat="36.75047" lon="27.5128">
        <ele>8.339</ele>
        <time>2018-05-19T10:04:08Z</time>
      </trkpt>
      <trkpt lat="36.7505" lon="27.51284">
        <ele>8.61</ele>
        <time>2018-05-19T10:04:13Z</time>
      </trkpt>
      <trkpt lat="36.75054" lon="27.51288">
        <ele>10.494</ele>
        <time>2018-05-19T10:04:30Z</time>
      </trkpt>
      <trkpt lat="36.75055" lon="27.51293">
        <ele>12.898</ele>
        <time>2018-05-19T10:04:36Z</time>
      </trkpt>
      <trkpt lat="36.75055" lon="27.51299">
        <ele>13.615</ele>
        <time>2018-05-19T10:04:46Z</time>
      </trkpt>
      <trkpt lat="36.75057" lon="27.51304">
        <ele>14.926</ele>
        <time>2018-05-19T10:04:55Z</time>
      </trkpt>
      <trkpt lat="36.75054" lon="27.51309">
        <ele>17.508</ele>
        <time>2018-05-19T10:05:03Z</time>
      </trkpt>
      <trkpt lat="36.75053" lon="27.51315">
        <ele>17.541</ele>
        <time>2018-05-19T10:05:13Z</time>
      </trkpt>
      <trkpt lat="36.75055" lon="27.5132">
        <ele>18.224</ele>
        <time>2018-05-19T10:05:20Z</time>
      </trkpt>
      <trkpt lat="36.75056" lon="27.51326">
        <ele>20.559</ele>
        <time>2018-05-19T10:05:30Z</time>
      </trkpt>
      <trkpt lat="36.7506" lon="27.51331">
        <ele>21.412</ele>
        <time>2018-05-19T10:05:37Z</time>
      </trkpt>
      <trkpt lat="36.75061" lon="27.51337">
        <ele>20.929</ele>
        <time>2018-05-19T10:05:43Z</time>
      </trkpt>
      <trkpt lat="36.75062" lon="27.51343">
        <ele>19.626</ele>
        <time>2018-05-19T10:05:49Z</time>
      </trkpt>
      <trkpt lat="36.75064" lon="27.51348">
        <ele>18.347</ele>
        <time>2018-05-19T10:05:56Z</time>
      </trkpt>
      <trkpt lat="36.75065" lon="27.51354">
        <ele>16.521</ele>
        <time>2018-05-19T10:06:05Z</time>
      </trkpt>
      <trkpt lat="36.75068" lon="27.51359">
        <ele>16.553</ele>
        <time>2018-05-19T10:06:11Z</time>
      </trkpt>
      <trkpt lat="36.7507" lon="27.51364">
        <ele>17.804</ele>
        <time>2018-05-19T10:06:19Z</time>
      </trkpt>
      <trkpt lat="36.75072" lon="27.51369">
        <ele>18.114</ele>
        <time>2018-05-19T10:06:24Z</time>
      </trkpt>
      <trkpt lat="36.75076" lon="27.51373">
        <ele>18.308</ele>
        <time>2018-05-19T10:06:29Z</time>
      </trkpt>
      <trkpt lat="36.7508" lon="27.51375">
        <ele>19.117</ele>
        <time>2018-05-19T10:06:33Z</time>
      </trkpt>
      <trkpt lat="36.75083" lon="27.5138">
        <ele>18.79</ele>
        <time>2018-05-19T10:06:41Z</time>
      </trkpt>
      <trkpt lat="36.75083" lon="27.51386">
        <ele>17.445</ele>
        <time>2018-05-19T10:06:46Z</time>
      </trkpt>
      <trkpt lat="36.75083" lon="27.51392">
        <ele>17.438</ele>
        <time>2018-05-19T10:06:55Z</time>
      </trkpt>
      <trkpt lat="36.75085" lon="27.51398">
        <ele>18.185</ele>
        <time>2018-05-19T10:07:06Z</time>
      </trkpt>
      <trkpt lat="36.75087" lon="27.51403">
        <ele>18.862</ele>
        <time>2018-05-19T10:07:16Z</time>
      </trkpt>
      <trkpt lat="36.75088" lon="27.51409">
        <ele>19.393</ele>
        <time>2018-05-19T10:07:27Z</time>
      </trkpt>
      <trkpt lat="36.75088" lon="27.51415">
        <ele>21.287</ele>
        <time>2018-05-19T10:07:33Z</time>
      </trkpt>
      <trkpt lat="36.75089" lon="27.51421">
        <ele>21.984</ele>
        <time>2018-05-19T10:07:40Z</time>
      </trkpt>
      <trkpt lat="36.75088" lon="27.51427">
        <ele>23.207</ele>
        <time>2018-05-19T10:07:47Z</time>
      </trkpt>
      <trkpt lat="36.75087" lon="27.51432">
        <ele>24.117</ele>
        <time>2018-05-19T10:07:53Z</time>
      </trkpt>
      <trkpt lat="36.75088" lon="27.51438">
        <ele>24.408</ele>
        <time>2018-05-19T10:07:59Z</time>
      </trkpt>
      <trkpt lat="36.75091" lon="27.51443">
        <ele>24.01</ele>
        <time>2018-05-19T10:08:09Z</time>
      </trkpt>
      <trkpt lat="36.75091" lon="27.51449">
        <ele>26.193</ele>
        <time>2018-05-19T10:08:18Z</time>
      </trkpt>
      <trkpt lat="36.7509" lon="27.51454">
        <ele>24.788</ele>
        <time>2018-05-19T10:08:23Z</time>
      </trkpt>
      <trkpt lat="36.7509" lon="27.51461">
        <ele>26.381</ele>
        <time>2018-05-19T10:08:30Z</time>
      </trkpt>
      <trkpt lat="36.75089" lon="27.51467">
        <ele>26.388</ele>
        <time>2018-05-19T10:08:38Z</time>
      </trkpt>
      <trkpt lat="36.75085" lon="27.51469">
        <ele>25.845</ele>
        <time>2018-05-19T10:08:43Z</time>
      </trkpt>
      <trkpt lat="36.75081" lon="27.51472">
        <ele>25.626</ele>
        <time>2018-05-19T10:08:47Z</time>
      </trkpt>
      <trkpt lat="36.75081" lon="27.51478">
        <ele>25.01</ele>
        <time>2018-05-19T10:08:56Z</time>
      </trkpt>
      <trkpt lat="36.75082" lon="27.51484">
        <ele>26.734</ele>
        <time>2018-05-19T10:09:05Z</time>
      </trkpt>
      <trkpt lat="36.75078" lon="27.51488">
        <ele>27.655</ele>
        <time>2018-05-19T10:09:12Z</time>
      </trkpt>
      <trkpt lat="36.75076" lon="27.51494">
        <ele>28.51</ele>
        <time>2018-05-19T10:09:19Z</time>
      </trkpt>
      <trkpt lat="36.75074" lon="27.51499">
        <ele>27.908</ele>
        <time>2018-05-19T10:09:26Z</time>
      </trkpt>
      <trkpt lat="36.75078" lon="27.51503">
        <ele>28.345</ele>
        <time>2018-05-19T10:09:33Z</time>
      </trkpt>
      <trkpt lat="36.75076" lon="27.51508">
        <ele>28.828</ele>
        <time>2018-05-19T10:09:41Z</time>
      </trkpt>
      <trkpt lat="36.75072" lon="27.51511">
        <ele>27.773</ele>
        <time>2018-05-19T10:09:48Z</time>
      </trkpt>
      <trkpt lat="36.75069" lon="27.51516">
        <ele>27.766</ele>
        <time>2018-05-19T10:09:54Z</time>
      </trkpt>
      <trkpt lat="36.75065" lon="27.51519">
        <ele>27.783</ele>
        <time>2018-05-19T10:10:00Z</time>
      </trkpt>
      <trkpt lat="36.7506" lon="27.51522">
        <ele>27.32</ele>
        <time>2018-05-19T10:10:06Z</time>
      </trkpt>
      <trkpt lat="36.75056" lon="27.51526">
        <ele>26.861</ele>
        <time>2018-05-19T10:10:18Z</time>
      </trkpt>
      <trkpt lat="36.75054" lon="27.51531">
        <ele>26.425</ele>
        <time>2018-05-19T10:10:27Z</time>
      </trkpt>
      <trkpt lat="36.75052" lon="27.51537">
        <ele>25.271</ele>
        <time>2018-05-19T10:10:36Z</time>
      </trkpt>
      <trkpt lat="36.7505" lon="27.51542">
        <ele>24.441</ele>
        <time>2018-05-19T10:10:45Z</time>
      </trkpt>
      <trkpt lat="36.75046" lon="27.51541">
        <ele>21.815</ele>
        <time>2018-05-19T10:13:55Z</time>
      </trkpt>
      <trkpt lat="36.75042" lon="27.51546">
        <ele>20.908</ele>
        <time>2018-05-19T10:14:03Z</time>
      </trkpt>
      <trkpt lat="36.75038" lon="27.51547">
        <ele>20.649</ele>
        <time>2018-05-19T10:14:08Z</time>
      </trkpt>
      <trkpt lat="36.75033" lon="27.5155">
        <ele>19.992</ele>
        <time>2018-05-19T10:14:17Z</time>
      </trkpt>
      <trkpt lat="36.7503" lon="27.51555">
        <ele>18.047</ele>
        <time>2018-05-19T10:14:26Z</time>
      </trkpt>
      <trkpt lat="36.75032" lon="27.5156">
        <ele>15.46</ele>
        <time>2018-05-19T10:14:37Z</time>
      </trkpt>
      <trkpt lat="36.75034" lon="27.51566">
        <ele>15.567</ele>
        <time>2018-05-19T10:14:44Z</time>
      </trkpt>
      <trkpt lat="36.75031" lon="27.51571">
        <ele>15.614</ele>
        <time>2018-05-19T10:14:49Z</time>
      </trkpt>
      <trkpt lat="36.75031" lon="27.51577">
        <ele>13.215</ele>
        <time>2018-05-19T10:14:57Z</time>
      </trkpt>
      <trkpt lat="36.75034" lon="27.51581">
        <ele>12.759</ele>
        <time>2018-05-19T10:15:03Z</time>
      </trkpt>
      <trkpt lat="36.75038" lon="27.51585">
        <ele>12.697</ele>
        <time>2018-05-19T10:15:09Z</time>
      </trkpt>
      <trkpt lat="36.75038" lon="27.51591">
        <ele>13.023</ele>
        <time>2018-05-19T10:15:12Z</time>
      </trkpt>
      <trkpt lat="36.75043" lon="27.51591">
        <ele>13.625</ele>
        <time>2018-05-19T10:15:19Z</time>
      </trkpt>
      <trkpt lat="36.75047" lon="27.51595">
        <ele>10.508</ele>
        <time>2018-05-19T10:15:26Z</time>
      </trkpt>
      <trkpt lat="36.75047" lon="27.51602">
        <ele>9.041</ele>
        <time>2018-05-19T10:15:32Z</time>
      </trkpt>
      <trkpt lat="36.75042" lon="27.51601">
        <ele>10.764</ele>
        <time>2018-05-19T10:16:09Z</time>
      </trkpt>
      <trkpt lat="36.75041" lon="27.51596">
        <ele>11.559</ele>
        <time>2018-05-19T10:16:12Z</time>
      </trkpt>
      <trkpt lat="36.75043" lon="27.51602">
        <ele>10.032</ele>
        <time>2018-05-19T10:16:25Z</time>
      </trkpt>
      <trkpt lat="36.75046" lon="27.51606">
        <ele>9.689</ele>
        <time>2018-05-19T10:16:31Z</time>
      </trkpt>
      <trkpt lat="36.7505" lon="27.51609">
        <ele>9.636</ele>
        <time>2018-05-19T10:16:38Z</time>
      </trkpt>
      <trkpt lat="36.75054" lon="27.51611">
        <ele>8.797</ele>
        <time>2018-05-19T10:16:49Z</time>
      </trkpt>
      <trkpt lat="36.7506" lon="27.51616">
        <ele>8.371</ele>
        <time>2018-05-19T10:16:54Z</time>
      </trkpt>
      <trkpt lat="36.75065" lon="27.51614">
        <ele>6.661</ele>
        <time>2018-05-19T10:17:15Z</time>
      </trkpt>
      <trkpt lat="36.7507" lon="27.51614">
        <ele>6.521</ele>
        <time>2018-05-19T10:17:27Z</time>
      </trkpt>
      <trkpt lat="36.75074" lon="27.51616">
        <ele>6.313</ele>
        <time>2018-05-19T10:17:35Z</time>
      </trkpt>
      <trkpt lat="36.75078" lon="27.51618">
        <ele>6.108</ele>
        <time>2018-05-19T10:17:42Z</time>
      </trkpt>
      <trkpt lat="36.75083" lon="27.51616">
        <ele>6.738</ele>
        <time>2018-05-19T10:17:51Z</time>
      </trkpt>
      <trkpt lat="36.75087" lon="27.51618">
        <ele>6.871</ele>
        <time>2018-05-19T10:18:00Z</time>
      </trkpt>
      <trkpt lat="36.7509" lon="27.51622">
        <ele>3.756</ele>
        <time>2018-05-19T10:18:05Z</time>
      </trkpt>
      <trkpt lat="36.75092" lon="27.51628">
        <ele>3.879</ele>
        <time>2018-05-19T10:18:13Z</time>
      </trkpt>
      <trkpt lat="36.75097" lon="27.5163">
        <ele>5.096</ele>
        <time>2018-05-19T10:18:20Z</time>
      </trkpt>
      <trkpt lat="36.75098" lon="27.51635">
        <ele>5.143</ele>
        <time>2018-05-19T10:18:30Z</time>
      </trkpt>
      <trkpt lat="36.75098" lon="27.51641">
        <ele>3.114</ele>
        <time>2018-05-19T10:18:41Z</time>
      </trkpt>
      <trkpt lat="36.75102" lon="27.51646">
        <ele>5.158</ele>
        <time>2018-05-19T10:18:48Z</time>
      </trkpt>
      <trkpt lat="36.75105" lon="27.51652">
        <ele>7.138</ele>
        <time>2018-05-19T10:18:55Z</time>
      </trkpt>
      <trkpt lat="36.75108" lon="27.51656">
        <ele>7.07</ele>
        <time>2018-05-19T10:19:04Z</time>
      </trkpt>
      <trkpt lat="36.75112" lon="27.51652">
        <ele>6.217</ele>
        <time>2018-05-19T10:19:11Z</time>
      </trkpt>
      <trkpt lat="36.75117" lon="27.5165">
        <ele>6.608</ele>
        <time>2018-05-19T10:19:17Z</time>
      </trkpt>
      <trkpt lat="36.75121" lon="27.51653">
        <ele>5.845</ele>
        <time>2018-05-19T10:19:24Z</time>
      </trkpt>
      <trkpt lat="36.75126" lon="27.51653">
        <ele>5.778</ele>
        <time>2018-05-19T10:19:31Z</time>
      </trkpt>
      <trkpt lat="36.75131" lon="27.51655">
        <ele>5.273</ele>
        <time>2018-05-19T10:19:37Z</time>
      </trkpt>
      <trkpt lat="36.75133" lon="27.5166">
        <ele>5.446</ele>
        <time>2018-05-19T10:19:44Z</time>
      </trkpt>
      <trkpt lat="36.75137" lon="27.51663">
        <ele>3.813</ele>
        <time>2018-05-19T10:19:52Z</time>
      </trkpt>
      <trkpt lat="36.75138" lon="27.51668">
        <ele>5.21</ele>
        <time>2018-05-19T10:20:01Z</time>
      </trkpt>
      <trkpt lat="36.7514" lon="27.51674">
        <ele>6.721</ele>
        <time>2018-05-19T10:20:11Z</time>
      </trkpt>
      <trkpt lat="36.75142" lon="27.5168">
        <ele>6.345</ele>
        <time>2018-05-19T10:20:18Z</time>
      </trkpt>
      <trkpt lat="36.7514" lon="27.51685">
        <ele>5.778</ele>
        <time>2018-05-19T10:20:30Z</time>
      </trkpt>
      <trkpt lat="36.75139" lon="27.51691">
        <ele>7.033</ele>
        <time>2018-05-19T10:20:37Z</time>
      </trkpt>
      <trkpt lat="36.75143" lon="27.51694">
        <ele>8.526</ele>
        <time>2018-05-19T10:20:42Z</time>
      </trkpt>
      <trkpt lat="36.75145" lon="27.517">
        <ele>10.208</ele>
        <time>2018-05-19T10:20:51Z</time>
      </trkpt>
      <trkpt lat="36.75143" lon="27.51706">
        <ele>9.819</ele>
        <time>2018-05-19T10:20:55Z</time>
      </trkpt>
      <trkpt lat="36.75139" lon="27.5171">
        <ele>8.852</ele>
        <time>2018-05-19T10:21:01Z</time>
      </trkpt>
      <trkpt lat="36.75135" lon="27.51714">
        <ele>7.967</ele>
        <time>2018-05-19T10:21:06Z</time>
      </trkpt>
      <trkpt lat="36.75134" lon="27.51719">
        <ele>7.89</ele>
        <time>2018-05-19T10:21:15Z</time>
      </trkpt>
      <trkpt lat="36.75137" lon="27.51723">
        <ele>9.077</ele>
        <time>2018-05-19T10:21:24Z</time>
      </trkpt>
      <trkpt lat="36.75139" lon="27.51728">
        <ele>7.914</ele>
        <time>2018-05-19T10:21:37Z</time>
      </trkpt>
      <trkpt lat="36.75144" lon="27.51731">
        <ele>8.025</ele>
        <time>2018-05-19T10:21:44Z</time>
      </trkpt>
      <trkpt lat="36.75144" lon="27.51738">
        <ele>8.669</ele>
        <time>2018-05-19T10:21:50Z</time>
      </trkpt>
      <trkpt lat="36.75143" lon="27.51744">
        <ele>8.617</ele>
        <time>2018-05-19T10:21:54Z</time>
      </trkpt>
      <trkpt lat="36.75147" lon="27.51747">
        <ele>9.387</ele>
        <time>2018-05-19T10:22:00Z</time>
      </trkpt>
      <trkpt lat="36.75149" lon="27.51752">
        <ele>10.515</ele>
        <time>2018-05-19T10:22:08Z</time>
      </trkpt>
      <trkpt lat="36.7515" lon="27.51758">
        <ele>9.508</ele>
        <time>2018-05-19T10:22:18Z</time>
      </trkpt>
      <trkpt lat="36.7515" lon="27.51764">
        <ele>8.293</ele>
        <time>2018-05-19T10:22:23Z</time>
      </trkpt>
      <trkpt lat="36.75148" lon="27.5177">
        <ele>8.676</ele>
        <time>2018-05-19T10:22:28Z</time>
      </trkpt>
      <trkpt lat="36.75152" lon="27.51773">
        <ele>8.881</ele>
        <time>2018-05-19T10:22:34Z</time>
      </trkpt>
      <trkpt lat="36.75153" lon="27.51779">
        <ele>8.784</ele>
        <time>2018-05-19T10:22:44Z</time>
      </trkpt>
      <trkpt lat="36.75155" lon="27.51784">
        <ele>10.261</ele>
        <time>2018-05-19T10:22:54Z</time>
      </trkpt>
      <trkpt lat="36.75157" lon="27.51789">
        <ele>10.288</ele>
        <time>2018-05-19T10:23:03Z</time>
      </trkpt>
      <trkpt lat="36.75156" lon="27.51794">
        <ele>9.469</ele>
        <time>2018-05-19T10:23:09Z</time>
      </trkpt>
      <trkpt lat="36.75156" lon="27.518">
        <ele>8.663</ele>
        <time>2018-05-19T10:23:15Z</time>
      </trkpt>
      <trkpt lat="36.75157" lon="27.51806">
        <ele>9.281</ele>
        <time>2018-05-19T10:23:21Z</time>
      </trkpt>
      <trkpt lat="36.7516" lon="27.5181">
        <ele>9.461</ele>
        <time>2018-05-19T10:23:27Z</time>
      </trkpt>
      <trkpt lat="36.75164" lon="27.51815">
        <ele>8.817</ele>
        <time>2018-05-19T10:23:34Z</time>
      </trkpt>
      <trkpt lat="36.75168" lon="27.51818">
        <ele>9.008</ele>
        <time>2018-05-19T10:23:40Z</time>
      </trkpt>
      <trkpt lat="36.75171" lon="27.51822">
        <ele>10.28</ele>
        <time>2018-05-19T10:23:46Z</time>
      </trkpt>
      <trkpt lat="36.75173" lon="27.51828">
        <ele>9.693</ele>
        <time>2018-05-19T10:23:53Z</time>
      </trkpt>
      <trkpt lat="36.75175" lon="27.51833">
        <ele>10.358</ele>
        <time>2018-05-19T10:24:01Z</time>
      </trkpt>
      <trkpt lat="36.75176" lon="27.51839">
        <ele>10.561</ele>
        <time>2018-05-19T10:24:09Z</time>
      </trkpt>
      <trkpt lat="36.75178" lon="27.51845">
        <ele>10.658</ele>
        <time>2018-05-19T10:24:15Z</time>
      </trkpt>
      <trkpt lat="36.75179" lon="27.51851">
        <ele>11.145</ele>
        <time>2018-05-19T10:24:22Z</time>
      </trkpt>
      <trkpt lat="36.75178" lon="27.51857">
        <ele>10.356</ele>
        <time>2018-05-19T10:24:28Z</time>
      </trkpt>
      <trkpt lat="36.75177" lon="27.51863">
        <ele>8.83</ele>
        <time>2018-05-19T10:24:37Z</time>
      </trkpt>
      <trkpt lat="36.75174" lon="27.51867">
        <ele>8.567</ele>
        <time>2018-05-19T10:24:44Z</time>
      </trkpt>
      <trkpt lat="36.7517" lon="27.51871">
        <ele>9.381</ele>
        <time>2018-05-19T10:24:51Z</time>
      </trkpt>
      <trkpt lat="36.75167" lon="27.51875">
        <ele>9.019</ele>
        <time>2018-05-19T10:25:06Z</time>
      </trkpt>
      <trkpt lat="36.75162" lon="27.51877">
        <ele>8.708</ele>
        <time>2018-05-19T10:25:29Z</time>
      </trkpt>
      <trkpt lat="36.75158" lon="27.5188">
        <ele>7.798</ele>
        <time>2018-05-19T10:25:32Z</time>
      </trkpt>
      <trkpt lat="36.75158" lon="27.51886">
        <ele>9.361</ele>
        <time>2018-05-19T10:26:10Z</time>
      </trkpt>
      <trkpt lat="36.75159" lon="27.51892">
        <ele>10.646</ele>
        <time>2018-05-19T10:26:29Z</time>
      </trkpt>
      <trkpt lat="36.75161" lon="27.51897">
        <ele>11.359</ele>
        <time>2018-05-19T10:26:39Z</time>
      </trkpt>
      <trkpt lat="36.75164" lon="27.51902">
        <ele>11.276</ele>
        <time>2018-05-19T10:26:47Z</time>
      </trkpt>
      <trkpt lat="36.75165" lon="27.51908">
        <ele>10.393</ele>
        <time>2018-05-19T10:26:56Z</time>
      </trkpt>
      <trkpt lat="36.75163" lon="27.51913">
        <ele>9.114</ele>
        <time>2018-05-19T10:27:00Z</time>
      </trkpt>
      <trkpt lat="36.75163" lon="27.51919">
        <ele>10.628</ele>
        <time>2018-05-19T10:27:12Z</time>
      </trkpt>
      <trkpt lat="36.75164" lon="27.51925">
        <ele>9.215</ele>
        <time>2018-05-19T10:27:18Z</time>
      </trkpt>
      <trkpt lat="36.75167" lon="27.5193">
        <ele>9.365</ele>
        <time>2018-05-19T10:27:33Z</time>
      </trkpt>
      <trkpt lat="36.75165" lon="27.51936">
        <ele>10.611</ele>
        <time>2018-05-19T10:27:39Z</time>
      </trkpt>
      <trkpt lat="36.75165" lon="27.51942">
        <ele>10.208</ele>
        <time>2018-05-19T10:27:43Z</time>
      </trkpt>
      <trkpt lat="36.75162" lon="27.51947">
        <ele>9.143</ele>
        <time>2018-05-19T10:27:49Z</time>
      </trkpt>
      <trkpt lat="36.7516" lon="27.51953">
        <ele>7.476</ele>
        <time>2018-05-19T10:27:56Z</time>
      </trkpt>
      <trkpt lat="36.75158" lon="27.51959">
        <ele>8.511</ele>
        <time>2018-05-19T10:28:04Z</time>
      </trkpt>
      <trkpt lat="36.75158" lon="27.51965">
        <ele>9.514</ele>
        <time>2018-05-19T10:28:10Z</time>
      </trkpt>
      <trkpt lat="36.75158" lon="27.51971">
        <ele>11.361</ele>
        <time>2018-05-19T10:28:20Z</time>
      </trkpt>
      <trkpt lat="36.75156" lon="27.51977">
        <ele>12.128</ele>
        <time>2018-05-19T10:28:28Z</time>
      </trkpt>
      <trkpt lat="36.75155" lon="27.51983">
        <ele>14.599</ele>
        <time>2018-05-19T10:28:40Z</time>
      </trkpt>
      <trkpt lat="36.75153" lon="27.51989">
        <ele>15.073</ele>
        <time>2018-05-19T10:28:46Z</time>
      </trkpt>
      <trkpt lat="36.75149" lon="27.51992">
        <ele>15.484</ele>
        <time>2018-05-19T10:28:52Z</time>
      </trkpt>
      <trkpt lat="36.75149" lon="27.51999">
        <ele>15.807</ele>
        <time>2018-05-19T10:29:03Z</time>
      </trkpt>
      <trkpt lat="36.75151" lon="27.52004">
        <ele>17.117</ele>
        <time>2018-05-19T10:29:13Z</time>
      </trkpt>
      <trkpt lat="36.75151" lon="27.5201">
        <ele>17.208</ele>
        <time>2018-05-19T10:29:23Z</time>
      </trkpt>
      <trkpt lat="36.75153" lon="27.52016">
        <ele>19.55</ele>
        <time>2018-05-19T10:29:32Z</time>
      </trkpt>
      <trkpt lat="36.75149" lon="27.52017">
        <ele>16.813</ele>
        <time>2018-05-19T10:30:13Z</time>
      </trkpt>
      <trkpt lat="36.75145" lon="27.5202">
        <ele>16.938</ele>
        <time>2018-05-19T10:30:26Z</time>
      </trkpt>
      <trkpt lat="36.7515" lon="27.52023">
        <ele>17.831</ele>
        <time>2018-05-19T10:30:35Z</time>
      </trkpt>
      <trkpt lat="36.75149" lon="27.52029">
        <ele>17.688</ele>
        <time>2018-05-19T10:30:44Z</time>
      </trkpt>
      <trkpt lat="36.75146" lon="27.52033">
        <ele>18.035</ele>
        <time>2018-05-19T10:30:52Z</time>
      </trkpt>
      <trkpt lat="36.75146" lon="27.52039">
        <ele>18.326</ele>
        <time>2018-05-19T10:30:58Z</time>
      </trkpt>
      <trkpt lat="36.75142" lon="27.52043">
        <ele>17.89</ele>
        <time>2018-05-19T10:31:05Z</time>
      </trkpt>
      <trkpt lat="36.75132" lon="27.52063">
        <ele>10.348</ele>
        <time>2018-05-19T11:44:16Z</time>
      </trkpt>
      <trkpt lat="36.75134" lon="27.52069">
        <ele>10.983</ele>
        <time>2018-05-19T11:44:17Z</time>
      </trkpt>
      <trkpt lat="36.75136" lon="27.52074">
        <ele>10.126</ele>
        <time>2018-05-19T11:44:19Z</time>
      </trkpt>
      <trkpt lat="36.75141" lon="27.52077">
        <ele>11.083</ele>
        <time>2018-05-19T11:44:28Z</time>
      </trkpt>
      <trkpt lat="36.75136" lon="27.52074">
        <ele>10.03</ele>
        <time>2018-05-19T11:44:36Z</time>
      </trkpt>
      <trkpt lat="36.75119" lon="27.52066">
        <ele>9.581</ele>
        <time>2018-05-19T11:44:51Z</time>
      </trkpt>
      <trkpt lat="36.75112" lon="27.52062">
        <ele>9.915</ele>
        <time>2018-05-19T11:44:52Z</time>
      </trkpt>
      <trkpt lat="36.7511" lon="27.52057">
        <ele>11.082</ele>
        <time>2018-05-19T11:44:54Z</time>
      </trkpt>
      <trkpt lat="36.75076" lon="27.5208">
        <ele>32.308</ele>
        <time>2018-05-19T11:47:08Z</time>
      </trkpt>
      <trkpt lat="36.75072" lon="27.52082">
        <ele>20.555</ele>
        <time>2018-05-19T11:47:13Z</time>
      </trkpt>
      <trkpt lat="36.75073" lon="27.52088">
        <ele>25.928</ele>
        <time>2018-05-19T11:47:22Z</time>
      </trkpt>
      <trkpt lat="36.75069" lon="27.52092">
        <ele>31.763</ele>
        <time>2018-05-19T11:47:28Z</time>
      </trkpt>
      <trkpt lat="36.75065" lon="27.52095">
        <ele>28.286</ele>
        <time>2018-05-19T11:47:38Z</time>
      </trkpt>
      <trkpt lat="36.75061" lon="27.52098">
        <ele>35.653</ele>
        <time>2018-05-19T11:48:01Z</time>
      </trkpt>
      <trkpt lat="36.75056" lon="27.52101">
        <ele>36.23</ele>
        <time>2018-05-19T11:48:11Z</time>
      </trkpt>
      <trkpt lat="36.7505" lon="27.52102">
        <ele>36.821</ele>
        <time>2018-05-19T11:48:16Z</time>
      </trkpt>
      <trkpt lat="36.75045" lon="27.52102">
        <ele>42.765</ele>
        <time>2018-05-19T11:48:22Z</time>
      </trkpt>
      <trkpt lat="36.75041" lon="27.52097">
        <ele>41.185</ele>
        <time>2018-05-19T11:48:35Z</time>
      </trkpt>
      <trkpt lat="36.75036" lon="27.52096">
        <ele>38.189</ele>
        <time>2018-05-19T11:48:38Z</time>
      </trkpt>
      <trkpt lat="36.75032" lon="27.52099">
        <ele>41.117</ele>
        <time>2018-05-19T11:48:42Z</time>
      </trkpt>
      <trkpt lat="36.75032" lon="27.52105">
        <ele>39.308</ele>
        <time>2018-05-19T11:48:45Z</time>
      </trkpt>
      <trkpt lat="36.75029" lon="27.52109">
        <ele>37.99</ele>
        <time>2018-05-19T11:48:51Z</time>
      </trkpt>
      <trkpt lat="36.75025" lon="27.52113">
        <ele>42.483</ele>
        <time>2018-05-19T11:48:58Z</time>
      </trkpt>
      <trkpt lat="36.75022" lon="27.52109">
        <ele>40.878</ele>
        <time>2018-05-19T11:49:07Z</time>
      </trkpt>
      <trkpt lat="36.75017" lon="27.52109">
        <ele>40.031</ele>
        <time>2018-05-19T11:49:15Z</time>
      </trkpt>
      <trkpt lat="36.75015" lon="27.52115">
        <ele>43.398</ele>
        <time>2018-05-19T11:49:23Z</time>
      </trkpt>
      <trkpt lat="36.75016" lon="27.52121">
        <ele>41.365</ele>
        <time>2018-05-19T11:49:28Z</time>
      </trkpt>
      <trkpt lat="36.75011" lon="27.52122">
        <ele>37.166</ele>
        <time>2018-05-19T11:49:36Z</time>
      </trkpt>
      <trkpt lat="36.75005" lon="27.52121">
        <ele>37.34</ele>
        <time>2018-05-19T11:49:43Z</time>
      </trkpt>
      <trkpt lat="36.75" lon="27.52124">
        <ele>40.819</ele>
        <time>2018-05-19T11:49:48Z</time>
      </trkpt>
      <trkpt lat="36.74995" lon="27.52126">
        <ele>39.909</ele>
        <time>2018-05-19T11:49:51Z</time>
      </trkpt>
      <trkpt lat="36.74991" lon="27.5213">
        <ele>40.319</ele>
        <time>2018-05-19T11:49:55Z</time>
      </trkpt>
      <trkpt lat="36.74996" lon="27.52134">
        <ele>33.008</ele>
        <time>2018-05-19T11:50:04Z</time>
      </trkpt>
      <trkpt lat="36.74994" lon="27.52129">
        <ele>45.443</ele>
        <time>2018-05-19T11:50:18Z</time>
      </trkpt>
      <trkpt lat="36.74989" lon="27.52131">
        <ele>44.336</ele>
        <time>2018-05-19T11:50:24Z</time>
      </trkpt>
      <trkpt lat="36.74985" lon="27.52131">
        <ele>46.241</ele>
        <time>2018-05-19T11:50:26Z</time>
      </trkpt>
      <trkpt lat="36.7498" lon="27.52129">
        <ele>49.794</ele>
        <time>2018-05-19T11:50:29Z</time>
      </trkpt>
      <trkpt lat="36.74982" lon="27.52134">
        <ele>49.471</ele>
        <time>2018-05-19T11:50:42Z</time>
      </trkpt>
      <trkpt lat="36.74984" lon="27.5214">
        <ele>56.248</ele>
        <time>2018-05-19T11:50:47Z</time>
      </trkpt>
      <trkpt lat="36.74986" lon="27.52146">
        <ele>52.729</ele>
        <time>2018-05-19T11:50:50Z</time>
      </trkpt>
      <trkpt lat="36.74987" lon="27.52152">
        <ele>52.683</ele>
        <time>2018-05-19T11:50:54Z</time>
      </trkpt>
      <trkpt lat="36.74984" lon="27.52148">
        <ele>48.772</ele>
        <time>2018-05-19T11:51:06Z</time>
      </trkpt>
      <trkpt lat="36.7498" lon="27.52153">
        <ele>50.613</ele>
        <time>2018-05-19T11:51:12Z</time>
      </trkpt>
      <trkpt lat="36.74977" lon="27.52158">
        <ele>51.114</ele>
        <time>2018-05-19T11:51:18Z</time>
      </trkpt>
      <trkpt lat="36.74977" lon="27.52164">
        <ele>52.008</ele>
        <time>2018-05-19T11:51:23Z</time>
      </trkpt>
      <trkpt lat="36.74978" lon="27.5217">
        <ele>53.519</ele>
        <time>2018-05-19T11:51:27Z</time>
      </trkpt>
      <trkpt lat="36.7498" lon="27.52176">
        <ele>47.972</ele>
        <time>2018-05-19T11:51:33Z</time>
      </trkpt>
      <trkpt lat="36.74984" lon="27.52181">
        <ele>51.977</ele>
        <time>2018-05-19T11:51:36Z</time>
      </trkpt>
      <trkpt lat="36.74989" lon="27.52178">
        <ele>52.69</ele>
        <time>2018-05-19T11:51:41Z</time>
      </trkpt>
      <trkpt lat="36.74994" lon="27.52177">
        <ele>50.347</ele>
        <time>2018-05-19T11:51:45Z</time>
      </trkpt>
      <trkpt lat="36.74999" lon="27.52176">
        <ele>45.234</ele>
        <time>2018-05-19T11:51:49Z</time>
      </trkpt>
      <trkpt lat="36.75003" lon="27.52178">
        <ele>46.545</ele>
        <time>2018-05-19T11:51:54Z</time>
      </trkpt>
      <trkpt lat="36.75008" lon="27.52181">
        <ele>46.229</ele>
        <time>2018-05-19T11:52:01Z</time>
      </trkpt>
      <trkpt lat="36.75011" lon="27.52186">
        <ele>47.612</ele>
        <time>2018-05-19T11:52:31Z</time>
      </trkpt>
      <trkpt lat="36.75013" lon="27.52191">
        <ele>53.332</ele>
        <time>2018-05-19T11:52:37Z</time>
      </trkpt>
      <trkpt lat="36.75016" lon="27.52197">
        <ele>56.005</ele>
        <time>2018-05-19T11:52:44Z</time>
      </trkpt>
      <trkpt lat="36.7502" lon="27.52203">
        <ele>55.208</ele>
        <time>2018-05-19T11:52:58Z</time>
      </trkpt>
      <trkpt lat="36.75025" lon="27.52205">
        <ele>55.833</ele>
        <time>2018-05-19T11:53:02Z</time>
      </trkpt>
      <trkpt lat="36.75028" lon="27.52201">
        <ele>53.316</ele>
        <time>2018-05-19T11:53:11Z</time>
      </trkpt>
      <trkpt lat="36.75031" lon="27.52196">
        <ele>51.141</ele>
        <time>2018-05-19T11:53:14Z</time>
      </trkpt>
      <trkpt lat="36.75035" lon="27.52193">
        <ele>53.634</ele>
        <time>2018-05-19T11:53:19Z</time>
      </trkpt>
      <trkpt lat="36.75032" lon="27.52187">
        <ele>55.631</ele>
        <time>2018-05-19T11:53:23Z</time>
      </trkpt>
      <trkpt lat="36.75027" lon="27.52183">
        <ele>54.588</ele>
        <time>2018-05-19T11:53:25Z</time>
      </trkpt>
      <trkpt lat="36.75031" lon="27.52179">
        <ele>53.069</ele>
        <time>2018-05-19T11:53:35Z</time>
      </trkpt>
      <trkpt lat="36.75031" lon="27.52185">
        <ele>58.573</ele>
        <time>2018-05-19T11:53:49Z</time>
      </trkpt>
      <trkpt lat="36.75036" lon="27.52184">
        <ele>58.517</ele>
        <time>2018-05-19T11:54:43Z</time>
      </trkpt>
      <trkpt lat="36.7504" lon="27.52188">
        <ele>59.287</ele>
        <time>2018-05-19T11:54:45Z</time>
      </trkpt>
      <trkpt lat="36.75039" lon="27.52182">
        <ele>67.415</ele>
        <time>2018-05-19T11:54:57Z</time>
      </trkpt>
      <trkpt lat="36.75035" lon="27.52178">
        <ele>65.708</ele>
        <time>2018-05-19T11:55:03Z</time>
      </trkpt>
      <trkpt lat="36.75034" lon="27.52171">
        <ele>65.083</ele>
        <time>2018-05-19T11:55:11Z</time>
      </trkpt>
      <trkpt lat="36.75031" lon="27.52167">
        <ele>63.016</ele>
        <time>2018-05-19T11:55:18Z</time>
      </trkpt>
      <trkpt lat="36.75028" lon="27.52162">
        <ele>62.151</ele>
        <time>2018-05-19T11:55:24Z</time>
      </trkpt>
      <trkpt lat="36.75026" lon="27.52157">
        <ele>60.874</ele>
        <time>2018-05-19T11:55:29Z</time>
      </trkpt>
      <trkpt lat="36.75023" lon="27.52152">
        <ele>60.861</ele>
        <time>2018-05-19T11:55:34Z</time>
      </trkpt>
      <trkpt lat="36.75028" lon="27.52148">
        <ele>61.438</ele>
        <time>2018-05-19T11:55:44Z</time>
      </trkpt>
      <trkpt lat="36.75032" lon="27.52149">
        <ele>61.429</ele>
        <time>2018-05-19T11:55:52Z</time>
      </trkpt>
      <trkpt lat="36.75037" lon="27.52149">
        <ele>61.143</ele>
        <time>2018-05-19T11:55:58Z</time>
      </trkpt>
      <trkpt lat="36.75042" lon="27.52149">
        <ele>61.815</ele>
        <time>2018-05-19T11:56:04Z</time>
      </trkpt>
      <trkpt lat="36.75047" lon="27.52149">
        <ele>63.665</ele>
        <time>2018-05-19T11:56:13Z</time>
      </trkpt>
      <trkpt lat="36.75047" lon="27.52155">
        <ele>65.011</ele>
        <time>2018-05-19T11:56:21Z</time>
      </trkpt>
      <trkpt lat="36.75049" lon="27.5216">
        <ele>65.208</ele>
        <time>2018-05-19T11:56:30Z</time>
      </trkpt>
      <trkpt lat="36.75051" lon="27.52166">
        <ele>66.063</ele>
        <time>2018-05-19T11:56:36Z</time>
      </trkpt>
      <trkpt lat="36.75053" lon="27.52172">
        <ele>65.016</ele>
        <time>2018-05-19T11:56:43Z</time>
      </trkpt>
      <trkpt lat="36.75052" lon="27.52178">
        <ele>65.851</ele>
        <time>2018-05-19T11:56:52Z</time>
      </trkpt>
      <trkpt lat="36.75056" lon="27.52182">
        <ele>65.624</ele>
        <time>2018-05-19T11:56:58Z</time>
      </trkpt>
      <trkpt lat="36.75058" lon="27.52187">
        <ele>65.541</ele>
        <time>2018-05-19T11:57:03Z</time>
      </trkpt>
      <trkpt lat="36.75062" lon="27.52192">
        <ele>65.538</ele>
        <time>2018-05-19T11:57:10Z</time>
      </trkpt>
      <trkpt lat="36.75063" lon="27.52197">
        <ele>65.669</ele>
        <time>2018-05-19T11:57:17Z</time>
      </trkpt>
      <trkpt lat="36.75064" lon="27.52202">
        <ele>66.063</ele>
        <time>2018-05-19T11:57:22Z</time>
      </trkpt>
      <trkpt lat="36.75063" lon="27.52208">
        <ele>65.627</ele>
        <time>2018-05-19T11:57:29Z</time>
      </trkpt>
      <trkpt lat="36.75061" lon="27.52214">
        <ele>65.068</ele>
        <time>2018-05-19T11:57:34Z</time>
      </trkpt>
      <trkpt lat="36.75061" lon="27.5222">
        <ele>65.414</ele>
        <time>2018-05-19T11:57:38Z</time>
      </trkpt>
      <trkpt lat="36.75062" lon="27.52226">
        <ele>65.808</ele>
        <time>2018-05-19T11:57:45Z</time>
      </trkpt>
      <trkpt lat="36.75061" lon="27.52232">
        <ele>66.574</ele>
        <time>2018-05-19T11:57:51Z</time>
      </trkpt>
      <trkpt lat="36.75063" lon="27.52237">
        <ele>66.787</ele>
        <time>2018-05-19T11:57:56Z</time>
      </trkpt>
      <trkpt lat="36.75064" lon="27.52244">
        <ele>66.072</ele>
        <time>2018-05-19T11:58:02Z</time>
      </trkpt>
      <trkpt lat="36.75067" lon="27.52249">
        <ele>65.495</ele>
        <time>2018-05-19T11:58:07Z</time>
      </trkpt>
      <trkpt lat="36.75069" lon="27.52255">
        <ele>65.262</ele>
        <time>2018-05-19T11:58:12Z</time>
      </trkpt>
      <trkpt lat="36.75069" lon="27.52261">
        <ele>66.459</ele>
        <time>2018-05-19T11:58:19Z</time>
      </trkpt>
      <trkpt lat="36.75071" lon="27.52267">
        <ele>67.02</ele>
        <time>2018-05-19T11:58:27Z</time>
      </trkpt>
      <trkpt lat="36.75071" lon="27.52273">
        <ele>66.894</ele>
        <time>2018-05-19T11:58:35Z</time>
      </trkpt>
      <trkpt lat="36.75075" lon="27.52276">
        <ele>66.033</ele>
        <time>2018-05-19T11:58:41Z</time>
      </trkpt>
      <trkpt lat="36.7508" lon="27.52279">
        <ele>66.523</ele>
        <time>2018-05-19T11:58:46Z</time>
      </trkpt>
      <trkpt lat="36.75084" lon="27.52282">
        <ele>66.015</ele>
        <time>2018-05-19T11:58:51Z</time>
      </trkpt>
      <trkpt lat="36.75089" lon="27.52285">
        <ele>65.408</ele>
        <time>2018-05-19T11:58:57Z</time>
      </trkpt>
      <trkpt lat="36.75094" lon="27.52284">
        <ele>64.045</ele>
        <time>2018-05-19T11:59:03Z</time>
      </trkpt>
      <trkpt lat="36.75098" lon="27.52285">
        <ele>63.918</ele>
        <time>2018-05-19T11:59:09Z</time>
      </trkpt>
      <trkpt lat="36.75104" lon="27.52286">
        <ele>63.593</ele>
        <time>2018-05-19T11:59:13Z</time>
      </trkpt>
      <trkpt lat="36.75108" lon="27.52288">
        <ele>63.256</ele>
        <time>2018-05-19T11:59:17Z</time>
      </trkpt>
      <trkpt lat="36.75113" lon="27.52291">
        <ele>63.633</ele>
        <time>2018-05-19T11:59:21Z</time>
      </trkpt>
      <trkpt lat="36.75117" lon="27.52295">
        <ele>63.56</ele>
        <time>2018-05-19T11:59:28Z</time>
      </trkpt>
      <trkpt lat="36.75122" lon="27.52298">
        <ele>63.451</ele>
        <time>2018-05-19T11:59:33Z</time>
      </trkpt>
      <trkpt lat="36.75127" lon="27.523">
        <ele>63.745</ele>
        <time>2018-05-19T11:59:38Z</time>
      </trkpt>
      <trkpt lat="36.75127" lon="27.52307">
        <ele>64.112</ele>
        <time>2018-05-19T11:59:42Z</time>
      </trkpt>
      <trkpt lat="36.7513" lon="27.52312">
        <ele>64.332</ele>
        <time>2018-05-19T11:59:47Z</time>
      </trkpt>
      <trkpt lat="36.75133" lon="27.52316">
        <ele>64.505</ele>
        <time>2018-05-19T11:59:53Z</time>
      </trkpt>
      <trkpt lat="36.75134" lon="27.52322">
        <ele>65.508</ele>
        <time>2018-05-19T12:00:00Z</time>
      </trkpt>
      <trkpt lat="36.75134" lon="27.52328">
        <ele>65.063</ele>
        <time>2018-05-19T12:00:06Z</time>
      </trkpt>
      <trkpt lat="36.75136" lon="27.52334">
        <ele>64.596</ele>
        <time>2018-05-19T12:00:13Z</time>
      </trkpt>
      <trkpt lat="36.75138" lon="27.52339">
        <ele>64.911</ele>
        <time>2018-05-19T12:00:18Z</time>
      </trkpt>
      <trkpt lat="36.75142" lon="27.52343">
        <ele>64.244</ele>
        <time>2018-05-19T12:00:24Z</time>
      </trkpt>
      <trkpt lat="36.75144" lon="27.52348">
        <ele>63.611</ele>
        <time>2018-05-19T12:00:33Z</time>
      </trkpt>
      <trkpt lat="36.75149" lon="27.52348">
        <ele>63.578</ele>
        <time>2018-05-19T12:00:45Z</time>
      </trkpt>
      <trkpt lat="36.75148" lon="27.52354">
        <ele>63.199</ele>
        <time>2018-05-19T12:00:54Z</time>
      </trkpt>
      <trkpt lat="36.75147" lon="27.5236">
        <ele>64.453</ele>
        <time>2018-05-19T12:01:02Z</time>
      </trkpt>
      <trkpt lat="36.75147" lon="27.52366">
        <ele>63.825</ele>
        <time>2018-05-19T12:01:18Z</time>
      </trkpt>
      <trkpt lat="36.75146" lon="27.52372">
        <ele>63.226</ele>
        <time>2018-05-19T12:01:31Z</time>
      </trkpt>
      <trkpt lat="36.75141" lon="27.52373">
        <ele>64.608</ele>
        <time>2018-05-19T12:02:07Z</time>
      </trkpt>
      <trkpt lat="36.75147" lon="27.52373">
        <ele>65.408</ele>
        <time>2018-05-19T12:02:34Z</time>
      </trkpt>
      <trkpt lat="36.7515" lon="27.52377">
        <ele>64.454</ele>
        <time>2018-05-19T12:02:38Z</time>
      </trkpt>
      <trkpt lat="36.75153" lon="27.52381">
        <ele>65.877</ele>
        <time>2018-05-19T12:02:46Z</time>
      </trkpt>
      <trkpt lat="36.75154" lon="27.52387">
        <ele>66.672</ele>
        <time>2018-05-19T12:02:56Z</time>
      </trkpt>
      <trkpt lat="36.75155" lon="27.52393">
        <ele>67.845</ele>
        <time>2018-05-19T12:03:04Z</time>
      </trkpt>
      <trkpt lat="36.75159" lon="27.52397">
        <ele>66.932</ele>
        <time>2018-05-19T12:03:11Z</time>
      </trkpt>
      <trkpt lat="36.75162" lon="27.52402">
        <ele>66.779</ele>
        <time>2018-05-19T12:03:18Z</time>
      </trkpt>
      <trkpt lat="36.75162" lon="27.52408">
        <ele>67.51</ele>
        <time>2018-05-19T12:03:32Z</time>
      </trkpt>
      <trkpt lat="36.75166" lon="27.52412">
        <ele>67.414</ele>
        <time>2018-05-19T12:03:39Z</time>
      </trkpt>
      <trkpt lat="36.75169" lon="27.52416">
        <ele>67.538</ele>
        <time>2018-05-19T12:03:46Z</time>
      </trkpt>
      <trkpt lat="36.75172" lon="27.5242">
        <ele>66.87</ele>
        <time>2018-05-19T12:03:53Z</time>
      </trkpt>
      <trkpt lat="36.75176" lon="27.52425">
        <ele>67.417</ele>
        <time>2018-05-19T12:04:03Z</time>
      </trkpt>
      <trkpt lat="36.75175" lon="27.52432">
        <ele>67.108</ele>
        <time>2018-05-19T12:04:12Z</time>
      </trkpt>
      <trkpt lat="36.75173" lon="27.52437">
        <ele>67.235</ele>
        <time>2018-05-19T12:04:19Z</time>
      </trkpt>
      <trkpt lat="36.75174" lon="27.52443">
        <ele>67.428</ele>
        <time>2018-05-19T12:04:23Z</time>
      </trkpt>
      <trkpt lat="36.75176" lon="27.52449">
        <ele>66.953</ele>
        <time>2018-05-19T12:04:26Z</time>
      </trkpt>
      <trkpt lat="36.75176" lon="27.52455">
        <ele>66.116</ele>
        <time>2018-05-19T12:04:31Z</time>
      </trkpt>
      <trkpt lat="36.75178" lon="27.5246">
        <ele>66.283</ele>
        <time>2018-05-19T12:04:40Z</time>
      </trkpt>
      <trkpt lat="36.75178" lon="27.52466">
        <ele>66.27</ele>
        <time>2018-05-19T12:04:45Z</time>
      </trkpt>
      <trkpt lat="36.75176" lon="27.52472">
        <ele>65.521</ele>
        <time>2018-05-19T12:04:52Z</time>
      </trkpt>
      <trkpt lat="36.75176" lon="27.52479">
        <ele>64.875</ele>
        <time>2018-05-19T12:04:59Z</time>
      </trkpt>
      <trkpt lat="36.75177" lon="27.52485">
        <ele>64.718</ele>
        <time>2018-05-19T12:05:03Z</time>
      </trkpt>
      <trkpt lat="36.75178" lon="27.5249">
        <ele>63.798</ele>
        <time>2018-05-19T12:05:07Z</time>
      </trkpt>
      <trkpt lat="36.75175" lon="27.52495">
        <ele>64.317</ele>
        <time>2018-05-19T12:05:13Z</time>
      </trkpt>
      <trkpt lat="36.75174" lon="27.52501">
        <ele>64.908</ele>
        <time>2018-05-19T12:05:20Z</time>
      </trkpt>
      <trkpt lat="36.75172" lon="27.52508">
        <ele>65.713</ele>
        <time>2018-05-19T12:05:26Z</time>
      </trkpt>
      <trkpt lat="36.75173" lon="27.52514">
        <ele>65.626</ele>
        <time>2018-05-19T12:05:31Z</time>
      </trkpt>
      <trkpt lat="36.75173" lon="27.52521">
        <ele>65.341</ele>
        <time>2018-05-19T12:05:34Z</time>
      </trkpt>
      <trkpt lat="36.75167" lon="27.52522">
        <ele>66.574</ele>
        <time>2018-05-19T12:05:42Z</time>
      </trkpt>
      <trkpt lat="36.75165" lon="27.52527">
        <ele>65.831</ele>
        <time>2018-05-19T12:05:50Z</time>
      </trkpt>
      <trkpt lat="36.75163" lon="27.52532">
        <ele>66.278</ele>
        <time>2018-05-19T12:05:57Z</time>
      </trkpt>
      <trkpt lat="36.75162" lon="27.52538">
        <ele>67.429</ele>
        <time>2018-05-19T12:06:05Z</time>
      </trkpt>
      <trkpt lat="36.75161" lon="27.52543">
        <ele>67.813</ele>
        <time>2018-05-19T12:06:14Z</time>
      </trkpt>
      <trkpt lat="36.75165" lon="27.52548">
        <ele>67.018</ele>
        <time>2018-05-19T12:06:19Z</time>
      </trkpt>
      <trkpt lat="36.75165" lon="27.52554">
        <ele>67.598</ele>
        <time>2018-05-19T12:06:27Z</time>
      </trkpt>
      <trkpt lat="36.75169" lon="27.52557">
        <ele>67.817</ele>
        <time>2018-05-19T12:06:31Z</time>
      </trkpt>
      <trkpt lat="36.75173" lon="27.52561">
        <ele>68.108</ele>
        <time>2018-05-19T12:06:38Z</time>
      </trkpt>
      <trkpt lat="36.75176" lon="27.52565">
        <ele>67.613</ele>
        <time>2018-05-19T12:06:43Z</time>
      </trkpt>
      <trkpt lat="36.75179" lon="27.5257">
        <ele>67.566</ele>
        <time>2018-05-19T12:06:48Z</time>
      </trkpt>
      <trkpt lat="36.75179" lon="27.52576">
        <ele>68.241</ele>
        <time>2018-05-19T12:06:55Z</time>
      </trkpt>
      <trkpt lat="36.7518" lon="27.52582">
        <ele>68.854</ele>
        <time>2018-05-19T12:07:07Z</time>
      </trkpt>
      <trkpt lat="36.75183" lon="27.52587">
        <ele>69.441</ele>
        <time>2018-05-19T12:07:16Z</time>
      </trkpt>
      <trkpt lat="36.75181" lon="27.52592">
        <ele>69.228</ele>
        <time>2018-05-19T12:07:23Z</time>
      </trkpt>
      <trkpt lat="36.7518" lon="27.52598">
        <ele>69.849</ele>
        <time>2018-05-19T12:07:31Z</time>
      </trkpt>
      <trkpt lat="36.75181" lon="27.52604">
        <ele>67.843</ele>
        <time>2018-05-19T12:07:40Z</time>
      </trkpt>
      <trkpt lat="36.75179" lon="27.5261">
        <ele>69.853</ele>
        <time>2018-05-19T12:08:02Z</time>
      </trkpt>
      <trkpt lat="36.75177" lon="27.52616">
        <ele>74.104</ele>
        <time>2018-05-19T12:08:19Z</time>
      </trkpt>
      <trkpt lat="36.7518" lon="27.5262">
        <ele>77.414</ele>
        <time>2018-05-19T12:08:28Z</time>
      </trkpt>
      <trkpt lat="36.75181" lon="27.52625">
        <ele>78.408</ele>
        <time>2018-05-19T12:08:42Z</time>
      </trkpt>
      <trkpt lat="36.7518" lon="27.52631">
        <ele>79.067</ele>
        <time>2018-05-19T12:08:51Z</time>
      </trkpt>
      <trkpt lat="36.75182" lon="27.52636">
        <ele>81.36</ele>
        <time>2018-05-19T12:09:15Z</time>
      </trkpt>
      <trkpt lat="36.75183" lon="27.52642">
        <ele>81.925</ele>
        <time>2018-05-19T12:09:24Z</time>
      </trkpt>
      <trkpt lat="36.7518" lon="27.52647">
        <ele>81.338</ele>
        <time>2018-05-19T12:09:30Z</time>
      </trkpt>
      <trkpt lat="36.7518" lon="27.52653">
        <ele>81.395</ele>
        <time>2018-05-19T12:09:36Z</time>
      </trkpt>
      <trkpt lat="36.75179" lon="27.52658">
        <ele>81.032</ele>
        <time>2018-05-19T12:09:43Z</time>
      </trkpt>
      <trkpt lat="36.75179" lon="27.52664">
        <ele>81.383</ele>
        <time>2018-05-19T12:09:48Z</time>
      </trkpt>
      <trkpt lat="36.75179" lon="27.5267">
        <ele>81.577</ele>
        <time>2018-05-19T12:09:58Z</time>
      </trkpt>
      <trkpt lat="36.75179" lon="27.52676">
        <ele>80.522</ele>
        <time>2018-05-19T12:10:05Z</time>
      </trkpt>
      <trkpt lat="36.75178" lon="27.52682">
        <ele>81.662</ele>
        <time>2018-05-19T12:10:12Z</time>
      </trkpt>
      <trkpt lat="36.75177" lon="27.52689">
        <ele>82.208</ele>
        <time>2018-05-19T12:10:17Z</time>
      </trkpt>
      <trkpt lat="36.75178" lon="27.52695">
        <ele>83.708</ele>
        <time>2018-05-19T12:10:22Z</time>
      </trkpt>
      <trkpt lat="36.75177" lon="27.52701">
        <ele>84.684</ele>
        <time>2018-05-19T12:10:28Z</time>
      </trkpt>
      <trkpt lat="36.75174" lon="27.52706">
        <ele>84.767</ele>
        <time>2018-05-19T12:10:34Z</time>
      </trkpt>
      <trkpt lat="36.75175" lon="27.52712">
        <ele>85.032</ele>
        <time>2018-05-19T12:10:41Z</time>
      </trkpt>
      <trkpt lat="36.75174" lon="27.52718">
        <ele>85.445</ele>
        <time>2018-05-19T12:10:46Z</time>
      </trkpt>
      <trkpt lat="36.75177" lon="27.52722">
        <ele>86.852</ele>
        <time>2018-05-19T12:10:52Z</time>
      </trkpt>
      <trkpt lat="36.75178" lon="27.52728">
        <ele>87.549</ele>
        <time>2018-05-19T12:10:57Z</time>
      </trkpt>
      <trkpt lat="36.75182" lon="27.52733">
        <ele>88.51</ele>
        <time>2018-05-19T12:11:03Z</time>
      </trkpt>
      <trkpt lat="36.75183" lon="27.5274">
        <ele>89.524</ele>
        <time>2018-05-19T12:11:08Z</time>
      </trkpt>
      <trkpt lat="36.75182" lon="27.52746">
        <ele>90.035</ele>
        <time>2018-05-19T12:11:13Z</time>
      </trkpt>
      <trkpt lat="36.7518" lon="27.52751">
        <ele>90.186</ele>
        <time>2018-05-19T12:11:21Z</time>
      </trkpt>
      <trkpt lat="36.75178" lon="27.52756">
        <ele>89.914</ele>
        <time>2018-05-19T12:11:27Z</time>
      </trkpt>
      <trkpt lat="36.75174" lon="27.5276">
        <ele>91.008</ele>
        <time>2018-05-19T12:11:32Z</time>
      </trkpt>
      <trkpt lat="36.75175" lon="27.52766">
        <ele>90.955</ele>
        <time>2018-05-19T12:11:39Z</time>
      </trkpt>
      <trkpt lat="36.75177" lon="27.52772">
        <ele>91.068</ele>
        <time>2018-05-19T12:11:49Z</time>
      </trkpt>
      <trkpt lat="36.7518" lon="27.52776">
        <ele>91.473</ele>
        <time>2018-05-19T12:11:53Z</time>
      </trkpt>
      <trkpt lat="36.7518" lon="27.52783">
        <ele>92.426</ele>
        <time>2018-05-19T12:12:01Z</time>
      </trkpt>
      <trkpt lat="36.75181" lon="27.52788">
        <ele>92.343</ele>
        <time>2018-05-19T12:12:09Z</time>
      </trkpt>
      <trkpt lat="36.75183" lon="27.52794">
        <ele>92.23</ele>
        <time>2018-05-19T12:12:15Z</time>
      </trkpt>
      <trkpt lat="36.75181" lon="27.52799">
        <ele>92.721</ele>
        <time>2018-05-19T12:12:20Z</time>
      </trkpt>
      <trkpt lat="36.75179" lon="27.52805">
        <ele>93.175</ele>
        <time>2018-05-19T12:12:28Z</time>
      </trkpt>
      <trkpt lat="36.75179" lon="27.52811">
        <ele>92.379</ele>
        <time>2018-05-19T12:12:37Z</time>
      </trkpt>
      <trkpt lat="36.75179" lon="27.52817">
        <ele>92.805</ele>
        <time>2018-05-19T12:12:44Z</time>
      </trkpt>
      <trkpt lat="36.75179" lon="27.52824">
        <ele>95.325</ele>
        <time>2018-05-19T12:12:52Z</time>
      </trkpt>
      <trkpt lat="36.7518" lon="27.52829">
        <ele>95.708</ele>
        <time>2018-05-19T12:12:59Z</time>
      </trkpt>
      <trkpt lat="36.75177" lon="27.52835">
        <ele>95.979</ele>
        <time>2018-05-19T12:13:03Z</time>
      </trkpt>
      <trkpt lat="36.75178" lon="27.52841">
        <ele>95.282</ele>
        <time>2018-05-19T12:13:08Z</time>
      </trkpt>
      <trkpt lat="36.7518" lon="27.52847">
        <ele>95.137</ele>
        <time>2018-05-19T12:13:16Z</time>
      </trkpt>
      <trkpt lat="36.75181" lon="27.52853">
        <ele>94.25</ele>
        <time>2018-05-19T12:13:29Z</time>
      </trkpt>
      <trkpt lat="36.7518" lon="27.52859">
        <ele>93.917</ele>
        <time>2018-05-19T12:13:40Z</time>
      </trkpt>
      <trkpt lat="36.75183" lon="27.52864">
        <ele>93.644</ele>
        <time>2018-05-19T12:13:47Z</time>
      </trkpt>
      <trkpt lat="36.75183" lon="27.52871">
        <ele>91.235</ele>
        <time>2018-05-19T12:14:00Z</time>
      </trkpt>
      <trkpt lat="36.75184" lon="27.52876">
        <ele>90.989</ele>
        <time>2018-05-19T12:14:09Z</time>
      </trkpt>
      <trkpt lat="36.75186" lon="27.52882">
        <ele>89.339</ele>
        <time>2018-05-19T12:14:19Z</time>
      </trkpt>
      <trkpt lat="36.75185" lon="27.52887">
        <ele>87.501</ele>
        <time>2018-05-19T12:14:28Z</time>
      </trkpt>
      <trkpt lat="36.75184" lon="27.52894">
        <ele>86.121</ele>
        <time>2018-05-19T12:14:36Z</time>
      </trkpt>
      <trkpt lat="36.75185" lon="27.52899">
        <ele>86.708</ele>
        <time>2018-05-19T12:14:42Z</time>
      </trkpt>
      <trkpt lat="36.75188" lon="27.52904">
        <ele>81.745</ele>
        <time>2018-05-19T12:15:13Z</time>
      </trkpt>
      <trkpt lat="36.75191" lon="27.52908">
        <ele>81.378</ele>
        <time>2018-05-19T12:15:26Z</time>
      </trkpt>
      <trkpt lat="36.75195" lon="27.52911">
        <ele>77.283</ele>
        <time>2018-05-19T12:15:51Z</time>
      </trkpt>
      <trkpt lat="36.75198" lon="27.52915">
        <ele>77.136</ele>
        <time>2018-05-19T12:16:08Z</time>
      </trkpt>
      <trkpt lat="36.75203" lon="27.52917">
        <ele>73.773</ele>
        <time>2018-05-19T12:16:25Z</time>
      </trkpt>
      <trkpt lat="36.75208" lon="27.52916">
        <ele>73.35</ele>
        <time>2018-05-19T12:16:43Z</time>
      </trkpt>
      <trkpt lat="36.75212" lon="27.5292">
        <ele>69.091</ele>
        <time>2018-05-19T12:16:58Z</time>
      </trkpt>
      <trkpt lat="36.75215" lon="27.52923">
        <ele>67.845</ele>
        <time>2018-05-19T12:17:14Z</time>
      </trkpt>
      <trkpt lat="36.75214" lon="27.52929">
        <ele>65.471</ele>
        <time>2018-05-19T12:17:26Z</time>
      </trkpt>
      <trkpt lat="36.75215" lon="27.52935">
        <ele>63.141</ele>
        <time>2018-05-19T12:17:46Z</time>
      </trkpt>
      <trkpt lat="36.75219" lon="27.52936">
        <ele>60.615</ele>
        <time>2018-05-19T12:17:54Z</time>
      </trkpt>
      <trkpt lat="36.75224" lon="27.52937">
        <ele>56.608</ele>
        <time>2018-05-19T12:18:06Z</time>
      </trkpt>
      <trkpt lat="36.75228" lon="27.52935">
        <ele>56.169</ele>
        <time>2018-05-19T12:18:13Z</time>
      </trkpt>
      <trkpt lat="36.75233" lon="27.52934">
        <ele>55.372</ele>
        <time>2018-05-19T12:18:26Z</time>
      </trkpt>
      <trkpt lat="36.75238" lon="27.52934">
        <ele>54.197</ele>
        <time>2018-05-19T12:18:42Z</time>
      </trkpt>
      <trkpt lat="36.75239" lon="27.5294">
        <ele>53.15</ele>
        <time>2018-05-19T12:18:48Z</time>
      </trkpt>
      <trkpt lat="36.75242" lon="27.52944">
        <ele>53.927</ele>
        <time>2018-05-19T12:19:02Z</time>
      </trkpt>
      <trkpt lat="36.75246" lon="27.52948">
        <ele>53.764</ele>
        <time>2018-05-19T12:19:32Z</time>
      </trkpt>
      <trkpt lat="36.75245" lon="27.52954">
        <ele>50.175</ele>
        <time>2018-05-19T12:20:12Z</time>
      </trkpt>
      <trkpt lat="36.75243" lon="27.52959">
        <ele>48.299</ele>
        <time>2018-05-19T12:20:27Z</time>
      </trkpt>
      <trkpt lat="36.75244" lon="27.52965">
        <ele>47.322</ele>
        <time>2018-05-19T12:21:25Z</time>
      </trkpt>
      <trkpt lat="36.75242" lon="27.52971">
        <ele>47.862</ele>
        <time>2018-05-19T12:21:36Z</time>
      </trkpt>
      <trkpt lat="36.75243" lon="27.52978">
        <ele>47.008</ele>
        <time>2018-05-19T12:21:48Z</time>
      </trkpt>
      <trkpt lat="36.75247" lon="27.52982">
        <ele>46.008</ele>
        <time>2018-05-19T12:22:02Z</time>
      </trkpt>
      <trkpt lat="36.7525" lon="27.52986">
        <ele>43.884</ele>
        <time>2018-05-19T12:22:16Z</time>
      </trkpt>
      <trkpt lat="36.7525" lon="27.52993">
        <ele>43.697</ele>
        <time>2018-05-19T12:22:23Z</time>
      </trkpt>
      <trkpt lat="36.75251" lon="27.52998">
        <ele>43.722</ele>
        <time>2018-05-19T12:22:33Z</time>
      </trkpt>
      <trkpt lat="36.75254" lon="27.53003">
        <ele>40.275</ele>
        <time>2018-05-19T12:22:52Z</time>
      </trkpt>
      <trkpt lat="36.75252" lon="27.53008">
        <ele>39.722</ele>
        <time>2018-05-19T12:22:56Z</time>
      </trkpt>
      <trkpt lat="36.75257" lon="27.5301">
        <ele>36.649</ele>
        <time>2018-05-19T12:23:04Z</time>
      </trkpt>
      <trkpt lat="36.75262" lon="27.53013">
        <ele>32.68</ele>
        <time>2018-05-19T12:23:14Z</time>
      </trkpt>
      <trkpt lat="36.75266" lon="27.53013">
        <ele>30.894</ele>
        <time>2018-05-19T12:23:19Z</time>
      </trkpt>
      <trkpt lat="36.75263" lon="27.53018">
        <ele>29.856</ele>
        <time>2018-05-19T12:29:05Z</time>
      </trkpt>
      <trkpt lat="36.7526" lon="27.53012">
        <ele>30.159</ele>
        <time>2018-05-19T12:29:18Z</time>
      </trkpt>
      <trkpt lat="36.75258" lon="27.53006">
        <ele>29.614</ele>
        <time>2018-05-19T12:29:21Z</time>
      </trkpt>
      <trkpt lat="36.75257" lon="27.53012">
        <ele>28.008</ele>
        <time>2018-05-19T12:29:27Z</time>
      </trkpt>
      <trkpt lat="36.75262" lon="27.5301">
        <ele>29.337</ele>
        <time>2018-05-19T12:29:45Z</time>
      </trkpt>
      <trkpt lat="36.75266" lon="27.53012">
        <ele>30.76</ele>
        <time>2018-05-19T12:29:50Z</time>
      </trkpt>
      <trkpt lat="36.75271" lon="27.53013">
        <ele>29.615</ele>
        <time>2018-05-19T12:29:55Z</time>
      </trkpt>
      <trkpt lat="36.75277" lon="27.53014">
        <ele>30.678</ele>
        <time>2018-05-19T12:29:59Z</time>
      </trkpt>
      <trkpt lat="36.75282" lon="27.53015">
        <ele>29.245</ele>
        <time>2018-05-19T12:30:04Z</time>
      </trkpt>
      <trkpt lat="36.75286" lon="27.53017">
        <ele>27.962</ele>
        <time>2018-05-19T12:30:10Z</time>
      </trkpt>
      <trkpt lat="36.7529" lon="27.53019">
        <ele>27.463</ele>
        <time>2018-05-19T12:30:15Z</time>
      </trkpt>
      <trkpt lat="36.75295" lon="27.53019">
        <ele>26.277</ele>
        <time>2018-05-19T12:30:21Z</time>
      </trkpt>
      <trkpt lat="36.753" lon="27.53019">
        <ele>25.316</ele>
        <time>2018-05-19T12:30:26Z</time>
      </trkpt>
      <trkpt lat="36.75305" lon="27.53018">
        <ele>25.076</ele>
        <time>2018-05-19T12:30:32Z</time>
      </trkpt>
      <trkpt lat="36.7531" lon="27.53017">
        <ele>24.813</ele>
        <time>2018-05-19T12:30:38Z</time>
      </trkpt>
      <trkpt lat="36.75316" lon="27.5302">
        <ele>24.908</ele>
        <time>2018-05-19T12:30:49Z</time>
      </trkpt>
      <trkpt lat="36.75319" lon="27.53015">
        <ele>22.193</ele>
        <time>2018-05-19T12:30:59Z</time>
      </trkpt>
      <trkpt lat="36.75323" lon="27.53012">
        <ele>19.796</ele>
        <time>2018-05-19T12:31:08Z</time>
      </trkpt>
      <trkpt lat="36.75326" lon="27.53008">
        <ele>15.621</ele>
        <time>2018-05-19T12:31:25Z</time>
      </trkpt>
      <trkpt lat="36.7533" lon="27.53013">
        <ele>16.384</ele>
        <time>2018-05-19T12:31:34Z</time>
      </trkpt>
      <trkpt lat="36.75335" lon="27.53012">
        <ele>13.981</ele>
        <time>2018-05-19T12:32:02Z</time>
      </trkpt>
      <trkpt lat="36.75338" lon="27.53008">
        <ele>13.548</ele>
        <time>2018-05-19T12:32:11Z</time>
      </trkpt>
      <trkpt lat="36.75343" lon="27.53011">
        <ele>12.569</ele>
        <time>2018-05-19T12:32:20Z</time>
      </trkpt>
      <trkpt lat="36.75347" lon="27.53013">
        <ele>10.253</ele>
        <time>2018-05-19T12:32:26Z</time>
      </trkpt>
      <trkpt lat="36.75352" lon="27.53013">
        <ele>8.857</ele>
        <time>2018-05-19T12:32:41Z</time>
      </trkpt>
      <trkpt lat="36.75353" lon="27.53019">
        <ele>10.3</ele>
        <time>2018-05-19T12:33:11Z</time>
      </trkpt>
      <trkpt lat="36.75349" lon="27.53023">
        <ele>12.52</ele>
        <time>2018-05-19T12:33:20Z</time>
      </trkpt>
      <trkpt lat="36.75348" lon="27.53028">
        <ele>14.408</ele>
        <time>2018-05-19T12:33:31Z</time>
      </trkpt>
      <trkpt lat="36.75344" lon="27.53032">
        <ele>14.717</ele>
        <time>2018-05-19T12:33:40Z</time>
      </trkpt>
      <trkpt lat="36.75344" lon="27.53038">
        <ele>14.62</ele>
        <time>2018-05-19T12:33:49Z</time>
      </trkpt>
      <trkpt lat="36.75339" lon="27.53039">
        <ele>16.515</ele>
        <time>2018-05-19T12:33:57Z</time>
      </trkpt>
      <trkpt lat="36.75336" lon="27.53045">
        <ele>18.568</ele>
        <time>2018-05-19T12:34:07Z</time>
      </trkpt>
      <trkpt lat="36.75337" lon="27.5305">
        <ele>19.935</ele>
        <time>2018-05-19T12:34:14Z</time>
      </trkpt>
      <trkpt lat="36.75342" lon="27.53052">
        <ele>21.072</ele>
        <time>2018-05-19T12:34:20Z</time>
      </trkpt>
      <trkpt lat="36.75345" lon="27.53058">
        <ele>20.563</ele>
        <time>2018-05-19T12:34:29Z</time>
      </trkpt>
      <trkpt lat="36.75348" lon="27.53062">
        <ele>20.837</ele>
        <time>2018-05-19T12:34:35Z</time>
      </trkpt>
      <trkpt lat="36.75353" lon="27.53064">
        <ele>21.296</ele>
        <time>2018-05-19T12:34:41Z</time>
      </trkpt>
      <trkpt lat="36.75355" lon="27.53068">
        <ele>21.731</ele>
        <time>2018-05-19T12:34:46Z</time>
      </trkpt>
      <trkpt lat="36.75359" lon="27.53072">
        <ele>20.624</ele>
        <time>2018-05-19T12:34:53Z</time>
      </trkpt>
      <trkpt lat="36.75358" lon="27.53078">
        <ele>20.908</ele>
        <time>2018-05-19T12:35:04Z</time>
      </trkpt>
      <trkpt lat="36.75357" lon="27.53084">
        <ele>21.361</ele>
        <time>2018-05-19T12:35:09Z</time>
      </trkpt>
      <trkpt lat="36.75358" lon="27.5309">
        <ele>23.094</ele>
        <time>2018-05-19T12:35:18Z</time>
      </trkpt>
      <trkpt lat="36.75356" lon="27.53097">
        <ele>23.329</ele>
        <time>2018-05-19T12:35:28Z</time>
      </trkpt>
      <trkpt lat="36.75356" lon="27.53103">
        <ele>24.172</ele>
        <time>2018-05-19T12:35:34Z</time>
      </trkpt>
      <trkpt lat="36.7536" lon="27.53108">
        <ele>24.879</ele>
        <time>2018-05-19T12:35:40Z</time>
      </trkpt>
      <trkpt lat="36.75362" lon="27.53113">
        <ele>24.666</ele>
        <time>2018-05-19T12:35:46Z</time>
      </trkpt>
      <trkpt lat="36.75364" lon="27.53119">
        <ele>25.427</ele>
        <time>2018-05-19T12:35:56Z</time>
      </trkpt>
      <trkpt lat="36.75368" lon="27.53123">
        <ele>24.231</ele>
        <time>2018-05-19T12:36:02Z</time>
      </trkpt>
      <trkpt lat="36.75371" lon="27.53127">
        <ele>24.443</ele>
        <time>2018-05-19T12:36:11Z</time>
      </trkpt>
      <trkpt lat="36.75375" lon="27.5313">
        <ele>24.464</ele>
        <time>2018-05-19T12:36:22Z</time>
      </trkpt>
      <trkpt lat="36.75376" lon="27.53135">
        <ele>25.21</ele>
        <time>2018-05-19T12:36:30Z</time>
      </trkpt>
      <trkpt lat="36.75379" lon="27.53141">
        <ele>24.908</ele>
        <time>2018-05-19T12:36:42Z</time>
      </trkpt>
      <trkpt lat="36.75378" lon="27.53148">
        <ele>2.504</ele>
        <time>2018-05-19T13:04:54Z</time>
      </trkpt>
      <trkpt lat="36.75373" lon="27.53148">
        <ele>3.214</ele>
        <time>2018-05-19T13:05:03Z</time>
      </trkpt>
      <trkpt lat="36.7537" lon="27.53154">
        <ele>3.008</ele>
        <time>2018-05-19T13:05:16Z</time>
      </trkpt>
      <trkpt lat="36.75371" lon="27.53159">
        <ele>4.174</ele>
        <time>2018-05-19T13:05:24Z</time>
      </trkpt>
      <trkpt lat="36.75372" lon="27.53165">
        <ele>4.167</ele>
        <time>2018-05-19T13:05:35Z</time>
      </trkpt>
      <trkpt lat="36.75371" lon="27.5317">
        <ele>3.782</ele>
        <time>2018-05-19T13:05:43Z</time>
      </trkpt>
      <trkpt lat="36.75372" lon="27.53176">
        <ele>4.865</ele>
        <time>2018-05-19T13:05:49Z</time>
      </trkpt>
      <trkpt lat="36.75375" lon="27.53181">
        <ele>5.142</ele>
        <time>2018-05-19T13:05:54Z</time>
      </trkpt>
      <trkpt lat="36.75376" lon="27.53187">
        <ele>6.269</ele>
        <time>2018-05-19T13:06:09Z</time>
      </trkpt>
      <trkpt lat="36.75376" lon="27.53193">
        <ele>5.12</ele>
        <time>2018-05-19T13:06:20Z</time>
      </trkpt>
      <trkpt lat="36.75379" lon="27.53197">
        <ele>5.564</ele>
        <time>2018-05-19T13:06:25Z</time>
      </trkpt>
      <trkpt lat="36.75381" lon="27.53202">
        <ele>6.763</ele>
        <time>2018-05-19T13:06:34Z</time>
      </trkpt>
      <trkpt lat="36.75381" lon="27.53209">
        <ele>7.144</ele>
        <time>2018-05-19T13:06:48Z</time>
      </trkpt>
      <trkpt lat="36.75383" lon="27.53214">
        <ele>7.718</ele>
        <time>2018-05-19T13:06:57Z</time>
      </trkpt>
      <trkpt lat="36.75387" lon="27.53218">
        <ele>9.508</ele>
        <time>2018-05-19T13:07:06Z</time>
      </trkpt>
      <trkpt lat="36.75389" lon="27.53223">
        <ele>10.368</ele>
        <time>2018-05-19T13:07:15Z</time>
      </trkpt>
      <trkpt lat="36.75392" lon="27.53228">
        <ele>11.461</ele>
        <time>2018-05-19T13:07:23Z</time>
      </trkpt>
      <trkpt lat="36.75395" lon="27.53232">
        <ele>12.546</ele>
        <time>2018-05-19T13:07:28Z</time>
      </trkpt>
      <trkpt lat="36.75394" lon="27.53238">
        <ele>13.079</ele>
        <time>2018-05-19T13:07:36Z</time>
      </trkpt>
      <trkpt lat="36.75395" lon="27.53244">
        <ele>13.976</ele>
        <time>2018-05-19T13:07:50Z</time>
      </trkpt>
      <trkpt lat="36.75398" lon="27.53249">
        <ele>15.573</ele>
        <time>2018-05-19T13:08:05Z</time>
      </trkpt>
      <trkpt lat="36.75396" lon="27.53254">
        <ele>16.254</ele>
        <time>2018-05-19T13:08:16Z</time>
      </trkpt>
      <trkpt lat="36.75395" lon="27.5326">
        <ele>17.128</ele>
        <time>2018-05-19T13:08:24Z</time>
      </trkpt>
      <trkpt lat="36.75396" lon="27.53266">
        <ele>17.024</ele>
        <time>2018-05-19T13:08:30Z</time>
      </trkpt>
      <trkpt lat="36.75396" lon="27.53273">
        <ele>17.904</ele>
        <time>2018-05-19T13:08:39Z</time>
      </trkpt>
      <trkpt lat="36.75398" lon="27.53278">
        <ele>18.614</ele>
        <time>2018-05-19T13:08:45Z</time>
      </trkpt>
      <trkpt lat="36.75403" lon="27.53282">
        <ele>19.108</ele>
        <time>2018-05-19T13:08:57Z</time>
      </trkpt>
      <trkpt lat="36.75403" lon="27.53289">
        <ele>20.314</ele>
        <time>2018-05-19T13:09:03Z</time>
      </trkpt>
      <trkpt lat="36.75405" lon="27.53294">
        <ele>19.257</ele>
        <time>2018-05-19T13:09:08Z</time>
      </trkpt>
      <trkpt lat="36.75406" lon="27.533">
        <ele>20.122</ele>
        <time>2018-05-19T13:09:13Z</time>
      </trkpt>
      <trkpt lat="36.75405" lon="27.53306">
        <ele>20.985</ele>
        <time>2018-05-19T13:09:26Z</time>
      </trkpt>
      <trkpt lat="36.75406" lon="27.53312">
        <ele>21.792</ele>
        <time>2018-05-19T13:09:35Z</time>
      </trkpt>
      <trkpt lat="36.75402" lon="27.53318">
        <ele>22.299</ele>
        <time>2018-05-19T13:09:40Z</time>
      </trkpt>
      <trkpt lat="36.75403" lon="27.53323">
        <ele>22.52</ele>
        <time>2018-05-19T13:09:48Z</time>
      </trkpt>
      <trkpt lat="36.75399" lon="27.53325">
        <ele>25.854</ele>
        <time>2018-05-19T13:09:57Z</time>
      </trkpt>
      <trkpt lat="36.754" lon="27.53331">
        <ele>25.496</ele>
        <time>2018-05-19T13:10:04Z</time>
      </trkpt>
      <trkpt lat="36.754" lon="27.53337">
        <ele>24.931</ele>
        <time>2018-05-19T13:10:11Z</time>
      </trkpt>
      <trkpt lat="36.75403" lon="27.53342">
        <ele>25.724</ele>
        <time>2018-05-19T13:10:17Z</time>
      </trkpt>
      <trkpt lat="36.75403" lon="27.53348">
        <ele>25.508</ele>
        <time>2018-05-19T13:10:24Z</time>
      </trkpt>
      <trkpt lat="36.754" lon="27.53352">
        <ele>25.071</ele>
        <time>2018-05-19T13:10:29Z</time>
      </trkpt>
      <trkpt lat="36.75396" lon="27.53356">
        <ele>25.584</ele>
        <time>2018-05-19T13:10:35Z</time>
      </trkpt>
      <trkpt lat="36.75394" lon="27.53361">
        <ele>25.629</ele>
        <time>2018-05-19T13:10:39Z</time>
      </trkpt>
      <trkpt lat="36.75396" lon="27.53366">
        <ele>26.962</ele>
        <time>2018-05-19T13:10:45Z</time>
      </trkpt>
      <trkpt lat="36.75397" lon="27.53372">
        <ele>28.229</ele>
        <time>2018-05-19T13:10:50Z</time>
      </trkpt>
      <trkpt lat="36.75397" lon="27.53378">
        <ele>28.776</ele>
        <time>2018-05-19T13:11:01Z</time>
      </trkpt>
      <trkpt lat="36.75399" lon="27.53384">
        <ele>30.237</ele>
        <time>2018-05-19T13:11:08Z</time>
      </trkpt>
      <trkpt lat="36.75398" lon="27.5339">
        <ele>29.491</ele>
        <time>2018-05-19T13:11:11Z</time>
      </trkpt>
      <trkpt lat="36.75399" lon="27.53396">
        <ele>29.364</ele>
        <time>2018-05-19T13:11:15Z</time>
      </trkpt>
      <trkpt lat="36.75399" lon="27.53402">
        <ele>28.906</ele>
        <time>2018-05-19T13:11:24Z</time>
      </trkpt>
      <trkpt lat="36.75399" lon="27.53408">
        <ele>28.516</ele>
        <time>2018-05-19T13:11:31Z</time>
      </trkpt>
      <trkpt lat="36.754" lon="27.53414">
        <ele>28.408</ele>
        <time>2018-05-19T13:11:36Z</time>
      </trkpt>
      <trkpt lat="36.754" lon="27.5342">
        <ele>26.918</ele>
        <time>2018-05-19T13:11:45Z</time>
      </trkpt>
      <trkpt lat="36.75403" lon="27.53425">
        <ele>27.421</ele>
        <time>2018-05-19T13:11:55Z</time>
      </trkpt>
      <trkpt lat="36.75404" lon="27.5343">
        <ele>26.176</ele>
        <time>2018-05-19T13:12:01Z</time>
      </trkpt>
      <trkpt lat="36.75402" lon="27.53436">
        <ele>26.519</ele>
        <time>2018-05-19T13:12:07Z</time>
      </trkpt>
      <trkpt lat="36.75399" lon="27.5344">
        <ele>25.666</ele>
        <time>2018-05-19T13:12:18Z</time>
      </trkpt>
      <trkpt lat="36.75398" lon="27.53446">
        <ele>24.073</ele>
        <time>2018-05-19T13:12:32Z</time>
      </trkpt>
      <trkpt lat="36.75394" lon="27.53448">
        <ele>23.964</ele>
        <time>2018-05-19T13:12:43Z</time>
      </trkpt>
      <trkpt lat="36.75398" lon="27.53446">
        <ele>24.538</ele>
        <time>2018-05-19T13:12:56Z</time>
      </trkpt>
      <trkpt lat="36.75392" lon="27.53447">
        <ele>26.611</ele>
        <time>2018-05-19T13:13:21Z</time>
      </trkpt>
      <trkpt lat="36.75397" lon="27.53446">
        <ele>28.621</ele>
        <time>2018-05-19T13:13:52Z</time>
      </trkpt>
      <trkpt lat="36.75398" lon="27.53452">
        <ele>27.703</ele>
        <time>2018-05-19T13:14:29Z</time>
      </trkpt>
      <trkpt lat="36.75395" lon="27.53455">
        <ele>28.108</ele>
        <time>2018-05-19T13:14:39Z</time>
      </trkpt>
      <trkpt lat="36.75393" lon="27.5346">
        <ele>29.263</ele>
        <time>2018-05-19T13:14:45Z</time>
      </trkpt>
      <trkpt lat="36.75391" lon="27.53467">
        <ele>28.026</ele>
        <time>2018-05-19T13:14:51Z</time>
      </trkpt>
      <trkpt lat="36.75393" lon="27.53472">
        <ele>26.911</ele>
        <time>2018-05-19T13:15:02Z</time>
      </trkpt>
      <trkpt lat="36.75394" lon="27.53478">
        <ele>28.374</ele>
        <time>2018-05-19T13:15:11Z</time>
      </trkpt>
      <trkpt lat="36.75395" lon="27.53483">
        <ele>28.171</ele>
        <time>2018-05-19T13:15:21Z</time>
      </trkpt>
      <trkpt lat="36.75393" lon="27.53489">
        <ele>26.958</ele>
        <time>2018-05-19T13:15:27Z</time>
      </trkpt>
      <trkpt lat="36.75391" lon="27.53494">
        <ele>26.389</ele>
        <time>2018-05-19T13:15:31Z</time>
      </trkpt>
      <trkpt lat="36.7539" lon="27.535">
        <ele>24.463</ele>
        <time>2018-05-19T13:15:39Z</time>
      </trkpt>
      <trkpt lat="36.75388" lon="27.53507">
        <ele>24.797</ele>
        <time>2018-05-19T13:15:44Z</time>
      </trkpt>
      <trkpt lat="36.75389" lon="27.53513">
        <ele>24.323</ele>
        <time>2018-05-19T13:15:51Z</time>
      </trkpt>
      <trkpt lat="36.75386" lon="27.53518">
        <ele>23.325</ele>
        <time>2018-05-19T13:15:54Z</time>
      </trkpt>
      <trkpt lat="36.75384" lon="27.53524">
        <ele>22.908</ele>
        <time>2018-05-19T13:16:04Z</time>
      </trkpt>
      <trkpt lat="36.75381" lon="27.5353">
        <ele>20.581</ele>
        <time>2018-05-19T13:16:09Z</time>
      </trkpt>
      <trkpt lat="36.75379" lon="27.53535">
        <ele>18.874</ele>
        <time>2018-05-19T13:16:14Z</time>
      </trkpt>
      <trkpt lat="36.75379" lon="27.53542">
        <ele>16.559</ele>
        <time>2018-05-19T13:16:28Z</time>
      </trkpt>
      <trkpt lat="36.75379" lon="27.53548">
        <ele>16.252</ele>
        <time>2018-05-19T13:16:33Z</time>
      </trkpt>
      <trkpt lat="36.75382" lon="27.53553">
        <ele>16.319</ele>
        <time>2018-05-19T13:16:39Z</time>
      </trkpt>
      <trkpt lat="36.75379" lon="27.53559">
        <ele>15.056</ele>
        <time>2018-05-19T13:16:44Z</time>
      </trkpt>
      <trkpt lat="36.75378" lon="27.53565">
        <ele>11.017</ele>
        <time>2018-05-19T13:16:58Z</time>
      </trkpt>
      <trkpt lat="36.75374" lon="27.5357">
        <ele>10.041</ele>
        <time>2018-05-19T13:17:03Z</time>
      </trkpt>
      <trkpt lat="36.75369" lon="27.53572">
        <ele>9.145</ele>
        <time>2018-05-19T13:17:10Z</time>
      </trkpt>
      <trkpt lat="36.75371" lon="27.53578">
        <ele>7.947</ele>
        <time>2018-05-19T13:17:16Z</time>
      </trkpt>
      <trkpt lat="36.75374" lon="27.53583">
        <ele>7.311</ele>
        <time>2018-05-19T13:17:22Z</time>
      </trkpt>
      <trkpt lat="36.75375" lon="27.53588">
        <ele>7.008</ele>
        <time>2018-05-19T13:17:34Z</time>
      </trkpt>
      <trkpt lat="36.75378" lon="27.53593">
        <ele>7.946</ele>
        <time>2018-05-19T13:17:39Z</time>
      </trkpt>
      <trkpt lat="36.75382" lon="27.53598">
        <ele>8.619</ele>
        <time>2018-05-19T13:17:44Z</time>
      </trkpt>
      <trkpt lat="36.75385" lon="27.53603">
        <ele>9.374</ele>
        <time>2018-05-19T13:17:49Z</time>
      </trkpt>
      <trkpt lat="36.75381" lon="27.53607">
        <ele>9.647</ele>
        <time>2018-05-19T13:17:55Z</time>
      </trkpt>
      <trkpt lat="36.75382" lon="27.53613">
        <ele>10.224</ele>
        <time>2018-05-19T13:18:07Z</time>
      </trkpt>
      <trkpt lat="36.75385" lon="27.53617">
        <ele>9.491</ele>
        <time>2018-05-19T13:18:12Z</time>
      </trkpt>
      <trkpt lat="36.75389" lon="27.53621">
        <ele>10.272</ele>
        <time>2018-05-19T13:18:18Z</time>
      </trkpt>
      <trkpt lat="36.75393" lon="27.53625">
        <ele>10.966</ele>
        <time>2018-05-19T13:18:24Z</time>
      </trkpt>
      <trkpt lat="36.75397" lon="27.53627">
        <ele>11.669</ele>
        <time>2018-05-19T13:18:29Z</time>
      </trkpt>
      <trkpt lat="36.75396" lon="27.53633">
        <ele>10.904</ele>
        <time>2018-05-19T13:18:38Z</time>
      </trkpt>
      <trkpt lat="36.754" lon="27.53637">
        <ele>10.924</ele>
        <time>2018-05-19T13:18:43Z</time>
      </trkpt>
      <trkpt lat="36.75401" lon="27.53643">
        <ele>10.608</ele>
        <time>2018-05-19T13:18:51Z</time>
      </trkpt>
      <trkpt lat="36.75402" lon="27.53649">
        <ele>11.418</ele>
        <time>2018-05-19T13:18:55Z</time>
      </trkpt>
      <trkpt lat="36.75404" lon="27.53654">
        <ele>11.851</ele>
        <time>2018-05-19T13:18:58Z</time>
      </trkpt>
      <trkpt lat="36.75409" lon="27.53656">
        <ele>12.766</ele>
        <time>2018-05-19T13:19:04Z</time>
      </trkpt>
      <trkpt lat="36.75413" lon="27.53657">
        <ele>12.679</ele>
        <time>2018-05-19T13:19:16Z</time>
      </trkpt>
      <trkpt lat="36.75418" lon="27.53659">
        <ele>12.566</ele>
        <time>2018-05-19T13:19:23Z</time>
      </trkpt>
      <trkpt lat="36.75422" lon="27.53662">
        <ele>13.613</ele>
        <time>2018-05-19T13:19:32Z</time>
      </trkpt>
      <trkpt lat="36.75427" lon="27.53662">
        <ele>12.734</ele>
        <time>2018-05-19T13:19:41Z</time>
      </trkpt>
      <trkpt lat="36.75432" lon="27.53663">
        <ele>12.478</ele>
        <time>2018-05-19T13:19:45Z</time>
      </trkpt>
      <trkpt lat="36.75436" lon="27.53666">
        <ele>12.517</ele>
        <time>2018-05-19T13:19:49Z</time>
      </trkpt>
      <trkpt lat="36.75442" lon="27.53666">
        <ele>13.787</ele>
        <time>2018-05-19T13:19:53Z</time>
      </trkpt>
      <trkpt lat="36.75446" lon="27.5367">
        <ele>14.215</ele>
        <time>2018-05-19T13:20:11Z</time>
      </trkpt>
      <trkpt lat="36.75451" lon="27.53669">
        <ele>16.208</ele>
        <time>2018-05-19T13:20:17Z</time>
      </trkpt>
      <trkpt lat="36.75456" lon="27.53666">
        <ele>16.473</ele>
        <time>2018-05-19T13:20:23Z</time>
      </trkpt>
      <trkpt lat="36.7546" lon="27.53665">
        <ele>16.846</ele>
        <time>2018-05-19T13:20:27Z</time>
      </trkpt>
      <trkpt lat="36.75464" lon="27.5366">
        <ele>16.961</ele>
        <time>2018-05-19T13:20:32Z</time>
      </trkpt>
      <trkpt lat="36.75469" lon="27.53659">
        <ele>16.494</ele>
        <time>2018-05-19T13:20:38Z</time>
      </trkpt>
      <trkpt lat="36.75471" lon="27.53663">
        <ele>16.171</ele>
        <time>2018-05-19T13:20:53Z</time>
      </trkpt>
      <trkpt lat="36.75474" lon="27.53668">
        <ele>15.388</ele>
        <time>2018-05-19T13:21:01Z</time>
      </trkpt>
      <trkpt lat="36.75479" lon="27.53669">
        <ele>16.779</ele>
        <time>2018-05-19T13:21:09Z</time>
      </trkpt>
      <trkpt lat="36.75484" lon="27.53667">
        <ele>16.593</ele>
        <time>2018-05-19T13:21:14Z</time>
      </trkpt>
      <trkpt lat="36.75489" lon="27.53664">
        <ele>18.061</ele>
        <time>2018-05-19T13:21:19Z</time>
      </trkpt>
      <trkpt lat="36.75493" lon="27.53661">
        <ele>19.021</ele>
        <time>2018-05-19T13:21:25Z</time>
      </trkpt>
      <trkpt lat="36.75498" lon="27.53662">
        <ele>19.613</ele>
        <time>2018-05-19T13:21:32Z</time>
      </trkpt>
      <trkpt lat="36.75502" lon="27.53663">
        <ele>18.708</ele>
        <time>2018-05-19T13:21:40Z</time>
      </trkpt>
      <trkpt lat="36.75506" lon="27.53667">
        <ele>18.718</ele>
        <time>2018-05-19T13:21:49Z</time>
      </trkpt>
      <trkpt lat="36.75511" lon="27.53668">
        <ele>19.251</ele>
        <time>2018-05-19T13:21:57Z</time>
      </trkpt>
      <trkpt lat="36.75516" lon="27.53671">
        <ele>20.116</ele>
        <time>2018-05-19T13:22:03Z</time>
      </trkpt>
      <trkpt lat="36.75519" lon="27.53675">
        <ele>19.339</ele>
        <time>2018-05-19T13:22:12Z</time>
      </trkpt>
      <trkpt lat="36.75522" lon="27.53681">
        <ele>21.196</ele>
        <time>2018-05-19T13:22:17Z</time>
      </trkpt>
      <trkpt lat="36.75522" lon="27.53687">
        <ele>21.163</ele>
        <time>2018-05-19T13:22:20Z</time>
      </trkpt>
      <trkpt lat="36.75527" lon="27.53691">
        <ele>21.664</ele>
        <time>2018-05-19T13:22:28Z</time>
      </trkpt>
      <trkpt lat="36.75531" lon="27.53695">
        <ele>21.718</ele>
        <time>2018-05-19T13:22:33Z</time>
      </trkpt>
      <trkpt lat="36.75535" lon="27.53698">
        <ele>20.966</ele>
        <time>2018-05-19T13:22:39Z</time>
      </trkpt>
      <trkpt lat="36.75539" lon="27.53701">
        <ele>20.929</ele>
        <time>2018-05-19T13:22:45Z</time>
      </trkpt>
      <trkpt lat="36.75542" lon="27.53705">
        <ele>19.721</ele>
        <time>2018-05-19T13:22:52Z</time>
      </trkpt>
      <trkpt lat="36.75547" lon="27.53708">
        <ele>20.208</ele>
        <time>2018-05-19T13:22:58Z</time>
      </trkpt>
      <trkpt lat="36.7555" lon="27.53712">
        <ele>19.938</ele>
        <time>2018-05-19T13:23:05Z</time>
      </trkpt>
      <trkpt lat="36.75554" lon="27.53716">
        <ele>20.241</ele>
        <time>2018-05-19T13:23:11Z</time>
      </trkpt>
      <trkpt lat="36.75557" lon="27.53721">
        <ele>20.866</ele>
        <time>2018-05-19T13:23:17Z</time>
      </trkpt>
      <trkpt lat="36.7556" lon="27.53725">
        <ele>20.559</ele>
        <time>2018-05-19T13:23:23Z</time>
      </trkpt>
      <trkpt lat="36.7556" lon="27.53731">
        <ele>20.596</ele>
        <time>2018-05-19T13:23:28Z</time>
      </trkpt>
      <trkpt lat="36.7556" lon="27.53737">
        <ele>20.853</ele>
        <time>2018-05-19T13:23:33Z</time>
      </trkpt>
      <trkpt lat="36.75563" lon="27.53742">
        <ele>20.734</ele>
        <time>2018-05-19T13:23:40Z</time>
      </trkpt>
      <trkpt lat="36.75568" lon="27.53745">
        <ele>20.488</ele>
        <time>2018-05-19T13:23:47Z</time>
      </trkpt>
      <trkpt lat="36.75571" lon="27.53749">
        <ele>19.743</ele>
        <time>2018-05-19T13:23:53Z</time>
      </trkpt>
      <trkpt lat="36.75574" lon="27.53755">
        <ele>19.164</ele>
        <time>2018-05-19T13:23:59Z</time>
      </trkpt>
      <trkpt lat="36.75576" lon="27.5376">
        <ele>20.71</ele>
        <time>2018-05-19T13:24:04Z</time>
      </trkpt>
      <trkpt lat="36.75576" lon="27.53766">
        <ele>20.508</ele>
        <time>2018-05-19T13:24:09Z</time>
      </trkpt>
      <trkpt lat="36.75579" lon="27.5377">
        <ele>20.596</ele>
        <time>2018-05-19T13:24:15Z</time>
      </trkpt>
      <trkpt lat="36.75584" lon="27.53774">
        <ele>20.899</ele>
        <time>2018-05-19T13:24:19Z</time>
      </trkpt>
      <trkpt lat="36.75583" lon="27.5378">
        <ele>19.834</ele>
        <time>2018-05-19T13:24:22Z</time>
      </trkpt>
      <trkpt lat="36.75582" lon="27.53786">
        <ele>19.097</ele>
        <time>2018-05-19T13:24:28Z</time>
      </trkpt>
      <trkpt lat="36.75587" lon="27.53788">
        <ele>18.074</ele>
        <time>2018-05-19T13:24:34Z</time>
      </trkpt>
      <trkpt lat="36.75588" lon="27.53795">
        <ele>17.721</ele>
        <time>2018-05-19T13:24:40Z</time>
      </trkpt>
      <trkpt lat="36.75588" lon="27.53801">
        <ele>19.482</ele>
        <time>2018-05-19T13:24:45Z</time>
      </trkpt>
      <trkpt lat="36.75593" lon="27.53805">
        <ele>18.316</ele>
        <time>2018-05-19T13:24:50Z</time>
      </trkpt>
      <trkpt lat="36.75597" lon="27.53807">
        <ele>17.537</ele>
        <time>2018-05-19T13:24:56Z</time>
      </trkpt>
      <trkpt lat="36.75602" lon="27.5381">
        <ele>17.549</ele>
        <time>2018-05-19T13:25:01Z</time>
      </trkpt>
      <trkpt lat="36.75606" lon="27.53814">
        <ele>17.613</ele>
        <time>2018-05-19T13:25:06Z</time>
      </trkpt>
      <trkpt lat="36.7561" lon="27.53818">
        <ele>17.608</ele>
        <time>2018-05-19T13:25:12Z</time>
      </trkpt>
      <trkpt lat="36.7561" lon="27.53823">
        <ele>16.495</ele>
        <time>2018-05-19T13:25:18Z</time>
      </trkpt>
      <trkpt lat="36.75613" lon="27.53829">
        <ele>17.278</ele>
        <time>2018-05-19T13:25:23Z</time>
      </trkpt>
      <trkpt lat="36.75617" lon="27.53832">
        <ele>16.993</ele>
        <time>2018-05-19T13:25:29Z</time>
      </trkpt>
      <trkpt lat="36.75621" lon="27.53835">
        <ele>17.396</ele>
        <time>2018-05-19T13:25:34Z</time>
      </trkpt>
      <trkpt lat="36.75622" lon="27.5384">
        <ele>18.243</ele>
        <time>2018-05-19T13:25:42Z</time>
      </trkpt>
      <trkpt lat="36.75626" lon="27.53844">
        <ele>19.39</ele>
        <time>2018-05-19T13:25:48Z</time>
      </trkpt>
      <trkpt lat="36.75628" lon="27.5385">
        <ele>18.441</ele>
        <time>2018-05-19T13:25:54Z</time>
      </trkpt>
      <trkpt lat="36.75631" lon="27.53855">
        <ele>17.235</ele>
        <time>2018-05-19T13:25:59Z</time>
      </trkpt>
      <trkpt lat="36.75634" lon="27.53858">
        <ele>17.343</ele>
        <time>2018-05-19T13:26:04Z</time>
      </trkpt>
      <trkpt lat="36.75639" lon="27.53859">
        <ele>17.764</ele>
        <time>2018-05-19T13:26:09Z</time>
      </trkpt>
      <trkpt lat="36.75642" lon="27.53864">
        <ele>18.51</ele>
        <time>2018-05-19T13:26:13Z</time>
      </trkpt>
      <trkpt lat="36.75643" lon="27.5387">
        <ele>16.008</ele>
        <time>2018-05-19T13:26:22Z</time>
      </trkpt>
      <trkpt lat="36.75643" lon="27.53876">
        <ele>15.446</ele>
        <time>2018-05-19T13:26:25Z</time>
      </trkpt>
      <trkpt lat="36.75647" lon="27.53879">
        <ele>14.969</ele>
        <time>2018-05-19T13:26:30Z</time>
      </trkpt>
      <trkpt lat="36.75649" lon="27.53884">
        <ele>14.424</ele>
        <time>2018-05-19T13:26:35Z</time>
      </trkpt>
      <trkpt lat="36.7565" lon="27.5389">
        <ele>14.197</ele>
        <time>2018-05-19T13:26:40Z</time>
      </trkpt>
      <trkpt lat="36.7565" lon="27.53896">
        <ele>13.144</ele>
        <time>2018-05-19T13:26:45Z</time>
      </trkpt>
      <trkpt lat="36.75654" lon="27.53899">
        <ele>14.031</ele>
        <time>2018-05-19T13:26:51Z</time>
      </trkpt>
      <trkpt lat="36.75656" lon="27.53905">
        <ele>13.312</ele>
        <time>2018-05-19T13:26:59Z</time>
      </trkpt>
      <trkpt lat="36.75658" lon="27.53911">
        <ele>12.536</ele>
        <time>2018-05-19T13:27:04Z</time>
      </trkpt>
      <trkpt lat="36.75662" lon="27.53915">
        <ele>12.957</ele>
        <time>2018-05-19T13:27:10Z</time>
      </trkpt>
      <trkpt lat="36.75665" lon="27.53919">
        <ele>12.4</ele>
        <time>2018-05-19T13:27:17Z</time>
      </trkpt>
      <trkpt lat="36.7567" lon="27.53922">
        <ele>10.62</ele>
        <time>2018-05-19T13:27:25Z</time>
      </trkpt>
      <trkpt lat="36.75673" lon="27.53928">
        <ele>10.908</ele>
        <time>2018-05-19T13:27:32Z</time>
      </trkpt>
      <trkpt lat="36.75674" lon="27.53934">
        <ele>11.797</ele>
        <time>2018-05-19T13:27:38Z</time>
      </trkpt>
      <trkpt lat="36.75676" lon="27.5394">
        <ele>11.63</ele>
        <time>2018-05-19T13:27:44Z</time>
      </trkpt>
      <trkpt lat="36.7568" lon="27.53944">
        <ele>12.795</ele>
        <time>2018-05-19T13:27:49Z</time>
      </trkpt>
      <trkpt lat="36.75682" lon="27.5395">
        <ele>12.958</ele>
        <time>2018-05-19T13:27:54Z</time>
      </trkpt>
      <trkpt lat="36.75684" lon="27.53955">
        <ele>12.385</ele>
        <time>2018-05-19T13:28:00Z</time>
      </trkpt>
      <trkpt lat="36.75689" lon="27.53959">
        <ele>11.892</ele>
        <time>2018-05-19T13:28:04Z</time>
      </trkpt>
      <trkpt lat="36.7569" lon="27.53965">
        <ele>11.643</ele>
        <time>2018-05-19T13:28:12Z</time>
      </trkpt>
      <trkpt lat="36.75691" lon="27.5397">
        <ele>11.557</ele>
        <time>2018-05-19T13:28:19Z</time>
      </trkpt>
      <trkpt lat="36.75694" lon="27.53975">
        <ele>12.763</ele>
        <time>2018-05-19T13:28:22Z</time>
      </trkpt>
      <trkpt lat="36.75697" lon="27.53978">
        <ele>11.844</ele>
        <time>2018-05-19T13:28:30Z</time>
      </trkpt>
      <trkpt lat="36.75701" lon="27.53981">
        <ele>11.218</ele>
        <time>2018-05-19T13:28:34Z</time>
      </trkpt>
      <trkpt lat="36.75702" lon="27.53987">
        <ele>10.408</ele>
        <time>2018-05-19T13:28:39Z</time>
      </trkpt>
      <trkpt lat="36.75703" lon="27.53994">
        <ele>10.878</ele>
        <time>2018-05-19T13:28:41Z</time>
      </trkpt>
      <trkpt lat="36.75706" lon="27.53999">
        <ele>9.751</ele>
        <time>2018-05-19T13:28:50Z</time>
      </trkpt>
      <trkpt lat="36.75706" lon="27.54005">
        <ele>10.316</ele>
        <time>2018-05-19T13:28:56Z</time>
      </trkpt>
      <trkpt lat="36.75706" lon="27.54011">
        <ele>8.769</ele>
        <time>2018-05-19T13:29:01Z</time>
      </trkpt>
      <trkpt lat="36.75709" lon="27.54017">
        <ele>9.076</ele>
        <time>2018-05-19T13:29:06Z</time>
      </trkpt>
      <trkpt lat="36.75706" lon="27.54022">
        <ele>8.523</ele>
        <time>2018-05-19T13:29:11Z</time>
      </trkpt>
      <trkpt lat="36.75701" lon="27.54026">
        <ele>8.794</ele>
        <time>2018-05-19T13:29:15Z</time>
      </trkpt>
      <trkpt lat="36.75698" lon="27.54032">
        <ele>9.148</ele>
        <time>2018-05-19T13:29:19Z</time>
      </trkpt>
      <trkpt lat="36.757" lon="27.54038">
        <ele>8.938</ele>
        <time>2018-05-19T13:29:27Z</time>
      </trkpt>
      <trkpt lat="36.75703" lon="27.54042">
        <ele>8.87</ele>
        <time>2018-05-19T13:29:33Z</time>
      </trkpt>
      <trkpt lat="36.75705" lon="27.54047">
        <ele>7.617</ele>
        <time>2018-05-19T13:29:42Z</time>
      </trkpt>
      <trkpt lat="36.75705" lon="27.54052">
        <ele>7.208</ele>
        <time>2018-05-19T13:29:51Z</time>
      </trkpt>
      <trkpt lat="36.75709" lon="27.54056">
        <ele>6.755</ele>
        <time>2018-05-19T13:31:29Z</time>
      </trkpt>
      <trkpt lat="36.75713" lon="27.5406">
        <ele>7.158</ele>
        <time>2018-05-19T13:31:35Z</time>
      </trkpt>
      <trkpt lat="36.75713" lon="27.54066">
        <ele>6.793</ele>
        <time>2018-05-19T13:31:41Z</time>
      </trkpt>
      <trkpt lat="36.7571" lon="27.5407">
        <ele>6.296</ele>
        <time>2018-05-19T13:31:46Z</time>
      </trkpt>
      <trkpt lat="36.75707" lon="27.54076">
        <ele>5.633</ele>
        <time>2018-05-19T13:31:52Z</time>
      </trkpt>
      <trkpt lat="36.75705" lon="27.54082">
        <ele>5.48</ele>
        <time>2018-05-19T13:31:56Z</time>
      </trkpt>
      <trkpt lat="36.75702" lon="27.54087">
        <ele>5.051</ele>
        <time>2018-05-19T13:32:00Z</time>
      </trkpt>
      <trkpt lat="36.75701" lon="27.54093">
        <ele>4.055</ele>
        <time>2018-05-19T13:32:06Z</time>
      </trkpt>
      <trkpt lat="36.75698" lon="27.54098">
        <ele>4.011</ele>
        <time>2018-05-19T13:32:12Z</time>
      </trkpt>
      <trkpt lat="36.75695" lon="27.54103">
        <ele>3.521</ele>
        <time>2018-05-19T13:32:19Z</time>
      </trkpt>
      <trkpt lat="36.75693" lon="27.54109">
        <ele>3.503</ele>
        <time>2018-05-19T13:32:24Z</time>
      </trkpt>
      <trkpt lat="36.75689" lon="27.54112">
        <ele>4.208</ele>
        <time>2018-05-19T13:32:29Z</time>
      </trkpt>
      <trkpt lat="36.75686" lon="27.54117">
        <ele>4.693</ele>
        <time>2018-05-19T13:32:35Z</time>
      </trkpt>
      <trkpt lat="36.75684" lon="27.54122">
        <ele>4.536</ele>
        <time>2018-05-19T13:32:38Z</time>
      </trkpt>
      <trkpt lat="36.75681" lon="27.54127">
        <ele>4.081</ele>
        <time>2018-05-19T13:32:42Z</time>
      </trkpt>
      <trkpt lat="36.75678" lon="27.54131">
        <ele>3.734</ele>
        <time>2018-05-19T13:32:53Z</time>
      </trkpt>
      <trkpt lat="36.75677" lon="27.54136">
        <ele>3.141</ele>
        <time>2018-05-19T13:33:05Z</time>
      </trkpt>
      <trkpt lat="36.75672" lon="27.54135">
        <ele>2.538</ele>
        <time>2018-05-19T13:33:25Z</time>
      </trkpt>
      <trkpt lat="36.75667" lon="27.54136">
        <ele>2.819</ele>
        <time>2018-05-19T13:33:30Z</time>
      </trkpt>
      <trkpt lat="36.75672" lon="27.54135">
        <ele>3.593</ele>
        <time>2018-05-19T13:33:37Z</time>
      </trkpt>
      <trkpt lat="36.75676" lon="27.54139">
        <ele>2.875</ele>
        <time>2018-05-19T13:33:43Z</time>
      </trkpt>
      <trkpt lat="36.75679" lon="27.54135">
        <ele>0.428</ele>
        <time>2018-05-19T13:34:11Z</time>
      </trkpt>
      <trkpt lat="36.75675" lon="27.54137">
        <ele>0.62</ele>
        <time>2018-05-19T13:34:26Z</time>
      </trkpt>
      <trkpt lat="36.75672" lon="27.54141">
        <ele>1.708</ele>
        <time>2018-05-19T13:34:31Z</time>
      </trkpt>
      <trkpt lat="36.75669" lon="27.54147">
        <ele>0.749</ele>
        <time>2018-05-19T13:34:37Z</time>
      </trkpt>
      <trkpt lat="36.75671" lon="27.54153">
        <ele>3.412</ele>
        <time>2018-05-19T13:41:31Z</time>
      </trkpt>
      <trkpt lat="36.7567" lon="27.54159">
        <ele>4.597</ele>
        <time>2018-05-19T13:41:40Z</time>
      </trkpt>
      <trkpt lat="36.75667" lon="27.54163">
        <ele>4.21</ele>
        <time>2018-05-19T13:41:52Z</time>
      </trkpt>
      <trkpt lat="36.75665" lon="27.54169">
        <ele>4.067</ele>
        <time>2018-05-19T13:42:00Z</time>
      </trkpt>
      <trkpt lat="36.75663" lon="27.54175">
        <ele>3.614</ele>
        <time>2018-05-19T13:42:09Z</time>
      </trkpt>
      <trkpt lat="36.75659" lon="27.54177">
        <ele>4.345</ele>
        <time>2018-05-19T13:42:23Z</time>
      </trkpt>
      <trkpt lat="36.75658" lon="27.54182">
        <ele>5.729</ele>
        <time>2018-05-19T13:42:32Z</time>
      </trkpt>
      <trkpt lat="36.75654" lon="27.54186">
        <ele>6.386</ele>
        <time>2018-05-19T13:42:50Z</time>
      </trkpt>
      <trkpt lat="36.75656" lon="27.54191">
        <ele>6.36</ele>
        <time>2018-05-19T13:43:09Z</time>
      </trkpt>
      <trkpt lat="36.75661" lon="27.54194">
        <ele>6.326</ele>
        <time>2018-05-19T13:43:22Z</time>
      </trkpt>
      <trkpt lat="36.75659" lon="27.54201">
        <ele>7.308</ele>
        <time>2018-05-19T13:43:30Z</time>
      </trkpt>
      <trkpt lat="36.75655" lon="27.54205">
        <ele>8.28</ele>
        <time>2018-05-19T13:43:36Z</time>
      </trkpt>
      <trkpt lat="36.75653" lon="27.5421">
        <ele>9.513</ele>
        <time>2018-05-19T13:43:42Z</time>
      </trkpt>
      <trkpt lat="36.75648" lon="27.54213">
        <ele>10.868</ele>
        <time>2018-05-19T13:43:49Z</time>
      </trkpt>
      <trkpt lat="36.75646" lon="27.54218">
        <ele>10.811</ele>
        <time>2018-05-19T13:44:00Z</time>
      </trkpt>
      <trkpt lat="36.75646" lon="27.54224">
        <ele>11.988</ele>
        <time>2018-05-19T13:44:07Z</time>
      </trkpt>
      <trkpt lat="36.75647" lon="27.5423">
        <ele>11.835</ele>
        <time>2018-05-19T13:44:16Z</time>
      </trkpt>
      <trkpt lat="36.75647" lon="27.54236">
        <ele>13.546</ele>
        <time>2018-05-19T13:44:22Z</time>
      </trkpt>
      <trkpt lat="36.7565" lon="27.54241">
        <ele>15.01</ele>
        <time>2018-05-19T13:44:26Z</time>
      </trkpt>
      <trkpt lat="36.75653" lon="27.54245">
        <ele>15.024</ele>
        <time>2018-05-19T13:44:31Z</time>
      </trkpt>
      <trkpt lat="36.75658" lon="27.54246">
        <ele>16.104</ele>
        <time>2018-05-19T13:44:41Z</time>
      </trkpt>
      <trkpt lat="36.75661" lon="27.54251">
        <ele>17.114</ele>
        <time>2018-05-19T13:44:48Z</time>
      </trkpt>
      <trkpt lat="36.75662" lon="27.54257">
        <ele>17.908</ele>
        <time>2018-05-19T13:44:57Z</time>
      </trkpt>
      <trkpt lat="36.75667" lon="27.5426">
        <ele>19.354</ele>
        <time>2018-05-19T13:45:04Z</time>
      </trkpt>
      <trkpt lat="36.75669" lon="27.54265">
        <ele>19.787</ele>
        <time>2018-05-19T13:45:10Z</time>
      </trkpt>
      <trkpt lat="36.75671" lon="27.54271">
        <ele>20.732</ele>
        <time>2018-05-19T13:45:17Z</time>
      </trkpt>
      <trkpt lat="36.75673" lon="27.54277">
        <ele>21.845</ele>
        <time>2018-05-19T13:45:25Z</time>
      </trkpt>
      <trkpt lat="36.75673" lon="27.54282">
        <ele>21.912</ele>
        <time>2018-05-19T13:45:34Z</time>
      </trkpt>
      <trkpt lat="36.75674" lon="27.54289">
        <ele>21.339</ele>
        <time>2018-05-19T13:45:48Z</time>
      </trkpt>
      <trkpt lat="36.75677" lon="27.54294">
        <ele>21.39</ele>
        <time>2018-05-19T13:45:56Z</time>
      </trkpt>
      <trkpt lat="36.75677" lon="27.54301">
        <ele>22.614</ele>
        <time>2018-05-19T13:46:01Z</time>
      </trkpt>
      <trkpt lat="36.7568" lon="27.54305">
        <ele>22.371</ele>
        <time>2018-05-19T13:46:05Z</time>
      </trkpt>
      <trkpt lat="36.75685" lon="27.54307">
        <ele>21.941</ele>
        <time>2018-05-19T13:46:10Z</time>
      </trkpt>
      <trkpt lat="36.7569" lon="27.54308">
        <ele>21.415</ele>
        <time>2018-05-19T13:46:16Z</time>
      </trkpt>
      <trkpt lat="36.75692" lon="27.54314">
        <ele>21.308</ele>
        <time>2018-05-19T13:46:21Z</time>
      </trkpt>
      <trkpt lat="36.75696" lon="27.54317">
        <ele>22.239</ele>
        <time>2018-05-19T13:46:26Z</time>
      </trkpt>
      <trkpt lat="36.75696" lon="27.54323">
        <ele>22.342</ele>
        <time>2018-05-19T13:46:31Z</time>
      </trkpt>
      <trkpt lat="36.75696" lon="27.54329">
        <ele>22.757</ele>
        <time>2018-05-19T13:46:36Z</time>
      </trkpt>
      <trkpt lat="36.75695" lon="27.54336">
        <ele>23.55</ele>
        <time>2018-05-19T13:46:45Z</time>
      </trkpt>
      <trkpt lat="36.75695" lon="27.54341">
        <ele>23.617</ele>
        <time>2018-05-19T13:46:54Z</time>
      </trkpt>
      <trkpt lat="36.75701" lon="27.54342">
        <ele>23.454</ele>
        <time>2018-05-19T13:46:59Z</time>
      </trkpt>
      <trkpt lat="36.75706" lon="27.54343">
        <ele>22.595</ele>
        <time>2018-05-19T13:47:04Z</time>
      </trkpt>
      <trkpt lat="36.7571" lon="27.54343">
        <ele>22.769</ele>
        <time>2018-05-19T13:47:10Z</time>
      </trkpt>
      <trkpt lat="36.75712" lon="27.54348">
        <ele>22.427</ele>
        <time>2018-05-19T13:47:16Z</time>
      </trkpt>
      <trkpt lat="36.75713" lon="27.54354">
        <ele>22.968</ele>
        <time>2018-05-19T13:47:23Z</time>
      </trkpt>
      <trkpt lat="36.75717" lon="27.54357">
        <ele>23.214</ele>
        <time>2018-05-19T13:47:40Z</time>
      </trkpt>
      <trkpt lat="36.75722" lon="27.54357">
        <ele>22.908</ele>
        <time>2018-05-19T13:47:49Z</time>
      </trkpt>
      <trkpt lat="36.75727" lon="27.54358">
        <ele>23.584</ele>
        <time>2018-05-19T13:47:55Z</time>
      </trkpt>
      <trkpt lat="36.75731" lon="27.54361">
        <ele>23.367</ele>
        <time>2018-05-19T13:48:00Z</time>
      </trkpt>
      <trkpt lat="36.75735" lon="27.54365">
        <ele>22.522</ele>
        <time>2018-05-19T13:48:05Z</time>
      </trkpt>
      <trkpt lat="36.75737" lon="27.54371">
        <ele>22.465</ele>
        <time>2018-05-19T13:48:11Z</time>
      </trkpt>
      <trkpt lat="36.7574" lon="27.54376">
        <ele>22.822</ele>
        <time>2018-05-19T13:48:16Z</time>
      </trkpt>
      <trkpt lat="36.75743" lon="27.54381">
        <ele>23.369</ele>
        <time>2018-05-19T13:48:26Z</time>
      </trkpt>
      <trkpt lat="36.75747" lon="27.54384">
        <ele>22.78</ele>
        <time>2018-05-19T13:48:31Z</time>
      </trkpt>
      <trkpt lat="36.7575" lon="27.5439">
        <ele>23.264</ele>
        <time>2018-05-19T13:48:38Z</time>
      </trkpt>
      <trkpt lat="36.75752" lon="27.54394">
        <ele>22.218</ele>
        <time>2018-05-19T13:48:46Z</time>
      </trkpt>
      <trkpt lat="36.75753" lon="27.54401">
        <ele>21.998</ele>
        <time>2018-05-19T13:48:55Z</time>
      </trkpt>
      <trkpt lat="36.75754" lon="27.54407">
        <ele>22.217</ele>
        <time>2018-05-19T13:49:00Z</time>
      </trkpt>
      <trkpt lat="36.75758" lon="27.54411">
        <ele>21.408</ele>
        <time>2018-05-19T13:49:05Z</time>
      </trkpt>
      <trkpt lat="36.75762" lon="27.54416">
        <ele>21.373</ele>
        <time>2018-05-19T13:49:10Z</time>
      </trkpt>
      <trkpt lat="36.75766" lon="27.54421">
        <ele>21.046</ele>
        <time>2018-05-19T13:49:15Z</time>
      </trkpt>
      <trkpt lat="36.75771" lon="27.54422">
        <ele>20.981</ele>
        <time>2018-05-19T13:49:19Z</time>
      </trkpt>
      <trkpt lat="36.75775" lon="27.54425">
        <ele>16.414</ele>
        <time>2018-05-19T13:49:29Z</time>
      </trkpt>
      <trkpt lat="36.75774" lon="27.5443">
        <ele>15.651</ele>
        <time>2018-05-19T13:49:34Z</time>
      </trkpt>
      <trkpt lat="36.7577" lon="27.54435">
        <ele>17.768</ele>
        <time>2018-05-19T13:49:36Z</time>
      </trkpt>
      <trkpt lat="36.75771" lon="27.5444">
        <ele>18.339</ele>
        <time>2018-05-19T13:49:39Z</time>
      </trkpt>
      <trkpt lat="36.75776" lon="27.54444">
        <ele>15.153</ele>
        <time>2018-05-19T13:49:42Z</time>
      </trkpt>
      <trkpt lat="36.7578" lon="27.54446">
        <ele>15.047</ele>
        <time>2018-05-19T13:49:46Z</time>
      </trkpt>
      <trkpt lat="36.75781" lon="27.54453">
        <ele>15.029</ele>
        <time>2018-05-19T13:49:54Z</time>
      </trkpt>
      <trkpt lat="36.75783" lon="27.54459">
        <ele>15.321</ele>
        <time>2018-05-19T13:50:00Z</time>
      </trkpt>
      <trkpt lat="36.75784" lon="27.54465">
        <ele>14.008</ele>
        <time>2018-05-19T13:50:11Z</time>
      </trkpt>
      <trkpt lat="36.75782" lon="27.5447">
        <ele>15.376</ele>
        <time>2018-05-19T13:50:15Z</time>
      </trkpt>
      <trkpt lat="36.75782" lon="27.54477">
        <ele>17.569</ele>
        <time>2018-05-19T13:50:20Z</time>
      </trkpt>
      <trkpt lat="36.75783" lon="27.54483">
        <ele>16.924</ele>
        <time>2018-05-19T13:50:25Z</time>
      </trkpt>
      <trkpt lat="36.75786" lon="27.54488">
        <ele>15.597</ele>
        <time>2018-05-19T13:50:30Z</time>
      </trkpt>
      <trkpt lat="36.7579" lon="27.54491">
        <ele>15.574</ele>
        <time>2018-05-19T13:50:35Z</time>
      </trkpt>
      <trkpt lat="36.75792" lon="27.54497">
        <ele>14.961</ele>
        <time>2018-05-19T13:50:41Z</time>
      </trkpt>
      <trkpt lat="36.75788" lon="27.54502">
        <ele>15.442</ele>
        <time>2018-05-19T13:50:45Z</time>
      </trkpt>
      <trkpt lat="36.75785" lon="27.54506">
        <ele>15.336</ele>
        <time>2018-05-19T13:50:49Z</time>
      </trkpt>
      <trkpt lat="36.75787" lon="27.54513">
        <ele>15.773</ele>
        <time>2018-05-19T13:50:55Z</time>
      </trkpt>
      <trkpt lat="36.7579" lon="27.54517">
        <ele>15.885</ele>
        <time>2018-05-19T13:51:02Z</time>
      </trkpt>
      <trkpt lat="36.75789" lon="27.54524">
        <ele>15.713</ele>
        <time>2018-05-19T13:51:07Z</time>
      </trkpt>
      <trkpt lat="36.75793" lon="27.54527">
        <ele>15.608</ele>
        <time>2018-05-19T13:51:13Z</time>
      </trkpt>
      <trkpt lat="36.75797" lon="27.54532">
        <ele>15.419</ele>
        <time>2018-05-19T13:51:18Z</time>
      </trkpt>
      <trkpt lat="36.75796" lon="27.54538">
        <ele>15.642</ele>
        <time>2018-05-19T13:51:25Z</time>
      </trkpt>
      <trkpt lat="36.75792" lon="27.54542">
        <ele>16.097</ele>
        <time>2018-05-19T13:51:30Z</time>
      </trkpt>
      <trkpt lat="36.75791" lon="27.54547">
        <ele>16.76</ele>
        <time>2018-05-19T13:51:39Z</time>
      </trkpt>
      <trkpt lat="36.7579" lon="27.54553">
        <ele>17.167</ele>
        <time>2018-05-19T13:51:48Z</time>
      </trkpt>
      <trkpt lat="36.75791" lon="27.5456">
        <ele>17.784</ele>
        <time>2018-05-19T13:51:53Z</time>
      </trkpt>
      <trkpt lat="36.75791" lon="27.54565">
        <ele>17.355</ele>
        <time>2018-05-19T13:51:58Z</time>
      </trkpt>
      <trkpt lat="36.75793" lon="27.54571">
        <ele>17.939</ele>
        <time>2018-05-19T13:52:03Z</time>
      </trkpt>
      <trkpt lat="36.75797" lon="27.54575">
        <ele>18.244</ele>
        <time>2018-05-19T13:52:10Z</time>
      </trkpt>
      <trkpt lat="36.758" lon="27.54579">
        <ele>17.505</ele>
        <time>2018-05-19T13:52:19Z</time>
      </trkpt>
      <trkpt lat="36.75805" lon="27.54582">
        <ele>17.415</ele>
        <time>2018-05-19T13:52:23Z</time>
      </trkpt>
      <trkpt lat="36.75801" lon="27.54587">
        <ele>17.108</ele>
        <time>2018-05-19T13:52:26Z</time>
      </trkpt>
      <trkpt lat="36.75804" lon="27.54593">
        <ele>18.686</ele>
        <time>2018-05-19T13:52:33Z</time>
      </trkpt>
      <trkpt lat="36.75807" lon="27.54598">
        <ele>18.539</ele>
        <time>2018-05-19T13:52:40Z</time>
      </trkpt>
      <trkpt lat="36.75809" lon="27.54603">
        <ele>17.994</ele>
        <time>2018-05-19T13:52:48Z</time>
      </trkpt>
      <trkpt lat="36.75813" lon="27.54607">
        <ele>18.837</ele>
        <time>2018-05-19T13:53:02Z</time>
      </trkpt>
      <trkpt lat="36.75811" lon="27.54613">
        <ele>18.464</ele>
        <time>2018-05-19T13:53:08Z</time>
      </trkpt>
      <trkpt lat="36.75812" lon="27.54618">
        <ele>18.051</ele>
        <time>2018-05-19T13:53:16Z</time>
      </trkpt>
      <trkpt lat="36.75815" lon="27.54623">
        <ele>18.112</ele>
        <time>2018-05-19T13:53:21Z</time>
      </trkpt>
      <trkpt lat="36.75818" lon="27.54627">
        <ele>17.816</ele>
        <time>2018-05-19T13:53:26Z</time>
      </trkpt>
      <trkpt lat="36.75821" lon="27.54632">
        <ele>17.419</ele>
        <time>2018-05-19T13:53:32Z</time>
      </trkpt>
      <trkpt lat="36.75821" lon="27.54638">
        <ele>17.609</ele>
        <time>2018-05-19T13:53:38Z</time>
      </trkpt>
      <trkpt lat="36.75821" lon="27.54644">
        <ele>17.619</ele>
        <time>2018-05-19T13:53:43Z</time>
      </trkpt>
      <trkpt lat="36.7582" lon="27.54649">
        <ele>18.308</ele>
        <time>2018-05-19T13:53:50Z</time>
      </trkpt>
      <trkpt lat="36.7582" lon="27.54655">
        <ele>18.793</ele>
        <time>2018-05-19T13:53:55Z</time>
      </trkpt>
      <trkpt lat="36.75819" lon="27.54661">
        <ele>18.596</ele>
        <time>2018-05-19T13:54:01Z</time>
      </trkpt>
      <trkpt lat="36.75821" lon="27.54666">
        <ele>19.441</ele>
        <time>2018-05-19T13:54:07Z</time>
      </trkpt>
      <trkpt lat="36.75823" lon="27.54672">
        <ele>20.634</ele>
        <time>2018-05-19T13:54:12Z</time>
      </trkpt>
      <trkpt lat="36.75822" lon="27.54679">
        <ele>19.981</ele>
        <time>2018-05-19T13:54:16Z</time>
      </trkpt>
      <trkpt lat="36.75825" lon="27.54684">
        <ele>20.118</ele>
        <time>2018-05-19T13:54:20Z</time>
      </trkpt>
      <trkpt lat="36.75826" lon="27.54689">
        <ele>21.189</ele>
        <time>2018-05-19T13:54:28Z</time>
      </trkpt>
      <trkpt lat="36.75829" lon="27.54694">
        <ele>21.473</ele>
        <time>2018-05-19T13:54:37Z</time>
      </trkpt>
      <trkpt lat="36.75827" lon="27.547">
        <ele>20.875</ele>
        <time>2018-05-19T13:54:42Z</time>
      </trkpt>
      <trkpt lat="36.75823" lon="27.54704">
        <ele>19.928</ele>
        <time>2018-05-19T13:54:50Z</time>
      </trkpt>
      <trkpt lat="36.75826" lon="27.54709">
        <ele>19.12</ele>
        <time>2018-05-19T13:54:58Z</time>
      </trkpt>
      <trkpt lat="36.75824" lon="27.54716">
        <ele>19.008</ele>
        <time>2018-05-19T13:55:05Z</time>
      </trkpt>
      <trkpt lat="36.75822" lon="27.54722">
        <ele>18.849</ele>
        <time>2018-05-19T13:55:10Z</time>
      </trkpt>
      <trkpt lat="36.75824" lon="27.54727">
        <ele>18.972</ele>
        <time>2018-05-19T13:55:15Z</time>
      </trkpt>
      <trkpt lat="36.75821" lon="27.54731">
        <ele>17.947</ele>
        <time>2018-05-19T13:55:21Z</time>
      </trkpt>
      <trkpt lat="36.7582" lon="27.54738">
        <ele>18.35</ele>
        <time>2018-05-19T13:55:26Z</time>
      </trkpt>
      <trkpt lat="36.75826" lon="27.5474">
        <ele>17.947</ele>
        <time>2018-05-19T13:55:31Z</time>
      </trkpt>
      <trkpt lat="36.75831" lon="27.54741">
        <ele>16.734</ele>
        <time>2018-05-19T13:55:34Z</time>
      </trkpt>
      <trkpt lat="36.75837" lon="27.5474">
        <ele>14.975</ele>
        <time>2018-05-19T13:55:38Z</time>
      </trkpt>
      <trkpt lat="36.75842" lon="27.54742">
        <ele>13.419</ele>
        <time>2018-05-19T13:55:45Z</time>
      </trkpt>
      <trkpt lat="36.75847" lon="27.54744">
        <ele>10.862</ele>
        <time>2018-05-19T13:55:52Z</time>
      </trkpt>
      <trkpt lat="36.75852" lon="27.54741">
        <ele>8.983</ele>
        <time>2018-05-19T13:56:00Z</time>
      </trkpt>
      <trkpt lat="36.75857" lon="27.54739">
        <ele>8.711</ele>
        <time>2018-05-19T13:56:07Z</time>
      </trkpt>
      <trkpt lat="36.7586" lon="27.54743">
        <ele>6.008</ele>
        <time>2018-05-19T13:56:21Z</time>
      </trkpt>
      <trkpt lat="36.75864" lon="27.54748">
        <ele>5.228</ele>
        <time>2018-05-19T13:56:27Z</time>
      </trkpt>
      <trkpt lat="36.75865" lon="27.54754">
        <ele>4.631</ele>
        <time>2018-05-19T13:56:34Z</time>
      </trkpt>
      <trkpt lat="36.75869" lon="27.54757">
        <ele>3.726</ele>
        <time>2018-05-19T13:56:40Z</time>
      </trkpt>
      <trkpt lat="36.75871" lon="27.54762">
        <ele>3.789</ele>
        <time>2018-05-19T13:56:51Z</time>
      </trkpt>
      <trkpt lat="36.75869" lon="27.54768">
        <ele>6.726</ele>
        <time>2018-05-19T14:00:53Z</time>
      </trkpt>
      <trkpt lat="36.75869" lon="27.54774">
        <ele>7.993</ele>
        <time>2018-05-19T14:01:03Z</time>
      </trkpt>
      <trkpt lat="36.75867" lon="27.54779">
        <ele>7.974</ele>
        <time>2018-05-19T14:01:14Z</time>
      </trkpt>
      <trkpt lat="36.75867" lon="27.54786">
        <ele>9.578</ele>
        <time>2018-05-19T14:01:21Z</time>
      </trkpt>
      <trkpt lat="36.75866" lon="27.54792">
        <ele>9.838</ele>
        <time>2018-05-19T14:01:26Z</time>
      </trkpt>
      <trkpt lat="36.75865" lon="27.54798">
        <ele>10.77</ele>
        <time>2018-05-19T14:01:33Z</time>
      </trkpt>
      <trkpt lat="36.75863" lon="27.54804">
        <ele>10.517</ele>
        <time>2018-05-19T14:01:39Z</time>
      </trkpt>
      <trkpt lat="36.7586" lon="27.54809">
        <ele>10.708</ele>
        <time>2018-05-19T14:01:44Z</time>
      </trkpt>
      <trkpt lat="36.75864" lon="27.54813">
        <ele>10.365</ele>
        <time>2018-05-19T14:01:54Z</time>
      </trkpt>
      <trkpt lat="36.75864" lon="27.54819">
        <ele>11.058</ele>
        <time>2018-05-19T14:02:02Z</time>
      </trkpt>
      <trkpt lat="36.75862" lon="27.54825">
        <ele>10.243</ele>
        <time>2018-05-19T14:02:14Z</time>
      </trkpt>
      <trkpt lat="36.75861" lon="27.54831">
        <ele>12.286</ele>
        <time>2018-05-19T14:02:17Z</time>
      </trkpt>
      <trkpt lat="36.75862" lon="27.54837">
        <ele>11.843</ele>
        <time>2018-05-19T14:02:21Z</time>
      </trkpt>
      <trkpt lat="36.75861" lon="27.54844">
        <ele>13.08</ele>
        <time>2018-05-19T14:02:27Z</time>
      </trkpt>
      <trkpt lat="36.75864" lon="27.54848">
        <ele>11.631</ele>
        <time>2018-05-19T14:02:33Z</time>
      </trkpt>
      <trkpt lat="36.75869" lon="27.54849">
        <ele>11.715</ele>
        <time>2018-05-19T14:02:38Z</time>
      </trkpt>
      <trkpt lat="36.75871" lon="27.54854">
        <ele>12.414</ele>
        <time>2018-05-19T14:02:46Z</time>
      </trkpt>
      <trkpt lat="36.75873" lon="27.5486">
        <ele>11.854</ele>
        <time>2018-05-19T14:02:54Z</time>
      </trkpt>
      <trkpt lat="36.75871" lon="27.54865">
        <ele>10.909</ele>
        <time>2018-05-19T14:02:59Z</time>
      </trkpt>
      <trkpt lat="36.75874" lon="27.5487">
        <ele>10.608</ele>
        <time>2018-05-19T14:03:04Z</time>
      </trkpt>
      <trkpt lat="36.75874" lon="27.54876">
        <ele>10.593</ele>
        <time>2018-05-19T14:03:10Z</time>
      </trkpt>
      <trkpt lat="36.75873" lon="27.54882">
        <ele>10.356</ele>
        <time>2018-05-19T14:03:16Z</time>
      </trkpt>
      <trkpt lat="36.75871" lon="27.54887">
        <ele>11.121</ele>
        <time>2018-05-19T14:03:26Z</time>
      </trkpt>
      <trkpt lat="36.75871" lon="27.54894">
        <ele>11.724</ele>
        <time>2018-05-19T14:03:33Z</time>
      </trkpt>
      <trkpt lat="36.75874" lon="27.54898">
        <ele>11.341</ele>
        <time>2018-05-19T14:03:40Z</time>
      </trkpt>
      <trkpt lat="36.75879" lon="27.54901">
        <ele>10.638</ele>
        <time>2018-05-19T14:03:45Z</time>
      </trkpt>
      <trkpt lat="36.7588" lon="27.54907">
        <ele>10.649</ele>
        <time>2018-05-19T14:03:51Z</time>
      </trkpt>
      <trkpt lat="36.75883" lon="27.54912">
        <ele>10.413</ele>
        <time>2018-05-19T14:03:57Z</time>
      </trkpt>
      <trkpt lat="36.75883" lon="27.54917">
        <ele>10.621</ele>
        <time>2018-05-19T14:04:04Z</time>
      </trkpt>
      <trkpt lat="36.75885" lon="27.54923">
        <ele>9.841</ele>
        <time>2018-05-19T14:04:10Z</time>
      </trkpt>
      <trkpt lat="36.75887" lon="27.54929">
        <ele>8.405</ele>
        <time>2018-05-19T14:04:15Z</time>
      </trkpt>
      <trkpt lat="36.75891" lon="27.54933">
        <ele>7.608</ele>
        <time>2018-05-19T14:04:21Z</time>
      </trkpt>
      <trkpt lat="36.75891" lon="27.54939">
        <ele>7.814</ele>
        <time>2018-05-19T14:04:27Z</time>
      </trkpt>
      <trkpt lat="36.75892" lon="27.54945">
        <ele>6.867</ele>
        <time>2018-05-19T14:04:33Z</time>
      </trkpt>
      <trkpt lat="36.75891" lon="27.54951">
        <ele>7.152</ele>
        <time>2018-05-19T14:04:39Z</time>
      </trkpt>
      <trkpt lat="36.75889" lon="27.54957">
        <ele>8.315</ele>
        <time>2018-05-19T14:04:51Z</time>
      </trkpt>
      <trkpt lat="36.75889" lon="27.54963">
        <ele>10.082</ele>
        <time>2018-05-19T14:05:07Z</time>
      </trkpt>
      <trkpt lat="36.7589" lon="27.54968">
        <ele>8.229</ele>
        <time>2018-05-19T14:05:31Z</time>
      </trkpt>
      <trkpt lat="36.7589" lon="27.54974">
        <ele>6.38</ele>
        <time>2018-05-19T14:05:46Z</time>
      </trkpt>
      <trkpt lat="36.75893" lon="27.54979">
        <ele>6.794</ele>
        <time>2018-05-19T14:05:54Z</time>
      </trkpt>
      <trkpt lat="36.75895" lon="27.54984">
        <ele>6.874</ele>
        <time>2018-05-19T14:06:02Z</time>
      </trkpt>
      <trkpt lat="36.75899" lon="27.54988">
        <ele>7.356</ele>
        <time>2018-05-19T14:06:07Z</time>
      </trkpt>
      <trkpt lat="36.75902" lon="27.54994">
        <ele>7.821</ele>
        <time>2018-05-19T14:06:11Z</time>
      </trkpt>
      <trkpt lat="36.75903" lon="27.54999">
        <ele>8.008</ele>
        <time>2018-05-19T14:06:19Z</time>
      </trkpt>
      <trkpt lat="36.759" lon="27.55004">
        <ele>7.389</ele>
        <time>2018-05-19T14:06:23Z</time>
      </trkpt>
      <trkpt lat="36.75901" lon="27.55011">
        <ele>7.922</ele>
        <time>2018-05-19T14:06:32Z</time>
      </trkpt>
      <trkpt lat="36.75905" lon="27.55013">
        <ele>8.847</ele>
        <time>2018-05-19T14:06:37Z</time>
      </trkpt>
      <trkpt lat="36.75904" lon="27.5502">
        <ele>8.47</ele>
        <time>2018-05-19T14:06:45Z</time>
      </trkpt>
      <trkpt lat="36.75904" lon="27.55026">
        <ele>9.347</ele>
        <time>2018-05-19T14:06:53Z</time>
      </trkpt>
      <trkpt lat="36.75906" lon="27.55032">
        <ele>8.894</ele>
        <time>2018-05-19T14:07:01Z</time>
      </trkpt>
      <trkpt lat="36.75905" lon="27.55038">
        <ele>8.695</ele>
        <time>2018-05-19T14:07:07Z</time>
      </trkpt>
      <trkpt lat="36.75903" lon="27.55044">
        <ele>8.829</ele>
        <time>2018-05-19T14:07:13Z</time>
      </trkpt>
      <trkpt lat="36.759" lon="27.55049">
        <ele>9.319</ele>
        <time>2018-05-19T14:07:20Z</time>
      </trkpt>
      <trkpt lat="36.75899" lon="27.55055">
        <ele>10.309</ele>
        <time>2018-05-19T14:07:27Z</time>
      </trkpt>
      <trkpt lat="36.759" lon="27.55061">
        <ele>10.419</ele>
        <time>2018-05-19T14:07:33Z</time>
      </trkpt>
      <trkpt lat="36.75901" lon="27.55067">
        <ele>10.208</ele>
        <time>2018-05-19T14:07:40Z</time>
      </trkpt>
      <trkpt lat="36.75904" lon="27.5507">
        <ele>10.873</ele>
        <time>2018-05-19T14:07:44Z</time>
      </trkpt>
      <trkpt lat="36.75906" lon="27.55076">
        <ele>11.456</ele>
        <time>2018-05-19T14:07:51Z</time>
      </trkpt>
      <trkpt lat="36.75908" lon="27.55081">
        <ele>11.311</ele>
        <time>2018-05-19T14:07:56Z</time>
      </trkpt>
      <trkpt lat="36.75912" lon="27.55084">
        <ele>11.374</ele>
        <time>2018-05-19T14:08:03Z</time>
      </trkpt>
      <trkpt lat="36.75915" lon="27.55089">
        <ele>10.891</ele>
        <time>2018-05-19T14:08:09Z</time>
      </trkpt>
      <trkpt lat="36.75913" lon="27.55096">
        <ele>10.828</ele>
        <time>2018-05-19T14:08:14Z</time>
      </trkpt>
      <trkpt lat="36.7591" lon="27.55102">
        <ele>10.069</ele>
        <time>2018-05-19T14:08:17Z</time>
      </trkpt>
      <trkpt lat="36.7591" lon="27.55108">
        <ele>10.153</ele>
        <time>2018-05-19T14:08:22Z</time>
      </trkpt>
      <trkpt lat="36.7591" lon="27.55114">
        <ele>10.558</ele>
        <time>2018-05-19T14:08:28Z</time>
      </trkpt>
      <trkpt lat="36.75912" lon="27.5512">
        <ele>11.352</ele>
        <time>2018-05-19T14:08:35Z</time>
      </trkpt>
      <trkpt lat="36.75915" lon="27.55124">
        <ele>11.117</ele>
        <time>2018-05-19T14:08:40Z</time>
      </trkpt>
      <trkpt lat="36.75916" lon="27.5513">
        <ele>10.708</ele>
        <time>2018-05-19T14:08:47Z</time>
      </trkpt>
      <trkpt lat="36.75917" lon="27.55136">
        <ele>10.697</ele>
        <time>2018-05-19T14:08:54Z</time>
      </trkpt>
      <trkpt lat="36.75916" lon="27.55142">
        <ele>12.35</ele>
        <time>2018-05-19T14:09:03Z</time>
      </trkpt>
      <trkpt lat="36.75917" lon="27.55148">
        <ele>13.375</ele>
        <time>2018-05-19T14:09:09Z</time>
      </trkpt>
      <trkpt lat="36.7592" lon="27.55153">
        <ele>13.948</ele>
        <time>2018-05-19T14:09:12Z</time>
      </trkpt>
      <trkpt lat="36.75923" lon="27.55158">
        <ele>14.445</ele>
        <time>2018-05-19T14:09:17Z</time>
      </trkpt>
      <trkpt lat="36.75927" lon="27.55162">
        <ele>14.842</ele>
        <time>2018-05-19T14:09:21Z</time>
      </trkpt>
      <trkpt lat="36.75929" lon="27.55169">
        <ele>14.833</ele>
        <time>2018-05-19T14:09:29Z</time>
      </trkpt>
      <trkpt lat="36.75932" lon="27.55174">
        <ele>14.047</ele>
        <time>2018-05-19T14:09:33Z</time>
      </trkpt>
      <trkpt lat="36.75935" lon="27.55179">
        <ele>14.451</ele>
        <time>2018-05-19T14:09:39Z</time>
      </trkpt>
      <trkpt lat="36.75938" lon="27.55185">
        <ele>13.801</ele>
        <time>2018-05-19T14:09:45Z</time>
      </trkpt>
      <trkpt lat="36.7594" lon="27.55191">
        <ele>13.611</ele>
        <time>2018-05-19T14:09:51Z</time>
      </trkpt>
      <trkpt lat="36.75942" lon="27.55196">
        <ele>13.108</ele>
        <time>2018-05-19T14:09:56Z</time>
      </trkpt>
      <trkpt lat="36.75942" lon="27.55202">
        <ele>12.597</ele>
        <time>2018-05-19T14:10:03Z</time>
      </trkpt>
      <trkpt lat="36.75943" lon="27.55208">
        <ele>13.12</ele>
        <time>2018-05-19T14:10:09Z</time>
      </trkpt>
      <trkpt lat="36.75946" lon="27.55213">
        <ele>12.775</ele>
        <time>2018-05-19T14:10:14Z</time>
      </trkpt>
      <trkpt lat="36.75951" lon="27.55214">
        <ele>11.278</ele>
        <time>2018-05-19T14:10:19Z</time>
      </trkpt>
      <trkpt lat="36.75955" lon="27.55217">
        <ele>10.725</ele>
        <time>2018-05-19T14:10:23Z</time>
      </trkpt>
      <trkpt lat="36.75955" lon="27.55223">
        <ele>10.092</ele>
        <time>2018-05-19T14:10:29Z</time>
      </trkpt>
      <trkpt lat="36.75955" lon="27.55229">
        <ele>9.463</ele>
        <time>2018-05-19T14:10:36Z</time>
      </trkpt>
      <trkpt lat="36.75958" lon="27.55233">
        <ele>8.647</ele>
        <time>2018-05-19T14:10:43Z</time>
      </trkpt>
      <trkpt lat="36.75962" lon="27.55236">
        <ele>7.649</ele>
        <time>2018-05-19T14:10:50Z</time>
      </trkpt>
      <trkpt lat="36.75961" lon="27.55241">
        <ele>6.802</ele>
        <time>2018-05-19T14:10:58Z</time>
      </trkpt>
      <trkpt lat="36.75962" lon="27.55246">
        <ele>5.322</ele>
        <time>2018-05-19T14:11:04Z</time>
      </trkpt>
      <trkpt lat="36.75966" lon="27.55251">
        <ele>5.608</ele>
        <time>2018-05-19T14:11:09Z</time>
      </trkpt>
      <trkpt lat="36.75967" lon="27.55257">
        <ele>5.286</ele>
        <time>2018-05-19T14:11:14Z</time>
      </trkpt>
      <trkpt lat="36.75966" lon="27.55262">
        <ele>5.439</ele>
        <time>2018-05-19T14:11:18Z</time>
      </trkpt>
      <trkpt lat="36.75965" lon="27.55268">
        <ele>5.434</ele>
        <time>2018-05-19T14:11:23Z</time>
      </trkpt>
      <trkpt lat="36.75963" lon="27.55273">
        <ele>5.967</ele>
        <time>2018-05-19T14:11:32Z</time>
      </trkpt>
      <trkpt lat="36.75958" lon="27.55275">
        <ele>6.224</ele>
        <time>2018-05-19T14:11:40Z</time>
      </trkpt>
      <trkpt lat="36.75959" lon="27.55282">
        <ele>6.921</ele>
        <time>2018-05-19T14:11:46Z</time>
      </trkpt>
      <trkpt lat="36.75959" lon="27.55288">
        <ele>6.022</ele>
        <time>2018-05-19T14:11:53Z</time>
      </trkpt>
      <trkpt lat="36.75963" lon="27.55293">
        <ele>5.946</ele>
        <time>2018-05-19T14:11:57Z</time>
      </trkpt>
      <trkpt lat="36.75966" lon="27.55298">
        <ele>5.855</ele>
        <time>2018-05-19T14:12:01Z</time>
      </trkpt>
      <trkpt lat="36.75968" lon="27.55304">
        <ele>6.007</ele>
        <time>2018-05-19T14:12:06Z</time>
      </trkpt>
      <trkpt lat="36.75966" lon="27.55311">
        <ele>6.117</ele>
        <time>2018-05-19T14:12:11Z</time>
      </trkpt>
      <trkpt lat="36.75968" lon="27.55316">
        <ele>5.808</ele>
        <time>2018-05-19T14:12:16Z</time>
      </trkpt>
      <trkpt lat="36.75968" lon="27.55322">
        <ele>5.967</ele>
        <time>2018-05-19T14:12:20Z</time>
      </trkpt>
      <trkpt lat="36.75972" lon="27.55326">
        <ele>5.52</ele>
        <time>2018-05-19T14:12:23Z</time>
      </trkpt>
      <trkpt lat="36.75976" lon="27.55329">
        <ele>5.495</ele>
        <time>2018-05-19T14:12:26Z</time>
      </trkpt>
      <trkpt lat="36.75979" lon="27.55335">
        <ele>6.078</ele>
        <time>2018-05-19T14:12:31Z</time>
      </trkpt>
      <trkpt lat="36.75981" lon="27.55341">
        <ele>6.435</ele>
        <time>2018-05-19T14:12:37Z</time>
      </trkpt>
      <trkpt lat="36.75984" lon="27.55345">
        <ele>6.442</ele>
        <time>2018-05-19T14:12:43Z</time>
      </trkpt>
      <trkpt lat="36.75983" lon="27.55351">
        <ele>6.793</ele>
        <time>2018-05-19T14:12:50Z</time>
      </trkpt>
      <trkpt lat="36.75984" lon="27.55357">
        <ele>6.867</ele>
        <time>2018-05-19T14:12:56Z</time>
      </trkpt>
      <trkpt lat="36.75983" lon="27.55363">
        <ele>5.396</ele>
        <time>2018-05-19T14:13:02Z</time>
      </trkpt>
      <trkpt lat="36.75984" lon="27.5537">
        <ele>6.431</ele>
        <time>2018-05-19T14:13:06Z</time>
      </trkpt>
      <trkpt lat="36.75987" lon="27.55373">
        <ele>6.324</ele>
        <time>2018-05-19T14:13:10Z</time>
      </trkpt>
      <trkpt lat="36.75991" lon="27.55378">
        <ele>6.008</ele>
        <time>2018-05-19T14:13:17Z</time>
      </trkpt>
      <trkpt lat="36.75996" lon="27.5538">
        <ele>5.981</ele>
        <time>2018-05-19T14:13:22Z</time>
      </trkpt>
      <trkpt lat="36.75999" lon="27.55384">
        <ele>6.134</ele>
        <time>2018-05-19T14:13:27Z</time>
      </trkpt>
      <trkpt lat="36.76003" lon="27.55389">
        <ele>4.889</ele>
        <time>2018-05-19T14:13:37Z</time>
      </trkpt>
      <trkpt lat="36.76004" lon="27.55394">
        <ele>4.982</ele>
        <time>2018-05-19T14:13:44Z</time>
      </trkpt>
      <trkpt lat="36.76003" lon="27.554">
        <ele>6.479</ele>
        <time>2018-05-19T14:13:51Z</time>
      </trkpt>
      <trkpt lat="36.76006" lon="27.55405">
        <ele>7.136</ele>
        <time>2018-05-19T14:13:58Z</time>
      </trkpt>
      <trkpt lat="36.76007" lon="27.55411">
        <ele>8.857</ele>
        <time>2018-05-19T14:14:05Z</time>
      </trkpt>
      <trkpt lat="36.76009" lon="27.55417">
        <ele>8.261</ele>
        <time>2018-05-19T14:14:14Z</time>
      </trkpt>
      <trkpt lat="36.76008" lon="27.55422">
        <ele>9.521</ele>
        <time>2018-05-19T14:14:19Z</time>
      </trkpt>
      <trkpt lat="36.76011" lon="27.55427">
        <ele>9.441</ele>
        <time>2018-05-19T14:14:26Z</time>
      </trkpt>
      <trkpt lat="36.76015" lon="27.55431">
        <ele>10.005</ele>
        <time>2018-05-19T14:14:33Z</time>
      </trkpt>
      <trkpt lat="36.76019" lon="27.55435">
        <ele>10.908</ele>
        <time>2018-05-19T14:14:40Z</time>
      </trkpt>
      <trkpt lat="36.76023" lon="27.55439">
        <ele>10.534</ele>
        <time>2018-05-19T14:14:45Z</time>
      </trkpt>
      <trkpt lat="36.76025" lon="27.55445">
        <ele>11.937</ele>
        <time>2018-05-19T14:14:51Z</time>
      </trkpt>
      <trkpt lat="36.76026" lon="27.55451">
        <ele>12.642</ele>
        <time>2018-05-19T14:14:57Z</time>
      </trkpt>
      <trkpt lat="36.76023" lon="27.55455">
        <ele>13.725</ele>
        <time>2018-05-19T14:15:06Z</time>
      </trkpt>
      <trkpt lat="36.7602" lon="27.5546">
        <ele>14.462</ele>
        <time>2018-05-19T14:15:14Z</time>
      </trkpt>
      <trkpt lat="36.7602" lon="27.55465">
        <ele>15.439</ele>
        <time>2018-05-19T14:15:26Z</time>
      </trkpt>
      <trkpt lat="36.76018" lon="27.55472">
        <ele>15.69</ele>
        <time>2018-05-19T14:15:30Z</time>
      </trkpt>
      <trkpt lat="36.76016" lon="27.55477">
        <ele>15.144</ele>
        <time>2018-05-19T14:15:49Z</time>
      </trkpt>
      <trkpt lat="36.76015" lon="27.55484">
        <ele>15.256</ele>
        <time>2018-05-19T14:16:18Z</time>
      </trkpt>
      <trkpt lat="36.7602" lon="27.55485">
        <ele>14.459</ele>
        <time>2018-05-19T14:16:49Z</time>
      </trkpt>
      <trkpt lat="36.7602" lon="27.55491">
        <ele>16.614</ele>
        <time>2018-05-19T14:17:11Z</time>
      </trkpt>
      <trkpt lat="36.76021" lon="27.55497">
        <ele>19.008</ele>
        <time>2018-05-19T14:17:20Z</time>
      </trkpt>
      <trkpt lat="36.76024" lon="27.55501">
        <ele>19.727</ele>
        <time>2018-05-19T14:17:26Z</time>
      </trkpt>
      <trkpt lat="36.76024" lon="27.55507">
        <ele>20.11</ele>
        <time>2018-05-19T14:17:34Z</time>
      </trkpt>
      <trkpt lat="36.76024" lon="27.55513">
        <ele>20.585</ele>
        <time>2018-05-19T14:17:42Z</time>
      </trkpt>
      <trkpt lat="36.76023" lon="27.55519">
        <ele>18.968</ele>
        <time>2018-05-19T14:17:53Z</time>
      </trkpt>
      <trkpt lat="36.76021" lon="27.55524">
        <ele>19.275</ele>
        <time>2018-05-19T14:18:00Z</time>
      </trkpt>
      <trkpt lat="36.7602" lon="27.5553">
        <ele>19.062</ele>
        <time>2018-05-19T14:18:05Z</time>
      </trkpt>
      <trkpt lat="36.76021" lon="27.55537">
        <ele>17.553</ele>
        <time>2018-05-19T14:18:11Z</time>
      </trkpt>
      <trkpt lat="36.76025" lon="27.55541">
        <ele>17.437</ele>
        <time>2018-05-19T14:18:22Z</time>
      </trkpt>
      <trkpt lat="36.76025" lon="27.55547">
        <ele>17.849</ele>
        <time>2018-05-19T14:18:27Z</time>
      </trkpt>
      <trkpt lat="36.76027" lon="27.55553">
        <ele>16.902</ele>
        <time>2018-05-19T14:18:32Z</time>
      </trkpt>
      <trkpt lat="36.76025" lon="27.55558">
        <ele>15.922</ele>
        <time>2018-05-19T14:18:37Z</time>
      </trkpt>
      <trkpt lat="36.76022" lon="27.55563">
        <ele>16.608</ele>
        <time>2018-05-19T14:18:42Z</time>
      </trkpt>
      <trkpt lat="36.7602" lon="27.55568">
        <ele>17.446</ele>
        <time>2018-05-19T14:18:47Z</time>
      </trkpt>
      <trkpt lat="36.76019" lon="27.55573">
        <ele>17.399</ele>
        <time>2018-05-19T14:18:53Z</time>
      </trkpt>
      <trkpt lat="36.76014" lon="27.55572">
        <ele>15.864</ele>
        <time>2018-05-19T14:19:01Z</time>
      </trkpt>
      <trkpt lat="36.76019" lon="27.55576">
        <ele>11.747</ele>
        <time>2018-05-19T14:20:17Z</time>
      </trkpt>
      <trkpt lat="36.76012" lon="27.55574">
        <ele>11.964</ele>
        <time>2018-05-19T14:21:25Z</time>
      </trkpt>
      <trkpt lat="36.76007" lon="27.55575">
        <ele>13.181</ele>
        <time>2018-05-19T14:22:27Z</time>
      </trkpt>
      <trkpt lat="36.76001" lon="27.55577">
        <ele>11.862</ele>
        <time>2018-05-19T14:22:32Z</time>
      </trkpt>
      <trkpt lat="36.75996" lon="27.55579">
        <ele>12.616</ele>
        <time>2018-05-19T14:22:36Z</time>
      </trkpt>
      <trkpt lat="36.75992" lon="27.55581">
        <ele>12.791</ele>
        <time>2018-05-19T14:22:41Z</time>
      </trkpt>
      <trkpt lat="36.75987" lon="27.55583">
        <ele>13.081</ele>
        <time>2018-05-19T14:23:04Z</time>
      </trkpt>
      <trkpt lat="36.75983" lon="27.55581">
        <ele>13.319</ele>
        <time>2018-05-19T14:23:07Z</time>
      </trkpt>
      <trkpt lat="36.75977" lon="27.55581">
        <ele>12.908</ele>
        <time>2018-05-19T14:23:12Z</time>
      </trkpt>
      <trkpt lat="36.75972" lon="27.55581">
        <ele>12.731</ele>
        <time>2018-05-19T14:23:16Z</time>
      </trkpt>
      <trkpt lat="36.75967" lon="27.55578">
        <ele>13.014</ele>
        <time>2018-05-19T14:23:23Z</time>
      </trkpt>
      <trkpt lat="36.75962" lon="27.5558">
        <ele>13.269</ele>
        <time>2018-05-19T14:23:27Z</time>
      </trkpt>
      <trkpt lat="36.75961" lon="27.55585">
        <ele>15.222</ele>
        <time>2018-05-19T14:23:37Z</time>
      </trkpt>
      <trkpt lat="36.75958" lon="27.5559">
        <ele>14.489</ele>
        <time>2018-05-19T14:23:41Z</time>
      </trkpt>
      <trkpt lat="36.75954" lon="27.55594">
        <ele>13.886</ele>
        <time>2018-05-19T14:23:46Z</time>
      </trkpt>
      <trkpt lat="36.75951" lon="27.55599">
        <ele>13.727</ele>
        <time>2018-05-19T14:23:52Z</time>
      </trkpt>
      <trkpt lat="36.75947" lon="27.55604">
        <ele>13.731</ele>
        <time>2018-05-19T14:23:58Z</time>
      </trkpt>
      <trkpt lat="36.75942" lon="27.55603">
        <ele>13.722</ele>
        <time>2018-05-19T14:24:01Z</time>
      </trkpt>
      <trkpt lat="36.75936" lon="27.55602">
        <ele>13.562</ele>
        <time>2018-05-19T14:24:03Z</time>
      </trkpt>
      <trkpt lat="36.7594" lon="27.55608">
        <ele>13.308</ele>
        <time>2018-05-19T14:24:10Z</time>
      </trkpt>
      <trkpt lat="36.75945" lon="27.5561">
        <ele>14.108</ele>
        <time>2018-05-19T14:24:14Z</time>
      </trkpt>
      <trkpt lat="36.75947" lon="27.55615">
        <ele>14.514</ele>
        <time>2018-05-19T14:24:20Z</time>
      </trkpt>
      <trkpt lat="36.75949" lon="27.55621">
        <ele>17.097</ele>
        <time>2018-05-19T14:24:26Z</time>
      </trkpt>
      <trkpt lat="36.75955" lon="27.55621">
        <ele>17.452</ele>
        <time>2018-05-19T14:24:29Z</time>
      </trkpt>
      <trkpt lat="36.7596" lon="27.55619">
        <ele>15.435</ele>
        <time>2018-05-19T14:24:33Z</time>
      </trkpt>
      <trkpt lat="36.75964" lon="27.55623">
        <ele>13.062</ele>
        <time>2018-05-19T14:24:37Z</time>
      </trkpt>
      <trkpt lat="36.75967" lon="27.55628">
        <ele>13.319</ele>
        <time>2018-05-19T14:24:44Z</time>
      </trkpt>
      <trkpt lat="36.75967" lon="27.55633">
        <ele>13.99</ele>
        <time>2018-05-19T14:24:48Z</time>
      </trkpt>
      <trkpt lat="36.75969" lon="27.55639">
        <ele>13.614</ele>
        <time>2018-05-19T14:24:52Z</time>
      </trkpt>
      <trkpt lat="36.75972" lon="27.55643">
        <ele>14.013</ele>
        <time>2018-05-19T14:24:59Z</time>
      </trkpt>
      <trkpt lat="36.75977" lon="27.55644">
        <ele>14.843</ele>
        <time>2018-05-19T14:25:06Z</time>
      </trkpt>
      <trkpt lat="36.75979" lon="27.55649">
        <ele>14.507</ele>
        <time>2018-05-19T14:25:09Z</time>
      </trkpt>
      <trkpt lat="36.75984" lon="27.55652">
        <ele>13.308</ele>
        <time>2018-05-19T14:25:12Z</time>
      </trkpt>
      <trkpt lat="36.75987" lon="27.55657">
        <ele>12.753</ele>
        <time>2018-05-19T14:25:15Z</time>
      </trkpt>
      <trkpt lat="36.75992" lon="27.55659">
        <ele>13.066</ele>
        <time>2018-05-19T14:25:25Z</time>
      </trkpt>
      <trkpt lat="36.75995" lon="27.55664">
        <ele>13.711</ele>
        <time>2018-05-19T14:25:29Z</time>
      </trkpt>
      <trkpt lat="36.76" lon="27.55663">
        <ele>13.374</ele>
        <time>2018-05-19T14:25:34Z</time>
      </trkpt>
      <trkpt lat="36.76005" lon="27.55665">
        <ele>14.431</ele>
        <time>2018-05-19T14:25:40Z</time>
      </trkpt>
      <trkpt lat="36.76009" lon="27.55668">
        <ele>13.618</ele>
        <time>2018-05-19T14:25:47Z</time>
      </trkpt>
      <trkpt lat="36.76013" lon="27.55672">
        <ele>14.359</ele>
        <time>2018-05-19T14:25:59Z</time>
      </trkpt>
      <trkpt lat="36.76017" lon="27.55676">
        <ele>14.873</ele>
        <time>2018-05-19T14:26:03Z</time>
      </trkpt>
      <trkpt lat="36.76021" lon="27.55678">
        <ele>15.494</ele>
        <time>2018-05-19T14:26:10Z</time>
      </trkpt>
      <trkpt lat="36.76024" lon="27.55683">
        <ele>15.957</ele>
        <time>2018-05-19T14:26:18Z</time>
      </trkpt>
      <trkpt lat="36.76029" lon="27.55686">
        <ele>15.722</ele>
        <time>2018-05-19T14:26:25Z</time>
      </trkpt>
      <trkpt lat="36.76033" lon="27.55688">
        <ele>15.308</ele>
        <time>2018-05-19T14:26:33Z</time>
      </trkpt>
      <trkpt lat="36.76037" lon="27.5569">
        <ele>15.451</ele>
        <time>2018-05-19T14:26:39Z</time>
      </trkpt>
      <trkpt lat="36.7604" lon="27.55695">
        <ele>14.794</ele>
        <time>2018-05-19T14:26:48Z</time>
      </trkpt>
      <trkpt lat="36.76037" lon="27.557">
        <ele>14.919</ele>
        <time>2018-05-19T14:26:54Z</time>
      </trkpt>
      <trkpt lat="36.76039" lon="27.55706">
        <ele>14.882</ele>
        <time>2018-05-19T14:27:00Z</time>
      </trkpt>
      <trkpt lat="36.7604" lon="27.55711">
        <ele>14.769</ele>
        <time>2018-05-19T14:27:08Z</time>
      </trkpt>
      <trkpt lat="36.76042" lon="27.55717">
        <ele>13.866</ele>
        <time>2018-05-19T14:27:14Z</time>
      </trkpt>
      <trkpt lat="36.76047" lon="27.5572">
        <ele>13.647</ele>
        <time>2018-05-19T14:27:18Z</time>
      </trkpt>
      <trkpt lat="36.76049" lon="27.55725">
        <ele>13.021</ele>
        <time>2018-05-19T14:27:22Z</time>
      </trkpt>
      <trkpt lat="36.76048" lon="27.5573">
        <ele>13.651</ele>
        <time>2018-05-19T14:27:26Z</time>
      </trkpt>
      <trkpt lat="36.7605" lon="27.55736">
        <ele>13.601</ele>
        <time>2018-05-19T14:27:32Z</time>
      </trkpt>
      <trkpt lat="36.76049" lon="27.55742">
        <ele>13.011</ele>
        <time>2018-05-19T14:27:37Z</time>
      </trkpt>
      <trkpt lat="36.76048" lon="27.55748">
        <ele>13.208</ele>
        <time>2018-05-19T14:27:44Z</time>
      </trkpt>
      <trkpt lat="36.7605" lon="27.55754">
        <ele>13.617</ele>
        <time>2018-05-19T14:27:49Z</time>
      </trkpt>
      <trkpt lat="36.76053" lon="27.55759">
        <ele>12.52</ele>
        <time>2018-05-19T14:27:54Z</time>
      </trkpt>
      <trkpt lat="36.76057" lon="27.55762">
        <ele>13.095</ele>
        <time>2018-05-19T14:28:00Z</time>
      </trkpt>
      <trkpt lat="36.76061" lon="27.55766">
        <ele>11.428</ele>
        <time>2018-05-19T14:28:07Z</time>
      </trkpt>
      <trkpt lat="36.76064" lon="27.55769">
        <ele>11.095</ele>
        <time>2018-05-19T14:28:11Z</time>
      </trkpt>
      <trkpt lat="36.76069" lon="27.5577">
        <ele>10.542</ele>
        <time>2018-05-19T14:28:22Z</time>
      </trkpt>
      <trkpt lat="36.76074" lon="27.55769">
        <ele>9.723</ele>
        <time>2018-05-19T14:28:28Z</time>
      </trkpt>
      <trkpt lat="36.76079" lon="27.55768">
        <ele>8.737</ele>
        <time>2018-05-19T14:28:33Z</time>
      </trkpt>
      <trkpt lat="36.76083" lon="27.55768">
        <ele>9.144</ele>
        <time>2018-05-19T14:28:38Z</time>
      </trkpt>
      <trkpt lat="36.76087" lon="27.55771">
        <ele>9.105</ele>
        <time>2018-05-19T14:28:43Z</time>
      </trkpt>
      <trkpt lat="36.76091" lon="27.55775">
        <ele>9.015</ele>
        <time>2018-05-19T14:28:47Z</time>
      </trkpt>
      <trkpt lat="36.76094" lon="27.55781">
        <ele>9.308</ele>
        <time>2018-05-19T14:28:52Z</time>
      </trkpt>
      <trkpt lat="36.76099" lon="27.55781">
        <ele>8.926</ele>
        <time>2018-05-19T14:29:04Z</time>
      </trkpt>
      <trkpt lat="36.76097" lon="27.55787">
        <ele>9.219</ele>
        <time>2018-05-19T14:29:52Z</time>
      </trkpt>
      <trkpt lat="36.761" lon="27.55792">
        <ele>9.324</ele>
        <time>2018-05-19T14:29:57Z</time>
      </trkpt>
      <trkpt lat="36.76101" lon="27.55798">
        <ele>9.587</ele>
        <time>2018-05-19T14:30:04Z</time>
      </trkpt>
      <trkpt lat="36.76103" lon="27.55803">
        <ele>10.754</ele>
        <time>2018-05-19T14:30:10Z</time>
      </trkpt>
      <trkpt lat="36.76105" lon="27.5581">
        <ele>10.431</ele>
        <time>2018-05-19T14:30:16Z</time>
      </trkpt>
      <trkpt lat="36.76108" lon="27.55815">
        <ele>11.162</ele>
        <time>2018-05-19T14:30:21Z</time>
      </trkpt>
      <trkpt lat="36.76107" lon="27.55821">
        <ele>11.746</ele>
        <time>2018-05-19T14:30:29Z</time>
      </trkpt>
      <trkpt lat="36.76109" lon="27.55827">
        <ele>12.653</ele>
        <time>2018-05-19T14:30:36Z</time>
      </trkpt>
      <trkpt lat="36.76112" lon="27.55831">
        <ele>14.004</ele>
        <time>2018-05-19T14:30:42Z</time>
      </trkpt>
      <trkpt lat="36.76113" lon="27.55837">
        <ele>15.514</ele>
        <time>2018-05-19T14:30:51Z</time>
      </trkpt>
      <trkpt lat="36.76114" lon="27.55843">
        <ele>16.108</ele>
        <time>2018-05-19T14:30:57Z</time>
      </trkpt>
      <trkpt lat="36.76112" lon="27.55848">
        <ele>17.277</ele>
        <time>2018-05-19T14:31:02Z</time>
      </trkpt>
      <trkpt lat="36.76114" lon="27.55853">
        <ele>17.64</ele>
        <time>2018-05-19T14:31:09Z</time>
      </trkpt>
      <trkpt lat="36.76116" lon="27.55859">
        <ele>18.195</ele>
        <time>2018-05-19T14:31:17Z</time>
      </trkpt>
      <trkpt lat="36.76118" lon="27.55864">
        <ele>18.158</ele>
        <time>2018-05-19T14:31:25Z</time>
      </trkpt>
      <trkpt lat="36.76117" lon="27.55871">
        <ele>18.665</ele>
        <time>2018-05-19T14:31:31Z</time>
      </trkpt>
      <trkpt lat="36.7612" lon="27.55875">
        <ele>18.882</ele>
        <time>2018-05-19T14:31:37Z</time>
      </trkpt>
      <trkpt lat="36.76124" lon="27.55879">
        <ele>19.343</ele>
        <time>2018-05-19T14:31:43Z</time>
      </trkpt>
      <trkpt lat="36.76128" lon="27.55883">
        <ele>20.387</ele>
        <time>2018-05-19T14:31:48Z</time>
      </trkpt>
      <trkpt lat="36.76131" lon="27.55888">
        <ele>20.456</ele>
        <time>2018-05-19T14:31:53Z</time>
      </trkpt>
      <trkpt lat="36.76134" lon="27.55893">
        <ele>20.859</ele>
        <time>2018-05-19T14:32:00Z</time>
      </trkpt>
      <trkpt lat="36.76139" lon="27.55896">
        <ele>21.314</ele>
        <time>2018-05-19T14:32:05Z</time>
      </trkpt>
      <trkpt lat="36.76138" lon="27.55903">
        <ele>22.008</ele>
        <time>2018-05-19T14:32:10Z</time>
      </trkpt>
      <trkpt lat="36.76136" lon="27.55909">
        <ele>22.277</ele>
        <time>2018-05-19T14:32:15Z</time>
      </trkpt>
      <trkpt lat="36.76138" lon="27.55914">
        <ele>23.21</ele>
        <time>2018-05-19T14:32:21Z</time>
      </trkpt>
      <trkpt lat="36.76138" lon="27.5592">
        <ele>23.525</ele>
        <time>2018-05-19T14:32:27Z</time>
      </trkpt>
      <trkpt lat="36.7614" lon="27.55926">
        <ele>24.028</ele>
        <time>2018-05-19T14:32:38Z</time>
      </trkpt>
      <trkpt lat="36.76142" lon="27.55931">
        <ele>23.725</ele>
        <time>2018-05-19T14:32:43Z</time>
      </trkpt>
      <trkpt lat="36.76143" lon="27.55937">
        <ele>24.492</ele>
        <time>2018-05-19T14:32:50Z</time>
      </trkpt>
      <trkpt lat="36.76141" lon="27.55943">
        <ele>25.473</ele>
        <time>2018-05-19T14:32:56Z</time>
      </trkpt>
      <trkpt lat="36.76142" lon="27.55949">
        <ele>25.777</ele>
        <time>2018-05-19T14:33:03Z</time>
      </trkpt>
      <trkpt lat="36.76142" lon="27.55955">
        <ele>26.756</ele>
        <time>2018-05-19T14:33:15Z</time>
      </trkpt>
      <trkpt lat="36.76142" lon="27.55961">
        <ele>27.559</ele>
        <time>2018-05-19T14:33:23Z</time>
      </trkpt>
      <trkpt lat="36.76144" lon="27.55967">
        <ele>28.514</ele>
        <time>2018-05-19T14:33:29Z</time>
      </trkpt>
      <trkpt lat="36.76144" lon="27.55973">
        <ele>29.008</ele>
        <time>2018-05-19T14:33:48Z</time>
      </trkpt>
      <trkpt lat="36.76146" lon="27.55978">
        <ele>29.517</ele>
        <time>2018-05-19T14:33:55Z</time>
      </trkpt>
      <trkpt lat="36.76142" lon="27.55982">
        <ele>30.18</ele>
        <time>2018-05-19T14:34:01Z</time>
      </trkpt>
      <trkpt lat="36.76143" lon="27.55988">
        <ele>31.865</ele>
        <time>2018-05-19T14:34:08Z</time>
      </trkpt>
      <trkpt lat="36.76144" lon="27.55993">
        <ele>32.488</ele>
        <time>2018-05-19T14:34:14Z</time>
      </trkpt>
      <trkpt lat="36.76144" lon="27.55999">
        <ele>33.795</ele>
        <time>2018-05-19T14:34:22Z</time>
      </trkpt>
      <trkpt lat="36.76144" lon="27.56005">
        <ele>35.272</ele>
        <time>2018-05-19T14:34:31Z</time>
      </trkpt>
      <trkpt lat="36.76145" lon="27.5601">
        <ele>37.833</ele>
        <time>2018-05-19T14:34:48Z</time>
      </trkpt>
      <trkpt lat="36.76146" lon="27.56017">
        <ele>42.927</ele>
        <time>2018-05-19T14:38:55Z</time>
      </trkpt>
      <trkpt lat="36.76147" lon="27.56022">
        <ele>42.916</ele>
        <time>2018-05-19T14:39:02Z</time>
      </trkpt>
      <trkpt lat="36.76144" lon="27.56027">
        <ele>43.976</ele>
        <time>2018-05-19T14:39:10Z</time>
      </trkpt>
      <trkpt lat="36.76144" lon="27.56033">
        <ele>44.913</ele>
        <time>2018-05-19T14:39:23Z</time>
      </trkpt>
      <trkpt lat="36.76147" lon="27.56038">
        <ele>45.408</ele>
        <time>2018-05-19T14:39:30Z</time>
      </trkpt>
      <trkpt lat="36.7615" lon="27.56043">
        <ele>45.553</ele>
        <time>2018-05-19T14:39:37Z</time>
      </trkpt>
      <trkpt lat="36.76152" lon="27.56048">
        <ele>46.136</ele>
        <time>2018-05-19T14:39:46Z</time>
      </trkpt>
      <trkpt lat="36.76152" lon="27.56054">
        <ele>45.971</ele>
        <time>2018-05-19T14:39:52Z</time>
      </trkpt>
      <trkpt lat="36.76156" lon="27.56059">
        <ele>46.444</ele>
        <time>2018-05-19T14:39:58Z</time>
      </trkpt>
      <trkpt lat="36.76156" lon="27.56065">
        <ele>47.311</ele>
        <time>2018-05-19T14:40:05Z</time>
      </trkpt>
      <trkpt lat="36.76158" lon="27.5607">
        <ele>47.738</ele>
        <time>2018-05-19T14:40:17Z</time>
      </trkpt>
      <trkpt lat="36.76163" lon="27.56071">
        <ele>48.199</ele>
        <time>2018-05-19T14:40:23Z</time>
      </trkpt>
      <trkpt lat="36.76167" lon="27.56074">
        <ele>48.183</ele>
        <time>2018-05-19T14:40:29Z</time>
      </trkpt>
      <trkpt lat="36.76172" lon="27.56075">
        <ele>47.959</ele>
        <time>2018-05-19T14:40:35Z</time>
      </trkpt>
      <trkpt lat="36.76173" lon="27.56081">
        <ele>48.003</ele>
        <time>2018-05-19T14:40:41Z</time>
      </trkpt>
      <trkpt lat="36.76175" lon="27.56087">
        <ele>48.323</ele>
        <time>2018-05-19T14:40:47Z</time>
      </trkpt>
      <trkpt lat="36.76176" lon="27.56093">
        <ele>49.008</ele>
        <time>2018-05-19T14:40:57Z</time>
      </trkpt>
      <trkpt lat="36.76178" lon="27.56098">
        <ele>49.367</ele>
        <time>2018-05-19T14:41:05Z</time>
      </trkpt>
      <trkpt lat="36.76182" lon="27.561">
        <ele>49.63</ele>
        <time>2018-05-19T14:41:10Z</time>
      </trkpt>
      <trkpt lat="36.76182" lon="27.56107">
        <ele>49.745</ele>
        <time>2018-05-19T14:41:18Z</time>
      </trkpt>
      <trkpt lat="36.7618" lon="27.56112">
        <ele>50.568</ele>
        <time>2018-05-19T14:41:26Z</time>
      </trkpt>
      <trkpt lat="36.76184" lon="27.56115">
        <ele>51.165</ele>
        <time>2018-05-19T14:41:34Z</time>
      </trkpt>
      <trkpt lat="36.76188" lon="27.56119">
        <ele>51.032</ele>
        <time>2018-05-19T14:41:40Z</time>
      </trkpt>
      <trkpt lat="36.76193" lon="27.56122">
        <ele>51.483</ele>
        <time>2018-05-19T14:41:46Z</time>
      </trkpt>
      <trkpt lat="36.76195" lon="27.56127">
        <ele>51.517</ele>
        <time>2018-05-19T14:41:56Z</time>
      </trkpt>
      <trkpt lat="36.76199" lon="27.56132">
        <ele>50.545</ele>
        <time>2018-05-19T14:42:05Z</time>
      </trkpt>
      <trkpt lat="36.76202" lon="27.56136">
        <ele>51.047</ele>
        <time>2018-05-19T14:42:14Z</time>
      </trkpt>
      <trkpt lat="36.76204" lon="27.56142">
        <ele>51.811</ele>
        <time>2018-05-19T14:42:21Z</time>
      </trkpt>
      <trkpt lat="36.76207" lon="27.56147">
        <ele>52.108</ele>
        <time>2018-05-19T14:42:28Z</time>
      </trkpt>
      <trkpt lat="36.76207" lon="27.56152">
        <ele>51.846</ele>
        <time>2018-05-19T14:42:34Z</time>
      </trkpt>
      <trkpt lat="36.76209" lon="27.56158">
        <ele>51.079</ele>
        <time>2018-05-19T14:42:41Z</time>
      </trkpt>
      <trkpt lat="36.7621" lon="27.56165">
        <ele>51.954</ele>
        <time>2018-05-19T14:42:49Z</time>
      </trkpt>
      <trkpt lat="36.76213" lon="27.56169">
        <ele>52.427</ele>
        <time>2018-05-19T14:42:54Z</time>
      </trkpt>
      <trkpt lat="36.76216" lon="27.56174">
        <ele>50.764</ele>
        <time>2018-05-19T14:43:09Z</time>
      </trkpt>
      <trkpt lat="36.76218" lon="27.56179">
        <ele>50.251</ele>
        <time>2018-05-19T14:43:14Z</time>
      </trkpt>
      <trkpt lat="36.7622" lon="27.56185">
        <ele>49.432</ele>
        <time>2018-05-19T14:43:19Z</time>
      </trkpt>
      <trkpt lat="36.76223" lon="27.5619">
        <ele>48.866</ele>
        <time>2018-05-19T14:43:23Z</time>
      </trkpt>
      <trkpt lat="36.76225" lon="27.56195">
        <ele>49.131</ele>
        <time>2018-05-19T14:43:28Z</time>
      </trkpt>
      <trkpt lat="36.76227" lon="27.56201">
        <ele>49.561</ele>
        <time>2018-05-19T14:43:33Z</time>
      </trkpt>
      <trkpt lat="36.76228" lon="27.56208">
        <ele>49.007</ele>
        <time>2018-05-19T14:43:43Z</time>
      </trkpt>
      <trkpt lat="36.7623" lon="27.56213">
        <ele>50.308</ele>
        <time>2018-05-19T14:43:50Z</time>
      </trkpt>
      <trkpt lat="36.7623" lon="27.56219">
        <ele>50.965</ele>
        <time>2018-05-19T14:43:57Z</time>
      </trkpt>
      <trkpt lat="36.7623" lon="27.56225">
        <ele>51.438</ele>
        <time>2018-05-19T14:44:04Z</time>
      </trkpt>
      <trkpt lat="36.76229" lon="27.5623">
        <ele>50.843</ele>
        <time>2018-05-19T14:44:11Z</time>
      </trkpt>
      <trkpt lat="36.76231" lon="27.56236">
        <ele>51.426</ele>
        <time>2018-05-19T14:44:17Z</time>
      </trkpt>
      <trkpt lat="36.76233" lon="27.56241">
        <ele>51.643</ele>
        <time>2018-05-19T14:44:25Z</time>
      </trkpt>
      <trkpt lat="36.76233" lon="27.56247">
        <ele>51.63</ele>
        <time>2018-05-19T14:44:31Z</time>
      </trkpt>
      <trkpt lat="36.76237" lon="27.56251">
        <ele>51.371</ele>
        <time>2018-05-19T14:44:35Z</time>
      </trkpt>
      <trkpt lat="36.76238" lon="27.56257">
        <ele>50.345</ele>
        <time>2018-05-19T14:44:41Z</time>
      </trkpt>
      <trkpt lat="36.76236" lon="27.56263">
        <ele>49.863</ele>
        <time>2018-05-19T14:44:48Z</time>
      </trkpt>
      <trkpt lat="36.76236" lon="27.56268">
        <ele>49.344</ele>
        <time>2018-05-19T14:44:53Z</time>
      </trkpt>
      <trkpt lat="36.76236" lon="27.56274">
        <ele>48.218</ele>
        <time>2018-05-19T14:45:00Z</time>
      </trkpt>
      <trkpt lat="36.76236" lon="27.56281">
        <ele>47.308</ele>
        <time>2018-05-19T14:45:10Z</time>
      </trkpt>
      <trkpt lat="36.76233" lon="27.56286">
        <ele>47.088</ele>
        <time>2018-05-19T14:45:18Z</time>
      </trkpt>
      <trkpt lat="36.76235" lon="27.56291">
        <ele>46.171</ele>
        <time>2018-05-19T14:45:23Z</time>
      </trkpt>
      <trkpt lat="36.76239" lon="27.56295">
        <ele>45.866</ele>
        <time>2018-05-19T14:45:27Z</time>
      </trkpt>
      <trkpt lat="36.76238" lon="27.56301">
        <ele>46.149</ele>
        <time>2018-05-19T14:45:35Z</time>
      </trkpt>
      <trkpt lat="36.7624" lon="27.56306">
        <ele>46.076</ele>
        <time>2018-05-19T14:45:40Z</time>
      </trkpt>
      <trkpt lat="36.76238" lon="27.56311">
        <ele>47.693</ele>
        <time>2018-05-19T14:45:47Z</time>
      </trkpt>
      <trkpt lat="36.76235" lon="27.56316">
        <ele>47.124</ele>
        <time>2018-05-19T14:45:53Z</time>
      </trkpt>
      <trkpt lat="36.76236" lon="27.56322">
        <ele>46.848</ele>
        <time>2018-05-19T14:45:57Z</time>
      </trkpt>
      <trkpt lat="36.7624" lon="27.56327">
        <ele>46.677</ele>
        <time>2018-05-19T14:46:01Z</time>
      </trkpt>
      <trkpt lat="36.76243" lon="27.56332">
        <ele>46.361</ele>
        <time>2018-05-19T14:46:05Z</time>
      </trkpt>
      <trkpt lat="36.76242" lon="27.56338">
        <ele>46.127</ele>
        <time>2018-05-19T14:46:13Z</time>
      </trkpt>
      <trkpt lat="36.76244" lon="27.56343">
        <ele>45.608</ele>
        <time>2018-05-19T14:46:19Z</time>
      </trkpt>
      <trkpt lat="36.76245" lon="27.56349">
        <ele>43.319</ele>
        <time>2018-05-19T14:46:29Z</time>
      </trkpt>
      <trkpt lat="36.76243" lon="27.56355">
        <ele>43.122</ele>
        <time>2018-05-19T14:46:36Z</time>
      </trkpt>
      <trkpt lat="36.76242" lon="27.56361">
        <ele>43.677</ele>
        <time>2018-05-19T14:46:41Z</time>
      </trkpt>
      <trkpt lat="36.76242" lon="27.56368">
        <ele>44.95</ele>
        <time>2018-05-19T14:46:47Z</time>
      </trkpt>
      <trkpt lat="36.76241" lon="27.56374">
        <ele>44.287</ele>
        <time>2018-05-19T14:46:53Z</time>
      </trkpt>
      <trkpt lat="36.76243" lon="27.56379">
        <ele>44.444</ele>
        <time>2018-05-19T14:46:59Z</time>
      </trkpt>
      <trkpt lat="36.76244" lon="27.56385">
        <ele>44.795</ele>
        <time>2018-05-19T14:47:06Z</time>
      </trkpt>
      <trkpt lat="36.76243" lon="27.5639">
        <ele>44.549</ele>
        <time>2018-05-19T14:47:12Z</time>
      </trkpt>
      <trkpt lat="36.76244" lon="27.56396">
        <ele>45.047</ele>
        <time>2018-05-19T14:47:20Z</time>
      </trkpt>
      <trkpt lat="36.76246" lon="27.56402">
        <ele>44.929</ele>
        <time>2018-05-19T14:47:27Z</time>
      </trkpt>
      <trkpt lat="36.76245" lon="27.56408">
        <ele>43.521</ele>
        <time>2018-05-19T14:47:32Z</time>
      </trkpt>
      <trkpt lat="36.76245" lon="27.56414">
        <ele>43.708</ele>
        <time>2018-05-19T14:47:39Z</time>
      </trkpt>
      <trkpt lat="36.76248" lon="27.56418">
        <ele>43.196</ele>
        <time>2018-05-19T14:47:44Z</time>
      </trkpt>
      <trkpt lat="36.76248" lon="27.56425">
        <ele>43.029</ele>
        <time>2018-05-19T14:47:52Z</time>
      </trkpt>
      <trkpt lat="36.76251" lon="27.5643">
        <ele>42.884</ele>
        <time>2018-05-19T14:47:57Z</time>
      </trkpt>
      <trkpt lat="36.76249" lon="27.56436">
        <ele>40.867</ele>
        <time>2018-05-19T14:48:03Z</time>
      </trkpt>
      <trkpt lat="36.76248" lon="27.56442">
        <ele>40.374</ele>
        <time>2018-05-19T14:48:09Z</time>
      </trkpt>
      <trkpt lat="36.76246" lon="27.56447">
        <ele>39.511</ele>
        <time>2018-05-19T14:48:15Z</time>
      </trkpt>
      <trkpt lat="36.76244" lon="27.56453">
        <ele>38.822</ele>
        <time>2018-05-19T14:48:23Z</time>
      </trkpt>
      <trkpt lat="36.76243" lon="27.56459">
        <ele>37.396</ele>
        <time>2018-05-19T14:48:31Z</time>
      </trkpt>
      <trkpt lat="36.76246" lon="27.56465">
        <ele>37.265</ele>
        <time>2018-05-19T14:48:37Z</time>
      </trkpt>
      <trkpt lat="36.76244" lon="27.5647">
        <ele>35.768</ele>
        <time>2018-05-19T14:48:43Z</time>
      </trkpt>
      <trkpt lat="36.76243" lon="27.56477">
        <ele>35.914</ele>
        <time>2018-05-19T14:48:49Z</time>
      </trkpt>
      <trkpt lat="36.76246" lon="27.56482">
        <ele>34.908</ele>
        <time>2018-05-19T14:48:56Z</time>
      </trkpt>
      <trkpt lat="36.76246" lon="27.56488">
        <ele>35.988</ele>
        <time>2018-05-19T14:49:02Z</time>
      </trkpt>
      <trkpt lat="36.76245" lon="27.56494">
        <ele>38.331</ele>
        <time>2018-05-19T14:49:10Z</time>
      </trkpt>
      <trkpt lat="36.76242" lon="27.56499">
        <ele>38.836</ele>
        <time>2018-05-19T14:49:17Z</time>
      </trkpt>
      <trkpt lat="36.76238" lon="27.56503">
        <ele>39.269</ele>
        <time>2018-05-19T14:49:22Z</time>
      </trkpt>
      <trkpt lat="36.76235" lon="27.56508">
        <ele>38.626</ele>
        <time>2018-05-19T14:49:26Z</time>
      </trkpt>
      <trkpt lat="36.76236" lon="27.56514">
        <ele>38.733</ele>
        <time>2018-05-19T14:49:32Z</time>
      </trkpt>
      <trkpt lat="36.76236" lon="27.56521">
        <ele>38.124</ele>
        <time>2018-05-19T14:49:38Z</time>
      </trkpt>
      <trkpt lat="36.76236" lon="27.56527">
        <ele>37.918</ele>
        <time>2018-05-19T14:49:45Z</time>
      </trkpt>
      <trkpt lat="36.76233" lon="27.56532">
        <ele>37.732</ele>
        <time>2018-05-19T14:49:55Z</time>
      </trkpt>
      <trkpt lat="36.76231" lon="27.56537">
        <ele>37.892</ele>
        <time>2018-05-19T14:50:03Z</time>
      </trkpt>
      <trkpt lat="36.76231" lon="27.56543">
        <ele>36.611</ele>
        <time>2018-05-19T14:50:13Z</time>
      </trkpt>
      <trkpt lat="36.76229" lon="27.56548">
        <ele>34.908</ele>
        <time>2018-05-19T14:50:21Z</time>
      </trkpt>
      <trkpt lat="36.76227" lon="27.56554">
        <ele>33.225</ele>
        <time>2018-05-19T14:50:28Z</time>
      </trkpt>
      <trkpt lat="36.76222" lon="27.56553">
        <ele>32.178</ele>
        <time>2018-05-19T14:50:36Z</time>
      </trkpt>
      <trkpt lat="36.7622" lon="27.56559">
        <ele>31.863</ele>
        <time>2018-05-19T14:50:46Z</time>
      </trkpt>
      <trkpt lat="36.76215" lon="27.5656">
        <ele>31.416</ele>
        <time>2018-05-19T14:50:53Z</time>
      </trkpt>
      <trkpt lat="36.76211" lon="27.56562">
        <ele>31.143</ele>
        <time>2018-05-19T14:50:59Z</time>
      </trkpt>
      <trkpt lat="36.76211" lon="27.56568">
        <ele>30.09</ele>
        <time>2018-05-19T14:51:04Z</time>
      </trkpt>
      <trkpt lat="36.76211" lon="27.56574">
        <ele>28.651</ele>
        <time>2018-05-19T14:51:13Z</time>
      </trkpt>
      <trkpt lat="36.76213" lon="27.56579">
        <ele>27.215</ele>
        <time>2018-05-19T14:51:22Z</time>
      </trkpt>
      <trkpt lat="36.76217" lon="27.56582">
        <ele>26.072</ele>
        <time>2018-05-19T14:51:30Z</time>
      </trkpt>
      <trkpt lat="36.76222" lon="27.56583">
        <ele>25.013</ele>
        <time>2018-05-19T14:51:40Z</time>
      </trkpt>
      <trkpt lat="36.76225" lon="27.56587">
        <ele>24.514</ele>
        <time>2018-05-19T14:51:50Z</time>
      </trkpt>
      <trkpt lat="36.76229" lon="27.5659">
        <ele>24.208</ele>
        <time>2018-05-19T14:51:57Z</time>
      </trkpt>
      <trkpt lat="36.76233" lon="27.56593">
        <ele>23.529</ele>
        <time>2018-05-19T14:52:05Z</time>
      </trkpt>
      <trkpt lat="36.76235" lon="27.56598">
        <ele>23.232</ele>
        <time>2018-05-19T14:52:13Z</time>
      </trkpt>
      <trkpt lat="36.76238" lon="27.56603">
        <ele>18.417</ele>
        <time>2018-05-19T14:52:32Z</time>
      </trkpt>
      <trkpt lat="36.76242" lon="27.56606">
        <ele>18.15</ele>
        <time>2018-05-19T14:52:38Z</time>
      </trkpt>
      <trkpt lat="36.76246" lon="27.56609">
        <ele>17.097</ele>
        <time>2018-05-19T14:52:47Z</time>
      </trkpt>
      <trkpt lat="36.7625" lon="27.56613">
        <ele>16.624</ele>
        <time>2018-05-19T14:52:56Z</time>
      </trkpt>
      <trkpt lat="36.76255" lon="27.56614">
        <ele>14.665</ele>
        <time>2018-05-19T14:53:05Z</time>
      </trkpt>
      <trkpt lat="36.7626" lon="27.56616">
        <ele>14.159</ele>
        <time>2018-05-19T14:53:12Z</time>
      </trkpt>
      <trkpt lat="36.76262" lon="27.56622">
        <ele>12.947</ele>
        <time>2018-05-19T14:53:20Z</time>
      </trkpt>
      <trkpt lat="36.76259" lon="27.5662">
        <ele>6.711</ele>
        <time>2018-05-19T15:51:15Z</time>
      </trkpt>
      <trkpt lat="36.76255" lon="27.56623">
        <ele>7.274</ele>
        <time>2018-05-19T15:51:20Z</time>
      </trkpt>
      <trkpt lat="36.76253" lon="27.5663">
        <ele>8.399</ele>
        <time>2018-05-19T15:51:45Z</time>
      </trkpt>
      <trkpt lat="36.76248" lon="27.56627">
        <ele>9.822</ele>
        <time>2018-05-19T15:51:54Z</time>
      </trkpt>
      <trkpt lat="36.76245" lon="27.56631">
        <ele>9.949</ele>
        <time>2018-05-19T15:52:21Z</time>
      </trkpt>
      <trkpt lat="36.76243" lon="27.56637">
        <ele>10.956</ele>
        <time>2018-05-19T15:52:31Z</time>
      </trkpt>
      <trkpt lat="36.76243" lon="27.56643">
        <ele>11.497</ele>
        <time>2018-05-19T15:52:37Z</time>
      </trkpt>
      <trkpt lat="36.76243" lon="27.56649">
        <ele>11.381</ele>
        <time>2018-05-19T15:52:43Z</time>
      </trkpt>
      <trkpt lat="36.76242" lon="27.56655">
        <ele>11.852</ele>
        <time>2018-05-19T15:52:50Z</time>
      </trkpt>
      <trkpt lat="36.76243" lon="27.56661">
        <ele>11.553</ele>
        <time>2018-05-19T15:52:56Z</time>
      </trkpt>
      <trkpt lat="36.76245" lon="27.56667">
        <ele>12.308</ele>
        <time>2018-05-19T15:53:03Z</time>
      </trkpt>
      <trkpt lat="36.76247" lon="27.56672">
        <ele>12.708</ele>
        <time>2018-05-19T15:53:09Z</time>
      </trkpt>
      <trkpt lat="36.76249" lon="27.56677">
        <ele>12.397</ele>
        <time>2018-05-19T15:53:16Z</time>
      </trkpt>
      <trkpt lat="36.76251" lon="27.56683">
        <ele>12.85</ele>
        <time>2018-05-19T15:53:21Z</time>
      </trkpt>
      <trkpt lat="36.76252" lon="27.56688">
        <ele>13.145</ele>
        <time>2018-05-19T15:53:27Z</time>
      </trkpt>
      <trkpt lat="36.76253" lon="27.56694">
        <ele>13.128</ele>
        <time>2018-05-19T15:53:33Z</time>
      </trkpt>
      <trkpt lat="36.76254" lon="27.56701">
        <ele>12.525</ele>
        <time>2018-05-19T15:53:39Z</time>
      </trkpt>
      <trkpt lat="36.76254" lon="27.56707">
        <ele>12.572</ele>
        <time>2018-05-19T15:53:45Z</time>
      </trkpt>
      <trkpt lat="36.76253" lon="27.56713">
        <ele>12.793</ele>
        <time>2018-05-19T15:53:53Z</time>
      </trkpt>
      <trkpt lat="36.76253" lon="27.56718">
        <ele>13.577</ele>
        <time>2018-05-19T15:53:59Z</time>
      </trkpt>
      <trkpt lat="36.76252" lon="27.56724">
        <ele>14.139</ele>
        <time>2018-05-19T15:54:05Z</time>
      </trkpt>
      <trkpt lat="36.76252" lon="27.5673">
        <ele>14.001</ele>
        <time>2018-05-19T15:54:12Z</time>
      </trkpt>
      <trkpt lat="36.76253" lon="27.56737">
        <ele>14.121</ele>
        <time>2018-05-19T15:54:18Z</time>
      </trkpt>
      <trkpt lat="36.76252" lon="27.56742">
        <ele>14.708</ele>
        <time>2018-05-19T15:54:23Z</time>
      </trkpt>
      <trkpt lat="36.76254" lon="27.56749">
        <ele>15.795</ele>
        <time>2018-05-19T15:54:29Z</time>
      </trkpt>
      <trkpt lat="36.76254" lon="27.56755">
        <ele>15.528</ele>
        <time>2018-05-19T15:54:36Z</time>
      </trkpt>
      <trkpt lat="36.76255" lon="27.56761">
        <ele>16.013</ele>
        <time>2018-05-19T15:54:44Z</time>
      </trkpt>
      <trkpt lat="36.76256" lon="27.56766">
        <ele>16.466</ele>
        <time>2018-05-19T15:54:48Z</time>
      </trkpt>
      <trkpt lat="36.76256" lon="27.56773">
        <ele>16.233</ele>
        <time>2018-05-19T15:54:54Z</time>
      </trkpt>
      <trkpt lat="36.76256" lon="27.56779">
        <ele>16.65</ele>
        <time>2018-05-19T15:54:59Z</time>
      </trkpt>
      <trkpt lat="36.76257" lon="27.56785">
        <ele>17.161</ele>
        <time>2018-05-19T15:55:04Z</time>
      </trkpt>
      <trkpt lat="36.76258" lon="27.56791">
        <ele>17.365</ele>
        <time>2018-05-19T15:55:09Z</time>
      </trkpt>
      <trkpt lat="36.76259" lon="27.56797">
        <ele>17.335</ele>
        <time>2018-05-19T15:55:14Z</time>
      </trkpt>
      <trkpt lat="36.7626" lon="27.56803">
        <ele>17.386</ele>
        <time>2018-05-19T15:55:19Z</time>
      </trkpt>
      <trkpt lat="36.76261" lon="27.56809">
        <ele>18.214</ele>
        <time>2018-05-19T15:55:24Z</time>
      </trkpt>
      <trkpt lat="36.76261" lon="27.56815">
        <ele>18.708</ele>
        <time>2018-05-19T15:55:30Z</time>
      </trkpt>
      <trkpt lat="36.76262" lon="27.56821">
        <ele>19.355</ele>
        <time>2018-05-19T15:55:35Z</time>
      </trkpt>
      <trkpt lat="36.76264" lon="27.56827">
        <ele>19.828</ele>
        <time>2018-05-19T15:55:40Z</time>
      </trkpt>
      <trkpt lat="36.76265" lon="27.56833">
        <ele>19.983</ele>
        <time>2018-05-19T15:55:45Z</time>
      </trkpt>
      <trkpt lat="36.76267" lon="27.56838">
        <ele>19.026</ele>
        <time>2018-05-19T15:55:50Z</time>
      </trkpt>
      <trkpt lat="36.76268" lon="27.56844">
        <ele>18.153</ele>
        <time>2018-05-19T15:55:55Z</time>
      </trkpt>
      <trkpt lat="36.76269" lon="27.5685">
        <ele>17.09</ele>
        <time>2018-05-19T15:56:00Z</time>
      </trkpt>
      <trkpt lat="36.7627" lon="27.56856">
        <ele>16.331</ele>
        <time>2018-05-19T15:56:06Z</time>
      </trkpt>
      <trkpt lat="36.7627" lon="27.56862">
        <ele>16.625</ele>
        <time>2018-05-19T15:56:11Z</time>
      </trkpt>
      <trkpt lat="36.76271" lon="27.56867">
        <ele>16.618</ele>
        <time>2018-05-19T15:56:16Z</time>
      </trkpt>
      <trkpt lat="36.76271" lon="27.56873">
        <ele>17.098</ele>
        <time>2018-05-19T15:56:21Z</time>
      </trkpt>
      <trkpt lat="36.76271" lon="27.56879">
        <ele>17.217</ele>
        <time>2018-05-19T15:56:26Z</time>
      </trkpt>
      <trkpt lat="36.76271" lon="27.56886">
        <ele>17.408</ele>
        <time>2018-05-19T15:56:32Z</time>
      </trkpt>
      <trkpt lat="36.76272" lon="27.56892">
        <ele>17.913</ele>
        <time>2018-05-19T15:56:37Z</time>
      </trkpt>
      <trkpt lat="36.76272" lon="27.56897">
        <ele>17.646</ele>
        <time>2018-05-19T15:56:43Z</time>
      </trkpt>
      <trkpt lat="36.76271" lon="27.56904">
        <ele>18.151</ele>
        <time>2018-05-19T15:56:48Z</time>
      </trkpt>
      <trkpt lat="36.76269" lon="27.5691">
        <ele>18.354</ele>
        <time>2018-05-19T15:56:53Z</time>
      </trkpt>
      <trkpt lat="36.76267" lon="27.56915">
        <ele>18.611</ele>
        <time>2018-05-19T15:56:57Z</time>
      </trkpt>
      <trkpt lat="36.76265" lon="27.56921">
        <ele>18.938</ele>
        <time>2018-05-19T15:57:02Z</time>
      </trkpt>
      <trkpt lat="36.76262" lon="27.56926">
        <ele>19.439</ele>
        <time>2018-05-19T15:57:08Z</time>
      </trkpt>
      <trkpt lat="36.7626" lon="27.56932">
        <ele>19.093</ele>
        <time>2018-05-19T15:57:14Z</time>
      </trkpt>
      <trkpt lat="36.76257" lon="27.56937">
        <ele>18.736</ele>
        <time>2018-05-19T15:57:19Z</time>
      </trkpt>
      <trkpt lat="36.76255" lon="27.56943">
        <ele>19.317</ele>
        <time>2018-05-19T15:57:24Z</time>
      </trkpt>
      <trkpt lat="36.76252" lon="27.56947">
        <ele>20.118</ele>
        <time>2018-05-19T15:57:30Z</time>
      </trkpt>
      <trkpt lat="36.76252" lon="27.56953">
        <ele>20.708</ele>
        <time>2018-05-19T15:57:34Z</time>
      </trkpt>
      <trkpt lat="36.76251" lon="27.56959">
        <ele>21.335</ele>
        <time>2018-05-19T15:57:39Z</time>
      </trkpt>
      <trkpt lat="36.76251" lon="27.56965">
        <ele>21.048</ele>
        <time>2018-05-19T15:57:43Z</time>
      </trkpt>
      <trkpt lat="36.76249" lon="27.56972">
        <ele>21.233</ele>
        <time>2018-05-19T15:57:48Z</time>
      </trkpt>
      <trkpt lat="36.76249" lon="27.56978">
        <ele>21.496</ele>
        <time>2018-05-19T15:57:53Z</time>
      </trkpt>
      <trkpt lat="36.76248" lon="27.56984">
        <ele>21.473</ele>
        <time>2018-05-19T15:58:00Z</time>
      </trkpt>
      <trkpt lat="36.76246" lon="27.5699">
        <ele>21.48</ele>
        <time>2018-05-19T15:58:05Z</time>
      </trkpt>
      <trkpt lat="36.76242" lon="27.56994">
        <ele>21.731</ele>
        <time>2018-05-19T15:58:10Z</time>
      </trkpt>
      <trkpt lat="36.76238" lon="27.56996">
        <ele>21.925</ele>
        <time>2018-05-19T15:58:16Z</time>
      </trkpt>
      <trkpt lat="36.76232" lon="27.56997">
        <ele>22.234</ele>
        <time>2018-05-19T15:58:22Z</time>
      </trkpt>
      <trkpt lat="36.76228" lon="27.56998">
        <ele>22.155</ele>
        <time>2018-05-19T15:58:27Z</time>
      </trkpt>
      <trkpt lat="36.76223" lon="27.56999">
        <ele>22.91</ele>
        <time>2018-05-19T15:58:39Z</time>
      </trkpt>
      <trkpt lat="36.76219" lon="27.57003">
        <ele>22.908</ele>
        <time>2018-05-19T15:58:43Z</time>
      </trkpt>
      <trkpt lat="36.76214" lon="27.57003">
        <ele>23.085</ele>
        <time>2018-05-19T15:58:50Z</time>
      </trkpt>
      <trkpt lat="36.76209" lon="27.57003">
        <ele>23.068</ele>
        <time>2018-05-19T15:58:53Z</time>
      </trkpt>
      <trkpt lat="36.76204" lon="27.57003">
        <ele>23.793</ele>
        <time>2018-05-19T15:58:58Z</time>
      </trkpt>
      <trkpt lat="36.76199" lon="27.57002">
        <ele>24.166</ele>
        <time>2018-05-19T15:59:02Z</time>
      </trkpt>
      <trkpt lat="36.76194" lon="27.57002">
        <ele>25.573</ele>
        <time>2018-05-19T15:59:07Z</time>
      </trkpt>
      <trkpt lat="36.76189" lon="27.57004">
        <ele>24.94</ele>
        <time>2018-05-19T15:59:13Z</time>
      </trkpt>
      <trkpt lat="36.76185" lon="27.57007">
        <ele>27.251</ele>
        <time>2018-05-19T15:59:31Z</time>
      </trkpt>
      <trkpt lat="36.76179" lon="27.57008">
        <ele>27.615</ele>
        <time>2018-05-19T15:59:35Z</time>
      </trkpt>
      <trkpt lat="36.76173" lon="27.5701">
        <ele>26.447</ele>
        <time>2018-05-19T15:59:41Z</time>
      </trkpt>
      <trkpt lat="36.76168" lon="27.57011">
        <ele>26.829</ele>
        <time>2018-05-19T15:59:47Z</time>
      </trkpt>
      <trkpt lat="36.76163" lon="27.57013">
        <ele>26.421</ele>
        <time>2018-05-19T15:59:52Z</time>
      </trkpt>
      <trkpt lat="36.76158" lon="27.57013">
        <ele>25.508</ele>
        <time>2018-05-19T15:59:58Z</time>
      </trkpt>
      <trkpt lat="36.76154" lon="27.57014">
        <ele>26.986</ele>
        <time>2018-05-19T16:00:03Z</time>
      </trkpt>
      <trkpt lat="36.76149" lon="27.57017">
        <ele>27.769</ele>
        <time>2018-05-19T16:00:08Z</time>
      </trkpt>
      <trkpt lat="36.76146" lon="27.57022">
        <ele>27.754</ele>
        <time>2018-05-19T16:00:13Z</time>
      </trkpt>
      <trkpt lat="36.76143" lon="27.57027">
        <ele>27.317</ele>
        <time>2018-05-19T16:00:18Z</time>
      </trkpt>
      <trkpt lat="36.7614" lon="27.57031">
        <ele>27.224</ele>
        <time>2018-05-19T16:00:23Z</time>
      </trkpt>
      <trkpt lat="36.76138" lon="27.57037">
        <ele>27.161</ele>
        <time>2018-05-19T16:00:29Z</time>
      </trkpt>
      <trkpt lat="36.76139" lon="27.57043">
        <ele>27.612</ele>
        <time>2018-05-19T16:00:36Z</time>
      </trkpt>
      <trkpt lat="36.76143" lon="27.57047">
        <ele>27.346</ele>
        <time>2018-05-19T16:00:41Z</time>
      </trkpt>
      <trkpt lat="36.76146" lon="27.57052">
        <ele>27.051</ele>
        <time>2018-05-19T16:00:47Z</time>
      </trkpt>
      <trkpt lat="36.76149" lon="27.57056">
        <ele>27.001</ele>
        <time>2018-05-19T16:00:52Z</time>
      </trkpt>
      <trkpt lat="36.76153" lon="27.57061">
        <ele>27.511</ele>
        <time>2018-05-19T16:00:57Z</time>
      </trkpt>
      <trkpt lat="36.76157" lon="27.57066">
        <ele>27.208</ele>
        <time>2018-05-19T16:01:02Z</time>
      </trkpt>
      <trkpt lat="36.7616" lon="27.5707">
        <ele>27.847</ele>
        <time>2018-05-19T16:01:06Z</time>
      </trkpt>
      <trkpt lat="36.76165" lon="27.57073">
        <ele>28.26</ele>
        <time>2018-05-19T16:01:11Z</time>
      </trkpt>
      <trkpt lat="36.76169" lon="27.57075">
        <ele>28.645</ele>
        <time>2018-05-19T16:01:16Z</time>
      </trkpt>
      <trkpt lat="36.76174" lon="27.57077">
        <ele>29.138</ele>
        <time>2018-05-19T16:01:21Z</time>
      </trkpt>
      <trkpt lat="36.76178" lon="27.5708">
        <ele>29.075</ele>
        <time>2018-05-19T16:01:26Z</time>
      </trkpt>
      <trkpt lat="36.76182" lon="27.57083">
        <ele>30.082</ele>
        <time>2018-05-19T16:01:31Z</time>
      </trkpt>
      <trkpt lat="36.76187" lon="27.57084">
        <ele>30.843</ele>
        <time>2018-05-19T16:01:36Z</time>
      </trkpt>
      <trkpt lat="36.76191" lon="27.57085">
        <ele>31.647</ele>
        <time>2018-05-19T16:01:41Z</time>
      </trkpt>
      <trkpt lat="36.76196" lon="27.57086">
        <ele>32.588</ele>
        <time>2018-05-19T16:01:46Z</time>
      </trkpt>
      <trkpt lat="36.76201" lon="27.57087">
        <ele>32.624</ele>
        <time>2018-05-19T16:01:51Z</time>
      </trkpt>
      <trkpt lat="36.76205" lon="27.57089">
        <ele>32.826</ele>
        <time>2018-05-19T16:01:56Z</time>
      </trkpt>
      <trkpt lat="36.7621" lon="27.57089">
        <ele>32.908</ele>
        <time>2018-05-19T16:02:01Z</time>
      </trkpt>
      <trkpt lat="36.76215" lon="27.5709">
        <ele>33.02</ele>
        <time>2018-05-19T16:02:06Z</time>
      </trkpt>
      <trkpt lat="36.7622" lon="27.5709">
        <ele>33.363</ele>
        <time>2018-05-19T16:02:11Z</time>
      </trkpt>
      <trkpt lat="36.76224" lon="27.5709">
        <ele>33.288</ele>
        <time>2018-05-19T16:02:16Z</time>
      </trkpt>
      <trkpt lat="36.76229" lon="27.5709">
        <ele>33.821</ele>
        <time>2018-05-19T16:02:20Z</time>
      </trkpt>
      <trkpt lat="36.76234" lon="27.5709">
        <ele>33.738</ele>
        <time>2018-05-19T16:02:25Z</time>
      </trkpt>
      <trkpt lat="36.76239" lon="27.5709">
        <ele>34.035</ele>
        <time>2018-05-19T16:02:29Z</time>
      </trkpt>
      <trkpt lat="36.76243" lon="27.57091">
        <ele>34.366</ele>
        <time>2018-05-19T16:02:34Z</time>
      </trkpt>
      <trkpt lat="36.76248" lon="27.57091">
        <ele>34.02</ele>
        <time>2018-05-19T16:02:39Z</time>
      </trkpt>
      <trkpt lat="36.76253" lon="27.57091">
        <ele>34.879</ele>
        <time>2018-05-19T16:02:44Z</time>
      </trkpt>
      <trkpt lat="36.76258" lon="27.57091">
        <ele>35.705</ele>
        <time>2018-05-19T16:02:50Z</time>
      </trkpt>
      <trkpt lat="36.76263" lon="27.57093">
        <ele>35.725</ele>
        <time>2018-05-19T16:02:55Z</time>
      </trkpt>
      <trkpt lat="36.76267" lon="27.57097">
        <ele>35.908</ele>
        <time>2018-05-19T16:03:00Z</time>
      </trkpt>
      <trkpt lat="36.76271" lon="27.571">
        <ele>36.439</ele>
        <time>2018-05-19T16:03:05Z</time>
      </trkpt>
      <trkpt lat="36.76275" lon="27.57104">
        <ele>36.962</ele>
        <time>2018-05-19T16:03:11Z</time>
      </trkpt>
      <trkpt lat="36.76279" lon="27.57108">
        <ele>35.827</ele>
        <time>2018-05-19T16:03:16Z</time>
      </trkpt>
      <trkpt lat="36.76282" lon="27.57112">
        <ele>35.04</ele>
        <time>2018-05-19T16:03:21Z</time>
      </trkpt>
      <trkpt lat="36.76285" lon="27.57118">
        <ele>34.417</ele>
        <time>2018-05-19T16:03:26Z</time>
      </trkpt>
      <trkpt lat="36.76288" lon="27.57123">
        <ele>32.194</ele>
        <time>2018-05-19T16:03:32Z</time>
      </trkpt>
      <trkpt lat="36.76291" lon="27.57128">
        <ele>32.525</ele>
        <time>2018-05-19T16:03:37Z</time>
      </trkpt>
      <trkpt lat="36.76294" lon="27.57133">
        <ele>32.719</ele>
        <time>2018-05-19T16:03:42Z</time>
      </trkpt>
      <trkpt lat="36.76297" lon="27.57137">
        <ele>31.441</ele>
        <time>2018-05-19T16:03:47Z</time>
      </trkpt>
      <trkpt lat="36.763" lon="27.57142">
        <ele>31.481</ele>
        <time>2018-05-19T16:03:52Z</time>
      </trkpt>
      <trkpt lat="36.76303" lon="27.57147">
        <ele>30.209</ele>
        <time>2018-05-19T16:03:58Z</time>
      </trkpt>
      <trkpt lat="36.76304" lon="27.57153">
        <ele>29.608</ele>
        <time>2018-05-19T16:04:04Z</time>
      </trkpt>
      <trkpt lat="36.76305" lon="27.57159">
        <ele>29.276</ele>
        <time>2018-05-19T16:04:10Z</time>
      </trkpt>
      <trkpt lat="36.76306" lon="27.57165">
        <ele>29.569</ele>
        <time>2018-05-19T16:04:16Z</time>
      </trkpt>
      <trkpt lat="36.76307" lon="27.57171">
        <ele>29.754</ele>
        <time>2018-05-19T16:04:22Z</time>
      </trkpt>
      <trkpt lat="36.76307" lon="27.57177">
        <ele>30.377</ele>
        <time>2018-05-19T16:04:29Z</time>
      </trkpt>
      <trkpt lat="36.76307" lon="27.57183">
        <ele>30.884</ele>
        <time>2018-05-19T16:04:34Z</time>
      </trkpt>
      <trkpt lat="36.76308" lon="27.57189">
        <ele>30.231</ele>
        <time>2018-05-19T16:04:41Z</time>
      </trkpt>
      <trkpt lat="36.7631" lon="27.57194">
        <ele>31.472</ele>
        <time>2018-05-19T16:04:47Z</time>
      </trkpt>
      <trkpt lat="36.76312" lon="27.572">
        <ele>31.846</ele>
        <time>2018-05-19T16:04:54Z</time>
      </trkpt>
      <trkpt lat="36.76313" lon="27.57206">
        <ele>31.349</ele>
        <time>2018-05-19T16:04:59Z</time>
      </trkpt>
      <trkpt lat="36.76314" lon="27.57212">
        <ele>32.002</ele>
        <time>2018-05-19T16:05:05Z</time>
      </trkpt>
      <trkpt lat="36.76315" lon="27.57219">
        <ele>31.722</ele>
        <time>2018-05-19T16:05:11Z</time>
      </trkpt>
      <trkpt lat="36.76316" lon="27.57224">
        <ele>32.408</ele>
        <time>2018-05-19T16:05:17Z</time>
      </trkpt>
      <trkpt lat="36.76318" lon="27.5723">
        <ele>33.556</ele>
        <time>2018-05-19T16:05:24Z</time>
      </trkpt>
      <trkpt lat="36.7632" lon="27.57235">
        <ele>34.099</ele>
        <time>2018-05-19T16:05:31Z</time>
      </trkpt>
      <trkpt lat="36.76321" lon="27.57241">
        <ele>33.934</ele>
        <time>2018-05-19T16:05:37Z</time>
      </trkpt>
      <trkpt lat="36.76323" lon="27.57247">
        <ele>34.537</ele>
        <time>2018-05-19T16:05:43Z</time>
      </trkpt>
      <trkpt lat="36.76325" lon="27.57253">
        <ele>36.864</ele>
        <time>2018-05-19T16:05:50Z</time>
      </trkpt>
      <trkpt lat="36.76327" lon="27.57259">
        <ele>37.111</ele>
        <time>2018-05-19T16:05:56Z</time>
      </trkpt>
      <trkpt lat="36.7633" lon="27.57264">
        <ele>37.462</ele>
        <time>2018-05-19T16:06:02Z</time>
      </trkpt>
      <trkpt lat="36.76333" lon="27.57268">
        <ele>37.166</ele>
        <time>2018-05-19T16:06:08Z</time>
      </trkpt>
      <trkpt lat="36.76337" lon="27.57273">
        <ele>38.069</ele>
        <time>2018-05-19T16:06:14Z</time>
      </trkpt>
      <trkpt lat="36.7634" lon="27.57278">
        <ele>37.904</ele>
        <time>2018-05-19T16:06:20Z</time>
      </trkpt>
      <trkpt lat="36.76342" lon="27.57284">
        <ele>38.424</ele>
        <time>2018-05-19T16:06:26Z</time>
      </trkpt>
      <trkpt lat="36.76345" lon="27.57289">
        <ele>38.508</ele>
        <time>2018-05-19T16:06:31Z</time>
      </trkpt>
      <trkpt lat="36.76347" lon="27.57295">
        <ele>39.088</ele>
        <time>2018-05-19T16:06:36Z</time>
      </trkpt>
      <trkpt lat="36.76349" lon="27.573">
        <ele>39.061</ele>
        <time>2018-05-19T16:06:41Z</time>
      </trkpt>
      <trkpt lat="36.76351" lon="27.57307">
        <ele>38.826</ele>
        <time>2018-05-19T16:06:46Z</time>
      </trkpt>
      <trkpt lat="36.76352" lon="27.57313">
        <ele>38.739</ele>
        <time>2018-05-19T16:06:51Z</time>
      </trkpt>
      <trkpt lat="36.76352" lon="27.57319">
        <ele>37.956</ele>
        <time>2018-05-19T16:06:57Z</time>
      </trkpt>
      <trkpt lat="36.76351" lon="27.57325">
        <ele>38.393</ele>
        <time>2018-05-19T16:07:03Z</time>
      </trkpt>
      <trkpt lat="36.76347" lon="27.5733">
        <ele>37.954</ele>
        <time>2018-05-19T16:07:08Z</time>
      </trkpt>
      <trkpt lat="36.76345" lon="27.57336">
        <ele>37.758</ele>
        <time>2018-05-19T16:07:13Z</time>
      </trkpt>
      <trkpt lat="36.76343" lon="27.57342">
        <ele>37.784</ele>
        <time>2018-05-19T16:07:19Z</time>
      </trkpt>
      <trkpt lat="36.76342" lon="27.57348">
        <ele>37.407</ele>
        <time>2018-05-19T16:07:24Z</time>
      </trkpt>
      <trkpt lat="36.76341" lon="27.57355">
        <ele>37.317</ele>
        <time>2018-05-19T16:07:29Z</time>
      </trkpt>
      <trkpt lat="36.7634" lon="27.57361">
        <ele>37.308</ele>
        <time>2018-05-19T16:07:35Z</time>
      </trkpt>
      <trkpt lat="36.76339" lon="27.57367">
        <ele>37.12</ele>
        <time>2018-05-19T16:07:40Z</time>
      </trkpt>
      <trkpt lat="36.76338" lon="27.57373">
        <ele>37.093</ele>
        <time>2018-05-19T16:07:45Z</time>
      </trkpt>
      <trkpt lat="36.76339" lon="27.57378">
        <ele>37.358</ele>
        <time>2018-05-19T16:07:50Z</time>
      </trkpt>
      <trkpt lat="36.76341" lon="27.57384">
        <ele>37.741</ele>
        <time>2018-05-19T16:07:55Z</time>
      </trkpt>
      <trkpt lat="36.76343" lon="27.5739">
        <ele>37.528</ele>
        <time>2018-05-19T16:08:00Z</time>
      </trkpt>
      <trkpt lat="36.76345" lon="27.57395">
        <ele>37.455</ele>
        <time>2018-05-19T16:08:05Z</time>
      </trkpt>
      <trkpt lat="36.76348" lon="27.57399">
        <ele>38.556</ele>
        <time>2018-05-19T16:08:10Z</time>
      </trkpt>
      <trkpt lat="36.76352" lon="27.57404">
        <ele>38.54</ele>
        <time>2018-05-19T16:08:15Z</time>
      </trkpt>
      <trkpt lat="36.76355" lon="27.57407">
        <ele>38.815</ele>
        <time>2018-05-19T16:08:20Z</time>
      </trkpt>
      <trkpt lat="36.7636" lon="27.57411">
        <ele>39.865</ele>
        <time>2018-05-19T16:08:26Z</time>
      </trkpt>
      <trkpt lat="36.76365" lon="27.57413">
        <ele>40.411</ele>
        <time>2018-05-19T16:08:31Z</time>
      </trkpt>
      <trkpt lat="36.7637" lon="27.57414">
        <ele>40.508</ele>
        <time>2018-05-19T16:08:36Z</time>
      </trkpt>
      <trkpt lat="36.76374" lon="27.57415">
        <ele>40.673</ele>
        <time>2018-05-19T16:08:41Z</time>
      </trkpt>
      <trkpt lat="36.76379" lon="27.57417">
        <ele>40.836</ele>
        <time>2018-05-19T16:08:47Z</time>
      </trkpt>
      <trkpt lat="36.76383" lon="27.57422">
        <ele>40.771</ele>
        <time>2018-05-19T16:08:53Z</time>
      </trkpt>
      <trkpt lat="36.76383" lon="27.57428">
        <ele>40.914</ele>
        <time>2018-05-19T16:08:59Z</time>
      </trkpt>
      <trkpt lat="36.76382" lon="27.57434">
        <ele>41.691</ele>
        <time>2018-05-19T16:09:05Z</time>
      </trkpt>
      <trkpt lat="36.76381" lon="27.5744">
        <ele>42.198</ele>
        <time>2018-05-19T16:09:10Z</time>
      </trkpt>
      <trkpt lat="36.7638" lon="27.57446">
        <ele>40.399</ele>
        <time>2018-05-19T16:09:16Z</time>
      </trkpt>
      <trkpt lat="36.7638" lon="27.57453">
        <ele>41.133</ele>
        <time>2018-05-19T16:09:20Z</time>
      </trkpt>
      <trkpt lat="36.76378" lon="27.57458">
        <ele>40.971</ele>
        <time>2018-05-19T16:09:26Z</time>
      </trkpt>
      <trkpt lat="36.76378" lon="27.57464">
        <ele>41.241</ele>
        <time>2018-05-19T16:09:32Z</time>
      </trkpt>
      <trkpt lat="36.76378" lon="27.57471">
        <ele>41.315</ele>
        <time>2018-05-19T16:09:38Z</time>
      </trkpt>
      <trkpt lat="36.76379" lon="27.57477">
        <ele>41.108</ele>
        <time>2018-05-19T16:09:44Z</time>
      </trkpt>
      <trkpt lat="36.76382" lon="27.57482">
        <ele>42.049</ele>
        <time>2018-05-19T16:09:49Z</time>
      </trkpt>
      <trkpt lat="36.76385" lon="27.57486">
        <ele>41.832</ele>
        <time>2018-05-19T16:09:54Z</time>
      </trkpt>
      <trkpt lat="36.76389" lon="27.5749">
        <ele>42.127</ele>
        <time>2018-05-19T16:10:00Z</time>
      </trkpt>
      <trkpt lat="36.76393" lon="27.57494">
        <ele>42.61</ele>
        <time>2018-05-19T16:10:05Z</time>
      </trkpt>
      <trkpt lat="36.76398" lon="27.57498">
        <ele>42.547</ele>
        <time>2018-05-19T16:10:10Z</time>
      </trkpt>
      <trkpt lat="36.76402" lon="27.57501">
        <ele>42.544</ele>
        <time>2018-05-19T16:10:15Z</time>
      </trkpt>
      <trkpt lat="36.76405" lon="27.57504">
        <ele>42.675</ele>
        <time>2018-05-19T16:10:20Z</time>
      </trkpt>
      <trkpt lat="36.76409" lon="27.57509">
        <ele>42.819</ele>
        <time>2018-05-19T16:10:25Z</time>
      </trkpt>
      <trkpt lat="36.76412" lon="27.57514">
        <ele>43.037</ele>
        <time>2018-05-19T16:10:30Z</time>
      </trkpt>
      <trkpt lat="36.76415" lon="27.57518">
        <ele>43.349</ele>
        <time>2018-05-19T16:10:35Z</time>
      </trkpt>
      <trkpt lat="36.76418" lon="27.57523">
        <ele>43.413</ele>
        <time>2018-05-19T16:10:40Z</time>
      </trkpt>
      <trkpt lat="36.76419" lon="27.57529">
        <ele>42.908</ele>
        <time>2018-05-19T16:10:45Z</time>
      </trkpt>
      <trkpt lat="36.76422" lon="27.57534">
        <ele>43.185</ele>
        <time>2018-05-19T16:10:50Z</time>
      </trkpt>
      <trkpt lat="36.76425" lon="27.57539">
        <ele>43.058</ele>
        <time>2018-05-19T16:10:55Z</time>
      </trkpt>
      <trkpt lat="36.76427" lon="27.57544">
        <ele>42.963</ele>
        <time>2018-05-19T16:11:00Z</time>
      </trkpt>
      <trkpt lat="36.7643" lon="27.5755">
        <ele>42.916</ele>
        <time>2018-05-19T16:11:05Z</time>
      </trkpt>
      <trkpt lat="36.76433" lon="27.57555">
        <ele>43.033</ele>
        <time>2018-05-19T16:11:10Z</time>
      </trkpt>
      <trkpt lat="36.76435" lon="27.57561">
        <ele>42.93</ele>
        <time>2018-05-19T16:11:15Z</time>
      </trkpt>
      <trkpt lat="36.76438" lon="27.57566">
        <ele>42.841</ele>
        <time>2018-05-19T16:11:20Z</time>
      </trkpt>
      <trkpt lat="36.76442" lon="27.5757">
        <ele>42.325</ele>
        <time>2018-05-19T16:11:25Z</time>
      </trkpt>
      <trkpt lat="36.76443" lon="27.57576">
        <ele>41.827</ele>
        <time>2018-05-19T16:11:30Z</time>
      </trkpt>
      <trkpt lat="36.76445" lon="27.57581">
        <ele>42.168</ele>
        <time>2018-05-19T16:11:35Z</time>
      </trkpt>
      <trkpt lat="36.76445" lon="27.57588">
        <ele>41.914</ele>
        <time>2018-05-19T16:11:41Z</time>
      </trkpt>
      <trkpt lat="36.76446" lon="27.57593">
        <ele>41.908</ele>
        <time>2018-05-19T16:11:46Z</time>
      </trkpt>
      <trkpt lat="36.76448" lon="27.57599">
        <ele>42.114</ele>
        <time>2018-05-19T16:11:51Z</time>
      </trkpt>
      <trkpt lat="36.7645" lon="27.57605">
        <ele>41.917</ele>
        <time>2018-05-19T16:11:56Z</time>
      </trkpt>
      <trkpt lat="36.76451" lon="27.57611">
        <ele>41.982</ele>
        <time>2018-05-19T16:12:02Z</time>
      </trkpt>
      <trkpt lat="36.76456" lon="27.57614">
        <ele>41.745</ele>
        <time>2018-05-19T16:12:07Z</time>
      </trkpt>
      <trkpt lat="36.7646" lon="27.57617">
        <ele>41.242</ele>
        <time>2018-05-19T16:12:11Z</time>
      </trkpt>
      <trkpt lat="36.76464" lon="27.57621">
        <ele>41.169</ele>
        <time>2018-05-19T16:12:16Z</time>
      </trkpt>
      <trkpt lat="36.76469" lon="27.57623">
        <ele>40.24</ele>
        <time>2018-05-19T16:12:21Z</time>
      </trkpt>
      <trkpt lat="36.76471" lon="27.57629">
        <ele>39.984</ele>
        <time>2018-05-19T16:12:26Z</time>
      </trkpt>
      <trkpt lat="36.76474" lon="27.57634">
        <ele>39.175</ele>
        <time>2018-05-19T16:12:31Z</time>
      </trkpt>
      <trkpt lat="36.76474" lon="27.5764">
        <ele>38.328</ele>
        <time>2018-05-19T16:12:36Z</time>
      </trkpt>
      <trkpt lat="36.76474" lon="27.57646">
        <ele>38.42</ele>
        <time>2018-05-19T16:12:41Z</time>
      </trkpt>
      <trkpt lat="36.76475" lon="27.57653">
        <ele>38.208</ele>
        <time>2018-05-19T16:12:46Z</time>
      </trkpt>
      <trkpt lat="36.76476" lon="27.5766">
        <ele>38.179</ele>
        <time>2018-05-19T16:12:51Z</time>
      </trkpt>
      <trkpt lat="36.76479" lon="27.57665">
        <ele>38.212</ele>
        <time>2018-05-19T16:12:55Z</time>
      </trkpt>
      <trkpt lat="36.76479" lon="27.5767">
        <ele>38.617</ele>
        <time>2018-05-19T16:13:00Z</time>
      </trkpt>
      <trkpt lat="36.76482" lon="27.57676">
        <ele>38.25</ele>
        <time>2018-05-19T16:13:04Z</time>
      </trkpt>
      <trkpt lat="36.76483" lon="27.57682">
        <ele>38.437</ele>
        <time>2018-05-19T16:13:08Z</time>
      </trkpt>
      <trkpt lat="36.76484" lon="27.57688">
        <ele>37.944</ele>
        <time>2018-05-19T16:13:13Z</time>
      </trkpt>
      <trkpt lat="36.76485" lon="27.57694">
        <ele>37.515</ele>
        <time>2018-05-19T16:13:19Z</time>
      </trkpt>
      <trkpt lat="36.76487" lon="27.57699">
        <ele>36.939</ele>
        <time>2018-05-19T16:13:24Z</time>
      </trkpt>
      <trkpt lat="36.76488" lon="27.57705">
        <ele>36.518</ele>
        <time>2018-05-19T16:13:30Z</time>
      </trkpt>
      <trkpt lat="36.7649" lon="27.5771">
        <ele>35.798</ele>
        <time>2018-05-19T16:13:35Z</time>
      </trkpt>
      <trkpt lat="36.76492" lon="27.57716">
        <ele>35.617</ele>
        <time>2018-05-19T16:13:40Z</time>
      </trkpt>
      <trkpt lat="36.76493" lon="27.57722">
        <ele>34.908</ele>
        <time>2018-05-19T16:13:46Z</time>
      </trkpt>
      <trkpt lat="36.76496" lon="27.57727">
        <ele>33.763</ele>
        <time>2018-05-19T16:13:51Z</time>
      </trkpt>
      <trkpt lat="36.76498" lon="27.57732">
        <ele>33.666</ele>
        <time>2018-05-19T16:13:55Z</time>
      </trkpt>
      <trkpt lat="36.76499" lon="27.57739">
        <ele>33.241</ele>
        <time>2018-05-19T16:14:00Z</time>
      </trkpt>
      <trkpt lat="36.765" lon="27.57745">
        <ele>33.534</ele>
        <time>2018-05-19T16:14:05Z</time>
      </trkpt>
      <trkpt lat="36.76503" lon="27.5775">
        <ele>33.581</ele>
        <time>2018-05-19T16:14:11Z</time>
      </trkpt>
      <trkpt lat="36.76505" lon="27.57756">
        <ele>32.558</ele>
        <time>2018-05-19T16:14:16Z</time>
      </trkpt>
      <trkpt lat="36.76506" lon="27.57762">
        <ele>32.699</ele>
        <time>2018-05-19T16:14:20Z</time>
      </trkpt>
      <trkpt lat="36.76508" lon="27.57768">
        <ele>32.453</ele>
        <time>2018-05-19T16:14:26Z</time>
      </trkpt>
      <trkpt lat="36.76509" lon="27.57773">
        <ele>31.461</ele>
        <time>2018-05-19T16:14:31Z</time>
      </trkpt>
      <trkpt lat="36.76511" lon="27.57779">
        <ele>31.221</ele>
        <time>2018-05-19T16:14:35Z</time>
      </trkpt>
      <trkpt lat="36.76513" lon="27.57784">
        <ele>30.813</ele>
        <time>2018-05-19T16:14:40Z</time>
      </trkpt>
      <trkpt lat="36.76516" lon="27.57788">
        <ele>30.608</ele>
        <time>2018-05-19T16:14:45Z</time>
      </trkpt>
      <trkpt lat="36.76518" lon="27.57795">
        <ele>30.338</ele>
        <time>2018-05-19T16:14:51Z</time>
      </trkpt>
      <trkpt lat="36.76518" lon="27.57801">
        <ele>29.971</ele>
        <time>2018-05-19T16:14:55Z</time>
      </trkpt>
      <trkpt lat="36.76518" lon="27.57807">
        <ele>29.756</ele>
        <time>2018-05-19T16:14:59Z</time>
      </trkpt>
      <trkpt lat="36.76517" lon="27.57813">
        <ele>30.229</ele>
        <time>2018-05-19T16:15:05Z</time>
      </trkpt>
      <trkpt lat="36.76517" lon="27.57819">
        <ele>28.866</ele>
        <time>2018-05-19T16:15:14Z</time>
      </trkpt>
      <trkpt lat="36.76514" lon="27.57824">
        <ele>28.893</ele>
        <time>2018-05-19T16:15:19Z</time>
      </trkpt>
      <trkpt lat="36.76513" lon="27.5783">
        <ele>28.094</ele>
        <time>2018-05-19T16:15:24Z</time>
      </trkpt>
      <trkpt lat="36.76513" lon="27.57836">
        <ele>27.878</ele>
        <time>2018-05-19T16:15:29Z</time>
      </trkpt>
      <trkpt lat="36.76513" lon="27.57842">
        <ele>27.539</ele>
        <time>2018-05-19T16:15:34Z</time>
      </trkpt>
      <trkpt lat="36.76512" lon="27.57848">
        <ele>27.401</ele>
        <time>2018-05-19T16:15:39Z</time>
      </trkpt>
      <trkpt lat="36.76513" lon="27.57855">
        <ele>27.121</ele>
        <time>2018-05-19T16:15:45Z</time>
      </trkpt>
      <trkpt lat="36.76513" lon="27.57861">
        <ele>27.108</ele>
        <time>2018-05-19T16:15:50Z</time>
      </trkpt>
      <trkpt lat="36.76513" lon="27.57866">
        <ele>27.215</ele>
        <time>2018-05-19T16:15:55Z</time>
      </trkpt>
      <trkpt lat="36.76515" lon="27.57872">
        <ele>26.648</ele>
        <time>2018-05-19T16:16:00Z</time>
      </trkpt>
      <trkpt lat="36.76517" lon="27.57878">
        <ele>25.863</ele>
        <time>2018-05-19T16:16:05Z</time>
      </trkpt>
      <trkpt lat="36.76519" lon="27.57884">
        <ele>25.936</ele>
        <time>2018-05-19T16:16:10Z</time>
      </trkpt>
      <trkpt lat="36.76521" lon="27.5789">
        <ele>26.033</ele>
        <time>2018-05-19T16:16:16Z</time>
      </trkpt>
      <trkpt lat="36.76522" lon="27.57896">
        <ele>26.06</ele>
        <time>2018-05-19T16:16:21Z</time>
      </trkpt>
      <trkpt lat="36.76522" lon="27.57903">
        <ele>25.931</ele>
        <time>2018-05-19T16:16:26Z</time>
      </trkpt>
      <trkpt lat="36.76523" lon="27.57908">
        <ele>26.035</ele>
        <time>2018-05-19T16:16:30Z</time>
      </trkpt>
      <trkpt lat="36.76526" lon="27.57914">
        <ele>26.138</ele>
        <time>2018-05-19T16:16:35Z</time>
      </trkpt>
      <trkpt lat="36.76528" lon="27.5792">
        <ele>26.07</ele>
        <time>2018-05-19T16:16:41Z</time>
      </trkpt>
      <trkpt lat="36.7653" lon="27.57926">
        <ele>26.417</ele>
        <time>2018-05-19T16:16:45Z</time>
      </trkpt>
      <trkpt lat="36.76532" lon="27.5793">
        <ele>25.608</ele>
        <time>2018-05-19T16:16:49Z</time>
      </trkpt>
      <trkpt lat="36.76534" lon="27.57936">
        <ele>25.995</ele>
        <time>2018-05-19T16:16:54Z</time>
      </trkpt>
      <trkpt lat="36.76538" lon="27.5794">
        <ele>26.078</ele>
        <time>2018-05-19T16:17:02Z</time>
      </trkpt>
      <trkpt lat="36.76541" lon="27.57945">
        <ele>25.923</ele>
        <time>2018-05-19T16:17:06Z</time>
      </trkpt>
      <trkpt lat="36.76542" lon="27.57951">
        <ele>25.936</ele>
        <time>2018-05-19T16:17:10Z</time>
      </trkpt>
      <trkpt lat="36.76544" lon="27.57958">
        <ele>25.643</ele>
        <time>2018-05-19T16:17:15Z</time>
      </trkpt>
      <trkpt lat="36.76545" lon="27.57964">
        <ele>25.65</ele>
        <time>2018-05-19T16:17:20Z</time>
      </trkpt>
      <trkpt lat="36.76545" lon="27.5797">
        <ele>25.421</ele>
        <time>2018-05-19T16:17:26Z</time>
      </trkpt>
      <trkpt lat="36.76546" lon="27.57978">
        <ele>25.245</ele>
        <time>2018-05-19T16:17:30Z</time>
      </trkpt>
      <trkpt lat="36.76546" lon="27.57984">
        <ele>24.813</ele>
        <time>2018-05-19T16:17:34Z</time>
      </trkpt>
      <trkpt lat="36.76547" lon="27.5799">
        <ele>24.743</ele>
        <time>2018-05-19T16:17:40Z</time>
      </trkpt>
      <trkpt lat="36.76549" lon="27.57995">
        <ele>25.007</ele>
        <time>2018-05-19T16:17:46Z</time>
      </trkpt>
      <trkpt lat="36.76551" lon="27.58001">
        <ele>24.708</ele>
        <time>2018-05-19T16:17:52Z</time>
      </trkpt>
      <trkpt lat="36.76554" lon="27.58008">
        <ele>25.093</ele>
        <time>2018-05-19T16:17:57Z</time>
      </trkpt>
      <trkpt lat="36.76556" lon="27.58013">
        <ele>25.696</ele>
        <time>2018-05-19T16:18:02Z</time>
      </trkpt>
      <trkpt lat="36.7656" lon="27.58016">
        <ele>26.151</ele>
        <time>2018-05-19T16:18:07Z</time>
      </trkpt>
      <trkpt lat="36.76565" lon="27.58017">
        <ele>26.194</ele>
        <time>2018-05-19T16:18:13Z</time>
      </trkpt>
      <trkpt lat="36.7657" lon="27.58017">
        <ele>26.541</ele>
        <time>2018-05-19T16:18:18Z</time>
      </trkpt>
      <trkpt lat="36.76575" lon="27.58016">
        <ele>26.748</ele>
        <time>2018-05-19T16:18:23Z</time>
      </trkpt>
      <trkpt lat="36.76579" lon="27.58015">
        <ele>26.399</ele>
        <time>2018-05-19T16:18:28Z</time>
      </trkpt>
      <trkpt lat="36.76585" lon="27.58015">
        <ele>27.253</ele>
        <time>2018-05-19T16:18:34Z</time>
      </trkpt>
      <trkpt lat="36.76589" lon="27.58015">
        <ele>27.251</ele>
        <time>2018-05-19T16:18:39Z</time>
      </trkpt>
      <trkpt lat="36.76594" lon="27.58015">
        <ele>27.101</ele>
        <time>2018-05-19T16:18:44Z</time>
      </trkpt>
      <trkpt lat="36.76599" lon="27.58013">
        <ele>27.211</ele>
        <time>2018-05-19T16:18:49Z</time>
      </trkpt>
      <trkpt lat="36.76604" lon="27.58012">
        <ele>26.808</ele>
        <time>2018-05-19T16:18:55Z</time>
      </trkpt>
      <trkpt lat="36.76609" lon="27.58011">
        <ele>27.557</ele>
        <time>2018-05-19T16:19:00Z</time>
      </trkpt>
      <trkpt lat="36.76614" lon="27.58008">
        <ele>27.39</ele>
        <time>2018-05-19T16:19:05Z</time>
      </trkpt>
      <trkpt lat="36.76619" lon="27.58007">
        <ele>26.345</ele>
        <time>2018-05-19T16:19:10Z</time>
      </trkpt>
      <trkpt lat="36.76624" lon="27.58007">
        <ele>26.058</ele>
        <time>2018-05-19T16:19:15Z</time>
      </trkpt>
      <trkpt lat="36.76629" lon="27.58009">
        <ele>25.685</ele>
        <time>2018-05-19T16:19:20Z</time>
      </trkpt>
      <trkpt lat="36.76634" lon="27.58011">
        <ele>26.162</ele>
        <time>2018-05-19T16:19:25Z</time>
      </trkpt>
      <trkpt lat="36.76639" lon="27.58011">
        <ele>26.183</ele>
        <time>2018-05-19T16:19:31Z</time>
      </trkpt>
      <trkpt lat="36.76643" lon="27.58012">
        <ele>25.737</ele>
        <time>2018-05-19T16:19:36Z</time>
      </trkpt>
      <trkpt lat="36.76648" lon="27.58013">
        <ele>24.184</ele>
        <time>2018-05-19T16:19:42Z</time>
      </trkpt>
      <trkpt lat="36.76653" lon="27.58012">
        <ele>24.707</ele>
        <time>2018-05-19T16:19:48Z</time>
      </trkpt>
      <trkpt lat="36.76658" lon="27.58012">
        <ele>23.717</ele>
        <time>2018-05-19T16:19:54Z</time>
      </trkpt>
      <trkpt lat="36.76663" lon="27.58014">
        <ele>23.908</ele>
        <time>2018-05-19T16:19:59Z</time>
      </trkpt>
      <trkpt lat="36.76668" lon="27.58016">
        <ele>24.04</ele>
        <time>2018-05-19T16:20:03Z</time>
      </trkpt>
      <trkpt lat="36.76673" lon="27.58017">
        <ele>24.563</ele>
        <time>2018-05-19T16:20:10Z</time>
      </trkpt>
      <trkpt lat="36.76678" lon="27.58016">
        <ele>24.298</ele>
        <time>2018-05-19T16:20:14Z</time>
      </trkpt>
      <trkpt lat="36.76683" lon="27.58016">
        <ele>24.021</ele>
        <time>2018-05-19T16:20:21Z</time>
      </trkpt>
      <trkpt lat="36.76689" lon="27.58017">
        <ele>23.768</ele>
        <time>2018-05-19T16:20:26Z</time>
      </trkpt>
      <trkpt lat="36.76694" lon="27.58019">
        <ele>23.625</ele>
        <time>2018-05-19T16:20:31Z</time>
      </trkpt>
      <trkpt lat="36.76699" lon="27.58023">
        <ele>23.036</ele>
        <time>2018-05-19T16:20:35Z</time>
      </trkpt>
      <trkpt lat="36.76702" lon="27.58026">
        <ele>23.38</ele>
        <time>2018-05-19T16:20:39Z</time>
      </trkpt>
      <trkpt lat="36.76705" lon="27.58032">
        <ele>24.248</ele>
        <time>2018-05-19T16:20:46Z</time>
      </trkpt>
      <trkpt lat="36.76706" lon="27.58038">
        <ele>24.761</ele>
        <time>2018-05-19T16:20:50Z</time>
      </trkpt>
      <trkpt lat="36.76706" lon="27.58044">
        <ele>26.417</ele>
        <time>2018-05-19T16:20:56Z</time>
      </trkpt>
      <trkpt lat="36.76705" lon="27.5805">
        <ele>27.308</ele>
        <time>2018-05-19T16:21:02Z</time>
      </trkpt>
      <trkpt lat="36.76704" lon="27.58056">
        <ele>29.016</ele>
        <time>2018-05-19T16:21:07Z</time>
      </trkpt>
      <trkpt lat="36.76706" lon="27.58062">
        <ele>29.369</ele>
        <time>2018-05-19T16:21:12Z</time>
      </trkpt>
      <trkpt lat="36.76708" lon="27.58068">
        <ele>29.854</ele>
        <time>2018-05-19T16:21:17Z</time>
      </trkpt>
      <trkpt lat="36.76709" lon="27.58074">
        <ele>30.767</ele>
        <time>2018-05-19T16:21:22Z</time>
      </trkpt>
      <trkpt lat="36.76711" lon="27.5808">
        <ele>30.564</ele>
        <time>2018-05-19T16:21:28Z</time>
      </trkpt>
      <trkpt lat="36.76711" lon="27.58087">
        <ele>30.631</ele>
        <time>2018-05-19T16:21:34Z</time>
      </trkpt>
      <trkpt lat="36.76714" lon="27.58092">
        <ele>30.642</ele>
        <time>2018-05-19T16:21:39Z</time>
      </trkpt>
      <trkpt lat="36.76714" lon="27.58098">
        <ele>31.076</ele>
        <time>2018-05-19T16:21:44Z</time>
      </trkpt>
      <trkpt lat="36.76715" lon="27.58104">
        <ele>31.244</ele>
        <time>2018-05-19T16:21:50Z</time>
      </trkpt>
      <trkpt lat="36.76718" lon="27.58108">
        <ele>32.205</ele>
        <time>2018-05-19T16:21:55Z</time>
      </trkpt>
      <trkpt lat="36.7672" lon="27.58114">
        <ele>33.015</ele>
        <time>2018-05-19T16:22:00Z</time>
      </trkpt>
      <trkpt lat="36.76722" lon="27.5812">
        <ele>34.008</ele>
        <time>2018-05-19T16:22:06Z</time>
      </trkpt>
      <trkpt lat="36.76723" lon="27.58126">
        <ele>34.716</ele>
        <time>2018-05-19T16:22:11Z</time>
      </trkpt>
      <trkpt lat="36.76725" lon="27.58131">
        <ele>36.479</ele>
        <time>2018-05-19T16:22:17Z</time>
      </trkpt>
      <trkpt lat="36.76725" lon="27.58138">
        <ele>37.214</ele>
        <time>2018-05-19T16:22:23Z</time>
      </trkpt>
      <trkpt lat="36.76725" lon="27.58144">
        <ele>37.457</ele>
        <time>2018-05-19T16:22:28Z</time>
      </trkpt>
      <trkpt lat="36.76726" lon="27.58151">
        <ele>37.824</ele>
        <time>2018-05-19T16:22:33Z</time>
      </trkpt>
      <trkpt lat="36.76729" lon="27.58156">
        <ele>38.071</ele>
        <time>2018-05-19T16:22:36Z</time>
      </trkpt>
      <trkpt lat="36.76729" lon="27.58162">
        <ele>38.732</ele>
        <time>2018-05-19T16:22:42Z</time>
      </trkpt>
      <trkpt lat="36.76728" lon="27.58168">
        <ele>39.216</ele>
        <time>2018-05-19T16:22:47Z</time>
      </trkpt>
      <trkpt lat="36.76727" lon="27.58174">
        <ele>39.795</ele>
        <time>2018-05-19T16:22:53Z</time>
      </trkpt>
      <trkpt lat="36.76726" lon="27.5818">
        <ele>40.049</ele>
        <time>2018-05-19T16:22:59Z</time>
      </trkpt>
      <trkpt lat="36.76725" lon="27.58187">
        <ele>39.423</ele>
        <time>2018-05-19T16:23:05Z</time>
      </trkpt>
      <trkpt lat="36.76725" lon="27.58193">
        <ele>40.308</ele>
        <time>2018-05-19T16:23:10Z</time>
      </trkpt>
      <trkpt lat="36.76722" lon="27.58198">
        <ele>40.311</ele>
        <time>2018-05-19T16:23:16Z</time>
      </trkpt>
      <trkpt lat="36.76719" lon="27.58203">
        <ele>40.474</ele>
        <time>2018-05-19T16:23:20Z</time>
      </trkpt>
      <trkpt lat="36.76716" lon="27.58207">
        <ele>40.679</ele>
        <time>2018-05-19T16:23:24Z</time>
      </trkpt>
      <trkpt lat="36.76713" lon="27.58212">
        <ele>40.532</ele>
        <time>2018-05-19T16:23:29Z</time>
      </trkpt>
      <trkpt lat="36.7671" lon="27.58217">
        <ele>40.779</ele>
        <time>2018-05-19T16:23:34Z</time>
      </trkpt>
      <trkpt lat="36.76709" lon="27.58224">
        <ele>40.986</ele>
        <time>2018-05-19T16:23:39Z</time>
      </trkpt>
      <trkpt lat="36.76708" lon="27.5823">
        <ele>41.547</ele>
        <time>2018-05-19T16:23:44Z</time>
      </trkpt>
      <trkpt lat="36.76706" lon="27.58236">
        <ele>41.681</ele>
        <time>2018-05-19T16:23:48Z</time>
      </trkpt>
      <trkpt lat="36.76705" lon="27.58242">
        <ele>41.894</ele>
        <time>2018-05-19T16:23:53Z</time>
      </trkpt>
      <trkpt lat="36.76704" lon="27.58248">
        <ele>41.857</ele>
        <time>2018-05-19T16:23:59Z</time>
      </trkpt>
      <trkpt lat="36.76705" lon="27.58254">
        <ele>41.822</ele>
        <time>2018-05-19T16:24:05Z</time>
      </trkpt>
      <trkpt lat="36.76706" lon="27.58261">
        <ele>42.408</ele>
        <time>2018-05-19T16:24:10Z</time>
      </trkpt>
      <trkpt lat="36.76707" lon="27.58266">
        <ele>43.191</ele>
        <time>2018-05-19T16:24:15Z</time>
      </trkpt>
      <trkpt lat="36.76708" lon="27.58273">
        <ele>42.614</ele>
        <time>2018-05-19T16:24:21Z</time>
      </trkpt>
      <trkpt lat="36.76709" lon="27.5828">
        <ele>43.439</ele>
        <time>2018-05-19T16:24:27Z</time>
      </trkpt>
      <trkpt lat="36.76708" lon="27.58285">
        <ele>43.292</ele>
        <time>2018-05-19T16:24:31Z</time>
      </trkpt>
      <trkpt lat="36.76707" lon="27.58291">
        <ele>43.289</ele>
        <time>2018-05-19T16:24:35Z</time>
      </trkpt>
      <trkpt lat="36.76707" lon="27.58298">
        <ele>43.856</ele>
        <time>2018-05-19T16:24:41Z</time>
      </trkpt>
      <trkpt lat="36.76705" lon="27.58304">
        <ele>44.977</ele>
        <time>2018-05-19T16:24:47Z</time>
      </trkpt>
      <trkpt lat="36.76702" lon="27.5831">
        <ele>45.171</ele>
        <time>2018-05-19T16:24:52Z</time>
      </trkpt>
      <trkpt lat="36.767" lon="27.58316">
        <ele>44.457</ele>
        <time>2018-05-19T16:24:57Z</time>
      </trkpt>
      <trkpt lat="36.76698" lon="27.58322">
        <ele>44.3</ele>
        <time>2018-05-19T16:25:03Z</time>
      </trkpt>
      <trkpt lat="36.76695" lon="27.58326">
        <ele>44.32</ele>
        <time>2018-05-19T16:25:08Z</time>
      </trkpt>
      <trkpt lat="36.76693" lon="27.58332">
        <ele>44.708</ele>
        <time>2018-05-19T16:25:13Z</time>
      </trkpt>
      <trkpt lat="36.76691" lon="27.58338">
        <ele>45.557</ele>
        <time>2018-05-19T16:25:19Z</time>
      </trkpt>
      <trkpt lat="36.76691" lon="27.58344">
        <ele>45.83</ele>
        <time>2018-05-19T16:25:25Z</time>
      </trkpt>
      <trkpt lat="36.76691" lon="27.5835">
        <ele>46.535</ele>
        <time>2018-05-19T16:25:30Z</time>
      </trkpt>
      <trkpt lat="36.76691" lon="27.58356">
        <ele>47.028</ele>
        <time>2018-05-19T16:25:35Z</time>
      </trkpt>
      <trkpt lat="36.7669" lon="27.58362">
        <ele>47.525</ele>
        <time>2018-05-19T16:25:40Z</time>
      </trkpt>
      <trkpt lat="36.76689" lon="27.58368">
        <ele>47.612</ele>
        <time>2018-05-19T16:25:46Z</time>
      </trkpt>
      <trkpt lat="36.76688" lon="27.58374">
        <ele>47.723</ele>
        <time>2018-05-19T16:25:52Z</time>
      </trkpt>
      <trkpt lat="36.76685" lon="27.5838">
        <ele>48.367</ele>
        <time>2018-05-19T16:25:57Z</time>
      </trkpt>
      <trkpt lat="36.76682" lon="27.58385">
        <ele>48.522</ele>
        <time>2018-05-19T16:26:02Z</time>
      </trkpt>
      <trkpt lat="36.76679" lon="27.58389">
        <ele>49.162</ele>
        <time>2018-05-19T16:26:07Z</time>
      </trkpt>
      <trkpt lat="36.76676" lon="27.58393">
        <ele>50.008</ele>
        <time>2018-05-19T16:26:12Z</time>
      </trkpt>
      <trkpt lat="36.76673" lon="27.58398">
        <ele>50.008</ele>
        <time>2018-05-19T16:26:16Z</time>
      </trkpt>
      <trkpt lat="36.7667" lon="27.58404">
        <ele>50.314</ele>
        <time>2018-05-19T16:26:21Z</time>
      </trkpt>
      <trkpt lat="36.76667" lon="27.58408">
        <ele>50.437</ele>
        <time>2018-05-19T16:26:27Z</time>
      </trkpt>
      <trkpt lat="36.76663" lon="27.58409">
        <ele>51.612</ele>
        <time>2018-05-19T16:27:39Z</time>
      </trkpt>
      <trkpt lat="36.76656" lon="27.58409">
        <ele>51.365</ele>
        <time>2018-05-19T16:27:42Z</time>
      </trkpt>
      <trkpt lat="36.76664" lon="27.58409">
        <ele>55.532</ele>
        <time>2018-05-19T16:27:53Z</time>
      </trkpt>
      <trkpt lat="36.76662" lon="27.58414">
        <ele>52.569</ele>
        <time>2018-05-19T16:28:17Z</time>
      </trkpt>
      <trkpt lat="36.7666" lon="27.58419">
        <ele>52.61</ele>
        <time>2018-05-19T16:28:24Z</time>
      </trkpt>
      <trkpt lat="36.76657" lon="27.58424">
        <ele>52.954</ele>
        <time>2018-05-19T16:28:30Z</time>
      </trkpt>
      <trkpt lat="36.76654" lon="27.58429">
        <ele>52.789</ele>
        <time>2018-05-19T16:28:37Z</time>
      </trkpt>
      <trkpt lat="36.7665" lon="27.58434">
        <ele>53.506</ele>
        <time>2018-05-19T16:28:44Z</time>
      </trkpt>
      <trkpt lat="36.76647" lon="27.58439">
        <ele>52.926</ele>
        <time>2018-05-19T16:28:50Z</time>
      </trkpt>
      <trkpt lat="36.76645" lon="27.58444">
        <ele>53.008</ele>
        <time>2018-05-19T16:28:57Z</time>
      </trkpt>
      <trkpt lat="36.76645" lon="27.58451">
        <ele>53.54</ele>
        <time>2018-05-19T16:29:03Z</time>
      </trkpt>
      <trkpt lat="36.76643" lon="27.58456">
        <ele>53.693</ele>
        <time>2018-05-19T16:29:08Z</time>
      </trkpt>
      <trkpt lat="36.76641" lon="27.58462">
        <ele>54.468</ele>
        <time>2018-05-19T16:29:15Z</time>
      </trkpt>
      <trkpt lat="36.76638" lon="27.58467">
        <ele>54.861</ele>
        <time>2018-05-19T16:29:21Z</time>
      </trkpt>
      <trkpt lat="36.76636" lon="27.58472">
        <ele>55.528</ele>
        <time>2018-05-19T16:29:28Z</time>
      </trkpt>
      <trkpt lat="36.76633" lon="27.58478">
        <ele>55.535</ele>
        <time>2018-05-19T16:29:33Z</time>
      </trkpt>
      <trkpt lat="36.7663" lon="27.58483">
        <ele>56.126</ele>
        <time>2018-05-19T16:29:38Z</time>
      </trkpt>
      <trkpt lat="36.76626" lon="27.58487">
        <ele>56.25</ele>
        <time>2018-05-19T16:29:43Z</time>
      </trkpt>
      <trkpt lat="36.76623" lon="27.58492">
        <ele>57.232</ele>
        <time>2018-05-19T16:29:47Z</time>
      </trkpt>
      <trkpt lat="36.76621" lon="27.58497">
        <ele>57.292</ele>
        <time>2018-05-19T16:29:52Z</time>
      </trkpt>
      <trkpt lat="36.7662" lon="27.58503">
        <ele>57.411</ele>
        <time>2018-05-19T16:29:57Z</time>
      </trkpt>
      <trkpt lat="36.76616" lon="27.58507">
        <ele>58.108</ele>
        <time>2018-05-19T16:30:04Z</time>
      </trkpt>
      <trkpt lat="36.76614" lon="27.58513">
        <ele>58.895</ele>
        <time>2018-05-19T16:30:10Z</time>
      </trkpt>
      <trkpt lat="36.76611" lon="27.58517">
        <ele>59.658</ele>
        <time>2018-05-19T16:30:15Z</time>
      </trkpt>
      <trkpt lat="36.76609" lon="27.58523">
        <ele>58.843</ele>
        <time>2018-05-19T16:30:22Z</time>
      </trkpt>
      <trkpt lat="36.76607" lon="27.58528">
        <ele>59.636</ele>
        <time>2018-05-19T16:30:29Z</time>
      </trkpt>
      <trkpt lat="36.76603" lon="27.58533">
        <ele>60.463</ele>
        <time>2018-05-19T16:30:34Z</time>
      </trkpt>
      <trkpt lat="36.766" lon="27.58537">
        <ele>60.64</ele>
        <time>2018-05-19T16:30:39Z</time>
      </trkpt>
      <trkpt lat="36.766" lon="27.58543">
        <ele>61.631</ele>
        <time>2018-05-19T16:30:45Z</time>
      </trkpt>
      <trkpt lat="36.76605" lon="27.58545">
        <ele>61.445</ele>
        <time>2018-05-19T16:30:48Z</time>
      </trkpt>
      <trkpt lat="36.76601" lon="27.58551">
        <ele>61.259</ele>
        <time>2018-05-19T16:30:56Z</time>
      </trkpt>
      <trkpt lat="36.76598" lon="27.58554">
        <ele>61.903</ele>
        <time>2018-05-19T16:31:00Z</time>
      </trkpt>
      <trkpt lat="36.76597" lon="27.5856">
        <ele>62.123</ele>
        <time>2018-05-19T16:31:07Z</time>
      </trkpt>
      <trkpt lat="36.76593" lon="27.58563">
        <ele>62.708</ele>
        <time>2018-05-19T16:31:13Z</time>
      </trkpt>
      <trkpt lat="36.7659" lon="27.58569">
        <ele>63.697</ele>
        <time>2018-05-19T16:31:20Z</time>
      </trkpt>
      <trkpt lat="36.76586" lon="27.58572">
        <ele>64.08</ele>
        <time>2018-05-19T16:31:25Z</time>
      </trkpt>
      <trkpt lat="36.76582" lon="27.58577">
        <ele>64.155</ele>
        <time>2018-05-19T16:31:30Z</time>
      </trkpt>
      <trkpt lat="36.7658" lon="27.58582">
        <ele>65.168</ele>
        <time>2018-05-19T16:31:36Z</time>
      </trkpt>
      <trkpt lat="36.76577" lon="27.58586">
        <ele>65.635</ele>
        <time>2018-05-19T16:31:41Z</time>
      </trkpt>
      <trkpt lat="36.76575" lon="27.58591">
        <ele>65.942</ele>
        <time>2018-05-19T16:31:46Z</time>
      </trkpt>
      <trkpt lat="36.76573" lon="27.58597">
        <ele>65.943</ele>
        <time>2018-05-19T16:31:52Z</time>
      </trkpt>
      <trkpt lat="36.7657" lon="27.58602">
        <ele>66.957</ele>
        <time>2018-05-19T16:31:59Z</time>
      </trkpt>
      <trkpt lat="36.76569" lon="27.58608">
        <ele>67.732</ele>
        <time>2018-05-19T16:32:05Z</time>
      </trkpt>
      <trkpt lat="36.76566" lon="27.58613">
        <ele>68.492</ele>
        <time>2018-05-19T16:32:11Z</time>
      </trkpt>
      <trkpt lat="36.76565" lon="27.58619">
        <ele>69.311</ele>
        <time>2018-05-19T16:32:17Z</time>
      </trkpt>
      <trkpt lat="36.76567" lon="27.58624">
        <ele>69.208</ele>
        <time>2018-05-19T16:32:22Z</time>
      </trkpt>
      <trkpt lat="36.76568" lon="27.5863">
        <ele>69.825</ele>
        <time>2018-05-19T16:32:27Z</time>
      </trkpt>
      <trkpt lat="36.7657" lon="27.58636">
        <ele>70.298</ele>
        <time>2018-05-19T16:32:33Z</time>
      </trkpt>
      <trkpt lat="36.76571" lon="27.58642">
        <ele>71.233</ele>
        <time>2018-05-19T16:32:38Z</time>
      </trkpt>
      <trkpt lat="36.76571" lon="27.58647">
        <ele>72.046</ele>
        <time>2018-05-19T16:32:44Z</time>
      </trkpt>
      <trkpt lat="36.76573" lon="27.58652">
        <ele>71.743</ele>
        <time>2018-05-19T16:32:49Z</time>
      </trkpt>
      <trkpt lat="36.76576" lon="27.58657">
        <ele>71.42</ele>
        <time>2018-05-19T16:32:54Z</time>
      </trkpt>
      <trkpt lat="36.76576" lon="27.58664">
        <ele>71.881</ele>
        <time>2018-05-19T16:32:59Z</time>
      </trkpt>
      <trkpt lat="36.76577" lon="27.58669">
        <ele>71.985</ele>
        <time>2018-05-19T16:33:04Z</time>
      </trkpt>
      <trkpt lat="36.7658" lon="27.58675">
        <ele>72.151</ele>
        <time>2018-05-19T16:33:10Z</time>
      </trkpt>
      <trkpt lat="36.76582" lon="27.5868">
        <ele>72.601</ele>
        <time>2018-05-19T16:33:17Z</time>
      </trkpt>
      <trkpt lat="36.76584" lon="27.58686">
        <ele>72.011</ele>
        <time>2018-05-19T16:33:22Z</time>
      </trkpt>
      <trkpt lat="36.76585" lon="27.58692">
        <ele>72.108</ele>
        <time>2018-05-19T16:33:27Z</time>
      </trkpt>
      <trkpt lat="36.76585" lon="27.58698">
        <ele>73.247</ele>
        <time>2018-05-19T16:33:31Z</time>
      </trkpt>
      <trkpt lat="36.76586" lon="27.58704">
        <ele>75.49</ele>
        <time>2018-05-19T16:33:37Z</time>
      </trkpt>
      <trkpt lat="36.76586" lon="27.58711">
        <ele>76.485</ele>
        <time>2018-05-19T16:33:43Z</time>
      </trkpt>
      <trkpt lat="36.76587" lon="27.58717">
        <ele>77.068</ele>
        <time>2018-05-19T16:33:51Z</time>
      </trkpt>
      <trkpt lat="36.76585" lon="27.58724">
        <ele>77.115</ele>
        <time>2018-05-19T16:33:56Z</time>
      </trkpt>
      <trkpt lat="36.76582" lon="27.58729">
        <ele>77.572</ele>
        <time>2018-05-19T16:34:03Z</time>
      </trkpt>
      <trkpt lat="36.76589" lon="27.58731">
        <ele>78.777</ele>
      </trkpt>
      <trkpt lat="36.76588" lon="27.58735">
        <ele>78.748</ele>
      </trkpt>
      <trkpt lat="36.76585" lon="27.58737">
        <ele>79.8</ele>
      </trkpt>
      <trkpt lat="36.76588" lon="27.58749">
        <ele>78.251</ele>
      </trkpt>
      <trkpt lat="36.76588" lon="27.58752">
        <ele>77.765</ele>
      </trkpt>
      <trkpt lat="36.7659" lon="27.58764">
        <ele>75.723</ele>
      </trkpt>
      <trkpt lat="36.76592" lon="27.58773">
        <ele>74.105</ele>
      </trkpt>
      <trkpt lat="36.76592" lon="27.5878">
        <ele>73.17</ele>
      </trkpt>
      <trkpt lat="36.76593" lon="27.5879">
        <ele>71.48</ele>
      </trkpt>
      <trkpt lat="36.7659" lon="27.58807">
        <ele>71.156</ele>
      </trkpt>
      <trkpt lat="36.7659" lon="27.58818">
        <ele>69.879</ele>
      </trkpt>
      <trkpt lat="36.76593" lon="27.5883">
        <ele>67.256</ele>
      </trkpt>
      <trkpt lat="36.76596" lon="27.58841">
        <ele>64.742</ele>
      </trkpt>
      <trkpt lat="36.76596" lon="27.58846">
        <ele>64.422</ele>
      </trkpt>
      <trkpt lat="36.76596" lon="27.5885">
        <ele>64.121</ele>
      </trkpt>
      <trkpt lat="36.76595" lon="27.58858">
        <ele>63.807</ele>
      </trkpt>
      <trkpt lat="36.76597" lon="27.58861">
        <ele>62.84</ele>
      </trkpt>
      <trkpt lat="36.766" lon="27.58866">
        <ele>60.867</ele>
      </trkpt>
      <trkpt lat="36.76602" lon="27.58877">
        <ele>58.389</ele>
      </trkpt>
      <trkpt lat="36.766" lon="27.58882">
        <ele>58.855</ele>
      </trkpt>
      <trkpt lat="36.76599" lon="27.58896">
        <ele>57.782</ele>
      </trkpt>
      <trkpt lat="36.76599" lon="27.58896">
        <ele>58.022</ele>
      </trkpt>
      <trkpt lat="36.76597" lon="27.58907">
        <ele>57.595</ele>
      </trkpt>
      <trkpt lat="36.76601" lon="27.58919">
        <ele>54.827</ele>
      </trkpt>
      <trkpt lat="36.76604" lon="27.58939">
        <ele>54.125</ele>
      </trkpt>
      <trkpt lat="36.76604" lon="27.58948">
        <ele>55.191</ele>
      </trkpt>
      <trkpt lat="36.76604" lon="27.58953">
        <ele>55.364</ele>
      </trkpt>
      <trkpt lat="36.76604" lon="27.58954">
        <ele>55.44</ele>
      </trkpt>
      <trkpt lat="36.76606" lon="27.58961">
        <ele>55.289</ele>
      </trkpt>
      <trkpt lat="36.76605" lon="27.58974">
        <ele>56.727</ele>
      </trkpt>
      <trkpt lat="36.76605" lon="27.58976">
        <ele>56.524</ele>
      </trkpt>
      <trkpt lat="36.76614" lon="27.58988">
        <ele>52.685</ele>
      </trkpt>
      <trkpt lat="36.76613" lon="27.58994">
        <ele>53.053</ele>
      </trkpt>
      <trkpt lat="36.76615" lon="27.59003">
        <ele>52.238</ele>
      </trkpt>
      <trkpt lat="36.76618" lon="27.59015">
        <ele>49.931</ele>
      </trkpt>
      <trkpt lat="36.76617" lon="27.5902">
        <ele>50.267</ele>
      </trkpt>
      <trkpt lat="36.76617" lon="27.59035">
        <ele>49.76</ele>
      </trkpt>
      <trkpt lat="36.76614" lon="27.59039">
        <ele>50.917</ele>
      </trkpt>
      <trkpt lat="36.76614" lon="27.59045">
        <ele>50.232</ele>
      </trkpt>
      <trkpt lat="36.76614" lon="27.59054">
        <ele>49.59</ele>
      </trkpt>
      <trkpt lat="36.76614" lon="27.59061">
        <ele>48.876</ele>
      </trkpt>
      <trkpt lat="36.76614" lon="27.59066">
        <ele>48.531</ele>
      </trkpt>
      <trkpt lat="36.76612" lon="27.59082">
        <ele>48.563</ele>
      </trkpt>
      <trkpt lat="36.76609" lon="27.59096">
        <ele>48.204</ele>
      </trkpt>
      <trkpt lat="36.76608" lon="27.59108">
        <ele>46.931</ele>
      </trkpt>
      <trkpt lat="36.76608" lon="27.59115">
        <ele>46.179</ele>
      </trkpt>
      <trkpt lat="36.76608" lon="27.59124">
        <ele>45.01</ele>
      </trkpt>
      <trkpt lat="36.76608" lon="27.59136">
        <ele>42.871</ele>
      </trkpt>
      <trkpt lat="36.76607" lon="27.59148">
        <ele>41.692</ele>
      </trkpt>
      <trkpt lat="36.76606" lon="27.59153">
        <ele>41.663</ele>
      </trkpt>
      <trkpt lat="36.76605" lon="27.59161">
        <ele>40.689</ele>
      </trkpt>
      <trkpt lat="36.76604" lon="27.59171">
        <ele>39.829</ele>
      </trkpt>
      <trkpt lat="36.76601" lon="27.59185">
        <ele>39.388</ele>
      </trkpt>
      <trkpt lat="36.76597" lon="27.5919">
        <ele>40.909</ele>
      </trkpt>
      <trkpt lat="36.76596" lon="27.59194">
        <ele>40.063</ele>
      </trkpt>
      <trkpt lat="36.76597" lon="27.59196">
        <ele>39.417</ele>
      </trkpt>
      <trkpt lat="36.76597" lon="27.59207">
        <ele>37.636</ele>
      </trkpt>
      <trkpt lat="36.76595" lon="27.59222">
        <ele>35.514</ele>
      </trkpt>
      <trkpt lat="36.76596" lon="27.59225">
        <ele>34.877</ele>
      </trkpt>
      <trkpt lat="36.76595" lon="27.59232">
        <ele>34.162</ele>
      </trkpt>
      <trkpt lat="36.76594" lon="27.59239">
        <ele>33.952</ele>
      </trkpt>
      <trkpt lat="36.76587" lon="27.59252">
        <ele>35.151</ele>
      </trkpt>
      <trkpt lat="36.76585" lon="27.59258">
        <ele>35.317</ele>
      </trkpt>
      <trkpt lat="36.76584" lon="27.59268">
        <ele>34.942</ele>
      </trkpt>
      <trkpt lat="36.76579" lon="27.5928">
        <ele>36.48</ele>
      </trkpt>
      <trkpt lat="36.76579" lon="27.59286">
        <ele>35.405</ele>
      </trkpt>
      <trkpt lat="36.76576" lon="27.59292">
        <ele>35.854</ele>
      </trkpt>
      <trkpt lat="36.76576" lon="27.59295">
        <ele>35.548</ele>
      </trkpt>
      <trkpt lat="36.76572" lon="27.59307">
        <ele>35.84</ele>
      </trkpt>
      <trkpt lat="36.76571" lon="27.59317">
        <ele>33.976</ele>
      </trkpt>
      <trkpt lat="36.76572" lon="27.59319">
        <ele>33.579</ele>
      </trkpt>
      <trkpt lat="36.76566" lon="27.59329">
        <ele>34.896</ele>
      </trkpt>
      <trkpt lat="36.76564" lon="27.59334">
        <ele>35.761</ele>
      </trkpt>
      <trkpt lat="36.76559" lon="27.59348">
        <ele>37.628</ele>
      </trkpt>
      <trkpt lat="36.76559" lon="27.59356">
        <ele>36.75</ele>
      </trkpt>
      <trkpt lat="36.7656" lon="27.59368">
        <ele>35.669</ele>
      </trkpt>
      <trkpt lat="36.76561" lon="27.59372">
        <ele>34.774</ele>
      </trkpt>
      <trkpt lat="36.76562" lon="27.5938">
        <ele>34.064</ele>
      </trkpt>
      <trkpt lat="36.76561" lon="27.59385">
        <ele>34.136</ele>
      </trkpt>
      <trkpt lat="36.76562" lon="27.5939">
        <ele>33.703</ele>
      </trkpt>
      <trkpt lat="36.76562" lon="27.59392">
        <ele>33.232</ele>
      </trkpt>
      <trkpt lat="36.76561" lon="27.594">
        <ele>32.972</ele>
      </trkpt>
      <trkpt lat="36.76562" lon="27.59409">
        <ele>31.172</ele>
      </trkpt>
      <trkpt lat="36.76561" lon="27.59413">
        <ele>30.647</ele>
      </trkpt>
      <trkpt lat="36.76564" lon="27.59418">
        <ele>28.451</ele>
      </trkpt>
      <trkpt lat="36.76563" lon="27.59427">
        <ele>26.163</ele>
      </trkpt>
      <trkpt lat="36.76562" lon="27.59431">
        <ele>25.234</ele>
      </trkpt>
      <trkpt lat="36.76565" lon="27.59436">
        <ele>21.253</ele>
      </trkpt>
      <trkpt lat="36.76568" lon="27.59446">
        <ele>15.646</ele>
      </trkpt>
      <trkpt lat="36.76565" lon="27.59454">
        <ele>16.13</ele>
      </trkpt>
      <trkpt lat="36.76563" lon="27.59461">
        <ele>16.181</ele>
      </trkpt>
      <trkpt lat="36.76562" lon="27.59466">
        <ele>16.088</ele>
      </trkpt>
      <trkpt lat="36.76552" lon="27.5947">
        <ele>20.752</ele>
      </trkpt>
      <trkpt lat="36.76548" lon="27.59489">
        <ele>11.933</ele>
      </trkpt>
      <trkpt lat="36.76542" lon="27.59499">
        <ele>9.252</ele>
      </trkpt>
      <trkpt lat="36.76539" lon="27.59505">
        <ele>9.822</ele>
      </trkpt>
      <trkpt lat="36.76535" lon="27.59513">
        <ele>11.262</ele>
      </trkpt>
      <trkpt lat="36.76527" lon="27.59517">
        <ele>14.544</ele>
      </trkpt>
      <trkpt lat="36.76527" lon="27.59526">
        <ele>12.519</ele>
      </trkpt>
      <trkpt lat="36.76526" lon="27.59524">
        <ele>13.656</ele>
      </trkpt>
      <trkpt lat="36.7652" lon="27.59536">
        <ele>13.058</ele>
      </trkpt>
      <trkpt lat="36.76518" lon="27.59542">
        <ele>11.717</ele>
      </trkpt>
      <trkpt lat="36.76514" lon="27.59547">
        <ele>13.322</ele>
      </trkpt>
      <trkpt lat="36.76511" lon="27.5956">
        <ele>12.015</ele>
      </trkpt>
      <trkpt lat="36.76507" lon="27.59571">
        <ele>12.843</ele>
      </trkpt>
      <trkpt lat="36.76506" lon="27.59573">
        <ele>12.976</ele>
      </trkpt>
      <trkpt lat="36.76506" lon="27.59576">
        <ele>12.338</ele>
      </trkpt>
      <trkpt lat="36.76507" lon="27.59578">
        <ele>11.721</ele>
      </trkpt>
      <trkpt lat="36.76506" lon="27.59579">
        <ele>12.114</ele>
      </trkpt>
      <trkpt lat="36.76506" lon="27.5958">
        <ele>11.801</ele>
      </trkpt>
      <trkpt lat="36.76503" lon="27.59588">
        <ele>11.708</ele>
      </trkpt>
      <trkpt lat="36.76506" lon="27.59597">
        <ele>8.907</ele>
      </trkpt>
      <trkpt lat="36.76506" lon="27.59598">
        <ele>8.966</ele>
      </trkpt>
      <trkpt lat="36.76506" lon="27.59595">
        <ele>9.326</ele>
      </trkpt>
      <trkpt lat="36.76506" lon="27.59596">
        <ele>9.26</ele>
      </trkpt>
      <trkpt lat="36.76505" lon="27.59609">
        <ele>7.869</ele>
      </trkpt>
      <trkpt lat="36.76507" lon="27.59611">
        <ele>6.858</ele>
      </trkpt>
      <trkpt lat="36.76509" lon="27.59618">
        <ele>5.558</ele>
      </trkpt>
      <trkpt lat="36.76509" lon="27.59628">
        <ele>4.415</ele>
      </trkpt>
      <trkpt lat="36.76507" lon="27.59644">
        <ele>3.986</ele>
      </trkpt>
      <trkpt lat="36.76508" lon="27.59672">
        <ele>4.19</ele>
      </trkpt>
      <trkpt lat="36.76508" lon="27.59675">
        <ele>4.192</ele>
      </trkpt>
      <trkpt lat="36.76498" lon="27.59686">
        <ele>6.19</ele>
      </trkpt>
      <trkpt lat="36.76494" lon="27.5968">
        <ele>6.501</ele>
      </trkpt>
      <trkpt lat="36.76494" lon="27.59687">
        <ele>6.631</ele>
      </trkpt>
      <trkpt lat="36.76487" lon="27.59701">
        <ele>6.783</ele>
      </trkpt>
      <trkpt lat="36.76485" lon="27.59709">
        <ele>6.866</ele>
      </trkpt>
      <trkpt lat="36.7648" lon="27.59717">
        <ele>8.019</ele>
      </trkpt>
      <trkpt lat="36.76476" lon="27.5972">
        <ele>9.352</ele>
      </trkpt>
      <trkpt lat="36.76472" lon="27.59721">
        <ele>11.04</ele>
      </trkpt>
      <trkpt lat="36.76466" lon="27.5973">
        <ele>9.755</ele>
      </trkpt>
      <trkpt lat="36.76463" lon="27.59741">
        <ele>7.889</ele>
      </trkpt>
      <trkpt lat="36.7646" lon="27.59747">
        <ele>7.892</ele>
      </trkpt>
      <trkpt lat="36.76453" lon="27.59751">
        <ele>10.578</ele>
      </trkpt>
      <trkpt lat="36.76451" lon="27.59753">
        <ele>10.821</ele>
      </trkpt>
      <trkpt lat="36.76446" lon="27.59768">
        <ele>5.588</ele>
      </trkpt>
      <trkpt lat="36.76442" lon="27.59783">
        <ele>2.006</ele>
      </trkpt>
      <trkpt lat="36.76435" lon="27.59792">
        <ele>7.33</ele>
      </trkpt>
      <trkpt lat="36.76426" lon="27.59799">
        <ele>13.729</ele>
      </trkpt>
      <trkpt lat="36.76422" lon="27.5981">
        <ele>14.773</ele>
      </trkpt>
      <trkpt lat="36.76418" lon="27.59826">
        <ele>14.894</ele>
      </trkpt>
      <trkpt lat="36.76414" lon="27.59834">
        <ele>15.294</ele>
      </trkpt>
      <trkpt lat="36.76411" lon="27.59845">
        <ele>11.977</ele>
      </trkpt>
      <trkpt lat="36.76409" lon="27.5985">
        <ele>11.702</ele>
      </trkpt>
      <trkpt lat="36.7641" lon="27.59864">
        <ele>5.57</ele>
      </trkpt>
      <trkpt lat="36.76408" lon="27.59875">
        <ele>4.138</ele>
      </trkpt>
      <trkpt lat="36.76404" lon="27.59878">
        <ele>4.669</ele>
      </trkpt>
      <trkpt lat="36.764" lon="27.59883">
        <ele>3.628</ele>
      </trkpt>
      <trkpt lat="36.76393" lon="27.59886">
        <ele>2.009</ele>
      </trkpt>
      <trkpt lat="36.76389" lon="27.59895">
        <ele>37.4</ele>
      </trkpt>
      <trkpt lat="36.76386" lon="27.59904">
        <ele>3.223</ele>
      </trkpt>
      <trkpt lat="36.76382" lon="27.59915">
        <ele>7.485</ele>
      </trkpt>
      <trkpt lat="36.76377" lon="27.5992">
        <ele>10.932</ele>
      </trkpt>
      <trkpt lat="36.76376" lon="27.5992">
        <ele>11.428</ele>
      </trkpt>
      <trkpt lat="36.7637" lon="27.59933">
        <ele>8.068</ele>
      </trkpt>
      <trkpt lat="36.76368" lon="27.59936">
        <ele>6.968</ele>
      </trkpt>
      <trkpt lat="36.76365" lon="27.5995">
        <ele>29.3</ele>
      </trkpt>
      <trkpt lat="36.76365" lon="27.59951">
        <ele>29</ele>
      </trkpt>
      <trkpt lat="36.76363" lon="27.59952">
        <ele>28.5</ele>
      </trkpt>
      <trkpt lat="36.76357" lon="27.59966">
        <ele>3.519</ele>
      </trkpt>
      <trkpt lat="36.76357" lon="27.59967">
        <ele>3.936</ele>
      </trkpt>
      <trkpt lat="36.76357" lon="27.59973">
        <ele>3.636</ele>
      </trkpt>
      <trkpt lat="36.76356" lon="27.59977">
        <ele>3.941</ele>
      </trkpt>
      <trkpt lat="36.76348" lon="27.5999">
        <ele>7.146</ele>
      </trkpt>
      <trkpt lat="36.76342" lon="27.60002">
        <ele>7.672</ele>
      </trkpt>
      <trkpt lat="36.76337" lon="27.60014">
        <ele>4.999</ele>
      </trkpt>
      <trkpt lat="36.76336" lon="27.6002">
        <ele>2.937</ele>
      </trkpt>
      <trkpt lat="36.76335" lon="27.60023">
        <ele>1.959</ele>
      </trkpt>
      <trkpt lat="36.76329" lon="27.60037">
        <ele>2.864</ele>
      </trkpt>
      <trkpt lat="36.76324" lon="27.60044">
        <ele>5.719</ele>
      </trkpt>
      <trkpt lat="36.76321" lon="27.60051">
        <ele>7.485</ele>
      </trkpt>
      <trkpt lat="36.76316" lon="27.60056">
        <ele>10.008</ele>
      </trkpt>
      <trkpt lat="36.76314" lon="27.60063">
        <ele>9.837</ele>
      </trkpt>
      <trkpt lat="36.76313" lon="27.60066">
        <ele>9.75</ele>
      </trkpt>
      <trkpt lat="36.76313" lon="27.60067">
        <ele>9.534</ele>
      </trkpt>
      <trkpt lat="36.76314" lon="27.60072">
        <ele>8.319</ele>
      </trkpt>
      <trkpt lat="36.76315" lon="27.60075">
        <ele>7.301</ele>
      </trkpt>
      <trkpt lat="36.7631" lon="27.60082">
        <ele>7.908</ele>
      </trkpt>
      <trkpt lat="36.76307" lon="27.60088">
        <ele>7.65</ele>
      </trkpt>
      <trkpt lat="36.76307" lon="27.60102">
        <ele>4.678</ele>
      </trkpt>
      <trkpt lat="36.76306" lon="27.6011">
        <ele>3.216</ele>
      </trkpt>
      <trkpt lat="36.76302" lon="27.60125">
        <ele>3.708</ele>
      </trkpt>
      <trkpt lat="36.763" lon="27.60136">
        <ele>3.546</ele>
      </trkpt>
      <trkpt lat="36.76297" lon="27.60143">
        <ele>5.678</ele>
      </trkpt>
      <trkpt lat="36.76299" lon="27.60156">
        <ele>5.304</ele>
      </trkpt>
      <trkpt lat="36.76299" lon="27.60173">
        <ele>6.542</ele>
      </trkpt>
      <trkpt lat="36.763" lon="27.60182">
        <ele>6.271</ele>
      </trkpt>
      <trkpt lat="36.76311" lon="27.60192">
        <ele>3.972</ele>
      </trkpt>
      <trkpt lat="36.76314" lon="27.60201">
        <ele>3.862</ele>
      </trkpt>
      <trkpt lat="36.76311" lon="27.60214">
        <ele>5.218</ele>
      </trkpt>
      <trkpt lat="36.76309" lon="27.60216">
        <ele>5.861</ele>
      </trkpt>
      <trkpt lat="36.76306" lon="27.60229">
        <ele>7.283</ele>
      </trkpt>
      <trkpt lat="36.76302" lon="27.60237">
        <ele>9.27</ele>
      </trkpt>
      <trkpt lat="36.76298" lon="27.60246">
        <ele>11.277</ele>
      </trkpt>
      <trkpt lat="36.76299" lon="27.60258">
        <ele>12.352</ele>
      </trkpt>
      <trkpt lat="36.76297" lon="27.60275">
        <ele>16.031</ele>
      </trkpt>
      <trkpt lat="36.76298" lon="27.60287">
        <ele>18.511</ele>
      </trkpt>
      <trkpt lat="36.76299" lon="27.60297">
        <ele>20.787</ele>
      </trkpt>
      <trkpt lat="36.76299" lon="27.60307">
        <ele>23.615</ele>
      </trkpt>
      <trkpt lat="36.76301" lon="27.60313">
        <ele>24.342</ele>
      </trkpt>
      <trkpt lat="36.76301" lon="27.60323">
        <ele>26.402</ele>
      </trkpt>
      <trkpt lat="36.76303" lon="27.60332">
        <ele>27.61</ele>
      </trkpt>
      <trkpt lat="36.76304" lon="27.60343">
        <ele>28.156</ele>
      </trkpt>
      <trkpt lat="36.76306" lon="27.60345">
        <ele>27.727</ele>
      </trkpt>
      <trkpt lat="36.76307" lon="27.60355">
        <ele>27.759</ele>
      </trkpt>
      <trkpt lat="36.76308" lon="27.60361">
        <ele>27.48</ele>
      </trkpt>
      <trkpt lat="36.7631" lon="27.60361">
        <ele>26.079</ele>
      </trkpt>
      <trkpt lat="36.76313" lon="27.60372">
        <ele>24.447</ele>
      </trkpt>
      <trkpt lat="36.76315" lon="27.60386">
        <ele>23.805</ele>
      </trkpt>
      <trkpt lat="36.76317" lon="27.60395">
        <ele>22.916</ele>
      </trkpt>
      <trkpt lat="36.76314" lon="27.60409">
        <ele>25.405</ele>
      </trkpt>
      <trkpt lat="36.7631" lon="27.60417">
        <ele>27.361</ele>
      </trkpt>
      <trkpt lat="36.7631" lon="27.60426">
        <ele>27.218</ele>
      </trkpt>
      <trkpt lat="36.76307" lon="27.60445">
        <ele>28.59</ele>
      </trkpt>
      <trkpt lat="36.76305" lon="27.60449">
        <ele>29.356</ele>
      </trkpt>
      <trkpt lat="36.76305" lon="27.60449">
        <ele>29.416</ele>
      </trkpt>
      <trkpt lat="36.76305" lon="27.60458">
        <ele>29.181</ele>
      </trkpt>
      <trkpt lat="36.76309" lon="27.60463">
        <ele>27.031</ele>
      </trkpt>
      <trkpt lat="36.7631" lon="27.60476">
        <ele>25.629</ele>
      </trkpt>
      <trkpt lat="36.7631" lon="27.60486">
        <ele>24.963</ele>
      </trkpt>
      <trkpt lat="36.7631" lon="27.60486">
        <ele>25.213</ele>
      </trkpt>
      <trkpt lat="36.76308" lon="27.60495">
        <ele>26.229</ele>
      </trkpt>
      <trkpt lat="36.76309" lon="27.60497">
        <ele>24.871</ele>
      </trkpt>
      <trkpt lat="36.76311" lon="27.60503">
        <ele>23.316</ele>
      </trkpt>
      <trkpt lat="36.76311" lon="27.60504">
        <ele>23.237</ele>
      </trkpt>
      <trkpt lat="36.76312" lon="27.60507">
        <ele>22.781</ele>
      </trkpt>
      <trkpt lat="36.76312" lon="27.60518">
        <ele>23.404</ele>
      </trkpt>
      <trkpt lat="36.76312" lon="27.60529">
        <ele>24.482</ele>
      </trkpt>
      <trkpt lat="36.76311" lon="27.60532">
        <ele>26.409</ele>
      </trkpt>
      <trkpt lat="36.76314" lon="27.60539">
        <ele>25.471</ele>
      </trkpt>
      <trkpt lat="36.76315" lon="27.60541">
        <ele>25.058</ele>
      </trkpt>
      <trkpt lat="36.76319" lon="27.60548">
        <ele>24.195</ele>
      </trkpt>
      <trkpt lat="36.76319" lon="27.6055">
        <ele>24.772</ele>
      </trkpt>
      <trkpt lat="36.76319" lon="27.60557">
        <ele>26.492</ele>
      </trkpt>
      <trkpt lat="36.76322" lon="27.60563">
        <ele>25.633</ele>
      </trkpt>
      <trkpt lat="36.76325" lon="27.60566">
        <ele>24.265</ele>
      </trkpt>
      <trkpt lat="36.76326" lon="27.60572">
        <ele>24.814</ele>
      </trkpt>
      <trkpt lat="36.76325" lon="27.60575">
        <ele>26.267</ele>
      </trkpt>
      <trkpt lat="36.76325" lon="27.60578">
        <ele>26.975</ele>
      </trkpt>
      <trkpt lat="36.76329" lon="27.60589">
        <ele>26.52</ele>
      </trkpt>
      <trkpt lat="36.7633" lon="27.60594">
        <ele>26.229</ele>
      </trkpt>
      <trkpt lat="36.7633" lon="27.60595">
        <ele>26.369</ele>
      </trkpt>
      <trkpt lat="36.76332" lon="27.60598">
        <ele>25.661</ele>
      </trkpt>
      <trkpt lat="36.76339" lon="27.60612">
        <ele>21.99</ele>
      </trkpt>
      <trkpt lat="36.76342" lon="27.60613">
        <ele>20.325</ele>
      </trkpt>
      <trkpt lat="36.76348" lon="27.60623">
        <ele>17.363</ele>
      </trkpt>
      <trkpt lat="36.76351" lon="27.60633">
        <ele>17.293</ele>
      </trkpt>
      <trkpt lat="36.76352" lon="27.60643">
        <ele>19.369</ele>
      </trkpt>
      <trkpt lat="36.76352" lon="27.60645">
        <ele>19.439</ele>
      </trkpt>
      <trkpt lat="36.76354" lon="27.60651">
        <ele>20.347</ele>
      </trkpt>
      <trkpt lat="36.76354" lon="27.60655">
        <ele>21.102</ele>
      </trkpt>
      <trkpt lat="36.76357" lon="27.60664">
        <ele>22.697</ele>
      </trkpt>
      <trkpt lat="36.76357" lon="27.60667">
        <ele>23.216</ele>
      </trkpt>
      <trkpt lat="36.76355" lon="27.60678">
        <ele>24.916</ele>
      </trkpt>
      <trkpt lat="36.76355" lon="27.60679">
        <ele>24.903</ele>
      </trkpt>
      <trkpt lat="36.76356" lon="27.60693">
        <ele>24.312</ele>
      </trkpt>
      <trkpt lat="36.76357" lon="27.60701">
        <ele>22.55</ele>
      </trkpt>
      <trkpt lat="36.7636" lon="27.6071">
        <ele>18.016</ele>
      </trkpt>
      <trkpt lat="36.76362" lon="27.60721">
        <ele>14.033</ele>
      </trkpt>
      <trkpt lat="36.76358" lon="27.60734">
        <ele>13.625</ele>
      </trkpt>
      <trkpt lat="36.76358" lon="27.60736">
        <ele>13.526</ele>
      </trkpt>
      <trkpt lat="36.76354" lon="27.60746">
        <ele>14.196</ele>
      </trkpt>
      <trkpt lat="36.76353" lon="27.60749">
        <ele>14.572</ele>
      </trkpt>
      <trkpt lat="36.76352" lon="27.60759">
        <ele>14.126</ele>
      </trkpt>
      <trkpt lat="36.76351" lon="27.60765">
        <ele>13.931</ele>
      </trkpt>
      <trkpt lat="36.76351" lon="27.6077">
        <ele>12.845</ele>
      </trkpt>
      <trkpt lat="36.76351" lon="27.60778">
        <ele>12.223</ele>
      </trkpt>
      <trkpt lat="36.76352" lon="27.60783">
        <ele>10.661</ele>
      </trkpt>
      <trkpt lat="36.76358" lon="27.60795">
        <ele>5.795</ele>
      </trkpt>
      <trkpt lat="36.7636" lon="27.60806">
        <ele>4.047</ele>
      </trkpt>
      <trkpt lat="36.76361" lon="27.60813">
        <ele>3.174</ele>
      </trkpt>
      <trkpt lat="36.76358" lon="27.60818">
        <ele>5.128</ele>
      </trkpt>
      <trkpt lat="36.76356" lon="27.60823">
        <ele>5.747</ele>
      </trkpt>
      <trkpt lat="36.76359" lon="27.60845">
        <ele>4.374</ele>
      </trkpt>
      <trkpt lat="36.76357" lon="27.60846">
        <ele>5.096</ele>
      </trkpt>
      <trkpt lat="36.76361" lon="27.60865">
        <ele>4.273</ele>
      </trkpt>
      <trkpt lat="36.76362" lon="27.60882">
        <ele>5.382</ele>
      </trkpt>
      <trkpt lat="36.76365" lon="27.60905">
        <ele>4.864</ele>
      </trkpt>
      <trkpt lat="36.7637" lon="27.6092">
        <ele>3.706</ele>
      </trkpt>
      <trkpt lat="36.76377" lon="27.60936">
        <ele>2.463</ele>
      </trkpt>
      <trkpt lat="36.76384" lon="27.60952">
        <ele>2.042</ele>
      </trkpt>
      <trkpt lat="36.76394" lon="27.60967">
        <ele>2.1</ele>
      </trkpt>
      <trkpt lat="36.76396" lon="27.60972">
        <ele>2.223</ele>
      </trkpt>
      <trkpt lat="36.76399" lon="27.60971">
        <ele>1.872</ele>
      </trkpt>
      <trkpt lat="36.76402" lon="27.60965">
        <ele>1.257</ele>
      </trkpt>
      <trkpt lat="36.76406" lon="27.60965">
        <ele>0.974</ele>
      </trkpt>
      <trkpt lat="36.76412" lon="27.60974">
        <ele>0.774</ele>
      </trkpt>
      <trkpt lat="36.76413" lon="27.60974">
        <ele>0.639</ele>
      </trkpt>
      <trkpt lat="36.76421" lon="27.60983">
        <ele>1.293</ele>
      </trkpt>
      <trkpt lat="36.76428" lon="27.6099">
        <ele>1.502</ele>
      </trkpt>
      <trkpt lat="36.76438" lon="27.61003">
        <ele>1.079</ele>
      </trkpt>
      <trkpt lat="36.76444" lon="27.61011">
        <ele>0.834</ele>
      </trkpt>
      <trkpt lat="36.76451" lon="27.6102">
        <ele>1.059</ele>
      </trkpt>
      <trkpt lat="36.76462" lon="27.61031">
        <ele>0.785</ele>
      </trkpt>
      <trkpt lat="36.7647" lon="27.61043">
        <ele>0.628</ele>
      </trkpt>
      <trkpt lat="36.76481" lon="27.61053">
        <ele>0.639</ele>
      </trkpt>
      <trkpt lat="36.76485" lon="27.61058">
        <ele>0.551</ele>
      </trkpt>
      <trkpt lat="36.76498" lon="27.61071">
        <ele>0.082</ele>
      </trkpt>
      <trkpt lat="36.76507" lon="27.61081">
      </trkpt>
      <trkpt lat="36.7651" lon="27.61086">
        <ele>0.056</ele>
      </trkpt>
      <trkpt lat="36.7652" lon="27.61096">
        <ele>0.124</ele>
      </trkpt>
      <trkpt lat="36.76524" lon="27.61099">
        <ele>0.089</ele>
      </trkpt>
      <trkpt lat="36.76533" lon="27.61107">
        <ele>2</ele>
      </trkpt>
      <trkpt lat="36.76545" lon="27.61119">
        <ele>0.11</ele>
      </trkpt>
      <trkpt lat="36.76559" lon="27.61133">
        <ele>2</ele>
      </trkpt>
      <trkpt lat="36.76568" lon="27.61144">
        <ele>0.109</ele>
      </trkpt>
      <trkpt lat="36.76574" lon="27.61156">
        <ele>0.193</ele>
      </trkpt>
      <trkpt lat="36.76577" lon="27.6116">
        <ele>0.173</ele>
      </trkpt>
      <trkpt lat="36.7658" lon="27.61168">
        <ele>0.131</ele>
      </trkpt>
      <trkpt lat="36.7658" lon="27.61171">
        <ele>0.123</ele>
      </trkpt>
      <trkpt lat="36.76581" lon="27.61178">
        <ele>0.077</ele>
      </trkpt>
      <trkpt lat="36.76589" lon="27.61199">
        <ele>0.139</ele>
      </trkpt>
      <trkpt lat="36.76598" lon="27.61222">
        <ele>0.483</ele>
      </trkpt>
      <trkpt lat="36.76601" lon="27.61232">
        <ele>0.587</ele>
      </trkpt>
      <trkpt lat="36.76608" lon="27.61245">
        <ele>0.853</ele>
      </trkpt>
      <trkpt lat="36.76613" lon="27.61257">
        <ele>0.937</ele>
      </trkpt>
      <trkpt lat="36.76613" lon="27.61257">
        <ele>0.95</ele>
      </trkpt>
      <trkpt lat="36.76614" lon="27.61267">
        <ele>0.955</ele>
      </trkpt>
      <trkpt lat="36.76616" lon="27.6128">
        <ele>0.873</ele>
      </trkpt>
      <trkpt lat="36.76616" lon="27.61281">
        <ele>0.834</ele>
      </trkpt>
      <trkpt lat="36.76623" lon="27.61295">
        <ele>0.292</ele>
      </trkpt>
      <trkpt lat="36.7663" lon="27.61308">
        <ele>0.408</ele>
      </trkpt>
      <trkpt lat="36.76637" lon="27.61326">
        <ele>0.889</ele>
      </trkpt>
      <trkpt lat="36.76641" lon="27.61336">
        <ele>0.94</ele>
      </trkpt>
      <trkpt lat="36.76647" lon="27.61354">
        <ele>0.693</ele>
      </trkpt>
      <trkpt lat="36.76651" lon="27.61372">
        <ele>0.563</ele>
      </trkpt>
      <trkpt lat="36.76655" lon="27.61383">
        <ele>0.421</ele>
      </trkpt>
      <trkpt lat="36.76659" lon="27.61397">
        <ele>0.261</ele>
      </trkpt>
      <trkpt lat="36.76664" lon="27.61404">
        <ele>0.095</ele>
      </trkpt>
      <trkpt lat="36.76671" lon="27.61415">
        <ele>1</ele>
      </trkpt>
      <trkpt lat="36.76679" lon="27.6143">
        <ele>0.51</ele>
      </trkpt>
      <trkpt lat="36.76681" lon="27.61432">
        <ele>0.562</ele>
      </trkpt>
      <trkpt lat="36.76688" lon="27.61444">
        <ele>0.439</ele>
      </trkpt>
      <trkpt lat="36.76697" lon="27.61456">
        <ele>0.375</ele>
      </trkpt>
      <trkpt lat="36.76709" lon="27.61475">
        <ele>0.546</ele>
      </trkpt>
      <trkpt lat="36.76717" lon="27.61488">
        <ele>0.652</ele>
      </trkpt>
      <trkpt lat="36.76727" lon="27.61505">
        <ele>1.176</ele>
      </trkpt>
      <trkpt lat="36.76739" lon="27.61519">
        <ele>1.774</ele>
      </trkpt>
      <trkpt lat="36.7674" lon="27.61523">
        <ele>2.044</ele>
      </trkpt>
      <trkpt lat="36.7677" lon="27.61558">
        <ele>1.961</ele>
      </trkpt>
      <trkpt lat="36.76797" lon="27.61597">
        <ele>2.296</ele>
      </trkpt>
      <trkpt lat="36.7682" lon="27.6162">
        <ele>1.992</ele>
      </trkpt>
      <trkpt lat="36.76823" lon="27.61626">
        <ele>1.773</ele>
      </trkpt>
      <trkpt lat="36.76826" lon="27.6163">
        <ele>1.507</ele>
      </trkpt>
      <trkpt lat="36.7683" lon="27.61636">
        <ele>1.262</ele>
      </trkpt>
      <trkpt lat="36.76833" lon="27.61641">
        <ele>1.133</ele>
      </trkpt>
      <trkpt lat="36.76836" lon="27.61646">
        <ele>1.426</ele>
      </trkpt>
      <trkpt lat="36.76838" lon="27.6165">
        <ele>1.517</ele>
      </trkpt>
      <trkpt lat="36.76841" lon="27.61655">
        <ele>1.494</ele>
      </trkpt>
      <trkpt lat="36.76844" lon="27.61661">
        <ele>1.361</ele>
      </trkpt>
      <trkpt lat="36.76846" lon="27.61666">
        <ele>1.144</ele>
      </trkpt>
      <trkpt lat="36.76848" lon="27.6167">
        <ele>1.435</ele>
      </trkpt>
      <trkpt lat="36.76848" lon="27.61675">
        <ele>2.279</ele>
      </trkpt>
      <trkpt lat="36.76848" lon="27.6168">
        <ele>3.044</ele>
      </trkpt>
      <trkpt lat="36.76846" lon="27.61684">
        <ele>4.002</ele>
      </trkpt>
      <trkpt lat="36.76844" lon="27.61689">
        <ele>4.826</ele>
      </trkpt>
      <trkpt lat="36.76843" lon="27.61693">
        <ele>5.474</ele>
      </trkpt>
      <trkpt lat="36.76844" lon="27.61698">
        <ele>6.383</ele>
      </trkpt>
      <trkpt lat="36.76848" lon="27.61701">
        <ele>7.253</ele>
      </trkpt>
      <trkpt lat="36.7685" lon="27.61704">
        <ele>7.978</ele>
      </trkpt>
      <trkpt lat="36.76854" lon="27.61706">
        <ele>8.521</ele>
      </trkpt>
      <trkpt lat="36.76858" lon="27.61709">
        <ele>9.424</ele>
      </trkpt>
      <trkpt lat="36.7686" lon="27.61711">
        <ele>10.254</ele>
      </trkpt>
      <trkpt lat="36.76864" lon="27.61712">
        <ele>10.56</ele>
      </trkpt>
      <trkpt lat="36.76866" lon="27.61714">
        <ele>11.084</ele>
      </trkpt>
      <trkpt lat="36.76868" lon="27.61716">
        <ele>11.82</ele>
      </trkpt>
      <trkpt lat="36.7687" lon="27.6172">
        <ele>12.913</ele>
      </trkpt>
      <trkpt lat="36.76873" lon="27.61724">
        <ele>14.085</ele>
      </trkpt>
      <trkpt lat="36.76875" lon="27.61727">
        <ele>14.641</ele>
      </trkpt>
      <trkpt lat="36.76878" lon="27.6173">
        <ele>15.041</ele>
      </trkpt>
      <trkpt lat="36.7688" lon="27.61733">
        <ele>15.628</ele>
      </trkpt>
      <trkpt lat="36.76882" lon="27.61736">
        <ele>16.079</ele>
      </trkpt>
      <trkpt lat="36.76886" lon="27.61739">
        <ele>16.304</ele>
      </trkpt>
      <trkpt lat="36.76888" lon="27.61742">
        <ele>16.654</ele>
      </trkpt>
      <trkpt lat="36.7689" lon="27.61745">
        <ele>16.492</ele>
      </trkpt>
      <trkpt lat="36.76893" lon="27.61751">
        <ele>16.054</ele>
      </trkpt>
      <trkpt lat="36.76894" lon="27.61754">
        <ele>15.396</ele>
      </trkpt>
      <trkpt lat="36.76896" lon="27.61757">
        <ele>14.586</ele>
      </trkpt>
      <trkpt lat="36.76899" lon="27.6176">
        <ele>13.511</ele>
      </trkpt>
      <trkpt lat="36.76901" lon="27.61764">
        <ele>12.796</ele>
      </trkpt>
      <trkpt lat="36.76901" lon="27.61767">
        <ele>13.111</ele>
      </trkpt>
      <trkpt lat="36.76902" lon="27.61772">
        <ele>13.114</ele>
      </trkpt>
      <trkpt lat="36.76903" lon="27.61776">
        <ele>13.191</ele>
      </trkpt>
      <trkpt lat="36.76905" lon="27.61781">
        <ele>13.324</ele>
      </trkpt>
      <trkpt lat="36.76906" lon="27.61785">
        <ele>13.68</ele>
      </trkpt>
      <trkpt lat="36.76907" lon="27.61789">
        <ele>13.974</ele>
      </trkpt>
      <trkpt lat="36.76909" lon="27.61793">
        <ele>13.937</ele>
      </trkpt>
      <trkpt lat="36.7691" lon="27.61796">
        <ele>14.155</ele>
      </trkpt>
      <trkpt lat="36.7691" lon="27.61801">
        <ele>15.282</ele>
      </trkpt>
      <trkpt lat="36.76911" lon="27.61805">
        <ele>15.671</ele>
      </trkpt>
      <trkpt lat="36.76912" lon="27.61809">
        <ele>16.174</ele>
      </trkpt>
      <trkpt lat="36.76913" lon="27.61813">
        <ele>16.477</ele>
      </trkpt>
      <trkpt lat="36.76913" lon="27.61817">
        <ele>17.061</ele>
      </trkpt>
      <trkpt lat="36.76914" lon="27.6182">
        <ele>17.317</ele>
      </trkpt>
      <trkpt lat="36.76915" lon="27.61823">
        <ele>17.4</ele>
      </trkpt>
      <trkpt lat="36.76916" lon="27.61827">
        <ele>17.784</ele>
      </trkpt>
      <trkpt lat="36.76917" lon="27.6183">
        <ele>18.211</ele>
      </trkpt>
      <trkpt lat="36.76919" lon="27.61836">
        <ele>18.196</ele>
      </trkpt>
      <trkpt lat="36.76922" lon="27.6184">
        <ele>17.434</ele>
      </trkpt>
      <trkpt lat="36.76924" lon="27.61843">
        <ele>16.801</ele>
      </trkpt>
      <trkpt lat="36.76927" lon="27.61848">
        <ele>16.552</ele>
      </trkpt>
      <trkpt lat="36.76928" lon="27.61854">
        <ele>16.623</ele>
      </trkpt>
      <trkpt lat="36.7693" lon="27.61857">
        <ele>16.386</ele>
      </trkpt>
      <trkpt lat="36.76931" lon="27.6186">
        <ele>16.101</ele>
      </trkpt>
      <trkpt lat="36.76934" lon="27.61865">
        <ele>15.049</ele>
      </trkpt>
      <trkpt lat="36.76936" lon="27.61868">
        <ele>14.083</ele>
      </trkpt>
      <trkpt lat="36.7694" lon="27.61871">
        <ele>12.313</ele>
      </trkpt>
      <trkpt lat="36.76943" lon="27.61873">
        <ele>11.288</ele>
      </trkpt>
      <trkpt lat="36.76945" lon="27.61876">
        <ele>10.426</ele>
      </trkpt>
      <trkpt lat="36.76946" lon="27.61879">
        <ele>10.236</ele>
      </trkpt>
      <trkpt lat="36.76948" lon="27.61883">
        <ele>9.742</ele>
      </trkpt>
      <trkpt lat="36.76949" lon="27.61886">
        <ele>9.299</ele>
      </trkpt>
      <trkpt lat="36.76952" lon="27.61889">
        <ele>8.707</ele>
      </trkpt>
      <trkpt lat="36.76953" lon="27.61892">
        <ele>8.283</ele>
      </trkpt>
      <trkpt lat="36.76954" lon="27.61895">
        <ele>7.865</ele>
      </trkpt>
      <trkpt lat="36.76955" lon="27.61899">
        <ele>7.495</ele>
      </trkpt>
      <trkpt lat="36.76956" lon="27.61902">
        <ele>7.088</ele>
      </trkpt>
      <trkpt lat="36.76957" lon="27.61906">
        <ele>6.931</ele>
      </trkpt>
      <trkpt lat="36.76957" lon="27.61909">
        <ele>6.807</ele>
      </trkpt>
      <trkpt lat="36.76959" lon="27.61916">
        <ele>6.458</ele>
      </trkpt>
      <trkpt lat="36.7696" lon="27.61921">
        <ele>6.522</ele>
      </trkpt>
      <trkpt lat="36.76959" lon="27.61925">
        <ele>7.111</ele>
      </trkpt>
      <trkpt lat="36.76958" lon="27.61928">
        <ele>7.737</ele>
      </trkpt>
      <trkpt lat="36.76957" lon="27.61932">
        <ele>8.278</ele>
      </trkpt>
      <trkpt lat="36.76957" lon="27.61935">
        <ele>8.771</ele>
      </trkpt>
      <trkpt lat="36.76956" lon="27.61939">
        <ele>9.349</ele>
      </trkpt>
      <trkpt lat="36.76955" lon="27.61946">
        <ele>10.522</ele>
      </trkpt>
      <trkpt lat="36.76956" lon="27.6195">
        <ele>11.022</ele>
      </trkpt>
      <trkpt lat="36.76956" lon="27.61953">
        <ele>11.695</ele>
      </trkpt>
      <trkpt lat="36.76957" lon="27.61957">
        <ele>11.847</ele>
      </trkpt>
      <trkpt lat="36.76959" lon="27.61961">
        <ele>12.087</ele>
      </trkpt>
      <trkpt lat="36.7696" lon="27.61964">
        <ele>12.258</ele>
      </trkpt>
      <trkpt lat="36.76961" lon="27.61967">
        <ele>12.221</ele>
      </trkpt>
      <trkpt lat="36.76963" lon="27.6197">
        <ele>11.971</ele>
      </trkpt>
      <trkpt lat="36.76965" lon="27.61974">
        <ele>11.73</ele>
      </trkpt>
      <trkpt lat="36.76966" lon="27.61977">
        <ele>11.704</ele>
      </trkpt>
      <trkpt lat="36.76967" lon="27.61981">
        <ele>11.478</ele>
      </trkpt>
      <trkpt lat="36.76969" lon="27.61987">
        <ele>11.312</ele>
      </trkpt>
      <trkpt lat="36.76971" lon="27.61996">
        <ele>11.198</ele>
      </trkpt>
      <trkpt lat="36.76974" lon="27.62002">
        <ele>10.754</ele>
      </trkpt>
      <trkpt lat="36.76977" lon="27.62007">
        <ele>10.249</ele>
      </trkpt>
      <trkpt lat="36.76978" lon="27.62013">
        <ele>10.293</ele>
      </trkpt>
      <trkpt lat="36.7698" lon="27.62019">
        <ele>10.22</ele>
      </trkpt>
      <trkpt lat="36.7698" lon="27.62024">
        <ele>10.416</ele>
      </trkpt>
      <trkpt lat="36.76982" lon="27.6203">
        <ele>10.522</ele>
      </trkpt>
      <trkpt lat="36.76983" lon="27.62037">
        <ele>10.835</ele>
      </trkpt>
      <trkpt lat="36.76983" lon="27.62042">
        <ele>11.355</ele>
      </trkpt>
      <trkpt lat="36.76981" lon="27.62049">
        <ele>12.524</ele>
      </trkpt>
      <trkpt lat="36.76981" lon="27.62053">
        <ele>13.098</ele>
      </trkpt>
      <trkpt lat="36.76979" lon="27.62057">
        <ele>13.916</ele>
      </trkpt>
      <trkpt lat="36.76976" lon="27.62062">
        <ele>14.902</ele>
      </trkpt>
      <trkpt lat="36.76973" lon="27.62068">
        <ele>15.637</ele>
      </trkpt>
      <trkpt lat="36.76972" lon="27.62074">
        <ele>16.322</ele>
      </trkpt>
      <trkpt lat="36.7697" lon="27.62077">
        <ele>16.986</ele>
      </trkpt>
      <trkpt lat="36.76969" lon="27.62082">
        <ele>17.578</ele>
      </trkpt>
      <trkpt lat="36.76967" lon="27.62088">
        <ele>18.124</ele>
      </trkpt>
      <trkpt lat="36.76966" lon="27.62091">
        <ele>18.161</ele>
      </trkpt>
      <trkpt lat="36.76964" lon="27.62097">
        <ele>18.797</ele>
      </trkpt>
      <trkpt lat="36.76962" lon="27.62103">
        <ele>18.612</ele>
      </trkpt>
      <trkpt lat="36.76961" lon="27.62107">
        <ele>18.604</ele>
      </trkpt>
      <trkpt lat="36.7696" lon="27.6211">
        <ele>18.501</ele>
      </trkpt>
      <trkpt lat="36.76959" lon="27.62114">
        <ele>18.235</ele>
      </trkpt>
      <trkpt lat="36.76958" lon="27.62118">
        <ele>17.733</ele>
      </trkpt>
      <trkpt lat="36.76956" lon="27.62123">
        <ele>17.451</ele>
      </trkpt>
      <trkpt lat="36.76954" lon="27.62128">
        <ele>16.917</ele>
      </trkpt>
      <trkpt lat="36.76952" lon="27.62133">
        <ele>16.456</ele>
      </trkpt>
      <trkpt lat="36.7695" lon="27.62139">
        <ele>15.659</ele>
      </trkpt>
      <trkpt lat="36.76948" lon="27.62145">
        <ele>15.171</ele>
      </trkpt>
      <trkpt lat="36.76947" lon="27.62152">
        <ele>14.642</ele>
      </trkpt>
      <trkpt lat="36.76945" lon="27.62159">
        <ele>13.932</ele>
      </trkpt>
      <trkpt lat="36.76944" lon="27.62167">
        <ele>13.001</ele>
      </trkpt>
      <trkpt lat="36.76943" lon="27.62175">
        <ele>11.826</ele>
      </trkpt>
      <trkpt lat="36.76942" lon="27.62184">
        <ele>10.601</ele>
      </trkpt>
      <trkpt lat="36.7694" lon="27.62192">
        <ele>9.366</ele>
      </trkpt>
      <trkpt lat="36.76938" lon="27.622">
        <ele>8.542</ele>
      </trkpt>
      <trkpt lat="36.76934" lon="27.62207">
        <ele>7.924</ele>
      </trkpt>
      <trkpt lat="36.76941" lon="27.62212">
        <ele>7.663</ele>
      </trkpt>
      <trkpt lat="36.76944" lon="27.62205">
        <ele>8.213</ele>
      </trkpt>
      <trkpt lat="36.76948" lon="27.62202">
        <ele>8.264</ele>
      </trkpt>
      <trkpt lat="36.76951" lon="27.62197">
        <ele>8.391</ele>
      </trkpt>
      <trkpt lat="36.76953" lon="27.62191">
        <ele>8.688</ele>
      </trkpt>
      <trkpt lat="36.76955" lon="27.62187">
        <ele>8.956</ele>
      </trkpt>
      <trkpt lat="36.76957" lon="27.62181">
        <ele>9.218</ele>
      </trkpt>
      <trkpt lat="36.7696" lon="27.62176">
        <ele>9.109</ele>
      </trkpt>
      <trkpt lat="36.76964" lon="27.62172">
        <ele>8.554</ele>
      </trkpt>
      <trkpt lat="36.76968" lon="27.62168">
        <ele>7.817</ele>
      </trkpt>
      <trkpt lat="36.76971" lon="27.62164">
        <ele>7.556</ele>
      </trkpt>
      <trkpt lat="36.76974" lon="27.6216">
        <ele>7.736</ele>
      </trkpt>
      <trkpt lat="36.76977" lon="27.62155">
        <ele>8.167</ele>
      </trkpt>
      <trkpt lat="36.7698" lon="27.6215">
        <ele>8.477</ele>
      </trkpt>
      <trkpt lat="36.76982" lon="27.62146">
        <ele>8.708</ele>
      </trkpt>
      <trkpt lat="36.76985" lon="27.62143">
        <ele>8.816</ele>
      </trkpt>
      <trkpt lat="36.76987" lon="27.62138">
        <ele>9.013</ele>
      </trkpt>
      <trkpt lat="36.7699" lon="27.62134">
        <ele>8.906</ele>
      </trkpt>
      <trkpt lat="36.7699" lon="27.6213">
        <ele>9.053</ele>
      </trkpt>
      <trkpt lat="36.76992" lon="27.62125">
        <ele>8.737</ele>
      </trkpt>
      <trkpt lat="36.76994" lon="27.6212">
        <ele>8.467</ele>
      </trkpt>
      <trkpt lat="36.76995" lon="27.62116">
        <ele>8.212</ele>
      </trkpt>
      <trkpt lat="36.76998" lon="27.62111">
        <ele>7.403</ele>
      </trkpt>
      <trkpt lat="36.77002" lon="27.62107">
        <ele>7.032</ele>
      </trkpt>
      <trkpt lat="36.77004" lon="27.62103">
        <ele>7.016</ele>
      </trkpt>
      <trkpt lat="36.77005" lon="27.62099">
        <ele>7.009</ele>
      </trkpt>
      <trkpt lat="36.77007" lon="27.62096">
        <ele>6.873</ele>
      </trkpt>
      <trkpt lat="36.7701" lon="27.62092">
        <ele>6.749</ele>
      </trkpt>
      <trkpt lat="36.77012" lon="27.62088">
        <ele>6.578</ele>
      </trkpt>
      <trkpt lat="36.77015" lon="27.62082">
        <ele>6.406</ele>
      </trkpt>
      <trkpt lat="36.77016" lon="27.62079">
        <ele>6.161</ele>
      </trkpt>
      <trkpt lat="36.77018" lon="27.62075">
        <ele>5.92</ele>
      </trkpt>
      <trkpt lat="36.7702" lon="27.62071">
        <ele>5.723</ele>
      </trkpt>
      <trkpt lat="36.77022" lon="27.62067">
        <ele>5.534</ele>
      </trkpt>
      <trkpt lat="36.77023" lon="27.62062">
        <ele>5.387</ele>
      </trkpt>
      <trkpt lat="36.77025" lon="27.62058">
        <ele>5.223</ele>
      </trkpt>
      <trkpt lat="36.77026" lon="27.62054">
        <ele>5.13</ele>
      </trkpt>
      <trkpt lat="36.77027" lon="27.62051">
        <ele>5.029</ele>
      </trkpt>
      <trkpt lat="36.7703" lon="27.62047">
        <ele>4.914</ele>
      </trkpt>
      <trkpt lat="36.77032" lon="27.62042">
        <ele>4.77</ele>
      </trkpt>
      <trkpt lat="36.77033" lon="27.62045">
        <ele>4.74</ele>
      </trkpt>
      <trkpt lat="36.77033" lon="27.62045">
        <ele>4.74</ele>
      </trkpt>
      <trkpt lat="36.77033" lon="27.62045">
        <ele>4.74</ele>
      </trkpt>
      <trkpt lat="36.77033" lon="27.62045">
        <ele>4.74</ele>
      </trkpt>
      <trkpt lat="36.77035" lon="27.62044">
        <ele>4.633</ele>
      </trkpt>
      <trkpt lat="36.77044" lon="27.62029">
        <ele>3.878</ele>
      </trkpt>
      <trkpt lat="36.77054" lon="27.62012">
        <ele>2.541</ele>
      </trkpt>
      <trkpt lat="36.77062" lon="27.62">
        <ele>1.791</ele>
      </trkpt>
      <trkpt lat="36.77073" lon="27.61979">
        <ele>1.098</ele>
      </trkpt>
      <trkpt lat="36.77076" lon="27.61977">
        <ele>1.047</ele>
      </trkpt>
      <trkpt lat="36.77085" lon="27.61977">
        <ele>0.94</ele>
      </trkpt>
      <trkpt lat="36.77088" lon="27.61983">
        <ele>0.905</ele>
      </trkpt>
      <trkpt lat="36.77102" lon="27.62">
        <ele>1.007</ele>
      </trkpt>
      <trkpt lat="36.77113" lon="27.62012">
        <ele>1.364</ele>
      </trkpt>
      <trkpt lat="36.77127" lon="27.62027">
        <ele>1.392</ele>
      </trkpt>
      <trkpt lat="36.77135" lon="27.62033">
        <ele>1.454</ele>
      </trkpt>
      <trkpt lat="36.77135" lon="27.62033">
        <ele>1.467</ele>
      </trkpt>
      <trkpt lat="36.77145" lon="27.62044">
        <ele>1.785</ele>
      </trkpt>
      <trkpt lat="36.77162" lon="27.62063">
        <ele>1.361</ele>
      </trkpt>
      <trkpt lat="36.77179" lon="27.62079">
        <ele>1</ele>
      </trkpt>
      <trkpt lat="36.77192" lon="27.62089">
        <ele>1</ele>
      </trkpt>
      <trkpt lat="36.77208" lon="27.62108">
        <ele>0.95</ele>
      </trkpt>
      <trkpt lat="36.77221" lon="27.62118">
        <ele>0.526</ele>
      </trkpt>
      <trkpt lat="36.77234" lon="27.62122">
        <ele>0.559</ele>
      </trkpt>
      <trkpt lat="36.77236" lon="27.62123">
        <ele>0.575</ele>
      </trkpt>
      <trkpt lat="36.77248" lon="27.62133">
        <ele>0.895</ele>
      </trkpt>
      <trkpt lat="36.77251" lon="27.62135">
        <ele>0.995</ele>
      </trkpt>
      <trkpt lat="36.77263" lon="27.62143">
        <ele>0.915</ele>
      </trkpt>
      <trkpt lat="36.77275" lon="27.62151">
        <ele>0.948</ele>
      </trkpt>
      <trkpt lat="36.77291" lon="27.62161">
        <ele>0.904</ele>
      </trkpt>
      <trkpt lat="36.77311" lon="27.62176">
        <ele>0.871</ele>
      </trkpt>
      <trkpt lat="36.77328" lon="27.62188">
        <ele>0.808</ele>
      </trkpt>
      <trkpt lat="36.77338" lon="27.62197">
        <ele>0.86</ele>
      </trkpt>
      <trkpt lat="36.77347" lon="27.62206">
        <ele>0.712</ele>
      </trkpt>
      <trkpt lat="36.77358" lon="27.62216">
        <ele>0.794</ele>
      </trkpt>
      <trkpt lat="36.7736" lon="27.62217">
        <ele>0.836</ele>
      </trkpt>
      <trkpt lat="36.77378" lon="27.62238">
        <ele>0.746</ele>
      </trkpt>
      <trkpt lat="36.77398" lon="27.62259">
        <ele>0.785</ele>
      </trkpt>
      <trkpt lat="36.77412" lon="27.62275">
        <ele>0.909</ele>
      </trkpt>
      <trkpt lat="36.77426" lon="27.62286">
        <ele>0.429</ele>
      </trkpt>
      <trkpt lat="36.77442" lon="27.62301">
        <ele>0.805</ele>
      </trkpt>
      <trkpt lat="36.77459" lon="27.62315">
        <ele>1</ele>
      </trkpt>
      <trkpt lat="36.77484" lon="27.62333">
        <ele>0.992</ele>
      </trkpt>
      <trkpt lat="36.77502" lon="27.62347">
        <ele>0.943</ele>
      </trkpt>
      <trkpt lat="36.77519" lon="27.62361">
        <ele>0.343</ele>
      </trkpt>
      <trkpt lat="36.77525" lon="27.62365">
        <ele>0.226</ele>
      </trkpt>
      <trkpt lat="36.77543" lon="27.62378">
        <ele>0.623</ele>
      </trkpt>
      <trkpt lat="36.7756" lon="27.62393">
        <ele>0.848</ele>
      </trkpt>
      <trkpt lat="36.77577" lon="27.62408">
        <ele>0.747</ele>
      </trkpt>
      <trkpt lat="36.77593" lon="27.62419">
        <ele>0.657</ele>
      </trkpt>
      <trkpt lat="36.77613" lon="27.62434">
        <ele>-2.175</ele>
      </trkpt>
      <trkpt lat="36.77629" lon="27.62449">
        <ele>-3.656</ele>
      </trkpt>
      <trkpt lat="36.77647" lon="27.62466">
        <ele>-1.498</ele>
      </trkpt>
      <trkpt lat="36.77656" lon="27.62476">
        <ele>-0.287</ele>
      </trkpt>
      <trkpt lat="36.77669" lon="27.62488">
        <ele>-0.532</ele>
      </trkpt>
      <trkpt lat="36.77683" lon="27.62501">
        <ele>-0.246</ele>
      </trkpt>
      <trkpt lat="36.777" lon="27.62517">
        <ele>-0.908</ele>
      </trkpt>
      <trkpt lat="36.77715" lon="27.62528">
        <ele>-0.004</ele>
      </trkpt>
      <trkpt lat="36.77733" lon="27.62543">
        <ele>0.321</ele>
      </trkpt>
      <trkpt lat="36.77734" lon="27.62544">
        <ele>0.319</ele>
      </trkpt>
      <trkpt lat="36.77742" lon="27.62552">
        <ele>0.523</ele>
      </trkpt>
      <trkpt lat="36.77758" lon="27.62565">
        <ele>0.76</ele>
      </trkpt>
      <trkpt lat="36.77779" lon="27.62581">
        <ele>0.997</ele>
      </trkpt>
      <trkpt lat="36.77797" lon="27.62595">
        <ele>0.607</ele>
      </trkpt>
      <trkpt lat="36.77807" lon="27.62601">
        <ele>0.981</ele>
      </trkpt>
      <trkpt lat="36.77827" lon="27.62616">
        <ele>0.763</ele>
      </trkpt>
      <trkpt lat="36.77845" lon="27.62629">
        <ele>-0.16</ele>
      </trkpt>
      <trkpt lat="36.77861" lon="27.62635">
        <ele>-1.531</ele>
      </trkpt>
      <trkpt lat="36.77872" lon="27.62643">
        <ele>-0.886</ele>
      </trkpt>
      <trkpt lat="36.77893" lon="27.62658">
        <ele>-0.171</ele>
      </trkpt>
      <trkpt lat="36.77912" lon="27.62669">
        <ele>0.627</ele>
      </trkpt>
      <trkpt lat="36.77933" lon="27.62687">
        <ele>0.849</ele>
      </trkpt>
      <trkpt lat="36.77953" lon="27.627">
        <ele>0.76</ele>
      </trkpt>
      <trkpt lat="36.77974" lon="27.62716">
        <ele>0.751</ele>
      </trkpt>
      <trkpt lat="36.77995" lon="27.6273">
        <ele>0.416</ele>
      </trkpt>
      <trkpt lat="36.78017" lon="27.62744">
        <ele>0.794</ele>
      </trkpt>
      <trkpt lat="36.78035" lon="27.62758">
        <ele>0.826</ele>
      </trkpt>
      <trkpt lat="36.78048" lon="27.62769">
        <ele>0.771</ele>
      </trkpt>
      <trkpt lat="36.78066" lon="27.62784">
        <ele>0.693</ele>
      </trkpt>
      <trkpt lat="36.78077" lon="27.62791">
        <ele>0.605</ele>
      </trkpt>
      <trkpt lat="36.781" lon="27.62805">
        <ele>0.97</ele>
      </trkpt>
      <trkpt lat="36.78121" lon="27.62815">
        <ele>0.771</ele>
      </trkpt>
      <trkpt lat="36.78141" lon="27.62826">
        <ele>0.718</ele>
      </trkpt>
      <trkpt lat="36.78149" lon="27.6283">
        <ele>0.882</ele>
      </trkpt>
      <trkpt lat="36.78162" lon="27.62836">
        <ele>0.98</ele>
      </trkpt>
      <trkpt lat="36.78184" lon="27.62848">
        <ele>0.688</ele>
      </trkpt>
      <trkpt lat="36.782" lon="27.62853">
        <ele>0.575</ele>
      </trkpt>
      <trkpt lat="36.78215" lon="27.62859">
        <ele>0.251</ele>
      </trkpt>
      <trkpt lat="36.78219" lon="27.62861">
        <ele>0.124</ele>
      </trkpt>
      <trkpt lat="36.7823" lon="27.62866">
        <ele>0.184</ele>
      </trkpt>
      <trkpt lat="36.7823" lon="27.62866">
        <ele>0.184</ele>
      </trkpt>
      <trkpt lat="36.78246" lon="27.62875">
        <ele>0.494</ele>
      </trkpt>
      <trkpt lat="36.78259" lon="27.6288">
        <ele>0.867</ele>
      </trkpt>
      <trkpt lat="36.78277" lon="27.62881">
        <ele>1.381</ele>
      </trkpt>
      <trkpt lat="36.78296" lon="27.62881">
        <ele>0.505</ele>
      </trkpt>
      <trkpt lat="36.78315" lon="27.62886">
        <ele>2</ele>
      </trkpt>
      <trkpt lat="36.78324" lon="27.62887">
        <ele>2</ele>
      </trkpt>
      <trkpt lat="36.7834" lon="27.62889">
        <ele>0.017</ele>
      </trkpt>
      <trkpt lat="36.78352" lon="27.6289">
        <ele>0.036</ele>
      </trkpt>
      <trkpt lat="36.78361" lon="27.6289">
        <ele>0.026</ele>
      </trkpt>
      <trkpt lat="36.78372" lon="27.62888">
        <ele>0.378</ele>
      </trkpt>
      <trkpt lat="36.78388" lon="27.62888">
        <ele>0.952</ele>
      </trkpt>
      <trkpt lat="36.78405" lon="27.62884">
        <ele>0.922</ele>
      </trkpt>
      <trkpt lat="36.78415" lon="27.62876">
        <ele>0.974</ele>
      </trkpt>
      <trkpt lat="36.78426" lon="27.62869">
        <ele>1.446</ele>
      </trkpt>
      <trkpt lat="36.78426" lon="27.6287">
        <ele>1.454</ele>
      </trkpt>
      <trkpt lat="36.78431" lon="27.62863">
        <ele>1.557</ele>
      </trkpt>
      <trkpt lat="36.78437" lon="27.62853">
        <ele>1.645</ele>
      </trkpt>
      <trkpt lat="36.78437" lon="27.62853">
        <ele>1.654</ele>
      </trkpt>
      <trkpt lat="36.78447" lon="27.62835">
        <ele>2.259</ele>
      </trkpt>
      <trkpt lat="36.78448" lon="27.62834">
        <ele>2.355</ele>
      </trkpt>
      <trkpt lat="36.78457" lon="27.62836">
        <ele>3.313</ele>
      </trkpt>
      <trkpt lat="36.78458" lon="27.62835">
        <ele>3.444</ele>
      </trkpt>
      <trkpt lat="36.78473" lon="27.62827">
        <ele>4.88</ele>
      </trkpt>
      <trkpt lat="36.78478" lon="27.62825">
        <ele>5.46</ele>
      </trkpt>
      <trkpt lat="36.7849" lon="27.62818">
        <ele>7.032</ele>
      </trkpt>
      <trkpt lat="36.78494" lon="27.62816">
        <ele>7.554</ele>
      </trkpt>
      <trkpt lat="36.78496" lon="27.62814">
        <ele>7.743</ele>
      </trkpt>
      <trkpt lat="36.78497" lon="27.62814">
        <ele>7.82</ele>
      </trkpt>
      <trkpt lat="36.78498" lon="27.62811">
        <ele>7.935</ele>
      </trkpt>
      <trkpt lat="36.785" lon="27.62806">
        <ele>8.067</ele>
      </trkpt>
      <trkpt lat="36.785" lon="27.62812">
        <ele>8.26</ele>
      </trkpt>
      <trkpt lat="36.78502" lon="27.62805">
        <ele>8.628</ele>
      </trkpt>
      <trkpt lat="36.78508" lon="27.62802">
        <ele>10.281</ele>
      </trkpt>
      <trkpt lat="36.7852" lon="27.62797">
        <ele>13.496</ele>
      </trkpt>
      <trkpt lat="36.78527" lon="27.62798">
        <ele>15.936</ele>
      </trkpt>
      <trkpt lat="36.7853" lon="27.62801">
        <ele>17.302</ele>
      </trkpt>
      <trkpt lat="36.78535" lon="27.62805">
        <ele>19.813</ele>
      </trkpt>
      <trkpt lat="36.78541" lon="27.6281">
        <ele>22.425</ele>
      </trkpt>
      <trkpt lat="36.78548" lon="27.62815">
        <ele>25.081</ele>
      </trkpt>
      <trkpt lat="36.78556" lon="27.62813">
        <ele>28.301</ele>
      </trkpt>
      <trkpt lat="36.7856" lon="27.62815">
        <ele>29.984</ele>
      </trkpt>
      <trkpt lat="36.78566" lon="27.62818">
        <ele>32.595</ele>
      </trkpt>
      <trkpt lat="36.78575" lon="27.62826">
        <ele>36.801</ele>
      </trkpt>
      <trkpt lat="36.78579" lon="27.62829">
        <ele>38.677</ele>
      </trkpt>
      <trkpt lat="36.78579" lon="27.62832">
        <ele>39.129</ele>
      </trkpt>
      <trkpt lat="36.78583" lon="27.62836">
        <ele>40.836</ele>
      </trkpt>
      <trkpt lat="36.78587" lon="27.62842">
        <ele>42.763</ele>
      </trkpt>
      <trkpt lat="36.78589" lon="27.62843">
        <ele>43.484</ele>
      </trkpt>
      <trkpt lat="36.78589" lon="27.62843">
        <ele>43.77</ele>
      </trkpt>
      <trkpt lat="36.78597" lon="27.62847">
        <ele>47.311</ele>
      </trkpt>
      <trkpt lat="36.786" lon="27.62845">
        <ele>48.391</ele>
      </trkpt>
      <trkpt lat="36.78604" lon="27.62845">
        <ele>49.734</ele>
      </trkpt>
      <trkpt lat="36.78611" lon="27.62833">
        <ele>52.073</ele>
      </trkpt>
      <trkpt lat="36.78621" lon="27.62824">
        <ele>53.832</ele>
      </trkpt>
      <trkpt lat="36.78623" lon="27.62824">
        <ele>54.235</ele>
      </trkpt>
      <trkpt lat="36.78628" lon="27.62821">
        <ele>55.152</ele>
      </trkpt>
      <trkpt lat="36.78634" lon="27.62815">
        <ele>56.044</ele>
      </trkpt>
      <trkpt lat="36.78634" lon="27.62814">
        <ele>56.002</ele>
      </trkpt>
      <trkpt lat="36.78639" lon="27.62796">
        <ele>55.379</ele>
      </trkpt>
      <trkpt lat="36.78645" lon="27.62784">
        <ele>56.212</ele>
      </trkpt>
      <trkpt lat="36.78654" lon="27.62777">
        <ele>58.171</ele>
      </trkpt>
      <trkpt lat="36.78658" lon="27.62772">
        <ele>59.328</ele>
      </trkpt>
      <trkpt lat="36.78661" lon="27.62768">
        <ele>60.13</ele>
      </trkpt>
      <trkpt lat="36.78665" lon="27.62766">
        <ele>61.447</ele>
      </trkpt>
      <trkpt lat="36.78676" lon="27.62754">
        <ele>64.342</ele>
      </trkpt>
      <trkpt lat="36.78689" lon="27.62744">
        <ele>67.275</ele>
      </trkpt>
      <trkpt lat="36.78701" lon="27.62734">
        <ele>69.364</ele>
      </trkpt>
      <trkpt lat="36.78708" lon="27.62722">
        <ele>69.918</ele>
      </trkpt>
      <trkpt lat="36.7871" lon="27.62718">
        <ele>69.809</ele>
      </trkpt>
      <trkpt lat="36.78717" lon="27.62709">
        <ele>69.917</ele>
      </trkpt>
      <trkpt lat="36.78729" lon="27.62702">
        <ele>68.79</ele>
      </trkpt>
      <trkpt lat="36.78731" lon="27.627">
        <ele>68.258</ele>
      </trkpt>
      <trkpt lat="36.78738" lon="27.62697">
        <ele>66.617</ele>
      </trkpt>
      <trkpt lat="36.78746" lon="27.62692">
        <ele>64.02</ele>
      </trkpt>
      <trkpt lat="36.78749" lon="27.62689">
        <ele>62.767</ele>
      </trkpt>
      <trkpt lat="36.78754" lon="27.62684">
        <ele>60.167</ele>
      </trkpt>
      <trkpt lat="36.7876" lon="27.62682">
        <ele>57.61</ele>
      </trkpt>
      <trkpt lat="36.78767" lon="27.62687">
        <ele>56.637</ele>
      </trkpt>
      <trkpt lat="36.78772" lon="27.62693">
        <ele>56.549</ele>
      </trkpt>
      <trkpt lat="36.78778" lon="27.62695">
        <ele>55.231</ele>
      </trkpt>
      <trkpt lat="36.78783" lon="27.627">
        <ele>53.735</ele>
      </trkpt>
      <trkpt lat="36.78786" lon="27.62705">
        <ele>53.215</ele>
      </trkpt>
      <trkpt lat="36.78787" lon="27.6271">
        <ele>53.598</ele>
      </trkpt>
      <trkpt lat="36.78788" lon="27.62712">
        <ele>53.334</ele>
      </trkpt>
      <trkpt lat="36.7879" lon="27.62716">
        <ele>53.012</ele>
      </trkpt>
      <trkpt lat="36.78795" lon="27.62721">
        <ele>51.39</ele>
      </trkpt>
      <trkpt lat="36.78798" lon="27.62725">
        <ele>50.314</ele>
      </trkpt>
      <trkpt lat="36.78802" lon="27.62738">
        <ele>50.717</ele>
      </trkpt>
      <trkpt lat="36.7881" lon="27.62748">
        <ele>48.083</ele>
      </trkpt>
      <trkpt lat="36.7882" lon="27.62755">
        <ele>42.94</ele>
      </trkpt>
      <trkpt lat="36.7883" lon="27.62765">
        <ele>38.874</ele>
      </trkpt>
      <trkpt lat="36.78839" lon="27.62771">
        <ele>35.976</ele>
      </trkpt>
      <trkpt lat="36.78846" lon="27.62773">
        <ele>33.663</ele>
      </trkpt>
      <trkpt lat="36.78854" lon="27.62775">
        <ele>31.209</ele>
      </trkpt>
      <trkpt lat="36.78862" lon="27.62778">
        <ele>28.632</ele>
      </trkpt>
      <trkpt lat="36.78868" lon="27.62778">
        <ele>26.756</ele>
      </trkpt>
      <trkpt lat="36.78872" lon="27.62781">
        <ele>25.779</ele>
      </trkpt>
      <trkpt lat="36.78881" lon="27.62785">
        <ele>23.391</ele>
      </trkpt>
      <trkpt lat="36.7889" lon="27.62794">
        <ele>21.448</ele>
      </trkpt>
      <trkpt lat="36.78891" lon="27.62795">
        <ele>21.103</ele>
      </trkpt>
      <trkpt lat="36.78897" lon="27.62804">
        <ele>20.378</ele>
      </trkpt>
      <trkpt lat="36.78897" lon="27.62804">
        <ele>20.312</ele>
      </trkpt>
      <trkpt lat="36.78902" lon="27.62811">
        <ele>19.474</ele>
      </trkpt>
      <trkpt lat="36.78906" lon="27.62813">
        <ele>17.825</ele>
      </trkpt>
      <trkpt lat="36.78908" lon="27.62804">
        <ele>15.442</ele>
      </trkpt>
      <trkpt lat="36.78911" lon="27.62795">
        <ele>12.657</ele>
      </trkpt>
      <trkpt lat="36.78916" lon="27.62785">
        <ele>9.459</ele>
      </trkpt>
      <trkpt lat="36.7892" lon="27.6278">
        <ele>7.662</ele>
      </trkpt>
      <trkpt lat="36.78928" lon="27.62781">
        <ele>6.128</ele>
      </trkpt>
      <trkpt lat="36.78934" lon="27.62783">
        <ele>4.903</ele>
      </trkpt>
      <trkpt lat="36.78941" lon="27.62787">
        <ele>4.02</ele>
      </trkpt>
      <trkpt lat="36.78946" lon="27.62787">
        <ele>3.342</ele>
      </trkpt>
      <trkpt lat="36.78969" lon="27.62792">
        <ele>3.098</ele>
      </trkpt>
      <trkpt lat="36.7897" lon="27.62791">
        <ele>3</ele>
      </trkpt>
      <trkpt lat="36.78972" lon="27.6279">
        <ele>2.889</ele>
      </trkpt>
      <trkpt lat="36.78976" lon="27.62791">
        <ele>3.082</ele>
      </trkpt>
      <trkpt lat="36.78982" lon="27.62793">
        <ele>3.409</ele>
      </trkpt>
      <trkpt lat="36.78982" lon="27.62793">
        <ele>3.415</ele>
      </trkpt>
      <trkpt lat="36.78987" lon="27.62791">
        <ele>3.482</ele>
      </trkpt>
      <trkpt lat="36.78988" lon="27.62792">
        <ele>3.59</ele>
      </trkpt>
      <trkpt lat="36.79" lon="27.62812">
        <ele>4.247</ele>
      </trkpt>
      <trkpt lat="36.79001" lon="27.62814">
        <ele>4.334</ele>
      </trkpt>
      <trkpt lat="36.79004" lon="27.62822">
        <ele>4.777</ele>
      </trkpt>
      <trkpt lat="36.79003" lon="27.62822">
        <ele>4.756</ele>
      </trkpt>
      <trkpt lat="36.79006" lon="27.6283">
        <ele>5.122</ele>
      </trkpt>
      <trkpt lat="36.79007" lon="27.62831">
        <ele>5.169</ele>
      </trkpt>
      <trkpt lat="36.79008" lon="27.62831">
        <ele>5.199</ele>
      </trkpt>
      <trkpt lat="36.79014" lon="27.6283">
        <ele>5.453</ele>
      </trkpt>
      <trkpt lat="36.79023" lon="27.62838">
        <ele>6.338</ele>
      </trkpt>
      <trkpt lat="36.79028" lon="27.6284">
        <ele>6.725</ele>
      </trkpt>
      <trkpt lat="36.79031" lon="27.62845">
        <ele>7.802</ele>
      </trkpt>
      <trkpt lat="36.79031" lon="27.62845">
        <ele>7.784</ele>
      </trkpt>
      <trkpt lat="36.79031" lon="27.62843">
        <ele>7.553</ele>
      </trkpt>
      <trkpt lat="36.79032" lon="27.62846">
        <ele>8.03</ele>
      </trkpt>
      <trkpt lat="36.79032" lon="27.62845">
        <ele>7.975</ele>
      </trkpt>
      <trkpt lat="36.79031" lon="27.62843">
        <ele>7.457</ele>
      </trkpt>
      <trkpt lat="36.79029" lon="27.62842">
        <ele>7.093</ele>
      </trkpt>
      <trkpt lat="36.79028" lon="27.62842">
        <ele>6.992</ele>
      </trkpt>
      <trkpt lat="36.79033" lon="27.62847">
        <ele>8.265</ele>
      </trkpt>
      <trkpt lat="36.79037" lon="27.62852">
        <ele>9.596</ele>
      </trkpt>
      <trkpt lat="36.79034" lon="27.62849">
        <ele>8.718</ele>
      </trkpt>
      <trkpt lat="36.79041" lon="27.62858">
        <ele>11.084</ele>
      </trkpt>
      <trkpt lat="36.79044" lon="27.62864">
        <ele>12.436</ele>
      </trkpt>
      <trkpt lat="36.79041" lon="27.6286">
        <ele>11.268</ele>
      </trkpt>
      <trkpt lat="36.79043" lon="27.62862">
        <ele>11.873</ele>
      </trkpt>
      <trkpt lat="36.79043" lon="27.62874">
        <ele>14.082</ele>
      </trkpt>
      <trkpt lat="36.7905" lon="27.62882">
        <ele>16.754</ele>
      </trkpt>
      <trkpt lat="36.79049" lon="27.62882">
        <ele>16.656</ele>
      </trkpt>
      <trkpt lat="36.79043" lon="27.62874">
        <ele>14.068</ele>
      </trkpt>
      <trkpt lat="36.79043" lon="27.62871">
        <ele>13.497</ele>
      </trkpt>
      <trkpt lat="36.79042" lon="27.62872">
        <ele>13.388</ele>
      </trkpt>
      <trkpt lat="36.79042" lon="27.62872">
        <ele>13.476</ele>
      </trkpt>
      <trkpt lat="36.79044" lon="27.62877">
        <ele>14.735</ele>
      </trkpt>
      <trkpt lat="36.79052" lon="27.62888">
        <ele>18.138</ele>
      </trkpt>
      <trkpt lat="36.79052" lon="27.62888">
        <ele>18.097</ele>
      </trkpt>
      <trkpt lat="36.79058" lon="27.62891">
        <ele>19.758</ele>
      </trkpt>
      <trkpt lat="36.79068" lon="27.62887">
        <ele>21.437</ele>
      </trkpt>
      <trkpt lat="36.79068" lon="27.62888">
        <ele>21.45</ele>
      </trkpt>
      <trkpt lat="36.79069" lon="27.6289">
        <ele>21.978</ele>
      </trkpt>
      <trkpt lat="36.79069" lon="27.62888">
        <ele>21.652</ele>
      </trkpt>
      <trkpt lat="36.79071" lon="27.62895">
        <ele>22.825</ele>
      </trkpt>
      <trkpt lat="36.79076" lon="27.62897">
        <ele>23.979</ele>
      </trkpt>
      <trkpt lat="36.79079" lon="27.62897">
        <ele>24.794</ele>
      </trkpt>
      <trkpt lat="36.79082" lon="27.62901">
        <ele>25.536</ele>
      </trkpt>
      <trkpt lat="36.79078" lon="27.62897">
        <ele>24.491</ele>
      </trkpt>
      <trkpt lat="36.79077" lon="27.62896">
        <ele>24.209</ele>
      </trkpt>
      <trkpt lat="36.79077" lon="27.62898">
        <ele>24.364</ele>
      </trkpt>
      <trkpt lat="36.7908" lon="27.62901">
        <ele>25.154</ele>
      </trkpt>
      <trkpt lat="36.79081" lon="27.62905">
        <ele>25.767</ele>
      </trkpt>
      <trkpt lat="36.79082" lon="27.62913">
        <ele>26.39</ele>
      </trkpt>
      <trkpt lat="36.79082" lon="27.62917">
        <ele>26.796</ele>
      </trkpt>
      <trkpt lat="36.79083" lon="27.62923">
        <ele>27.754</ele>
      </trkpt>
      <trkpt lat="36.79083" lon="27.62927">
        <ele>28.38</ele>
      </trkpt>
      <trkpt lat="36.79083" lon="27.62932">
        <ele>29.161</ele>
      </trkpt>
      <trkpt lat="36.79083" lon="27.62932">
        <ele>29.174</ele>
      </trkpt>
      <trkpt lat="36.79089" lon="27.62938">
        <ele>31.11</ele>
      </trkpt>
      <trkpt lat="36.79094" lon="27.6294">
        <ele>32.48</ele>
      </trkpt>
      <trkpt lat="36.79094" lon="27.6294">
        <ele>32.593</ele>
      </trkpt>
      <trkpt lat="36.79099" lon="27.62942">
        <ele>33.859</ele>
      </trkpt>
      <trkpt lat="36.79103" lon="27.62946">
        <ele>35.718</ele>
      </trkpt>
      <trkpt lat="36.79103" lon="27.62947">
        <ele>35.733</ele>
      </trkpt>
      <trkpt lat="36.79102" lon="27.62951">
        <ele>36.491</ele>
      </trkpt>
      <trkpt lat="36.79108" lon="27.62959">
        <ele>39.509</ele>
      </trkpt>
      <trkpt lat="36.79109" lon="27.62958">
        <ele>39.37</ele>
      </trkpt>
      <trkpt lat="36.79112" lon="27.62966">
        <ele>41.703</ele>
      </trkpt>
      <trkpt lat="36.79114" lon="27.62976">
        <ele>44.199</ele>
      </trkpt>
      <trkpt lat="36.79116" lon="27.62978">
        <ele>44.657</ele>
      </trkpt>
      <trkpt lat="36.79118" lon="27.62981">
        <ele>45.481</ele>
      </trkpt>
      <trkpt lat="36.79119" lon="27.62981">
        <ele>45.853</ele>
      </trkpt>
      <trkpt lat="36.79119" lon="27.62982">
        <ele>45.936</ele>
      </trkpt>
      <trkpt lat="36.79121" lon="27.62981">
        <ele>46.119</ele>
      </trkpt>
      <trkpt lat="36.79121" lon="27.62981">
        <ele>46.155</ele>
      </trkpt>
      <trkpt lat="36.7912" lon="27.62981">
        <ele>46.088</ele>
      </trkpt>
      <trkpt lat="36.79112" lon="27.62979">
        <ele>44.22</ele>
      </trkpt>
      <trkpt lat="36.79107" lon="27.62984">
        <ele>43.862</ele>
      </trkpt>
      <trkpt lat="36.79113" lon="27.62979">
        <ele>44.204</ele>
      </trkpt>
      <trkpt lat="36.79113" lon="27.62979">
        <ele>44.245</ele>
      </trkpt>
      <trkpt lat="36.79113" lon="27.6297">
        <ele>42.849</ele>
      </trkpt>
      <trkpt lat="36.79112" lon="27.62969">
        <ele>42.611</ele>
      </trkpt>
      <trkpt lat="36.79114" lon="27.62972">
        <ele>43.333</ele>
      </trkpt>
      <trkpt lat="36.79113" lon="27.62974">
        <ele>43.489</ele>
      </trkpt>
      <trkpt lat="36.79117" lon="27.62982">
        <ele>45.539</ele>
      </trkpt>
      <trkpt lat="36.79124" lon="27.6298">
        <ele>46.607</ele>
      </trkpt>
      <trkpt lat="36.79126" lon="27.62981">
        <ele>47.19</ele>
      </trkpt>
      <trkpt lat="36.79126" lon="27.62981">
        <ele>47.234</ele>
      </trkpt>
      <trkpt lat="36.79128" lon="27.62984">
        <ele>48.221</ele>
      </trkpt>
      <trkpt lat="36.79129" lon="27.62993">
        <ele>50.202</ele>
      </trkpt>
      <trkpt lat="36.79129" lon="27.62999">
        <ele>51.236</ele>
      </trkpt>
      <trkpt lat="36.7913" lon="27.63002">
        <ele>52.192</ele>
      </trkpt>
      <trkpt lat="36.7913" lon="27.63003">
        <ele>52.405</ele>
      </trkpt>
      <trkpt lat="36.7913" lon="27.62999">
        <ele>51.523</ele>
      </trkpt>
      <trkpt lat="36.7913" lon="27.62994">
        <ele>50.602</ele>
      </trkpt>
      <trkpt lat="36.7913" lon="27.62994">
        <ele>50.613</ele>
      </trkpt>
      <trkpt lat="36.79129" lon="27.62994">
        <ele>50.365</ele>
      </trkpt>
      <trkpt lat="36.79129" lon="27.63006">
        <ele>52.516</ele>
      </trkpt>
      <trkpt lat="36.79133" lon="27.63007">
        <ele>53.903</ele>
      </trkpt>
      <trkpt lat="36.79144" lon="27.63015">
        <ele>56.831</ele>
      </trkpt>
      <trkpt lat="36.79146" lon="27.63015">
        <ele>56.978</ele>
      </trkpt>
      <trkpt lat="36.79148" lon="27.63015">
        <ele>57.023</ele>
      </trkpt>
      <trkpt lat="36.79154" lon="27.63017">
        <ele>57.616</ele>
      </trkpt>
      <trkpt lat="36.79154" lon="27.63017">
        <ele>57.601</ele>
      </trkpt>
      <trkpt lat="36.7915" lon="27.63015">
        <ele>56.997</ele>
      </trkpt>
      <trkpt lat="36.79148" lon="27.63014">
        <ele>56.885</ele>
      </trkpt>
      <trkpt lat="36.79148" lon="27.63015">
        <ele>57.075</ele>
      </trkpt>
      <trkpt lat="36.79148" lon="27.63009">
        <ele>56.04</ele>
      </trkpt>
      <trkpt lat="36.79149" lon="27.63011">
        <ele>56.368</ele>
      </trkpt>
      <trkpt lat="36.79144" lon="27.63016">
        <ele>56.985</ele>
      </trkpt>
      <trkpt lat="36.79141" lon="27.63014">
        <ele>56.614</ele>
      </trkpt>
      <trkpt lat="36.79134" lon="27.63009">
        <ele>54.257</ele>
      </trkpt>
      <trkpt lat="36.79129" lon="27.63007">
        <ele>52.825</ele>
      </trkpt>
      <trkpt lat="36.79129" lon="27.63007">
        <ele>52.753</ele>
      </trkpt>
      <trkpt lat="36.7913" lon="27.63008">
        <ele>53.062</ele>
      </trkpt>
      <trkpt lat="36.79138" lon="27.63013">
        <ele>56.141</ele>
      </trkpt>
      <trkpt lat="36.79139" lon="27.63014">
        <ele>56.451</ele>
      </trkpt>
      <trkpt lat="36.79152" lon="27.63019">
        <ele>57.85</ele>
      </trkpt>
      <trkpt lat="36.79154" lon="27.63019">
        <ele>57.974</ele>
      </trkpt>
      <trkpt lat="36.79163" lon="27.63024">
        <ele>59.237</ele>
      </trkpt>
      <trkpt lat="36.79164" lon="27.63023">
        <ele>59.096</ele>
      </trkpt>
      <trkpt lat="36.7916" lon="27.63021">
        <ele>58.558</ele>
      </trkpt>
      <trkpt lat="36.79161" lon="27.6302">
        <ele>58.383</ele>
      </trkpt>
      <trkpt lat="36.79166" lon="27.63028">
        <ele>60.025</ele>
      </trkpt>
      <trkpt lat="36.79167" lon="27.63026">
        <ele>59.728</ele>
      </trkpt>
      <trkpt lat="36.79169" lon="27.63029">
        <ele>60.283</ele>
      </trkpt>
      <trkpt lat="36.79173" lon="27.63046">
        <ele>63.645</ele>
      </trkpt>
      <trkpt lat="36.79174" lon="27.63052">
        <ele>64.799</ele>
      </trkpt>
      <trkpt lat="36.79176" lon="27.63052">
        <ele>65.042</ele>
      </trkpt>
      <trkpt lat="36.79176" lon="27.63062">
        <ele>66.265</ele>
      </trkpt>
      <trkpt lat="36.7918" lon="27.6307">
        <ele>67.49</ele>
      </trkpt>
      <trkpt lat="36.79188" lon="27.63084">
        <ele>70.174</ele>
      </trkpt>
      <trkpt lat="36.79193" lon="27.6309">
        <ele>71.259</ele>
      </trkpt>
      <trkpt lat="36.79197" lon="27.6309">
        <ele>71.885</ele>
      </trkpt>
      <trkpt lat="36.7921" lon="27.63106">
        <ele>75.811</ele>
      </trkpt>
      <trkpt lat="36.79213" lon="27.63113">
        <ele>77.385</ele>
      </trkpt>
      <trkpt lat="36.79215" lon="27.63116">
        <ele>78.748</ele>
      </trkpt>
      <trkpt lat="36.79217" lon="27.63119">
        <ele>80.104</ele>
      </trkpt>
      <trkpt lat="36.79218" lon="27.63123">
        <ele>81.606</ele>
      </trkpt>
      <trkpt lat="36.79217" lon="27.63134">
        <ele>84.478</ele>
      </trkpt>
      <trkpt lat="36.79217" lon="27.63136">
        <ele>85.244</ele>
      </trkpt>
      <trkpt lat="36.79219" lon="27.6314">
        <ele>87.143</ele>
      </trkpt>
      <trkpt lat="36.79219" lon="27.6314">
        <ele>87.142</ele>
      </trkpt>
      <trkpt lat="36.79219" lon="27.63143">
        <ele>87.872</ele>
      </trkpt>
      <trkpt lat="36.79221" lon="27.63146">
        <ele>89.43</ele>
      </trkpt>
      <trkpt lat="36.7922" lon="27.63147">
        <ele>89.128</ele>
      </trkpt>
      <trkpt lat="36.79222" lon="27.63151">
        <ele>90.946</ele>
      </trkpt>
      <trkpt lat="36.79228" lon="27.63162">
        <ele>94.215</ele>
      </trkpt>
      <trkpt lat="36.79228" lon="27.63163">
        <ele>94.661</ele>
      </trkpt>
      <trkpt lat="36.79228" lon="27.63165">
        <ele>95.075</ele>
      </trkpt>
      <trkpt lat="36.79228" lon="27.63167">
        <ele>95.4</ele>
      </trkpt>
      <trkpt lat="36.79228" lon="27.63168">
        <ele>95.531</ele>
      </trkpt>
      <trkpt lat="36.79229" lon="27.63169">
        <ele>95.719</ele>
      </trkpt>
      <trkpt lat="36.79243" lon="27.63176">
        <ele>97.627</ele>
      </trkpt>
      <trkpt lat="36.79247" lon="27.63181">
        <ele>98.727</ele>
      </trkpt>
      <trkpt lat="36.79247" lon="27.63179">
        <ele>98.443</ele>
      </trkpt>
      <trkpt lat="36.79247" lon="27.63184">
        <ele>99.226</ele>
      </trkpt>
      <trkpt lat="36.79249" lon="27.63189">
        <ele>100.087</ele>
      </trkpt>
      <trkpt lat="36.79253" lon="27.63192">
        <ele>101.721</ele>
      </trkpt>
      <trkpt lat="36.79255" lon="27.63193">
        <ele>102.524</ele>
      </trkpt>
      <trkpt lat="36.7926" lon="27.63195">
        <ele>104.223</ele>
      </trkpt>
      <trkpt lat="36.7926" lon="27.63196">
        <ele>104.514</ele>
      </trkpt>
      <trkpt lat="36.79259" lon="27.63196">
        <ele>104.224</ele>
      </trkpt>
      <trkpt lat="36.79268" lon="27.63206">
        <ele>108.39</ele>
      </trkpt>
      <trkpt lat="36.79271" lon="27.63209">
        <ele>109.861</ele>
      </trkpt>
      <trkpt lat="36.79271" lon="27.63209">
        <ele>109.856</ele>
      </trkpt>
      <trkpt lat="36.79269" lon="27.63208">
        <ele>108.957</ele>
      </trkpt>
      <trkpt lat="36.79274" lon="27.63223">
        <ele>112.67</ele>
      </trkpt>
      <trkpt lat="36.79279" lon="27.63228">
        <ele>114.679</ele>
      </trkpt>
      <trkpt lat="36.79282" lon="27.63228">
        <ele>115.378</ele>
      </trkpt>
      <trkpt lat="36.79288" lon="27.63236">
        <ele>117.188</ele>
      </trkpt>
      <trkpt lat="36.79295" lon="27.63242">
        <ele>118.905</ele>
      </trkpt>
      <trkpt lat="36.79307" lon="27.63249">
        <ele>121.456</ele>
      </trkpt>
      <trkpt lat="36.79307" lon="27.63247">
        <ele>121.497</ele>
      </trkpt>
      <trkpt lat="36.79316" lon="27.63252">
        <ele>124.661</ele>
      </trkpt>
      <trkpt lat="36.79323" lon="27.63259">
        <ele>127.36</ele>
      </trkpt>
      <trkpt lat="36.79333" lon="27.63266">
        <ele>130.331</ele>
      </trkpt>
      <trkpt lat="36.79337" lon="27.63266">
        <ele>132.142</ele>
      </trkpt>
      <trkpt lat="36.79341" lon="27.63269">
        <ele>133.459</ele>
      </trkpt>
      <trkpt lat="36.79343" lon="27.63271">
        <ele>134.051</ele>
      </trkpt>
      <trkpt lat="36.79347" lon="27.63275">
        <ele>134.972</ele>
      </trkpt>
      <trkpt lat="36.79346" lon="27.63274">
        <ele>134.632</ele>
      </trkpt>
      <trkpt lat="36.79351" lon="27.63283">
        <ele>135.779</ele>
      </trkpt>
      <trkpt lat="36.79358" lon="27.63289">
        <ele>138.104</ele>
      </trkpt>
      <trkpt lat="36.79359" lon="27.6329">
        <ele>138.359</ele>
      </trkpt>
      <trkpt lat="36.79362" lon="27.63291">
        <ele>139.439</ele>
      </trkpt>
      <trkpt lat="36.79363" lon="27.63293">
        <ele>139.656</ele>
      </trkpt>
      <trkpt lat="36.79367" lon="27.63303">
        <ele>141.438</ele>
      </trkpt>
      <trkpt lat="36.79367" lon="27.63312">
        <ele>141.826</ele>
      </trkpt>
      <trkpt lat="36.79368" lon="27.63312">
        <ele>141.896</ele>
      </trkpt>
      <trkpt lat="36.79367" lon="27.63311">
        <ele>141.706</ele>
      </trkpt>
      <trkpt lat="36.79366" lon="27.63313">
        <ele>141.406</ele>
      </trkpt>
      <trkpt lat="36.79363" lon="27.6332">
        <ele>141.002</ele>
      </trkpt>
      <trkpt lat="36.79362" lon="27.6332">
        <ele>140.763</ele>
      </trkpt>
      <trkpt lat="36.7936" lon="27.63333">
        <ele>141.656</ele>
      </trkpt>
      <trkpt lat="36.79357" lon="27.63341">
        <ele>141.795</ele>
      </trkpt>
      <trkpt lat="36.79356" lon="27.63342">
        <ele>141.639</ele>
      </trkpt>
      <trkpt lat="36.79352" lon="27.63345">
        <ele>140.778</ele>
      </trkpt>
      <trkpt lat="36.7935" lon="27.63349">
        <ele>140.555</ele>
      </trkpt>
      <trkpt lat="36.79348" lon="27.6335">
        <ele>140.36</ele>
      </trkpt>
      <trkpt lat="36.79345" lon="27.63354">
        <ele>139.966</ele>
      </trkpt>
      <trkpt lat="36.79341" lon="27.63366">
        <ele>140.602</ele>
      </trkpt>
      <trkpt lat="36.79341" lon="27.63371">
        <ele>141.274</ele>
      </trkpt>
      <trkpt lat="36.79342" lon="27.63375">
        <ele>141.896</ele>
      </trkpt>
      <trkpt lat="36.79342" lon="27.63381">
        <ele>142.84</ele>
      </trkpt>
      <trkpt lat="36.79349" lon="27.63395">
        <ele>146.153</ele>
      </trkpt>
      <trkpt lat="36.79354" lon="27.63397">
        <ele>147.287</ele>
      </trkpt>
      <trkpt lat="36.7936" lon="27.63399">
        <ele>148.891</ele>
      </trkpt>
      <trkpt lat="36.79361" lon="27.63399">
        <ele>149.092</ele>
      </trkpt>
      <trkpt lat="36.7937" lon="27.63408">
        <ele>152.243</ele>
      </trkpt>
      <trkpt lat="36.79372" lon="27.6341">
        <ele>153.159</ele>
      </trkpt>
      <trkpt lat="36.79374" lon="27.63411">
        <ele>153.619</ele>
      </trkpt>
      <trkpt lat="36.79377" lon="27.63415">
        <ele>154.819</ele>
      </trkpt>
      <trkpt lat="36.79382" lon="27.63418">
        <ele>156.448</ele>
      </trkpt>
      <trkpt lat="36.79383" lon="27.63419">
        <ele>156.846</ele>
      </trkpt>
      <trkpt lat="36.7939" lon="27.63426">
        <ele>159.147</ele>
      </trkpt>
      <trkpt lat="36.79396" lon="27.63429">
        <ele>160.371</ele>
      </trkpt>
      <trkpt lat="36.79398" lon="27.63429">
        <ele>160.886</ele>
      </trkpt>
      <trkpt lat="36.79398" lon="27.63429">
        <ele>160.769</ele>
      </trkpt>
      <trkpt lat="36.7939" lon="27.63426">
        <ele>159.244</ele>
      </trkpt>
      <trkpt lat="36.79389" lon="27.63426">
        <ele>159.002</ele>
      </trkpt>
      <trkpt lat="36.79389" lon="27.63427">
        <ele>159.125</ele>
      </trkpt>
      <trkpt lat="36.79395" lon="27.6343">
        <ele>160.465</ele>
      </trkpt>
      <trkpt lat="36.79404" lon="27.63434">
        <ele>162.383</ele>
      </trkpt>
      <trkpt lat="36.79409" lon="27.63441">
        <ele>164.08</ele>
      </trkpt>
      <trkpt lat="36.79409" lon="27.63441">
        <ele>164.161</ele>
      </trkpt>
      <trkpt lat="36.79413" lon="27.63453">
        <ele>166.575</ele>
      </trkpt>
      <trkpt lat="36.79417" lon="27.63461">
        <ele>168.423</ele>
      </trkpt>
      <trkpt lat="36.79425" lon="27.63476">
        <ele>171.378</ele>
      </trkpt>
      <trkpt lat="36.7943" lon="27.63481">
        <ele>172.526</ele>
      </trkpt>
      <trkpt lat="36.7943" lon="27.63481">
        <ele>172.586</ele>
      </trkpt>
      <trkpt lat="36.79427" lon="27.63478">
        <ele>171.866</ele>
      </trkpt>
      <trkpt lat="36.79428" lon="27.63479">
        <ele>172.078</ele>
      </trkpt>
      <trkpt lat="36.79429" lon="27.63481">
        <ele>172.366</ele>
      </trkpt>
      <trkpt lat="36.7943" lon="27.63481">
        <ele>172.511</ele>
      </trkpt>
      <trkpt lat="36.79429" lon="27.6348">
        <ele>172.42</ele>
      </trkpt>
      <trkpt lat="36.79431" lon="27.63488">
        <ele>173.538</ele>
      </trkpt>
      <trkpt lat="36.79437" lon="27.63502">
        <ele>175.645</ele>
      </trkpt>
      <trkpt lat="36.79437" lon="27.63502">
        <ele>175.626</ele>
      </trkpt>
      <trkpt lat="36.79439" lon="27.63503">
        <ele>175.93</ele>
      </trkpt>
      <trkpt lat="36.79439" lon="27.63504">
        <ele>176.006</ele>
      </trkpt>
      <trkpt lat="36.79449" lon="27.63503">
        <ele>176.474</ele>
      </trkpt>
      <trkpt lat="36.79455" lon="27.63506">
        <ele>177.133</ele>
      </trkpt>
      <trkpt lat="36.79458" lon="27.63507">
        <ele>177.491</ele>
      </trkpt>
      <trkpt lat="36.79458" lon="27.63506">
        <ele>177.409</ele>
      </trkpt>
      <trkpt lat="36.79461" lon="27.63512">
        <ele>178.388</ele>
      </trkpt>
      <trkpt lat="36.79462" lon="27.63516">
        <ele>179.053</ele>
      </trkpt>
      <trkpt lat="36.79466" lon="27.63521">
        <ele>180.211</ele>
      </trkpt>
      <trkpt lat="36.79466" lon="27.63521">
        <ele>180.243</ele>
      </trkpt>
      <trkpt lat="36.79468" lon="27.63521">
        <ele>180.388</ele>
      </trkpt>
      <trkpt lat="36.79471" lon="27.63519">
        <ele>180.307</ele>
      </trkpt>
      <trkpt lat="36.79484" lon="27.63525">
        <ele>183.217</ele>
      </trkpt>
      <trkpt lat="36.79492" lon="27.63534">
        <ele>185.884</ele>
      </trkpt>
      <trkpt lat="36.79497" lon="27.63547">
        <ele>188.983</ele>
      </trkpt>
      <trkpt lat="36.79499" lon="27.6355">
        <ele>189.875</ele>
      </trkpt>
      <trkpt lat="36.79501" lon="27.63555">
        <ele>191.218</ele>
      </trkpt>
      <trkpt lat="36.79502" lon="27.63557">
        <ele>191.474</ele>
      </trkpt>
      <trkpt lat="36.79503" lon="27.63558">
        <ele>191.73</ele>
      </trkpt>
      <trkpt lat="36.79504" lon="27.63557">
        <ele>191.975</ele>
      </trkpt>
      <trkpt lat="36.79508" lon="27.63557">
        <ele>192.806</ele>
      </trkpt>
      <trkpt lat="36.79513" lon="27.63567">
        <ele>194.507</ele>
      </trkpt>
      <trkpt lat="36.79514" lon="27.63573">
        <ele>195.238</ele>
      </trkpt>
      <trkpt lat="36.79515" lon="27.6359">
        <ele>196.618</ele>
      </trkpt>
      <trkpt lat="36.79515" lon="27.63595">
        <ele>196.794</ele>
      </trkpt>
      <trkpt lat="36.79516" lon="27.63598">
        <ele>196.94</ele>
      </trkpt>
      <trkpt lat="36.79516" lon="27.63599">
        <ele>196.939</ele>
      </trkpt>
      <trkpt lat="36.79517" lon="27.63598">
        <ele>197.218</ele>
      </trkpt>
      <trkpt lat="36.79515" lon="27.63604">
        <ele>197.094</ele>
      </trkpt>
      <trkpt lat="36.79508" lon="27.63606">
        <ele>195.426</ele>
      </trkpt>
      <trkpt lat="36.79508" lon="27.63611">
        <ele>195.639</ele>
      </trkpt>
      <trkpt lat="36.79508" lon="27.63613">
        <ele>195.856</ele>
      </trkpt>
      <trkpt lat="36.79508" lon="27.63613">
        <ele>195.919</ele>
      </trkpt>
      <trkpt lat="36.79507" lon="27.63611">
        <ele>195.429</ele>
      </trkpt>
      <trkpt lat="36.79508" lon="27.63609">
        <ele>195.696</ele>
      </trkpt>
      <trkpt lat="36.79509" lon="27.63608">
        <ele>195.865</ele>
      </trkpt>
      <trkpt lat="36.79517" lon="27.63607">
        <ele>197.462</ele>
      </trkpt>
      <trkpt lat="36.79517" lon="27.63606">
        <ele>197.405</ele>
      </trkpt>
      <trkpt lat="36.79518" lon="27.63611">
        <ele>197.805</ele>
      </trkpt>
      <trkpt lat="36.79519" lon="27.63614">
        <ele>198.339</ele>
      </trkpt>
      <trkpt lat="36.79519" lon="27.63617">
        <ele>198.513</ele>
      </trkpt>
      <trkpt lat="36.7952" lon="27.63621">
        <ele>199.093</ele>
      </trkpt>
      <trkpt lat="36.79519" lon="27.63624">
        <ele>199.132</ele>
      </trkpt>
      <trkpt lat="36.7952" lon="27.63626">
        <ele>199.286</ele>
      </trkpt>
      <trkpt lat="36.79521" lon="27.63633">
        <ele>200.012</ele>
      </trkpt>
      <trkpt lat="36.79521" lon="27.63633">
        <ele>200.045</ele>
      </trkpt>
      <trkpt lat="36.79521" lon="27.63636">
        <ele>200.419</ele>
      </trkpt>
      <trkpt lat="36.79523" lon="27.63635">
        <ele>200.587</ele>
      </trkpt>
      <trkpt lat="36.79518" lon="27.63634">
        <ele>199.584</ele>
      </trkpt>
      <trkpt lat="36.79517" lon="27.63637">
        <ele>199.549</ele>
      </trkpt>
      <trkpt lat="36.79517" lon="27.63639">
        <ele>199.586</ele>
      </trkpt>
      <trkpt lat="36.79516" lon="27.6364">
        <ele>199.497</ele>
      </trkpt>
      <trkpt lat="36.79509" lon="27.63635">
        <ele>197.517</ele>
      </trkpt>
      <trkpt lat="36.79511" lon="27.63636">
        <ele>198.076</ele>
      </trkpt>
      <trkpt lat="36.79513" lon="27.63638">
        <ele>198.833</ele>
      </trkpt>
      <trkpt lat="36.79514" lon="27.6364">
        <ele>199.142</ele>
      </trkpt>
      <trkpt lat="36.79518" lon="27.63643">
        <ele>199.938</ele>
      </trkpt>
      <trkpt lat="36.79515" lon="27.63653">
        <ele>199.749</ele>
      </trkpt>
      <trkpt lat="36.79518" lon="27.6365">
        <ele>200.164</ele>
      </trkpt>
      <trkpt lat="36.79519" lon="27.63649">
        <ele>200.377</ele>
      </trkpt>
      <trkpt lat="36.79513" lon="27.63651">
        <ele>199.293</ele>
      </trkpt>
      <trkpt lat="36.79508" lon="27.63659">
        <ele>198.665</ele>
      </trkpt>
      <trkpt lat="36.79507" lon="27.6366">
        <ele>198.584</ele>
      </trkpt>
      <trkpt lat="36.79503" lon="27.63664">
        <ele>198.298</ele>
      </trkpt>
      <trkpt lat="36.79503" lon="27.63665">
        <ele>198.273</ele>
      </trkpt>
      <trkpt lat="36.79501" lon="27.63668">
        <ele>198.307</ele>
      </trkpt>
      <trkpt lat="36.79499" lon="27.6367">
        <ele>198.28</ele>
      </trkpt>
      <trkpt lat="36.79498" lon="27.6367">
        <ele>198.151</ele>
      </trkpt>
      <trkpt lat="36.795" lon="27.63671">
        <ele>198.448</ele>
      </trkpt>
      <trkpt lat="36.79493" lon="27.63684">
        <ele>199.374</ele>
      </trkpt>
      <trkpt lat="36.7949" lon="27.63688">
        <ele>199.79</ele>
      </trkpt>
      <trkpt lat="36.79488" lon="27.63693">
        <ele>200.385</ele>
      </trkpt>
      <trkpt lat="36.79487" lon="27.637">
        <ele>200.711</ele>
      </trkpt>
      <trkpt lat="36.79486" lon="27.637">
        <ele>200.702</ele>
      </trkpt>
      <trkpt lat="36.79483" lon="27.63705">
        <ele>200.922</ele>
      </trkpt>
      <trkpt lat="36.79484" lon="27.63709">
        <ele>201.112</ele>
      </trkpt>
      <trkpt lat="36.79473" lon="27.6372">
        <ele>202.675</ele>
      </trkpt>
      <trkpt lat="36.79469" lon="27.63736">
        <ele>203.837</ele>
      </trkpt>
      <trkpt lat="36.79469" lon="27.63736">
        <ele>203.851</ele>
      </trkpt>
      <trkpt lat="36.79467" lon="27.63738">
        <ele>204.109</ele>
      </trkpt>
      <trkpt lat="36.79465" lon="27.63743">
        <ele>204.624</ele>
      </trkpt>
      <trkpt lat="36.79465" lon="27.63747">
        <ele>204.892</ele>
      </trkpt>
      <trkpt lat="36.7946" lon="27.63762">
        <ele>206.274</ele>
      </trkpt>
      <trkpt lat="36.79457" lon="27.63769">
        <ele>207.348</ele>
      </trkpt>
      <trkpt lat="36.79456" lon="27.63772">
        <ele>207.98</ele>
      </trkpt>
      <trkpt lat="36.79455" lon="27.63775">
        <ele>208.354</ele>
      </trkpt>
      <trkpt lat="36.79445" lon="27.63783">
        <ele>211.731</ele>
      </trkpt>
      <trkpt lat="36.79439" lon="27.63793">
        <ele>213.079</ele>
      </trkpt>
      <trkpt lat="36.79433" lon="27.63805">
        <ele>214.388</ele>
      </trkpt>
      <trkpt lat="36.79429" lon="27.63812">
        <ele>214.473</ele>
      </trkpt>
      <trkpt lat="36.79428" lon="27.63812">
        <ele>214.498</ele>
      </trkpt>
      <trkpt lat="36.79421" lon="27.63832">
        <ele>213.171</ele>
      </trkpt>
      <trkpt lat="36.79416" lon="27.63836">
        <ele>213.802</ele>
      </trkpt>
      <trkpt lat="36.79406" lon="27.63845">
        <ele>213.807</ele>
      </trkpt>
      <trkpt lat="36.79405" lon="27.63845">
        <ele>213.909</ele>
      </trkpt>
      <trkpt lat="36.79408" lon="27.63841">
        <ele>214.053</ele>
      </trkpt>
      <trkpt lat="36.79407" lon="27.63841">
        <ele>214.089</ele>
      </trkpt>
      <trkpt lat="36.79397" lon="27.63852">
        <ele>214.368</ele>
      </trkpt>
      <trkpt lat="36.79396" lon="27.63853">
        <ele>214.416</ele>
      </trkpt>
      <trkpt lat="36.79391" lon="27.6386">
        <ele>214.673</ele>
      </trkpt>
      <trkpt lat="36.79391" lon="27.63863">
        <ele>214.67</ele>
      </trkpt>
      <trkpt lat="36.79381" lon="27.63874">
        <ele>215.957</ele>
      </trkpt>
      <trkpt lat="36.79379" lon="27.63878">
        <ele>216.17</ele>
      </trkpt>
      <trkpt lat="36.79378" lon="27.63883">
        <ele>216.155</ele>
      </trkpt>
      <trkpt lat="36.79367" lon="27.63898">
        <ele>217.709</ele>
      </trkpt>
      <trkpt lat="36.79361" lon="27.63907">
        <ele>218.507</ele>
      </trkpt>
      <trkpt lat="36.79359" lon="27.63908">
        <ele>219.114</ele>
      </trkpt>
      <trkpt lat="36.79357" lon="27.6391">
        <ele>220.037</ele>
      </trkpt>
      <trkpt lat="36.79355" lon="27.63913">
        <ele>220.836</ele>
      </trkpt>
      <trkpt lat="36.79354" lon="27.63915">
        <ele>221.236</ele>
      </trkpt>
      <trkpt lat="36.79353" lon="27.63909">
        <ele>221.811</ele>
      </trkpt>
      <trkpt lat="36.79349" lon="27.63911">
        <ele>223.199</ele>
      </trkpt>
      <trkpt lat="36.79349" lon="27.63911">
        <ele>223.172</ele>
      </trkpt>
      <trkpt lat="36.79347" lon="27.63921">
        <ele>224.174</ele>
      </trkpt>
      <trkpt lat="36.79347" lon="27.63928">
        <ele>224.606</ele>
      </trkpt>
      <trkpt lat="36.79343" lon="27.63938">
        <ele>226.381</ele>
      </trkpt>
      <trkpt lat="36.79344" lon="27.63938">
        <ele>225.941</ele>
      </trkpt>
      <trkpt lat="36.79341" lon="27.63938">
        <ele>227.049</ele>
      </trkpt>
      <trkpt lat="36.79339" lon="27.63946">
        <ele>227.958</ele>
      </trkpt>
      <trkpt lat="36.79339" lon="27.63962">
        <ele>228.837</ele>
      </trkpt>
      <trkpt lat="36.79338" lon="27.63963">
        <ele>228.983</ele>
      </trkpt>
      <trkpt lat="36.79339" lon="27.63977">
        <ele>229.086</ele>
      </trkpt>
      <trkpt lat="36.79338" lon="27.63988">
        <ele>229.451</ele>
      </trkpt>
      <trkpt lat="36.79337" lon="27.63995">
        <ele>229.961</ele>
      </trkpt>
      <trkpt lat="36.79334" lon="27.64013">
        <ele>230.891</ele>
      </trkpt>
      <trkpt lat="36.79332" lon="27.64015">
        <ele>231.366</ele>
      </trkpt>
      <trkpt lat="36.79332" lon="27.64015">
        <ele>231.235</ele>
      </trkpt>
      <trkpt lat="36.79325" lon="27.6403">
        <ele>232.659</ele>
      </trkpt>
      <trkpt lat="36.7932" lon="27.64036">
        <ele>233.436</ele>
      </trkpt>
      <trkpt lat="36.79315" lon="27.64044">
        <ele>233.974</ele>
      </trkpt>
      <trkpt lat="36.79312" lon="27.64051">
        <ele>234.059</ele>
      </trkpt>
      <trkpt lat="36.79313" lon="27.64051">
        <ele>233.949</ele>
      </trkpt>
      <trkpt lat="36.79313" lon="27.64052">
        <ele>233.84</ele>
      </trkpt>
      <trkpt lat="36.79315" lon="27.64043">
        <ele>234.099</ele>
      </trkpt>
      <trkpt lat="36.79315" lon="27.64042">
        <ele>234.157</ele>
      </trkpt>
      <trkpt lat="36.79312" lon="27.64041">
        <ele>234.735</ele>
      </trkpt>
      <trkpt lat="36.79315" lon="27.6404">
        <ele>234.316</ele>
      </trkpt>
      <trkpt lat="36.79311" lon="27.64047">
        <ele>234.543</ele>
      </trkpt>
      <trkpt lat="36.79313" lon="27.64051">
        <ele>233.897</ele>
      </trkpt>
      <trkpt lat="36.79316" lon="27.64054">
        <ele>233.14</ele>
      </trkpt>
      <trkpt lat="36.79324" lon="27.64064">
        <ele>231.712</ele>
      </trkpt>
      <trkpt lat="36.79324" lon="27.64065">
        <ele>231.679</ele>
      </trkpt>
      <trkpt lat="36.79333" lon="27.64073">
        <ele>230.026</ele>
      </trkpt>
      <trkpt lat="36.79334" lon="27.64074">
        <ele>229.861</ele>
      </trkpt>
      <trkpt lat="36.79334" lon="27.64073">
        <ele>229.773</ele>
      </trkpt>
      <trkpt lat="36.79335" lon="27.64078">
        <ele>229.615</ele>
      </trkpt>
      <trkpt lat="36.79335" lon="27.64087">
        <ele>229.492</ele>
      </trkpt>
      <trkpt lat="36.79336" lon="27.64087">
        <ele>229.319</ele>
      </trkpt>
      <trkpt lat="36.79334" lon="27.64084">
        <ele>229.794</ele>
      </trkpt>
      <trkpt lat="36.79335" lon="27.64081">
        <ele>229.513</ele>
      </trkpt>
      <trkpt lat="36.79338" lon="27.6408">
        <ele>228.806</ele>
      </trkpt>
      <trkpt lat="36.79335" lon="27.64078">
        <ele>229.541</ele>
      </trkpt>
      <trkpt lat="36.79332" lon="27.64071">
        <ele>230.318</ele>
      </trkpt>
      <trkpt lat="36.79329" lon="27.64069">
        <ele>230.712</ele>
      </trkpt>
      <trkpt lat="36.79335" lon="27.64076">
        <ele>229.66</ele>
      </trkpt>
      <trkpt lat="36.79343" lon="27.64072">
        <ele>227.633</ele>
      </trkpt>
      <trkpt lat="36.79343" lon="27.64073">
        <ele>227.76</ele>
      </trkpt>
      <trkpt lat="36.79334" lon="27.6408">
        <ele>229.79</ele>
      </trkpt>
      <trkpt lat="36.79334" lon="27.6408">
        <ele>229.896</ele>
      </trkpt>
      <trkpt lat="36.79332" lon="27.64081">
        <ele>230.22</ele>
      </trkpt>
      <trkpt lat="36.79331" lon="27.64093">
        <ele>230.606</ele>
      </trkpt>
      <trkpt lat="36.79327" lon="27.64108">
        <ele>231.711</ele>
      </trkpt>
      <trkpt lat="36.79323" lon="27.64126">
        <ele>235.157</ele>
      </trkpt>
      <trkpt lat="36.79324" lon="27.64133">
        <ele>235.858</ele>
      </trkpt>
      <trkpt lat="36.79325" lon="27.6414">
        <ele>236.7</ele>
      </trkpt>
      <trkpt lat="36.79329" lon="27.64148">
        <ele>237.363</ele>
      </trkpt>
      <trkpt lat="36.79329" lon="27.64149">
        <ele>237.608</ele>
      </trkpt>
      <trkpt lat="36.7933" lon="27.64159">
        <ele>239.815</ele>
      </trkpt>
      <trkpt lat="36.79331" lon="27.64168">
        <ele>242.09</ele>
      </trkpt>
      <trkpt lat="36.79332" lon="27.64171">
        <ele>242.489</ele>
      </trkpt>
      <trkpt lat="36.79334" lon="27.64175">
        <ele>242.669</ele>
      </trkpt>
      <trkpt lat="36.7934" lon="27.64191">
        <ele>245.675</ele>
      </trkpt>
      <trkpt lat="36.79341" lon="27.64195">
        <ele>246.934</ele>
      </trkpt>
      <trkpt lat="36.79343" lon="27.64204">
        <ele>249.689</ele>
      </trkpt>
      <trkpt lat="36.79347" lon="27.6421">
        <ele>251.266</ele>
      </trkpt>
      <trkpt lat="36.79348" lon="27.64215">
        <ele>252.753</ele>
      </trkpt>
      <trkpt lat="36.79347" lon="27.6422">
        <ele>254.763</ele>
      </trkpt>
      <trkpt lat="36.79348" lon="27.64223">
        <ele>255.702</ele>
      </trkpt>
      <trkpt lat="36.79348" lon="27.64228">
        <ele>256.992</ele>
      </trkpt>
      <trkpt lat="36.79348" lon="27.64236">
        <ele>259.306</ele>
      </trkpt>
      <trkpt lat="36.79347" lon="27.64237">
        <ele>259.685</ele>
      </trkpt>
      <trkpt lat="36.79346" lon="27.64245">
        <ele>262.249</ele>
      </trkpt>
      <trkpt lat="36.79345" lon="27.64245">
        <ele>262.227</ele>
      </trkpt>
      <trkpt lat="36.79345" lon="27.64246">
        <ele>262.588</ele>
      </trkpt>
      <trkpt lat="36.79347" lon="27.64253">
        <ele>264.462</ele>
      </trkpt>
      <trkpt lat="36.7935" lon="27.64261">
        <ele>266.505</ele>
      </trkpt>
      <trkpt lat="36.7935" lon="27.64262">
        <ele>266.669</ele>
      </trkpt>
      <trkpt lat="36.79354" lon="27.64264">
        <ele>267.056</ele>
      </trkpt>
      <trkpt lat="36.79354" lon="27.64266">
        <ele>267.654</ele>
      </trkpt>
      <trkpt lat="36.79356" lon="27.64271">
        <ele>269.228</ele>
      </trkpt>
      <trkpt lat="36.79355" lon="27.64275">
        <ele>270.375</ele>
      </trkpt>
      <trkpt lat="36.79355" lon="27.64275">
        <ele>270.28</ele>
      </trkpt>
      <trkpt lat="36.79356" lon="27.64275">
        <ele>270.425</ele>
      </trkpt>
      <trkpt lat="36.79354" lon="27.6428">
        <ele>271.925</ele>
      </trkpt>
      <trkpt lat="36.79353" lon="27.64285">
        <ele>274.201</ele>
      </trkpt>
      <trkpt lat="36.79352" lon="27.64291">
        <ele>276.509</ele>
      </trkpt>
      <trkpt lat="36.79351" lon="27.64296">
        <ele>278.397</ele>
      </trkpt>
      <trkpt lat="36.79348" lon="27.64297">
        <ele>278.741</ele>
      </trkpt>
      <trkpt lat="36.79346" lon="27.64304">
        <ele>281.543</ele>
      </trkpt>
      <trkpt lat="36.79344" lon="27.64308">
        <ele>282.854</ele>
      </trkpt>
      <trkpt lat="36.79342" lon="27.64311">
        <ele>283.665</ele>
      </trkpt>
      <trkpt lat="36.7934" lon="27.64315">
        <ele>285.121</ele>
      </trkpt>
      <trkpt lat="36.7934" lon="27.64316">
        <ele>285.512</ele>
      </trkpt>
      <trkpt lat="36.7934" lon="27.64319">
        <ele>286.615</ele>
      </trkpt>
      <trkpt lat="36.79341" lon="27.64324">
        <ele>288.224</ele>
      </trkpt>
      <trkpt lat="36.7934" lon="27.64323">
        <ele>288.019</ele>
      </trkpt>
      <trkpt lat="36.79342" lon="27.64322">
        <ele>287.479</ele>
      </trkpt>
      <trkpt lat="36.79339" lon="27.64321">
        <ele>287.285</ele>
      </trkpt>
      <trkpt lat="36.79338" lon="27.64323">
        <ele>288.212</ele>
      </trkpt>
      <trkpt lat="36.79337" lon="27.64328">
        <ele>289.745</ele>
      </trkpt>
      <trkpt lat="36.79337" lon="27.64329">
        <ele>290.072</ele>
      </trkpt>
      <trkpt lat="36.79335" lon="27.64331">
        <ele>290.853</ele>
      </trkpt>
      <trkpt lat="36.79335" lon="27.64332">
        <ele>291.231</ele>
      </trkpt>
      <trkpt lat="36.79334" lon="27.64333">
        <ele>291.959</ele>
      </trkpt>
      <trkpt lat="36.79331" lon="27.6434">
        <ele>293.346</ele>
      </trkpt>
      <trkpt lat="36.79331" lon="27.64342">
        <ele>293.686</ele>
      </trkpt>
      <trkpt lat="36.79334" lon="27.64336">
        <ele>292.393</ele>
      </trkpt>
      <trkpt lat="36.79335" lon="27.64332">
        <ele>291.521</ele>
      </trkpt>
      <trkpt lat="36.79334" lon="27.64326">
        <ele>289.249</ele>
      </trkpt>
      <trkpt lat="36.79329" lon="27.64337">
        <ele>292.832</ele>
      </trkpt>
      <trkpt lat="36.79328" lon="27.64341">
        <ele>293.529</ele>
      </trkpt>
      <trkpt lat="36.79328" lon="27.6434">
        <ele>293.482</ele>
      </trkpt>
      <trkpt lat="36.79327" lon="27.6434">
        <ele>293.474</ele>
      </trkpt>
      <trkpt lat="36.79326" lon="27.64347">
        <ele>294.764</ele>
      </trkpt>
      <trkpt lat="36.79325" lon="27.64356">
        <ele>296.288</ele>
      </trkpt>
      <trkpt lat="36.79325" lon="27.64362">
        <ele>297.398</ele>
      </trkpt>
      <trkpt lat="36.79325" lon="27.6436">
        <ele>297.093</ele>
      </trkpt>
      <trkpt lat="36.79323" lon="27.64368">
        <ele>298.067</ele>
      </trkpt>
      <trkpt lat="36.79321" lon="27.64374">
        <ele>298.802</ele>
      </trkpt>
      <trkpt lat="36.7932" lon="27.64375">
        <ele>298.973</ele>
      </trkpt>
      <trkpt lat="36.7932" lon="27.64379">
        <ele>299.455</ele>
      </trkpt>
      <trkpt lat="36.79318" lon="27.64384">
        <ele>300.087</ele>
      </trkpt>
      <trkpt lat="36.79318" lon="27.64385">
        <ele>300.152</ele>
      </trkpt>
      <trkpt lat="36.79319" lon="27.64383">
        <ele>299.922</ele>
      </trkpt>
      <trkpt lat="36.79319" lon="27.64386">
        <ele>300.175</ele>
      </trkpt>
      <trkpt lat="36.79319" lon="27.64386">
        <ele>300.148</ele>
      </trkpt>
      <trkpt lat="36.79319" lon="27.64385">
        <ele>300.155</ele>
      </trkpt>
      <trkpt lat="36.7932" lon="27.64376">
        <ele>299.136</ele>
      </trkpt>
      <trkpt lat="36.79324" lon="27.64369">
        <ele>298.174</ele>
      </trkpt>
      <trkpt lat="36.79326" lon="27.64364">
        <ele>297.553</ele>
      </trkpt>
      <trkpt lat="36.79321" lon="27.64365">
        <ele>297.861</ele>
      </trkpt>
      <trkpt lat="36.79316" lon="27.64365">
        <ele>298.06</ele>
      </trkpt>
      <trkpt lat="36.79312" lon="27.64359">
        <ele>297.469</ele>
      </trkpt>
      <trkpt lat="36.79312" lon="27.64356">
        <ele>296.909</ele>
      </trkpt>
      <trkpt lat="36.79311" lon="27.64351">
        <ele>296.081</ele>
      </trkpt>
      <trkpt lat="36.79311" lon="27.64351">
        <ele>295.994</ele>
      </trkpt>
      <trkpt lat="36.79311" lon="27.6435">
        <ele>295.846</ele>
      </trkpt>
      <trkpt lat="36.79311" lon="27.6435">
        <ele>295.863</ele>
      </trkpt>
      <trkpt lat="36.79311" lon="27.64351">
        <ele>295.899</ele>
      </trkpt>
      <trkpt lat="36.79311" lon="27.6435">
        <ele>295.836</ele>
      </trkpt>
      <trkpt lat="36.7931" lon="27.64349">
        <ele>295.69</ele>
      </trkpt>
      <trkpt lat="36.79311" lon="27.64351">
        <ele>295.954</ele>
      </trkpt>
      <trkpt lat="36.79311" lon="27.64359">
        <ele>297.389</ele>
      </trkpt>
      <trkpt lat="36.79313" lon="27.64367">
        <ele>298.382</ele>
      </trkpt>
      <trkpt lat="36.79314" lon="27.64374">
        <ele>299.111</ele>
      </trkpt>
      <trkpt lat="36.79321" lon="27.64379">
        <ele>299.336</ele>
      </trkpt>
      <trkpt lat="36.79325" lon="27.64379">
        <ele>299.214</ele>
      </trkpt>
      <trkpt lat="36.79327" lon="27.64376">
        <ele>298.828</ele>
      </trkpt>
      <trkpt lat="36.79332" lon="27.64373">
        <ele>298.373</ele>
      </trkpt>
      <trkpt lat="36.79328" lon="27.64375">
        <ele>298.643</ele>
      </trkpt>
      <trkpt lat="36.79322" lon="27.64381">
        <ele>299.528</ele>
      </trkpt>
      <trkpt lat="36.79318" lon="27.64369">
        <ele>298.369</ele>
      </trkpt>
      <trkpt lat="36.79317" lon="27.64367">
        <ele>298.287</ele>
      </trkpt>
      <trkpt lat="36.79318" lon="27.64375">
        <ele>299.004</ele>
      </trkpt>
      <trkpt lat="36.79319" lon="27.64377">
        <ele>299.201</ele>
      </trkpt>
      <trkpt lat="36.79321" lon="27.64385">
        <ele>300.02</ele>
      </trkpt>
      <trkpt lat="36.79325" lon="27.64398">
        <ele>300.106</ele>
      </trkpt>
      <trkpt lat="36.79327" lon="27.64406">
        <ele>299.95</ele>
      </trkpt>
      <trkpt lat="36.79329" lon="27.64414">
        <ele>299.868</ele>
      </trkpt>
      <trkpt lat="36.79332" lon="27.64424">
        <ele>298.927</ele>
      </trkpt>
      <trkpt lat="36.79333" lon="27.64426">
        <ele>298.567</ele>
      </trkpt>
      <trkpt lat="36.79331" lon="27.64438">
        <ele>296.917</ele>
      </trkpt>
      <trkpt lat="36.79332" lon="27.64445">
        <ele>295.88</ele>
      </trkpt>
      <trkpt lat="36.79329" lon="27.64452">
        <ele>295.059</ele>
      </trkpt>
      <trkpt lat="36.79338" lon="27.64454">
        <ele>294.852</ele>
      </trkpt>
      <trkpt lat="36.79338" lon="27.64454">
        <ele>294.906</ele>
      </trkpt>
      <trkpt lat="36.79336" lon="27.64452">
        <ele>295.099</ele>
      </trkpt>
      <trkpt lat="36.79331" lon="27.64451">
        <ele>295.258</ele>
      </trkpt>
      <trkpt lat="36.79334" lon="27.64447">
        <ele>295.676</ele>
      </trkpt>
      <trkpt lat="36.79331" lon="27.64436">
        <ele>297.083</ele>
      </trkpt>
      <trkpt lat="36.7933" lon="27.64436">
        <ele>297.178</ele>
      </trkpt>
      <trkpt lat="36.79331" lon="27.64441">
        <ele>296.423</ele>
      </trkpt>
      <trkpt lat="36.79333" lon="27.64447">
        <ele>295.72</ele>
      </trkpt>
      <trkpt lat="36.7933" lon="27.64449">
        <ele>295.423</ele>
      </trkpt>
      <trkpt lat="36.7933" lon="27.64451">
        <ele>295.227</ele>
      </trkpt>
      <trkpt lat="36.79327" lon="27.64463">
        <ele>293.904</ele>
      </trkpt>
      <trkpt lat="36.79324" lon="27.64469">
        <ele>293.355</ele>
      </trkpt>
      <trkpt lat="36.79322" lon="27.64472">
        <ele>293.02</ele>
      </trkpt>
      <trkpt lat="36.79321" lon="27.64482">
        <ele>292.449</ele>
      </trkpt>
      <trkpt lat="36.79321" lon="27.64481">
        <ele>292.479</ele>
      </trkpt>
      <trkpt lat="36.79321" lon="27.64474">
        <ele>292.91</ele>
      </trkpt>
      <trkpt lat="36.7932" lon="27.64473">
        <ele>292.94</ele>
      </trkpt>
      <trkpt lat="36.79322" lon="27.64478">
        <ele>292.695</ele>
      </trkpt>
      <trkpt lat="36.79321" lon="27.64488">
        <ele>292.139</ele>
      </trkpt>
      <trkpt lat="36.79317" lon="27.64502">
        <ele>291.649</ele>
      </trkpt>
      <trkpt lat="36.79315" lon="27.64505">
        <ele>291.843</ele>
      </trkpt>
      <trkpt lat="36.7931" lon="27.64512">
        <ele>292.247</ele>
      </trkpt>
      <trkpt lat="36.7931" lon="27.64513">
        <ele>292.322</ele>
      </trkpt>
      <trkpt lat="36.79309" lon="27.6452">
        <ele>292.584</ele>
      </trkpt>
      <trkpt lat="36.79309" lon="27.64523">
        <ele>292.722</ele>
      </trkpt>
      <trkpt lat="36.79308" lon="27.64526">
        <ele>292.848</ele>
      </trkpt>
      <trkpt lat="36.79307" lon="27.64527">
        <ele>292.916</ele>
      </trkpt>
      <trkpt lat="36.79306" lon="27.6453">
        <ele>293.036</ele>
      </trkpt>
      <trkpt lat="36.79304" lon="27.6454">
        <ele>293.332</ele>
      </trkpt>
      <trkpt lat="36.79304" lon="27.6454">
        <ele>293.309</ele>
      </trkpt>
      <trkpt lat="36.79303" lon="27.64542">
        <ele>293.355</ele>
      </trkpt>
      <trkpt lat="36.79304" lon="27.64549">
        <ele>293.727</ele>
      </trkpt>
      <trkpt lat="36.79304" lon="27.6455">
        <ele>293.776</ele>
      </trkpt>
      <trkpt lat="36.79296" lon="27.64557">
        <ele>294.348</ele>
      </trkpt>
      <trkpt lat="36.79296" lon="27.64557">
        <ele>294.425</ele>
      </trkpt>
      <trkpt lat="36.79295" lon="27.64558">
        <ele>294.612</ele>
      </trkpt>
      <trkpt lat="36.79295" lon="27.64556">
        <ele>294.071</ele>
      </trkpt>
      <trkpt lat="36.79301" lon="27.64553">
        <ele>293.843</ele>
      </trkpt>
      <trkpt lat="36.79303" lon="27.6456">
        <ele>295.376</ele>
      </trkpt>
      <trkpt lat="36.79304" lon="27.64567">
        <ele>297.37</ele>
      </trkpt>
      <trkpt lat="36.79302" lon="27.64566">
        <ele>297.076</ele>
      </trkpt>
      <trkpt lat="36.79293" lon="27.64565">
        <ele>296.65</ele>
      </trkpt>
      <trkpt lat="36.79285" lon="27.64567">
        <ele>296.911</ele>
      </trkpt>
      <trkpt lat="36.79281" lon="27.64566">
        <ele>296.65</ele>
      </trkpt>
      <trkpt lat="36.79281" lon="27.64563">
        <ele>295.982</ele>
      </trkpt>
      <trkpt lat="36.79279" lon="27.64558">
        <ele>294.558</ele>
      </trkpt>
      <trkpt lat="36.79279" lon="27.64557">
        <ele>294.444</ele>
      </trkpt>
      <trkpt lat="36.79281" lon="27.6456">
        <ele>295.203</ele>
      </trkpt>
      <trkpt lat="36.79281" lon="27.64564">
        <ele>296.267</ele>
      </trkpt>
      <trkpt lat="36.79282" lon="27.64564">
        <ele>296.241</ele>
      </trkpt>
      <trkpt lat="36.79268" lon="27.64562">
        <ele>295.094</ele>
      </trkpt>
      <trkpt lat="36.79265" lon="27.6456">
        <ele>294.298</ele>
      </trkpt>
      <trkpt lat="36.79262" lon="27.64562">
        <ele>294.494</ele>
      </trkpt>
      <trkpt lat="36.7926" lon="27.64561">
        <ele>294.235</ele>
      </trkpt>
      <trkpt lat="36.79256" lon="27.64561">
        <ele>293.993</ele>
      </trkpt>
      <trkpt lat="36.79251" lon="27.6456">
        <ele>293.374</ele>
      </trkpt>
      <trkpt lat="36.79235" lon="27.64564">
        <ele>293.438</ele>
      </trkpt>
      <trkpt lat="36.79234" lon="27.64564">
        <ele>293.532</ele>
      </trkpt>
      <trkpt lat="36.79239" lon="27.64562">
        <ele>293.212</ele>
      </trkpt>
      <trkpt lat="36.79235" lon="27.64561">
        <ele>292.674</ele>
      </trkpt>
      <trkpt lat="36.79228" lon="27.64562">
        <ele>292.324</ele>
      </trkpt>
      <trkpt lat="36.79217" lon="27.64561">
        <ele>291.279</ele>
      </trkpt>
      <trkpt lat="36.79208" lon="27.64559">
        <ele>290.22</ele>
      </trkpt>
      <trkpt lat="36.79199" lon="27.6456">
        <ele>289.746</ele>
      </trkpt>
      <trkpt lat="36.79199" lon="27.6456">
        <ele>289.682</ele>
      </trkpt>
      <trkpt lat="36.79197" lon="27.6456">
        <ele>289.702</ele>
      </trkpt>
      <trkpt lat="36.79188" lon="27.64557">
        <ele>286.542</ele>
      </trkpt>
      <trkpt lat="36.79183" lon="27.64556">
        <ele>284.883</ele>
      </trkpt>
      <trkpt lat="36.79171" lon="27.64556">
        <ele>281.254</ele>
      </trkpt>
      <trkpt lat="36.79168" lon="27.64555">
        <ele>280.24</ele>
      </trkpt>
      <trkpt lat="36.79164" lon="27.64554">
        <ele>279.411</ele>
      </trkpt>
      <trkpt lat="36.79158" lon="27.64554">
        <ele>278.438</ele>
      </trkpt>
      <trkpt lat="36.79158" lon="27.64554">
        <ele>278.438</ele>
      </trkpt>
      <trkpt lat="36.79158" lon="27.64554">
        <ele>278.438</ele>
      </trkpt>
      <trkpt lat="36.79158" lon="27.64554">
        <ele>278.461</ele>
      </trkpt>
      <trkpt lat="36.79158" lon="27.64554">
        <ele>278.47</ele>
      </trkpt>
      <trkpt lat="36.79159" lon="27.64554">
        <ele>278.546</ele>
      </trkpt>
      <trkpt lat="36.79159" lon="27.64553">
        <ele>278.445</ele>
      </trkpt>
      <trkpt lat="36.79149" lon="27.6455">
        <ele>276.474</ele>
      </trkpt>
      <trkpt lat="36.79138" lon="27.64552">
        <ele>275.171</ele>
      </trkpt>
      <trkpt lat="36.79134" lon="27.64553">
        <ele>274.869</ele>
      </trkpt>
      <trkpt lat="36.79134" lon="27.64554">
        <ele>274.993</ele>
      </trkpt>
      <trkpt lat="36.79129" lon="27.64552">
        <ele>273.905</ele>
      </trkpt>
      <trkpt lat="36.79117" lon="27.64554">
        <ele>272.488</ele>
      </trkpt>
      <trkpt lat="36.79113" lon="27.64556">
        <ele>272.563</ele>
      </trkpt>
      <trkpt lat="36.79104" lon="27.64559">
        <ele>271.693</ele>
      </trkpt>
      <trkpt lat="36.79103" lon="27.64559">
        <ele>271.427</ele>
      </trkpt>
      <trkpt lat="36.79102" lon="27.6456">
        <ele>271.493</ele>
      </trkpt>
      <trkpt lat="36.79103" lon="27.64559">
        <ele>271.269</ele>
      </trkpt>
      <trkpt lat="36.79099" lon="27.64552">
        <ele>268.866</ele>
      </trkpt>
      <trkpt lat="36.79096" lon="27.64548">
        <ele>267.819</ele>
      </trkpt>
      <trkpt lat="36.79097" lon="27.64544">
        <ele>267.495</ele>
      </trkpt>
      <trkpt lat="36.79096" lon="27.64547">
        <ele>267.731</ele>
      </trkpt>
      <trkpt lat="36.79094" lon="27.64548">
        <ele>267.417</ele>
      </trkpt>
      <trkpt lat="36.79092" lon="27.64548">
        <ele>266.91</ele>
      </trkpt>
      <trkpt lat="36.79092" lon="27.64548">
        <ele>266.931</ele>
      </trkpt>
      <trkpt lat="36.79092" lon="27.64548">
        <ele>266.891</ele>
      </trkpt>
      <trkpt lat="36.79092" lon="27.64548">
        <ele>266.836</ele>
      </trkpt>
      <trkpt lat="36.79043" lon="27.6454">
        <ele>254.017</ele>
      </trkpt>
      <trkpt lat="36.79043" lon="27.64542">
        <ele>254.361</ele>
      </trkpt>
      <trkpt lat="36.79042" lon="27.64548">
        <ele>254.582</ele>
      </trkpt>
      <trkpt lat="36.79036" lon="27.64549">
        <ele>253.433</ele>
      </trkpt>
      <trkpt lat="36.79028" lon="27.64545">
        <ele>250.928</ele>
      </trkpt>
      <trkpt lat="36.79025" lon="27.64549">
        <ele>250.353</ele>
      </trkpt>
      <trkpt lat="36.79022" lon="27.64548">
        <ele>249.633</ele>
      </trkpt>
      <trkpt lat="36.79015" lon="27.64547">
        <ele>247.341</ele>
      </trkpt>
      <trkpt lat="36.79011" lon="27.64545">
        <ele>245.929</ele>
      </trkpt>
      <trkpt lat="36.79007" lon="27.64541">
        <ele>244.293</ele>
      </trkpt>
      <trkpt lat="36.78997" lon="27.64538">
        <ele>241.118</ele>
      </trkpt>
      <trkpt lat="36.78994" lon="27.64539">
        <ele>240.155</ele>
      </trkpt>
      <trkpt lat="36.78991" lon="27.6454">
        <ele>239.138</ele>
      </trkpt>
      <trkpt lat="36.78983" lon="27.64541">
        <ele>236.571</ele>
      </trkpt>
      <trkpt lat="36.78974" lon="27.64549">
        <ele>234.626</ele>
      </trkpt>
      <trkpt lat="36.78969" lon="27.64559">
        <ele>234.702</ele>
      </trkpt>
      <trkpt lat="36.78968" lon="27.6457">
        <ele>237.505</ele>
      </trkpt>
      <trkpt lat="36.78968" lon="27.64575">
        <ele>238.685</ele>
      </trkpt>
      <trkpt lat="36.78962" lon="27.64577">
        <ele>237.275</ele>
      </trkpt>
      <trkpt lat="36.78961" lon="27.64579">
        <ele>237.257</ele>
      </trkpt>
      <trkpt lat="36.78955" lon="27.64579">
        <ele>234.884</ele>
      </trkpt>
      <trkpt lat="36.78944" lon="27.64583">
        <ele>231.565</ele>
      </trkpt>
      <trkpt lat="36.78931" lon="27.64582">
        <ele>227.53</ele>
      </trkpt>
      <trkpt lat="36.78923" lon="27.64581">
        <ele>225.328</ele>
      </trkpt>
      <trkpt lat="36.78917" lon="27.64578">
        <ele>222.624</ele>
      </trkpt>
      <trkpt lat="36.78907" lon="27.64574">
        <ele>220.132</ele>
      </trkpt>
      <trkpt lat="36.78906" lon="27.64575">
        <ele>220.032</ele>
      </trkpt>
      <trkpt lat="36.78903" lon="27.64573">
        <ele>219.279</ele>
      </trkpt>
      <trkpt lat="36.78895" lon="27.64572">
        <ele>217.743</ele>
      </trkpt>
      <trkpt lat="36.78893" lon="27.64571">
        <ele>217.463</ele>
      </trkpt>
      <trkpt lat="36.78882" lon="27.64573">
        <ele>216.025</ele>
      </trkpt>
      <trkpt lat="36.78869" lon="27.6457">
        <ele>213.807</ele>
      </trkpt>
      <trkpt lat="36.7886" lon="27.6457">
        <ele>212.289</ele>
      </trkpt>
      <trkpt lat="36.78851" lon="27.64571">
        <ele>210.708</ele>
      </trkpt>
      <trkpt lat="36.78841" lon="27.64574">
        <ele>208.846</ele>
      </trkpt>
      <trkpt lat="36.7883" lon="27.6458">
        <ele>207.009</ele>
      </trkpt>
      <trkpt lat="36.78826" lon="27.64582">
        <ele>206.375</ele>
      </trkpt>
      <trkpt lat="36.78819" lon="27.6458">
        <ele>204.737</ele>
      </trkpt>
      <trkpt lat="36.78816" lon="27.64581">
        <ele>203.987</ele>
      </trkpt>
      <trkpt lat="36.78815" lon="27.64584">
        <ele>203.943</ele>
      </trkpt>
      <trkpt lat="36.78814" lon="27.64589">
        <ele>204.498</ele>
      </trkpt>
      <trkpt lat="36.78818" lon="27.64599">
        <ele>206.692</ele>
      </trkpt>
      <trkpt lat="36.78822" lon="27.64609">
        <ele>208.59</ele>
      </trkpt>
      <trkpt lat="36.78821" lon="27.64611">
        <ele>208.795</ele>
      </trkpt>
      <trkpt lat="36.78813" lon="27.64611">
        <ele>207.276</ele>
      </trkpt>
      <trkpt lat="36.7881" lon="27.64608">
        <ele>206.382</ele>
      </trkpt>
      <trkpt lat="36.78796" lon="27.64609">
        <ele>204.951</ele>
      </trkpt>
      <trkpt lat="36.78785" lon="27.64609">
        <ele>204.19</ele>
      </trkpt>
      <trkpt lat="36.78769" lon="27.64607">
        <ele>203.656</ele>
      </trkpt>
      <trkpt lat="36.78757" lon="27.64607">
        <ele>204.084</ele>
      </trkpt>
      <trkpt lat="36.78756" lon="27.64607">
        <ele>204.132</ele>
      </trkpt>
      <trkpt lat="36.78738" lon="27.64606">
        <ele>204.157</ele>
      </trkpt>
      <trkpt lat="36.78724" lon="27.64606">
        <ele>204.049</ele>
      </trkpt>
      <trkpt lat="36.78717" lon="27.64602">
        <ele>202.77</ele>
      </trkpt>
      <trkpt lat="36.78715" lon="27.64601">
        <ele>202.365</ele>
      </trkpt>
      <trkpt lat="36.78705" lon="27.64599">
        <ele>200.931</ele>
      </trkpt>
      <trkpt lat="36.78703" lon="27.64601">
        <ele>201.045</ele>
      </trkpt>
      <trkpt lat="36.78697" lon="27.64617">
        <ele>203.364</ele>
      </trkpt>
      <trkpt lat="36.78693" lon="27.64622">
        <ele>203.509</ele>
      </trkpt>
      <trkpt lat="36.78686" lon="27.64632">
        <ele>203.524</ele>
      </trkpt>
      <trkpt lat="36.7868" lon="27.64637">
        <ele>203.027</ele>
      </trkpt>
      <trkpt lat="36.78674" lon="27.64644">
        <ele>202.821</ele>
      </trkpt>
      <trkpt lat="36.78668" lon="27.64655">
        <ele>203.311</ele>
      </trkpt>
      <trkpt lat="36.78658" lon="27.64663">
        <ele>201.958</ele>
      </trkpt>
      <trkpt lat="36.78655" lon="27.64666">
        <ele>201.975</ele>
      </trkpt>
      <trkpt lat="36.78652" lon="27.64669">
        <ele>201.523</ele>
      </trkpt>
      <trkpt lat="36.78652" lon="27.64668">
        <ele>201.441</ele>
      </trkpt>
      <trkpt lat="36.78647" lon="27.64674">
        <ele>200.54</ele>
      </trkpt>
      <trkpt lat="36.78644" lon="27.6468">
        <ele>199.983</ele>
      </trkpt>
      <trkpt lat="36.78639" lon="27.64689">
        <ele>198.918</ele>
      </trkpt>
      <trkpt lat="36.78639" lon="27.64697">
        <ele>199.001</ele>
      </trkpt>
      <trkpt lat="36.78642" lon="27.64712">
        <ele>200.235</ele>
      </trkpt>
      <trkpt lat="36.78648" lon="27.64728">
        <ele>202.69</ele>
      </trkpt>
      <trkpt lat="36.78649" lon="27.64733">
        <ele>203.171</ele>
      </trkpt>
      <trkpt lat="36.78649" lon="27.6474">
        <ele>203.757</ele>
      </trkpt>
      <trkpt lat="36.78645" lon="27.64746">
        <ele>202.76</ele>
      </trkpt>
      <trkpt lat="36.78633" lon="27.64751">
        <ele>199.07</ele>
      </trkpt>
      <trkpt lat="36.78628" lon="27.64755">
        <ele>197.798</ele>
      </trkpt>
      <trkpt lat="36.78625" lon="27.64756">
        <ele>196.649</ele>
      </trkpt>
      <trkpt lat="36.78615" lon="27.64758">
        <ele>193.739</ele>
      </trkpt>
      <trkpt lat="36.78608" lon="27.64765">
        <ele>191.144</ele>
      </trkpt>
      <trkpt lat="36.78608" lon="27.64766">
        <ele>190.92</ele>
      </trkpt>
      <trkpt lat="36.78602" lon="27.64776">
        <ele>187.965</ele>
      </trkpt>
      <trkpt lat="36.786" lon="27.64786">
        <ele>186.073</ele>
      </trkpt>
      <trkpt lat="36.78599" lon="27.64791">
        <ele>184.952</ele>
      </trkpt>
      <trkpt lat="36.78599" lon="27.64805">
        <ele>183.878</ele>
      </trkpt>
      <trkpt lat="36.78599" lon="27.64814">
        <ele>183.31</ele>
      </trkpt>
      <trkpt lat="36.78601" lon="27.64821">
        <ele>183.721</ele>
      </trkpt>
      <trkpt lat="36.7861" lon="27.64833">
        <ele>186.539</ele>
      </trkpt>
      <trkpt lat="36.78616" lon="27.64848">
        <ele>188.262</ele>
      </trkpt>
      <trkpt lat="36.78616" lon="27.64862">
        <ele>187.348</ele>
      </trkpt>
      <trkpt lat="36.78614" lon="27.64866">
        <ele>187.401</ele>
      </trkpt>
      <trkpt lat="36.78609" lon="27.64883">
        <ele>188.069</ele>
      </trkpt>
      <trkpt lat="36.78599" lon="27.64883">
        <ele>186.029</ele>
      </trkpt>
      <trkpt lat="36.78586" lon="27.64886">
        <ele>183.966</ele>
      </trkpt>
      <trkpt lat="36.78571" lon="27.6489">
        <ele>181.829</ele>
      </trkpt>
      <trkpt lat="36.78563" lon="27.64888">
        <ele>180.184</ele>
      </trkpt>
      <trkpt lat="36.78547" lon="27.64887">
        <ele>176.189</ele>
      </trkpt>
      <trkpt lat="36.78542" lon="27.64896">
        <ele>175.903</ele>
      </trkpt>
      <trkpt lat="36.78538" lon="27.64901">
        <ele>175.419</ele>
      </trkpt>
      <trkpt lat="36.78532" lon="27.6491">
        <ele>175.222</ele>
      </trkpt>
      <trkpt lat="36.78528" lon="27.64922">
        <ele>175.166</ele>
      </trkpt>
      <trkpt lat="36.78524" lon="27.64932">
        <ele>173.588</ele>
      </trkpt>
      <trkpt lat="36.78522" lon="27.64936">
        <ele>173.032</ele>
      </trkpt>
      <trkpt lat="36.78519" lon="27.64942">
        <ele>172.375</ele>
      </trkpt>
      <trkpt lat="36.78515" lon="27.64947">
        <ele>171.432</ele>
      </trkpt>
      <trkpt lat="36.78509" lon="27.64956">
        <ele>170.448</ele>
      </trkpt>
      <trkpt lat="36.78505" lon="27.6496">
        <ele>169.522</ele>
      </trkpt>
      <trkpt lat="36.78498" lon="27.64966">
        <ele>168.05</ele>
      </trkpt>
      <trkpt lat="36.7849" lon="27.64974">
        <ele>166.152</ele>
      </trkpt>
      <trkpt lat="36.78484" lon="27.64982">
        <ele>165.339</ele>
      </trkpt>
      <trkpt lat="36.78477" lon="27.64993">
        <ele>164.632</ele>
      </trkpt>
      <trkpt lat="36.78477" lon="27.65">
        <ele>165.288</ele>
      </trkpt>
      <trkpt lat="36.78481" lon="27.6501">
        <ele>166.536</ele>
      </trkpt>
      <trkpt lat="36.78475" lon="27.65015">
        <ele>164.858</ele>
      </trkpt>
      <trkpt lat="36.78472" lon="27.65015">
        <ele>163.925</ele>
      </trkpt>
      <trkpt lat="36.78468" lon="27.65016">
        <ele>162.827</ele>
      </trkpt>
      <trkpt lat="36.78454" lon="27.65016">
        <ele>158.938</ele>
      </trkpt>
      <trkpt lat="36.78451" lon="27.65016">
        <ele>157.981</ele>
      </trkpt>
      <trkpt lat="36.7844" lon="27.65017">
        <ele>155.29</ele>
      </trkpt>
      <trkpt lat="36.78437" lon="27.6503">
        <ele>155.408</ele>
      </trkpt>
      <trkpt lat="36.78435" lon="27.65034">
        <ele>155.443</ele>
      </trkpt>
      <trkpt lat="36.78434" lon="27.65036">
        <ele>155.353</ele>
      </trkpt>
      <trkpt lat="36.78433" lon="27.65041">
        <ele>155.495</ele>
      </trkpt>
      <trkpt lat="36.78432" lon="27.6505">
        <ele>155.81</ele>
      </trkpt>
      <trkpt lat="36.78431" lon="27.65052">
        <ele>155.832</ele>
      </trkpt>
      <trkpt lat="36.78426" lon="27.65061">
        <ele>155.406</ele>
      </trkpt>
      <trkpt lat="36.7842" lon="27.65072">
        <ele>154.735</ele>
      </trkpt>
      <trkpt lat="36.78418" lon="27.65077">
        <ele>154.837</ele>
      </trkpt>
      <trkpt lat="36.78416" lon="27.65082">
        <ele>154.794</ele>
      </trkpt>
      <trkpt lat="36.78416" lon="27.65093">
        <ele>155.584</ele>
      </trkpt>
      <trkpt lat="36.78409" lon="27.65093">
        <ele>155.045</ele>
      </trkpt>
      <trkpt lat="36.78408" lon="27.65088">
        <ele>154.484</ele>
      </trkpt>
      <trkpt lat="36.78403" lon="27.65081">
        <ele>153.314</ele>
      </trkpt>
      <trkpt lat="36.78398" lon="27.65075">
        <ele>151.912</ele>
      </trkpt>
      <trkpt lat="36.78395" lon="27.6507">
        <ele>150.896</ele>
      </trkpt>
      <trkpt lat="36.78386" lon="27.65065">
        <ele>149.249</ele>
      </trkpt>
      <trkpt lat="36.78372" lon="27.65062">
        <ele>148.582</ele>
      </trkpt>
      <trkpt lat="36.78364" lon="27.65062">
        <ele>148.336</ele>
      </trkpt>
      <trkpt lat="36.78359" lon="27.65061">
        <ele>148.224</ele>
      </trkpt>
      <trkpt lat="36.78347" lon="27.65069">
        <ele>150.256</ele>
      </trkpt>
      <trkpt lat="36.78343" lon="27.65071">
        <ele>150.931</ele>
      </trkpt>
      <trkpt lat="36.78331" lon="27.65076">
        <ele>152.592</ele>
      </trkpt>
      <trkpt lat="36.78322" lon="27.65081">
        <ele>152.609</ele>
      </trkpt>
      <trkpt lat="36.78311" lon="27.65081">
        <ele>151.245</ele>
      </trkpt>
      <trkpt lat="36.78301" lon="27.65085">
        <ele>150.815</ele>
      </trkpt>
      <trkpt lat="36.78291" lon="27.65092">
        <ele>150.753</ele>
      </trkpt>
      <trkpt lat="36.78281" lon="27.651">
        <ele>150.239</ele>
      </trkpt>
      <trkpt lat="36.78276" lon="27.65111">
        <ele>150.523</ele>
      </trkpt>
      <trkpt lat="36.78269" lon="27.65127">
        <ele>151.546</ele>
      </trkpt>
      <trkpt lat="36.78266" lon="27.65141">
        <ele>153.11</ele>
      </trkpt>
      <trkpt lat="36.78262" lon="27.65155">
        <ele>153.466</ele>
      </trkpt>
      <trkpt lat="36.78258" lon="27.6517">
        <ele>153.729</ele>
      </trkpt>
      <trkpt lat="36.78258" lon="27.65168">
        <ele>153.815</ele>
      </trkpt>
      <trkpt lat="36.78257" lon="27.65182">
        <ele>153.642</ele>
      </trkpt>
      <trkpt lat="36.78257" lon="27.65199">
        <ele>154.21</ele>
      </trkpt>
      <trkpt lat="36.78256" lon="27.65201">
        <ele>154.206</ele>
      </trkpt>
      <trkpt lat="36.78251" lon="27.65215">
        <ele>154.501</ele>
      </trkpt>
      <trkpt lat="36.78249" lon="27.65221">
        <ele>154.587</ele>
      </trkpt>
      <trkpt lat="36.78247" lon="27.65227">
        <ele>154.689</ele>
      </trkpt>
      <trkpt lat="36.78241" lon="27.65241">
        <ele>153.825</ele>
      </trkpt>
      <trkpt lat="36.78239" lon="27.65245">
        <ele>153.727</ele>
      </trkpt>
      <trkpt lat="36.78237" lon="27.65261">
        <ele>153.891</ele>
      </trkpt>
      <trkpt lat="36.78232" lon="27.65268">
        <ele>152.671</ele>
      </trkpt>
      <trkpt lat="36.78231" lon="27.65279">
        <ele>153.207</ele>
      </trkpt>
      <trkpt lat="36.78231" lon="27.6529">
        <ele>153.926</ele>
      </trkpt>
      <trkpt lat="36.7823" lon="27.65304">
        <ele>154.481</ele>
      </trkpt>
      <trkpt lat="36.78227" lon="27.65312">
        <ele>154.268</ele>
      </trkpt>
      <trkpt lat="36.78225" lon="27.6532">
        <ele>154.065</ele>
      </trkpt>
      <trkpt lat="36.78222" lon="27.65327">
        <ele>153.781</ele>
      </trkpt>
      <trkpt lat="36.78216" lon="27.65341">
        <ele>152.301</ele>
      </trkpt>
      <trkpt lat="36.78211" lon="27.65357">
        <ele>151.213</ele>
      </trkpt>
      <trkpt lat="36.78205" lon="27.65372">
        <ele>149.682</ele>
      </trkpt>
      <trkpt lat="36.782" lon="27.65389">
        <ele>148.267</ele>
      </trkpt>
      <trkpt lat="36.78193" lon="27.65402">
        <ele>147.133</ele>
      </trkpt>
      <trkpt lat="36.7819" lon="27.65414">
        <ele>146.693</ele>
      </trkpt>
      <trkpt lat="36.78184" lon="27.65432">
        <ele>146.396</ele>
      </trkpt>
      <trkpt lat="36.78179" lon="27.65445">
        <ele>146.046</ele>
      </trkpt>
      <trkpt lat="36.78173" lon="27.65457">
        <ele>145.81</ele>
      </trkpt>
      <trkpt lat="36.78165" lon="27.6547">
        <ele>145.376</ele>
      </trkpt>
      <trkpt lat="36.78159" lon="27.65484">
        <ele>143.991</ele>
      </trkpt>
      <trkpt lat="36.78156" lon="27.65489">
        <ele>143.425</ele>
      </trkpt>
      <trkpt lat="36.78156" lon="27.65493">
        <ele>143.26</ele>
      </trkpt>
      <trkpt lat="36.78157" lon="27.655">
        <ele>143.454</ele>
      </trkpt>
      <trkpt lat="36.78157" lon="27.65503">
        <ele>143.34</ele>
      </trkpt>
      <trkpt lat="36.78158" lon="27.65508">
        <ele>143.323</ele>
      </trkpt>
      <trkpt lat="36.78163" lon="27.6552">
        <ele>143.599</ele>
      </trkpt>
      <trkpt lat="36.78166" lon="27.65525">
        <ele>143.93</ele>
      </trkpt>
      <trkpt lat="36.78164" lon="27.65536">
        <ele>142.789</ele>
      </trkpt>
      <trkpt lat="36.78167" lon="27.65557">
        <ele>141.967</ele>
      </trkpt>
      <trkpt lat="36.78167" lon="27.65559">
        <ele>141.929</ele>
      </trkpt>
      <trkpt lat="36.78167" lon="27.65559">
        <ele>141.929</ele>
      </trkpt>
      <trkpt lat="36.78164" lon="27.65573">
        <ele>140.864</ele>
      </trkpt>
      <trkpt lat="36.78158" lon="27.65586">
        <ele>139.737</ele>
      </trkpt>
      <trkpt lat="36.78158" lon="27.65593">
        <ele>139.76</ele>
      </trkpt>
      <trkpt lat="36.78158" lon="27.65597">
        <ele>139.808</ele>
      </trkpt>
      <trkpt lat="36.78156" lon="27.65607">
        <ele>139.423</ele>
      </trkpt>
      <trkpt lat="36.78153" lon="27.65626">
        <ele>139.827</ele>
      </trkpt>
      <trkpt lat="36.78151" lon="27.65643">
        <ele>140.594</ele>
      </trkpt>
      <trkpt lat="36.78147" lon="27.65663">
        <ele>141.575</ele>
      </trkpt>
      <trkpt lat="36.78142" lon="27.6568">
        <ele>142.227</ele>
      </trkpt>
      <trkpt lat="36.7814" lon="27.65685">
        <ele>142.423</ele>
      </trkpt>
      <trkpt lat="36.78139" lon="27.65686">
        <ele>142.41</ele>
      </trkpt>
      <trkpt lat="36.78129" lon="27.65697">
        <ele>142.485</ele>
      </trkpt>
      <trkpt lat="36.78111" lon="27.65705">
        <ele>142.129</ele>
      </trkpt>
      <trkpt lat="36.78096" lon="27.65718">
        <ele>140.931</ele>
      </trkpt>
      <trkpt lat="36.78083" lon="27.65728">
        <ele>139.578</ele>
      </trkpt>
      <trkpt lat="36.78072" lon="27.65734">
        <ele>139.069</ele>
      </trkpt>
      <trkpt lat="36.78061" lon="27.65745">
        <ele>139.063</ele>
      </trkpt>
      <trkpt lat="36.78056" lon="27.65752">
        <ele>139.264</ele>
      </trkpt>
      <trkpt lat="36.78053" lon="27.65757">
        <ele>139.48</ele>
      </trkpt>
      <trkpt lat="36.7805" lon="27.65761">
        <ele>139.727</ele>
      </trkpt>
      <trkpt lat="36.78042" lon="27.65773">
        <ele>140.127</ele>
      </trkpt>
      <trkpt lat="36.7804" lon="27.65779">
        <ele>140.329</ele>
      </trkpt>
      <trkpt lat="36.78037" lon="27.65787">
        <ele>140.279</ele>
      </trkpt>
      <trkpt lat="36.78033" lon="27.65807">
        <ele>140.615</ele>
      </trkpt>
      <trkpt lat="36.78034" lon="27.65813">
        <ele>140.716</ele>
      </trkpt>
      <trkpt lat="36.78031" lon="27.65832">
        <ele>140.383</ele>
      </trkpt>
      <trkpt lat="36.78027" lon="27.65848">
        <ele>140.887</ele>
      </trkpt>
      <trkpt lat="36.78022" lon="27.65853">
        <ele>140.482</ele>
      </trkpt>
      <trkpt lat="36.78012" lon="27.65858">
        <ele>139.041</ele>
      </trkpt>
      <trkpt lat="36.78002" lon="27.65858">
        <ele>137.3</ele>
      </trkpt>
      <trkpt lat="36.77999" lon="27.65871">
        <ele>137.273</ele>
      </trkpt>
      <trkpt lat="36.78001" lon="27.65868">
        <ele>137.393</ele>
      </trkpt>
      <trkpt lat="36.78" lon="27.65873">
        <ele>137.441</ele>
      </trkpt>
      <trkpt lat="36.78" lon="27.65879">
        <ele>137.713</ele>
      </trkpt>
      <trkpt lat="36.78005" lon="27.65896">
        <ele>138.717</ele>
      </trkpt>
      <trkpt lat="36.78006" lon="27.65901">
        <ele>138.694</ele>
      </trkpt>
      <trkpt lat="36.78006" lon="27.65905">
        <ele>138.659</ele>
      </trkpt>
      <trkpt lat="36.78007" lon="27.65913">
        <ele>138.608</ele>
      </trkpt>
      <trkpt lat="36.78007" lon="27.6594">
        <ele>137.354</ele>
      </trkpt>
      <trkpt lat="36.78007" lon="27.65961">
        <ele>136.962</ele>
      </trkpt>
      <trkpt lat="36.78003" lon="27.65986">
        <ele>136.641</ele>
      </trkpt>
      <trkpt lat="36.77997" lon="27.66023">
        <ele>137.21</ele>
      </trkpt>
      <trkpt lat="36.77995" lon="27.66029">
        <ele>137.006</ele>
      </trkpt>
      <trkpt lat="36.7799" lon="27.66062">
        <ele>137.141</ele>
      </trkpt>
      <trkpt lat="36.77985" lon="27.66083">
        <ele>137.339</ele>
      </trkpt>
      <trkpt lat="36.77983" lon="27.6609">
        <ele>137.106</ele>
      </trkpt>
      <trkpt lat="36.77982" lon="27.66091">
        <ele>136.947</ele>
      </trkpt>
      <trkpt lat="36.77979" lon="27.66097">
        <ele>136.637</ele>
      </trkpt>
      <trkpt lat="36.77971" lon="27.6611">
        <ele>135.704</ele>
      </trkpt>
      <trkpt lat="36.77966" lon="27.66116">
        <ele>134.598</ele>
      </trkpt>
      <trkpt lat="36.77961" lon="27.66119">
        <ele>133.629</ele>
      </trkpt>
      <trkpt lat="36.77961" lon="27.66119">
        <ele>133.601</ele>
      </trkpt>
      <trkpt lat="36.77965" lon="27.66124">
        <ele>134.507</ele>
      </trkpt>
      <trkpt lat="36.77967" lon="27.66122">
        <ele>134.994</ele>
      </trkpt>
      <trkpt lat="36.77958" lon="27.66141">
        <ele>133.516</ele>
      </trkpt>
      <trkpt lat="36.77952" lon="27.66158">
        <ele>132.867</ele>
      </trkpt>
      <trkpt lat="36.77951" lon="27.66163">
        <ele>132.808</ele>
      </trkpt>
      <trkpt lat="36.77946" lon="27.66174">
        <ele>132.239</ele>
      </trkpt>
      <trkpt lat="36.77939" lon="27.66179">
        <ele>131.151</ele>
      </trkpt>
      <trkpt lat="36.7793" lon="27.66188">
        <ele>129.723</ele>
      </trkpt>
      <trkpt lat="36.77925" lon="27.662">
        <ele>129.162</ele>
      </trkpt>
      <trkpt lat="36.77923" lon="27.66206">
        <ele>128.777</ele>
      </trkpt>
      <trkpt lat="36.77921" lon="27.6622">
        <ele>128.464</ele>
      </trkpt>
      <trkpt lat="36.7792" lon="27.66221">
        <ele>128.408</ele>
      </trkpt>
      <trkpt lat="36.7792" lon="27.66235">
        <ele>127.96</ele>
      </trkpt>
      <trkpt lat="36.77921" lon="27.66238">
        <ele>128.052</ele>
      </trkpt>
      <trkpt lat="36.77922" lon="27.66246">
        <ele>128.023</ele>
      </trkpt>
      <trkpt lat="36.77918" lon="27.66253">
        <ele>127.169</ele>
      </trkpt>
      <trkpt lat="36.77913" lon="27.66268">
        <ele>125.638</ele>
      </trkpt>
      <trkpt lat="36.77912" lon="27.6629">
        <ele>125.506</ele>
      </trkpt>
      <trkpt lat="36.7791" lon="27.66312">
        <ele>126.177</ele>
      </trkpt>
      <trkpt lat="36.77907" lon="27.66323">
        <ele>126.423</ele>
      </trkpt>
      <trkpt lat="36.77892" lon="27.66329">
        <ele>124.295</ele>
      </trkpt>
      <trkpt lat="36.77874" lon="27.66349">
        <ele>124.057</ele>
      </trkpt>
      <trkpt lat="36.77873" lon="27.6635">
        <ele>124.049</ele>
      </trkpt>
      <trkpt lat="36.77861" lon="27.66365">
        <ele>124.265</ele>
      </trkpt>
      <trkpt lat="36.7785" lon="27.66378">
        <ele>124.03</ele>
      </trkpt>
      <trkpt lat="36.77849" lon="27.66378">
        <ele>123.901</ele>
      </trkpt>
      <trkpt lat="36.77846" lon="27.66382">
        <ele>123.808</ele>
      </trkpt>
      <trkpt lat="36.77844" lon="27.66393">
        <ele>124.274</ele>
      </trkpt>
      <trkpt lat="36.77834" lon="27.66418">
        <ele>124.156</ele>
      </trkpt>
      <trkpt lat="36.77814" lon="27.66433">
        <ele>124.886</ele>
      </trkpt>
      <trkpt lat="36.77803" lon="27.66444">
        <ele>126.038</ele>
      </trkpt>
      <trkpt lat="36.77792" lon="27.66467">
        <ele>127.352</ele>
      </trkpt>
      <trkpt lat="36.77788" lon="27.66482">
        <ele>126.937</ele>
      </trkpt>
      <trkpt lat="36.77795" lon="27.66502">
        <ele>127.316</ele>
      </trkpt>
      <trkpt lat="36.77795" lon="27.66527">
        <ele>126.329</ele>
      </trkpt>
      <trkpt lat="36.77795" lon="27.66553">
        <ele>126.798</ele>
      </trkpt>
      <trkpt lat="36.77794" lon="27.66585">
        <ele>129.517</ele>
      </trkpt>
      <trkpt lat="36.77788" lon="27.66602">
        <ele>129.413</ele>
      </trkpt>
      <trkpt lat="36.77772" lon="27.66609">
        <ele>126.936</ele>
      </trkpt>
      <trkpt lat="36.7777" lon="27.66609">
        <ele>126.633</ele>
      </trkpt>
      <trkpt lat="36.77757" lon="27.66612">
        <ele>125.062</ele>
      </trkpt>
      <trkpt lat="36.77748" lon="27.66621">
        <ele>124.729</ele>
      </trkpt>
      <trkpt lat="36.77744" lon="27.66627">
        <ele>124.711</ele>
      </trkpt>
      <trkpt lat="36.77736" lon="27.66643">
        <ele>124.385</ele>
      </trkpt>
      <trkpt lat="36.77728" lon="27.66663">
        <ele>123.062</ele>
      </trkpt>
      <trkpt lat="36.77724" lon="27.66678">
        <ele>121.528</ele>
      </trkpt>
      <trkpt lat="36.77727" lon="27.66702">
        <ele>119.844</ele>
      </trkpt>
      <trkpt lat="36.77727" lon="27.66725">
        <ele>117.592</ele>
      </trkpt>
      <trkpt lat="36.77718" lon="27.66748">
        <ele>116.322</ele>
      </trkpt>
      <trkpt lat="36.77715" lon="27.66765">
        <ele>115.756</ele>
      </trkpt>
      <trkpt lat="36.77708" lon="27.66779">
        <ele>115.119</ele>
      </trkpt>
      <trkpt lat="36.77692" lon="27.66783">
        <ele>113.403</ele>
      </trkpt>
      <trkpt lat="36.7768" lon="27.66781">
        <ele>112.224</ele>
      </trkpt>
      <trkpt lat="36.77669" lon="27.66781">
        <ele>111.412</ele>
      </trkpt>
      <trkpt lat="36.77661" lon="27.66789">
        <ele>111.671</ele>
      </trkpt>
      <trkpt lat="36.77655" lon="27.66809">
        <ele>112.193</ele>
      </trkpt>
      <trkpt lat="36.77649" lon="27.66835">
        <ele>111.326</ele>
      </trkpt>
      <trkpt lat="36.77646" lon="27.66852">
        <ele>110.02</ele>
      </trkpt>
      <trkpt lat="36.77649" lon="27.6686">
        <ele>110.276</ele>
      </trkpt>
      <trkpt lat="36.77654" lon="27.66876">
        <ele>110.759</ele>
      </trkpt>
      <trkpt lat="36.77651" lon="27.66903">
        <ele>109.518</ele>
      </trkpt>
      <trkpt lat="36.77649" lon="27.66921">
        <ele>109.295</ele>
      </trkpt>
      <trkpt lat="36.7764" lon="27.66934">
        <ele>108.791</ele>
      </trkpt>
      <trkpt lat="36.77627" lon="27.66955">
        <ele>106.423</ele>
      </trkpt>
      <trkpt lat="36.7761" lon="27.66973">
        <ele>102.807</ele>
      </trkpt>
      <trkpt lat="36.77594" lon="27.66993">
        <ele>100.133</ele>
      </trkpt>
      <trkpt lat="36.77583" lon="27.67003">
        <ele>97.65</ele>
      </trkpt>
      <trkpt lat="36.77571" lon="27.67015">
        <ele>94.325</ele>
      </trkpt>
      <trkpt lat="36.77556" lon="27.67028">
        <ele>91.15</ele>
      </trkpt>
      <trkpt lat="36.77544" lon="27.67044">
        <ele>89.271</ele>
      </trkpt>
      <trkpt lat="36.77527" lon="27.67054">
        <ele>86.923</ele>
      </trkpt>
      <trkpt lat="36.77519" lon="27.67069">
        <ele>85.888</ele>
      </trkpt>
      <trkpt lat="36.77517" lon="27.67082">
        <ele>85.474</ele>
      </trkpt>
      <trkpt lat="36.77521" lon="27.6711">
        <ele>85.028</ele>
      </trkpt>
      <trkpt lat="36.77526" lon="27.67129">
        <ele>85.725</ele>
      </trkpt>
      <trkpt lat="36.77529" lon="27.67149">
        <ele>86.203</ele>
      </trkpt>
      <trkpt lat="36.77529" lon="27.67149">
        <ele>86.203</ele>
      </trkpt>
      <trkpt lat="36.7752" lon="27.67175">
        <ele>84.594</ele>
      </trkpt>
      <trkpt lat="36.77515" lon="27.67194">
        <ele>83.657</ele>
      </trkpt>
      <trkpt lat="36.77512" lon="27.67216">
        <ele>82.979</ele>
      </trkpt>
      <trkpt lat="36.77507" lon="27.67236">
        <ele>82.387</ele>
      </trkpt>
      <trkpt lat="36.77498" lon="27.67255">
        <ele>81.405</ele>
      </trkpt>
      <trkpt lat="36.77496" lon="27.67277">
        <ele>79.774</ele>
      </trkpt>
      <trkpt lat="36.77494" lon="27.67298">
        <ele>78.651</ele>
      </trkpt>
      <trkpt lat="36.77486" lon="27.67321">
        <ele>76.621</ele>
      </trkpt>
      <trkpt lat="36.77483" lon="27.67339">
        <ele>75.641</ele>
      </trkpt>
      <trkpt lat="36.77481" lon="27.67353">
        <ele>75.551</ele>
      </trkpt>
      <trkpt lat="36.7747" lon="27.67368">
        <ele>75.254</ele>
      </trkpt>
      <trkpt lat="36.77447" lon="27.6738">
        <ele>74.276</ele>
      </trkpt>
      <trkpt lat="36.77435" lon="27.67396">
        <ele>74.289</ele>
      </trkpt>
      <trkpt lat="36.77422" lon="27.67416">
        <ele>74.36</ele>
      </trkpt>
      <trkpt lat="36.77411" lon="27.67427">
        <ele>73.265</ele>
      </trkpt>
      <trkpt lat="36.77403" lon="27.67435">
        <ele>72.342</ele>
      </trkpt>
      <trkpt lat="36.77401" lon="27.67454">
        <ele>72.379</ele>
      </trkpt>
      <trkpt lat="36.774" lon="27.67474">
        <ele>72.279</ele>
      </trkpt>
      <trkpt lat="36.77393" lon="27.67493">
        <ele>70.748</ele>
      </trkpt>
      <trkpt lat="36.77386" lon="27.6751">
        <ele>68.631</ele>
      </trkpt>
      <trkpt lat="36.77382" lon="27.6753">
        <ele>66.627</ele>
      </trkpt>
      <trkpt lat="36.77385" lon="27.67545">
        <ele>65.7</ele>
      </trkpt>
      <trkpt lat="36.77388" lon="27.67568">
        <ele>64.99</ele>
      </trkpt>
      <trkpt lat="36.77391" lon="27.67593">
        <ele>64.81</ele>
      </trkpt>
      <trkpt lat="36.77387" lon="27.67615">
        <ele>63.804</ele>
      </trkpt>
      <trkpt lat="36.77391" lon="27.67638">
        <ele>63.301</ele>
      </trkpt>
      <trkpt lat="36.77394" lon="27.67667">
        <ele>62.755</ele>
      </trkpt>
      <trkpt lat="36.774" lon="27.67687">
        <ele>63.984</ele>
      </trkpt>
      <trkpt lat="36.77406" lon="27.6771">
        <ele>64.548</ele>
      </trkpt>
      <trkpt lat="36.7741" lon="27.67734">
        <ele>63.892</ele>
      </trkpt>
      <trkpt lat="36.77417" lon="27.67759">
        <ele>62.363</ele>
      </trkpt>
      <trkpt lat="36.77417" lon="27.67767">
        <ele>61.799</ele>
      </trkpt>
      <trkpt lat="36.77416" lon="27.67778">
        <ele>61.028</ele>
      </trkpt>
      <trkpt lat="36.77412" lon="27.67786">
        <ele>61.129</ele>
      </trkpt>
      <trkpt lat="36.77412" lon="27.67792">
        <ele>61.09</ele>
      </trkpt>
      <trkpt lat="36.77412" lon="27.67792">
        <ele>61.086</ele>
      </trkpt>
      <trkpt lat="36.77404" lon="27.67801">
        <ele>61.076</ele>
      </trkpt>
      <trkpt lat="36.77395" lon="27.67816">
        <ele>60.513</ele>
      </trkpt>
      <trkpt lat="36.77391" lon="27.6783">
        <ele>59.473</ele>
      </trkpt>
      <trkpt lat="36.77391" lon="27.67855">
        <ele>59.277</ele>
      </trkpt>
      <trkpt lat="36.77392" lon="27.67885">
        <ele>57.995</ele>
      </trkpt>
      <trkpt lat="36.77392" lon="27.67904">
        <ele>57.604</ele>
      </trkpt>
      <trkpt lat="36.77392" lon="27.67938">
        <ele>58.112</ele>
      </trkpt>
      <trkpt lat="36.77386" lon="27.67965">
        <ele>59.11</ele>
      </trkpt>
      <trkpt lat="36.77386" lon="27.67994">
        <ele>58.932</ele>
      </trkpt>
      <trkpt lat="36.7739" lon="27.68018">
        <ele>59.113</ele>
      </trkpt>
      <trkpt lat="36.77395" lon="27.68041">
        <ele>60.008</ele>
      </trkpt>
      <trkpt lat="36.774" lon="27.68062">
        <ele>60.421</ele>
      </trkpt>
      <trkpt lat="36.77405" lon="27.68089">
        <ele>59.503</ele>
      </trkpt>
      <trkpt lat="36.77407" lon="27.68095">
        <ele>59.519</ele>
      </trkpt>
      <trkpt lat="36.77415" lon="27.68106">
        <ele>59.875</ele>
      </trkpt>
      <trkpt lat="36.77419" lon="27.68114">
        <ele>60.35</ele>
      </trkpt>
      <trkpt lat="36.77422" lon="27.68115">
        <ele>60.772</ele>
      </trkpt>
      <trkpt lat="36.77425" lon="27.6812">
        <ele>61.129</ele>
      </trkpt>
      <trkpt lat="36.77425" lon="27.68116">
        <ele>61.154</ele>
      </trkpt>
      <trkpt lat="36.77425" lon="27.68118">
        <ele>61.262</ele>
      </trkpt>
      <trkpt lat="36.77426" lon="27.68118">
        <ele>61.356</ele>
      </trkpt>
      <trkpt lat="36.77425" lon="27.68139">
        <ele>61.205</ele>
      </trkpt>
      <trkpt lat="36.77424" lon="27.68179">
        <ele>60.989</ele>
      </trkpt>
      <trkpt lat="36.77423" lon="27.68203">
        <ele>60.388</ele>
      </trkpt>
      <trkpt lat="36.77423" lon="27.68209">
        <ele>60.104</ele>
      </trkpt>
      <trkpt lat="36.77421" lon="27.68224">
        <ele>59.563</ele>
      </trkpt>
      <trkpt lat="36.7742" lon="27.6823">
        <ele>59.556</ele>
      </trkpt>
      <trkpt lat="36.77414" lon="27.68247">
        <ele>59.621</ele>
      </trkpt>
      <trkpt lat="36.77414" lon="27.68256">
        <ele>59.51</ele>
      </trkpt>
      <trkpt lat="36.77414" lon="27.68265">
        <ele>59.301</ele>
      </trkpt>
      <trkpt lat="36.77415" lon="27.68267">
        <ele>59.287</ele>
      </trkpt>
      <trkpt lat="36.77416" lon="27.68265">
        <ele>59.379</ele>
      </trkpt>
      <trkpt lat="36.77417" lon="27.68267">
        <ele>59.389</ele>
      </trkpt>
      <trkpt lat="36.77416" lon="27.68278">
        <ele>58.977</ele>
      </trkpt>
      <trkpt lat="36.77416" lon="27.68291">
        <ele>58.953</ele>
      </trkpt>
      <trkpt lat="36.77416" lon="27.68307">
        <ele>58.907</ele>
      </trkpt>
      <trkpt lat="36.77425" lon="27.68369">
        <ele>57.992</ele>
      </trkpt>
      <trkpt lat="36.77426" lon="27.68376">
        <ele>57.797</ele>
      </trkpt>
      <trkpt lat="36.77431" lon="27.6841">
        <ele>57.118</ele>
      </trkpt>
      <trkpt lat="36.77435" lon="27.68421">
        <ele>56.951</ele>
      </trkpt>
      <trkpt lat="36.77435" lon="27.68421">
        <ele>56.951</ele>
      </trkpt>
      <trkpt lat="36.77457" lon="27.68431">
        <ele>57.458</ele>
      </trkpt>
      <trkpt lat="36.77473" lon="27.6843">
        <ele>58.071</ele>
      </trkpt>
      <trkpt lat="36.77481" lon="27.68443">
        <ele>58.909</ele>
      </trkpt>
      <trkpt lat="36.77478" lon="27.68445">
        <ele>58.604</ele>
      </trkpt>
      <trkpt lat="36.7747" lon="27.68462">
        <ele>59.075</ele>
      </trkpt>
      <trkpt lat="36.77487" lon="27.68481">
        <ele>62.065</ele>
      </trkpt>
      <trkpt lat="36.775" lon="27.68467">
        <ele>62.585</ele>
      </trkpt>
      <trkpt lat="36.775" lon="27.6847">
        <ele>62.754</ele>
      </trkpt>
      <trkpt lat="36.775" lon="27.6848">
        <ele>63.232</ele>
      </trkpt>
      <trkpt lat="36.77501" lon="27.685">
        <ele>64.048</ele>
      </trkpt>
      <trkpt lat="36.7751" lon="27.68559">
        <ele>63.228</ele>
      </trkpt>
      <trkpt lat="36.77504" lon="27.68598">
        <ele>60.107</ele>
      </trkpt>
      <trkpt lat="36.77498" lon="27.68642">
        <ele>57.891</ele>
      </trkpt>
      <trkpt lat="36.77504" lon="27.68659">
        <ele>58.402</ele>
      </trkpt>
      <trkpt lat="36.77503" lon="27.68681">
        <ele>58.885</ele>
      </trkpt>
      <trkpt lat="36.77499" lon="27.68695">
        <ele>58.957</ele>
      </trkpt>
      <trkpt lat="36.7751" lon="27.68755">
        <ele>60.429</ele>
      </trkpt>
      <trkpt lat="36.77509" lon="27.68789">
        <ele>59.342</ele>
      </trkpt>
      <trkpt lat="36.77505" lon="27.68795">
        <ele>58.34</ele>
      </trkpt>
      <trkpt lat="36.77488" lon="27.68812">
        <ele>55.826</ele>
      </trkpt>
      <trkpt lat="36.77494" lon="27.68841">
        <ele>55.853</ele>
      </trkpt>
      <trkpt lat="36.77506" lon="27.68868">
        <ele>59.106</ele>
      </trkpt>
      <trkpt lat="36.77512" lon="27.68879">
        <ele>60.476</ele>
      </trkpt>
      <trkpt lat="36.77512" lon="27.68894">
        <ele>60.592</ele>
      </trkpt>
      <trkpt lat="36.77514" lon="27.68933">
        <ele>60.298</ele>
      </trkpt>
      <trkpt lat="36.77516" lon="27.68936">
        <ele>60.432</ele>
      </trkpt>
      <trkpt lat="36.77509" lon="27.6897">
        <ele>59.621</ele>
      </trkpt>
      <trkpt lat="36.77496" lon="27.68988">
        <ele>58.637</ele>
      </trkpt>
      <trkpt lat="36.77481" lon="27.69041">
        <ele>57.79</ele>
      </trkpt>
      <trkpt lat="36.77474" lon="27.6908">
        <ele>57.083</ele>
      </trkpt>
      <trkpt lat="36.77472" lon="27.69089">
        <ele>56.998</ele>
      </trkpt>
      <trkpt lat="36.77471" lon="27.69099">
        <ele>56.987</ele>
      </trkpt>
      <trkpt lat="36.7747" lon="27.69133">
        <ele>57.692</ele>
      </trkpt>
      <trkpt lat="36.77416" lon="27.69237">
        <ele>53.986</ele>
      </trkpt>
      <trkpt lat="36.77416" lon="27.69237">
        <ele>53.986</ele>
      </trkpt>
      <trkpt lat="36.77416" lon="27.69237">
        <ele>53.986</ele>
      </trkpt>
      <trkpt lat="36.77418" lon="27.69227">
        <ele>54.067</ele>
      </trkpt>
      <trkpt lat="36.77406" lon="27.6923">
        <ele>53.72</ele>
      </trkpt>
      <trkpt lat="36.77411" lon="27.69294">
        <ele>55.8</ele>
      </trkpt>
      <trkpt lat="36.77408" lon="27.69346">
        <ele>56.1</ele>
      </trkpt>
      <trkpt lat="36.77384" lon="27.69399">
        <ele>53.6</ele>
      </trkpt>
      <trkpt lat="36.77366" lon="27.6944">
        <ele>52.8</ele>
      </trkpt>
      <trkpt lat="36.77351" lon="27.69473">
        <ele>52.4</ele>
      </trkpt>
      <trkpt lat="36.77372" lon="27.69574">
        <ele>55.2</ele>
      </trkpt>
      <trkpt lat="36.77309" lon="27.69682">
        <ele>53.8</ele>
      </trkpt>
      <trkpt lat="36.77312" lon="27.69765">
        <ele>52.7</ele>
      </trkpt>
      <trkpt lat="36.77297" lon="27.69866">
        <ele>51.5</ele>
      </trkpt>
      <trkpt lat="36.77283" lon="27.69955">
        <ele>49.2</ele>
      </trkpt>
      <trkpt lat="36.77238" lon="27.70108">
        <ele>43</ele>
      </trkpt>
      <trkpt lat="36.77241" lon="27.70168">
        <ele>41.1</ele>
      </trkpt>
      <trkpt lat="36.77238" lon="27.70191">
        <ele>41.1</ele>
      </trkpt>
      <trkpt lat="36.7725" lon="27.70273">
        <ele>39.5</ele>
      </trkpt>
      <trkpt lat="36.77241" lon="27.70333">
        <ele>39</ele>
      </trkpt>
      <trkpt lat="36.77244" lon="27.70411">
        <ele>37.8</ele>
      </trkpt>
      <trkpt lat="36.77247" lon="27.70516">
        <ele>35.4</ele>
      </trkpt>
      <trkpt lat="36.77217" lon="27.70635">
        <ele>34.1</ele>
      </trkpt>
      <trkpt lat="36.77229" lon="27.7071">
        <ele>32.1</ele>
      </trkpt>
      <trkpt lat="36.77226" lon="27.7082">
        <ele>31.2</ele>
      </trkpt>
      <trkpt lat="36.77223" lon="27.7088">
        <ele>30.5</ele>
      </trkpt>
      <trkpt lat="36.7719" lon="27.71022">
        <ele>28.4</ele>
      </trkpt>
      <trkpt lat="36.77235" lon="27.71048">
        <ele>29.5</ele>
      </trkpt>
      <trkpt lat="36.77268" lon="27.71137">
        <ele>28.2</ele>
      </trkpt>
      <trkpt lat="36.77373" lon="27.71223">
        <ele>27.4</ele>
      </trkpt>
      <trkpt lat="36.77463" lon="27.71373">
        <ele>29.7</ele>
      </trkpt>
      <trkpt lat="36.77463" lon="27.71564">
        <ele>28.7</ele>
      </trkpt>
      <trkpt lat="36.77507" lon="27.71706">
        <ele>33.7</ele>
      </trkpt>
      <trkpt lat="36.77563" lon="27.71886">
        <ele>36.3</ele>
      </trkpt>
      <trkpt lat="36.77596" lon="27.72001">
        <ele>38.3</ele>
      </trkpt>
      <trkpt lat="36.77559" lon="27.72093">
        <ele>37.7</ele>
      </trkpt>
      <trkpt lat="36.77552" lon="27.72125">
        <ele>38.6</ele>
      </trkpt>
      <trkpt lat="36.77603" lon="27.72175">
        <ele>39.1</ele>
      </trkpt>
      <trkpt lat="36.77618" lon="27.72235">
        <ele>37.8</ele>
      </trkpt>
      <trkpt lat="36.77596" lon="27.72309">
        <ele>38.5</ele>
      </trkpt>
      <trkpt lat="36.77588" lon="27.72438">
        <ele>43.7</ele>
      </trkpt>
      <trkpt lat="36.77607" lon="27.72506">
        <ele>49.1</ele>
      </trkpt>
      <trkpt lat="36.77658" lon="27.72585">
        <ele>55.5</ele>
      </trkpt>
      <trkpt lat="36.77714" lon="27.72741">
        <ele>65.4</ele>
      </trkpt>
      <trkpt lat="36.77692" lon="27.72819">
        <ele>72.3</ele>
      </trkpt>
      <trkpt lat="36.77695" lon="27.72888">
        <ele>76.6</ele>
      </trkpt>
      <trkpt lat="36.77695" lon="27.72957">
        <ele>81.1</ele>
      </trkpt>
      <trkpt lat="36.77662" lon="27.72999">
        <ele>83.7</ele>
      </trkpt>
      <trkpt lat="36.77607" lon="27.73022">
        <ele>79.5</ele>
      </trkpt>
      <trkpt lat="36.77591" lon="27.73019">
        <ele>78.6</ele>
      </trkpt>
      <trkpt lat="36.77568" lon="27.73019">
        <ele>77.6</ele>
      </trkpt>
      <trkpt lat="36.77523" lon="27.73002">
        <ele>76.1</ele>
      </trkpt>
      <trkpt lat="36.77502" lon="27.73061">
        <ele>75.7</ele>
      </trkpt>
      <trkpt lat="36.77489" lon="27.73112">
        <ele>74.3</ele>
      </trkpt>
      <trkpt lat="36.77471" lon="27.73169">
        <ele>72.6</ele>
      </trkpt>
      <trkpt lat="36.77459" lon="27.73222">
        <ele>70.2</ele>
      </trkpt>
      <trkpt lat="36.77458" lon="27.73232">
        <ele>69.8</ele>
      </trkpt>
      <trkpt lat="36.7742" lon="27.733">
        <ele>68.6</ele>
      </trkpt>
      <trkpt lat="36.77344" lon="27.73363">
        <ele>65</ele>
      </trkpt>
      <trkpt lat="36.77336" lon="27.73374">
        <ele>65</ele>
      </trkpt>
      <trkpt lat="36.7732" lon="27.73407">
        <ele>64.4</ele>
      </trkpt>
      <trkpt lat="36.77297" lon="27.73445">
        <ele>63.4</ele>
      </trkpt>
      <trkpt lat="36.77268" lon="27.73502">
        <ele>63.6</ele>
      </trkpt>
      <trkpt lat="36.77266" lon="27.73525">
        <ele>63.8</ele>
      </trkpt>
      <trkpt lat="36.77265" lon="27.73541">
        <ele>64</ele>
      </trkpt>
      <trkpt lat="36.7727" lon="27.73576">
        <ele>64.4</ele>
      </trkpt>
      <trkpt lat="36.77285" lon="27.73618">
        <ele>65.6</ele>
      </trkpt>
      <trkpt lat="36.77292" lon="27.73622">
        <ele>66</ele>
      </trkpt>
      <trkpt lat="36.77305" lon="27.73632">
        <ele>66.7</ele>
      </trkpt>
      <trkpt lat="36.77329" lon="27.73646">
        <ele>68.1</ele>
      </trkpt>
      <trkpt lat="36.77371" lon="27.73668">
        <ele>69.9</ele>
      </trkpt>
      <trkpt lat="36.77381" lon="27.73691">
        <ele>69.5</ele>
      </trkpt>
      <trkpt lat="36.7738" lon="27.73708">
        <ele>69</ele>
      </trkpt>
      <trkpt lat="36.77376" lon="27.7371">
        <ele>69</ele>
      </trkpt>
      <trkpt lat="36.77354" lon="27.73738">
        <ele>68.7</ele>
      </trkpt>
      <trkpt lat="36.77349" lon="27.73749">
        <ele>68.6</ele>
      </trkpt>
      <trkpt lat="36.77342" lon="27.73767">
        <ele>68.7</ele>
      </trkpt>
      <trkpt lat="36.77339" lon="27.73793">
        <ele>68.7</ele>
      </trkpt>
      <trkpt lat="36.77329" lon="27.7389">
        <ele>67.3</ele>
      </trkpt>
      <trkpt lat="36.77316" lon="27.73991">
        <ele>65.1</ele>
      </trkpt>
      <trkpt lat="36.77312" lon="27.74034">
        <ele>65.8</ele>
      </trkpt>
      <trkpt lat="36.7731" lon="27.74057">
        <ele>66.6</ele>
      </trkpt>
      <trkpt lat="36.77309" lon="27.74097">
        <ele>68.1</ele>
      </trkpt>
      <trkpt lat="36.7731" lon="27.74132">
        <ele>69.7</ele>
      </trkpt>
      <trkpt lat="36.77318" lon="27.74163">
        <ele>71.7</ele>
      </trkpt>
      <trkpt lat="36.77328" lon="27.74181">
        <ele>72.4</ele>
      </trkpt>
      <trkpt lat="36.77341" lon="27.7421">
        <ele>72.5</ele>
      </trkpt>
      <trkpt lat="36.77362" lon="27.74258">
        <ele>72.9</ele>
      </trkpt>
      <trkpt lat="36.77376" lon="27.74276">
        <ele>73.4</ele>
      </trkpt>
      <trkpt lat="36.77394" lon="27.74287">
        <ele>74.7</ele>
      </trkpt>
      <trkpt lat="36.7744" lon="27.74303">
        <ele>77.9</ele>
      </trkpt>
      <trkpt lat="36.77461" lon="27.74301">
        <ele>78.8</ele>
      </trkpt>
      <trkpt lat="36.77481" lon="27.74299">
        <ele>79.5</ele>
      </trkpt>
      <trkpt lat="36.77509" lon="27.74302">
        <ele>80.4</ele>
      </trkpt>
      <trkpt lat="36.77556" lon="27.74329">
        <ele>81.1</ele>
      </trkpt>
      <trkpt lat="36.77576" lon="27.7434">
        <ele>81.1</ele>
      </trkpt>
      <trkpt lat="36.77602" lon="27.74369">
        <ele>81.9</ele>
      </trkpt>
      <trkpt lat="36.77652" lon="27.74419">
        <ele>85.4</ele>
      </trkpt>
      <trkpt lat="36.77675" lon="27.74451">
        <ele>88.4</ele>
      </trkpt>
      <trkpt lat="36.77712" lon="27.74496">
        <ele>93.7</ele>
      </trkpt>
      <trkpt lat="36.7775" lon="27.74531">
        <ele>96.2</ele>
      </trkpt>
      <trkpt lat="36.77778" lon="27.7454">
        <ele>98.5</ele>
      </trkpt>
      <trkpt lat="36.77815" lon="27.7454">
        <ele>101.9</ele>
      </trkpt>
      <trkpt lat="36.77834" lon="27.74537">
        <ele>103.7</ele>
      </trkpt>
      <trkpt lat="36.77858" lon="27.74557">
        <ele>103.2</ele>
      </trkpt>
      <trkpt lat="36.77881" lon="27.74572">
        <ele>103</ele>
      </trkpt>
      <trkpt lat="36.77905" lon="27.74582">
        <ele>102.9</ele>
      </trkpt>
      <trkpt lat="36.7793" lon="27.74587">
        <ele>101.1</ele>
      </trkpt>
      <trkpt lat="36.77945" lon="27.74592">
        <ele>99.1</ele>
      </trkpt>
      <trkpt lat="36.77954" lon="27.74598">
        <ele>98.1</ele>
      </trkpt>
      <trkpt lat="36.77963" lon="27.74617">
        <ele>97.3</ele>
      </trkpt>
      <trkpt lat="36.7797" lon="27.74649">
        <ele>97.6</ele>
      </trkpt>
      <trkpt lat="36.77985" lon="27.74712">
        <ele>98.7</ele>
      </trkpt>
      <trkpt lat="36.78007" lon="27.74758">
        <ele>102.7</ele>
      </trkpt>
      <trkpt lat="36.78019" lon="27.74779">
        <ele>104.4</ele>
      </trkpt>
      <trkpt lat="36.78028" lon="27.74809">
        <ele>106.8</ele>
      </trkpt>
      <trkpt lat="36.78022" lon="27.74832">
        <ele>107.1</ele>
      </trkpt>
      <trkpt lat="36.78" lon="27.7486">
        <ele>102.7</ele>
      </trkpt>
      <trkpt lat="36.77921" lon="27.74928">
        <ele>96.2</ele>
      </trkpt>
      <trkpt lat="36.77903" lon="27.74964">
        <ele>95.2</ele>
      </trkpt>
      <trkpt lat="36.779" lon="27.75005">
        <ele>95.3</ele>
      </trkpt>
      <trkpt lat="36.77927" lon="27.75079">
        <ele>92.8</ele>
      </trkpt>
      <trkpt lat="36.77935" lon="27.75162">
        <ele>92</ele>
      </trkpt>
      <trkpt lat="36.77936" lon="27.75194">
        <ele>91.8</ele>
      </trkpt>
      <trkpt lat="36.77963" lon="27.7529">
        <ele>92.9</ele>
      </trkpt>
      <trkpt lat="36.77966" lon="27.75306">
        <ele>93.4</ele>
      </trkpt>
      <trkpt lat="36.77964" lon="27.75338">
        <ele>94.2</ele>
      </trkpt>
      <trkpt lat="36.77969" lon="27.75376">
        <ele>97.6</ele>
      </trkpt>
      <trkpt lat="36.77978" lon="27.75407">
        <ele>100.3</ele>
      </trkpt>
      <trkpt lat="36.77991" lon="27.75429">
        <ele>100.4</ele>
      </trkpt>
      <trkpt lat="36.78042" lon="27.75475">
        <ele>98.5</ele>
      </trkpt>
      <trkpt lat="36.78055" lon="27.75496">
        <ele>98.3</ele>
      </trkpt>
      <trkpt lat="36.78063" lon="27.75532">
        <ele>97.4</ele>
      </trkpt>
      <trkpt lat="36.78053" lon="27.75579">
        <ele>95.4</ele>
      </trkpt>
      <trkpt lat="36.78042" lon="27.75624">
        <ele>96.7</ele>
      </trkpt>
      <trkpt lat="36.78038" lon="27.75675">
        <ele>99.1</ele>
      </trkpt>
      <trkpt lat="36.78045" lon="27.75732">
        <ele>101.9</ele>
      </trkpt>
      <trkpt lat="36.78038" lon="27.75799">
        <ele>106.9</ele>
      </trkpt>
      <trkpt lat="36.78035" lon="27.75826">
        <ele>109.4</ele>
      </trkpt>
      <trkpt lat="36.78035" lon="27.75839">
        <ele>110</ele>
      </trkpt>
      <trkpt lat="36.7805" lon="27.75878">
        <ele>108.8</ele>
      </trkpt>
      <trkpt lat="36.78074" lon="27.75929">
        <ele>108.4</ele>
      </trkpt>
      <trkpt lat="36.78103" lon="27.75938">
        <ele>107.2</ele>
      </trkpt>
      <trkpt lat="36.78217" lon="27.75949">
        <ele>106.1</ele>
      </trkpt>
      <trkpt lat="36.78242" lon="27.7596">
        <ele>106.5</ele>
      </trkpt>
      <trkpt lat="36.78263" lon="27.7599">
        <ele>105</ele>
      </trkpt>
      <trkpt lat="36.78284" lon="27.76046">
        <ele>98.2</ele>
      </trkpt>
      <trkpt lat="36.78281" lon="27.76089">
        <ele>95.9</ele>
      </trkpt>
      <trkpt lat="36.7828" lon="27.76126">
        <ele>98</ele>
      </trkpt>
      <trkpt lat="36.78287" lon="27.7615">
        <ele>99.7</ele>
      </trkpt>
      <trkpt lat="36.78307" lon="27.76184">
        <ele>101.9</ele>
      </trkpt>
      <trkpt lat="36.78327" lon="27.7622">
        <ele>103.8</ele>
      </trkpt>
      <trkpt lat="36.78335" lon="27.7624">
        <ele>104.6</ele>
      </trkpt>
      <trkpt lat="36.78351" lon="27.76271">
        <ele>103.2</ele>
      </trkpt>
      <trkpt lat="36.78367" lon="27.76282">
        <ele>101.7</ele>
      </trkpt>
      <trkpt lat="36.78378" lon="27.76291">
        <ele>101</ele>
      </trkpt>
      <trkpt lat="36.78388" lon="27.7631">
        <ele>100.8</ele>
      </trkpt>
      <trkpt lat="36.78391" lon="27.76333">
        <ele>101.5</ele>
      </trkpt>
      <trkpt lat="36.78393" lon="27.76349">
        <ele>101.7</ele>
      </trkpt>
      <trkpt lat="36.78396" lon="27.76415">
        <ele>103</ele>
      </trkpt>
      <trkpt lat="36.78398" lon="27.7647">
        <ele>104.6</ele>
      </trkpt>
      <trkpt lat="36.78399" lon="27.76524">
        <ele>105.8</ele>
      </trkpt>
      <trkpt lat="36.78399" lon="27.76544">
        <ele>106.2</ele>
      </trkpt>
      <trkpt lat="36.78397" lon="27.76595">
        <ele>107.4</ele>
      </trkpt>
      <trkpt lat="36.78393" lon="27.76644">
        <ele>110.2</ele>
      </trkpt>
      <trkpt lat="36.78377" lon="27.76688">
        <ele>111.9</ele>
      </trkpt>
      <trkpt lat="36.78335" lon="27.76722">
        <ele>115.5</ele>
      </trkpt>
      <trkpt lat="36.78313" lon="27.76768">
        <ele>116.4</ele>
      </trkpt>
      <trkpt lat="36.78295" lon="27.76802">
        <ele>119</ele>
      </trkpt>
      <trkpt lat="36.78247" lon="27.76829">
        <ele>122.2</ele>
      </trkpt>
      <trkpt lat="36.78216" lon="27.76843">
        <ele>121.3</ele>
      </trkpt>
      <trkpt lat="36.78191" lon="27.7685">
        <ele>120</ele>
      </trkpt>
      <trkpt lat="36.78178" lon="27.76861">
        <ele>119.9</ele>
      </trkpt>
      <trkpt lat="36.78151" lon="27.7689">
        <ele>120</ele>
      </trkpt>
      <trkpt lat="36.78131" lon="27.76902">
        <ele>119.8</ele>
      </trkpt>
      <trkpt lat="36.78116" lon="27.76904">
        <ele>119</ele>
      </trkpt>
      <trkpt lat="36.78093" lon="27.76904">
        <ele>117.8</ele>
      </trkpt>
      <trkpt lat="36.78079" lon="27.7691">
        <ele>117.6</ele>
      </trkpt>
      <trkpt lat="36.78067" lon="27.7692">
        <ele>117.3</ele>
      </trkpt>
      <trkpt lat="36.78058" lon="27.76935">
        <ele>115.7</ele>
      </trkpt>
      <trkpt lat="36.7805" lon="27.76964">
        <ele>114</ele>
      </trkpt>
      <trkpt lat="36.7805" lon="27.77001">
        <ele>112.6</ele>
      </trkpt>
      <trkpt lat="36.78049" lon="27.77028">
        <ele>112</ele>
      </trkpt>
      <trkpt lat="36.78042" lon="27.77059">
        <ele>111.8</ele>
      </trkpt>
      <trkpt lat="36.78031" lon="27.77085">
        <ele>112.2</ele>
      </trkpt>
      <trkpt lat="36.78025" lon="27.7709">
        <ele>112.3</ele>
      </trkpt>
      <trkpt lat="36.78012" lon="27.77107">
        <ele>112.1</ele>
      </trkpt>
      <trkpt lat="36.77979" lon="27.77138">
        <ele>109.6</ele>
      </trkpt>
      <trkpt lat="36.77963" lon="27.7715">
        <ele>108.3</ele>
      </trkpt>
      <trkpt lat="36.77963" lon="27.77162">
        <ele>108.2</ele>
      </trkpt>
      <trkpt lat="36.7795" lon="27.77215">
        <ele>106.2</ele>
      </trkpt>
      <trkpt lat="36.77956" lon="27.77253">
        <ele>105.1</ele>
      </trkpt>
      <trkpt lat="36.77969" lon="27.77271">
        <ele>105.8</ele>
      </trkpt>
      <trkpt lat="36.78003" lon="27.77286">
        <ele>107.8</ele>
      </trkpt>
      <trkpt lat="36.78011" lon="27.77297">
        <ele>108</ele>
      </trkpt>
      <trkpt lat="36.78014" lon="27.77308">
        <ele>108.8</ele>
      </trkpt>
      <trkpt lat="36.78011" lon="27.77316">
        <ele>109.7</ele>
      </trkpt>
      <trkpt lat="36.78005" lon="27.77335">
        <ele>111.5</ele>
      </trkpt>
      <trkpt lat="36.77987" lon="27.77373">
        <ele>107.3</ele>
      </trkpt>
      <trkpt lat="36.77977" lon="27.77417">
        <ele>103.7</ele>
      </trkpt>
      <trkpt lat="36.77969" lon="27.77433">
        <ele>102.4</ele>
      </trkpt>
      <trkpt lat="36.77945" lon="27.77475">
        <ele>100.9</ele>
      </trkpt>
      <trkpt lat="36.77928" lon="27.77506">
        <ele>101.6</ele>
      </trkpt>
      <trkpt lat="36.77921" lon="27.77531">
        <ele>101.7</ele>
      </trkpt>
      <trkpt lat="36.77926" lon="27.77552">
        <ele>100.4</ele>
      </trkpt>
      <trkpt lat="36.77949" lon="27.77588">
        <ele>95.4</ele>
      </trkpt>
      <trkpt lat="36.77951" lon="27.77609">
        <ele>94.1</ele>
      </trkpt>
      <trkpt lat="36.77946" lon="27.77633">
        <ele>93.8</ele>
      </trkpt>
      <trkpt lat="36.77932" lon="27.77658">
        <ele>94.5</ele>
      </trkpt>
      <trkpt lat="36.77917" lon="27.77681">
        <ele>95.8</ele>
      </trkpt>
      <trkpt lat="36.77903" lon="27.77702">
        <ele>95.2</ele>
      </trkpt>
      <trkpt lat="36.77894" lon="27.77714">
        <ele>95.2</ele>
      </trkpt>
      <trkpt lat="36.77877" lon="27.77749">
        <ele>95.9</ele>
      </trkpt>
      <trkpt lat="36.77832" lon="27.77846">
        <ele>96.4</ele>
      </trkpt>
      <trkpt lat="36.77831" lon="27.77852">
        <ele>96.1</ele>
      </trkpt>
      <trkpt lat="36.77838" lon="27.77859">
        <ele>96.4</ele>
      </trkpt>
      <trkpt lat="36.77848" lon="27.77872">
        <ele>96.7</ele>
      </trkpt>
      <trkpt lat="36.77861" lon="27.77898">
        <ele>97.5</ele>
      </trkpt>
      <trkpt lat="36.77882" lon="27.77934">
        <ele>100</ele>
      </trkpt>
      <trkpt lat="36.77893" lon="27.77948">
        <ele>101.6</ele>
      </trkpt>
      <trkpt lat="36.77908" lon="27.77947">
        <ele>103.5</ele>
      </trkpt>
      <trkpt lat="36.77919" lon="27.77932">
        <ele>104.7</ele>
      </trkpt>
      <trkpt lat="36.77935" lon="27.779">
        <ele>105.6</ele>
      </trkpt>
      <trkpt lat="36.7795" lon="27.77882">
        <ele>106.3</ele>
      </trkpt>
      <trkpt lat="36.77968" lon="27.77872">
        <ele>107.5</ele>
      </trkpt>
      <trkpt lat="36.7799" lon="27.7788">
        <ele>110.9</ele>
      </trkpt>
      <trkpt lat="36.78018" lon="27.77901">
        <ele>115.1</ele>
      </trkpt>
      <trkpt lat="36.78071" lon="27.77941">
        <ele>123.3</ele>
      </trkpt>
      <trkpt lat="36.78068" lon="27.77949">
        <ele>124.2</ele>
      </trkpt>
      <trkpt lat="36.78061" lon="27.77979">
        <ele>128</ele>
      </trkpt>
      <trkpt lat="36.78039" lon="27.78007">
        <ele>129.3</ele>
      </trkpt>
      <trkpt lat="36.78018" lon="27.78028">
        <ele>130.4</ele>
      </trkpt>
      <trkpt lat="36.78003" lon="27.78049">
        <ele>132.1</ele>
      </trkpt>
      <trkpt lat="36.77994" lon="27.78067">
        <ele>133.6</ele>
      </trkpt>
      <trkpt lat="36.77983" lon="27.78077">
        <ele>133.2</ele>
      </trkpt>
      <trkpt lat="36.77972" lon="27.78086">
        <ele>132.4</ele>
      </trkpt>
      <trkpt lat="36.77948" lon="27.78109">
        <ele>131.1</ele>
      </trkpt>
      <trkpt lat="36.77918" lon="27.78136">
        <ele>129.2</ele>
      </trkpt>
      <trkpt lat="36.77904" lon="27.78154">
        <ele>129.2</ele>
      </trkpt>
      <trkpt lat="36.77891" lon="27.78179">
        <ele>129.7</ele>
      </trkpt>
      <trkpt lat="36.77876" lon="27.78212">
        <ele>130.1</ele>
      </trkpt>
      <trkpt lat="36.77868" lon="27.7823">
        <ele>130.5</ele>
      </trkpt>
      <trkpt lat="36.77859" lon="27.7824">
        <ele>129.8</ele>
      </trkpt>
      <trkpt lat="36.77854" lon="27.78255">
        <ele>130.4</ele>
      </trkpt>
      <trkpt lat="36.77851" lon="27.78273">
        <ele>131.7</ele>
      </trkpt>
      <trkpt lat="36.77845" lon="27.78289">
        <ele>132.1</ele>
      </trkpt>
      <trkpt lat="36.77833" lon="27.78301">
        <ele>130.8</ele>
      </trkpt>
      <trkpt lat="36.77813" lon="27.78325">
        <ele>128.5</ele>
      </trkpt>
      <trkpt lat="36.77794" lon="27.78348">
        <ele>125.7</ele>
      </trkpt>
      <trkpt lat="36.77775" lon="27.78373">
        <ele>122.1</ele>
      </trkpt>
      <trkpt lat="36.77766" lon="27.78394">
        <ele>120.3</ele>
      </trkpt>
      <trkpt lat="36.77762" lon="27.78403">
        <ele>119.5</ele>
      </trkpt>
      <trkpt lat="36.77761" lon="27.78419">
        <ele>119.7</ele>
      </trkpt>
      <trkpt lat="36.77765" lon="27.78436">
        <ele>120</ele>
      </trkpt>
      <trkpt lat="36.77771" lon="27.7845">
        <ele>121.1</ele>
      </trkpt>
      <trkpt lat="36.77781" lon="27.78467">
        <ele>124.6</ele>
      </trkpt>
      <trkpt lat="36.77784" lon="27.78489">
        <ele>125.1</ele>
      </trkpt>
      <trkpt lat="36.77787" lon="27.78542">
        <ele>125</ele>
      </trkpt>
      <trkpt lat="36.77787" lon="27.78596">
        <ele>123.5</ele>
      </trkpt>
      <trkpt lat="36.77791" lon="27.78697">
        <ele>120.4</ele>
      </trkpt>
      <trkpt lat="36.77798" lon="27.78735">
        <ele>119.9</ele>
      </trkpt>
      <trkpt lat="36.77802" lon="27.7875">
        <ele>119.9</ele>
      </trkpt>
      <trkpt lat="36.77804" lon="27.7879">
        <ele>118.4</ele>
      </trkpt>
      <trkpt lat="36.77788" lon="27.78846">
        <ele>112.3</ele>
      </trkpt>
      <trkpt lat="36.77786" lon="27.78855">
        <ele>112.1</ele>
      </trkpt>
      <trkpt lat="36.77785" lon="27.78864">
        <ele>112.1</ele>
      </trkpt>
      <trkpt lat="36.77794" lon="27.78889">
        <ele>114.9</ele>
      </trkpt>
      <trkpt lat="36.77789" lon="27.78898">
        <ele>114</ele>
      </trkpt>
      <trkpt lat="36.77781" lon="27.78907">
        <ele>112.5</ele>
      </trkpt>
      <trkpt lat="36.77774" lon="27.78913">
        <ele>111.4</ele>
      </trkpt>
      <trkpt lat="36.77761" lon="27.78937">
        <ele>110.1</ele>
      </trkpt>
      <trkpt lat="36.77753" lon="27.78956">
        <ele>109.8</ele>
      </trkpt>
      <trkpt lat="36.77753" lon="27.78973">
        <ele>110.8</ele>
      </trkpt>
      <trkpt lat="36.77746" lon="27.78983">
        <ele>110.5</ele>
      </trkpt>
      <trkpt lat="36.7774" lon="27.78986">
        <ele>110</ele>
      </trkpt>
      <trkpt lat="36.77734" lon="27.78985">
        <ele>109.4</ele>
      </trkpt>
      <trkpt lat="36.77723" lon="27.78978">
        <ele>107.8</ele>
      </trkpt>
      <trkpt lat="36.77712" lon="27.78964">
        <ele>105.7</ele>
      </trkpt>
      <trkpt lat="36.77667" lon="27.78894">
        <ele>96.6</ele>
      </trkpt>
      <trkpt lat="36.77651" lon="27.78881">
        <ele>94.7</ele>
      </trkpt>
      <trkpt lat="36.77637" lon="27.78875">
        <ele>93.4</ele>
      </trkpt>
      <trkpt lat="36.7762" lon="27.78876">
        <ele>92.2</ele>
      </trkpt>
      <trkpt lat="36.77607" lon="27.7889">
        <ele>91.9</ele>
      </trkpt>
      <trkpt lat="36.77553" lon="27.78946">
        <ele>90.5</ele>
      </trkpt>
      <trkpt lat="36.77502" lon="27.78977">
        <ele>88</ele>
      </trkpt>
      <trkpt lat="36.77486" lon="27.78976">
        <ele>86.6</ele>
      </trkpt>
      <trkpt lat="36.77476" lon="27.78976">
        <ele>85.7</ele>
      </trkpt>
      <trkpt lat="36.77464" lon="27.78984">
        <ele>85.1</ele>
      </trkpt>
      <trkpt lat="36.77444" lon="27.78998">
        <ele>84.2</ele>
      </trkpt>
      <trkpt lat="36.77428" lon="27.79007">
        <ele>83.2</ele>
      </trkpt>
      <trkpt lat="36.77402" lon="27.79006">
        <ele>81</ele>
      </trkpt>
      <trkpt lat="36.7735" lon="27.78976">
        <ele>75.4</ele>
      </trkpt>
      <trkpt lat="36.77328" lon="27.78929">
        <ele>72.3</ele>
      </trkpt>
      <trkpt lat="36.77297" lon="27.78859">
        <ele>67.8</ele>
      </trkpt>
      <trkpt lat="36.77273" lon="27.78814">
        <ele>64</ele>
      </trkpt>
      <trkpt lat="36.77175" lon="27.78757">
        <ele>54.8</ele>
      </trkpt>
      <trkpt lat="36.77129" lon="27.78654">
        <ele>48.1</ele>
      </trkpt>
      <trkpt lat="36.77097" lon="27.78618">
        <ele>46.4</ele>
      </trkpt>
      <trkpt lat="36.77075" lon="27.78547">
        <ele>43.6</ele>
      </trkpt>
      <trkpt lat="36.77053" lon="27.78525">
        <ele>42.6</ele>
      </trkpt>
      <trkpt lat="36.77026" lon="27.78507">
        <ele>41.6</ele>
      </trkpt>
      <trkpt lat="36.7697" lon="27.78469">
        <ele>38.2</ele>
      </trkpt>
      <trkpt lat="36.76908" lon="27.78486">
        <ele>36.9</ele>
      </trkpt>
      <trkpt lat="36.76869" lon="27.78481">
        <ele>34.6</ele>
      </trkpt>
      <trkpt lat="36.76844" lon="27.78476">
        <ele>33.2</ele>
      </trkpt>
      <trkpt lat="36.76735" lon="27.78452">
        <ele>27.6</ele>
      </trkpt>
      <trkpt lat="36.76695" lon="27.78445">
        <ele>25.6</ele>
      </trkpt>
      <trkpt lat="36.76633" lon="27.78444">
        <ele>22.6</ele>
      </trkpt>
      <trkpt lat="36.76535" lon="27.78421">
        <ele>17.1</ele>
      </trkpt>
      <trkpt lat="36.76502" lon="27.78417">
        <ele>15.1</ele>
      </trkpt>
      <trkpt lat="36.76523" lon="27.78638">
        <ele>17</ele>
      </trkpt>
      <trkpt lat="36.76527" lon="27.78795">
        <ele>16.3</ele>
      </trkpt>
      <trkpt lat="36.76521" lon="27.79033">
        <ele>18</ele>
      </trkpt>
      <trkpt lat="36.76533" lon="27.79183">
        <ele>19.3</ele>
      </trkpt>
      <trkpt lat="36.7657" lon="27.79309">
        <ele>21.7</ele>
      </trkpt>
      <trkpt lat="36.76641" lon="27.79544">
        <ele>23.7</ele>
      </trkpt>
      <trkpt lat="36.76686" lon="27.79653">
        <ele>27.1</ele>
      </trkpt>
      <trkpt lat="36.76738" lon="27.79855">
        <ele>29.6</ele>
      </trkpt>
      <trkpt lat="36.76807" lon="27.80166">
        <ele>34</ele>
      </trkpt>
      <trkpt lat="36.76886" lon="27.80277">
        <ele>37.2</ele>
      </trkpt>
      <trkpt lat="36.76946" lon="27.80349">
        <ele>40.2</ele>
      </trkpt>
      <trkpt lat="36.77038" lon="27.80493">
        <ele>46</ele>
      </trkpt>
      <trkpt lat="36.77121" lon="27.80557">
        <ele>51.5</ele>
      </trkpt>
      <trkpt lat="36.77189" lon="27.80652">
        <ele>58.4</ele>
      </trkpt>
      <trkpt lat="36.77277" lon="27.80752">
        <ele>68</ele>
      </trkpt>
      <trkpt lat="36.77313" lon="27.80805">
        <ele>72.9</ele>
      </trkpt>
      <trkpt lat="36.77379" lon="27.80846">
        <ele>75</ele>
      </trkpt>
      <trkpt lat="36.77464" lon="27.80926">
        <ele>84.9</ele>
      </trkpt>
      <trkpt lat="36.7751" lon="27.8104">
        <ele>90.9</ele>
      </trkpt>
      <trkpt lat="36.77549" lon="27.81105">
        <ele>95.7</ele>
      </trkpt>
      <trkpt lat="36.77547" lon="27.81187">
        <ele>96.8</ele>
      </trkpt>
      <trkpt lat="36.775" lon="27.8135">
        <ele>86.2</ele>
      </trkpt>
      <trkpt lat="36.77492" lon="27.81445">
        <ele>86.2</ele>
      </trkpt>
      <trkpt lat="36.7751" lon="27.81521">
        <ele>85.1</ele>
      </trkpt>
      <trkpt lat="36.7757" lon="27.81624">
        <ele>81.7</ele>
      </trkpt>
      <trkpt lat="36.77594" lon="27.81685">
        <ele>83.8</ele>
      </trkpt>
      <trkpt lat="36.77586" lon="27.81764">
        <ele>83.5</ele>
      </trkpt>
      <trkpt lat="36.77536" lon="27.81849">
        <ele>83.5</ele>
      </trkpt>
      <trkpt lat="36.77526" lon="27.81917">
        <ele>93.2</ele>
      </trkpt>
      <trkpt lat="36.77541" lon="27.8197">
        <ele>94.3</ele>
      </trkpt>
      <trkpt lat="36.77662" lon="27.821">
        <ele>108.5</ele>
      </trkpt>
      <trkpt lat="36.77743" lon="27.82191">
        <ele>100.7</ele>
      </trkpt>
      <trkpt lat="36.77773" lon="27.82255">
        <ele>107.5</ele>
      </trkpt>
      <trkpt lat="36.77795" lon="27.82368">
        <ele>107.7</ele>
      </trkpt>
      <trkpt lat="36.77809" lon="27.82484">
        <ele>95.2</ele>
      </trkpt>
      <trkpt lat="36.77839" lon="27.82544">
        <ele>92.6</ele>
      </trkpt>
      <trkpt lat="36.77925" lon="27.82644">
        <ele>88.1</ele>
      </trkpt>
      <trkpt lat="36.77988" lon="27.82748">
        <ele>90.4</ele>
      </trkpt>
      <trkpt lat="36.7802" lon="27.82874">
        <ele>89.9</ele>
      </trkpt>
      <trkpt lat="36.78018" lon="27.83005">
        <ele>77.9</ele>
      </trkpt>
      <trkpt lat="36.77964" lon="27.83516">
        <ele>78.4</ele>
      </trkpt>
      <trkpt lat="36.77935" lon="27.83634">
        <ele>80.9</ele>
      </trkpt>
      <trkpt lat="36.77869" lon="27.83766">
        <ele>87.7</ele>
      </trkpt>
      <trkpt lat="36.77745" lon="27.839">
        <ele>88</ele>
      </trkpt>
      <trkpt lat="36.77588" lon="27.84026">
        <ele>98.1</ele>
      </trkpt>
      <trkpt lat="36.77514" lon="27.84117">
        <ele>101.7</ele>
      </trkpt>
      <trkpt lat="36.77455" lon="27.84227">
        <ele>104.2</ele>
      </trkpt>
      <trkpt lat="36.77376" lon="27.84477">
        <ele>108.6</ele>
      </trkpt>
      <trkpt lat="36.77299" lon="27.84734">
        <ele>108.9</ele>
      </trkpt>
      <trkpt lat="36.77136" lon="27.85086">
        <ele>104</ele>
      </trkpt>
      <trkpt lat="36.76953" lon="27.85489">
        <ele>100.2</ele>
      </trkpt>
      <trkpt lat="36.7682" lon="27.85747">
        <ele>91.1</ele>
      </trkpt>
      <trkpt lat="36.76676" lon="27.85993">
        <ele>82.5</ele>
      </trkpt>
      <trkpt lat="36.76632" lon="27.86121">
        <ele>78.1</ele>
      </trkpt>
      <trkpt lat="36.76614" lon="27.86277">
        <ele>76.1</ele>
      </trkpt>
      <trkpt lat="36.76589" lon="27.86366">
        <ele>71.4</ele>
      </trkpt>
      <trkpt lat="36.7649" lon="27.86481">
        <ele>70.3</ele>
      </trkpt>
      <trkpt lat="36.76459" lon="27.86547">
        <ele>65.1</ele>
      </trkpt>
      <trkpt lat="36.76472" lon="27.86607">
        <ele>59.9</ele>
      </trkpt>
      <trkpt lat="36.76513" lon="27.86657">
        <ele>51.3</ele>
      </trkpt>
      <trkpt lat="36.7659" lon="27.86685">
        <ele>40.9</ele>
      </trkpt>
      <trkpt lat="36.76634" lon="27.86733">
        <ele>45.4</ele>
      </trkpt>
      <trkpt lat="36.76635" lon="27.86824">
        <ele>43.3</ele>
      </trkpt>
      <trkpt lat="36.76557" lon="27.86952">
        <ele>33.9</ele>
      </trkpt>
      <trkpt lat="36.76544" lon="27.86991">
        <ele>32.2</ele>
      </trkpt>
      <trkpt lat="36.76556" lon="27.87048">
        <ele>26.4</ele>
      </trkpt>
      <trkpt lat="36.76591" lon="27.8711">
        <ele>23.9</ele>
      </trkpt>
      <trkpt lat="36.76591" lon="27.87146">
        <ele>24.9</ele>
      </trkpt>
      <trkpt lat="36.76582" lon="27.87189">
        <ele>28</ele>
      </trkpt>
      <trkpt lat="36.76538" lon="27.8722">
        <ele>27.8</ele>
      </trkpt>
      <trkpt lat="36.76485" lon="27.87241">
        <ele>23.7</ele>
      </trkpt>
      <trkpt lat="36.7643" lon="27.87281">
        <ele>19.8</ele>
      </trkpt>
      <trkpt lat="36.764" lon="27.87336">
        <ele>19.2</ele>
      </trkpt>
      <trkpt lat="36.76403" lon="27.8759">
        <ele>20.2</ele>
      </trkpt>
      <trkpt lat="36.76397" lon="27.87684">
        <ele>20.8</ele>
      </trkpt>
      <trkpt lat="36.76298" lon="27.87846">
        <ele>18.5</ele>
      </trkpt>
      <trkpt lat="36.76188" lon="27.88092">
        <ele>18.7</ele>
      </trkpt>
      <trkpt lat="36.76015" lon="27.88494">
        <ele>15.6</ele>
      </trkpt>
      <trkpt lat="36.75906" lon="27.88735">
        <ele>11.7</ele>
      </trkpt>
      <trkpt lat="36.75849" lon="27.88894">
        <ele>13.1</ele>
      </trkpt>
      <trkpt lat="36.75789" lon="27.89112">
        <ele>15.7</ele>
      </trkpt>
      <trkpt lat="36.7574" lon="27.89433">
        <ele>11.7</ele>
      </trkpt>
      <trkpt lat="36.75691" lon="27.89721">
        <ele>23.4</ele>
      </trkpt>
      <trkpt lat="36.75645" lon="27.89808">
        <ele>30.9</ele>
      </trkpt>
      <trkpt lat="36.75632" lon="27.89869">
        <ele>34.2</ele>
      </trkpt>
      <trkpt lat="36.75638" lon="27.89982">
        <ele>46.6</ele>
      </trkpt>
      <trkpt lat="36.75631" lon="27.90056">
        <ele>47.7</ele>
      </trkpt>
      <trkpt lat="36.75604" lon="27.90136">
        <ele>42.2</ele>
      </trkpt>
      <trkpt lat="36.75588" lon="27.90262">
        <ele>33</ele>
      </trkpt>
      <trkpt lat="36.75598" lon="27.9034">
        <ele>27.2</ele>
      </trkpt>
      <trkpt lat="36.75629" lon="27.90392">
        <ele>21.8</ele>
      </trkpt>
      <trkpt lat="36.75736" lon="27.90445">
        <ele>23.4</ele>
      </trkpt>
      <trkpt lat="36.75956" lon="27.9055">
        <ele>27.8</ele>
      </trkpt>
      <trkpt lat="36.76087" lon="27.90619">
        <ele>31.3</ele>
      </trkpt>
      <trkpt lat="36.76185" lon="27.90626">
        <ele>34.7</ele>
      </trkpt>
      <trkpt lat="36.76382" lon="27.90605">
        <ele>49.7</ele>
      </trkpt>
      <trkpt lat="36.76474" lon="27.90598">
        <ele>58.8</ele>
      </trkpt>
      <trkpt lat="36.76551" lon="27.90628">
        <ele>63.9</ele>
      </trkpt>
      <trkpt lat="36.76623" lon="27.90692">
        <ele>69.3</ele>
      </trkpt>
      <trkpt lat="36.76709" lon="27.90833">
        <ele>81.1</ele>
      </trkpt>
      <trkpt lat="36.76771" lon="27.90908">
        <ele>88.7</ele>
      </trkpt>
      <trkpt lat="36.76901" lon="27.90976">
        <ele>105</ele>
      </trkpt>
      <trkpt lat="36.76995" lon="27.91025">
        <ele>124.6</ele>
      </trkpt>
      <trkpt lat="36.77053" lon="27.91133">
        <ele>134.3</ele>
      </trkpt>
      <trkpt lat="36.77094" lon="27.91231">
        <ele>129.1</ele>
      </trkpt>
      <trkpt lat="36.77186" lon="27.91384">
        <ele>144.1</ele>
      </trkpt>
      <trkpt lat="36.77229" lon="27.91438">
        <ele>145.7</ele>
      </trkpt>
      <trkpt lat="36.77303" lon="27.91492">
        <ele>143.9</ele>
      </trkpt>
      <trkpt lat="36.77569" lon="27.91634">
        <ele>137.5</ele>
      </trkpt>
      <trkpt lat="36.77735" lon="27.91708">
        <ele>134.2</ele>
      </trkpt>
      <trkpt lat="36.77816" lon="27.91767">
        <ele>127.3</ele>
      </trkpt>
      <trkpt lat="36.77862" lon="27.9183">
        <ele>126.8</ele>
      </trkpt>
      <trkpt lat="36.7792" lon="27.91948">
        <ele>121.1</ele>
      </trkpt>
      <trkpt lat="36.77939" lon="27.92039">
        <ele>121.6</ele>
      </trkpt>
      <trkpt lat="36.77944" lon="27.92154">
        <ele>122.4</ele>
      </trkpt>
      <trkpt lat="36.77936" lon="27.92246">
        <ele>123.6</ele>
      </trkpt>
      <trkpt lat="36.77884" lon="27.92415">
        <ele>117.5</ele>
      </trkpt>
      <trkpt lat="36.77877" lon="27.92508">
        <ele>115.8</ele>
      </trkpt>
      <trkpt lat="36.77908" lon="27.92661">
        <ele>134.9</ele>
      </trkpt>
      <trkpt lat="36.77901" lon="27.9275">
        <ele>138</ele>
      </trkpt>
      <trkpt lat="36.77845" lon="27.9295">
        <ele>139.4</ele>
      </trkpt>
      <trkpt lat="36.77833" lon="27.93029">
        <ele>140.3</ele>
      </trkpt>
      <trkpt lat="36.77813" lon="27.93256">
        <ele>145</ele>
      </trkpt>
      <trkpt lat="36.77794" lon="27.93373">
        <ele>144.9</ele>
      </trkpt>
      <trkpt lat="36.7776" lon="27.93515">
        <ele>153.2</ele>
      </trkpt>
      <trkpt lat="36.77747" lon="27.93601">
        <ele>151.9</ele>
      </trkpt>
      <trkpt lat="36.77761" lon="27.9371">
        <ele>160.1</ele>
      </trkpt>
      <trkpt lat="36.77796" lon="27.93812">
        <ele>169.6</ele>
      </trkpt>
      <trkpt lat="36.77792" lon="27.93917">
        <ele>174.4</ele>
      </trkpt>
      <trkpt lat="36.7775" lon="27.94095">
        <ele>180.2</ele>
      </trkpt>
      <trkpt lat="36.7774" lon="27.94179">
        <ele>178.8</ele>
      </trkpt>
      <trkpt lat="36.77779" lon="27.94236">
        <ele>179</ele>
      </trkpt>
      <trkpt lat="36.77843" lon="27.94278">
        <ele>183</ele>
      </trkpt>
      <trkpt lat="36.77887" lon="27.94323">
        <ele>183.4</ele>
      </trkpt>
      <trkpt lat="36.77902" lon="27.94404">
        <ele>191.4</ele>
      </trkpt>
      <trkpt lat="36.77889" lon="27.94541">
        <ele>203.3</ele>
      </trkpt>
      <trkpt lat="36.77914" lon="27.94659">
        <ele>201.7</ele>
      </trkpt>
      <trkpt lat="36.78038" lon="27.94862">
        <ele>214.4</ele>
      </trkpt>
      <trkpt lat="36.78086" lon="27.95004">
        <ele>225.5</ele>
      </trkpt>
      <trkpt lat="36.78101" lon="27.9516">
        <ele>228</ele>
      </trkpt>
      <trkpt lat="36.78048" lon="27.95228">
        <ele>237.6</ele>
      </trkpt>
      <trkpt lat="36.77891" lon="27.95341">
        <ele>262.5</ele>
      </trkpt>
      <trkpt lat="36.77837" lon="27.954">
        <ele>266.4</ele>
      </trkpt>
      <trkpt lat="36.77761" lon="27.95482">
        <ele>284.9</ele>
      </trkpt>
      <trkpt lat="36.77761" lon="27.95554">
        <ele>281.7</ele>
      </trkpt>
      <trkpt lat="36.77796" lon="27.95576">
        <ele>275.5</ele>
      </trkpt>
      <trkpt lat="36.77865" lon="27.9558">
        <ele>264.4</ele>
      </trkpt>
      <trkpt lat="36.77913" lon="27.95638">
        <ele>279.7</ele>
      </trkpt>
      <trkpt lat="36.77975" lon="27.95667">
        <ele>279</ele>
      </trkpt>
      <trkpt lat="36.78027" lon="27.95714">
        <ele>272.3</ele>
      </trkpt>
      <trkpt lat="36.78023" lon="27.95806">
        <ele>284.6</ele>
      </trkpt>
      <trkpt lat="36.77998" lon="27.95914">
        <ele>299.7</ele>
      </trkpt>
      <trkpt lat="36.78007" lon="27.9598">
        <ele>303.7</ele>
      </trkpt>
      <trkpt lat="36.78052" lon="27.96063">
        <ele>298.6</ele>
      </trkpt>
      <trkpt lat="36.78053" lon="27.96118">
        <ele>299.8</ele>
      </trkpt>
      <trkpt lat="36.78017" lon="27.96169">
        <ele>311</ele>
      </trkpt>
      <trkpt lat="36.78" lon="27.96201">
        <ele>314.3</ele>
      </trkpt>
      <trkpt lat="36.78015" lon="27.96306">
        <ele>294</ele>
      </trkpt>
      <trkpt lat="36.78011" lon="27.96336">
        <ele>294</ele>
      </trkpt>
      <trkpt lat="36.77971" lon="27.96373">
        <ele>297.5</ele>
      </trkpt>
      <trkpt lat="36.77917" lon="27.96409">
        <ele>300.8</ele>
      </trkpt>
      <trkpt lat="36.77888" lon="27.96478">
        <ele>302.1</ele>
      </trkpt>
      <trkpt lat="36.77911" lon="27.96556">
        <ele>291.7</ele>
      </trkpt>
      <trkpt lat="36.77948" lon="27.9661">
        <ele>278.6</ele>
      </trkpt>
      <trkpt lat="36.77943" lon="27.96695">
        <ele>285.3</ele>
      </trkpt>
      <trkpt lat="36.77926" lon="27.96811">
        <ele>286.5</ele>
      </trkpt>
      <trkpt lat="36.77918" lon="27.96888">
        <ele>283.1</ele>
      </trkpt>
      <trkpt lat="36.77882" lon="27.96933">
        <ele>284.9</ele>
      </trkpt>
      <trkpt lat="36.77823" lon="27.9698">
        <ele>283.1</ele>
      </trkpt>
      <trkpt lat="36.77779" lon="27.97">
        <ele>286.5</ele>
      </trkpt>
      <trkpt lat="36.77763" lon="27.97062">
        <ele>287</ele>
      </trkpt>
      <trkpt lat="36.77756" lon="27.97177">
        <ele>294.4</ele>
      </trkpt>
      <trkpt lat="36.77793" lon="27.97247">
        <ele>291.8</ele>
      </trkpt>
      <trkpt lat="36.77806" lon="27.97337">
        <ele>294.3</ele>
      </trkpt>
      <trkpt lat="36.77794" lon="27.97389">
        <ele>293</ele>
      </trkpt>
      <trkpt lat="36.77759" lon="27.9743">
        <ele>299.2</ele>
      </trkpt>
      <trkpt lat="36.77704" lon="27.97463">
        <ele>305.8</ele>
      </trkpt>
      <trkpt lat="36.77664" lon="27.97512">
        <ele>305.4</ele>
      </trkpt>
      <trkpt lat="36.77569" lon="27.97633">
        <ele>312.6</ele>
      </trkpt>
      <trkpt lat="36.77531" lon="27.97715">
        <ele>324.5</ele>
      </trkpt>
      <trkpt lat="36.77474" lon="27.97939">
        <ele>325.5</ele>
      </trkpt>
      <trkpt lat="36.77474" lon="27.98027">
        <ele>323.6</ele>
      </trkpt>
      <trkpt lat="36.77501" lon="27.98225">
        <ele>329.2</ele>
      </trkpt>
      <trkpt lat="36.77533" lon="27.98317">
        <ele>321</ele>
      </trkpt>
      <trkpt lat="36.77537" lon="27.98381">
        <ele>321.5</ele>
      </trkpt>
      <trkpt lat="36.77466" lon="27.98632">
        <ele>342.5</ele>
      </trkpt>
      <trkpt lat="36.77506" lon="27.98733">
        <ele>351.7</ele>
      </trkpt>
      <trkpt lat="36.7755" lon="27.98809">
        <ele>347.8</ele>
      </trkpt>
      <trkpt lat="36.77525" lon="27.98909">
        <ele>346.2</ele>
      </trkpt>
      <trkpt lat="36.77494" lon="27.98987">
        <ele>348.8</ele>
      </trkpt>
      <trkpt lat="36.77492" lon="27.99124">
        <ele>337</ele>
      </trkpt>
      <trkpt lat="36.7752" lon="27.99207">
        <ele>317.3</ele>
      </trkpt>
      <trkpt lat="36.77519" lon="27.99257">
        <ele>314.7</ele>
      </trkpt>
      <trkpt lat="36.77498" lon="27.99335">
        <ele>307</ele>
      </trkpt>
      <trkpt lat="36.77457" lon="27.99365">
        <ele>314.8</ele>
      </trkpt>
      <trkpt lat="36.77451" lon="27.99417">
        <ele>307.2</ele>
      </trkpt>
      <trkpt lat="36.77471" lon="27.99531">
        <ele>285.5</ele>
      </trkpt>
      <trkpt lat="36.77462" lon="27.99567">
        <ele>285</ele>
      </trkpt>
      <trkpt lat="36.77445" lon="27.99601">
        <ele>289.3</ele>
      </trkpt>
      <trkpt lat="36.77451" lon="27.99665">
        <ele>284.2</ele>
      </trkpt>
      <trkpt lat="36.77478" lon="27.9972">
        <ele>274.2</ele>
      </trkpt>
      <trkpt lat="36.77498" lon="27.99799">
        <ele>266.5</ele>
      </trkpt>
      <trkpt lat="36.77559" lon="27.99826">
        <ele>254.4</ele>
      </trkpt>
      <trkpt lat="36.7762" lon="27.99865">
        <ele>246.9</ele>
      </trkpt>
      <trkpt lat="36.7766" lon="27.99915">
        <ele>245.3</ele>
      </trkpt>
      <trkpt lat="36.77696" lon="27.99924">
        <ele>237.7</ele>
      </trkpt>
      <trkpt lat="36.77855" lon="27.99883">
        <ele>207</ele>
      </trkpt>
      <trkpt lat="36.7789" lon="27.999">
        <ele>204.1</ele>
      </trkpt>
      <trkpt lat="36.77951" lon="27.99958">
        <ele>191.6</ele>
      </trkpt>
      <trkpt lat="36.7804" lon="27.9997">
        <ele>186</ele>
      </trkpt>
      <trkpt lat="36.78096" lon="28.00036">
        <ele>181.8</ele>
      </trkpt>
      <trkpt lat="36.78113" lon="28.00111">
        <ele>174.1</ele>
      </trkpt>
      <trkpt lat="36.78101" lon="28.00182">
        <ele>163.8</ele>
      </trkpt>
      <trkpt lat="36.78095" lon="28.00205">
        <ele>161.3</ele>
      </trkpt>
      <trkpt lat="36.78098" lon="28.00259">
        <ele>158.3</ele>
      </trkpt>
      <trkpt lat="36.78121" lon="28.00296">
        <ele>155.6</ele>
      </trkpt>
      <trkpt lat="36.78187" lon="28.00357">
        <ele>150.4</ele>
      </trkpt>
      <trkpt lat="36.78228" lon="28.00412">
        <ele>146.9</ele>
      </trkpt>
      <trkpt lat="36.78239" lon="28.00445">
        <ele>144.4</ele>
      </trkpt>
      <trkpt lat="36.7824" lon="28.00526">
        <ele>131.8</ele>
      </trkpt>
      <trkpt lat="36.78213" lon="28.0058">
        <ele>118.1</ele>
      </trkpt>
      <trkpt lat="36.78187" lon="28.00615">
        <ele>111.7</ele>
      </trkpt>
      <trkpt lat="36.7818" lon="28.00653">
        <ele>110</ele>
      </trkpt>
      <trkpt lat="36.78191" lon="28.00724">
        <ele>103.3</ele>
      </trkpt>
      <trkpt lat="36.78215" lon="28.00831">
        <ele>93.6</ele>
      </trkpt>
      <trkpt lat="36.78278" lon="28.00898">
        <ele>87.5</ele>
      </trkpt>
      <trkpt lat="36.78294" lon="28.00935">
        <ele>85.9</ele>
      </trkpt>
      <trkpt lat="36.78298" lon="28.0097">
        <ele>84.2</ele>
      </trkpt>
      <trkpt lat="36.7829" lon="28.01029">
        <ele>79</ele>
      </trkpt>
      <trkpt lat="36.78277" lon="28.01067">
        <ele>75.3</ele>
      </trkpt>
      <trkpt lat="36.78283" lon="28.01171">
        <ele>71.1</ele>
      </trkpt>
      <trkpt lat="36.7826" lon="28.01227">
        <ele>71.1</ele>
      </trkpt>
      <trkpt lat="36.78187" lon="28.01328">
        <ele>63.2</ele>
      </trkpt>
      <trkpt lat="36.78123" lon="28.01412">
        <ele>66.8</ele>
      </trkpt>
      <trkpt lat="36.78084" lon="28.01514">
        <ele>71.6</ele>
      </trkpt>
      <trkpt lat="36.78072" lon="28.01605">
        <ele>68.8</ele>
      </trkpt>
      <trkpt lat="36.78079" lon="28.01789">
        <ele>80.6</ele>
      </trkpt>
      <trkpt lat="36.78076" lon="28.0185">
        <ele>83.6</ele>
      </trkpt>
      <trkpt lat="36.78056" lon="28.01917">
        <ele>84.3</ele>
      </trkpt>
      <trkpt lat="36.78059" lon="28.01969">
        <ele>87.3</ele>
      </trkpt>
      <trkpt lat="36.7813" lon="28.02128">
        <ele>99</ele>
      </trkpt>
      <trkpt lat="36.78136" lon="28.02179">
        <ele>103.1</ele>
      </trkpt>
      <trkpt lat="36.78116" lon="28.02319">
        <ele>107.3</ele>
      </trkpt>
      <trkpt lat="36.78094" lon="28.02461">
        <ele>112.8</ele>
      </trkpt>
      <trkpt lat="36.78098" lon="28.02536">
        <ele>108.4</ele>
      </trkpt>
      <trkpt lat="36.78121" lon="28.02592">
        <ele>105.1</ele>
      </trkpt>
      <trkpt lat="36.78181" lon="28.02656">
        <ele>96.6</ele>
      </trkpt>
      <trkpt lat="36.78216" lon="28.02713">
        <ele>91.8</ele>
      </trkpt>
      <trkpt lat="36.78241" lon="28.0281">
        <ele>86.8</ele>
      </trkpt>
      <trkpt lat="36.78267" lon="28.02877">
        <ele>76.3</ele>
      </trkpt>
      <trkpt lat="36.7827" lon="28.02915">
        <ele>67.6</ele>
      </trkpt>
      <trkpt lat="36.78267" lon="28.02975">
        <ele>62.8</ele>
      </trkpt>
      <trkpt lat="36.78282" lon="28.03039">
        <ele>56</ele>
      </trkpt>
      <trkpt lat="36.78367" lon="28.03141">
        <ele>49.1</ele>
      </trkpt>
      <trkpt lat="36.78386" lon="28.0322">
        <ele>48.7</ele>
      </trkpt>
      <trkpt lat="36.78406" lon="28.03279">
        <ele>45.4</ele>
      </trkpt>
      <trkpt lat="36.78444" lon="28.03321">
        <ele>39.4</ele>
      </trkpt>
      <trkpt lat="36.78471" lon="28.03343">
        <ele>38.1</ele>
      </trkpt>
      <trkpt lat="36.78536" lon="28.03457">
        <ele>38.4</ele>
      </trkpt>
      <trkpt lat="36.78589" lon="28.03562">
        <ele>35.8</ele>
      </trkpt>
      <trkpt lat="36.7863" lon="28.03622">
        <ele>32.7</ele>
      </trkpt>
      <trkpt lat="36.78696" lon="28.03686">
        <ele>35.7</ele>
      </trkpt>
      <trkpt lat="36.78757" lon="28.03748">
        <ele>37.3</ele>
      </trkpt>
      <trkpt lat="36.78794" lon="28.038">
        <ele>37.4</ele>
      </trkpt>
      <trkpt lat="36.7881" lon="28.03839">
        <ele>40</ele>
      </trkpt>
      <trkpt lat="36.78842" lon="28.03916">
        <ele>43.6</ele>
      </trkpt>
      <trkpt lat="36.78853" lon="28.03985">
        <ele>47.8</ele>
      </trkpt>
      <trkpt lat="36.78854" lon="28.04075">
        <ele>58.4</ele>
      </trkpt>
      <trkpt lat="36.78854" lon="28.04179">
        <ele>57.4</ele>
      </trkpt>
      <trkpt lat="36.7885" lon="28.04325">
        <ele>49.3</ele>
      </trkpt>
      <trkpt lat="36.78851" lon="28.0442">
        <ele>45.1</ele>
      </trkpt>
      <trkpt lat="36.78855" lon="28.04499">
        <ele>45.7</ele>
      </trkpt>
      <trkpt lat="36.78854" lon="28.04539">
        <ele>43.3</ele>
      </trkpt>
      <trkpt lat="36.78882" lon="28.04637">
        <ele>36.6</ele>
      </trkpt>
      <trkpt lat="36.78938" lon="28.04778">
        <ele>29.5</ele>
      </trkpt>
      <trkpt lat="36.7898" lon="28.04861">
        <ele>26.1</ele>
      </trkpt>
      <trkpt lat="36.79021" lon="28.04967">
        <ele>20.6</ele>
      </trkpt>
      <trkpt lat="36.79079" lon="28.05081">
        <ele>15.9</ele>
      </trkpt>
      <trkpt lat="36.79099" lon="28.05156">
        <ele>18.3</ele>
      </trkpt>
      <trkpt lat="36.79125" lon="28.05226">
        <ele>18.4</ele>
      </trkpt>
      <trkpt lat="36.79134" lon="28.05395">
        <ele>13.8</ele>
      </trkpt>
      <trkpt lat="36.79153" lon="28.05701">
        <ele>17.5</ele>
      </trkpt>
      <trkpt lat="36.79167" lon="28.05773">
        <ele>17.6</ele>
      </trkpt>
      <trkpt lat="36.79216" lon="28.05859">
        <ele>21.7</ele>
      </trkpt>
      <trkpt lat="36.79341" lon="28.06027">
        <ele>28.2</ele>
      </trkpt>
      <trkpt lat="36.79383" lon="28.06129">
        <ele>32.3</ele>
      </trkpt>
      <trkpt lat="36.79406" lon="28.06216">
        <ele>35.7</ele>
      </trkpt>
      <trkpt lat="36.79419" lon="28.06334">
        <ele>35.1</ele>
      </trkpt>
      <trkpt lat="36.79425" lon="28.06334">
        <ele>35.3</ele>
      </trkpt>
      <trkpt lat="36.79462" lon="28.06347">
        <ele>36.9</ele>
      </trkpt>
      <trkpt lat="36.79477" lon="28.06365">
        <ele>37.6</ele>
      </trkpt>
      <trkpt lat="36.79497" lon="28.06394">
        <ele>38</ele>
      </trkpt>
      <trkpt lat="36.79522" lon="28.06422">
        <ele>38.3</ele>
      </trkpt>
      <trkpt lat="36.79538" lon="28.06436">
        <ele>38.5</ele>
      </trkpt>
      <trkpt lat="36.79546" lon="28.06461">
        <ele>38.6</ele>
      </trkpt>
      <trkpt lat="36.79554" lon="28.06492">
        <ele>38.7</ele>
      </trkpt>
      <trkpt lat="36.79574" lon="28.06522">
        <ele>39.9</ele>
      </trkpt>
      <trkpt lat="36.79609" lon="28.06558">
        <ele>42.9</ele>
      </trkpt>
      <trkpt lat="36.79631" lon="28.0659">
        <ele>44.4</ele>
      </trkpt>
      <trkpt lat="36.7966" lon="28.0663">
        <ele>45.6</ele>
      </trkpt>
      <trkpt lat="36.79682" lon="28.06658">
        <ele>46</ele>
      </trkpt>
      <trkpt lat="36.79701" lon="28.06673">
        <ele>46.2</ele>
      </trkpt>
      <trkpt lat="36.79712" lon="28.06679">
        <ele>46.4</ele>
      </trkpt>
      <trkpt lat="36.79726" lon="28.0668">
        <ele>46.4</ele>
      </trkpt>
      <trkpt lat="36.7975" lon="28.06672">
        <ele>46.1</ele>
      </trkpt>
      <trkpt lat="36.79762" lon="28.06664">
        <ele>46.5</ele>
      </trkpt>
      <trkpt lat="36.79781" lon="28.06651">
        <ele>47.3</ele>
      </trkpt>
      <trkpt lat="36.79792" lon="28.06649">
        <ele>47.6</ele>
      </trkpt>
      <trkpt lat="36.79813" lon="28.06668">
        <ele>48.3</ele>
      </trkpt>
      <trkpt lat="36.79831" lon="28.06688">
        <ele>50.2</ele>
      </trkpt>
      <trkpt lat="36.79899" lon="28.06726">
        <ele>52.7</ele>
      </trkpt>
      <trkpt lat="36.79908" lon="28.06734">
        <ele>52.8</ele>
      </trkpt>
      <trkpt lat="36.79954" lon="28.06805">
        <ele>55.4</ele>
      </trkpt>
      <trkpt lat="36.79969" lon="28.06844">
        <ele>56.5</ele>
      </trkpt>
      <trkpt lat="36.79974" lon="28.06897">
        <ele>59.9</ele>
      </trkpt>
      <trkpt lat="36.79978" lon="28.06915">
        <ele>60.9</ele>
      </trkpt>
      <trkpt lat="36.79995" lon="28.06938">
        <ele>62.7</ele>
      </trkpt>
      <trkpt lat="36.80011" lon="28.06964">
        <ele>65.2</ele>
      </trkpt>
      <trkpt lat="36.80013" lon="28.06991">
        <ele>68.3</ele>
      </trkpt>
      <trkpt lat="36.80021" lon="28.06996">
        <ele>68.6</ele>
      </trkpt>
      <trkpt lat="36.80028" lon="28.06993">
        <ele>67.9</ele>
      </trkpt>
      <trkpt lat="36.80044" lon="28.06974">
        <ele>65.3</ele>
      </trkpt>
      <trkpt lat="36.80054" lon="28.06975">
        <ele>65</ele>
      </trkpt>
      <trkpt lat="36.80061" lon="28.06988">
        <ele>65.9</ele>
      </trkpt>
      <trkpt lat="36.80059" lon="28.07015">
        <ele>68.5</ele>
      </trkpt>
      <trkpt lat="36.80069" lon="28.07035">
        <ele>69.7</ele>
      </trkpt>
      <trkpt lat="36.80069" lon="28.07056">
        <ele>71.5</ele>
      </trkpt>
      <trkpt lat="36.80064" lon="28.0708">
        <ele>73.9</ele>
      </trkpt>
      <trkpt lat="36.8008" lon="28.07107">
        <ele>75.2</ele>
      </trkpt>
      <trkpt lat="36.80093" lon="28.07126">
        <ele>76.6</ele>
      </trkpt>
      <trkpt lat="36.80103" lon="28.07127">
        <ele>76.7</ele>
      </trkpt>
      <trkpt lat="36.80114" lon="28.07122">
        <ele>76.3</ele>
      </trkpt>
      <trkpt lat="36.80122" lon="28.07114">
        <ele>75.7</ele>
      </trkpt>
      <trkpt lat="36.80145" lon="28.07119">
        <ele>76.1</ele>
      </trkpt>
      <trkpt lat="36.80164" lon="28.07138">
        <ele>77.3</ele>
      </trkpt>
      <trkpt lat="36.80177" lon="28.07141">
        <ele>78.8</ele>
      </trkpt>
      <trkpt lat="36.80198" lon="28.07168">
        <ele>82.5</ele>
      </trkpt>
      <trkpt lat="36.80221" lon="28.072">
        <ele>85.7</ele>
      </trkpt>
      <trkpt lat="36.80265" lon="28.07228">
        <ele>87.9</ele>
      </trkpt>
      <trkpt lat="36.80277" lon="28.07253">
        <ele>88.3</ele>
      </trkpt>
      <trkpt lat="36.80283" lon="28.07277">
        <ele>91.9</ele>
      </trkpt>
      <trkpt lat="36.80301" lon="28.07299">
        <ele>95</ele>
      </trkpt>
      <trkpt lat="36.80311" lon="28.07311">
        <ele>96.3</ele>
      </trkpt>
      <trkpt lat="36.8032" lon="28.07313">
        <ele>96.5</ele>
      </trkpt>
      <trkpt lat="36.8033" lon="28.07306">
        <ele>96</ele>
      </trkpt>
      <trkpt lat="36.80336" lon="28.07265">
        <ele>93.4</ele>
      </trkpt>
      <trkpt lat="36.80342" lon="28.07251">
        <ele>93.3</ele>
      </trkpt>
      <trkpt lat="36.80356" lon="28.07246">
        <ele>95.3</ele>
      </trkpt>
      <trkpt lat="36.80394" lon="28.07257">
        <ele>100.6</ele>
      </trkpt>
      <trkpt lat="36.80404" lon="28.07254">
        <ele>101.7</ele>
      </trkpt>
      <trkpt lat="36.80405" lon="28.07239">
        <ele>102</ele>
      </trkpt>
      <trkpt lat="36.80421" lon="28.07189">
        <ele>106.1</ele>
      </trkpt>
      <trkpt lat="36.80433" lon="28.07177">
        <ele>107</ele>
      </trkpt>
      <trkpt lat="36.8045" lon="28.07162">
        <ele>107.7</ele>
      </trkpt>
      <trkpt lat="36.80464" lon="28.07143">
        <ele>109</ele>
      </trkpt>
      <trkpt lat="36.80492" lon="28.07122">
        <ele>111</ele>
      </trkpt>
      <trkpt lat="36.80545" lon="28.07128">
        <ele>118.6</ele>
      </trkpt>
      <trkpt lat="36.80569" lon="28.07126">
        <ele>122.8</ele>
      </trkpt>
      <trkpt lat="36.80578" lon="28.07132">
        <ele>123.9</ele>
      </trkpt>
      <trkpt lat="36.80582" lon="28.07145">
        <ele>123.6</ele>
      </trkpt>
      <trkpt lat="36.80569" lon="28.07171">
        <ele>119.7</ele>
      </trkpt>
      <trkpt lat="36.8057" lon="28.07179">
        <ele>120.2</ele>
      </trkpt>
      <trkpt lat="36.80582" lon="28.07203">
        <ele>122.7</ele>
      </trkpt>
      <trkpt lat="36.80658" lon="28.07195">
        <ele>131.9</ele>
      </trkpt>
      <trkpt lat="36.80671" lon="28.07184">
        <ele>133.7</ele>
      </trkpt>
      <trkpt lat="36.80682" lon="28.07178">
        <ele>134.8</ele>
      </trkpt>
      <trkpt lat="36.80688" lon="28.07182">
        <ele>135.2</ele>
      </trkpt>
      <trkpt lat="36.80692" lon="28.07193">
        <ele>135.5</ele>
      </trkpt>
      <trkpt lat="36.80686" lon="28.07233">
        <ele>134.1</ele>
      </trkpt>
      <trkpt lat="36.80687" lon="28.07287">
        <ele>141.7</ele>
      </trkpt>
      <trkpt lat="36.80682" lon="28.07294">
        <ele>142.5</ele>
      </trkpt>
      <trkpt lat="36.80674" lon="28.0729">
        <ele>140.9</ele>
      </trkpt>
      <trkpt lat="36.80666" lon="28.07284">
        <ele>138.8</ele>
      </trkpt>
      <trkpt lat="36.80658" lon="28.07288">
        <ele>139</ele>
      </trkpt>
      <trkpt lat="36.80653" lon="28.07297">
        <ele>140.7</ele>
      </trkpt>
      <trkpt lat="36.80646" lon="28.07318">
        <ele>145.1</ele>
      </trkpt>
      <trkpt lat="36.8064" lon="28.07337">
        <ele>149.5</ele>
      </trkpt>
      <trkpt lat="36.8063" lon="28.0735">
        <ele>152.3</ele>
      </trkpt>
      <trkpt lat="36.80622" lon="28.07353">
        <ele>152.6</ele>
      </trkpt>
      <trkpt lat="36.80618" lon="28.0735">
        <ele>151.5</ele>
      </trkpt>
      <trkpt lat="36.80597" lon="28.07321">
        <ele>142.7</ele>
      </trkpt>
      <trkpt lat="36.8059" lon="28.07318">
        <ele>141.6</ele>
      </trkpt>
      <trkpt lat="36.80575" lon="28.07321">
        <ele>140.3</ele>
      </trkpt>
      <trkpt lat="36.80561" lon="28.07333">
        <ele>140.5</ele>
      </trkpt>
      <trkpt lat="36.80547" lon="28.07347">
        <ele>141.2</ele>
      </trkpt>
      <trkpt lat="36.80541" lon="28.07368">
        <ele>144.8</ele>
      </trkpt>
      <trkpt lat="36.80532" lon="28.07411">
        <ele>152.4</ele>
      </trkpt>
      <trkpt lat="36.80538" lon="28.0744">
        <ele>157.6</ele>
      </trkpt>
      <trkpt lat="36.80544" lon="28.07461">
        <ele>161</ele>
      </trkpt>
      <trkpt lat="36.80548" lon="28.07472">
        <ele>162.8</ele>
      </trkpt>
      <trkpt lat="36.80552" lon="28.07494">
        <ele>165.5</ele>
      </trkpt>
      <trkpt lat="36.80571" lon="28.07515">
        <ele>169.2</ele>
      </trkpt>
      <trkpt lat="36.80587" lon="28.07525">
        <ele>170.9</ele>
      </trkpt>
      <trkpt lat="36.80603" lon="28.07565">
        <ele>172.4</ele>
      </trkpt>
      <trkpt lat="36.80607" lon="28.0758">
        <ele>172.8</ele>
      </trkpt>
      <trkpt lat="36.80622" lon="28.07592">
        <ele>175.4</ele>
      </trkpt>
      <trkpt lat="36.80623" lon="28.076">
        <ele>175.7</ele>
      </trkpt>
      <trkpt lat="36.80605" lon="28.076">
        <ele>173.2</ele>
      </trkpt>
      <trkpt lat="36.80572" lon="28.07603">
        <ele>170.1</ele>
      </trkpt>
      <trkpt lat="36.80564" lon="28.07616">
        <ele>170.3</ele>
      </trkpt>
      <trkpt lat="36.80588" lon="28.07653">
        <ele>173.7</ele>
      </trkpt>
      <trkpt lat="36.80599" lon="28.0767">
        <ele>175.7</ele>
      </trkpt>
      <trkpt lat="36.80621" lon="28.0771">
        <ele>177.4</ele>
      </trkpt>
      <trkpt lat="36.80645" lon="28.07726">
        <ele>178.7</ele>
      </trkpt>
      <trkpt lat="36.80658" lon="28.07734">
        <ele>179.2</ele>
      </trkpt>
      <trkpt lat="36.80703" lon="28.07755">
        <ele>182.1</ele>
      </trkpt>
      <trkpt lat="36.80755" lon="28.07762">
        <ele>187.1</ele>
      </trkpt>
      <trkpt lat="36.80771" lon="28.07777">
        <ele>188.7</ele>
      </trkpt>
      <trkpt lat="36.80792" lon="28.0779">
        <ele>190.8</ele>
      </trkpt>
      <trkpt lat="36.80813" lon="28.07779">
        <ele>195.1</ele>
      </trkpt>
      <trkpt lat="36.80825" lon="28.07778">
        <ele>197</ele>
      </trkpt>
      <trkpt lat="36.80832" lon="28.07798">
        <ele>195.5</ele>
      </trkpt>
      <trkpt lat="36.80845" lon="28.07808">
        <ele>195.4</ele>
      </trkpt>
      <trkpt lat="36.80868" lon="28.07817">
        <ele>196.7</ele>
      </trkpt>
      <trkpt lat="36.80875" lon="28.07827">
        <ele>196.9</ele>
      </trkpt>
      <trkpt lat="36.80872" lon="28.0785">
        <ele>194.7</ele>
      </trkpt>
      <trkpt lat="36.80874" lon="28.07871">
        <ele>193.2</ele>
      </trkpt>
      <trkpt lat="36.8088" lon="28.07875">
        <ele>193.6</ele>
      </trkpt>
      <trkpt lat="36.80901" lon="28.07873">
        <ele>196.9</ele>
      </trkpt>
      <trkpt lat="36.8093" lon="28.07891">
        <ele>198.2</ele>
      </trkpt>
      <trkpt lat="36.80943" lon="28.0791">
        <ele>198.5</ele>
      </trkpt>
      <trkpt lat="36.80955" lon="28.07953">
        <ele>202.6</ele>
      </trkpt>
      <trkpt lat="36.80945" lon="28.07971">
        <ele>202.1</ele>
      </trkpt>
      <trkpt lat="36.80942" lon="28.07994">
        <ele>203.1</ele>
      </trkpt>
      <trkpt lat="36.8096" lon="28.0805">
        <ele>209.4</ele>
      </trkpt>
      <trkpt lat="36.80961" lon="28.08068">
        <ele>210.5</ele>
      </trkpt>
      <trkpt lat="36.80972" lon="28.08092">
        <ele>213.8</ele>
      </trkpt>
      <trkpt lat="36.80971" lon="28.08142">
        <ele>214</ele>
      </trkpt>
      <trkpt lat="36.8098" lon="28.08166">
        <ele>214.8</ele>
      </trkpt>
      <trkpt lat="36.80993" lon="28.08185">
        <ele>213.8</ele>
      </trkpt>
      <trkpt lat="36.81021" lon="28.08204">
        <ele>214.3</ele>
      </trkpt>
      <trkpt lat="36.81045" lon="28.08204">
        <ele>217.1</ele>
      </trkpt>
      <trkpt lat="36.81052" lon="28.08218">
        <ele>217.4</ele>
      </trkpt>
      <trkpt lat="36.81047" lon="28.08226">
        <ele>216.4</ele>
      </trkpt>
      <trkpt lat="36.81028" lon="28.08233">
        <ele>213.2</ele>
      </trkpt>
      <trkpt lat="36.80993" lon="28.08236">
        <ele>208.7</ele>
      </trkpt>
      <trkpt lat="36.80976" lon="28.08228">
        <ele>209.6</ele>
      </trkpt>
      <trkpt lat="36.80967" lon="28.08235">
        <ele>209.2</ele>
      </trkpt>
      <trkpt lat="36.8098" lon="28.08266">
        <ele>207.5</ele>
      </trkpt>
      <trkpt lat="36.80982" lon="28.08295">
        <ele>206.9</ele>
      </trkpt>
      <trkpt lat="36.80992" lon="28.08316">
        <ele>206</ele>
      </trkpt>
      <trkpt lat="36.80992" lon="28.0833">
        <ele>205.6</ele>
      </trkpt>
      <trkpt lat="36.80986" lon="28.08367">
        <ele>204.9</ele>
      </trkpt>
      <trkpt lat="36.80968" lon="28.0842">
        <ele>202.2</ele>
      </trkpt>
      <trkpt lat="36.80963" lon="28.08438">
        <ele>200.5</ele>
      </trkpt>
      <trkpt lat="36.8096" lon="28.08446">
        <ele>199.8</ele>
      </trkpt>
      <trkpt lat="36.80966" lon="28.08465">
        <ele>198.6</ele>
      </trkpt>
      <trkpt lat="36.80983" lon="28.08477">
        <ele>198.7</ele>
      </trkpt>
      <trkpt lat="36.81004" lon="28.08498">
        <ele>198.6</ele>
      </trkpt>
      <trkpt lat="36.81017" lon="28.08516">
        <ele>200.7</ele>
      </trkpt>
      <trkpt lat="36.81024" lon="28.08526">
        <ele>201.7</ele>
      </trkpt>
      <trkpt lat="36.81025" lon="28.08538">
        <ele>202</ele>
      </trkpt>
      <trkpt lat="36.8102" lon="28.08542">
        <ele>201.7</ele>
      </trkpt>
      <trkpt lat="36.81014" lon="28.0854">
        <ele>201.1</ele>
      </trkpt>
      <trkpt lat="36.80951" lon="28.0851">
        <ele>195.3</ele>
      </trkpt>
      <trkpt lat="36.80942" lon="28.08512">
        <ele>194.8</ele>
      </trkpt>
      <trkpt lat="36.80931" lon="28.08534">
        <ele>194.5</ele>
      </trkpt>
      <trkpt lat="36.80918" lon="28.08572">
        <ele>194</ele>
      </trkpt>
      <trkpt lat="36.80932" lon="28.08639">
        <ele>198.2</ele>
      </trkpt>
      <trkpt lat="36.80963" lon="28.08673">
        <ele>201.1</ele>
      </trkpt>
      <trkpt lat="36.80988" lon="28.08718">
        <ele>203.9</ele>
      </trkpt>
      <trkpt lat="36.81004" lon="28.08732">
        <ele>204.7</ele>
      </trkpt>
      <trkpt lat="36.8102" lon="28.0873">
        <ele>206.3</ele>
      </trkpt>
      <trkpt lat="36.81036" lon="28.08738">
        <ele>208</ele>
      </trkpt>
      <trkpt lat="36.81051" lon="28.08737">
        <ele>209.4</ele>
      </trkpt>
      <trkpt lat="36.81085" lon="28.08766">
        <ele>215.4</ele>
      </trkpt>
      <trkpt lat="36.8111" lon="28.08783">
        <ele>221.9</ele>
      </trkpt>
      <trkpt lat="36.8115" lon="28.08807">
        <ele>228.2</ele>
      </trkpt>
      <trkpt lat="36.81166" lon="28.08817">
        <ele>229.6</ele>
      </trkpt>
      <trkpt lat="36.81173" lon="28.0883">
        <ele>230</ele>
      </trkpt>
      <trkpt lat="36.81195" lon="28.08838">
        <ele>231.3</ele>
      </trkpt>
      <trkpt lat="36.81228" lon="28.08844">
        <ele>232.8</ele>
      </trkpt>
      <trkpt lat="36.8126" lon="28.0884">
        <ele>232.4</ele>
      </trkpt>
      <trkpt lat="36.81284" lon="28.0881">
        <ele>232.7</ele>
      </trkpt>
      <trkpt lat="36.81291" lon="28.08808">
        <ele>232.8</ele>
      </trkpt>
      <trkpt lat="36.81324" lon="28.08886">
        <ele>240.2</ele>
      </trkpt>
      <trkpt lat="36.81369" lon="28.0892">
        <ele>244.1</ele>
      </trkpt>
      <trkpt lat="36.81389" lon="28.08922">
        <ele>244.3</ele>
      </trkpt>
      <trkpt lat="36.81416" lon="28.08912">
        <ele>243.2</ele>
      </trkpt>
      <trkpt lat="36.81438" lon="28.08894">
        <ele>243.2</ele>
      </trkpt>
      <trkpt lat="36.81452" lon="28.08873">
        <ele>244</ele>
      </trkpt>
      <trkpt lat="36.81468" lon="28.08858">
        <ele>244.8</ele>
      </trkpt>
      <trkpt lat="36.81494" lon="28.08868">
        <ele>243.8</ele>
      </trkpt>
      <trkpt lat="36.81504" lon="28.08866">
        <ele>243.6</ele>
      </trkpt>
      <trkpt lat="36.81526" lon="28.08812">
        <ele>249</ele>
      </trkpt>
      <trkpt lat="36.8153" lon="28.08808">
        <ele>249.6</ele>
      </trkpt>
      <trkpt lat="36.81538" lon="28.08807">
        <ele>249.7</ele>
      </trkpt>
      <trkpt lat="36.81543" lon="28.08814">
        <ele>248.3</ele>
      </trkpt>
      <trkpt lat="36.81557" lon="28.08832">
        <ele>244.4</ele>
      </trkpt>
      <trkpt lat="36.81573" lon="28.08842">
        <ele>242</ele>
      </trkpt>
      <trkpt lat="36.81607" lon="28.08832">
        <ele>240.8</ele>
      </trkpt>
      <trkpt lat="36.81618" lon="28.08796">
        <ele>247.1</ele>
      </trkpt>
      <trkpt lat="36.81636" lon="28.08761">
        <ele>252.3</ele>
      </trkpt>
      <trkpt lat="36.81648" lon="28.08761">
        <ele>250.5</ele>
      </trkpt>
      <trkpt lat="36.81663" lon="28.08767">
        <ele>247.3</ele>
      </trkpt>
      <trkpt lat="36.81674" lon="28.08771">
        <ele>246.2</ele>
      </trkpt>
      <trkpt lat="36.81685" lon="28.08767">
        <ele>247.3</ele>
      </trkpt>
      <trkpt lat="36.81686" lon="28.08735">
        <ele>252.2</ele>
      </trkpt>
      <trkpt lat="36.81704" lon="28.08736">
        <ele>252.3</ele>
      </trkpt>
      <trkpt lat="36.81713" lon="28.08739">
        <ele>252.1</ele>
      </trkpt>
      <trkpt lat="36.81726" lon="28.08739">
        <ele>252.3</ele>
      </trkpt>
      <trkpt lat="36.81749" lon="28.08742">
        <ele>252.1</ele>
      </trkpt>
      <trkpt lat="36.81775" lon="28.08737">
        <ele>255.8</ele>
      </trkpt>
      <trkpt lat="36.81781" lon="28.08743">
        <ele>255.7</ele>
      </trkpt>
      <trkpt lat="36.81784" lon="28.08758">
        <ele>253.9</ele>
      </trkpt>
      <trkpt lat="36.81781" lon="28.08782">
        <ele>250.3</ele>
      </trkpt>
      <trkpt lat="36.81769" lon="28.08797">
        <ele>247.1</ele>
      </trkpt>
      <trkpt lat="36.81767" lon="28.08819">
        <ele>244.1</ele>
      </trkpt>
      <trkpt lat="36.81777" lon="28.08819">
        <ele>244.9</ele>
      </trkpt>
      <trkpt lat="36.81788" lon="28.08813">
        <ele>246.6</ele>
      </trkpt>
      <trkpt lat="36.818" lon="28.08792">
        <ele>250.6</ele>
      </trkpt>
      <trkpt lat="36.81827" lon="28.08785">
        <ele>254.5</ele>
      </trkpt>
      <trkpt lat="36.8184" lon="28.08771">
        <ele>258.5</ele>
      </trkpt>
      <trkpt lat="36.81853" lon="28.08769">
        <ele>261</ele>
      </trkpt>
      <trkpt lat="36.81864" lon="28.08771">
        <ele>262.3</ele>
      </trkpt>
      <trkpt lat="36.81867" lon="28.08783">
        <ele>260.9</ele>
      </trkpt>
      <trkpt lat="36.81867" lon="28.088">
        <ele>258</ele>
      </trkpt>
      <trkpt lat="36.81858" lon="28.08817">
        <ele>253.8</ele>
      </trkpt>
      <trkpt lat="36.81859" lon="28.0883">
        <ele>251.9</ele>
      </trkpt>
      <trkpt lat="36.8187" lon="28.0884">
        <ele>253.3</ele>
      </trkpt>
      <trkpt lat="36.81892" lon="28.08849">
        <ele>256.8</ele>
      </trkpt>
      <trkpt lat="36.81919" lon="28.0886">
        <ele>260.7</ele>
      </trkpt>
      <trkpt lat="36.81937" lon="28.08864">
        <ele>263.9</ele>
      </trkpt>
      <trkpt lat="36.81958" lon="28.08864">
        <ele>267.8</ele>
      </trkpt>
      <trkpt lat="36.81967" lon="28.08868">
        <ele>269.4</ele>
      </trkpt>
      <trkpt lat="36.81971" lon="28.08878">
        <ele>270.1</ele>
      </trkpt>
      <trkpt lat="36.81967" lon="28.08891">
        <ele>269.2</ele>
      </trkpt>
      <trkpt lat="36.81958" lon="28.08905">
        <ele>267.5</ele>
      </trkpt>
      <trkpt lat="36.81952" lon="28.08923">
        <ele>267.2</ele>
      </trkpt>
      <trkpt lat="36.81946" lon="28.08928">
        <ele>267.4</ele>
      </trkpt>
      <trkpt lat="36.81934" lon="28.08927">
        <ele>264.9</ele>
      </trkpt>
      <trkpt lat="36.81901" lon="28.08938">
        <ele>262.6</ele>
      </trkpt>
      <trkpt lat="36.81878" lon="28.08938">
        <ele>260.2</ele>
      </trkpt>
      <trkpt lat="36.81849" lon="28.08963">
        <ele>262.3</ele>
      </trkpt>
      <trkpt lat="36.81792" lon="28.08958">
        <ele>252.6</ele>
      </trkpt>
      <trkpt lat="36.81781" lon="28.0897">
        <ele>252.2</ele>
      </trkpt>
      <trkpt lat="36.81775" lon="28.08986">
        <ele>253</ele>
      </trkpt>
      <trkpt lat="36.81789" lon="28.09006">
        <ele>257.9</ele>
      </trkpt>
      <trkpt lat="36.81802" lon="28.09043">
        <ele>261.2</ele>
      </trkpt>
      <trkpt lat="36.81801" lon="28.09057">
        <ele>261.2</ele>
      </trkpt>
      <trkpt lat="36.81799" lon="28.09062">
        <ele>260.8</ele>
      </trkpt>
      <trkpt lat="36.81783" lon="28.09083">
        <ele>257.6</ele>
      </trkpt>
      <trkpt lat="36.81784" lon="28.09092">
        <ele>256.8</ele>
      </trkpt>
      <trkpt lat="36.81806" lon="28.09115">
        <ele>257.8</ele>
      </trkpt>
      <trkpt lat="36.81819" lon="28.09109">
        <ele>261.1</ele>
      </trkpt>
      <trkpt lat="36.81842" lon="28.09099">
        <ele>265.8</ele>
      </trkpt>
      <trkpt lat="36.81853" lon="28.09096">
        <ele>266.7</ele>
      </trkpt>
      <trkpt lat="36.81878" lon="28.09101">
        <ele>267.3</ele>
      </trkpt>
      <trkpt lat="36.81906" lon="28.09102">
        <ele>268.5</ele>
      </trkpt>
      <trkpt lat="36.81925" lon="28.09102">
        <ele>269.2</ele>
      </trkpt>
      <trkpt lat="36.81953" lon="28.09097">
        <ele>270</ele>
      </trkpt>
      <trkpt lat="36.81981" lon="28.09099">
        <ele>270.4</ele>
      </trkpt>
      <trkpt lat="36.81998" lon="28.09105">
        <ele>271</ele>
      </trkpt>
      <trkpt lat="36.82009" lon="28.09115">
        <ele>272.5</ele>
      </trkpt>
      <trkpt lat="36.82009" lon="28.09125">
        <ele>273.1</ele>
      </trkpt>
      <trkpt lat="36.82003" lon="28.09129">
        <ele>272.6</ele>
      </trkpt>
      <trkpt lat="36.81993" lon="28.09137">
        <ele>271.9</ele>
      </trkpt>
      <trkpt lat="36.81977" lon="28.09143">
        <ele>270.5</ele>
      </trkpt>
      <trkpt lat="36.8197" lon="28.09154">
        <ele>269.8</ele>
      </trkpt>
      <trkpt lat="36.81966" lon="28.09157">
        <ele>269.2</ele>
      </trkpt>
      <trkpt lat="36.8195" lon="28.09155">
        <ele>267.4</ele>
      </trkpt>
      <trkpt lat="36.81925" lon="28.09171">
        <ele>263.1</ele>
      </trkpt>
      <trkpt lat="36.81889" lon="28.09175">
        <ele>259</ele>
      </trkpt>
      <trkpt lat="36.81877" lon="28.09197">
        <ele>256.9</ele>
      </trkpt>
      <trkpt lat="36.81866" lon="28.09203">
        <ele>255.4</ele>
      </trkpt>
      <trkpt lat="36.81859" lon="28.09212">
        <ele>254.2</ele>
      </trkpt>
      <trkpt lat="36.81859" lon="28.09219">
        <ele>253.9</ele>
      </trkpt>
      <trkpt lat="36.81875" lon="28.09225">
        <ele>255.6</ele>
      </trkpt>
      <trkpt lat="36.81905" lon="28.0923">
        <ele>259.1</ele>
      </trkpt>
      <trkpt lat="36.81917" lon="28.09241">
        <ele>260.3</ele>
      </trkpt>
      <trkpt lat="36.81924" lon="28.09258">
        <ele>259.4</ele>
      </trkpt>
      <trkpt lat="36.81934" lon="28.09269">
        <ele>259</ele>
      </trkpt>
      <trkpt lat="36.81947" lon="28.09273">
        <ele>261.6</ele>
      </trkpt>
      <trkpt lat="36.81975" lon="28.09291">
        <ele>264.8</ele>
      </trkpt>
      <trkpt lat="36.82" lon="28.09325">
        <ele>263.1</ele>
      </trkpt>
      <trkpt lat="36.8201" lon="28.09344">
        <ele>258.8</ele>
      </trkpt>
      <trkpt lat="36.82021" lon="28.09354">
        <ele>257</ele>
      </trkpt>
      <trkpt lat="36.82031" lon="28.09357">
        <ele>257.2</ele>
      </trkpt>
      <trkpt lat="36.8206" lon="28.09357">
        <ele>260.3</ele>
      </trkpt>
      <trkpt lat="36.8209" lon="28.09364">
        <ele>262.4</ele>
      </trkpt>
      <trkpt lat="36.82097" lon="28.09374">
        <ele>261.8</ele>
      </trkpt>
      <trkpt lat="36.82091" lon="28.09402">
        <ele>255.2</ele>
      </trkpt>
      <trkpt lat="36.82095" lon="28.09416">
        <ele>253.4</ele>
      </trkpt>
      <trkpt lat="36.82129" lon="28.09457">
        <ele>259.8</ele>
      </trkpt>
      <trkpt lat="36.82189" lon="28.09524">
        <ele>269</ele>
      </trkpt>
      <trkpt lat="36.8223" lon="28.09572">
        <ele>269.9</ele>
      </trkpt>
      <trkpt lat="36.82242" lon="28.09591">
        <ele>268.8</ele>
      </trkpt>
      <trkpt lat="36.82239" lon="28.09605">
        <ele>271.5</ele>
      </trkpt>
      <trkpt lat="36.82233" lon="28.09604">
        <ele>272.1</ele>
      </trkpt>
      <trkpt lat="36.82215" lon="28.09594">
        <ele>271.4</ele>
      </trkpt>
      <trkpt lat="36.8219" lon="28.09572">
        <ele>269.7</ele>
      </trkpt>
      <trkpt lat="36.82167" lon="28.09565">
        <ele>268.8</ele>
      </trkpt>
      <trkpt lat="36.82135" lon="28.09549">
        <ele>267.9</ele>
      </trkpt>
      <trkpt lat="36.82109" lon="28.09542">
        <ele>266.6</ele>
      </trkpt>
      <trkpt lat="36.82087" lon="28.09545">
        <ele>268.2</ele>
      </trkpt>
      <trkpt lat="36.82072" lon="28.09543">
        <ele>267.2</ele>
      </trkpt>
      <trkpt lat="36.82061" lon="28.09534">
        <ele>263.4</ele>
      </trkpt>
      <trkpt lat="36.82002" lon="28.09515">
        <ele>255.8</ele>
      </trkpt>
      <trkpt lat="36.8199" lon="28.09519">
        <ele>255.4</ele>
      </trkpt>
      <trkpt lat="36.81981" lon="28.09538">
        <ele>260</ele>
      </trkpt>
      <trkpt lat="36.81971" lon="28.09623">
        <ele>275.9</ele>
      </trkpt>
      <trkpt lat="36.81977" lon="28.09664">
        <ele>281.2</ele>
      </trkpt>
      <trkpt lat="36.81986" lon="28.09689">
        <ele>282.7</ele>
      </trkpt>
      <trkpt lat="36.82011" lon="28.09712">
        <ele>286.4</ele>
      </trkpt>
      <trkpt lat="36.82046" lon="28.09762">
        <ele>295.2</ele>
      </trkpt>
      <trkpt lat="36.82061" lon="28.09789">
        <ele>299.2</ele>
      </trkpt>
      <trkpt lat="36.82056" lon="28.09793">
        <ele>298.3</ele>
      </trkpt>
      <trkpt lat="36.82" lon="28.0978">
        <ele>286.1</ele>
      </trkpt>
      <trkpt lat="36.8195" lon="28.09783">
        <ele>282.9</ele>
      </trkpt>
      <trkpt lat="36.82029" lon="28.09836">
        <ele>296.4</ele>
      </trkpt>
      <trkpt lat="36.82046" lon="28.09872">
        <ele>303.3</ele>
      </trkpt>
      <trkpt lat="36.82078" lon="28.09919">
        <ele>319.5</ele>
      </trkpt>
      <trkpt lat="36.821" lon="28.09947">
        <ele>325.1</ele>
      </trkpt>
      <trkpt lat="36.82134" lon="28.09975">
        <ele>332.3</ele>
      </trkpt>
      <trkpt lat="36.82144" lon="28.09986">
        <ele>334.8</ele>
      </trkpt>
      <trkpt lat="36.82162" lon="28.09988">
        <ele>337.9</ele>
      </trkpt>
      <trkpt lat="36.82182" lon="28.09982">
        <ele>338.6</ele>
      </trkpt>
      <trkpt lat="36.82215" lon="28.09952">
        <ele>338.7</ele>
      </trkpt>
      <trkpt lat="36.82235" lon="28.09944">
        <ele>340.3</ele>
      </trkpt>
      <trkpt lat="36.82264" lon="28.09967">
        <ele>342.1</ele>
      </trkpt>
      <trkpt lat="36.82291" lon="28.09986">
        <ele>344.3</ele>
      </trkpt>
      <trkpt lat="36.82303" lon="28.09991">
        <ele>345.6</ele>
      </trkpt>
      <trkpt lat="36.8232" lon="28.09991">
        <ele>347</ele>
      </trkpt>
      <trkpt lat="36.82339" lon="28.09979">
        <ele>346.6</ele>
      </trkpt>
      <trkpt lat="36.82361" lon="28.09989">
        <ele>346.3</ele>
      </trkpt>
      <trkpt lat="36.82373" lon="28.10017">
        <ele>347.8</ele>
      </trkpt>
      <trkpt lat="36.82405" lon="28.10054">
        <ele>352.3</ele>
      </trkpt>
      <trkpt lat="36.82441" lon="28.10072">
        <ele>357.7</ele>
      </trkpt>
      <trkpt lat="36.82526" lon="28.10067">
        <ele>362.3</ele>
      </trkpt>
      <trkpt lat="36.82592" lon="28.10098">
        <ele>373.8</ele>
      </trkpt>
      <trkpt lat="36.82619" lon="28.10113">
        <ele>376.3</ele>
      </trkpt>
      <trkpt lat="36.82667" lon="28.10107">
        <ele>383.5</ele>
      </trkpt>
      <trkpt lat="36.8273" lon="28.10089">
        <ele>394.8</ele>
      </trkpt>
      <trkpt lat="36.82783" lon="28.10038">
        <ele>402.4</ele>
      </trkpt>
      <trkpt lat="36.8282" lon="28.10011">
        <ele>408.5</ele>
      </trkpt>
      <trkpt lat="36.82848" lon="28.1003">
        <ele>410.1</ele>
      </trkpt>
      <trkpt lat="36.82884" lon="28.10086">
        <ele>412.5</ele>
      </trkpt>
      <trkpt lat="36.82944" lon="28.1012">
        <ele>405.8</ele>
      </trkpt>
      <trkpt lat="36.82955" lon="28.10157">
        <ele>403.8</ele>
      </trkpt>
      <trkpt lat="36.82958" lon="28.10224">
        <ele>407.4</ele>
      </trkpt>
      <trkpt lat="36.8294" lon="28.10309">
        <ele>422.1</ele>
      </trkpt>
      <trkpt lat="36.82952" lon="28.10318">
        <ele>423.7</ele>
      </trkpt>
      <trkpt lat="36.82966" lon="28.10331">
        <ele>426.4</ele>
      </trkpt>
      <trkpt lat="36.82981" lon="28.10353">
        <ele>427.5</ele>
      </trkpt>
      <trkpt lat="36.83002" lon="28.10396">
        <ele>429.4</ele>
      </trkpt>
      <trkpt lat="36.83023" lon="28.10412">
        <ele>424.3</ele>
      </trkpt>
      <trkpt lat="36.83069" lon="28.10429">
        <ele>410.6</ele>
      </trkpt>
      <trkpt lat="36.83124" lon="28.10439">
        <ele>394.8</ele>
      </trkpt>
      <trkpt lat="36.8317" lon="28.10466">
        <ele>386.3</ele>
      </trkpt>
      <trkpt lat="36.83213" lon="28.10516">
        <ele>390.4</ele>
      </trkpt>
      <trkpt lat="36.83218" lon="28.10551">
        <ele>390.7</ele>
      </trkpt>
      <trkpt lat="36.83195" lon="28.10616">
        <ele>386.2</ele>
      </trkpt>
      <trkpt lat="36.83165" lon="28.10654">
        <ele>383.6</ele>
      </trkpt>
      <trkpt lat="36.83158" lon="28.10676">
        <ele>380.8</ele>
      </trkpt>
      <trkpt lat="36.83165" lon="28.10691">
        <ele>379.7</ele>
      </trkpt>
      <trkpt lat="36.83188" lon="28.10693">
        <ele>379.4</ele>
      </trkpt>
      <trkpt lat="36.83225" lon="28.10673">
        <ele>383.4</ele>
      </trkpt>
      <trkpt lat="36.83241" lon="28.10674">
        <ele>383.3</ele>
      </trkpt>
      <trkpt lat="36.83269" lon="28.10722">
        <ele>371.9</ele>
      </trkpt>
      <trkpt lat="36.83291" lon="28.10725">
        <ele>370.2</ele>
      </trkpt>
      <trkpt lat="36.83321" lon="28.10708">
        <ele>370.6</ele>
      </trkpt>
      <trkpt lat="36.83343" lon="28.10704">
        <ele>368.1</ele>
      </trkpt>
      <trkpt lat="36.8338" lon="28.10726">
        <ele>361.2</ele>
      </trkpt>
      <trkpt lat="36.83407" lon="28.10782">
        <ele>356.7</ele>
      </trkpt>
      <trkpt lat="36.83396" lon="28.10816">
        <ele>355</ele>
      </trkpt>
      <trkpt lat="36.83361" lon="28.10858">
        <ele>352.7</ele>
      </trkpt>
      <trkpt lat="36.83319" lon="28.10901">
        <ele>352.1</ele>
      </trkpt>
      <trkpt lat="36.83312" lon="28.10927">
        <ele>349.9</ele>
      </trkpt>
      <trkpt lat="36.83266" lon="28.10959">
        <ele>346.4</ele>
      </trkpt>
      <trkpt lat="36.83246" lon="28.10998">
        <ele>347.1</ele>
      </trkpt>
      <trkpt lat="36.83245" lon="28.11019">
        <ele>343.6</ele>
      </trkpt>
      <trkpt lat="36.83263" lon="28.11038">
        <ele>340.9</ele>
      </trkpt>
      <trkpt lat="36.83301" lon="28.11037">
        <ele>340</ele>
      </trkpt>
      <trkpt lat="36.83319" lon="28.11026">
        <ele>340.7</ele>
      </trkpt>
      <trkpt lat="36.83327" lon="28.10986">
        <ele>344.9</ele>
      </trkpt>
      <trkpt lat="36.83342" lon="28.10969">
        <ele>344.5</ele>
      </trkpt>
      <trkpt lat="36.83401" lon="28.10954">
        <ele>332.3</ele>
      </trkpt>
      <trkpt lat="36.83422" lon="28.1092">
        <ele>333.8</ele>
      </trkpt>
      <trkpt lat="36.83429" lon="28.10883">
        <ele>339.3</ele>
      </trkpt>
      <trkpt lat="36.83449" lon="28.10877">
        <ele>335.2</ele>
      </trkpt>
      <trkpt lat="36.83478" lon="28.10882">
        <ele>325.7</ele>
      </trkpt>
      <trkpt lat="36.83483" lon="28.10866">
        <ele>327.9</ele>
      </trkpt>
      <trkpt lat="36.83484" lon="28.10848">
        <ele>332</ele>
      </trkpt>
      <trkpt lat="36.83502" lon="28.10824">
        <ele>331.2</ele>
      </trkpt>
      <trkpt lat="36.83531" lon="28.10827">
        <ele>329.5</ele>
      </trkpt>
      <trkpt lat="36.83543" lon="28.10886">
        <ele>318.9</ele>
      </trkpt>
      <trkpt lat="36.83579" lon="28.1097">
        <ele>307.1</ele>
      </trkpt>
      <trkpt lat="36.83582" lon="28.11002">
        <ele>302.5</ele>
      </trkpt>
      <trkpt lat="36.83612" lon="28.11019">
        <ele>295.9</ele>
      </trkpt>
      <trkpt lat="36.83692" lon="28.11041">
        <ele>286.7</ele>
      </trkpt>
      <trkpt lat="36.8374" lon="28.11104">
        <ele>286.3</ele>
      </trkpt>
      <trkpt lat="36.83788" lon="28.11145">
        <ele>281.8</ele>
      </trkpt>
      <trkpt lat="36.83865" lon="28.11162">
        <ele>274.9</ele>
      </trkpt>
      <trkpt lat="36.83894" lon="28.11179">
        <ele>272.5</ele>
      </trkpt>
      <trkpt lat="36.83921" lon="28.11225">
        <ele>273.4</ele>
      </trkpt>
      <trkpt lat="36.83909" lon="28.11362">
        <ele>277.4</ele>
      </trkpt>
      <trkpt lat="36.83909" lon="28.11437">
        <ele>275.9</ele>
      </trkpt>
      <trkpt lat="36.8389" lon="28.11469">
        <ele>272.3</ele>
      </trkpt>
      <trkpt lat="36.83822" lon="28.11463">
        <ele>269.9</ele>
      </trkpt>
      <trkpt lat="36.83797" lon="28.11499">
        <ele>265.5</ele>
      </trkpt>
      <trkpt lat="36.83758" lon="28.11636">
        <ele>268.2</ele>
      </trkpt>
      <trkpt lat="36.8375" lon="28.11686">
        <ele>273.9</ele>
      </trkpt>
      <trkpt lat="36.83823" lon="28.11757">
        <ele>257.9</ele>
      </trkpt>
      <trkpt lat="36.8387" lon="28.11841">
        <ele>239.4</ele>
      </trkpt>
      <trkpt lat="36.83877" lon="28.11973">
        <ele>227.5</ele>
      </trkpt>
      <trkpt lat="36.83885" lon="28.12008">
        <ele>225.9</ele>
      </trkpt>
      <trkpt lat="36.83907" lon="28.12122">
        <ele>209.2</ele>
      </trkpt>
      <trkpt lat="36.83916" lon="28.12163">
        <ele>202.5</ele>
      </trkpt>
      <trkpt lat="36.83927" lon="28.122">
        <ele>191</ele>
      </trkpt>
      <trkpt lat="36.83912" lon="28.12268">
        <ele>179.7</ele>
      </trkpt>
      <trkpt lat="36.83979" lon="28.12369">
        <ele>143.7</ele>
      </trkpt>
      <trkpt lat="36.84017" lon="28.12406">
        <ele>136.3</ele>
      </trkpt>
      <trkpt lat="36.84049" lon="28.12475">
        <ele>112.1</ele>
      </trkpt>
      <trkpt lat="36.84047" lon="28.12594">
        <ele>97.9</ele>
      </trkpt>
      <trkpt lat="36.84044" lon="28.12597">
        <ele>98.9</ele>
      </trkpt>
      <trkpt lat="36.84019" lon="28.1258">
        <ele>93.1</ele>
      </trkpt>
      <trkpt lat="36.83998" lon="28.12572">
        <ele>93.4</ele>
      </trkpt>
      <trkpt lat="36.83981" lon="28.12569">
        <ele>91.6</ele>
      </trkpt>
      <trkpt lat="36.83939" lon="28.12591">
        <ele>84</ele>
      </trkpt>
      <trkpt lat="36.83866" lon="28.12595">
        <ele>72.6</ele>
      </trkpt>
      <trkpt lat="36.83818" lon="28.12583">
        <ele>67.1</ele>
      </trkpt>
      <trkpt lat="36.83791" lon="28.12622">
        <ele>70</ele>
      </trkpt>
      <trkpt lat="36.83719" lon="28.12694">
        <ele>72.2</ele>
      </trkpt>
      <trkpt lat="36.83691" lon="28.12751">
        <ele>69.9</ele>
      </trkpt>
      <trkpt lat="36.83678" lon="28.12848">
        <ele>61.5</ele>
      </trkpt>
      <trkpt lat="36.83688" lon="28.12927">
        <ele>61.1</ele>
      </trkpt>
      <trkpt lat="36.83682" lon="28.12964">
        <ele>56.3</ele>
      </trkpt>
      <trkpt lat="36.83662" lon="28.12994">
        <ele>50.1</ele>
      </trkpt>
      <trkpt lat="36.83601" lon="28.13024">
        <ele>55.8</ele>
      </trkpt>
      <trkpt lat="36.83563" lon="28.13077">
        <ele>58.1</ele>
      </trkpt>
      <trkpt lat="36.83535" lon="28.13222">
        <ele>53.1</ele>
      </trkpt>
      <trkpt lat="36.83579" lon="28.13404">
        <ele>35.4</ele>
      </trkpt>
      <trkpt lat="36.83572" lon="28.1347">
        <ele>34.4</ele>
      </trkpt>
      <trkpt lat="36.83507" lon="28.13528">
        <ele>29.4</ele>
      </trkpt>
      <trkpt lat="36.83404" lon="28.13675">
        <ele>23</ele>
      </trkpt>
      <trkpt lat="36.83296" lon="28.13873">
        <ele>21</ele>
      </trkpt>
      <trkpt lat="36.83279" lon="28.13915">
        <ele>18.1</ele>
      </trkpt>
      <trkpt lat="36.83229" lon="28.13954">
        <ele>19.6</ele>
      </trkpt>
      <trkpt lat="36.83164" lon="28.14003">
        <ele>17.9</ele>
      </trkpt>
      <trkpt lat="36.83124" lon="28.1403">
        <ele>18.1</ele>
      </trkpt>
      <trkpt lat="36.83092" lon="28.1405">
        <ele>18.5</ele>
      </trkpt>
      <trkpt lat="36.8305" lon="28.14087">
        <ele>16.7</ele>
      </trkpt>
      <trkpt lat="36.82903" lon="28.13985">
        <ele>19.7</ele>
      </trkpt>
      <trkpt lat="36.8283" lon="28.13955">
        <ele>19.9</ele>
      </trkpt>
      <trkpt lat="36.82743" lon="28.13941">
        <ele>19.8</ele>
      </trkpt>
      <trkpt lat="36.82676" lon="28.13919">
        <ele>16.5</ele>
      </trkpt>
      <trkpt lat="36.82571" lon="28.13898">
        <ele>12.1</ele>
      </trkpt>
      <trkpt lat="36.82476" lon="28.13863">
        <ele>12.3</ele>
      </trkpt>
      <trkpt lat="36.82406" lon="28.1382">
        <ele>14.2</ele>
      </trkpt>
      <trkpt lat="36.82341" lon="28.13784">
        <ele>16.1</ele>
      </trkpt>
      <trkpt lat="36.82235" lon="28.13777">
        <ele>17.8</ele>
      </trkpt>
      <trkpt lat="36.81886" lon="28.13706">
        <ele>19.8</ele>
      </trkpt>
      <trkpt lat="36.81767" lon="28.13672">
        <ele>15.1</ele>
      </trkpt>
      <trkpt lat="36.816" lon="28.13558">
        <ele>11.8</ele>
      </trkpt>
      <trkpt lat="36.81428" lon="28.13361">
        <ele>13.2</ele>
      </trkpt>
      <trkpt lat="36.81332" lon="28.13229">
        <ele>5.8</ele>
      </trkpt>
      <trkpt lat="36.81236" lon="28.13111">
        <ele>6.2</ele>
      </trkpt>
      <trkpt lat="36.8122" lon="28.13099">
        <ele>6.1</ele>
      </trkpt>
      <trkpt lat="36.8122" lon="28.13099">
        <ele>6.1</ele>
      </trkpt>
      <trkpt lat="36.81188" lon="28.13107">
        <ele>5.6</ele>
      </trkpt>
      <trkpt lat="36.81141" lon="28.13122">
        <ele>5.8</ele>
      </trkpt>
      <trkpt lat="36.81027" lon="28.13152">
        <ele>5.8</ele>
      </trkpt>
      <trkpt lat="36.8098" lon="28.13167">
        <ele>5</ele>
      </trkpt>
      <trkpt lat="36.8092" lon="28.13182">
        <ele>6.3</ele>
      </trkpt>
      <trkpt lat="36.80828" lon="28.13202">
        <ele>10.8</ele>
      </trkpt>
      <trkpt lat="36.80757" lon="28.13197">
        <ele>15.2</ele>
      </trkpt>
      <trkpt lat="36.80701" lon="28.13189">
        <ele>15.9</ele>
      </trkpt>
      <trkpt lat="36.8062" lon="28.13161">
        <ele>14.1</ele>
      </trkpt>
      <trkpt lat="36.80574" lon="28.13142">
        <ele>14.1</ele>
      </trkpt>
      <trkpt lat="36.80538" lon="28.13114">
        <ele>12.5</ele>
      </trkpt>
      <trkpt lat="36.80469" lon="28.13073">
        <ele>13.6</ele>
      </trkpt>
      <trkpt lat="36.80424" lon="28.13043">
        <ele>14.9</ele>
      </trkpt>
      <trkpt lat="36.80396" lon="28.13028">
        <ele>12</ele>
      </trkpt>
      <trkpt lat="36.803" lon="28.13052">
        <ele>7.9</ele>
        <time>2018-05-14T16:53:36Z</time>
      </trkpt>
      <trkpt lat="36.80296" lon="28.13052">
        <ele>3.9</ele>
        <time>2018-05-13T07:12:13Z</time>
        <extensions>
          <gpxtpx:TrackPointExtension xmlns:gpxtpx="http://www.garmin.com/xmlschemas/TrackPointExtension/v1">
            <gpxtpx:hr>158</gpxtpx:hr>
          </gpxtpx:TrackPointExtension>
        </extensions>
      </trkpt>
      <trkpt lat="36.80297" lon="28.13048">
        <ele>4</ele>
        <time>2018-05-13T07:12:11Z</time>
        <extensions>
          <gpxtpx:TrackPointExtension xmlns:gpxtpx="http://www.garmin.com/xmlschemas/TrackPointExtension/v1">
            <gpxtpx:hr>158</gpxtpx:hr>
          </gpxtpx:TrackPointExtension>
        </extensions>
      </trkpt>
      <trkpt lat="36.80296" lon="28.13042">
        <ele>4</ele>
        <time>2018-05-13T07:12:09Z</time>
        <extensions>
          <gpxtpx:TrackPointExtension xmlns:gpxtpx="http://www.garmin.com/xmlschemas/TrackPointExtension/v1">
            <gpxtpx:hr>158</gpxtpx:hr>
          </gpxtpx:TrackPointExtension>
        </extensions>
      </trkpt>
      <trkpt lat="36.80293" lon="28.13037">
        <ele>3.9</ele>
        <time>2018-05-13T07:12:07Z</time>
        <extensions>
          <gpxtpx:TrackPointExtension xmlns:gpxtpx="http://www.garmin.com/xmlschemas/TrackPointExtension/v1">
            <gpxtpx:hr>158</gpxtpx:hr>
          </gpxtpx:TrackPointExtension>
        </extensions>
      </trkpt>
      <trkpt lat="36.80291" lon="28.13032">
        <ele>3.8</ele>
        <time>2018-05-13T07:12:05Z</time>
        <extensions>
          <gpxtpx:TrackPointExtension xmlns:gpxtpx="http://www.garmin.com/xmlschemas/TrackPointExtension/v1">
            <gpxtpx:hr>157</gpxtpx:hr>
          </gpxtpx:TrackPointExtension>
        </extensions>
      </trkpt>
      <trkpt lat="36.80289" lon="28.1303">
        <ele>3.7</ele>
        <time>2018-05-13T07:12:04Z</time>
        <extensions>
          <gpxtpx:TrackPointExtension xmlns:gpxtpx="http://www.garmin.com/xmlschemas/TrackPointExtension/v1">
            <gpxtpx:hr>157</gpxtpx:hr>
          </gpxtpx:TrackPointExtension>
        </extensions>
      </trkpt>
      <trkpt lat="36.80287" lon="28.13027">
        <ele>3.6</ele>
        <time>2018-05-13T07:12:03Z</time>
        <extensions>
          <gpxtpx:TrackPointExtension xmlns:gpxtpx="http://www.garmin.com/xmlschemas/TrackPointExtension/v1">
            <gpxtpx:hr>157</gpxtpx:hr>
          </gpxtpx:TrackPointExtension>
        </extensions>
      </trkpt>
      <trkpt lat="36.80286" lon="28.13024">
        <ele>3.6</ele>
        <time>2018-05-13T07:12:02Z</time>
        <extensions>
          <gpxtpx:TrackPointExtension xmlns:gpxtpx="http://www.garmin.com/xmlschemas/TrackPointExtension/v1">
            <gpxtpx:hr>157</gpxtpx:hr>
          </gpxtpx:TrackPointExtension>
        </extensions>
      </trkpt>
      <trkpt lat="36.80284" lon="28.13021">
        <ele>3.5</ele>
        <time>2018-05-13T07:12:01Z</time>
        <extensions>
          <gpxtpx:TrackPointExtension xmlns:gpxtpx="http://www.garmin.com/xmlschemas/TrackPointExtension/v1">
            <gpxtpx:hr>155</gpxtpx:hr>
          </gpxtpx:TrackPointExtension>
        </extensions>
      </trkpt>
      <trkpt lat="36.80282" lon="28.13018">
        <ele>3.5</ele>
        <time>2018-05-13T07:12:00Z</time>
        <extensions>
          <gpxtpx:TrackPointExtension xmlns:gpxtpx="http://www.garmin.com/xmlschemas/TrackPointExtension/v1">
            <gpxtpx:hr>155</gpxtpx:hr>
          </gpxtpx:TrackPointExtension>
        </extensions>
      </trkpt>
      <trkpt lat="36.8028" lon="28.13015">
        <ele>3.5</ele>
        <time>2018-05-13T07:11:59Z</time>
        <extensions>
          <gpxtpx:TrackPointExtension xmlns:gpxtpx="http://www.garmin.com/xmlschemas/TrackPointExtension/v1">
            <gpxtpx:hr>155</gpxtpx:hr>
          </gpxtpx:TrackPointExtension>
        </extensions>
      </trkpt>
      <trkpt lat="36.80279" lon="28.13012">
        <ele>3.4</ele>
        <time>2018-05-13T07:11:58Z</time>
        <extensions>
          <gpxtpx:TrackPointExtension xmlns:gpxtpx="http://www.garmin.com/xmlschemas/TrackPointExtension/v1">
            <gpxtpx:hr>153</gpxtpx:hr>
          </gpxtpx:TrackPointExtension>
        </extensions>
      </trkpt>
      <trkpt lat="36.80278" lon="28.13009">
        <ele>3.4</ele>
        <time>2018-05-13T07:11:57Z</time>
        <extensions>
          <gpxtpx:TrackPointExtension xmlns:gpxtpx="http://www.garmin.com/xmlschemas/TrackPointExtension/v1">
            <gpxtpx:hr>151</gpxtpx:hr>
          </gpxtpx:TrackPointExtension>
        </extensions>
      </trkpt>
      <trkpt lat="36.80276" lon="28.13006">
        <ele>3.4</ele>
        <time>2018-05-13T07:11:56Z</time>
        <extensions>
          <gpxtpx:TrackPointExtension xmlns:gpxtpx="http://www.garmin.com/xmlschemas/TrackPointExtension/v1">
            <gpxtpx:hr>150</gpxtpx:hr>
          </gpxtpx:TrackPointExtension>
        </extensions>
      </trkpt>
      <trkpt lat="36.80274" lon="28.13003">
        <ele>3.3</ele>
        <time>2018-05-13T07:11:55Z</time>
        <extensions>
          <gpxtpx:TrackPointExtension xmlns:gpxtpx="http://www.garmin.com/xmlschemas/TrackPointExtension/v1">
            <gpxtpx:hr>154</gpxtpx:hr>
          </gpxtpx:TrackPointExtension>
        </extensions>
      </trkpt>
      <trkpt lat="36.80271" lon="28.12998">
        <ele>3.2</ele>
        <time>2018-05-13T07:11:53Z</time>
        <extensions>
          <gpxtpx:TrackPointExtension xmlns:gpxtpx="http://www.garmin.com/xmlschemas/TrackPointExtension/v1">
            <gpxtpx:hr>154</gpxtpx:hr>
          </gpxtpx:TrackPointExtension>
        </extensions>
      </trkpt>
      <trkpt lat="36.80269" lon="28.12996">
        <ele>3.1</ele>
        <time>2018-05-13T07:11:52Z</time>
        <extensions>
          <gpxtpx:TrackPointExtension xmlns:gpxtpx="http://www.garmin.com/xmlschemas/TrackPointExtension/v1">
            <gpxtpx:hr>153</gpxtpx:hr>
          </gpxtpx:TrackPointExtension>
        </extensions>
      </trkpt>
      <trkpt lat="36.80267" lon="28.12993">
        <ele>3.1</ele>
        <time>2018-05-13T07:11:51Z</time>
        <extensions>
          <gpxtpx:TrackPointExtension xmlns:gpxtpx="http://www.garmin.com/xmlschemas/TrackPointExtension/v1">
            <gpxtpx:hr>154</gpxtpx:hr>
          </gpxtpx:TrackPointExtension>
        </extensions>
      </trkpt>
      <trkpt lat="36.80266" lon="28.1299">
        <ele>3</ele>
        <time>2018-05-13T07:11:50Z</time>
        <extensions>
          <gpxtpx:TrackPointExtension xmlns:gpxtpx="http://www.garmin.com/xmlschemas/TrackPointExtension/v1">
            <gpxtpx:hr>154</gpxtpx:hr>
          </gpxtpx:TrackPointExtension>
        </extensions>
      </trkpt>
      <trkpt lat="36.80264" lon="28.12987">
        <ele>2.9</ele>
        <time>2018-05-13T07:11:49Z</time>
        <extensions>
          <gpxtpx:TrackPointExtension xmlns:gpxtpx="http://www.garmin.com/xmlschemas/TrackPointExtension/v1">
            <gpxtpx:hr>154</gpxtpx:hr>
          </gpxtpx:TrackPointExtension>
        </extensions>
      </trkpt>
      <trkpt lat="36.80261" lon="28.12981">
        <ele>2.8</ele>
        <time>2018-05-13T07:11:47Z</time>
        <extensions>
          <gpxtpx:TrackPointExtension xmlns:gpxtpx="http://www.garmin.com/xmlschemas/TrackPointExtension/v1">
            <gpxtpx:hr>154</gpxtpx:hr>
          </gpxtpx:TrackPointExtension>
        </extensions>
      </trkpt>
      <trkpt lat="36.80258" lon="28.12975">
        <ele>2.8</ele>
        <time>2018-05-13T07:11:45Z</time>
        <extensions>
          <gpxtpx:TrackPointExtension xmlns:gpxtpx="http://www.garmin.com/xmlschemas/TrackPointExtension/v1">
            <gpxtpx:hr>156</gpxtpx:hr>
          </gpxtpx:TrackPointExtension>
        </extensions>
      </trkpt>
      <trkpt lat="36.80257" lon="28.12972">
        <ele>2.8</ele>
        <time>2018-05-13T07:11:44Z</time>
        <extensions>
          <gpxtpx:TrackPointExtension xmlns:gpxtpx="http://www.garmin.com/xmlschemas/TrackPointExtension/v1">
            <gpxtpx:hr>156</gpxtpx:hr>
          </gpxtpx:TrackPointExtension>
        </extensions>
      </trkpt>
      <trkpt lat="36.80254" lon="28.12967">
        <ele>2.7</ele>
        <time>2018-05-13T07:11:42Z</time>
        <extensions>
          <gpxtpx:TrackPointExtension xmlns:gpxtpx="http://www.garmin.com/xmlschemas/TrackPointExtension/v1">
            <gpxtpx:hr>156</gpxtpx:hr>
          </gpxtpx:TrackPointExtension>
        </extensions>
      </trkpt>
      <trkpt lat="36.8025" lon="28.12961">
        <ele>2.7</ele>
        <time>2018-05-13T07:11:40Z</time>
        <extensions>
          <gpxtpx:TrackPointExtension xmlns:gpxtpx="http://www.garmin.com/xmlschemas/TrackPointExtension/v1">
            <gpxtpx:hr>156</gpxtpx:hr>
          </gpxtpx:TrackPointExtension>
        </extensions>
      </trkpt>
      <trkpt lat="36.80249" lon="28.12959">
        <ele>2.8</ele>
        <time>2018-05-13T07:11:39Z</time>
        <extensions>
          <gpxtpx:TrackPointExtension xmlns:gpxtpx="http://www.garmin.com/xmlschemas/TrackPointExtension/v1">
            <gpxtpx:hr>156</gpxtpx:hr>
          </gpxtpx:TrackPointExtension>
        </extensions>
      </trkpt>
      <trkpt lat="36.80246" lon="28.12954">
        <ele>2.8</ele>
        <time>2018-05-13T07:11:37Z</time>
        <extensions>
          <gpxtpx:TrackPointExtension xmlns:gpxtpx="http://www.garmin.com/xmlschemas/TrackPointExtension/v1">
            <gpxtpx:hr>156</gpxtpx:hr>
          </gpxtpx:TrackPointExtension>
        </extensions>
      </trkpt>
      <trkpt lat="36.80242" lon="28.12949">
        <ele>2.8</ele>
        <time>2018-05-13T07:11:35Z</time>
        <extensions>
          <gpxtpx:TrackPointExtension xmlns:gpxtpx="http://www.garmin.com/xmlschemas/TrackPointExtension/v1">
            <gpxtpx:hr>156</gpxtpx:hr>
          </gpxtpx:TrackPointExtension>
        </extensions>
      </trkpt>
      <trkpt lat="36.80239" lon="28.12944">
        <ele>2.9</ele>
        <time>2018-05-13T07:11:33Z</time>
        <extensions>
          <gpxtpx:TrackPointExtension xmlns:gpxtpx="http://www.garmin.com/xmlschemas/TrackPointExtension/v1">
            <gpxtpx:hr>155</gpxtpx:hr>
          </gpxtpx:TrackPointExtension>
        </extensions>
      </trkpt>
      <trkpt lat="36.80236" lon="28.12939">
        <ele>3</ele>
        <time>2018-05-13T07:11:31Z</time>
        <extensions>
          <gpxtpx:TrackPointExtension xmlns:gpxtpx="http://www.garmin.com/xmlschemas/TrackPointExtension/v1">
            <gpxtpx:hr>155</gpxtpx:hr>
          </gpxtpx:TrackPointExtension>
        </extensions>
      </trkpt>
      <trkpt lat="36.80234" lon="28.12934">
        <ele>3</ele>
        <time>2018-05-13T07:11:29Z</time>
        <extensions>
          <gpxtpx:TrackPointExtension xmlns:gpxtpx="http://www.garmin.com/xmlschemas/TrackPointExtension/v1">
            <gpxtpx:hr>155</gpxtpx:hr>
          </gpxtpx:TrackPointExtension>
        </extensions>
      </trkpt>
      <trkpt lat="36.80231" lon="28.12928">
        <ele>3</ele>
        <time>2018-05-13T07:11:27Z</time>
        <extensions>
          <gpxtpx:TrackPointExtension xmlns:gpxtpx="http://www.garmin.com/xmlschemas/TrackPointExtension/v1">
            <gpxtpx:hr>156</gpxtpx:hr>
          </gpxtpx:TrackPointExtension>
        </extensions>
      </trkpt>
      <trkpt lat="36.80228" lon="28.12923">
        <ele>3</ele>
        <time>2018-05-13T07:11:25Z</time>
        <extensions>
          <gpxtpx:TrackPointExtension xmlns:gpxtpx="http://www.garmin.com/xmlschemas/TrackPointExtension/v1">
            <gpxtpx:hr>156</gpxtpx:hr>
          </gpxtpx:TrackPointExtension>
        </extensions>
      </trkpt>
      <trkpt lat="36.80225" lon="28.12918">
        <ele>3</ele>
        <time>2018-05-13T07:11:23Z</time>
        <extensions>
          <gpxtpx:TrackPointExtension xmlns:gpxtpx="http://www.garmin.com/xmlschemas/TrackPointExtension/v1">
            <gpxtpx:hr>156</gpxtpx:hr>
          </gpxtpx:TrackPointExtension>
        </extensions>
      </trkpt>
      <trkpt lat="36.80222" lon="28.12913">
        <ele>3</ele>
        <time>2018-05-13T07:11:21Z</time>
        <extensions>
          <gpxtpx:TrackPointExtension xmlns:gpxtpx="http://www.garmin.com/xmlschemas/TrackPointExtension/v1">
            <gpxtpx:hr>156</gpxtpx:hr>
          </gpxtpx:TrackPointExtension>
        </extensions>
      </trkpt>
      <trkpt lat="36.8022" lon="28.12911">
        <ele>3</ele>
        <time>2018-05-13T07:11:20Z</time>
        <extensions>
          <gpxtpx:TrackPointExtension xmlns:gpxtpx="http://www.garmin.com/xmlschemas/TrackPointExtension/v1">
            <gpxtpx:hr>156</gpxtpx:hr>
          </gpxtpx:TrackPointExtension>
        </extensions>
      </trkpt>
      <trkpt lat="36.80219" lon="28.12908">
        <ele>3</ele>
        <time>2018-05-13T07:11:19Z</time>
        <extensions>
          <gpxtpx:TrackPointExtension xmlns:gpxtpx="http://www.garmin.com/xmlschemas/TrackPointExtension/v1">
            <gpxtpx:hr>156</gpxtpx:hr>
          </gpxtpx:TrackPointExtension>
        </extensions>
      </trkpt>
      <trkpt lat="36.80216" lon="28.12902">
        <ele>3.1</ele>
        <time>2018-05-13T07:11:17Z</time>
        <extensions>
          <gpxtpx:TrackPointExtension xmlns:gpxtpx="http://www.garmin.com/xmlschemas/TrackPointExtension/v1">
            <gpxtpx:hr>157</gpxtpx:hr>
          </gpxtpx:TrackPointExtension>
        </extensions>
      </trkpt>
      <trkpt lat="36.80214" lon="28.129">
        <ele>3.1</ele>
        <time>2018-05-13T07:11:16Z</time>
        <extensions>
          <gpxtpx:TrackPointExtension xmlns:gpxtpx="http://www.garmin.com/xmlschemas/TrackPointExtension/v1">
            <gpxtpx:hr>157</gpxtpx:hr>
          </gpxtpx:TrackPointExtension>
        </extensions>
      </trkpt>
      <trkpt lat="36.8021" lon="28.12895">
        <ele>3.1</ele>
        <time>2018-05-13T07:11:14Z</time>
        <extensions>
          <gpxtpx:TrackPointExtension xmlns:gpxtpx="http://www.garmin.com/xmlschemas/TrackPointExtension/v1">
            <gpxtpx:hr>157</gpxtpx:hr>
          </gpxtpx:TrackPointExtension>
        </extensions>
      </trkpt>
      <trkpt lat="36.80206" lon="28.12891">
        <ele>3.1</ele>
        <time>2018-05-13T07:11:12Z</time>
        <extensions>
          <gpxtpx:TrackPointExtension xmlns:gpxtpx="http://www.garmin.com/xmlschemas/TrackPointExtension/v1">
            <gpxtpx:hr>157</gpxtpx:hr>
          </gpxtpx:TrackPointExtension>
        </extensions>
      </trkpt>
      <trkpt lat="36.80202" lon="28.12887">
        <ele>3.1</ele>
        <time>2018-05-13T07:11:10Z</time>
        <extensions>
          <gpxtpx:TrackPointExtension xmlns:gpxtpx="http://www.garmin.com/xmlschemas/TrackPointExtension/v1">
            <gpxtpx:hr>158</gpxtpx:hr>
          </gpxtpx:TrackPointExtension>
        </extensions>
      </trkpt>
      <trkpt lat="36.80199" lon="28.12882">
        <ele>3.1</ele>
        <time>2018-05-13T07:11:08Z</time>
        <extensions>
          <gpxtpx:TrackPointExtension xmlns:gpxtpx="http://www.garmin.com/xmlschemas/TrackPointExtension/v1">
            <gpxtpx:hr>157</gpxtpx:hr>
          </gpxtpx:TrackPointExtension>
        </extensions>
      </trkpt>
      <trkpt lat="36.80197" lon="28.1288">
        <ele>3.1</ele>
        <time>2018-05-13T07:11:07Z</time>
        <extensions>
          <gpxtpx:TrackPointExtension xmlns:gpxtpx="http://www.garmin.com/xmlschemas/TrackPointExtension/v1">
            <gpxtpx:hr>157</gpxtpx:hr>
          </gpxtpx:TrackPointExtension>
        </extensions>
      </trkpt>
      <trkpt lat="36.80195" lon="28.12877">
        <ele>3.1</ele>
        <time>2018-05-13T07:11:06Z</time>
        <extensions>
          <gpxtpx:TrackPointExtension xmlns:gpxtpx="http://www.garmin.com/xmlschemas/TrackPointExtension/v1">
            <gpxtpx:hr>157</gpxtpx:hr>
          </gpxtpx:TrackPointExtension>
        </extensions>
      </trkpt>
      <trkpt lat="36.80193" lon="28.12874">
        <ele>3.1</ele>
        <time>2018-05-13T07:11:05Z</time>
        <extensions>
          <gpxtpx:TrackPointExtension xmlns:gpxtpx="http://www.garmin.com/xmlschemas/TrackPointExtension/v1">
            <gpxtpx:hr>157</gpxtpx:hr>
          </gpxtpx:TrackPointExtension>
        </extensions>
      </trkpt>
      <trkpt lat="36.8019" lon="28.12869">
        <ele>3.1</ele>
        <time>2018-05-13T07:11:03Z</time>
        <extensions>
          <gpxtpx:TrackPointExtension xmlns:gpxtpx="http://www.garmin.com/xmlschemas/TrackPointExtension/v1">
            <gpxtpx:hr>157</gpxtpx:hr>
          </gpxtpx:TrackPointExtension>
        </extensions>
      </trkpt>
      <trkpt lat="36.80187" lon="28.12863">
        <ele>3.1</ele>
        <time>2018-05-13T07:11:01Z</time>
        <extensions>
          <gpxtpx:TrackPointExtension xmlns:gpxtpx="http://www.garmin.com/xmlschemas/TrackPointExtension/v1">
            <gpxtpx:hr>156</gpxtpx:hr>
          </gpxtpx:TrackPointExtension>
        </extensions>
      </trkpt>
      <trkpt lat="36.80185" lon="28.12858">
        <ele>3.1</ele>
        <time>2018-05-13T07:10:59Z</time>
        <extensions>
          <gpxtpx:TrackPointExtension xmlns:gpxtpx="http://www.garmin.com/xmlschemas/TrackPointExtension/v1">
            <gpxtpx:hr>156</gpxtpx:hr>
          </gpxtpx:TrackPointExtension>
        </extensions>
      </trkpt>
      <trkpt lat="36.80183" lon="28.12855">
        <ele>3.1</ele>
        <time>2018-05-13T07:10:58Z</time>
        <extensions>
          <gpxtpx:TrackPointExtension xmlns:gpxtpx="http://www.garmin.com/xmlschemas/TrackPointExtension/v1">
            <gpxtpx:hr>156</gpxtpx:hr>
          </gpxtpx:TrackPointExtension>
        </extensions>
      </trkpt>
      <trkpt lat="36.8018" lon="28.1285">
        <ele>3</ele>
        <time>2018-05-13T07:10:56Z</time>
        <extensions>
          <gpxtpx:TrackPointExtension xmlns:gpxtpx="http://www.garmin.com/xmlschemas/TrackPointExtension/v1">
            <gpxtpx:hr>156</gpxtpx:hr>
          </gpxtpx:TrackPointExtension>
        </extensions>
      </trkpt>
      <trkpt lat="36.80177" lon="28.12845">
        <ele>3</ele>
        <time>2018-05-13T07:10:54Z</time>
        <extensions>
          <gpxtpx:TrackPointExtension xmlns:gpxtpx="http://www.garmin.com/xmlschemas/TrackPointExtension/v1">
            <gpxtpx:hr>156</gpxtpx:hr>
          </gpxtpx:TrackPointExtension>
        </extensions>
      </trkpt>
      <trkpt lat="36.80175" lon="28.12842">
        <ele>3</ele>
        <time>2018-05-13T07:10:53Z</time>
        <extensions>
          <gpxtpx:TrackPointExtension xmlns:gpxtpx="http://www.garmin.com/xmlschemas/TrackPointExtension/v1">
            <gpxtpx:hr>156</gpxtpx:hr>
          </gpxtpx:TrackPointExtension>
        </extensions>
      </trkpt>
      <trkpt lat="36.80173" lon="28.12839">
        <ele>2.9</ele>
        <time>2018-05-13T07:10:52Z</time>
        <extensions>
          <gpxtpx:TrackPointExtension xmlns:gpxtpx="http://www.garmin.com/xmlschemas/TrackPointExtension/v1">
            <gpxtpx:hr>155</gpxtpx:hr>
          </gpxtpx:TrackPointExtension>
        </extensions>
      </trkpt>
      <trkpt lat="36.8017" lon="28.12834">
        <ele>2.9</ele>
        <time>2018-05-13T07:10:50Z</time>
        <extensions>
          <gpxtpx:TrackPointExtension xmlns:gpxtpx="http://www.garmin.com/xmlschemas/TrackPointExtension/v1">
            <gpxtpx:hr>155</gpxtpx:hr>
          </gpxtpx:TrackPointExtension>
        </extensions>
      </trkpt>
      <trkpt lat="36.80168" lon="28.12831">
        <ele>2.8</ele>
        <time>2018-05-13T07:10:49Z</time>
        <extensions>
          <gpxtpx:TrackPointExtension xmlns:gpxtpx="http://www.garmin.com/xmlschemas/TrackPointExtension/v1">
            <gpxtpx:hr>155</gpxtpx:hr>
          </gpxtpx:TrackPointExtension>
        </extensions>
      </trkpt>
      <trkpt lat="36.80167" lon="28.12829">
        <ele>2.8</ele>
        <time>2018-05-13T07:10:48Z</time>
        <extensions>
          <gpxtpx:TrackPointExtension xmlns:gpxtpx="http://www.garmin.com/xmlschemas/TrackPointExtension/v1">
            <gpxtpx:hr>154</gpxtpx:hr>
          </gpxtpx:TrackPointExtension>
        </extensions>
      </trkpt>
      <trkpt lat="36.80165" lon="28.12826">
        <ele>2.8</ele>
        <time>2018-05-13T07:10:47Z</time>
        <extensions>
          <gpxtpx:TrackPointExtension xmlns:gpxtpx="http://www.garmin.com/xmlschemas/TrackPointExtension/v1">
            <gpxtpx:hr>154</gpxtpx:hr>
          </gpxtpx:TrackPointExtension>
        </extensions>
      </trkpt>
      <trkpt lat="36.80162" lon="28.12821">
        <ele>2.8</ele>
        <time>2018-05-13T07:10:45Z</time>
        <extensions>
          <gpxtpx:TrackPointExtension xmlns:gpxtpx="http://www.garmin.com/xmlschemas/TrackPointExtension/v1">
            <gpxtpx:hr>154</gpxtpx:hr>
          </gpxtpx:TrackPointExtension>
        </extensions>
      </trkpt>
      <trkpt lat="36.8016" lon="28.12818">
        <ele>2.7</ele>
        <time>2018-05-13T07:10:44Z</time>
        <extensions>
          <gpxtpx:TrackPointExtension xmlns:gpxtpx="http://www.garmin.com/xmlschemas/TrackPointExtension/v1">
            <gpxtpx:hr>155</gpxtpx:hr>
          </gpxtpx:TrackPointExtension>
        </extensions>
      </trkpt>
      <trkpt lat="36.80159" lon="28.12815">
        <ele>2.7</ele>
        <time>2018-05-13T07:10:43Z</time>
        <extensions>
          <gpxtpx:TrackPointExtension xmlns:gpxtpx="http://www.garmin.com/xmlschemas/TrackPointExtension/v1">
            <gpxtpx:hr>155</gpxtpx:hr>
          </gpxtpx:TrackPointExtension>
        </extensions>
      </trkpt>
      <trkpt lat="36.80157" lon="28.12812">
        <ele>2.7</ele>
        <time>2018-05-13T07:10:42Z</time>
        <extensions>
          <gpxtpx:TrackPointExtension xmlns:gpxtpx="http://www.garmin.com/xmlschemas/TrackPointExtension/v1">
            <gpxtpx:hr>155</gpxtpx:hr>
          </gpxtpx:TrackPointExtension>
        </extensions>
      </trkpt>
      <trkpt lat="36.80154" lon="28.12807">
        <ele>2.7</ele>
        <time>2018-05-13T07:10:40Z</time>
        <extensions>
          <gpxtpx:TrackPointExtension xmlns:gpxtpx="http://www.garmin.com/xmlschemas/TrackPointExtension/v1">
            <gpxtpx:hr>156</gpxtpx:hr>
          </gpxtpx:TrackPointExtension>
        </extensions>
      </trkpt>
      <trkpt lat="36.80152" lon="28.12805">
        <ele>2.7</ele>
        <time>2018-05-13T07:10:39Z</time>
        <extensions>
          <gpxtpx:TrackPointExtension xmlns:gpxtpx="http://www.garmin.com/xmlschemas/TrackPointExtension/v1">
            <gpxtpx:hr>156</gpxtpx:hr>
          </gpxtpx:TrackPointExtension>
        </extensions>
      </trkpt>
      <trkpt lat="36.80151" lon="28.12802">
        <ele>2.6</ele>
        <time>2018-05-13T07:10:38Z</time>
        <extensions>
          <gpxtpx:TrackPointExtension xmlns:gpxtpx="http://www.garmin.com/xmlschemas/TrackPointExtension/v1">
            <gpxtpx:hr>158</gpxtpx:hr>
          </gpxtpx:TrackPointExtension>
        </extensions>
      </trkpt>
      <trkpt lat="36.80148" lon="28.12796">
        <ele>2.6</ele>
        <time>2018-05-13T07:10:36Z</time>
        <extensions>
          <gpxtpx:TrackPointExtension xmlns:gpxtpx="http://www.garmin.com/xmlschemas/TrackPointExtension/v1">
            <gpxtpx:hr>162</gpxtpx:hr>
          </gpxtpx:TrackPointExtension>
        </extensions>
      </trkpt>
      <trkpt lat="36.80146" lon="28.12793">
        <ele>2.6</ele>
        <time>2018-05-13T07:10:35Z</time>
        <extensions>
          <gpxtpx:TrackPointExtension xmlns:gpxtpx="http://www.garmin.com/xmlschemas/TrackPointExtension/v1">
            <gpxtpx:hr>162</gpxtpx:hr>
          </gpxtpx:TrackPointExtension>
        </extensions>
      </trkpt>
      <trkpt lat="36.80145" lon="28.12791">
        <ele>2.6</ele>
        <time>2018-05-13T07:10:34Z</time>
        <extensions>
          <gpxtpx:TrackPointExtension xmlns:gpxtpx="http://www.garmin.com/xmlschemas/TrackPointExtension/v1">
            <gpxtpx:hr>162</gpxtpx:hr>
          </gpxtpx:TrackPointExtension>
        </extensions>
      </trkpt>
      <trkpt lat="36.80143" lon="28.12788">
        <ele>2.5</ele>
        <time>2018-05-13T07:10:33Z</time>
        <extensions>
          <gpxtpx:TrackPointExtension xmlns:gpxtpx="http://www.garmin.com/xmlschemas/TrackPointExtension/v1">
            <gpxtpx:hr>162</gpxtpx:hr>
          </gpxtpx:TrackPointExtension>
        </extensions>
      </trkpt>
      <trkpt lat="36.80141" lon="28.12785">
        <ele>2.5</ele>
        <time>2018-05-13T07:10:32Z</time>
        <extensions>
          <gpxtpx:TrackPointExtension xmlns:gpxtpx="http://www.garmin.com/xmlschemas/TrackPointExtension/v1">
            <gpxtpx:hr>162</gpxtpx:hr>
          </gpxtpx:TrackPointExtension>
        </extensions>
      </trkpt>
      <trkpt lat="36.80138" lon="28.1278">
        <ele>2.5</ele>
        <time>2018-05-13T07:10:30Z</time>
        <extensions>
          <gpxtpx:TrackPointExtension xmlns:gpxtpx="http://www.garmin.com/xmlschemas/TrackPointExtension/v1">
            <gpxtpx:hr>159</gpxtpx:hr>
          </gpxtpx:TrackPointExtension>
        </extensions>
      </trkpt>
      <trkpt lat="36.80135" lon="28.12775">
        <ele>2.4</ele>
        <time>2018-05-13T07:10:28Z</time>
        <extensions>
          <gpxtpx:TrackPointExtension xmlns:gpxtpx="http://www.garmin.com/xmlschemas/TrackPointExtension/v1">
            <gpxtpx:hr>159</gpxtpx:hr>
          </gpxtpx:TrackPointExtension>
        </extensions>
      </trkpt>
      <trkpt lat="36.80133" lon="28.12772">
        <ele>2.4</ele>
        <time>2018-05-13T07:10:27Z</time>
        <extensions>
          <gpxtpx:TrackPointExtension xmlns:gpxtpx="http://www.garmin.com/xmlschemas/TrackPointExtension/v1">
            <gpxtpx:hr>159</gpxtpx:hr>
          </gpxtpx:TrackPointExtension>
        </extensions>
      </trkpt>
      <trkpt lat="36.80131" lon="28.1277">
        <ele>2.4</ele>
        <time>2018-05-13T07:10:26Z</time>
        <extensions>
          <gpxtpx:TrackPointExtension xmlns:gpxtpx="http://www.garmin.com/xmlschemas/TrackPointExtension/v1">
            <gpxtpx:hr>156</gpxtpx:hr>
          </gpxtpx:TrackPointExtension>
        </extensions>
      </trkpt>
      <trkpt lat="36.80129" lon="28.12767">
        <ele>2.4</ele>
        <time>2018-05-13T07:10:25Z</time>
        <extensions>
          <gpxtpx:TrackPointExtension xmlns:gpxtpx="http://www.garmin.com/xmlschemas/TrackPointExtension/v1">
            <gpxtpx:hr>156</gpxtpx:hr>
          </gpxtpx:TrackPointExtension>
        </extensions>
      </trkpt>
      <trkpt lat="36.80127" lon="28.12764">
        <ele>2.3</ele>
        <time>2018-05-13T07:10:24Z</time>
        <extensions>
          <gpxtpx:TrackPointExtension xmlns:gpxtpx="http://www.garmin.com/xmlschemas/TrackPointExtension/v1">
            <gpxtpx:hr>156</gpxtpx:hr>
          </gpxtpx:TrackPointExtension>
        </extensions>
      </trkpt>
      <trkpt lat="36.80126" lon="28.12762">
        <ele>2.3</ele>
        <time>2018-05-13T07:10:23Z</time>
        <extensions>
          <gpxtpx:TrackPointExtension xmlns:gpxtpx="http://www.garmin.com/xmlschemas/TrackPointExtension/v1">
            <gpxtpx:hr>156</gpxtpx:hr>
          </gpxtpx:TrackPointExtension>
        </extensions>
      </trkpt>
      <trkpt lat="36.80124" lon="28.12759">
        <ele>2.3</ele>
        <time>2018-05-13T07:10:22Z</time>
        <extensions>
          <gpxtpx:TrackPointExtension xmlns:gpxtpx="http://www.garmin.com/xmlschemas/TrackPointExtension/v1">
            <gpxtpx:hr>156</gpxtpx:hr>
          </gpxtpx:TrackPointExtension>
        </extensions>
      </trkpt>
      <trkpt lat="36.80122" lon="28.12756">
        <ele>2.2</ele>
        <time>2018-05-13T07:10:21Z</time>
        <extensions>
          <gpxtpx:TrackPointExtension xmlns:gpxtpx="http://www.garmin.com/xmlschemas/TrackPointExtension/v1">
            <gpxtpx:hr>156</gpxtpx:hr>
          </gpxtpx:TrackPointExtension>
        </extensions>
      </trkpt>
      <trkpt lat="36.8012" lon="28.12751">
        <ele>2.2</ele>
        <time>2018-05-13T07:10:19Z</time>
        <extensions>
          <gpxtpx:TrackPointExtension xmlns:gpxtpx="http://www.garmin.com/xmlschemas/TrackPointExtension/v1">
            <gpxtpx:hr>156</gpxtpx:hr>
          </gpxtpx:TrackPointExtension>
        </extensions>
      </trkpt>
      <trkpt lat="36.80122" lon="28.12744">
        <ele>2.1</ele>
        <time>2018-05-13T07:10:17Z</time>
        <extensions>
          <gpxtpx:TrackPointExtension xmlns:gpxtpx="http://www.garmin.com/xmlschemas/TrackPointExtension/v1">
            <gpxtpx:hr>156</gpxtpx:hr>
          </gpxtpx:TrackPointExtension>
        </extensions>
      </trkpt>
      <trkpt lat="36.80124" lon="28.12741">
        <ele>2</ele>
        <time>2018-05-13T07:10:16Z</time>
        <extensions>
          <gpxtpx:TrackPointExtension xmlns:gpxtpx="http://www.garmin.com/xmlschemas/TrackPointExtension/v1">
            <gpxtpx:hr>155</gpxtpx:hr>
          </gpxtpx:TrackPointExtension>
        </extensions>
      </trkpt>
      <trkpt lat="36.80126" lon="28.12739">
        <ele>2</ele>
        <time>2018-05-13T07:10:15Z</time>
        <extensions>
          <gpxtpx:TrackPointExtension xmlns:gpxtpx="http://www.garmin.com/xmlschemas/TrackPointExtension/v1">
            <gpxtpx:hr>155</gpxtpx:hr>
          </gpxtpx:TrackPointExtension>
        </extensions>
      </trkpt>
      <trkpt lat="36.80128" lon="28.12736">
        <ele>2</ele>
        <time>2018-05-13T07:10:14Z</time>
        <extensions>
          <gpxtpx:TrackPointExtension xmlns:gpxtpx="http://www.garmin.com/xmlschemas/TrackPointExtension/v1">
            <gpxtpx:hr>155</gpxtpx:hr>
          </gpxtpx:TrackPointExtension>
        </extensions>
      </trkpt>
      <trkpt lat="36.80132" lon="28.12732">
        <ele>2.1</ele>
        <time>2018-05-13T07:10:12Z</time>
        <extensions>
          <gpxtpx:TrackPointExtension xmlns:gpxtpx="http://www.garmin.com/xmlschemas/TrackPointExtension/v1">
            <gpxtpx:hr>155</gpxtpx:hr>
          </gpxtpx:TrackPointExtension>
        </extensions>
      </trkpt>
      <trkpt lat="36.80134" lon="28.12731">
        <ele>2.1</ele>
        <time>2018-05-13T07:10:11Z</time>
        <extensions>
          <gpxtpx:TrackPointExtension xmlns:gpxtpx="http://www.garmin.com/xmlschemas/TrackPointExtension/v1">
            <gpxtpx:hr>155</gpxtpx:hr>
          </gpxtpx:TrackPointExtension>
        </extensions>
      </trkpt>
      <trkpt lat="36.80139" lon="28.12727">
        <ele>2.1</ele>
        <time>2018-05-13T07:10:09Z</time>
        <extensions>
          <gpxtpx:TrackPointExtension xmlns:gpxtpx="http://www.garmin.com/xmlschemas/TrackPointExtension/v1">
            <gpxtpx:hr>153</gpxtpx:hr>
          </gpxtpx:TrackPointExtension>
        </extensions>
      </trkpt>
      <trkpt lat="36.80143" lon="28.12723">
        <ele>2.1</ele>
        <time>2018-05-13T07:10:07Z</time>
        <extensions>
          <gpxtpx:TrackPointExtension xmlns:gpxtpx="http://www.garmin.com/xmlschemas/TrackPointExtension/v1">
            <gpxtpx:hr>151</gpxtpx:hr>
          </gpxtpx:TrackPointExtension>
        </extensions>
      </trkpt>
      <trkpt lat="36.80147" lon="28.1272">
        <ele>2</ele>
        <time>2018-05-13T07:10:05Z</time>
        <extensions>
          <gpxtpx:TrackPointExtension xmlns:gpxtpx="http://www.garmin.com/xmlschemas/TrackPointExtension/v1">
            <gpxtpx:hr>150</gpxtpx:hr>
          </gpxtpx:TrackPointExtension>
        </extensions>
      </trkpt>
      <trkpt lat="36.80151" lon="28.12716">
        <ele>2</ele>
        <time>2018-05-13T07:10:03Z</time>
        <extensions>
          <gpxtpx:TrackPointExtension xmlns:gpxtpx="http://www.garmin.com/xmlschemas/TrackPointExtension/v1">
            <gpxtpx:hr>145</gpxtpx:hr>
          </gpxtpx:TrackPointExtension>
        </extensions>
      </trkpt>
      <trkpt lat="36.80155" lon="28.12711">
        <ele>2</ele>
        <time>2018-05-13T07:10:01Z</time>
        <extensions>
          <gpxtpx:TrackPointExtension xmlns:gpxtpx="http://www.garmin.com/xmlschemas/TrackPointExtension/v1">
            <gpxtpx:hr>187</gpxtpx:hr>
          </gpxtpx:TrackPointExtension>
        </extensions>
      </trkpt>
      <trkpt lat="36.80158" lon="28.12709">
        <ele>2</ele>
        <time>2018-05-13T07:10:00Z</time>
        <extensions>
          <gpxtpx:TrackPointExtension xmlns:gpxtpx="http://www.garmin.com/xmlschemas/TrackPointExtension/v1">
            <gpxtpx:hr>187</gpxtpx:hr>
          </gpxtpx:TrackPointExtension>
        </extensions>
      </trkpt>
      <trkpt lat="36.8016" lon="28.12708">
        <ele>2</ele>
        <time>2018-05-13T07:09:59Z</time>
        <extensions>
          <gpxtpx:TrackPointExtension xmlns:gpxtpx="http://www.garmin.com/xmlschemas/TrackPointExtension/v1">
            <gpxtpx:hr>187</gpxtpx:hr>
          </gpxtpx:TrackPointExtension>
        </extensions>
      </trkpt>
      <trkpt lat="36.80163" lon="28.12706">
        <ele>1.9</ele>
        <time>2018-05-13T07:09:58Z</time>
        <extensions>
          <gpxtpx:TrackPointExtension xmlns:gpxtpx="http://www.garmin.com/xmlschemas/TrackPointExtension/v1">
            <gpxtpx:hr>187</gpxtpx:hr>
          </gpxtpx:TrackPointExtension>
        </extensions>
      </trkpt>
      <trkpt lat="36.80167" lon="28.12702">
        <ele>1.8</ele>
        <time>2018-05-13T07:09:56Z</time>
        <extensions>
          <gpxtpx:TrackPointExtension xmlns:gpxtpx="http://www.garmin.com/xmlschemas/TrackPointExtension/v1">
            <gpxtpx:hr>187</gpxtpx:hr>
          </gpxtpx:TrackPointExtension>
        </extensions>
      </trkpt>
      <trkpt lat="36.80171" lon="28.12699">
        <ele>1.8</ele>
        <time>2018-05-13T07:09:54Z</time>
        <extensions>
          <gpxtpx:TrackPointExtension xmlns:gpxtpx="http://www.garmin.com/xmlschemas/TrackPointExtension/v1">
            <gpxtpx:hr>187</gpxtpx:hr>
          </gpxtpx:TrackPointExtension>
        </extensions>
      </trkpt>
      <trkpt lat="36.80174" lon="28.12698">
        <ele>1.8</ele>
        <time>2018-05-13T07:09:53Z</time>
        <extensions>
          <gpxtpx:TrackPointExtension xmlns:gpxtpx="http://www.garmin.com/xmlschemas/TrackPointExtension/v1">
            <gpxtpx:hr>187</gpxtpx:hr>
          </gpxtpx:TrackPointExtension>
        </extensions>
      </trkpt>
      <trkpt lat="36.80176" lon="28.12696">
        <ele>1.7</ele>
        <time>2018-05-13T07:09:52Z</time>
        <extensions>
          <gpxtpx:TrackPointExtension xmlns:gpxtpx="http://www.garmin.com/xmlschemas/TrackPointExtension/v1">
            <gpxtpx:hr>187</gpxtpx:hr>
          </gpxtpx:TrackPointExtension>
        </extensions>
      </trkpt>
      <trkpt lat="36.80179" lon="28.12694">
        <ele>1.6</ele>
        <time>2018-05-13T07:09:51Z</time>
        <extensions>
          <gpxtpx:TrackPointExtension xmlns:gpxtpx="http://www.garmin.com/xmlschemas/TrackPointExtension/v1">
            <gpxtpx:hr>187</gpxtpx:hr>
          </gpxtpx:TrackPointExtension>
        </extensions>
      </trkpt>
      <trkpt lat="36.80181" lon="28.12693">
        <ele>1.6</ele>
        <time>2018-05-13T07:09:50Z</time>
        <extensions>
          <gpxtpx:TrackPointExtension xmlns:gpxtpx="http://www.garmin.com/xmlschemas/TrackPointExtension/v1">
            <gpxtpx:hr>187</gpxtpx:hr>
          </gpxtpx:TrackPointExtension>
        </extensions>
      </trkpt>
      <trkpt lat="36.80183" lon="28.12691">
        <ele>1.5</ele>
        <time>2018-05-13T07:09:49Z</time>
        <extensions>
          <gpxtpx:TrackPointExtension xmlns:gpxtpx="http://www.garmin.com/xmlschemas/TrackPointExtension/v1">
            <gpxtpx:hr>187</gpxtpx:hr>
          </gpxtpx:TrackPointExtension>
        </extensions>
      </trkpt>
      <trkpt lat="36.80187" lon="28.12686">
        <ele>1.4</ele>
        <time>2018-05-13T07:09:47Z</time>
        <extensions>
          <gpxtpx:TrackPointExtension xmlns:gpxtpx="http://www.garmin.com/xmlschemas/TrackPointExtension/v1">
            <gpxtpx:hr>187</gpxtpx:hr>
          </gpxtpx:TrackPointExtension>
        </extensions>
      </trkpt>
      <trkpt lat="36.80189" lon="28.12684">
        <ele>1.4</ele>
        <time>2018-05-13T07:09:46Z</time>
        <extensions>
          <gpxtpx:TrackPointExtension xmlns:gpxtpx="http://www.garmin.com/xmlschemas/TrackPointExtension/v1">
            <gpxtpx:hr>187</gpxtpx:hr>
          </gpxtpx:TrackPointExtension>
        </extensions>
      </trkpt>
      <trkpt lat="36.80191" lon="28.12681">
        <ele>1.3</ele>
        <time>2018-05-13T07:09:45Z</time>
        <extensions>
          <gpxtpx:TrackPointExtension xmlns:gpxtpx="http://www.garmin.com/xmlschemas/TrackPointExtension/v1">
            <gpxtpx:hr>187</gpxtpx:hr>
          </gpxtpx:TrackPointExtension>
        </extensions>
      </trkpt>
      <trkpt lat="36.80194" lon="28.12679">
        <ele>1.3</ele>
        <time>2018-05-13T07:09:44Z</time>
        <extensions>
          <gpxtpx:TrackPointExtension xmlns:gpxtpx="http://www.garmin.com/xmlschemas/TrackPointExtension/v1">
            <gpxtpx:hr>151</gpxtpx:hr>
          </gpxtpx:TrackPointExtension>
        </extensions>
      </trkpt>
      <trkpt lat="36.80196" lon="28.12677">
        <ele>1.2</ele>
        <time>2018-05-13T07:09:43Z</time>
        <extensions>
          <gpxtpx:TrackPointExtension xmlns:gpxtpx="http://www.garmin.com/xmlschemas/TrackPointExtension/v1">
            <gpxtpx:hr>151</gpxtpx:hr>
          </gpxtpx:TrackPointExtension>
        </extensions>
      </trkpt>
      <trkpt lat="36.80198" lon="28.12674">
        <ele>1.2</ele>
        <time>2018-05-13T07:09:42Z</time>
        <extensions>
          <gpxtpx:TrackPointExtension xmlns:gpxtpx="http://www.garmin.com/xmlschemas/TrackPointExtension/v1">
            <gpxtpx:hr>151</gpxtpx:hr>
          </gpxtpx:TrackPointExtension>
        </extensions>
      </trkpt>
      <trkpt lat="36.802" lon="28.12672">
        <ele>1.1</ele>
        <time>2018-05-13T07:09:41Z</time>
        <extensions>
          <gpxtpx:TrackPointExtension xmlns:gpxtpx="http://www.garmin.com/xmlschemas/TrackPointExtension/v1">
            <gpxtpx:hr>151</gpxtpx:hr>
          </gpxtpx:TrackPointExtension>
        </extensions>
      </trkpt>
      <trkpt lat="36.80202" lon="28.12669">
        <ele>1.1</ele>
        <time>2018-05-13T07:09:40Z</time>
        <extensions>
          <gpxtpx:TrackPointExtension xmlns:gpxtpx="http://www.garmin.com/xmlschemas/TrackPointExtension/v1">
            <gpxtpx:hr>151</gpxtpx:hr>
          </gpxtpx:TrackPointExtension>
        </extensions>
      </trkpt>
      <trkpt lat="36.80203" lon="28.12665">
        <ele>1</ele>
        <time>2018-05-13T07:09:39Z</time>
        <extensions>
          <gpxtpx:TrackPointExtension xmlns:gpxtpx="http://www.garmin.com/xmlschemas/TrackPointExtension/v1">
            <gpxtpx:hr>151</gpxtpx:hr>
          </gpxtpx:TrackPointExtension>
        </extensions>
      </trkpt>
      <trkpt lat="36.80205" lon="28.12662">
        <ele>1</ele>
        <time>2018-05-13T07:09:38Z</time>
        <extensions>
          <gpxtpx:TrackPointExtension xmlns:gpxtpx="http://www.garmin.com/xmlschemas/TrackPointExtension/v1">
            <gpxtpx:hr>151</gpxtpx:hr>
          </gpxtpx:TrackPointExtension>
        </extensions>
      </trkpt>
      <trkpt lat="36.80206" lon="28.12659">
        <ele>1</ele>
        <time>2018-05-13T07:09:37Z</time>
        <extensions>
          <gpxtpx:TrackPointExtension xmlns:gpxtpx="http://www.garmin.com/xmlschemas/TrackPointExtension/v1">
            <gpxtpx:hr>152</gpxtpx:hr>
          </gpxtpx:TrackPointExtension>
        </extensions>
      </trkpt>
      <trkpt lat="36.80207" lon="28.12655">
        <ele>1</ele>
        <time>2018-05-13T07:09:36Z</time>
        <extensions>
          <gpxtpx:TrackPointExtension xmlns:gpxtpx="http://www.garmin.com/xmlschemas/TrackPointExtension/v1">
            <gpxtpx:hr>152</gpxtpx:hr>
          </gpxtpx:TrackPointExtension>
        </extensions>
      </trkpt>
      <trkpt lat="36.80208" lon="28.12652">
        <ele>1</ele>
        <time>2018-05-13T07:09:35Z</time>
        <extensions>
          <gpxtpx:TrackPointExtension xmlns:gpxtpx="http://www.garmin.com/xmlschemas/TrackPointExtension/v1">
            <gpxtpx:hr>152</gpxtpx:hr>
          </gpxtpx:TrackPointExtension>
        </extensions>
      </trkpt>
      <trkpt lat="36.80209" lon="28.12648">
        <ele>0.9</ele>
        <time>2018-05-13T07:09:34Z</time>
        <extensions>
          <gpxtpx:TrackPointExtension xmlns:gpxtpx="http://www.garmin.com/xmlschemas/TrackPointExtension/v1">
            <gpxtpx:hr>151</gpxtpx:hr>
          </gpxtpx:TrackPointExtension>
        </extensions>
      </trkpt>
      <trkpt lat="36.8021" lon="28.12645">
        <ele>0.9</ele>
        <time>2018-05-13T07:09:33Z</time>
        <extensions>
          <gpxtpx:TrackPointExtension xmlns:gpxtpx="http://www.garmin.com/xmlschemas/TrackPointExtension/v1">
            <gpxtpx:hr>151</gpxtpx:hr>
          </gpxtpx:TrackPointExtension>
        </extensions>
      </trkpt>
      <trkpt lat="36.80211" lon="28.12641">
        <ele>0.9</ele>
        <time>2018-05-13T07:09:32Z</time>
        <extensions>
          <gpxtpx:TrackPointExtension xmlns:gpxtpx="http://www.garmin.com/xmlschemas/TrackPointExtension/v1">
            <gpxtpx:hr>150</gpxtpx:hr>
          </gpxtpx:TrackPointExtension>
        </extensions>
      </trkpt>
      <trkpt lat="36.80212" lon="28.12637">
        <ele>0.8</ele>
        <time>2018-05-13T07:09:31Z</time>
        <extensions>
          <gpxtpx:TrackPointExtension xmlns:gpxtpx="http://www.garmin.com/xmlschemas/TrackPointExtension/v1">
            <gpxtpx:hr>150</gpxtpx:hr>
          </gpxtpx:TrackPointExtension>
        </extensions>
      </trkpt>
      <trkpt lat="36.80212" lon="28.12634">
        <ele>0.8</ele>
        <time>2018-05-13T07:09:30Z</time>
        <extensions>
          <gpxtpx:TrackPointExtension xmlns:gpxtpx="http://www.garmin.com/xmlschemas/TrackPointExtension/v1">
            <gpxtpx:hr>150</gpxtpx:hr>
          </gpxtpx:TrackPointExtension>
        </extensions>
      </trkpt>
      <trkpt lat="36.80212" lon="28.1263">
        <ele>0.8</ele>
        <time>2018-05-13T07:09:29Z</time>
        <extensions>
          <gpxtpx:TrackPointExtension xmlns:gpxtpx="http://www.garmin.com/xmlschemas/TrackPointExtension/v1">
            <gpxtpx:hr>149</gpxtpx:hr>
          </gpxtpx:TrackPointExtension>
        </extensions>
      </trkpt>
      <trkpt lat="36.80212" lon="28.12627">
        <ele>0.7</ele>
        <time>2018-05-13T07:09:28Z</time>
        <extensions>
          <gpxtpx:TrackPointExtension xmlns:gpxtpx="http://www.garmin.com/xmlschemas/TrackPointExtension/v1">
            <gpxtpx:hr>149</gpxtpx:hr>
          </gpxtpx:TrackPointExtension>
        </extensions>
      </trkpt>
      <trkpt lat="36.80211" lon="28.12623">
        <ele>0.7</ele>
        <time>2018-05-13T07:09:27Z</time>
        <extensions>
          <gpxtpx:TrackPointExtension xmlns:gpxtpx="http://www.garmin.com/xmlschemas/TrackPointExtension/v1">
            <gpxtpx:hr>149</gpxtpx:hr>
          </gpxtpx:TrackPointExtension>
        </extensions>
      </trkpt>
      <trkpt lat="36.8021" lon="28.1262">
        <ele>0.7</ele>
        <time>2018-05-13T07:09:26Z</time>
        <extensions>
          <gpxtpx:TrackPointExtension xmlns:gpxtpx="http://www.garmin.com/xmlschemas/TrackPointExtension/v1">
            <gpxtpx:hr>149</gpxtpx:hr>
          </gpxtpx:TrackPointExtension>
        </extensions>
      </trkpt>
      <trkpt lat="36.80206" lon="28.12615">
        <ele>0.7</ele>
        <time>2018-05-13T07:09:24Z</time>
        <extensions>
          <gpxtpx:TrackPointExtension xmlns:gpxtpx="http://www.garmin.com/xmlschemas/TrackPointExtension/v1">
            <gpxtpx:hr>149</gpxtpx:hr>
          </gpxtpx:TrackPointExtension>
        </extensions>
      </trkpt>
      <trkpt lat="36.80204" lon="28.12612">
        <ele>0.8</ele>
        <time>2018-05-13T07:09:23Z</time>
        <extensions>
          <gpxtpx:TrackPointExtension xmlns:gpxtpx="http://www.garmin.com/xmlschemas/TrackPointExtension/v1">
            <gpxtpx:hr>149</gpxtpx:hr>
          </gpxtpx:TrackPointExtension>
        </extensions>
      </trkpt>
      <trkpt lat="36.80201" lon="28.12607">
        <ele>0.8</ele>
        <time>2018-05-13T07:09:21Z</time>
        <extensions>
          <gpxtpx:TrackPointExtension xmlns:gpxtpx="http://www.garmin.com/xmlschemas/TrackPointExtension/v1">
            <gpxtpx:hr>148</gpxtpx:hr>
          </gpxtpx:TrackPointExtension>
        </extensions>
      </trkpt>
      <trkpt lat="36.80198" lon="28.12601">
        <ele>0.9</ele>
        <time>2018-05-13T07:09:19Z</time>
        <extensions>
          <gpxtpx:TrackPointExtension xmlns:gpxtpx="http://www.garmin.com/xmlschemas/TrackPointExtension/v1">
            <gpxtpx:hr>148</gpxtpx:hr>
          </gpxtpx:TrackPointExtension>
        </extensions>
      </trkpt>
      <trkpt lat="36.80197" lon="28.12597">
        <ele>0.9</ele>
        <time>2018-05-13T07:09:18Z</time>
        <extensions>
          <gpxtpx:TrackPointExtension xmlns:gpxtpx="http://www.garmin.com/xmlschemas/TrackPointExtension/v1">
            <gpxtpx:hr>148</gpxtpx:hr>
          </gpxtpx:TrackPointExtension>
        </extensions>
      </trkpt>
      <trkpt lat="36.80196" lon="28.12594">
        <ele>0.9</ele>
        <time>2018-05-13T07:09:17Z</time>
        <extensions>
          <gpxtpx:TrackPointExtension xmlns:gpxtpx="http://www.garmin.com/xmlschemas/TrackPointExtension/v1">
            <gpxtpx:hr>148</gpxtpx:hr>
          </gpxtpx:TrackPointExtension>
        </extensions>
      </trkpt>
      <trkpt lat="36.80195" lon="28.12591">
        <ele>1</ele>
        <time>2018-05-13T07:09:16Z</time>
        <extensions>
          <gpxtpx:TrackPointExtension xmlns:gpxtpx="http://www.garmin.com/xmlschemas/TrackPointExtension/v1">
            <gpxtpx:hr>147</gpxtpx:hr>
          </gpxtpx:TrackPointExtension>
        </extensions>
      </trkpt>
      <trkpt lat="36.80194" lon="28.12587">
        <ele>1</ele>
        <time>2018-05-13T07:09:15Z</time>
        <extensions>
          <gpxtpx:TrackPointExtension xmlns:gpxtpx="http://www.garmin.com/xmlschemas/TrackPointExtension/v1">
            <gpxtpx:hr>147</gpxtpx:hr>
          </gpxtpx:TrackPointExtension>
        </extensions>
      </trkpt>
      <trkpt lat="36.80193" lon="28.12584">
        <ele>1</ele>
        <time>2018-05-13T07:09:14Z</time>
        <extensions>
          <gpxtpx:TrackPointExtension xmlns:gpxtpx="http://www.garmin.com/xmlschemas/TrackPointExtension/v1">
            <gpxtpx:hr>147</gpxtpx:hr>
          </gpxtpx:TrackPointExtension>
        </extensions>
      </trkpt>
      <trkpt lat="36.80191" lon="28.1258">
        <ele>1</ele>
        <time>2018-05-13T07:09:13Z</time>
        <extensions>
          <gpxtpx:TrackPointExtension xmlns:gpxtpx="http://www.garmin.com/xmlschemas/TrackPointExtension/v1">
            <gpxtpx:hr>147</gpxtpx:hr>
          </gpxtpx:TrackPointExtension>
        </extensions>
      </trkpt>
      <trkpt lat="36.8019" lon="28.12577">
        <ele>1</ele>
        <time>2018-05-13T07:09:12Z</time>
        <extensions>
          <gpxtpx:TrackPointExtension xmlns:gpxtpx="http://www.garmin.com/xmlschemas/TrackPointExtension/v1">
            <gpxtpx:hr>147</gpxtpx:hr>
          </gpxtpx:TrackPointExtension>
        </extensions>
      </trkpt>
      <trkpt lat="36.80187" lon="28.12575">
        <ele>1</ele>
        <time>2018-05-13T07:09:11Z</time>
        <extensions>
          <gpxtpx:TrackPointExtension xmlns:gpxtpx="http://www.garmin.com/xmlschemas/TrackPointExtension/v1">
            <gpxtpx:hr>147</gpxtpx:hr>
          </gpxtpx:TrackPointExtension>
        </extensions>
      </trkpt>
      <trkpt lat="36.80185" lon="28.12573">
        <ele>1</ele>
        <time>2018-05-13T07:09:10Z</time>
        <extensions>
          <gpxtpx:TrackPointExtension xmlns:gpxtpx="http://www.garmin.com/xmlschemas/TrackPointExtension/v1">
            <gpxtpx:hr>147</gpxtpx:hr>
          </gpxtpx:TrackPointExtension>
        </extensions>
      </trkpt>
      <trkpt lat="36.8018" lon="28.12571">
        <ele>1</ele>
        <time>2018-05-13T07:09:08Z</time>
        <extensions>
          <gpxtpx:TrackPointExtension xmlns:gpxtpx="http://www.garmin.com/xmlschemas/TrackPointExtension/v1">
            <gpxtpx:hr>146</gpxtpx:hr>
          </gpxtpx:TrackPointExtension>
        </extensions>
      </trkpt>
      <trkpt lat="36.80175" lon="28.12569">
        <ele>1.1</ele>
        <time>2018-05-13T07:09:06Z</time>
        <extensions>
          <gpxtpx:TrackPointExtension xmlns:gpxtpx="http://www.garmin.com/xmlschemas/TrackPointExtension/v1">
            <gpxtpx:hr>146</gpxtpx:hr>
          </gpxtpx:TrackPointExtension>
        </extensions>
      </trkpt>
      <trkpt lat="36.8017" lon="28.12566">
        <ele>1.1</ele>
        <time>2018-05-13T07:09:04Z</time>
        <extensions>
          <gpxtpx:TrackPointExtension xmlns:gpxtpx="http://www.garmin.com/xmlschemas/TrackPointExtension/v1">
            <gpxtpx:hr>146</gpxtpx:hr>
          </gpxtpx:TrackPointExtension>
        </extensions>
      </trkpt>
      <trkpt lat="36.80167" lon="28.12565">
        <ele>1.1</ele>
        <time>2018-05-13T07:09:03Z</time>
        <extensions>
          <gpxtpx:TrackPointExtension xmlns:gpxtpx="http://www.garmin.com/xmlschemas/TrackPointExtension/v1">
            <gpxtpx:hr>146</gpxtpx:hr>
          </gpxtpx:TrackPointExtension>
        </extensions>
      </trkpt>
      <trkpt lat="36.80165" lon="28.12565">
        <ele>1.1</ele>
        <time>2018-05-13T07:09:02Z</time>
        <extensions>
          <gpxtpx:TrackPointExtension xmlns:gpxtpx="http://www.garmin.com/xmlschemas/TrackPointExtension/v1">
            <gpxtpx:hr>147</gpxtpx:hr>
          </gpxtpx:TrackPointExtension>
        </extensions>
      </trkpt>
      <trkpt lat="36.8016" lon="28.12564">
        <ele>1</ele>
        <time>2018-05-13T07:09:00Z</time>
        <extensions>
          <gpxtpx:TrackPointExtension xmlns:gpxtpx="http://www.garmin.com/xmlschemas/TrackPointExtension/v1">
            <gpxtpx:hr>147</gpxtpx:hr>
          </gpxtpx:TrackPointExtension>
        </extensions>
      </trkpt>
      <trkpt lat="36.80157" lon="28.12563">
        <ele>1</ele>
        <time>2018-05-13T07:08:59Z</time>
        <extensions>
          <gpxtpx:TrackPointExtension xmlns:gpxtpx="http://www.garmin.com/xmlschemas/TrackPointExtension/v1">
            <gpxtpx:hr>147</gpxtpx:hr>
          </gpxtpx:TrackPointExtension>
        </extensions>
      </trkpt>
      <trkpt lat="36.80154" lon="28.12562">
        <ele>1</ele>
        <time>2018-05-13T07:08:58Z</time>
        <extensions>
          <gpxtpx:TrackPointExtension xmlns:gpxtpx="http://www.garmin.com/xmlschemas/TrackPointExtension/v1">
            <gpxtpx:hr>147</gpxtpx:hr>
          </gpxtpx:TrackPointExtension>
        </extensions>
      </trkpt>
      <trkpt lat="36.80149" lon="28.1256">
        <ele>1</ele>
        <time>2018-05-13T07:08:56Z</time>
        <extensions>
          <gpxtpx:TrackPointExtension xmlns:gpxtpx="http://www.garmin.com/xmlschemas/TrackPointExtension/v1">
            <gpxtpx:hr>147</gpxtpx:hr>
          </gpxtpx:TrackPointExtension>
        </extensions>
      </trkpt>
      <trkpt lat="36.80145" lon="28.12557">
        <ele>1</ele>
        <time>2018-05-13T07:08:54Z</time>
        <extensions>
          <gpxtpx:TrackPointExtension xmlns:gpxtpx="http://www.garmin.com/xmlschemas/TrackPointExtension/v1">
            <gpxtpx:hr>147</gpxtpx:hr>
          </gpxtpx:TrackPointExtension>
        </extensions>
      </trkpt>
      <trkpt lat="36.80142" lon="28.12555">
        <ele>1</ele>
        <time>2018-05-13T07:08:53Z</time>
        <extensions>
          <gpxtpx:TrackPointExtension xmlns:gpxtpx="http://www.garmin.com/xmlschemas/TrackPointExtension/v1">
            <gpxtpx:hr>147</gpxtpx:hr>
          </gpxtpx:TrackPointExtension>
        </extensions>
      </trkpt>
      <trkpt lat="36.8014" lon="28.12553">
        <ele>1</ele>
        <time>2018-05-13T07:08:52Z</time>
        <extensions>
          <gpxtpx:TrackPointExtension xmlns:gpxtpx="http://www.garmin.com/xmlschemas/TrackPointExtension/v1">
            <gpxtpx:hr>146</gpxtpx:hr>
          </gpxtpx:TrackPointExtension>
        </extensions>
      </trkpt>
      <trkpt lat="36.80136" lon="28.12549">
        <ele>1</ele>
        <time>2018-05-13T07:08:50Z</time>
        <extensions>
          <gpxtpx:TrackPointExtension xmlns:gpxtpx="http://www.garmin.com/xmlschemas/TrackPointExtension/v1">
            <gpxtpx:hr>146</gpxtpx:hr>
          </gpxtpx:TrackPointExtension>
        </extensions>
      </trkpt>
      <trkpt lat="36.80133" lon="28.12546">
        <ele>1.1</ele>
        <time>2018-05-13T07:08:48Z</time>
        <extensions>
          <gpxtpx:TrackPointExtension xmlns:gpxtpx="http://www.garmin.com/xmlschemas/TrackPointExtension/v1">
            <gpxtpx:hr>146</gpxtpx:hr>
          </gpxtpx:TrackPointExtension>
        </extensions>
      </trkpt>
      <trkpt lat="36.80128" lon="28.12543">
        <ele>1.1</ele>
        <time>2018-05-13T07:08:46Z</time>
        <extensions>
          <gpxtpx:TrackPointExtension xmlns:gpxtpx="http://www.garmin.com/xmlschemas/TrackPointExtension/v1">
            <gpxtpx:hr>146</gpxtpx:hr>
          </gpxtpx:TrackPointExtension>
        </extensions>
      </trkpt>
      <trkpt lat="36.80125" lon="28.12541">
        <ele>1.1</ele>
        <time>2018-05-13T07:08:45Z</time>
        <extensions>
          <gpxtpx:TrackPointExtension xmlns:gpxtpx="http://www.garmin.com/xmlschemas/TrackPointExtension/v1">
            <gpxtpx:hr>146</gpxtpx:hr>
          </gpxtpx:TrackPointExtension>
        </extensions>
      </trkpt>
      <trkpt lat="36.8012" lon="28.12538">
        <ele>1.1</ele>
        <time>2018-05-13T07:08:43Z</time>
        <extensions>
          <gpxtpx:TrackPointExtension xmlns:gpxtpx="http://www.garmin.com/xmlschemas/TrackPointExtension/v1">
            <gpxtpx:hr>146</gpxtpx:hr>
          </gpxtpx:TrackPointExtension>
        </extensions>
      </trkpt>
      <trkpt lat="36.80116" lon="28.12535">
        <ele>1.1</ele>
        <time>2018-05-13T07:08:41Z</time>
        <extensions>
          <gpxtpx:TrackPointExtension xmlns:gpxtpx="http://www.garmin.com/xmlschemas/TrackPointExtension/v1">
            <gpxtpx:hr>147</gpxtpx:hr>
          </gpxtpx:TrackPointExtension>
        </extensions>
      </trkpt>
      <trkpt lat="36.80112" lon="28.12531">
        <ele>1.1</ele>
        <time>2018-05-13T07:08:39Z</time>
        <extensions>
          <gpxtpx:TrackPointExtension xmlns:gpxtpx="http://www.garmin.com/xmlschemas/TrackPointExtension/v1">
            <gpxtpx:hr>146</gpxtpx:hr>
          </gpxtpx:TrackPointExtension>
        </extensions>
      </trkpt>
      <trkpt lat="36.80107" lon="28.12528">
        <ele>1.1</ele>
        <time>2018-05-13T07:08:37Z</time>
        <extensions>
          <gpxtpx:TrackPointExtension xmlns:gpxtpx="http://www.garmin.com/xmlschemas/TrackPointExtension/v1">
            <gpxtpx:hr>146</gpxtpx:hr>
          </gpxtpx:TrackPointExtension>
        </extensions>
      </trkpt>
      <trkpt lat="36.80104" lon="28.12526">
        <ele>1.1</ele>
        <time>2018-05-13T07:08:35Z</time>
        <extensions>
          <gpxtpx:TrackPointExtension xmlns:gpxtpx="http://www.garmin.com/xmlschemas/TrackPointExtension/v1">
            <gpxtpx:hr>146</gpxtpx:hr>
          </gpxtpx:TrackPointExtension>
        </extensions>
      </trkpt>
      <trkpt lat="36.80099" lon="28.12524">
        <ele>1.1</ele>
        <time>2018-05-13T07:08:33Z</time>
        <extensions>
          <gpxtpx:TrackPointExtension xmlns:gpxtpx="http://www.garmin.com/xmlschemas/TrackPointExtension/v1">
            <gpxtpx:hr>147</gpxtpx:hr>
          </gpxtpx:TrackPointExtension>
        </extensions>
      </trkpt>
      <trkpt lat="36.80094" lon="28.12522">
        <ele>1.1</ele>
        <time>2018-05-13T07:08:31Z</time>
        <extensions>
          <gpxtpx:TrackPointExtension xmlns:gpxtpx="http://www.garmin.com/xmlschemas/TrackPointExtension/v1">
            <gpxtpx:hr>149</gpxtpx:hr>
          </gpxtpx:TrackPointExtension>
        </extensions>
      </trkpt>
      <trkpt lat="36.8009" lon="28.1252">
        <ele>1.1</ele>
        <time>2018-05-13T07:08:29Z</time>
        <extensions>
          <gpxtpx:TrackPointExtension xmlns:gpxtpx="http://www.garmin.com/xmlschemas/TrackPointExtension/v1">
            <gpxtpx:hr>152</gpxtpx:hr>
          </gpxtpx:TrackPointExtension>
        </extensions>
      </trkpt>
      <trkpt lat="36.80087" lon="28.12517">
        <ele>1.1</ele>
        <time>2018-05-13T07:08:27Z</time>
        <extensions>
          <gpxtpx:TrackPointExtension xmlns:gpxtpx="http://www.garmin.com/xmlschemas/TrackPointExtension/v1">
            <gpxtpx:hr>155</gpxtpx:hr>
          </gpxtpx:TrackPointExtension>
        </extensions>
      </trkpt>
      <trkpt lat="36.80085" lon="28.12513">
        <ele>1.1</ele>
        <time>2018-05-13T07:08:25Z</time>
        <extensions>
          <gpxtpx:TrackPointExtension xmlns:gpxtpx="http://www.garmin.com/xmlschemas/TrackPointExtension/v1">
            <gpxtpx:hr>157</gpxtpx:hr>
          </gpxtpx:TrackPointExtension>
        </extensions>
      </trkpt>
      <trkpt lat="36.80082" lon="28.1251">
        <ele>1.1</ele>
        <time>2018-05-13T07:08:10Z</time>
        <extensions>
          <gpxtpx:TrackPointExtension xmlns:gpxtpx="http://www.garmin.com/xmlschemas/TrackPointExtension/v1">
            <gpxtpx:hr>159</gpxtpx:hr>
          </gpxtpx:TrackPointExtension>
        </extensions>
      </trkpt>
      <trkpt lat="36.8008" lon="28.12513">
        <ele>1.1</ele>
        <time>2018-05-13T07:08:07Z</time>
        <extensions>
          <gpxtpx:TrackPointExtension xmlns:gpxtpx="http://www.garmin.com/xmlschemas/TrackPointExtension/v1">
            <gpxtpx:hr>157</gpxtpx:hr>
          </gpxtpx:TrackPointExtension>
        </extensions>
      </trkpt>
      <trkpt lat="36.80075" lon="28.12515">
        <ele>1.1</ele>
        <time>2018-05-13T07:08:05Z</time>
        <extensions>
          <gpxtpx:TrackPointExtension xmlns:gpxtpx="http://www.garmin.com/xmlschemas/TrackPointExtension/v1">
            <gpxtpx:hr>157</gpxtpx:hr>
          </gpxtpx:TrackPointExtension>
        </extensions>
      </trkpt>
      <trkpt lat="36.80071" lon="28.12518">
        <ele>1.1</ele>
        <time>2018-05-13T07:08:03Z</time>
        <extensions>
          <gpxtpx:TrackPointExtension xmlns:gpxtpx="http://www.garmin.com/xmlschemas/TrackPointExtension/v1">
            <gpxtpx:hr>157</gpxtpx:hr>
          </gpxtpx:TrackPointExtension>
        </extensions>
      </trkpt>
      <trkpt lat="36.80067" lon="28.12522">
        <ele>1.1</ele>
        <time>2018-05-13T07:08:01Z</time>
        <extensions>
          <gpxtpx:TrackPointExtension xmlns:gpxtpx="http://www.garmin.com/xmlschemas/TrackPointExtension/v1">
            <gpxtpx:hr>157</gpxtpx:hr>
          </gpxtpx:TrackPointExtension>
        </extensions>
      </trkpt>
      <trkpt lat="36.80065" lon="28.12523">
        <ele>1.1</ele>
        <time>2018-05-13T07:08:00Z</time>
        <extensions>
          <gpxtpx:TrackPointExtension xmlns:gpxtpx="http://www.garmin.com/xmlschemas/TrackPointExtension/v1">
            <gpxtpx:hr>158</gpxtpx:hr>
          </gpxtpx:TrackPointExtension>
        </extensions>
      </trkpt>
      <trkpt lat="36.80061" lon="28.12524">
        <ele>1.1</ele>
        <time>2018-05-13T07:07:59Z</time>
        <extensions>
          <gpxtpx:TrackPointExtension xmlns:gpxtpx="http://www.garmin.com/xmlschemas/TrackPointExtension/v1">
            <gpxtpx:hr>158</gpxtpx:hr>
          </gpxtpx:TrackPointExtension>
        </extensions>
      </trkpt>
      <trkpt lat="36.80057" lon="28.12526">
        <ele>1.1</ele>
        <time>2018-05-13T07:07:58Z</time>
        <extensions>
          <gpxtpx:TrackPointExtension xmlns:gpxtpx="http://www.garmin.com/xmlschemas/TrackPointExtension/v1">
            <gpxtpx:hr>159</gpxtpx:hr>
          </gpxtpx:TrackPointExtension>
        </extensions>
      </trkpt>
      <trkpt lat="36.80053" lon="28.12527">
        <ele>1.1</ele>
        <time>2018-05-13T07:07:57Z</time>
        <extensions>
          <gpxtpx:TrackPointExtension xmlns:gpxtpx="http://www.garmin.com/xmlschemas/TrackPointExtension/v1">
            <gpxtpx:hr>159</gpxtpx:hr>
          </gpxtpx:TrackPointExtension>
        </extensions>
      </trkpt>
      <trkpt lat="36.8005" lon="28.12528">
        <ele>1.1</ele>
        <time>2018-05-13T07:07:56Z</time>
        <extensions>
          <gpxtpx:TrackPointExtension xmlns:gpxtpx="http://www.garmin.com/xmlschemas/TrackPointExtension/v1">
            <gpxtpx:hr>159</gpxtpx:hr>
          </gpxtpx:TrackPointExtension>
        </extensions>
      </trkpt>
      <trkpt lat="36.80046" lon="28.12531">
        <ele>1.1</ele>
        <time>2018-05-13T07:07:54Z</time>
        <extensions>
          <gpxtpx:TrackPointExtension xmlns:gpxtpx="http://www.garmin.com/xmlschemas/TrackPointExtension/v1">
            <gpxtpx:hr>159</gpxtpx:hr>
          </gpxtpx:TrackPointExtension>
        </extensions>
      </trkpt>
      <trkpt lat="36.80042" lon="28.12535">
        <ele>1.1</ele>
        <time>2018-05-13T07:07:52Z</time>
        <extensions>
          <gpxtpx:TrackPointExtension xmlns:gpxtpx="http://www.garmin.com/xmlschemas/TrackPointExtension/v1">
            <gpxtpx:hr>160</gpxtpx:hr>
          </gpxtpx:TrackPointExtension>
        </extensions>
      </trkpt>
      <trkpt lat="36.8004" lon="28.12537">
        <ele>1.1</ele>
        <time>2018-05-13T07:07:51Z</time>
        <extensions>
          <gpxtpx:TrackPointExtension xmlns:gpxtpx="http://www.garmin.com/xmlschemas/TrackPointExtension/v1">
            <gpxtpx:hr>160</gpxtpx:hr>
          </gpxtpx:TrackPointExtension>
        </extensions>
      </trkpt>
      <trkpt lat="36.80037" lon="28.12539">
        <ele>1.1</ele>
        <time>2018-05-13T07:07:50Z</time>
        <extensions>
          <gpxtpx:TrackPointExtension xmlns:gpxtpx="http://www.garmin.com/xmlschemas/TrackPointExtension/v1">
            <gpxtpx:hr>160</gpxtpx:hr>
          </gpxtpx:TrackPointExtension>
        </extensions>
      </trkpt>
      <trkpt lat="36.80034" lon="28.1254">
        <ele>1.1</ele>
        <time>2018-05-13T07:07:49Z</time>
        <extensions>
          <gpxtpx:TrackPointExtension xmlns:gpxtpx="http://www.garmin.com/xmlschemas/TrackPointExtension/v1">
            <gpxtpx:hr>159</gpxtpx:hr>
          </gpxtpx:TrackPointExtension>
        </extensions>
      </trkpt>
      <trkpt lat="36.80032" lon="28.12541">
        <ele>1.1</ele>
        <time>2018-05-13T07:07:48Z</time>
        <extensions>
          <gpxtpx:TrackPointExtension xmlns:gpxtpx="http://www.garmin.com/xmlschemas/TrackPointExtension/v1">
            <gpxtpx:hr>159</gpxtpx:hr>
          </gpxtpx:TrackPointExtension>
        </extensions>
      </trkpt>
      <trkpt lat="36.80029" lon="28.12542">
        <ele>1.2</ele>
        <time>2018-05-13T07:07:47Z</time>
        <extensions>
          <gpxtpx:TrackPointExtension xmlns:gpxtpx="http://www.garmin.com/xmlschemas/TrackPointExtension/v1">
            <gpxtpx:hr>159</gpxtpx:hr>
          </gpxtpx:TrackPointExtension>
        </extensions>
      </trkpt>
      <trkpt lat="36.80025" lon="28.12545">
        <ele>1.2</ele>
        <time>2018-05-13T07:07:45Z</time>
        <extensions>
          <gpxtpx:TrackPointExtension xmlns:gpxtpx="http://www.garmin.com/xmlschemas/TrackPointExtension/v1">
            <gpxtpx:hr>159</gpxtpx:hr>
          </gpxtpx:TrackPointExtension>
        </extensions>
      </trkpt>
      <trkpt lat="36.80021" lon="28.12549">
        <ele>1.2</ele>
        <time>2018-05-13T07:07:43Z</time>
        <extensions>
          <gpxtpx:TrackPointExtension xmlns:gpxtpx="http://www.garmin.com/xmlschemas/TrackPointExtension/v1">
            <gpxtpx:hr>158</gpxtpx:hr>
          </gpxtpx:TrackPointExtension>
        </extensions>
      </trkpt>
      <trkpt lat="36.80019" lon="28.12551">
        <ele>1.2</ele>
        <time>2018-05-13T07:07:42Z</time>
        <extensions>
          <gpxtpx:TrackPointExtension xmlns:gpxtpx="http://www.garmin.com/xmlschemas/TrackPointExtension/v1">
            <gpxtpx:hr>158</gpxtpx:hr>
          </gpxtpx:TrackPointExtension>
        </extensions>
      </trkpt>
      <trkpt lat="36.80016" lon="28.12556">
        <ele>1.2</ele>
        <time>2018-05-13T07:07:40Z</time>
        <extensions>
          <gpxtpx:TrackPointExtension xmlns:gpxtpx="http://www.garmin.com/xmlschemas/TrackPointExtension/v1">
            <gpxtpx:hr>158</gpxtpx:hr>
          </gpxtpx:TrackPointExtension>
        </extensions>
      </trkpt>
      <trkpt lat="36.80015" lon="28.12559">
        <ele>1.2</ele>
        <time>2018-05-13T07:07:39Z</time>
        <extensions>
          <gpxtpx:TrackPointExtension xmlns:gpxtpx="http://www.garmin.com/xmlschemas/TrackPointExtension/v1">
            <gpxtpx:hr>158</gpxtpx:hr>
          </gpxtpx:TrackPointExtension>
        </extensions>
      </trkpt>
      <trkpt lat="36.80014" lon="28.12563">
        <ele>1.2</ele>
        <time>2018-05-13T07:07:38Z</time>
        <extensions>
          <gpxtpx:TrackPointExtension xmlns:gpxtpx="http://www.garmin.com/xmlschemas/TrackPointExtension/v1">
            <gpxtpx:hr>159</gpxtpx:hr>
          </gpxtpx:TrackPointExtension>
        </extensions>
      </trkpt>
      <trkpt lat="36.80013" lon="28.1257">
        <ele>1.3</ele>
        <time>2018-05-13T07:07:36Z</time>
        <extensions>
          <gpxtpx:TrackPointExtension xmlns:gpxtpx="http://www.garmin.com/xmlschemas/TrackPointExtension/v1">
            <gpxtpx:hr>159</gpxtpx:hr>
          </gpxtpx:TrackPointExtension>
        </extensions>
      </trkpt>
      <trkpt lat="36.80013" lon="28.12573">
        <ele>1.3</ele>
        <time>2018-05-13T07:07:35Z</time>
        <extensions>
          <gpxtpx:TrackPointExtension xmlns:gpxtpx="http://www.garmin.com/xmlschemas/TrackPointExtension/v1">
            <gpxtpx:hr>159</gpxtpx:hr>
          </gpxtpx:TrackPointExtension>
        </extensions>
      </trkpt>
      <trkpt lat="36.80013" lon="28.12577">
        <ele>1.3</ele>
        <time>2018-05-13T07:07:34Z</time>
        <extensions>
          <gpxtpx:TrackPointExtension xmlns:gpxtpx="http://www.garmin.com/xmlschemas/TrackPointExtension/v1">
            <gpxtpx:hr>159</gpxtpx:hr>
          </gpxtpx:TrackPointExtension>
        </extensions>
      </trkpt>
      <trkpt lat="36.80013" lon="28.12581">
        <ele>1.4</ele>
        <time>2018-05-13T07:07:33Z</time>
        <extensions>
          <gpxtpx:TrackPointExtension xmlns:gpxtpx="http://www.garmin.com/xmlschemas/TrackPointExtension/v1">
            <gpxtpx:hr>158</gpxtpx:hr>
          </gpxtpx:TrackPointExtension>
        </extensions>
      </trkpt>
      <trkpt lat="36.80013" lon="28.12584">
        <ele>1.5</ele>
        <time>2018-05-13T07:07:32Z</time>
        <extensions>
          <gpxtpx:TrackPointExtension xmlns:gpxtpx="http://www.garmin.com/xmlschemas/TrackPointExtension/v1">
            <gpxtpx:hr>158</gpxtpx:hr>
          </gpxtpx:TrackPointExtension>
        </extensions>
      </trkpt>
      <trkpt lat="36.80012" lon="28.1259">
        <ele>1.6</ele>
        <time>2018-05-13T07:07:30Z</time>
        <extensions>
          <gpxtpx:TrackPointExtension xmlns:gpxtpx="http://www.garmin.com/xmlschemas/TrackPointExtension/v1">
            <gpxtpx:hr>158</gpxtpx:hr>
          </gpxtpx:TrackPointExtension>
        </extensions>
      </trkpt>
      <trkpt lat="36.80011" lon="28.12594">
        <ele>1.6</ele>
        <time>2018-05-13T07:07:29Z</time>
        <extensions>
          <gpxtpx:TrackPointExtension xmlns:gpxtpx="http://www.garmin.com/xmlschemas/TrackPointExtension/v1">
            <gpxtpx:hr>158</gpxtpx:hr>
          </gpxtpx:TrackPointExtension>
        </extensions>
      </trkpt>
      <trkpt lat="36.80011" lon="28.12598">
        <ele>1.7</ele>
        <time>2018-05-13T07:07:28Z</time>
        <extensions>
          <gpxtpx:TrackPointExtension xmlns:gpxtpx="http://www.garmin.com/xmlschemas/TrackPointExtension/v1">
            <gpxtpx:hr>158</gpxtpx:hr>
          </gpxtpx:TrackPointExtension>
        </extensions>
      </trkpt>
      <trkpt lat="36.80009" lon="28.12604">
        <ele>1.8</ele>
        <time>2018-05-13T07:07:26Z</time>
        <extensions>
          <gpxtpx:TrackPointExtension xmlns:gpxtpx="http://www.garmin.com/xmlschemas/TrackPointExtension/v1">
            <gpxtpx:hr>158</gpxtpx:hr>
          </gpxtpx:TrackPointExtension>
        </extensions>
      </trkpt>
      <trkpt lat="36.80007" lon="28.12609">
        <ele>1.8</ele>
        <time>2018-05-13T07:07:24Z</time>
        <extensions>
          <gpxtpx:TrackPointExtension xmlns:gpxtpx="http://www.garmin.com/xmlschemas/TrackPointExtension/v1">
            <gpxtpx:hr>157</gpxtpx:hr>
          </gpxtpx:TrackPointExtension>
        </extensions>
      </trkpt>
      <trkpt lat="36.80006" lon="28.12612">
        <ele>1.9</ele>
        <time>2018-05-13T07:07:23Z</time>
        <extensions>
          <gpxtpx:TrackPointExtension xmlns:gpxtpx="http://www.garmin.com/xmlschemas/TrackPointExtension/v1">
            <gpxtpx:hr>157</gpxtpx:hr>
          </gpxtpx:TrackPointExtension>
        </extensions>
      </trkpt>
      <trkpt lat="36.80005" lon="28.12616">
        <ele>1.9</ele>
        <time>2018-05-13T07:07:22Z</time>
        <extensions>
          <gpxtpx:TrackPointExtension xmlns:gpxtpx="http://www.garmin.com/xmlschemas/TrackPointExtension/v1">
            <gpxtpx:hr>157</gpxtpx:hr>
          </gpxtpx:TrackPointExtension>
        </extensions>
      </trkpt>
      <trkpt lat="36.80004" lon="28.12619">
        <ele>1.9</ele>
        <time>2018-05-13T07:07:21Z</time>
        <extensions>
          <gpxtpx:TrackPointExtension xmlns:gpxtpx="http://www.garmin.com/xmlschemas/TrackPointExtension/v1">
            <gpxtpx:hr>157</gpxtpx:hr>
          </gpxtpx:TrackPointExtension>
        </extensions>
      </trkpt>
      <trkpt lat="36.80003" lon="28.12622">
        <ele>1.8</ele>
        <time>2018-05-13T07:07:20Z</time>
        <extensions>
          <gpxtpx:TrackPointExtension xmlns:gpxtpx="http://www.garmin.com/xmlschemas/TrackPointExtension/v1">
            <gpxtpx:hr>157</gpxtpx:hr>
          </gpxtpx:TrackPointExtension>
        </extensions>
      </trkpt>
      <trkpt lat="36.80001" lon="28.12628">
        <ele>1.9</ele>
        <time>2018-05-13T07:07:18Z</time>
        <extensions>
          <gpxtpx:TrackPointExtension xmlns:gpxtpx="http://www.garmin.com/xmlschemas/TrackPointExtension/v1">
            <gpxtpx:hr>157</gpxtpx:hr>
          </gpxtpx:TrackPointExtension>
        </extensions>
      </trkpt>
      <trkpt lat="36.8" lon="28.12631">
        <ele>1.7</ele>
        <time>2018-05-13T07:07:17Z</time>
        <extensions>
          <gpxtpx:TrackPointExtension xmlns:gpxtpx="http://www.garmin.com/xmlschemas/TrackPointExtension/v1">
            <gpxtpx:hr>157</gpxtpx:hr>
          </gpxtpx:TrackPointExtension>
        </extensions>
      </trkpt>
      <trkpt lat="36.79998" lon="28.12634">
        <ele>1.7</ele>
        <time>2018-05-13T07:07:16Z</time>
        <extensions>
          <gpxtpx:TrackPointExtension xmlns:gpxtpx="http://www.garmin.com/xmlschemas/TrackPointExtension/v1">
            <gpxtpx:hr>157</gpxtpx:hr>
          </gpxtpx:TrackPointExtension>
        </extensions>
      </trkpt>
      <trkpt lat="36.79996" lon="28.12636">
        <ele>1.4</ele>
        <time>2018-05-13T07:07:15Z</time>
        <extensions>
          <gpxtpx:TrackPointExtension xmlns:gpxtpx="http://www.garmin.com/xmlschemas/TrackPointExtension/v1">
            <gpxtpx:hr>156</gpxtpx:hr>
          </gpxtpx:TrackPointExtension>
        </extensions>
      </trkpt>
      <trkpt lat="36.79994" lon="28.12639">
        <ele>1.4</ele>
        <time>2018-05-13T07:07:14Z</time>
        <extensions>
          <gpxtpx:TrackPointExtension xmlns:gpxtpx="http://www.garmin.com/xmlschemas/TrackPointExtension/v1">
            <gpxtpx:hr>156</gpxtpx:hr>
          </gpxtpx:TrackPointExtension>
        </extensions>
      </trkpt>
      <trkpt lat="36.79993" lon="28.12642">
        <ele>1.2</ele>
        <time>2018-05-13T07:07:13Z</time>
        <extensions>
          <gpxtpx:TrackPointExtension xmlns:gpxtpx="http://www.garmin.com/xmlschemas/TrackPointExtension/v1">
            <gpxtpx:hr>156</gpxtpx:hr>
          </gpxtpx:TrackPointExtension>
        </extensions>
      </trkpt>
      <trkpt lat="36.79991" lon="28.12645">
        <ele>1.2</ele>
        <time>2018-05-13T07:07:12Z</time>
        <extensions>
          <gpxtpx:TrackPointExtension xmlns:gpxtpx="http://www.garmin.com/xmlschemas/TrackPointExtension/v1">
            <gpxtpx:hr>156</gpxtpx:hr>
          </gpxtpx:TrackPointExtension>
        </extensions>
      </trkpt>
      <trkpt lat="36.79989" lon="28.12647">
        <ele>1.2</ele>
        <time>2018-05-13T07:07:11Z</time>
        <extensions>
          <gpxtpx:TrackPointExtension xmlns:gpxtpx="http://www.garmin.com/xmlschemas/TrackPointExtension/v1">
            <gpxtpx:hr>156</gpxtpx:hr>
          </gpxtpx:TrackPointExtension>
        </extensions>
      </trkpt>
      <trkpt lat="36.79988" lon="28.1265">
        <ele>1.3</ele>
        <time>2018-05-13T07:07:10Z</time>
        <extensions>
          <gpxtpx:TrackPointExtension xmlns:gpxtpx="http://www.garmin.com/xmlschemas/TrackPointExtension/v1">
            <gpxtpx:hr>155</gpxtpx:hr>
          </gpxtpx:TrackPointExtension>
        </extensions>
      </trkpt>
      <trkpt lat="36.79985" lon="28.12656">
        <ele>1.5</ele>
        <time>2018-05-13T07:07:08Z</time>
        <extensions>
          <gpxtpx:TrackPointExtension xmlns:gpxtpx="http://www.garmin.com/xmlschemas/TrackPointExtension/v1">
            <gpxtpx:hr>156</gpxtpx:hr>
          </gpxtpx:TrackPointExtension>
        </extensions>
      </trkpt>
      <trkpt lat="36.79981" lon="28.12661">
        <ele>1.6</ele>
        <time>2018-05-13T07:07:06Z</time>
        <extensions>
          <gpxtpx:TrackPointExtension xmlns:gpxtpx="http://www.garmin.com/xmlschemas/TrackPointExtension/v1">
            <gpxtpx:hr>156</gpxtpx:hr>
          </gpxtpx:TrackPointExtension>
        </extensions>
      </trkpt>
      <trkpt lat="36.7998" lon="28.12664">
        <ele>1.8</ele>
        <time>2018-05-13T07:07:05Z</time>
        <extensions>
          <gpxtpx:TrackPointExtension xmlns:gpxtpx="http://www.garmin.com/xmlschemas/TrackPointExtension/v1">
            <gpxtpx:hr>156</gpxtpx:hr>
          </gpxtpx:TrackPointExtension>
        </extensions>
      </trkpt>
      <trkpt lat="36.79978" lon="28.1267">
        <ele>2.2</ele>
        <time>2018-05-13T07:07:03Z</time>
        <extensions>
          <gpxtpx:TrackPointExtension xmlns:gpxtpx="http://www.garmin.com/xmlschemas/TrackPointExtension/v1">
            <gpxtpx:hr>157</gpxtpx:hr>
          </gpxtpx:TrackPointExtension>
        </extensions>
      </trkpt>
      <trkpt lat="36.79975" lon="28.12675">
        <ele>2.2</ele>
        <time>2018-05-13T07:07:01Z</time>
        <extensions>
          <gpxtpx:TrackPointExtension xmlns:gpxtpx="http://www.garmin.com/xmlschemas/TrackPointExtension/v1">
            <gpxtpx:hr>158</gpxtpx:hr>
          </gpxtpx:TrackPointExtension>
        </extensions>
      </trkpt>
      <trkpt lat="36.79972" lon="28.12679">
        <ele>2.1</ele>
        <time>2018-05-13T07:06:59Z</time>
        <extensions>
          <gpxtpx:TrackPointExtension xmlns:gpxtpx="http://www.garmin.com/xmlschemas/TrackPointExtension/v1">
            <gpxtpx:hr>157</gpxtpx:hr>
          </gpxtpx:TrackPointExtension>
        </extensions>
      </trkpt>
      <trkpt lat="36.7997" lon="28.12682">
        <ele>2.2</ele>
        <time>2018-05-13T07:06:58Z</time>
        <extensions>
          <gpxtpx:TrackPointExtension xmlns:gpxtpx="http://www.garmin.com/xmlschemas/TrackPointExtension/v1">
            <gpxtpx:hr>157</gpxtpx:hr>
          </gpxtpx:TrackPointExtension>
        </extensions>
      </trkpt>
      <trkpt lat="36.79967" lon="28.12688">
        <ele>1.9</ele>
        <time>2018-05-13T07:06:56Z</time>
        <extensions>
          <gpxtpx:TrackPointExtension xmlns:gpxtpx="http://www.garmin.com/xmlschemas/TrackPointExtension/v1">
            <gpxtpx:hr>157</gpxtpx:hr>
          </gpxtpx:TrackPointExtension>
        </extensions>
      </trkpt>
      <trkpt lat="36.79966" lon="28.12691">
        <ele>1.5</ele>
        <time>2018-05-13T07:06:55Z</time>
        <extensions>
          <gpxtpx:TrackPointExtension xmlns:gpxtpx="http://www.garmin.com/xmlschemas/TrackPointExtension/v1">
            <gpxtpx:hr>157</gpxtpx:hr>
          </gpxtpx:TrackPointExtension>
        </extensions>
      </trkpt>
      <trkpt lat="36.79964" lon="28.12694">
        <ele>1.5</ele>
        <time>2018-05-13T07:06:54Z</time>
        <extensions>
          <gpxtpx:TrackPointExtension xmlns:gpxtpx="http://www.garmin.com/xmlschemas/TrackPointExtension/v1">
            <gpxtpx:hr>157</gpxtpx:hr>
          </gpxtpx:TrackPointExtension>
        </extensions>
      </trkpt>
      <trkpt lat="36.79962" lon="28.12698">
        <ele>1.2</ele>
        <time>2018-05-13T07:06:53Z</time>
        <extensions>
          <gpxtpx:TrackPointExtension xmlns:gpxtpx="http://www.garmin.com/xmlschemas/TrackPointExtension/v1">
            <gpxtpx:hr>158</gpxtpx:hr>
          </gpxtpx:TrackPointExtension>
        </extensions>
      </trkpt>
      <trkpt lat="36.79961" lon="28.12701">
        <ele>1.2</ele>
        <time>2018-05-13T07:06:52Z</time>
        <extensions>
          <gpxtpx:TrackPointExtension xmlns:gpxtpx="http://www.garmin.com/xmlschemas/TrackPointExtension/v1">
            <gpxtpx:hr>158</gpxtpx:hr>
          </gpxtpx:TrackPointExtension>
        </extensions>
      </trkpt>
      <trkpt lat="36.79958" lon="28.12707">
        <ele>1.2</ele>
        <time>2018-05-13T07:06:50Z</time>
        <extensions>
          <gpxtpx:TrackPointExtension xmlns:gpxtpx="http://www.garmin.com/xmlschemas/TrackPointExtension/v1">
            <gpxtpx:hr>158</gpxtpx:hr>
          </gpxtpx:TrackPointExtension>
        </extensions>
      </trkpt>
      <trkpt lat="36.79956" lon="28.12709">
        <ele>1.1</ele>
        <time>2018-05-13T07:06:49Z</time>
        <extensions>
          <gpxtpx:TrackPointExtension xmlns:gpxtpx="http://www.garmin.com/xmlschemas/TrackPointExtension/v1">
            <gpxtpx:hr>158</gpxtpx:hr>
          </gpxtpx:TrackPointExtension>
        </extensions>
      </trkpt>
      <trkpt lat="36.79954" lon="28.12712">
        <ele>1.3</ele>
        <time>2018-05-13T07:06:48Z</time>
        <extensions>
          <gpxtpx:TrackPointExtension xmlns:gpxtpx="http://www.garmin.com/xmlschemas/TrackPointExtension/v1">
            <gpxtpx:hr>157</gpxtpx:hr>
          </gpxtpx:TrackPointExtension>
        </extensions>
      </trkpt>
      <trkpt lat="36.79952" lon="28.12715">
        <ele>1.4</ele>
        <time>2018-05-13T07:06:47Z</time>
        <extensions>
          <gpxtpx:TrackPointExtension xmlns:gpxtpx="http://www.garmin.com/xmlschemas/TrackPointExtension/v1">
            <gpxtpx:hr>157</gpxtpx:hr>
          </gpxtpx:TrackPointExtension>
        </extensions>
      </trkpt>
      <trkpt lat="36.79951" lon="28.12718">
        <ele>1.4</ele>
        <time>2018-05-13T07:06:46Z</time>
        <extensions>
          <gpxtpx:TrackPointExtension xmlns:gpxtpx="http://www.garmin.com/xmlschemas/TrackPointExtension/v1">
            <gpxtpx:hr>157</gpxtpx:hr>
          </gpxtpx:TrackPointExtension>
        </extensions>
      </trkpt>
      <trkpt lat="36.79949" lon="28.12724">
        <ele>1.7</ele>
        <time>2018-05-13T07:06:44Z</time>
        <extensions>
          <gpxtpx:TrackPointExtension xmlns:gpxtpx="http://www.garmin.com/xmlschemas/TrackPointExtension/v1">
            <gpxtpx:hr>158</gpxtpx:hr>
          </gpxtpx:TrackPointExtension>
        </extensions>
      </trkpt>
      <trkpt lat="36.79947" lon="28.1273">
        <ele>1.8</ele>
        <time>2018-05-13T07:06:42Z</time>
        <extensions>
          <gpxtpx:TrackPointExtension xmlns:gpxtpx="http://www.garmin.com/xmlschemas/TrackPointExtension/v1">
            <gpxtpx:hr>159</gpxtpx:hr>
          </gpxtpx:TrackPointExtension>
        </extensions>
      </trkpt>
      <trkpt lat="36.79945" lon="28.12733">
        <ele>1.8</ele>
        <time>2018-05-13T07:06:41Z</time>
        <extensions>
          <gpxtpx:TrackPointExtension xmlns:gpxtpx="http://www.garmin.com/xmlschemas/TrackPointExtension/v1">
            <gpxtpx:hr>159</gpxtpx:hr>
          </gpxtpx:TrackPointExtension>
        </extensions>
      </trkpt>
      <trkpt lat="36.79944" lon="28.12736">
        <ele>1.8</ele>
        <time>2018-05-13T07:06:40Z</time>
        <extensions>
          <gpxtpx:TrackPointExtension xmlns:gpxtpx="http://www.garmin.com/xmlschemas/TrackPointExtension/v1">
            <gpxtpx:hr>159</gpxtpx:hr>
          </gpxtpx:TrackPointExtension>
        </extensions>
      </trkpt>
      <trkpt lat="36.79943" lon="28.12739">
        <ele>1.8</ele>
        <time>2018-05-13T07:06:39Z</time>
        <extensions>
          <gpxtpx:TrackPointExtension xmlns:gpxtpx="http://www.garmin.com/xmlschemas/TrackPointExtension/v1">
            <gpxtpx:hr>159</gpxtpx:hr>
          </gpxtpx:TrackPointExtension>
        </extensions>
      </trkpt>
      <trkpt lat="36.79941" lon="28.12743">
        <ele>1.6</ele>
        <time>2018-05-13T07:06:38Z</time>
        <extensions>
          <gpxtpx:TrackPointExtension xmlns:gpxtpx="http://www.garmin.com/xmlschemas/TrackPointExtension/v1">
            <gpxtpx:hr>159</gpxtpx:hr>
          </gpxtpx:TrackPointExtension>
        </extensions>
      </trkpt>
      <trkpt lat="36.79938" lon="28.12748">
        <ele>1.4</ele>
        <time>2018-05-13T07:06:36Z</time>
        <extensions>
          <gpxtpx:TrackPointExtension xmlns:gpxtpx="http://www.garmin.com/xmlschemas/TrackPointExtension/v1">
            <gpxtpx:hr>159</gpxtpx:hr>
          </gpxtpx:TrackPointExtension>
        </extensions>
      </trkpt>
      <trkpt lat="36.79936" lon="28.12751">
        <ele>1.4</ele>
        <time>2018-05-13T07:06:35Z</time>
        <extensions>
          <gpxtpx:TrackPointExtension xmlns:gpxtpx="http://www.garmin.com/xmlschemas/TrackPointExtension/v1">
            <gpxtpx:hr>159</gpxtpx:hr>
          </gpxtpx:TrackPointExtension>
        </extensions>
      </trkpt>
      <trkpt lat="36.79933" lon="28.12754">
        <ele>1.2</ele>
        <time>2018-05-13T07:06:34Z</time>
        <extensions>
          <gpxtpx:TrackPointExtension xmlns:gpxtpx="http://www.garmin.com/xmlschemas/TrackPointExtension/v1">
            <gpxtpx:hr>160</gpxtpx:hr>
          </gpxtpx:TrackPointExtension>
        </extensions>
      </trkpt>
      <trkpt lat="36.79931" lon="28.12757">
        <ele>1.1</ele>
        <time>2018-05-13T07:06:33Z</time>
        <extensions>
          <gpxtpx:TrackPointExtension xmlns:gpxtpx="http://www.garmin.com/xmlschemas/TrackPointExtension/v1">
            <gpxtpx:hr>160</gpxtpx:hr>
          </gpxtpx:TrackPointExtension>
        </extensions>
      </trkpt>
      <trkpt lat="36.79929" lon="28.12759">
        <ele>1.2</ele>
        <time>2018-05-13T07:06:32Z</time>
        <extensions>
          <gpxtpx:TrackPointExtension xmlns:gpxtpx="http://www.garmin.com/xmlschemas/TrackPointExtension/v1">
            <gpxtpx:hr>160</gpxtpx:hr>
          </gpxtpx:TrackPointExtension>
        </extensions>
      </trkpt>
      <trkpt lat="36.79928" lon="28.12762">
        <ele>1.2</ele>
        <time>2018-05-13T07:06:31Z</time>
        <extensions>
          <gpxtpx:TrackPointExtension xmlns:gpxtpx="http://www.garmin.com/xmlschemas/TrackPointExtension/v1">
            <gpxtpx:hr>160</gpxtpx:hr>
          </gpxtpx:TrackPointExtension>
        </extensions>
      </trkpt>
      <trkpt lat="36.79926" lon="28.12765">
        <ele>1.2</ele>
        <time>2018-05-13T07:06:30Z</time>
        <extensions>
          <gpxtpx:TrackPointExtension xmlns:gpxtpx="http://www.garmin.com/xmlschemas/TrackPointExtension/v1">
            <gpxtpx:hr>160</gpxtpx:hr>
          </gpxtpx:TrackPointExtension>
        </extensions>
      </trkpt>
      <trkpt lat="36.79925" lon="28.12768">
        <ele>1.3</ele>
        <time>2018-05-13T07:06:29Z</time>
        <extensions>
          <gpxtpx:TrackPointExtension xmlns:gpxtpx="http://www.garmin.com/xmlschemas/TrackPointExtension/v1">
            <gpxtpx:hr>160</gpxtpx:hr>
          </gpxtpx:TrackPointExtension>
        </extensions>
      </trkpt>
      <trkpt lat="36.79923" lon="28.12771">
        <ele>1.4</ele>
        <time>2018-05-13T07:06:28Z</time>
        <extensions>
          <gpxtpx:TrackPointExtension xmlns:gpxtpx="http://www.garmin.com/xmlschemas/TrackPointExtension/v1">
            <gpxtpx:hr>160</gpxtpx:hr>
          </gpxtpx:TrackPointExtension>
        </extensions>
      </trkpt>
      <trkpt lat="36.79921" lon="28.12777">
        <ele>1.4</ele>
        <time>2018-05-13T07:06:26Z</time>
        <extensions>
          <gpxtpx:TrackPointExtension xmlns:gpxtpx="http://www.garmin.com/xmlschemas/TrackPointExtension/v1">
            <gpxtpx:hr>160</gpxtpx:hr>
          </gpxtpx:TrackPointExtension>
        </extensions>
      </trkpt>
      <trkpt lat="36.79918" lon="28.12782">
        <ele>1.5</ele>
        <time>2018-05-13T07:06:24Z</time>
        <extensions>
          <gpxtpx:TrackPointExtension xmlns:gpxtpx="http://www.garmin.com/xmlschemas/TrackPointExtension/v1">
            <gpxtpx:hr>160</gpxtpx:hr>
          </gpxtpx:TrackPointExtension>
        </extensions>
      </trkpt>
      <trkpt lat="36.79916" lon="28.12785">
        <ele>1.6</ele>
        <time>2018-05-13T07:06:23Z</time>
        <extensions>
          <gpxtpx:TrackPointExtension xmlns:gpxtpx="http://www.garmin.com/xmlschemas/TrackPointExtension/v1">
            <gpxtpx:hr>160</gpxtpx:hr>
          </gpxtpx:TrackPointExtension>
        </extensions>
      </trkpt>
      <trkpt lat="36.79915" lon="28.12787">
        <ele>1.5</ele>
        <time>2018-05-13T07:06:22Z</time>
        <extensions>
          <gpxtpx:TrackPointExtension xmlns:gpxtpx="http://www.garmin.com/xmlschemas/TrackPointExtension/v1">
            <gpxtpx:hr>160</gpxtpx:hr>
          </gpxtpx:TrackPointExtension>
        </extensions>
      </trkpt>
      <trkpt lat="36.79913" lon="28.1279">
        <ele>1.6</ele>
        <time>2018-05-13T07:06:21Z</time>
        <extensions>
          <gpxtpx:TrackPointExtension xmlns:gpxtpx="http://www.garmin.com/xmlschemas/TrackPointExtension/v1">
            <gpxtpx:hr>160</gpxtpx:hr>
          </gpxtpx:TrackPointExtension>
        </extensions>
      </trkpt>
      <trkpt lat="36.7991" lon="28.12793">
        <ele>1.7</ele>
        <time>2018-05-13T07:06:20Z</time>
        <extensions>
          <gpxtpx:TrackPointExtension xmlns:gpxtpx="http://www.garmin.com/xmlschemas/TrackPointExtension/v1">
            <gpxtpx:hr>160</gpxtpx:hr>
          </gpxtpx:TrackPointExtension>
        </extensions>
      </trkpt>
      <trkpt lat="36.79908" lon="28.12796">
        <ele>1.7</ele>
        <time>2018-05-13T07:06:19Z</time>
        <extensions>
          <gpxtpx:TrackPointExtension xmlns:gpxtpx="http://www.garmin.com/xmlschemas/TrackPointExtension/v1">
            <gpxtpx:hr>160</gpxtpx:hr>
          </gpxtpx:TrackPointExtension>
        </extensions>
      </trkpt>
      <trkpt lat="36.79907" lon="28.12799">
        <ele>1.7</ele>
        <time>2018-05-13T07:06:18Z</time>
        <extensions>
          <gpxtpx:TrackPointExtension xmlns:gpxtpx="http://www.garmin.com/xmlschemas/TrackPointExtension/v1">
            <gpxtpx:hr>160</gpxtpx:hr>
          </gpxtpx:TrackPointExtension>
        </extensions>
      </trkpt>
      <trkpt lat="36.79905" lon="28.12802">
        <ele>2</ele>
        <time>2018-05-13T07:06:17Z</time>
        <extensions>
          <gpxtpx:TrackPointExtension xmlns:gpxtpx="http://www.garmin.com/xmlschemas/TrackPointExtension/v1">
            <gpxtpx:hr>160</gpxtpx:hr>
          </gpxtpx:TrackPointExtension>
        </extensions>
      </trkpt>
      <trkpt lat="36.79903" lon="28.12804">
        <ele>1.9</ele>
        <time>2018-05-13T07:06:16Z</time>
        <extensions>
          <gpxtpx:TrackPointExtension xmlns:gpxtpx="http://www.garmin.com/xmlschemas/TrackPointExtension/v1">
            <gpxtpx:hr>160</gpxtpx:hr>
          </gpxtpx:TrackPointExtension>
        </extensions>
      </trkpt>
      <trkpt lat="36.799" lon="28.1281">
        <ele>2.3</ele>
        <time>2018-05-13T07:06:14Z</time>
        <extensions>
          <gpxtpx:TrackPointExtension xmlns:gpxtpx="http://www.garmin.com/xmlschemas/TrackPointExtension/v1">
            <gpxtpx:hr>160</gpxtpx:hr>
          </gpxtpx:TrackPointExtension>
        </extensions>
      </trkpt>
      <trkpt lat="36.79897" lon="28.12812">
        <ele>2.1</ele>
        <time>2018-05-13T07:06:13Z</time>
        <extensions>
          <gpxtpx:TrackPointExtension xmlns:gpxtpx="http://www.garmin.com/xmlschemas/TrackPointExtension/v1">
            <gpxtpx:hr>160</gpxtpx:hr>
          </gpxtpx:TrackPointExtension>
        </extensions>
      </trkpt>
      <trkpt lat="36.79895" lon="28.12815">
        <ele>2.4</ele>
        <time>2018-05-13T07:06:12Z</time>
        <extensions>
          <gpxtpx:TrackPointExtension xmlns:gpxtpx="http://www.garmin.com/xmlschemas/TrackPointExtension/v1">
            <gpxtpx:hr>160</gpxtpx:hr>
          </gpxtpx:TrackPointExtension>
        </extensions>
      </trkpt>
      <trkpt lat="36.79893" lon="28.12818">
        <ele>2.1</ele>
        <time>2018-05-13T07:06:11Z</time>
        <extensions>
          <gpxtpx:TrackPointExtension xmlns:gpxtpx="http://www.garmin.com/xmlschemas/TrackPointExtension/v1">
            <gpxtpx:hr>160</gpxtpx:hr>
          </gpxtpx:TrackPointExtension>
        </extensions>
      </trkpt>
      <trkpt lat="36.7989" lon="28.1282">
        <ele>2.1</ele>
        <time>2018-05-13T07:06:10Z</time>
        <extensions>
          <gpxtpx:TrackPointExtension xmlns:gpxtpx="http://www.garmin.com/xmlschemas/TrackPointExtension/v1">
            <gpxtpx:hr>159</gpxtpx:hr>
          </gpxtpx:TrackPointExtension>
        </extensions>
      </trkpt>
      <trkpt lat="36.79888" lon="28.12823">
        <ele>2.4</ele>
        <time>2018-05-13T07:06:09Z</time>
        <extensions>
          <gpxtpx:TrackPointExtension xmlns:gpxtpx="http://www.garmin.com/xmlschemas/TrackPointExtension/v1">
            <gpxtpx:hr>159</gpxtpx:hr>
          </gpxtpx:TrackPointExtension>
        </extensions>
      </trkpt>
      <trkpt lat="36.79885" lon="28.12825">
        <ele>2.2</ele>
        <time>2018-05-13T07:06:08Z</time>
        <extensions>
          <gpxtpx:TrackPointExtension xmlns:gpxtpx="http://www.garmin.com/xmlschemas/TrackPointExtension/v1">
            <gpxtpx:hr>159</gpxtpx:hr>
          </gpxtpx:TrackPointExtension>
        </extensions>
      </trkpt>
      <trkpt lat="36.79883" lon="28.12827">
        <ele>2.2</ele>
        <time>2018-05-13T07:06:07Z</time>
        <extensions>
          <gpxtpx:TrackPointExtension xmlns:gpxtpx="http://www.garmin.com/xmlschemas/TrackPointExtension/v1">
            <gpxtpx:hr>158</gpxtpx:hr>
          </gpxtpx:TrackPointExtension>
        </extensions>
      </trkpt>
      <trkpt lat="36.7988" lon="28.12829">
        <ele>2</ele>
        <time>2018-05-13T07:06:06Z</time>
        <extensions>
          <gpxtpx:TrackPointExtension xmlns:gpxtpx="http://www.garmin.com/xmlschemas/TrackPointExtension/v1">
            <gpxtpx:hr>158</gpxtpx:hr>
          </gpxtpx:TrackPointExtension>
        </extensions>
      </trkpt>
      <trkpt lat="36.79878" lon="28.12831">
        <ele>2.3</ele>
        <time>2018-05-13T07:06:05Z</time>
        <extensions>
          <gpxtpx:TrackPointExtension xmlns:gpxtpx="http://www.garmin.com/xmlschemas/TrackPointExtension/v1">
            <gpxtpx:hr>158</gpxtpx:hr>
          </gpxtpx:TrackPointExtension>
        </extensions>
      </trkpt>
      <trkpt lat="36.79875" lon="28.12833">
        <ele>2.1</ele>
        <time>2018-05-13T07:06:04Z</time>
        <extensions>
          <gpxtpx:TrackPointExtension xmlns:gpxtpx="http://www.garmin.com/xmlschemas/TrackPointExtension/v1">
            <gpxtpx:hr>157</gpxtpx:hr>
          </gpxtpx:TrackPointExtension>
        </extensions>
      </trkpt>
      <trkpt lat="36.79873" lon="28.12835">
        <ele>2</ele>
        <time>2018-05-13T07:06:03Z</time>
        <extensions>
          <gpxtpx:TrackPointExtension xmlns:gpxtpx="http://www.garmin.com/xmlschemas/TrackPointExtension/v1">
            <gpxtpx:hr>157</gpxtpx:hr>
          </gpxtpx:TrackPointExtension>
        </extensions>
      </trkpt>
      <trkpt lat="36.7987" lon="28.12837">
        <ele>2</ele>
        <time>2018-05-13T07:06:02Z</time>
        <extensions>
          <gpxtpx:TrackPointExtension xmlns:gpxtpx="http://www.garmin.com/xmlschemas/TrackPointExtension/v1">
            <gpxtpx:hr>157</gpxtpx:hr>
          </gpxtpx:TrackPointExtension>
        </extensions>
      </trkpt>
      <trkpt lat="36.79868" lon="28.12839">
        <ele>2.3</ele>
        <time>2018-05-13T07:06:01Z</time>
        <extensions>
          <gpxtpx:TrackPointExtension xmlns:gpxtpx="http://www.garmin.com/xmlschemas/TrackPointExtension/v1">
            <gpxtpx:hr>157</gpxtpx:hr>
          </gpxtpx:TrackPointExtension>
        </extensions>
      </trkpt>
      <trkpt lat="36.79865" lon="28.12842">
        <ele>2.1</ele>
        <time>2018-05-13T07:06:00Z</time>
        <extensions>
          <gpxtpx:TrackPointExtension xmlns:gpxtpx="http://www.garmin.com/xmlschemas/TrackPointExtension/v1">
            <gpxtpx:hr>157</gpxtpx:hr>
          </gpxtpx:TrackPointExtension>
        </extensions>
      </trkpt>
      <trkpt lat="36.79863" lon="28.12844">
        <ele>2.1</ele>
        <time>2018-05-13T07:05:59Z</time>
        <extensions>
          <gpxtpx:TrackPointExtension xmlns:gpxtpx="http://www.garmin.com/xmlschemas/TrackPointExtension/v1">
            <gpxtpx:hr>157</gpxtpx:hr>
          </gpxtpx:TrackPointExtension>
        </extensions>
      </trkpt>
      <trkpt lat="36.7986" lon="28.12846">
        <ele>2.1</ele>
        <time>2018-05-13T07:05:58Z</time>
        <extensions>
          <gpxtpx:TrackPointExtension xmlns:gpxtpx="http://www.garmin.com/xmlschemas/TrackPointExtension/v1">
            <gpxtpx:hr>157</gpxtpx:hr>
          </gpxtpx:TrackPointExtension>
        </extensions>
      </trkpt>
      <trkpt lat="36.79858" lon="28.12848">
        <ele>2.1</ele>
        <time>2018-05-13T07:05:57Z</time>
        <extensions>
          <gpxtpx:TrackPointExtension xmlns:gpxtpx="http://www.garmin.com/xmlschemas/TrackPointExtension/v1">
            <gpxtpx:hr>157</gpxtpx:hr>
          </gpxtpx:TrackPointExtension>
        </extensions>
      </trkpt>
      <trkpt lat="36.79855" lon="28.12851">
        <ele>2.1</ele>
        <time>2018-05-13T07:05:56Z</time>
        <extensions>
          <gpxtpx:TrackPointExtension xmlns:gpxtpx="http://www.garmin.com/xmlschemas/TrackPointExtension/v1">
            <gpxtpx:hr>156</gpxtpx:hr>
          </gpxtpx:TrackPointExtension>
        </extensions>
      </trkpt>
      <trkpt lat="36.79852" lon="28.12856">
        <ele>2.2</ele>
        <time>2018-05-13T07:05:54Z</time>
        <extensions>
          <gpxtpx:TrackPointExtension xmlns:gpxtpx="http://www.garmin.com/xmlschemas/TrackPointExtension/v1">
            <gpxtpx:hr>156</gpxtpx:hr>
          </gpxtpx:TrackPointExtension>
        </extensions>
      </trkpt>
      <trkpt lat="36.7985" lon="28.12858">
        <ele>2.2</ele>
        <time>2018-05-13T07:05:53Z</time>
        <extensions>
          <gpxtpx:TrackPointExtension xmlns:gpxtpx="http://www.garmin.com/xmlschemas/TrackPointExtension/v1">
            <gpxtpx:hr>156</gpxtpx:hr>
          </gpxtpx:TrackPointExtension>
        </extensions>
      </trkpt>
      <trkpt lat="36.79848" lon="28.12861">
        <ele>2.2</ele>
        <time>2018-05-13T07:05:52Z</time>
        <extensions>
          <gpxtpx:TrackPointExtension xmlns:gpxtpx="http://www.garmin.com/xmlschemas/TrackPointExtension/v1">
            <gpxtpx:hr>156</gpxtpx:hr>
          </gpxtpx:TrackPointExtension>
        </extensions>
      </trkpt>
      <trkpt lat="36.79846" lon="28.12863">
        <ele>2.3</ele>
        <time>2018-05-13T07:05:51Z</time>
        <extensions>
          <gpxtpx:TrackPointExtension xmlns:gpxtpx="http://www.garmin.com/xmlschemas/TrackPointExtension/v1">
            <gpxtpx:hr>156</gpxtpx:hr>
          </gpxtpx:TrackPointExtension>
        </extensions>
      </trkpt>
      <trkpt lat="36.79843" lon="28.12865">
        <ele>2.5</ele>
        <time>2018-05-13T07:05:50Z</time>
        <extensions>
          <gpxtpx:TrackPointExtension xmlns:gpxtpx="http://www.garmin.com/xmlschemas/TrackPointExtension/v1">
            <gpxtpx:hr>156</gpxtpx:hr>
          </gpxtpx:TrackPointExtension>
        </extensions>
      </trkpt>
      <trkpt lat="36.79841" lon="28.12867">
        <ele>2.8</ele>
        <time>2018-05-13T07:05:49Z</time>
        <extensions>
          <gpxtpx:TrackPointExtension xmlns:gpxtpx="http://www.garmin.com/xmlschemas/TrackPointExtension/v1">
            <gpxtpx:hr>156</gpxtpx:hr>
          </gpxtpx:TrackPointExtension>
        </extensions>
      </trkpt>
      <trkpt lat="36.79839" lon="28.12869">
        <ele>2.9</ele>
        <time>2018-05-13T07:05:48Z</time>
        <extensions>
          <gpxtpx:TrackPointExtension xmlns:gpxtpx="http://www.garmin.com/xmlschemas/TrackPointExtension/v1">
            <gpxtpx:hr>156</gpxtpx:hr>
          </gpxtpx:TrackPointExtension>
        </extensions>
      </trkpt>
      <trkpt lat="36.79836" lon="28.12871">
        <ele>3.1</ele>
        <time>2018-05-13T07:05:47Z</time>
        <extensions>
          <gpxtpx:TrackPointExtension xmlns:gpxtpx="http://www.garmin.com/xmlschemas/TrackPointExtension/v1">
            <gpxtpx:hr>156</gpxtpx:hr>
          </gpxtpx:TrackPointExtension>
        </extensions>
      </trkpt>
      <trkpt lat="36.79833" lon="28.12873">
        <ele>3.2</ele>
        <time>2018-05-13T07:05:46Z</time>
        <extensions>
          <gpxtpx:TrackPointExtension xmlns:gpxtpx="http://www.garmin.com/xmlschemas/TrackPointExtension/v1">
            <gpxtpx:hr>155</gpxtpx:hr>
          </gpxtpx:TrackPointExtension>
        </extensions>
      </trkpt>
      <trkpt lat="36.79828" lon="28.12877">
        <ele>3.4</ele>
        <time>2018-05-13T07:05:44Z</time>
        <extensions>
          <gpxtpx:TrackPointExtension xmlns:gpxtpx="http://www.garmin.com/xmlschemas/TrackPointExtension/v1">
            <gpxtpx:hr>155</gpxtpx:hr>
          </gpxtpx:TrackPointExtension>
        </extensions>
      </trkpt>
      <trkpt lat="36.79826" lon="28.12878">
        <ele>3.4</ele>
        <time>2018-05-13T07:05:43Z</time>
        <extensions>
          <gpxtpx:TrackPointExtension xmlns:gpxtpx="http://www.garmin.com/xmlschemas/TrackPointExtension/v1">
            <gpxtpx:hr>155</gpxtpx:hr>
          </gpxtpx:TrackPointExtension>
        </extensions>
      </trkpt>
      <trkpt lat="36.79823" lon="28.1288">
        <ele>3.5</ele>
        <time>2018-05-13T07:05:42Z</time>
        <extensions>
          <gpxtpx:TrackPointExtension xmlns:gpxtpx="http://www.garmin.com/xmlschemas/TrackPointExtension/v1">
            <gpxtpx:hr>154</gpxtpx:hr>
          </gpxtpx:TrackPointExtension>
        </extensions>
      </trkpt>
      <trkpt lat="36.79821" lon="28.12881">
        <ele>3.6</ele>
        <time>2018-05-13T07:05:41Z</time>
        <extensions>
          <gpxtpx:TrackPointExtension xmlns:gpxtpx="http://www.garmin.com/xmlschemas/TrackPointExtension/v1">
            <gpxtpx:hr>153</gpxtpx:hr>
          </gpxtpx:TrackPointExtension>
        </extensions>
      </trkpt>
      <trkpt lat="36.79816" lon="28.12885">
        <ele>3.7</ele>
        <time>2018-05-13T07:05:39Z</time>
        <extensions>
          <gpxtpx:TrackPointExtension xmlns:gpxtpx="http://www.garmin.com/xmlschemas/TrackPointExtension/v1">
            <gpxtpx:hr>153</gpxtpx:hr>
          </gpxtpx:TrackPointExtension>
        </extensions>
      </trkpt>
      <trkpt lat="36.79813" lon="28.12887">
        <ele>3.7</ele>
        <time>2018-05-13T07:05:38Z</time>
        <extensions>
          <gpxtpx:TrackPointExtension xmlns:gpxtpx="http://www.garmin.com/xmlschemas/TrackPointExtension/v1">
            <gpxtpx:hr>153</gpxtpx:hr>
          </gpxtpx:TrackPointExtension>
        </extensions>
      </trkpt>
      <trkpt lat="36.79811" lon="28.12889">
        <ele>3.7</ele>
        <time>2018-05-13T07:05:37Z</time>
        <extensions>
          <gpxtpx:TrackPointExtension xmlns:gpxtpx="http://www.garmin.com/xmlschemas/TrackPointExtension/v1">
            <gpxtpx:hr>153</gpxtpx:hr>
          </gpxtpx:TrackPointExtension>
        </extensions>
      </trkpt>
      <trkpt lat="36.79808" lon="28.12891">
        <ele>3.8</ele>
        <time>2018-05-13T07:05:36Z</time>
        <extensions>
          <gpxtpx:TrackPointExtension xmlns:gpxtpx="http://www.garmin.com/xmlschemas/TrackPointExtension/v1">
            <gpxtpx:hr>154</gpxtpx:hr>
          </gpxtpx:TrackPointExtension>
        </extensions>
      </trkpt>
      <trkpt lat="36.79806" lon="28.12893">
        <ele>3.9</ele>
        <time>2018-05-13T07:05:35Z</time>
        <extensions>
          <gpxtpx:TrackPointExtension xmlns:gpxtpx="http://www.garmin.com/xmlschemas/TrackPointExtension/v1">
            <gpxtpx:hr>154</gpxtpx:hr>
          </gpxtpx:TrackPointExtension>
        </extensions>
      </trkpt>
      <trkpt lat="36.79803" lon="28.12895">
        <ele>4</ele>
        <time>2018-05-13T07:05:34Z</time>
        <extensions>
          <gpxtpx:TrackPointExtension xmlns:gpxtpx="http://www.garmin.com/xmlschemas/TrackPointExtension/v1">
            <gpxtpx:hr>154</gpxtpx:hr>
          </gpxtpx:TrackPointExtension>
        </extensions>
      </trkpt>
      <trkpt lat="36.798" lon="28.12897">
        <ele>4.2</ele>
        <time>2018-05-13T07:05:33Z</time>
        <extensions>
          <gpxtpx:TrackPointExtension xmlns:gpxtpx="http://www.garmin.com/xmlschemas/TrackPointExtension/v1">
            <gpxtpx:hr>154</gpxtpx:hr>
          </gpxtpx:TrackPointExtension>
        </extensions>
      </trkpt>
      <trkpt lat="36.79797" lon="28.12899">
        <ele>4.2</ele>
        <time>2018-05-13T07:05:32Z</time>
        <extensions>
          <gpxtpx:TrackPointExtension xmlns:gpxtpx="http://www.garmin.com/xmlschemas/TrackPointExtension/v1">
            <gpxtpx:hr>155</gpxtpx:hr>
          </gpxtpx:TrackPointExtension>
        </extensions>
      </trkpt>
      <trkpt lat="36.79794" lon="28.12901">
        <ele>4.1</ele>
        <time>2018-05-13T07:05:31Z</time>
        <extensions>
          <gpxtpx:TrackPointExtension xmlns:gpxtpx="http://www.garmin.com/xmlschemas/TrackPointExtension/v1">
            <gpxtpx:hr>155</gpxtpx:hr>
          </gpxtpx:TrackPointExtension>
        </extensions>
      </trkpt>
      <trkpt lat="36.79789" lon="28.12904">
        <ele>4.2</ele>
        <time>2018-05-13T07:05:29Z</time>
        <extensions>
          <gpxtpx:TrackPointExtension xmlns:gpxtpx="http://www.garmin.com/xmlschemas/TrackPointExtension/v1">
            <gpxtpx:hr>155</gpxtpx:hr>
          </gpxtpx:TrackPointExtension>
        </extensions>
      </trkpt>
      <trkpt lat="36.79787" lon="28.12906">
        <ele>4.2</ele>
        <time>2018-05-13T07:05:27Z</time>
        <extensions>
          <gpxtpx:TrackPointExtension xmlns:gpxtpx="http://www.garmin.com/xmlschemas/TrackPointExtension/v1">
            <gpxtpx:hr>155</gpxtpx:hr>
          </gpxtpx:TrackPointExtension>
        </extensions>
      </trkpt>
      <trkpt lat="36.79784" lon="28.12908">
        <ele>4.3</ele>
        <time>2018-05-13T07:05:25Z</time>
        <extensions>
          <gpxtpx:TrackPointExtension xmlns:gpxtpx="http://www.garmin.com/xmlschemas/TrackPointExtension/v1">
            <gpxtpx:hr>155</gpxtpx:hr>
          </gpxtpx:TrackPointExtension>
        </extensions>
      </trkpt>
      <trkpt lat="36.7978" lon="28.12911">
        <ele>4.2</ele>
        <time>2018-05-13T07:05:23Z</time>
        <extensions>
          <gpxtpx:TrackPointExtension xmlns:gpxtpx="http://www.garmin.com/xmlschemas/TrackPointExtension/v1">
            <gpxtpx:hr>155</gpxtpx:hr>
          </gpxtpx:TrackPointExtension>
        </extensions>
      </trkpt>
      <trkpt lat="36.79778" lon="28.12912">
        <ele>4.1</ele>
        <time>2018-05-13T07:05:22Z</time>
        <extensions>
          <gpxtpx:TrackPointExtension xmlns:gpxtpx="http://www.garmin.com/xmlschemas/TrackPointExtension/v1">
            <gpxtpx:hr>154</gpxtpx:hr>
          </gpxtpx:TrackPointExtension>
        </extensions>
      </trkpt>
      <trkpt lat="36.79775" lon="28.12914">
        <ele>4.1</ele>
        <time>2018-05-13T07:05:21Z</time>
        <extensions>
          <gpxtpx:TrackPointExtension xmlns:gpxtpx="http://www.garmin.com/xmlschemas/TrackPointExtension/v1">
            <gpxtpx:hr>154</gpxtpx:hr>
          </gpxtpx:TrackPointExtension>
        </extensions>
      </trkpt>
      <trkpt lat="36.79772" lon="28.12915">
        <ele>4.2</ele>
        <time>2018-05-13T07:05:20Z</time>
        <extensions>
          <gpxtpx:TrackPointExtension xmlns:gpxtpx="http://www.garmin.com/xmlschemas/TrackPointExtension/v1">
            <gpxtpx:hr>154</gpxtpx:hr>
          </gpxtpx:TrackPointExtension>
        </extensions>
      </trkpt>
      <trkpt lat="36.7977" lon="28.12917">
        <ele>4.3</ele>
        <time>2018-05-13T07:05:19Z</time>
        <extensions>
          <gpxtpx:TrackPointExtension xmlns:gpxtpx="http://www.garmin.com/xmlschemas/TrackPointExtension/v1">
            <gpxtpx:hr>154</gpxtpx:hr>
          </gpxtpx:TrackPointExtension>
        </extensions>
      </trkpt>
      <trkpt lat="36.79767" lon="28.12918">
        <ele>4.3</ele>
        <time>2018-05-13T07:05:18Z</time>
        <extensions>
          <gpxtpx:TrackPointExtension xmlns:gpxtpx="http://www.garmin.com/xmlschemas/TrackPointExtension/v1">
            <gpxtpx:hr>154</gpxtpx:hr>
          </gpxtpx:TrackPointExtension>
        </extensions>
      </trkpt>
      <trkpt lat="36.79764" lon="28.1292">
        <ele>4.3</ele>
        <time>2018-05-13T07:05:17Z</time>
        <extensions>
          <gpxtpx:TrackPointExtension xmlns:gpxtpx="http://www.garmin.com/xmlschemas/TrackPointExtension/v1">
            <gpxtpx:hr>154</gpxtpx:hr>
          </gpxtpx:TrackPointExtension>
        </extensions>
      </trkpt>
      <trkpt lat="36.79762" lon="28.12922">
        <ele>4.3</ele>
        <time>2018-05-13T07:05:16Z</time>
        <extensions>
          <gpxtpx:TrackPointExtension xmlns:gpxtpx="http://www.garmin.com/xmlschemas/TrackPointExtension/v1">
            <gpxtpx:hr>154</gpxtpx:hr>
          </gpxtpx:TrackPointExtension>
        </extensions>
      </trkpt>
      <trkpt lat="36.79759" lon="28.12924">
        <ele>4.3</ele>
        <time>2018-05-13T07:05:15Z</time>
        <extensions>
          <gpxtpx:TrackPointExtension xmlns:gpxtpx="http://www.garmin.com/xmlschemas/TrackPointExtension/v1">
            <gpxtpx:hr>155</gpxtpx:hr>
          </gpxtpx:TrackPointExtension>
        </extensions>
      </trkpt>
      <trkpt lat="36.79757" lon="28.12926">
        <ele>4.2</ele>
        <time>2018-05-13T07:05:14Z</time>
        <extensions>
          <gpxtpx:TrackPointExtension xmlns:gpxtpx="http://www.garmin.com/xmlschemas/TrackPointExtension/v1">
            <gpxtpx:hr>155</gpxtpx:hr>
          </gpxtpx:TrackPointExtension>
        </extensions>
      </trkpt>
      <trkpt lat="36.79752" lon="28.12929">
        <ele>4.2</ele>
        <time>2018-05-13T07:05:12Z</time>
        <extensions>
          <gpxtpx:TrackPointExtension xmlns:gpxtpx="http://www.garmin.com/xmlschemas/TrackPointExtension/v1">
            <gpxtpx:hr>157</gpxtpx:hr>
          </gpxtpx:TrackPointExtension>
        </extensions>
      </trkpt>
      <trkpt lat="36.79749" lon="28.12931">
        <ele>4.2</ele>
        <time>2018-05-13T07:05:11Z</time>
        <extensions>
          <gpxtpx:TrackPointExtension xmlns:gpxtpx="http://www.garmin.com/xmlschemas/TrackPointExtension/v1">
            <gpxtpx:hr>157</gpxtpx:hr>
          </gpxtpx:TrackPointExtension>
        </extensions>
      </trkpt>
      <trkpt lat="36.79747" lon="28.12933">
        <ele>4.1</ele>
        <time>2018-05-13T07:05:10Z</time>
        <extensions>
          <gpxtpx:TrackPointExtension xmlns:gpxtpx="http://www.garmin.com/xmlschemas/TrackPointExtension/v1">
            <gpxtpx:hr>157</gpxtpx:hr>
          </gpxtpx:TrackPointExtension>
        </extensions>
      </trkpt>
      <trkpt lat="36.79744" lon="28.12934">
        <ele>4.1</ele>
        <time>2018-05-13T07:05:09Z</time>
        <extensions>
          <gpxtpx:TrackPointExtension xmlns:gpxtpx="http://www.garmin.com/xmlschemas/TrackPointExtension/v1">
            <gpxtpx:hr>157</gpxtpx:hr>
          </gpxtpx:TrackPointExtension>
        </extensions>
      </trkpt>
      <trkpt lat="36.79741" lon="28.12936">
        <ele>4.1</ele>
        <time>2018-05-13T07:05:08Z</time>
        <extensions>
          <gpxtpx:TrackPointExtension xmlns:gpxtpx="http://www.garmin.com/xmlschemas/TrackPointExtension/v1">
            <gpxtpx:hr>157</gpxtpx:hr>
          </gpxtpx:TrackPointExtension>
        </extensions>
      </trkpt>
      <trkpt lat="36.79736" lon="28.1294">
        <ele>4.1</ele>
        <time>2018-05-13T07:05:06Z</time>
        <extensions>
          <gpxtpx:TrackPointExtension xmlns:gpxtpx="http://www.garmin.com/xmlschemas/TrackPointExtension/v1">
            <gpxtpx:hr>158</gpxtpx:hr>
          </gpxtpx:TrackPointExtension>
        </extensions>
      </trkpt>
      <trkpt lat="36.79733" lon="28.12943">
        <ele>4.3</ele>
        <time>2018-05-13T07:05:04Z</time>
        <extensions>
          <gpxtpx:TrackPointExtension xmlns:gpxtpx="http://www.garmin.com/xmlschemas/TrackPointExtension/v1">
            <gpxtpx:hr>158</gpxtpx:hr>
          </gpxtpx:TrackPointExtension>
        </extensions>
      </trkpt>
      <trkpt lat="36.7973" lon="28.12945">
        <ele>4.4</ele>
        <time>2018-05-13T07:05:03Z</time>
        <extensions>
          <gpxtpx:TrackPointExtension xmlns:gpxtpx="http://www.garmin.com/xmlschemas/TrackPointExtension/v1">
            <gpxtpx:hr>158</gpxtpx:hr>
          </gpxtpx:TrackPointExtension>
        </extensions>
      </trkpt>
      <trkpt lat="36.79726" lon="28.12949">
        <ele>4.6</ele>
        <time>2018-05-13T07:05:01Z</time>
        <extensions>
          <gpxtpx:TrackPointExtension xmlns:gpxtpx="http://www.garmin.com/xmlschemas/TrackPointExtension/v1">
            <gpxtpx:hr>159</gpxtpx:hr>
          </gpxtpx:TrackPointExtension>
        </extensions>
      </trkpt>
      <trkpt lat="36.79721" lon="28.12953">
        <ele>4.5</ele>
        <time>2018-05-13T07:04:59Z</time>
        <extensions>
          <gpxtpx:TrackPointExtension xmlns:gpxtpx="http://www.garmin.com/xmlschemas/TrackPointExtension/v1">
            <gpxtpx:hr>159</gpxtpx:hr>
          </gpxtpx:TrackPointExtension>
        </extensions>
      </trkpt>
      <trkpt lat="36.79719" lon="28.12955">
        <ele>4.5</ele>
        <time>2018-05-13T07:04:58Z</time>
        <extensions>
          <gpxtpx:TrackPointExtension xmlns:gpxtpx="http://www.garmin.com/xmlschemas/TrackPointExtension/v1">
            <gpxtpx:hr>159</gpxtpx:hr>
          </gpxtpx:TrackPointExtension>
        </extensions>
      </trkpt>
      <trkpt lat="36.79716" lon="28.12957">
        <ele>4.6</ele>
        <time>2018-05-13T07:04:57Z</time>
        <extensions>
          <gpxtpx:TrackPointExtension xmlns:gpxtpx="http://www.garmin.com/xmlschemas/TrackPointExtension/v1">
            <gpxtpx:hr>159</gpxtpx:hr>
          </gpxtpx:TrackPointExtension>
        </extensions>
      </trkpt>
      <trkpt lat="36.79714" lon="28.12959">
        <ele>4.6</ele>
        <time>2018-05-13T07:04:56Z</time>
        <extensions>
          <gpxtpx:TrackPointExtension xmlns:gpxtpx="http://www.garmin.com/xmlschemas/TrackPointExtension/v1">
            <gpxtpx:hr>159</gpxtpx:hr>
          </gpxtpx:TrackPointExtension>
        </extensions>
      </trkpt>
      <trkpt lat="36.79711" lon="28.12961">
        <ele>4.6</ele>
        <time>2018-05-13T07:04:55Z</time>
        <extensions>
          <gpxtpx:TrackPointExtension xmlns:gpxtpx="http://www.garmin.com/xmlschemas/TrackPointExtension/v1">
            <gpxtpx:hr>159</gpxtpx:hr>
          </gpxtpx:TrackPointExtension>
        </extensions>
      </trkpt>
      <trkpt lat="36.79709" lon="28.12963">
        <ele>4.6</ele>
        <time>2018-05-13T07:04:54Z</time>
        <extensions>
          <gpxtpx:TrackPointExtension xmlns:gpxtpx="http://www.garmin.com/xmlschemas/TrackPointExtension/v1">
            <gpxtpx:hr>159</gpxtpx:hr>
          </gpxtpx:TrackPointExtension>
        </extensions>
      </trkpt>
      <trkpt lat="36.79707" lon="28.12965">
        <ele>4.7</ele>
        <time>2018-05-13T07:04:53Z</time>
        <extensions>
          <gpxtpx:TrackPointExtension xmlns:gpxtpx="http://www.garmin.com/xmlschemas/TrackPointExtension/v1">
            <gpxtpx:hr>159</gpxtpx:hr>
          </gpxtpx:TrackPointExtension>
        </extensions>
      </trkpt>
      <trkpt lat="36.79704" lon="28.12967">
        <ele>4.7</ele>
        <time>2018-05-13T07:04:52Z</time>
        <extensions>
          <gpxtpx:TrackPointExtension xmlns:gpxtpx="http://www.garmin.com/xmlschemas/TrackPointExtension/v1">
            <gpxtpx:hr>159</gpxtpx:hr>
          </gpxtpx:TrackPointExtension>
        </extensions>
      </trkpt>
      <trkpt lat="36.79702" lon="28.12969">
        <ele>4.8</ele>
        <time>2018-05-13T07:04:51Z</time>
        <extensions>
          <gpxtpx:TrackPointExtension xmlns:gpxtpx="http://www.garmin.com/xmlschemas/TrackPointExtension/v1">
            <gpxtpx:hr>158</gpxtpx:hr>
          </gpxtpx:TrackPointExtension>
        </extensions>
      </trkpt>
      <trkpt lat="36.797" lon="28.12971">
        <ele>4.9</ele>
        <time>2018-05-13T07:04:50Z</time>
        <extensions>
          <gpxtpx:TrackPointExtension xmlns:gpxtpx="http://www.garmin.com/xmlschemas/TrackPointExtension/v1">
            <gpxtpx:hr>158</gpxtpx:hr>
          </gpxtpx:TrackPointExtension>
        </extensions>
      </trkpt>
      <trkpt lat="36.79697" lon="28.12974">
        <ele>5.1</ele>
        <time>2018-05-13T07:04:49Z</time>
        <extensions>
          <gpxtpx:TrackPointExtension xmlns:gpxtpx="http://www.garmin.com/xmlschemas/TrackPointExtension/v1">
            <gpxtpx:hr>158</gpxtpx:hr>
          </gpxtpx:TrackPointExtension>
        </extensions>
      </trkpt>
      <trkpt lat="36.79695" lon="28.12976">
        <ele>5.5</ele>
        <time>2018-05-13T07:04:48Z</time>
        <extensions>
          <gpxtpx:TrackPointExtension xmlns:gpxtpx="http://www.garmin.com/xmlschemas/TrackPointExtension/v1">
            <gpxtpx:hr>157</gpxtpx:hr>
          </gpxtpx:TrackPointExtension>
        </extensions>
      </trkpt>
      <trkpt lat="36.79692" lon="28.12978">
        <ele>5.9</ele>
        <time>2018-05-13T07:04:47Z</time>
        <extensions>
          <gpxtpx:TrackPointExtension xmlns:gpxtpx="http://www.garmin.com/xmlschemas/TrackPointExtension/v1">
            <gpxtpx:hr>157</gpxtpx:hr>
          </gpxtpx:TrackPointExtension>
        </extensions>
      </trkpt>
      <trkpt lat="36.79688" lon="28.12982">
        <ele>6.4</ele>
        <time>2018-05-13T07:04:45Z</time>
        <extensions>
          <gpxtpx:TrackPointExtension xmlns:gpxtpx="http://www.garmin.com/xmlschemas/TrackPointExtension/v1">
            <gpxtpx:hr>157</gpxtpx:hr>
          </gpxtpx:TrackPointExtension>
        </extensions>
      </trkpt>
      <trkpt lat="36.79684" lon="28.12985">
        <ele>6.7</ele>
        <time>2018-05-13T07:04:43Z</time>
        <extensions>
          <gpxtpx:TrackPointExtension xmlns:gpxtpx="http://www.garmin.com/xmlschemas/TrackPointExtension/v1">
            <gpxtpx:hr>157</gpxtpx:hr>
          </gpxtpx:TrackPointExtension>
        </extensions>
      </trkpt>
      <trkpt lat="36.79681" lon="28.12987">
        <ele>6.8</ele>
        <time>2018-05-13T07:04:42Z</time>
        <extensions>
          <gpxtpx:TrackPointExtension xmlns:gpxtpx="http://www.garmin.com/xmlschemas/TrackPointExtension/v1">
            <gpxtpx:hr>156</gpxtpx:hr>
          </gpxtpx:TrackPointExtension>
        </extensions>
      </trkpt>
      <trkpt lat="36.79678" lon="28.12989">
        <ele>7</ele>
        <time>2018-05-13T07:04:41Z</time>
        <extensions>
          <gpxtpx:TrackPointExtension xmlns:gpxtpx="http://www.garmin.com/xmlschemas/TrackPointExtension/v1">
            <gpxtpx:hr>156</gpxtpx:hr>
          </gpxtpx:TrackPointExtension>
        </extensions>
      </trkpt>
      <trkpt lat="36.79673" lon="28.12992">
        <ele>7.1</ele>
        <time>2018-05-13T07:04:39Z</time>
        <extensions>
          <gpxtpx:TrackPointExtension xmlns:gpxtpx="http://www.garmin.com/xmlschemas/TrackPointExtension/v1">
            <gpxtpx:hr>156</gpxtpx:hr>
          </gpxtpx:TrackPointExtension>
        </extensions>
      </trkpt>
      <trkpt lat="36.79671" lon="28.12994">
        <ele>7.1</ele>
        <time>2018-05-13T07:04:38Z</time>
        <extensions>
          <gpxtpx:TrackPointExtension xmlns:gpxtpx="http://www.garmin.com/xmlschemas/TrackPointExtension/v1">
            <gpxtpx:hr>155</gpxtpx:hr>
          </gpxtpx:TrackPointExtension>
        </extensions>
      </trkpt>
      <trkpt lat="36.79668" lon="28.12996">
        <ele>7.1</ele>
        <time>2018-05-13T07:04:37Z</time>
        <extensions>
          <gpxtpx:TrackPointExtension xmlns:gpxtpx="http://www.garmin.com/xmlschemas/TrackPointExtension/v1">
            <gpxtpx:hr>155</gpxtpx:hr>
          </gpxtpx:TrackPointExtension>
        </extensions>
      </trkpt>
      <trkpt lat="36.79665" lon="28.12997">
        <ele>7.1</ele>
        <time>2018-05-13T07:04:36Z</time>
        <extensions>
          <gpxtpx:TrackPointExtension xmlns:gpxtpx="http://www.garmin.com/xmlschemas/TrackPointExtension/v1">
            <gpxtpx:hr>155</gpxtpx:hr>
          </gpxtpx:TrackPointExtension>
        </extensions>
      </trkpt>
      <trkpt lat="36.79662" lon="28.12999">
        <ele>7.2</ele>
        <time>2018-05-13T07:04:35Z</time>
        <extensions>
          <gpxtpx:TrackPointExtension xmlns:gpxtpx="http://www.garmin.com/xmlschemas/TrackPointExtension/v1">
            <gpxtpx:hr>155</gpxtpx:hr>
          </gpxtpx:TrackPointExtension>
        </extensions>
      </trkpt>
      <trkpt lat="36.79659" lon="28.13001">
        <ele>7.3</ele>
        <time>2018-05-13T07:04:34Z</time>
        <extensions>
          <gpxtpx:TrackPointExtension xmlns:gpxtpx="http://www.garmin.com/xmlschemas/TrackPointExtension/v1">
            <gpxtpx:hr>155</gpxtpx:hr>
          </gpxtpx:TrackPointExtension>
        </extensions>
      </trkpt>
      <trkpt lat="36.79655" lon="28.13004">
        <ele>7.5</ele>
        <time>2018-05-13T07:04:32Z</time>
        <extensions>
          <gpxtpx:TrackPointExtension xmlns:gpxtpx="http://www.garmin.com/xmlschemas/TrackPointExtension/v1">
            <gpxtpx:hr>155</gpxtpx:hr>
          </gpxtpx:TrackPointExtension>
        </extensions>
      </trkpt>
      <trkpt lat="36.79652" lon="28.13006">
        <ele>7.5</ele>
        <time>2018-05-13T07:04:31Z</time>
        <extensions>
          <gpxtpx:TrackPointExtension xmlns:gpxtpx="http://www.garmin.com/xmlschemas/TrackPointExtension/v1">
            <gpxtpx:hr>155</gpxtpx:hr>
          </gpxtpx:TrackPointExtension>
        </extensions>
      </trkpt>
      <trkpt lat="36.7965" lon="28.13008">
        <ele>7.5</ele>
        <time>2018-05-13T07:04:30Z</time>
        <extensions>
          <gpxtpx:TrackPointExtension xmlns:gpxtpx="http://www.garmin.com/xmlschemas/TrackPointExtension/v1">
            <gpxtpx:hr>155</gpxtpx:hr>
          </gpxtpx:TrackPointExtension>
        </extensions>
      </trkpt>
      <trkpt lat="36.79647" lon="28.1301">
        <ele>7.5</ele>
        <time>2018-05-13T07:04:29Z</time>
        <extensions>
          <gpxtpx:TrackPointExtension xmlns:gpxtpx="http://www.garmin.com/xmlschemas/TrackPointExtension/v1">
            <gpxtpx:hr>155</gpxtpx:hr>
          </gpxtpx:TrackPointExtension>
        </extensions>
      </trkpt>
      <trkpt lat="36.79645" lon="28.13012">
        <ele>7.4</ele>
        <time>2018-05-13T07:04:28Z</time>
        <extensions>
          <gpxtpx:TrackPointExtension xmlns:gpxtpx="http://www.garmin.com/xmlschemas/TrackPointExtension/v1">
            <gpxtpx:hr>155</gpxtpx:hr>
          </gpxtpx:TrackPointExtension>
        </extensions>
      </trkpt>
      <trkpt lat="36.79643" lon="28.13014">
        <ele>7.3</ele>
        <time>2018-05-13T07:04:27Z</time>
        <extensions>
          <gpxtpx:TrackPointExtension xmlns:gpxtpx="http://www.garmin.com/xmlschemas/TrackPointExtension/v1">
            <gpxtpx:hr>155</gpxtpx:hr>
          </gpxtpx:TrackPointExtension>
        </extensions>
      </trkpt>
      <trkpt lat="36.79638" lon="28.13017">
        <ele>7.3</ele>
        <time>2018-05-13T07:04:25Z</time>
        <extensions>
          <gpxtpx:TrackPointExtension xmlns:gpxtpx="http://www.garmin.com/xmlschemas/TrackPointExtension/v1">
            <gpxtpx:hr>155</gpxtpx:hr>
          </gpxtpx:TrackPointExtension>
        </extensions>
      </trkpt>
      <trkpt lat="36.79634" lon="28.13021">
        <ele>7.2</ele>
        <time>2018-05-13T07:04:23Z</time>
        <extensions>
          <gpxtpx:TrackPointExtension xmlns:gpxtpx="http://www.garmin.com/xmlschemas/TrackPointExtension/v1">
            <gpxtpx:hr>154</gpxtpx:hr>
          </gpxtpx:TrackPointExtension>
        </extensions>
      </trkpt>
      <trkpt lat="36.7963" lon="28.13024">
        <ele>7.1</ele>
        <time>2018-05-13T07:04:21Z</time>
        <extensions>
          <gpxtpx:TrackPointExtension xmlns:gpxtpx="http://www.garmin.com/xmlschemas/TrackPointExtension/v1">
            <gpxtpx:hr>154</gpxtpx:hr>
          </gpxtpx:TrackPointExtension>
        </extensions>
      </trkpt>
      <trkpt lat="36.79627" lon="28.13026">
        <ele>7</ele>
        <time>2018-05-13T07:04:20Z</time>
        <extensions>
          <gpxtpx:TrackPointExtension xmlns:gpxtpx="http://www.garmin.com/xmlschemas/TrackPointExtension/v1">
            <gpxtpx:hr>154</gpxtpx:hr>
          </gpxtpx:TrackPointExtension>
        </extensions>
      </trkpt>
      <trkpt lat="36.79625" lon="28.13028">
        <ele>7</ele>
        <time>2018-05-13T07:04:19Z</time>
        <extensions>
          <gpxtpx:TrackPointExtension xmlns:gpxtpx="http://www.garmin.com/xmlschemas/TrackPointExtension/v1">
            <gpxtpx:hr>154</gpxtpx:hr>
          </gpxtpx:TrackPointExtension>
        </extensions>
      </trkpt>
      <trkpt lat="36.79623" lon="28.1303">
        <ele>7.1</ele>
        <time>2018-05-13T07:04:18Z</time>
        <extensions>
          <gpxtpx:TrackPointExtension xmlns:gpxtpx="http://www.garmin.com/xmlschemas/TrackPointExtension/v1">
            <gpxtpx:hr>154</gpxtpx:hr>
          </gpxtpx:TrackPointExtension>
        </extensions>
      </trkpt>
      <trkpt lat="36.7962" lon="28.13032">
        <ele>7.2</ele>
        <time>2018-05-13T07:04:17Z</time>
        <extensions>
          <gpxtpx:TrackPointExtension xmlns:gpxtpx="http://www.garmin.com/xmlschemas/TrackPointExtension/v1">
            <gpxtpx:hr>155</gpxtpx:hr>
          </gpxtpx:TrackPointExtension>
        </extensions>
      </trkpt>
      <trkpt lat="36.79615" lon="28.13035">
        <ele>7.1</ele>
        <time>2018-05-13T07:04:15Z</time>
        <extensions>
          <gpxtpx:TrackPointExtension xmlns:gpxtpx="http://www.garmin.com/xmlschemas/TrackPointExtension/v1">
            <gpxtpx:hr>154</gpxtpx:hr>
          </gpxtpx:TrackPointExtension>
        </extensions>
      </trkpt>
      <trkpt lat="36.79611" lon="28.1304">
        <ele>7.1</ele>
        <time>2018-05-13T07:04:13Z</time>
        <extensions>
          <gpxtpx:TrackPointExtension xmlns:gpxtpx="http://www.garmin.com/xmlschemas/TrackPointExtension/v1">
            <gpxtpx:hr>154</gpxtpx:hr>
          </gpxtpx:TrackPointExtension>
        </extensions>
      </trkpt>
      <trkpt lat="36.79607" lon="28.13044">
        <ele>7</ele>
        <time>2018-05-13T07:04:11Z</time>
        <extensions>
          <gpxtpx:TrackPointExtension xmlns:gpxtpx="http://www.garmin.com/xmlschemas/TrackPointExtension/v1">
            <gpxtpx:hr>153</gpxtpx:hr>
          </gpxtpx:TrackPointExtension>
        </extensions>
      </trkpt>
      <trkpt lat="36.79603" lon="28.13047">
        <ele>6.9</ele>
        <time>2018-05-13T07:04:09Z</time>
        <extensions>
          <gpxtpx:TrackPointExtension xmlns:gpxtpx="http://www.garmin.com/xmlschemas/TrackPointExtension/v1">
            <gpxtpx:hr>152</gpxtpx:hr>
          </gpxtpx:TrackPointExtension>
        </extensions>
      </trkpt>
      <trkpt lat="36.79599" lon="28.13051">
        <ele>6.6</ele>
        <time>2018-05-13T07:04:07Z</time>
        <extensions>
          <gpxtpx:TrackPointExtension xmlns:gpxtpx="http://www.garmin.com/xmlschemas/TrackPointExtension/v1">
            <gpxtpx:hr>152</gpxtpx:hr>
          </gpxtpx:TrackPointExtension>
        </extensions>
      </trkpt>
      <trkpt lat="36.79596" lon="28.13052">
        <ele>6.5</ele>
        <time>2018-05-13T07:04:06Z</time>
        <extensions>
          <gpxtpx:TrackPointExtension xmlns:gpxtpx="http://www.garmin.com/xmlschemas/TrackPointExtension/v1">
            <gpxtpx:hr>152</gpxtpx:hr>
          </gpxtpx:TrackPointExtension>
        </extensions>
      </trkpt>
      <trkpt lat="36.79593" lon="28.13054">
        <ele>6.6</ele>
        <time>2018-05-13T07:04:05Z</time>
        <extensions>
          <gpxtpx:TrackPointExtension xmlns:gpxtpx="http://www.garmin.com/xmlschemas/TrackPointExtension/v1">
            <gpxtpx:hr>152</gpxtpx:hr>
          </gpxtpx:TrackPointExtension>
        </extensions>
      </trkpt>
      <trkpt lat="36.79589" lon="28.13056">
        <ele>6.7</ele>
        <time>2018-05-13T07:04:03Z</time>
        <extensions>
          <gpxtpx:TrackPointExtension xmlns:gpxtpx="http://www.garmin.com/xmlschemas/TrackPointExtension/v1">
            <gpxtpx:hr>151</gpxtpx:hr>
          </gpxtpx:TrackPointExtension>
        </extensions>
      </trkpt>
      <trkpt lat="36.79585" lon="28.1306">
        <ele>6.7</ele>
        <time>2018-05-13T07:04:01Z</time>
        <extensions>
          <gpxtpx:TrackPointExtension xmlns:gpxtpx="http://www.garmin.com/xmlschemas/TrackPointExtension/v1">
            <gpxtpx:hr>152</gpxtpx:hr>
          </gpxtpx:TrackPointExtension>
        </extensions>
      </trkpt>
      <trkpt lat="36.79582" lon="28.13061">
        <ele>6.7</ele>
        <time>2018-05-13T07:04:00Z</time>
        <extensions>
          <gpxtpx:TrackPointExtension xmlns:gpxtpx="http://www.garmin.com/xmlschemas/TrackPointExtension/v1">
            <gpxtpx:hr>152</gpxtpx:hr>
          </gpxtpx:TrackPointExtension>
        </extensions>
      </trkpt>
      <trkpt lat="36.7958" lon="28.13063">
        <ele>6.6</ele>
        <time>2018-05-13T07:03:59Z</time>
        <extensions>
          <gpxtpx:TrackPointExtension xmlns:gpxtpx="http://www.garmin.com/xmlschemas/TrackPointExtension/v1">
            <gpxtpx:hr>152</gpxtpx:hr>
          </gpxtpx:TrackPointExtension>
        </extensions>
      </trkpt>
      <trkpt lat="36.79578" lon="28.13065">
        <ele>6.6</ele>
        <time>2018-05-13T07:03:58Z</time>
        <extensions>
          <gpxtpx:TrackPointExtension xmlns:gpxtpx="http://www.garmin.com/xmlschemas/TrackPointExtension/v1">
            <gpxtpx:hr>152</gpxtpx:hr>
          </gpxtpx:TrackPointExtension>
        </extensions>
      </trkpt>
      <trkpt lat="36.79573" lon="28.13068">
        <ele>6.5</ele>
        <time>2018-05-13T07:03:56Z</time>
        <extensions>
          <gpxtpx:TrackPointExtension xmlns:gpxtpx="http://www.garmin.com/xmlschemas/TrackPointExtension/v1">
            <gpxtpx:hr>152</gpxtpx:hr>
          </gpxtpx:TrackPointExtension>
        </extensions>
      </trkpt>
      <trkpt lat="36.7957" lon="28.1307">
        <ele>6.6</ele>
        <time>2018-05-13T07:03:55Z</time>
        <extensions>
          <gpxtpx:TrackPointExtension xmlns:gpxtpx="http://www.garmin.com/xmlschemas/TrackPointExtension/v1">
            <gpxtpx:hr>152</gpxtpx:hr>
          </gpxtpx:TrackPointExtension>
        </extensions>
      </trkpt>
      <trkpt lat="36.79568" lon="28.13073">
        <ele>6.6</ele>
        <time>2018-05-13T07:03:54Z</time>
        <extensions>
          <gpxtpx:TrackPointExtension xmlns:gpxtpx="http://www.garmin.com/xmlschemas/TrackPointExtension/v1">
            <gpxtpx:hr>152</gpxtpx:hr>
          </gpxtpx:TrackPointExtension>
        </extensions>
      </trkpt>
      <trkpt lat="36.79566" lon="28.13075">
        <ele>6.6</ele>
        <time>2018-05-13T07:03:53Z</time>
        <extensions>
          <gpxtpx:TrackPointExtension xmlns:gpxtpx="http://www.garmin.com/xmlschemas/TrackPointExtension/v1">
            <gpxtpx:hr>152</gpxtpx:hr>
          </gpxtpx:TrackPointExtension>
        </extensions>
      </trkpt>
      <trkpt lat="36.79563" lon="28.13077">
        <ele>6.7</ele>
        <time>2018-05-13T07:03:52Z</time>
        <extensions>
          <gpxtpx:TrackPointExtension xmlns:gpxtpx="http://www.garmin.com/xmlschemas/TrackPointExtension/v1">
            <gpxtpx:hr>152</gpxtpx:hr>
          </gpxtpx:TrackPointExtension>
        </extensions>
      </trkpt>
      <trkpt lat="36.79561" lon="28.1308">
        <ele>6.7</ele>
        <time>2018-05-13T07:03:51Z</time>
        <extensions>
          <gpxtpx:TrackPointExtension xmlns:gpxtpx="http://www.garmin.com/xmlschemas/TrackPointExtension/v1">
            <gpxtpx:hr>152</gpxtpx:hr>
          </gpxtpx:TrackPointExtension>
        </extensions>
      </trkpt>
      <trkpt lat="36.79557" lon="28.13084">
        <ele>6.8</ele>
        <time>2018-05-13T07:03:49Z</time>
        <extensions>
          <gpxtpx:TrackPointExtension xmlns:gpxtpx="http://www.garmin.com/xmlschemas/TrackPointExtension/v1">
            <gpxtpx:hr>152</gpxtpx:hr>
          </gpxtpx:TrackPointExtension>
        </extensions>
      </trkpt>
      <trkpt lat="36.79555" lon="28.13086">
        <ele>6.9</ele>
        <time>2018-05-13T07:03:48Z</time>
        <extensions>
          <gpxtpx:TrackPointExtension xmlns:gpxtpx="http://www.garmin.com/xmlschemas/TrackPointExtension/v1">
            <gpxtpx:hr>152</gpxtpx:hr>
          </gpxtpx:TrackPointExtension>
        </extensions>
      </trkpt>
      <trkpt lat="36.79553" lon="28.13088">
        <ele>7</ele>
        <time>2018-05-13T07:03:47Z</time>
        <extensions>
          <gpxtpx:TrackPointExtension xmlns:gpxtpx="http://www.garmin.com/xmlschemas/TrackPointExtension/v1">
            <gpxtpx:hr>152</gpxtpx:hr>
          </gpxtpx:TrackPointExtension>
        </extensions>
      </trkpt>
      <trkpt lat="36.7955" lon="28.1309">
        <ele>7</ele>
        <time>2018-05-13T07:03:46Z</time>
        <extensions>
          <gpxtpx:TrackPointExtension xmlns:gpxtpx="http://www.garmin.com/xmlschemas/TrackPointExtension/v1">
            <gpxtpx:hr>152</gpxtpx:hr>
          </gpxtpx:TrackPointExtension>
        </extensions>
      </trkpt>
      <trkpt lat="36.79548" lon="28.13093">
        <ele>6.9</ele>
        <time>2018-05-13T07:03:45Z</time>
        <extensions>
          <gpxtpx:TrackPointExtension xmlns:gpxtpx="http://www.garmin.com/xmlschemas/TrackPointExtension/v1">
            <gpxtpx:hr>153</gpxtpx:hr>
          </gpxtpx:TrackPointExtension>
        </extensions>
      </trkpt>
      <trkpt lat="36.79545" lon="28.13095">
        <ele>6.8</ele>
        <time>2018-05-13T07:03:44Z</time>
        <extensions>
          <gpxtpx:TrackPointExtension xmlns:gpxtpx="http://www.garmin.com/xmlschemas/TrackPointExtension/v1">
            <gpxtpx:hr>152</gpxtpx:hr>
          </gpxtpx:TrackPointExtension>
        </extensions>
      </trkpt>
      <trkpt lat="36.79541" lon="28.13098">
        <ele>6.7</ele>
        <time>2018-05-13T07:03:42Z</time>
        <extensions>
          <gpxtpx:TrackPointExtension xmlns:gpxtpx="http://www.garmin.com/xmlschemas/TrackPointExtension/v1">
            <gpxtpx:hr>151</gpxtpx:hr>
          </gpxtpx:TrackPointExtension>
        </extensions>
      </trkpt>
      <trkpt lat="36.79539" lon="28.131">
        <ele>6.8</ele>
        <time>2018-05-13T07:03:41Z</time>
        <extensions>
          <gpxtpx:TrackPointExtension xmlns:gpxtpx="http://www.garmin.com/xmlschemas/TrackPointExtension/v1">
            <gpxtpx:hr>150</gpxtpx:hr>
          </gpxtpx:TrackPointExtension>
        </extensions>
      </trkpt>
      <trkpt lat="36.79534" lon="28.13103">
        <ele>6.9</ele>
        <time>2018-05-13T07:03:39Z</time>
        <extensions>
          <gpxtpx:TrackPointExtension xmlns:gpxtpx="http://www.garmin.com/xmlschemas/TrackPointExtension/v1">
            <gpxtpx:hr>150</gpxtpx:hr>
          </gpxtpx:TrackPointExtension>
        </extensions>
      </trkpt>
      <trkpt lat="36.79531" lon="28.13105">
        <ele>6.9</ele>
        <time>2018-05-13T07:03:38Z</time>
        <extensions>
          <gpxtpx:TrackPointExtension xmlns:gpxtpx="http://www.garmin.com/xmlschemas/TrackPointExtension/v1">
            <gpxtpx:hr>150</gpxtpx:hr>
          </gpxtpx:TrackPointExtension>
        </extensions>
      </trkpt>
      <trkpt lat="36.79529" lon="28.13107">
        <ele>7</ele>
        <time>2018-05-13T07:03:37Z</time>
        <extensions>
          <gpxtpx:TrackPointExtension xmlns:gpxtpx="http://www.garmin.com/xmlschemas/TrackPointExtension/v1">
            <gpxtpx:hr>149</gpxtpx:hr>
          </gpxtpx:TrackPointExtension>
        </extensions>
      </trkpt>
      <trkpt lat="36.79525" lon="28.13111">
        <ele>7</ele>
        <time>2018-05-13T07:03:35Z</time>
        <extensions>
          <gpxtpx:TrackPointExtension xmlns:gpxtpx="http://www.garmin.com/xmlschemas/TrackPointExtension/v1">
            <gpxtpx:hr>150</gpxtpx:hr>
          </gpxtpx:TrackPointExtension>
        </extensions>
      </trkpt>
      <trkpt lat="36.79521" lon="28.13114">
        <ele>7</ele>
        <time>2018-05-13T07:03:33Z</time>
        <extensions>
          <gpxtpx:TrackPointExtension xmlns:gpxtpx="http://www.garmin.com/xmlschemas/TrackPointExtension/v1">
            <gpxtpx:hr>150</gpxtpx:hr>
          </gpxtpx:TrackPointExtension>
        </extensions>
      </trkpt>
      <trkpt lat="36.79518" lon="28.13116">
        <ele>7</ele>
        <time>2018-05-13T07:03:32Z</time>
        <extensions>
          <gpxtpx:TrackPointExtension xmlns:gpxtpx="http://www.garmin.com/xmlschemas/TrackPointExtension/v1">
            <gpxtpx:hr>150</gpxtpx:hr>
          </gpxtpx:TrackPointExtension>
        </extensions>
      </trkpt>
      <trkpt lat="36.79513" lon="28.13119">
        <ele>7.1</ele>
        <time>2018-05-13T07:03:30Z</time>
        <extensions>
          <gpxtpx:TrackPointExtension xmlns:gpxtpx="http://www.garmin.com/xmlschemas/TrackPointExtension/v1">
            <gpxtpx:hr>150</gpxtpx:hr>
          </gpxtpx:TrackPointExtension>
        </extensions>
      </trkpt>
      <trkpt lat="36.79511" lon="28.1312">
        <ele>7.1</ele>
        <time>2018-05-13T07:03:29Z</time>
        <extensions>
          <gpxtpx:TrackPointExtension xmlns:gpxtpx="http://www.garmin.com/xmlschemas/TrackPointExtension/v1">
            <gpxtpx:hr>151</gpxtpx:hr>
          </gpxtpx:TrackPointExtension>
        </extensions>
      </trkpt>
      <trkpt lat="36.79508" lon="28.13122">
        <ele>7.1</ele>
        <time>2018-05-13T07:03:28Z</time>
        <extensions>
          <gpxtpx:TrackPointExtension xmlns:gpxtpx="http://www.garmin.com/xmlschemas/TrackPointExtension/v1">
            <gpxtpx:hr>151</gpxtpx:hr>
          </gpxtpx:TrackPointExtension>
        </extensions>
      </trkpt>
      <trkpt lat="36.79504" lon="28.13123">
        <ele>7</ele>
        <time>2018-05-13T07:03:27Z</time>
        <extensions>
          <gpxtpx:TrackPointExtension xmlns:gpxtpx="http://www.garmin.com/xmlschemas/TrackPointExtension/v1">
            <gpxtpx:hr>152</gpxtpx:hr>
          </gpxtpx:TrackPointExtension>
        </extensions>
      </trkpt>
      <trkpt lat="36.795" lon="28.13126">
        <ele>7</ele>
        <time>2018-05-13T07:03:25Z</time>
        <extensions>
          <gpxtpx:TrackPointExtension xmlns:gpxtpx="http://www.garmin.com/xmlschemas/TrackPointExtension/v1">
            <gpxtpx:hr>152</gpxtpx:hr>
          </gpxtpx:TrackPointExtension>
        </extensions>
      </trkpt>
      <trkpt lat="36.79496" lon="28.1313">
        <ele>7</ele>
        <time>2018-05-13T07:03:23Z</time>
        <extensions>
          <gpxtpx:TrackPointExtension xmlns:gpxtpx="http://www.garmin.com/xmlschemas/TrackPointExtension/v1">
            <gpxtpx:hr>152</gpxtpx:hr>
          </gpxtpx:TrackPointExtension>
        </extensions>
      </trkpt>
      <trkpt lat="36.79491" lon="28.13133">
        <ele>6.8</ele>
        <time>2018-05-13T07:03:21Z</time>
        <extensions>
          <gpxtpx:TrackPointExtension xmlns:gpxtpx="http://www.garmin.com/xmlschemas/TrackPointExtension/v1">
            <gpxtpx:hr>152</gpxtpx:hr>
          </gpxtpx:TrackPointExtension>
        </extensions>
      </trkpt>
      <trkpt lat="36.79489" lon="28.13134">
        <ele>6.8</ele>
        <time>2018-05-13T07:03:20Z</time>
        <extensions>
          <gpxtpx:TrackPointExtension xmlns:gpxtpx="http://www.garmin.com/xmlschemas/TrackPointExtension/v1">
            <gpxtpx:hr>152</gpxtpx:hr>
          </gpxtpx:TrackPointExtension>
        </extensions>
      </trkpt>
      <trkpt lat="36.79486" lon="28.13135">
        <ele>6.4</ele>
        <time>2018-05-13T07:03:19Z</time>
        <extensions>
          <gpxtpx:TrackPointExtension xmlns:gpxtpx="http://www.garmin.com/xmlschemas/TrackPointExtension/v1">
            <gpxtpx:hr>152</gpxtpx:hr>
          </gpxtpx:TrackPointExtension>
        </extensions>
      </trkpt>
      <trkpt lat="36.79484" lon="28.13137">
        <ele>6.3</ele>
        <time>2018-05-13T07:03:18Z</time>
        <extensions>
          <gpxtpx:TrackPointExtension xmlns:gpxtpx="http://www.garmin.com/xmlschemas/TrackPointExtension/v1">
            <gpxtpx:hr>152</gpxtpx:hr>
          </gpxtpx:TrackPointExtension>
        </extensions>
      </trkpt>
      <trkpt lat="36.79481" lon="28.13139">
        <ele>6.2</ele>
        <time>2018-05-13T07:03:17Z</time>
        <extensions>
          <gpxtpx:TrackPointExtension xmlns:gpxtpx="http://www.garmin.com/xmlschemas/TrackPointExtension/v1">
            <gpxtpx:hr>152</gpxtpx:hr>
          </gpxtpx:TrackPointExtension>
        </extensions>
      </trkpt>
      <trkpt lat="36.79479" lon="28.1314">
        <ele>6</ele>
        <time>2018-05-13T07:03:16Z</time>
        <extensions>
          <gpxtpx:TrackPointExtension xmlns:gpxtpx="http://www.garmin.com/xmlschemas/TrackPointExtension/v1">
            <gpxtpx:hr>152</gpxtpx:hr>
          </gpxtpx:TrackPointExtension>
        </extensions>
      </trkpt>
      <trkpt lat="36.79476" lon="28.13142">
        <ele>6</ele>
        <time>2018-05-13T07:03:15Z</time>
        <extensions>
          <gpxtpx:TrackPointExtension xmlns:gpxtpx="http://www.garmin.com/xmlschemas/TrackPointExtension/v1">
            <gpxtpx:hr>152</gpxtpx:hr>
          </gpxtpx:TrackPointExtension>
        </extensions>
      </trkpt>
      <trkpt lat="36.79474" lon="28.13143">
        <ele>6</ele>
        <time>2018-05-13T07:03:14Z</time>
        <extensions>
          <gpxtpx:TrackPointExtension xmlns:gpxtpx="http://www.garmin.com/xmlschemas/TrackPointExtension/v1">
            <gpxtpx:hr>152</gpxtpx:hr>
          </gpxtpx:TrackPointExtension>
        </extensions>
      </trkpt>
      <trkpt lat="36.7947" lon="28.13143">
        <ele>6</ele>
        <time>2018-05-13T07:03:13Z</time>
        <extensions>
          <gpxtpx:TrackPointExtension xmlns:gpxtpx="http://www.garmin.com/xmlschemas/TrackPointExtension/v1">
            <gpxtpx:hr>152</gpxtpx:hr>
          </gpxtpx:TrackPointExtension>
        </extensions>
      </trkpt>
      <trkpt lat="36.79467" lon="28.13144">
        <ele>6.1</ele>
        <time>2018-05-13T07:03:12Z</time>
        <extensions>
          <gpxtpx:TrackPointExtension xmlns:gpxtpx="http://www.garmin.com/xmlschemas/TrackPointExtension/v1">
            <gpxtpx:hr>152</gpxtpx:hr>
          </gpxtpx:TrackPointExtension>
        </extensions>
      </trkpt>
      <trkpt lat="36.79464" lon="28.13144">
        <ele>6.3</ele>
        <time>2018-05-13T07:03:11Z</time>
        <extensions>
          <gpxtpx:TrackPointExtension xmlns:gpxtpx="http://www.garmin.com/xmlschemas/TrackPointExtension/v1">
            <gpxtpx:hr>152</gpxtpx:hr>
          </gpxtpx:TrackPointExtension>
        </extensions>
      </trkpt>
      <trkpt lat="36.79461" lon="28.13144">
        <ele>6.3</ele>
        <time>2018-05-13T07:03:10Z</time>
        <extensions>
          <gpxtpx:TrackPointExtension xmlns:gpxtpx="http://www.garmin.com/xmlschemas/TrackPointExtension/v1">
            <gpxtpx:hr>152</gpxtpx:hr>
          </gpxtpx:TrackPointExtension>
        </extensions>
      </trkpt>
      <trkpt lat="36.79456" lon="28.13145">
        <ele>6.3</ele>
        <time>2018-05-13T07:03:08Z</time>
        <extensions>
          <gpxtpx:TrackPointExtension xmlns:gpxtpx="http://www.garmin.com/xmlschemas/TrackPointExtension/v1">
            <gpxtpx:hr>152</gpxtpx:hr>
          </gpxtpx:TrackPointExtension>
        </extensions>
      </trkpt>
      <trkpt lat="36.79451" lon="28.13147">
        <ele>6.3</ele>
        <time>2018-05-13T07:03:06Z</time>
        <extensions>
          <gpxtpx:TrackPointExtension xmlns:gpxtpx="http://www.garmin.com/xmlschemas/TrackPointExtension/v1">
            <gpxtpx:hr>152</gpxtpx:hr>
          </gpxtpx:TrackPointExtension>
        </extensions>
      </trkpt>
      <trkpt lat="36.79449" lon="28.13148">
        <ele>6.9</ele>
        <time>2018-05-13T07:03:05Z</time>
        <extensions>
          <gpxtpx:TrackPointExtension xmlns:gpxtpx="http://www.garmin.com/xmlschemas/TrackPointExtension/v1">
            <gpxtpx:hr>151</gpxtpx:hr>
          </gpxtpx:TrackPointExtension>
        </extensions>
      </trkpt>
      <trkpt lat="36.79446" lon="28.13149">
        <ele>6.8</ele>
        <time>2018-05-13T07:03:04Z</time>
        <extensions>
          <gpxtpx:TrackPointExtension xmlns:gpxtpx="http://www.garmin.com/xmlschemas/TrackPointExtension/v1">
            <gpxtpx:hr>151</gpxtpx:hr>
          </gpxtpx:TrackPointExtension>
        </extensions>
      </trkpt>
      <trkpt lat="36.79443" lon="28.13149">
        <ele>6.8</ele>
        <time>2018-05-13T07:03:03Z</time>
        <extensions>
          <gpxtpx:TrackPointExtension xmlns:gpxtpx="http://www.garmin.com/xmlschemas/TrackPointExtension/v1">
            <gpxtpx:hr>150</gpxtpx:hr>
          </gpxtpx:TrackPointExtension>
        </extensions>
      </trkpt>
      <trkpt lat="36.79438" lon="28.13149">
        <ele>6.7</ele>
        <time>2018-05-13T07:03:01Z</time>
        <extensions>
          <gpxtpx:TrackPointExtension xmlns:gpxtpx="http://www.garmin.com/xmlschemas/TrackPointExtension/v1">
            <gpxtpx:hr>150</gpxtpx:hr>
          </gpxtpx:TrackPointExtension>
        </extensions>
      </trkpt>
      <trkpt lat="36.79434" lon="28.1315">
        <ele>6.7</ele>
        <time>2018-05-13T07:02:59Z</time>
        <extensions>
          <gpxtpx:TrackPointExtension xmlns:gpxtpx="http://www.garmin.com/xmlschemas/TrackPointExtension/v1">
            <gpxtpx:hr>150</gpxtpx:hr>
          </gpxtpx:TrackPointExtension>
        </extensions>
      </trkpt>
      <trkpt lat="36.79429" lon="28.13152">
        <ele>6.8</ele>
        <time>2018-05-13T07:02:57Z</time>
        <extensions>
          <gpxtpx:TrackPointExtension xmlns:gpxtpx="http://www.garmin.com/xmlschemas/TrackPointExtension/v1">
            <gpxtpx:hr>149</gpxtpx:hr>
          </gpxtpx:TrackPointExtension>
        </extensions>
      </trkpt>
      <trkpt lat="36.79426" lon="28.13152">
        <ele>6.8</ele>
        <time>2018-05-13T07:02:56Z</time>
        <extensions>
          <gpxtpx:TrackPointExtension xmlns:gpxtpx="http://www.garmin.com/xmlschemas/TrackPointExtension/v1">
            <gpxtpx:hr>149</gpxtpx:hr>
          </gpxtpx:TrackPointExtension>
        </extensions>
      </trkpt>
      <trkpt lat="36.79424" lon="28.13152">
        <ele>6.8</ele>
        <time>2018-05-13T07:02:55Z</time>
        <extensions>
          <gpxtpx:TrackPointExtension xmlns:gpxtpx="http://www.garmin.com/xmlschemas/TrackPointExtension/v1">
            <gpxtpx:hr>149</gpxtpx:hr>
          </gpxtpx:TrackPointExtension>
        </extensions>
      </trkpt>
      <trkpt lat="36.79421" lon="28.13152">
        <ele>6.9</ele>
        <time>2018-05-13T07:02:54Z</time>
        <extensions>
          <gpxtpx:TrackPointExtension xmlns:gpxtpx="http://www.garmin.com/xmlschemas/TrackPointExtension/v1">
            <gpxtpx:hr>149</gpxtpx:hr>
          </gpxtpx:TrackPointExtension>
        </extensions>
      </trkpt>
      <trkpt lat="36.79418" lon="28.13153">
        <ele>7.4</ele>
        <time>2018-05-13T07:02:53Z</time>
        <extensions>
          <gpxtpx:TrackPointExtension xmlns:gpxtpx="http://www.garmin.com/xmlschemas/TrackPointExtension/v1">
            <gpxtpx:hr>149</gpxtpx:hr>
          </gpxtpx:TrackPointExtension>
        </extensions>
      </trkpt>
      <trkpt lat="36.79413" lon="28.13154">
        <ele>7.3</ele>
        <time>2018-05-13T07:02:51Z</time>
        <extensions>
          <gpxtpx:TrackPointExtension xmlns:gpxtpx="http://www.garmin.com/xmlschemas/TrackPointExtension/v1">
            <gpxtpx:hr>149</gpxtpx:hr>
          </gpxtpx:TrackPointExtension>
        </extensions>
      </trkpt>
      <trkpt lat="36.79409" lon="28.13155">
        <ele>7.1</ele>
        <time>2018-05-13T07:02:49Z</time>
        <extensions>
          <gpxtpx:TrackPointExtension xmlns:gpxtpx="http://www.garmin.com/xmlschemas/TrackPointExtension/v1">
            <gpxtpx:hr>150</gpxtpx:hr>
          </gpxtpx:TrackPointExtension>
        </extensions>
      </trkpt>
      <trkpt lat="36.79406" lon="28.13156">
        <ele>7</ele>
        <time>2018-05-13T07:02:48Z</time>
        <extensions>
          <gpxtpx:TrackPointExtension xmlns:gpxtpx="http://www.garmin.com/xmlschemas/TrackPointExtension/v1">
            <gpxtpx:hr>150</gpxtpx:hr>
          </gpxtpx:TrackPointExtension>
        </extensions>
      </trkpt>
      <trkpt lat="36.79401" lon="28.13158">
        <ele>6.4</ele>
        <time>2018-05-13T07:02:46Z</time>
        <extensions>
          <gpxtpx:TrackPointExtension xmlns:gpxtpx="http://www.garmin.com/xmlschemas/TrackPointExtension/v1">
            <gpxtpx:hr>150</gpxtpx:hr>
          </gpxtpx:TrackPointExtension>
        </extensions>
      </trkpt>
      <trkpt lat="36.79398" lon="28.13159">
        <ele>6.2</ele>
        <time>2018-05-13T07:02:45Z</time>
        <extensions>
          <gpxtpx:TrackPointExtension xmlns:gpxtpx="http://www.garmin.com/xmlschemas/TrackPointExtension/v1">
            <gpxtpx:hr>151</gpxtpx:hr>
          </gpxtpx:TrackPointExtension>
        </extensions>
      </trkpt>
      <trkpt lat="36.79396" lon="28.13159">
        <ele>6.2</ele>
        <time>2018-05-13T07:02:44Z</time>
        <extensions>
          <gpxtpx:TrackPointExtension xmlns:gpxtpx="http://www.garmin.com/xmlschemas/TrackPointExtension/v1">
            <gpxtpx:hr>150</gpxtpx:hr>
          </gpxtpx:TrackPointExtension>
        </extensions>
      </trkpt>
      <trkpt lat="36.79393" lon="28.1316">
        <ele>6.2</ele>
        <time>2018-05-13T07:02:43Z</time>
        <extensions>
          <gpxtpx:TrackPointExtension xmlns:gpxtpx="http://www.garmin.com/xmlschemas/TrackPointExtension/v1">
            <gpxtpx:hr>151</gpxtpx:hr>
          </gpxtpx:TrackPointExtension>
        </extensions>
      </trkpt>
      <trkpt lat="36.7939" lon="28.1316">
        <ele>6.2</ele>
        <time>2018-05-13T07:02:42Z</time>
        <extensions>
          <gpxtpx:TrackPointExtension xmlns:gpxtpx="http://www.garmin.com/xmlschemas/TrackPointExtension/v1">
            <gpxtpx:hr>151</gpxtpx:hr>
          </gpxtpx:TrackPointExtension>
        </extensions>
      </trkpt>
      <trkpt lat="36.79387" lon="28.13159">
        <ele>6.2</ele>
        <time>2018-05-13T07:02:41Z</time>
        <extensions>
          <gpxtpx:TrackPointExtension xmlns:gpxtpx="http://www.garmin.com/xmlschemas/TrackPointExtension/v1">
            <gpxtpx:hr>151</gpxtpx:hr>
          </gpxtpx:TrackPointExtension>
        </extensions>
      </trkpt>
      <trkpt lat="36.79384" lon="28.13159">
        <ele>6.3</ele>
        <time>2018-05-13T07:02:40Z</time>
        <extensions>
          <gpxtpx:TrackPointExtension xmlns:gpxtpx="http://www.garmin.com/xmlschemas/TrackPointExtension/v1">
            <gpxtpx:hr>151</gpxtpx:hr>
          </gpxtpx:TrackPointExtension>
        </extensions>
      </trkpt>
      <trkpt lat="36.79381" lon="28.13159">
        <ele>6.4</ele>
        <time>2018-05-13T07:02:39Z</time>
        <extensions>
          <gpxtpx:TrackPointExtension xmlns:gpxtpx="http://www.garmin.com/xmlschemas/TrackPointExtension/v1">
            <gpxtpx:hr>151</gpxtpx:hr>
          </gpxtpx:TrackPointExtension>
        </extensions>
      </trkpt>
      <trkpt lat="36.79379" lon="28.13158">
        <ele>6.4</ele>
        <time>2018-05-13T07:02:38Z</time>
        <extensions>
          <gpxtpx:TrackPointExtension xmlns:gpxtpx="http://www.garmin.com/xmlschemas/TrackPointExtension/v1">
            <gpxtpx:hr>150</gpxtpx:hr>
          </gpxtpx:TrackPointExtension>
        </extensions>
      </trkpt>
      <trkpt lat="36.79376" lon="28.13158">
        <ele>6.4</ele>
        <time>2018-05-13T07:02:37Z</time>
        <extensions>
          <gpxtpx:TrackPointExtension xmlns:gpxtpx="http://www.garmin.com/xmlschemas/TrackPointExtension/v1">
            <gpxtpx:hr>150</gpxtpx:hr>
          </gpxtpx:TrackPointExtension>
        </extensions>
      </trkpt>
      <trkpt lat="36.79373" lon="28.13158">
        <ele>6.4</ele>
        <time>2018-05-13T07:02:36Z</time>
        <extensions>
          <gpxtpx:TrackPointExtension xmlns:gpxtpx="http://www.garmin.com/xmlschemas/TrackPointExtension/v1">
            <gpxtpx:hr>151</gpxtpx:hr>
          </gpxtpx:TrackPointExtension>
        </extensions>
      </trkpt>
      <trkpt lat="36.79369" lon="28.13158">
        <ele>6.3</ele>
        <time>2018-05-13T07:02:35Z</time>
        <extensions>
          <gpxtpx:TrackPointExtension xmlns:gpxtpx="http://www.garmin.com/xmlschemas/TrackPointExtension/v1">
            <gpxtpx:hr>151</gpxtpx:hr>
          </gpxtpx:TrackPointExtension>
        </extensions>
      </trkpt>
      <trkpt lat="36.79366" lon="28.13158">
        <ele>6.3</ele>
        <time>2018-05-13T07:02:34Z</time>
        <extensions>
          <gpxtpx:TrackPointExtension xmlns:gpxtpx="http://www.garmin.com/xmlschemas/TrackPointExtension/v1">
            <gpxtpx:hr>151</gpxtpx:hr>
          </gpxtpx:TrackPointExtension>
        </extensions>
      </trkpt>
      <trkpt lat="36.79363" lon="28.13157">
        <ele>6.2</ele>
        <time>2018-05-13T07:02:33Z</time>
        <extensions>
          <gpxtpx:TrackPointExtension xmlns:gpxtpx="http://www.garmin.com/xmlschemas/TrackPointExtension/v1">
            <gpxtpx:hr>151</gpxtpx:hr>
          </gpxtpx:TrackPointExtension>
        </extensions>
      </trkpt>
      <trkpt lat="36.79359" lon="28.13155">
        <ele>6.9</ele>
        <time>2018-05-13T07:02:31Z</time>
        <extensions>
          <gpxtpx:TrackPointExtension xmlns:gpxtpx="http://www.garmin.com/xmlschemas/TrackPointExtension/v1">
            <gpxtpx:hr>151</gpxtpx:hr>
          </gpxtpx:TrackPointExtension>
        </extensions>
      </trkpt>
      <trkpt lat="36.79356" lon="28.13153">
        <ele>6.8</ele>
        <time>2018-05-13T07:02:30Z</time>
        <extensions>
          <gpxtpx:TrackPointExtension xmlns:gpxtpx="http://www.garmin.com/xmlschemas/TrackPointExtension/v1">
            <gpxtpx:hr>151</gpxtpx:hr>
          </gpxtpx:TrackPointExtension>
        </extensions>
      </trkpt>
      <trkpt lat="36.79354" lon="28.13151">
        <ele>7.5</ele>
        <time>2018-05-13T07:02:29Z</time>
        <extensions>
          <gpxtpx:TrackPointExtension xmlns:gpxtpx="http://www.garmin.com/xmlschemas/TrackPointExtension/v1">
            <gpxtpx:hr>151</gpxtpx:hr>
          </gpxtpx:TrackPointExtension>
        </extensions>
      </trkpt>
      <trkpt lat="36.79352" lon="28.13149">
        <ele>7.5</ele>
        <time>2018-05-13T07:02:28Z</time>
        <extensions>
          <gpxtpx:TrackPointExtension xmlns:gpxtpx="http://www.garmin.com/xmlschemas/TrackPointExtension/v1">
            <gpxtpx:hr>151</gpxtpx:hr>
          </gpxtpx:TrackPointExtension>
        </extensions>
      </trkpt>
      <trkpt lat="36.79348" lon="28.13146">
        <ele>7.7</ele>
        <time>2018-05-13T07:02:26Z</time>
        <extensions>
          <gpxtpx:TrackPointExtension xmlns:gpxtpx="http://www.garmin.com/xmlschemas/TrackPointExtension/v1">
            <gpxtpx:hr>152</gpxtpx:hr>
          </gpxtpx:TrackPointExtension>
        </extensions>
      </trkpt>
      <trkpt lat="36.79345" lon="28.13144">
        <ele>7.7</ele>
        <time>2018-05-13T07:02:25Z</time>
        <extensions>
          <gpxtpx:TrackPointExtension xmlns:gpxtpx="http://www.garmin.com/xmlschemas/TrackPointExtension/v1">
            <gpxtpx:hr>152</gpxtpx:hr>
          </gpxtpx:TrackPointExtension>
        </extensions>
      </trkpt>
      <trkpt lat="36.7934" lon="28.13141">
        <ele>7.5</ele>
        <time>2018-05-13T07:02:23Z</time>
        <extensions>
          <gpxtpx:TrackPointExtension xmlns:gpxtpx="http://www.garmin.com/xmlschemas/TrackPointExtension/v1">
            <gpxtpx:hr>151</gpxtpx:hr>
          </gpxtpx:TrackPointExtension>
        </extensions>
      </trkpt>
      <trkpt lat="36.79336" lon="28.13137">
        <ele>7.4</ele>
        <time>2018-05-13T07:02:21Z</time>
        <extensions>
          <gpxtpx:TrackPointExtension xmlns:gpxtpx="http://www.garmin.com/xmlschemas/TrackPointExtension/v1">
            <gpxtpx:hr>152</gpxtpx:hr>
          </gpxtpx:TrackPointExtension>
        </extensions>
      </trkpt>
      <trkpt lat="36.79334" lon="28.13131">
        <ele>7.5</ele>
        <time>2018-05-13T07:02:19Z</time>
        <extensions>
          <gpxtpx:TrackPointExtension xmlns:gpxtpx="http://www.garmin.com/xmlschemas/TrackPointExtension/v1">
            <gpxtpx:hr>152</gpxtpx:hr>
          </gpxtpx:TrackPointExtension>
        </extensions>
      </trkpt>
      <trkpt lat="36.79332" lon="28.13126">
        <ele>7.8</ele>
        <time>2018-05-13T07:02:17Z</time>
        <extensions>
          <gpxtpx:TrackPointExtension xmlns:gpxtpx="http://www.garmin.com/xmlschemas/TrackPointExtension/v1">
            <gpxtpx:hr>153</gpxtpx:hr>
          </gpxtpx:TrackPointExtension>
        </extensions>
      </trkpt>
      <trkpt lat="36.7933" lon="28.13123">
        <ele>7.9</ele>
        <time>2018-05-13T07:02:16Z</time>
        <extensions>
          <gpxtpx:TrackPointExtension xmlns:gpxtpx="http://www.garmin.com/xmlschemas/TrackPointExtension/v1">
            <gpxtpx:hr>153</gpxtpx:hr>
          </gpxtpx:TrackPointExtension>
        </extensions>
      </trkpt>
      <trkpt lat="36.79328" lon="28.1312">
        <ele>8</ele>
        <time>2018-05-13T07:02:15Z</time>
        <extensions>
          <gpxtpx:TrackPointExtension xmlns:gpxtpx="http://www.garmin.com/xmlschemas/TrackPointExtension/v1">
            <gpxtpx:hr>153</gpxtpx:hr>
          </gpxtpx:TrackPointExtension>
        </extensions>
      </trkpt>
      <trkpt lat="36.79324" lon="28.13115">
        <ele>7.9</ele>
        <time>2018-05-13T07:02:13Z</time>
        <extensions>
          <gpxtpx:TrackPointExtension xmlns:gpxtpx="http://www.garmin.com/xmlschemas/TrackPointExtension/v1">
            <gpxtpx:hr>153</gpxtpx:hr>
          </gpxtpx:TrackPointExtension>
        </extensions>
      </trkpt>
      <trkpt lat="36.79323" lon="28.13108">
        <ele>7.6</ele>
        <time>2018-05-13T07:02:11Z</time>
        <extensions>
          <gpxtpx:TrackPointExtension xmlns:gpxtpx="http://www.garmin.com/xmlschemas/TrackPointExtension/v1">
            <gpxtpx:hr>154</gpxtpx:hr>
          </gpxtpx:TrackPointExtension>
        </extensions>
      </trkpt>
      <trkpt lat="36.79321" lon="28.13102">
        <ele>7.5</ele>
        <time>2018-05-13T07:02:09Z</time>
        <extensions>
          <gpxtpx:TrackPointExtension xmlns:gpxtpx="http://www.garmin.com/xmlschemas/TrackPointExtension/v1">
            <gpxtpx:hr>154</gpxtpx:hr>
          </gpxtpx:TrackPointExtension>
        </extensions>
      </trkpt>
      <trkpt lat="36.79319" lon="28.13098">
        <ele>7.3</ele>
        <time>2018-05-13T07:02:07Z</time>
        <extensions>
          <gpxtpx:TrackPointExtension xmlns:gpxtpx="http://www.garmin.com/xmlschemas/TrackPointExtension/v1">
            <gpxtpx:hr>155</gpxtpx:hr>
          </gpxtpx:TrackPointExtension>
        </extensions>
      </trkpt>
      <trkpt lat="36.79317" lon="28.13093">
        <ele>7.3</ele>
        <time>2018-05-13T07:02:05Z</time>
        <extensions>
          <gpxtpx:TrackPointExtension xmlns:gpxtpx="http://www.garmin.com/xmlschemas/TrackPointExtension/v1">
            <gpxtpx:hr>155</gpxtpx:hr>
          </gpxtpx:TrackPointExtension>
        </extensions>
      </trkpt>
      <trkpt lat="36.79316" lon="28.13088">
        <ele>7.4</ele>
        <time>2018-05-13T07:02:03Z</time>
        <extensions>
          <gpxtpx:TrackPointExtension xmlns:gpxtpx="http://www.garmin.com/xmlschemas/TrackPointExtension/v1">
            <gpxtpx:hr>155</gpxtpx:hr>
          </gpxtpx:TrackPointExtension>
        </extensions>
      </trkpt>
      <trkpt lat="36.79313" lon="28.13086">
        <ele>7.6</ele>
        <time>2018-05-13T07:02:01Z</time>
        <extensions>
          <gpxtpx:TrackPointExtension xmlns:gpxtpx="http://www.garmin.com/xmlschemas/TrackPointExtension/v1">
            <gpxtpx:hr>155</gpxtpx:hr>
          </gpxtpx:TrackPointExtension>
        </extensions>
      </trkpt>
      <trkpt lat="36.7931" lon="28.13084">
        <ele>7.9</ele>
        <time>2018-05-13T07:01:59Z</time>
        <extensions>
          <gpxtpx:TrackPointExtension xmlns:gpxtpx="http://www.garmin.com/xmlschemas/TrackPointExtension/v1">
            <gpxtpx:hr>154</gpxtpx:hr>
          </gpxtpx:TrackPointExtension>
        </extensions>
      </trkpt>
      <trkpt lat="36.79307" lon="28.13082">
        <ele>7.9</ele>
        <time>2018-05-13T07:01:58Z</time>
        <extensions>
          <gpxtpx:TrackPointExtension xmlns:gpxtpx="http://www.garmin.com/xmlschemas/TrackPointExtension/v1">
            <gpxtpx:hr>154</gpxtpx:hr>
          </gpxtpx:TrackPointExtension>
        </extensions>
      </trkpt>
      <trkpt lat="36.79305" lon="28.13079">
        <ele>8.1</ele>
        <time>2018-05-13T07:01:57Z</time>
        <extensions>
          <gpxtpx:TrackPointExtension xmlns:gpxtpx="http://www.garmin.com/xmlschemas/TrackPointExtension/v1">
            <gpxtpx:hr>155</gpxtpx:hr>
          </gpxtpx:TrackPointExtension>
        </extensions>
      </trkpt>
      <trkpt lat="36.79303" lon="28.13076">
        <ele>8.1</ele>
        <time>2018-05-13T07:01:56Z</time>
        <extensions>
          <gpxtpx:TrackPointExtension xmlns:gpxtpx="http://www.garmin.com/xmlschemas/TrackPointExtension/v1">
            <gpxtpx:hr>155</gpxtpx:hr>
          </gpxtpx:TrackPointExtension>
        </extensions>
      </trkpt>
      <trkpt lat="36.79301" lon="28.1307">
        <ele>8</ele>
        <time>2018-05-13T07:01:54Z</time>
        <extensions>
          <gpxtpx:TrackPointExtension xmlns:gpxtpx="http://www.garmin.com/xmlschemas/TrackPointExtension/v1">
            <gpxtpx:hr>156</gpxtpx:hr>
          </gpxtpx:TrackPointExtension>
        </extensions>
      </trkpt>
      <trkpt lat="36.79302" lon="28.13065">
        <ele>7.8</ele>
        <time>2018-05-13T07:01:52Z</time>
        <extensions>
          <gpxtpx:TrackPointExtension xmlns:gpxtpx="http://www.garmin.com/xmlschemas/TrackPointExtension/v1">
            <gpxtpx:hr>156</gpxtpx:hr>
          </gpxtpx:TrackPointExtension>
        </extensions>
      </trkpt>
      <trkpt lat="36.79306" lon="28.13061">
        <ele>7.6</ele>
        <time>2018-05-13T07:01:49Z</time>
        <extensions>
          <gpxtpx:TrackPointExtension xmlns:gpxtpx="http://www.garmin.com/xmlschemas/TrackPointExtension/v1">
            <gpxtpx:hr>158</gpxtpx:hr>
          </gpxtpx:TrackPointExtension>
        </extensions>
      </trkpt>
      <trkpt lat="36.79308" lon="28.13058">
        <ele>7.5</ele>
        <time>2018-05-13T07:01:47Z</time>
        <extensions>
          <gpxtpx:TrackPointExtension xmlns:gpxtpx="http://www.garmin.com/xmlschemas/TrackPointExtension/v1">
            <gpxtpx:hr>158</gpxtpx:hr>
          </gpxtpx:TrackPointExtension>
        </extensions>
      </trkpt>
      <trkpt lat="36.7931" lon="28.13055">
        <ele>7.4</ele>
        <time>2018-05-13T07:01:46Z</time>
        <extensions>
          <gpxtpx:TrackPointExtension xmlns:gpxtpx="http://www.garmin.com/xmlschemas/TrackPointExtension/v1">
            <gpxtpx:hr>158</gpxtpx:hr>
          </gpxtpx:TrackPointExtension>
        </extensions>
      </trkpt>
      <trkpt lat="36.79313" lon="28.1305">
        <ele>7.3</ele>
        <time>2018-05-13T07:01:44Z</time>
        <extensions>
          <gpxtpx:TrackPointExtension xmlns:gpxtpx="http://www.garmin.com/xmlschemas/TrackPointExtension/v1">
            <gpxtpx:hr>158</gpxtpx:hr>
          </gpxtpx:TrackPointExtension>
        </extensions>
      </trkpt>
      <trkpt lat="36.79314" lon="28.13046">
        <ele>7.3</ele>
        <time>2018-05-13T07:01:43Z</time>
        <extensions>
          <gpxtpx:TrackPointExtension xmlns:gpxtpx="http://www.garmin.com/xmlschemas/TrackPointExtension/v1">
            <gpxtpx:hr>157</gpxtpx:hr>
          </gpxtpx:TrackPointExtension>
        </extensions>
      </trkpt>
      <trkpt lat="36.79313" lon="28.1304">
        <ele>7.3</ele>
        <time>2018-05-13T07:01:41Z</time>
        <extensions>
          <gpxtpx:TrackPointExtension xmlns:gpxtpx="http://www.garmin.com/xmlschemas/TrackPointExtension/v1">
            <gpxtpx:hr>157</gpxtpx:hr>
          </gpxtpx:TrackPointExtension>
        </extensions>
      </trkpt>
      <trkpt lat="36.79311" lon="28.13035">
        <ele>7.3</ele>
        <time>2018-05-13T07:01:39Z</time>
        <extensions>
          <gpxtpx:TrackPointExtension xmlns:gpxtpx="http://www.garmin.com/xmlschemas/TrackPointExtension/v1">
            <gpxtpx:hr>157</gpxtpx:hr>
          </gpxtpx:TrackPointExtension>
        </extensions>
      </trkpt>
      <trkpt lat="36.79308" lon="28.1303">
        <ele>7.2</ele>
        <time>2018-05-13T07:01:37Z</time>
        <extensions>
          <gpxtpx:TrackPointExtension xmlns:gpxtpx="http://www.garmin.com/xmlschemas/TrackPointExtension/v1">
            <gpxtpx:hr>158</gpxtpx:hr>
          </gpxtpx:TrackPointExtension>
        </extensions>
      </trkpt>
      <trkpt lat="36.79308" lon="28.13024">
        <ele>7.2</ele>
        <time>2018-05-13T07:01:35Z</time>
        <extensions>
          <gpxtpx:TrackPointExtension xmlns:gpxtpx="http://www.garmin.com/xmlschemas/TrackPointExtension/v1">
            <gpxtpx:hr>157</gpxtpx:hr>
          </gpxtpx:TrackPointExtension>
        </extensions>
      </trkpt>
      <trkpt lat="36.79307" lon="28.13018">
        <ele>7.3</ele>
        <time>2018-05-13T07:01:33Z</time>
        <extensions>
          <gpxtpx:TrackPointExtension xmlns:gpxtpx="http://www.garmin.com/xmlschemas/TrackPointExtension/v1">
            <gpxtpx:hr>156</gpxtpx:hr>
          </gpxtpx:TrackPointExtension>
        </extensions>
      </trkpt>
      <trkpt lat="36.79305" lon="28.13013">
        <ele>7.3</ele>
        <time>2018-05-13T07:01:31Z</time>
        <extensions>
          <gpxtpx:TrackPointExtension xmlns:gpxtpx="http://www.garmin.com/xmlschemas/TrackPointExtension/v1">
            <gpxtpx:hr>154</gpxtpx:hr>
          </gpxtpx:TrackPointExtension>
        </extensions>
      </trkpt>
      <trkpt lat="36.79303" lon="28.13008">
        <ele>7.3</ele>
        <time>2018-05-13T07:01:29Z</time>
        <extensions>
          <gpxtpx:TrackPointExtension xmlns:gpxtpx="http://www.garmin.com/xmlschemas/TrackPointExtension/v1">
            <gpxtpx:hr>154</gpxtpx:hr>
          </gpxtpx:TrackPointExtension>
        </extensions>
      </trkpt>
      <trkpt lat="36.793" lon="28.13004">
        <ele>7.3</ele>
        <time>2018-05-13T07:01:27Z</time>
        <extensions>
          <gpxtpx:TrackPointExtension xmlns:gpxtpx="http://www.garmin.com/xmlschemas/TrackPointExtension/v1">
            <gpxtpx:hr>153</gpxtpx:hr>
          </gpxtpx:TrackPointExtension>
        </extensions>
      </trkpt>
      <trkpt lat="36.79297" lon="28.13">
        <ele>7.3</ele>
        <time>2018-05-13T07:01:25Z</time>
        <extensions>
          <gpxtpx:TrackPointExtension xmlns:gpxtpx="http://www.garmin.com/xmlschemas/TrackPointExtension/v1">
            <gpxtpx:hr>154</gpxtpx:hr>
          </gpxtpx:TrackPointExtension>
        </extensions>
      </trkpt>
      <trkpt lat="36.79293" lon="28.12996">
        <ele>7.3</ele>
        <time>2018-05-13T07:01:23Z</time>
        <extensions>
          <gpxtpx:TrackPointExtension xmlns:gpxtpx="http://www.garmin.com/xmlschemas/TrackPointExtension/v1">
            <gpxtpx:hr>154</gpxtpx:hr>
          </gpxtpx:TrackPointExtension>
        </extensions>
      </trkpt>
      <trkpt lat="36.7929" lon="28.12992">
        <ele>7.3</ele>
        <time>2018-05-13T07:01:21Z</time>
        <extensions>
          <gpxtpx:TrackPointExtension xmlns:gpxtpx="http://www.garmin.com/xmlschemas/TrackPointExtension/v1">
            <gpxtpx:hr>154</gpxtpx:hr>
          </gpxtpx:TrackPointExtension>
        </extensions>
      </trkpt>
      <trkpt lat="36.79288" lon="28.12988">
        <ele>7.3</ele>
        <time>2018-05-13T07:01:19Z</time>
        <extensions>
          <gpxtpx:TrackPointExtension xmlns:gpxtpx="http://www.garmin.com/xmlschemas/TrackPointExtension/v1">
            <gpxtpx:hr>154</gpxtpx:hr>
          </gpxtpx:TrackPointExtension>
        </extensions>
      </trkpt>
      <trkpt lat="36.79285" lon="28.12984">
        <ele>7.3</ele>
        <time>2018-05-13T07:01:17Z</time>
        <extensions>
          <gpxtpx:TrackPointExtension xmlns:gpxtpx="http://www.garmin.com/xmlschemas/TrackPointExtension/v1">
            <gpxtpx:hr>155</gpxtpx:hr>
          </gpxtpx:TrackPointExtension>
        </extensions>
      </trkpt>
      <trkpt lat="36.79282" lon="28.1298">
        <ele>7.2</ele>
        <time>2018-05-13T07:01:15Z</time>
        <extensions>
          <gpxtpx:TrackPointExtension xmlns:gpxtpx="http://www.garmin.com/xmlschemas/TrackPointExtension/v1">
            <gpxtpx:hr>154</gpxtpx:hr>
          </gpxtpx:TrackPointExtension>
        </extensions>
      </trkpt>
      <trkpt lat="36.79282" lon="28.12975">
        <ele>7.2</ele>
        <time>2018-05-13T07:01:13Z</time>
        <extensions>
          <gpxtpx:TrackPointExtension xmlns:gpxtpx="http://www.garmin.com/xmlschemas/TrackPointExtension/v1">
            <gpxtpx:hr>154</gpxtpx:hr>
          </gpxtpx:TrackPointExtension>
        </extensions>
      </trkpt>
      <trkpt lat="36.79282" lon="28.1297">
        <ele>7.2</ele>
        <time>2018-05-13T07:01:11Z</time>
        <extensions>
          <gpxtpx:TrackPointExtension xmlns:gpxtpx="http://www.garmin.com/xmlschemas/TrackPointExtension/v1">
            <gpxtpx:hr>154</gpxtpx:hr>
          </gpxtpx:TrackPointExtension>
        </extensions>
      </trkpt>
      <trkpt lat="36.79281" lon="28.12965">
        <ele>7.2</ele>
        <time>2018-05-13T07:01:09Z</time>
        <extensions>
          <gpxtpx:TrackPointExtension xmlns:gpxtpx="http://www.garmin.com/xmlschemas/TrackPointExtension/v1">
            <gpxtpx:hr>153</gpxtpx:hr>
          </gpxtpx:TrackPointExtension>
        </extensions>
      </trkpt>
      <trkpt lat="36.79278" lon="28.12962">
        <ele>7.3</ele>
        <time>2018-05-13T07:01:07Z</time>
        <extensions>
          <gpxtpx:TrackPointExtension xmlns:gpxtpx="http://www.garmin.com/xmlschemas/TrackPointExtension/v1">
            <gpxtpx:hr>153</gpxtpx:hr>
          </gpxtpx:TrackPointExtension>
        </extensions>
      </trkpt>
      <trkpt lat="36.79277" lon="28.12959">
        <ele>7.3</ele>
        <time>2018-05-13T07:01:05Z</time>
        <extensions>
          <gpxtpx:TrackPointExtension xmlns:gpxtpx="http://www.garmin.com/xmlschemas/TrackPointExtension/v1">
            <gpxtpx:hr>153</gpxtpx:hr>
          </gpxtpx:TrackPointExtension>
        </extensions>
      </trkpt>
      <trkpt lat="36.79275" lon="28.12953">
        <ele>7.3</ele>
        <time>2018-05-13T07:01:03Z</time>
        <extensions>
          <gpxtpx:TrackPointExtension xmlns:gpxtpx="http://www.garmin.com/xmlschemas/TrackPointExtension/v1">
            <gpxtpx:hr>154</gpxtpx:hr>
          </gpxtpx:TrackPointExtension>
        </extensions>
      </trkpt>
      <trkpt lat="36.79273" lon="28.12951">
        <ele>7.3</ele>
        <time>2018-05-13T07:01:02Z</time>
        <extensions>
          <gpxtpx:TrackPointExtension xmlns:gpxtpx="http://www.garmin.com/xmlschemas/TrackPointExtension/v1">
            <gpxtpx:hr>153</gpxtpx:hr>
          </gpxtpx:TrackPointExtension>
        </extensions>
      </trkpt>
      <trkpt lat="36.79271" lon="28.12948">
        <ele>7.3</ele>
        <time>2018-05-13T07:01:01Z</time>
        <extensions>
          <gpxtpx:TrackPointExtension xmlns:gpxtpx="http://www.garmin.com/xmlschemas/TrackPointExtension/v1">
            <gpxtpx:hr>154</gpxtpx:hr>
          </gpxtpx:TrackPointExtension>
        </extensions>
      </trkpt>
      <trkpt lat="36.79267" lon="28.12944">
        <ele>7.3</ele>
        <time>2018-05-13T07:00:59Z</time>
        <extensions>
          <gpxtpx:TrackPointExtension xmlns:gpxtpx="http://www.garmin.com/xmlschemas/TrackPointExtension/v1">
            <gpxtpx:hr>154</gpxtpx:hr>
          </gpxtpx:TrackPointExtension>
        </extensions>
      </trkpt>
      <trkpt lat="36.79262" lon="28.12941">
        <ele>7.3</ele>
        <time>2018-05-13T07:00:57Z</time>
        <extensions>
          <gpxtpx:TrackPointExtension xmlns:gpxtpx="http://www.garmin.com/xmlschemas/TrackPointExtension/v1">
            <gpxtpx:hr>155</gpxtpx:hr>
          </gpxtpx:TrackPointExtension>
        </extensions>
      </trkpt>
      <trkpt lat="36.79259" lon="28.12939">
        <ele>7.3</ele>
        <time>2018-05-13T07:00:55Z</time>
        <extensions>
          <gpxtpx:TrackPointExtension xmlns:gpxtpx="http://www.garmin.com/xmlschemas/TrackPointExtension/v1">
            <gpxtpx:hr>155</gpxtpx:hr>
          </gpxtpx:TrackPointExtension>
        </extensions>
      </trkpt>
      <trkpt lat="36.79257" lon="28.12934">
        <ele>7.3</ele>
        <time>2018-05-13T07:00:53Z</time>
        <extensions>
          <gpxtpx:TrackPointExtension xmlns:gpxtpx="http://www.garmin.com/xmlschemas/TrackPointExtension/v1">
            <gpxtpx:hr>155</gpxtpx:hr>
          </gpxtpx:TrackPointExtension>
        </extensions>
      </trkpt>
      <trkpt lat="36.79257" lon="28.12928">
        <ele>7.3</ele>
        <time>2018-05-13T07:00:51Z</time>
        <extensions>
          <gpxtpx:TrackPointExtension xmlns:gpxtpx="http://www.garmin.com/xmlschemas/TrackPointExtension/v1">
            <gpxtpx:hr>155</gpxtpx:hr>
          </gpxtpx:TrackPointExtension>
        </extensions>
      </trkpt>
      <trkpt lat="36.79256" lon="28.12923">
        <ele>7.3</ele>
        <time>2018-05-13T07:00:49Z</time>
        <extensions>
          <gpxtpx:TrackPointExtension xmlns:gpxtpx="http://www.garmin.com/xmlschemas/TrackPointExtension/v1">
            <gpxtpx:hr>155</gpxtpx:hr>
          </gpxtpx:TrackPointExtension>
        </extensions>
      </trkpt>
      <trkpt lat="36.79254" lon="28.12921">
        <ele>7.2</ele>
        <time>2018-05-13T07:00:48Z</time>
        <extensions>
          <gpxtpx:TrackPointExtension xmlns:gpxtpx="http://www.garmin.com/xmlschemas/TrackPointExtension/v1">
            <gpxtpx:hr>155</gpxtpx:hr>
          </gpxtpx:TrackPointExtension>
        </extensions>
      </trkpt>
      <trkpt lat="36.79251" lon="28.12916">
        <ele>7.2</ele>
        <time>2018-05-13T07:00:46Z</time>
        <extensions>
          <gpxtpx:TrackPointExtension xmlns:gpxtpx="http://www.garmin.com/xmlschemas/TrackPointExtension/v1">
            <gpxtpx:hr>155</gpxtpx:hr>
          </gpxtpx:TrackPointExtension>
        </extensions>
      </trkpt>
      <trkpt lat="36.79247" lon="28.12912">
        <ele>7.2</ele>
        <time>2018-05-13T07:00:44Z</time>
        <extensions>
          <gpxtpx:TrackPointExtension xmlns:gpxtpx="http://www.garmin.com/xmlschemas/TrackPointExtension/v1">
            <gpxtpx:hr>156</gpxtpx:hr>
          </gpxtpx:TrackPointExtension>
        </extensions>
      </trkpt>
      <trkpt lat="36.79244" lon="28.12909">
        <ele>7.2</ele>
        <time>2018-05-13T07:00:41Z</time>
        <extensions>
          <gpxtpx:TrackPointExtension xmlns:gpxtpx="http://www.garmin.com/xmlschemas/TrackPointExtension/v1">
            <gpxtpx:hr>157</gpxtpx:hr>
          </gpxtpx:TrackPointExtension>
        </extensions>
      </trkpt>
      <trkpt lat="36.79241" lon="28.12909">
        <ele>7.2</ele>
        <time>2018-05-13T07:00:39Z</time>
        <extensions>
          <gpxtpx:TrackPointExtension xmlns:gpxtpx="http://www.garmin.com/xmlschemas/TrackPointExtension/v1">
            <gpxtpx:hr>158</gpxtpx:hr>
          </gpxtpx:TrackPointExtension>
        </extensions>
      </trkpt>
      <trkpt lat="36.79239" lon="28.12907">
        <ele>7.3</ele>
        <time>2018-05-13T07:00:38Z</time>
        <extensions>
          <gpxtpx:TrackPointExtension xmlns:gpxtpx="http://www.garmin.com/xmlschemas/TrackPointExtension/v1">
            <gpxtpx:hr>158</gpxtpx:hr>
          </gpxtpx:TrackPointExtension>
        </extensions>
      </trkpt>
      <trkpt lat="36.79236" lon="28.12905">
        <ele>7.3</ele>
        <time>2018-05-13T07:00:37Z</time>
        <extensions>
          <gpxtpx:TrackPointExtension xmlns:gpxtpx="http://www.garmin.com/xmlschemas/TrackPointExtension/v1">
            <gpxtpx:hr>158</gpxtpx:hr>
          </gpxtpx:TrackPointExtension>
        </extensions>
      </trkpt>
      <trkpt lat="36.79233" lon="28.12901">
        <ele>7.3</ele>
        <time>2018-05-13T07:00:35Z</time>
        <extensions>
          <gpxtpx:TrackPointExtension xmlns:gpxtpx="http://www.garmin.com/xmlschemas/TrackPointExtension/v1">
            <gpxtpx:hr>158</gpxtpx:hr>
          </gpxtpx:TrackPointExtension>
        </extensions>
      </trkpt>
      <trkpt lat="36.7923" lon="28.12897">
        <ele>7.2</ele>
        <time>2018-05-13T07:00:33Z</time>
        <extensions>
          <gpxtpx:TrackPointExtension xmlns:gpxtpx="http://www.garmin.com/xmlschemas/TrackPointExtension/v1">
            <gpxtpx:hr>158</gpxtpx:hr>
          </gpxtpx:TrackPointExtension>
        </extensions>
      </trkpt>
      <trkpt lat="36.79229" lon="28.12894">
        <ele>7.2</ele>
        <time>2018-05-13T07:00:31Z</time>
        <extensions>
          <gpxtpx:TrackPointExtension xmlns:gpxtpx="http://www.garmin.com/xmlschemas/TrackPointExtension/v1">
            <gpxtpx:hr>157</gpxtpx:hr>
          </gpxtpx:TrackPointExtension>
        </extensions>
      </trkpt>
      <trkpt lat="36.79226" lon="28.1289">
        <ele>7.2</ele>
        <time>2018-05-13T07:00:29Z</time>
        <extensions>
          <gpxtpx:TrackPointExtension xmlns:gpxtpx="http://www.garmin.com/xmlschemas/TrackPointExtension/v1">
            <gpxtpx:hr>157</gpxtpx:hr>
          </gpxtpx:TrackPointExtension>
        </extensions>
      </trkpt>
      <trkpt lat="36.79223" lon="28.12886">
        <ele>7.2</ele>
        <time>2018-05-13T07:00:27Z</time>
        <extensions>
          <gpxtpx:TrackPointExtension xmlns:gpxtpx="http://www.garmin.com/xmlschemas/TrackPointExtension/v1">
            <gpxtpx:hr>157</gpxtpx:hr>
          </gpxtpx:TrackPointExtension>
        </extensions>
      </trkpt>
      <trkpt lat="36.79221" lon="28.12883">
        <ele>7.2</ele>
        <time>2018-05-13T07:00:25Z</time>
        <extensions>
          <gpxtpx:TrackPointExtension xmlns:gpxtpx="http://www.garmin.com/xmlschemas/TrackPointExtension/v1">
            <gpxtpx:hr>158</gpxtpx:hr>
          </gpxtpx:TrackPointExtension>
        </extensions>
      </trkpt>
      <trkpt lat="36.79216" lon="28.1288">
        <ele>7.2</ele>
        <time>2018-05-13T07:00:23Z</time>
        <extensions>
          <gpxtpx:TrackPointExtension xmlns:gpxtpx="http://www.garmin.com/xmlschemas/TrackPointExtension/v1">
            <gpxtpx:hr>158</gpxtpx:hr>
          </gpxtpx:TrackPointExtension>
        </extensions>
      </trkpt>
      <trkpt lat="36.79212" lon="28.12878">
        <ele>7.2</ele>
        <time>2018-05-13T07:00:21Z</time>
        <extensions>
          <gpxtpx:TrackPointExtension xmlns:gpxtpx="http://www.garmin.com/xmlschemas/TrackPointExtension/v1">
            <gpxtpx:hr>158</gpxtpx:hr>
          </gpxtpx:TrackPointExtension>
        </extensions>
      </trkpt>
      <trkpt lat="36.79208" lon="28.12876">
        <ele>7.3</ele>
        <time>2018-05-13T07:00:19Z</time>
        <extensions>
          <gpxtpx:TrackPointExtension xmlns:gpxtpx="http://www.garmin.com/xmlschemas/TrackPointExtension/v1">
            <gpxtpx:hr>158</gpxtpx:hr>
          </gpxtpx:TrackPointExtension>
        </extensions>
      </trkpt>
      <trkpt lat="36.79205" lon="28.12872">
        <ele>7.3</ele>
        <time>2018-05-13T07:00:17Z</time>
        <extensions>
          <gpxtpx:TrackPointExtension xmlns:gpxtpx="http://www.garmin.com/xmlschemas/TrackPointExtension/v1">
            <gpxtpx:hr>158</gpxtpx:hr>
          </gpxtpx:TrackPointExtension>
        </extensions>
      </trkpt>
      <trkpt lat="36.79202" lon="28.12867">
        <ele>7.2</ele>
        <time>2018-05-13T07:00:15Z</time>
        <extensions>
          <gpxtpx:TrackPointExtension xmlns:gpxtpx="http://www.garmin.com/xmlschemas/TrackPointExtension/v1">
            <gpxtpx:hr>157</gpxtpx:hr>
          </gpxtpx:TrackPointExtension>
        </extensions>
      </trkpt>
      <trkpt lat="36.792" lon="28.12863">
        <ele>7.2</ele>
        <time>2018-05-13T07:00:13Z</time>
        <extensions>
          <gpxtpx:TrackPointExtension xmlns:gpxtpx="http://www.garmin.com/xmlschemas/TrackPointExtension/v1">
            <gpxtpx:hr>156</gpxtpx:hr>
          </gpxtpx:TrackPointExtension>
        </extensions>
      </trkpt>
      <trkpt lat="36.79197" lon="28.1286">
        <ele>7.2</ele>
        <time>2018-05-13T07:00:11Z</time>
        <extensions>
          <gpxtpx:TrackPointExtension xmlns:gpxtpx="http://www.garmin.com/xmlschemas/TrackPointExtension/v1">
            <gpxtpx:hr>156</gpxtpx:hr>
          </gpxtpx:TrackPointExtension>
        </extensions>
      </trkpt>
      <trkpt lat="36.79195" lon="28.12857">
        <ele>7.2</ele>
        <time>2018-05-13T07:00:09Z</time>
        <extensions>
          <gpxtpx:TrackPointExtension xmlns:gpxtpx="http://www.garmin.com/xmlschemas/TrackPointExtension/v1">
            <gpxtpx:hr>156</gpxtpx:hr>
          </gpxtpx:TrackPointExtension>
        </extensions>
      </trkpt>
      <trkpt lat="36.79192" lon="28.12854">
        <ele>7.2</ele>
        <time>2018-05-13T07:00:06Z</time>
        <extensions>
          <gpxtpx:TrackPointExtension xmlns:gpxtpx="http://www.garmin.com/xmlschemas/TrackPointExtension/v1">
            <gpxtpx:hr>155</gpxtpx:hr>
          </gpxtpx:TrackPointExtension>
        </extensions>
      </trkpt>
      <trkpt lat="36.79188" lon="28.12855">
        <ele>7.2</ele>
        <time>2018-05-13T07:00:04Z</time>
        <extensions>
          <gpxtpx:TrackPointExtension xmlns:gpxtpx="http://www.garmin.com/xmlschemas/TrackPointExtension/v1">
            <gpxtpx:hr>155</gpxtpx:hr>
          </gpxtpx:TrackPointExtension>
        </extensions>
      </trkpt>
      <trkpt lat="36.79184" lon="28.12854">
        <ele>7.2</ele>
        <time>2018-05-13T07:00:02Z</time>
        <extensions>
          <gpxtpx:TrackPointExtension xmlns:gpxtpx="http://www.garmin.com/xmlschemas/TrackPointExtension/v1">
            <gpxtpx:hr>155</gpxtpx:hr>
          </gpxtpx:TrackPointExtension>
        </extensions>
      </trkpt>
      <trkpt lat="36.79181" lon="28.12852">
        <ele>7.3</ele>
        <time>2018-05-13T07:00:00Z</time>
        <extensions>
          <gpxtpx:TrackPointExtension xmlns:gpxtpx="http://www.garmin.com/xmlschemas/TrackPointExtension/v1">
            <gpxtpx:hr>153</gpxtpx:hr>
          </gpxtpx:TrackPointExtension>
        </extensions>
      </trkpt>
      <trkpt lat="36.79181" lon="28.12846">
        <ele>7.3</ele>
        <time>2018-05-13T06:59:58Z</time>
        <extensions>
          <gpxtpx:TrackPointExtension xmlns:gpxtpx="http://www.garmin.com/xmlschemas/TrackPointExtension/v1">
            <gpxtpx:hr>153</gpxtpx:hr>
          </gpxtpx:TrackPointExtension>
        </extensions>
      </trkpt>
      <trkpt lat="36.79181" lon="28.12839">
        <ele>7.3</ele>
        <time>2018-05-13T06:59:56Z</time>
        <extensions>
          <gpxtpx:TrackPointExtension xmlns:gpxtpx="http://www.garmin.com/xmlschemas/TrackPointExtension/v1">
            <gpxtpx:hr>153</gpxtpx:hr>
          </gpxtpx:TrackPointExtension>
        </extensions>
      </trkpt>
      <trkpt lat="36.79181" lon="28.12833">
        <ele>7.3</ele>
        <time>2018-05-13T06:59:53Z</time>
        <extensions>
          <gpxtpx:TrackPointExtension xmlns:gpxtpx="http://www.garmin.com/xmlschemas/TrackPointExtension/v1">
            <gpxtpx:hr>152</gpxtpx:hr>
          </gpxtpx:TrackPointExtension>
        </extensions>
      </trkpt>
      <trkpt lat="36.79178" lon="28.12832">
        <ele>7.3</ele>
        <time>2018-05-13T06:59:51Z</time>
        <extensions>
          <gpxtpx:TrackPointExtension xmlns:gpxtpx="http://www.garmin.com/xmlschemas/TrackPointExtension/v1">
            <gpxtpx:hr>151</gpxtpx:hr>
          </gpxtpx:TrackPointExtension>
        </extensions>
      </trkpt>
      <trkpt lat="36.79174" lon="28.12831">
        <ele>7.2</ele>
        <time>2018-05-13T06:59:49Z</time>
        <extensions>
          <gpxtpx:TrackPointExtension xmlns:gpxtpx="http://www.garmin.com/xmlschemas/TrackPointExtension/v1">
            <gpxtpx:hr>151</gpxtpx:hr>
          </gpxtpx:TrackPointExtension>
        </extensions>
      </trkpt>
      <trkpt lat="36.79169" lon="28.12828">
        <ele>7.2</ele>
        <time>2018-05-13T06:59:47Z</time>
        <extensions>
          <gpxtpx:TrackPointExtension xmlns:gpxtpx="http://www.garmin.com/xmlschemas/TrackPointExtension/v1">
            <gpxtpx:hr>151</gpxtpx:hr>
          </gpxtpx:TrackPointExtension>
        </extensions>
      </trkpt>
      <trkpt lat="36.79166" lon="28.12825">
        <ele>7.2</ele>
        <time>2018-05-13T06:59:45Z</time>
        <extensions>
          <gpxtpx:TrackPointExtension xmlns:gpxtpx="http://www.garmin.com/xmlschemas/TrackPointExtension/v1">
            <gpxtpx:hr>150</gpxtpx:hr>
          </gpxtpx:TrackPointExtension>
        </extensions>
      </trkpt>
      <trkpt lat="36.79164" lon="28.12822">
        <ele>7.2</ele>
        <time>2018-05-13T06:59:43Z</time>
        <extensions>
          <gpxtpx:TrackPointExtension xmlns:gpxtpx="http://www.garmin.com/xmlschemas/TrackPointExtension/v1">
            <gpxtpx:hr>151</gpxtpx:hr>
          </gpxtpx:TrackPointExtension>
        </extensions>
      </trkpt>
      <trkpt lat="36.79162" lon="28.12818">
        <ele>7.3</ele>
        <time>2018-05-13T06:59:41Z</time>
        <extensions>
          <gpxtpx:TrackPointExtension xmlns:gpxtpx="http://www.garmin.com/xmlschemas/TrackPointExtension/v1">
            <gpxtpx:hr>151</gpxtpx:hr>
          </gpxtpx:TrackPointExtension>
        </extensions>
      </trkpt>
      <trkpt lat="36.79159" lon="28.12815">
        <ele>7.3</ele>
        <time>2018-05-13T06:59:39Z</time>
        <extensions>
          <gpxtpx:TrackPointExtension xmlns:gpxtpx="http://www.garmin.com/xmlschemas/TrackPointExtension/v1">
            <gpxtpx:hr>151</gpxtpx:hr>
          </gpxtpx:TrackPointExtension>
        </extensions>
      </trkpt>
      <trkpt lat="36.79157" lon="28.12813">
        <ele>7.3</ele>
        <time>2018-05-13T06:59:37Z</time>
        <extensions>
          <gpxtpx:TrackPointExtension xmlns:gpxtpx="http://www.garmin.com/xmlschemas/TrackPointExtension/v1">
            <gpxtpx:hr>151</gpxtpx:hr>
          </gpxtpx:TrackPointExtension>
        </extensions>
      </trkpt>
      <trkpt lat="36.79155" lon="28.1281">
        <ele>7.3</ele>
        <time>2018-05-13T06:59:35Z</time>
        <extensions>
          <gpxtpx:TrackPointExtension xmlns:gpxtpx="http://www.garmin.com/xmlschemas/TrackPointExtension/v1">
            <gpxtpx:hr>152</gpxtpx:hr>
          </gpxtpx:TrackPointExtension>
        </extensions>
      </trkpt>
      <trkpt lat="36.79153" lon="28.12807">
        <ele>7.3</ele>
        <time>2018-05-13T06:59:32Z</time>
        <extensions>
          <gpxtpx:TrackPointExtension xmlns:gpxtpx="http://www.garmin.com/xmlschemas/TrackPointExtension/v1">
            <gpxtpx:hr>152</gpxtpx:hr>
          </gpxtpx:TrackPointExtension>
        </extensions>
      </trkpt>
      <trkpt lat="36.7915" lon="28.12804">
        <ele>7.3</ele>
        <time>2018-05-13T06:59:30Z</time>
        <extensions>
          <gpxtpx:TrackPointExtension xmlns:gpxtpx="http://www.garmin.com/xmlschemas/TrackPointExtension/v1">
            <gpxtpx:hr>152</gpxtpx:hr>
          </gpxtpx:TrackPointExtension>
        </extensions>
      </trkpt>
      <trkpt lat="36.79147" lon="28.12801">
        <ele>7.2</ele>
        <time>2018-05-13T06:59:28Z</time>
        <extensions>
          <gpxtpx:TrackPointExtension xmlns:gpxtpx="http://www.garmin.com/xmlschemas/TrackPointExtension/v1">
            <gpxtpx:hr>152</gpxtpx:hr>
          </gpxtpx:TrackPointExtension>
        </extensions>
      </trkpt>
      <trkpt lat="36.79143" lon="28.12799">
        <ele>7.2</ele>
        <time>2018-05-13T06:59:26Z</time>
        <extensions>
          <gpxtpx:TrackPointExtension xmlns:gpxtpx="http://www.garmin.com/xmlschemas/TrackPointExtension/v1">
            <gpxtpx:hr>152</gpxtpx:hr>
          </gpxtpx:TrackPointExtension>
        </extensions>
      </trkpt>
      <trkpt lat="36.7914" lon="28.12796">
        <ele>7.3</ele>
        <time>2018-05-13T06:59:24Z</time>
        <extensions>
          <gpxtpx:TrackPointExtension xmlns:gpxtpx="http://www.garmin.com/xmlschemas/TrackPointExtension/v1">
            <gpxtpx:hr>152</gpxtpx:hr>
          </gpxtpx:TrackPointExtension>
        </extensions>
      </trkpt>
      <trkpt lat="36.79137" lon="28.12794">
        <ele>7.3</ele>
        <time>2018-05-13T06:59:22Z</time>
        <extensions>
          <gpxtpx:TrackPointExtension xmlns:gpxtpx="http://www.garmin.com/xmlschemas/TrackPointExtension/v1">
            <gpxtpx:hr>152</gpxtpx:hr>
          </gpxtpx:TrackPointExtension>
        </extensions>
      </trkpt>
      <trkpt lat="36.79135" lon="28.12792">
        <ele>7.3</ele>
        <time>2018-05-13T06:59:20Z</time>
        <extensions>
          <gpxtpx:TrackPointExtension xmlns:gpxtpx="http://www.garmin.com/xmlschemas/TrackPointExtension/v1">
            <gpxtpx:hr>152</gpxtpx:hr>
          </gpxtpx:TrackPointExtension>
        </extensions>
      </trkpt>
      <trkpt lat="36.79133" lon="28.1279">
        <ele>7.3</ele>
        <time>2018-05-13T06:59:18Z</time>
        <extensions>
          <gpxtpx:TrackPointExtension xmlns:gpxtpx="http://www.garmin.com/xmlschemas/TrackPointExtension/v1">
            <gpxtpx:hr>153</gpxtpx:hr>
          </gpxtpx:TrackPointExtension>
        </extensions>
      </trkpt>
      <trkpt lat="36.79129" lon="28.12788">
        <ele>7.3</ele>
        <time>2018-05-13T06:59:15Z</time>
        <extensions>
          <gpxtpx:TrackPointExtension xmlns:gpxtpx="http://www.garmin.com/xmlschemas/TrackPointExtension/v1">
            <gpxtpx:hr>154</gpxtpx:hr>
          </gpxtpx:TrackPointExtension>
        </extensions>
      </trkpt>
      <trkpt lat="36.79126" lon="28.12788">
        <ele>7.3</ele>
        <time>2018-05-13T06:59:13Z</time>
        <extensions>
          <gpxtpx:TrackPointExtension xmlns:gpxtpx="http://www.garmin.com/xmlschemas/TrackPointExtension/v1">
            <gpxtpx:hr>155</gpxtpx:hr>
          </gpxtpx:TrackPointExtension>
        </extensions>
      </trkpt>
      <trkpt lat="36.79122" lon="28.12788">
        <ele>7.3</ele>
        <time>2018-05-13T06:59:11Z</time>
        <extensions>
          <gpxtpx:TrackPointExtension xmlns:gpxtpx="http://www.garmin.com/xmlschemas/TrackPointExtension/v1">
            <gpxtpx:hr>156</gpxtpx:hr>
          </gpxtpx:TrackPointExtension>
        </extensions>
      </trkpt>
      <trkpt lat="36.79119" lon="28.12788">
        <ele>7.3</ele>
        <time>2018-05-13T06:59:09Z</time>
        <extensions>
          <gpxtpx:TrackPointExtension xmlns:gpxtpx="http://www.garmin.com/xmlschemas/TrackPointExtension/v1">
            <gpxtpx:hr>156</gpxtpx:hr>
          </gpxtpx:TrackPointExtension>
        </extensions>
      </trkpt>
      <trkpt lat="36.79116" lon="28.12789">
        <ele>7.3</ele>
        <time>2018-05-13T06:59:07Z</time>
        <extensions>
          <gpxtpx:TrackPointExtension xmlns:gpxtpx="http://www.garmin.com/xmlschemas/TrackPointExtension/v1">
            <gpxtpx:hr>156</gpxtpx:hr>
          </gpxtpx:TrackPointExtension>
        </extensions>
      </trkpt>
      <trkpt lat="36.79112" lon="28.12789">
        <ele>7.3</ele>
        <time>2018-05-13T06:59:05Z</time>
        <extensions>
          <gpxtpx:TrackPointExtension xmlns:gpxtpx="http://www.garmin.com/xmlschemas/TrackPointExtension/v1">
            <gpxtpx:hr>156</gpxtpx:hr>
          </gpxtpx:TrackPointExtension>
        </extensions>
      </trkpt>
      <trkpt lat="36.79109" lon="28.1279">
        <ele>7.3</ele>
        <time>2018-05-13T06:59:03Z</time>
        <extensions>
          <gpxtpx:TrackPointExtension xmlns:gpxtpx="http://www.garmin.com/xmlschemas/TrackPointExtension/v1">
            <gpxtpx:hr>155</gpxtpx:hr>
          </gpxtpx:TrackPointExtension>
        </extensions>
      </trkpt>
      <trkpt lat="36.79106" lon="28.12792">
        <ele>7.3</ele>
        <time>2018-05-13T06:59:01Z</time>
        <extensions>
          <gpxtpx:TrackPointExtension xmlns:gpxtpx="http://www.garmin.com/xmlschemas/TrackPointExtension/v1">
            <gpxtpx:hr>154</gpxtpx:hr>
          </gpxtpx:TrackPointExtension>
        </extensions>
      </trkpt>
      <trkpt lat="36.79104" lon="28.12794">
        <ele>7.3</ele>
        <time>2018-05-13T06:58:59Z</time>
        <extensions>
          <gpxtpx:TrackPointExtension xmlns:gpxtpx="http://www.garmin.com/xmlschemas/TrackPointExtension/v1">
            <gpxtpx:hr>154</gpxtpx:hr>
          </gpxtpx:TrackPointExtension>
        </extensions>
      </trkpt>
      <trkpt lat="36.79101" lon="28.12795">
        <ele>7.3</ele>
        <time>2018-05-13T06:58:57Z</time>
        <extensions>
          <gpxtpx:TrackPointExtension xmlns:gpxtpx="http://www.garmin.com/xmlschemas/TrackPointExtension/v1">
            <gpxtpx:hr>153</gpxtpx:hr>
          </gpxtpx:TrackPointExtension>
        </extensions>
      </trkpt>
      <trkpt lat="36.79096" lon="28.12795">
        <ele>7.3</ele>
        <time>2018-05-13T06:58:55Z</time>
        <extensions>
          <gpxtpx:TrackPointExtension xmlns:gpxtpx="http://www.garmin.com/xmlschemas/TrackPointExtension/v1">
            <gpxtpx:hr>153</gpxtpx:hr>
          </gpxtpx:TrackPointExtension>
        </extensions>
      </trkpt>
      <trkpt lat="36.79093" lon="28.12797">
        <ele>7.2</ele>
        <time>2018-05-13T06:58:53Z</time>
        <extensions>
          <gpxtpx:TrackPointExtension xmlns:gpxtpx="http://www.garmin.com/xmlschemas/TrackPointExtension/v1">
            <gpxtpx:hr>151</gpxtpx:hr>
          </gpxtpx:TrackPointExtension>
        </extensions>
      </trkpt>
      <trkpt lat="36.7909" lon="28.12801">
        <ele>7.3</ele>
        <time>2018-05-13T06:58:50Z</time>
        <extensions>
          <gpxtpx:TrackPointExtension xmlns:gpxtpx="http://www.garmin.com/xmlschemas/TrackPointExtension/v1">
            <gpxtpx:hr>149</gpxtpx:hr>
          </gpxtpx:TrackPointExtension>
        </extensions>
      </trkpt>
      <trkpt lat="36.79087" lon="28.12804">
        <ele>7.1</ele>
        <time>2018-05-13T06:58:48Z</time>
        <extensions>
          <gpxtpx:TrackPointExtension xmlns:gpxtpx="http://www.garmin.com/xmlschemas/TrackPointExtension/v1">
            <gpxtpx:hr>147</gpxtpx:hr>
          </gpxtpx:TrackPointExtension>
        </extensions>
      </trkpt>
      <trkpt lat="36.79085" lon="28.12804">
        <ele>7</ele>
        <time>2018-05-13T06:58:46Z</time>
        <extensions>
          <gpxtpx:TrackPointExtension xmlns:gpxtpx="http://www.garmin.com/xmlschemas/TrackPointExtension/v1">
            <gpxtpx:hr>146</gpxtpx:hr>
          </gpxtpx:TrackPointExtension>
        </extensions>
      </trkpt>
      <trkpt lat="36.79081" lon="28.12803">
        <ele>6.8</ele>
        <time>2018-05-13T06:58:44Z</time>
        <extensions>
          <gpxtpx:TrackPointExtension xmlns:gpxtpx="http://www.garmin.com/xmlschemas/TrackPointExtension/v1">
            <gpxtpx:hr>144</gpxtpx:hr>
          </gpxtpx:TrackPointExtension>
        </extensions>
      </trkpt>
      <trkpt lat="36.79077" lon="28.12803">
        <ele>6.7</ele>
        <time>2018-05-13T06:58:42Z</time>
        <extensions>
          <gpxtpx:TrackPointExtension xmlns:gpxtpx="http://www.garmin.com/xmlschemas/TrackPointExtension/v1">
            <gpxtpx:hr>144</gpxtpx:hr>
          </gpxtpx:TrackPointExtension>
        </extensions>
      </trkpt>
      <trkpt lat="36.79074" lon="28.12805">
        <ele>6.5</ele>
        <time>2018-05-13T06:58:36Z</time>
        <extensions>
          <gpxtpx:TrackPointExtension xmlns:gpxtpx="http://www.garmin.com/xmlschemas/TrackPointExtension/v1">
            <gpxtpx:hr>141</gpxtpx:hr>
          </gpxtpx:TrackPointExtension>
        </extensions>
      </trkpt>
      <trkpt lat="36.79071" lon="28.12805">
        <ele>6.4</ele>
        <time>2018-05-13T06:58:32Z</time>
        <extensions>
          <gpxtpx:TrackPointExtension xmlns:gpxtpx="http://www.garmin.com/xmlschemas/TrackPointExtension/v1">
            <gpxtpx:hr>140</gpxtpx:hr>
          </gpxtpx:TrackPointExtension>
        </extensions>
      </trkpt>
      <trkpt lat="36.79069" lon="28.12804">
        <ele>6.4</ele>
        <time>2018-05-13T06:58:23Z</time>
        <extensions>
          <gpxtpx:TrackPointExtension xmlns:gpxtpx="http://www.garmin.com/xmlschemas/TrackPointExtension/v1">
            <gpxtpx:hr>142</gpxtpx:hr>
          </gpxtpx:TrackPointExtension>
        </extensions>
      </trkpt>
      <trkpt lat="36.79067" lon="28.12802">
        <ele>6.4</ele>
        <time>2018-05-13T06:58:19Z</time>
        <extensions>
          <gpxtpx:TrackPointExtension xmlns:gpxtpx="http://www.garmin.com/xmlschemas/TrackPointExtension/v1">
            <gpxtpx:hr>141</gpxtpx:hr>
          </gpxtpx:TrackPointExtension>
        </extensions>
      </trkpt>
      <trkpt lat="36.79064" lon="28.128">
        <ele>6.7</ele>
        <time>2018-05-13T06:58:15Z</time>
        <extensions>
          <gpxtpx:TrackPointExtension xmlns:gpxtpx="http://www.garmin.com/xmlschemas/TrackPointExtension/v1">
            <gpxtpx:hr>140</gpxtpx:hr>
          </gpxtpx:TrackPointExtension>
        </extensions>
      </trkpt>
      <trkpt lat="36.7906" lon="28.12799">
        <ele>6.7</ele>
        <time>2018-05-13T06:58:12Z</time>
        <extensions>
          <gpxtpx:TrackPointExtension xmlns:gpxtpx="http://www.garmin.com/xmlschemas/TrackPointExtension/v1">
            <gpxtpx:hr>139</gpxtpx:hr>
          </gpxtpx:TrackPointExtension>
        </extensions>
      </trkpt>
      <trkpt lat="36.79057" lon="28.128">
        <ele>6.8</ele>
        <time>2018-05-13T06:58:10Z</time>
        <extensions>
          <gpxtpx:TrackPointExtension xmlns:gpxtpx="http://www.garmin.com/xmlschemas/TrackPointExtension/v1">
            <gpxtpx:hr>139</gpxtpx:hr>
          </gpxtpx:TrackPointExtension>
        </extensions>
      </trkpt>
      <trkpt lat="36.79053" lon="28.12802">
        <ele>6.6</ele>
        <time>2018-05-13T06:58:08Z</time>
        <extensions>
          <gpxtpx:TrackPointExtension xmlns:gpxtpx="http://www.garmin.com/xmlschemas/TrackPointExtension/v1">
            <gpxtpx:hr>139</gpxtpx:hr>
          </gpxtpx:TrackPointExtension>
        </extensions>
      </trkpt>
      <trkpt lat="36.79051" lon="28.12804">
        <ele>6.6</ele>
        <time>2018-05-13T06:58:06Z</time>
        <extensions>
          <gpxtpx:TrackPointExtension xmlns:gpxtpx="http://www.garmin.com/xmlschemas/TrackPointExtension/v1">
            <gpxtpx:hr>139</gpxtpx:hr>
          </gpxtpx:TrackPointExtension>
        </extensions>
      </trkpt>
      <trkpt lat="36.79048" lon="28.12806">
        <ele>6.6</ele>
        <time>2018-05-13T06:58:04Z</time>
        <extensions>
          <gpxtpx:TrackPointExtension xmlns:gpxtpx="http://www.garmin.com/xmlschemas/TrackPointExtension/v1">
            <gpxtpx:hr>139</gpxtpx:hr>
          </gpxtpx:TrackPointExtension>
        </extensions>
      </trkpt>
      <trkpt lat="36.79045" lon="28.12807">
        <ele>6.6</ele>
        <time>2018-05-13T06:58:02Z</time>
        <extensions>
          <gpxtpx:TrackPointExtension xmlns:gpxtpx="http://www.garmin.com/xmlschemas/TrackPointExtension/v1">
            <gpxtpx:hr>139</gpxtpx:hr>
          </gpxtpx:TrackPointExtension>
        </extensions>
      </trkpt>
      <trkpt lat="36.79042" lon="28.12809">
        <ele>6.7</ele>
        <time>2018-05-13T06:58:00Z</time>
        <extensions>
          <gpxtpx:TrackPointExtension xmlns:gpxtpx="http://www.garmin.com/xmlschemas/TrackPointExtension/v1">
            <gpxtpx:hr>140</gpxtpx:hr>
          </gpxtpx:TrackPointExtension>
        </extensions>
      </trkpt>
      <trkpt lat="36.79037" lon="28.1281">
        <ele>6.8</ele>
        <time>2018-05-13T06:57:58Z</time>
        <extensions>
          <gpxtpx:TrackPointExtension xmlns:gpxtpx="http://www.garmin.com/xmlschemas/TrackPointExtension/v1">
            <gpxtpx:hr>141</gpxtpx:hr>
          </gpxtpx:TrackPointExtension>
        </extensions>
      </trkpt>
      <trkpt lat="36.79033" lon="28.12812">
        <ele>6.8</ele>
        <time>2018-05-13T06:57:56Z</time>
        <extensions>
          <gpxtpx:TrackPointExtension xmlns:gpxtpx="http://www.garmin.com/xmlschemas/TrackPointExtension/v1">
            <gpxtpx:hr>140</gpxtpx:hr>
          </gpxtpx:TrackPointExtension>
        </extensions>
      </trkpt>
      <trkpt lat="36.79029" lon="28.12814">
        <ele>6.9</ele>
        <time>2018-05-13T06:57:54Z</time>
        <extensions>
          <gpxtpx:TrackPointExtension xmlns:gpxtpx="http://www.garmin.com/xmlschemas/TrackPointExtension/v1">
            <gpxtpx:hr>140</gpxtpx:hr>
          </gpxtpx:TrackPointExtension>
        </extensions>
      </trkpt>
      <trkpt lat="36.79025" lon="28.12816">
        <ele>6.9</ele>
        <time>2018-05-13T06:57:52Z</time>
        <extensions>
          <gpxtpx:TrackPointExtension xmlns:gpxtpx="http://www.garmin.com/xmlschemas/TrackPointExtension/v1">
            <gpxtpx:hr>139</gpxtpx:hr>
          </gpxtpx:TrackPointExtension>
        </extensions>
      </trkpt>
      <trkpt lat="36.79021" lon="28.12818">
        <ele>7.4</ele>
        <time>2018-05-13T06:57:50Z</time>
        <extensions>
          <gpxtpx:TrackPointExtension xmlns:gpxtpx="http://www.garmin.com/xmlschemas/TrackPointExtension/v1">
            <gpxtpx:hr>139</gpxtpx:hr>
          </gpxtpx:TrackPointExtension>
        </extensions>
      </trkpt>
      <trkpt lat="36.79016" lon="28.1282">
        <ele>7.4</ele>
        <time>2018-05-13T06:57:48Z</time>
        <extensions>
          <gpxtpx:TrackPointExtension xmlns:gpxtpx="http://www.garmin.com/xmlschemas/TrackPointExtension/v1">
            <gpxtpx:hr>138</gpxtpx:hr>
          </gpxtpx:TrackPointExtension>
        </extensions>
      </trkpt>
      <trkpt lat="36.79011" lon="28.12822">
        <ele>7.9</ele>
        <time>2018-05-13T06:57:46Z</time>
        <extensions>
          <gpxtpx:TrackPointExtension xmlns:gpxtpx="http://www.garmin.com/xmlschemas/TrackPointExtension/v1">
            <gpxtpx:hr>138</gpxtpx:hr>
          </gpxtpx:TrackPointExtension>
        </extensions>
      </trkpt>
      <trkpt lat="36.79008" lon="28.12824">
        <ele>7.8</ele>
        <time>2018-05-13T06:57:44Z</time>
        <extensions>
          <gpxtpx:TrackPointExtension xmlns:gpxtpx="http://www.garmin.com/xmlschemas/TrackPointExtension/v1">
            <gpxtpx:hr>137</gpxtpx:hr>
          </gpxtpx:TrackPointExtension>
        </extensions>
      </trkpt>
      <trkpt lat="36.79004" lon="28.12826">
        <ele>7.7</ele>
        <time>2018-05-13T06:57:42Z</time>
        <extensions>
          <gpxtpx:TrackPointExtension xmlns:gpxtpx="http://www.garmin.com/xmlschemas/TrackPointExtension/v1">
            <gpxtpx:hr>136</gpxtpx:hr>
          </gpxtpx:TrackPointExtension>
        </extensions>
      </trkpt>
      <trkpt lat="36.79" lon="28.12828">
        <ele>7.6</ele>
        <time>2018-05-13T06:57:40Z</time>
        <extensions>
          <gpxtpx:TrackPointExtension xmlns:gpxtpx="http://www.garmin.com/xmlschemas/TrackPointExtension/v1">
            <gpxtpx:hr>134</gpxtpx:hr>
          </gpxtpx:TrackPointExtension>
        </extensions>
      </trkpt>
      <trkpt lat="36.78996" lon="28.1283">
        <ele>7.3</ele>
        <time>2018-05-13T06:57:38Z</time>
        <extensions>
          <gpxtpx:TrackPointExtension xmlns:gpxtpx="http://www.garmin.com/xmlschemas/TrackPointExtension/v1">
            <gpxtpx:hr>133</gpxtpx:hr>
          </gpxtpx:TrackPointExtension>
        </extensions>
      </trkpt>
      <trkpt lat="36.78993" lon="28.12832">
        <ele>7.1</ele>
        <time>2018-05-13T06:57:36Z</time>
        <extensions>
          <gpxtpx:TrackPointExtension xmlns:gpxtpx="http://www.garmin.com/xmlschemas/TrackPointExtension/v1">
            <gpxtpx:hr>129</gpxtpx:hr>
          </gpxtpx:TrackPointExtension>
        </extensions>
      </trkpt>
      <trkpt lat="36.78989" lon="28.12835">
        <ele>6.8</ele>
        <time>2018-05-13T06:57:34Z</time>
        <extensions>
          <gpxtpx:TrackPointExtension xmlns:gpxtpx="http://www.garmin.com/xmlschemas/TrackPointExtension/v1">
            <gpxtpx:hr>128</gpxtpx:hr>
          </gpxtpx:TrackPointExtension>
        </extensions>
      </trkpt>
      <trkpt lat="36.78985" lon="28.12838">
        <ele>6.6</ele>
        <time>2018-05-13T06:57:32Z</time>
        <extensions>
          <gpxtpx:TrackPointExtension xmlns:gpxtpx="http://www.garmin.com/xmlschemas/TrackPointExtension/v1">
            <gpxtpx:hr>126</gpxtpx:hr>
          </gpxtpx:TrackPointExtension>
        </extensions>
      </trkpt>
      <trkpt lat="36.78981" lon="28.1284">
        <ele>6.5</ele>
        <time>2018-05-13T06:57:30Z</time>
        <extensions>
          <gpxtpx:TrackPointExtension xmlns:gpxtpx="http://www.garmin.com/xmlschemas/TrackPointExtension/v1">
            <gpxtpx:hr>121</gpxtpx:hr>
          </gpxtpx:TrackPointExtension>
        </extensions>
      </trkpt>
      <trkpt lat="36.78977" lon="28.12842">
        <ele>6.5</ele>
        <time>2018-05-13T06:57:28Z</time>
        <extensions>
          <gpxtpx:TrackPointExtension xmlns:gpxtpx="http://www.garmin.com/xmlschemas/TrackPointExtension/v1">
            <gpxtpx:hr>121</gpxtpx:hr>
          </gpxtpx:TrackPointExtension>
        </extensions>
      </trkpt>
      <trkpt lat="36.78974" lon="28.12842">
        <ele>6.5</ele>
        <time>2018-05-13T06:57:26Z</time>
        <extensions>
          <gpxtpx:TrackPointExtension xmlns:gpxtpx="http://www.garmin.com/xmlschemas/TrackPointExtension/v1">
            <gpxtpx:hr>121</gpxtpx:hr>
          </gpxtpx:TrackPointExtension>
        </extensions>
      </trkpt>
      <trkpt lat="36.78971" lon="28.12844">
        <ele>6.7</ele>
        <time>2018-05-13T06:57:24Z</time>
        <extensions>
          <gpxtpx:TrackPointExtension xmlns:gpxtpx="http://www.garmin.com/xmlschemas/TrackPointExtension/v1">
            <gpxtpx:hr>119</gpxtpx:hr>
          </gpxtpx:TrackPointExtension>
        </extensions>
      </trkpt>
      <trkpt lat="36.78969" lon="28.12846">
        <ele>6.9</ele>
        <time>2018-05-13T06:57:22Z</time>
        <extensions>
          <gpxtpx:TrackPointExtension xmlns:gpxtpx="http://www.garmin.com/xmlschemas/TrackPointExtension/v1">
            <gpxtpx:hr>118</gpxtpx:hr>
          </gpxtpx:TrackPointExtension>
        </extensions>
      </trkpt>
      <trkpt lat="36.78966" lon="28.12849">
        <ele>7</ele>
        <time>2018-05-13T06:57:20Z</time>
        <extensions>
          <gpxtpx:TrackPointExtension xmlns:gpxtpx="http://www.garmin.com/xmlschemas/TrackPointExtension/v1">
            <gpxtpx:hr>118</gpxtpx:hr>
          </gpxtpx:TrackPointExtension>
        </extensions>
      </trkpt>
      <trkpt lat="36.78962" lon="28.12853">
        <ele>7</ele>
        <time>2018-05-13T06:57:18Z</time>
        <extensions>
          <gpxtpx:TrackPointExtension xmlns:gpxtpx="http://www.garmin.com/xmlschemas/TrackPointExtension/v1">
            <gpxtpx:hr>117</gpxtpx:hr>
          </gpxtpx:TrackPointExtension>
        </extensions>
      </trkpt>
      <trkpt lat="36.78958" lon="28.12856">
        <ele>6.8</ele>
        <time>2018-05-13T06:57:16Z</time>
        <extensions>
          <gpxtpx:TrackPointExtension xmlns:gpxtpx="http://www.garmin.com/xmlschemas/TrackPointExtension/v1">
            <gpxtpx:hr>117</gpxtpx:hr>
          </gpxtpx:TrackPointExtension>
        </extensions>
      </trkpt>
      <trkpt lat="36.78954" lon="28.1286">
        <ele>6.7</ele>
        <time>2018-05-13T06:57:14Z</time>
        <extensions>
          <gpxtpx:TrackPointExtension xmlns:gpxtpx="http://www.garmin.com/xmlschemas/TrackPointExtension/v1">
            <gpxtpx:hr>115</gpxtpx:hr>
          </gpxtpx:TrackPointExtension>
        </extensions>
      </trkpt>
      <trkpt lat="36.78951" lon="28.12862">
        <ele>6.3</ele>
        <time>2018-05-13T06:57:13Z</time>
        <extensions>
          <gpxtpx:TrackPointExtension xmlns:gpxtpx="http://www.garmin.com/xmlschemas/TrackPointExtension/v1">
            <gpxtpx:hr>114</gpxtpx:hr>
          </gpxtpx:TrackPointExtension>
        </extensions>
      </trkpt>
      <trkpt lat="36.78946" lon="28.12864">
        <ele>6.3</ele>
        <time>2018-05-13T06:57:11Z</time>
        <extensions>
          <gpxtpx:TrackPointExtension xmlns:gpxtpx="http://www.garmin.com/xmlschemas/TrackPointExtension/v1">
            <gpxtpx:hr>111</gpxtpx:hr>
          </gpxtpx:TrackPointExtension>
        </extensions>
      </trkpt>
      <trkpt lat="36.78942" lon="28.12865">
        <ele>6.2</ele>
        <time>2018-05-13T06:57:09Z</time>
        <extensions>
          <gpxtpx:TrackPointExtension xmlns:gpxtpx="http://www.garmin.com/xmlschemas/TrackPointExtension/v1">
            <gpxtpx:hr>107</gpxtpx:hr>
          </gpxtpx:TrackPointExtension>
        </extensions>
      </trkpt>
      <trkpt lat="36.78939" lon="28.12867">
        <ele>6.5</ele>
        <time>2018-05-13T06:57:07Z</time>
        <extensions>
          <gpxtpx:TrackPointExtension xmlns:gpxtpx="http://www.garmin.com/xmlschemas/TrackPointExtension/v1">
            <gpxtpx:hr>103</gpxtpx:hr>
          </gpxtpx:TrackPointExtension>
        </extensions>
      </trkpt>
      <trkpt lat="36.78935" lon="28.12869">
        <ele>6.7</ele>
        <time>2018-05-13T06:57:05Z</time>
        <extensions>
          <gpxtpx:TrackPointExtension xmlns:gpxtpx="http://www.garmin.com/xmlschemas/TrackPointExtension/v1">
            <gpxtpx:hr>100</gpxtpx:hr>
          </gpxtpx:TrackPointExtension>
        </extensions>
      </trkpt>
      <trkpt lat="36.78931" lon="28.1287">
        <ele>7</ele>
        <time>2018-05-13T06:57:03Z</time>
        <extensions>
          <gpxtpx:TrackPointExtension xmlns:gpxtpx="http://www.garmin.com/xmlschemas/TrackPointExtension/v1">
            <gpxtpx:hr>96</gpxtpx:hr>
          </gpxtpx:TrackPointExtension>
        </extensions>
      </trkpt>
      <trkpt lat="36.78927" lon="28.12872">
        <ele>7.2</ele>
        <time>2018-05-13T06:57:01Z</time>
        <extensions>
          <gpxtpx:TrackPointExtension xmlns:gpxtpx="http://www.garmin.com/xmlschemas/TrackPointExtension/v1">
            <gpxtpx:hr>92</gpxtpx:hr>
          </gpxtpx:TrackPointExtension>
        </extensions>
      </trkpt>
      <trkpt lat="36.78923" lon="28.12873">
        <ele>7.2</ele>
        <time>2018-05-13T06:56:59Z</time>
        <extensions>
          <gpxtpx:TrackPointExtension xmlns:gpxtpx="http://www.garmin.com/xmlschemas/TrackPointExtension/v1">
            <gpxtpx:hr>90</gpxtpx:hr>
          </gpxtpx:TrackPointExtension>
        </extensions>
      </trkpt>
      <trkpt lat="36.78919" lon="28.12874">
        <ele>7.5</ele>
        <time>2018-05-13T06:56:56Z</time>
        <extensions>
          <gpxtpx:TrackPointExtension xmlns:gpxtpx="http://www.garmin.com/xmlschemas/TrackPointExtension/v1">
            <gpxtpx:hr>90</gpxtpx:hr>
          </gpxtpx:TrackPointExtension>
        </extensions>
      </trkpt>
      <trkpt lat="36.78873" lon="28.12903">
        <ele>6</ele>
        <time>2018-05-13T07:27:45Z</time>
        <extensions>
          <gpxtpx:TrackPointExtension xmlns:gpxtpx="http://www.garmin.com/xmlschemas/TrackPointExtension/v1">
            <gpxtpx:hr>171</gpxtpx:hr>
          </gpxtpx:TrackPointExtension>
        </extensions>
      </trkpt>
      <trkpt lat="36.78869" lon="28.12903">
        <ele>6</ele>
        <time>2018-05-13T07:27:42Z</time>
        <extensions>
          <gpxtpx:TrackPointExtension xmlns:gpxtpx="http://www.garmin.com/xmlschemas/TrackPointExtension/v1">
            <gpxtpx:hr>171</gpxtpx:hr>
          </gpxtpx:TrackPointExtension>
        </extensions>
      </trkpt>
      <trkpt lat="36.78866" lon="28.12903">
        <ele>6</ele>
        <time>2018-05-13T07:27:40Z</time>
        <extensions>
          <gpxtpx:TrackPointExtension xmlns:gpxtpx="http://www.garmin.com/xmlschemas/TrackPointExtension/v1">
            <gpxtpx:hr>171</gpxtpx:hr>
          </gpxtpx:TrackPointExtension>
        </extensions>
      </trkpt>
      <trkpt lat="36.78862" lon="28.12903">
        <ele>6</ele>
        <time>2018-05-13T07:27:38Z</time>
        <extensions>
          <gpxtpx:TrackPointExtension xmlns:gpxtpx="http://www.garmin.com/xmlschemas/TrackPointExtension/v1">
            <gpxtpx:hr>171</gpxtpx:hr>
          </gpxtpx:TrackPointExtension>
        </extensions>
      </trkpt>
      <trkpt lat="36.78862" lon="28.12903">
        <ele>6</ele>
        <time>2018-05-13T07:27:38Z</time>
        <extensions>
          <gpxtpx:TrackPointExtension xmlns:gpxtpx="http://www.garmin.com/xmlschemas/TrackPointExtension/v1">
            <gpxtpx:hr>171</gpxtpx:hr>
          </gpxtpx:TrackPointExtension>
        </extensions>
      </trkpt>
      <trkpt lat="36.78862" lon="28.12903">
        <ele>6</ele>
        <time>2018-05-13T07:27:38Z</time>
        <extensions>
          <gpxtpx:TrackPointExtension xmlns:gpxtpx="http://www.garmin.com/xmlschemas/TrackPointExtension/v1">
            <gpxtpx:hr>171</gpxtpx:hr>
          </gpxtpx:TrackPointExtension>
        </extensions>
      </trkpt>
      <trkpt lat="36.78862" lon="28.12903">
        <ele>6</ele>
        <time>2018-05-13T07:27:38Z</time>
        <extensions>
          <gpxtpx:TrackPointExtension xmlns:gpxtpx="http://www.garmin.com/xmlschemas/TrackPointExtension/v1">
            <gpxtpx:hr>171</gpxtpx:hr>
          </gpxtpx:TrackPointExtension>
        </extensions>
      </trkpt>
      <trkpt lat="36.78862" lon="28.12903">
        <ele>6</ele>
        <time>2018-05-13T07:27:38Z</time>
        <extensions>
          <gpxtpx:TrackPointExtension xmlns:gpxtpx="http://www.garmin.com/xmlschemas/TrackPointExtension/v1">
            <gpxtpx:hr>171</gpxtpx:hr>
          </gpxtpx:TrackPointExtension>
        </extensions>
      </trkpt>
      <trkpt lat="36.78862" lon="28.12903">
        <ele>6</ele>
        <time>2018-05-13T07:27:38Z</time>
        <extensions>
          <gpxtpx:TrackPointExtension xmlns:gpxtpx="http://www.garmin.com/xmlschemas/TrackPointExtension/v1">
            <gpxtpx:hr>171</gpxtpx:hr>
          </gpxtpx:TrackPointExtension>
        </extensions>
      </trkpt>
      <trkpt lat="36.78862" lon="28.12903">
        <ele>6</ele>
        <time>2018-05-13T07:27:38Z</time>
        <extensions>
          <gpxtpx:TrackPointExtension xmlns:gpxtpx="http://www.garmin.com/xmlschemas/TrackPointExtension/v1">
            <gpxtpx:hr>171</gpxtpx:hr>
          </gpxtpx:TrackPointExtension>
        </extensions>
      </trkpt>
      <trkpt lat="36.78862" lon="28.12903">
        <ele>6</ele>
        <time>2018-05-13T07:27:38Z</time>
        <extensions>
          <gpxtpx:TrackPointExtension xmlns:gpxtpx="http://www.garmin.com/xmlschemas/TrackPointExtension/v1">
            <gpxtpx:hr>171</gpxtpx:hr>
          </gpxtpx:TrackPointExtension>
        </extensions>
      </trkpt>
      <trkpt lat="36.78862" lon="28.12903">
        <ele>6</ele>
        <time>2018-05-13T07:27:38Z</time>
        <extensions>
          <gpxtpx:TrackPointExtension xmlns:gpxtpx="http://www.garmin.com/xmlschemas/TrackPointExtension/v1">
            <gpxtpx:hr>171</gpxtpx:hr>
          </gpxtpx:TrackPointExtension>
        </extensions>
      </trkpt>
      <trkpt lat="36.78862" lon="28.12903">
        <ele>6</ele>
        <time>2018-05-13T07:27:38Z</time>
        <extensions>
          <gpxtpx:TrackPointExtension xmlns:gpxtpx="http://www.garmin.com/xmlschemas/TrackPointExtension/v1">
            <gpxtpx:hr>171</gpxtpx:hr>
          </gpxtpx:TrackPointExtension>
        </extensions>
      </trkpt>
      <trkpt lat="36.78862" lon="28.12903">
        <ele>6</ele>
        <time>2018-05-13T07:27:38Z</time>
        <extensions>
          <gpxtpx:TrackPointExtension xmlns:gpxtpx="http://www.garmin.com/xmlschemas/TrackPointExtension/v1">
            <gpxtpx:hr>171</gpxtpx:hr>
          </gpxtpx:TrackPointExtension>
        </extensions>
      </trkpt>
      <trkpt lat="36.78862" lon="28.12903">
        <ele>6</ele>
        <time>2018-05-13T07:27:38Z</time>
        <extensions>
          <gpxtpx:TrackPointExtension xmlns:gpxtpx="http://www.garmin.com/xmlschemas/TrackPointExtension/v1">
            <gpxtpx:hr>171</gpxtpx:hr>
          </gpxtpx:TrackPointExtension>
        </extensions>
      </trkpt>
      <trkpt lat="36.78862" lon="28.12903">
        <ele>6</ele>
        <time>2018-05-13T07:27:38Z</time>
        <extensions>
          <gpxtpx:TrackPointExtension xmlns:gpxtpx="http://www.garmin.com/xmlschemas/TrackPointExtension/v1">
            <gpxtpx:hr>171</gpxtpx:hr>
          </gpxtpx:TrackPointExtension>
        </extensions>
      </trkpt>
      <trkpt lat="36.78862" lon="28.12903">
        <ele>6</ele>
        <time>2018-05-13T07:27:38Z</time>
        <extensions>
          <gpxtpx:TrackPointExtension xmlns:gpxtpx="http://www.garmin.com/xmlschemas/TrackPointExtension/v1">
            <gpxtpx:hr>171</gpxtpx:hr>
          </gpxtpx:TrackPointExtension>
        </extensions>
      </trkpt>
      <trkpt lat="36.78862" lon="28.12903">
        <ele>6</ele>
        <time>2018-05-13T07:27:38Z</time>
        <extensions>
          <gpxtpx:TrackPointExtension xmlns:gpxtpx="http://www.garmin.com/xmlschemas/TrackPointExtension/v1">
            <gpxtpx:hr>171</gpxtpx:hr>
          </gpxtpx:TrackPointExtension>
        </extensions>
      </trkpt>
      <trkpt lat="36.78862" lon="28.12903">
        <ele>6</ele>
        <time>2018-05-13T07:27:38Z</time>
        <extensions>
          <gpxtpx:TrackPointExtension xmlns:gpxtpx="http://www.garmin.com/xmlschemas/TrackPointExtension/v1">
            <gpxtpx:hr>171</gpxtpx:hr>
          </gpxtpx:TrackPointExtension>
        </extensions>
      </trkpt>
      <trkpt lat="36.78859" lon="28.12904">
        <ele>6</ele>
        <time>2018-05-13T07:27:37Z</time>
        <extensions>
          <gpxtpx:TrackPointExtension xmlns:gpxtpx="http://www.garmin.com/xmlschemas/TrackPointExtension/v1">
            <gpxtpx:hr>171</gpxtpx:hr>
          </gpxtpx:TrackPointExtension>
        </extensions>
      </trkpt>
      <trkpt lat="36.78856" lon="28.1291">
        <ele>6</ele>
        <time>2018-05-13T07:27:35Z</time>
        <extensions>
          <gpxtpx:TrackPointExtension xmlns:gpxtpx="http://www.garmin.com/xmlschemas/TrackPointExtension/v1">
            <gpxtpx:hr>171</gpxtpx:hr>
          </gpxtpx:TrackPointExtension>
        </extensions>
      </trkpt>
      <trkpt lat="36.78857" lon="28.12913">
        <ele>6</ele>
        <time>2018-05-13T07:27:34Z</time>
        <extensions>
          <gpxtpx:TrackPointExtension xmlns:gpxtpx="http://www.garmin.com/xmlschemas/TrackPointExtension/v1">
            <gpxtpx:hr>171</gpxtpx:hr>
          </gpxtpx:TrackPointExtension>
        </extensions>
      </trkpt>
      <trkpt lat="36.78858" lon="28.1292">
        <ele>6</ele>
        <time>2018-05-13T07:27:32Z</time>
        <extensions>
          <gpxtpx:TrackPointExtension xmlns:gpxtpx="http://www.garmin.com/xmlschemas/TrackPointExtension/v1">
            <gpxtpx:hr>171</gpxtpx:hr>
          </gpxtpx:TrackPointExtension>
        </extensions>
      </trkpt>
      <trkpt lat="36.7886" lon="28.12923">
        <ele>6</ele>
        <time>2018-05-13T07:27:31Z</time>
        <extensions>
          <gpxtpx:TrackPointExtension xmlns:gpxtpx="http://www.garmin.com/xmlschemas/TrackPointExtension/v1">
            <gpxtpx:hr>170</gpxtpx:hr>
          </gpxtpx:TrackPointExtension>
        </extensions>
      </trkpt>
      <trkpt lat="36.78861" lon="28.12927">
        <ele>6</ele>
        <time>2018-05-13T07:27:30Z</time>
        <extensions>
          <gpxtpx:TrackPointExtension xmlns:gpxtpx="http://www.garmin.com/xmlschemas/TrackPointExtension/v1">
            <gpxtpx:hr>170</gpxtpx:hr>
          </gpxtpx:TrackPointExtension>
        </extensions>
      </trkpt>
      <trkpt lat="36.78862" lon="28.12931">
        <ele>6</ele>
        <time>2018-05-13T07:27:29Z</time>
        <extensions>
          <gpxtpx:TrackPointExtension xmlns:gpxtpx="http://www.garmin.com/xmlschemas/TrackPointExtension/v1">
            <gpxtpx:hr>170</gpxtpx:hr>
          </gpxtpx:TrackPointExtension>
        </extensions>
      </trkpt>
      <trkpt lat="36.78863" lon="28.12934">
        <ele>6</ele>
        <time>2018-05-13T07:27:28Z</time>
        <extensions>
          <gpxtpx:TrackPointExtension xmlns:gpxtpx="http://www.garmin.com/xmlschemas/TrackPointExtension/v1">
            <gpxtpx:hr>170</gpxtpx:hr>
          </gpxtpx:TrackPointExtension>
        </extensions>
      </trkpt>
      <trkpt lat="36.78864" lon="28.12938">
        <ele>6</ele>
        <time>2018-05-13T07:27:27Z</time>
        <extensions>
          <gpxtpx:TrackPointExtension xmlns:gpxtpx="http://www.garmin.com/xmlschemas/TrackPointExtension/v1">
            <gpxtpx:hr>169</gpxtpx:hr>
          </gpxtpx:TrackPointExtension>
        </extensions>
      </trkpt>
      <trkpt lat="36.78865" lon="28.12942">
        <ele>6</ele>
        <time>2018-05-13T07:27:26Z</time>
        <extensions>
          <gpxtpx:TrackPointExtension xmlns:gpxtpx="http://www.garmin.com/xmlschemas/TrackPointExtension/v1">
            <gpxtpx:hr>168</gpxtpx:hr>
          </gpxtpx:TrackPointExtension>
        </extensions>
      </trkpt>
      <trkpt lat="36.78866" lon="28.12945">
        <ele>6</ele>
        <time>2018-05-13T07:27:25Z</time>
        <extensions>
          <gpxtpx:TrackPointExtension xmlns:gpxtpx="http://www.garmin.com/xmlschemas/TrackPointExtension/v1">
            <gpxtpx:hr>168</gpxtpx:hr>
          </gpxtpx:TrackPointExtension>
        </extensions>
      </trkpt>
      <trkpt lat="36.78867" lon="28.12949">
        <ele>6</ele>
        <time>2018-05-13T07:27:24Z</time>
        <extensions>
          <gpxtpx:TrackPointExtension xmlns:gpxtpx="http://www.garmin.com/xmlschemas/TrackPointExtension/v1">
            <gpxtpx:hr>168</gpxtpx:hr>
          </gpxtpx:TrackPointExtension>
        </extensions>
      </trkpt>
      <trkpt lat="36.78868" lon="28.12953">
        <ele>6</ele>
        <time>2018-05-13T07:27:23Z</time>
        <extensions>
          <gpxtpx:TrackPointExtension xmlns:gpxtpx="http://www.garmin.com/xmlschemas/TrackPointExtension/v1">
            <gpxtpx:hr>168</gpxtpx:hr>
          </gpxtpx:TrackPointExtension>
        </extensions>
      </trkpt>
      <trkpt lat="36.7887" lon="28.12957">
        <ele>6</ele>
        <time>2018-05-13T07:27:22Z</time>
        <extensions>
          <gpxtpx:TrackPointExtension xmlns:gpxtpx="http://www.garmin.com/xmlschemas/TrackPointExtension/v1">
            <gpxtpx:hr>168</gpxtpx:hr>
          </gpxtpx:TrackPointExtension>
        </extensions>
      </trkpt>
      <trkpt lat="36.78871" lon="28.12961">
        <ele>6</ele>
        <time>2018-05-13T07:27:21Z</time>
        <extensions>
          <gpxtpx:TrackPointExtension xmlns:gpxtpx="http://www.garmin.com/xmlschemas/TrackPointExtension/v1">
            <gpxtpx:hr>167</gpxtpx:hr>
          </gpxtpx:TrackPointExtension>
        </extensions>
      </trkpt>
      <trkpt lat="36.78873" lon="28.12964">
        <ele>6</ele>
        <time>2018-05-13T07:27:20Z</time>
        <extensions>
          <gpxtpx:TrackPointExtension xmlns:gpxtpx="http://www.garmin.com/xmlschemas/TrackPointExtension/v1">
            <gpxtpx:hr>166</gpxtpx:hr>
          </gpxtpx:TrackPointExtension>
        </extensions>
      </trkpt>
      <trkpt lat="36.78874" lon="28.12968">
        <ele>6</ele>
        <time>2018-05-13T07:27:19Z</time>
        <extensions>
          <gpxtpx:TrackPointExtension xmlns:gpxtpx="http://www.garmin.com/xmlschemas/TrackPointExtension/v1">
            <gpxtpx:hr>165</gpxtpx:hr>
          </gpxtpx:TrackPointExtension>
        </extensions>
      </trkpt>
      <trkpt lat="36.78875" lon="28.12972">
        <ele>6</ele>
        <time>2018-05-13T07:27:18Z</time>
        <extensions>
          <gpxtpx:TrackPointExtension xmlns:gpxtpx="http://www.garmin.com/xmlschemas/TrackPointExtension/v1">
            <gpxtpx:hr>165</gpxtpx:hr>
          </gpxtpx:TrackPointExtension>
        </extensions>
      </trkpt>
      <trkpt lat="36.78877" lon="28.12976">
        <ele>6</ele>
        <time>2018-05-13T07:27:17Z</time>
        <extensions>
          <gpxtpx:TrackPointExtension xmlns:gpxtpx="http://www.garmin.com/xmlschemas/TrackPointExtension/v1">
            <gpxtpx:hr>165</gpxtpx:hr>
          </gpxtpx:TrackPointExtension>
        </extensions>
      </trkpt>
      <trkpt lat="36.78878" lon="28.1298">
        <ele>6.1</ele>
        <time>2018-05-13T07:27:16Z</time>
        <extensions>
          <gpxtpx:TrackPointExtension xmlns:gpxtpx="http://www.garmin.com/xmlschemas/TrackPointExtension/v1">
            <gpxtpx:hr>164</gpxtpx:hr>
          </gpxtpx:TrackPointExtension>
        </extensions>
      </trkpt>
      <trkpt lat="36.78879" lon="28.12984">
        <ele>6.1</ele>
        <time>2018-05-13T07:27:15Z</time>
        <extensions>
          <gpxtpx:TrackPointExtension xmlns:gpxtpx="http://www.garmin.com/xmlschemas/TrackPointExtension/v1">
            <gpxtpx:hr>163</gpxtpx:hr>
          </gpxtpx:TrackPointExtension>
        </extensions>
      </trkpt>
      <trkpt lat="36.78881" lon="28.12988">
        <ele>6.1</ele>
        <time>2018-05-13T07:27:14Z</time>
        <extensions>
          <gpxtpx:TrackPointExtension xmlns:gpxtpx="http://www.garmin.com/xmlschemas/TrackPointExtension/v1">
            <gpxtpx:hr>162</gpxtpx:hr>
          </gpxtpx:TrackPointExtension>
        </extensions>
      </trkpt>
      <trkpt lat="36.78884" lon="28.12994">
        <ele>6.1</ele>
        <time>2018-05-13T07:27:12Z</time>
        <extensions>
          <gpxtpx:TrackPointExtension xmlns:gpxtpx="http://www.garmin.com/xmlschemas/TrackPointExtension/v1">
            <gpxtpx:hr>166</gpxtpx:hr>
          </gpxtpx:TrackPointExtension>
        </extensions>
      </trkpt>
      <trkpt lat="36.78887" lon="28.12998">
        <ele>6.1</ele>
        <time>2018-05-13T07:27:10Z</time>
        <extensions>
          <gpxtpx:TrackPointExtension xmlns:gpxtpx="http://www.garmin.com/xmlschemas/TrackPointExtension/v1">
            <gpxtpx:hr>166</gpxtpx:hr>
          </gpxtpx:TrackPointExtension>
        </extensions>
      </trkpt>
      <trkpt lat="36.78889" lon="28.13003">
        <ele>6.2</ele>
        <time>2018-05-13T07:27:08Z</time>
        <extensions>
          <gpxtpx:TrackPointExtension xmlns:gpxtpx="http://www.garmin.com/xmlschemas/TrackPointExtension/v1">
            <gpxtpx:hr>166</gpxtpx:hr>
          </gpxtpx:TrackPointExtension>
        </extensions>
      </trkpt>
      <trkpt lat="36.78891" lon="28.13009">
        <ele>6.2</ele>
        <time>2018-05-13T07:27:06Z</time>
        <extensions>
          <gpxtpx:TrackPointExtension xmlns:gpxtpx="http://www.garmin.com/xmlschemas/TrackPointExtension/v1">
            <gpxtpx:hr>173</gpxtpx:hr>
          </gpxtpx:TrackPointExtension>
        </extensions>
      </trkpt>
      <trkpt lat="36.78894" lon="28.13015">
        <ele>6.2</ele>
        <time>2018-05-13T07:27:04Z</time>
        <extensions>
          <gpxtpx:TrackPointExtension xmlns:gpxtpx="http://www.garmin.com/xmlschemas/TrackPointExtension/v1">
            <gpxtpx:hr>173</gpxtpx:hr>
          </gpxtpx:TrackPointExtension>
        </extensions>
      </trkpt>
      <trkpt lat="36.78895" lon="28.13018">
        <ele>6.3</ele>
        <time>2018-05-13T07:27:03Z</time>
        <extensions>
          <gpxtpx:TrackPointExtension xmlns:gpxtpx="http://www.garmin.com/xmlschemas/TrackPointExtension/v1">
            <gpxtpx:hr>173</gpxtpx:hr>
          </gpxtpx:TrackPointExtension>
        </extensions>
      </trkpt>
      <trkpt lat="36.78897" lon="28.13021">
        <ele>6.3</ele>
        <time>2018-05-13T07:27:02Z</time>
        <extensions>
          <gpxtpx:TrackPointExtension xmlns:gpxtpx="http://www.garmin.com/xmlschemas/TrackPointExtension/v1">
            <gpxtpx:hr>173</gpxtpx:hr>
          </gpxtpx:TrackPointExtension>
        </extensions>
      </trkpt>
      <trkpt lat="36.78898" lon="28.13025">
        <ele>6.3</ele>
        <time>2018-05-13T07:27:01Z</time>
        <extensions>
          <gpxtpx:TrackPointExtension xmlns:gpxtpx="http://www.garmin.com/xmlschemas/TrackPointExtension/v1">
            <gpxtpx:hr>173</gpxtpx:hr>
          </gpxtpx:TrackPointExtension>
        </extensions>
      </trkpt>
      <trkpt lat="36.789" lon="28.13028">
        <ele>6.3</ele>
        <time>2018-05-13T07:27:00Z</time>
        <extensions>
          <gpxtpx:TrackPointExtension xmlns:gpxtpx="http://www.garmin.com/xmlschemas/TrackPointExtension/v1">
            <gpxtpx:hr>173</gpxtpx:hr>
          </gpxtpx:TrackPointExtension>
        </extensions>
      </trkpt>
      <trkpt lat="36.78902" lon="28.13031">
        <ele>6.3</ele>
        <time>2018-05-13T07:26:59Z</time>
        <extensions>
          <gpxtpx:TrackPointExtension xmlns:gpxtpx="http://www.garmin.com/xmlschemas/TrackPointExtension/v1">
            <gpxtpx:hr>173</gpxtpx:hr>
          </gpxtpx:TrackPointExtension>
        </extensions>
      </trkpt>
      <trkpt lat="36.78903" lon="28.13035">
        <ele>6.4</ele>
        <time>2018-05-13T07:26:58Z</time>
        <extensions>
          <gpxtpx:TrackPointExtension xmlns:gpxtpx="http://www.garmin.com/xmlschemas/TrackPointExtension/v1">
            <gpxtpx:hr>173</gpxtpx:hr>
          </gpxtpx:TrackPointExtension>
        </extensions>
      </trkpt>
      <trkpt lat="36.78905" lon="28.13039">
        <ele>6.4</ele>
        <time>2018-05-13T07:26:57Z</time>
        <extensions>
          <gpxtpx:TrackPointExtension xmlns:gpxtpx="http://www.garmin.com/xmlschemas/TrackPointExtension/v1">
            <gpxtpx:hr>173</gpxtpx:hr>
          </gpxtpx:TrackPointExtension>
        </extensions>
      </trkpt>
      <trkpt lat="36.78907" lon="28.13042">
        <ele>6.4</ele>
        <time>2018-05-13T07:26:56Z</time>
        <extensions>
          <gpxtpx:TrackPointExtension xmlns:gpxtpx="http://www.garmin.com/xmlschemas/TrackPointExtension/v1">
            <gpxtpx:hr>173</gpxtpx:hr>
          </gpxtpx:TrackPointExtension>
        </extensions>
      </trkpt>
      <trkpt lat="36.78909" lon="28.13046">
        <ele>6.5</ele>
        <time>2018-05-13T07:26:55Z</time>
        <extensions>
          <gpxtpx:TrackPointExtension xmlns:gpxtpx="http://www.garmin.com/xmlschemas/TrackPointExtension/v1">
            <gpxtpx:hr>173</gpxtpx:hr>
          </gpxtpx:TrackPointExtension>
        </extensions>
      </trkpt>
      <trkpt lat="36.7891" lon="28.13049">
        <ele>6.5</ele>
        <time>2018-05-13T07:26:54Z</time>
        <extensions>
          <gpxtpx:TrackPointExtension xmlns:gpxtpx="http://www.garmin.com/xmlschemas/TrackPointExtension/v1">
            <gpxtpx:hr>173</gpxtpx:hr>
          </gpxtpx:TrackPointExtension>
        </extensions>
      </trkpt>
      <trkpt lat="36.78912" lon="28.13052">
        <ele>6.6</ele>
        <time>2018-05-13T07:26:53Z</time>
        <extensions>
          <gpxtpx:TrackPointExtension xmlns:gpxtpx="http://www.garmin.com/xmlschemas/TrackPointExtension/v1">
            <gpxtpx:hr>173</gpxtpx:hr>
          </gpxtpx:TrackPointExtension>
        </extensions>
      </trkpt>
      <trkpt lat="36.78913" lon="28.13056">
        <ele>6.6</ele>
        <time>2018-05-13T07:26:52Z</time>
        <extensions>
          <gpxtpx:TrackPointExtension xmlns:gpxtpx="http://www.garmin.com/xmlschemas/TrackPointExtension/v1">
            <gpxtpx:hr>173</gpxtpx:hr>
          </gpxtpx:TrackPointExtension>
        </extensions>
      </trkpt>
      <trkpt lat="36.78914" lon="28.13059">
        <ele>6.7</ele>
        <time>2018-05-13T07:26:51Z</time>
        <extensions>
          <gpxtpx:TrackPointExtension xmlns:gpxtpx="http://www.garmin.com/xmlschemas/TrackPointExtension/v1">
            <gpxtpx:hr>173</gpxtpx:hr>
          </gpxtpx:TrackPointExtension>
        </extensions>
      </trkpt>
      <trkpt lat="36.78916" lon="28.13063">
        <ele>6.7</ele>
        <time>2018-05-13T07:26:50Z</time>
        <extensions>
          <gpxtpx:TrackPointExtension xmlns:gpxtpx="http://www.garmin.com/xmlschemas/TrackPointExtension/v1">
            <gpxtpx:hr>173</gpxtpx:hr>
          </gpxtpx:TrackPointExtension>
        </extensions>
      </trkpt>
      <trkpt lat="36.78917" lon="28.13066">
        <ele>6.8</ele>
        <time>2018-05-13T07:26:49Z</time>
        <extensions>
          <gpxtpx:TrackPointExtension xmlns:gpxtpx="http://www.garmin.com/xmlschemas/TrackPointExtension/v1">
            <gpxtpx:hr>173</gpxtpx:hr>
          </gpxtpx:TrackPointExtension>
        </extensions>
      </trkpt>
      <trkpt lat="36.78918" lon="28.13071">
        <ele>6.8</ele>
        <time>2018-05-13T07:26:48Z</time>
        <extensions>
          <gpxtpx:TrackPointExtension xmlns:gpxtpx="http://www.garmin.com/xmlschemas/TrackPointExtension/v1">
            <gpxtpx:hr>172</gpxtpx:hr>
          </gpxtpx:TrackPointExtension>
        </extensions>
      </trkpt>
      <trkpt lat="36.7892" lon="28.13075">
        <ele>6.9</ele>
        <time>2018-05-13T07:26:47Z</time>
        <extensions>
          <gpxtpx:TrackPointExtension xmlns:gpxtpx="http://www.garmin.com/xmlschemas/TrackPointExtension/v1">
            <gpxtpx:hr>172</gpxtpx:hr>
          </gpxtpx:TrackPointExtension>
        </extensions>
      </trkpt>
      <trkpt lat="36.78922" lon="28.13078">
        <ele>6.9</ele>
        <time>2018-05-13T07:26:46Z</time>
        <extensions>
          <gpxtpx:TrackPointExtension xmlns:gpxtpx="http://www.garmin.com/xmlschemas/TrackPointExtension/v1">
            <gpxtpx:hr>172</gpxtpx:hr>
          </gpxtpx:TrackPointExtension>
        </extensions>
      </trkpt>
      <trkpt lat="36.78924" lon="28.13082">
        <ele>6.9</ele>
        <time>2018-05-13T07:26:45Z</time>
        <extensions>
          <gpxtpx:TrackPointExtension xmlns:gpxtpx="http://www.garmin.com/xmlschemas/TrackPointExtension/v1">
            <gpxtpx:hr>172</gpxtpx:hr>
          </gpxtpx:TrackPointExtension>
        </extensions>
      </trkpt>
      <trkpt lat="36.78926" lon="28.13084">
        <ele>7</ele>
        <time>2018-05-13T07:26:44Z</time>
        <extensions>
          <gpxtpx:TrackPointExtension xmlns:gpxtpx="http://www.garmin.com/xmlschemas/TrackPointExtension/v1">
            <gpxtpx:hr>172</gpxtpx:hr>
          </gpxtpx:TrackPointExtension>
        </extensions>
      </trkpt>
      <trkpt lat="36.78929" lon="28.13088">
        <ele>7</ele>
        <time>2018-05-13T07:26:42Z</time>
        <extensions>
          <gpxtpx:TrackPointExtension xmlns:gpxtpx="http://www.garmin.com/xmlschemas/TrackPointExtension/v1">
            <gpxtpx:hr>172</gpxtpx:hr>
          </gpxtpx:TrackPointExtension>
        </extensions>
      </trkpt>
      <trkpt lat="36.78931" lon="28.13091">
        <ele>7</ele>
        <time>2018-05-13T07:26:41Z</time>
        <extensions>
          <gpxtpx:TrackPointExtension xmlns:gpxtpx="http://www.garmin.com/xmlschemas/TrackPointExtension/v1">
            <gpxtpx:hr>172</gpxtpx:hr>
          </gpxtpx:TrackPointExtension>
        </extensions>
      </trkpt>
      <trkpt lat="36.78933" lon="28.13094">
        <ele>7</ele>
        <time>2018-05-13T07:26:40Z</time>
        <extensions>
          <gpxtpx:TrackPointExtension xmlns:gpxtpx="http://www.garmin.com/xmlschemas/TrackPointExtension/v1">
            <gpxtpx:hr>172</gpxtpx:hr>
          </gpxtpx:TrackPointExtension>
        </extensions>
      </trkpt>
      <trkpt lat="36.78934" lon="28.13098">
        <ele>7</ele>
        <time>2018-05-13T07:26:39Z</time>
        <extensions>
          <gpxtpx:TrackPointExtension xmlns:gpxtpx="http://www.garmin.com/xmlschemas/TrackPointExtension/v1">
            <gpxtpx:hr>172</gpxtpx:hr>
          </gpxtpx:TrackPointExtension>
        </extensions>
      </trkpt>
      <trkpt lat="36.78936" lon="28.13101">
        <ele>7</ele>
        <time>2018-05-13T07:26:38Z</time>
        <extensions>
          <gpxtpx:TrackPointExtension xmlns:gpxtpx="http://www.garmin.com/xmlschemas/TrackPointExtension/v1">
            <gpxtpx:hr>173</gpxtpx:hr>
          </gpxtpx:TrackPointExtension>
        </extensions>
      </trkpt>
      <trkpt lat="36.78937" lon="28.13105">
        <ele>7</ele>
        <time>2018-05-13T07:26:37Z</time>
        <extensions>
          <gpxtpx:TrackPointExtension xmlns:gpxtpx="http://www.garmin.com/xmlschemas/TrackPointExtension/v1">
            <gpxtpx:hr>173</gpxtpx:hr>
          </gpxtpx:TrackPointExtension>
        </extensions>
      </trkpt>
      <trkpt lat="36.78939" lon="28.13108">
        <ele>7</ele>
        <time>2018-05-13T07:26:36Z</time>
        <extensions>
          <gpxtpx:TrackPointExtension xmlns:gpxtpx="http://www.garmin.com/xmlschemas/TrackPointExtension/v1">
            <gpxtpx:hr>173</gpxtpx:hr>
          </gpxtpx:TrackPointExtension>
        </extensions>
      </trkpt>
      <trkpt lat="36.78942" lon="28.13113">
        <ele>7</ele>
        <time>2018-05-13T07:26:34Z</time>
        <extensions>
          <gpxtpx:TrackPointExtension xmlns:gpxtpx="http://www.garmin.com/xmlschemas/TrackPointExtension/v1">
            <gpxtpx:hr>173</gpxtpx:hr>
          </gpxtpx:TrackPointExtension>
        </extensions>
      </trkpt>
      <trkpt lat="36.78944" lon="28.13116">
        <ele>7</ele>
        <time>2018-05-13T07:26:33Z</time>
        <extensions>
          <gpxtpx:TrackPointExtension xmlns:gpxtpx="http://www.garmin.com/xmlschemas/TrackPointExtension/v1">
            <gpxtpx:hr>173</gpxtpx:hr>
          </gpxtpx:TrackPointExtension>
        </extensions>
      </trkpt>
      <trkpt lat="36.78945" lon="28.13119">
        <ele>7</ele>
        <time>2018-05-13T07:26:32Z</time>
        <extensions>
          <gpxtpx:TrackPointExtension xmlns:gpxtpx="http://www.garmin.com/xmlschemas/TrackPointExtension/v1">
            <gpxtpx:hr>173</gpxtpx:hr>
          </gpxtpx:TrackPointExtension>
        </extensions>
      </trkpt>
      <trkpt lat="36.78947" lon="28.13123">
        <ele>7.1</ele>
        <time>2018-05-13T07:26:31Z</time>
        <extensions>
          <gpxtpx:TrackPointExtension xmlns:gpxtpx="http://www.garmin.com/xmlschemas/TrackPointExtension/v1">
            <gpxtpx:hr>173</gpxtpx:hr>
          </gpxtpx:TrackPointExtension>
        </extensions>
      </trkpt>
      <trkpt lat="36.78948" lon="28.13127">
        <ele>7.1</ele>
        <time>2018-05-13T07:26:30Z</time>
        <extensions>
          <gpxtpx:TrackPointExtension xmlns:gpxtpx="http://www.garmin.com/xmlschemas/TrackPointExtension/v1">
            <gpxtpx:hr>173</gpxtpx:hr>
          </gpxtpx:TrackPointExtension>
        </extensions>
      </trkpt>
      <trkpt lat="36.7895" lon="28.1313">
        <ele>7.1</ele>
        <time>2018-05-13T07:26:29Z</time>
        <extensions>
          <gpxtpx:TrackPointExtension xmlns:gpxtpx="http://www.garmin.com/xmlschemas/TrackPointExtension/v1">
            <gpxtpx:hr>173</gpxtpx:hr>
          </gpxtpx:TrackPointExtension>
        </extensions>
      </trkpt>
      <trkpt lat="36.78951" lon="28.13134">
        <ele>7.1</ele>
        <time>2018-05-13T07:26:28Z</time>
        <extensions>
          <gpxtpx:TrackPointExtension xmlns:gpxtpx="http://www.garmin.com/xmlschemas/TrackPointExtension/v1">
            <gpxtpx:hr>172</gpxtpx:hr>
          </gpxtpx:TrackPointExtension>
        </extensions>
      </trkpt>
      <trkpt lat="36.78952" lon="28.13138">
        <ele>7.1</ele>
        <time>2018-05-13T07:26:27Z</time>
        <extensions>
          <gpxtpx:TrackPointExtension xmlns:gpxtpx="http://www.garmin.com/xmlschemas/TrackPointExtension/v1">
            <gpxtpx:hr>173</gpxtpx:hr>
          </gpxtpx:TrackPointExtension>
        </extensions>
      </trkpt>
      <trkpt lat="36.78954" lon="28.13141">
        <ele>7.1</ele>
        <time>2018-05-13T07:26:26Z</time>
        <extensions>
          <gpxtpx:TrackPointExtension xmlns:gpxtpx="http://www.garmin.com/xmlschemas/TrackPointExtension/v1">
            <gpxtpx:hr>172</gpxtpx:hr>
          </gpxtpx:TrackPointExtension>
        </extensions>
      </trkpt>
      <trkpt lat="36.78955" lon="28.13145">
        <ele>7.2</ele>
        <time>2018-05-13T07:26:25Z</time>
        <extensions>
          <gpxtpx:TrackPointExtension xmlns:gpxtpx="http://www.garmin.com/xmlschemas/TrackPointExtension/v1">
            <gpxtpx:hr>172</gpxtpx:hr>
          </gpxtpx:TrackPointExtension>
        </extensions>
      </trkpt>
      <trkpt lat="36.78957" lon="28.13148">
        <ele>7.2</ele>
        <time>2018-05-13T07:26:24Z</time>
        <extensions>
          <gpxtpx:TrackPointExtension xmlns:gpxtpx="http://www.garmin.com/xmlschemas/TrackPointExtension/v1">
            <gpxtpx:hr>172</gpxtpx:hr>
          </gpxtpx:TrackPointExtension>
        </extensions>
      </trkpt>
      <trkpt lat="36.78958" lon="28.13151">
        <ele>7.2</ele>
        <time>2018-05-13T07:26:23Z</time>
        <extensions>
          <gpxtpx:TrackPointExtension xmlns:gpxtpx="http://www.garmin.com/xmlschemas/TrackPointExtension/v1">
            <gpxtpx:hr>172</gpxtpx:hr>
          </gpxtpx:TrackPointExtension>
        </extensions>
      </trkpt>
      <trkpt lat="36.7896" lon="28.13154">
        <ele>7.2</ele>
        <time>2018-05-13T07:26:22Z</time>
        <extensions>
          <gpxtpx:TrackPointExtension xmlns:gpxtpx="http://www.garmin.com/xmlschemas/TrackPointExtension/v1">
            <gpxtpx:hr>171</gpxtpx:hr>
          </gpxtpx:TrackPointExtension>
        </extensions>
      </trkpt>
      <trkpt lat="36.78962" lon="28.13158">
        <ele>7.2</ele>
        <time>2018-05-13T07:26:21Z</time>
        <extensions>
          <gpxtpx:TrackPointExtension xmlns:gpxtpx="http://www.garmin.com/xmlschemas/TrackPointExtension/v1">
            <gpxtpx:hr>171</gpxtpx:hr>
          </gpxtpx:TrackPointExtension>
        </extensions>
      </trkpt>
      <trkpt lat="36.78963" lon="28.13161">
        <ele>7.2</ele>
        <time>2018-05-13T07:26:20Z</time>
        <extensions>
          <gpxtpx:TrackPointExtension xmlns:gpxtpx="http://www.garmin.com/xmlschemas/TrackPointExtension/v1">
            <gpxtpx:hr>171</gpxtpx:hr>
          </gpxtpx:TrackPointExtension>
        </extensions>
      </trkpt>
      <trkpt lat="36.78965" lon="28.13165">
        <ele>7.3</ele>
        <time>2018-05-13T07:26:19Z</time>
        <extensions>
          <gpxtpx:TrackPointExtension xmlns:gpxtpx="http://www.garmin.com/xmlschemas/TrackPointExtension/v1">
            <gpxtpx:hr>171</gpxtpx:hr>
          </gpxtpx:TrackPointExtension>
        </extensions>
      </trkpt>
      <trkpt lat="36.78967" lon="28.13168">
        <ele>7.3</ele>
        <time>2018-05-13T07:26:18Z</time>
        <extensions>
          <gpxtpx:TrackPointExtension xmlns:gpxtpx="http://www.garmin.com/xmlschemas/TrackPointExtension/v1">
            <gpxtpx:hr>171</gpxtpx:hr>
          </gpxtpx:TrackPointExtension>
        </extensions>
      </trkpt>
      <trkpt lat="36.78968" lon="28.13172">
        <ele>7.3</ele>
        <time>2018-05-13T07:26:17Z</time>
        <extensions>
          <gpxtpx:TrackPointExtension xmlns:gpxtpx="http://www.garmin.com/xmlschemas/TrackPointExtension/v1">
            <gpxtpx:hr>171</gpxtpx:hr>
          </gpxtpx:TrackPointExtension>
        </extensions>
      </trkpt>
      <trkpt lat="36.7897" lon="28.13175">
        <ele>7.3</ele>
        <time>2018-05-13T07:26:16Z</time>
        <extensions>
          <gpxtpx:TrackPointExtension xmlns:gpxtpx="http://www.garmin.com/xmlschemas/TrackPointExtension/v1">
            <gpxtpx:hr>170</gpxtpx:hr>
          </gpxtpx:TrackPointExtension>
        </extensions>
      </trkpt>
      <trkpt lat="36.78971" lon="28.13178">
        <ele>7.3</ele>
        <time>2018-05-13T07:26:15Z</time>
        <extensions>
          <gpxtpx:TrackPointExtension xmlns:gpxtpx="http://www.garmin.com/xmlschemas/TrackPointExtension/v1">
            <gpxtpx:hr>170</gpxtpx:hr>
          </gpxtpx:TrackPointExtension>
        </extensions>
      </trkpt>
      <trkpt lat="36.78973" lon="28.13181">
        <ele>7.3</ele>
        <time>2018-05-13T07:26:14Z</time>
        <extensions>
          <gpxtpx:TrackPointExtension xmlns:gpxtpx="http://www.garmin.com/xmlschemas/TrackPointExtension/v1">
            <gpxtpx:hr>170</gpxtpx:hr>
          </gpxtpx:TrackPointExtension>
        </extensions>
      </trkpt>
      <trkpt lat="36.78974" lon="28.13184">
        <ele>7.4</ele>
        <time>2018-05-13T07:26:13Z</time>
        <extensions>
          <gpxtpx:TrackPointExtension xmlns:gpxtpx="http://www.garmin.com/xmlschemas/TrackPointExtension/v1">
            <gpxtpx:hr>170</gpxtpx:hr>
          </gpxtpx:TrackPointExtension>
        </extensions>
      </trkpt>
      <trkpt lat="36.78976" lon="28.13187">
        <ele>7.4</ele>
        <time>2018-05-13T07:26:12Z</time>
        <extensions>
          <gpxtpx:TrackPointExtension xmlns:gpxtpx="http://www.garmin.com/xmlschemas/TrackPointExtension/v1">
            <gpxtpx:hr>170</gpxtpx:hr>
          </gpxtpx:TrackPointExtension>
        </extensions>
      </trkpt>
      <trkpt lat="36.78978" lon="28.1319">
        <ele>7.4</ele>
        <time>2018-05-13T07:26:11Z</time>
        <extensions>
          <gpxtpx:TrackPointExtension xmlns:gpxtpx="http://www.garmin.com/xmlschemas/TrackPointExtension/v1">
            <gpxtpx:hr>170</gpxtpx:hr>
          </gpxtpx:TrackPointExtension>
        </extensions>
      </trkpt>
      <trkpt lat="36.78979" lon="28.13193">
        <ele>7.4</ele>
        <time>2018-05-13T07:26:10Z</time>
        <extensions>
          <gpxtpx:TrackPointExtension xmlns:gpxtpx="http://www.garmin.com/xmlschemas/TrackPointExtension/v1">
            <gpxtpx:hr>170</gpxtpx:hr>
          </gpxtpx:TrackPointExtension>
        </extensions>
      </trkpt>
      <trkpt lat="36.78982" lon="28.13197">
        <ele>7.4</ele>
        <time>2018-05-13T07:26:09Z</time>
        <extensions>
          <gpxtpx:TrackPointExtension xmlns:gpxtpx="http://www.garmin.com/xmlschemas/TrackPointExtension/v1">
            <gpxtpx:hr>170</gpxtpx:hr>
          </gpxtpx:TrackPointExtension>
        </extensions>
      </trkpt>
      <trkpt lat="36.78983" lon="28.132">
        <ele>7.4</ele>
        <time>2018-05-13T07:26:08Z</time>
        <extensions>
          <gpxtpx:TrackPointExtension xmlns:gpxtpx="http://www.garmin.com/xmlschemas/TrackPointExtension/v1">
            <gpxtpx:hr>170</gpxtpx:hr>
          </gpxtpx:TrackPointExtension>
        </extensions>
      </trkpt>
      <trkpt lat="36.78985" lon="28.13203">
        <ele>7.5</ele>
        <time>2018-05-13T07:26:07Z</time>
        <extensions>
          <gpxtpx:TrackPointExtension xmlns:gpxtpx="http://www.garmin.com/xmlschemas/TrackPointExtension/v1">
            <gpxtpx:hr>170</gpxtpx:hr>
          </gpxtpx:TrackPointExtension>
        </extensions>
      </trkpt>
      <trkpt lat="36.78987" lon="28.13207">
        <ele>7.5</ele>
        <time>2018-05-13T07:26:06Z</time>
        <extensions>
          <gpxtpx:TrackPointExtension xmlns:gpxtpx="http://www.garmin.com/xmlschemas/TrackPointExtension/v1">
            <gpxtpx:hr>170</gpxtpx:hr>
          </gpxtpx:TrackPointExtension>
        </extensions>
      </trkpt>
      <trkpt lat="36.78989" lon="28.1321">
        <ele>7.5</ele>
        <time>2018-05-13T07:26:05Z</time>
        <extensions>
          <gpxtpx:TrackPointExtension xmlns:gpxtpx="http://www.garmin.com/xmlschemas/TrackPointExtension/v1">
            <gpxtpx:hr>170</gpxtpx:hr>
          </gpxtpx:TrackPointExtension>
        </extensions>
      </trkpt>
      <trkpt lat="36.78991" lon="28.13213">
        <ele>7.6</ele>
        <time>2018-05-13T07:26:04Z</time>
        <extensions>
          <gpxtpx:TrackPointExtension xmlns:gpxtpx="http://www.garmin.com/xmlschemas/TrackPointExtension/v1">
            <gpxtpx:hr>169</gpxtpx:hr>
          </gpxtpx:TrackPointExtension>
        </extensions>
      </trkpt>
      <trkpt lat="36.78993" lon="28.13216">
        <ele>7.6</ele>
        <time>2018-05-13T07:26:03Z</time>
        <extensions>
          <gpxtpx:TrackPointExtension xmlns:gpxtpx="http://www.garmin.com/xmlschemas/TrackPointExtension/v1">
            <gpxtpx:hr>169</gpxtpx:hr>
          </gpxtpx:TrackPointExtension>
        </extensions>
      </trkpt>
      <trkpt lat="36.78994" lon="28.13219">
        <ele>7.6</ele>
        <time>2018-05-13T07:26:02Z</time>
        <extensions>
          <gpxtpx:TrackPointExtension xmlns:gpxtpx="http://www.garmin.com/xmlschemas/TrackPointExtension/v1">
            <gpxtpx:hr>161</gpxtpx:hr>
          </gpxtpx:TrackPointExtension>
        </extensions>
      </trkpt>
      <trkpt lat="36.78996" lon="28.13222">
        <ele>7.6</ele>
        <time>2018-05-13T07:26:01Z</time>
        <extensions>
          <gpxtpx:TrackPointExtension xmlns:gpxtpx="http://www.garmin.com/xmlschemas/TrackPointExtension/v1">
            <gpxtpx:hr>161</gpxtpx:hr>
          </gpxtpx:TrackPointExtension>
        </extensions>
      </trkpt>
      <trkpt lat="36.78997" lon="28.13225">
        <ele>7.7</ele>
        <time>2018-05-13T07:26:00Z</time>
        <extensions>
          <gpxtpx:TrackPointExtension xmlns:gpxtpx="http://www.garmin.com/xmlschemas/TrackPointExtension/v1">
            <gpxtpx:hr>185</gpxtpx:hr>
          </gpxtpx:TrackPointExtension>
        </extensions>
      </trkpt>
      <trkpt lat="36.78999" lon="28.13229">
        <ele>7.7</ele>
        <time>2018-05-13T07:25:59Z</time>
        <extensions>
          <gpxtpx:TrackPointExtension xmlns:gpxtpx="http://www.garmin.com/xmlschemas/TrackPointExtension/v1">
            <gpxtpx:hr>185</gpxtpx:hr>
          </gpxtpx:TrackPointExtension>
        </extensions>
      </trkpt>
      <trkpt lat="36.79" lon="28.13232">
        <ele>7.7</ele>
        <time>2018-05-13T07:25:58Z</time>
        <extensions>
          <gpxtpx:TrackPointExtension xmlns:gpxtpx="http://www.garmin.com/xmlschemas/TrackPointExtension/v1">
            <gpxtpx:hr>144</gpxtpx:hr>
          </gpxtpx:TrackPointExtension>
        </extensions>
      </trkpt>
      <trkpt lat="36.79001" lon="28.13236">
        <ele>7.7</ele>
        <time>2018-05-13T07:25:57Z</time>
        <extensions>
          <gpxtpx:TrackPointExtension xmlns:gpxtpx="http://www.garmin.com/xmlschemas/TrackPointExtension/v1">
            <gpxtpx:hr>144</gpxtpx:hr>
          </gpxtpx:TrackPointExtension>
        </extensions>
      </trkpt>
      <trkpt lat="36.79003" lon="28.1324">
        <ele>7.8</ele>
        <time>2018-05-13T07:25:56Z</time>
        <extensions>
          <gpxtpx:TrackPointExtension xmlns:gpxtpx="http://www.garmin.com/xmlschemas/TrackPointExtension/v1">
            <gpxtpx:hr>144</gpxtpx:hr>
          </gpxtpx:TrackPointExtension>
        </extensions>
      </trkpt>
      <trkpt lat="36.79004" lon="28.13243">
        <ele>7.8</ele>
        <time>2018-05-13T07:25:55Z</time>
        <extensions>
          <gpxtpx:TrackPointExtension xmlns:gpxtpx="http://www.garmin.com/xmlschemas/TrackPointExtension/v1">
            <gpxtpx:hr>144</gpxtpx:hr>
          </gpxtpx:TrackPointExtension>
        </extensions>
      </trkpt>
      <trkpt lat="36.79006" lon="28.13247">
        <ele>7.9</ele>
        <time>2018-05-13T07:25:54Z</time>
        <extensions>
          <gpxtpx:TrackPointExtension xmlns:gpxtpx="http://www.garmin.com/xmlschemas/TrackPointExtension/v1">
            <gpxtpx:hr>144</gpxtpx:hr>
          </gpxtpx:TrackPointExtension>
        </extensions>
      </trkpt>
      <trkpt lat="36.79007" lon="28.13251">
        <ele>7.9</ele>
        <time>2018-05-13T07:25:53Z</time>
        <extensions>
          <gpxtpx:TrackPointExtension xmlns:gpxtpx="http://www.garmin.com/xmlschemas/TrackPointExtension/v1">
            <gpxtpx:hr>144</gpxtpx:hr>
          </gpxtpx:TrackPointExtension>
        </extensions>
      </trkpt>
      <trkpt lat="36.79009" lon="28.13254">
        <ele>8</ele>
        <time>2018-05-13T07:25:52Z</time>
        <extensions>
          <gpxtpx:TrackPointExtension xmlns:gpxtpx="http://www.garmin.com/xmlschemas/TrackPointExtension/v1">
            <gpxtpx:hr>144</gpxtpx:hr>
          </gpxtpx:TrackPointExtension>
        </extensions>
      </trkpt>
      <trkpt lat="36.7901" lon="28.13258">
        <ele>8.1</ele>
        <time>2018-05-13T07:25:51Z</time>
        <extensions>
          <gpxtpx:TrackPointExtension xmlns:gpxtpx="http://www.garmin.com/xmlschemas/TrackPointExtension/v1">
            <gpxtpx:hr>144</gpxtpx:hr>
          </gpxtpx:TrackPointExtension>
        </extensions>
      </trkpt>
      <trkpt lat="36.79011" lon="28.13262">
        <ele>8.1</ele>
        <time>2018-05-13T07:25:50Z</time>
        <extensions>
          <gpxtpx:TrackPointExtension xmlns:gpxtpx="http://www.garmin.com/xmlschemas/TrackPointExtension/v1">
            <gpxtpx:hr>144</gpxtpx:hr>
          </gpxtpx:TrackPointExtension>
        </extensions>
      </trkpt>
      <trkpt lat="36.79013" lon="28.13266">
        <ele>8.2</ele>
        <time>2018-05-13T07:25:49Z</time>
        <extensions>
          <gpxtpx:TrackPointExtension xmlns:gpxtpx="http://www.garmin.com/xmlschemas/TrackPointExtension/v1">
            <gpxtpx:hr>144</gpxtpx:hr>
          </gpxtpx:TrackPointExtension>
        </extensions>
      </trkpt>
      <trkpt lat="36.79014" lon="28.13269">
        <ele>8.3</ele>
        <time>2018-05-13T07:25:48Z</time>
        <extensions>
          <gpxtpx:TrackPointExtension xmlns:gpxtpx="http://www.garmin.com/xmlschemas/TrackPointExtension/v1">
            <gpxtpx:hr>144</gpxtpx:hr>
          </gpxtpx:TrackPointExtension>
        </extensions>
      </trkpt>
      <trkpt lat="36.79015" lon="28.13273">
        <ele>8.4</ele>
        <time>2018-05-13T07:25:47Z</time>
        <extensions>
          <gpxtpx:TrackPointExtension xmlns:gpxtpx="http://www.garmin.com/xmlschemas/TrackPointExtension/v1">
            <gpxtpx:hr>144</gpxtpx:hr>
          </gpxtpx:TrackPointExtension>
        </extensions>
      </trkpt>
      <trkpt lat="36.79017" lon="28.13277">
        <ele>8.4</ele>
        <time>2018-05-13T07:25:46Z</time>
        <extensions>
          <gpxtpx:TrackPointExtension xmlns:gpxtpx="http://www.garmin.com/xmlschemas/TrackPointExtension/v1">
            <gpxtpx:hr>144</gpxtpx:hr>
          </gpxtpx:TrackPointExtension>
        </extensions>
      </trkpt>
      <trkpt lat="36.79018" lon="28.13281">
        <ele>8.5</ele>
        <time>2018-05-13T07:25:45Z</time>
        <extensions>
          <gpxtpx:TrackPointExtension xmlns:gpxtpx="http://www.garmin.com/xmlschemas/TrackPointExtension/v1">
            <gpxtpx:hr>144</gpxtpx:hr>
          </gpxtpx:TrackPointExtension>
        </extensions>
      </trkpt>
      <trkpt lat="36.7902" lon="28.13285">
        <ele>8.6</ele>
        <time>2018-05-13T07:25:44Z</time>
        <extensions>
          <gpxtpx:TrackPointExtension xmlns:gpxtpx="http://www.garmin.com/xmlschemas/TrackPointExtension/v1">
            <gpxtpx:hr>144</gpxtpx:hr>
          </gpxtpx:TrackPointExtension>
        </extensions>
      </trkpt>
      <trkpt lat="36.79021" lon="28.13288">
        <ele>8.6</ele>
        <time>2018-05-13T07:25:43Z</time>
        <extensions>
          <gpxtpx:TrackPointExtension xmlns:gpxtpx="http://www.garmin.com/xmlschemas/TrackPointExtension/v1">
            <gpxtpx:hr>144</gpxtpx:hr>
          </gpxtpx:TrackPointExtension>
        </extensions>
      </trkpt>
      <trkpt lat="36.79023" lon="28.13292">
        <ele>8.7</ele>
        <time>2018-05-13T07:25:42Z</time>
        <extensions>
          <gpxtpx:TrackPointExtension xmlns:gpxtpx="http://www.garmin.com/xmlschemas/TrackPointExtension/v1">
            <gpxtpx:hr>144</gpxtpx:hr>
          </gpxtpx:TrackPointExtension>
        </extensions>
      </trkpt>
      <trkpt lat="36.79024" lon="28.13296">
        <ele>8.7</ele>
        <time>2018-05-13T07:25:41Z</time>
        <extensions>
          <gpxtpx:TrackPointExtension xmlns:gpxtpx="http://www.garmin.com/xmlschemas/TrackPointExtension/v1">
            <gpxtpx:hr>144</gpxtpx:hr>
          </gpxtpx:TrackPointExtension>
        </extensions>
      </trkpt>
      <trkpt lat="36.79026" lon="28.133">
        <ele>8.8</ele>
        <time>2018-05-13T07:25:40Z</time>
        <extensions>
          <gpxtpx:TrackPointExtension xmlns:gpxtpx="http://www.garmin.com/xmlschemas/TrackPointExtension/v1">
            <gpxtpx:hr>144</gpxtpx:hr>
          </gpxtpx:TrackPointExtension>
        </extensions>
      </trkpt>
      <trkpt lat="36.79028" lon="28.13304">
        <ele>8.8</ele>
        <time>2018-05-13T07:25:39Z</time>
        <extensions>
          <gpxtpx:TrackPointExtension xmlns:gpxtpx="http://www.garmin.com/xmlschemas/TrackPointExtension/v1">
            <gpxtpx:hr>144</gpxtpx:hr>
          </gpxtpx:TrackPointExtension>
        </extensions>
      </trkpt>
      <trkpt lat="36.79029" lon="28.13307">
        <ele>8.9</ele>
        <time>2018-05-13T07:25:38Z</time>
        <extensions>
          <gpxtpx:TrackPointExtension xmlns:gpxtpx="http://www.garmin.com/xmlschemas/TrackPointExtension/v1">
            <gpxtpx:hr>144</gpxtpx:hr>
          </gpxtpx:TrackPointExtension>
        </extensions>
      </trkpt>
      <trkpt lat="36.79033" lon="28.13312">
        <ele>8.9</ele>
        <time>2018-05-13T07:25:36Z</time>
        <extensions>
          <gpxtpx:TrackPointExtension xmlns:gpxtpx="http://www.garmin.com/xmlschemas/TrackPointExtension/v1">
            <gpxtpx:hr>144</gpxtpx:hr>
          </gpxtpx:TrackPointExtension>
        </extensions>
      </trkpt>
      <trkpt lat="36.79035" lon="28.13315">
        <ele>8.9</ele>
        <time>2018-05-13T07:25:35Z</time>
        <extensions>
          <gpxtpx:TrackPointExtension xmlns:gpxtpx="http://www.garmin.com/xmlschemas/TrackPointExtension/v1">
            <gpxtpx:hr>144</gpxtpx:hr>
          </gpxtpx:TrackPointExtension>
        </extensions>
      </trkpt>
      <trkpt lat="36.79036" lon="28.13318">
        <ele>9</ele>
        <time>2018-05-13T07:25:34Z</time>
        <extensions>
          <gpxtpx:TrackPointExtension xmlns:gpxtpx="http://www.garmin.com/xmlschemas/TrackPointExtension/v1">
            <gpxtpx:hr>158</gpxtpx:hr>
          </gpxtpx:TrackPointExtension>
        </extensions>
      </trkpt>
      <trkpt lat="36.79039" lon="28.13321">
        <ele>9</ele>
        <time>2018-05-13T07:25:33Z</time>
        <extensions>
          <gpxtpx:TrackPointExtension xmlns:gpxtpx="http://www.garmin.com/xmlschemas/TrackPointExtension/v1">
            <gpxtpx:hr>158</gpxtpx:hr>
          </gpxtpx:TrackPointExtension>
        </extensions>
      </trkpt>
      <trkpt lat="36.79041" lon="28.13324">
        <ele>9</ele>
        <time>2018-05-13T07:25:32Z</time>
        <extensions>
          <gpxtpx:TrackPointExtension xmlns:gpxtpx="http://www.garmin.com/xmlschemas/TrackPointExtension/v1">
            <gpxtpx:hr>158</gpxtpx:hr>
          </gpxtpx:TrackPointExtension>
        </extensions>
      </trkpt>
      <trkpt lat="36.79043" lon="28.13327">
        <ele>9.1</ele>
        <time>2018-05-13T07:25:31Z</time>
        <extensions>
          <gpxtpx:TrackPointExtension xmlns:gpxtpx="http://www.garmin.com/xmlschemas/TrackPointExtension/v1">
            <gpxtpx:hr>158</gpxtpx:hr>
          </gpxtpx:TrackPointExtension>
        </extensions>
      </trkpt>
      <trkpt lat="36.79046" lon="28.13329">
        <ele>9.1</ele>
        <time>2018-05-13T07:25:30Z</time>
        <extensions>
          <gpxtpx:TrackPointExtension xmlns:gpxtpx="http://www.garmin.com/xmlschemas/TrackPointExtension/v1">
            <gpxtpx:hr>162</gpxtpx:hr>
          </gpxtpx:TrackPointExtension>
        </extensions>
      </trkpt>
      <trkpt lat="36.79048" lon="28.13331">
        <ele>9.1</ele>
        <time>2018-05-13T07:25:29Z</time>
        <extensions>
          <gpxtpx:TrackPointExtension xmlns:gpxtpx="http://www.garmin.com/xmlschemas/TrackPointExtension/v1">
            <gpxtpx:hr>162</gpxtpx:hr>
          </gpxtpx:TrackPointExtension>
        </extensions>
      </trkpt>
      <trkpt lat="36.7905" lon="28.13334">
        <ele>9.2</ele>
        <time>2018-05-13T07:25:28Z</time>
        <extensions>
          <gpxtpx:TrackPointExtension xmlns:gpxtpx="http://www.garmin.com/xmlschemas/TrackPointExtension/v1">
            <gpxtpx:hr>162</gpxtpx:hr>
          </gpxtpx:TrackPointExtension>
        </extensions>
      </trkpt>
      <trkpt lat="36.79052" lon="28.13337">
        <ele>9.2</ele>
        <time>2018-05-13T07:25:27Z</time>
        <extensions>
          <gpxtpx:TrackPointExtension xmlns:gpxtpx="http://www.garmin.com/xmlschemas/TrackPointExtension/v1">
            <gpxtpx:hr>162</gpxtpx:hr>
          </gpxtpx:TrackPointExtension>
        </extensions>
      </trkpt>
      <trkpt lat="36.79054" lon="28.1334">
        <ele>9.2</ele>
        <time>2018-05-13T07:25:26Z</time>
        <extensions>
          <gpxtpx:TrackPointExtension xmlns:gpxtpx="http://www.garmin.com/xmlschemas/TrackPointExtension/v1">
            <gpxtpx:hr>185</gpxtpx:hr>
          </gpxtpx:TrackPointExtension>
        </extensions>
      </trkpt>
      <trkpt lat="36.79056" lon="28.13343">
        <ele>9.3</ele>
        <time>2018-05-13T07:25:25Z</time>
        <extensions>
          <gpxtpx:TrackPointExtension xmlns:gpxtpx="http://www.garmin.com/xmlschemas/TrackPointExtension/v1">
            <gpxtpx:hr>185</gpxtpx:hr>
          </gpxtpx:TrackPointExtension>
        </extensions>
      </trkpt>
      <trkpt lat="36.79057" lon="28.13347">
        <ele>9.3</ele>
        <time>2018-05-13T07:25:24Z</time>
        <extensions>
          <gpxtpx:TrackPointExtension xmlns:gpxtpx="http://www.garmin.com/xmlschemas/TrackPointExtension/v1">
            <gpxtpx:hr>167</gpxtpx:hr>
          </gpxtpx:TrackPointExtension>
        </extensions>
      </trkpt>
      <trkpt lat="36.79059" lon="28.1335">
        <ele>9.4</ele>
        <time>2018-05-13T07:25:23Z</time>
        <extensions>
          <gpxtpx:TrackPointExtension xmlns:gpxtpx="http://www.garmin.com/xmlschemas/TrackPointExtension/v1">
            <gpxtpx:hr>167</gpxtpx:hr>
          </gpxtpx:TrackPointExtension>
        </extensions>
      </trkpt>
      <trkpt lat="36.7906" lon="28.13354">
        <ele>9.4</ele>
        <time>2018-05-13T07:25:22Z</time>
        <extensions>
          <gpxtpx:TrackPointExtension xmlns:gpxtpx="http://www.garmin.com/xmlschemas/TrackPointExtension/v1">
            <gpxtpx:hr>167</gpxtpx:hr>
          </gpxtpx:TrackPointExtension>
        </extensions>
      </trkpt>
      <trkpt lat="36.79062" lon="28.13358">
        <ele>9.5</ele>
        <time>2018-05-13T07:25:21Z</time>
        <extensions>
          <gpxtpx:TrackPointExtension xmlns:gpxtpx="http://www.garmin.com/xmlschemas/TrackPointExtension/v1">
            <gpxtpx:hr>167</gpxtpx:hr>
          </gpxtpx:TrackPointExtension>
        </extensions>
      </trkpt>
      <trkpt lat="36.79063" lon="28.13361">
        <ele>9.5</ele>
        <time>2018-05-13T07:25:20Z</time>
        <extensions>
          <gpxtpx:TrackPointExtension xmlns:gpxtpx="http://www.garmin.com/xmlschemas/TrackPointExtension/v1">
            <gpxtpx:hr>167</gpxtpx:hr>
          </gpxtpx:TrackPointExtension>
        </extensions>
      </trkpt>
      <trkpt lat="36.79065" lon="28.13364">
        <ele>9.6</ele>
        <time>2018-05-13T07:25:19Z</time>
        <extensions>
          <gpxtpx:TrackPointExtension xmlns:gpxtpx="http://www.garmin.com/xmlschemas/TrackPointExtension/v1">
            <gpxtpx:hr>167</gpxtpx:hr>
          </gpxtpx:TrackPointExtension>
        </extensions>
      </trkpt>
      <trkpt lat="36.79067" lon="28.13367">
        <ele>9.7</ele>
        <time>2018-05-13T07:25:18Z</time>
        <extensions>
          <gpxtpx:TrackPointExtension xmlns:gpxtpx="http://www.garmin.com/xmlschemas/TrackPointExtension/v1">
            <gpxtpx:hr>167</gpxtpx:hr>
          </gpxtpx:TrackPointExtension>
        </extensions>
      </trkpt>
      <trkpt lat="36.79068" lon="28.13371">
        <ele>9.7</ele>
        <time>2018-05-13T07:25:17Z</time>
        <extensions>
          <gpxtpx:TrackPointExtension xmlns:gpxtpx="http://www.garmin.com/xmlschemas/TrackPointExtension/v1">
            <gpxtpx:hr>166</gpxtpx:hr>
          </gpxtpx:TrackPointExtension>
        </extensions>
      </trkpt>
      <trkpt lat="36.7907" lon="28.13375">
        <ele>9.8</ele>
        <time>2018-05-13T07:25:16Z</time>
        <extensions>
          <gpxtpx:TrackPointExtension xmlns:gpxtpx="http://www.garmin.com/xmlschemas/TrackPointExtension/v1">
            <gpxtpx:hr>166</gpxtpx:hr>
          </gpxtpx:TrackPointExtension>
        </extensions>
      </trkpt>
      <trkpt lat="36.79071" lon="28.13379">
        <ele>9.9</ele>
        <time>2018-05-13T07:25:15Z</time>
        <extensions>
          <gpxtpx:TrackPointExtension xmlns:gpxtpx="http://www.garmin.com/xmlschemas/TrackPointExtension/v1">
            <gpxtpx:hr>168</gpxtpx:hr>
          </gpxtpx:TrackPointExtension>
        </extensions>
      </trkpt>
      <trkpt lat="36.79073" lon="28.13383">
        <ele>9.9</ele>
        <time>2018-05-13T07:25:14Z</time>
        <extensions>
          <gpxtpx:TrackPointExtension xmlns:gpxtpx="http://www.garmin.com/xmlschemas/TrackPointExtension/v1">
            <gpxtpx:hr>168</gpxtpx:hr>
          </gpxtpx:TrackPointExtension>
        </extensions>
      </trkpt>
      <trkpt lat="36.79074" lon="28.13387">
        <ele>10</ele>
        <time>2018-05-13T07:25:13Z</time>
        <extensions>
          <gpxtpx:TrackPointExtension xmlns:gpxtpx="http://www.garmin.com/xmlschemas/TrackPointExtension/v1">
            <gpxtpx:hr>168</gpxtpx:hr>
          </gpxtpx:TrackPointExtension>
        </extensions>
      </trkpt>
      <trkpt lat="36.79075" lon="28.13391">
        <ele>10.1</ele>
        <time>2018-05-13T07:25:12Z</time>
        <extensions>
          <gpxtpx:TrackPointExtension xmlns:gpxtpx="http://www.garmin.com/xmlschemas/TrackPointExtension/v1">
            <gpxtpx:hr>168</gpxtpx:hr>
          </gpxtpx:TrackPointExtension>
        </extensions>
      </trkpt>
      <trkpt lat="36.79076" lon="28.13395">
        <ele>10.2</ele>
        <time>2018-05-13T07:25:11Z</time>
        <extensions>
          <gpxtpx:TrackPointExtension xmlns:gpxtpx="http://www.garmin.com/xmlschemas/TrackPointExtension/v1">
            <gpxtpx:hr>168</gpxtpx:hr>
          </gpxtpx:TrackPointExtension>
        </extensions>
      </trkpt>
      <trkpt lat="36.79078" lon="28.13399">
        <ele>10.3</ele>
        <time>2018-05-13T07:25:10Z</time>
        <extensions>
          <gpxtpx:TrackPointExtension xmlns:gpxtpx="http://www.garmin.com/xmlschemas/TrackPointExtension/v1">
            <gpxtpx:hr>168</gpxtpx:hr>
          </gpxtpx:TrackPointExtension>
        </extensions>
      </trkpt>
      <trkpt lat="36.79079" lon="28.13403">
        <ele>10.4</ele>
        <time>2018-05-13T07:25:09Z</time>
        <extensions>
          <gpxtpx:TrackPointExtension xmlns:gpxtpx="http://www.garmin.com/xmlschemas/TrackPointExtension/v1">
            <gpxtpx:hr>168</gpxtpx:hr>
          </gpxtpx:TrackPointExtension>
        </extensions>
      </trkpt>
      <trkpt lat="36.7908" lon="28.13407">
        <ele>10.5</ele>
        <time>2018-05-13T07:25:08Z</time>
        <extensions>
          <gpxtpx:TrackPointExtension xmlns:gpxtpx="http://www.garmin.com/xmlschemas/TrackPointExtension/v1">
            <gpxtpx:hr>168</gpxtpx:hr>
          </gpxtpx:TrackPointExtension>
        </extensions>
      </trkpt>
      <trkpt lat="36.79081" lon="28.13411">
        <ele>10.6</ele>
        <time>2018-05-13T07:25:07Z</time>
        <extensions>
          <gpxtpx:TrackPointExtension xmlns:gpxtpx="http://www.garmin.com/xmlschemas/TrackPointExtension/v1">
            <gpxtpx:hr>168</gpxtpx:hr>
          </gpxtpx:TrackPointExtension>
        </extensions>
      </trkpt>
      <trkpt lat="36.79082" lon="28.13414">
        <ele>10.7</ele>
        <time>2018-05-13T07:25:06Z</time>
        <extensions>
          <gpxtpx:TrackPointExtension xmlns:gpxtpx="http://www.garmin.com/xmlschemas/TrackPointExtension/v1">
            <gpxtpx:hr>168</gpxtpx:hr>
          </gpxtpx:TrackPointExtension>
        </extensions>
      </trkpt>
      <trkpt lat="36.79083" lon="28.13418">
        <ele>10.8</ele>
        <time>2018-05-13T07:25:05Z</time>
        <extensions>
          <gpxtpx:TrackPointExtension xmlns:gpxtpx="http://www.garmin.com/xmlschemas/TrackPointExtension/v1">
            <gpxtpx:hr>168</gpxtpx:hr>
          </gpxtpx:TrackPointExtension>
        </extensions>
      </trkpt>
      <trkpt lat="36.79084" lon="28.13423">
        <ele>11</ele>
        <time>2018-05-13T07:25:04Z</time>
        <extensions>
          <gpxtpx:TrackPointExtension xmlns:gpxtpx="http://www.garmin.com/xmlschemas/TrackPointExtension/v1">
            <gpxtpx:hr>168</gpxtpx:hr>
          </gpxtpx:TrackPointExtension>
        </extensions>
      </trkpt>
      <trkpt lat="36.79085" lon="28.13427">
        <ele>11.2</ele>
        <time>2018-05-13T07:25:03Z</time>
        <extensions>
          <gpxtpx:TrackPointExtension xmlns:gpxtpx="http://www.garmin.com/xmlschemas/TrackPointExtension/v1">
            <gpxtpx:hr>168</gpxtpx:hr>
          </gpxtpx:TrackPointExtension>
        </extensions>
      </trkpt>
      <trkpt lat="36.79086" lon="28.13431">
        <ele>11.4</ele>
        <time>2018-05-13T07:25:02Z</time>
        <extensions>
          <gpxtpx:TrackPointExtension xmlns:gpxtpx="http://www.garmin.com/xmlschemas/TrackPointExtension/v1">
            <gpxtpx:hr>165</gpxtpx:hr>
          </gpxtpx:TrackPointExtension>
        </extensions>
      </trkpt>
      <trkpt lat="36.79087" lon="28.13435">
        <ele>11.5</ele>
        <time>2018-05-13T07:25:01Z</time>
        <extensions>
          <gpxtpx:TrackPointExtension xmlns:gpxtpx="http://www.garmin.com/xmlschemas/TrackPointExtension/v1">
            <gpxtpx:hr>165</gpxtpx:hr>
          </gpxtpx:TrackPointExtension>
        </extensions>
      </trkpt>
      <trkpt lat="36.79089" lon="28.13441">
        <ele>11.8</ele>
        <time>2018-05-13T07:24:59Z</time>
        <extensions>
          <gpxtpx:TrackPointExtension xmlns:gpxtpx="http://www.garmin.com/xmlschemas/TrackPointExtension/v1">
            <gpxtpx:hr>165</gpxtpx:hr>
          </gpxtpx:TrackPointExtension>
        </extensions>
      </trkpt>
      <trkpt lat="36.7909" lon="28.13444">
        <ele>11.9</ele>
        <time>2018-05-13T07:24:58Z</time>
        <extensions>
          <gpxtpx:TrackPointExtension xmlns:gpxtpx="http://www.garmin.com/xmlschemas/TrackPointExtension/v1">
            <gpxtpx:hr>164</gpxtpx:hr>
          </gpxtpx:TrackPointExtension>
        </extensions>
      </trkpt>
      <trkpt lat="36.79092" lon="28.13448">
        <ele>12.1</ele>
        <time>2018-05-13T07:24:57Z</time>
        <extensions>
          <gpxtpx:TrackPointExtension xmlns:gpxtpx="http://www.garmin.com/xmlschemas/TrackPointExtension/v1">
            <gpxtpx:hr>164</gpxtpx:hr>
          </gpxtpx:TrackPointExtension>
        </extensions>
      </trkpt>
      <trkpt lat="36.79093" lon="28.13452">
        <ele>12.3</ele>
        <time>2018-05-13T07:24:56Z</time>
        <extensions>
          <gpxtpx:TrackPointExtension xmlns:gpxtpx="http://www.garmin.com/xmlschemas/TrackPointExtension/v1">
            <gpxtpx:hr>164</gpxtpx:hr>
          </gpxtpx:TrackPointExtension>
        </extensions>
      </trkpt>
      <trkpt lat="36.79094" lon="28.13456">
        <ele>12.4</ele>
        <time>2018-05-13T07:24:55Z</time>
        <extensions>
          <gpxtpx:TrackPointExtension xmlns:gpxtpx="http://www.garmin.com/xmlschemas/TrackPointExtension/v1">
            <gpxtpx:hr>163</gpxtpx:hr>
          </gpxtpx:TrackPointExtension>
        </extensions>
      </trkpt>
      <trkpt lat="36.79095" lon="28.1346">
        <ele>12.6</ele>
        <time>2018-05-13T07:24:54Z</time>
        <extensions>
          <gpxtpx:TrackPointExtension xmlns:gpxtpx="http://www.garmin.com/xmlschemas/TrackPointExtension/v1">
            <gpxtpx:hr>162</gpxtpx:hr>
          </gpxtpx:TrackPointExtension>
        </extensions>
      </trkpt>
      <trkpt lat="36.79096" lon="28.13463">
        <ele>12.7</ele>
        <time>2018-05-13T07:24:53Z</time>
        <extensions>
          <gpxtpx:TrackPointExtension xmlns:gpxtpx="http://www.garmin.com/xmlschemas/TrackPointExtension/v1">
            <gpxtpx:hr>161</gpxtpx:hr>
          </gpxtpx:TrackPointExtension>
        </extensions>
      </trkpt>
      <trkpt lat="36.79098" lon="28.13467">
        <ele>12.8</ele>
        <time>2018-05-13T07:24:52Z</time>
        <extensions>
          <gpxtpx:TrackPointExtension xmlns:gpxtpx="http://www.garmin.com/xmlschemas/TrackPointExtension/v1">
            <gpxtpx:hr>161</gpxtpx:hr>
          </gpxtpx:TrackPointExtension>
        </extensions>
      </trkpt>
      <trkpt lat="36.79099" lon="28.13471">
        <ele>12.9</ele>
        <time>2018-05-13T07:24:51Z</time>
        <extensions>
          <gpxtpx:TrackPointExtension xmlns:gpxtpx="http://www.garmin.com/xmlschemas/TrackPointExtension/v1">
            <gpxtpx:hr>160</gpxtpx:hr>
          </gpxtpx:TrackPointExtension>
        </extensions>
      </trkpt>
      <trkpt lat="36.791" lon="28.13475">
        <ele>13</ele>
        <time>2018-05-13T07:24:50Z</time>
        <extensions>
          <gpxtpx:TrackPointExtension xmlns:gpxtpx="http://www.garmin.com/xmlschemas/TrackPointExtension/v1">
            <gpxtpx:hr>160</gpxtpx:hr>
          </gpxtpx:TrackPointExtension>
        </extensions>
      </trkpt>
      <trkpt lat="36.79102" lon="28.13478">
        <ele>13.1</ele>
        <time>2018-05-13T07:24:49Z</time>
        <extensions>
          <gpxtpx:TrackPointExtension xmlns:gpxtpx="http://www.garmin.com/xmlschemas/TrackPointExtension/v1">
            <gpxtpx:hr>158</gpxtpx:hr>
          </gpxtpx:TrackPointExtension>
        </extensions>
      </trkpt>
      <trkpt lat="36.79104" lon="28.13481">
        <ele>13.2</ele>
        <time>2018-05-13T07:24:48Z</time>
        <extensions>
          <gpxtpx:TrackPointExtension xmlns:gpxtpx="http://www.garmin.com/xmlschemas/TrackPointExtension/v1">
            <gpxtpx:hr>157</gpxtpx:hr>
          </gpxtpx:TrackPointExtension>
        </extensions>
      </trkpt>
      <trkpt lat="36.79106" lon="28.13483">
        <ele>13.2</ele>
        <time>2018-05-13T07:24:47Z</time>
        <extensions>
          <gpxtpx:TrackPointExtension xmlns:gpxtpx="http://www.garmin.com/xmlschemas/TrackPointExtension/v1">
            <gpxtpx:hr>157</gpxtpx:hr>
          </gpxtpx:TrackPointExtension>
        </extensions>
      </trkpt>
      <trkpt lat="36.79108" lon="28.13486">
        <ele>13.3</ele>
        <time>2018-05-13T07:24:46Z</time>
        <extensions>
          <gpxtpx:TrackPointExtension xmlns:gpxtpx="http://www.garmin.com/xmlschemas/TrackPointExtension/v1">
            <gpxtpx:hr>156</gpxtpx:hr>
          </gpxtpx:TrackPointExtension>
        </extensions>
      </trkpt>
      <trkpt lat="36.79109" lon="28.13489">
        <ele>13.4</ele>
        <time>2018-05-13T07:24:45Z</time>
        <extensions>
          <gpxtpx:TrackPointExtension xmlns:gpxtpx="http://www.garmin.com/xmlschemas/TrackPointExtension/v1">
            <gpxtpx:hr>154</gpxtpx:hr>
          </gpxtpx:TrackPointExtension>
        </extensions>
      </trkpt>
      <trkpt lat="36.79111" lon="28.13493">
        <ele>13.5</ele>
        <time>2018-05-13T07:24:44Z</time>
        <extensions>
          <gpxtpx:TrackPointExtension xmlns:gpxtpx="http://www.garmin.com/xmlschemas/TrackPointExtension/v1">
            <gpxtpx:hr>154</gpxtpx:hr>
          </gpxtpx:TrackPointExtension>
        </extensions>
      </trkpt>
      <trkpt lat="36.79112" lon="28.13497">
        <ele>13.5</ele>
        <time>2018-05-13T07:24:43Z</time>
        <extensions>
          <gpxtpx:TrackPointExtension xmlns:gpxtpx="http://www.garmin.com/xmlschemas/TrackPointExtension/v1">
            <gpxtpx:hr>152</gpxtpx:hr>
          </gpxtpx:TrackPointExtension>
        </extensions>
      </trkpt>
      <trkpt lat="36.79113" lon="28.135">
        <ele>13.6</ele>
        <time>2018-05-13T07:24:42Z</time>
        <extensions>
          <gpxtpx:TrackPointExtension xmlns:gpxtpx="http://www.garmin.com/xmlschemas/TrackPointExtension/v1">
            <gpxtpx:hr>150</gpxtpx:hr>
          </gpxtpx:TrackPointExtension>
        </extensions>
      </trkpt>
      <trkpt lat="36.79114" lon="28.13504">
        <ele>13.6</ele>
        <time>2018-05-13T07:24:41Z</time>
        <extensions>
          <gpxtpx:TrackPointExtension xmlns:gpxtpx="http://www.garmin.com/xmlschemas/TrackPointExtension/v1">
            <gpxtpx:hr>149</gpxtpx:hr>
          </gpxtpx:TrackPointExtension>
        </extensions>
      </trkpt>
      <trkpt lat="36.79116" lon="28.13507">
        <ele>13.7</ele>
        <time>2018-05-13T07:24:40Z</time>
        <extensions>
          <gpxtpx:TrackPointExtension xmlns:gpxtpx="http://www.garmin.com/xmlschemas/TrackPointExtension/v1">
            <gpxtpx:hr>153</gpxtpx:hr>
          </gpxtpx:TrackPointExtension>
        </extensions>
      </trkpt>
      <trkpt lat="36.79117" lon="28.1351">
        <ele>13.8</ele>
        <time>2018-05-13T07:24:39Z</time>
        <extensions>
          <gpxtpx:TrackPointExtension xmlns:gpxtpx="http://www.garmin.com/xmlschemas/TrackPointExtension/v1">
            <gpxtpx:hr>166</gpxtpx:hr>
          </gpxtpx:TrackPointExtension>
        </extensions>
      </trkpt>
      <trkpt lat="36.79119" lon="28.13513">
        <ele>13.8</ele>
        <time>2018-05-13T07:24:38Z</time>
        <extensions>
          <gpxtpx:TrackPointExtension xmlns:gpxtpx="http://www.garmin.com/xmlschemas/TrackPointExtension/v1">
            <gpxtpx:hr>166</gpxtpx:hr>
          </gpxtpx:TrackPointExtension>
        </extensions>
      </trkpt>
      <trkpt lat="36.7912" lon="28.13516">
        <ele>13.9</ele>
        <time>2018-05-13T07:24:37Z</time>
        <extensions>
          <gpxtpx:TrackPointExtension xmlns:gpxtpx="http://www.garmin.com/xmlschemas/TrackPointExtension/v1">
            <gpxtpx:hr>166</gpxtpx:hr>
          </gpxtpx:TrackPointExtension>
        </extensions>
      </trkpt>
      <trkpt lat="36.79122" lon="28.1352">
        <ele>13.9</ele>
        <time>2018-05-13T07:24:36Z</time>
        <extensions>
          <gpxtpx:TrackPointExtension xmlns:gpxtpx="http://www.garmin.com/xmlschemas/TrackPointExtension/v1">
            <gpxtpx:hr>166</gpxtpx:hr>
          </gpxtpx:TrackPointExtension>
        </extensions>
      </trkpt>
      <trkpt lat="36.79124" lon="28.13523">
        <ele>14</ele>
        <time>2018-05-13T07:24:35Z</time>
        <extensions>
          <gpxtpx:TrackPointExtension xmlns:gpxtpx="http://www.garmin.com/xmlschemas/TrackPointExtension/v1">
            <gpxtpx:hr>166</gpxtpx:hr>
          </gpxtpx:TrackPointExtension>
        </extensions>
      </trkpt>
      <trkpt lat="36.79125" lon="28.13526">
        <ele>14.1</ele>
        <time>2018-05-13T07:24:34Z</time>
        <extensions>
          <gpxtpx:TrackPointExtension xmlns:gpxtpx="http://www.garmin.com/xmlschemas/TrackPointExtension/v1">
            <gpxtpx:hr>166</gpxtpx:hr>
          </gpxtpx:TrackPointExtension>
        </extensions>
      </trkpt>
      <trkpt lat="36.79127" lon="28.13529">
        <ele>14.1</ele>
        <time>2018-05-13T07:24:33Z</time>
        <extensions>
          <gpxtpx:TrackPointExtension xmlns:gpxtpx="http://www.garmin.com/xmlschemas/TrackPointExtension/v1">
            <gpxtpx:hr>166</gpxtpx:hr>
          </gpxtpx:TrackPointExtension>
        </extensions>
      </trkpt>
      <trkpt lat="36.79128" lon="28.13532">
        <ele>14.2</ele>
        <time>2018-05-13T07:24:32Z</time>
        <extensions>
          <gpxtpx:TrackPointExtension xmlns:gpxtpx="http://www.garmin.com/xmlschemas/TrackPointExtension/v1">
            <gpxtpx:hr>166</gpxtpx:hr>
          </gpxtpx:TrackPointExtension>
        </extensions>
      </trkpt>
      <trkpt lat="36.7913" lon="28.13536">
        <ele>14.3</ele>
        <time>2018-05-13T07:24:31Z</time>
        <extensions>
          <gpxtpx:TrackPointExtension xmlns:gpxtpx="http://www.garmin.com/xmlschemas/TrackPointExtension/v1">
            <gpxtpx:hr>166</gpxtpx:hr>
          </gpxtpx:TrackPointExtension>
        </extensions>
      </trkpt>
      <trkpt lat="36.79131" lon="28.13539">
        <ele>14.4</ele>
        <time>2018-05-13T07:24:30Z</time>
        <extensions>
          <gpxtpx:TrackPointExtension xmlns:gpxtpx="http://www.garmin.com/xmlschemas/TrackPointExtension/v1">
            <gpxtpx:hr>166</gpxtpx:hr>
          </gpxtpx:TrackPointExtension>
        </extensions>
      </trkpt>
      <trkpt lat="36.79132" lon="28.13543">
        <ele>14.6</ele>
        <time>2018-05-13T07:24:29Z</time>
        <extensions>
          <gpxtpx:TrackPointExtension xmlns:gpxtpx="http://www.garmin.com/xmlschemas/TrackPointExtension/v1">
            <gpxtpx:hr>167</gpxtpx:hr>
          </gpxtpx:TrackPointExtension>
        </extensions>
      </trkpt>
      <trkpt lat="36.79134" lon="28.13546">
        <ele>14.7</ele>
        <time>2018-05-13T07:24:28Z</time>
        <extensions>
          <gpxtpx:TrackPointExtension xmlns:gpxtpx="http://www.garmin.com/xmlschemas/TrackPointExtension/v1">
            <gpxtpx:hr>167</gpxtpx:hr>
          </gpxtpx:TrackPointExtension>
        </extensions>
      </trkpt>
      <trkpt lat="36.79135" lon="28.13549">
        <ele>14.8</ele>
        <time>2018-05-13T07:24:27Z</time>
        <extensions>
          <gpxtpx:TrackPointExtension xmlns:gpxtpx="http://www.garmin.com/xmlschemas/TrackPointExtension/v1">
            <gpxtpx:hr>167</gpxtpx:hr>
          </gpxtpx:TrackPointExtension>
        </extensions>
      </trkpt>
      <trkpt lat="36.79137" lon="28.13553">
        <ele>14.9</ele>
        <time>2018-05-13T07:24:26Z</time>
        <extensions>
          <gpxtpx:TrackPointExtension xmlns:gpxtpx="http://www.garmin.com/xmlschemas/TrackPointExtension/v1">
            <gpxtpx:hr>165</gpxtpx:hr>
          </gpxtpx:TrackPointExtension>
        </extensions>
      </trkpt>
      <trkpt lat="36.79138" lon="28.13556">
        <ele>15.1</ele>
        <time>2018-05-13T07:24:25Z</time>
        <extensions>
          <gpxtpx:TrackPointExtension xmlns:gpxtpx="http://www.garmin.com/xmlschemas/TrackPointExtension/v1">
            <gpxtpx:hr>165</gpxtpx:hr>
          </gpxtpx:TrackPointExtension>
        </extensions>
      </trkpt>
      <trkpt lat="36.79139" lon="28.13559">
        <ele>15.2</ele>
        <time>2018-05-13T07:24:24Z</time>
        <extensions>
          <gpxtpx:TrackPointExtension xmlns:gpxtpx="http://www.garmin.com/xmlschemas/TrackPointExtension/v1">
            <gpxtpx:hr>165</gpxtpx:hr>
          </gpxtpx:TrackPointExtension>
        </extensions>
      </trkpt>
      <trkpt lat="36.7914" lon="28.13563">
        <ele>15.3</ele>
        <time>2018-05-13T07:24:23Z</time>
        <extensions>
          <gpxtpx:TrackPointExtension xmlns:gpxtpx="http://www.garmin.com/xmlschemas/TrackPointExtension/v1">
            <gpxtpx:hr>165</gpxtpx:hr>
          </gpxtpx:TrackPointExtension>
        </extensions>
      </trkpt>
      <trkpt lat="36.79142" lon="28.13566">
        <ele>15.5</ele>
        <time>2018-05-13T07:24:22Z</time>
        <extensions>
          <gpxtpx:TrackPointExtension xmlns:gpxtpx="http://www.garmin.com/xmlschemas/TrackPointExtension/v1">
            <gpxtpx:hr>164</gpxtpx:hr>
          </gpxtpx:TrackPointExtension>
        </extensions>
      </trkpt>
      <trkpt lat="36.79143" lon="28.13569">
        <ele>15.6</ele>
        <time>2018-05-13T07:24:21Z</time>
        <extensions>
          <gpxtpx:TrackPointExtension xmlns:gpxtpx="http://www.garmin.com/xmlschemas/TrackPointExtension/v1">
            <gpxtpx:hr>156</gpxtpx:hr>
          </gpxtpx:TrackPointExtension>
        </extensions>
      </trkpt>
      <trkpt lat="36.79145" lon="28.13576">
        <ele>15.8</ele>
        <time>2018-05-13T07:24:19Z</time>
        <extensions>
          <gpxtpx:TrackPointExtension xmlns:gpxtpx="http://www.garmin.com/xmlschemas/TrackPointExtension/v1">
            <gpxtpx:hr>156</gpxtpx:hr>
          </gpxtpx:TrackPointExtension>
        </extensions>
      </trkpt>
      <trkpt lat="36.79146" lon="28.13579">
        <ele>15.9</ele>
        <time>2018-05-13T07:24:18Z</time>
        <extensions>
          <gpxtpx:TrackPointExtension xmlns:gpxtpx="http://www.garmin.com/xmlschemas/TrackPointExtension/v1">
            <gpxtpx:hr>156</gpxtpx:hr>
          </gpxtpx:TrackPointExtension>
        </extensions>
      </trkpt>
      <trkpt lat="36.79146" lon="28.13582">
        <ele>15.9</ele>
        <time>2018-05-13T07:24:17Z</time>
        <extensions>
          <gpxtpx:TrackPointExtension xmlns:gpxtpx="http://www.garmin.com/xmlschemas/TrackPointExtension/v1">
            <gpxtpx:hr>156</gpxtpx:hr>
          </gpxtpx:TrackPointExtension>
        </extensions>
      </trkpt>
      <trkpt lat="36.79147" lon="28.13586">
        <ele>16</ele>
        <time>2018-05-13T07:24:16Z</time>
        <extensions>
          <gpxtpx:TrackPointExtension xmlns:gpxtpx="http://www.garmin.com/xmlschemas/TrackPointExtension/v1">
            <gpxtpx:hr>156</gpxtpx:hr>
          </gpxtpx:TrackPointExtension>
        </extensions>
      </trkpt>
      <trkpt lat="36.79148" lon="28.1359">
        <ele>16.1</ele>
        <time>2018-05-13T07:24:15Z</time>
        <extensions>
          <gpxtpx:TrackPointExtension xmlns:gpxtpx="http://www.garmin.com/xmlschemas/TrackPointExtension/v1">
            <gpxtpx:hr>156</gpxtpx:hr>
          </gpxtpx:TrackPointExtension>
        </extensions>
      </trkpt>
      <trkpt lat="36.79149" lon="28.13593">
        <ele>16.2</ele>
        <time>2018-05-13T07:24:14Z</time>
        <extensions>
          <gpxtpx:TrackPointExtension xmlns:gpxtpx="http://www.garmin.com/xmlschemas/TrackPointExtension/v1">
            <gpxtpx:hr>156</gpxtpx:hr>
          </gpxtpx:TrackPointExtension>
        </extensions>
      </trkpt>
      <trkpt lat="36.7915" lon="28.13597">
        <ele>16.2</ele>
        <time>2018-05-13T07:24:13Z</time>
        <extensions>
          <gpxtpx:TrackPointExtension xmlns:gpxtpx="http://www.garmin.com/xmlschemas/TrackPointExtension/v1">
            <gpxtpx:hr>156</gpxtpx:hr>
          </gpxtpx:TrackPointExtension>
        </extensions>
      </trkpt>
      <trkpt lat="36.7915" lon="28.136">
        <ele>16.2</ele>
        <time>2018-05-13T07:24:12Z</time>
        <extensions>
          <gpxtpx:TrackPointExtension xmlns:gpxtpx="http://www.garmin.com/xmlschemas/TrackPointExtension/v1">
            <gpxtpx:hr>156</gpxtpx:hr>
          </gpxtpx:TrackPointExtension>
        </extensions>
      </trkpt>
      <trkpt lat="36.79151" lon="28.13604">
        <ele>16.2</ele>
        <time>2018-05-13T07:24:11Z</time>
        <extensions>
          <gpxtpx:TrackPointExtension xmlns:gpxtpx="http://www.garmin.com/xmlschemas/TrackPointExtension/v1">
            <gpxtpx:hr>156</gpxtpx:hr>
          </gpxtpx:TrackPointExtension>
        </extensions>
      </trkpt>
      <trkpt lat="36.79151" lon="28.13608">
        <ele>16.2</ele>
        <time>2018-05-13T07:24:10Z</time>
        <extensions>
          <gpxtpx:TrackPointExtension xmlns:gpxtpx="http://www.garmin.com/xmlschemas/TrackPointExtension/v1">
            <gpxtpx:hr>156</gpxtpx:hr>
          </gpxtpx:TrackPointExtension>
        </extensions>
      </trkpt>
      <trkpt lat="36.79152" lon="28.13611">
        <ele>16.1</ele>
        <time>2018-05-13T07:24:09Z</time>
        <extensions>
          <gpxtpx:TrackPointExtension xmlns:gpxtpx="http://www.garmin.com/xmlschemas/TrackPointExtension/v1">
            <gpxtpx:hr>155</gpxtpx:hr>
          </gpxtpx:TrackPointExtension>
        </extensions>
      </trkpt>
      <trkpt lat="36.79153" lon="28.13615">
        <ele>16</ele>
        <time>2018-05-13T07:24:08Z</time>
        <extensions>
          <gpxtpx:TrackPointExtension xmlns:gpxtpx="http://www.garmin.com/xmlschemas/TrackPointExtension/v1">
            <gpxtpx:hr>153</gpxtpx:hr>
          </gpxtpx:TrackPointExtension>
        </extensions>
      </trkpt>
      <trkpt lat="36.79154" lon="28.13619">
        <ele>15.9</ele>
        <time>2018-05-13T07:24:07Z</time>
        <extensions>
          <gpxtpx:TrackPointExtension xmlns:gpxtpx="http://www.garmin.com/xmlschemas/TrackPointExtension/v1">
            <gpxtpx:hr>153</gpxtpx:hr>
          </gpxtpx:TrackPointExtension>
        </extensions>
      </trkpt>
      <trkpt lat="36.79155" lon="28.13622">
        <ele>15.8</ele>
        <time>2018-05-13T07:24:06Z</time>
        <extensions>
          <gpxtpx:TrackPointExtension xmlns:gpxtpx="http://www.garmin.com/xmlschemas/TrackPointExtension/v1">
            <gpxtpx:hr>153</gpxtpx:hr>
          </gpxtpx:TrackPointExtension>
        </extensions>
      </trkpt>
      <trkpt lat="36.79156" lon="28.13626">
        <ele>15.7</ele>
        <time>2018-05-13T07:24:05Z</time>
        <extensions>
          <gpxtpx:TrackPointExtension xmlns:gpxtpx="http://www.garmin.com/xmlschemas/TrackPointExtension/v1">
            <gpxtpx:hr>159</gpxtpx:hr>
          </gpxtpx:TrackPointExtension>
        </extensions>
      </trkpt>
      <trkpt lat="36.79157" lon="28.1363">
        <ele>15.5</ele>
        <time>2018-05-13T07:24:04Z</time>
        <extensions>
          <gpxtpx:TrackPointExtension xmlns:gpxtpx="http://www.garmin.com/xmlschemas/TrackPointExtension/v1">
            <gpxtpx:hr>159</gpxtpx:hr>
          </gpxtpx:TrackPointExtension>
        </extensions>
      </trkpt>
      <trkpt lat="36.79158" lon="28.13633">
        <ele>15.4</ele>
        <time>2018-05-13T07:24:03Z</time>
        <extensions>
          <gpxtpx:TrackPointExtension xmlns:gpxtpx="http://www.garmin.com/xmlschemas/TrackPointExtension/v1">
            <gpxtpx:hr>159</gpxtpx:hr>
          </gpxtpx:TrackPointExtension>
        </extensions>
      </trkpt>
      <trkpt lat="36.79159" lon="28.13637">
        <ele>15.2</ele>
        <time>2018-05-13T07:24:02Z</time>
        <extensions>
          <gpxtpx:TrackPointExtension xmlns:gpxtpx="http://www.garmin.com/xmlschemas/TrackPointExtension/v1">
            <gpxtpx:hr>159</gpxtpx:hr>
          </gpxtpx:TrackPointExtension>
        </extensions>
      </trkpt>
      <trkpt lat="36.79161" lon="28.13641">
        <ele>15.1</ele>
        <time>2018-05-13T07:24:01Z</time>
        <extensions>
          <gpxtpx:TrackPointExtension xmlns:gpxtpx="http://www.garmin.com/xmlschemas/TrackPointExtension/v1">
            <gpxtpx:hr>159</gpxtpx:hr>
          </gpxtpx:TrackPointExtension>
        </extensions>
      </trkpt>
      <trkpt lat="36.79162" lon="28.13644">
        <ele>14.9</ele>
        <time>2018-05-13T07:24:00Z</time>
        <extensions>
          <gpxtpx:TrackPointExtension xmlns:gpxtpx="http://www.garmin.com/xmlschemas/TrackPointExtension/v1">
            <gpxtpx:hr>159</gpxtpx:hr>
          </gpxtpx:TrackPointExtension>
        </extensions>
      </trkpt>
      <trkpt lat="36.79164" lon="28.13648">
        <ele>14.8</ele>
        <time>2018-05-13T07:23:59Z</time>
        <extensions>
          <gpxtpx:TrackPointExtension xmlns:gpxtpx="http://www.garmin.com/xmlschemas/TrackPointExtension/v1">
            <gpxtpx:hr>159</gpxtpx:hr>
          </gpxtpx:TrackPointExtension>
        </extensions>
      </trkpt>
      <trkpt lat="36.79165" lon="28.13651">
        <ele>14.6</ele>
        <time>2018-05-13T07:23:58Z</time>
        <extensions>
          <gpxtpx:TrackPointExtension xmlns:gpxtpx="http://www.garmin.com/xmlschemas/TrackPointExtension/v1">
            <gpxtpx:hr>159</gpxtpx:hr>
          </gpxtpx:TrackPointExtension>
        </extensions>
      </trkpt>
      <trkpt lat="36.79167" lon="28.13654">
        <ele>14.5</ele>
        <time>2018-05-13T07:23:57Z</time>
        <extensions>
          <gpxtpx:TrackPointExtension xmlns:gpxtpx="http://www.garmin.com/xmlschemas/TrackPointExtension/v1">
            <gpxtpx:hr>159</gpxtpx:hr>
          </gpxtpx:TrackPointExtension>
        </extensions>
      </trkpt>
      <trkpt lat="36.79168" lon="28.13657">
        <ele>14.3</ele>
        <time>2018-05-13T07:23:56Z</time>
        <extensions>
          <gpxtpx:TrackPointExtension xmlns:gpxtpx="http://www.garmin.com/xmlschemas/TrackPointExtension/v1">
            <gpxtpx:hr>173</gpxtpx:hr>
          </gpxtpx:TrackPointExtension>
        </extensions>
      </trkpt>
      <trkpt lat="36.79169" lon="28.13661">
        <ele>14.2</ele>
        <time>2018-05-13T07:23:55Z</time>
        <extensions>
          <gpxtpx:TrackPointExtension xmlns:gpxtpx="http://www.garmin.com/xmlschemas/TrackPointExtension/v1">
            <gpxtpx:hr>173</gpxtpx:hr>
          </gpxtpx:TrackPointExtension>
        </extensions>
      </trkpt>
      <trkpt lat="36.79169" lon="28.13665">
        <ele>14.1</ele>
        <time>2018-05-13T07:23:54Z</time>
        <extensions>
          <gpxtpx:TrackPointExtension xmlns:gpxtpx="http://www.garmin.com/xmlschemas/TrackPointExtension/v1">
            <gpxtpx:hr>173</gpxtpx:hr>
          </gpxtpx:TrackPointExtension>
        </extensions>
      </trkpt>
      <trkpt lat="36.7917" lon="28.13669">
        <ele>13.9</ele>
        <time>2018-05-13T07:23:53Z</time>
        <extensions>
          <gpxtpx:TrackPointExtension xmlns:gpxtpx="http://www.garmin.com/xmlschemas/TrackPointExtension/v1">
            <gpxtpx:hr>173</gpxtpx:hr>
          </gpxtpx:TrackPointExtension>
        </extensions>
      </trkpt>
      <trkpt lat="36.79171" lon="28.13672">
        <ele>13.8</ele>
        <time>2018-05-13T07:23:52Z</time>
        <extensions>
          <gpxtpx:TrackPointExtension xmlns:gpxtpx="http://www.garmin.com/xmlschemas/TrackPointExtension/v1">
            <gpxtpx:hr>173</gpxtpx:hr>
          </gpxtpx:TrackPointExtension>
        </extensions>
      </trkpt>
      <trkpt lat="36.79173" lon="28.13678">
        <ele>13.6</ele>
        <time>2018-05-13T07:23:50Z</time>
        <extensions>
          <gpxtpx:TrackPointExtension xmlns:gpxtpx="http://www.garmin.com/xmlschemas/TrackPointExtension/v1">
            <gpxtpx:hr>163</gpxtpx:hr>
          </gpxtpx:TrackPointExtension>
        </extensions>
      </trkpt>
      <trkpt lat="36.79174" lon="28.13684">
        <ele>13.4</ele>
        <time>2018-05-13T07:23:48Z</time>
        <extensions>
          <gpxtpx:TrackPointExtension xmlns:gpxtpx="http://www.garmin.com/xmlschemas/TrackPointExtension/v1">
            <gpxtpx:hr>164</gpxtpx:hr>
          </gpxtpx:TrackPointExtension>
        </extensions>
      </trkpt>
      <trkpt lat="36.79176" lon="28.1369">
        <ele>13.2</ele>
        <time>2018-05-13T07:23:46Z</time>
        <extensions>
          <gpxtpx:TrackPointExtension xmlns:gpxtpx="http://www.garmin.com/xmlschemas/TrackPointExtension/v1">
            <gpxtpx:hr>164</gpxtpx:hr>
          </gpxtpx:TrackPointExtension>
        </extensions>
      </trkpt>
      <trkpt lat="36.79179" lon="28.13695">
        <ele>13</ele>
        <time>2018-05-13T07:23:44Z</time>
        <extensions>
          <gpxtpx:TrackPointExtension xmlns:gpxtpx="http://www.garmin.com/xmlschemas/TrackPointExtension/v1">
            <gpxtpx:hr>164</gpxtpx:hr>
          </gpxtpx:TrackPointExtension>
        </extensions>
      </trkpt>
      <trkpt lat="36.79181" lon="28.13701">
        <ele>12.7</ele>
        <time>2018-05-13T07:23:42Z</time>
        <extensions>
          <gpxtpx:TrackPointExtension xmlns:gpxtpx="http://www.garmin.com/xmlschemas/TrackPointExtension/v1">
            <gpxtpx:hr>164</gpxtpx:hr>
          </gpxtpx:TrackPointExtension>
        </extensions>
      </trkpt>
      <trkpt lat="36.79183" lon="28.13708">
        <ele>12.5</ele>
        <time>2018-05-13T07:23:40Z</time>
        <extensions>
          <gpxtpx:TrackPointExtension xmlns:gpxtpx="http://www.garmin.com/xmlschemas/TrackPointExtension/v1">
            <gpxtpx:hr>164</gpxtpx:hr>
          </gpxtpx:TrackPointExtension>
        </extensions>
      </trkpt>
      <trkpt lat="36.79184" lon="28.13713">
        <ele>12.2</ele>
        <time>2018-05-13T07:23:38Z</time>
        <extensions>
          <gpxtpx:TrackPointExtension xmlns:gpxtpx="http://www.garmin.com/xmlschemas/TrackPointExtension/v1">
            <gpxtpx:hr>165</gpxtpx:hr>
          </gpxtpx:TrackPointExtension>
        </extensions>
      </trkpt>
      <trkpt lat="36.79186" lon="28.13719">
        <ele>11.9</ele>
        <time>2018-05-13T07:23:36Z</time>
        <extensions>
          <gpxtpx:TrackPointExtension xmlns:gpxtpx="http://www.garmin.com/xmlschemas/TrackPointExtension/v1">
            <gpxtpx:hr>165</gpxtpx:hr>
          </gpxtpx:TrackPointExtension>
        </extensions>
      </trkpt>
      <trkpt lat="36.79188" lon="28.13722">
        <ele>11.8</ele>
        <time>2018-05-13T07:23:35Z</time>
        <extensions>
          <gpxtpx:TrackPointExtension xmlns:gpxtpx="http://www.garmin.com/xmlschemas/TrackPointExtension/v1">
            <gpxtpx:hr>165</gpxtpx:hr>
          </gpxtpx:TrackPointExtension>
        </extensions>
      </trkpt>
      <trkpt lat="36.79189" lon="28.13725">
        <ele>11.6</ele>
        <time>2018-05-13T07:23:34Z</time>
        <extensions>
          <gpxtpx:TrackPointExtension xmlns:gpxtpx="http://www.garmin.com/xmlschemas/TrackPointExtension/v1">
            <gpxtpx:hr>165</gpxtpx:hr>
          </gpxtpx:TrackPointExtension>
        </extensions>
      </trkpt>
      <trkpt lat="36.79191" lon="28.13728">
        <ele>11.5</ele>
        <time>2018-05-13T07:23:33Z</time>
        <extensions>
          <gpxtpx:TrackPointExtension xmlns:gpxtpx="http://www.garmin.com/xmlschemas/TrackPointExtension/v1">
            <gpxtpx:hr>166</gpxtpx:hr>
          </gpxtpx:TrackPointExtension>
        </extensions>
      </trkpt>
      <trkpt lat="36.79192" lon="28.13731">
        <ele>11.3</ele>
        <time>2018-05-13T07:23:32Z</time>
        <extensions>
          <gpxtpx:TrackPointExtension xmlns:gpxtpx="http://www.garmin.com/xmlschemas/TrackPointExtension/v1">
            <gpxtpx:hr>166</gpxtpx:hr>
          </gpxtpx:TrackPointExtension>
        </extensions>
      </trkpt>
      <trkpt lat="36.79194" lon="28.13734">
        <ele>11.2</ele>
        <time>2018-05-13T07:23:31Z</time>
        <extensions>
          <gpxtpx:TrackPointExtension xmlns:gpxtpx="http://www.garmin.com/xmlschemas/TrackPointExtension/v1">
            <gpxtpx:hr>166</gpxtpx:hr>
          </gpxtpx:TrackPointExtension>
        </extensions>
      </trkpt>
      <trkpt lat="36.79196" lon="28.13737">
        <ele>11.1</ele>
        <time>2018-05-13T07:23:30Z</time>
        <extensions>
          <gpxtpx:TrackPointExtension xmlns:gpxtpx="http://www.garmin.com/xmlschemas/TrackPointExtension/v1">
            <gpxtpx:hr>167</gpxtpx:hr>
          </gpxtpx:TrackPointExtension>
        </extensions>
      </trkpt>
      <trkpt lat="36.79199" lon="28.13742">
        <ele>10.9</ele>
        <time>2018-05-13T07:23:28Z</time>
        <extensions>
          <gpxtpx:TrackPointExtension xmlns:gpxtpx="http://www.garmin.com/xmlschemas/TrackPointExtension/v1">
            <gpxtpx:hr>167</gpxtpx:hr>
          </gpxtpx:TrackPointExtension>
        </extensions>
      </trkpt>
      <trkpt lat="36.792" lon="28.13746">
        <ele>10.8</ele>
        <time>2018-05-13T07:23:27Z</time>
        <extensions>
          <gpxtpx:TrackPointExtension xmlns:gpxtpx="http://www.garmin.com/xmlschemas/TrackPointExtension/v1">
            <gpxtpx:hr>167</gpxtpx:hr>
          </gpxtpx:TrackPointExtension>
        </extensions>
      </trkpt>
      <trkpt lat="36.79202" lon="28.13749">
        <ele>10.7</ele>
        <time>2018-05-13T07:23:26Z</time>
        <extensions>
          <gpxtpx:TrackPointExtension xmlns:gpxtpx="http://www.garmin.com/xmlschemas/TrackPointExtension/v1">
            <gpxtpx:hr>167</gpxtpx:hr>
          </gpxtpx:TrackPointExtension>
        </extensions>
      </trkpt>
      <trkpt lat="36.79203" lon="28.13752">
        <ele>10.6</ele>
        <time>2018-05-13T07:23:25Z</time>
        <extensions>
          <gpxtpx:TrackPointExtension xmlns:gpxtpx="http://www.garmin.com/xmlschemas/TrackPointExtension/v1">
            <gpxtpx:hr>167</gpxtpx:hr>
          </gpxtpx:TrackPointExtension>
        </extensions>
      </trkpt>
      <trkpt lat="36.79204" lon="28.13755">
        <ele>10.6</ele>
        <time>2018-05-13T07:23:24Z</time>
        <extensions>
          <gpxtpx:TrackPointExtension xmlns:gpxtpx="http://www.garmin.com/xmlschemas/TrackPointExtension/v1">
            <gpxtpx:hr>167</gpxtpx:hr>
          </gpxtpx:TrackPointExtension>
        </extensions>
      </trkpt>
      <trkpt lat="36.79206" lon="28.13759">
        <ele>10.5</ele>
        <time>2018-05-13T07:23:23Z</time>
        <extensions>
          <gpxtpx:TrackPointExtension xmlns:gpxtpx="http://www.garmin.com/xmlschemas/TrackPointExtension/v1">
            <gpxtpx:hr>167</gpxtpx:hr>
          </gpxtpx:TrackPointExtension>
        </extensions>
      </trkpt>
      <trkpt lat="36.79207" lon="28.13762">
        <ele>10.4</ele>
        <time>2018-05-13T07:23:22Z</time>
        <extensions>
          <gpxtpx:TrackPointExtension xmlns:gpxtpx="http://www.garmin.com/xmlschemas/TrackPointExtension/v1">
            <gpxtpx:hr>167</gpxtpx:hr>
          </gpxtpx:TrackPointExtension>
        </extensions>
      </trkpt>
      <trkpt lat="36.79208" lon="28.13766">
        <ele>10.4</ele>
        <time>2018-05-13T07:23:21Z</time>
        <extensions>
          <gpxtpx:TrackPointExtension xmlns:gpxtpx="http://www.garmin.com/xmlschemas/TrackPointExtension/v1">
            <gpxtpx:hr>167</gpxtpx:hr>
          </gpxtpx:TrackPointExtension>
        </extensions>
      </trkpt>
      <trkpt lat="36.7921" lon="28.13769">
        <ele>10.4</ele>
        <time>2018-05-13T07:23:20Z</time>
        <extensions>
          <gpxtpx:TrackPointExtension xmlns:gpxtpx="http://www.garmin.com/xmlschemas/TrackPointExtension/v1">
            <gpxtpx:hr>167</gpxtpx:hr>
          </gpxtpx:TrackPointExtension>
        </extensions>
      </trkpt>
      <trkpt lat="36.79211" lon="28.13773">
        <ele>10.4</ele>
        <time>2018-05-13T07:23:19Z</time>
        <extensions>
          <gpxtpx:TrackPointExtension xmlns:gpxtpx="http://www.garmin.com/xmlschemas/TrackPointExtension/v1">
            <gpxtpx:hr>167</gpxtpx:hr>
          </gpxtpx:TrackPointExtension>
        </extensions>
      </trkpt>
      <trkpt lat="36.79213" lon="28.13776">
        <ele>10.4</ele>
        <time>2018-05-13T07:23:18Z</time>
        <extensions>
          <gpxtpx:TrackPointExtension xmlns:gpxtpx="http://www.garmin.com/xmlschemas/TrackPointExtension/v1">
            <gpxtpx:hr>166</gpxtpx:hr>
          </gpxtpx:TrackPointExtension>
        </extensions>
      </trkpt>
      <trkpt lat="36.79214" lon="28.13779">
        <ele>10.4</ele>
        <time>2018-05-13T07:23:17Z</time>
        <extensions>
          <gpxtpx:TrackPointExtension xmlns:gpxtpx="http://www.garmin.com/xmlschemas/TrackPointExtension/v1">
            <gpxtpx:hr>166</gpxtpx:hr>
          </gpxtpx:TrackPointExtension>
        </extensions>
      </trkpt>
      <trkpt lat="36.79215" lon="28.13782">
        <ele>10.4</ele>
        <time>2018-05-13T07:23:16Z</time>
        <extensions>
          <gpxtpx:TrackPointExtension xmlns:gpxtpx="http://www.garmin.com/xmlschemas/TrackPointExtension/v1">
            <gpxtpx:hr>166</gpxtpx:hr>
          </gpxtpx:TrackPointExtension>
        </extensions>
      </trkpt>
      <trkpt lat="36.79217" lon="28.13785">
        <ele>10.5</ele>
        <time>2018-05-13T07:23:15Z</time>
        <extensions>
          <gpxtpx:TrackPointExtension xmlns:gpxtpx="http://www.garmin.com/xmlschemas/TrackPointExtension/v1">
            <gpxtpx:hr>166</gpxtpx:hr>
          </gpxtpx:TrackPointExtension>
        </extensions>
      </trkpt>
      <trkpt lat="36.79218" lon="28.13789">
        <ele>10.5</ele>
        <time>2018-05-13T07:23:14Z</time>
        <extensions>
          <gpxtpx:TrackPointExtension xmlns:gpxtpx="http://www.garmin.com/xmlschemas/TrackPointExtension/v1">
            <gpxtpx:hr>166</gpxtpx:hr>
          </gpxtpx:TrackPointExtension>
        </extensions>
      </trkpt>
      <trkpt lat="36.79219" lon="28.13793">
        <ele>10.6</ele>
        <time>2018-05-13T07:23:13Z</time>
        <extensions>
          <gpxtpx:TrackPointExtension xmlns:gpxtpx="http://www.garmin.com/xmlschemas/TrackPointExtension/v1">
            <gpxtpx:hr>167</gpxtpx:hr>
          </gpxtpx:TrackPointExtension>
        </extensions>
      </trkpt>
      <trkpt lat="36.79221" lon="28.13797">
        <ele>10.7</ele>
        <time>2018-05-13T07:23:12Z</time>
        <extensions>
          <gpxtpx:TrackPointExtension xmlns:gpxtpx="http://www.garmin.com/xmlschemas/TrackPointExtension/v1">
            <gpxtpx:hr>167</gpxtpx:hr>
          </gpxtpx:TrackPointExtension>
        </extensions>
      </trkpt>
      <trkpt lat="36.79222" lon="28.13801">
        <ele>10.9</ele>
        <time>2018-05-13T07:23:11Z</time>
        <extensions>
          <gpxtpx:TrackPointExtension xmlns:gpxtpx="http://www.garmin.com/xmlschemas/TrackPointExtension/v1">
            <gpxtpx:hr>167</gpxtpx:hr>
          </gpxtpx:TrackPointExtension>
        </extensions>
      </trkpt>
      <trkpt lat="36.79224" lon="28.13804">
        <ele>11</ele>
        <time>2018-05-13T07:23:10Z</time>
        <extensions>
          <gpxtpx:TrackPointExtension xmlns:gpxtpx="http://www.garmin.com/xmlschemas/TrackPointExtension/v1">
            <gpxtpx:hr>167</gpxtpx:hr>
          </gpxtpx:TrackPointExtension>
        </extensions>
      </trkpt>
      <trkpt lat="36.79226" lon="28.13807">
        <ele>11.1</ele>
        <time>2018-05-13T07:23:09Z</time>
        <extensions>
          <gpxtpx:TrackPointExtension xmlns:gpxtpx="http://www.garmin.com/xmlschemas/TrackPointExtension/v1">
            <gpxtpx:hr>167</gpxtpx:hr>
          </gpxtpx:TrackPointExtension>
        </extensions>
      </trkpt>
      <trkpt lat="36.79227" lon="28.13811">
        <ele>11.2</ele>
        <time>2018-05-13T07:23:08Z</time>
        <extensions>
          <gpxtpx:TrackPointExtension xmlns:gpxtpx="http://www.garmin.com/xmlschemas/TrackPointExtension/v1">
            <gpxtpx:hr>167</gpxtpx:hr>
          </gpxtpx:TrackPointExtension>
        </extensions>
      </trkpt>
      <trkpt lat="36.79229" lon="28.13814">
        <ele>11.3</ele>
        <time>2018-05-13T07:23:07Z</time>
        <extensions>
          <gpxtpx:TrackPointExtension xmlns:gpxtpx="http://www.garmin.com/xmlschemas/TrackPointExtension/v1">
            <gpxtpx:hr>167</gpxtpx:hr>
          </gpxtpx:TrackPointExtension>
        </extensions>
      </trkpt>
      <trkpt lat="36.7923" lon="28.13817">
        <ele>11.3</ele>
        <time>2018-05-13T07:23:06Z</time>
        <extensions>
          <gpxtpx:TrackPointExtension xmlns:gpxtpx="http://www.garmin.com/xmlschemas/TrackPointExtension/v1">
            <gpxtpx:hr>167</gpxtpx:hr>
          </gpxtpx:TrackPointExtension>
        </extensions>
      </trkpt>
      <trkpt lat="36.79231" lon="28.13821">
        <ele>11.4</ele>
        <time>2018-05-13T07:23:05Z</time>
        <extensions>
          <gpxtpx:TrackPointExtension xmlns:gpxtpx="http://www.garmin.com/xmlschemas/TrackPointExtension/v1">
            <gpxtpx:hr>167</gpxtpx:hr>
          </gpxtpx:TrackPointExtension>
        </extensions>
      </trkpt>
      <trkpt lat="36.79232" lon="28.13824">
        <ele>11.5</ele>
        <time>2018-05-13T07:23:04Z</time>
        <extensions>
          <gpxtpx:TrackPointExtension xmlns:gpxtpx="http://www.garmin.com/xmlschemas/TrackPointExtension/v1">
            <gpxtpx:hr>167</gpxtpx:hr>
          </gpxtpx:TrackPointExtension>
        </extensions>
      </trkpt>
      <trkpt lat="36.79233" lon="28.13828">
        <ele>11.6</ele>
        <time>2018-05-13T07:23:03Z</time>
        <extensions>
          <gpxtpx:TrackPointExtension xmlns:gpxtpx="http://www.garmin.com/xmlschemas/TrackPointExtension/v1">
            <gpxtpx:hr>167</gpxtpx:hr>
          </gpxtpx:TrackPointExtension>
        </extensions>
      </trkpt>
      <trkpt lat="36.79234" lon="28.13831">
        <ele>11.7</ele>
        <time>2018-05-13T07:23:02Z</time>
        <extensions>
          <gpxtpx:TrackPointExtension xmlns:gpxtpx="http://www.garmin.com/xmlschemas/TrackPointExtension/v1">
            <gpxtpx:hr>167</gpxtpx:hr>
          </gpxtpx:TrackPointExtension>
        </extensions>
      </trkpt>
      <trkpt lat="36.79235" lon="28.13834">
        <ele>11.8</ele>
        <time>2018-05-13T07:23:01Z</time>
        <extensions>
          <gpxtpx:TrackPointExtension xmlns:gpxtpx="http://www.garmin.com/xmlschemas/TrackPointExtension/v1">
            <gpxtpx:hr>167</gpxtpx:hr>
          </gpxtpx:TrackPointExtension>
        </extensions>
      </trkpt>
      <trkpt lat="36.79237" lon="28.13837">
        <ele>11.9</ele>
        <time>2018-05-13T07:23:00Z</time>
        <extensions>
          <gpxtpx:TrackPointExtension xmlns:gpxtpx="http://www.garmin.com/xmlschemas/TrackPointExtension/v1">
            <gpxtpx:hr>167</gpxtpx:hr>
          </gpxtpx:TrackPointExtension>
        </extensions>
      </trkpt>
      <trkpt lat="36.79238" lon="28.1384">
        <ele>12</ele>
        <time>2018-05-13T07:22:59Z</time>
        <extensions>
          <gpxtpx:TrackPointExtension xmlns:gpxtpx="http://www.garmin.com/xmlschemas/TrackPointExtension/v1">
            <gpxtpx:hr>167</gpxtpx:hr>
          </gpxtpx:TrackPointExtension>
        </extensions>
      </trkpt>
      <trkpt lat="36.79239" lon="28.13843">
        <ele>12.1</ele>
        <time>2018-05-13T07:22:58Z</time>
        <extensions>
          <gpxtpx:TrackPointExtension xmlns:gpxtpx="http://www.garmin.com/xmlschemas/TrackPointExtension/v1">
            <gpxtpx:hr>167</gpxtpx:hr>
          </gpxtpx:TrackPointExtension>
        </extensions>
      </trkpt>
      <trkpt lat="36.79241" lon="28.13846">
        <ele>12.2</ele>
        <time>2018-05-13T07:22:57Z</time>
        <extensions>
          <gpxtpx:TrackPointExtension xmlns:gpxtpx="http://www.garmin.com/xmlschemas/TrackPointExtension/v1">
            <gpxtpx:hr>167</gpxtpx:hr>
          </gpxtpx:TrackPointExtension>
        </extensions>
      </trkpt>
      <trkpt lat="36.79242" lon="28.1385">
        <ele>12.3</ele>
        <time>2018-05-13T07:22:56Z</time>
        <extensions>
          <gpxtpx:TrackPointExtension xmlns:gpxtpx="http://www.garmin.com/xmlschemas/TrackPointExtension/v1">
            <gpxtpx:hr>167</gpxtpx:hr>
          </gpxtpx:TrackPointExtension>
        </extensions>
      </trkpt>
      <trkpt lat="36.79243" lon="28.13853">
        <ele>12.4</ele>
        <time>2018-05-13T07:22:55Z</time>
        <extensions>
          <gpxtpx:TrackPointExtension xmlns:gpxtpx="http://www.garmin.com/xmlschemas/TrackPointExtension/v1">
            <gpxtpx:hr>167</gpxtpx:hr>
          </gpxtpx:TrackPointExtension>
        </extensions>
      </trkpt>
      <trkpt lat="36.79244" lon="28.13857">
        <ele>12.5</ele>
        <time>2018-05-13T07:22:54Z</time>
        <extensions>
          <gpxtpx:TrackPointExtension xmlns:gpxtpx="http://www.garmin.com/xmlschemas/TrackPointExtension/v1">
            <gpxtpx:hr>167</gpxtpx:hr>
          </gpxtpx:TrackPointExtension>
        </extensions>
      </trkpt>
      <trkpt lat="36.79246" lon="28.13861">
        <ele>12.6</ele>
        <time>2018-05-13T07:22:53Z</time>
        <extensions>
          <gpxtpx:TrackPointExtension xmlns:gpxtpx="http://www.garmin.com/xmlschemas/TrackPointExtension/v1">
            <gpxtpx:hr>167</gpxtpx:hr>
          </gpxtpx:TrackPointExtension>
        </extensions>
      </trkpt>
      <trkpt lat="36.79247" lon="28.13865">
        <ele>12.7</ele>
        <time>2018-05-13T07:22:52Z</time>
        <extensions>
          <gpxtpx:TrackPointExtension xmlns:gpxtpx="http://www.garmin.com/xmlschemas/TrackPointExtension/v1">
            <gpxtpx:hr>167</gpxtpx:hr>
          </gpxtpx:TrackPointExtension>
        </extensions>
      </trkpt>
      <trkpt lat="36.79248" lon="28.13869">
        <ele>12.8</ele>
        <time>2018-05-13T07:22:51Z</time>
        <extensions>
          <gpxtpx:TrackPointExtension xmlns:gpxtpx="http://www.garmin.com/xmlschemas/TrackPointExtension/v1">
            <gpxtpx:hr>166</gpxtpx:hr>
          </gpxtpx:TrackPointExtension>
        </extensions>
      </trkpt>
      <trkpt lat="36.7925" lon="28.13872">
        <ele>13</ele>
        <time>2018-05-13T07:22:50Z</time>
        <extensions>
          <gpxtpx:TrackPointExtension xmlns:gpxtpx="http://www.garmin.com/xmlschemas/TrackPointExtension/v1">
            <gpxtpx:hr>167</gpxtpx:hr>
          </gpxtpx:TrackPointExtension>
        </extensions>
      </trkpt>
      <trkpt lat="36.79251" lon="28.13876">
        <ele>13.2</ele>
        <time>2018-05-13T07:22:49Z</time>
        <extensions>
          <gpxtpx:TrackPointExtension xmlns:gpxtpx="http://www.garmin.com/xmlschemas/TrackPointExtension/v1">
            <gpxtpx:hr>167</gpxtpx:hr>
          </gpxtpx:TrackPointExtension>
        </extensions>
      </trkpt>
      <trkpt lat="36.79253" lon="28.13879">
        <ele>13.4</ele>
        <time>2018-05-13T07:22:48Z</time>
        <extensions>
          <gpxtpx:TrackPointExtension xmlns:gpxtpx="http://www.garmin.com/xmlschemas/TrackPointExtension/v1">
            <gpxtpx:hr>166</gpxtpx:hr>
          </gpxtpx:TrackPointExtension>
        </extensions>
      </trkpt>
      <trkpt lat="36.79254" lon="28.13883">
        <ele>13.7</ele>
        <time>2018-05-13T07:22:47Z</time>
        <extensions>
          <gpxtpx:TrackPointExtension xmlns:gpxtpx="http://www.garmin.com/xmlschemas/TrackPointExtension/v1">
            <gpxtpx:hr>166</gpxtpx:hr>
          </gpxtpx:TrackPointExtension>
        </extensions>
      </trkpt>
      <trkpt lat="36.79255" lon="28.13886">
        <ele>13.9</ele>
        <time>2018-05-13T07:22:46Z</time>
        <extensions>
          <gpxtpx:TrackPointExtension xmlns:gpxtpx="http://www.garmin.com/xmlschemas/TrackPointExtension/v1">
            <gpxtpx:hr>166</gpxtpx:hr>
          </gpxtpx:TrackPointExtension>
        </extensions>
      </trkpt>
      <trkpt lat="36.79256" lon="28.1389">
        <ele>14.2</ele>
        <time>2018-05-13T07:22:45Z</time>
        <extensions>
          <gpxtpx:TrackPointExtension xmlns:gpxtpx="http://www.garmin.com/xmlschemas/TrackPointExtension/v1">
            <gpxtpx:hr>166</gpxtpx:hr>
          </gpxtpx:TrackPointExtension>
        </extensions>
      </trkpt>
      <trkpt lat="36.79257" lon="28.13893">
        <ele>14.5</ele>
        <time>2018-05-13T07:22:44Z</time>
        <extensions>
          <gpxtpx:TrackPointExtension xmlns:gpxtpx="http://www.garmin.com/xmlschemas/TrackPointExtension/v1">
            <gpxtpx:hr>166</gpxtpx:hr>
          </gpxtpx:TrackPointExtension>
        </extensions>
      </trkpt>
      <trkpt lat="36.79258" lon="28.13896">
        <ele>14.8</ele>
        <time>2018-05-13T07:22:43Z</time>
        <extensions>
          <gpxtpx:TrackPointExtension xmlns:gpxtpx="http://www.garmin.com/xmlschemas/TrackPointExtension/v1">
            <gpxtpx:hr>166</gpxtpx:hr>
          </gpxtpx:TrackPointExtension>
        </extensions>
      </trkpt>
      <trkpt lat="36.7926" lon="28.139">
        <ele>15.1</ele>
        <time>2018-05-13T07:22:42Z</time>
        <extensions>
          <gpxtpx:TrackPointExtension xmlns:gpxtpx="http://www.garmin.com/xmlschemas/TrackPointExtension/v1">
            <gpxtpx:hr>166</gpxtpx:hr>
          </gpxtpx:TrackPointExtension>
        </extensions>
      </trkpt>
      <trkpt lat="36.79261" lon="28.13903">
        <ele>15.5</ele>
        <time>2018-05-13T07:22:41Z</time>
        <extensions>
          <gpxtpx:TrackPointExtension xmlns:gpxtpx="http://www.garmin.com/xmlschemas/TrackPointExtension/v1">
            <gpxtpx:hr>166</gpxtpx:hr>
          </gpxtpx:TrackPointExtension>
        </extensions>
      </trkpt>
      <trkpt lat="36.79262" lon="28.13906">
        <ele>15.8</ele>
        <time>2018-05-13T07:22:40Z</time>
        <extensions>
          <gpxtpx:TrackPointExtension xmlns:gpxtpx="http://www.garmin.com/xmlschemas/TrackPointExtension/v1">
            <gpxtpx:hr>167</gpxtpx:hr>
          </gpxtpx:TrackPointExtension>
        </extensions>
      </trkpt>
      <trkpt lat="36.79263" lon="28.1391">
        <ele>16.1</ele>
        <time>2018-05-13T07:22:39Z</time>
        <extensions>
          <gpxtpx:TrackPointExtension xmlns:gpxtpx="http://www.garmin.com/xmlschemas/TrackPointExtension/v1">
            <gpxtpx:hr>167</gpxtpx:hr>
          </gpxtpx:TrackPointExtension>
        </extensions>
      </trkpt>
      <trkpt lat="36.79264" lon="28.13913">
        <ele>16.4</ele>
        <time>2018-05-13T07:22:38Z</time>
        <extensions>
          <gpxtpx:TrackPointExtension xmlns:gpxtpx="http://www.garmin.com/xmlschemas/TrackPointExtension/v1">
            <gpxtpx:hr>167</gpxtpx:hr>
          </gpxtpx:TrackPointExtension>
        </extensions>
      </trkpt>
      <trkpt lat="36.79265" lon="28.13917">
        <ele>16.6</ele>
        <time>2018-05-13T07:22:37Z</time>
        <extensions>
          <gpxtpx:TrackPointExtension xmlns:gpxtpx="http://www.garmin.com/xmlschemas/TrackPointExtension/v1">
            <gpxtpx:hr>167</gpxtpx:hr>
          </gpxtpx:TrackPointExtension>
        </extensions>
      </trkpt>
      <trkpt lat="36.79266" lon="28.13921">
        <ele>16.9</ele>
        <time>2018-05-13T07:22:36Z</time>
        <extensions>
          <gpxtpx:TrackPointExtension xmlns:gpxtpx="http://www.garmin.com/xmlschemas/TrackPointExtension/v1">
            <gpxtpx:hr>166</gpxtpx:hr>
          </gpxtpx:TrackPointExtension>
        </extensions>
      </trkpt>
      <trkpt lat="36.79267" lon="28.13924">
        <ele>17.2</ele>
        <time>2018-05-13T07:22:35Z</time>
        <extensions>
          <gpxtpx:TrackPointExtension xmlns:gpxtpx="http://www.garmin.com/xmlschemas/TrackPointExtension/v1">
            <gpxtpx:hr>166</gpxtpx:hr>
          </gpxtpx:TrackPointExtension>
        </extensions>
      </trkpt>
      <trkpt lat="36.79268" lon="28.13927">
        <ele>17.5</ele>
        <time>2018-05-13T07:22:34Z</time>
        <extensions>
          <gpxtpx:TrackPointExtension xmlns:gpxtpx="http://www.garmin.com/xmlschemas/TrackPointExtension/v1">
            <gpxtpx:hr>166</gpxtpx:hr>
          </gpxtpx:TrackPointExtension>
        </extensions>
      </trkpt>
      <trkpt lat="36.7927" lon="28.1393">
        <ele>17.7</ele>
        <time>2018-05-13T07:22:33Z</time>
        <extensions>
          <gpxtpx:TrackPointExtension xmlns:gpxtpx="http://www.garmin.com/xmlschemas/TrackPointExtension/v1">
            <gpxtpx:hr>166</gpxtpx:hr>
          </gpxtpx:TrackPointExtension>
        </extensions>
      </trkpt>
      <trkpt lat="36.79271" lon="28.13934">
        <ele>18</ele>
        <time>2018-05-13T07:22:32Z</time>
        <extensions>
          <gpxtpx:TrackPointExtension xmlns:gpxtpx="http://www.garmin.com/xmlschemas/TrackPointExtension/v1">
            <gpxtpx:hr>166</gpxtpx:hr>
          </gpxtpx:TrackPointExtension>
        </extensions>
      </trkpt>
      <trkpt lat="36.79272" lon="28.13937">
        <ele>18.2</ele>
        <time>2018-05-13T07:22:31Z</time>
        <extensions>
          <gpxtpx:TrackPointExtension xmlns:gpxtpx="http://www.garmin.com/xmlschemas/TrackPointExtension/v1">
            <gpxtpx:hr>166</gpxtpx:hr>
          </gpxtpx:TrackPointExtension>
        </extensions>
      </trkpt>
      <trkpt lat="36.79273" lon="28.13941">
        <ele>18.5</ele>
        <time>2018-05-13T07:22:30Z</time>
        <extensions>
          <gpxtpx:TrackPointExtension xmlns:gpxtpx="http://www.garmin.com/xmlschemas/TrackPointExtension/v1">
            <gpxtpx:hr>166</gpxtpx:hr>
          </gpxtpx:TrackPointExtension>
        </extensions>
      </trkpt>
      <trkpt lat="36.79275" lon="28.13944">
        <ele>18.8</ele>
        <time>2018-05-13T07:22:29Z</time>
        <extensions>
          <gpxtpx:TrackPointExtension xmlns:gpxtpx="http://www.garmin.com/xmlschemas/TrackPointExtension/v1">
            <gpxtpx:hr>166</gpxtpx:hr>
          </gpxtpx:TrackPointExtension>
        </extensions>
      </trkpt>
      <trkpt lat="36.79276" lon="28.13947">
        <ele>19</ele>
        <time>2018-05-13T07:22:28Z</time>
        <extensions>
          <gpxtpx:TrackPointExtension xmlns:gpxtpx="http://www.garmin.com/xmlschemas/TrackPointExtension/v1">
            <gpxtpx:hr>166</gpxtpx:hr>
          </gpxtpx:TrackPointExtension>
        </extensions>
      </trkpt>
      <trkpt lat="36.79278" lon="28.1395">
        <ele>19.2</ele>
        <time>2018-05-13T07:22:27Z</time>
        <extensions>
          <gpxtpx:TrackPointExtension xmlns:gpxtpx="http://www.garmin.com/xmlschemas/TrackPointExtension/v1">
            <gpxtpx:hr>167</gpxtpx:hr>
          </gpxtpx:TrackPointExtension>
        </extensions>
      </trkpt>
      <trkpt lat="36.79279" lon="28.13953">
        <ele>19.4</ele>
        <time>2018-05-13T07:22:26Z</time>
        <extensions>
          <gpxtpx:TrackPointExtension xmlns:gpxtpx="http://www.garmin.com/xmlschemas/TrackPointExtension/v1">
            <gpxtpx:hr>167</gpxtpx:hr>
          </gpxtpx:TrackPointExtension>
        </extensions>
      </trkpt>
      <trkpt lat="36.79279" lon="28.13957">
        <ele>19.5</ele>
        <time>2018-05-13T07:22:25Z</time>
        <extensions>
          <gpxtpx:TrackPointExtension xmlns:gpxtpx="http://www.garmin.com/xmlschemas/TrackPointExtension/v1">
            <gpxtpx:hr>167</gpxtpx:hr>
          </gpxtpx:TrackPointExtension>
        </extensions>
      </trkpt>
      <trkpt lat="36.7928" lon="28.13961">
        <ele>19.7</ele>
        <time>2018-05-13T07:22:24Z</time>
        <extensions>
          <gpxtpx:TrackPointExtension xmlns:gpxtpx="http://www.garmin.com/xmlschemas/TrackPointExtension/v1">
            <gpxtpx:hr>167</gpxtpx:hr>
          </gpxtpx:TrackPointExtension>
        </extensions>
      </trkpt>
      <trkpt lat="36.79281" lon="28.13964">
        <ele>19.8</ele>
        <time>2018-05-13T07:22:23Z</time>
        <extensions>
          <gpxtpx:TrackPointExtension xmlns:gpxtpx="http://www.garmin.com/xmlschemas/TrackPointExtension/v1">
            <gpxtpx:hr>167</gpxtpx:hr>
          </gpxtpx:TrackPointExtension>
        </extensions>
      </trkpt>
      <trkpt lat="36.79282" lon="28.13968">
        <ele>19.9</ele>
        <time>2018-05-13T07:22:22Z</time>
        <extensions>
          <gpxtpx:TrackPointExtension xmlns:gpxtpx="http://www.garmin.com/xmlschemas/TrackPointExtension/v1">
            <gpxtpx:hr>167</gpxtpx:hr>
          </gpxtpx:TrackPointExtension>
        </extensions>
      </trkpt>
      <trkpt lat="36.79283" lon="28.13971">
        <ele>19.9</ele>
        <time>2018-05-13T07:22:21Z</time>
        <extensions>
          <gpxtpx:TrackPointExtension xmlns:gpxtpx="http://www.garmin.com/xmlschemas/TrackPointExtension/v1">
            <gpxtpx:hr>167</gpxtpx:hr>
          </gpxtpx:TrackPointExtension>
        </extensions>
      </trkpt>
      <trkpt lat="36.79285" lon="28.13974">
        <ele>19.9</ele>
        <time>2018-05-13T07:22:20Z</time>
        <extensions>
          <gpxtpx:TrackPointExtension xmlns:gpxtpx="http://www.garmin.com/xmlschemas/TrackPointExtension/v1">
            <gpxtpx:hr>167</gpxtpx:hr>
          </gpxtpx:TrackPointExtension>
        </extensions>
      </trkpt>
      <trkpt lat="36.79286" lon="28.13978">
        <ele>19.9</ele>
        <time>2018-05-13T07:22:19Z</time>
        <extensions>
          <gpxtpx:TrackPointExtension xmlns:gpxtpx="http://www.garmin.com/xmlschemas/TrackPointExtension/v1">
            <gpxtpx:hr>167</gpxtpx:hr>
          </gpxtpx:TrackPointExtension>
        </extensions>
      </trkpt>
      <trkpt lat="36.79289" lon="28.13983">
        <ele>19.8</ele>
        <time>2018-05-13T07:22:17Z</time>
        <extensions>
          <gpxtpx:TrackPointExtension xmlns:gpxtpx="http://www.garmin.com/xmlschemas/TrackPointExtension/v1">
            <gpxtpx:hr>167</gpxtpx:hr>
          </gpxtpx:TrackPointExtension>
        </extensions>
      </trkpt>
      <trkpt lat="36.79292" lon="28.13988">
        <ele>19.6</ele>
        <time>2018-05-13T07:22:15Z</time>
        <extensions>
          <gpxtpx:TrackPointExtension xmlns:gpxtpx="http://www.garmin.com/xmlschemas/TrackPointExtension/v1">
            <gpxtpx:hr>167</gpxtpx:hr>
          </gpxtpx:TrackPointExtension>
        </extensions>
      </trkpt>
      <trkpt lat="36.79293" lon="28.13992">
        <ele>19.4</ele>
        <time>2018-05-13T07:22:14Z</time>
        <extensions>
          <gpxtpx:TrackPointExtension xmlns:gpxtpx="http://www.garmin.com/xmlschemas/TrackPointExtension/v1">
            <gpxtpx:hr>166</gpxtpx:hr>
          </gpxtpx:TrackPointExtension>
        </extensions>
      </trkpt>
      <trkpt lat="36.79294" lon="28.13995">
        <ele>19.2</ele>
        <time>2018-05-13T07:22:13Z</time>
        <extensions>
          <gpxtpx:TrackPointExtension xmlns:gpxtpx="http://www.garmin.com/xmlschemas/TrackPointExtension/v1">
            <gpxtpx:hr>166</gpxtpx:hr>
          </gpxtpx:TrackPointExtension>
        </extensions>
      </trkpt>
      <trkpt lat="36.79295" lon="28.13999">
        <ele>19.1</ele>
        <time>2018-05-13T07:22:12Z</time>
        <extensions>
          <gpxtpx:TrackPointExtension xmlns:gpxtpx="http://www.garmin.com/xmlschemas/TrackPointExtension/v1">
            <gpxtpx:hr>166</gpxtpx:hr>
          </gpxtpx:TrackPointExtension>
        </extensions>
      </trkpt>
      <trkpt lat="36.79296" lon="28.14003">
        <ele>18.9</ele>
        <time>2018-05-13T07:22:11Z</time>
        <extensions>
          <gpxtpx:TrackPointExtension xmlns:gpxtpx="http://www.garmin.com/xmlschemas/TrackPointExtension/v1">
            <gpxtpx:hr>166</gpxtpx:hr>
          </gpxtpx:TrackPointExtension>
        </extensions>
      </trkpt>
      <trkpt lat="36.79297" lon="28.14006">
        <ele>18.7</ele>
        <time>2018-05-13T07:22:10Z</time>
        <extensions>
          <gpxtpx:TrackPointExtension xmlns:gpxtpx="http://www.garmin.com/xmlschemas/TrackPointExtension/v1">
            <gpxtpx:hr>166</gpxtpx:hr>
          </gpxtpx:TrackPointExtension>
        </extensions>
      </trkpt>
      <trkpt lat="36.79299" lon="28.14009">
        <ele>18.5</ele>
        <time>2018-05-13T07:22:09Z</time>
        <extensions>
          <gpxtpx:TrackPointExtension xmlns:gpxtpx="http://www.garmin.com/xmlschemas/TrackPointExtension/v1">
            <gpxtpx:hr>166</gpxtpx:hr>
          </gpxtpx:TrackPointExtension>
        </extensions>
      </trkpt>
      <trkpt lat="36.793" lon="28.14013">
        <ele>18.3</ele>
        <time>2018-05-13T07:22:08Z</time>
        <extensions>
          <gpxtpx:TrackPointExtension xmlns:gpxtpx="http://www.garmin.com/xmlschemas/TrackPointExtension/v1">
            <gpxtpx:hr>166</gpxtpx:hr>
          </gpxtpx:TrackPointExtension>
        </extensions>
      </trkpt>
      <trkpt lat="36.79301" lon="28.14017">
        <ele>18.1</ele>
        <time>2018-05-13T07:22:07Z</time>
        <extensions>
          <gpxtpx:TrackPointExtension xmlns:gpxtpx="http://www.garmin.com/xmlschemas/TrackPointExtension/v1">
            <gpxtpx:hr>166</gpxtpx:hr>
          </gpxtpx:TrackPointExtension>
        </extensions>
      </trkpt>
      <trkpt lat="36.79302" lon="28.14021">
        <ele>17.9</ele>
        <time>2018-05-13T07:22:06Z</time>
        <extensions>
          <gpxtpx:TrackPointExtension xmlns:gpxtpx="http://www.garmin.com/xmlschemas/TrackPointExtension/v1">
            <gpxtpx:hr>166</gpxtpx:hr>
          </gpxtpx:TrackPointExtension>
        </extensions>
      </trkpt>
      <trkpt lat="36.79303" lon="28.14025">
        <ele>17.7</ele>
        <time>2018-05-13T07:22:05Z</time>
        <extensions>
          <gpxtpx:TrackPointExtension xmlns:gpxtpx="http://www.garmin.com/xmlschemas/TrackPointExtension/v1">
            <gpxtpx:hr>166</gpxtpx:hr>
          </gpxtpx:TrackPointExtension>
        </extensions>
      </trkpt>
      <trkpt lat="36.79305" lon="28.14029">
        <ele>17.5</ele>
        <time>2018-05-13T07:22:04Z</time>
        <extensions>
          <gpxtpx:TrackPointExtension xmlns:gpxtpx="http://www.garmin.com/xmlschemas/TrackPointExtension/v1">
            <gpxtpx:hr>166</gpxtpx:hr>
          </gpxtpx:TrackPointExtension>
        </extensions>
      </trkpt>
      <trkpt lat="36.79306" lon="28.14032">
        <ele>17.4</ele>
        <time>2018-05-13T07:22:03Z</time>
        <extensions>
          <gpxtpx:TrackPointExtension xmlns:gpxtpx="http://www.garmin.com/xmlschemas/TrackPointExtension/v1">
            <gpxtpx:hr>166</gpxtpx:hr>
          </gpxtpx:TrackPointExtension>
        </extensions>
      </trkpt>
      <trkpt lat="36.79307" lon="28.14035">
        <ele>17.3</ele>
        <time>2018-05-13T07:22:02Z</time>
        <extensions>
          <gpxtpx:TrackPointExtension xmlns:gpxtpx="http://www.garmin.com/xmlschemas/TrackPointExtension/v1">
            <gpxtpx:hr>166</gpxtpx:hr>
          </gpxtpx:TrackPointExtension>
        </extensions>
      </trkpt>
      <trkpt lat="36.79309" lon="28.14039">
        <ele>17.1</ele>
        <time>2018-05-13T07:22:01Z</time>
        <extensions>
          <gpxtpx:TrackPointExtension xmlns:gpxtpx="http://www.garmin.com/xmlschemas/TrackPointExtension/v1">
            <gpxtpx:hr>166</gpxtpx:hr>
          </gpxtpx:TrackPointExtension>
        </extensions>
      </trkpt>
      <trkpt lat="36.7931" lon="28.14042">
        <ele>17</ele>
        <time>2018-05-13T07:22:00Z</time>
        <extensions>
          <gpxtpx:TrackPointExtension xmlns:gpxtpx="http://www.garmin.com/xmlschemas/TrackPointExtension/v1">
            <gpxtpx:hr>166</gpxtpx:hr>
          </gpxtpx:TrackPointExtension>
        </extensions>
      </trkpt>
      <trkpt lat="36.79311" lon="28.14046">
        <ele>16.9</ele>
        <time>2018-05-13T07:21:59Z</time>
        <extensions>
          <gpxtpx:TrackPointExtension xmlns:gpxtpx="http://www.garmin.com/xmlschemas/TrackPointExtension/v1">
            <gpxtpx:hr>166</gpxtpx:hr>
          </gpxtpx:TrackPointExtension>
        </extensions>
      </trkpt>
      <trkpt lat="36.79313" lon="28.14049">
        <ele>16.8</ele>
        <time>2018-05-13T07:21:58Z</time>
        <extensions>
          <gpxtpx:TrackPointExtension xmlns:gpxtpx="http://www.garmin.com/xmlschemas/TrackPointExtension/v1">
            <gpxtpx:hr>166</gpxtpx:hr>
          </gpxtpx:TrackPointExtension>
        </extensions>
      </trkpt>
      <trkpt lat="36.79314" lon="28.14052">
        <ele>16.6</ele>
        <time>2018-05-13T07:21:57Z</time>
        <extensions>
          <gpxtpx:TrackPointExtension xmlns:gpxtpx="http://www.garmin.com/xmlschemas/TrackPointExtension/v1">
            <gpxtpx:hr>166</gpxtpx:hr>
          </gpxtpx:TrackPointExtension>
        </extensions>
      </trkpt>
      <trkpt lat="36.79315" lon="28.14055">
        <ele>16.5</ele>
        <time>2018-05-13T07:21:56Z</time>
        <extensions>
          <gpxtpx:TrackPointExtension xmlns:gpxtpx="http://www.garmin.com/xmlschemas/TrackPointExtension/v1">
            <gpxtpx:hr>166</gpxtpx:hr>
          </gpxtpx:TrackPointExtension>
        </extensions>
      </trkpt>
      <trkpt lat="36.79318" lon="28.14061">
        <ele>16.3</ele>
        <time>2018-05-13T07:21:54Z</time>
        <extensions>
          <gpxtpx:TrackPointExtension xmlns:gpxtpx="http://www.garmin.com/xmlschemas/TrackPointExtension/v1">
            <gpxtpx:hr>166</gpxtpx:hr>
          </gpxtpx:TrackPointExtension>
        </extensions>
      </trkpt>
      <trkpt lat="36.7932" lon="28.14066">
        <ele>16.1</ele>
        <time>2018-05-13T07:21:52Z</time>
        <extensions>
          <gpxtpx:TrackPointExtension xmlns:gpxtpx="http://www.garmin.com/xmlschemas/TrackPointExtension/v1">
            <gpxtpx:hr>166</gpxtpx:hr>
          </gpxtpx:TrackPointExtension>
        </extensions>
      </trkpt>
      <trkpt lat="36.79323" lon="28.14072">
        <ele>16</ele>
        <time>2018-05-13T07:21:50Z</time>
        <extensions>
          <gpxtpx:TrackPointExtension xmlns:gpxtpx="http://www.garmin.com/xmlschemas/TrackPointExtension/v1">
            <gpxtpx:hr>166</gpxtpx:hr>
          </gpxtpx:TrackPointExtension>
        </extensions>
      </trkpt>
      <trkpt lat="36.79324" lon="28.14075">
        <ele>15.9</ele>
        <time>2018-05-13T07:21:49Z</time>
        <extensions>
          <gpxtpx:TrackPointExtension xmlns:gpxtpx="http://www.garmin.com/xmlschemas/TrackPointExtension/v1">
            <gpxtpx:hr>166</gpxtpx:hr>
          </gpxtpx:TrackPointExtension>
        </extensions>
      </trkpt>
      <trkpt lat="36.79325" lon="28.14079">
        <ele>15.8</ele>
        <time>2018-05-13T07:21:48Z</time>
        <extensions>
          <gpxtpx:TrackPointExtension xmlns:gpxtpx="http://www.garmin.com/xmlschemas/TrackPointExtension/v1">
            <gpxtpx:hr>166</gpxtpx:hr>
          </gpxtpx:TrackPointExtension>
        </extensions>
      </trkpt>
      <trkpt lat="36.79326" lon="28.14082">
        <ele>15.7</ele>
        <time>2018-05-13T07:21:47Z</time>
        <extensions>
          <gpxtpx:TrackPointExtension xmlns:gpxtpx="http://www.garmin.com/xmlschemas/TrackPointExtension/v1">
            <gpxtpx:hr>166</gpxtpx:hr>
          </gpxtpx:TrackPointExtension>
        </extensions>
      </trkpt>
      <trkpt lat="36.79328" lon="28.14086">
        <ele>15.6</ele>
        <time>2018-05-13T07:21:46Z</time>
        <extensions>
          <gpxtpx:TrackPointExtension xmlns:gpxtpx="http://www.garmin.com/xmlschemas/TrackPointExtension/v1">
            <gpxtpx:hr>166</gpxtpx:hr>
          </gpxtpx:TrackPointExtension>
        </extensions>
      </trkpt>
      <trkpt lat="36.79329" lon="28.14089">
        <ele>15.5</ele>
        <time>2018-05-13T07:21:45Z</time>
        <extensions>
          <gpxtpx:TrackPointExtension xmlns:gpxtpx="http://www.garmin.com/xmlschemas/TrackPointExtension/v1">
            <gpxtpx:hr>166</gpxtpx:hr>
          </gpxtpx:TrackPointExtension>
        </extensions>
      </trkpt>
      <trkpt lat="36.7933" lon="28.14093">
        <ele>15.4</ele>
        <time>2018-05-13T07:21:44Z</time>
        <extensions>
          <gpxtpx:TrackPointExtension xmlns:gpxtpx="http://www.garmin.com/xmlschemas/TrackPointExtension/v1">
            <gpxtpx:hr>166</gpxtpx:hr>
          </gpxtpx:TrackPointExtension>
        </extensions>
      </trkpt>
      <trkpt lat="36.79331" lon="28.14096">
        <ele>15.3</ele>
        <time>2018-05-13T07:21:43Z</time>
        <extensions>
          <gpxtpx:TrackPointExtension xmlns:gpxtpx="http://www.garmin.com/xmlschemas/TrackPointExtension/v1">
            <gpxtpx:hr>166</gpxtpx:hr>
          </gpxtpx:TrackPointExtension>
        </extensions>
      </trkpt>
      <trkpt lat="36.79332" lon="28.14099">
        <ele>15.3</ele>
        <time>2018-05-13T07:21:42Z</time>
        <extensions>
          <gpxtpx:TrackPointExtension xmlns:gpxtpx="http://www.garmin.com/xmlschemas/TrackPointExtension/v1">
            <gpxtpx:hr>166</gpxtpx:hr>
          </gpxtpx:TrackPointExtension>
        </extensions>
      </trkpt>
      <trkpt lat="36.79335" lon="28.14105">
        <ele>15.2</ele>
        <time>2018-05-13T07:21:40Z</time>
        <extensions>
          <gpxtpx:TrackPointExtension xmlns:gpxtpx="http://www.garmin.com/xmlschemas/TrackPointExtension/v1">
            <gpxtpx:hr>166</gpxtpx:hr>
          </gpxtpx:TrackPointExtension>
        </extensions>
      </trkpt>
      <trkpt lat="36.79337" lon="28.14111">
        <ele>15</ele>
        <time>2018-05-13T07:21:38Z</time>
        <extensions>
          <gpxtpx:TrackPointExtension xmlns:gpxtpx="http://www.garmin.com/xmlschemas/TrackPointExtension/v1">
            <gpxtpx:hr>166</gpxtpx:hr>
          </gpxtpx:TrackPointExtension>
        </extensions>
      </trkpt>
      <trkpt lat="36.79339" lon="28.14117">
        <ele>15.1</ele>
        <time>2018-05-13T07:21:36Z</time>
        <extensions>
          <gpxtpx:TrackPointExtension xmlns:gpxtpx="http://www.garmin.com/xmlschemas/TrackPointExtension/v1">
            <gpxtpx:hr>166</gpxtpx:hr>
          </gpxtpx:TrackPointExtension>
        </extensions>
      </trkpt>
      <trkpt lat="36.79341" lon="28.14123">
        <ele>15.2</ele>
        <time>2018-05-13T07:21:34Z</time>
        <extensions>
          <gpxtpx:TrackPointExtension xmlns:gpxtpx="http://www.garmin.com/xmlschemas/TrackPointExtension/v1">
            <gpxtpx:hr>166</gpxtpx:hr>
          </gpxtpx:TrackPointExtension>
        </extensions>
      </trkpt>
      <trkpt lat="36.79344" lon="28.14128">
        <ele>15.3</ele>
        <time>2018-05-13T07:21:32Z</time>
        <extensions>
          <gpxtpx:TrackPointExtension xmlns:gpxtpx="http://www.garmin.com/xmlschemas/TrackPointExtension/v1">
            <gpxtpx:hr>166</gpxtpx:hr>
          </gpxtpx:TrackPointExtension>
        </extensions>
      </trkpt>
      <trkpt lat="36.79345" lon="28.14131">
        <ele>15.4</ele>
        <time>2018-05-13T07:21:31Z</time>
        <extensions>
          <gpxtpx:TrackPointExtension xmlns:gpxtpx="http://www.garmin.com/xmlschemas/TrackPointExtension/v1">
            <gpxtpx:hr>166</gpxtpx:hr>
          </gpxtpx:TrackPointExtension>
        </extensions>
      </trkpt>
      <trkpt lat="36.79346" lon="28.14134">
        <ele>15.4</ele>
        <time>2018-05-13T07:21:30Z</time>
        <extensions>
          <gpxtpx:TrackPointExtension xmlns:gpxtpx="http://www.garmin.com/xmlschemas/TrackPointExtension/v1">
            <gpxtpx:hr>166</gpxtpx:hr>
          </gpxtpx:TrackPointExtension>
        </extensions>
      </trkpt>
      <trkpt lat="36.79348" lon="28.14137">
        <ele>15.5</ele>
        <time>2018-05-13T07:21:29Z</time>
        <extensions>
          <gpxtpx:TrackPointExtension xmlns:gpxtpx="http://www.garmin.com/xmlschemas/TrackPointExtension/v1">
            <gpxtpx:hr>166</gpxtpx:hr>
          </gpxtpx:TrackPointExtension>
        </extensions>
      </trkpt>
      <trkpt lat="36.79351" lon="28.14143">
        <ele>15.6</ele>
        <time>2018-05-13T07:21:27Z</time>
        <extensions>
          <gpxtpx:TrackPointExtension xmlns:gpxtpx="http://www.garmin.com/xmlschemas/TrackPointExtension/v1">
            <gpxtpx:hr>166</gpxtpx:hr>
          </gpxtpx:TrackPointExtension>
        </extensions>
      </trkpt>
      <trkpt lat="36.79364" lon="28.14183">
        <ele>17.4</ele>
      </trkpt>
      <trkpt lat="36.79363" lon="28.14181">
        <ele>17.3</ele>
      </trkpt>
      <trkpt lat="36.79337" lon="28.14194">
        <ele>17.9</ele>
      </trkpt>
      <trkpt lat="36.79299" lon="28.14215">
        <ele>18.9</ele>
      </trkpt>
      <trkpt lat="36.79277" lon="28.14226">
        <ele>19.3</ele>
      </trkpt>
      <trkpt lat="36.7924" lon="28.14243">
        <ele>20.2</ele>
      </trkpt>
      <trkpt lat="36.79212" lon="28.14256">
        <ele>22.5</ele>
      </trkpt>
      <trkpt lat="36.79184" lon="28.14271">
        <ele>27</ele>
      </trkpt>
      <trkpt lat="36.79161" lon="28.14279">
        <ele>30.2</ele>
      </trkpt>
      <trkpt lat="36.79141" lon="28.14297">
        <ele>34.3</ele>
      </trkpt>
      <trkpt lat="36.79098" lon="28.14349">
        <ele>42</ele>
      </trkpt>
      <trkpt lat="36.79085" lon="28.14374">
        <ele>48.9</ele>
      </trkpt>
      <trkpt lat="36.79077" lon="28.14386">
        <ele>52.6</ele>
      </trkpt>
      <trkpt lat="36.79069" lon="28.14397">
        <ele>55.6</ele>
      </trkpt>
      <trkpt lat="36.7905" lon="28.14437">
        <ele>63.4</ele>
      </trkpt>
      <trkpt lat="36.79035" lon="28.14468">
        <ele>65.7</ele>
      </trkpt>
      <trkpt lat="36.79028" lon="28.14481">
        <ele>65.5</ele>
      </trkpt>
      <trkpt lat="36.79022" lon="28.14496">
        <ele>65.2</ele>
      </trkpt>
      <trkpt lat="36.79011" lon="28.14533">
        <ele>67.1</ele>
      </trkpt>
      <trkpt lat="36.78998" lon="28.14585">
        <ele>70.6</ele>
      </trkpt>
      <trkpt lat="36.78996" lon="28.14594">
        <ele>71.7</ele>
      </trkpt>
      <trkpt lat="36.78996" lon="28.14634">
        <ele>74.8</ele>
      </trkpt>
      <trkpt lat="36.78991" lon="28.1468">
        <ele>79.1</ele>
      </trkpt>
      <trkpt lat="36.78992" lon="28.14705">
        <ele>81.4</ele>
      </trkpt>
      <trkpt lat="36.78992" lon="28.14731">
        <ele>84</ele>
      </trkpt>
      <trkpt lat="36.7898" lon="28.14759">
        <ele>88.3</ele>
      </trkpt>
      <trkpt lat="36.78975" lon="28.14797">
        <ele>94.3</ele>
      </trkpt>
      <trkpt lat="36.78955" lon="28.14794">
        <ele>94.7</ele>
      </trkpt>
      <trkpt lat="36.78956" lon="28.14781">
        <ele>93</ele>
      </trkpt>
      <trkpt lat="36.78958" lon="28.1476">
        <ele>90.3</ele>
      </trkpt>
      <trkpt lat="36.78955" lon="28.14751">
        <ele>89.5</ele>
      </trkpt>
      <trkpt lat="36.78945" lon="28.14724">
        <ele>87.8</ele>
      </trkpt>
      <trkpt lat="36.78923" lon="28.14713">
        <ele>88.8</ele>
      </trkpt>
      <trkpt lat="36.78912" lon="28.14686">
        <ele>89.7</ele>
      </trkpt>
      <trkpt lat="36.78901" lon="28.14652">
        <ele>94.7</ele>
      </trkpt>
      <trkpt lat="36.78897" lon="28.14623">
        <ele>97.4</ele>
      </trkpt>
      <trkpt lat="36.78909" lon="28.14589">
        <ele>90.2</ele>
      </trkpt>
      <trkpt lat="36.78917" lon="28.14577">
        <ele>86.2</ele>
      </trkpt>
      <trkpt lat="36.78912" lon="28.14553">
        <ele>90.3</ele>
      </trkpt>
      <trkpt lat="36.78907" lon="28.14522">
        <ele>94.7</ele>
      </trkpt>
      <trkpt lat="36.7891" lon="28.14505">
        <ele>93.5</ele>
      </trkpt>
      <trkpt lat="36.78911" lon="28.14455">
        <ele>94.8</ele>
      </trkpt>
      <trkpt lat="36.78918" lon="28.14434">
        <ele>92.7</ele>
      </trkpt>
      <trkpt lat="36.78916" lon="28.14413">
        <ele>94.2</ele>
      </trkpt>
      <trkpt lat="36.78915" lon="28.14405">
        <ele>94.7</ele>
      </trkpt>
      <trkpt lat="36.78899" lon="28.14394">
        <ele>101.2</ele>
      </trkpt>
      <trkpt lat="36.78874" lon="28.14387">
        <ele>112.1</ele>
      </trkpt>
      <trkpt lat="36.78873" lon="28.14383">
        <ele>112.7</ele>
      </trkpt>
      <trkpt lat="36.78887" lon="28.14363">
        <ele>106.2</ele>
      </trkpt>
      <trkpt lat="36.7889" lon="28.14342">
        <ele>104.5</ele>
      </trkpt>
      <trkpt lat="36.78889" lon="28.14338">
        <ele>104.9</ele>
      </trkpt>
      <trkpt lat="36.78888" lon="28.14312">
        <ele>104.4</ele>
      </trkpt>
      <trkpt lat="36.78899" lon="28.14271">
        <ele>98</ele>
      </trkpt>
      <trkpt lat="36.7889" lon="28.14239">
        <ele>98.7</ele>
      </trkpt>
      <trkpt lat="36.7888" lon="28.14225">
        <ele>99.1</ele>
      </trkpt>
      <trkpt lat="36.78865" lon="28.14227">
        <ele>104.1</ele>
      </trkpt>
      <trkpt lat="36.78849" lon="28.14225">
        <ele>108.8</ele>
      </trkpt>
      <trkpt lat="36.78832" lon="28.14216">
        <ele>111</ele>
      </trkpt>
      <trkpt lat="36.78814" lon="28.14219">
        <ele>112.8</ele>
      </trkpt>
      <trkpt lat="36.78799" lon="28.14228">
        <ele>115.7</ele>
      </trkpt>
      <trkpt lat="36.78787" lon="28.1424">
        <ele>118.4</ele>
      </trkpt>
      <trkpt lat="36.78777" lon="28.14248">
        <ele>120</ele>
      </trkpt>
      <trkpt lat="36.78771" lon="28.14254">
        <ele>121.1</ele>
      </trkpt>
      <trkpt lat="36.78758" lon="28.14253">
        <ele>120.8</ele>
      </trkpt>
      <trkpt lat="36.78757" lon="28.1425">
        <ele>120.1</ele>
      </trkpt>
      <trkpt lat="36.78748" lon="28.14231">
        <ele>118.3</ele>
      </trkpt>
      <trkpt lat="36.78736" lon="28.14219">
        <ele>118.8</ele>
      </trkpt>
      <trkpt lat="36.78727" lon="28.14214">
        <ele>119.7</ele>
      </trkpt>
      <trkpt lat="36.78702" lon="28.14215">
        <ele>123.6</ele>
      </trkpt>
      <trkpt lat="36.78696" lon="28.14216">
        <ele>124.8</ele>
      </trkpt>
      <trkpt lat="36.78678" lon="28.14196">
        <ele>124.3</ele>
      </trkpt>
      <trkpt lat="36.78664" lon="28.14186">
        <ele>124.6</ele>
      </trkpt>
      <trkpt lat="36.78649" lon="28.14184">
        <ele>125.6</ele>
      </trkpt>
      <trkpt lat="36.78645" lon="28.14179">
        <ele>125.2</ele>
      </trkpt>
      <trkpt lat="36.78623" lon="28.14168">
        <ele>125</ele>
      </trkpt>
      <trkpt lat="36.78609" lon="28.14166">
        <ele>126</ele>
      </trkpt>
      <trkpt lat="36.78586" lon="28.14177">
        <ele>130.2</ele>
      </trkpt>
      <trkpt lat="36.78575" lon="28.14185">
        <ele>131.8</ele>
      </trkpt>
      <trkpt lat="36.78553" lon="28.14179">
        <ele>128.6</ele>
      </trkpt>
      <trkpt lat="36.78516" lon="28.14164">
        <ele>123.8</ele>
      </trkpt>
      <trkpt lat="36.78514" lon="28.14168">
        <ele>123.2</ele>
      </trkpt>
      <trkpt lat="36.78509" lon="28.14178">
        <ele>124.9</ele>
      </trkpt>
      <trkpt lat="36.78506" lon="28.14183">
        <ele>125.6</ele>
      </trkpt>
      <trkpt lat="36.78481" lon="28.14195">
        <ele>126</ele>
      </trkpt>
      <trkpt lat="36.7844" lon="28.14179">
        <ele>120.9</ele>
      </trkpt>
      <trkpt lat="36.78412" lon="28.14163">
        <ele>119.2</ele>
      </trkpt>
      <trkpt lat="36.78376" lon="28.1414">
        <ele>125.9</ele>
      </trkpt>
      <trkpt lat="36.78343" lon="28.1412">
        <ele>128.3</ele>
      </trkpt>
      <trkpt lat="36.78339" lon="28.14117">
        <ele>128.3</ele>
      </trkpt>
      <trkpt lat="36.78323" lon="28.14114">
        <ele>129.1</ele>
      </trkpt>
      <trkpt lat="36.78326" lon="28.14114">
        <ele>128.9</ele>
      </trkpt>
      <trkpt lat="36.78317" lon="28.14112">
        <ele>129.3</ele>
      </trkpt>
      <trkpt lat="36.78282" lon="28.14109">
        <ele>131.9</ele>
      </trkpt>
      <trkpt lat="36.78254" lon="28.14115">
        <ele>134.7</ele>
      </trkpt>
      <trkpt lat="36.78231" lon="28.14121">
        <ele>134.4</ele>
      </trkpt>
      <trkpt lat="36.78223" lon="28.14122">
        <ele>133.9</ele>
      </trkpt>
      <trkpt lat="36.78177" lon="28.1413">
        <ele>130.5</ele>
      </trkpt>
      <trkpt lat="36.78153" lon="28.14136">
        <ele>129.1</ele>
      </trkpt>
      <trkpt lat="36.78119" lon="28.14138">
        <ele>128.8</ele>
      </trkpt>
      <trkpt lat="36.78104" lon="28.1416">
        <ele>127.4</ele>
      </trkpt>
      <trkpt lat="36.78069" lon="28.14167">
        <ele>128.2</ele>
      </trkpt>
      <trkpt lat="36.7806" lon="28.14171">
        <ele>129.4</ele>
      </trkpt>
      <trkpt lat="36.78047" lon="28.1418">
        <ele>131.5</ele>
      </trkpt>
      <trkpt lat="36.78044" lon="28.14189">
        <ele>132.7</ele>
      </trkpt>
      <trkpt lat="36.78043" lon="28.14189">
        <ele>132.8</ele>
      </trkpt>
      <trkpt lat="36.78043" lon="28.14189">
        <ele>132.8</ele>
      </trkpt>
      <trkpt lat="36.78047" lon="28.14203">
        <ele>133.9</ele>
      </trkpt>
      <trkpt lat="36.7805" lon="28.14213">
        <ele>134.7</ele>
      </trkpt>
      <trkpt lat="36.78051" lon="28.1422">
        <ele>135.4</ele>
      </trkpt>
      <trkpt lat="36.78051" lon="28.14238">
        <ele>137.2</ele>
      </trkpt>
      <trkpt lat="36.7805" lon="28.14256">
        <ele>138.9</ele>
      </trkpt>
      <trkpt lat="36.78049" lon="28.14272">
        <ele>139.8</ele>
      </trkpt>
      <trkpt lat="36.78051" lon="28.14276">
        <ele>139.7</ele>
      </trkpt>
      <trkpt lat="36.7805" lon="28.14289">
        <ele>140.5</ele>
      </trkpt>
      <trkpt lat="36.78049" lon="28.14297">
        <ele>141.2</ele>
      </trkpt>
      <trkpt lat="36.78049" lon="28.14314">
        <ele>141.9</ele>
      </trkpt>
      <trkpt lat="36.78053" lon="28.14317">
        <ele>141.6</ele>
      </trkpt>
      <trkpt lat="36.78058" lon="28.14331">
        <ele>141.5</ele>
      </trkpt>
      <trkpt lat="36.78065" lon="28.1434">
        <ele>141.1</ele>
      </trkpt>
      <trkpt lat="36.7807" lon="28.14344">
        <ele>140.8</ele>
      </trkpt>
      <trkpt lat="36.7807" lon="28.14346">
        <ele>140.9</ele>
      </trkpt>
      <trkpt lat="36.78069" lon="28.14359">
        <ele>142</ele>
      </trkpt>
      <trkpt lat="36.78072" lon="28.14366">
        <ele>142.1</ele>
      </trkpt>
      <trkpt lat="36.78064" lon="28.14372">
        <ele>143.8</ele>
      </trkpt>
      <trkpt lat="36.78063" lon="28.1438">
        <ele>144.7</ele>
      </trkpt>
      <trkpt lat="36.78065" lon="28.14388">
        <ele>145</ele>
      </trkpt>
      <trkpt lat="36.78065" lon="28.14398">
        <ele>145.8</ele>
      </trkpt>
      <trkpt lat="36.78066" lon="28.14408">
        <ele>146.4</ele>
      </trkpt>
      <trkpt lat="36.78067" lon="28.14414">
        <ele>146.8</ele>
      </trkpt>
      <trkpt lat="36.78071" lon="28.14421">
        <ele>146.5</ele>
      </trkpt>
      <trkpt lat="36.7808" lon="28.1443">
        <ele>145.7</ele>
      </trkpt>
      <trkpt lat="36.78085" lon="28.14439">
        <ele>146.1</ele>
      </trkpt>
      <trkpt lat="36.78087" lon="28.14443">
        <ele>146.7</ele>
      </trkpt>
      <trkpt lat="36.78094" lon="28.14455">
        <ele>148.5</ele>
      </trkpt>
      <trkpt lat="36.78097" lon="28.14466">
        <ele>149.8</ele>
      </trkpt>
      <trkpt lat="36.78099" lon="28.14469">
        <ele>150.3</ele>
      </trkpt>
      <trkpt lat="36.78098" lon="28.14471">
        <ele>150.4</ele>
      </trkpt>
      <trkpt lat="36.78099" lon="28.1448">
        <ele>151.2</ele>
      </trkpt>
      <trkpt lat="36.78105" lon="28.1449">
        <ele>152.7</ele>
      </trkpt>
      <trkpt lat="36.78108" lon="28.14493">
        <ele>153.4</ele>
      </trkpt>
      <trkpt lat="36.78117" lon="28.14505">
        <ele>155.6</ele>
      </trkpt>
      <trkpt lat="36.78127" lon="28.14512">
        <ele>157.3</ele>
      </trkpt>
      <trkpt lat="36.78129" lon="28.14521">
        <ele>158.3</ele>
      </trkpt>
      <trkpt lat="36.78128" lon="28.14524">
        <ele>158.5</ele>
      </trkpt>
      <trkpt lat="36.7813" lon="28.14529">
        <ele>159.1</ele>
      </trkpt>
      <trkpt lat="36.78139" lon="28.14538">
        <ele>159.9</ele>
      </trkpt>
      <trkpt lat="36.78139" lon="28.14539">
        <ele>160</ele>
      </trkpt>
      <trkpt lat="36.78142" lon="28.14555">
        <ele>160.9</ele>
      </trkpt>
      <trkpt lat="36.78155" lon="28.14557">
        <ele>160.6</ele>
      </trkpt>
      <trkpt lat="36.78161" lon="28.14568">
        <ele>160.5</ele>
      </trkpt>
      <trkpt lat="36.78164" lon="28.14577">
        <ele>160.3</ele>
      </trkpt>
      <trkpt lat="36.78164" lon="28.14585">
        <ele>160.6</ele>
      </trkpt>
      <trkpt lat="36.78165" lon="28.14592">
        <ele>161.9</ele>
      </trkpt>
      <trkpt lat="36.78169" lon="28.14602">
        <ele>164.5</ele>
      </trkpt>
      <trkpt lat="36.7817" lon="28.14604">
        <ele>165.4</ele>
      </trkpt>
      <trkpt lat="36.7818" lon="28.14602">
        <ele>168.3</ele>
      </trkpt>
      <trkpt lat="36.78188" lon="28.14605">
        <ele>171.8</ele>
      </trkpt>
      <trkpt lat="36.78196" lon="28.14613">
        <ele>175.4</ele>
      </trkpt>
      <trkpt lat="36.78204" lon="28.14626">
        <ele>178.8</ele>
      </trkpt>
      <trkpt lat="36.78205" lon="28.1463">
        <ele>179.4</ele>
      </trkpt>
      <trkpt lat="36.78208" lon="28.14636">
        <ele>180.5</ele>
      </trkpt>
      <trkpt lat="36.78209" lon="28.1464">
        <ele>180.9</ele>
      </trkpt>
      <trkpt lat="36.78209" lon="28.14645">
        <ele>181.4</ele>
      </trkpt>
      <trkpt lat="36.78209" lon="28.14655">
        <ele>182</ele>
      </trkpt>
      <trkpt lat="36.7821" lon="28.14658">
        <ele>182.2</ele>
      </trkpt>
      <trkpt lat="36.78218" lon="28.14671">
        <ele>184.5</ele>
      </trkpt>
      <trkpt lat="36.78221" lon="28.14676">
        <ele>185.5</ele>
      </trkpt>
      <trkpt lat="36.78224" lon="28.1468">
        <ele>186.3</ele>
      </trkpt>
      <trkpt lat="36.78224" lon="28.14685">
        <ele>187.1</ele>
      </trkpt>
      <trkpt lat="36.78231" lon="28.14696">
        <ele>188.8</ele>
      </trkpt>
      <trkpt lat="36.78231" lon="28.14707">
        <ele>190</ele>
      </trkpt>
      <trkpt lat="36.78235" lon="28.14714">
        <ele>190.6</ele>
      </trkpt>
      <trkpt lat="36.78232" lon="28.14727">
        <ele>192.1</ele>
      </trkpt>
      <trkpt lat="36.78235" lon="28.14731">
        <ele>192.3</ele>
      </trkpt>
      <trkpt lat="36.78238" lon="28.14737">
        <ele>192.6</ele>
      </trkpt>
      <trkpt lat="36.78238" lon="28.14739">
        <ele>192.8</ele>
      </trkpt>
      <trkpt lat="36.7824" lon="28.1475">
        <ele>193.4</ele>
      </trkpt>
      <trkpt lat="36.78242" lon="28.14763">
        <ele>196</ele>
      </trkpt>
      <trkpt lat="36.78246" lon="28.14772">
        <ele>197.6</ele>
      </trkpt>
      <trkpt lat="36.78247" lon="28.14774">
        <ele>198</ele>
      </trkpt>
      <trkpt lat="36.78245" lon="28.14786">
        <ele>201</ele>
      </trkpt>
      <trkpt lat="36.78241" lon="28.14796">
        <ele>204</ele>
      </trkpt>
      <trkpt lat="36.78242" lon="28.14809">
        <ele>206.8</ele>
      </trkpt>
      <trkpt lat="36.78242" lon="28.14816">
        <ele>208.3</ele>
      </trkpt>
      <trkpt lat="36.78235" lon="28.14831">
        <ele>212.7</ele>
      </trkpt>
      <trkpt lat="36.78237" lon="28.14837">
        <ele>213.5</ele>
      </trkpt>
      <trkpt lat="36.7824" lon="28.14845">
        <ele>214.1</ele>
      </trkpt>
      <trkpt lat="36.7824" lon="28.14852">
        <ele>215</ele>
      </trkpt>
      <trkpt lat="36.78236" lon="28.14866">
        <ele>217.3</ele>
      </trkpt>
      <trkpt lat="36.78235" lon="28.1488">
        <ele>219.2</ele>
      </trkpt>
      <trkpt lat="36.78237" lon="28.14895">
        <ele>220.9</ele>
      </trkpt>
      <trkpt lat="36.78243" lon="28.14909">
        <ele>222.2</ele>
      </trkpt>
      <trkpt lat="36.78246" lon="28.14925">
        <ele>224.5</ele>
      </trkpt>
      <trkpt lat="36.78245" lon="28.14933">
        <ele>226</ele>
      </trkpt>
      <trkpt lat="36.78244" lon="28.14951">
        <ele>229.1</ele>
      </trkpt>
      <trkpt lat="36.78241" lon="28.14962">
        <ele>231.2</ele>
      </trkpt>
      <trkpt lat="36.78244" lon="28.1497">
        <ele>232.4</ele>
      </trkpt>
      <trkpt lat="36.7825" lon="28.14974">
        <ele>232.7</ele>
      </trkpt>
      <trkpt lat="36.78249" lon="28.14979">
        <ele>233.6</ele>
      </trkpt>
      <trkpt lat="36.78246" lon="28.14978">
        <ele>233.7</ele>
      </trkpt>
      <trkpt lat="36.78239" lon="28.14987">
        <ele>235.8</ele>
      </trkpt>
      <trkpt lat="36.78243" lon="28.15003">
        <ele>238.1</ele>
      </trkpt>
      <trkpt lat="36.78244" lon="28.15025">
        <ele>241</ele>
      </trkpt>
      <trkpt lat="36.78248" lon="28.15037">
        <ele>241.8</ele>
      </trkpt>
      <trkpt lat="36.78252" lon="28.15046">
        <ele>243.1</ele>
      </trkpt>
      <trkpt lat="36.78253" lon="28.15052">
        <ele>244.4</ele>
      </trkpt>
      <trkpt lat="36.78255" lon="28.15055">
        <ele>245.4</ele>
      </trkpt>
      <trkpt lat="36.78258" lon="28.15048">
        <ele>245.7</ele>
      </trkpt>
      <trkpt lat="36.78265" lon="28.15055">
        <ele>248.9</ele>
      </trkpt>
      <trkpt lat="36.78267" lon="28.15066">
        <ele>250.7</ele>
      </trkpt>
      <trkpt lat="36.78269" lon="28.1507">
        <ele>251.8</ele>
      </trkpt>
      <trkpt lat="36.78273" lon="28.15078">
        <ele>253.8</ele>
      </trkpt>
      <trkpt lat="36.78274" lon="28.15084">
        <ele>254.9</ele>
      </trkpt>
      <trkpt lat="36.78279" lon="28.15087">
        <ele>256.6</ele>
      </trkpt>
      <trkpt lat="36.78283" lon="28.1509">
        <ele>257.8</ele>
      </trkpt>
      <trkpt lat="36.78282" lon="28.15092">
        <ele>257.5</ele>
      </trkpt>
      <trkpt lat="36.78281" lon="28.15102">
        <ele>257.7</ele>
      </trkpt>
      <trkpt lat="36.7828" lon="28.15109">
        <ele>257.6</ele>
      </trkpt>
      <trkpt lat="36.78276" lon="28.15116">
        <ele>256.7</ele>
      </trkpt>
      <trkpt lat="36.78278" lon="28.15118">
        <ele>257.2</ele>
      </trkpt>
      <trkpt lat="36.78278" lon="28.15122">
        <ele>257.5</ele>
      </trkpt>
      <trkpt lat="36.78281" lon="28.15126">
        <ele>258.4</ele>
      </trkpt>
      <trkpt lat="36.78286" lon="28.15132">
        <ele>259.7</ele>
      </trkpt>
      <trkpt lat="36.78291" lon="28.15134">
        <ele>260.9</ele>
      </trkpt>
      <trkpt lat="36.78297" lon="28.15134">
        <ele>262.5</ele>
      </trkpt>
      <trkpt lat="36.78296" lon="28.15136">
        <ele>262.1</ele>
      </trkpt>
      <trkpt lat="36.78297" lon="28.15137">
        <ele>262.3</ele>
      </trkpt>
      <trkpt lat="36.78297" lon="28.15141">
        <ele>262.4</ele>
      </trkpt>
      <trkpt lat="36.78297" lon="28.15139">
        <ele>262.3</ele>
      </trkpt>
      <trkpt lat="36.78299" lon="28.15145">
        <ele>262.7</ele>
      </trkpt>
      <trkpt lat="36.783" lon="28.15146">
        <ele>262.9</ele>
      </trkpt>
      <trkpt lat="36.78295" lon="28.1515">
        <ele>262.1</ele>
      </trkpt>
      <trkpt lat="36.78291" lon="28.15152">
        <ele>261.2</ele>
      </trkpt>
      <trkpt lat="36.78291" lon="28.15152">
        <ele>261.1</ele>
      </trkpt>
      <trkpt lat="36.78293" lon="28.15156">
        <ele>261.7</ele>
      </trkpt>
      <trkpt lat="36.78297" lon="28.15161">
        <ele>262.5</ele>
      </trkpt>
      <trkpt lat="36.78296" lon="28.15164">
        <ele>262.2</ele>
      </trkpt>
      <trkpt lat="36.78301" lon="28.15176">
        <ele>264</ele>
      </trkpt>
      <trkpt lat="36.78302" lon="28.15176">
        <ele>264.1</ele>
      </trkpt>
      <trkpt lat="36.78304" lon="28.15181">
        <ele>264.7</ele>
      </trkpt>
      <trkpt lat="36.78306" lon="28.15189">
        <ele>265.4</ele>
      </trkpt>
      <trkpt lat="36.78306" lon="28.15191">
        <ele>265.6</ele>
      </trkpt>
      <trkpt lat="36.78307" lon="28.15198">
        <ele>266.1</ele>
      </trkpt>
      <trkpt lat="36.78308" lon="28.15201">
        <ele>266.4</ele>
      </trkpt>
      <trkpt lat="36.78311" lon="28.15209">
        <ele>266.9</ele>
      </trkpt>
      <trkpt lat="36.78313" lon="28.1522">
        <ele>267.5</ele>
      </trkpt>
      <trkpt lat="36.78319" lon="28.15229">
        <ele>267.7</ele>
      </trkpt>
      <trkpt lat="36.78322" lon="28.15242">
        <ele>267.9</ele>
      </trkpt>
      <trkpt lat="36.78321" lon="28.15251">
        <ele>268.2</ele>
      </trkpt>
      <trkpt lat="36.7832" lon="28.15262">
        <ele>269.5</ele>
      </trkpt>
      <trkpt lat="36.78325" lon="28.15272">
        <ele>270</ele>
      </trkpt>
      <trkpt lat="36.78326" lon="28.15272">
        <ele>270.1</ele>
      </trkpt>
      <trkpt lat="36.78324" lon="28.1528">
        <ele>271.2</ele>
      </trkpt>
      <trkpt lat="36.78317" lon="28.1528">
        <ele>272.1</ele>
      </trkpt>
      <trkpt lat="36.78317" lon="28.1528">
        <ele>272.1</ele>
      </trkpt>
      <trkpt lat="36.78319" lon="28.15285">
        <ele>272.5</ele>
      </trkpt>
      <trkpt lat="36.78327" lon="28.15293">
        <ele>272.1</ele>
      </trkpt>
      <trkpt lat="36.78329" lon="28.15295">
        <ele>272.1</ele>
      </trkpt>
      <trkpt lat="36.78329" lon="28.15304">
        <ele>272.9</ele>
      </trkpt>
      <trkpt lat="36.78329" lon="28.15309">
        <ele>273.4</ele>
      </trkpt>
      <trkpt lat="36.78332" lon="28.15318">
        <ele>273.9</ele>
      </trkpt>
      <trkpt lat="36.7833" lon="28.15321">
        <ele>274.6</ele>
      </trkpt>
      <trkpt lat="36.78327" lon="28.15332">
        <ele>276.4</ele>
      </trkpt>
      <trkpt lat="36.78325" lon="28.15332">
        <ele>276.7</ele>
      </trkpt>
      <trkpt lat="36.78324" lon="28.1534">
        <ele>278.8</ele>
      </trkpt>
      <trkpt lat="36.78323" lon="28.15345">
        <ele>280.4</ele>
      </trkpt>
      <trkpt lat="36.78331" lon="28.15346">
        <ele>278.6</ele>
      </trkpt>
      <trkpt lat="36.78337" lon="28.15355">
        <ele>280.7</ele>
      </trkpt>
      <trkpt lat="36.78339" lon="28.15356">
        <ele>281.6</ele>
      </trkpt>
      <trkpt lat="36.78342" lon="28.15352">
        <ele>281.1</ele>
      </trkpt>
      <trkpt lat="36.78348" lon="28.15351">
        <ele>281.7</ele>
      </trkpt>
      <trkpt lat="36.78348" lon="28.1535">
        <ele>281.7</ele>
      </trkpt>
      <trkpt lat="36.78348" lon="28.15352">
        <ele>282</ele>
      </trkpt>
      <trkpt lat="36.78349" lon="28.15355">
        <ele>283</ele>
      </trkpt>
      <trkpt lat="36.78342" lon="28.15361">
        <ele>282.9</ele>
      </trkpt>
      <trkpt lat="36.78343" lon="28.15372">
        <ele>285.6</ele>
      </trkpt>
      <trkpt lat="36.78345" lon="28.15377">
        <ele>287</ele>
      </trkpt>
      <trkpt lat="36.78346" lon="28.15386">
        <ele>289.2</ele>
      </trkpt>
      <trkpt lat="36.78345" lon="28.15388">
        <ele>289.4</ele>
      </trkpt>
      <trkpt lat="36.78347" lon="28.15392">
        <ele>290.6</ele>
      </trkpt>
      <trkpt lat="36.78349" lon="28.15392">
        <ele>290.8</ele>
      </trkpt>
      <trkpt lat="36.78349" lon="28.15394">
        <ele>291.2</ele>
      </trkpt>
      <trkpt lat="36.78352" lon="28.15394">
        <ele>291.4</ele>
      </trkpt>
      <trkpt lat="36.78353" lon="28.15403">
        <ele>293.6</ele>
      </trkpt>
      <trkpt lat="36.78364" lon="28.15405">
        <ele>295.1</ele>
      </trkpt>
      <trkpt lat="36.78369" lon="28.15404">
        <ele>295.3</ele>
      </trkpt>
      <trkpt lat="36.78371" lon="28.15407">
        <ele>296</ele>
      </trkpt>
      <trkpt lat="36.78371" lon="28.15419">
        <ele>298.2</ele>
      </trkpt>
      <trkpt lat="36.78371" lon="28.15423">
        <ele>299.2</ele>
      </trkpt>
      <trkpt lat="36.78374" lon="28.15423">
        <ele>299.5</ele>
      </trkpt>
      <trkpt lat="36.78377" lon="28.15423">
        <ele>299.6</ele>
      </trkpt>
      <trkpt lat="36.78382" lon="28.15428">
        <ele>300.9</ele>
      </trkpt>
      <trkpt lat="36.78386" lon="28.15429">
        <ele>301.2</ele>
      </trkpt>
      <trkpt lat="36.78384" lon="28.15441">
        <ele>303.7</ele>
      </trkpt>
      <trkpt lat="36.78389" lon="28.15447">
        <ele>304.7</ele>
      </trkpt>
      <trkpt lat="36.78392" lon="28.15448">
        <ele>304.9</ele>
      </trkpt>
      <trkpt lat="36.78403" lon="28.15462">
        <ele>307</ele>
      </trkpt>
      <trkpt lat="36.78404" lon="28.1547">
        <ele>308.2</ele>
      </trkpt>
      <trkpt lat="36.78411" lon="28.15473">
        <ele>308.2</ele>
      </trkpt>
      <trkpt lat="36.78411" lon="28.15473">
        <ele>308.2</ele>
      </trkpt>
      <trkpt lat="36.78417" lon="28.15467">
        <ele>307</ele>
      </trkpt>
      <trkpt lat="36.78428" lon="28.15464">
        <ele>304.9</ele>
      </trkpt>
      <trkpt lat="36.7842" lon="28.15475">
        <ele>307.4</ele>
      </trkpt>
      <trkpt lat="36.78421" lon="28.15478">
        <ele>307.7</ele>
      </trkpt>
      <trkpt lat="36.7842" lon="28.15474">
        <ele>307.3</ele>
      </trkpt>
      <trkpt lat="36.78419" lon="28.15474">
        <ele>307.5</ele>
      </trkpt>
      <trkpt lat="36.78407" lon="28.15478">
        <ele>309.2</ele>
      </trkpt>
      <trkpt lat="36.78403" lon="28.15478">
        <ele>309.5</ele>
      </trkpt>
      <trkpt lat="36.78397" lon="28.15484">
        <ele>311.1</ele>
      </trkpt>
      <trkpt lat="36.78399" lon="28.15488">
        <ele>311.5</ele>
      </trkpt>
      <trkpt lat="36.78388" lon="28.15476">
        <ele>310.4</ele>
      </trkpt>
      <trkpt lat="36.78376" lon="28.15465">
        <ele>309</ele>
      </trkpt>
      <trkpt lat="36.78365" lon="28.15454">
        <ele>306.7</ele>
      </trkpt>
      <trkpt lat="36.78355" lon="28.15441">
        <ele>303.3</ele>
      </trkpt>
      <trkpt lat="36.78343" lon="28.15429">
        <ele>299.4</ele>
      </trkpt>
      <trkpt lat="36.78331" lon="28.15421">
        <ele>297.1</ele>
      </trkpt>
      <trkpt lat="36.78323" lon="28.15409">
        <ele>296.6</ele>
      </trkpt>
      <trkpt lat="36.78315" lon="28.154">
        <ele>296.8</ele>
      </trkpt>
      <trkpt lat="36.7831" lon="28.1539">
        <ele>295.8</ele>
      </trkpt>
      <trkpt lat="36.783" lon="28.15379">
        <ele>295.8</ele>
      </trkpt>
      <trkpt lat="36.78293" lon="28.15367">
        <ele>294.2</ele>
      </trkpt>
      <trkpt lat="36.78288" lon="28.15353">
        <ele>291.6</ele>
      </trkpt>
      <trkpt lat="36.78277" lon="28.1534">
        <ele>290.1</ele>
      </trkpt>
      <trkpt lat="36.78271" lon="28.15328">
        <ele>288.1</ele>
      </trkpt>
      <trkpt lat="36.78259" lon="28.15319">
        <ele>288.9</ele>
      </trkpt>
      <trkpt lat="36.78246" lon="28.1531">
        <ele>290.1</ele>
      </trkpt>
      <trkpt lat="36.7824" lon="28.15295">
        <ele>289.4</ele>
      </trkpt>
      <trkpt lat="36.78235" lon="28.15282">
        <ele>288.7</ele>
      </trkpt>
      <trkpt lat="36.78228" lon="28.15262">
        <ele>286.5</ele>
      </trkpt>
      <trkpt lat="36.78223" lon="28.15247">
        <ele>285</ele>
      </trkpt>
      <trkpt lat="36.78211" lon="28.15225">
        <ele>284.4</ele>
      </trkpt>
      <trkpt lat="36.78207" lon="28.15208">
        <ele>281.6</ele>
      </trkpt>
      <trkpt lat="36.78208" lon="28.15191">
        <ele>276.7</ele>
      </trkpt>
      <trkpt lat="36.78201" lon="28.15169">
        <ele>273.6</ele>
      </trkpt>
      <trkpt lat="36.782" lon="28.15152">
        <ele>271</ele>
      </trkpt>
      <trkpt lat="36.78194" lon="28.15136">
        <ele>270.6</ele>
      </trkpt>
      <trkpt lat="36.78196" lon="28.15123">
        <ele>268</ele>
      </trkpt>
      <trkpt lat="36.78191" lon="28.15104">
        <ele>266.5</ele>
      </trkpt>
      <trkpt lat="36.7819" lon="28.15106">
        <ele>267.4</ele>
      </trkpt>
      <trkpt lat="36.78187" lon="28.15109">
        <ele>268.5</ele>
      </trkpt>
      <trkpt lat="36.78179" lon="28.15084">
        <ele>266.7</ele>
      </trkpt>
      <trkpt lat="36.78187" lon="28.15064">
        <ele>259.5</ele>
      </trkpt>
      <trkpt lat="36.78186" lon="28.15048">
        <ele>255.6</ele>
      </trkpt>
      <trkpt lat="36.78177" lon="28.15029">
        <ele>252.1</ele>
      </trkpt>
      <trkpt lat="36.78172" lon="28.15022">
        <ele>250.7</ele>
      </trkpt>
      <trkpt lat="36.78159" lon="28.15006">
        <ele>248.3</ele>
      </trkpt>
      <trkpt lat="36.78156" lon="28.15001">
        <ele>247.2</ele>
      </trkpt>
      <trkpt lat="36.78136" lon="28.14992">
        <ele>249.2</ele>
      </trkpt>
      <trkpt lat="36.78129" lon="28.14992">
        <ele>250.6</ele>
      </trkpt>
      <trkpt lat="36.7811" lon="28.14984">
        <ele>253.6</ele>
      </trkpt>
      <trkpt lat="36.78097" lon="28.14983">
        <ele>256.5</ele>
      </trkpt>
      <trkpt lat="36.7809" lon="28.14983">
        <ele>258</ele>
      </trkpt>
      <trkpt lat="36.78081" lon="28.14984">
        <ele>260.4</ele>
      </trkpt>
      <trkpt lat="36.78077" lon="28.14983">
        <ele>261.8</ele>
      </trkpt>
      <trkpt lat="36.78089" lon="28.14978">
        <ele>257.8</ele>
      </trkpt>
      <trkpt lat="36.78089" lon="28.14975">
        <ele>257.7</ele>
      </trkpt>
      <trkpt lat="36.78092" lon="28.14972">
        <ele>256.9</ele>
      </trkpt>
      <trkpt lat="36.78099" lon="28.14959">
        <ele>254.2</ele>
      </trkpt>
      <trkpt lat="36.78101" lon="28.14952">
        <ele>253.3</ele>
      </trkpt>
      <trkpt lat="36.78107" lon="28.14948">
        <ele>251.2</ele>
      </trkpt>
      <trkpt lat="36.78108" lon="28.14945">
        <ele>250.7</ele>
      </trkpt>
      <trkpt lat="36.78117" lon="28.1493">
        <ele>246.5</ele>
      </trkpt>
      <trkpt lat="36.78126" lon="28.1492">
        <ele>242.3</ele>
      </trkpt>
      <trkpt lat="36.78126" lon="28.14917">
        <ele>241.8</ele>
      </trkpt>
      <trkpt lat="36.78128" lon="28.14911">
        <ele>240.7</ele>
      </trkpt>
      <trkpt lat="36.78129" lon="28.14911">
        <ele>240.3</ele>
      </trkpt>
      <trkpt lat="36.78139" lon="28.14893">
        <ele>235.9</ele>
      </trkpt>
      <trkpt lat="36.78152" lon="28.14878">
        <ele>230.6</ele>
      </trkpt>
      <trkpt lat="36.78159" lon="28.14866">
        <ele>227.8</ele>
      </trkpt>
      <trkpt lat="36.78162" lon="28.14848">
        <ele>226.1</ele>
      </trkpt>
      <trkpt lat="36.78161" lon="28.14829">
        <ele>224.8</ele>
      </trkpt>
      <trkpt lat="36.78156" lon="28.14818">
        <ele>223.6</ele>
      </trkpt>
      <trkpt lat="36.78149" lon="28.148">
        <ele>221.5</ele>
      </trkpt>
      <trkpt lat="36.7814" lon="28.14788">
        <ele>220.7</ele>
      </trkpt>
      <trkpt lat="36.78135" lon="28.14773">
        <ele>218</ele>
      </trkpt>
      <trkpt lat="36.78124" lon="28.14757">
        <ele>216.3</ele>
      </trkpt>
      <trkpt lat="36.78107" lon="28.14738">
        <ele>213.6</ele>
      </trkpt>
      <trkpt lat="36.78097" lon="28.14731">
        <ele>213</ele>
      </trkpt>
      <trkpt lat="36.78091" lon="28.14727">
        <ele>212.8</ele>
      </trkpt>
      <trkpt lat="36.78079" lon="28.14722">
        <ele>212.2</ele>
      </trkpt>
      <trkpt lat="36.78072" lon="28.14718">
        <ele>210.6</ele>
      </trkpt>
      <trkpt lat="36.78069" lon="28.14716">
        <ele>209.9</ele>
      </trkpt>
      <trkpt lat="36.78064" lon="28.14715">
        <ele>209.4</ele>
      </trkpt>
      <trkpt lat="36.78058" lon="28.14715">
        <ele>209.3</ele>
      </trkpt>
      <trkpt lat="36.78036" lon="28.1471">
        <ele>207.4</ele>
      </trkpt>
      <trkpt lat="36.78016" lon="28.14707">
        <ele>206.3</ele>
      </trkpt>
      <trkpt lat="36.77996" lon="28.1471">
        <ele>207.8</ele>
      </trkpt>
      <trkpt lat="36.7798" lon="28.14709">
        <ele>208.8</ele>
      </trkpt>
      <trkpt lat="36.77958" lon="28.14708">
        <ele>210.1</ele>
      </trkpt>
      <trkpt lat="36.77944" lon="28.14706">
        <ele>210.6</ele>
      </trkpt>
      <trkpt lat="36.77934" lon="28.1471">
        <ele>212.7</ele>
      </trkpt>
      <trkpt lat="36.77933" lon="28.14691">
        <ele>206.8</ele>
      </trkpt>
      <trkpt lat="36.77932" lon="28.14685">
        <ele>204.8</ele>
      </trkpt>
      <trkpt lat="36.77926" lon="28.1466">
        <ele>198.8</ele>
      </trkpt>
      <trkpt lat="36.77916" lon="28.14643">
        <ele>197.6</ele>
      </trkpt>
      <trkpt lat="36.77904" lon="28.1462">
        <ele>196.9</ele>
      </trkpt>
      <trkpt lat="36.77896" lon="28.14613">
        <ele>197.4</ele>
      </trkpt>
      <trkpt lat="36.77891" lon="28.14602">
        <ele>196.9</ele>
      </trkpt>
      <trkpt lat="36.77884" lon="28.14588">
        <ele>195.9</ele>
      </trkpt>
      <trkpt lat="36.77883" lon="28.14586">
        <ele>195.8</ele>
      </trkpt>
      <trkpt lat="36.77874" lon="28.14562">
        <ele>196.8</ele>
      </trkpt>
      <trkpt lat="36.77866" lon="28.14549">
        <ele>198.4</ele>
      </trkpt>
      <trkpt lat="36.77863" lon="28.14545">
        <ele>199.1</ele>
      </trkpt>
      <trkpt lat="36.7786" lon="28.14539">
        <ele>199.8</ele>
      </trkpt>
      <trkpt lat="36.77856" lon="28.14532">
        <ele>200.8</ele>
      </trkpt>
      <trkpt lat="36.77856" lon="28.14529">
        <ele>200.7</ele>
      </trkpt>
      <trkpt lat="36.77857" lon="28.14529">
        <ele>200.6</ele>
      </trkpt>
      <trkpt lat="36.77852" lon="28.14532">
        <ele>201.7</ele>
      </trkpt>
      <trkpt lat="36.77855" lon="28.14527">
        <ele>200.9</ele>
      </trkpt>
      <trkpt lat="36.7785" lon="28.14529">
        <ele>202.2</ele>
      </trkpt>
      <trkpt lat="36.77862" lon="28.14519">
        <ele>199.3</ele>
      </trkpt>
      <trkpt lat="36.77867" lon="28.14516">
        <ele>197.8</ele>
      </trkpt>
      <trkpt lat="36.77881" lon="28.14514">
        <ele>194.2</ele>
      </trkpt>
      <trkpt lat="36.77894" lon="28.14505">
        <ele>190.5</ele>
      </trkpt>
      <trkpt lat="36.77897" lon="28.14502">
        <ele>189.5</ele>
      </trkpt>
      <trkpt lat="36.77904" lon="28.14494">
        <ele>187.1</ele>
      </trkpt>
      <trkpt lat="36.77917" lon="28.1448">
        <ele>182.3</ele>
      </trkpt>
      <trkpt lat="36.77926" lon="28.14464">
        <ele>179</ele>
      </trkpt>
      <trkpt lat="36.77925" lon="28.14464">
        <ele>179.3</ele>
      </trkpt>
      <trkpt lat="36.7792" lon="28.14459">
        <ele>179.9</ele>
      </trkpt>
      <trkpt lat="36.7792" lon="28.14446">
        <ele>178.7</ele>
      </trkpt>
      <trkpt lat="36.77929" lon="28.14441">
        <ele>176.5</ele>
      </trkpt>
      <trkpt lat="36.77922" lon="28.14433">
        <ele>177.2</ele>
      </trkpt>
      <trkpt lat="36.77914" lon="28.14429">
        <ele>179.1</ele>
      </trkpt>
      <trkpt lat="36.77917" lon="28.14425">
        <ele>177.7</ele>
      </trkpt>
      <trkpt lat="36.77916" lon="28.1441">
        <ele>176.2</ele>
      </trkpt>
      <trkpt lat="36.77907" lon="28.14391">
        <ele>176.4</ele>
      </trkpt>
      <trkpt lat="36.77905" lon="28.14379">
        <ele>175</ele>
      </trkpt>
      <trkpt lat="36.77897" lon="28.14355">
        <ele>173</ele>
      </trkpt>
      <trkpt lat="36.77889" lon="28.14346">
        <ele>172.8</ele>
      </trkpt>
      <trkpt lat="36.77877" lon="28.14328">
        <ele>171.3</ele>
      </trkpt>
      <trkpt lat="36.77866" lon="28.14316">
        <ele>170.4</ele>
      </trkpt>
      <trkpt lat="36.77852" lon="28.14298">
        <ele>168.5</ele>
      </trkpt>
      <trkpt lat="36.77848" lon="28.14289">
        <ele>167.2</ele>
      </trkpt>
      <trkpt lat="36.77846" lon="28.14287">
        <ele>166.9</ele>
      </trkpt>
      <trkpt lat="36.77823" lon="28.1427">
        <ele>166.2</ele>
      </trkpt>
      <trkpt lat="36.77807" lon="28.14264">
        <ele>166.8</ele>
      </trkpt>
      <trkpt lat="36.77788" lon="28.14253">
        <ele>166.4</ele>
      </trkpt>
      <trkpt lat="36.7778" lon="28.14245">
        <ele>166.3</ele>
      </trkpt>
      <trkpt lat="36.77769" lon="28.14235">
        <ele>167.3</ele>
      </trkpt>
      <trkpt lat="36.77765" lon="28.14224">
        <ele>167.4</ele>
      </trkpt>
      <trkpt lat="36.77765" lon="28.14223">
        <ele>167.4</ele>
      </trkpt>
      <trkpt lat="36.77761" lon="28.14214">
        <ele>167.4</ele>
      </trkpt>
      <trkpt lat="36.7776" lon="28.14208">
        <ele>167.3</ele>
      </trkpt>
      <trkpt lat="36.77762" lon="28.14207">
        <ele>167.1</ele>
      </trkpt>
      <trkpt lat="36.77762" lon="28.14207">
        <ele>167.1</ele>
      </trkpt>
      <trkpt lat="36.77762" lon="28.14207">
        <ele>167.1</ele>
      </trkpt>
      <trkpt lat="36.77762" lon="28.14207">
        <ele>167.1</ele>
      </trkpt>
      <trkpt lat="36.77751" lon="28.14208">
        <ele>167.9</ele>
      </trkpt>
      <trkpt lat="36.77753" lon="28.14186">
        <ele>166.8</ele>
      </trkpt>
      <trkpt lat="36.77754" lon="28.14184">
        <ele>166.7</ele>
      </trkpt>
      <trkpt lat="36.77744" lon="28.14181">
        <ele>166.8</ele>
      </trkpt>
      <trkpt lat="36.77734" lon="28.1417">
        <ele>166.1</ele>
      </trkpt>
      <trkpt lat="36.77726" lon="28.14164">
        <ele>165.9</ele>
      </trkpt>
      <trkpt lat="36.77717" lon="28.14159">
        <ele>166.1</ele>
      </trkpt>
      <trkpt lat="36.77709" lon="28.1415">
        <ele>166.6</ele>
      </trkpt>
      <trkpt lat="36.77702" lon="28.14148">
        <ele>166.7</ele>
      </trkpt>
      <trkpt lat="36.77679" lon="28.14146">
        <ele>166.4</ele>
      </trkpt>
      <trkpt lat="36.77676" lon="28.14146">
        <ele>166.4</ele>
      </trkpt>
      <trkpt lat="36.77661" lon="28.14138">
        <ele>166.1</ele>
      </trkpt>
      <trkpt lat="36.77648" lon="28.14135">
        <ele>164.7</ele>
      </trkpt>
      <trkpt lat="36.77644" lon="28.14133">
        <ele>164.1</ele>
      </trkpt>
      <trkpt lat="36.77636" lon="28.14129">
        <ele>163.1</ele>
      </trkpt>
      <trkpt lat="36.77628" lon="28.14128">
        <ele>162</ele>
      </trkpt>
      <trkpt lat="36.77621" lon="28.14131">
        <ele>161.2</ele>
      </trkpt>
      <trkpt lat="36.77608" lon="28.14125">
        <ele>158.9</ele>
      </trkpt>
      <trkpt lat="36.77603" lon="28.14119">
        <ele>157.8</ele>
      </trkpt>
      <trkpt lat="36.77588" lon="28.14114">
        <ele>154.7</ele>
      </trkpt>
      <trkpt lat="36.77566" lon="28.14094">
        <ele>144.7</ele>
      </trkpt>
      <trkpt lat="36.7756" lon="28.14082">
        <ele>140.2</ele>
      </trkpt>
      <trkpt lat="36.77559" lon="28.14066">
        <ele>138.9</ele>
      </trkpt>
      <trkpt lat="36.77557" lon="28.14058">
        <ele>137.4</ele>
      </trkpt>
      <trkpt lat="36.77554" lon="28.14054">
        <ele>135.8</ele>
      </trkpt>
      <trkpt lat="36.7755" lon="28.14044">
        <ele>133.3</ele>
      </trkpt>
      <trkpt lat="36.77546" lon="28.14032">
        <ele>130.5</ele>
      </trkpt>
      <trkpt lat="36.7754" lon="28.14028">
        <ele>127.4</ele>
      </trkpt>
      <trkpt lat="36.77537" lon="28.14023">
        <ele>125.3</ele>
      </trkpt>
      <trkpt lat="36.77535" lon="28.14022">
        <ele>124.4</ele>
      </trkpt>
      <trkpt lat="36.77525" lon="28.14019">
        <ele>119.2</ele>
      </trkpt>
      <trkpt lat="36.77521" lon="28.14014">
        <ele>116.2</ele>
      </trkpt>
      <trkpt lat="36.77515" lon="28.14012">
        <ele>113</ele>
      </trkpt>
      <trkpt lat="36.77506" lon="28.14003">
        <ele>107.4</ele>
      </trkpt>
      <trkpt lat="36.77506" lon="28.14001">
        <ele>107</ele>
      </trkpt>
      <trkpt lat="36.77505" lon="28.13984">
        <ele>105.3</ele>
      </trkpt>
      <trkpt lat="36.77504" lon="28.13963">
        <ele>103.3</ele>
      </trkpt>
      <trkpt lat="36.77501" lon="28.13964">
        <ele>101.8</ele>
      </trkpt>
      <trkpt lat="36.77499" lon="28.13974">
        <ele>101.8</ele>
      </trkpt>
      <trkpt lat="36.77493" lon="28.13981">
        <ele>99.7</ele>
      </trkpt>
      <trkpt lat="36.77488" lon="28.13991">
        <ele>97.9</ele>
      </trkpt>
      <trkpt lat="36.77482" lon="28.13995">
        <ele>95.6</ele>
      </trkpt>
      <trkpt lat="36.77476" lon="28.13989">
        <ele>93.1</ele>
      </trkpt>
      <trkpt lat="36.77473" lon="28.14003">
        <ele>92</ele>
      </trkpt>
      <trkpt lat="36.77472" lon="28.14005">
        <ele>92</ele>
      </trkpt>
      <trkpt lat="36.77473" lon="28.14019">
        <ele>94.4</ele>
      </trkpt>
      <trkpt lat="36.77472" lon="28.14019">
        <ele>93.6</ele>
      </trkpt>
      <trkpt lat="36.77461" lon="28.14017">
        <ele>88.4</ele>
      </trkpt>
      <trkpt lat="36.77453" lon="28.14032">
        <ele>86.8</ele>
      </trkpt>
      <trkpt lat="36.77442" lon="28.14038">
        <ele>82.8</ele>
      </trkpt>
      <trkpt lat="36.77431" lon="28.14046">
        <ele>78.7</ele>
      </trkpt>
      <trkpt lat="36.7742" lon="28.14057">
        <ele>75.1</ele>
      </trkpt>
      <trkpt lat="36.77415" lon="28.1406">
        <ele>73.5</ele>
      </trkpt>
      <trkpt lat="36.77404" lon="28.14068">
        <ele>72</ele>
      </trkpt>
      <trkpt lat="36.77401" lon="28.14071">
        <ele>71.5</ele>
      </trkpt>
      <trkpt lat="36.7739" lon="28.14083">
        <ele>69.3</ele>
      </trkpt>
      <trkpt lat="36.77386" lon="28.14087">
        <ele>68.6</ele>
      </trkpt>
      <trkpt lat="36.77377" lon="28.14095">
        <ele>67.1</ele>
      </trkpt>
      <trkpt lat="36.77374" lon="28.14096">
        <ele>66.2</ele>
      </trkpt>
      <trkpt lat="36.77372" lon="28.14095">
        <ele>65.5</ele>
      </trkpt>
      <trkpt lat="36.7736" lon="28.14105">
        <ele>63.2</ele>
      </trkpt>
      <trkpt lat="36.77353" lon="28.1411">
        <ele>61.5</ele>
      </trkpt>
      <trkpt lat="36.77336" lon="28.14117">
        <ele>56.8</ele>
      </trkpt>
      <trkpt lat="36.77324" lon="28.14127">
        <ele>56.3</ele>
      </trkpt>
      <trkpt lat="36.7731" lon="28.14134">
        <ele>56.1</ele>
      </trkpt>
      <trkpt lat="36.77297" lon="28.1414">
        <ele>55.7</ele>
      </trkpt>
      <trkpt lat="36.77277" lon="28.14137">
        <ele>54.5</ele>
      </trkpt>
      <trkpt lat="36.77258" lon="28.14138">
        <ele>53.4</ele>
      </trkpt>
      <trkpt lat="36.77244" lon="28.14148">
        <ele>52.4</ele>
      </trkpt>
      <trkpt lat="36.77227" lon="28.14154">
        <ele>50.8</ele>
      </trkpt>
      <trkpt lat="36.77214" lon="28.14159">
        <ele>49.4</ele>
      </trkpt>
      <trkpt lat="36.772" lon="28.14167">
        <ele>47.7</ele>
      </trkpt>
      <trkpt lat="36.77195" lon="28.14169">
        <ele>47.4</ele>
      </trkpt>
      <trkpt lat="36.77179" lon="28.14164">
        <ele>45.5</ele>
      </trkpt>
      <trkpt lat="36.77152" lon="28.14159">
        <ele>43.2</ele>
      </trkpt>
      <trkpt lat="36.7714" lon="28.1416">
        <ele>42</ele>
      </trkpt>
      <trkpt lat="36.77135" lon="28.14162">
        <ele>41.3</ele>
      </trkpt>
      <trkpt lat="36.77132" lon="28.1417">
        <ele>41</ele>
      </trkpt>
      <trkpt lat="36.77132" lon="28.14165">
        <ele>40.8</ele>
      </trkpt>
      <trkpt lat="36.77136" lon="28.14166">
        <ele>41.1</ele>
      </trkpt>
      <trkpt lat="36.77133" lon="28.14167">
        <ele>40.8</ele>
      </trkpt>
      <trkpt lat="36.77112" lon="28.14169">
        <ele>39</ele>
      </trkpt>
      <trkpt lat="36.7707" lon="28.14185">
        <ele>37.3</ele>
      </trkpt>
      <trkpt lat="36.77054" lon="28.14206">
        <ele>38.1</ele>
      </trkpt>
      <trkpt lat="36.77041" lon="28.14218">
        <ele>38.1</ele>
      </trkpt>
      <trkpt lat="36.7704" lon="28.14216">
        <ele>37.7</ele>
      </trkpt>
      <trkpt lat="36.77039" lon="28.14178">
        <ele>34.3</ele>
      </trkpt>
      <trkpt lat="36.77017" lon="28.14115">
        <ele>34.1</ele>
      </trkpt>
      <trkpt lat="36.77015" lon="28.14107">
        <ele>34.3</ele>
      </trkpt>
      <trkpt lat="36.77015" lon="28.14107">
        <ele>34.3</ele>
      </trkpt>
      <trkpt lat="36.76993" lon="28.14098">
        <ele>33.2</ele>
      </trkpt>
      <trkpt lat="36.76972" lon="28.14093">
        <ele>32.4</ele>
      </trkpt>
      <trkpt lat="36.76939" lon="28.14075">
        <ele>31.7</ele>
      </trkpt>
      <trkpt lat="36.76917" lon="28.14047">
        <ele>31.8</ele>
      </trkpt>
      <trkpt lat="36.76902" lon="28.14021">
        <ele>31.9</ele>
      </trkpt>
      <trkpt lat="36.76868" lon="28.13996">
        <ele>29.6</ele>
      </trkpt>
      <trkpt lat="36.76822" lon="28.1395">
        <ele>28.3</ele>
      </trkpt>
      <trkpt lat="36.7677" lon="28.13916">
        <ele>26.5</ele>
      </trkpt>
      <trkpt lat="36.7673" lon="28.13882">
        <ele>31.4</ele>
      </trkpt>
      <trkpt lat="36.76718" lon="28.13867">
        <ele>33.1</ele>
      </trkpt>
      <trkpt lat="36.76687" lon="28.1386">
        <ele>32.8</ele>
      </trkpt>
      <trkpt lat="36.76675" lon="28.13821">
        <ele>33.1</ele>
      </trkpt>
      <trkpt lat="36.76656" lon="28.13791">
        <ele>34.7</ele>
      </trkpt>
      <trkpt lat="36.76625" lon="28.13768">
        <ele>32.6</ele>
      </trkpt>
      <trkpt lat="36.76589" lon="28.13758">
        <ele>27.3</ele>
      </trkpt>
      <trkpt lat="36.76572" lon="28.13737">
        <ele>25.2</ele>
      </trkpt>
      <trkpt lat="36.76551" lon="28.13717">
        <ele>24.1</ele>
      </trkpt>
      <trkpt lat="36.76515" lon="28.13699">
        <ele>20</ele>
      </trkpt>
      <trkpt lat="36.76504" lon="28.13676">
        <ele>15.3</ele>
      </trkpt>
      <trkpt lat="36.76504" lon="28.13679">
        <ele>15.7</ele>
      </trkpt>
      <trkpt lat="36.76494" lon="28.13675">
        <ele>14.2</ele>
      </trkpt>
      <trkpt lat="36.76485" lon="28.13665">
        <ele>12.4</ele>
      </trkpt>
      <trkpt lat="36.76431" lon="28.13544">
        <ele>8.1</ele>
      </trkpt>
      <trkpt lat="36.76333" lon="28.13311">
        <ele>6</ele>
      </trkpt>
      <trkpt lat="36.76263" lon="28.13159">
        <ele>4.1</ele>
      </trkpt>
      <trkpt lat="36.76255" lon="28.13144">
        <ele>4</ele>
      </trkpt>
      <trkpt lat="36.76245" lon="28.13131">
        <ele>4.6</ele>
      </trkpt>
      <trkpt lat="36.76235" lon="28.13118">
        <ele>5.9</ele>
      </trkpt>
      <trkpt lat="36.76223" lon="28.13107">
        <ele>7.1</ele>
      </trkpt>
      <trkpt lat="36.7621" lon="28.13097">
        <ele>8.2</ele>
      </trkpt>
      <trkpt lat="36.76197" lon="28.13089">
        <ele>9.3</ele>
      </trkpt>
      <trkpt lat="36.76091" lon="28.13052">
        <ele>11.3</ele>
      </trkpt>
      <trkpt lat="36.76075" lon="28.13048">
        <ele>10.6</ele>
      </trkpt>
      <trkpt lat="36.76059" lon="28.13045">
        <ele>9.7</ele>
      </trkpt>
      <trkpt lat="36.76044" lon="28.13043">
        <ele>9.1</ele>
      </trkpt>
      <trkpt lat="36.7603" lon="28.13045">
        <ele>9.1</ele>
      </trkpt>
      <trkpt lat="36.76015" lon="28.13049">
        <ele>9.6</ele>
      </trkpt>
      <trkpt lat="36.75922" lon="28.13125">
        <ele>9.5</ele>
      </trkpt>
      <trkpt lat="36.75809" lon="28.13314">
        <ele>13.9</ele>
      </trkpt>
      <trkpt lat="36.758" lon="28.13329">
        <ele>13.7</ele>
      </trkpt>
      <trkpt lat="36.75792" lon="28.13341">
        <ele>13.5</ele>
      </trkpt>
      <trkpt lat="36.75779" lon="28.13354">
        <ele>12</ele>
      </trkpt>
      <trkpt lat="36.75767" lon="28.13362">
        <ele>8.8</ele>
      </trkpt>
      <trkpt lat="36.75753" lon="28.13367">
        <ele>4.4</ele>
      </trkpt>
      <trkpt lat="36.75739" lon="28.13369">
        <ele>3.3</ele>
      </trkpt>
      <trkpt lat="36.75724" lon="28.13369">
        <ele>3</ele>
      </trkpt>
      <trkpt lat="36.75526" lon="28.13291">
        <ele>1</ele>
      </trkpt>
      <trkpt lat="36.75326" lon="28.13209">
        <ele>2.5</ele>
      </trkpt>
      <trkpt lat="36.75312" lon="28.13203">
        <ele>2.3</ele>
      </trkpt>
      <trkpt lat="36.75299" lon="28.13196">
        <ele>2.2</ele>
      </trkpt>
      <trkpt lat="36.75286" lon="28.13187">
        <ele>2.1</ele>
      </trkpt>
      <trkpt lat="36.75274" lon="28.13177">
        <ele>2</ele>
      </trkpt>
      <trkpt lat="36.75263" lon="28.13165">
        <ele>2</ele>
      </trkpt>
      <trkpt lat="36.75253" lon="28.13152">
        <ele>2.3</ele>
      </trkpt>
      <trkpt lat="36.75246" lon="28.13139">
        <ele>4.2</ele>
      </trkpt>
      <trkpt lat="36.75239" lon="28.13124">
        <ele>7</ele>
      </trkpt>
      <trkpt lat="36.75234" lon="28.13107">
        <ele>9.5</ele>
      </trkpt>
      <trkpt lat="36.75231" lon="28.1309">
        <ele>11.1</ele>
      </trkpt>
      <trkpt lat="36.75234" lon="28.12992">
        <ele>19.8</ele>
      </trkpt>
      <trkpt lat="36.75235" lon="28.12975">
        <ele>21.4</ele>
      </trkpt>
      <trkpt lat="36.75236" lon="28.12959">
        <ele>22.8</ele>
      </trkpt>
      <trkpt lat="36.75239" lon="28.12944">
        <ele>23.1</ele>
      </trkpt>
      <trkpt lat="36.75244" lon="28.12931">
        <ele>21.6</ele>
      </trkpt>
      <trkpt lat="36.75253" lon="28.12921">
        <ele>19</ele>
      </trkpt>
      <trkpt lat="36.75263" lon="28.12914">
        <ele>18.7</ele>
      </trkpt>
      <trkpt lat="36.75274" lon="28.12909">
        <ele>18.1</ele>
      </trkpt>
      <trkpt lat="36.75285" lon="28.12905">
        <ele>16.8</ele>
      </trkpt>
      <trkpt lat="36.75296" lon="28.12901">
        <ele>15.6</ele>
      </trkpt>
      <trkpt lat="36.75306" lon="28.12894">
        <ele>14.8</ele>
      </trkpt>
      <trkpt lat="36.75314" lon="28.12884">
        <ele>14.5</ele>
      </trkpt>
      <trkpt lat="36.75321" lon="28.12873">
        <ele>14.4</ele>
      </trkpt>
      <trkpt lat="36.75326" lon="28.1286">
        <ele>14.5</ele>
      </trkpt>
      <trkpt lat="36.75329" lon="28.12847">
        <ele>15.3</ele>
      </trkpt>
      <trkpt lat="36.75329" lon="28.12833">
        <ele>16.9</ele>
      </trkpt>
      <trkpt lat="36.75324" lon="28.12789">
        <ele>20.3</ele>
      </trkpt>
      <trkpt lat="36.75282" lon="28.12682">
        <ele>38.2</ele>
      </trkpt>
      <trkpt lat="36.75273" lon="28.12669">
        <ele>40.7</ele>
      </trkpt>
      <trkpt lat="36.75264" lon="28.12655">
        <ele>44.7</ele>
      </trkpt>
      <trkpt lat="36.75258" lon="28.12641">
        <ele>47.8</ele>
      </trkpt>
      <trkpt lat="36.75254" lon="28.12627">
        <ele>49.8</ele>
      </trkpt>
      <trkpt lat="36.75253" lon="28.12613">
        <ele>50.3</ele>
      </trkpt>
      <trkpt lat="36.75247" lon="28.12611">
        <ele>52.5</ele>
      </trkpt>
      <trkpt lat="36.75244" lon="28.12611">
        <ele>53.3</ele>
      </trkpt>
      <trkpt lat="36.75232" lon="28.12608">
        <ele>57</ele>
      </trkpt>
      <trkpt lat="36.75228" lon="28.12599">
        <ele>58.2</ele>
      </trkpt>
      <trkpt lat="36.75218" lon="28.12574">
        <ele>63.6</ele>
      </trkpt>
      <trkpt lat="36.75208" lon="28.12556">
        <ele>71.3</ele>
      </trkpt>
      <trkpt lat="36.75198" lon="28.12554">
        <ele>74.2</ele>
      </trkpt>
      <trkpt lat="36.75174" lon="28.1254">
        <ele>82.4</ele>
      </trkpt>
      <trkpt lat="36.75162" lon="28.12523">
        <ele>87.6</ele>
      </trkpt>
      <trkpt lat="36.75152" lon="28.12512">
        <ele>90.3</ele>
      </trkpt>
      <trkpt lat="36.75143" lon="28.12509">
        <ele>91</ele>
      </trkpt>
      <trkpt lat="36.75141" lon="28.12506">
        <ele>91.5</ele>
      </trkpt>
      <trkpt lat="36.75142" lon="28.12495">
        <ele>92.1</ele>
      </trkpt>
      <trkpt lat="36.75135" lon="28.12482">
        <ele>91.4</ele>
      </trkpt>
      <trkpt lat="36.75135" lon="28.1248">
        <ele>91.3</ele>
      </trkpt>
      <trkpt lat="36.75134" lon="28.12465">
        <ele>90.5</ele>
      </trkpt>
      <trkpt lat="36.75136" lon="28.12459">
        <ele>90.3</ele>
      </trkpt>
      <trkpt lat="36.75143" lon="28.12442">
        <ele>90.3</ele>
      </trkpt>
      <trkpt lat="36.75143" lon="28.12435">
        <ele>90.1</ele>
      </trkpt>
      <trkpt lat="36.75143" lon="28.12435">
        <ele>90.1</ele>
      </trkpt>
      <trkpt lat="36.75141" lon="28.12424">
        <ele>89.4</ele>
      </trkpt>
      <trkpt lat="36.75135" lon="28.1242">
        <ele>88.1</ele>
      </trkpt>
      <trkpt lat="36.75116" lon="28.12427">
        <ele>85.2</ele>
      </trkpt>
      <trkpt lat="36.75107" lon="28.12424">
        <ele>83.5</ele>
      </trkpt>
      <trkpt lat="36.75108" lon="28.12423">
        <ele>83.5</ele>
      </trkpt>
      <trkpt lat="36.75125" lon="28.1242">
        <ele>86.3</ele>
      </trkpt>
      <trkpt lat="36.7513" lon="28.12408">
        <ele>84.2</ele>
      </trkpt>
      <trkpt lat="36.75136" lon="28.12397">
        <ele>81.6</ele>
      </trkpt>
      <trkpt lat="36.75123" lon="28.12391">
        <ele>77.1</ele>
      </trkpt>
      <trkpt lat="36.75122" lon="28.12391">
        <ele>76.9</ele>
      </trkpt>
      <trkpt lat="36.75111" lon="28.12392">
        <ele>74.7</ele>
      </trkpt>
      <trkpt lat="36.75106" lon="28.12389">
        <ele>72.8</ele>
      </trkpt>
      <trkpt lat="36.7511" lon="28.12384">
        <ele>71.9</ele>
      </trkpt>
      <trkpt lat="36.75119" lon="28.12379">
        <ele>72.1</ele>
      </trkpt>
      <trkpt lat="36.75126" lon="28.12367">
        <ele>69.7</ele>
      </trkpt>
      <trkpt lat="36.75129" lon="28.12354">
        <ele>66</ele>
      </trkpt>
      <trkpt lat="36.75132" lon="28.12345">
        <ele>63.5</ele>
      </trkpt>
      <trkpt lat="36.75131" lon="28.12334">
        <ele>59.7</ele>
      </trkpt>
      <trkpt lat="36.75124" lon="28.12333">
        <ele>57.7</ele>
      </trkpt>
      <trkpt lat="36.75119" lon="28.12332">
        <ele>56.2</ele>
      </trkpt>
      <trkpt lat="36.75114" lon="28.12333">
        <ele>55.4</ele>
      </trkpt>
      <trkpt lat="36.75114" lon="28.12336">
        <ele>56.5</ele>
      </trkpt>
      <trkpt lat="36.75108" lon="28.12328">
        <ele>52.2</ele>
      </trkpt>
      <trkpt lat="36.75112" lon="28.12317">
        <ele>48.9</ele>
      </trkpt>
      <trkpt lat="36.75114" lon="28.12306">
        <ele>45.1</ele>
      </trkpt>
      <trkpt lat="36.75119" lon="28.12297">
        <ele>42.3</ele>
      </trkpt>
      <trkpt lat="36.75124" lon="28.12287">
        <ele>39.2</ele>
      </trkpt>
      <trkpt lat="36.7513" lon="28.12277">
        <ele>36.7</ele>
      </trkpt>
      <trkpt lat="36.75136" lon="28.12268">
        <ele>34.1</ele>
      </trkpt>
      <trkpt lat="36.75143" lon="28.1226">
        <ele>31.9</ele>
      </trkpt>
      <trkpt lat="36.75146" lon="28.12249">
        <ele>28.4</ele>
      </trkpt>
      <trkpt lat="36.75151" lon="28.12239">
        <ele>26.9</ele>
      </trkpt>
      <trkpt lat="36.75143" lon="28.12245">
        <ele>27.1</ele>
      </trkpt>
      <trkpt lat="36.75134" lon="28.12247">
        <ele>26</ele>
      </trkpt>
      <trkpt lat="36.75126" lon="28.12253">
        <ele>26.2</ele>
      </trkpt>
      <trkpt lat="36.75118" lon="28.12258">
        <ele>27.1</ele>
      </trkpt>
      <trkpt lat="36.7511" lon="28.12264">
        <ele>28.1</ele>
      </trkpt>
      <trkpt lat="36.75101" lon="28.12268">
        <ele>27.8</ele>
      </trkpt>
      <trkpt lat="36.75093" lon="28.12273">
        <ele>28.2</ele>
      </trkpt>
      <trkpt lat="36.75084" lon="28.12274">
        <ele>26.9</ele>
      </trkpt>
      <trkpt lat="36.75075" lon="28.12275">
        <ele>26.9</ele>
      </trkpt>
      <trkpt lat="36.75065" lon="28.12274">
        <ele>25.9</ele>
      </trkpt>
      <trkpt lat="36.75055" lon="28.12275">
        <ele>25.6</ele>
      </trkpt>
      <trkpt lat="36.7505" lon="28.12266">
        <ele>21.9</ele>
      </trkpt>
      <trkpt lat="36.7505" lon="28.12262">
        <ele>20.5</ele>
      </trkpt>
      <trkpt lat="36.75056" lon="28.12246">
        <ele>16.1</ele>
      </trkpt>
      <trkpt lat="36.7506" lon="28.12233">
        <ele>15.3</ele>
      </trkpt>
      <trkpt lat="36.75057" lon="28.12226">
        <ele>14.7</ele>
      </trkpt>
      <trkpt lat="36.75054" lon="28.12203">
        <ele>12.9</ele>
      </trkpt>
      <trkpt lat="36.75035" lon="28.122">
        <ele>11.9</ele>
      </trkpt>
      <trkpt lat="36.75035" lon="28.122">
        <ele>11.9</ele>
      </trkpt>
      <trkpt lat="36.75033" lon="28.12199">
        <ele>11.8</ele>
      </trkpt>
      <trkpt lat="36.75027" lon="28.12197">
        <ele>11.4</ele>
      </trkpt>
      <trkpt lat="36.75027" lon="28.12197">
        <ele>11.4</ele>
      </trkpt>
      <trkpt lat="36.75009" lon="28.12185">
        <ele>10.2</ele>
      </trkpt>
      <trkpt lat="36.74974" lon="28.1214">
        <ele>8.8</ele>
      </trkpt>
      <trkpt lat="36.74927" lon="28.12073">
        <ele>9</ele>
      </trkpt>
      <trkpt lat="36.74907" lon="28.12043">
        <ele>9.7</ele>
      </trkpt>
      <trkpt lat="36.74904" lon="28.12039">
        <ele>9.8</ele>
      </trkpt>
      <trkpt lat="36.74904" lon="28.12039">
        <ele>9.8</ele>
      </trkpt>
      <trkpt lat="36.74902" lon="28.12035">
        <ele>9.8</ele>
      </trkpt>
      <trkpt lat="36.74885" lon="28.12011">
        <ele>10.3</ele>
      </trkpt>
      <trkpt lat="36.74862" lon="28.11979">
        <ele>10.7</ele>
      </trkpt>
      <trkpt lat="36.74858" lon="28.11972">
        <ele>10.7</ele>
      </trkpt>
      <trkpt lat="36.74858" lon="28.11972">
        <ele>10.7</ele>
      </trkpt>
      <trkpt lat="36.74849" lon="28.11959">
        <ele>10.8</ele>
      </trkpt>
      <trkpt lat="36.74809" lon="28.11901">
        <ele>11.7</ele>
      </trkpt>
      <trkpt lat="36.74781" lon="28.1186">
        <ele>13</ele>
      </trkpt>
      <trkpt lat="36.74778" lon="28.11855">
        <ele>13.1</ele>
      </trkpt>
      <trkpt lat="36.74778" lon="28.11855">
        <ele>13.1</ele>
      </trkpt>
      <trkpt lat="36.74757" lon="28.11844">
        <ele>13.7</ele>
      </trkpt>
      <trkpt lat="36.74739" lon="28.11837">
        <ele>13.9</ele>
      </trkpt>
      <trkpt lat="36.74739" lon="28.11837">
        <ele>13.9</ele>
      </trkpt>
      <trkpt lat="36.74733" lon="28.1184">
        <ele>13.9</ele>
      </trkpt>
      <trkpt lat="36.74733" lon="28.1184">
        <ele>13.9</ele>
      </trkpt>
      <trkpt lat="36.74722" lon="28.11847">
        <ele>13.7</ele>
      </trkpt>
      <trkpt lat="36.7471" lon="28.11851">
        <ele>13.7</ele>
      </trkpt>
      <trkpt lat="36.74692" lon="28.1186">
        <ele>13.6</ele>
      </trkpt>
      <trkpt lat="36.74692" lon="28.1186">
        <ele>13.6</ele>
      </trkpt>
      <trkpt lat="36.74692" lon="28.1186">
        <ele>13.6</ele>
      </trkpt>
      <trkpt lat="36.74683" lon="28.11842">
        <ele>13.9</ele>
      </trkpt>
      <trkpt lat="36.74674" lon="28.11821">
        <ele>14</ele>
      </trkpt>
      <trkpt lat="36.74673" lon="28.11815">
        <ele>14</ele>
      </trkpt>
      <trkpt lat="36.74673" lon="28.11811">
        <ele>14</ele>
      </trkpt>
      <trkpt lat="36.74664" lon="28.11786">
        <ele>14</ele>
      </trkpt>
      <trkpt lat="36.74654" lon="28.11766">
        <ele>13.8</ele>
      </trkpt>
      <trkpt lat="36.74649" lon="28.11745">
        <ele>13.7</ele>
      </trkpt>
      <trkpt lat="36.74649" lon="28.11739">
        <ele>13.7</ele>
      </trkpt>
      <trkpt lat="36.7465" lon="28.11738">
        <ele>13.8</ele>
      </trkpt>
      <trkpt lat="36.74647" lon="28.11728">
        <ele>13.9</ele>
      </trkpt>
      <trkpt lat="36.74643" lon="28.11712">
        <ele>14</ele>
      </trkpt>
      <trkpt lat="36.74638" lon="28.11693">
        <ele>14.2</ele>
      </trkpt>
      <trkpt lat="36.74626" lon="28.11682">
        <ele>14.2</ele>
      </trkpt>
      <trkpt lat="36.74626" lon="28.11679">
        <ele>14.3</ele>
      </trkpt>
      <trkpt lat="36.74626" lon="28.11678">
        <ele>14.3</ele>
      </trkpt>
      <trkpt lat="36.74618" lon="28.11661">
        <ele>15</ele>
      </trkpt>
      <trkpt lat="36.74606" lon="28.11653">
        <ele>15.7</ele>
      </trkpt>
      <trkpt lat="36.74606" lon="28.11652">
        <ele>15.8</ele>
      </trkpt>
      <trkpt lat="36.74605" lon="28.11653">
        <ele>15.7</ele>
      </trkpt>
      <trkpt lat="36.74597" lon="28.1165">
        <ele>16</ele>
      </trkpt>
      <trkpt lat="36.74597" lon="28.11645">
        <ele>16.5</ele>
      </trkpt>
      <trkpt lat="36.7459" lon="28.11629">
        <ele>18.1</ele>
      </trkpt>
      <trkpt lat="36.74585" lon="28.11622">
        <ele>18.9</ele>
      </trkpt>
      <trkpt lat="36.7459" lon="28.11616">
        <ele>19.5</ele>
      </trkpt>
      <trkpt lat="36.74594" lon="28.11614">
        <ele>19.8</ele>
      </trkpt>
      <trkpt lat="36.7459" lon="28.11616">
        <ele>19.5</ele>
      </trkpt>
      <trkpt lat="36.74585" lon="28.11604">
        <ele>20.8</ele>
      </trkpt>
      <trkpt lat="36.74581" lon="28.11591">
        <ele>22.8</ele>
      </trkpt>
      <trkpt lat="36.74582" lon="28.11591">
        <ele>22.4</ele>
      </trkpt>
      <trkpt lat="36.74588" lon="28.11592">
        <ele>22</ele>
      </trkpt>
      <trkpt lat="36.74591" lon="28.11588">
        <ele>22.6</ele>
      </trkpt>
      <trkpt lat="36.74592" lon="28.11587">
        <ele>22.6</ele>
      </trkpt>
      <trkpt lat="36.74592" lon="28.11587">
        <ele>22.6</ele>
      </trkpt>
      <trkpt lat="36.74591" lon="28.11581">
        <ele>23.9</ele>
      </trkpt>
      <trkpt lat="36.74591" lon="28.1158">
        <ele>23.9</ele>
      </trkpt>
      <trkpt lat="36.74591" lon="28.1158">
        <ele>23.9</ele>
      </trkpt>
      <trkpt lat="36.74595" lon="28.11577">
        <ele>24.9</ele>
      </trkpt>
      <trkpt lat="36.74602" lon="28.11576">
        <ele>25.4</ele>
      </trkpt>
      <trkpt lat="36.74602" lon="28.11575">
        <ele>25.5</ele>
      </trkpt>
      <trkpt lat="36.74605" lon="28.11575">
        <ele>25.7</ele>
      </trkpt>
      <trkpt lat="36.74618" lon="28.11581">
        <ele>23.7</ele>
      </trkpt>
      <trkpt lat="36.74619" lon="28.11579">
        <ele>24.7</ele>
      </trkpt>
      <trkpt lat="36.74622" lon="28.11581">
        <ele>24</ele>
      </trkpt>
      <trkpt lat="36.74629" lon="28.11584">
        <ele>23</ele>
      </trkpt>
      <trkpt lat="36.74641" lon="28.11587">
        <ele>22.6</ele>
      </trkpt>
      <trkpt lat="36.74644" lon="28.11591">
        <ele>22.3</ele>
      </trkpt>
      <trkpt lat="36.74644" lon="28.11596">
        <ele>21.8</ele>
      </trkpt>
      <trkpt lat="36.74648" lon="28.11596">
        <ele>21.8</ele>
      </trkpt>
      <trkpt lat="36.74668" lon="28.11596">
        <ele>21.9</ele>
      </trkpt>
      <trkpt lat="36.7467" lon="28.116">
        <ele>21.6</ele>
      </trkpt>
      <trkpt lat="36.74668" lon="28.11605">
        <ele>21.1</ele>
      </trkpt>
      <trkpt lat="36.74672" lon="28.11607">
        <ele>21.1</ele>
      </trkpt>
      <trkpt lat="36.74682" lon="28.11618">
        <ele>20.5</ele>
      </trkpt>
      <trkpt lat="36.74697" lon="28.11617">
        <ele>21.5</ele>
      </trkpt>
      <trkpt lat="36.7471" lon="28.11616">
        <ele>22.3</ele>
      </trkpt>
      <trkpt lat="36.7471" lon="28.11617">
        <ele>22.2</ele>
      </trkpt>
      <trkpt lat="36.7471" lon="28.11618">
        <ele>22.2</ele>
      </trkpt>
      <trkpt lat="36.7471" lon="28.11619">
        <ele>22</ele>
      </trkpt>
      <trkpt lat="36.74715" lon="28.11623">
        <ele>21.9</ele>
      </trkpt>
      <trkpt lat="36.74721" lon="28.11624">
        <ele>22.1</ele>
      </trkpt>
      <trkpt lat="36.74726" lon="28.11626">
        <ele>22.1</ele>
      </trkpt>
      <trkpt lat="36.74735" lon="28.11629">
        <ele>22.2</ele>
      </trkpt>
      <trkpt lat="36.74734" lon="28.11627">
        <ele>22.4</ele>
      </trkpt>
      <trkpt lat="36.7475" lon="28.11638">
        <ele>21.8</ele>
      </trkpt>
      <trkpt lat="36.74756" lon="28.11638">
        <ele>21.9</ele>
      </trkpt>
      <trkpt lat="36.74754" lon="28.11637">
        <ele>21.9</ele>
      </trkpt>
      <trkpt lat="36.74754" lon="28.11638">
        <ele>21.8</ele>
      </trkpt>
      <trkpt lat="36.74755" lon="28.1164">
        <ele>21.5</ele>
      </trkpt>
      <trkpt lat="36.74755" lon="28.11641">
        <ele>21.5</ele>
      </trkpt>
      <trkpt lat="36.74758" lon="28.11645">
        <ele>21</ele>
      </trkpt>
      <trkpt lat="36.74768" lon="28.1164">
        <ele>21.8</ele>
      </trkpt>
      <trkpt lat="36.74768" lon="28.1164">
        <ele>21.8</ele>
      </trkpt>
      <trkpt lat="36.74769" lon="28.11638">
        <ele>22</ele>
      </trkpt>
      <trkpt lat="36.74768" lon="28.1164">
        <ele>21.8</ele>
      </trkpt>
      <trkpt lat="36.74767" lon="28.1164">
        <ele>21.8</ele>
      </trkpt>
      <trkpt lat="36.74761" lon="28.11625">
        <ele>23.7</ele>
      </trkpt>
      <trkpt lat="36.7476" lon="28.11625">
        <ele>23.6</ele>
      </trkpt>
      <trkpt lat="36.74757" lon="28.11624">
        <ele>23.8</ele>
      </trkpt>
      <trkpt lat="36.74758" lon="28.11611">
        <ele>25.5</ele>
      </trkpt>
      <trkpt lat="36.74759" lon="28.11605">
        <ele>26.4</ele>
      </trkpt>
      <trkpt lat="36.74763" lon="28.11596">
        <ele>27.6</ele>
      </trkpt>
      <trkpt lat="36.74765" lon="28.11593">
        <ele>28.1</ele>
      </trkpt>
      <trkpt lat="36.74768" lon="28.11587">
        <ele>29</ele>
      </trkpt>
      <trkpt lat="36.74768" lon="28.11587">
        <ele>29</ele>
      </trkpt>
      <trkpt lat="36.74775" lon="28.11584">
        <ele>29.5</ele>
      </trkpt>
      <trkpt lat="36.74783" lon="28.11582">
        <ele>30.2</ele>
      </trkpt>
      <trkpt lat="36.7479" lon="28.11571">
        <ele>33</ele>
      </trkpt>
      <trkpt lat="36.74791" lon="28.11563">
        <ele>34.9</ele>
      </trkpt>
      <trkpt lat="36.74792" lon="28.11566">
        <ele>34.2</ele>
      </trkpt>
      <trkpt lat="36.74791" lon="28.11559">
        <ele>35.8</ele>
      </trkpt>
      <trkpt lat="36.74791" lon="28.11546">
        <ele>39</ele>
      </trkpt>
      <trkpt lat="36.7479" lon="28.11536">
        <ele>41.3</ele>
      </trkpt>
      <trkpt lat="36.74793" lon="28.11529">
        <ele>43.1</ele>
      </trkpt>
      <trkpt lat="36.74792" lon="28.11513">
        <ele>47</ele>
      </trkpt>
      <trkpt lat="36.74791" lon="28.11505">
        <ele>48.8</ele>
      </trkpt>
      <trkpt lat="36.74787" lon="28.11501">
        <ele>50</ele>
      </trkpt>
      <trkpt lat="36.7479" lon="28.11487">
        <ele>52.8</ele>
      </trkpt>
      <trkpt lat="36.74792" lon="28.11477">
        <ele>54.8</ele>
      </trkpt>
      <trkpt lat="36.74787" lon="28.11466">
        <ele>57.5</ele>
      </trkpt>
      <trkpt lat="36.74792" lon="28.11461">
        <ele>58.1</ele>
      </trkpt>
      <trkpt lat="36.74792" lon="28.11451">
        <ele>60.2</ele>
      </trkpt>
      <trkpt lat="36.7479" lon="28.11447">
        <ele>61.3</ele>
      </trkpt>
      <trkpt lat="36.74788" lon="28.11438">
        <ele>63.2</ele>
      </trkpt>
      <trkpt lat="36.74787" lon="28.11431">
        <ele>64.8</ele>
      </trkpt>
      <trkpt lat="36.74793" lon="28.11427">
        <ele>65.3</ele>
      </trkpt>
      <trkpt lat="36.74795" lon="28.11419">
        <ele>66.9</ele>
      </trkpt>
      <trkpt lat="36.74803" lon="28.11413">
        <ele>67.8</ele>
      </trkpt>
      <trkpt lat="36.74802" lon="28.11413">
        <ele>67.9</ele>
      </trkpt>
      <trkpt lat="36.74797" lon="28.1141">
        <ele>69.3</ele>
      </trkpt>
      <trkpt lat="36.74792" lon="28.11407">
        <ele>70.3</ele>
      </trkpt>
      <trkpt lat="36.7478" lon="28.11388">
        <ele>76.7</ele>
      </trkpt>
      <trkpt lat="36.74766" lon="28.11378">
        <ele>80.5</ele>
      </trkpt>
      <trkpt lat="36.74762" lon="28.11376">
        <ele>81.2</ele>
      </trkpt>
      <trkpt lat="36.74752" lon="28.11378">
        <ele>81.1</ele>
      </trkpt>
      <trkpt lat="36.7474" lon="28.11385">
        <ele>82.1</ele>
      </trkpt>
      <trkpt lat="36.74727" lon="28.11397">
        <ele>82.1</ele>
      </trkpt>
      <trkpt lat="36.74717" lon="28.11412">
        <ele>80</ele>
      </trkpt>
      <trkpt lat="36.74705" lon="28.11428">
        <ele>77.9</ele>
      </trkpt>
      <trkpt lat="36.7469" lon="28.11436">
        <ele>78.5</ele>
      </trkpt>
      <trkpt lat="36.74688" lon="28.11436">
        <ele>79</ele>
      </trkpt>
      <trkpt lat="36.74683" lon="28.11424">
        <ele>84.3</ele>
      </trkpt>
      <trkpt lat="36.74685" lon="28.11411">
        <ele>88.3</ele>
      </trkpt>
      <trkpt lat="36.74686" lon="28.11409">
        <ele>89</ele>
      </trkpt>
      <trkpt lat="36.74685" lon="28.11391">
        <ele>95.6</ele>
      </trkpt>
      <trkpt lat="36.74688" lon="28.11375">
        <ele>100.7</ele>
      </trkpt>
      <trkpt lat="36.74698" lon="28.11363">
        <ele>101.8</ele>
      </trkpt>
      <trkpt lat="36.74708" lon="28.11355">
        <ele>101.2</ele>
      </trkpt>
      <trkpt lat="36.74717" lon="28.11335">
        <ele>105.1</ele>
      </trkpt>
      <trkpt lat="36.7472" lon="28.11321">
        <ele>109.2</ele>
      </trkpt>
      <trkpt lat="36.74726" lon="28.11302">
        <ele>113.4</ele>
      </trkpt>
      <trkpt lat="36.74732" lon="28.11289">
        <ele>116</ele>
      </trkpt>
      <trkpt lat="36.74733" lon="28.11271">
        <ele>122.2</ele>
      </trkpt>
      <trkpt lat="36.74733" lon="28.11267">
        <ele>123.4</ele>
      </trkpt>
      <trkpt lat="36.74744" lon="28.1126">
        <ele>121.2</ele>
      </trkpt>
      <trkpt lat="36.74766" lon="28.11268">
        <ele>115.6</ele>
      </trkpt>
      <trkpt lat="36.74779" lon="28.11267">
        <ele>115.6</ele>
      </trkpt>
      <trkpt lat="36.74794" lon="28.11259">
        <ele>118</ele>
      </trkpt>
      <trkpt lat="36.74796" lon="28.11259">
        <ele>117.8</ele>
      </trkpt>
      <trkpt lat="36.74796" lon="28.11258">
        <ele>118.3</ele>
      </trkpt>
      <trkpt lat="36.748" lon="28.11252">
        <ele>120</ele>
      </trkpt>
      <trkpt lat="36.74805" lon="28.11247">
        <ele>121.9</ele>
      </trkpt>
      <trkpt lat="36.74816" lon="28.11238">
        <ele>125.1</ele>
      </trkpt>
      <trkpt lat="36.74833" lon="28.11232">
        <ele>126.8</ele>
      </trkpt>
      <trkpt lat="36.74838" lon="28.1123">
        <ele>128.4</ele>
      </trkpt>
      <trkpt lat="36.74832" lon="28.11222">
        <ele>130.7</ele>
      </trkpt>
      <trkpt lat="36.74818" lon="28.1122">
        <ele>131.9</ele>
      </trkpt>
      <trkpt lat="36.74804" lon="28.11219">
        <ele>132.6</ele>
      </trkpt>
      <trkpt lat="36.74787" lon="28.11217">
        <ele>133.8</ele>
      </trkpt>
      <trkpt lat="36.74774" lon="28.11214">
        <ele>135.1</ele>
      </trkpt>
      <trkpt lat="36.74755" lon="28.11208">
        <ele>137.6</ele>
      </trkpt>
      <trkpt lat="36.74745" lon="28.11208">
        <ele>139.7</ele>
      </trkpt>
      <trkpt lat="36.74733" lon="28.11213">
        <ele>143.1</ele>
      </trkpt>
      <trkpt lat="36.74721" lon="28.11218">
        <ele>146.5</ele>
      </trkpt>
      <trkpt lat="36.74711" lon="28.11237">
        <ele>143.9</ele>
      </trkpt>
      <trkpt lat="36.747" lon="28.11254">
        <ele>142.1</ele>
      </trkpt>
      <trkpt lat="36.74691" lon="28.11265">
        <ele>141.6</ele>
      </trkpt>
      <trkpt lat="36.74688" lon="28.11269">
        <ele>141.3</ele>
      </trkpt>
      <trkpt lat="36.74675" lon="28.11287">
        <ele>138.9</ele>
      </trkpt>
      <trkpt lat="36.74662" lon="28.11299">
        <ele>138.2</ele>
      </trkpt>
      <trkpt lat="36.7465" lon="28.11306">
        <ele>136.2</ele>
      </trkpt>
      <trkpt lat="36.74634" lon="28.11304">
        <ele>139</ele>
      </trkpt>
      <trkpt lat="36.74618" lon="28.11301">
        <ele>142.2</ele>
      </trkpt>
      <trkpt lat="36.74602" lon="28.11298">
        <ele>145.8</ele>
      </trkpt>
      <trkpt lat="36.74599" lon="28.11297">
        <ele>146.7</ele>
      </trkpt>
      <trkpt lat="36.74601" lon="28.11292">
        <ele>148.9</ele>
      </trkpt>
      <trkpt lat="36.74601" lon="28.11292">
        <ele>149.2</ele>
      </trkpt>
      <trkpt lat="36.74585" lon="28.11285">
        <ele>154.9</ele>
      </trkpt>
      <trkpt lat="36.74585" lon="28.11285">
        <ele>154.9</ele>
      </trkpt>
      <trkpt lat="36.74575" lon="28.11286">
        <ele>155.7</ele>
      </trkpt>
      <trkpt lat="36.74559" lon="28.11284">
        <ele>158.8</ele>
      </trkpt>
      <trkpt lat="36.74547" lon="28.11289">
        <ele>157.9</ele>
      </trkpt>
      <trkpt lat="36.74536" lon="28.11291">
        <ele>158.2</ele>
      </trkpt>
      <trkpt lat="36.74528" lon="28.11295">
        <ele>157.7</ele>
      </trkpt>
      <trkpt lat="36.74508" lon="28.11298">
        <ele>159.1</ele>
      </trkpt>
      <trkpt lat="36.74498" lon="28.11294">
        <ele>162.2</ele>
      </trkpt>
      <trkpt lat="36.74484" lon="28.1129">
        <ele>165.6</ele>
      </trkpt>
      <trkpt lat="36.7447" lon="28.11287">
        <ele>168.6</ele>
      </trkpt>
      <trkpt lat="36.74456" lon="28.11287">
        <ele>170.2</ele>
      </trkpt>
      <trkpt lat="36.74442" lon="28.11294">
        <ele>169.8</ele>
      </trkpt>
      <trkpt lat="36.74433" lon="28.11297">
        <ele>170.3</ele>
      </trkpt>
      <trkpt lat="36.74421" lon="28.1131">
        <ele>168.5</ele>
      </trkpt>
      <trkpt lat="36.74419" lon="28.1131">
        <ele>168.6</ele>
      </trkpt>
      <trkpt lat="36.74412" lon="28.11309">
        <ele>169.9</ele>
      </trkpt>
      <trkpt lat="36.74403" lon="28.11307">
        <ele>171.6</ele>
      </trkpt>
      <trkpt lat="36.74402" lon="28.11307">
        <ele>171.8</ele>
      </trkpt>
      <trkpt lat="36.74386" lon="28.11308">
        <ele>173.5</ele>
      </trkpt>
      <trkpt lat="36.74383" lon="28.11309">
        <ele>173.6</ele>
      </trkpt>
      <trkpt lat="36.74367" lon="28.11312">
        <ele>174.6</ele>
      </trkpt>
      <trkpt lat="36.74354" lon="28.11313">
        <ele>175.9</ele>
      </trkpt>
      <trkpt lat="36.74352" lon="28.11312">
        <ele>176.5</ele>
      </trkpt>
      <trkpt lat="36.74341" lon="28.11309">
        <ele>178.8</ele>
      </trkpt>
      <trkpt lat="36.7432" lon="28.11305">
        <ele>180.4</ele>
      </trkpt>
      <trkpt lat="36.74304" lon="28.11309">
        <ele>178.1</ele>
      </trkpt>
      <trkpt lat="36.74286" lon="28.11316">
        <ele>174.5</ele>
      </trkpt>
      <trkpt lat="36.74273" lon="28.11321">
        <ele>171.4</ele>
      </trkpt>
      <trkpt lat="36.74262" lon="28.1132">
        <ele>171.4</ele>
      </trkpt>
      <trkpt lat="36.74246" lon="28.11314">
        <ele>172.4</ele>
      </trkpt>
      <trkpt lat="36.74229" lon="28.11309">
        <ele>173</ele>
      </trkpt>
      <trkpt lat="36.74218" lon="28.113">
        <ele>175.3</ele>
      </trkpt>
      <trkpt lat="36.74206" lon="28.11298">
        <ele>174.7</ele>
      </trkpt>
      <trkpt lat="36.7419" lon="28.11298">
        <ele>173.2</ele>
      </trkpt>
      <trkpt lat="36.74178" lon="28.11301">
        <ele>170.6</ele>
      </trkpt>
      <trkpt lat="36.74171" lon="28.113">
        <ele>170.2</ele>
      </trkpt>
      <trkpt lat="36.74163" lon="28.11299">
        <ele>169.9</ele>
      </trkpt>
      <trkpt lat="36.74152" lon="28.113">
        <ele>168.3</ele>
      </trkpt>
      <trkpt lat="36.74141" lon="28.11301">
        <ele>166.7</ele>
      </trkpt>
      <trkpt lat="36.74127" lon="28.11309">
        <ele>163.3</ele>
      </trkpt>
      <trkpt lat="36.74111" lon="28.11314">
        <ele>161.1</ele>
      </trkpt>
      <trkpt lat="36.74092" lon="28.11312">
        <ele>160.4</ele>
      </trkpt>
      <trkpt lat="36.74079" lon="28.11308">
        <ele>160.3</ele>
      </trkpt>
      <trkpt lat="36.74075" lon="28.1131">
        <ele>160</ele>
      </trkpt>
      <trkpt lat="36.74076" lon="28.11309">
        <ele>160.1</ele>
      </trkpt>
      <trkpt lat="36.74059" lon="28.11307">
        <ele>160.2</ele>
      </trkpt>
      <trkpt lat="36.74055" lon="28.11304">
        <ele>160.4</ele>
      </trkpt>
      <trkpt lat="36.74045" lon="28.11313">
        <ele>159.3</ele>
      </trkpt>
      <trkpt lat="36.74034" lon="28.11323">
        <ele>158.1</ele>
      </trkpt>
      <trkpt lat="36.74029" lon="28.11328">
        <ele>157.6</ele>
      </trkpt>
      <trkpt lat="36.74019" lon="28.1134">
        <ele>158.4</ele>
      </trkpt>
      <trkpt lat="36.74007" lon="28.11352">
        <ele>160.9</ele>
      </trkpt>
      <trkpt lat="36.73995" lon="28.11361">
        <ele>163.1</ele>
      </trkpt>
      <trkpt lat="36.73987" lon="28.11382">
        <ele>167.1</ele>
      </trkpt>
      <trkpt lat="36.73979" lon="28.11399">
        <ele>169.2</ele>
      </trkpt>
      <trkpt lat="36.73972" lon="28.11416">
        <ele>170.5</ele>
      </trkpt>
      <trkpt lat="36.73962" lon="28.1143">
        <ele>171</ele>
      </trkpt>
      <trkpt lat="36.73943" lon="28.11442">
        <ele>168.9</ele>
      </trkpt>
      <trkpt lat="36.73931" lon="28.11447">
        <ele>167</ele>
      </trkpt>
      <trkpt lat="36.73932" lon="28.11446">
        <ele>167</ele>
      </trkpt>
      <trkpt lat="36.73926" lon="28.11462">
        <ele>167</ele>
      </trkpt>
      <trkpt lat="36.73914" lon="28.11488">
        <ele>166.1</ele>
      </trkpt>
      <trkpt lat="36.73907" lon="28.11506">
        <ele>166.6</ele>
      </trkpt>
      <trkpt lat="36.73907" lon="28.11528">
        <ele>167.8</ele>
      </trkpt>
      <trkpt lat="36.73904" lon="28.11544">
        <ele>167.8</ele>
      </trkpt>
      <trkpt lat="36.73897" lon="28.11562">
        <ele>166.8</ele>
      </trkpt>
      <trkpt lat="36.73892" lon="28.11584">
        <ele>165.5</ele>
      </trkpt>
      <trkpt lat="36.73893" lon="28.11609">
        <ele>166.4</ele>
      </trkpt>
      <trkpt lat="36.73889" lon="28.11629">
        <ele>165.4</ele>
      </trkpt>
      <trkpt lat="36.73886" lon="28.11649">
        <ele>164.6</ele>
      </trkpt>
      <trkpt lat="36.73882" lon="28.11676">
        <ele>163.2</ele>
      </trkpt>
      <trkpt lat="36.73886" lon="28.11692">
        <ele>163.6</ele>
      </trkpt>
      <trkpt lat="36.73884" lon="28.11691">
        <ele>163.3</ele>
      </trkpt>
      <trkpt lat="36.73886" lon="28.11689">
        <ele>163.8</ele>
      </trkpt>
      <trkpt lat="36.73887" lon="28.11715">
        <ele>163</ele>
      </trkpt>
      <trkpt lat="36.73888" lon="28.11731">
        <ele>162.4</ele>
      </trkpt>
      <trkpt lat="36.7389" lon="28.11747">
        <ele>162</ele>
      </trkpt>
      <trkpt lat="36.73895" lon="28.11768">
        <ele>162.5</ele>
      </trkpt>
      <trkpt lat="36.73893" lon="28.11788">
        <ele>161.7</ele>
      </trkpt>
      <trkpt lat="36.73893" lon="28.11793">
        <ele>161.6</ele>
      </trkpt>
      <trkpt lat="36.7389" lon="28.11813">
        <ele>160.5</ele>
      </trkpt>
      <trkpt lat="36.73879" lon="28.11824">
        <ele>158.7</ele>
      </trkpt>
      <trkpt lat="36.73874" lon="28.11825">
        <ele>157.9</ele>
      </trkpt>
      <trkpt lat="36.73874" lon="28.11825">
        <ele>157.9</ele>
      </trkpt>
      <trkpt lat="36.73871" lon="28.11832">
        <ele>157.4</ele>
      </trkpt>
      <trkpt lat="36.73871" lon="28.11832">
        <ele>157.4</ele>
      </trkpt>
      <trkpt lat="36.73866" lon="28.11843">
        <ele>157.6</ele>
      </trkpt>
      <trkpt lat="36.73862" lon="28.11857">
        <ele>157.9</ele>
      </trkpt>
      <trkpt lat="36.73857" lon="28.11868">
        <ele>158.1</ele>
      </trkpt>
      <trkpt lat="36.73847" lon="28.1188">
        <ele>157.6</ele>
      </trkpt>
      <trkpt lat="36.73841" lon="28.11897">
        <ele>157.8</ele>
      </trkpt>
      <trkpt lat="36.73835" lon="28.11915">
        <ele>158.2</ele>
      </trkpt>
      <trkpt lat="36.73832" lon="28.11933">
        <ele>159.1</ele>
      </trkpt>
      <trkpt lat="36.73824" lon="28.11948">
        <ele>160.4</ele>
      </trkpt>
      <trkpt lat="36.73823" lon="28.11968">
        <ele>161.4</ele>
      </trkpt>
      <trkpt lat="36.73828" lon="28.11986">
        <ele>162.3</ele>
      </trkpt>
      <trkpt lat="36.73829" lon="28.11997">
        <ele>162.8</ele>
      </trkpt>
      <trkpt lat="36.7383" lon="28.12014">
        <ele>164.2</ele>
      </trkpt>
      <trkpt lat="36.73832" lon="28.12028">
        <ele>165.4</ele>
      </trkpt>
      <trkpt lat="36.73832" lon="28.12034">
        <ele>165.9</ele>
      </trkpt>
      <trkpt lat="36.73833" lon="28.12048">
        <ele>167</ele>
      </trkpt>
      <trkpt lat="36.73837" lon="28.12051">
        <ele>167.3</ele>
      </trkpt>
      <trkpt lat="36.73837" lon="28.12051">
        <ele>167.3</ele>
      </trkpt>
      <trkpt lat="36.73838" lon="28.12051">
        <ele>167.3</ele>
      </trkpt>
      <trkpt lat="36.73839" lon="28.1205">
        <ele>167.2</ele>
      </trkpt>
      <trkpt lat="36.7384" lon="28.1205">
        <ele>167.3</ele>
      </trkpt>
      <trkpt lat="36.73841" lon="28.1205">
        <ele>167.3</ele>
      </trkpt>
      <trkpt lat="36.73842" lon="28.1205">
        <ele>167.2</ele>
      </trkpt>
      <trkpt lat="36.73843" lon="28.12049">
        <ele>167.2</ele>
      </trkpt>
      <trkpt lat="36.73843" lon="28.12049">
        <ele>167.2</ele>
      </trkpt>
      <trkpt lat="36.73832" lon="28.12065">
        <ele>168.6</ele>
      </trkpt>
      <trkpt lat="36.73827" lon="28.12082">
        <ele>170.8</ele>
      </trkpt>
      <trkpt lat="36.73828" lon="28.12085">
        <ele>171</ele>
      </trkpt>
      <trkpt lat="36.73829" lon="28.1209">
        <ele>171.7</ele>
      </trkpt>
      <trkpt lat="36.73828" lon="28.12103">
        <ele>173.9</ele>
      </trkpt>
      <trkpt lat="36.7383" lon="28.12118">
        <ele>175.9</ele>
      </trkpt>
      <trkpt lat="36.73829" lon="28.12131">
        <ele>178</ele>
      </trkpt>
      <trkpt lat="36.73828" lon="28.12133">
        <ele>178.6</ele>
      </trkpt>
      <trkpt lat="36.7383" lon="28.1214">
        <ele>179.2</ele>
      </trkpt>
      <trkpt lat="36.7383" lon="28.12152">
        <ele>181</ele>
      </trkpt>
      <trkpt lat="36.73832" lon="28.12163">
        <ele>181.9</ele>
      </trkpt>
      <trkpt lat="36.73834" lon="28.12174">
        <ele>183.6</ele>
      </trkpt>
      <trkpt lat="36.73835" lon="28.12181">
        <ele>184.7</ele>
      </trkpt>
      <trkpt lat="36.73834" lon="28.1219">
        <ele>187.2</ele>
      </trkpt>
      <trkpt lat="36.73834" lon="28.1219">
        <ele>187.5</ele>
      </trkpt>
      <trkpt lat="36.73828" lon="28.12196">
        <ele>190.2</ele>
      </trkpt>
      <trkpt lat="36.73826" lon="28.12195">
        <ele>190.7</ele>
      </trkpt>
      <trkpt lat="36.7382" lon="28.12193">
        <ele>191.6</ele>
      </trkpt>
      <trkpt lat="36.73816" lon="28.12193">
        <ele>192.6</ele>
      </trkpt>
      <trkpt lat="36.73816" lon="28.12194">
        <ele>192.9</ele>
      </trkpt>
      <trkpt lat="36.73815" lon="28.12202">
        <ele>194.5</ele>
      </trkpt>
      <trkpt lat="36.73815" lon="28.12203">
        <ele>194.6</ele>
      </trkpt>
      <trkpt lat="36.73815" lon="28.12204">
        <ele>194.8</ele>
      </trkpt>
      <trkpt lat="36.73815" lon="28.12205">
        <ele>195.1</ele>
      </trkpt>
      <trkpt lat="36.73815" lon="28.12207">
        <ele>195.4</ele>
      </trkpt>
      <trkpt lat="36.73815" lon="28.12208">
        <ele>195.6</ele>
      </trkpt>
      <trkpt lat="36.73815" lon="28.12209">
        <ele>195.6</ele>
      </trkpt>
      <trkpt lat="36.73816" lon="28.12212">
        <ele>196.1</ele>
      </trkpt>
      <trkpt lat="36.73815" lon="28.12229">
        <ele>199.2</ele>
      </trkpt>
      <trkpt lat="36.73826" lon="28.12229">
        <ele>197.7</ele>
      </trkpt>
      <trkpt lat="36.73827" lon="28.12228">
        <ele>197.6</ele>
      </trkpt>
      <trkpt lat="36.7384" lon="28.12231">
        <ele>194.4</ele>
      </trkpt>
      <trkpt lat="36.73847" lon="28.12234">
        <ele>191.3</ele>
      </trkpt>
      <trkpt lat="36.73851" lon="28.12238">
        <ele>190.1</ele>
      </trkpt>
      <trkpt lat="36.73853" lon="28.12242">
        <ele>189.6</ele>
      </trkpt>
      <trkpt lat="36.73857" lon="28.12245">
        <ele>187.9</ele>
      </trkpt>
      <trkpt lat="36.73863" lon="28.12253">
        <ele>186.1</ele>
      </trkpt>
      <trkpt lat="36.73864" lon="28.12256">
        <ele>185.7</ele>
      </trkpt>
      <trkpt lat="36.73861" lon="28.12264">
        <ele>188.7</ele>
      </trkpt>
      <trkpt lat="36.73855" lon="28.12272">
        <ele>193.3</ele>
      </trkpt>
      <trkpt lat="36.73856" lon="28.12281">
        <ele>193.8</ele>
      </trkpt>
      <trkpt lat="36.73862" lon="28.12286">
        <ele>191.1</ele>
      </trkpt>
      <trkpt lat="36.73868" lon="28.12292">
        <ele>187.9</ele>
      </trkpt>
      <trkpt lat="36.73867" lon="28.12293">
        <ele>188.2</ele>
      </trkpt>
      <trkpt lat="36.73868" lon="28.12292">
        <ele>188</ele>
      </trkpt>
      <trkpt lat="36.73868" lon="28.12292">
        <ele>188</ele>
      </trkpt>
      <trkpt lat="36.73868" lon="28.12293">
        <ele>187.9</ele>
      </trkpt>
      <trkpt lat="36.73868" lon="28.12293">
        <ele>187.9</ele>
      </trkpt>
      <trkpt lat="36.73867" lon="28.12293">
        <ele>188.6</ele>
      </trkpt>
      <trkpt lat="36.73859" lon="28.12287">
        <ele>192.7</ele>
      </trkpt>
      <trkpt lat="36.73854" lon="28.12288">
        <ele>196.5</ele>
      </trkpt>
      <trkpt lat="36.73848" lon="28.12289">
        <ele>200.7</ele>
      </trkpt>
      <trkpt lat="36.73846" lon="28.12288">
        <ele>201.7</ele>
      </trkpt>
      <trkpt lat="36.73839" lon="28.12284">
        <ele>205.4</ele>
      </trkpt>
      <trkpt lat="36.73837" lon="28.12286">
        <ele>207.1</ele>
      </trkpt>
      <trkpt lat="36.73831" lon="28.12294">
        <ele>211.1</ele>
      </trkpt>
      <trkpt lat="36.73829" lon="28.12297">
        <ele>211.7</ele>
      </trkpt>
      <trkpt lat="36.73828" lon="28.12298">
        <ele>211.9</ele>
      </trkpt>
      <trkpt lat="36.73825" lon="28.12303">
        <ele>213</ele>
      </trkpt>
      <trkpt lat="36.73821" lon="28.12308">
        <ele>213.9</ele>
      </trkpt>
      <trkpt lat="36.73809" lon="28.12312">
        <ele>214.9</ele>
      </trkpt>
      <trkpt lat="36.73806" lon="28.12316">
        <ele>215.7</ele>
      </trkpt>
      <trkpt lat="36.73805" lon="28.12322">
        <ele>216.9</ele>
      </trkpt>
      <trkpt lat="36.73798" lon="28.12325">
        <ele>217.4</ele>
      </trkpt>
      <trkpt lat="36.73792" lon="28.12324">
        <ele>217.4</ele>
      </trkpt>
      <trkpt lat="36.73783" lon="28.12328">
        <ele>218</ele>
      </trkpt>
      <trkpt lat="36.73779" lon="28.12334">
        <ele>219.1</ele>
      </trkpt>
      <trkpt lat="36.73777" lon="28.12344">
        <ele>221.1</ele>
      </trkpt>
      <trkpt lat="36.73778" lon="28.12352">
        <ele>222.6</ele>
      </trkpt>
      <trkpt lat="36.73783" lon="28.12358">
        <ele>223.4</ele>
      </trkpt>
      <trkpt lat="36.73788" lon="28.12362">
        <ele>224</ele>
      </trkpt>
      <trkpt lat="36.7379" lon="28.12366">
        <ele>224.6</ele>
      </trkpt>
      <trkpt lat="36.73791" lon="28.12372">
        <ele>225.6</ele>
      </trkpt>
      <trkpt lat="36.73786" lon="28.12377">
        <ele>226.7</ele>
      </trkpt>
      <trkpt lat="36.73781" lon="28.12382">
        <ele>228</ele>
      </trkpt>
      <trkpt lat="36.73782" lon="28.1239">
        <ele>229.5</ele>
      </trkpt>
      <trkpt lat="36.73785" lon="28.12392">
        <ele>229.4</ele>
      </trkpt>
      <trkpt lat="36.73788" lon="28.12394">
        <ele>229.6</ele>
      </trkpt>
      <trkpt lat="36.73784" lon="28.124">
        <ele>231</ele>
      </trkpt>
      <trkpt lat="36.73785" lon="28.12406">
        <ele>232</ele>
      </trkpt>
      <trkpt lat="36.73784" lon="28.12407">
        <ele>232.4</ele>
      </trkpt>
      <trkpt lat="36.73784" lon="28.12412">
        <ele>233.3</ele>
      </trkpt>
      <trkpt lat="36.73783" lon="28.12416">
        <ele>234.1</ele>
      </trkpt>
      <trkpt lat="36.73786" lon="28.12424">
        <ele>233.4</ele>
      </trkpt>
      <trkpt lat="36.73784" lon="28.12425">
        <ele>233.6</ele>
      </trkpt>
      <trkpt lat="36.73776" lon="28.12433">
        <ele>234.6</ele>
      </trkpt>
      <trkpt lat="36.7377" lon="28.12444">
        <ele>235.2</ele>
      </trkpt>
      <trkpt lat="36.73768" lon="28.12448">
        <ele>235.3</ele>
      </trkpt>
      <trkpt lat="36.73771" lon="28.1245">
        <ele>234.7</ele>
      </trkpt>
      <trkpt lat="36.73772" lon="28.12449">
        <ele>234.4</ele>
      </trkpt>
      <trkpt lat="36.73778" lon="28.1245">
        <ele>233.5</ele>
      </trkpt>
      <trkpt lat="36.73779" lon="28.12451">
        <ele>233.1</ele>
      </trkpt>
      <trkpt lat="36.73781" lon="28.1246">
        <ele>232.3</ele>
      </trkpt>
      <trkpt lat="36.73781" lon="28.12462">
        <ele>232.1</ele>
      </trkpt>
      <trkpt lat="36.7378" lon="28.12466">
        <ele>232.2</ele>
      </trkpt>
      <trkpt lat="36.7378" lon="28.12468">
        <ele>232.2</ele>
      </trkpt>
      <trkpt lat="36.7378" lon="28.12467">
        <ele>232.1</ele>
      </trkpt>
      <trkpt lat="36.7378" lon="28.12467">
        <ele>232.1</ele>
      </trkpt>
      <trkpt lat="36.7378" lon="28.12467">
        <ele>232.1</ele>
      </trkpt>
      <trkpt lat="36.7378" lon="28.12467">
        <ele>232.1</ele>
      </trkpt>
      <trkpt lat="36.7378" lon="28.12467">
        <ele>232.2</ele>
      </trkpt>
      <trkpt lat="36.7378" lon="28.12467">
        <ele>232.2</ele>
      </trkpt>
      <trkpt lat="36.7378" lon="28.12467">
        <ele>232.2</ele>
      </trkpt>
      <trkpt lat="36.7378" lon="28.12467">
        <ele>232.2</ele>
      </trkpt>
      <trkpt lat="36.7378" lon="28.12467">
        <ele>232.2</ele>
      </trkpt>
      <trkpt lat="36.7378" lon="28.12467">
        <ele>232.2</ele>
      </trkpt>
      <trkpt lat="36.73775" lon="28.12462">
        <ele>233.3</ele>
      </trkpt>
      <trkpt lat="36.73773" lon="28.12456">
        <ele>234.1</ele>
      </trkpt>
      <trkpt lat="36.73772" lon="28.12456">
        <ele>234.2</ele>
      </trkpt>
      <trkpt lat="36.7377" lon="28.12458">
        <ele>234.6</ele>
      </trkpt>
      <trkpt lat="36.73767" lon="28.12468">
        <ele>234.8</ele>
      </trkpt>
      <trkpt lat="36.73764" lon="28.12471">
        <ele>235.3</ele>
      </trkpt>
      <trkpt lat="36.73764" lon="28.12476">
        <ele>235.3</ele>
      </trkpt>
      <trkpt lat="36.7376" lon="28.12488">
        <ele>235.7</ele>
      </trkpt>
      <trkpt lat="36.7376" lon="28.12489">
        <ele>235.7</ele>
      </trkpt>
      <trkpt lat="36.73761" lon="28.12495">
        <ele>235.3</ele>
      </trkpt>
      <trkpt lat="36.7376" lon="28.12511">
        <ele>232.7</ele>
      </trkpt>
      <trkpt lat="36.73757" lon="28.12512">
        <ele>233.2</ele>
      </trkpt>
      <trkpt lat="36.73755" lon="28.12511">
        <ele>234</ele>
      </trkpt>
      <trkpt lat="36.73752" lon="28.12512">
        <ele>234.5</ele>
      </trkpt>
      <trkpt lat="36.73747" lon="28.12521">
        <ele>231.8</ele>
      </trkpt>
      <trkpt lat="36.73747" lon="28.1252">
        <ele>232.3</ele>
      </trkpt>
      <trkpt lat="36.73749" lon="28.1251">
        <ele>235</ele>
      </trkpt>
      <trkpt lat="36.7375" lon="28.12507">
        <ele>236.2</ele>
      </trkpt>
      <trkpt lat="36.7375" lon="28.12506">
        <ele>236.4</ele>
      </trkpt>
      <trkpt lat="36.7375" lon="28.12506">
        <ele>236.5</ele>
      </trkpt>
      <trkpt lat="36.73749" lon="28.12503">
        <ele>236.8</ele>
      </trkpt>
      <trkpt lat="36.73744" lon="28.12498">
        <ele>235.8</ele>
      </trkpt>
      <trkpt lat="36.73739" lon="28.12487">
        <ele>233.5</ele>
      </trkpt>
      <trkpt lat="36.73742" lon="28.12484">
        <ele>234.6</ele>
      </trkpt>
      <trkpt lat="36.73742" lon="28.12478">
        <ele>234.7</ele>
      </trkpt>
      <trkpt lat="36.7374" lon="28.1247">
        <ele>233.2</ele>
      </trkpt>
      <trkpt lat="36.73741" lon="28.12468">
        <ele>233.6</ele>
      </trkpt>
      <trkpt lat="36.7374" lon="28.12464">
        <ele>233.3</ele>
      </trkpt>
      <trkpt lat="36.73734" lon="28.12456">
        <ele>229.6</ele>
      </trkpt>
      <trkpt lat="36.73737" lon="28.12449">
        <ele>231.1</ele>
      </trkpt>
      <trkpt lat="36.73737" lon="28.12444">
        <ele>230.9</ele>
      </trkpt>
      <trkpt lat="36.73736" lon="28.12436">
        <ele>229.9</ele>
      </trkpt>
      <trkpt lat="36.73738" lon="28.12435">
        <ele>231</ele>
      </trkpt>
      <trkpt lat="36.73739" lon="28.12433">
        <ele>231.8</ele>
      </trkpt>
      <trkpt lat="36.73746" lon="28.12428">
        <ele>236.4</ele>
      </trkpt>
      <trkpt lat="36.73745" lon="28.12423">
        <ele>235.3</ele>
      </trkpt>
      <trkpt lat="36.73746" lon="28.12424">
        <ele>235.9</ele>
      </trkpt>
      <trkpt lat="36.73753" lon="28.1242">
        <ele>238.5</ele>
      </trkpt>
      <trkpt lat="36.73754" lon="28.12417">
        <ele>238.4</ele>
      </trkpt>
      <trkpt lat="36.73758" lon="28.12417">
        <ele>237.9</ele>
      </trkpt>
      <trkpt lat="36.73766" lon="28.12411">
        <ele>235.5</ele>
      </trkpt>
      <trkpt lat="36.73769" lon="28.12408">
        <ele>234.6</ele>
      </trkpt>
      <trkpt lat="36.7377" lon="28.12402">
        <ele>233</ele>
      </trkpt>
      <trkpt lat="36.73771" lon="28.12401">
        <ele>232.8</ele>
      </trkpt>
      <trkpt lat="36.73772" lon="28.1239">
        <ele>230.4</ele>
      </trkpt>
      <trkpt lat="36.73772" lon="28.12389">
        <ele>230.2</ele>
      </trkpt>
      <trkpt lat="36.7378" lon="28.12385">
        <ele>228.8</ele>
      </trkpt>
      <trkpt lat="36.73779" lon="28.12383">
        <ele>228.3</ele>
      </trkpt>
      <trkpt lat="36.73784" lon="28.12378">
        <ele>227</ele>
      </trkpt>
      <trkpt lat="36.73787" lon="28.12373">
        <ele>226.1</ele>
      </trkpt>
      <trkpt lat="36.73788" lon="28.12367">
        <ele>224.8</ele>
      </trkpt>
      <trkpt lat="36.73787" lon="28.12366">
        <ele>224.7</ele>
      </trkpt>
      <trkpt lat="36.73785" lon="28.12361">
        <ele>224.1</ele>
      </trkpt>
      <trkpt lat="36.7378" lon="28.12356">
        <ele>223.3</ele>
      </trkpt>
      <trkpt lat="36.73776" lon="28.1235">
        <ele>222.2</ele>
      </trkpt>
      <trkpt lat="36.73776" lon="28.12346">
        <ele>221.5</ele>
      </trkpt>
      <trkpt lat="36.73766" lon="28.1234">
        <ele>220.5</ele>
      </trkpt>
      <trkpt lat="36.73761" lon="28.12335">
        <ele>219.5</ele>
      </trkpt>
      <trkpt lat="36.7376" lon="28.12336">
        <ele>219.5</ele>
      </trkpt>
      <trkpt lat="36.73772" lon="28.12329">
        <ele>218.3</ele>
      </trkpt>
      <trkpt lat="36.73767" lon="28.12324">
        <ele>217.4</ele>
      </trkpt>
      <trkpt lat="36.73764" lon="28.1232">
        <ele>216.8</ele>
      </trkpt>
      <trkpt lat="36.73759" lon="28.12324">
        <ele>217.4</ele>
      </trkpt>
      <trkpt lat="36.73757" lon="28.12326">
        <ele>217.9</ele>
      </trkpt>
      <trkpt lat="36.73753" lon="28.12316">
        <ele>216.2</ele>
      </trkpt>
      <trkpt lat="36.73751" lon="28.12308">
        <ele>215</ele>
      </trkpt>
      <trkpt lat="36.73751" lon="28.12303">
        <ele>214.2</ele>
      </trkpt>
      <trkpt lat="36.73751" lon="28.1229">
        <ele>212.2</ele>
      </trkpt>
      <trkpt lat="36.73751" lon="28.12281">
        <ele>210.8</ele>
      </trkpt>
      <trkpt lat="36.73751" lon="28.12274">
        <ele>209.8</ele>
      </trkpt>
      <trkpt lat="36.73751" lon="28.12255">
        <ele>206.7</ele>
      </trkpt>
      <trkpt lat="36.7375" lon="28.12246">
        <ele>206</ele>
      </trkpt>
      <trkpt lat="36.73749" lon="28.12243">
        <ele>205.5</ele>
      </trkpt>
      <trkpt lat="36.73744" lon="28.12227">
        <ele>203.5</ele>
      </trkpt>
      <trkpt lat="36.7374" lon="28.12215">
        <ele>201.7</ele>
      </trkpt>
      <trkpt lat="36.73741" lon="28.12213">
        <ele>202.2</ele>
      </trkpt>
      <trkpt lat="36.73738" lon="28.12207">
        <ele>200.9</ele>
      </trkpt>
      <trkpt lat="36.73733" lon="28.12194">
        <ele>198.6</ele>
      </trkpt>
      <trkpt lat="36.73732" lon="28.12191">
        <ele>198.2</ele>
      </trkpt>
      <trkpt lat="36.7373" lon="28.12189">
        <ele>197.2</ele>
      </trkpt>
      <trkpt lat="36.73724" lon="28.12188">
        <ele>193.5</ele>
      </trkpt>
      <trkpt lat="36.73723" lon="28.12189">
        <ele>192.8</ele>
      </trkpt>
      <trkpt lat="36.73723" lon="28.12187">
        <ele>193.3</ele>
      </trkpt>
      <trkpt lat="36.73723" lon="28.12187">
        <ele>193.1</ele>
      </trkpt>
      <trkpt lat="36.73723" lon="28.12187">
        <ele>193</ele>
      </trkpt>
      <trkpt lat="36.73723" lon="28.12187">
        <ele>192.8</ele>
      </trkpt>
      <trkpt lat="36.73723" lon="28.12187">
        <ele>192.8</ele>
      </trkpt>
      <trkpt lat="36.73723" lon="28.12187">
        <ele>192.8</ele>
      </trkpt>
      <trkpt lat="36.73723" lon="28.12187">
        <ele>192.8</ele>
      </trkpt>
      <trkpt lat="36.73723" lon="28.12187">
        <ele>192.8</ele>
      </trkpt>
      <trkpt lat="36.73722" lon="28.12187">
        <ele>192.7</ele>
      </trkpt>
      <trkpt lat="36.73722" lon="28.12187">
        <ele>192.7</ele>
      </trkpt>
      <trkpt lat="36.73722" lon="28.12187">
        <ele>192.7</ele>
      </trkpt>
      <trkpt lat="36.73722" lon="28.12187">
        <ele>192.7</ele>
      </trkpt>
      <trkpt lat="36.73725" lon="28.12185">
        <ele>194.6</ele>
      </trkpt>
      <trkpt lat="36.7373" lon="28.12182">
        <ele>197.5</ele>
      </trkpt>
      <trkpt lat="36.73733" lon="28.12182">
        <ele>199.2</ele>
      </trkpt>
      <trkpt lat="36.73735" lon="28.12181">
        <ele>200.5</ele>
      </trkpt>
      <trkpt lat="36.73734" lon="28.12179">
        <ele>200.2</ele>
      </trkpt>
      <trkpt lat="36.73732" lon="28.12175">
        <ele>199.3</ele>
      </trkpt>
      <trkpt lat="36.73732" lon="28.12174">
        <ele>199.1</ele>
      </trkpt>
      <trkpt lat="36.73731" lon="28.12161">
        <ele>197.3</ele>
      </trkpt>
      <trkpt lat="36.73731" lon="28.12155">
        <ele>195.3</ele>
      </trkpt>
      <trkpt lat="36.73733" lon="28.12154">
        <ele>196.6</ele>
      </trkpt>
      <trkpt lat="36.73739" lon="28.12152">
        <ele>198.9</ele>
      </trkpt>
      <trkpt lat="36.73746" lon="28.12154">
        <ele>203.3</ele>
      </trkpt>
      <trkpt lat="36.73758" lon="28.12156">
        <ele>204</ele>
      </trkpt>
      <trkpt lat="36.73766" lon="28.1216">
        <ele>202.5</ele>
      </trkpt>
      <trkpt lat="36.7377" lon="28.12159">
        <ele>200.9</ele>
      </trkpt>
      <trkpt lat="36.73771" lon="28.12159">
        <ele>200.8</ele>
      </trkpt>
      <trkpt lat="36.73778" lon="28.12157">
        <ele>198</ele>
      </trkpt>
      <trkpt lat="36.73783" lon="28.12163">
        <ele>197.9</ele>
      </trkpt>
      <trkpt lat="36.73784" lon="28.12164">
        <ele>197.9</ele>
      </trkpt>
      <trkpt lat="36.73793" lon="28.12169">
        <ele>195.9</ele>
      </trkpt>
      <trkpt lat="36.73795" lon="28.1217">
        <ele>195.2</ele>
      </trkpt>
      <trkpt lat="36.73804" lon="28.1218">
        <ele>193.8</ele>
      </trkpt>
      <trkpt lat="36.73805" lon="28.12181">
        <ele>193.7</ele>
      </trkpt>
      <trkpt lat="36.73806" lon="28.12194">
        <ele>195.2</ele>
      </trkpt>
      <trkpt lat="36.73806" lon="28.12207">
        <ele>197</ele>
      </trkpt>
      <trkpt lat="36.73815" lon="28.12202">
        <ele>194.5</ele>
      </trkpt>
      <trkpt lat="36.73815" lon="28.12202">
        <ele>194.5</ele>
      </trkpt>
      <trkpt lat="36.73816" lon="28.12194">
        <ele>192.9</ele>
      </trkpt>
      <trkpt lat="36.73816" lon="28.12193">
        <ele>192.6</ele>
      </trkpt>
      <trkpt lat="36.7382" lon="28.12193">
        <ele>191.6</ele>
      </trkpt>
      <trkpt lat="36.73826" lon="28.12195">
        <ele>190.7</ele>
      </trkpt>
      <trkpt lat="36.73828" lon="28.12196">
        <ele>190.2</ele>
      </trkpt>
      <trkpt lat="36.73834" lon="28.1219">
        <ele>187.5</ele>
      </trkpt>
      <trkpt lat="36.73834" lon="28.1219">
        <ele>187.2</ele>
      </trkpt>
      <trkpt lat="36.73835" lon="28.12181">
        <ele>184.7</ele>
      </trkpt>
      <trkpt lat="36.73834" lon="28.12174">
        <ele>183.6</ele>
      </trkpt>
      <trkpt lat="36.73832" lon="28.12163">
        <ele>181.9</ele>
      </trkpt>
      <trkpt lat="36.7383" lon="28.12152">
        <ele>181</ele>
      </trkpt>
      <trkpt lat="36.7383" lon="28.1214">
        <ele>179.2</ele>
      </trkpt>
      <trkpt lat="36.73828" lon="28.12133">
        <ele>178.6</ele>
      </trkpt>
      <trkpt lat="36.73829" lon="28.12131">
        <ele>178</ele>
      </trkpt>
      <trkpt lat="36.7383" lon="28.12118">
        <ele>175.9</ele>
      </trkpt>
      <trkpt lat="36.73828" lon="28.12103">
        <ele>173.9</ele>
      </trkpt>
      <trkpt lat="36.73829" lon="28.1209">
        <ele>171.7</ele>
      </trkpt>
      <trkpt lat="36.73828" lon="28.12085">
        <ele>171</ele>
      </trkpt>
      <trkpt lat="36.73827" lon="28.12082">
        <ele>170.8</ele>
      </trkpt>
      <trkpt lat="36.73832" lon="28.12065">
        <ele>168.6</ele>
      </trkpt>
      <trkpt lat="36.73843" lon="28.12049">
        <ele>167.2</ele>
      </trkpt>
      <trkpt lat="36.73843" lon="28.12049">
        <ele>167.2</ele>
      </trkpt>
      <trkpt lat="36.73843" lon="28.12049">
        <ele>167.2</ele>
      </trkpt>
      <trkpt lat="36.7386" lon="28.12042">
        <ele>167.3</ele>
      </trkpt>
      <trkpt lat="36.73866" lon="28.12046">
        <ele>167.5</ele>
      </trkpt>
      <trkpt lat="36.73866" lon="28.12046">
        <ele>167.5</ele>
      </trkpt>
      <trkpt lat="36.73865" lon="28.12049">
        <ele>167.4</ele>
      </trkpt>
      <trkpt lat="36.73867" lon="28.12051">
        <ele>167.4</ele>
      </trkpt>
      <trkpt lat="36.73868" lon="28.12052">
        <ele>167.4</ele>
      </trkpt>
      <trkpt lat="36.73872" lon="28.12056">
        <ele>167.4</ele>
      </trkpt>
      <trkpt lat="36.73886" lon="28.12056">
        <ele>167.2</ele>
      </trkpt>
      <trkpt lat="36.73898" lon="28.12067">
        <ele>166.1</ele>
      </trkpt>
      <trkpt lat="36.73898" lon="28.12067">
        <ele>166.1</ele>
      </trkpt>
      <trkpt lat="36.73906" lon="28.12083">
        <ele>164</ele>
      </trkpt>
      <trkpt lat="36.73913" lon="28.12091">
        <ele>162.7</ele>
      </trkpt>
      <trkpt lat="36.73918" lon="28.12092">
        <ele>162.1</ele>
      </trkpt>
      <trkpt lat="36.7392" lon="28.12104">
        <ele>160.7</ele>
      </trkpt>
      <trkpt lat="36.73926" lon="28.12112">
        <ele>159.1</ele>
      </trkpt>
      <trkpt lat="36.73931" lon="28.12119">
        <ele>157.3</ele>
      </trkpt>
      <trkpt lat="36.73935" lon="28.1212">
        <ele>156.6</ele>
      </trkpt>
      <trkpt lat="36.73938" lon="28.1212">
        <ele>156.1</ele>
      </trkpt>
      <trkpt lat="36.73945" lon="28.12115">
        <ele>156.1</ele>
      </trkpt>
      <trkpt lat="36.73946" lon="28.12127">
        <ele>153.3</ele>
      </trkpt>
      <trkpt lat="36.73946" lon="28.12129">
        <ele>152.8</ele>
      </trkpt>
      <trkpt lat="36.73953" lon="28.12129">
        <ele>151.3</ele>
      </trkpt>
      <trkpt lat="36.73963" lon="28.12131">
        <ele>149</ele>
      </trkpt>
      <trkpt lat="36.73964" lon="28.12131">
        <ele>148.7</ele>
      </trkpt>
      <trkpt lat="36.73971" lon="28.12137">
        <ele>145.7</ele>
      </trkpt>
      <trkpt lat="36.73972" lon="28.12136">
        <ele>145.5</ele>
      </trkpt>
      <trkpt lat="36.73978" lon="28.1214">
        <ele>142.9</ele>
      </trkpt>
      <trkpt lat="36.73987" lon="28.12143">
        <ele>139.5</ele>
      </trkpt>
      <trkpt lat="36.73987" lon="28.12144">
        <ele>139</ele>
      </trkpt>
      <trkpt lat="36.73991" lon="28.12149">
        <ele>136.4</ele>
      </trkpt>
      <trkpt lat="36.73998" lon="28.12153">
        <ele>132.4</ele>
      </trkpt>
      <trkpt lat="36.74008" lon="28.1216">
        <ele>127.8</ele>
      </trkpt>
      <trkpt lat="36.74015" lon="28.12165">
        <ele>124.5</ele>
      </trkpt>
      <trkpt lat="36.74026" lon="28.12172">
        <ele>119.8</ele>
      </trkpt>
      <trkpt lat="36.74029" lon="28.1218">
        <ele>116.2</ele>
      </trkpt>
      <trkpt lat="36.74038" lon="28.12178">
        <ele>115.6</ele>
      </trkpt>
      <trkpt lat="36.7404" lon="28.12187">
        <ele>111.5</ele>
      </trkpt>
      <trkpt lat="36.74049" lon="28.12188">
        <ele>109.6</ele>
      </trkpt>
      <trkpt lat="36.74053" lon="28.1219">
        <ele>108.1</ele>
      </trkpt>
      <trkpt lat="36.74062" lon="28.12192">
        <ele>105.7</ele>
      </trkpt>
      <trkpt lat="36.74063" lon="28.12183">
        <ele>109.4</ele>
      </trkpt>
      <trkpt lat="36.74078" lon="28.12181">
        <ele>107.8</ele>
      </trkpt>
      <trkpt lat="36.7409" lon="28.12183">
        <ele>105.4</ele>
      </trkpt>
      <trkpt lat="36.74099" lon="28.12185">
        <ele>104</ele>
      </trkpt>
      <trkpt lat="36.74108" lon="28.12183">
        <ele>104.1</ele>
      </trkpt>
      <trkpt lat="36.7411" lon="28.12183">
        <ele>104.1</ele>
      </trkpt>
      <trkpt lat="36.7412" lon="28.12183">
        <ele>103.2</ele>
      </trkpt>
      <trkpt lat="36.74124" lon="28.12189">
        <ele>99.9</ele>
      </trkpt>
      <trkpt lat="36.74124" lon="28.12196">
        <ele>96.5</ele>
      </trkpt>
      <trkpt lat="36.74121" lon="28.12199">
        <ele>95.3</ele>
      </trkpt>
      <trkpt lat="36.74123" lon="28.12207">
        <ele>90.9</ele>
      </trkpt>
      <trkpt lat="36.74123" lon="28.1221">
        <ele>89.9</ele>
      </trkpt>
      <trkpt lat="36.74114" lon="28.12217">
        <ele>87.4</ele>
      </trkpt>
      <trkpt lat="36.74113" lon="28.12218">
        <ele>87.2</ele>
      </trkpt>
      <trkpt lat="36.74112" lon="28.12224">
        <ele>84.2</ele>
      </trkpt>
      <trkpt lat="36.74123" lon="28.12222">
        <ele>83.5</ele>
      </trkpt>
      <trkpt lat="36.74129" lon="28.12227">
        <ele>80.3</ele>
      </trkpt>
      <trkpt lat="36.74132" lon="28.12236">
        <ele>75.4</ele>
      </trkpt>
      <trkpt lat="36.7414" lon="28.12239">
        <ele>72.6</ele>
      </trkpt>
      <trkpt lat="36.74141" lon="28.12246">
        <ele>68.7</ele>
      </trkpt>
      <trkpt lat="36.74143" lon="28.12254">
        <ele>64.8</ele>
      </trkpt>
      <trkpt lat="36.74144" lon="28.12262">
        <ele>61.3</ele>
      </trkpt>
      <trkpt lat="36.74146" lon="28.12265">
        <ele>59.4</ele>
      </trkpt>
      <trkpt lat="36.74149" lon="28.12266">
        <ele>58.4</ele>
      </trkpt>
      <trkpt lat="36.74163" lon="28.1227">
        <ele>54.3</ele>
      </trkpt>
      <trkpt lat="36.74168" lon="28.12271">
        <ele>53.1</ele>
      </trkpt>
      <trkpt lat="36.74168" lon="28.12275">
        <ele>51.2</ele>
      </trkpt>
      <trkpt lat="36.74162" lon="28.12285">
        <ele>48.1</ele>
      </trkpt>
      <trkpt lat="36.74168" lon="28.12288">
        <ele>45.8</ele>
      </trkpt>
      <trkpt lat="36.74168" lon="28.1229">
        <ele>45.3</ele>
      </trkpt>
      <trkpt lat="36.74168" lon="28.12296">
        <ele>42.8</ele>
      </trkpt>
      <trkpt lat="36.74168" lon="28.123">
        <ele>41.1</ele>
      </trkpt>
      <trkpt lat="36.7417" lon="28.12304">
        <ele>39.1</ele>
      </trkpt>
      <trkpt lat="36.7417" lon="28.12301">
        <ele>40.5</ele>
      </trkpt>
      <trkpt lat="36.74164" lon="28.12304">
        <ele>39.9</ele>
      </trkpt>
      <trkpt lat="36.74161" lon="28.12305">
        <ele>40.2</ele>
      </trkpt>
      <trkpt lat="36.74154" lon="28.12308">
        <ele>40.4</ele>
      </trkpt>
      <trkpt lat="36.74141" lon="28.12319">
        <ele>38.4</ele>
      </trkpt>
      <trkpt lat="36.7414" lon="28.12319">
        <ele>38.5</ele>
      </trkpt>
      <trkpt lat="36.74129" lon="28.12319">
        <ele>41</ele>
      </trkpt>
      <trkpt lat="36.74129" lon="28.12323">
        <ele>39.3</ele>
      </trkpt>
      <trkpt lat="36.74123" lon="28.12319">
        <ele>42.1</ele>
      </trkpt>
      <trkpt lat="36.7412" lon="28.12316">
        <ele>44.2</ele>
      </trkpt>
      <trkpt lat="36.74121" lon="28.12315">
        <ele>44</ele>
      </trkpt>
      <trkpt lat="36.74119" lon="28.12314">
        <ele>45</ele>
      </trkpt>
      <trkpt lat="36.74111" lon="28.12314">
        <ele>46.6</ele>
      </trkpt>
      <trkpt lat="36.741" lon="28.12313">
        <ele>49.3</ele>
      </trkpt>
      <trkpt lat="36.74097" lon="28.12323">
        <ele>46.3</ele>
      </trkpt>
      <trkpt lat="36.74101" lon="28.12327">
        <ele>43.8</ele>
      </trkpt>
      <trkpt lat="36.74101" lon="28.12327">
        <ele>43.8</ele>
      </trkpt>
      <trkpt lat="36.74101" lon="28.12327">
        <ele>43.9</ele>
      </trkpt>
      <trkpt lat="36.74097" lon="28.12336">
        <ele>41.9</ele>
      </trkpt>
      <trkpt lat="36.74092" lon="28.12336">
        <ele>43</ele>
      </trkpt>
      <trkpt lat="36.74097" lon="28.12335">
        <ele>41.9</ele>
      </trkpt>
      <trkpt lat="36.74094" lon="28.12333">
        <ele>43</ele>
      </trkpt>
      <trkpt lat="36.74093" lon="28.12338">
        <ele>42.7</ele>
      </trkpt>
      <trkpt lat="36.74087" lon="28.1235">
        <ele>43.2</ele>
      </trkpt>
      <trkpt lat="36.74088" lon="28.12346">
        <ele>43.1</ele>
      </trkpt>
      <trkpt lat="36.74084" lon="28.12358">
        <ele>43.4</ele>
      </trkpt>
      <trkpt lat="36.74084" lon="28.12358">
        <ele>43.3</ele>
      </trkpt>
      <trkpt lat="36.74087" lon="28.12368">
        <ele>42.2</ele>
      </trkpt>
      <trkpt lat="36.74085" lon="28.12383">
        <ele>41.7</ele>
      </trkpt>
      <trkpt lat="36.74089" lon="28.12399">
        <ele>39.7</ele>
      </trkpt>
      <trkpt lat="36.74084" lon="28.12402">
        <ele>40.7</ele>
      </trkpt>
      <trkpt lat="36.74081" lon="28.12404">
        <ele>41.9</ele>
      </trkpt>
      <trkpt lat="36.74083" lon="28.12409">
        <ele>40.6</ele>
      </trkpt>
      <trkpt lat="36.74084" lon="28.12424">
        <ele>39.4</ele>
      </trkpt>
      <trkpt lat="36.74082" lon="28.12426">
        <ele>40</ele>
      </trkpt>
      <trkpt lat="36.74083" lon="28.12445">
        <ele>38.8</ele>
      </trkpt>
      <trkpt lat="36.74083" lon="28.12443">
        <ele>38.4</ele>
      </trkpt>
      <trkpt lat="36.74088" lon="28.12456">
        <ele>36.5</ele>
      </trkpt>
      <trkpt lat="36.74089" lon="28.12457">
        <ele>36.3</ele>
      </trkpt>
      <trkpt lat="36.74088" lon="28.1247">
        <ele>35.7</ele>
      </trkpt>
      <trkpt lat="36.74088" lon="28.12474">
        <ele>35.5</ele>
      </trkpt>
      <trkpt lat="36.74089" lon="28.12476">
        <ele>35.1</ele>
      </trkpt>
      <trkpt lat="36.74088" lon="28.12478">
        <ele>35.2</ele>
      </trkpt>
      <trkpt lat="36.7409" lon="28.12483">
        <ele>34.6</ele>
      </trkpt>
      <trkpt lat="36.74098" lon="28.12499">
        <ele>32</ele>
      </trkpt>
      <trkpt lat="36.74098" lon="28.125">
        <ele>32</ele>
      </trkpt>
      <trkpt lat="36.74097" lon="28.12498">
        <ele>32.3</ele>
      </trkpt>
      <trkpt lat="36.74094" lon="28.12501">
        <ele>32.7</ele>
      </trkpt>
      <trkpt lat="36.74095" lon="28.12511">
        <ele>32.1</ele>
      </trkpt>
      <trkpt lat="36.74095" lon="28.12516">
        <ele>32.1</ele>
      </trkpt>
      <trkpt lat="36.74093" lon="28.12518">
        <ele>32.3</ele>
      </trkpt>
      <trkpt lat="36.74093" lon="28.12512">
        <ele>32.6</ele>
      </trkpt>
      <trkpt lat="36.74093" lon="28.12511">
        <ele>32.7</ele>
      </trkpt>
      <trkpt lat="36.74087" lon="28.12513">
        <ele>33.8</ele>
      </trkpt>
      <trkpt lat="36.74088" lon="28.1252">
        <ele>33.2</ele>
      </trkpt>
      <trkpt lat="36.74086" lon="28.12524">
        <ele>33.7</ele>
      </trkpt>
      <trkpt lat="36.74089" lon="28.12522">
        <ele>33</ele>
      </trkpt>
      <trkpt lat="36.74095" lon="28.12531">
        <ele>31.6</ele>
      </trkpt>
      <trkpt lat="36.74098" lon="28.12534">
        <ele>30.9</ele>
      </trkpt>
      <trkpt lat="36.741" lon="28.12531">
        <ele>30.5</ele>
      </trkpt>
      <trkpt lat="36.74103" lon="28.12528">
        <ele>30.2</ele>
      </trkpt>
      <trkpt lat="36.74105" lon="28.12535">
        <ele>29.5</ele>
      </trkpt>
      <trkpt lat="36.74118" lon="28.12542">
        <ele>26.8</ele>
      </trkpt>
      <trkpt lat="36.74124" lon="28.12543">
        <ele>25.8</ele>
      </trkpt>
      <trkpt lat="36.74127" lon="28.12543">
        <ele>25</ele>
      </trkpt>
      <trkpt lat="36.74129" lon="28.12544">
        <ele>24.7</ele>
      </trkpt>
      <trkpt lat="36.74147" lon="28.12549">
        <ele>21.4</ele>
      </trkpt>
      <trkpt lat="36.74147" lon="28.12549">
        <ele>21.4</ele>
      </trkpt>
      <trkpt lat="36.74147" lon="28.12549">
        <ele>21.3</ele>
      </trkpt>
      <trkpt lat="36.74147" lon="28.12548">
        <ele>21.3</ele>
      </trkpt>
      <trkpt lat="36.74147" lon="28.12549">
        <ele>21.3</ele>
      </trkpt>
      <trkpt lat="36.74155" lon="28.12549">
        <ele>19.7</ele>
      </trkpt>
      <trkpt lat="36.74159" lon="28.12549">
        <ele>19.1</ele>
      </trkpt>
      <trkpt lat="36.74162" lon="28.12549">
        <ele>18.5</ele>
      </trkpt>
      <trkpt lat="36.74164" lon="28.1255">
        <ele>18.2</ele>
      </trkpt>
      <trkpt lat="36.74163" lon="28.12554">
        <ele>18.3</ele>
      </trkpt>
      <trkpt lat="36.74161" lon="28.12554">
        <ele>18.8</ele>
      </trkpt>
      <trkpt lat="36.74159" lon="28.12557">
        <ele>19</ele>
      </trkpt>
      <trkpt lat="36.74158" lon="28.1256">
        <ele>19.2</ele>
      </trkpt>
      <trkpt lat="36.74157" lon="28.12563">
        <ele>19.4</ele>
      </trkpt>
      <trkpt lat="36.74156" lon="28.12566">
        <ele>19.6</ele>
      </trkpt>
      <trkpt lat="36.74155" lon="28.1257">
        <ele>19.9</ele>
      </trkpt>
      <trkpt lat="36.74154" lon="28.12573">
        <ele>20.1</ele>
      </trkpt>
      <trkpt lat="36.74152" lon="28.12575">
        <ele>20.4</ele>
      </trkpt>
      <trkpt lat="36.74151" lon="28.12578">
        <ele>20.7</ele>
      </trkpt>
      <trkpt lat="36.7415" lon="28.12581">
        <ele>20.8</ele>
      </trkpt>
      <trkpt lat="36.74149" lon="28.12584">
        <ele>21</ele>
      </trkpt>
      <trkpt lat="36.74148" lon="28.12587">
        <ele>21.1</ele>
      </trkpt>
      <trkpt lat="36.74148" lon="28.12592">
        <ele>21.3</ele>
      </trkpt>
      <trkpt lat="36.74146" lon="28.12594">
        <ele>21.5</ele>
      </trkpt>
      <trkpt lat="36.74145" lon="28.12597">
        <ele>21.7</ele>
      </trkpt>
      <trkpt lat="36.74144" lon="28.126">
        <ele>21.8</ele>
      </trkpt>
      <trkpt lat="36.74144" lon="28.12603">
        <ele>22</ele>
      </trkpt>
      <trkpt lat="36.74144" lon="28.12606">
        <ele>22</ele>
      </trkpt>
      <trkpt lat="36.74143" lon="28.12609">
        <ele>22.1</ele>
      </trkpt>
      <trkpt lat="36.74142" lon="28.12612">
        <ele>22.2</ele>
      </trkpt>
      <trkpt lat="36.74141" lon="28.12615">
        <ele>22.4</ele>
      </trkpt>
      <trkpt lat="36.7414" lon="28.12618">
        <ele>22.5</ele>
      </trkpt>
      <trkpt lat="36.74139" lon="28.1262">
        <ele>22.7</ele>
      </trkpt>
      <trkpt lat="36.74138" lon="28.12623">
        <ele>22.8</ele>
      </trkpt>
      <trkpt lat="36.74138" lon="28.12627">
        <ele>22.8</ele>
      </trkpt>
      <trkpt lat="36.74137" lon="28.1263">
        <ele>22.9</ele>
      </trkpt>
      <trkpt lat="36.74137" lon="28.12634">
        <ele>22.9</ele>
      </trkpt>
      <trkpt lat="36.74136" lon="28.12637">
        <ele>23</ele>
      </trkpt>
      <trkpt lat="36.74135" lon="28.1264">
        <ele>23.1</ele>
      </trkpt>
      <trkpt lat="36.74135" lon="28.12644">
        <ele>23.2</ele>
      </trkpt>
      <trkpt lat="36.74135" lon="28.12647">
        <ele>23.2</ele>
      </trkpt>
      <trkpt lat="36.74135" lon="28.12651">
        <ele>23.1</ele>
      </trkpt>
      <trkpt lat="36.74135" lon="28.12654">
        <ele>23.1</ele>
      </trkpt>
      <trkpt lat="36.74135" lon="28.12658">
        <ele>23.1</ele>
      </trkpt>
      <trkpt lat="36.74134" lon="28.12662">
        <ele>23.1</ele>
      </trkpt>
      <trkpt lat="36.74133" lon="28.12665">
        <ele>23.2</ele>
      </trkpt>
      <trkpt lat="36.74133" lon="28.12668">
        <ele>23.2</ele>
      </trkpt>
      <trkpt lat="36.74132" lon="28.12672">
        <ele>23.2</ele>
      </trkpt>
      <trkpt lat="36.74132" lon="28.12675">
        <ele>23.2</ele>
      </trkpt>
      <trkpt lat="36.74131" lon="28.12678">
        <ele>23.1</ele>
      </trkpt>
      <trkpt lat="36.7413" lon="28.12681">
        <ele>23.1</ele>
      </trkpt>
      <trkpt lat="36.7413" lon="28.12684">
        <ele>23.1</ele>
      </trkpt>
      <trkpt lat="36.74128" lon="28.12686">
        <ele>23.2</ele>
      </trkpt>
      <trkpt lat="36.74127" lon="28.12689">
        <ele>23.2</ele>
      </trkpt>
      <trkpt lat="36.74125" lon="28.1269">
        <ele>23.3</ele>
      </trkpt>
      <trkpt lat="36.74124" lon="28.12692">
        <ele>23.3</ele>
      </trkpt>
      <trkpt lat="36.74122" lon="28.12694">
        <ele>23.4</ele>
      </trkpt>
      <trkpt lat="36.7412" lon="28.12696">
        <ele>23.5</ele>
      </trkpt>
      <trkpt lat="36.74118" lon="28.12698">
        <ele>23.5</ele>
      </trkpt>
      <trkpt lat="36.74117" lon="28.12699">
        <ele>23.6</ele>
      </trkpt>
      <trkpt lat="36.74115" lon="28.12701">
        <ele>23.6</ele>
      </trkpt>
      <trkpt lat="36.74114" lon="28.12703">
        <ele>23.6</ele>
      </trkpt>
      <trkpt lat="36.74111" lon="28.12704">
        <ele>23.7</ele>
      </trkpt>
      <trkpt lat="36.74111" lon="28.12702">
        <ele>23.8</ele>
      </trkpt>
      <trkpt lat="36.74105" lon="28.12701">
        <ele>24.2</ele>
      </trkpt>
      <trkpt lat="36.74105" lon="28.12701">
        <ele>24.2</ele>
      </trkpt>
      <trkpt lat="36.74103" lon="28.12703">
        <ele>24.2</ele>
      </trkpt>
      <trkpt lat="36.74102" lon="28.12705">
        <ele>24.2</ele>
      </trkpt>
      <trkpt lat="36.741" lon="28.12707">
        <ele>24.2</ele>
      </trkpt>
      <trkpt lat="36.74099" lon="28.1271">
        <ele>24.1</ele>
      </trkpt>
      <trkpt lat="36.74097" lon="28.12711">
        <ele>24.1</ele>
      </trkpt>
      <trkpt lat="36.74096" lon="28.12713">
        <ele>24.1</ele>
      </trkpt>
      <trkpt lat="36.74095" lon="28.12715">
        <ele>24</ele>
      </trkpt>
      <trkpt lat="36.74087" lon="28.12718">
        <ele>24.1</ele>
      </trkpt>
      <trkpt lat="36.74085" lon="28.12719">
        <ele>24.1</ele>
      </trkpt>
      <trkpt lat="36.74084" lon="28.12721">
        <ele>24.1</ele>
      </trkpt>
      <trkpt lat="36.74081" lon="28.12724">
        <ele>24.8</ele>
      </trkpt>
      <trkpt lat="36.74078" lon="28.12725">
        <ele>25.5</ele>
      </trkpt>
      <trkpt lat="36.74076" lon="28.12727">
        <ele>26</ele>
      </trkpt>
      <trkpt lat="36.74075" lon="28.12729">
        <ele>26.3</ele>
      </trkpt>
      <trkpt lat="36.74072" lon="28.12732">
        <ele>27</ele>
      </trkpt>
      <trkpt lat="36.7407" lon="28.12733">
        <ele>27.5</ele>
      </trkpt>
      <trkpt lat="36.74067" lon="28.12735">
        <ele>28.2</ele>
      </trkpt>
      <trkpt lat="36.74064" lon="28.12737">
        <ele>29</ele>
      </trkpt>
      <trkpt lat="36.74061" lon="28.12742">
        <ele>29.6</ele>
      </trkpt>
      <trkpt lat="36.74059" lon="28.12744">
        <ele>29.8</ele>
      </trkpt>
      <trkpt lat="36.74055" lon="28.12747">
        <ele>30.5</ele>
      </trkpt>
      <trkpt lat="36.74053" lon="28.1275">
        <ele>30.7</ele>
      </trkpt>
      <trkpt lat="36.74052" lon="28.12752">
        <ele>31</ele>
      </trkpt>
      <trkpt lat="36.74048" lon="28.12755">
        <ele>31.6</ele>
      </trkpt>
      <trkpt lat="36.74046" lon="28.12757">
        <ele>32</ele>
      </trkpt>
      <trkpt lat="36.74043" lon="28.1276">
        <ele>32.5</ele>
      </trkpt>
      <trkpt lat="36.74041" lon="28.12762">
        <ele>32.8</ele>
      </trkpt>
      <trkpt lat="36.74039" lon="28.12766">
        <ele>32.6</ele>
      </trkpt>
      <trkpt lat="36.74037" lon="28.12769">
        <ele>32.6</ele>
      </trkpt>
      <trkpt lat="36.74035" lon="28.12772">
        <ele>32.6</ele>
      </trkpt>
      <trkpt lat="36.7403" lon="28.12778">
        <ele>32.7</ele>
      </trkpt>
      <trkpt lat="36.74027" lon="28.12783">
        <ele>32.7</ele>
      </trkpt>
      <trkpt lat="36.74025" lon="28.12784">
        <ele>32.9</ele>
      </trkpt>
      <trkpt lat="36.74024" lon="28.12787">
        <ele>32.6</ele>
      </trkpt>
      <trkpt lat="36.74022" lon="28.12789">
        <ele>32.6</ele>
      </trkpt>
      <trkpt lat="36.74019" lon="28.12793">
        <ele>32.3</ele>
      </trkpt>
      <trkpt lat="36.74018" lon="28.12795">
        <ele>32.2</ele>
      </trkpt>
      <trkpt lat="36.74016" lon="28.12798">
        <ele>31.9</ele>
      </trkpt>
      <trkpt lat="36.74012" lon="28.12803">
        <ele>31.5</ele>
      </trkpt>
      <trkpt lat="36.74011" lon="28.12805">
        <ele>31.3</ele>
      </trkpt>
      <trkpt lat="36.74009" lon="28.12807">
        <ele>31.1</ele>
      </trkpt>
      <trkpt lat="36.74009" lon="28.12809">
        <ele>30.6</ele>
      </trkpt>
      <trkpt lat="36.74007" lon="28.12811">
        <ele>30.5</ele>
      </trkpt>
      <trkpt lat="36.74005" lon="28.12814">
        <ele>30.1</ele>
      </trkpt>
      <trkpt lat="36.74002" lon="28.12817">
        <ele>29.7</ele>
      </trkpt>
      <trkpt lat="36.74001" lon="28.12821">
        <ele>28.8</ele>
      </trkpt>
      <trkpt lat="36.74" lon="28.12823">
        <ele>28.4</ele>
      </trkpt>
      <trkpt lat="36.73999" lon="28.12827">
        <ele>27.8</ele>
      </trkpt>
      <trkpt lat="36.73998" lon="28.12828">
        <ele>28</ele>
      </trkpt>
      <trkpt lat="36.73996" lon="28.1283">
        <ele>28.3</ele>
      </trkpt>
      <trkpt lat="36.73994" lon="28.12832">
        <ele>28.5</ele>
      </trkpt>
      <trkpt lat="36.73993" lon="28.12834">
        <ele>28.9</ele>
      </trkpt>
      <trkpt lat="36.73991" lon="28.12837">
        <ele>29.5</ele>
      </trkpt>
      <trkpt lat="36.73991" lon="28.12838">
        <ele>29.4</ele>
      </trkpt>
      <trkpt lat="36.7399" lon="28.12841">
        <ele>29.8</ele>
      </trkpt>
      <trkpt lat="36.73989" lon="28.12844">
        <ele>30</ele>
      </trkpt>
      <trkpt lat="36.73987" lon="28.12846">
        <ele>30.3</ele>
      </trkpt>
      <trkpt lat="36.73983" lon="28.12853">
        <ele>31.7</ele>
      </trkpt>
      <trkpt lat="36.73983" lon="28.12856">
        <ele>31.7</ele>
      </trkpt>
      <trkpt lat="36.73982" lon="28.12859">
        <ele>31.7</ele>
      </trkpt>
      <trkpt lat="36.73982" lon="28.12861">
        <ele>31.6</ele>
      </trkpt>
      <trkpt lat="36.73982" lon="28.12864">
        <ele>31.4</ele>
      </trkpt>
      <trkpt lat="36.73981" lon="28.12867">
        <ele>31.6</ele>
      </trkpt>
      <trkpt lat="36.73979" lon="28.12871">
        <ele>31.9</ele>
      </trkpt>
      <trkpt lat="36.73976" lon="28.12873">
        <ele>32.8</ele>
      </trkpt>
      <trkpt lat="36.73976" lon="28.12874">
        <ele>33.1</ele>
      </trkpt>
      <trkpt lat="36.73974" lon="28.12876">
        <ele>33.5</ele>
      </trkpt>
      <trkpt lat="36.73972" lon="28.12879">
        <ele>33.9</ele>
      </trkpt>
      <trkpt lat="36.73972" lon="28.12882">
        <ele>33.9</ele>
      </trkpt>
      <trkpt lat="36.7397" lon="28.12888">
        <ele>34</ele>
      </trkpt>
      <trkpt lat="36.7397" lon="28.12892">
        <ele>33.7</ele>
      </trkpt>
      <trkpt lat="36.7397" lon="28.12898">
        <ele>33.2</ele>
      </trkpt>
      <trkpt lat="36.7397" lon="28.12903">
        <ele>32.9</ele>
      </trkpt>
      <trkpt lat="36.7397" lon="28.12904">
        <ele>32.8</ele>
      </trkpt>
      <trkpt lat="36.73969" lon="28.12907">
        <ele>33.1</ele>
      </trkpt>
      <trkpt lat="36.73967" lon="28.1291">
        <ele>33.3</ele>
      </trkpt>
      <trkpt lat="36.73966" lon="28.12914">
        <ele>33.5</ele>
      </trkpt>
      <trkpt lat="36.73966" lon="28.12916">
        <ele>33.4</ele>
      </trkpt>
      <trkpt lat="36.73966" lon="28.1292">
        <ele>33.4</ele>
      </trkpt>
      <trkpt lat="36.73966" lon="28.12924">
        <ele>33.4</ele>
      </trkpt>
      <trkpt lat="36.73965" lon="28.12927">
        <ele>33.5</ele>
      </trkpt>
      <trkpt lat="36.73965" lon="28.1293">
        <ele>33.7</ele>
      </trkpt>
      <trkpt lat="36.73965" lon="28.12932">
        <ele>33.7</ele>
      </trkpt>
      <trkpt lat="36.73965" lon="28.12934">
        <ele>33.7</ele>
      </trkpt>
      <trkpt lat="36.73965" lon="28.12939">
        <ele>33.7</ele>
      </trkpt>
      <trkpt lat="36.73965" lon="28.12941">
        <ele>33.7</ele>
      </trkpt>
      <trkpt lat="36.73965" lon="28.12945">
        <ele>33.7</ele>
      </trkpt>
      <trkpt lat="36.73965" lon="28.12947">
        <ele>33.7</ele>
      </trkpt>
      <trkpt lat="36.73965" lon="28.12949">
        <ele>33.7</ele>
      </trkpt>
      <trkpt lat="36.73965" lon="28.12952">
        <ele>33.7</ele>
      </trkpt>
      <trkpt lat="36.73964" lon="28.12955">
        <ele>33.9</ele>
      </trkpt>
      <trkpt lat="36.73963" lon="28.12957">
        <ele>34.2</ele>
      </trkpt>
      <trkpt lat="36.73962" lon="28.12961">
        <ele>34.5</ele>
      </trkpt>
      <trkpt lat="36.73961" lon="28.12965">
        <ele>34.9</ele>
      </trkpt>
      <trkpt lat="36.7396" lon="28.12969">
        <ele>35.2</ele>
      </trkpt>
      <trkpt lat="36.73959" lon="28.12978">
        <ele>35.6</ele>
      </trkpt>
      <trkpt lat="36.73959" lon="28.12981">
        <ele>35.6</ele>
      </trkpt>
      <trkpt lat="36.73959" lon="28.12983">
        <ele>35.6</ele>
      </trkpt>
      <trkpt lat="36.73959" lon="28.12986">
        <ele>35.6</ele>
      </trkpt>
      <trkpt lat="36.73959" lon="28.12989">
        <ele>35.6</ele>
      </trkpt>
      <trkpt lat="36.73959" lon="28.12992">
        <ele>35.6</ele>
      </trkpt>
      <trkpt lat="36.73959" lon="28.12995">
        <ele>35.6</ele>
      </trkpt>
      <trkpt lat="36.73959" lon="28.12996">
        <ele>35.7</ele>
      </trkpt>
      <trkpt lat="36.7396" lon="28.13">
        <ele>35.5</ele>
      </trkpt>
      <trkpt lat="36.7396" lon="28.13003">
        <ele>35.5</ele>
      </trkpt>
      <trkpt lat="36.7396" lon="28.13005">
        <ele>35.4</ele>
      </trkpt>
      <trkpt lat="36.7396" lon="28.13009">
        <ele>35.3</ele>
      </trkpt>
      <trkpt lat="36.73961" lon="28.13014">
        <ele>35</ele>
      </trkpt>
      <trkpt lat="36.73961" lon="28.13016">
        <ele>35</ele>
      </trkpt>
      <trkpt lat="36.73961" lon="28.13021">
        <ele>35</ele>
      </trkpt>
      <trkpt lat="36.73961" lon="28.13026">
        <ele>34.9</ele>
      </trkpt>
      <trkpt lat="36.73961" lon="28.13032">
        <ele>34.9</ele>
      </trkpt>
      <trkpt lat="36.73961" lon="28.13033">
        <ele>34.9</ele>
      </trkpt>
      <trkpt lat="36.73962" lon="28.13038">
        <ele>34.6</ele>
      </trkpt>
      <trkpt lat="36.73963" lon="28.1304">
        <ele>34.3</ele>
      </trkpt>
      <trkpt lat="36.73965" lon="28.13044">
        <ele>33.6</ele>
      </trkpt>
      <trkpt lat="36.73967" lon="28.13049">
        <ele>32.9</ele>
      </trkpt>
      <trkpt lat="36.73969" lon="28.13051">
        <ele>32.5</ele>
      </trkpt>
      <trkpt lat="36.7397" lon="28.13054">
        <ele>32</ele>
      </trkpt>
      <trkpt lat="36.73971" lon="28.1306">
        <ele>31.6</ele>
      </trkpt>
      <trkpt lat="36.73972" lon="28.13064">
        <ele>31.5</ele>
      </trkpt>
      <trkpt lat="36.73972" lon="28.13066">
        <ele>31.5</ele>
      </trkpt>
      <trkpt lat="36.73972" lon="28.1307">
        <ele>31.5</ele>
      </trkpt>
      <trkpt lat="36.73972" lon="28.13073">
        <ele>31.5</ele>
      </trkpt>
      <trkpt lat="36.73972" lon="28.13074">
        <ele>31.5</ele>
      </trkpt>
      <trkpt lat="36.73971" lon="28.1308">
        <ele>31.6</ele>
      </trkpt>
      <trkpt lat="36.73971" lon="28.13082">
        <ele>31.6</ele>
      </trkpt>
      <trkpt lat="36.73971" lon="28.13084">
        <ele>31.7</ele>
      </trkpt>
      <trkpt lat="36.7397" lon="28.13087">
        <ele>31.9</ele>
      </trkpt>
      <trkpt lat="36.73969" lon="28.13089">
        <ele>32.1</ele>
      </trkpt>
      <trkpt lat="36.73968" lon="28.13092">
        <ele>32</ele>
      </trkpt>
      <trkpt lat="36.73967" lon="28.13096">
        <ele>32.4</ele>
      </trkpt>
      <trkpt lat="36.73966" lon="28.13098">
        <ele>32.3</ele>
      </trkpt>
      <trkpt lat="36.73966" lon="28.13102">
        <ele>32.3</ele>
      </trkpt>
      <trkpt lat="36.73964" lon="28.13104">
        <ele>32.5</ele>
      </trkpt>
      <trkpt lat="36.73963" lon="28.13107">
        <ele>32.6</ele>
      </trkpt>
      <trkpt lat="36.73963" lon="28.1311">
        <ele>32.4</ele>
      </trkpt>
      <trkpt lat="36.7396" lon="28.13112">
        <ele>33.1</ele>
      </trkpt>
      <trkpt lat="36.73959" lon="28.13113">
        <ele>33.5</ele>
      </trkpt>
      <trkpt lat="36.73957" lon="28.13115">
        <ele>33.7</ele>
      </trkpt>
      <trkpt lat="36.73955" lon="28.13116">
        <ele>34.1</ele>
      </trkpt>
      <trkpt lat="36.73951" lon="28.13123">
        <ele>34.6</ele>
      </trkpt>
      <trkpt lat="36.73951" lon="28.13125">
        <ele>34.7</ele>
      </trkpt>
      <trkpt lat="36.73948" lon="28.13127">
        <ele>35.2</ele>
      </trkpt>
      <trkpt lat="36.73947" lon="28.13129">
        <ele>35.3</ele>
      </trkpt>
      <trkpt lat="36.73944" lon="28.13131">
        <ele>35.8</ele>
      </trkpt>
      <trkpt lat="36.73944" lon="28.13132">
        <ele>35.8</ele>
      </trkpt>
      <trkpt lat="36.73943" lon="28.13135">
        <ele>35.7</ele>
      </trkpt>
      <trkpt lat="36.73942" lon="28.13139">
        <ele>35.6</ele>
      </trkpt>
      <trkpt lat="36.73941" lon="28.13141">
        <ele>35.6</ele>
      </trkpt>
      <trkpt lat="36.7394" lon="28.13143">
        <ele>35.7</ele>
      </trkpt>
      <trkpt lat="36.73938" lon="28.13144">
        <ele>36</ele>
      </trkpt>
      <trkpt lat="36.73936" lon="28.13146">
        <ele>36.2</ele>
      </trkpt>
      <trkpt lat="36.73934" lon="28.1315">
        <ele>36.4</ele>
      </trkpt>
      <trkpt lat="36.73934" lon="28.13152">
        <ele>36.1</ele>
      </trkpt>
      <trkpt lat="36.73933" lon="28.13155">
        <ele>36</ele>
      </trkpt>
      <trkpt lat="36.73933" lon="28.13158">
        <ele>35.7</ele>
      </trkpt>
      <trkpt lat="36.73933" lon="28.13162">
        <ele>35.4</ele>
      </trkpt>
      <trkpt lat="36.73933" lon="28.13167">
        <ele>34.9</ele>
      </trkpt>
      <trkpt lat="36.7393" lon="28.13189">
        <ele>34.2</ele>
      </trkpt>
      <trkpt lat="36.73929" lon="28.13192">
        <ele>34.1</ele>
      </trkpt>
      <trkpt lat="36.73929" lon="28.13195">
        <ele>34</ele>
      </trkpt>
      <trkpt lat="36.73927" lon="28.13198">
        <ele>34.2</ele>
      </trkpt>
      <trkpt lat="36.73924" lon="28.132">
        <ele>34.4</ele>
      </trkpt>
      <trkpt lat="36.73923" lon="28.13203">
        <ele>34.5</ele>
      </trkpt>
      <trkpt lat="36.73923" lon="28.13206">
        <ele>34.3</ele>
      </trkpt>
      <trkpt lat="36.73923" lon="28.13213">
        <ele>33.8</ele>
      </trkpt>
      <trkpt lat="36.73922" lon="28.13218">
        <ele>33.6</ele>
      </trkpt>
      <trkpt lat="36.73922" lon="28.13222">
        <ele>33.3</ele>
      </trkpt>
      <trkpt lat="36.73922" lon="28.13225">
        <ele>33.2</ele>
      </trkpt>
      <trkpt lat="36.73921" lon="28.13228">
        <ele>33</ele>
      </trkpt>
      <trkpt lat="36.73921" lon="28.13231">
        <ele>32.8</ele>
      </trkpt>
      <trkpt lat="36.73921" lon="28.13236">
        <ele>32.6</ele>
      </trkpt>
      <trkpt lat="36.7392" lon="28.13241">
        <ele>32.3</ele>
      </trkpt>
      <trkpt lat="36.73919" lon="28.13243">
        <ele>32.3</ele>
      </trkpt>
      <trkpt lat="36.73919" lon="28.13248">
        <ele>31.9</ele>
      </trkpt>
      <trkpt lat="36.73919" lon="28.13253">
        <ele>31.8</ele>
      </trkpt>
      <trkpt lat="36.73919" lon="28.13257">
        <ele>31.9</ele>
      </trkpt>
      <trkpt lat="36.73919" lon="28.13258">
        <ele>31.9</ele>
      </trkpt>
      <trkpt lat="36.73919" lon="28.13261">
        <ele>31.9</ele>
      </trkpt>
      <trkpt lat="36.73919" lon="28.13265">
        <ele>32</ele>
      </trkpt>
      <trkpt lat="36.73919" lon="28.13267">
        <ele>32</ele>
      </trkpt>
      <trkpt lat="36.73919" lon="28.13272">
        <ele>32</ele>
      </trkpt>
      <trkpt lat="36.73919" lon="28.13273">
        <ele>32.1</ele>
      </trkpt>
      <trkpt lat="36.73918" lon="28.13278">
        <ele>32.2</ele>
      </trkpt>
      <trkpt lat="36.73917" lon="28.13282">
        <ele>32.4</ele>
      </trkpt>
      <trkpt lat="36.73916" lon="28.13289">
        <ele>32.6</ele>
      </trkpt>
      <trkpt lat="36.73916" lon="28.13295">
        <ele>32.7</ele>
      </trkpt>
      <trkpt lat="36.73917" lon="28.13298">
        <ele>32.6</ele>
      </trkpt>
      <trkpt lat="36.73917" lon="28.13305">
        <ele>32.6</ele>
      </trkpt>
      <trkpt lat="36.73918" lon="28.13308">
        <ele>32.6</ele>
      </trkpt>
      <trkpt lat="36.73918" lon="28.13311">
        <ele>32.6</ele>
      </trkpt>
      <trkpt lat="36.73918" lon="28.13314">
        <ele>32.6</ele>
      </trkpt>
      <trkpt lat="36.73918" lon="28.13317">
        <ele>32.6</ele>
      </trkpt>
      <trkpt lat="36.73918" lon="28.13321">
        <ele>32.7</ele>
      </trkpt>
      <trkpt lat="36.73918" lon="28.13324">
        <ele>32.8</ele>
      </trkpt>
      <trkpt lat="36.73918" lon="28.13328">
        <ele>32.9</ele>
      </trkpt>
      <trkpt lat="36.73918" lon="28.1333">
        <ele>32.9</ele>
      </trkpt>
      <trkpt lat="36.73917" lon="28.13335">
        <ele>33.1</ele>
      </trkpt>
      <trkpt lat="36.73917" lon="28.1334">
        <ele>33.3</ele>
      </trkpt>
      <trkpt lat="36.73917" lon="28.13347">
        <ele>33.7</ele>
      </trkpt>
      <trkpt lat="36.73917" lon="28.13353">
        <ele>33.9</ele>
      </trkpt>
      <trkpt lat="36.73919" lon="28.13358">
        <ele>34</ele>
      </trkpt>
      <trkpt lat="36.73919" lon="28.13362">
        <ele>34.1</ele>
      </trkpt>
      <trkpt lat="36.7392" lon="28.13364">
        <ele>34.1</ele>
      </trkpt>
      <trkpt lat="36.7392" lon="28.13368">
        <ele>34.3</ele>
      </trkpt>
      <trkpt lat="36.7392" lon="28.13372">
        <ele>34.4</ele>
      </trkpt>
      <trkpt lat="36.73921" lon="28.13375">
        <ele>34.4</ele>
      </trkpt>
      <trkpt lat="36.73922" lon="28.13377">
        <ele>34.4</ele>
      </trkpt>
      <trkpt lat="36.73924" lon="28.13379">
        <ele>34.3</ele>
      </trkpt>
      <trkpt lat="36.73924" lon="28.13381">
        <ele>34.3</ele>
      </trkpt>
      <trkpt lat="36.73925" lon="28.13385">
        <ele>34.4</ele>
      </trkpt>
      <trkpt lat="36.73925" lon="28.13389">
        <ele>34.5</ele>
      </trkpt>
      <trkpt lat="36.73925" lon="28.13391">
        <ele>34.6</ele>
      </trkpt>
      <trkpt lat="36.73926" lon="28.13394">
        <ele>34.6</ele>
      </trkpt>
      <trkpt lat="36.73926" lon="28.13399">
        <ele>34.8</ele>
      </trkpt>
      <trkpt lat="36.73927" lon="28.13403">
        <ele>34.9</ele>
      </trkpt>
      <trkpt lat="36.73927" lon="28.13409">
        <ele>35.1</ele>
      </trkpt>
      <trkpt lat="36.73927" lon="28.13412">
        <ele>35.2</ele>
      </trkpt>
      <trkpt lat="36.73927" lon="28.13417">
        <ele>35.4</ele>
      </trkpt>
      <trkpt lat="36.73929" lon="28.1342">
        <ele>35.3</ele>
      </trkpt>
      <trkpt lat="36.73929" lon="28.13422">
        <ele>35.3</ele>
      </trkpt>
      <trkpt lat="36.7393" lon="28.13424">
        <ele>35.3</ele>
      </trkpt>
      <trkpt lat="36.7393" lon="28.13426">
        <ele>35.4</ele>
      </trkpt>
      <trkpt lat="36.73931" lon="28.13428">
        <ele>35.4</ele>
      </trkpt>
      <trkpt lat="36.73931" lon="28.13432">
        <ele>35.5</ele>
      </trkpt>
      <trkpt lat="36.73932" lon="28.13435">
        <ele>35.6</ele>
      </trkpt>
      <trkpt lat="36.73932" lon="28.13438">
        <ele>35.7</ele>
      </trkpt>
      <trkpt lat="36.73932" lon="28.13441">
        <ele>35.9</ele>
      </trkpt>
      <trkpt lat="36.73932" lon="28.13444">
        <ele>36.1</ele>
      </trkpt>
      <trkpt lat="36.73932" lon="28.13448">
        <ele>36.3</ele>
      </trkpt>
      <trkpt lat="36.73932" lon="28.13452">
        <ele>36.5</ele>
      </trkpt>
      <trkpt lat="36.73932" lon="28.13457">
        <ele>36.8</ele>
      </trkpt>
      <trkpt lat="36.73931" lon="28.13461">
        <ele>37.2</ele>
      </trkpt>
      <trkpt lat="36.73929" lon="28.13463">
        <ele>37.6</ele>
      </trkpt>
      <trkpt lat="36.73928" lon="28.13467">
        <ele>38</ele>
      </trkpt>
      <trkpt lat="36.73927" lon="28.13471">
        <ele>38.3</ele>
      </trkpt>
      <trkpt lat="36.73928" lon="28.13476">
        <ele>38.5</ele>
      </trkpt>
      <trkpt lat="36.73928" lon="28.13478">
        <ele>38.6</ele>
      </trkpt>
      <trkpt lat="36.73928" lon="28.1348">
        <ele>38.8</ele>
      </trkpt>
      <trkpt lat="36.73928" lon="28.13483">
        <ele>38.9</ele>
      </trkpt>
      <trkpt lat="36.73928" lon="28.13488">
        <ele>39.2</ele>
      </trkpt>
      <trkpt lat="36.73928" lon="28.13493">
        <ele>39.4</ele>
      </trkpt>
      <trkpt lat="36.73928" lon="28.13497">
        <ele>39.6</ele>
      </trkpt>
      <trkpt lat="36.73928" lon="28.135">
        <ele>39.8</ele>
      </trkpt>
      <trkpt lat="36.73928" lon="28.13506">
        <ele>39.4</ele>
      </trkpt>
      <trkpt lat="36.73928" lon="28.13508">
        <ele>39.2</ele>
      </trkpt>
      <trkpt lat="36.73927" lon="28.13511">
        <ele>39.2</ele>
      </trkpt>
      <trkpt lat="36.73927" lon="28.13516">
        <ele>38.8</ele>
      </trkpt>
      <trkpt lat="36.73927" lon="28.13521">
        <ele>38.5</ele>
      </trkpt>
      <trkpt lat="36.73927" lon="28.13528">
        <ele>38</ele>
      </trkpt>
      <trkpt lat="36.73928" lon="28.13532">
        <ele>37.7</ele>
      </trkpt>
      <trkpt lat="36.73928" lon="28.13536">
        <ele>37.4</ele>
      </trkpt>
      <trkpt lat="36.73928" lon="28.13539">
        <ele>37.1</ele>
      </trkpt>
      <trkpt lat="36.73929" lon="28.13542">
        <ele>36.8</ele>
      </trkpt>
      <trkpt lat="36.7393" lon="28.13546">
        <ele>36.4</ele>
      </trkpt>
      <trkpt lat="36.73931" lon="28.13551">
        <ele>35.9</ele>
      </trkpt>
      <trkpt lat="36.73932" lon="28.13555">
        <ele>35.6</ele>
      </trkpt>
      <trkpt lat="36.73932" lon="28.13559">
        <ele>35.3</ele>
      </trkpt>
      <trkpt lat="36.73932" lon="28.13561">
        <ele>35.1</ele>
      </trkpt>
      <trkpt lat="36.73932" lon="28.13565">
        <ele>34.9</ele>
      </trkpt>
      <trkpt lat="36.73931" lon="28.13567">
        <ele>34.8</ele>
      </trkpt>
      <trkpt lat="36.73931" lon="28.13569">
        <ele>34.7</ele>
      </trkpt>
      <trkpt lat="36.73931" lon="28.13572">
        <ele>34.5</ele>
      </trkpt>
      <trkpt lat="36.73931" lon="28.13573">
        <ele>34.5</ele>
      </trkpt>
      <trkpt lat="36.73929" lon="28.13577">
        <ele>34.4</ele>
      </trkpt>
      <trkpt lat="36.73928" lon="28.13579">
        <ele>34.3</ele>
      </trkpt>
      <trkpt lat="36.73928" lon="28.13583">
        <ele>34.1</ele>
      </trkpt>
      <trkpt lat="36.73927" lon="28.13585">
        <ele>34.1</ele>
      </trkpt>
      <trkpt lat="36.73927" lon="28.13587">
        <ele>34.1</ele>
      </trkpt>
      <trkpt lat="36.73927" lon="28.1359">
        <ele>34</ele>
      </trkpt>
      <trkpt lat="36.73926" lon="28.13594">
        <ele>34</ele>
      </trkpt>
      <trkpt lat="36.73925" lon="28.13598">
        <ele>34</ele>
      </trkpt>
      <trkpt lat="36.73924" lon="28.136">
        <ele>34.1</ele>
      </trkpt>
      <trkpt lat="36.73924" lon="28.13601">
        <ele>34.1</ele>
      </trkpt>
      <trkpt lat="36.73924" lon="28.13605">
        <ele>34</ele>
      </trkpt>
      <trkpt lat="36.73924" lon="28.13607">
        <ele>33.9</ele>
      </trkpt>
      <trkpt lat="36.73923" lon="28.13611">
        <ele>33.9</ele>
      </trkpt>
      <trkpt lat="36.73921" lon="28.13614">
        <ele>34</ele>
      </trkpt>
      <trkpt lat="36.73919" lon="28.13616">
        <ele>34</ele>
      </trkpt>
      <trkpt lat="36.73919" lon="28.13619">
        <ele>34</ele>
      </trkpt>
      <trkpt lat="36.73918" lon="28.13621">
        <ele>34</ele>
      </trkpt>
      <trkpt lat="36.73918" lon="28.13625">
        <ele>33.9</ele>
      </trkpt>
      <trkpt lat="36.73918" lon="28.13627">
        <ele>33.9</ele>
      </trkpt>
      <trkpt lat="36.73918" lon="28.13631">
        <ele>33.8</ele>
      </trkpt>
      <trkpt lat="36.73918" lon="28.13635">
        <ele>33.7</ele>
      </trkpt>
      <trkpt lat="36.73918" lon="28.13638">
        <ele>33.6</ele>
      </trkpt>
      <trkpt lat="36.73918" lon="28.13641">
        <ele>33.5</ele>
      </trkpt>
      <trkpt lat="36.73916" lon="28.13657">
        <ele>33.7</ele>
      </trkpt>
      <trkpt lat="36.73915" lon="28.13659">
        <ele>34.1</ele>
      </trkpt>
      <trkpt lat="36.73914" lon="28.13662">
        <ele>34.3</ele>
      </trkpt>
      <trkpt lat="36.73915" lon="28.13666">
        <ele>34.1</ele>
      </trkpt>
      <trkpt lat="36.73914" lon="28.13667">
        <ele>34.6</ele>
      </trkpt>
      <trkpt lat="36.73913" lon="28.13671">
        <ele>34.8</ele>
      </trkpt>
      <trkpt lat="36.73913" lon="28.13672">
        <ele>35</ele>
      </trkpt>
      <trkpt lat="36.73912" lon="28.13675">
        <ele>35.3</ele>
      </trkpt>
      <trkpt lat="36.73911" lon="28.13679">
        <ele>35.7</ele>
      </trkpt>
      <trkpt lat="36.7391" lon="28.13681">
        <ele>36.2</ele>
      </trkpt>
      <trkpt lat="36.7391" lon="28.13686">
        <ele>36.6</ele>
      </trkpt>
      <trkpt lat="36.73909" lon="28.13689">
        <ele>37</ele>
      </trkpt>
      <trkpt lat="36.73908" lon="28.13691">
        <ele>37.2</ele>
      </trkpt>
      <trkpt lat="36.73908" lon="28.13694">
        <ele>37.4</ele>
      </trkpt>
      <trkpt lat="36.73907" lon="28.13697">
        <ele>37.6</ele>
      </trkpt>
      <trkpt lat="36.73907" lon="28.13699">
        <ele>38.1</ele>
      </trkpt>
      <trkpt lat="36.73906" lon="28.13703">
        <ele>38.5</ele>
      </trkpt>
      <trkpt lat="36.73905" lon="28.13704">
        <ele>38.9</ele>
      </trkpt>
      <trkpt lat="36.73904" lon="28.13708">
        <ele>39.1</ele>
      </trkpt>
      <trkpt lat="36.73904" lon="28.13711">
        <ele>39.5</ele>
      </trkpt>
      <trkpt lat="36.73903" lon="28.13714">
        <ele>39.7</ele>
      </trkpt>
      <trkpt lat="36.73902" lon="28.13721">
        <ele>40</ele>
      </trkpt>
      <trkpt lat="36.73902" lon="28.13724">
        <ele>40</ele>
      </trkpt>
      <trkpt lat="36.73902" lon="28.13727">
        <ele>40.2</ele>
      </trkpt>
      <trkpt lat="36.73901" lon="28.13729">
        <ele>40.6</ele>
      </trkpt>
      <trkpt lat="36.739" lon="28.13731">
        <ele>41.2</ele>
      </trkpt>
      <trkpt lat="36.73898" lon="28.13733">
        <ele>42</ele>
      </trkpt>
      <trkpt lat="36.73897" lon="28.13736">
        <ele>42.6</ele>
      </trkpt>
      <trkpt lat="36.73896" lon="28.13741">
        <ele>43</ele>
      </trkpt>
      <trkpt lat="36.73896" lon="28.13744">
        <ele>43</ele>
      </trkpt>
      <trkpt lat="36.73896" lon="28.1375">
        <ele>42.9</ele>
      </trkpt>
      <trkpt lat="36.73896" lon="28.13753">
        <ele>43</ele>
      </trkpt>
      <trkpt lat="36.73896" lon="28.13757">
        <ele>42.6</ele>
      </trkpt>
      <trkpt lat="36.73897" lon="28.1376">
        <ele>42.4</ele>
      </trkpt>
      <trkpt lat="36.73897" lon="28.13763">
        <ele>42.5</ele>
      </trkpt>
      <trkpt lat="36.73897" lon="28.13765">
        <ele>42.5</ele>
      </trkpt>
      <trkpt lat="36.73897" lon="28.1377">
        <ele>42.6</ele>
      </trkpt>
      <trkpt lat="36.73897" lon="28.13772">
        <ele>42.6</ele>
      </trkpt>
      <trkpt lat="36.73896" lon="28.13776">
        <ele>42.9</ele>
      </trkpt>
      <trkpt lat="36.73896" lon="28.13778">
        <ele>43</ele>
      </trkpt>
      <trkpt lat="36.73896" lon="28.1378">
        <ele>43.5</ele>
      </trkpt>
      <trkpt lat="36.73895" lon="28.13782">
        <ele>44</ele>
      </trkpt>
      <trkpt lat="36.73895" lon="28.13786">
        <ele>44</ele>
      </trkpt>
      <trkpt lat="36.73895" lon="28.13788">
        <ele>44.1</ele>
      </trkpt>
      <trkpt lat="36.73895" lon="28.13793">
        <ele>44.2</ele>
      </trkpt>
      <trkpt lat="36.73895" lon="28.13796">
        <ele>44.2</ele>
      </trkpt>
      <trkpt lat="36.73895" lon="28.13801">
        <ele>44.1</ele>
      </trkpt>
      <trkpt lat="36.73895" lon="28.13806">
        <ele>44.2</ele>
      </trkpt>
      <trkpt lat="36.73895" lon="28.13809">
        <ele>44.3</ele>
      </trkpt>
      <trkpt lat="36.73895" lon="28.13812">
        <ele>44.3</ele>
      </trkpt>
      <trkpt lat="36.73895" lon="28.13816">
        <ele>44.4</ele>
      </trkpt>
      <trkpt lat="36.73895" lon="28.13819">
        <ele>44.5</ele>
      </trkpt>
      <trkpt lat="36.73895" lon="28.13822">
        <ele>44.6</ele>
      </trkpt>
      <trkpt lat="36.73895" lon="28.13827">
        <ele>44.7</ele>
      </trkpt>
      <trkpt lat="36.73895" lon="28.13831">
        <ele>44.8</ele>
      </trkpt>
      <trkpt lat="36.73895" lon="28.13834">
        <ele>44.9</ele>
      </trkpt>
      <trkpt lat="36.73895" lon="28.13838">
        <ele>45.4</ele>
      </trkpt>
      <trkpt lat="36.73895" lon="28.13841">
        <ele>45.9</ele>
      </trkpt>
      <trkpt lat="36.73895" lon="28.13844">
        <ele>46.3</ele>
      </trkpt>
      <trkpt lat="36.73895" lon="28.13847">
        <ele>46.5</ele>
      </trkpt>
      <trkpt lat="36.73896" lon="28.13856">
        <ele>47.3</ele>
      </trkpt>
      <trkpt lat="36.73896" lon="28.13859">
        <ele>47.8</ele>
      </trkpt>
      <trkpt lat="36.73896" lon="28.13863">
        <ele>48.3</ele>
      </trkpt>
      <trkpt lat="36.73896" lon="28.13867">
        <ele>48.8</ele>
      </trkpt>
      <trkpt lat="36.73895" lon="28.13871">
        <ele>49.6</ele>
      </trkpt>
      <trkpt lat="36.73895" lon="28.13874">
        <ele>50.1</ele>
      </trkpt>
      <trkpt lat="36.73895" lon="28.13879">
        <ele>50.5</ele>
      </trkpt>
      <trkpt lat="36.73895" lon="28.13884">
        <ele>51.2</ele>
      </trkpt>
      <trkpt lat="36.73896" lon="28.13887">
        <ele>51.4</ele>
      </trkpt>
      <trkpt lat="36.73897" lon="28.13894">
        <ele>51.6</ele>
      </trkpt>
      <trkpt lat="36.73897" lon="28.13895">
        <ele>51.7</ele>
      </trkpt>
      <trkpt lat="36.73898" lon="28.13899">
        <ele>51.8</ele>
      </trkpt>
      <trkpt lat="36.73899" lon="28.13901">
        <ele>51.5</ele>
      </trkpt>
      <trkpt lat="36.739" lon="28.13905">
        <ele>51</ele>
      </trkpt>
      <trkpt lat="36.739" lon="28.13907">
        <ele>51.3</ele>
      </trkpt>
      <trkpt lat="36.739" lon="28.1391">
        <ele>51.7</ele>
      </trkpt>
      <trkpt lat="36.739" lon="28.13912">
        <ele>51.9</ele>
      </trkpt>
      <trkpt lat="36.739" lon="28.13916">
        <ele>52.5</ele>
      </trkpt>
      <trkpt lat="36.739" lon="28.13919">
        <ele>53.2</ele>
      </trkpt>
      <trkpt lat="36.73899" lon="28.13921">
        <ele>53.8</ele>
      </trkpt>
      <trkpt lat="36.73898" lon="28.13924">
        <ele>54.7</ele>
      </trkpt>
      <trkpt lat="36.73897" lon="28.13928">
        <ele>56.2</ele>
      </trkpt>
      <trkpt lat="36.73897" lon="28.13929">
        <ele>56.4</ele>
      </trkpt>
      <trkpt lat="36.73897" lon="28.13933">
        <ele>56.7</ele>
      </trkpt>
      <trkpt lat="36.73898" lon="28.13937">
        <ele>56.6</ele>
      </trkpt>
      <trkpt lat="36.73899" lon="28.1394">
        <ele>56.3</ele>
      </trkpt>
      <trkpt lat="36.73901" lon="28.13947">
        <ele>55.3</ele>
      </trkpt>
      <trkpt lat="36.73904" lon="28.13953">
        <ele>54.1</ele>
      </trkpt>
      <trkpt lat="36.73904" lon="28.13958">
        <ele>53.9</ele>
      </trkpt>
      <trkpt lat="36.73905" lon="28.1396">
        <ele>53.8</ele>
      </trkpt>
      <trkpt lat="36.73905" lon="28.13963">
        <ele>53.8</ele>
      </trkpt>
      <trkpt lat="36.73905" lon="28.13966">
        <ele>54.2</ele>
      </trkpt>
      <trkpt lat="36.73906" lon="28.13969">
        <ele>54.2</ele>
      </trkpt>
      <trkpt lat="36.73907" lon="28.13974">
        <ele>53.5</ele>
      </trkpt>
      <trkpt lat="36.73908" lon="28.13975">
        <ele>52.5</ele>
      </trkpt>
      <trkpt lat="36.7391" lon="28.13979">
        <ele>51.3</ele>
      </trkpt>
      <trkpt lat="36.73911" lon="28.13981">
        <ele>50.7</ele>
      </trkpt>
      <trkpt lat="36.73912" lon="28.13984">
        <ele>49.8</ele>
      </trkpt>
      <trkpt lat="36.73913" lon="28.13986">
        <ele>49.2</ele>
      </trkpt>
      <trkpt lat="36.73914" lon="28.1399">
        <ele>48.3</ele>
      </trkpt>
      <trkpt lat="36.73914" lon="28.13993">
        <ele>48.2</ele>
      </trkpt>
      <trkpt lat="36.73916" lon="28.14">
        <ele>46.9</ele>
      </trkpt>
      <trkpt lat="36.73916" lon="28.14004">
        <ele>47.2</ele>
      </trkpt>
      <trkpt lat="36.73917" lon="28.14008">
        <ele>47.3</ele>
      </trkpt>
      <trkpt lat="36.73917" lon="28.14012">
        <ele>48</ele>
      </trkpt>
      <trkpt lat="36.73917" lon="28.14015">
        <ele>48.6</ele>
      </trkpt>
      <trkpt lat="36.73917" lon="28.14018">
        <ele>49.1</ele>
      </trkpt>
      <trkpt lat="36.73917" lon="28.14022">
        <ele>49.9</ele>
      </trkpt>
      <trkpt lat="36.73917" lon="28.14024">
        <ele>50.2</ele>
      </trkpt>
      <trkpt lat="36.73916" lon="28.14027">
        <ele>50.7</ele>
      </trkpt>
      <trkpt lat="36.73916" lon="28.1403">
        <ele>51.3</ele>
      </trkpt>
      <trkpt lat="36.73917" lon="28.14033">
        <ele>51.5</ele>
      </trkpt>
      <trkpt lat="36.73918" lon="28.14036">
        <ele>51.8</ele>
      </trkpt>
      <trkpt lat="36.73918" lon="28.14037">
        <ele>52.1</ele>
      </trkpt>
      <trkpt lat="36.73919" lon="28.1404">
        <ele>52.3</ele>
      </trkpt>
      <trkpt lat="36.7392" lon="28.14042">
        <ele>52.4</ele>
      </trkpt>
      <trkpt lat="36.73921" lon="28.14044">
        <ele>52.6</ele>
      </trkpt>
      <trkpt lat="36.73922" lon="28.14047">
        <ele>52.9</ele>
      </trkpt>
      <trkpt lat="36.73923" lon="28.1405">
        <ele>53.2</ele>
      </trkpt>
      <trkpt lat="36.73923" lon="28.14053">
        <ele>53.6</ele>
      </trkpt>
      <trkpt lat="36.73924" lon="28.14056">
        <ele>53.9</ele>
      </trkpt>
      <trkpt lat="36.73925" lon="28.14058">
        <ele>54.2</ele>
      </trkpt>
      <trkpt lat="36.73925" lon="28.14062">
        <ele>54.6</ele>
      </trkpt>
      <trkpt lat="36.73926" lon="28.14064">
        <ele>54.9</ele>
      </trkpt>
      <trkpt lat="36.73927" lon="28.14067">
        <ele>55.2</ele>
      </trkpt>
      <trkpt lat="36.73927" lon="28.1407">
        <ele>55.4</ele>
      </trkpt>
      <trkpt lat="36.73927" lon="28.14071">
        <ele>55.7</ele>
      </trkpt>
      <trkpt lat="36.73932" lon="28.14095">
        <ele>57.8</ele>
      </trkpt>
      <trkpt lat="36.73933" lon="28.14096">
        <ele>57.7</ele>
      </trkpt>
      <trkpt lat="36.73933" lon="28.14099">
        <ele>58</ele>
      </trkpt>
      <trkpt lat="36.73934" lon="28.14102">
        <ele>58.1</ele>
      </trkpt>
      <trkpt lat="36.73934" lon="28.14103">
        <ele>58.3</ele>
      </trkpt>
      <trkpt lat="36.73935" lon="28.14106">
        <ele>58.3</ele>
      </trkpt>
      <trkpt lat="36.73936" lon="28.14108">
        <ele>58.3</ele>
      </trkpt>
      <trkpt lat="36.73938" lon="28.14112">
        <ele>58.1</ele>
      </trkpt>
      <trkpt lat="36.73939" lon="28.14115">
        <ele>58</ele>
      </trkpt>
      <trkpt lat="36.7394" lon="28.14119">
        <ele>58.2</ele>
      </trkpt>
      <trkpt lat="36.73941" lon="28.14127">
        <ele>58.6</ele>
      </trkpt>
      <trkpt lat="36.73941" lon="28.14133">
        <ele>59.1</ele>
      </trkpt>
      <trkpt lat="36.73942" lon="28.14139">
        <ele>59.5</ele>
      </trkpt>
      <trkpt lat="36.73942" lon="28.14143">
        <ele>59.9</ele>
      </trkpt>
      <trkpt lat="36.73942" lon="28.14146">
        <ele>60.2</ele>
      </trkpt>
      <trkpt lat="36.73942" lon="28.14148">
        <ele>60.4</ele>
      </trkpt>
      <trkpt lat="36.73942" lon="28.14151">
        <ele>60.7</ele>
      </trkpt>
      <trkpt lat="36.73942" lon="28.14154">
        <ele>61</ele>
      </trkpt>
      <trkpt lat="36.73942" lon="28.14157">
        <ele>61.1</ele>
      </trkpt>
      <trkpt lat="36.73943" lon="28.14159">
        <ele>61.2</ele>
      </trkpt>
      <trkpt lat="36.73944" lon="28.14161">
        <ele>60.9</ele>
      </trkpt>
      <trkpt lat="36.73945" lon="28.14165">
        <ele>61</ele>
      </trkpt>
      <trkpt lat="36.73945" lon="28.14168">
        <ele>61.3</ele>
      </trkpt>
      <trkpt lat="36.73945" lon="28.1417">
        <ele>61.4</ele>
      </trkpt>
      <trkpt lat="36.73944" lon="28.14173">
        <ele>61.8</ele>
      </trkpt>
      <trkpt lat="36.73944" lon="28.14175">
        <ele>61.9</ele>
      </trkpt>
      <trkpt lat="36.73944" lon="28.14179">
        <ele>62.2</ele>
      </trkpt>
      <trkpt lat="36.73944" lon="28.14181">
        <ele>62.3</ele>
      </trkpt>
      <trkpt lat="36.73944" lon="28.14186">
        <ele>62.7</ele>
      </trkpt>
      <trkpt lat="36.73944" lon="28.1419">
        <ele>63</ele>
      </trkpt>
      <trkpt lat="36.73944" lon="28.14192">
        <ele>63.1</ele>
      </trkpt>
      <trkpt lat="36.73943" lon="28.14195">
        <ele>63.8</ele>
      </trkpt>
      <trkpt lat="36.73943" lon="28.14197">
        <ele>64.2</ele>
      </trkpt>
      <trkpt lat="36.73943" lon="28.142">
        <ele>64.3</ele>
      </trkpt>
      <trkpt lat="36.73942" lon="28.14202">
        <ele>64.7</ele>
      </trkpt>
      <trkpt lat="36.73942" lon="28.14203">
        <ele>64.9</ele>
      </trkpt>
      <trkpt lat="36.73941" lon="28.14206">
        <ele>65.4</ele>
      </trkpt>
      <trkpt lat="36.73941" lon="28.14211">
        <ele>65.9</ele>
      </trkpt>
      <trkpt lat="36.73941" lon="28.14215">
        <ele>66.2</ele>
      </trkpt>
      <trkpt lat="36.73941" lon="28.14218">
        <ele>66.4</ele>
      </trkpt>
      <trkpt lat="36.73941" lon="28.14224">
        <ele>66.9</ele>
      </trkpt>
      <trkpt lat="36.73941" lon="28.14226">
        <ele>67</ele>
      </trkpt>
      <trkpt lat="36.73941" lon="28.14228">
        <ele>67.1</ele>
      </trkpt>
      <trkpt lat="36.7394" lon="28.14231">
        <ele>67.8</ele>
      </trkpt>
      <trkpt lat="36.73938" lon="28.14233">
        <ele>68.5</ele>
      </trkpt>
      <trkpt lat="36.73938" lon="28.14235">
        <ele>69</ele>
      </trkpt>
      <trkpt lat="36.73938" lon="28.1424">
        <ele>69.4</ele>
      </trkpt>
      <trkpt lat="36.73938" lon="28.14244">
        <ele>69.5</ele>
      </trkpt>
      <trkpt lat="36.73939" lon="28.14246">
        <ele>69.2</ele>
      </trkpt>
      <trkpt lat="36.73939" lon="28.14248">
        <ele>69.3</ele>
      </trkpt>
      <trkpt lat="36.7394" lon="28.14251">
        <ele>69.2</ele>
      </trkpt>
      <trkpt lat="36.73941" lon="28.14253">
        <ele>68.7</ele>
      </trkpt>
      <trkpt lat="36.73942" lon="28.14256">
        <ele>68.6</ele>
      </trkpt>
      <trkpt lat="36.73943" lon="28.14258">
        <ele>68.6</ele>
      </trkpt>
      <trkpt lat="36.73943" lon="28.14261">
        <ele>68.6</ele>
      </trkpt>
      <trkpt lat="36.73943" lon="28.14264">
        <ele>68.6</ele>
      </trkpt>
      <trkpt lat="36.73944" lon="28.14268">
        <ele>68.9</ele>
      </trkpt>
      <trkpt lat="36.73944" lon="28.14272">
        <ele>69.2</ele>
      </trkpt>
      <trkpt lat="36.73945" lon="28.14276">
        <ele>69</ele>
      </trkpt>
      <trkpt lat="36.73945" lon="28.14278">
        <ele>69</ele>
      </trkpt>
      <trkpt lat="36.73946" lon="28.14278">
        <ele>68.6</ele>
      </trkpt>
      <trkpt lat="36.73947" lon="28.14279">
        <ele>68</ele>
      </trkpt>
      <trkpt lat="36.73949" lon="28.14281">
        <ele>67.2</ele>
      </trkpt>
      <trkpt lat="36.7395" lon="28.14282">
        <ele>66.7</ele>
      </trkpt>
      <trkpt lat="36.73952" lon="28.14284">
        <ele>66.1</ele>
      </trkpt>
      <trkpt lat="36.73952" lon="28.14288">
        <ele>66.4</ele>
      </trkpt>
      <trkpt lat="36.73952" lon="28.1429">
        <ele>66.1</ele>
      </trkpt>
      <trkpt lat="36.73952" lon="28.14295">
        <ele>66.4</ele>
      </trkpt>
      <trkpt lat="36.73953" lon="28.14297">
        <ele>66.1</ele>
      </trkpt>
      <trkpt lat="36.73954" lon="28.14301">
        <ele>65.9</ele>
      </trkpt>
      <trkpt lat="36.73955" lon="28.14304">
        <ele>65.6</ele>
      </trkpt>
      <trkpt lat="36.73957" lon="28.14308">
        <ele>64.9</ele>
      </trkpt>
      <trkpt lat="36.73958" lon="28.14312">
        <ele>64.3</ele>
      </trkpt>
      <trkpt lat="36.7396" lon="28.14315">
        <ele>63.4</ele>
      </trkpt>
      <trkpt lat="36.73962" lon="28.14317">
        <ele>62.5</ele>
      </trkpt>
      <trkpt lat="36.73965" lon="28.1432">
        <ele>61</ele>
      </trkpt>
      <trkpt lat="36.73966" lon="28.14322">
        <ele>60.1</ele>
      </trkpt>
      <trkpt lat="36.73968" lon="28.14325">
        <ele>59.5</ele>
      </trkpt>
      <trkpt lat="36.73969" lon="28.14328">
        <ele>58.9</ele>
      </trkpt>
      <trkpt lat="36.7397" lon="28.14331">
        <ele>58.5</ele>
      </trkpt>
      <trkpt lat="36.7397" lon="28.14337">
        <ele>58.4</ele>
      </trkpt>
      <trkpt lat="36.7397" lon="28.14338">
        <ele>58.3</ele>
      </trkpt>
      <trkpt lat="36.7397" lon="28.14342">
        <ele>58</ele>
      </trkpt>
      <trkpt lat="36.7397" lon="28.14343">
        <ele>57.9</ele>
      </trkpt>
      <trkpt lat="36.7397" lon="28.14346">
        <ele>57.7</ele>
      </trkpt>
      <trkpt lat="36.7397" lon="28.1435">
        <ele>57.2</ele>
      </trkpt>
      <trkpt lat="36.73971" lon="28.14354">
        <ele>56.5</ele>
      </trkpt>
      <trkpt lat="36.73972" lon="28.14359">
        <ele>55.5</ele>
      </trkpt>
      <trkpt lat="36.73973" lon="28.14363">
        <ele>54.9</ele>
      </trkpt>
      <trkpt lat="36.73973" lon="28.14366">
        <ele>54.5</ele>
      </trkpt>
      <trkpt lat="36.73973" lon="28.14369">
        <ele>54.3</ele>
      </trkpt>
      <trkpt lat="36.73974" lon="28.14372">
        <ele>53.7</ele>
      </trkpt>
      <trkpt lat="36.73974" lon="28.14374">
        <ele>53.6</ele>
      </trkpt>
      <trkpt lat="36.73974" lon="28.14376">
        <ele>53.5</ele>
      </trkpt>
      <trkpt lat="36.73974" lon="28.14378">
        <ele>53.4</ele>
      </trkpt>
      <trkpt lat="36.73975" lon="28.14381">
        <ele>53.2</ele>
      </trkpt>
      <trkpt lat="36.73975" lon="28.14384">
        <ele>53.1</ele>
      </trkpt>
      <trkpt lat="36.73974" lon="28.14386">
        <ele>53.1</ele>
      </trkpt>
      <trkpt lat="36.73974" lon="28.14389">
        <ele>53.1</ele>
      </trkpt>
      <trkpt lat="36.73973" lon="28.14393">
        <ele>53.3</ele>
      </trkpt>
      <trkpt lat="36.73973" lon="28.14396">
        <ele>53.1</ele>
      </trkpt>
      <trkpt lat="36.73973" lon="28.14397">
        <ele>53</ele>
      </trkpt>
      <trkpt lat="36.73973" lon="28.14401">
        <ele>52.8</ele>
      </trkpt>
      <trkpt lat="36.73973" lon="28.14404">
        <ele>52.6</ele>
      </trkpt>
      <trkpt lat="36.73973" lon="28.14409">
        <ele>52.2</ele>
      </trkpt>
      <trkpt lat="36.73973" lon="28.14411">
        <ele>52.1</ele>
      </trkpt>
      <trkpt lat="36.73973" lon="28.14414">
        <ele>51.9</ele>
      </trkpt>
      <trkpt lat="36.73974" lon="28.14417">
        <ele>51.6</ele>
      </trkpt>
      <trkpt lat="36.73974" lon="28.14422">
        <ele>51.2</ele>
      </trkpt>
      <trkpt lat="36.73974" lon="28.14427">
        <ele>50.9</ele>
      </trkpt>
      <trkpt lat="36.73974" lon="28.14429">
        <ele>50.7</ele>
      </trkpt>
      <trkpt lat="36.73974" lon="28.14432">
        <ele>50.5</ele>
      </trkpt>
      <trkpt lat="36.73973" lon="28.14435">
        <ele>50.4</ele>
      </trkpt>
      <trkpt lat="36.73972" lon="28.14437">
        <ele>50.5</ele>
      </trkpt>
      <trkpt lat="36.73971" lon="28.1444">
        <ele>50.4</ele>
      </trkpt>
      <trkpt lat="36.73971" lon="28.14443">
        <ele>50.2</ele>
      </trkpt>
      <trkpt lat="36.73971" lon="28.14446">
        <ele>49.9</ele>
      </trkpt>
      <trkpt lat="36.73971" lon="28.1445">
        <ele>49.6</ele>
      </trkpt>
      <trkpt lat="36.73971" lon="28.14451">
        <ele>49.5</ele>
      </trkpt>
      <trkpt lat="36.73971" lon="28.14455">
        <ele>49.3</ele>
      </trkpt>
      <trkpt lat="36.7397" lon="28.14456">
        <ele>49.3</ele>
      </trkpt>
      <trkpt lat="36.73969" lon="28.14458">
        <ele>49.3</ele>
      </trkpt>
      <trkpt lat="36.73968" lon="28.14461">
        <ele>49.1</ele>
      </trkpt>
      <trkpt lat="36.73968" lon="28.14463">
        <ele>48.9</ele>
      </trkpt>
      <trkpt lat="36.73968" lon="28.14464">
        <ele>48.8</ele>
      </trkpt>
      <trkpt lat="36.73965" lon="28.14467">
        <ele>48.9</ele>
      </trkpt>
      <trkpt lat="36.73962" lon="28.14468">
        <ele>49</ele>
      </trkpt>
      <trkpt lat="36.7396" lon="28.14471">
        <ele>48.8</ele>
      </trkpt>
      <trkpt lat="36.73957" lon="28.14474">
        <ele>48.7</ele>
      </trkpt>
      <trkpt lat="36.73955" lon="28.14475">
        <ele>48.7</ele>
      </trkpt>
      <trkpt lat="36.73953" lon="28.14477">
        <ele>48.5</ele>
      </trkpt>
      <trkpt lat="36.73952" lon="28.14479">
        <ele>48.4</ele>
      </trkpt>
      <trkpt lat="36.73951" lon="28.14481">
        <ele>48.1</ele>
      </trkpt>
      <trkpt lat="36.7395" lon="28.14484">
        <ele>47.7</ele>
      </trkpt>
      <trkpt lat="36.73948" lon="28.14486">
        <ele>47.5</ele>
      </trkpt>
      <trkpt lat="36.73947" lon="28.14487">
        <ele>47.4</ele>
      </trkpt>
      <trkpt lat="36.73946" lon="28.14489">
        <ele>47</ele>
      </trkpt>
      <trkpt lat="36.73942" lon="28.14493">
        <ele>46.6</ele>
      </trkpt>
      <trkpt lat="36.73941" lon="28.14494">
        <ele>46.3</ele>
      </trkpt>
      <trkpt lat="36.73939" lon="28.14495">
        <ele>46.1</ele>
      </trkpt>
      <trkpt lat="36.73937" lon="28.14496">
        <ele>46</ele>
      </trkpt>
      <trkpt lat="36.73935" lon="28.14496">
        <ele>45.9</ele>
      </trkpt>
      <trkpt lat="36.73933" lon="28.14498">
        <ele>45.6</ele>
      </trkpt>
      <trkpt lat="36.73931" lon="28.14498">
        <ele>45.5</ele>
      </trkpt>
      <trkpt lat="36.73925" lon="28.14502">
        <ele>45</ele>
      </trkpt>
      <trkpt lat="36.73922" lon="28.14503">
        <ele>44.9</ele>
      </trkpt>
      <trkpt lat="36.73921" lon="28.14503">
        <ele>44.9</ele>
      </trkpt>
      <trkpt lat="36.73919" lon="28.14504">
        <ele>44.8</ele>
      </trkpt>
      <trkpt lat="36.73915" lon="28.14505">
        <ele>44.7</ele>
      </trkpt>
      <trkpt lat="36.73913" lon="28.14505">
        <ele>44.7</ele>
      </trkpt>
      <trkpt lat="36.73911" lon="28.14506">
        <ele>44.7</ele>
      </trkpt>
      <trkpt lat="36.73908" lon="28.14507">
        <ele>44.7</ele>
      </trkpt>
      <trkpt lat="36.73906" lon="28.14508">
        <ele>44.6</ele>
      </trkpt>
      <trkpt lat="36.73904" lon="28.1451">
        <ele>44.5</ele>
      </trkpt>
      <trkpt lat="36.73903" lon="28.14511">
        <ele>44.5</ele>
      </trkpt>
      <trkpt lat="36.73893" lon="28.14517">
        <ele>44.1</ele>
      </trkpt>
      <trkpt lat="36.73893" lon="28.14517">
        <ele>44.1</ele>
      </trkpt>
      <trkpt lat="36.73891" lon="28.14518">
        <ele>44.1</ele>
      </trkpt>
      <trkpt lat="36.7389" lon="28.14519">
        <ele>44.1</ele>
      </trkpt>
      <trkpt lat="36.73887" lon="28.1452">
        <ele>44</ele>
      </trkpt>
      <trkpt lat="36.73885" lon="28.14522">
        <ele>43.9</ele>
      </trkpt>
      <trkpt lat="36.73884" lon="28.14523">
        <ele>43.8</ele>
      </trkpt>
      <trkpt lat="36.73882" lon="28.14524">
        <ele>43.7</ele>
      </trkpt>
      <trkpt lat="36.7388" lon="28.14526">
        <ele>43.6</ele>
      </trkpt>
      <trkpt lat="36.73879" lon="28.14527">
        <ele>43.5</ele>
      </trkpt>
      <trkpt lat="36.73877" lon="28.14529">
        <ele>43.4</ele>
      </trkpt>
      <trkpt lat="36.73874" lon="28.14531">
        <ele>43.3</ele>
      </trkpt>
      <trkpt lat="36.73873" lon="28.14531">
        <ele>43.3</ele>
      </trkpt>
      <trkpt lat="36.73872" lon="28.14532">
        <ele>43.2</ele>
      </trkpt>
      <trkpt lat="36.73871" lon="28.14533">
        <ele>43.1</ele>
      </trkpt>
      <trkpt lat="36.73869" lon="28.14534">
        <ele>43</ele>
      </trkpt>
      <trkpt lat="36.73867" lon="28.14537">
        <ele>42.9</ele>
      </trkpt>
      <trkpt lat="36.73866" lon="28.14538">
        <ele>42.8</ele>
      </trkpt>
      <trkpt lat="36.73864" lon="28.1454">
        <ele>42.7</ele>
      </trkpt>
      <trkpt lat="36.73861" lon="28.14541">
        <ele>42.6</ele>
      </trkpt>
      <trkpt lat="36.73859" lon="28.14542">
        <ele>42.5</ele>
      </trkpt>
      <trkpt lat="36.73858" lon="28.14543">
        <ele>42.4</ele>
      </trkpt>
      <trkpt lat="36.73857" lon="28.14544">
        <ele>42.3</ele>
      </trkpt>
      <trkpt lat="36.73855" lon="28.14545">
        <ele>42.2</ele>
      </trkpt>
      <trkpt lat="36.73853" lon="28.14546">
        <ele>42.1</ele>
      </trkpt>
      <trkpt lat="36.73851" lon="28.14547">
        <ele>42.1</ele>
      </trkpt>
      <trkpt lat="36.73848" lon="28.14549">
        <ele>41.9</ele>
      </trkpt>
      <trkpt lat="36.73844" lon="28.14554">
        <ele>41.5</ele>
      </trkpt>
      <trkpt lat="36.73841" lon="28.14557">
        <ele>41.3</ele>
      </trkpt>
      <trkpt lat="36.7384" lon="28.14557">
        <ele>41.2</ele>
      </trkpt>
      <trkpt lat="36.73838" lon="28.14559">
        <ele>41.1</ele>
      </trkpt>
      <trkpt lat="36.73836" lon="28.1456">
        <ele>41</ele>
      </trkpt>
      <trkpt lat="36.73835" lon="28.14561">
        <ele>40.9</ele>
      </trkpt>
      <trkpt lat="36.73833" lon="28.14563">
        <ele>40.8</ele>
      </trkpt>
      <trkpt lat="36.7383" lon="28.14566">
        <ele>41</ele>
      </trkpt>
      <trkpt lat="36.73829" lon="28.14566">
        <ele>41.2</ele>
      </trkpt>
      <trkpt lat="36.73827" lon="28.14567">
        <ele>41.4</ele>
      </trkpt>
      <trkpt lat="36.73825" lon="28.14567">
        <ele>41.6</ele>
      </trkpt>
      <trkpt lat="36.73822" lon="28.14568">
        <ele>41.9</ele>
      </trkpt>
      <trkpt lat="36.7382" lon="28.1457">
        <ele>42</ele>
      </trkpt>
      <trkpt lat="36.73819" lon="28.14573">
        <ele>41.8</ele>
      </trkpt>
      <trkpt lat="36.73816" lon="28.14577">
        <ele>41.6</ele>
      </trkpt>
      <trkpt lat="36.73815" lon="28.14577">
        <ele>41.8</ele>
      </trkpt>
      <trkpt lat="36.73815" lon="28.14578">
        <ele>41.7</ele>
      </trkpt>
      <trkpt lat="36.73813" lon="28.14581">
        <ele>41.6</ele>
      </trkpt>
      <trkpt lat="36.73811" lon="28.14582">
        <ele>41.7</ele>
      </trkpt>
      <trkpt lat="36.73809" lon="28.14583">
        <ele>41.7</ele>
      </trkpt>
      <trkpt lat="36.73805" lon="28.14586">
        <ele>42.7</ele>
      </trkpt>
      <trkpt lat="36.73803" lon="28.14587">
        <ele>43</ele>
      </trkpt>
      <trkpt lat="36.73802" lon="28.14587">
        <ele>43.3</ele>
      </trkpt>
      <trkpt lat="36.738" lon="28.14588">
        <ele>43.8</ele>
      </trkpt>
      <trkpt lat="36.73798" lon="28.14589">
        <ele>44.1</ele>
      </trkpt>
      <trkpt lat="36.73795" lon="28.14591">
        <ele>45</ele>
      </trkpt>
      <trkpt lat="36.73794" lon="28.14593">
        <ele>45.5</ele>
      </trkpt>
      <trkpt lat="36.7379" lon="28.14595">
        <ele>46.6</ele>
      </trkpt>
      <trkpt lat="36.73789" lon="28.14595">
        <ele>46.9</ele>
      </trkpt>
      <trkpt lat="36.73787" lon="28.14596">
        <ele>47.4</ele>
      </trkpt>
      <trkpt lat="36.73785" lon="28.14596">
        <ele>47.8</ele>
      </trkpt>
      <trkpt lat="36.73783" lon="28.14598">
        <ele>48.3</ele>
      </trkpt>
      <trkpt lat="36.7378" lon="28.14598">
        <ele>48.8</ele>
      </trkpt>
      <trkpt lat="36.73777" lon="28.14598">
        <ele>49.1</ele>
      </trkpt>
      <trkpt lat="36.73774" lon="28.14598">
        <ele>49.6</ele>
      </trkpt>
      <trkpt lat="36.73772" lon="28.14597">
        <ele>49.7</ele>
      </trkpt>
      <trkpt lat="36.7377" lon="28.14597">
        <ele>49.8</ele>
      </trkpt>
      <trkpt lat="36.73767" lon="28.14597">
        <ele>50.2</ele>
      </trkpt>
      <trkpt lat="36.73765" lon="28.14596">
        <ele>50.4</ele>
      </trkpt>
      <trkpt lat="36.73761" lon="28.14596">
        <ele>51</ele>
      </trkpt>
      <trkpt lat="36.73759" lon="28.14596">
        <ele>51</ele>
      </trkpt>
      <trkpt lat="36.73757" lon="28.14595">
        <ele>51</ele>
      </trkpt>
      <trkpt lat="36.73755" lon="28.14594">
        <ele>50.9</ele>
      </trkpt>
      <trkpt lat="36.73752" lon="28.14593">
        <ele>51.1</ele>
      </trkpt>
      <trkpt lat="36.7375" lon="28.14592">
        <ele>51</ele>
      </trkpt>
      <trkpt lat="36.73748" lon="28.14592">
        <ele>51.2</ele>
      </trkpt>
      <trkpt lat="36.73746" lon="28.14592">
        <ele>51.4</ele>
      </trkpt>
      <trkpt lat="36.73744" lon="28.14592">
        <ele>51.6</ele>
      </trkpt>
      <trkpt lat="36.73743" lon="28.14592">
        <ele>51.7</ele>
      </trkpt>
      <trkpt lat="36.7374" lon="28.14593">
        <ele>52.1</ele>
      </trkpt>
      <trkpt lat="36.73737" lon="28.14593">
        <ele>52.3</ele>
      </trkpt>
      <trkpt lat="36.73734" lon="28.14593">
        <ele>52.6</ele>
      </trkpt>
      <trkpt lat="36.73731" lon="28.14594">
        <ele>53.1</ele>
      </trkpt>
      <trkpt lat="36.7373" lon="28.14594">
        <ele>53.4</ele>
      </trkpt>
      <trkpt lat="36.73728" lon="28.14595">
        <ele>53.7</ele>
      </trkpt>
      <trkpt lat="36.73726" lon="28.14595">
        <ele>53.9</ele>
      </trkpt>
      <trkpt lat="36.73724" lon="28.14596">
        <ele>54.3</ele>
      </trkpt>
      <trkpt lat="36.7372" lon="28.14596">
        <ele>54.6</ele>
      </trkpt>
      <trkpt lat="36.73718" lon="28.14596">
        <ele>54.8</ele>
      </trkpt>
      <trkpt lat="36.73716" lon="28.14597">
        <ele>55</ele>
      </trkpt>
      <trkpt lat="36.73713" lon="28.14597">
        <ele>55.2</ele>
      </trkpt>
      <trkpt lat="36.73712" lon="28.14597">
        <ele>55.3</ele>
      </trkpt>
      <trkpt lat="36.73711" lon="28.14597">
        <ele>55.4</ele>
      </trkpt>
      <trkpt lat="36.73709" lon="28.14597">
        <ele>55.6</ele>
      </trkpt>
      <trkpt lat="36.73704" lon="28.14598">
        <ele>55.9</ele>
      </trkpt>
      <trkpt lat="36.73703" lon="28.14599">
        <ele>56.1</ele>
      </trkpt>
      <trkpt lat="36.73702" lon="28.14599">
        <ele>56.2</ele>
      </trkpt>
      <trkpt lat="36.737" lon="28.146">
        <ele>56.4</ele>
      </trkpt>
      <trkpt lat="36.73699" lon="28.14601">
        <ele>56.5</ele>
      </trkpt>
      <trkpt lat="36.73697" lon="28.14601">
        <ele>56.6</ele>
      </trkpt>
      <trkpt lat="36.73694" lon="28.14602">
        <ele>56.8</ele>
      </trkpt>
      <trkpt lat="36.73692" lon="28.14603">
        <ele>56.9</ele>
      </trkpt>
      <trkpt lat="36.73687" lon="28.1461">
        <ele>57.1</ele>
      </trkpt>
      <trkpt lat="36.73687" lon="28.14611">
        <ele>57.1</ele>
      </trkpt>
      <trkpt lat="36.73686" lon="28.14613">
        <ele>57.1</ele>
      </trkpt>
      <trkpt lat="36.73686" lon="28.14615">
        <ele>57.1</ele>
      </trkpt>
      <trkpt lat="36.73686" lon="28.14617">
        <ele>57</ele>
      </trkpt>
      <trkpt lat="36.73686" lon="28.14617">
        <ele>57</ele>
      </trkpt>
      <trkpt lat="36.73686" lon="28.1462">
        <ele>57</ele>
      </trkpt>
      <trkpt lat="36.73686" lon="28.14622">
        <ele>57</ele>
      </trkpt>
      <trkpt lat="36.73686" lon="28.14624">
        <ele>57</ele>
      </trkpt>
      <trkpt lat="36.73685" lon="28.14626">
        <ele>56.9</ele>
      </trkpt>
      <trkpt lat="36.73684" lon="28.14628">
        <ele>56.8</ele>
      </trkpt>
      <trkpt lat="36.73684" lon="28.14631">
        <ele>56.7</ele>
      </trkpt>
      <trkpt lat="36.73682" lon="28.14634">
        <ele>56.5</ele>
      </trkpt>
      <trkpt lat="36.73679" lon="28.14638">
        <ele>55.9</ele>
      </trkpt>
      <trkpt lat="36.73679" lon="28.14639">
        <ele>55.8</ele>
      </trkpt>
      <trkpt lat="36.73679" lon="28.14642">
        <ele>55.7</ele>
      </trkpt>
      <trkpt lat="36.73679" lon="28.14645">
        <ele>55.5</ele>
      </trkpt>
      <trkpt lat="36.73678" lon="28.14648">
        <ele>55.3</ele>
      </trkpt>
      <trkpt lat="36.73678" lon="28.14651">
        <ele>55.1</ele>
      </trkpt>
      <trkpt lat="36.73676" lon="28.14653">
        <ele>54.7</ele>
      </trkpt>
      <trkpt lat="36.73676" lon="28.14655">
        <ele>54.5</ele>
      </trkpt>
      <trkpt lat="36.73674" lon="28.14656">
        <ele>54</ele>
      </trkpt>
      <trkpt lat="36.73673" lon="28.14658">
        <ele>53.5</ele>
      </trkpt>
      <trkpt lat="36.73671" lon="28.14659">
        <ele>52.8</ele>
      </trkpt>
      <trkpt lat="36.73668" lon="28.14662">
        <ele>52</ele>
      </trkpt>
      <trkpt lat="36.73668" lon="28.14663">
        <ele>51.7</ele>
      </trkpt>
      <trkpt lat="36.73666" lon="28.14665">
        <ele>51.2</ele>
      </trkpt>
      <trkpt lat="36.73664" lon="28.14666">
        <ele>51.1</ele>
      </trkpt>
      <trkpt lat="36.73662" lon="28.14668">
        <ele>51.7</ele>
      </trkpt>
      <trkpt lat="36.73661" lon="28.14668">
        <ele>51.9</ele>
      </trkpt>
      <trkpt lat="36.73659" lon="28.14669">
        <ele>52.3</ele>
      </trkpt>
      <trkpt lat="36.73658" lon="28.14671">
        <ele>52.9</ele>
      </trkpt>
      <trkpt lat="36.73655" lon="28.14674">
        <ele>53.9</ele>
      </trkpt>
      <trkpt lat="36.73655" lon="28.14674">
        <ele>53.9</ele>
      </trkpt>
      <trkpt lat="36.73653" lon="28.14675">
        <ele>54.5</ele>
      </trkpt>
      <trkpt lat="36.73651" lon="28.14676">
        <ele>54.8</ele>
      </trkpt>
      <trkpt lat="36.7365" lon="28.14677">
        <ele>54.9</ele>
      </trkpt>
      <trkpt lat="36.73647" lon="28.14678">
        <ele>55.4</ele>
      </trkpt>
      <trkpt lat="36.73646" lon="28.14679">
        <ele>55.7</ele>
      </trkpt>
      <trkpt lat="36.73644" lon="28.14679">
        <ele>55.7</ele>
      </trkpt>
      <trkpt lat="36.73642" lon="28.14681">
        <ele>56.2</ele>
      </trkpt>
      <trkpt lat="36.73641" lon="28.14682">
        <ele>56.5</ele>
      </trkpt>
      <trkpt lat="36.7364" lon="28.14684">
        <ele>57</ele>
      </trkpt>
      <trkpt lat="36.73638" lon="28.14686">
        <ele>57.5</ele>
      </trkpt>
      <trkpt lat="36.73633" lon="28.14687">
        <ele>57.6</ele>
      </trkpt>
      <trkpt lat="36.73632" lon="28.14688">
        <ele>57.9</ele>
      </trkpt>
      <trkpt lat="36.73631" lon="28.1469">
        <ele>58.2</ele>
      </trkpt>
      <trkpt lat="36.73629" lon="28.14692">
        <ele>58.7</ele>
      </trkpt>
      <trkpt lat="36.73628" lon="28.14692">
        <ele>58.7</ele>
      </trkpt>
      <trkpt lat="36.73626" lon="28.14693">
        <ele>58.6</ele>
      </trkpt>
      <trkpt lat="36.73623" lon="28.14694">
        <ele>58.8</ele>
      </trkpt>
      <trkpt lat="36.73621" lon="28.14694">
        <ele>58.6</ele>
      </trkpt>
      <trkpt lat="36.73618" lon="28.14699">
        <ele>59.3</ele>
      </trkpt>
      <trkpt lat="36.73616" lon="28.147">
        <ele>59.4</ele>
      </trkpt>
      <trkpt lat="36.73615" lon="28.14701">
        <ele>59.4</ele>
      </trkpt>
      <trkpt lat="36.73612" lon="28.14703">
        <ele>59.6</ele>
      </trkpt>
      <trkpt lat="36.73611" lon="28.14705">
        <ele>59.7</ele>
      </trkpt>
      <trkpt lat="36.73609" lon="28.14706">
        <ele>59.6</ele>
      </trkpt>
      <trkpt lat="36.73608" lon="28.14707">
        <ele>59.7</ele>
      </trkpt>
      <trkpt lat="36.73604" lon="28.1471">
        <ele>59.7</ele>
      </trkpt>
      <trkpt lat="36.73602" lon="28.14712">
        <ele>59.6</ele>
      </trkpt>
      <trkpt lat="36.736" lon="28.14714">
        <ele>59.6</ele>
      </trkpt>
      <trkpt lat="36.73599" lon="28.14716">
        <ele>59.6</ele>
      </trkpt>
      <trkpt lat="36.73598" lon="28.14717">
        <ele>59.6</ele>
      </trkpt>
      <trkpt lat="36.73596" lon="28.1472">
        <ele>59.5</ele>
      </trkpt>
      <trkpt lat="36.73593" lon="28.14723">
        <ele>59.2</ele>
      </trkpt>
      <trkpt lat="36.73591" lon="28.14723">
        <ele>58.9</ele>
      </trkpt>
      <trkpt lat="36.73589" lon="28.14725">
        <ele>58.7</ele>
      </trkpt>
      <trkpt lat="36.73588" lon="28.14726">
        <ele>58.5</ele>
      </trkpt>
      <trkpt lat="36.73586" lon="28.14728">
        <ele>58.3</ele>
      </trkpt>
      <trkpt lat="36.73583" lon="28.1473">
        <ele>57.8</ele>
      </trkpt>
      <trkpt lat="36.73582" lon="28.1473">
        <ele>57.8</ele>
      </trkpt>
      <trkpt lat="36.73579" lon="28.14733">
        <ele>57.7</ele>
      </trkpt>
      <trkpt lat="36.73578" lon="28.14733">
        <ele>57.7</ele>
      </trkpt>
      <trkpt lat="36.73577" lon="28.14733">
        <ele>57.6</ele>
      </trkpt>
      <trkpt lat="36.73574" lon="28.14734">
        <ele>57.5</ele>
      </trkpt>
      <trkpt lat="36.73574" lon="28.14735">
        <ele>57.5</ele>
      </trkpt>
      <trkpt lat="36.73572" lon="28.14735">
        <ele>57.4</ele>
      </trkpt>
      <trkpt lat="36.73571" lon="28.14737">
        <ele>57.4</ele>
      </trkpt>
      <trkpt lat="36.73569" lon="28.14739">
        <ele>57.3</ele>
      </trkpt>
      <trkpt lat="36.73567" lon="28.14739">
        <ele>57.1</ele>
      </trkpt>
      <trkpt lat="36.73566" lon="28.14739">
        <ele>57</ele>
      </trkpt>
      <trkpt lat="36.73564" lon="28.14741">
        <ele>56.9</ele>
      </trkpt>
      <trkpt lat="36.73563" lon="28.14742">
        <ele>56.8</ele>
      </trkpt>
      <trkpt lat="36.73561" lon="28.14743">
        <ele>56.6</ele>
      </trkpt>
      <trkpt lat="36.73559" lon="28.14745">
        <ele>56.4</ele>
      </trkpt>
      <trkpt lat="36.73557" lon="28.14747">
        <ele>56.2</ele>
      </trkpt>
      <trkpt lat="36.73554" lon="28.14747">
        <ele>55.9</ele>
      </trkpt>
      <trkpt lat="36.73554" lon="28.14748">
        <ele>55.9</ele>
      </trkpt>
      <trkpt lat="36.73551" lon="28.1475">
        <ele>55.5</ele>
      </trkpt>
      <trkpt lat="36.73549" lon="28.1475">
        <ele>55.3</ele>
      </trkpt>
      <trkpt lat="36.73546" lon="28.1475">
        <ele>55</ele>
      </trkpt>
      <trkpt lat="36.73544" lon="28.14751">
        <ele>55</ele>
      </trkpt>
      <trkpt lat="36.73543" lon="28.14751">
        <ele>55</ele>
      </trkpt>
      <trkpt lat="36.73541" lon="28.14753">
        <ele>55.5</ele>
      </trkpt>
      <trkpt lat="36.73539" lon="28.14754">
        <ele>55.6</ele>
      </trkpt>
      <trkpt lat="36.73536" lon="28.14756">
        <ele>56</ele>
      </trkpt>
      <trkpt lat="36.73535" lon="28.14757">
        <ele>56</ele>
      </trkpt>
      <trkpt lat="36.73533" lon="28.14757">
        <ele>55.9</ele>
      </trkpt>
      <trkpt lat="36.73531" lon="28.14758">
        <ele>55.9</ele>
      </trkpt>
      <trkpt lat="36.73529" lon="28.14759">
        <ele>56</ele>
      </trkpt>
      <trkpt lat="36.73527" lon="28.1476">
        <ele>55.9</ele>
      </trkpt>
      <trkpt lat="36.73525" lon="28.1476">
        <ele>56</ele>
      </trkpt>
      <trkpt lat="36.73523" lon="28.14761">
        <ele>56</ele>
      </trkpt>
      <trkpt lat="36.73521" lon="28.14763">
        <ele>56.2</ele>
      </trkpt>
      <trkpt lat="36.73518" lon="28.14765">
        <ele>56.4</ele>
      </trkpt>
      <trkpt lat="36.73517" lon="28.14765">
        <ele>56.3</ele>
      </trkpt>
      <trkpt lat="36.73514" lon="28.14767">
        <ele>56.5</ele>
      </trkpt>
      <trkpt lat="36.73513" lon="28.14767">
        <ele>56.3</ele>
      </trkpt>
      <trkpt lat="36.73511" lon="28.14767">
        <ele>56.2</ele>
      </trkpt>
      <trkpt lat="36.73509" lon="28.14769">
        <ele>56.3</ele>
      </trkpt>
      <trkpt lat="36.73507" lon="28.14771">
        <ele>56.6</ele>
      </trkpt>
      <trkpt lat="36.73505" lon="28.14773">
        <ele>56.8</ele>
      </trkpt>
      <trkpt lat="36.73503" lon="28.14774">
        <ele>56.7</ele>
      </trkpt>
      <trkpt lat="36.73502" lon="28.14774">
        <ele>56.7</ele>
      </trkpt>
      <trkpt lat="36.735" lon="28.14775">
        <ele>56.7</ele>
      </trkpt>
      <trkpt lat="36.73495" lon="28.14776">
        <ele>56.9</ele>
      </trkpt>
      <trkpt lat="36.73482" lon="28.14783">
        <ele>58.7</ele>
      </trkpt>
      <trkpt lat="36.73453" lon="28.14799">
        <ele>62</ele>
      </trkpt>
      <trkpt lat="36.73434" lon="28.14803">
        <ele>62.3</ele>
      </trkpt>
      <trkpt lat="36.734" lon="28.14808">
        <ele>62</ele>
      </trkpt>
      <trkpt lat="36.73372" lon="28.14814">
        <ele>61.5</ele>
      </trkpt>
      <trkpt lat="36.73354" lon="28.14822">
        <ele>61.4</ele>
      </trkpt>
      <trkpt lat="36.73348" lon="28.14831">
        <ele>61.9</ele>
      </trkpt>
      <trkpt lat="36.73337" lon="28.14845">
        <ele>65.7</ele>
      </trkpt>
      <trkpt lat="36.73325" lon="28.14846">
        <ele>65.7</ele>
      </trkpt>
      <trkpt lat="36.73315" lon="28.1484">
        <ele>63.5</ele>
      </trkpt>
      <trkpt lat="36.73302" lon="28.14834">
        <ele>61.5</ele>
      </trkpt>
      <trkpt lat="36.73284" lon="28.14834">
        <ele>62</ele>
      </trkpt>
      <trkpt lat="36.73265" lon="28.14836">
        <ele>62.8</ele>
      </trkpt>
      <trkpt lat="36.73244" lon="28.14839">
        <ele>63.4</ele>
      </trkpt>
      <trkpt lat="36.73229" lon="28.14851">
        <ele>65.6</ele>
      </trkpt>
      <trkpt lat="36.73205" lon="28.1488">
        <ele>69.2</ele>
      </trkpt>
      <trkpt lat="36.73206" lon="28.14879">
        <ele>69.2</ele>
      </trkpt>
      <trkpt lat="36.73201" lon="28.14878">
        <ele>68.3</ele>
      </trkpt>
      <trkpt lat="36.73196" lon="28.14876">
        <ele>67</ele>
      </trkpt>
      <trkpt lat="36.73187" lon="28.14874">
        <ele>65.5</ele>
      </trkpt>
      <trkpt lat="36.73183" lon="28.14874">
        <ele>64.8</ele>
      </trkpt>
      <trkpt lat="36.73176" lon="28.14868">
        <ele>63.2</ele>
      </trkpt>
      <trkpt lat="36.73167" lon="28.14864">
        <ele>61.6</ele>
      </trkpt>
      <trkpt lat="36.73159" lon="28.14862">
        <ele>61.7</ele>
      </trkpt>
      <trkpt lat="36.73154" lon="28.14863">
        <ele>61.9</ele>
      </trkpt>
      <trkpt lat="36.73149" lon="28.14862">
        <ele>62</ele>
      </trkpt>
      <trkpt lat="36.73145" lon="28.14857">
        <ele>61.7</ele>
      </trkpt>
      <trkpt lat="36.73142" lon="28.14852">
        <ele>61.4</ele>
      </trkpt>
      <trkpt lat="36.73139" lon="28.14852">
        <ele>61.4</ele>
      </trkpt>
      <trkpt lat="36.73139" lon="28.14858">
        <ele>62</ele>
      </trkpt>
      <trkpt lat="36.73135" lon="28.14857">
        <ele>62</ele>
      </trkpt>
      <trkpt lat="36.73131" lon="28.14857">
        <ele>62.2</ele>
      </trkpt>
      <trkpt lat="36.73128" lon="28.14856">
        <ele>62.2</ele>
      </trkpt>
      <trkpt lat="36.73127" lon="28.14861">
        <ele>62.6</ele>
      </trkpt>
      <trkpt lat="36.73124" lon="28.14866">
        <ele>63.1</ele>
      </trkpt>
      <trkpt lat="36.73119" lon="28.14868">
        <ele>63.4</ele>
      </trkpt>
      <trkpt lat="36.73115" lon="28.14869">
        <ele>63.6</ele>
      </trkpt>
      <trkpt lat="36.73109" lon="28.1487">
        <ele>63.9</ele>
      </trkpt>
      <trkpt lat="36.73103" lon="28.14872">
        <ele>64.2</ele>
      </trkpt>
      <trkpt lat="36.73096" lon="28.14875">
        <ele>64.6</ele>
      </trkpt>
      <trkpt lat="36.73091" lon="28.1488">
        <ele>65.1</ele>
      </trkpt>
      <trkpt lat="36.73086" lon="28.14886">
        <ele>65.7</ele>
      </trkpt>
      <trkpt lat="36.73081" lon="28.14889">
        <ele>66.1</ele>
      </trkpt>
      <trkpt lat="36.73077" lon="28.1489">
        <ele>66.4</ele>
      </trkpt>
      <trkpt lat="36.73075" lon="28.1489">
        <ele>66.4</ele>
      </trkpt>
      <trkpt lat="36.73076" lon="28.14892">
        <ele>66.5</ele>
      </trkpt>
      <trkpt lat="36.73075" lon="28.14893">
        <ele>66.7</ele>
      </trkpt>
      <trkpt lat="36.73068" lon="28.14903">
        <ele>67.7</ele>
      </trkpt>
      <trkpt lat="36.73062" lon="28.14903">
        <ele>68</ele>
      </trkpt>
      <trkpt lat="36.73059" lon="28.14903">
        <ele>68.1</ele>
      </trkpt>
      <trkpt lat="36.73052" lon="28.14906">
        <ele>68.7</ele>
      </trkpt>
      <trkpt lat="36.7305" lon="28.14906">
        <ele>68.8</ele>
      </trkpt>
      <trkpt lat="36.73044" lon="28.14906">
        <ele>69.1</ele>
      </trkpt>
      <trkpt lat="36.73041" lon="28.14915">
        <ele>69.9</ele>
      </trkpt>
      <trkpt lat="36.73034" lon="28.14928">
        <ele>71.1</ele>
      </trkpt>
      <trkpt lat="36.73029" lon="28.14937">
        <ele>72</ele>
      </trkpt>
      <trkpt lat="36.73026" lon="28.14939">
        <ele>72.5</ele>
      </trkpt>
      <trkpt lat="36.73025" lon="28.14945">
        <ele>73</ele>
      </trkpt>
      <trkpt lat="36.7303" lon="28.14957">
        <ele>73.4</ele>
      </trkpt>
      <trkpt lat="36.7303" lon="28.14966">
        <ele>74</ele>
      </trkpt>
      <trkpt lat="36.73032" lon="28.14973">
        <ele>74.2</ele>
      </trkpt>
      <trkpt lat="36.73034" lon="28.14978">
        <ele>74.3</ele>
      </trkpt>
      <trkpt lat="36.73035" lon="28.14985">
        <ele>74.6</ele>
      </trkpt>
      <trkpt lat="36.73041" lon="28.15001">
        <ele>74.7</ele>
      </trkpt>
      <trkpt lat="36.73045" lon="28.1501">
        <ele>75.7</ele>
      </trkpt>
      <trkpt lat="36.73048" lon="28.15018">
        <ele>76.7</ele>
      </trkpt>
      <trkpt lat="36.73052" lon="28.15025">
        <ele>77</ele>
      </trkpt>
      <trkpt lat="36.73057" lon="28.15034">
        <ele>77.5</ele>
      </trkpt>
      <trkpt lat="36.7306" lon="28.15044">
        <ele>78.2</ele>
      </trkpt>
      <trkpt lat="36.73064" lon="28.15056">
        <ele>79.1</ele>
      </trkpt>
      <trkpt lat="36.73065" lon="28.15063">
        <ele>79.8</ele>
      </trkpt>
      <trkpt lat="36.73069" lon="28.15065">
        <ele>79</ele>
      </trkpt>
      <trkpt lat="36.73067" lon="28.15072">
        <ele>80.5</ele>
      </trkpt>
      <trkpt lat="36.73068" lon="28.15072">
        <ele>80.3</ele>
      </trkpt>
      <trkpt lat="36.73068" lon="28.15072">
        <ele>80.3</ele>
      </trkpt>
      <trkpt lat="36.73069" lon="28.15071">
        <ele>79.7</ele>
      </trkpt>
      <trkpt lat="36.73069" lon="28.15071">
        <ele>79.9</ele>
      </trkpt>
      <trkpt lat="36.73069" lon="28.15076">
        <ele>80.6</ele>
      </trkpt>
      <trkpt lat="36.73075" lon="28.15077">
        <ele>78.9</ele>
      </trkpt>
      <trkpt lat="36.73076" lon="28.15081">
        <ele>78.9</ele>
      </trkpt>
      <trkpt lat="36.7308" lon="28.15085">
        <ele>78.5</ele>
      </trkpt>
      <trkpt lat="36.73082" lon="28.15091">
        <ele>78.3</ele>
      </trkpt>
      <trkpt lat="36.73085" lon="28.15097">
        <ele>79.2</ele>
      </trkpt>
      <trkpt lat="36.73087" lon="28.15105">
        <ele>80.5</ele>
      </trkpt>
      <trkpt lat="36.73085" lon="28.15109">
        <ele>80.5</ele>
      </trkpt>
      <trkpt lat="36.73085" lon="28.15109">
        <ele>80.4</ele>
      </trkpt>
      <trkpt lat="36.73084" lon="28.1511">
        <ele>80.2</ele>
      </trkpt>
      <trkpt lat="36.73082" lon="28.15116">
        <ele>81.4</ele>
      </trkpt>
      <trkpt lat="36.7308" lon="28.15119">
        <ele>82.5</ele>
      </trkpt>
      <trkpt lat="36.73079" lon="28.1512">
        <ele>82.7</ele>
      </trkpt>
      <trkpt lat="36.73077" lon="28.15129">
        <ele>84.6</ele>
      </trkpt>
      <trkpt lat="36.73073" lon="28.15138">
        <ele>87.3</ele>
      </trkpt>
      <trkpt lat="36.73072" lon="28.15143">
        <ele>88.3</ele>
      </trkpt>
      <trkpt lat="36.7307" lon="28.15149">
        <ele>89.8</ele>
      </trkpt>
      <trkpt lat="36.73067" lon="28.15157">
        <ele>91.9</ele>
      </trkpt>
      <trkpt lat="36.73067" lon="28.15162">
        <ele>92.5</ele>
      </trkpt>
      <trkpt lat="36.73067" lon="28.15174">
        <ele>93.6</ele>
      </trkpt>
      <trkpt lat="36.73066" lon="28.15185">
        <ele>94.3</ele>
      </trkpt>
      <trkpt lat="36.73067" lon="28.1519">
        <ele>94.3</ele>
      </trkpt>
      <trkpt lat="36.73069" lon="28.15198">
        <ele>93.9</ele>
      </trkpt>
      <trkpt lat="36.7307" lon="28.15206">
        <ele>93.8</ele>
      </trkpt>
      <trkpt lat="36.73072" lon="28.15212">
        <ele>93.2</ele>
      </trkpt>
      <trkpt lat="36.7307" lon="28.15217">
        <ele>94.4</ele>
      </trkpt>
      <trkpt lat="36.73069" lon="28.15222">
        <ele>94.9</ele>
      </trkpt>
      <trkpt lat="36.73062" lon="28.15226">
        <ele>97.5</ele>
      </trkpt>
      <trkpt lat="36.73062" lon="28.15229">
        <ele>97.7</ele>
      </trkpt>
      <trkpt lat="36.7306" lon="28.15238">
        <ele>98.6</ele>
      </trkpt>
      <trkpt lat="36.73056" lon="28.15243">
        <ele>100.3</ele>
      </trkpt>
      <trkpt lat="36.73055" lon="28.15244">
        <ele>100.7</ele>
      </trkpt>
      <trkpt lat="36.73052" lon="28.15253">
        <ele>102.4</ele>
      </trkpt>
      <trkpt lat="36.73051" lon="28.1527">
        <ele>104.3</ele>
      </trkpt>
      <trkpt lat="36.73051" lon="28.15276">
        <ele>104.6</ele>
      </trkpt>
      <trkpt lat="36.73054" lon="28.15286">
        <ele>104.7</ele>
      </trkpt>
      <trkpt lat="36.73054" lon="28.15286">
        <ele>104.7</ele>
      </trkpt>
      <trkpt lat="36.73054" lon="28.15295">
        <ele>105.5</ele>
      </trkpt>
      <trkpt lat="36.73057" lon="28.15305">
        <ele>105</ele>
      </trkpt>
      <trkpt lat="36.73056" lon="28.15316">
        <ele>106.8</ele>
      </trkpt>
      <trkpt lat="36.73056" lon="28.15318">
        <ele>106.6</ele>
      </trkpt>
      <trkpt lat="36.73061" lon="28.15325">
        <ele>105</ele>
      </trkpt>
      <trkpt lat="36.73064" lon="28.15334">
        <ele>104.7</ele>
      </trkpt>
      <trkpt lat="36.73065" lon="28.15341">
        <ele>105.3</ele>
      </trkpt>
      <trkpt lat="36.73074" lon="28.15356">
        <ele>103.7</ele>
      </trkpt>
      <trkpt lat="36.73074" lon="28.15363">
        <ele>104.5</ele>
      </trkpt>
      <trkpt lat="36.73072" lon="28.15367">
        <ele>106.1</ele>
      </trkpt>
      <trkpt lat="36.73073" lon="28.15373">
        <ele>106.4</ele>
      </trkpt>
      <trkpt lat="36.73073" lon="28.15379">
        <ele>107.2</ele>
      </trkpt>
      <trkpt lat="36.73076" lon="28.15382">
        <ele>106.4</ele>
      </trkpt>
      <trkpt lat="36.73079" lon="28.15387">
        <ele>106</ele>
      </trkpt>
      <trkpt lat="36.73079" lon="28.15394">
        <ele>106.9</ele>
      </trkpt>
      <trkpt lat="36.73077" lon="28.15401">
        <ele>108.6</ele>
      </trkpt>
      <trkpt lat="36.73077" lon="28.15401">
        <ele>108.6</ele>
      </trkpt>
      <trkpt lat="36.73077" lon="28.15401">
        <ele>108.6</ele>
      </trkpt>
      <trkpt lat="36.73077" lon="28.15401">
        <ele>108.6</ele>
      </trkpt>
      <trkpt lat="36.73077" lon="28.15401">
        <ele>108.6</ele>
      </trkpt>
      <trkpt lat="36.73077" lon="28.15401">
        <ele>108.6</ele>
      </trkpt>
      <trkpt lat="36.73077" lon="28.15401">
        <ele>108.6</ele>
      </trkpt>
      <trkpt lat="36.73077" lon="28.15401">
        <ele>108.6</ele>
      </trkpt>
      <trkpt lat="36.73077" lon="28.15401">
        <ele>108.6</ele>
      </trkpt>
      <trkpt lat="36.73077" lon="28.15401">
        <ele>108.6</ele>
      </trkpt>
      <trkpt lat="36.73077" lon="28.15401">
        <ele>108.6</ele>
      </trkpt>
      <trkpt lat="36.73077" lon="28.15401">
        <ele>108.6</ele>
      </trkpt>
      <trkpt lat="36.73077" lon="28.15401">
        <ele>108.6</ele>
      </trkpt>
      <trkpt lat="36.73077" lon="28.15401">
        <ele>108.6</ele>
      </trkpt>
      <trkpt lat="36.73077" lon="28.15401">
        <ele>108.6</ele>
      </trkpt>
      <trkpt lat="36.73076" lon="28.15398">
        <ele>108.8</ele>
      </trkpt>
      <trkpt lat="36.73085" lon="28.15398">
        <ele>105.9</ele>
      </trkpt>
      <trkpt lat="36.73085" lon="28.15397">
        <ele>105.7</ele>
      </trkpt>
      <trkpt lat="36.73081" lon="28.15396">
        <ele>106.1</ele>
      </trkpt>
      <trkpt lat="36.7308" lon="28.15405">
        <ele>107.8</ele>
      </trkpt>
      <trkpt lat="36.73079" lon="28.15417">
        <ele>110.1</ele>
      </trkpt>
      <trkpt lat="36.73079" lon="28.15417">
        <ele>110.1</ele>
      </trkpt>
      <trkpt lat="36.73085" lon="28.15426">
        <ele>109.6</ele>
      </trkpt>
      <trkpt lat="36.73083" lon="28.15427">
        <ele>109.5</ele>
      </trkpt>
      <trkpt lat="36.73082" lon="28.15434">
        <ele>110.7</ele>
      </trkpt>
      <trkpt lat="36.73084" lon="28.15439">
        <ele>110.8</ele>
      </trkpt>
      <trkpt lat="36.7308" lon="28.1545">
        <ele>113.8</ele>
      </trkpt>
      <trkpt lat="36.73079" lon="28.15464">
        <ele>115.7</ele>
      </trkpt>
      <trkpt lat="36.73072" lon="28.15477">
        <ele>120.4</ele>
      </trkpt>
      <trkpt lat="36.73072" lon="28.15484">
        <ele>121.2</ele>
      </trkpt>
      <trkpt lat="36.73077" lon="28.15477">
        <ele>118.3</ele>
      </trkpt>
      <trkpt lat="36.73088" lon="28.1548">
        <ele>116.9</ele>
      </trkpt>
      <trkpt lat="36.73099" lon="28.15497">
        <ele>122.1</ele>
      </trkpt>
      <trkpt lat="36.731" lon="28.15503">
        <ele>123</ele>
      </trkpt>
      <trkpt lat="36.73102" lon="28.15519">
        <ele>124.1</ele>
      </trkpt>
      <trkpt lat="36.73103" lon="28.15522">
        <ele>124.5</ele>
      </trkpt>
      <trkpt lat="36.731" lon="28.15523">
        <ele>123.7</ele>
      </trkpt>
      <trkpt lat="36.73098" lon="28.15532">
        <ele>123.6</ele>
      </trkpt>
      <trkpt lat="36.73097" lon="28.15536">
        <ele>123.4</ele>
      </trkpt>
      <trkpt lat="36.73095" lon="28.15546">
        <ele>123.2</ele>
      </trkpt>
      <trkpt lat="36.73096" lon="28.15562">
        <ele>124.2</ele>
      </trkpt>
      <trkpt lat="36.73095" lon="28.15575">
        <ele>124.6</ele>
      </trkpt>
      <trkpt lat="36.73097" lon="28.15589">
        <ele>125.4</ele>
      </trkpt>
      <trkpt lat="36.73097" lon="28.15591">
        <ele>125.5</ele>
      </trkpt>
      <trkpt lat="36.73092" lon="28.15594">
        <ele>124.4</ele>
      </trkpt>
      <trkpt lat="36.73103" lon="28.15607">
        <ele>127.2</ele>
      </trkpt>
      <trkpt lat="36.73104" lon="28.15608">
        <ele>127.5</ele>
      </trkpt>
      <trkpt lat="36.73111" lon="28.15609">
        <ele>129.2</ele>
      </trkpt>
      <trkpt lat="36.73113" lon="28.156">
        <ele>129.7</ele>
      </trkpt>
      <trkpt lat="36.73114" lon="28.15589">
        <ele>129.7</ele>
      </trkpt>
      <trkpt lat="36.73114" lon="28.15583">
        <ele>129.7</ele>
      </trkpt>
      <trkpt lat="36.73113" lon="28.1557">
        <ele>129.1</ele>
      </trkpt>
      <trkpt lat="36.73115" lon="28.15562">
        <ele>129.3</ele>
      </trkpt>
      <trkpt lat="36.73115" lon="28.15551">
        <ele>128.9</ele>
      </trkpt>
      <trkpt lat="36.73114" lon="28.15549">
        <ele>128.5</ele>
      </trkpt>
      <trkpt lat="36.73114" lon="28.15548">
        <ele>128.6</ele>
      </trkpt>
      <trkpt lat="36.73115" lon="28.15536">
        <ele>128.5</ele>
      </trkpt>
      <trkpt lat="36.73114" lon="28.15531">
        <ele>128</ele>
      </trkpt>
      <trkpt lat="36.73118" lon="28.15514">
        <ele>128.5</ele>
      </trkpt>
      <trkpt lat="36.73116" lon="28.15507">
        <ele>127.6</ele>
      </trkpt>
      <trkpt lat="36.73117" lon="28.15489">
        <ele>126.5</ele>
      </trkpt>
      <trkpt lat="36.73116" lon="28.15473">
        <ele>124.7</ele>
      </trkpt>
      <trkpt lat="36.73123" lon="28.15459">
        <ele>125.4</ele>
      </trkpt>
      <trkpt lat="36.73131" lon="28.15443">
        <ele>126.6</ele>
      </trkpt>
      <trkpt lat="36.73134" lon="28.15445">
        <ele>127.5</ele>
      </trkpt>
      <trkpt lat="36.73138" lon="28.15465">
        <ele>130.7</ele>
      </trkpt>
      <trkpt lat="36.73134" lon="28.15474">
        <ele>130.3</ele>
      </trkpt>
      <trkpt lat="36.73136" lon="28.15495">
        <ele>132.8</ele>
      </trkpt>
      <trkpt lat="36.7313" lon="28.15518">
        <ele>131.9</ele>
      </trkpt>
      <trkpt lat="36.73129" lon="28.1552">
        <ele>131.6</ele>
      </trkpt>
      <trkpt lat="36.73137" lon="28.15527">
        <ele>134.2</ele>
      </trkpt>
      <trkpt lat="36.73141" lon="28.15534">
        <ele>135.5</ele>
      </trkpt>
      <trkpt lat="36.7315" lon="28.15545">
        <ele>138.1</ele>
      </trkpt>
      <trkpt lat="36.73157" lon="28.15559">
        <ele>140.1</ele>
      </trkpt>
      <trkpt lat="36.73161" lon="28.15565">
        <ele>141.3</ele>
      </trkpt>
      <trkpt lat="36.73166" lon="28.15581">
        <ele>142.8</ele>
      </trkpt>
      <trkpt lat="36.73169" lon="28.15598">
        <ele>144.5</ele>
      </trkpt>
      <trkpt lat="36.73175" lon="28.15614">
        <ele>147.4</ele>
      </trkpt>
      <trkpt lat="36.73173" lon="28.15625">
        <ele>146.8</ele>
      </trkpt>
      <trkpt lat="36.7318" lon="28.15635">
        <ele>149.9</ele>
      </trkpt>
      <trkpt lat="36.73186" lon="28.15649">
        <ele>152.6</ele>
      </trkpt>
      <trkpt lat="36.73184" lon="28.15655">
        <ele>151.7</ele>
      </trkpt>
      <trkpt lat="36.73189" lon="28.15663">
        <ele>153.9</ele>
      </trkpt>
      <trkpt lat="36.73194" lon="28.15667">
        <ele>155.8</ele>
      </trkpt>
      <trkpt lat="36.73195" lon="28.15668">
        <ele>156</ele>
      </trkpt>
      <trkpt lat="36.73198" lon="28.15678">
        <ele>156.7</ele>
      </trkpt>
      <trkpt lat="36.73207" lon="28.15687">
        <ele>159.5</ele>
      </trkpt>
      <trkpt lat="36.73211" lon="28.15701">
        <ele>160</ele>
      </trkpt>
      <trkpt lat="36.73213" lon="28.15705">
        <ele>160.5</ele>
      </trkpt>
      <trkpt lat="36.73224" lon="28.15704">
        <ele>165</ele>
      </trkpt>
      <trkpt lat="36.73226" lon="28.15701">
        <ele>165.8</ele>
      </trkpt>
      <trkpt lat="36.73234" lon="28.15701">
        <ele>168.9</ele>
      </trkpt>
      <trkpt lat="36.73241" lon="28.15708">
        <ele>170.9</ele>
      </trkpt>
      <trkpt lat="36.73247" lon="28.15709">
        <ele>173.1</ele>
      </trkpt>
      <trkpt lat="36.73255" lon="28.1571">
        <ele>175.1</ele>
      </trkpt>
      <trkpt lat="36.73254" lon="28.1571">
        <ele>175</ele>
      </trkpt>
      <trkpt lat="36.73255" lon="28.1571">
        <ele>175.1</ele>
      </trkpt>
      <trkpt lat="36.73268" lon="28.15712">
        <ele>177</ele>
      </trkpt>
      <trkpt lat="36.73282" lon="28.1572">
        <ele>178.4</ele>
      </trkpt>
      <trkpt lat="36.73296" lon="28.15719">
        <ele>180.8</ele>
      </trkpt>
      <trkpt lat="36.73308" lon="28.15723">
        <ele>182.3</ele>
      </trkpt>
      <trkpt lat="36.73325" lon="28.1573">
        <ele>184.1</ele>
      </trkpt>
      <trkpt lat="36.73329" lon="28.15735">
        <ele>184.4</ele>
      </trkpt>
      <trkpt lat="36.73338" lon="28.15737">
        <ele>185.3</ele>
      </trkpt>
      <trkpt lat="36.73347" lon="28.15742">
        <ele>186.1</ele>
      </trkpt>
      <trkpt lat="36.73348" lon="28.15742">
        <ele>186.3</ele>
      </trkpt>
      <trkpt lat="36.73355" lon="28.15742">
        <ele>187.4</ele>
      </trkpt>
      <trkpt lat="36.73363" lon="28.15747">
        <ele>188.5</ele>
      </trkpt>
      <trkpt lat="36.7337" lon="28.15747">
        <ele>189.6</ele>
      </trkpt>
      <trkpt lat="36.73378" lon="28.15747">
        <ele>190.9</ele>
      </trkpt>
      <trkpt lat="36.7338" lon="28.15749">
        <ele>191.4</ele>
      </trkpt>
      <trkpt lat="36.73388" lon="28.15759">
        <ele>194.3</ele>
      </trkpt>
      <trkpt lat="36.73393" lon="28.15763">
        <ele>196</ele>
      </trkpt>
      <trkpt lat="36.73395" lon="28.15762">
        <ele>196.3</ele>
      </trkpt>
      <trkpt lat="36.73396" lon="28.15762">
        <ele>196.4</ele>
      </trkpt>
      <trkpt lat="36.73402" lon="28.15761">
        <ele>197.6</ele>
      </trkpt>
      <trkpt lat="36.73407" lon="28.15773">
        <ele>201.5</ele>
      </trkpt>
      <trkpt lat="36.73405" lon="28.15777">
        <ele>201.7</ele>
      </trkpt>
      <trkpt lat="36.7341" lon="28.15788">
        <ele>205.5</ele>
      </trkpt>
      <trkpt lat="36.73409" lon="28.15795">
        <ele>207.1</ele>
      </trkpt>
      <trkpt lat="36.7341" lon="28.15801">
        <ele>208.4</ele>
      </trkpt>
      <trkpt lat="36.73407" lon="28.15808">
        <ele>209.1</ele>
      </trkpt>
      <trkpt lat="36.7341" lon="28.15814">
        <ele>211.4</ele>
      </trkpt>
      <trkpt lat="36.73411" lon="28.15826">
        <ele>215</ele>
      </trkpt>
      <trkpt lat="36.73407" lon="28.15842">
        <ele>215.9</ele>
      </trkpt>
      <trkpt lat="36.73409" lon="28.1585">
        <ele>217.7</ele>
      </trkpt>
      <trkpt lat="36.73414" lon="28.15858">
        <ele>220.9</ele>
      </trkpt>
      <trkpt lat="36.73414" lon="28.15858">
        <ele>221.3</ele>
      </trkpt>
      <trkpt lat="36.73421" lon="28.15867">
        <ele>225.7</ele>
      </trkpt>
      <trkpt lat="36.73416" lon="28.15879">
        <ele>224.7</ele>
      </trkpt>
      <trkpt lat="36.73415" lon="28.15893">
        <ele>226.1</ele>
      </trkpt>
      <trkpt lat="36.73416" lon="28.15906">
        <ele>228.2</ele>
      </trkpt>
      <trkpt lat="36.73411" lon="28.15912">
        <ele>226.6</ele>
      </trkpt>
      <trkpt lat="36.73415" lon="28.15924">
        <ele>228.4</ele>
      </trkpt>
      <trkpt lat="36.73416" lon="28.15925">
        <ele>228.9</ele>
      </trkpt>
      <trkpt lat="36.73424" lon="28.15929">
        <ele>232.7</ele>
      </trkpt>
      <trkpt lat="36.7343" lon="28.15934">
        <ele>235.3</ele>
      </trkpt>
      <trkpt lat="36.73437" lon="28.15948">
        <ele>236.6</ele>
      </trkpt>
      <trkpt lat="36.73438" lon="28.1596">
        <ele>235.3</ele>
      </trkpt>
      <trkpt lat="36.73443" lon="28.15965">
        <ele>237.1</ele>
      </trkpt>
      <trkpt lat="36.7345" lon="28.15962">
        <ele>240.9</ele>
      </trkpt>
      <trkpt lat="36.73456" lon="28.15967">
        <ele>242.9</ele>
      </trkpt>
      <trkpt lat="36.73461" lon="28.15969">
        <ele>245.1</ele>
      </trkpt>
      <trkpt lat="36.73472" lon="28.15978">
        <ele>248.5</ele>
      </trkpt>
      <trkpt lat="36.7348" lon="28.1599">
        <ele>249.5</ele>
      </trkpt>
      <trkpt lat="36.73489" lon="28.15998">
        <ele>251.8</ele>
      </trkpt>
      <trkpt lat="36.735" lon="28.16004">
        <ele>255.1</ele>
      </trkpt>
      <trkpt lat="36.73512" lon="28.16015">
        <ele>257.6</ele>
      </trkpt>
      <trkpt lat="36.73523" lon="28.16027">
        <ele>259.2</ele>
      </trkpt>
      <trkpt lat="36.73531" lon="28.16032">
        <ele>260.9</ele>
      </trkpt>
      <trkpt lat="36.73538" lon="28.1604">
        <ele>261.2</ele>
      </trkpt>
      <trkpt lat="36.73545" lon="28.16047">
        <ele>262</ele>
      </trkpt>
      <trkpt lat="36.73557" lon="28.16048">
        <ele>266.1</ele>
      </trkpt>
      <trkpt lat="36.73563" lon="28.1605">
        <ele>267.4</ele>
      </trkpt>
      <trkpt lat="36.7357" lon="28.16056">
        <ele>268.2</ele>
      </trkpt>
      <trkpt lat="36.73576" lon="28.16049">
        <ele>272.5</ele>
      </trkpt>
      <trkpt lat="36.73578" lon="28.1605">
        <ele>272.9</ele>
      </trkpt>
      <trkpt lat="36.73579" lon="28.1605">
        <ele>273.4</ele>
      </trkpt>
      <trkpt lat="36.73579" lon="28.16043">
        <ele>275.9</ele>
      </trkpt>
      <trkpt lat="36.73594" lon="28.16047">
        <ele>279.9</ele>
      </trkpt>
      <trkpt lat="36.73607" lon="28.16052">
        <ele>282.7</ele>
      </trkpt>
      <trkpt lat="36.73613" lon="28.16056">
        <ele>283.1</ele>
      </trkpt>
      <trkpt lat="36.73628" lon="28.16065">
        <ele>284.5</ele>
      </trkpt>
      <trkpt lat="36.73634" lon="28.16064">
        <ele>286.6</ele>
      </trkpt>
      <trkpt lat="36.7364" lon="28.16068">
        <ele>287.1</ele>
      </trkpt>
      <trkpt lat="36.73653" lon="28.16074">
        <ele>288.8</ele>
      </trkpt>
      <trkpt lat="36.73665" lon="28.16078">
        <ele>291.1</ele>
      </trkpt>
      <trkpt lat="36.73675" lon="28.16082">
        <ele>291.7</ele>
      </trkpt>
      <trkpt lat="36.73685" lon="28.16095">
        <ele>293</ele>
      </trkpt>
      <trkpt lat="36.73696" lon="28.16101">
        <ele>295.6</ele>
      </trkpt>
      <trkpt lat="36.73702" lon="28.16108">
        <ele>296.8</ele>
      </trkpt>
      <trkpt lat="36.73707" lon="28.16108">
        <ele>298.2</ele>
      </trkpt>
      <trkpt lat="36.73722" lon="28.16113">
        <ele>301.8</ele>
      </trkpt>
      <trkpt lat="36.7372" lon="28.16124">
        <ele>301</ele>
      </trkpt>
      <trkpt lat="36.73712" lon="28.16145">
        <ele>298</ele>
      </trkpt>
      <trkpt lat="36.73712" lon="28.16154">
        <ele>297.7</ele>
      </trkpt>
      <trkpt lat="36.73715" lon="28.16159">
        <ele>298.2</ele>
      </trkpt>
      <trkpt lat="36.73718" lon="28.16166">
        <ele>298.9</ele>
      </trkpt>
      <trkpt lat="36.73719" lon="28.16177">
        <ele>301</ele>
      </trkpt>
      <trkpt lat="36.73722" lon="28.1619">
        <ele>304.1</ele>
      </trkpt>
      <trkpt lat="36.73722" lon="28.16208">
        <ele>307.5</ele>
      </trkpt>
      <trkpt lat="36.73723" lon="28.1621">
        <ele>307.9</ele>
      </trkpt>
      <trkpt lat="36.7373" lon="28.16221">
        <ele>310.9</ele>
      </trkpt>
      <trkpt lat="36.73735" lon="28.16231">
        <ele>313.1</ele>
      </trkpt>
      <trkpt lat="36.73735" lon="28.16244">
        <ele>315</ele>
      </trkpt>
      <trkpt lat="36.7374" lon="28.16257">
        <ele>317.6</ele>
      </trkpt>
      <trkpt lat="36.73741" lon="28.16266">
        <ele>319.2</ele>
      </trkpt>
      <trkpt lat="36.73744" lon="28.1627">
        <ele>320</ele>
      </trkpt>
      <trkpt lat="36.73751" lon="28.16273">
        <ele>320.9</ele>
      </trkpt>
      <trkpt lat="36.73752" lon="28.16276">
        <ele>322.2</ele>
      </trkpt>
      <trkpt lat="36.7376" lon="28.16285">
        <ele>327.2</ele>
      </trkpt>
      <trkpt lat="36.73762" lon="28.16286">
        <ele>328</ele>
      </trkpt>
      <trkpt lat="36.7377" lon="28.16292">
        <ele>332.3</ele>
      </trkpt>
      <trkpt lat="36.73764" lon="28.16303">
        <ele>331.1</ele>
      </trkpt>
      <trkpt lat="36.73764" lon="28.16304">
        <ele>330.9</ele>
      </trkpt>
      <trkpt lat="36.73764" lon="28.16311">
        <ele>332.1</ele>
      </trkpt>
      <trkpt lat="36.73765" lon="28.16312">
        <ele>332.3</ele>
      </trkpt>
      <trkpt lat="36.73762" lon="28.16319">
        <ele>332.3</ele>
      </trkpt>
      <trkpt lat="36.73763" lon="28.16319">
        <ele>332.7</ele>
      </trkpt>
      <trkpt lat="36.73767" lon="28.16324">
        <ele>334.5</ele>
      </trkpt>
      <trkpt lat="36.73763" lon="28.1633">
        <ele>333.8</ele>
      </trkpt>
      <trkpt lat="36.7377" lon="28.16335">
        <ele>337.1</ele>
      </trkpt>
      <trkpt lat="36.73779" lon="28.16343">
        <ele>341.5</ele>
      </trkpt>
      <trkpt lat="36.73785" lon="28.16344">
        <ele>343.6</ele>
      </trkpt>
      <trkpt lat="36.73789" lon="28.16352">
        <ele>346</ele>
      </trkpt>
      <trkpt lat="36.73789" lon="28.16353">
        <ele>346.2</ele>
      </trkpt>
      <trkpt lat="36.73787" lon="28.16367">
        <ele>347.8</ele>
      </trkpt>
      <trkpt lat="36.73784" lon="28.16375">
        <ele>348.4</ele>
      </trkpt>
      <trkpt lat="36.73772" lon="28.16383">
        <ele>347.6</ele>
      </trkpt>
      <trkpt lat="36.7378" lon="28.16391">
        <ele>350.5</ele>
      </trkpt>
      <trkpt lat="36.73787" lon="28.16396">
        <ele>352.4</ele>
      </trkpt>
      <trkpt lat="36.73786" lon="28.16406">
        <ele>353.9</ele>
      </trkpt>
      <trkpt lat="36.73781" lon="28.16414">
        <ele>354.8</ele>
      </trkpt>
      <trkpt lat="36.73788" lon="28.16422">
        <ele>356.7</ele>
      </trkpt>
      <trkpt lat="36.73792" lon="28.16427">
        <ele>357.8</ele>
      </trkpt>
      <trkpt lat="36.73796" lon="28.1643">
        <ele>358.4</ele>
      </trkpt>
      <trkpt lat="36.73801" lon="28.16438">
        <ele>359.8</ele>
      </trkpt>
      <trkpt lat="36.73802" lon="28.16438">
        <ele>359.9</ele>
      </trkpt>
      <trkpt lat="36.73807" lon="28.16434">
        <ele>359.4</ele>
      </trkpt>
      <trkpt lat="36.73809" lon="28.16433">
        <ele>359.4</ele>
      </trkpt>
      <trkpt lat="36.73811" lon="28.16441">
        <ele>360.5</ele>
      </trkpt>
      <trkpt lat="36.73814" lon="28.16448">
        <ele>361.4</ele>
      </trkpt>
      <trkpt lat="36.73817" lon="28.16459">
        <ele>362.8</ele>
      </trkpt>
      <trkpt lat="36.73823" lon="28.16473">
        <ele>364.1</ele>
      </trkpt>
      <trkpt lat="36.73826" lon="28.16477">
        <ele>364.5</ele>
      </trkpt>
      <trkpt lat="36.73831" lon="28.16477">
        <ele>364.2</ele>
      </trkpt>
      <trkpt lat="36.73842" lon="28.16481">
        <ele>366</ele>
      </trkpt>
      <trkpt lat="36.73843" lon="28.16491">
        <ele>366.9</ele>
      </trkpt>
      <trkpt lat="36.73844" lon="28.16495">
        <ele>367.4</ele>
      </trkpt>
      <trkpt lat="36.73844" lon="28.16501">
        <ele>368</ele>
      </trkpt>
      <trkpt lat="36.73847" lon="28.16518">
        <ele>370.5</ele>
      </trkpt>
      <trkpt lat="36.73849" lon="28.16532">
        <ele>372.4</ele>
      </trkpt>
      <trkpt lat="36.73853" lon="28.16556">
        <ele>375.7</ele>
      </trkpt>
      <trkpt lat="36.73852" lon="28.1656">
        <ele>376.1</ele>
      </trkpt>
      <trkpt lat="36.73856" lon="28.16559">
        <ele>376.7</ele>
      </trkpt>
      <trkpt lat="36.73852" lon="28.16562">
        <ele>376.4</ele>
      </trkpt>
      <trkpt lat="36.73851" lon="28.16567">
        <ele>376.9</ele>
      </trkpt>
      <trkpt lat="36.73849" lon="28.16581">
        <ele>378.2</ele>
      </trkpt>
      <trkpt lat="36.73843" lon="28.16597">
        <ele>378.9</ele>
      </trkpt>
      <trkpt lat="36.73838" lon="28.1661">
        <ele>379.1</ele>
      </trkpt>
      <trkpt lat="36.73849" lon="28.16694">
        <ele>392.2</ele>
      </trkpt>
      <trkpt lat="36.73855" lon="28.16708">
        <ele>396.7</ele>
      </trkpt>
      <trkpt lat="36.7386" lon="28.16715">
        <ele>399.6</ele>
      </trkpt>
      <trkpt lat="36.73863" lon="28.16718">
        <ele>401.4</ele>
      </trkpt>
      <trkpt lat="36.73863" lon="28.16719">
        <ele>401.6</ele>
      </trkpt>
      <trkpt lat="36.7386" lon="28.16729">
        <ele>402.1</ele>
      </trkpt>
      <trkpt lat="36.73864" lon="28.16733">
        <ele>404.3</ele>
      </trkpt>
      <trkpt lat="36.73868" lon="28.16745">
        <ele>407.9</ele>
      </trkpt>
      <trkpt lat="36.73866" lon="28.16765">
        <ele>410.5</ele>
      </trkpt>
      <trkpt lat="36.73864" lon="28.16776">
        <ele>411.5</ele>
      </trkpt>
      <trkpt lat="36.73866" lon="28.16778">
        <ele>412.5</ele>
      </trkpt>
      <trkpt lat="36.73869" lon="28.16781">
        <ele>414.1</ele>
      </trkpt>
      <trkpt lat="36.73877" lon="28.16787">
        <ele>417.9</ele>
      </trkpt>
      <trkpt lat="36.73877" lon="28.16794">
        <ele>418.8</ele>
      </trkpt>
      <trkpt lat="36.73876" lon="28.16806">
        <ele>419.8</ele>
      </trkpt>
      <trkpt lat="36.73874" lon="28.16814">
        <ele>420.6</ele>
      </trkpt>
      <trkpt lat="36.73872" lon="28.16824">
        <ele>421.2</ele>
      </trkpt>
      <trkpt lat="36.73869" lon="28.16836">
        <ele>421.8</ele>
      </trkpt>
      <trkpt lat="36.73865" lon="28.16841">
        <ele>420.8</ele>
      </trkpt>
      <trkpt lat="36.73863" lon="28.16843">
        <ele>420.2</ele>
      </trkpt>
      <trkpt lat="36.73864" lon="28.16854">
        <ele>420.5</ele>
      </trkpt>
      <trkpt lat="36.73862" lon="28.16856">
        <ele>420.2</ele>
      </trkpt>
      <trkpt lat="36.73856" lon="28.16864">
        <ele>418.5</ele>
      </trkpt>
      <trkpt lat="36.73847" lon="28.16876">
        <ele>416.4</ele>
      </trkpt>
      <trkpt lat="36.73845" lon="28.16884">
        <ele>416.1</ele>
      </trkpt>
      <trkpt lat="36.73845" lon="28.16886">
        <ele>416.1</ele>
      </trkpt>
      <trkpt lat="36.73837" lon="28.16898">
        <ele>414.5</ele>
      </trkpt>
      <trkpt lat="36.73831" lon="28.16908">
        <ele>414</ele>
      </trkpt>
      <trkpt lat="36.73829" lon="28.1691">
        <ele>414.4</ele>
      </trkpt>
      <trkpt lat="36.73823" lon="28.16915">
        <ele>415.2</ele>
      </trkpt>
      <trkpt lat="36.73821" lon="28.16916">
        <ele>415.5</ele>
      </trkpt>
      <trkpt lat="36.73819" lon="28.16917">
        <ele>415.8</ele>
      </trkpt>
      <trkpt lat="36.73812" lon="28.16925">
        <ele>417.2</ele>
      </trkpt>
      <trkpt lat="36.73805" lon="28.16932">
        <ele>418.3</ele>
      </trkpt>
      <trkpt lat="36.73803" lon="28.16935">
        <ele>418.6</ele>
      </trkpt>
      <trkpt lat="36.73791" lon="28.16954">
        <ele>419.9</ele>
      </trkpt>
      <trkpt lat="36.73791" lon="28.16964">
        <ele>420.2</ele>
      </trkpt>
      <trkpt lat="36.73792" lon="28.16972">
        <ele>420.3</ele>
      </trkpt>
      <trkpt lat="36.73787" lon="28.16988">
        <ele>420.5</ele>
      </trkpt>
      <trkpt lat="36.73775" lon="28.16997">
        <ele>419.9</ele>
      </trkpt>
      <trkpt lat="36.73773" lon="28.16996">
        <ele>419.7</ele>
      </trkpt>
      <trkpt lat="36.73753" lon="28.16995">
        <ele>418.5</ele>
      </trkpt>
      <trkpt lat="36.7375" lon="28.16997">
        <ele>418.2</ele>
      </trkpt>
      <trkpt lat="36.73745" lon="28.16998">
        <ele>417.2</ele>
      </trkpt>
      <trkpt lat="36.73745" lon="28.16998">
        <ele>417.2</ele>
      </trkpt>
      <trkpt lat="36.73736" lon="28.17">
        <ele>415.5</ele>
      </trkpt>
      <trkpt lat="36.73733" lon="28.17004">
        <ele>415.1</ele>
      </trkpt>
      <trkpt lat="36.7373" lon="28.1701">
        <ele>415</ele>
      </trkpt>
      <trkpt lat="36.73729" lon="28.17015">
        <ele>415.1</ele>
      </trkpt>
      <trkpt lat="36.73729" lon="28.17022">
        <ele>415.6</ele>
      </trkpt>
      <trkpt lat="36.73727" lon="28.17028">
        <ele>415.6</ele>
      </trkpt>
      <trkpt lat="36.73727" lon="28.17034">
        <ele>416</ele>
      </trkpt>
      <trkpt lat="36.73727" lon="28.17042">
        <ele>416.4</ele>
      </trkpt>
      <trkpt lat="36.73726" lon="28.17048">
        <ele>416.8</ele>
      </trkpt>
      <trkpt lat="36.73726" lon="28.17057">
        <ele>417.3</ele>
      </trkpt>
      <trkpt lat="36.73726" lon="28.17064">
        <ele>417.8</ele>
      </trkpt>
      <trkpt lat="36.73726" lon="28.17072">
        <ele>418.3</ele>
      </trkpt>
      <trkpt lat="36.73725" lon="28.17078">
        <ele>418.5</ele>
      </trkpt>
      <trkpt lat="36.73724" lon="28.17084">
        <ele>418.9</ele>
      </trkpt>
      <trkpt lat="36.7372" lon="28.17088">
        <ele>419.2</ele>
      </trkpt>
      <trkpt lat="36.7372" lon="28.17096">
        <ele>420.3</ele>
      </trkpt>
      <trkpt lat="36.73718" lon="28.171">
        <ele>420.7</ele>
      </trkpt>
      <trkpt lat="36.73714" lon="28.17108">
        <ele>421.4</ele>
      </trkpt>
      <trkpt lat="36.7371" lon="28.17114">
        <ele>421.7</ele>
      </trkpt>
      <trkpt lat="36.73705" lon="28.17118">
        <ele>421.7</ele>
      </trkpt>
      <trkpt lat="36.73703" lon="28.17121">
        <ele>421.8</ele>
      </trkpt>
      <trkpt lat="36.73701" lon="28.17127">
        <ele>422.1</ele>
      </trkpt>
      <trkpt lat="36.73698" lon="28.17133">
        <ele>422.5</ele>
      </trkpt>
      <trkpt lat="36.73695" lon="28.17138">
        <ele>422.4</ele>
      </trkpt>
      <trkpt lat="36.7369" lon="28.17141">
        <ele>422</ele>
      </trkpt>
      <trkpt lat="36.73688" lon="28.17145">
        <ele>422</ele>
      </trkpt>
      <trkpt lat="36.73685" lon="28.17151">
        <ele>422.2</ele>
      </trkpt>
      <trkpt lat="36.73682" lon="28.17158">
        <ele>422.3</ele>
      </trkpt>
      <trkpt lat="36.7368" lon="28.17164">
        <ele>422.5</ele>
      </trkpt>
      <trkpt lat="36.7368" lon="28.17172">
        <ele>423.3</ele>
      </trkpt>
      <trkpt lat="36.73682" lon="28.17178">
        <ele>424.4</ele>
      </trkpt>
      <trkpt lat="36.73685" lon="28.17182">
        <ele>425.4</ele>
      </trkpt>
      <trkpt lat="36.73687" lon="28.1719">
        <ele>426.9</ele>
      </trkpt>
      <trkpt lat="36.73688" lon="28.17196">
        <ele>427.8</ele>
      </trkpt>
      <trkpt lat="36.73689" lon="28.17202">
        <ele>428.8</ele>
      </trkpt>
      <trkpt lat="36.73691" lon="28.17207">
        <ele>430.2</ele>
      </trkpt>
      <trkpt lat="36.73691" lon="28.17215">
        <ele>431.1</ele>
      </trkpt>
      <trkpt lat="36.73691" lon="28.17221">
        <ele>431.8</ele>
      </trkpt>
      <trkpt lat="36.73692" lon="28.17227">
        <ele>432.8</ele>
      </trkpt>
      <trkpt lat="36.73694" lon="28.17232">
        <ele>434.3</ele>
      </trkpt>
      <trkpt lat="36.73695" lon="28.17238">
        <ele>435.4</ele>
      </trkpt>
      <trkpt lat="36.73695" lon="28.17244">
        <ele>436.1</ele>
      </trkpt>
      <trkpt lat="36.73695" lon="28.17252">
        <ele>437</ele>
      </trkpt>
      <trkpt lat="36.73695" lon="28.17259">
        <ele>437.3</ele>
      </trkpt>
      <trkpt lat="36.73695" lon="28.17266">
        <ele>437.6</ele>
      </trkpt>
      <trkpt lat="36.73694" lon="28.17271">
        <ele>437.4</ele>
      </trkpt>
      <trkpt lat="36.73693" lon="28.17276">
        <ele>437.3</ele>
      </trkpt>
      <trkpt lat="36.73693" lon="28.17282">
        <ele>437.5</ele>
      </trkpt>
      <trkpt lat="36.73689" lon="28.17287">
        <ele>436.7</ele>
      </trkpt>
      <trkpt lat="36.73686" lon="28.17293">
        <ele>436</ele>
      </trkpt>
      <trkpt lat="36.7368" lon="28.17293">
        <ele>434.4</ele>
      </trkpt>
      <trkpt lat="36.73674" lon="28.17293">
        <ele>432.7</ele>
      </trkpt>
      <trkpt lat="36.73668" lon="28.17293">
        <ele>431.1</ele>
      </trkpt>
      <trkpt lat="36.73664" lon="28.17293">
        <ele>430.3</ele>
      </trkpt>
      <trkpt lat="36.73658" lon="28.17293">
        <ele>429.6</ele>
      </trkpt>
      <trkpt lat="36.73655" lon="28.17293">
        <ele>429.2</ele>
      </trkpt>
      <trkpt lat="36.73648" lon="28.17293">
        <ele>428.4</ele>
      </trkpt>
      <trkpt lat="36.73643" lon="28.17293">
        <ele>427.9</ele>
      </trkpt>
      <trkpt lat="36.73638" lon="28.17293">
        <ele>427.3</ele>
      </trkpt>
      <trkpt lat="36.73631" lon="28.17294">
        <ele>426.5</ele>
      </trkpt>
      <trkpt lat="36.73625" lon="28.17294">
        <ele>425.9</ele>
      </trkpt>
      <trkpt lat="36.73621" lon="28.17294">
        <ele>425.3</ele>
      </trkpt>
      <trkpt lat="36.73616" lon="28.17297">
        <ele>424.8</ele>
      </trkpt>
      <trkpt lat="36.73611" lon="28.17298">
        <ele>424.3</ele>
      </trkpt>
      <trkpt lat="36.73606" lon="28.17301">
        <ele>423.7</ele>
      </trkpt>
      <trkpt lat="36.73602" lon="28.17301">
        <ele>423.1</ele>
      </trkpt>
      <trkpt lat="36.73595" lon="28.17301">
        <ele>422.2</ele>
      </trkpt>
      <trkpt lat="36.7359" lon="28.17303">
        <ele>421.6</ele>
      </trkpt>
      <trkpt lat="36.73586" lon="28.17304">
        <ele>421.1</ele>
      </trkpt>
      <trkpt lat="36.73581" lon="28.17304">
        <ele>420.5</ele>
      </trkpt>
      <trkpt lat="36.73577" lon="28.17304">
        <ele>420.1</ele>
      </trkpt>
      <trkpt lat="36.73571" lon="28.17304">
        <ele>419.5</ele>
      </trkpt>
      <trkpt lat="36.73565" lon="28.17304">
        <ele>418.9</ele>
      </trkpt>
      <trkpt lat="36.73559" lon="28.17305">
        <ele>418.3</ele>
      </trkpt>
      <trkpt lat="36.73554" lon="28.17308">
        <ele>417.9</ele>
      </trkpt>
      <trkpt lat="36.73551" lon="28.17314">
        <ele>417.5</ele>
      </trkpt>
      <trkpt lat="36.73546" lon="28.17315">
        <ele>417.1</ele>
      </trkpt>
      <trkpt lat="36.7354" lon="28.17315">
        <ele>416.6</ele>
      </trkpt>
      <trkpt lat="36.73535" lon="28.17314">
        <ele>416.2</ele>
      </trkpt>
      <trkpt lat="36.73529" lon="28.17314">
        <ele>415.6</ele>
      </trkpt>
      <trkpt lat="36.73523" lon="28.17311">
        <ele>415</ele>
      </trkpt>
      <trkpt lat="36.73518" lon="28.1731">
        <ele>414.5</ele>
      </trkpt>
      <trkpt lat="36.73513" lon="28.17308">
        <ele>414</ele>
      </trkpt>
      <trkpt lat="36.73507" lon="28.17308">
        <ele>413.5</ele>
      </trkpt>
      <trkpt lat="36.73501" lon="28.17308">
        <ele>412.9</ele>
      </trkpt>
      <trkpt lat="36.73495" lon="28.17308">
        <ele>411.8</ele>
      </trkpt>
      <trkpt lat="36.7349" lon="28.1731">
        <ele>410.9</ele>
      </trkpt>
      <trkpt lat="36.73486" lon="28.17313">
        <ele>410.1</ele>
      </trkpt>
      <trkpt lat="36.73478" lon="28.17313">
        <ele>408.6</ele>
      </trkpt>
      <trkpt lat="36.73475" lon="28.17313">
        <ele>407.8</ele>
      </trkpt>
      <trkpt lat="36.7347" lon="28.17315">
        <ele>406.9</ele>
      </trkpt>
      <trkpt lat="36.73464" lon="28.17318">
        <ele>405.7</ele>
      </trkpt>
      <trkpt lat="36.73459" lon="28.17321">
        <ele>404.8</ele>
      </trkpt>
      <trkpt lat="36.73453" lon="28.17326">
        <ele>403.6</ele>
      </trkpt>
      <trkpt lat="36.7345" lon="28.1733">
        <ele>403.2</ele>
      </trkpt>
      <trkpt lat="36.73447" lon="28.17335">
        <ele>402.5</ele>
      </trkpt>
      <trkpt lat="36.73443" lon="28.17341">
        <ele>402.1</ele>
      </trkpt>
      <trkpt lat="36.73438" lon="28.17346">
        <ele>401.3</ele>
      </trkpt>
      <trkpt lat="36.73435" lon="28.17352">
        <ele>401.2</ele>
      </trkpt>
      <trkpt lat="36.73433" lon="28.17356">
        <ele>401.1</ele>
      </trkpt>
      <trkpt lat="36.73431" lon="28.17362">
        <ele>401</ele>
      </trkpt>
      <trkpt lat="36.73427" lon="28.17367">
        <ele>400.7</ele>
      </trkpt>
      <trkpt lat="36.73423" lon="28.17371">
        <ele>400.4</ele>
      </trkpt>
      <trkpt lat="36.73421" lon="28.17378">
        <ele>400.4</ele>
      </trkpt>
      <trkpt lat="36.73418" lon="28.17384">
        <ele>400.5</ele>
      </trkpt>
      <trkpt lat="36.73416" lon="28.1739">
        <ele>400.6</ele>
      </trkpt>
      <trkpt lat="36.73413" lon="28.17396">
        <ele>400.7</ele>
      </trkpt>
      <trkpt lat="36.73409" lon="28.17399">
        <ele>400.2</ele>
      </trkpt>
      <trkpt lat="36.73404" lon="28.17404">
        <ele>399.9</ele>
      </trkpt>
      <trkpt lat="36.73397" lon="28.17407">
        <ele>399.3</ele>
      </trkpt>
      <trkpt lat="36.73394" lon="28.17411">
        <ele>399.2</ele>
      </trkpt>
      <trkpt lat="36.73389" lon="28.17415">
        <ele>398.7</ele>
      </trkpt>
      <trkpt lat="36.73385" lon="28.17421">
        <ele>398.4</ele>
      </trkpt>
      <trkpt lat="36.7338" lon="28.17424">
        <ele>397.7</ele>
      </trkpt>
      <trkpt lat="36.73375" lon="28.17427">
        <ele>397</ele>
      </trkpt>
      <trkpt lat="36.73372" lon="28.1743">
        <ele>396.6</ele>
      </trkpt>
      <trkpt lat="36.73367" lon="28.17434">
        <ele>396</ele>
      </trkpt>
      <trkpt lat="36.73362" lon="28.17439">
        <ele>395.5</ele>
      </trkpt>
      <trkpt lat="36.73358" lon="28.17444">
        <ele>395.2</ele>
      </trkpt>
      <trkpt lat="36.73353" lon="28.17447">
        <ele>394.8</ele>
      </trkpt>
      <trkpt lat="36.73348" lon="28.17453">
        <ele>394.5</ele>
      </trkpt>
      <trkpt lat="36.73345" lon="28.17457">
        <ele>394.4</ele>
      </trkpt>
      <trkpt lat="36.73341" lon="28.17462">
        <ele>394.3</ele>
      </trkpt>
      <trkpt lat="36.73337" lon="28.17468">
        <ele>394.4</ele>
      </trkpt>
      <trkpt lat="36.73332" lon="28.17473">
        <ele>394.4</ele>
      </trkpt>
      <trkpt lat="36.73328" lon="28.17474">
        <ele>394.4</ele>
      </trkpt>
      <trkpt lat="36.73323" lon="28.17477">
        <ele>394.7</ele>
      </trkpt>
      <trkpt lat="36.73318" lon="28.1748">
        <ele>394.9</ele>
      </trkpt>
      <trkpt lat="36.73313" lon="28.17486">
        <ele>395.4</ele>
      </trkpt>
      <trkpt lat="36.73308" lon="28.17491">
        <ele>395.8</ele>
      </trkpt>
      <trkpt lat="36.73303" lon="28.17492">
        <ele>396</ele>
      </trkpt>
      <trkpt lat="36.73303" lon="28.17492">
        <ele>396</ele>
      </trkpt>
      <trkpt lat="36.73298" lon="28.17494">
        <ele>396.2</ele>
      </trkpt>
      <trkpt lat="36.73294" lon="28.17495">
        <ele>396.5</ele>
      </trkpt>
      <trkpt lat="36.73289" lon="28.17498">
        <ele>396.9</ele>
      </trkpt>
      <trkpt lat="36.73283" lon="28.175">
        <ele>397.2</ele>
      </trkpt>
      <trkpt lat="36.73278" lon="28.17503">
        <ele>397.4</ele>
      </trkpt>
      <trkpt lat="36.73271" lon="28.17506">
        <ele>397.6</ele>
      </trkpt>
      <trkpt lat="36.73266" lon="28.17507">
        <ele>397.8</ele>
      </trkpt>
      <trkpt lat="36.7326" lon="28.17508">
        <ele>398</ele>
      </trkpt>
      <trkpt lat="36.73254" lon="28.17508">
        <ele>398.2</ele>
      </trkpt>
      <trkpt lat="36.73247" lon="28.17508">
        <ele>398.4</ele>
      </trkpt>
      <trkpt lat="36.73243" lon="28.17505">
        <ele>398.4</ele>
      </trkpt>
      <trkpt lat="36.73239" lon="28.17502">
        <ele>398.4</ele>
      </trkpt>
      <trkpt lat="36.7324" lon="28.17499">
        <ele>398</ele>
      </trkpt>
      <trkpt lat="36.73224" lon="28.17489">
        <ele>397</ele>
      </trkpt>
      <trkpt lat="36.73209" lon="28.17484">
        <ele>396.5</ele>
      </trkpt>
      <trkpt lat="36.73187" lon="28.17476">
        <ele>395.6</ele>
      </trkpt>
      <trkpt lat="36.73173" lon="28.17465">
        <ele>394.1</ele>
      </trkpt>
      <trkpt lat="36.73157" lon="28.17456">
        <ele>391.3</ele>
      </trkpt>
      <trkpt lat="36.73157" lon="28.17456">
        <ele>391.3</ele>
      </trkpt>
      <trkpt lat="36.73143" lon="28.17444">
        <ele>387.8</ele>
      </trkpt>
      <trkpt lat="36.73128" lon="28.17437">
        <ele>384.7</ele>
      </trkpt>
      <trkpt lat="36.7312" lon="28.17431">
        <ele>383</ele>
      </trkpt>
      <trkpt lat="36.73112" lon="28.17425">
        <ele>381.2</ele>
      </trkpt>
      <trkpt lat="36.73117" lon="28.17433">
        <ele>383</ele>
      </trkpt>
      <trkpt lat="36.73106" lon="28.17423">
        <ele>380.4</ele>
      </trkpt>
      <trkpt lat="36.73089" lon="28.17412">
        <ele>377.5</ele>
      </trkpt>
      <trkpt lat="36.73091" lon="28.17423">
        <ele>378.6</ele>
      </trkpt>
      <trkpt lat="36.73071" lon="28.17427">
        <ele>372.6</ele>
      </trkpt>
      <trkpt lat="36.73067" lon="28.17428">
        <ele>371.3</ele>
      </trkpt>
      <trkpt lat="36.73061" lon="28.17435">
        <ele>369.3</ele>
      </trkpt>
      <trkpt lat="36.73059" lon="28.17435">
        <ele>368.5</ele>
      </trkpt>
      <trkpt lat="36.73051" lon="28.17436">
        <ele>364.9</ele>
      </trkpt>
      <trkpt lat="36.73048" lon="28.17437">
        <ele>363.5</ele>
      </trkpt>
      <trkpt lat="36.73046" lon="28.1744">
        <ele>362.8</ele>
      </trkpt>
      <trkpt lat="36.73038" lon="28.17436">
        <ele>358.9</ele>
      </trkpt>
      <trkpt lat="36.73031" lon="28.17441">
        <ele>356.2</ele>
      </trkpt>
      <trkpt lat="36.7303" lon="28.17456">
        <ele>357.2</ele>
      </trkpt>
      <trkpt lat="36.73023" lon="28.17474">
        <ele>355.2</ele>
      </trkpt>
      <trkpt lat="36.73018" lon="28.17487">
        <ele>353.9</ele>
      </trkpt>
      <trkpt lat="36.73014" lon="28.17502">
        <ele>353.3</ele>
      </trkpt>
      <trkpt lat="36.73014" lon="28.17504">
        <ele>353.2</ele>
      </trkpt>
      <trkpt lat="36.73008" lon="28.1752">
        <ele>352.4</ele>
      </trkpt>
      <trkpt lat="36.72999" lon="28.17543">
        <ele>350.9</ele>
      </trkpt>
      <trkpt lat="36.72998" lon="28.17545">
        <ele>351</ele>
      </trkpt>
      <trkpt lat="36.72989" lon="28.17559">
        <ele>350</ele>
      </trkpt>
      <trkpt lat="36.72982" lon="28.17573">
        <ele>349.6</ele>
      </trkpt>
      <trkpt lat="36.72979" lon="28.17576">
        <ele>349.4</ele>
      </trkpt>
      <trkpt lat="36.72967" lon="28.17586">
        <ele>346.8</ele>
      </trkpt>
      <trkpt lat="36.72954" lon="28.17595">
        <ele>342.9</ele>
      </trkpt>
      <trkpt lat="36.72941" lon="28.17602">
        <ele>338.8</ele>
      </trkpt>
      <trkpt lat="36.72938" lon="28.17604">
        <ele>337.9</ele>
      </trkpt>
      <trkpt lat="36.72951" lon="28.1761">
        <ele>341.3</ele>
      </trkpt>
      <trkpt lat="36.7296" lon="28.17626">
        <ele>343.8</ele>
      </trkpt>
      <trkpt lat="36.72962" lon="28.17635">
        <ele>344.2</ele>
      </trkpt>
      <trkpt lat="36.72964" lon="28.17643">
        <ele>344.5</ele>
      </trkpt>
      <trkpt lat="36.72964" lon="28.17647">
        <ele>344.5</ele>
      </trkpt>
      <trkpt lat="36.72965" lon="28.1765">
        <ele>344.7</ele>
      </trkpt>
      <trkpt lat="36.72966" lon="28.17653">
        <ele>344.9</ele>
      </trkpt>
      <trkpt lat="36.72967" lon="28.17663">
        <ele>345.3</ele>
      </trkpt>
      <trkpt lat="36.72972" lon="28.17676">
        <ele>344.7</ele>
      </trkpt>
      <trkpt lat="36.72976" lon="28.1769">
        <ele>342.8</ele>
      </trkpt>
      <trkpt lat="36.72975" lon="28.17698">
        <ele>341.1</ele>
      </trkpt>
      <trkpt lat="36.72975" lon="28.17712">
        <ele>337.7</ele>
      </trkpt>
      <trkpt lat="36.72977" lon="28.17717">
        <ele>337.2</ele>
      </trkpt>
      <trkpt lat="36.72977" lon="28.17723">
        <ele>336.1</ele>
      </trkpt>
      <trkpt lat="36.7298" lon="28.17733">
        <ele>334.7</ele>
      </trkpt>
      <trkpt lat="36.72984" lon="28.17738">
        <ele>334.7</ele>
      </trkpt>
      <trkpt lat="36.72986" lon="28.17751">
        <ele>332.3</ele>
      </trkpt>
      <trkpt lat="36.72994" lon="28.17759">
        <ele>332.5</ele>
      </trkpt>
      <trkpt lat="36.72995" lon="28.17764">
        <ele>331.5</ele>
      </trkpt>
      <trkpt lat="36.73002" lon="28.17775">
        <ele>330</ele>
      </trkpt>
      <trkpt lat="36.73005" lon="28.17777">
        <ele>330.5</ele>
      </trkpt>
      <trkpt lat="36.73009" lon="28.17783">
        <ele>330</ele>
      </trkpt>
      <trkpt lat="36.73016" lon="28.17789">
        <ele>330.6</ele>
      </trkpt>
      <trkpt lat="36.73024" lon="28.17812">
        <ele>325.5</ele>
      </trkpt>
      <trkpt lat="36.73033" lon="28.17819">
        <ele>325.6</ele>
      </trkpt>
      <trkpt lat="36.7304" lon="28.1783">
        <ele>323.7</ele>
      </trkpt>
      <trkpt lat="36.73042" lon="28.17836">
        <ele>322.4</ele>
      </trkpt>
      <trkpt lat="36.73043" lon="28.17838">
        <ele>322</ele>
      </trkpt>
      <trkpt lat="36.73044" lon="28.17852">
        <ele>317.8</ele>
      </trkpt>
      <trkpt lat="36.73045" lon="28.17855">
        <ele>317.3</ele>
      </trkpt>
      <trkpt lat="36.73046" lon="28.1786">
        <ele>315.9</ele>
      </trkpt>
      <trkpt lat="36.73047" lon="28.17865">
        <ele>314.6</ele>
      </trkpt>
      <trkpt lat="36.73052" lon="28.17877">
        <ele>312.7</ele>
      </trkpt>
      <trkpt lat="36.73054" lon="28.17888">
        <ele>310</ele>
      </trkpt>
      <trkpt lat="36.73055" lon="28.17893">
        <ele>308.8</ele>
      </trkpt>
      <trkpt lat="36.73056" lon="28.1791">
        <ele>304.1</ele>
      </trkpt>
      <trkpt lat="36.73056" lon="28.17926">
        <ele>300.2</ele>
      </trkpt>
      <trkpt lat="36.73053" lon="28.17938">
        <ele>296.8</ele>
      </trkpt>
      <trkpt lat="36.73049" lon="28.17948">
        <ele>293.4</ele>
      </trkpt>
      <trkpt lat="36.73048" lon="28.1796">
        <ele>290.4</ele>
      </trkpt>
      <trkpt lat="36.73044" lon="28.17973">
        <ele>286.8</ele>
      </trkpt>
      <trkpt lat="36.73045" lon="28.17985">
        <ele>284.7</ele>
      </trkpt>
      <trkpt lat="36.7305" lon="28.17992">
        <ele>284.5</ele>
      </trkpt>
      <trkpt lat="36.7305" lon="28.17998">
        <ele>283.3</ele>
      </trkpt>
      <trkpt lat="36.73053" lon="28.18012">
        <ele>281.3</ele>
      </trkpt>
      <trkpt lat="36.73059" lon="28.18018">
        <ele>281.7</ele>
      </trkpt>
      <trkpt lat="36.73055" lon="28.18023">
        <ele>279.9</ele>
      </trkpt>
      <trkpt lat="36.73056" lon="28.18036">
        <ele>277.5</ele>
      </trkpt>
      <trkpt lat="36.73061" lon="28.18054">
        <ele>274.6</ele>
      </trkpt>
      <trkpt lat="36.73061" lon="28.18058">
        <ele>273.9</ele>
      </trkpt>
      <trkpt lat="36.73061" lon="28.18062">
        <ele>273</ele>
      </trkpt>
      <trkpt lat="36.73062" lon="28.18072">
        <ele>270.9</ele>
      </trkpt>
      <trkpt lat="36.73061" lon="28.18075">
        <ele>270.3</ele>
      </trkpt>
      <trkpt lat="36.7306" lon="28.18078">
        <ele>269.5</ele>
      </trkpt>
      <trkpt lat="36.73063" lon="28.18082">
        <ele>269.1</ele>
      </trkpt>
      <trkpt lat="36.73068" lon="28.18084">
        <ele>269.4</ele>
      </trkpt>
      <trkpt lat="36.73069" lon="28.18092">
        <ele>269.9</ele>
      </trkpt>
      <trkpt lat="36.73057" lon="28.18099">
        <ele>269.4</ele>
      </trkpt>
      <trkpt lat="36.7305" lon="28.18093">
        <ele>268.3</ele>
      </trkpt>
      <trkpt lat="36.73048" lon="28.18081">
        <ele>267.5</ele>
      </trkpt>
      <trkpt lat="36.73042" lon="28.18072">
        <ele>268.5</ele>
      </trkpt>
      <trkpt lat="36.7304" lon="28.18052">
        <ele>271.5</ele>
      </trkpt>
      <trkpt lat="36.73033" lon="28.18042">
        <ele>271.9</ele>
      </trkpt>
      <trkpt lat="36.73028" lon="28.18028">
        <ele>272.8</ele>
      </trkpt>
      <trkpt lat="36.73022" lon="28.18021">
        <ele>272.3</ele>
      </trkpt>
      <trkpt lat="36.73012" lon="28.18007">
        <ele>271.5</ele>
      </trkpt>
      <trkpt lat="36.73005" lon="28.18">
        <ele>270.3</ele>
      </trkpt>
      <trkpt lat="36.72996" lon="28.17985">
        <ele>271.2</ele>
      </trkpt>
      <trkpt lat="36.72985" lon="28.17975">
        <ele>271.6</ele>
      </trkpt>
      <trkpt lat="36.72971" lon="28.17967">
        <ele>271</ele>
      </trkpt>
      <trkpt lat="36.72965" lon="28.17954">
        <ele>271.8</ele>
      </trkpt>
      <trkpt lat="36.72966" lon="28.17947">
        <ele>272.9</ele>
      </trkpt>
      <trkpt lat="36.7297" lon="28.17925">
        <ele>276.3</ele>
      </trkpt>
      <trkpt lat="36.7297" lon="28.17924">
        <ele>276.6</ele>
      </trkpt>
      <trkpt lat="36.72969" lon="28.17916">
        <ele>277.6</ele>
      </trkpt>
      <trkpt lat="36.72974" lon="28.17904">
        <ele>282.8</ele>
      </trkpt>
      <trkpt lat="36.72959" lon="28.17885">
        <ele>285.9</ele>
      </trkpt>
      <trkpt lat="36.72949" lon="28.17881">
        <ele>285.1</ele>
      </trkpt>
      <trkpt lat="36.72946" lon="28.17879">
        <ele>285.2</ele>
      </trkpt>
      <trkpt lat="36.72943" lon="28.17873">
        <ele>286.6</ele>
      </trkpt>
      <trkpt lat="36.72942" lon="28.17875">
        <ele>285.9</ele>
      </trkpt>
      <trkpt lat="36.72927" lon="28.17888">
        <ele>278.1</ele>
      </trkpt>
      <trkpt lat="36.72912" lon="28.17892">
        <ele>274.9</ele>
      </trkpt>
      <trkpt lat="36.72905" lon="28.1789">
        <ele>275.8</ele>
      </trkpt>
      <trkpt lat="36.72895" lon="28.1789">
        <ele>276.6</ele>
      </trkpt>
      <trkpt lat="36.72882" lon="28.17892">
        <ele>276.5</ele>
      </trkpt>
      <trkpt lat="36.72874" lon="28.17892">
        <ele>277</ele>
      </trkpt>
      <trkpt lat="36.72871" lon="28.17903">
        <ele>273.9</ele>
      </trkpt>
      <trkpt lat="36.72868" lon="28.17913">
        <ele>271.3</ele>
      </trkpt>
      <trkpt lat="36.72867" lon="28.17913">
        <ele>271.2</ele>
      </trkpt>
      <trkpt lat="36.72857" lon="28.17923">
        <ele>270</ele>
      </trkpt>
      <trkpt lat="36.72852" lon="28.17936">
        <ele>268.2</ele>
      </trkpt>
      <trkpt lat="36.72852" lon="28.17938">
        <ele>267.8</ele>
      </trkpt>
      <trkpt lat="36.72852" lon="28.17945">
        <ele>266.7</ele>
      </trkpt>
      <trkpt lat="36.72839" lon="28.1796">
        <ele>264.2</ele>
      </trkpt>
      <trkpt lat="36.72822" lon="28.17966">
        <ele>262.4</ele>
      </trkpt>
      <trkpt lat="36.72814" lon="28.17973">
        <ele>260.7</ele>
      </trkpt>
      <trkpt lat="36.72816" lon="28.17978">
        <ele>259.8</ele>
      </trkpt>
      <trkpt lat="36.7281" lon="28.17984">
        <ele>258.7</ele>
      </trkpt>
      <trkpt lat="36.72783" lon="28.17986">
        <ele>257.7</ele>
      </trkpt>
      <trkpt lat="36.72766" lon="28.17979">
        <ele>258.1</ele>
      </trkpt>
      <trkpt lat="36.72764" lon="28.17975">
        <ele>258.4</ele>
      </trkpt>
      <trkpt lat="36.72757" lon="28.17969">
        <ele>258.6</ele>
      </trkpt>
      <trkpt lat="36.72751" lon="28.17965">
        <ele>258.6</ele>
      </trkpt>
      <trkpt lat="36.72752" lon="28.17962">
        <ele>258.8</ele>
      </trkpt>
      <trkpt lat="36.72748" lon="28.17943">
        <ele>259.9</ele>
      </trkpt>
      <trkpt lat="36.72743" lon="28.17924">
        <ele>260.5</ele>
      </trkpt>
      <trkpt lat="36.72733" lon="28.1791">
        <ele>261.8</ele>
      </trkpt>
      <trkpt lat="36.72721" lon="28.17916">
        <ele>257.7</ele>
      </trkpt>
      <trkpt lat="36.72709" lon="28.17914">
        <ele>256.8</ele>
      </trkpt>
      <trkpt lat="36.72694" lon="28.17917">
        <ele>253.3</ele>
      </trkpt>
      <trkpt lat="36.72678" lon="28.17911">
        <ele>252.8</ele>
      </trkpt>
      <trkpt lat="36.72668" lon="28.1791">
        <ele>251.3</ele>
      </trkpt>
      <trkpt lat="36.72658" lon="28.17906">
        <ele>251.8</ele>
      </trkpt>
      <trkpt lat="36.72655" lon="28.17904">
        <ele>252.1</ele>
      </trkpt>
      <trkpt lat="36.72652" lon="28.17904">
        <ele>252</ele>
      </trkpt>
      <trkpt lat="36.72644" lon="28.17899">
        <ele>252.6</ele>
      </trkpt>
      <trkpt lat="36.7264" lon="28.17893">
        <ele>253.7</ele>
      </trkpt>
      <trkpt lat="36.72629" lon="28.1789">
        <ele>252.9</ele>
      </trkpt>
      <trkpt lat="36.72617" lon="28.17885">
        <ele>252.2</ele>
      </trkpt>
      <trkpt lat="36.72605" lon="28.17875">
        <ele>251.9</ele>
      </trkpt>
      <trkpt lat="36.7259" lon="28.17858">
        <ele>250.8</ele>
      </trkpt>
      <trkpt lat="36.72589" lon="28.17851">
        <ele>251.1</ele>
      </trkpt>
      <trkpt lat="36.72588" lon="28.17849">
        <ele>251.2</ele>
      </trkpt>
      <trkpt lat="36.72569" lon="28.17845">
        <ele>249.9</ele>
      </trkpt>
      <trkpt lat="36.72558" lon="28.17839">
        <ele>249.9</ele>
      </trkpt>
      <trkpt lat="36.72557" lon="28.17838">
        <ele>249.9</ele>
      </trkpt>
      <trkpt lat="36.72548" lon="28.17824">
        <ele>250.5</ele>
      </trkpt>
      <trkpt lat="36.72545" lon="28.17815">
        <ele>250.8</ele>
      </trkpt>
      <trkpt lat="36.72537" lon="28.17804">
        <ele>250.4</ele>
      </trkpt>
      <trkpt lat="36.72524" lon="28.17787">
        <ele>248.7</ele>
      </trkpt>
      <trkpt lat="36.72518" lon="28.17781">
        <ele>247.4</ele>
      </trkpt>
      <trkpt lat="36.72527" lon="28.17758">
        <ele>249.2</ele>
      </trkpt>
      <trkpt lat="36.72526" lon="28.17744">
        <ele>250.2</ele>
      </trkpt>
      <trkpt lat="36.72521" lon="28.17722">
        <ele>251.9</ele>
      </trkpt>
      <trkpt lat="36.72515" lon="28.17704">
        <ele>252.6</ele>
      </trkpt>
      <trkpt lat="36.72508" lon="28.17693">
        <ele>251.3</ele>
      </trkpt>
      <trkpt lat="36.72494" lon="28.17686">
        <ele>248.5</ele>
      </trkpt>
      <trkpt lat="36.72485" lon="28.17687">
        <ele>247.2</ele>
      </trkpt>
      <trkpt lat="36.72473" lon="28.17679">
        <ele>246.2</ele>
      </trkpt>
      <trkpt lat="36.72466" lon="28.17673">
        <ele>245.3</ele>
      </trkpt>
      <trkpt lat="36.72457" lon="28.17663">
        <ele>245.2</ele>
      </trkpt>
      <trkpt lat="36.72441" lon="28.17653">
        <ele>245.3</ele>
      </trkpt>
      <trkpt lat="36.72429" lon="28.1765">
        <ele>244.2</ele>
      </trkpt>
      <trkpt lat="36.7242" lon="28.17656">
        <ele>240.8</ele>
      </trkpt>
      <trkpt lat="36.72411" lon="28.17659">
        <ele>238.3</ele>
      </trkpt>
      <trkpt lat="36.724" lon="28.17657">
        <ele>238.5</ele>
      </trkpt>
      <trkpt lat="36.7239" lon="28.17662">
        <ele>235.8</ele>
      </trkpt>
      <trkpt lat="36.72372" lon="28.1767">
        <ele>232.9</ele>
      </trkpt>
      <trkpt lat="36.7236" lon="28.17662">
        <ele>233.7</ele>
      </trkpt>
      <trkpt lat="36.72352" lon="28.17645">
        <ele>239</ele>
      </trkpt>
      <trkpt lat="36.7234" lon="28.17637">
        <ele>240.6</ele>
      </trkpt>
      <trkpt lat="36.72325" lon="28.17639">
        <ele>240</ele>
      </trkpt>
      <trkpt lat="36.72315" lon="28.17637">
        <ele>241</ele>
      </trkpt>
      <trkpt lat="36.72302" lon="28.17635">
        <ele>242.6</ele>
      </trkpt>
      <trkpt lat="36.72301" lon="28.17636">
        <ele>242.4</ele>
      </trkpt>
      <trkpt lat="36.72287" lon="28.17638">
        <ele>242.5</ele>
      </trkpt>
      <trkpt lat="36.72282" lon="28.17638">
        <ele>242.9</ele>
      </trkpt>
      <trkpt lat="36.72272" lon="28.17641">
        <ele>242.7</ele>
      </trkpt>
      <trkpt lat="36.72265" lon="28.17645">
        <ele>241.9</ele>
      </trkpt>
      <trkpt lat="36.72253" lon="28.17659">
        <ele>238.7</ele>
      </trkpt>
      <trkpt lat="36.72247" lon="28.17672">
        <ele>236.9</ele>
      </trkpt>
      <trkpt lat="36.72241" lon="28.17687">
        <ele>236.1</ele>
      </trkpt>
      <trkpt lat="36.72234" lon="28.17702">
        <ele>235.5</ele>
      </trkpt>
      <trkpt lat="36.72229" lon="28.17714">
        <ele>234.9</ele>
      </trkpt>
      <trkpt lat="36.72227" lon="28.17733">
        <ele>231.2</ele>
      </trkpt>
      <trkpt lat="36.72224" lon="28.1775">
        <ele>228.9</ele>
      </trkpt>
      <trkpt lat="36.72224" lon="28.17764">
        <ele>226.3</ele>
      </trkpt>
      <trkpt lat="36.72226" lon="28.17782">
        <ele>221.7</ele>
      </trkpt>
      <trkpt lat="36.72227" lon="28.17799">
        <ele>218.2</ele>
      </trkpt>
      <trkpt lat="36.72227" lon="28.1781">
        <ele>215.8</ele>
      </trkpt>
      <trkpt lat="36.72222" lon="28.17821">
        <ele>214.9</ele>
      </trkpt>
      <trkpt lat="36.72217" lon="28.17832">
        <ele>213.7</ele>
      </trkpt>
      <trkpt lat="36.7221" lon="28.17847">
        <ele>212.9</ele>
      </trkpt>
      <trkpt lat="36.722" lon="28.17857">
        <ele>212.8</ele>
      </trkpt>
      <trkpt lat="36.72198" lon="28.17859">
        <ele>212.8</ele>
      </trkpt>
      <trkpt lat="36.72193" lon="28.17862">
        <ele>212.7</ele>
      </trkpt>
      <trkpt lat="36.72192" lon="28.17863">
        <ele>212.7</ele>
      </trkpt>
      <trkpt lat="36.7218" lon="28.17878">
        <ele>210.5</ele>
      </trkpt>
      <trkpt lat="36.72172" lon="28.17884">
        <ele>209.4</ele>
      </trkpt>
      <trkpt lat="36.72158" lon="28.17884">
        <ele>210.3</ele>
      </trkpt>
      <trkpt lat="36.72146" lon="28.17886">
        <ele>210</ele>
      </trkpt>
      <trkpt lat="36.72133" lon="28.17884">
        <ele>211.3</ele>
      </trkpt>
      <trkpt lat="36.72118" lon="28.17887">
        <ele>210.8</ele>
      </trkpt>
      <trkpt lat="36.72102" lon="28.17886">
        <ele>211.8</ele>
      </trkpt>
      <trkpt lat="36.72092" lon="28.17888">
        <ele>211.3</ele>
      </trkpt>
      <trkpt lat="36.72081" lon="28.17888">
        <ele>211.3</ele>
      </trkpt>
      <trkpt lat="36.72068" lon="28.17891">
        <ele>209</ele>
      </trkpt>
      <trkpt lat="36.72058" lon="28.17897">
        <ele>206.1</ele>
      </trkpt>
      <trkpt lat="36.72048" lon="28.17914">
        <ele>200.1</ele>
      </trkpt>
      <trkpt lat="36.72036" lon="28.17919">
        <ele>198.6</ele>
      </trkpt>
      <trkpt lat="36.72024" lon="28.17925">
        <ele>197.9</ele>
      </trkpt>
      <trkpt lat="36.7201" lon="28.17933">
        <ele>197.1</ele>
      </trkpt>
      <trkpt lat="36.72002" lon="28.1793">
        <ele>196.9</ele>
      </trkpt>
      <trkpt lat="36.71986" lon="28.1793">
        <ele>197.8</ele>
      </trkpt>
      <trkpt lat="36.71974" lon="28.17931">
        <ele>198.6</ele>
      </trkpt>
      <trkpt lat="36.71973" lon="28.17932">
        <ele>198.8</ele>
      </trkpt>
      <trkpt lat="36.71958" lon="28.17927">
        <ele>199.4</ele>
      </trkpt>
      <trkpt lat="36.71946" lon="28.17911">
        <ele>199.1</ele>
      </trkpt>
      <trkpt lat="36.71946" lon="28.17903">
        <ele>199.4</ele>
      </trkpt>
      <trkpt lat="36.71942" lon="28.17896">
        <ele>199.4</ele>
      </trkpt>
      <trkpt lat="36.71942" lon="28.17895">
        <ele>199.4</ele>
      </trkpt>
      <trkpt lat="36.71936" lon="28.17887">
        <ele>199.1</ele>
      </trkpt>
      <trkpt lat="36.71935" lon="28.17881">
        <ele>199</ele>
      </trkpt>
      <trkpt lat="36.71928" lon="28.17873">
        <ele>198.2</ele>
      </trkpt>
      <trkpt lat="36.71919" lon="28.17851">
        <ele>195.7</ele>
      </trkpt>
      <trkpt lat="36.71908" lon="28.17841">
        <ele>194</ele>
      </trkpt>
      <trkpt lat="36.71903" lon="28.17827">
        <ele>193.4</ele>
      </trkpt>
      <trkpt lat="36.719" lon="28.17815">
        <ele>193.5</ele>
      </trkpt>
      <trkpt lat="36.71895" lon="28.17805">
        <ele>193.4</ele>
      </trkpt>
      <trkpt lat="36.71891" lon="28.178">
        <ele>193.1</ele>
      </trkpt>
      <trkpt lat="36.71883" lon="28.1779">
        <ele>192.7</ele>
      </trkpt>
      <trkpt lat="36.71874" lon="28.17775">
        <ele>192.1</ele>
      </trkpt>
      <trkpt lat="36.7187" lon="28.17765">
        <ele>191.8</ele>
      </trkpt>
      <trkpt lat="36.71872" lon="28.17761">
        <ele>192.1</ele>
      </trkpt>
      <trkpt lat="36.71866" lon="28.17743">
        <ele>191.6</ele>
      </trkpt>
      <trkpt lat="36.71858" lon="28.17742">
        <ele>190.8</ele>
      </trkpt>
      <trkpt lat="36.71857" lon="28.17742">
        <ele>190.7</ele>
      </trkpt>
      <trkpt lat="36.71849" lon="28.17727">
        <ele>189.9</ele>
      </trkpt>
      <trkpt lat="36.71849" lon="28.17727">
        <ele>189.8</ele>
      </trkpt>
      <trkpt lat="36.71849" lon="28.17727">
        <ele>189.8</ele>
      </trkpt>
      <trkpt lat="36.71845" lon="28.17724">
        <ele>189.4</ele>
      </trkpt>
      <trkpt lat="36.71845" lon="28.17724">
        <ele>189.4</ele>
      </trkpt>
      <trkpt lat="36.71837" lon="28.17719">
        <ele>188.5</ele>
      </trkpt>
      <trkpt lat="36.71832" lon="28.17713">
        <ele>188</ele>
      </trkpt>
      <trkpt lat="36.71829" lon="28.17705">
        <ele>188.1</ele>
      </trkpt>
      <trkpt lat="36.71822" lon="28.17688">
        <ele>188.3</ele>
      </trkpt>
      <trkpt lat="36.71816" lon="28.17678">
        <ele>188.3</ele>
      </trkpt>
      <trkpt lat="36.71812" lon="28.17659">
        <ele>188.3</ele>
      </trkpt>
      <trkpt lat="36.71798" lon="28.17651">
        <ele>188.3</ele>
      </trkpt>
      <trkpt lat="36.71785" lon="28.17642">
        <ele>188.1</ele>
      </trkpt>
      <trkpt lat="36.71774" lon="28.17637">
        <ele>187.9</ele>
      </trkpt>
      <trkpt lat="36.71761" lon="28.1763">
        <ele>187.5</ele>
      </trkpt>
      <trkpt lat="36.71749" lon="28.17622">
        <ele>187</ele>
      </trkpt>
      <trkpt lat="36.7174" lon="28.17619">
        <ele>187.5</ele>
      </trkpt>
      <trkpt lat="36.71736" lon="28.17616">
        <ele>187.7</ele>
      </trkpt>
      <trkpt lat="36.71726" lon="28.17607">
        <ele>188</ele>
      </trkpt>
      <trkpt lat="36.71719" lon="28.17603">
        <ele>188.3</ele>
      </trkpt>
      <trkpt lat="36.71711" lon="28.17592">
        <ele>188</ele>
      </trkpt>
      <trkpt lat="36.71698" lon="28.17586">
        <ele>188.3</ele>
      </trkpt>
      <trkpt lat="36.71686" lon="28.17584">
        <ele>188.9</ele>
      </trkpt>
      <trkpt lat="36.71672" lon="28.17578">
        <ele>190.2</ele>
      </trkpt>
      <trkpt lat="36.71661" lon="28.17573">
        <ele>190.5</ele>
      </trkpt>
      <trkpt lat="36.71651" lon="28.17563">
        <ele>190.2</ele>
      </trkpt>
      <trkpt lat="36.7164" lon="28.17558">
        <ele>189.2</ele>
      </trkpt>
      <trkpt lat="36.71629" lon="28.17547">
        <ele>188.3</ele>
      </trkpt>
      <trkpt lat="36.71618" lon="28.17531">
        <ele>187.2</ele>
      </trkpt>
      <trkpt lat="36.71609" lon="28.17521">
        <ele>185.9</ele>
      </trkpt>
      <trkpt lat="36.71596" lon="28.17511">
        <ele>183.7</ele>
      </trkpt>
      <trkpt lat="36.71593" lon="28.17493">
        <ele>182.8</ele>
      </trkpt>
      <trkpt lat="36.71586" lon="28.17479">
        <ele>180.8</ele>
      </trkpt>
      <trkpt lat="36.71586" lon="28.17479">
        <ele>180.8</ele>
      </trkpt>
      <trkpt lat="36.71584" lon="28.17461">
        <ele>179.6</ele>
      </trkpt>
      <trkpt lat="36.71584" lon="28.17445">
        <ele>179.2</ele>
      </trkpt>
      <trkpt lat="36.71584" lon="28.17438">
        <ele>178.9</ele>
      </trkpt>
      <trkpt lat="36.71585" lon="28.17418">
        <ele>178.5</ele>
      </trkpt>
      <trkpt lat="36.7159" lon="28.17396">
        <ele>176.3</ele>
      </trkpt>
      <trkpt lat="36.71594" lon="28.17379">
        <ele>174.2</ele>
      </trkpt>
      <trkpt lat="36.71597" lon="28.17363">
        <ele>172</ele>
      </trkpt>
      <trkpt lat="36.71601" lon="28.17342">
        <ele>169.1</ele>
      </trkpt>
      <trkpt lat="36.71604" lon="28.17332">
        <ele>167.9</ele>
      </trkpt>
      <trkpt lat="36.71607" lon="28.17325">
        <ele>167.6</ele>
      </trkpt>
      <trkpt lat="36.71611" lon="28.17311">
        <ele>166.8</ele>
      </trkpt>
      <trkpt lat="36.71615" lon="28.17305">
        <ele>166.7</ele>
      </trkpt>
      <trkpt lat="36.71618" lon="28.17297">
        <ele>166.2</ele>
      </trkpt>
      <trkpt lat="36.71618" lon="28.1728">
        <ele>164.9</ele>
      </trkpt>
      <trkpt lat="36.71619" lon="28.17262">
        <ele>163.4</ele>
      </trkpt>
      <trkpt lat="36.71621" lon="28.17259">
        <ele>163.4</ele>
      </trkpt>
      <trkpt lat="36.71619" lon="28.17252">
        <ele>162.6</ele>
      </trkpt>
      <trkpt lat="36.71609" lon="28.17243">
        <ele>161.4</ele>
      </trkpt>
      <trkpt lat="36.71608" lon="28.17239">
        <ele>161.2</ele>
      </trkpt>
      <trkpt lat="36.71612" lon="28.1723">
        <ele>161.5</ele>
      </trkpt>
      <trkpt lat="36.71611" lon="28.17225">
        <ele>161.3</ele>
      </trkpt>
      <trkpt lat="36.71612" lon="28.17217">
        <ele>161.3</ele>
      </trkpt>
      <trkpt lat="36.71615" lon="28.17208">
        <ele>161.4</ele>
      </trkpt>
      <trkpt lat="36.71621" lon="28.17202">
        <ele>161.9</ele>
      </trkpt>
      <trkpt lat="36.71621" lon="28.17197">
        <ele>162</ele>
      </trkpt>
      <trkpt lat="36.71621" lon="28.17197">
        <ele>161.9</ele>
      </trkpt>
      <trkpt lat="36.71625" lon="28.17181">
        <ele>162.1</ele>
      </trkpt>
      <trkpt lat="36.71626" lon="28.17166">
        <ele>162.1</ele>
      </trkpt>
      <trkpt lat="36.71621" lon="28.17149">
        <ele>160.8</ele>
      </trkpt>
      <trkpt lat="36.71625" lon="28.17132">
        <ele>160.4</ele>
      </trkpt>
      <trkpt lat="36.71631" lon="28.17116">
        <ele>159.9</ele>
      </trkpt>
      <trkpt lat="36.71639" lon="28.17095">
        <ele>159</ele>
      </trkpt>
      <trkpt lat="36.71647" lon="28.17076">
        <ele>158.3</ele>
      </trkpt>
      <trkpt lat="36.71653" lon="28.17062">
        <ele>157.9</ele>
      </trkpt>
      <trkpt lat="36.71659" lon="28.17052">
        <ele>157.6</ele>
      </trkpt>
      <trkpt lat="36.71668" lon="28.17039">
        <ele>156.9</ele>
      </trkpt>
      <trkpt lat="36.71675" lon="28.17026">
        <ele>156.6</ele>
      </trkpt>
      <trkpt lat="36.71682" lon="28.17012">
        <ele>156.2</ele>
      </trkpt>
      <trkpt lat="36.71692" lon="28.16998">
        <ele>155.9</ele>
      </trkpt>
      <trkpt lat="36.71699" lon="28.16985">
        <ele>155.8</ele>
      </trkpt>
      <trkpt lat="36.71707" lon="28.16968">
        <ele>155.7</ele>
      </trkpt>
      <trkpt lat="36.71712" lon="28.1695">
        <ele>155.4</ele>
      </trkpt>
      <trkpt lat="36.71713" lon="28.16944">
        <ele>155.2</ele>
      </trkpt>
      <trkpt lat="36.71717" lon="28.16922">
        <ele>154.7</ele>
      </trkpt>
      <trkpt lat="36.71711" lon="28.16915">
        <ele>154.5</ele>
      </trkpt>
      <trkpt lat="36.71701" lon="28.16905">
        <ele>154.4</ele>
      </trkpt>
      <trkpt lat="36.71694" lon="28.16886">
        <ele>154.3</ele>
      </trkpt>
      <trkpt lat="36.71687" lon="28.1687">
        <ele>154.4</ele>
      </trkpt>
      <trkpt lat="36.7168" lon="28.16855">
        <ele>154.5</ele>
      </trkpt>
      <trkpt lat="36.71673" lon="28.16843">
        <ele>154.8</ele>
      </trkpt>
      <trkpt lat="36.71663" lon="28.16832">
        <ele>155.3</ele>
      </trkpt>
      <trkpt lat="36.71657" lon="28.16821">
        <ele>155.7</ele>
      </trkpt>
      <trkpt lat="36.71653" lon="28.16815">
        <ele>156.1</ele>
      </trkpt>
      <trkpt lat="36.71653" lon="28.16815">
        <ele>156.1</ele>
      </trkpt>
      <trkpt lat="36.71649" lon="28.16818">
        <ele>156.4</ele>
      </trkpt>
      <trkpt lat="36.71648" lon="28.16813">
        <ele>156.4</ele>
      </trkpt>
      <trkpt lat="36.71631" lon="28.16789">
        <ele>158.2</ele>
      </trkpt>
      <trkpt lat="36.71624" lon="28.16783">
        <ele>159</ele>
      </trkpt>
      <trkpt lat="36.71619" lon="28.16777">
        <ele>159.5</ele>
      </trkpt>
      <trkpt lat="36.71616" lon="28.16768">
        <ele>159.9</ele>
      </trkpt>
      <trkpt lat="36.71604" lon="28.16728">
        <ele>162.5</ele>
      </trkpt>
      <trkpt lat="36.71601" lon="28.1672">
        <ele>163.2</ele>
      </trkpt>
      <trkpt lat="36.71595" lon="28.16708">
        <ele>164.5</ele>
      </trkpt>
      <trkpt lat="36.71597" lon="28.16708">
        <ele>164.3</ele>
      </trkpt>
      <trkpt lat="36.716" lon="28.167">
        <ele>164.3</ele>
      </trkpt>
      <trkpt lat="36.71597" lon="28.16696">
        <ele>164.9</ele>
      </trkpt>
      <trkpt lat="36.71584" lon="28.16679">
        <ele>167.4</ele>
      </trkpt>
      <trkpt lat="36.71583" lon="28.16674">
        <ele>167.7</ele>
      </trkpt>
      <trkpt lat="36.71582" lon="28.16655">
        <ele>170.6</ele>
      </trkpt>
      <trkpt lat="36.71586" lon="28.16643">
        <ele>172.3</ele>
      </trkpt>
      <trkpt lat="36.71588" lon="28.16637">
        <ele>173.2</ele>
      </trkpt>
      <trkpt lat="36.71583" lon="28.16631">
        <ele>175.5</ele>
      </trkpt>
      <trkpt lat="36.71578" lon="28.16617">
        <ele>178.8</ele>
      </trkpt>
      <trkpt lat="36.71566" lon="28.16615">
        <ele>180.7</ele>
      </trkpt>
      <trkpt lat="36.71565" lon="28.16614">
        <ele>181</ele>
      </trkpt>
      <trkpt lat="36.71562" lon="28.16612">
        <ele>181.8</ele>
      </trkpt>
      <trkpt lat="36.71554" lon="28.16613">
        <ele>182.6</ele>
      </trkpt>
      <trkpt lat="36.71553" lon="28.16613">
        <ele>182.7</ele>
      </trkpt>
      <trkpt lat="36.71545" lon="28.16616">
        <ele>183.1</ele>
      </trkpt>
      <trkpt lat="36.71541" lon="28.16616">
        <ele>183.6</ele>
      </trkpt>
      <trkpt lat="36.71529" lon="28.16609">
        <ele>186.5</ele>
      </trkpt>
      <trkpt lat="36.71523" lon="28.16605">
        <ele>188.1</ele>
      </trkpt>
      <trkpt lat="36.71519" lon="28.16603">
        <ele>189</ele>
      </trkpt>
      <trkpt lat="36.71511" lon="28.16601">
        <ele>190.7</ele>
      </trkpt>
      <trkpt lat="36.71503" lon="28.16595">
        <ele>193.1</ele>
      </trkpt>
      <trkpt lat="36.71493" lon="28.16589">
        <ele>196</ele>
      </trkpt>
      <trkpt lat="36.71488" lon="28.16583">
        <ele>198.3</ele>
      </trkpt>
      <trkpt lat="36.71483" lon="28.16576">
        <ele>201.8</ele>
      </trkpt>
      <trkpt lat="36.71478" lon="28.16576">
        <ele>202.6</ele>
      </trkpt>
      <trkpt lat="36.71466" lon="28.16573">
        <ele>205.7</ele>
      </trkpt>
      <trkpt lat="36.71451" lon="28.16573">
        <ele>208.5</ele>
      </trkpt>
      <trkpt lat="36.71441" lon="28.16567">
        <ele>212.4</ele>
      </trkpt>
      <trkpt lat="36.71441" lon="28.16564">
        <ele>213.4</ele>
      </trkpt>
      <trkpt lat="36.71434" lon="28.16561">
        <ele>215.4</ele>
      </trkpt>
      <trkpt lat="36.7143" lon="28.16553">
        <ele>218.9</ele>
      </trkpt>
      <trkpt lat="36.71425" lon="28.1655">
        <ele>220.8</ele>
      </trkpt>
      <trkpt lat="36.71425" lon="28.16549">
        <ele>221.3</ele>
      </trkpt>
      <trkpt lat="36.71426" lon="28.16539">
        <ele>224.7</ele>
      </trkpt>
      <trkpt lat="36.7142" lon="28.16533">
        <ele>227.3</ele>
      </trkpt>
      <trkpt lat="36.71419" lon="28.16532">
        <ele>227.8</ele>
      </trkpt>
      <trkpt lat="36.71413" lon="28.16531">
        <ele>229.2</ele>
      </trkpt>
      <trkpt lat="36.71414" lon="28.16523">
        <ele>231.7</ele>
      </trkpt>
      <trkpt lat="36.71411" lon="28.16518">
        <ele>233.7</ele>
      </trkpt>
      <trkpt lat="36.71408" lon="28.16515">
        <ele>235.1</ele>
      </trkpt>
      <trkpt lat="36.71399" lon="28.16509">
        <ele>238.5</ele>
      </trkpt>
      <trkpt lat="36.71397" lon="28.16502">
        <ele>240.8</ele>
      </trkpt>
      <trkpt lat="36.71397" lon="28.16502">
        <ele>241</ele>
      </trkpt>
      <trkpt lat="36.71393" lon="28.16491">
        <ele>245.1</ele>
      </trkpt>
      <trkpt lat="36.71393" lon="28.16491">
        <ele>245.2</ele>
      </trkpt>
      <trkpt lat="36.71388" lon="28.16485">
        <ele>247.6</ele>
      </trkpt>
      <trkpt lat="36.71385" lon="28.16478">
        <ele>250.3</ele>
      </trkpt>
      <trkpt lat="36.71385" lon="28.16474">
        <ele>251.7</ele>
      </trkpt>
      <trkpt lat="36.7138" lon="28.16471">
        <ele>253.3</ele>
      </trkpt>
      <trkpt lat="36.71374" lon="28.1647">
        <ele>254.5</ele>
      </trkpt>
      <trkpt lat="36.71369" lon="28.16467">
        <ele>256</ele>
      </trkpt>
      <trkpt lat="36.71361" lon="28.1646">
        <ele>259.4</ele>
      </trkpt>
      <trkpt lat="36.71358" lon="28.16456">
        <ele>261</ele>
      </trkpt>
      <trkpt lat="36.71349" lon="28.16451">
        <ele>263.8</ele>
      </trkpt>
      <trkpt lat="36.71341" lon="28.16443">
        <ele>267.6</ele>
      </trkpt>
      <trkpt lat="36.71337" lon="28.16438">
        <ele>269.7</ele>
      </trkpt>
      <trkpt lat="36.71326" lon="28.16431">
        <ele>273</ele>
      </trkpt>
      <trkpt lat="36.7132" lon="28.1642">
        <ele>276.9</ele>
      </trkpt>
      <trkpt lat="36.71319" lon="28.1642">
        <ele>276.9</ele>
      </trkpt>
      <trkpt lat="36.71314" lon="28.16419">
        <ele>277.6</ele>
      </trkpt>
      <trkpt lat="36.71305" lon="28.16412">
        <ele>280.9</ele>
      </trkpt>
      <trkpt lat="36.71298" lon="28.16408">
        <ele>283.2</ele>
      </trkpt>
      <trkpt lat="36.71296" lon="28.16399">
        <ele>287</ele>
      </trkpt>
      <trkpt lat="36.71296" lon="28.16398">
        <ele>287.3</ele>
      </trkpt>
      <trkpt lat="36.71286" lon="28.16397">
        <ele>288.7</ele>
      </trkpt>
      <trkpt lat="36.71283" lon="28.16397">
        <ele>289</ele>
      </trkpt>
      <trkpt lat="36.71278" lon="28.1639">
        <ele>292.7</ele>
      </trkpt>
      <trkpt lat="36.71275" lon="28.16388">
        <ele>293.4</ele>
      </trkpt>
      <trkpt lat="36.71264" lon="28.16385">
        <ele>296</ele>
      </trkpt>
      <trkpt lat="36.71256" lon="28.16377">
        <ele>300.2</ele>
      </trkpt>
      <trkpt lat="36.71251" lon="28.16371">
        <ele>303.3</ele>
      </trkpt>
      <trkpt lat="36.7125" lon="28.1637">
        <ele>303.8</ele>
      </trkpt>
      <trkpt lat="36.71246" lon="28.16369">
        <ele>304.5</ele>
      </trkpt>
      <trkpt lat="36.7124" lon="28.16367">
        <ele>305.7</ele>
      </trkpt>
      <trkpt lat="36.71235" lon="28.16366">
        <ele>306.6</ele>
      </trkpt>
      <trkpt lat="36.71234" lon="28.16366">
        <ele>306.9</ele>
      </trkpt>
      <trkpt lat="36.71227" lon="28.16359">
        <ele>310.5</ele>
      </trkpt>
      <trkpt lat="36.71221" lon="28.16353">
        <ele>313.5</ele>
      </trkpt>
      <trkpt lat="36.71227" lon="28.16344">
        <ele>317.2</ele>
      </trkpt>
      <trkpt lat="36.71227" lon="28.16345">
        <ele>316.7</ele>
      </trkpt>
      <trkpt lat="36.71223" lon="28.1634">
        <ele>319.2</ele>
      </trkpt>
      <trkpt lat="36.71219" lon="28.16337">
        <ele>320.8</ele>
      </trkpt>
      <trkpt lat="36.71214" lon="28.16332">
        <ele>323.3</ele>
      </trkpt>
      <trkpt lat="36.71212" lon="28.16331">
        <ele>323.9</ele>
      </trkpt>
      <trkpt lat="36.71201" lon="28.16328">
        <ele>326.1</ele>
      </trkpt>
      <trkpt lat="36.712" lon="28.16326">
        <ele>326.8</ele>
      </trkpt>
      <trkpt lat="36.71191" lon="28.16321">
        <ele>329.9</ele>
      </trkpt>
      <trkpt lat="36.71178" lon="28.1632">
        <ele>331.2</ele>
      </trkpt>
      <trkpt lat="36.71168" lon="28.16319">
        <ele>332.3</ele>
      </trkpt>
      <trkpt lat="36.71155" lon="28.16315">
        <ele>335.9</ele>
      </trkpt>
      <trkpt lat="36.71151" lon="28.16319">
        <ele>334.7</ele>
      </trkpt>
      <trkpt lat="36.71136" lon="28.16319">
        <ele>337.5</ele>
      </trkpt>
      <trkpt lat="36.71127" lon="28.16316">
        <ele>339.9</ele>
      </trkpt>
      <trkpt lat="36.71116" lon="28.16315">
        <ele>342.2</ele>
      </trkpt>
      <trkpt lat="36.71109" lon="28.16311">
        <ele>345.1</ele>
      </trkpt>
      <trkpt lat="36.71103" lon="28.16311">
        <ele>346.2</ele>
      </trkpt>
      <trkpt lat="36.71097" lon="28.16309">
        <ele>348.2</ele>
      </trkpt>
      <trkpt lat="36.71095" lon="28.16308">
        <ele>349.2</ele>
      </trkpt>
      <trkpt lat="36.71083" lon="28.16308">
        <ele>350.9</ele>
      </trkpt>
      <trkpt lat="36.71078" lon="28.16308">
        <ele>353.4</ele>
      </trkpt>
      <trkpt lat="36.71076" lon="28.16308">
        <ele>354</ele>
      </trkpt>
      <trkpt lat="36.71064" lon="28.16314">
        <ele>356.6</ele>
      </trkpt>
      <trkpt lat="36.71053" lon="28.16315">
        <ele>361.2</ele>
      </trkpt>
      <trkpt lat="36.71044" lon="28.16319">
        <ele>363.7</ele>
      </trkpt>
      <trkpt lat="36.71041" lon="28.16319">
        <ele>364.7</ele>
      </trkpt>
      <trkpt lat="36.71037" lon="28.1632">
        <ele>366</ele>
      </trkpt>
      <trkpt lat="36.71023" lon="28.16327">
        <ele>370.2</ele>
      </trkpt>
      <trkpt lat="36.71019" lon="28.16327">
        <ele>371.9</ele>
      </trkpt>
      <trkpt lat="36.71014" lon="28.1633">
        <ele>373.6</ele>
      </trkpt>
      <trkpt lat="36.71004" lon="28.16332">
        <ele>377.4</ele>
      </trkpt>
      <trkpt lat="36.70994" lon="28.16339">
        <ele>380.8</ele>
      </trkpt>
      <trkpt lat="36.70991" lon="28.16339">
        <ele>382.6</ele>
      </trkpt>
      <trkpt lat="36.70983" lon="28.16342">
        <ele>386.1</ele>
      </trkpt>
      <trkpt lat="36.70982" lon="28.16342">
        <ele>386.6</ele>
      </trkpt>
      <trkpt lat="36.70976" lon="28.16345">
        <ele>389.2</ele>
      </trkpt>
      <trkpt lat="36.70967" lon="28.16358">
        <ele>390.4</ele>
      </trkpt>
      <trkpt lat="36.70961" lon="28.16358">
        <ele>393.6</ele>
      </trkpt>
      <trkpt lat="36.70958" lon="28.16359">
        <ele>395</ele>
      </trkpt>
      <trkpt lat="36.70953" lon="28.16365">
        <ele>396.1</ele>
      </trkpt>
      <trkpt lat="36.70952" lon="28.16365">
        <ele>396.4</ele>
      </trkpt>
      <trkpt lat="36.7095" lon="28.16364">
        <ele>398</ele>
      </trkpt>
      <trkpt lat="36.70945" lon="28.16372">
        <ele>398.3</ele>
      </trkpt>
      <trkpt lat="36.70945" lon="28.16372">
        <ele>398.2</ele>
      </trkpt>
      <trkpt lat="36.70941" lon="28.16376">
        <ele>399.4</ele>
      </trkpt>
      <trkpt lat="36.70938" lon="28.16379">
        <ele>399.7</ele>
      </trkpt>
      <trkpt lat="36.70932" lon="28.16385">
        <ele>401.5</ele>
      </trkpt>
      <trkpt lat="36.70924" lon="28.16391">
        <ele>403.6</ele>
      </trkpt>
      <trkpt lat="36.70916" lon="28.164">
        <ele>405</ele>
      </trkpt>
      <trkpt lat="36.7091" lon="28.16405">
        <ele>406.2</ele>
      </trkpt>
      <trkpt lat="36.709" lon="28.16409">
        <ele>409.1</ele>
      </trkpt>
      <trkpt lat="36.70893" lon="28.16413">
        <ele>411.2</ele>
      </trkpt>
      <trkpt lat="36.70881" lon="28.16418">
        <ele>415.3</ele>
      </trkpt>
      <trkpt lat="36.70853" lon="28.16426">
        <ele>425.3</ele>
      </trkpt>
      <trkpt lat="36.70853" lon="28.16426">
        <ele>425.3</ele>
      </trkpt>
      <trkpt lat="36.70853" lon="28.16426">
        <ele>425.3</ele>
      </trkpt>
      <trkpt lat="36.70853" lon="28.16426">
        <ele>425.3</ele>
      </trkpt>
      <trkpt lat="36.70853" lon="28.16426">
        <ele>425.3</ele>
      </trkpt>
      <trkpt lat="36.70847" lon="28.1642">
        <ele>429.3</ele>
      </trkpt>
      <trkpt lat="36.70839" lon="28.16418">
        <ele>433.1</ele>
      </trkpt>
      <trkpt lat="36.7083" lon="28.1643">
        <ele>433.2</ele>
      </trkpt>
      <trkpt lat="36.70811" lon="28.1646">
        <ele>428.7</ele>
      </trkpt>
      <trkpt lat="36.70797" lon="28.16486">
        <ele>426.8</ele>
      </trkpt>
      <trkpt lat="36.7077" lon="28.16521">
        <ele>428.5</ele>
      </trkpt>
      <trkpt lat="36.70755" lon="28.16526">
        <ele>431.5</ele>
      </trkpt>
      <trkpt lat="36.70745" lon="28.16521">
        <ele>433.2</ele>
      </trkpt>
      <trkpt lat="36.70742" lon="28.16515">
        <ele>433.8</ele>
      </trkpt>
      <trkpt lat="36.70723" lon="28.16459">
        <ele>434.7</ele>
      </trkpt>
      <trkpt lat="36.70718" lon="28.16424">
        <ele>433.7</ele>
      </trkpt>
      <trkpt lat="36.70715" lon="28.16406">
        <ele>433.2</ele>
      </trkpt>
      <trkpt lat="36.70708" lon="28.16355">
        <ele>431.8</ele>
      </trkpt>
      <trkpt lat="36.70701" lon="28.16316">
        <ele>429.7</ele>
      </trkpt>
      <trkpt lat="36.70695" lon="28.16302">
        <ele>428.3</ele>
      </trkpt>
      <trkpt lat="36.70659" lon="28.16276">
        <ele>421.3</ele>
      </trkpt>
      <trkpt lat="36.70646" lon="28.16272">
        <ele>420</ele>
      </trkpt>
      <trkpt lat="36.70645" lon="28.16272">
        <ele>419.9</ele>
      </trkpt>
      <trkpt lat="36.70644" lon="28.16273">
        <ele>419.9</ele>
      </trkpt>
      <trkpt lat="36.70642" lon="28.16268">
        <ele>419.4</ele>
      </trkpt>
      <trkpt lat="36.70647" lon="28.16266">
        <ele>419.7</ele>
      </trkpt>
      <trkpt lat="36.70649" lon="28.16264">
        <ele>419.7</ele>
      </trkpt>
      <trkpt lat="36.70655" lon="28.1625">
        <ele>419.6</ele>
      </trkpt>
      <trkpt lat="36.70668" lon="28.16238">
        <ele>419.9</ele>
      </trkpt>
      <trkpt lat="36.70669" lon="28.16229">
        <ele>419.2</ele>
      </trkpt>
      <trkpt lat="36.70668" lon="28.16221">
        <ele>418.1</ele>
      </trkpt>
      <trkpt lat="36.70667" lon="28.16212">
        <ele>416.9</ele>
      </trkpt>
      <trkpt lat="36.70663" lon="28.16202">
        <ele>415.4</ele>
      </trkpt>
      <trkpt lat="36.7066" lon="28.16197">
        <ele>414.5</ele>
      </trkpt>
      <trkpt lat="36.70657" lon="28.16189">
        <ele>413.3</ele>
      </trkpt>
      <trkpt lat="36.70655" lon="28.16179">
        <ele>412</ele>
      </trkpt>
      <trkpt lat="36.70662" lon="28.16168">
        <ele>411.6</ele>
      </trkpt>
      <trkpt lat="36.70662" lon="28.16162">
        <ele>410.7</ele>
      </trkpt>
      <trkpt lat="36.70664" lon="28.16153">
        <ele>409.6</ele>
      </trkpt>
      <trkpt lat="36.70666" lon="28.16145">
        <ele>408.5</ele>
      </trkpt>
      <trkpt lat="36.70665" lon="28.16135">
        <ele>406.9</ele>
      </trkpt>
      <trkpt lat="36.70669" lon="28.16123">
        <ele>405.9</ele>
      </trkpt>
      <trkpt lat="36.70671" lon="28.16114">
        <ele>404.9</ele>
      </trkpt>
      <trkpt lat="36.70673" lon="28.16104">
        <ele>403.9</ele>
      </trkpt>
      <trkpt lat="36.7067" lon="28.16094">
        <ele>401.5</ele>
      </trkpt>
      <trkpt lat="36.7067" lon="28.16087">
        <ele>400.4</ele>
      </trkpt>
      <trkpt lat="36.70671" lon="28.16078">
        <ele>399.8</ele>
      </trkpt>
      <trkpt lat="36.70672" lon="28.16069">
        <ele>399.6</ele>
      </trkpt>
      <trkpt lat="36.70666" lon="28.16056">
        <ele>397</ele>
      </trkpt>
      <trkpt lat="36.70666" lon="28.16056">
        <ele>397</ele>
      </trkpt>
      <trkpt lat="36.70666" lon="28.16056">
        <ele>397</ele>
      </trkpt>
      <trkpt lat="36.70667" lon="28.16055">
        <ele>397</ele>
      </trkpt>
      <trkpt lat="36.70679" lon="28.16036">
        <ele>399</ele>
      </trkpt>
      <trkpt lat="36.70676" lon="28.15979">
        <ele>394.5</ele>
      </trkpt>
      <trkpt lat="36.70664" lon="28.15926">
        <ele>389.2</ele>
      </trkpt>
      <trkpt lat="36.70658" lon="28.159">
        <ele>387.5</ele>
      </trkpt>
      <trkpt lat="36.70652" lon="28.15894">
        <ele>386.7</ele>
      </trkpt>
      <trkpt lat="36.7065" lon="28.15891">
        <ele>386.4</ele>
      </trkpt>
      <trkpt lat="36.70642" lon="28.15881">
        <ele>385.3</ele>
      </trkpt>
      <trkpt lat="36.7064" lon="28.15876">
        <ele>384.9</ele>
      </trkpt>
      <trkpt lat="36.70635" lon="28.15865">
        <ele>384.2</ele>
      </trkpt>
      <trkpt lat="36.70633" lon="28.15855">
        <ele>383.8</ele>
      </trkpt>
      <trkpt lat="36.70627" lon="28.15847">
        <ele>383</ele>
      </trkpt>
      <trkpt lat="36.70619" lon="28.15842">
        <ele>382.2</ele>
      </trkpt>
      <trkpt lat="36.70613" lon="28.15834">
        <ele>381.5</ele>
      </trkpt>
      <trkpt lat="36.70602" lon="28.15834">
        <ele>380.6</ele>
      </trkpt>
      <trkpt lat="36.7059" lon="28.15834">
        <ele>379.5</ele>
      </trkpt>
      <trkpt lat="36.70581" lon="28.15834">
        <ele>378.9</ele>
      </trkpt>
      <trkpt lat="36.70571" lon="28.15831">
        <ele>378.7</ele>
      </trkpt>
      <trkpt lat="36.70558" lon="28.15831">
        <ele>378</ele>
      </trkpt>
      <trkpt lat="36.70546" lon="28.15826">
        <ele>378.5</ele>
      </trkpt>
      <trkpt lat="36.70535" lon="28.15825">
        <ele>377.9</ele>
      </trkpt>
      <trkpt lat="36.70529" lon="28.15823">
        <ele>378.2</ele>
      </trkpt>
      <trkpt lat="36.70521" lon="28.15823">
        <ele>377.8</ele>
      </trkpt>
      <trkpt lat="36.70513" lon="28.15817">
        <ele>378.6</ele>
      </trkpt>
      <trkpt lat="36.70502" lon="28.15815">
        <ele>378.8</ele>
      </trkpt>
      <trkpt lat="36.70494" lon="28.15815">
        <ele>378</ele>
      </trkpt>
      <trkpt lat="36.70485" lon="28.15812">
        <ele>377.6</ele>
      </trkpt>
      <trkpt lat="36.70477" lon="28.15809">
        <ele>377.2</ele>
      </trkpt>
      <trkpt lat="36.70466" lon="28.15801">
        <ele>377.6</ele>
      </trkpt>
      <trkpt lat="36.70456" lon="28.15799">
        <ele>376.8</ele>
      </trkpt>
      <trkpt lat="36.70448" lon="28.15791">
        <ele>377.1</ele>
      </trkpt>
      <trkpt lat="36.70439" lon="28.15785">
        <ele>376.9</ele>
      </trkpt>
      <trkpt lat="36.70431" lon="28.15785">
        <ele>375.6</ele>
      </trkpt>
      <trkpt lat="36.70422" lon="28.15783">
        <ele>374.8</ele>
      </trkpt>
      <trkpt lat="36.70412" lon="28.15777">
        <ele>374.1</ele>
      </trkpt>
      <trkpt lat="36.70403" lon="28.15777">
        <ele>372.9</ele>
      </trkpt>
      <trkpt lat="36.70397" lon="28.15772">
        <ele>372.6</ele>
      </trkpt>
      <trkpt lat="36.70397" lon="28.15772">
        <ele>372.6</ele>
      </trkpt>
      <trkpt lat="36.70397" lon="28.15772">
        <ele>372.6</ele>
      </trkpt>
      <trkpt lat="36.70397" lon="28.15772">
        <ele>372.6</ele>
      </trkpt>
      <trkpt lat="36.70397" lon="28.15772">
        <ele>372.6</ele>
      </trkpt>
      <trkpt lat="36.70397" lon="28.15772">
        <ele>372.6</ele>
      </trkpt>
      <trkpt lat="36.70397" lon="28.15772">
        <ele>372.6</ele>
      </trkpt>
      <trkpt lat="36.70396" lon="28.15767">
        <ele>373.1</ele>
      </trkpt>
      <trkpt lat="36.70389" lon="28.15761">
        <ele>372.7</ele>
      </trkpt>
      <trkpt lat="36.7038" lon="28.15753">
        <ele>372.2</ele>
      </trkpt>
      <trkpt lat="36.70369" lon="28.15743">
        <ele>373.5</ele>
      </trkpt>
      <trkpt lat="36.70351" lon="28.15732">
        <ele>375.2</ele>
      </trkpt>
      <trkpt lat="36.70322" lon="28.15716">
        <ele>378.1</ele>
      </trkpt>
      <trkpt lat="36.70314" lon="28.15711">
        <ele>378.8</ele>
      </trkpt>
      <trkpt lat="36.7031" lon="28.15707">
        <ele>379.7</ele>
      </trkpt>
      <trkpt lat="36.70293" lon="28.15685">
        <ele>385</ele>
      </trkpt>
      <trkpt lat="36.70287" lon="28.15679">
        <ele>386</ele>
      </trkpt>
      <trkpt lat="36.70283" lon="28.15671">
        <ele>387.8</ele>
      </trkpt>
      <trkpt lat="36.70274" lon="28.1566">
        <ele>389.4</ele>
      </trkpt>
      <trkpt lat="36.70269" lon="28.15649">
        <ele>391.5</ele>
      </trkpt>
      <trkpt lat="36.70267" lon="28.15638">
        <ele>394.5</ele>
      </trkpt>
      <trkpt lat="36.70261" lon="28.15626">
        <ele>396.8</ele>
      </trkpt>
      <trkpt lat="36.70259" lon="28.15613">
        <ele>400.3</ele>
      </trkpt>
      <trkpt lat="36.7026" lon="28.15607">
        <ele>402.2</ele>
      </trkpt>
      <trkpt lat="36.70259" lon="28.15601">
        <ele>403.5</ele>
      </trkpt>
      <trkpt lat="36.70255" lon="28.15591">
        <ele>405.4</ele>
      </trkpt>
      <trkpt lat="36.7025" lon="28.15578">
        <ele>407.3</ele>
      </trkpt>
      <trkpt lat="36.70251" lon="28.15567">
        <ele>410.1</ele>
      </trkpt>
      <trkpt lat="36.70247" lon="28.15557">
        <ele>411.7</ele>
      </trkpt>
      <trkpt lat="36.70246" lon="28.15556">
        <ele>411.9</ele>
      </trkpt>
      <trkpt lat="36.70241" lon="28.15545">
        <ele>414.2</ele>
      </trkpt>
      <trkpt lat="36.7024" lon="28.15541">
        <ele>414.9</ele>
      </trkpt>
      <trkpt lat="36.70238" lon="28.15534">
        <ele>416.3</ele>
      </trkpt>
      <trkpt lat="36.70233" lon="28.15523">
        <ele>418.3</ele>
      </trkpt>
      <trkpt lat="36.70229" lon="28.15513">
        <ele>419.9</ele>
      </trkpt>
      <trkpt lat="36.70224" lon="28.155">
        <ele>421.7</ele>
      </trkpt>
      <trkpt lat="36.70221" lon="28.1549">
        <ele>422</ele>
      </trkpt>
      <trkpt lat="36.70219" lon="28.15488">
        <ele>421.9</ele>
      </trkpt>
      <trkpt lat="36.70216" lon="28.15481">
        <ele>421.7</ele>
      </trkpt>
      <trkpt lat="36.70209" lon="28.15462">
        <ele>420.9</ele>
      </trkpt>
      <trkpt lat="36.70209" lon="28.1546">
        <ele>420.8</ele>
      </trkpt>
      <trkpt lat="36.70207" lon="28.15455">
        <ele>420.4</ele>
      </trkpt>
      <trkpt lat="36.70205" lon="28.15452">
        <ele>419.9</ele>
      </trkpt>
      <trkpt lat="36.70204" lon="28.15449">
        <ele>419.8</ele>
      </trkpt>
      <trkpt lat="36.70201" lon="28.15442">
        <ele>419</ele>
      </trkpt>
      <trkpt lat="36.70202" lon="28.15429">
        <ele>418.9</ele>
      </trkpt>
      <trkpt lat="36.70197" lon="28.15413">
        <ele>417.9</ele>
      </trkpt>
      <trkpt lat="36.70196" lon="28.15405">
        <ele>418.8</ele>
      </trkpt>
      <trkpt lat="36.70188" lon="28.15391">
        <ele>417.9</ele>
      </trkpt>
      <trkpt lat="36.70181" lon="28.15379">
        <ele>417</ele>
      </trkpt>
      <trkpt lat="36.70178" lon="28.15366">
        <ele>417.3</ele>
      </trkpt>
      <trkpt lat="36.70177" lon="28.15352">
        <ele>418.4</ele>
      </trkpt>
      <trkpt lat="36.70171" lon="28.15343">
        <ele>416.9</ele>
      </trkpt>
      <trkpt lat="36.70166" lon="28.15332">
        <ele>416.3</ele>
      </trkpt>
      <trkpt lat="36.7016" lon="28.15324">
        <ele>418.5</ele>
      </trkpt>
      <trkpt lat="36.70153" lon="28.15313">
        <ele>421.1</ele>
      </trkpt>
      <trkpt lat="36.70145" lon="28.15303">
        <ele>423.2</ele>
      </trkpt>
      <trkpt lat="36.70139" lon="28.15293">
        <ele>425</ele>
      </trkpt>
      <trkpt lat="36.70136" lon="28.15289">
        <ele>425.6</ele>
      </trkpt>
      <trkpt lat="36.70132" lon="28.15282">
        <ele>426.7</ele>
      </trkpt>
      <trkpt lat="36.70131" lon="28.1528">
        <ele>426.9</ele>
      </trkpt>
      <trkpt lat="36.70128" lon="28.15268">
        <ele>429.6</ele>
      </trkpt>
      <trkpt lat="36.70127" lon="28.15262">
        <ele>431</ele>
      </trkpt>
      <trkpt lat="36.70122" lon="28.15254">
        <ele>431.7</ele>
      </trkpt>
      <trkpt lat="36.70121" lon="28.15249">
        <ele>432.3</ele>
      </trkpt>
      <trkpt lat="36.70118" lon="28.1524">
        <ele>432.4</ele>
      </trkpt>
      <trkpt lat="36.70118" lon="28.15238">
        <ele>432.5</ele>
      </trkpt>
      <trkpt lat="36.70109" lon="28.15231">
        <ele>430.1</ele>
      </trkpt>
      <trkpt lat="36.70104" lon="28.15226">
        <ele>428.6</ele>
      </trkpt>
      <trkpt lat="36.70105" lon="28.15219">
        <ele>429.5</ele>
      </trkpt>
      <trkpt lat="36.7011" lon="28.15209">
        <ele>432.2</ele>
      </trkpt>
      <trkpt lat="36.70111" lon="28.15197">
        <ele>433.7</ele>
      </trkpt>
      <trkpt lat="36.70109" lon="28.15195">
        <ele>433.3</ele>
      </trkpt>
      <trkpt lat="36.70107" lon="28.15184">
        <ele>433.2</ele>
      </trkpt>
      <trkpt lat="36.70106" lon="28.15181">
        <ele>432.9</ele>
      </trkpt>
      <trkpt lat="36.70103" lon="28.15172">
        <ele>432.4</ele>
      </trkpt>
      <trkpt lat="36.70098" lon="28.15166">
        <ele>430.4</ele>
      </trkpt>
      <trkpt lat="36.70096" lon="28.15166">
        <ele>429.1</ele>
      </trkpt>
      <trkpt lat="36.70089" lon="28.15156">
        <ele>427.1</ele>
      </trkpt>
      <trkpt lat="36.70089" lon="28.15155">
        <ele>426.9</ele>
      </trkpt>
      <trkpt lat="36.70087" lon="28.15155">
        <ele>425.9</ele>
      </trkpt>
      <trkpt lat="36.70083" lon="28.15156">
        <ele>424.1</ele>
      </trkpt>
      <trkpt lat="36.70077" lon="28.15151">
        <ele>423.1</ele>
      </trkpt>
      <trkpt lat="36.70076" lon="28.15151">
        <ele>423</ele>
      </trkpt>
      <trkpt lat="36.70072" lon="28.15143">
        <ele>422.4</ele>
      </trkpt>
      <trkpt lat="36.70067" lon="28.15144">
        <ele>421</ele>
      </trkpt>
      <trkpt lat="36.70067" lon="28.15144">
        <ele>421</ele>
      </trkpt>
      <trkpt lat="36.70066" lon="28.15144">
        <ele>420.8</ele>
      </trkpt>
      <trkpt lat="36.70064" lon="28.15143">
        <ele>420.3</ele>
      </trkpt>
      <trkpt lat="36.70062" lon="28.15147">
        <ele>419.5</ele>
      </trkpt>
      <trkpt lat="36.70059" lon="28.15148">
        <ele>418.7</ele>
      </trkpt>
      <trkpt lat="36.70055" lon="28.1515">
        <ele>417.6</ele>
      </trkpt>
      <trkpt lat="36.70052" lon="28.15151">
        <ele>416.9</ele>
      </trkpt>
      <trkpt lat="36.70051" lon="28.1515">
        <ele>416.7</ele>
      </trkpt>
      <trkpt lat="36.70051" lon="28.1515">
        <ele>416.6</ele>
      </trkpt>
      <trkpt lat="36.70051" lon="28.15149">
        <ele>416.5</ele>
      </trkpt>
      <trkpt lat="36.70049" lon="28.15145">
        <ele>416.1</ele>
      </trkpt>
      <trkpt lat="36.70048" lon="28.15145">
        <ele>416</ele>
      </trkpt>
      <trkpt lat="36.70047" lon="28.15141">
        <ele>415.7</ele>
      </trkpt>
      <trkpt lat="36.70045" lon="28.15139">
        <ele>415.2</ele>
      </trkpt>
      <trkpt lat="36.70031" lon="28.15123">
        <ele>411.1</ele>
      </trkpt>
      <trkpt lat="36.70027" lon="28.1512">
        <ele>409.7</ele>
      </trkpt>
      <trkpt lat="36.70024" lon="28.15119">
        <ele>408.7</ele>
      </trkpt>
      <trkpt lat="36.7002" lon="28.15118">
        <ele>407.5</ele>
      </trkpt>
      <trkpt lat="36.70017" lon="28.15118">
        <ele>406.4</ele>
      </trkpt>
      <trkpt lat="36.70013" lon="28.1512">
        <ele>405.2</ele>
      </trkpt>
      <trkpt lat="36.70013" lon="28.1512">
        <ele>405.3</ele>
      </trkpt>
      <trkpt lat="36.70014" lon="28.1512">
        <ele>405.5</ele>
      </trkpt>
      <trkpt lat="36.70014" lon="28.1512">
        <ele>405.5</ele>
      </trkpt>
      <trkpt lat="36.70013" lon="28.1512">
        <ele>405.2</ele>
      </trkpt>
      <trkpt lat="36.70012" lon="28.15119">
        <ele>404.9</ele>
      </trkpt>
      <trkpt lat="36.70009" lon="28.15117">
        <ele>403.8</ele>
      </trkpt>
      <trkpt lat="36.70007" lon="28.15116">
        <ele>403</ele>
      </trkpt>
      <trkpt lat="36.70003" lon="28.15115">
        <ele>401.7</ele>
      </trkpt>
      <trkpt lat="36.7" lon="28.15113">
        <ele>400.5</ele>
      </trkpt>
      <trkpt lat="36.7" lon="28.15114">
        <ele>400.5</ele>
      </trkpt>
      <trkpt lat="36.7" lon="28.15115">
        <ele>400.7</ele>
      </trkpt>
      <trkpt lat="36.69998" lon="28.15115">
        <ele>400.5</ele>
      </trkpt>
      <trkpt lat="36.69996" lon="28.15116">
        <ele>400.1</ele>
      </trkpt>
      <trkpt lat="36.69992" lon="28.15116">
        <ele>399.6</ele>
      </trkpt>
      <trkpt lat="36.69992" lon="28.15116">
        <ele>399.5</ele>
      </trkpt>
      <trkpt lat="36.69988" lon="28.15114">
        <ele>398.8</ele>
      </trkpt>
      <trkpt lat="36.69984" lon="28.15112">
        <ele>398</ele>
      </trkpt>
      <trkpt lat="36.69981" lon="28.15112">
        <ele>397.5</ele>
      </trkpt>
      <trkpt lat="36.69979" lon="28.15113">
        <ele>397.4</ele>
      </trkpt>
      <trkpt lat="36.69975" lon="28.15113">
        <ele>396.8</ele>
      </trkpt>
      <trkpt lat="36.6997" lon="28.15113">
        <ele>395.9</ele>
      </trkpt>
      <trkpt lat="36.6997" lon="28.1511">
        <ele>395.7</ele>
      </trkpt>
      <trkpt lat="36.69969" lon="28.15109">
        <ele>395.4</ele>
      </trkpt>
      <trkpt lat="36.69969" lon="28.15108">
        <ele>395.2</ele>
      </trkpt>
      <trkpt lat="36.69967" lon="28.15109">
        <ele>395</ele>
      </trkpt>
      <trkpt lat="36.69965" lon="28.15108">
        <ele>394.5</ele>
      </trkpt>
      <trkpt lat="36.6996" lon="28.15103">
        <ele>393.1</ele>
      </trkpt>
      <trkpt lat="36.69959" lon="28.15101">
        <ele>392.6</ele>
      </trkpt>
      <trkpt lat="36.69958" lon="28.15099">
        <ele>392.1</ele>
      </trkpt>
      <trkpt lat="36.69956" lon="28.15094">
        <ele>391.1</ele>
      </trkpt>
      <trkpt lat="36.69956" lon="28.15093">
        <ele>390.9</ele>
      </trkpt>
      <trkpt lat="36.6995" lon="28.15087">
        <ele>388.9</ele>
      </trkpt>
      <trkpt lat="36.69949" lon="28.15086">
        <ele>388.6</ele>
      </trkpt>
      <trkpt lat="36.69949" lon="28.15086">
        <ele>388.5</ele>
      </trkpt>
      <trkpt lat="36.69948" lon="28.15082">
        <ele>388</ele>
      </trkpt>
      <trkpt lat="36.69949" lon="28.15081">
        <ele>388</ele>
      </trkpt>
      <trkpt lat="36.69949" lon="28.1508">
        <ele>388.1</ele>
      </trkpt>
      <trkpt lat="36.69951" lon="28.15078">
        <ele>388.4</ele>
      </trkpt>
      <trkpt lat="36.69952" lon="28.15076">
        <ele>388.5</ele>
      </trkpt>
      <trkpt lat="36.69951" lon="28.15076">
        <ele>388.2</ele>
      </trkpt>
      <trkpt lat="36.6995" lon="28.15075">
        <ele>388</ele>
      </trkpt>
      <trkpt lat="36.69947" lon="28.15073">
        <ele>387.4</ele>
      </trkpt>
      <trkpt lat="36.69946" lon="28.15072">
        <ele>387.1</ele>
      </trkpt>
      <trkpt lat="36.69944" lon="28.15068">
        <ele>386.6</ele>
      </trkpt>
      <trkpt lat="36.69941" lon="28.15066">
        <ele>385.9</ele>
      </trkpt>
      <trkpt lat="36.69939" lon="28.15064">
        <ele>385.6</ele>
      </trkpt>
      <trkpt lat="36.69938" lon="28.15063">
        <ele>385.3</ele>
      </trkpt>
      <trkpt lat="36.69936" lon="28.15058">
        <ele>384.6</ele>
      </trkpt>
      <trkpt lat="36.69936" lon="28.15057">
        <ele>384.6</ele>
      </trkpt>
      <trkpt lat="36.69936" lon="28.15054">
        <ele>384.6</ele>
      </trkpt>
      <trkpt lat="36.69934" lon="28.15052">
        <ele>384.2</ele>
      </trkpt>
      <trkpt lat="36.69935" lon="28.15049">
        <ele>384.1</ele>
      </trkpt>
      <trkpt lat="36.69932" lon="28.15047">
        <ele>383.6</ele>
      </trkpt>
      <trkpt lat="36.69932" lon="28.15045">
        <ele>383.5</ele>
      </trkpt>
      <trkpt lat="36.69932" lon="28.15041">
        <ele>383.4</ele>
      </trkpt>
      <trkpt lat="36.69933" lon="28.15038">
        <ele>383.5</ele>
      </trkpt>
      <trkpt lat="36.69935" lon="28.15034">
        <ele>383.6</ele>
      </trkpt>
      <trkpt lat="36.69935" lon="28.15033">
        <ele>383.6</ele>
      </trkpt>
      <trkpt lat="36.6993" lon="28.15026">
        <ele>382.3</ele>
      </trkpt>
      <trkpt lat="36.6993" lon="28.15027">
        <ele>382.4</ele>
      </trkpt>
      <trkpt lat="36.69929" lon="28.15023">
        <ele>382.1</ele>
      </trkpt>
      <trkpt lat="36.69929" lon="28.15015">
        <ele>381.7</ele>
      </trkpt>
      <trkpt lat="36.69928" lon="28.15011">
        <ele>381.5</ele>
      </trkpt>
      <trkpt lat="36.69929" lon="28.15003">
        <ele>381.4</ele>
      </trkpt>
      <trkpt lat="36.6993" lon="28.14996">
        <ele>381.6</ele>
      </trkpt>
      <trkpt lat="36.69932" lon="28.14995">
        <ele>381.9</ele>
      </trkpt>
      <trkpt lat="36.69932" lon="28.14993">
        <ele>382</ele>
      </trkpt>
      <trkpt lat="36.69931" lon="28.14993">
        <ele>382</ele>
      </trkpt>
      <trkpt lat="36.69931" lon="28.14995">
        <ele>381.8</ele>
      </trkpt>
      <trkpt lat="36.69931" lon="28.14996">
        <ele>381.7</ele>
      </trkpt>
      <trkpt lat="36.69931" lon="28.14996">
        <ele>381.8</ele>
      </trkpt>
      <trkpt lat="36.69932" lon="28.14992">
        <ele>382.1</ele>
      </trkpt>
      <trkpt lat="36.69934" lon="28.14989">
        <ele>382.5</ele>
      </trkpt>
      <trkpt lat="36.69936" lon="28.14984">
        <ele>383</ele>
      </trkpt>
      <trkpt lat="36.69939" lon="28.14981">
        <ele>383.4</ele>
      </trkpt>
      <trkpt lat="36.6994" lon="28.14978">
        <ele>383.6</ele>
      </trkpt>
      <trkpt lat="36.69941" lon="28.14976">
        <ele>383.8</ele>
      </trkpt>
      <trkpt lat="36.69945" lon="28.14975">
        <ele>384.1</ele>
      </trkpt>
      <trkpt lat="36.69946" lon="28.14971">
        <ele>384.3</ele>
      </trkpt>
      <trkpt lat="36.69948" lon="28.14969">
        <ele>384.4</ele>
      </trkpt>
      <trkpt lat="36.6995" lon="28.1497">
        <ele>384.6</ele>
      </trkpt>
      <trkpt lat="36.69954" lon="28.14966">
        <ele>384.8</ele>
      </trkpt>
      <trkpt lat="36.69954" lon="28.14966">
        <ele>384.8</ele>
      </trkpt>
      <trkpt lat="36.69958" lon="28.14961">
        <ele>384.8</ele>
      </trkpt>
      <trkpt lat="36.69959" lon="28.1496">
        <ele>384.9</ele>
      </trkpt>
      <trkpt lat="36.69961" lon="28.14958">
        <ele>384.8</ele>
      </trkpt>
      <trkpt lat="36.69962" lon="28.14957">
        <ele>384.8</ele>
      </trkpt>
      <trkpt lat="36.69963" lon="28.14957">
        <ele>384.9</ele>
      </trkpt>
      <trkpt lat="36.69966" lon="28.14959">
        <ele>385.1</ele>
      </trkpt>
      <trkpt lat="36.69967" lon="28.1496">
        <ele>385.2</ele>
      </trkpt>
      <trkpt lat="36.69971" lon="28.14964">
        <ele>385.7</ele>
      </trkpt>
      <trkpt lat="36.69972" lon="28.14963">
        <ele>385.7</ele>
      </trkpt>
      <trkpt lat="36.69976" lon="28.14964">
        <ele>386</ele>
      </trkpt>
      <trkpt lat="36.69981" lon="28.14966">
        <ele>386.5</ele>
      </trkpt>
      <trkpt lat="36.69985" lon="28.14964">
        <ele>386.6</ele>
      </trkpt>
      <trkpt lat="36.69986" lon="28.14964">
        <ele>386.6</ele>
      </trkpt>
      <trkpt lat="36.69995" lon="28.14973">
        <ele>388.6</ele>
      </trkpt>
      <trkpt lat="36.69997" lon="28.14973">
        <ele>388.8</ele>
      </trkpt>
      <trkpt lat="36.69997" lon="28.14972">
        <ele>388.6</ele>
      </trkpt>
      <trkpt lat="36.69998" lon="28.14972">
        <ele>388.8</ele>
      </trkpt>
      <trkpt lat="36.69999" lon="28.14971">
        <ele>388.7</ele>
      </trkpt>
      <trkpt lat="36.70001" lon="28.14971">
        <ele>389.1</ele>
      </trkpt>
      <trkpt lat="36.70001" lon="28.14971">
        <ele>389.1</ele>
      </trkpt>
      <trkpt lat="36.70003" lon="28.1497">
        <ele>389.4</ele>
      </trkpt>
      <trkpt lat="36.70003" lon="28.14969">
        <ele>389.3</ele>
      </trkpt>
      <trkpt lat="36.70001" lon="28.14965">
        <ele>387.8</ele>
      </trkpt>
      <trkpt lat="36.7" lon="28.14964">
        <ele>387.6</ele>
      </trkpt>
      <trkpt lat="36.70001" lon="28.14962">
        <ele>387.4</ele>
      </trkpt>
      <trkpt lat="36.70001" lon="28.1496">
        <ele>386.9</ele>
      </trkpt>
      <trkpt lat="36.70002" lon="28.14956">
        <ele>386.6</ele>
      </trkpt>
      <trkpt lat="36.70002" lon="28.14954">
        <ele>386.4</ele>
      </trkpt>
      <trkpt lat="36.70003" lon="28.14953">
        <ele>386.3</ele>
      </trkpt>
      <trkpt lat="36.70005" lon="28.14952">
        <ele>386.4</ele>
      </trkpt>
      <trkpt lat="36.70006" lon="28.14949">
        <ele>386.2</ele>
      </trkpt>
      <trkpt lat="36.70006" lon="28.14949">
        <ele>386.4</ele>
      </trkpt>
      <trkpt lat="36.70006" lon="28.14946">
        <ele>385.7</ele>
      </trkpt>
      <trkpt lat="36.70008" lon="28.14942">
        <ele>385.4</ele>
      </trkpt>
      <trkpt lat="36.70009" lon="28.14939">
        <ele>385</ele>
      </trkpt>
      <trkpt lat="36.7001" lon="28.14937">
        <ele>384.8</ele>
      </trkpt>
      <trkpt lat="36.70011" lon="28.14936">
        <ele>384.9</ele>
      </trkpt>
      <trkpt lat="36.70036" lon="28.149">
        <ele>383.3</ele>
      </trkpt>
      <trkpt lat="36.70035" lon="28.14897">
        <ele>382.8</ele>
      </trkpt>
      <trkpt lat="36.70035" lon="28.14891">
        <ele>382</ele>
      </trkpt>
      <trkpt lat="36.70034" lon="28.14882">
        <ele>380.8</ele>
      </trkpt>
      <trkpt lat="36.70036" lon="28.14875">
        <ele>380.1</ele>
      </trkpt>
      <trkpt lat="36.70038" lon="28.14865">
        <ele>378.7</ele>
      </trkpt>
      <trkpt lat="36.70046" lon="28.14849">
        <ele>376.2</ele>
      </trkpt>
      <trkpt lat="36.70059" lon="28.14834">
        <ele>372.5</ele>
      </trkpt>
      <trkpt lat="36.70065" lon="28.14821">
        <ele>371.6</ele>
      </trkpt>
      <trkpt lat="36.70073" lon="28.14807">
        <ele>370.5</ele>
      </trkpt>
      <trkpt lat="36.70081" lon="28.14795">
        <ele>369.4</ele>
      </trkpt>
      <trkpt lat="36.70082" lon="28.14793">
        <ele>369.1</ele>
      </trkpt>
      <trkpt lat="36.70086" lon="28.14784">
        <ele>369.7</ele>
      </trkpt>
      <trkpt lat="36.70092" lon="28.1477">
        <ele>371.6</ele>
      </trkpt>
      <trkpt lat="36.70096" lon="28.14761">
        <ele>372.7</ele>
      </trkpt>
      <trkpt lat="36.70102" lon="28.14753">
        <ele>374.3</ele>
      </trkpt>
      <trkpt lat="36.70106" lon="28.14744">
        <ele>374.2</ele>
      </trkpt>
      <trkpt lat="36.70108" lon="28.14728">
        <ele>371.9</ele>
      </trkpt>
      <trkpt lat="36.70109" lon="28.1472">
        <ele>370.6</ele>
      </trkpt>
      <trkpt lat="36.70107" lon="28.14726">
        <ele>371.5</ele>
      </trkpt>
      <trkpt lat="36.7011" lon="28.14715">
        <ele>370.1</ele>
      </trkpt>
      <trkpt lat="36.7011" lon="28.14707">
        <ele>368.9</ele>
      </trkpt>
      <trkpt lat="36.70116" lon="28.14705">
        <ele>370.6</ele>
      </trkpt>
      <trkpt lat="36.70117" lon="28.14706">
        <ele>371.2</ele>
      </trkpt>
      <trkpt lat="36.70119" lon="28.14705">
        <ele>371.9</ele>
      </trkpt>
      <trkpt lat="36.7012" lon="28.14704">
        <ele>371.9</ele>
      </trkpt>
      <trkpt lat="36.70127" lon="28.147">
        <ele>373.6</ele>
      </trkpt>
      <trkpt lat="36.70128" lon="28.14697">
        <ele>373.5</ele>
      </trkpt>
      <trkpt lat="36.70133" lon="28.14683">
        <ele>373.3</ele>
      </trkpt>
      <trkpt lat="36.70137" lon="28.14676">
        <ele>373.8</ele>
      </trkpt>
      <trkpt lat="36.7014" lon="28.14667">
        <ele>373.5</ele>
      </trkpt>
      <trkpt lat="36.70143" lon="28.14656">
        <ele>373</ele>
      </trkpt>
      <trkpt lat="36.70148" lon="28.14651">
        <ele>374.1</ele>
      </trkpt>
      <trkpt lat="36.70148" lon="28.1465">
        <ele>374.3</ele>
      </trkpt>
      <trkpt lat="36.70148" lon="28.14643">
        <ele>373.2</ele>
      </trkpt>
      <trkpt lat="36.70149" lon="28.14635">
        <ele>372.3</ele>
      </trkpt>
      <trkpt lat="36.70148" lon="28.14635">
        <ele>372.1</ele>
      </trkpt>
      <trkpt lat="36.70149" lon="28.14627">
        <ele>371.4</ele>
      </trkpt>
      <trkpt lat="36.70152" lon="28.14627">
        <ele>372.2</ele>
      </trkpt>
      <trkpt lat="36.70157" lon="28.1462">
        <ele>373.2</ele>
      </trkpt>
      <trkpt lat="36.70159" lon="28.14618">
        <ele>373.5</ele>
      </trkpt>
      <trkpt lat="36.70161" lon="28.14613">
        <ele>373.7</ele>
      </trkpt>
      <trkpt lat="36.70162" lon="28.14604">
        <ele>372.6</ele>
      </trkpt>
      <trkpt lat="36.70161" lon="28.146">
        <ele>371.4</ele>
      </trkpt>
      <trkpt lat="36.70158" lon="28.1459">
        <ele>369.2</ele>
      </trkpt>
      <trkpt lat="36.70163" lon="28.14584">
        <ele>369.7</ele>
      </trkpt>
      <trkpt lat="36.70167" lon="28.14578">
        <ele>371.8</ele>
      </trkpt>
      <trkpt lat="36.70171" lon="28.14576">
        <ele>372.9</ele>
      </trkpt>
      <trkpt lat="36.70172" lon="28.14574">
        <ele>373.2</ele>
      </trkpt>
      <trkpt lat="36.70174" lon="28.14567">
        <ele>374.4</ele>
      </trkpt>
      <trkpt lat="36.70183" lon="28.14561">
        <ele>376.5</ele>
      </trkpt>
      <trkpt lat="36.70188" lon="28.14555">
        <ele>377.8</ele>
      </trkpt>
      <trkpt lat="36.702" lon="28.14548">
        <ele>379.6</ele>
      </trkpt>
      <trkpt lat="36.70204" lon="28.14547">
        <ele>380.1</ele>
      </trkpt>
      <trkpt lat="36.70213" lon="28.14546">
        <ele>381.1</ele>
      </trkpt>
      <trkpt lat="36.70218" lon="28.14545">
        <ele>381.6</ele>
      </trkpt>
      <trkpt lat="36.70224" lon="28.14539">
        <ele>381.8</ele>
      </trkpt>
      <trkpt lat="36.70225" lon="28.14537">
        <ele>381.8</ele>
      </trkpt>
      <trkpt lat="36.70227" lon="28.14536">
        <ele>381.9</ele>
      </trkpt>
      <trkpt lat="36.70227" lon="28.1453">
        <ele>381.4</ele>
      </trkpt>
      <trkpt lat="36.70234" lon="28.14528">
        <ele>381.6</ele>
      </trkpt>
      <trkpt lat="36.70241" lon="28.1452">
        <ele>381</ele>
      </trkpt>
      <trkpt lat="36.70241" lon="28.1452">
        <ele>380.9</ele>
      </trkpt>
      <trkpt lat="36.70244" lon="28.14518">
        <ele>380.7</ele>
      </trkpt>
      <trkpt lat="36.70247" lon="28.14517">
        <ele>380.6</ele>
      </trkpt>
      <trkpt lat="36.70252" lon="28.14516">
        <ele>380.9</ele>
      </trkpt>
      <trkpt lat="36.70255" lon="28.14515">
        <ele>381.1</ele>
      </trkpt>
      <trkpt lat="36.70262" lon="28.14515">
        <ele>382.2</ele>
      </trkpt>
      <trkpt lat="36.70266" lon="28.14506">
        <ele>381.1</ele>
      </trkpt>
      <trkpt lat="36.70268" lon="28.14497">
        <ele>381.2</ele>
      </trkpt>
      <trkpt lat="36.70269" lon="28.14496">
        <ele>381.6</ele>
      </trkpt>
      <trkpt lat="36.7028" lon="28.1449">
        <ele>384.7</ele>
      </trkpt>
      <trkpt lat="36.70287" lon="28.14483">
        <ele>387.6</ele>
      </trkpt>
      <trkpt lat="36.70287" lon="28.14483">
        <ele>387.5</ele>
      </trkpt>
      <trkpt lat="36.70289" lon="28.14473">
        <ele>390.6</ele>
      </trkpt>
      <trkpt lat="36.7029" lon="28.14472">
        <ele>390.8</ele>
      </trkpt>
      <trkpt lat="36.70284" lon="28.14466">
        <ele>392.3</ele>
      </trkpt>
      <trkpt lat="36.70278" lon="28.14468">
        <ele>391.3</ele>
      </trkpt>
      <trkpt lat="36.70272" lon="28.14473">
        <ele>389.2</ele>
      </trkpt>
      <trkpt lat="36.70267" lon="28.14478">
        <ele>387.4</ele>
      </trkpt>
      <trkpt lat="36.7026" lon="28.14481">
        <ele>385.9</ele>
      </trkpt>
      <trkpt lat="36.70255" lon="28.14478">
        <ele>386.4</ele>
      </trkpt>
      <trkpt lat="36.70253" lon="28.14481">
        <ele>385.3</ele>
      </trkpt>
      <trkpt lat="36.70248" lon="28.14477">
        <ele>386.6</ele>
      </trkpt>
      <trkpt lat="36.70243" lon="28.14475">
        <ele>387.6</ele>
      </trkpt>
      <trkpt lat="36.70237" lon="28.14475">
        <ele>388.4</ele>
      </trkpt>
      <trkpt lat="36.70233" lon="28.14475">
        <ele>388.4</ele>
      </trkpt>
      <trkpt lat="36.70229" lon="28.14475">
        <ele>389</ele>
      </trkpt>
      <trkpt lat="36.70227" lon="28.14473">
        <ele>389.7</ele>
      </trkpt>
      <trkpt lat="36.70223" lon="28.14472">
        <ele>390.4</ele>
      </trkpt>
      <trkpt lat="36.7022" lon="28.14471">
        <ele>391.3</ele>
      </trkpt>
      <trkpt lat="36.70217" lon="28.1447">
        <ele>392</ele>
      </trkpt>
      <trkpt lat="36.70214" lon="28.14469">
        <ele>392.7</ele>
      </trkpt>
      <trkpt lat="36.70211" lon="28.14467">
        <ele>393.8</ele>
      </trkpt>
      <trkpt lat="36.70207" lon="28.14466">
        <ele>394.7</ele>
      </trkpt>
      <trkpt lat="36.70203" lon="28.14465">
        <ele>395.4</ele>
      </trkpt>
      <trkpt lat="36.70199" lon="28.14465">
        <ele>395.9</ele>
      </trkpt>
      <trkpt lat="36.70195" lon="28.14466">
        <ele>395.9</ele>
      </trkpt>
      <trkpt lat="36.70192" lon="28.14464">
        <ele>396.9</ele>
      </trkpt>
      <trkpt lat="36.70189" lon="28.14463">
        <ele>398.1</ele>
      </trkpt>
      <trkpt lat="36.70186" lon="28.14461">
        <ele>399.1</ele>
      </trkpt>
      <trkpt lat="36.70182" lon="28.14461">
        <ele>399.4</ele>
      </trkpt>
      <trkpt lat="36.70178" lon="28.14461">
        <ele>399.8</ele>
      </trkpt>
      <trkpt lat="36.70175" lon="28.14461">
        <ele>400.4</ele>
      </trkpt>
      <trkpt lat="36.70172" lon="28.1446">
        <ele>401.1</ele>
      </trkpt>
      <trkpt lat="36.70169" lon="28.14458">
        <ele>402.3</ele>
      </trkpt>
      <trkpt lat="36.70164" lon="28.14457">
        <ele>402.6</ele>
      </trkpt>
      <trkpt lat="36.7016" lon="28.14458">
        <ele>402</ele>
      </trkpt>
      <trkpt lat="36.70156" lon="28.14457">
        <ele>401.6</ele>
      </trkpt>
      <trkpt lat="36.70152" lon="28.14457">
        <ele>401.3</ele>
      </trkpt>
      <trkpt lat="36.70148" lon="28.14457">
        <ele>400.7</ele>
      </trkpt>
      <trkpt lat="36.70143" lon="28.14457">
        <ele>400.1</ele>
      </trkpt>
      <trkpt lat="36.70139" lon="28.14457">
        <ele>399.5</ele>
      </trkpt>
      <trkpt lat="36.70135" lon="28.14456">
        <ele>399.5</ele>
      </trkpt>
      <trkpt lat="36.70131" lon="28.14455">
        <ele>399.5</ele>
      </trkpt>
      <trkpt lat="36.70128" lon="28.14455">
        <ele>399.3</ele>
      </trkpt>
      <trkpt lat="36.70124" lon="28.14455">
        <ele>398.3</ele>
      </trkpt>
      <trkpt lat="36.7012" lon="28.14457">
        <ele>397.2</ele>
      </trkpt>
      <trkpt lat="36.70116" lon="28.14457">
        <ele>396.7</ele>
      </trkpt>
      <trkpt lat="36.70112" lon="28.14458">
        <ele>395.7</ele>
      </trkpt>
      <trkpt lat="36.70109" lon="28.14458">
        <ele>395.3</ele>
      </trkpt>
      <trkpt lat="36.70105" lon="28.14457">
        <ele>394.8</ele>
      </trkpt>
      <trkpt lat="36.70103" lon="28.14459">
        <ele>393.7</ele>
      </trkpt>
      <trkpt lat="36.70103" lon="28.14457">
        <ele>395</ele>
      </trkpt>
      <trkpt lat="36.70102" lon="28.14453">
        <ele>396.6</ele>
      </trkpt>
      <trkpt lat="36.70102" lon="28.14449">
        <ele>398.5</ele>
      </trkpt>
      <trkpt lat="36.70102" lon="28.14448">
        <ele>398.9</ele>
      </trkpt>
      <trkpt lat="36.701" lon="28.14447">
        <ele>399.2</ele>
      </trkpt>
      <trkpt lat="36.7009" lon="28.14448">
        <ele>397.3</ele>
      </trkpt>
      <trkpt lat="36.70088" lon="28.14449">
        <ele>396.8</ele>
      </trkpt>
      <trkpt lat="36.70087" lon="28.14449">
        <ele>396.6</ele>
      </trkpt>
      <trkpt lat="36.70085" lon="28.14452">
        <ele>394.8</ele>
      </trkpt>
      <trkpt lat="36.70082" lon="28.14452">
        <ele>394.2</ele>
      </trkpt>
      <trkpt lat="36.70079" lon="28.14449">
        <ele>395.5</ele>
      </trkpt>
      <trkpt lat="36.70078" lon="28.14452">
        <ele>393.8</ele>
      </trkpt>
      <trkpt lat="36.70076" lon="28.14445">
        <ele>396.7</ele>
      </trkpt>
      <trkpt lat="36.70074" lon="28.14441">
        <ele>397.9</ele>
      </trkpt>
      <trkpt lat="36.70073" lon="28.14441">
        <ele>397.7</ele>
      </trkpt>
      <trkpt lat="36.70069" lon="28.14441">
        <ele>397</ele>
      </trkpt>
      <trkpt lat="36.70065" lon="28.1444">
        <ele>396.4</ele>
      </trkpt>
      <trkpt lat="36.70065" lon="28.14439">
        <ele>396.8</ele>
      </trkpt>
      <trkpt lat="36.70066" lon="28.14433">
        <ele>400.1</ele>
      </trkpt>
      <trkpt lat="36.70066" lon="28.14431">
        <ele>400.7</ele>
      </trkpt>
      <trkpt lat="36.70065" lon="28.14424">
        <ele>404.1</ele>
      </trkpt>
      <trkpt lat="36.70064" lon="28.14415">
        <ele>406.9</ele>
      </trkpt>
      <trkpt lat="36.70064" lon="28.14415">
        <ele>406.9</ele>
      </trkpt>
      <trkpt lat="36.7006" lon="28.14411">
        <ele>405.5</ele>
      </trkpt>
      <trkpt lat="36.70058" lon="28.14405">
        <ele>404.1</ele>
      </trkpt>
      <trkpt lat="36.70055" lon="28.144">
        <ele>402.9</ele>
      </trkpt>
      <trkpt lat="36.70055" lon="28.144">
        <ele>402.8</ele>
      </trkpt>
      <trkpt lat="36.70055" lon="28.14399">
        <ele>402.6</ele>
      </trkpt>
      <trkpt lat="36.70053" lon="28.14397">
        <ele>401.9</ele>
      </trkpt>
      <trkpt lat="36.7005" lon="28.14401">
        <ele>401.6</ele>
      </trkpt>
      <trkpt lat="36.7005" lon="28.14402">
        <ele>401.7</ele>
      </trkpt>
      <trkpt lat="36.70048" lon="28.14405">
        <ele>401.8</ele>
      </trkpt>
      <trkpt lat="36.70047" lon="28.14408">
        <ele>401.7</ele>
      </trkpt>
      <trkpt lat="36.70046" lon="28.14405">
        <ele>401.2</ele>
      </trkpt>
      <trkpt lat="36.70044" lon="28.14403">
        <ele>400.3</ele>
      </trkpt>
      <trkpt lat="36.70041" lon="28.14401">
        <ele>399.2</ele>
      </trkpt>
      <trkpt lat="36.7004" lon="28.14394">
        <ele>398.2</ele>
      </trkpt>
      <trkpt lat="36.70035" lon="28.1439">
        <ele>396.4</ele>
      </trkpt>
      <trkpt lat="36.70033" lon="28.14391">
        <ele>396.1</ele>
      </trkpt>
      <trkpt lat="36.7003" lon="28.14386">
        <ele>394.7</ele>
      </trkpt>
      <trkpt lat="36.70027" lon="28.14384">
        <ele>393.6</ele>
      </trkpt>
      <trkpt lat="36.7002" lon="28.14383">
        <ele>391.7</ele>
      </trkpt>
      <trkpt lat="36.70014" lon="28.14381">
        <ele>389.8</ele>
      </trkpt>
      <trkpt lat="36.70012" lon="28.14374">
        <ele>388.5</ele>
      </trkpt>
      <trkpt lat="36.70007" lon="28.14368">
        <ele>386.4</ele>
      </trkpt>
      <trkpt lat="36.70005" lon="28.14364">
        <ele>385.4</ele>
      </trkpt>
      <trkpt lat="36.70006" lon="28.14358">
        <ele>384.7</ele>
      </trkpt>
      <trkpt lat="36.70005" lon="28.14357">
        <ele>384.6</ele>
      </trkpt>
      <trkpt lat="36.7001" lon="28.14348">
        <ele>384.5</ele>
      </trkpt>
      <trkpt lat="36.70021" lon="28.14337">
        <ele>385.9</ele>
      </trkpt>
      <trkpt lat="36.7002" lon="28.14327">
        <ele>385.2</ele>
      </trkpt>
      <trkpt lat="36.70023" lon="28.14315">
        <ele>385.6</ele>
      </trkpt>
      <trkpt lat="36.70023" lon="28.14313">
        <ele>385.5</ele>
      </trkpt>
      <trkpt lat="36.70022" lon="28.14307">
        <ele>385.2</ele>
      </trkpt>
      <trkpt lat="36.70029" lon="28.14284">
        <ele>385.7</ele>
      </trkpt>
      <trkpt lat="36.70029" lon="28.1427">
        <ele>385.2</ele>
      </trkpt>
      <trkpt lat="36.70031" lon="28.14267">
        <ele>385.2</ele>
      </trkpt>
      <trkpt lat="36.7004" lon="28.14244">
        <ele>384.2</ele>
      </trkpt>
      <trkpt lat="36.70046" lon="28.14219">
        <ele>381.7</ele>
      </trkpt>
      <trkpt lat="36.70047" lon="28.14215">
        <ele>381.3</ele>
      </trkpt>
      <trkpt lat="36.70047" lon="28.14214">
        <ele>381.2</ele>
      </trkpt>
      <trkpt lat="36.70051" lon="28.14196">
        <ele>379.5</ele>
      </trkpt>
      <trkpt lat="36.70055" lon="28.14192">
        <ele>379.5</ele>
      </trkpt>
      <trkpt lat="36.70055" lon="28.14192">
        <ele>379.5</ele>
      </trkpt>
      <trkpt lat="36.70054" lon="28.14192">
        <ele>379.4</ele>
      </trkpt>
      <trkpt lat="36.70054" lon="28.14183">
        <ele>378.5</ele>
      </trkpt>
      <trkpt lat="36.70061" lon="28.14174">
        <ele>378.5</ele>
      </trkpt>
      <trkpt lat="36.70068" lon="28.14168">
        <ele>378.9</ele>
      </trkpt>
      <trkpt lat="36.70073" lon="28.1416">
        <ele>378.1</ele>
      </trkpt>
      <trkpt lat="36.70073" lon="28.14156">
        <ele>377.1</ele>
      </trkpt>
      <trkpt lat="36.70069" lon="28.14151">
        <ele>375.2</ele>
      </trkpt>
      <trkpt lat="36.70065" lon="28.14147">
        <ele>373.8</ele>
      </trkpt>
      <trkpt lat="36.70065" lon="28.14143">
        <ele>372.8</ele>
      </trkpt>
      <trkpt lat="36.70071" lon="28.14133">
        <ele>371.5</ele>
      </trkpt>
      <trkpt lat="36.70077" lon="28.14124">
        <ele>370.8</ele>
      </trkpt>
      <trkpt lat="36.70085" lon="28.14113">
        <ele>370.6</ele>
      </trkpt>
      <trkpt lat="36.7009" lon="28.14107">
        <ele>370.6</ele>
      </trkpt>
      <trkpt lat="36.70098" lon="28.14098">
        <ele>370.5</ele>
      </trkpt>
      <trkpt lat="36.70105" lon="28.14088">
        <ele>369.3</ele>
      </trkpt>
      <trkpt lat="36.70109" lon="28.14083">
        <ele>369</ele>
      </trkpt>
      <trkpt lat="36.70113" lon="28.14083">
        <ele>369.7</ele>
      </trkpt>
      <trkpt lat="36.70114" lon="28.14083">
        <ele>369.5</ele>
      </trkpt>
      <trkpt lat="36.70114" lon="28.14081">
        <ele>369.1</ele>
      </trkpt>
      <trkpt lat="36.70118" lon="28.14076">
        <ele>368.4</ele>
      </trkpt>
      <trkpt lat="36.70121" lon="28.14071">
        <ele>367</ele>
      </trkpt>
      <trkpt lat="36.70119" lon="28.14065">
        <ele>365.1</ele>
      </trkpt>
      <trkpt lat="36.7012" lon="28.14059">
        <ele>363</ele>
      </trkpt>
      <trkpt lat="36.70125" lon="28.14055">
        <ele>362.5</ele>
      </trkpt>
      <trkpt lat="36.70129" lon="28.14049">
        <ele>360.8</ele>
      </trkpt>
      <trkpt lat="36.70131" lon="28.14044">
        <ele>359.6</ele>
      </trkpt>
      <trkpt lat="36.70134" lon="28.14036">
        <ele>356.8</ele>
      </trkpt>
      <trkpt lat="36.70134" lon="28.14035">
        <ele>356.5</ele>
      </trkpt>
      <trkpt lat="36.70135" lon="28.14026">
        <ele>353.3</ele>
      </trkpt>
      <trkpt lat="36.70138" lon="28.14025">
        <ele>353.1</ele>
      </trkpt>
      <trkpt lat="36.70142" lon="28.14026">
        <ele>353.8</ele>
      </trkpt>
      <trkpt lat="36.70142" lon="28.14026">
        <ele>353.6</ele>
      </trkpt>
      <trkpt lat="36.70141" lon="28.1402">
        <ele>351.5</ele>
      </trkpt>
      <trkpt lat="36.7014" lon="28.1402">
        <ele>351.3</ele>
      </trkpt>
      <trkpt lat="36.7014" lon="28.14016">
        <ele>349.8</ele>
      </trkpt>
      <trkpt lat="36.70141" lon="28.14013">
        <ele>348.7</ele>
      </trkpt>
      <trkpt lat="36.70141" lon="28.14011">
        <ele>348.1</ele>
      </trkpt>
      <trkpt lat="36.70146" lon="28.14006">
        <ele>346.3</ele>
      </trkpt>
      <trkpt lat="36.70152" lon="28.14006">
        <ele>346.4</ele>
      </trkpt>
      <trkpt lat="36.70152" lon="28.14004">
        <ele>345.8</ele>
      </trkpt>
      <trkpt lat="36.70152" lon="28.14004">
        <ele>345.4</ele>
      </trkpt>
      <trkpt lat="36.70151" lon="28.14001">
        <ele>344.2</ele>
      </trkpt>
      <trkpt lat="36.70151" lon="28.14">
        <ele>343.9</ele>
      </trkpt>
      <trkpt lat="36.7015" lon="28.13998">
        <ele>343.5</ele>
      </trkpt>
      <trkpt lat="36.70148" lon="28.13996">
        <ele>343</ele>
      </trkpt>
      <trkpt lat="36.70149" lon="28.13991">
        <ele>342.1</ele>
      </trkpt>
      <trkpt lat="36.7015" lon="28.13987">
        <ele>341.1</ele>
      </trkpt>
      <trkpt lat="36.70151" lon="28.13982">
        <ele>340.1</ele>
      </trkpt>
      <trkpt lat="36.70153" lon="28.13979">
        <ele>339.6</ele>
      </trkpt>
      <trkpt lat="36.70158" lon="28.13978">
        <ele>339.4</ele>
      </trkpt>
      <trkpt lat="36.70174" lon="28.13979">
        <ele>341</ele>
      </trkpt>
      <trkpt lat="36.70174" lon="28.13982">
        <ele>341.7</ele>
      </trkpt>
      <trkpt lat="36.70184" lon="28.13984">
        <ele>343.8</ele>
      </trkpt>
      <trkpt lat="36.70189" lon="28.13986">
        <ele>344.8</ele>
      </trkpt>
      <trkpt lat="36.70193" lon="28.13987">
        <ele>345.8</ele>
      </trkpt>
      <trkpt lat="36.70195" lon="28.13986">
        <ele>345.8</ele>
      </trkpt>
      <trkpt lat="36.70204" lon="28.13983">
        <ele>346.7</ele>
      </trkpt>
      <trkpt lat="36.70208" lon="28.1398">
        <ele>346.7</ele>
      </trkpt>
      <trkpt lat="36.70209" lon="28.13974">
        <ele>345.4</ele>
      </trkpt>
      <trkpt lat="36.70213" lon="28.13967">
        <ele>344.7</ele>
      </trkpt>
      <trkpt lat="36.70222" lon="28.13962">
        <ele>344.7</ele>
      </trkpt>
      <trkpt lat="36.70222" lon="28.13961">
        <ele>344.5</ele>
      </trkpt>
      <trkpt lat="36.70228" lon="28.13956">
        <ele>344.3</ele>
      </trkpt>
      <trkpt lat="36.70234" lon="28.1395">
        <ele>343.7</ele>
      </trkpt>
      <trkpt lat="36.7024" lon="28.13944">
        <ele>343.2</ele>
      </trkpt>
      <trkpt lat="36.70241" lon="28.1395">
        <ele>344.6</ele>
      </trkpt>
      <trkpt lat="36.70247" lon="28.13949">
        <ele>345.3</ele>
      </trkpt>
      <trkpt lat="36.70247" lon="28.13949">
        <ele>345.3</ele>
      </trkpt>
      <trkpt lat="36.70256" lon="28.13945">
        <ele>345.4</ele>
      </trkpt>
      <trkpt lat="36.70252" lon="28.13937">
        <ele>343</ele>
      </trkpt>
      <trkpt lat="36.70251" lon="28.13938">
        <ele>343.3</ele>
      </trkpt>
      <trkpt lat="36.70246" lon="28.13934">
        <ele>341.6</ele>
      </trkpt>
      <trkpt lat="36.70237" lon="28.1393">
        <ele>339.6</ele>
      </trkpt>
      <trkpt lat="36.70234" lon="28.13927">
        <ele>338.5</ele>
      </trkpt>
      <trkpt lat="36.70231" lon="28.13924">
        <ele>337.4</ele>
      </trkpt>
      <trkpt lat="36.70223" lon="28.13919">
        <ele>335.2</ele>
      </trkpt>
      <trkpt lat="36.70214" lon="28.13907">
        <ele>335.3</ele>
      </trkpt>
      <trkpt lat="36.70212" lon="28.13906">
        <ele>335.3</ele>
      </trkpt>
      <trkpt lat="36.70207" lon="28.13901">
        <ele>335.5</ele>
      </trkpt>
      <trkpt lat="36.70199" lon="28.13894">
        <ele>335.5</ele>
      </trkpt>
      <trkpt lat="36.70187" lon="28.13892">
        <ele>334.2</ele>
      </trkpt>
      <trkpt lat="36.70178" lon="28.13891">
        <ele>333.3</ele>
      </trkpt>
      <trkpt lat="36.70169" lon="28.13892">
        <ele>331.8</ele>
      </trkpt>
      <trkpt lat="36.70156" lon="28.13892">
        <ele>329.5</ele>
      </trkpt>
      <trkpt lat="36.70148" lon="28.13895">
        <ele>327.8</ele>
      </trkpt>
      <trkpt lat="36.70141" lon="28.13896">
        <ele>326.3</ele>
      </trkpt>
      <trkpt lat="36.70133" lon="28.13899">
        <ele>324.8</ele>
      </trkpt>
      <trkpt lat="36.70123" lon="28.13896">
        <ele>323.1</ele>
      </trkpt>
      <trkpt lat="36.70114" lon="28.13897">
        <ele>321.6</ele>
      </trkpt>
      <trkpt lat="36.70108" lon="28.13898">
        <ele>320.5</ele>
      </trkpt>
      <trkpt lat="36.70103" lon="28.13895">
        <ele>319.5</ele>
      </trkpt>
      <trkpt lat="36.70096" lon="28.13886">
        <ele>317.7</ele>
      </trkpt>
      <trkpt lat="36.70094" lon="28.13885">
        <ele>317.2</ele>
      </trkpt>
      <trkpt lat="36.7008" lon="28.13879">
        <ele>313.7</ele>
      </trkpt>
      <trkpt lat="36.70081" lon="28.13882">
        <ele>314.2</ele>
      </trkpt>
      <trkpt lat="36.70081" lon="28.1388">
        <ele>314</ele>
      </trkpt>
      <trkpt lat="36.70077" lon="28.13873">
        <ele>312.5</ele>
      </trkpt>
      <trkpt lat="36.70071" lon="28.13861">
        <ele>309.8</ele>
      </trkpt>
      <trkpt lat="36.70065" lon="28.1386">
        <ele>308</ele>
      </trkpt>
      <trkpt lat="36.70062" lon="28.13863">
        <ele>307.7</ele>
      </trkpt>
      <trkpt lat="36.70062" lon="28.13855">
        <ele>306.7</ele>
      </trkpt>
      <trkpt lat="36.70061" lon="28.13842">
        <ele>304.6</ele>
      </trkpt>
      <trkpt lat="36.7006" lon="28.13841">
        <ele>304.2</ele>
      </trkpt>
      <trkpt lat="36.70053" lon="28.13834">
        <ele>301.4</ele>
      </trkpt>
      <trkpt lat="36.70049" lon="28.1383">
        <ele>300.2</ele>
      </trkpt>
      <trkpt lat="36.70048" lon="28.13827">
        <ele>300</ele>
      </trkpt>
      <trkpt lat="36.70045" lon="28.13821">
        <ele>299</ele>
      </trkpt>
      <trkpt lat="36.7004" lon="28.13815">
        <ele>297.8</ele>
      </trkpt>
      <trkpt lat="36.70035" lon="28.13809">
        <ele>296.2</ele>
      </trkpt>
      <trkpt lat="36.70032" lon="28.13805">
        <ele>295.3</ele>
      </trkpt>
      <trkpt lat="36.70025" lon="28.13796">
        <ele>293.2</ele>
      </trkpt>
      <trkpt lat="36.70019" lon="28.13787">
        <ele>291.1</ele>
      </trkpt>
      <trkpt lat="36.70015" lon="28.13792">
        <ele>289.8</ele>
      </trkpt>
      <trkpt lat="36.70015" lon="28.138">
        <ele>289.8</ele>
      </trkpt>
      <trkpt lat="36.70013" lon="28.13793">
        <ele>289.1</ele>
      </trkpt>
      <trkpt lat="36.70006" lon="28.13783">
        <ele>286.7</ele>
      </trkpt>
      <trkpt lat="36.70003" lon="28.13775">
        <ele>285.5</ele>
      </trkpt>
      <trkpt lat="36.69997" lon="28.13771">
        <ele>284.2</ele>
      </trkpt>
      <trkpt lat="36.69991" lon="28.13765">
        <ele>283.2</ele>
      </trkpt>
      <trkpt lat="36.69985" lon="28.13764">
        <ele>282.4</ele>
      </trkpt>
      <trkpt lat="36.69979" lon="28.13757">
        <ele>280.7</ele>
      </trkpt>
      <trkpt lat="36.69975" lon="28.13747">
        <ele>278.8</ele>
      </trkpt>
      <trkpt lat="36.69974" lon="28.13742">
        <ele>278</ele>
      </trkpt>
      <trkpt lat="36.69969" lon="28.13736">
        <ele>276.2</ele>
      </trkpt>
      <trkpt lat="36.69971" lon="28.13729">
        <ele>275.8</ele>
      </trkpt>
      <trkpt lat="36.69973" lon="28.13721">
        <ele>275</ele>
      </trkpt>
      <trkpt lat="36.69973" lon="28.13719">
        <ele>274.9</ele>
      </trkpt>
      <trkpt lat="36.69976" lon="28.1371">
        <ele>274.3</ele>
      </trkpt>
      <trkpt lat="36.69975" lon="28.13701">
        <ele>273.1</ele>
      </trkpt>
      <trkpt lat="36.69979" lon="28.1369">
        <ele>272.4</ele>
      </trkpt>
      <trkpt lat="36.69982" lon="28.13683">
        <ele>272.5</ele>
      </trkpt>
      <trkpt lat="36.69982" lon="28.13682">
        <ele>272.4</ele>
      </trkpt>
      <trkpt lat="36.69985" lon="28.13674">
        <ele>272</ele>
      </trkpt>
      <trkpt lat="36.69986" lon="28.13665">
        <ele>271.3</ele>
      </trkpt>
      <trkpt lat="36.69989" lon="28.13655">
        <ele>270.9</ele>
      </trkpt>
      <trkpt lat="36.69989" lon="28.13643">
        <ele>269.5</ele>
      </trkpt>
      <trkpt lat="36.69993" lon="28.13629">
        <ele>268.6</ele>
      </trkpt>
      <trkpt lat="36.69993" lon="28.13615">
        <ele>267</ele>
      </trkpt>
      <trkpt lat="36.69996" lon="28.1361">
        <ele>266.9</ele>
      </trkpt>
      <trkpt lat="36.69999" lon="28.13601">
        <ele>266.1</ele>
      </trkpt>
      <trkpt lat="36.69997" lon="28.13584">
        <ele>263.6</ele>
      </trkpt>
      <trkpt lat="36.69997" lon="28.13566">
        <ele>263.7</ele>
      </trkpt>
      <trkpt lat="36.69997" lon="28.13564">
        <ele>263.8</ele>
      </trkpt>
      <trkpt lat="36.69995" lon="28.13551">
        <ele>263.8</ele>
      </trkpt>
      <trkpt lat="36.69992" lon="28.13543">
        <ele>263.4</ele>
      </trkpt>
      <trkpt lat="36.6998" lon="28.13529">
        <ele>262.1</ele>
      </trkpt>
      <trkpt lat="36.69975" lon="28.13525">
        <ele>261.5</ele>
      </trkpt>
      <trkpt lat="36.69969" lon="28.13518">
        <ele>260.9</ele>
      </trkpt>
      <trkpt lat="36.69966" lon="28.13517">
        <ele>260.5</ele>
      </trkpt>
      <trkpt lat="36.6996" lon="28.13509">
        <ele>259.9</ele>
      </trkpt>
      <trkpt lat="36.69957" lon="28.13509">
        <ele>259.6</ele>
      </trkpt>
      <trkpt lat="36.69949" lon="28.13508">
        <ele>258.7</ele>
      </trkpt>
      <trkpt lat="36.69949" lon="28.13507">
        <ele>258.7</ele>
      </trkpt>
      <trkpt lat="36.69948" lon="28.13506">
        <ele>258.6</ele>
      </trkpt>
      <trkpt lat="36.69947" lon="28.13503">
        <ele>258.6</ele>
      </trkpt>
      <trkpt lat="36.69946" lon="28.13504">
        <ele>258.3</ele>
      </trkpt>
      <trkpt lat="36.6994" lon="28.13503">
        <ele>257.8</ele>
      </trkpt>
      <trkpt lat="36.69939" lon="28.13502">
        <ele>257.6</ele>
      </trkpt>
      <trkpt lat="36.69937" lon="28.13492">
        <ele>257.5</ele>
      </trkpt>
      <trkpt lat="36.69938" lon="28.13483">
        <ele>257.8</ele>
      </trkpt>
      <trkpt lat="36.69939" lon="28.13479">
        <ele>258</ele>
      </trkpt>
      <trkpt lat="36.69941" lon="28.13475">
        <ele>258.3</ele>
      </trkpt>
      <trkpt lat="36.69943" lon="28.1347">
        <ele>258.6</ele>
      </trkpt>
      <trkpt lat="36.6994" lon="28.13465">
        <ele>258.3</ele>
      </trkpt>
      <trkpt lat="36.69937" lon="28.13459">
        <ele>258.1</ele>
      </trkpt>
      <trkpt lat="36.69927" lon="28.13441">
        <ele>257</ele>
      </trkpt>
      <trkpt lat="36.6992" lon="28.13432">
        <ele>256.3</ele>
      </trkpt>
      <trkpt lat="36.69918" lon="28.1343">
        <ele>256</ele>
      </trkpt>
      <trkpt lat="36.69912" lon="28.13429">
        <ele>255.8</ele>
      </trkpt>
      <trkpt lat="36.69904" lon="28.13419">
        <ele>256</ele>
      </trkpt>
      <trkpt lat="36.69901" lon="28.13412">
        <ele>255.9</ele>
      </trkpt>
      <trkpt lat="36.69892" lon="28.13408">
        <ele>255.8</ele>
      </trkpt>
      <trkpt lat="36.69878" lon="28.13392">
        <ele>255.4</ele>
      </trkpt>
      <trkpt lat="36.69869" lon="28.13382">
        <ele>255.2</ele>
      </trkpt>
      <trkpt lat="36.69858" lon="28.13366">
        <ele>255</ele>
      </trkpt>
      <trkpt lat="36.69858" lon="28.13364">
        <ele>255</ele>
      </trkpt>
      <trkpt lat="36.69856" lon="28.13363">
        <ele>255</ele>
      </trkpt>
      <trkpt lat="36.6985" lon="28.13352">
        <ele>254.9</ele>
      </trkpt>
      <trkpt lat="36.69848" lon="28.13348">
        <ele>254.9</ele>
      </trkpt>
      <trkpt lat="36.69847" lon="28.13347">
        <ele>254.9</ele>
      </trkpt>
      <trkpt lat="36.69846" lon="28.13334">
        <ele>254.7</ele>
      </trkpt>
      <trkpt lat="36.69843" lon="28.13331">
        <ele>254.5</ele>
      </trkpt>
      <trkpt lat="36.69842" lon="28.1333">
        <ele>254.4</ele>
      </trkpt>
      <trkpt lat="36.69843" lon="28.1332">
        <ele>253.3</ele>
      </trkpt>
      <trkpt lat="36.69843" lon="28.13311">
        <ele>252.3</ele>
      </trkpt>
      <trkpt lat="36.69843" lon="28.13306">
        <ele>251.6</ele>
      </trkpt>
      <trkpt lat="36.6984" lon="28.13298">
        <ele>250.7</ele>
      </trkpt>
      <trkpt lat="36.69835" lon="28.13288">
        <ele>249.6</ele>
      </trkpt>
      <trkpt lat="36.69835" lon="28.13286">
        <ele>249.4</ele>
      </trkpt>
      <trkpt lat="36.69835" lon="28.13276">
        <ele>248.2</ele>
      </trkpt>
      <trkpt lat="36.69834" lon="28.13273">
        <ele>247.8</ele>
      </trkpt>
      <trkpt lat="36.69832" lon="28.13265">
        <ele>246.9</ele>
      </trkpt>
      <trkpt lat="36.69833" lon="28.13263">
        <ele>246.6</ele>
      </trkpt>
      <trkpt lat="36.69833" lon="28.13262">
        <ele>246.4</ele>
      </trkpt>
      <trkpt lat="36.69834" lon="28.13246">
        <ele>244.8</ele>
      </trkpt>
      <trkpt lat="36.69835" lon="28.13244">
        <ele>244.7</ele>
      </trkpt>
      <trkpt lat="36.69838" lon="28.13234">
        <ele>244.2</ele>
      </trkpt>
      <trkpt lat="36.69839" lon="28.13233">
        <ele>244.2</ele>
      </trkpt>
      <trkpt lat="36.69841" lon="28.13233">
        <ele>244.2</ele>
      </trkpt>
      <trkpt lat="36.69839" lon="28.13222">
        <ele>243.5</ele>
      </trkpt>
      <trkpt lat="36.69838" lon="28.13216">
        <ele>243.1</ele>
      </trkpt>
      <trkpt lat="36.69834" lon="28.13214">
        <ele>242.9</ele>
      </trkpt>
      <trkpt lat="36.69822" lon="28.13211">
        <ele>243</ele>
      </trkpt>
      <trkpt lat="36.69811" lon="28.13204">
        <ele>242.9</ele>
      </trkpt>
      <trkpt lat="36.69813" lon="28.1319">
        <ele>242</ele>
      </trkpt>
      <trkpt lat="36.6981" lon="28.13187">
        <ele>241.8</ele>
      </trkpt>
      <trkpt lat="36.69807" lon="28.13178">
        <ele>241.3</ele>
      </trkpt>
      <trkpt lat="36.69809" lon="28.13171">
        <ele>240.9</ele>
      </trkpt>
      <trkpt lat="36.69813" lon="28.13164">
        <ele>240.5</ele>
      </trkpt>
      <trkpt lat="36.69818" lon="28.13155">
        <ele>240.5</ele>
      </trkpt>
      <trkpt lat="36.69828" lon="28.13145">
        <ele>240.6</ele>
      </trkpt>
      <trkpt lat="36.69836" lon="28.13132">
        <ele>241</ele>
      </trkpt>
      <trkpt lat="36.6984" lon="28.1312">
        <ele>241.6</ele>
      </trkpt>
      <trkpt lat="36.69835" lon="28.1311">
        <ele>241.4</ele>
      </trkpt>
      <trkpt lat="36.69829" lon="28.13099">
        <ele>241.5</ele>
      </trkpt>
      <trkpt lat="36.69828" lon="28.13081">
        <ele>241.8</ele>
      </trkpt>
      <trkpt lat="36.69828" lon="28.1308">
        <ele>241.9</ele>
      </trkpt>
      <trkpt lat="36.69827" lon="28.1308">
        <ele>241.9</ele>
      </trkpt>
      <trkpt lat="36.69827" lon="28.13079">
        <ele>241.9</ele>
      </trkpt>
      <trkpt lat="36.69855" lon="28.13054">
        <ele>244.6</ele>
      </trkpt>
      <trkpt lat="36.69855" lon="28.1305">
        <ele>244.7</ele>
      </trkpt>
      <trkpt lat="36.69855" lon="28.13044">
        <ele>244.8</ele>
      </trkpt>
      <trkpt lat="36.69856" lon="28.1304">
        <ele>245.1</ele>
      </trkpt>
      <trkpt lat="36.69855" lon="28.13039">
        <ele>245</ele>
      </trkpt>
      <trkpt lat="36.69851" lon="28.13026">
        <ele>245.1</ele>
      </trkpt>
      <trkpt lat="36.69846" lon="28.13011">
        <ele>245</ele>
      </trkpt>
      <trkpt lat="36.69845" lon="28.13007">
        <ele>245</ele>
      </trkpt>
      <trkpt lat="36.69841" lon="28.12995">
        <ele>244.8</ele>
      </trkpt>
      <trkpt lat="36.69837" lon="28.12982">
        <ele>244.4</ele>
      </trkpt>
      <trkpt lat="36.69834" lon="28.12963">
        <ele>244.1</ele>
      </trkpt>
      <trkpt lat="36.69829" lon="28.1295">
        <ele>243.7</ele>
      </trkpt>
      <trkpt lat="36.69824" lon="28.12946">
        <ele>243.3</ele>
      </trkpt>
      <trkpt lat="36.69813" lon="28.12937">
        <ele>242.4</ele>
      </trkpt>
      <trkpt lat="36.69804" lon="28.12925">
        <ele>241.6</ele>
      </trkpt>
      <trkpt lat="36.69798" lon="28.1292">
        <ele>241</ele>
      </trkpt>
      <trkpt lat="36.69795" lon="28.12914">
        <ele>240.8</ele>
      </trkpt>
      <trkpt lat="36.69789" lon="28.12898">
        <ele>240.4</ele>
      </trkpt>
      <trkpt lat="36.69786" lon="28.12882">
        <ele>240.2</ele>
      </trkpt>
      <trkpt lat="36.69785" lon="28.12869">
        <ele>240.2</ele>
      </trkpt>
      <trkpt lat="36.69781" lon="28.12853">
        <ele>239.9</ele>
      </trkpt>
      <trkpt lat="36.69776" lon="28.12834">
        <ele>239.5</ele>
      </trkpt>
      <trkpt lat="36.69774" lon="28.12831">
        <ele>239.4</ele>
      </trkpt>
      <trkpt lat="36.69761" lon="28.1282">
        <ele>238.4</ele>
      </trkpt>
      <trkpt lat="36.6975" lon="28.12808">
        <ele>237.6</ele>
      </trkpt>
      <trkpt lat="36.69738" lon="28.12801">
        <ele>238.5</ele>
      </trkpt>
      <trkpt lat="36.6973" lon="28.12797">
        <ele>239.1</ele>
      </trkpt>
      <trkpt lat="36.6973" lon="28.12797">
        <ele>239.1</ele>
      </trkpt>
      <trkpt lat="36.69727" lon="28.12791">
        <ele>239.6</ele>
      </trkpt>
      <trkpt lat="36.69719" lon="28.12785">
        <ele>240.4</ele>
      </trkpt>
      <trkpt lat="36.69722" lon="28.12765">
        <ele>241.1</ele>
      </trkpt>
      <trkpt lat="36.6972" lon="28.12736">
        <ele>242.2</ele>
      </trkpt>
      <trkpt lat="36.69708" lon="28.12698">
        <ele>243.3</ele>
      </trkpt>
      <trkpt lat="36.69688" lon="28.12659">
        <ele>243</ele>
      </trkpt>
      <trkpt lat="36.69685" lon="28.12615">
        <ele>241.6</ele>
      </trkpt>
      <trkpt lat="36.69685" lon="28.12586">
        <ele>240.7</ele>
      </trkpt>
      <trkpt lat="36.69683" lon="28.1258">
        <ele>240.2</ele>
      </trkpt>
      <trkpt lat="36.69675" lon="28.12561">
        <ele>237.8</ele>
      </trkpt>
      <trkpt lat="36.69666" lon="28.12531">
        <ele>234.9</ele>
      </trkpt>
      <trkpt lat="36.6964" lon="28.12492">
        <ele>232.9</ele>
      </trkpt>
      <trkpt lat="36.69626" lon="28.12466">
        <ele>232.4</ele>
      </trkpt>
      <trkpt lat="36.69617" lon="28.12397">
        <ele>231.5</ele>
      </trkpt>
      <trkpt lat="36.69618" lon="28.1234">
        <ele>231.8</ele>
      </trkpt>
      <trkpt lat="36.6963" lon="28.12276">
        <ele>234</ele>
      </trkpt>
      <trkpt lat="36.69634" lon="28.12259">
        <ele>234.5</ele>
      </trkpt>
      <trkpt lat="36.69633" lon="28.12231">
        <ele>235.9</ele>
      </trkpt>
      <trkpt lat="36.69625" lon="28.12163">
        <ele>240.4</ele>
      </trkpt>
      <trkpt lat="36.69626" lon="28.12088">
        <ele>238.1</ele>
      </trkpt>
      <trkpt lat="36.69633" lon="28.12051">
        <ele>236.1</ele>
      </trkpt>
      <trkpt lat="36.69629" lon="28.12005">
        <ele>233.9</ele>
      </trkpt>
      <trkpt lat="36.69646" lon="28.11966">
        <ele>231.3</ele>
      </trkpt>
      <trkpt lat="36.69653" lon="28.11961">
        <ele>230.5</ele>
      </trkpt>
      <trkpt lat="36.69681" lon="28.11906">
        <ele>231.6</ele>
      </trkpt>
      <trkpt lat="36.69676" lon="28.11871">
        <ele>225.9</ele>
      </trkpt>
      <trkpt lat="36.69665" lon="28.11849">
        <ele>219.8</ele>
      </trkpt>
      <trkpt lat="36.69636" lon="28.1177">
        <ele>212.8</ele>
      </trkpt>
      <trkpt lat="36.69626" lon="28.1174">
        <ele>209.6</ele>
      </trkpt>
      <trkpt lat="36.6961" lon="28.11698">
        <ele>206.6</ele>
      </trkpt>
      <trkpt lat="36.69594" lon="28.11651">
        <ele>204.1</ele>
      </trkpt>
      <trkpt lat="36.69584" lon="28.11632">
        <ele>203.4</ele>
      </trkpt>
      <trkpt lat="36.69565" lon="28.11605">
        <ele>202.6</ele>
      </trkpt>
      <trkpt lat="36.69567" lon="28.11603">
        <ele>202.7</ele>
      </trkpt>
      <trkpt lat="36.69565" lon="28.11592">
        <ele>202.8</ele>
      </trkpt>
      <trkpt lat="36.6956" lon="28.11576">
        <ele>202.3</ele>
      </trkpt>
      <trkpt lat="36.69562" lon="28.11572">
        <ele>202.2</ele>
      </trkpt>
      <trkpt lat="36.69567" lon="28.11564">
        <ele>202</ele>
      </trkpt>
      <trkpt lat="36.69568" lon="28.11556">
        <ele>201.7</ele>
      </trkpt>
      <trkpt lat="36.69569" lon="28.11544">
        <ele>201.2</ele>
      </trkpt>
      <trkpt lat="36.6957" lon="28.11532">
        <ele>200.6</ele>
      </trkpt>
      <trkpt lat="36.69577" lon="28.11523">
        <ele>200.3</ele>
      </trkpt>
      <trkpt lat="36.69581" lon="28.11516">
        <ele>200</ele>
      </trkpt>
      <trkpt lat="36.69588" lon="28.11509">
        <ele>200</ele>
      </trkpt>
      <trkpt lat="36.69589" lon="28.11503">
        <ele>199.7</ele>
      </trkpt>
      <trkpt lat="36.69591" lon="28.11495">
        <ele>199</ele>
      </trkpt>
      <trkpt lat="36.69589" lon="28.1149">
        <ele>197.9</ele>
      </trkpt>
      <trkpt lat="36.69594" lon="28.11484">
        <ele>197.5</ele>
      </trkpt>
      <trkpt lat="36.69595" lon="28.11479">
        <ele>196.7</ele>
      </trkpt>
      <trkpt lat="36.69596" lon="28.1147">
        <ele>195.5</ele>
      </trkpt>
      <trkpt lat="36.69595" lon="28.11467">
        <ele>194.9</ele>
      </trkpt>
      <trkpt lat="36.69592" lon="28.11457">
        <ele>192.7</ele>
      </trkpt>
      <trkpt lat="36.6959" lon="28.11452">
        <ele>191.4</ele>
      </trkpt>
      <trkpt lat="36.69589" lon="28.11443">
        <ele>189.7</ele>
      </trkpt>
      <trkpt lat="36.69588" lon="28.11441">
        <ele>189.2</ele>
      </trkpt>
      <trkpt lat="36.6959" lon="28.11427">
        <ele>187.2</ele>
      </trkpt>
      <trkpt lat="36.69588" lon="28.11419">
        <ele>185.4</ele>
      </trkpt>
      <trkpt lat="36.69591" lon="28.1141">
        <ele>184.8</ele>
      </trkpt>
      <trkpt lat="36.69592" lon="28.11402">
        <ele>183.7</ele>
      </trkpt>
      <trkpt lat="36.69591" lon="28.11397">
        <ele>182.8</ele>
      </trkpt>
      <trkpt lat="36.69593" lon="28.11388">
        <ele>182</ele>
      </trkpt>
      <trkpt lat="36.69593" lon="28.11383">
        <ele>181.4</ele>
      </trkpt>
      <trkpt lat="36.69591" lon="28.11377">
        <ele>179.9</ele>
      </trkpt>
      <trkpt lat="36.69591" lon="28.11373">
        <ele>179.5</ele>
      </trkpt>
      <trkpt lat="36.69586" lon="28.11369">
        <ele>177.7</ele>
      </trkpt>
      <trkpt lat="36.69588" lon="28.11361">
        <ele>177</ele>
      </trkpt>
      <trkpt lat="36.69588" lon="28.11353">
        <ele>176.1</ele>
      </trkpt>
      <trkpt lat="36.6959" lon="28.11345">
        <ele>175.3</ele>
      </trkpt>
      <trkpt lat="36.69587" lon="28.11335">
        <ele>173.2</ele>
      </trkpt>
      <trkpt lat="36.69583" lon="28.11325">
        <ele>171.1</ele>
      </trkpt>
      <trkpt lat="36.69583" lon="28.11315">
        <ele>170.2</ele>
      </trkpt>
      <trkpt lat="36.6958" lon="28.11305">
        <ele>168.7</ele>
      </trkpt>
      <trkpt lat="36.69577" lon="28.11292">
        <ele>166.9</ele>
      </trkpt>
      <trkpt lat="36.69572" lon="28.11285">
        <ele>165.3</ele>
      </trkpt>
      <trkpt lat="36.69571" lon="28.11275">
        <ele>163.9</ele>
      </trkpt>
      <trkpt lat="36.6957" lon="28.11264">
        <ele>162.6</ele>
      </trkpt>
      <trkpt lat="36.69572" lon="28.11252">
        <ele>161.6</ele>
      </trkpt>
      <trkpt lat="36.69572" lon="28.1125">
        <ele>161.4</ele>
      </trkpt>
      <trkpt lat="36.69574" lon="28.11241">
        <ele>160.6</ele>
      </trkpt>
      <trkpt lat="36.69578" lon="28.11228">
        <ele>159.1</ele>
      </trkpt>
      <trkpt lat="36.69579" lon="28.11224">
        <ele>158.6</ele>
      </trkpt>
      <trkpt lat="36.69581" lon="28.11213">
        <ele>157.2</ele>
      </trkpt>
      <trkpt lat="36.69583" lon="28.11206">
        <ele>156.6</ele>
      </trkpt>
      <trkpt lat="36.6958" lon="28.112">
        <ele>154.6</ele>
      </trkpt>
      <trkpt lat="36.6958" lon="28.11188">
        <ele>152.8</ele>
      </trkpt>
      <trkpt lat="36.6958" lon="28.11183">
        <ele>152.1</ele>
      </trkpt>
      <trkpt lat="36.69582" lon="28.11173">
        <ele>150.8</ele>
      </trkpt>
      <trkpt lat="36.69583" lon="28.11162">
        <ele>149.7</ele>
      </trkpt>
      <trkpt lat="36.69584" lon="28.11153">
        <ele>149.4</ele>
      </trkpt>
      <trkpt lat="36.69582" lon="28.11143">
        <ele>148.4</ele>
      </trkpt>
      <trkpt lat="36.69579" lon="28.11135">
        <ele>147.3</ele>
      </trkpt>
      <trkpt lat="36.69578" lon="28.11135">
        <ele>147</ele>
      </trkpt>
      <trkpt lat="36.69573" lon="28.11124">
        <ele>144.6</ele>
      </trkpt>
      <trkpt lat="36.6957" lon="28.11119">
        <ele>143.5</ele>
      </trkpt>
      <trkpt lat="36.69568" lon="28.11113">
        <ele>142.3</ele>
      </trkpt>
      <trkpt lat="36.69565" lon="28.11103">
        <ele>140.7</ele>
      </trkpt>
      <trkpt lat="36.69564" lon="28.11096">
        <ele>139.6</ele>
      </trkpt>
      <trkpt lat="36.69562" lon="28.11086">
        <ele>138.2</ele>
      </trkpt>
      <trkpt lat="36.6956" lon="28.11076">
        <ele>136.3</ele>
      </trkpt>
      <trkpt lat="36.69559" lon="28.11069">
        <ele>135.2</ele>
      </trkpt>
      <trkpt lat="36.69557" lon="28.11058">
        <ele>133.5</ele>
      </trkpt>
      <trkpt lat="36.69557" lon="28.11046">
        <ele>132.1</ele>
      </trkpt>
      <trkpt lat="36.69558" lon="28.11036">
        <ele>131.6</ele>
      </trkpt>
      <trkpt lat="36.69559" lon="28.11033">
        <ele>131.5</ele>
      </trkpt>
      <trkpt lat="36.69559" lon="28.11022">
        <ele>130.3</ele>
      </trkpt>
      <trkpt lat="36.69557" lon="28.11021">
        <ele>129.6</ele>
      </trkpt>
      <trkpt lat="36.69559" lon="28.11013">
        <ele>129.5</ele>
      </trkpt>
      <trkpt lat="36.69562" lon="28.11005">
        <ele>129.5</ele>
      </trkpt>
      <trkpt lat="36.69567" lon="28.11001">
        <ele>131</ele>
      </trkpt>
      <trkpt lat="36.69575" lon="28.10994">
        <ele>132.7</ele>
      </trkpt>
      <trkpt lat="36.69582" lon="28.10989">
        <ele>133.9</ele>
      </trkpt>
      <trkpt lat="36.69586" lon="28.10983">
        <ele>134.4</ele>
      </trkpt>
      <trkpt lat="36.69588" lon="28.10977">
        <ele>133.4</ele>
      </trkpt>
      <trkpt lat="36.69586" lon="28.10972">
        <ele>131.5</ele>
      </trkpt>
      <trkpt lat="36.69586" lon="28.10971">
        <ele>131.4</ele>
      </trkpt>
      <trkpt lat="36.69587" lon="28.10968">
        <ele>131.2</ele>
      </trkpt>
      <trkpt lat="36.69582" lon="28.10964">
        <ele>128.4</ele>
      </trkpt>
      <trkpt lat="36.69584" lon="28.10962">
        <ele>128.8</ele>
      </trkpt>
      <trkpt lat="36.69588" lon="28.10953">
        <ele>128.1</ele>
      </trkpt>
      <trkpt lat="36.69594" lon="28.10943">
        <ele>128.1</ele>
      </trkpt>
      <trkpt lat="36.69597" lon="28.10936">
        <ele>127.7</ele>
      </trkpt>
      <trkpt lat="36.696" lon="28.10923">
        <ele>125.9</ele>
      </trkpt>
      <trkpt lat="36.69601" lon="28.10912">
        <ele>124.2</ele>
      </trkpt>
      <trkpt lat="36.69602" lon="28.10904">
        <ele>122.9</ele>
      </trkpt>
      <trkpt lat="36.69602" lon="28.10898">
        <ele>122.2</ele>
      </trkpt>
      <trkpt lat="36.69603" lon="28.10887">
        <ele>120.4</ele>
      </trkpt>
      <trkpt lat="36.69606" lon="28.10874">
        <ele>119.2</ele>
      </trkpt>
      <trkpt lat="36.6961" lon="28.10864">
        <ele>118.8</ele>
      </trkpt>
      <trkpt lat="36.69612" lon="28.10853">
        <ele>117.7</ele>
      </trkpt>
      <trkpt lat="36.69611" lon="28.10844">
        <ele>115.6</ele>
      </trkpt>
      <trkpt lat="36.69609" lon="28.10839">
        <ele>114</ele>
      </trkpt>
      <trkpt lat="36.69612" lon="28.10831">
        <ele>113.7</ele>
      </trkpt>
      <trkpt lat="36.69616" lon="28.10822">
        <ele>113.3</ele>
      </trkpt>
      <trkpt lat="36.69618" lon="28.1081">
        <ele>111.6</ele>
      </trkpt>
      <trkpt lat="36.69618" lon="28.10801">
        <ele>109.8</ele>
      </trkpt>
      <trkpt lat="36.69618" lon="28.10789">
        <ele>107.5</ele>
      </trkpt>
      <trkpt lat="36.69618" lon="28.10775">
        <ele>104.8</ele>
      </trkpt>
      <trkpt lat="36.69617" lon="28.10771">
        <ele>103.3</ele>
      </trkpt>
      <trkpt lat="36.69617" lon="28.10764">
        <ele>101.9</ele>
      </trkpt>
      <trkpt lat="36.69617" lon="28.10753">
        <ele>99.8</ele>
      </trkpt>
      <trkpt lat="36.6962" lon="28.10746">
        <ele>99.6</ele>
      </trkpt>
      <trkpt lat="36.69621" lon="28.10732">
        <ele>98.5</ele>
      </trkpt>
      <trkpt lat="36.69624" lon="28.10725">
        <ele>98.4</ele>
      </trkpt>
      <trkpt lat="36.69627" lon="28.10717">
        <ele>98.3</ele>
      </trkpt>
      <trkpt lat="36.69627" lon="28.10706">
        <ele>97.2</ele>
      </trkpt>
      <trkpt lat="36.69628" lon="28.10694">
        <ele>96.2</ele>
      </trkpt>
      <trkpt lat="36.69627" lon="28.1068">
        <ele>94.5</ele>
      </trkpt>
      <trkpt lat="36.69629" lon="28.10667">
        <ele>93.5</ele>
      </trkpt>
      <trkpt lat="36.69634" lon="28.10654">
        <ele>93.6</ele>
      </trkpt>
      <trkpt lat="36.69638" lon="28.10641">
        <ele>93.3</ele>
      </trkpt>
      <trkpt lat="36.69644" lon="28.10632">
        <ele>93.7</ele>
      </trkpt>
      <trkpt lat="36.69653" lon="28.10617">
        <ele>94.1</ele>
      </trkpt>
      <trkpt lat="36.69658" lon="28.10605">
        <ele>93.9</ele>
      </trkpt>
      <trkpt lat="36.69662" lon="28.10597">
        <ele>93.6</ele>
      </trkpt>
      <trkpt lat="36.69664" lon="28.10587">
        <ele>93</ele>
      </trkpt>
      <trkpt lat="36.69667" lon="28.1057">
        <ele>91.7</ele>
      </trkpt>
      <trkpt lat="36.6967" lon="28.10557">
        <ele>91</ele>
      </trkpt>
      <trkpt lat="36.69673" lon="28.10544">
        <ele>90.2</ele>
      </trkpt>
      <trkpt lat="36.69676" lon="28.10533">
        <ele>89.8</ele>
      </trkpt>
      <trkpt lat="36.69674" lon="28.10524">
        <ele>88.6</ele>
      </trkpt>
      <trkpt lat="36.69674" lon="28.10515">
        <ele>87.7</ele>
      </trkpt>
      <trkpt lat="36.69672" lon="28.10504">
        <ele>86.4</ele>
      </trkpt>
      <trkpt lat="36.69669" lon="28.10493">
        <ele>84.6</ele>
      </trkpt>
      <trkpt lat="36.69668" lon="28.10481">
        <ele>82.9</ele>
      </trkpt>
      <trkpt lat="36.6967" lon="28.10468">
        <ele>81.6</ele>
      </trkpt>
      <trkpt lat="36.69672" lon="28.10455">
        <ele>80.2</ele>
      </trkpt>
      <trkpt lat="36.69673" lon="28.10446">
        <ele>79.3</ele>
      </trkpt>
      <trkpt lat="36.69672" lon="28.10438">
        <ele>78.1</ele>
      </trkpt>
      <trkpt lat="36.69671" lon="28.1043">
        <ele>77.1</ele>
      </trkpt>
      <trkpt lat="36.69666" lon="28.10418">
        <ele>75.1</ele>
      </trkpt>
      <trkpt lat="36.69663" lon="28.10404">
        <ele>74.6</ele>
      </trkpt>
      <trkpt lat="36.69667" lon="28.10389">
        <ele>74.3</ele>
      </trkpt>
      <trkpt lat="36.69667" lon="28.10377">
        <ele>74.1</ele>
      </trkpt>
      <trkpt lat="36.69668" lon="28.10367">
        <ele>73.9</ele>
      </trkpt>
      <trkpt lat="36.6967" lon="28.10354">
        <ele>73.7</ele>
      </trkpt>
      <trkpt lat="36.69673" lon="28.10344">
        <ele>73.6</ele>
      </trkpt>
      <trkpt lat="36.69677" lon="28.10335">
        <ele>73.5</ele>
      </trkpt>
      <trkpt lat="36.6968" lon="28.10329">
        <ele>73.6</ele>
      </trkpt>
      <trkpt lat="36.69686" lon="28.10319">
        <ele>73.7</ele>
      </trkpt>
      <trkpt lat="36.69691" lon="28.1031">
        <ele>73.7</ele>
      </trkpt>
      <trkpt lat="36.69702" lon="28.10292">
        <ele>73.8</ele>
      </trkpt>
      <trkpt lat="36.69708" lon="28.10282">
        <ele>73.7</ele>
      </trkpt>
      <trkpt lat="36.6972" lon="28.10273">
        <ele>73.9</ele>
      </trkpt>
      <trkpt lat="36.69725" lon="28.10264">
        <ele>73.8</ele>
      </trkpt>
      <trkpt lat="36.69732" lon="28.10255">
        <ele>73.7</ele>
      </trkpt>
      <trkpt lat="36.69738" lon="28.10244">
        <ele>73.3</ele>
      </trkpt>
      <trkpt lat="36.6974" lon="28.10234">
        <ele>72.7</ele>
      </trkpt>
      <trkpt lat="36.69744" lon="28.10223">
        <ele>72</ele>
      </trkpt>
      <trkpt lat="36.6975" lon="28.10214">
        <ele>71.4</ele>
      </trkpt>
      <trkpt lat="36.69757" lon="28.10204">
        <ele>70.4</ele>
      </trkpt>
      <trkpt lat="36.6976" lon="28.10189">
        <ele>69.2</ele>
      </trkpt>
      <trkpt lat="36.69761" lon="28.10184">
        <ele>68.9</ele>
      </trkpt>
      <trkpt lat="36.69766" lon="28.10172">
        <ele>67.8</ele>
      </trkpt>
      <trkpt lat="36.6977" lon="28.10169">
        <ele>67.4</ele>
      </trkpt>
      <trkpt lat="36.69772" lon="28.10161">
        <ele>67.3</ele>
      </trkpt>
      <trkpt lat="36.69778" lon="28.10154">
        <ele>67.1</ele>
      </trkpt>
      <trkpt lat="36.69785" lon="28.10143">
        <ele>66.9</ele>
      </trkpt>
      <trkpt lat="36.69804" lon="28.1015">
        <ele>66.1</ele>
      </trkpt>
      <trkpt lat="36.69804" lon="28.1015">
        <ele>66.1</ele>
      </trkpt>
      <trkpt lat="36.69826" lon="28.10152">
        <ele>65.3</ele>
      </trkpt>
      <trkpt lat="36.69859" lon="28.10154">
        <ele>64.4</ele>
      </trkpt>
      <trkpt lat="36.69887" lon="28.10145">
        <ele>63.9</ele>
      </trkpt>
      <trkpt lat="36.69911" lon="28.1013">
        <ele>63.5</ele>
      </trkpt>
      <trkpt lat="36.69919" lon="28.10126">
        <ele>63.4</ele>
      </trkpt>
      <trkpt lat="36.69919" lon="28.10126">
        <ele>63.4</ele>
      </trkpt>
      <trkpt lat="36.6992" lon="28.10124">
        <ele>63.4</ele>
      </trkpt>
      <trkpt lat="36.69922" lon="28.10125">
        <ele>63.3</ele>
      </trkpt>
      <trkpt lat="36.6993" lon="28.10124">
        <ele>63.1</ele>
      </trkpt>
      <trkpt lat="36.6996" lon="28.10125">
        <ele>62.2</ele>
      </trkpt>
      <trkpt lat="36.69986" lon="28.10132">
        <ele>61.5</ele>
      </trkpt>
      <trkpt lat="36.69996" lon="28.10132">
        <ele>61.3</ele>
      </trkpt>
      <trkpt lat="36.69996" lon="28.1013">
        <ele>61.2</ele>
      </trkpt>
      <trkpt lat="36.69997" lon="28.10122">
        <ele>61</ele>
      </trkpt>
      <trkpt lat="36.70004" lon="28.1012">
        <ele>60.8</ele>
      </trkpt>
      <trkpt lat="36.70003" lon="28.10114">
        <ele>60.6</ele>
      </trkpt>
      <trkpt lat="36.70002" lon="28.10106">
        <ele>60.5</ele>
      </trkpt>
      <trkpt lat="36.69998" lon="28.101">
        <ele>60.5</ele>
      </trkpt>
      <trkpt lat="36.69995" lon="28.10098">
        <ele>60.6</ele>
      </trkpt>
      <trkpt lat="36.69993" lon="28.10091">
        <ele>60.5</ele>
      </trkpt>
      <trkpt lat="36.69992" lon="28.10084">
        <ele>60.4</ele>
      </trkpt>
      <trkpt lat="36.6999" lon="28.10074">
        <ele>60.5</ele>
      </trkpt>
      <trkpt lat="36.6999" lon="28.10065">
        <ele>60.6</ele>
      </trkpt>
      <trkpt lat="36.69989" lon="28.10062">
        <ele>60.6</ele>
      </trkpt>
      <trkpt lat="36.69992" lon="28.10061">
        <ele>60.4</ele>
      </trkpt>
      <trkpt lat="36.70005" lon="28.1006">
        <ele>59.5</ele>
      </trkpt>
      <trkpt lat="36.70007" lon="28.10059">
        <ele>59.2</ele>
      </trkpt>
      <trkpt lat="36.70012" lon="28.1006">
        <ele>58.7</ele>
      </trkpt>
      <trkpt lat="36.7001" lon="28.10053">
        <ele>58.7</ele>
      </trkpt>
      <trkpt lat="36.7001" lon="28.10048">
        <ele>58.6</ele>
      </trkpt>
      <trkpt lat="36.70013" lon="28.10042">
        <ele>58</ele>
      </trkpt>
      <trkpt lat="36.70014" lon="28.10042">
        <ele>57.8</ele>
      </trkpt>
      <trkpt lat="36.70017" lon="28.1004">
        <ele>57.4</ele>
      </trkpt>
      <trkpt lat="36.70024" lon="28.10047">
        <ele>56.6</ele>
      </trkpt>
      <trkpt lat="36.70028" lon="28.10051">
        <ele>56.2</ele>
      </trkpt>
      <trkpt lat="36.70031" lon="28.10051">
        <ele>55.9</ele>
      </trkpt>
      <trkpt lat="36.70037" lon="28.10054">
        <ele>55.4</ele>
      </trkpt>
      <trkpt lat="36.70042" lon="28.10048">
        <ele>54.1</ele>
      </trkpt>
      <trkpt lat="36.70045" lon="28.10046">
        <ele>53.5</ele>
      </trkpt>
      <trkpt lat="36.70046" lon="28.10038">
        <ele>52.5</ele>
      </trkpt>
      <trkpt lat="36.70051" lon="28.1004">
        <ele>51.8</ele>
      </trkpt>
      <trkpt lat="36.70055" lon="28.10035">
        <ele>50.4</ele>
      </trkpt>
      <trkpt lat="36.70056" lon="28.10035">
        <ele>50.2</ele>
      </trkpt>
      <trkpt lat="36.70061" lon="28.1003">
        <ele>48.7</ele>
      </trkpt>
      <trkpt lat="36.7006" lon="28.10026">
        <ele>48.3</ele>
      </trkpt>
      <trkpt lat="36.70066" lon="28.10027">
        <ele>47.1</ele>
      </trkpt>
      <trkpt lat="36.7007" lon="28.10023">
        <ele>45.6</ele>
      </trkpt>
      <trkpt lat="36.70076" lon="28.1002">
        <ele>43.8</ele>
      </trkpt>
      <trkpt lat="36.70079" lon="28.10018">
        <ele>42.9</ele>
      </trkpt>
      <trkpt lat="36.7008" lon="28.10014">
        <ele>41.9</ele>
      </trkpt>
      <trkpt lat="36.70078" lon="28.1001">
        <ele>41.5</ele>
      </trkpt>
      <trkpt lat="36.7008" lon="28.10005">
        <ele>39.9</ele>
      </trkpt>
      <trkpt lat="36.70081" lon="28.10001">
        <ele>38.7</ele>
      </trkpt>
      <trkpt lat="36.70082" lon="28.09996">
        <ele>38.6</ele>
      </trkpt>
      <trkpt lat="36.70082" lon="28.09994">
        <ele>38.8</ele>
      </trkpt>
      <trkpt lat="36.70088" lon="28.09993">
        <ele>37.9</ele>
      </trkpt>
      <trkpt lat="36.70091" lon="28.09997">
        <ele>37.1</ele>
      </trkpt>
      <trkpt lat="36.70089" lon="28.09995">
        <ele>37.6</ele>
      </trkpt>
      <trkpt lat="36.70089" lon="28.09995">
        <ele>37.6</ele>
      </trkpt>
      <trkpt lat="36.70101" lon="28.09992">
        <ele>35.9</ele>
      </trkpt>
      <trkpt lat="36.70102" lon="28.09992">
        <ele>35.7</ele>
      </trkpt>
      <trkpt lat="36.70104" lon="28.09993">
        <ele>35.3</ele>
      </trkpt>
      <trkpt lat="36.70106" lon="28.09996">
        <ele>35</ele>
      </trkpt>
      <trkpt lat="36.70107" lon="28.09997">
        <ele>34.7</ele>
      </trkpt>
      <trkpt lat="36.70109" lon="28.09998">
        <ele>34.4</ele>
      </trkpt>
      <trkpt lat="36.70112" lon="28.09999">
        <ele>33.9</ele>
      </trkpt>
      <trkpt lat="36.70114" lon="28.1">
        <ele>33.7</ele>
      </trkpt>
      <trkpt lat="36.70116" lon="28.10002">
        <ele>33.7</ele>
      </trkpt>
      <trkpt lat="36.70118" lon="28.10003">
        <ele>33.5</ele>
      </trkpt>
      <trkpt lat="36.70121" lon="28.10003">
        <ele>33.2</ele>
      </trkpt>
      <trkpt lat="36.70123" lon="28.10003">
        <ele>32.9</ele>
      </trkpt>
      <trkpt lat="36.70126" lon="28.10004">
        <ele>32.8</ele>
      </trkpt>
      <trkpt lat="36.70128" lon="28.10004">
        <ele>32.4</ele>
      </trkpt>
      <trkpt lat="36.70131" lon="28.10004">
        <ele>32</ele>
      </trkpt>
      <trkpt lat="36.70135" lon="28.10004">
        <ele>31.5</ele>
      </trkpt>
      <trkpt lat="36.70138" lon="28.10004">
        <ele>31</ele>
      </trkpt>
      <trkpt lat="36.70141" lon="28.10005">
        <ele>30.8</ele>
      </trkpt>
      <trkpt lat="36.70145" lon="28.10005">
        <ele>30.4</ele>
      </trkpt>
      <trkpt lat="36.70147" lon="28.10006">
        <ele>30</ele>
      </trkpt>
      <trkpt lat="36.7015" lon="28.10005">
        <ele>29.4</ele>
      </trkpt>
      <trkpt lat="36.70154" lon="28.10004">
        <ele>28.8</ele>
      </trkpt>
      <trkpt lat="36.70157" lon="28.10005">
        <ele>28.5</ele>
      </trkpt>
      <trkpt lat="36.7016" lon="28.10005">
        <ele>28.2</ele>
      </trkpt>
      <trkpt lat="36.70163" lon="28.10006">
        <ele>27.9</ele>
      </trkpt>
      <trkpt lat="36.70166" lon="28.10006">
        <ele>27.3</ele>
      </trkpt>
      <trkpt lat="36.70169" lon="28.10007">
        <ele>27.2</ele>
      </trkpt>
      <trkpt lat="36.70172" lon="28.10007">
        <ele>26.8</ele>
      </trkpt>
      <trkpt lat="36.70174" lon="28.10006">
        <ele>26.4</ele>
      </trkpt>
      <trkpt lat="36.70177" lon="28.10005">
        <ele>25.9</ele>
      </trkpt>
      <trkpt lat="36.7018" lon="28.10005">
        <ele>25.4</ele>
      </trkpt>
      <trkpt lat="36.70183" lon="28.10006">
        <ele>25.2</ele>
      </trkpt>
      <trkpt lat="36.70186" lon="28.10006">
        <ele>24.9</ele>
      </trkpt>
      <trkpt lat="36.70188" lon="28.10007">
        <ele>24.6</ele>
      </trkpt>
      <trkpt lat="36.70191" lon="28.10006">
        <ele>24.2</ele>
      </trkpt>
      <trkpt lat="36.70193" lon="28.10006">
        <ele>23.9</ele>
      </trkpt>
      <trkpt lat="36.70196" lon="28.10006">
        <ele>23.4</ele>
      </trkpt>
      <trkpt lat="36.70199" lon="28.10006">
        <ele>22.9</ele>
      </trkpt>
      <trkpt lat="36.70202" lon="28.10005">
        <ele>22.5</ele>
      </trkpt>
      <trkpt lat="36.70204" lon="28.10005">
        <ele>22.1</ele>
      </trkpt>
      <trkpt lat="36.70207" lon="28.10005">
        <ele>21.7</ele>
      </trkpt>
      <trkpt lat="36.70209" lon="28.10004">
        <ele>21.3</ele>
      </trkpt>
      <trkpt lat="36.70212" lon="28.10004">
        <ele>20.9</ele>
      </trkpt>
      <trkpt lat="36.70214" lon="28.10005">
        <ele>20.7</ele>
      </trkpt>
      <trkpt lat="36.70217" lon="28.10006">
        <ele>20.5</ele>
      </trkpt>
      <trkpt lat="36.7022" lon="28.10007">
        <ele>20.4</ele>
      </trkpt>
      <trkpt lat="36.70222" lon="28.10007">
        <ele>20.2</ele>
      </trkpt>
      <trkpt lat="36.70225" lon="28.10008">
        <ele>19.9</ele>
      </trkpt>
      <trkpt lat="36.70227" lon="28.10009">
        <ele>19.8</ele>
      </trkpt>
      <trkpt lat="36.70229" lon="28.1001">
        <ele>19.8</ele>
      </trkpt>
      <trkpt lat="36.70232" lon="28.10011">
        <ele>19.8</ele>
      </trkpt>
      <trkpt lat="36.70234" lon="28.10012">
        <ele>19.6</ele>
      </trkpt>
      <trkpt lat="36.70237" lon="28.10014">
        <ele>19.6</ele>
      </trkpt>
      <trkpt lat="36.7024" lon="28.10014">
        <ele>19.4</ele>
      </trkpt>
      <trkpt lat="36.70242" lon="28.10015">
        <ele>19.1</ele>
      </trkpt>
      <trkpt lat="36.70244" lon="28.10015">
        <ele>19</ele>
      </trkpt>
      <trkpt lat="36.70246" lon="28.10017">
        <ele>19</ele>
      </trkpt>
      <trkpt lat="36.70248" lon="28.10019">
        <ele>19.1</ele>
      </trkpt>
      <trkpt lat="36.7025" lon="28.1002">
        <ele>19.1</ele>
      </trkpt>
      <trkpt lat="36.70253" lon="28.10021">
        <ele>19.1</ele>
      </trkpt>
      <trkpt lat="36.70255" lon="28.10023">
        <ele>19.2</ele>
      </trkpt>
      <trkpt lat="36.70258" lon="28.10023">
        <ele>19.1</ele>
      </trkpt>
      <trkpt lat="36.70261" lon="28.10025">
        <ele>19.2</ele>
      </trkpt>
      <trkpt lat="36.70263" lon="28.10026">
        <ele>19.2</ele>
      </trkpt>
      <trkpt lat="36.70267" lon="28.10028">
        <ele>19.3</ele>
      </trkpt>
      <trkpt lat="36.7027" lon="28.1003">
        <ele>19.3</ele>
      </trkpt>
      <trkpt lat="36.70273" lon="28.10031">
        <ele>19.3</ele>
      </trkpt>
      <trkpt lat="36.70276" lon="28.10032">
        <ele>19.1</ele>
      </trkpt>
      <trkpt lat="36.70278" lon="28.10033">
        <ele>19.1</ele>
      </trkpt>
      <trkpt lat="36.7028" lon="28.10033">
        <ele>18.9</ele>
      </trkpt>
      <trkpt lat="36.70282" lon="28.10033">
        <ele>18.8</ele>
      </trkpt>
      <trkpt lat="36.70284" lon="28.10035">
        <ele>18.9</ele>
      </trkpt>
      <trkpt lat="36.70287" lon="28.10035">
        <ele>18.6</ele>
      </trkpt>
      <trkpt lat="36.70289" lon="28.10036">
        <ele>18.7</ele>
      </trkpt>
      <trkpt lat="36.70291" lon="28.10037">
        <ele>18.5</ele>
      </trkpt>
      <trkpt lat="36.70294" lon="28.10037">
        <ele>18.3</ele>
      </trkpt>
      <trkpt lat="36.70296" lon="28.10037">
        <ele>18.1</ele>
      </trkpt>
      <trkpt lat="36.70299" lon="28.10037">
        <ele>17.8</ele>
      </trkpt>
      <trkpt lat="36.70301" lon="28.10038">
        <ele>17.6</ele>
      </trkpt>
      <trkpt lat="36.70304" lon="28.10038">
        <ele>17.4</ele>
      </trkpt>
      <trkpt lat="36.70307" lon="28.10038">
        <ele>17.2</ele>
      </trkpt>
      <trkpt lat="36.7031" lon="28.10039">
        <ele>17</ele>
      </trkpt>
      <trkpt lat="36.70313" lon="28.1004">
        <ele>16.9</ele>
      </trkpt>
      <trkpt lat="36.70316" lon="28.1004">
        <ele>16.5</ele>
      </trkpt>
      <trkpt lat="36.70319" lon="28.1004">
        <ele>16.3</ele>
      </trkpt>
      <trkpt lat="36.70321" lon="28.1004">
        <ele>16.1</ele>
      </trkpt>
      <trkpt lat="36.70325" lon="28.1004">
        <ele>15.6</ele>
      </trkpt>
      <trkpt lat="36.70328" lon="28.10039">
        <ele>15.3</ele>
      </trkpt>
      <trkpt lat="36.7033" lon="28.10039">
        <ele>15</ele>
      </trkpt>
      <trkpt lat="36.70333" lon="28.10039">
        <ele>14.8</ele>
      </trkpt>
      <trkpt lat="36.70335" lon="28.10039">
        <ele>14.5</ele>
      </trkpt>
      <trkpt lat="36.70338" lon="28.1004">
        <ele>14.3</ele>
      </trkpt>
      <trkpt lat="36.7034" lon="28.1004">
        <ele>14.2</ele>
      </trkpt>
      <trkpt lat="36.70343" lon="28.10041">
        <ele>14</ele>
      </trkpt>
      <trkpt lat="36.70345" lon="28.10041">
        <ele>13.8</ele>
      </trkpt>
      <trkpt lat="36.70348" lon="28.10041">
        <ele>13.5</ele>
      </trkpt>
      <trkpt lat="36.70351" lon="28.1004">
        <ele>13.2</ele>
      </trkpt>
      <trkpt lat="36.70353" lon="28.10041">
        <ele>13</ele>
      </trkpt>
      <trkpt lat="36.70357" lon="28.10041">
        <ele>12.7</ele>
      </trkpt>
      <trkpt lat="36.7036" lon="28.10042">
        <ele>12.4</ele>
      </trkpt>
      <trkpt lat="36.70362" lon="28.10041">
        <ele>12.2</ele>
      </trkpt>
      <trkpt lat="36.70365" lon="28.10042">
        <ele>12</ele>
      </trkpt>
      <trkpt lat="36.70368" lon="28.10041">
        <ele>11.6</ele>
      </trkpt>
      <trkpt lat="36.70371" lon="28.1004">
        <ele>11.3</ele>
      </trkpt>
      <trkpt lat="36.70374" lon="28.1004">
        <ele>10.9</ele>
      </trkpt>
      <trkpt lat="36.70377" lon="28.10039">
        <ele>10.6</ele>
      </trkpt>
      <trkpt lat="36.70379" lon="28.10039">
        <ele>10.4</ele>
      </trkpt>
      <trkpt lat="36.70382" lon="28.1004">
        <ele>10.2</ele>
      </trkpt>
      <trkpt lat="36.70384" lon="28.1004">
        <ele>10</ele>
      </trkpt>
      <trkpt lat="36.70386" lon="28.10042">
        <ele>10</ele>
      </trkpt>
      <trkpt lat="36.70388" lon="28.10044">
        <ele>9.9</ele>
      </trkpt>
      <trkpt lat="36.7039" lon="28.10044">
        <ele>9.7</ele>
      </trkpt>
      <trkpt lat="36.70393" lon="28.10046">
        <ele>9.5</ele>
      </trkpt>
      <trkpt lat="36.70395" lon="28.10047">
        <ele>9.3</ele>
      </trkpt>
      <trkpt lat="36.70397" lon="28.10049">
        <ele>9.2</ele>
      </trkpt>
      <trkpt lat="36.70399" lon="28.1005">
        <ele>9.1</ele>
      </trkpt>
      <trkpt lat="36.70402" lon="28.10053">
        <ele>8.9</ele>
      </trkpt>
      <trkpt lat="36.70405" lon="28.10054">
        <ele>8.6</ele>
      </trkpt>
      <trkpt lat="36.70406" lon="28.10056">
        <ele>8.5</ele>
      </trkpt>
      <trkpt lat="36.70408" lon="28.10057">
        <ele>8.3</ele>
      </trkpt>
      <trkpt lat="36.7041" lon="28.10059">
        <ele>8.2</ele>
      </trkpt>
      <trkpt lat="36.70412" lon="28.10061">
        <ele>8</ele>
      </trkpt>
      <trkpt lat="36.70415" lon="28.10062">
        <ele>7.7</ele>
      </trkpt>
      <trkpt lat="36.70416" lon="28.10065">
        <ele>7.6</ele>
      </trkpt>
      <trkpt lat="36.70424" lon="28.10048">
        <ele>6.9</ele>
      </trkpt>
      <trkpt lat="36.70434" lon="28.09998">
        <ele>5.4</ele>
      </trkpt>
      <trkpt lat="36.70432" lon="28.09952">
        <ele>5.3</ele>
      </trkpt>
      <trkpt lat="36.70429" lon="28.09921">
        <ele>5.4</ele>
      </trkpt>
      <trkpt lat="36.70425" lon="28.09871">
        <ele>6.1</ele>
      </trkpt>
      <trkpt lat="36.70437" lon="28.09831">
        <ele>6</ele>
      </trkpt>
      <trkpt lat="36.70442" lon="28.09823">
        <ele>6.3</ele>
      </trkpt>
      <trkpt lat="36.70487" lon="28.0975">
        <ele>5.1</ele>
      </trkpt>
      <trkpt lat="36.70503" lon="28.09708">
        <ele>3.5</ele>
      </trkpt>
      <trkpt lat="36.70525" lon="28.09652">
        <ele>3.8</ele>
      </trkpt>
      <trkpt lat="36.7054" lon="28.09614">
        <ele>3.4</ele>
      </trkpt>
      <trkpt lat="36.70567" lon="28.09582">
        <ele>3</ele>
      </trkpt>
      <trkpt lat="36.70578" lon="28.09542">
        <ele>2.7</ele>
      </trkpt>
      <trkpt lat="36.70582" lon="28.0952">
        <ele>2.4</ele>
      </trkpt>
      <trkpt lat="36.70586" lon="28.09502">
        <ele>1.97</ele>
      </trkpt>
      <trkpt lat="36.70586" lon="28.09502">
        <ele>1.97</ele>
      </trkpt>
      <trkpt lat="36.70586" lon="28.09502">
        <ele>1.97</ele>
      </trkpt>
      <trkpt lat="36.70586" lon="28.09502">
        <ele>1.97</ele>
      </trkpt>
      <trkpt lat="36.70586" lon="28.09502">
        <ele>1.97</ele>
      </trkpt>
      <trkpt lat="36.70586" lon="28.09502">
        <ele>1.97</ele>
      </trkpt>
      <trkpt lat="36.70586" lon="28.09502">
        <ele>1.97</ele>
      </trkpt>
      <trkpt lat="36.70586" lon="28.09502">
        <ele>1.97</ele>
      </trkpt>
      <trkpt lat="36.70586" lon="28.09502">
        <ele>1.97</ele>
      </trkpt>
      <trkpt lat="36.70586" lon="28.09502">
        <ele>1.97</ele>
      </trkpt>
      <trkpt lat="36.70586" lon="28.09502">
        <ele>1.97</ele>
      </trkpt>
      <trkpt lat="36.70586" lon="28.09502">
        <ele>1.97</ele>
      </trkpt>
      <trkpt lat="36.70586" lon="28.09502">
        <ele>1.97</ele>
      </trkpt>
      <trkpt lat="36.70586" lon="28.09502">
        <ele>1.97</ele>
      </trkpt>
      <trkpt lat="36.70586" lon="28.09502">
        <ele>1.97</ele>
      </trkpt>
      <trkpt lat="36.70586" lon="28.09502">
        <ele>1.97</ele>
      </trkpt>
      <trkpt lat="36.70641" lon="28.09502">
        <ele>1.31</ele>
      </trkpt>
      <trkpt lat="36.70662" lon="28.09505">
        <ele>1.06</ele>
      </trkpt>
      <trkpt lat="36.70676" lon="28.09499">
        <ele>1.2</ele>
      </trkpt>
      <trkpt lat="36.70683" lon="28.09491">
        <ele>1.6</ele>
      </trkpt>
      <trkpt lat="36.70684" lon="28.09487">
        <ele>1.8</ele>
      </trkpt>
      <trkpt lat="36.70697" lon="28.09492">
        <ele>1.9</ele>
      </trkpt>
      <trkpt lat="36.70714" lon="28.09521">
        <ele>1.8</ele>
      </trkpt>
      <trkpt lat="36.70725" lon="28.09545">
        <ele>1.6</ele>
      </trkpt>
      <trkpt lat="36.70731" lon="28.09551">
        <ele>1.6</ele>
      </trkpt>
      <trkpt lat="36.7074" lon="28.09558">
        <ele>1.5</ele>
      </trkpt>
      <trkpt lat="36.70754" lon="28.09568">
        <ele>1.4</ele>
      </trkpt>
      <trkpt lat="36.70771" lon="28.09575">
        <ele>1.2</ele>
      </trkpt>
      <trkpt lat="36.70787" lon="28.09572">
        <ele>1.3</ele>
      </trkpt>
      <trkpt lat="36.70803" lon="28.09565">
        <ele>1.4</ele>
      </trkpt>
      <trkpt lat="36.70814" lon="28.09554">
        <ele>1.7</ele>
      </trkpt>
      <trkpt lat="36.7082" lon="28.09531">
        <ele>2.3</ele>
      </trkpt>
      <trkpt lat="36.70818" lon="28.09503">
        <ele>2.9</ele>
      </trkpt>
      <trkpt lat="36.70813" lon="28.09471">
        <ele>2.7</ele>
      </trkpt>
      <trkpt lat="36.70812" lon="28.09468">
        <ele>2.6</ele>
      </trkpt>
      <trkpt lat="36.70795" lon="28.09437">
        <ele>2.2</ele>
      </trkpt>
      <trkpt lat="36.70787" lon="28.09416">
        <ele>2</ele>
      </trkpt>
      <trkpt lat="36.7078" lon="28.09403">
        <ele>2</ele>
      </trkpt>
      <trkpt lat="36.70778" lon="28.09402">
        <ele>2</ele>
      </trkpt>
      <trkpt lat="36.70766" lon="28.09399">
        <ele>2</ele>
      </trkpt>
      <trkpt lat="36.70759" lon="28.094">
        <ele>2</ele>
      </trkpt>
      <trkpt lat="36.70756" lon="28.09399">
        <ele>2</ele>
      </trkpt>
      <trkpt lat="36.70749" lon="28.09401">
        <ele>2.4</ele>
      </trkpt>
      <trkpt lat="36.70748" lon="28.09401">
        <ele>2.4</ele>
      </trkpt>
      <trkpt lat="36.70744" lon="28.09405">
        <ele>2.4</ele>
      </trkpt>
      <trkpt lat="36.70725" lon="28.09404">
        <ele>2.8</ele>
      </trkpt>
      <trkpt lat="36.7071" lon="28.09402">
        <ele>3.2</ele>
      </trkpt>
      <trkpt lat="36.707" lon="28.09393">
        <ele>3.4</ele>
      </trkpt>
      <trkpt lat="36.70697" lon="28.09376">
        <ele>3.6</ele>
      </trkpt>
      <trkpt lat="36.70695" lon="28.09356">
        <ele>3.8</ele>
      </trkpt>
      <trkpt lat="36.707" lon="28.09331">
        <ele>4</ele>
      </trkpt>
      <trkpt lat="36.70702" lon="28.09325">
        <ele>3.9</ele>
      </trkpt>
      <trkpt lat="36.70702" lon="28.09326">
        <ele>3.9</ele>
      </trkpt>
      <trkpt lat="36.70705" lon="28.09317">
        <ele>3.8</ele>
      </trkpt>
      <trkpt lat="36.70711" lon="28.09298">
        <ele>3.5</ele>
      </trkpt>
      <trkpt lat="36.70714" lon="28.09278">
        <ele>3.2</ele>
      </trkpt>
      <trkpt lat="36.70718" lon="28.09257">
        <ele>2.7</ele>
      </trkpt>
      <trkpt lat="36.70724" lon="28.09233">
        <ele>2.1</ele>
      </trkpt>
      <trkpt lat="36.70726" lon="28.09211">
        <ele>1.9</ele>
      </trkpt>
      <trkpt lat="36.70725" lon="28.09192">
        <ele>1.8</ele>
      </trkpt>
      <trkpt lat="36.70721" lon="28.09175">
        <ele>1.8</ele>
      </trkpt>
      <trkpt lat="36.70715" lon="28.09159">
        <ele>1.9</ele>
      </trkpt>
      <trkpt lat="36.7071" lon="28.09143">
        <ele>2.1</ele>
      </trkpt>
      <trkpt lat="36.70708" lon="28.09125">
        <ele>2.3</ele>
      </trkpt>
      <trkpt lat="36.70707" lon="28.09108">
        <ele>2.4</ele>
      </trkpt>
      <trkpt lat="36.70711" lon="28.09089">
        <ele>2.4</ele>
      </trkpt>
      <trkpt lat="36.70728" lon="28.09072">
        <ele>2.5</ele>
      </trkpt>
      <trkpt lat="36.70745" lon="28.09057">
        <ele>2.2</ele>
      </trkpt>
      <trkpt lat="36.70756" lon="28.09038">
        <ele>2</ele>
      </trkpt>
      <trkpt lat="36.70759" lon="28.09019">
        <ele>1.9</ele>
      </trkpt>
      <trkpt lat="36.70763" lon="28.09001">
        <ele>1.8</ele>
      </trkpt>
      <trkpt lat="36.70763" lon="28.08999">
        <ele>1.9</ele>
      </trkpt>
      <trkpt lat="36.70767" lon="28.08993">
        <ele>2.1</ele>
      </trkpt>
      <trkpt lat="36.70773" lon="28.08986">
        <ele>2.3</ele>
      </trkpt>
      <trkpt lat="36.7078" lon="28.08979">
        <ele>2.4</ele>
      </trkpt>
      <trkpt lat="36.70786" lon="28.08975">
        <ele>2.4</ele>
      </trkpt>
      <trkpt lat="36.70795" lon="28.08969">
        <ele>2.3</ele>
      </trkpt>
      <trkpt lat="36.70805" lon="28.08963">
        <ele>2.3</ele>
      </trkpt>
      <trkpt lat="36.70808" lon="28.08957">
        <ele>2.3</ele>
      </trkpt>
      <trkpt lat="36.70813" lon="28.08947">
        <ele>2.3</ele>
      </trkpt>
      <trkpt lat="36.70811" lon="28.08941">
        <ele>2.6</ele>
      </trkpt>
      <trkpt lat="36.70813" lon="28.08932">
        <ele>2.7</ele>
      </trkpt>
      <trkpt lat="36.70821" lon="28.08921">
        <ele>2.5</ele>
      </trkpt>
      <trkpt lat="36.70829" lon="28.08916">
        <ele>2.3</ele>
      </trkpt>
      <trkpt lat="36.70833" lon="28.08913">
        <ele>2.3</ele>
      </trkpt>
      <trkpt lat="36.70837" lon="28.08909">
        <ele>2.5</ele>
      </trkpt>
      <trkpt lat="36.70845" lon="28.08905">
        <ele>2.8</ele>
      </trkpt>
      <trkpt lat="36.70848" lon="28.08904">
        <ele>2.9</ele>
      </trkpt>
      <trkpt lat="36.70857" lon="28.08903">
        <ele>2.9</ele>
      </trkpt>
      <trkpt lat="36.70868" lon="28.08905">
        <ele>2.7</ele>
      </trkpt>
      <trkpt lat="36.70877" lon="28.08905">
        <ele>2.7</ele>
      </trkpt>
      <trkpt lat="36.70886" lon="28.08908">
        <ele>2.5</ele>
      </trkpt>
      <trkpt lat="36.70887" lon="28.08906">
        <ele>2.6</ele>
      </trkpt>
      <trkpt lat="36.70894" lon="28.08902">
        <ele>2.8</ele>
      </trkpt>
      <trkpt lat="36.70905" lon="28.08902">
        <ele>2.8</ele>
      </trkpt>
      <trkpt lat="36.70911" lon="28.089">
        <ele>2.8</ele>
      </trkpt>
      <trkpt lat="36.70922" lon="28.08899">
        <ele>2.8</ele>
      </trkpt>
      <trkpt lat="36.70925" lon="28.089">
        <ele>2.8</ele>
      </trkpt>
      <trkpt lat="36.70927" lon="28.08901">
        <ele>2.7</ele>
      </trkpt>
      <trkpt lat="36.70934" lon="28.08901">
        <ele>2.7</ele>
      </trkpt>
      <trkpt lat="36.70944" lon="28.08899">
        <ele>2.8</ele>
      </trkpt>
      <trkpt lat="36.70953" lon="28.08896">
        <ele>2.9</ele>
      </trkpt>
      <trkpt lat="36.70961" lon="28.08893">
        <ele>3</ele>
      </trkpt>
      <trkpt lat="36.70971" lon="28.08887">
        <ele>3.2</ele>
      </trkpt>
      <trkpt lat="36.7098" lon="28.08881">
        <ele>3.4</ele>
      </trkpt>
      <trkpt lat="36.70986" lon="28.08877">
        <ele>3.5</ele>
      </trkpt>
      <trkpt lat="36.70987" lon="28.08876">
        <ele>3.5</ele>
      </trkpt>
      <trkpt lat="36.70991" lon="28.08874">
        <ele>3.6</ele>
      </trkpt>
      <trkpt lat="36.70991" lon="28.08876">
        <ele>3.5</ele>
      </trkpt>
      <trkpt lat="36.70996" lon="28.08868">
        <ele>3.8</ele>
      </trkpt>
      <trkpt lat="36.70998" lon="28.08865">
        <ele>3.9</ele>
      </trkpt>
      <trkpt lat="36.70997" lon="28.08862">
        <ele>4</ele>
      </trkpt>
      <trkpt lat="36.70997" lon="28.0886">
        <ele>4.1</ele>
      </trkpt>
      <trkpt lat="36.70998" lon="28.0886">
        <ele>4.1</ele>
      </trkpt>
      <trkpt lat="36.70996" lon="28.08859">
        <ele>4.1</ele>
      </trkpt>
      <trkpt lat="36.70989" lon="28.08851">
        <ele>4.5</ele>
      </trkpt>
      <trkpt lat="36.70984" lon="28.08843">
        <ele>4.8</ele>
      </trkpt>
      <trkpt lat="36.70977" lon="28.08833">
        <ele>5.3</ele>
      </trkpt>
      <trkpt lat="36.70976" lon="28.08832">
        <ele>5.4</ele>
      </trkpt>
      <trkpt lat="36.70975" lon="28.08819">
        <ele>6.4</ele>
      </trkpt>
      <trkpt lat="36.70974" lon="28.08811">
        <ele>6.9</ele>
      </trkpt>
      <trkpt lat="36.70975" lon="28.08805">
        <ele>7.3</ele>
      </trkpt>
      <trkpt lat="36.70979" lon="28.08801">
        <ele>7.5</ele>
      </trkpt>
      <trkpt lat="36.70988" lon="28.08798">
        <ele>7.5</ele>
      </trkpt>
      <trkpt lat="36.70997" lon="28.08793">
        <ele>7.5</ele>
      </trkpt>
      <trkpt lat="36.71001" lon="28.08789">
        <ele>7.6</ele>
      </trkpt>
      <trkpt lat="36.7101" lon="28.08782">
        <ele>7.6</ele>
      </trkpt>
      <trkpt lat="36.71018" lon="28.08775">
        <ele>7.4</ele>
      </trkpt>
      <trkpt lat="36.71026" lon="28.08765">
        <ele>7.3</ele>
      </trkpt>
      <trkpt lat="36.71034" lon="28.08756">
        <ele>7</ele>
      </trkpt>
      <trkpt lat="36.71043" lon="28.08749">
        <ele>6.5</ele>
      </trkpt>
      <trkpt lat="36.71054" lon="28.08742">
        <ele>6.5</ele>
      </trkpt>
      <trkpt lat="36.71068" lon="28.08735">
        <ele>6.3</ele>
      </trkpt>
      <trkpt lat="36.71071" lon="28.08733">
        <ele>6.3</ele>
      </trkpt>
      <trkpt lat="36.7108" lon="28.08728">
        <ele>6.4</ele>
      </trkpt>
      <trkpt lat="36.71081" lon="28.08728">
        <ele>6.3</ele>
      </trkpt>
      <trkpt lat="36.71087" lon="28.08726">
        <ele>6.3</ele>
      </trkpt>
      <trkpt lat="36.71091" lon="28.08725">
        <ele>6.3</ele>
      </trkpt>
      <trkpt lat="36.71099" lon="28.08721">
        <ele>6.7</ele>
      </trkpt>
      <trkpt lat="36.71109" lon="28.08717">
        <ele>6.8</ele>
      </trkpt>
      <trkpt lat="36.71119" lon="28.08712">
        <ele>6.9</ele>
      </trkpt>
      <trkpt lat="36.71121" lon="28.08712">
        <ele>6.9</ele>
      </trkpt>
      <trkpt lat="36.71131" lon="28.08707">
        <ele>6.9</ele>
      </trkpt>
      <trkpt lat="36.71133" lon="28.08706">
        <ele>6.8</ele>
      </trkpt>
      <trkpt lat="36.71146" lon="28.087">
        <ele>6.6</ele>
      </trkpt>
      <trkpt lat="36.71157" lon="28.08693">
        <ele>6.3</ele>
      </trkpt>
      <trkpt lat="36.71165" lon="28.08691">
        <ele>5.9</ele>
      </trkpt>
      <trkpt lat="36.71175" lon="28.08688">
        <ele>6.1</ele>
      </trkpt>
      <trkpt lat="36.71176" lon="28.08685">
        <ele>6.2</ele>
      </trkpt>
      <trkpt lat="36.71179" lon="28.08684">
        <ele>6.4</ele>
      </trkpt>
      <trkpt lat="36.71191" lon="28.08681">
        <ele>6.7</ele>
      </trkpt>
      <trkpt lat="36.71204" lon="28.08678">
        <ele>7</ele>
      </trkpt>
      <trkpt lat="36.71217" lon="28.08674">
        <ele>7.3</ele>
      </trkpt>
      <trkpt lat="36.71228" lon="28.08669">
        <ele>7.7</ele>
      </trkpt>
      <trkpt lat="36.71239" lon="28.08665">
        <ele>8</ele>
      </trkpt>
      <trkpt lat="36.71252" lon="28.08667">
        <ele>8.1</ele>
      </trkpt>
      <trkpt lat="36.71264" lon="28.08667">
        <ele>8.6</ele>
      </trkpt>
      <trkpt lat="36.71266" lon="28.08668">
        <ele>8.7</ele>
      </trkpt>
      <trkpt lat="36.71282" lon="28.08671">
        <ele>9.4</ele>
      </trkpt>
      <trkpt lat="36.71283" lon="28.08672">
        <ele>9.4</ele>
      </trkpt>
      <trkpt lat="36.71292" lon="28.0867">
        <ele>9.9</ele>
      </trkpt>
      <trkpt lat="36.71295" lon="28.0867">
        <ele>10</ele>
      </trkpt>
      <trkpt lat="36.71299" lon="28.08666">
        <ele>10.4</ele>
      </trkpt>
      <trkpt lat="36.71302" lon="28.08666">
        <ele>10.5</ele>
      </trkpt>
      <trkpt lat="36.713" lon="28.08666">
        <ele>10.5</ele>
      </trkpt>
      <trkpt lat="36.71299" lon="28.08663">
        <ele>10.6</ele>
      </trkpt>
      <trkpt lat="36.71299" lon="28.08656">
        <ele>11.1</ele>
      </trkpt>
      <trkpt lat="36.71299" lon="28.08646">
        <ele>11.9</ele>
      </trkpt>
      <trkpt lat="36.71298" lon="28.08633">
        <ele>12.9</ele>
      </trkpt>
      <trkpt lat="36.71298" lon="28.08628">
        <ele>13.2</ele>
      </trkpt>
      <trkpt lat="36.71298" lon="28.08627">
        <ele>13.3</ele>
      </trkpt>
      <trkpt lat="36.71302" lon="28.08618">
        <ele>14.1</ele>
      </trkpt>
      <trkpt lat="36.71307" lon="28.08611">
        <ele>14.7</ele>
      </trkpt>
      <trkpt lat="36.71305" lon="28.086">
        <ele>15.5</ele>
      </trkpt>
      <trkpt lat="36.71303" lon="28.0859">
        <ele>16.1</ele>
      </trkpt>
      <trkpt lat="36.71304" lon="28.08587">
        <ele>16.4</ele>
      </trkpt>
      <trkpt lat="36.71303" lon="28.08583">
        <ele>16.6</ele>
      </trkpt>
      <trkpt lat="36.71302" lon="28.08573">
        <ele>18</ele>
      </trkpt>
      <trkpt lat="36.71298" lon="28.08565">
        <ele>19.2</ele>
      </trkpt>
      <trkpt lat="36.71287" lon="28.08557">
        <ele>20.5</ele>
      </trkpt>
      <trkpt lat="36.71285" lon="28.08555">
        <ele>20.9</ele>
      </trkpt>
      <trkpt lat="36.71281" lon="28.08554">
        <ele>21</ele>
      </trkpt>
      <trkpt lat="36.71279" lon="28.08554">
        <ele>21.1</ele>
      </trkpt>
      <trkpt lat="36.7127" lon="28.08555">
        <ele>21.1</ele>
      </trkpt>
      <trkpt lat="36.71266" lon="28.08556">
        <ele>21.1</ele>
      </trkpt>
      <trkpt lat="36.71255" lon="28.08548">
        <ele>22.7</ele>
      </trkpt>
      <trkpt lat="36.71253" lon="28.08546">
        <ele>23.1</ele>
      </trkpt>
      <trkpt lat="36.71252" lon="28.08544">
        <ele>23.6</ele>
      </trkpt>
      <trkpt lat="36.71251" lon="28.08542">
        <ele>24</ele>
      </trkpt>
      <trkpt lat="36.71246" lon="28.08536">
        <ele>25.2</ele>
      </trkpt>
      <trkpt lat="36.71241" lon="28.08532">
        <ele>25.9</ele>
      </trkpt>
      <trkpt lat="36.7124" lon="28.08528">
        <ele>26.7</ele>
      </trkpt>
      <trkpt lat="36.71242" lon="28.08519">
        <ele>28.4</ele>
      </trkpt>
      <trkpt lat="36.71243" lon="28.08514">
        <ele>29.3</ele>
      </trkpt>
      <trkpt lat="36.71245" lon="28.08507">
        <ele>30.6</ele>
      </trkpt>
      <trkpt lat="36.71247" lon="28.08509">
        <ele>30.3</ele>
      </trkpt>
      <trkpt lat="36.71246" lon="28.0851">
        <ele>30.1</ele>
      </trkpt>
      <trkpt lat="36.71244" lon="28.08506">
        <ele>30.8</ele>
      </trkpt>
      <trkpt lat="36.71241" lon="28.08504">
        <ele>31.2</ele>
      </trkpt>
      <trkpt lat="36.71241" lon="28.08499">
        <ele>32.2</ele>
      </trkpt>
      <trkpt lat="36.7124" lon="28.08489">
        <ele>33.8</ele>
      </trkpt>
      <trkpt lat="36.71241" lon="28.08489">
        <ele>33.8</ele>
      </trkpt>
      <trkpt lat="36.71244" lon="28.08493">
        <ele>33.2</ele>
      </trkpt>
      <trkpt lat="36.71244" lon="28.08493">
        <ele>33.2</ele>
      </trkpt>
      <trkpt lat="36.71248" lon="28.08492">
        <ele>33.4</ele>
      </trkpt>
      <trkpt lat="36.71253" lon="28.08488">
        <ele>33.8</ele>
      </trkpt>
      <trkpt lat="36.71259" lon="28.08481">
        <ele>34.5</ele>
      </trkpt>
      <trkpt lat="36.71263" lon="28.08473">
        <ele>35.3</ele>
      </trkpt>
      <trkpt lat="36.71267" lon="28.08468">
        <ele>35.8</ele>
      </trkpt>
      <trkpt lat="36.7127" lon="28.08463">
        <ele>36.2</ele>
      </trkpt>
      <trkpt lat="36.71273" lon="28.08457">
        <ele>36.9</ele>
      </trkpt>
      <trkpt lat="36.71271" lon="28.08456">
        <ele>37.2</ele>
      </trkpt>
      <trkpt lat="36.71276" lon="28.08449">
        <ele>37.8</ele>
      </trkpt>
      <trkpt lat="36.71274" lon="28.08443">
        <ele>38.9</ele>
      </trkpt>
      <trkpt lat="36.71271" lon="28.08436">
        <ele>40.3</ele>
      </trkpt>
      <trkpt lat="36.71266" lon="28.08429">
        <ele>41.9</ele>
      </trkpt>
      <trkpt lat="36.71265" lon="28.08421">
        <ele>43.3</ele>
      </trkpt>
      <trkpt lat="36.71266" lon="28.08408">
        <ele>45.1</ele>
      </trkpt>
      <trkpt lat="36.71266" lon="28.08405">
        <ele>45.4</ele>
      </trkpt>
      <trkpt lat="36.71263" lon="28.08397">
        <ele>46.8</ele>
      </trkpt>
      <trkpt lat="36.7126" lon="28.08391">
        <ele>48</ele>
      </trkpt>
      <trkpt lat="36.71258" lon="28.0838">
        <ele>49.7</ele>
      </trkpt>
      <trkpt lat="36.71257" lon="28.08375">
        <ele>50.6</ele>
      </trkpt>
      <trkpt lat="36.71254" lon="28.0837">
        <ele>51.6</ele>
      </trkpt>
      <trkpt lat="36.71251" lon="28.0837">
        <ele>52.1</ele>
      </trkpt>
      <trkpt lat="36.71246" lon="28.0837">
        <ele>52.5</ele>
      </trkpt>
      <trkpt lat="36.71243" lon="28.08368">
        <ele>53</ele>
      </trkpt>
      <trkpt lat="36.71242" lon="28.08359">
        <ele>54.3</ele>
      </trkpt>
      <trkpt lat="36.71244" lon="28.08357">
        <ele>54.4</ele>
      </trkpt>
      <trkpt lat="36.71247" lon="28.08348">
        <ele>55.3</ele>
      </trkpt>
      <trkpt lat="36.7125" lon="28.0834">
        <ele>56.2</ele>
      </trkpt>
      <trkpt lat="36.71255" lon="28.0833">
        <ele>56.5</ele>
      </trkpt>
      <trkpt lat="36.71261" lon="28.08324">
        <ele>56.2</ele>
      </trkpt>
      <trkpt lat="36.71261" lon="28.08322">
        <ele>56.2</ele>
      </trkpt>
      <trkpt lat="36.71261" lon="28.08318">
        <ele>56.7</ele>
      </trkpt>
      <trkpt lat="36.71261" lon="28.08316">
        <ele>56.9</ele>
      </trkpt>
      <trkpt lat="36.71268" lon="28.08313">
        <ele>56</ele>
      </trkpt>
      <trkpt lat="36.7127" lon="28.08313">
        <ele>55.8</ele>
      </trkpt>
      <trkpt lat="36.71272" lon="28.08312">
        <ele>55.6</ele>
      </trkpt>
      <trkpt lat="36.71275" lon="28.08307">
        <ele>55.6</ele>
      </trkpt>
      <trkpt lat="36.71277" lon="28.08302">
        <ele>55.8</ele>
      </trkpt>
      <trkpt lat="36.71277" lon="28.08298">
        <ele>56.2</ele>
      </trkpt>
      <trkpt lat="36.71278" lon="28.08291">
        <ele>56.7</ele>
      </trkpt>
      <trkpt lat="36.71278" lon="28.08285">
        <ele>57.2</ele>
      </trkpt>
      <trkpt lat="36.71278" lon="28.08283">
        <ele>57.5</ele>
      </trkpt>
      <trkpt lat="36.7127" lon="28.08275">
        <ele>59.2</ele>
      </trkpt>
      <trkpt lat="36.71267" lon="28.08272">
        <ele>59.9</ele>
      </trkpt>
      <trkpt lat="36.71268" lon="28.0827">
        <ele>60.1</ele>
      </trkpt>
      <trkpt lat="36.71261" lon="28.08265">
        <ele>61.4</ele>
      </trkpt>
      <trkpt lat="36.71258" lon="28.08261">
        <ele>62.1</ele>
      </trkpt>
      <trkpt lat="36.71256" lon="28.0826">
        <ele>62.4</ele>
      </trkpt>
      <trkpt lat="36.71257" lon="28.0826">
        <ele>62.4</ele>
      </trkpt>
      <trkpt lat="36.71253" lon="28.08256">
        <ele>63.1</ele>
      </trkpt>
      <trkpt lat="36.71251" lon="28.08251">
        <ele>63.8</ele>
      </trkpt>
      <trkpt lat="36.71248" lon="28.08249">
        <ele>64.6</ele>
      </trkpt>
      <trkpt lat="36.71247" lon="28.08249">
        <ele>64.7</ele>
      </trkpt>
      <trkpt lat="36.7124" lon="28.08245">
        <ele>66.8</ele>
      </trkpt>
      <trkpt lat="36.71237" lon="28.08242">
        <ele>68.1</ele>
      </trkpt>
      <trkpt lat="36.71233" lon="28.08235">
        <ele>69.9</ele>
      </trkpt>
      <trkpt lat="36.71232" lon="28.08225">
        <ele>71.6</ele>
      </trkpt>
      <trkpt lat="36.71233" lon="28.08214">
        <ele>73.1</ele>
      </trkpt>
      <trkpt lat="36.71235" lon="28.08205">
        <ele>73.9</ele>
      </trkpt>
      <trkpt lat="36.71236" lon="28.08197">
        <ele>74.8</ele>
      </trkpt>
      <trkpt lat="36.71235" lon="28.08188">
        <ele>76.5</ele>
      </trkpt>
      <trkpt lat="36.71236" lon="28.08189">
        <ele>76</ele>
      </trkpt>
      <trkpt lat="36.71235" lon="28.08185">
        <ele>77</ele>
      </trkpt>
      <trkpt lat="36.71235" lon="28.0818">
        <ele>77.8</ele>
      </trkpt>
      <trkpt lat="36.71232" lon="28.08173">
        <ele>79.4</ele>
      </trkpt>
      <trkpt lat="36.71231" lon="28.0817">
        <ele>80.1</ele>
      </trkpt>
      <trkpt lat="36.71231" lon="28.08153">
        <ele>83.9</ele>
      </trkpt>
      <trkpt lat="36.7124" lon="28.08141">
        <ele>84.4</ele>
      </trkpt>
      <trkpt lat="36.71247" lon="28.08137">
        <ele>83.8</ele>
      </trkpt>
      <trkpt lat="36.71258" lon="28.08136">
        <ele>82.9</ele>
      </trkpt>
      <trkpt lat="36.71263" lon="28.08135">
        <ele>82.6</ele>
      </trkpt>
      <trkpt lat="36.7127" lon="28.08134">
        <ele>82.3</ele>
      </trkpt>
      <trkpt lat="36.71276" lon="28.08132">
        <ele>82.4</ele>
      </trkpt>
      <trkpt lat="36.71283" lon="28.08128">
        <ele>82.8</ele>
      </trkpt>
      <trkpt lat="36.71291" lon="28.08128">
        <ele>82.3</ele>
      </trkpt>
      <trkpt lat="36.71299" lon="28.08123">
        <ele>82.6</ele>
      </trkpt>
      <trkpt lat="36.71311" lon="28.08119">
        <ele>82.6</ele>
      </trkpt>
      <trkpt lat="36.7132" lon="28.08115">
        <ele>82.7</ele>
      </trkpt>
      <trkpt lat="36.71332" lon="28.08109">
        <ele>82.9</ele>
      </trkpt>
      <trkpt lat="36.71335" lon="28.08106">
        <ele>83.4</ele>
      </trkpt>
      <trkpt lat="36.71334" lon="28.08097">
        <ele>85.2</ele>
      </trkpt>
      <trkpt lat="36.71335" lon="28.08094">
        <ele>85.7</ele>
      </trkpt>
      <trkpt lat="36.71341" lon="28.08081">
        <ele>88.2</ele>
      </trkpt>
      <trkpt lat="36.71344" lon="28.08075">
        <ele>89.1</ele>
      </trkpt>
      <trkpt lat="36.71348" lon="28.0807">
        <ele>89.8</ele>
      </trkpt>
      <trkpt lat="36.71356" lon="28.08059">
        <ele>91.6</ele>
      </trkpt>
      <trkpt lat="36.71364" lon="28.08049">
        <ele>92.8</ele>
      </trkpt>
      <trkpt lat="36.71371" lon="28.0804">
        <ele>93.8</ele>
      </trkpt>
      <trkpt lat="36.71378" lon="28.08036">
        <ele>94</ele>
      </trkpt>
      <trkpt lat="36.71381" lon="28.08034">
        <ele>94.1</ele>
      </trkpt>
      <trkpt lat="36.71382" lon="28.08033">
        <ele>94.2</ele>
      </trkpt>
      <trkpt lat="36.71385" lon="28.0803">
        <ele>94.5</ele>
      </trkpt>
      <trkpt lat="36.71384" lon="28.08028">
        <ele>94.8</ele>
      </trkpt>
      <trkpt lat="36.71386" lon="28.08029">
        <ele>94.5</ele>
      </trkpt>
      <trkpt lat="36.71388" lon="28.08028">
        <ele>94.5</ele>
      </trkpt>
      <trkpt lat="36.71396" lon="28.08026">
        <ele>94.1</ele>
      </trkpt>
      <trkpt lat="36.71403" lon="28.08024">
        <ele>93.9</ele>
      </trkpt>
      <trkpt lat="36.71405" lon="28.08022">
        <ele>93.9</ele>
      </trkpt>
      <trkpt lat="36.71414" lon="28.08017">
        <ele>93.8</ele>
      </trkpt>
      <trkpt lat="36.7142" lon="28.08016">
        <ele>93.6</ele>
      </trkpt>
      <trkpt lat="36.71422" lon="28.08015">
        <ele>93.6</ele>
      </trkpt>
      <trkpt lat="36.71426" lon="28.08014">
        <ele>93.7</ele>
      </trkpt>
      <trkpt lat="36.71434" lon="28.08009">
        <ele>94.1</ele>
      </trkpt>
      <trkpt lat="36.71442" lon="28.08007">
        <ele>94</ele>
      </trkpt>
      <trkpt lat="36.71445" lon="28.08005">
        <ele>94.1</ele>
      </trkpt>
      <trkpt lat="36.71452" lon="28.07999">
        <ele>94.5</ele>
      </trkpt>
      <trkpt lat="36.71455" lon="28.07994">
        <ele>95.2</ele>
      </trkpt>
      <trkpt lat="36.71455" lon="28.07986">
        <ele>96.7</ele>
      </trkpt>
      <trkpt lat="36.71455" lon="28.07978">
        <ele>98</ele>
      </trkpt>
      <trkpt lat="36.71452" lon="28.07973">
        <ele>99.2</ele>
      </trkpt>
      <trkpt lat="36.71452" lon="28.07967">
        <ele>100.1</ele>
      </trkpt>
      <trkpt lat="36.71453" lon="28.07963">
        <ele>100.9</ele>
      </trkpt>
      <trkpt lat="36.71457" lon="28.07957">
        <ele>101.8</ele>
      </trkpt>
      <trkpt lat="36.7146" lon="28.07956">
        <ele>101.9</ele>
      </trkpt>
      <trkpt lat="36.71463" lon="28.07955">
        <ele>102</ele>
      </trkpt>
      <trkpt lat="36.71467" lon="28.07957">
        <ele>101.5</ele>
      </trkpt>
      <trkpt lat="36.71471" lon="28.07957">
        <ele>101.3</ele>
      </trkpt>
      <trkpt lat="36.71478" lon="28.07959">
        <ele>100.6</ele>
      </trkpt>
      <trkpt lat="36.71482" lon="28.07963">
        <ele>99.7</ele>
      </trkpt>
      <trkpt lat="36.71488" lon="28.0797">
        <ele>98.3</ele>
      </trkpt>
      <trkpt lat="36.71489" lon="28.0797">
        <ele>98.1</ele>
      </trkpt>
      <trkpt lat="36.71494" lon="28.07971">
        <ele>97.7</ele>
      </trkpt>
      <trkpt lat="36.71497" lon="28.07975">
        <ele>96.9</ele>
      </trkpt>
      <trkpt lat="36.71501" lon="28.07977">
        <ele>96.6</ele>
      </trkpt>
      <trkpt lat="36.71506" lon="28.07978">
        <ele>96.9</ele>
      </trkpt>
      <trkpt lat="36.71512" lon="28.0798">
        <ele>97.3</ele>
      </trkpt>
      <trkpt lat="36.71518" lon="28.07979">
        <ele>98.2</ele>
      </trkpt>
      <trkpt lat="36.71522" lon="28.07979">
        <ele>98.6</ele>
      </trkpt>
      <trkpt lat="36.71528" lon="28.07976">
        <ele>99.9</ele>
      </trkpt>
      <trkpt lat="36.7153" lon="28.07976">
        <ele>100.1</ele>
      </trkpt>
      <trkpt lat="36.7154" lon="28.07977">
        <ele>101.3</ele>
      </trkpt>
      <trkpt lat="36.71542" lon="28.07977">
        <ele>101.5</ele>
      </trkpt>
      <trkpt lat="36.71545" lon="28.07975">
        <ele>102.3</ele>
      </trkpt>
      <trkpt lat="36.71551" lon="28.07972">
        <ele>103.7</ele>
      </trkpt>
      <trkpt lat="36.71553" lon="28.07967">
        <ele>105.1</ele>
      </trkpt>
      <trkpt lat="36.71562" lon="28.07963">
        <ele>107.1</ele>
      </trkpt>
      <trkpt lat="36.7157" lon="28.07962">
        <ele>108.5</ele>
      </trkpt>
      <trkpt lat="36.71574" lon="28.07962">
        <ele>109</ele>
      </trkpt>
      <trkpt lat="36.71583" lon="28.07963">
        <ele>109.8</ele>
      </trkpt>
      <trkpt lat="36.71589" lon="28.07963">
        <ele>109.3</ele>
      </trkpt>
      <trkpt lat="36.71593" lon="28.07963">
        <ele>108.6</ele>
      </trkpt>
      <trkpt lat="36.71596" lon="28.07962">
        <ele>108.3</ele>
      </trkpt>
      <trkpt lat="36.71605" lon="28.07959">
        <ele>108</ele>
      </trkpt>
      <trkpt lat="36.71607" lon="28.07958">
        <ele>107.9</ele>
      </trkpt>
      <trkpt lat="36.71611" lon="28.0795">
        <ele>109.1</ele>
      </trkpt>
      <trkpt lat="36.71617" lon="28.07939">
        <ele>110.7</ele>
      </trkpt>
      <trkpt lat="36.71625" lon="28.07936">
        <ele>110.4</ele>
      </trkpt>
      <trkpt lat="36.7163" lon="28.0793">
        <ele>110.8</ele>
      </trkpt>
      <trkpt lat="36.71634" lon="28.07918">
        <ele>113</ele>
      </trkpt>
      <trkpt lat="36.71635" lon="28.07912">
        <ele>114.1</ele>
      </trkpt>
      <trkpt lat="36.71636" lon="28.07911">
        <ele>114.4</ele>
      </trkpt>
      <trkpt lat="36.71637" lon="28.07899">
        <ele>117.1</ele>
      </trkpt>
      <trkpt lat="36.71639" lon="28.07889">
        <ele>119.3</ele>
      </trkpt>
      <trkpt lat="36.71641" lon="28.07881">
        <ele>121.1</ele>
      </trkpt>
      <trkpt lat="36.71647" lon="28.0787">
        <ele>122.9</ele>
      </trkpt>
      <trkpt lat="36.7165" lon="28.07866">
        <ele>123.6</ele>
      </trkpt>
      <trkpt lat="36.71652" lon="28.07865">
        <ele>123.6</ele>
      </trkpt>
      <trkpt lat="36.71656" lon="28.07861">
        <ele>124.1</ele>
      </trkpt>
      <trkpt lat="36.71661" lon="28.07858">
        <ele>124.3</ele>
      </trkpt>
      <trkpt lat="36.71669" lon="28.07852">
        <ele>125</ele>
      </trkpt>
      <trkpt lat="36.71677" lon="28.07845">
        <ele>126.3</ele>
      </trkpt>
      <trkpt lat="36.71682" lon="28.07839">
        <ele>127.5</ele>
      </trkpt>
      <trkpt lat="36.71682" lon="28.07837">
        <ele>128</ele>
      </trkpt>
      <trkpt lat="36.71687" lon="28.07832">
        <ele>129</ele>
      </trkpt>
      <trkpt lat="36.71694" lon="28.07825">
        <ele>131</ele>
      </trkpt>
      <trkpt lat="36.71696" lon="28.07824">
        <ele>131</ele>
      </trkpt>
      <trkpt lat="36.71699" lon="28.07822">
        <ele>131.5</ele>
      </trkpt>
      <trkpt lat="36.71701" lon="28.07823">
        <ele>131.3</ele>
      </trkpt>
      <trkpt lat="36.71702" lon="28.07824">
        <ele>130.8</ele>
      </trkpt>
      <trkpt lat="36.71704" lon="28.07817">
        <ele>132.9</ele>
      </trkpt>
      <trkpt lat="36.71709" lon="28.07817">
        <ele>132.4</ele>
      </trkpt>
      <trkpt lat="36.71712" lon="28.07815">
        <ele>132.7</ele>
      </trkpt>
      <trkpt lat="36.71718" lon="28.07809">
        <ele>134.2</ele>
      </trkpt>
      <trkpt lat="36.71725" lon="28.07804">
        <ele>135.2</ele>
      </trkpt>
      <trkpt lat="36.71732" lon="28.07794">
        <ele>137.7</ele>
      </trkpt>
      <trkpt lat="36.71742" lon="28.07785">
        <ele>139.4</ele>
      </trkpt>
      <trkpt lat="36.71748" lon="28.07783">
        <ele>139.3</ele>
      </trkpt>
      <trkpt lat="36.71761" lon="28.07784">
        <ele>140.6</ele>
      </trkpt>
      <trkpt lat="36.71762" lon="28.07784">
        <ele>140.6</ele>
      </trkpt>
      <trkpt lat="36.71771" lon="28.07789">
        <ele>140.7</ele>
      </trkpt>
      <trkpt lat="36.71772" lon="28.07789">
        <ele>140.8</ele>
      </trkpt>
      <trkpt lat="36.71776" lon="28.07789">
        <ele>141.4</ele>
      </trkpt>
      <trkpt lat="36.71782" lon="28.07791">
        <ele>141.9</ele>
      </trkpt>
      <trkpt lat="36.71788" lon="28.0779">
        <ele>143.1</ele>
      </trkpt>
      <trkpt lat="36.71797" lon="28.07791">
        <ele>144.4</ele>
      </trkpt>
      <trkpt lat="36.71804" lon="28.07792">
        <ele>145.2</ele>
      </trkpt>
      <trkpt lat="36.71807" lon="28.07793">
        <ele>145.2</ele>
      </trkpt>
      <trkpt lat="36.7181" lon="28.07794">
        <ele>145.4</ele>
      </trkpt>
      <trkpt lat="36.71816" lon="28.07803">
        <ele>143.6</ele>
      </trkpt>
      <trkpt lat="36.71821" lon="28.07811">
        <ele>141.5</ele>
      </trkpt>
      <trkpt lat="36.71826" lon="28.07818">
        <ele>140.2</ele>
      </trkpt>
      <trkpt lat="36.71834" lon="28.07826">
        <ele>138.7</ele>
      </trkpt>
      <trkpt lat="36.71838" lon="28.07829">
        <ele>138.4</ele>
      </trkpt>
      <trkpt lat="36.71844" lon="28.07838">
        <ele>137.3</ele>
      </trkpt>
      <trkpt lat="36.71847" lon="28.07843">
        <ele>136.7</ele>
      </trkpt>
      <trkpt lat="36.71852" lon="28.07846">
        <ele>136.9</ele>
      </trkpt>
      <trkpt lat="36.7186" lon="28.0785">
        <ele>137.6</ele>
      </trkpt>
      <trkpt lat="36.7187" lon="28.07859">
        <ele>137.4</ele>
      </trkpt>
      <trkpt lat="36.71876" lon="28.07866">
        <ele>136.9</ele>
      </trkpt>
      <trkpt lat="36.71881" lon="28.0787">
        <ele>136.6</ele>
      </trkpt>
      <trkpt lat="36.71885" lon="28.07873">
        <ele>136.8</ele>
      </trkpt>
      <trkpt lat="36.71894" lon="28.07875">
        <ele>138.3</ele>
      </trkpt>
      <trkpt lat="36.71898" lon="28.07875">
        <ele>139.2</ele>
      </trkpt>
      <trkpt lat="36.71911" lon="28.0787">
        <ele>144</ele>
      </trkpt>
      <trkpt lat="36.71921" lon="28.07867">
        <ele>147.4</ele>
      </trkpt>
      <trkpt lat="36.7193" lon="28.07872">
        <ele>148.1</ele>
      </trkpt>
      <trkpt lat="36.71938" lon="28.07878">
        <ele>148.7</ele>
      </trkpt>
      <trkpt lat="36.71943" lon="28.07881">
        <ele>148.9</ele>
      </trkpt>
      <trkpt lat="36.7195" lon="28.07886">
        <ele>149.4</ele>
      </trkpt>
      <trkpt lat="36.71953" lon="28.0789">
        <ele>149.3</ele>
      </trkpt>
      <trkpt lat="36.71959" lon="28.07895">
        <ele>149.3</ele>
      </trkpt>
      <trkpt lat="36.71961" lon="28.07899">
        <ele>149</ele>
      </trkpt>
      <trkpt lat="36.71967" lon="28.07905">
        <ele>149.2</ele>
      </trkpt>
      <trkpt lat="36.71978" lon="28.07912">
        <ele>150.7</ele>
      </trkpt>
      <trkpt lat="36.7198" lon="28.07914">
        <ele>150.8</ele>
      </trkpt>
      <trkpt lat="36.71987" lon="28.07917">
        <ele>152.1</ele>
      </trkpt>
      <trkpt lat="36.71995" lon="28.07922">
        <ele>153.5</ele>
      </trkpt>
      <trkpt lat="36.72002" lon="28.07929">
        <ele>153.7</ele>
      </trkpt>
      <trkpt lat="36.72004" lon="28.07932">
        <ele>153.2</ele>
      </trkpt>
      <trkpt lat="36.7201" lon="28.07943">
        <ele>151.1</ele>
      </trkpt>
      <trkpt lat="36.72016" lon="28.07954">
        <ele>149</ele>
      </trkpt>
      <trkpt lat="36.72019" lon="28.07958">
        <ele>148.1</ele>
      </trkpt>
      <trkpt lat="36.72019" lon="28.07961">
        <ele>147.5</ele>
      </trkpt>
      <trkpt lat="36.72021" lon="28.07966">
        <ele>146.4</ele>
      </trkpt>
      <trkpt lat="36.72027" lon="28.07968">
        <ele>146</ele>
      </trkpt>
      <trkpt lat="36.7203" lon="28.07969">
        <ele>145.6</ele>
      </trkpt>
      <trkpt lat="36.72031" lon="28.07968">
        <ele>145.9</ele>
      </trkpt>
      <trkpt lat="36.72037" lon="28.07967">
        <ele>146.1</ele>
      </trkpt>
      <trkpt lat="36.72039" lon="28.07966">
        <ele>146.3</ele>
      </trkpt>
      <trkpt lat="36.72042" lon="28.07967">
        <ele>146.2</ele>
      </trkpt>
      <trkpt lat="36.72045" lon="28.07965">
        <ele>146.6</ele>
      </trkpt>
      <trkpt lat="36.72052" lon="28.07958">
        <ele>148.4</ele>
      </trkpt>
      <trkpt lat="36.72057" lon="28.07948">
        <ele>151.1</ele>
      </trkpt>
      <trkpt lat="36.72062" lon="28.07942">
        <ele>152.9</ele>
      </trkpt>
      <trkpt lat="36.72065" lon="28.07938">
        <ele>154</ele>
      </trkpt>
      <trkpt lat="36.72069" lon="28.07935">
        <ele>155.1</ele>
      </trkpt>
      <trkpt lat="36.72075" lon="28.07931">
        <ele>156.5</ele>
      </trkpt>
      <trkpt lat="36.72086" lon="28.07928">
        <ele>157.3</ele>
      </trkpt>
      <trkpt lat="36.72089" lon="28.07928">
        <ele>156.9</ele>
      </trkpt>
      <trkpt lat="36.72095" lon="28.07924">
        <ele>157.2</ele>
      </trkpt>
      <trkpt lat="36.72103" lon="28.0792">
        <ele>157.4</ele>
      </trkpt>
      <trkpt lat="36.72111" lon="28.07917">
        <ele>156.9</ele>
      </trkpt>
      <trkpt lat="36.72115" lon="28.07917">
        <ele>156.2</ele>
      </trkpt>
      <trkpt lat="36.72115" lon="28.07915">
        <ele>156.6</ele>
      </trkpt>
      <trkpt lat="36.72115" lon="28.07914">
        <ele>156.8</ele>
      </trkpt>
      <trkpt lat="36.72119" lon="28.07909">
        <ele>156.4</ele>
      </trkpt>
      <trkpt lat="36.72127" lon="28.07902">
        <ele>155.8</ele>
      </trkpt>
      <trkpt lat="36.72129" lon="28.07885">
        <ele>156.6</ele>
      </trkpt>
      <trkpt lat="36.7213" lon="28.07872">
        <ele>157.1</ele>
      </trkpt>
      <trkpt lat="36.72133" lon="28.07862">
        <ele>156.9</ele>
      </trkpt>
      <trkpt lat="36.72132" lon="28.07847">
        <ele>158.1</ele>
      </trkpt>
      <trkpt lat="36.72128" lon="28.07831">
        <ele>160.1</ele>
      </trkpt>
      <trkpt lat="36.72126" lon="28.07818">
        <ele>160.8</ele>
      </trkpt>
      <trkpt lat="36.72125" lon="28.07818">
        <ele>160.9</ele>
      </trkpt>
      <trkpt lat="36.72122" lon="28.07813">
        <ele>161.9</ele>
      </trkpt>
      <trkpt lat="36.72118" lon="28.07799">
        <ele>162.9</ele>
      </trkpt>
      <trkpt lat="36.72118" lon="28.0779">
        <ele>162.9</ele>
      </trkpt>
      <trkpt lat="36.72117" lon="28.07776">
        <ele>163.1</ele>
      </trkpt>
      <trkpt lat="36.72116" lon="28.07772">
        <ele>163.5</ele>
      </trkpt>
      <trkpt lat="36.72114" lon="28.07762">
        <ele>164.1</ele>
      </trkpt>
      <trkpt lat="36.72113" lon="28.07756">
        <ele>164.4</ele>
      </trkpt>
      <trkpt lat="36.72109" lon="28.07745">
        <ele>165.7</ele>
      </trkpt>
      <trkpt lat="36.72106" lon="28.07739">
        <ele>166.7</ele>
      </trkpt>
      <trkpt lat="36.721" lon="28.07727">
        <ele>168.5</ele>
      </trkpt>
      <trkpt lat="36.72099" lon="28.07721">
        <ele>168.8</ele>
      </trkpt>
      <trkpt lat="36.72099" lon="28.07709">
        <ele>168.7</ele>
      </trkpt>
      <trkpt lat="36.72098" lon="28.07702">
        <ele>169.2</ele>
      </trkpt>
      <trkpt lat="36.72096" lon="28.07686">
        <ele>169.8</ele>
      </trkpt>
      <trkpt lat="36.72101" lon="28.07671">
        <ele>168</ele>
      </trkpt>
      <trkpt lat="36.72105" lon="28.0766">
        <ele>166.7</ele>
      </trkpt>
      <trkpt lat="36.72107" lon="28.07655">
        <ele>166.2</ele>
      </trkpt>
      <trkpt lat="36.72106" lon="28.0765">
        <ele>166.6</ele>
      </trkpt>
      <trkpt lat="36.72107" lon="28.07638">
        <ele>166.7</ele>
      </trkpt>
      <trkpt lat="36.72104" lon="28.07628">
        <ele>168.2</ele>
      </trkpt>
      <trkpt lat="36.721" lon="28.07614">
        <ele>170.1</ele>
      </trkpt>
      <trkpt lat="36.72101" lon="28.07597">
        <ele>170.5</ele>
      </trkpt>
      <trkpt lat="36.72101" lon="28.07597">
        <ele>170.5</ele>
      </trkpt>
      <trkpt lat="36.72097" lon="28.07587">
        <ele>172.2</ele>
      </trkpt>
      <trkpt lat="36.72094" lon="28.07575">
        <ele>173.7</ele>
      </trkpt>
      <trkpt lat="36.72091" lon="28.0756">
        <ele>175.6</ele>
      </trkpt>
      <trkpt lat="36.72089" lon="28.07563">
        <ele>176.3</ele>
      </trkpt>
      <trkpt lat="36.72089" lon="28.07559">
        <ele>176.4</ele>
      </trkpt>
      <trkpt lat="36.72087" lon="28.07553">
        <ele>177.4</ele>
      </trkpt>
      <trkpt lat="36.72087" lon="28.07548">
        <ele>177.5</ele>
      </trkpt>
      <trkpt lat="36.72085" lon="28.07545">
        <ele>178.1</ele>
      </trkpt>
      <trkpt lat="36.72085" lon="28.07539">
        <ele>178.3</ele>
      </trkpt>
      <trkpt lat="36.72087" lon="28.07532">
        <ele>177.9</ele>
      </trkpt>
      <trkpt lat="36.72087" lon="28.0753">
        <ele>178</ele>
      </trkpt>
      <trkpt lat="36.72084" lon="28.07522">
        <ele>179.2</ele>
      </trkpt>
      <trkpt lat="36.72081" lon="28.07512">
        <ele>180.5</ele>
      </trkpt>
      <trkpt lat="36.72081" lon="28.07506">
        <ele>180.5</ele>
      </trkpt>
      <trkpt lat="36.72081" lon="28.07499">
        <ele>180.8</ele>
      </trkpt>
      <trkpt lat="36.72081" lon="28.0749">
        <ele>181.3</ele>
      </trkpt>
      <trkpt lat="36.72082" lon="28.07482">
        <ele>181.3</ele>
      </trkpt>
      <trkpt lat="36.72083" lon="28.07476">
        <ele>181.4</ele>
      </trkpt>
      <trkpt lat="36.72084" lon="28.07464">
        <ele>181.6</ele>
      </trkpt>
      <trkpt lat="36.72084" lon="28.07458">
        <ele>181.8</ele>
      </trkpt>
      <trkpt lat="36.72083" lon="28.07452">
        <ele>182.4</ele>
      </trkpt>
      <trkpt lat="36.72083" lon="28.0745">
        <ele>182.4</ele>
      </trkpt>
      <trkpt lat="36.72082" lon="28.07444">
        <ele>183.3</ele>
      </trkpt>
      <trkpt lat="36.72081" lon="28.07437">
        <ele>184</ele>
      </trkpt>
      <trkpt lat="36.7208" lon="28.07436">
        <ele>184.4</ele>
      </trkpt>
      <trkpt lat="36.72079" lon="28.07431">
        <ele>185</ele>
      </trkpt>
      <trkpt lat="36.72079" lon="28.07423">
        <ele>185.6</ele>
      </trkpt>
      <trkpt lat="36.72079" lon="28.07416">
        <ele>185.9</ele>
      </trkpt>
      <trkpt lat="36.72079" lon="28.07407">
        <ele>186.3</ele>
      </trkpt>
      <trkpt lat="36.72077" lon="28.07401">
        <ele>187.3</ele>
      </trkpt>
      <trkpt lat="36.72078" lon="28.07398">
        <ele>187</ele>
      </trkpt>
      <trkpt lat="36.72078" lon="28.07389">
        <ele>187.3</ele>
      </trkpt>
      <trkpt lat="36.72077" lon="28.07386">
        <ele>188</ele>
      </trkpt>
      <trkpt lat="36.72078" lon="28.07378">
        <ele>188.2</ele>
      </trkpt>
      <trkpt lat="36.72078" lon="28.07375">
        <ele>188.3</ele>
      </trkpt>
      <trkpt lat="36.72077" lon="28.07366">
        <ele>188.9</ele>
      </trkpt>
      <trkpt lat="36.72077" lon="28.07359">
        <ele>189.4</ele>
      </trkpt>
      <trkpt lat="36.72076" lon="28.07352">
        <ele>189.9</ele>
      </trkpt>
      <trkpt lat="36.72074" lon="28.07346">
        <ele>191</ele>
      </trkpt>
      <trkpt lat="36.72072" lon="28.07341">
        <ele>191.9</ele>
      </trkpt>
      <trkpt lat="36.72071" lon="28.07337">
        <ele>192.6</ele>
      </trkpt>
      <trkpt lat="36.72069" lon="28.0733">
        <ele>193.9</ele>
      </trkpt>
      <trkpt lat="36.72069" lon="28.07329">
        <ele>194</ele>
      </trkpt>
      <trkpt lat="36.72066" lon="28.07322">
        <ele>195.6</ele>
      </trkpt>
      <trkpt lat="36.72063" lon="28.07317">
        <ele>197</ele>
      </trkpt>
      <trkpt lat="36.72059" lon="28.07309">
        <ele>198.8</ele>
      </trkpt>
      <trkpt lat="36.72055" lon="28.07304">
        <ele>200.7</ele>
      </trkpt>
      <trkpt lat="36.72052" lon="28.07301">
        <ele>201.6</ele>
      </trkpt>
      <trkpt lat="36.72048" lon="28.07295">
        <ele>203.1</ele>
      </trkpt>
      <trkpt lat="36.72044" lon="28.07288">
        <ele>204.6</ele>
      </trkpt>
      <trkpt lat="36.72042" lon="28.07284">
        <ele>205</ele>
      </trkpt>
      <trkpt lat="36.72041" lon="28.07275">
        <ele>205.6</ele>
      </trkpt>
      <trkpt lat="36.7204" lon="28.07272">
        <ele>205.9</ele>
      </trkpt>
      <trkpt lat="36.72038" lon="28.07264">
        <ele>206.6</ele>
      </trkpt>
      <trkpt lat="36.72036" lon="28.07259">
        <ele>206.9</ele>
      </trkpt>
      <trkpt lat="36.72034" lon="28.07254">
        <ele>207.4</ele>
      </trkpt>
      <trkpt lat="36.72033" lon="28.07247">
        <ele>207.8</ele>
      </trkpt>
      <trkpt lat="36.72032" lon="28.07244">
        <ele>207.9</ele>
      </trkpt>
      <trkpt lat="36.72031" lon="28.07239">
        <ele>208.2</ele>
      </trkpt>
      <trkpt lat="36.72029" lon="28.07239">
        <ele>208.5</ele>
      </trkpt>
      <trkpt lat="36.72028" lon="28.07232">
        <ele>209</ele>
      </trkpt>
      <trkpt lat="36.72026" lon="28.07224">
        <ele>209.5</ele>
      </trkpt>
      <trkpt lat="36.72025" lon="28.07223">
        <ele>209.5</ele>
      </trkpt>
      <trkpt lat="36.72022" lon="28.07218">
        <ele>210.1</ele>
      </trkpt>
      <trkpt lat="36.72021" lon="28.07215">
        <ele>210.3</ele>
      </trkpt>
      <trkpt lat="36.72016" lon="28.0721">
        <ele>211.1</ele>
      </trkpt>
      <trkpt lat="36.72015" lon="28.07206">
        <ele>211.3</ele>
      </trkpt>
      <trkpt lat="36.72012" lon="28.072">
        <ele>211.7</ele>
      </trkpt>
      <trkpt lat="36.72009" lon="28.07191">
        <ele>212</ele>
      </trkpt>
      <trkpt lat="36.72007" lon="28.07183">
        <ele>212.3</ele>
      </trkpt>
      <trkpt lat="36.72006" lon="28.07175">
        <ele>212.4</ele>
      </trkpt>
      <trkpt lat="36.72004" lon="28.07169">
        <ele>212.6</ele>
      </trkpt>
      <trkpt lat="36.72002" lon="28.07165">
        <ele>212.8</ele>
      </trkpt>
      <trkpt lat="36.72002" lon="28.07163">
        <ele>212.8</ele>
      </trkpt>
      <trkpt lat="36.72" lon="28.07157">
        <ele>213.1</ele>
      </trkpt>
      <trkpt lat="36.71997" lon="28.07152">
        <ele>214</ele>
      </trkpt>
      <trkpt lat="36.71995" lon="28.07143">
        <ele>214.8</ele>
      </trkpt>
      <trkpt lat="36.71994" lon="28.07141">
        <ele>215</ele>
      </trkpt>
      <trkpt lat="36.71989" lon="28.07135">
        <ele>216.5</ele>
      </trkpt>
      <trkpt lat="36.71986" lon="28.07128">
        <ele>217.2</ele>
      </trkpt>
      <trkpt lat="36.71984" lon="28.07123">
        <ele>217.6</ele>
      </trkpt>
      <trkpt lat="36.71982" lon="28.07118">
        <ele>218.1</ele>
      </trkpt>
      <trkpt lat="36.71979" lon="28.07112">
        <ele>218.8</ele>
      </trkpt>
      <trkpt lat="36.71973" lon="28.07104">
        <ele>220.1</ele>
      </trkpt>
      <trkpt lat="36.71972" lon="28.07101">
        <ele>220.1</ele>
      </trkpt>
      <trkpt lat="36.71966" lon="28.07091">
        <ele>221.1</ele>
      </trkpt>
      <trkpt lat="36.71966" lon="28.0709">
        <ele>221.2</ele>
      </trkpt>
      <trkpt lat="36.71962" lon="28.0709">
        <ele>221.9</ele>
      </trkpt>
      <trkpt lat="36.71957" lon="28.07083">
        <ele>222.7</ele>
      </trkpt>
      <trkpt lat="36.71952" lon="28.07077">
        <ele>223.8</ele>
      </trkpt>
      <trkpt lat="36.71948" lon="28.07074">
        <ele>224.7</ele>
      </trkpt>
      <trkpt lat="36.71943" lon="28.0707">
        <ele>225.5</ele>
      </trkpt>
      <trkpt lat="36.71941" lon="28.07069">
        <ele>225.8</ele>
      </trkpt>
      <trkpt lat="36.7194" lon="28.07066">
        <ele>226.1</ele>
      </trkpt>
      <trkpt lat="36.71932" lon="28.0706">
        <ele>227.2</ele>
      </trkpt>
      <trkpt lat="36.7193" lon="28.07054">
        <ele>227.3</ele>
      </trkpt>
      <trkpt lat="36.71924" lon="28.07041">
        <ele>227.6</ele>
      </trkpt>
      <trkpt lat="36.71921" lon="28.0703">
        <ele>227.4</ele>
      </trkpt>
      <trkpt lat="36.71916" lon="28.07016">
        <ele>227.1</ele>
      </trkpt>
      <trkpt lat="36.71909" lon="28.07007">
        <ele>227.8</ele>
      </trkpt>
      <trkpt lat="36.71906" lon="28.06999">
        <ele>227.8</ele>
      </trkpt>
      <trkpt lat="36.71899" lon="28.06993">
        <ele>228.4</ele>
      </trkpt>
      <trkpt lat="36.71896" lon="28.06992">
        <ele>228.8</ele>
      </trkpt>
      <trkpt lat="36.71891" lon="28.06991">
        <ele>229.4</ele>
      </trkpt>
      <trkpt lat="36.71889" lon="28.06988">
        <ele>229.6</ele>
      </trkpt>
      <trkpt lat="36.71888" lon="28.06987">
        <ele>229.6</ele>
      </trkpt>
      <trkpt lat="36.71888" lon="28.06989">
        <ele>229.8</ele>
      </trkpt>
      <trkpt lat="36.71883" lon="28.06988">
        <ele>230.6</ele>
      </trkpt>
      <trkpt lat="36.71875" lon="28.06981">
        <ele>231</ele>
      </trkpt>
      <trkpt lat="36.71873" lon="28.06977">
        <ele>230.9</ele>
      </trkpt>
      <trkpt lat="36.71869" lon="28.06969">
        <ele>230.6</ele>
      </trkpt>
      <trkpt lat="36.71868" lon="28.06964">
        <ele>230.4</ele>
      </trkpt>
      <trkpt lat="36.71864" lon="28.06955">
        <ele>229.9</ele>
      </trkpt>
      <trkpt lat="36.71861" lon="28.06945">
        <ele>229.2</ele>
      </trkpt>
      <trkpt lat="36.71857" lon="28.06936">
        <ele>228.6</ele>
      </trkpt>
      <trkpt lat="36.71855" lon="28.06926">
        <ele>227.8</ele>
      </trkpt>
      <trkpt lat="36.71851" lon="28.06921">
        <ele>227.6</ele>
      </trkpt>
      <trkpt lat="36.71848" lon="28.06918">
        <ele>227.6</ele>
      </trkpt>
      <trkpt lat="36.71844" lon="28.06911">
        <ele>227.9</ele>
      </trkpt>
      <trkpt lat="36.71842" lon="28.06907">
        <ele>228</ele>
      </trkpt>
      <trkpt lat="36.71843" lon="28.06905">
        <ele>228</ele>
      </trkpt>
      <trkpt lat="36.71844" lon="28.06894">
        <ele>227.8</ele>
      </trkpt>
      <trkpt lat="36.71844" lon="28.06887">
        <ele>227.7</ele>
      </trkpt>
      <trkpt lat="36.71846" lon="28.06877">
        <ele>227.5</ele>
      </trkpt>
      <trkpt lat="36.71847" lon="28.06865">
        <ele>227.3</ele>
      </trkpt>
      <trkpt lat="36.71846" lon="28.06861">
        <ele>227.5</ele>
      </trkpt>
      <trkpt lat="36.71844" lon="28.06856">
        <ele>227.7</ele>
      </trkpt>
      <trkpt lat="36.71844" lon="28.06853">
        <ele>227.6</ele>
      </trkpt>
      <trkpt lat="36.71844" lon="28.0685">
        <ele>227.7</ele>
      </trkpt>
      <trkpt lat="36.71842" lon="28.06845">
        <ele>227.9</ele>
      </trkpt>
      <trkpt lat="36.71841" lon="28.06844">
        <ele>228</ele>
      </trkpt>
      <trkpt lat="36.71845" lon="28.06834">
        <ele>227.5</ele>
      </trkpt>
      <trkpt lat="36.71845" lon="28.06832">
        <ele>227.5</ele>
      </trkpt>
      <trkpt lat="36.71844" lon="28.06831">
        <ele>227.7</ele>
      </trkpt>
      <trkpt lat="36.71843" lon="28.06831">
        <ele>227.8</ele>
      </trkpt>
      <trkpt lat="36.71841" lon="28.06821">
        <ele>228.6</ele>
      </trkpt>
      <trkpt lat="36.71841" lon="28.0681">
        <ele>229.2</ele>
      </trkpt>
      <trkpt lat="36.71841" lon="28.06806">
        <ele>229.5</ele>
      </trkpt>
      <trkpt lat="36.71841" lon="28.06804">
        <ele>229.6</ele>
      </trkpt>
      <trkpt lat="36.71842" lon="28.06791">
        <ele>230.1</ele>
      </trkpt>
      <trkpt lat="36.71844" lon="28.06778">
        <ele>230.5</ele>
      </trkpt>
      <trkpt lat="36.71842" lon="28.06776">
        <ele>230.8</ele>
      </trkpt>
      <trkpt lat="36.71842" lon="28.06765">
        <ele>231.4</ele>
      </trkpt>
      <trkpt lat="36.71841" lon="28.06755">
        <ele>232.1</ele>
      </trkpt>
      <trkpt lat="36.71841" lon="28.06745">
        <ele>232.3</ele>
      </trkpt>
      <trkpt lat="36.71842" lon="28.06732">
        <ele>232.3</ele>
      </trkpt>
      <trkpt lat="36.71841" lon="28.06725">
        <ele>232.3</ele>
      </trkpt>
      <trkpt lat="36.71841" lon="28.06718">
        <ele>232.5</ele>
      </trkpt>
      <trkpt lat="36.7184" lon="28.06715">
        <ele>232.6</ele>
      </trkpt>
      <trkpt lat="36.7184" lon="28.06716">
        <ele>232.6</ele>
      </trkpt>
      <trkpt lat="36.7184" lon="28.06711">
        <ele>232.6</ele>
      </trkpt>
      <trkpt lat="36.71841" lon="28.06708">
        <ele>232.5</ele>
      </trkpt>
      <trkpt lat="36.71841" lon="28.06699">
        <ele>232.3</ele>
      </trkpt>
      <trkpt lat="36.7184" lon="28.06688">
        <ele>232.7</ele>
      </trkpt>
      <trkpt lat="36.71838" lon="28.06681">
        <ele>233.1</ele>
      </trkpt>
      <trkpt lat="36.71836" lon="28.06669">
        <ele>233.4</ele>
      </trkpt>
      <trkpt lat="36.71836" lon="28.06668">
        <ele>233.5</ele>
      </trkpt>
      <trkpt lat="36.71834" lon="28.06659">
        <ele>233.7</ele>
      </trkpt>
      <trkpt lat="36.71832" lon="28.06648">
        <ele>233.7</ele>
      </trkpt>
      <trkpt lat="36.7183" lon="28.06637">
        <ele>233.9</ele>
      </trkpt>
      <trkpt lat="36.71829" lon="28.06628">
        <ele>233.9</ele>
      </trkpt>
      <trkpt lat="36.71827" lon="28.06617">
        <ele>234</ele>
      </trkpt>
      <trkpt lat="36.71827" lon="28.06616">
        <ele>234</ele>
      </trkpt>
      <trkpt lat="36.71827" lon="28.06614">
        <ele>234</ele>
      </trkpt>
      <trkpt lat="36.71827" lon="28.06611">
        <ele>233.6</ele>
      </trkpt>
      <trkpt lat="36.71827" lon="28.06613">
        <ele>233.9</ele>
      </trkpt>
      <trkpt lat="36.71827" lon="28.06614">
        <ele>234</ele>
      </trkpt>
      <trkpt lat="36.71823" lon="28.06601">
        <ele>234.4</ele>
      </trkpt>
      <trkpt lat="36.71821" lon="28.06591">
        <ele>234.6</ele>
      </trkpt>
      <trkpt lat="36.71818" lon="28.06581">
        <ele>235</ele>
      </trkpt>
      <trkpt lat="36.71816" lon="28.06568">
        <ele>235.9</ele>
      </trkpt>
      <trkpt lat="36.71814" lon="28.06559">
        <ele>236.7</ele>
      </trkpt>
      <trkpt lat="36.71811" lon="28.06548">
        <ele>237.6</ele>
      </trkpt>
      <trkpt lat="36.71808" lon="28.0654">
        <ele>238.3</ele>
      </trkpt>
      <trkpt lat="36.71802" lon="28.06531">
        <ele>239.6</ele>
      </trkpt>
      <trkpt lat="36.71797" lon="28.06523">
        <ele>240.7</ele>
      </trkpt>
      <trkpt lat="36.71791" lon="28.06514">
        <ele>241.6</ele>
      </trkpt>
      <trkpt lat="36.71786" lon="28.06502">
        <ele>242.3</ele>
      </trkpt>
      <trkpt lat="36.71783" lon="28.06491">
        <ele>242.7</ele>
      </trkpt>
      <trkpt lat="36.7178" lon="28.0648">
        <ele>243.1</ele>
      </trkpt>
      <trkpt lat="36.71778" lon="28.06475">
        <ele>243.3</ele>
      </trkpt>
      <trkpt lat="36.71775" lon="28.06467">
        <ele>243.6</ele>
      </trkpt>
      <trkpt lat="36.71771" lon="28.06457">
        <ele>243.8</ele>
      </trkpt>
      <trkpt lat="36.71767" lon="28.06451">
        <ele>244.1</ele>
      </trkpt>
      <trkpt lat="36.71762" lon="28.0644">
        <ele>244.2</ele>
      </trkpt>
      <trkpt lat="36.71758" lon="28.06428">
        <ele>244.1</ele>
      </trkpt>
      <trkpt lat="36.71757" lon="28.06426">
        <ele>244.1</ele>
      </trkpt>
      <trkpt lat="36.71752" lon="28.06419">
        <ele>244</ele>
      </trkpt>
      <trkpt lat="36.71752" lon="28.06417">
        <ele>244</ele>
      </trkpt>
      <trkpt lat="36.7175" lon="28.06417">
        <ele>244</ele>
      </trkpt>
      <trkpt lat="36.71745" lon="28.06407">
        <ele>243.5</ele>
      </trkpt>
      <trkpt lat="36.71744" lon="28.06403">
        <ele>243.3</ele>
      </trkpt>
      <trkpt lat="36.71742" lon="28.06399">
        <ele>243.1</ele>
      </trkpt>
      <trkpt lat="36.7174" lon="28.06386">
        <ele>242.5</ele>
      </trkpt>
      <trkpt lat="36.71734" lon="28.06376">
        <ele>241.8</ele>
      </trkpt>
      <trkpt lat="36.7173" lon="28.06374">
        <ele>241.5</ele>
      </trkpt>
      <trkpt lat="36.71728" lon="28.06374">
        <ele>241.4</ele>
      </trkpt>
      <trkpt lat="36.71718" lon="28.06375">
        <ele>241</ele>
      </trkpt>
      <trkpt lat="36.71711" lon="28.06378">
        <ele>240.8</ele>
      </trkpt>
      <trkpt lat="36.717" lon="28.06383">
        <ele>240.6</ele>
      </trkpt>
      <trkpt lat="36.71692" lon="28.06387">
        <ele>240.5</ele>
      </trkpt>
      <trkpt lat="36.71688" lon="28.06389">
        <ele>240.5</ele>
      </trkpt>
      <trkpt lat="36.7168" lon="28.06395">
        <ele>240.6</ele>
      </trkpt>
      <trkpt lat="36.71671" lon="28.06402">
        <ele>240.9</ele>
      </trkpt>
      <trkpt lat="36.71665" lon="28.06414">
        <ele>241.6</ele>
      </trkpt>
      <trkpt lat="36.71663" lon="28.06415">
        <ele>241.6</ele>
      </trkpt>
      <trkpt lat="36.71658" lon="28.06423">
        <ele>241.5</ele>
      </trkpt>
      <trkpt lat="36.71653" lon="28.06433">
        <ele>241.4</ele>
      </trkpt>
      <trkpt lat="36.71646" lon="28.06444">
        <ele>241.2</ele>
      </trkpt>
      <trkpt lat="36.71638" lon="28.06454">
        <ele>240.9</ele>
      </trkpt>
      <trkpt lat="36.71631" lon="28.06461">
        <ele>240.5</ele>
      </trkpt>
      <trkpt lat="36.71629" lon="28.06465">
        <ele>240.4</ele>
      </trkpt>
      <trkpt lat="36.71624" lon="28.06472">
        <ele>240.2</ele>
      </trkpt>
      <trkpt lat="36.71621" lon="28.06475">
        <ele>240.1</ele>
      </trkpt>
      <trkpt lat="36.71612" lon="28.06485">
        <ele>239.5</ele>
      </trkpt>
      <trkpt lat="36.71605" lon="28.06494">
        <ele>239.1</ele>
      </trkpt>
      <trkpt lat="36.71602" lon="28.06503">
        <ele>239.2</ele>
      </trkpt>
      <trkpt lat="36.71596" lon="28.06514">
        <ele>238.9</ele>
      </trkpt>
      <trkpt lat="36.71593" lon="28.0652">
        <ele>238.7</ele>
      </trkpt>
      <trkpt lat="36.71591" lon="28.06522">
        <ele>238.7</ele>
      </trkpt>
      <trkpt lat="36.71586" lon="28.06525">
        <ele>238.2</ele>
      </trkpt>
      <trkpt lat="36.71585" lon="28.06531">
        <ele>238.3</ele>
      </trkpt>
      <trkpt lat="36.71586" lon="28.06536">
        <ele>238.6</ele>
      </trkpt>
      <trkpt lat="36.71584" lon="28.06543">
        <ele>238.6</ele>
      </trkpt>
      <trkpt lat="36.71579" lon="28.06554">
        <ele>238.8</ele>
      </trkpt>
      <trkpt lat="36.71574" lon="28.06561">
        <ele>238.9</ele>
      </trkpt>
      <trkpt lat="36.7157" lon="28.06562">
        <ele>238.8</ele>
      </trkpt>
      <trkpt lat="36.71565" lon="28.06562">
        <ele>238.7</ele>
      </trkpt>
      <trkpt lat="36.71561" lon="28.06561">
        <ele>238.5</ele>
      </trkpt>
      <trkpt lat="36.71558" lon="28.0656">
        <ele>238.3</ele>
      </trkpt>
      <trkpt lat="36.71554" lon="28.06557">
        <ele>238</ele>
      </trkpt>
      <trkpt lat="36.71553" lon="28.06557">
        <ele>238</ele>
      </trkpt>
      <trkpt lat="36.71542" lon="28.06552">
        <ele>237.3</ele>
      </trkpt>
      <trkpt lat="36.71538" lon="28.06551">
        <ele>237.1</ele>
      </trkpt>
      <trkpt lat="36.71528" lon="28.06552">
        <ele>236.8</ele>
      </trkpt>
      <trkpt lat="36.71524" lon="28.06553">
        <ele>236.7</ele>
      </trkpt>
      <trkpt lat="36.71521" lon="28.06554">
        <ele>236.7</ele>
      </trkpt>
      <trkpt lat="36.71517" lon="28.06542">
        <ele>235.7</ele>
      </trkpt>
      <trkpt lat="36.7151" lon="28.06514">
        <ele>233.5</ele>
      </trkpt>
      <trkpt lat="36.71499" lon="28.06489">
        <ele>232</ele>
      </trkpt>
      <trkpt lat="36.71488" lon="28.06465">
        <ele>232.2</ele>
      </trkpt>
      <trkpt lat="36.71485" lon="28.06443">
        <ele>232.1</ele>
      </trkpt>
      <trkpt lat="36.71485" lon="28.06419">
        <ele>232</ele>
      </trkpt>
      <trkpt lat="36.7148" lon="28.06401">
        <ele>231.2</ele>
      </trkpt>
      <trkpt lat="36.71468" lon="28.06379">
        <ele>230.2</ele>
      </trkpt>
      <trkpt lat="36.71454" lon="28.06367">
        <ele>229.6</ele>
      </trkpt>
      <trkpt lat="36.71428" lon="28.06356">
        <ele>229.1</ele>
      </trkpt>
      <trkpt lat="36.71398" lon="28.06347">
        <ele>229.2</ele>
      </trkpt>
      <trkpt lat="36.71374" lon="28.06346">
        <ele>229.9</ele>
      </trkpt>
      <trkpt lat="36.71354" lon="28.06362">
        <ele>230.9</ele>
      </trkpt>
      <trkpt lat="36.71341" lon="28.0638">
        <ele>231.5</ele>
      </trkpt>
      <trkpt lat="36.71325" lon="28.06396">
        <ele>232.4</ele>
      </trkpt>
      <trkpt lat="36.71303" lon="28.06413">
        <ele>234.2</ele>
      </trkpt>
      <trkpt lat="36.71285" lon="28.06423">
        <ele>235.5</ele>
      </trkpt>
      <trkpt lat="36.71264" lon="28.06435">
        <ele>236.5</ele>
      </trkpt>
      <trkpt lat="36.71247" lon="28.06447">
        <ele>236.9</ele>
      </trkpt>
      <trkpt lat="36.71232" lon="28.06454">
        <ele>236.4</ele>
      </trkpt>
      <trkpt lat="36.71212" lon="28.06466">
        <ele>235.3</ele>
      </trkpt>
      <trkpt lat="36.71196" lon="28.06484">
        <ele>233.6</ele>
      </trkpt>
      <trkpt lat="36.71188" lon="28.065">
        <ele>232</ele>
      </trkpt>
      <trkpt lat="36.71182" lon="28.06519">
        <ele>233.7</ele>
      </trkpt>
      <trkpt lat="36.71175" lon="28.06515">
        <ele>233.1</ele>
      </trkpt>
      <trkpt lat="36.71175" lon="28.06515">
        <ele>233.1</ele>
      </trkpt>
      <trkpt lat="36.71176" lon="28.06516">
        <ele>233.2</ele>
      </trkpt>
      <trkpt lat="36.71176" lon="28.06515">
        <ele>233.2</ele>
      </trkpt>
      <trkpt lat="36.71176" lon="28.06515">
        <ele>233.1</ele>
      </trkpt>
      <trkpt lat="36.71176" lon="28.06515">
        <ele>233.1</ele>
      </trkpt>
      <trkpt lat="36.71175" lon="28.06515">
        <ele>233.1</ele>
      </trkpt>
      <trkpt lat="36.71175" lon="28.06515">
        <ele>233.1</ele>
      </trkpt>
      <trkpt lat="36.71175" lon="28.06515">
        <ele>233.1</ele>
      </trkpt>
      <trkpt lat="36.71173" lon="28.06513">
        <ele>232.8</ele>
      </trkpt>
      <trkpt lat="36.71171" lon="28.06511">
        <ele>232.4</ele>
      </trkpt>
      <trkpt lat="36.71168" lon="28.06512">
        <ele>232.5</ele>
      </trkpt>
      <trkpt lat="36.71165" lon="28.06513">
        <ele>232.3</ele>
      </trkpt>
      <trkpt lat="36.71162" lon="28.06513">
        <ele>231.9</ele>
      </trkpt>
      <trkpt lat="36.71159" lon="28.06513">
        <ele>231.6</ele>
      </trkpt>
      <trkpt lat="36.71157" lon="28.06514">
        <ele>231.5</ele>
      </trkpt>
      <trkpt lat="36.71154" lon="28.06517">
        <ele>231.5</ele>
      </trkpt>
      <trkpt lat="36.71152" lon="28.06519">
        <ele>231.5</ele>
      </trkpt>
      <trkpt lat="36.71148" lon="28.06523">
        <ele>231.6</ele>
      </trkpt>
      <trkpt lat="36.71145" lon="28.06526">
        <ele>231.7</ele>
      </trkpt>
      <trkpt lat="36.71143" lon="28.06527">
        <ele>231.6</ele>
      </trkpt>
      <trkpt lat="36.71141" lon="28.06527">
        <ele>231.3</ele>
      </trkpt>
      <trkpt lat="36.71137" lon="28.06526">
        <ele>230.9</ele>
      </trkpt>
      <trkpt lat="36.71135" lon="28.06526">
        <ele>230.6</ele>
      </trkpt>
      <trkpt lat="36.71131" lon="28.06526">
        <ele>230.2</ele>
      </trkpt>
      <trkpt lat="36.71127" lon="28.06527">
        <ele>230</ele>
      </trkpt>
      <trkpt lat="36.71124" lon="28.06528">
        <ele>229.8</ele>
      </trkpt>
      <trkpt lat="36.71122" lon="28.06528">
        <ele>229.6</ele>
      </trkpt>
      <trkpt lat="36.71118" lon="28.06527">
        <ele>228.8</ele>
      </trkpt>
      <trkpt lat="36.71113" lon="28.06524">
        <ele>227.9</ele>
      </trkpt>
      <trkpt lat="36.71111" lon="28.06523">
        <ele>227.4</ele>
      </trkpt>
      <trkpt lat="36.71109" lon="28.06522">
        <ele>227.1</ele>
      </trkpt>
      <trkpt lat="36.71107" lon="28.06521">
        <ele>226.6</ele>
      </trkpt>
      <trkpt lat="36.71104" lon="28.0652">
        <ele>226</ele>
      </trkpt>
      <trkpt lat="36.711" lon="28.06519">
        <ele>225.2</ele>
      </trkpt>
      <trkpt lat="36.71098" lon="28.06518">
        <ele>224.8</ele>
      </trkpt>
      <trkpt lat="36.71095" lon="28.06514">
        <ele>223.7</ele>
      </trkpt>
      <trkpt lat="36.71094" lon="28.06514">
        <ele>223.5</ele>
      </trkpt>
      <trkpt lat="36.71092" lon="28.06513">
        <ele>223.2</ele>
      </trkpt>
      <trkpt lat="36.71091" lon="28.06513">
        <ele>222.8</ele>
      </trkpt>
      <trkpt lat="36.71089" lon="28.06512">
        <ele>222.3</ele>
      </trkpt>
      <trkpt lat="36.71085" lon="28.06511">
        <ele>221.7</ele>
      </trkpt>
      <trkpt lat="36.71081" lon="28.0651">
        <ele>221.5</ele>
      </trkpt>
      <trkpt lat="36.71078" lon="28.06511">
        <ele>221.7</ele>
      </trkpt>
      <trkpt lat="36.71075" lon="28.06511">
        <ele>222</ele>
      </trkpt>
      <trkpt lat="36.71072" lon="28.06511">
        <ele>222.2</ele>
      </trkpt>
      <trkpt lat="36.71068" lon="28.06509">
        <ele>221.8</ele>
      </trkpt>
      <trkpt lat="36.71066" lon="28.06506">
        <ele>221.3</ele>
      </trkpt>
      <trkpt lat="36.71064" lon="28.06504">
        <ele>220.9</ele>
      </trkpt>
      <trkpt lat="36.71062" lon="28.06501">
        <ele>220.4</ele>
      </trkpt>
      <trkpt lat="36.71059" lon="28.065">
        <ele>220.2</ele>
      </trkpt>
      <trkpt lat="36.71057" lon="28.06499">
        <ele>220.3</ele>
      </trkpt>
      <trkpt lat="36.71055" lon="28.06496">
        <ele>220.4</ele>
      </trkpt>
      <trkpt lat="36.71053" lon="28.06493">
        <ele>220.5</ele>
      </trkpt>
      <trkpt lat="36.71052" lon="28.06491">
        <ele>220.6</ele>
      </trkpt>
      <trkpt lat="36.7105" lon="28.0649">
        <ele>220.6</ele>
      </trkpt>
      <trkpt lat="36.71047" lon="28.06485">
        <ele>220.6</ele>
      </trkpt>
      <trkpt lat="36.71045" lon="28.06484">
        <ele>220.6</ele>
      </trkpt>
      <trkpt lat="36.71043" lon="28.06484">
        <ele>220.6</ele>
      </trkpt>
      <trkpt lat="36.71041" lon="28.06483">
        <ele>220.6</ele>
      </trkpt>
      <trkpt lat="36.71039" lon="28.06483">
        <ele>220.6</ele>
      </trkpt>
      <trkpt lat="36.71036" lon="28.06482">
        <ele>220.5</ele>
      </trkpt>
      <trkpt lat="36.71036" lon="28.06482">
        <ele>220.5</ele>
      </trkpt>
      <trkpt lat="36.71035" lon="28.06482">
        <ele>220.5</ele>
      </trkpt>
      <trkpt lat="36.71034" lon="28.0648">
        <ele>220.5</ele>
      </trkpt>
      <trkpt lat="36.71033" lon="28.0648">
        <ele>220.4</ele>
      </trkpt>
      <trkpt lat="36.71029" lon="28.06477">
        <ele>220.2</ele>
      </trkpt>
      <trkpt lat="36.71027" lon="28.06476">
        <ele>220.1</ele>
      </trkpt>
      <trkpt lat="36.71025" lon="28.06472">
        <ele>219.8</ele>
      </trkpt>
      <trkpt lat="36.71023" lon="28.06471">
        <ele>219.7</ele>
      </trkpt>
      <trkpt lat="36.71021" lon="28.06471">
        <ele>219.5</ele>
      </trkpt>
      <trkpt lat="36.71018" lon="28.06467">
        <ele>219.1</ele>
      </trkpt>
      <trkpt lat="36.71016" lon="28.06466">
        <ele>218.9</ele>
      </trkpt>
      <trkpt lat="36.71014" lon="28.06463">
        <ele>218.5</ele>
      </trkpt>
      <trkpt lat="36.71012" lon="28.06461">
        <ele>218.2</ele>
      </trkpt>
      <trkpt lat="36.7101" lon="28.0646">
        <ele>217.9</ele>
      </trkpt>
      <trkpt lat="36.71009" lon="28.0646">
        <ele>217.8</ele>
      </trkpt>
      <trkpt lat="36.71006" lon="28.06458">
        <ele>217.4</ele>
      </trkpt>
      <trkpt lat="36.71003" lon="28.06455">
        <ele>216.8</ele>
      </trkpt>
      <trkpt lat="36.71" lon="28.06451">
        <ele>215.9</ele>
      </trkpt>
      <trkpt lat="36.70998" lon="28.06447">
        <ele>215.5</ele>
      </trkpt>
      <trkpt lat="36.70997" lon="28.06446">
        <ele>215.5</ele>
      </trkpt>
      <trkpt lat="36.70996" lon="28.06444">
        <ele>215.3</ele>
      </trkpt>
      <trkpt lat="36.70996" lon="28.0644">
        <ele>214.8</ele>
      </trkpt>
      <trkpt lat="36.70995" lon="28.06434">
        <ele>213.9</ele>
      </trkpt>
      <trkpt lat="36.70994" lon="28.06433">
        <ele>213.9</ele>
      </trkpt>
      <trkpt lat="36.70993" lon="28.06431">
        <ele>213.7</ele>
      </trkpt>
      <trkpt lat="36.70991" lon="28.06427">
        <ele>213.1</ele>
      </trkpt>
      <trkpt lat="36.70989" lon="28.06426">
        <ele>213.2</ele>
      </trkpt>
      <trkpt lat="36.70988" lon="28.06426">
        <ele>213.2</ele>
      </trkpt>
      <trkpt lat="36.70985" lon="28.06425">
        <ele>213.2</ele>
      </trkpt>
      <trkpt lat="36.70981" lon="28.06424">
        <ele>213.4</ele>
      </trkpt>
      <trkpt lat="36.70979" lon="28.06423">
        <ele>213.4</ele>
      </trkpt>
      <trkpt lat="36.70977" lon="28.0642">
        <ele>213</ele>
      </trkpt>
      <trkpt lat="36.70975" lon="28.06419">
        <ele>212.9</ele>
      </trkpt>
      <trkpt lat="36.70976" lon="28.06416">
        <ele>212.3</ele>
      </trkpt>
      <trkpt lat="36.70976" lon="28.06413">
        <ele>212.1</ele>
      </trkpt>
      <trkpt lat="36.70975" lon="28.06409">
        <ele>211.8</ele>
      </trkpt>
      <trkpt lat="36.70972" lon="28.06403">
        <ele>211.3</ele>
      </trkpt>
      <trkpt lat="36.70966" lon="28.06399">
        <ele>210.8</ele>
      </trkpt>
      <trkpt lat="36.70963" lon="28.06398">
        <ele>210.7</ele>
      </trkpt>
      <trkpt lat="36.70959" lon="28.06397">
        <ele>210.6</ele>
      </trkpt>
      <trkpt lat="36.70956" lon="28.06397">
        <ele>210.5</ele>
      </trkpt>
      <trkpt lat="36.70953" lon="28.06396">
        <ele>210.3</ele>
      </trkpt>
      <trkpt lat="36.7095" lon="28.06394">
        <ele>209.9</ele>
      </trkpt>
      <trkpt lat="36.70949" lon="28.06392">
        <ele>209.6</ele>
      </trkpt>
      <trkpt lat="36.70946" lon="28.0639">
        <ele>209.1</ele>
      </trkpt>
      <trkpt lat="36.70942" lon="28.06388">
        <ele>208.6</ele>
      </trkpt>
      <trkpt lat="36.70938" lon="28.06385">
        <ele>207.9</ele>
      </trkpt>
      <trkpt lat="36.70937" lon="28.06383">
        <ele>207.2</ele>
      </trkpt>
      <trkpt lat="36.70935" lon="28.06382">
        <ele>206.9</ele>
      </trkpt>
      <trkpt lat="36.70931" lon="28.06377">
        <ele>205.7</ele>
      </trkpt>
      <trkpt lat="36.70929" lon="28.06375">
        <ele>204.8</ele>
      </trkpt>
      <trkpt lat="36.70925" lon="28.06371">
        <ele>203.6</ele>
      </trkpt>
      <trkpt lat="36.70923" lon="28.0637">
        <ele>203.1</ele>
      </trkpt>
      <trkpt lat="36.7092" lon="28.06368">
        <ele>202.3</ele>
      </trkpt>
      <trkpt lat="36.70917" lon="28.06365">
        <ele>201.3</ele>
      </trkpt>
      <trkpt lat="36.70915" lon="28.06363">
        <ele>200.7</ele>
      </trkpt>
      <trkpt lat="36.70914" lon="28.06359">
        <ele>200.1</ele>
      </trkpt>
      <trkpt lat="36.7091" lon="28.06357">
        <ele>200.1</ele>
      </trkpt>
      <trkpt lat="36.70908" lon="28.06354">
        <ele>199.8</ele>
      </trkpt>
      <trkpt lat="36.70907" lon="28.06352">
        <ele>199.2</ele>
      </trkpt>
      <trkpt lat="36.70907" lon="28.06348">
        <ele>198.3</ele>
      </trkpt>
      <trkpt lat="36.70906" lon="28.06346">
        <ele>198</ele>
      </trkpt>
      <trkpt lat="36.70904" lon="28.06344">
        <ele>197.9</ele>
      </trkpt>
      <trkpt lat="36.70903" lon="28.06343">
        <ele>197.9</ele>
      </trkpt>
      <trkpt lat="36.70902" lon="28.06341">
        <ele>197.6</ele>
      </trkpt>
      <trkpt lat="36.709" lon="28.06339">
        <ele>197.4</ele>
      </trkpt>
      <trkpt lat="36.70898" lon="28.06335">
        <ele>196.8</ele>
      </trkpt>
      <trkpt lat="36.70897" lon="28.06333">
        <ele>196.8</ele>
      </trkpt>
      <trkpt lat="36.70895" lon="28.06331">
        <ele>196.7</ele>
      </trkpt>
      <trkpt lat="36.70896" lon="28.0633">
        <ele>196.5</ele>
      </trkpt>
      <trkpt lat="36.70896" lon="28.06324">
        <ele>195.4</ele>
      </trkpt>
      <trkpt lat="36.70893" lon="28.06319">
        <ele>194.9</ele>
      </trkpt>
      <trkpt lat="36.70892" lon="28.06313">
        <ele>194.1</ele>
      </trkpt>
      <trkpt lat="36.70891" lon="28.06311">
        <ele>193.9</ele>
      </trkpt>
      <trkpt lat="36.7089" lon="28.06311">
        <ele>194</ele>
      </trkpt>
      <trkpt lat="36.70887" lon="28.06305">
        <ele>193.3</ele>
      </trkpt>
      <trkpt lat="36.70888" lon="28.06303">
        <ele>192.6</ele>
      </trkpt>
      <trkpt lat="36.70889" lon="28.06296">
        <ele>191.2</ele>
      </trkpt>
      <trkpt lat="36.70889" lon="28.06292">
        <ele>190.4</ele>
      </trkpt>
      <trkpt lat="36.70888" lon="28.06286">
        <ele>189.3</ele>
      </trkpt>
      <trkpt lat="36.70888" lon="28.06285">
        <ele>189.1</ele>
      </trkpt>
      <trkpt lat="36.70886" lon="28.06286">
        <ele>189.7</ele>
      </trkpt>
      <trkpt lat="36.70881" lon="28.06284">
        <ele>189.7</ele>
      </trkpt>
      <trkpt lat="36.70879" lon="28.06282">
        <ele>189.6</ele>
      </trkpt>
      <trkpt lat="36.70876" lon="28.06278">
        <ele>189</ele>
      </trkpt>
      <trkpt lat="36.70873" lon="28.06274">
        <ele>188.3</ele>
      </trkpt>
      <trkpt lat="36.70873" lon="28.06272">
        <ele>187.9</ele>
      </trkpt>
      <trkpt lat="36.70871" lon="28.06271">
        <ele>187.7</ele>
      </trkpt>
      <trkpt lat="36.70869" lon="28.06268">
        <ele>187.2</ele>
      </trkpt>
      <trkpt lat="36.70868" lon="28.06265">
        <ele>186.5</ele>
      </trkpt>
      <trkpt lat="36.70865" lon="28.06262">
        <ele>186</ele>
      </trkpt>
      <trkpt lat="36.70861" lon="28.06259">
        <ele>185.3</ele>
      </trkpt>
      <trkpt lat="36.70861" lon="28.06258">
        <ele>185.1</ele>
      </trkpt>
      <trkpt lat="36.70861" lon="28.06256">
        <ele>184.5</ele>
      </trkpt>
      <trkpt lat="36.70859" lon="28.06253">
        <ele>183.9</ele>
      </trkpt>
      <trkpt lat="36.70856" lon="28.0625">
        <ele>183.1</ele>
      </trkpt>
      <trkpt lat="36.70855" lon="28.06247">
        <ele>182.6</ele>
      </trkpt>
      <trkpt lat="36.70853" lon="28.06246">
        <ele>182.1</ele>
      </trkpt>
      <trkpt lat="36.70851" lon="28.06244">
        <ele>181.7</ele>
      </trkpt>
      <trkpt lat="36.70848" lon="28.06243">
        <ele>181.4</ele>
      </trkpt>
      <trkpt lat="36.70845" lon="28.06238">
        <ele>180</ele>
      </trkpt>
      <trkpt lat="36.70843" lon="28.06236">
        <ele>179.2</ele>
      </trkpt>
      <trkpt lat="36.70841" lon="28.06234">
        <ele>178.5</ele>
      </trkpt>
      <trkpt lat="36.70839" lon="28.06232">
        <ele>177.7</ele>
      </trkpt>
      <trkpt lat="36.70836" lon="28.06229">
        <ele>176.5</ele>
      </trkpt>
      <trkpt lat="36.70833" lon="28.06226">
        <ele>175.3</ele>
      </trkpt>
      <trkpt lat="36.70829" lon="28.06223">
        <ele>174.4</ele>
      </trkpt>
      <trkpt lat="36.70829" lon="28.06221">
        <ele>173.8</ele>
      </trkpt>
      <trkpt lat="36.70828" lon="28.06218">
        <ele>173</ele>
      </trkpt>
      <trkpt lat="36.70828" lon="28.06217">
        <ele>172.5</ele>
      </trkpt>
      <trkpt lat="36.70826" lon="28.06215">
        <ele>171.9</ele>
      </trkpt>
      <trkpt lat="36.70822" lon="28.06213">
        <ele>171.4</ele>
      </trkpt>
      <trkpt lat="36.7082" lon="28.06212">
        <ele>171.4</ele>
      </trkpt>
      <trkpt lat="36.7082" lon="28.06212">
        <ele>171.5</ele>
      </trkpt>
      <trkpt lat="36.7082" lon="28.06212">
        <ele>171.4</ele>
      </trkpt>
      <trkpt lat="36.70821" lon="28.06212">
        <ele>171.2</ele>
      </trkpt>
      <trkpt lat="36.70821" lon="28.06212">
        <ele>171.3</ele>
      </trkpt>
      <trkpt lat="36.70821" lon="28.06212">
        <ele>171.4</ele>
      </trkpt>
      <trkpt lat="36.70822" lon="28.06212">
        <ele>171.3</ele>
      </trkpt>
      <trkpt lat="36.7082" lon="28.06209">
        <ele>170.2</ele>
      </trkpt>
      <trkpt lat="36.70816" lon="28.06206">
        <ele>169.6</ele>
      </trkpt>
      <trkpt lat="36.70814" lon="28.06205">
        <ele>169.2</ele>
      </trkpt>
      <trkpt lat="36.70813" lon="28.06205">
        <ele>169.5</ele>
      </trkpt>
      <trkpt lat="36.70813" lon="28.06206">
        <ele>169.8</ele>
      </trkpt>
      <trkpt lat="36.70813" lon="28.06206">
        <ele>169.9</ele>
      </trkpt>
      <trkpt lat="36.70812" lon="28.06206">
        <ele>169.8</ele>
      </trkpt>
      <trkpt lat="36.70811" lon="28.06205">
        <ele>169.7</ele>
      </trkpt>
      <trkpt lat="36.7081" lon="28.06204">
        <ele>169.3</ele>
      </trkpt>
      <trkpt lat="36.70809" lon="28.06203">
        <ele>169</ele>
      </trkpt>
      <trkpt lat="36.70808" lon="28.06202">
        <ele>168.5</ele>
      </trkpt>
      <trkpt lat="36.70807" lon="28.06199">
        <ele>167.9</ele>
      </trkpt>
      <trkpt lat="36.70805" lon="28.06198">
        <ele>167.3</ele>
      </trkpt>
      <trkpt lat="36.70806" lon="28.06196">
        <ele>166.7</ele>
      </trkpt>
      <trkpt lat="36.70806" lon="28.06196">
        <ele>166.6</ele>
      </trkpt>
      <trkpt lat="36.70806" lon="28.06195">
        <ele>166.4</ele>
      </trkpt>
      <trkpt lat="36.70805" lon="28.06193">
        <ele>165.9</ele>
      </trkpt>
      <trkpt lat="36.70804" lon="28.06192">
        <ele>165.5</ele>
      </trkpt>
      <trkpt lat="36.70802" lon="28.06192">
        <ele>165.4</ele>
      </trkpt>
      <trkpt lat="36.708" lon="28.06188">
        <ele>164.4</ele>
      </trkpt>
      <trkpt lat="36.70798" lon="28.06188">
        <ele>164.4</ele>
      </trkpt>
      <trkpt lat="36.70795" lon="28.06186">
        <ele>163.9</ele>
      </trkpt>
      <trkpt lat="36.70792" lon="28.06184">
        <ele>163.7</ele>
      </trkpt>
      <trkpt lat="36.70789" lon="28.06182">
        <ele>163.2</ele>
      </trkpt>
      <trkpt lat="36.70787" lon="28.06179">
        <ele>162.3</ele>
      </trkpt>
      <trkpt lat="36.70784" lon="28.0618">
        <ele>162.7</ele>
      </trkpt>
      <trkpt lat="36.70781" lon="28.06179">
        <ele>162.6</ele>
      </trkpt>
      <trkpt lat="36.70778" lon="28.06178">
        <ele>162.5</ele>
      </trkpt>
      <trkpt lat="36.70774" lon="28.06175">
        <ele>161.9</ele>
      </trkpt>
      <trkpt lat="36.70773" lon="28.06174">
        <ele>161.7</ele>
      </trkpt>
      <trkpt lat="36.70771" lon="28.06173">
        <ele>161.5</ele>
      </trkpt>
      <trkpt lat="36.70766" lon="28.06173">
        <ele>161.8</ele>
      </trkpt>
      <trkpt lat="36.70762" lon="28.06173">
        <ele>162.2</ele>
      </trkpt>
      <trkpt lat="36.70758" lon="28.06171">
        <ele>161.8</ele>
      </trkpt>
      <trkpt lat="36.70756" lon="28.06169">
        <ele>161.4</ele>
      </trkpt>
      <trkpt lat="36.70751" lon="28.06168">
        <ele>161.6</ele>
      </trkpt>
      <trkpt lat="36.70746" lon="28.06167">
        <ele>160.4</ele>
      </trkpt>
      <trkpt lat="36.70745" lon="28.06166">
        <ele>159.6</ele>
      </trkpt>
      <trkpt lat="36.70742" lon="28.06163">
        <ele>158</ele>
      </trkpt>
      <trkpt lat="36.7074" lon="28.06161">
        <ele>157.1</ele>
      </trkpt>
      <trkpt lat="36.70737" lon="28.06159">
        <ele>155.7</ele>
      </trkpt>
      <trkpt lat="36.70735" lon="28.06156">
        <ele>154.4</ele>
      </trkpt>
      <trkpt lat="36.70733" lon="28.06155">
        <ele>153.6</ele>
      </trkpt>
      <trkpt lat="36.70729" lon="28.06154">
        <ele>152.8</ele>
      </trkpt>
      <trkpt lat="36.70727" lon="28.06152">
        <ele>151.7</ele>
      </trkpt>
      <trkpt lat="36.70724" lon="28.06149">
        <ele>150</ele>
      </trkpt>
      <trkpt lat="36.70722" lon="28.06148">
        <ele>149.5</ele>
      </trkpt>
      <trkpt lat="36.70719" lon="28.06147">
        <ele>148.5</ele>
      </trkpt>
      <trkpt lat="36.70715" lon="28.06146">
        <ele>147.6</ele>
      </trkpt>
      <trkpt lat="36.70711" lon="28.06146">
        <ele>147.2</ele>
      </trkpt>
      <trkpt lat="36.70708" lon="28.06143">
        <ele>145.8</ele>
      </trkpt>
      <trkpt lat="36.70708" lon="28.0614">
        <ele>144.8</ele>
      </trkpt>
      <trkpt lat="36.70705" lon="28.06136">
        <ele>143.2</ele>
      </trkpt>
      <trkpt lat="36.70701" lon="28.06135">
        <ele>142.2</ele>
      </trkpt>
      <trkpt lat="36.70698" lon="28.06135">
        <ele>142</ele>
      </trkpt>
      <trkpt lat="36.70694" lon="28.06134">
        <ele>141</ele>
      </trkpt>
      <trkpt lat="36.70692" lon="28.06133">
        <ele>140.6</ele>
      </trkpt>
      <trkpt lat="36.70687" lon="28.06132">
        <ele>139.8</ele>
      </trkpt>
      <trkpt lat="36.70685" lon="28.06132">
        <ele>139.5</ele>
      </trkpt>
      <trkpt lat="36.70681" lon="28.06132">
        <ele>138.9</ele>
      </trkpt>
      <trkpt lat="36.70679" lon="28.06131">
        <ele>138.5</ele>
      </trkpt>
      <trkpt lat="36.70677" lon="28.06129">
        <ele>137.6</ele>
      </trkpt>
      <trkpt lat="36.70675" lon="28.06128">
        <ele>137</ele>
      </trkpt>
      <trkpt lat="36.70674" lon="28.06127">
        <ele>136.6</ele>
      </trkpt>
      <trkpt lat="36.70672" lon="28.06125">
        <ele>136.1</ele>
      </trkpt>
      <trkpt lat="36.70668" lon="28.06123">
        <ele>135.3</ele>
      </trkpt>
      <trkpt lat="36.70665" lon="28.06122">
        <ele>134.6</ele>
      </trkpt>
      <trkpt lat="36.70662" lon="28.06121">
        <ele>133.7</ele>
      </trkpt>
      <trkpt lat="36.70662" lon="28.0612">
        <ele>133.5</ele>
      </trkpt>
      <trkpt lat="36.7066" lon="28.06118">
        <ele>132.7</ele>
      </trkpt>
      <trkpt lat="36.70656" lon="28.06115">
        <ele>131.3</ele>
      </trkpt>
      <trkpt lat="36.70653" lon="28.06111">
        <ele>130</ele>
      </trkpt>
      <trkpt lat="36.70653" lon="28.0611">
        <ele>129.6</ele>
      </trkpt>
      <trkpt lat="36.70651" lon="28.06107">
        <ele>128.7</ele>
      </trkpt>
      <trkpt lat="36.70649" lon="28.06104">
        <ele>127.8</ele>
      </trkpt>
      <trkpt lat="36.70648" lon="28.06104">
        <ele>127.5</ele>
      </trkpt>
      <trkpt lat="36.70645" lon="28.06103">
        <ele>126.8</ele>
      </trkpt>
      <trkpt lat="36.70644" lon="28.06105">
        <ele>127.3</ele>
      </trkpt>
      <trkpt lat="36.70644" lon="28.06105">
        <ele>127.2</ele>
      </trkpt>
      <trkpt lat="36.70642" lon="28.06102">
        <ele>126.2</ele>
      </trkpt>
      <trkpt lat="36.70639" lon="28.06099">
        <ele>125</ele>
      </trkpt>
      <trkpt lat="36.70637" lon="28.06095">
        <ele>124</ele>
      </trkpt>
      <trkpt lat="36.70637" lon="28.06091">
        <ele>123.1</ele>
      </trkpt>
      <trkpt lat="36.70638" lon="28.06087">
        <ele>122.4</ele>
      </trkpt>
      <trkpt lat="36.70638" lon="28.06081">
        <ele>121.2</ele>
      </trkpt>
      <trkpt lat="36.70638" lon="28.06079">
        <ele>120.7</ele>
      </trkpt>
      <trkpt lat="36.70637" lon="28.06077">
        <ele>120.3</ele>
      </trkpt>
      <trkpt lat="36.70636" lon="28.06075">
        <ele>119.8</ele>
      </trkpt>
      <trkpt lat="36.70634" lon="28.06072">
        <ele>119.1</ele>
      </trkpt>
      <trkpt lat="36.70633" lon="28.0607">
        <ele>118.6</ele>
      </trkpt>
      <trkpt lat="36.70632" lon="28.06068">
        <ele>118.1</ele>
      </trkpt>
      <trkpt lat="36.70631" lon="28.06065">
        <ele>117.7</ele>
      </trkpt>
      <trkpt lat="36.7063" lon="28.06063">
        <ele>117.1</ele>
      </trkpt>
      <trkpt lat="36.70624" lon="28.0606">
        <ele>116.1</ele>
      </trkpt>
      <trkpt lat="36.70623" lon="28.06059">
        <ele>115.9</ele>
      </trkpt>
      <trkpt lat="36.70622" lon="28.06058">
        <ele>115.7</ele>
      </trkpt>
      <trkpt lat="36.70622" lon="28.06058">
        <ele>115.6</ele>
      </trkpt>
      <trkpt lat="36.70622" lon="28.06058">
        <ele>115.6</ele>
      </trkpt>
      <trkpt lat="36.70622" lon="28.06057">
        <ele>115.6</ele>
      </trkpt>
      <trkpt lat="36.70622" lon="28.06057">
        <ele>115.5</ele>
      </trkpt>
      <trkpt lat="36.7062" lon="28.06056">
        <ele>115.1</ele>
      </trkpt>
      <trkpt lat="36.70617" lon="28.06053">
        <ele>114.6</ele>
      </trkpt>
      <trkpt lat="36.70618" lon="28.06052">
        <ele>114.4</ele>
      </trkpt>
      <trkpt lat="36.70618" lon="28.06052">
        <ele>114.4</ele>
      </trkpt>
      <trkpt lat="36.70617" lon="28.06052">
        <ele>114.3</ele>
      </trkpt>
      <trkpt lat="36.70616" lon="28.06051">
        <ele>114.2</ele>
      </trkpt>
      <trkpt lat="36.70616" lon="28.06051">
        <ele>114.1</ele>
      </trkpt>
      <trkpt lat="36.70614" lon="28.06048">
        <ele>113.6</ele>
      </trkpt>
      <trkpt lat="36.70615" lon="28.06048">
        <ele>113.7</ele>
      </trkpt>
      <trkpt lat="36.70614" lon="28.06047">
        <ele>113.5</ele>
      </trkpt>
      <trkpt lat="36.70614" lon="28.06046">
        <ele>113.2</ele>
      </trkpt>
      <trkpt lat="36.70614" lon="28.06045">
        <ele>113.1</ele>
      </trkpt>
      <trkpt lat="36.70612" lon="28.06041">
        <ele>112.5</ele>
      </trkpt>
      <trkpt lat="36.7061" lon="28.0604">
        <ele>112.2</ele>
      </trkpt>
      <trkpt lat="36.70609" lon="28.06038">
        <ele>111.9</ele>
      </trkpt>
      <trkpt lat="36.70606" lon="28.06034">
        <ele>111.2</ele>
      </trkpt>
      <trkpt lat="36.70606" lon="28.06034">
        <ele>111.2</ele>
      </trkpt>
      <trkpt lat="36.70603" lon="28.06029">
        <ele>110.5</ele>
      </trkpt>
      <trkpt lat="36.706" lon="28.06028">
        <ele>110.2</ele>
      </trkpt>
      <trkpt lat="36.706" lon="28.06027">
        <ele>110.1</ele>
      </trkpt>
      <trkpt lat="36.70596" lon="28.06025">
        <ele>109.7</ele>
      </trkpt>
      <trkpt lat="36.70596" lon="28.06024">
        <ele>109.6</ele>
      </trkpt>
      <trkpt lat="36.70596" lon="28.06024">
        <ele>109.6</ele>
      </trkpt>
      <trkpt lat="36.70596" lon="28.06024">
        <ele>109.7</ele>
      </trkpt>
      <trkpt lat="36.70596" lon="28.06024">
        <ele>109.7</ele>
      </trkpt>
      <trkpt lat="36.70597" lon="28.06023">
        <ele>109.6</ele>
      </trkpt>
      <trkpt lat="36.70595" lon="28.06022">
        <ele>109.4</ele>
      </trkpt>
      <trkpt lat="36.70595" lon="28.06021">
        <ele>109.3</ele>
      </trkpt>
      <trkpt lat="36.70593" lon="28.06018">
        <ele>108.9</ele>
      </trkpt>
      <trkpt lat="36.70591" lon="28.06017">
        <ele>108.7</ele>
      </trkpt>
      <trkpt lat="36.70589" lon="28.06014">
        <ele>108.4</ele>
      </trkpt>
      <trkpt lat="36.70588" lon="28.06009">
        <ele>107.9</ele>
      </trkpt>
      <trkpt lat="36.70588" lon="28.06005">
        <ele>107.4</ele>
      </trkpt>
      <trkpt lat="36.70585" lon="28.06001">
        <ele>107.1</ele>
      </trkpt>
      <trkpt lat="36.70583" lon="28.05998">
        <ele>106.6</ele>
      </trkpt>
      <trkpt lat="36.70582" lon="28.05994">
        <ele>105.7</ele>
      </trkpt>
      <trkpt lat="36.70581" lon="28.05992">
        <ele>105.4</ele>
      </trkpt>
      <trkpt lat="36.70579" lon="28.05989">
        <ele>104.7</ele>
      </trkpt>
      <trkpt lat="36.70577" lon="28.05988">
        <ele>104.3</ele>
      </trkpt>
      <trkpt lat="36.70576" lon="28.05985">
        <ele>103.7</ele>
      </trkpt>
      <trkpt lat="36.70573" lon="28.05981">
        <ele>102.8</ele>
      </trkpt>
      <trkpt lat="36.70571" lon="28.05979">
        <ele>102.2</ele>
      </trkpt>
      <trkpt lat="36.70568" lon="28.05978">
        <ele>101.7</ele>
      </trkpt>
      <trkpt lat="36.70563" lon="28.05972">
        <ele>100.4</ele>
      </trkpt>
      <trkpt lat="36.7056" lon="28.05968">
        <ele>99.4</ele>
      </trkpt>
      <trkpt lat="36.70556" lon="28.05961">
        <ele>97.9</ele>
      </trkpt>
      <trkpt lat="36.70551" lon="28.05955">
        <ele>96.5</ele>
      </trkpt>
      <trkpt lat="36.70548" lon="28.0595">
        <ele>95.5</ele>
      </trkpt>
      <trkpt lat="36.70545" lon="28.05947">
        <ele>94.7</ele>
      </trkpt>
      <trkpt lat="36.70545" lon="28.05946">
        <ele>94.7</ele>
      </trkpt>
      <trkpt lat="36.70544" lon="28.05947">
        <ele>94.8</ele>
      </trkpt>
      <trkpt lat="36.70544" lon="28.05947">
        <ele>94.8</ele>
      </trkpt>
      <trkpt lat="36.70544" lon="28.05949">
        <ele>95</ele>
      </trkpt>
      <trkpt lat="36.70544" lon="28.0595">
        <ele>95.2</ele>
      </trkpt>
      <trkpt lat="36.70544" lon="28.0595">
        <ele>95.1</ele>
      </trkpt>
      <trkpt lat="36.70541" lon="28.0595">
        <ele>94.9</ele>
      </trkpt>
      <trkpt lat="36.70541" lon="28.05951">
        <ele>95</ele>
      </trkpt>
      <trkpt lat="36.7054" lon="28.0595">
        <ele>94.9</ele>
      </trkpt>
      <trkpt lat="36.70541" lon="28.0595">
        <ele>94.9</ele>
      </trkpt>
      <trkpt lat="36.7054" lon="28.05948">
        <ele>94.6</ele>
      </trkpt>
      <trkpt lat="36.70539" lon="28.05944">
        <ele>93.8</ele>
      </trkpt>
      <trkpt lat="36.70536" lon="28.05939">
        <ele>92.8</ele>
      </trkpt>
      <trkpt lat="36.70534" lon="28.05936">
        <ele>92.3</ele>
      </trkpt>
      <trkpt lat="36.70532" lon="28.05936">
        <ele>92</ele>
      </trkpt>
      <trkpt lat="36.7053" lon="28.05936">
        <ele>91.9</ele>
      </trkpt>
      <trkpt lat="36.70528" lon="28.05935">
        <ele>91.7</ele>
      </trkpt>
      <trkpt lat="36.70526" lon="28.05935">
        <ele>91.5</ele>
      </trkpt>
      <trkpt lat="36.70525" lon="28.05935">
        <ele>91.4</ele>
      </trkpt>
      <trkpt lat="36.70524" lon="28.05933">
        <ele>91</ele>
      </trkpt>
      <trkpt lat="36.70522" lon="28.05929">
        <ele>90.3</ele>
      </trkpt>
      <trkpt lat="36.7052" lon="28.05928">
        <ele>90.1</ele>
      </trkpt>
      <trkpt lat="36.70518" lon="28.05925">
        <ele>89.4</ele>
      </trkpt>
      <trkpt lat="36.70518" lon="28.05922">
        <ele>89</ele>
      </trkpt>
      <trkpt lat="36.70517" lon="28.05919">
        <ele>88.6</ele>
      </trkpt>
      <trkpt lat="36.70516" lon="28.05915">
        <ele>87.8</ele>
      </trkpt>
      <trkpt lat="36.70515" lon="28.0591">
        <ele>87</ele>
      </trkpt>
      <trkpt lat="36.70513" lon="28.05905">
        <ele>86.1</ele>
      </trkpt>
      <trkpt lat="36.70511" lon="28.05901">
        <ele>85.3</ele>
      </trkpt>
      <trkpt lat="36.70509" lon="28.05898">
        <ele>84.7</ele>
      </trkpt>
      <trkpt lat="36.70507" lon="28.05895">
        <ele>83.9</ele>
      </trkpt>
      <trkpt lat="36.70505" lon="28.05894">
        <ele>83.7</ele>
      </trkpt>
      <trkpt lat="36.70502" lon="28.05894">
        <ele>83.3</ele>
      </trkpt>
      <trkpt lat="36.70498" lon="28.05893">
        <ele>82.9</ele>
      </trkpt>
      <trkpt lat="36.70496" lon="28.05892">
        <ele>82.4</ele>
      </trkpt>
      <trkpt lat="36.70493" lon="28.05887">
        <ele>81.2</ele>
      </trkpt>
      <trkpt lat="36.70492" lon="28.05886">
        <ele>80.9</ele>
      </trkpt>
      <trkpt lat="36.70489" lon="28.05884">
        <ele>80.3</ele>
      </trkpt>
      <trkpt lat="36.70487" lon="28.05883">
        <ele>80</ele>
      </trkpt>
      <trkpt lat="36.70487" lon="28.05884">
        <ele>80</ele>
      </trkpt>
      <trkpt lat="36.70484" lon="28.05881">
        <ele>79.3</ele>
      </trkpt>
      <trkpt lat="36.70484" lon="28.0588">
        <ele>79</ele>
      </trkpt>
      <trkpt lat="36.70483" lon="28.05877">
        <ele>78.4</ele>
      </trkpt>
      <trkpt lat="36.70484" lon="28.05877">
        <ele>78.5</ele>
      </trkpt>
      <trkpt lat="36.70485" lon="28.05876">
        <ele>78.4</ele>
      </trkpt>
      <trkpt lat="36.70484" lon="28.05875">
        <ele>78.2</ele>
      </trkpt>
      <trkpt lat="36.70482" lon="28.05873">
        <ele>77.6</ele>
      </trkpt>
      <trkpt lat="36.70481" lon="28.05868">
        <ele>76.7</ele>
      </trkpt>
      <trkpt lat="36.70481" lon="28.05865">
        <ele>76</ele>
      </trkpt>
      <trkpt lat="36.70478" lon="28.0586">
        <ele>74.8</ele>
      </trkpt>
      <trkpt lat="36.70477" lon="28.05858">
        <ele>74.4</ele>
      </trkpt>
      <trkpt lat="36.70476" lon="28.05856">
        <ele>73.9</ele>
      </trkpt>
      <trkpt lat="36.70476" lon="28.05857">
        <ele>73.9</ele>
      </trkpt>
      <trkpt lat="36.70475" lon="28.05856">
        <ele>73.8</ele>
      </trkpt>
      <trkpt lat="36.70475" lon="28.05856">
        <ele>73.7</ele>
      </trkpt>
      <trkpt lat="36.70474" lon="28.05854">
        <ele>73.3</ele>
      </trkpt>
      <trkpt lat="36.70474" lon="28.05854">
        <ele>73.2</ele>
      </trkpt>
      <trkpt lat="36.70474" lon="28.05854">
        <ele>73.4</ele>
      </trkpt>
      <trkpt lat="36.70475" lon="28.05856">
        <ele>73.7</ele>
      </trkpt>
      <trkpt lat="36.70476" lon="28.05858">
        <ele>74.1</ele>
      </trkpt>
      <trkpt lat="36.70474" lon="28.05857">
        <ele>73.7</ele>
      </trkpt>
      <trkpt lat="36.7047" lon="28.05851">
        <ele>72.2</ele>
      </trkpt>
      <trkpt lat="36.70467" lon="28.05848">
        <ele>71.4</ele>
      </trkpt>
      <trkpt lat="36.70465" lon="28.05846">
        <ele>70.7</ele>
      </trkpt>
      <trkpt lat="36.70463" lon="28.05844">
        <ele>70.2</ele>
      </trkpt>
      <trkpt lat="36.70462" lon="28.05844">
        <ele>70</ele>
      </trkpt>
      <trkpt lat="36.7046" lon="28.05842">
        <ele>69.3</ele>
      </trkpt>
      <trkpt lat="36.70458" lon="28.0584">
        <ele>68.8</ele>
      </trkpt>
      <trkpt lat="36.70456" lon="28.05838">
        <ele>68</ele>
      </trkpt>
      <trkpt lat="36.70454" lon="28.05836">
        <ele>67.5</ele>
      </trkpt>
      <trkpt lat="36.70453" lon="28.05836">
        <ele>67.3</ele>
      </trkpt>
      <trkpt lat="36.70448" lon="28.05833">
        <ele>66.2</ele>
      </trkpt>
      <trkpt lat="36.70446" lon="28.05831">
        <ele>65.8</ele>
      </trkpt>
      <trkpt lat="36.70445" lon="28.05828">
        <ele>65.5</ele>
      </trkpt>
      <trkpt lat="36.70444" lon="28.05827">
        <ele>65.4</ele>
      </trkpt>
      <trkpt lat="36.70445" lon="28.05825">
        <ele>65.4</ele>
      </trkpt>
      <trkpt lat="36.70447" lon="28.0582">
        <ele>65.6</ele>
      </trkpt>
      <trkpt lat="36.70448" lon="28.05817">
        <ele>65.7</ele>
      </trkpt>
      <trkpt lat="36.70446" lon="28.05811">
        <ele>65.2</ele>
      </trkpt>
      <trkpt lat="36.70445" lon="28.05811">
        <ele>65.1</ele>
      </trkpt>
      <trkpt lat="36.70445" lon="28.0581">
        <ele>64.9</ele>
      </trkpt>
      <trkpt lat="36.70444" lon="28.0581">
        <ele>64.9</ele>
      </trkpt>
      <trkpt lat="36.70444" lon="28.0581">
        <ele>64.9</ele>
      </trkpt>
      <trkpt lat="36.70442" lon="28.05807">
        <ele>64.5</ele>
      </trkpt>
      <trkpt lat="36.70441" lon="28.05804">
        <ele>64.1</ele>
      </trkpt>
      <trkpt lat="36.7044" lon="28.05802">
        <ele>63.8</ele>
      </trkpt>
      <trkpt lat="36.70438" lon="28.05801">
        <ele>63.4</ele>
      </trkpt>
      <trkpt lat="36.70436" lon="28.058">
        <ele>62.9</ele>
      </trkpt>
      <trkpt lat="36.70432" lon="28.05799">
        <ele>62</ele>
      </trkpt>
      <trkpt lat="36.70428" lon="28.058">
        <ele>61.4</ele>
      </trkpt>
      <trkpt lat="36.70424" lon="28.05801">
        <ele>60.7</ele>
      </trkpt>
      <trkpt lat="36.70422" lon="28.05801">
        <ele>60.3</ele>
      </trkpt>
      <trkpt lat="36.70418" lon="28.05802">
        <ele>59.7</ele>
      </trkpt>
      <trkpt lat="36.70416" lon="28.05797">
        <ele>58.9</ele>
      </trkpt>
      <trkpt lat="36.70415" lon="28.05794">
        <ele>58.6</ele>
      </trkpt>
      <trkpt lat="36.70412" lon="28.05792">
        <ele>58.2</ele>
      </trkpt>
      <trkpt lat="36.7041" lon="28.05791">
        <ele>58</ele>
      </trkpt>
      <trkpt lat="36.70409" lon="28.05789">
        <ele>57.7</ele>
      </trkpt>
      <trkpt lat="36.70407" lon="28.05787">
        <ele>57.5</ele>
      </trkpt>
      <trkpt lat="36.70405" lon="28.05786">
        <ele>57.2</ele>
      </trkpt>
      <trkpt lat="36.70402" lon="28.05783">
        <ele>56.7</ele>
      </trkpt>
      <trkpt lat="36.704" lon="28.0578">
        <ele>56.3</ele>
      </trkpt>
      <trkpt lat="36.70398" lon="28.05778">
        <ele>55.9</ele>
      </trkpt>
      <trkpt lat="36.70396" lon="28.05775">
        <ele>55.5</ele>
      </trkpt>
      <trkpt lat="36.70394" lon="28.05773">
        <ele>55.1</ele>
      </trkpt>
      <trkpt lat="36.70391" lon="28.05771">
        <ele>54.7</ele>
      </trkpt>
      <trkpt lat="36.70389" lon="28.05768">
        <ele>54.3</ele>
      </trkpt>
      <trkpt lat="36.70387" lon="28.05766">
        <ele>53.8</ele>
      </trkpt>
      <trkpt lat="36.70384" lon="28.05762">
        <ele>53.2</ele>
      </trkpt>
      <trkpt lat="36.7038" lon="28.0576">
        <ele>52.6</ele>
      </trkpt>
      <trkpt lat="36.70379" lon="28.05759">
        <ele>52.4</ele>
      </trkpt>
      <trkpt lat="36.70376" lon="28.05758">
        <ele>52</ele>
      </trkpt>
      <trkpt lat="36.70374" lon="28.05756">
        <ele>51.7</ele>
      </trkpt>
      <trkpt lat="36.70371" lon="28.05755">
        <ele>51.2</ele>
      </trkpt>
      <trkpt lat="36.70368" lon="28.05754">
        <ele>50.9</ele>
      </trkpt>
      <trkpt lat="36.70366" lon="28.05754">
        <ele>50.6</ele>
      </trkpt>
      <trkpt lat="36.70363" lon="28.05753">
        <ele>50.1</ele>
      </trkpt>
      <trkpt lat="36.7036" lon="28.05748">
        <ele>49.6</ele>
      </trkpt>
      <trkpt lat="36.70357" lon="28.05744">
        <ele>49.5</ele>
      </trkpt>
      <trkpt lat="36.70354" lon="28.05741">
        <ele>49.3</ele>
      </trkpt>
      <trkpt lat="36.70352" lon="28.0574">
        <ele>49</ele>
      </trkpt>
      <trkpt lat="36.70349" lon="28.05738">
        <ele>48.7</ele>
      </trkpt>
      <trkpt lat="36.70345" lon="28.05737">
        <ele>48.3</ele>
      </trkpt>
      <trkpt lat="36.70342" lon="28.05735">
        <ele>47.9</ele>
      </trkpt>
      <trkpt lat="36.7034" lon="28.05734">
        <ele>47.6</ele>
      </trkpt>
      <trkpt lat="36.70337" lon="28.05733">
        <ele>47.3</ele>
      </trkpt>
      <trkpt lat="36.70336" lon="28.05732">
        <ele>47.1</ele>
      </trkpt>
      <trkpt lat="36.70332" lon="28.05729">
        <ele>46.7</ele>
      </trkpt>
      <trkpt lat="36.7033" lon="28.05728">
        <ele>46.7</ele>
      </trkpt>
      <trkpt lat="36.70326" lon="28.05725">
        <ele>46.6</ele>
      </trkpt>
      <trkpt lat="36.70323" lon="28.05725">
        <ele>46.6</ele>
      </trkpt>
      <trkpt lat="36.70322" lon="28.05724">
        <ele>46.6</ele>
      </trkpt>
      <trkpt lat="36.70319" lon="28.05722">
        <ele>46.5</ele>
      </trkpt>
      <trkpt lat="36.70318" lon="28.05722">
        <ele>46.5</ele>
      </trkpt>
      <trkpt lat="36.70313" lon="28.05721">
        <ele>46.4</ele>
      </trkpt>
      <trkpt lat="36.70308" lon="28.05716">
        <ele>46.1</ele>
      </trkpt>
      <trkpt lat="36.70304" lon="28.05714">
        <ele>45.9</ele>
      </trkpt>
      <trkpt lat="36.703" lon="28.05712">
        <ele>45.7</ele>
      </trkpt>
      <trkpt lat="36.70297" lon="28.05711">
        <ele>45.6</ele>
      </trkpt>
      <trkpt lat="36.70293" lon="28.05711">
        <ele>45.5</ele>
      </trkpt>
      <trkpt lat="36.7029" lon="28.0571">
        <ele>45.3</ele>
      </trkpt>
      <trkpt lat="36.70286" lon="28.05707">
        <ele>45</ele>
      </trkpt>
      <trkpt lat="36.70283" lon="28.05705">
        <ele>44.8</ele>
      </trkpt>
      <trkpt lat="36.7028" lon="28.05703">
        <ele>44.4</ele>
      </trkpt>
      <trkpt lat="36.70278" lon="28.05701">
        <ele>44.2</ele>
      </trkpt>
      <trkpt lat="36.70276" lon="28.057">
        <ele>44</ele>
      </trkpt>
      <trkpt lat="36.70273" lon="28.05698">
        <ele>43.7</ele>
      </trkpt>
      <trkpt lat="36.70269" lon="28.05696">
        <ele>43.4</ele>
      </trkpt>
      <trkpt lat="36.70265" lon="28.05694">
        <ele>43</ele>
      </trkpt>
      <trkpt lat="36.70262" lon="28.05693">
        <ele>42.8</ele>
      </trkpt>
      <trkpt lat="36.70257" lon="28.05689">
        <ele>42.1</ele>
      </trkpt>
      <trkpt lat="36.70255" lon="28.05687">
        <ele>41.8</ele>
      </trkpt>
      <trkpt lat="36.70252" lon="28.05685">
        <ele>41.3</ele>
      </trkpt>
      <trkpt lat="36.7025" lon="28.05683">
        <ele>41</ele>
      </trkpt>
      <trkpt lat="36.70247" lon="28.0568">
        <ele>40.7</ele>
      </trkpt>
      <trkpt lat="36.70244" lon="28.05678">
        <ele>40.5</ele>
      </trkpt>
      <trkpt lat="36.7024" lon="28.05676">
        <ele>40.3</ele>
      </trkpt>
      <trkpt lat="36.70236" lon="28.05675">
        <ele>40.3</ele>
      </trkpt>
      <trkpt lat="36.70232" lon="28.05672">
        <ele>40.1</ele>
      </trkpt>
      <trkpt lat="36.70229" lon="28.05671">
        <ele>40</ele>
      </trkpt>
      <trkpt lat="36.70225" lon="28.0567">
        <ele>40</ele>
      </trkpt>
      <trkpt lat="36.70222" lon="28.05668">
        <ele>39.9</ele>
      </trkpt>
      <trkpt lat="36.70216" lon="28.05666">
        <ele>39.8</ele>
      </trkpt>
      <trkpt lat="36.70214" lon="28.05663">
        <ele>39.7</ele>
      </trkpt>
      <trkpt lat="36.70211" lon="28.05657">
        <ele>39.5</ele>
      </trkpt>
      <trkpt lat="36.7021" lon="28.05655">
        <ele>39.4</ele>
      </trkpt>
      <trkpt lat="36.70206" lon="28.05651">
        <ele>39.3</ele>
      </trkpt>
      <trkpt lat="36.70204" lon="28.0565">
        <ele>39.2</ele>
      </trkpt>
      <trkpt lat="36.70202" lon="28.05646">
        <ele>39</ele>
      </trkpt>
      <trkpt lat="36.702" lon="28.05642">
        <ele>38.8</ele>
      </trkpt>
      <trkpt lat="36.70197" lon="28.05639">
        <ele>38.7</ele>
      </trkpt>
      <trkpt lat="36.70195" lon="28.05636">
        <ele>38.5</ele>
      </trkpt>
      <trkpt lat="36.70191" lon="28.05631">
        <ele>38.2</ele>
      </trkpt>
      <trkpt lat="36.70189" lon="28.05628">
        <ele>38</ele>
      </trkpt>
      <trkpt lat="36.70187" lon="28.05624">
        <ele>37.7</ele>
      </trkpt>
      <trkpt lat="36.70186" lon="28.05621">
        <ele>37.4</ele>
      </trkpt>
      <trkpt lat="36.70184" lon="28.05617">
        <ele>37.2</ele>
      </trkpt>
      <trkpt lat="36.70182" lon="28.05614">
        <ele>36.9</ele>
      </trkpt>
      <trkpt lat="36.70178" lon="28.0561">
        <ele>36.5</ele>
      </trkpt>
      <trkpt lat="36.70176" lon="28.05609">
        <ele>36.3</ele>
      </trkpt>
      <trkpt lat="36.70172" lon="28.05604">
        <ele>35.9</ele>
      </trkpt>
      <trkpt lat="36.7017" lon="28.05601">
        <ele>35.6</ele>
      </trkpt>
      <trkpt lat="36.70169" lon="28.05598">
        <ele>35.3</ele>
      </trkpt>
      <trkpt lat="36.70166" lon="28.05592">
        <ele>34.8</ele>
      </trkpt>
      <trkpt lat="36.70165" lon="28.0559">
        <ele>34.5</ele>
      </trkpt>
      <trkpt lat="36.70161" lon="28.05584">
        <ele>34.1</ele>
      </trkpt>
      <trkpt lat="36.70159" lon="28.05582">
        <ele>33.9</ele>
      </trkpt>
      <trkpt lat="36.70157" lon="28.05579">
        <ele>33.8</ele>
      </trkpt>
      <trkpt lat="36.70155" lon="28.05577">
        <ele>33.7</ele>
      </trkpt>
      <trkpt lat="36.70153" lon="28.05574">
        <ele>33.5</ele>
      </trkpt>
      <trkpt lat="36.7015" lon="28.0557">
        <ele>33.3</ele>
      </trkpt>
      <trkpt lat="36.70146" lon="28.05564">
        <ele>33</ele>
      </trkpt>
      <trkpt lat="36.70145" lon="28.05562">
        <ele>32.8</ele>
      </trkpt>
      <trkpt lat="36.70143" lon="28.05557">
        <ele>32.6</ele>
      </trkpt>
      <trkpt lat="36.70141" lon="28.05554">
        <ele>32.4</ele>
      </trkpt>
      <trkpt lat="36.70139" lon="28.0555">
        <ele>32.1</ele>
      </trkpt>
      <trkpt lat="36.70137" lon="28.05546">
        <ele>31.9</ele>
      </trkpt>
      <trkpt lat="36.70135" lon="28.0554">
        <ele>31.5</ele>
      </trkpt>
      <trkpt lat="36.70133" lon="28.05537">
        <ele>31.3</ele>
      </trkpt>
      <trkpt lat="36.70129" lon="28.05532">
        <ele>31</ele>
      </trkpt>
      <trkpt lat="36.70128" lon="28.0553">
        <ele>30.8</ele>
      </trkpt>
      <trkpt lat="36.70125" lon="28.05525">
        <ele>30.5</ele>
      </trkpt>
      <trkpt lat="36.70123" lon="28.05521">
        <ele>30.3</ele>
      </trkpt>
      <trkpt lat="36.70122" lon="28.05516">
        <ele>29.9</ele>
      </trkpt>
      <trkpt lat="36.70121" lon="28.05512">
        <ele>29.6</ele>
      </trkpt>
      <trkpt lat="36.70118" lon="28.05508">
        <ele>29.3</ele>
      </trkpt>
      <trkpt lat="36.70115" lon="28.05504">
        <ele>29</ele>
      </trkpt>
      <trkpt lat="36.70114" lon="28.05501">
        <ele>28.8</ele>
      </trkpt>
      <trkpt lat="36.70112" lon="28.05497">
        <ele>28.6</ele>
      </trkpt>
      <trkpt lat="36.70109" lon="28.05492">
        <ele>28.4</ele>
      </trkpt>
      <trkpt lat="36.70108" lon="28.0549">
        <ele>28.3</ele>
      </trkpt>
      <trkpt lat="36.70104" lon="28.05484">
        <ele>28</ele>
      </trkpt>
      <trkpt lat="36.70103" lon="28.05483">
        <ele>28</ele>
      </trkpt>
      <trkpt lat="36.70102" lon="28.05482">
        <ele>27.9</ele>
      </trkpt>
      <trkpt lat="36.70102" lon="28.05483">
        <ele>27.9</ele>
      </trkpt>
      <trkpt lat="36.70101" lon="28.05482">
        <ele>27.9</ele>
      </trkpt>
      <trkpt lat="36.70101" lon="28.05481">
        <ele>27.8</ele>
      </trkpt>
      <trkpt lat="36.70101" lon="28.0548">
        <ele>27.8</ele>
      </trkpt>
      <trkpt lat="36.701" lon="28.05479">
        <ele>27.8</ele>
      </trkpt>
      <trkpt lat="36.701" lon="28.0548">
        <ele>27.8</ele>
      </trkpt>
      <trkpt lat="36.701" lon="28.0548">
        <ele>27.8</ele>
      </trkpt>
      <trkpt lat="36.701" lon="28.0548">
        <ele>27.8</ele>
      </trkpt>
      <trkpt lat="36.701" lon="28.0548">
        <ele>27.8</ele>
      </trkpt>
      <trkpt lat="36.701" lon="28.0548">
        <ele>27.8</ele>
      </trkpt>
      <trkpt lat="36.70099" lon="28.05477">
        <ele>27.6</ele>
      </trkpt>
      <trkpt lat="36.70097" lon="28.05475">
        <ele>27.5</ele>
      </trkpt>
      <trkpt lat="36.70095" lon="28.05474">
        <ele>27.4</ele>
      </trkpt>
      <trkpt lat="36.70092" lon="28.05469">
        <ele>27.2</ele>
      </trkpt>
      <trkpt lat="36.7009" lon="28.05465">
        <ele>27</ele>
      </trkpt>
      <trkpt lat="36.70088" lon="28.05461">
        <ele>26.8</ele>
      </trkpt>
      <trkpt lat="36.70086" lon="28.05458">
        <ele>26.6</ele>
      </trkpt>
      <trkpt lat="36.70083" lon="28.05456">
        <ele>26.4</ele>
      </trkpt>
      <trkpt lat="36.70079" lon="28.05452">
        <ele>26.4</ele>
      </trkpt>
      <trkpt lat="36.70077" lon="28.05448">
        <ele>26.4</ele>
      </trkpt>
      <trkpt lat="36.70074" lon="28.05445">
        <ele>26.4</ele>
      </trkpt>
      <trkpt lat="36.70072" lon="28.05442">
        <ele>26.4</ele>
      </trkpt>
      <trkpt lat="36.70069" lon="28.05439">
        <ele>26.5</ele>
      </trkpt>
      <trkpt lat="36.70066" lon="28.05435">
        <ele>26.5</ele>
      </trkpt>
      <trkpt lat="36.70064" lon="28.05433">
        <ele>26.5</ele>
      </trkpt>
      <trkpt lat="36.70063" lon="28.0543">
        <ele>26.5</ele>
      </trkpt>
      <trkpt lat="36.70061" lon="28.05427">
        <ele>26.5</ele>
      </trkpt>
      <trkpt lat="36.70058" lon="28.05424">
        <ele>26.6</ele>
      </trkpt>
      <trkpt lat="36.70057" lon="28.05423">
        <ele>26.7</ele>
      </trkpt>
      <trkpt lat="36.70055" lon="28.05424">
        <ele>26.8</ele>
      </trkpt>
      <trkpt lat="36.70055" lon="28.05424">
        <ele>26.8</ele>
      </trkpt>
      <trkpt lat="36.70055" lon="28.05424">
        <ele>26.8</ele>
      </trkpt>
      <trkpt lat="36.70055" lon="28.05424">
        <ele>26.8</ele>
      </trkpt>
      <trkpt lat="36.70054" lon="28.05424">
        <ele>26.9</ele>
      </trkpt>
      <trkpt lat="36.70054" lon="28.05424">
        <ele>26.9</ele>
      </trkpt>
      <trkpt lat="36.70053" lon="28.05422">
        <ele>26.9</ele>
      </trkpt>
      <trkpt lat="36.70053" lon="28.05422">
        <ele>26.9</ele>
      </trkpt>
      <trkpt lat="36.70053" lon="28.05421">
        <ele>26.9</ele>
      </trkpt>
      <trkpt lat="36.70054" lon="28.05421">
        <ele>26.8</ele>
      </trkpt>
      <trkpt lat="36.70053" lon="28.05421">
        <ele>26.9</ele>
      </trkpt>
      <trkpt lat="36.70054" lon="28.05421">
        <ele>26.8</ele>
      </trkpt>
      <trkpt lat="36.70054" lon="28.05421">
        <ele>26.8</ele>
      </trkpt>
      <trkpt lat="36.70054" lon="28.0542">
        <ele>26.8</ele>
      </trkpt>
      <trkpt lat="36.70057" lon="28.05418">
        <ele>26.6</ele>
      </trkpt>
      <trkpt lat="36.70062" lon="28.05414">
        <ele>26.3</ele>
      </trkpt>
      <trkpt lat="36.70063" lon="28.05413">
        <ele>26.2</ele>
      </trkpt>
      <trkpt lat="36.70068" lon="28.0541">
        <ele>25.9</ele>
      </trkpt>
      <trkpt lat="36.70068" lon="28.0541">
        <ele>25.9</ele>
      </trkpt>
      <trkpt lat="36.70068" lon="28.0541">
        <ele>25.9</ele>
      </trkpt>
      <trkpt lat="36.70068" lon="28.05409">
        <ele>25.9</ele>
      </trkpt>
      <trkpt lat="36.7007" lon="28.05407">
        <ele>25.7</ele>
      </trkpt>
      <trkpt lat="36.70073" lon="28.05402">
        <ele>25.6</ele>
      </trkpt>
      <trkpt lat="36.70077" lon="28.05397">
        <ele>25.3</ele>
      </trkpt>
      <trkpt lat="36.70081" lon="28.05393">
        <ele>25.1</ele>
      </trkpt>
      <trkpt lat="36.70085" lon="28.0539">
        <ele>25.1</ele>
      </trkpt>
      <trkpt lat="36.70088" lon="28.05387">
        <ele>25.3</ele>
      </trkpt>
      <trkpt lat="36.70092" lon="28.05384">
        <ele>25.6</ele>
      </trkpt>
      <trkpt lat="36.70094" lon="28.05384">
        <ele>25.7</ele>
      </trkpt>
      <trkpt lat="36.70095" lon="28.05382">
        <ele>25.8</ele>
      </trkpt>
      <trkpt lat="36.70095" lon="28.05379">
        <ele>25.8</ele>
      </trkpt>
      <trkpt lat="36.70096" lon="28.05379">
        <ele>25.9</ele>
      </trkpt>
      <trkpt lat="36.70095" lon="28.05376">
        <ele>25.8</ele>
      </trkpt>
      <trkpt lat="36.70101" lon="28.0537">
        <ele>26.3</ele>
      </trkpt>
      <trkpt lat="36.70103" lon="28.05369">
        <ele>26.4</ele>
      </trkpt>
      <trkpt lat="36.70103" lon="28.05369">
        <ele>26.5</ele>
      </trkpt>
      <trkpt lat="36.70104" lon="28.05366">
        <ele>26.6</ele>
      </trkpt>
      <trkpt lat="36.70104" lon="28.05365">
        <ele>26.6</ele>
      </trkpt>
      <trkpt lat="36.70105" lon="28.05364">
        <ele>26.7</ele>
      </trkpt>
      <trkpt lat="36.70106" lon="28.0536">
        <ele>26.9</ele>
      </trkpt>
      <trkpt lat="36.70109" lon="28.05355">
        <ele>27.2</ele>
      </trkpt>
      <trkpt lat="36.70112" lon="28.05351">
        <ele>27.4</ele>
      </trkpt>
      <trkpt lat="36.70117" lon="28.05344">
        <ele>28</ele>
      </trkpt>
      <trkpt lat="36.70119" lon="28.05341">
        <ele>28.3</ele>
      </trkpt>
      <trkpt lat="36.70119" lon="28.05337">
        <ele>28.3</ele>
      </trkpt>
      <trkpt lat="36.70119" lon="28.05335">
        <ele>28.4</ele>
      </trkpt>
      <trkpt lat="36.70119" lon="28.05334">
        <ele>28.4</ele>
      </trkpt>
      <trkpt lat="36.7012" lon="28.05332">
        <ele>28.6</ele>
      </trkpt>
      <trkpt lat="36.7012" lon="28.0533">
        <ele>28.7</ele>
      </trkpt>
      <trkpt lat="36.70121" lon="28.05329">
        <ele>28.9</ele>
      </trkpt>
      <trkpt lat="36.70124" lon="28.05328">
        <ele>29.2</ele>
      </trkpt>
      <trkpt lat="36.70125" lon="28.05325">
        <ele>29.4</ele>
      </trkpt>
      <trkpt lat="36.70125" lon="28.05322">
        <ele>29.6</ele>
      </trkpt>
      <trkpt lat="36.70124" lon="28.05318">
        <ele>29.8</ele>
      </trkpt>
      <trkpt lat="36.70123" lon="28.05313">
        <ele>30.1</ele>
      </trkpt>
      <trkpt lat="36.70122" lon="28.05311">
        <ele>30.1</ele>
      </trkpt>
      <trkpt lat="36.7012" lon="28.0531">
        <ele>29.9</ele>
      </trkpt>
      <trkpt lat="36.70119" lon="28.05307">
        <ele>30</ele>
      </trkpt>
      <trkpt lat="36.70117" lon="28.05304">
        <ele>29.9</ele>
      </trkpt>
      <trkpt lat="36.70115" lon="28.05299">
        <ele>30.1</ele>
      </trkpt>
      <trkpt lat="36.70117" lon="28.05298">
        <ele>30.3</ele>
      </trkpt>
      <trkpt lat="36.70117" lon="28.05293">
        <ele>30.7</ele>
      </trkpt>
      <trkpt lat="36.70119" lon="28.05288">
        <ele>31.1</ele>
      </trkpt>
      <trkpt lat="36.70119" lon="28.05281">
        <ele>31.5</ele>
      </trkpt>
      <trkpt lat="36.70118" lon="28.05279">
        <ele>31.6</ele>
      </trkpt>
      <trkpt lat="36.70118" lon="28.05277">
        <ele>31.7</ele>
      </trkpt>
      <trkpt lat="36.70117" lon="28.05273">
        <ele>31.9</ele>
      </trkpt>
      <trkpt lat="36.70118" lon="28.05271">
        <ele>32</ele>
      </trkpt>
      <trkpt lat="36.70118" lon="28.05269">
        <ele>32.2</ele>
      </trkpt>
      <trkpt lat="36.70118" lon="28.05267">
        <ele>32.2</ele>
      </trkpt>
      <trkpt lat="36.70118" lon="28.05266">
        <ele>32.3</ele>
      </trkpt>
      <trkpt lat="36.70117" lon="28.05265">
        <ele>32.4</ele>
      </trkpt>
      <trkpt lat="36.70118" lon="28.05265">
        <ele>32.4</ele>
      </trkpt>
      <trkpt lat="36.70118" lon="28.05265">
        <ele>32.4</ele>
      </trkpt>
      <trkpt lat="36.70118" lon="28.05265">
        <ele>32.5</ele>
      </trkpt>
      <trkpt lat="36.70118" lon="28.05265">
        <ele>32.4</ele>
      </trkpt>
      <trkpt lat="36.70118" lon="28.05265">
        <ele>32.4</ele>
      </trkpt>
      <trkpt lat="36.70118" lon="28.05265">
        <ele>32.5</ele>
      </trkpt>
      <trkpt lat="36.70119" lon="28.05265">
        <ele>32.6</ele>
      </trkpt>
      <trkpt lat="36.70119" lon="28.05265">
        <ele>32.6</ele>
      </trkpt>
      <trkpt lat="36.7012" lon="28.05264">
        <ele>32.6</ele>
      </trkpt>
      <trkpt lat="36.70121" lon="28.05265">
        <ele>32.7</ele>
      </trkpt>
      <trkpt lat="36.70124" lon="28.05259">
        <ele>33.3</ele>
      </trkpt>
      <trkpt lat="36.70125" lon="28.05256">
        <ele>33.6</ele>
      </trkpt>
      <trkpt lat="36.70126" lon="28.05254">
        <ele>33.8</ele>
      </trkpt>
      <trkpt lat="36.70126" lon="28.05254">
        <ele>33.9</ele>
      </trkpt>
      <trkpt lat="36.70127" lon="28.05254">
        <ele>33.9</ele>
      </trkpt>
      <trkpt lat="36.70128" lon="28.05252">
        <ele>34.2</ele>
      </trkpt>
      <trkpt lat="36.7013" lon="28.0525">
        <ele>34.5</ele>
      </trkpt>
      <trkpt lat="36.70131" lon="28.05248">
        <ele>34.7</ele>
      </trkpt>
      <trkpt lat="36.70131" lon="28.05245">
        <ele>34.7</ele>
      </trkpt>
      <trkpt lat="36.7013" lon="28.05242">
        <ele>34.8</ele>
      </trkpt>
      <trkpt lat="36.70129" lon="28.05236">
        <ele>34.8</ele>
      </trkpt>
      <trkpt lat="36.70128" lon="28.0523">
        <ele>34.9</ele>
      </trkpt>
      <trkpt lat="36.70128" lon="28.05226">
        <ele>35</ele>
      </trkpt>
      <trkpt lat="36.70127" lon="28.05224">
        <ele>35</ele>
      </trkpt>
      <trkpt lat="36.70126" lon="28.0522">
        <ele>35</ele>
      </trkpt>
      <trkpt lat="36.70125" lon="28.05217">
        <ele>35</ele>
      </trkpt>
      <trkpt lat="36.70125" lon="28.05216">
        <ele>35</ele>
      </trkpt>
      <trkpt lat="36.70124" lon="28.05215">
        <ele>35</ele>
      </trkpt>
      <trkpt lat="36.70124" lon="28.05214">
        <ele>34.9</ele>
      </trkpt>
      <trkpt lat="36.70123" lon="28.05213">
        <ele>34.9</ele>
      </trkpt>
      <trkpt lat="36.70123" lon="28.05213">
        <ele>34.8</ele>
      </trkpt>
      <trkpt lat="36.70123" lon="28.0521">
        <ele>34.9</ele>
      </trkpt>
      <trkpt lat="36.70123" lon="28.05208">
        <ele>35</ele>
      </trkpt>
      <trkpt lat="36.70123" lon="28.05208">
        <ele>35</ele>
      </trkpt>
      <trkpt lat="36.70123" lon="28.05205">
        <ele>35.1</ele>
      </trkpt>
      <trkpt lat="36.70123" lon="28.05202">
        <ele>35.2</ele>
      </trkpt>
      <trkpt lat="36.70123" lon="28.05197">
        <ele>35.4</ele>
      </trkpt>
      <trkpt lat="36.70123" lon="28.05193">
        <ele>35.5</ele>
      </trkpt>
      <trkpt lat="36.70121" lon="28.05189">
        <ele>35.4</ele>
      </trkpt>
      <trkpt lat="36.7012" lon="28.05187">
        <ele>35.3</ele>
      </trkpt>
      <trkpt lat="36.7012" lon="28.05187">
        <ele>35.3</ele>
      </trkpt>
      <trkpt lat="36.7012" lon="28.05186">
        <ele>35.3</ele>
      </trkpt>
      <trkpt lat="36.7012" lon="28.05185">
        <ele>35.4</ele>
      </trkpt>
      <trkpt lat="36.70121" lon="28.05185">
        <ele>35.4</ele>
      </trkpt>
      <trkpt lat="36.70121" lon="28.05185">
        <ele>35.4</ele>
      </trkpt>
      <trkpt lat="36.70119" lon="28.05182">
        <ele>35.2</ele>
      </trkpt>
      <trkpt lat="36.70117" lon="28.05179">
        <ele>35.1</ele>
      </trkpt>
      <trkpt lat="36.70115" lon="28.05177">
        <ele>34.9</ele>
      </trkpt>
      <trkpt lat="36.70112" lon="28.05173">
        <ele>34.7</ele>
      </trkpt>
      <trkpt lat="36.7011" lon="28.05169">
        <ele>34.4</ele>
      </trkpt>
      <trkpt lat="36.70108" lon="28.05165">
        <ele>34.4</ele>
      </trkpt>
      <trkpt lat="36.70109" lon="28.05165">
        <ele>34.5</ele>
      </trkpt>
      <trkpt lat="36.70109" lon="28.05162">
        <ele>34.6</ele>
      </trkpt>
      <trkpt lat="36.70109" lon="28.05159">
        <ele>34.6</ele>
      </trkpt>
      <trkpt lat="36.70109" lon="28.0516">
        <ele>34.7</ele>
      </trkpt>
      <trkpt lat="36.70109" lon="28.0516">
        <ele>34.7</ele>
      </trkpt>
      <trkpt lat="36.70109" lon="28.0516">
        <ele>34.7</ele>
      </trkpt>
      <trkpt lat="36.70108" lon="28.05159">
        <ele>34.6</ele>
      </trkpt>
      <trkpt lat="36.70109" lon="28.05159">
        <ele>34.6</ele>
      </trkpt>
      <trkpt lat="36.70109" lon="28.0516">
        <ele>34.6</ele>
      </trkpt>
      <trkpt lat="36.70106" lon="28.05154">
        <ele>34.4</ele>
      </trkpt>
      <trkpt lat="36.70106" lon="28.05154">
        <ele>34.5</ele>
      </trkpt>
      <trkpt lat="36.70106" lon="28.05154">
        <ele>34.5</ele>
      </trkpt>
      <trkpt lat="36.70105" lon="28.05153">
        <ele>34.4</ele>
      </trkpt>
      <trkpt lat="36.70104" lon="28.05152">
        <ele>34.3</ele>
      </trkpt>
      <trkpt lat="36.70102" lon="28.05152">
        <ele>34.1</ele>
      </trkpt>
      <trkpt lat="36.70099" lon="28.0515">
        <ele>33.8</ele>
      </trkpt>
      <trkpt lat="36.70097" lon="28.05148">
        <ele>33.6</ele>
      </trkpt>
      <trkpt lat="36.70096" lon="28.05147">
        <ele>33.5</ele>
      </trkpt>
      <trkpt lat="36.70093" lon="28.05147">
        <ele>33.2</ele>
      </trkpt>
      <trkpt lat="36.70091" lon="28.05145">
        <ele>33</ele>
      </trkpt>
      <trkpt lat="36.70088" lon="28.05141">
        <ele>32.9</ele>
      </trkpt>
      <trkpt lat="36.70088" lon="28.05142">
        <ele>32.7</ele>
      </trkpt>
      <trkpt lat="36.70086" lon="28.05141">
        <ele>32.5</ele>
      </trkpt>
      <trkpt lat="36.70083" lon="28.05137">
        <ele>32.4</ele>
      </trkpt>
      <trkpt lat="36.70082" lon="28.05135">
        <ele>32.3</ele>
      </trkpt>
      <trkpt lat="36.7008" lon="28.05134">
        <ele>32.2</ele>
      </trkpt>
      <trkpt lat="36.70081" lon="28.05133">
        <ele>32.3</ele>
      </trkpt>
      <trkpt lat="36.70081" lon="28.05132">
        <ele>32.4</ele>
      </trkpt>
      <trkpt lat="36.70082" lon="28.05132">
        <ele>32.4</ele>
      </trkpt>
      <trkpt lat="36.70082" lon="28.05131">
        <ele>32.5</ele>
      </trkpt>
      <trkpt lat="36.70083" lon="28.05131">
        <ele>32.6</ele>
      </trkpt>
      <trkpt lat="36.70083" lon="28.0513">
        <ele>32.8</ele>
      </trkpt>
      <trkpt lat="36.70083" lon="28.0513">
        <ele>32.7</ele>
      </trkpt>
      <trkpt lat="36.70082" lon="28.0513">
        <ele>32.6</ele>
      </trkpt>
      <trkpt lat="36.70082" lon="28.05128">
        <ele>32.7</ele>
      </trkpt>
      <trkpt lat="36.70082" lon="28.05125">
        <ele>32.8</ele>
      </trkpt>
      <trkpt lat="36.70083" lon="28.05124">
        <ele>33</ele>
      </trkpt>
      <trkpt lat="36.70084" lon="28.05123">
        <ele>33.1</ele>
      </trkpt>
      <trkpt lat="36.70083" lon="28.05122">
        <ele>33.1</ele>
      </trkpt>
      <trkpt lat="36.70083" lon="28.05121">
        <ele>33.1</ele>
      </trkpt>
      <trkpt lat="36.70082" lon="28.05119">
        <ele>33.1</ele>
      </trkpt>
      <trkpt lat="36.7008" lon="28.05117">
        <ele>33</ele>
      </trkpt>
      <trkpt lat="36.7008" lon="28.05115">
        <ele>33</ele>
      </trkpt>
      <trkpt lat="36.70079" lon="28.05114">
        <ele>33</ele>
      </trkpt>
      <trkpt lat="36.70079" lon="28.05108">
        <ele>33.3</ele>
      </trkpt>
      <trkpt lat="36.70077" lon="28.05103">
        <ele>33.3</ele>
      </trkpt>
      <trkpt lat="36.70076" lon="28.05101">
        <ele>33.2</ele>
      </trkpt>
      <trkpt lat="36.70076" lon="28.051">
        <ele>33.2</ele>
      </trkpt>
      <trkpt lat="36.70077" lon="28.051">
        <ele>33.3</ele>
      </trkpt>
      <trkpt lat="36.70077" lon="28.05101">
        <ele>33.3</ele>
      </trkpt>
      <trkpt lat="36.70077" lon="28.05101">
        <ele>33.3</ele>
      </trkpt>
      <trkpt lat="36.70077" lon="28.051">
        <ele>33.4</ele>
      </trkpt>
      <trkpt lat="36.70077" lon="28.05096">
        <ele>33.6</ele>
      </trkpt>
      <trkpt lat="36.70077" lon="28.05094">
        <ele>33.7</ele>
      </trkpt>
      <trkpt lat="36.70076" lon="28.05092">
        <ele>33.7</ele>
      </trkpt>
      <trkpt lat="36.70075" lon="28.0509">
        <ele>33.6</ele>
      </trkpt>
      <trkpt lat="36.70073" lon="28.05086">
        <ele>33.6</ele>
      </trkpt>
      <trkpt lat="36.70072" lon="28.05083">
        <ele>33.5</ele>
      </trkpt>
      <trkpt lat="36.7007" lon="28.05079">
        <ele>33.5</ele>
      </trkpt>
      <trkpt lat="36.70069" lon="28.05076">
        <ele>33.6</ele>
      </trkpt>
      <trkpt lat="36.70069" lon="28.05075">
        <ele>33.5</ele>
      </trkpt>
      <trkpt lat="36.70067" lon="28.05075">
        <ele>33.4</ele>
      </trkpt>
      <trkpt lat="36.70067" lon="28.05074">
        <ele>33.3</ele>
      </trkpt>
      <trkpt lat="36.70067" lon="28.05074">
        <ele>33.3</ele>
      </trkpt>
      <trkpt lat="36.70066" lon="28.05074">
        <ele>33.3</ele>
      </trkpt>
      <trkpt lat="36.70065" lon="28.0507">
        <ele>33.3</ele>
      </trkpt>
      <trkpt lat="36.70065" lon="28.05069">
        <ele>33.3</ele>
      </trkpt>
      <trkpt lat="36.70065" lon="28.05069">
        <ele>33.3</ele>
      </trkpt>
      <trkpt lat="36.70063" lon="28.05068">
        <ele>33.2</ele>
      </trkpt>
      <trkpt lat="36.70062" lon="28.05068">
        <ele>33</ele>
      </trkpt>
      <trkpt lat="36.70061" lon="28.05066">
        <ele>33</ele>
      </trkpt>
      <trkpt lat="36.70062" lon="28.05065">
        <ele>33.2</ele>
      </trkpt>
      <trkpt lat="36.70062" lon="28.05064">
        <ele>33.2</ele>
      </trkpt>
      <trkpt lat="36.70062" lon="28.05064">
        <ele>33.3</ele>
      </trkpt>
      <trkpt lat="36.70063" lon="28.05063">
        <ele>33.4</ele>
      </trkpt>
      <trkpt lat="36.70063" lon="28.05061">
        <ele>33.5</ele>
      </trkpt>
      <trkpt lat="36.70063" lon="28.0506">
        <ele>33.6</ele>
      </trkpt>
      <trkpt lat="36.70063" lon="28.05059">
        <ele>33.6</ele>
      </trkpt>
      <trkpt lat="36.70063" lon="28.05059">
        <ele>33.6</ele>
      </trkpt>
      <trkpt lat="36.70062" lon="28.05057">
        <ele>33.7</ele>
      </trkpt>
      <trkpt lat="36.70062" lon="28.05054">
        <ele>33.7</ele>
      </trkpt>
      <trkpt lat="36.70061" lon="28.05053">
        <ele>33.7</ele>
      </trkpt>
      <trkpt lat="36.7006" lon="28.05052">
        <ele>33.6</ele>
      </trkpt>
      <trkpt lat="36.70059" lon="28.0505">
        <ele>33.6</ele>
      </trkpt>
      <trkpt lat="36.7006" lon="28.0505">
        <ele>33.7</ele>
      </trkpt>
      <trkpt lat="36.7006" lon="28.0505">
        <ele>33.7</ele>
      </trkpt>
      <trkpt lat="36.70061" lon="28.0505">
        <ele>33.8</ele>
      </trkpt>
      <trkpt lat="36.70061" lon="28.05049">
        <ele>33.9</ele>
      </trkpt>
      <trkpt lat="36.70061" lon="28.05049">
        <ele>33.9</ele>
      </trkpt>
      <trkpt lat="36.70061" lon="28.05047">
        <ele>33.9</ele>
      </trkpt>
      <trkpt lat="36.70059" lon="28.05046">
        <ele>33.8</ele>
      </trkpt>
      <trkpt lat="36.70058" lon="28.05044">
        <ele>33.7</ele>
      </trkpt>
      <trkpt lat="36.70055" lon="28.05041">
        <ele>33.5</ele>
      </trkpt>
      <trkpt lat="36.70054" lon="28.05038">
        <ele>33.5</ele>
      </trkpt>
      <trkpt lat="36.70054" lon="28.05036">
        <ele>33.5</ele>
      </trkpt>
      <trkpt lat="36.70052" lon="28.05033">
        <ele>33.5</ele>
      </trkpt>
      <trkpt lat="36.70052" lon="28.05032">
        <ele>33.5</ele>
      </trkpt>
      <trkpt lat="36.70052" lon="28.05014">
        <ele>34.3</ele>
      </trkpt>
      <trkpt lat="36.70052" lon="28.05012">
        <ele>34.5</ele>
      </trkpt>
      <trkpt lat="36.70051" lon="28.05011">
        <ele>34.4</ele>
      </trkpt>
      <trkpt lat="36.70051" lon="28.05005">
        <ele>34.7</ele>
      </trkpt>
      <trkpt lat="36.7005" lon="28.05">
        <ele>34.8</ele>
      </trkpt>
      <trkpt lat="36.70049" lon="28.04996">
        <ele>34.7</ele>
      </trkpt>
      <trkpt lat="36.70048" lon="28.04992">
        <ele>34.6</ele>
      </trkpt>
      <trkpt lat="36.70047" lon="28.0499">
        <ele>34.6</ele>
      </trkpt>
      <trkpt lat="36.70046" lon="28.04988">
        <ele>34.5</ele>
      </trkpt>
      <trkpt lat="36.70045" lon="28.04985">
        <ele>34.3</ele>
      </trkpt>
      <trkpt lat="36.70045" lon="28.04982">
        <ele>34.4</ele>
      </trkpt>
      <trkpt lat="36.70044" lon="28.0498">
        <ele>34.4</ele>
      </trkpt>
      <trkpt lat="36.70044" lon="28.0498">
        <ele>34.4</ele>
      </trkpt>
      <trkpt lat="36.70045" lon="28.0498">
        <ele>34.4</ele>
      </trkpt>
      <trkpt lat="36.70045" lon="28.0498">
        <ele>34.5</ele>
      </trkpt>
      <trkpt lat="36.70045" lon="28.0498">
        <ele>34.4</ele>
      </trkpt>
      <trkpt lat="36.70045" lon="28.0498">
        <ele>34.4</ele>
      </trkpt>
      <trkpt lat="36.70044" lon="28.0498">
        <ele>34.3</ele>
      </trkpt>
      <trkpt lat="36.70044" lon="28.0498">
        <ele>34.3</ele>
      </trkpt>
      <trkpt lat="36.70042" lon="28.04979">
        <ele>34.1</ele>
      </trkpt>
      <trkpt lat="36.70041" lon="28.04976">
        <ele>34</ele>
      </trkpt>
      <trkpt lat="36.7004" lon="28.04971">
        <ele>34</ele>
      </trkpt>
      <trkpt lat="36.70041" lon="28.04961">
        <ele>34.4</ele>
      </trkpt>
      <trkpt lat="36.70043" lon="28.04955">
        <ele>34.7</ele>
      </trkpt>
      <trkpt lat="36.70044" lon="28.0495">
        <ele>35</ele>
      </trkpt>
      <trkpt lat="36.70044" lon="28.0495">
        <ele>35</ele>
      </trkpt>
      <trkpt lat="36.70044" lon="28.04949">
        <ele>35</ele>
      </trkpt>
      <trkpt lat="36.70043" lon="28.04949">
        <ele>34.9</ele>
      </trkpt>
      <trkpt lat="36.70043" lon="28.0495">
        <ele>34.8</ele>
      </trkpt>
      <trkpt lat="36.70042" lon="28.04951">
        <ele>34.7</ele>
      </trkpt>
      <trkpt lat="36.70042" lon="28.04952">
        <ele>34.6</ele>
      </trkpt>
      <trkpt lat="36.70041" lon="28.04953">
        <ele>34.6</ele>
      </trkpt>
      <trkpt lat="36.70041" lon="28.04951">
        <ele>34.5</ele>
      </trkpt>
      <trkpt lat="36.70042" lon="28.04946">
        <ele>34.8</ele>
      </trkpt>
      <trkpt lat="36.70042" lon="28.04944">
        <ele>34.8</ele>
      </trkpt>
      <trkpt lat="36.70041" lon="28.04942">
        <ele>34.8</ele>
      </trkpt>
      <trkpt lat="36.7004" lon="28.04942">
        <ele>34.7</ele>
      </trkpt>
      <trkpt lat="36.70039" lon="28.04941">
        <ele>34.6</ele>
      </trkpt>
      <trkpt lat="36.70038" lon="28.04938">
        <ele>34.6</ele>
      </trkpt>
      <trkpt lat="36.70039" lon="28.04934">
        <ele>34.8</ele>
      </trkpt>
      <trkpt lat="36.70039" lon="28.04934">
        <ele>34.8</ele>
      </trkpt>
      <trkpt lat="36.70039" lon="28.04933">
        <ele>34.8</ele>
      </trkpt>
      <trkpt lat="36.70039" lon="28.04934">
        <ele>34.8</ele>
      </trkpt>
      <trkpt lat="36.70039" lon="28.04933">
        <ele>34.8</ele>
      </trkpt>
      <trkpt lat="36.7004" lon="28.04931">
        <ele>34.9</ele>
      </trkpt>
      <trkpt lat="36.7004" lon="28.0493">
        <ele>35</ele>
      </trkpt>
      <trkpt lat="36.70041" lon="28.04931">
        <ele>35.1</ele>
      </trkpt>
      <trkpt lat="36.70041" lon="28.04931">
        <ele>35.1</ele>
      </trkpt>
      <trkpt lat="36.7004" lon="28.04932">
        <ele>34.9</ele>
      </trkpt>
      <trkpt lat="36.7004" lon="28.0493">
        <ele>35</ele>
      </trkpt>
      <trkpt lat="36.70039" lon="28.04927">
        <ele>35</ele>
      </trkpt>
      <trkpt lat="36.70039" lon="28.04923">
        <ele>35</ele>
      </trkpt>
      <trkpt lat="36.70039" lon="28.04923">
        <ele>35</ele>
      </trkpt>
      <trkpt lat="36.7004" lon="28.04918">
        <ele>35.3</ele>
      </trkpt>
      <trkpt lat="36.70042" lon="28.04913">
        <ele>35.6</ele>
      </trkpt>
      <trkpt lat="36.70043" lon="28.0491">
        <ele>35.7</ele>
      </trkpt>
      <trkpt lat="36.70044" lon="28.04907">
        <ele>35.8</ele>
      </trkpt>
      <trkpt lat="36.70045" lon="28.04905">
        <ele>35.9</ele>
      </trkpt>
      <trkpt lat="36.70045" lon="28.04904">
        <ele>36</ele>
      </trkpt>
      <trkpt lat="36.70046" lon="28.04904">
        <ele>36</ele>
      </trkpt>
      <trkpt lat="36.70046" lon="28.04904">
        <ele>36.1</ele>
      </trkpt>
      <trkpt lat="36.70046" lon="28.04904">
        <ele>36.1</ele>
      </trkpt>
      <trkpt lat="36.70045" lon="28.04904">
        <ele>36</ele>
      </trkpt>
      <trkpt lat="36.70045" lon="28.04904">
        <ele>36</ele>
      </trkpt>
      <trkpt lat="36.70045" lon="28.04904">
        <ele>36</ele>
      </trkpt>
      <trkpt lat="36.70046" lon="28.04904">
        <ele>36</ele>
      </trkpt>
      <trkpt lat="36.70045" lon="28.04903">
        <ele>36</ele>
      </trkpt>
      <trkpt lat="36.70045" lon="28.04903">
        <ele>35.9</ele>
      </trkpt>
      <trkpt lat="36.70044" lon="28.04903">
        <ele>35.9</ele>
      </trkpt>
      <trkpt lat="36.70044" lon="28.04903">
        <ele>35.9</ele>
      </trkpt>
      <trkpt lat="36.70045" lon="28.04902">
        <ele>35.9</ele>
      </trkpt>
      <trkpt lat="36.70045" lon="28.04902">
        <ele>35.9</ele>
      </trkpt>
      <trkpt lat="36.70045" lon="28.049">
        <ele>36</ele>
      </trkpt>
      <trkpt lat="36.70045" lon="28.049">
        <ele>36</ele>
      </trkpt>
      <trkpt lat="36.70045" lon="28.04897">
        <ele>36.1</ele>
      </trkpt>
      <trkpt lat="36.70045" lon="28.04895">
        <ele>36.1</ele>
      </trkpt>
      <trkpt lat="36.70047" lon="28.04892">
        <ele>36.3</ele>
      </trkpt>
      <trkpt lat="36.70048" lon="28.04891">
        <ele>36.5</ele>
      </trkpt>
      <trkpt lat="36.70048" lon="28.04887">
        <ele>36.5</ele>
      </trkpt>
      <trkpt lat="36.70049" lon="28.04885">
        <ele>36.6</ele>
      </trkpt>
      <trkpt lat="36.7005" lon="28.04885">
        <ele>36.8</ele>
      </trkpt>
      <trkpt lat="36.7005" lon="28.04884">
        <ele>36.8</ele>
      </trkpt>
      <trkpt lat="36.70051" lon="28.04884">
        <ele>37</ele>
      </trkpt>
      <trkpt lat="36.70051" lon="28.04884">
        <ele>36.9</ele>
      </trkpt>
      <trkpt lat="36.70051" lon="28.04884">
        <ele>36.9</ele>
      </trkpt>
      <trkpt lat="36.70051" lon="28.04884">
        <ele>36.9</ele>
      </trkpt>
      <trkpt lat="36.7005" lon="28.04883">
        <ele>36.7</ele>
      </trkpt>
      <trkpt lat="36.70049" lon="28.04882">
        <ele>36.7</ele>
      </trkpt>
      <trkpt lat="36.70049" lon="28.0488">
        <ele>36.7</ele>
      </trkpt>
      <trkpt lat="36.70049" lon="28.04878">
        <ele>36.8</ele>
      </trkpt>
      <trkpt lat="36.70049" lon="28.04876">
        <ele>36.8</ele>
      </trkpt>
      <trkpt lat="36.70049" lon="28.04875">
        <ele>36.8</ele>
      </trkpt>
      <trkpt lat="36.70049" lon="28.04875">
        <ele>36.8</ele>
      </trkpt>
      <trkpt lat="36.70049" lon="28.04876">
        <ele>36.8</ele>
      </trkpt>
      <trkpt lat="36.70049" lon="28.04876">
        <ele>36.8</ele>
      </trkpt>
      <trkpt lat="36.70049" lon="28.04874">
        <ele>36.7</ele>
      </trkpt>
      <trkpt lat="36.70048" lon="28.04873">
        <ele>36.6</ele>
      </trkpt>
      <trkpt lat="36.70047" lon="28.04871">
        <ele>36.5</ele>
      </trkpt>
      <trkpt lat="36.70047" lon="28.04869">
        <ele>36.5</ele>
      </trkpt>
      <trkpt lat="36.70047" lon="28.04868">
        <ele>36.6</ele>
      </trkpt>
      <trkpt lat="36.70047" lon="28.04868">
        <ele>36.6</ele>
      </trkpt>
      <trkpt lat="36.70048" lon="28.04867">
        <ele>36.7</ele>
      </trkpt>
      <trkpt lat="36.70048" lon="28.04865">
        <ele>36.7</ele>
      </trkpt>
      <trkpt lat="36.70047" lon="28.04863">
        <ele>36.5</ele>
      </trkpt>
      <trkpt lat="36.70046" lon="28.0486">
        <ele>36.5</ele>
      </trkpt>
      <trkpt lat="36.70046" lon="28.04857">
        <ele>36.5</ele>
      </trkpt>
      <trkpt lat="36.70046" lon="28.04857">
        <ele>36.4</ele>
      </trkpt>
      <trkpt lat="36.70045" lon="28.04856">
        <ele>36.3</ele>
      </trkpt>
      <trkpt lat="36.70044" lon="28.04855">
        <ele>36.2</ele>
      </trkpt>
      <trkpt lat="36.70042" lon="28.04854">
        <ele>35.9</ele>
      </trkpt>
      <trkpt lat="36.70042" lon="28.04853">
        <ele>35.9</ele>
      </trkpt>
      <trkpt lat="36.70041" lon="28.0485">
        <ele>35.9</ele>
      </trkpt>
      <trkpt lat="36.70042" lon="28.04845">
        <ele>36</ele>
      </trkpt>
      <trkpt lat="36.70043" lon="28.04842">
        <ele>36.1</ele>
      </trkpt>
      <trkpt lat="36.70043" lon="28.04839">
        <ele>36.1</ele>
      </trkpt>
      <trkpt lat="36.70042" lon="28.04836">
        <ele>36</ele>
      </trkpt>
      <trkpt lat="36.70042" lon="28.0483">
        <ele>36.1</ele>
      </trkpt>
      <trkpt lat="36.70041" lon="28.04827">
        <ele>36.2</ele>
      </trkpt>
      <trkpt lat="36.70042" lon="28.04824">
        <ele>36.5</ele>
      </trkpt>
      <trkpt lat="36.70042" lon="28.04822">
        <ele>36.5</ele>
      </trkpt>
      <trkpt lat="36.70041" lon="28.04818">
        <ele>36.6</ele>
      </trkpt>
      <trkpt lat="36.70042" lon="28.0481">
        <ele>37</ele>
      </trkpt>
      <trkpt lat="36.70044" lon="28.04803">
        <ele>37.6</ele>
      </trkpt>
      <trkpt lat="36.70046" lon="28.04797">
        <ele>38.3</ele>
      </trkpt>
      <trkpt lat="36.70046" lon="28.04792">
        <ele>38.5</ele>
      </trkpt>
      <trkpt lat="36.70047" lon="28.04792">
        <ele>38.7</ele>
      </trkpt>
      <trkpt lat="36.70047" lon="28.04792">
        <ele>38.7</ele>
      </trkpt>
      <trkpt lat="36.70047" lon="28.04793">
        <ele>38.7</ele>
      </trkpt>
      <trkpt lat="36.70047" lon="28.04792">
        <ele>38.8</ele>
      </trkpt>
      <trkpt lat="36.70047" lon="28.04792">
        <ele>38.8</ele>
      </trkpt>
      <trkpt lat="36.70047" lon="28.04789">
        <ele>38.9</ele>
      </trkpt>
      <trkpt lat="36.70046" lon="28.04786">
        <ele>38.8</ele>
      </trkpt>
      <trkpt lat="36.70046" lon="28.04783">
        <ele>38.9</ele>
      </trkpt>
      <trkpt lat="36.70046" lon="28.04782">
        <ele>39</ele>
      </trkpt>
      <trkpt lat="36.70046" lon="28.04782">
        <ele>39.1</ele>
      </trkpt>
      <trkpt lat="36.70046" lon="28.04781">
        <ele>39.1</ele>
      </trkpt>
      <trkpt lat="36.70046" lon="28.04777">
        <ele>39.1</ele>
      </trkpt>
      <trkpt lat="36.70045" lon="28.04772">
        <ele>39.1</ele>
      </trkpt>
      <trkpt lat="36.70045" lon="28.0477">
        <ele>39.3</ele>
      </trkpt>
      <trkpt lat="36.70045" lon="28.04765">
        <ele>39.6</ele>
      </trkpt>
      <trkpt lat="36.70045" lon="28.04761">
        <ele>39.7</ele>
      </trkpt>
      <trkpt lat="36.70046" lon="28.04759">
        <ele>39.9</ele>
      </trkpt>
      <trkpt lat="36.70046" lon="28.04756">
        <ele>40.1</ele>
      </trkpt>
      <trkpt lat="36.70046" lon="28.04754">
        <ele>40.2</ele>
      </trkpt>
      <trkpt lat="36.70046" lon="28.04755">
        <ele>40.1</ele>
      </trkpt>
      <trkpt lat="36.70046" lon="28.04755">
        <ele>40.2</ele>
      </trkpt>
      <trkpt lat="36.70046" lon="28.04754">
        <ele>40.2</ele>
      </trkpt>
      <trkpt lat="36.70046" lon="28.04751">
        <ele>40.3</ele>
      </trkpt>
      <trkpt lat="36.70046" lon="28.04747">
        <ele>40.4</ele>
      </trkpt>
      <trkpt lat="36.70046" lon="28.04741">
        <ele>40.3</ele>
      </trkpt>
      <trkpt lat="36.70045" lon="28.04738">
        <ele>40</ele>
      </trkpt>
      <trkpt lat="36.70044" lon="28.04736">
        <ele>40</ele>
      </trkpt>
      <trkpt lat="36.70047" lon="28.04732">
        <ele>40.5</ele>
      </trkpt>
      <trkpt lat="36.70049" lon="28.0473">
        <ele>41</ele>
      </trkpt>
      <trkpt lat="36.7005" lon="28.04729">
        <ele>41</ele>
      </trkpt>
      <trkpt lat="36.7005" lon="28.04729">
        <ele>41.1</ele>
      </trkpt>
      <trkpt lat="36.7005" lon="28.04728">
        <ele>41.2</ele>
      </trkpt>
      <trkpt lat="36.7005" lon="28.04722">
        <ele>41.1</ele>
      </trkpt>
      <trkpt lat="36.70049" lon="28.04717">
        <ele>40.9</ele>
      </trkpt>
      <trkpt lat="36.70049" lon="28.04712">
        <ele>40.8</ele>
      </trkpt>
      <trkpt lat="36.70048" lon="28.04709">
        <ele>40.7</ele>
      </trkpt>
      <trkpt lat="36.70048" lon="28.04706">
        <ele>40.7</ele>
      </trkpt>
      <trkpt lat="36.70049" lon="28.04699">
        <ele>40.8</ele>
      </trkpt>
      <trkpt lat="36.70048" lon="28.04696">
        <ele>40.7</ele>
      </trkpt>
      <trkpt lat="36.70048" lon="28.04695">
        <ele>40.6</ele>
      </trkpt>
      <trkpt lat="36.70048" lon="28.04692">
        <ele>40.7</ele>
      </trkpt>
      <trkpt lat="36.70048" lon="28.04687">
        <ele>40.6</ele>
      </trkpt>
      <trkpt lat="36.70048" lon="28.04687">
        <ele>40.6</ele>
      </trkpt>
      <trkpt lat="36.70048" lon="28.04687">
        <ele>40.5</ele>
      </trkpt>
      <trkpt lat="36.70047" lon="28.04683">
        <ele>40.3</ele>
      </trkpt>
      <trkpt lat="36.70047" lon="28.04677">
        <ele>40.4</ele>
      </trkpt>
      <trkpt lat="36.70048" lon="28.04674">
        <ele>40.6</ele>
      </trkpt>
      <trkpt lat="36.70049" lon="28.04669">
        <ele>40.9</ele>
      </trkpt>
      <trkpt lat="36.7005" lon="28.04665">
        <ele>41</ele>
      </trkpt>
      <trkpt lat="36.7005" lon="28.04662">
        <ele>40.7</ele>
      </trkpt>
      <trkpt lat="36.70048" lon="28.0466">
        <ele>40.1</ele>
      </trkpt>
      <trkpt lat="36.70046" lon="28.04658">
        <ele>39.5</ele>
      </trkpt>
      <trkpt lat="36.70046" lon="28.04658">
        <ele>39.4</ele>
      </trkpt>
      <trkpt lat="36.70045" lon="28.04658">
        <ele>39.2</ele>
      </trkpt>
      <trkpt lat="36.70045" lon="28.04658">
        <ele>39.2</ele>
      </trkpt>
      <trkpt lat="36.70045" lon="28.04659">
        <ele>39.3</ele>
      </trkpt>
      <trkpt lat="36.70046" lon="28.04657">
        <ele>39.3</ele>
      </trkpt>
      <trkpt lat="36.70046" lon="28.04653">
        <ele>39.1</ele>
      </trkpt>
      <trkpt lat="36.70045" lon="28.0465">
        <ele>38.8</ele>
      </trkpt>
      <trkpt lat="36.70045" lon="28.04648">
        <ele>38.5</ele>
      </trkpt>
      <trkpt lat="36.70045" lon="28.04641">
        <ele>38.1</ele>
      </trkpt>
      <trkpt lat="36.70046" lon="28.04638">
        <ele>38.1</ele>
      </trkpt>
      <trkpt lat="36.70046" lon="28.04632">
        <ele>37.5</ele>
      </trkpt>
      <trkpt lat="36.70045" lon="28.0463">
        <ele>37.3</ele>
      </trkpt>
      <trkpt lat="36.70046" lon="28.0463">
        <ele>37.4</ele>
      </trkpt>
      <trkpt lat="36.70046" lon="28.04629">
        <ele>37.4</ele>
      </trkpt>
      <trkpt lat="36.70047" lon="28.04622">
        <ele>37</ele>
      </trkpt>
      <trkpt lat="36.70047" lon="28.04618">
        <ele>36.8</ele>
      </trkpt>
      <trkpt lat="36.70046" lon="28.04614">
        <ele>36.3</ele>
      </trkpt>
      <trkpt lat="36.70045" lon="28.04613">
        <ele>36</ele>
      </trkpt>
      <trkpt lat="36.70044" lon="28.04611">
        <ele>35.8</ele>
      </trkpt>
      <trkpt lat="36.70044" lon="28.04609">
        <ele>35.7</ele>
      </trkpt>
      <trkpt lat="36.70044" lon="28.04609">
        <ele>35.6</ele>
      </trkpt>
      <trkpt lat="36.70044" lon="28.04609">
        <ele>35.6</ele>
      </trkpt>
      <trkpt lat="36.70044" lon="28.04609">
        <ele>35.7</ele>
      </trkpt>
      <trkpt lat="36.70044" lon="28.0461">
        <ele>35.8</ele>
      </trkpt>
      <trkpt lat="36.70044" lon="28.0461">
        <ele>35.8</ele>
      </trkpt>
      <trkpt lat="36.70043" lon="28.04608">
        <ele>35.4</ele>
      </trkpt>
      <trkpt lat="36.70044" lon="28.04604">
        <ele>35.3</ele>
      </trkpt>
      <trkpt lat="36.70045" lon="28.04598">
        <ele>35.1</ele>
      </trkpt>
      <trkpt lat="36.70045" lon="28.04593">
        <ele>34.7</ele>
      </trkpt>
      <trkpt lat="36.70046" lon="28.04586">
        <ele>34.3</ele>
      </trkpt>
      <trkpt lat="36.70046" lon="28.04586">
        <ele>34.3</ele>
      </trkpt>
      <trkpt lat="36.70046" lon="28.04586">
        <ele>34.4</ele>
      </trkpt>
      <trkpt lat="36.70046" lon="28.04586">
        <ele>34.3</ele>
      </trkpt>
      <trkpt lat="36.70046" lon="28.04586">
        <ele>34.4</ele>
      </trkpt>
      <trkpt lat="36.70046" lon="28.04586">
        <ele>34.4</ele>
      </trkpt>
      <trkpt lat="36.70046" lon="28.04586">
        <ele>34.3</ele>
      </trkpt>
      <trkpt lat="36.70046" lon="28.04586">
        <ele>34.3</ele>
      </trkpt>
      <trkpt lat="36.70045" lon="28.04587">
        <ele>34.3</ele>
      </trkpt>
      <trkpt lat="36.70045" lon="28.04587">
        <ele>34.3</ele>
      </trkpt>
      <trkpt lat="36.70045" lon="28.04587">
        <ele>34.3</ele>
      </trkpt>
      <trkpt lat="36.70045" lon="28.04586">
        <ele>34.3</ele>
      </trkpt>
      <trkpt lat="36.70046" lon="28.04583">
        <ele>34.1</ele>
      </trkpt>
      <trkpt lat="36.70047" lon="28.04577">
        <ele>33.9</ele>
      </trkpt>
      <trkpt lat="36.70047" lon="28.04576">
        <ele>33.8</ele>
      </trkpt>
      <trkpt lat="36.70048" lon="28.04576">
        <ele>33.9</ele>
      </trkpt>
      <trkpt lat="36.7005" lon="28.04571">
        <ele>33.8</ele>
      </trkpt>
      <trkpt lat="36.70051" lon="28.04566">
        <ele>33.6</ele>
      </trkpt>
      <trkpt lat="36.70051" lon="28.04561">
        <ele>33.3</ele>
      </trkpt>
      <trkpt lat="36.70053" lon="28.04555">
        <ele>33</ele>
      </trkpt>
      <trkpt lat="36.70054" lon="28.04551">
        <ele>32.8</ele>
      </trkpt>
      <trkpt lat="36.70054" lon="28.04547">
        <ele>32.6</ele>
      </trkpt>
      <trkpt lat="36.70055" lon="28.04542">
        <ele>32.3</ele>
      </trkpt>
      <trkpt lat="36.70056" lon="28.0454">
        <ele>32.2</ele>
      </trkpt>
      <trkpt lat="36.70057" lon="28.04537">
        <ele>32</ele>
      </trkpt>
      <trkpt lat="36.70058" lon="28.04533">
        <ele>31.8</ele>
      </trkpt>
      <trkpt lat="36.70059" lon="28.04528">
        <ele>31.6</ele>
      </trkpt>
      <trkpt lat="36.70063" lon="28.04525">
        <ele>31.7</ele>
      </trkpt>
      <trkpt lat="36.70066" lon="28.0452">
        <ele>31.5</ele>
      </trkpt>
      <trkpt lat="36.70066" lon="28.0452">
        <ele>31.5</ele>
      </trkpt>
      <trkpt lat="36.70065" lon="28.0452">
        <ele>31.5</ele>
      </trkpt>
      <trkpt lat="36.70066" lon="28.04518">
        <ele>31.4</ele>
      </trkpt>
      <trkpt lat="36.70068" lon="28.04512">
        <ele>31</ele>
      </trkpt>
      <trkpt lat="36.70069" lon="28.04507">
        <ele>30.6</ele>
      </trkpt>
      <trkpt lat="36.70071" lon="28.04503">
        <ele>30.4</ele>
      </trkpt>
      <trkpt lat="36.70072" lon="28.04501">
        <ele>30.2</ele>
      </trkpt>
      <trkpt lat="36.70072" lon="28.04499">
        <ele>30.1</ele>
      </trkpt>
      <trkpt lat="36.70073" lon="28.04495">
        <ele>30</ele>
      </trkpt>
      <trkpt lat="36.70074" lon="28.04492">
        <ele>30</ele>
      </trkpt>
      <trkpt lat="36.70075" lon="28.04491">
        <ele>30</ele>
      </trkpt>
      <trkpt lat="36.70076" lon="28.04489">
        <ele>30</ele>
      </trkpt>
      <trkpt lat="36.70076" lon="28.04489">
        <ele>30</ele>
      </trkpt>
      <trkpt lat="36.70076" lon="28.04488">
        <ele>29.9</ele>
      </trkpt>
      <trkpt lat="36.70076" lon="28.04484">
        <ele>29.8</ele>
      </trkpt>
      <trkpt lat="36.70078" lon="28.04478">
        <ele>29.6</ele>
      </trkpt>
      <trkpt lat="36.7008" lon="28.04472">
        <ele>29.4</ele>
      </trkpt>
      <trkpt lat="36.70081" lon="28.04468">
        <ele>29.3</ele>
      </trkpt>
      <trkpt lat="36.70077" lon="28.04463">
        <ele>28.8</ele>
      </trkpt>
      <trkpt lat="36.70074" lon="28.0446">
        <ele>28.6</ele>
      </trkpt>
      <trkpt lat="36.70073" lon="28.04458">
        <ele>28.4</ele>
      </trkpt>
      <trkpt lat="36.70073" lon="28.04453">
        <ele>28.2</ele>
      </trkpt>
      <trkpt lat="36.70073" lon="28.0445">
        <ele>28.1</ele>
      </trkpt>
      <trkpt lat="36.70074" lon="28.0445">
        <ele>28.1</ele>
      </trkpt>
      <trkpt lat="36.70074" lon="28.0445">
        <ele>28.1</ele>
      </trkpt>
      <trkpt lat="36.70073" lon="28.0445">
        <ele>28</ele>
      </trkpt>
      <trkpt lat="36.70072" lon="28.04448">
        <ele>27.9</ele>
      </trkpt>
      <trkpt lat="36.70072" lon="28.04445">
        <ele>27.8</ele>
      </trkpt>
      <trkpt lat="36.70071" lon="28.04439">
        <ele>27.5</ele>
      </trkpt>
      <trkpt lat="36.70071" lon="28.04436">
        <ele>27.4</ele>
      </trkpt>
      <trkpt lat="36.70071" lon="28.04437">
        <ele>27.4</ele>
      </trkpt>
      <trkpt lat="36.70072" lon="28.04438">
        <ele>27.5</ele>
      </trkpt>
      <trkpt lat="36.70071" lon="28.04436">
        <ele>27.4</ele>
      </trkpt>
      <trkpt lat="36.70071" lon="28.04435">
        <ele>27.3</ele>
      </trkpt>
      <trkpt lat="36.70071" lon="28.04434">
        <ele>27.3</ele>
      </trkpt>
      <trkpt lat="36.7007" lon="28.04432">
        <ele>27.2</ele>
      </trkpt>
      <trkpt lat="36.70069" lon="28.0443">
        <ele>27.1</ele>
      </trkpt>
      <trkpt lat="36.7007" lon="28.0443">
        <ele>27.1</ele>
      </trkpt>
      <trkpt lat="36.7007" lon="28.04428">
        <ele>27</ele>
      </trkpt>
      <trkpt lat="36.7007" lon="28.04427">
        <ele>26.9</ele>
      </trkpt>
      <trkpt lat="36.7007" lon="28.04427">
        <ele>26.9</ele>
      </trkpt>
      <trkpt lat="36.7006" lon="28.04422">
        <ele>26.4</ele>
      </trkpt>
      <trkpt lat="36.70054" lon="28.04424">
        <ele>26.2</ele>
      </trkpt>
      <trkpt lat="36.70044" lon="28.04425">
        <ele>25.8</ele>
      </trkpt>
      <trkpt lat="36.70036" lon="28.04425">
        <ele>25.5</ele>
      </trkpt>
      <trkpt lat="36.70027" lon="28.04424">
        <ele>25.1</ele>
      </trkpt>
      <trkpt lat="36.70012" lon="28.0442">
        <ele>24.5</ele>
      </trkpt>
      <trkpt lat="36.69999" lon="28.04415">
        <ele>24.2</ele>
      </trkpt>
      <trkpt lat="36.69991" lon="28.04412">
        <ele>24</ele>
      </trkpt>
      <trkpt lat="36.69982" lon="28.04406">
        <ele>24.3</ele>
      </trkpt>
      <trkpt lat="36.69976" lon="28.04405">
        <ele>23.9</ele>
      </trkpt>
      <trkpt lat="36.69973" lon="28.04404">
        <ele>23.6</ele>
      </trkpt>
      <trkpt lat="36.69973" lon="28.04404">
        <ele>23.6</ele>
      </trkpt>
      <trkpt lat="36.69973" lon="28.04404">
        <ele>23.6</ele>
      </trkpt>
      <trkpt lat="36.69973" lon="28.04404">
        <ele>23.6</ele>
      </trkpt>
      <trkpt lat="36.69973" lon="28.04404">
        <ele>23.6</ele>
      </trkpt>
      <trkpt lat="36.69973" lon="28.04404">
        <ele>23.6</ele>
      </trkpt>
      <trkpt lat="36.69973" lon="28.04404">
        <ele>23.6</ele>
      </trkpt>
      <trkpt lat="36.69973" lon="28.04404">
        <ele>23.6</ele>
      </trkpt>
      <trkpt lat="36.69973" lon="28.04404">
        <ele>23.6</ele>
      </trkpt>
      <trkpt lat="36.69973" lon="28.04404">
        <ele>23.6</ele>
      </trkpt>
      <trkpt lat="36.69973" lon="28.04404">
        <ele>23.6</ele>
      </trkpt>
      <trkpt lat="36.69973" lon="28.04404">
        <ele>23.6</ele>
      </trkpt>
      <trkpt lat="36.69973" lon="28.04404">
        <ele>23.6</ele>
      </trkpt>
      <trkpt lat="36.69973" lon="28.04404">
        <ele>23.6</ele>
      </trkpt>
      <trkpt lat="36.69967" lon="28.04407">
        <ele>22.4</ele>
      </trkpt>
      <trkpt lat="36.69963" lon="28.04408">
        <ele>21.9</ele>
      </trkpt>
      <trkpt lat="36.6996" lon="28.04409">
        <ele>21.3</ele>
      </trkpt>
      <trkpt lat="36.69955" lon="28.04411">
        <ele>20.5</ele>
      </trkpt>
      <trkpt lat="36.69945" lon="28.04414">
        <ele>19.1</ele>
      </trkpt>
      <trkpt lat="36.69935" lon="28.04418">
        <ele>17.8</ele>
      </trkpt>
      <trkpt lat="36.69929" lon="28.04423">
        <ele>17.2</ele>
      </trkpt>
      <trkpt lat="36.69922" lon="28.04429">
        <ele>16.5</ele>
      </trkpt>
      <trkpt lat="36.69916" lon="28.04434">
        <ele>15.9</ele>
      </trkpt>
      <trkpt lat="36.69907" lon="28.0444">
        <ele>15.4</ele>
      </trkpt>
      <trkpt lat="36.69899" lon="28.04448">
        <ele>14.8</ele>
      </trkpt>
      <trkpt lat="36.69892" lon="28.04453">
        <ele>14.4</ele>
      </trkpt>
      <trkpt lat="36.69884" lon="28.04458">
        <ele>13.8</ele>
      </trkpt>
      <trkpt lat="36.69871" lon="28.04463">
        <ele>13</ele>
      </trkpt>
      <trkpt lat="36.69863" lon="28.04467">
        <ele>12.5</ele>
      </trkpt>
      <trkpt lat="36.6985" lon="28.04476">
        <ele>11.8</ele>
      </trkpt>
      <trkpt lat="36.69836" lon="28.04485">
        <ele>11</ele>
      </trkpt>
      <trkpt lat="36.69828" lon="28.04491">
        <ele>10.7</ele>
      </trkpt>
      <trkpt lat="36.6982" lon="28.04494">
        <ele>10.5</ele>
      </trkpt>
      <trkpt lat="36.69813" lon="28.04494">
        <ele>10.2</ele>
      </trkpt>
      <trkpt lat="36.69812" lon="28.04493">
        <ele>10.1</ele>
      </trkpt>
      <trkpt lat="36.69812" lon="28.04493">
        <ele>10.1</ele>
      </trkpt>
      <trkpt lat="36.69812" lon="28.04493">
        <ele>10.1</ele>
      </trkpt>
      <trkpt lat="36.69812" lon="28.04493">
        <ele>10.1</ele>
      </trkpt>
      <trkpt lat="36.69812" lon="28.04493">
        <ele>10.1</ele>
      </trkpt>
      <trkpt lat="36.69812" lon="28.04493">
        <ele>10.1</ele>
      </trkpt>
      <trkpt lat="36.69812" lon="28.04493">
        <ele>10.1</ele>
      </trkpt>
      <trkpt lat="36.69812" lon="28.04493">
        <ele>10.1</ele>
      </trkpt>
      <trkpt lat="36.69812" lon="28.04493">
        <ele>10.1</ele>
      </trkpt>
      <trkpt lat="36.69812" lon="28.04493">
        <ele>10.1</ele>
      </trkpt>
      <trkpt lat="36.69812" lon="28.04493">
        <ele>10.1</ele>
      </trkpt>
      <trkpt lat="36.69812" lon="28.04493">
        <ele>10.1</ele>
      </trkpt>
      <trkpt lat="36.69812" lon="28.04493">
        <ele>10.1</ele>
      </trkpt>
      <trkpt lat="36.69812" lon="28.04493">
        <ele>10.1</ele>
      </trkpt>
      <trkpt lat="36.69812" lon="28.04493">
        <ele>10.1</ele>
      </trkpt>
      <trkpt lat="36.69812" lon="28.04493">
        <ele>10.1</ele>
      </trkpt>
      <trkpt lat="36.69812" lon="28.04493">
        <ele>10.1</ele>
      </trkpt>
      <trkpt lat="36.69812" lon="28.04493">
        <ele>10.1</ele>
      </trkpt>
      <trkpt lat="36.69812" lon="28.04493">
        <ele>10.1</ele>
      </trkpt>
      <trkpt lat="36.69812" lon="28.04493">
        <ele>10.1</ele>
      </trkpt>
      <trkpt lat="36.69812" lon="28.04493">
        <ele>10.1</ele>
      </trkpt>
      <trkpt lat="36.69812" lon="28.04493">
        <ele>10.1</ele>
      </trkpt>
      <trkpt lat="36.69812" lon="28.04493">
        <ele>10.1</ele>
      </trkpt>
      <trkpt lat="36.69812" lon="28.04493">
        <ele>10.1</ele>
      </trkpt>
      <trkpt lat="36.69812" lon="28.04493">
        <ele>10.1</ele>
      </trkpt>
      <trkpt lat="36.69812" lon="28.04493">
        <ele>10.1</ele>
      </trkpt>
      <trkpt lat="36.69812" lon="28.04493">
        <ele>10.1</ele>
      </trkpt>
      <trkpt lat="36.69812" lon="28.04493">
        <ele>10.1</ele>
      </trkpt>
      <trkpt lat="36.69812" lon="28.04493">
        <ele>10.1</ele>
      </trkpt>
      <trkpt lat="36.69812" lon="28.04493">
        <ele>10.1</ele>
      </trkpt>
      <trkpt lat="36.69812" lon="28.04493">
        <ele>10.1</ele>
      </trkpt>
      <trkpt lat="36.69812" lon="28.04493">
        <ele>10.1</ele>
      </trkpt>
      <trkpt lat="36.69812" lon="28.04493">
        <ele>10.1</ele>
      </trkpt>
      <trkpt lat="36.69812" lon="28.04493">
        <ele>10.1</ele>
      </trkpt>
      <trkpt lat="36.69812" lon="28.04493">
        <ele>10.1</ele>
      </trkpt>
      <trkpt lat="36.69812" lon="28.04493">
        <ele>10.1</ele>
      </trkpt>
      <trkpt lat="36.69812" lon="28.04493">
        <ele>10.1</ele>
      </trkpt>
      <trkpt lat="36.69811" lon="28.04493">
        <ele>10.1</ele>
      </trkpt>
      <trkpt lat="36.69807" lon="28.04492">
        <ele>9.9</ele>
      </trkpt>
      <trkpt lat="36.69803" lon="28.04492">
        <ele>9.8</ele>
      </trkpt>
      <trkpt lat="36.698" lon="28.04492">
        <ele>9.7</ele>
      </trkpt>
      <trkpt lat="36.69794" lon="28.04494">
        <ele>9.5</ele>
      </trkpt>
      <trkpt lat="36.69789" lon="28.04496">
        <ele>9.3</ele>
      </trkpt>
      <trkpt lat="36.69782" lon="28.04501">
        <ele>9.2</ele>
      </trkpt>
      <trkpt lat="36.69778" lon="28.04502">
        <ele>9</ele>
      </trkpt>
      <trkpt lat="36.69774" lon="28.04503">
        <ele>8.9</ele>
      </trkpt>
      <trkpt lat="36.69769" lon="28.04505">
        <ele>8.8</ele>
      </trkpt>
      <trkpt lat="36.69766" lon="28.04506">
        <ele>8.7</ele>
      </trkpt>
      <trkpt lat="36.69763" lon="28.04508">
        <ele>8.6</ele>
      </trkpt>
      <trkpt lat="36.69759" lon="28.04509">
        <ele>8.5</ele>
      </trkpt>
      <trkpt lat="36.69754" lon="28.04511">
        <ele>8.3</ele>
      </trkpt>
      <trkpt lat="36.6975" lon="28.04511">
        <ele>8.1</ele>
      </trkpt>
      <trkpt lat="36.69746" lon="28.04513">
        <ele>8</ele>
      </trkpt>
      <trkpt lat="36.6974" lon="28.04515">
        <ele>7.8</ele>
      </trkpt>
      <trkpt lat="36.69734" lon="28.04517">
        <ele>7.7</ele>
      </trkpt>
      <trkpt lat="36.69731" lon="28.04519">
        <ele>7.6</ele>
      </trkpt>
      <trkpt lat="36.6972" lon="28.04525">
        <ele>7.3</ele>
      </trkpt>
      <trkpt lat="36.69717" lon="28.04529">
        <ele>7.3</ele>
      </trkpt>
      <trkpt lat="36.69715" lon="28.04531">
        <ele>7.3</ele>
      </trkpt>
      <trkpt lat="36.69713" lon="28.04532">
        <ele>7.2</ele>
      </trkpt>
      <trkpt lat="36.69713" lon="28.04533">
        <ele>7.2</ele>
      </trkpt>
      <trkpt lat="36.69714" lon="28.04532">
        <ele>7.3</ele>
      </trkpt>
      <trkpt lat="36.69714" lon="28.04533">
        <ele>7.3</ele>
      </trkpt>
      <trkpt lat="36.69712" lon="28.04533">
        <ele>7.2</ele>
      </trkpt>
      <trkpt lat="36.69707" lon="28.04535">
        <ele>7.1</ele>
      </trkpt>
      <trkpt lat="36.69702" lon="28.04537">
        <ele>7</ele>
      </trkpt>
      <trkpt lat="36.69697" lon="28.04539">
        <ele>6.9</ele>
      </trkpt>
      <trkpt lat="36.69691" lon="28.04542">
        <ele>6.7</ele>
      </trkpt>
      <trkpt lat="36.69686" lon="28.04544">
        <ele>6.6</ele>
      </trkpt>
      <trkpt lat="36.6968" lon="28.04545">
        <ele>6.5</ele>
      </trkpt>
      <trkpt lat="36.69677" lon="28.04547">
        <ele>6.4</ele>
      </trkpt>
      <trkpt lat="36.69673" lon="28.04549">
        <ele>6.4</ele>
      </trkpt>
      <trkpt lat="36.69673" lon="28.0455">
        <ele>6.4</ele>
      </trkpt>
      <trkpt lat="36.69672" lon="28.0455">
        <ele>6.3</ele>
      </trkpt>
      <trkpt lat="36.69671" lon="28.0455">
        <ele>6.3</ele>
      </trkpt>
      <trkpt lat="36.69669" lon="28.04553">
        <ele>6.3</ele>
      </trkpt>
      <trkpt lat="36.69663" lon="28.04557">
        <ele>6.4</ele>
      </trkpt>
      <trkpt lat="36.69659" lon="28.0456">
        <ele>6.4</ele>
      </trkpt>
      <trkpt lat="36.69651" lon="28.04564">
        <ele>6.5</ele>
      </trkpt>
      <trkpt lat="36.69641" lon="28.04569">
        <ele>6.7</ele>
      </trkpt>
      <trkpt lat="36.69636" lon="28.04572">
        <ele>6.7</ele>
      </trkpt>
      <trkpt lat="36.69633" lon="28.04574">
        <ele>6.8</ele>
      </trkpt>
      <trkpt lat="36.69632" lon="28.04575">
        <ele>6.8</ele>
      </trkpt>
      <trkpt lat="36.69632" lon="28.04575">
        <ele>6.8</ele>
      </trkpt>
      <trkpt lat="36.69632" lon="28.04575">
        <ele>6.8</ele>
      </trkpt>
      <trkpt lat="36.69632" lon="28.04575">
        <ele>6.8</ele>
      </trkpt>
      <trkpt lat="36.69632" lon="28.04575">
        <ele>6.8</ele>
      </trkpt>
      <trkpt lat="36.69632" lon="28.04575">
        <ele>6.8</ele>
      </trkpt>
      <trkpt lat="36.69632" lon="28.04575">
        <ele>6.8</ele>
      </trkpt>
      <trkpt lat="36.69632" lon="28.04575">
        <ele>6.8</ele>
      </trkpt>
      <trkpt lat="36.69632" lon="28.04575">
        <ele>6.8</ele>
      </trkpt>
      <trkpt lat="36.69632" lon="28.04575">
        <ele>6.8</ele>
      </trkpt>
      <trkpt lat="36.69632" lon="28.04575">
        <ele>6.8</ele>
      </trkpt>
      <trkpt lat="36.69632" lon="28.04575">
        <ele>6.8</ele>
      </trkpt>
      <trkpt lat="36.69632" lon="28.04575">
        <ele>6.8</ele>
      </trkpt>
      <trkpt lat="36.69627" lon="28.04578">
        <ele>6.9</ele>
      </trkpt>
      <trkpt lat="36.69623" lon="28.04579">
        <ele>6.9</ele>
      </trkpt>
      <trkpt lat="36.6962" lon="28.04579">
        <ele>6.9</ele>
      </trkpt>
      <trkpt lat="36.69615" lon="28.0458">
        <ele>6.9</ele>
      </trkpt>
      <trkpt lat="36.69613" lon="28.04581">
        <ele>6.9</ele>
      </trkpt>
      <trkpt lat="36.6961" lon="28.04581">
        <ele>6.9</ele>
      </trkpt>
      <trkpt lat="36.69607" lon="28.04581">
        <ele>7</ele>
      </trkpt>
      <trkpt lat="36.69602" lon="28.0458">
        <ele>6.9</ele>
      </trkpt>
      <trkpt lat="36.69598" lon="28.04581">
        <ele>6.9</ele>
      </trkpt>
      <trkpt lat="36.69595" lon="28.04583">
        <ele>7</ele>
      </trkpt>
      <trkpt lat="36.69592" lon="28.04584">
        <ele>7</ele>
      </trkpt>
      <trkpt lat="36.69589" lon="28.04586">
        <ele>7.1</ele>
      </trkpt>
      <trkpt lat="36.69587" lon="28.04587">
        <ele>7.2</ele>
      </trkpt>
      <trkpt lat="36.69587" lon="28.04587">
        <ele>7.2</ele>
      </trkpt>
      <trkpt lat="36.69587" lon="28.04587">
        <ele>7.2</ele>
      </trkpt>
      <trkpt lat="36.69582" lon="28.04587">
        <ele>7.2</ele>
      </trkpt>
      <trkpt lat="36.69573" lon="28.04588">
        <ele>7.3</ele>
      </trkpt>
      <trkpt lat="36.69568" lon="28.04589">
        <ele>7.3</ele>
      </trkpt>
      <trkpt lat="36.69564" lon="28.04589">
        <ele>7.3</ele>
      </trkpt>
      <trkpt lat="36.69561" lon="28.04589">
        <ele>7.3</ele>
      </trkpt>
      <trkpt lat="36.69559" lon="28.04589">
        <ele>7.3</ele>
      </trkpt>
      <trkpt lat="36.69559" lon="28.04589">
        <ele>7.3</ele>
      </trkpt>
      <trkpt lat="36.69558" lon="28.04589">
        <ele>7.3</ele>
      </trkpt>
      <trkpt lat="36.69557" lon="28.04589">
        <ele>7.3</ele>
      </trkpt>
      <trkpt lat="36.69557" lon="28.04587">
        <ele>7.2</ele>
      </trkpt>
      <trkpt lat="36.69557" lon="28.04587">
        <ele>7.2</ele>
      </trkpt>
      <trkpt lat="36.69557" lon="28.04587">
        <ele>7.2</ele>
      </trkpt>
      <trkpt lat="36.69557" lon="28.04587">
        <ele>7.2</ele>
      </trkpt>
      <trkpt lat="36.69556" lon="28.04586">
        <ele>7.2</ele>
      </trkpt>
      <trkpt lat="36.69556" lon="28.04586">
        <ele>7.2</ele>
      </trkpt>
      <trkpt lat="36.69556" lon="28.04586">
        <ele>7.2</ele>
      </trkpt>
      <trkpt lat="36.69556" lon="28.04587">
        <ele>7.2</ele>
      </trkpt>
      <trkpt lat="36.69555" lon="28.04587">
        <ele>7.2</ele>
      </trkpt>
      <trkpt lat="36.69555" lon="28.04588">
        <ele>7.3</ele>
      </trkpt>
      <trkpt lat="36.69555" lon="28.04588">
        <ele>7.3</ele>
      </trkpt>
      <trkpt lat="36.69556" lon="28.04587">
        <ele>7.2</ele>
      </trkpt>
      <trkpt lat="36.69555" lon="28.04587">
        <ele>7.2</ele>
      </trkpt>
      <trkpt lat="36.69555" lon="28.04587">
        <ele>7.2</ele>
      </trkpt>
      <trkpt lat="36.69555" lon="28.04587">
        <ele>7.2</ele>
      </trkpt>
      <trkpt lat="36.69555" lon="28.04588">
        <ele>7.2</ele>
      </trkpt>
      <trkpt lat="36.69555" lon="28.04588">
        <ele>7.3</ele>
      </trkpt>
      <trkpt lat="36.6955" lon="28.04589">
        <ele>7.3</ele>
      </trkpt>
      <trkpt lat="36.69541" lon="28.04589">
        <ele>7.3</ele>
      </trkpt>
      <trkpt lat="36.69529" lon="28.04588">
        <ele>7.2</ele>
      </trkpt>
      <trkpt lat="36.6952" lon="28.04587">
        <ele>7.2</ele>
      </trkpt>
      <trkpt lat="36.69511" lon="28.04587">
        <ele>7.2</ele>
      </trkpt>
      <trkpt lat="36.69494" lon="28.04588">
        <ele>7.2</ele>
      </trkpt>
      <trkpt lat="36.69481" lon="28.04588">
        <ele>7.2</ele>
      </trkpt>
      <trkpt lat="36.69463" lon="28.04589">
        <ele>7.2</ele>
      </trkpt>
      <trkpt lat="36.69454" lon="28.04588">
        <ele>7.2</ele>
      </trkpt>
      <trkpt lat="36.69447" lon="28.04588">
        <ele>7.2</ele>
      </trkpt>
      <trkpt lat="36.69447" lon="28.04588">
        <ele>7.2</ele>
      </trkpt>
      <trkpt lat="36.69447" lon="28.04588">
        <ele>7.2</ele>
      </trkpt>
      <trkpt lat="36.69447" lon="28.04588">
        <ele>7.2</ele>
      </trkpt>
      <trkpt lat="36.69447" lon="28.04588">
        <ele>7.2</ele>
      </trkpt>
      <trkpt lat="36.69447" lon="28.04588">
        <ele>7.2</ele>
      </trkpt>
      <trkpt lat="36.69447" lon="28.04588">
        <ele>7.2</ele>
      </trkpt>
      <trkpt lat="36.69447" lon="28.04588">
        <ele>7.2</ele>
      </trkpt>
      <trkpt lat="36.69447" lon="28.04588">
        <ele>7.2</ele>
      </trkpt>
      <trkpt lat="36.69447" lon="28.04588">
        <ele>7.2</ele>
      </trkpt>
      <trkpt lat="36.69447" lon="28.04588">
        <ele>7.2</ele>
      </trkpt>
      <trkpt lat="36.69447" lon="28.04588">
        <ele>7.2</ele>
      </trkpt>
      <trkpt lat="36.69447" lon="28.04588">
        <ele>7.2</ele>
      </trkpt>
      <trkpt lat="36.69447" lon="28.04588">
        <ele>7.2</ele>
      </trkpt>
      <trkpt lat="36.69447" lon="28.04588">
        <ele>7.2</ele>
      </trkpt>
      <trkpt lat="36.69447" lon="28.04588">
        <ele>7.2</ele>
      </trkpt>
      <trkpt lat="36.69447" lon="28.04588">
        <ele>7.2</ele>
      </trkpt>
      <trkpt lat="36.69447" lon="28.04588">
        <ele>7.2</ele>
      </trkpt>
      <trkpt lat="36.69447" lon="28.04588">
        <ele>7.2</ele>
      </trkpt>
      <trkpt lat="36.69447" lon="28.04588">
        <ele>7.2</ele>
      </trkpt>
      <trkpt lat="36.69447" lon="28.04588">
        <ele>7.2</ele>
      </trkpt>
      <trkpt lat="36.69447" lon="28.04588">
        <ele>7.2</ele>
      </trkpt>
      <trkpt lat="36.69447" lon="28.04588">
        <ele>7.2</ele>
      </trkpt>
      <trkpt lat="36.69447" lon="28.04588">
        <ele>7.2</ele>
      </trkpt>
      <trkpt lat="36.69447" lon="28.04588">
        <ele>7.2</ele>
      </trkpt>
      <trkpt lat="36.69447" lon="28.04588">
        <ele>7.2</ele>
      </trkpt>
      <trkpt lat="36.69447" lon="28.04588">
        <ele>7.2</ele>
      </trkpt>
      <trkpt lat="36.69447" lon="28.04588">
        <ele>7.2</ele>
      </trkpt>
      <trkpt lat="36.69447" lon="28.04588">
        <ele>7.2</ele>
      </trkpt>
      <trkpt lat="36.69446" lon="28.04588">
        <ele>7.2</ele>
      </trkpt>
      <trkpt lat="36.69442" lon="28.04589">
        <ele>7.2</ele>
      </trkpt>
      <trkpt lat="36.69435" lon="28.04589">
        <ele>7.2</ele>
      </trkpt>
      <trkpt lat="36.69428" lon="28.04591">
        <ele>7.3</ele>
      </trkpt>
      <trkpt lat="36.69415" lon="28.04591">
        <ele>7.3</ele>
      </trkpt>
      <trkpt lat="36.69407" lon="28.0459">
        <ele>7.4</ele>
      </trkpt>
      <trkpt lat="36.69394" lon="28.04589">
        <ele>7.5</ele>
      </trkpt>
      <trkpt lat="36.69386" lon="28.04587">
        <ele>7.5</ele>
      </trkpt>
      <trkpt lat="36.6938" lon="28.04584">
        <ele>7.5</ele>
      </trkpt>
      <trkpt lat="36.69374" lon="28.04573">
        <ele>7.3</ele>
      </trkpt>
      <trkpt lat="36.69373" lon="28.04572">
        <ele>7.3</ele>
      </trkpt>
      <trkpt lat="36.69374" lon="28.04569">
        <ele>7.2</ele>
      </trkpt>
      <trkpt lat="36.69373" lon="28.0456">
        <ele>6.9</ele>
      </trkpt>
      <trkpt lat="36.69372" lon="28.04545">
        <ele>6.6</ele>
      </trkpt>
      <trkpt lat="36.69372" lon="28.04534">
        <ele>6.3</ele>
      </trkpt>
      <trkpt lat="36.69371" lon="28.0452">
        <ele>5.9</ele>
      </trkpt>
      <trkpt lat="36.69372" lon="28.04514">
        <ele>5.8</ele>
      </trkpt>
      <trkpt lat="36.69371" lon="28.04513">
        <ele>5.8</ele>
      </trkpt>
      <trkpt lat="36.69371" lon="28.04513">
        <ele>5.8</ele>
      </trkpt>
      <trkpt lat="36.69372" lon="28.04514">
        <ele>5.8</ele>
      </trkpt>
      <trkpt lat="36.69372" lon="28.04513">
        <ele>5.8</ele>
      </trkpt>
      <trkpt lat="36.69373" lon="28.04512">
        <ele>5.8</ele>
      </trkpt>
      <trkpt lat="36.69373" lon="28.0451">
        <ele>5.7</ele>
      </trkpt>
      <trkpt lat="36.69373" lon="28.04508">
        <ele>5.7</ele>
      </trkpt>
      <trkpt lat="36.69373" lon="28.04507">
        <ele>5.6</ele>
      </trkpt>
      <trkpt lat="36.69373" lon="28.04507">
        <ele>5.7</ele>
      </trkpt>
      <trkpt lat="36.69374" lon="28.04507">
        <ele>5.7</ele>
      </trkpt>
      <trkpt lat="36.69374" lon="28.04507">
        <ele>5.7</ele>
      </trkpt>
      <trkpt lat="36.69374" lon="28.04507">
        <ele>5.7</ele>
      </trkpt>
      <trkpt lat="36.69374" lon="28.04507">
        <ele>5.7</ele>
      </trkpt>
      <trkpt lat="36.69374" lon="28.04507">
        <ele>5.7</ele>
      </trkpt>
      <trkpt lat="36.69374" lon="28.04507">
        <ele>5.6</ele>
      </trkpt>
      <trkpt lat="36.69374" lon="28.04506">
        <ele>5.6</ele>
      </trkpt>
      <trkpt lat="36.69374" lon="28.04501">
        <ele>5.5</ele>
      </trkpt>
      <trkpt lat="36.69373" lon="28.04493">
        <ele>5.4</ele>
      </trkpt>
      <trkpt lat="36.69371" lon="28.04479">
        <ele>5.1</ele>
      </trkpt>
      <trkpt lat="36.69371" lon="28.04465">
        <ele>4.8</ele>
      </trkpt>
      <trkpt lat="36.69371" lon="28.04455">
        <ele>4.7</ele>
      </trkpt>
      <trkpt lat="36.69372" lon="28.04442">
        <ele>4.4</ele>
      </trkpt>
      <trkpt lat="36.69372" lon="28.04431">
        <ele>4.2</ele>
      </trkpt>
      <trkpt lat="36.6937" lon="28.04427">
        <ele>4.2</ele>
      </trkpt>
      <trkpt lat="36.69366" lon="28.04418">
        <ele>4</ele>
      </trkpt>
      <trkpt lat="36.69355" lon="28.04412">
        <ele>3.9</ele>
      </trkpt>
      <trkpt lat="36.69353" lon="28.0441">
        <ele>3.8</ele>
      </trkpt>
      <trkpt lat="36.69353" lon="28.04411">
        <ele>3.9</ele>
      </trkpt>
      <trkpt lat="36.69353" lon="28.04411">
        <ele>3.9</ele>
      </trkpt>
      <trkpt lat="36.69353" lon="28.04411">
        <ele>3.9</ele>
      </trkpt>
      <trkpt lat="36.69353" lon="28.04411">
        <ele>3.9</ele>
      </trkpt>
      <trkpt lat="36.69353" lon="28.04411">
        <ele>3.9</ele>
      </trkpt>
      <trkpt lat="36.69352" lon="28.04412">
        <ele>3.9</ele>
      </trkpt>
      <trkpt lat="36.69352" lon="28.04412">
        <ele>3.9</ele>
      </trkpt>
      <trkpt lat="36.69351" lon="28.04412">
        <ele>3.9</ele>
      </trkpt>
      <trkpt lat="36.6935" lon="28.04411">
        <ele>3.9</ele>
      </trkpt>
      <trkpt lat="36.69349" lon="28.04411">
        <ele>3.9</ele>
      </trkpt>
      <trkpt lat="36.69348" lon="28.04411">
        <ele>3.9</ele>
      </trkpt>
      <trkpt lat="36.69348" lon="28.04411">
        <ele>3.9</ele>
      </trkpt>
      <trkpt lat="36.69348" lon="28.0441">
        <ele>3.8</ele>
      </trkpt>
      <trkpt lat="36.69348" lon="28.04408">
        <ele>3.8</ele>
      </trkpt>
      <trkpt lat="36.69346" lon="28.04408">
        <ele>3.8</ele>
      </trkpt>
      <trkpt lat="36.69343" lon="28.04405">
        <ele>3.7</ele>
      </trkpt>
      <trkpt lat="36.69338" lon="28.04401">
        <ele>3.6</ele>
      </trkpt>
      <trkpt lat="36.69336" lon="28.044">
        <ele>3.6</ele>
      </trkpt>
      <trkpt lat="36.69336" lon="28.044">
        <ele>3.6</ele>
      </trkpt>
      <trkpt lat="36.69336" lon="28.044">
        <ele>3.6</ele>
      </trkpt>
      <trkpt lat="36.69336" lon="28.04401">
        <ele>3.6</ele>
      </trkpt>
      <trkpt lat="36.69337" lon="28.04401">
        <ele>3.6</ele>
      </trkpt>
      <trkpt lat="36.69333" lon="28.04398">
        <ele>3.6</ele>
      </trkpt>
      <trkpt lat="36.69326" lon="28.04394">
        <ele>3.4</ele>
      </trkpt>
      <trkpt lat="36.69319" lon="28.04389">
        <ele>3.3</ele>
      </trkpt>
      <trkpt lat="36.69311" lon="28.04383">
        <ele>3.1</ele>
      </trkpt>
      <trkpt lat="36.69302" lon="28.04376">
        <ele>3</ele>
      </trkpt>
      <trkpt lat="36.69292" lon="28.04369">
        <ele>2.9</ele>
      </trkpt>
      <trkpt lat="36.69283" lon="28.04362">
        <ele>2.9</ele>
      </trkpt>
      <trkpt lat="36.69276" lon="28.04357">
        <ele>2.9</ele>
      </trkpt>
      <trkpt lat="36.6927" lon="28.04352">
        <ele>2.9</ele>
      </trkpt>
      <trkpt lat="36.69261" lon="28.04345">
        <ele>2.9</ele>
      </trkpt>
      <trkpt lat="36.69252" lon="28.04337">
        <ele>3</ele>
      </trkpt>
      <trkpt lat="36.69249" lon="28.04331">
        <ele>3</ele>
      </trkpt>
      <trkpt lat="36.69246" lon="28.04324">
        <ele>2.9</ele>
      </trkpt>
      <trkpt lat="36.69243" lon="28.0432">
        <ele>2.8</ele>
      </trkpt>
      <trkpt lat="36.69241" lon="28.04319">
        <ele>2.8</ele>
      </trkpt>
      <trkpt lat="36.6924" lon="28.04319">
        <ele>2.8</ele>
      </trkpt>
      <trkpt lat="36.6924" lon="28.04319">
        <ele>2.8</ele>
      </trkpt>
      <trkpt lat="36.69239" lon="28.04319">
        <ele>2.8</ele>
      </trkpt>
      <trkpt lat="36.69238" lon="28.04319">
        <ele>2.8</ele>
      </trkpt>
      <trkpt lat="36.69239" lon="28.04319">
        <ele>2.8</ele>
      </trkpt>
      <trkpt lat="36.69234" lon="28.04321">
        <ele>2.8</ele>
      </trkpt>
      <trkpt lat="36.6923" lon="28.0432">
        <ele>2.8</ele>
      </trkpt>
      <trkpt lat="36.69218" lon="28.0432">
        <ele>2.8</ele>
      </trkpt>
      <trkpt lat="36.69182" lon="28.04332">
        <ele>3</ele>
      </trkpt>
      <trkpt lat="36.69181" lon="28.0433">
        <ele>2.9</ele>
      </trkpt>
      <trkpt lat="36.69179" lon="28.0433">
        <ele>2.9</ele>
      </trkpt>
      <trkpt lat="36.69177" lon="28.04331">
        <ele>2.9</ele>
      </trkpt>
      <trkpt lat="36.69175" lon="28.04331">
        <ele>3</ele>
      </trkpt>
      <trkpt lat="36.69173" lon="28.04332">
        <ele>3</ele>
      </trkpt>
      <trkpt lat="36.69171" lon="28.04332">
        <ele>3</ele>
      </trkpt>
      <trkpt lat="36.69169" lon="28.04333">
        <ele>3</ele>
      </trkpt>
      <trkpt lat="36.69167" lon="28.04333">
        <ele>3</ele>
      </trkpt>
      <trkpt lat="36.69166" lon="28.04334">
        <ele>3</ele>
      </trkpt>
      <trkpt lat="36.69164" lon="28.04334">
        <ele>3</ele>
      </trkpt>
      <trkpt lat="36.69162" lon="28.04334">
        <ele>3</ele>
      </trkpt>
      <trkpt lat="36.69161" lon="28.04334">
        <ele>3</ele>
      </trkpt>
      <trkpt lat="36.69159" lon="28.04335">
        <ele>3</ele>
      </trkpt>
      <trkpt lat="36.69158" lon="28.04335">
        <ele>3</ele>
      </trkpt>
      <trkpt lat="36.69156" lon="28.04336">
        <ele>3</ele>
      </trkpt>
      <trkpt lat="36.69155" lon="28.04336">
        <ele>3</ele>
      </trkpt>
      <trkpt lat="36.69153" lon="28.04337">
        <ele>3</ele>
      </trkpt>
      <trkpt lat="36.69151" lon="28.04337">
        <ele>3</ele>
      </trkpt>
      <trkpt lat="36.6915" lon="28.04338">
        <ele>3</ele>
      </trkpt>
      <trkpt lat="36.69149" lon="28.04338">
        <ele>3</ele>
      </trkpt>
      <trkpt lat="36.69148" lon="28.04338">
        <ele>3</ele>
      </trkpt>
      <trkpt lat="36.69146" lon="28.04339">
        <ele>3</ele>
      </trkpt>
      <trkpt lat="36.69144" lon="28.04339">
        <ele>3</ele>
      </trkpt>
      <trkpt lat="36.69143" lon="28.0434">
        <ele>3</ele>
      </trkpt>
      <trkpt lat="36.69142" lon="28.0434">
        <ele>3</ele>
      </trkpt>
      <trkpt lat="36.6914" lon="28.0434">
        <ele>2.9</ele>
      </trkpt>
      <trkpt lat="36.69139" lon="28.0434">
        <ele>2.9</ele>
      </trkpt>
      <trkpt lat="36.69137" lon="28.04341">
        <ele>2.9</ele>
      </trkpt>
      <trkpt lat="36.69135" lon="28.04341">
        <ele>2.9</ele>
      </trkpt>
      <trkpt lat="36.69134" lon="28.04341">
        <ele>2.9</ele>
      </trkpt>
      <trkpt lat="36.69132" lon="28.04341">
        <ele>2.9</ele>
      </trkpt>
      <trkpt lat="36.69131" lon="28.04342">
        <ele>2.9</ele>
      </trkpt>
      <trkpt lat="36.6913" lon="28.04343">
        <ele>2.9</ele>
      </trkpt>
      <trkpt lat="36.69129" lon="28.04343">
        <ele>2.9</ele>
      </trkpt>
      <trkpt lat="36.69128" lon="28.04344">
        <ele>2.9</ele>
      </trkpt>
      <trkpt lat="36.69128" lon="28.04346">
        <ele>2.9</ele>
      </trkpt>
      <trkpt lat="36.69127" lon="28.04348">
        <ele>2.8</ele>
      </trkpt>
      <trkpt lat="36.69127" lon="28.0435">
        <ele>2.8</ele>
      </trkpt>
      <trkpt lat="36.69127" lon="28.04352">
        <ele>2.8</ele>
      </trkpt>
      <trkpt lat="36.69127" lon="28.04356">
        <ele>2.7</ele>
      </trkpt>
      <trkpt lat="36.69127" lon="28.04357">
        <ele>2.7</ele>
      </trkpt>
      <trkpt lat="36.69127" lon="28.04361">
        <ele>2.7</ele>
      </trkpt>
      <trkpt lat="36.69127" lon="28.04365">
        <ele>2.6</ele>
      </trkpt>
      <trkpt lat="36.69127" lon="28.04375">
        <ele>2.5</ele>
      </trkpt>
      <trkpt lat="36.69127" lon="28.04383">
        <ele>2.4</ele>
      </trkpt>
      <trkpt lat="36.69127" lon="28.04394">
        <ele>2.3</ele>
      </trkpt>
      <trkpt lat="36.69126" lon="28.04394">
        <ele>2.3</ele>
      </trkpt>
      <trkpt lat="36.69126" lon="28.04395">
        <ele>2.3</ele>
      </trkpt>
      <trkpt lat="36.69126" lon="28.04421">
        <ele>2.2</ele>
      </trkpt>
      <trkpt lat="36.69128" lon="28.04428">
        <ele>2.6</ele>
      </trkpt>
      <trkpt lat="36.69121" lon="28.04442">
        <ele>3.4</ele>
      </trkpt>
      <trkpt lat="36.69121" lon="28.04442">
        <ele>3.4</ele>
      </trkpt>
      <trkpt lat="36.69121" lon="28.04442">
        <ele>3.4</ele>
      </trkpt>
      <trkpt lat="36.69121" lon="28.04442">
        <ele>3.4</ele>
      </trkpt>
      <trkpt lat="36.69121" lon="28.04442">
        <ele>3.4</ele>
      </trkpt>
      <trkpt lat="36.69121" lon="28.04442">
        <ele>3.4</ele>
      </trkpt>
      <trkpt lat="36.69121" lon="28.04442">
        <ele>3.4</ele>
      </trkpt>
      <trkpt lat="36.69121" lon="28.04442">
        <ele>3.4</ele>
      </trkpt>
      <trkpt lat="36.69121" lon="28.04442">
        <ele>3.4</ele>
      </trkpt>
      <trkpt lat="36.69121" lon="28.04442">
        <ele>3.4</ele>
      </trkpt>
      <trkpt lat="36.69121" lon="28.04442">
        <ele>3.4</ele>
      </trkpt>
      <trkpt lat="36.69121" lon="28.04442">
        <ele>3.4</ele>
      </trkpt>
      <trkpt lat="36.69121" lon="28.04442">
        <ele>3.4</ele>
      </trkpt>
      <trkpt lat="36.69121" lon="28.04442">
        <ele>3.4</ele>
      </trkpt>
      <trkpt lat="36.69121" lon="28.04442">
        <ele>3.4</ele>
      </trkpt>
      <trkpt lat="36.6912" lon="28.04437">
        <ele>3.1</ele>
      </trkpt>
      <trkpt lat="36.69089" lon="28.04453">
        <ele>4.4</ele>
      </trkpt>
      <trkpt lat="36.69065" lon="28.04463">
        <ele>5</ele>
      </trkpt>
      <trkpt lat="36.69058" lon="28.04467">
        <ele>5.1</ele>
      </trkpt>
      <trkpt lat="36.69056" lon="28.04468">
        <ele>5.1</ele>
      </trkpt>
      <trkpt lat="36.69034" lon="28.04479">
        <ele>5.2</ele>
      </trkpt>
      <trkpt lat="36.69018" lon="28.04488">
        <ele>5.1</ele>
      </trkpt>
      <trkpt lat="36.6899" lon="28.04492">
        <ele>5</ele>
      </trkpt>
      <trkpt lat="36.68982" lon="28.04495">
        <ele>5</ele>
      </trkpt>
      <trkpt lat="36.68973" lon="28.04499">
        <ele>5</ele>
      </trkpt>
      <trkpt lat="36.68956" lon="28.0451">
        <ele>6.2</ele>
      </trkpt>
      <trkpt lat="36.68947" lon="28.0452">
        <ele>7</ele>
      </trkpt>
      <trkpt lat="36.6891" lon="28.04562">
        <ele>7.68</ele>
      </trkpt>
      <trkpt lat="36.68905" lon="28.04565">
        <ele>7.45</ele>
      </trkpt>
      <trkpt lat="36.68873" lon="28.04577">
        <ele>5.92</ele>
      </trkpt>
      <trkpt lat="36.68863" lon="28.04577">
        <ele>5.44</ele>
      </trkpt>
      <trkpt lat="36.6886" lon="28.04576">
        <ele>5.3</ele>
      </trkpt>
      <trkpt lat="36.6884" lon="28.04568">
        <ele>4.31</ele>
      </trkpt>
      <trkpt lat="36.68781" lon="28.04552">
        <ele>2.75</ele>
      </trkpt>
      <trkpt lat="36.68763" lon="28.04551">
        <ele>2.31</ele>
      </trkpt>
      <trkpt lat="36.68742" lon="28.04576">
        <ele>2</ele>
      </trkpt>
      <trkpt lat="36.68737" lon="28.04591">
        <ele>3</ele>
      </trkpt>
      <trkpt lat="36.68721" lon="28.04632">
        <ele>7.4</ele>
      </trkpt>
      <trkpt lat="36.68717" lon="28.04641">
        <ele>8.1</ele>
      </trkpt>
      <trkpt lat="36.68713" lon="28.04647">
        <ele>8.5</ele>
      </trkpt>
      <trkpt lat="36.68687" lon="28.04693">
        <ele>9.5</ele>
      </trkpt>
      <trkpt lat="36.6867" lon="28.04739">
        <ele>9.8</ele>
      </trkpt>
      <trkpt lat="36.68667" lon="28.0477">
        <ele>10.5</ele>
      </trkpt>
      <trkpt lat="36.68662" lon="28.04812">
        <ele>10.9</ele>
      </trkpt>
      <trkpt lat="36.68662" lon="28.04822">
        <ele>11.1</ele>
      </trkpt>
      <trkpt lat="36.68662" lon="28.04823">
        <ele>11.1</ele>
      </trkpt>
      <trkpt lat="36.68655" lon="28.04845">
        <ele>11.7</ele>
      </trkpt>
      <trkpt lat="36.68647" lon="28.04862">
        <ele>12.5</ele>
      </trkpt>
      <trkpt lat="36.68616" lon="28.04912">
        <ele>13.8</ele>
      </trkpt>
      <trkpt lat="36.68587" lon="28.04949">
        <ele>13.6</ele>
      </trkpt>
      <trkpt lat="36.68572" lon="28.04973">
        <ele>13.2</ele>
      </trkpt>
      <trkpt lat="36.68568" lon="28.04982">
        <ele>13.2</ele>
      </trkpt>
      <trkpt lat="36.68562" lon="28.04989">
        <ele>12.6</ele>
      </trkpt>
      <trkpt lat="36.68556" lon="28.04996">
        <ele>11.7</ele>
      </trkpt>
      <trkpt lat="36.68547" lon="28.0501">
        <ele>11.6</ele>
      </trkpt>
      <trkpt lat="36.68534" lon="28.05034">
        <ele>12.1</ele>
      </trkpt>
      <trkpt lat="36.68526" lon="28.05054">
        <ele>12.9</ele>
      </trkpt>
      <trkpt lat="36.68512" lon="28.0508">
        <ele>12.1</ele>
      </trkpt>
      <trkpt lat="36.68486" lon="28.05106">
        <ele>8.6</ele>
      </trkpt>
      <trkpt lat="36.68463" lon="28.05138">
        <ele>6.7</ele>
      </trkpt>
      <trkpt lat="36.68459" lon="28.05146">
        <ele>6</ele>
      </trkpt>
      <trkpt lat="36.68458" lon="28.05147">
        <ele>6</ele>
      </trkpt>
      <trkpt lat="36.68441" lon="28.05174">
        <ele>3.3</ele>
      </trkpt>
      <trkpt lat="36.68424" lon="28.05194">
        <ele>1.9</ele>
      </trkpt>
      <trkpt lat="36.68417" lon="28.052">
        <ele>1.4</ele>
      </trkpt>
      <trkpt lat="36.68416" lon="28.05201">
        <ele>1.4</ele>
      </trkpt>
      <trkpt lat="36.68406" lon="28.05216">
        <ele>1.6</ele>
      </trkpt>
      <trkpt lat="36.68399" lon="28.05233">
        <ele>1.8</ele>
      </trkpt>
      <trkpt lat="36.68399" lon="28.05233">
        <ele>1.8</ele>
      </trkpt>
      <trkpt lat="36.68388" lon="28.05242">
        <ele>1.9</ele>
      </trkpt>
      <trkpt lat="36.68388" lon="28.05242">
        <ele>1.9</ele>
      </trkpt>
      <trkpt lat="36.68381" lon="28.05244">
        <ele>1.9</ele>
      </trkpt>
      <trkpt lat="36.68375" lon="28.05243">
        <ele>1.9</ele>
      </trkpt>
      <trkpt lat="36.68347" lon="28.05236">
        <ele>1.8</ele>
      </trkpt>
      <trkpt lat="36.68296" lon="28.05224">
        <ele>2.3</ele>
      </trkpt>
      <trkpt lat="36.68268" lon="28.0522">
        <ele>2.6</ele>
      </trkpt>
      <trkpt lat="36.6825" lon="28.05216">
        <ele>2.8</ele>
      </trkpt>
      <trkpt lat="36.68249" lon="28.05216">
        <ele>2.9</ele>
      </trkpt>
      <trkpt lat="36.68246" lon="28.0522">
        <ele>3.2</ele>
      </trkpt>
      <trkpt lat="36.68241" lon="28.05214">
        <ele>3.4</ele>
      </trkpt>
      <trkpt lat="36.68234" lon="28.0521">
        <ele>3.6</ele>
      </trkpt>
      <trkpt lat="36.68224" lon="28.05205">
        <ele>4</ele>
      </trkpt>
      <trkpt lat="36.68217" lon="28.05198">
        <ele>4</ele>
      </trkpt>
      <trkpt lat="36.6821" lon="28.05194">
        <ele>4</ele>
      </trkpt>
      <trkpt lat="36.68204" lon="28.05189">
        <ele>3.9</ele>
      </trkpt>
      <trkpt lat="36.68189" lon="28.05179">
        <ele>3.7</ele>
      </trkpt>
      <trkpt lat="36.68187" lon="28.05182">
        <ele>4</ele>
      </trkpt>
      <trkpt lat="36.68187" lon="28.05182">
        <ele>4</ele>
      </trkpt>
      <trkpt lat="36.68182" lon="28.05183">
        <ele>4.3</ele>
      </trkpt>
      <trkpt lat="36.68174" lon="28.0519">
        <ele>5.4</ele>
      </trkpt>
      <trkpt lat="36.6817" lon="28.05194">
        <ele>6.1</ele>
      </trkpt>
      <trkpt lat="36.6817" lon="28.05194">
        <ele>6.1</ele>
      </trkpt>
      <trkpt lat="36.68164" lon="28.05191">
        <ele>6.3</ele>
      </trkpt>
      <trkpt lat="36.68157" lon="28.05194">
        <ele>7.2</ele>
      </trkpt>
      <trkpt lat="36.68157" lon="28.05194">
        <ele>7.2</ele>
      </trkpt>
      <trkpt lat="36.68154" lon="28.05196">
        <ele>7.7</ele>
      </trkpt>
      <trkpt lat="36.68153" lon="28.05196">
        <ele>7.8</ele>
      </trkpt>
      <trkpt lat="36.68152" lon="28.05196">
        <ele>7.9</ele>
      </trkpt>
      <trkpt lat="36.68152" lon="28.05195">
        <ele>7.9</ele>
      </trkpt>
      <trkpt lat="36.68149" lon="28.05196">
        <ele>8.3</ele>
      </trkpt>
      <trkpt lat="36.68144" lon="28.05198">
        <ele>8.9</ele>
      </trkpt>
      <trkpt lat="36.68136" lon="28.05197">
        <ele>9.6</ele>
      </trkpt>
      <trkpt lat="36.68127" lon="28.05197">
        <ele>10.5</ele>
      </trkpt>
      <trkpt lat="36.6812" lon="28.05196">
        <ele>11.1</ele>
      </trkpt>
      <trkpt lat="36.68118" lon="28.05195">
        <ele>11.1</ele>
      </trkpt>
      <trkpt lat="36.68117" lon="28.05195">
        <ele>11.1</ele>
      </trkpt>
      <trkpt lat="36.6811" lon="28.05192">
        <ele>11.5</ele>
      </trkpt>
      <trkpt lat="36.68105" lon="28.05192">
        <ele>11.9</ele>
      </trkpt>
      <trkpt lat="36.68104" lon="28.05192">
        <ele>11.9</ele>
      </trkpt>
      <trkpt lat="36.68094" lon="28.05186">
        <ele>12</ele>
      </trkpt>
      <trkpt lat="36.68095" lon="28.05184">
        <ele>11.7</ele>
      </trkpt>
      <trkpt lat="36.68092" lon="28.05174">
        <ele>10.4</ele>
      </trkpt>
      <trkpt lat="36.6809" lon="28.0517">
        <ele>9.9</ele>
      </trkpt>
      <trkpt lat="36.68088" lon="28.05169">
        <ele>9.9</ele>
      </trkpt>
      <trkpt lat="36.68084" lon="28.05164">
        <ele>9.7</ele>
      </trkpt>
      <trkpt lat="36.68081" lon="28.05155">
        <ele>9</ele>
      </trkpt>
      <trkpt lat="36.68078" lon="28.05153">
        <ele>8.9</ele>
      </trkpt>
      <trkpt lat="36.68076" lon="28.0515">
        <ele>8.7</ele>
      </trkpt>
      <trkpt lat="36.68076" lon="28.05149">
        <ele>8.6</ele>
      </trkpt>
      <trkpt lat="36.68075" lon="28.05149">
        <ele>8.6</ele>
      </trkpt>
      <trkpt lat="36.68076" lon="28.05148">
        <ele>8.6</ele>
      </trkpt>
      <trkpt lat="36.68073" lon="28.05149">
        <ele>8.7</ele>
      </trkpt>
      <trkpt lat="36.68071" lon="28.05148">
        <ele>8.8</ele>
      </trkpt>
      <trkpt lat="36.68066" lon="28.05148">
        <ele>9</ele>
      </trkpt>
      <trkpt lat="36.68059" lon="28.0515">
        <ele>9.5</ele>
      </trkpt>
      <trkpt lat="36.68053" lon="28.05152">
        <ele>10</ele>
      </trkpt>
      <trkpt lat="36.68051" lon="28.05152">
        <ele>10.1</ele>
      </trkpt>
      <trkpt lat="36.68049" lon="28.05153">
        <ele>10.3</ele>
      </trkpt>
      <trkpt lat="36.68048" lon="28.05152">
        <ele>10.3</ele>
      </trkpt>
      <trkpt lat="36.68036" lon="28.05154">
        <ele>10.9</ele>
      </trkpt>
      <trkpt lat="36.68034" lon="28.05154">
        <ele>11.1</ele>
      </trkpt>
      <trkpt lat="36.68029" lon="28.0516">
        <ele>11.8</ele>
      </trkpt>
      <trkpt lat="36.68028" lon="28.0516">
        <ele>11.9</ele>
      </trkpt>
      <trkpt lat="36.68021" lon="28.05155">
        <ele>11.7</ele>
      </trkpt>
      <trkpt lat="36.68018" lon="28.05152">
        <ele>11.6</ele>
      </trkpt>
      <trkpt lat="36.68015" lon="28.0515">
        <ele>11.5</ele>
      </trkpt>
      <trkpt lat="36.68014" lon="28.0515">
        <ele>11.5</ele>
      </trkpt>
      <trkpt lat="36.6801" lon="28.05138">
        <ele>10.4</ele>
      </trkpt>
      <trkpt lat="36.6801" lon="28.05132">
        <ele>9.8</ele>
      </trkpt>
      <trkpt lat="36.68008" lon="28.05121">
        <ele>8.8</ele>
      </trkpt>
      <trkpt lat="36.68007" lon="28.0512">
        <ele>8.6</ele>
      </trkpt>
      <trkpt lat="36.68002" lon="28.05108">
        <ele>7.5</ele>
      </trkpt>
      <trkpt lat="36.67997" lon="28.05106">
        <ele>7.5</ele>
      </trkpt>
      <trkpt lat="36.6799" lon="28.05102">
        <ele>7.3</ele>
      </trkpt>
      <trkpt lat="36.6798" lon="28.05109">
        <ele>8.2</ele>
      </trkpt>
      <trkpt lat="36.67975" lon="28.0511">
        <ele>8.5</ele>
      </trkpt>
      <trkpt lat="36.67971" lon="28.05113">
        <ele>8.9</ele>
      </trkpt>
      <trkpt lat="36.67963" lon="28.05118">
        <ele>9.8</ele>
      </trkpt>
      <trkpt lat="36.67951" lon="28.05127">
        <ele>11.2</ele>
      </trkpt>
      <trkpt lat="36.67946" lon="28.0513">
        <ele>11.7</ele>
      </trkpt>
      <trkpt lat="36.6794" lon="28.05135">
        <ele>12.6</ele>
      </trkpt>
      <trkpt lat="36.67937" lon="28.05136">
        <ele>12.9</ele>
      </trkpt>
      <trkpt lat="36.67921" lon="28.05139">
        <ele>13.9</ele>
      </trkpt>
      <trkpt lat="36.67908" lon="28.05132">
        <ele>14.2</ele>
      </trkpt>
      <trkpt lat="36.67903" lon="28.05128">
        <ele>14.4</ele>
      </trkpt>
      <trkpt lat="36.67899" lon="28.05127">
        <ele>14.9</ele>
      </trkpt>
      <trkpt lat="36.67893" lon="28.05123">
        <ele>15.1</ele>
      </trkpt>
      <trkpt lat="36.67891" lon="28.0512">
        <ele>14.8</ele>
      </trkpt>
      <trkpt lat="36.67888" lon="28.0512">
        <ele>15.2</ele>
      </trkpt>
      <trkpt lat="36.67884" lon="28.05116">
        <ele>15</ele>
      </trkpt>
      <trkpt lat="36.67883" lon="28.05113">
        <ele>14.6</ele>
      </trkpt>
      <trkpt lat="36.67878" lon="28.05106">
        <ele>13.9</ele>
      </trkpt>
      <trkpt lat="36.67877" lon="28.05103">
        <ele>13.5</ele>
      </trkpt>
      <trkpt lat="36.67868" lon="28.05099">
        <ele>13.8</ele>
      </trkpt>
      <trkpt lat="36.67867" lon="28.05098">
        <ele>13.8</ele>
      </trkpt>
      <trkpt lat="36.67861" lon="28.05094">
        <ele>13.5</ele>
      </trkpt>
      <trkpt lat="36.67858" lon="28.05092">
        <ele>13.5</ele>
      </trkpt>
      <trkpt lat="36.67856" lon="28.05091">
        <ele>13.5</ele>
      </trkpt>
      <trkpt lat="36.67855" lon="28.05091">
        <ele>13.5</ele>
      </trkpt>
      <trkpt lat="36.67847" lon="28.05087">
        <ele>13.6</ele>
      </trkpt>
      <trkpt lat="36.67839" lon="28.05084">
        <ele>13.6</ele>
      </trkpt>
      <trkpt lat="36.67832" lon="28.05081">
        <ele>13.7</ele>
      </trkpt>
      <trkpt lat="36.67832" lon="28.05081">
        <ele>13.7</ele>
      </trkpt>
      <trkpt lat="36.67827" lon="28.05084">
        <ele>15.1</ele>
      </trkpt>
      <trkpt lat="36.67823" lon="28.05084">
        <ele>15.7</ele>
      </trkpt>
      <trkpt lat="36.67819" lon="28.05078">
        <ele>15.2</ele>
      </trkpt>
      <trkpt lat="36.67809" lon="28.05073">
        <ele>15.9</ele>
      </trkpt>
      <trkpt lat="36.67805" lon="28.0507">
        <ele>16</ele>
      </trkpt>
      <trkpt lat="36.678" lon="28.05066">
        <ele>15.9</ele>
      </trkpt>
      <trkpt lat="36.67791" lon="28.05058">
        <ele>15.3</ele>
      </trkpt>
      <trkpt lat="36.67789" lon="28.05057">
        <ele>15.6</ele>
      </trkpt>
      <trkpt lat="36.67789" lon="28.05057">
        <ele>15.6</ele>
      </trkpt>
      <trkpt lat="36.67776" lon="28.05055">
        <ele>16.6</ele>
      </trkpt>
      <trkpt lat="36.67768" lon="28.05052">
        <ele>17</ele>
      </trkpt>
      <trkpt lat="36.67766" lon="28.05051">
        <ele>17</ele>
      </trkpt>
      <trkpt lat="36.67765" lon="28.0505">
        <ele>17</ele>
      </trkpt>
      <trkpt lat="36.67758" lon="28.05047">
        <ele>16.9</ele>
      </trkpt>
      <trkpt lat="36.67753" lon="28.05043">
        <ele>16.6</ele>
      </trkpt>
      <trkpt lat="36.67749" lon="28.0504">
        <ele>16.3</ele>
      </trkpt>
      <trkpt lat="36.6774" lon="28.05038">
        <ele>17.2</ele>
      </trkpt>
      <trkpt lat="36.67737" lon="28.05037">
        <ele>17.3</ele>
      </trkpt>
      <trkpt lat="36.67735" lon="28.05037">
        <ele>17.7</ele>
      </trkpt>
      <trkpt lat="36.67728" lon="28.05037">
        <ele>18.9</ele>
      </trkpt>
      <trkpt lat="36.67721" lon="28.05037">
        <ele>20</ele>
      </trkpt>
      <trkpt lat="36.67712" lon="28.05036">
        <ele>21</ele>
      </trkpt>
      <trkpt lat="36.67711" lon="28.05035">
        <ele>21</ele>
      </trkpt>
      <trkpt lat="36.67708" lon="28.05031">
        <ele>20.4</ele>
      </trkpt>
      <trkpt lat="36.67696" lon="28.05026">
        <ele>20.5</ele>
      </trkpt>
      <trkpt lat="36.67687" lon="28.05022">
        <ele>20.5</ele>
      </trkpt>
      <trkpt lat="36.67678" lon="28.0502">
        <ele>21.2</ele>
      </trkpt>
      <trkpt lat="36.67676" lon="28.05018">
        <ele>20.9</ele>
      </trkpt>
      <trkpt lat="36.67668" lon="28.05015">
        <ele>21.2</ele>
      </trkpt>
      <trkpt lat="36.67659" lon="28.0501">
        <ele>21</ele>
      </trkpt>
      <trkpt lat="36.67654" lon="28.05004">
        <ele>19.9</ele>
      </trkpt>
      <trkpt lat="36.67649" lon="28.04999">
        <ele>19.2</ele>
      </trkpt>
      <trkpt lat="36.67642" lon="28.04994">
        <ele>19.6</ele>
      </trkpt>
      <trkpt lat="36.67632" lon="28.04989">
        <ele>20.4</ele>
      </trkpt>
      <trkpt lat="36.67629" lon="28.04987">
        <ele>20.4</ele>
      </trkpt>
      <trkpt lat="36.67625" lon="28.04987">
        <ele>21.2</ele>
      </trkpt>
      <trkpt lat="36.67621" lon="28.04987">
        <ele>21.8</ele>
      </trkpt>
      <trkpt lat="36.6762" lon="28.04986">
        <ele>21.8</ele>
      </trkpt>
      <trkpt lat="36.67608" lon="28.04982">
        <ele>22.9</ele>
      </trkpt>
      <trkpt lat="36.67598" lon="28.04977">
        <ele>23.2</ele>
      </trkpt>
      <trkpt lat="36.67594" lon="28.04974">
        <ele>23.3</ele>
      </trkpt>
      <trkpt lat="36.67588" lon="28.04975">
        <ele>24.2</ele>
      </trkpt>
      <trkpt lat="36.67582" lon="28.04977">
        <ele>25.4</ele>
      </trkpt>
      <trkpt lat="36.67577" lon="28.04978">
        <ele>25.6</ele>
      </trkpt>
      <trkpt lat="36.67574" lon="28.04977">
        <ele>25.4</ele>
      </trkpt>
      <trkpt lat="36.6757" lon="28.04978">
        <ele>25.4</ele>
      </trkpt>
      <trkpt lat="36.67567" lon="28.04977">
        <ele>25</ele>
      </trkpt>
      <trkpt lat="36.67554" lon="28.04982">
        <ele>25.8</ele>
      </trkpt>
      <trkpt lat="36.6755" lon="28.04982">
        <ele>25.7</ele>
      </trkpt>
      <trkpt lat="36.67544" lon="28.04986">
        <ele>26.4</ele>
      </trkpt>
      <trkpt lat="36.67539" lon="28.04988">
        <ele>26.6</ele>
      </trkpt>
      <trkpt lat="36.67533" lon="28.0499">
        <ele>27</ele>
      </trkpt>
      <trkpt lat="36.67528" lon="28.04992">
        <ele>27.3</ele>
      </trkpt>
      <trkpt lat="36.67526" lon="28.04995">
        <ele>27.8</ele>
      </trkpt>
      <trkpt lat="36.67522" lon="28.04997">
        <ele>28.3</ele>
      </trkpt>
      <trkpt lat="36.67517" lon="28.05">
        <ele>28.9</ele>
      </trkpt>
      <trkpt lat="36.67508" lon="28.05005">
        <ele>30</ele>
      </trkpt>
      <trkpt lat="36.67496" lon="28.05009">
        <ele>30.2</ele>
      </trkpt>
      <trkpt lat="36.67494" lon="28.05011">
        <ele>30.3</ele>
      </trkpt>
      <trkpt lat="36.67493" lon="28.05011">
        <ele>30.4</ele>
      </trkpt>
      <trkpt lat="36.67488" lon="28.05014">
        <ele>30.1</ele>
      </trkpt>
      <trkpt lat="36.67486" lon="28.05016">
        <ele>30.2</ele>
      </trkpt>
      <trkpt lat="36.67482" lon="28.05021">
        <ele>30.6</ele>
      </trkpt>
      <trkpt lat="36.6748" lon="28.05023">
        <ele>30.6</ele>
      </trkpt>
      <trkpt lat="36.67474" lon="28.05025">
        <ele>29.6</ele>
      </trkpt>
      <trkpt lat="36.67472" lon="28.05029">
        <ele>30</ele>
      </trkpt>
      <trkpt lat="36.67469" lon="28.05031">
        <ele>29.7</ele>
      </trkpt>
      <trkpt lat="36.67464" lon="28.05035">
        <ele>29.3</ele>
      </trkpt>
      <trkpt lat="36.67461" lon="28.05038">
        <ele>29.3</ele>
      </trkpt>
      <trkpt lat="36.67451" lon="28.05046">
        <ele>28.2</ele>
      </trkpt>
      <trkpt lat="36.67446" lon="28.05055">
        <ele>28.4</ele>
      </trkpt>
      <trkpt lat="36.67443" lon="28.05057">
        <ele>28</ele>
      </trkpt>
      <trkpt lat="36.67437" lon="28.05069">
        <ele>28.6</ele>
      </trkpt>
      <trkpt lat="36.67434" lon="28.05072">
        <ele>27.7</ele>
      </trkpt>
      <trkpt lat="36.67432" lon="28.05074">
        <ele>27.7</ele>
      </trkpt>
      <trkpt lat="36.67432" lon="28.05076">
        <ele>27.9</ele>
      </trkpt>
      <trkpt lat="36.67444" lon="28.05071">
        <ele>31.5</ele>
      </trkpt>
      <trkpt lat="36.67444" lon="28.05071">
        <ele>31.5</ele>
      </trkpt>
      <trkpt lat="36.67441" lon="28.05077">
        <ele>31.9</ele>
      </trkpt>
      <trkpt lat="36.67439" lon="28.05084">
        <ele>32.5</ele>
      </trkpt>
      <trkpt lat="36.67437" lon="28.05096">
        <ele>35.1</ele>
      </trkpt>
      <trkpt lat="36.67436" lon="28.05105">
        <ele>37.4</ele>
      </trkpt>
      <trkpt lat="36.67433" lon="28.05115">
        <ele>39.1</ele>
      </trkpt>
      <trkpt lat="36.67432" lon="28.05119">
        <ele>39.5</ele>
      </trkpt>
      <trkpt lat="36.67431" lon="28.0512">
        <ele>39.7</ele>
      </trkpt>
      <trkpt lat="36.67429" lon="28.05128">
        <ele>41.2</ele>
      </trkpt>
      <trkpt lat="36.67429" lon="28.05133">
        <ele>42.3</ele>
      </trkpt>
      <trkpt lat="36.67429" lon="28.05133">
        <ele>42.3</ele>
      </trkpt>
      <trkpt lat="36.67426" lon="28.05133">
        <ele>41.3</ele>
      </trkpt>
      <trkpt lat="36.67424" lon="28.05139">
        <ele>41.6</ele>
      </trkpt>
      <trkpt lat="36.67423" lon="28.0514">
        <ele>41.7</ele>
      </trkpt>
      <trkpt lat="36.67422" lon="28.05143">
        <ele>41.7</ele>
      </trkpt>
      <trkpt lat="36.67419" lon="28.05146">
        <ele>41.4</ele>
      </trkpt>
      <trkpt lat="36.67418" lon="28.05153">
        <ele>42.6</ele>
      </trkpt>
      <trkpt lat="36.67416" lon="28.05156">
        <ele>42.8</ele>
      </trkpt>
      <trkpt lat="36.67415" lon="28.05159">
        <ele>43.2</ele>
      </trkpt>
      <trkpt lat="36.67413" lon="28.0516">
        <ele>43.1</ele>
      </trkpt>
      <trkpt lat="36.67407" lon="28.05167">
        <ele>42.8</ele>
      </trkpt>
      <trkpt lat="36.67406" lon="28.05169">
        <ele>42.7</ele>
      </trkpt>
      <trkpt lat="36.67406" lon="28.05172">
        <ele>43.2</ele>
      </trkpt>
      <trkpt lat="36.67402" lon="28.05175">
        <ele>42.4</ele>
      </trkpt>
      <trkpt lat="36.67397" lon="28.05182">
        <ele>41.7</ele>
      </trkpt>
      <trkpt lat="36.67396" lon="28.05185">
        <ele>41.5</ele>
      </trkpt>
      <trkpt lat="36.67393" lon="28.05191">
        <ele>41.4</ele>
      </trkpt>
      <trkpt lat="36.6739" lon="28.05197">
        <ele>41</ele>
      </trkpt>
      <trkpt lat="36.67388" lon="28.05201">
        <ele>41</ele>
      </trkpt>
      <trkpt lat="36.67384" lon="28.05208">
        <ele>40.3</ele>
      </trkpt>
      <trkpt lat="36.67377" lon="28.05215">
        <ele>38.6</ele>
      </trkpt>
      <trkpt lat="36.67371" lon="28.05221">
        <ele>37.3</ele>
      </trkpt>
      <trkpt lat="36.67372" lon="28.05224">
        <ele>37.8</ele>
      </trkpt>
      <trkpt lat="36.67376" lon="28.05225">
        <ele>39.4</ele>
      </trkpt>
      <trkpt lat="36.67378" lon="28.05228">
        <ele>40.4</ele>
      </trkpt>
      <trkpt lat="36.67379" lon="28.0523">
        <ele>41.1</ele>
      </trkpt>
      <trkpt lat="36.67381" lon="28.05243">
        <ele>43.6</ele>
      </trkpt>
      <trkpt lat="36.67381" lon="28.05248">
        <ele>44.2</ele>
      </trkpt>
      <trkpt lat="36.67381" lon="28.0525">
        <ele>44.2</ele>
      </trkpt>
      <trkpt lat="36.6738" lon="28.05253">
        <ele>43.5</ele>
      </trkpt>
      <trkpt lat="36.6738" lon="28.05265">
        <ele>41.5</ele>
      </trkpt>
      <trkpt lat="36.67383" lon="28.0527">
        <ele>41.9</ele>
      </trkpt>
      <trkpt lat="36.67384" lon="28.05271">
        <ele>42.3</ele>
      </trkpt>
      <trkpt lat="36.67388" lon="28.0528">
        <ele>42.2</ele>
      </trkpt>
      <trkpt lat="36.6739" lon="28.05283">
        <ele>42.5</ele>
      </trkpt>
      <trkpt lat="36.67393" lon="28.05291">
        <ele>42.5</ele>
      </trkpt>
      <trkpt lat="36.67393" lon="28.05294">
        <ele>42</ele>
      </trkpt>
      <trkpt lat="36.67396" lon="28.05301">
        <ele>41.9</ele>
      </trkpt>
      <trkpt lat="36.67397" lon="28.05306">
        <ele>41.3</ele>
      </trkpt>
      <trkpt lat="36.67399" lon="28.05311">
        <ele>41.1</ele>
      </trkpt>
      <trkpt lat="36.67405" lon="28.05319">
        <ele>42</ele>
      </trkpt>
      <trkpt lat="36.67407" lon="28.05322">
        <ele>42.2</ele>
      </trkpt>
      <trkpt lat="36.67407" lon="28.05323">
        <ele>42.4</ele>
      </trkpt>
      <trkpt lat="36.6741" lon="28.05327">
        <ele>42.5</ele>
      </trkpt>
      <trkpt lat="36.6741" lon="28.05328">
        <ele>42.6</ele>
      </trkpt>
      <trkpt lat="36.67414" lon="28.05333">
        <ele>43</ele>
      </trkpt>
      <trkpt lat="36.67419" lon="28.05339">
        <ele>43.9</ele>
      </trkpt>
      <trkpt lat="36.67422" lon="28.05344">
        <ele>44</ele>
      </trkpt>
      <trkpt lat="36.67425" lon="28.05351">
        <ele>43.6</ele>
      </trkpt>
      <trkpt lat="36.67426" lon="28.05353">
        <ele>43.4</ele>
      </trkpt>
      <trkpt lat="36.67429" lon="28.05357">
        <ele>43.9</ele>
      </trkpt>
      <trkpt lat="36.67432" lon="28.05363">
        <ele>43.7</ele>
      </trkpt>
      <trkpt lat="36.67434" lon="28.05368">
        <ele>43</ele>
      </trkpt>
      <trkpt lat="36.67435" lon="28.05373">
        <ele>42.3</ele>
      </trkpt>
      <trkpt lat="36.67436" lon="28.05378">
        <ele>41.4</ele>
      </trkpt>
      <trkpt lat="36.67438" lon="28.05382">
        <ele>40.8</ele>
      </trkpt>
      <trkpt lat="36.67439" lon="28.05386">
        <ele>40.4</ele>
      </trkpt>
      <trkpt lat="36.6744" lon="28.05393">
        <ele>38.7</ele>
      </trkpt>
      <trkpt lat="36.67442" lon="28.054">
        <ele>37.6</ele>
      </trkpt>
      <trkpt lat="36.67444" lon="28.05408">
        <ele>35.8</ele>
      </trkpt>
      <trkpt lat="36.67443" lon="28.05413">
        <ele>34.3</ele>
      </trkpt>
      <trkpt lat="36.67445" lon="28.05419">
        <ele>33.6</ele>
      </trkpt>
      <trkpt lat="36.67447" lon="28.05422">
        <ele>33.8</ele>
      </trkpt>
      <trkpt lat="36.67451" lon="28.05428">
        <ele>33.8</ele>
      </trkpt>
      <trkpt lat="36.67452" lon="28.05432">
        <ele>33.6</ele>
      </trkpt>
      <trkpt lat="36.67455" lon="28.05438">
        <ele>33.9</ele>
      </trkpt>
      <trkpt lat="36.67459" lon="28.05442">
        <ele>34.3</ele>
      </trkpt>
      <trkpt lat="36.6746" lon="28.05443">
        <ele>34.5</ele>
      </trkpt>
      <trkpt lat="36.67459" lon="28.05451">
        <ele>33.2</ele>
      </trkpt>
      <trkpt lat="36.67461" lon="28.05456">
        <ele>32.8</ele>
      </trkpt>
      <trkpt lat="36.67462" lon="28.05457">
        <ele>32.9</ele>
      </trkpt>
      <trkpt lat="36.67467" lon="28.05468">
        <ele>33.1</ele>
      </trkpt>
      <trkpt lat="36.67468" lon="28.05471">
        <ele>32.7</ele>
      </trkpt>
      <trkpt lat="36.6747" lon="28.05481">
        <ele>31.6</ele>
      </trkpt>
      <trkpt lat="36.6747" lon="28.05483">
        <ele>31.5</ele>
      </trkpt>
      <trkpt lat="36.67471" lon="28.05494">
        <ele>29.8</ele>
      </trkpt>
      <trkpt lat="36.67474" lon="28.05502">
        <ele>29.9</ele>
      </trkpt>
      <trkpt lat="36.67476" lon="28.05512">
        <ele>30</ele>
      </trkpt>
      <trkpt lat="36.6748" lon="28.05521">
        <ele>30.7</ele>
      </trkpt>
      <trkpt lat="36.67483" lon="28.05528">
        <ele>31.1</ele>
      </trkpt>
      <trkpt lat="36.67483" lon="28.05531">
        <ele>30.8</ele>
      </trkpt>
      <trkpt lat="36.67483" lon="28.05536">
        <ele>30.7</ele>
      </trkpt>
      <trkpt lat="36.67483" lon="28.05536">
        <ele>30.8</ele>
      </trkpt>
      <trkpt lat="36.67483" lon="28.05541">
        <ele>30.2</ele>
      </trkpt>
      <trkpt lat="36.67481" lon="28.05544">
        <ele>29.4</ele>
      </trkpt>
      <trkpt lat="36.67481" lon="28.05555">
        <ele>28.6</ele>
      </trkpt>
      <trkpt lat="36.67484" lon="28.05565">
        <ele>28.9</ele>
      </trkpt>
      <trkpt lat="36.67483" lon="28.05569">
        <ele>28.5</ele>
      </trkpt>
      <trkpt lat="36.67484" lon="28.05572">
        <ele>28.4</ele>
      </trkpt>
      <trkpt lat="36.67483" lon="28.05575">
        <ele>28.2</ele>
      </trkpt>
      <trkpt lat="36.67484" lon="28.05585">
        <ele>27.7</ele>
      </trkpt>
      <trkpt lat="36.67483" lon="28.0559">
        <ele>27.2</ele>
      </trkpt>
      <trkpt lat="36.67485" lon="28.05595">
        <ele>27.4</ele>
      </trkpt>
      <trkpt lat="36.67484" lon="28.05598">
        <ele>27.1</ele>
      </trkpt>
      <trkpt lat="36.67484" lon="28.05599">
        <ele>27.1</ele>
      </trkpt>
      <trkpt lat="36.67486" lon="28.05606">
        <ele>27</ele>
      </trkpt>
      <trkpt lat="36.67487" lon="28.05611">
        <ele>27.1</ele>
      </trkpt>
      <trkpt lat="36.67488" lon="28.05618">
        <ele>27</ele>
      </trkpt>
      <trkpt lat="36.67489" lon="28.05622">
        <ele>27.3</ele>
      </trkpt>
      <trkpt lat="36.67489" lon="28.05633">
        <ele>26.7</ele>
      </trkpt>
      <trkpt lat="36.67489" lon="28.0564">
        <ele>26.1</ele>
      </trkpt>
      <trkpt lat="36.67489" lon="28.05643">
        <ele>26.1</ele>
      </trkpt>
      <trkpt lat="36.67492" lon="28.05653">
        <ele>26.5</ele>
      </trkpt>
      <trkpt lat="36.67493" lon="28.05654">
        <ele>26.7</ele>
      </trkpt>
      <trkpt lat="36.67496" lon="28.05662">
        <ele>27</ele>
      </trkpt>
      <trkpt lat="36.67496" lon="28.05668">
        <ele>26.6</ele>
      </trkpt>
      <trkpt lat="36.67496" lon="28.05676">
        <ele>26.6</ele>
      </trkpt>
      <trkpt lat="36.67496" lon="28.05678">
        <ele>26.6</ele>
      </trkpt>
      <trkpt lat="36.67496" lon="28.05685">
        <ele>26.7</ele>
      </trkpt>
      <trkpt lat="36.67497" lon="28.05688">
        <ele>26.8</ele>
      </trkpt>
      <trkpt lat="36.67498" lon="28.05694">
        <ele>27</ele>
      </trkpt>
      <trkpt lat="36.67499" lon="28.05705">
        <ele>26.9</ele>
      </trkpt>
      <trkpt lat="36.67498" lon="28.0571">
        <ele>26.7</ele>
      </trkpt>
      <trkpt lat="36.67498" lon="28.05713">
        <ele>26.6</ele>
      </trkpt>
      <trkpt lat="36.67498" lon="28.05714">
        <ele>26.5</ele>
      </trkpt>
      <trkpt lat="36.67498" lon="28.05721">
        <ele>26.5</ele>
      </trkpt>
      <trkpt lat="36.67501" lon="28.05731">
        <ele>26.8</ele>
      </trkpt>
      <trkpt lat="36.67501" lon="28.05733">
        <ele>26.8</ele>
      </trkpt>
      <trkpt lat="36.67499" lon="28.0574">
        <ele>26.2</ele>
      </trkpt>
      <trkpt lat="36.67497" lon="28.05747">
        <ele>26</ele>
      </trkpt>
      <trkpt lat="36.67496" lon="28.05754">
        <ele>25.9</ele>
      </trkpt>
      <trkpt lat="36.67495" lon="28.0576">
        <ele>25.8</ele>
      </trkpt>
      <trkpt lat="36.67493" lon="28.05764">
        <ele>25.7</ele>
      </trkpt>
      <trkpt lat="36.67492" lon="28.05765">
        <ele>25.6</ele>
      </trkpt>
      <trkpt lat="36.67491" lon="28.05775">
        <ele>25.4</ele>
      </trkpt>
      <trkpt lat="36.67491" lon="28.05779">
        <ele>25.3</ele>
      </trkpt>
      <trkpt lat="36.6749" lon="28.05781">
        <ele>25.2</ele>
      </trkpt>
      <trkpt lat="36.67488" lon="28.05791">
        <ele>25</ele>
      </trkpt>
      <trkpt lat="36.67487" lon="28.05797">
        <ele>24.9</ele>
      </trkpt>
      <trkpt lat="36.67487" lon="28.058">
        <ele>24.8</ele>
      </trkpt>
      <trkpt lat="36.67487" lon="28.05801">
        <ele>24.8</ele>
      </trkpt>
      <trkpt lat="36.67487" lon="28.05804">
        <ele>24.7</ele>
      </trkpt>
      <trkpt lat="36.67487" lon="28.05809">
        <ele>24.6</ele>
      </trkpt>
      <trkpt lat="36.67486" lon="28.05813">
        <ele>24.5</ele>
      </trkpt>
      <trkpt lat="36.67487" lon="28.05817">
        <ele>24.4</ele>
      </trkpt>
      <trkpt lat="36.67487" lon="28.05817">
        <ele>24.4</ele>
      </trkpt>
      <trkpt lat="36.67489" lon="28.05823">
        <ele>24.3</ele>
      </trkpt>
      <trkpt lat="36.67491" lon="28.05825">
        <ele>24.2</ele>
      </trkpt>
      <trkpt lat="36.67492" lon="28.05825">
        <ele>24.2</ele>
      </trkpt>
      <trkpt lat="36.67491" lon="28.05825">
        <ele>24.2</ele>
      </trkpt>
      <trkpt lat="36.67492" lon="28.05826">
        <ele>24.2</ele>
      </trkpt>
      <trkpt lat="36.67493" lon="28.05829">
        <ele>24.1</ele>
      </trkpt>
      <trkpt lat="36.67492" lon="28.05832">
        <ele>24</ele>
      </trkpt>
      <trkpt lat="36.67493" lon="28.05836">
        <ele>23.7</ele>
      </trkpt>
      <trkpt lat="36.67495" lon="28.05839">
        <ele>23.2</ele>
      </trkpt>
      <trkpt lat="36.67495" lon="28.0584">
        <ele>23</ele>
      </trkpt>
      <trkpt lat="36.67495" lon="28.05846">
        <ele>22.2</ele>
      </trkpt>
      <trkpt lat="36.67495" lon="28.05851">
        <ele>21.5</ele>
      </trkpt>
      <trkpt lat="36.67497" lon="28.05855">
        <ele>21</ele>
      </trkpt>
      <trkpt lat="36.67497" lon="28.05861">
        <ele>20.3</ele>
      </trkpt>
      <trkpt lat="36.67499" lon="28.05864">
        <ele>19.8</ele>
      </trkpt>
      <trkpt lat="36.675" lon="28.05867">
        <ele>19.6</ele>
      </trkpt>
      <trkpt lat="36.675" lon="28.05866">
        <ele>19.6</ele>
      </trkpt>
      <trkpt lat="36.67502" lon="28.05872">
        <ele>20</ele>
      </trkpt>
      <trkpt lat="36.67503" lon="28.05876">
        <ele>19.9</ele>
      </trkpt>
      <trkpt lat="36.67503" lon="28.05877">
        <ele>19.7</ele>
      </trkpt>
      <trkpt lat="36.67504" lon="28.05879">
        <ele>19.6</ele>
      </trkpt>
      <trkpt lat="36.67505" lon="28.05882">
        <ele>19.8</ele>
      </trkpt>
      <trkpt lat="36.67507" lon="28.05885">
        <ele>20.2</ele>
      </trkpt>
      <trkpt lat="36.67506" lon="28.05886">
        <ele>19.8</ele>
      </trkpt>
      <trkpt lat="36.67507" lon="28.05891">
        <ele>19.6</ele>
      </trkpt>
      <trkpt lat="36.67509" lon="28.05892">
        <ele>19.9</ele>
      </trkpt>
      <trkpt lat="36.67509" lon="28.05892">
        <ele>19.9</ele>
      </trkpt>
      <trkpt lat="36.6751" lon="28.05893">
        <ele>20.4</ele>
      </trkpt>
      <trkpt lat="36.67511" lon="28.05895">
        <ele>20.8</ele>
      </trkpt>
      <trkpt lat="36.67512" lon="28.05896">
        <ele>20.8</ele>
      </trkpt>
      <trkpt lat="36.67512" lon="28.05896">
        <ele>20.8</ele>
      </trkpt>
      <trkpt lat="36.67512" lon="28.05897">
        <ele>20.9</ele>
      </trkpt>
      <trkpt lat="36.67515" lon="28.05903">
        <ele>21.4</ele>
      </trkpt>
      <trkpt lat="36.67516" lon="28.05903">
        <ele>21.4</ele>
      </trkpt>
      <trkpt lat="36.67516" lon="28.05905">
        <ele>21.5</ele>
      </trkpt>
      <trkpt lat="36.67517" lon="28.05912">
        <ele>20.7</ele>
      </trkpt>
      <trkpt lat="36.67518" lon="28.05914">
        <ele>20.9</ele>
      </trkpt>
      <trkpt lat="36.6752" lon="28.05918">
        <ele>21.3</ele>
      </trkpt>
      <trkpt lat="36.67523" lon="28.05924">
        <ele>22.4</ele>
      </trkpt>
      <trkpt lat="36.67526" lon="28.05928">
        <ele>23.2</ele>
      </trkpt>
      <trkpt lat="36.67527" lon="28.05934">
        <ele>23</ele>
      </trkpt>
      <trkpt lat="36.67527" lon="28.05935">
        <ele>23</ele>
      </trkpt>
      <trkpt lat="36.67528" lon="28.05939">
        <ele>23.1</ele>
      </trkpt>
      <trkpt lat="36.67528" lon="28.05941">
        <ele>23</ele>
      </trkpt>
      <trkpt lat="36.67528" lon="28.05942">
        <ele>23</ele>
      </trkpt>
      <trkpt lat="36.67531" lon="28.05947">
        <ele>23.7</ele>
      </trkpt>
      <trkpt lat="36.67533" lon="28.05949">
        <ele>24.2</ele>
      </trkpt>
      <trkpt lat="36.67533" lon="28.05949">
        <ele>24.2</ele>
      </trkpt>
      <trkpt lat="36.67534" lon="28.05953">
        <ele>24.2</ele>
      </trkpt>
      <trkpt lat="36.67534" lon="28.05957">
        <ele>23.9</ele>
      </trkpt>
      <trkpt lat="36.67535" lon="28.05959">
        <ele>24.2</ele>
      </trkpt>
      <trkpt lat="36.67535" lon="28.05959">
        <ele>24.2</ele>
      </trkpt>
      <trkpt lat="36.67537" lon="28.05963">
        <ele>24.4</ele>
      </trkpt>
      <trkpt lat="36.67537" lon="28.05963">
        <ele>24.5</ele>
      </trkpt>
      <trkpt lat="36.67537" lon="28.05965">
        <ele>24.3</ele>
      </trkpt>
      <trkpt lat="36.67537" lon="28.05967">
        <ele>24</ele>
      </trkpt>
      <trkpt lat="36.67536" lon="28.0597">
        <ele>23.7</ele>
      </trkpt>
      <trkpt lat="36.67537" lon="28.05972">
        <ele>23.6</ele>
      </trkpt>
      <trkpt lat="36.67535" lon="28.05971">
        <ele>23.2</ele>
      </trkpt>
      <trkpt lat="36.67535" lon="28.05975">
        <ele>22.9</ele>
      </trkpt>
      <trkpt lat="36.67535" lon="28.05975">
        <ele>22.9</ele>
      </trkpt>
      <trkpt lat="36.67536" lon="28.05979">
        <ele>22.8</ele>
      </trkpt>
      <trkpt lat="36.67537" lon="28.05986">
        <ele>22.3</ele>
      </trkpt>
      <trkpt lat="36.67539" lon="28.05991">
        <ele>22.6</ele>
      </trkpt>
      <trkpt lat="36.67539" lon="28.05994">
        <ele>22.3</ele>
      </trkpt>
      <trkpt lat="36.67541" lon="28.05992">
        <ele>23.1</ele>
      </trkpt>
      <trkpt lat="36.67542" lon="28.06002">
        <ele>22.5</ele>
      </trkpt>
      <trkpt lat="36.67544" lon="28.06004">
        <ele>22.7</ele>
      </trkpt>
      <trkpt lat="36.67544" lon="28.06008">
        <ele>22.2</ele>
      </trkpt>
      <trkpt lat="36.67544" lon="28.06011">
        <ele>21.8</ele>
      </trkpt>
      <trkpt lat="36.67544" lon="28.0601">
        <ele>22</ele>
      </trkpt>
      <trkpt lat="36.67547" lon="28.06012">
        <ele>22.5</ele>
      </trkpt>
      <trkpt lat="36.67548" lon="28.06013">
        <ele>22.6</ele>
      </trkpt>
      <trkpt lat="36.67549" lon="28.06012">
        <ele>22.8</ele>
      </trkpt>
      <trkpt lat="36.67548" lon="28.06013">
        <ele>22.7</ele>
      </trkpt>
      <trkpt lat="36.67548" lon="28.06013">
        <ele>22.6</ele>
      </trkpt>
      <trkpt lat="36.67549" lon="28.06015">
        <ele>22.6</ele>
      </trkpt>
      <trkpt lat="36.6755" lon="28.06016">
        <ele>22.8</ele>
      </trkpt>
      <trkpt lat="36.67552" lon="28.06022">
        <ele>22.4</ele>
      </trkpt>
      <trkpt lat="36.67554" lon="28.06025">
        <ele>22.5</ele>
      </trkpt>
      <trkpt lat="36.67554" lon="28.06026">
        <ele>22.4</ele>
      </trkpt>
      <trkpt lat="36.67555" lon="28.0603">
        <ele>22</ele>
      </trkpt>
      <trkpt lat="36.67555" lon="28.0603">
        <ele>22</ele>
      </trkpt>
      <trkpt lat="36.67556" lon="28.06033">
        <ele>21.9</ele>
      </trkpt>
      <trkpt lat="36.67557" lon="28.06036">
        <ele>21.6</ele>
      </trkpt>
      <trkpt lat="36.67557" lon="28.06036">
        <ele>21.6</ele>
      </trkpt>
      <trkpt lat="36.67559" lon="28.06038">
        <ele>21.9</ele>
      </trkpt>
      <trkpt lat="36.6756" lon="28.0604">
        <ele>21.7</ele>
      </trkpt>
      <trkpt lat="36.67561" lon="28.0604">
        <ele>21.9</ele>
      </trkpt>
      <trkpt lat="36.67567" lon="28.06044">
        <ele>22.4</ele>
      </trkpt>
      <trkpt lat="36.67568" lon="28.06046">
        <ele>22.3</ele>
      </trkpt>
      <trkpt lat="36.6757" lon="28.06048">
        <ele>22.3</ele>
      </trkpt>
      <trkpt lat="36.67571" lon="28.0605">
        <ele>22.2</ele>
      </trkpt>
      <trkpt lat="36.67574" lon="28.06052">
        <ele>22.3</ele>
      </trkpt>
      <trkpt lat="36.67576" lon="28.06053">
        <ele>22.5</ele>
      </trkpt>
      <trkpt lat="36.67577" lon="28.06054">
        <ele>22.5</ele>
      </trkpt>
      <trkpt lat="36.67579" lon="28.06054">
        <ele>22.8</ele>
      </trkpt>
      <trkpt lat="36.67584" lon="28.06056">
        <ele>23.5</ele>
      </trkpt>
      <trkpt lat="36.67591" lon="28.06064">
        <ele>24.7</ele>
      </trkpt>
      <trkpt lat="36.67592" lon="28.06064">
        <ele>25.2</ele>
      </trkpt>
      <trkpt lat="36.67594" lon="28.06067">
        <ele>25.3</ele>
      </trkpt>
      <trkpt lat="36.67594" lon="28.06068">
        <ele>25.1</ele>
      </trkpt>
      <trkpt lat="36.67601" lon="28.06069">
        <ele>28</ele>
      </trkpt>
      <trkpt lat="36.67605" lon="28.06072">
        <ele>28.8</ele>
      </trkpt>
      <trkpt lat="36.67606" lon="28.06073">
        <ele>29</ele>
      </trkpt>
      <trkpt lat="36.6761" lon="28.06074">
        <ele>30.4</ele>
      </trkpt>
      <trkpt lat="36.6761" lon="28.06073">
        <ele>30.5</ele>
      </trkpt>
      <trkpt lat="36.67613" lon="28.06076">
        <ele>31.1</ele>
      </trkpt>
      <trkpt lat="36.67616" lon="28.06081">
        <ele>30.9</ele>
      </trkpt>
      <trkpt lat="36.67618" lon="28.06083">
        <ele>31.3</ele>
      </trkpt>
      <trkpt lat="36.6762" lon="28.06084">
        <ele>32</ele>
      </trkpt>
      <trkpt lat="36.67622" lon="28.06085">
        <ele>32.8</ele>
      </trkpt>
      <trkpt lat="36.67623" lon="28.06087">
        <ele>32.8</ele>
      </trkpt>
      <trkpt lat="36.67625" lon="28.06088">
        <ele>33.3</ele>
      </trkpt>
      <trkpt lat="36.67625" lon="28.06088">
        <ele>33.3</ele>
      </trkpt>
      <trkpt lat="36.67627" lon="28.06091">
        <ele>33.8</ele>
      </trkpt>
      <trkpt lat="36.67628" lon="28.06091">
        <ele>34.4</ele>
      </trkpt>
      <trkpt lat="36.67626" lon="28.06092">
        <ele>33.5</ele>
      </trkpt>
      <trkpt lat="36.67625" lon="28.06093">
        <ele>32.7</ele>
      </trkpt>
      <trkpt lat="36.67629" lon="28.06097">
        <ele>33.9</ele>
      </trkpt>
      <trkpt lat="36.6763" lon="28.06098">
        <ele>34.2</ele>
      </trkpt>
      <trkpt lat="36.67633" lon="28.06105">
        <ele>34.5</ele>
      </trkpt>
      <trkpt lat="36.67639" lon="28.06112">
        <ele>36</ele>
      </trkpt>
      <trkpt lat="36.67642" lon="28.06113">
        <ele>36.8</ele>
      </trkpt>
      <trkpt lat="36.67645" lon="28.06115">
        <ele>37.9</ele>
      </trkpt>
      <trkpt lat="36.67649" lon="28.0612">
        <ele>38.5</ele>
      </trkpt>
      <trkpt lat="36.67654" lon="28.06125">
        <ele>39.7</ele>
      </trkpt>
      <trkpt lat="36.67655" lon="28.06127">
        <ele>40</ele>
      </trkpt>
      <trkpt lat="36.67657" lon="28.06136">
        <ele>39.6</ele>
      </trkpt>
      <trkpt lat="36.67656" lon="28.06139">
        <ele>38.9</ele>
      </trkpt>
      <trkpt lat="36.67656" lon="28.06145">
        <ele>38</ele>
      </trkpt>
      <trkpt lat="36.67656" lon="28.06155">
        <ele>36.6</ele>
      </trkpt>
      <trkpt lat="36.67655" lon="28.06157">
        <ele>36.3</ele>
      </trkpt>
      <trkpt lat="36.67657" lon="28.06164">
        <ele>36.1</ele>
      </trkpt>
      <trkpt lat="36.67662" lon="28.06169">
        <ele>37.1</ele>
      </trkpt>
      <trkpt lat="36.67662" lon="28.06171">
        <ele>37.1</ele>
      </trkpt>
      <trkpt lat="36.6766" lon="28.06176">
        <ele>36.3</ele>
      </trkpt>
      <trkpt lat="36.67661" lon="28.06179">
        <ele>36.5</ele>
      </trkpt>
      <trkpt lat="36.67661" lon="28.06188">
        <ele>36.2</ele>
      </trkpt>
      <trkpt lat="36.67663" lon="28.06194">
        <ele>36.5</ele>
      </trkpt>
      <trkpt lat="36.67664" lon="28.06198">
        <ele>36.5</ele>
      </trkpt>
      <trkpt lat="36.67666" lon="28.06204">
        <ele>36.9</ele>
      </trkpt>
      <trkpt lat="36.67666" lon="28.06208">
        <ele>36.9</ele>
      </trkpt>
      <trkpt lat="36.67667" lon="28.06214">
        <ele>36.9</ele>
      </trkpt>
      <trkpt lat="36.67667" lon="28.06215">
        <ele>36.8</ele>
      </trkpt>
      <trkpt lat="36.67668" lon="28.06217">
        <ele>37</ele>
      </trkpt>
      <trkpt lat="36.67668" lon="28.06217">
        <ele>37</ele>
      </trkpt>
      <trkpt lat="36.67668" lon="28.06219">
        <ele>37.2</ele>
      </trkpt>
      <trkpt lat="36.67668" lon="28.06219">
        <ele>37.2</ele>
      </trkpt>
      <trkpt lat="36.6767" lon="28.06218">
        <ele>37.8</ele>
      </trkpt>
      <trkpt lat="36.67677" lon="28.06218">
        <ele>41.2</ele>
      </trkpt>
      <trkpt lat="36.67678" lon="28.06222">
        <ele>41.4</ele>
      </trkpt>
      <trkpt lat="36.67676" lon="28.06233">
        <ele>40.1</ele>
      </trkpt>
      <trkpt lat="36.67675" lon="28.06242">
        <ele>39.3</ele>
      </trkpt>
      <trkpt lat="36.67676" lon="28.06255">
        <ele>38.6</ele>
      </trkpt>
      <trkpt lat="36.67678" lon="28.06265">
        <ele>38.1</ele>
      </trkpt>
      <trkpt lat="36.67677" lon="28.06271">
        <ele>36.9</ele>
      </trkpt>
      <trkpt lat="36.67678" lon="28.06275">
        <ele>36.9</ele>
      </trkpt>
      <trkpt lat="36.6768" lon="28.06284">
        <ele>36.8</ele>
      </trkpt>
      <trkpt lat="36.67682" lon="28.06287">
        <ele>37.1</ele>
      </trkpt>
      <trkpt lat="36.67683" lon="28.06296">
        <ele>36.6</ele>
      </trkpt>
      <trkpt lat="36.67687" lon="28.06306">
        <ele>37.1</ele>
      </trkpt>
      <trkpt lat="36.6769" lon="28.06316">
        <ele>37.3</ele>
      </trkpt>
      <trkpt lat="36.67691" lon="28.06318">
        <ele>37.2</ele>
      </trkpt>
      <trkpt lat="36.67693" lon="28.06324">
        <ele>37.1</ele>
      </trkpt>
      <trkpt lat="36.67695" lon="28.06331">
        <ele>37.3</ele>
      </trkpt>
      <trkpt lat="36.67697" lon="28.06337">
        <ele>37.3</ele>
      </trkpt>
      <trkpt lat="36.677" lon="28.06346">
        <ele>36.8</ele>
      </trkpt>
      <trkpt lat="36.67705" lon="28.06354">
        <ele>37.5</ele>
      </trkpt>
      <trkpt lat="36.67706" lon="28.06358">
        <ele>37.3</ele>
      </trkpt>
      <trkpt lat="36.6771" lon="28.06367">
        <ele>37.3</ele>
      </trkpt>
      <trkpt lat="36.67713" lon="28.06375">
        <ele>37</ele>
      </trkpt>
      <trkpt lat="36.67717" lon="28.06386">
        <ele>36.4</ele>
      </trkpt>
      <trkpt lat="36.67721" lon="28.06391">
        <ele>36.6</ele>
      </trkpt>
      <trkpt lat="36.67722" lon="28.06397">
        <ele>35.9</ele>
      </trkpt>
      <trkpt lat="36.67726" lon="28.06406">
        <ele>35.3</ele>
      </trkpt>
      <trkpt lat="36.67731" lon="28.06411">
        <ele>35.8</ele>
      </trkpt>
      <trkpt lat="36.67742" lon="28.06413">
        <ele>38.4</ele>
      </trkpt>
      <trkpt lat="36.67746" lon="28.06417">
        <ele>38.9</ele>
      </trkpt>
      <trkpt lat="36.67748" lon="28.06417">
        <ele>39.1</ele>
      </trkpt>
      <trkpt lat="36.67751" lon="28.06422">
        <ele>38.8</ele>
      </trkpt>
      <trkpt lat="36.67752" lon="28.06423">
        <ele>38.6</ele>
      </trkpt>
      <trkpt lat="36.67752" lon="28.06423">
        <ele>38.6</ele>
      </trkpt>
      <trkpt lat="36.67752" lon="28.06425">
        <ele>38.3</ele>
      </trkpt>
      <trkpt lat="36.67752" lon="28.06428">
        <ele>37.5</ele>
      </trkpt>
      <trkpt lat="36.67753" lon="28.06431">
        <ele>36.7</ele>
      </trkpt>
      <trkpt lat="36.67752" lon="28.06432">
        <ele>36.4</ele>
      </trkpt>
      <trkpt lat="36.67751" lon="28.06436">
        <ele>35.3</ele>
      </trkpt>
      <trkpt lat="36.67748" lon="28.06442">
        <ele>33.3</ele>
      </trkpt>
      <trkpt lat="36.67749" lon="28.06447">
        <ele>32.3</ele>
      </trkpt>
      <trkpt lat="36.67754" lon="28.0645">
        <ele>32.1</ele>
      </trkpt>
      <trkpt lat="36.67755" lon="28.06454">
        <ele>31.2</ele>
      </trkpt>
      <trkpt lat="36.67755" lon="28.06455">
        <ele>31</ele>
      </trkpt>
      <trkpt lat="36.67754" lon="28.0646">
        <ele>29.5</ele>
      </trkpt>
      <trkpt lat="36.67753" lon="28.06465">
        <ele>28.3</ele>
      </trkpt>
      <trkpt lat="36.67755" lon="28.0647">
        <ele>27</ele>
      </trkpt>
      <trkpt lat="36.67756" lon="28.06471">
        <ele>26.9</ele>
      </trkpt>
      <trkpt lat="36.67758" lon="28.06474">
        <ele>26.4</ele>
      </trkpt>
      <trkpt lat="36.67763" lon="28.06481">
        <ele>25.3</ele>
      </trkpt>
      <trkpt lat="36.67764" lon="28.06483">
        <ele>24.9</ele>
      </trkpt>
      <trkpt lat="36.67765" lon="28.06484">
        <ele>24.6</ele>
      </trkpt>
      <trkpt lat="36.67767" lon="28.06488">
        <ele>23.7</ele>
      </trkpt>
      <trkpt lat="36.67769" lon="28.06492">
        <ele>23</ele>
      </trkpt>
      <trkpt lat="36.67768" lon="28.06492">
        <ele>22.8</ele>
      </trkpt>
      <trkpt lat="36.67768" lon="28.06493">
        <ele>22.5</ele>
      </trkpt>
      <trkpt lat="36.67771" lon="28.06496">
        <ele>22.1</ele>
      </trkpt>
      <trkpt lat="36.67772" lon="28.06497">
        <ele>21.9</ele>
      </trkpt>
      <trkpt lat="36.67772" lon="28.06498">
        <ele>21.7</ele>
      </trkpt>
      <trkpt lat="36.67775" lon="28.06502">
        <ele>21.1</ele>
      </trkpt>
      <trkpt lat="36.67775" lon="28.06503">
        <ele>20.9</ele>
      </trkpt>
      <trkpt lat="36.67776" lon="28.06506">
        <ele>20.6</ele>
      </trkpt>
      <trkpt lat="36.6778" lon="28.0651">
        <ele>20.2</ele>
      </trkpt>
      <trkpt lat="36.67788" lon="28.06514">
        <ele>20.2</ele>
      </trkpt>
      <trkpt lat="36.67794" lon="28.06519">
        <ele>20</ele>
      </trkpt>
      <trkpt lat="36.67798" lon="28.06522">
        <ele>19.6</ele>
      </trkpt>
      <trkpt lat="36.67799" lon="28.06528">
        <ele>18.7</ele>
      </trkpt>
      <trkpt lat="36.67799" lon="28.06534">
        <ele>17.7</ele>
      </trkpt>
      <trkpt lat="36.67801" lon="28.06542">
        <ele>16.2</ele>
      </trkpt>
      <trkpt lat="36.67802" lon="28.06545">
        <ele>15.9</ele>
      </trkpt>
      <trkpt lat="36.67805" lon="28.06542">
        <ele>16.5</ele>
      </trkpt>
      <trkpt lat="36.67804" lon="28.06542">
        <ele>16.6</ele>
      </trkpt>
      <trkpt lat="36.67804" lon="28.06543">
        <ele>16.3</ele>
      </trkpt>
      <trkpt lat="36.67812" lon="28.06545">
        <ele>16.4</ele>
      </trkpt>
      <trkpt lat="36.67817" lon="28.0655">
        <ele>15.8</ele>
      </trkpt>
      <trkpt lat="36.67811" lon="28.06563">
        <ele>13.1</ele>
      </trkpt>
      <trkpt lat="36.67812" lon="28.06562">
        <ele>13.3</ele>
      </trkpt>
      <trkpt lat="36.67771" lon="28.0656">
        <ele>11.5</ele>
      </trkpt>
      <trkpt lat="36.67693" lon="28.06548">
        <ele>7.4</ele>
      </trkpt>
      <trkpt lat="36.67636" lon="28.06544">
        <ele>7</ele>
      </trkpt>
      <trkpt lat="36.67627" lon="28.06543">
        <ele>7.5</ele>
      </trkpt>
      <trkpt lat="36.67569" lon="28.06529">
        <ele>7.6</ele>
      </trkpt>
      <trkpt lat="36.67501" lon="28.06525">
        <ele>7.4</ele>
      </trkpt>
      <trkpt lat="36.67451" lon="28.06527">
        <ele>5.6</ele>
      </trkpt>
      <trkpt lat="36.67443" lon="28.06529">
        <ele>5.4</ele>
      </trkpt>
      <trkpt lat="36.67436" lon="28.0653">
        <ele>5.2</ele>
      </trkpt>
      <trkpt lat="36.67429" lon="28.06532">
        <ele>5</ele>
      </trkpt>
      <trkpt lat="36.67422" lon="28.06536">
        <ele>4.9</ele>
      </trkpt>
      <trkpt lat="36.67416" lon="28.06541">
        <ele>4.9</ele>
      </trkpt>
      <trkpt lat="36.67412" lon="28.06547">
        <ele>5.4</ele>
      </trkpt>
      <trkpt lat="36.6741" lon="28.06555">
        <ele>6</ele>
      </trkpt>
      <trkpt lat="36.6741" lon="28.06564">
        <ele>6.6</ele>
      </trkpt>
      <trkpt lat="36.67413" lon="28.06585">
        <ele>8.1</ele>
      </trkpt>
      <trkpt lat="36.67423" lon="28.06643">
        <ele>16.2</ele>
      </trkpt>
      <trkpt lat="36.6742" lon="28.06687">
        <ele>15.2</ele>
      </trkpt>
      <trkpt lat="36.67418" lon="28.06695">
        <ele>13.5</ele>
      </trkpt>
      <trkpt lat="36.67419" lon="28.067">
        <ele>12.8</ele>
      </trkpt>
      <trkpt lat="36.67423" lon="28.06704">
        <ele>12.9</ele>
      </trkpt>
      <trkpt lat="36.67453" lon="28.06729">
        <ele>14.6</ele>
      </trkpt>
      <trkpt lat="36.67459" lon="28.06736">
        <ele>14.7</ele>
      </trkpt>
      <trkpt lat="36.67465" lon="28.06745">
        <ele>14.6</ele>
      </trkpt>
      <trkpt lat="36.67479" lon="28.06777">
        <ele>14.8</ele>
      </trkpt>
      <trkpt lat="36.67483" lon="28.06786">
        <ele>14.9</ele>
      </trkpt>
      <trkpt lat="36.67488" lon="28.06794">
        <ele>15.2</ele>
      </trkpt>
      <trkpt lat="36.67506" lon="28.06815">
        <ele>17.6</ele>
      </trkpt>
      <trkpt lat="36.67513" lon="28.06823">
        <ele>19.3</ele>
      </trkpt>
      <trkpt lat="36.6752" lon="28.06831">
        <ele>21</ele>
      </trkpt>
      <trkpt lat="36.67526" lon="28.06841">
        <ele>22.5</ele>
      </trkpt>
      <trkpt lat="36.6753" lon="28.06852">
        <ele>23.4</ele>
      </trkpt>
      <trkpt lat="36.67537" lon="28.06888">
        <ele>24</ele>
      </trkpt>
      <trkpt lat="36.67547" lon="28.06983">
        <ele>20.2</ele>
      </trkpt>
      <trkpt lat="36.67567" lon="28.07073">
        <ele>18.5</ele>
      </trkpt>
      <trkpt lat="36.67584" lon="28.07144">
        <ele>21.1</ele>
      </trkpt>
      <trkpt lat="36.67589" lon="28.07209">
        <ele>20.2</ele>
      </trkpt>
      <trkpt lat="36.67588" lon="28.0722">
        <ele>19.2</ele>
      </trkpt>
      <trkpt lat="36.67587" lon="28.0723">
        <ele>17.9</ele>
      </trkpt>
      <trkpt lat="36.67569" lon="28.07293">
        <ele>14.6</ele>
      </trkpt>
      <trkpt lat="36.67566" lon="28.07302">
        <ele>14.5</ele>
      </trkpt>
      <trkpt lat="36.67564" lon="28.0731">
        <ele>14.5</ele>
      </trkpt>
      <trkpt lat="36.67562" lon="28.07318">
        <ele>14.4</ele>
      </trkpt>
      <trkpt lat="36.67561" lon="28.07327">
        <ele>14.5</ele>
      </trkpt>
      <trkpt lat="36.6756" lon="28.07335">
        <ele>14.6</ele>
      </trkpt>
      <trkpt lat="36.6756" lon="28.07344">
        <ele>14.5</ele>
      </trkpt>
      <trkpt lat="36.67573" lon="28.07405">
        <ele>13.7</ele>
      </trkpt>
      <trkpt lat="36.67582" lon="28.0746">
        <ele>13.2</ele>
      </trkpt>
      <trkpt lat="36.67583" lon="28.07466">
        <ele>13.1</ele>
      </trkpt>
      <trkpt lat="36.67584" lon="28.0747">
        <ele>13.1</ele>
      </trkpt>
      <trkpt lat="36.67583" lon="28.07494">
        <ele>13</ele>
      </trkpt>
      <trkpt lat="36.67583" lon="28.07494">
        <ele>13</ele>
      </trkpt>
      <trkpt lat="36.67582" lon="28.07497">
        <ele>13.5</ele>
      </trkpt>
      <trkpt lat="36.67578" lon="28.07504">
        <ele>15.3</ele>
      </trkpt>
      <trkpt lat="36.67575" lon="28.07506">
        <ele>16.5</ele>
      </trkpt>
      <trkpt lat="36.67571" lon="28.07508">
        <ele>17.8</ele>
      </trkpt>
      <trkpt lat="36.67566" lon="28.07508">
        <ele>19.7</ele>
      </trkpt>
      <trkpt lat="36.67563" lon="28.0751">
        <ele>21.3</ele>
      </trkpt>
      <trkpt lat="36.67558" lon="28.07507">
        <ele>22.7</ele>
      </trkpt>
      <trkpt lat="36.67556" lon="28.07508">
        <ele>23.4</ele>
      </trkpt>
      <trkpt lat="36.67552" lon="28.07509">
        <ele>25.2</ele>
      </trkpt>
      <trkpt lat="36.67548" lon="28.07508">
        <ele>26.7</ele>
      </trkpt>
      <trkpt lat="36.67545" lon="28.07509">
        <ele>27.8</ele>
      </trkpt>
      <trkpt lat="36.67542" lon="28.07507">
        <ele>28.9</ele>
      </trkpt>
      <trkpt lat="36.67539" lon="28.07508">
        <ele>29.9</ele>
      </trkpt>
      <trkpt lat="36.67535" lon="28.07509">
        <ele>31.7</ele>
      </trkpt>
      <trkpt lat="36.67535" lon="28.07508">
        <ele>31.6</ele>
      </trkpt>
      <trkpt lat="36.67531" lon="28.07508">
        <ele>32.8</ele>
      </trkpt>
      <trkpt lat="36.67528" lon="28.07508">
        <ele>34.1</ele>
      </trkpt>
      <trkpt lat="36.67526" lon="28.07506">
        <ele>34.3</ele>
      </trkpt>
      <trkpt lat="36.67524" lon="28.07504">
        <ele>35</ele>
      </trkpt>
      <trkpt lat="36.67521" lon="28.07503">
        <ele>36</ele>
      </trkpt>
      <trkpt lat="36.67518" lon="28.07503">
        <ele>37.1</ele>
      </trkpt>
      <trkpt lat="36.67517" lon="28.07504">
        <ele>37.6</ele>
      </trkpt>
      <trkpt lat="36.67513" lon="28.07503">
        <ele>39</ele>
      </trkpt>
      <trkpt lat="36.67511" lon="28.07501">
        <ele>39.4</ele>
      </trkpt>
      <trkpt lat="36.67509" lon="28.075">
        <ele>39.7</ele>
      </trkpt>
      <trkpt lat="36.67504" lon="28.075">
        <ele>41.6</ele>
      </trkpt>
      <trkpt lat="36.67502" lon="28.07501">
        <ele>42.6</ele>
      </trkpt>
      <trkpt lat="36.675" lon="28.075">
        <ele>43.2</ele>
      </trkpt>
      <trkpt lat="36.67497" lon="28.075">
        <ele>44</ele>
      </trkpt>
      <trkpt lat="36.67494" lon="28.07499">
        <ele>44.8</ele>
      </trkpt>
      <trkpt lat="36.6749" lon="28.07497">
        <ele>45.3</ele>
      </trkpt>
      <trkpt lat="36.67489" lon="28.07493">
        <ele>44.2</ele>
      </trkpt>
      <trkpt lat="36.67487" lon="28.07497">
        <ele>46</ele>
      </trkpt>
      <trkpt lat="36.67486" lon="28.07495">
        <ele>46</ele>
      </trkpt>
      <trkpt lat="36.67483" lon="28.07494">
        <ele>46.8</ele>
      </trkpt>
      <trkpt lat="36.67481" lon="28.07492">
        <ele>46.7</ele>
      </trkpt>
      <trkpt lat="36.67479" lon="28.07491">
        <ele>47.1</ele>
      </trkpt>
      <trkpt lat="36.67478" lon="28.07491">
        <ele>47.3</ele>
      </trkpt>
      <trkpt lat="36.67474" lon="28.07493">
        <ele>49.1</ele>
      </trkpt>
      <trkpt lat="36.67471" lon="28.07493">
        <ele>50.4</ele>
      </trkpt>
      <trkpt lat="36.67469" lon="28.07493">
        <ele>51.1</ele>
      </trkpt>
      <trkpt lat="36.67468" lon="28.07493">
        <ele>51.2</ele>
      </trkpt>
      <trkpt lat="36.67467" lon="28.07495">
        <ele>52.4</ele>
      </trkpt>
      <trkpt lat="36.67467" lon="28.07499">
        <ele>53.5</ele>
      </trkpt>
      <trkpt lat="36.67465" lon="28.07501">
        <ele>54.3</ele>
      </trkpt>
      <trkpt lat="36.67461" lon="28.07504">
        <ele>56.4</ele>
      </trkpt>
      <trkpt lat="36.67457" lon="28.07501">
        <ele>57.1</ele>
      </trkpt>
      <trkpt lat="36.67456" lon="28.075">
        <ele>57.4</ele>
      </trkpt>
      <trkpt lat="36.67455" lon="28.07502">
        <ele>58</ele>
      </trkpt>
      <trkpt lat="36.67451" lon="28.07503">
        <ele>59.5</ele>
      </trkpt>
      <trkpt lat="36.67448" lon="28.07504">
        <ele>60.4</ele>
      </trkpt>
      <trkpt lat="36.67446" lon="28.07504">
        <ele>61</ele>
      </trkpt>
      <trkpt lat="36.67444" lon="28.07505">
        <ele>62</ele>
      </trkpt>
      <trkpt lat="36.67443" lon="28.07505">
        <ele>62.4</ele>
      </trkpt>
      <trkpt lat="36.67439" lon="28.07499">
        <ele>62.5</ele>
      </trkpt>
      <trkpt lat="36.67437" lon="28.07497">
        <ele>62.9</ele>
      </trkpt>
      <trkpt lat="36.67432" lon="28.07492">
        <ele>63.2</ele>
      </trkpt>
      <trkpt lat="36.67427" lon="28.07493">
        <ele>64.8</ele>
      </trkpt>
      <trkpt lat="36.67423" lon="28.07491">
        <ele>65.7</ele>
      </trkpt>
      <trkpt lat="36.6742" lon="28.07488">
        <ele>66.2</ele>
      </trkpt>
      <trkpt lat="36.67419" lon="28.07484">
        <ele>65.8</ele>
      </trkpt>
      <trkpt lat="36.67417" lon="28.0748">
        <ele>65.6</ele>
      </trkpt>
      <trkpt lat="36.67418" lon="28.07478">
        <ele>65</ele>
      </trkpt>
      <trkpt lat="36.67418" lon="28.07475">
        <ele>64.2</ele>
      </trkpt>
      <trkpt lat="36.67419" lon="28.07475">
        <ele>63.7</ele>
      </trkpt>
      <trkpt lat="36.67421" lon="28.07473">
        <ele>62.5</ele>
      </trkpt>
      <trkpt lat="36.67421" lon="28.0747">
        <ele>61.9</ele>
      </trkpt>
      <trkpt lat="36.67422" lon="28.07467">
        <ele>60.9</ele>
      </trkpt>
      <trkpt lat="36.6742" lon="28.07465">
        <ele>61</ele>
      </trkpt>
      <trkpt lat="36.67417" lon="28.07462">
        <ele>61.5</ele>
      </trkpt>
      <trkpt lat="36.67416" lon="28.07461">
        <ele>61.7</ele>
      </trkpt>
      <trkpt lat="36.67417" lon="28.07461">
        <ele>61.6</ele>
      </trkpt>
      <trkpt lat="36.67418" lon="28.07461">
        <ele>61.3</ele>
      </trkpt>
      <trkpt lat="36.67418" lon="28.07463">
        <ele>61.8</ele>
      </trkpt>
      <trkpt lat="36.67417" lon="28.07464">
        <ele>62.1</ele>
      </trkpt>
      <trkpt lat="36.67415" lon="28.07464">
        <ele>62.5</ele>
      </trkpt>
      <trkpt lat="36.67413" lon="28.07462">
        <ele>62.5</ele>
      </trkpt>
      <trkpt lat="36.67409" lon="28.07458">
        <ele>62.2</ele>
      </trkpt>
      <trkpt lat="36.67404" lon="28.07454">
        <ele>62.2</ele>
      </trkpt>
      <trkpt lat="36.674" lon="28.07454">
        <ele>62.6</ele>
      </trkpt>
      <trkpt lat="36.67396" lon="28.07448">
        <ele>62.2</ele>
      </trkpt>
      <trkpt lat="36.67393" lon="28.07443">
        <ele>61.9</ele>
      </trkpt>
      <trkpt lat="36.67391" lon="28.0744">
        <ele>61.5</ele>
      </trkpt>
      <trkpt lat="36.6739" lon="28.07436">
        <ele>60.9</ele>
      </trkpt>
      <trkpt lat="36.67387" lon="28.07433">
        <ele>60.9</ele>
      </trkpt>
      <trkpt lat="36.67384" lon="28.0743">
        <ele>60.9</ele>
      </trkpt>
      <trkpt lat="36.67381" lon="28.07426">
        <ele>60.6</ele>
      </trkpt>
      <trkpt lat="36.67378" lon="28.07422">
        <ele>60.6</ele>
      </trkpt>
      <trkpt lat="36.67375" lon="28.07418">
        <ele>60.3</ele>
      </trkpt>
      <trkpt lat="36.67372" lon="28.07415">
        <ele>60.5</ele>
      </trkpt>
      <trkpt lat="36.67368" lon="28.07416">
        <ele>61.3</ele>
      </trkpt>
      <trkpt lat="36.67364" lon="28.07415">
        <ele>61.9</ele>
      </trkpt>
      <trkpt lat="36.67362" lon="28.07417">
        <ele>62.5</ele>
      </trkpt>
      <trkpt lat="36.67359" lon="28.07425">
        <ele>64.6</ele>
      </trkpt>
      <trkpt lat="36.67356" lon="28.07426">
        <ele>65.3</ele>
      </trkpt>
      <trkpt lat="36.67352" lon="28.07427">
        <ele>66.1</ele>
      </trkpt>
      <trkpt lat="36.67351" lon="28.07427">
        <ele>66.4</ele>
      </trkpt>
      <trkpt lat="36.67349" lon="28.07429">
        <ele>67</ele>
      </trkpt>
      <trkpt lat="36.67346" lon="28.07426">
        <ele>67.2</ele>
      </trkpt>
      <trkpt lat="36.67341" lon="28.07428">
        <ele>68.3</ele>
      </trkpt>
      <trkpt lat="36.67338" lon="28.07431">
        <ele>69.4</ele>
      </trkpt>
      <trkpt lat="36.67334" lon="28.0743">
        <ele>70.1</ele>
      </trkpt>
      <trkpt lat="36.67332" lon="28.07434">
        <ele>70.8</ele>
      </trkpt>
      <trkpt lat="36.67328" lon="28.07434">
        <ele>71.1</ele>
      </trkpt>
      <trkpt lat="36.67323" lon="28.07435">
        <ele>71.7</ele>
      </trkpt>
      <trkpt lat="36.6732" lon="28.07435">
        <ele>72</ele>
      </trkpt>
      <trkpt lat="36.67317" lon="28.07431">
        <ele>71.6</ele>
      </trkpt>
      <trkpt lat="36.67315" lon="28.07427">
        <ele>71.1</ele>
      </trkpt>
      <trkpt lat="36.67308" lon="28.07428">
        <ele>71.8</ele>
      </trkpt>
      <trkpt lat="36.67303" lon="28.07425">
        <ele>71.8</ele>
      </trkpt>
      <trkpt lat="36.67297" lon="28.07423">
        <ele>72.1</ele>
      </trkpt>
      <trkpt lat="36.67293" lon="28.0742">
        <ele>71.9</ele>
      </trkpt>
      <trkpt lat="36.6729" lon="28.07415">
        <ele>71.5</ele>
      </trkpt>
      <trkpt lat="36.67288" lon="28.07411">
        <ele>71.4</ele>
      </trkpt>
      <trkpt lat="36.67283" lon="28.07405">
        <ele>71.3</ele>
      </trkpt>
      <trkpt lat="36.67281" lon="28.07399">
        <ele>71</ele>
      </trkpt>
      <trkpt lat="36.67278" lon="28.07393">
        <ele>70.8</ele>
      </trkpt>
      <trkpt lat="36.67275" lon="28.07388">
        <ele>70.6</ele>
      </trkpt>
      <trkpt lat="36.67272" lon="28.07383">
        <ele>70.4</ele>
      </trkpt>
      <trkpt lat="36.67267" lon="28.07381">
        <ele>70.6</ele>
      </trkpt>
      <trkpt lat="36.67264" lon="28.07379">
        <ele>70.7</ele>
      </trkpt>
      <trkpt lat="36.67258" lon="28.07381">
        <ele>71.4</ele>
      </trkpt>
      <trkpt lat="36.67251" lon="28.07376">
        <ele>71.5</ele>
      </trkpt>
      <trkpt lat="36.6725" lon="28.07372">
        <ele>71.3</ele>
      </trkpt>
      <trkpt lat="36.67246" lon="28.07365">
        <ele>71</ele>
      </trkpt>
      <trkpt lat="36.67244" lon="28.0736">
        <ele>70.7</ele>
      </trkpt>
      <trkpt lat="36.67239" lon="28.07355">
        <ele>70.6</ele>
      </trkpt>
      <trkpt lat="36.67234" lon="28.07352">
        <ele>70.6</ele>
      </trkpt>
      <trkpt lat="36.6723" lon="28.07344">
        <ele>69.8</ele>
      </trkpt>
      <trkpt lat="36.67227" lon="28.07337">
        <ele>69</ele>
      </trkpt>
      <trkpt lat="36.67223" lon="28.07331">
        <ele>68.5</ele>
      </trkpt>
      <trkpt lat="36.6722" lon="28.07323">
        <ele>68.1</ele>
      </trkpt>
      <trkpt lat="36.67218" lon="28.07321">
        <ele>68.1</ele>
      </trkpt>
      <trkpt lat="36.67214" lon="28.07313">
        <ele>67.7</ele>
      </trkpt>
      <trkpt lat="36.67212" lon="28.07308">
        <ele>67.4</ele>
      </trkpt>
      <trkpt lat="36.67208" lon="28.07302">
        <ele>67.1</ele>
      </trkpt>
      <trkpt lat="36.67207" lon="28.07303">
        <ele>67.2</ele>
      </trkpt>
      <trkpt lat="36.67205" lon="28.07299">
        <ele>67</ele>
      </trkpt>
      <trkpt lat="36.672" lon="28.07297">
        <ele>66.9</ele>
      </trkpt>
      <trkpt lat="36.67195" lon="28.07299">
        <ele>67.1</ele>
      </trkpt>
      <trkpt lat="36.6719" lon="28.07298">
        <ele>67.1</ele>
      </trkpt>
      <trkpt lat="36.67184" lon="28.07298">
        <ele>67.2</ele>
      </trkpt>
      <trkpt lat="36.67178" lon="28.07302">
        <ele>67.6</ele>
      </trkpt>
      <trkpt lat="36.67173" lon="28.07299">
        <ele>67.4</ele>
      </trkpt>
      <trkpt lat="36.67171" lon="28.07296">
        <ele>67.3</ele>
      </trkpt>
      <trkpt lat="36.67169" lon="28.07293">
        <ele>67.1</ele>
      </trkpt>
      <trkpt lat="36.67165" lon="28.07287">
        <ele>66.8</ele>
      </trkpt>
      <trkpt lat="36.67162" lon="28.07284">
        <ele>66.7</ele>
      </trkpt>
      <trkpt lat="36.67157" lon="28.07277">
        <ele>66.4</ele>
      </trkpt>
      <trkpt lat="36.67155" lon="28.07274">
        <ele>66.3</ele>
      </trkpt>
      <trkpt lat="36.67153" lon="28.07271">
        <ele>66.1</ele>
      </trkpt>
      <trkpt lat="36.67151" lon="28.07264">
        <ele>65.6</ele>
      </trkpt>
      <trkpt lat="36.67147" lon="28.07258">
        <ele>65.2</ele>
      </trkpt>
      <trkpt lat="36.67142" lon="28.07251">
        <ele>64.7</ele>
      </trkpt>
      <trkpt lat="36.6714" lon="28.07249">
        <ele>64.6</ele>
      </trkpt>
      <trkpt lat="36.67138" lon="28.07247">
        <ele>64.7</ele>
      </trkpt>
      <trkpt lat="36.67134" lon="28.07244">
        <ele>64.7</ele>
      </trkpt>
      <trkpt lat="36.67132" lon="28.07239">
        <ele>64.7</ele>
      </trkpt>
      <trkpt lat="36.67133" lon="28.07238">
        <ele>64.7</ele>
      </trkpt>
      <trkpt lat="36.67132" lon="28.07238">
        <ele>64.7</ele>
      </trkpt>
      <trkpt lat="36.6713" lon="28.07238">
        <ele>64.7</ele>
      </trkpt>
      <trkpt lat="36.67127" lon="28.07233">
        <ele>64.7</ele>
      </trkpt>
      <trkpt lat="36.67128" lon="28.07235">
        <ele>64.7</ele>
      </trkpt>
      <trkpt lat="36.67125" lon="28.07237">
        <ele>64.8</ele>
      </trkpt>
      <trkpt lat="36.6712" lon="28.07237">
        <ele>64.8</ele>
      </trkpt>
      <trkpt lat="36.67114" lon="28.07235">
        <ele>64.9</ele>
      </trkpt>
      <trkpt lat="36.67111" lon="28.07238">
        <ele>65</ele>
      </trkpt>
      <trkpt lat="36.67108" lon="28.0724">
        <ele>65.1</ele>
      </trkpt>
      <trkpt lat="36.67103" lon="28.07235">
        <ele>65</ele>
      </trkpt>
      <trkpt lat="36.67099" lon="28.07236">
        <ele>65.1</ele>
      </trkpt>
      <trkpt lat="36.67098" lon="28.07238">
        <ele>65.2</ele>
      </trkpt>
      <trkpt lat="36.67094" lon="28.07239">
        <ele>65.3</ele>
      </trkpt>
      <trkpt lat="36.67093" lon="28.07238">
        <ele>65.3</ele>
      </trkpt>
      <trkpt lat="36.67089" lon="28.07237">
        <ele>65.3</ele>
      </trkpt>
      <trkpt lat="36.67085" lon="28.0724">
        <ele>65.5</ele>
      </trkpt>
      <trkpt lat="36.67079" lon="28.07239">
        <ele>66</ele>
      </trkpt>
      <trkpt lat="36.67072" lon="28.07242">
        <ele>67</ele>
      </trkpt>
      <trkpt lat="36.6707" lon="28.07242">
        <ele>67.1</ele>
      </trkpt>
      <trkpt lat="36.67065" lon="28.07242">
        <ele>67.6</ele>
      </trkpt>
      <trkpt lat="36.67059" lon="28.07239">
        <ele>68.1</ele>
      </trkpt>
      <trkpt lat="36.67057" lon="28.07237">
        <ele>68.2</ele>
      </trkpt>
      <trkpt lat="36.67052" lon="28.07232">
        <ele>68.4</ele>
      </trkpt>
      <trkpt lat="36.67049" lon="28.0723">
        <ele>68.6</ele>
      </trkpt>
      <trkpt lat="36.67047" lon="28.07228">
        <ele>68.6</ele>
      </trkpt>
      <trkpt lat="36.67046" lon="28.07228">
        <ele>68.8</ele>
      </trkpt>
      <trkpt lat="36.6704" lon="28.07227">
        <ele>69.3</ele>
      </trkpt>
      <trkpt lat="36.67037" lon="28.07227">
        <ele>69.5</ele>
      </trkpt>
      <trkpt lat="36.67033" lon="28.07227">
        <ele>69.9</ele>
      </trkpt>
      <trkpt lat="36.67031" lon="28.07227">
        <ele>70.1</ele>
      </trkpt>
      <trkpt lat="36.67026" lon="28.07223">
        <ele>70.2</ele>
      </trkpt>
      <trkpt lat="36.67024" lon="28.0722">
        <ele>70.2</ele>
      </trkpt>
      <trkpt lat="36.67022" lon="28.0722">
        <ele>70.3</ele>
      </trkpt>
      <trkpt lat="36.67017" lon="28.0722">
        <ele>70.8</ele>
      </trkpt>
      <trkpt lat="36.67009" lon="28.07217">
        <ele>71.1</ele>
      </trkpt>
      <trkpt lat="36.67005" lon="28.07218">
        <ele>71.6</ele>
      </trkpt>
      <trkpt lat="36.67001" lon="28.07221">
        <ele>72.4</ele>
      </trkpt>
      <trkpt lat="36.66998" lon="28.07222">
        <ele>72.7</ele>
      </trkpt>
      <trkpt lat="36.66996" lon="28.0722">
        <ele>72.4</ele>
      </trkpt>
      <trkpt lat="36.66995" lon="28.07217">
        <ele>72.1</ele>
      </trkpt>
      <trkpt lat="36.66994" lon="28.07217">
        <ele>72.1</ele>
      </trkpt>
      <trkpt lat="36.66989" lon="28.0722">
        <ele>72.4</ele>
      </trkpt>
      <trkpt lat="36.66986" lon="28.07222">
        <ele>72.7</ele>
      </trkpt>
      <trkpt lat="36.66983" lon="28.07223">
        <ele>72.8</ele>
      </trkpt>
      <trkpt lat="36.66979" lon="28.07224">
        <ele>73</ele>
      </trkpt>
      <trkpt lat="36.66973" lon="28.07224">
        <ele>72.9</ele>
      </trkpt>
      <trkpt lat="36.6697" lon="28.07223">
        <ele>72.9</ele>
      </trkpt>
      <trkpt lat="36.66967" lon="28.07224">
        <ele>73</ele>
      </trkpt>
      <trkpt lat="36.66962" lon="28.0722">
        <ele>72.6</ele>
      </trkpt>
      <trkpt lat="36.66959" lon="28.07215">
        <ele>72.3</ele>
      </trkpt>
      <trkpt lat="36.66955" lon="28.07216">
        <ele>72.3</ele>
      </trkpt>
      <trkpt lat="36.66954" lon="28.07215">
        <ele>72.3</ele>
      </trkpt>
      <trkpt lat="36.66951" lon="28.07215">
        <ele>72.3</ele>
      </trkpt>
      <trkpt lat="36.66951" lon="28.07215">
        <ele>72.4</ele>
      </trkpt>
      <trkpt lat="36.6695" lon="28.07217">
        <ele>72.5</ele>
      </trkpt>
      <trkpt lat="36.66945" lon="28.07215">
        <ele>72.4</ele>
      </trkpt>
      <trkpt lat="36.66943" lon="28.07212">
        <ele>72.2</ele>
      </trkpt>
      <trkpt lat="36.66945" lon="28.07214">
        <ele>72.3</ele>
      </trkpt>
      <trkpt lat="36.66943" lon="28.07216">
        <ele>72.5</ele>
      </trkpt>
      <trkpt lat="36.66941" lon="28.07214">
        <ele>72.4</ele>
      </trkpt>
      <trkpt lat="36.66938" lon="28.0721">
        <ele>72.2</ele>
      </trkpt>
      <trkpt lat="36.66932" lon="28.07212">
        <ele>72.4</ele>
      </trkpt>
      <trkpt lat="36.66927" lon="28.07214">
        <ele>72.6</ele>
      </trkpt>
      <trkpt lat="36.66921" lon="28.07217">
        <ele>72.8</ele>
      </trkpt>
      <trkpt lat="36.66913" lon="28.07223">
        <ele>73.5</ele>
      </trkpt>
      <trkpt lat="36.66913" lon="28.07223">
        <ele>73.4</ele>
      </trkpt>
      <trkpt lat="36.66916" lon="28.07225">
        <ele>73.2</ele>
      </trkpt>
      <trkpt lat="36.66908" lon="28.07236">
        <ele>74.2</ele>
      </trkpt>
      <trkpt lat="36.66901" lon="28.07245">
        <ele>74.7</ele>
      </trkpt>
      <trkpt lat="36.66897" lon="28.07248">
        <ele>74.9</ele>
      </trkpt>
      <trkpt lat="36.66896" lon="28.07249">
        <ele>75</ele>
      </trkpt>
      <trkpt lat="36.66887" lon="28.07261">
        <ele>75.9</ele>
      </trkpt>
      <trkpt lat="36.66877" lon="28.07271">
        <ele>76.3</ele>
      </trkpt>
      <trkpt lat="36.66869" lon="28.07282">
        <ele>76.2</ele>
      </trkpt>
      <trkpt lat="36.66862" lon="28.07291">
        <ele>75.9</ele>
      </trkpt>
      <trkpt lat="36.66857" lon="28.07302">
        <ele>75.3</ele>
      </trkpt>
      <trkpt lat="36.66853" lon="28.07306">
        <ele>74.9</ele>
      </trkpt>
      <trkpt lat="36.66843" lon="28.07315">
        <ele>73.5</ele>
      </trkpt>
      <trkpt lat="36.66833" lon="28.07323">
        <ele>71.9</ele>
      </trkpt>
      <trkpt lat="36.66823" lon="28.07332">
        <ele>72.5</ele>
      </trkpt>
      <trkpt lat="36.66815" lon="28.07344">
        <ele>73.4</ele>
      </trkpt>
      <trkpt lat="36.66809" lon="28.07352">
        <ele>74</ele>
      </trkpt>
      <trkpt lat="36.66799" lon="28.07366">
        <ele>74.7</ele>
      </trkpt>
      <trkpt lat="36.66796" lon="28.07369">
        <ele>74.9</ele>
      </trkpt>
      <trkpt lat="36.6679" lon="28.07373">
        <ele>75.2</ele>
      </trkpt>
      <trkpt lat="36.66784" lon="28.07381">
        <ele>75.3</ele>
      </trkpt>
      <trkpt lat="36.66777" lon="28.07387">
        <ele>75.4</ele>
      </trkpt>
      <trkpt lat="36.66772" lon="28.0739">
        <ele>75.4</ele>
      </trkpt>
      <trkpt lat="36.6677" lon="28.07391">
        <ele>75.5</ele>
      </trkpt>
      <trkpt lat="36.66768" lon="28.07392">
        <ele>75.6</ele>
      </trkpt>
      <trkpt lat="36.66765" lon="28.07392">
        <ele>75.6</ele>
      </trkpt>
      <trkpt lat="36.66757" lon="28.07399">
        <ele>75.5</ele>
      </trkpt>
      <trkpt lat="36.6675" lon="28.07406">
        <ele>75</ele>
      </trkpt>
      <trkpt lat="36.66744" lon="28.07411">
        <ele>74.7</ele>
      </trkpt>
      <trkpt lat="36.66741" lon="28.07414">
        <ele>74.4</ele>
      </trkpt>
      <trkpt lat="36.66734" lon="28.07423">
        <ele>74.1</ele>
      </trkpt>
      <trkpt lat="36.66728" lon="28.07427">
        <ele>74.1</ele>
      </trkpt>
      <trkpt lat="36.6672" lon="28.07426">
        <ele>74.2</ele>
      </trkpt>
      <trkpt lat="36.6672" lon="28.07427">
        <ele>74.2</ele>
      </trkpt>
      <trkpt lat="36.66719" lon="28.07428">
        <ele>74.2</ele>
      </trkpt>
      <trkpt lat="36.66718" lon="28.07429">
        <ele>74.2</ele>
      </trkpt>
      <trkpt lat="36.66717" lon="28.07431">
        <ele>74.2</ele>
      </trkpt>
      <trkpt lat="36.66715" lon="28.0743">
        <ele>74.2</ele>
      </trkpt>
      <trkpt lat="36.66711" lon="28.07428">
        <ele>74.3</ele>
      </trkpt>
      <trkpt lat="36.66706" lon="28.07433">
        <ele>74.2</ele>
      </trkpt>
      <trkpt lat="36.66701" lon="28.07436">
        <ele>74.2</ele>
      </trkpt>
      <trkpt lat="36.667" lon="28.07437">
        <ele>74.2</ele>
      </trkpt>
      <trkpt lat="36.66694" lon="28.07443">
        <ele>74.1</ele>
      </trkpt>
      <trkpt lat="36.66691" lon="28.07445">
        <ele>74.1</ele>
      </trkpt>
      <trkpt lat="36.66686" lon="28.07442">
        <ele>74.2</ele>
      </trkpt>
      <trkpt lat="36.66684" lon="28.07441">
        <ele>74.3</ele>
      </trkpt>
      <trkpt lat="36.66678" lon="28.07442">
        <ele>74.3</ele>
      </trkpt>
      <trkpt lat="36.66672" lon="28.07444">
        <ele>74.3</ele>
      </trkpt>
      <trkpt lat="36.66665" lon="28.0745">
        <ele>74.2</ele>
      </trkpt>
      <trkpt lat="36.66661" lon="28.07455">
        <ele>74</ele>
      </trkpt>
      <trkpt lat="36.66656" lon="28.07457">
        <ele>73.9</ele>
      </trkpt>
      <trkpt lat="36.66651" lon="28.07458">
        <ele>73.8</ele>
      </trkpt>
      <trkpt lat="36.66646" lon="28.07459">
        <ele>73.7</ele>
      </trkpt>
      <trkpt lat="36.66639" lon="28.0746">
        <ele>73.6</ele>
      </trkpt>
      <trkpt lat="36.66633" lon="28.07462">
        <ele>73.5</ele>
      </trkpt>
      <trkpt lat="36.66627" lon="28.07464">
        <ele>73.3</ele>
      </trkpt>
      <trkpt lat="36.66621" lon="28.07465">
        <ele>73.2</ele>
      </trkpt>
      <trkpt lat="36.66615" lon="28.07463">
        <ele>73.2</ele>
      </trkpt>
      <trkpt lat="36.66608" lon="28.07462">
        <ele>73.2</ele>
      </trkpt>
      <trkpt lat="36.66602" lon="28.07463">
        <ele>73</ele>
      </trkpt>
      <trkpt lat="36.66595" lon="28.07465">
        <ele>72.8</ele>
      </trkpt>
      <trkpt lat="36.66586" lon="28.07465">
        <ele>72.7</ele>
      </trkpt>
      <trkpt lat="36.66585" lon="28.07465">
        <ele>72.7</ele>
      </trkpt>
      <trkpt lat="36.66582" lon="28.07465">
        <ele>72.8</ele>
      </trkpt>
      <trkpt lat="36.66577" lon="28.07464">
        <ele>73.4</ele>
      </trkpt>
      <trkpt lat="36.66572" lon="28.07463">
        <ele>74</ele>
      </trkpt>
      <trkpt lat="36.66566" lon="28.0746">
        <ele>74.8</ele>
      </trkpt>
      <trkpt lat="36.66561" lon="28.07459">
        <ele>75.3</ele>
      </trkpt>
      <trkpt lat="36.66555" lon="28.07455">
        <ele>75.9</ele>
      </trkpt>
      <trkpt lat="36.66551" lon="28.07458">
        <ele>76.3</ele>
      </trkpt>
      <trkpt lat="36.66547" lon="28.0746">
        <ele>76.7</ele>
      </trkpt>
      <trkpt lat="36.66541" lon="28.07462">
        <ele>77.2</ele>
      </trkpt>
      <trkpt lat="36.66536" lon="28.07463">
        <ele>77.7</ele>
      </trkpt>
      <trkpt lat="36.66529" lon="28.07465">
        <ele>78.4</ele>
      </trkpt>
      <trkpt lat="36.66523" lon="28.07462">
        <ele>79.1</ele>
      </trkpt>
      <trkpt lat="36.66523" lon="28.07462">
        <ele>79.1</ele>
      </trkpt>
      <trkpt lat="36.66522" lon="28.07464">
        <ele>79.2</ele>
      </trkpt>
      <trkpt lat="36.66519" lon="28.07462">
        <ele>79.6</ele>
      </trkpt>
      <trkpt lat="36.66515" lon="28.0746">
        <ele>79.9</ele>
      </trkpt>
      <trkpt lat="36.66511" lon="28.07457">
        <ele>80.4</ele>
      </trkpt>
      <trkpt lat="36.66509" lon="28.07457">
        <ele>80.6</ele>
      </trkpt>
      <trkpt lat="36.66506" lon="28.07458">
        <ele>80.9</ele>
      </trkpt>
      <trkpt lat="36.66502" lon="28.07456">
        <ele>81.3</ele>
      </trkpt>
      <trkpt lat="36.66498" lon="28.07452">
        <ele>81.8</ele>
      </trkpt>
      <trkpt lat="36.66494" lon="28.07447">
        <ele>82.7</ele>
      </trkpt>
      <trkpt lat="36.6649" lon="28.07443">
        <ele>83.5</ele>
      </trkpt>
      <trkpt lat="36.66487" lon="28.07441">
        <ele>84.2</ele>
      </trkpt>
      <trkpt lat="36.66482" lon="28.07441">
        <ele>85.3</ele>
      </trkpt>
      <trkpt lat="36.66477" lon="28.07439">
        <ele>86.3</ele>
      </trkpt>
      <trkpt lat="36.66475" lon="28.07433">
        <ele>86.5</ele>
      </trkpt>
      <trkpt lat="36.66471" lon="28.07428">
        <ele>87.2</ele>
      </trkpt>
      <trkpt lat="36.66467" lon="28.07428">
        <ele>87.9</ele>
      </trkpt>
      <trkpt lat="36.66464" lon="28.07424">
        <ele>88.2</ele>
      </trkpt>
      <trkpt lat="36.66461" lon="28.0742">
        <ele>88.7</ele>
      </trkpt>
      <trkpt lat="36.66457" lon="28.07418">
        <ele>89.3</ele>
      </trkpt>
      <trkpt lat="36.66453" lon="28.07416">
        <ele>90</ele>
      </trkpt>
      <trkpt lat="36.6645" lon="28.07415">
        <ele>90.6</ele>
      </trkpt>
      <trkpt lat="36.66447" lon="28.07416">
        <ele>91.2</ele>
      </trkpt>
      <trkpt lat="36.66443" lon="28.07413">
        <ele>92.1</ele>
      </trkpt>
      <trkpt lat="36.66439" lon="28.0741">
        <ele>93</ele>
      </trkpt>
      <trkpt lat="36.66435" lon="28.07406">
        <ele>94</ele>
      </trkpt>
      <trkpt lat="36.66433" lon="28.07403">
        <ele>94.5</ele>
      </trkpt>
      <trkpt lat="36.6643" lon="28.07401">
        <ele>95</ele>
      </trkpt>
      <trkpt lat="36.66426" lon="28.07398">
        <ele>95.8</ele>
      </trkpt>
      <trkpt lat="36.6642" lon="28.07395">
        <ele>96.9</ele>
      </trkpt>
      <trkpt lat="36.66419" lon="28.07389">
        <ele>97.3</ele>
      </trkpt>
      <trkpt lat="36.66419" lon="28.07386">
        <ele>97.5</ele>
      </trkpt>
      <trkpt lat="36.66414" lon="28.07381">
        <ele>98.4</ele>
      </trkpt>
      <trkpt lat="36.66409" lon="28.07375">
        <ele>99.3</ele>
      </trkpt>
      <trkpt lat="36.66406" lon="28.0737">
        <ele>100.1</ele>
      </trkpt>
      <trkpt lat="36.66402" lon="28.07364">
        <ele>100.9</ele>
      </trkpt>
      <trkpt lat="36.66399" lon="28.0736">
        <ele>101.4</ele>
      </trkpt>
      <trkpt lat="36.66396" lon="28.07361">
        <ele>101.9</ele>
      </trkpt>
      <trkpt lat="36.66396" lon="28.07359">
        <ele>102</ele>
      </trkpt>
      <trkpt lat="36.66395" lon="28.07358">
        <ele>102.1</ele>
      </trkpt>
      <trkpt lat="36.66395" lon="28.07356">
        <ele>102.3</ele>
      </trkpt>
      <trkpt lat="36.66391" lon="28.07354">
        <ele>102.9</ele>
      </trkpt>
      <trkpt lat="36.66386" lon="28.07353">
        <ele>103.7</ele>
      </trkpt>
      <trkpt lat="36.66382" lon="28.0735">
        <ele>104.5</ele>
      </trkpt>
      <trkpt lat="36.66379" lon="28.07344">
        <ele>104.9</ele>
      </trkpt>
      <trkpt lat="36.66376" lon="28.07337">
        <ele>105.3</ele>
      </trkpt>
      <trkpt lat="36.66373" lon="28.07329">
        <ele>106</ele>
      </trkpt>
      <trkpt lat="36.6637" lon="28.07321">
        <ele>106.9</ele>
      </trkpt>
      <trkpt lat="36.66367" lon="28.07316">
        <ele>107.4</ele>
      </trkpt>
      <trkpt lat="36.66366" lon="28.07315">
        <ele>107.7</ele>
      </trkpt>
      <trkpt lat="36.66367" lon="28.07316">
        <ele>107.5</ele>
      </trkpt>
      <trkpt lat="36.66366" lon="28.07313">
        <ele>107.7</ele>
      </trkpt>
      <trkpt lat="36.66365" lon="28.07315">
        <ele>107.8</ele>
      </trkpt>
      <trkpt lat="36.66363" lon="28.07315">
        <ele>108</ele>
      </trkpt>
      <trkpt lat="36.6636" lon="28.07311">
        <ele>108.5</ele>
      </trkpt>
      <trkpt lat="36.66357" lon="28.07305">
        <ele>109.1</ele>
      </trkpt>
      <trkpt lat="36.66356" lon="28.073">
        <ele>109.3</ele>
      </trkpt>
      <trkpt lat="36.66354" lon="28.07293">
        <ele>109.6</ele>
      </trkpt>
      <trkpt lat="36.66354" lon="28.07288">
        <ele>109.7</ele>
      </trkpt>
      <trkpt lat="36.66353" lon="28.07283">
        <ele>109.9</ele>
      </trkpt>
      <trkpt lat="36.66351" lon="28.07277">
        <ele>110.1</ele>
      </trkpt>
      <trkpt lat="36.66349" lon="28.07269">
        <ele>110.4</ele>
      </trkpt>
      <trkpt lat="36.66347" lon="28.07263">
        <ele>110.6</ele>
      </trkpt>
      <trkpt lat="36.66342" lon="28.07261">
        <ele>110.8</ele>
      </trkpt>
      <trkpt lat="36.66341" lon="28.07255">
        <ele>110.8</ele>
      </trkpt>
      <trkpt lat="36.6634" lon="28.07253">
        <ele>110.8</ele>
      </trkpt>
      <trkpt lat="36.66336" lon="28.0725">
        <ele>111</ele>
      </trkpt>
      <trkpt lat="36.66331" lon="28.07247">
        <ele>111.4</ele>
      </trkpt>
      <trkpt lat="36.66328" lon="28.07242">
        <ele>111.8</ele>
      </trkpt>
      <trkpt lat="36.66328" lon="28.07236">
        <ele>112.4</ele>
      </trkpt>
      <trkpt lat="36.66325" lon="28.07231">
        <ele>112.8</ele>
      </trkpt>
      <trkpt lat="36.66319" lon="28.07227">
        <ele>112.8</ele>
      </trkpt>
      <trkpt lat="36.66315" lon="28.07223">
        <ele>112.9</ele>
      </trkpt>
      <trkpt lat="36.66312" lon="28.0722">
        <ele>112.9</ele>
      </trkpt>
      <trkpt lat="36.66306" lon="28.07217">
        <ele>112.5</ele>
      </trkpt>
      <trkpt lat="36.66303" lon="28.07215">
        <ele>112.4</ele>
      </trkpt>
      <trkpt lat="36.663" lon="28.07217">
        <ele>111.9</ele>
      </trkpt>
      <trkpt lat="36.66295" lon="28.07219">
        <ele>111.3</ele>
      </trkpt>
      <trkpt lat="36.66292" lon="28.07216">
        <ele>111.2</ele>
      </trkpt>
      <trkpt lat="36.66287" lon="28.07213">
        <ele>110.7</ele>
      </trkpt>
      <trkpt lat="36.66282" lon="28.07211">
        <ele>110.3</ele>
      </trkpt>
      <trkpt lat="36.66276" lon="28.07208">
        <ele>109.6</ele>
      </trkpt>
      <trkpt lat="36.66272" lon="28.07204">
        <ele>109.2</ele>
      </trkpt>
      <trkpt lat="36.66267" lon="28.072">
        <ele>108.6</ele>
      </trkpt>
      <trkpt lat="36.66264" lon="28.07199">
        <ele>108.1</ele>
      </trkpt>
      <trkpt lat="36.66265" lon="28.07204">
        <ele>108.3</ele>
      </trkpt>
      <trkpt lat="36.66264" lon="28.07203">
        <ele>108.2</ele>
      </trkpt>
      <trkpt lat="36.66259" lon="28.07201">
        <ele>107.5</ele>
      </trkpt>
      <trkpt lat="36.66253" lon="28.07199">
        <ele>106.6</ele>
      </trkpt>
      <trkpt lat="36.66251" lon="28.07193">
        <ele>106.1</ele>
      </trkpt>
      <trkpt lat="36.66249" lon="28.07189">
        <ele>105.5</ele>
      </trkpt>
      <trkpt lat="36.66245" lon="28.07186">
        <ele>104.6</ele>
      </trkpt>
      <trkpt lat="36.66241" lon="28.07181">
        <ele>103.7</ele>
      </trkpt>
      <trkpt lat="36.66238" lon="28.07176">
        <ele>103</ele>
      </trkpt>
      <trkpt lat="36.66234" lon="28.07174">
        <ele>102.3</ele>
      </trkpt>
      <trkpt lat="36.66234" lon="28.07177">
        <ele>102.3</ele>
      </trkpt>
      <trkpt lat="36.66232" lon="28.07175">
        <ele>101.9</ele>
      </trkpt>
      <trkpt lat="36.66227" lon="28.07171">
        <ele>101.1</ele>
      </trkpt>
      <trkpt lat="36.66225" lon="28.07168">
        <ele>100.7</ele>
      </trkpt>
      <trkpt lat="36.66221" lon="28.07166">
        <ele>100.2</ele>
      </trkpt>
      <trkpt lat="36.66217" lon="28.07162">
        <ele>100.2</ele>
      </trkpt>
      <trkpt lat="36.66213" lon="28.0716">
        <ele>99.8</ele>
      </trkpt>
      <trkpt lat="36.66209" lon="28.07156">
        <ele>99.6</ele>
      </trkpt>
      <trkpt lat="36.66206" lon="28.07153">
        <ele>99.4</ele>
      </trkpt>
      <trkpt lat="36.66203" lon="28.07152">
        <ele>99</ele>
      </trkpt>
      <trkpt lat="36.66199" lon="28.07149">
        <ele>98.7</ele>
      </trkpt>
      <trkpt lat="36.66196" lon="28.07145">
        <ele>98.6</ele>
      </trkpt>
      <trkpt lat="36.66192" lon="28.07144">
        <ele>97.9</ele>
      </trkpt>
      <trkpt lat="36.66189" lon="28.07143">
        <ele>97.4</ele>
      </trkpt>
      <trkpt lat="36.66186" lon="28.07141">
        <ele>97</ele>
      </trkpt>
      <trkpt lat="36.66182" lon="28.07141">
        <ele>96.3</ele>
      </trkpt>
      <trkpt lat="36.66179" lon="28.07139">
        <ele>95.8</ele>
      </trkpt>
      <trkpt lat="36.66174" lon="28.07139">
        <ele>94.9</ele>
      </trkpt>
      <trkpt lat="36.66169" lon="28.07138">
        <ele>94</ele>
      </trkpt>
      <trkpt lat="36.66165" lon="28.07135">
        <ele>93.1</ele>
      </trkpt>
      <trkpt lat="36.6616" lon="28.07136">
        <ele>91.9</ele>
      </trkpt>
      <trkpt lat="36.66156" lon="28.07133">
        <ele>91</ele>
      </trkpt>
      <trkpt lat="36.66152" lon="28.07129">
        <ele>90.5</ele>
      </trkpt>
      <trkpt lat="36.66149" lon="28.0713">
        <ele>89.3</ele>
      </trkpt>
      <trkpt lat="36.66146" lon="28.07133">
        <ele>88.3</ele>
      </trkpt>
      <trkpt lat="36.66145" lon="28.07134">
        <ele>88</ele>
      </trkpt>
      <trkpt lat="36.66145" lon="28.07139">
        <ele>87.3</ele>
      </trkpt>
      <trkpt lat="36.66142" lon="28.07143">
        <ele>86.1</ele>
      </trkpt>
      <trkpt lat="36.6614" lon="28.07142">
        <ele>85.7</ele>
      </trkpt>
      <trkpt lat="36.66139" lon="28.07145">
        <ele>84.8</ele>
      </trkpt>
      <trkpt lat="36.6614" lon="28.07149">
        <ele>84.7</ele>
      </trkpt>
      <trkpt lat="36.6614" lon="28.0715">
        <ele>84.8</ele>
      </trkpt>
      <trkpt lat="36.66142" lon="28.07151">
        <ele>85.1</ele>
      </trkpt>
      <trkpt lat="36.66142" lon="28.07154">
        <ele>84.7</ele>
      </trkpt>
      <trkpt lat="36.66143" lon="28.07156">
        <ele>84.8</ele>
      </trkpt>
      <trkpt lat="36.66145" lon="28.07157">
        <ele>85.4</ele>
      </trkpt>
      <trkpt lat="36.66145" lon="28.07159">
        <ele>85</ele>
      </trkpt>
      <trkpt lat="36.66143" lon="28.07161">
        <ele>84.4</ele>
      </trkpt>
      <trkpt lat="36.66141" lon="28.07168">
        <ele>82.8</ele>
      </trkpt>
      <trkpt lat="36.6614" lon="28.07169">
        <ele>82.2</ele>
      </trkpt>
      <trkpt lat="36.66139" lon="28.07167">
        <ele>82.3</ele>
      </trkpt>
      <trkpt lat="36.66137" lon="28.07168">
        <ele>81.4</ele>
      </trkpt>
      <trkpt lat="36.66135" lon="28.07169">
        <ele>80.6</ele>
      </trkpt>
      <trkpt lat="36.66134" lon="28.07167">
        <ele>80.7</ele>
      </trkpt>
      <trkpt lat="36.66132" lon="28.07166">
        <ele>80.3</ele>
      </trkpt>
      <trkpt lat="36.66131" lon="28.07169">
        <ele>79.3</ele>
      </trkpt>
      <trkpt lat="36.6613" lon="28.07168">
        <ele>79.1</ele>
      </trkpt>
      <trkpt lat="36.6613" lon="28.07171">
        <ele>78.6</ele>
      </trkpt>
      <trkpt lat="36.66129" lon="28.07172">
        <ele>77.9</ele>
      </trkpt>
      <trkpt lat="36.66129" lon="28.07176">
        <ele>77</ele>
      </trkpt>
      <trkpt lat="36.6613" lon="28.07178">
        <ele>76.8</ele>
      </trkpt>
      <trkpt lat="36.6613" lon="28.0718">
        <ele>76.3</ele>
      </trkpt>
      <trkpt lat="36.66133" lon="28.07184">
        <ele>76.3</ele>
      </trkpt>
      <trkpt lat="36.66134" lon="28.07187">
        <ele>76</ele>
      </trkpt>
      <trkpt lat="36.66134" lon="28.07191">
        <ele>75</ele>
      </trkpt>
      <trkpt lat="36.66136" lon="28.07196">
        <ele>74.5</ele>
      </trkpt>
      <trkpt lat="36.66134" lon="28.07194">
        <ele>74.3</ele>
      </trkpt>
      <trkpt lat="36.66133" lon="28.07194">
        <ele>73.8</ele>
      </trkpt>
      <trkpt lat="36.66131" lon="28.07197">
        <ele>72.6</ele>
      </trkpt>
      <trkpt lat="36.6613" lon="28.072">
        <ele>71.4</ele>
      </trkpt>
      <trkpt lat="36.6613" lon="28.07204">
        <ele>70.4</ele>
      </trkpt>
      <trkpt lat="36.66128" lon="28.07208">
        <ele>68.6</ele>
      </trkpt>
      <trkpt lat="36.66128" lon="28.07215">
        <ele>66.8</ele>
      </trkpt>
      <trkpt lat="36.66131" lon="28.07222">
        <ele>66.3</ele>
      </trkpt>
      <trkpt lat="36.66133" lon="28.07229">
        <ele>65.5</ele>
      </trkpt>
      <trkpt lat="36.66133" lon="28.07236">
        <ele>63.8</ele>
      </trkpt>
      <trkpt lat="36.66134" lon="28.07243">
        <ele>62.6</ele>
      </trkpt>
      <trkpt lat="36.66133" lon="28.07252">
        <ele>60.3</ele>
      </trkpt>
      <trkpt lat="36.66135" lon="28.07261">
        <ele>59.7</ele>
      </trkpt>
      <trkpt lat="36.66135" lon="28.07268">
        <ele>58.7</ele>
      </trkpt>
      <trkpt lat="36.66136" lon="28.07272">
        <ele>58.3</ele>
      </trkpt>
      <trkpt lat="36.66136" lon="28.07281">
        <ele>57</ele>
      </trkpt>
      <trkpt lat="36.66135" lon="28.07286">
        <ele>55.9</ele>
      </trkpt>
      <trkpt lat="36.66135" lon="28.07284">
        <ele>56.2</ele>
      </trkpt>
      <trkpt lat="36.66138" lon="28.0729">
        <ele>56.9</ele>
      </trkpt>
      <trkpt lat="36.66138" lon="28.07293">
        <ele>56.5</ele>
      </trkpt>
      <trkpt lat="36.66139" lon="28.07298">
        <ele>55.8</ele>
      </trkpt>
      <trkpt lat="36.66141" lon="28.07304">
        <ele>56</ele>
      </trkpt>
      <trkpt lat="36.66142" lon="28.07308">
        <ele>56.4</ele>
      </trkpt>
      <trkpt lat="36.66144" lon="28.07313">
        <ele>56.6</ele>
      </trkpt>
      <trkpt lat="36.66144" lon="28.07319">
        <ele>55.6</ele>
      </trkpt>
      <trkpt lat="36.66144" lon="28.0732">
        <ele>55.4</ele>
      </trkpt>
      <trkpt lat="36.66142" lon="28.07324">
        <ele>54.1</ele>
      </trkpt>
      <trkpt lat="36.66141" lon="28.07328">
        <ele>52.7</ele>
      </trkpt>
      <trkpt lat="36.66142" lon="28.07333">
        <ele>52.7</ele>
      </trkpt>
      <trkpt lat="36.66143" lon="28.07338">
        <ele>52.1</ele>
      </trkpt>
      <trkpt lat="36.66142" lon="28.07344">
        <ele>50.6</ele>
      </trkpt>
      <trkpt lat="36.66141" lon="28.07349">
        <ele>49.2</ele>
      </trkpt>
      <trkpt lat="36.66143" lon="28.07357">
        <ele>48.9</ele>
      </trkpt>
      <trkpt lat="36.66144" lon="28.07358">
        <ele>49.3</ele>
      </trkpt>
      <trkpt lat="36.66145" lon="28.07359">
        <ele>49.8</ele>
      </trkpt>
      <trkpt lat="36.66147" lon="28.07365">
        <ele>49.8</ele>
      </trkpt>
      <trkpt lat="36.66146" lon="28.07369">
        <ele>48.4</ele>
      </trkpt>
      <trkpt lat="36.66147" lon="28.07375">
        <ele>47.7</ele>
      </trkpt>
      <trkpt lat="36.66146" lon="28.07381">
        <ele>46.1</ele>
      </trkpt>
      <trkpt lat="36.66147" lon="28.07387">
        <ele>45.7</ele>
      </trkpt>
      <trkpt lat="36.66146" lon="28.07391">
        <ele>44.8</ele>
      </trkpt>
      <trkpt lat="36.66145" lon="28.07396">
        <ele>43.1</ele>
      </trkpt>
      <trkpt lat="36.66144" lon="28.07403">
        <ele>41.6</ele>
      </trkpt>
      <trkpt lat="36.66142" lon="28.07408">
        <ele>40</ele>
      </trkpt>
      <trkpt lat="36.66142" lon="28.07416">
        <ele>38.4</ele>
      </trkpt>
      <trkpt lat="36.66143" lon="28.07421">
        <ele>38.5</ele>
      </trkpt>
      <trkpt lat="36.66143" lon="28.07429">
        <ele>38.4</ele>
      </trkpt>
      <trkpt lat="36.66142" lon="28.07434">
        <ele>37.6</ele>
      </trkpt>
      <trkpt lat="36.6614" lon="28.07438">
        <ele>36.7</ele>
      </trkpt>
      <trkpt lat="36.66138" lon="28.07438">
        <ele>36.1</ele>
      </trkpt>
      <trkpt lat="36.66137" lon="28.07438">
        <ele>35.4</ele>
      </trkpt>
      <trkpt lat="36.66136" lon="28.07439">
        <ele>35</ele>
      </trkpt>
      <trkpt lat="36.66136" lon="28.07439">
        <ele>35.3</ele>
      </trkpt>
      <trkpt lat="36.66137" lon="28.0744">
        <ele>35.5</ele>
      </trkpt>
      <trkpt lat="36.66138" lon="28.07441">
        <ele>36</ele>
      </trkpt>
      <trkpt lat="36.66136" lon="28.07447">
        <ele>34.9</ele>
      </trkpt>
      <trkpt lat="36.6614" lon="28.07451">
        <ele>36.2</ele>
      </trkpt>
      <trkpt lat="36.6614" lon="28.07456">
        <ele>36.2</ele>
      </trkpt>
      <trkpt lat="36.66141" lon="28.07461">
        <ele>36.3</ele>
      </trkpt>
      <trkpt lat="36.66141" lon="28.07467">
        <ele>36.3</ele>
      </trkpt>
      <trkpt lat="36.66143" lon="28.0747">
        <ele>36.6</ele>
      </trkpt>
      <trkpt lat="36.66144" lon="28.07473">
        <ele>36.8</ele>
      </trkpt>
      <trkpt lat="36.66141" lon="28.07476">
        <ele>35.8</ele>
      </trkpt>
      <trkpt lat="36.66139" lon="28.07481">
        <ele>35</ele>
      </trkpt>
      <trkpt lat="36.66137" lon="28.07487">
        <ele>34.2</ele>
      </trkpt>
      <trkpt lat="36.66134" lon="28.07491">
        <ele>33.1</ele>
      </trkpt>
      <trkpt lat="36.66132" lon="28.07494">
        <ele>32.3</ele>
      </trkpt>
      <trkpt lat="36.6613" lon="28.07497">
        <ele>31.5</ele>
      </trkpt>
      <trkpt lat="36.66127" lon="28.075">
        <ele>30.6</ele>
      </trkpt>
      <trkpt lat="36.66125" lon="28.07505">
        <ele>30</ele>
      </trkpt>
      <trkpt lat="36.66123" lon="28.07511">
        <ele>29</ele>
      </trkpt>
      <trkpt lat="36.66121" lon="28.0752">
        <ele>28.3</ele>
      </trkpt>
      <trkpt lat="36.66121" lon="28.07526">
        <ele>28.1</ele>
      </trkpt>
      <trkpt lat="36.66121" lon="28.07527">
        <ele>28.2</ele>
      </trkpt>
      <trkpt lat="36.66119" lon="28.07529">
        <ele>27.4</ele>
      </trkpt>
      <trkpt lat="36.66117" lon="28.07535">
        <ele>26.6</ele>
      </trkpt>
      <trkpt lat="36.66117" lon="28.07541">
        <ele>26.4</ele>
      </trkpt>
      <trkpt lat="36.66117" lon="28.07547">
        <ele>26.2</ele>
      </trkpt>
      <trkpt lat="36.66116" lon="28.07555">
        <ele>25.9</ele>
      </trkpt>
      <trkpt lat="36.66116" lon="28.07563">
        <ele>25.7</ele>
      </trkpt>
      <trkpt lat="36.66113" lon="28.07571">
        <ele>24.7</ele>
      </trkpt>
      <trkpt lat="36.66114" lon="28.07576">
        <ele>24.8</ele>
      </trkpt>
      <trkpt lat="36.66115" lon="28.07583">
        <ele>25</ele>
      </trkpt>
      <trkpt lat="36.66116" lon="28.07588">
        <ele>24.9</ele>
      </trkpt>
      <trkpt lat="36.66115" lon="28.07594">
        <ele>24.3</ele>
      </trkpt>
      <trkpt lat="36.66117" lon="28.076">
        <ele>24.7</ele>
      </trkpt>
      <trkpt lat="36.66118" lon="28.07607">
        <ele>24.7</ele>
      </trkpt>
      <trkpt lat="36.66118" lon="28.07615">
        <ele>24.3</ele>
      </trkpt>
      <trkpt lat="36.66119" lon="28.07621">
        <ele>24.3</ele>
      </trkpt>
      <trkpt lat="36.66118" lon="28.07628">
        <ele>23.6</ele>
      </trkpt>
      <trkpt lat="36.66119" lon="28.07633">
        <ele>23.8</ele>
      </trkpt>
      <trkpt lat="36.66119" lon="28.07633">
        <ele>23.8</ele>
      </trkpt>
      <trkpt lat="36.6612" lon="28.07634">
        <ele>24</ele>
      </trkpt>
      <trkpt lat="36.66122" lon="28.07645">
        <ele>23.9</ele>
      </trkpt>
      <trkpt lat="36.66123" lon="28.0765">
        <ele>24.2</ele>
      </trkpt>
      <trkpt lat="36.66122" lon="28.07659">
        <ele>23.4</ele>
      </trkpt>
      <trkpt lat="36.66122" lon="28.07669">
        <ele>22.8</ele>
      </trkpt>
      <trkpt lat="36.66122" lon="28.07675">
        <ele>22.5</ele>
      </trkpt>
      <trkpt lat="36.66121" lon="28.07685">
        <ele>21.4</ele>
      </trkpt>
      <trkpt lat="36.6612" lon="28.07691">
        <ele>21</ele>
      </trkpt>
      <trkpt lat="36.66121" lon="28.077">
        <ele>20.7</ele>
      </trkpt>
      <trkpt lat="36.66124" lon="28.07709">
        <ele>21</ele>
      </trkpt>
      <trkpt lat="36.66129" lon="28.07722">
        <ele>22.1</ele>
      </trkpt>
      <trkpt lat="36.66133" lon="28.07734">
        <ele>22.5</ele>
      </trkpt>
      <trkpt lat="36.66136" lon="28.07746">
        <ele>22.9</ele>
      </trkpt>
      <trkpt lat="36.66139" lon="28.07759">
        <ele>23.2</ele>
      </trkpt>
      <trkpt lat="36.6614" lon="28.07762">
        <ele>23.2</ele>
      </trkpt>
      <trkpt lat="36.66141" lon="28.07772">
        <ele>23.2</ele>
      </trkpt>
      <trkpt lat="36.66142" lon="28.07775">
        <ele>23.2</ele>
      </trkpt>
      <trkpt lat="36.66143" lon="28.07781">
        <ele>23.1</ele>
      </trkpt>
      <trkpt lat="36.66146" lon="28.07793">
        <ele>23.2</ele>
      </trkpt>
      <trkpt lat="36.66149" lon="28.07806">
        <ele>23.2</ele>
      </trkpt>
      <trkpt lat="36.6615" lon="28.07813">
        <ele>23</ele>
      </trkpt>
      <trkpt lat="36.6615" lon="28.07814">
        <ele>23</ele>
      </trkpt>
      <trkpt lat="36.66153" lon="28.07827">
        <ele>22.9</ele>
      </trkpt>
      <trkpt lat="36.66156" lon="28.07838">
        <ele>22.9</ele>
      </trkpt>
      <trkpt lat="36.66157" lon="28.0785">
        <ele>22.8</ele>
      </trkpt>
      <trkpt lat="36.66156" lon="28.07862">
        <ele>22.3</ele>
      </trkpt>
      <trkpt lat="36.66156" lon="28.0787">
        <ele>22.1</ele>
      </trkpt>
      <trkpt lat="36.66156" lon="28.07882">
        <ele>21.7</ele>
      </trkpt>
      <trkpt lat="36.66159" lon="28.07895">
        <ele>21.9</ele>
      </trkpt>
      <trkpt lat="36.66162" lon="28.07908">
        <ele>22.1</ele>
      </trkpt>
      <trkpt lat="36.6617" lon="28.07942">
        <ele>24.4</ele>
      </trkpt>
      <trkpt lat="36.66171" lon="28.07945">
        <ele>25</ele>
      </trkpt>
      <trkpt lat="36.66174" lon="28.07949">
        <ele>26.3</ele>
      </trkpt>
      <trkpt lat="36.66175" lon="28.07951">
        <ele>26.5</ele>
      </trkpt>
      <trkpt lat="36.66176" lon="28.0796">
        <ele>26.8</ele>
      </trkpt>
      <trkpt lat="36.66177" lon="28.07968">
        <ele>27.2</ele>
      </trkpt>
      <trkpt lat="36.66179" lon="28.07981">
        <ele>27.8</ele>
      </trkpt>
      <trkpt lat="36.66182" lon="28.07994">
        <ele>28.7</ele>
      </trkpt>
      <trkpt lat="36.66183" lon="28.07998">
        <ele>28.8</ele>
      </trkpt>
      <trkpt lat="36.66184" lon="28.08005">
        <ele>29.1</ele>
      </trkpt>
      <trkpt lat="36.66185" lon="28.08014">
        <ele>29.6</ele>
      </trkpt>
      <trkpt lat="36.66187" lon="28.08025">
        <ele>30.5</ele>
      </trkpt>
      <trkpt lat="36.6619" lon="28.08037">
        <ele>31.4</ele>
      </trkpt>
      <trkpt lat="36.66192" lon="28.08047">
        <ele>31.8</ele>
      </trkpt>
      <trkpt lat="36.66191" lon="28.08062">
        <ele>31.3</ele>
      </trkpt>
      <trkpt lat="36.66191" lon="28.08069">
        <ele>31.3</ele>
      </trkpt>
      <trkpt lat="36.66193" lon="28.08081">
        <ele>31.7</ele>
      </trkpt>
      <trkpt lat="36.66194" lon="28.08094">
        <ele>32</ele>
      </trkpt>
      <trkpt lat="36.66194" lon="28.08107">
        <ele>31.7</ele>
      </trkpt>
      <trkpt lat="36.66195" lon="28.08116">
        <ele>31.7</ele>
      </trkpt>
      <trkpt lat="36.66197" lon="28.08128">
        <ele>32.2</ele>
      </trkpt>
      <trkpt lat="36.66198" lon="28.08138">
        <ele>32.4</ele>
      </trkpt>
      <trkpt lat="36.66199" lon="28.08149">
        <ele>32.4</ele>
      </trkpt>
      <trkpt lat="36.66198" lon="28.0816">
        <ele>31.8</ele>
      </trkpt>
      <trkpt lat="36.66198" lon="28.0817">
        <ele>31.7</ele>
      </trkpt>
      <trkpt lat="36.66198" lon="28.0818">
        <ele>31.4</ele>
      </trkpt>
      <trkpt lat="36.66199" lon="28.08183">
        <ele>31.6</ele>
      </trkpt>
      <trkpt lat="36.66198" lon="28.08193">
        <ele>31.1</ele>
      </trkpt>
      <trkpt lat="36.66199" lon="28.08201">
        <ele>31</ele>
      </trkpt>
      <trkpt lat="36.66198" lon="28.08208">
        <ele>30.5</ele>
      </trkpt>
      <trkpt lat="36.66195" lon="28.08215">
        <ele>29.4</ele>
      </trkpt>
      <trkpt lat="36.66191" lon="28.0822">
        <ele>27.5</ele>
      </trkpt>
      <trkpt lat="36.66186" lon="28.0822">
        <ele>25.6</ele>
      </trkpt>
      <trkpt lat="36.66183" lon="28.08215">
        <ele>24.5</ele>
      </trkpt>
      <trkpt lat="36.66179" lon="28.08212">
        <ele>23.2</ele>
      </trkpt>
      <trkpt lat="36.66176" lon="28.0821">
        <ele>21.9</ele>
      </trkpt>
      <trkpt lat="36.66172" lon="28.08205">
        <ele>20.6</ele>
      </trkpt>
      <trkpt lat="36.66171" lon="28.08199">
        <ele>20.3</ele>
      </trkpt>
      <trkpt lat="36.66169" lon="28.08198">
        <ele>19.6</ele>
      </trkpt>
      <trkpt lat="36.66166" lon="28.082">
        <ele>18.6</ele>
      </trkpt>
      <trkpt lat="36.66164" lon="28.082">
        <ele>18.4</ele>
      </trkpt>
      <trkpt lat="36.66159" lon="28.08198">
        <ele>17.6</ele>
      </trkpt>
      <trkpt lat="36.66155" lon="28.08196">
        <ele>16.9</ele>
      </trkpt>
      <trkpt lat="36.6615" lon="28.08196">
        <ele>16.2</ele>
      </trkpt>
      <trkpt lat="36.66143" lon="28.08197">
        <ele>15</ele>
      </trkpt>
      <trkpt lat="36.66139" lon="28.0819">
        <ele>14.4</ele>
      </trkpt>
      <trkpt lat="36.66134" lon="28.08187">
        <ele>13.7</ele>
      </trkpt>
      <trkpt lat="36.66128" lon="28.08179">
        <ele>12.8</ele>
      </trkpt>
      <trkpt lat="36.66113" lon="28.08179">
        <ele>10.2</ele>
      </trkpt>
      <trkpt lat="36.66115" lon="28.08182">
        <ele>10.4</ele>
      </trkpt>
      <trkpt lat="36.66108" lon="28.08192">
        <ele>9.2</ele>
      </trkpt>
      <trkpt lat="36.66101" lon="28.08202">
        <ele>7.8</ele>
      </trkpt>
      <trkpt lat="36.66094" lon="28.08212">
        <ele>6.7</ele>
      </trkpt>
      <trkpt lat="36.66092" lon="28.08225">
        <ele>6.3</ele>
      </trkpt>
      <trkpt lat="36.66089" lon="28.08235">
        <ele>5.8</ele>
      </trkpt>
      <trkpt lat="36.66089" lon="28.08248">
        <ele>5.8</ele>
      </trkpt>
      <trkpt lat="36.66093" lon="28.08249">
        <ele>6.4</ele>
      </trkpt>
      <trkpt lat="36.66089" lon="28.08255">
        <ele>5.6</ele>
      </trkpt>
      <trkpt lat="36.66088" lon="28.08264">
        <ele>5</ele>
      </trkpt>
      <trkpt lat="36.66089" lon="28.08269">
        <ele>4.8</ele>
      </trkpt>
      <trkpt lat="36.6609" lon="28.08283">
        <ele>4.3</ele>
      </trkpt>
      <trkpt lat="36.66091" lon="28.08285">
        <ele>4.4</ele>
      </trkpt>
      <trkpt lat="36.66091" lon="28.08296">
        <ele>3.9</ele>
      </trkpt>
      <trkpt lat="36.66087" lon="28.08308">
        <ele>2.7</ele>
      </trkpt>
      <trkpt lat="36.66082" lon="28.08312">
        <ele>2</ele>
      </trkpt>
      <trkpt lat="36.66076" lon="28.08313">
        <ele>2</ele>
      </trkpt>
      <trkpt lat="36.66066" lon="28.08315">
        <ele>1.9</ele>
      </trkpt>
      <trkpt lat="36.66062" lon="28.08316">
        <ele>1.8</ele>
      </trkpt>
      <trkpt lat="36.66052" lon="28.08321">
        <ele>1.6</ele>
      </trkpt>
      <trkpt lat="36.66044" lon="28.08326">
        <ele>1.3</ele>
      </trkpt>
      <trkpt lat="36.66042" lon="28.08327">
        <ele>1.3</ele>
      </trkpt>
      <trkpt lat="36.66037" lon="28.08331">
        <ele>1.1</ele>
      </trkpt>
      <trkpt lat="36.66031" lon="28.08337">
        <ele>1.1</ele>
      </trkpt>
      <trkpt lat="36.66023" lon="28.08346">
        <ele>1.2</ele>
      </trkpt>
      <trkpt lat="36.6602" lon="28.08349">
        <ele>1.3</ele>
      </trkpt>
      <trkpt lat="36.66018" lon="28.08352">
        <ele>1.3</ele>
      </trkpt>
      <trkpt lat="36.66014" lon="28.08359">
        <ele>1.4</ele>
      </trkpt>
      <trkpt lat="36.66008" lon="28.08366">
        <ele>1.5</ele>
      </trkpt>
      <trkpt lat="36.66004" lon="28.08375">
        <ele>1.5</ele>
      </trkpt>
      <trkpt lat="36.65992" lon="28.0838">
        <ele>1.6</ele>
      </trkpt>
      <trkpt lat="36.6599" lon="28.08381">
        <ele>1.6</ele>
      </trkpt>
      <trkpt lat="36.65983" lon="28.08384">
        <ele>1.6</ele>
      </trkpt>
      <trkpt lat="36.65977" lon="28.08384">
        <ele>1.6</ele>
      </trkpt>
      <trkpt lat="36.65978" lon="28.08387">
        <ele>1.6</ele>
      </trkpt>
      <trkpt lat="36.65972" lon="28.0839">
        <ele>1.7</ele>
      </trkpt>
      <trkpt lat="36.65965" lon="28.08391">
        <ele>1.7</ele>
      </trkpt>
      <trkpt lat="36.65956" lon="28.08393">
        <ele>1.7</ele>
      </trkpt>
      <trkpt lat="36.65948" lon="28.08394">
        <ele>1.7</ele>
      </trkpt>
      <trkpt lat="36.65945" lon="28.08394">
        <ele>1.7</ele>
      </trkpt>
      <trkpt lat="36.6594" lon="28.08387">
        <ele>1.6</ele>
      </trkpt>
      <trkpt lat="36.6594" lon="28.08391">
        <ele>1.7</ele>
      </trkpt>
      <trkpt lat="36.6594" lon="28.08391">
        <ele>1.7</ele>
      </trkpt>
      <trkpt lat="36.6587" lon="28.08404">
        <ele>1.43</ele>
      </trkpt>
      <trkpt lat="36.65838" lon="28.08404">
        <ele>1.05</ele>
        <time>2018-01-05T11:54:27Z</time>
      </trkpt>
      <trkpt lat="36.65834" lon="28.08403">
        <ele>1.01</ele>
      </trkpt>
      <trkpt lat="36.65825" lon="28.08407">
        <ele>1.1</ele>
      </trkpt>
      <trkpt lat="36.65818" lon="28.08404">
        <ele>1.19</ele>
      </trkpt>
      <trkpt lat="36.65815" lon="28.08405">
        <ele>1.22</ele>
      </trkpt>
      <trkpt lat="36.65807" lon="28.0841">
        <ele>1.31</ele>
      </trkpt>
      <trkpt lat="36.65799" lon="28.08418">
        <ele>1.5</ele>
      </trkpt>
      <trkpt lat="36.65791" lon="28.08424">
        <ele>2.1</ele>
      </trkpt>
      <trkpt lat="36.65785" lon="28.08428">
        <ele>2.6</ele>
      </trkpt>
      <trkpt lat="36.65783" lon="28.08431">
        <ele>2.9</ele>
      </trkpt>
      <trkpt lat="36.65777" lon="28.08436">
        <ele>3.7</ele>
      </trkpt>
      <trkpt lat="36.65773" lon="28.08442">
        <ele>4.6</ele>
      </trkpt>
      <trkpt lat="36.65766" lon="28.08448">
        <ele>5.7</ele>
      </trkpt>
      <trkpt lat="36.65759" lon="28.08454">
        <ele>7.1</ele>
      </trkpt>
      <trkpt lat="36.65752" lon="28.08457">
        <ele>8.2</ele>
      </trkpt>
      <trkpt lat="36.65747" lon="28.08459">
        <ele>8.5</ele>
      </trkpt>
      <trkpt lat="36.65743" lon="28.08461">
        <ele>8.8</ele>
      </trkpt>
      <trkpt lat="36.65737" lon="28.08462">
        <ele>8.8</ele>
      </trkpt>
      <trkpt lat="36.65736" lon="28.08463">
        <ele>8.8</ele>
      </trkpt>
      <trkpt lat="36.65729" lon="28.08466">
        <ele>9.1</ele>
      </trkpt>
      <trkpt lat="36.65725" lon="28.08465">
        <ele>8.9</ele>
      </trkpt>
      <trkpt lat="36.6572" lon="28.08467">
        <ele>9</ele>
      </trkpt>
      <trkpt lat="36.65713" lon="28.08474">
        <ele>9.7</ele>
      </trkpt>
      <trkpt lat="36.6571" lon="28.08474">
        <ele>9.7</ele>
      </trkpt>
      <trkpt lat="36.65703" lon="28.08475">
        <ele>9.5</ele>
      </trkpt>
      <trkpt lat="36.65701" lon="28.08475">
        <ele>9.4</ele>
      </trkpt>
      <trkpt lat="36.65693" lon="28.08476">
        <ele>9.2</ele>
      </trkpt>
      <trkpt lat="36.65686" lon="28.08471">
        <ele>8.5</ele>
      </trkpt>
      <trkpt lat="36.6568" lon="28.08472">
        <ele>8.4</ele>
      </trkpt>
      <trkpt lat="36.65672" lon="28.08474">
        <ele>8.4</ele>
      </trkpt>
      <trkpt lat="36.65668" lon="28.08474">
        <ele>8.2</ele>
      </trkpt>
      <trkpt lat="36.65661" lon="28.08471">
        <ele>11</ele>
      </trkpt>
      <trkpt lat="36.65656" lon="28.08473">
        <ele>11</ele>
      </trkpt>
      <trkpt lat="36.65653" lon="28.08472">
        <ele>11</ele>
      </trkpt>
      <trkpt lat="36.65653" lon="28.0847">
        <ele>11</ele>
      </trkpt>
      <trkpt lat="36.65654" lon="28.08471">
        <ele>11</ele>
      </trkpt>
      <trkpt lat="36.65653" lon="28.08471">
        <ele>11</ele>
      </trkpt>
      <trkpt lat="36.65653" lon="28.0847">
        <ele>11</ele>
      </trkpt>
      <trkpt lat="36.65653" lon="28.0847">
        <ele>11</ele>
      </trkpt>
      <trkpt lat="36.65654" lon="28.08471">
        <ele>11</ele>
      </trkpt>
      <trkpt lat="36.65654" lon="28.08471">
        <ele>11</ele>
      </trkpt>
      <trkpt lat="36.65653" lon="28.08472">
        <ele>11</ele>
      </trkpt>
      <trkpt lat="36.65654" lon="28.08474">
        <ele>11</ele>
      </trkpt>
      <trkpt lat="36.65649" lon="28.0847">
        <ele>11</ele>
      </trkpt>
      <trkpt lat="36.65647" lon="28.08469">
        <ele>11</ele>
      </trkpt>
      <trkpt lat="36.65644" lon="28.08473">
        <ele>11</ele>
      </trkpt>
      <trkpt lat="36.65643" lon="28.0848">
        <ele>11</ele>
      </trkpt>
      <trkpt lat="36.65641" lon="28.08487">
        <ele>11</ele>
      </trkpt>
      <trkpt lat="36.65641" lon="28.08489">
        <ele>11</ele>
      </trkpt>
      <trkpt lat="36.65641" lon="28.0849">
        <ele>11</ele>
      </trkpt>
      <trkpt lat="36.65641" lon="28.0849">
        <ele>11</ele>
      </trkpt>
      <trkpt lat="36.65641" lon="28.0849">
        <ele>11</ele>
      </trkpt>
      <trkpt lat="36.65641" lon="28.0849">
        <ele>11</ele>
      </trkpt>
      <trkpt lat="36.65641" lon="28.0849">
        <ele>11</ele>
      </trkpt>
      <trkpt lat="36.6564" lon="28.08489">
        <ele>11</ele>
      </trkpt>
      <trkpt lat="36.65641" lon="28.08489">
        <ele>11</ele>
      </trkpt>
      <trkpt lat="36.65641" lon="28.0849">
        <ele>11</ele>
      </trkpt>
      <trkpt lat="36.6564" lon="28.0849">
        <ele>11</ele>
      </trkpt>
      <trkpt lat="36.6564" lon="28.0849">
        <ele>11</ele>
      </trkpt>
      <trkpt lat="36.6564" lon="28.08493">
        <ele>11</ele>
      </trkpt>
      <trkpt lat="36.65639" lon="28.08499">
        <ele>11</ele>
      </trkpt>
      <trkpt lat="36.65639" lon="28.08499">
        <ele>11</ele>
      </trkpt>
      <trkpt lat="36.65639" lon="28.08499">
        <ele>11</ele>
      </trkpt>
      <trkpt lat="36.65639" lon="28.08497">
        <ele>11</ele>
      </trkpt>
      <trkpt lat="36.6564" lon="28.08498">
        <ele>11</ele>
      </trkpt>
      <trkpt lat="36.65641" lon="28.08501">
        <ele>11.1</ele>
      </trkpt>
      <trkpt lat="36.65639" lon="28.08501">
        <ele>11</ele>
      </trkpt>
      <trkpt lat="36.6564" lon="28.08505">
        <ele>11.3</ele>
      </trkpt>
      <trkpt lat="36.6564" lon="28.08508">
        <ele>11.6</ele>
      </trkpt>
      <trkpt lat="36.65641" lon="28.08511">
        <ele>11.8</ele>
      </trkpt>
      <trkpt lat="36.65639" lon="28.08515">
        <ele>12</ele>
      </trkpt>
      <trkpt lat="36.65638" lon="28.08515">
        <ele>12</ele>
      </trkpt>
      <trkpt lat="36.65638" lon="28.08521">
        <ele>12.3</ele>
      </trkpt>
      <trkpt lat="36.65637" lon="28.08524">
        <ele>12.5</ele>
      </trkpt>
      <trkpt lat="36.65638" lon="28.08532">
        <ele>13</ele>
      </trkpt>
      <trkpt lat="36.65637" lon="28.08536">
        <ele>13.3</ele>
      </trkpt>
      <trkpt lat="36.65637" lon="28.08535">
        <ele>13.1</ele>
      </trkpt>
      <trkpt lat="36.65637" lon="28.08543">
        <ele>13.7</ele>
      </trkpt>
      <trkpt lat="36.65635" lon="28.08545">
        <ele>13.6</ele>
      </trkpt>
      <trkpt lat="36.65634" lon="28.08556">
        <ele>13.9</ele>
      </trkpt>
      <trkpt lat="36.65633" lon="28.08564">
        <ele>14.2</ele>
      </trkpt>
      <trkpt lat="36.65633" lon="28.08573">
        <ele>14.5</ele>
      </trkpt>
      <trkpt lat="36.65632" lon="28.08577">
        <ele>14.5</ele>
      </trkpt>
      <trkpt lat="36.6563" lon="28.08585">
        <ele>14.3</ele>
      </trkpt>
      <trkpt lat="36.65627" lon="28.08588">
        <ele>13.9</ele>
      </trkpt>
      <trkpt lat="36.65627" lon="28.08588">
        <ele>13.9</ele>
      </trkpt>
      <trkpt lat="36.65622" lon="28.08593">
        <ele>12.9</ele>
      </trkpt>
      <trkpt lat="36.65622" lon="28.08595">
        <ele>12.9</ele>
      </trkpt>
      <trkpt lat="36.65621" lon="28.08597">
        <ele>12.8</ele>
      </trkpt>
      <trkpt lat="36.6562" lon="28.08603">
        <ele>13</ele>
      </trkpt>
      <trkpt lat="36.65617" lon="28.08609">
        <ele>12.5</ele>
      </trkpt>
      <trkpt lat="36.65613" lon="28.08613">
        <ele>11.8</ele>
      </trkpt>
      <trkpt lat="36.65611" lon="28.08614">
        <ele>11.2</ele>
      </trkpt>
      <trkpt lat="36.65605" lon="28.0862">
        <ele>10</ele>
      </trkpt>
      <trkpt lat="36.65598" lon="28.08629">
        <ele>8.6</ele>
      </trkpt>
      <trkpt lat="36.65596" lon="28.08633">
        <ele>8</ele>
      </trkpt>
      <trkpt lat="36.65587" lon="28.08642">
        <ele>6</ele>
      </trkpt>
      <trkpt lat="36.65578" lon="28.08648">
        <ele>4.8</ele>
      </trkpt>
      <trkpt lat="36.65575" lon="28.08648">
        <ele>4.7</ele>
      </trkpt>
      <trkpt lat="36.65567" lon="28.08651">
        <ele>4.5</ele>
      </trkpt>
      <trkpt lat="36.65555" lon="28.08652">
        <ele>3.9</ele>
      </trkpt>
      <trkpt lat="36.65549" lon="28.08652">
        <ele>3.6</ele>
      </trkpt>
      <trkpt lat="36.65549" lon="28.08652">
        <ele>3.6</ele>
      </trkpt>
      <trkpt lat="36.65545" lon="28.08652">
        <ele>3.4</ele>
      </trkpt>
      <trkpt lat="36.65537" lon="28.08648">
        <ele>3</ele>
      </trkpt>
      <trkpt lat="36.65533" lon="28.08647">
        <ele>2.8</ele>
      </trkpt>
      <trkpt lat="36.65525" lon="28.08646">
        <ele>2.4</ele>
      </trkpt>
      <trkpt lat="36.65519" lon="28.08647">
        <ele>2.1</ele>
      </trkpt>
      <trkpt lat="36.65515" lon="28.08655">
        <ele>1.9</ele>
      </trkpt>
      <trkpt lat="36.65515" lon="28.08655">
        <ele>1.9</ele>
      </trkpt>
      <trkpt lat="36.65516" lon="28.08655">
        <ele>1.9</ele>
      </trkpt>
      <trkpt lat="36.65515" lon="28.08656">
        <ele>1.9</ele>
      </trkpt>
      <trkpt lat="36.65511" lon="28.08655">
        <ele>1.7</ele>
      </trkpt>
      <trkpt lat="36.65514" lon="28.08652">
        <ele>1.9</ele>
      </trkpt>
      <trkpt lat="36.65513" lon="28.08652">
        <ele>1.8</ele>
      </trkpt>
      <trkpt lat="36.65508" lon="28.08657">
        <ele>1.5</ele>
      </trkpt>
      <trkpt lat="36.65506" lon="28.08661">
        <ele>1.4</ele>
      </trkpt>
      <trkpt lat="36.65506" lon="28.08664">
        <ele>1.4</ele>
      </trkpt>
      <trkpt lat="36.65504" lon="28.08664">
        <ele>1.3</ele>
      </trkpt>
      <trkpt lat="36.65505" lon="28.08664">
        <ele>1.3</ele>
      </trkpt>
      <trkpt lat="36.65502" lon="28.08663">
        <ele>1.2</ele>
      </trkpt>
      <trkpt lat="36.655" lon="28.08665">
        <ele>1</ele>
      </trkpt>
      <trkpt lat="36.65496" lon="28.08666">
        <ele>1</ele>
      </trkpt>
      <trkpt lat="36.65491" lon="28.08674">
        <ele>1.3</ele>
      </trkpt>
      <trkpt lat="36.65488" lon="28.08683">
        <ele>1.7</ele>
      </trkpt>
      <trkpt lat="36.65487" lon="28.08683">
        <ele>1.7</ele>
      </trkpt>
      <trkpt lat="36.65483" lon="28.08689">
        <ele>1.8</ele>
      </trkpt>
      <trkpt lat="36.65478" lon="28.08696">
        <ele>2.1</ele>
      </trkpt>
      <trkpt lat="36.65473" lon="28.08707">
        <ele>2.3</ele>
      </trkpt>
      <trkpt lat="36.65468" lon="28.08715">
        <ele>2.4</ele>
      </trkpt>
      <trkpt lat="36.65466" lon="28.08718">
        <ele>2.5</ele>
      </trkpt>
      <trkpt lat="36.65461" lon="28.08724">
        <ele>2.5</ele>
      </trkpt>
      <trkpt lat="36.65459" lon="28.08727">
        <ele>2.5</ele>
      </trkpt>
      <trkpt lat="36.65456" lon="28.08729">
        <ele>2.4</ele>
      </trkpt>
      <trkpt lat="36.65451" lon="28.08735">
        <ele>2.4</ele>
      </trkpt>
      <trkpt lat="36.65448" lon="28.08737">
        <ele>2.3</ele>
      </trkpt>
      <trkpt lat="36.65448" lon="28.08738">
        <ele>2.3</ele>
      </trkpt>
      <trkpt lat="36.65441" lon="28.08744">
        <ele>2.1</ele>
      </trkpt>
      <trkpt lat="36.65439" lon="28.08746">
        <ele>2</ele>
      </trkpt>
      <trkpt lat="36.65432" lon="28.08751">
        <ele>1.8</ele>
      </trkpt>
      <trkpt lat="36.6543" lon="28.08752">
        <ele>1.7</ele>
      </trkpt>
      <trkpt lat="36.65424" lon="28.08757">
        <ele>1.7</ele>
      </trkpt>
      <trkpt lat="36.65419" lon="28.08762">
        <ele>1.7</ele>
      </trkpt>
      <trkpt lat="36.65413" lon="28.0877">
        <ele>2</ele>
      </trkpt>
      <trkpt lat="36.65409" lon="28.08775">
        <ele>2.3</ele>
      </trkpt>
      <trkpt lat="36.65407" lon="28.08777">
        <ele>2.4</ele>
      </trkpt>
      <trkpt lat="36.65408" lon="28.08776">
        <ele>2.3</ele>
      </trkpt>
      <trkpt lat="36.65403" lon="28.0878">
        <ele>2.6</ele>
      </trkpt>
      <trkpt lat="36.65394" lon="28.08785">
        <ele>3</ele>
      </trkpt>
      <trkpt lat="36.65391" lon="28.08786">
        <ele>3.1</ele>
      </trkpt>
      <trkpt lat="36.65389" lon="28.08786">
        <ele>3.2</ele>
      </trkpt>
      <trkpt lat="36.6538" lon="28.08788">
        <ele>3.4</ele>
      </trkpt>
      <trkpt lat="36.65375" lon="28.08789">
        <ele>3.6</ele>
      </trkpt>
      <trkpt lat="36.65371" lon="28.08799">
        <ele>4.4</ele>
      </trkpt>
      <trkpt lat="36.65364" lon="28.08807">
        <ele>5</ele>
      </trkpt>
      <trkpt lat="36.6536" lon="28.0881">
        <ele>5.4</ele>
      </trkpt>
      <trkpt lat="36.65362" lon="28.0881">
        <ele>5.3</ele>
      </trkpt>
      <trkpt lat="36.65361" lon="28.0881">
        <ele>5.3</ele>
      </trkpt>
      <trkpt lat="36.65352" lon="28.08813">
        <ele>5.8</ele>
      </trkpt>
      <trkpt lat="36.65345" lon="28.08813">
        <ele>5.9</ele>
      </trkpt>
      <trkpt lat="36.65341" lon="28.0881">
        <ele>5.8</ele>
      </trkpt>
      <trkpt lat="36.65336" lon="28.08812">
        <ele>6.1</ele>
      </trkpt>
      <trkpt lat="36.65326" lon="28.08812">
        <ele>9.1</ele>
      </trkpt>
      <trkpt lat="36.65325" lon="28.08812">
        <ele>9.24</ele>
      </trkpt>
      <trkpt lat="36.65321" lon="28.08812">
        <ele>9.94</ele>
      </trkpt>
      <trkpt lat="36.65315" lon="28.08813">
        <ele>10.94</ele>
      </trkpt>
      <trkpt lat="36.65307" lon="28.08812">
        <ele>12.11</ele>
      </trkpt>
      <trkpt lat="36.65303" lon="28.08809">
        <ele>12.67</ele>
      </trkpt>
      <trkpt lat="36.65298" lon="28.08806">
        <ele>13.47</ele>
      </trkpt>
      <trkpt lat="36.65293" lon="28.08806">
        <ele>14.37</ele>
      </trkpt>
      <trkpt lat="36.65287" lon="28.08804">
        <ele>15.17</ele>
      </trkpt>
      <trkpt lat="36.65282" lon="28.08801">
        <ele>15.95</ele>
      </trkpt>
      <trkpt lat="36.65278" lon="28.08799">
        <ele>16.59</ele>
      </trkpt>
      <trkpt lat="36.65274" lon="28.08798">
        <ele>17.27</ele>
      </trkpt>
      <trkpt lat="36.65273" lon="28.08797">
        <ele>17.49</ele>
      </trkpt>
      <trkpt lat="36.65267" lon="28.08797">
        <ele>18.35</ele>
      </trkpt>
      <trkpt lat="36.65262" lon="28.08798">
        <ele>19.17</ele>
      </trkpt>
      <trkpt lat="36.65252" lon="28.08798">
        <ele>20.73</ele>
      </trkpt>
      <trkpt lat="36.65247" lon="28.08796">
        <ele>13.3</ele>
      </trkpt>
      <trkpt lat="36.65242" lon="28.08795">
        <ele>13.2</ele>
      </trkpt>
      <trkpt lat="36.65237" lon="28.08794">
        <ele>13.5</ele>
      </trkpt>
      <trkpt lat="36.65235" lon="28.08793">
        <ele>13.3</ele>
      </trkpt>
      <trkpt lat="36.65233" lon="28.08793">
        <ele>13.5</ele>
      </trkpt>
      <trkpt lat="36.65228" lon="28.08794">
        <ele>14</ele>
      </trkpt>
      <trkpt lat="36.65224" lon="28.08791">
        <ele>13.6</ele>
      </trkpt>
      <trkpt lat="36.65217" lon="28.0879">
        <ele>13.8</ele>
      </trkpt>
      <trkpt lat="36.65213" lon="28.0879">
        <ele>13.9</ele>
      </trkpt>
      <trkpt lat="36.65206" lon="28.08789">
        <ele>14.1</ele>
      </trkpt>
      <trkpt lat="36.65201" lon="28.08787">
        <ele>13.9</ele>
      </trkpt>
      <trkpt lat="36.65197" lon="28.08786">
        <ele>13.9</ele>
      </trkpt>
      <trkpt lat="36.65192" lon="28.08785">
        <ele>13.9</ele>
      </trkpt>
      <trkpt lat="36.65187" lon="28.08782">
        <ele>13</ele>
      </trkpt>
      <trkpt lat="36.65182" lon="28.08775">
        <ele>11.1</ele>
      </trkpt>
      <trkpt lat="36.65181" lon="28.08776">
        <ele>11.3</ele>
      </trkpt>
      <trkpt lat="36.65179" lon="28.08778">
        <ele>12.1</ele>
      </trkpt>
      <trkpt lat="36.65171" lon="28.08777">
        <ele>12.3</ele>
      </trkpt>
      <trkpt lat="36.65166" lon="28.08777">
        <ele>12.2</ele>
      </trkpt>
      <trkpt lat="36.65161" lon="28.08777">
        <ele>11.9</ele>
      </trkpt>
      <trkpt lat="36.65156" lon="28.08777">
        <ele>11.6</ele>
      </trkpt>
      <trkpt lat="36.6515" lon="28.08777">
        <ele>11.2</ele>
      </trkpt>
      <trkpt lat="36.65145" lon="28.08775">
        <ele>10.2</ele>
      </trkpt>
      <trkpt lat="36.65141" lon="28.08775">
        <ele>9.9</ele>
      </trkpt>
      <trkpt lat="36.65135" lon="28.08777">
        <ele>10</ele>
      </trkpt>
      <trkpt lat="36.65129" lon="28.08776">
        <ele>9.6</ele>
      </trkpt>
      <trkpt lat="36.65121" lon="28.08779">
        <ele>9.6</ele>
      </trkpt>
      <trkpt lat="36.6512" lon="28.0878">
        <ele>9.8</ele>
      </trkpt>
      <trkpt lat="36.6512" lon="28.08781">
        <ele>10</ele>
      </trkpt>
      <trkpt lat="36.65117" lon="28.08785">
        <ele>10.9</ele>
      </trkpt>
      <trkpt lat="36.65114" lon="28.0879">
        <ele>11.6</ele>
      </trkpt>
      <trkpt lat="36.65112" lon="28.08794">
        <ele>12.5</ele>
      </trkpt>
      <trkpt lat="36.6511" lon="28.088">
        <ele>13.5</ele>
      </trkpt>
      <trkpt lat="36.65106" lon="28.08804">
        <ele>14</ele>
      </trkpt>
      <trkpt lat="36.65103" lon="28.08808">
        <ele>14.4</ele>
      </trkpt>
      <trkpt lat="36.65106" lon="28.08808">
        <ele>14.8</ele>
      </trkpt>
      <trkpt lat="36.65106" lon="28.08807">
        <ele>14.5</ele>
      </trkpt>
      <trkpt lat="36.65105" lon="28.08809">
        <ele>14.8</ele>
      </trkpt>
      <trkpt lat="36.65101" lon="28.08812">
        <ele>15.1</ele>
      </trkpt>
      <trkpt lat="36.65099" lon="28.08815">
        <ele>15.2</ele>
      </trkpt>
      <trkpt lat="36.65097" lon="28.08821">
        <ele>16.2</ele>
      </trkpt>
      <trkpt lat="36.65097" lon="28.08825">
        <ele>17</ele>
      </trkpt>
      <trkpt lat="36.65095" lon="28.0883">
        <ele>17.6</ele>
      </trkpt>
      <trkpt lat="36.65096" lon="28.08831">
        <ele>17.9</ele>
      </trkpt>
      <trkpt lat="36.65095" lon="28.08837">
        <ele>18.3</ele>
      </trkpt>
      <trkpt lat="36.65094" lon="28.08843">
        <ele>18.5</ele>
      </trkpt>
      <trkpt lat="36.65092" lon="28.08852">
        <ele>18.5</ele>
      </trkpt>
      <trkpt lat="36.65093" lon="28.08858">
        <ele>19.1</ele>
      </trkpt>
      <trkpt lat="36.65093" lon="28.08865">
        <ele>19.3</ele>
      </trkpt>
      <trkpt lat="36.65092" lon="28.0887">
        <ele>19.2</ele>
      </trkpt>
      <trkpt lat="36.65092" lon="28.08874">
        <ele>19.4</ele>
      </trkpt>
      <trkpt lat="36.65092" lon="28.08876">
        <ele>19.6</ele>
      </trkpt>
      <trkpt lat="36.65092" lon="28.08881">
        <ele>19.7</ele>
      </trkpt>
      <trkpt lat="36.65092" lon="28.08886">
        <ele>19.9</ele>
      </trkpt>
      <trkpt lat="36.65093" lon="28.08892">
        <ele>20.8</ele>
      </trkpt>
      <trkpt lat="36.65095" lon="28.08896">
        <ele>21.6</ele>
      </trkpt>
      <trkpt lat="36.65095" lon="28.08904">
        <ele>22</ele>
      </trkpt>
      <trkpt lat="36.65094" lon="28.0891">
        <ele>22</ele>
      </trkpt>
      <trkpt lat="36.65092" lon="28.08918">
        <ele>21.4</ele>
      </trkpt>
      <trkpt lat="36.65092" lon="28.08924">
        <ele>20.8</ele>
      </trkpt>
      <trkpt lat="36.65093" lon="28.08924">
        <ele>21.2</ele>
      </trkpt>
      <trkpt lat="36.65095" lon="28.08924">
        <ele>22.4</ele>
      </trkpt>
      <trkpt lat="36.65095" lon="28.0893">
        <ele>21.8</ele>
      </trkpt>
      <trkpt lat="36.65093" lon="28.08934">
        <ele>20.6</ele>
      </trkpt>
      <trkpt lat="36.6509" lon="28.08938">
        <ele>19.2</ele>
      </trkpt>
      <trkpt lat="36.65088" lon="28.08945">
        <ele>17.8</ele>
      </trkpt>
      <trkpt lat="36.65088" lon="28.08952">
        <ele>17</ele>
      </trkpt>
      <trkpt lat="36.65086" lon="28.08958">
        <ele>15.8</ele>
      </trkpt>
      <trkpt lat="36.65085" lon="28.08966">
        <ele>14.7</ele>
      </trkpt>
      <trkpt lat="36.65086" lon="28.08968">
        <ele>14.7</ele>
      </trkpt>
      <trkpt lat="36.65083" lon="28.08975">
        <ele>13.1</ele>
      </trkpt>
      <trkpt lat="36.65083" lon="28.08979">
        <ele>12.8</ele>
      </trkpt>
      <trkpt lat="36.65082" lon="28.08983">
        <ele>12.4</ele>
      </trkpt>
      <trkpt lat="36.65082" lon="28.0899">
        <ele>11.8</ele>
      </trkpt>
      <trkpt lat="36.65083" lon="28.08997">
        <ele>11.3</ele>
      </trkpt>
      <trkpt lat="36.65085" lon="28.09002">
        <ele>11.8</ele>
      </trkpt>
      <trkpt lat="36.65084" lon="28.09004">
        <ele>11.1</ele>
      </trkpt>
      <trkpt lat="36.65084" lon="28.09003">
        <ele>11.4</ele>
      </trkpt>
      <trkpt lat="36.65085" lon="28.09004">
        <ele>12</ele>
      </trkpt>
      <trkpt lat="36.65085" lon="28.09003">
        <ele>12</ele>
      </trkpt>
      <trkpt lat="36.65088" lon="28.09003">
        <ele>13.4</ele>
      </trkpt>
      <trkpt lat="36.65088" lon="28.0901">
        <ele>13.4</ele>
      </trkpt>
      <trkpt lat="36.65087" lon="28.09014">
        <ele>12.8</ele>
      </trkpt>
      <trkpt lat="36.65088" lon="28.0902">
        <ele>13.2</ele>
      </trkpt>
      <trkpt lat="36.65088" lon="28.09021">
        <ele>13.1</ele>
      </trkpt>
      <trkpt lat="36.65089" lon="28.09023">
        <ele>13.5</ele>
      </trkpt>
      <trkpt lat="36.6509" lon="28.09023">
        <ele>14.1</ele>
      </trkpt>
      <trkpt lat="36.65091" lon="28.09028">
        <ele>14.9</ele>
      </trkpt>
      <trkpt lat="36.65091" lon="28.09032">
        <ele>14.8</ele>
      </trkpt>
      <trkpt lat="36.65091" lon="28.09039">
        <ele>14.7</ele>
      </trkpt>
      <trkpt lat="36.65091" lon="28.09047">
        <ele>14.6</ele>
      </trkpt>
      <trkpt lat="36.65091" lon="28.09049">
        <ele>14.6</ele>
      </trkpt>
      <trkpt lat="36.65092" lon="28.09049">
        <ele>14.9</ele>
      </trkpt>
      <trkpt lat="36.65093" lon="28.09054">
        <ele>15.3</ele>
      </trkpt>
      <trkpt lat="36.65094" lon="28.09061">
        <ele>15.7</ele>
      </trkpt>
      <trkpt lat="36.65093" lon="28.09068">
        <ele>15.4</ele>
      </trkpt>
      <trkpt lat="36.65093" lon="28.09067">
        <ele>15.1</ele>
      </trkpt>
      <trkpt lat="36.65094" lon="28.09068">
        <ele>15.9</ele>
      </trkpt>
      <trkpt lat="36.65095" lon="28.09068">
        <ele>16.3</ele>
      </trkpt>
      <trkpt lat="36.65095" lon="28.09067">
        <ele>16.2</ele>
      </trkpt>
      <trkpt lat="36.65096" lon="28.09069">
        <ele>16.8</ele>
      </trkpt>
      <trkpt lat="36.65095" lon="28.09069">
        <ele>16.3</ele>
      </trkpt>
      <trkpt lat="36.65094" lon="28.09067">
        <ele>15.8</ele>
      </trkpt>
      <trkpt lat="36.65095" lon="28.09069">
        <ele>16.2</ele>
      </trkpt>
      <trkpt lat="36.65095" lon="28.09074">
        <ele>16</ele>
      </trkpt>
      <trkpt lat="36.65096" lon="28.09077">
        <ele>16.4</ele>
      </trkpt>
      <trkpt lat="36.65095" lon="28.09081">
        <ele>15.9</ele>
      </trkpt>
      <trkpt lat="36.65096" lon="28.09083">
        <ele>16.3</ele>
      </trkpt>
      <trkpt lat="36.65096" lon="28.09091">
        <ele>16.3</ele>
      </trkpt>
      <trkpt lat="36.65095" lon="28.09107">
        <ele>15.4</ele>
      </trkpt>
      <trkpt lat="36.65092" lon="28.09114">
        <ele>14</ele>
      </trkpt>
      <trkpt lat="36.6509" lon="28.09121">
        <ele>13</ele>
      </trkpt>
      <trkpt lat="36.65087" lon="28.09125">
        <ele>12.1</ele>
      </trkpt>
      <trkpt lat="36.65086" lon="28.09128">
        <ele>11.3</ele>
      </trkpt>
      <trkpt lat="36.6508" lon="28.09138">
        <ele>10.2</ele>
      </trkpt>
      <trkpt lat="36.65073" lon="28.09148">
        <ele>9.7</ele>
      </trkpt>
      <trkpt lat="36.65066" lon="28.09157">
        <ele>9.2</ele>
      </trkpt>
      <trkpt lat="36.65061" lon="28.09163">
        <ele>8.7</ele>
      </trkpt>
      <trkpt lat="36.65052" lon="28.09172">
        <ele>8.1</ele>
      </trkpt>
      <trkpt lat="36.65046" lon="28.09175">
        <ele>7.7</ele>
      </trkpt>
      <trkpt lat="36.65045" lon="28.09177">
        <ele>7.7</ele>
      </trkpt>
      <trkpt lat="36.65036" lon="28.09186">
        <ele>7</ele>
      </trkpt>
      <trkpt lat="36.65028" lon="28.09193">
        <ele>6.5</ele>
      </trkpt>
      <trkpt lat="36.65019" lon="28.09199">
        <ele>5.9</ele>
      </trkpt>
      <trkpt lat="36.65014" lon="28.09203">
        <ele>5.5</ele>
      </trkpt>
      <trkpt lat="36.65013" lon="28.09204">
        <ele>5.4</ele>
      </trkpt>
      <trkpt lat="36.65014" lon="28.09205">
        <ele>5.5</ele>
      </trkpt>
      <trkpt lat="36.65012" lon="28.09206">
        <ele>5.3</ele>
      </trkpt>
      <trkpt lat="36.65005" lon="28.09213">
        <ele>4.7</ele>
      </trkpt>
      <trkpt lat="36.64996" lon="28.09222">
        <ele>4.3</ele>
      </trkpt>
      <trkpt lat="36.64986" lon="28.09229">
        <ele>4.1</ele>
      </trkpt>
      <trkpt lat="36.6498" lon="28.09234">
        <ele>4</ele>
      </trkpt>
      <trkpt lat="36.64973" lon="28.09238">
        <ele>3.9</ele>
      </trkpt>
      <trkpt lat="36.64965" lon="28.09245">
        <ele>3.7</ele>
      </trkpt>
      <trkpt lat="36.64964" lon="28.09246">
        <ele>3.6</ele>
      </trkpt>
      <trkpt lat="36.64956" lon="28.09253">
        <ele>3.6</ele>
      </trkpt>
      <trkpt lat="36.64947" lon="28.0926">
        <ele>3.9</ele>
      </trkpt>
      <trkpt lat="36.6494" lon="28.09264">
        <ele>4.1</ele>
      </trkpt>
      <trkpt lat="36.64928" lon="28.09267">
        <ele>4</ele>
      </trkpt>
      <trkpt lat="36.64921" lon="28.09269">
        <ele>4</ele>
      </trkpt>
      <trkpt lat="36.6491" lon="28.0927">
        <ele>3.8</ele>
      </trkpt>
      <trkpt lat="36.64906" lon="28.09274">
        <ele>3.9</ele>
      </trkpt>
      <trkpt lat="36.64904" lon="28.09278">
        <ele>4</ele>
      </trkpt>
      <trkpt lat="36.649" lon="28.09291">
        <ele>4.4</ele>
      </trkpt>
      <trkpt lat="36.64894" lon="28.09298">
        <ele>4.3</ele>
      </trkpt>
      <trkpt lat="36.64894" lon="28.09292">
        <ele>4.2</ele>
      </trkpt>
      <trkpt lat="36.64878" lon="28.09313">
        <ele>3.9</ele>
      </trkpt>
      <trkpt lat="36.64866" lon="28.09327">
        <ele>3.3</ele>
      </trkpt>
      <trkpt lat="36.6485" lon="28.09341">
        <ele>2.8</ele>
      </trkpt>
      <trkpt lat="36.64833" lon="28.09355">
        <ele>2.8</ele>
      </trkpt>
      <trkpt lat="36.64829" lon="28.09359">
        <ele>3.1</ele>
      </trkpt>
      <trkpt lat="36.64824" lon="28.09362">
        <ele>3.2</ele>
      </trkpt>
      <trkpt lat="36.64814" lon="28.09371">
        <ele>3.6</ele>
      </trkpt>
      <trkpt lat="36.64804" lon="28.09379">
        <ele>3.8</ele>
      </trkpt>
      <trkpt lat="36.64786" lon="28.09394">
        <ele>4</ele>
      </trkpt>
      <trkpt lat="36.64766" lon="28.09409">
        <ele>3.7</ele>
      </trkpt>
      <trkpt lat="36.64758" lon="28.09413">
        <ele>3.4</ele>
      </trkpt>
      <trkpt lat="36.64742" lon="28.09422">
        <ele>3.2</ele>
      </trkpt>
      <trkpt lat="36.64737" lon="28.09426">
        <ele>3.2</ele>
      </trkpt>
      <trkpt lat="36.64717" lon="28.09436">
        <ele>3.3</ele>
      </trkpt>
      <trkpt lat="36.64703" lon="28.09441">
        <ele>3.3</ele>
      </trkpt>
      <trkpt lat="36.64687" lon="28.09449">
        <ele>3.2</ele>
      </trkpt>
      <trkpt lat="36.64673" lon="28.09457">
        <ele>3.1</ele>
      </trkpt>
      <trkpt lat="36.6466" lon="28.09473">
        <ele>3.2</ele>
      </trkpt>
      <trkpt lat="36.64641" lon="28.09496">
        <ele>3</ele>
      </trkpt>
      <trkpt lat="36.64619" lon="28.09515">
        <ele>3.2</ele>
      </trkpt>
      <trkpt lat="36.64602" lon="28.09526">
        <ele>3.3</ele>
      </trkpt>
      <trkpt lat="36.64582" lon="28.0954">
        <ele>3.4</ele>
      </trkpt>
      <trkpt lat="36.64566" lon="28.09546">
        <ele>3.5</ele>
      </trkpt>
      <trkpt lat="36.64545" lon="28.09558">
        <ele>3.8</ele>
      </trkpt>
      <trkpt lat="36.64527" lon="28.09566">
        <ele>3.9</ele>
      </trkpt>
      <trkpt lat="36.64509" lon="28.09574">
        <ele>3.9</ele>
      </trkpt>
      <trkpt lat="36.64492" lon="28.09578">
        <ele>3.7</ele>
      </trkpt>
      <trkpt lat="36.64492" lon="28.09578">
        <ele>3.7</ele>
      </trkpt>
      <trkpt lat="36.64477" lon="28.0958">
        <ele>3.6</ele>
      </trkpt>
      <trkpt lat="36.64477" lon="28.0958">
        <ele>3.6</ele>
      </trkpt>
      <trkpt lat="36.64477" lon="28.0958">
        <ele>3.6</ele>
      </trkpt>
      <trkpt lat="36.64477" lon="28.09578">
        <ele>3.5</ele>
      </trkpt>
      <trkpt lat="36.64466" lon="28.09569">
        <ele>3.2</ele>
      </trkpt>
      <trkpt lat="36.64448" lon="28.09558">
        <ele>2.6</ele>
      </trkpt>
      <trkpt lat="36.6443" lon="28.09547">
        <ele>2.2</ele>
      </trkpt>
      <trkpt lat="36.64405" lon="28.09538">
        <ele>2</ele>
      </trkpt>
      <trkpt lat="36.64386" lon="28.09538">
        <ele>2.1</ele>
      </trkpt>
      <trkpt lat="36.64372" lon="28.09541">
        <ele>2.3</ele>
      </trkpt>
      <trkpt lat="36.64362" lon="28.09545">
        <ele>2.4</ele>
      </trkpt>
      <trkpt lat="36.64354" lon="28.0955">
        <ele>2.6</ele>
      </trkpt>
      <trkpt lat="36.6435" lon="28.0955">
        <ele>2.7</ele>
      </trkpt>
      <trkpt lat="36.64345" lon="28.09553">
        <ele>2.8</ele>
      </trkpt>
      <trkpt lat="36.64336" lon="28.09556">
        <ele>3</ele>
      </trkpt>
      <trkpt lat="36.64328" lon="28.09557">
        <ele>4</ele>
      </trkpt>
      <trkpt lat="36.64317" lon="28.09564">
        <ele>4</ele>
      </trkpt>
      <trkpt lat="36.64318" lon="28.09562">
        <ele>4</ele>
      </trkpt>
      <trkpt lat="36.64318" lon="28.09562">
        <ele>4</ele>
      </trkpt>
      <trkpt lat="36.64316" lon="28.0957">
        <ele>4</ele>
      </trkpt>
      <trkpt lat="36.64316" lon="28.0957">
        <ele>4</ele>
      </trkpt>
      <trkpt lat="36.64328" lon="28.09581">
        <ele>4</ele>
      </trkpt>
      <trkpt lat="36.64336" lon="28.09598">
        <ele>4.9</ele>
      </trkpt>
      <trkpt lat="36.64346" lon="28.09608">
        <ele>5.4</ele>
      </trkpt>
      <trkpt lat="36.64351" lon="28.0962">
        <ele>6.2</ele>
      </trkpt>
      <trkpt lat="36.64355" lon="28.09636">
        <ele>7.2</ele>
      </trkpt>
      <trkpt lat="36.64365" lon="28.09644">
        <ele>7.8</ele>
      </trkpt>
      <trkpt lat="36.64365" lon="28.09644">
        <ele>7.8</ele>
      </trkpt>
      <trkpt lat="36.64373" lon="28.09664">
        <ele>9.3</ele>
      </trkpt>
      <trkpt lat="36.64383" lon="28.09678">
        <ele>10.3</ele>
      </trkpt>
      <trkpt lat="36.6439" lon="28.09691">
        <ele>11.2</ele>
      </trkpt>
      <trkpt lat="36.64395" lon="28.09706">
        <ele>12.2</ele>
      </trkpt>
      <trkpt lat="36.64394" lon="28.0971">
        <ele>12.4</ele>
      </trkpt>
      <trkpt lat="36.64391" lon="28.09727">
        <ele>13.6</ele>
      </trkpt>
      <trkpt lat="36.64388" lon="28.0975">
        <ele>15</ele>
      </trkpt>
      <trkpt lat="36.64386" lon="28.09766">
        <ele>16.6</ele>
      </trkpt>
      <trkpt lat="36.6438" lon="28.09782">
        <ele>18.3</ele>
      </trkpt>
      <trkpt lat="36.64374" lon="28.09802">
        <ele>20.3</ele>
      </trkpt>
      <trkpt lat="36.64371" lon="28.09811">
        <ele>21.3</ele>
      </trkpt>
      <trkpt lat="36.64373" lon="28.09809">
        <ele>21</ele>
      </trkpt>
      <trkpt lat="36.64372" lon="28.0981">
        <ele>21.2</ele>
      </trkpt>
      <trkpt lat="36.64368" lon="28.09833">
        <ele>23.6</ele>
      </trkpt>
      <trkpt lat="36.64368" lon="28.09834">
        <ele>23.7</ele>
      </trkpt>
      <trkpt lat="36.64368" lon="28.09835">
        <ele>24</ele>
      </trkpt>
      <trkpt lat="36.64366" lon="28.09836">
        <ele>24.2</ele>
      </trkpt>
      <trkpt lat="36.64353" lon="28.09836">
        <ele>24.3</ele>
      </trkpt>
      <trkpt lat="36.64341" lon="28.09832">
        <ele>23.7</ele>
      </trkpt>
      <trkpt lat="36.64347" lon="28.0984">
        <ele>25</ele>
      </trkpt>
      <trkpt lat="36.64347" lon="28.09845">
        <ele>26</ele>
      </trkpt>
      <trkpt lat="36.64347" lon="28.0985">
        <ele>27.1</ele>
      </trkpt>
      <trkpt lat="36.64348" lon="28.09856">
        <ele>28.3</ele>
      </trkpt>
      <trkpt lat="36.64348" lon="28.09864">
        <ele>29.7</ele>
      </trkpt>
      <trkpt lat="36.64348" lon="28.09872">
        <ele>31.3</ele>
      </trkpt>
      <trkpt lat="36.64349" lon="28.0988">
        <ele>32.8</ele>
      </trkpt>
      <trkpt lat="36.64351" lon="28.09887">
        <ele>34</ele>
      </trkpt>
      <trkpt lat="36.64351" lon="28.09893">
        <ele>35.2</ele>
      </trkpt>
      <trkpt lat="36.64351" lon="28.099">
        <ele>36.5</ele>
      </trkpt>
      <trkpt lat="36.6435" lon="28.09905">
        <ele>37.6</ele>
      </trkpt>
      <trkpt lat="36.64349" lon="28.09912">
        <ele>38.9</ele>
      </trkpt>
      <trkpt lat="36.6435" lon="28.09916">
        <ele>39.6</ele>
      </trkpt>
      <trkpt lat="36.64348" lon="28.09923">
        <ele>41.5</ele>
      </trkpt>
      <trkpt lat="36.64343" lon="28.09929">
        <ele>43.3</ele>
      </trkpt>
      <trkpt lat="36.6434" lon="28.09933">
        <ele>44.5</ele>
      </trkpt>
      <trkpt lat="36.64338" lon="28.09937">
        <ele>45.8</ele>
      </trkpt>
      <trkpt lat="36.64335" lon="28.09945">
        <ele>48</ele>
      </trkpt>
      <trkpt lat="36.64329" lon="28.09949">
        <ele>49.6</ele>
      </trkpt>
      <trkpt lat="36.64322" lon="28.09954">
        <ele>51.5</ele>
      </trkpt>
      <trkpt lat="36.64313" lon="28.09958">
        <ele>53.2</ele>
      </trkpt>
      <trkpt lat="36.64304" lon="28.0996">
        <ele>54.5</ele>
      </trkpt>
      <trkpt lat="36.64296" lon="28.09963">
        <ele>55.7</ele>
      </trkpt>
      <trkpt lat="36.6429" lon="28.09965">
        <ele>56.6</ele>
      </trkpt>
      <trkpt lat="36.64284" lon="28.09965">
        <ele>57</ele>
      </trkpt>
      <trkpt lat="36.64281" lon="28.09966">
        <ele>57.4</ele>
      </trkpt>
      <trkpt lat="36.64283" lon="28.09965">
        <ele>56.9</ele>
      </trkpt>
      <trkpt lat="36.64282" lon="28.09968">
        <ele>57.8</ele>
      </trkpt>
      <trkpt lat="36.64278" lon="28.09969">
        <ele>58.4</ele>
      </trkpt>
      <trkpt lat="36.64278" lon="28.0997">
        <ele>58.4</ele>
      </trkpt>
      <trkpt lat="36.64279" lon="28.0997">
        <ele>58.6</ele>
      </trkpt>
      <trkpt lat="36.64275" lon="28.09975">
        <ele>59.8</ele>
      </trkpt>
      <trkpt lat="36.64266" lon="28.09976">
        <ele>60.7</ele>
      </trkpt>
      <trkpt lat="36.64264" lon="28.09974">
        <ele>60.4</ele>
      </trkpt>
      <trkpt lat="36.64254" lon="28.09973">
        <ele>60.5</ele>
      </trkpt>
      <trkpt lat="36.6425" lon="28.09975">
        <ele>61.4</ele>
      </trkpt>
      <trkpt lat="36.64244" lon="28.09977">
        <ele>62.3</ele>
      </trkpt>
      <trkpt lat="36.64237" lon="28.09978">
        <ele>62.8</ele>
      </trkpt>
      <trkpt lat="36.64235" lon="28.09977">
        <ele>62.7</ele>
      </trkpt>
      <trkpt lat="36.64231" lon="28.0997">
        <ele>61.4</ele>
      </trkpt>
      <trkpt lat="36.6423" lon="28.09971">
        <ele>61.7</ele>
      </trkpt>
      <trkpt lat="36.64224" lon="28.09975">
        <ele>62.9</ele>
      </trkpt>
      <trkpt lat="36.6422" lon="28.09974">
        <ele>63.1</ele>
      </trkpt>
      <trkpt lat="36.64219" lon="28.09975">
        <ele>63.3</ele>
      </trkpt>
      <trkpt lat="36.64214" lon="28.09981">
        <ele>64.9</ele>
      </trkpt>
      <trkpt lat="36.64206" lon="28.09981">
        <ele>65.3</ele>
      </trkpt>
      <trkpt lat="36.64199" lon="28.09984">
        <ele>66.4</ele>
      </trkpt>
      <trkpt lat="36.64188" lon="28.09997">
        <ele>69.4</ele>
      </trkpt>
      <trkpt lat="36.64187" lon="28.09998">
        <ele>69.7</ele>
      </trkpt>
      <trkpt lat="36.64183" lon="28.10001">
        <ele>70.4</ele>
      </trkpt>
      <trkpt lat="36.64178" lon="28.10006">
        <ele>71.5</ele>
      </trkpt>
      <trkpt lat="36.64173" lon="28.10005">
        <ele>71.7</ele>
      </trkpt>
      <trkpt lat="36.64162" lon="28.10009">
        <ele>73.8</ele>
      </trkpt>
      <trkpt lat="36.64159" lon="28.10013">
        <ele>75.4</ele>
      </trkpt>
      <trkpt lat="36.64159" lon="28.10014">
        <ele>75.6</ele>
      </trkpt>
      <trkpt lat="36.64151" lon="28.10017">
        <ele>78.2</ele>
      </trkpt>
      <trkpt lat="36.6414" lon="28.10016">
        <ele>81.4</ele>
      </trkpt>
      <trkpt lat="36.64134" lon="28.10016">
        <ele>82.9</ele>
      </trkpt>
      <trkpt lat="36.64132" lon="28.10014">
        <ele>83.2</ele>
      </trkpt>
      <trkpt lat="36.64121" lon="28.10004">
        <ele>84.5</ele>
      </trkpt>
      <trkpt lat="36.64109" lon="28.10009">
        <ele>88.7</ele>
      </trkpt>
      <trkpt lat="36.64103" lon="28.10008">
        <ele>90.2</ele>
      </trkpt>
      <trkpt lat="36.64096" lon="28.10009">
        <ele>92.4</ele>
      </trkpt>
      <trkpt lat="36.64091" lon="28.10011">
        <ele>94.1</ele>
      </trkpt>
      <trkpt lat="36.64084" lon="28.10007">
        <ele>95.5</ele>
      </trkpt>
      <trkpt lat="36.64081" lon="28.10002">
        <ele>95.6</ele>
      </trkpt>
      <trkpt lat="36.64079" lon="28.10002">
        <ele>96.5</ele>
      </trkpt>
      <trkpt lat="36.64071" lon="28.1">
        <ele>100</ele>
      </trkpt>
      <trkpt lat="36.64065" lon="28.09994">
        <ele>101.6</ele>
      </trkpt>
      <trkpt lat="36.64064" lon="28.09993">
        <ele>101.8</ele>
      </trkpt>
      <trkpt lat="36.64052" lon="28.09989">
        <ele>106.3</ele>
      </trkpt>
      <trkpt lat="36.64047" lon="28.09982">
        <ele>107.5</ele>
      </trkpt>
      <trkpt lat="36.64044" lon="28.09979">
        <ele>108</ele>
      </trkpt>
      <trkpt lat="36.64041" lon="28.09974">
        <ele>108.5</ele>
      </trkpt>
      <trkpt lat="36.64038" lon="28.09971">
        <ele>109.2</ele>
      </trkpt>
      <trkpt lat="36.64034" lon="28.09967">
        <ele>110.2</ele>
      </trkpt>
      <trkpt lat="36.64028" lon="28.09957">
        <ele>110.7</ele>
      </trkpt>
      <trkpt lat="36.64022" lon="28.09954">
        <ele>112.3</ele>
      </trkpt>
      <trkpt lat="36.64022" lon="28.09954">
        <ele>112.5</ele>
      </trkpt>
      <trkpt lat="36.64013" lon="28.09947">
        <ele>114.5</ele>
      </trkpt>
      <trkpt lat="36.64003" lon="28.0994">
        <ele>117.5</ele>
      </trkpt>
      <trkpt lat="36.63995" lon="28.09936">
        <ele>120.2</ele>
      </trkpt>
      <trkpt lat="36.6399" lon="28.09928">
        <ele>121.1</ele>
      </trkpt>
      <trkpt lat="36.63987" lon="28.09926">
        <ele>122.7</ele>
      </trkpt>
      <trkpt lat="36.63985" lon="28.09925">
        <ele>123.5</ele>
      </trkpt>
      <trkpt lat="36.63979" lon="28.09914">
        <ele>123.4</ele>
      </trkpt>
      <trkpt lat="36.63978" lon="28.09914">
        <ele>124.4</ele>
      </trkpt>
      <trkpt lat="36.63977" lon="28.09915">
        <ele>125.5</ele>
      </trkpt>
      <trkpt lat="36.63972" lon="28.09913">
        <ele>127.3</ele>
      </trkpt>
      <trkpt lat="36.6397" lon="28.09907">
        <ele>126.3</ele>
      </trkpt>
      <trkpt lat="36.63967" lon="28.09904">
        <ele>127.1</ele>
      </trkpt>
      <trkpt lat="36.63965" lon="28.099">
        <ele>126.9</ele>
      </trkpt>
      <trkpt lat="36.63958" lon="28.09886">
        <ele>125.8</ele>
      </trkpt>
      <trkpt lat="36.63946" lon="28.09878">
        <ele>128.5</ele>
      </trkpt>
      <trkpt lat="36.63943" lon="28.09871">
        <ele>128.1</ele>
      </trkpt>
      <trkpt lat="36.6394" lon="28.0987">
        <ele>128.7</ele>
      </trkpt>
      <trkpt lat="36.63936" lon="28.09868">
        <ele>130.3</ele>
      </trkpt>
      <trkpt lat="36.63934" lon="28.09867">
        <ele>130.5</ele>
      </trkpt>
      <trkpt lat="36.63925" lon="28.09861">
        <ele>133</ele>
      </trkpt>
      <trkpt lat="36.63913" lon="28.09859">
        <ele>137.6</ele>
      </trkpt>
      <trkpt lat="36.63912" lon="28.09858">
        <ele>137.9</ele>
      </trkpt>
      <trkpt lat="36.63899" lon="28.09852">
        <ele>141.2</ele>
      </trkpt>
      <trkpt lat="36.63888" lon="28.09843">
        <ele>142.5</ele>
      </trkpt>
      <trkpt lat="36.63879" lon="28.09832">
        <ele>142.1</ele>
      </trkpt>
      <trkpt lat="36.63869" lon="28.09821">
        <ele>142.3</ele>
      </trkpt>
      <trkpt lat="36.63857" lon="28.0981">
        <ele>143.2</ele>
      </trkpt>
      <trkpt lat="36.63847" lon="28.09809">
        <ele>147.4</ele>
      </trkpt>
      <trkpt lat="36.63834" lon="28.09806">
        <ele>151.5</ele>
      </trkpt>
      <trkpt lat="36.63824" lon="28.09797">
        <ele>152.6</ele>
      </trkpt>
      <trkpt lat="36.63819" lon="28.09789">
        <ele>152</ele>
      </trkpt>
      <trkpt lat="36.63811" lon="28.09789">
        <ele>155.7</ele>
      </trkpt>
      <trkpt lat="36.63803" lon="28.09788">
        <ele>159</ele>
      </trkpt>
      <trkpt lat="36.63801" lon="28.09786">
        <ele>159.4</ele>
      </trkpt>
      <trkpt lat="36.63802" lon="28.09785">
        <ele>158.3</ele>
      </trkpt>
      <trkpt lat="36.63795" lon="28.09779">
        <ele>159.1</ele>
      </trkpt>
      <trkpt lat="36.63791" lon="28.09778">
        <ele>161</ele>
      </trkpt>
      <trkpt lat="36.6379" lon="28.09778">
        <ele>161.4</ele>
      </trkpt>
      <trkpt lat="36.63782" lon="28.09778">
        <ele>165.3</ele>
      </trkpt>
      <trkpt lat="36.6378" lon="28.09775">
        <ele>165.3</ele>
      </trkpt>
      <trkpt lat="36.63777" lon="28.09769">
        <ele>164.3</ele>
      </trkpt>
      <trkpt lat="36.63767" lon="28.09762">
        <ele>166.3</ele>
      </trkpt>
      <trkpt lat="36.63753" lon="28.09752">
        <ele>169.2</ele>
      </trkpt>
      <trkpt lat="36.63744" lon="28.0974">
        <ele>169.1</ele>
      </trkpt>
      <trkpt lat="36.63732" lon="28.09731">
        <ele>169.9</ele>
      </trkpt>
      <trkpt lat="36.63728" lon="28.09729">
        <ele>170.8</ele>
      </trkpt>
      <trkpt lat="36.63723" lon="28.09725">
        <ele>170.9</ele>
      </trkpt>
      <trkpt lat="36.6372" lon="28.09725">
        <ele>171.9</ele>
      </trkpt>
      <trkpt lat="36.63718" lon="28.09725">
        <ele>172.5</ele>
      </trkpt>
      <trkpt lat="36.63717" lon="28.09724">
        <ele>172.7</ele>
      </trkpt>
      <trkpt lat="36.63715" lon="28.09723">
        <ele>172.9</ele>
      </trkpt>
      <trkpt lat="36.63706" lon="28.09717">
        <ele>173.9</ele>
      </trkpt>
      <trkpt lat="36.637" lon="28.09717">
        <ele>175.7</ele>
      </trkpt>
      <trkpt lat="36.63693" lon="28.09711">
        <ele>176.1</ele>
      </trkpt>
      <trkpt lat="36.63692" lon="28.09711">
        <ele>176.3</ele>
      </trkpt>
      <trkpt lat="36.63684" lon="28.09708">
        <ele>178</ele>
      </trkpt>
      <trkpt lat="36.63674" lon="28.09709">
        <ele>182.1</ele>
      </trkpt>
      <trkpt lat="36.63663" lon="28.09708">
        <ele>184.1</ele>
      </trkpt>
      <trkpt lat="36.6366" lon="28.09708">
        <ele>184</ele>
      </trkpt>
      <trkpt lat="36.6366" lon="28.09707">
        <ele>183.8</ele>
      </trkpt>
      <trkpt lat="36.63653" lon="28.09711">
        <ele>185.2</ele>
      </trkpt>
      <trkpt lat="36.63646" lon="28.09708">
        <ele>184.4</ele>
      </trkpt>
      <trkpt lat="36.63635" lon="28.09706">
        <ele>184</ele>
      </trkpt>
      <trkpt lat="36.63631" lon="28.09706">
        <ele>183.9</ele>
      </trkpt>
      <trkpt lat="36.63629" lon="28.09705">
        <ele>183.8</ele>
      </trkpt>
      <trkpt lat="36.63618" lon="28.09708">
        <ele>184.9</ele>
      </trkpt>
      <trkpt lat="36.63615" lon="28.09707">
        <ele>184.6</ele>
      </trkpt>
      <trkpt lat="36.63609" lon="28.09709">
        <ele>185.4</ele>
      </trkpt>
      <trkpt lat="36.63606" lon="28.09713">
        <ele>187.1</ele>
      </trkpt>
      <trkpt lat="36.63601" lon="28.0972">
        <ele>190</ele>
      </trkpt>
      <trkpt lat="36.63597" lon="28.09727">
        <ele>192.7</ele>
      </trkpt>
      <trkpt lat="36.63596" lon="28.0973">
        <ele>194.2</ele>
      </trkpt>
      <trkpt lat="36.63594" lon="28.09739">
        <ele>197.5</ele>
      </trkpt>
      <trkpt lat="36.63591" lon="28.09748">
        <ele>201</ele>
      </trkpt>
      <trkpt lat="36.6359" lon="28.0975">
        <ele>201.7</ele>
      </trkpt>
      <trkpt lat="36.63591" lon="28.09752">
        <ele>202.6</ele>
      </trkpt>
      <trkpt lat="36.63586" lon="28.09758">
        <ele>205.4</ele>
      </trkpt>
      <trkpt lat="36.63582" lon="28.09767">
        <ele>209.1</ele>
      </trkpt>
      <trkpt lat="36.6358" lon="28.0977">
        <ele>210.3</ele>
      </trkpt>
      <trkpt lat="36.63574" lon="28.09775">
        <ele>212.5</ele>
      </trkpt>
      <trkpt lat="36.63569" lon="28.09775">
        <ele>212.5</ele>
      </trkpt>
      <trkpt lat="36.63559" lon="28.09779">
        <ele>214.5</ele>
      </trkpt>
      <trkpt lat="36.63558" lon="28.09779">
        <ele>214.7</ele>
      </trkpt>
      <trkpt lat="36.63554" lon="28.09782">
        <ele>216</ele>
      </trkpt>
      <trkpt lat="36.63552" lon="28.09784">
        <ele>216.7</ele>
      </trkpt>
      <trkpt lat="36.63548" lon="28.09789">
        <ele>218.9</ele>
      </trkpt>
      <trkpt lat="36.63542" lon="28.09795">
        <ele>221.3</ele>
      </trkpt>
      <trkpt lat="36.63543" lon="28.09798">
        <ele>222.2</ele>
      </trkpt>
      <trkpt lat="36.63543" lon="28.09805">
        <ele>225.2</ele>
      </trkpt>
      <trkpt lat="36.63537" lon="28.09804">
        <ele>224.8</ele>
      </trkpt>
      <trkpt lat="36.63535" lon="28.09803">
        <ele>224.4</ele>
      </trkpt>
      <trkpt lat="36.63538" lon="28.09836">
        <ele>236.5</ele>
      </trkpt>
      <trkpt lat="36.63538" lon="28.09836">
        <ele>236.5</ele>
      </trkpt>
      <trkpt lat="36.63538" lon="28.09836">
        <ele>236.5</ele>
      </trkpt>
      <trkpt lat="36.63538" lon="28.09836">
        <ele>236.5</ele>
      </trkpt>
      <trkpt lat="36.63538" lon="28.09836">
        <ele>236.5</ele>
      </trkpt>
      <trkpt lat="36.63536" lon="28.09837">
        <ele>236.6</ele>
      </trkpt>
      <trkpt lat="36.63526" lon="28.0984">
        <ele>237.1</ele>
      </trkpt>
      <trkpt lat="36.63526" lon="28.0984">
        <ele>237.1</ele>
      </trkpt>
      <trkpt lat="36.63519" lon="28.09841">
        <ele>237.1</ele>
      </trkpt>
      <trkpt lat="36.63508" lon="28.09842">
        <ele>237.1</ele>
      </trkpt>
      <trkpt lat="36.63505" lon="28.09842">
        <ele>237.1</ele>
      </trkpt>
      <trkpt lat="36.63505" lon="28.09842">
        <ele>237.1</ele>
      </trkpt>
      <trkpt lat="36.63493" lon="28.09845">
        <ele>238.4</ele>
      </trkpt>
      <trkpt lat="36.63488" lon="28.09847">
        <ele>239.3</ele>
      </trkpt>
      <trkpt lat="36.63484" lon="28.0985">
        <ele>240.1</ele>
      </trkpt>
      <trkpt lat="36.63484" lon="28.0985">
        <ele>240.1</ele>
      </trkpt>
      <trkpt lat="36.63484" lon="28.0985">
        <ele>240.2</ele>
      </trkpt>
      <trkpt lat="36.63483" lon="28.0985">
        <ele>240.3</ele>
      </trkpt>
      <trkpt lat="36.63476" lon="28.09859">
        <ele>242</ele>
      </trkpt>
      <trkpt lat="36.63473" lon="28.09886">
        <ele>244.2</ele>
      </trkpt>
      <trkpt lat="36.63484" lon="28.09929">
        <ele>246.2</ele>
      </trkpt>
      <trkpt lat="36.63484" lon="28.09939">
        <ele>246.2</ele>
      </trkpt>
      <trkpt lat="36.63483" lon="28.09943">
        <ele>246.2</ele>
      </trkpt>
      <trkpt lat="36.63476" lon="28.09949">
        <ele>246.1</ele>
      </trkpt>
      <trkpt lat="36.63468" lon="28.09952">
        <ele>246</ele>
      </trkpt>
      <trkpt lat="36.63461" lon="28.09952">
        <ele>245.9</ele>
      </trkpt>
      <trkpt lat="36.63455" lon="28.09952">
        <ele>245.8</ele>
      </trkpt>
      <trkpt lat="36.63452" lon="28.09953">
        <ele>245.7</ele>
      </trkpt>
      <trkpt lat="36.63447" lon="28.09957">
        <ele>245.6</ele>
      </trkpt>
      <trkpt lat="36.63439" lon="28.09959">
        <ele>245.4</ele>
      </trkpt>
      <trkpt lat="36.63432" lon="28.0996">
        <ele>245.2</ele>
      </trkpt>
      <trkpt lat="36.63424" lon="28.09959">
        <ele>245.1</ele>
      </trkpt>
      <trkpt lat="36.63422" lon="28.0996">
        <ele>245</ele>
      </trkpt>
      <trkpt lat="36.63419" lon="28.09961">
        <ele>244.9</ele>
      </trkpt>
      <trkpt lat="36.63411" lon="28.0996">
        <ele>245.5</ele>
      </trkpt>
      <trkpt lat="36.63406" lon="28.0996">
        <ele>245.9</ele>
      </trkpt>
      <trkpt lat="36.634" lon="28.09959">
        <ele>246.4</ele>
      </trkpt>
      <trkpt lat="36.63391" lon="28.09963">
        <ele>247</ele>
      </trkpt>
      <trkpt lat="36.63391" lon="28.09964">
        <ele>247</ele>
      </trkpt>
      <trkpt lat="36.63386" lon="28.09971">
        <ele>246.9</ele>
      </trkpt>
      <trkpt lat="36.63382" lon="28.09973">
        <ele>247.1</ele>
      </trkpt>
      <trkpt lat="36.63376" lon="28.09979">
        <ele>247.1</ele>
      </trkpt>
      <trkpt lat="36.63373" lon="28.09981">
        <ele>247.1</ele>
      </trkpt>
      <trkpt lat="36.63376" lon="28.09982">
        <ele>246.8</ele>
      </trkpt>
      <trkpt lat="36.63373" lon="28.09984">
        <ele>246.9</ele>
      </trkpt>
      <trkpt lat="36.63365" lon="28.09991">
        <ele>246.9</ele>
      </trkpt>
      <trkpt lat="36.63363" lon="28.09991">
        <ele>247.1</ele>
      </trkpt>
      <trkpt lat="36.63353" lon="28.09994">
        <ele>247.3</ele>
      </trkpt>
      <trkpt lat="36.63346" lon="28.09994">
        <ele>247.8</ele>
      </trkpt>
      <trkpt lat="36.6334" lon="28.09994">
        <ele>248.3</ele>
      </trkpt>
      <trkpt lat="36.63335" lon="28.09996">
        <ele>248.4</ele>
      </trkpt>
      <trkpt lat="36.63329" lon="28.10003">
        <ele>248.1</ele>
      </trkpt>
      <trkpt lat="36.63327" lon="28.10006">
        <ele>248.3</ele>
      </trkpt>
      <trkpt lat="36.63324" lon="28.10014">
        <ele>248.6</ele>
      </trkpt>
      <trkpt lat="36.63322" lon="28.10014">
        <ele>248.6</ele>
      </trkpt>
      <trkpt lat="36.63321" lon="28.10018">
        <ele>248.7</ele>
      </trkpt>
      <trkpt lat="36.63322" lon="28.10018">
        <ele>248.7</ele>
      </trkpt>
      <trkpt lat="36.63324" lon="28.10018">
        <ele>248.7</ele>
      </trkpt>
      <trkpt lat="36.63323" lon="28.10021">
        <ele>248.8</ele>
      </trkpt>
      <trkpt lat="36.63322" lon="28.10021">
        <ele>248.8</ele>
      </trkpt>
      <trkpt lat="36.63323" lon="28.10032">
        <ele>249.2</ele>
      </trkpt>
      <trkpt lat="36.63322" lon="28.10034">
        <ele>249.3</ele>
      </trkpt>
      <trkpt lat="36.63321" lon="28.10036">
        <ele>249.3</ele>
      </trkpt>
      <trkpt lat="36.6332" lon="28.10038">
        <ele>249.4</ele>
      </trkpt>
      <trkpt lat="36.63321" lon="28.10036">
        <ele>249.3</ele>
      </trkpt>
      <trkpt lat="36.63321" lon="28.10038">
        <ele>249.4</ele>
      </trkpt>
      <trkpt lat="36.63319" lon="28.10039">
        <ele>249.4</ele>
      </trkpt>
      <trkpt lat="36.63321" lon="28.10041">
        <ele>249.5</ele>
      </trkpt>
      <trkpt lat="36.6332" lon="28.10044">
        <ele>249.6</ele>
      </trkpt>
      <trkpt lat="36.6332" lon="28.10046">
        <ele>249.6</ele>
      </trkpt>
      <trkpt lat="36.63317" lon="28.10046">
        <ele>249.6</ele>
      </trkpt>
      <trkpt lat="36.63315" lon="28.10044">
        <ele>249.6</ele>
      </trkpt>
      <trkpt lat="36.63313" lon="28.10045">
        <ele>249.6</ele>
      </trkpt>
      <trkpt lat="36.63312" lon="28.10046">
        <ele>249.6</ele>
      </trkpt>
      <trkpt lat="36.63308" lon="28.10048">
        <ele>249.7</ele>
      </trkpt>
      <trkpt lat="36.63311" lon="28.10049">
        <ele>249.7</ele>
      </trkpt>
      <trkpt lat="36.63314" lon="28.10048">
        <ele>249.7</ele>
      </trkpt>
      <trkpt lat="36.63312" lon="28.10054">
        <ele>249.9</ele>
      </trkpt>
      <trkpt lat="36.63309" lon="28.10056">
        <ele>249.9</ele>
      </trkpt>
      <trkpt lat="36.63309" lon="28.10054">
        <ele>249.8</ele>
      </trkpt>
      <trkpt lat="36.63308" lon="28.10058">
        <ele>250</ele>
      </trkpt>
      <trkpt lat="36.63305" lon="28.10064">
        <ele>250.1</ele>
      </trkpt>
      <trkpt lat="36.63303" lon="28.1007">
        <ele>250.3</ele>
      </trkpt>
      <trkpt lat="36.63301" lon="28.10073">
        <ele>250.3</ele>
      </trkpt>
      <trkpt lat="36.633" lon="28.10078">
        <ele>250.5</ele>
      </trkpt>
      <trkpt lat="36.633" lon="28.10084">
        <ele>250.7</ele>
      </trkpt>
      <trkpt lat="36.63299" lon="28.10089">
        <ele>251</ele>
      </trkpt>
      <trkpt lat="36.63298" lon="28.1009">
        <ele>251.1</ele>
      </trkpt>
      <trkpt lat="36.63295" lon="28.10095">
        <ele>251.4</ele>
      </trkpt>
      <trkpt lat="36.63291" lon="28.10103">
        <ele>251.9</ele>
      </trkpt>
      <trkpt lat="36.63287" lon="28.10108">
        <ele>252.1</ele>
      </trkpt>
      <trkpt lat="36.63284" lon="28.1011">
        <ele>252.2</ele>
      </trkpt>
      <trkpt lat="36.63283" lon="28.10112">
        <ele>252.3</ele>
      </trkpt>
      <trkpt lat="36.6328" lon="28.10116">
        <ele>252.5</ele>
      </trkpt>
      <trkpt lat="36.63278" lon="28.10121">
        <ele>252.7</ele>
      </trkpt>
      <trkpt lat="36.63276" lon="28.10122">
        <ele>252.8</ele>
      </trkpt>
      <trkpt lat="36.63269" lon="28.10125">
        <ele>252.7</ele>
      </trkpt>
      <trkpt lat="36.63265" lon="28.10126">
        <ele>252.6</ele>
      </trkpt>
      <trkpt lat="36.63262" lon="28.10126">
        <ele>252.5</ele>
      </trkpt>
      <trkpt lat="36.6326" lon="28.10124">
        <ele>252.3</ele>
      </trkpt>
      <trkpt lat="36.63257" lon="28.1012">
        <ele>252</ele>
      </trkpt>
      <trkpt lat="36.63252" lon="28.10116">
        <ele>251.6</ele>
      </trkpt>
      <trkpt lat="36.63246" lon="28.10114">
        <ele>251.8</ele>
      </trkpt>
      <trkpt lat="36.6324" lon="28.10118">
        <ele>252.4</ele>
      </trkpt>
      <trkpt lat="36.63239" lon="28.10118">
        <ele>252.5</ele>
      </trkpt>
      <trkpt lat="36.6324" lon="28.10119">
        <ele>252.5</ele>
      </trkpt>
      <trkpt lat="36.63239" lon="28.10118">
        <ele>252.5</ele>
      </trkpt>
      <trkpt lat="36.63233" lon="28.10124">
        <ele>253.1</ele>
      </trkpt>
      <trkpt lat="36.63229" lon="28.10125">
        <ele>253.4</ele>
      </trkpt>
      <trkpt lat="36.63225" lon="28.10128">
        <ele>253.7</ele>
      </trkpt>
      <trkpt lat="36.63218" lon="28.10132">
        <ele>254.2</ele>
      </trkpt>
      <trkpt lat="36.63214" lon="28.10135">
        <ele>254.5</ele>
      </trkpt>
      <trkpt lat="36.63209" lon="28.10141">
        <ele>254.8</ele>
      </trkpt>
      <trkpt lat="36.63203" lon="28.10146">
        <ele>255.1</ele>
      </trkpt>
      <trkpt lat="36.63199" lon="28.10148">
        <ele>255.3</ele>
      </trkpt>
      <trkpt lat="36.63196" lon="28.10153">
        <ele>255.4</ele>
      </trkpt>
      <trkpt lat="36.63193" lon="28.10155">
        <ele>255.5</ele>
      </trkpt>
      <trkpt lat="36.63193" lon="28.10155">
        <ele>255.5</ele>
      </trkpt>
      <trkpt lat="36.63189" lon="28.10156">
        <ele>255.6</ele>
      </trkpt>
      <trkpt lat="36.63186" lon="28.10155">
        <ele>255.7</ele>
      </trkpt>
      <trkpt lat="36.63185" lon="28.10155">
        <ele>255.8</ele>
      </trkpt>
      <trkpt lat="36.63184" lon="28.10157">
        <ele>255.8</ele>
      </trkpt>
      <trkpt lat="36.63182" lon="28.10157">
        <ele>255.8</ele>
      </trkpt>
      <trkpt lat="36.6318" lon="28.10157">
        <ele>255.9</ele>
      </trkpt>
      <trkpt lat="36.63178" lon="28.10158">
        <ele>255.9</ele>
      </trkpt>
      <trkpt lat="36.63176" lon="28.10155">
        <ele>256.1</ele>
      </trkpt>
      <trkpt lat="36.63174" lon="28.10153">
        <ele>256.2</ele>
      </trkpt>
      <trkpt lat="36.6317" lon="28.10151">
        <ele>256.4</ele>
      </trkpt>
      <trkpt lat="36.63168" lon="28.10152">
        <ele>256.5</ele>
      </trkpt>
      <trkpt lat="36.63169" lon="28.10151">
        <ele>256.5</ele>
      </trkpt>
      <trkpt lat="36.63169" lon="28.10151">
        <ele>256.5</ele>
      </trkpt>
      <trkpt lat="36.63167" lon="28.10151">
        <ele>256.6</ele>
      </trkpt>
      <trkpt lat="36.63165" lon="28.10151">
        <ele>256.5</ele>
      </trkpt>
      <trkpt lat="36.63161" lon="28.10149">
        <ele>256.1</ele>
      </trkpt>
      <trkpt lat="36.63158" lon="28.1015">
        <ele>255.9</ele>
      </trkpt>
      <trkpt lat="36.63157" lon="28.10149">
        <ele>255.8</ele>
      </trkpt>
      <trkpt lat="36.63156" lon="28.10148">
        <ele>255.7</ele>
      </trkpt>
      <trkpt lat="36.63155" lon="28.10148">
        <ele>255.7</ele>
      </trkpt>
      <trkpt lat="36.63155" lon="28.10148">
        <ele>255.7</ele>
      </trkpt>
      <trkpt lat="36.63153" lon="28.10148">
        <ele>255.5</ele>
      </trkpt>
      <trkpt lat="36.63154" lon="28.10147">
        <ele>255.6</ele>
      </trkpt>
      <trkpt lat="36.63153" lon="28.10148">
        <ele>255.5</ele>
      </trkpt>
      <trkpt lat="36.63151" lon="28.10148">
        <ele>255.4</ele>
      </trkpt>
      <trkpt lat="36.63149" lon="28.10146">
        <ele>255.2</ele>
      </trkpt>
      <trkpt lat="36.63147" lon="28.10146">
        <ele>255.1</ele>
      </trkpt>
      <trkpt lat="36.63143" lon="28.10146">
        <ele>254.7</ele>
      </trkpt>
      <trkpt lat="36.63136" lon="28.10145">
        <ele>254.2</ele>
      </trkpt>
      <trkpt lat="36.63133" lon="28.10145">
        <ele>254</ele>
      </trkpt>
      <trkpt lat="36.63132" lon="28.10145">
        <ele>253.9</ele>
      </trkpt>
      <trkpt lat="36.63126" lon="28.10147">
        <ele>253.3</ele>
      </trkpt>
      <trkpt lat="36.63121" lon="28.10145">
        <ele>252.9</ele>
      </trkpt>
      <trkpt lat="36.63119" lon="28.10145">
        <ele>252.8</ele>
      </trkpt>
      <trkpt lat="36.63119" lon="28.10145">
        <ele>252.8</ele>
      </trkpt>
      <trkpt lat="36.6312" lon="28.10145">
        <ele>252.9</ele>
      </trkpt>
      <trkpt lat="36.63119" lon="28.10146">
        <ele>252.7</ele>
      </trkpt>
      <trkpt lat="36.63115" lon="28.10148">
        <ele>252.3</ele>
      </trkpt>
      <trkpt lat="36.6311" lon="28.1015">
        <ele>251.7</ele>
      </trkpt>
      <trkpt lat="36.63107" lon="28.10149">
        <ele>251.5</ele>
      </trkpt>
      <trkpt lat="36.63106" lon="28.1015">
        <ele>251.4</ele>
      </trkpt>
      <trkpt lat="36.63103" lon="28.10153">
        <ele>250.9</ele>
      </trkpt>
      <trkpt lat="36.63099" lon="28.10154">
        <ele>250.5</ele>
      </trkpt>
      <trkpt lat="36.63098" lon="28.10155">
        <ele>250.3</ele>
      </trkpt>
      <trkpt lat="36.63098" lon="28.10154">
        <ele>250.3</ele>
      </trkpt>
      <trkpt lat="36.63095" lon="28.10155">
        <ele>250</ele>
      </trkpt>
      <trkpt lat="36.63092" lon="28.10154">
        <ele>249.9</ele>
      </trkpt>
      <trkpt lat="36.63092" lon="28.10154">
        <ele>249.8</ele>
      </trkpt>
      <trkpt lat="36.63089" lon="28.10152">
        <ele>249.7</ele>
      </trkpt>
      <trkpt lat="36.63083" lon="28.1015">
        <ele>249.3</ele>
      </trkpt>
      <trkpt lat="36.63082" lon="28.1015">
        <ele>249.3</ele>
      </trkpt>
      <trkpt lat="36.63082" lon="28.1015">
        <ele>249.3</ele>
      </trkpt>
      <trkpt lat="36.63083" lon="28.1015">
        <ele>249.4</ele>
      </trkpt>
      <trkpt lat="36.63082" lon="28.1015">
        <ele>249.3</ele>
      </trkpt>
      <trkpt lat="36.63084" lon="28.1015">
        <ele>249.4</ele>
      </trkpt>
      <trkpt lat="36.63082" lon="28.10149">
        <ele>249.4</ele>
      </trkpt>
      <trkpt lat="36.6308" lon="28.10147">
        <ele>249.3</ele>
      </trkpt>
      <trkpt lat="36.63078" lon="28.10146">
        <ele>249.2</ele>
      </trkpt>
      <trkpt lat="36.63074" lon="28.10148">
        <ele>248.7</ele>
      </trkpt>
      <trkpt lat="36.63069" lon="28.10153">
        <ele>247.8</ele>
      </trkpt>
      <trkpt lat="36.63066" lon="28.10155">
        <ele>247.3</ele>
      </trkpt>
      <trkpt lat="36.63063" lon="28.10161">
        <ele>246.6</ele>
      </trkpt>
      <trkpt lat="36.63064" lon="28.10164">
        <ele>246.4</ele>
      </trkpt>
      <trkpt lat="36.63062" lon="28.1017">
        <ele>245.8</ele>
      </trkpt>
      <trkpt lat="36.63062" lon="28.1017">
        <ele>245.8</ele>
      </trkpt>
      <trkpt lat="36.63061" lon="28.1017">
        <ele>245.6</ele>
      </trkpt>
      <trkpt lat="36.63059" lon="28.10173">
        <ele>245.3</ele>
      </trkpt>
      <trkpt lat="36.63055" lon="28.10178">
        <ele>244.5</ele>
      </trkpt>
      <trkpt lat="36.63053" lon="28.10183">
        <ele>244</ele>
      </trkpt>
      <trkpt lat="36.63051" lon="28.10187">
        <ele>243.5</ele>
      </trkpt>
      <trkpt lat="36.63049" lon="28.10189">
        <ele>243.1</ele>
      </trkpt>
      <trkpt lat="36.63048" lon="28.10191">
        <ele>242.8</ele>
      </trkpt>
      <trkpt lat="36.63048" lon="28.10195">
        <ele>242.5</ele>
      </trkpt>
      <trkpt lat="36.63048" lon="28.10197">
        <ele>242.4</ele>
      </trkpt>
      <trkpt lat="36.63046" lon="28.10205">
        <ele>241.7</ele>
      </trkpt>
      <trkpt lat="36.63042" lon="28.10209">
        <ele>240.8</ele>
      </trkpt>
      <trkpt lat="36.63042" lon="28.10211">
        <ele>240.6</ele>
      </trkpt>
      <trkpt lat="36.63043" lon="28.10208">
        <ele>241</ele>
      </trkpt>
      <trkpt lat="36.6304" lon="28.10213">
        <ele>240.2</ele>
      </trkpt>
      <trkpt lat="36.6304" lon="28.10219">
        <ele>239.6</ele>
      </trkpt>
      <trkpt lat="36.63039" lon="28.10226">
        <ele>238.9</ele>
      </trkpt>
      <trkpt lat="36.63038" lon="28.10227">
        <ele>238.7</ele>
      </trkpt>
      <trkpt lat="36.63035" lon="28.10229">
        <ele>238</ele>
      </trkpt>
      <trkpt lat="36.63033" lon="28.10234">
        <ele>237.4</ele>
      </trkpt>
      <trkpt lat="36.6303" lon="28.10235">
        <ele>236.8</ele>
      </trkpt>
      <trkpt lat="36.63031" lon="28.10236">
        <ele>236.9</ele>
      </trkpt>
      <trkpt lat="36.63031" lon="28.1024">
        <ele>236.5</ele>
      </trkpt>
      <trkpt lat="36.63032" lon="28.10246">
        <ele>236</ele>
      </trkpt>
      <trkpt lat="36.63032" lon="28.10252">
        <ele>235.6</ele>
      </trkpt>
      <trkpt lat="36.63032" lon="28.10254">
        <ele>235.3</ele>
      </trkpt>
      <trkpt lat="36.6303" lon="28.10259">
        <ele>234.3</ele>
      </trkpt>
      <trkpt lat="36.63029" lon="28.10265">
        <ele>233.3</ele>
      </trkpt>
      <trkpt lat="36.63029" lon="28.10271">
        <ele>232.7</ele>
      </trkpt>
      <trkpt lat="36.63028" lon="28.10278">
        <ele>231.6</ele>
      </trkpt>
      <trkpt lat="36.63028" lon="28.10282">
        <ele>231.1</ele>
      </trkpt>
      <trkpt lat="36.63028" lon="28.10286">
        <ele>230.6</ele>
      </trkpt>
      <trkpt lat="36.63028" lon="28.10292">
        <ele>229.8</ele>
      </trkpt>
      <trkpt lat="36.63027" lon="28.10298">
        <ele>228.9</ele>
      </trkpt>
      <trkpt lat="36.63024" lon="28.10304">
        <ele>227.5</ele>
      </trkpt>
      <trkpt lat="36.63023" lon="28.10308">
        <ele>226.7</ele>
      </trkpt>
      <trkpt lat="36.63022" lon="28.10317">
        <ele>225.5</ele>
      </trkpt>
      <trkpt lat="36.63023" lon="28.10325">
        <ele>224.6</ele>
      </trkpt>
      <trkpt lat="36.63022" lon="28.1033">
        <ele>223.8</ele>
      </trkpt>
      <trkpt lat="36.63022" lon="28.1033">
        <ele>223.7</ele>
      </trkpt>
      <trkpt lat="36.63024" lon="28.10332">
        <ele>224</ele>
      </trkpt>
      <trkpt lat="36.63026" lon="28.10336">
        <ele>223.8</ele>
      </trkpt>
      <trkpt lat="36.63027" lon="28.10342">
        <ele>223</ele>
      </trkpt>
      <trkpt lat="36.63028" lon="28.10348">
        <ele>222.3</ele>
      </trkpt>
      <trkpt lat="36.63029" lon="28.10355">
        <ele>221.3</ele>
      </trkpt>
      <trkpt lat="36.63029" lon="28.10362">
        <ele>220.4</ele>
      </trkpt>
      <trkpt lat="36.63027" lon="28.10365">
        <ele>219.3</ele>
      </trkpt>
      <trkpt lat="36.63028" lon="28.10365">
        <ele>219.5</ele>
      </trkpt>
      <trkpt lat="36.63029" lon="28.10369">
        <ele>219</ele>
      </trkpt>
      <trkpt lat="36.63028" lon="28.10374">
        <ele>218.2</ele>
      </trkpt>
      <trkpt lat="36.63026" lon="28.10375">
        <ele>217.5</ele>
      </trkpt>
      <trkpt lat="36.63026" lon="28.10375">
        <ele>217.4</ele>
      </trkpt>
      <trkpt lat="36.63026" lon="28.10373">
        <ele>217.6</ele>
      </trkpt>
      <trkpt lat="36.63024" lon="28.10377">
        <ele>216.6</ele>
      </trkpt>
      <trkpt lat="36.63024" lon="28.10383">
        <ele>215.7</ele>
      </trkpt>
      <trkpt lat="36.63021" lon="28.10385">
        <ele>214.8</ele>
      </trkpt>
      <trkpt lat="36.63019" lon="28.10384">
        <ele>214.6</ele>
      </trkpt>
      <trkpt lat="36.63016" lon="28.10385">
        <ele>213.9</ele>
      </trkpt>
      <trkpt lat="36.63012" lon="28.10388">
        <ele>212.6</ele>
      </trkpt>
      <trkpt lat="36.63009" lon="28.1039">
        <ele>211.7</ele>
      </trkpt>
      <trkpt lat="36.63007" lon="28.10393">
        <ele>210.8</ele>
      </trkpt>
      <trkpt lat="36.63006" lon="28.10397">
        <ele>210.1</ele>
      </trkpt>
      <trkpt lat="36.63009" lon="28.10403">
        <ele>209.6</ele>
      </trkpt>
      <trkpt lat="36.63008" lon="28.10406">
        <ele>209</ele>
      </trkpt>
      <trkpt lat="36.63004" lon="28.10407">
        <ele>208.2</ele>
      </trkpt>
      <trkpt lat="36.63003" lon="28.10409">
        <ele>207.7</ele>
      </trkpt>
      <trkpt lat="36.63002" lon="28.10413">
        <ele>206.8</ele>
      </trkpt>
      <trkpt lat="36.62997" lon="28.1042">
        <ele>205.6</ele>
      </trkpt>
      <trkpt lat="36.62991" lon="28.10429">
        <ele>204.8</ele>
      </trkpt>
      <trkpt lat="36.62988" lon="28.10432">
        <ele>204.4</ele>
      </trkpt>
      <trkpt lat="36.62981" lon="28.1044">
        <ele>203.7</ele>
      </trkpt>
      <trkpt lat="36.62975" lon="28.10447">
        <ele>203</ele>
      </trkpt>
      <trkpt lat="36.62968" lon="28.10454">
        <ele>202.4</ele>
      </trkpt>
      <trkpt lat="36.62962" lon="28.10461">
        <ele>201.8</ele>
      </trkpt>
      <trkpt lat="36.62961" lon="28.10462">
        <ele>201.7</ele>
      </trkpt>
      <trkpt lat="36.6296" lon="28.10466">
        <ele>201.5</ele>
      </trkpt>
      <trkpt lat="36.62959" lon="28.10464">
        <ele>201.5</ele>
      </trkpt>
      <trkpt lat="36.62958" lon="28.10463">
        <ele>201.5</ele>
      </trkpt>
      <trkpt lat="36.62957" lon="28.10469">
        <ele>201.3</ele>
      </trkpt>
      <trkpt lat="36.62956" lon="28.10474">
        <ele>201</ele>
      </trkpt>
      <trkpt lat="36.62956" lon="28.10475">
        <ele>201</ele>
      </trkpt>
      <trkpt lat="36.62956" lon="28.10475">
        <ele>201</ele>
      </trkpt>
      <trkpt lat="36.62953" lon="28.10478">
        <ele>200.8</ele>
      </trkpt>
      <trkpt lat="36.62952" lon="28.10479">
        <ele>200.7</ele>
      </trkpt>
      <trkpt lat="36.6295" lon="28.10504">
        <ele>199.9</ele>
      </trkpt>
      <trkpt lat="36.62945" lon="28.10515">
        <ele>200</ele>
      </trkpt>
      <trkpt lat="36.62938" lon="28.1052">
        <ele>200</ele>
      </trkpt>
      <trkpt lat="36.62902" lon="28.10496">
        <ele>200.8</ele>
      </trkpt>
      <trkpt lat="36.6288" lon="28.10481">
        <ele>203</ele>
      </trkpt>
      <trkpt lat="36.62846" lon="28.1044">
        <ele>203.4</ele>
      </trkpt>
      <trkpt lat="36.62786" lon="28.10328">
        <ele>203.4</ele>
      </trkpt>
      <trkpt lat="36.62745" lon="28.10297">
        <ele>203.5</ele>
      </trkpt>
      <trkpt lat="36.62733" lon="28.10289">
        <ele>204.2</ele>
      </trkpt>
      <trkpt lat="36.62698" lon="28.10248">
        <ele>202.8</ele>
      </trkpt>
      <trkpt lat="36.62684" lon="28.10224">
        <ele>203.8</ele>
      </trkpt>
      <trkpt lat="36.62648" lon="28.10191">
        <ele>201.6</ele>
      </trkpt>
      <trkpt lat="36.62639" lon="28.1019">
        <ele>200.9</ele>
      </trkpt>
      <trkpt lat="36.62627" lon="28.10193">
        <ele>200.3</ele>
      </trkpt>
      <trkpt lat="36.62626" lon="28.10194">
        <ele>200.3</ele>
      </trkpt>
      <trkpt lat="36.62619" lon="28.10192">
        <ele>199.8</ele>
      </trkpt>
      <trkpt lat="36.62579" lon="28.10192">
        <ele>196.5</ele>
      </trkpt>
      <trkpt lat="36.62558" lon="28.10199">
        <ele>193.7</ele>
      </trkpt>
      <trkpt lat="36.62538" lon="28.10208">
        <ele>191.6</ele>
      </trkpt>
      <trkpt lat="36.62515" lon="28.1023">
        <ele>190.7</ele>
      </trkpt>
      <trkpt lat="36.62488" lon="28.10241">
        <ele>191.3</ele>
      </trkpt>
      <trkpt lat="36.62466" lon="28.10219">
        <ele>189.9</ele>
      </trkpt>
      <trkpt lat="36.62461" lon="28.10204">
        <ele>187.5</ele>
      </trkpt>
      <trkpt lat="36.62441" lon="28.10171">
        <ele>181.5</ele>
      </trkpt>
      <trkpt lat="36.62426" lon="28.10155">
        <ele>180.3</ele>
      </trkpt>
      <trkpt lat="36.62403" lon="28.10132">
        <ele>182</ele>
      </trkpt>
      <trkpt lat="36.62375" lon="28.10075">
        <ele>180.6</ele>
      </trkpt>
      <trkpt lat="36.62351" lon="28.10034">
        <ele>177.9</ele>
      </trkpt>
      <trkpt lat="36.62313" lon="28.09986">
        <ele>172.2</ele>
      </trkpt>
      <trkpt lat="36.62256" lon="28.09945">
        <ele>167.5</ele>
      </trkpt>
      <trkpt lat="36.62222" lon="28.09916">
        <ele>164.7</ele>
      </trkpt>
      <trkpt lat="36.62214" lon="28.09908">
        <ele>164.8</ele>
      </trkpt>
      <trkpt lat="36.62195" lon="28.09869">
        <ele>162.2</ele>
      </trkpt>
      <trkpt lat="36.6219" lon="28.09851">
        <ele>160</ele>
      </trkpt>
      <trkpt lat="36.6219" lon="28.09851">
        <ele>160</ele>
      </trkpt>
      <trkpt lat="36.6218" lon="28.09848">
        <ele>159.9</ele>
      </trkpt>
      <trkpt lat="36.62178" lon="28.0985">
        <ele>160.4</ele>
      </trkpt>
      <trkpt lat="36.6217" lon="28.09837">
        <ele>158.5</ele>
      </trkpt>
      <trkpt lat="36.62156" lon="28.09825">
        <ele>159.4</ele>
      </trkpt>
      <trkpt lat="36.62145" lon="28.09813">
        <ele>160.1</ele>
      </trkpt>
      <trkpt lat="36.62131" lon="28.098">
        <ele>160.9</ele>
      </trkpt>
      <trkpt lat="36.62118" lon="28.09789">
        <ele>161</ele>
      </trkpt>
      <trkpt lat="36.62105" lon="28.0978">
        <ele>161.4</ele>
      </trkpt>
      <trkpt lat="36.62094" lon="28.09771">
        <ele>161.1</ele>
      </trkpt>
      <trkpt lat="36.62082" lon="28.09759">
        <ele>160</ele>
      </trkpt>
      <trkpt lat="36.62069" lon="28.09747">
        <ele>159.7</ele>
      </trkpt>
      <trkpt lat="36.62052" lon="28.09737">
        <ele>160.9</ele>
      </trkpt>
      <trkpt lat="36.62036" lon="28.09727">
        <ele>161.6</ele>
      </trkpt>
      <trkpt lat="36.62029" lon="28.09719">
        <ele>161.4</ele>
      </trkpt>
      <trkpt lat="36.6203" lon="28.09719">
        <ele>161.3</ele>
      </trkpt>
      <trkpt lat="36.62023" lon="28.09718">
        <ele>162</ele>
      </trkpt>
      <trkpt lat="36.62018" lon="28.09715">
        <ele>162.2</ele>
      </trkpt>
      <trkpt lat="36.61999" lon="28.09714">
        <ele>164.2</ele>
      </trkpt>
      <trkpt lat="36.61987" lon="28.09704">
        <ele>164.7</ele>
      </trkpt>
      <trkpt lat="36.61978" lon="28.09702">
        <ele>165.9</ele>
      </trkpt>
      <trkpt lat="36.61979" lon="28.09695">
        <ele>164.8</ele>
      </trkpt>
      <trkpt lat="36.6197" lon="28.09682">
        <ele>164.8</ele>
      </trkpt>
      <trkpt lat="36.61967" lon="28.0968">
        <ele>165.2</ele>
      </trkpt>
      <trkpt lat="36.61966" lon="28.09672">
        <ele>164.3</ele>
      </trkpt>
      <trkpt lat="36.61965" lon="28.09652">
        <ele>162.8</ele>
      </trkpt>
      <trkpt lat="36.61965" lon="28.09647">
        <ele>162.5</ele>
      </trkpt>
      <trkpt lat="36.61957" lon="28.09637">
        <ele>163.4</ele>
      </trkpt>
      <trkpt lat="36.61952" lon="28.09629">
        <ele>163.9</ele>
      </trkpt>
      <trkpt lat="36.61944" lon="28.09616">
        <ele>164.5</ele>
      </trkpt>
      <trkpt lat="36.61942" lon="28.0961">
        <ele>164.4</ele>
      </trkpt>
      <trkpt lat="36.61935" lon="28.09594">
        <ele>164.5</ele>
      </trkpt>
      <trkpt lat="36.61922" lon="28.09583">
        <ele>166</ele>
      </trkpt>
      <trkpt lat="36.6192" lon="28.09582">
        <ele>166.2</ele>
      </trkpt>
      <trkpt lat="36.61909" lon="28.09571">
        <ele>167.7</ele>
      </trkpt>
      <trkpt lat="36.61902" lon="28.09554">
        <ele>167.6</ele>
      </trkpt>
      <trkpt lat="36.61894" lon="28.09544">
        <ele>168.2</ele>
      </trkpt>
      <trkpt lat="36.61886" lon="28.0954">
        <ele>170.1</ele>
      </trkpt>
      <trkpt lat="36.61881" lon="28.09533">
        <ele>170.6</ele>
      </trkpt>
      <trkpt lat="36.61876" lon="28.09532">
        <ele>172.1</ele>
      </trkpt>
      <trkpt lat="36.61867" lon="28.09525">
        <ele>173.4</ele>
      </trkpt>
      <trkpt lat="36.61859" lon="28.09513">
        <ele>173.3</ele>
      </trkpt>
      <trkpt lat="36.6185" lon="28.09505">
        <ele>174.2</ele>
      </trkpt>
      <trkpt lat="36.61847" lon="28.09501">
        <ele>174</ele>
      </trkpt>
      <trkpt lat="36.61837" lon="28.09491">
        <ele>174.9</ele>
      </trkpt>
      <trkpt lat="36.61828" lon="28.09481">
        <ele>175.9</ele>
      </trkpt>
      <trkpt lat="36.61815" lon="28.09472">
        <ele>179.4</ele>
      </trkpt>
      <trkpt lat="36.61808" lon="28.09468">
        <ele>181.7</ele>
      </trkpt>
      <trkpt lat="36.61797" lon="28.09463">
        <ele>185.3</ele>
      </trkpt>
      <trkpt lat="36.61792" lon="28.0946">
        <ele>186.7</ele>
      </trkpt>
      <trkpt lat="36.61785" lon="28.09457">
        <ele>189.1</ele>
      </trkpt>
      <trkpt lat="36.61779" lon="28.09454">
        <ele>190.7</ele>
      </trkpt>
      <trkpt lat="36.61771" lon="28.09446">
        <ele>192.6</ele>
      </trkpt>
      <trkpt lat="36.61765" lon="28.09442">
        <ele>194.3</ele>
      </trkpt>
      <trkpt lat="36.61758" lon="28.09438">
        <ele>196.2</ele>
      </trkpt>
      <trkpt lat="36.61754" lon="28.09434">
        <ele>197.4</ele>
      </trkpt>
      <trkpt lat="36.61747" lon="28.09426">
        <ele>197.5</ele>
      </trkpt>
      <trkpt lat="36.6174" lon="28.09422">
        <ele>196.9</ele>
      </trkpt>
      <trkpt lat="36.61738" lon="28.09421">
        <ele>197</ele>
      </trkpt>
      <trkpt lat="36.61729" lon="28.09424">
        <ele>198.2</ele>
      </trkpt>
      <trkpt lat="36.6173" lon="28.09424">
        <ele>198.2</ele>
      </trkpt>
      <trkpt lat="36.61718" lon="28.09419">
        <ele>197.9</ele>
      </trkpt>
      <trkpt lat="36.61718" lon="28.09416">
        <ele>197.3</ele>
      </trkpt>
      <trkpt lat="36.61714" lon="28.09417">
        <ele>197.6</ele>
      </trkpt>
      <trkpt lat="36.61715" lon="28.09414">
        <ele>197.5</ele>
      </trkpt>
      <trkpt lat="36.6171" lon="28.09415">
        <ele>197.8</ele>
      </trkpt>
      <trkpt lat="36.61706" lon="28.09413">
        <ele>198.1</ele>
      </trkpt>
      <trkpt lat="36.61696" lon="28.09409">
        <ele>198.8</ele>
      </trkpt>
      <trkpt lat="36.61695" lon="28.09407">
        <ele>198.9</ele>
      </trkpt>
      <trkpt lat="36.61694" lon="28.0941">
        <ele>199</ele>
      </trkpt>
      <trkpt lat="36.61693" lon="28.09407">
        <ele>199</ele>
      </trkpt>
      <trkpt lat="36.61691" lon="28.09405">
        <ele>199.2</ele>
      </trkpt>
      <trkpt lat="36.61686" lon="28.09405">
        <ele>199.6</ele>
      </trkpt>
      <trkpt lat="36.61681" lon="28.09405">
        <ele>200</ele>
      </trkpt>
      <trkpt lat="36.61679" lon="28.09406">
        <ele>200.1</ele>
      </trkpt>
      <trkpt lat="36.61678" lon="28.09403">
        <ele>200.2</ele>
      </trkpt>
      <trkpt lat="36.6167" lon="28.09399">
        <ele>201</ele>
      </trkpt>
      <trkpt lat="36.61666" lon="28.09396">
        <ele>201.1</ele>
      </trkpt>
      <trkpt lat="36.61659" lon="28.09393">
        <ele>200.3</ele>
      </trkpt>
      <trkpt lat="36.61653" lon="28.09388">
        <ele>199.5</ele>
      </trkpt>
      <trkpt lat="36.61648" lon="28.09384">
        <ele>198.6</ele>
      </trkpt>
      <trkpt lat="36.61642" lon="28.0938">
        <ele>197.6</ele>
      </trkpt>
      <trkpt lat="36.61643" lon="28.09377">
        <ele>197.8</ele>
      </trkpt>
      <trkpt lat="36.61642" lon="28.09374">
        <ele>197.4</ele>
      </trkpt>
      <trkpt lat="36.61631" lon="28.0936">
        <ele>195</ele>
      </trkpt>
      <trkpt lat="36.61623" lon="28.09349">
        <ele>192.8</ele>
      </trkpt>
      <trkpt lat="36.61617" lon="28.09341">
        <ele>191.2</ele>
      </trkpt>
      <trkpt lat="36.6161" lon="28.09335">
        <ele>189.1</ele>
      </trkpt>
      <trkpt lat="36.61599" lon="28.09327">
        <ele>187.4</ele>
      </trkpt>
      <trkpt lat="36.61589" lon="28.0932">
        <ele>186.4</ele>
      </trkpt>
      <trkpt lat="36.61577" lon="28.09312">
        <ele>186</ele>
      </trkpt>
      <trkpt lat="36.61564" lon="28.09302">
        <ele>186.1</ele>
      </trkpt>
      <trkpt lat="36.6156" lon="28.09295">
        <ele>186</ele>
      </trkpt>
      <trkpt lat="36.61553" lon="28.09287">
        <ele>185.4</ele>
      </trkpt>
      <trkpt lat="36.6155" lon="28.09285">
        <ele>184.9</ele>
      </trkpt>
      <trkpt lat="36.61542" lon="28.09276">
        <ele>183.6</ele>
      </trkpt>
      <trkpt lat="36.61543" lon="28.09274">
        <ele>183.6</ele>
      </trkpt>
      <trkpt lat="36.61531" lon="28.09259">
        <ele>180.1</ele>
      </trkpt>
      <trkpt lat="36.61524" lon="28.09251">
        <ele>177.5</ele>
      </trkpt>
      <trkpt lat="36.61519" lon="28.09245">
        <ele>176.1</ele>
      </trkpt>
      <trkpt lat="36.61513" lon="28.09251">
        <ele>174.2</ele>
      </trkpt>
      <trkpt lat="36.61513" lon="28.09251">
        <ele>174.1</ele>
      </trkpt>
      <trkpt lat="36.615" lon="28.09249">
        <ele>170.1</ele>
      </trkpt>
      <trkpt lat="36.61495" lon="28.09242">
        <ele>170.1</ele>
      </trkpt>
      <trkpt lat="36.61488" lon="28.09238">
        <ele>169.7</ele>
      </trkpt>
      <trkpt lat="36.6148" lon="28.09229">
        <ele>169</ele>
      </trkpt>
      <trkpt lat="36.61477" lon="28.09225">
        <ele>168.6</ele>
      </trkpt>
      <trkpt lat="36.61465" lon="28.09207">
        <ele>166.1</ele>
      </trkpt>
      <trkpt lat="36.61455" lon="28.09201">
        <ele>163.8</ele>
      </trkpt>
      <trkpt lat="36.61449" lon="28.09199">
        <ele>162.5</ele>
      </trkpt>
      <trkpt lat="36.61443" lon="28.09196">
        <ele>160.8</ele>
      </trkpt>
      <trkpt lat="36.61438" lon="28.09187">
        <ele>158.5</ele>
      </trkpt>
      <trkpt lat="36.61437" lon="28.09182">
        <ele>157.5</ele>
      </trkpt>
      <trkpt lat="36.61429" lon="28.09176">
        <ele>154.3</ele>
      </trkpt>
      <trkpt lat="36.61428" lon="28.09173">
        <ele>153.5</ele>
      </trkpt>
      <trkpt lat="36.61429" lon="28.09162">
        <ele>152.8</ele>
      </trkpt>
      <trkpt lat="36.61427" lon="28.09156">
        <ele>152.3</ele>
      </trkpt>
      <trkpt lat="36.61425" lon="28.09154">
        <ele>151.9</ele>
      </trkpt>
      <trkpt lat="36.61415" lon="28.09151">
        <ele>149.1</ele>
      </trkpt>
      <trkpt lat="36.61409" lon="28.09151">
        <ele>148.9</ele>
      </trkpt>
      <trkpt lat="36.61407" lon="28.09153">
        <ele>148.8</ele>
      </trkpt>
      <trkpt lat="36.61397" lon="28.09155">
        <ele>148.4</ele>
      </trkpt>
      <trkpt lat="36.61394" lon="28.09152">
        <ele>148.3</ele>
      </trkpt>
      <trkpt lat="36.61394" lon="28.0915">
        <ele>148.3</ele>
      </trkpt>
      <trkpt lat="36.61383" lon="28.09148">
        <ele>147.8</ele>
      </trkpt>
      <trkpt lat="36.61382" lon="28.09147">
        <ele>147.7</ele>
      </trkpt>
      <trkpt lat="36.61379" lon="28.0914">
        <ele>147.4</ele>
      </trkpt>
      <trkpt lat="36.61375" lon="28.09139">
        <ele>147.2</ele>
      </trkpt>
      <trkpt lat="36.61366" lon="28.09132">
        <ele>146.4</ele>
      </trkpt>
      <trkpt lat="36.6136" lon="28.09132">
        <ele>146.1</ele>
      </trkpt>
      <trkpt lat="36.6136" lon="28.09132">
        <ele>146.1</ele>
      </trkpt>
      <trkpt lat="36.61357" lon="28.09123">
        <ele>145.4</ele>
      </trkpt>
      <trkpt lat="36.61353" lon="28.09111">
        <ele>144.5</ele>
      </trkpt>
      <trkpt lat="36.61354" lon="28.0911">
        <ele>144.5</ele>
      </trkpt>
      <trkpt lat="36.61357" lon="28.09108">
        <ele>144.7</ele>
      </trkpt>
      <trkpt lat="36.61358" lon="28.09102">
        <ele>144.5</ele>
      </trkpt>
      <trkpt lat="36.61358" lon="28.09092">
        <ele>144.1</ele>
      </trkpt>
      <trkpt lat="36.61359" lon="28.09088">
        <ele>143.9</ele>
      </trkpt>
      <trkpt lat="36.61357" lon="28.09076">
        <ele>143.1</ele>
      </trkpt>
      <trkpt lat="36.61353" lon="28.09063">
        <ele>142</ele>
      </trkpt>
      <trkpt lat="36.61349" lon="28.09048">
        <ele>140.7</ele>
      </trkpt>
      <trkpt lat="36.61344" lon="28.09034">
        <ele>139.4</ele>
      </trkpt>
      <trkpt lat="36.61342" lon="28.09029">
        <ele>138.8</ele>
      </trkpt>
      <trkpt lat="36.61344" lon="28.09017">
        <ele>138.4</ele>
      </trkpt>
      <trkpt lat="36.61343" lon="28.09012">
        <ele>137.9</ele>
      </trkpt>
      <trkpt lat="36.6134" lon="28.09003">
        <ele>137</ele>
      </trkpt>
      <trkpt lat="36.61338" lon="28.0899">
        <ele>136</ele>
      </trkpt>
      <trkpt lat="36.61338" lon="28.08981">
        <ele>135.3</ele>
      </trkpt>
      <trkpt lat="36.61336" lon="28.08971">
        <ele>134.5</ele>
      </trkpt>
      <trkpt lat="36.61336" lon="28.0896">
        <ele>133.8</ele>
      </trkpt>
      <trkpt lat="36.61336" lon="28.0896">
        <ele>133.8</ele>
      </trkpt>
      <trkpt lat="36.6133" lon="28.08947">
        <ele>132.7</ele>
      </trkpt>
      <trkpt lat="36.61321" lon="28.0893">
        <ele>131.5</ele>
      </trkpt>
      <trkpt lat="36.6132" lon="28.08926">
        <ele>131.2</ele>
      </trkpt>
      <trkpt lat="36.61311" lon="28.08917">
        <ele>130.5</ele>
      </trkpt>
      <trkpt lat="36.61305" lon="28.089">
        <ele>130</ele>
      </trkpt>
      <trkpt lat="36.61294" lon="28.08889">
        <ele>129.7</ele>
      </trkpt>
      <trkpt lat="36.6129" lon="28.08877">
        <ele>129.5</ele>
      </trkpt>
      <trkpt lat="36.61296" lon="28.08863">
        <ele>129.4</ele>
      </trkpt>
      <trkpt lat="36.61296" lon="28.08852">
        <ele>129.2</ele>
      </trkpt>
      <trkpt lat="36.61293" lon="28.08848">
        <ele>129.2</ele>
      </trkpt>
      <trkpt lat="36.61294" lon="28.08838">
        <ele>129.1</ele>
      </trkpt>
      <trkpt lat="36.61297" lon="28.0882">
        <ele>128.9</ele>
      </trkpt>
      <trkpt lat="36.61301" lon="28.08804">
        <ele>128.9</ele>
      </trkpt>
      <trkpt lat="36.61303" lon="28.08799">
        <ele>128.9</ele>
      </trkpt>
      <trkpt lat="36.61311" lon="28.0879">
        <ele>128.9</ele>
      </trkpt>
      <trkpt lat="36.61321" lon="28.08778">
        <ele>128.9</ele>
      </trkpt>
      <trkpt lat="36.6132" lon="28.08772">
        <ele>128.9</ele>
      </trkpt>
      <trkpt lat="36.61315" lon="28.08759">
        <ele>128.8</ele>
      </trkpt>
      <trkpt lat="36.61305" lon="28.08746">
        <ele>128.6</ele>
      </trkpt>
      <trkpt lat="36.61301" lon="28.08733">
        <ele>128.5</ele>
      </trkpt>
      <trkpt lat="36.61298" lon="28.08726">
        <ele>128.4</ele>
      </trkpt>
      <trkpt lat="36.61295" lon="28.0872">
        <ele>128.3</ele>
      </trkpt>
      <trkpt lat="36.61295" lon="28.08719">
        <ele>128.3</ele>
      </trkpt>
      <trkpt lat="36.61287" lon="28.08709">
        <ele>128.2</ele>
      </trkpt>
      <trkpt lat="36.61287" lon="28.08708">
        <ele>128.2</ele>
      </trkpt>
      <trkpt lat="36.61283" lon="28.08698">
        <ele>128.1</ele>
      </trkpt>
      <trkpt lat="36.61285" lon="28.087">
        <ele>128.2</ele>
      </trkpt>
      <trkpt lat="36.61286" lon="28.08683">
        <ele>128.1</ele>
      </trkpt>
      <trkpt lat="36.61294" lon="28.08682">
        <ele>128.1</ele>
      </trkpt>
      <trkpt lat="36.61294" lon="28.08682">
        <ele>128.1</ele>
      </trkpt>
      <trkpt lat="36.61292" lon="28.08665">
        <ele>128</ele>
      </trkpt>
      <trkpt lat="36.61296" lon="28.08655">
        <ele>128.1</ele>
      </trkpt>
      <trkpt lat="36.61295" lon="28.08652">
        <ele>128.1</ele>
      </trkpt>
      <trkpt lat="36.61295" lon="28.08652">
        <ele>128.1</ele>
      </trkpt>
      <trkpt lat="36.61306" lon="28.08639">
        <ele>128.2</ele>
      </trkpt>
      <trkpt lat="36.61319" lon="28.08625">
        <ele>128.4</ele>
      </trkpt>
      <trkpt lat="36.61322" lon="28.08619">
        <ele>128.5</ele>
      </trkpt>
      <trkpt lat="36.61324" lon="28.08617">
        <ele>128.5</ele>
      </trkpt>
      <trkpt lat="36.61316" lon="28.0861">
        <ele>128.5</ele>
      </trkpt>
      <trkpt lat="36.61316" lon="28.08606">
        <ele>128.6</ele>
      </trkpt>
      <trkpt lat="36.61304" lon="28.08594">
        <ele>128.6</ele>
      </trkpt>
      <trkpt lat="36.613" lon="28.0859">
        <ele>128.6</ele>
      </trkpt>
      <trkpt lat="36.6129" lon="28.08585">
        <ele>128.5</ele>
      </trkpt>
      <trkpt lat="36.61284" lon="28.08581">
        <ele>128.4</ele>
      </trkpt>
      <trkpt lat="36.61279" lon="28.0858">
        <ele>128.4</ele>
      </trkpt>
      <trkpt lat="36.61266" lon="28.08573">
        <ele>128.2</ele>
      </trkpt>
      <trkpt lat="36.61259" lon="28.08564">
        <ele>128.1</ele>
      </trkpt>
      <trkpt lat="36.6125" lon="28.08551">
        <ele>128</ele>
      </trkpt>
      <trkpt lat="36.61237" lon="28.08539">
        <ele>127.9</ele>
      </trkpt>
      <trkpt lat="36.61226" lon="28.0853">
        <ele>127.9</ele>
      </trkpt>
      <trkpt lat="36.61225" lon="28.08505">
        <ele>128</ele>
      </trkpt>
      <trkpt lat="36.61226" lon="28.08483">
        <ele>130.6</ele>
      </trkpt>
      <trkpt lat="36.61224" lon="28.08463">
        <ele>133.8</ele>
      </trkpt>
      <trkpt lat="36.61223" lon="28.08448">
        <ele>135.9</ele>
      </trkpt>
      <trkpt lat="36.61209" lon="28.08434">
        <ele>137.2</ele>
      </trkpt>
      <trkpt lat="36.61193" lon="28.08428">
        <ele>136.8</ele>
      </trkpt>
      <trkpt lat="36.61178" lon="28.0842">
        <ele>136.5</ele>
      </trkpt>
      <trkpt lat="36.61165" lon="28.08412">
        <ele>137.1</ele>
      </trkpt>
      <trkpt lat="36.61148" lon="28.08397">
        <ele>139</ele>
      </trkpt>
      <trkpt lat="36.61145" lon="28.08391">
        <ele>139.8</ele>
      </trkpt>
      <trkpt lat="36.61143" lon="28.08389">
        <ele>140</ele>
      </trkpt>
      <trkpt lat="36.61129" lon="28.08376">
        <ele>139.9</ele>
      </trkpt>
      <trkpt lat="36.61115" lon="28.08361">
        <ele>139.1</ele>
      </trkpt>
      <trkpt lat="36.61103" lon="28.08348">
        <ele>137.9</ele>
      </trkpt>
      <trkpt lat="36.61099" lon="28.08342">
        <ele>137.2</ele>
      </trkpt>
      <trkpt lat="36.61099" lon="28.08343">
        <ele>137.1</ele>
      </trkpt>
      <trkpt lat="36.61085" lon="28.08326">
        <ele>136.1</ele>
      </trkpt>
      <trkpt lat="36.61072" lon="28.08307">
        <ele>140.3</ele>
      </trkpt>
      <trkpt lat="36.61076" lon="28.08298">
        <ele>143.6</ele>
      </trkpt>
      <trkpt lat="36.6107" lon="28.08297">
        <ele>143</ele>
      </trkpt>
      <trkpt lat="36.61052" lon="28.08292">
        <ele>141.8</ele>
      </trkpt>
      <trkpt lat="36.61033" lon="28.08284">
        <ele>140.5</ele>
      </trkpt>
      <trkpt lat="36.61018" lon="28.08275">
        <ele>139</ele>
      </trkpt>
      <trkpt lat="36.61006" lon="28.08267">
        <ele>137.6</ele>
      </trkpt>
      <trkpt lat="36.60992" lon="28.08252">
        <ele>137</ele>
      </trkpt>
      <trkpt lat="36.60978" lon="28.08234">
        <ele>139.6</ele>
      </trkpt>
      <trkpt lat="36.60962" lon="28.08223">
        <ele>139.8</ele>
      </trkpt>
      <trkpt lat="36.60947" lon="28.08213">
        <ele>139.7</ele>
      </trkpt>
      <trkpt lat="36.60932" lon="28.082">
        <ele>139.3</ele>
      </trkpt>
      <trkpt lat="36.60919" lon="28.08192">
        <ele>137.7</ele>
      </trkpt>
      <trkpt lat="36.60889" lon="28.08164">
        <ele>139</ele>
      </trkpt>
      <trkpt lat="36.60866" lon="28.08125">
        <ele>141.7</ele>
      </trkpt>
      <trkpt lat="36.60833" lon="28.08091">
        <ele>139.6</ele>
      </trkpt>
      <trkpt lat="36.60813" lon="28.08007">
        <ele>152</ele>
      </trkpt>
      <trkpt lat="36.60821" lon="28.07928">
        <ele>161.6</ele>
      </trkpt>
      <trkpt lat="36.60837" lon="28.07917">
        <ele>161.4</ele>
      </trkpt>
      <trkpt lat="36.60828" lon="28.07893">
        <ele>163.9</ele>
      </trkpt>
      <trkpt lat="36.60823" lon="28.07844">
        <ele>168.8</ele>
      </trkpt>
      <trkpt lat="36.60818" lon="28.0779">
        <ele>167.7</ele>
      </trkpt>
      <trkpt lat="36.60803" lon="28.0775">
        <ele>168.3</ele>
      </trkpt>
      <trkpt lat="36.60807" lon="28.07653">
        <ele>155.4</ele>
      </trkpt>
      <trkpt lat="36.60792" lon="28.0762">
        <ele>150.8</ele>
      </trkpt>
      <trkpt lat="36.60757" lon="28.07559">
        <ele>139.1</ele>
      </trkpt>
      <trkpt lat="36.60699" lon="28.07451">
        <ele>122.5</ele>
      </trkpt>
      <trkpt lat="36.6063" lon="28.07407">
        <ele>120.3</ele>
      </trkpt>
      <trkpt lat="36.60591" lon="28.07362">
        <ele>119.2</ele>
      </trkpt>
      <trkpt lat="36.60562" lon="28.07289">
        <ele>117.6</ele>
      </trkpt>
      <trkpt lat="36.60527" lon="28.07242">
        <ele>121</ele>
      </trkpt>
      <trkpt lat="36.60501" lon="28.07184">
        <ele>123.6</ele>
      </trkpt>
      <trkpt lat="36.60468" lon="28.07121">
        <ele>128.5</ele>
      </trkpt>
      <trkpt lat="36.60399" lon="28.07059">
        <ele>135.5</ele>
      </trkpt>
      <trkpt lat="36.60381" lon="28.06982">
        <ele>123.7</ele>
      </trkpt>
      <trkpt lat="36.60304" lon="28.06916">
        <ele>125.2</ele>
      </trkpt>
      <trkpt lat="36.60272" lon="28.06841">
        <ele>108.7</ele>
      </trkpt>
      <trkpt lat="36.60176" lon="28.06752">
        <ele>113.6</ele>
      </trkpt>
      <trkpt lat="36.60142" lon="28.06696">
        <ele>115.1</ele>
      </trkpt>
      <trkpt lat="36.601" lon="28.06546">
        <ele>104.7</ele>
      </trkpt>
      <trkpt lat="36.60101" lon="28.06479">
        <ele>96.1</ele>
      </trkpt>
      <trkpt lat="36.60077" lon="28.064">
        <ele>94.4</ele>
      </trkpt>
      <trkpt lat="36.60062" lon="28.06325">
        <ele>96.6</ele>
      </trkpt>
      <trkpt lat="36.60077" lon="28.0623">
        <ele>95.7</ele>
      </trkpt>
      <trkpt lat="36.60093" lon="28.06135">
        <ele>87.5</ele>
      </trkpt>
      <trkpt lat="36.60081" lon="28.06113">
        <ele>83.3</ele>
      </trkpt>
      <trkpt lat="36.60095" lon="28.06074">
        <ele>76.4</ele>
      </trkpt>
      <trkpt lat="36.60072" lon="28.06031">
        <ele>64.3</ele>
      </trkpt>
      <trkpt lat="36.60052" lon="28.0597">
        <ele>49.1</ele>
      </trkpt>
      <trkpt lat="36.59993" lon="28.05912">
        <ele>34.4</ele>
      </trkpt>
      <trkpt lat="36.59962" lon="28.05885">
        <ele>30.2</ele>
      </trkpt>
      <trkpt lat="36.59946" lon="28.05861">
        <ele>26.8</ele>
      </trkpt>
      <trkpt lat="36.59907" lon="28.05823">
        <ele>24.2</ele>
      </trkpt>
      <trkpt lat="36.59878" lon="28.05789">
        <ele>26.1</ele>
      </trkpt>
      <trkpt lat="36.59847" lon="28.05759">
        <ele>26.1</ele>
      </trkpt>
      <trkpt lat="36.5982" lon="28.05733">
        <ele>26</ele>
      </trkpt>
      <trkpt lat="36.5979" lon="28.05721">
        <ele>26.9</ele>
      </trkpt>
      <trkpt lat="36.5979" lon="28.05721">
        <ele>26.9</ele>
      </trkpt>
      <trkpt lat="36.5975" lon="28.05681">
        <ele>22.6</ele>
      </trkpt>
      <trkpt lat="36.59729" lon="28.05661">
        <ele>22.4</ele>
      </trkpt>
      <trkpt lat="36.59692" lon="28.05639">
        <ele>24.9</ele>
      </trkpt>
      <trkpt lat="36.59661" lon="28.05606">
        <ele>24.9</ele>
      </trkpt>
      <trkpt lat="36.59628" lon="28.05568">
        <ele>26.2</ele>
      </trkpt>
      <trkpt lat="36.59597" lon="28.05535">
        <ele>28.6</ele>
      </trkpt>
      <trkpt lat="36.59561" lon="28.0552">
        <ele>31.1</ele>
      </trkpt>
      <trkpt lat="36.59511" lon="28.05499">
        <ele>31.5</ele>
      </trkpt>
      <trkpt lat="36.59484" lon="28.05478">
        <ele>33.3</ele>
      </trkpt>
      <trkpt lat="36.59443" lon="28.0545">
        <ele>33.2</ele>
      </trkpt>
      <trkpt lat="36.59413" lon="28.05428">
        <ele>32</ele>
      </trkpt>
      <trkpt lat="36.59381" lon="28.05394">
        <ele>33.4</ele>
      </trkpt>
      <trkpt lat="36.59349" lon="28.05364">
        <ele>36.4</ele>
      </trkpt>
      <trkpt lat="36.59303" lon="28.05355">
        <ele>36.4</ele>
      </trkpt>
      <trkpt lat="36.59245" lon="28.05338">
        <ele>34.6</ele>
      </trkpt>
      <trkpt lat="36.59208" lon="28.05331">
        <ele>33.9</ele>
      </trkpt>
      <trkpt lat="36.59208" lon="28.05331">
        <ele>33.9</ele>
      </trkpt>
      <trkpt lat="36.59146" lon="28.05293">
        <ele>36.6</ele>
      </trkpt>
      <trkpt lat="36.59096" lon="28.05241">
        <ele>34.1</ele>
      </trkpt>
      <trkpt lat="36.59062" lon="28.05225">
        <ele>32.7</ele>
      </trkpt>
      <trkpt lat="36.59061" lon="28.05217">
        <ele>33.4</ele>
      </trkpt>
      <trkpt lat="36.59061" lon="28.05219">
        <ele>33.2</ele>
      </trkpt>
      <trkpt lat="36.59061" lon="28.05209">
        <ele>34.1</ele>
      </trkpt>
      <trkpt lat="36.59061" lon="28.05199">
        <ele>35</ele>
      </trkpt>
      <trkpt lat="36.59059" lon="28.05184">
        <ele>36.2</ele>
      </trkpt>
      <trkpt lat="36.59057" lon="28.0518">
        <ele>36.3</ele>
      </trkpt>
      <trkpt lat="36.59052" lon="28.05166">
        <ele>37</ele>
      </trkpt>
      <trkpt lat="36.59052" lon="28.05162">
        <ele>37.6</ele>
      </trkpt>
      <trkpt lat="36.59051" lon="28.05154">
        <ele>38.6</ele>
      </trkpt>
      <trkpt lat="36.59052" lon="28.05137">
        <ele>40.9</ele>
      </trkpt>
      <trkpt lat="36.59053" lon="28.05136">
        <ele>41.2</ele>
      </trkpt>
      <trkpt lat="36.59055" lon="28.05121">
        <ele>43.3</ele>
      </trkpt>
      <trkpt lat="36.59053" lon="28.05107">
        <ele>44.9</ele>
      </trkpt>
      <trkpt lat="36.59052" lon="28.05107">
        <ele>44.9</ele>
      </trkpt>
      <trkpt lat="36.59041" lon="28.05092">
        <ele>45.8</ele>
      </trkpt>
      <trkpt lat="36.5904" lon="28.0509">
        <ele>46</ele>
      </trkpt>
      <trkpt lat="36.5904" lon="28.05082">
        <ele>47.3</ele>
      </trkpt>
      <trkpt lat="36.59039" lon="28.05078">
        <ele>48.5</ele>
      </trkpt>
      <trkpt lat="36.59034" lon="28.05069">
        <ele>50.6</ele>
      </trkpt>
      <trkpt lat="36.59031" lon="28.05061">
        <ele>52.8</ele>
      </trkpt>
      <trkpt lat="36.59027" lon="28.05058">
        <ele>53.2</ele>
      </trkpt>
      <trkpt lat="36.59018" lon="28.05051">
        <ele>54.9</ele>
      </trkpt>
      <trkpt lat="36.59017" lon="28.0505">
        <ele>55.2</ele>
      </trkpt>
      <trkpt lat="36.59016" lon="28.05047">
        <ele>56.1</ele>
      </trkpt>
      <trkpt lat="36.59011" lon="28.05038">
        <ele>58.6</ele>
      </trkpt>
      <trkpt lat="36.59004" lon="28.05032">
        <ele>59.7</ele>
      </trkpt>
      <trkpt lat="36.59006" lon="28.05027">
        <ele>61.7</ele>
      </trkpt>
      <trkpt lat="36.5901" lon="28.05022">
        <ele>63.4</ele>
      </trkpt>
      <trkpt lat="36.59012" lon="28.05017">
        <ele>65.1</ele>
      </trkpt>
      <trkpt lat="36.59014" lon="28.05014">
        <ele>66.2</ele>
      </trkpt>
      <trkpt lat="36.59018" lon="28.05011">
        <ele>67.3</ele>
      </trkpt>
      <trkpt lat="36.5902" lon="28.05008">
        <ele>68.3</ele>
      </trkpt>
      <trkpt lat="36.59021" lon="28.05006">
        <ele>69.2</ele>
      </trkpt>
      <trkpt lat="36.59025" lon="28.04998">
        <ele>72</ele>
      </trkpt>
      <trkpt lat="36.59027" lon="28.04994">
        <ele>73.5</ele>
      </trkpt>
      <trkpt lat="36.59028" lon="28.04992">
        <ele>74.1</ele>
      </trkpt>
      <trkpt lat="36.5903" lon="28.04987">
        <ele>75.9</ele>
      </trkpt>
      <trkpt lat="36.59031" lon="28.04985">
        <ele>76.5</ele>
      </trkpt>
      <trkpt lat="36.59032" lon="28.04976">
        <ele>79.6</ele>
      </trkpt>
      <trkpt lat="36.59034" lon="28.04975">
        <ele>80</ele>
      </trkpt>
      <trkpt lat="36.59035" lon="28.04975">
        <ele>80.1</ele>
      </trkpt>
      <trkpt lat="36.59041" lon="28.04971">
        <ele>81.4</ele>
      </trkpt>
      <trkpt lat="36.59048" lon="28.04969">
        <ele>82</ele>
      </trkpt>
      <trkpt lat="36.59052" lon="28.04966">
        <ele>82.7</ele>
      </trkpt>
      <trkpt lat="36.59054" lon="28.04961">
        <ele>84.1</ele>
      </trkpt>
      <trkpt lat="36.59056" lon="28.04953">
        <ele>86.5</ele>
      </trkpt>
      <trkpt lat="36.59058" lon="28.0495">
        <ele>87.5</ele>
      </trkpt>
      <trkpt lat="36.59061" lon="28.04934">
        <ele>91.7</ele>
      </trkpt>
      <trkpt lat="36.59063" lon="28.04929">
        <ele>93.1</ele>
      </trkpt>
      <trkpt lat="36.59064" lon="28.04919">
        <ele>95.8</ele>
      </trkpt>
      <trkpt lat="36.59064" lon="28.04905">
        <ele>97</ele>
      </trkpt>
      <trkpt lat="36.59065" lon="28.04897">
        <ele>97.3</ele>
      </trkpt>
      <trkpt lat="36.59063" lon="28.04884">
        <ele>98.2</ele>
      </trkpt>
      <trkpt lat="36.59067" lon="28.04869">
        <ele>98.5</ele>
      </trkpt>
      <trkpt lat="36.59064" lon="28.04857">
        <ele>99.7</ele>
      </trkpt>
      <trkpt lat="36.59061" lon="28.04851">
        <ele>100.4</ele>
      </trkpt>
      <trkpt lat="36.59063" lon="28.04838">
        <ele>100.9</ele>
      </trkpt>
      <trkpt lat="36.59067" lon="28.04833">
        <ele>100.4</ele>
      </trkpt>
      <trkpt lat="36.59067" lon="28.04831">
        <ele>100.3</ele>
      </trkpt>
      <trkpt lat="36.5907" lon="28.04825">
        <ele>99.5</ele>
      </trkpt>
      <trkpt lat="36.59071" lon="28.04816">
        <ele>98.7</ele>
      </trkpt>
      <trkpt lat="36.59073" lon="28.0481">
        <ele>98.2</ele>
      </trkpt>
      <trkpt lat="36.59076" lon="28.04803">
        <ele>97.3</ele>
      </trkpt>
      <trkpt lat="36.59079" lon="28.04792">
        <ele>96.4</ele>
      </trkpt>
      <trkpt lat="36.59081" lon="28.04781">
        <ele>95.5</ele>
      </trkpt>
      <trkpt lat="36.59084" lon="28.04767">
        <ele>94.6</ele>
      </trkpt>
      <trkpt lat="36.59083" lon="28.04764">
        <ele>94.6</ele>
      </trkpt>
      <trkpt lat="36.59082" lon="28.04755">
        <ele>94.4</ele>
      </trkpt>
      <trkpt lat="36.59083" lon="28.0475">
        <ele>94</ele>
      </trkpt>
      <trkpt lat="36.59086" lon="28.04729">
        <ele>95</ele>
      </trkpt>
      <trkpt lat="36.59084" lon="28.0471">
        <ele>95.6</ele>
      </trkpt>
      <trkpt lat="36.59083" lon="28.0469">
        <ele>96.2</ele>
      </trkpt>
      <trkpt lat="36.59084" lon="28.04681">
        <ele>96.6</ele>
      </trkpt>
      <trkpt lat="36.59084" lon="28.0468">
        <ele>96.6</ele>
      </trkpt>
      <trkpt lat="36.5909" lon="28.04659">
        <ele>99.1</ele>
      </trkpt>
      <trkpt lat="36.59089" lon="28.04644">
        <ele>101.7</ele>
      </trkpt>
      <trkpt lat="36.5909" lon="28.04634">
        <ele>103.5</ele>
      </trkpt>
      <trkpt lat="36.5909" lon="28.04628">
        <ele>104.5</ele>
      </trkpt>
      <trkpt lat="36.59087" lon="28.04616">
        <ele>106.4</ele>
      </trkpt>
      <trkpt lat="36.59088" lon="28.04615">
        <ele>106.6</ele>
      </trkpt>
      <trkpt lat="36.59093" lon="28.04602">
        <ele>109.1</ele>
      </trkpt>
      <trkpt lat="36.59097" lon="28.04592">
        <ele>110.9</ele>
      </trkpt>
      <trkpt lat="36.59097" lon="28.0459">
        <ele>111.2</ele>
      </trkpt>
      <trkpt lat="36.59097" lon="28.04578">
        <ele>113.1</ele>
      </trkpt>
      <trkpt lat="36.59096" lon="28.04572">
        <ele>114</ele>
      </trkpt>
      <trkpt lat="36.59095" lon="28.04569">
        <ele>114.3</ele>
      </trkpt>
      <trkpt lat="36.59094" lon="28.04567">
        <ele>114.6</ele>
      </trkpt>
      <trkpt lat="36.59093" lon="28.04554">
        <ele>116.5</ele>
      </trkpt>
      <trkpt lat="36.59091" lon="28.04541">
        <ele>118.3</ele>
      </trkpt>
      <trkpt lat="36.5909" lon="28.04536">
        <ele>119</ele>
      </trkpt>
      <trkpt lat="36.59089" lon="28.04533">
        <ele>119.4</ele>
      </trkpt>
      <trkpt lat="36.59086" lon="28.04527">
        <ele>120.2</ele>
      </trkpt>
      <trkpt lat="36.59083" lon="28.04522">
        <ele>120.9</ele>
      </trkpt>
      <trkpt lat="36.59082" lon="28.0452">
        <ele>121.4</ele>
      </trkpt>
      <trkpt lat="36.59078" lon="28.04511">
        <ele>123.5</ele>
      </trkpt>
      <trkpt lat="36.59076" lon="28.04508">
        <ele>124.7</ele>
      </trkpt>
      <trkpt lat="36.59073" lon="28.045">
        <ele>126.5</ele>
      </trkpt>
      <trkpt lat="36.5907" lon="28.04494">
        <ele>128.1</ele>
      </trkpt>
      <trkpt lat="36.59066" lon="28.04486">
        <ele>130.2</ele>
      </trkpt>
      <trkpt lat="36.59066" lon="28.04485">
        <ele>130.4</ele>
      </trkpt>
      <trkpt lat="36.59064" lon="28.04477">
        <ele>132.1</ele>
      </trkpt>
      <trkpt lat="36.59063" lon="28.04466">
        <ele>134.3</ele>
      </trkpt>
      <trkpt lat="36.59063" lon="28.04465">
        <ele>134.5</ele>
      </trkpt>
      <trkpt lat="36.59061" lon="28.04452">
        <ele>136.7</ele>
      </trkpt>
      <trkpt lat="36.59056" lon="28.04438">
        <ele>140</ele>
      </trkpt>
      <trkpt lat="36.59055" lon="28.04436">
        <ele>140.5</ele>
      </trkpt>
      <trkpt lat="36.59054" lon="28.04424">
        <ele>142.6</ele>
      </trkpt>
      <trkpt lat="36.59053" lon="28.04418">
        <ele>143.5</ele>
      </trkpt>
      <trkpt lat="36.59052" lon="28.04405">
        <ele>146.8</ele>
      </trkpt>
      <trkpt lat="36.59051" lon="28.044">
        <ele>148.2</ele>
      </trkpt>
      <trkpt lat="36.5905" lon="28.04388">
        <ele>151</ele>
      </trkpt>
      <trkpt lat="36.5905" lon="28.04385">
        <ele>151.9</ele>
      </trkpt>
      <trkpt lat="36.59048" lon="28.04374">
        <ele>154.7</ele>
      </trkpt>
      <trkpt lat="36.59047" lon="28.04361">
        <ele>158.1</ele>
      </trkpt>
      <trkpt lat="36.59047" lon="28.04362">
        <ele>158</ele>
      </trkpt>
      <trkpt lat="36.59042" lon="28.04352">
        <ele>161.1</ele>
      </trkpt>
      <trkpt lat="36.59042" lon="28.04344">
        <ele>163</ele>
      </trkpt>
      <trkpt lat="36.5904" lon="28.04337">
        <ele>164.8</ele>
      </trkpt>
      <trkpt lat="36.5904" lon="28.04328">
        <ele>166.9</ele>
      </trkpt>
      <trkpt lat="36.59039" lon="28.04317">
        <ele>169</ele>
      </trkpt>
      <trkpt lat="36.59039" lon="28.04302">
        <ele>171.6</ele>
      </trkpt>
      <trkpt lat="36.59034" lon="28.04289">
        <ele>174.8</ele>
      </trkpt>
      <trkpt lat="36.59034" lon="28.04287">
        <ele>175</ele>
      </trkpt>
      <trkpt lat="36.59032" lon="28.04275">
        <ele>177.6</ele>
      </trkpt>
      <trkpt lat="36.59031" lon="28.04262">
        <ele>180</ele>
      </trkpt>
      <trkpt lat="36.59028" lon="28.04247">
        <ele>182.9</ele>
      </trkpt>
      <trkpt lat="36.59028" lon="28.04238">
        <ele>183.9</ele>
      </trkpt>
      <trkpt lat="36.5903" lon="28.04231">
        <ele>184.5</ele>
      </trkpt>
      <trkpt lat="36.59029" lon="28.04217">
        <ele>186</ele>
      </trkpt>
      <trkpt lat="36.59026" lon="28.04203">
        <ele>187.6</ele>
      </trkpt>
      <trkpt lat="36.59026" lon="28.04201">
        <ele>187.9</ele>
      </trkpt>
      <trkpt lat="36.59021" lon="28.04196">
        <ele>188.6</ele>
      </trkpt>
      <trkpt lat="36.59016" lon="28.04187">
        <ele>189.5</ele>
      </trkpt>
      <trkpt lat="36.59009" lon="28.04182">
        <ele>189.9</ele>
      </trkpt>
      <trkpt lat="36.59008" lon="28.04181">
        <ele>190.1</ele>
      </trkpt>
      <trkpt lat="36.59004" lon="28.0417">
        <ele>190.8</ele>
      </trkpt>
      <trkpt lat="36.59001" lon="28.04166">
        <ele>191</ele>
      </trkpt>
      <trkpt lat="36.59" lon="28.04151">
        <ele>192.2</ele>
      </trkpt>
      <trkpt lat="36.59" lon="28.04146">
        <ele>192.6</ele>
      </trkpt>
      <trkpt lat="36.58996" lon="28.04143">
        <ele>193.9</ele>
      </trkpt>
      <trkpt lat="36.58993" lon="28.0414">
        <ele>195</ele>
      </trkpt>
      <trkpt lat="36.58992" lon="28.04127">
        <ele>196.2</ele>
      </trkpt>
      <trkpt lat="36.58991" lon="28.04124">
        <ele>196.6</ele>
      </trkpt>
      <trkpt lat="36.58989" lon="28.04111">
        <ele>198.1</ele>
      </trkpt>
      <trkpt lat="36.58986" lon="28.04099">
        <ele>199.6</ele>
      </trkpt>
      <trkpt lat="36.58981" lon="28.04087">
        <ele>201.6</ele>
      </trkpt>
      <trkpt lat="36.58978" lon="28.04085">
        <ele>202.4</ele>
      </trkpt>
      <trkpt lat="36.58977" lon="28.04086">
        <ele>202.6</ele>
      </trkpt>
      <trkpt lat="36.58975" lon="28.04081">
        <ele>203.8</ele>
      </trkpt>
      <trkpt lat="36.58972" lon="28.04067">
        <ele>206</ele>
      </trkpt>
      <trkpt lat="36.58966" lon="28.04049">
        <ele>209</ele>
      </trkpt>
      <trkpt lat="36.58961" lon="28.04039">
        <ele>210.6</ele>
      </trkpt>
      <trkpt lat="36.58958" lon="28.04033">
        <ele>211.5</ele>
      </trkpt>
      <trkpt lat="36.58947" lon="28.04021">
        <ele>213.3</ele>
      </trkpt>
      <trkpt lat="36.58938" lon="28.04012">
        <ele>214.2</ele>
      </trkpt>
      <trkpt lat="36.58933" lon="28.04012">
        <ele>214.5</ele>
      </trkpt>
      <trkpt lat="36.58927" lon="28.04">
        <ele>214.8</ele>
      </trkpt>
      <trkpt lat="36.58917" lon="28.03986">
        <ele>216.5</ele>
      </trkpt>
      <trkpt lat="36.58904" lon="28.03974">
        <ele>219.5</ele>
      </trkpt>
      <trkpt lat="36.58899" lon="28.03966">
        <ele>220.5</ele>
      </trkpt>
      <trkpt lat="36.58891" lon="28.03959">
        <ele>221.5</ele>
      </trkpt>
      <trkpt lat="36.5889" lon="28.03958">
        <ele>221.6</ele>
      </trkpt>
      <trkpt lat="36.58883" lon="28.03945">
        <ele>222.1</ele>
      </trkpt>
      <trkpt lat="36.58881" lon="28.03936">
        <ele>222.1</ele>
      </trkpt>
      <trkpt lat="36.58879" lon="28.03928">
        <ele>221.9</ele>
      </trkpt>
      <trkpt lat="36.58877" lon="28.03922">
        <ele>221.8</ele>
      </trkpt>
      <trkpt lat="36.5887" lon="28.0391">
        <ele>222.3</ele>
      </trkpt>
      <trkpt lat="36.58867" lon="28.03896">
        <ele>224.2</ele>
      </trkpt>
      <trkpt lat="36.58865" lon="28.03894">
        <ele>224.3</ele>
      </trkpt>
      <trkpt lat="36.58861" lon="28.03886">
        <ele>224.9</ele>
      </trkpt>
      <trkpt lat="36.58858" lon="28.0388">
        <ele>225.1</ele>
      </trkpt>
      <trkpt lat="36.58854" lon="28.03872">
        <ele>225.2</ele>
      </trkpt>
      <trkpt lat="36.58843" lon="28.03862">
        <ele>223.3</ele>
      </trkpt>
      <trkpt lat="36.5884" lon="28.03861">
        <ele>222.8</ele>
      </trkpt>
      <trkpt lat="36.58833" lon="28.03853">
        <ele>221.3</ele>
      </trkpt>
      <trkpt lat="36.58825" lon="28.03842">
        <ele>220.4</ele>
      </trkpt>
      <trkpt lat="36.58816" lon="28.03833">
        <ele>219.2</ele>
      </trkpt>
      <trkpt lat="36.58811" lon="28.03823">
        <ele>219.1</ele>
      </trkpt>
      <trkpt lat="36.58802" lon="28.03815">
        <ele>218.2</ele>
      </trkpt>
      <trkpt lat="36.58791" lon="28.03803">
        <ele>217.2</ele>
      </trkpt>
      <trkpt lat="36.58788" lon="28.0379">
        <ele>217.5</ele>
      </trkpt>
      <trkpt lat="36.58787" lon="28.03785">
        <ele>217.5</ele>
      </trkpt>
      <trkpt lat="36.58785" lon="28.03775">
        <ele>217.7</ele>
      </trkpt>
      <trkpt lat="36.58783" lon="28.0377">
        <ele>217.7</ele>
      </trkpt>
      <trkpt lat="36.58783" lon="28.03767">
        <ele>217.8</ele>
      </trkpt>
      <trkpt lat="36.58784" lon="28.03762">
        <ele>218.3</ele>
      </trkpt>
      <trkpt lat="36.5878" lon="28.03752">
        <ele>218</ele>
      </trkpt>
      <trkpt lat="36.58781" lon="28.03743">
        <ele>218.7</ele>
      </trkpt>
      <trkpt lat="36.5878" lon="28.03737">
        <ele>218.8</ele>
      </trkpt>
      <trkpt lat="36.58779" lon="28.03729">
        <ele>219</ele>
      </trkpt>
      <trkpt lat="36.58778" lon="28.03717">
        <ele>219.2</ele>
      </trkpt>
      <trkpt lat="36.58776" lon="28.03715">
        <ele>218.9</ele>
      </trkpt>
      <trkpt lat="36.58771" lon="28.0371">
        <ele>218.3</ele>
      </trkpt>
      <trkpt lat="36.58759" lon="28.03702">
        <ele>216.3</ele>
      </trkpt>
      <trkpt lat="36.58751" lon="28.03697">
        <ele>215</ele>
      </trkpt>
      <trkpt lat="36.58742" lon="28.03686">
        <ele>216.2</ele>
      </trkpt>
      <trkpt lat="36.58739" lon="28.03675">
        <ele>217.2</ele>
      </trkpt>
      <trkpt lat="36.58735" lon="28.03665">
        <ele>218.2</ele>
      </trkpt>
      <trkpt lat="36.58731" lon="28.03658">
        <ele>219.1</ele>
      </trkpt>
      <trkpt lat="36.58729" lon="28.03657">
        <ele>219.2</ele>
      </trkpt>
      <trkpt lat="36.58725" lon="28.03648">
        <ele>220.2</ele>
      </trkpt>
      <trkpt lat="36.58721" lon="28.03641">
        <ele>221</ele>
      </trkpt>
      <trkpt lat="36.58717" lon="28.03637">
        <ele>221.6</ele>
      </trkpt>
      <trkpt lat="36.58707" lon="28.03626">
        <ele>223.1</ele>
      </trkpt>
      <trkpt lat="36.58702" lon="28.03617">
        <ele>223.9</ele>
      </trkpt>
      <trkpt lat="36.58695" lon="28.03601">
        <ele>225.4</ele>
      </trkpt>
      <trkpt lat="36.58689" lon="28.03594">
        <ele>226.2</ele>
      </trkpt>
      <trkpt lat="36.58686" lon="28.03584">
        <ele>227</ele>
      </trkpt>
      <trkpt lat="36.58684" lon="28.03566">
        <ele>228</ele>
      </trkpt>
      <trkpt lat="36.58679" lon="28.03562">
        <ele>228.3</ele>
      </trkpt>
      <trkpt lat="36.58674" lon="28.03557">
        <ele>228.7</ele>
      </trkpt>
      <trkpt lat="36.58668" lon="28.03546">
        <ele>229.3</ele>
      </trkpt>
      <trkpt lat="36.58662" lon="28.03538">
        <ele>230.3</ele>
      </trkpt>
      <trkpt lat="36.5866" lon="28.03537">
        <ele>230.6</ele>
      </trkpt>
      <trkpt lat="36.58657" lon="28.03534">
        <ele>231.1</ele>
      </trkpt>
      <trkpt lat="36.58653" lon="28.03532">
        <ele>231.5</ele>
      </trkpt>
      <trkpt lat="36.58653" lon="28.03532">
        <ele>231.7</ele>
      </trkpt>
      <trkpt lat="36.58649" lon="28.0353">
        <ele>232.2</ele>
      </trkpt>
      <trkpt lat="36.58643" lon="28.03526">
        <ele>232.9</ele>
      </trkpt>
      <trkpt lat="36.5864" lon="28.03517">
        <ele>233.1</ele>
      </trkpt>
      <trkpt lat="36.58636" lon="28.03502">
        <ele>233.2</ele>
      </trkpt>
      <trkpt lat="36.58632" lon="28.03493">
        <ele>233.5</ele>
      </trkpt>
      <trkpt lat="36.5863" lon="28.03492">
        <ele>233.6</ele>
      </trkpt>
      <trkpt lat="36.58627" lon="28.03487">
        <ele>233.8</ele>
      </trkpt>
      <trkpt lat="36.58626" lon="28.03486">
        <ele>233.9</ele>
      </trkpt>
      <trkpt lat="36.58615" lon="28.03481">
        <ele>234.5</ele>
      </trkpt>
      <trkpt lat="36.58608" lon="28.03473">
        <ele>234.7</ele>
      </trkpt>
      <trkpt lat="36.58603" lon="28.03469">
        <ele>234.9</ele>
      </trkpt>
      <trkpt lat="36.58601" lon="28.03468">
        <ele>235</ele>
      </trkpt>
      <trkpt lat="36.58593" lon="28.0346">
        <ele>235.2</ele>
      </trkpt>
      <trkpt lat="36.58587" lon="28.03448">
        <ele>235</ele>
      </trkpt>
      <trkpt lat="36.58581" lon="28.03444">
        <ele>235.1</ele>
      </trkpt>
      <trkpt lat="36.58579" lon="28.03441">
        <ele>235.1</ele>
      </trkpt>
      <trkpt lat="36.58573" lon="28.03431">
        <ele>235</ele>
      </trkpt>
      <trkpt lat="36.58564" lon="28.03412">
        <ele>235.1</ele>
      </trkpt>
      <trkpt lat="36.58559" lon="28.03393">
        <ele>236.6</ele>
      </trkpt>
      <trkpt lat="36.58554" lon="28.03376">
        <ele>237.8</ele>
      </trkpt>
      <trkpt lat="36.5856" lon="28.03363">
        <ele>238.8</ele>
      </trkpt>
      <trkpt lat="36.58559" lon="28.0336">
        <ele>238.9</ele>
      </trkpt>
      <trkpt lat="36.58555" lon="28.03352">
        <ele>239.4</ele>
      </trkpt>
      <trkpt lat="36.58557" lon="28.03352">
        <ele>239.4</ele>
      </trkpt>
      <trkpt lat="36.58561" lon="28.03347">
        <ele>239.9</ele>
      </trkpt>
      <trkpt lat="36.58563" lon="28.03345">
        <ele>240.2</ele>
      </trkpt>
      <trkpt lat="36.58569" lon="28.03342">
        <ele>240.6</ele>
      </trkpt>
      <trkpt lat="36.58567" lon="28.03342">
        <ele>240.5</ele>
      </trkpt>
      <trkpt lat="36.58574" lon="28.03334">
        <ele>241.5</ele>
      </trkpt>
      <trkpt lat="36.58577" lon="28.03331">
        <ele>242.5</ele>
      </trkpt>
      <trkpt lat="36.58579" lon="28.03324">
        <ele>244.5</ele>
      </trkpt>
      <trkpt lat="36.58576" lon="28.03313">
        <ele>247.4</ele>
      </trkpt>
      <trkpt lat="36.58576" lon="28.03312">
        <ele>247.6</ele>
      </trkpt>
      <trkpt lat="36.58576" lon="28.03311">
        <ele>247.9</ele>
      </trkpt>
      <trkpt lat="36.58579" lon="28.03307">
        <ele>249.3</ele>
      </trkpt>
      <trkpt lat="36.58579" lon="28.03301">
        <ele>251.3</ele>
      </trkpt>
      <trkpt lat="36.58579" lon="28.03298">
        <ele>252.1</ele>
      </trkpt>
      <trkpt lat="36.58577" lon="28.03292">
        <ele>253.5</ele>
      </trkpt>
      <trkpt lat="36.58577" lon="28.03289">
        <ele>254.3</ele>
      </trkpt>
      <trkpt lat="36.58576" lon="28.03287">
        <ele>254.9</ele>
      </trkpt>
      <trkpt lat="36.58574" lon="28.03285">
        <ele>255.1</ele>
      </trkpt>
      <trkpt lat="36.58569" lon="28.0328">
        <ele>255.8</ele>
      </trkpt>
      <trkpt lat="36.58567" lon="28.03278">
        <ele>256</ele>
      </trkpt>
      <trkpt lat="36.5856" lon="28.03265">
        <ele>258.1</ele>
      </trkpt>
      <trkpt lat="36.58557" lon="28.03262">
        <ele>258.1</ele>
      </trkpt>
      <trkpt lat="36.58557" lon="28.03261">
        <ele>258.2</ele>
      </trkpt>
      <trkpt lat="36.5856" lon="28.03255">
        <ele>260.4</ele>
      </trkpt>
      <trkpt lat="36.5856" lon="28.03254">
        <ele>260.7</ele>
      </trkpt>
      <trkpt lat="36.58557" lon="28.03239">
        <ele>264.2</ele>
      </trkpt>
      <trkpt lat="36.58558" lon="28.03237">
        <ele>265.3</ele>
      </trkpt>
      <trkpt lat="36.58558" lon="28.03235">
        <ele>265.6</ele>
      </trkpt>
      <trkpt lat="36.58556" lon="28.03229">
        <ele>266.8</ele>
      </trkpt>
      <trkpt lat="36.58553" lon="28.03219">
        <ele>268.7</ele>
      </trkpt>
      <trkpt lat="36.58551" lon="28.03215">
        <ele>269.3</ele>
      </trkpt>
      <trkpt lat="36.58544" lon="28.03201">
        <ele>271</ele>
      </trkpt>
      <trkpt lat="36.58539" lon="28.03193">
        <ele>271.3</ele>
      </trkpt>
      <trkpt lat="36.58536" lon="28.03183">
        <ele>272.6</ele>
      </trkpt>
      <trkpt lat="36.58527" lon="28.03172">
        <ele>271.9</ele>
      </trkpt>
      <trkpt lat="36.58522" lon="28.03166">
        <ele>270.9</ele>
      </trkpt>
      <trkpt lat="36.5852" lon="28.03164">
        <ele>270.7</ele>
      </trkpt>
      <trkpt lat="36.58513" lon="28.03158">
        <ele>269</ele>
      </trkpt>
      <trkpt lat="36.58509" lon="28.03152">
        <ele>268.7</ele>
      </trkpt>
      <trkpt lat="36.58507" lon="28.03148">
        <ele>268.5</ele>
      </trkpt>
      <trkpt lat="36.58502" lon="28.03132">
        <ele>269.4</ele>
      </trkpt>
      <trkpt lat="36.58496" lon="28.03126">
        <ele>270.1</ele>
      </trkpt>
      <trkpt lat="36.58491" lon="28.03112">
        <ele>273</ele>
      </trkpt>
      <trkpt lat="36.5849" lon="28.03107">
        <ele>274</ele>
      </trkpt>
      <trkpt lat="36.58482" lon="28.03093">
        <ele>276.6</ele>
      </trkpt>
      <trkpt lat="36.58476" lon="28.03085">
        <ele>278.1</ele>
      </trkpt>
      <trkpt lat="36.58473" lon="28.03078">
        <ele>278.6</ele>
      </trkpt>
      <trkpt lat="36.58473" lon="28.03077">
        <ele>278.6</ele>
      </trkpt>
      <trkpt lat="36.58468" lon="28.03065">
        <ele>279.1</ele>
      </trkpt>
      <trkpt lat="36.58464" lon="28.03055">
        <ele>279.2</ele>
      </trkpt>
      <trkpt lat="36.58459" lon="28.03044">
        <ele>279.2</ele>
      </trkpt>
      <trkpt lat="36.58459" lon="28.03037">
        <ele>279.4</ele>
      </trkpt>
      <trkpt lat="36.58455" lon="28.0303">
        <ele>279.2</ele>
      </trkpt>
      <trkpt lat="36.58454" lon="28.03027">
        <ele>279.1</ele>
      </trkpt>
      <trkpt lat="36.58455" lon="28.03015">
        <ele>279.3</ele>
      </trkpt>
      <trkpt lat="36.58455" lon="28.03011">
        <ele>279.4</ele>
      </trkpt>
      <trkpt lat="36.58453" lon="28.03002">
        <ele>279.3</ele>
      </trkpt>
      <trkpt lat="36.5845" lon="28.02992">
        <ele>277.9</ele>
      </trkpt>
      <trkpt lat="36.58449" lon="28.02988">
        <ele>277.2</ele>
      </trkpt>
      <trkpt lat="36.58449" lon="28.02976">
        <ele>275.6</ele>
      </trkpt>
      <trkpt lat="36.58447" lon="28.02973">
        <ele>274.8</ele>
      </trkpt>
      <trkpt lat="36.58443" lon="28.02967">
        <ele>273.4</ele>
      </trkpt>
      <trkpt lat="36.58443" lon="28.02965">
        <ele>273</ele>
      </trkpt>
      <trkpt lat="36.58439" lon="28.02953">
        <ele>270.6</ele>
      </trkpt>
      <trkpt lat="36.58438" lon="28.02936">
        <ele>268.1</ele>
      </trkpt>
      <trkpt lat="36.58439" lon="28.02931">
        <ele>267.6</ele>
      </trkpt>
      <trkpt lat="36.5844" lon="28.02926">
        <ele>267</ele>
      </trkpt>
      <trkpt lat="36.58439" lon="28.02922">
        <ele>266.3</ele>
      </trkpt>
      <trkpt lat="36.58436" lon="28.02918">
        <ele>265.1</ele>
      </trkpt>
      <trkpt lat="36.58433" lon="28.02909">
        <ele>263.3</ele>
      </trkpt>
      <trkpt lat="36.58431" lon="28.02903">
        <ele>262</ele>
      </trkpt>
      <trkpt lat="36.58432" lon="28.02895">
        <ele>261.2</ele>
      </trkpt>
      <trkpt lat="36.58435" lon="28.02888">
        <ele>261.2</ele>
      </trkpt>
      <trkpt lat="36.58435" lon="28.02879">
        <ele>260.4</ele>
      </trkpt>
      <trkpt lat="36.58436" lon="28.02866">
        <ele>259.4</ele>
      </trkpt>
      <trkpt lat="36.58436" lon="28.02856">
        <ele>258.2</ele>
      </trkpt>
      <trkpt lat="36.58435" lon="28.02854">
        <ele>257.4</ele>
      </trkpt>
      <trkpt lat="36.58433" lon="28.02843">
        <ele>255.6</ele>
      </trkpt>
      <trkpt lat="36.58432" lon="28.02839">
        <ele>254.8</ele>
      </trkpt>
      <trkpt lat="36.58428" lon="28.0283">
        <ele>252</ele>
      </trkpt>
      <trkpt lat="36.58424" lon="28.02814">
        <ele>249.4</ele>
      </trkpt>
      <trkpt lat="36.58424" lon="28.02803">
        <ele>248.6</ele>
      </trkpt>
      <trkpt lat="36.58419" lon="28.02792">
        <ele>245.3</ele>
      </trkpt>
      <trkpt lat="36.58417" lon="28.02776">
        <ele>243.2</ele>
      </trkpt>
      <trkpt lat="36.58414" lon="28.02767">
        <ele>242.8</ele>
      </trkpt>
      <trkpt lat="36.58411" lon="28.0275">
        <ele>241.9</ele>
      </trkpt>
      <trkpt lat="36.5841" lon="28.02735">
        <ele>241.1</ele>
      </trkpt>
      <trkpt lat="36.58406" lon="28.02719">
        <ele>241</ele>
      </trkpt>
      <trkpt lat="36.58403" lon="28.02707">
        <ele>241.4</ele>
      </trkpt>
      <trkpt lat="36.58402" lon="28.02697">
        <ele>241.1</ele>
      </trkpt>
      <trkpt lat="36.58401" lon="28.02681">
        <ele>240.7</ele>
      </trkpt>
      <trkpt lat="36.58402" lon="28.02677">
        <ele>240.2</ele>
      </trkpt>
      <trkpt lat="36.58402" lon="28.02673">
        <ele>240.1</ele>
      </trkpt>
      <trkpt lat="36.58401" lon="28.02661">
        <ele>240</ele>
      </trkpt>
      <trkpt lat="36.58401" lon="28.02642">
        <ele>239.8</ele>
      </trkpt>
      <trkpt lat="36.58402" lon="28.02637">
        <ele>239.4</ele>
      </trkpt>
      <trkpt lat="36.58402" lon="28.02638">
        <ele>239.3</ele>
      </trkpt>
      <trkpt lat="36.58399" lon="28.02627">
        <ele>240.4</ele>
      </trkpt>
      <trkpt lat="36.58401" lon="28.02613">
        <ele>239.1</ele>
      </trkpt>
      <trkpt lat="36.58401" lon="28.02606">
        <ele>239.3</ele>
      </trkpt>
      <trkpt lat="36.58403" lon="28.02592">
        <ele>237.9</ele>
      </trkpt>
      <trkpt lat="36.58404" lon="28.02579">
        <ele>237.6</ele>
      </trkpt>
      <trkpt lat="36.58405" lon="28.02571">
        <ele>237.5</ele>
      </trkpt>
      <trkpt lat="36.58405" lon="28.02572">
        <ele>237.7</ele>
      </trkpt>
      <trkpt lat="36.58406" lon="28.02564">
        <ele>237.4</ele>
      </trkpt>
      <trkpt lat="36.58406" lon="28.0256">
        <ele>237.6</ele>
      </trkpt>
      <trkpt lat="36.5841" lon="28.02546">
        <ele>236.7</ele>
      </trkpt>
      <trkpt lat="36.58409" lon="28.02541">
        <ele>237.2</ele>
      </trkpt>
      <trkpt lat="36.58412" lon="28.02534">
        <ele>236.5</ele>
      </trkpt>
      <trkpt lat="36.58414" lon="28.0252">
        <ele>236.1</ele>
      </trkpt>
      <trkpt lat="36.58416" lon="28.02507">
        <ele>235.8</ele>
      </trkpt>
      <trkpt lat="36.58414" lon="28.025">
        <ele>237.2</ele>
      </trkpt>
      <trkpt lat="36.58414" lon="28.0249">
        <ele>238.8</ele>
      </trkpt>
      <trkpt lat="36.58414" lon="28.02486">
        <ele>239.7</ele>
      </trkpt>
      <trkpt lat="36.58414" lon="28.02477">
        <ele>241.1</ele>
      </trkpt>
      <trkpt lat="36.58414" lon="28.02476">
        <ele>241.4</ele>
      </trkpt>
      <trkpt lat="36.58416" lon="28.02462">
        <ele>243.2</ele>
      </trkpt>
      <trkpt lat="36.58415" lon="28.0246">
        <ele>243.7</ele>
      </trkpt>
      <trkpt lat="36.58412" lon="28.02451">
        <ele>246.5</ele>
      </trkpt>
      <trkpt lat="36.5841" lon="28.0244">
        <ele>248.8</ele>
      </trkpt>
      <trkpt lat="36.58409" lon="28.02426">
        <ele>251.4</ele>
      </trkpt>
      <trkpt lat="36.58405" lon="28.02422">
        <ele>253.1</ele>
      </trkpt>
      <trkpt lat="36.58405" lon="28.0242">
        <ele>253.6</ele>
      </trkpt>
      <trkpt lat="36.58406" lon="28.02402">
        <ele>251.3</ele>
      </trkpt>
      <trkpt lat="36.58403" lon="28.02396">
        <ele>251.1</ele>
      </trkpt>
      <trkpt lat="36.58401" lon="28.02394">
        <ele>251.1</ele>
      </trkpt>
      <trkpt lat="36.584" lon="28.02385">
        <ele>250</ele>
      </trkpt>
      <trkpt lat="36.58393" lon="28.02376">
        <ele>250.2</ele>
      </trkpt>
      <trkpt lat="36.58388" lon="28.02366">
        <ele>249.5</ele>
      </trkpt>
      <trkpt lat="36.58387" lon="28.02365">
        <ele>249.5</ele>
      </trkpt>
      <trkpt lat="36.58382" lon="28.02355">
        <ele>248.9</ele>
      </trkpt>
      <trkpt lat="36.58378" lon="28.02344">
        <ele>247.7</ele>
      </trkpt>
      <trkpt lat="36.58375" lon="28.02336">
        <ele>246.9</ele>
      </trkpt>
      <trkpt lat="36.58372" lon="28.0233">
        <ele>245.6</ele>
      </trkpt>
      <trkpt lat="36.58372" lon="28.02323">
        <ele>242.6</ele>
      </trkpt>
      <trkpt lat="36.58369" lon="28.02313">
        <ele>239.3</ele>
      </trkpt>
      <trkpt lat="36.58369" lon="28.02312">
        <ele>239.1</ele>
      </trkpt>
      <trkpt lat="36.58364" lon="28.02303">
        <ele>236.6</ele>
      </trkpt>
      <trkpt lat="36.58362" lon="28.02293">
        <ele>233.1</ele>
      </trkpt>
      <trkpt lat="36.58362" lon="28.02287">
        <ele>230.7</ele>
      </trkpt>
      <trkpt lat="36.58361" lon="28.02285">
        <ele>230.3</ele>
      </trkpt>
      <trkpt lat="36.58358" lon="28.02272">
        <ele>226</ele>
      </trkpt>
      <trkpt lat="36.58354" lon="28.02268">
        <ele>225.6</ele>
      </trkpt>
      <trkpt lat="36.58346" lon="28.02257">
        <ele>223.5</ele>
      </trkpt>
      <trkpt lat="36.58339" lon="28.02243">
        <ele>220.5</ele>
      </trkpt>
      <trkpt lat="36.58332" lon="28.02231">
        <ele>218.1</ele>
      </trkpt>
      <trkpt lat="36.5833" lon="28.02228">
        <ele>218</ele>
      </trkpt>
      <trkpt lat="36.58323" lon="28.02219">
        <ele>217.5</ele>
      </trkpt>
      <trkpt lat="36.5832" lon="28.02212">
        <ele>216.4</ele>
      </trkpt>
      <trkpt lat="36.58312" lon="28.02197">
        <ele>213.8</ele>
      </trkpt>
      <trkpt lat="36.58307" lon="28.02193">
        <ele>214.6</ele>
      </trkpt>
      <trkpt lat="36.583" lon="28.02184">
        <ele>214.1</ele>
      </trkpt>
      <trkpt lat="36.58293" lon="28.02175">
        <ele>213.8</ele>
      </trkpt>
      <trkpt lat="36.58292" lon="28.02173">
        <ele>213.1</ele>
      </trkpt>
      <trkpt lat="36.58291" lon="28.02159">
        <ele>208.9</ele>
      </trkpt>
      <trkpt lat="36.58287" lon="28.02153">
        <ele>209</ele>
      </trkpt>
      <trkpt lat="36.58288" lon="28.02151">
        <ele>207.8</ele>
      </trkpt>
      <trkpt lat="36.58288" lon="28.02144">
        <ele>205.4</ele>
      </trkpt>
      <trkpt lat="36.58287" lon="28.02139">
        <ele>204.6</ele>
      </trkpt>
      <trkpt lat="36.58284" lon="28.02129">
        <ele>202.6</ele>
      </trkpt>
      <trkpt lat="36.5828" lon="28.02116">
        <ele>200.4</ele>
      </trkpt>
      <trkpt lat="36.58275" lon="28.02104">
        <ele>199.1</ele>
      </trkpt>
      <trkpt lat="36.5827" lon="28.02096">
        <ele>198.8</ele>
      </trkpt>
      <trkpt lat="36.58268" lon="28.02092">
        <ele>198.8</ele>
      </trkpt>
      <trkpt lat="36.58264" lon="28.02085">
        <ele>198.6</ele>
      </trkpt>
      <trkpt lat="36.58262" lon="28.02081">
        <ele>198.5</ele>
      </trkpt>
      <trkpt lat="36.58261" lon="28.0208">
        <ele>198.4</ele>
      </trkpt>
      <trkpt lat="36.5826" lon="28.02066">
        <ele>195.2</ele>
      </trkpt>
      <trkpt lat="36.58257" lon="28.02059">
        <ele>194.6</ele>
      </trkpt>
      <trkpt lat="36.58256" lon="28.02046">
        <ele>191.2</ele>
      </trkpt>
      <trkpt lat="36.58251" lon="28.02031">
        <ele>189.5</ele>
      </trkpt>
      <trkpt lat="36.58248" lon="28.02018">
        <ele>187.3</ele>
      </trkpt>
      <trkpt lat="36.58244" lon="28.02006">
        <ele>185.3</ele>
      </trkpt>
      <trkpt lat="36.58243" lon="28.01995">
        <ele>182.5</ele>
      </trkpt>
      <trkpt lat="36.58241" lon="28.01984">
        <ele>180.2</ele>
      </trkpt>
      <trkpt lat="36.58238" lon="28.01976">
        <ele>178.7</ele>
      </trkpt>
      <trkpt lat="36.58235" lon="28.01964">
        <ele>176.3</ele>
      </trkpt>
      <trkpt lat="36.58232" lon="28.01956">
        <ele>175</ele>
      </trkpt>
      <trkpt lat="36.58226" lon="28.01939">
        <ele>172.4</ele>
      </trkpt>
      <trkpt lat="36.58222" lon="28.01935">
        <ele>172.6</ele>
      </trkpt>
      <trkpt lat="36.58221" lon="28.01931">
        <ele>172.2</ele>
      </trkpt>
      <trkpt lat="36.58216" lon="28.01918">
        <ele>170.5</ele>
      </trkpt>
      <trkpt lat="36.58213" lon="28.01912">
        <ele>169.4</ele>
      </trkpt>
      <trkpt lat="36.58208" lon="28.01898">
        <ele>166.5</ele>
      </trkpt>
      <trkpt lat="36.58207" lon="28.01895">
        <ele>165.7</ele>
      </trkpt>
      <trkpt lat="36.58207" lon="28.01892">
        <ele>164.9</ele>
      </trkpt>
      <trkpt lat="36.58201" lon="28.01879">
        <ele>162.5</ele>
      </trkpt>
      <trkpt lat="36.58197" lon="28.01869">
        <ele>160.7</ele>
      </trkpt>
      <trkpt lat="36.58192" lon="28.01858">
        <ele>159.3</ele>
      </trkpt>
      <trkpt lat="36.5819" lon="28.01851">
        <ele>157.9</ele>
      </trkpt>
      <trkpt lat="36.58182" lon="28.0184">
        <ele>157.7</ele>
      </trkpt>
      <trkpt lat="36.58174" lon="28.01834">
        <ele>159.8</ele>
      </trkpt>
      <trkpt lat="36.58169" lon="28.01827">
        <ele>158.9</ele>
      </trkpt>
      <trkpt lat="36.58165" lon="28.01818">
        <ele>156</ele>
      </trkpt>
      <trkpt lat="36.58159" lon="28.01813">
        <ele>153.2</ele>
      </trkpt>
      <trkpt lat="36.58158" lon="28.01813">
        <ele>153.1</ele>
      </trkpt>
      <trkpt lat="36.58153" lon="28.01807">
        <ele>150.3</ele>
      </trkpt>
      <trkpt lat="36.5815" lon="28.01805">
        <ele>149.3</ele>
      </trkpt>
      <trkpt lat="36.58147" lon="28.01797">
        <ele>145.6</ele>
      </trkpt>
      <trkpt lat="36.58139" lon="28.01792">
        <ele>142.7</ele>
      </trkpt>
      <trkpt lat="36.58138" lon="28.01792">
        <ele>142.9</ele>
      </trkpt>
      <trkpt lat="36.58132" lon="28.01792">
        <ele>142.4</ele>
      </trkpt>
      <trkpt lat="36.58123" lon="28.01788">
        <ele>139.9</ele>
      </trkpt>
      <trkpt lat="36.58116" lon="28.01781">
        <ele>136.6</ele>
      </trkpt>
      <trkpt lat="36.58109" lon="28.01781">
        <ele>136.3</ele>
      </trkpt>
      <trkpt lat="36.58103" lon="28.01775">
        <ele>133.8</ele>
      </trkpt>
      <trkpt lat="36.58097" lon="28.01772">
        <ele>132.1</ele>
      </trkpt>
      <trkpt lat="36.58091" lon="28.01768">
        <ele>130.1</ele>
      </trkpt>
      <trkpt lat="36.58083" lon="28.01765">
        <ele>128.6</ele>
      </trkpt>
      <trkpt lat="36.58072" lon="28.01769">
        <ele>128.7</ele>
      </trkpt>
      <trkpt lat="36.58069" lon="28.01769">
        <ele>128.6</ele>
      </trkpt>
      <trkpt lat="36.58058" lon="28.01773">
        <ele>128.6</ele>
      </trkpt>
      <trkpt lat="36.58053" lon="28.01782">
        <ele>131.9</ele>
      </trkpt>
      <trkpt lat="36.58051" lon="28.01784">
        <ele>132.1</ele>
      </trkpt>
      <trkpt lat="36.5804" lon="28.01792">
        <ele>134.1</ele>
      </trkpt>
      <trkpt lat="36.5804" lon="28.01791">
        <ele>133.9</ele>
      </trkpt>
      <trkpt lat="36.58035" lon="28.01788">
        <ele>132.1</ele>
      </trkpt>
      <trkpt lat="36.58027" lon="28.01788">
        <ele>130.8</ele>
      </trkpt>
      <trkpt lat="36.58017" lon="28.01783">
        <ele>127.8</ele>
      </trkpt>
      <trkpt lat="36.58009" lon="28.01779">
        <ele>125.3</ele>
      </trkpt>
      <trkpt lat="36.58005" lon="28.01775">
        <ele>123.2</ele>
      </trkpt>
      <trkpt lat="36.57998" lon="28.01768">
        <ele>119.3</ele>
      </trkpt>
      <trkpt lat="36.57991" lon="28.01762">
        <ele>116.9</ele>
      </trkpt>
      <trkpt lat="36.57991" lon="28.01761">
        <ele>116.5</ele>
      </trkpt>
      <trkpt lat="36.57985" lon="28.01753">
        <ele>113</ele>
      </trkpt>
      <trkpt lat="36.5798" lon="28.01745">
        <ele>109.7</ele>
      </trkpt>
      <trkpt lat="36.57978" lon="28.01742">
        <ele>108.6</ele>
      </trkpt>
      <trkpt lat="36.57976" lon="28.0174">
        <ele>107.7</ele>
      </trkpt>
      <trkpt lat="36.57967" lon="28.01738">
        <ele>106.8</ele>
      </trkpt>
      <trkpt lat="36.57966" lon="28.01735">
        <ele>105.5</ele>
      </trkpt>
      <trkpt lat="36.57962" lon="28.01731">
        <ele>104.1</ele>
      </trkpt>
      <trkpt lat="36.57958" lon="28.01728">
        <ele>102.8</ele>
      </trkpt>
      <trkpt lat="36.57959" lon="28.01724">
        <ele>101.2</ele>
      </trkpt>
      <trkpt lat="36.57954" lon="28.01719">
        <ele>99.5</ele>
      </trkpt>
      <trkpt lat="36.57947" lon="28.01716">
        <ele>98.2</ele>
      </trkpt>
      <trkpt lat="36.57938" lon="28.01709">
        <ele>95.9</ele>
      </trkpt>
      <trkpt lat="36.57928" lon="28.01704">
        <ele>94.1</ele>
      </trkpt>
      <trkpt lat="36.57927" lon="28.01703">
        <ele>94</ele>
      </trkpt>
      <trkpt lat="36.57926" lon="28.01701">
        <ele>93.1</ele>
      </trkpt>
      <trkpt lat="36.57923" lon="28.01692">
        <ele>89.9</ele>
      </trkpt>
      <trkpt lat="36.57926" lon="28.01686">
        <ele>87.6</ele>
      </trkpt>
      <trkpt lat="36.57925" lon="28.01675">
        <ele>83.7</ele>
      </trkpt>
      <trkpt lat="36.57922" lon="28.0166">
        <ele>78.4</ele>
      </trkpt>
      <trkpt lat="36.57921" lon="28.01657">
        <ele>77.6</ele>
      </trkpt>
      <trkpt lat="36.57921" lon="28.01655">
        <ele>77</ele>
      </trkpt>
      <trkpt lat="36.57922" lon="28.01645">
        <ele>73.8</ele>
      </trkpt>
      <trkpt lat="36.57922" lon="28.0164">
        <ele>72.2</ele>
      </trkpt>
      <trkpt lat="36.57923" lon="28.0163">
        <ele>68.9</ele>
      </trkpt>
      <trkpt lat="36.57922" lon="28.01627">
        <ele>67.9</ele>
      </trkpt>
      <trkpt lat="36.57919" lon="28.01618">
        <ele>65.1</ele>
      </trkpt>
      <trkpt lat="36.5792" lon="28.01608">
        <ele>61.7</ele>
      </trkpt>
      <trkpt lat="36.57923" lon="28.01597">
        <ele>58.1</ele>
      </trkpt>
      <trkpt lat="36.57923" lon="28.01589">
        <ele>55.5</ele>
      </trkpt>
      <trkpt lat="36.57925" lon="28.01575">
        <ele>51.5</ele>
      </trkpt>
      <trkpt lat="36.57924" lon="28.01569">
        <ele>49.9</ele>
      </trkpt>
      <trkpt lat="36.57921" lon="28.01559">
        <ele>47.5</ele>
      </trkpt>
      <trkpt lat="36.57917" lon="28.01549">
        <ele>44.8</ele>
      </trkpt>
      <trkpt lat="36.57915" lon="28.01543">
        <ele>43.7</ele>
      </trkpt>
      <trkpt lat="36.57914" lon="28.01533">
        <ele>41.2</ele>
      </trkpt>
      <trkpt lat="36.57915" lon="28.01522">
        <ele>38.2</ele>
      </trkpt>
      <trkpt lat="36.57911" lon="28.01514">
        <ele>36.5</ele>
      </trkpt>
      <trkpt lat="36.57909" lon="28.01504">
        <ele>34.1</ele>
      </trkpt>
      <trkpt lat="36.57906" lon="28.01498">
        <ele>32.8</ele>
      </trkpt>
      <trkpt lat="36.57906" lon="28.01488">
        <ele>30.9</ele>
      </trkpt>
      <trkpt lat="36.5791" lon="28.01481">
        <ele>29.1</ele>
      </trkpt>
      <trkpt lat="36.57905" lon="28.01473">
        <ele>28</ele>
      </trkpt>
      <trkpt lat="36.57905" lon="28.01464">
        <ele>26.2</ele>
      </trkpt>
      <trkpt lat="36.57904" lon="28.01453">
        <ele>24.2</ele>
      </trkpt>
      <trkpt lat="36.57904" lon="28.01451">
        <ele>23.7</ele>
      </trkpt>
      <trkpt lat="36.57901" lon="28.01442">
        <ele>22</ele>
      </trkpt>
      <trkpt lat="36.57896" lon="28.01433">
        <ele>20.2</ele>
      </trkpt>
      <trkpt lat="36.57886" lon="28.01421">
        <ele>17.7</ele>
      </trkpt>
      <trkpt lat="36.57878" lon="28.01412">
        <ele>16.3</ele>
      </trkpt>
      <trkpt lat="36.57866" lon="28.01413">
        <ele>16.2</ele>
      </trkpt>
      <trkpt lat="36.5785" lon="28.01415">
        <ele>16.1</ele>
      </trkpt>
      <trkpt lat="36.57837" lon="28.01414">
        <ele>15.8</ele>
      </trkpt>
      <trkpt lat="36.5782" lon="28.01409">
        <ele>15.2</ele>
      </trkpt>
      <trkpt lat="36.57816" lon="28.01407">
        <ele>15</ele>
      </trkpt>
      <trkpt lat="36.57813" lon="28.01399">
        <ele>14.2</ele>
      </trkpt>
      <trkpt lat="36.57809" lon="28.01397">
        <ele>13.9</ele>
      </trkpt>
      <trkpt lat="36.578" lon="28.01387">
        <ele>12.7</ele>
      </trkpt>
      <trkpt lat="36.5779" lon="28.0138">
        <ele>11.7</ele>
      </trkpt>
      <trkpt lat="36.57781" lon="28.01374">
        <ele>10.7</ele>
      </trkpt>
      <trkpt lat="36.5777" lon="28.01366">
        <ele>9.3</ele>
      </trkpt>
      <trkpt lat="36.5776" lon="28.01359">
        <ele>7.9</ele>
      </trkpt>
      <trkpt lat="36.57758" lon="28.01351">
        <ele>6.8</ele>
      </trkpt>
      <trkpt lat="36.57756" lon="28.01341">
        <ele>5.3</ele>
      </trkpt>
      <trkpt lat="36.57749" lon="28.01331">
        <ele>4</ele>
      </trkpt>
      <trkpt lat="36.57744" lon="28.01327">
        <ele>3.9</ele>
      </trkpt>
      <trkpt lat="36.5774" lon="28.01325">
        <ele>3.9</ele>
      </trkpt>
      <trkpt lat="36.57737" lon="28.01321">
        <ele>3.9</ele>
      </trkpt>
      <trkpt lat="36.57728" lon="28.01312">
        <ele>3.9</ele>
      </trkpt>
      <trkpt lat="36.57727" lon="28.01303">
        <ele>3.8</ele>
      </trkpt>
      <trkpt lat="36.57722" lon="28.01294">
        <ele>3.8</ele>
      </trkpt>
      <trkpt lat="36.57716" lon="28.01285">
        <ele>3.9</ele>
      </trkpt>
      <trkpt lat="36.57716" lon="28.01284">
        <ele>3.9</ele>
      </trkpt>
      <trkpt lat="36.57706" lon="28.01279">
        <ele>4</ele>
      </trkpt>
      <trkpt lat="36.57705" lon="28.01281">
        <ele>4.1</ele>
      </trkpt>
      <trkpt lat="36.57703" lon="28.0127">
        <ele>4.1</ele>
      </trkpt>
      <trkpt lat="36.57697" lon="28.01263">
        <ele>4.2</ele>
      </trkpt>
      <trkpt lat="36.57693" lon="28.01256">
        <ele>4.3</ele>
      </trkpt>
      <trkpt lat="36.57692" lon="28.01253">
        <ele>4.4</ele>
      </trkpt>
      <trkpt lat="36.5769" lon="28.01239">
        <ele>4.3</ele>
      </trkpt>
      <trkpt lat="36.57688" lon="28.01222">
        <ele>4.1</ele>
      </trkpt>
      <trkpt lat="36.57683" lon="28.01202">
        <ele>3.8</ele>
      </trkpt>
      <trkpt lat="36.57678" lon="28.01185">
        <ele>3.5</ele>
      </trkpt>
      <trkpt lat="36.57677" lon="28.01182">
        <ele>3.4</ele>
      </trkpt>
      <trkpt lat="36.57666" lon="28.01162">
        <ele>3.2</ele>
      </trkpt>
      <trkpt lat="36.57655" lon="28.0115">
        <ele>3.6</ele>
      </trkpt>
      <trkpt lat="36.57655" lon="28.01138">
        <ele>4.1</ele>
      </trkpt>
      <trkpt lat="36.57652" lon="28.01122">
        <ele>4.6</ele>
      </trkpt>
      <trkpt lat="36.57652" lon="28.01111">
        <ele>5</ele>
      </trkpt>
      <trkpt lat="36.5765" lon="28.01098">
        <ele>5.3</ele>
      </trkpt>
      <trkpt lat="36.57651" lon="28.01079">
        <ele>6.2</ele>
      </trkpt>
      <trkpt lat="36.57652" lon="28.01072">
        <ele>6.9</ele>
      </trkpt>
      <trkpt lat="36.57655" lon="28.01059">
        <ele>8.3</ele>
      </trkpt>
      <trkpt lat="36.57653" lon="28.01046">
        <ele>9.3</ele>
      </trkpt>
      <trkpt lat="36.57651" lon="28.0104">
        <ele>9.6</ele>
      </trkpt>
      <trkpt lat="36.57649" lon="28.01026">
        <ele>10.6</ele>
      </trkpt>
      <trkpt lat="36.5765" lon="28.01017">
        <ele>11.6</ele>
      </trkpt>
      <trkpt lat="36.57653" lon="28.01004">
        <ele>13</ele>
      </trkpt>
      <trkpt lat="36.57652" lon="28.01">
        <ele>13.3</ele>
      </trkpt>
      <trkpt lat="36.5765" lon="28.00986">
        <ele>12.6</ele>
      </trkpt>
      <trkpt lat="36.57649" lon="28.00983">
        <ele>12.3</ele>
      </trkpt>
      <trkpt lat="36.57648" lon="28.00977">
        <ele>12.1</ele>
      </trkpt>
      <trkpt lat="36.57647" lon="28.00974">
        <ele>11.9</ele>
      </trkpt>
      <trkpt lat="36.57641" lon="28.00963">
        <ele>11.1</ele>
      </trkpt>
      <trkpt lat="36.57632" lon="28.00952">
        <ele>10.2</ele>
      </trkpt>
      <trkpt lat="36.57632" lon="28.0095">
        <ele>10.2</ele>
      </trkpt>
      <trkpt lat="36.57622" lon="28.00939">
        <ele>9.4</ele>
      </trkpt>
      <trkpt lat="36.57608" lon="28.00927">
        <ele>8.8</ele>
      </trkpt>
      <trkpt lat="36.57598" lon="28.00915">
        <ele>8.8</ele>
      </trkpt>
      <trkpt lat="36.57588" lon="28.00903">
        <ele>11.1</ele>
      </trkpt>
      <trkpt lat="36.57587" lon="28.00902">
        <ele>11.3</ele>
      </trkpt>
      <trkpt lat="36.5758" lon="28.00899">
        <ele>12.3</ele>
      </trkpt>
      <trkpt lat="36.57581" lon="28.00889">
        <ele>14.3</ele>
      </trkpt>
      <trkpt lat="36.57581" lon="28.00888">
        <ele>14.6</ele>
      </trkpt>
      <trkpt lat="36.57576" lon="28.00888">
        <ele>14.7</ele>
      </trkpt>
      <trkpt lat="36.57569" lon="28.00895">
        <ele>13.5</ele>
      </trkpt>
      <trkpt lat="36.57562" lon="28.00899">
        <ele>12.8</ele>
      </trkpt>
      <trkpt lat="36.57555" lon="28.00903">
        <ele>12.1</ele>
      </trkpt>
      <trkpt lat="36.57551" lon="28.00911">
        <ele>10.7</ele>
      </trkpt>
      <trkpt lat="36.57548" lon="28.00916">
        <ele>9.8</ele>
      </trkpt>
      <trkpt lat="36.57543" lon="28.00919">
        <ele>9.8</ele>
      </trkpt>
      <trkpt lat="36.57538" lon="28.00924">
        <ele>9.7</ele>
      </trkpt>
      <trkpt lat="36.57535" lon="28.00931">
        <ele>9.4</ele>
      </trkpt>
      <trkpt lat="36.57528" lon="28.00934">
        <ele>9.5</ele>
      </trkpt>
      <trkpt lat="36.57521" lon="28.00932">
        <ele>9.9</ele>
      </trkpt>
      <trkpt lat="36.5752" lon="28.00931">
        <ele>10</ele>
      </trkpt>
      <trkpt lat="36.57514" lon="28.00932">
        <ele>10.1</ele>
      </trkpt>
      <trkpt lat="36.57514" lon="28.00932">
        <ele>10.1</ele>
      </trkpt>
      <trkpt lat="36.57507" lon="28.00929">
        <ele>10.7</ele>
      </trkpt>
      <trkpt lat="36.57501" lon="28.00932">
        <ele>10.7</ele>
      </trkpt>
      <trkpt lat="36.57492" lon="28.00931">
        <ele>11.31</ele>
      </trkpt>
      <trkpt lat="36.5748" lon="28.00923">
        <ele>10.35</ele>
      </trkpt>
      <trkpt lat="36.57479" lon="28.0092">
        <ele>10.19</ele>
      </trkpt>
      <trkpt lat="36.57472" lon="28.00907">
        <ele>11.1</ele>
      </trkpt>
      <trkpt lat="36.57464" lon="28.009">
        <ele>11.6</ele>
      </trkpt>
      <trkpt lat="36.57457" lon="28.00897">
        <ele>11.4</ele>
      </trkpt>
      <trkpt lat="36.57453" lon="28.00897">
        <ele>11.1</ele>
      </trkpt>
      <trkpt lat="36.57445" lon="28.00897">
        <ele>10.4</ele>
      </trkpt>
      <trkpt lat="36.57439" lon="28.00897">
        <ele>9.9</ele>
      </trkpt>
      <trkpt lat="36.5743" lon="28.00897">
        <ele>9</ele>
      </trkpt>
      <trkpt lat="36.57418" lon="28.00896">
        <ele>8.1</ele>
      </trkpt>
      <trkpt lat="36.57396" lon="28.00899">
        <ele>9.8</ele>
      </trkpt>
      <trkpt lat="36.57383" lon="28.00901">
        <ele>11.1</ele>
      </trkpt>
      <trkpt lat="36.57378" lon="28.00905">
        <ele>11.2</ele>
      </trkpt>
      <trkpt lat="36.57377" lon="28.00906">
        <ele>11.1</ele>
      </trkpt>
      <trkpt lat="36.57374" lon="28.00909">
        <ele>11.1</ele>
      </trkpt>
      <trkpt lat="36.57369" lon="28.0092">
        <ele>10.5</ele>
      </trkpt>
      <trkpt lat="36.57369" lon="28.00923">
        <ele>10.4</ele>
      </trkpt>
      <trkpt lat="36.57368" lon="28.00926">
        <ele>10.2</ele>
      </trkpt>
      <trkpt lat="36.57365" lon="28.00927">
        <ele>10.4</ele>
      </trkpt>
      <trkpt lat="36.57359" lon="28.00929">
        <ele>10.9</ele>
      </trkpt>
      <trkpt lat="36.57354" lon="28.00933">
        <ele>11</ele>
      </trkpt>
      <trkpt lat="36.57347" lon="28.00945">
        <ele>10.6</ele>
      </trkpt>
      <trkpt lat="36.57346" lon="28.00948">
        <ele>10.3</ele>
      </trkpt>
      <trkpt lat="36.57345" lon="28.00953">
        <ele>9.9</ele>
      </trkpt>
      <trkpt lat="36.57342" lon="28.0096">
        <ele>9.3</ele>
      </trkpt>
      <trkpt lat="36.57336" lon="28.00971">
        <ele>8.4</ele>
      </trkpt>
      <trkpt lat="36.57333" lon="28.00976">
        <ele>7.9</ele>
      </trkpt>
      <trkpt lat="36.57333" lon="28.00978">
        <ele>7.7</ele>
      </trkpt>
      <trkpt lat="36.57333" lon="28.00979">
        <ele>7.6</ele>
      </trkpt>
      <trkpt lat="36.57329" lon="28.00987">
        <ele>6.8</ele>
      </trkpt>
      <trkpt lat="36.57324" lon="28.00997">
        <ele>5.9</ele>
      </trkpt>
      <trkpt lat="36.57316" lon="28.01005">
        <ele>5.7</ele>
      </trkpt>
      <trkpt lat="36.57313" lon="28.01007">
        <ele>5.8</ele>
      </trkpt>
      <trkpt lat="36.57301" lon="28.0101">
        <ele>6.4</ele>
      </trkpt>
      <trkpt lat="36.5729" lon="28.01015">
        <ele>6.7</ele>
      </trkpt>
      <trkpt lat="36.5728" lon="28.01026">
        <ele>6.5</ele>
      </trkpt>
      <trkpt lat="36.57279" lon="28.01027">
        <ele>6.6</ele>
      </trkpt>
      <trkpt lat="36.5727" lon="28.01031">
        <ele>6.8</ele>
      </trkpt>
      <trkpt lat="36.57269" lon="28.01035">
        <ele>6.5</ele>
      </trkpt>
      <trkpt lat="36.57264" lon="28.01041">
        <ele>6.4</ele>
      </trkpt>
      <trkpt lat="36.57259" lon="28.01039">
        <ele>6.7</ele>
      </trkpt>
      <trkpt lat="36.57259" lon="28.01039">
        <ele>6.8</ele>
      </trkpt>
      <trkpt lat="36.57252" lon="28.01033">
        <ele>7.5</ele>
      </trkpt>
      <trkpt lat="36.57243" lon="28.01029">
        <ele>7.5</ele>
      </trkpt>
      <trkpt lat="36.57235" lon="28.01021">
        <ele>7.5</ele>
      </trkpt>
      <trkpt lat="36.5723" lon="28.01014">
        <ele>7.5</ele>
      </trkpt>
      <trkpt lat="36.5723" lon="28.01014">
        <ele>7.5</ele>
      </trkpt>
      <trkpt lat="36.57227" lon="28.01011">
        <ele>7.5</ele>
      </trkpt>
      <trkpt lat="36.57227" lon="28.01011">
        <ele>7.5</ele>
      </trkpt>
      <trkpt lat="36.57227" lon="28.01011">
        <ele>7.5</ele>
      </trkpt>
      <trkpt lat="36.57227" lon="28.01011">
        <ele>7.5</ele>
      </trkpt>
      <trkpt lat="36.57227" lon="28.01011">
        <ele>7.5</ele>
      </trkpt>
      <trkpt lat="36.57227" lon="28.01011">
        <ele>7.5</ele>
      </trkpt>
      <trkpt lat="36.57227" lon="28.01011">
        <ele>7.5</ele>
      </trkpt>
      <trkpt lat="36.57227" lon="28.01011">
        <ele>7.5</ele>
      </trkpt>
      <trkpt lat="36.57227" lon="28.01011">
        <ele>7.5</ele>
      </trkpt>
      <trkpt lat="36.57227" lon="28.01011">
        <ele>7.5</ele>
      </trkpt>
      <trkpt lat="36.57227" lon="28.01011">
        <ele>7.5</ele>
      </trkpt>
      <trkpt lat="36.57227" lon="28.01011">
        <ele>7.5</ele>
      </trkpt>
      <trkpt lat="36.57227" lon="28.01011">
        <ele>7.5</ele>
      </trkpt>
      <trkpt lat="36.57227" lon="28.01011">
        <ele>7.5</ele>
      </trkpt>
      <trkpt lat="36.57227" lon="28.01011">
        <ele>7.5</ele>
      </trkpt>
      <trkpt lat="36.57227" lon="28.01011">
        <ele>7.5</ele>
      </trkpt>
      <trkpt lat="36.57227" lon="28.01011">
        <ele>7.5</ele>
      </trkpt>
      <trkpt lat="36.5722" lon="28.01002">
        <ele>7.4</ele>
      </trkpt>
      <trkpt lat="36.57217" lon="28.00991">
        <ele>7.6</ele>
      </trkpt>
      <trkpt lat="36.57213" lon="28.00972">
        <ele>8.3</ele>
      </trkpt>
      <trkpt lat="36.5721" lon="28.00958">
        <ele>8.7</ele>
      </trkpt>
      <trkpt lat="36.57203" lon="28.00946">
        <ele>8.6</ele>
      </trkpt>
      <trkpt lat="36.57195" lon="28.00933">
        <ele>8.3</ele>
      </trkpt>
      <trkpt lat="36.57192" lon="28.00929">
        <ele>8.3</ele>
      </trkpt>
      <trkpt lat="36.57189" lon="28.00924">
        <ele>8.1</ele>
      </trkpt>
      <trkpt lat="36.57184" lon="28.00923">
        <ele>7.7</ele>
      </trkpt>
      <trkpt lat="36.57176" lon="28.00913">
        <ele>7.1</ele>
      </trkpt>
      <trkpt lat="36.57176" lon="28.0091">
        <ele>7.1</ele>
      </trkpt>
      <trkpt lat="36.57175" lon="28.00905">
        <ele>7</ele>
      </trkpt>
      <trkpt lat="36.57171" lon="28.00873">
        <ele>7</ele>
      </trkpt>
      <trkpt lat="36.57168" lon="28.00861">
        <ele>6.8</ele>
      </trkpt>
      <trkpt lat="36.57166" lon="28.00861">
        <ele>6.7</ele>
      </trkpt>
      <trkpt lat="36.57168" lon="28.00861">
        <ele>6.8</ele>
      </trkpt>
      <trkpt lat="36.57161" lon="28.00858">
        <ele>6.7</ele>
      </trkpt>
      <trkpt lat="36.57161" lon="28.00858">
        <ele>6.7</ele>
      </trkpt>
      <trkpt lat="36.57161" lon="28.00853">
        <ele>6.8</ele>
      </trkpt>
      <trkpt lat="36.5716" lon="28.00849">
        <ele>6.8</ele>
      </trkpt>
      <trkpt lat="36.57161" lon="28.00852">
        <ele>6.8</ele>
      </trkpt>
      <trkpt lat="36.5716" lon="28.0084">
        <ele>6.9</ele>
      </trkpt>
      <trkpt lat="36.57158" lon="28.00818">
        <ele>7.4</ele>
      </trkpt>
      <trkpt lat="36.57158" lon="28.008">
        <ele>7.9</ele>
      </trkpt>
      <trkpt lat="36.57159" lon="28.00782">
        <ele>8.3</ele>
      </trkpt>
      <trkpt lat="36.57162" lon="28.00766">
        <ele>8.7</ele>
      </trkpt>
      <trkpt lat="36.57161" lon="28.0075">
        <ele>9.1</ele>
      </trkpt>
      <trkpt lat="36.57163" lon="28.00732">
        <ele>9.3</ele>
      </trkpt>
      <trkpt lat="36.57164" lon="28.00723">
        <ele>9.4</ele>
      </trkpt>
      <trkpt lat="36.57163" lon="28.00704">
        <ele>9.7</ele>
      </trkpt>
      <trkpt lat="36.57166" lon="28.00698">
        <ele>9.6</ele>
      </trkpt>
      <trkpt lat="36.57169" lon="28.00687">
        <ele>9.9</ele>
      </trkpt>
      <trkpt lat="36.57167" lon="28.0067">
        <ele>10</ele>
      </trkpt>
      <trkpt lat="36.57161" lon="28.00661">
        <ele>10.4</ele>
      </trkpt>
      <trkpt lat="36.57161" lon="28.00659">
        <ele>10.4</ele>
      </trkpt>
      <trkpt lat="36.57162" lon="28.00645">
        <ele>10.6</ele>
      </trkpt>
      <trkpt lat="36.57161" lon="28.00631">
        <ele>11</ele>
      </trkpt>
      <trkpt lat="36.5716" lon="28.00616">
        <ele>11.4</ele>
      </trkpt>
      <trkpt lat="36.57161" lon="28.00605">
        <ele>11.5</ele>
      </trkpt>
      <trkpt lat="36.57162" lon="28.00593">
        <ele>11.6</ele>
      </trkpt>
      <trkpt lat="36.5716" lon="28.00581">
        <ele>12.1</ele>
      </trkpt>
      <trkpt lat="36.57158" lon="28.00567">
        <ele>13.3</ele>
      </trkpt>
      <trkpt lat="36.57152" lon="28.00551">
        <ele>15.4</ele>
      </trkpt>
      <trkpt lat="36.57155" lon="28.00536">
        <ele>15.9</ele>
      </trkpt>
      <trkpt lat="36.57159" lon="28.00517">
        <ele>16.1</ele>
      </trkpt>
      <trkpt lat="36.57159" lon="28.00505">
        <ele>16.8</ele>
      </trkpt>
      <trkpt lat="36.57164" lon="28.00489">
        <ele>16.5</ele>
      </trkpt>
      <trkpt lat="36.57165" lon="28.00472">
        <ele>17.2</ele>
      </trkpt>
      <trkpt lat="36.57164" lon="28.00456">
        <ele>18.4</ele>
      </trkpt>
      <trkpt lat="36.57164" lon="28.00438">
        <ele>19.4</ele>
      </trkpt>
      <trkpt lat="36.57164" lon="28.00416">
        <ele>21</ele>
      </trkpt>
      <trkpt lat="36.57164" lon="28.00399">
        <ele>21.7</ele>
      </trkpt>
      <trkpt lat="36.5716" lon="28.00382">
        <ele>23.8</ele>
      </trkpt>
      <trkpt lat="36.57158" lon="28.00371">
        <ele>24.7</ele>
      </trkpt>
      <trkpt lat="36.57159" lon="28.00366">
        <ele>24.7</ele>
      </trkpt>
      <trkpt lat="36.57157" lon="28.00351">
        <ele>26.1</ele>
      </trkpt>
      <trkpt lat="36.57153" lon="28.00334">
        <ele>27.9</ele>
      </trkpt>
      <trkpt lat="36.57147" lon="28.00315">
        <ele>28.6</ele>
      </trkpt>
      <trkpt lat="36.57139" lon="28.00299">
        <ele>29.6</ele>
      </trkpt>
      <trkpt lat="36.57135" lon="28.0029">
        <ele>30.1</ele>
      </trkpt>
      <trkpt lat="36.57128" lon="28.00274">
        <ele>30.3</ele>
      </trkpt>
      <trkpt lat="36.5712" lon="28.00262">
        <ele>30.9</ele>
      </trkpt>
      <trkpt lat="36.57113" lon="28.00245">
        <ele>31.1</ele>
      </trkpt>
      <trkpt lat="36.57106" lon="28.00232">
        <ele>32.3</ele>
      </trkpt>
      <trkpt lat="36.57101" lon="28.00213">
        <ele>32.9</ele>
      </trkpt>
      <trkpt lat="36.57093" lon="28.002">
        <ele>33.5</ele>
      </trkpt>
      <trkpt lat="36.57092" lon="28.00185">
        <ele>33.3</ele>
      </trkpt>
      <trkpt lat="36.57085" lon="28.00167">
        <ele>33</ele>
      </trkpt>
      <trkpt lat="36.57082" lon="28.00148">
        <ele>35.1</ele>
      </trkpt>
      <trkpt lat="36.57078" lon="28.00133">
        <ele>37.7</ele>
      </trkpt>
      <trkpt lat="36.57075" lon="28.00123">
        <ele>39.3</ele>
      </trkpt>
      <trkpt lat="36.57072" lon="28.0011">
        <ele>41</ele>
      </trkpt>
      <trkpt lat="36.57072" lon="28.00091">
        <ele>42.3</ele>
      </trkpt>
      <trkpt lat="36.57069" lon="28.00071">
        <ele>44.1</ele>
      </trkpt>
      <trkpt lat="36.57072" lon="28.00053">
        <ele>45.2</ele>
      </trkpt>
      <trkpt lat="36.5707" lon="28.00039">
        <ele>46.6</ele>
      </trkpt>
      <trkpt lat="36.57067" lon="28.0003">
        <ele>47.6</ele>
      </trkpt>
      <trkpt lat="36.57066" lon="28.00018">
        <ele>48.3</ele>
      </trkpt>
      <trkpt lat="36.57066" lon="28.00017">
        <ele>48.4</ele>
      </trkpt>
      <trkpt lat="36.57067" lon="28.00014">
        <ele>48.6</ele>
      </trkpt>
      <trkpt lat="36.57066" lon="28.00009">
        <ele>49</ele>
      </trkpt>
      <trkpt lat="36.57066" lon="28.00008">
        <ele>49.1</ele>
      </trkpt>
      <trkpt lat="36.5707" lon="28.00002">
        <ele>49.5</ele>
      </trkpt>
      <trkpt lat="36.57078" lon="27.99994">
        <ele>49.7</ele>
      </trkpt>
      <trkpt lat="36.57089" lon="27.99988">
        <ele>51.6</ele>
      </trkpt>
      <trkpt lat="36.57094" lon="27.99981">
        <ele>52.9</ele>
      </trkpt>
      <trkpt lat="36.57095" lon="27.9998">
        <ele>53.1</ele>
      </trkpt>
      <trkpt lat="36.57096" lon="27.9998">
        <ele>53.4</ele>
      </trkpt>
      <trkpt lat="36.57103" lon="27.99975">
        <ele>55.6</ele>
      </trkpt>
      <trkpt lat="36.5711" lon="27.99968">
        <ele>58.2</ele>
      </trkpt>
      <trkpt lat="36.57116" lon="27.99968">
        <ele>60.2</ele>
      </trkpt>
      <trkpt lat="36.57121" lon="27.99966">
        <ele>61.7</ele>
      </trkpt>
      <trkpt lat="36.57122" lon="27.99965">
        <ele>62.1</ele>
      </trkpt>
      <trkpt lat="36.57124" lon="27.99962">
        <ele>62.9</ele>
      </trkpt>
      <trkpt lat="36.57126" lon="27.9996">
        <ele>63.6</ele>
      </trkpt>
      <trkpt lat="36.5713" lon="27.99958">
        <ele>65.2</ele>
      </trkpt>
      <trkpt lat="36.57137" lon="27.99956">
        <ele>67.6</ele>
      </trkpt>
      <trkpt lat="36.5714" lon="27.99955">
        <ele>68.9</ele>
      </trkpt>
      <trkpt lat="36.57148" lon="27.99958">
        <ele>71.4</ele>
      </trkpt>
      <trkpt lat="36.57154" lon="27.99957">
        <ele>73.5</ele>
      </trkpt>
      <trkpt lat="36.57157" lon="27.99955">
        <ele>74.8</ele>
      </trkpt>
      <trkpt lat="36.57159" lon="27.99954">
        <ele>75.5</ele>
      </trkpt>
      <trkpt lat="36.57167" lon="27.99959">
        <ele>77.3</ele>
      </trkpt>
      <trkpt lat="36.5717" lon="27.99962">
        <ele>77.9</ele>
      </trkpt>
      <trkpt lat="36.57177" lon="27.99963">
        <ele>79.2</ele>
      </trkpt>
      <trkpt lat="36.57178" lon="27.99963">
        <ele>79.5</ele>
      </trkpt>
      <trkpt lat="36.57184" lon="27.99966">
        <ele>80.5</ele>
      </trkpt>
      <trkpt lat="36.57192" lon="27.99964">
        <ele>82.5</ele>
      </trkpt>
      <trkpt lat="36.57196" lon="27.99961">
        <ele>84.1</ele>
      </trkpt>
      <trkpt lat="36.57199" lon="27.99964">
        <ele>84.4</ele>
      </trkpt>
      <trkpt lat="36.57209" lon="27.99974">
        <ele>84.7</ele>
      </trkpt>
      <trkpt lat="36.5721" lon="27.99969">
        <ele>85.9</ele>
      </trkpt>
      <trkpt lat="36.57214" lon="27.99971">
        <ele>86.4</ele>
      </trkpt>
      <trkpt lat="36.57215" lon="27.99972">
        <ele>86.4</ele>
      </trkpt>
      <trkpt lat="36.57218" lon="27.99976">
        <ele>86.3</ele>
      </trkpt>
      <trkpt lat="36.57222" lon="27.99973">
        <ele>87.6</ele>
      </trkpt>
      <trkpt lat="36.57222" lon="27.99973">
        <ele>87.8</ele>
      </trkpt>
      <trkpt lat="36.57233" lon="27.99969">
        <ele>90.8</ele>
      </trkpt>
      <trkpt lat="36.57238" lon="27.99963">
        <ele>93.5</ele>
      </trkpt>
      <trkpt lat="36.5724" lon="27.99961">
        <ele>94.6</ele>
      </trkpt>
      <trkpt lat="36.57246" lon="27.99953">
        <ele>97.9</ele>
      </trkpt>
      <trkpt lat="36.57248" lon="27.99941">
        <ele>101.3</ele>
      </trkpt>
      <trkpt lat="36.57252" lon="27.99934">
        <ele>103.8</ele>
      </trkpt>
      <trkpt lat="36.57259" lon="27.99925">
        <ele>106.9</ele>
      </trkpt>
      <trkpt lat="36.57264" lon="27.99918">
        <ele>109.8</ele>
      </trkpt>
      <trkpt lat="36.5727" lon="27.99912">
        <ele>110.8</ele>
      </trkpt>
      <trkpt lat="36.57271" lon="27.99912">
        <ele>111</ele>
      </trkpt>
      <trkpt lat="36.57282" lon="27.99906">
        <ele>112.7</ele>
      </trkpt>
      <trkpt lat="36.5729" lon="27.99904">
        <ele>114.1</ele>
      </trkpt>
      <trkpt lat="36.57298" lon="27.99906">
        <ele>115.3</ele>
      </trkpt>
      <trkpt lat="36.57301" lon="27.99906">
        <ele>115.9</ele>
      </trkpt>
      <trkpt lat="36.57308" lon="27.99906">
        <ele>117</ele>
      </trkpt>
      <trkpt lat="36.57317" lon="27.99901">
        <ele>118.7</ele>
      </trkpt>
      <trkpt lat="36.57327" lon="27.999">
        <ele>120.6</ele>
      </trkpt>
      <trkpt lat="36.57331" lon="27.99896">
        <ele>121.6</ele>
      </trkpt>
      <trkpt lat="36.57338" lon="27.99887">
        <ele>123.3</ele>
      </trkpt>
      <trkpt lat="36.57347" lon="27.99883">
        <ele>124.7</ele>
      </trkpt>
      <trkpt lat="36.57353" lon="27.99882">
        <ele>125.5</ele>
      </trkpt>
      <trkpt lat="36.57361" lon="27.99878">
        <ele>126.8</ele>
      </trkpt>
      <trkpt lat="36.5737" lon="27.9987">
        <ele>128.9</ele>
      </trkpt>
      <trkpt lat="36.5738" lon="27.99859">
        <ele>131.5</ele>
      </trkpt>
      <trkpt lat="36.5738" lon="27.99857">
        <ele>131.8</ele>
      </trkpt>
      <trkpt lat="36.5738" lon="27.99857">
        <ele>131.7</ele>
      </trkpt>
      <trkpt lat="36.57383" lon="27.99855">
        <ele>132.3</ele>
      </trkpt>
      <trkpt lat="36.57384" lon="27.99851">
        <ele>132.9</ele>
      </trkpt>
      <trkpt lat="36.57397" lon="27.99839">
        <ele>136.3</ele>
      </trkpt>
      <trkpt lat="36.57402" lon="27.9983">
        <ele>138.1</ele>
      </trkpt>
      <trkpt lat="36.57407" lon="27.9982">
        <ele>139.9</ele>
      </trkpt>
      <trkpt lat="36.5741" lon="27.99804">
        <ele>142.2</ele>
      </trkpt>
      <trkpt lat="36.57416" lon="27.99791">
        <ele>144.9</ele>
      </trkpt>
      <trkpt lat="36.57418" lon="27.9979">
        <ele>145.4</ele>
      </trkpt>
      <trkpt lat="36.5742" lon="27.99777">
        <ele>147</ele>
      </trkpt>
      <trkpt lat="36.57418" lon="27.9977">
        <ele>147.7</ele>
      </trkpt>
      <trkpt lat="36.57414" lon="27.99759">
        <ele>148</ele>
      </trkpt>
      <trkpt lat="36.57413" lon="27.99745">
        <ele>149.6</ele>
      </trkpt>
      <trkpt lat="36.57412" lon="27.99744">
        <ele>149.5</ele>
      </trkpt>
      <trkpt lat="36.57409" lon="27.99727">
        <ele>151.4</ele>
      </trkpt>
      <trkpt lat="36.57404" lon="27.99707">
        <ele>152.6</ele>
      </trkpt>
      <trkpt lat="36.57403" lon="27.99692">
        <ele>154.6</ele>
      </trkpt>
      <trkpt lat="36.57407" lon="27.99679">
        <ele>157.9</ele>
      </trkpt>
      <trkpt lat="36.57407" lon="27.99666">
        <ele>160</ele>
      </trkpt>
      <trkpt lat="36.57407" lon="27.9966">
        <ele>160.3</ele>
      </trkpt>
      <trkpt lat="36.57407" lon="27.99656">
        <ele>160.6</ele>
      </trkpt>
      <trkpt lat="36.57405" lon="27.99645">
        <ele>160.6</ele>
      </trkpt>
      <trkpt lat="36.57403" lon="27.9964">
        <ele>159.9</ele>
      </trkpt>
      <trkpt lat="36.57402" lon="27.99629">
        <ele>160.1</ele>
      </trkpt>
      <trkpt lat="36.57402" lon="27.99629">
        <ele>160.3</ele>
      </trkpt>
      <trkpt lat="36.57398" lon="27.99622">
        <ele>159.1</ele>
      </trkpt>
      <trkpt lat="36.57395" lon="27.99608">
        <ele>158.3</ele>
      </trkpt>
      <trkpt lat="36.57392" lon="27.99595">
        <ele>158</ele>
      </trkpt>
      <trkpt lat="36.57389" lon="27.99579">
        <ele>157.5</ele>
      </trkpt>
      <trkpt lat="36.57391" lon="27.99574">
        <ele>158.8</ele>
      </trkpt>
      <trkpt lat="36.57391" lon="27.99562">
        <ele>159.6</ele>
      </trkpt>
      <trkpt lat="36.5739" lon="27.99548">
        <ele>160.3</ele>
      </trkpt>
      <trkpt lat="36.57389" lon="27.99534">
        <ele>161.1</ele>
      </trkpt>
      <trkpt lat="36.57389" lon="27.9952">
        <ele>162.2</ele>
      </trkpt>
      <trkpt lat="36.57389" lon="27.99505">
        <ele>163.3</ele>
      </trkpt>
      <trkpt lat="36.57379" lon="27.99497">
        <ele>161.6</ele>
      </trkpt>
      <trkpt lat="36.57375" lon="27.99493">
        <ele>161.3</ele>
      </trkpt>
      <trkpt lat="36.57364" lon="27.99487">
        <ele>159.6</ele>
      </trkpt>
      <trkpt lat="36.57355" lon="27.99482">
        <ele>158.3</ele>
      </trkpt>
      <trkpt lat="36.57345" lon="27.99476">
        <ele>157.4</ele>
      </trkpt>
      <trkpt lat="36.57333" lon="27.99467">
        <ele>156.4</ele>
      </trkpt>
      <trkpt lat="36.57325" lon="27.99465">
        <ele>154.4</ele>
      </trkpt>
      <trkpt lat="36.57318" lon="27.99457">
        <ele>153.6</ele>
      </trkpt>
      <trkpt lat="36.57316" lon="27.99456">
        <ele>153.6</ele>
      </trkpt>
      <trkpt lat="36.57312" lon="27.99447">
        <ele>154</ele>
      </trkpt>
      <trkpt lat="36.57308" lon="27.99437">
        <ele>154.9</ele>
      </trkpt>
      <trkpt lat="36.57306" lon="27.99427">
        <ele>156.3</ele>
      </trkpt>
      <trkpt lat="36.57304" lon="27.99421">
        <ele>156.9</ele>
      </trkpt>
      <trkpt lat="36.57302" lon="27.99415">
        <ele>157.1</ele>
      </trkpt>
      <trkpt lat="36.57302" lon="27.99415">
        <ele>157.1</ele>
      </trkpt>
      <trkpt lat="36.57303" lon="27.99414">
        <ele>157.4</ele>
      </trkpt>
      <trkpt lat="36.57304" lon="27.994">
        <ele>156.7</ele>
      </trkpt>
      <trkpt lat="36.57304" lon="27.994">
        <ele>156.7</ele>
      </trkpt>
      <trkpt lat="36.57305" lon="27.99398">
        <ele>156.6</ele>
      </trkpt>
      <trkpt lat="36.57308" lon="27.99392">
        <ele>157.4</ele>
      </trkpt>
      <trkpt lat="36.57311" lon="27.99381">
        <ele>157.3</ele>
      </trkpt>
      <trkpt lat="36.57313" lon="27.99376">
        <ele>157.7</ele>
      </trkpt>
      <trkpt lat="36.5732" lon="27.99371">
        <ele>159.1</ele>
      </trkpt>
      <trkpt lat="36.57326" lon="27.9936">
        <ele>159.8</ele>
      </trkpt>
      <trkpt lat="36.5733" lon="27.99355">
        <ele>160.4</ele>
      </trkpt>
      <trkpt lat="36.57333" lon="27.9935">
        <ele>160.8</ele>
      </trkpt>
      <trkpt lat="36.57345" lon="27.99337">
        <ele>162.4</ele>
      </trkpt>
      <trkpt lat="36.57352" lon="27.99328">
        <ele>162.4</ele>
      </trkpt>
      <trkpt lat="36.5736" lon="27.99319">
        <ele>161.7</ele>
      </trkpt>
      <trkpt lat="36.57365" lon="27.99308">
        <ele>160.1</ele>
      </trkpt>
      <trkpt lat="36.57373" lon="27.99299">
        <ele>159.8</ele>
      </trkpt>
      <trkpt lat="36.57383" lon="27.99287">
        <ele>159.1</ele>
      </trkpt>
      <trkpt lat="36.57394" lon="27.99279">
        <ele>159.7</ele>
      </trkpt>
      <trkpt lat="36.57399" lon="27.99271">
        <ele>159.1</ele>
      </trkpt>
      <trkpt lat="36.57412" lon="27.99264">
        <ele>160.5</ele>
      </trkpt>
      <trkpt lat="36.57413" lon="27.99263">
        <ele>160.6</ele>
      </trkpt>
      <trkpt lat="36.57416" lon="27.99258">
        <ele>160.1</ele>
      </trkpt>
      <trkpt lat="36.5742" lon="27.99254">
        <ele>159.7</ele>
      </trkpt>
      <trkpt lat="36.57429" lon="27.99244">
        <ele>158.5</ele>
      </trkpt>
      <trkpt lat="36.57443" lon="27.9923">
        <ele>156.3</ele>
      </trkpt>
      <trkpt lat="36.57456" lon="27.99224">
        <ele>156.7</ele>
      </trkpt>
      <trkpt lat="36.57459" lon="27.99221">
        <ele>156.3</ele>
      </trkpt>
      <trkpt lat="36.57469" lon="27.99214">
        <ele>155.6</ele>
      </trkpt>
      <trkpt lat="36.57478" lon="27.9921">
        <ele>155.6</ele>
      </trkpt>
      <trkpt lat="36.57481" lon="27.99209">
        <ele>155.9</ele>
      </trkpt>
      <trkpt lat="36.57492" lon="27.99203">
        <ele>155.2</ele>
      </trkpt>
      <trkpt lat="36.57504" lon="27.99196">
        <ele>154.6</ele>
      </trkpt>
      <trkpt lat="36.57516" lon="27.99193">
        <ele>155.3</ele>
      </trkpt>
      <trkpt lat="36.57526" lon="27.99187">
        <ele>155</ele>
      </trkpt>
      <trkpt lat="36.57534" lon="27.99185">
        <ele>155.3</ele>
      </trkpt>
      <trkpt lat="36.57545" lon="27.9918">
        <ele>155.6</ele>
      </trkpt>
      <trkpt lat="36.57556" lon="27.99181">
        <ele>157.8</ele>
      </trkpt>
      <trkpt lat="36.5757" lon="27.99179">
        <ele>159.7</ele>
      </trkpt>
      <trkpt lat="36.57579" lon="27.99176">
        <ele>160.3</ele>
      </trkpt>
      <trkpt lat="36.57583" lon="27.99176">
        <ele>161.1</ele>
      </trkpt>
      <trkpt lat="36.57595" lon="27.99175">
        <ele>163.2</ele>
      </trkpt>
      <trkpt lat="36.57609" lon="27.99167">
        <ele>163.9</ele>
      </trkpt>
      <trkpt lat="36.5762" lon="27.99152">
        <ele>163.7</ele>
      </trkpt>
      <trkpt lat="36.57624" lon="27.99148">
        <ele>164.1</ele>
      </trkpt>
      <trkpt lat="36.57624" lon="27.99138">
        <ele>162.4</ele>
      </trkpt>
      <trkpt lat="36.57627" lon="27.99132">
        <ele>162.1</ele>
      </trkpt>
      <trkpt lat="36.57627" lon="27.99131">
        <ele>162.1</ele>
      </trkpt>
      <trkpt lat="36.57633" lon="27.99117">
        <ele>161.7</ele>
      </trkpt>
      <trkpt lat="36.57637" lon="27.99108">
        <ele>161.2</ele>
      </trkpt>
      <trkpt lat="36.57642" lon="27.991">
        <ele>161.9</ele>
      </trkpt>
      <trkpt lat="36.57652" lon="27.99087">
        <ele>163.2</ele>
      </trkpt>
      <trkpt lat="36.57653" lon="27.99083">
        <ele>163.4</ele>
      </trkpt>
      <trkpt lat="36.57659" lon="27.9907">
        <ele>162.6</ele>
      </trkpt>
      <trkpt lat="36.57662" lon="27.99068">
        <ele>162.8</ele>
      </trkpt>
      <trkpt lat="36.57662" lon="27.99068">
        <ele>162.8</ele>
      </trkpt>
      <trkpt lat="36.57668" lon="27.99056">
        <ele>162.1</ele>
      </trkpt>
      <trkpt lat="36.57673" lon="27.99052">
        <ele>162</ele>
      </trkpt>
      <trkpt lat="36.57679" lon="27.9904">
        <ele>160.6</ele>
      </trkpt>
      <trkpt lat="36.57679" lon="27.9904">
        <ele>160.6</ele>
      </trkpt>
      <trkpt lat="36.57688" lon="27.99032">
        <ele>160.7</ele>
      </trkpt>
      <trkpt lat="36.57697" lon="27.9902">
        <ele>159.7</ele>
      </trkpt>
      <trkpt lat="36.57708" lon="27.99013">
        <ele>160.3</ele>
      </trkpt>
      <trkpt lat="36.5772" lon="27.99007">
        <ele>161.4</ele>
      </trkpt>
      <trkpt lat="36.57731" lon="27.99001">
        <ele>162.4</ele>
      </trkpt>
      <trkpt lat="36.57741" lon="27.98993">
        <ele>165.2</ele>
      </trkpt>
      <trkpt lat="36.57746" lon="27.98988">
        <ele>166.9</ele>
      </trkpt>
      <trkpt lat="36.5776" lon="27.98985">
        <ele>170.6</ele>
      </trkpt>
      <trkpt lat="36.57763" lon="27.98981">
        <ele>172.1</ele>
      </trkpt>
      <trkpt lat="36.57762" lon="27.98974">
        <ele>173</ele>
      </trkpt>
      <trkpt lat="36.57761" lon="27.98973">
        <ele>173</ele>
      </trkpt>
      <trkpt lat="36.57756" lon="27.98961">
        <ele>173.7</ele>
      </trkpt>
      <trkpt lat="36.57751" lon="27.98948">
        <ele>174.2</ele>
      </trkpt>
      <trkpt lat="36.57748" lon="27.98941">
        <ele>174.6</ele>
      </trkpt>
      <trkpt lat="36.57742" lon="27.98927">
        <ele>175.1</ele>
      </trkpt>
      <trkpt lat="36.57738" lon="27.98921">
        <ele>175.1</ele>
      </trkpt>
      <trkpt lat="36.57739" lon="27.98916">
        <ele>176.3</ele>
      </trkpt>
      <trkpt lat="36.57739" lon="27.98915">
        <ele>176.6</ele>
      </trkpt>
      <trkpt lat="36.57737" lon="27.98909">
        <ele>178.1</ele>
      </trkpt>
      <trkpt lat="36.57735" lon="27.98897">
        <ele>181.2</ele>
      </trkpt>
      <trkpt lat="36.57731" lon="27.98888">
        <ele>183.2</ele>
      </trkpt>
      <trkpt lat="36.57726" lon="27.98881">
        <ele>184.1</ele>
      </trkpt>
      <trkpt lat="36.57719" lon="27.98874">
        <ele>184.1</ele>
      </trkpt>
      <trkpt lat="36.57712" lon="27.98862">
        <ele>186.1</ele>
      </trkpt>
      <trkpt lat="36.57707" lon="27.9885">
        <ele>188.3</ele>
      </trkpt>
      <trkpt lat="36.57701" lon="27.98843">
        <ele>188.7</ele>
      </trkpt>
      <trkpt lat="36.57697" lon="27.98838">
        <ele>189</ele>
      </trkpt>
      <trkpt lat="36.57688" lon="27.98826">
        <ele>189.3</ele>
      </trkpt>
      <trkpt lat="36.57685" lon="27.98825">
        <ele>188.9</ele>
      </trkpt>
      <trkpt lat="36.57674" lon="27.98812">
        <ele>188.3</ele>
      </trkpt>
      <trkpt lat="36.57666" lon="27.98799">
        <ele>188.6</ele>
      </trkpt>
      <trkpt lat="36.57663" lon="27.98793">
        <ele>189.3</ele>
      </trkpt>
      <trkpt lat="36.57658" lon="27.98788">
        <ele>189.1</ele>
      </trkpt>
      <trkpt lat="36.57651" lon="27.98783">
        <ele>188.4</ele>
      </trkpt>
      <trkpt lat="36.57641" lon="27.98769">
        <ele>189.1</ele>
      </trkpt>
      <trkpt lat="36.57633" lon="27.98762">
        <ele>188.8</ele>
      </trkpt>
      <trkpt lat="36.57626" lon="27.98756">
        <ele>188.4</ele>
      </trkpt>
      <trkpt lat="36.57624" lon="27.98752">
        <ele>188.7</ele>
      </trkpt>
      <trkpt lat="36.57614" lon="27.98739">
        <ele>188.3</ele>
      </trkpt>
      <trkpt lat="36.57598" lon="27.98732">
        <ele>185.5</ele>
      </trkpt>
      <trkpt lat="36.57589" lon="27.98728">
        <ele>184.1</ele>
      </trkpt>
      <trkpt lat="36.57587" lon="27.98725">
        <ele>184</ele>
      </trkpt>
      <trkpt lat="36.57587" lon="27.98721">
        <ele>184.7</ele>
      </trkpt>
      <trkpt lat="36.57583" lon="27.98712">
        <ele>185.4</ele>
      </trkpt>
      <trkpt lat="36.57579" lon="27.98696">
        <ele>187.2</ele>
      </trkpt>
      <trkpt lat="36.57576" lon="27.98691">
        <ele>187.8</ele>
      </trkpt>
      <trkpt lat="36.57576" lon="27.9869">
        <ele>187.8</ele>
      </trkpt>
      <trkpt lat="36.5757" lon="27.98674">
        <ele>189.6</ele>
      </trkpt>
      <trkpt lat="36.57565" lon="27.98658">
        <ele>190.9</ele>
      </trkpt>
      <trkpt lat="36.57559" lon="27.9864">
        <ele>191.5</ele>
      </trkpt>
      <trkpt lat="36.57561" lon="27.98632">
        <ele>192.5</ele>
      </trkpt>
      <trkpt lat="36.57558" lon="27.98617">
        <ele>193.3</ele>
      </trkpt>
      <trkpt lat="36.57556" lon="27.98611">
        <ele>193.7</ele>
      </trkpt>
      <trkpt lat="36.57553" lon="27.98599">
        <ele>194.4</ele>
      </trkpt>
      <trkpt lat="36.57552" lon="27.98584">
        <ele>195.6</ele>
      </trkpt>
      <trkpt lat="36.57545" lon="27.98569">
        <ele>194.8</ele>
      </trkpt>
      <trkpt lat="36.57538" lon="27.98559">
        <ele>194</ele>
      </trkpt>
      <trkpt lat="36.57538" lon="27.98558">
        <ele>194</ele>
      </trkpt>
      <trkpt lat="36.57537" lon="27.98543">
        <ele>193.8</ele>
      </trkpt>
      <trkpt lat="36.57534" lon="27.98539">
        <ele>193.6</ele>
      </trkpt>
      <trkpt lat="36.57535" lon="27.98525">
        <ele>193.6</ele>
      </trkpt>
      <trkpt lat="36.57538" lon="27.98511">
        <ele>193.8</ele>
      </trkpt>
      <trkpt lat="36.57542" lon="27.985">
        <ele>194</ele>
      </trkpt>
      <trkpt lat="36.57544" lon="27.98484">
        <ele>192.6</ele>
      </trkpt>
      <trkpt lat="36.57541" lon="27.98479">
        <ele>192</ele>
      </trkpt>
      <trkpt lat="36.57536" lon="27.98471">
        <ele>190.9</ele>
      </trkpt>
      <trkpt lat="36.57532" lon="27.9847">
        <ele>190.5</ele>
      </trkpt>
      <trkpt lat="36.57532" lon="27.98468">
        <ele>190.3</ele>
      </trkpt>
      <trkpt lat="36.57529" lon="27.98461">
        <ele>189.4</ele>
      </trkpt>
      <trkpt lat="36.57526" lon="27.98455">
        <ele>188.7</ele>
      </trkpt>
      <trkpt lat="36.57517" lon="27.98451">
        <ele>187.9</ele>
      </trkpt>
      <trkpt lat="36.57515" lon="27.98447">
        <ele>187.4</ele>
      </trkpt>
      <trkpt lat="36.57502" lon="27.98445">
        <ele>186.4</ele>
      </trkpt>
      <trkpt lat="36.57493" lon="27.9844">
        <ele>185.6</ele>
      </trkpt>
      <trkpt lat="36.57482" lon="27.98441">
        <ele>184.9</ele>
      </trkpt>
      <trkpt lat="36.57474" lon="27.98438">
        <ele>184.3</ele>
      </trkpt>
      <trkpt lat="36.57468" lon="27.9843">
        <ele>183.4</ele>
      </trkpt>
      <trkpt lat="36.57468" lon="27.98429">
        <ele>183.3</ele>
      </trkpt>
      <trkpt lat="36.57465" lon="27.98421">
        <ele>182.6</ele>
      </trkpt>
      <trkpt lat="36.57454" lon="27.98412">
        <ele>181.7</ele>
      </trkpt>
      <trkpt lat="36.57453" lon="27.98404">
        <ele>181.5</ele>
      </trkpt>
      <trkpt lat="36.5745" lon="27.984">
        <ele>181.4</ele>
      </trkpt>
      <trkpt lat="36.57448" lon="27.98388">
        <ele>181.3</ele>
      </trkpt>
      <trkpt lat="36.57443" lon="27.98368">
        <ele>181.4</ele>
      </trkpt>
      <trkpt lat="36.57441" lon="27.98365">
        <ele>181.5</ele>
      </trkpt>
      <trkpt lat="36.57439" lon="27.98362">
        <ele>181.6</ele>
      </trkpt>
      <trkpt lat="36.57444" lon="27.98352">
        <ele>181.4</ele>
      </trkpt>
      <trkpt lat="36.5745" lon="27.98349">
        <ele>180.9</ele>
      </trkpt>
      <trkpt lat="36.57452" lon="27.98348">
        <ele>180.8</ele>
      </trkpt>
      <trkpt lat="36.57457" lon="27.98343">
        <ele>180.4</ele>
      </trkpt>
      <trkpt lat="36.57459" lon="27.98342">
        <ele>180.2</ele>
      </trkpt>
      <trkpt lat="36.57461" lon="27.98337">
        <ele>179.8</ele>
      </trkpt>
      <trkpt lat="36.57465" lon="27.98332">
        <ele>179.3</ele>
      </trkpt>
      <trkpt lat="36.57468" lon="27.98332">
        <ele>179</ele>
      </trkpt>
      <trkpt lat="36.57472" lon="27.98331">
        <ele>178.5</ele>
      </trkpt>
      <trkpt lat="36.57472" lon="27.98323">
        <ele>177.9</ele>
      </trkpt>
      <trkpt lat="36.57478" lon="27.98315">
        <ele>176.6</ele>
      </trkpt>
      <trkpt lat="36.57478" lon="27.98309">
        <ele>176.1</ele>
      </trkpt>
      <trkpt lat="36.57486" lon="27.98309">
        <ele>175.3</ele>
      </trkpt>
      <trkpt lat="36.57494" lon="27.98299">
        <ele>173.4</ele>
      </trkpt>
      <trkpt lat="36.57505" lon="27.98288">
        <ele>171.8</ele>
      </trkpt>
      <trkpt lat="36.5751" lon="27.98278">
        <ele>170.9</ele>
      </trkpt>
      <trkpt lat="36.57519" lon="27.98262">
        <ele>169.5</ele>
      </trkpt>
      <trkpt lat="36.57527" lon="27.98254">
        <ele>168.8</ele>
      </trkpt>
      <trkpt lat="36.57538" lon="27.98247">
        <ele>168</ele>
      </trkpt>
      <trkpt lat="36.57543" lon="27.98247">
        <ele>167.9</ele>
      </trkpt>
      <trkpt lat="36.57548" lon="27.98245">
        <ele>167.7</ele>
      </trkpt>
      <trkpt lat="36.57558" lon="27.98236">
        <ele>166.2</ele>
      </trkpt>
      <trkpt lat="36.57571" lon="27.98232">
        <ele>165.5</ele>
      </trkpt>
      <trkpt lat="36.57582" lon="27.98225">
        <ele>164.5</ele>
      </trkpt>
      <trkpt lat="36.57583" lon="27.98224">
        <ele>164.2</ele>
      </trkpt>
      <trkpt lat="36.5759" lon="27.98212">
        <ele>163.4</ele>
      </trkpt>
      <trkpt lat="36.57597" lon="27.982">
        <ele>162.4</ele>
      </trkpt>
      <trkpt lat="36.57602" lon="27.98192">
        <ele>161.9</ele>
      </trkpt>
      <trkpt lat="36.57604" lon="27.9819">
        <ele>161.7</ele>
      </trkpt>
      <trkpt lat="36.5761" lon="27.9818">
        <ele>160.8</ele>
      </trkpt>
      <trkpt lat="36.57617" lon="27.98172">
        <ele>160.4</ele>
      </trkpt>
      <trkpt lat="36.5762" lon="27.98165">
        <ele>159.5</ele>
      </trkpt>
      <trkpt lat="36.57622" lon="27.98161">
        <ele>159.1</ele>
      </trkpt>
      <trkpt lat="36.57632" lon="27.9815">
        <ele>158.9</ele>
      </trkpt>
      <trkpt lat="36.57636" lon="27.98143">
        <ele>158.5</ele>
      </trkpt>
      <trkpt lat="36.57647" lon="27.98136">
        <ele>159.2</ele>
      </trkpt>
      <trkpt lat="36.5766" lon="27.98128">
        <ele>159.8</ele>
      </trkpt>
      <trkpt lat="36.57662" lon="27.98116">
        <ele>158.4</ele>
      </trkpt>
      <trkpt lat="36.57665" lon="27.98109">
        <ele>157.6</ele>
      </trkpt>
      <trkpt lat="36.57672" lon="27.98097">
        <ele>156.6</ele>
      </trkpt>
      <trkpt lat="36.57675" lon="27.98095">
        <ele>156.4</ele>
      </trkpt>
      <trkpt lat="36.5768" lon="27.98084">
        <ele>155.1</ele>
      </trkpt>
      <trkpt lat="36.57691" lon="27.9808">
        <ele>155.7</ele>
      </trkpt>
      <trkpt lat="36.57696" lon="27.98075">
        <ele>155.9</ele>
      </trkpt>
      <trkpt lat="36.57707" lon="27.9807">
        <ele>156.4</ele>
      </trkpt>
      <trkpt lat="36.57713" lon="27.98065">
        <ele>156.4</ele>
      </trkpt>
      <trkpt lat="36.57712" lon="27.98064">
        <ele>156.4</ele>
      </trkpt>
      <trkpt lat="36.57716" lon="27.98059">
        <ele>156.2</ele>
      </trkpt>
      <trkpt lat="36.57716" lon="27.98059">
        <ele>156.2</ele>
      </trkpt>
      <trkpt lat="36.57724" lon="27.98049">
        <ele>155.8</ele>
      </trkpt>
      <trkpt lat="36.57724" lon="27.98049">
        <ele>155.8</ele>
      </trkpt>
      <trkpt lat="36.57731" lon="27.98041">
        <ele>155.3</ele>
      </trkpt>
      <trkpt lat="36.57732" lon="27.98039">
        <ele>155.2</ele>
      </trkpt>
      <trkpt lat="36.57743" lon="27.98033">
        <ele>154.6</ele>
      </trkpt>
      <trkpt lat="36.57752" lon="27.9803">
        <ele>154.1</ele>
      </trkpt>
      <trkpt lat="36.57762" lon="27.98025">
        <ele>152.2</ele>
      </trkpt>
      <trkpt lat="36.57774" lon="27.9802">
        <ele>150.1</ele>
      </trkpt>
      <trkpt lat="36.57778" lon="27.98018">
        <ele>149.3</ele>
      </trkpt>
      <trkpt lat="36.57781" lon="27.98013">
        <ele>148.3</ele>
      </trkpt>
      <trkpt lat="36.57782" lon="27.98005">
        <ele>147.2</ele>
      </trkpt>
      <trkpt lat="36.5778" lon="27.97994">
        <ele>147.2</ele>
      </trkpt>
      <trkpt lat="36.57785" lon="27.97984">
        <ele>147.1</ele>
      </trkpt>
      <trkpt lat="36.57785" lon="27.97976">
        <ele>147.5</ele>
      </trkpt>
      <trkpt lat="36.57787" lon="27.97971">
        <ele>147.5</ele>
      </trkpt>
      <trkpt lat="36.5779" lon="27.97959">
        <ele>147.8</ele>
      </trkpt>
      <trkpt lat="36.57791" lon="27.97954">
        <ele>147.9</ele>
      </trkpt>
      <trkpt lat="36.57793" lon="27.97943">
        <ele>148.1</ele>
      </trkpt>
      <trkpt lat="36.57794" lon="27.97935">
        <ele>148.4</ele>
      </trkpt>
      <trkpt lat="36.57794" lon="27.97934">
        <ele>148.5</ele>
      </trkpt>
      <trkpt lat="36.57799" lon="27.97923">
        <ele>148.2</ele>
      </trkpt>
      <trkpt lat="36.57801" lon="27.97912">
        <ele>148.7</ele>
      </trkpt>
      <trkpt lat="36.57806" lon="27.97905">
        <ele>148.5</ele>
      </trkpt>
      <trkpt lat="36.57808" lon="27.97902">
        <ele>148.5</ele>
      </trkpt>
      <trkpt lat="36.5781" lon="27.97897">
        <ele>148.9</ele>
      </trkpt>
      <trkpt lat="36.57811" lon="27.97892">
        <ele>149.4</ele>
      </trkpt>
      <trkpt lat="36.5781" lon="27.97887">
        <ele>150.4</ele>
      </trkpt>
      <trkpt lat="36.57812" lon="27.97878">
        <ele>151.3</ele>
      </trkpt>
      <trkpt lat="36.57813" lon="27.97872">
        <ele>152</ele>
      </trkpt>
      <trkpt lat="36.57821" lon="27.97861">
        <ele>152.4</ele>
      </trkpt>
      <trkpt lat="36.57822" lon="27.9786">
        <ele>152.3</ele>
      </trkpt>
      <trkpt lat="36.5783" lon="27.97856">
        <ele>151.7</ele>
      </trkpt>
      <trkpt lat="36.57836" lon="27.9784">
        <ele>153.3</ele>
      </trkpt>
      <trkpt lat="36.57838" lon="27.97837">
        <ele>153.2</ele>
      </trkpt>
      <trkpt lat="36.57846" lon="27.97824">
        <ele>152.2</ele>
      </trkpt>
      <trkpt lat="36.57854" lon="27.97814">
        <ele>150.7</ele>
      </trkpt>
      <trkpt lat="36.57864" lon="27.97799">
        <ele>149.2</ele>
      </trkpt>
      <trkpt lat="36.57867" lon="27.97788">
        <ele>149.3</ele>
      </trkpt>
      <trkpt lat="36.57867" lon="27.97787">
        <ele>149.2</ele>
      </trkpt>
      <trkpt lat="36.57873" lon="27.97778">
        <ele>148.6</ele>
      </trkpt>
      <trkpt lat="36.57875" lon="27.97771">
        <ele>148.5</ele>
      </trkpt>
      <trkpt lat="36.57879" lon="27.9776">
        <ele>148.4</ele>
      </trkpt>
      <trkpt lat="36.5788" lon="27.97759">
        <ele>148.4</ele>
      </trkpt>
      <trkpt lat="36.57887" lon="27.9775">
        <ele>147.4</ele>
      </trkpt>
      <trkpt lat="36.57895" lon="27.97743">
        <ele>145.4</ele>
      </trkpt>
      <trkpt lat="36.57893" lon="27.97726">
        <ele>145.3</ele>
      </trkpt>
      <trkpt lat="36.57891" lon="27.9772">
        <ele>145.5</ele>
      </trkpt>
      <trkpt lat="36.57892" lon="27.97716">
        <ele>145.2</ele>
      </trkpt>
      <trkpt lat="36.57898" lon="27.97702">
        <ele>143.7</ele>
      </trkpt>
      <trkpt lat="36.57901" lon="27.97698">
        <ele>142.9</ele>
      </trkpt>
      <trkpt lat="36.57906" lon="27.97685">
        <ele>141.5</ele>
      </trkpt>
      <trkpt lat="36.5791" lon="27.97675">
        <ele>140.5</ele>
      </trkpt>
      <trkpt lat="36.57915" lon="27.9766">
        <ele>138.5</ele>
      </trkpt>
      <trkpt lat="36.57916" lon="27.97653">
        <ele>137.4</ele>
      </trkpt>
      <trkpt lat="36.57919" lon="27.97642">
        <ele>135.2</ele>
      </trkpt>
      <trkpt lat="36.57925" lon="27.9763">
        <ele>132.4</ele>
      </trkpt>
      <trkpt lat="36.57926" lon="27.97616">
        <ele>130.6</ele>
      </trkpt>
      <trkpt lat="36.5792" lon="27.97607">
        <ele>130.5</ele>
      </trkpt>
      <trkpt lat="36.57917" lon="27.97594">
        <ele>129.3</ele>
      </trkpt>
      <trkpt lat="36.57915" lon="27.97586">
        <ele>128.5</ele>
      </trkpt>
      <trkpt lat="36.57911" lon="27.97578">
        <ele>127.2</ele>
      </trkpt>
      <trkpt lat="36.57911" lon="27.97572">
        <ele>125.7</ele>
      </trkpt>
      <trkpt lat="36.57911" lon="27.97565">
        <ele>124.2</ele>
      </trkpt>
      <trkpt lat="36.5791" lon="27.97558">
        <ele>122.4</ele>
      </trkpt>
      <trkpt lat="36.57908" lon="27.97549">
        <ele>120.4</ele>
      </trkpt>
      <trkpt lat="36.57903" lon="27.97542">
        <ele>119</ele>
      </trkpt>
      <trkpt lat="36.57901" lon="27.97538">
        <ele>118.1</ele>
      </trkpt>
      <trkpt lat="36.57906" lon="27.97533">
        <ele>116.5</ele>
      </trkpt>
      <trkpt lat="36.57908" lon="27.97524">
        <ele>114.3</ele>
      </trkpt>
      <trkpt lat="36.57905" lon="27.97517">
        <ele>112.7</ele>
      </trkpt>
      <trkpt lat="36.57902" lon="27.97507">
        <ele>110.2</ele>
      </trkpt>
      <trkpt lat="36.57899" lon="27.975">
        <ele>108.6</ele>
      </trkpt>
      <trkpt lat="36.57901" lon="27.97491">
        <ele>107.2</ele>
      </trkpt>
      <trkpt lat="36.57903" lon="27.97482">
        <ele>105.9</ele>
      </trkpt>
      <trkpt lat="36.57907" lon="27.9747">
        <ele>104.2</ele>
      </trkpt>
      <trkpt lat="36.57909" lon="27.97458">
        <ele>102.4</ele>
      </trkpt>
      <trkpt lat="36.57917" lon="27.9745">
        <ele>101.3</ele>
      </trkpt>
      <trkpt lat="36.5792" lon="27.97442">
        <ele>100.2</ele>
      </trkpt>
      <trkpt lat="36.57918" lon="27.97433">
        <ele>99.1</ele>
      </trkpt>
      <trkpt lat="36.57918" lon="27.97431">
        <ele>98.8</ele>
      </trkpt>
      <trkpt lat="36.57912" lon="27.9741">
        <ele>96.7</ele>
      </trkpt>
      <trkpt lat="36.57908" lon="27.97389">
        <ele>95.9</ele>
      </trkpt>
      <trkpt lat="36.57903" lon="27.97372">
        <ele>95.1</ele>
      </trkpt>
      <trkpt lat="36.57897" lon="27.97354">
        <ele>94.2</ele>
      </trkpt>
      <trkpt lat="36.57893" lon="27.97338">
        <ele>93.5</ele>
      </trkpt>
      <trkpt lat="36.57886" lon="27.97326">
        <ele>92.7</ele>
      </trkpt>
      <trkpt lat="36.57884" lon="27.97323">
        <ele>92.5</ele>
      </trkpt>
      <trkpt lat="36.57881" lon="27.97316">
        <ele>92.4</ele>
      </trkpt>
      <trkpt lat="36.57883" lon="27.97303">
        <ele>92.4</ele>
      </trkpt>
      <trkpt lat="36.57884" lon="27.97298">
        <ele>92.4</ele>
      </trkpt>
      <trkpt lat="36.57882" lon="27.97282">
        <ele>92.2</ele>
      </trkpt>
      <trkpt lat="36.57882" lon="27.97281">
        <ele>92.2</ele>
      </trkpt>
      <trkpt lat="36.57884" lon="27.97267">
        <ele>92.1</ele>
      </trkpt>
      <trkpt lat="36.57889" lon="27.97247">
        <ele>92.2</ele>
      </trkpt>
      <trkpt lat="36.57891" lon="27.97241">
        <ele>92.4</ele>
      </trkpt>
      <trkpt lat="36.57896" lon="27.97234">
        <ele>92.7</ele>
      </trkpt>
      <trkpt lat="36.57896" lon="27.97223">
        <ele>93.1</ele>
      </trkpt>
      <trkpt lat="36.57893" lon="27.97205">
        <ele>93.9</ele>
      </trkpt>
      <trkpt lat="36.57892" lon="27.97199">
        <ele>94.2</ele>
      </trkpt>
      <trkpt lat="36.57892" lon="27.97197">
        <ele>94.3</ele>
      </trkpt>
      <trkpt lat="36.5789" lon="27.97192">
        <ele>94.6</ele>
      </trkpt>
      <trkpt lat="36.57888" lon="27.97179">
        <ele>95.1</ele>
      </trkpt>
      <trkpt lat="36.57893" lon="27.97168">
        <ele>95.5</ele>
      </trkpt>
      <trkpt lat="36.57895" lon="27.97165">
        <ele>95.5</ele>
      </trkpt>
      <trkpt lat="36.57905" lon="27.97155">
        <ele>95.2</ele>
      </trkpt>
      <trkpt lat="36.5791" lon="27.97144">
        <ele>94.9</ele>
      </trkpt>
      <trkpt lat="36.57919" lon="27.97132">
        <ele>93.8</ele>
      </trkpt>
      <trkpt lat="36.57924" lon="27.97116">
        <ele>92.2</ele>
      </trkpt>
      <trkpt lat="36.57925" lon="27.97115">
        <ele>92.1</ele>
      </trkpt>
      <trkpt lat="36.5793" lon="27.97103">
        <ele>90.6</ele>
      </trkpt>
      <trkpt lat="36.57935" lon="27.97096">
        <ele>89.2</ele>
      </trkpt>
      <trkpt lat="36.57938" lon="27.97087">
        <ele>88.3</ele>
      </trkpt>
      <trkpt lat="36.57939" lon="27.97084">
        <ele>88</ele>
      </trkpt>
      <trkpt lat="36.57946" lon="27.9707">
        <ele>84.4</ele>
      </trkpt>
      <trkpt lat="36.57952" lon="27.97056">
        <ele>81.1</ele>
      </trkpt>
      <trkpt lat="36.57956" lon="27.97045">
        <ele>78.9</ele>
      </trkpt>
      <trkpt lat="36.57959" lon="27.97034">
        <ele>76.9</ele>
      </trkpt>
      <trkpt lat="36.5796" lon="27.97028">
        <ele>76.1</ele>
      </trkpt>
      <trkpt lat="36.57965" lon="27.97014">
        <ele>73.4</ele>
      </trkpt>
      <trkpt lat="36.57967" lon="27.96999">
        <ele>71.4</ele>
      </trkpt>
      <trkpt lat="36.57965" lon="27.9699">
        <ele>70.9</ele>
      </trkpt>
      <trkpt lat="36.57966" lon="27.96977">
        <ele>69.3</ele>
      </trkpt>
      <trkpt lat="36.57966" lon="27.9697">
        <ele>68.7</ele>
      </trkpt>
      <trkpt lat="36.57965" lon="27.9696">
        <ele>67.7</ele>
      </trkpt>
      <trkpt lat="36.57969" lon="27.96952">
        <ele>66.5</ele>
      </trkpt>
      <trkpt lat="36.57969" lon="27.96951">
        <ele>66.4</ele>
      </trkpt>
      <trkpt lat="36.57967" lon="27.96942">
        <ele>65.7</ele>
      </trkpt>
      <trkpt lat="36.57965" lon="27.9693">
        <ele>64.6</ele>
      </trkpt>
      <trkpt lat="36.57966" lon="27.96924">
        <ele>63.9</ele>
      </trkpt>
      <trkpt lat="36.57966" lon="27.96909">
        <ele>63</ele>
      </trkpt>
      <trkpt lat="36.57968" lon="27.969">
        <ele>62.7</ele>
      </trkpt>
      <trkpt lat="36.57967" lon="27.96898">
        <ele>62.7</ele>
      </trkpt>
      <trkpt lat="36.57968" lon="27.96896">
        <ele>62.6</ele>
      </trkpt>
      <trkpt lat="36.57973" lon="27.96886">
        <ele>62.6</ele>
      </trkpt>
      <trkpt lat="36.57973" lon="27.96884">
        <ele>62.5</ele>
      </trkpt>
      <trkpt lat="36.57972" lon="27.96879">
        <ele>62.4</ele>
      </trkpt>
      <trkpt lat="36.57973" lon="27.96871">
        <ele>62.3</ele>
      </trkpt>
      <trkpt lat="36.57977" lon="27.9687">
        <ele>62.6</ele>
      </trkpt>
      <trkpt lat="36.57983" lon="27.96862">
        <ele>63.1</ele>
      </trkpt>
      <trkpt lat="36.57989" lon="27.96863">
        <ele>63.6</ele>
      </trkpt>
      <trkpt lat="36.57988" lon="27.96863">
        <ele>63.5</ele>
      </trkpt>
      <trkpt lat="36.57986" lon="27.96867">
        <ele>63.3</ele>
      </trkpt>
      <trkpt lat="36.57989" lon="27.96876">
        <ele>63.3</ele>
      </trkpt>
      <trkpt lat="36.57991" lon="27.96879">
        <ele>63.3</ele>
      </trkpt>
      <trkpt lat="36.58001" lon="27.96884">
        <ele>63.5</ele>
      </trkpt>
      <trkpt lat="36.58007" lon="27.96894">
        <ele>62.3</ele>
      </trkpt>
      <trkpt lat="36.58012" lon="27.96898">
        <ele>61.4</ele>
      </trkpt>
      <trkpt lat="36.58018" lon="27.96904">
        <ele>60.4</ele>
      </trkpt>
      <trkpt lat="36.58026" lon="27.96909">
        <ele>59</ele>
      </trkpt>
      <trkpt lat="36.58034" lon="27.96914">
        <ele>57.7</ele>
      </trkpt>
      <trkpt lat="36.5804" lon="27.9692">
        <ele>56.8</ele>
      </trkpt>
      <trkpt lat="36.58041" lon="27.96921">
        <ele>56.6</ele>
      </trkpt>
      <trkpt lat="36.58047" lon="27.96934">
        <ele>55.5</ele>
      </trkpt>
      <trkpt lat="36.58051" lon="27.96939">
        <ele>54.8</ele>
      </trkpt>
      <trkpt lat="36.58061" lon="27.96948">
        <ele>53</ele>
      </trkpt>
      <trkpt lat="36.58067" lon="27.96954">
        <ele>51.6</ele>
      </trkpt>
      <trkpt lat="36.58077" lon="27.9696">
        <ele>49.7</ele>
      </trkpt>
      <trkpt lat="36.58084" lon="27.96966">
        <ele>47.8</ele>
      </trkpt>
      <trkpt lat="36.58088" lon="27.96974">
        <ele>46.5</ele>
      </trkpt>
      <trkpt lat="36.58089" lon="27.96975">
        <ele>46.3</ele>
      </trkpt>
      <trkpt lat="36.58092" lon="27.96987">
        <ele>44.8</ele>
      </trkpt>
      <trkpt lat="36.58096" lon="27.97004">
        <ele>43.2</ele>
      </trkpt>
      <trkpt lat="36.58099" lon="27.97022">
        <ele>42.3</ele>
      </trkpt>
      <trkpt lat="36.58099" lon="27.97023">
        <ele>42.3</ele>
      </trkpt>
      <trkpt lat="36.58103" lon="27.97027">
        <ele>41.6</ele>
      </trkpt>
      <trkpt lat="36.58103" lon="27.97027">
        <ele>41.6</ele>
      </trkpt>
      <trkpt lat="36.58105" lon="27.97024">
        <ele>41.1</ele>
      </trkpt>
      <trkpt lat="36.58111" lon="27.9702">
        <ele>39.8</ele>
      </trkpt>
      <trkpt lat="36.58115" lon="27.97026">
        <ele>39</ele>
      </trkpt>
      <trkpt lat="36.5812" lon="27.97033">
        <ele>37.9</ele>
      </trkpt>
      <trkpt lat="36.58123" lon="27.97046">
        <ele>37.1</ele>
      </trkpt>
      <trkpt lat="36.5813" lon="27.97062">
        <ele>35.5</ele>
      </trkpt>
      <trkpt lat="36.58134" lon="27.97073">
        <ele>34.6</ele>
      </trkpt>
      <trkpt lat="36.58135" lon="27.97087">
        <ele>34.5</ele>
      </trkpt>
      <trkpt lat="36.58135" lon="27.97088">
        <ele>34.5</ele>
      </trkpt>
      <trkpt lat="36.58137" lon="27.97105">
        <ele>34.1</ele>
      </trkpt>
      <trkpt lat="36.58138" lon="27.97116">
        <ele>34</ele>
      </trkpt>
      <trkpt lat="36.58142" lon="27.97118">
        <ele>33.3</ele>
      </trkpt>
      <trkpt lat="36.58144" lon="27.97126">
        <ele>32.9</ele>
      </trkpt>
      <trkpt lat="36.58145" lon="27.97134">
        <ele>32.7</ele>
      </trkpt>
      <trkpt lat="36.58149" lon="27.97143">
        <ele>32</ele>
      </trkpt>
      <trkpt lat="36.58156" lon="27.97158">
        <ele>30.8</ele>
      </trkpt>
      <trkpt lat="36.58164" lon="27.97166">
        <ele>29.6</ele>
      </trkpt>
      <trkpt lat="36.58174" lon="27.9718">
        <ele>28.4</ele>
      </trkpt>
      <trkpt lat="36.58178" lon="27.97187">
        <ele>28.1</ele>
      </trkpt>
      <trkpt lat="36.58178" lon="27.97188">
        <ele>28.1</ele>
      </trkpt>
      <trkpt lat="36.58179" lon="27.97193">
        <ele>28.1</ele>
      </trkpt>
      <trkpt lat="36.58181" lon="27.97197">
        <ele>27.9</ele>
        <time>2017-12-28T09:53:27Z</time>
      </trkpt>
      <trkpt lat="36.58183" lon="27.97224">
        <ele>29.2</ele>
      </trkpt>
      <trkpt lat="36.58188" lon="27.97257">
        <ele>30.6</ele>
      </trkpt>
      <trkpt lat="36.58201" lon="27.9728">
        <ele>30.2</ele>
      </trkpt>
      <trkpt lat="36.58205" lon="27.97295">
        <ele>30.7</ele>
      </trkpt>
      <trkpt lat="36.58213" lon="27.97297">
        <ele>28.3</ele>
      </trkpt>
      <trkpt lat="36.58224" lon="27.97332">
        <ele>28.2</ele>
      </trkpt>
      <trkpt lat="36.58222" lon="27.97325">
        <ele>28.3</ele>
      </trkpt>
      <trkpt lat="36.58222" lon="27.97325">
        <ele>28.3</ele>
      </trkpt>
      <trkpt lat="36.58222" lon="27.97327">
        <ele>28.5</ele>
      </trkpt>
      <trkpt lat="36.58222" lon="27.97331">
        <ele>28.8</ele>
      </trkpt>
      <trkpt lat="36.58222" lon="27.97332">
        <ele>28.9</ele>
      </trkpt>
      <trkpt lat="36.58222" lon="27.97338">
        <ele>29.4</ele>
      </trkpt>
      <trkpt lat="36.58222" lon="27.97339">
        <ele>29.6</ele>
      </trkpt>
      <trkpt lat="36.58222" lon="27.9734">
        <ele>29.6</ele>
      </trkpt>
      <trkpt lat="36.58225" lon="27.9735">
        <ele>29.5</ele>
      </trkpt>
      <trkpt lat="36.58226" lon="27.97359">
        <ele>30.2</ele>
      </trkpt>
      <trkpt lat="36.58227" lon="27.97367">
        <ele>30.3</ele>
      </trkpt>
      <trkpt lat="36.58228" lon="27.97372">
        <ele>30.5</ele>
      </trkpt>
      <trkpt lat="36.58228" lon="27.97372">
        <ele>30.6</ele>
      </trkpt>
      <trkpt lat="36.58228" lon="27.97379">
        <ele>31.1</ele>
      </trkpt>
      <trkpt lat="36.58229" lon="27.97381">
        <ele>31</ele>
      </trkpt>
      <trkpt lat="36.58232" lon="27.97387">
        <ele>30.5</ele>
      </trkpt>
      <trkpt lat="36.58231" lon="27.97389">
        <ele>31.2</ele>
      </trkpt>
      <trkpt lat="36.58231" lon="27.97392">
        <ele>31.2</ele>
      </trkpt>
      <trkpt lat="36.58231" lon="27.97396">
        <ele>31.8</ele>
      </trkpt>
      <trkpt lat="36.58229" lon="27.97396">
        <ele>32.3</ele>
      </trkpt>
      <trkpt lat="36.58229" lon="27.97397">
        <ele>32.3</ele>
      </trkpt>
      <trkpt lat="36.58229" lon="27.97397">
        <ele>32.3</ele>
      </trkpt>
      <trkpt lat="36.58231" lon="27.97404">
        <ele>32.4</ele>
      </trkpt>
      <trkpt lat="36.5823" lon="27.9741">
        <ele>33.3</ele>
      </trkpt>
      <trkpt lat="36.58231" lon="27.97412">
        <ele>33</ele>
      </trkpt>
      <trkpt lat="36.58232" lon="27.97415">
        <ele>33.1</ele>
      </trkpt>
      <trkpt lat="36.58232" lon="27.97422">
        <ele>33.1</ele>
      </trkpt>
      <trkpt lat="36.58232" lon="27.97423">
        <ele>33</ele>
      </trkpt>
      <trkpt lat="36.58231" lon="27.97426">
        <ele>33.1</ele>
      </trkpt>
      <trkpt lat="36.58234" lon="27.97433">
        <ele>32</ele>
      </trkpt>
      <trkpt lat="36.58234" lon="27.97439">
        <ele>31.5</ele>
      </trkpt>
      <trkpt lat="36.58236" lon="27.97446">
        <ele>30.5</ele>
      </trkpt>
      <trkpt lat="36.58238" lon="27.97449">
        <ele>30</ele>
      </trkpt>
      <trkpt lat="36.58239" lon="27.9745">
        <ele>29.7</ele>
      </trkpt>
      <trkpt lat="36.58237" lon="27.97451">
        <ele>30</ele>
      </trkpt>
      <trkpt lat="36.58237" lon="27.97451">
        <ele>30</ele>
      </trkpt>
      <trkpt lat="36.58239" lon="27.97454">
        <ele>29.3</ele>
      </trkpt>
      <trkpt lat="36.58239" lon="27.97455">
        <ele>29.3</ele>
      </trkpt>
      <trkpt lat="36.5824" lon="27.97455">
        <ele>29</ele>
      </trkpt>
      <trkpt lat="36.58242" lon="27.97459">
        <ele>28.1</ele>
      </trkpt>
      <trkpt lat="36.58243" lon="27.9747">
        <ele>27.2</ele>
      </trkpt>
      <trkpt lat="36.58245" lon="27.97476">
        <ele>26.6</ele>
      </trkpt>
      <trkpt lat="36.58245" lon="27.97477">
        <ele>26.5</ele>
      </trkpt>
      <trkpt lat="36.58248" lon="27.97488">
        <ele>25</ele>
      </trkpt>
      <trkpt lat="36.58251" lon="27.97493">
        <ele>24</ele>
      </trkpt>
      <trkpt lat="36.58253" lon="27.97499">
        <ele>23.2</ele>
      </trkpt>
      <trkpt lat="36.58253" lon="27.975">
        <ele>23.1</ele>
      </trkpt>
      <trkpt lat="36.58255" lon="27.97502">
        <ele>22.8</ele>
      </trkpt>
      <trkpt lat="36.58255" lon="27.97507">
        <ele>22.6</ele>
      </trkpt>
      <trkpt lat="36.58259" lon="27.97514">
        <ele>21.2</ele>
      </trkpt>
      <trkpt lat="36.5826" lon="27.97516">
        <ele>20.9</ele>
      </trkpt>
      <trkpt lat="36.58261" lon="27.97521">
        <ele>20.8</ele>
      </trkpt>
      <trkpt lat="36.58261" lon="27.97521">
        <ele>20.7</ele>
      </trkpt>
      <trkpt lat="36.58261" lon="27.97521">
        <ele>20.6</ele>
      </trkpt>
      <trkpt lat="36.58262" lon="27.97524">
        <ele>20.4</ele>
      </trkpt>
      <trkpt lat="36.58262" lon="27.97524">
        <ele>20.4</ele>
      </trkpt>
      <trkpt lat="36.58263" lon="27.97527">
        <ele>20</ele>
      </trkpt>
      <trkpt lat="36.58266" lon="27.97529">
        <ele>19.3</ele>
      </trkpt>
      <trkpt lat="36.58266" lon="27.97528">
        <ele>19.4</ele>
      </trkpt>
      <trkpt lat="36.58266" lon="27.9753">
        <ele>19.3</ele>
      </trkpt>
      <trkpt lat="36.58267" lon="27.97533">
        <ele>19</ele>
      </trkpt>
      <trkpt lat="36.58272" lon="27.97536">
        <ele>17.9</ele>
      </trkpt>
      <trkpt lat="36.58275" lon="27.97539">
        <ele>17.1</ele>
      </trkpt>
      <trkpt lat="36.58278" lon="27.97544">
        <ele>16.4</ele>
      </trkpt>
      <trkpt lat="36.58278" lon="27.97544">
        <ele>16.4</ele>
      </trkpt>
      <trkpt lat="36.58284" lon="27.97551">
        <ele>15.2</ele>
      </trkpt>
      <trkpt lat="36.58287" lon="27.97554">
        <ele>14.5</ele>
      </trkpt>
      <trkpt lat="36.58287" lon="27.97554">
        <ele>14.5</ele>
      </trkpt>
      <trkpt lat="36.58288" lon="27.97556">
        <ele>14.2</ele>
      </trkpt>
      <trkpt lat="36.58288" lon="27.97556">
        <ele>14.3</ele>
      </trkpt>
      <trkpt lat="36.58291" lon="27.97561">
        <ele>13.6</ele>
      </trkpt>
      <trkpt lat="36.58292" lon="27.97562">
        <ele>13.4</ele>
      </trkpt>
      <trkpt lat="36.58296" lon="27.97567">
        <ele>12.7</ele>
      </trkpt>
      <trkpt lat="36.58296" lon="27.97567">
        <ele>12.6</ele>
      </trkpt>
      <trkpt lat="36.58297" lon="27.97569">
        <ele>12.4</ele>
      </trkpt>
      <trkpt lat="36.58298" lon="27.97568">
        <ele>12.3</ele>
      </trkpt>
      <trkpt lat="36.58299" lon="27.9757">
        <ele>12.2</ele>
      </trkpt>
      <trkpt lat="36.58308" lon="27.97574">
        <ele>10.5</ele>
      </trkpt>
      <trkpt lat="36.58311" lon="27.97577">
        <ele>9.9</ele>
      </trkpt>
      <trkpt lat="36.58312" lon="27.97582">
        <ele>9.9</ele>
      </trkpt>
      <trkpt lat="36.58316" lon="27.97588">
        <ele>9.3</ele>
      </trkpt>
      <trkpt lat="36.58319" lon="27.9759">
        <ele>8.8</ele>
      </trkpt>
      <trkpt lat="36.5832" lon="27.97591">
        <ele>8.7</ele>
      </trkpt>
      <trkpt lat="36.58323" lon="27.97595">
        <ele>8.3</ele>
      </trkpt>
      <trkpt lat="36.58323" lon="27.97596">
        <ele>8.2</ele>
      </trkpt>
      <trkpt lat="36.58324" lon="27.97595">
        <ele>8.1</ele>
      </trkpt>
      <trkpt lat="36.58324" lon="27.97595">
        <ele>8</ele>
      </trkpt>
      <trkpt lat="36.58323" lon="27.97593">
        <ele>8.2</ele>
      </trkpt>
      <trkpt lat="36.58322" lon="27.97593">
        <ele>8.3</ele>
      </trkpt>
      <trkpt lat="36.58322" lon="27.97595">
        <ele>8.4</ele>
      </trkpt>
      <trkpt lat="36.58326" lon="27.97601">
        <ele>7.8</ele>
      </trkpt>
      <trkpt lat="36.58327" lon="27.97602">
        <ele>7.6</ele>
      </trkpt>
      <trkpt lat="36.58327" lon="27.97602">
        <ele>7.6</ele>
      </trkpt>
      <trkpt lat="36.58328" lon="27.97607">
        <ele>7.7</ele>
      </trkpt>
      <trkpt lat="36.58331" lon="27.97617">
        <ele>7.3</ele>
      </trkpt>
      <trkpt lat="36.58331" lon="27.97619">
        <ele>7.2</ele>
      </trkpt>
      <trkpt lat="36.58331" lon="27.97622">
        <ele>7.3</ele>
      </trkpt>
      <trkpt lat="36.58333" lon="27.97628">
        <ele>7.1</ele>
      </trkpt>
      <trkpt lat="36.58334" lon="27.97633">
        <ele>7.2</ele>
      </trkpt>
      <trkpt lat="36.58333" lon="27.97634">
        <ele>7.3</ele>
      </trkpt>
      <trkpt lat="36.58334" lon="27.97635">
        <ele>7.2</ele>
      </trkpt>
      <trkpt lat="36.58335" lon="27.97636">
        <ele>7.2</ele>
      </trkpt>
      <trkpt lat="36.58337" lon="27.97638">
        <ele>7.3</ele>
      </trkpt>
      <trkpt lat="36.58337" lon="27.97638">
        <ele>7.3</ele>
      </trkpt>
      <trkpt lat="36.58336" lon="27.97638">
        <ele>7.3</ele>
      </trkpt>
      <trkpt lat="36.58338" lon="27.97639">
        <ele>7.3</ele>
      </trkpt>
      <trkpt lat="36.58341" lon="27.97647">
        <ele>7.4</ele>
      </trkpt>
      <trkpt lat="36.58342" lon="27.97649">
        <ele>7.4</ele>
      </trkpt>
      <trkpt lat="36.5834" lon="27.97649">
        <ele>7.4</ele>
      </trkpt>
      <trkpt lat="36.5834" lon="27.9765">
        <ele>7.5</ele>
      </trkpt>
      <trkpt lat="36.58339" lon="27.9765">
        <ele>7.5</ele>
      </trkpt>
      <trkpt lat="36.58339" lon="27.97651">
        <ele>7.5</ele>
      </trkpt>
      <trkpt lat="36.58338" lon="27.97653">
        <ele>7.6</ele>
      </trkpt>
      <trkpt lat="36.58337" lon="27.97658">
        <ele>7.7</ele>
      </trkpt>
      <trkpt lat="36.58337" lon="27.97662">
        <ele>7.8</ele>
      </trkpt>
      <trkpt lat="36.58337" lon="27.97672">
        <ele>8.3</ele>
      </trkpt>
      <trkpt lat="36.58337" lon="27.97673">
        <ele>8.4</ele>
      </trkpt>
      <trkpt lat="36.58337" lon="27.97671">
        <ele>8.2</ele>
      </trkpt>
      <trkpt lat="36.58337" lon="27.97674">
        <ele>8.5</ele>
      </trkpt>
      <trkpt lat="36.58337" lon="27.97681">
        <ele>9.1</ele>
      </trkpt>
      <trkpt lat="36.58338" lon="27.97684">
        <ele>9.3</ele>
      </trkpt>
      <trkpt lat="36.58338" lon="27.97683">
        <ele>9.3</ele>
      </trkpt>
      <trkpt lat="36.58338" lon="27.97683">
        <ele>9.3</ele>
      </trkpt>
      <trkpt lat="36.5834" lon="27.97686">
        <ele>9.6</ele>
      </trkpt>
      <trkpt lat="36.5834" lon="27.97688">
        <ele>9.7</ele>
      </trkpt>
      <trkpt lat="36.58342" lon="27.97691">
        <ele>9.9</ele>
      </trkpt>
      <trkpt lat="36.58342" lon="27.97691">
        <ele>10</ele>
      </trkpt>
      <trkpt lat="36.58341" lon="27.97694">
        <ele>10.2</ele>
      </trkpt>
      <trkpt lat="36.5834" lon="27.97696">
        <ele>10.4</ele>
      </trkpt>
      <trkpt lat="36.58343" lon="27.97699">
        <ele>10.7</ele>
      </trkpt>
      <trkpt lat="36.58346" lon="27.97701">
        <ele>10.8</ele>
      </trkpt>
      <trkpt lat="36.58347" lon="27.97703">
        <ele>11</ele>
      </trkpt>
      <trkpt lat="36.5835" lon="27.97705">
        <ele>11.2</ele>
      </trkpt>
      <trkpt lat="36.58355" lon="27.97709">
        <ele>11.5</ele>
      </trkpt>
      <trkpt lat="36.58357" lon="27.9771">
        <ele>11.7</ele>
      </trkpt>
      <trkpt lat="36.58364" lon="27.97714">
        <ele>12.1</ele>
      </trkpt>
      <trkpt lat="36.58363" lon="27.97713">
        <ele>12</ele>
      </trkpt>
      <trkpt lat="36.58365" lon="27.97714">
        <ele>12.1</ele>
      </trkpt>
      <trkpt lat="36.58367" lon="27.97717">
        <ele>12.4</ele>
      </trkpt>
      <trkpt lat="36.58375" lon="27.97721">
        <ele>12.9</ele>
      </trkpt>
      <trkpt lat="36.58375" lon="27.97722">
        <ele>12.9</ele>
      </trkpt>
      <trkpt lat="36.58382" lon="27.97729">
        <ele>13.9</ele>
      </trkpt>
      <trkpt lat="36.58383" lon="27.9773">
        <ele>13.9</ele>
      </trkpt>
      <trkpt lat="36.58388" lon="27.97732">
        <ele>14.2</ele>
      </trkpt>
      <trkpt lat="36.58388" lon="27.97733">
        <ele>14.4</ele>
      </trkpt>
      <trkpt lat="36.58388" lon="27.97735">
        <ele>14.6</ele>
      </trkpt>
      <trkpt lat="36.58388" lon="27.97736">
        <ele>14.7</ele>
      </trkpt>
      <trkpt lat="36.5839" lon="27.97739">
        <ele>15.1</ele>
      </trkpt>
      <trkpt lat="36.5839" lon="27.9774">
        <ele>15.2</ele>
      </trkpt>
      <trkpt lat="36.58398" lon="27.97744">
        <ele>15.8</ele>
      </trkpt>
      <trkpt lat="36.58398" lon="27.97744">
        <ele>15.9</ele>
      </trkpt>
      <trkpt lat="36.58398" lon="27.97746">
        <ele>16</ele>
      </trkpt>
      <trkpt lat="36.584" lon="27.9775">
        <ele>16.6</ele>
      </trkpt>
      <trkpt lat="36.58404" lon="27.97753">
        <ele>17.3</ele>
      </trkpt>
      <trkpt lat="36.58407" lon="27.97756">
        <ele>17.9</ele>
      </trkpt>
      <trkpt lat="36.58414" lon="27.97762">
        <ele>19.3</ele>
      </trkpt>
      <trkpt lat="36.58416" lon="27.97763">
        <ele>19.6</ele>
      </trkpt>
      <trkpt lat="36.58417" lon="27.97764">
        <ele>19.8</ele>
      </trkpt>
      <trkpt lat="36.58419" lon="27.97769">
        <ele>20.7</ele>
      </trkpt>
      <trkpt lat="36.58421" lon="27.97772">
        <ele>21.3</ele>
      </trkpt>
      <trkpt lat="36.58422" lon="27.97776">
        <ele>22.1</ele>
      </trkpt>
      <trkpt lat="36.58421" lon="27.97778">
        <ele>22.5</ele>
      </trkpt>
      <trkpt lat="36.58421" lon="27.97779">
        <ele>22.8</ele>
      </trkpt>
      <trkpt lat="36.58423" lon="27.97787">
        <ele>24.2</ele>
      </trkpt>
      <trkpt lat="36.58422" lon="27.97787">
        <ele>24.3</ele>
      </trkpt>
      <trkpt lat="36.5842" lon="27.97788">
        <ele>24.5</ele>
      </trkpt>
      <trkpt lat="36.5842" lon="27.9779">
        <ele>24.8</ele>
      </trkpt>
      <trkpt lat="36.5842" lon="27.9779">
        <ele>24.9</ele>
      </trkpt>
      <trkpt lat="36.58419" lon="27.9779">
        <ele>24.9</ele>
      </trkpt>
      <trkpt lat="36.58418" lon="27.97792">
        <ele>25.4</ele>
      </trkpt>
      <trkpt lat="36.58417" lon="27.97793">
        <ele>25.6</ele>
      </trkpt>
      <trkpt lat="36.58415" lon="27.97795">
        <ele>26.2</ele>
      </trkpt>
      <trkpt lat="36.5841" lon="27.978">
        <ele>27</ele>
      </trkpt>
      <trkpt lat="36.58409" lon="27.97804">
        <ele>27.7</ele>
      </trkpt>
      <trkpt lat="36.58406" lon="27.9781">
        <ele>28.9</ele>
      </trkpt>
      <trkpt lat="36.58406" lon="27.97812">
        <ele>29.2</ele>
      </trkpt>
      <trkpt lat="36.58406" lon="27.97812">
        <ele>29.3</ele>
      </trkpt>
      <trkpt lat="36.58405" lon="27.97813">
        <ele>29.5</ele>
      </trkpt>
      <trkpt lat="36.58404" lon="27.97814">
        <ele>29.7</ele>
      </trkpt>
      <trkpt lat="36.58404" lon="27.97815">
        <ele>29.8</ele>
      </trkpt>
      <trkpt lat="36.584" lon="27.97816">
        <ele>29.9</ele>
      </trkpt>
      <trkpt lat="36.58397" lon="27.97819">
        <ele>30.4</ele>
      </trkpt>
      <trkpt lat="36.58398" lon="27.97819">
        <ele>30.4</ele>
      </trkpt>
      <trkpt lat="36.58397" lon="27.97821">
        <ele>30.7</ele>
      </trkpt>
      <trkpt lat="36.58394" lon="27.97824">
        <ele>31.3</ele>
      </trkpt>
      <trkpt lat="36.58393" lon="27.97829">
        <ele>32.2</ele>
      </trkpt>
      <trkpt lat="36.58391" lon="27.97833">
        <ele>32.9</ele>
      </trkpt>
      <trkpt lat="36.5839" lon="27.97834">
        <ele>33.1</ele>
      </trkpt>
      <trkpt lat="36.58385" lon="27.97835">
        <ele>33.2</ele>
      </trkpt>
      <trkpt lat="36.58382" lon="27.97834">
        <ele>32.9</ele>
      </trkpt>
      <trkpt lat="36.5838" lon="27.97835">
        <ele>32.9</ele>
      </trkpt>
      <trkpt lat="36.5838" lon="27.97837">
        <ele>33.4</ele>
      </trkpt>
      <trkpt lat="36.5838" lon="27.97839">
        <ele>34</ele>
      </trkpt>
      <trkpt lat="36.58377" lon="27.97844">
        <ele>35</ele>
      </trkpt>
      <trkpt lat="36.58376" lon="27.97847">
        <ele>35.6</ele>
      </trkpt>
      <trkpt lat="36.58376" lon="27.9785">
        <ele>36.4</ele>
      </trkpt>
      <trkpt lat="36.58374" lon="27.97854">
        <ele>37.3</ele>
      </trkpt>
      <trkpt lat="36.58372" lon="27.97858">
        <ele>38.2</ele>
      </trkpt>
      <trkpt lat="36.58372" lon="27.97861">
        <ele>39</ele>
      </trkpt>
      <trkpt lat="36.58372" lon="27.97865">
        <ele>40</ele>
      </trkpt>
      <trkpt lat="36.58372" lon="27.97868">
        <ele>40.8</ele>
      </trkpt>
      <trkpt lat="36.5837" lon="27.97871">
        <ele>41.5</ele>
      </trkpt>
      <trkpt lat="36.58369" lon="27.97873">
        <ele>42</ele>
      </trkpt>
      <trkpt lat="36.58365" lon="27.9788">
        <ele>43.8</ele>
      </trkpt>
      <trkpt lat="36.58364" lon="27.97882">
        <ele>44.5</ele>
      </trkpt>
      <trkpt lat="36.58363" lon="27.97884">
        <ele>45.1</ele>
      </trkpt>
      <trkpt lat="36.5836" lon="27.97889">
        <ele>46.6</ele>
      </trkpt>
      <trkpt lat="36.58355" lon="27.97893">
        <ele>48</ele>
      </trkpt>
      <trkpt lat="36.5835" lon="27.97898">
        <ele>49.8</ele>
      </trkpt>
      <trkpt lat="36.58346" lon="27.97902">
        <ele>51.1</ele>
      </trkpt>
      <trkpt lat="36.58344" lon="27.97905">
        <ele>52.2</ele>
      </trkpt>
      <trkpt lat="36.58342" lon="27.97906">
        <ele>52.8</ele>
      </trkpt>
      <trkpt lat="36.58338" lon="27.9791">
        <ele>54.5</ele>
      </trkpt>
      <trkpt lat="36.58339" lon="27.97911">
        <ele>54.7</ele>
      </trkpt>
      <trkpt lat="36.58337" lon="27.97917">
        <ele>56.5</ele>
      </trkpt>
      <trkpt lat="36.58333" lon="27.97914">
        <ele>56.1</ele>
      </trkpt>
      <trkpt lat="36.58333" lon="27.97916">
        <ele>56.9</ele>
      </trkpt>
      <trkpt lat="36.58331" lon="27.97917">
        <ele>57</ele>
      </trkpt>
      <trkpt lat="36.58328" lon="27.97918">
        <ele>57.1</ele>
      </trkpt>
      <trkpt lat="36.58323" lon="27.9792">
        <ele>57.4</ele>
      </trkpt>
      <trkpt lat="36.58315" lon="27.97925">
        <ele>58.2</ele>
      </trkpt>
      <trkpt lat="36.58313" lon="27.97928">
        <ele>58.8</ele>
      </trkpt>
      <trkpt lat="36.58306" lon="27.9793">
        <ele>59.1</ele>
      </trkpt>
      <trkpt lat="36.58304" lon="27.9793">
        <ele>59.2</ele>
      </trkpt>
      <trkpt lat="36.583" lon="27.97932">
        <ele>59.6</ele>
      </trkpt>
      <trkpt lat="36.58294" lon="27.97937">
        <ele>60.7</ele>
      </trkpt>
      <trkpt lat="36.58288" lon="27.97941">
        <ele>61.6</ele>
      </trkpt>
      <trkpt lat="36.58286" lon="27.97943">
        <ele>62.1</ele>
      </trkpt>
      <trkpt lat="36.5828" lon="27.97947">
        <ele>63</ele>
      </trkpt>
      <trkpt lat="36.58278" lon="27.97949">
        <ele>63.7</ele>
      </trkpt>
      <trkpt lat="36.58277" lon="27.97952">
        <ele>64.2</ele>
      </trkpt>
      <trkpt lat="36.58276" lon="27.97953">
        <ele>64.5</ele>
      </trkpt>
      <trkpt lat="36.58276" lon="27.97955">
        <ele>65</ele>
      </trkpt>
      <trkpt lat="36.58276" lon="27.97956">
        <ele>65.3</ele>
      </trkpt>
      <trkpt lat="36.58275" lon="27.97963">
        <ele>67.1</ele>
      </trkpt>
      <trkpt lat="36.58274" lon="27.97965">
        <ele>67.6</ele>
      </trkpt>
      <trkpt lat="36.58274" lon="27.97966">
        <ele>67.8</ele>
      </trkpt>
      <trkpt lat="36.58273" lon="27.97968">
        <ele>68.5</ele>
      </trkpt>
      <trkpt lat="36.58273" lon="27.97968">
        <ele>68.5</ele>
      </trkpt>
      <trkpt lat="36.58273" lon="27.9797">
        <ele>68.9</ele>
      </trkpt>
      <trkpt lat="36.58272" lon="27.9797">
        <ele>68.9</ele>
      </trkpt>
      <trkpt lat="36.58272" lon="27.97973">
        <ele>69.6</ele>
      </trkpt>
      <trkpt lat="36.58271" lon="27.97978">
        <ele>70.8</ele>
      </trkpt>
      <trkpt lat="36.58272" lon="27.97981">
        <ele>71.7</ele>
      </trkpt>
      <trkpt lat="36.5827" lon="27.97983">
        <ele>72.2</ele>
      </trkpt>
      <trkpt lat="36.58267" lon="27.97984">
        <ele>72.8</ele>
      </trkpt>
      <trkpt lat="36.58266" lon="27.97984">
        <ele>72.6</ele>
      </trkpt>
      <trkpt lat="36.58265" lon="27.97987">
        <ele>73.5</ele>
      </trkpt>
      <trkpt lat="36.58263" lon="27.9799">
        <ele>74.5</ele>
      </trkpt>
      <trkpt lat="36.58261" lon="27.97994">
        <ele>75.7</ele>
      </trkpt>
      <trkpt lat="36.5826" lon="27.97995">
        <ele>75.9</ele>
      </trkpt>
      <trkpt lat="36.58259" lon="27.97991">
        <ele>74.8</ele>
      </trkpt>
      <trkpt lat="36.58259" lon="27.97986">
        <ele>73.6</ele>
      </trkpt>
      <trkpt lat="36.58259" lon="27.97988">
        <ele>74.1</ele>
      </trkpt>
      <trkpt lat="36.58258" lon="27.97991">
        <ele>75</ele>
      </trkpt>
      <trkpt lat="36.58256" lon="27.98">
        <ele>77.4</ele>
      </trkpt>
      <trkpt lat="36.58254" lon="27.98003">
        <ele>78.7</ele>
      </trkpt>
      <trkpt lat="36.58251" lon="27.98007">
        <ele>79.9</ele>
      </trkpt>
      <trkpt lat="36.58253" lon="27.98007">
        <ele>79.9</ele>
      </trkpt>
      <trkpt lat="36.58252" lon="27.98007">
        <ele>79.9</ele>
      </trkpt>
      <trkpt lat="36.58251" lon="27.98008">
        <ele>80.2</ele>
      </trkpt>
      <trkpt lat="36.58251" lon="27.98008">
        <ele>80.3</ele>
      </trkpt>
      <trkpt lat="36.58249" lon="27.9801">
        <ele>81.1</ele>
      </trkpt>
      <trkpt lat="36.58246" lon="27.98009">
        <ele>81</ele>
      </trkpt>
      <trkpt lat="36.58245" lon="27.98009">
        <ele>81.2</ele>
      </trkpt>
      <trkpt lat="36.58245" lon="27.98007">
        <ele>80.8</ele>
      </trkpt>
      <trkpt lat="36.58246" lon="27.98008">
        <ele>80.9</ele>
      </trkpt>
      <trkpt lat="36.58245" lon="27.98009">
        <ele>81.3</ele>
      </trkpt>
      <trkpt lat="36.58245" lon="27.98009">
        <ele>81.3</ele>
      </trkpt>
      <trkpt lat="36.58239" lon="27.98016">
        <ele>84.2</ele>
      </trkpt>
      <trkpt lat="36.58238" lon="27.98016">
        <ele>84.3</ele>
      </trkpt>
      <trkpt lat="36.58233" lon="27.98017">
        <ele>85.4</ele>
      </trkpt>
      <trkpt lat="36.58233" lon="27.98018">
        <ele>85.8</ele>
      </trkpt>
      <trkpt lat="36.5823" lon="27.98019">
        <ele>86.3</ele>
      </trkpt>
      <trkpt lat="36.58226" lon="27.98022">
        <ele>88</ele>
      </trkpt>
      <trkpt lat="36.58224" lon="27.98021">
        <ele>87.8</ele>
      </trkpt>
      <trkpt lat="36.58224" lon="27.98022">
        <ele>88</ele>
      </trkpt>
      <trkpt lat="36.58224" lon="27.98022">
        <ele>88</ele>
      </trkpt>
      <trkpt lat="36.58223" lon="27.98022">
        <ele>88.4</ele>
      </trkpt>
      <trkpt lat="36.58221" lon="27.98025">
        <ele>89.5</ele>
      </trkpt>
      <trkpt lat="36.58219" lon="27.98027">
        <ele>90.3</ele>
      </trkpt>
      <trkpt lat="36.58219" lon="27.98028">
        <ele>90.6</ele>
      </trkpt>
      <trkpt lat="36.58218" lon="27.98027">
        <ele>90.7</ele>
      </trkpt>
      <trkpt lat="36.58216" lon="27.98028">
        <ele>91</ele>
      </trkpt>
      <trkpt lat="36.58211" lon="27.9803">
        <ele>92.4</ele>
      </trkpt>
      <trkpt lat="36.58207" lon="27.98031">
        <ele>93.3</ele>
      </trkpt>
      <trkpt lat="36.58207" lon="27.98033">
        <ele>94</ele>
      </trkpt>
      <trkpt lat="36.58206" lon="27.98033">
        <ele>94.1</ele>
      </trkpt>
      <trkpt lat="36.58204" lon="27.98033">
        <ele>94.4</ele>
      </trkpt>
      <trkpt lat="36.58202" lon="27.98034">
        <ele>95</ele>
      </trkpt>
      <trkpt lat="36.58202" lon="27.98035">
        <ele>95.1</ele>
      </trkpt>
      <trkpt lat="36.58203" lon="27.98037">
        <ele>95.6</ele>
      </trkpt>
      <trkpt lat="36.58201" lon="27.98037">
        <ele>95.8</ele>
      </trkpt>
      <trkpt lat="36.58196" lon="27.98037">
        <ele>96.9</ele>
      </trkpt>
      <trkpt lat="36.58192" lon="27.98037">
        <ele>97.4</ele>
      </trkpt>
      <trkpt lat="36.58184" lon="27.98038">
        <ele>98.8</ele>
      </trkpt>
      <trkpt lat="36.58182" lon="27.98037">
        <ele>98.8</ele>
      </trkpt>
      <trkpt lat="36.58173" lon="27.98039">
        <ele>100.8</ele>
      </trkpt>
      <trkpt lat="36.58166" lon="27.98041">
        <ele>102.4</ele>
      </trkpt>
      <trkpt lat="36.58164" lon="27.98041">
        <ele>102.8</ele>
      </trkpt>
      <trkpt lat="36.58158" lon="27.98045">
        <ele>105.3</ele>
      </trkpt>
      <trkpt lat="36.58153" lon="27.98048">
        <ele>107.1</ele>
      </trkpt>
      <trkpt lat="36.58151" lon="27.9805">
        <ele>107.8</ele>
      </trkpt>
      <trkpt lat="36.58152" lon="27.98052">
        <ele>108.3</ele>
      </trkpt>
      <trkpt lat="36.58148" lon="27.98054">
        <ele>109.8</ele>
      </trkpt>
      <trkpt lat="36.58143" lon="27.98053">
        <ele>110.4</ele>
      </trkpt>
      <trkpt lat="36.58141" lon="27.98053">
        <ele>110.7</ele>
      </trkpt>
      <trkpt lat="36.58135" lon="27.98052">
        <ele>111.5</ele>
      </trkpt>
      <trkpt lat="36.58135" lon="27.98051">
        <ele>111.2</ele>
      </trkpt>
      <trkpt lat="36.58134" lon="27.98051">
        <ele>111.4</ele>
      </trkpt>
      <trkpt lat="36.58134" lon="27.98051">
        <ele>111.6</ele>
      </trkpt>
      <trkpt lat="36.58134" lon="27.98051">
        <ele>111.6</ele>
      </trkpt>
      <trkpt lat="36.58132" lon="27.98052">
        <ele>112.1</ele>
      </trkpt>
      <trkpt lat="36.58126" lon="27.98053">
        <ele>113.5</ele>
      </trkpt>
      <trkpt lat="36.58125" lon="27.98052">
        <ele>113.6</ele>
      </trkpt>
      <trkpt lat="36.58122" lon="27.98052">
        <ele>114.3</ele>
      </trkpt>
      <trkpt lat="36.58113" lon="27.98049">
        <ele>115</ele>
      </trkpt>
      <trkpt lat="36.58113" lon="27.98049">
        <ele>115</ele>
      </trkpt>
      <trkpt lat="36.58107" lon="27.98049">
        <ele>115.8</ele>
      </trkpt>
      <trkpt lat="36.581" lon="27.98047">
        <ele>116.7</ele>
      </trkpt>
      <trkpt lat="36.58098" lon="27.98045">
        <ele>116.4</ele>
      </trkpt>
      <trkpt lat="36.58097" lon="27.98045">
        <ele>116.5</ele>
      </trkpt>
      <trkpt lat="36.58088" lon="27.98044">
        <ele>117.8</ele>
      </trkpt>
      <trkpt lat="36.58086" lon="27.98041">
        <ele>117.2</ele>
      </trkpt>
      <trkpt lat="36.58079" lon="27.98035">
        <ele>116.2</ele>
      </trkpt>
      <trkpt lat="36.58079" lon="27.98035">
        <ele>116.2</ele>
      </trkpt>
      <trkpt lat="36.58077" lon="27.98034">
        <ele>116.1</ele>
      </trkpt>
      <trkpt lat="36.58072" lon="27.98035">
        <ele>116.9</ele>
      </trkpt>
      <trkpt lat="36.58068" lon="27.98032">
        <ele>116.5</ele>
      </trkpt>
      <trkpt lat="36.58063" lon="27.9803">
        <ele>116.3</ele>
      </trkpt>
      <trkpt lat="36.58062" lon="27.98029">
        <ele>116.3</ele>
      </trkpt>
      <trkpt lat="36.58054" lon="27.98028">
        <ele>116.9</ele>
      </trkpt>
      <trkpt lat="36.58052" lon="27.98028">
        <ele>117.2</ele>
      </trkpt>
      <trkpt lat="36.58043" lon="27.98029">
        <ele>118.5</ele>
      </trkpt>
      <trkpt lat="36.58043" lon="27.98029">
        <ele>118.6</ele>
      </trkpt>
      <trkpt lat="36.58042" lon="27.9803">
        <ele>118.8</ele>
      </trkpt>
      <trkpt lat="36.58036" lon="27.9803">
        <ele>119.7</ele>
      </trkpt>
      <trkpt lat="36.58026" lon="27.98033">
        <ele>122</ele>
      </trkpt>
      <trkpt lat="36.58023" lon="27.98032">
        <ele>121.9</ele>
      </trkpt>
      <trkpt lat="36.58021" lon="27.98032">
        <ele>121.9</ele>
      </trkpt>
      <trkpt lat="36.58019" lon="27.98031">
        <ele>122</ele>
      </trkpt>
      <trkpt lat="36.58019" lon="27.98031">
        <ele>122</ele>
      </trkpt>
      <trkpt lat="36.58017" lon="27.98031">
        <ele>122.3</ele>
      </trkpt>
      <trkpt lat="36.58013" lon="27.98032">
        <ele>123.1</ele>
      </trkpt>
      <trkpt lat="36.58004" lon="27.98032">
        <ele>124.1</ele>
      </trkpt>
      <trkpt lat="36.58" lon="27.98034">
        <ele>125.2</ele>
      </trkpt>
      <trkpt lat="36.57991" lon="27.98035">
        <ele>126.9</ele>
      </trkpt>
      <trkpt lat="36.5799" lon="27.98034">
        <ele>126.7</ele>
      </trkpt>
      <trkpt lat="36.57986" lon="27.98033">
        <ele>126.9</ele>
      </trkpt>
      <trkpt lat="36.57979" lon="27.98032">
        <ele>127.6</ele>
      </trkpt>
      <trkpt lat="36.57977" lon="27.98033">
        <ele>128</ele>
      </trkpt>
      <trkpt lat="36.57971" lon="27.98035">
        <ele>129.7</ele>
      </trkpt>
      <trkpt lat="36.57969" lon="27.98034">
        <ele>129.6</ele>
      </trkpt>
      <trkpt lat="36.57961" lon="27.98035">
        <ele>131.1</ele>
      </trkpt>
      <trkpt lat="36.57961" lon="27.98035">
        <ele>131.1</ele>
      </trkpt>
      <trkpt lat="36.57961" lon="27.98034">
        <ele>130.8</ele>
      </trkpt>
      <trkpt lat="36.57957" lon="27.98036">
        <ele>131.9</ele>
      </trkpt>
      <trkpt lat="36.57951" lon="27.98038">
        <ele>133.3</ele>
      </trkpt>
      <trkpt lat="36.57944" lon="27.98039">
        <ele>134.7</ele>
      </trkpt>
      <trkpt lat="36.57934" lon="27.98045">
        <ele>137.6</ele>
      </trkpt>
      <trkpt lat="36.5793" lon="27.98048">
        <ele>139</ele>
      </trkpt>
      <trkpt lat="36.57929" lon="27.98048">
        <ele>139</ele>
      </trkpt>
      <trkpt lat="36.57926" lon="27.98048">
        <ele>139.4</ele>
      </trkpt>
      <trkpt lat="36.57922" lon="27.98051">
        <ele>140.7</ele>
      </trkpt>
      <trkpt lat="36.57919" lon="27.98052">
        <ele>141.6</ele>
      </trkpt>
      <trkpt lat="36.57914" lon="27.9805">
        <ele>141.4</ele>
      </trkpt>
      <trkpt lat="36.5791" lon="27.9805">
        <ele>141.8</ele>
      </trkpt>
      <trkpt lat="36.5791" lon="27.9805">
        <ele>141.8</ele>
      </trkpt>
      <trkpt lat="36.57907" lon="27.98051">
        <ele>142.2</ele>
      </trkpt>
      <trkpt lat="36.57899" lon="27.98051">
        <ele>142.9</ele>
      </trkpt>
      <trkpt lat="36.57896" lon="27.98052">
        <ele>143.4</ele>
      </trkpt>
      <trkpt lat="36.57896" lon="27.98052">
        <ele>143.3</ele>
      </trkpt>
      <trkpt lat="36.57892" lon="27.98051">
        <ele>143.4</ele>
      </trkpt>
      <trkpt lat="36.57884" lon="27.98053">
        <ele>144.7</ele>
      </trkpt>
      <trkpt lat="36.57881" lon="27.98053">
        <ele>144.8</ele>
      </trkpt>
      <trkpt lat="36.57877" lon="27.98054">
        <ele>145.3</ele>
      </trkpt>
      <trkpt lat="36.57875" lon="27.98053">
        <ele>145.3</ele>
      </trkpt>
      <trkpt lat="36.5787" lon="27.98056">
        <ele>146.3</ele>
      </trkpt>
      <trkpt lat="36.57867" lon="27.98058">
        <ele>147</ele>
      </trkpt>
      <trkpt lat="36.57858" lon="27.98056">
        <ele>147.2</ele>
      </trkpt>
      <trkpt lat="36.57852" lon="27.98054">
        <ele>147.3</ele>
      </trkpt>
      <trkpt lat="36.57851" lon="27.98054">
        <ele>147.3</ele>
      </trkpt>
      <trkpt lat="36.57847" lon="27.98052">
        <ele>147.3</ele>
      </trkpt>
      <trkpt lat="36.57844" lon="27.98051">
        <ele>147.4</ele>
      </trkpt>
      <trkpt lat="36.5784" lon="27.98051">
        <ele>147.6</ele>
      </trkpt>
      <trkpt lat="36.57839" lon="27.98051">
        <ele>147.6</ele>
      </trkpt>
      <trkpt lat="36.57831" lon="27.98051">
        <ele>148.4</ele>
      </trkpt>
      <trkpt lat="36.57831" lon="27.98051">
        <ele>148.4</ele>
      </trkpt>
      <trkpt lat="36.5783" lon="27.98048">
        <ele>147.9</ele>
      </trkpt>
      <trkpt lat="36.57825" lon="27.98048">
        <ele>148.5</ele>
      </trkpt>
      <trkpt lat="36.57822" lon="27.98048">
        <ele>148.7</ele>
      </trkpt>
      <trkpt lat="36.5782" lon="27.98047">
        <ele>148.8</ele>
      </trkpt>
      <trkpt lat="36.57815" lon="27.98046">
        <ele>149.3</ele>
      </trkpt>
      <trkpt lat="36.57809" lon="27.98045">
        <ele>149.8</ele>
      </trkpt>
      <trkpt lat="36.57803" lon="27.98045">
        <ele>150.3</ele>
      </trkpt>
      <trkpt lat="36.57798" lon="27.98048">
        <ele>151.1</ele>
      </trkpt>
      <trkpt lat="36.57796" lon="27.98048">
        <ele>151.4</ele>
      </trkpt>
      <trkpt lat="36.57793" lon="27.98048">
        <ele>151.7</ele>
      </trkpt>
      <trkpt lat="36.57789" lon="27.98049">
        <ele>152.3</ele>
      </trkpt>
      <trkpt lat="36.57787" lon="27.9805">
        <ele>152.6</ele>
      </trkpt>
      <trkpt lat="36.57784" lon="27.98047">
        <ele>152.5</ele>
      </trkpt>
      <trkpt lat="36.57784" lon="27.98047">
        <ele>152.6</ele>
      </trkpt>
      <trkpt lat="36.57775" lon="27.98047">
        <ele>153.5</ele>
      </trkpt>
      <trkpt lat="36.5777" lon="27.98048">
        <ele>154.1</ele>
      </trkpt>
      <trkpt lat="36.5777" lon="27.98048">
        <ele>154.2</ele>
      </trkpt>
      <trkpt lat="36.57769" lon="27.98047">
        <ele>154.2</ele>
      </trkpt>
      <trkpt lat="36.57768" lon="27.98048">
        <ele>154.3</ele>
      </trkpt>
      <trkpt lat="36.57762" lon="27.98046">
        <ele>154.6</ele>
      </trkpt>
      <trkpt lat="36.57753" lon="27.98042">
        <ele>155.2</ele>
      </trkpt>
      <trkpt lat="36.57752" lon="27.98043">
        <ele>155.4</ele>
      </trkpt>
      <trkpt lat="36.57752" lon="27.98043">
        <ele>155.4</ele>
      </trkpt>
      <trkpt lat="36.57749" lon="27.98044">
        <ele>155.7</ele>
      </trkpt>
      <trkpt lat="36.57743" lon="27.98051">
        <ele>156.3</ele>
      </trkpt>
      <trkpt lat="36.5774" lon="27.98052">
        <ele>156.4</ele>
      </trkpt>
      <trkpt lat="36.57716" lon="27.98059">
        <ele>156.2</ele>
      </trkpt>
      <trkpt lat="36.57712" lon="27.98064">
        <ele>156.4</ele>
      </trkpt>
      <trkpt lat="36.57713" lon="27.98065">
        <ele>156.4</ele>
      </trkpt>
      <trkpt lat="36.57707" lon="27.9807">
        <ele>156.4</ele>
      </trkpt>
      <trkpt lat="36.57696" lon="27.98075">
        <ele>155.9</ele>
      </trkpt>
      <trkpt lat="36.57691" lon="27.9808">
        <ele>155.7</ele>
      </trkpt>
      <trkpt lat="36.5768" lon="27.98084">
        <ele>155.1</ele>
      </trkpt>
      <trkpt lat="36.57675" lon="27.98095">
        <ele>156.4</ele>
      </trkpt>
      <trkpt lat="36.57672" lon="27.98097">
        <ele>156.6</ele>
      </trkpt>
      <trkpt lat="36.57665" lon="27.98109">
        <ele>157.6</ele>
      </trkpt>
      <trkpt lat="36.57662" lon="27.98116">
        <ele>158.4</ele>
      </trkpt>
      <trkpt lat="36.5766" lon="27.98128">
        <ele>159.8</ele>
      </trkpt>
      <trkpt lat="36.57647" lon="27.98136">
        <ele>159.2</ele>
      </trkpt>
      <trkpt lat="36.57636" lon="27.98143">
        <ele>158.5</ele>
      </trkpt>
      <trkpt lat="36.57632" lon="27.9815">
        <ele>158.9</ele>
      </trkpt>
      <trkpt lat="36.57622" lon="27.98161">
        <ele>159.1</ele>
      </trkpt>
      <trkpt lat="36.5762" lon="27.98165">
        <ele>159.5</ele>
      </trkpt>
      <trkpt lat="36.57617" lon="27.98172">
        <ele>160.4</ele>
      </trkpt>
      <trkpt lat="36.5761" lon="27.9818">
        <ele>160.8</ele>
      </trkpt>
      <trkpt lat="36.57604" lon="27.9819">
        <ele>161.7</ele>
      </trkpt>
      <trkpt lat="36.57602" lon="27.98192">
        <ele>161.9</ele>
      </trkpt>
      <trkpt lat="36.57597" lon="27.982">
        <ele>162.4</ele>
      </trkpt>
      <trkpt lat="36.5759" lon="27.98212">
        <ele>163.4</ele>
      </trkpt>
      <trkpt lat="36.57583" lon="27.98224">
        <ele>164.2</ele>
      </trkpt>
      <trkpt lat="36.57582" lon="27.98225">
        <ele>164.5</ele>
      </trkpt>
      <trkpt lat="36.57571" lon="27.98232">
        <ele>165.5</ele>
      </trkpt>
      <trkpt lat="36.57558" lon="27.98236">
        <ele>166.2</ele>
      </trkpt>
      <trkpt lat="36.57548" lon="27.98245">
        <ele>167.7</ele>
      </trkpt>
      <trkpt lat="36.57543" lon="27.98247">
        <ele>167.9</ele>
      </trkpt>
      <trkpt lat="36.57538" lon="27.98247">
        <ele>168</ele>
      </trkpt>
      <trkpt lat="36.57527" lon="27.98254">
        <ele>168.8</ele>
      </trkpt>
      <trkpt lat="36.57519" lon="27.98262">
        <ele>169.5</ele>
      </trkpt>
      <trkpt lat="36.5751" lon="27.98278">
        <ele>170.9</ele>
      </trkpt>
      <trkpt lat="36.57505" lon="27.98288">
        <ele>171.8</ele>
      </trkpt>
      <trkpt lat="36.57494" lon="27.98299">
        <ele>173.4</ele>
      </trkpt>
      <trkpt lat="36.57486" lon="27.98309">
        <ele>175.3</ele>
      </trkpt>
      <trkpt lat="36.57478" lon="27.98309">
        <ele>176.1</ele>
      </trkpt>
      <trkpt lat="36.57478" lon="27.98315">
        <ele>176.6</ele>
      </trkpt>
      <trkpt lat="36.57472" lon="27.98323">
        <ele>177.9</ele>
      </trkpt>
      <trkpt lat="36.57472" lon="27.98331">
        <ele>178.5</ele>
      </trkpt>
      <trkpt lat="36.57468" lon="27.98332">
        <ele>179</ele>
      </trkpt>
      <trkpt lat="36.57465" lon="27.98332">
        <ele>179.3</ele>
      </trkpt>
      <trkpt lat="36.57461" lon="27.98337">
        <ele>179.8</ele>
      </trkpt>
      <trkpt lat="36.57459" lon="27.98342">
        <ele>180.2</ele>
      </trkpt>
      <trkpt lat="36.57457" lon="27.98343">
        <ele>180.4</ele>
      </trkpt>
      <trkpt lat="36.57452" lon="27.98348">
        <ele>180.8</ele>
      </trkpt>
      <trkpt lat="36.5745" lon="27.98349">
        <ele>180.9</ele>
      </trkpt>
      <trkpt lat="36.57444" lon="27.98352">
        <ele>181.4</ele>
      </trkpt>
      <trkpt lat="36.57439" lon="27.98362">
        <ele>181.6</ele>
      </trkpt>
      <trkpt lat="36.57441" lon="27.98365">
        <ele>181.5</ele>
      </trkpt>
      <trkpt lat="36.57443" lon="27.98368">
        <ele>181.4</ele>
      </trkpt>
      <trkpt lat="36.57448" lon="27.98388">
        <ele>181.3</ele>
      </trkpt>
      <trkpt lat="36.5745" lon="27.984">
        <ele>181.4</ele>
      </trkpt>
      <trkpt lat="36.57453" lon="27.98404">
        <ele>181.5</ele>
      </trkpt>
      <trkpt lat="36.57454" lon="27.98412">
        <ele>181.7</ele>
      </trkpt>
      <trkpt lat="36.57465" lon="27.98421">
        <ele>182.6</ele>
      </trkpt>
      <trkpt lat="36.57468" lon="27.98429">
        <ele>183.3</ele>
      </trkpt>
      <trkpt lat="36.57468" lon="27.9843">
        <ele>183.4</ele>
      </trkpt>
      <trkpt lat="36.57474" lon="27.98438">
        <ele>184.3</ele>
      </trkpt>
      <trkpt lat="36.57482" lon="27.98441">
        <ele>184.9</ele>
      </trkpt>
      <trkpt lat="36.57493" lon="27.9844">
        <ele>185.6</ele>
      </trkpt>
      <trkpt lat="36.57502" lon="27.98445">
        <ele>186.4</ele>
      </trkpt>
      <trkpt lat="36.57515" lon="27.98447">
        <ele>187.4</ele>
      </trkpt>
      <trkpt lat="36.57517" lon="27.98451">
        <ele>187.9</ele>
      </trkpt>
      <trkpt lat="36.57526" lon="27.98455">
        <ele>188.7</ele>
      </trkpt>
      <trkpt lat="36.57529" lon="27.98461">
        <ele>189.4</ele>
      </trkpt>
      <trkpt lat="36.57532" lon="27.98468">
        <ele>190.3</ele>
      </trkpt>
      <trkpt lat="36.57532" lon="27.9847">
        <ele>190.5</ele>
      </trkpt>
      <trkpt lat="36.57536" lon="27.98471">
        <ele>190.9</ele>
      </trkpt>
      <trkpt lat="36.57541" lon="27.98479">
        <ele>192</ele>
      </trkpt>
      <trkpt lat="36.57544" lon="27.98484">
        <ele>192.6</ele>
      </trkpt>
      <trkpt lat="36.57542" lon="27.985">
        <ele>194</ele>
      </trkpt>
      <trkpt lat="36.57538" lon="27.98511">
        <ele>193.8</ele>
      </trkpt>
      <trkpt lat="36.57535" lon="27.98525">
        <ele>193.6</ele>
      </trkpt>
      <trkpt lat="36.57534" lon="27.98539">
        <ele>193.6</ele>
      </trkpt>
      <trkpt lat="36.57537" lon="27.98543">
        <ele>193.8</ele>
      </trkpt>
      <trkpt lat="36.57538" lon="27.98558">
        <ele>194</ele>
      </trkpt>
      <trkpt lat="36.57538" lon="27.98559">
        <ele>194</ele>
      </trkpt>
      <trkpt lat="36.57545" lon="27.98569">
        <ele>194.8</ele>
      </trkpt>
      <trkpt lat="36.57552" lon="27.98584">
        <ele>195.6</ele>
      </trkpt>
      <trkpt lat="36.57553" lon="27.98599">
        <ele>194.4</ele>
      </trkpt>
      <trkpt lat="36.57556" lon="27.98611">
        <ele>193.7</ele>
      </trkpt>
      <trkpt lat="36.57558" lon="27.98617">
        <ele>193.3</ele>
      </trkpt>
      <trkpt lat="36.57561" lon="27.98632">
        <ele>192.5</ele>
      </trkpt>
      <trkpt lat="36.57559" lon="27.9864">
        <ele>191.5</ele>
      </trkpt>
      <trkpt lat="36.57565" lon="27.98658">
        <ele>190.9</ele>
      </trkpt>
      <trkpt lat="36.5757" lon="27.98674">
        <ele>189.6</ele>
      </trkpt>
      <trkpt lat="36.57576" lon="27.9869">
        <ele>187.8</ele>
      </trkpt>
      <trkpt lat="36.57576" lon="27.98691">
        <ele>187.8</ele>
      </trkpt>
      <trkpt lat="36.57579" lon="27.98696">
        <ele>187.2</ele>
      </trkpt>
      <trkpt lat="36.57583" lon="27.98712">
        <ele>185.4</ele>
      </trkpt>
      <trkpt lat="36.57587" lon="27.98721">
        <ele>184.7</ele>
      </trkpt>
      <trkpt lat="36.57587" lon="27.98725">
        <ele>184</ele>
      </trkpt>
      <trkpt lat="36.57589" lon="27.98728">
        <ele>184.1</ele>
      </trkpt>
      <trkpt lat="36.57598" lon="27.98732">
        <ele>185.5</ele>
      </trkpt>
      <trkpt lat="36.57614" lon="27.98739">
        <ele>188.3</ele>
      </trkpt>
      <trkpt lat="36.57624" lon="27.98752">
        <ele>188.7</ele>
      </trkpt>
      <trkpt lat="36.57626" lon="27.98756">
        <ele>188.4</ele>
      </trkpt>
      <trkpt lat="36.57633" lon="27.98762">
        <ele>188.8</ele>
      </trkpt>
      <trkpt lat="36.57641" lon="27.98769">
        <ele>189.1</ele>
      </trkpt>
      <trkpt lat="36.57651" lon="27.98783">
        <ele>188.4</ele>
      </trkpt>
      <trkpt lat="36.57658" lon="27.98788">
        <ele>189.1</ele>
      </trkpt>
      <trkpt lat="36.57663" lon="27.98793">
        <ele>189.3</ele>
      </trkpt>
      <trkpt lat="36.57666" lon="27.98799">
        <ele>188.6</ele>
      </trkpt>
      <trkpt lat="36.57674" lon="27.98812">
        <ele>188.3</ele>
      </trkpt>
      <trkpt lat="36.57685" lon="27.98825">
        <ele>188.9</ele>
      </trkpt>
      <trkpt lat="36.57688" lon="27.98826">
        <ele>189.3</ele>
      </trkpt>
      <trkpt lat="36.57697" lon="27.98838">
        <ele>189</ele>
      </trkpt>
      <trkpt lat="36.57701" lon="27.98843">
        <ele>188.7</ele>
      </trkpt>
      <trkpt lat="36.57707" lon="27.9885">
        <ele>188.3</ele>
      </trkpt>
      <trkpt lat="36.57712" lon="27.98862">
        <ele>186.1</ele>
      </trkpt>
      <trkpt lat="36.57719" lon="27.98874">
        <ele>184.1</ele>
      </trkpt>
      <trkpt lat="36.57726" lon="27.98881">
        <ele>184.1</ele>
      </trkpt>
      <trkpt lat="36.57731" lon="27.98888">
        <ele>183.2</ele>
      </trkpt>
      <trkpt lat="36.57735" lon="27.98897">
        <ele>181.2</ele>
      </trkpt>
      <trkpt lat="36.57737" lon="27.98909">
        <ele>178.1</ele>
      </trkpt>
      <trkpt lat="36.57739" lon="27.98915">
        <ele>176.6</ele>
      </trkpt>
      <trkpt lat="36.57739" lon="27.98916">
        <ele>176.3</ele>
      </trkpt>
      <trkpt lat="36.57738" lon="27.98921">
        <ele>175.1</ele>
      </trkpt>
      <trkpt lat="36.57742" lon="27.98927">
        <ele>175.1</ele>
      </trkpt>
      <trkpt lat="36.57748" lon="27.98941">
        <ele>174.6</ele>
      </trkpt>
      <trkpt lat="36.57751" lon="27.98948">
        <ele>174.2</ele>
      </trkpt>
      <trkpt lat="36.57756" lon="27.98961">
        <ele>173.7</ele>
      </trkpt>
      <trkpt lat="36.57761" lon="27.98973">
        <ele>173</ele>
      </trkpt>
      <trkpt lat="36.57762" lon="27.98974">
        <ele>173</ele>
      </trkpt>
      <trkpt lat="36.57763" lon="27.98981">
        <ele>172.1</ele>
      </trkpt>
      <trkpt lat="36.5776" lon="27.98985">
        <ele>170.6</ele>
      </trkpt>
      <trkpt lat="36.57746" lon="27.98988">
        <ele>166.9</ele>
      </trkpt>
      <trkpt lat="36.57741" lon="27.98993">
        <ele>165.2</ele>
      </trkpt>
      <trkpt lat="36.57731" lon="27.99001">
        <ele>162.4</ele>
      </trkpt>
      <trkpt lat="36.5772" lon="27.99007">
        <ele>161.4</ele>
      </trkpt>
      <trkpt lat="36.57708" lon="27.99013">
        <ele>160.3</ele>
      </trkpt>
      <trkpt lat="36.57697" lon="27.9902">
        <ele>159.7</ele>
      </trkpt>
      <trkpt lat="36.57688" lon="27.99032">
        <ele>160.7</ele>
      </trkpt>
      <trkpt lat="36.57679" lon="27.9904">
        <ele>160.6</ele>
      </trkpt>
      <trkpt lat="36.5768" lon="27.99036">
        <ele>159.9</ele>
      </trkpt>
      <trkpt lat="36.57671" lon="27.99048">
        <ele>160.8</ele>
      </trkpt>
      <trkpt lat="36.57666" lon="27.99057">
        <ele>161.7</ele>
      </trkpt>
      <trkpt lat="36.57662" lon="27.99071">
        <ele>163.7</ele>
      </trkpt>
      <trkpt lat="36.57662" lon="27.99071">
        <ele>163.7</ele>
      </trkpt>
      <trkpt lat="36.57659" lon="27.9908">
        <ele>164.6</ele>
      </trkpt>
      <trkpt lat="36.57659" lon="27.99084">
        <ele>165.2</ele>
      </trkpt>
      <trkpt lat="36.57657" lon="27.99096">
        <ele>166.3</ele>
      </trkpt>
      <trkpt lat="36.57658" lon="27.99104">
        <ele>167.4</ele>
      </trkpt>
      <trkpt lat="36.57656" lon="27.99119">
        <ele>168.5</ele>
      </trkpt>
      <trkpt lat="36.57655" lon="27.99123">
        <ele>168.9</ele>
      </trkpt>
      <trkpt lat="36.57657" lon="27.99136">
        <ele>171.1</ele>
      </trkpt>
      <trkpt lat="36.57658" lon="27.99151">
        <ele>173.2</ele>
      </trkpt>
      <trkpt lat="36.5766" lon="27.99157">
        <ele>174.3</ele>
      </trkpt>
      <trkpt lat="36.5766" lon="27.99159">
        <ele>174.4</ele>
      </trkpt>
      <trkpt lat="36.57661" lon="27.99164">
        <ele>175.5</ele>
      </trkpt>
      <trkpt lat="36.57661" lon="27.99176">
        <ele>176.6</ele>
      </trkpt>
      <trkpt lat="36.57663" lon="27.99188">
        <ele>178</ele>
      </trkpt>
      <trkpt lat="36.57664" lon="27.9919">
        <ele>178.2</ele>
      </trkpt>
      <trkpt lat="36.57668" lon="27.99196">
        <ele>179.2</ele>
      </trkpt>
      <trkpt lat="36.5767" lon="27.99201">
        <ele>179.7</ele>
      </trkpt>
      <trkpt lat="36.57673" lon="27.99206">
        <ele>180.2</ele>
      </trkpt>
      <trkpt lat="36.57676" lon="27.99214">
        <ele>180.7</ele>
      </trkpt>
      <trkpt lat="36.57676" lon="27.99217">
        <ele>180.8</ele>
      </trkpt>
      <trkpt lat="36.57676" lon="27.99219">
        <ele>180.9</ele>
      </trkpt>
      <trkpt lat="36.57676" lon="27.9922">
        <ele>181</ele>
      </trkpt>
      <trkpt lat="36.57676" lon="27.99221">
        <ele>181</ele>
      </trkpt>
      <trkpt lat="36.57681" lon="27.99233">
        <ele>181.4</ele>
      </trkpt>
      <trkpt lat="36.57698" lon="27.9923">
        <ele>181.1</ele>
      </trkpt>
      <trkpt lat="36.57697" lon="27.99229">
        <ele>181.1</ele>
      </trkpt>
      <trkpt lat="36.57695" lon="27.99228">
        <ele>181.2</ele>
      </trkpt>
      <trkpt lat="36.57697" lon="27.99229">
        <ele>181.1</ele>
      </trkpt>
      <trkpt lat="36.57698" lon="27.9923">
        <ele>181.1</ele>
      </trkpt>
      <trkpt lat="36.57698" lon="27.9923">
        <ele>181.1</ele>
      </trkpt>
      <trkpt lat="36.57703" lon="27.99234">
        <ele>180.9</ele>
      </trkpt>
      <trkpt lat="36.5771" lon="27.99234">
        <ele>180.7</ele>
      </trkpt>
      <trkpt lat="36.57716" lon="27.99234">
        <ele>180.6</ele>
      </trkpt>
      <trkpt lat="36.57718" lon="27.99234">
        <ele>180.5</ele>
      </trkpt>
      <trkpt lat="36.5772" lon="27.99233">
        <ele>180.6</ele>
      </trkpt>
      <trkpt lat="36.57723" lon="27.99234">
        <ele>180.4</ele>
      </trkpt>
      <trkpt lat="36.57727" lon="27.99233">
        <ele>180.4</ele>
      </trkpt>
      <trkpt lat="36.57729" lon="27.99234">
        <ele>180.3</ele>
      </trkpt>
      <trkpt lat="36.57731" lon="27.99234">
        <ele>180.2</ele>
      </trkpt>
      <trkpt lat="36.57734" lon="27.99233">
        <ele>180.3</ele>
      </trkpt>
      <trkpt lat="36.57737" lon="27.99233">
        <ele>180.1</ele>
      </trkpt>
      <trkpt lat="36.57745" lon="27.99236">
        <ele>179.6</ele>
      </trkpt>
      <trkpt lat="36.5775" lon="27.99236">
        <ele>179.5</ele>
      </trkpt>
      <trkpt lat="36.57751" lon="27.99236">
        <ele>179.6</ele>
      </trkpt>
      <trkpt lat="36.57755" lon="27.99237">
        <ele>180.6</ele>
      </trkpt>
      <trkpt lat="36.57756" lon="27.99238">
        <ele>180.8</ele>
      </trkpt>
      <trkpt lat="36.57762" lon="27.99237">
        <ele>182.7</ele>
      </trkpt>
      <trkpt lat="36.57768" lon="27.99238">
        <ele>184.1</ele>
      </trkpt>
      <trkpt lat="36.57769" lon="27.99239">
        <ele>184.4</ele>
      </trkpt>
      <trkpt lat="36.57769" lon="27.99239">
        <ele>184.5</ele>
      </trkpt>
      <trkpt lat="36.57777" lon="27.99248">
        <ele>185.5</ele>
      </trkpt>
      <trkpt lat="36.57779" lon="27.99252">
        <ele>185.7</ele>
      </trkpt>
      <trkpt lat="36.57784" lon="27.99262">
        <ele>186.1</ele>
      </trkpt>
      <trkpt lat="36.57787" lon="27.99273">
        <ele>185.9</ele>
      </trkpt>
      <trkpt lat="36.57787" lon="27.99275">
        <ele>185.7</ele>
      </trkpt>
      <trkpt lat="36.57789" lon="27.99283">
        <ele>185.4</ele>
      </trkpt>
      <trkpt lat="36.57789" lon="27.99286">
        <ele>185.2</ele>
      </trkpt>
      <trkpt lat="36.5779" lon="27.99294">
        <ele>184.5</ele>
      </trkpt>
      <trkpt lat="36.5779" lon="27.99301">
        <ele>183.8</ele>
      </trkpt>
      <trkpt lat="36.5779" lon="27.99307">
        <ele>183.4</ele>
      </trkpt>
      <trkpt lat="36.57789" lon="27.9931">
        <ele>182.7</ele>
      </trkpt>
      <trkpt lat="36.57788" lon="27.99303">
        <ele>183.1</ele>
      </trkpt>
      <trkpt lat="36.57788" lon="27.99303">
        <ele>183.2</ele>
      </trkpt>
      <trkpt lat="36.57789" lon="27.99302">
        <ele>183.4</ele>
      </trkpt>
      <trkpt lat="36.57791" lon="27.99308">
        <ele>183.4</ele>
      </trkpt>
      <trkpt lat="36.57791" lon="27.99312">
        <ele>182.9</ele>
      </trkpt>
      <trkpt lat="36.57791" lon="27.99315">
        <ele>182.8</ele>
      </trkpt>
      <trkpt lat="36.57791" lon="27.99317">
        <ele>182.4</ele>
      </trkpt>
      <trkpt lat="36.57792" lon="27.99324">
        <ele>182.2</ele>
      </trkpt>
      <trkpt lat="36.57792" lon="27.99325">
        <ele>182</ele>
      </trkpt>
      <trkpt lat="36.57792" lon="27.99325">
        <ele>181.9</ele>
      </trkpt>
      <trkpt lat="36.57792" lon="27.99326">
        <ele>181.7</ele>
      </trkpt>
      <trkpt lat="36.57791" lon="27.99326">
        <ele>181.6</ele>
      </trkpt>
      <trkpt lat="36.57791" lon="27.99326">
        <ele>181.6</ele>
      </trkpt>
      <trkpt lat="36.5779" lon="27.99334">
        <ele>180.4</ele>
      </trkpt>
      <trkpt lat="36.5779" lon="27.99335">
        <ele>180.2</ele>
      </trkpt>
      <trkpt lat="36.5779" lon="27.99343">
        <ele>179</ele>
      </trkpt>
      <trkpt lat="36.57789" lon="27.99347">
        <ele>178.3</ele>
      </trkpt>
      <trkpt lat="36.5779" lon="27.99347">
        <ele>178.4</ele>
      </trkpt>
      <trkpt lat="36.5779" lon="27.99347">
        <ele>178.5</ele>
      </trkpt>
      <trkpt lat="36.5779" lon="27.9935">
        <ele>178.2</ele>
      </trkpt>
      <trkpt lat="36.57791" lon="27.99352">
        <ele>178.3</ele>
      </trkpt>
      <trkpt lat="36.57792" lon="27.99362">
        <ele>177.5</ele>
      </trkpt>
      <trkpt lat="36.57793" lon="27.99364">
        <ele>177.5</ele>
      </trkpt>
      <trkpt lat="36.57795" lon="27.99369">
        <ele>177.3</ele>
      </trkpt>
      <trkpt lat="36.57796" lon="27.99372">
        <ele>177.3</ele>
      </trkpt>
      <trkpt lat="36.57798" lon="27.99383">
        <ele>176.6</ele>
      </trkpt>
      <trkpt lat="36.57798" lon="27.99385">
        <ele>176.4</ele>
      </trkpt>
      <trkpt lat="36.57798" lon="27.99385">
        <ele>176.4</ele>
      </trkpt>
      <trkpt lat="36.57799" lon="27.99388">
        <ele>176.2</ele>
      </trkpt>
      <trkpt lat="36.57801" lon="27.9939">
        <ele>176.4</ele>
      </trkpt>
      <trkpt lat="36.57801" lon="27.99394">
        <ele>176.1</ele>
      </trkpt>
      <trkpt lat="36.57801" lon="27.99398">
        <ele>175.6</ele>
      </trkpt>
      <trkpt lat="36.57801" lon="27.99399">
        <ele>175.4</ele>
      </trkpt>
      <trkpt lat="36.57803" lon="27.99407">
        <ele>175</ele>
      </trkpt>
      <trkpt lat="36.57806" lon="27.99413">
        <ele>174.9</ele>
      </trkpt>
      <trkpt lat="36.57808" lon="27.99423">
        <ele>173.7</ele>
      </trkpt>
      <trkpt lat="36.57808" lon="27.99423">
        <ele>173.7</ele>
      </trkpt>
      <trkpt lat="36.57808" lon="27.99426">
        <ele>173.2</ele>
      </trkpt>
      <trkpt lat="36.5781" lon="27.99434">
        <ele>171.7</ele>
      </trkpt>
      <trkpt lat="36.57809" lon="27.99434">
        <ele>171.4</ele>
      </trkpt>
      <trkpt lat="36.57811" lon="27.99439">
        <ele>170.7</ele>
      </trkpt>
      <trkpt lat="36.57813" lon="27.99444">
        <ele>170.3</ele>
      </trkpt>
      <trkpt lat="36.57815" lon="27.99447">
        <ele>170.2</ele>
      </trkpt>
      <trkpt lat="36.57818" lon="27.99453">
        <ele>169.6</ele>
      </trkpt>
      <trkpt lat="36.5782" lon="27.99455">
        <ele>169.7</ele>
      </trkpt>
      <trkpt lat="36.57822" lon="27.99457">
        <ele>169.7</ele>
      </trkpt>
      <trkpt lat="36.57823" lon="27.99458">
        <ele>169.6</ele>
      </trkpt>
      <trkpt lat="36.57826" lon="27.99461">
        <ele>169.9</ele>
      </trkpt>
      <trkpt lat="36.57827" lon="27.99462">
        <ele>169.9</ele>
      </trkpt>
      <trkpt lat="36.57828" lon="27.99463">
        <ele>169.9</ele>
      </trkpt>
      <trkpt lat="36.57831" lon="27.9947">
        <ele>168.9</ele>
      </trkpt>
      <trkpt lat="36.57833" lon="27.99473">
        <ele>168.7</ele>
      </trkpt>
      <trkpt lat="36.57834" lon="27.99474">
        <ele>168.6</ele>
      </trkpt>
      <trkpt lat="36.57836" lon="27.99476">
        <ele>168.4</ele>
      </trkpt>
      <trkpt lat="36.57841" lon="27.99483">
        <ele>167.4</ele>
      </trkpt>
      <trkpt lat="36.57843" lon="27.99489">
        <ele>166.1</ele>
      </trkpt>
      <trkpt lat="36.57844" lon="27.99489">
        <ele>166</ele>
      </trkpt>
      <trkpt lat="36.57844" lon="27.99489">
        <ele>166.1</ele>
      </trkpt>
      <trkpt lat="36.57844" lon="27.99489">
        <ele>166.1</ele>
      </trkpt>
      <trkpt lat="36.57844" lon="27.99491">
        <ele>165.8</ele>
      </trkpt>
      <trkpt lat="36.57847" lon="27.99492">
        <ele>165.8</ele>
      </trkpt>
      <trkpt lat="36.57849" lon="27.99494">
        <ele>165.4</ele>
      </trkpt>
      <trkpt lat="36.57855" lon="27.99498">
        <ele>165</ele>
      </trkpt>
      <trkpt lat="36.57855" lon="27.99499">
        <ele>164.9</ele>
      </trkpt>
      <trkpt lat="36.57856" lon="27.99502">
        <ele>164.3</ele>
      </trkpt>
      <trkpt lat="36.5786" lon="27.99507">
        <ele>163.3</ele>
      </trkpt>
      <trkpt lat="36.57864" lon="27.99514">
        <ele>161.9</ele>
      </trkpt>
      <trkpt lat="36.57864" lon="27.99515">
        <ele>161.4</ele>
      </trkpt>
      <trkpt lat="36.57864" lon="27.99515">
        <ele>161.5</ele>
      </trkpt>
      <trkpt lat="36.57864" lon="27.99515">
        <ele>161.5</ele>
      </trkpt>
      <trkpt lat="36.57867" lon="27.99518">
        <ele>160.9</ele>
      </trkpt>
      <trkpt lat="36.57871" lon="27.99523">
        <ele>160.1</ele>
      </trkpt>
      <trkpt lat="36.57876" lon="27.99525">
        <ele>160.2</ele>
      </trkpt>
      <trkpt lat="36.57877" lon="27.99527">
        <ele>159.7</ele>
      </trkpt>
      <trkpt lat="36.57879" lon="27.99528">
        <ele>159.7</ele>
      </trkpt>
      <trkpt lat="36.57886" lon="27.99528">
        <ele>160.3</ele>
      </trkpt>
      <trkpt lat="36.57886" lon="27.99528">
        <ele>160.3</ele>
      </trkpt>
      <trkpt lat="36.57894" lon="27.9953">
        <ele>160.5</ele>
      </trkpt>
      <trkpt lat="36.57894" lon="27.99531">
        <ele>160.4</ele>
      </trkpt>
      <trkpt lat="36.57897" lon="27.99532">
        <ele>160.2</ele>
      </trkpt>
      <trkpt lat="36.57901" lon="27.99532">
        <ele>160.6</ele>
      </trkpt>
      <trkpt lat="36.57904" lon="27.99533">
        <ele>160.9</ele>
      </trkpt>
      <trkpt lat="36.57905" lon="27.99533">
        <ele>160.8</ele>
      </trkpt>
      <trkpt lat="36.57904" lon="27.99534">
        <ele>160.6</ele>
      </trkpt>
      <trkpt lat="36.57905" lon="27.99534">
        <ele>160.7</ele>
      </trkpt>
      <trkpt lat="36.57905" lon="27.99534">
        <ele>160.7</ele>
      </trkpt>
      <trkpt lat="36.57906" lon="27.99533">
        <ele>160.9</ele>
      </trkpt>
      <trkpt lat="36.57912" lon="27.99534">
        <ele>161.3</ele>
      </trkpt>
      <trkpt lat="36.57913" lon="27.99535">
        <ele>161.2</ele>
      </trkpt>
      <trkpt lat="36.57918" lon="27.99536">
        <ele>161.2</ele>
      </trkpt>
      <trkpt lat="36.57921" lon="27.99536">
        <ele>161.2</ele>
      </trkpt>
      <trkpt lat="36.57923" lon="27.99536">
        <ele>161.1</ele>
      </trkpt>
      <trkpt lat="36.57924" lon="27.99535">
        <ele>161.2</ele>
      </trkpt>
      <trkpt lat="36.57926" lon="27.99537">
        <ele>160.8</ele>
      </trkpt>
      <trkpt lat="36.57929" lon="27.99537">
        <ele>160.7</ele>
      </trkpt>
      <trkpt lat="36.57932" lon="27.99537">
        <ele>160.5</ele>
      </trkpt>
      <trkpt lat="36.57937" lon="27.99539">
        <ele>159.9</ele>
      </trkpt>
      <trkpt lat="36.5794" lon="27.99539">
        <ele>159.8</ele>
      </trkpt>
      <trkpt lat="36.57942" lon="27.9954">
        <ele>159.5</ele>
      </trkpt>
      <trkpt lat="36.57945" lon="27.99539">
        <ele>159.7</ele>
      </trkpt>
      <trkpt lat="36.57951" lon="27.9954">
        <ele>159.2</ele>
      </trkpt>
      <trkpt lat="36.57959" lon="27.99541">
        <ele>158.6</ele>
      </trkpt>
      <trkpt lat="36.57965" lon="27.99543">
        <ele>158</ele>
      </trkpt>
      <trkpt lat="36.5797" lon="27.99543">
        <ele>157.8</ele>
      </trkpt>
      <trkpt lat="36.57971" lon="27.99543">
        <ele>157.7</ele>
      </trkpt>
      <trkpt lat="36.57976" lon="27.99544">
        <ele>157.2</ele>
      </trkpt>
      <trkpt lat="36.57978" lon="27.99547">
        <ele>156.5</ele>
      </trkpt>
      <trkpt lat="36.57983" lon="27.99548">
        <ele>155.9</ele>
      </trkpt>
      <trkpt lat="36.57989" lon="27.99552">
        <ele>154.5</ele>
      </trkpt>
      <trkpt lat="36.57992" lon="27.99554">
        <ele>153.6</ele>
      </trkpt>
      <trkpt lat="36.57992" lon="27.99554">
        <ele>153.6</ele>
      </trkpt>
      <trkpt lat="36.57993" lon="27.99554">
        <ele>153.7</ele>
      </trkpt>
      <trkpt lat="36.57993" lon="27.99554">
        <ele>153.7</ele>
      </trkpt>
      <trkpt lat="36.57995" lon="27.99556">
        <ele>153.1</ele>
      </trkpt>
      <trkpt lat="36.57997" lon="27.99555">
        <ele>153.3</ele>
      </trkpt>
      <trkpt lat="36.58002" lon="27.99555">
        <ele>153.2</ele>
      </trkpt>
      <trkpt lat="36.58004" lon="27.99556">
        <ele>152.9</ele>
      </trkpt>
      <trkpt lat="36.58006" lon="27.99555">
        <ele>153</ele>
      </trkpt>
      <trkpt lat="36.58008" lon="27.99556">
        <ele>152.7</ele>
      </trkpt>
      <trkpt lat="36.58011" lon="27.99556">
        <ele>152.8</ele>
      </trkpt>
      <trkpt lat="36.58016" lon="27.99555">
        <ele>152.9</ele>
      </trkpt>
      <trkpt lat="36.58021" lon="27.99555">
        <ele>153</ele>
      </trkpt>
      <trkpt lat="36.58026" lon="27.99553">
        <ele>153.6</ele>
      </trkpt>
      <trkpt lat="36.58028" lon="27.99551">
        <ele>154</ele>
      </trkpt>
      <trkpt lat="36.58033" lon="27.99553">
        <ele>153.4</ele>
      </trkpt>
      <trkpt lat="36.58033" lon="27.99553">
        <ele>153.5</ele>
      </trkpt>
      <trkpt lat="36.58034" lon="27.99553">
        <ele>153.5</ele>
      </trkpt>
      <trkpt lat="36.58038" lon="27.99554">
        <ele>153.2</ele>
      </trkpt>
      <trkpt lat="36.58043" lon="27.99552">
        <ele>153.5</ele>
      </trkpt>
      <trkpt lat="36.58044" lon="27.99551">
        <ele>153.7</ele>
      </trkpt>
      <trkpt lat="36.58047" lon="27.99551">
        <ele>153.7</ele>
      </trkpt>
      <trkpt lat="36.58052" lon="27.9955">
        <ele>154</ele>
      </trkpt>
      <trkpt lat="36.58057" lon="27.9955">
        <ele>154</ele>
      </trkpt>
      <trkpt lat="36.58059" lon="27.9955">
        <ele>153.9</ele>
      </trkpt>
      <trkpt lat="36.58064" lon="27.9955">
        <ele>154</ele>
      </trkpt>
      <trkpt lat="36.58068" lon="27.99549">
        <ele>154</ele>
      </trkpt>
      <trkpt lat="36.5807" lon="27.9955">
        <ele>153.9</ele>
      </trkpt>
      <trkpt lat="36.58077" lon="27.99547">
        <ele>154.6</ele>
      </trkpt>
      <trkpt lat="36.5808" lon="27.99546">
        <ele>154.8</ele>
      </trkpt>
      <trkpt lat="36.58082" lon="27.99544">
        <ele>155.4</ele>
      </trkpt>
      <trkpt lat="36.58082" lon="27.99543">
        <ele>155.7</ele>
      </trkpt>
      <trkpt lat="36.58089" lon="27.99542">
        <ele>156.3</ele>
      </trkpt>
      <trkpt lat="36.58094" lon="27.99543">
        <ele>156.1</ele>
      </trkpt>
      <trkpt lat="36.58097" lon="27.99543">
        <ele>156.2</ele>
      </trkpt>
      <trkpt lat="36.58102" lon="27.99542">
        <ele>156.7</ele>
      </trkpt>
      <trkpt lat="36.58106" lon="27.99545">
        <ele>156.3</ele>
      </trkpt>
      <trkpt lat="36.58106" lon="27.99544">
        <ele>156.6</ele>
      </trkpt>
      <trkpt lat="36.58107" lon="27.99546">
        <ele>156.1</ele>
      </trkpt>
      <trkpt lat="36.58111" lon="27.99547">
        <ele>156.1</ele>
      </trkpt>
      <trkpt lat="36.58115" lon="27.9955">
        <ele>155.9</ele>
      </trkpt>
      <trkpt lat="36.58118" lon="27.99551">
        <ele>155.8</ele>
      </trkpt>
      <trkpt lat="36.58121" lon="27.99552">
        <ele>155.8</ele>
      </trkpt>
      <trkpt lat="36.58121" lon="27.99551">
        <ele>155.9</ele>
      </trkpt>
      <trkpt lat="36.58116" lon="27.9955">
        <ele>155.9</ele>
      </trkpt>
      <trkpt lat="36.58112" lon="27.99549">
        <ele>155.9</ele>
      </trkpt>
      <trkpt lat="36.58113" lon="27.99549">
        <ele>155.9</ele>
      </trkpt>
      <trkpt lat="36.58115" lon="27.9955">
        <ele>155.9</ele>
      </trkpt>
      <trkpt lat="36.58117" lon="27.9955">
        <ele>155.9</ele>
      </trkpt>
      <trkpt lat="36.58119" lon="27.9955">
        <ele>156.1</ele>
      </trkpt>
      <trkpt lat="36.58121" lon="27.99547">
        <ele>156.8</ele>
      </trkpt>
      <trkpt lat="36.58123" lon="27.99547">
        <ele>156.9</ele>
      </trkpt>
      <trkpt lat="36.58126" lon="27.99546">
        <ele>157.3</ele>
      </trkpt>
      <trkpt lat="36.58129" lon="27.99542">
        <ele>158.2</ele>
      </trkpt>
      <trkpt lat="36.58132" lon="27.99541">
        <ele>158.4</ele>
      </trkpt>
      <trkpt lat="36.58136" lon="27.99539">
        <ele>158.9</ele>
      </trkpt>
      <trkpt lat="36.58138" lon="27.99538">
        <ele>159.1</ele>
      </trkpt>
      <trkpt lat="36.58141" lon="27.99537">
        <ele>159.4</ele>
      </trkpt>
      <trkpt lat="36.58144" lon="27.99533">
        <ele>160</ele>
      </trkpt>
      <trkpt lat="36.58149" lon="27.99531">
        <ele>160.4</ele>
      </trkpt>
      <trkpt lat="36.58153" lon="27.99532">
        <ele>160.4</ele>
      </trkpt>
      <trkpt lat="36.58158" lon="27.99538">
        <ele>159.9</ele>
      </trkpt>
      <trkpt lat="36.58158" lon="27.99538">
        <ele>159.9</ele>
      </trkpt>
      <trkpt lat="36.5816" lon="27.99536">
        <ele>160.2</ele>
      </trkpt>
      <trkpt lat="36.5816" lon="27.99535">
        <ele>160.3</ele>
      </trkpt>
      <trkpt lat="36.5816" lon="27.99537">
        <ele>160.1</ele>
      </trkpt>
      <trkpt lat="36.58161" lon="27.99539">
        <ele>159.9</ele>
      </trkpt>
      <trkpt lat="36.5816" lon="27.99541">
        <ele>159.7</ele>
      </trkpt>
      <trkpt lat="36.5816" lon="27.99545">
        <ele>159.4</ele>
      </trkpt>
      <trkpt lat="36.5816" lon="27.99551">
        <ele>158.8</ele>
      </trkpt>
      <trkpt lat="36.58158" lon="27.99553">
        <ele>158.5</ele>
      </trkpt>
      <trkpt lat="36.58158" lon="27.99561">
        <ele>157.7</ele>
      </trkpt>
      <trkpt lat="36.58158" lon="27.99565">
        <ele>157.4</ele>
      </trkpt>
      <trkpt lat="36.58157" lon="27.99572">
        <ele>156.7</ele>
      </trkpt>
      <trkpt lat="36.58157" lon="27.99574">
        <ele>156.3</ele>
      </trkpt>
      <trkpt lat="36.58155" lon="27.99588">
        <ele>155.1</ele>
      </trkpt>
      <trkpt lat="36.58155" lon="27.99592">
        <ele>154.9</ele>
      </trkpt>
      <trkpt lat="36.58154" lon="27.99597">
        <ele>154.6</ele>
      </trkpt>
      <trkpt lat="36.58154" lon="27.99598">
        <ele>154.5</ele>
      </trkpt>
      <trkpt lat="36.58154" lon="27.99598">
        <ele>154.5</ele>
      </trkpt>
      <trkpt lat="36.58154" lon="27.996">
        <ele>154.4</ele>
      </trkpt>
      <trkpt lat="36.58155" lon="27.99611">
        <ele>154.2</ele>
      </trkpt>
      <trkpt lat="36.58155" lon="27.99613">
        <ele>154.2</ele>
      </trkpt>
      <trkpt lat="36.58153" lon="27.99621">
        <ele>153.5</ele>
      </trkpt>
      <trkpt lat="36.58152" lon="27.99625">
        <ele>153.1</ele>
      </trkpt>
      <trkpt lat="36.58153" lon="27.99633">
        <ele>153</ele>
      </trkpt>
      <trkpt lat="36.58153" lon="27.9964">
        <ele>152.9</ele>
      </trkpt>
      <trkpt lat="36.58154" lon="27.99641">
        <ele>152.9</ele>
      </trkpt>
      <trkpt lat="36.58155" lon="27.99644">
        <ele>153</ele>
      </trkpt>
      <trkpt lat="36.58155" lon="27.99645">
        <ele>153</ele>
      </trkpt>
      <trkpt lat="36.58155" lon="27.99645">
        <ele>153</ele>
      </trkpt>
      <trkpt lat="36.58153" lon="27.99646">
        <ele>152.6</ele>
      </trkpt>
      <trkpt lat="36.58156" lon="27.99655">
        <ele>152.9</ele>
      </trkpt>
      <trkpt lat="36.58158" lon="27.99661">
        <ele>153.2</ele>
      </trkpt>
      <trkpt lat="36.58162" lon="27.99669">
        <ele>153.7</ele>
      </trkpt>
      <trkpt lat="36.58163" lon="27.99673">
        <ele>153.7</ele>
      </trkpt>
      <trkpt lat="36.58163" lon="27.99674">
        <ele>153.6</ele>
      </trkpt>
      <trkpt lat="36.58166" lon="27.99679">
        <ele>153.9</ele>
      </trkpt>
      <trkpt lat="36.58166" lon="27.9968">
        <ele>153.9</ele>
      </trkpt>
      <trkpt lat="36.5817" lon="27.99684">
        <ele>154.4</ele>
      </trkpt>
      <trkpt lat="36.58171" lon="27.99692">
        <ele>154.1</ele>
      </trkpt>
      <trkpt lat="36.58172" lon="27.99695">
        <ele>154</ele>
      </trkpt>
      <trkpt lat="36.58173" lon="27.99698">
        <ele>153.9</ele>
      </trkpt>
      <trkpt lat="36.58176" lon="27.99705">
        <ele>153.8</ele>
      </trkpt>
      <trkpt lat="36.58175" lon="27.99705">
        <ele>153.7</ele>
      </trkpt>
      <trkpt lat="36.58175" lon="27.99704">
        <ele>153.7</ele>
      </trkpt>
      <trkpt lat="36.58175" lon="27.99704">
        <ele>153.7</ele>
      </trkpt>
      <trkpt lat="36.58178" lon="27.9971">
        <ele>153.8</ele>
      </trkpt>
      <trkpt lat="36.58183" lon="27.99716">
        <ele>153.9</ele>
      </trkpt>
      <trkpt lat="36.58185" lon="27.9972">
        <ele>153.9</ele>
      </trkpt>
      <trkpt lat="36.58186" lon="27.9972">
        <ele>154</ele>
      </trkpt>
      <trkpt lat="36.58189" lon="27.99723">
        <ele>154.1</ele>
      </trkpt>
      <trkpt lat="36.58188" lon="27.99722">
        <ele>154</ele>
      </trkpt>
      <trkpt lat="36.58189" lon="27.99724">
        <ele>153.9</ele>
      </trkpt>
      <trkpt lat="36.58191" lon="27.99725">
        <ele>154.1</ele>
      </trkpt>
      <trkpt lat="36.58195" lon="27.99726">
        <ele>154.5</ele>
      </trkpt>
      <trkpt lat="36.58195" lon="27.99726">
        <ele>154.5</ele>
      </trkpt>
      <trkpt lat="36.58198" lon="27.9973">
        <ele>154.3</ele>
      </trkpt>
      <trkpt lat="36.58203" lon="27.99736">
        <ele>154.1</ele>
      </trkpt>
      <trkpt lat="36.58204" lon="27.99737">
        <ele>154.1</ele>
      </trkpt>
      <trkpt lat="36.58204" lon="27.99736">
        <ele>154.2</ele>
      </trkpt>
      <trkpt lat="36.58205" lon="27.99736">
        <ele>154.2</ele>
      </trkpt>
      <trkpt lat="36.58211" lon="27.99741">
        <ele>154.2</ele>
      </trkpt>
      <trkpt lat="36.58213" lon="27.99742">
        <ele>154.3</ele>
      </trkpt>
      <trkpt lat="36.58213" lon="27.99741">
        <ele>154.3</ele>
      </trkpt>
      <trkpt lat="36.58212" lon="27.99742">
        <ele>154.1</ele>
      </trkpt>
      <trkpt lat="36.58215" lon="27.99742">
        <ele>154.4</ele>
      </trkpt>
      <trkpt lat="36.58217" lon="27.99744">
        <ele>154.3</ele>
      </trkpt>
      <trkpt lat="36.5822" lon="27.99744">
        <ele>154.5</ele>
      </trkpt>
      <trkpt lat="36.58222" lon="27.99745">
        <ele>154.5</ele>
      </trkpt>
      <trkpt lat="36.58225" lon="27.99745">
        <ele>154.8</ele>
      </trkpt>
      <trkpt lat="36.58224" lon="27.99745">
        <ele>154.8</ele>
      </trkpt>
      <trkpt lat="36.58223" lon="27.99747">
        <ele>154.4</ele>
      </trkpt>
      <trkpt lat="36.58223" lon="27.99747">
        <ele>154.4</ele>
      </trkpt>
      <trkpt lat="36.58223" lon="27.99746">
        <ele>154.5</ele>
      </trkpt>
      <trkpt lat="36.58227" lon="27.99745">
        <ele>155</ele>
      </trkpt>
      <trkpt lat="36.58232" lon="27.99745">
        <ele>155.6</ele>
      </trkpt>
      <trkpt lat="36.58234" lon="27.99745">
        <ele>155.7</ele>
      </trkpt>
      <trkpt lat="36.58234" lon="27.99744">
        <ele>156</ele>
      </trkpt>
      <trkpt lat="36.58239" lon="27.99746">
        <ele>156</ele>
      </trkpt>
      <trkpt lat="36.58244" lon="27.99746">
        <ele>156.4</ele>
      </trkpt>
      <trkpt lat="36.58245" lon="27.99747">
        <ele>156.2</ele>
      </trkpt>
      <trkpt lat="36.58249" lon="27.9975">
        <ele>156</ele>
      </trkpt>
      <trkpt lat="36.58253" lon="27.99751">
        <ele>156.2</ele>
      </trkpt>
      <trkpt lat="36.58256" lon="27.99756">
        <ele>155.5</ele>
      </trkpt>
      <trkpt lat="36.58258" lon="27.99758">
        <ele>155.3</ele>
      </trkpt>
      <trkpt lat="36.5826" lon="27.99762">
        <ele>154.7</ele>
      </trkpt>
      <trkpt lat="36.58259" lon="27.99762">
        <ele>154.4</ele>
      </trkpt>
      <trkpt lat="36.58259" lon="27.99761">
        <ele>154.6</ele>
      </trkpt>
      <trkpt lat="36.58255" lon="27.99756">
        <ele>155.5</ele>
      </trkpt>
      <trkpt lat="36.58251" lon="27.99751">
        <ele>155.9</ele>
      </trkpt>
      <trkpt lat="36.58247" lon="27.99748">
        <ele>156.2</ele>
      </trkpt>
      <trkpt lat="36.58247" lon="27.99749">
        <ele>156.1</ele>
      </trkpt>
      <trkpt lat="36.58249" lon="27.99751">
        <ele>155.8</ele>
      </trkpt>
      <trkpt lat="36.58254" lon="27.99755">
        <ele>155.5</ele>
      </trkpt>
      <trkpt lat="36.5826" lon="27.99761">
        <ele>154.8</ele>
      </trkpt>
      <trkpt lat="36.58261" lon="27.99763">
        <ele>154.6</ele>
      </trkpt>
      <trkpt lat="36.58263" lon="27.9976">
        <ele>155.7</ele>
      </trkpt>
      <trkpt lat="36.58263" lon="27.9976">
        <ele>155.7</ele>
      </trkpt>
      <trkpt lat="36.58262" lon="27.99759">
        <ele>155.8</ele>
      </trkpt>
      <trkpt lat="36.5826" lon="27.99761">
        <ele>154.9</ele>
      </trkpt>
      <trkpt lat="36.58258" lon="27.9976">
        <ele>154.7</ele>
      </trkpt>
      <trkpt lat="36.58257" lon="27.9976">
        <ele>154.6</ele>
      </trkpt>
      <trkpt lat="36.58259" lon="27.99759">
        <ele>155.3</ele>
      </trkpt>
      <trkpt lat="36.58258" lon="27.9976">
        <ele>154.6</ele>
      </trkpt>
      <trkpt lat="36.58254" lon="27.99758">
        <ele>154.8</ele>
      </trkpt>
      <trkpt lat="36.58255" lon="27.99754">
        <ele>156</ele>
      </trkpt>
      <trkpt lat="36.58255" lon="27.99752">
        <ele>156.6</ele>
      </trkpt>
      <trkpt lat="36.58256" lon="27.99751">
        <ele>156.9</ele>
      </trkpt>
      <trkpt lat="36.58256" lon="27.9975">
        <ele>157.2</ele>
      </trkpt>
      <trkpt lat="36.58257" lon="27.9975">
        <ele>157.3</ele>
      </trkpt>
      <trkpt lat="36.5826" lon="27.99751">
        <ele>157.7</ele>
      </trkpt>
      <trkpt lat="36.58264" lon="27.99752">
        <ele>158.2</ele>
      </trkpt>
      <trkpt lat="36.58266" lon="27.99752">
        <ele>158.6</ele>
      </trkpt>
      <trkpt lat="36.58269" lon="27.99751">
        <ele>159.3</ele>
      </trkpt>
      <trkpt lat="36.58271" lon="27.9975">
        <ele>160</ele>
      </trkpt>
      <trkpt lat="36.58276" lon="27.99752">
        <ele>160.4</ele>
      </trkpt>
      <trkpt lat="36.58277" lon="27.99752">
        <ele>160.5</ele>
      </trkpt>
      <trkpt lat="36.58279" lon="27.99751">
        <ele>161.5</ele>
      </trkpt>
      <trkpt lat="36.58282" lon="27.99751">
        <ele>161.9</ele>
      </trkpt>
      <trkpt lat="36.58289" lon="27.99751">
        <ele>163.2</ele>
      </trkpt>
      <trkpt lat="36.5829" lon="27.99751">
        <ele>163.3</ele>
      </trkpt>
      <trkpt lat="36.58294" lon="27.99751">
        <ele>164.1</ele>
      </trkpt>
      <trkpt lat="36.58298" lon="27.99753">
        <ele>164.4</ele>
      </trkpt>
      <trkpt lat="36.58299" lon="27.99753">
        <ele>164.4</ele>
      </trkpt>
      <trkpt lat="36.58301" lon="27.99755">
        <ele>164.2</ele>
      </trkpt>
      <trkpt lat="36.58305" lon="27.99758">
        <ele>164.3</ele>
      </trkpt>
      <trkpt lat="36.58311" lon="27.99761">
        <ele>164.5</ele>
      </trkpt>
      <trkpt lat="36.58314" lon="27.99762">
        <ele>164.7</ele>
      </trkpt>
      <trkpt lat="36.58317" lon="27.99761">
        <ele>165.7</ele>
      </trkpt>
      <trkpt lat="36.58321" lon="27.99761">
        <ele>166.5</ele>
      </trkpt>
      <trkpt lat="36.58325" lon="27.99759">
        <ele>167.7</ele>
      </trkpt>
      <trkpt lat="36.58333" lon="27.99761">
        <ele>168.5</ele>
      </trkpt>
      <trkpt lat="36.58335" lon="27.99761">
        <ele>168.9</ele>
      </trkpt>
      <trkpt lat="36.58335" lon="27.99761">
        <ele>168.9</ele>
      </trkpt>
      <trkpt lat="36.58338" lon="27.99759">
        <ele>169.9</ele>
      </trkpt>
      <trkpt lat="36.58342" lon="27.99761">
        <ele>170.1</ele>
      </trkpt>
      <trkpt lat="36.58342" lon="27.99761">
        <ele>170.2</ele>
      </trkpt>
      <trkpt lat="36.58343" lon="27.99761">
        <ele>170.4</ele>
      </trkpt>
      <trkpt lat="36.58349" lon="27.99761">
        <ele>171.3</ele>
      </trkpt>
      <trkpt lat="36.58355" lon="27.99758">
        <ele>173</ele>
      </trkpt>
      <trkpt lat="36.58359" lon="27.99759">
        <ele>173.5</ele>
      </trkpt>
      <trkpt lat="36.58366" lon="27.99759">
        <ele>174.5</ele>
      </trkpt>
      <trkpt lat="36.58367" lon="27.99759">
        <ele>174.9</ele>
      </trkpt>
      <trkpt lat="36.58373" lon="27.99757">
        <ele>176.3</ele>
      </trkpt>
      <trkpt lat="36.58374" lon="27.99757">
        <ele>176.4</ele>
      </trkpt>
      <trkpt lat="36.58375" lon="27.99759">
        <ele>176.2</ele>
      </trkpt>
      <trkpt lat="36.5838" lon="27.99759">
        <ele>176.7</ele>
      </trkpt>
      <trkpt lat="36.58385" lon="27.99758">
        <ele>178.1</ele>
      </trkpt>
      <trkpt lat="36.58385" lon="27.99757">
        <ele>178.5</ele>
      </trkpt>
      <trkpt lat="36.58389" lon="27.99754">
        <ele>180</ele>
      </trkpt>
      <trkpt lat="36.58392" lon="27.99754">
        <ele>180.6</ele>
      </trkpt>
      <trkpt lat="36.58394" lon="27.99753">
        <ele>181.1</ele>
      </trkpt>
      <trkpt lat="36.58402" lon="27.99751">
        <ele>183.2</ele>
      </trkpt>
      <trkpt lat="36.58409" lon="27.99749">
        <ele>185.1</ele>
      </trkpt>
      <trkpt lat="36.58415" lon="27.99749">
        <ele>186.1</ele>
      </trkpt>
      <trkpt lat="36.58417" lon="27.99749">
        <ele>186.4</ele>
      </trkpt>
      <trkpt lat="36.58418" lon="27.99748">
        <ele>186.6</ele>
      </trkpt>
      <trkpt lat="36.5842" lon="27.99747">
        <ele>187.1</ele>
      </trkpt>
      <trkpt lat="36.58426" lon="27.99748">
        <ele>187.1</ele>
      </trkpt>
      <trkpt lat="36.58434" lon="27.99748">
        <ele>187.2</ele>
      </trkpt>
      <trkpt lat="36.58439" lon="27.99746">
        <ele>187.9</ele>
      </trkpt>
      <trkpt lat="36.58442" lon="27.99744">
        <ele>188.7</ele>
      </trkpt>
      <trkpt lat="36.58448" lon="27.99743">
        <ele>189.1</ele>
      </trkpt>
      <trkpt lat="36.58453" lon="27.99743">
        <ele>189.5</ele>
      </trkpt>
      <trkpt lat="36.58459" lon="27.99739">
        <ele>190.7</ele>
      </trkpt>
      <trkpt lat="36.58467" lon="27.99737">
        <ele>191.5</ele>
      </trkpt>
      <trkpt lat="36.58471" lon="27.99737">
        <ele>191.6</ele>
      </trkpt>
      <trkpt lat="36.58479" lon="27.99735">
        <ele>192.2</ele>
      </trkpt>
      <trkpt lat="36.58486" lon="27.99734">
        <ele>192.6</ele>
      </trkpt>
      <trkpt lat="36.58489" lon="27.99734">
        <ele>192.6</ele>
      </trkpt>
      <trkpt lat="36.58494" lon="27.99733">
        <ele>193.1</ele>
      </trkpt>
      <trkpt lat="36.58497" lon="27.99732">
        <ele>193.4</ele>
      </trkpt>
      <trkpt lat="36.58499" lon="27.99731">
        <ele>193.6</ele>
      </trkpt>
      <trkpt lat="36.58504" lon="27.99729">
        <ele>194.1</ele>
      </trkpt>
      <trkpt lat="36.58505" lon="27.9973">
        <ele>194.1</ele>
      </trkpt>
      <trkpt lat="36.58506" lon="27.99729">
        <ele>194.3</ele>
      </trkpt>
      <trkpt lat="36.5851" lon="27.99726">
        <ele>195.1</ele>
      </trkpt>
      <trkpt lat="36.58515" lon="27.99725">
        <ele>195.5</ele>
      </trkpt>
      <trkpt lat="36.58517" lon="27.99724">
        <ele>195.8</ele>
      </trkpt>
      <trkpt lat="36.58519" lon="27.99723">
        <ele>196.2</ele>
      </trkpt>
      <trkpt lat="36.58526" lon="27.99722">
        <ele>196.5</ele>
      </trkpt>
      <trkpt lat="36.58531" lon="27.99722">
        <ele>196.7</ele>
      </trkpt>
      <trkpt lat="36.58534" lon="27.99722">
        <ele>196.8</ele>
      </trkpt>
      <trkpt lat="36.58534" lon="27.99722">
        <ele>196.8</ele>
      </trkpt>
      <trkpt lat="36.58542" lon="27.9972">
        <ele>197.4</ele>
      </trkpt>
      <trkpt lat="36.58545" lon="27.99719">
        <ele>197.6</ele>
      </trkpt>
      <trkpt lat="36.58547" lon="27.99718">
        <ele>197.9</ele>
      </trkpt>
      <trkpt lat="36.58548" lon="27.99719">
        <ele>197.8</ele>
      </trkpt>
      <trkpt lat="36.58549" lon="27.99716">
        <ele>198.3</ele>
      </trkpt>
      <trkpt lat="36.58549" lon="27.99717">
        <ele>198.1</ele>
      </trkpt>
      <trkpt lat="36.58551" lon="27.99716">
        <ele>198.3</ele>
      </trkpt>
      <trkpt lat="36.58552" lon="27.99716">
        <ele>198.3</ele>
      </trkpt>
      <trkpt lat="36.58553" lon="27.99717">
        <ele>198.3</ele>
      </trkpt>
      <trkpt lat="36.5856" lon="27.99711">
        <ele>199.3</ele>
      </trkpt>
      <trkpt lat="36.58568" lon="27.99708">
        <ele>199.9</ele>
      </trkpt>
      <trkpt lat="36.58569" lon="27.99708">
        <ele>199.9</ele>
      </trkpt>
      <trkpt lat="36.58572" lon="27.99705">
        <ele>200.3</ele>
      </trkpt>
      <trkpt lat="36.58576" lon="27.99704">
        <ele>200.5</ele>
      </trkpt>
      <trkpt lat="36.5858" lon="27.99704">
        <ele>200.5</ele>
      </trkpt>
      <trkpt lat="36.58584" lon="27.99703">
        <ele>200.8</ele>
      </trkpt>
      <trkpt lat="36.58589" lon="27.99702">
        <ele>202.2</ele>
      </trkpt>
      <trkpt lat="36.58591" lon="27.99702">
        <ele>202.9</ele>
      </trkpt>
      <trkpt lat="36.58592" lon="27.99702">
        <ele>203.2</ele>
      </trkpt>
      <trkpt lat="36.58594" lon="27.99702">
        <ele>203.7</ele>
      </trkpt>
      <trkpt lat="36.58594" lon="27.99702">
        <ele>203.7</ele>
      </trkpt>
      <trkpt lat="36.58598" lon="27.99705">
        <ele>204.4</ele>
      </trkpt>
      <trkpt lat="36.58598" lon="27.99705">
        <ele>204.6</ele>
      </trkpt>
      <trkpt lat="36.586" lon="27.99705">
        <ele>205.2</ele>
      </trkpt>
      <trkpt lat="36.58604" lon="27.99702">
        <ele>206.6</ele>
      </trkpt>
      <trkpt lat="36.58607" lon="27.99702">
        <ele>207.2</ele>
      </trkpt>
      <trkpt lat="36.58607" lon="27.99704">
        <ele>207.1</ele>
      </trkpt>
      <trkpt lat="36.58608" lon="27.99706">
        <ele>207</ele>
      </trkpt>
      <trkpt lat="36.58608" lon="27.99712">
        <ele>206.5</ele>
      </trkpt>
      <trkpt lat="36.58609" lon="27.99711">
        <ele>207.1</ele>
      </trkpt>
      <trkpt lat="36.58609" lon="27.99707">
        <ele>207.4</ele>
      </trkpt>
      <trkpt lat="36.58609" lon="27.99706">
        <ele>207.4</ele>
      </trkpt>
      <trkpt lat="36.58609" lon="27.99711">
        <ele>207.1</ele>
      </trkpt>
      <trkpt lat="36.58611" lon="27.99719">
        <ele>206.7</ele>
      </trkpt>
      <trkpt lat="36.58613" lon="27.99722">
        <ele>206.9</ele>
      </trkpt>
      <trkpt lat="36.58614" lon="27.99727">
        <ele>206.8</ele>
      </trkpt>
      <trkpt lat="36.58618" lon="27.99728">
        <ele>207.9</ele>
      </trkpt>
      <trkpt lat="36.58619" lon="27.99732">
        <ele>207.8</ele>
      </trkpt>
      <trkpt lat="36.58621" lon="27.99735">
        <ele>208.2</ele>
      </trkpt>
      <trkpt lat="36.5862" lon="27.99736">
        <ele>207.8</ele>
      </trkpt>
      <trkpt lat="36.58621" lon="27.99736">
        <ele>207.9</ele>
      </trkpt>
      <trkpt lat="36.58622" lon="27.99736">
        <ele>208.3</ele>
      </trkpt>
      <trkpt lat="36.58622" lon="27.99736">
        <ele>208.5</ele>
      </trkpt>
      <trkpt lat="36.58626" lon="27.99737">
        <ele>209.4</ele>
      </trkpt>
      <trkpt lat="36.58629" lon="27.99739">
        <ele>210.3</ele>
      </trkpt>
      <trkpt lat="36.5863" lon="27.99739">
        <ele>210.6</ele>
      </trkpt>
      <trkpt lat="36.5863" lon="27.9974">
        <ele>210.5</ele>
      </trkpt>
      <trkpt lat="36.58634" lon="27.99742">
        <ele>211.3</ele>
      </trkpt>
      <trkpt lat="36.58634" lon="27.99743">
        <ele>211.3</ele>
      </trkpt>
      <trkpt lat="36.58635" lon="27.99746">
        <ele>211.5</ele>
      </trkpt>
      <trkpt lat="36.58637" lon="27.99748">
        <ele>212</ele>
      </trkpt>
      <trkpt lat="36.58638" lon="27.99749">
        <ele>212.2</ele>
      </trkpt>
      <trkpt lat="36.58639" lon="27.9975">
        <ele>212.3</ele>
      </trkpt>
      <trkpt lat="36.5864" lon="27.99752">
        <ele>212.5</ele>
      </trkpt>
      <trkpt lat="36.58641" lon="27.99755">
        <ele>212.5</ele>
      </trkpt>
      <trkpt lat="36.58646" lon="27.99754">
        <ele>213.9</ele>
      </trkpt>
      <trkpt lat="36.58649" lon="27.9976">
        <ele>214.4</ele>
      </trkpt>
      <trkpt lat="36.58651" lon="27.99761">
        <ele>214.8</ele>
      </trkpt>
      <trkpt lat="36.58651" lon="27.99761">
        <ele>214.9</ele>
      </trkpt>
      <trkpt lat="36.58648" lon="27.99761">
        <ele>213.9</ele>
      </trkpt>
      <trkpt lat="36.58647" lon="27.99759">
        <ele>213.8</ele>
      </trkpt>
      <trkpt lat="36.58646" lon="27.9976">
        <ele>213.2</ele>
      </trkpt>
      <trkpt lat="36.58646" lon="27.9976">
        <ele>213.2</ele>
      </trkpt>
      <trkpt lat="36.58645" lon="27.99759">
        <ele>213</ele>
      </trkpt>
      <trkpt lat="36.58646" lon="27.9976">
        <ele>213.3</ele>
      </trkpt>
      <trkpt lat="36.58648" lon="27.99762">
        <ele>213.8</ele>
      </trkpt>
      <trkpt lat="36.5865" lon="27.99764">
        <ele>214.2</ele>
      </trkpt>
      <trkpt lat="36.58651" lon="27.99763">
        <ele>214.6</ele>
      </trkpt>
      <trkpt lat="36.58653" lon="27.99764">
        <ele>215</ele>
      </trkpt>
      <trkpt lat="36.58653" lon="27.99765">
        <ele>214.9</ele>
      </trkpt>
      <trkpt lat="36.58656" lon="27.99765">
        <ele>215.7</ele>
      </trkpt>
      <trkpt lat="36.58658" lon="27.99762">
        <ele>216.7</ele>
      </trkpt>
      <trkpt lat="36.58658" lon="27.99762">
        <ele>216.7</ele>
      </trkpt>
      <trkpt lat="36.5866" lon="27.99758">
        <ele>217.9</ele>
      </trkpt>
      <trkpt lat="36.58661" lon="27.99757">
        <ele>218.4</ele>
      </trkpt>
      <trkpt lat="36.58661" lon="27.99757">
        <ele>218.4</ele>
      </trkpt>
      <trkpt lat="36.58663" lon="27.99756">
        <ele>219</ele>
      </trkpt>
      <trkpt lat="36.58663" lon="27.99757">
        <ele>219.1</ele>
      </trkpt>
      <trkpt lat="36.58664" lon="27.9976">
        <ele>218.9</ele>
      </trkpt>
      <trkpt lat="36.58664" lon="27.9976">
        <ele>219</ele>
      </trkpt>
      <trkpt lat="36.58666" lon="27.99759">
        <ele>219.6</ele>
      </trkpt>
      <trkpt lat="36.58666" lon="27.99758">
        <ele>219.7</ele>
      </trkpt>
      <trkpt lat="36.58667" lon="27.99757">
        <ele>220.3</ele>
      </trkpt>
      <trkpt lat="36.58668" lon="27.99756">
        <ele>220.9</ele>
      </trkpt>
      <trkpt lat="36.58668" lon="27.99754">
        <ele>221.1</ele>
      </trkpt>
      <trkpt lat="36.58671" lon="27.99753">
        <ele>222</ele>
      </trkpt>
      <trkpt lat="36.58671" lon="27.9975">
        <ele>222.4</ele>
      </trkpt>
      <trkpt lat="36.58671" lon="27.99747">
        <ele>222.5</ele>
      </trkpt>
      <trkpt lat="36.58672" lon="27.99743">
        <ele>223.1</ele>
      </trkpt>
      <trkpt lat="36.58672" lon="27.99742">
        <ele>223.4</ele>
      </trkpt>
      <trkpt lat="36.58674" lon="27.99741">
        <ele>224.1</ele>
      </trkpt>
      <trkpt lat="36.58674" lon="27.99741">
        <ele>224.1</ele>
      </trkpt>
      <trkpt lat="36.58676" lon="27.99741">
        <ele>224.5</ele>
      </trkpt>
      <trkpt lat="36.58676" lon="27.99743">
        <ele>224.6</ele>
      </trkpt>
      <trkpt lat="36.5868" lon="27.99744">
        <ele>225.8</ele>
      </trkpt>
      <trkpt lat="36.5868" lon="27.99744">
        <ele>225.7</ele>
      </trkpt>
      <trkpt lat="36.58679" lon="27.99747">
        <ele>225.1</ele>
      </trkpt>
      <trkpt lat="36.58678" lon="27.9975">
        <ele>224.7</ele>
      </trkpt>
      <trkpt lat="36.58679" lon="27.99754">
        <ele>224.8</ele>
      </trkpt>
      <trkpt lat="36.58681" lon="27.99756">
        <ele>225.2</ele>
      </trkpt>
      <trkpt lat="36.58682" lon="27.99755">
        <ele>225.5</ele>
      </trkpt>
      <trkpt lat="36.58686" lon="27.99753">
        <ele>227</ele>
      </trkpt>
      <trkpt lat="36.58687" lon="27.99753">
        <ele>227.3</ele>
      </trkpt>
      <trkpt lat="36.5869" lon="27.99756">
        <ele>227.9</ele>
      </trkpt>
      <trkpt lat="36.5869" lon="27.99757">
        <ele>228</ele>
      </trkpt>
      <trkpt lat="36.5869" lon="27.99758">
        <ele>227.7</ele>
      </trkpt>
      <trkpt lat="36.58691" lon="27.99759">
        <ele>228</ele>
      </trkpt>
      <trkpt lat="36.58694" lon="27.99763">
        <ele>228.4</ele>
      </trkpt>
      <trkpt lat="36.58698" lon="27.99764">
        <ele>229.6</ele>
      </trkpt>
      <trkpt lat="36.58698" lon="27.99765">
        <ele>229.8</ele>
      </trkpt>
      <trkpt lat="36.58701" lon="27.99766">
        <ele>230.4</ele>
      </trkpt>
      <trkpt lat="36.58702" lon="27.99769">
        <ele>230.5</ele>
      </trkpt>
      <trkpt lat="36.58704" lon="27.99771">
        <ele>230.8</ele>
      </trkpt>
      <trkpt lat="36.58704" lon="27.99771">
        <ele>231.1</ele>
      </trkpt>
      <trkpt lat="36.58706" lon="27.99771">
        <ele>231.5</ele>
      </trkpt>
      <trkpt lat="36.5871" lon="27.99775">
        <ele>232.4</ele>
      </trkpt>
      <trkpt lat="36.58713" lon="27.99775">
        <ele>233.4</ele>
      </trkpt>
      <trkpt lat="36.58715" lon="27.99774">
        <ele>234.3</ele>
      </trkpt>
      <trkpt lat="36.58718" lon="27.99775">
        <ele>235.1</ele>
      </trkpt>
      <trkpt lat="36.58719" lon="27.99775">
        <ele>235.5</ele>
      </trkpt>
      <trkpt lat="36.5872" lon="27.99774">
        <ele>235.9</ele>
      </trkpt>
      <trkpt lat="36.58721" lon="27.99775">
        <ele>236.1</ele>
      </trkpt>
      <trkpt lat="36.58725" lon="27.99778">
        <ele>237</ele>
      </trkpt>
      <trkpt lat="36.58728" lon="27.99778">
        <ele>237.9</ele>
      </trkpt>
      <trkpt lat="36.58729" lon="27.9978">
        <ele>238</ele>
      </trkpt>
      <trkpt lat="36.58729" lon="27.9978">
        <ele>238.2</ele>
      </trkpt>
      <trkpt lat="36.58731" lon="27.99778">
        <ele>238.9</ele>
      </trkpt>
      <trkpt lat="36.58731" lon="27.99779">
        <ele>238.9</ele>
      </trkpt>
      <trkpt lat="36.58731" lon="27.99778">
        <ele>239</ele>
      </trkpt>
      <trkpt lat="36.58735" lon="27.99778">
        <ele>240.3</ele>
      </trkpt>
      <trkpt lat="36.58736" lon="27.99777">
        <ele>240.8</ele>
      </trkpt>
      <trkpt lat="36.58738" lon="27.99776">
        <ele>241.7</ele>
      </trkpt>
      <trkpt lat="36.58737" lon="27.99776">
        <ele>241.4</ele>
      </trkpt>
      <trkpt lat="36.58736" lon="27.99776">
        <ele>241.1</ele>
      </trkpt>
      <trkpt lat="36.58736" lon="27.99779">
        <ele>240.4</ele>
      </trkpt>
      <trkpt lat="36.58734" lon="27.9978">
        <ele>239.7</ele>
      </trkpt>
      <trkpt lat="36.58734" lon="27.9978">
        <ele>239.6</ele>
      </trkpt>
      <trkpt lat="36.58735" lon="27.9978">
        <ele>240</ele>
      </trkpt>
      <trkpt lat="36.58737" lon="27.99779">
        <ele>240.9</ele>
      </trkpt>
      <trkpt lat="36.58738" lon="27.99779">
        <ele>241.2</ele>
      </trkpt>
      <trkpt lat="36.58739" lon="27.99779">
        <ele>241.6</ele>
      </trkpt>
      <trkpt lat="36.58742" lon="27.99778">
        <ele>242.4</ele>
      </trkpt>
      <trkpt lat="36.58741" lon="27.99778">
        <ele>242.4</ele>
      </trkpt>
      <trkpt lat="36.58743" lon="27.99775">
        <ele>243.3</ele>
      </trkpt>
      <trkpt lat="36.58743" lon="27.99774">
        <ele>243.4</ele>
      </trkpt>
      <trkpt lat="36.58744" lon="27.99774">
        <ele>243.9</ele>
      </trkpt>
      <trkpt lat="36.58748" lon="27.99773">
        <ele>245.1</ele>
      </trkpt>
      <trkpt lat="36.58749" lon="27.99772">
        <ele>245.7</ele>
      </trkpt>
      <trkpt lat="36.58749" lon="27.99772">
        <ele>245.8</ele>
      </trkpt>
      <trkpt lat="36.58749" lon="27.99771">
        <ele>245.9</ele>
      </trkpt>
      <trkpt lat="36.58749" lon="27.9977">
        <ele>246.2</ele>
      </trkpt>
      <trkpt lat="36.5875" lon="27.99771">
        <ele>246.2</ele>
      </trkpt>
      <trkpt lat="36.58751" lon="27.9977">
        <ele>246.5</ele>
      </trkpt>
      <trkpt lat="36.58752" lon="27.99768">
        <ele>247.1</ele>
      </trkpt>
      <trkpt lat="36.58754" lon="27.99767">
        <ele>247.6</ele>
      </trkpt>
      <trkpt lat="36.58754" lon="27.99765">
        <ele>248</ele>
      </trkpt>
      <trkpt lat="36.58756" lon="27.99763">
        <ele>248.7</ele>
      </trkpt>
      <trkpt lat="36.58757" lon="27.99763">
        <ele>248.8</ele>
      </trkpt>
      <trkpt lat="36.58761" lon="27.99761">
        <ele>250.1</ele>
      </trkpt>
      <trkpt lat="36.58762" lon="27.9976">
        <ele>250.3</ele>
      </trkpt>
      <trkpt lat="36.58763" lon="27.99758">
        <ele>250.7</ele>
      </trkpt>
      <trkpt lat="36.58763" lon="27.99758">
        <ele>250.9</ele>
      </trkpt>
      <trkpt lat="36.58764" lon="27.99757">
        <ele>251.2</ele>
      </trkpt>
      <trkpt lat="36.58765" lon="27.99756">
        <ele>251.4</ele>
      </trkpt>
      <trkpt lat="36.58764" lon="27.99752">
        <ele>251.7</ele>
      </trkpt>
      <trkpt lat="36.58766" lon="27.99749">
        <ele>252.6</ele>
      </trkpt>
      <trkpt lat="36.58769" lon="27.99746">
        <ele>253.3</ele>
      </trkpt>
      <trkpt lat="36.58769" lon="27.99746">
        <ele>253.3</ele>
      </trkpt>
      <trkpt lat="36.58769" lon="27.99746">
        <ele>253.4</ele>
      </trkpt>
      <trkpt lat="36.58772" lon="27.99744">
        <ele>254.1</ele>
      </trkpt>
      <trkpt lat="36.58772" lon="27.99744">
        <ele>254.2</ele>
      </trkpt>
      <trkpt lat="36.58774" lon="27.99743">
        <ele>254.6</ele>
      </trkpt>
      <trkpt lat="36.58774" lon="27.99742">
        <ele>254.7</ele>
      </trkpt>
      <trkpt lat="36.58774" lon="27.99742">
        <ele>254.8</ele>
      </trkpt>
      <trkpt lat="36.58776" lon="27.99737">
        <ele>255.5</ele>
      </trkpt>
      <trkpt lat="36.58777" lon="27.99736">
        <ele>255.9</ele>
      </trkpt>
      <trkpt lat="36.58777" lon="27.99735">
        <ele>256</ele>
      </trkpt>
      <trkpt lat="36.58778" lon="27.99734">
        <ele>256.1</ele>
      </trkpt>
      <trkpt lat="36.58779" lon="27.99731">
        <ele>256.7</ele>
      </trkpt>
      <trkpt lat="36.58781" lon="27.99729">
        <ele>257.3</ele>
      </trkpt>
      <trkpt lat="36.58781" lon="27.99728">
        <ele>257.4</ele>
      </trkpt>
      <trkpt lat="36.58782" lon="27.99726">
        <ele>257.7</ele>
      </trkpt>
      <trkpt lat="36.58783" lon="27.99725">
        <ele>258</ele>
      </trkpt>
      <trkpt lat="36.58783" lon="27.99726">
        <ele>258</ele>
      </trkpt>
      <trkpt lat="36.58786" lon="27.99726">
        <ele>258.5</ele>
      </trkpt>
      <trkpt lat="36.58786" lon="27.99726">
        <ele>258.7</ele>
      </trkpt>
      <trkpt lat="36.58789" lon="27.99725">
        <ele>259.3</ele>
      </trkpt>
      <trkpt lat="36.58792" lon="27.99722">
        <ele>260.3</ele>
      </trkpt>
      <trkpt lat="36.58794" lon="27.99722">
        <ele>260.8</ele>
      </trkpt>
      <trkpt lat="36.58795" lon="27.99721">
        <ele>260.9</ele>
      </trkpt>
      <trkpt lat="36.58796" lon="27.9972">
        <ele>261.4</ele>
      </trkpt>
      <trkpt lat="36.588" lon="27.99717">
        <ele>262.4</ele>
      </trkpt>
      <trkpt lat="36.588" lon="27.99716">
        <ele>262.6</ele>
      </trkpt>
      <trkpt lat="36.58799" lon="27.99716">
        <ele>262.4</ele>
      </trkpt>
      <trkpt lat="36.58801" lon="27.99716">
        <ele>262.7</ele>
      </trkpt>
      <trkpt lat="36.58802" lon="27.99715">
        <ele>263.1</ele>
      </trkpt>
      <trkpt lat="36.58803" lon="27.99715">
        <ele>263.5</ele>
      </trkpt>
      <trkpt lat="36.58804" lon="27.99715">
        <ele>263.5</ele>
      </trkpt>
      <trkpt lat="36.58805" lon="27.99713">
        <ele>263.9</ele>
      </trkpt>
      <trkpt lat="36.58805" lon="27.99713">
        <ele>264.1</ele>
      </trkpt>
      <trkpt lat="36.5881" lon="27.9971">
        <ele>265.5</ele>
      </trkpt>
      <trkpt lat="36.58813" lon="27.99708">
        <ele>266.2</ele>
      </trkpt>
      <trkpt lat="36.58815" lon="27.99707">
        <ele>266.7</ele>
      </trkpt>
      <trkpt lat="36.58816" lon="27.99707">
        <ele>266.9</ele>
      </trkpt>
      <trkpt lat="36.58817" lon="27.99706">
        <ele>267.5</ele>
      </trkpt>
      <trkpt lat="36.5882" lon="27.99702">
        <ele>268.5</ele>
      </trkpt>
      <trkpt lat="36.58822" lon="27.997">
        <ele>269</ele>
      </trkpt>
      <trkpt lat="36.58823" lon="27.99699">
        <ele>269.4</ele>
      </trkpt>
      <trkpt lat="36.58823" lon="27.99698">
        <ele>269.4</ele>
      </trkpt>
      <trkpt lat="36.58822" lon="27.99697">
        <ele>269.3</ele>
      </trkpt>
      <trkpt lat="36.58824" lon="27.99697">
        <ele>269.7</ele>
      </trkpt>
      <trkpt lat="36.58825" lon="27.99694">
        <ele>270.2</ele>
      </trkpt>
      <trkpt lat="36.58824" lon="27.99694">
        <ele>270.2</ele>
      </trkpt>
      <trkpt lat="36.58824" lon="27.99693">
        <ele>270.3</ele>
      </trkpt>
      <trkpt lat="36.58824" lon="27.9969">
        <ele>270.4</ele>
      </trkpt>
      <trkpt lat="36.58825" lon="27.99689">
        <ele>270.9</ele>
      </trkpt>
      <trkpt lat="36.58829" lon="27.99685">
        <ele>272.1</ele>
      </trkpt>
      <trkpt lat="36.58831" lon="27.99683">
        <ele>272.8</ele>
      </trkpt>
      <trkpt lat="36.58834" lon="27.99683">
        <ele>273.5</ele>
      </trkpt>
      <trkpt lat="36.58835" lon="27.99682">
        <ele>273.8</ele>
      </trkpt>
      <trkpt lat="36.58836" lon="27.9968">
        <ele>274.3</ele>
      </trkpt>
      <trkpt lat="36.58836" lon="27.9968">
        <ele>274.4</ele>
      </trkpt>
      <trkpt lat="36.58839" lon="27.9968">
        <ele>274.9</ele>
      </trkpt>
      <trkpt lat="36.58838" lon="27.99679">
        <ele>274.8</ele>
      </trkpt>
      <trkpt lat="36.5884" lon="27.99678">
        <ele>275.3</ele>
      </trkpt>
      <trkpt lat="36.5884" lon="27.99678">
        <ele>275.4</ele>
      </trkpt>
      <trkpt lat="36.58844" lon="27.99675">
        <ele>276.6</ele>
      </trkpt>
      <trkpt lat="36.58846" lon="27.99672">
        <ele>277.2</ele>
      </trkpt>
      <trkpt lat="36.58848" lon="27.99671">
        <ele>277.8</ele>
      </trkpt>
      <trkpt lat="36.5885" lon="27.99669">
        <ele>278.3</ele>
      </trkpt>
      <trkpt lat="36.58851" lon="27.99667">
        <ele>278.7</ele>
      </trkpt>
      <trkpt lat="36.58851" lon="27.99668">
        <ele>278.7</ele>
      </trkpt>
      <trkpt lat="36.58851" lon="27.99667">
        <ele>278.8</ele>
      </trkpt>
      <trkpt lat="36.58851" lon="27.99665">
        <ele>279.2</ele>
      </trkpt>
      <trkpt lat="36.58855" lon="27.99663">
        <ele>280.3</ele>
      </trkpt>
      <trkpt lat="36.58856" lon="27.99661">
        <ele>280.8</ele>
      </trkpt>
      <trkpt lat="36.58858" lon="27.99659">
        <ele>281.4</ele>
      </trkpt>
      <trkpt lat="36.5886" lon="27.9966">
        <ele>281.8</ele>
      </trkpt>
      <trkpt lat="36.5886" lon="27.9966">
        <ele>281.7</ele>
      </trkpt>
      <trkpt lat="36.58863" lon="27.99661">
        <ele>282.4</ele>
      </trkpt>
      <trkpt lat="36.58865" lon="27.99659">
        <ele>283.1</ele>
      </trkpt>
      <trkpt lat="36.58866" lon="27.99657">
        <ele>283.5</ele>
      </trkpt>
      <trkpt lat="36.58866" lon="27.99656">
        <ele>283.7</ele>
      </trkpt>
      <trkpt lat="36.58869" lon="27.99656">
        <ele>284.2</ele>
      </trkpt>
      <trkpt lat="36.58869" lon="27.99656">
        <ele>284.5</ele>
      </trkpt>
      <trkpt lat="36.58869" lon="27.99654">
        <ele>284.6</ele>
      </trkpt>
      <trkpt lat="36.58871" lon="27.99653">
        <ele>285.2</ele>
      </trkpt>
      <trkpt lat="36.58873" lon="27.99652">
        <ele>285.8</ele>
      </trkpt>
      <trkpt lat="36.58877" lon="27.99655">
        <ele>286.1</ele>
      </trkpt>
      <trkpt lat="36.58877" lon="27.99654">
        <ele>286.3</ele>
      </trkpt>
      <trkpt lat="36.58881" lon="27.99654">
        <ele>287.2</ele>
      </trkpt>
      <trkpt lat="36.58884" lon="27.99656">
        <ele>287.6</ele>
      </trkpt>
      <trkpt lat="36.58888" lon="27.99658">
        <ele>288.1</ele>
      </trkpt>
      <trkpt lat="36.58893" lon="27.99658">
        <ele>289.2</ele>
      </trkpt>
      <trkpt lat="36.58897" lon="27.99655">
        <ele>290.3</ele>
      </trkpt>
      <trkpt lat="36.58898" lon="27.99653">
        <ele>290.8</ele>
      </trkpt>
      <trkpt lat="36.58898" lon="27.99655">
        <ele>290.6</ele>
      </trkpt>
      <trkpt lat="36.58899" lon="27.99656">
        <ele>290.6</ele>
      </trkpt>
      <trkpt lat="36.589" lon="27.99656">
        <ele>290.9</ele>
      </trkpt>
      <trkpt lat="36.589" lon="27.99651">
        <ele>291.7</ele>
      </trkpt>
      <trkpt lat="36.58903" lon="27.9965">
        <ele>292.4</ele>
      </trkpt>
      <trkpt lat="36.58906" lon="27.99649">
        <ele>293.1</ele>
      </trkpt>
      <trkpt lat="36.58909" lon="27.99647">
        <ele>294</ele>
      </trkpt>
      <trkpt lat="36.58908" lon="27.99646">
        <ele>293.9</ele>
      </trkpt>
      <trkpt lat="36.58911" lon="27.99648">
        <ele>294.3</ele>
      </trkpt>
      <trkpt lat="36.58914" lon="27.99648">
        <ele>295</ele>
      </trkpt>
      <trkpt lat="36.58921" lon="27.99648">
        <ele>296</ele>
      </trkpt>
      <trkpt lat="36.58922" lon="27.99648">
        <ele>296.2</ele>
      </trkpt>
      <trkpt lat="36.58924" lon="27.99648">
        <ele>296.4</ele>
      </trkpt>
      <trkpt lat="36.58926" lon="27.99648">
        <ele>296.7</ele>
      </trkpt>
      <trkpt lat="36.58928" lon="27.99646">
        <ele>297.2</ele>
      </trkpt>
      <trkpt lat="36.5893" lon="27.99649">
        <ele>297</ele>
      </trkpt>
      <trkpt lat="36.5893" lon="27.99652">
        <ele>296.7</ele>
      </trkpt>
      <trkpt lat="36.58932" lon="27.99656">
        <ele>296.3</ele>
      </trkpt>
      <trkpt lat="36.58935" lon="27.99658">
        <ele>296.4</ele>
      </trkpt>
      <trkpt lat="36.58936" lon="27.99659">
        <ele>296.5</ele>
      </trkpt>
      <trkpt lat="36.58934" lon="27.99658">
        <ele>296.3</ele>
      </trkpt>
      <trkpt lat="36.58933" lon="27.99658">
        <ele>296.3</ele>
      </trkpt>
      <trkpt lat="36.58935" lon="27.99657">
        <ele>296.6</ele>
      </trkpt>
      <trkpt lat="36.58936" lon="27.99657">
        <ele>296.8</ele>
      </trkpt>
      <trkpt lat="36.58937" lon="27.99657">
        <ele>296.9</ele>
      </trkpt>
      <trkpt lat="36.58938" lon="27.99657">
        <ele>297.1</ele>
      </trkpt>
      <trkpt lat="36.58942" lon="27.99657">
        <ele>297.6</ele>
      </trkpt>
      <trkpt lat="36.58943" lon="27.99657">
        <ele>297.7</ele>
      </trkpt>
      <trkpt lat="36.58946" lon="27.99656">
        <ele>298.2</ele>
      </trkpt>
      <trkpt lat="36.58948" lon="27.99656">
        <ele>298.5</ele>
      </trkpt>
      <trkpt lat="36.58948" lon="27.99657">
        <ele>298.3</ele>
      </trkpt>
      <trkpt lat="36.58951" lon="27.99657">
        <ele>298.7</ele>
      </trkpt>
      <trkpt lat="36.58951" lon="27.99657">
        <ele>298.7</ele>
      </trkpt>
      <trkpt lat="36.58953" lon="27.99661">
        <ele>298.4</ele>
      </trkpt>
      <trkpt lat="36.58955" lon="27.99662">
        <ele>298.5</ele>
      </trkpt>
      <trkpt lat="36.58957" lon="27.99662">
        <ele>298.6</ele>
      </trkpt>
      <trkpt lat="36.58958" lon="27.99663">
        <ele>298.6</ele>
      </trkpt>
      <trkpt lat="36.58961" lon="27.99667">
        <ele>298.3</ele>
      </trkpt>
      <trkpt lat="36.58962" lon="27.99669">
        <ele>298.3</ele>
      </trkpt>
      <trkpt lat="36.58965" lon="27.9967">
        <ele>298.6</ele>
      </trkpt>
      <trkpt lat="36.58969" lon="27.99671">
        <ele>298.9</ele>
      </trkpt>
      <trkpt lat="36.5897" lon="27.99671">
        <ele>299</ele>
      </trkpt>
      <trkpt lat="36.58972" lon="27.99673">
        <ele>299.2</ele>
      </trkpt>
      <trkpt lat="36.58972" lon="27.99673">
        <ele>299.2</ele>
      </trkpt>
      <trkpt lat="36.58976" lon="27.99674">
        <ele>299.6</ele>
      </trkpt>
      <trkpt lat="36.58976" lon="27.99674">
        <ele>299.5</ele>
      </trkpt>
      <trkpt lat="36.58976" lon="27.99675">
        <ele>299.5</ele>
      </trkpt>
      <trkpt lat="36.58977" lon="27.99677">
        <ele>299.4</ele>
      </trkpt>
      <trkpt lat="36.58981" lon="27.99683">
        <ele>299.4</ele>
      </trkpt>
      <trkpt lat="36.58982" lon="27.99683">
        <ele>299.5</ele>
      </trkpt>
      <trkpt lat="36.58986" lon="27.99683">
        <ele>300</ele>
      </trkpt>
      <trkpt lat="36.58988" lon="27.99685">
        <ele>300.1</ele>
      </trkpt>
      <trkpt lat="36.58988" lon="27.99687">
        <ele>299.9</ele>
      </trkpt>
      <trkpt lat="36.58989" lon="27.99686">
        <ele>300.1</ele>
      </trkpt>
      <trkpt lat="36.58991" lon="27.9969">
        <ele>300</ele>
      </trkpt>
      <trkpt lat="36.58994" lon="27.99694">
        <ele>300</ele>
      </trkpt>
      <trkpt lat="36.58999" lon="27.99697">
        <ele>300.3</ele>
      </trkpt>
      <trkpt lat="36.59003" lon="27.99701">
        <ele>300.3</ele>
      </trkpt>
      <trkpt lat="36.59008" lon="27.99699">
        <ele>300.7</ele>
      </trkpt>
      <trkpt lat="36.5901" lon="27.99701">
        <ele>300.6</ele>
      </trkpt>
      <trkpt lat="36.59011" lon="27.99699">
        <ele>300.8</ele>
      </trkpt>
      <trkpt lat="36.59012" lon="27.99699">
        <ele>300.9</ele>
      </trkpt>
      <trkpt lat="36.59015" lon="27.99699">
        <ele>301</ele>
      </trkpt>
      <trkpt lat="36.59022" lon="27.99699">
        <ele>301.4</ele>
      </trkpt>
      <trkpt lat="36.59028" lon="27.99698">
        <ele>301.7</ele>
      </trkpt>
      <trkpt lat="36.59029" lon="27.99698">
        <ele>301.8</ele>
      </trkpt>
      <trkpt lat="36.59034" lon="27.997">
        <ele>301.9</ele>
      </trkpt>
      <trkpt lat="36.59035" lon="27.997">
        <ele>302</ele>
      </trkpt>
      <trkpt lat="36.59037" lon="27.99699">
        <ele>302.1</ele>
      </trkpt>
      <trkpt lat="36.59037" lon="27.99699">
        <ele>302.1</ele>
      </trkpt>
      <trkpt lat="36.59043" lon="27.99699">
        <ele>302.4</ele>
      </trkpt>
      <trkpt lat="36.59045" lon="27.997">
        <ele>302.5</ele>
      </trkpt>
      <trkpt lat="36.59048" lon="27.99701">
        <ele>302.6</ele>
      </trkpt>
      <trkpt lat="36.59049" lon="27.99701">
        <ele>302.6</ele>
      </trkpt>
      <trkpt lat="36.59053" lon="27.99704">
        <ele>302.6</ele>
      </trkpt>
      <trkpt lat="36.59055" lon="27.99705">
        <ele>302.7</ele>
      </trkpt>
      <trkpt lat="36.59057" lon="27.99704">
        <ele>302.8</ele>
      </trkpt>
      <trkpt lat="36.59058" lon="27.99703">
        <ele>302.9</ele>
      </trkpt>
      <trkpt lat="36.5906" lon="27.99705">
        <ele>302.9</ele>
      </trkpt>
      <trkpt lat="36.59062" lon="27.99706">
        <ele>303</ele>
      </trkpt>
      <trkpt lat="36.59069" lon="27.99707">
        <ele>303.3</ele>
      </trkpt>
      <trkpt lat="36.59073" lon="27.99708">
        <ele>303.4</ele>
      </trkpt>
      <trkpt lat="36.59077" lon="27.99709">
        <ele>303.6</ele>
      </trkpt>
      <trkpt lat="36.59079" lon="27.99709">
        <ele>303.8</ele>
      </trkpt>
      <trkpt lat="36.5908" lon="27.99711">
        <ele>303.7</ele>
      </trkpt>
      <trkpt lat="36.59082" lon="27.99711">
        <ele>303.8</ele>
      </trkpt>
      <trkpt lat="36.59086" lon="27.99714">
        <ele>303.9</ele>
      </trkpt>
      <trkpt lat="36.59089" lon="27.9972">
        <ele>303.8</ele>
      </trkpt>
      <trkpt lat="36.59092" lon="27.99723">
        <ele>303.8</ele>
      </trkpt>
      <trkpt lat="36.59095" lon="27.99723">
        <ele>304</ele>
      </trkpt>
      <trkpt lat="36.59103" lon="27.99728">
        <ele>304.2</ele>
      </trkpt>
      <trkpt lat="36.59107" lon="27.99729">
        <ele>304.3</ele>
      </trkpt>
      <trkpt lat="36.59111" lon="27.99729">
        <ele>304.6</ele>
      </trkpt>
      <trkpt lat="36.59112" lon="27.99729">
        <ele>304.6</ele>
      </trkpt>
      <trkpt lat="36.5912" lon="27.9973">
        <ele>305.1</ele>
      </trkpt>
      <trkpt lat="36.59124" lon="27.9973">
        <ele>305.3</ele>
      </trkpt>
      <trkpt lat="36.5913" lon="27.9973">
        <ele>305.6</ele>
      </trkpt>
      <trkpt lat="36.59137" lon="27.99731">
        <ele>305.9</ele>
      </trkpt>
      <trkpt lat="36.59138" lon="27.99731">
        <ele>306</ele>
      </trkpt>
      <trkpt lat="36.59144" lon="27.99733">
        <ele>306.2</ele>
      </trkpt>
      <trkpt lat="36.59148" lon="27.99733">
        <ele>306.4</ele>
      </trkpt>
      <trkpt lat="36.59154" lon="27.99733">
        <ele>306.7</ele>
      </trkpt>
      <trkpt lat="36.59159" lon="27.99732">
        <ele>307.1</ele>
      </trkpt>
      <trkpt lat="36.59164" lon="27.99736">
        <ele>307.1</ele>
      </trkpt>
      <trkpt lat="36.59166" lon="27.99736">
        <ele>307.2</ele>
      </trkpt>
      <trkpt lat="36.59169" lon="27.99736">
        <ele>307.1</ele>
      </trkpt>
      <trkpt lat="36.59171" lon="27.99737">
        <ele>307</ele>
      </trkpt>
      <trkpt lat="36.59178" lon="27.99739">
        <ele>306.6</ele>
      </trkpt>
      <trkpt lat="36.59186" lon="27.99742">
        <ele>306.1</ele>
      </trkpt>
      <trkpt lat="36.59189" lon="27.99744">
        <ele>305.9</ele>
      </trkpt>
      <trkpt lat="36.59191" lon="27.99746">
        <ele>305.7</ele>
      </trkpt>
      <trkpt lat="36.59191" lon="27.99747">
        <ele>305.6</ele>
      </trkpt>
      <trkpt lat="36.59194" lon="27.99746">
        <ele>305.6</ele>
      </trkpt>
      <trkpt lat="36.59194" lon="27.99746">
        <ele>305.6</ele>
      </trkpt>
      <trkpt lat="36.59195" lon="27.99747">
        <ele>305.6</ele>
      </trkpt>
      <trkpt lat="36.59196" lon="27.99753">
        <ele>305.5</ele>
      </trkpt>
      <trkpt lat="36.59197" lon="27.99753">
        <ele>305.6</ele>
      </trkpt>
      <trkpt lat="36.59202" lon="27.99748">
        <ele>305.3</ele>
      </trkpt>
      <trkpt lat="36.59204" lon="27.99746">
        <ele>305.4</ele>
      </trkpt>
      <trkpt lat="36.59205" lon="27.99745">
        <ele>305.4</ele>
      </trkpt>
      <trkpt lat="36.59206" lon="27.99745">
        <ele>305.4</ele>
      </trkpt>
      <trkpt lat="36.59207" lon="27.99744">
        <ele>305.4</ele>
      </trkpt>
      <trkpt lat="36.59207" lon="27.99744">
        <ele>305.4</ele>
      </trkpt>
      <trkpt lat="36.59212" lon="27.99745">
        <ele>305.2</ele>
      </trkpt>
      <trkpt lat="36.59214" lon="27.99746">
        <ele>305.1</ele>
      </trkpt>
      <trkpt lat="36.59219" lon="27.99748">
        <ele>304.9</ele>
      </trkpt>
      <trkpt lat="36.59224" lon="27.99751">
        <ele>304.7</ele>
      </trkpt>
      <trkpt lat="36.59223" lon="27.99752">
        <ele>304.8</ele>
      </trkpt>
      <trkpt lat="36.59224" lon="27.99755">
        <ele>304.9</ele>
      </trkpt>
      <trkpt lat="36.59224" lon="27.99755">
        <ele>304.9</ele>
      </trkpt>
      <trkpt lat="36.59229" lon="27.99762">
        <ele>305.2</ele>
      </trkpt>
      <trkpt lat="36.5923" lon="27.99764">
        <ele>305.3</ele>
      </trkpt>
      <trkpt lat="36.59235" lon="27.99773">
        <ele>305.6</ele>
      </trkpt>
      <trkpt lat="36.59236" lon="27.99774">
        <ele>305.6</ele>
      </trkpt>
      <trkpt lat="36.59238" lon="27.99782">
        <ele>305.9</ele>
      </trkpt>
      <trkpt lat="36.59239" lon="27.99789">
        <ele>306.1</ele>
      </trkpt>
      <trkpt lat="36.5924" lon="27.99791">
        <ele>306.2</ele>
      </trkpt>
      <trkpt lat="36.59243" lon="27.99796">
        <ele>306.2</ele>
      </trkpt>
      <trkpt lat="36.59243" lon="27.99806">
        <ele>306.7</ele>
      </trkpt>
      <trkpt lat="36.59242" lon="27.99811">
        <ele>306.9</ele>
      </trkpt>
      <trkpt lat="36.59245" lon="27.9982">
        <ele>307.1</ele>
      </trkpt>
      <trkpt lat="36.59246" lon="27.99826">
        <ele>307.2</ele>
      </trkpt>
      <trkpt lat="36.59245" lon="27.99834">
        <ele>307.6</ele>
      </trkpt>
      <trkpt lat="36.59242" lon="27.99834">
        <ele>308</ele>
      </trkpt>
      <trkpt lat="36.59242" lon="27.99834">
        <ele>308</ele>
      </trkpt>
      <trkpt lat="36.59242" lon="27.99835">
        <ele>308.1</ele>
      </trkpt>
      <trkpt lat="36.59241" lon="27.99838">
        <ele>308.4</ele>
      </trkpt>
      <trkpt lat="36.59241" lon="27.99838">
        <ele>308.4</ele>
      </trkpt>
      <trkpt lat="36.59242" lon="27.99839">
        <ele>308.3</ele>
      </trkpt>
      <trkpt lat="36.59243" lon="27.99839">
        <ele>308.3</ele>
      </trkpt>
      <trkpt lat="36.59244" lon="27.9984">
        <ele>308.3</ele>
      </trkpt>
      <trkpt lat="36.59245" lon="27.99842">
        <ele>308.2</ele>
      </trkpt>
      <trkpt lat="36.59247" lon="27.99847">
        <ele>308.3</ele>
      </trkpt>
      <trkpt lat="36.59247" lon="27.99849">
        <ele>308.5</ele>
      </trkpt>
      <trkpt lat="36.59248" lon="27.99854">
        <ele>308.7</ele>
      </trkpt>
      <trkpt lat="36.59249" lon="27.99858">
        <ele>308.9</ele>
      </trkpt>
      <trkpt lat="36.59249" lon="27.9986">
        <ele>309</ele>
      </trkpt>
      <trkpt lat="36.59248" lon="27.99861">
        <ele>309.3</ele>
      </trkpt>
      <trkpt lat="36.59249" lon="27.9986">
        <ele>309.1</ele>
      </trkpt>
      <trkpt lat="36.59249" lon="27.99861">
        <ele>309.1</ele>
      </trkpt>
      <trkpt lat="36.59251" lon="27.99867">
        <ele>309.4</ele>
      </trkpt>
      <trkpt lat="36.59251" lon="27.99871">
        <ele>309.7</ele>
      </trkpt>
      <trkpt lat="36.59253" lon="27.99874">
        <ele>309.9</ele>
      </trkpt>
      <trkpt lat="36.59255" lon="27.99878">
        <ele>310.1</ele>
      </trkpt>
      <trkpt lat="36.59256" lon="27.99878">
        <ele>310.1</ele>
      </trkpt>
      <trkpt lat="36.59257" lon="27.99881">
        <ele>310.2</ele>
      </trkpt>
      <trkpt lat="36.59259" lon="27.99884">
        <ele>310.4</ele>
      </trkpt>
      <trkpt lat="36.59261" lon="27.99886">
        <ele>310.5</ele>
      </trkpt>
      <trkpt lat="36.59261" lon="27.99891">
        <ele>310.8</ele>
      </trkpt>
      <trkpt lat="36.59261" lon="27.99897">
        <ele>311.2</ele>
      </trkpt>
      <trkpt lat="36.5926" lon="27.99902">
        <ele>311.6</ele>
      </trkpt>
      <trkpt lat="36.59261" lon="27.99906">
        <ele>311.8</ele>
      </trkpt>
      <trkpt lat="36.59258" lon="27.99911">
        <ele>312.2</ele>
      </trkpt>
      <trkpt lat="36.59258" lon="27.99913">
        <ele>312.4</ele>
      </trkpt>
      <trkpt lat="36.59258" lon="27.99914">
        <ele>312.5</ele>
      </trkpt>
      <trkpt lat="36.59258" lon="27.99915">
        <ele>312.5</ele>
      </trkpt>
      <trkpt lat="36.59256" lon="27.99919">
        <ele>313</ele>
      </trkpt>
      <trkpt lat="36.59257" lon="27.99921">
        <ele>313.2</ele>
      </trkpt>
      <trkpt lat="36.59258" lon="27.99923">
        <ele>313.5</ele>
      </trkpt>
      <trkpt lat="36.59258" lon="27.99926">
        <ele>314</ele>
      </trkpt>
      <trkpt lat="36.59257" lon="27.99927">
        <ele>314.1</ele>
      </trkpt>
      <trkpt lat="36.59256" lon="27.99928">
        <ele>314.3</ele>
      </trkpt>
      <trkpt lat="36.59256" lon="27.99928">
        <ele>314.3</ele>
      </trkpt>
      <trkpt lat="36.59257" lon="27.99931">
        <ele>314.7</ele>
      </trkpt>
      <trkpt lat="36.59256" lon="27.99933">
        <ele>315</ele>
      </trkpt>
      <trkpt lat="36.59256" lon="27.99937">
        <ele>315.6</ele>
      </trkpt>
      <trkpt lat="36.59254" lon="27.99939">
        <ele>316</ele>
      </trkpt>
      <trkpt lat="36.59253" lon="27.99939">
        <ele>316.1</ele>
      </trkpt>
      <trkpt lat="36.5925" lon="27.99943">
        <ele>316.8</ele>
      </trkpt>
      <trkpt lat="36.59247" lon="27.99946">
        <ele>317.6</ele>
      </trkpt>
      <trkpt lat="36.59246" lon="27.99946">
        <ele>317.9</ele>
      </trkpt>
      <trkpt lat="36.59242" lon="27.9995">
        <ele>318.9</ele>
      </trkpt>
      <trkpt lat="36.59239" lon="27.99956">
        <ele>320.3</ele>
      </trkpt>
      <trkpt lat="36.59237" lon="27.99959">
        <ele>320.9</ele>
      </trkpt>
      <trkpt lat="36.59236" lon="27.99964">
        <ele>321.7</ele>
      </trkpt>
      <trkpt lat="36.59235" lon="27.99965">
        <ele>321.8</ele>
      </trkpt>
      <trkpt lat="36.59235" lon="27.99968">
        <ele>322.3</ele>
      </trkpt>
      <trkpt lat="36.59234" lon="27.99968">
        <ele>322.4</ele>
      </trkpt>
      <trkpt lat="36.59231" lon="27.99971">
        <ele>323.2</ele>
      </trkpt>
      <trkpt lat="36.5923" lon="27.99971">
        <ele>323.3</ele>
      </trkpt>
      <trkpt lat="36.59226" lon="27.99973">
        <ele>323.9</ele>
      </trkpt>
      <trkpt lat="36.59223" lon="27.99974">
        <ele>324.4</ele>
      </trkpt>
      <trkpt lat="36.59221" lon="27.99977">
        <ele>325</ele>
      </trkpt>
      <trkpt lat="36.59219" lon="27.99978">
        <ele>325.3</ele>
      </trkpt>
      <trkpt lat="36.59216" lon="27.99982">
        <ele>326.1</ele>
      </trkpt>
      <trkpt lat="36.59215" lon="27.99982">
        <ele>326.2</ele>
      </trkpt>
      <trkpt lat="36.59213" lon="27.99985">
        <ele>326.7</ele>
      </trkpt>
      <trkpt lat="36.5921" lon="27.99985">
        <ele>327</ele>
      </trkpt>
      <trkpt lat="36.59206" lon="27.99984">
        <ele>327.3</ele>
      </trkpt>
      <trkpt lat="36.59202" lon="27.99987">
        <ele>328</ele>
      </trkpt>
      <trkpt lat="36.592" lon="27.99988">
        <ele>328.3</ele>
      </trkpt>
      <trkpt lat="36.59197" lon="27.99989">
        <ele>328.7</ele>
      </trkpt>
      <trkpt lat="36.59193" lon="27.9999">
        <ele>329</ele>
      </trkpt>
      <trkpt lat="36.59191" lon="27.99992">
        <ele>329.4</ele>
      </trkpt>
      <trkpt lat="36.5919" lon="27.99993">
        <ele>329.6</ele>
      </trkpt>
      <trkpt lat="36.59189" lon="27.99996">
        <ele>329.9</ele>
      </trkpt>
      <trkpt lat="36.59185" lon="27.99999">
        <ele>330.4</ele>
      </trkpt>
      <trkpt lat="36.59182" lon="28.00007">
        <ele>331</ele>
      </trkpt>
      <trkpt lat="36.59179" lon="28.00012">
        <ele>331.4</ele>
      </trkpt>
      <trkpt lat="36.59174" lon="28.00015">
        <ele>331.9</ele>
      </trkpt>
      <trkpt lat="36.5917" lon="28.00018">
        <ele>332.3</ele>
      </trkpt>
      <trkpt lat="36.59166" lon="28.00023">
        <ele>332.6</ele>
      </trkpt>
      <trkpt lat="36.59165" lon="28.00025">
        <ele>332.8</ele>
      </trkpt>
      <trkpt lat="36.5916" lon="28.00029">
        <ele>333.3</ele>
      </trkpt>
      <trkpt lat="36.59158" lon="28.00032">
        <ele>333.5</ele>
      </trkpt>
      <trkpt lat="36.59158" lon="28.00031">
        <ele>333.5</ele>
      </trkpt>
      <trkpt lat="36.59157" lon="28.00033">
        <ele>333.6</ele>
      </trkpt>
      <trkpt lat="36.59156" lon="28.00038">
        <ele>333.8</ele>
      </trkpt>
      <trkpt lat="36.59154" lon="28.00045">
        <ele>334</ele>
      </trkpt>
      <trkpt lat="36.59152" lon="28.00048">
        <ele>334.2</ele>
      </trkpt>
      <trkpt lat="36.59152" lon="28.00061">
        <ele>334.4</ele>
      </trkpt>
      <trkpt lat="36.59149" lon="28.00067">
        <ele>334.7</ele>
      </trkpt>
      <trkpt lat="36.59149" lon="28.00068">
        <ele>334.7</ele>
      </trkpt>
      <trkpt lat="36.5915" lon="28.00069">
        <ele>334.6</ele>
      </trkpt>
      <trkpt lat="36.5915" lon="28.00071">
        <ele>334.7</ele>
      </trkpt>
      <trkpt lat="36.59149" lon="28.00075">
        <ele>334.8</ele>
      </trkpt>
      <trkpt lat="36.59149" lon="28.00081">
        <ele>334.8</ele>
      </trkpt>
      <trkpt lat="36.59146" lon="28.00091">
        <ele>334.7</ele>
      </trkpt>
      <trkpt lat="36.59147" lon="28.00094">
        <ele>334.5</ele>
      </trkpt>
      <trkpt lat="36.59147" lon="28.00096">
        <ele>334.4</ele>
      </trkpt>
      <trkpt lat="36.59147" lon="28.00099">
        <ele>334.3</ele>
      </trkpt>
      <trkpt lat="36.59145" lon="28.00105">
        <ele>334.1</ele>
      </trkpt>
      <trkpt lat="36.59143" lon="28.00108">
        <ele>334.1</ele>
      </trkpt>
      <trkpt lat="36.59141" lon="28.00115">
        <ele>333.9</ele>
      </trkpt>
      <trkpt lat="36.59139" lon="28.0012">
        <ele>333.7</ele>
      </trkpt>
      <trkpt lat="36.59135" lon="28.00125">
        <ele>333.6</ele>
      </trkpt>
      <trkpt lat="36.59135" lon="28.00125">
        <ele>333.7</ele>
      </trkpt>
      <trkpt lat="36.59132" lon="28.00126">
        <ele>333.7</ele>
      </trkpt>
      <trkpt lat="36.5913" lon="28.00129">
        <ele>333.6</ele>
      </trkpt>
      <trkpt lat="36.5913" lon="28.0013">
        <ele>333.6</ele>
      </trkpt>
      <trkpt lat="36.5913" lon="28.00137">
        <ele>333.3</ele>
      </trkpt>
      <trkpt lat="36.59128" lon="28.0014">
        <ele>333.2</ele>
      </trkpt>
      <trkpt lat="36.59127" lon="28.00144">
        <ele>333</ele>
      </trkpt>
      <trkpt lat="36.59125" lon="28.00148">
        <ele>332.9</ele>
      </trkpt>
      <trkpt lat="36.59124" lon="28.0015">
        <ele>332.8</ele>
      </trkpt>
      <trkpt lat="36.59122" lon="28.00151">
        <ele>332.9</ele>
      </trkpt>
      <trkpt lat="36.59119" lon="28.00155">
        <ele>332.7</ele>
      </trkpt>
      <trkpt lat="36.59119" lon="28.00157">
        <ele>332.6</ele>
      </trkpt>
      <trkpt lat="36.59119" lon="28.0016">
        <ele>332.5</ele>
      </trkpt>
      <trkpt lat="36.59119" lon="28.00163">
        <ele>332.3</ele>
      </trkpt>
      <trkpt lat="36.59116" lon="28.00169">
        <ele>332.3</ele>
      </trkpt>
      <trkpt lat="36.59116" lon="28.00182">
        <ele>332.7</ele>
      </trkpt>
      <trkpt lat="36.59116" lon="28.00187">
        <ele>332.9</ele>
      </trkpt>
      <trkpt lat="36.59116" lon="28.00191">
        <ele>333</ele>
      </trkpt>
      <trkpt lat="36.59115" lon="28.00196">
        <ele>333.2</ele>
      </trkpt>
      <trkpt lat="36.59115" lon="28.002">
        <ele>333.3</ele>
      </trkpt>
      <trkpt lat="36.59115" lon="28.00203">
        <ele>333.4</ele>
      </trkpt>
      <trkpt lat="36.59116" lon="28.00207">
        <ele>333.5</ele>
      </trkpt>
      <trkpt lat="36.59115" lon="28.0021">
        <ele>333.6</ele>
      </trkpt>
      <trkpt lat="36.59116" lon="28.00218">
        <ele>333.9</ele>
      </trkpt>
      <trkpt lat="36.59116" lon="28.0022">
        <ele>334</ele>
      </trkpt>
      <trkpt lat="36.59116" lon="28.00221">
        <ele>334</ele>
      </trkpt>
      <trkpt lat="36.59115" lon="28.00225">
        <ele>334.1</ele>
      </trkpt>
      <trkpt lat="36.59114" lon="28.00226">
        <ele>334.1</ele>
      </trkpt>
      <trkpt lat="36.59114" lon="28.00225">
        <ele>334.1</ele>
      </trkpt>
      <trkpt lat="36.59113" lon="28.00225">
        <ele>334</ele>
      </trkpt>
      <trkpt lat="36.59113" lon="28.00227">
        <ele>334.1</ele>
      </trkpt>
      <trkpt lat="36.59113" lon="28.00228">
        <ele>334.1</ele>
      </trkpt>
      <trkpt lat="36.59114" lon="28.00231">
        <ele>334.2</ele>
      </trkpt>
      <trkpt lat="36.59114" lon="28.00233">
        <ele>334.3</ele>
      </trkpt>
      <trkpt lat="36.59116" lon="28.00237">
        <ele>334.5</ele>
      </trkpt>
      <trkpt lat="36.59118" lon="28.00241">
        <ele>334.7</ele>
      </trkpt>
      <trkpt lat="36.59118" lon="28.00244">
        <ele>334.9</ele>
      </trkpt>
      <trkpt lat="36.59117" lon="28.00249">
        <ele>335</ele>
      </trkpt>
      <trkpt lat="36.59117" lon="28.00251">
        <ele>335</ele>
      </trkpt>
      <trkpt lat="36.59117" lon="28.00255">
        <ele>334.9</ele>
      </trkpt>
      <trkpt lat="36.59117" lon="28.00257">
        <ele>334.8</ele>
      </trkpt>
      <trkpt lat="36.59119" lon="28.00262">
        <ele>334.7</ele>
      </trkpt>
      <trkpt lat="36.5912" lon="28.00265">
        <ele>334.7</ele>
      </trkpt>
      <trkpt lat="36.59123" lon="28.00272">
        <ele>334.6</ele>
      </trkpt>
      <trkpt lat="36.59124" lon="28.00274">
        <ele>334.6</ele>
      </trkpt>
      <trkpt lat="36.59124" lon="28.00274">
        <ele>334.6</ele>
      </trkpt>
      <trkpt lat="36.59124" lon="28.00275">
        <ele>334.5</ele>
      </trkpt>
      <trkpt lat="36.59125" lon="28.00277">
        <ele>334.5</ele>
      </trkpt>
      <trkpt lat="36.59128" lon="28.0028">
        <ele>334.6</ele>
      </trkpt>
      <trkpt lat="36.59128" lon="28.00282">
        <ele>334.5</ele>
      </trkpt>
      <trkpt lat="36.59132" lon="28.00288">
        <ele>334.5</ele>
      </trkpt>
      <trkpt lat="36.59136" lon="28.00299">
        <ele>334.3</ele>
      </trkpt>
      <trkpt lat="36.59137" lon="28.003">
        <ele>334.3</ele>
      </trkpt>
      <trkpt lat="36.59141" lon="28.00307">
        <ele>334.2</ele>
      </trkpt>
      <trkpt lat="36.59144" lon="28.0031">
        <ele>334.2</ele>
      </trkpt>
      <trkpt lat="36.59146" lon="28.00311">
        <ele>334.2</ele>
      </trkpt>
      <trkpt lat="36.59148" lon="28.00316">
        <ele>334.1</ele>
      </trkpt>
      <trkpt lat="36.59149" lon="28.00316">
        <ele>334.1</ele>
      </trkpt>
      <trkpt lat="36.59148" lon="28.00317">
        <ele>334</ele>
      </trkpt>
      <trkpt lat="36.59149" lon="28.00319">
        <ele>334</ele>
      </trkpt>
      <trkpt lat="36.59153" lon="28.00324">
        <ele>334</ele>
      </trkpt>
      <trkpt lat="36.59155" lon="28.00326">
        <ele>333.9</ele>
      </trkpt>
      <trkpt lat="36.59159" lon="28.00331">
        <ele>333.8</ele>
      </trkpt>
      <trkpt lat="36.5916" lon="28.00334">
        <ele>333.8</ele>
      </trkpt>
      <trkpt lat="36.59165" lon="28.00339">
        <ele>333.8</ele>
      </trkpt>
      <trkpt lat="36.59166" lon="28.00343">
        <ele>333.8</ele>
      </trkpt>
      <trkpt lat="36.59167" lon="28.00345">
        <ele>333.8</ele>
      </trkpt>
      <trkpt lat="36.59167" lon="28.00347">
        <ele>333.7</ele>
      </trkpt>
      <trkpt lat="36.59167" lon="28.00351">
        <ele>333.6</ele>
      </trkpt>
      <trkpt lat="36.59166" lon="28.00357">
        <ele>333.4</ele>
      </trkpt>
      <trkpt lat="36.59166" lon="28.00359">
        <ele>333.4</ele>
      </trkpt>
      <trkpt lat="36.59168" lon="28.00368">
        <ele>333.3</ele>
      </trkpt>
      <trkpt lat="36.5917" lon="28.00376">
        <ele>333.2</ele>
      </trkpt>
      <trkpt lat="36.59171" lon="28.0038">
        <ele>333.1</ele>
      </trkpt>
      <trkpt lat="36.59172" lon="28.00382">
        <ele>333.1</ele>
      </trkpt>
      <trkpt lat="36.59173" lon="28.00389">
        <ele>333</ele>
      </trkpt>
      <trkpt lat="36.59174" lon="28.00392">
        <ele>333</ele>
      </trkpt>
      <trkpt lat="36.59175" lon="28.00394">
        <ele>333</ele>
      </trkpt>
      <trkpt lat="36.59177" lon="28.00396">
        <ele>333</ele>
      </trkpt>
      <trkpt lat="36.59177" lon="28.00398">
        <ele>333</ele>
      </trkpt>
      <trkpt lat="36.59177" lon="28.00398">
        <ele>332.9</ele>
      </trkpt>
      <trkpt lat="36.59177" lon="28.004">
        <ele>332.9</ele>
      </trkpt>
      <trkpt lat="36.59179" lon="28.00403">
        <ele>332.9</ele>
      </trkpt>
      <trkpt lat="36.5918" lon="28.00405">
        <ele>333</ele>
      </trkpt>
      <trkpt lat="36.59184" lon="28.00409">
        <ele>333</ele>
      </trkpt>
      <trkpt lat="36.59185" lon="28.00411">
        <ele>333</ele>
      </trkpt>
      <trkpt lat="36.59187" lon="28.00415">
        <ele>333</ele>
      </trkpt>
      <trkpt lat="36.59188" lon="28.00418">
        <ele>333</ele>
      </trkpt>
      <trkpt lat="36.59189" lon="28.00423">
        <ele>333.1</ele>
      </trkpt>
      <trkpt lat="36.59191" lon="28.0043">
        <ele>333.3</ele>
      </trkpt>
      <trkpt lat="36.59192" lon="28.00432">
        <ele>333.4</ele>
      </trkpt>
      <trkpt lat="36.59195" lon="28.00436">
        <ele>333.6</ele>
      </trkpt>
      <trkpt lat="36.59199" lon="28.0044">
        <ele>333.8</ele>
      </trkpt>
      <trkpt lat="36.59202" lon="28.0045">
        <ele>334.1</ele>
      </trkpt>
      <trkpt lat="36.59202" lon="28.00454">
        <ele>334.1</ele>
      </trkpt>
      <trkpt lat="36.59203" lon="28.0046">
        <ele>334.2</ele>
      </trkpt>
      <trkpt lat="36.59204" lon="28.00463">
        <ele>334.4</ele>
      </trkpt>
      <trkpt lat="36.59204" lon="28.00465">
        <ele>334.4</ele>
      </trkpt>
      <trkpt lat="36.59204" lon="28.00468">
        <ele>334.4</ele>
      </trkpt>
      <trkpt lat="36.59205" lon="28.00469">
        <ele>334.5</ele>
      </trkpt>
      <trkpt lat="36.59205" lon="28.0047">
        <ele>334.5</ele>
      </trkpt>
      <trkpt lat="36.59204" lon="28.00474">
        <ele>334.5</ele>
      </trkpt>
      <trkpt lat="36.59204" lon="28.00476">
        <ele>334.5</ele>
      </trkpt>
      <trkpt lat="36.59206" lon="28.00485">
        <ele>334.7</ele>
      </trkpt>
      <trkpt lat="36.59206" lon="28.00485">
        <ele>334.7</ele>
      </trkpt>
      <trkpt lat="36.59206" lon="28.00487">
        <ele>334.7</ele>
      </trkpt>
      <trkpt lat="36.59206" lon="28.00487">
        <ele>334.7</ele>
      </trkpt>
      <trkpt lat="36.59207" lon="28.0049">
        <ele>334.8</ele>
      </trkpt>
      <trkpt lat="36.59207" lon="28.00495">
        <ele>334.9</ele>
      </trkpt>
      <trkpt lat="36.59209" lon="28.005">
        <ele>335</ele>
      </trkpt>
      <trkpt lat="36.5921" lon="28.00505">
        <ele>335.2</ele>
      </trkpt>
      <trkpt lat="36.5921" lon="28.00506">
        <ele>335.3</ele>
      </trkpt>
      <trkpt lat="36.5921" lon="28.00506">
        <ele>335.2</ele>
      </trkpt>
      <trkpt lat="36.5921" lon="28.00509">
        <ele>335.3</ele>
      </trkpt>
      <trkpt lat="36.59213" lon="28.00515">
        <ele>335.7</ele>
      </trkpt>
      <trkpt lat="36.59214" lon="28.0052">
        <ele>335.9</ele>
      </trkpt>
      <trkpt lat="36.59214" lon="28.00522">
        <ele>336</ele>
      </trkpt>
      <trkpt lat="36.59216" lon="28.00526">
        <ele>336.2</ele>
      </trkpt>
      <trkpt lat="36.59217" lon="28.0053">
        <ele>336.4</ele>
      </trkpt>
      <trkpt lat="36.59218" lon="28.00531">
        <ele>336.4</ele>
      </trkpt>
      <trkpt lat="36.59218" lon="28.00535">
        <ele>336.6</ele>
      </trkpt>
      <trkpt lat="36.59218" lon="28.00536">
        <ele>336.6</ele>
      </trkpt>
      <trkpt lat="36.59219" lon="28.0054">
        <ele>336.8</ele>
      </trkpt>
      <trkpt lat="36.59219" lon="28.00545">
        <ele>336.9</ele>
      </trkpt>
      <trkpt lat="36.5922" lon="28.0055">
        <ele>337.1</ele>
      </trkpt>
      <trkpt lat="36.5922" lon="28.00557">
        <ele>337.4</ele>
      </trkpt>
      <trkpt lat="36.5922" lon="28.00559">
        <ele>337.4</ele>
      </trkpt>
      <trkpt lat="36.59219" lon="28.00563">
        <ele>337.5</ele>
      </trkpt>
      <trkpt lat="36.5922" lon="28.00566">
        <ele>337.6</ele>
      </trkpt>
      <trkpt lat="36.5922" lon="28.00567">
        <ele>337.6</ele>
      </trkpt>
      <trkpt lat="36.59219" lon="28.00569">
        <ele>337.7</ele>
      </trkpt>
      <trkpt lat="36.59215" lon="28.00571">
        <ele>337.5</ele>
      </trkpt>
      <trkpt lat="36.59214" lon="28.00577">
        <ele>337.7</ele>
      </trkpt>
      <trkpt lat="36.59215" lon="28.00581">
        <ele>337.8</ele>
      </trkpt>
      <trkpt lat="36.59215" lon="28.00583">
        <ele>337.9</ele>
      </trkpt>
      <trkpt lat="36.59217" lon="28.00588">
        <ele>338.3</ele>
      </trkpt>
      <trkpt lat="36.59218" lon="28.0059">
        <ele>338.5</ele>
      </trkpt>
      <trkpt lat="36.59218" lon="28.00591">
        <ele>338.5</ele>
      </trkpt>
      <trkpt lat="36.59217" lon="28.00593">
        <ele>338.6</ele>
      </trkpt>
      <trkpt lat="36.59218" lon="28.00594">
        <ele>338.8</ele>
      </trkpt>
      <trkpt lat="36.59221" lon="28.006">
        <ele>339.3</ele>
      </trkpt>
      <trkpt lat="36.5922" lon="28.00606">
        <ele>339.7</ele>
      </trkpt>
      <trkpt lat="36.5922" lon="28.00607">
        <ele>339.7</ele>
      </trkpt>
      <trkpt lat="36.59219" lon="28.00613">
        <ele>340.1</ele>
      </trkpt>
      <trkpt lat="36.5922" lon="28.00618">
        <ele>340.4</ele>
      </trkpt>
      <trkpt lat="36.59221" lon="28.00622">
        <ele>340.7</ele>
      </trkpt>
      <trkpt lat="36.59222" lon="28.00624">
        <ele>340.9</ele>
      </trkpt>
      <trkpt lat="36.59224" lon="28.00626">
        <ele>341.2</ele>
      </trkpt>
      <trkpt lat="36.59226" lon="28.00632">
        <ele>341.6</ele>
      </trkpt>
      <trkpt lat="36.59226" lon="28.00635">
        <ele>341.9</ele>
      </trkpt>
      <trkpt lat="36.59226" lon="28.00635">
        <ele>341.8</ele>
      </trkpt>
      <trkpt lat="36.59227" lon="28.00636">
        <ele>342</ele>
      </trkpt>
      <trkpt lat="36.59229" lon="28.0064">
        <ele>342.3</ele>
      </trkpt>
      <trkpt lat="36.59229" lon="28.00645">
        <ele>342.6</ele>
      </trkpt>
      <trkpt lat="36.5923" lon="28.00649">
        <ele>343</ele>
      </trkpt>
      <trkpt lat="36.59232" lon="28.00653">
        <ele>343.2</ele>
      </trkpt>
      <trkpt lat="36.59233" lon="28.00661">
        <ele>343.8</ele>
      </trkpt>
      <trkpt lat="36.59233" lon="28.00663">
        <ele>344</ele>
      </trkpt>
      <trkpt lat="36.59235" lon="28.00668">
        <ele>344.3</ele>
      </trkpt>
      <trkpt lat="36.59238" lon="28.00674">
        <ele>344.8</ele>
      </trkpt>
      <trkpt lat="36.59241" lon="28.00682">
        <ele>345.4</ele>
      </trkpt>
      <trkpt lat="36.59242" lon="28.00684">
        <ele>345.5</ele>
      </trkpt>
      <trkpt lat="36.59245" lon="28.00692">
        <ele>346</ele>
      </trkpt>
      <trkpt lat="36.59248" lon="28.00699">
        <ele>346.5</ele>
      </trkpt>
      <trkpt lat="36.59251" lon="28.00704">
        <ele>346.7</ele>
      </trkpt>
      <trkpt lat="36.5925" lon="28.00705">
        <ele>346.8</ele>
      </trkpt>
      <trkpt lat="36.59252" lon="28.00713">
        <ele>347</ele>
      </trkpt>
      <trkpt lat="36.59252" lon="28.00715">
        <ele>347</ele>
      </trkpt>
      <trkpt lat="36.59253" lon="28.00716">
        <ele>347</ele>
      </trkpt>
      <trkpt lat="36.59253" lon="28.00716">
        <ele>347</ele>
      </trkpt>
      <trkpt lat="36.59253" lon="28.00717">
        <ele>347</ele>
      </trkpt>
      <trkpt lat="36.59256" lon="28.00724">
        <ele>346.9</ele>
      </trkpt>
      <trkpt lat="36.59257" lon="28.0073">
        <ele>346.9</ele>
      </trkpt>
      <trkpt lat="36.59257" lon="28.00733">
        <ele>347</ele>
      </trkpt>
      <trkpt lat="36.59259" lon="28.00738">
        <ele>346.9</ele>
      </trkpt>
      <trkpt lat="36.5926" lon="28.0074">
        <ele>346.7</ele>
      </trkpt>
      <trkpt lat="36.59263" lon="28.00749">
        <ele>346.5</ele>
      </trkpt>
      <trkpt lat="36.59264" lon="28.00755">
        <ele>346.6</ele>
      </trkpt>
      <trkpt lat="36.59263" lon="28.00759">
        <ele>346.8</ele>
      </trkpt>
      <trkpt lat="36.59264" lon="28.00765">
        <ele>346.8</ele>
      </trkpt>
      <trkpt lat="36.59265" lon="28.00771">
        <ele>346.8</ele>
      </trkpt>
      <trkpt lat="36.59266" lon="28.00775">
        <ele>346.8</ele>
      </trkpt>
      <trkpt lat="36.59265" lon="28.00774">
        <ele>346.8</ele>
      </trkpt>
      <trkpt lat="36.59267" lon="28.00779">
        <ele>346.6</ele>
      </trkpt>
      <trkpt lat="36.59268" lon="28.00783">
        <ele>346.5</ele>
      </trkpt>
      <trkpt lat="36.59268" lon="28.00785">
        <ele>346.6</ele>
      </trkpt>
      <trkpt lat="36.59269" lon="28.00788">
        <ele>346.5</ele>
      </trkpt>
      <trkpt lat="36.59269" lon="28.0079">
        <ele>346.5</ele>
      </trkpt>
      <trkpt lat="36.5927" lon="28.00793">
        <ele>346.4</ele>
      </trkpt>
      <trkpt lat="36.5927" lon="28.00796">
        <ele>346.5</ele>
      </trkpt>
      <trkpt lat="36.5927" lon="28.008">
        <ele>346.5</ele>
      </trkpt>
      <trkpt lat="36.5927" lon="28.00801">
        <ele>346.6</ele>
      </trkpt>
      <trkpt lat="36.59269" lon="28.00801">
        <ele>346.7</ele>
      </trkpt>
      <trkpt lat="36.5927" lon="28.00804">
        <ele>346.8</ele>
      </trkpt>
      <trkpt lat="36.59269" lon="28.00807">
        <ele>347</ele>
      </trkpt>
      <trkpt lat="36.5927" lon="28.0081">
        <ele>346.8</ele>
      </trkpt>
      <trkpt lat="36.59271" lon="28.00815">
        <ele>346.7</ele>
      </trkpt>
      <trkpt lat="36.59272" lon="28.00816">
        <ele>346.5</ele>
      </trkpt>
      <trkpt lat="36.5927" lon="28.00817">
        <ele>346.9</ele>
      </trkpt>
      <trkpt lat="36.59276" lon="28.00833">
        <ele>345.7</ele>
      </trkpt>
      <trkpt lat="36.59279" lon="28.00836">
        <ele>345.1</ele>
      </trkpt>
      <trkpt lat="36.59281" lon="28.00837">
        <ele>344.6</ele>
      </trkpt>
      <trkpt lat="36.59283" lon="28.00839">
        <ele>344.1</ele>
      </trkpt>
      <trkpt lat="36.59285" lon="28.00842">
        <ele>343.8</ele>
      </trkpt>
      <trkpt lat="36.59288" lon="28.00842">
        <ele>343</ele>
      </trkpt>
      <trkpt lat="36.5929" lon="28.00843">
        <ele>342.3</ele>
      </trkpt>
      <trkpt lat="36.5929" lon="28.00843">
        <ele>342.3</ele>
      </trkpt>
      <trkpt lat="36.59292" lon="28.00846">
        <ele>342</ele>
      </trkpt>
      <trkpt lat="36.59295" lon="28.00851">
        <ele>341.4</ele>
      </trkpt>
      <trkpt lat="36.59298" lon="28.00856">
        <ele>340.9</ele>
      </trkpt>
      <trkpt lat="36.593" lon="28.0086">
        <ele>340.3</ele>
      </trkpt>
      <trkpt lat="36.593" lon="28.0086">
        <ele>340.3</ele>
      </trkpt>
      <trkpt lat="36.59301" lon="28.00863">
        <ele>340.2</ele>
      </trkpt>
      <trkpt lat="36.59302" lon="28.00865">
        <ele>340</ele>
      </trkpt>
      <trkpt lat="36.59305" lon="28.00871">
        <ele>339.8</ele>
      </trkpt>
      <trkpt lat="36.59307" lon="28.00874">
        <ele>339.4</ele>
      </trkpt>
      <trkpt lat="36.59308" lon="28.00879">
        <ele>339.1</ele>
      </trkpt>
      <trkpt lat="36.5931" lon="28.00882">
        <ele>338.8</ele>
      </trkpt>
      <trkpt lat="36.59311" lon="28.00885">
        <ele>338.7</ele>
      </trkpt>
      <trkpt lat="36.59312" lon="28.00888">
        <ele>338.7</ele>
      </trkpt>
      <trkpt lat="36.59314" lon="28.00889">
        <ele>338.3</ele>
      </trkpt>
      <trkpt lat="36.59317" lon="28.00892">
        <ele>337.7</ele>
      </trkpt>
      <trkpt lat="36.59319" lon="28.00896">
        <ele>337.4</ele>
      </trkpt>
      <trkpt lat="36.59322" lon="28.009">
        <ele>336.9</ele>
      </trkpt>
      <trkpt lat="36.59323" lon="28.009">
        <ele>336.5</ele>
      </trkpt>
      <trkpt lat="36.59325" lon="28.009">
        <ele>336</ele>
      </trkpt>
      <trkpt lat="36.59328" lon="28.009">
        <ele>335.4</ele>
      </trkpt>
      <trkpt lat="36.59328" lon="28.009">
        <ele>335.4</ele>
      </trkpt>
      <trkpt lat="36.59328" lon="28.00901">
        <ele>335.4</ele>
      </trkpt>
      <trkpt lat="36.59331" lon="28.00904">
        <ele>334.7</ele>
      </trkpt>
      <trkpt lat="36.59333" lon="28.00908">
        <ele>334.7</ele>
      </trkpt>
      <trkpt lat="36.59335" lon="28.00911">
        <ele>334.3</ele>
      </trkpt>
      <trkpt lat="36.59336" lon="28.00914">
        <ele>334.3</ele>
      </trkpt>
      <trkpt lat="36.59336" lon="28.00916">
        <ele>334.4</ele>
      </trkpt>
      <trkpt lat="36.59339" lon="28.00917">
        <ele>333.8</ele>
      </trkpt>
      <trkpt lat="36.59339" lon="28.00918">
        <ele>333.6</ele>
      </trkpt>
      <trkpt lat="36.59341" lon="28.00919">
        <ele>333.3</ele>
      </trkpt>
      <trkpt lat="36.59342" lon="28.00923">
        <ele>332.9</ele>
      </trkpt>
      <trkpt lat="36.59342" lon="28.00924">
        <ele>332.9</ele>
      </trkpt>
      <trkpt lat="36.59345" lon="28.0093">
        <ele>332.3</ele>
      </trkpt>
      <trkpt lat="36.59347" lon="28.00939">
        <ele>331.7</ele>
      </trkpt>
      <trkpt lat="36.59351" lon="28.00944">
        <ele>330.8</ele>
      </trkpt>
      <trkpt lat="36.59352" lon="28.00945">
        <ele>330.6</ele>
      </trkpt>
      <trkpt lat="36.59353" lon="28.00948">
        <ele>330.3</ele>
      </trkpt>
      <trkpt lat="36.59354" lon="28.00953">
        <ele>329.9</ele>
      </trkpt>
      <trkpt lat="36.59356" lon="28.00957">
        <ele>329.4</ele>
      </trkpt>
      <trkpt lat="36.5936" lon="28.00965">
        <ele>328.5</ele>
      </trkpt>
      <trkpt lat="36.59361" lon="28.0097">
        <ele>328.4</ele>
      </trkpt>
      <trkpt lat="36.59361" lon="28.00972">
        <ele>328.3</ele>
      </trkpt>
      <trkpt lat="36.5936" lon="28.00974">
        <ele>328.4</ele>
      </trkpt>
      <trkpt lat="36.59362" lon="28.0098">
        <ele>327.9</ele>
      </trkpt>
      <trkpt lat="36.59364" lon="28.00986">
        <ele>327.5</ele>
      </trkpt>
      <trkpt lat="36.59364" lon="28.00987">
        <ele>327.5</ele>
      </trkpt>
      <trkpt lat="36.59364" lon="28.00991">
        <ele>327.4</ele>
      </trkpt>
      <trkpt lat="36.59365" lon="28.00991">
        <ele>327.3</ele>
      </trkpt>
      <trkpt lat="36.59365" lon="28.00994">
        <ele>327.2</ele>
      </trkpt>
      <trkpt lat="36.59366" lon="28.00998">
        <ele>326.9</ele>
      </trkpt>
      <trkpt lat="36.59367" lon="28.01003">
        <ele>326.2</ele>
      </trkpt>
      <trkpt lat="36.59368" lon="28.01004">
        <ele>326</ele>
      </trkpt>
      <trkpt lat="36.59364" lon="28.01012">
        <ele>325.6</ele>
      </trkpt>
      <trkpt lat="36.59363" lon="28.01017">
        <ele>325.3</ele>
      </trkpt>
      <trkpt lat="36.59362" lon="28.01019">
        <ele>325.1</ele>
      </trkpt>
      <trkpt lat="36.59359" lon="28.01025">
        <ele>324.8</ele>
      </trkpt>
      <trkpt lat="36.59358" lon="28.0103">
        <ele>324.5</ele>
      </trkpt>
      <trkpt lat="36.59359" lon="28.01032">
        <ele>324.1</ele>
      </trkpt>
      <trkpt lat="36.59359" lon="28.01034">
        <ele>323.6</ele>
      </trkpt>
      <trkpt lat="36.59359" lon="28.01034">
        <ele>323.6</ele>
      </trkpt>
      <trkpt lat="36.59359" lon="28.01036">
        <ele>323.4</ele>
      </trkpt>
      <trkpt lat="36.59358" lon="28.01043">
        <ele>322.6</ele>
      </trkpt>
      <trkpt lat="36.59358" lon="28.01045">
        <ele>322.2</ele>
      </trkpt>
      <trkpt lat="36.59358" lon="28.0105">
        <ele>321.6</ele>
      </trkpt>
      <trkpt lat="36.59358" lon="28.01053">
        <ele>321.3</ele>
      </trkpt>
      <trkpt lat="36.59358" lon="28.01056">
        <ele>320.8</ele>
      </trkpt>
      <trkpt lat="36.59359" lon="28.0106">
        <ele>320</ele>
      </trkpt>
      <trkpt lat="36.59359" lon="28.01062">
        <ele>319.7</ele>
      </trkpt>
      <trkpt lat="36.59359" lon="28.01064">
        <ele>319.4</ele>
      </trkpt>
      <trkpt lat="36.5936" lon="28.01067">
        <ele>318.9</ele>
      </trkpt>
      <trkpt lat="36.59358" lon="28.01068">
        <ele>319.1</ele>
      </trkpt>
      <trkpt lat="36.59358" lon="28.01068">
        <ele>319.1</ele>
      </trkpt>
      <trkpt lat="36.59357" lon="28.0107">
        <ele>319</ele>
      </trkpt>
      <trkpt lat="36.59354" lon="28.01076">
        <ele>318.7</ele>
      </trkpt>
      <trkpt lat="36.59353" lon="28.01084">
        <ele>317.9</ele>
      </trkpt>
      <trkpt lat="36.59354" lon="28.01087">
        <ele>317.5</ele>
      </trkpt>
      <trkpt lat="36.59353" lon="28.01089">
        <ele>317.3</ele>
      </trkpt>
      <trkpt lat="36.59354" lon="28.01094">
        <ele>316.6</ele>
      </trkpt>
      <trkpt lat="36.59353" lon="28.01096">
        <ele>316.5</ele>
      </trkpt>
      <trkpt lat="36.59354" lon="28.01101">
        <ele>315.9</ele>
      </trkpt>
      <trkpt lat="36.59354" lon="28.01103">
        <ele>315.6</ele>
      </trkpt>
      <trkpt lat="36.59355" lon="28.01106">
        <ele>315.1</ele>
      </trkpt>
      <trkpt lat="36.59355" lon="28.01107">
        <ele>315</ele>
      </trkpt>
      <trkpt lat="36.59354" lon="28.01109">
        <ele>314.9</ele>
      </trkpt>
      <trkpt lat="36.59353" lon="28.01112">
        <ele>314.8</ele>
      </trkpt>
      <trkpt lat="36.59354" lon="28.01114">
        <ele>314.4</ele>
      </trkpt>
      <trkpt lat="36.59355" lon="28.0112">
        <ele>313.6</ele>
      </trkpt>
      <trkpt lat="36.59355" lon="28.01121">
        <ele>313.5</ele>
      </trkpt>
      <trkpt lat="36.59357" lon="28.01125">
        <ele>312.7</ele>
      </trkpt>
      <trkpt lat="36.59357" lon="28.01133">
        <ele>311.7</ele>
      </trkpt>
      <trkpt lat="36.59358" lon="28.01137">
        <ele>311.1</ele>
      </trkpt>
      <trkpt lat="36.59357" lon="28.01144">
        <ele>310.5</ele>
      </trkpt>
      <trkpt lat="36.59358" lon="28.01147">
        <ele>310.1</ele>
      </trkpt>
      <trkpt lat="36.59357" lon="28.01149">
        <ele>310.1</ele>
      </trkpt>
      <trkpt lat="36.59356" lon="28.01152">
        <ele>309.7</ele>
      </trkpt>
      <trkpt lat="36.59357" lon="28.01154">
        <ele>309.4</ele>
      </trkpt>
      <trkpt lat="36.59358" lon="28.01157">
        <ele>309</ele>
      </trkpt>
      <trkpt lat="36.59357" lon="28.01159">
        <ele>308.9</ele>
      </trkpt>
      <trkpt lat="36.59357" lon="28.01164">
        <ele>308.3</ele>
      </trkpt>
      <trkpt lat="36.59355" lon="28.01169">
        <ele>308.2</ele>
      </trkpt>
      <trkpt lat="36.59355" lon="28.01174">
        <ele>307.8</ele>
      </trkpt>
      <trkpt lat="36.59354" lon="28.01178">
        <ele>307.6</ele>
      </trkpt>
      <trkpt lat="36.59356" lon="28.01184">
        <ele>306.9</ele>
      </trkpt>
      <trkpt lat="36.59356" lon="28.01188">
        <ele>306.6</ele>
      </trkpt>
      <trkpt lat="36.59356" lon="28.01189">
        <ele>306.4</ele>
      </trkpt>
      <trkpt lat="36.59356" lon="28.01189">
        <ele>306.4</ele>
      </trkpt>
      <trkpt lat="36.59356" lon="28.0119">
        <ele>306.3</ele>
      </trkpt>
      <trkpt lat="36.59355" lon="28.01192">
        <ele>306.3</ele>
      </trkpt>
      <trkpt lat="36.59356" lon="28.01195">
        <ele>305.9</ele>
      </trkpt>
      <trkpt lat="36.59357" lon="28.012">
        <ele>305.5</ele>
      </trkpt>
      <trkpt lat="36.59357" lon="28.01205">
        <ele>305</ele>
      </trkpt>
      <trkpt lat="36.59358" lon="28.01207">
        <ele>304.8</ele>
      </trkpt>
      <trkpt lat="36.5936" lon="28.01211">
        <ele>304.3</ele>
      </trkpt>
      <trkpt lat="36.59361" lon="28.01212">
        <ele>304.1</ele>
      </trkpt>
      <trkpt lat="36.59361" lon="28.01217">
        <ele>303.7</ele>
      </trkpt>
      <trkpt lat="36.59363" lon="28.01222">
        <ele>303.2</ele>
      </trkpt>
      <trkpt lat="36.59363" lon="28.01225">
        <ele>302.9</ele>
      </trkpt>
      <trkpt lat="36.59363" lon="28.01226">
        <ele>302.9</ele>
      </trkpt>
      <trkpt lat="36.59363" lon="28.01228">
        <ele>302.8</ele>
      </trkpt>
      <trkpt lat="36.59363" lon="28.01228">
        <ele>302.8</ele>
      </trkpt>
      <trkpt lat="36.59366" lon="28.01231">
        <ele>302.3</ele>
      </trkpt>
      <trkpt lat="36.59367" lon="28.01236">
        <ele>301.9</ele>
      </trkpt>
      <trkpt lat="36.59369" lon="28.0124">
        <ele>301.5</ele>
      </trkpt>
      <trkpt lat="36.59369" lon="28.01242">
        <ele>301.4</ele>
      </trkpt>
      <trkpt lat="36.5937" lon="28.01247">
        <ele>301</ele>
      </trkpt>
      <trkpt lat="36.59371" lon="28.01249">
        <ele>300.8</ele>
      </trkpt>
      <trkpt lat="36.5937" lon="28.01253">
        <ele>300.5</ele>
      </trkpt>
      <trkpt lat="36.5937" lon="28.01255">
        <ele>300.5</ele>
      </trkpt>
      <trkpt lat="36.59372" lon="28.0126">
        <ele>300</ele>
      </trkpt>
      <trkpt lat="36.59373" lon="28.01261">
        <ele>299.8</ele>
      </trkpt>
      <trkpt lat="36.59373" lon="28.01261">
        <ele>299.8</ele>
      </trkpt>
      <trkpt lat="36.59374" lon="28.01264">
        <ele>299.6</ele>
      </trkpt>
      <trkpt lat="36.59375" lon="28.0127">
        <ele>299.1</ele>
      </trkpt>
      <trkpt lat="36.59375" lon="28.01275">
        <ele>298.7</ele>
      </trkpt>
      <trkpt lat="36.59374" lon="28.01279">
        <ele>298.5</ele>
      </trkpt>
      <trkpt lat="36.59374" lon="28.01279">
        <ele>298.5</ele>
      </trkpt>
      <trkpt lat="36.59373" lon="28.01279">
        <ele>298.5</ele>
      </trkpt>
      <trkpt lat="36.59374" lon="28.0128">
        <ele>298.4</ele>
      </trkpt>
      <trkpt lat="36.59375" lon="28.01286">
        <ele>297.9</ele>
      </trkpt>
      <trkpt lat="36.59374" lon="28.01289">
        <ele>297.7</ele>
      </trkpt>
      <trkpt lat="36.59374" lon="28.01292">
        <ele>297.5</ele>
      </trkpt>
      <trkpt lat="36.59373" lon="28.013">
        <ele>297</ele>
      </trkpt>
      <trkpt lat="36.59372" lon="28.01306">
        <ele>296.6</ele>
      </trkpt>
      <trkpt lat="36.59371" lon="28.01311">
        <ele>296.3</ele>
      </trkpt>
      <trkpt lat="36.5937" lon="28.01313">
        <ele>296.2</ele>
      </trkpt>
      <trkpt lat="36.5937" lon="28.01314">
        <ele>296.1</ele>
      </trkpt>
      <trkpt lat="36.5937" lon="28.01316">
        <ele>296</ele>
      </trkpt>
      <trkpt lat="36.59367" lon="28.01317">
        <ele>296</ele>
      </trkpt>
      <trkpt lat="36.59366" lon="28.0132">
        <ele>295.8</ele>
      </trkpt>
      <trkpt lat="36.59365" lon="28.01323">
        <ele>295.6</ele>
      </trkpt>
      <trkpt lat="36.59357" lon="28.0133">
        <ele>295.4</ele>
      </trkpt>
      <trkpt lat="36.59357" lon="28.01331">
        <ele>295.4</ele>
      </trkpt>
      <trkpt lat="36.59355" lon="28.01333">
        <ele>295.3</ele>
      </trkpt>
      <trkpt lat="36.59353" lon="28.01337">
        <ele>294.5</ele>
      </trkpt>
      <trkpt lat="36.59352" lon="28.01339">
        <ele>294.2</ele>
      </trkpt>
      <trkpt lat="36.59352" lon="28.01345">
        <ele>293.1</ele>
      </trkpt>
      <trkpt lat="36.59352" lon="28.01346">
        <ele>292.9</ele>
      </trkpt>
      <trkpt lat="36.59351" lon="28.0135">
        <ele>292.3</ele>
      </trkpt>
      <trkpt lat="36.5935" lon="28.01353">
        <ele>291.9</ele>
      </trkpt>
      <trkpt lat="36.59349" lon="28.01354">
        <ele>291.6</ele>
      </trkpt>
      <trkpt lat="36.59348" lon="28.01355">
        <ele>291.5</ele>
      </trkpt>
      <trkpt lat="36.59348" lon="28.01357">
        <ele>291.2</ele>
      </trkpt>
      <trkpt lat="36.59349" lon="28.01363">
        <ele>290.1</ele>
      </trkpt>
      <trkpt lat="36.5935" lon="28.01364">
        <ele>289.7</ele>
      </trkpt>
      <trkpt lat="36.59345" lon="28.01363">
        <ele>290.3</ele>
      </trkpt>
      <trkpt lat="36.59344" lon="28.01364">
        <ele>290.1</ele>
      </trkpt>
      <trkpt lat="36.59342" lon="28.01369">
        <ele>289.4</ele>
      </trkpt>
      <trkpt lat="36.5934" lon="28.01378">
        <ele>287.9</ele>
      </trkpt>
      <trkpt lat="36.5934" lon="28.01381">
        <ele>287.5</ele>
      </trkpt>
      <trkpt lat="36.59339" lon="28.01381">
        <ele>287.6</ele>
      </trkpt>
      <trkpt lat="36.59338" lon="28.01385">
        <ele>286.8</ele>
      </trkpt>
      <trkpt lat="36.59339" lon="28.01391">
        <ele>285.8</ele>
      </trkpt>
      <trkpt lat="36.59339" lon="28.01392">
        <ele>285.6</ele>
      </trkpt>
      <trkpt lat="36.5934" lon="28.01395">
        <ele>284.9</ele>
      </trkpt>
      <trkpt lat="36.59337" lon="28.01402">
        <ele>284.1</ele>
      </trkpt>
      <trkpt lat="36.59338" lon="28.01411">
        <ele>282.5</ele>
      </trkpt>
      <trkpt lat="36.59337" lon="28.01414">
        <ele>282</ele>
      </trkpt>
      <trkpt lat="36.59336" lon="28.01422">
        <ele>280.4</ele>
      </trkpt>
      <trkpt lat="36.59333" lon="28.01425">
        <ele>279.9</ele>
      </trkpt>
      <trkpt lat="36.59332" lon="28.01427">
        <ele>279.8</ele>
      </trkpt>
      <trkpt lat="36.59329" lon="28.01433">
        <ele>279.2</ele>
      </trkpt>
      <trkpt lat="36.59327" lon="28.01436">
        <ele>279.1</ele>
      </trkpt>
      <trkpt lat="36.59324" lon="28.01436">
        <ele>280</ele>
      </trkpt>
      <trkpt lat="36.59322" lon="28.0144">
        <ele>279.7</ele>
      </trkpt>
      <trkpt lat="36.59319" lon="28.01444">
        <ele>279.4</ele>
      </trkpt>
      <trkpt lat="36.5932" lon="28.0145">
        <ele>277.8</ele>
      </trkpt>
      <trkpt lat="36.59319" lon="28.01451">
        <ele>277.8</ele>
      </trkpt>
      <trkpt lat="36.59316" lon="28.01455">
        <ele>277.6</ele>
      </trkpt>
      <trkpt lat="36.59316" lon="28.01456">
        <ele>277.4</ele>
      </trkpt>
      <trkpt lat="36.59314" lon="28.01461">
        <ele>276.8</ele>
      </trkpt>
      <trkpt lat="36.59312" lon="28.01466">
        <ele>276</ele>
      </trkpt>
      <trkpt lat="36.59311" lon="28.01467">
        <ele>276.1</ele>
      </trkpt>
      <trkpt lat="36.5931" lon="28.0147">
        <ele>275.8</ele>
      </trkpt>
      <trkpt lat="36.59306" lon="28.01474">
        <ele>275.8</ele>
      </trkpt>
      <trkpt lat="36.59306" lon="28.01477">
        <ele>275.2</ele>
      </trkpt>
      <trkpt lat="36.59305" lon="28.0148">
        <ele>274.8</ele>
      </trkpt>
      <trkpt lat="36.59303" lon="28.01483">
        <ele>274.3</ele>
      </trkpt>
      <trkpt lat="36.593" lon="28.01491">
        <ele>273.6</ele>
      </trkpt>
      <trkpt lat="36.59296" lon="28.01495">
        <ele>273.3</ele>
      </trkpt>
      <trkpt lat="36.59295" lon="28.01497">
        <ele>273.3</ele>
      </trkpt>
      <trkpt lat="36.59293" lon="28.01501">
        <ele>272.8</ele>
      </trkpt>
      <trkpt lat="36.59292" lon="28.01506">
        <ele>271.8</ele>
      </trkpt>
      <trkpt lat="36.59291" lon="28.01509">
        <ele>271.1</ele>
      </trkpt>
      <trkpt lat="36.59289" lon="28.01512">
        <ele>270.8</ele>
      </trkpt>
      <trkpt lat="36.59286" lon="28.01516">
        <ele>270.5</ele>
      </trkpt>
      <trkpt lat="36.5928" lon="28.01524">
        <ele>269.7</ele>
      </trkpt>
      <trkpt lat="36.59276" lon="28.01528">
        <ele>269.8</ele>
      </trkpt>
      <trkpt lat="36.59275" lon="28.0153">
        <ele>269.5</ele>
      </trkpt>
      <trkpt lat="36.59271" lon="28.01536">
        <ele>268.7</ele>
      </trkpt>
      <trkpt lat="36.59265" lon="28.01539">
        <ele>269.2</ele>
      </trkpt>
      <trkpt lat="36.59265" lon="28.01542">
        <ele>268.2</ele>
      </trkpt>
      <trkpt lat="36.59264" lon="28.01544">
        <ele>267.6</ele>
      </trkpt>
      <trkpt lat="36.59263" lon="28.01546">
        <ele>267.3</ele>
      </trkpt>
      <trkpt lat="36.59259" lon="28.01549">
        <ele>267.5</ele>
      </trkpt>
      <trkpt lat="36.59256" lon="28.01556">
        <ele>265.8</ele>
      </trkpt>
      <trkpt lat="36.59252" lon="28.01557">
        <ele>266.2</ele>
      </trkpt>
      <trkpt lat="36.5925" lon="28.01561">
        <ele>265.8</ele>
      </trkpt>
      <trkpt lat="36.59245" lon="28.01563">
        <ele>266.2</ele>
      </trkpt>
      <trkpt lat="36.59243" lon="28.01566">
        <ele>265.4</ele>
      </trkpt>
      <trkpt lat="36.59243" lon="28.0157">
        <ele>264.3</ele>
      </trkpt>
      <trkpt lat="36.59242" lon="28.01576">
        <ele>262.6</ele>
      </trkpt>
      <trkpt lat="36.59239" lon="28.01582">
        <ele>261.1</ele>
      </trkpt>
      <trkpt lat="36.59239" lon="28.01583">
        <ele>260.9</ele>
      </trkpt>
      <trkpt lat="36.59236" lon="28.01588">
        <ele>260.2</ele>
      </trkpt>
      <trkpt lat="36.59232" lon="28.01594">
        <ele>259.9</ele>
      </trkpt>
      <trkpt lat="36.59231" lon="28.01598">
        <ele>259</ele>
      </trkpt>
      <trkpt lat="36.59231" lon="28.01604">
        <ele>257.5</ele>
      </trkpt>
      <trkpt lat="36.59232" lon="28.01605">
        <ele>257.2</ele>
      </trkpt>
      <trkpt lat="36.59229" lon="28.01611">
        <ele>256.2</ele>
      </trkpt>
      <trkpt lat="36.59228" lon="28.01614">
        <ele>255.9</ele>
      </trkpt>
      <trkpt lat="36.59228" lon="28.01622">
        <ele>253.9</ele>
      </trkpt>
      <trkpt lat="36.59225" lon="28.01626">
        <ele>253.6</ele>
      </trkpt>
      <trkpt lat="36.59224" lon="28.01626">
        <ele>253.6</ele>
      </trkpt>
      <trkpt lat="36.59222" lon="28.01631">
        <ele>253</ele>
      </trkpt>
      <trkpt lat="36.59221" lon="28.01632">
        <ele>253</ele>
      </trkpt>
      <trkpt lat="36.59217" lon="28.01635">
        <ele>252.8</ele>
      </trkpt>
      <trkpt lat="36.59216" lon="28.01636">
        <ele>253</ele>
      </trkpt>
      <trkpt lat="36.59213" lon="28.01639">
        <ele>252.9</ele>
      </trkpt>
      <trkpt lat="36.5921" lon="28.01648">
        <ele>251</ele>
      </trkpt>
      <trkpt lat="36.59209" lon="28.01652">
        <ele>250.2</ele>
      </trkpt>
      <trkpt lat="36.59209" lon="28.01658">
        <ele>248.8</ele>
      </trkpt>
      <trkpt lat="36.59208" lon="28.01659">
        <ele>248.7</ele>
      </trkpt>
      <trkpt lat="36.59208" lon="28.01659">
        <ele>248.7</ele>
      </trkpt>
      <trkpt lat="36.59206" lon="28.01666">
        <ele>247.2</ele>
      </trkpt>
      <trkpt lat="36.59206" lon="28.01671">
        <ele>246.5</ele>
      </trkpt>
      <trkpt lat="36.59205" lon="28.01675">
        <ele>246</ele>
      </trkpt>
      <trkpt lat="36.59205" lon="28.01678">
        <ele>245.7</ele>
      </trkpt>
      <trkpt lat="36.59203" lon="28.0168">
        <ele>245.9</ele>
      </trkpt>
      <trkpt lat="36.59201" lon="28.01683">
        <ele>245.8</ele>
      </trkpt>
      <trkpt lat="36.59199" lon="28.01685">
        <ele>245.7</ele>
      </trkpt>
      <trkpt lat="36.59198" lon="28.01687">
        <ele>245.7</ele>
      </trkpt>
      <trkpt lat="36.59194" lon="28.01692">
        <ele>245.7</ele>
      </trkpt>
      <trkpt lat="36.59192" lon="28.01698">
        <ele>245.3</ele>
      </trkpt>
      <trkpt lat="36.59189" lon="28.01703">
        <ele>245.1</ele>
      </trkpt>
      <trkpt lat="36.59187" lon="28.01705">
        <ele>245</ele>
      </trkpt>
      <trkpt lat="36.59188" lon="28.01709">
        <ele>244.4</ele>
      </trkpt>
      <trkpt lat="36.59188" lon="28.01709">
        <ele>244.4</ele>
      </trkpt>
      <trkpt lat="36.59187" lon="28.01711">
        <ele>244.1</ele>
      </trkpt>
      <trkpt lat="36.59187" lon="28.01717">
        <ele>243.2</ele>
      </trkpt>
      <trkpt lat="36.59187" lon="28.0172">
        <ele>242.9</ele>
      </trkpt>
      <trkpt lat="36.59185" lon="28.01721">
        <ele>243.1</ele>
      </trkpt>
      <trkpt lat="36.59182" lon="28.01727">
        <ele>242.6</ele>
      </trkpt>
      <trkpt lat="36.59181" lon="28.01727">
        <ele>242.6</ele>
      </trkpt>
      <trkpt lat="36.5918" lon="28.01732">
        <ele>242.2</ele>
      </trkpt>
      <trkpt lat="36.59177" lon="28.01738">
        <ele>241.7</ele>
      </trkpt>
      <trkpt lat="36.59175" lon="28.0174">
        <ele>241.6</ele>
      </trkpt>
      <trkpt lat="36.59171" lon="28.01743">
        <ele>241.6</ele>
      </trkpt>
      <trkpt lat="36.59167" lon="28.01744">
        <ele>241.9</ele>
      </trkpt>
      <trkpt lat="36.59166" lon="28.01745">
        <ele>242</ele>
      </trkpt>
      <trkpt lat="36.59163" lon="28.01747">
        <ele>242.1</ele>
      </trkpt>
      <trkpt lat="36.59162" lon="28.01748">
        <ele>242.1</ele>
      </trkpt>
      <trkpt lat="36.5916" lon="28.0175">
        <ele>242</ele>
      </trkpt>
      <trkpt lat="36.59155" lon="28.01753">
        <ele>242.8</ele>
      </trkpt>
      <trkpt lat="36.59151" lon="28.01757">
        <ele>243.2</ele>
      </trkpt>
      <trkpt lat="36.5915" lon="28.01761">
        <ele>243.1</ele>
      </trkpt>
      <trkpt lat="36.5915" lon="28.01762">
        <ele>243</ele>
      </trkpt>
      <trkpt lat="36.5915" lon="28.01763">
        <ele>242.9</ele>
      </trkpt>
      <trkpt lat="36.59149" lon="28.0176">
        <ele>243.2</ele>
      </trkpt>
      <trkpt lat="36.59149" lon="28.0176">
        <ele>243.2</ele>
      </trkpt>
      <trkpt lat="36.59149" lon="28.0176">
        <ele>243.2</ele>
      </trkpt>
      <trkpt lat="36.5915" lon="28.01759">
        <ele>243.2</ele>
      </trkpt>
      <trkpt lat="36.59149" lon="28.01757">
        <ele>243.4</ele>
      </trkpt>
      <trkpt lat="36.5915" lon="28.01756">
        <ele>243.4</ele>
      </trkpt>
      <trkpt lat="36.59148" lon="28.01758">
        <ele>243.5</ele>
      </trkpt>
      <trkpt lat="36.59147" lon="28.01758">
        <ele>243.7</ele>
      </trkpt>
      <trkpt lat="36.59148" lon="28.01761">
        <ele>243.4</ele>
      </trkpt>
      <trkpt lat="36.59148" lon="28.01765">
        <ele>243.2</ele>
      </trkpt>
      <trkpt lat="36.59147" lon="28.01767">
        <ele>243.2</ele>
      </trkpt>
      <trkpt lat="36.59146" lon="28.01769">
        <ele>243.2</ele>
      </trkpt>
      <trkpt lat="36.59144" lon="28.01774">
        <ele>243.2</ele>
      </trkpt>
      <trkpt lat="36.59141" lon="28.01779">
        <ele>243.2</ele>
      </trkpt>
      <trkpt lat="36.59141" lon="28.0178">
        <ele>243.2</ele>
      </trkpt>
      <trkpt lat="36.59141" lon="28.01783">
        <ele>243</ele>
      </trkpt>
      <trkpt lat="36.59141" lon="28.01783">
        <ele>243</ele>
      </trkpt>
      <trkpt lat="36.59142" lon="28.01782">
        <ele>243</ele>
      </trkpt>
      <trkpt lat="36.5914" lon="28.01782">
        <ele>243.1</ele>
      </trkpt>
      <trkpt lat="36.5914" lon="28.0178">
        <ele>243.3</ele>
      </trkpt>
      <trkpt lat="36.59143" lon="28.01785">
        <ele>242.7</ele>
      </trkpt>
      <trkpt lat="36.59141" lon="28.0179">
        <ele>242.6</ele>
      </trkpt>
      <trkpt lat="36.59141" lon="28.01792">
        <ele>242.5</ele>
      </trkpt>
      <trkpt lat="36.59138" lon="28.01794">
        <ele>242.6</ele>
      </trkpt>
      <trkpt lat="36.59136" lon="28.018">
        <ele>242.4</ele>
      </trkpt>
      <trkpt lat="36.59133" lon="28.01804">
        <ele>242.3</ele>
      </trkpt>
      <trkpt lat="36.59133" lon="28.01804">
        <ele>242.3</ele>
      </trkpt>
      <trkpt lat="36.59133" lon="28.01806">
        <ele>242.2</ele>
      </trkpt>
      <trkpt lat="36.59132" lon="28.01807">
        <ele>242.2</ele>
      </trkpt>
      <trkpt lat="36.59124" lon="28.01813">
        <ele>242.3</ele>
      </trkpt>
      <trkpt lat="36.59123" lon="28.01814">
        <ele>242.3</ele>
      </trkpt>
      <trkpt lat="36.59118" lon="28.01817">
        <ele>242.3</ele>
      </trkpt>
      <trkpt lat="36.59117" lon="28.01818">
        <ele>242.2</ele>
      </trkpt>
      <trkpt lat="36.59117" lon="28.01819">
        <ele>242.2</ele>
      </trkpt>
      <trkpt lat="36.59117" lon="28.0182">
        <ele>242.1</ele>
      </trkpt>
      <trkpt lat="36.59113" lon="28.01826">
        <ele>241.7</ele>
      </trkpt>
      <trkpt lat="36.59108" lon="28.01832">
        <ele>241.3</ele>
      </trkpt>
      <trkpt lat="36.59104" lon="28.01838">
        <ele>241.3</ele>
      </trkpt>
      <trkpt lat="36.59101" lon="28.01842">
        <ele>241.3</ele>
      </trkpt>
      <trkpt lat="36.591" lon="28.01847">
        <ele>241.3</ele>
      </trkpt>
      <trkpt lat="36.59097" lon="28.0185">
        <ele>241.4</ele>
      </trkpt>
      <trkpt lat="36.59095" lon="28.01854">
        <ele>241.4</ele>
      </trkpt>
      <trkpt lat="36.59095" lon="28.01855">
        <ele>241.4</ele>
      </trkpt>
      <trkpt lat="36.59096" lon="28.01856">
        <ele>241.3</ele>
      </trkpt>
      <trkpt lat="36.59091" lon="28.01864">
        <ele>241.3</ele>
      </trkpt>
      <trkpt lat="36.59088" lon="28.01873">
        <ele>241.1</ele>
      </trkpt>
      <trkpt lat="36.59085" lon="28.01878">
        <ele>241</ele>
      </trkpt>
      <trkpt lat="36.59083" lon="28.01887">
        <ele>240.8</ele>
      </trkpt>
      <trkpt lat="36.59081" lon="28.01889">
        <ele>240.9</ele>
      </trkpt>
      <trkpt lat="36.5908" lon="28.01891">
        <ele>240.9</ele>
      </trkpt>
      <trkpt lat="36.5908" lon="28.01894">
        <ele>240.9</ele>
      </trkpt>
      <trkpt lat="36.59079" lon="28.01896">
        <ele>240.9</ele>
      </trkpt>
      <trkpt lat="36.59078" lon="28.01895">
        <ele>240.9</ele>
      </trkpt>
      <trkpt lat="36.59078" lon="28.01896">
        <ele>241</ele>
      </trkpt>
      <trkpt lat="36.59078" lon="28.01896">
        <ele>241</ele>
      </trkpt>
      <trkpt lat="36.59077" lon="28.01901">
        <ele>240.9</ele>
      </trkpt>
      <trkpt lat="36.59075" lon="28.01905">
        <ele>240.9</ele>
      </trkpt>
      <trkpt lat="36.59074" lon="28.0191">
        <ele>240.7</ele>
      </trkpt>
      <trkpt lat="36.59073" lon="28.0191">
        <ele>240.8</ele>
      </trkpt>
      <trkpt lat="36.5907" lon="28.01912">
        <ele>240.9</ele>
      </trkpt>
      <trkpt lat="36.59066" lon="28.01914">
        <ele>241</ele>
      </trkpt>
      <trkpt lat="36.59064" lon="28.01914">
        <ele>241.1</ele>
      </trkpt>
      <trkpt lat="36.59063" lon="28.0192">
        <ele>241</ele>
      </trkpt>
      <trkpt lat="36.59061" lon="28.01921">
        <ele>241.1</ele>
      </trkpt>
      <trkpt lat="36.59062" lon="28.01921">
        <ele>241</ele>
      </trkpt>
      <trkpt lat="36.5906" lon="28.0192">
        <ele>241.1</ele>
      </trkpt>
      <trkpt lat="36.59054" lon="28.01925">
        <ele>241.2</ele>
      </trkpt>
      <trkpt lat="36.59052" lon="28.01929">
        <ele>241.2</ele>
      </trkpt>
      <trkpt lat="36.5905" lon="28.01931">
        <ele>241.2</ele>
      </trkpt>
      <trkpt lat="36.59049" lon="28.01932">
        <ele>241.2</ele>
      </trkpt>
      <trkpt lat="36.59049" lon="28.01932">
        <ele>241.2</ele>
      </trkpt>
      <trkpt lat="36.59046" lon="28.01939">
        <ele>241</ele>
      </trkpt>
      <trkpt lat="36.59043" lon="28.01945">
        <ele>240.7</ele>
      </trkpt>
      <trkpt lat="36.59042" lon="28.01952">
        <ele>240.3</ele>
      </trkpt>
      <trkpt lat="36.59041" lon="28.01956">
        <ele>240.1</ele>
      </trkpt>
      <trkpt lat="36.59041" lon="28.0196">
        <ele>239.9</ele>
      </trkpt>
      <trkpt lat="36.5904" lon="28.01962">
        <ele>239.8</ele>
      </trkpt>
      <trkpt lat="36.5904" lon="28.01968">
        <ele>239.4</ele>
      </trkpt>
      <trkpt lat="36.59041" lon="28.01971">
        <ele>239.3</ele>
      </trkpt>
      <trkpt lat="36.59041" lon="28.01976">
        <ele>239.1</ele>
      </trkpt>
      <trkpt lat="36.5904" lon="28.01981">
        <ele>238.7</ele>
      </trkpt>
      <trkpt lat="36.59037" lon="28.01988">
        <ele>238</ele>
      </trkpt>
      <trkpt lat="36.59035" lon="28.01991">
        <ele>237.6</ele>
      </trkpt>
      <trkpt lat="36.59034" lon="28.01996">
        <ele>237.2</ele>
      </trkpt>
      <trkpt lat="36.59031" lon="28.02002">
        <ele>236.6</ele>
      </trkpt>
      <trkpt lat="36.59029" lon="28.02006">
        <ele>236.4</ele>
      </trkpt>
      <trkpt lat="36.59027" lon="28.02008">
        <ele>236.1</ele>
      </trkpt>
      <trkpt lat="36.59023" lon="28.02013">
        <ele>235.7</ele>
      </trkpt>
      <trkpt lat="36.59021" lon="28.02015">
        <ele>235.3</ele>
      </trkpt>
      <trkpt lat="36.59016" lon="28.02019">
        <ele>234.6</ele>
      </trkpt>
      <trkpt lat="36.59016" lon="28.0202">
        <ele>234.6</ele>
      </trkpt>
      <trkpt lat="36.59014" lon="28.02024">
        <ele>234.5</ele>
      </trkpt>
      <trkpt lat="36.5901" lon="28.02032">
        <ele>233.8</ele>
      </trkpt>
      <trkpt lat="36.59009" lon="28.02035">
        <ele>233.6</ele>
      </trkpt>
      <trkpt lat="36.59008" lon="28.02033">
        <ele>233.4</ele>
      </trkpt>
      <trkpt lat="36.59007" lon="28.02036">
        <ele>233.3</ele>
      </trkpt>
      <trkpt lat="36.59007" lon="28.02036">
        <ele>233.3</ele>
      </trkpt>
      <trkpt lat="36.59005" lon="28.02042">
        <ele>233</ele>
      </trkpt>
      <trkpt lat="36.59003" lon="28.02046">
        <ele>232.6</ele>
      </trkpt>
      <trkpt lat="36.59" lon="28.02051">
        <ele>232.1</ele>
      </trkpt>
      <trkpt lat="36.58999" lon="28.02055">
        <ele>232</ele>
      </trkpt>
      <trkpt lat="36.58994" lon="28.02062">
        <ele>231.8</ele>
      </trkpt>
      <trkpt lat="36.58992" lon="28.02068">
        <ele>231.5</ele>
      </trkpt>
      <trkpt lat="36.58988" lon="28.02074">
        <ele>231.1</ele>
      </trkpt>
      <trkpt lat="36.58986" lon="28.02076">
        <ele>230.9</ele>
      </trkpt>
      <trkpt lat="36.58983" lon="28.0208">
        <ele>230.5</ele>
      </trkpt>
      <trkpt lat="36.58981" lon="28.02082">
        <ele>230.2</ele>
      </trkpt>
      <trkpt lat="36.58981" lon="28.02082">
        <ele>230.2</ele>
      </trkpt>
      <trkpt lat="36.58979" lon="28.02086">
        <ele>229.9</ele>
      </trkpt>
      <trkpt lat="36.58978" lon="28.02087">
        <ele>229.7</ele>
      </trkpt>
      <trkpt lat="36.58974" lon="28.02094">
        <ele>229.2</ele>
      </trkpt>
      <trkpt lat="36.5897" lon="28.02102">
        <ele>228.3</ele>
      </trkpt>
      <trkpt lat="36.5897" lon="28.02105">
        <ele>228.1</ele>
      </trkpt>
      <trkpt lat="36.58968" lon="28.0211">
        <ele>227.6</ele>
      </trkpt>
      <trkpt lat="36.58967" lon="28.02114">
        <ele>227.3</ele>
      </trkpt>
      <trkpt lat="36.58967" lon="28.02116">
        <ele>227.1</ele>
      </trkpt>
      <trkpt lat="36.58964" lon="28.02121">
        <ele>226.3</ele>
      </trkpt>
      <trkpt lat="36.58963" lon="28.02122">
        <ele>226.1</ele>
      </trkpt>
      <trkpt lat="36.58963" lon="28.02123">
        <ele>226.1</ele>
      </trkpt>
      <trkpt lat="36.58963" lon="28.02123">
        <ele>226.1</ele>
      </trkpt>
      <trkpt lat="36.58964" lon="28.02124">
        <ele>226.1</ele>
      </trkpt>
      <trkpt lat="36.58964" lon="28.02128">
        <ele>225.9</ele>
      </trkpt>
      <trkpt lat="36.58964" lon="28.0213">
        <ele>225.8</ele>
      </trkpt>
      <trkpt lat="36.58963" lon="28.02133">
        <ele>225.5</ele>
      </trkpt>
      <trkpt lat="36.58963" lon="28.0214">
        <ele>225.1</ele>
      </trkpt>
      <trkpt lat="36.58963" lon="28.02145">
        <ele>224.7</ele>
      </trkpt>
      <trkpt lat="36.58963" lon="28.02152">
        <ele>224.3</ele>
      </trkpt>
      <trkpt lat="36.58963" lon="28.02154">
        <ele>224</ele>
      </trkpt>
      <trkpt lat="36.58963" lon="28.02159">
        <ele>223.9</ele>
      </trkpt>
      <trkpt lat="36.58963" lon="28.02166">
        <ele>223.5</ele>
      </trkpt>
      <trkpt lat="36.58964" lon="28.02173">
        <ele>223.6</ele>
      </trkpt>
      <trkpt lat="36.58964" lon="28.02175">
        <ele>223.8</ele>
      </trkpt>
      <trkpt lat="36.58963" lon="28.02179">
        <ele>223.5</ele>
      </trkpt>
      <trkpt lat="36.58964" lon="28.02185">
        <ele>223.9</ele>
      </trkpt>
      <trkpt lat="36.58964" lon="28.02185">
        <ele>223.9</ele>
      </trkpt>
      <trkpt lat="36.58963" lon="28.02194">
        <ele>223.8</ele>
      </trkpt>
      <trkpt lat="36.58963" lon="28.02195">
        <ele>223.7</ele>
      </trkpt>
      <trkpt lat="36.58962" lon="28.02204">
        <ele>223.7</ele>
      </trkpt>
      <trkpt lat="36.58962" lon="28.02207">
        <ele>223.7</ele>
      </trkpt>
      <trkpt lat="36.58964" lon="28.02213">
        <ele>224.2</ele>
      </trkpt>
      <trkpt lat="36.58964" lon="28.02218">
        <ele>224.5</ele>
      </trkpt>
      <trkpt lat="36.58963" lon="28.02225">
        <ele>224.1</ele>
      </trkpt>
      <trkpt lat="36.58962" lon="28.02228">
        <ele>223.9</ele>
      </trkpt>
      <trkpt lat="36.58962" lon="28.02236">
        <ele>224.1</ele>
      </trkpt>
      <trkpt lat="36.58963" lon="28.02242">
        <ele>224.3</ele>
      </trkpt>
      <trkpt lat="36.58961" lon="28.02247">
        <ele>223.8</ele>
      </trkpt>
      <trkpt lat="36.58959" lon="28.02253">
        <ele>223.2</ele>
      </trkpt>
      <trkpt lat="36.58958" lon="28.02257">
        <ele>223</ele>
      </trkpt>
      <trkpt lat="36.58958" lon="28.02262">
        <ele>222.8</ele>
      </trkpt>
      <trkpt lat="36.58957" lon="28.02264">
        <ele>222.5</ele>
      </trkpt>
      <trkpt lat="36.58956" lon="28.02271">
        <ele>222.3</ele>
      </trkpt>
      <trkpt lat="36.58956" lon="28.02275">
        <ele>222.1</ele>
      </trkpt>
      <trkpt lat="36.58954" lon="28.02277">
        <ele>221.5</ele>
      </trkpt>
      <trkpt lat="36.58951" lon="28.02283">
        <ele>220.6</ele>
      </trkpt>
      <trkpt lat="36.58952" lon="28.02286">
        <ele>220.8</ele>
      </trkpt>
      <trkpt lat="36.58952" lon="28.02292">
        <ele>220.7</ele>
      </trkpt>
      <trkpt lat="36.58952" lon="28.02294">
        <ele>220.7</ele>
      </trkpt>
      <trkpt lat="36.58951" lon="28.02295">
        <ele>220.6</ele>
      </trkpt>
      <trkpt lat="36.58949" lon="28.02299">
        <ele>219.8</ele>
      </trkpt>
      <trkpt lat="36.5895" lon="28.02307">
        <ele>220.2</ele>
      </trkpt>
      <trkpt lat="36.5895" lon="28.02314">
        <ele>219.9</ele>
      </trkpt>
      <trkpt lat="36.5895" lon="28.0232">
        <ele>220</ele>
      </trkpt>
      <trkpt lat="36.58951" lon="28.02326">
        <ele>220.4</ele>
      </trkpt>
      <trkpt lat="36.58953" lon="28.0233">
        <ele>220.9</ele>
      </trkpt>
      <trkpt lat="36.58952" lon="28.02334">
        <ele>220.7</ele>
      </trkpt>
      <trkpt lat="36.58952" lon="28.02338">
        <ele>220.3</ele>
      </trkpt>
      <trkpt lat="36.58953" lon="28.0234">
        <ele>220.2</ele>
      </trkpt>
      <trkpt lat="36.58955" lon="28.02346">
        <ele>220.1</ele>
      </trkpt>
      <trkpt lat="36.58953" lon="28.02353">
        <ele>218.7</ele>
      </trkpt>
      <trkpt lat="36.58954" lon="28.02358">
        <ele>218.2</ele>
      </trkpt>
      <trkpt lat="36.58954" lon="28.02366">
        <ele>217.3</ele>
      </trkpt>
      <trkpt lat="36.58954" lon="28.0237">
        <ele>216.9</ele>
      </trkpt>
      <trkpt lat="36.58955" lon="28.02372">
        <ele>216.8</ele>
      </trkpt>
      <trkpt lat="36.58953" lon="28.02376">
        <ele>215.8</ele>
      </trkpt>
      <trkpt lat="36.58952" lon="28.02381">
        <ele>214.6</ele>
      </trkpt>
      <trkpt lat="36.58951" lon="28.02386">
        <ele>213.7</ele>
      </trkpt>
      <trkpt lat="36.5895" lon="28.0239">
        <ele>212.9</ele>
      </trkpt>
      <trkpt lat="36.5895" lon="28.02392">
        <ele>212.6</ele>
      </trkpt>
      <trkpt lat="36.5895" lon="28.02396">
        <ele>212</ele>
      </trkpt>
      <trkpt lat="36.5895" lon="28.02402">
        <ele>211.2</ele>
      </trkpt>
      <trkpt lat="36.58949" lon="28.02403">
        <ele>210.9</ele>
      </trkpt>
      <trkpt lat="36.58944" lon="28.02411">
        <ele>208.4</ele>
      </trkpt>
      <trkpt lat="36.58943" lon="28.02415">
        <ele>207.5</ele>
      </trkpt>
      <trkpt lat="36.58943" lon="28.02419">
        <ele>206.9</ele>
      </trkpt>
      <trkpt lat="36.58943" lon="28.02419">
        <ele>206.7</ele>
      </trkpt>
      <trkpt lat="36.58943" lon="28.02422">
        <ele>206.4</ele>
      </trkpt>
      <trkpt lat="36.58945" lon="28.02426">
        <ele>206.4</ele>
      </trkpt>
      <trkpt lat="36.58945" lon="28.02427">
        <ele>206.2</ele>
      </trkpt>
      <trkpt lat="36.58946" lon="28.02431">
        <ele>205.8</ele>
      </trkpt>
      <trkpt lat="36.58947" lon="28.02435">
        <ele>205.6</ele>
      </trkpt>
      <trkpt lat="36.58948" lon="28.02437">
        <ele>205.5</ele>
      </trkpt>
      <trkpt lat="36.5895" lon="28.02442">
        <ele>205.4</ele>
      </trkpt>
      <trkpt lat="36.58954" lon="28.02445">
        <ele>206</ele>
      </trkpt>
      <trkpt lat="36.58955" lon="28.02448">
        <ele>206</ele>
      </trkpt>
      <trkpt lat="36.58955" lon="28.02452">
        <ele>205.3</ele>
      </trkpt>
      <trkpt lat="36.58958" lon="28.02456">
        <ele>205.6</ele>
      </trkpt>
      <trkpt lat="36.58958" lon="28.02459">
        <ele>205.1</ele>
      </trkpt>
      <trkpt lat="36.58959" lon="28.02461">
        <ele>205.1</ele>
      </trkpt>
      <trkpt lat="36.5896" lon="28.02469">
        <ele>204</ele>
      </trkpt>
      <trkpt lat="36.58961" lon="28.0247">
        <ele>204</ele>
      </trkpt>
      <trkpt lat="36.5896" lon="28.02475">
        <ele>202.9</ele>
      </trkpt>
      <trkpt lat="36.58962" lon="28.02478">
        <ele>203.1</ele>
      </trkpt>
      <trkpt lat="36.58966" lon="28.0248">
        <ele>203.8</ele>
      </trkpt>
      <trkpt lat="36.58969" lon="28.02484">
        <ele>204.1</ele>
      </trkpt>
      <trkpt lat="36.5897" lon="28.02488">
        <ele>203.5</ele>
      </trkpt>
      <trkpt lat="36.5897" lon="28.02494">
        <ele>202.4</ele>
      </trkpt>
      <trkpt lat="36.58972" lon="28.025">
        <ele>202.1</ele>
      </trkpt>
      <trkpt lat="36.58973" lon="28.02501">
        <ele>202.1</ele>
      </trkpt>
      <trkpt lat="36.58974" lon="28.02505">
        <ele>202.1</ele>
      </trkpt>
      <trkpt lat="36.58975" lon="28.0251">
        <ele>202.2</ele>
      </trkpt>
      <trkpt lat="36.58979" lon="28.02515">
        <ele>202.6</ele>
      </trkpt>
      <trkpt lat="36.58982" lon="28.0252">
        <ele>202.8</ele>
      </trkpt>
      <trkpt lat="36.58984" lon="28.02524">
        <ele>203</ele>
      </trkpt>
      <trkpt lat="36.58985" lon="28.02526">
        <ele>203</ele>
      </trkpt>
      <trkpt lat="36.58988" lon="28.02532">
        <ele>202.8</ele>
      </trkpt>
      <trkpt lat="36.58988" lon="28.0254">
        <ele>202</ele>
      </trkpt>
      <trkpt lat="36.58989" lon="28.02546">
        <ele>201.4</ele>
      </trkpt>
      <trkpt lat="36.58993" lon="28.02551">
        <ele>201.3</ele>
      </trkpt>
      <trkpt lat="36.58995" lon="28.02553">
        <ele>201.3</ele>
      </trkpt>
      <trkpt lat="36.58998" lon="28.02556">
        <ele>201.1</ele>
      </trkpt>
      <trkpt lat="36.59" lon="28.02561">
        <ele>200.5</ele>
      </trkpt>
      <trkpt lat="36.58999" lon="28.02565">
        <ele>199.8</ele>
      </trkpt>
      <trkpt lat="36.59" lon="28.0257">
        <ele>199.1</ele>
      </trkpt>
      <trkpt lat="36.59" lon="28.02571">
        <ele>198.9</ele>
      </trkpt>
      <trkpt lat="36.59" lon="28.02576">
        <ele>198.2</ele>
      </trkpt>
      <trkpt lat="36.59004" lon="28.0258">
        <ele>198.6</ele>
      </trkpt>
      <trkpt lat="36.59006" lon="28.02583">
        <ele>198.8</ele>
      </trkpt>
      <trkpt lat="36.5901" lon="28.02586">
        <ele>199.5</ele>
      </trkpt>
      <trkpt lat="36.59011" lon="28.02592">
        <ele>199.7</ele>
      </trkpt>
      <trkpt lat="36.59012" lon="28.02594">
        <ele>199.8</ele>
      </trkpt>
      <trkpt lat="36.59014" lon="28.02599">
        <ele>200.1</ele>
      </trkpt>
      <trkpt lat="36.59015" lon="28.026">
        <ele>200.1</ele>
      </trkpt>
      <trkpt lat="36.59017" lon="28.02604">
        <ele>200.4</ele>
      </trkpt>
      <trkpt lat="36.59018" lon="28.02607">
        <ele>200.5</ele>
      </trkpt>
      <trkpt lat="36.59021" lon="28.02609">
        <ele>200.9</ele>
      </trkpt>
      <trkpt lat="36.59022" lon="28.02615">
        <ele>200.7</ele>
      </trkpt>
      <trkpt lat="36.59022" lon="28.02618">
        <ele>200.5</ele>
      </trkpt>
      <trkpt lat="36.59023" lon="28.0262">
        <ele>200.6</ele>
      </trkpt>
      <trkpt lat="36.59025" lon="28.02624">
        <ele>200.5</ele>
      </trkpt>
      <trkpt lat="36.59028" lon="28.02629">
        <ele>200.7</ele>
      </trkpt>
      <trkpt lat="36.5903" lon="28.02634">
        <ele>200.6</ele>
      </trkpt>
      <trkpt lat="36.59032" lon="28.02636">
        <ele>200.6</ele>
      </trkpt>
      <trkpt lat="36.59033" lon="28.02637">
        <ele>200.7</ele>
      </trkpt>
      <trkpt lat="36.59033" lon="28.0264">
        <ele>200.5</ele>
      </trkpt>
      <trkpt lat="36.59033" lon="28.02641">
        <ele>200.3</ele>
      </trkpt>
      <trkpt lat="36.59033" lon="28.02643">
        <ele>200.2</ele>
      </trkpt>
      <trkpt lat="36.59035" lon="28.0265">
        <ele>199.7</ele>
      </trkpt>
      <trkpt lat="36.59035" lon="28.02653">
        <ele>199.4</ele>
      </trkpt>
      <trkpt lat="36.59034" lon="28.02658">
        <ele>198.7</ele>
      </trkpt>
      <trkpt lat="36.59034" lon="28.02659">
        <ele>198.6</ele>
      </trkpt>
      <trkpt lat="36.59036" lon="28.02661">
        <ele>198.6</ele>
      </trkpt>
      <trkpt lat="36.59035" lon="28.02671">
        <ele>198.2</ele>
      </trkpt>
      <trkpt lat="36.59038" lon="28.0268">
        <ele>198.8</ele>
      </trkpt>
      <trkpt lat="36.59042" lon="28.02686">
        <ele>199.3</ele>
      </trkpt>
      <trkpt lat="36.59043" lon="28.02687">
        <ele>199.4</ele>
      </trkpt>
      <trkpt lat="36.59043" lon="28.02689">
        <ele>199.5</ele>
      </trkpt>
      <trkpt lat="36.59044" lon="28.0269">
        <ele>199.6</ele>
      </trkpt>
      <trkpt lat="36.5905" lon="28.02698">
        <ele>200</ele>
      </trkpt>
      <trkpt lat="36.59052" lon="28.027">
        <ele>200.1</ele>
      </trkpt>
      <trkpt lat="36.59055" lon="28.02703">
        <ele>200.3</ele>
      </trkpt>
      <trkpt lat="36.59058" lon="28.02707">
        <ele>200.3</ele>
      </trkpt>
      <trkpt lat="36.59061" lon="28.02708">
        <ele>200.4</ele>
      </trkpt>
      <trkpt lat="36.59065" lon="28.02709">
        <ele>200.4</ele>
      </trkpt>
      <trkpt lat="36.59071" lon="28.02714">
        <ele>200.4</ele>
      </trkpt>
      <trkpt lat="36.59075" lon="28.02718">
        <ele>200.2</ele>
      </trkpt>
      <trkpt lat="36.59083" lon="28.02723">
        <ele>200</ele>
      </trkpt>
      <trkpt lat="36.59088" lon="28.02726">
        <ele>200.3</ele>
      </trkpt>
      <trkpt lat="36.5909" lon="28.02729">
        <ele>200.3</ele>
      </trkpt>
      <trkpt lat="36.59094" lon="28.02733">
        <ele>200.4</ele>
      </trkpt>
      <trkpt lat="36.59097" lon="28.02737">
        <ele>200.5</ele>
      </trkpt>
      <trkpt lat="36.59098" lon="28.02739">
        <ele>200.3</ele>
      </trkpt>
      <trkpt lat="36.59101" lon="28.02743">
        <ele>200.3</ele>
      </trkpt>
      <trkpt lat="36.59102" lon="28.02743">
        <ele>200.4</ele>
      </trkpt>
      <trkpt lat="36.59104" lon="28.02744">
        <ele>200.4</ele>
      </trkpt>
      <trkpt lat="36.59106" lon="28.02746">
        <ele>200.3</ele>
      </trkpt>
      <trkpt lat="36.5911" lon="28.02751">
        <ele>200.4</ele>
      </trkpt>
      <trkpt lat="36.59112" lon="28.02752">
        <ele>200.7</ele>
      </trkpt>
      <trkpt lat="36.59116" lon="28.02758">
        <ele>201.7</ele>
      </trkpt>
      <trkpt lat="36.59118" lon="28.02758">
        <ele>201.9</ele>
      </trkpt>
      <trkpt lat="36.59118" lon="28.02758">
        <ele>201.9</ele>
      </trkpt>
      <trkpt lat="36.59121" lon="28.02758">
        <ele>202</ele>
      </trkpt>
      <trkpt lat="36.59125" lon="28.02757">
        <ele>201.9</ele>
      </trkpt>
      <trkpt lat="36.59126" lon="28.02756">
        <ele>201.9</ele>
      </trkpt>
      <trkpt lat="36.5913" lon="28.02756">
        <ele>202</ele>
      </trkpt>
      <trkpt lat="36.59133" lon="28.02754">
        <ele>201.9</ele>
      </trkpt>
      <trkpt lat="36.59139" lon="28.02756">
        <ele>202.4</ele>
      </trkpt>
      <trkpt lat="36.59141" lon="28.02757">
        <ele>202.5</ele>
      </trkpt>
      <trkpt lat="36.59144" lon="28.02755">
        <ele>202.5</ele>
      </trkpt>
      <trkpt lat="36.59146" lon="28.02756">
        <ele>202.6</ele>
      </trkpt>
      <trkpt lat="36.59147" lon="28.02756">
        <ele>202.6</ele>
      </trkpt>
      <trkpt lat="36.59149" lon="28.02756">
        <ele>202.7</ele>
      </trkpt>
      <trkpt lat="36.59151" lon="28.02757">
        <ele>202.9</ele>
      </trkpt>
      <trkpt lat="36.59155" lon="28.02757">
        <ele>203.1</ele>
      </trkpt>
      <trkpt lat="36.59162" lon="28.02763">
        <ele>203.8</ele>
      </trkpt>
      <trkpt lat="36.59163" lon="28.02763">
        <ele>203.8</ele>
      </trkpt>
      <trkpt lat="36.59164" lon="28.02762">
        <ele>203.8</ele>
      </trkpt>
      <trkpt lat="36.59168" lon="28.02765">
        <ele>204.2</ele>
      </trkpt>
      <trkpt lat="36.59178" lon="28.02768">
        <ele>204.8</ele>
      </trkpt>
      <trkpt lat="36.5918" lon="28.02768">
        <ele>205</ele>
      </trkpt>
      <trkpt lat="36.59188" lon="28.02772">
        <ele>205.5</ele>
      </trkpt>
      <trkpt lat="36.59189" lon="28.02772">
        <ele>205.5</ele>
      </trkpt>
      <trkpt lat="36.59189" lon="28.02771">
        <ele>205.5</ele>
      </trkpt>
      <trkpt lat="36.5919" lon="28.02771">
        <ele>205.6</ele>
      </trkpt>
      <trkpt lat="36.59194" lon="28.02769">
        <ele>205.7</ele>
      </trkpt>
      <trkpt lat="36.59197" lon="28.0277">
        <ele>205.8</ele>
      </trkpt>
      <trkpt lat="36.59199" lon="28.02769">
        <ele>205.9</ele>
      </trkpt>
      <trkpt lat="36.59204" lon="28.0277">
        <ele>206.2</ele>
      </trkpt>
      <trkpt lat="36.59207" lon="28.0277">
        <ele>206.3</ele>
      </trkpt>
      <trkpt lat="36.59214" lon="28.02772">
        <ele>206.6</ele>
      </trkpt>
      <trkpt lat="36.59216" lon="28.02772">
        <ele>206.7</ele>
      </trkpt>
      <trkpt lat="36.59217" lon="28.02773">
        <ele>206.8</ele>
      </trkpt>
      <trkpt lat="36.59222" lon="28.02774">
        <ele>207</ele>
      </trkpt>
      <trkpt lat="36.59224" lon="28.02773">
        <ele>207.1</ele>
      </trkpt>
      <trkpt lat="36.59227" lon="28.02774">
        <ele>207.2</ele>
      </trkpt>
      <trkpt lat="36.59231" lon="28.02775">
        <ele>207.3</ele>
      </trkpt>
      <trkpt lat="36.59233" lon="28.02776">
        <ele>207.4</ele>
      </trkpt>
      <trkpt lat="36.59234" lon="28.02777">
        <ele>207.4</ele>
      </trkpt>
      <trkpt lat="36.59234" lon="28.02775">
        <ele>207.5</ele>
      </trkpt>
      <trkpt lat="36.59235" lon="28.02777">
        <ele>207.5</ele>
      </trkpt>
      <trkpt lat="36.59238" lon="28.02778">
        <ele>207.5</ele>
      </trkpt>
      <trkpt lat="36.59239" lon="28.0278">
        <ele>207.6</ele>
      </trkpt>
      <trkpt lat="36.59243" lon="28.02782">
        <ele>207.6</ele>
      </trkpt>
      <trkpt lat="36.59244" lon="28.02785">
        <ele>207.6</ele>
      </trkpt>
      <trkpt lat="36.59246" lon="28.02787">
        <ele>207.6</ele>
      </trkpt>
      <trkpt lat="36.59249" lon="28.02791">
        <ele>207.5</ele>
      </trkpt>
      <trkpt lat="36.59252" lon="28.0279">
        <ele>207.6</ele>
      </trkpt>
      <trkpt lat="36.59253" lon="28.0279">
        <ele>207.5</ele>
      </trkpt>
      <trkpt lat="36.5926" lon="28.02791">
        <ele>207.5</ele>
      </trkpt>
      <trkpt lat="36.59262" lon="28.02791">
        <ele>207.4</ele>
      </trkpt>
      <trkpt lat="36.59263" lon="28.02791">
        <ele>207.5</ele>
      </trkpt>
      <trkpt lat="36.59269" lon="28.02794">
        <ele>207.2</ele>
      </trkpt>
      <trkpt lat="36.5927" lon="28.02794">
        <ele>207.2</ele>
      </trkpt>
      <trkpt lat="36.59279" lon="28.02792">
        <ele>207.3</ele>
      </trkpt>
      <trkpt lat="36.59282" lon="28.02791">
        <ele>207.3</ele>
      </trkpt>
      <trkpt lat="36.59284" lon="28.02791">
        <ele>207.4</ele>
      </trkpt>
      <trkpt lat="36.59284" lon="28.02792">
        <ele>207.3</ele>
      </trkpt>
      <trkpt lat="36.59285" lon="28.02792">
        <ele>207.3</ele>
      </trkpt>
      <trkpt lat="36.59287" lon="28.02795">
        <ele>207</ele>
      </trkpt>
      <trkpt lat="36.59288" lon="28.02795">
        <ele>207</ele>
      </trkpt>
      <trkpt lat="36.59289" lon="28.02795">
        <ele>207</ele>
      </trkpt>
      <trkpt lat="36.59295" lon="28.02798">
        <ele>206.6</ele>
      </trkpt>
      <trkpt lat="36.59297" lon="28.02799">
        <ele>206.5</ele>
      </trkpt>
      <trkpt lat="36.59301" lon="28.02798">
        <ele>206.5</ele>
      </trkpt>
      <trkpt lat="36.59303" lon="28.028">
        <ele>206.3</ele>
      </trkpt>
      <trkpt lat="36.59304" lon="28.028">
        <ele>206.3</ele>
      </trkpt>
      <trkpt lat="36.59306" lon="28.02801">
        <ele>206.2</ele>
      </trkpt>
      <trkpt lat="36.59312" lon="28.02803">
        <ele>205.9</ele>
      </trkpt>
      <trkpt lat="36.59313" lon="28.02803">
        <ele>205.8</ele>
      </trkpt>
      <trkpt lat="36.59315" lon="28.02805">
        <ele>205.5</ele>
      </trkpt>
      <trkpt lat="36.59316" lon="28.02805">
        <ele>205.5</ele>
      </trkpt>
      <trkpt lat="36.59318" lon="28.02805">
        <ele>205.5</ele>
      </trkpt>
      <trkpt lat="36.59318" lon="28.02805">
        <ele>205.4</ele>
      </trkpt>
      <trkpt lat="36.59323" lon="28.02808">
        <ele>205</ele>
      </trkpt>
      <trkpt lat="36.59324" lon="28.02809">
        <ele>204.7</ele>
      </trkpt>
      <trkpt lat="36.59326" lon="28.02811">
        <ele>204.4</ele>
      </trkpt>
      <trkpt lat="36.59327" lon="28.02811">
        <ele>204.5</ele>
      </trkpt>
      <trkpt lat="36.59328" lon="28.02812">
        <ele>204.3</ele>
      </trkpt>
      <trkpt lat="36.59332" lon="28.02813">
        <ele>204</ele>
      </trkpt>
      <trkpt lat="36.59335" lon="28.02814">
        <ele>203.5</ele>
      </trkpt>
      <trkpt lat="36.59338" lon="28.02814">
        <ele>203.3</ele>
      </trkpt>
      <trkpt lat="36.59339" lon="28.02814">
        <ele>203.2</ele>
      </trkpt>
      <trkpt lat="36.59339" lon="28.02816">
        <ele>203</ele>
      </trkpt>
      <trkpt lat="36.59341" lon="28.02814">
        <ele>202.9</ele>
      </trkpt>
      <trkpt lat="36.59349" lon="28.02814">
        <ele>202.2</ele>
      </trkpt>
      <trkpt lat="36.5935" lon="28.02814">
        <ele>202</ele>
      </trkpt>
      <trkpt lat="36.59351" lon="28.02816">
        <ele>201.8</ele>
      </trkpt>
      <trkpt lat="36.59352" lon="28.02816">
        <ele>201.6</ele>
      </trkpt>
      <trkpt lat="36.59351" lon="28.02819">
        <ele>201.2</ele>
      </trkpt>
      <trkpt lat="36.59355" lon="28.02822">
        <ele>200.4</ele>
      </trkpt>
      <trkpt lat="36.59358" lon="28.02823">
        <ele>199.8</ele>
      </trkpt>
      <trkpt lat="36.59362" lon="28.02826">
        <ele>199.1</ele>
      </trkpt>
      <trkpt lat="36.59362" lon="28.02826">
        <ele>199.1</ele>
      </trkpt>
      <trkpt lat="36.59366" lon="28.0283">
        <ele>198.1</ele>
      </trkpt>
      <trkpt lat="36.59368" lon="28.0283">
        <ele>197.7</ele>
      </trkpt>
      <trkpt lat="36.59373" lon="28.02837">
        <ele>196.7</ele>
      </trkpt>
      <trkpt lat="36.59375" lon="28.0284">
        <ele>196.4</ele>
      </trkpt>
      <trkpt lat="36.59377" lon="28.02846">
        <ele>195.9</ele>
      </trkpt>
      <trkpt lat="36.59381" lon="28.02848">
        <ele>195.4</ele>
      </trkpt>
      <trkpt lat="36.59381" lon="28.02848">
        <ele>195.4</ele>
      </trkpt>
      <trkpt lat="36.59382" lon="28.02852">
        <ele>195.1</ele>
      </trkpt>
      <trkpt lat="36.59383" lon="28.02855">
        <ele>194.9</ele>
      </trkpt>
      <trkpt lat="36.59385" lon="28.02857">
        <ele>194.6</ele>
      </trkpt>
      <trkpt lat="36.59387" lon="28.0286">
        <ele>194.1</ele>
      </trkpt>
      <trkpt lat="36.5939" lon="28.02868">
        <ele>193.3</ele>
      </trkpt>
      <trkpt lat="36.59391" lon="28.0287">
        <ele>193</ele>
      </trkpt>
      <trkpt lat="36.59395" lon="28.02876">
        <ele>192.2</ele>
      </trkpt>
      <trkpt lat="36.59398" lon="28.02879">
        <ele>191.5</ele>
      </trkpt>
      <trkpt lat="36.59401" lon="28.02882">
        <ele>190.8</ele>
      </trkpt>
      <trkpt lat="36.59406" lon="28.0288">
        <ele>189.9</ele>
      </trkpt>
      <trkpt lat="36.5941" lon="28.0288">
        <ele>189.3</ele>
      </trkpt>
      <trkpt lat="36.59411" lon="28.0288">
        <ele>189.1</ele>
      </trkpt>
      <trkpt lat="36.59417" lon="28.02877">
        <ele>188.2</ele>
      </trkpt>
      <trkpt lat="36.59418" lon="28.02876">
        <ele>188</ele>
      </trkpt>
      <trkpt lat="36.59421" lon="28.02873">
        <ele>187.2</ele>
      </trkpt>
      <trkpt lat="36.59423" lon="28.02874">
        <ele>186.6</ele>
      </trkpt>
      <trkpt lat="36.59423" lon="28.02874">
        <ele>186.5</ele>
      </trkpt>
      <trkpt lat="36.59426" lon="28.02872">
        <ele>185.7</ele>
      </trkpt>
      <trkpt lat="36.59429" lon="28.0287">
        <ele>184.9</ele>
      </trkpt>
      <trkpt lat="36.59433" lon="28.02871">
        <ele>183.7</ele>
      </trkpt>
      <trkpt lat="36.59435" lon="28.02872">
        <ele>182.9</ele>
      </trkpt>
      <trkpt lat="36.59438" lon="28.02871">
        <ele>181.9</ele>
      </trkpt>
      <trkpt lat="36.59442" lon="28.0287">
        <ele>180.8</ele>
      </trkpt>
      <trkpt lat="36.59443" lon="28.02872">
        <ele>180.3</ele>
      </trkpt>
      <trkpt lat="36.59449" lon="28.02867">
        <ele>179.1</ele>
      </trkpt>
      <trkpt lat="36.59451" lon="28.02865">
        <ele>178.6</ele>
      </trkpt>
      <trkpt lat="36.59452" lon="28.02861">
        <ele>178.6</ele>
      </trkpt>
      <trkpt lat="36.59456" lon="28.0286">
        <ele>177.4</ele>
      </trkpt>
      <trkpt lat="36.59457" lon="28.02862">
        <ele>177</ele>
      </trkpt>
      <trkpt lat="36.59457" lon="28.02863">
        <ele>176.7</ele>
      </trkpt>
      <trkpt lat="36.59459" lon="28.02866">
        <ele>175.8</ele>
      </trkpt>
      <trkpt lat="36.59463" lon="28.02869">
        <ele>174.4</ele>
      </trkpt>
      <trkpt lat="36.59464" lon="28.0287">
        <ele>173.8</ele>
      </trkpt>
      <trkpt lat="36.59466" lon="28.02871">
        <ele>173.1</ele>
      </trkpt>
      <trkpt lat="36.59469" lon="28.02874">
        <ele>172</ele>
      </trkpt>
      <trkpt lat="36.59475" lon="28.0287">
        <ele>170.5</ele>
      </trkpt>
      <trkpt lat="36.59478" lon="28.0287">
        <ele>169.5</ele>
      </trkpt>
      <trkpt lat="36.59481" lon="28.02868">
        <ele>168.6</ele>
      </trkpt>
      <trkpt lat="36.59487" lon="28.02869">
        <ele>166.8</ele>
      </trkpt>
      <trkpt lat="36.59491" lon="28.0287">
        <ele>165.4</ele>
      </trkpt>
      <trkpt lat="36.59494" lon="28.02875">
        <ele>163.9</ele>
      </trkpt>
      <trkpt lat="36.59498" lon="28.02876">
        <ele>162.7</ele>
      </trkpt>
      <trkpt lat="36.59499" lon="28.02879">
        <ele>162</ele>
      </trkpt>
      <trkpt lat="36.59503" lon="28.02881">
        <ele>161.3</ele>
      </trkpt>
      <trkpt lat="36.59504" lon="28.02881">
        <ele>161.3</ele>
      </trkpt>
      <trkpt lat="36.59505" lon="28.02882">
        <ele>161.2</ele>
      </trkpt>
      <trkpt lat="36.59509" lon="28.02886">
        <ele>160.7</ele>
      </trkpt>
      <trkpt lat="36.59509" lon="28.02887">
        <ele>160.6</ele>
      </trkpt>
      <trkpt lat="36.5951" lon="28.02888">
        <ele>160.4</ele>
      </trkpt>
      <trkpt lat="36.59513" lon="28.0289">
        <ele>160.1</ele>
      </trkpt>
      <trkpt lat="36.59517" lon="28.02893">
        <ele>159.6</ele>
      </trkpt>
      <trkpt lat="36.5952" lon="28.02894">
        <ele>159.5</ele>
      </trkpt>
      <trkpt lat="36.59521" lon="28.02895">
        <ele>159.2</ele>
      </trkpt>
      <trkpt lat="36.59525" lon="28.02895">
        <ele>159.2</ele>
      </trkpt>
      <trkpt lat="36.59526" lon="28.02896">
        <ele>158.9</ele>
      </trkpt>
      <trkpt lat="36.59528" lon="28.029">
        <ele>158.4</ele>
      </trkpt>
      <trkpt lat="36.5953" lon="28.02902">
        <ele>158.1</ele>
      </trkpt>
      <trkpt lat="36.59534" lon="28.02909">
        <ele>157</ele>
      </trkpt>
      <trkpt lat="36.59535" lon="28.02913">
        <ele>156.4</ele>
      </trkpt>
      <trkpt lat="36.59537" lon="28.02919">
        <ele>155.6</ele>
      </trkpt>
      <trkpt lat="36.59538" lon="28.02922">
        <ele>155.3</ele>
      </trkpt>
      <trkpt lat="36.59539" lon="28.02925">
        <ele>155.1</ele>
      </trkpt>
      <trkpt lat="36.59542" lon="28.02929">
        <ele>154.6</ele>
      </trkpt>
      <trkpt lat="36.59543" lon="28.02933">
        <ele>154.1</ele>
      </trkpt>
      <trkpt lat="36.59545" lon="28.02935">
        <ele>153.9</ele>
      </trkpt>
      <trkpt lat="36.59548" lon="28.02938">
        <ele>153.4</ele>
      </trkpt>
      <trkpt lat="36.59548" lon="28.02938">
        <ele>153.4</ele>
      </trkpt>
      <trkpt lat="36.59549" lon="28.02941">
        <ele>153.1</ele>
      </trkpt>
      <trkpt lat="36.59549" lon="28.0294">
        <ele>153.2</ele>
      </trkpt>
      <trkpt lat="36.59549" lon="28.02939">
        <ele>153.3</ele>
      </trkpt>
      <trkpt lat="36.59551" lon="28.02944">
        <ele>152.8</ele>
      </trkpt>
      <trkpt lat="36.59551" lon="28.02944">
        <ele>152.7</ele>
      </trkpt>
      <trkpt lat="36.59551" lon="28.02947">
        <ele>152.5</ele>
      </trkpt>
      <trkpt lat="36.59553" lon="28.0295">
        <ele>152.2</ele>
      </trkpt>
      <trkpt lat="36.59555" lon="28.02953">
        <ele>151.8</ele>
      </trkpt>
      <trkpt lat="36.59557" lon="28.02953">
        <ele>151.7</ele>
      </trkpt>
      <trkpt lat="36.59557" lon="28.02953">
        <ele>151.7</ele>
      </trkpt>
      <trkpt lat="36.59556" lon="28.02955">
        <ele>151.6</ele>
      </trkpt>
      <trkpt lat="36.59556" lon="28.02955">
        <ele>151.6</ele>
      </trkpt>
      <trkpt lat="36.5956" lon="28.02963">
        <ele>150.7</ele>
      </trkpt>
      <trkpt lat="36.5956" lon="28.02966">
        <ele>150.4</ele>
      </trkpt>
      <trkpt lat="36.59562" lon="28.02972">
        <ele>149.8</ele>
      </trkpt>
      <trkpt lat="36.59564" lon="28.02973">
        <ele>149.6</ele>
      </trkpt>
      <trkpt lat="36.59569" lon="28.02981">
        <ele>148.6</ele>
      </trkpt>
      <trkpt lat="36.5957" lon="28.02986">
        <ele>148.1</ele>
      </trkpt>
      <trkpt lat="36.59571" lon="28.02989">
        <ele>147.8</ele>
      </trkpt>
      <trkpt lat="36.59573" lon="28.02991">
        <ele>147.5</ele>
      </trkpt>
      <trkpt lat="36.59573" lon="28.02994">
        <ele>147.2</ele>
      </trkpt>
      <trkpt lat="36.59577" lon="28.02998">
        <ele>146.6</ele>
      </trkpt>
      <trkpt lat="36.59576" lon="28.03002">
        <ele>146.5</ele>
      </trkpt>
      <trkpt lat="36.59576" lon="28.03007">
        <ele>146.3</ele>
      </trkpt>
      <trkpt lat="36.59577" lon="28.03009">
        <ele>146.2</ele>
      </trkpt>
      <trkpt lat="36.59578" lon="28.03013">
        <ele>146</ele>
      </trkpt>
      <trkpt lat="36.5958" lon="28.0302">
        <ele>145.6</ele>
      </trkpt>
      <trkpt lat="36.5958" lon="28.03025">
        <ele>145.4</ele>
      </trkpt>
      <trkpt lat="36.5958" lon="28.03027">
        <ele>145.3</ele>
      </trkpt>
      <trkpt lat="36.59582" lon="28.03038">
        <ele>144.7</ele>
      </trkpt>
      <trkpt lat="36.59584" lon="28.0304">
        <ele>144.7</ele>
      </trkpt>
      <trkpt lat="36.59585" lon="28.03044">
        <ele>144.7</ele>
      </trkpt>
      <trkpt lat="36.59586" lon="28.0305">
        <ele>144.7</ele>
      </trkpt>
      <trkpt lat="36.59587" lon="28.0305">
        <ele>144.7</ele>
      </trkpt>
      <trkpt lat="36.59588" lon="28.03054">
        <ele>144.8</ele>
      </trkpt>
      <trkpt lat="36.5959" lon="28.03059">
        <ele>145</ele>
      </trkpt>
      <trkpt lat="36.59591" lon="28.03061">
        <ele>145.1</ele>
      </trkpt>
      <trkpt lat="36.59592" lon="28.03063">
        <ele>145.1</ele>
      </trkpt>
      <trkpt lat="36.59592" lon="28.03066">
        <ele>145</ele>
      </trkpt>
      <trkpt lat="36.59593" lon="28.0307">
        <ele>145</ele>
      </trkpt>
      <trkpt lat="36.59592" lon="28.03073">
        <ele>144.7</ele>
      </trkpt>
      <trkpt lat="36.59591" lon="28.0308">
        <ele>144.3</ele>
      </trkpt>
      <trkpt lat="36.59592" lon="28.03081">
        <ele>144.3</ele>
      </trkpt>
      <trkpt lat="36.59593" lon="28.03086">
        <ele>144.5</ele>
      </trkpt>
      <trkpt lat="36.59594" lon="28.0309">
        <ele>144.7</ele>
      </trkpt>
      <trkpt lat="36.59594" lon="28.03095">
        <ele>144.8</ele>
      </trkpt>
      <trkpt lat="36.59593" lon="28.03098">
        <ele>144.8</ele>
      </trkpt>
      <trkpt lat="36.59593" lon="28.03103">
        <ele>144.8</ele>
      </trkpt>
      <trkpt lat="36.59593" lon="28.03104">
        <ele>144.9</ele>
      </trkpt>
      <trkpt lat="36.59591" lon="28.03109">
        <ele>144.9</ele>
      </trkpt>
      <trkpt lat="36.59591" lon="28.03115">
        <ele>145</ele>
      </trkpt>
      <trkpt lat="36.59591" lon="28.03117">
        <ele>145.1</ele>
      </trkpt>
      <trkpt lat="36.59591" lon="28.03117">
        <ele>145.1</ele>
      </trkpt>
      <trkpt lat="36.59591" lon="28.03118">
        <ele>145.2</ele>
      </trkpt>
      <trkpt lat="36.59592" lon="28.03123">
        <ele>145.3</ele>
      </trkpt>
      <trkpt lat="36.59594" lon="28.03127">
        <ele>145.5</ele>
      </trkpt>
      <trkpt lat="36.59593" lon="28.03129">
        <ele>145.6</ele>
      </trkpt>
      <trkpt lat="36.59593" lon="28.03133">
        <ele>145.7</ele>
      </trkpt>
      <trkpt lat="36.59593" lon="28.03139">
        <ele>145.8</ele>
      </trkpt>
      <trkpt lat="36.59594" lon="28.03143">
        <ele>145.9</ele>
      </trkpt>
      <trkpt lat="36.59595" lon="28.03144">
        <ele>146</ele>
      </trkpt>
      <trkpt lat="36.59598" lon="28.03147">
        <ele>146</ele>
      </trkpt>
      <trkpt lat="36.59598" lon="28.03148">
        <ele>146</ele>
      </trkpt>
      <trkpt lat="36.59598" lon="28.03153">
        <ele>146.1</ele>
      </trkpt>
      <trkpt lat="36.59598" lon="28.03155">
        <ele>146.1</ele>
      </trkpt>
      <trkpt lat="36.59597" lon="28.0316">
        <ele>146.2</ele>
      </trkpt>
      <trkpt lat="36.59597" lon="28.03164">
        <ele>146.3</ele>
      </trkpt>
      <trkpt lat="36.59596" lon="28.03168">
        <ele>146.6</ele>
      </trkpt>
      <trkpt lat="36.59596" lon="28.03169">
        <ele>146.6</ele>
      </trkpt>
      <trkpt lat="36.59597" lon="28.03174">
        <ele>147.1</ele>
      </trkpt>
      <trkpt lat="36.59599" lon="28.0318">
        <ele>147.6</ele>
      </trkpt>
      <trkpt lat="36.59601" lon="28.03185">
        <ele>147.9</ele>
      </trkpt>
      <trkpt lat="36.59602" lon="28.03188">
        <ele>148</ele>
      </trkpt>
      <trkpt lat="36.59602" lon="28.03196">
        <ele>148.7</ele>
      </trkpt>
      <trkpt lat="36.59603" lon="28.03197">
        <ele>148.8</ele>
      </trkpt>
      <trkpt lat="36.59605" lon="28.03198">
        <ele>148.6</ele>
      </trkpt>
      <trkpt lat="36.59603" lon="28.03202">
        <ele>149.1</ele>
      </trkpt>
      <trkpt lat="36.59604" lon="28.03206">
        <ele>149.3</ele>
      </trkpt>
      <trkpt lat="36.59606" lon="28.0321">
        <ele>149.3</ele>
      </trkpt>
      <trkpt lat="36.59608" lon="28.03211">
        <ele>149.1</ele>
      </trkpt>
      <trkpt lat="36.5961" lon="28.03214">
        <ele>149</ele>
      </trkpt>
      <trkpt lat="36.5961" lon="28.03217">
        <ele>149.1</ele>
      </trkpt>
      <trkpt lat="36.59612" lon="28.0322">
        <ele>149</ele>
      </trkpt>
      <trkpt lat="36.59616" lon="28.03227">
        <ele>148.4</ele>
      </trkpt>
      <trkpt lat="36.59617" lon="28.03232">
        <ele>148.4</ele>
      </trkpt>
      <trkpt lat="36.59619" lon="28.03235">
        <ele>148.2</ele>
      </trkpt>
      <trkpt lat="36.59622" lon="28.03239">
        <ele>147.6</ele>
      </trkpt>
      <trkpt lat="36.59622" lon="28.03241">
        <ele>147.7</ele>
      </trkpt>
      <trkpt lat="36.59623" lon="28.03244">
        <ele>147.3</ele>
      </trkpt>
      <trkpt lat="36.59627" lon="28.0325">
        <ele>146.4</ele>
      </trkpt>
      <trkpt lat="36.59628" lon="28.03251">
        <ele>146.2</ele>
      </trkpt>
      <trkpt lat="36.5963" lon="28.03255">
        <ele>146</ele>
      </trkpt>
      <trkpt lat="36.59632" lon="28.0326">
        <ele>145.8</ele>
      </trkpt>
      <trkpt lat="36.59634" lon="28.03265">
        <ele>145.3</ele>
      </trkpt>
      <trkpt lat="36.59635" lon="28.03267">
        <ele>145.4</ele>
      </trkpt>
      <trkpt lat="36.59637" lon="28.03271">
        <ele>145</ele>
      </trkpt>
      <trkpt lat="36.59637" lon="28.03276">
        <ele>145.2</ele>
      </trkpt>
      <trkpt lat="36.59638" lon="28.0328">
        <ele>145.2</ele>
      </trkpt>
      <trkpt lat="36.59637" lon="28.03285">
        <ele>145.7</ele>
      </trkpt>
      <trkpt lat="36.59638" lon="28.03288">
        <ele>145.7</ele>
      </trkpt>
      <trkpt lat="36.59641" lon="28.03293">
        <ele>145.3</ele>
      </trkpt>
      <trkpt lat="36.59641" lon="28.03299">
        <ele>145.7</ele>
      </trkpt>
      <trkpt lat="36.59642" lon="28.03303">
        <ele>145.6</ele>
      </trkpt>
      <trkpt lat="36.59641" lon="28.03305">
        <ele>145.9</ele>
      </trkpt>
      <trkpt lat="36.59644" lon="28.0331">
        <ele>145.3</ele>
      </trkpt>
      <trkpt lat="36.59647" lon="28.03316">
        <ele>144.8</ele>
      </trkpt>
      <trkpt lat="36.59649" lon="28.03319">
        <ele>144.5</ele>
      </trkpt>
      <trkpt lat="36.59652" lon="28.03324">
        <ele>143.9</ele>
      </trkpt>
      <trkpt lat="36.59653" lon="28.0333">
        <ele>143.8</ele>
      </trkpt>
      <trkpt lat="36.59654" lon="28.03332">
        <ele>143.6</ele>
      </trkpt>
      <trkpt lat="36.59656" lon="28.03334">
        <ele>143.2</ele>
      </trkpt>
      <trkpt lat="36.59658" lon="28.03336">
        <ele>142.6</ele>
      </trkpt>
      <trkpt lat="36.5966" lon="28.03339">
        <ele>141.9</ele>
      </trkpt>
      <trkpt lat="36.59664" lon="28.03341">
        <ele>140.6</ele>
      </trkpt>
      <trkpt lat="36.59665" lon="28.03343">
        <ele>140.3</ele>
      </trkpt>
      <trkpt lat="36.59668" lon="28.03348">
        <ele>139.3</ele>
      </trkpt>
      <trkpt lat="36.5967" lon="28.03349">
        <ele>138.3</ele>
      </trkpt>
      <trkpt lat="36.59672" lon="28.03353">
        <ele>137.5</ele>
      </trkpt>
      <trkpt lat="36.59675" lon="28.03355">
        <ele>136.2</ele>
      </trkpt>
      <trkpt lat="36.59676" lon="28.03355">
        <ele>135.9</ele>
      </trkpt>
      <trkpt lat="36.59678" lon="28.03357">
        <ele>135.4</ele>
      </trkpt>
      <trkpt lat="36.59681" lon="28.03357">
        <ele>134.2</ele>
      </trkpt>
      <trkpt lat="36.59681" lon="28.0336">
        <ele>134.3</ele>
      </trkpt>
      <trkpt lat="36.59682" lon="28.03361">
        <ele>133.7</ele>
      </trkpt>
      <trkpt lat="36.59683" lon="28.03363">
        <ele>133.4</ele>
      </trkpt>
      <trkpt lat="36.59683" lon="28.03367">
        <ele>133.7</ele>
      </trkpt>
      <trkpt lat="36.59684" lon="28.03373">
        <ele>133.3</ele>
      </trkpt>
      <trkpt lat="36.59685" lon="28.03376">
        <ele>132.8</ele>
      </trkpt>
      <trkpt lat="36.59686" lon="28.03382">
        <ele>132.6</ele>
      </trkpt>
      <trkpt lat="36.59687" lon="28.03383">
        <ele>132.3</ele>
      </trkpt>
      <trkpt lat="36.59688" lon="28.03386">
        <ele>132</ele>
      </trkpt>
      <trkpt lat="36.5969" lon="28.03388">
        <ele>131.3</ele>
      </trkpt>
      <trkpt lat="36.5969" lon="28.0339">
        <ele>131.3</ele>
      </trkpt>
      <trkpt lat="36.59692" lon="28.03394">
        <ele>130.8</ele>
      </trkpt>
      <trkpt lat="36.59693" lon="28.03394">
        <ele>130.4</ele>
      </trkpt>
      <trkpt lat="36.59698" lon="28.03394">
        <ele>129</ele>
      </trkpt>
      <trkpt lat="36.59704" lon="28.03395">
        <ele>127.4</ele>
      </trkpt>
      <trkpt lat="36.59704" lon="28.03395">
        <ele>127.4</ele>
      </trkpt>
      <trkpt lat="36.59709" lon="28.03392">
        <ele>125.6</ele>
      </trkpt>
      <trkpt lat="36.5971" lon="28.03391">
        <ele>125.2</ele>
      </trkpt>
      <trkpt lat="36.59717" lon="28.03391">
        <ele>123</ele>
      </trkpt>
      <trkpt lat="36.5972" lon="28.03388">
        <ele>121.9</ele>
      </trkpt>
      <trkpt lat="36.59722" lon="28.03386">
        <ele>121.2</ele>
      </trkpt>
      <trkpt lat="36.59725" lon="28.03387">
        <ele>120.3</ele>
      </trkpt>
      <trkpt lat="36.59726" lon="28.03387">
        <ele>120.1</ele>
      </trkpt>
      <trkpt lat="36.59729" lon="28.03384">
        <ele>118.9</ele>
      </trkpt>
      <trkpt lat="36.59733" lon="28.03384">
        <ele>117.6</ele>
      </trkpt>
      <trkpt lat="36.59735" lon="28.03384">
        <ele>117</ele>
      </trkpt>
      <trkpt lat="36.59735" lon="28.03384">
        <ele>117</ele>
      </trkpt>
      <trkpt lat="36.59736" lon="28.03383">
        <ele>116.7</ele>
      </trkpt>
      <trkpt lat="36.59736" lon="28.03383">
        <ele>116.4</ele>
      </trkpt>
      <trkpt lat="36.59741" lon="28.03381">
        <ele>114.8</ele>
      </trkpt>
      <trkpt lat="36.59742" lon="28.03379">
        <ele>114.3</ele>
      </trkpt>
      <trkpt lat="36.59741" lon="28.0338">
        <ele>114.4</ele>
      </trkpt>
      <trkpt lat="36.59743" lon="28.03379">
        <ele>113.9</ele>
      </trkpt>
      <trkpt lat="36.59744" lon="28.03382">
        <ele>113.9</ele>
      </trkpt>
      <trkpt lat="36.59747" lon="28.03384">
        <ele>112.9</ele>
      </trkpt>
      <trkpt lat="36.5975" lon="28.03388">
        <ele>112.7</ele>
      </trkpt>
      <trkpt lat="36.59752" lon="28.0339">
        <ele>112.3</ele>
      </trkpt>
      <trkpt lat="36.59756" lon="28.03388">
        <ele>110.7</ele>
      </trkpt>
      <trkpt lat="36.59758" lon="28.03388">
        <ele>110.2</ele>
      </trkpt>
      <trkpt lat="36.5976" lon="28.03391">
        <ele>110</ele>
      </trkpt>
      <trkpt lat="36.59761" lon="28.0339">
        <ele>109.6</ele>
      </trkpt>
      <trkpt lat="36.59761" lon="28.0339">
        <ele>109.6</ele>
      </trkpt>
      <trkpt lat="36.59763" lon="28.03396">
        <ele>109.6</ele>
      </trkpt>
      <trkpt lat="36.59765" lon="28.03397">
        <ele>109</ele>
      </trkpt>
      <trkpt lat="36.59768" lon="28.034">
        <ele>108.3</ele>
      </trkpt>
      <trkpt lat="36.5977" lon="28.03404">
        <ele>107.9</ele>
      </trkpt>
      <trkpt lat="36.59774" lon="28.03406">
        <ele>106.8</ele>
      </trkpt>
      <trkpt lat="36.59778" lon="28.03405">
        <ele>105.6</ele>
      </trkpt>
      <trkpt lat="36.5978" lon="28.03408">
        <ele>105.1</ele>
      </trkpt>
      <trkpt lat="36.59782" lon="28.03408">
        <ele>104.3</ele>
      </trkpt>
      <trkpt lat="36.59782" lon="28.03409">
        <ele>104.4</ele>
      </trkpt>
      <trkpt lat="36.59783" lon="28.03411">
        <ele>104</ele>
      </trkpt>
      <trkpt lat="36.59786" lon="28.03411">
        <ele>103.1</ele>
      </trkpt>
      <trkpt lat="36.5979" lon="28.03413">
        <ele>101.9</ele>
      </trkpt>
      <trkpt lat="36.59792" lon="28.03416">
        <ele>101.5</ele>
      </trkpt>
      <trkpt lat="36.59793" lon="28.03417">
        <ele>100.9</ele>
      </trkpt>
      <trkpt lat="36.59796" lon="28.03417">
        <ele>99.9</ele>
      </trkpt>
      <trkpt lat="36.59799" lon="28.03417">
        <ele>99</ele>
      </trkpt>
      <trkpt lat="36.59802" lon="28.03416">
        <ele>97.8</ele>
      </trkpt>
      <trkpt lat="36.59806" lon="28.03417">
        <ele>96.4</ele>
      </trkpt>
      <trkpt lat="36.59808" lon="28.03417">
        <ele>95.8</ele>
      </trkpt>
      <trkpt lat="36.59809" lon="28.03417">
        <ele>95.6</ele>
      </trkpt>
      <trkpt lat="36.59813" lon="28.03416">
        <ele>94.2</ele>
      </trkpt>
      <trkpt lat="36.59815" lon="28.03418">
        <ele>93.5</ele>
      </trkpt>
      <trkpt lat="36.59817" lon="28.03417">
        <ele>92.6</ele>
      </trkpt>
      <trkpt lat="36.59822" lon="28.03418">
        <ele>90.8</ele>
      </trkpt>
      <trkpt lat="36.59827" lon="28.03418">
        <ele>89.3</ele>
      </trkpt>
      <trkpt lat="36.5983" lon="28.03419">
        <ele>88.2</ele>
      </trkpt>
      <trkpt lat="36.59833" lon="28.0342">
        <ele>87</ele>
      </trkpt>
      <trkpt lat="36.59834" lon="28.03419">
        <ele>87</ele>
      </trkpt>
      <trkpt lat="36.59838" lon="28.0342">
        <ele>86.3</ele>
      </trkpt>
      <trkpt lat="36.59839" lon="28.0342">
        <ele>86.2</ele>
      </trkpt>
      <trkpt lat="36.59841" lon="28.03421">
        <ele>85.9</ele>
      </trkpt>
      <trkpt lat="36.59847" lon="28.0342">
        <ele>84.9</ele>
      </trkpt>
      <trkpt lat="36.59851" lon="28.03421">
        <ele>84.3</ele>
      </trkpt>
      <trkpt lat="36.59854" lon="28.03421">
        <ele>83.8</ele>
      </trkpt>
      <trkpt lat="36.59857" lon="28.0342">
        <ele>83.4</ele>
      </trkpt>
      <trkpt lat="36.59863" lon="28.03418">
        <ele>82.4</ele>
      </trkpt>
      <trkpt lat="36.59866" lon="28.0342">
        <ele>82</ele>
      </trkpt>
      <trkpt lat="36.59868" lon="28.03421">
        <ele>81.6</ele>
      </trkpt>
      <trkpt lat="36.59871" lon="28.03424">
        <ele>81.1</ele>
      </trkpt>
      <trkpt lat="36.59879" lon="28.03424">
        <ele>80</ele>
      </trkpt>
      <trkpt lat="36.59879" lon="28.03424">
        <ele>79.9</ele>
      </trkpt>
      <trkpt lat="36.59878" lon="28.03426">
        <ele>80.1</ele>
      </trkpt>
      <trkpt lat="36.59878" lon="28.03425">
        <ele>80.2</ele>
      </trkpt>
      <trkpt lat="36.59879" lon="28.03425">
        <ele>80</ele>
      </trkpt>
      <trkpt lat="36.59879" lon="28.03425">
        <ele>79.9</ele>
      </trkpt>
      <trkpt lat="36.59882" lon="28.03429">
        <ele>79.6</ele>
      </trkpt>
      <trkpt lat="36.59882" lon="28.03431">
        <ele>79.6</ele>
      </trkpt>
      <trkpt lat="36.59883" lon="28.03432">
        <ele>79.4</ele>
      </trkpt>
      <trkpt lat="36.59884" lon="28.03441">
        <ele>79.4</ele>
      </trkpt>
      <trkpt lat="36.59886" lon="28.03447">
        <ele>79.2</ele>
      </trkpt>
      <trkpt lat="36.59887" lon="28.03449">
        <ele>79.2</ele>
      </trkpt>
      <trkpt lat="36.59888" lon="28.03451">
        <ele>79</ele>
      </trkpt>
      <trkpt lat="36.59889" lon="28.03452">
        <ele>79</ele>
      </trkpt>
      <trkpt lat="36.59889" lon="28.03457">
        <ele>78.9</ele>
      </trkpt>
      <trkpt lat="36.59889" lon="28.03458">
        <ele>79</ele>
      </trkpt>
      <trkpt lat="36.59889" lon="28.03461">
        <ele>79</ele>
      </trkpt>
      <trkpt lat="36.59892" lon="28.03466">
        <ele>78.7</ele>
      </trkpt>
      <trkpt lat="36.59892" lon="28.03469">
        <ele>78.7</ele>
      </trkpt>
      <trkpt lat="36.59892" lon="28.03471">
        <ele>78.7</ele>
      </trkpt>
      <trkpt lat="36.59893" lon="28.03473">
        <ele>78.6</ele>
      </trkpt>
      <trkpt lat="36.59893" lon="28.03473">
        <ele>78.6</ele>
      </trkpt>
      <trkpt lat="36.59895" lon="28.03477">
        <ele>78.4</ele>
      </trkpt>
      <trkpt lat="36.59897" lon="28.0348">
        <ele>78.2</ele>
      </trkpt>
      <trkpt lat="36.59899" lon="28.03485">
        <ele>78</ele>
      </trkpt>
      <trkpt lat="36.59901" lon="28.03487">
        <ele>77.8</ele>
      </trkpt>
      <trkpt lat="36.59903" lon="28.03489">
        <ele>77.6</ele>
      </trkpt>
      <trkpt lat="36.59904" lon="28.03494">
        <ele>77.5</ele>
      </trkpt>
      <trkpt lat="36.59904" lon="28.03496">
        <ele>77.6</ele>
      </trkpt>
      <trkpt lat="36.59903" lon="28.03497">
        <ele>77.7</ele>
      </trkpt>
      <trkpt lat="36.59901" lon="28.03499">
        <ele>78.1</ele>
      </trkpt>
      <trkpt lat="36.599" lon="28.03503">
        <ele>78</ele>
      </trkpt>
      <trkpt lat="36.59899" lon="28.03506">
        <ele>78</ele>
      </trkpt>
      <trkpt lat="36.59899" lon="28.03508">
        <ele>77.8</ele>
      </trkpt>
      <trkpt lat="36.59899" lon="28.0351">
        <ele>77.6</ele>
      </trkpt>
      <trkpt lat="36.59898" lon="28.03512">
        <ele>77.7</ele>
      </trkpt>
      <trkpt lat="36.59897" lon="28.03515">
        <ele>77.7</ele>
      </trkpt>
      <trkpt lat="36.59896" lon="28.03518">
        <ele>77.6</ele>
      </trkpt>
      <trkpt lat="36.59895" lon="28.03519">
        <ele>77.5</ele>
      </trkpt>
      <trkpt lat="36.59895" lon="28.03522">
        <ele>77.3</ele>
      </trkpt>
      <trkpt lat="36.59895" lon="28.03524">
        <ele>77.2</ele>
      </trkpt>
      <trkpt lat="36.59896" lon="28.03527">
        <ele>76.9</ele>
      </trkpt>
      <trkpt lat="36.59896" lon="28.03529">
        <ele>76.8</ele>
      </trkpt>
      <trkpt lat="36.59895" lon="28.03533">
        <ele>76.6</ele>
      </trkpt>
      <trkpt lat="36.59895" lon="28.03534">
        <ele>76.5</ele>
      </trkpt>
      <trkpt lat="36.59896" lon="28.03538">
        <ele>76.1</ele>
      </trkpt>
      <trkpt lat="36.59895" lon="28.03538">
        <ele>76.2</ele>
      </trkpt>
      <trkpt lat="36.59895" lon="28.03538">
        <ele>76.2</ele>
      </trkpt>
      <trkpt lat="36.59895" lon="28.03543">
        <ele>75.9</ele>
      </trkpt>
      <trkpt lat="36.59895" lon="28.03546">
        <ele>75.7</ele>
      </trkpt>
      <trkpt lat="36.59897" lon="28.03552">
        <ele>75.1</ele>
      </trkpt>
      <trkpt lat="36.59897" lon="28.03553">
        <ele>74.9</ele>
      </trkpt>
      <trkpt lat="36.599" lon="28.03557">
        <ele>74.2</ele>
      </trkpt>
      <trkpt lat="36.599" lon="28.0356">
        <ele>74</ele>
      </trkpt>
      <trkpt lat="36.599" lon="28.03561">
        <ele>73.9</ele>
      </trkpt>
      <trkpt lat="36.599" lon="28.0357">
        <ele>73.3</ele>
      </trkpt>
      <trkpt lat="36.59901" lon="28.03575">
        <ele>72.9</ele>
      </trkpt>
      <trkpt lat="36.59903" lon="28.03572">
        <ele>72.7</ele>
      </trkpt>
      <trkpt lat="36.59904" lon="28.03573">
        <ele>72.6</ele>
      </trkpt>
      <trkpt lat="36.59898" lon="28.03575">
        <ele>73.2</ele>
      </trkpt>
      <trkpt lat="36.59894" lon="28.03581">
        <ele>73.4</ele>
      </trkpt>
      <trkpt lat="36.59892" lon="28.03586">
        <ele>73.6</ele>
      </trkpt>
      <trkpt lat="36.5989" lon="28.0359">
        <ele>74</ele>
      </trkpt>
      <trkpt lat="36.59891" lon="28.03596">
        <ele>73.9</ele>
      </trkpt>
      <trkpt lat="36.59892" lon="28.03598">
        <ele>73.8</ele>
      </trkpt>
      <trkpt lat="36.59891" lon="28.03603">
        <ele>74</ele>
      </trkpt>
      <trkpt lat="36.59889" lon="28.03604">
        <ele>74.2</ele>
      </trkpt>
      <trkpt lat="36.59886" lon="28.03609">
        <ele>74.7</ele>
      </trkpt>
      <trkpt lat="36.59882" lon="28.03614">
        <ele>75.2</ele>
      </trkpt>
      <trkpt lat="36.59881" lon="28.03618">
        <ele>75.3</ele>
      </trkpt>
      <trkpt lat="36.59879" lon="28.03619">
        <ele>75.6</ele>
      </trkpt>
      <trkpt lat="36.59878" lon="28.0362">
        <ele>75.7</ele>
      </trkpt>
      <trkpt lat="36.59877" lon="28.03621">
        <ele>75.8</ele>
      </trkpt>
      <trkpt lat="36.59878" lon="28.03622">
        <ele>75.7</ele>
      </trkpt>
      <trkpt lat="36.59877" lon="28.03623">
        <ele>75.7</ele>
      </trkpt>
      <trkpt lat="36.59876" lon="28.03628">
        <ele>75.9</ele>
      </trkpt>
      <trkpt lat="36.59874" lon="28.0363">
        <ele>76.1</ele>
      </trkpt>
      <trkpt lat="36.59872" lon="28.03633">
        <ele>76.3</ele>
      </trkpt>
      <trkpt lat="36.59875" lon="28.03633">
        <ele>76</ele>
      </trkpt>
      <trkpt lat="36.5988" lon="28.03632">
        <ele>75.5</ele>
      </trkpt>
      <trkpt lat="36.59883" lon="28.03633">
        <ele>75.2</ele>
      </trkpt>
      <trkpt lat="36.59883" lon="28.03636">
        <ele>75.2</ele>
      </trkpt>
      <trkpt lat="36.59884" lon="28.0364">
        <ele>75.1</ele>
      </trkpt>
      <trkpt lat="36.59885" lon="28.03644">
        <ele>75</ele>
      </trkpt>
      <trkpt lat="36.59886" lon="28.03644">
        <ele>75</ele>
      </trkpt>
      <trkpt lat="36.59886" lon="28.03648">
        <ele>75</ele>
      </trkpt>
      <trkpt lat="36.59887" lon="28.03651">
        <ele>75</ele>
      </trkpt>
      <trkpt lat="36.59887" lon="28.03652">
        <ele>75</ele>
      </trkpt>
      <trkpt lat="36.59888" lon="28.03655">
        <ele>74.9</ele>
      </trkpt>
      <trkpt lat="36.59889" lon="28.03656">
        <ele>74.9</ele>
      </trkpt>
      <trkpt lat="36.59889" lon="28.03656">
        <ele>74.9</ele>
      </trkpt>
      <trkpt lat="36.59889" lon="28.03661">
        <ele>74.9</ele>
      </trkpt>
      <trkpt lat="36.59889" lon="28.03668">
        <ele>75.1</ele>
      </trkpt>
      <trkpt lat="36.59889" lon="28.03666">
        <ele>75</ele>
      </trkpt>
      <trkpt lat="36.5989" lon="28.03669">
        <ele>75.2</ele>
      </trkpt>
      <trkpt lat="36.59892" lon="28.03674">
        <ele>75.6</ele>
      </trkpt>
      <trkpt lat="36.59892" lon="28.03677">
        <ele>75.9</ele>
      </trkpt>
      <trkpt lat="36.59893" lon="28.03679">
        <ele>76.1</ele>
      </trkpt>
      <trkpt lat="36.59894" lon="28.03682">
        <ele>76.4</ele>
      </trkpt>
      <trkpt lat="36.59895" lon="28.03684">
        <ele>76.6</ele>
      </trkpt>
      <trkpt lat="36.59898" lon="28.03687">
        <ele>76.8</ele>
      </trkpt>
      <trkpt lat="36.59901" lon="28.03691">
        <ele>77.1</ele>
      </trkpt>
      <trkpt lat="36.59902" lon="28.03694">
        <ele>77.4</ele>
      </trkpt>
      <trkpt lat="36.59903" lon="28.03695">
        <ele>77.5</ele>
      </trkpt>
      <trkpt lat="36.59904" lon="28.03698">
        <ele>77.9</ele>
      </trkpt>
      <trkpt lat="36.59904" lon="28.03702">
        <ele>78.4</ele>
      </trkpt>
      <trkpt lat="36.59905" lon="28.03706">
        <ele>78.9</ele>
      </trkpt>
      <trkpt lat="36.59905" lon="28.03708">
        <ele>79.2</ele>
      </trkpt>
      <trkpt lat="36.59906" lon="28.03713">
        <ele>79.8</ele>
      </trkpt>
      <trkpt lat="36.59908" lon="28.03713">
        <ele>79.7</ele>
      </trkpt>
      <trkpt lat="36.59911" lon="28.03714">
        <ele>79.8</ele>
      </trkpt>
      <trkpt lat="36.59914" lon="28.03713">
        <ele>79.7</ele>
      </trkpt>
      <trkpt lat="36.59917" lon="28.03712">
        <ele>79.6</ele>
      </trkpt>
      <trkpt lat="36.59921" lon="28.03714">
        <ele>79.7</ele>
      </trkpt>
      <trkpt lat="36.59923" lon="28.03715">
        <ele>79.8</ele>
      </trkpt>
      <trkpt lat="36.59928" lon="28.03715">
        <ele>79.6</ele>
      </trkpt>
      <trkpt lat="36.59929" lon="28.03714">
        <ele>79.4</ele>
      </trkpt>
      <trkpt lat="36.59931" lon="28.03714">
        <ele>79.4</ele>
      </trkpt>
      <trkpt lat="36.59938" lon="28.03715">
        <ele>79.4</ele>
      </trkpt>
      <trkpt lat="36.59941" lon="28.03719">
        <ele>79.8</ele>
      </trkpt>
      <trkpt lat="36.59943" lon="28.0372">
        <ele>80</ele>
      </trkpt>
      <trkpt lat="36.59947" lon="28.03722">
        <ele>80.2</ele>
      </trkpt>
      <trkpt lat="36.59948" lon="28.03723">
        <ele>80.4</ele>
      </trkpt>
      <trkpt lat="36.5995" lon="28.03724">
        <ele>80.5</ele>
      </trkpt>
      <trkpt lat="36.59951" lon="28.03726">
        <ele>80.9</ele>
      </trkpt>
      <trkpt lat="36.59956" lon="28.0373">
        <ele>81.4</ele>
      </trkpt>
      <trkpt lat="36.59959" lon="28.03732">
        <ele>81.8</ele>
      </trkpt>
      <trkpt lat="36.59963" lon="28.03735">
        <ele>82.3</ele>
      </trkpt>
      <trkpt lat="36.59967" lon="28.03737">
        <ele>82.5</ele>
      </trkpt>
      <trkpt lat="36.59971" lon="28.03738">
        <ele>82.7</ele>
      </trkpt>
      <trkpt lat="36.59973" lon="28.0374">
        <ele>83</ele>
      </trkpt>
      <trkpt lat="36.59977" lon="28.03742">
        <ele>83.5</ele>
      </trkpt>
      <trkpt lat="36.59979" lon="28.03744">
        <ele>83.7</ele>
      </trkpt>
      <trkpt lat="36.59982" lon="28.03747">
        <ele>84.4</ele>
      </trkpt>
      <trkpt lat="36.59986" lon="28.03747">
        <ele>84.4</ele>
      </trkpt>
      <trkpt lat="36.59988" lon="28.03748">
        <ele>84.5</ele>
      </trkpt>
      <trkpt lat="36.59991" lon="28.0375">
        <ele>85</ele>
      </trkpt>
      <trkpt lat="36.59994" lon="28.03752">
        <ele>85.4</ele>
      </trkpt>
      <trkpt lat="36.59996" lon="28.03752">
        <ele>85.4</ele>
      </trkpt>
      <trkpt lat="36.59998" lon="28.03754">
        <ele>85.7</ele>
      </trkpt>
      <trkpt lat="36.60001" lon="28.03756">
        <ele>86</ele>
      </trkpt>
      <trkpt lat="36.60002" lon="28.03755">
        <ele>85.9</ele>
      </trkpt>
      <trkpt lat="36.60008" lon="28.0376">
        <ele>86.4</ele>
      </trkpt>
      <trkpt lat="36.6001" lon="28.03762">
        <ele>86.6</ele>
      </trkpt>
      <trkpt lat="36.60011" lon="28.03765">
        <ele>87</ele>
      </trkpt>
      <trkpt lat="36.60015" lon="28.03769">
        <ele>87.5</ele>
      </trkpt>
      <trkpt lat="36.60017" lon="28.03771">
        <ele>87.8</ele>
      </trkpt>
      <trkpt lat="36.60018" lon="28.03772">
        <ele>87.8</ele>
      </trkpt>
      <trkpt lat="36.60019" lon="28.03773">
        <ele>87.9</ele>
      </trkpt>
      <trkpt lat="36.60023" lon="28.03774">
        <ele>87.8</ele>
      </trkpt>
      <trkpt lat="36.60024" lon="28.03779">
        <ele>88.5</ele>
      </trkpt>
      <trkpt lat="36.60026" lon="28.0378">
        <ele>88.6</ele>
      </trkpt>
      <trkpt lat="36.6003" lon="28.03784">
        <ele>88.8</ele>
      </trkpt>
      <trkpt lat="36.60035" lon="28.03786">
        <ele>88.7</ele>
      </trkpt>
      <trkpt lat="36.60036" lon="28.03787">
        <ele>88.8</ele>
      </trkpt>
      <trkpt lat="36.60037" lon="28.03789">
        <ele>89</ele>
      </trkpt>
      <trkpt lat="36.60042" lon="28.03792">
        <ele>89</ele>
      </trkpt>
      <trkpt lat="36.60045" lon="28.03794">
        <ele>89</ele>
      </trkpt>
      <trkpt lat="36.60046" lon="28.03795">
        <ele>89.1</ele>
      </trkpt>
      <trkpt lat="36.60048" lon="28.03798">
        <ele>89.4</ele>
      </trkpt>
      <trkpt lat="36.6005" lon="28.03799">
        <ele>89.2</ele>
      </trkpt>
      <trkpt lat="36.60051" lon="28.03803">
        <ele>89.8</ele>
      </trkpt>
      <trkpt lat="36.60055" lon="28.03808">
        <ele>90</ele>
      </trkpt>
      <trkpt lat="36.60057" lon="28.0381">
        <ele>90.2</ele>
      </trkpt>
      <trkpt lat="36.60058" lon="28.0381">
        <ele>90.1</ele>
      </trkpt>
      <trkpt lat="36.60062" lon="28.03817">
        <ele>90.6</ele>
      </trkpt>
      <trkpt lat="36.60063" lon="28.03821">
        <ele>90.9</ele>
      </trkpt>
      <trkpt lat="36.60065" lon="28.03823">
        <ele>90.9</ele>
      </trkpt>
      <trkpt lat="36.60067" lon="28.03826">
        <ele>91.1</ele>
      </trkpt>
      <trkpt lat="36.60071" lon="28.03831">
        <ele>91.3</ele>
      </trkpt>
      <trkpt lat="36.60072" lon="28.03833">
        <ele>91.5</ele>
      </trkpt>
      <trkpt lat="36.60074" lon="28.03834">
        <ele>91.4</ele>
      </trkpt>
      <trkpt lat="36.60074" lon="28.03836">
        <ele>91.6</ele>
      </trkpt>
      <trkpt lat="36.60075" lon="28.03839">
        <ele>91.8</ele>
      </trkpt>
      <trkpt lat="36.60076" lon="28.0384">
        <ele>91.8</ele>
      </trkpt>
      <trkpt lat="36.60079" lon="28.03843">
        <ele>91.8</ele>
      </trkpt>
      <trkpt lat="36.60079" lon="28.03845">
        <ele>92</ele>
      </trkpt>
      <trkpt lat="36.60081" lon="28.0385">
        <ele>92.4</ele>
      </trkpt>
      <trkpt lat="36.60083" lon="28.03854">
        <ele>92.5</ele>
      </trkpt>
      <trkpt lat="36.60083" lon="28.03856">
        <ele>92.7</ele>
      </trkpt>
      <trkpt lat="36.60084" lon="28.03856">
        <ele>92.7</ele>
      </trkpt>
      <trkpt lat="36.60084" lon="28.03859">
        <ele>93</ele>
      </trkpt>
      <trkpt lat="36.60085" lon="28.03863">
        <ele>93.3</ele>
      </trkpt>
      <trkpt lat="36.60087" lon="28.0387">
        <ele>94</ele>
      </trkpt>
      <trkpt lat="36.60088" lon="28.03873">
        <ele>94.3</ele>
      </trkpt>
      <trkpt lat="36.60088" lon="28.03874">
        <ele>94.4</ele>
      </trkpt>
      <trkpt lat="36.60088" lon="28.03877">
        <ele>94.8</ele>
      </trkpt>
      <trkpt lat="36.60089" lon="28.03881">
        <ele>95.1</ele>
      </trkpt>
      <trkpt lat="36.60092" lon="28.03885">
        <ele>95.3</ele>
      </trkpt>
      <trkpt lat="36.60094" lon="28.03889">
        <ele>95.5</ele>
      </trkpt>
      <trkpt lat="36.60096" lon="28.03895">
        <ele>96.1</ele>
      </trkpt>
      <trkpt lat="36.60095" lon="28.03896">
        <ele>96.3</ele>
      </trkpt>
      <trkpt lat="36.60096" lon="28.03903">
        <ele>97.1</ele>
      </trkpt>
      <trkpt lat="36.60098" lon="28.03908">
        <ele>97.5</ele>
      </trkpt>
      <trkpt lat="36.60098" lon="28.03909">
        <ele>97.6</ele>
      </trkpt>
      <trkpt lat="36.60098" lon="28.03914">
        <ele>98</ele>
      </trkpt>
      <trkpt lat="36.601" lon="28.03919">
        <ele>98.4</ele>
      </trkpt>
      <trkpt lat="36.60099" lon="28.03922">
        <ele>98.7</ele>
      </trkpt>
      <trkpt lat="36.60101" lon="28.03924">
        <ele>98.8</ele>
      </trkpt>
      <trkpt lat="36.60102" lon="28.0393">
        <ele>99.2</ele>
      </trkpt>
      <trkpt lat="36.60103" lon="28.03934">
        <ele>99.6</ele>
      </trkpt>
      <trkpt lat="36.60103" lon="28.0394">
        <ele>100.1</ele>
      </trkpt>
      <trkpt lat="36.60103" lon="28.03946">
        <ele>100.6</ele>
      </trkpt>
      <trkpt lat="36.60103" lon="28.03947">
        <ele>100.7</ele>
      </trkpt>
      <trkpt lat="36.60104" lon="28.03951">
        <ele>101</ele>
      </trkpt>
      <trkpt lat="36.60103" lon="28.03957">
        <ele>101.7</ele>
      </trkpt>
      <trkpt lat="36.60103" lon="28.03963">
        <ele>102.2</ele>
      </trkpt>
      <trkpt lat="36.60103" lon="28.03965">
        <ele>102.3</ele>
      </trkpt>
      <trkpt lat="36.60103" lon="28.03972">
        <ele>103</ele>
      </trkpt>
      <trkpt lat="36.60103" lon="28.03978">
        <ele>103.6</ele>
      </trkpt>
      <trkpt lat="36.60105" lon="28.03984">
        <ele>103.9</ele>
      </trkpt>
      <trkpt lat="36.60105" lon="28.03985">
        <ele>104.1</ele>
      </trkpt>
      <trkpt lat="36.60106" lon="28.03987">
        <ele>104.1</ele>
      </trkpt>
      <trkpt lat="36.60107" lon="28.03993">
        <ele>104.4</ele>
      </trkpt>
      <trkpt lat="36.60108" lon="28.03998">
        <ele>104.9</ele>
      </trkpt>
      <trkpt lat="36.60108" lon="28.04002">
        <ele>105.2</ele>
      </trkpt>
      <trkpt lat="36.60107" lon="28.04006">
        <ele>105.4</ele>
      </trkpt>
      <trkpt lat="36.60107" lon="28.04012">
        <ele>105.6</ele>
      </trkpt>
      <trkpt lat="36.60106" lon="28.04017">
        <ele>105.9</ele>
      </trkpt>
      <trkpt lat="36.60105" lon="28.04021">
        <ele>106.1</ele>
      </trkpt>
      <trkpt lat="36.60106" lon="28.04026">
        <ele>106.2</ele>
      </trkpt>
      <trkpt lat="36.60106" lon="28.04029">
        <ele>106.3</ele>
      </trkpt>
      <trkpt lat="36.60107" lon="28.04032">
        <ele>106.4</ele>
      </trkpt>
      <trkpt lat="36.60106" lon="28.04036">
        <ele>106.6</ele>
      </trkpt>
      <trkpt lat="36.60108" lon="28.04041">
        <ele>106.6</ele>
      </trkpt>
      <trkpt lat="36.60107" lon="28.04046">
        <ele>106.8</ele>
      </trkpt>
      <trkpt lat="36.60106" lon="28.04052">
        <ele>107.2</ele>
      </trkpt>
      <trkpt lat="36.60106" lon="28.04055">
        <ele>107.3</ele>
      </trkpt>
      <trkpt lat="36.60105" lon="28.04059">
        <ele>107.5</ele>
      </trkpt>
      <trkpt lat="36.60104" lon="28.0406">
        <ele>107.7</ele>
      </trkpt>
      <trkpt lat="36.60104" lon="28.04067">
        <ele>107.9</ele>
      </trkpt>
      <trkpt lat="36.60103" lon="28.04071">
        <ele>108.2</ele>
      </trkpt>
      <trkpt lat="36.60103" lon="28.04073">
        <ele>108.2</ele>
      </trkpt>
      <trkpt lat="36.60105" lon="28.04076">
        <ele>108.2</ele>
      </trkpt>
      <trkpt lat="36.60104" lon="28.04081">
        <ele>108.4</ele>
      </trkpt>
      <trkpt lat="36.60104" lon="28.04087">
        <ele>108.6</ele>
      </trkpt>
      <trkpt lat="36.60105" lon="28.04096">
        <ele>108.7</ele>
      </trkpt>
      <trkpt lat="36.60103" lon="28.04105">
        <ele>109</ele>
      </trkpt>
      <trkpt lat="36.60101" lon="28.04116">
        <ele>109.2</ele>
      </trkpt>
      <trkpt lat="36.60101" lon="28.04116">
        <ele>109.2</ele>
      </trkpt>
      <trkpt lat="36.60103" lon="28.04122">
        <ele>109.3</ele>
      </trkpt>
      <trkpt lat="36.60103" lon="28.04125">
        <ele>109.3</ele>
      </trkpt>
      <trkpt lat="36.60103" lon="28.04131">
        <ele>109.4</ele>
      </trkpt>
      <trkpt lat="36.60102" lon="28.04132">
        <ele>109.4</ele>
      </trkpt>
      <trkpt lat="36.601" lon="28.04136">
        <ele>109.6</ele>
      </trkpt>
      <trkpt lat="36.60102" lon="28.04143">
        <ele>109.6</ele>
      </trkpt>
      <trkpt lat="36.60103" lon="28.04147">
        <ele>109.7</ele>
      </trkpt>
      <trkpt lat="36.60103" lon="28.04154">
        <ele>109.8</ele>
      </trkpt>
      <trkpt lat="36.60104" lon="28.04158">
        <ele>109.8</ele>
      </trkpt>
      <trkpt lat="36.60105" lon="28.04161">
        <ele>109.9</ele>
      </trkpt>
      <trkpt lat="36.60102" lon="28.04169">
        <ele>110</ele>
      </trkpt>
      <trkpt lat="36.60102" lon="28.04171">
        <ele>110.1</ele>
      </trkpt>
      <trkpt lat="36.60102" lon="28.04178">
        <ele>110.2</ele>
      </trkpt>
      <trkpt lat="36.60101" lon="28.04186">
        <ele>110.3</ele>
      </trkpt>
      <trkpt lat="36.60101" lon="28.04189">
        <ele>110.3</ele>
      </trkpt>
      <trkpt lat="36.601" lon="28.04189">
        <ele>110.3</ele>
      </trkpt>
      <trkpt lat="36.601" lon="28.04189">
        <ele>110.3</ele>
      </trkpt>
      <trkpt lat="36.60101" lon="28.04192">
        <ele>110.3</ele>
      </trkpt>
      <trkpt lat="36.60101" lon="28.04193">
        <ele>110.4</ele>
      </trkpt>
      <trkpt lat="36.60101" lon="28.04194">
        <ele>110.4</ele>
      </trkpt>
      <trkpt lat="36.60104" lon="28.042">
        <ele>110.4</ele>
      </trkpt>
      <trkpt lat="36.60106" lon="28.04202">
        <ele>110.4</ele>
      </trkpt>
      <trkpt lat="36.60105" lon="28.04205">
        <ele>110.4</ele>
      </trkpt>
      <trkpt lat="36.60106" lon="28.04206">
        <ele>110.4</ele>
      </trkpt>
      <trkpt lat="36.60108" lon="28.04207">
        <ele>110.4</ele>
      </trkpt>
      <trkpt lat="36.60109" lon="28.04209">
        <ele>110.4</ele>
      </trkpt>
      <trkpt lat="36.60115" lon="28.04213">
        <ele>110.3</ele>
      </trkpt>
      <trkpt lat="36.60118" lon="28.04217">
        <ele>110.2</ele>
      </trkpt>
      <trkpt lat="36.60117" lon="28.04217">
        <ele>110.2</ele>
      </trkpt>
      <trkpt lat="36.60118" lon="28.04218">
        <ele>110.2</ele>
      </trkpt>
      <trkpt lat="36.60122" lon="28.04222">
        <ele>110.1</ele>
      </trkpt>
      <trkpt lat="36.60124" lon="28.04224">
        <ele>110</ele>
      </trkpt>
      <trkpt lat="36.60124" lon="28.04225">
        <ele>110</ele>
      </trkpt>
      <trkpt lat="36.60127" lon="28.04227">
        <ele>109.9</ele>
      </trkpt>
      <trkpt lat="36.60127" lon="28.0423">
        <ele>109.9</ele>
      </trkpt>
      <trkpt lat="36.60128" lon="28.04232">
        <ele>109.9</ele>
      </trkpt>
      <trkpt lat="36.60128" lon="28.04235">
        <ele>109.9</ele>
      </trkpt>
      <trkpt lat="36.60128" lon="28.04235">
        <ele>109.9</ele>
      </trkpt>
      <trkpt lat="36.60133" lon="28.04239">
        <ele>109.7</ele>
      </trkpt>
      <trkpt lat="36.60134" lon="28.04243">
        <ele>109.6</ele>
      </trkpt>
      <trkpt lat="36.60134" lon="28.04245">
        <ele>109.6</ele>
      </trkpt>
      <trkpt lat="36.60137" lon="28.0425">
        <ele>109.4</ele>
      </trkpt>
      <trkpt lat="36.6014" lon="28.04253">
        <ele>109.3</ele>
      </trkpt>
      <trkpt lat="36.6014" lon="28.04253">
        <ele>109.3</ele>
      </trkpt>
      <trkpt lat="36.60142" lon="28.04256">
        <ele>109.2</ele>
      </trkpt>
      <trkpt lat="36.60144" lon="28.04259">
        <ele>109.1</ele>
      </trkpt>
      <trkpt lat="36.60145" lon="28.04265">
        <ele>109.1</ele>
      </trkpt>
      <trkpt lat="36.60146" lon="28.04269">
        <ele>109</ele>
      </trkpt>
      <trkpt lat="36.60146" lon="28.0427">
        <ele>109</ele>
      </trkpt>
      <trkpt lat="36.6015" lon="28.04274">
        <ele>108.7</ele>
      </trkpt>
      <trkpt lat="36.60153" lon="28.04277">
        <ele>108.4</ele>
      </trkpt>
      <trkpt lat="36.60154" lon="28.04278">
        <ele>108.3</ele>
      </trkpt>
      <trkpt lat="36.60155" lon="28.04281">
        <ele>108.3</ele>
      </trkpt>
      <trkpt lat="36.60155" lon="28.04282">
        <ele>108.2</ele>
      </trkpt>
      <trkpt lat="36.60158" lon="28.04287">
        <ele>107.9</ele>
      </trkpt>
      <trkpt lat="36.60158" lon="28.04288">
        <ele>107.9</ele>
      </trkpt>
      <trkpt lat="36.60162" lon="28.04291">
        <ele>107.5</ele>
      </trkpt>
      <trkpt lat="36.60164" lon="28.04295">
        <ele>107.1</ele>
      </trkpt>
      <trkpt lat="36.60166" lon="28.04297">
        <ele>107</ele>
      </trkpt>
      <trkpt lat="36.60167" lon="28.04298">
        <ele>106.9</ele>
      </trkpt>
      <trkpt lat="36.60171" lon="28.04302">
        <ele>105.7</ele>
      </trkpt>
      <trkpt lat="36.60175" lon="28.04305">
        <ele>104.7</ele>
      </trkpt>
      <trkpt lat="36.60176" lon="28.04306">
        <ele>104.5</ele>
      </trkpt>
      <trkpt lat="36.60177" lon="28.04312">
        <ele>104.1</ele>
      </trkpt>
      <trkpt lat="36.60179" lon="28.04313">
        <ele>103.4</ele>
      </trkpt>
      <trkpt lat="36.60179" lon="28.04317">
        <ele>103.4</ele>
      </trkpt>
      <trkpt lat="36.60179" lon="28.04318">
        <ele>103.3</ele>
      </trkpt>
      <trkpt lat="36.6018" lon="28.04323">
        <ele>102.7</ele>
      </trkpt>
      <trkpt lat="36.60184" lon="28.04328">
        <ele>101.6</ele>
      </trkpt>
      <trkpt lat="36.60186" lon="28.04334">
        <ele>100.9</ele>
      </trkpt>
      <trkpt lat="36.60185" lon="28.04337">
        <ele>100.9</ele>
      </trkpt>
      <trkpt lat="36.60186" lon="28.0434">
        <ele>100.8</ele>
      </trkpt>
      <trkpt lat="36.60187" lon="28.04346">
        <ele>100.4</ele>
      </trkpt>
      <trkpt lat="36.60187" lon="28.04347">
        <ele>100.2</ele>
      </trkpt>
      <trkpt lat="36.60189" lon="28.04348">
        <ele>99.8</ele>
      </trkpt>
      <trkpt lat="36.60188" lon="28.04351">
        <ele>100</ele>
      </trkpt>
      <trkpt lat="36.60189" lon="28.04354">
        <ele>99.5</ele>
      </trkpt>
      <trkpt lat="36.60191" lon="28.0436">
        <ele>99</ele>
      </trkpt>
      <trkpt lat="36.60191" lon="28.04361">
        <ele>98.8</ele>
      </trkpt>
      <trkpt lat="36.60195" lon="28.04364">
        <ele>97.8</ele>
      </trkpt>
      <trkpt lat="36.60197" lon="28.04367">
        <ele>97.1</ele>
      </trkpt>
      <trkpt lat="36.60197" lon="28.04368">
        <ele>96.9</ele>
      </trkpt>
      <trkpt lat="36.60197" lon="28.04368">
        <ele>96.9</ele>
      </trkpt>
      <trkpt lat="36.60199" lon="28.04371">
        <ele>96.5</ele>
      </trkpt>
      <trkpt lat="36.60202" lon="28.04374">
        <ele>95.5</ele>
      </trkpt>
      <trkpt lat="36.60202" lon="28.04376">
        <ele>95.3</ele>
      </trkpt>
      <trkpt lat="36.60205" lon="28.04378">
        <ele>94.6</ele>
      </trkpt>
      <trkpt lat="36.60208" lon="28.04384">
        <ele>93.6</ele>
      </trkpt>
      <trkpt lat="36.6021" lon="28.0439">
        <ele>92.7</ele>
      </trkpt>
      <trkpt lat="36.60211" lon="28.04392">
        <ele>92.5</ele>
      </trkpt>
      <trkpt lat="36.60216" lon="28.04396">
        <ele>91.1</ele>
      </trkpt>
      <trkpt lat="36.60217" lon="28.044">
        <ele>90.6</ele>
      </trkpt>
      <trkpt lat="36.60219" lon="28.04403">
        <ele>90.1</ele>
      </trkpt>
      <trkpt lat="36.60219" lon="28.04406">
        <ele>89.9</ele>
      </trkpt>
      <trkpt lat="36.60219" lon="28.04408">
        <ele>89.8</ele>
      </trkpt>
      <trkpt lat="36.6022" lon="28.0441">
        <ele>89.5</ele>
      </trkpt>
      <trkpt lat="36.60223" lon="28.04413">
        <ele>88.7</ele>
      </trkpt>
      <trkpt lat="36.60226" lon="28.04417">
        <ele>87.8</ele>
      </trkpt>
      <trkpt lat="36.60227" lon="28.04418">
        <ele>87.4</ele>
      </trkpt>
      <trkpt lat="36.60229" lon="28.04423">
        <ele>86.9</ele>
      </trkpt>
      <trkpt lat="36.6023" lon="28.04423">
        <ele>86.9</ele>
      </trkpt>
      <trkpt lat="36.60233" lon="28.04425">
        <ele>86.2</ele>
      </trkpt>
      <trkpt lat="36.60235" lon="28.04433">
        <ele>85.7</ele>
      </trkpt>
      <trkpt lat="36.60239" lon="28.04438">
        <ele>85</ele>
      </trkpt>
      <trkpt lat="36.60239" lon="28.04444">
        <ele>85</ele>
      </trkpt>
      <trkpt lat="36.60239" lon="28.04444">
        <ele>85</ele>
      </trkpt>
      <trkpt lat="36.60239" lon="28.04446">
        <ele>85.3</ele>
      </trkpt>
      <trkpt lat="36.6024" lon="28.04452">
        <ele>85</ele>
      </trkpt>
      <trkpt lat="36.6024" lon="28.04455">
        <ele>85.1</ele>
      </trkpt>
      <trkpt lat="36.6024" lon="28.04458">
        <ele>85.2</ele>
      </trkpt>
      <trkpt lat="36.60243" lon="28.04466">
        <ele>84.7</ele>
      </trkpt>
      <trkpt lat="36.60244" lon="28.04468">
        <ele>84.6</ele>
      </trkpt>
      <trkpt lat="36.60247" lon="28.04479">
        <ele>84.1</ele>
      </trkpt>
      <trkpt lat="36.60249" lon="28.04485">
        <ele>83.9</ele>
      </trkpt>
      <trkpt lat="36.6025" lon="28.04491">
        <ele>83.8</ele>
      </trkpt>
      <trkpt lat="36.6025" lon="28.04495">
        <ele>83.9</ele>
      </trkpt>
      <trkpt lat="36.60253" lon="28.045">
        <ele>83.1</ele>
      </trkpt>
      <trkpt lat="36.60254" lon="28.04506">
        <ele>82.7</ele>
      </trkpt>
      <trkpt lat="36.60255" lon="28.0451">
        <ele>82.4</ele>
      </trkpt>
      <trkpt lat="36.60257" lon="28.04515">
        <ele>81.9</ele>
      </trkpt>
      <trkpt lat="36.60258" lon="28.04525">
        <ele>81.5</ele>
      </trkpt>
      <trkpt lat="36.60258" lon="28.04528">
        <ele>81.7</ele>
      </trkpt>
      <trkpt lat="36.6026" lon="28.04534">
        <ele>81</ele>
      </trkpt>
      <trkpt lat="36.60262" lon="28.04535">
        <ele>80.4</ele>
      </trkpt>
      <trkpt lat="36.60262" lon="28.04537">
        <ele>80.2</ele>
      </trkpt>
      <trkpt lat="36.60263" lon="28.04541">
        <ele>79.9</ele>
      </trkpt>
      <trkpt lat="36.60264" lon="28.04545">
        <ele>79.8</ele>
      </trkpt>
      <trkpt lat="36.60264" lon="28.04548">
        <ele>79.8</ele>
      </trkpt>
      <trkpt lat="36.60264" lon="28.0455">
        <ele>79.9</ele>
      </trkpt>
      <trkpt lat="36.60266" lon="28.04554">
        <ele>78.9</ele>
      </trkpt>
      <trkpt lat="36.6027" lon="28.04559">
        <ele>77.5</ele>
      </trkpt>
      <trkpt lat="36.60271" lon="28.04561">
        <ele>77.4</ele>
      </trkpt>
      <trkpt lat="36.60272" lon="28.04567">
        <ele>77.1</ele>
      </trkpt>
      <trkpt lat="36.60272" lon="28.04568">
        <ele>77.2</ele>
      </trkpt>
      <trkpt lat="36.60274" lon="28.04572">
        <ele>76.5</ele>
      </trkpt>
      <trkpt lat="36.60276" lon="28.04574">
        <ele>75.6</ele>
      </trkpt>
      <trkpt lat="36.60277" lon="28.04579">
        <ele>75.4</ele>
      </trkpt>
      <trkpt lat="36.60276" lon="28.0458">
        <ele>75.5</ele>
      </trkpt>
      <trkpt lat="36.60278" lon="28.04585">
        <ele>75.1</ele>
      </trkpt>
      <trkpt lat="36.60277" lon="28.04588">
        <ele>75.4</ele>
      </trkpt>
      <trkpt lat="36.60279" lon="28.04593">
        <ele>75.4</ele>
      </trkpt>
      <trkpt lat="36.6028" lon="28.04595">
        <ele>75.1</ele>
      </trkpt>
      <trkpt lat="36.6028" lon="28.04598">
        <ele>75.3</ele>
      </trkpt>
      <trkpt lat="36.6028" lon="28.04601">
        <ele>75.2</ele>
      </trkpt>
      <trkpt lat="36.6028" lon="28.04603">
        <ele>75.6</ele>
      </trkpt>
      <trkpt lat="36.60281" lon="28.04605">
        <ele>75.3</ele>
      </trkpt>
      <trkpt lat="36.60282" lon="28.04608">
        <ele>75</ele>
      </trkpt>
      <trkpt lat="36.60285" lon="28.0462">
        <ele>74.7</ele>
      </trkpt>
      <trkpt lat="36.6029" lon="28.04625">
        <ele>73.1</ele>
      </trkpt>
      <trkpt lat="36.60292" lon="28.0463">
        <ele>72.6</ele>
      </trkpt>
      <trkpt lat="36.60293" lon="28.04634">
        <ele>72.6</ele>
      </trkpt>
      <trkpt lat="36.60293" lon="28.04641">
        <ele>73</ele>
      </trkpt>
      <trkpt lat="36.60295" lon="28.04646">
        <ele>72.4</ele>
      </trkpt>
      <trkpt lat="36.60295" lon="28.04647">
        <ele>72.4</ele>
      </trkpt>
      <trkpt lat="36.60296" lon="28.04649">
        <ele>72.4</ele>
      </trkpt>
      <trkpt lat="36.60301" lon="28.04655">
        <ele>70.5</ele>
      </trkpt>
      <trkpt lat="36.60302" lon="28.04659">
        <ele>70.3</ele>
      </trkpt>
      <trkpt lat="36.60304" lon="28.04662">
        <ele>69.8</ele>
      </trkpt>
      <trkpt lat="36.60304" lon="28.04664">
        <ele>69.8</ele>
      </trkpt>
      <trkpt lat="36.60308" lon="28.04668">
        <ele>68.4</ele>
      </trkpt>
      <trkpt lat="36.6031" lon="28.04671">
        <ele>67.9</ele>
      </trkpt>
      <trkpt lat="36.6031" lon="28.04674">
        <ele>68</ele>
      </trkpt>
      <trkpt lat="36.60312" lon="28.04679">
        <ele>67.3</ele>
      </trkpt>
      <trkpt lat="36.60315" lon="28.04678">
        <ele>66.1</ele>
      </trkpt>
      <trkpt lat="36.60316" lon="28.0468">
        <ele>65.8</ele>
      </trkpt>
      <trkpt lat="36.60317" lon="28.04683">
        <ele>65.5</ele>
      </trkpt>
      <trkpt lat="36.60317" lon="28.04687">
        <ele>65.9</ele>
      </trkpt>
      <trkpt lat="36.60319" lon="28.04692">
        <ele>65.2</ele>
      </trkpt>
      <trkpt lat="36.60322" lon="28.04696">
        <ele>64.4</ele>
      </trkpt>
      <trkpt lat="36.60324" lon="28.04704">
        <ele>63.8</ele>
      </trkpt>
      <trkpt lat="36.60326" lon="28.04707">
        <ele>63.5</ele>
      </trkpt>
      <trkpt lat="36.60328" lon="28.0471">
        <ele>62.9</ele>
      </trkpt>
      <trkpt lat="36.60329" lon="28.04711">
        <ele>62.2</ele>
      </trkpt>
      <trkpt lat="36.60333" lon="28.04719">
        <ele>61.1</ele>
      </trkpt>
      <trkpt lat="36.60334" lon="28.0472">
        <ele>61</ele>
      </trkpt>
      <trkpt lat="36.60339" lon="28.04727">
        <ele>60.5</ele>
      </trkpt>
      <trkpt lat="36.6034" lon="28.04729">
        <ele>60.5</ele>
      </trkpt>
      <trkpt lat="36.6034" lon="28.0473">
        <ele>60.4</ele>
      </trkpt>
      <trkpt lat="36.60341" lon="28.04731">
        <ele>60.4</ele>
      </trkpt>
      <trkpt lat="36.60342" lon="28.04734">
        <ele>60.4</ele>
      </trkpt>
      <trkpt lat="36.60343" lon="28.04737">
        <ele>60.3</ele>
      </trkpt>
      <trkpt lat="36.60347" lon="28.04744">
        <ele>60.1</ele>
      </trkpt>
      <trkpt lat="36.60348" lon="28.04747">
        <ele>60.1</ele>
      </trkpt>
      <trkpt lat="36.60348" lon="28.0475">
        <ele>60.4</ele>
      </trkpt>
      <trkpt lat="36.60349" lon="28.04753">
        <ele>60.6</ele>
      </trkpt>
      <trkpt lat="36.60351" lon="28.0476">
        <ele>61.1</ele>
      </trkpt>
      <trkpt lat="36.60351" lon="28.04761">
        <ele>61</ele>
      </trkpt>
      <trkpt lat="36.60352" lon="28.04763">
        <ele>61.2</ele>
      </trkpt>
      <trkpt lat="36.60354" lon="28.04766">
        <ele>61.3</ele>
      </trkpt>
      <trkpt lat="36.60354" lon="28.04767">
        <ele>61.4</ele>
      </trkpt>
      <trkpt lat="36.60355" lon="28.04775">
        <ele>62.1</ele>
      </trkpt>
      <trkpt lat="36.60357" lon="28.0478">
        <ele>62.3</ele>
      </trkpt>
      <trkpt lat="36.60357" lon="28.04783">
        <ele>62.7</ele>
      </trkpt>
      <trkpt lat="36.60359" lon="28.04787">
        <ele>62.8</ele>
      </trkpt>
      <trkpt lat="36.6036" lon="28.0479">
        <ele>63</ele>
      </trkpt>
      <trkpt lat="36.60362" lon="28.04793">
        <ele>63</ele>
      </trkpt>
      <trkpt lat="36.60365" lon="28.04799">
        <ele>63.2</ele>
      </trkpt>
      <trkpt lat="36.60367" lon="28.04804">
        <ele>63.4</ele>
      </trkpt>
      <trkpt lat="36.60367" lon="28.04806">
        <ele>63.6</ele>
      </trkpt>
      <trkpt lat="36.6037" lon="28.04812">
        <ele>63.8</ele>
      </trkpt>
      <trkpt lat="36.60371" lon="28.04814">
        <ele>63.9</ele>
      </trkpt>
      <trkpt lat="36.60374" lon="28.04817">
        <ele>63.8</ele>
      </trkpt>
      <trkpt lat="36.60376" lon="28.04821">
        <ele>63.9</ele>
      </trkpt>
      <trkpt lat="36.60376" lon="28.04827">
        <ele>64.4</ele>
      </trkpt>
      <trkpt lat="36.60377" lon="28.04828">
        <ele>64.6</ele>
      </trkpt>
      <trkpt lat="36.60378" lon="28.04832">
        <ele>64.7</ele>
      </trkpt>
      <trkpt lat="36.6038" lon="28.04836">
        <ele>64.9</ele>
      </trkpt>
      <trkpt lat="36.60381" lon="28.0484">
        <ele>65.2</ele>
      </trkpt>
      <trkpt lat="36.60382" lon="28.04843">
        <ele>65.4</ele>
      </trkpt>
      <trkpt lat="36.60384" lon="28.04845">
        <ele>65.3</ele>
      </trkpt>
      <trkpt lat="36.60385" lon="28.0485">
        <ele>65.5</ele>
      </trkpt>
      <trkpt lat="36.60388" lon="28.04858">
        <ele>65.8</ele>
      </trkpt>
      <trkpt lat="36.60391" lon="28.04863">
        <ele>65.9</ele>
      </trkpt>
      <trkpt lat="36.60391" lon="28.04863">
        <ele>65.8</ele>
      </trkpt>
      <trkpt lat="36.60392" lon="28.04863">
        <ele>65.6</ele>
      </trkpt>
      <trkpt lat="36.60392" lon="28.04866">
        <ele>65.8</ele>
      </trkpt>
      <trkpt lat="36.60394" lon="28.04871">
        <ele>66</ele>
      </trkpt>
      <trkpt lat="36.60396" lon="28.04875">
        <ele>66</ele>
      </trkpt>
      <trkpt lat="36.60395" lon="28.04881">
        <ele>66.9</ele>
      </trkpt>
      <trkpt lat="36.60395" lon="28.04887">
        <ele>67.5</ele>
      </trkpt>
      <trkpt lat="36.60396" lon="28.04891">
        <ele>67.5</ele>
      </trkpt>
      <trkpt lat="36.60396" lon="28.04895">
        <ele>67.9</ele>
      </trkpt>
      <trkpt lat="36.60398" lon="28.049">
        <ele>68</ele>
      </trkpt>
      <trkpt lat="36.60399" lon="28.04905">
        <ele>68.3</ele>
      </trkpt>
      <trkpt lat="36.604" lon="28.04909">
        <ele>68.5</ele>
      </trkpt>
      <trkpt lat="36.60403" lon="28.04915">
        <ele>68.4</ele>
      </trkpt>
      <trkpt lat="36.60404" lon="28.04921">
        <ele>68.6</ele>
      </trkpt>
      <trkpt lat="36.60404" lon="28.04926">
        <ele>69.1</ele>
      </trkpt>
      <trkpt lat="36.60406" lon="28.04935">
        <ele>69.2</ele>
      </trkpt>
      <trkpt lat="36.60406" lon="28.04944">
        <ele>70</ele>
      </trkpt>
      <trkpt lat="36.60406" lon="28.04946">
        <ele>70.2</ele>
      </trkpt>
      <trkpt lat="36.60406" lon="28.04948">
        <ele>70.3</ele>
      </trkpt>
      <trkpt lat="36.60407" lon="28.0495">
        <ele>70.4</ele>
      </trkpt>
      <trkpt lat="36.60408" lon="28.04959">
        <ele>70.8</ele>
      </trkpt>
      <trkpt lat="36.60408" lon="28.0496">
        <ele>71.1</ele>
      </trkpt>
      <trkpt lat="36.60407" lon="28.04963">
        <ele>71.4</ele>
      </trkpt>
      <trkpt lat="36.60407" lon="28.04968">
        <ele>71.9</ele>
      </trkpt>
      <trkpt lat="36.60407" lon="28.04973">
        <ele>72.3</ele>
      </trkpt>
      <trkpt lat="36.60408" lon="28.04976">
        <ele>72.2</ele>
      </trkpt>
      <trkpt lat="36.60408" lon="28.04979">
        <ele>72.5</ele>
      </trkpt>
      <trkpt lat="36.60409" lon="28.04982">
        <ele>72.5</ele>
      </trkpt>
      <trkpt lat="36.6041" lon="28.0499">
        <ele>73.1</ele>
      </trkpt>
      <trkpt lat="36.60409" lon="28.04992">
        <ele>73.4</ele>
      </trkpt>
      <trkpt lat="36.6041" lon="28.04995">
        <ele>73.4</ele>
      </trkpt>
      <trkpt lat="36.60411" lon="28.05003">
        <ele>73.7</ele>
      </trkpt>
      <trkpt lat="36.60412" lon="28.05009">
        <ele>74</ele>
      </trkpt>
      <trkpt lat="36.60411" lon="28.05015">
        <ele>74.9</ele>
      </trkpt>
      <trkpt lat="36.60412" lon="28.05017">
        <ele>75</ele>
      </trkpt>
      <trkpt lat="36.60413" lon="28.0502">
        <ele>74.9</ele>
      </trkpt>
      <trkpt lat="36.60413" lon="28.05022">
        <ele>75</ele>
      </trkpt>
      <trkpt lat="36.60414" lon="28.05026">
        <ele>75.1</ele>
      </trkpt>
      <trkpt lat="36.60415" lon="28.05034">
        <ele>75.8</ele>
      </trkpt>
      <trkpt lat="36.60415" lon="28.05039">
        <ele>76.2</ele>
      </trkpt>
      <trkpt lat="36.60416" lon="28.05044">
        <ele>76.4</ele>
      </trkpt>
      <trkpt lat="36.60418" lon="28.05047">
        <ele>76.2</ele>
      </trkpt>
      <trkpt lat="36.6042" lon="28.05054">
        <ele>76.5</ele>
      </trkpt>
      <trkpt lat="36.6042" lon="28.05057">
        <ele>76.8</ele>
      </trkpt>
      <trkpt lat="36.60421" lon="28.0506">
        <ele>76.9</ele>
      </trkpt>
      <trkpt lat="36.60421" lon="28.05064">
        <ele>77.2</ele>
      </trkpt>
      <trkpt lat="36.60419" lon="28.05075">
        <ele>78.8</ele>
      </trkpt>
      <trkpt lat="36.60419" lon="28.05077">
        <ele>78.8</ele>
      </trkpt>
      <trkpt lat="36.6042" lon="28.05078">
        <ele>78.7</ele>
      </trkpt>
      <trkpt lat="36.60421" lon="28.0508">
        <ele>78.8</ele>
      </trkpt>
      <trkpt lat="36.60422" lon="28.05084">
        <ele>78.8</ele>
      </trkpt>
      <trkpt lat="36.60424" lon="28.05086">
        <ele>78.6</ele>
      </trkpt>
      <trkpt lat="36.60425" lon="28.05091">
        <ele>78.4</ele>
      </trkpt>
      <trkpt lat="36.60425" lon="28.05093">
        <ele>78.3</ele>
      </trkpt>
      <trkpt lat="36.60426" lon="28.05097">
        <ele>78.2</ele>
      </trkpt>
      <trkpt lat="36.60426" lon="28.051">
        <ele>78.2</ele>
      </trkpt>
      <trkpt lat="36.60424" lon="28.05104">
        <ele>78.6</ele>
      </trkpt>
      <trkpt lat="36.60424" lon="28.05106">
        <ele>78.7</ele>
      </trkpt>
      <trkpt lat="36.60422" lon="28.05119">
        <ele>79.4</ele>
      </trkpt>
      <trkpt lat="36.60422" lon="28.05119">
        <ele>79.4</ele>
      </trkpt>
      <trkpt lat="36.60423" lon="28.05122">
        <ele>79.2</ele>
      </trkpt>
      <trkpt lat="36.60422" lon="28.05128">
        <ele>79.6</ele>
      </trkpt>
      <trkpt lat="36.60419" lon="28.05136">
        <ele>80.1</ele>
      </trkpt>
      <trkpt lat="36.6042" lon="28.05139">
        <ele>80.1</ele>
      </trkpt>
      <trkpt lat="36.60418" lon="28.05142">
        <ele>80.4</ele>
      </trkpt>
      <trkpt lat="36.60419" lon="28.05147">
        <ele>80.4</ele>
      </trkpt>
      <trkpt lat="36.60416" lon="28.05154">
        <ele>80.9</ele>
      </trkpt>
      <trkpt lat="36.60416" lon="28.05157">
        <ele>81</ele>
      </trkpt>
      <trkpt lat="36.60415" lon="28.05163">
        <ele>81.3</ele>
      </trkpt>
      <trkpt lat="36.60414" lon="28.05164">
        <ele>81.4</ele>
      </trkpt>
      <trkpt lat="36.60413" lon="28.05166">
        <ele>81.7</ele>
      </trkpt>
      <trkpt lat="36.60412" lon="28.05167">
        <ele>81.8</ele>
      </trkpt>
      <trkpt lat="36.60414" lon="28.0517">
        <ele>81.4</ele>
      </trkpt>
      <trkpt lat="36.60414" lon="28.05172">
        <ele>81.2</ele>
      </trkpt>
      <trkpt lat="36.60414" lon="28.05176">
        <ele>80.8</ele>
      </trkpt>
      <trkpt lat="36.60415" lon="28.0518">
        <ele>80.5</ele>
      </trkpt>
      <trkpt lat="36.60415" lon="28.05184">
        <ele>80.2</ele>
      </trkpt>
      <trkpt lat="36.60414" lon="28.05189">
        <ele>80.1</ele>
      </trkpt>
      <trkpt lat="36.60412" lon="28.05192">
        <ele>80.3</ele>
      </trkpt>
      <trkpt lat="36.6041" lon="28.05196">
        <ele>80.3</ele>
      </trkpt>
      <trkpt lat="36.60409" lon="28.05199">
        <ele>80.4</ele>
      </trkpt>
      <trkpt lat="36.60407" lon="28.05206">
        <ele>80.3</ele>
      </trkpt>
      <trkpt lat="36.60405" lon="28.05211">
        <ele>80.2</ele>
      </trkpt>
      <trkpt lat="36.60407" lon="28.05217">
        <ele>79.6</ele>
      </trkpt>
      <trkpt lat="36.60406" lon="28.05222">
        <ele>79.3</ele>
      </trkpt>
      <trkpt lat="36.60406" lon="28.05226">
        <ele>79.1</ele>
      </trkpt>
      <trkpt lat="36.60404" lon="28.05232">
        <ele>78.9</ele>
      </trkpt>
      <trkpt lat="36.60404" lon="28.05235">
        <ele>78.8</ele>
      </trkpt>
      <trkpt lat="36.60404" lon="28.05236">
        <ele>78.8</ele>
      </trkpt>
      <trkpt lat="36.60403" lon="28.0524">
        <ele>78.6</ele>
      </trkpt>
      <trkpt lat="36.60403" lon="28.05244">
        <ele>78.4</ele>
      </trkpt>
      <trkpt lat="36.60402" lon="28.0525">
        <ele>78.2</ele>
      </trkpt>
      <trkpt lat="36.60401" lon="28.05251">
        <ele>78.2</ele>
      </trkpt>
      <trkpt lat="36.60401" lon="28.05259">
        <ele>77.2</ele>
      </trkpt>
      <trkpt lat="36.60401" lon="28.0526">
        <ele>77</ele>
      </trkpt>
      <trkpt lat="36.60401" lon="28.05264">
        <ele>76.6</ele>
      </trkpt>
      <trkpt lat="36.604" lon="28.05269">
        <ele>76.2</ele>
      </trkpt>
      <trkpt lat="36.604" lon="28.05271">
        <ele>76</ele>
      </trkpt>
      <trkpt lat="36.60401" lon="28.05274">
        <ele>75.5</ele>
      </trkpt>
      <trkpt lat="36.604" lon="28.05277">
        <ele>75.2</ele>
      </trkpt>
      <trkpt lat="36.604" lon="28.05276">
        <ele>75.3</ele>
      </trkpt>
      <trkpt lat="36.604" lon="28.05277">
        <ele>75.2</ele>
      </trkpt>
      <trkpt lat="36.604" lon="28.05282">
        <ele>74.7</ele>
      </trkpt>
      <trkpt lat="36.60399" lon="28.05284">
        <ele>74.6</ele>
      </trkpt>
      <trkpt lat="36.60399" lon="28.05287">
        <ele>74.3</ele>
      </trkpt>
      <trkpt lat="36.604" lon="28.05294">
        <ele>73.3</ele>
      </trkpt>
      <trkpt lat="36.604" lon="28.05295">
        <ele>73.1</ele>
      </trkpt>
      <trkpt lat="36.604" lon="28.05299">
        <ele>72.7</ele>
      </trkpt>
      <trkpt lat="36.60401" lon="28.05302">
        <ele>72.2</ele>
      </trkpt>
      <trkpt lat="36.60403" lon="28.05306">
        <ele>71.4</ele>
      </trkpt>
      <trkpt lat="36.60403" lon="28.05311">
        <ele>70.7</ele>
      </trkpt>
      <trkpt lat="36.60403" lon="28.05312">
        <ele>70.5</ele>
      </trkpt>
      <trkpt lat="36.60403" lon="28.05312">
        <ele>70.5</ele>
      </trkpt>
      <trkpt lat="36.60403" lon="28.05317">
        <ele>69.9</ele>
      </trkpt>
      <trkpt lat="36.60404" lon="28.05321">
        <ele>69.2</ele>
      </trkpt>
      <trkpt lat="36.60404" lon="28.05325">
        <ele>68.9</ele>
      </trkpt>
      <trkpt lat="36.60404" lon="28.05329">
        <ele>68.3</ele>
      </trkpt>
      <trkpt lat="36.60407" lon="28.05332">
        <ele>67.3</ele>
      </trkpt>
      <trkpt lat="36.60411" lon="28.05339">
        <ele>65.4</ele>
      </trkpt>
      <trkpt lat="36.60414" lon="28.05344">
        <ele>64.1</ele>
      </trkpt>
      <trkpt lat="36.60416" lon="28.05346">
        <ele>63.5</ele>
      </trkpt>
      <trkpt lat="36.60415" lon="28.05346">
        <ele>63.6</ele>
      </trkpt>
      <trkpt lat="36.60416" lon="28.05349">
        <ele>63</ele>
      </trkpt>
      <trkpt lat="36.60419" lon="28.05351">
        <ele>62.6</ele>
      </trkpt>
      <trkpt lat="36.60419" lon="28.05354">
        <ele>62.3</ele>
      </trkpt>
      <trkpt lat="36.6042" lon="28.05358">
        <ele>61.8</ele>
      </trkpt>
      <trkpt lat="36.60423" lon="28.05365">
        <ele>60.8</ele>
      </trkpt>
      <trkpt lat="36.60424" lon="28.05369">
        <ele>60.2</ele>
      </trkpt>
      <trkpt lat="36.60423" lon="28.05375">
        <ele>59.5</ele>
      </trkpt>
      <trkpt lat="36.60424" lon="28.05377">
        <ele>59.3</ele>
      </trkpt>
      <trkpt lat="36.60423" lon="28.05379">
        <ele>58.9</ele>
      </trkpt>
      <trkpt lat="36.60425" lon="28.05385">
        <ele>58.1</ele>
      </trkpt>
      <trkpt lat="36.60425" lon="28.05386">
        <ele>58.1</ele>
      </trkpt>
      <trkpt lat="36.60426" lon="28.05388">
        <ele>57.8</ele>
      </trkpt>
      <trkpt lat="36.60426" lon="28.05388">
        <ele>57.8</ele>
      </trkpt>
      <trkpt lat="36.60428" lon="28.05392">
        <ele>57.2</ele>
      </trkpt>
      <trkpt lat="36.60431" lon="28.05396">
        <ele>56.8</ele>
      </trkpt>
      <trkpt lat="36.60431" lon="28.05399">
        <ele>56.3</ele>
      </trkpt>
      <trkpt lat="36.60433" lon="28.05401">
        <ele>56.1</ele>
      </trkpt>
      <trkpt lat="36.60434" lon="28.05404">
        <ele>55.6</ele>
      </trkpt>
      <trkpt lat="36.60433" lon="28.05406">
        <ele>55.4</ele>
      </trkpt>
      <trkpt lat="36.60431" lon="28.0541">
        <ele>54.9</ele>
      </trkpt>
      <trkpt lat="36.60432" lon="28.05416">
        <ele>54.1</ele>
      </trkpt>
      <trkpt lat="36.60432" lon="28.05417">
        <ele>54</ele>
      </trkpt>
      <trkpt lat="36.60431" lon="28.05418">
        <ele>53.9</ele>
      </trkpt>
      <trkpt lat="36.60432" lon="28.05419">
        <ele>53.7</ele>
      </trkpt>
      <trkpt lat="36.60435" lon="28.05422">
        <ele>53.4</ele>
      </trkpt>
      <trkpt lat="36.60436" lon="28.05426">
        <ele>53</ele>
      </trkpt>
      <trkpt lat="36.60439" lon="28.05428">
        <ele>52.9</ele>
      </trkpt>
      <trkpt lat="36.60441" lon="28.05432">
        <ele>52.4</ele>
      </trkpt>
      <trkpt lat="36.60445" lon="28.05437">
        <ele>51.9</ele>
      </trkpt>
      <trkpt lat="36.60448" lon="28.05444">
        <ele>51.2</ele>
      </trkpt>
      <trkpt lat="36.60448" lon="28.05445">
        <ele>51.1</ele>
      </trkpt>
      <trkpt lat="36.60448" lon="28.05447">
        <ele>50.9</ele>
      </trkpt>
      <trkpt lat="36.60447" lon="28.05455">
        <ele>50</ele>
      </trkpt>
      <trkpt lat="36.60446" lon="28.05455">
        <ele>50</ele>
      </trkpt>
      <trkpt lat="36.60444" lon="28.0546">
        <ele>49.5</ele>
      </trkpt>
      <trkpt lat="36.60444" lon="28.05463">
        <ele>49.2</ele>
      </trkpt>
      <trkpt lat="36.60445" lon="28.0547">
        <ele>48.5</ele>
      </trkpt>
      <trkpt lat="36.60441" lon="28.05475">
        <ele>47.9</ele>
      </trkpt>
      <trkpt lat="36.60438" lon="28.05476">
        <ele>47.7</ele>
      </trkpt>
      <trkpt lat="36.60438" lon="28.05475">
        <ele>47.8</ele>
      </trkpt>
      <trkpt lat="36.60438" lon="28.05479">
        <ele>47.5</ele>
      </trkpt>
      <trkpt lat="36.60437" lon="28.0548">
        <ele>47.4</ele>
      </trkpt>
      <trkpt lat="36.60436" lon="28.05484">
        <ele>46.9</ele>
      </trkpt>
      <trkpt lat="36.60435" lon="28.05487">
        <ele>46.6</ele>
      </trkpt>
      <trkpt lat="36.60435" lon="28.05487">
        <ele>46.6</ele>
      </trkpt>
      <trkpt lat="36.60436" lon="28.05492">
        <ele>46.1</ele>
      </trkpt>
      <trkpt lat="36.60437" lon="28.05492">
        <ele>46</ele>
      </trkpt>
      <trkpt lat="36.60438" lon="28.05494">
        <ele>45.9</ele>
      </trkpt>
      <trkpt lat="36.60438" lon="28.05497">
        <ele>45.6</ele>
      </trkpt>
      <trkpt lat="36.60437" lon="28.05503">
        <ele>44.8</ele>
      </trkpt>
      <trkpt lat="36.60437" lon="28.05508">
        <ele>43.7</ele>
      </trkpt>
      <trkpt lat="36.60437" lon="28.05514">
        <ele>42.8</ele>
      </trkpt>
      <trkpt lat="36.60436" lon="28.05515">
        <ele>42.5</ele>
      </trkpt>
      <trkpt lat="36.60436" lon="28.05519">
        <ele>41.8</ele>
      </trkpt>
      <trkpt lat="36.60435" lon="28.05523">
        <ele>41.1</ele>
      </trkpt>
      <trkpt lat="36.60434" lon="28.05525">
        <ele>40.7</ele>
      </trkpt>
      <trkpt lat="36.60433" lon="28.05531">
        <ele>39.7</ele>
      </trkpt>
      <trkpt lat="36.60432" lon="28.05536">
        <ele>38.8</ele>
      </trkpt>
      <trkpt lat="36.60431" lon="28.05538">
        <ele>38.3</ele>
      </trkpt>
      <trkpt lat="36.60429" lon="28.05543">
        <ele>37.5</ele>
      </trkpt>
      <trkpt lat="36.60428" lon="28.05547">
        <ele>36.9</ele>
      </trkpt>
      <trkpt lat="36.60428" lon="28.0555">
        <ele>36.4</ele>
      </trkpt>
      <trkpt lat="36.6043" lon="28.05551">
        <ele>36.1</ele>
      </trkpt>
      <trkpt lat="36.60429" lon="28.05553">
        <ele>35.8</ele>
      </trkpt>
      <trkpt lat="36.60429" lon="28.05559">
        <ele>34.7</ele>
      </trkpt>
      <trkpt lat="36.60429" lon="28.05559">
        <ele>34.7</ele>
      </trkpt>
      <trkpt lat="36.60428" lon="28.05561">
        <ele>34.3</ele>
      </trkpt>
      <trkpt lat="36.60427" lon="28.05565">
        <ele>33.7</ele>
      </trkpt>
      <trkpt lat="36.60429" lon="28.05565">
        <ele>33.7</ele>
      </trkpt>
      <trkpt lat="36.60428" lon="28.05564">
        <ele>33.9</ele>
      </trkpt>
      <trkpt lat="36.6043" lon="28.05566">
        <ele>33.5</ele>
      </trkpt>
      <trkpt lat="36.6043" lon="28.05566">
        <ele>33.5</ele>
      </trkpt>
      <trkpt lat="36.60434" lon="28.05571">
        <ele>32.4</ele>
      </trkpt>
      <trkpt lat="36.60436" lon="28.05571">
        <ele>32.3</ele>
      </trkpt>
      <trkpt lat="36.60436" lon="28.05573">
        <ele>31.9</ele>
      </trkpt>
      <trkpt lat="36.60435" lon="28.05576">
        <ele>31.4</ele>
      </trkpt>
      <trkpt lat="36.60434" lon="28.05578">
        <ele>31.2</ele>
      </trkpt>
      <trkpt lat="36.60432" lon="28.05579">
        <ele>31</ele>
      </trkpt>
      <trkpt lat="36.6043" lon="28.0558">
        <ele>31</ele>
      </trkpt>
      <trkpt lat="36.60429" lon="28.0558">
        <ele>31</ele>
      </trkpt>
      <trkpt lat="36.60428" lon="28.0558">
        <ele>31.1</ele>
      </trkpt>
      <trkpt lat="36.60424" lon="28.05583">
        <ele>30.8</ele>
      </trkpt>
      <trkpt lat="36.60424" lon="28.05583">
        <ele>30.8</ele>
      </trkpt>
      <trkpt lat="36.6042" lon="28.05589">
        <ele>30.7</ele>
      </trkpt>
      <trkpt lat="36.6042" lon="28.05591">
        <ele>30.7</ele>
      </trkpt>
      <trkpt lat="36.60422" lon="28.05593">
        <ele>30.6</ele>
      </trkpt>
      <trkpt lat="36.60422" lon="28.05596">
        <ele>30.4</ele>
      </trkpt>
      <trkpt lat="36.60421" lon="28.05602">
        <ele>30.4</ele>
      </trkpt>
      <trkpt lat="36.60422" lon="28.05606">
        <ele>30.3</ele>
      </trkpt>
      <trkpt lat="36.6042" lon="28.05613">
        <ele>30.3</ele>
      </trkpt>
      <trkpt lat="36.60418" lon="28.05618">
        <ele>30.4</ele>
      </trkpt>
      <trkpt lat="36.60417" lon="28.05623">
        <ele>30.5</ele>
      </trkpt>
      <trkpt lat="36.60414" lon="28.05629">
        <ele>30.4</ele>
      </trkpt>
      <trkpt lat="36.60413" lon="28.0563">
        <ele>30.4</ele>
      </trkpt>
      <trkpt lat="36.60412" lon="28.05632">
        <ele>30.3</ele>
      </trkpt>
      <trkpt lat="36.6041" lon="28.05632">
        <ele>30.2</ele>
      </trkpt>
      <trkpt lat="36.60411" lon="28.05631">
        <ele>30.3</ele>
      </trkpt>
      <trkpt lat="36.60414" lon="28.0563">
        <ele>30.4</ele>
      </trkpt>
      <trkpt lat="36.60414" lon="28.0563">
        <ele>30.4</ele>
      </trkpt>
      <trkpt lat="36.60414" lon="28.05631">
        <ele>30.4</ele>
      </trkpt>
      <trkpt lat="36.6041" lon="28.05632">
        <ele>30.3</ele>
      </trkpt>
      <trkpt lat="36.60409" lon="28.05636">
        <ele>30.1</ele>
      </trkpt>
      <trkpt lat="36.60408" lon="28.05637">
        <ele>30</ele>
      </trkpt>
      <trkpt lat="36.60407" lon="28.05639">
        <ele>29.9</ele>
      </trkpt>
      <trkpt lat="36.60403" lon="28.05642">
        <ele>29.7</ele>
      </trkpt>
      <trkpt lat="36.60401" lon="28.05646">
        <ele>29.4</ele>
      </trkpt>
      <trkpt lat="36.60399" lon="28.05651">
        <ele>29</ele>
      </trkpt>
      <trkpt lat="36.60394" lon="28.05658">
        <ele>28.3</ele>
      </trkpt>
      <trkpt lat="36.60394" lon="28.05658">
        <ele>28.3</ele>
      </trkpt>
      <trkpt lat="36.60395" lon="28.05657">
        <ele>28.5</ele>
      </trkpt>
      <trkpt lat="36.60394" lon="28.05655">
        <ele>28.5</ele>
      </trkpt>
      <trkpt lat="36.60389" lon="28.0566">
        <ele>27.8</ele>
      </trkpt>
      <trkpt lat="36.60385" lon="28.05663">
        <ele>27.2</ele>
      </trkpt>
      <trkpt lat="36.60381" lon="28.05668">
        <ele>26.9</ele>
      </trkpt>
      <trkpt lat="36.6038" lon="28.05669">
        <ele>26.8</ele>
      </trkpt>
      <trkpt lat="36.60375" lon="28.05673">
        <ele>27.1</ele>
      </trkpt>
      <trkpt lat="36.60374" lon="28.05677">
        <ele>27.6</ele>
      </trkpt>
      <trkpt lat="36.60372" lon="28.05679">
        <ele>27.6</ele>
      </trkpt>
      <trkpt lat="36.60371" lon="28.05682">
        <ele>28</ele>
      </trkpt>
      <trkpt lat="36.60368" lon="28.05687">
        <ele>28.3</ele>
      </trkpt>
      <trkpt lat="36.60365" lon="28.05689">
        <ele>28.3</ele>
      </trkpt>
      <trkpt lat="36.60361" lon="28.05697">
        <ele>28.8</ele>
      </trkpt>
      <trkpt lat="36.60361" lon="28.05697">
        <ele>28.8</ele>
      </trkpt>
      <trkpt lat="36.6036" lon="28.057">
        <ele>29.1</ele>
      </trkpt>
      <trkpt lat="36.60359" lon="28.05702">
        <ele>29.2</ele>
      </trkpt>
      <trkpt lat="36.60357" lon="28.05705">
        <ele>29.2</ele>
      </trkpt>
      <trkpt lat="36.60355" lon="28.05708">
        <ele>29.2</ele>
      </trkpt>
      <trkpt lat="36.60355" lon="28.05707">
        <ele>29</ele>
      </trkpt>
      <trkpt lat="36.60354" lon="28.05708">
        <ele>29</ele>
      </trkpt>
      <trkpt lat="36.60347" lon="28.0572">
        <ele>29.2</ele>
      </trkpt>
      <trkpt lat="36.60347" lon="28.05721">
        <ele>29.2</ele>
      </trkpt>
      <trkpt lat="36.60343" lon="28.05724">
        <ele>28.7</ele>
      </trkpt>
      <trkpt lat="36.60342" lon="28.05726">
        <ele>28.8</ele>
      </trkpt>
      <trkpt lat="36.60342" lon="28.05727">
        <ele>28.9</ele>
      </trkpt>
      <trkpt lat="36.60339" lon="28.05734">
        <ele>28.9</ele>
      </trkpt>
      <trkpt lat="36.60337" lon="28.05738">
        <ele>28.7</ele>
      </trkpt>
      <trkpt lat="36.60334" lon="28.0574">
        <ele>28.2</ele>
      </trkpt>
      <trkpt lat="36.60328" lon="28.05744">
        <ele>28</ele>
      </trkpt>
      <trkpt lat="36.60326" lon="28.05747">
        <ele>28</ele>
      </trkpt>
      <trkpt lat="36.60325" lon="28.05749">
        <ele>28</ele>
      </trkpt>
      <trkpt lat="36.60325" lon="28.05749">
        <ele>28</ele>
      </trkpt>
      <trkpt lat="36.60319" lon="28.05755">
        <ele>28.5</ele>
      </trkpt>
      <trkpt lat="36.60315" lon="28.05761">
        <ele>29.6</ele>
      </trkpt>
      <trkpt lat="36.60313" lon="28.05763">
        <ele>29.8</ele>
      </trkpt>
      <trkpt lat="36.60311" lon="28.05765">
        <ele>30.1</ele>
      </trkpt>
      <trkpt lat="36.60311" lon="28.05765">
        <ele>30</ele>
      </trkpt>
      <trkpt lat="36.6031" lon="28.05766">
        <ele>30.1</ele>
      </trkpt>
      <trkpt lat="36.60305" lon="28.0577">
        <ele>30.6</ele>
      </trkpt>
      <trkpt lat="36.60304" lon="28.05771">
        <ele>30.8</ele>
      </trkpt>
      <trkpt lat="36.60304" lon="28.05772">
        <ele>30.9</ele>
      </trkpt>
      <trkpt lat="36.60304" lon="28.05772">
        <ele>30.9</ele>
      </trkpt>
      <trkpt lat="36.60304" lon="28.05772">
        <ele>31</ele>
      </trkpt>
      <trkpt lat="36.60302" lon="28.05773">
        <ele>30.9</ele>
      </trkpt>
      <trkpt lat="36.60302" lon="28.05772">
        <ele>30.8</ele>
      </trkpt>
      <trkpt lat="36.60302" lon="28.05773">
        <ele>31</ele>
      </trkpt>
      <trkpt lat="36.60302" lon="28.05773">
        <ele>31</ele>
      </trkpt>
      <trkpt lat="36.60301" lon="28.05776">
        <ele>31.5</ele>
      </trkpt>
      <trkpt lat="36.60299" lon="28.05779">
        <ele>32</ele>
      </trkpt>
      <trkpt lat="36.60295" lon="28.05783">
        <ele>32.5</ele>
      </trkpt>
      <trkpt lat="36.60291" lon="28.05786">
        <ele>32.7</ele>
      </trkpt>
      <trkpt lat="36.60292" lon="28.05786">
        <ele>32.6</ele>
      </trkpt>
      <trkpt lat="36.60292" lon="28.05786">
        <ele>32.6</ele>
      </trkpt>
      <trkpt lat="36.60292" lon="28.05786">
        <ele>32.6</ele>
      </trkpt>
      <trkpt lat="36.60291" lon="28.05787">
        <ele>32.9</ele>
      </trkpt>
      <trkpt lat="36.6029" lon="28.05788">
        <ele>32.9</ele>
      </trkpt>
      <trkpt lat="36.60288" lon="28.05791">
        <ele>33.3</ele>
      </trkpt>
      <trkpt lat="36.60281" lon="28.05795">
        <ele>33.3</ele>
      </trkpt>
      <trkpt lat="36.60279" lon="28.05798">
        <ele>33.8</ele>
      </trkpt>
      <trkpt lat="36.60279" lon="28.05798">
        <ele>33.9</ele>
      </trkpt>
      <trkpt lat="36.60276" lon="28.058">
        <ele>34</ele>
      </trkpt>
      <trkpt lat="36.60275" lon="28.05801">
        <ele>34.1</ele>
      </trkpt>
      <trkpt lat="36.60275" lon="28.058">
        <ele>33.8</ele>
      </trkpt>
      <trkpt lat="36.60274" lon="28.05801">
        <ele>33.8</ele>
      </trkpt>
      <trkpt lat="36.60271" lon="28.05801">
        <ele>33.5</ele>
      </trkpt>
      <trkpt lat="36.60267" lon="28.05801">
        <ele>33.1</ele>
      </trkpt>
      <trkpt lat="36.6026" lon="28.05801">
        <ele>32.3</ele>
      </trkpt>
      <trkpt lat="36.60256" lon="28.05803">
        <ele>32.2</ele>
      </trkpt>
      <trkpt lat="36.60249" lon="28.05805">
        <ele>31.7</ele>
      </trkpt>
      <trkpt lat="36.60245" lon="28.05805">
        <ele>31.3</ele>
      </trkpt>
      <trkpt lat="36.60243" lon="28.05806">
        <ele>31.5</ele>
      </trkpt>
      <trkpt lat="36.6024" lon="28.05807">
        <ele>31.3</ele>
      </trkpt>
      <trkpt lat="36.60236" lon="28.05805">
        <ele>30.5</ele>
      </trkpt>
      <trkpt lat="36.60231" lon="28.05805">
        <ele>30.1</ele>
      </trkpt>
      <trkpt lat="36.60228" lon="28.05805">
        <ele>29.8</ele>
      </trkpt>
      <trkpt lat="36.60223" lon="28.05807">
        <ele>29.6</ele>
      </trkpt>
      <trkpt lat="36.60217" lon="28.05807">
        <ele>29.1</ele>
      </trkpt>
      <trkpt lat="36.60214" lon="28.05806">
        <ele>28.6</ele>
      </trkpt>
      <trkpt lat="36.60211" lon="28.05806">
        <ele>28.4</ele>
      </trkpt>
      <trkpt lat="36.60211" lon="28.05808">
        <ele>28.5</ele>
      </trkpt>
      <trkpt lat="36.60203" lon="28.05809">
        <ele>28</ele>
      </trkpt>
      <trkpt lat="36.60198" lon="28.0581">
        <ele>27.6</ele>
      </trkpt>
      <trkpt lat="36.60196" lon="28.0581">
        <ele>27.4</ele>
      </trkpt>
      <trkpt lat="36.60192" lon="28.0581">
        <ele>27.1</ele>
      </trkpt>
      <trkpt lat="36.60185" lon="28.05812">
        <ele>26.6</ele>
      </trkpt>
      <trkpt lat="36.60184" lon="28.05812">
        <ele>26.5</ele>
      </trkpt>
      <trkpt lat="36.60177" lon="28.05813">
        <ele>26</ele>
      </trkpt>
      <trkpt lat="36.60171" lon="28.05811">
        <ele>24.9</ele>
      </trkpt>
      <trkpt lat="36.60171" lon="28.0581">
        <ele>24.8</ele>
      </trkpt>
      <trkpt lat="36.6017" lon="28.05811">
        <ele>24.9</ele>
      </trkpt>
      <trkpt lat="36.6017" lon="28.05811">
        <ele>24.9</ele>
      </trkpt>
      <trkpt lat="36.60168" lon="28.05812">
        <ele>24.8</ele>
      </trkpt>
      <trkpt lat="36.60161" lon="28.05812">
        <ele>24.4</ele>
      </trkpt>
      <trkpt lat="36.60159" lon="28.05812">
        <ele>24.2</ele>
      </trkpt>
      <trkpt lat="36.60156" lon="28.05811">
        <ele>24</ele>
      </trkpt>
      <trkpt lat="36.60154" lon="28.05811">
        <ele>23.9</ele>
      </trkpt>
      <trkpt lat="36.60147" lon="28.05815">
        <ele>23.9</ele>
      </trkpt>
      <trkpt lat="36.60146" lon="28.05815">
        <ele>23.8</ele>
      </trkpt>
      <trkpt lat="36.60144" lon="28.05816">
        <ele>23.8</ele>
      </trkpt>
      <trkpt lat="36.60147" lon="28.05815">
        <ele>23.8</ele>
      </trkpt>
      <trkpt lat="36.6015" lon="28.05814">
        <ele>24</ele>
      </trkpt>
      <trkpt lat="36.6015" lon="28.05814">
        <ele>24</ele>
      </trkpt>
      <trkpt lat="36.60148" lon="28.05816">
        <ele>24</ele>
      </trkpt>
      <trkpt lat="36.60141" lon="28.05819">
        <ele>23.9</ele>
      </trkpt>
      <trkpt lat="36.60139" lon="28.0582">
        <ele>23.8</ele>
      </trkpt>
      <trkpt lat="36.60137" lon="28.05822">
        <ele>23.8</ele>
      </trkpt>
      <trkpt lat="36.60136" lon="28.05822">
        <ele>23.8</ele>
      </trkpt>
      <trkpt lat="36.60134" lon="28.05823">
        <ele>23.8</ele>
      </trkpt>
      <trkpt lat="36.60132" lon="28.05822">
        <ele>23.6</ele>
      </trkpt>
      <trkpt lat="36.60128" lon="28.0582">
        <ele>23.2</ele>
      </trkpt>
      <trkpt lat="36.60128" lon="28.05821">
        <ele>23.2</ele>
      </trkpt>
      <trkpt lat="36.60125" lon="28.05821">
        <ele>23</ele>
      </trkpt>
      <trkpt lat="36.60121" lon="28.05822">
        <ele>22.8</ele>
      </trkpt>
      <trkpt lat="36.60119" lon="28.05821">
        <ele>22.7</ele>
      </trkpt>
      <trkpt lat="36.60114" lon="28.05823">
        <ele>22.5</ele>
      </trkpt>
      <trkpt lat="36.60107" lon="28.05825">
        <ele>22.2</ele>
      </trkpt>
      <trkpt lat="36.60105" lon="28.05827">
        <ele>22.1</ele>
      </trkpt>
      <trkpt lat="36.60102" lon="28.05827">
        <ele>21.9</ele>
      </trkpt>
      <trkpt lat="36.60098" lon="28.05827">
        <ele>21.7</ele>
      </trkpt>
      <trkpt lat="36.60093" lon="28.05827">
        <ele>21.4</ele>
      </trkpt>
      <trkpt lat="36.60088" lon="28.05828">
        <ele>21.1</ele>
      </trkpt>
      <trkpt lat="36.60084" lon="28.05829">
        <ele>20.8</ele>
      </trkpt>
      <trkpt lat="36.6008" lon="28.0583">
        <ele>20.8</ele>
      </trkpt>
      <trkpt lat="36.60079" lon="28.0583">
        <ele>20.8</ele>
      </trkpt>
      <trkpt lat="36.60076" lon="28.0583">
        <ele>20.8</ele>
      </trkpt>
      <trkpt lat="36.60074" lon="28.0583">
        <ele>20.8</ele>
      </trkpt>
      <trkpt lat="36.60074" lon="28.05832">
        <ele>20.9</ele>
      </trkpt>
      <trkpt lat="36.60074" lon="28.05832">
        <ele>20.9</ele>
      </trkpt>
      <trkpt lat="36.60073" lon="28.05833">
        <ele>21</ele>
      </trkpt>
      <trkpt lat="36.60073" lon="28.05832">
        <ele>20.9</ele>
      </trkpt>
      <trkpt lat="36.60071" lon="28.05829">
        <ele>20.8</ele>
      </trkpt>
      <trkpt lat="36.60067" lon="28.05829">
        <ele>20.8</ele>
      </trkpt>
      <trkpt lat="36.60059" lon="28.0583">
        <ele>20.9</ele>
      </trkpt>
      <trkpt lat="36.60056" lon="28.0583">
        <ele>20.8</ele>
      </trkpt>
      <trkpt lat="36.60048" lon="28.05836">
        <ele>21.5</ele>
      </trkpt>
      <trkpt lat="36.60032" lon="28.05851">
        <ele>24</ele>
      </trkpt>
      <trkpt lat="36.6" lon="28.05866">
        <ele>26.4</ele>
      </trkpt>
      <trkpt lat="36.59949" lon="28.05855">
        <ele>25.7</ele>
      </trkpt>
      <trkpt lat="36.59954" lon="28.05866">
        <ele>27.4</ele>
      </trkpt>
      <trkpt lat="36.60003" lon="28.05903">
        <ele>32.7</ele>
      </trkpt>
      <trkpt lat="36.60027" lon="28.0592">
        <ele>35.9</ele>
      </trkpt>
      <trkpt lat="36.60052" lon="28.05954">
        <ele>44.7</ele>
      </trkpt>
      <trkpt lat="36.60057" lon="28.05975">
        <ele>50.1</ele>
      </trkpt>
      <trkpt lat="36.60076" lon="28.06033">
        <ele>64.4</ele>
      </trkpt>
      <trkpt lat="36.60097" lon="28.06065">
        <ele>74</ele>
      </trkpt>
      <trkpt lat="36.60099" lon="28.06079">
        <ele>77.9</ele>
      </trkpt>
      <trkpt lat="36.60087" lon="28.06108">
        <ele>82.4</ele>
      </trkpt>
      <trkpt lat="36.60096" lon="28.06129">
        <ele>86.7</ele>
      </trkpt>
      <trkpt lat="36.60093" lon="28.0616">
        <ele>91.7</ele>
      </trkpt>
      <trkpt lat="36.60079" lon="28.0625">
        <ele>96</ele>
      </trkpt>
      <trkpt lat="36.60067" lon="28.06321">
        <ele>95.3</ele>
      </trkpt>
      <trkpt lat="36.60081" lon="28.06402">
        <ele>93.1</ele>
      </trkpt>
      <trkpt lat="36.60101" lon="28.06464">
        <ele>95.3</ele>
      </trkpt>
      <trkpt lat="36.60159" lon="28.06645">
        <ele>95.7</ele>
      </trkpt>
      <trkpt lat="36.60194" lon="28.06745">
        <ele>104.6</ele>
      </trkpt>
      <trkpt lat="36.60271" lon="28.06805">
        <ele>96.6</ele>
      </trkpt>
      <trkpt lat="36.60323" lon="28.06901">
        <ele>112.1</ele>
      </trkpt>
      <trkpt lat="36.60387" lon="28.06945">
        <ele>111.6</ele>
      </trkpt>
      <trkpt lat="36.60419" lon="28.07038">
        <ele>127.2</ele>
      </trkpt>
      <trkpt lat="36.60496" lon="28.07122">
        <ele>120.8</ele>
      </trkpt>
      <trkpt lat="36.60541" lon="28.07234">
        <ele>117.8</ele>
      </trkpt>
      <trkpt lat="36.60631" lon="28.0737">
        <ele>117</ele>
      </trkpt>
      <trkpt lat="36.60699" lon="28.07418">
        <ele>117.9</ele>
      </trkpt>
      <trkpt lat="36.60811" lon="28.07606">
        <ele>146.2</ele>
      </trkpt>
      <trkpt lat="36.60823" lon="28.07734">
        <ele>162.3</ele>
      </trkpt>
      <trkpt lat="36.60846" lon="28.0787">
        <ele>166.6</ele>
      </trkpt>
      <trkpt lat="36.60836" lon="28.07982">
        <ele>150.5</ele>
      </trkpt>
      <trkpt lat="36.60814" lon="28.0815">
        <ele>143.1</ele>
      </trkpt>
      <trkpt lat="36.60846" lon="28.08282">
        <ele>142</ele>
      </trkpt>
      <trkpt lat="36.60897" lon="28.08386">
        <ele>134.7</ele>
      </trkpt>
      <trkpt lat="36.60888" lon="28.08458">
        <ele>138.9</ele>
      </trkpt>
      <trkpt lat="36.60913" lon="28.08567">
        <ele>141.8</ele>
      </trkpt>
      <trkpt lat="36.60962" lon="28.08667">
        <ele>141.9</ele>
      </trkpt>
      <trkpt lat="36.60998" lon="28.08692">
        <ele>131.6</ele>
      </trkpt>
      <trkpt lat="36.60998" lon="28.08692">
        <ele>131.6</ele>
      </trkpt>
      <trkpt lat="36.61003" lon="28.08702">
        <ele>131.6</ele>
      </trkpt>
      <trkpt lat="36.61005" lon="28.08705">
        <ele>131.8</ele>
      </trkpt>
      <trkpt lat="36.61011" lon="28.08713">
        <ele>132.4</ele>
      </trkpt>
      <trkpt lat="36.61016" lon="28.08715">
        <ele>132.3</ele>
      </trkpt>
      <trkpt lat="36.61019" lon="28.08718">
        <ele>132.3</ele>
      </trkpt>
      <trkpt lat="36.6103" lon="28.08723">
        <ele>132.1</ele>
      </trkpt>
      <trkpt lat="36.61035" lon="28.08727">
        <ele>132.1</ele>
      </trkpt>
      <trkpt lat="36.6104" lon="28.08735">
        <ele>132.4</ele>
      </trkpt>
      <trkpt lat="36.61044" lon="28.08737">
        <ele>132.3</ele>
      </trkpt>
      <trkpt lat="36.61047" lon="28.08739">
        <ele>132.3</ele>
      </trkpt>
      <trkpt lat="36.61054" lon="28.08753">
        <ele>133</ele>
      </trkpt>
      <trkpt lat="36.61055" lon="28.08756">
        <ele>133.3</ele>
      </trkpt>
      <trkpt lat="36.61055" lon="28.08757">
        <ele>133.5</ele>
      </trkpt>
      <trkpt lat="36.61057" lon="28.08759">
        <ele>133.6</ele>
      </trkpt>
      <trkpt lat="36.61065" lon="28.08769">
        <ele>134</ele>
      </trkpt>
      <trkpt lat="36.61067" lon="28.08774">
        <ele>134.5</ele>
      </trkpt>
      <trkpt lat="36.61068" lon="28.08778">
        <ele>134.8</ele>
      </trkpt>
      <trkpt lat="36.61066" lon="28.08784">
        <ele>135.9</ele>
      </trkpt>
      <trkpt lat="36.61065" lon="28.08788">
        <ele>136.5</ele>
      </trkpt>
      <trkpt lat="36.61066" lon="28.08792">
        <ele>136.9</ele>
      </trkpt>
      <trkpt lat="36.61065" lon="28.08793">
        <ele>137.2</ele>
      </trkpt>
      <trkpt lat="36.61066" lon="28.08801">
        <ele>138.1</ele>
      </trkpt>
      <trkpt lat="36.61065" lon="28.08805">
        <ele>138.9</ele>
      </trkpt>
      <trkpt lat="36.61065" lon="28.08806">
        <ele>139</ele>
      </trkpt>
      <trkpt lat="36.61063" lon="28.0881">
        <ele>139.8</ele>
      </trkpt>
      <trkpt lat="36.61059" lon="28.08813">
        <ele>140.8</ele>
      </trkpt>
      <trkpt lat="36.61056" lon="28.08821">
        <ele>142.5</ele>
      </trkpt>
      <trkpt lat="36.61053" lon="28.08827">
        <ele>143.8</ele>
      </trkpt>
      <trkpt lat="36.61049" lon="28.08832">
        <ele>145.4</ele>
      </trkpt>
      <trkpt lat="36.61048" lon="28.08834">
        <ele>145.9</ele>
      </trkpt>
      <trkpt lat="36.61045" lon="28.08836">
        <ele>146.7</ele>
      </trkpt>
      <trkpt lat="36.61044" lon="28.08837">
        <ele>147.2</ele>
      </trkpt>
      <trkpt lat="36.6104" lon="28.08845">
        <ele>149.3</ele>
      </trkpt>
      <trkpt lat="36.61039" lon="28.08846">
        <ele>149.5</ele>
      </trkpt>
      <trkpt lat="36.61041" lon="28.08854">
        <ele>150.3</ele>
      </trkpt>
      <trkpt lat="36.61042" lon="28.08859">
        <ele>151</ele>
      </trkpt>
      <trkpt lat="36.61042" lon="28.08866">
        <ele>152</ele>
      </trkpt>
      <trkpt lat="36.6104" lon="28.08874">
        <ele>153.7</ele>
      </trkpt>
      <trkpt lat="36.61043" lon="28.08881">
        <ele>154.1</ele>
      </trkpt>
      <trkpt lat="36.61043" lon="28.08883">
        <ele>154.5</ele>
      </trkpt>
      <trkpt lat="36.61043" lon="28.08891">
        <ele>155.8</ele>
      </trkpt>
      <trkpt lat="36.61043" lon="28.08892">
        <ele>155.9</ele>
      </trkpt>
      <trkpt lat="36.61047" lon="28.08903">
        <ele>156.5</ele>
      </trkpt>
      <trkpt lat="36.61047" lon="28.08911">
        <ele>157.7</ele>
      </trkpt>
      <trkpt lat="36.61046" lon="28.08913">
        <ele>158.1</ele>
      </trkpt>
      <trkpt lat="36.61038" lon="28.08913">
        <ele>160.4</ele>
      </trkpt>
      <trkpt lat="36.61035" lon="28.08911">
        <ele>160.9</ele>
      </trkpt>
      <trkpt lat="36.6103" lon="28.08909">
        <ele>161.7</ele>
      </trkpt>
      <trkpt lat="36.61019" lon="28.08907">
        <ele>164.2</ele>
      </trkpt>
      <trkpt lat="36.6101" lon="28.08902">
        <ele>165.7</ele>
      </trkpt>
      <trkpt lat="36.61002" lon="28.08902">
        <ele>167.8</ele>
      </trkpt>
      <trkpt lat="36.61001" lon="28.08902">
        <ele>167.9</ele>
      </trkpt>
      <trkpt lat="36.60997" lon="28.08897">
        <ele>168.1</ele>
      </trkpt>
      <trkpt lat="36.60992" lon="28.0889">
        <ele>168.5</ele>
      </trkpt>
      <trkpt lat="36.60988" lon="28.08885">
        <ele>168.6</ele>
      </trkpt>
      <trkpt lat="36.60984" lon="28.08882">
        <ele>169.3</ele>
      </trkpt>
      <trkpt lat="36.60976" lon="28.08879">
        <ele>171.3</ele>
      </trkpt>
      <trkpt lat="36.60971" lon="28.08879">
        <ele>172.7</ele>
      </trkpt>
      <trkpt lat="36.60968" lon="28.08876">
        <ele>172.8</ele>
      </trkpt>
      <trkpt lat="36.60962" lon="28.08871">
        <ele>173.8</ele>
      </trkpt>
      <trkpt lat="36.60961" lon="28.08869">
        <ele>173.5</ele>
      </trkpt>
      <trkpt lat="36.6096" lon="28.08868">
        <ele>173.8</ele>
      </trkpt>
      <trkpt lat="36.60957" lon="28.08867">
        <ele>174.3</ele>
      </trkpt>
      <trkpt lat="36.60949" lon="28.08859">
        <ele>175.1</ele>
      </trkpt>
      <trkpt lat="36.60948" lon="28.08858">
        <ele>175.2</ele>
      </trkpt>
      <trkpt lat="36.6094" lon="28.08853">
        <ele>176.7</ele>
      </trkpt>
      <trkpt lat="36.60939" lon="28.08852">
        <ele>176.6</ele>
      </trkpt>
      <trkpt lat="36.60936" lon="28.0885">
        <ele>177</ele>
      </trkpt>
      <trkpt lat="36.60934" lon="28.08846">
        <ele>177</ele>
      </trkpt>
      <trkpt lat="36.6093" lon="28.08844">
        <ele>177.5</ele>
      </trkpt>
      <trkpt lat="36.60925" lon="28.08841">
        <ele>178.2</ele>
      </trkpt>
      <trkpt lat="36.60919" lon="28.08835">
        <ele>178.5</ele>
      </trkpt>
      <trkpt lat="36.60917" lon="28.08832">
        <ele>178.5</ele>
      </trkpt>
      <trkpt lat="36.60914" lon="28.08826">
        <ele>179.2</ele>
      </trkpt>
      <trkpt lat="36.60911" lon="28.08824">
        <ele>180.1</ele>
      </trkpt>
      <trkpt lat="36.60907" lon="28.08816">
        <ele>180.8</ele>
      </trkpt>
      <trkpt lat="36.60901" lon="28.08808">
        <ele>182.2</ele>
      </trkpt>
      <trkpt lat="36.60899" lon="28.08807">
        <ele>182.9</ele>
      </trkpt>
      <trkpt lat="36.60898" lon="28.08806">
        <ele>183</ele>
      </trkpt>
      <trkpt lat="36.60894" lon="28.08802">
        <ele>184.3</ele>
      </trkpt>
      <trkpt lat="36.60891" lon="28.08797">
        <ele>185</ele>
      </trkpt>
      <trkpt lat="36.6089" lon="28.08793">
        <ele>184.9</ele>
      </trkpt>
      <trkpt lat="36.60887" lon="28.08785">
        <ele>185</ele>
      </trkpt>
      <trkpt lat="36.60886" lon="28.0878">
        <ele>184.4</ele>
      </trkpt>
      <trkpt lat="36.60888" lon="28.08775">
        <ele>182.6</ele>
      </trkpt>
      <trkpt lat="36.60885" lon="28.08769">
        <ele>183</ele>
      </trkpt>
      <trkpt lat="36.60881" lon="28.08764">
        <ele>183.6</ele>
      </trkpt>
      <trkpt lat="36.60878" lon="28.08759">
        <ele>184.5</ele>
      </trkpt>
      <trkpt lat="36.60877" lon="28.08759">
        <ele>184.7</ele>
      </trkpt>
      <trkpt lat="36.60874" lon="28.08754">
        <ele>185.2</ele>
      </trkpt>
      <trkpt lat="36.60871" lon="28.08754">
        <ele>186.5</ele>
      </trkpt>
      <trkpt lat="36.6087" lon="28.08761">
        <ele>188</ele>
      </trkpt>
      <trkpt lat="36.6087" lon="28.08764">
        <ele>188.6</ele>
      </trkpt>
      <trkpt lat="36.60873" lon="28.08771">
        <ele>188.7</ele>
      </trkpt>
      <trkpt lat="36.60873" lon="28.08773">
        <ele>189</ele>
      </trkpt>
      <trkpt lat="36.60872" lon="28.08774">
        <ele>189.5</ele>
      </trkpt>
      <trkpt lat="36.60866" lon="28.08776">
        <ele>192.4</ele>
      </trkpt>
      <trkpt lat="36.60864" lon="28.08775">
        <ele>193.2</ele>
      </trkpt>
      <trkpt lat="36.60856" lon="28.08773">
        <ele>196.2</ele>
      </trkpt>
      <trkpt lat="36.60854" lon="28.08777">
        <ele>197.8</ele>
      </trkpt>
      <trkpt lat="36.60852" lon="28.08784">
        <ele>200.1</ele>
      </trkpt>
      <trkpt lat="36.60852" lon="28.08788">
        <ele>201.1</ele>
      </trkpt>
      <trkpt lat="36.6085" lon="28.08792">
        <ele>202.6</ele>
      </trkpt>
      <trkpt lat="36.60848" lon="28.08798">
        <ele>204.4</ele>
      </trkpt>
      <trkpt lat="36.60845" lon="28.08804">
        <ele>207.2</ele>
      </trkpt>
      <trkpt lat="36.60845" lon="28.08805">
        <ele>207.2</ele>
      </trkpt>
      <trkpt lat="36.60842" lon="28.08808">
        <ele>209.4</ele>
      </trkpt>
      <trkpt lat="36.6084" lon="28.08806">
        <ele>209.7</ele>
      </trkpt>
      <trkpt lat="36.60836" lon="28.08807">
        <ele>211.6</ele>
      </trkpt>
      <trkpt lat="36.60837" lon="28.08806">
        <ele>211.3</ele>
      </trkpt>
      <trkpt lat="36.60834" lon="28.08808">
        <ele>212.7</ele>
      </trkpt>
      <trkpt lat="36.60831" lon="28.08808">
        <ele>213.9</ele>
      </trkpt>
      <trkpt lat="36.60828" lon="28.08807">
        <ele>214.9</ele>
      </trkpt>
      <trkpt lat="36.60827" lon="28.08806">
        <ele>214.8</ele>
      </trkpt>
      <trkpt lat="36.60826" lon="28.08805">
        <ele>215.2</ele>
      </trkpt>
      <trkpt lat="36.60826" lon="28.08806">
        <ele>215.2</ele>
      </trkpt>
      <trkpt lat="36.60826" lon="28.08805">
        <ele>214.9</ele>
      </trkpt>
      <trkpt lat="36.60825" lon="28.08807">
        <ele>215.7</ele>
      </trkpt>
      <trkpt lat="36.60821" lon="28.08804">
        <ele>216.3</ele>
      </trkpt>
      <trkpt lat="36.6082" lon="28.08804">
        <ele>216.8</ele>
      </trkpt>
      <trkpt lat="36.6082" lon="28.08804">
        <ele>216.7</ele>
      </trkpt>
      <trkpt lat="36.60818" lon="28.08804">
        <ele>217.4</ele>
      </trkpt>
      <trkpt lat="36.60816" lon="28.08803">
        <ele>217.9</ele>
      </trkpt>
      <trkpt lat="36.60811" lon="28.08803">
        <ele>219.7</ele>
      </trkpt>
      <trkpt lat="36.60809" lon="28.08804">
        <ele>220.6</ele>
      </trkpt>
      <trkpt lat="36.60809" lon="28.08806">
        <ele>220.9</ele>
      </trkpt>
      <trkpt lat="36.60809" lon="28.08806">
        <ele>221.1</ele>
      </trkpt>
      <trkpt lat="36.60809" lon="28.08805">
        <ele>220.8</ele>
      </trkpt>
      <trkpt lat="36.60807" lon="28.0881">
        <ele>222.6</ele>
      </trkpt>
      <trkpt lat="36.60806" lon="28.08809">
        <ele>222.6</ele>
      </trkpt>
      <trkpt lat="36.60806" lon="28.08809">
        <ele>222.7</ele>
      </trkpt>
      <trkpt lat="36.60804" lon="28.08808">
        <ele>223.1</ele>
      </trkpt>
      <trkpt lat="36.60804" lon="28.08809">
        <ele>223.1</ele>
      </trkpt>
      <trkpt lat="36.60804" lon="28.0881">
        <ele>223.4</ele>
      </trkpt>
      <trkpt lat="36.60802" lon="28.08813">
        <ele>224.8</ele>
      </trkpt>
      <trkpt lat="36.60801" lon="28.08813">
        <ele>225.1</ele>
      </trkpt>
      <trkpt lat="36.60801" lon="28.08812">
        <ele>225</ele>
      </trkpt>
      <trkpt lat="36.608" lon="28.08813">
        <ele>225.5</ele>
      </trkpt>
      <trkpt lat="36.60799" lon="28.08812">
        <ele>225.6</ele>
      </trkpt>
      <trkpt lat="36.60796" lon="28.08811">
        <ele>226.4</ele>
      </trkpt>
      <trkpt lat="36.60795" lon="28.08815">
        <ele>227.6</ele>
      </trkpt>
      <trkpt lat="36.60793" lon="28.08817">
        <ele>228.7</ele>
      </trkpt>
      <trkpt lat="36.60792" lon="28.08816">
        <ele>228.7</ele>
      </trkpt>
      <trkpt lat="36.60792" lon="28.08816">
        <ele>228.7</ele>
      </trkpt>
      <trkpt lat="36.60791" lon="28.08816">
        <ele>228.9</ele>
      </trkpt>
      <trkpt lat="36.60789" lon="28.08815">
        <ele>229.6</ele>
      </trkpt>
      <trkpt lat="36.60786" lon="28.08816">
        <ele>230.7</ele>
      </trkpt>
      <trkpt lat="36.60782" lon="28.08816">
        <ele>232.1</ele>
      </trkpt>
      <trkpt lat="36.60774" lon="28.08819">
        <ele>235.7</ele>
      </trkpt>
      <trkpt lat="36.60774" lon="28.08819">
        <ele>235.8</ele>
      </trkpt>
      <trkpt lat="36.60773" lon="28.08819">
        <ele>235.8</ele>
      </trkpt>
      <trkpt lat="36.6077" lon="28.0882">
        <ele>237.1</ele>
      </trkpt>
      <trkpt lat="36.60769" lon="28.0882">
        <ele>237.4</ele>
      </trkpt>
      <trkpt lat="36.60768" lon="28.08822">
        <ele>238.1</ele>
      </trkpt>
      <trkpt lat="36.60766" lon="28.08822">
        <ele>238.9</ele>
      </trkpt>
      <trkpt lat="36.60767" lon="28.08824">
        <ele>238.9</ele>
      </trkpt>
      <trkpt lat="36.60768" lon="28.08827">
        <ele>239.6</ele>
      </trkpt>
      <trkpt lat="36.60768" lon="28.08828">
        <ele>239.7</ele>
      </trkpt>
      <trkpt lat="36.60768" lon="28.08828">
        <ele>239.5</ele>
      </trkpt>
      <trkpt lat="36.60767" lon="28.08833">
        <ele>241</ele>
      </trkpt>
      <trkpt lat="36.60765" lon="28.08833">
        <ele>241.7</ele>
      </trkpt>
      <trkpt lat="36.60761" lon="28.08835">
        <ele>243.5</ele>
      </trkpt>
      <trkpt lat="36.60757" lon="28.08833">
        <ele>244.4</ele>
      </trkpt>
      <trkpt lat="36.60755" lon="28.08835">
        <ele>245.9</ele>
      </trkpt>
      <trkpt lat="36.60754" lon="28.08835">
        <ele>245.9</ele>
      </trkpt>
      <trkpt lat="36.60753" lon="28.08835">
        <ele>246.2</ele>
      </trkpt>
      <trkpt lat="36.60751" lon="28.08834">
        <ele>246.8</ele>
      </trkpt>
      <trkpt lat="36.6075" lon="28.08836">
        <ele>247.8</ele>
      </trkpt>
      <trkpt lat="36.6075" lon="28.08836">
        <ele>247.7</ele>
      </trkpt>
      <trkpt lat="36.6075" lon="28.08837">
        <ele>247.8</ele>
      </trkpt>
      <trkpt lat="36.60752" lon="28.08839">
        <ele>247.6</ele>
      </trkpt>
      <trkpt lat="36.60748" lon="28.08837">
        <ele>248.6</ele>
      </trkpt>
      <trkpt lat="36.60748" lon="28.08836">
        <ele>248.4</ele>
      </trkpt>
      <trkpt lat="36.60745" lon="28.08833">
        <ele>248.8</ele>
      </trkpt>
      <trkpt lat="36.60742" lon="28.08831">
        <ele>249.3</ele>
      </trkpt>
      <trkpt lat="36.60742" lon="28.08831">
        <ele>249.4</ele>
      </trkpt>
      <trkpt lat="36.60742" lon="28.08832">
        <ele>249.6</ele>
      </trkpt>
      <trkpt lat="36.60741" lon="28.0883">
        <ele>249.5</ele>
      </trkpt>
      <trkpt lat="36.60741" lon="28.08831">
        <ele>249.7</ele>
      </trkpt>
      <trkpt lat="36.6074" lon="28.08832">
        <ele>250.2</ele>
      </trkpt>
      <trkpt lat="36.60739" lon="28.0883">
        <ele>250.3</ele>
      </trkpt>
      <trkpt lat="36.60736" lon="28.08831">
        <ele>251.6</ele>
      </trkpt>
      <trkpt lat="36.60734" lon="28.08831">
        <ele>252.2</ele>
      </trkpt>
      <trkpt lat="36.60735" lon="28.08831">
        <ele>252</ele>
      </trkpt>
      <trkpt lat="36.60736" lon="28.0883">
        <ele>251.5</ele>
      </trkpt>
      <trkpt lat="36.60736" lon="28.0883">
        <ele>251.4</ele>
      </trkpt>
      <trkpt lat="36.60736" lon="28.0883">
        <ele>251.4</ele>
      </trkpt>
      <trkpt lat="36.60737" lon="28.08829">
        <ele>250.8</ele>
      </trkpt>
      <trkpt lat="36.60735" lon="28.0883">
        <ele>251.6</ele>
      </trkpt>
      <trkpt lat="36.60733" lon="28.08833">
        <ele>252.9</ele>
      </trkpt>
      <trkpt lat="36.60731" lon="28.08831">
        <ele>253.3</ele>
      </trkpt>
      <trkpt lat="36.60727" lon="28.08827">
        <ele>253.7</ele>
      </trkpt>
      <trkpt lat="36.60726" lon="28.08826">
        <ele>253.7</ele>
      </trkpt>
      <trkpt lat="36.60721" lon="28.08824">
        <ele>255.2</ele>
      </trkpt>
      <trkpt lat="36.6072" lon="28.08823">
        <ele>255.5</ele>
      </trkpt>
      <trkpt lat="36.60716" lon="28.08816">
        <ele>254.9</ele>
      </trkpt>
      <trkpt lat="36.6071" lon="28.08812">
        <ele>256.1</ele>
      </trkpt>
      <trkpt lat="36.60703" lon="28.08815">
        <ele>259.2</ele>
      </trkpt>
      <trkpt lat="36.60697" lon="28.0882">
        <ele>262.6</ele>
      </trkpt>
      <trkpt lat="36.60692" lon="28.08824">
        <ele>265.4</ele>
      </trkpt>
      <trkpt lat="36.60689" lon="28.08829">
        <ele>267.8</ele>
      </trkpt>
      <trkpt lat="36.60682" lon="28.0883">
        <ele>270.6</ele>
      </trkpt>
      <trkpt lat="36.60679" lon="28.08834">
        <ele>272.9</ele>
      </trkpt>
      <trkpt lat="36.60675" lon="28.08837">
        <ele>275</ele>
      </trkpt>
      <trkpt lat="36.60664" lon="28.08834">
        <ele>278</ele>
      </trkpt>
      <trkpt lat="36.60658" lon="28.08834">
        <ele>279.7</ele>
      </trkpt>
      <trkpt lat="36.60648" lon="28.08833">
        <ele>282.4</ele>
      </trkpt>
      <trkpt lat="36.60647" lon="28.08833">
        <ele>283</ele>
      </trkpt>
      <trkpt lat="36.60643" lon="28.08831">
        <ele>283.7</ele>
      </trkpt>
      <trkpt lat="36.60638" lon="28.08826">
        <ele>283.5</ele>
      </trkpt>
      <trkpt lat="36.60631" lon="28.08827">
        <ele>286</ele>
      </trkpt>
      <trkpt lat="36.60623" lon="28.08825">
        <ele>287.8</ele>
      </trkpt>
      <trkpt lat="36.60613" lon="28.08827">
        <ele>291.1</ele>
      </trkpt>
      <trkpt lat="36.60611" lon="28.08826">
        <ele>291.6</ele>
      </trkpt>
      <trkpt lat="36.60604" lon="28.08826">
        <ele>293.8</ele>
      </trkpt>
      <trkpt lat="36.60602" lon="28.08827">
        <ele>294.4</ele>
      </trkpt>
      <trkpt lat="36.60597" lon="28.08826">
        <ele>295.7</ele>
      </trkpt>
      <trkpt lat="36.60594" lon="28.08825">
        <ele>296.2</ele>
      </trkpt>
      <trkpt lat="36.60589" lon="28.08826">
        <ele>297.9</ele>
      </trkpt>
      <trkpt lat="36.60585" lon="28.08829">
        <ele>300.1</ele>
      </trkpt>
      <trkpt lat="36.60582" lon="28.08829">
        <ele>301.1</ele>
      </trkpt>
      <trkpt lat="36.60577" lon="28.08831">
        <ele>303</ele>
      </trkpt>
      <trkpt lat="36.60574" lon="28.08829">
        <ele>303.5</ele>
      </trkpt>
      <trkpt lat="36.60568" lon="28.08831">
        <ele>305.6</ele>
      </trkpt>
      <trkpt lat="36.60566" lon="28.0883">
        <ele>306.1</ele>
      </trkpt>
      <trkpt lat="36.60563" lon="28.0883">
        <ele>306.9</ele>
      </trkpt>
      <trkpt lat="36.60557" lon="28.08829">
        <ele>308.1</ele>
      </trkpt>
      <trkpt lat="36.60553" lon="28.08829">
        <ele>309.4</ele>
      </trkpt>
      <trkpt lat="36.60549" lon="28.08832">
        <ele>311.3</ele>
      </trkpt>
      <trkpt lat="36.60545" lon="28.08832">
        <ele>312.4</ele>
      </trkpt>
      <trkpt lat="36.60541" lon="28.08833">
        <ele>313.9</ele>
      </trkpt>
      <trkpt lat="36.60537" lon="28.08836">
        <ele>316.3</ele>
      </trkpt>
      <trkpt lat="36.60532" lon="28.08833">
        <ele>316.5</ele>
      </trkpt>
      <trkpt lat="36.60529" lon="28.08831">
        <ele>316.9</ele>
      </trkpt>
      <trkpt lat="36.60528" lon="28.08832">
        <ele>317.6</ele>
      </trkpt>
      <trkpt lat="36.60523" lon="28.08828">
        <ele>317.4</ele>
      </trkpt>
      <trkpt lat="36.60519" lon="28.08824">
        <ele>317.5</ele>
      </trkpt>
      <trkpt lat="36.60514" lon="28.08827">
        <ele>319.8</ele>
      </trkpt>
      <trkpt lat="36.60511" lon="28.0883">
        <ele>321.7</ele>
      </trkpt>
      <trkpt lat="36.60505" lon="28.08836">
        <ele>325.2</ele>
      </trkpt>
      <trkpt lat="36.60501" lon="28.08835">
        <ele>326.4</ele>
      </trkpt>
      <trkpt lat="36.6049" lon="28.08837">
        <ele>329</ele>
      </trkpt>
      <trkpt lat="36.60481" lon="28.08839">
        <ele>331.2</ele>
      </trkpt>
      <trkpt lat="36.60474" lon="28.08838">
        <ele>331.8</ele>
      </trkpt>
      <trkpt lat="36.60467" lon="28.08837">
        <ele>332.7</ele>
      </trkpt>
      <trkpt lat="36.60462" lon="28.08838">
        <ele>333.7</ele>
      </trkpt>
      <trkpt lat="36.60459" lon="28.08843">
        <ele>336.4</ele>
      </trkpt>
      <trkpt lat="36.60452" lon="28.08847">
        <ele>339.3</ele>
      </trkpt>
      <trkpt lat="36.60446" lon="28.08851">
        <ele>342.1</ele>
      </trkpt>
      <trkpt lat="36.60442" lon="28.08852">
        <ele>343.2</ele>
      </trkpt>
      <trkpt lat="36.60435" lon="28.08855">
        <ele>345.9</ele>
      </trkpt>
      <trkpt lat="36.60429" lon="28.08857">
        <ele>348.3</ele>
      </trkpt>
      <trkpt lat="36.6042" lon="28.0886">
        <ele>351.7</ele>
      </trkpt>
      <trkpt lat="36.60412" lon="28.08862">
        <ele>353.8</ele>
      </trkpt>
      <trkpt lat="36.60406" lon="28.08866">
        <ele>356.4</ele>
      </trkpt>
      <trkpt lat="36.60394" lon="28.08868">
        <ele>358.5</ele>
      </trkpt>
      <trkpt lat="36.60389" lon="28.08871">
        <ele>360.2</ele>
      </trkpt>
      <trkpt lat="36.60383" lon="28.08869">
        <ele>359.9</ele>
      </trkpt>
      <trkpt lat="36.60376" lon="28.08866">
        <ele>359.5</ele>
      </trkpt>
      <trkpt lat="36.60362" lon="28.08859">
        <ele>357.2</ele>
      </trkpt>
      <trkpt lat="36.60355" lon="28.08853">
        <ele>355</ele>
      </trkpt>
      <trkpt lat="36.60355" lon="28.08852">
        <ele>354.5</ele>
      </trkpt>
      <trkpt lat="36.6035" lon="28.0885">
        <ele>353.9</ele>
      </trkpt>
      <trkpt lat="36.60343" lon="28.0885">
        <ele>354.4</ele>
      </trkpt>
      <trkpt lat="36.60341" lon="28.0885">
        <ele>354.8</ele>
      </trkpt>
      <trkpt lat="36.60334" lon="28.0885">
        <ele>355.7</ele>
      </trkpt>
      <trkpt lat="36.6033" lon="28.0885">
        <ele>355</ele>
      </trkpt>
      <trkpt lat="36.60325" lon="28.0885">
        <ele>354.2</ele>
      </trkpt>
      <trkpt lat="36.6032" lon="28.0885">
        <ele>353.6</ele>
      </trkpt>
      <trkpt lat="36.60314" lon="28.0885">
        <ele>352.5</ele>
      </trkpt>
      <trkpt lat="36.60313" lon="28.0885">
        <ele>352.5</ele>
      </trkpt>
      <trkpt lat="36.60305" lon="28.08852">
        <ele>352.4</ele>
      </trkpt>
      <trkpt lat="36.60296" lon="28.08857">
        <ele>353.2</ele>
      </trkpt>
      <trkpt lat="36.6029" lon="28.08858">
        <ele>352.6</ele>
      </trkpt>
      <trkpt lat="36.60284" lon="28.0886">
        <ele>352.5</ele>
      </trkpt>
      <trkpt lat="36.60279" lon="28.08859">
        <ele>351.2</ele>
      </trkpt>
      <trkpt lat="36.60269" lon="28.08857">
        <ele>349.2</ele>
      </trkpt>
      <trkpt lat="36.60261" lon="28.08858">
        <ele>348.1</ele>
      </trkpt>
      <trkpt lat="36.6026" lon="28.08858">
        <ele>347.7</ele>
      </trkpt>
      <trkpt lat="36.60252" lon="28.08858">
        <ele>346.5</ele>
      </trkpt>
      <trkpt lat="36.60247" lon="28.08858">
        <ele>345.8</ele>
      </trkpt>
      <trkpt lat="36.60241" lon="28.08859">
        <ele>345.2</ele>
      </trkpt>
      <trkpt lat="36.60235" lon="28.0886">
        <ele>344.5</ele>
      </trkpt>
      <trkpt lat="36.60228" lon="28.08859">
        <ele>343</ele>
      </trkpt>
      <trkpt lat="36.60216" lon="28.08855">
        <ele>339.7</ele>
      </trkpt>
      <trkpt lat="36.60208" lon="28.08853">
        <ele>337.9</ele>
      </trkpt>
      <trkpt lat="36.60199" lon="28.08852">
        <ele>336.3</ele>
      </trkpt>
      <trkpt lat="36.60192" lon="28.0885">
        <ele>334.8</ele>
      </trkpt>
      <trkpt lat="36.60184" lon="28.08847">
        <ele>333</ele>
      </trkpt>
      <trkpt lat="36.60176" lon="28.0884">
        <ele>330.4</ele>
      </trkpt>
      <trkpt lat="36.6017" lon="28.08837">
        <ele>329</ele>
      </trkpt>
      <trkpt lat="36.60161" lon="28.08836">
        <ele>328.2</ele>
      </trkpt>
      <trkpt lat="36.60154" lon="28.08838">
        <ele>328.3</ele>
      </trkpt>
      <trkpt lat="36.60145" lon="28.08843">
        <ele>328.9</ele>
      </trkpt>
      <trkpt lat="36.60139" lon="28.08847">
        <ele>329.4</ele>
      </trkpt>
      <trkpt lat="36.60129" lon="28.08853">
        <ele>330.3</ele>
      </trkpt>
      <trkpt lat="36.60121" lon="28.08852">
        <ele>329.8</ele>
      </trkpt>
      <trkpt lat="36.60111" lon="28.08848">
        <ele>328.6</ele>
      </trkpt>
      <trkpt lat="36.60101" lon="28.08844">
        <ele>327.4</ele>
      </trkpt>
      <trkpt lat="36.60093" lon="28.08844">
        <ele>326.9</ele>
      </trkpt>
      <trkpt lat="36.60082" lon="28.08839">
        <ele>325.6</ele>
      </trkpt>
      <trkpt lat="36.6008" lon="28.08841">
        <ele>326.4</ele>
      </trkpt>
      <trkpt lat="36.60079" lon="28.08842">
        <ele>326.7</ele>
      </trkpt>
      <trkpt lat="36.6007" lon="28.0884">
        <ele>327.1</ele>
      </trkpt>
      <trkpt lat="36.60067" lon="28.08838">
        <ele>327.1</ele>
      </trkpt>
      <trkpt lat="36.60064" lon="28.08838">
        <ele>327.5</ele>
      </trkpt>
      <trkpt lat="36.60058" lon="28.0884">
        <ele>328.5</ele>
      </trkpt>
      <trkpt lat="36.60051" lon="28.08837">
        <ele>328.7</ele>
      </trkpt>
      <trkpt lat="36.60049" lon="28.08837">
        <ele>328.8</ele>
      </trkpt>
      <trkpt lat="36.60042" lon="28.08834">
        <ele>329.2</ele>
      </trkpt>
      <trkpt lat="36.60033" lon="28.08837">
        <ele>330.7</ele>
      </trkpt>
      <trkpt lat="36.60026" lon="28.08835">
        <ele>331.3</ele>
      </trkpt>
      <trkpt lat="36.6002" lon="28.08833">
        <ele>331.5</ele>
      </trkpt>
      <trkpt lat="36.60015" lon="28.08832">
        <ele>332</ele>
      </trkpt>
      <trkpt lat="36.60009" lon="28.08832">
        <ele>332.7</ele>
      </trkpt>
      <trkpt lat="36.60003" lon="28.0883">
        <ele>333.2</ele>
      </trkpt>
      <trkpt lat="36.59994" lon="28.08826">
        <ele>332.7</ele>
      </trkpt>
      <trkpt lat="36.59989" lon="28.08825">
        <ele>332.4</ele>
      </trkpt>
      <trkpt lat="36.59986" lon="28.08828">
        <ele>332.6</ele>
      </trkpt>
      <trkpt lat="36.59985" lon="28.08828">
        <ele>332.7</ele>
      </trkpt>
      <trkpt lat="36.59979" lon="28.08828">
        <ele>332.4</ele>
      </trkpt>
      <trkpt lat="36.59972" lon="28.08827">
        <ele>332</ele>
      </trkpt>
      <trkpt lat="36.59964" lon="28.08828">
        <ele>331.9</ele>
      </trkpt>
      <trkpt lat="36.59962" lon="28.08832">
        <ele>332.4</ele>
      </trkpt>
      <trkpt lat="36.59955" lon="28.08838">
        <ele>333.3</ele>
      </trkpt>
      <trkpt lat="36.59947" lon="28.08842">
        <ele>333.9</ele>
      </trkpt>
      <trkpt lat="36.5994" lon="28.0884">
        <ele>333.4</ele>
      </trkpt>
      <trkpt lat="36.59938" lon="28.0884">
        <ele>333.2</ele>
      </trkpt>
      <trkpt lat="36.59932" lon="28.08842">
        <ele>333.5</ele>
      </trkpt>
      <trkpt lat="36.59925" lon="28.0884">
        <ele>332.9</ele>
      </trkpt>
      <trkpt lat="36.59918" lon="28.08841">
        <ele>332.9</ele>
      </trkpt>
      <trkpt lat="36.59912" lon="28.08842">
        <ele>333</ele>
      </trkpt>
      <trkpt lat="36.59902" lon="28.08849">
        <ele>334.5</ele>
      </trkpt>
      <trkpt lat="36.599" lon="28.0885">
        <ele>334.8</ele>
      </trkpt>
      <trkpt lat="36.59894" lon="28.08853">
        <ele>335.3</ele>
      </trkpt>
      <trkpt lat="36.59891" lon="28.08853">
        <ele>335.3</ele>
      </trkpt>
      <trkpt lat="36.59888" lon="28.08853">
        <ele>335.1</ele>
      </trkpt>
      <trkpt lat="36.59885" lon="28.08854">
        <ele>335.3</ele>
      </trkpt>
      <trkpt lat="36.59879" lon="28.08857">
        <ele>335.8</ele>
      </trkpt>
      <trkpt lat="36.59876" lon="28.08858">
        <ele>335.8</ele>
      </trkpt>
      <trkpt lat="36.59872" lon="28.0886">
        <ele>336.3</ele>
      </trkpt>
      <trkpt lat="36.59867" lon="28.08861">
        <ele>336.3</ele>
      </trkpt>
      <trkpt lat="36.59862" lon="28.08863">
        <ele>336.5</ele>
      </trkpt>
      <trkpt lat="36.59862" lon="28.08864">
        <ele>336.6</ele>
      </trkpt>
      <trkpt lat="36.59854" lon="28.08869">
        <ele>337.3</ele>
      </trkpt>
      <trkpt lat="36.59854" lon="28.08871">
        <ele>337.6</ele>
      </trkpt>
      <trkpt lat="36.5985" lon="28.08875">
        <ele>338.2</ele>
      </trkpt>
      <trkpt lat="36.5985" lon="28.0888">
        <ele>339.1</ele>
      </trkpt>
      <trkpt lat="36.5985" lon="28.08885">
        <ele>339.9</ele>
      </trkpt>
      <trkpt lat="36.59846" lon="28.08896">
        <ele>341.6</ele>
      </trkpt>
      <trkpt lat="36.59843" lon="28.089">
        <ele>342.1</ele>
      </trkpt>
      <trkpt lat="36.59839" lon="28.08909">
        <ele>343.3</ele>
      </trkpt>
      <trkpt lat="36.59837" lon="28.08918">
        <ele>344.4</ele>
      </trkpt>
      <trkpt lat="36.59829" lon="28.0892">
        <ele>343.6</ele>
      </trkpt>
      <trkpt lat="36.59822" lon="28.08921">
        <ele>342.5</ele>
      </trkpt>
      <trkpt lat="36.59816" lon="28.0892">
        <ele>341.1</ele>
      </trkpt>
      <trkpt lat="36.59814" lon="28.0892">
        <ele>340.8</ele>
      </trkpt>
      <trkpt lat="36.59811" lon="28.08918">
        <ele>339.9</ele>
      </trkpt>
      <trkpt lat="36.59808" lon="28.08916">
        <ele>339</ele>
      </trkpt>
      <trkpt lat="36.59802" lon="28.08919">
        <ele>338.3</ele>
      </trkpt>
      <trkpt lat="36.59796" lon="28.08924">
        <ele>337.9</ele>
      </trkpt>
      <trkpt lat="36.59793" lon="28.08926">
        <ele>337.6</ele>
      </trkpt>
      <trkpt lat="36.59785" lon="28.08929">
        <ele>336.5</ele>
      </trkpt>
      <trkpt lat="36.59784" lon="28.0893">
        <ele>336.3</ele>
      </trkpt>
      <trkpt lat="36.59774" lon="28.08929">
        <ele>334.4</ele>
      </trkpt>
      <trkpt lat="36.59764" lon="28.08933">
        <ele>333</ele>
      </trkpt>
      <trkpt lat="36.5976" lon="28.08936">
        <ele>332.4</ele>
      </trkpt>
      <trkpt lat="36.59757" lon="28.08941">
        <ele>332.5</ele>
      </trkpt>
      <trkpt lat="36.59752" lon="28.08946">
        <ele>332.2</ele>
      </trkpt>
      <trkpt lat="36.5975" lon="28.0895">
        <ele>332.4</ele>
      </trkpt>
      <trkpt lat="36.59747" lon="28.08958">
        <ele>333.5</ele>
      </trkpt>
      <trkpt lat="36.59746" lon="28.08967">
        <ele>334.7</ele>
      </trkpt>
      <trkpt lat="36.59743" lon="28.08971">
        <ele>335.2</ele>
      </trkpt>
      <trkpt lat="36.59745" lon="28.08979">
        <ele>336.4</ele>
      </trkpt>
      <trkpt lat="36.59744" lon="28.08986">
        <ele>337.2</ele>
      </trkpt>
      <trkpt lat="36.59744" lon="28.08996">
        <ele>338.6</ele>
      </trkpt>
      <trkpt lat="36.59742" lon="28.09005">
        <ele>339.7</ele>
      </trkpt>
      <trkpt lat="36.59737" lon="28.09016">
        <ele>341.2</ele>
      </trkpt>
      <trkpt lat="36.5973" lon="28.09027">
        <ele>342.7</ele>
      </trkpt>
      <trkpt lat="36.59737" lon="28.0904">
        <ele>344.3</ele>
      </trkpt>
      <trkpt lat="36.59739" lon="28.09043">
        <ele>344.5</ele>
      </trkpt>
      <trkpt lat="36.59741" lon="28.09042">
        <ele>344.3</ele>
      </trkpt>
      <trkpt lat="36.59742" lon="28.09043">
        <ele>344.4</ele>
      </trkpt>
      <trkpt lat="36.59738" lon="28.09038">
        <ele>344</ele>
      </trkpt>
      <trkpt lat="36.59736" lon="28.09026">
        <ele>342.4</ele>
      </trkpt>
      <trkpt lat="36.59735" lon="28.09022">
        <ele>342</ele>
      </trkpt>
      <trkpt lat="36.59744" lon="28.09007">
        <ele>340</ele>
      </trkpt>
      <trkpt lat="36.59747" lon="28.09003">
        <ele>339.4</ele>
      </trkpt>
      <trkpt lat="36.59748" lon="28.0899">
        <ele>337.8</ele>
      </trkpt>
      <trkpt lat="36.59749" lon="28.08982">
        <ele>336.7</ele>
      </trkpt>
      <trkpt lat="36.59749" lon="28.08979">
        <ele>336.2</ele>
      </trkpt>
      <trkpt lat="36.59748" lon="28.08971">
        <ele>335.2</ele>
      </trkpt>
      <trkpt lat="36.59747" lon="28.08959">
        <ele>333.6</ele>
      </trkpt>
      <trkpt lat="36.59752" lon="28.08948">
        <ele>332.4</ele>
      </trkpt>
      <trkpt lat="36.59756" lon="28.08941">
        <ele>332.4</ele>
      </trkpt>
      <trkpt lat="36.59764" lon="28.08935">
        <ele>333.1</ele>
      </trkpt>
      <trkpt lat="36.59774" lon="28.0893">
        <ele>334.4</ele>
      </trkpt>
      <trkpt lat="36.59787" lon="28.08928">
        <ele>336.6</ele>
      </trkpt>
      <trkpt lat="36.59802" lon="28.08919">
        <ele>338.2</ele>
      </trkpt>
      <trkpt lat="36.5981" lon="28.08915">
        <ele>339.3</ele>
      </trkpt>
      <trkpt lat="36.59813" lon="28.08919">
        <ele>340.5</ele>
      </trkpt>
      <trkpt lat="36.5982" lon="28.08919">
        <ele>341.7</ele>
      </trkpt>
      <trkpt lat="36.59828" lon="28.08918">
        <ele>343.1</ele>
      </trkpt>
      <trkpt lat="36.5984" lon="28.08914">
        <ele>344.2</ele>
      </trkpt>
      <trkpt lat="36.59848" lon="28.08901">
        <ele>342.5</ele>
      </trkpt>
      <trkpt lat="36.59852" lon="28.08881">
        <ele>339.4</ele>
      </trkpt>
      <trkpt lat="36.59851" lon="28.08878">
        <ele>338.7</ele>
      </trkpt>
      <trkpt lat="36.59848" lon="28.08874">
        <ele>337.9</ele>
      </trkpt>
      <trkpt lat="36.59848" lon="28.08874">
        <ele>338</ele>
      </trkpt>
      <trkpt lat="36.59849" lon="28.08879">
        <ele>338.8</ele>
      </trkpt>
      <trkpt lat="36.5985" lon="28.08881">
        <ele>339.2</ele>
      </trkpt>
      <trkpt lat="36.5985" lon="28.08886">
        <ele>340</ele>
      </trkpt>
      <trkpt lat="36.59843" lon="28.089">
        <ele>342.1</ele>
      </trkpt>
      <trkpt lat="36.59841" lon="28.08904">
        <ele>342.6</ele>
      </trkpt>
      <trkpt lat="36.59836" lon="28.08917">
        <ele>344.3</ele>
      </trkpt>
      <trkpt lat="36.59835" lon="28.0892">
        <ele>344.6</ele>
      </trkpt>
      <trkpt lat="36.59828" lon="28.08922">
        <ele>343.7</ele>
      </trkpt>
      <trkpt lat="36.59823" lon="28.08923">
        <ele>342.9</ele>
      </trkpt>
      <trkpt lat="36.59817" lon="28.08922">
        <ele>341.6</ele>
      </trkpt>
      <trkpt lat="36.59809" lon="28.0892">
        <ele>339.7</ele>
      </trkpt>
      <trkpt lat="36.59801" lon="28.08919">
        <ele>338.1</ele>
      </trkpt>
      <trkpt lat="36.59793" lon="28.08925">
        <ele>337.4</ele>
      </trkpt>
      <trkpt lat="36.59788" lon="28.08928">
        <ele>336.9</ele>
      </trkpt>
      <trkpt lat="36.5978" lon="28.08932">
        <ele>335.8</ele>
      </trkpt>
      <trkpt lat="36.59768" lon="28.08933">
        <ele>333.6</ele>
      </trkpt>
      <trkpt lat="36.59758" lon="28.08937">
        <ele>332.2</ele>
      </trkpt>
      <trkpt lat="36.5975" lon="28.08949">
        <ele>332.3</ele>
      </trkpt>
      <trkpt lat="36.59748" lon="28.08954">
        <ele>333</ele>
      </trkpt>
      <trkpt lat="36.59743" lon="28.08962">
        <ele>334.1</ele>
      </trkpt>
      <trkpt lat="36.59744" lon="28.08975">
        <ele>335.8</ele>
      </trkpt>
      <trkpt lat="36.59746" lon="28.08979">
        <ele>336.3</ele>
      </trkpt>
      <trkpt lat="36.59745" lon="28.08982">
        <ele>336.7</ele>
      </trkpt>
      <trkpt lat="36.59743" lon="28.0899">
        <ele>337.7</ele>
      </trkpt>
      <trkpt lat="36.59742" lon="28.09">
        <ele>339</ele>
      </trkpt>
      <trkpt lat="36.59741" lon="28.09002">
        <ele>339.4</ele>
      </trkpt>
      <trkpt lat="36.59742" lon="28.09004">
        <ele>339.6</ele>
      </trkpt>
      <trkpt lat="36.59741" lon="28.09006">
        <ele>339.8</ele>
      </trkpt>
      <trkpt lat="36.59738" lon="28.09009">
        <ele>340.3</ele>
      </trkpt>
      <trkpt lat="36.59732" lon="28.09023">
        <ele>342.3</ele>
      </trkpt>
      <trkpt lat="36.5973" lon="28.09027">
        <ele>342.8</ele>
      </trkpt>
      <trkpt lat="36.5973" lon="28.09031">
        <ele>343.4</ele>
      </trkpt>
      <trkpt lat="36.59732" lon="28.09037">
        <ele>344</ele>
      </trkpt>
      <trkpt lat="36.5974" lon="28.09043">
        <ele>344.5</ele>
      </trkpt>
      <trkpt lat="36.5975" lon="28.09042">
        <ele>344.1</ele>
      </trkpt>
      <trkpt lat="36.59752" lon="28.09041">
        <ele>344.1</ele>
      </trkpt>
      <trkpt lat="36.5976" lon="28.0904">
        <ele>345.3</ele>
      </trkpt>
      <trkpt lat="36.59769" lon="28.09047">
        <ele>347.2</ele>
      </trkpt>
      <trkpt lat="36.59769" lon="28.0905">
        <ele>347.4</ele>
      </trkpt>
      <trkpt lat="36.59773" lon="28.09052">
        <ele>348.2</ele>
      </trkpt>
      <trkpt lat="36.59775" lon="28.09053">
        <ele>348.6</ele>
      </trkpt>
      <trkpt lat="36.59783" lon="28.09052">
        <ele>349.5</ele>
      </trkpt>
      <trkpt lat="36.59787" lon="28.09052">
        <ele>350</ele>
      </trkpt>
      <trkpt lat="36.5979" lon="28.09054">
        <ele>350.4</ele>
      </trkpt>
      <trkpt lat="36.59791" lon="28.09057">
        <ele>350.9</ele>
      </trkpt>
      <trkpt lat="36.59794" lon="28.0906">
        <ele>351.4</ele>
      </trkpt>
      <trkpt lat="36.59798" lon="28.0906">
        <ele>351.8</ele>
      </trkpt>
      <trkpt lat="36.598" lon="28.09062">
        <ele>352.2</ele>
      </trkpt>
      <trkpt lat="36.59805" lon="28.09066">
        <ele>352.9</ele>
      </trkpt>
      <trkpt lat="36.59811" lon="28.09068">
        <ele>353.6</ele>
      </trkpt>
      <trkpt lat="36.59816" lon="28.0907">
        <ele>354.2</ele>
      </trkpt>
      <trkpt lat="36.5982" lon="28.09073">
        <ele>354.7</ele>
      </trkpt>
      <trkpt lat="36.59821" lon="28.09078">
        <ele>354.8</ele>
      </trkpt>
      <trkpt lat="36.59824" lon="28.0908">
        <ele>355.1</ele>
      </trkpt>
      <trkpt lat="36.59829" lon="28.09078">
        <ele>355.6</ele>
      </trkpt>
      <trkpt lat="36.59835" lon="28.09079">
        <ele>356.3</ele>
      </trkpt>
      <trkpt lat="36.59838" lon="28.09081">
        <ele>356.9</ele>
      </trkpt>
      <trkpt lat="36.59843" lon="28.09084">
        <ele>357.8</ele>
      </trkpt>
      <trkpt lat="36.59844" lon="28.09086">
        <ele>358.3</ele>
      </trkpt>
      <trkpt lat="36.59846" lon="28.09091">
        <ele>359.6</ele>
      </trkpt>
      <trkpt lat="36.59851" lon="28.09097">
        <ele>361.3</ele>
      </trkpt>
      <trkpt lat="36.59854" lon="28.091">
        <ele>362.3</ele>
      </trkpt>
      <trkpt lat="36.59858" lon="28.09101">
        <ele>363</ele>
      </trkpt>
      <trkpt lat="36.59868" lon="28.09105">
        <ele>364.7</ele>
      </trkpt>
      <trkpt lat="36.59875" lon="28.09106">
        <ele>365.6</ele>
      </trkpt>
      <trkpt lat="36.59881" lon="28.09109">
        <ele>366.6</ele>
      </trkpt>
      <trkpt lat="36.59886" lon="28.09111">
        <ele>367.4</ele>
      </trkpt>
      <trkpt lat="36.59891" lon="28.09117">
        <ele>368.2</ele>
      </trkpt>
      <trkpt lat="36.59893" lon="28.09121">
        <ele>368.6</ele>
      </trkpt>
      <trkpt lat="36.59899" lon="28.09126">
        <ele>369.2</ele>
      </trkpt>
      <trkpt lat="36.59905" lon="28.09134">
        <ele>369.9</ele>
      </trkpt>
      <trkpt lat="36.59915" lon="28.09144">
        <ele>370.2</ele>
      </trkpt>
      <trkpt lat="36.59917" lon="28.09145">
        <ele>370.3</ele>
      </trkpt>
      <trkpt lat="36.59919" lon="28.09149">
        <ele>370.6</ele>
      </trkpt>
      <trkpt lat="36.59928" lon="28.09157">
        <ele>371.6</ele>
      </trkpt>
      <trkpt lat="36.59933" lon="28.09162">
        <ele>372</ele>
      </trkpt>
      <trkpt lat="36.59941" lon="28.09167">
        <ele>372.9</ele>
      </trkpt>
      <trkpt lat="36.59952" lon="28.0917">
        <ele>374.5</ele>
      </trkpt>
      <trkpt lat="36.59967" lon="28.09175">
        <ele>376.5</ele>
      </trkpt>
      <trkpt lat="36.59972" lon="28.09176">
        <ele>377.2</ele>
      </trkpt>
      <trkpt lat="36.59981" lon="28.09182">
        <ele>378.6</ele>
      </trkpt>
      <trkpt lat="36.59982" lon="28.09183">
        <ele>378.7</ele>
      </trkpt>
      <trkpt lat="36.59984" lon="28.09183">
        <ele>378.9</ele>
      </trkpt>
      <trkpt lat="36.59989" lon="28.09185">
        <ele>379.5</ele>
      </trkpt>
      <trkpt lat="36.59992" lon="28.09182">
        <ele>379.7</ele>
      </trkpt>
      <trkpt lat="36.59995" lon="28.09183">
        <ele>380.1</ele>
      </trkpt>
      <trkpt lat="36.6" lon="28.09183">
        <ele>380.6</ele>
      </trkpt>
      <trkpt lat="36.60004" lon="28.09189">
        <ele>381.4</ele>
      </trkpt>
      <trkpt lat="36.60008" lon="28.09195">
        <ele>382.1</ele>
      </trkpt>
      <trkpt lat="36.60015" lon="28.09204">
        <ele>383</ele>
      </trkpt>
      <trkpt lat="36.60018" lon="28.09209">
        <ele>383.3</ele>
      </trkpt>
      <trkpt lat="36.6002" lon="28.09214">
        <ele>383.5</ele>
      </trkpt>
      <trkpt lat="36.60023" lon="28.09212">
        <ele>383.8</ele>
      </trkpt>
      <trkpt lat="36.60027" lon="28.09215">
        <ele>384.1</ele>
      </trkpt>
      <trkpt lat="36.60028" lon="28.09215">
        <ele>384.2</ele>
      </trkpt>
      <trkpt lat="36.60031" lon="28.09219">
        <ele>384.3</ele>
      </trkpt>
      <trkpt lat="36.60033" lon="28.09221">
        <ele>384.4</ele>
      </trkpt>
      <trkpt lat="36.60034" lon="28.09228">
        <ele>384.3</ele>
      </trkpt>
      <trkpt lat="36.60037" lon="28.09232">
        <ele>384.2</ele>
      </trkpt>
      <trkpt lat="36.60044" lon="28.09237">
        <ele>384.3</ele>
      </trkpt>
      <trkpt lat="36.60045" lon="28.09237">
        <ele>384.4</ele>
      </trkpt>
      <trkpt lat="36.60048" lon="28.0924">
        <ele>384.3</ele>
      </trkpt>
      <trkpt lat="36.60052" lon="28.09245">
        <ele>384</ele>
      </trkpt>
      <trkpt lat="36.60056" lon="28.09248">
        <ele>383.9</ele>
      </trkpt>
      <trkpt lat="36.60057" lon="28.09249">
        <ele>383.8</ele>
      </trkpt>
      <trkpt lat="36.60059" lon="28.09258">
        <ele>383.2</ele>
      </trkpt>
      <trkpt lat="36.60065" lon="28.09265">
        <ele>382.8</ele>
      </trkpt>
      <trkpt lat="36.60069" lon="28.09269">
        <ele>382.6</ele>
      </trkpt>
      <trkpt lat="36.60073" lon="28.09273">
        <ele>382.3</ele>
      </trkpt>
      <trkpt lat="36.60075" lon="28.09274">
        <ele>382.2</ele>
      </trkpt>
      <trkpt lat="36.60082" lon="28.09279">
        <ele>381.9</ele>
      </trkpt>
      <trkpt lat="36.6009" lon="28.09285">
        <ele>381.3</ele>
      </trkpt>
      <trkpt lat="36.60098" lon="28.09284">
        <ele>381.2</ele>
      </trkpt>
      <trkpt lat="36.6011" lon="28.09283">
        <ele>380.9</ele>
      </trkpt>
      <trkpt lat="36.60115" lon="28.09285">
        <ele>380.6</ele>
      </trkpt>
      <trkpt lat="36.60126" lon="28.09289">
        <ele>379.9</ele>
      </trkpt>
      <trkpt lat="36.60135" lon="28.09295">
        <ele>379.1</ele>
      </trkpt>
      <trkpt lat="36.60136" lon="28.09299">
        <ele>378.7</ele>
      </trkpt>
      <trkpt lat="36.60143" lon="28.09303">
        <ele>378.1</ele>
      </trkpt>
      <trkpt lat="36.60147" lon="28.09304">
        <ele>377.8</ele>
      </trkpt>
      <trkpt lat="36.60151" lon="28.09308">
        <ele>377.4</ele>
      </trkpt>
      <trkpt lat="36.60151" lon="28.09308">
        <ele>377.3</ele>
      </trkpt>
      <trkpt lat="36.60155" lon="28.09308">
        <ele>377.2</ele>
      </trkpt>
      <trkpt lat="36.60155" lon="28.09308">
        <ele>377.2</ele>
      </trkpt>
      <trkpt lat="36.60155" lon="28.09308">
        <ele>377.1</ele>
      </trkpt>
      <trkpt lat="36.60155" lon="28.09309">
        <ele>377.1</ele>
      </trkpt>
      <trkpt lat="36.60152" lon="28.09308">
        <ele>377.3</ele>
      </trkpt>
      <trkpt lat="36.60152" lon="28.09308">
        <ele>377.2</ele>
      </trkpt>
      <trkpt lat="36.60149" lon="28.0931">
        <ele>377.2</ele>
      </trkpt>
      <trkpt lat="36.6015" lon="28.09311">
        <ele>377.1</ele>
      </trkpt>
      <trkpt lat="36.6015" lon="28.0931">
        <ele>377.1</ele>
      </trkpt>
      <trkpt lat="36.60152" lon="28.09309">
        <ele>377.2</ele>
      </trkpt>
      <trkpt lat="36.60157" lon="28.0931">
        <ele>376.9</ele>
      </trkpt>
      <trkpt lat="36.60157" lon="28.09311">
        <ele>376.8</ele>
      </trkpt>
      <trkpt lat="36.60156" lon="28.09312">
        <ele>376.7</ele>
      </trkpt>
      <trkpt lat="36.60159" lon="28.09315">
        <ele>376.3</ele>
      </trkpt>
      <trkpt lat="36.60169" lon="28.09322">
        <ele>375.3</ele>
      </trkpt>
      <trkpt lat="36.60169" lon="28.09322">
        <ele>375.3</ele>
      </trkpt>
      <trkpt lat="36.60172" lon="28.09323">
        <ele>375.1</ele>
      </trkpt>
      <trkpt lat="36.60177" lon="28.09335">
        <ele>374.2</ele>
      </trkpt>
      <trkpt lat="36.6018" lon="28.09339">
        <ele>374.4</ele>
      </trkpt>
      <trkpt lat="36.60182" lon="28.0934">
        <ele>374.4</ele>
      </trkpt>
      <trkpt lat="36.60186" lon="28.09351">
        <ele>374.7</ele>
      </trkpt>
      <trkpt lat="36.60194" lon="28.09355">
        <ele>374.8</ele>
      </trkpt>
      <trkpt lat="36.60201" lon="28.09363">
        <ele>374.8</ele>
      </trkpt>
      <trkpt lat="36.60205" lon="28.09368">
        <ele>374.8</ele>
      </trkpt>
      <trkpt lat="36.60206" lon="28.09369">
        <ele>374.8</ele>
      </trkpt>
      <trkpt lat="36.60207" lon="28.0937">
        <ele>374.8</ele>
      </trkpt>
      <trkpt lat="36.60216" lon="28.09382">
        <ele>374.5</ele>
      </trkpt>
      <trkpt lat="36.60222" lon="28.09388">
        <ele>374.2</ele>
      </trkpt>
      <trkpt lat="36.60231" lon="28.09395">
        <ele>373.7</ele>
      </trkpt>
      <trkpt lat="36.60237" lon="28.09402">
        <ele>373.3</ele>
      </trkpt>
      <trkpt lat="36.60245" lon="28.0941">
        <ele>372.6</ele>
      </trkpt>
      <trkpt lat="36.60257" lon="28.0942">
        <ele>373.6</ele>
      </trkpt>
      <trkpt lat="36.60258" lon="28.09421">
        <ele>373.8</ele>
      </trkpt>
      <trkpt lat="36.60264" lon="28.09422">
        <ele>375.4</ele>
      </trkpt>
      <trkpt lat="36.60271" lon="28.09436">
        <ele>376.5</ele>
      </trkpt>
      <trkpt lat="36.6027" lon="28.09439">
        <ele>375.9</ele>
      </trkpt>
      <trkpt lat="36.60274" lon="28.09447">
        <ele>376.4</ele>
      </trkpt>
      <trkpt lat="36.6028" lon="28.09457">
        <ele>377.4</ele>
      </trkpt>
      <trkpt lat="36.60284" lon="28.09465">
        <ele>378.3</ele>
      </trkpt>
      <trkpt lat="36.60291" lon="28.09476">
        <ele>379.4</ele>
      </trkpt>
      <trkpt lat="36.60293" lon="28.09489">
        <ele>379</ele>
      </trkpt>
      <trkpt lat="36.60295" lon="28.095">
        <ele>378.9</ele>
      </trkpt>
      <trkpt lat="36.60295" lon="28.09509">
        <ele>378.7</ele>
      </trkpt>
      <trkpt lat="36.60294" lon="28.09525">
        <ele>377.7</ele>
      </trkpt>
      <trkpt lat="36.60295" lon="28.09543">
        <ele>377.4</ele>
      </trkpt>
      <trkpt lat="36.60296" lon="28.09546">
        <ele>377.4</ele>
      </trkpt>
      <trkpt lat="36.60298" lon="28.09551">
        <ele>378</ele>
      </trkpt>
      <trkpt lat="36.60304" lon="28.09561">
        <ele>379.4</ele>
      </trkpt>
      <trkpt lat="36.60306" lon="28.09574">
        <ele>379.8</ele>
      </trkpt>
      <trkpt lat="36.60311" lon="28.09581">
        <ele>381.3</ele>
      </trkpt>
      <trkpt lat="36.60317" lon="28.09588">
        <ele>382.6</ele>
      </trkpt>
      <trkpt lat="36.60322" lon="28.09593">
        <ele>383.2</ele>
      </trkpt>
      <trkpt lat="36.60327" lon="28.09599">
        <ele>383.5</ele>
      </trkpt>
      <trkpt lat="36.6033" lon="28.096">
        <ele>384.2</ele>
      </trkpt>
      <trkpt lat="36.60336" lon="28.096">
        <ele>386.2</ele>
      </trkpt>
      <trkpt lat="36.60339" lon="28.09603">
        <ele>386.7</ele>
      </trkpt>
      <trkpt lat="36.60342" lon="28.09605">
        <ele>387.3</ele>
      </trkpt>
      <trkpt lat="36.60348" lon="28.09611">
        <ele>388.1</ele>
      </trkpt>
      <trkpt lat="36.60353" lon="28.09615">
        <ele>388.8</ele>
      </trkpt>
      <trkpt lat="36.60358" lon="28.09624">
        <ele>388.5</ele>
      </trkpt>
      <trkpt lat="36.60361" lon="28.0963">
        <ele>388.5</ele>
      </trkpt>
      <trkpt lat="36.60369" lon="28.09633">
        <ele>390.9</ele>
      </trkpt>
      <trkpt lat="36.60378" lon="28.09644">
        <ele>391.8</ele>
      </trkpt>
      <trkpt lat="36.60379" lon="28.09646">
        <ele>391.9</ele>
      </trkpt>
      <trkpt lat="36.60389" lon="28.09648">
        <ele>395</ele>
      </trkpt>
      <trkpt lat="36.60391" lon="28.0965">
        <ele>395.5</ele>
      </trkpt>
      <trkpt lat="36.60402" lon="28.09661">
        <ele>397.5</ele>
      </trkpt>
      <trkpt lat="36.60409" lon="28.09673">
        <ele>397.8</ele>
      </trkpt>
      <trkpt lat="36.60413" lon="28.09677">
        <ele>398.6</ele>
      </trkpt>
      <trkpt lat="36.60425" lon="28.09682">
        <ele>400.5</ele>
      </trkpt>
      <trkpt lat="36.60426" lon="28.09682">
        <ele>400.6</ele>
      </trkpt>
      <trkpt lat="36.60434" lon="28.09684">
        <ele>401.7</ele>
      </trkpt>
      <trkpt lat="36.60441" lon="28.09688">
        <ele>402.3</ele>
      </trkpt>
      <trkpt lat="36.60448" lon="28.0969">
        <ele>403.5</ele>
      </trkpt>
      <trkpt lat="36.60457" lon="28.09689">
        <ele>405.4</ele>
      </trkpt>
      <trkpt lat="36.60467" lon="28.09689">
        <ele>407.4</ele>
      </trkpt>
      <trkpt lat="36.60475" lon="28.09688">
        <ele>409</ele>
      </trkpt>
      <trkpt lat="36.60482" lon="28.09686">
        <ele>410.6</ele>
      </trkpt>
      <trkpt lat="36.60489" lon="28.09692">
        <ele>411.4</ele>
      </trkpt>
      <trkpt lat="36.60497" lon="28.09696">
        <ele>412.5</ele>
      </trkpt>
      <trkpt lat="36.60499" lon="28.09697">
        <ele>412.8</ele>
      </trkpt>
      <trkpt lat="36.60506" lon="28.0969">
        <ele>414.5</ele>
      </trkpt>
      <trkpt lat="36.60506" lon="28.09689">
        <ele>414.6</ele>
      </trkpt>
      <trkpt lat="36.60508" lon="28.09689">
        <ele>414.9</ele>
      </trkpt>
      <trkpt lat="36.60506" lon="28.09693">
        <ele>414.2</ele>
      </trkpt>
      <trkpt lat="36.60508" lon="28.09694">
        <ele>414.4</ele>
      </trkpt>
      <trkpt lat="36.60512" lon="28.09696">
        <ele>414.7</ele>
      </trkpt>
      <trkpt lat="36.60519" lon="28.09703">
        <ele>414.8</ele>
      </trkpt>
      <trkpt lat="36.6052" lon="28.09704">
        <ele>414.7</ele>
      </trkpt>
      <trkpt lat="36.60526" lon="28.0971">
        <ele>414.8</ele>
      </trkpt>
      <trkpt lat="36.60531" lon="28.09714">
        <ele>415</ele>
      </trkpt>
      <trkpt lat="36.60541" lon="28.09717">
        <ele>415.8</ele>
      </trkpt>
      <trkpt lat="36.60551" lon="28.09724">
        <ele>416</ele>
      </trkpt>
      <trkpt lat="36.60558" lon="28.09729">
        <ele>416</ele>
      </trkpt>
      <trkpt lat="36.60564" lon="28.09739">
        <ele>415.6</ele>
      </trkpt>
      <trkpt lat="36.60568" lon="28.0974">
        <ele>415.8</ele>
      </trkpt>
      <trkpt lat="36.60569" lon="28.09745">
        <ele>415.3</ele>
      </trkpt>
      <trkpt lat="36.60574" lon="28.09747">
        <ele>415.4</ele>
      </trkpt>
      <trkpt lat="36.60582" lon="28.09749">
        <ele>416</ele>
      </trkpt>
      <trkpt lat="36.60591" lon="28.09749">
        <ele>416.6</ele>
      </trkpt>
      <trkpt lat="36.606" lon="28.0975">
        <ele>417</ele>
      </trkpt>
      <trkpt lat="36.60604" lon="28.0975">
        <ele>417.3</ele>
      </trkpt>
      <trkpt lat="36.60616" lon="28.09758">
        <ele>417.3</ele>
      </trkpt>
      <trkpt lat="36.60628" lon="28.09764">
        <ele>417.7</ele>
      </trkpt>
      <trkpt lat="36.60635" lon="28.09769">
        <ele>417.7</ele>
      </trkpt>
      <trkpt lat="36.60643" lon="28.09772">
        <ele>418</ele>
      </trkpt>
      <trkpt lat="36.60652" lon="28.09775">
        <ele>418.3</ele>
      </trkpt>
      <trkpt lat="36.60656" lon="28.09778">
        <ele>418.4</ele>
      </trkpt>
      <trkpt lat="36.60669" lon="28.09786">
        <ele>418.6</ele>
      </trkpt>
      <trkpt lat="36.60673" lon="28.09789">
        <ele>418.8</ele>
      </trkpt>
      <trkpt lat="36.60685" lon="28.09792">
        <ele>419.5</ele>
      </trkpt>
      <trkpt lat="36.60693" lon="28.09795">
        <ele>419.9</ele>
      </trkpt>
      <trkpt lat="36.607" lon="28.09801">
        <ele>419.9</ele>
      </trkpt>
      <trkpt lat="36.60716" lon="28.09815">
        <ele>419.8</ele>
      </trkpt>
      <trkpt lat="36.60723" lon="28.09821">
        <ele>419.7</ele>
      </trkpt>
      <trkpt lat="36.60731" lon="28.09829">
        <ele>419.3</ele>
      </trkpt>
      <trkpt lat="36.60733" lon="28.0983">
        <ele>419.3</ele>
      </trkpt>
      <trkpt lat="36.60742" lon="28.09833">
        <ele>419.6</ele>
      </trkpt>
      <trkpt lat="36.6075" lon="28.09832">
        <ele>420.2</ele>
      </trkpt>
      <trkpt lat="36.60759" lon="28.09837">
        <ele>420.8</ele>
      </trkpt>
      <trkpt lat="36.6077" lon="28.09844">
        <ele>421.3</ele>
      </trkpt>
      <trkpt lat="36.60771" lon="28.09844">
        <ele>421.6</ele>
      </trkpt>
      <trkpt lat="36.60786" lon="28.09856">
        <ele>422.3</ele>
      </trkpt>
      <trkpt lat="36.60793" lon="28.09863">
        <ele>422.7</ele>
      </trkpt>
      <trkpt lat="36.60795" lon="28.09866">
        <ele>422.6</ele>
      </trkpt>
      <trkpt lat="36.60799" lon="28.09873">
        <ele>422.7</ele>
      </trkpt>
      <trkpt lat="36.60804" lon="28.09879">
        <ele>422.9</ele>
      </trkpt>
      <trkpt lat="36.60808" lon="28.09883">
        <ele>423.2</ele>
      </trkpt>
      <trkpt lat="36.60816" lon="28.09888">
        <ele>424.1</ele>
      </trkpt>
      <trkpt lat="36.60821" lon="28.09894">
        <ele>424.5</ele>
      </trkpt>
      <trkpt lat="36.60835" lon="28.09908">
        <ele>425.7</ele>
      </trkpt>
      <trkpt lat="36.60845" lon="28.09918">
        <ele>426.3</ele>
      </trkpt>
      <trkpt lat="36.60854" lon="28.09926">
        <ele>426.9</ele>
      </trkpt>
      <trkpt lat="36.6086" lon="28.09931">
        <ele>427.5</ele>
      </trkpt>
      <trkpt lat="36.60871" lon="28.09936">
        <ele>428.6</ele>
      </trkpt>
      <trkpt lat="36.60877" lon="28.09939">
        <ele>429.2</ele>
      </trkpt>
      <trkpt lat="36.6088" lon="28.0994">
        <ele>429.6</ele>
      </trkpt>
      <trkpt lat="36.6089" lon="28.09945">
        <ele>430.6</ele>
      </trkpt>
      <trkpt lat="36.60901" lon="28.09951">
        <ele>432</ele>
      </trkpt>
      <trkpt lat="36.60908" lon="28.09951">
        <ele>432.8</ele>
      </trkpt>
      <trkpt lat="36.60911" lon="28.09948">
        <ele>433.3</ele>
      </trkpt>
      <trkpt lat="36.60913" lon="28.0995">
        <ele>433.5</ele>
      </trkpt>
      <trkpt lat="36.60912" lon="28.09951">
        <ele>433.4</ele>
      </trkpt>
      <trkpt lat="36.60913" lon="28.09951">
        <ele>433.6</ele>
      </trkpt>
      <trkpt lat="36.6092" lon="28.09956">
        <ele>433.3</ele>
      </trkpt>
      <trkpt lat="36.60926" lon="28.09958">
        <ele>432</ele>
      </trkpt>
      <trkpt lat="36.60929" lon="28.09958">
        <ele>431.4</ele>
      </trkpt>
      <trkpt lat="36.60937" lon="28.09963">
        <ele>429.7</ele>
      </trkpt>
      <trkpt lat="36.60942" lon="28.09968">
        <ele>428.9</ele>
      </trkpt>
      <trkpt lat="36.60942" lon="28.09971">
        <ele>428.9</ele>
      </trkpt>
      <trkpt lat="36.60945" lon="28.09972">
        <ele>428.4</ele>
      </trkpt>
      <trkpt lat="36.6095" lon="28.09976">
        <ele>427.6</ele>
      </trkpt>
      <trkpt lat="36.60958" lon="28.09977">
        <ele>426.3</ele>
      </trkpt>
      <trkpt lat="36.60966" lon="28.09979">
        <ele>424.8</ele>
      </trkpt>
      <trkpt lat="36.60976" lon="28.09983">
        <ele>423.2</ele>
      </trkpt>
      <trkpt lat="36.60984" lon="28.09986">
        <ele>422.2</ele>
      </trkpt>
      <trkpt lat="36.60993" lon="28.09988">
        <ele>420.8</ele>
      </trkpt>
      <trkpt lat="36.60999" lon="28.0999">
        <ele>420</ele>
      </trkpt>
      <trkpt lat="36.60999" lon="28.09991">
        <ele>420</ele>
      </trkpt>
      <trkpt lat="36.61003" lon="28.09991">
        <ele>418.7</ele>
      </trkpt>
      <trkpt lat="36.61007" lon="28.09993">
        <ele>417.5</ele>
      </trkpt>
      <trkpt lat="36.61013" lon="28.09996">
        <ele>415.4</ele>
      </trkpt>
      <trkpt lat="36.61018" lon="28.09999">
        <ele>413.5</ele>
      </trkpt>
      <trkpt lat="36.61027" lon="28.1">
        <ele>410</ele>
      </trkpt>
      <trkpt lat="36.61029" lon="28.1">
        <ele>409.3</ele>
      </trkpt>
      <trkpt lat="36.61036" lon="28.10001">
        <ele>406.6</ele>
      </trkpt>
      <trkpt lat="36.61041" lon="28.10007">
        <ele>405</ele>
      </trkpt>
      <trkpt lat="36.61046" lon="28.10012">
        <ele>403.4</ele>
      </trkpt>
      <trkpt lat="36.61047" lon="28.10012">
        <ele>403.2</ele>
      </trkpt>
      <trkpt lat="36.61056" lon="28.10014">
        <ele>399.6</ele>
      </trkpt>
      <trkpt lat="36.61061" lon="28.10017">
        <ele>398.2</ele>
      </trkpt>
      <trkpt lat="36.61068" lon="28.1002">
        <ele>395.8</ele>
      </trkpt>
      <trkpt lat="36.61077" lon="28.10027">
        <ele>393.2</ele>
      </trkpt>
      <trkpt lat="36.61086" lon="28.1003">
        <ele>390</ele>
      </trkpt>
      <trkpt lat="36.61086" lon="28.10034">
        <ele>390.6</ele>
      </trkpt>
      <trkpt lat="36.61086" lon="28.10033">
        <ele>390.7</ele>
      </trkpt>
      <trkpt lat="36.61089" lon="28.10038">
        <ele>390.2</ele>
      </trkpt>
      <trkpt lat="36.61088" lon="28.10038">
        <ele>390.4</ele>
      </trkpt>
      <trkpt lat="36.61088" lon="28.1004">
        <ele>390.8</ele>
      </trkpt>
      <trkpt lat="36.61088" lon="28.1004">
        <ele>391</ele>
      </trkpt>
      <trkpt lat="36.61088" lon="28.10042">
        <ele>390.9</ele>
      </trkpt>
      <trkpt lat="36.61093" lon="28.10046">
        <ele>389.4</ele>
      </trkpt>
      <trkpt lat="36.61095" lon="28.10049">
        <ele>388.9</ele>
      </trkpt>
      <trkpt lat="36.61095" lon="28.10053">
        <ele>389.3</ele>
      </trkpt>
      <trkpt lat="36.61096" lon="28.10057">
        <ele>389.9</ele>
      </trkpt>
      <trkpt lat="36.61103" lon="28.10063">
        <ele>387.3</ele>
      </trkpt>
      <trkpt lat="36.61112" lon="28.10065">
        <ele>383.6</ele>
      </trkpt>
      <trkpt lat="36.61113" lon="28.10064">
        <ele>382.8</ele>
      </trkpt>
      <trkpt lat="36.61116" lon="28.10067">
        <ele>382.1</ele>
      </trkpt>
      <trkpt lat="36.61115" lon="28.10064">
        <ele>382</ele>
      </trkpt>
      <trkpt lat="36.61118" lon="28.10053">
        <ele>379.4</ele>
      </trkpt>
      <trkpt lat="36.61121" lon="28.10054">
        <ele>378.3</ele>
      </trkpt>
      <trkpt lat="36.61129" lon="28.10051">
        <ele>374.5</ele>
      </trkpt>
      <trkpt lat="36.61142" lon="28.1006">
        <ele>369.8</ele>
      </trkpt>
      <trkpt lat="36.61146" lon="28.10065">
        <ele>368.2</ele>
      </trkpt>
      <trkpt lat="36.61153" lon="28.10074">
        <ele>365.6</ele>
      </trkpt>
      <trkpt lat="36.61153" lon="28.10075">
        <ele>365.7</ele>
      </trkpt>
      <trkpt lat="36.61146" lon="28.10073">
        <ele>368.9</ele>
      </trkpt>
      <trkpt lat="36.61149" lon="28.1007">
        <ele>367.4</ele>
      </trkpt>
      <trkpt lat="36.61156" lon="28.10073">
        <ele>364.5</ele>
      </trkpt>
      <trkpt lat="36.6116" lon="28.10078">
        <ele>362.7</ele>
      </trkpt>
      <trkpt lat="36.61159" lon="28.10085">
        <ele>363.6</ele>
      </trkpt>
      <trkpt lat="36.61158" lon="28.10087">
        <ele>364.4</ele>
      </trkpt>
      <trkpt lat="36.61166" lon="28.1011">
        <ele>364</ele>
      </trkpt>
      <trkpt lat="36.6117" lon="28.10119">
        <ele>363.3</ele>
      </trkpt>
      <trkpt lat="36.61178" lon="28.10127">
        <ele>361</ele>
      </trkpt>
      <trkpt lat="36.61186" lon="28.1014">
        <ele>359.3</ele>
      </trkpt>
      <trkpt lat="36.61194" lon="28.10149">
        <ele>357.4</ele>
      </trkpt>
      <trkpt lat="36.61195" lon="28.10151">
        <ele>357</ele>
      </trkpt>
      <trkpt lat="36.61199" lon="28.10154">
        <ele>355.6</ele>
      </trkpt>
      <trkpt lat="36.61205" lon="28.10159">
        <ele>354.1</ele>
      </trkpt>
      <trkpt lat="36.61211" lon="28.10172">
        <ele>353.8</ele>
      </trkpt>
      <trkpt lat="36.61211" lon="28.10176">
        <ele>354.7</ele>
      </trkpt>
      <trkpt lat="36.61211" lon="28.10176">
        <ele>354.5</ele>
      </trkpt>
      <trkpt lat="36.61214" lon="28.10178">
        <ele>353.9</ele>
      </trkpt>
      <trkpt lat="36.61221" lon="28.10174">
        <ele>350.1</ele>
      </trkpt>
      <trkpt lat="36.61225" lon="28.10181">
        <ele>349.7</ele>
      </trkpt>
      <trkpt lat="36.61236" lon="28.10192">
        <ele>347.6</ele>
      </trkpt>
      <trkpt lat="36.61245" lon="28.10199">
        <ele>345.7</ele>
      </trkpt>
      <trkpt lat="36.61255" lon="28.10207">
        <ele>343.5</ele>
      </trkpt>
      <trkpt lat="36.61264" lon="28.10214">
        <ele>341.7</ele>
      </trkpt>
      <trkpt lat="36.61266" lon="28.10215">
        <ele>341.5</ele>
      </trkpt>
      <trkpt lat="36.61266" lon="28.10215">
        <ele>341.6</ele>
      </trkpt>
      <trkpt lat="36.61272" lon="28.10225">
        <ele>341.3</ele>
      </trkpt>
      <trkpt lat="36.61281" lon="28.10238">
        <ele>340.6</ele>
      </trkpt>
      <trkpt lat="36.61285" lon="28.10247">
        <ele>340.7</ele>
      </trkpt>
      <trkpt lat="36.61289" lon="28.10256">
        <ele>340.6</ele>
      </trkpt>
      <trkpt lat="36.61297" lon="28.10265">
        <ele>339.3</ele>
      </trkpt>
      <trkpt lat="36.61306" lon="28.10277">
        <ele>337.9</ele>
      </trkpt>
      <trkpt lat="36.61315" lon="28.10287">
        <ele>336.2</ele>
      </trkpt>
      <trkpt lat="36.61321" lon="28.10296">
        <ele>335.2</ele>
      </trkpt>
      <trkpt lat="36.61325" lon="28.10303">
        <ele>334.4</ele>
      </trkpt>
      <trkpt lat="36.61335" lon="28.10312">
        <ele>332.1</ele>
      </trkpt>
      <trkpt lat="36.6134" lon="28.10316">
        <ele>332.4</ele>
      </trkpt>
      <trkpt lat="36.6135" lon="28.10323">
        <ele>332.4</ele>
      </trkpt>
      <trkpt lat="36.61357" lon="28.10331">
        <ele>332.7</ele>
      </trkpt>
      <trkpt lat="36.61363" lon="28.10328">
        <ele>331.6</ele>
      </trkpt>
      <trkpt lat="36.61365" lon="28.10324">
        <ele>330.8</ele>
      </trkpt>
      <trkpt lat="36.61368" lon="28.10312">
        <ele>328.8</ele>
      </trkpt>
      <trkpt lat="36.6137" lon="28.10303">
        <ele>327.2</ele>
      </trkpt>
      <trkpt lat="36.6138" lon="28.10292">
        <ele>324.8</ele>
      </trkpt>
      <trkpt lat="36.61388" lon="28.10285">
        <ele>323.3</ele>
      </trkpt>
      <trkpt lat="36.61387" lon="28.10286">
        <ele>323.4</ele>
      </trkpt>
      <trkpt lat="36.61384" lon="28.10288">
        <ele>324</ele>
      </trkpt>
      <trkpt lat="36.61383" lon="28.10288">
        <ele>324.1</ele>
      </trkpt>
      <trkpt lat="36.61386" lon="28.10288">
        <ele>323.7</ele>
      </trkpt>
      <trkpt lat="36.61387" lon="28.10287">
        <ele>323.6</ele>
      </trkpt>
      <trkpt lat="36.61387" lon="28.10288">
        <ele>323.6</ele>
      </trkpt>
      <trkpt lat="36.61387" lon="28.10288">
        <ele>323.6</ele>
      </trkpt>
      <trkpt lat="36.61388" lon="28.10288">
        <ele>323.6</ele>
      </trkpt>
      <trkpt lat="36.61387" lon="28.10287">
        <ele>323.6</ele>
      </trkpt>
      <trkpt lat="36.61386" lon="28.10288">
        <ele>323.8</ele>
      </trkpt>
      <trkpt lat="36.61385" lon="28.10286">
        <ele>323.7</ele>
      </trkpt>
      <trkpt lat="36.61385" lon="28.10289">
        <ele>324</ele>
      </trkpt>
      <trkpt lat="36.61381" lon="28.10291">
        <ele>324.6</ele>
      </trkpt>
      <trkpt lat="36.61379" lon="28.10293">
        <ele>325.1</ele>
      </trkpt>
      <trkpt lat="36.61378" lon="28.10296">
        <ele>325.5</ele>
      </trkpt>
      <trkpt lat="36.61376" lon="28.10306">
        <ele>327.1</ele>
      </trkpt>
      <trkpt lat="36.61373" lon="28.10309">
        <ele>327.8</ele>
      </trkpt>
      <trkpt lat="36.6137" lon="28.10312">
        <ele>328.6</ele>
      </trkpt>
      <trkpt lat="36.61369" lon="28.10318">
        <ele>329.6</ele>
      </trkpt>
      <trkpt lat="36.61368" lon="28.10323">
        <ele>330.4</ele>
      </trkpt>
      <trkpt lat="36.61368" lon="28.10323">
        <ele>330.3</ele>
      </trkpt>
      <trkpt lat="36.61367" lon="28.10333">
        <ele>332</ele>
      </trkpt>
      <trkpt lat="36.61368" lon="28.10336">
        <ele>332.2</ele>
      </trkpt>
      <trkpt lat="36.61368" lon="28.10338">
        <ele>332.3</ele>
      </trkpt>
      <trkpt lat="36.61367" lon="28.10342">
        <ele>332.9</ele>
      </trkpt>
      <trkpt lat="36.61372" lon="28.10348">
        <ele>332.9</ele>
      </trkpt>
      <trkpt lat="36.61379" lon="28.10361">
        <ele>333</ele>
      </trkpt>
      <trkpt lat="36.61395" lon="28.10373">
        <ele>331.1</ele>
      </trkpt>
      <trkpt lat="36.61395" lon="28.10373">
        <ele>331.1</ele>
      </trkpt>
      <trkpt lat="36.61396" lon="28.10394">
        <ele>332.1</ele>
      </trkpt>
      <trkpt lat="36.61402" lon="28.10416">
        <ele>331.8</ele>
      </trkpt>
      <trkpt lat="36.61407" lon="28.10433">
        <ele>331.4</ele>
      </trkpt>
      <trkpt lat="36.61408" lon="28.10438">
        <ele>331.4</ele>
      </trkpt>
      <trkpt lat="36.61408" lon="28.10441">
        <ele>331.6</ele>
      </trkpt>
      <trkpt lat="36.61408" lon="28.10458">
        <ele>332.3</ele>
      </trkpt>
      <trkpt lat="36.61407" lon="28.10468">
        <ele>333.1</ele>
      </trkpt>
      <trkpt lat="36.61412" lon="28.10487">
        <ele>332.2</ele>
      </trkpt>
      <trkpt lat="36.6142" lon="28.10502">
        <ele>331</ele>
      </trkpt>
      <trkpt lat="36.61426" lon="28.10515">
        <ele>332.3</ele>
      </trkpt>
      <trkpt lat="36.61436" lon="28.10528">
        <ele>332.9</ele>
      </trkpt>
      <trkpt lat="36.61445" lon="28.10542">
        <ele>333</ele>
      </trkpt>
      <trkpt lat="36.61455" lon="28.10556">
        <ele>332.9</ele>
      </trkpt>
      <trkpt lat="36.6146" lon="28.10563">
        <ele>332.8</ele>
      </trkpt>
      <trkpt lat="36.6146" lon="28.10563">
        <ele>332.8</ele>
      </trkpt>
      <trkpt lat="36.61464" lon="28.10569">
        <ele>332.4</ele>
      </trkpt>
      <trkpt lat="36.61474" lon="28.10579">
        <ele>331.2</ele>
      </trkpt>
      <trkpt lat="36.61482" lon="28.10587">
        <ele>330.4</ele>
      </trkpt>
      <trkpt lat="36.61488" lon="28.10597">
        <ele>330.8</ele>
      </trkpt>
      <trkpt lat="36.61496" lon="28.10609">
        <ele>330.9</ele>
      </trkpt>
      <trkpt lat="36.61507" lon="28.10621">
        <ele>330.7</ele>
      </trkpt>
      <trkpt lat="36.6152" lon="28.10635">
        <ele>331.2</ele>
      </trkpt>
      <trkpt lat="36.61528" lon="28.10646">
        <ele>331.6</ele>
      </trkpt>
      <trkpt lat="36.61534" lon="28.10652">
        <ele>331.5</ele>
      </trkpt>
      <trkpt lat="36.61543" lon="28.10658">
        <ele>331</ele>
      </trkpt>
      <trkpt lat="36.6155" lon="28.10661">
        <ele>330.3</ele>
      </trkpt>
      <trkpt lat="36.61569" lon="28.10672">
        <ele>329.2</ele>
      </trkpt>
      <trkpt lat="36.61575" lon="28.10677">
        <ele>329.3</ele>
      </trkpt>
      <trkpt lat="36.61576" lon="28.10678">
        <ele>329.4</ele>
      </trkpt>
      <trkpt lat="36.61577" lon="28.10681">
        <ele>329.8</ele>
      </trkpt>
      <trkpt lat="36.61585" lon="28.10691">
        <ele>330.4</ele>
      </trkpt>
      <trkpt lat="36.61593" lon="28.10703">
        <ele>331.9</ele>
      </trkpt>
      <trkpt lat="36.61599" lon="28.10713">
        <ele>333</ele>
      </trkpt>
      <trkpt lat="36.61608" lon="28.10722">
        <ele>333.7</ele>
      </trkpt>
      <trkpt lat="36.61614" lon="28.10727">
        <ele>334</ele>
      </trkpt>
      <trkpt lat="36.61619" lon="28.10737">
        <ele>334.8</ele>
      </trkpt>
      <trkpt lat="36.61621" lon="28.1074">
        <ele>335</ele>
      </trkpt>
      <trkpt lat="36.6163" lon="28.10748">
        <ele>335.1</ele>
      </trkpt>
      <trkpt lat="36.61639" lon="28.10757">
        <ele>335.9</ele>
      </trkpt>
      <trkpt lat="36.61646" lon="28.10763">
        <ele>336.3</ele>
      </trkpt>
      <trkpt lat="36.61654" lon="28.10771">
        <ele>336.6</ele>
      </trkpt>
      <trkpt lat="36.61663" lon="28.10781">
        <ele>336.8</ele>
      </trkpt>
      <trkpt lat="36.61667" lon="28.10786">
        <ele>337</ele>
      </trkpt>
      <trkpt lat="36.61669" lon="28.10789">
        <ele>337.4</ele>
      </trkpt>
      <trkpt lat="36.61679" lon="28.10795">
        <ele>337.6</ele>
      </trkpt>
      <trkpt lat="36.61687" lon="28.10798">
        <ele>337.4</ele>
      </trkpt>
      <trkpt lat="36.6169" lon="28.108">
        <ele>337.4</ele>
      </trkpt>
      <trkpt lat="36.61701" lon="28.10809">
        <ele>337.6</ele>
      </trkpt>
      <trkpt lat="36.61709" lon="28.10819">
        <ele>338.1</ele>
      </trkpt>
      <trkpt lat="36.61714" lon="28.10828">
        <ele>338.7</ele>
      </trkpt>
      <trkpt lat="36.61722" lon="28.10839">
        <ele>339.4</ele>
      </trkpt>
      <trkpt lat="36.61735" lon="28.10851">
        <ele>339.1</ele>
      </trkpt>
      <trkpt lat="36.61746" lon="28.10856">
        <ele>337.9</ele>
      </trkpt>
      <trkpt lat="36.61754" lon="28.10865">
        <ele>337.6</ele>
      </trkpt>
      <trkpt lat="36.61763" lon="28.10875">
        <ele>337.6</ele>
      </trkpt>
      <trkpt lat="36.61775" lon="28.10881">
        <ele>336.8</ele>
      </trkpt>
      <trkpt lat="36.61784" lon="28.10891">
        <ele>336.8</ele>
      </trkpt>
      <trkpt lat="36.61796" lon="28.10902">
        <ele>336.5</ele>
      </trkpt>
      <trkpt lat="36.61802" lon="28.10907">
        <ele>336.3</ele>
      </trkpt>
      <trkpt lat="36.61801" lon="28.10906">
        <ele>336.4</ele>
      </trkpt>
      <trkpt lat="36.61806" lon="28.10909">
        <ele>336.2</ele>
      </trkpt>
      <trkpt lat="36.61812" lon="28.10912">
        <ele>335.9</ele>
      </trkpt>
      <trkpt lat="36.61815" lon="28.10914">
        <ele>335.7</ele>
      </trkpt>
      <trkpt lat="36.61821" lon="28.10921">
        <ele>335.9</ele>
      </trkpt>
      <trkpt lat="36.61833" lon="28.10931">
        <ele>336.1</ele>
      </trkpt>
      <trkpt lat="36.61839" lon="28.10936">
        <ele>337</ele>
      </trkpt>
      <trkpt lat="36.61851" lon="28.10941">
        <ele>338.4</ele>
      </trkpt>
      <trkpt lat="36.61863" lon="28.10945">
        <ele>339.6</ele>
      </trkpt>
      <trkpt lat="36.6188" lon="28.10948">
        <ele>340.9</ele>
      </trkpt>
      <trkpt lat="36.61896" lon="28.10943">
        <ele>341.1</ele>
      </trkpt>
      <trkpt lat="36.61906" lon="28.1094">
        <ele>341.3</ele>
      </trkpt>
      <trkpt lat="36.61909" lon="28.10939">
        <ele>341.4</ele>
      </trkpt>
      <trkpt lat="36.6191" lon="28.10938">
        <ele>341.4</ele>
      </trkpt>
      <trkpt lat="36.61913" lon="28.10936">
        <ele>341.4</ele>
      </trkpt>
      <trkpt lat="36.61916" lon="28.10933">
        <ele>341.3</ele>
      </trkpt>
      <trkpt lat="36.61919" lon="28.10929">
        <ele>341.4</ele>
      </trkpt>
      <trkpt lat="36.6192" lon="28.10927">
        <ele>341.4</ele>
      </trkpt>
      <trkpt lat="36.61928" lon="28.10924">
        <ele>342.4</ele>
      </trkpt>
      <trkpt lat="36.6193" lon="28.10922">
        <ele>342.6</ele>
      </trkpt>
      <trkpt lat="36.6193" lon="28.10921">
        <ele>342.6</ele>
      </trkpt>
      <trkpt lat="36.61936" lon="28.10916">
        <ele>343.2</ele>
      </trkpt>
      <trkpt lat="36.61944" lon="28.10905">
        <ele>344.5</ele>
      </trkpt>
      <trkpt lat="36.61949" lon="28.109">
        <ele>345.3</ele>
      </trkpt>
      <trkpt lat="36.61951" lon="28.10899">
        <ele>345.7</ele>
      </trkpt>
      <trkpt lat="36.61953" lon="28.10898">
        <ele>346</ele>
      </trkpt>
      <trkpt lat="36.61965" lon="28.10896">
        <ele>348.3</ele>
      </trkpt>
      <trkpt lat="36.61977" lon="28.10892">
        <ele>350.6</ele>
      </trkpt>
      <trkpt lat="36.61985" lon="28.10892">
        <ele>352.3</ele>
      </trkpt>
      <trkpt lat="36.6199" lon="28.10894">
        <ele>353.2</ele>
      </trkpt>
      <trkpt lat="36.61995" lon="28.10898">
        <ele>354</ele>
      </trkpt>
      <trkpt lat="36.62001" lon="28.10901">
        <ele>354.6</ele>
      </trkpt>
      <trkpt lat="36.62002" lon="28.10903">
        <ele>354.5</ele>
      </trkpt>
      <trkpt lat="36.62007" lon="28.10903">
        <ele>353.9</ele>
      </trkpt>
      <trkpt lat="36.62008" lon="28.10902">
        <ele>353.8</ele>
      </trkpt>
      <trkpt lat="36.62014" lon="28.10904">
        <ele>353</ele>
      </trkpt>
      <trkpt lat="36.62021" lon="28.10906">
        <ele>352.2</ele>
      </trkpt>
      <trkpt lat="36.6203" lon="28.1091">
        <ele>350.9</ele>
      </trkpt>
      <trkpt lat="36.62044" lon="28.10916">
        <ele>349.3</ele>
      </trkpt>
      <trkpt lat="36.62053" lon="28.10916">
        <ele>348.3</ele>
      </trkpt>
      <trkpt lat="36.62063" lon="28.10922">
        <ele>347.3</ele>
      </trkpt>
      <trkpt lat="36.62066" lon="28.10925">
        <ele>346.8</ele>
      </trkpt>
      <trkpt lat="36.62069" lon="28.10926">
        <ele>346.6</ele>
      </trkpt>
      <trkpt lat="36.62078" lon="28.10927">
        <ele>345.6</ele>
      </trkpt>
      <trkpt lat="36.6209" lon="28.10928">
        <ele>344.7</ele>
      </trkpt>
      <trkpt lat="36.62097" lon="28.10934">
        <ele>344.4</ele>
      </trkpt>
      <trkpt lat="36.62101" lon="28.10937">
        <ele>344.2</ele>
      </trkpt>
      <trkpt lat="36.62109" lon="28.10945">
        <ele>344</ele>
      </trkpt>
      <trkpt lat="36.62123" lon="28.10947">
        <ele>343.5</ele>
      </trkpt>
      <trkpt lat="36.62136" lon="28.10946">
        <ele>342.9</ele>
      </trkpt>
      <trkpt lat="36.62141" lon="28.10948">
        <ele>342.8</ele>
      </trkpt>
      <trkpt lat="36.62149" lon="28.10946">
        <ele>342.4</ele>
      </trkpt>
      <trkpt lat="36.62158" lon="28.10948">
        <ele>342.2</ele>
      </trkpt>
      <trkpt lat="36.62169" lon="28.10948">
        <ele>342</ele>
      </trkpt>
      <trkpt lat="36.62178" lon="28.10947">
        <ele>342.6</ele>
      </trkpt>
      <trkpt lat="36.62186" lon="28.10945">
        <ele>343.1</ele>
      </trkpt>
      <trkpt lat="36.62197" lon="28.10947">
        <ele>344</ele>
      </trkpt>
      <trkpt lat="36.6221" lon="28.10953">
        <ele>345.1</ele>
      </trkpt>
      <trkpt lat="36.62215" lon="28.10955">
        <ele>345.5</ele>
      </trkpt>
      <trkpt lat="36.62229" lon="28.1096">
        <ele>346.6</ele>
      </trkpt>
      <trkpt lat="36.6223" lon="28.1096">
        <ele>346.7</ele>
      </trkpt>
      <trkpt lat="36.62236" lon="28.10961">
        <ele>347.1</ele>
      </trkpt>
      <trkpt lat="36.62243" lon="28.10957">
        <ele>347.5</ele>
      </trkpt>
      <trkpt lat="36.62251" lon="28.10953">
        <ele>347.9</ele>
      </trkpt>
      <trkpt lat="36.62256" lon="28.10954">
        <ele>348.2</ele>
      </trkpt>
      <trkpt lat="36.62261" lon="28.10954">
        <ele>348.5</ele>
      </trkpt>
      <trkpt lat="36.62267" lon="28.10953">
        <ele>348.7</ele>
      </trkpt>
      <trkpt lat="36.62269" lon="28.10952">
        <ele>348.8</ele>
      </trkpt>
      <trkpt lat="36.62277" lon="28.10948">
        <ele>349.1</ele>
      </trkpt>
      <trkpt lat="36.62285" lon="28.10948">
        <ele>349.6</ele>
      </trkpt>
      <trkpt lat="36.62295" lon="28.10945">
        <ele>350</ele>
      </trkpt>
      <trkpt lat="36.62297" lon="28.10946">
        <ele>350.1</ele>
      </trkpt>
      <trkpt lat="36.62302" lon="28.1095">
        <ele>350.4</ele>
      </trkpt>
      <trkpt lat="36.62303" lon="28.1095">
        <ele>350.5</ele>
      </trkpt>
      <trkpt lat="36.62317" lon="28.10957">
        <ele>351.2</ele>
      </trkpt>
      <trkpt lat="36.62321" lon="28.10958">
        <ele>351.4</ele>
      </trkpt>
      <trkpt lat="36.62322" lon="28.10959">
        <ele>351.5</ele>
      </trkpt>
      <trkpt lat="36.62329" lon="28.10965">
        <ele>351.8</ele>
      </trkpt>
      <trkpt lat="36.6234" lon="28.10973">
        <ele>352.3</ele>
      </trkpt>
      <trkpt lat="36.62344" lon="28.10976">
        <ele>352.4</ele>
      </trkpt>
      <trkpt lat="36.62348" lon="28.10975">
        <ele>352.6</ele>
      </trkpt>
      <trkpt lat="36.62351" lon="28.10982">
        <ele>352.6</ele>
      </trkpt>
      <trkpt lat="36.62357" lon="28.10989">
        <ele>352.6</ele>
      </trkpt>
      <trkpt lat="36.62364" lon="28.1099">
        <ele>352.7</ele>
      </trkpt>
      <trkpt lat="36.62374" lon="28.10997">
        <ele>352.6</ele>
      </trkpt>
      <trkpt lat="36.62379" lon="28.11">
        <ele>352.6</ele>
      </trkpt>
      <trkpt lat="36.62391" lon="28.11002">
        <ele>352.4</ele>
      </trkpt>
      <trkpt lat="36.62402" lon="28.11007">
        <ele>351.5</ele>
      </trkpt>
      <trkpt lat="36.62404" lon="28.11008">
        <ele>351.4</ele>
      </trkpt>
      <trkpt lat="36.62414" lon="28.11016">
        <ele>349.9</ele>
      </trkpt>
      <trkpt lat="36.62423" lon="28.11021">
        <ele>349.4</ele>
      </trkpt>
      <trkpt lat="36.62428" lon="28.11022">
        <ele>349.3</ele>
      </trkpt>
      <trkpt lat="36.62434" lon="28.11026">
        <ele>349</ele>
      </trkpt>
      <trkpt lat="36.62443" lon="28.11028">
        <ele>349.2</ele>
      </trkpt>
      <trkpt lat="36.62444" lon="28.11028">
        <ele>349.2</ele>
      </trkpt>
      <trkpt lat="36.62449" lon="28.1103">
        <ele>349.3</ele>
      </trkpt>
      <trkpt lat="36.62452" lon="28.1103">
        <ele>349.5</ele>
      </trkpt>
      <trkpt lat="36.62457" lon="28.11027">
        <ele>350.2</ele>
      </trkpt>
      <trkpt lat="36.62463" lon="28.11025">
        <ele>350.8</ele>
      </trkpt>
      <trkpt lat="36.62466" lon="28.11022">
        <ele>351.3</ele>
      </trkpt>
      <trkpt lat="36.62468" lon="28.11016">
        <ele>351.9</ele>
      </trkpt>
      <trkpt lat="36.62471" lon="28.11015">
        <ele>352.1</ele>
      </trkpt>
      <trkpt lat="36.62479" lon="28.11012">
        <ele>352.7</ele>
      </trkpt>
      <trkpt lat="36.62487" lon="28.11007">
        <ele>353.4</ele>
      </trkpt>
      <trkpt lat="36.6249" lon="28.11004">
        <ele>353.6</ele>
      </trkpt>
      <trkpt lat="36.62492" lon="28.11002">
        <ele>353.8</ele>
      </trkpt>
      <trkpt lat="36.62499" lon="28.10997">
        <ele>354.4</ele>
      </trkpt>
      <trkpt lat="36.62508" lon="28.11004">
        <ele>354.5</ele>
      </trkpt>
      <trkpt lat="36.62508" lon="28.11005">
        <ele>354.5</ele>
      </trkpt>
      <trkpt lat="36.6251" lon="28.11007">
        <ele>354.6</ele>
      </trkpt>
      <trkpt lat="36.62512" lon="28.11007">
        <ele>354.7</ele>
      </trkpt>
      <trkpt lat="36.62517" lon="28.11005">
        <ele>355.2</ele>
      </trkpt>
      <trkpt lat="36.62521" lon="28.11005">
        <ele>355.6</ele>
      </trkpt>
      <trkpt lat="36.62526" lon="28.11005">
        <ele>356</ele>
      </trkpt>
      <trkpt lat="36.62528" lon="28.11004">
        <ele>356.3</ele>
      </trkpt>
      <trkpt lat="36.62529" lon="28.11004">
        <ele>356.4</ele>
      </trkpt>
      <trkpt lat="36.62533" lon="28.11003">
        <ele>356.7</ele>
      </trkpt>
      <trkpt lat="36.62542" lon="28.11">
        <ele>357.5</ele>
      </trkpt>
      <trkpt lat="36.62544" lon="28.11">
        <ele>357.7</ele>
      </trkpt>
      <trkpt lat="36.62551" lon="28.10997">
        <ele>358.5</ele>
      </trkpt>
      <trkpt lat="36.62557" lon="28.1099">
        <ele>359.6</ele>
      </trkpt>
      <trkpt lat="36.62558" lon="28.10989">
        <ele>359.7</ele>
      </trkpt>
      <trkpt lat="36.62559" lon="28.10989">
        <ele>359.8</ele>
      </trkpt>
      <trkpt lat="36.62563" lon="28.10986">
        <ele>360.3</ele>
      </trkpt>
      <trkpt lat="36.62571" lon="28.10982">
        <ele>361.2</ele>
      </trkpt>
      <trkpt lat="36.62582" lon="28.10983">
        <ele>361.9</ele>
      </trkpt>
      <trkpt lat="36.62592" lon="28.10979">
        <ele>361.7</ele>
      </trkpt>
      <trkpt lat="36.62594" lon="28.1098">
        <ele>361.5</ele>
      </trkpt>
      <trkpt lat="36.62593" lon="28.10987">
        <ele>361.2</ele>
      </trkpt>
      <trkpt lat="36.62592" lon="28.10986">
        <ele>361.2</ele>
      </trkpt>
      <trkpt lat="36.62602" lon="28.10992">
        <ele>360.1</ele>
      </trkpt>
      <trkpt lat="36.62604" lon="28.10994">
        <ele>359.8</ele>
      </trkpt>
      <trkpt lat="36.62612" lon="28.10995">
        <ele>359.1</ele>
      </trkpt>
      <trkpt lat="36.62615" lon="28.10993">
        <ele>359</ele>
      </trkpt>
      <trkpt lat="36.62623" lon="28.10993">
        <ele>358.4</ele>
      </trkpt>
      <trkpt lat="36.62632" lon="28.10998">
        <ele>357.1</ele>
      </trkpt>
      <trkpt lat="36.62633" lon="28.10999">
        <ele>356.9</ele>
      </trkpt>
      <trkpt lat="36.62636" lon="28.11004">
        <ele>356.7</ele>
      </trkpt>
      <trkpt lat="36.62643" lon="28.11006">
        <ele>356.2</ele>
      </trkpt>
      <trkpt lat="36.62649" lon="28.11005">
        <ele>355.7</ele>
      </trkpt>
      <trkpt lat="36.62657" lon="28.11004">
        <ele>354.9</ele>
      </trkpt>
      <trkpt lat="36.62662" lon="28.11008">
        <ele>354.7</ele>
      </trkpt>
      <trkpt lat="36.62673" lon="28.11008">
        <ele>353.6</ele>
      </trkpt>
      <trkpt lat="36.62683" lon="28.11012">
        <ele>352.6</ele>
      </trkpt>
      <trkpt lat="36.62694" lon="28.11021">
        <ele>351.4</ele>
      </trkpt>
      <trkpt lat="36.62702" lon="28.11026">
        <ele>350.3</ele>
      </trkpt>
      <trkpt lat="36.62707" lon="28.1103">
        <ele>349.7</ele>
      </trkpt>
      <trkpt lat="36.6271" lon="28.11031">
        <ele>349.3</ele>
      </trkpt>
      <trkpt lat="36.62718" lon="28.1104">
        <ele>347.9</ele>
      </trkpt>
      <trkpt lat="36.62724" lon="28.11042">
        <ele>347</ele>
      </trkpt>
      <trkpt lat="36.62725" lon="28.11042">
        <ele>346.8</ele>
      </trkpt>
      <trkpt lat="36.62726" lon="28.11045">
        <ele>346.5</ele>
      </trkpt>
      <trkpt lat="36.62726" lon="28.11048">
        <ele>346.3</ele>
      </trkpt>
      <trkpt lat="36.62736" lon="28.11049">
        <ele>344.7</ele>
      </trkpt>
      <trkpt lat="36.62745" lon="28.11054">
        <ele>343</ele>
      </trkpt>
      <trkpt lat="36.62756" lon="28.11062">
        <ele>340.1</ele>
      </trkpt>
      <trkpt lat="36.62768" lon="28.11068">
        <ele>336.9</ele>
      </trkpt>
      <trkpt lat="36.62782" lon="28.11075">
        <ele>332.7</ele>
      </trkpt>
      <trkpt lat="36.6279" lon="28.11081">
        <ele>330.2</ele>
      </trkpt>
      <trkpt lat="36.62793" lon="28.11091">
        <ele>329.7</ele>
      </trkpt>
      <trkpt lat="36.62795" lon="28.11096">
        <ele>329.5</ele>
      </trkpt>
      <trkpt lat="36.62805" lon="28.11108">
        <ele>328</ele>
      </trkpt>
      <trkpt lat="36.62818" lon="28.1112">
        <ele>325.9</ele>
      </trkpt>
      <trkpt lat="36.62833" lon="28.11136">
        <ele>323.4</ele>
      </trkpt>
      <trkpt lat="36.62842" lon="28.11141">
        <ele>321.2</ele>
      </trkpt>
      <trkpt lat="36.62852" lon="28.1115">
        <ele>318.9</ele>
      </trkpt>
      <trkpt lat="36.62857" lon="28.11154">
        <ele>317.8</ele>
      </trkpt>
      <trkpt lat="36.62866" lon="28.11166">
        <ele>315.9</ele>
      </trkpt>
      <trkpt lat="36.62876" lon="28.11173">
        <ele>313.5</ele>
      </trkpt>
      <trkpt lat="36.62879" lon="28.11177">
        <ele>313.1</ele>
      </trkpt>
      <trkpt lat="36.62881" lon="28.11177">
        <ele>312.4</ele>
      </trkpt>
      <trkpt lat="36.62887" lon="28.11185">
        <ele>311.5</ele>
      </trkpt>
      <trkpt lat="36.62889" lon="28.11187">
        <ele>311.1</ele>
      </trkpt>
      <trkpt lat="36.62894" lon="28.11196">
        <ele>310.2</ele>
      </trkpt>
      <trkpt lat="36.62903" lon="28.11202">
        <ele>307.4</ele>
      </trkpt>
      <trkpt lat="36.62906" lon="28.11204">
        <ele>306.8</ele>
      </trkpt>
      <trkpt lat="36.62908" lon="28.11209">
        <ele>306.3</ele>
      </trkpt>
      <trkpt lat="36.62912" lon="28.11213">
        <ele>305.3</ele>
      </trkpt>
      <trkpt lat="36.62917" lon="28.11216">
        <ele>303.6</ele>
      </trkpt>
      <trkpt lat="36.62921" lon="28.11222">
        <ele>303.5</ele>
      </trkpt>
      <trkpt lat="36.62924" lon="28.11226">
        <ele>303.4</ele>
      </trkpt>
      <trkpt lat="36.62928" lon="28.11231">
        <ele>303.3</ele>
      </trkpt>
      <trkpt lat="36.62937" lon="28.11237">
        <ele>302.4</ele>
      </trkpt>
      <trkpt lat="36.62943" lon="28.1124">
        <ele>301.9</ele>
      </trkpt>
      <trkpt lat="36.62948" lon="28.11244">
        <ele>301.3</ele>
      </trkpt>
      <trkpt lat="36.62949" lon="28.11245">
        <ele>301.2</ele>
      </trkpt>
      <trkpt lat="36.62958" lon="28.11249">
        <ele>300</ele>
      </trkpt>
      <trkpt lat="36.62974" lon="28.11249">
        <ele>297.7</ele>
      </trkpt>
      <trkpt lat="36.62983" lon="28.11255">
        <ele>296</ele>
      </trkpt>
      <trkpt lat="36.62991" lon="28.1126">
        <ele>294</ele>
      </trkpt>
      <trkpt lat="36.63004" lon="28.11264">
        <ele>291.6</ele>
      </trkpt>
      <trkpt lat="36.63011" lon="28.11265">
        <ele>290.6</ele>
      </trkpt>
      <trkpt lat="36.63023" lon="28.11273">
        <ele>288.1</ele>
      </trkpt>
      <trkpt lat="36.63024" lon="28.11273">
        <ele>287.9</ele>
      </trkpt>
      <trkpt lat="36.63033" lon="28.11281">
        <ele>285.8</ele>
      </trkpt>
      <trkpt lat="36.63041" lon="28.11286">
        <ele>283.9</ele>
      </trkpt>
      <trkpt lat="36.63047" lon="28.11292">
        <ele>282.3</ele>
      </trkpt>
      <trkpt lat="36.63056" lon="28.11297">
        <ele>280.4</ele>
      </trkpt>
      <trkpt lat="36.63066" lon="28.11302">
        <ele>278.4</ele>
      </trkpt>
      <trkpt lat="36.63076" lon="28.11303">
        <ele>277.1</ele>
      </trkpt>
      <trkpt lat="36.63078" lon="28.11301">
        <ele>277.1</ele>
      </trkpt>
      <trkpt lat="36.63086" lon="28.11295">
        <ele>276.9</ele>
      </trkpt>
      <trkpt lat="36.63094" lon="28.11283">
        <ele>276.8</ele>
      </trkpt>
      <trkpt lat="36.63103" lon="28.11274">
        <ele>276.2</ele>
      </trkpt>
      <trkpt lat="36.63108" lon="28.1127">
        <ele>275.7</ele>
      </trkpt>
      <trkpt lat="36.63111" lon="28.11267">
        <ele>275.3</ele>
      </trkpt>
      <trkpt lat="36.63119" lon="28.11259">
        <ele>274.7</ele>
      </trkpt>
      <trkpt lat="36.63127" lon="28.11254">
        <ele>273.4</ele>
      </trkpt>
      <trkpt lat="36.63127" lon="28.11252">
        <ele>273.6</ele>
      </trkpt>
      <trkpt lat="36.63132" lon="28.11243">
        <ele>272.5</ele>
      </trkpt>
      <trkpt lat="36.63141" lon="28.11235">
        <ele>269.8</ele>
      </trkpt>
      <trkpt lat="36.63143" lon="28.11235">
        <ele>269.3</ele>
      </trkpt>
      <trkpt lat="36.63155" lon="28.11234">
        <ele>266.1</ele>
      </trkpt>
      <trkpt lat="36.63171" lon="28.1123">
        <ele>263.2</ele>
      </trkpt>
      <trkpt lat="36.63168" lon="28.11231">
        <ele>263.1</ele>
      </trkpt>
      <trkpt lat="36.63169" lon="28.11213">
        <ele>262.3</ele>
      </trkpt>
      <trkpt lat="36.63167" lon="28.11189">
        <ele>261.1</ele>
      </trkpt>
      <trkpt lat="36.63167" lon="28.11189">
        <ele>261.1</ele>
      </trkpt>
      <trkpt lat="36.63167" lon="28.11171">
        <ele>260.2</ele>
      </trkpt>
      <trkpt lat="36.63167" lon="28.11157">
        <ele>259</ele>
      </trkpt>
      <trkpt lat="36.63171" lon="28.11145">
        <ele>257.6</ele>
      </trkpt>
      <trkpt lat="36.63174" lon="28.11144">
        <ele>257.5</ele>
      </trkpt>
      <trkpt lat="36.6319" lon="28.11143">
        <ele>257.4</ele>
      </trkpt>
      <trkpt lat="36.63199" lon="28.11143">
        <ele>257.3</ele>
      </trkpt>
      <trkpt lat="36.63208" lon="28.11136">
        <ele>256.5</ele>
      </trkpt>
      <trkpt lat="36.63212" lon="28.11123">
        <ele>255</ele>
      </trkpt>
      <trkpt lat="36.63216" lon="28.11102">
        <ele>252.6</ele>
      </trkpt>
      <trkpt lat="36.63222" lon="28.11089">
        <ele>251</ele>
      </trkpt>
      <trkpt lat="36.63222" lon="28.11075">
        <ele>249.9</ele>
      </trkpt>
      <trkpt lat="36.63226" lon="28.11051">
        <ele>248.7</ele>
      </trkpt>
      <trkpt lat="36.63229" lon="28.11029">
        <ele>247.8</ele>
      </trkpt>
      <trkpt lat="36.63227" lon="28.11016">
        <ele>247.1</ele>
      </trkpt>
      <trkpt lat="36.63228" lon="28.10997">
        <ele>246.2</ele>
      </trkpt>
      <trkpt lat="36.63229" lon="28.10983">
        <ele>245.3</ele>
      </trkpt>
      <trkpt lat="36.63241" lon="28.10962">
        <ele>244.7</ele>
      </trkpt>
      <trkpt lat="36.63243" lon="28.10952">
        <ele>244.1</ele>
      </trkpt>
      <trkpt lat="36.63245" lon="28.10925">
        <ele>242.3</ele>
      </trkpt>
      <trkpt lat="36.6326" lon="28.10908">
        <ele>241.5</ele>
      </trkpt>
      <trkpt lat="36.63272" lon="28.10895">
        <ele>240.7</ele>
      </trkpt>
      <trkpt lat="36.63288" lon="28.10884">
        <ele>240</ele>
      </trkpt>
      <trkpt lat="36.6329" lon="28.1088">
        <ele>239.8</ele>
      </trkpt>
      <trkpt lat="36.63294" lon="28.10877">
        <ele>239.6</ele>
      </trkpt>
      <trkpt lat="36.63317" lon="28.10842">
        <ele>237.5</ele>
      </trkpt>
      <trkpt lat="36.63317" lon="28.10842">
        <ele>237.5</ele>
      </trkpt>
      <trkpt lat="36.63317" lon="28.10842">
        <ele>237.5</ele>
      </trkpt>
      <trkpt lat="36.63317" lon="28.10842">
        <ele>237.5</ele>
      </trkpt>
      <trkpt lat="36.63317" lon="28.10842">
        <ele>237.5</ele>
      </trkpt>
      <trkpt lat="36.63317" lon="28.10842">
        <ele>237.5</ele>
      </trkpt>
      <trkpt lat="36.63317" lon="28.10842">
        <ele>237.5</ele>
      </trkpt>
      <trkpt lat="36.63317" lon="28.10842">
        <ele>237.5</ele>
      </trkpt>
      <trkpt lat="36.63317" lon="28.10842">
        <ele>237.5</ele>
      </trkpt>
      <trkpt lat="36.63317" lon="28.10842">
        <ele>237.5</ele>
      </trkpt>
      <trkpt lat="36.63317" lon="28.10842">
        <ele>237.5</ele>
      </trkpt>
      <trkpt lat="36.63317" lon="28.10842">
        <ele>237.5</ele>
      </trkpt>
      <trkpt lat="36.63317" lon="28.10842">
        <ele>237.5</ele>
      </trkpt>
      <trkpt lat="36.63317" lon="28.10842">
        <ele>237.5</ele>
      </trkpt>
      <trkpt lat="36.63317" lon="28.10842">
        <ele>237.5</ele>
      </trkpt>
      <trkpt lat="36.63336" lon="28.1082">
        <ele>236.2</ele>
      </trkpt>
      <trkpt lat="36.63336" lon="28.1082">
        <ele>236.2</ele>
      </trkpt>
      <trkpt lat="36.63336" lon="28.10821">
        <ele>236.3</ele>
      </trkpt>
      <trkpt lat="36.63336" lon="28.10822">
        <ele>236.3</ele>
      </trkpt>
      <trkpt lat="36.63337" lon="28.10824">
        <ele>236.3</ele>
      </trkpt>
      <trkpt lat="36.63338" lon="28.10825">
        <ele>236.2</ele>
      </trkpt>
      <trkpt lat="36.63338" lon="28.10825">
        <ele>236.2</ele>
      </trkpt>
      <trkpt lat="36.63339" lon="28.10826">
        <ele>236.1</ele>
      </trkpt>
      <trkpt lat="36.6334" lon="28.10827">
        <ele>236.1</ele>
      </trkpt>
      <trkpt lat="36.6334" lon="28.10828">
        <ele>236.1</ele>
      </trkpt>
      <trkpt lat="36.63349" lon="28.10838">
        <ele>235.6</ele>
      </trkpt>
      <trkpt lat="36.63363" lon="28.10849">
        <ele>234.9</ele>
      </trkpt>
      <trkpt lat="36.63384" lon="28.10866">
        <ele>234.2</ele>
      </trkpt>
      <trkpt lat="36.63393" lon="28.10879">
        <ele>234.5</ele>
      </trkpt>
      <trkpt lat="36.63407" lon="28.10893">
        <ele>234.4</ele>
      </trkpt>
      <trkpt lat="36.63416" lon="28.10909">
        <ele>235.3</ele>
      </trkpt>
      <trkpt lat="36.63426" lon="28.10927">
        <ele>235.8</ele>
      </trkpt>
      <trkpt lat="36.63439" lon="28.10947">
        <ele>235.6</ele>
      </trkpt>
      <trkpt lat="36.63456" lon="28.10966">
        <ele>234.5</ele>
      </trkpt>
      <trkpt lat="36.63468" lon="28.10985">
        <ele>234.1</ele>
      </trkpt>
      <trkpt lat="36.63475" lon="28.10998">
        <ele>233.8</ele>
      </trkpt>
      <trkpt lat="36.63488" lon="28.1102">
        <ele>233.5</ele>
      </trkpt>
      <trkpt lat="36.63504" lon="28.11041">
        <ele>232.8</ele>
      </trkpt>
      <trkpt lat="36.63521" lon="28.11054">
        <ele>233.4</ele>
      </trkpt>
      <trkpt lat="36.63527" lon="28.1105">
        <ele>233</ele>
      </trkpt>
      <trkpt lat="36.63526" lon="28.11052">
        <ele>233.1</ele>
      </trkpt>
      <trkpt lat="36.63524" lon="28.11037">
        <ele>232.1</ele>
      </trkpt>
      <trkpt lat="36.63528" lon="28.11028">
        <ele>231.3</ele>
      </trkpt>
      <trkpt lat="36.63541" lon="28.11026">
        <ele>230.9</ele>
      </trkpt>
      <trkpt lat="36.63553" lon="28.11027">
        <ele>230.7</ele>
      </trkpt>
      <trkpt lat="36.63574" lon="28.11028">
        <ele>230.2</ele>
      </trkpt>
      <trkpt lat="36.63587" lon="28.11031">
        <ele>230.3</ele>
      </trkpt>
      <trkpt lat="36.6359" lon="28.11031">
        <ele>230.6</ele>
      </trkpt>
      <trkpt lat="36.63597" lon="28.11032">
        <ele>230.9</ele>
      </trkpt>
      <trkpt lat="36.63599" lon="28.11032">
        <ele>231</ele>
      </trkpt>
      <trkpt lat="36.63603" lon="28.11033">
        <ele>231.3</ele>
      </trkpt>
      <trkpt lat="36.6361" lon="28.11033">
        <ele>231.6</ele>
      </trkpt>
      <trkpt lat="36.63621" lon="28.11029">
        <ele>231.8</ele>
      </trkpt>
      <trkpt lat="36.63631" lon="28.1103">
        <ele>232.4</ele>
      </trkpt>
      <trkpt lat="36.63644" lon="28.11034">
        <ele>233.4</ele>
      </trkpt>
      <trkpt lat="36.63653" lon="28.11035">
        <ele>233.9</ele>
      </trkpt>
      <trkpt lat="36.63655" lon="28.11037">
        <ele>234.3</ele>
      </trkpt>
      <trkpt lat="36.63667" lon="28.11044">
        <ele>235.8</ele>
      </trkpt>
      <trkpt lat="36.63682" lon="28.11047">
        <ele>237.7</ele>
      </trkpt>
      <trkpt lat="36.63699" lon="28.11047">
        <ele>239.3</ele>
      </trkpt>
      <trkpt lat="36.63705" lon="28.11044">
        <ele>239.4</ele>
      </trkpt>
      <trkpt lat="36.63706" lon="28.11041">
        <ele>239.2</ele>
      </trkpt>
      <trkpt lat="36.6371" lon="28.1104">
        <ele>239.4</ele>
      </trkpt>
      <trkpt lat="36.63724" lon="28.11045">
        <ele>241.4</ele>
      </trkpt>
      <trkpt lat="36.63731" lon="28.11043">
        <ele>241.8</ele>
      </trkpt>
      <trkpt lat="36.63731" lon="28.11043">
        <ele>241.8</ele>
      </trkpt>
      <trkpt lat="36.63737" lon="28.11044">
        <ele>242.5</ele>
      </trkpt>
      <trkpt lat="36.63738" lon="28.11043">
        <ele>242.4</ele>
      </trkpt>
      <trkpt lat="36.63747" lon="28.11032">
        <ele>242.2</ele>
      </trkpt>
      <trkpt lat="36.6376" lon="28.11021">
        <ele>242.3</ele>
      </trkpt>
      <trkpt lat="36.63767" lon="28.11017">
        <ele>242.6</ele>
      </trkpt>
      <trkpt lat="36.63776" lon="28.11027">
        <ele>244.3</ele>
      </trkpt>
      <trkpt lat="36.63784" lon="28.11039">
        <ele>246</ele>
      </trkpt>
      <trkpt lat="36.63793" lon="28.11052">
        <ele>247.5</ele>
      </trkpt>
      <trkpt lat="36.63803" lon="28.11063">
        <ele>248.8</ele>
      </trkpt>
      <trkpt lat="36.63815" lon="28.11077">
        <ele>250.1</ele>
      </trkpt>
      <trkpt lat="36.63825" lon="28.11078">
        <ele>250.5</ele>
      </trkpt>
      <trkpt lat="36.63838" lon="28.11071">
        <ele>251.1</ele>
      </trkpt>
      <trkpt lat="36.6384" lon="28.1107">
        <ele>251.3</ele>
      </trkpt>
      <trkpt lat="36.63841" lon="28.11065">
        <ele>251.3</ele>
      </trkpt>
      <trkpt lat="36.63842" lon="28.11059">
        <ele>251.3</ele>
      </trkpt>
      <trkpt lat="36.63849" lon="28.11059">
        <ele>252</ele>
      </trkpt>
      <trkpt lat="36.63849" lon="28.1106">
        <ele>252.1</ele>
      </trkpt>
      <trkpt lat="36.63854" lon="28.11062">
        <ele>252.6</ele>
      </trkpt>
      <trkpt lat="36.63868" lon="28.11071">
        <ele>254</ele>
      </trkpt>
      <trkpt lat="36.63881" lon="28.11075">
        <ele>255.2</ele>
      </trkpt>
      <trkpt lat="36.63891" lon="28.1108">
        <ele>255.9</ele>
      </trkpt>
      <trkpt lat="36.63904" lon="28.11086">
        <ele>257.1</ele>
      </trkpt>
      <trkpt lat="36.63911" lon="28.11094">
        <ele>258</ele>
      </trkpt>
      <trkpt lat="36.63913" lon="28.111">
        <ele>258.5</ele>
      </trkpt>
      <trkpt lat="36.63916" lon="28.11101">
        <ele>258.8</ele>
      </trkpt>
      <trkpt lat="36.63919" lon="28.11099">
        <ele>259.3</ele>
      </trkpt>
      <trkpt lat="36.63927" lon="28.11102">
        <ele>261.2</ele>
      </trkpt>
      <trkpt lat="36.63933" lon="28.11104">
        <ele>262.5</ele>
      </trkpt>
      <trkpt lat="36.6394" lon="28.11104">
        <ele>263.9</ele>
      </trkpt>
      <trkpt lat="36.63949" lon="28.11111">
        <ele>266</ele>
      </trkpt>
      <trkpt lat="36.63955" lon="28.11118">
        <ele>267.5</ele>
      </trkpt>
      <trkpt lat="36.63957" lon="28.11119">
        <ele>267.8</ele>
      </trkpt>
      <trkpt lat="36.63962" lon="28.11122">
        <ele>269</ele>
      </trkpt>
      <trkpt lat="36.63962" lon="28.11123">
        <ele>269</ele>
      </trkpt>
      <trkpt lat="36.63968" lon="28.11128">
        <ele>270.2</ele>
      </trkpt>
      <trkpt lat="36.63971" lon="28.11137">
        <ele>270.9</ele>
      </trkpt>
      <trkpt lat="36.63977" lon="28.11142">
        <ele>272</ele>
      </trkpt>
      <trkpt lat="36.63979" lon="28.11149">
        <ele>272.5</ele>
      </trkpt>
      <trkpt lat="36.63984" lon="28.11152">
        <ele>273.4</ele>
      </trkpt>
      <trkpt lat="36.63988" lon="28.11158">
        <ele>274</ele>
      </trkpt>
      <trkpt lat="36.63992" lon="28.11157">
        <ele>274.7</ele>
      </trkpt>
      <trkpt lat="36.63998" lon="28.11162">
        <ele>275.6</ele>
      </trkpt>
      <trkpt lat="36.63997" lon="28.11172">
        <ele>276.1</ele>
      </trkpt>
      <trkpt lat="36.63996" lon="28.11177">
        <ele>276.8</ele>
      </trkpt>
      <trkpt lat="36.63999" lon="28.11188">
        <ele>279</ele>
      </trkpt>
      <trkpt lat="36.64003" lon="28.112">
        <ele>281.4</ele>
      </trkpt>
      <trkpt lat="36.6401" lon="28.11205">
        <ele>283.6</ele>
      </trkpt>
      <trkpt lat="36.64012" lon="28.11208">
        <ele>284.4</ele>
      </trkpt>
      <trkpt lat="36.64013" lon="28.11213">
        <ele>285.3</ele>
      </trkpt>
      <trkpt lat="36.64021" lon="28.11223">
        <ele>287.8</ele>
      </trkpt>
      <trkpt lat="36.64024" lon="28.11227">
        <ele>288.9</ele>
      </trkpt>
      <trkpt lat="36.64033" lon="28.11236">
        <ele>291.3</ele>
      </trkpt>
      <trkpt lat="36.64034" lon="28.1124">
        <ele>292</ele>
      </trkpt>
      <trkpt lat="36.64044" lon="28.11248">
        <ele>294.2</ele>
      </trkpt>
      <trkpt lat="36.64049" lon="28.11254">
        <ele>295.8</ele>
      </trkpt>
      <trkpt lat="36.64056" lon="28.11257">
        <ele>297.3</ele>
      </trkpt>
      <trkpt lat="36.64061" lon="28.1126">
        <ele>298.5</ele>
      </trkpt>
      <trkpt lat="36.64069" lon="28.11262">
        <ele>300</ele>
      </trkpt>
      <trkpt lat="36.6407" lon="28.11263">
        <ele>300.2</ele>
      </trkpt>
      <trkpt lat="36.64071" lon="28.11265">
        <ele>300.8</ele>
      </trkpt>
      <trkpt lat="36.64077" lon="28.11273">
        <ele>302.8</ele>
      </trkpt>
      <trkpt lat="36.64083" lon="28.1128">
        <ele>304.9</ele>
      </trkpt>
      <trkpt lat="36.64091" lon="28.11283">
        <ele>307</ele>
      </trkpt>
      <trkpt lat="36.64091" lon="28.11285">
        <ele>307.4</ele>
      </trkpt>
      <trkpt lat="36.64097" lon="28.11291">
        <ele>309.4</ele>
      </trkpt>
      <trkpt lat="36.64106" lon="28.11301">
        <ele>312</ele>
      </trkpt>
      <trkpt lat="36.64115" lon="28.11308">
        <ele>314.2</ele>
      </trkpt>
      <trkpt lat="36.6412" lon="28.11316">
        <ele>315.4</ele>
      </trkpt>
      <trkpt lat="36.64129" lon="28.1133">
        <ele>317.1</ele>
      </trkpt>
      <trkpt lat="36.6413" lon="28.11331">
        <ele>317.2</ele>
      </trkpt>
      <trkpt lat="36.64141" lon="28.11341">
        <ele>319.2</ele>
      </trkpt>
      <trkpt lat="36.64149" lon="28.11351">
        <ele>321.1</ele>
      </trkpt>
      <trkpt lat="36.6416" lon="28.11353">
        <ele>321.9</ele>
      </trkpt>
      <trkpt lat="36.64169" lon="28.11361">
        <ele>323.4</ele>
      </trkpt>
      <trkpt lat="36.6417" lon="28.11357">
        <ele>323.3</ele>
      </trkpt>
      <trkpt lat="36.64174" lon="28.1136">
        <ele>324.4</ele>
      </trkpt>
      <trkpt lat="36.64181" lon="28.1137">
        <ele>326.9</ele>
      </trkpt>
      <trkpt lat="36.64186" lon="28.11375">
        <ele>328</ele>
      </trkpt>
      <trkpt lat="36.64189" lon="28.11378">
        <ele>328.7</ele>
      </trkpt>
      <trkpt lat="36.64193" lon="28.11379">
        <ele>329.6</ele>
      </trkpt>
      <trkpt lat="36.64199" lon="28.11371">
        <ele>330.3</ele>
      </trkpt>
      <trkpt lat="36.64203" lon="28.11363">
        <ele>331</ele>
      </trkpt>
      <trkpt lat="36.64211" lon="28.11357">
        <ele>332.5</ele>
      </trkpt>
      <trkpt lat="36.64219" lon="28.11354">
        <ele>334.3</ele>
      </trkpt>
      <trkpt lat="36.64222" lon="28.11349">
        <ele>335.1</ele>
      </trkpt>
      <trkpt lat="36.64232" lon="28.11352">
        <ele>337.5</ele>
      </trkpt>
      <trkpt lat="36.64234" lon="28.11355">
        <ele>337.8</ele>
      </trkpt>
      <trkpt lat="36.64234" lon="28.11354">
        <ele>337.7</ele>
      </trkpt>
      <trkpt lat="36.64244" lon="28.11373">
        <ele>339.1</ele>
      </trkpt>
      <trkpt lat="36.64251" lon="28.11385">
        <ele>339.5</ele>
      </trkpt>
      <trkpt lat="36.64256" lon="28.11396">
        <ele>341</ele>
      </trkpt>
      <trkpt lat="36.64262" lon="28.11407">
        <ele>342.6</ele>
      </trkpt>
      <trkpt lat="36.64265" lon="28.11415">
        <ele>343.1</ele>
      </trkpt>
      <trkpt lat="36.64273" lon="28.11427">
        <ele>346.5</ele>
      </trkpt>
      <trkpt lat="36.64276" lon="28.11434">
        <ele>347.5</ele>
      </trkpt>
      <trkpt lat="36.6428" lon="28.11443">
        <ele>349.3</ele>
      </trkpt>
      <trkpt lat="36.64283" lon="28.11455">
        <ele>350.7</ele>
      </trkpt>
      <trkpt lat="36.64286" lon="28.11466">
        <ele>352.1</ele>
      </trkpt>
      <trkpt lat="36.64287" lon="28.1147">
        <ele>352.6</ele>
      </trkpt>
      <trkpt lat="36.64289" lon="28.11482">
        <ele>353.6</ele>
      </trkpt>
      <trkpt lat="36.6429" lon="28.11497">
        <ele>354.1</ele>
      </trkpt>
      <trkpt lat="36.64293" lon="28.11509">
        <ele>355.9</ele>
      </trkpt>
      <trkpt lat="36.64296" lon="28.11517">
        <ele>357.6</ele>
      </trkpt>
      <trkpt lat="36.64299" lon="28.11529">
        <ele>359</ele>
      </trkpt>
      <trkpt lat="36.64304" lon="28.11541">
        <ele>361.4</ele>
      </trkpt>
      <trkpt lat="36.64311" lon="28.1155">
        <ele>364.8</ele>
      </trkpt>
      <trkpt lat="36.64311" lon="28.11549">
        <ele>364.6</ele>
      </trkpt>
      <trkpt lat="36.64311" lon="28.1155">
        <ele>364.7</ele>
      </trkpt>
      <trkpt lat="36.64314" lon="28.11561">
        <ele>366.1</ele>
      </trkpt>
      <trkpt lat="36.64314" lon="28.11562">
        <ele>366.1</ele>
      </trkpt>
      <trkpt lat="36.64316" lon="28.11567">
        <ele>367</ele>
      </trkpt>
      <trkpt lat="36.64316" lon="28.11567">
        <ele>366.9</ele>
      </trkpt>
      <trkpt lat="36.64319" lon="28.11578">
        <ele>368.4</ele>
      </trkpt>
      <trkpt lat="36.6432" lon="28.11584">
        <ele>369</ele>
      </trkpt>
      <trkpt lat="36.64321" lon="28.11591">
        <ele>368.8</ele>
      </trkpt>
      <trkpt lat="36.64321" lon="28.11594">
        <ele>368.7</ele>
      </trkpt>
      <trkpt lat="36.64321" lon="28.11607">
        <ele>368.1</ele>
      </trkpt>
      <trkpt lat="36.64326" lon="28.11615">
        <ele>369.6</ele>
      </trkpt>
      <trkpt lat="36.64327" lon="28.11617">
        <ele>369.8</ele>
      </trkpt>
      <trkpt lat="36.64333" lon="28.11627">
        <ele>371.2</ele>
      </trkpt>
      <trkpt lat="36.64334" lon="28.11628">
        <ele>371.4</ele>
      </trkpt>
      <trkpt lat="36.64341" lon="28.11636">
        <ele>373.4</ele>
      </trkpt>
      <trkpt lat="36.64343" lon="28.11638">
        <ele>374</ele>
      </trkpt>
      <trkpt lat="36.64351" lon="28.11645">
        <ele>376.1</ele>
      </trkpt>
      <trkpt lat="36.64358" lon="28.11653">
        <ele>377.9</ele>
      </trkpt>
      <trkpt lat="36.64367" lon="28.11658">
        <ele>380.4</ele>
      </trkpt>
      <trkpt lat="36.64368" lon="28.11659">
        <ele>380.7</ele>
      </trkpt>
      <trkpt lat="36.64377" lon="28.1166">
        <ele>383.7</ele>
      </trkpt>
      <trkpt lat="36.64379" lon="28.11661">
        <ele>384.3</ele>
      </trkpt>
      <trkpt lat="36.64387" lon="28.11666">
        <ele>386.5</ele>
      </trkpt>
      <trkpt lat="36.6439" lon="28.11667">
        <ele>387.3</ele>
      </trkpt>
      <trkpt lat="36.64397" lon="28.11676">
        <ele>388.6</ele>
      </trkpt>
      <trkpt lat="36.64403" lon="28.11685">
        <ele>389.7</ele>
      </trkpt>
      <trkpt lat="36.64408" lon="28.1169">
        <ele>390.6</ele>
      </trkpt>
      <trkpt lat="36.64409" lon="28.11695">
        <ele>390.5</ele>
      </trkpt>
      <trkpt lat="36.64418" lon="28.11698">
        <ele>393</ele>
      </trkpt>
      <trkpt lat="36.64419" lon="28.11698">
        <ele>393.2</ele>
      </trkpt>
      <trkpt lat="36.64421" lon="28.11703">
        <ele>393.6</ele>
      </trkpt>
      <trkpt lat="36.64432" lon="28.11708">
        <ele>396.4</ele>
      </trkpt>
      <trkpt lat="36.64438" lon="28.11716">
        <ele>397.3</ele>
      </trkpt>
      <trkpt lat="36.64446" lon="28.11722">
        <ele>399.3</ele>
      </trkpt>
      <trkpt lat="36.64452" lon="28.11722">
        <ele>401.1</ele>
      </trkpt>
      <trkpt lat="36.64458" lon="28.11725">
        <ele>402.8</ele>
      </trkpt>
      <trkpt lat="36.64464" lon="28.11723">
        <ele>405</ele>
      </trkpt>
      <trkpt lat="36.64469" lon="28.11724">
        <ele>406.5</ele>
      </trkpt>
      <trkpt lat="36.64476" lon="28.11731">
        <ele>407.8</ele>
      </trkpt>
      <trkpt lat="36.64479" lon="28.11735">
        <ele>408.1</ele>
      </trkpt>
      <trkpt lat="36.64481" lon="28.11738">
        <ele>408.5</ele>
      </trkpt>
      <trkpt lat="36.64481" lon="28.1175">
        <ele>407.1</ele>
      </trkpt>
      <trkpt lat="36.64488" lon="28.11749">
        <ele>409.4</ele>
      </trkpt>
      <trkpt lat="36.64491" lon="28.11753">
        <ele>409.9</ele>
      </trkpt>
      <trkpt lat="36.64491" lon="28.11761">
        <ele>408.8</ele>
      </trkpt>
      <trkpt lat="36.64497" lon="28.11775">
        <ele>409.1</ele>
      </trkpt>
      <trkpt lat="36.64503" lon="28.11782">
        <ele>409.9</ele>
      </trkpt>
      <trkpt lat="36.64512" lon="28.11786">
        <ele>411.6</ele>
      </trkpt>
      <trkpt lat="36.64511" lon="28.11788">
        <ele>411.2</ele>
      </trkpt>
      <trkpt lat="36.64511" lon="28.11788">
        <ele>411.2</ele>
      </trkpt>
      <trkpt lat="36.64509" lon="28.11785">
        <ele>411</ele>
      </trkpt>
      <trkpt lat="36.64509" lon="28.11786">
        <ele>411</ele>
      </trkpt>
      <trkpt lat="36.64509" lon="28.11786">
        <ele>411</ele>
      </trkpt>
      <trkpt lat="36.64513" lon="28.11797">
        <ele>410.5</ele>
      </trkpt>
      <trkpt lat="36.64512" lon="28.118">
        <ele>409.9</ele>
      </trkpt>
      <trkpt lat="36.64516" lon="28.11807">
        <ele>409.9</ele>
      </trkpt>
      <trkpt lat="36.64526" lon="28.11826">
        <ele>409.6</ele>
      </trkpt>
      <trkpt lat="36.64532" lon="28.11838">
        <ele>409.3</ele>
      </trkpt>
      <trkpt lat="36.64535" lon="28.11852">
        <ele>408.3</ele>
      </trkpt>
      <trkpt lat="36.64541" lon="28.11865">
        <ele>407.9</ele>
      </trkpt>
      <trkpt lat="36.64547" lon="28.11875">
        <ele>407.8</ele>
      </trkpt>
      <trkpt lat="36.64551" lon="28.11884">
        <ele>407.6</ele>
      </trkpt>
      <trkpt lat="36.64554" lon="28.11887">
        <ele>407.6</ele>
      </trkpt>
      <trkpt lat="36.64557" lon="28.11894">
        <ele>407.3</ele>
      </trkpt>
      <trkpt lat="36.64559" lon="28.11896">
        <ele>407.3</ele>
      </trkpt>
      <trkpt lat="36.64562" lon="28.11897">
        <ele>407.7</ele>
      </trkpt>
      <trkpt lat="36.64567" lon="28.11904">
        <ele>407.7</ele>
      </trkpt>
      <trkpt lat="36.64574" lon="28.11912">
        <ele>407.9</ele>
      </trkpt>
      <trkpt lat="36.64585" lon="28.11929">
        <ele>408.2</ele>
      </trkpt>
      <trkpt lat="36.64592" lon="28.11941">
        <ele>409</ele>
      </trkpt>
      <trkpt lat="36.64594" lon="28.11945">
        <ele>408.9</ele>
      </trkpt>
      <trkpt lat="36.64594" lon="28.11949">
        <ele>408.6</ele>
      </trkpt>
      <trkpt lat="36.646" lon="28.1196">
        <ele>409.2</ele>
      </trkpt>
      <trkpt lat="36.64602" lon="28.11964">
        <ele>409.1</ele>
      </trkpt>
      <trkpt lat="36.64602" lon="28.11981">
        <ele>407.3</ele>
      </trkpt>
      <trkpt lat="36.64603" lon="28.11984">
        <ele>407.1</ele>
      </trkpt>
      <trkpt lat="36.64604" lon="28.12005">
        <ele>405.5</ele>
      </trkpt>
      <trkpt lat="36.64605" lon="28.12026">
        <ele>405.4</ele>
      </trkpt>
      <trkpt lat="36.64606" lon="28.12048">
        <ele>405.2</ele>
      </trkpt>
      <trkpt lat="36.64602" lon="28.12059">
        <ele>404.3</ele>
      </trkpt>
      <trkpt lat="36.64595" lon="28.12068">
        <ele>403</ele>
      </trkpt>
      <trkpt lat="36.64595" lon="28.1207">
        <ele>402.9</ele>
      </trkpt>
      <trkpt lat="36.64596" lon="28.1207">
        <ele>403.1</ele>
      </trkpt>
      <trkpt lat="36.64596" lon="28.12072">
        <ele>403.1</ele>
      </trkpt>
      <trkpt lat="36.64596" lon="28.12072">
        <ele>403.1</ele>
      </trkpt>
      <trkpt lat="36.64598" lon="28.12082">
        <ele>403.3</ele>
      </trkpt>
      <trkpt lat="36.64602" lon="28.1209">
        <ele>404.6</ele>
      </trkpt>
      <trkpt lat="36.64603" lon="28.12095">
        <ele>405.2</ele>
      </trkpt>
      <trkpt lat="36.64606" lon="28.121">
        <ele>406.1</ele>
      </trkpt>
      <trkpt lat="36.64608" lon="28.12105">
        <ele>406.9</ele>
      </trkpt>
      <trkpt lat="36.64611" lon="28.12114">
        <ele>408.1</ele>
      </trkpt>
      <trkpt lat="36.64622" lon="28.12117">
        <ele>409.6</ele>
      </trkpt>
      <trkpt lat="36.64624" lon="28.12119">
        <ele>409.9</ele>
      </trkpt>
      <trkpt lat="36.64629" lon="28.12137">
        <ele>411.7</ele>
      </trkpt>
      <trkpt lat="36.64638" lon="28.12144">
        <ele>413</ele>
      </trkpt>
      <trkpt lat="36.6464" lon="28.12146">
        <ele>413.3</ele>
      </trkpt>
      <trkpt lat="36.64649" lon="28.12153">
        <ele>414.4</ele>
      </trkpt>
      <trkpt lat="36.64657" lon="28.12158">
        <ele>415.2</ele>
      </trkpt>
      <trkpt lat="36.6466" lon="28.12164">
        <ele>415.5</ele>
      </trkpt>
      <trkpt lat="36.6466" lon="28.12166">
        <ele>415.6</ele>
      </trkpt>
      <trkpt lat="36.64659" lon="28.12177">
        <ele>416.6</ele>
      </trkpt>
      <trkpt lat="36.6466" lon="28.1218">
        <ele>416.9</ele>
      </trkpt>
      <trkpt lat="36.64664" lon="28.12182">
        <ele>417.3</ele>
      </trkpt>
      <trkpt lat="36.64665" lon="28.12182">
        <ele>417.4</ele>
      </trkpt>
      <trkpt lat="36.64665" lon="28.12181">
        <ele>417.3</ele>
      </trkpt>
      <trkpt lat="36.64672" lon="28.12192">
        <ele>419.2</ele>
      </trkpt>
      <trkpt lat="36.6468" lon="28.122">
        <ele>421.3</ele>
      </trkpt>
      <trkpt lat="36.64681" lon="28.12202">
        <ele>421.5</ele>
      </trkpt>
      <trkpt lat="36.64683" lon="28.1221">
        <ele>422.7</ele>
      </trkpt>
      <trkpt lat="36.64681" lon="28.12227">
        <ele>424</ele>
      </trkpt>
      <trkpt lat="36.6468" lon="28.12244">
        <ele>425.6</ele>
      </trkpt>
      <trkpt lat="36.64679" lon="28.12255">
        <ele>426.2</ele>
      </trkpt>
      <trkpt lat="36.64679" lon="28.1226">
        <ele>426.6</ele>
      </trkpt>
      <trkpt lat="36.64679" lon="28.12267">
        <ele>426.9</ele>
      </trkpt>
      <trkpt lat="36.64679" lon="28.1228">
        <ele>427.6</ele>
      </trkpt>
      <trkpt lat="36.6468" lon="28.12293">
        <ele>428.5</ele>
      </trkpt>
      <trkpt lat="36.64677" lon="28.12296">
        <ele>428.1</ele>
      </trkpt>
      <trkpt lat="36.64676" lon="28.12302">
        <ele>428.4</ele>
      </trkpt>
      <trkpt lat="36.64674" lon="28.12316">
        <ele>428.6</ele>
      </trkpt>
      <trkpt lat="36.64672" lon="28.12328">
        <ele>428.8</ele>
      </trkpt>
      <trkpt lat="36.64671" lon="28.1234">
        <ele>429.2</ele>
      </trkpt>
      <trkpt lat="36.64668" lon="28.1235">
        <ele>429</ele>
      </trkpt>
      <trkpt lat="36.64666" lon="28.12369">
        <ele>429.3</ele>
      </trkpt>
      <trkpt lat="36.64665" lon="28.1237">
        <ele>429.3</ele>
      </trkpt>
      <trkpt lat="36.64664" lon="28.12376">
        <ele>429.5</ele>
      </trkpt>
      <trkpt lat="36.64663" lon="28.12381">
        <ele>429.7</ele>
      </trkpt>
      <trkpt lat="36.64665" lon="28.12395">
        <ele>430.2</ele>
      </trkpt>
      <trkpt lat="36.64664" lon="28.12398">
        <ele>430.3</ele>
      </trkpt>
      <trkpt lat="36.64663" lon="28.12407">
        <ele>430.6</ele>
      </trkpt>
      <trkpt lat="36.64661" lon="28.12422">
        <ele>430.7</ele>
      </trkpt>
      <trkpt lat="36.64665" lon="28.12436">
        <ele>430.5</ele>
      </trkpt>
      <trkpt lat="36.64674" lon="28.12458">
        <ele>431.8</ele>
      </trkpt>
      <trkpt lat="36.64676" lon="28.12462">
        <ele>432.1</ele>
      </trkpt>
      <trkpt lat="36.64682" lon="28.12475">
        <ele>433.5</ele>
      </trkpt>
      <trkpt lat="36.64684" lon="28.12482">
        <ele>433.9</ele>
      </trkpt>
      <trkpt lat="36.64687" lon="28.12488">
        <ele>434.4</ele>
      </trkpt>
      <trkpt lat="36.64688" lon="28.12496">
        <ele>434.6</ele>
      </trkpt>
      <trkpt lat="36.64688" lon="28.12501">
        <ele>434.6</ele>
      </trkpt>
      <trkpt lat="36.64691" lon="28.12509">
        <ele>435.4</ele>
      </trkpt>
      <trkpt lat="36.64689" lon="28.12522">
        <ele>434.7</ele>
      </trkpt>
      <trkpt lat="36.64694" lon="28.12534">
        <ele>435.9</ele>
      </trkpt>
      <trkpt lat="36.64694" lon="28.12536">
        <ele>436</ele>
      </trkpt>
      <trkpt lat="36.64691" lon="28.12552">
        <ele>435.1</ele>
      </trkpt>
      <trkpt lat="36.6469" lon="28.12568">
        <ele>434.9</ele>
      </trkpt>
      <trkpt lat="36.64688" lon="28.12576">
        <ele>434.2</ele>
      </trkpt>
      <trkpt lat="36.64687" lon="28.12578">
        <ele>433.8</ele>
      </trkpt>
      <trkpt lat="36.64685" lon="28.12583">
        <ele>433.1</ele>
      </trkpt>
      <trkpt lat="36.64683" lon="28.12602">
        <ele>431.8</ele>
      </trkpt>
      <trkpt lat="36.64682" lon="28.1261">
        <ele>431</ele>
      </trkpt>
      <trkpt lat="36.64683" lon="28.1261">
        <ele>431.2</ele>
      </trkpt>
      <trkpt lat="36.64685" lon="28.12615">
        <ele>431.5</ele>
      </trkpt>
      <trkpt lat="36.64686" lon="28.12634">
        <ele>430.6</ele>
      </trkpt>
      <trkpt lat="36.64686" lon="28.12642">
        <ele>430.4</ele>
      </trkpt>
      <trkpt lat="36.64688" lon="28.12647">
        <ele>430.6</ele>
      </trkpt>
      <trkpt lat="36.64688" lon="28.12647">
        <ele>430.6</ele>
      </trkpt>
      <trkpt lat="36.64693" lon="28.12658">
        <ele>431.2</ele>
      </trkpt>
      <trkpt lat="36.64694" lon="28.12656">
        <ele>431.4</ele>
      </trkpt>
      <trkpt lat="36.64691" lon="28.12662">
        <ele>430.4</ele>
      </trkpt>
      <trkpt lat="36.64688" lon="28.12666">
        <ele>429.5</ele>
      </trkpt>
      <trkpt lat="36.64688" lon="28.12666">
        <ele>429.5</ele>
      </trkpt>
      <trkpt lat="36.64688" lon="28.12668">
        <ele>429.3</ele>
      </trkpt>
      <trkpt lat="36.64695" lon="28.12679">
        <ele>429.2</ele>
      </trkpt>
      <trkpt lat="36.64697" lon="28.12682">
        <ele>429.5</ele>
      </trkpt>
      <trkpt lat="36.64702" lon="28.12685">
        <ele>430</ele>
      </trkpt>
      <trkpt lat="36.6471" lon="28.12692">
        <ele>431.1</ele>
      </trkpt>
      <trkpt lat="36.6471" lon="28.12693">
        <ele>431.1</ele>
      </trkpt>
      <trkpt lat="36.64712" lon="28.12697">
        <ele>430.8</ele>
      </trkpt>
      <trkpt lat="36.64712" lon="28.12699">
        <ele>430.5</ele>
      </trkpt>
      <trkpt lat="36.64712" lon="28.12708">
        <ele>429.2</ele>
      </trkpt>
      <trkpt lat="36.64714" lon="28.1271">
        <ele>429.5</ele>
      </trkpt>
      <trkpt lat="36.64722" lon="28.12718">
        <ele>430.5</ele>
      </trkpt>
      <trkpt lat="36.64727" lon="28.12723">
        <ele>430.9</ele>
      </trkpt>
      <trkpt lat="36.64732" lon="28.12738">
        <ele>430.1</ele>
      </trkpt>
      <trkpt lat="36.64738" lon="28.1275">
        <ele>429.7</ele>
      </trkpt>
      <trkpt lat="36.64747" lon="28.12759">
        <ele>431.5</ele>
      </trkpt>
      <trkpt lat="36.64751" lon="28.12764">
        <ele>432.3</ele>
      </trkpt>
      <trkpt lat="36.64759" lon="28.1277">
        <ele>434.2</ele>
      </trkpt>
      <trkpt lat="36.64761" lon="28.12776">
        <ele>434.6</ele>
      </trkpt>
      <trkpt lat="36.64761" lon="28.12776">
        <ele>434.5</ele>
      </trkpt>
      <trkpt lat="36.64763" lon="28.12784">
        <ele>434.5</ele>
      </trkpt>
      <trkpt lat="36.64767" lon="28.12795">
        <ele>434.8</ele>
      </trkpt>
      <trkpt lat="36.64768" lon="28.12804">
        <ele>434.5</ele>
      </trkpt>
      <trkpt lat="36.64774" lon="28.12817">
        <ele>435.1</ele>
      </trkpt>
      <trkpt lat="36.64777" lon="28.12822">
        <ele>435.5</ele>
      </trkpt>
      <trkpt lat="36.64782" lon="28.12827">
        <ele>436.4</ele>
      </trkpt>
      <trkpt lat="36.64787" lon="28.12838">
        <ele>436.7</ele>
      </trkpt>
      <trkpt lat="36.64791" lon="28.12841">
        <ele>437.6</ele>
      </trkpt>
      <trkpt lat="36.64791" lon="28.12842">
        <ele>437.4</ele>
      </trkpt>
      <trkpt lat="36.64793" lon="28.12847">
        <ele>437.3</ele>
      </trkpt>
      <trkpt lat="36.648" lon="28.12859">
        <ele>438.1</ele>
      </trkpt>
      <trkpt lat="36.64808" lon="28.12868">
        <ele>439.1</ele>
      </trkpt>
      <trkpt lat="36.64816" lon="28.12876">
        <ele>440.6</ele>
      </trkpt>
      <trkpt lat="36.6482" lon="28.12884">
        <ele>440.8</ele>
      </trkpt>
      <trkpt lat="36.64829" lon="28.1288">
        <ele>443.7</ele>
      </trkpt>
      <trkpt lat="36.64834" lon="28.12881">
        <ele>444.9</ele>
      </trkpt>
      <trkpt lat="36.64845" lon="28.1289">
        <ele>445.5</ele>
      </trkpt>
      <trkpt lat="36.64856" lon="28.12898">
        <ele>445.9</ele>
      </trkpt>
      <trkpt lat="36.64863" lon="28.12907">
        <ele>445.8</ele>
      </trkpt>
      <trkpt lat="36.64872" lon="28.12914">
        <ele>446</ele>
      </trkpt>
      <trkpt lat="36.64882" lon="28.1292">
        <ele>446.3</ele>
      </trkpt>
      <trkpt lat="36.64888" lon="28.12927">
        <ele>446</ele>
      </trkpt>
      <trkpt lat="36.649" lon="28.12931">
        <ele>446.7</ele>
      </trkpt>
      <trkpt lat="36.64902" lon="28.12933">
        <ele>446.6</ele>
      </trkpt>
      <trkpt lat="36.64905" lon="28.12935">
        <ele>446.8</ele>
      </trkpt>
      <trkpt lat="36.6491" lon="28.12939">
        <ele>446.7</ele>
      </trkpt>
      <trkpt lat="36.64915" lon="28.12944">
        <ele>446.6</ele>
      </trkpt>
      <trkpt lat="36.64924" lon="28.12949">
        <ele>446.9</ele>
      </trkpt>
      <trkpt lat="36.64927" lon="28.12951">
        <ele>447.1</ele>
      </trkpt>
      <trkpt lat="36.64929" lon="28.12952">
        <ele>447.2</ele>
      </trkpt>
      <trkpt lat="36.64929" lon="28.12952">
        <ele>447.2</ele>
      </trkpt>
      <trkpt lat="36.64931" lon="28.12953">
        <ele>447.4</ele>
      </trkpt>
      <trkpt lat="36.64934" lon="28.12954">
        <ele>447.6</ele>
      </trkpt>
      <trkpt lat="36.64942" lon="28.12957">
        <ele>448</ele>
      </trkpt>
      <trkpt lat="36.64944" lon="28.12955">
        <ele>448.5</ele>
      </trkpt>
      <trkpt lat="36.64946" lon="28.12953">
        <ele>449.2</ele>
      </trkpt>
      <trkpt lat="36.64947" lon="28.12953">
        <ele>449.4</ele>
      </trkpt>
      <trkpt lat="36.64953" lon="28.12956">
        <ele>449.6</ele>
      </trkpt>
      <trkpt lat="36.64953" lon="28.12956">
        <ele>449.5</ele>
      </trkpt>
      <trkpt lat="36.64953" lon="28.1296">
        <ele>448.8</ele>
      </trkpt>
      <trkpt lat="36.64955" lon="28.12968">
        <ele>447.3</ele>
      </trkpt>
      <trkpt lat="36.64958" lon="28.12972">
        <ele>446.6</ele>
      </trkpt>
      <trkpt lat="36.64959" lon="28.12972">
        <ele>446.6</ele>
      </trkpt>
      <trkpt lat="36.64964" lon="28.1298">
        <ele>445.4</ele>
      </trkpt>
      <trkpt lat="36.64965" lon="28.12981">
        <ele>445.2</ele>
      </trkpt>
      <trkpt lat="36.6497" lon="28.12986">
        <ele>444.5</ele>
      </trkpt>
      <trkpt lat="36.6497" lon="28.12989">
        <ele>444</ele>
      </trkpt>
      <trkpt lat="36.64975" lon="28.12995">
        <ele>442.8</ele>
      </trkpt>
      <trkpt lat="36.64978" lon="28.12997">
        <ele>442.5</ele>
      </trkpt>
      <trkpt lat="36.64983" lon="28.12997">
        <ele>442.6</ele>
      </trkpt>
      <trkpt lat="36.64983" lon="28.13001">
        <ele>441.9</ele>
      </trkpt>
      <trkpt lat="36.64983" lon="28.13">
        <ele>441.9</ele>
      </trkpt>
      <trkpt lat="36.6498" lon="28.13003">
        <ele>441.3</ele>
      </trkpt>
      <trkpt lat="36.64985" lon="28.13001">
        <ele>441.9</ele>
      </trkpt>
      <trkpt lat="36.64986" lon="28.13004">
        <ele>441.6</ele>
      </trkpt>
      <trkpt lat="36.64985" lon="28.13005">
        <ele>441.4</ele>
      </trkpt>
      <trkpt lat="36.64985" lon="28.13009">
        <ele>440.7</ele>
      </trkpt>
      <trkpt lat="36.64987" lon="28.13017">
        <ele>439.6</ele>
      </trkpt>
      <trkpt lat="36.64985" lon="28.13014">
        <ele>440</ele>
      </trkpt>
      <trkpt lat="36.64986" lon="28.13012">
        <ele>440.3</ele>
      </trkpt>
      <trkpt lat="36.64986" lon="28.13017">
        <ele>439.6</ele>
      </trkpt>
      <trkpt lat="36.64988" lon="28.13018">
        <ele>439.5</ele>
      </trkpt>
      <trkpt lat="36.64988" lon="28.1302">
        <ele>439.2</ele>
      </trkpt>
      <trkpt lat="36.64989" lon="28.13022">
        <ele>439</ele>
      </trkpt>
      <trkpt lat="36.64989" lon="28.13028">
        <ele>438</ele>
      </trkpt>
      <trkpt lat="36.6499" lon="28.13029">
        <ele>437.9</ele>
      </trkpt>
      <trkpt lat="36.64991" lon="28.13031">
        <ele>437.5</ele>
      </trkpt>
      <trkpt lat="36.6499" lon="28.13032">
        <ele>437.3</ele>
      </trkpt>
      <trkpt lat="36.64994" lon="28.13037">
        <ele>436.6</ele>
      </trkpt>
      <trkpt lat="36.64998" lon="28.13044">
        <ele>435.6</ele>
      </trkpt>
      <trkpt lat="36.64997" lon="28.13044">
        <ele>435.7</ele>
      </trkpt>
      <trkpt lat="36.64998" lon="28.13047">
        <ele>435.1</ele>
      </trkpt>
      <trkpt lat="36.64999" lon="28.13048">
        <ele>435</ele>
      </trkpt>
      <trkpt lat="36.65004" lon="28.13051">
        <ele>434.9</ele>
      </trkpt>
      <trkpt lat="36.6501" lon="28.13054">
        <ele>435.2</ele>
      </trkpt>
      <trkpt lat="36.6501" lon="28.13055">
        <ele>435.1</ele>
      </trkpt>
      <trkpt lat="36.65013" lon="28.13057">
        <ele>435</ele>
      </trkpt>
      <trkpt lat="36.65013" lon="28.13058">
        <ele>434.9</ele>
      </trkpt>
      <trkpt lat="36.65012" lon="28.13059">
        <ele>434.6</ele>
      </trkpt>
      <trkpt lat="36.65015" lon="28.13064">
        <ele>434.1</ele>
      </trkpt>
      <trkpt lat="36.65017" lon="28.13069">
        <ele>433.6</ele>
      </trkpt>
      <trkpt lat="36.65018" lon="28.1307">
        <ele>433.4</ele>
      </trkpt>
      <trkpt lat="36.65026" lon="28.13078">
        <ele>433</ele>
      </trkpt>
      <trkpt lat="36.65028" lon="28.13079">
        <ele>433</ele>
      </trkpt>
      <trkpt lat="36.65029" lon="28.1308">
        <ele>433.1</ele>
      </trkpt>
      <trkpt lat="36.65028" lon="28.1308">
        <ele>433</ele>
      </trkpt>
      <trkpt lat="36.65026" lon="28.13078">
        <ele>433.1</ele>
      </trkpt>
      <trkpt lat="36.6503" lon="28.13083">
        <ele>432.7</ele>
      </trkpt>
      <trkpt lat="36.6503" lon="28.13083">
        <ele>432.7</ele>
      </trkpt>
      <trkpt lat="36.65032" lon="28.13086">
        <ele>432.4</ele>
      </trkpt>
      <trkpt lat="36.65034" lon="28.13087">
        <ele>432.5</ele>
      </trkpt>
      <trkpt lat="36.65038" lon="28.1309">
        <ele>432.4</ele>
      </trkpt>
      <trkpt lat="36.6504" lon="28.13093">
        <ele>432.3</ele>
      </trkpt>
      <trkpt lat="36.65041" lon="28.13094">
        <ele>432.2</ele>
      </trkpt>
      <trkpt lat="36.65045" lon="28.13101">
        <ele>431.7</ele>
      </trkpt>
      <trkpt lat="36.65047" lon="28.13102">
        <ele>431.8</ele>
      </trkpt>
      <trkpt lat="36.65051" lon="28.13106">
        <ele>431.7</ele>
      </trkpt>
      <trkpt lat="36.65051" lon="28.13106">
        <ele>431.7</ele>
      </trkpt>
      <trkpt lat="36.65055" lon="28.13108">
        <ele>432</ele>
      </trkpt>
      <trkpt lat="36.65056" lon="28.1311">
        <ele>432</ele>
      </trkpt>
      <trkpt lat="36.6506" lon="28.13112">
        <ele>432.3</ele>
      </trkpt>
      <trkpt lat="36.65064" lon="28.13115">
        <ele>432.4</ele>
      </trkpt>
      <trkpt lat="36.65066" lon="28.13117">
        <ele>432.5</ele>
      </trkpt>
      <trkpt lat="36.65068" lon="28.13119">
        <ele>432.3</ele>
      </trkpt>
      <trkpt lat="36.6507" lon="28.13123">
        <ele>432.2</ele>
      </trkpt>
      <trkpt lat="36.65073" lon="28.13126">
        <ele>432.3</ele>
      </trkpt>
      <trkpt lat="36.65075" lon="28.13129">
        <ele>432.3</ele>
      </trkpt>
      <trkpt lat="36.65078" lon="28.13131">
        <ele>432.3</ele>
      </trkpt>
      <trkpt lat="36.65082" lon="28.13132">
        <ele>432.9</ele>
      </trkpt>
      <trkpt lat="36.65085" lon="28.13131">
        <ele>433.6</ele>
      </trkpt>
      <trkpt lat="36.65093" lon="28.13134">
        <ele>435.3</ele>
      </trkpt>
      <trkpt lat="36.65095" lon="28.13134">
        <ele>435.8</ele>
      </trkpt>
      <trkpt lat="36.65096" lon="28.13134">
        <ele>436.1</ele>
      </trkpt>
      <trkpt lat="36.65103" lon="28.13137">
        <ele>437.4</ele>
      </trkpt>
      <trkpt lat="36.65103" lon="28.13139">
        <ele>437.4</ele>
      </trkpt>
      <trkpt lat="36.65105" lon="28.13145">
        <ele>437.2</ele>
      </trkpt>
      <trkpt lat="36.65105" lon="28.13153">
        <ele>436.6</ele>
      </trkpt>
      <trkpt lat="36.65107" lon="28.13159">
        <ele>436.6</ele>
      </trkpt>
      <trkpt lat="36.6511" lon="28.13164">
        <ele>436.9</ele>
      </trkpt>
      <trkpt lat="36.6511" lon="28.13169">
        <ele>436.5</ele>
      </trkpt>
      <trkpt lat="36.65114" lon="28.13173">
        <ele>436.9</ele>
      </trkpt>
      <trkpt lat="36.65114" lon="28.13174">
        <ele>437</ele>
      </trkpt>
      <trkpt lat="36.65115" lon="28.13178">
        <ele>436.7</ele>
      </trkpt>
      <trkpt lat="36.65116" lon="28.13181">
        <ele>436.7</ele>
      </trkpt>
      <trkpt lat="36.65117" lon="28.13184">
        <ele>436.4</ele>
      </trkpt>
      <trkpt lat="36.65118" lon="28.13192">
        <ele>435.8</ele>
      </trkpt>
      <trkpt lat="36.65118" lon="28.13209">
        <ele>433.7</ele>
      </trkpt>
      <trkpt lat="36.65118" lon="28.13216">
        <ele>432.7</ele>
      </trkpt>
      <trkpt lat="36.65117" lon="28.13224">
        <ele>431.6</ele>
      </trkpt>
      <trkpt lat="36.65117" lon="28.13229">
        <ele>431</ele>
      </trkpt>
      <trkpt lat="36.6512" lon="28.13237">
        <ele>430.5</ele>
      </trkpt>
      <trkpt lat="36.65119" lon="28.13238">
        <ele>430.2</ele>
      </trkpt>
      <trkpt lat="36.65119" lon="28.13241">
        <ele>429.9</ele>
      </trkpt>
      <trkpt lat="36.6512" lon="28.13242">
        <ele>429.9</ele>
      </trkpt>
      <trkpt lat="36.6512" lon="28.13245">
        <ele>429.6</ele>
      </trkpt>
      <trkpt lat="36.65121" lon="28.13248">
        <ele>429.3</ele>
      </trkpt>
      <trkpt lat="36.6512" lon="28.1325">
        <ele>428.9</ele>
      </trkpt>
      <trkpt lat="36.65117" lon="28.13255">
        <ele>427.2</ele>
      </trkpt>
      <trkpt lat="36.65116" lon="28.1326">
        <ele>426</ele>
      </trkpt>
      <trkpt lat="36.65116" lon="28.13263">
        <ele>425.3</ele>
      </trkpt>
      <trkpt lat="36.65116" lon="28.13263">
        <ele>425.2</ele>
      </trkpt>
      <trkpt lat="36.65116" lon="28.13267">
        <ele>424.1</ele>
      </trkpt>
      <trkpt lat="36.65116" lon="28.13271">
        <ele>423.4</ele>
      </trkpt>
      <trkpt lat="36.65116" lon="28.13271">
        <ele>423.2</ele>
      </trkpt>
      <trkpt lat="36.65117" lon="28.13274">
        <ele>422.9</ele>
      </trkpt>
      <trkpt lat="36.65116" lon="28.13276">
        <ele>422.3</ele>
      </trkpt>
      <trkpt lat="36.65118" lon="28.13281">
        <ele>421.6</ele>
      </trkpt>
      <trkpt lat="36.65118" lon="28.13282">
        <ele>421.3</ele>
      </trkpt>
      <trkpt lat="36.65118" lon="28.13283">
        <ele>421.2</ele>
      </trkpt>
      <trkpt lat="36.65118" lon="28.13283">
        <ele>421</ele>
      </trkpt>
      <trkpt lat="36.65117" lon="28.13283">
        <ele>420.8</ele>
      </trkpt>
      <trkpt lat="36.65117" lon="28.13285">
        <ele>420.6</ele>
      </trkpt>
      <trkpt lat="36.65118" lon="28.13286">
        <ele>420.4</ele>
      </trkpt>
      <trkpt lat="36.65119" lon="28.13287">
        <ele>420.4</ele>
      </trkpt>
      <trkpt lat="36.65119" lon="28.13288">
        <ele>420.2</ele>
      </trkpt>
      <trkpt lat="36.6512" lon="28.13289">
        <ele>420.2</ele>
      </trkpt>
      <trkpt lat="36.6512" lon="28.1329">
        <ele>420.1</ele>
      </trkpt>
      <trkpt lat="36.65125" lon="28.13295">
        <ele>419.8</ele>
      </trkpt>
      <trkpt lat="36.65132" lon="28.13302">
        <ele>419.4</ele>
      </trkpt>
      <trkpt lat="36.65134" lon="28.13305">
        <ele>419.2</ele>
      </trkpt>
      <trkpt lat="36.6514" lon="28.13306">
        <ele>420.1</ele>
      </trkpt>
      <trkpt lat="36.65144" lon="28.1331">
        <ele>419.9</ele>
      </trkpt>
      <trkpt lat="36.65148" lon="28.13311">
        <ele>420.4</ele>
      </trkpt>
      <trkpt lat="36.65154" lon="28.13315">
        <ele>420.3</ele>
      </trkpt>
      <trkpt lat="36.65156" lon="28.13316">
        <ele>420.4</ele>
      </trkpt>
      <trkpt lat="36.65155" lon="28.13319">
        <ele>419.5</ele>
      </trkpt>
      <trkpt lat="36.65155" lon="28.1332">
        <ele>419.4</ele>
      </trkpt>
      <trkpt lat="36.65159" lon="28.1332">
        <ele>420.1</ele>
      </trkpt>
      <trkpt lat="36.65164" lon="28.13321">
        <ele>420.7</ele>
      </trkpt>
      <trkpt lat="36.65165" lon="28.13319">
        <ele>421.4</ele>
      </trkpt>
      <trkpt lat="36.65166" lon="28.13318">
        <ele>421.7</ele>
      </trkpt>
      <trkpt lat="36.65166" lon="28.13318">
        <ele>421.7</ele>
      </trkpt>
      <trkpt lat="36.65167" lon="28.13319">
        <ele>421.7</ele>
      </trkpt>
      <trkpt lat="36.65172" lon="28.13321">
        <ele>421.4</ele>
      </trkpt>
      <trkpt lat="36.65174" lon="28.1332">
        <ele>421.6</ele>
      </trkpt>
      <trkpt lat="36.65181" lon="28.13318">
        <ele>422.6</ele>
      </trkpt>
      <trkpt lat="36.65184" lon="28.13317">
        <ele>423</ele>
      </trkpt>
      <trkpt lat="36.65185" lon="28.13316">
        <ele>423.2</ele>
      </trkpt>
      <trkpt lat="36.65189" lon="28.13312">
        <ele>424.5</ele>
      </trkpt>
      <trkpt lat="36.65192" lon="28.13311">
        <ele>424.9</ele>
      </trkpt>
      <trkpt lat="36.65194" lon="28.13312">
        <ele>424.7</ele>
      </trkpt>
      <trkpt lat="36.65198" lon="28.13312">
        <ele>424.7</ele>
      </trkpt>
      <trkpt lat="36.65209" lon="28.13316">
        <ele>424.2</ele>
      </trkpt>
      <trkpt lat="36.6521" lon="28.13316">
        <ele>424.4</ele>
      </trkpt>
      <trkpt lat="36.65209" lon="28.13317">
        <ele>424</ele>
      </trkpt>
      <trkpt lat="36.65205" lon="28.13318">
        <ele>423.5</ele>
      </trkpt>
      <trkpt lat="36.65205" lon="28.13318">
        <ele>423.5</ele>
      </trkpt>
      <trkpt lat="36.65205" lon="28.13322">
        <ele>422.5</ele>
      </trkpt>
      <trkpt lat="36.65206" lon="28.13322">
        <ele>422.5</ele>
      </trkpt>
      <trkpt lat="36.65211" lon="28.13322">
        <ele>422.8</ele>
      </trkpt>
      <trkpt lat="36.6521" lon="28.13322">
        <ele>422.7</ele>
      </trkpt>
      <trkpt lat="36.6521" lon="28.13322">
        <ele>422.6</ele>
      </trkpt>
      <trkpt lat="36.65211" lon="28.13323">
        <ele>422.5</ele>
      </trkpt>
      <trkpt lat="36.65211" lon="28.13323">
        <ele>422.5</ele>
      </trkpt>
      <trkpt lat="36.65224" lon="28.13324">
        <ele>422.7</ele>
      </trkpt>
      <trkpt lat="36.65224" lon="28.13324">
        <ele>422.7</ele>
      </trkpt>
      <trkpt lat="36.65224" lon="28.13324">
        <ele>422.5</ele>
      </trkpt>
      <trkpt lat="36.6523" lon="28.13327">
        <ele>422.1</ele>
      </trkpt>
      <trkpt lat="36.65237" lon="28.1333">
        <ele>421.6</ele>
      </trkpt>
      <trkpt lat="36.65243" lon="28.13335">
        <ele>420.2</ele>
      </trkpt>
      <trkpt lat="36.65247" lon="28.13341">
        <ele>418.9</ele>
      </trkpt>
      <trkpt lat="36.65247" lon="28.13341">
        <ele>418.8</ele>
      </trkpt>
      <trkpt lat="36.6525" lon="28.13343">
        <ele>418.4</ele>
      </trkpt>
      <trkpt lat="36.6525" lon="28.13344">
        <ele>418.2</ele>
      </trkpt>
      <trkpt lat="36.65255" lon="28.1335">
        <ele>417</ele>
      </trkpt>
      <trkpt lat="36.65258" lon="28.13353">
        <ele>416.9</ele>
      </trkpt>
      <trkpt lat="36.65259" lon="28.13354">
        <ele>416.5</ele>
      </trkpt>
      <trkpt lat="36.65261" lon="28.13355">
        <ele>416.7</ele>
      </trkpt>
      <trkpt lat="36.65264" lon="28.13356">
        <ele>416.9</ele>
      </trkpt>
      <trkpt lat="36.65265" lon="28.13358">
        <ele>416.4</ele>
      </trkpt>
      <trkpt lat="36.65272" lon="28.13366">
        <ele>415.2</ele>
      </trkpt>
      <trkpt lat="36.65277" lon="28.1337">
        <ele>414.8</ele>
      </trkpt>
      <trkpt lat="36.65281" lon="28.1337">
        <ele>415.2</ele>
      </trkpt>
      <trkpt lat="36.65284" lon="28.13374">
        <ele>414.5</ele>
      </trkpt>
      <trkpt lat="36.65287" lon="28.13377">
        <ele>413.9</ele>
      </trkpt>
      <trkpt lat="36.65286" lon="28.13376">
        <ele>414.2</ele>
      </trkpt>
      <trkpt lat="36.65284" lon="28.13373">
        <ele>414.9</ele>
      </trkpt>
      <trkpt lat="36.65286" lon="28.13374">
        <ele>414.8</ele>
      </trkpt>
      <trkpt lat="36.65295" lon="28.13378">
        <ele>414.8</ele>
      </trkpt>
      <trkpt lat="36.65295" lon="28.13379">
        <ele>414.7</ele>
      </trkpt>
      <trkpt lat="36.65296" lon="28.1338">
        <ele>414.5</ele>
      </trkpt>
      <trkpt lat="36.65299" lon="28.1338">
        <ele>414.7</ele>
      </trkpt>
      <trkpt lat="36.65302" lon="28.13383">
        <ele>414.4</ele>
      </trkpt>
      <trkpt lat="36.65302" lon="28.13383">
        <ele>414.4</ele>
      </trkpt>
      <trkpt lat="36.65302" lon="28.13382">
        <ele>414.4</ele>
      </trkpt>
      <trkpt lat="36.65302" lon="28.13383">
        <ele>414.2</ele>
      </trkpt>
      <trkpt lat="36.65304" lon="28.13383">
        <ele>414.3</ele>
      </trkpt>
      <trkpt lat="36.65306" lon="28.13384">
        <ele>414.3</ele>
      </trkpt>
      <trkpt lat="36.65305" lon="28.13385">
        <ele>414</ele>
      </trkpt>
      <trkpt lat="36.65306" lon="28.13384">
        <ele>414.3</ele>
      </trkpt>
      <trkpt lat="36.65309" lon="28.13383">
        <ele>415.2</ele>
      </trkpt>
      <trkpt lat="36.65314" lon="28.13381">
        <ele>416.5</ele>
      </trkpt>
      <trkpt lat="36.65319" lon="28.13382">
        <ele>416.8</ele>
      </trkpt>
      <trkpt lat="36.65323" lon="28.13387">
        <ele>415.8</ele>
      </trkpt>
      <trkpt lat="36.65325" lon="28.13386">
        <ele>416.2</ele>
      </trkpt>
      <trkpt lat="36.65324" lon="28.13386">
        <ele>416.2</ele>
      </trkpt>
      <trkpt lat="36.65327" lon="28.13386">
        <ele>416.6</ele>
      </trkpt>
      <trkpt lat="36.65329" lon="28.13386">
        <ele>416.9</ele>
      </trkpt>
      <trkpt lat="36.65333" lon="28.13388">
        <ele>416.5</ele>
      </trkpt>
      <trkpt lat="36.65333" lon="28.13389">
        <ele>416.3</ele>
      </trkpt>
      <trkpt lat="36.65333" lon="28.1339">
        <ele>416</ele>
      </trkpt>
      <trkpt lat="36.65332" lon="28.1339">
        <ele>415.9</ele>
      </trkpt>
      <trkpt lat="36.65329" lon="28.13388">
        <ele>416</ele>
      </trkpt>
      <trkpt lat="36.65326" lon="28.13389">
        <ele>415.4</ele>
      </trkpt>
      <trkpt lat="36.65325" lon="28.13389">
        <ele>415.2</ele>
      </trkpt>
      <trkpt lat="36.65325" lon="28.13386">
        <ele>416.2</ele>
      </trkpt>
      <trkpt lat="36.65326" lon="28.13384">
        <ele>417</ele>
      </trkpt>
      <trkpt lat="36.65325" lon="28.13388">
        <ele>415.6</ele>
      </trkpt>
      <trkpt lat="36.65329" lon="28.13389">
        <ele>415.8</ele>
      </trkpt>
      <trkpt lat="36.65335" lon="28.13393">
        <ele>415.4</ele>
      </trkpt>
      <trkpt lat="36.65335" lon="28.13393">
        <ele>415.4</ele>
      </trkpt>
      <trkpt lat="36.65335" lon="28.13395">
        <ele>415</ele>
      </trkpt>
      <trkpt lat="36.65339" lon="28.13401">
        <ele>414.1</ele>
      </trkpt>
      <trkpt lat="36.65343" lon="28.13401">
        <ele>414.8</ele>
      </trkpt>
      <trkpt lat="36.65345" lon="28.13403">
        <ele>414.8</ele>
      </trkpt>
      <trkpt lat="36.65351" lon="28.13407">
        <ele>415.6</ele>
      </trkpt>
      <trkpt lat="36.65353" lon="28.13408">
        <ele>415.7</ele>
      </trkpt>
      <trkpt lat="36.65359" lon="28.13415">
        <ele>414.9</ele>
      </trkpt>
      <trkpt lat="36.65362" lon="28.13418">
        <ele>414.6</ele>
      </trkpt>
      <trkpt lat="36.65363" lon="28.13423">
        <ele>412.4</ele>
      </trkpt>
      <trkpt lat="36.65364" lon="28.13426">
        <ele>411.8</ele>
      </trkpt>
      <trkpt lat="36.65366" lon="28.1343">
        <ele>410.8</ele>
      </trkpt>
      <trkpt lat="36.65367" lon="28.13431">
        <ele>410.3</ele>
      </trkpt>
      <trkpt lat="36.65366" lon="28.13431">
        <ele>410.2</ele>
      </trkpt>
      <trkpt lat="36.65368" lon="28.13431">
        <ele>410.4</ele>
      </trkpt>
      <trkpt lat="36.65372" lon="28.13435">
        <ele>409.7</ele>
      </trkpt>
      <trkpt lat="36.65375" lon="28.13439">
        <ele>408.8</ele>
      </trkpt>
      <trkpt lat="36.65376" lon="28.13441">
        <ele>408.4</ele>
      </trkpt>
      <trkpt lat="36.65378" lon="28.13441">
        <ele>408.6</ele>
      </trkpt>
      <trkpt lat="36.65379" lon="28.13447">
        <ele>406.5</ele>
      </trkpt>
      <trkpt lat="36.65382" lon="28.1345">
        <ele>406</ele>
      </trkpt>
      <trkpt lat="36.65384" lon="28.13451">
        <ele>406.2</ele>
      </trkpt>
      <trkpt lat="36.65389" lon="28.13452">
        <ele>407.3</ele>
      </trkpt>
      <trkpt lat="36.6539" lon="28.13452">
        <ele>407.5</ele>
      </trkpt>
      <trkpt lat="36.65396" lon="28.13454">
        <ele>407.7</ele>
      </trkpt>
      <trkpt lat="36.654" lon="28.13454">
        <ele>408.9</ele>
      </trkpt>
      <trkpt lat="36.65402" lon="28.13456">
        <ele>408.7</ele>
      </trkpt>
      <trkpt lat="36.65402" lon="28.13456">
        <ele>408.5</ele>
      </trkpt>
      <trkpt lat="36.65401" lon="28.13457">
        <ele>408</ele>
      </trkpt>
      <trkpt lat="36.65403" lon="28.13456">
        <ele>409</ele>
      </trkpt>
      <trkpt lat="36.65406" lon="28.13453">
        <ele>411.2</ele>
      </trkpt>
      <trkpt lat="36.65407" lon="28.13453">
        <ele>411.1</ele>
      </trkpt>
      <trkpt lat="36.65407" lon="28.13454">
        <ele>411.1</ele>
      </trkpt>
      <trkpt lat="36.65407" lon="28.13458">
        <ele>408.8</ele>
      </trkpt>
      <trkpt lat="36.65406" lon="28.13462">
        <ele>406.9</ele>
      </trkpt>
      <trkpt lat="36.65407" lon="28.13463">
        <ele>407</ele>
      </trkpt>
      <trkpt lat="36.65408" lon="28.13464">
        <ele>406.7</ele>
      </trkpt>
      <trkpt lat="36.65411" lon="28.13463">
        <ele>407.6</ele>
      </trkpt>
      <trkpt lat="36.65418" lon="28.13462">
        <ele>410.1</ele>
      </trkpt>
      <trkpt lat="36.65422" lon="28.13464">
        <ele>409.6</ele>
      </trkpt>
      <trkpt lat="36.65421" lon="28.13462">
        <ele>410.5</ele>
      </trkpt>
      <trkpt lat="36.65423" lon="28.13463">
        <ele>410</ele>
      </trkpt>
      <trkpt lat="36.65425" lon="28.13467">
        <ele>408.3</ele>
      </trkpt>
      <trkpt lat="36.65426" lon="28.13469">
        <ele>407.8</ele>
      </trkpt>
      <trkpt lat="36.65427" lon="28.13469">
        <ele>407.7</ele>
      </trkpt>
      <trkpt lat="36.65428" lon="28.1347">
        <ele>407.7</ele>
      </trkpt>
      <trkpt lat="36.6543" lon="28.13476">
        <ele>404.9</ele>
      </trkpt>
      <trkpt lat="36.6543" lon="28.13479">
        <ele>403.9</ele>
      </trkpt>
      <trkpt lat="36.65432" lon="28.1348">
        <ele>403.4</ele>
      </trkpt>
      <trkpt lat="36.65434" lon="28.13482">
        <ele>402.9</ele>
      </trkpt>
      <trkpt lat="36.65434" lon="28.13479">
        <ele>403.9</ele>
      </trkpt>
      <trkpt lat="36.65439" lon="28.13481">
        <ele>403.7</ele>
      </trkpt>
      <trkpt lat="36.65442" lon="28.13486">
        <ele>401.9</ele>
      </trkpt>
      <trkpt lat="36.65447" lon="28.13488">
        <ele>401.6</ele>
      </trkpt>
      <trkpt lat="36.65449" lon="28.13495">
        <ele>398.7</ele>
      </trkpt>
      <trkpt lat="36.65452" lon="28.13498">
        <ele>397.7</ele>
      </trkpt>
      <trkpt lat="36.65452" lon="28.13499">
        <ele>397.7</ele>
      </trkpt>
      <trkpt lat="36.65456" lon="28.13499">
        <ele>397.9</ele>
      </trkpt>
      <trkpt lat="36.65459" lon="28.13502">
        <ele>397.2</ele>
      </trkpt>
      <trkpt lat="36.6546" lon="28.13502">
        <ele>397.3</ele>
      </trkpt>
      <trkpt lat="36.65458" lon="28.135">
        <ele>398</ele>
      </trkpt>
      <trkpt lat="36.65454" lon="28.13498">
        <ele>398.4</ele>
      </trkpt>
      <trkpt lat="36.65453" lon="28.13497">
        <ele>398.5</ele>
      </trkpt>
      <trkpt lat="36.65457" lon="28.135">
        <ele>397.8</ele>
      </trkpt>
      <trkpt lat="36.65459" lon="28.13503">
        <ele>396.7</ele>
      </trkpt>
      <trkpt lat="36.6546" lon="28.13504">
        <ele>396.6</ele>
      </trkpt>
      <trkpt lat="36.65461" lon="28.13506">
        <ele>395.9</ele>
      </trkpt>
      <trkpt lat="36.65463" lon="28.13505">
        <ele>396.3</ele>
      </trkpt>
      <trkpt lat="36.65465" lon="28.13507">
        <ele>396</ele>
      </trkpt>
      <trkpt lat="36.6547" lon="28.13509">
        <ele>395.5</ele>
      </trkpt>
      <trkpt lat="36.65471" lon="28.13511">
        <ele>395</ele>
      </trkpt>
      <trkpt lat="36.65473" lon="28.13512">
        <ele>394.9</ele>
      </trkpt>
      <trkpt lat="36.65476" lon="28.13512">
        <ele>395.2</ele>
      </trkpt>
      <trkpt lat="36.65481" lon="28.13512">
        <ele>396.2</ele>
      </trkpt>
      <trkpt lat="36.65482" lon="28.13512">
        <ele>396.6</ele>
      </trkpt>
      <trkpt lat="36.65491" lon="28.1351">
        <ele>398.7</ele>
      </trkpt>
      <trkpt lat="36.65495" lon="28.1351">
        <ele>399</ele>
      </trkpt>
      <trkpt lat="36.65503" lon="28.13513">
        <ele>398.4</ele>
      </trkpt>
      <trkpt lat="36.65505" lon="28.13514">
        <ele>397.9</ele>
      </trkpt>
      <trkpt lat="36.65509" lon="28.13515">
        <ele>397.3</ele>
      </trkpt>
      <trkpt lat="36.65512" lon="28.13515">
        <ele>397.5</ele>
      </trkpt>
      <trkpt lat="36.65514" lon="28.13514">
        <ele>397.4</ele>
      </trkpt>
      <trkpt lat="36.65515" lon="28.13515">
        <ele>397.3</ele>
      </trkpt>
      <trkpt lat="36.65522" lon="28.13518">
        <ele>395.5</ele>
      </trkpt>
      <trkpt lat="36.65526" lon="28.13521">
        <ele>393.9</ele>
      </trkpt>
      <trkpt lat="36.65528" lon="28.13521">
        <ele>393.8</ele>
      </trkpt>
      <trkpt lat="36.65532" lon="28.13522">
        <ele>393.3</ele>
      </trkpt>
      <trkpt lat="36.6554" lon="28.13522">
        <ele>392.7</ele>
      </trkpt>
      <trkpt lat="36.65548" lon="28.13523">
        <ele>391.8</ele>
      </trkpt>
      <trkpt lat="36.65553" lon="28.13524">
        <ele>391.3</ele>
      </trkpt>
      <trkpt lat="36.65558" lon="28.13526">
        <ele>390.4</ele>
      </trkpt>
      <trkpt lat="36.65559" lon="28.13527">
        <ele>389.9</ele>
      </trkpt>
      <trkpt lat="36.65561" lon="28.13527">
        <ele>389.6</ele>
      </trkpt>
      <trkpt lat="36.65562" lon="28.13528">
        <ele>389</ele>
      </trkpt>
      <trkpt lat="36.65564" lon="28.13529">
        <ele>388.4</ele>
      </trkpt>
      <trkpt lat="36.65568" lon="28.13532">
        <ele>387.3</ele>
      </trkpt>
      <trkpt lat="36.65572" lon="28.13534">
        <ele>386.2</ele>
      </trkpt>
      <trkpt lat="36.65572" lon="28.13534">
        <ele>386.2</ele>
      </trkpt>
      <trkpt lat="36.65573" lon="28.13533">
        <ele>386.4</ele>
      </trkpt>
      <trkpt lat="36.6558" lon="28.13535">
        <ele>385.3</ele>
      </trkpt>
      <trkpt lat="36.65586" lon="28.13536">
        <ele>384.4</ele>
      </trkpt>
      <trkpt lat="36.65587" lon="28.13536">
        <ele>384.3</ele>
      </trkpt>
      <trkpt lat="36.65594" lon="28.13537">
        <ele>383.9</ele>
      </trkpt>
      <trkpt lat="36.65597" lon="28.13537">
        <ele>383.6</ele>
      </trkpt>
      <trkpt lat="36.656" lon="28.13537">
        <ele>383.6</ele>
      </trkpt>
      <trkpt lat="36.65602" lon="28.13537">
        <ele>383.5</ele>
      </trkpt>
      <trkpt lat="36.65605" lon="28.13537">
        <ele>383.8</ele>
      </trkpt>
      <trkpt lat="36.65606" lon="28.13536">
        <ele>383.9</ele>
      </trkpt>
      <trkpt lat="36.6561" lon="28.13536">
        <ele>384.1</ele>
      </trkpt>
      <trkpt lat="36.65616" lon="28.13531">
        <ele>385.6</ele>
      </trkpt>
      <trkpt lat="36.65619" lon="28.13531">
        <ele>385.7</ele>
      </trkpt>
      <trkpt lat="36.65619" lon="28.13531">
        <ele>385.7</ele>
      </trkpt>
      <trkpt lat="36.6562" lon="28.13531">
        <ele>385.7</ele>
      </trkpt>
      <trkpt lat="36.65624" lon="28.1353">
        <ele>386</ele>
      </trkpt>
      <trkpt lat="36.65624" lon="28.1353">
        <ele>386</ele>
      </trkpt>
      <trkpt lat="36.65627" lon="28.13527">
        <ele>386.8</ele>
      </trkpt>
      <trkpt lat="36.6563" lon="28.13525">
        <ele>387.4</ele>
      </trkpt>
      <trkpt lat="36.65632" lon="28.13525">
        <ele>387.4</ele>
      </trkpt>
      <trkpt lat="36.65631" lon="28.13525">
        <ele>387.4</ele>
      </trkpt>
      <trkpt lat="36.65634" lon="28.13524">
        <ele>387.6</ele>
      </trkpt>
      <trkpt lat="36.65636" lon="28.13525">
        <ele>387.4</ele>
      </trkpt>
      <trkpt lat="36.65638" lon="28.13524">
        <ele>387.6</ele>
      </trkpt>
      <trkpt lat="36.65644" lon="28.13522">
        <ele>387.9</ele>
      </trkpt>
      <trkpt lat="36.65646" lon="28.13523">
        <ele>387.7</ele>
      </trkpt>
      <trkpt lat="36.6566" lon="28.13524">
        <ele>386.8</ele>
      </trkpt>
      <trkpt lat="36.6567" lon="28.13522">
        <ele>387.4</ele>
      </trkpt>
      <trkpt lat="36.65675" lon="28.13523">
        <ele>387.6</ele>
      </trkpt>
      <trkpt lat="36.65687" lon="28.13522">
        <ele>388.8</ele>
      </trkpt>
      <trkpt lat="36.65685" lon="28.13527">
        <ele>387.3</ele>
      </trkpt>
      <trkpt lat="36.65683" lon="28.13526">
        <ele>387.3</ele>
      </trkpt>
      <trkpt lat="36.65684" lon="28.13527">
        <ele>387.2</ele>
      </trkpt>
      <trkpt lat="36.65689" lon="28.13529">
        <ele>387.2</ele>
      </trkpt>
      <trkpt lat="36.65687" lon="28.13529">
        <ele>386.8</ele>
      </trkpt>
      <trkpt lat="36.65691" lon="28.13531">
        <ele>386.6</ele>
      </trkpt>
      <trkpt lat="36.65691" lon="28.13531">
        <ele>386.6</ele>
      </trkpt>
      <trkpt lat="36.65696" lon="28.13533">
        <ele>386.7</ele>
      </trkpt>
      <trkpt lat="36.65697" lon="28.13535">
        <ele>386.2</ele>
      </trkpt>
      <trkpt lat="36.657" lon="28.1354">
        <ele>385</ele>
      </trkpt>
      <trkpt lat="36.65701" lon="28.1354">
        <ele>385.1</ele>
      </trkpt>
      <trkpt lat="36.65704" lon="28.13543">
        <ele>384.7</ele>
      </trkpt>
      <trkpt lat="36.65705" lon="28.13544">
        <ele>384.6</ele>
      </trkpt>
      <trkpt lat="36.65706" lon="28.13545">
        <ele>384.4</ele>
      </trkpt>
      <trkpt lat="36.65712" lon="28.13548">
        <ele>384.3</ele>
      </trkpt>
      <trkpt lat="36.65713" lon="28.13549">
        <ele>384.1</ele>
      </trkpt>
      <trkpt lat="36.65716" lon="28.13551">
        <ele>383.8</ele>
      </trkpt>
      <trkpt lat="36.65719" lon="28.13554">
        <ele>383.6</ele>
      </trkpt>
      <trkpt lat="36.65719" lon="28.13555">
        <ele>383.4</ele>
      </trkpt>
      <trkpt lat="36.65722" lon="28.13561">
        <ele>382.2</ele>
      </trkpt>
      <trkpt lat="36.65724" lon="28.13562">
        <ele>382.1</ele>
      </trkpt>
      <trkpt lat="36.65723" lon="28.13563">
        <ele>381.9</ele>
      </trkpt>
      <trkpt lat="36.65725" lon="28.13566">
        <ele>381.4</ele>
      </trkpt>
      <trkpt lat="36.65728" lon="28.13567">
        <ele>381.4</ele>
      </trkpt>
      <trkpt lat="36.6573" lon="28.1357">
        <ele>381.1</ele>
      </trkpt>
      <trkpt lat="36.65733" lon="28.13573">
        <ele>380.9</ele>
      </trkpt>
      <trkpt lat="36.65737" lon="28.13575">
        <ele>380.9</ele>
      </trkpt>
      <trkpt lat="36.6574" lon="28.13575">
        <ele>381.3</ele>
      </trkpt>
      <trkpt lat="36.65743" lon="28.1358">
        <ele>380.7</ele>
      </trkpt>
      <trkpt lat="36.65747" lon="28.13582">
        <ele>380.8</ele>
      </trkpt>
      <trkpt lat="36.65752" lon="28.13585">
        <ele>380.4</ele>
      </trkpt>
      <trkpt lat="36.65753" lon="28.13586">
        <ele>380.2</ele>
      </trkpt>
      <trkpt lat="36.65753" lon="28.13586">
        <ele>380.1</ele>
      </trkpt>
      <trkpt lat="36.65755" lon="28.13588">
        <ele>379.5</ele>
      </trkpt>
      <trkpt lat="36.65759" lon="28.1359">
        <ele>378.6</ele>
      </trkpt>
      <trkpt lat="36.65761" lon="28.13592">
        <ele>377.9</ele>
      </trkpt>
      <trkpt lat="36.65763" lon="28.13594">
        <ele>377.3</ele>
      </trkpt>
      <trkpt lat="36.65764" lon="28.13595">
        <ele>376.9</ele>
      </trkpt>
      <trkpt lat="36.65768" lon="28.13596">
        <ele>376.1</ele>
      </trkpt>
      <trkpt lat="36.65773" lon="28.13597">
        <ele>374.9</ele>
      </trkpt>
      <trkpt lat="36.65775" lon="28.13598">
        <ele>374.3</ele>
      </trkpt>
      <trkpt lat="36.65778" lon="28.13595">
        <ele>374.5</ele>
      </trkpt>
      <trkpt lat="36.65781" lon="28.13596">
        <ele>373.7</ele>
      </trkpt>
      <trkpt lat="36.65787" lon="28.13593">
        <ele>373</ele>
      </trkpt>
      <trkpt lat="36.65789" lon="28.13592">
        <ele>372.8</ele>
      </trkpt>
      <trkpt lat="36.65795" lon="28.1359">
        <ele>372.1</ele>
      </trkpt>
      <trkpt lat="36.65796" lon="28.13589">
        <ele>372.1</ele>
      </trkpt>
      <trkpt lat="36.65799" lon="28.1359">
        <ele>371.6</ele>
      </trkpt>
      <trkpt lat="36.65801" lon="28.13588">
        <ele>371.5</ele>
      </trkpt>
      <trkpt lat="36.65807" lon="28.13587">
        <ele>370.6</ele>
      </trkpt>
      <trkpt lat="36.65812" lon="28.13585">
        <ele>370.3</ele>
      </trkpt>
      <trkpt lat="36.65814" lon="28.13586">
        <ele>369.9</ele>
      </trkpt>
      <trkpt lat="36.65814" lon="28.13585">
        <ele>369.9</ele>
      </trkpt>
      <trkpt lat="36.65815" lon="28.13587">
        <ele>369.2</ele>
      </trkpt>
      <trkpt lat="36.65817" lon="28.13591">
        <ele>368.2</ele>
      </trkpt>
      <trkpt lat="36.65817" lon="28.13591">
        <ele>368.1</ele>
      </trkpt>
      <trkpt lat="36.65818" lon="28.13592">
        <ele>367.6</ele>
      </trkpt>
      <trkpt lat="36.65819" lon="28.13598">
        <ele>366.3</ele>
      </trkpt>
      <trkpt lat="36.65819" lon="28.136">
        <ele>365.6</ele>
      </trkpt>
      <trkpt lat="36.6582" lon="28.13601">
        <ele>365.3</ele>
      </trkpt>
      <trkpt lat="36.65822" lon="28.13602">
        <ele>364.7</ele>
      </trkpt>
      <trkpt lat="36.65825" lon="28.13601">
        <ele>364.4</ele>
      </trkpt>
      <trkpt lat="36.65825" lon="28.13601">
        <ele>364.2</ele>
      </trkpt>
      <trkpt lat="36.65831" lon="28.13603">
        <ele>362.6</ele>
      </trkpt>
      <trkpt lat="36.65833" lon="28.13605">
        <ele>361.9</ele>
      </trkpt>
      <trkpt lat="36.65835" lon="28.13607">
        <ele>361.2</ele>
      </trkpt>
      <trkpt lat="36.65837" lon="28.1361">
        <ele>360.3</ele>
      </trkpt>
      <trkpt lat="36.65842" lon="28.13612">
        <ele>359.4</ele>
      </trkpt>
      <trkpt lat="36.65841" lon="28.13612">
        <ele>359.3</ele>
      </trkpt>
      <trkpt lat="36.65843" lon="28.13613">
        <ele>358.9</ele>
      </trkpt>
      <trkpt lat="36.65846" lon="28.13614">
        <ele>358.4</ele>
      </trkpt>
      <trkpt lat="36.65849" lon="28.13613">
        <ele>358.3</ele>
      </trkpt>
      <trkpt lat="36.65851" lon="28.13614">
        <ele>357.9</ele>
      </trkpt>
      <trkpt lat="36.65853" lon="28.13616">
        <ele>357.3</ele>
      </trkpt>
      <trkpt lat="36.65856" lon="28.13616">
        <ele>357.1</ele>
      </trkpt>
      <trkpt lat="36.65857" lon="28.13617">
        <ele>356.7</ele>
      </trkpt>
      <trkpt lat="36.65861" lon="28.1362">
        <ele>355.6</ele>
      </trkpt>
      <trkpt lat="36.65862" lon="28.1362">
        <ele>355.5</ele>
      </trkpt>
      <trkpt lat="36.65867" lon="28.1362">
        <ele>355.1</ele>
      </trkpt>
      <trkpt lat="36.65874" lon="28.13619">
        <ele>354.6</ele>
      </trkpt>
      <trkpt lat="36.65877" lon="28.13619">
        <ele>354.3</ele>
      </trkpt>
      <trkpt lat="36.6588" lon="28.13619">
        <ele>353.9</ele>
      </trkpt>
      <trkpt lat="36.65883" lon="28.13618">
        <ele>353.8</ele>
      </trkpt>
      <trkpt lat="36.65885" lon="28.13622">
        <ele>352.8</ele>
      </trkpt>
      <trkpt lat="36.65889" lon="28.13623">
        <ele>352.1</ele>
      </trkpt>
      <trkpt lat="36.65894" lon="28.13626">
        <ele>350.9</ele>
      </trkpt>
      <trkpt lat="36.65901" lon="28.13631">
        <ele>349.1</ele>
      </trkpt>
      <trkpt lat="36.65909" lon="28.13637">
        <ele>346.9</ele>
      </trkpt>
      <trkpt lat="36.65911" lon="28.13638">
        <ele>346.5</ele>
      </trkpt>
      <trkpt lat="36.65912" lon="28.13641">
        <ele>345.7</ele>
      </trkpt>
      <trkpt lat="36.65912" lon="28.13643">
        <ele>345.1</ele>
      </trkpt>
      <trkpt lat="36.65914" lon="28.13644">
        <ele>344.7</ele>
      </trkpt>
      <trkpt lat="36.65922" lon="28.13648">
        <ele>343.6</ele>
      </trkpt>
      <trkpt lat="36.65923" lon="28.13648">
        <ele>343.4</ele>
      </trkpt>
      <trkpt lat="36.65927" lon="28.13651">
        <ele>342.7</ele>
      </trkpt>
      <trkpt lat="36.65929" lon="28.13653">
        <ele>342.3</ele>
      </trkpt>
      <trkpt lat="36.65929" lon="28.13653">
        <ele>342.3</ele>
      </trkpt>
      <trkpt lat="36.65929" lon="28.13653">
        <ele>342.2</ele>
      </trkpt>
      <trkpt lat="36.65934" lon="28.13663">
        <ele>340</ele>
      </trkpt>
      <trkpt lat="36.65941" lon="28.13678">
        <ele>337.6</ele>
      </trkpt>
      <trkpt lat="36.65942" lon="28.13679">
        <ele>337.4</ele>
      </trkpt>
      <trkpt lat="36.65942" lon="28.13679">
        <ele>337.4</ele>
      </trkpt>
      <trkpt lat="36.65943" lon="28.13681">
        <ele>337.3</ele>
      </trkpt>
      <trkpt lat="36.65943" lon="28.13681">
        <ele>337.3</ele>
      </trkpt>
      <trkpt lat="36.65949" lon="28.13681">
        <ele>337.4</ele>
      </trkpt>
      <trkpt lat="36.65951" lon="28.13682">
        <ele>337.3</ele>
      </trkpt>
      <trkpt lat="36.65958" lon="28.13686">
        <ele>336.9</ele>
      </trkpt>
      <trkpt lat="36.65965" lon="28.13688">
        <ele>336.8</ele>
      </trkpt>
      <trkpt lat="36.65969" lon="28.13687">
        <ele>337.1</ele>
      </trkpt>
      <trkpt lat="36.65975" lon="28.13685">
        <ele>337.6</ele>
      </trkpt>
      <trkpt lat="36.65972" lon="28.13685">
        <ele>337.4</ele>
      </trkpt>
      <trkpt lat="36.65971" lon="28.13686">
        <ele>337.3</ele>
      </trkpt>
      <trkpt lat="36.65973" lon="28.13685">
        <ele>337.5</ele>
      </trkpt>
      <trkpt lat="36.65976" lon="28.13686">
        <ele>337.5</ele>
      </trkpt>
      <trkpt lat="36.6598" lon="28.13684">
        <ele>337.7</ele>
      </trkpt>
      <trkpt lat="36.65981" lon="28.13684">
        <ele>337.8</ele>
      </trkpt>
      <trkpt lat="36.65988" lon="28.13684">
        <ele>338</ele>
      </trkpt>
      <trkpt lat="36.65988" lon="28.13684">
        <ele>338</ele>
      </trkpt>
      <trkpt lat="36.65988" lon="28.13683">
        <ele>338.1</ele>
      </trkpt>
      <trkpt lat="36.65987" lon="28.13684">
        <ele>338</ele>
      </trkpt>
      <trkpt lat="36.6599" lon="28.13681">
        <ele>338.3</ele>
      </trkpt>
      <trkpt lat="36.65992" lon="28.1368">
        <ele>338.5</ele>
      </trkpt>
      <trkpt lat="36.65992" lon="28.1368">
        <ele>338.6</ele>
      </trkpt>
      <trkpt lat="36.65994" lon="28.1368">
        <ele>338.6</ele>
      </trkpt>
      <trkpt lat="36.65999" lon="28.13674">
        <ele>339.2</ele>
      </trkpt>
      <trkpt lat="36.66" lon="28.13675">
        <ele>339.2</ele>
      </trkpt>
      <trkpt lat="36.66002" lon="28.13673">
        <ele>339.2</ele>
      </trkpt>
      <trkpt lat="36.66005" lon="28.13672">
        <ele>339.1</ele>
      </trkpt>
      <trkpt lat="36.66006" lon="28.13672">
        <ele>338.9</ele>
      </trkpt>
      <trkpt lat="36.6601" lon="28.13672">
        <ele>338.6</ele>
      </trkpt>
      <trkpt lat="36.66017" lon="28.1367">
        <ele>338</ele>
      </trkpt>
      <trkpt lat="36.66021" lon="28.13669">
        <ele>337.6</ele>
      </trkpt>
      <trkpt lat="36.66022" lon="28.13669">
        <ele>337.5</ele>
      </trkpt>
      <trkpt lat="36.66028" lon="28.13669">
        <ele>337</ele>
      </trkpt>
      <trkpt lat="36.66035" lon="28.13667">
        <ele>336.3</ele>
      </trkpt>
      <trkpt lat="36.66041" lon="28.13664">
        <ele>335.7</ele>
      </trkpt>
      <trkpt lat="36.66046" lon="28.13663">
        <ele>335.1</ele>
      </trkpt>
      <trkpt lat="36.66048" lon="28.13662">
        <ele>334.8</ele>
      </trkpt>
      <trkpt lat="36.66052" lon="28.13662">
        <ele>334.3</ele>
      </trkpt>
      <trkpt lat="36.66069" lon="28.13664">
        <ele>332.5</ele>
      </trkpt>
      <trkpt lat="36.66072" lon="28.13666">
        <ele>332.2</ele>
      </trkpt>
      <trkpt lat="36.66072" lon="28.13665">
        <ele>332.1</ele>
      </trkpt>
      <trkpt lat="36.66074" lon="28.13664">
        <ele>331.8</ele>
      </trkpt>
      <trkpt lat="36.66078" lon="28.13661">
        <ele>331.1</ele>
      </trkpt>
      <trkpt lat="36.66079" lon="28.13662">
        <ele>331.2</ele>
      </trkpt>
      <trkpt lat="36.66079" lon="28.13661">
        <ele>331</ele>
      </trkpt>
      <trkpt lat="36.66083" lon="28.1366">
        <ele>330.4</ele>
      </trkpt>
      <trkpt lat="36.66086" lon="28.13655">
        <ele>329.1</ele>
      </trkpt>
      <trkpt lat="36.66088" lon="28.13654">
        <ele>328.5</ele>
      </trkpt>
      <trkpt lat="36.6609" lon="28.13653">
        <ele>328</ele>
      </trkpt>
      <trkpt lat="36.66093" lon="28.13652">
        <ele>327.1</ele>
      </trkpt>
      <trkpt lat="36.66094" lon="28.13649">
        <ele>326.5</ele>
      </trkpt>
      <trkpt lat="36.66095" lon="28.13646">
        <ele>325.9</ele>
      </trkpt>
      <trkpt lat="36.66096" lon="28.13645">
        <ele>325.6</ele>
      </trkpt>
      <trkpt lat="36.66096" lon="28.13646">
        <ele>325.6</ele>
      </trkpt>
      <trkpt lat="36.66098" lon="28.13645">
        <ele>325.1</ele>
      </trkpt>
      <trkpt lat="36.66098" lon="28.13645">
        <ele>325.1</ele>
      </trkpt>
      <trkpt lat="36.66101" lon="28.13643">
        <ele>324.1</ele>
      </trkpt>
      <trkpt lat="36.66102" lon="28.13642">
        <ele>323.5</ele>
      </trkpt>
      <trkpt lat="36.66103" lon="28.1364">
        <ele>323.1</ele>
      </trkpt>
      <trkpt lat="36.66104" lon="28.13639">
        <ele>322.7</ele>
      </trkpt>
      <trkpt lat="36.66106" lon="28.13637">
        <ele>321.9</ele>
      </trkpt>
      <trkpt lat="36.66107" lon="28.13634">
        <ele>321.3</ele>
      </trkpt>
      <trkpt lat="36.66108" lon="28.13633">
        <ele>320.8</ele>
      </trkpt>
      <trkpt lat="36.66108" lon="28.13633">
        <ele>320.7</ele>
      </trkpt>
      <trkpt lat="36.66111" lon="28.1363">
        <ele>319.5</ele>
      </trkpt>
      <trkpt lat="36.66113" lon="28.1363">
        <ele>319</ele>
      </trkpt>
      <trkpt lat="36.66113" lon="28.1363">
        <ele>319</ele>
      </trkpt>
      <trkpt lat="36.66113" lon="28.13633">
        <ele>319.5</ele>
      </trkpt>
      <trkpt lat="36.66113" lon="28.13634">
        <ele>319.4</ele>
      </trkpt>
      <trkpt lat="36.66117" lon="28.13635">
        <ele>318.5</ele>
      </trkpt>
      <trkpt lat="36.66117" lon="28.1363">
        <ele>317.7</ele>
      </trkpt>
      <trkpt lat="36.66116" lon="28.13632">
        <ele>318.2</ele>
      </trkpt>
      <trkpt lat="36.66117" lon="28.13634">
        <ele>318.5</ele>
      </trkpt>
      <trkpt lat="36.66117" lon="28.13632">
        <ele>318</ele>
      </trkpt>
      <trkpt lat="36.66119" lon="28.13629">
        <ele>317.1</ele>
      </trkpt>
      <trkpt lat="36.6612" lon="28.13629">
        <ele>316.9</ele>
      </trkpt>
      <trkpt lat="36.66125" lon="28.13628">
        <ele>315.1</ele>
      </trkpt>
      <trkpt lat="36.66126" lon="28.13628">
        <ele>315.1</ele>
      </trkpt>
      <trkpt lat="36.66127" lon="28.1363">
        <ele>314.8</ele>
      </trkpt>
      <trkpt lat="36.66129" lon="28.13628">
        <ele>313.9</ele>
      </trkpt>
      <trkpt lat="36.66129" lon="28.13627">
        <ele>313.9</ele>
      </trkpt>
      <trkpt lat="36.6613" lon="28.13624">
        <ele>313.2</ele>
      </trkpt>
      <trkpt lat="36.66134" lon="28.13621">
        <ele>311.6</ele>
      </trkpt>
      <trkpt lat="36.66133" lon="28.13617">
        <ele>311.1</ele>
      </trkpt>
      <trkpt lat="36.66132" lon="28.13616">
        <ele>311.2</ele>
      </trkpt>
      <trkpt lat="36.66131" lon="28.1361">
        <ele>310.7</ele>
      </trkpt>
      <trkpt lat="36.66139" lon="28.13611">
        <ele>308.3</ele>
      </trkpt>
      <trkpt lat="36.66139" lon="28.13612">
        <ele>308.3</ele>
      </trkpt>
      <trkpt lat="36.66139" lon="28.13614">
        <ele>309</ele>
      </trkpt>
      <trkpt lat="36.6614" lon="28.13612">
        <ele>308.1</ele>
      </trkpt>
      <trkpt lat="36.66141" lon="28.13613">
        <ele>308</ele>
      </trkpt>
      <trkpt lat="36.66146" lon="28.13607">
        <ele>305.3</ele>
      </trkpt>
      <trkpt lat="36.66146" lon="28.13605">
        <ele>305</ele>
      </trkpt>
      <trkpt lat="36.66147" lon="28.136">
        <ele>303.8</ele>
      </trkpt>
      <trkpt lat="36.66145" lon="28.13596">
        <ele>303.8</ele>
      </trkpt>
      <trkpt lat="36.66144" lon="28.1359">
        <ele>303.1</ele>
      </trkpt>
      <trkpt lat="36.66144" lon="28.13589">
        <ele>302.8</ele>
      </trkpt>
      <trkpt lat="36.66141" lon="28.13582">
        <ele>302.7</ele>
      </trkpt>
      <trkpt lat="36.66136" lon="28.13572">
        <ele>303.1</ele>
      </trkpt>
      <trkpt lat="36.66134" lon="28.13564">
        <ele>302.8</ele>
      </trkpt>
      <trkpt lat="36.66133" lon="28.13561">
        <ele>302.9</ele>
      </trkpt>
      <trkpt lat="36.66131" lon="28.13557">
        <ele>303.3</ele>
      </trkpt>
      <trkpt lat="36.6613" lon="28.13557">
        <ele>303.3</ele>
      </trkpt>
      <trkpt lat="36.6613" lon="28.13557">
        <ele>303.3</ele>
      </trkpt>
      <trkpt lat="36.66129" lon="28.13556">
        <ele>303.6</ele>
      </trkpt>
      <trkpt lat="36.6613" lon="28.13557">
        <ele>303.3</ele>
      </trkpt>
      <trkpt lat="36.6613" lon="28.13548">
        <ele>302.2</ele>
      </trkpt>
      <trkpt lat="36.6613" lon="28.13547">
        <ele>302.1</ele>
      </trkpt>
      <trkpt lat="36.6613" lon="28.13544">
        <ele>301.7</ele>
      </trkpt>
      <trkpt lat="36.66129" lon="28.13539">
        <ele>301.3</ele>
      </trkpt>
      <trkpt lat="36.66127" lon="28.13534">
        <ele>301.6</ele>
      </trkpt>
      <trkpt lat="36.66129" lon="28.13528">
        <ele>300.2</ele>
      </trkpt>
      <trkpt lat="36.66128" lon="28.13532">
        <ele>301.1</ele>
      </trkpt>
      <trkpt lat="36.66127" lon="28.13532">
        <ele>301.4</ele>
      </trkpt>
      <trkpt lat="36.66127" lon="28.13531">
        <ele>301.2</ele>
      </trkpt>
      <trkpt lat="36.66129" lon="28.13531">
        <ele>300.6</ele>
      </trkpt>
      <trkpt lat="36.66128" lon="28.13528">
        <ele>300.4</ele>
      </trkpt>
      <trkpt lat="36.66128" lon="28.13523">
        <ele>299.7</ele>
      </trkpt>
      <trkpt lat="36.66128" lon="28.13522">
        <ele>299.5</ele>
      </trkpt>
      <trkpt lat="36.66129" lon="28.13519">
        <ele>298.9</ele>
      </trkpt>
      <trkpt lat="36.66131" lon="28.13512">
        <ele>297.3</ele>
      </trkpt>
      <trkpt lat="36.66133" lon="28.13508">
        <ele>296.2</ele>
      </trkpt>
      <trkpt lat="36.66134" lon="28.13505">
        <ele>295.6</ele>
      </trkpt>
      <trkpt lat="36.66132" lon="28.13499">
        <ele>295.6</ele>
      </trkpt>
      <trkpt lat="36.66131" lon="28.13494">
        <ele>294.9</ele>
      </trkpt>
      <trkpt lat="36.66129" lon="28.13486">
        <ele>294.3</ele>
      </trkpt>
      <trkpt lat="36.66129" lon="28.13485">
        <ele>294.2</ele>
      </trkpt>
      <trkpt lat="36.66132" lon="28.13487">
        <ele>293.5</ele>
      </trkpt>
      <trkpt lat="36.66132" lon="28.13487">
        <ele>293.5</ele>
      </trkpt>
      <trkpt lat="36.66133" lon="28.13489">
        <ele>293.3</ele>
      </trkpt>
      <trkpt lat="36.66135" lon="28.13482">
        <ele>291.6</ele>
      </trkpt>
      <trkpt lat="36.66135" lon="28.13477">
        <ele>290.9</ele>
      </trkpt>
      <trkpt lat="36.66136" lon="28.13476">
        <ele>290.5</ele>
      </trkpt>
      <trkpt lat="36.66136" lon="28.13471">
        <ele>289.8</ele>
      </trkpt>
      <trkpt lat="36.66137" lon="28.13464">
        <ele>288.5</ele>
      </trkpt>
      <trkpt lat="36.66138" lon="28.13458">
        <ele>287.4</ele>
      </trkpt>
      <trkpt lat="36.66136" lon="28.13452">
        <ele>286.9</ele>
      </trkpt>
      <trkpt lat="36.66136" lon="28.13446">
        <ele>286</ele>
      </trkpt>
      <trkpt lat="36.66137" lon="28.13443">
        <ele>285.4</ele>
      </trkpt>
      <trkpt lat="36.66132" lon="28.13446">
        <ele>287.1</ele>
      </trkpt>
      <trkpt lat="36.66132" lon="28.13442">
        <ele>286.5</ele>
      </trkpt>
      <trkpt lat="36.66132" lon="28.13437">
        <ele>285.7</ele>
      </trkpt>
      <trkpt lat="36.66129" lon="28.13434">
        <ele>285.8</ele>
      </trkpt>
      <trkpt lat="36.66128" lon="28.13429">
        <ele>285.3</ele>
      </trkpt>
      <trkpt lat="36.66128" lon="28.13425">
        <ele>284.8</ele>
      </trkpt>
      <trkpt lat="36.66128" lon="28.13421">
        <ele>284.2</ele>
      </trkpt>
      <trkpt lat="36.66128" lon="28.13416">
        <ele>283.2</ele>
      </trkpt>
      <trkpt lat="36.66128" lon="28.13411">
        <ele>282.1</ele>
      </trkpt>
      <trkpt lat="36.66128" lon="28.13407">
        <ele>281.2</ele>
      </trkpt>
      <trkpt lat="36.66128" lon="28.13403">
        <ele>280.3</ele>
      </trkpt>
      <trkpt lat="36.66128" lon="28.13398">
        <ele>279.2</ele>
      </trkpt>
      <trkpt lat="36.66129" lon="28.13394">
        <ele>278.4</ele>
      </trkpt>
      <trkpt lat="36.66129" lon="28.13389">
        <ele>277.3</ele>
      </trkpt>
      <trkpt lat="36.66129" lon="28.13386">
        <ele>276.6</ele>
      </trkpt>
      <trkpt lat="36.66129" lon="28.13379">
        <ele>275.3</ele>
      </trkpt>
      <trkpt lat="36.66129" lon="28.13375">
        <ele>274.3</ele>
      </trkpt>
      <trkpt lat="36.66129" lon="28.1337">
        <ele>273.2</ele>
      </trkpt>
      <trkpt lat="36.66129" lon="28.13364">
        <ele>272</ele>
      </trkpt>
      <trkpt lat="36.66129" lon="28.13359">
        <ele>270.8</ele>
      </trkpt>
      <trkpt lat="36.66128" lon="28.13356">
        <ele>270.2</ele>
      </trkpt>
      <trkpt lat="36.66126" lon="28.1335">
        <ele>269.2</ele>
      </trkpt>
      <trkpt lat="36.66124" lon="28.13346">
        <ele>268.3</ele>
      </trkpt>
      <trkpt lat="36.66123" lon="28.13342">
        <ele>267.4</ele>
      </trkpt>
      <trkpt lat="36.66123" lon="28.13336">
        <ele>266.2</ele>
      </trkpt>
      <trkpt lat="36.66124" lon="28.13332">
        <ele>265.3</ele>
      </trkpt>
      <trkpt lat="36.66126" lon="28.13327">
        <ele>264.6</ele>
      </trkpt>
      <trkpt lat="36.66127" lon="28.13324">
        <ele>264.1</ele>
      </trkpt>
      <trkpt lat="36.66128" lon="28.1332">
        <ele>263.5</ele>
      </trkpt>
      <trkpt lat="36.66129" lon="28.13315">
        <ele>262.8</ele>
      </trkpt>
      <trkpt lat="36.6613" lon="28.13311">
        <ele>262.2</ele>
      </trkpt>
      <trkpt lat="36.6613" lon="28.13305">
        <ele>261.4</ele>
      </trkpt>
      <trkpt lat="36.6613" lon="28.13301">
        <ele>260.8</ele>
      </trkpt>
      <trkpt lat="36.66132" lon="28.13296">
        <ele>260.2</ele>
      </trkpt>
      <trkpt lat="36.66132" lon="28.13292">
        <ele>259.6</ele>
      </trkpt>
      <trkpt lat="36.66132" lon="28.13286">
        <ele>258.9</ele>
      </trkpt>
      <trkpt lat="36.66134" lon="28.13282">
        <ele>258.3</ele>
      </trkpt>
      <trkpt lat="36.66134" lon="28.13276">
        <ele>257.6</ele>
      </trkpt>
      <trkpt lat="36.66134" lon="28.1327">
        <ele>256.7</ele>
      </trkpt>
      <trkpt lat="36.66136" lon="28.13265">
        <ele>256.1</ele>
      </trkpt>
      <trkpt lat="36.66137" lon="28.13261">
        <ele>255.6</ele>
      </trkpt>
      <trkpt lat="36.66139" lon="28.13257">
        <ele>255.2</ele>
      </trkpt>
      <trkpt lat="36.6614" lon="28.13253">
        <ele>254.8</ele>
      </trkpt>
      <trkpt lat="36.66143" lon="28.1325">
        <ele>254.5</ele>
      </trkpt>
      <trkpt lat="36.66143" lon="28.13243">
        <ele>253.8</ele>
      </trkpt>
      <trkpt lat="36.66145" lon="28.13238">
        <ele>253.5</ele>
      </trkpt>
      <trkpt lat="36.66147" lon="28.13235">
        <ele>253.3</ele>
      </trkpt>
      <trkpt lat="36.66147" lon="28.13229">
        <ele>252.7</ele>
      </trkpt>
      <trkpt lat="36.66147" lon="28.13225">
        <ele>252.2</ele>
      </trkpt>
      <trkpt lat="36.66147" lon="28.13222">
        <ele>251.8</ele>
      </trkpt>
      <trkpt lat="36.66145" lon="28.13216">
        <ele>251.1</ele>
      </trkpt>
      <trkpt lat="36.66143" lon="28.1321">
        <ele>250.4</ele>
      </trkpt>
      <trkpt lat="36.66141" lon="28.13204">
        <ele>249.7</ele>
      </trkpt>
      <trkpt lat="36.6614" lon="28.132">
        <ele>249.2</ele>
      </trkpt>
      <trkpt lat="36.6614" lon="28.13194">
        <ele>248.6</ele>
      </trkpt>
      <trkpt lat="36.6614" lon="28.1319">
        <ele>248.1</ele>
      </trkpt>
      <trkpt lat="36.66141" lon="28.13185">
        <ele>247.7</ele>
      </trkpt>
      <trkpt lat="36.66142" lon="28.13179">
        <ele>247.1</ele>
      </trkpt>
      <trkpt lat="36.66144" lon="28.13175">
        <ele>246.8</ele>
      </trkpt>
      <trkpt lat="36.66144" lon="28.1317">
        <ele>246.3</ele>
      </trkpt>
      <trkpt lat="36.66144" lon="28.13163">
        <ele>245.7</ele>
      </trkpt>
      <trkpt lat="36.66144" lon="28.13158">
        <ele>245.2</ele>
      </trkpt>
      <trkpt lat="36.66144" lon="28.13152">
        <ele>244.8</ele>
      </trkpt>
      <trkpt lat="36.66145" lon="28.13147">
        <ele>244.5</ele>
      </trkpt>
      <trkpt lat="36.66146" lon="28.13143">
        <ele>244.2</ele>
      </trkpt>
      <trkpt lat="36.66148" lon="28.13138">
        <ele>244</ele>
      </trkpt>
      <trkpt lat="36.6615" lon="28.13134">
        <ele>243.7</ele>
      </trkpt>
      <trkpt lat="36.6615" lon="28.1313">
        <ele>243.5</ele>
      </trkpt>
      <trkpt lat="36.66151" lon="28.13126">
        <ele>243.2</ele>
      </trkpt>
      <trkpt lat="36.66153" lon="28.13121">
        <ele>243</ele>
      </trkpt>
      <trkpt lat="36.66155" lon="28.13116">
        <ele>242.7</ele>
      </trkpt>
      <trkpt lat="36.66157" lon="28.13111">
        <ele>242.4</ele>
      </trkpt>
      <trkpt lat="36.66159" lon="28.13108">
        <ele>242.3</ele>
      </trkpt>
      <trkpt lat="36.66161" lon="28.13103">
        <ele>242.1</ele>
      </trkpt>
      <trkpt lat="36.66162" lon="28.13099">
        <ele>241.8</ele>
      </trkpt>
      <trkpt lat="36.66164" lon="28.13094">
        <ele>241.6</ele>
      </trkpt>
      <trkpt lat="36.66166" lon="28.1309">
        <ele>241.4</ele>
      </trkpt>
      <trkpt lat="36.66168" lon="28.13085">
        <ele>241.5</ele>
      </trkpt>
      <trkpt lat="36.66171" lon="28.13082">
        <ele>241.7</ele>
      </trkpt>
      <trkpt lat="36.66174" lon="28.13077">
        <ele>241.7</ele>
      </trkpt>
      <trkpt lat="36.66176" lon="28.13074">
        <ele>241.6</ele>
      </trkpt>
      <trkpt lat="36.66178" lon="28.13069">
        <ele>241.4</ele>
      </trkpt>
      <trkpt lat="36.6618" lon="28.13066">
        <ele>241.5</ele>
      </trkpt>
      <trkpt lat="36.66182" lon="28.13061">
        <ele>241.3</ele>
      </trkpt>
      <trkpt lat="36.66183" lon="28.13056">
        <ele>240.9</ele>
      </trkpt>
      <trkpt lat="36.66185" lon="28.13054">
        <ele>240.9</ele>
      </trkpt>
      <trkpt lat="36.66188" lon="28.1305">
        <ele>241</ele>
      </trkpt>
      <trkpt lat="36.66191" lon="28.13046">
        <ele>241</ele>
      </trkpt>
      <trkpt lat="36.66193" lon="28.13042">
        <ele>240.7</ele>
      </trkpt>
      <trkpt lat="36.66194" lon="28.13038">
        <ele>240.4</ele>
      </trkpt>
      <trkpt lat="36.66196" lon="28.13033">
        <ele>240.1</ele>
      </trkpt>
      <trkpt lat="36.66199" lon="28.13029">
        <ele>240</ele>
      </trkpt>
      <trkpt lat="36.662" lon="28.13024">
        <ele>239.6</ele>
      </trkpt>
      <trkpt lat="36.662" lon="28.13018">
        <ele>238.9</ele>
      </trkpt>
      <trkpt lat="36.66203" lon="28.13015">
        <ele>238.8</ele>
      </trkpt>
      <trkpt lat="36.66206" lon="28.13011">
        <ele>238.7</ele>
      </trkpt>
      <trkpt lat="36.66209" lon="28.13008">
        <ele>238.6</ele>
      </trkpt>
      <trkpt lat="36.6621" lon="28.13003">
        <ele>238.2</ele>
      </trkpt>
      <trkpt lat="36.66212" lon="28.13">
        <ele>238</ele>
      </trkpt>
      <trkpt lat="36.66215" lon="28.12996">
        <ele>238</ele>
      </trkpt>
      <trkpt lat="36.66216" lon="28.12991">
        <ele>237.7</ele>
      </trkpt>
      <trkpt lat="36.66218" lon="28.12986">
        <ele>237.5</ele>
      </trkpt>
      <trkpt lat="36.66219" lon="28.12981">
        <ele>237.2</ele>
      </trkpt>
      <trkpt lat="36.6622" lon="28.12977">
        <ele>236.9</ele>
      </trkpt>
      <trkpt lat="36.66221" lon="28.12972">
        <ele>236.7</ele>
      </trkpt>
      <trkpt lat="36.66223" lon="28.12968">
        <ele>236.5</ele>
      </trkpt>
      <trkpt lat="36.66225" lon="28.12963">
        <ele>236.2</ele>
      </trkpt>
      <trkpt lat="36.66227" lon="28.12958">
        <ele>236</ele>
      </trkpt>
      <trkpt lat="36.66229" lon="28.12954">
        <ele>235.8</ele>
      </trkpt>
      <trkpt lat="36.66231" lon="28.12949">
        <ele>235.5</ele>
      </trkpt>
      <trkpt lat="36.66232" lon="28.12946">
        <ele>235.4</ele>
      </trkpt>
      <trkpt lat="36.66234" lon="28.12941">
        <ele>235.1</ele>
      </trkpt>
      <trkpt lat="36.66236" lon="28.12935">
        <ele>234.7</ele>
      </trkpt>
      <trkpt lat="36.66238" lon="28.12932">
        <ele>234.5</ele>
      </trkpt>
      <trkpt lat="36.6624" lon="28.12927">
        <ele>234.2</ele>
      </trkpt>
      <trkpt lat="36.66243" lon="28.12922">
        <ele>233.9</ele>
      </trkpt>
      <trkpt lat="36.66245" lon="28.12917">
        <ele>233.6</ele>
      </trkpt>
      <trkpt lat="36.66247" lon="28.12914">
        <ele>233.3</ele>
      </trkpt>
      <trkpt lat="36.66249" lon="28.1291">
        <ele>233</ele>
      </trkpt>
      <trkpt lat="36.66252" lon="28.12904">
        <ele>232.4</ele>
      </trkpt>
      <trkpt lat="36.66255" lon="28.12902">
        <ele>232.4</ele>
      </trkpt>
      <trkpt lat="36.66264" lon="28.12894">
        <ele>232.1</ele>
      </trkpt>
      <trkpt lat="36.66262" lon="28.12905">
        <ele>233.4</ele>
      </trkpt>
      <trkpt lat="36.66262" lon="28.12905">
        <ele>233.5</ele>
      </trkpt>
      <trkpt lat="36.6626" lon="28.12907">
        <ele>233.6</ele>
      </trkpt>
      <trkpt lat="36.66261" lon="28.12908">
        <ele>233.9</ele>
      </trkpt>
      <trkpt lat="36.66261" lon="28.12908">
        <ele>233.9</ele>
      </trkpt>
      <trkpt lat="36.66275" lon="28.12911">
        <ele>235.7</ele>
      </trkpt>
      <trkpt lat="36.66284" lon="28.12909">
        <ele>236.4</ele>
      </trkpt>
      <trkpt lat="36.663" lon="28.12907">
        <ele>237.7</ele>
      </trkpt>
      <trkpt lat="36.66312" lon="28.12903">
        <ele>238.3</ele>
      </trkpt>
      <trkpt lat="36.66322" lon="28.12906">
        <ele>239.7</ele>
      </trkpt>
      <trkpt lat="36.66326" lon="28.12908">
        <ele>240.6</ele>
      </trkpt>
      <trkpt lat="36.66341" lon="28.12909">
        <ele>241.3</ele>
      </trkpt>
      <trkpt lat="36.66342" lon="28.12909">
        <ele>241.2</ele>
      </trkpt>
      <trkpt lat="36.66353" lon="28.12907">
        <ele>240.3</ele>
      </trkpt>
      <trkpt lat="36.66358" lon="28.12907">
        <ele>240.1</ele>
      </trkpt>
      <trkpt lat="36.66369" lon="28.12915">
        <ele>240.9</ele>
      </trkpt>
      <trkpt lat="36.66371" lon="28.12917">
        <ele>241.2</ele>
      </trkpt>
      <trkpt lat="36.66383" lon="28.12927">
        <ele>243.3</ele>
      </trkpt>
      <trkpt lat="36.66394" lon="28.12938">
        <ele>245.8</ele>
      </trkpt>
      <trkpt lat="36.66398" lon="28.12942">
        <ele>246.6</ele>
      </trkpt>
      <trkpt lat="36.66403" lon="28.1295">
        <ele>248.4</ele>
      </trkpt>
      <trkpt lat="36.66405" lon="28.12952">
        <ele>248.8</ele>
      </trkpt>
      <trkpt lat="36.66414" lon="28.12962">
        <ele>251</ele>
      </trkpt>
      <trkpt lat="36.6642" lon="28.12973">
        <ele>253.3</ele>
      </trkpt>
      <trkpt lat="36.66426" lon="28.12983">
        <ele>254.9</ele>
      </trkpt>
      <trkpt lat="36.66428" lon="28.12984">
        <ele>254.8</ele>
      </trkpt>
      <trkpt lat="36.66432" lon="28.12986">
        <ele>254.6</ele>
      </trkpt>
      <trkpt lat="36.66437" lon="28.12988">
        <ele>254</ele>
      </trkpt>
      <trkpt lat="36.66451" lon="28.12999">
        <ele>253.8</ele>
      </trkpt>
      <trkpt lat="36.66456" lon="28.13008">
        <ele>254.7</ele>
      </trkpt>
      <trkpt lat="36.66464" lon="28.13029">
        <ele>257.1</ele>
      </trkpt>
      <trkpt lat="36.6647" lon="28.13041">
        <ele>257.8</ele>
      </trkpt>
      <trkpt lat="36.66473" lon="28.13054">
        <ele>259.3</ele>
      </trkpt>
      <trkpt lat="36.66474" lon="28.13055">
        <ele>259.5</ele>
      </trkpt>
      <trkpt lat="36.6648" lon="28.13072">
        <ele>260.1</ele>
      </trkpt>
      <trkpt lat="36.66486" lon="28.13082">
        <ele>260</ele>
      </trkpt>
      <trkpt lat="36.6649" lon="28.13089">
        <ele>260.1</ele>
      </trkpt>
      <trkpt lat="36.66491" lon="28.13091">
        <ele>260.4</ele>
      </trkpt>
      <trkpt lat="36.66494" lon="28.13096">
        <ele>260.8</ele>
      </trkpt>
      <trkpt lat="36.66503" lon="28.13113">
        <ele>263.3</ele>
      </trkpt>
      <trkpt lat="36.66503" lon="28.13114">
        <ele>263.5</ele>
      </trkpt>
      <trkpt lat="36.66507" lon="28.1312">
        <ele>264.8</ele>
      </trkpt>
      <trkpt lat="36.66507" lon="28.1312">
        <ele>264.8</ele>
      </trkpt>
      <trkpt lat="36.66507" lon="28.13121">
        <ele>265</ele>
      </trkpt>
      <trkpt lat="36.6651" lon="28.13128">
        <ele>266.5</ele>
      </trkpt>
      <trkpt lat="36.6652" lon="28.13141">
        <ele>268</ele>
      </trkpt>
      <trkpt lat="36.66522" lon="28.13143">
        <ele>268.2</ele>
      </trkpt>
      <trkpt lat="36.66522" lon="28.13144">
        <ele>268.3</ele>
      </trkpt>
      <trkpt lat="36.66524" lon="28.13145">
        <ele>268.3</ele>
      </trkpt>
      <trkpt lat="36.66524" lon="28.13146">
        <ele>268.4</ele>
      </trkpt>
      <trkpt lat="36.66527" lon="28.13151">
        <ele>269</ele>
      </trkpt>
      <trkpt lat="36.6653" lon="28.13159">
        <ele>270.1</ele>
      </trkpt>
      <trkpt lat="36.66533" lon="28.13164">
        <ele>270.5</ele>
      </trkpt>
      <trkpt lat="36.66538" lon="28.1317">
        <ele>270.8</ele>
      </trkpt>
      <trkpt lat="36.66543" lon="28.13182">
        <ele>272.2</ele>
      </trkpt>
      <trkpt lat="36.66549" lon="28.1319">
        <ele>272.7</ele>
      </trkpt>
      <trkpt lat="36.66552" lon="28.13197">
        <ele>273.4</ele>
      </trkpt>
      <trkpt lat="36.66563" lon="28.13214">
        <ele>274.3</ele>
      </trkpt>
      <trkpt lat="36.66567" lon="28.13219">
        <ele>274.2</ele>
      </trkpt>
      <trkpt lat="36.66569" lon="28.1322">
        <ele>274</ele>
      </trkpt>
      <trkpt lat="36.66577" lon="28.13232">
        <ele>274.1</ele>
      </trkpt>
      <trkpt lat="36.66578" lon="28.13233">
        <ele>274.2</ele>
      </trkpt>
      <trkpt lat="36.66583" lon="28.1324">
        <ele>274</ele>
      </trkpt>
      <trkpt lat="36.66585" lon="28.13242">
        <ele>274.3</ele>
      </trkpt>
      <trkpt lat="36.66585" lon="28.13243">
        <ele>274.5</ele>
      </trkpt>
      <trkpt lat="36.66586" lon="28.13245">
        <ele>274.8</ele>
      </trkpt>
      <trkpt lat="36.66586" lon="28.13246">
        <ele>274.9</ele>
      </trkpt>
      <trkpt lat="36.66587" lon="28.13247">
        <ele>275.1</ele>
      </trkpt>
      <trkpt lat="36.66588" lon="28.13248">
        <ele>275.3</ele>
      </trkpt>
      <trkpt lat="36.66589" lon="28.1325">
        <ele>275.4</ele>
      </trkpt>
      <trkpt lat="36.6659" lon="28.13251">
        <ele>275.9</ele>
      </trkpt>
      <trkpt lat="36.66589" lon="28.1325">
        <ele>275.5</ele>
      </trkpt>
      <trkpt lat="36.66594" lon="28.13266">
        <ele>279.3</ele>
      </trkpt>
      <trkpt lat="36.66595" lon="28.13267">
        <ele>279.6</ele>
      </trkpt>
      <trkpt lat="36.66607" lon="28.13288">
        <ele>283.5</ele>
      </trkpt>
      <trkpt lat="36.66621" lon="28.13307">
        <ele>285.8</ele>
      </trkpt>
      <trkpt lat="36.66631" lon="28.13319">
        <ele>286.7</ele>
      </trkpt>
      <trkpt lat="36.66639" lon="28.13337">
        <ele>288.5</ele>
      </trkpt>
      <trkpt lat="36.66645" lon="28.13348">
        <ele>289.5</ele>
      </trkpt>
      <trkpt lat="36.66652" lon="28.13362">
        <ele>290.3</ele>
      </trkpt>
      <trkpt lat="36.66654" lon="28.13368">
        <ele>290.7</ele>
      </trkpt>
      <trkpt lat="36.66655" lon="28.1337">
        <ele>291.1</ele>
      </trkpt>
      <trkpt lat="36.66655" lon="28.13373">
        <ele>291.4</ele>
      </trkpt>
      <trkpt lat="36.66657" lon="28.13379">
        <ele>292.1</ele>
      </trkpt>
      <trkpt lat="36.66658" lon="28.13381">
        <ele>292.3</ele>
      </trkpt>
      <trkpt lat="36.66658" lon="28.13383">
        <ele>292.6</ele>
      </trkpt>
      <trkpt lat="36.66658" lon="28.13386">
        <ele>293.2</ele>
      </trkpt>
      <trkpt lat="36.66658" lon="28.13394">
        <ele>294.5</ele>
      </trkpt>
      <trkpt lat="36.66658" lon="28.13397">
        <ele>295</ele>
      </trkpt>
      <trkpt lat="36.66658" lon="28.134">
        <ele>295.5</ele>
      </trkpt>
      <trkpt lat="36.66658" lon="28.13402">
        <ele>295.8</ele>
      </trkpt>
      <trkpt lat="36.6666" lon="28.13408">
        <ele>296.5</ele>
      </trkpt>
      <trkpt lat="36.6666" lon="28.13411">
        <ele>296.8</ele>
      </trkpt>
      <trkpt lat="36.66658" lon="28.13415">
        <ele>298</ele>
      </trkpt>
      <trkpt lat="36.66661" lon="28.1342">
        <ele>298.4</ele>
      </trkpt>
      <trkpt lat="36.66661" lon="28.13421">
        <ele>298.3</ele>
      </trkpt>
      <trkpt lat="36.66664" lon="28.13424">
        <ele>298.2</ele>
      </trkpt>
      <trkpt lat="36.66668" lon="28.13432">
        <ele>299.6</ele>
      </trkpt>
      <trkpt lat="36.6667" lon="28.1344">
        <ele>301.7</ele>
      </trkpt>
      <trkpt lat="36.66676" lon="28.13455">
        <ele>306.5</ele>
      </trkpt>
      <trkpt lat="36.66677" lon="28.13456">
        <ele>306.8</ele>
      </trkpt>
      <trkpt lat="36.66681" lon="28.13471">
        <ele>310.5</ele>
      </trkpt>
      <trkpt lat="36.66681" lon="28.13472">
        <ele>310.9</ele>
      </trkpt>
      <trkpt lat="36.66684" lon="28.13479">
        <ele>312.7</ele>
      </trkpt>
      <trkpt lat="36.66687" lon="28.13485">
        <ele>314.4</ele>
      </trkpt>
      <trkpt lat="36.66686" lon="28.13487">
        <ele>314.7</ele>
      </trkpt>
      <trkpt lat="36.6669" lon="28.13502">
        <ele>317.9</ele>
      </trkpt>
      <trkpt lat="36.66695" lon="28.13516">
        <ele>321.9</ele>
      </trkpt>
      <trkpt lat="36.66699" lon="28.13523">
        <ele>324</ele>
      </trkpt>
      <trkpt lat="36.66701" lon="28.13525">
        <ele>324.6</ele>
      </trkpt>
      <trkpt lat="36.66703" lon="28.13532">
        <ele>326.2</ele>
      </trkpt>
      <trkpt lat="36.6671" lon="28.13543">
        <ele>328.5</ele>
      </trkpt>
      <trkpt lat="36.66713" lon="28.13548">
        <ele>329.4</ele>
      </trkpt>
      <trkpt lat="36.66714" lon="28.1355">
        <ele>329.8</ele>
      </trkpt>
      <trkpt lat="36.66717" lon="28.13556">
        <ele>330.7</ele>
      </trkpt>
      <trkpt lat="36.6672" lon="28.13559">
        <ele>331</ele>
      </trkpt>
      <trkpt lat="36.66724" lon="28.13561">
        <ele>331.2</ele>
      </trkpt>
      <trkpt lat="36.66723" lon="28.13561">
        <ele>331.2</ele>
      </trkpt>
      <trkpt lat="36.66728" lon="28.13563">
        <ele>331.3</ele>
      </trkpt>
      <trkpt lat="36.66734" lon="28.13562">
        <ele>331</ele>
      </trkpt>
      <trkpt lat="36.66741" lon="28.13559">
        <ele>330.6</ele>
      </trkpt>
      <trkpt lat="36.66747" lon="28.13565">
        <ele>330.7</ele>
      </trkpt>
      <trkpt lat="36.66755" lon="28.13576">
        <ele>333.1</ele>
      </trkpt>
      <trkpt lat="36.66756" lon="28.13577">
        <ele>333.5</ele>
      </trkpt>
      <trkpt lat="36.66757" lon="28.13581">
        <ele>334.1</ele>
      </trkpt>
      <trkpt lat="36.66762" lon="28.13593">
        <ele>338.4</ele>
      </trkpt>
      <trkpt lat="36.66767" lon="28.13604">
        <ele>341.9</ele>
      </trkpt>
      <trkpt lat="36.66772" lon="28.13616">
        <ele>345.4</ele>
      </trkpt>
      <trkpt lat="36.66777" lon="28.13623">
        <ele>347.7</ele>
      </trkpt>
      <trkpt lat="36.66786" lon="28.13638">
        <ele>351</ele>
      </trkpt>
      <trkpt lat="36.66788" lon="28.13647">
        <ele>352.1</ele>
      </trkpt>
      <trkpt lat="36.66793" lon="28.13656">
        <ele>353.3</ele>
      </trkpt>
      <trkpt lat="36.66796" lon="28.13667">
        <ele>354</ele>
      </trkpt>
      <trkpt lat="36.66797" lon="28.13668">
        <ele>354.3</ele>
      </trkpt>
      <trkpt lat="36.66799" lon="28.1367">
        <ele>354.9</ele>
      </trkpt>
      <trkpt lat="36.66802" lon="28.13672">
        <ele>355.4</ele>
      </trkpt>
      <trkpt lat="36.66806" lon="28.13672">
        <ele>355.8</ele>
      </trkpt>
      <trkpt lat="36.66806" lon="28.13681">
        <ele>357</ele>
      </trkpt>
      <trkpt lat="36.66808" lon="28.13682">
        <ele>357.3</ele>
      </trkpt>
      <trkpt lat="36.66809" lon="28.13682">
        <ele>357.3</ele>
      </trkpt>
      <trkpt lat="36.6681" lon="28.13682">
        <ele>357.5</ele>
      </trkpt>
      <trkpt lat="36.66816" lon="28.13687">
        <ele>358.5</ele>
      </trkpt>
      <trkpt lat="36.6682" lon="28.13692">
        <ele>359.2</ele>
      </trkpt>
      <trkpt lat="36.66821" lon="28.13692">
        <ele>359.3</ele>
      </trkpt>
      <trkpt lat="36.66824" lon="28.13698">
        <ele>360</ele>
      </trkpt>
      <trkpt lat="36.66832" lon="28.13702">
        <ele>360.5</ele>
      </trkpt>
      <trkpt lat="36.66837" lon="28.13704">
        <ele>362</ele>
      </trkpt>
      <trkpt lat="36.66846" lon="28.13709">
        <ele>365.1</ele>
      </trkpt>
      <trkpt lat="36.66848" lon="28.1371">
        <ele>365.8</ele>
      </trkpt>
      <trkpt lat="36.66848" lon="28.1371">
        <ele>365.9</ele>
      </trkpt>
      <trkpt lat="36.6685" lon="28.13711">
        <ele>366.5</ele>
      </trkpt>
      <trkpt lat="36.66855" lon="28.13715">
        <ele>368.4</ele>
      </trkpt>
      <trkpt lat="36.66857" lon="28.13717">
        <ele>369.2</ele>
      </trkpt>
      <trkpt lat="36.66859" lon="28.1372">
        <ele>369.9</ele>
      </trkpt>
      <trkpt lat="36.66864" lon="28.13721">
        <ele>371.3</ele>
      </trkpt>
      <trkpt lat="36.66865" lon="28.13722">
        <ele>371.6</ele>
      </trkpt>
      <trkpt lat="36.66869" lon="28.13726">
        <ele>373.1</ele>
      </trkpt>
      <trkpt lat="36.66875" lon="28.13733">
        <ele>375</ele>
      </trkpt>
      <trkpt lat="36.66881" lon="28.13747">
        <ele>376.7</ele>
      </trkpt>
      <trkpt lat="36.66886" lon="28.13753">
        <ele>378.4</ele>
      </trkpt>
      <trkpt lat="36.6689" lon="28.13759">
        <ele>380.5</ele>
      </trkpt>
      <trkpt lat="36.66891" lon="28.1376">
        <ele>380.9</ele>
      </trkpt>
      <trkpt lat="36.66892" lon="28.13762">
        <ele>381.4</ele>
      </trkpt>
      <trkpt lat="36.66893" lon="28.13763">
        <ele>381.6</ele>
      </trkpt>
      <trkpt lat="36.66893" lon="28.13764">
        <ele>382</ele>
      </trkpt>
      <trkpt lat="36.66894" lon="28.13768">
        <ele>382.8</ele>
      </trkpt>
      <trkpt lat="36.66895" lon="28.13769">
        <ele>383.1</ele>
      </trkpt>
      <trkpt lat="36.66899" lon="28.13777">
        <ele>385.5</ele>
      </trkpt>
      <trkpt lat="36.66903" lon="28.13786">
        <ele>387.8</ele>
      </trkpt>
      <trkpt lat="36.66907" lon="28.13792">
        <ele>389.3</ele>
      </trkpt>
      <trkpt lat="36.66907" lon="28.13793">
        <ele>389.4</ele>
      </trkpt>
      <trkpt lat="36.6691" lon="28.13798">
        <ele>391</ele>
      </trkpt>
      <trkpt lat="36.66912" lon="28.138">
        <ele>391.6</ele>
      </trkpt>
      <trkpt lat="36.66912" lon="28.138">
        <ele>391.7</ele>
      </trkpt>
      <trkpt lat="36.66913" lon="28.13801">
        <ele>392</ele>
      </trkpt>
      <trkpt lat="36.66914" lon="28.13803">
        <ele>392.5</ele>
      </trkpt>
      <trkpt lat="36.66918" lon="28.13809">
        <ele>394.4</ele>
      </trkpt>
      <trkpt lat="36.66923" lon="28.13814">
        <ele>396.9</ele>
      </trkpt>
      <trkpt lat="36.66923" lon="28.13815">
        <ele>397.2</ele>
      </trkpt>
      <trkpt lat="36.66925" lon="28.1382">
        <ele>398.4</ele>
      </trkpt>
      <trkpt lat="36.66927" lon="28.13831">
        <ele>400.5</ele>
      </trkpt>
      <trkpt lat="36.66931" lon="28.13835">
        <ele>402.4</ele>
      </trkpt>
      <trkpt lat="36.66931" lon="28.13836">
        <ele>402.6</ele>
      </trkpt>
      <trkpt lat="36.66936" lon="28.13845">
        <ele>405.4</ele>
      </trkpt>
      <trkpt lat="36.6694" lon="28.1385">
        <ele>407.2</ele>
      </trkpt>
      <trkpt lat="36.66943" lon="28.13855">
        <ele>408.8</ele>
      </trkpt>
      <trkpt lat="36.66945" lon="28.1386">
        <ele>409.8</ele>
      </trkpt>
      <trkpt lat="36.66945" lon="28.13862">
        <ele>410.2</ele>
      </trkpt>
      <trkpt lat="36.66945" lon="28.13863">
        <ele>410.2</ele>
      </trkpt>
      <trkpt lat="36.66945" lon="28.13865">
        <ele>410.4</ele>
      </trkpt>
      <trkpt lat="36.66946" lon="28.13873">
        <ele>411.5</ele>
      </trkpt>
      <trkpt lat="36.66947" lon="28.13874">
        <ele>411.8</ele>
      </trkpt>
      <trkpt lat="36.66948" lon="28.13877">
        <ele>412.4</ele>
      </trkpt>
      <trkpt lat="36.66949" lon="28.1388">
        <ele>412.8</ele>
      </trkpt>
      <trkpt lat="36.6695" lon="28.13886">
        <ele>413.8</ele>
      </trkpt>
      <trkpt lat="36.66952" lon="28.13887">
        <ele>414.4</ele>
      </trkpt>
      <trkpt lat="36.66954" lon="28.1389">
        <ele>415.3</ele>
      </trkpt>
      <trkpt lat="36.66954" lon="28.13893">
        <ele>415.5</ele>
      </trkpt>
      <trkpt lat="36.66958" lon="28.13906">
        <ele>417.6</ele>
      </trkpt>
      <trkpt lat="36.66959" lon="28.13908">
        <ele>418.1</ele>
      </trkpt>
      <trkpt lat="36.6696" lon="28.13909">
        <ele>418.3</ele>
      </trkpt>
      <trkpt lat="36.6696" lon="28.13909">
        <ele>418.3</ele>
      </trkpt>
      <trkpt lat="36.66959" lon="28.13908">
        <ele>418.1</ele>
      </trkpt>
      <trkpt lat="36.66959" lon="28.13909">
        <ele>418.1</ele>
      </trkpt>
      <trkpt lat="36.6696" lon="28.13914">
        <ele>418.6</ele>
      </trkpt>
      <trkpt lat="36.6696" lon="28.13916">
        <ele>418.9</ele>
      </trkpt>
      <trkpt lat="36.66961" lon="28.13917">
        <ele>419.1</ele>
      </trkpt>
      <trkpt lat="36.66962" lon="28.13918">
        <ele>419.4</ele>
      </trkpt>
      <trkpt lat="36.66967" lon="28.13928">
        <ele>420</ele>
      </trkpt>
      <trkpt lat="36.66969" lon="28.13934">
        <ele>420.2</ele>
      </trkpt>
      <trkpt lat="36.66972" lon="28.13943">
        <ele>420.3</ele>
      </trkpt>
      <trkpt lat="36.66973" lon="28.13947">
        <ele>420.4</ele>
      </trkpt>
      <trkpt lat="36.66976" lon="28.13954">
        <ele>420.6</ele>
      </trkpt>
      <trkpt lat="36.6698" lon="28.13965">
        <ele>420.8</ele>
      </trkpt>
      <trkpt lat="36.6698" lon="28.13968">
        <ele>420.7</ele>
      </trkpt>
      <trkpt lat="36.66981" lon="28.13969">
        <ele>420.8</ele>
      </trkpt>
      <trkpt lat="36.66987" lon="28.1398">
        <ele>421.4</ele>
      </trkpt>
      <trkpt lat="36.66987" lon="28.13981">
        <ele>421.3</ele>
      </trkpt>
      <trkpt lat="36.66987" lon="28.13984">
        <ele>421.2</ele>
      </trkpt>
      <trkpt lat="36.6699" lon="28.13996">
        <ele>421.2</ele>
      </trkpt>
      <trkpt lat="36.66992" lon="28.14">
        <ele>421.3</ele>
      </trkpt>
      <trkpt lat="36.66995" lon="28.14001">
        <ele>421.8</ele>
      </trkpt>
      <trkpt lat="36.67003" lon="28.14004">
        <ele>423.1</ele>
      </trkpt>
      <trkpt lat="36.67008" lon="28.14006">
        <ele>424.2</ele>
      </trkpt>
      <trkpt lat="36.67013" lon="28.14006">
        <ele>425.5</ele>
      </trkpt>
      <trkpt lat="36.67015" lon="28.14006">
        <ele>425.9</ele>
      </trkpt>
      <trkpt lat="36.67015" lon="28.14005">
        <ele>426.1</ele>
      </trkpt>
      <trkpt lat="36.67016" lon="28.14005">
        <ele>426.2</ele>
      </trkpt>
      <trkpt lat="36.67018" lon="28.14008">
        <ele>426.4</ele>
      </trkpt>
      <trkpt lat="36.67026" lon="28.14012">
        <ele>427.8</ele>
      </trkpt>
      <trkpt lat="36.67033" lon="28.1402">
        <ele>428.3</ele>
      </trkpt>
      <trkpt lat="36.67037" lon="28.14024">
        <ele>428.7</ele>
      </trkpt>
      <trkpt lat="36.67046" lon="28.14029">
        <ele>429.9</ele>
      </trkpt>
      <trkpt lat="36.67051" lon="28.14036">
        <ele>429.9</ele>
      </trkpt>
      <trkpt lat="36.67054" lon="28.14037">
        <ele>430.4</ele>
      </trkpt>
      <trkpt lat="36.67062" lon="28.14046">
        <ele>430.5</ele>
      </trkpt>
      <trkpt lat="36.67065" lon="28.14049">
        <ele>430.7</ele>
      </trkpt>
      <trkpt lat="36.67073" lon="28.14054">
        <ele>431.5</ele>
      </trkpt>
      <trkpt lat="36.67076" lon="28.1406">
        <ele>430.9</ele>
      </trkpt>
      <trkpt lat="36.67077" lon="28.14063">
        <ele>430.8</ele>
      </trkpt>
      <trkpt lat="36.67079" lon="28.14068">
        <ele>430.2</ele>
      </trkpt>
      <trkpt lat="36.67087" lon="28.14078">
        <ele>430.7</ele>
      </trkpt>
      <trkpt lat="36.67092" lon="28.14083">
        <ele>432.2</ele>
      </trkpt>
      <trkpt lat="36.671" lon="28.14093">
        <ele>433.7</ele>
      </trkpt>
      <trkpt lat="36.67105" lon="28.14099">
        <ele>434.5</ele>
      </trkpt>
      <trkpt lat="36.67111" lon="28.14109">
        <ele>435.1</ele>
      </trkpt>
      <trkpt lat="36.67114" lon="28.14119">
        <ele>433.8</ele>
      </trkpt>
      <trkpt lat="36.6712" lon="28.14129">
        <ele>434.2</ele>
      </trkpt>
      <trkpt lat="36.67124" lon="28.14137">
        <ele>433.7</ele>
      </trkpt>
      <trkpt lat="36.67128" lon="28.14148">
        <ele>432.8</ele>
      </trkpt>
      <trkpt lat="36.67132" lon="28.14162">
        <ele>431</ele>
      </trkpt>
      <trkpt lat="36.67135" lon="28.14167">
        <ele>430.6</ele>
      </trkpt>
      <trkpt lat="36.67139" lon="28.14176">
        <ele>430.2</ele>
      </trkpt>
      <trkpt lat="36.67142" lon="28.14187">
        <ele>428.4</ele>
      </trkpt>
      <trkpt lat="36.67145" lon="28.14196">
        <ele>427.6</ele>
      </trkpt>
      <trkpt lat="36.67151" lon="28.14208">
        <ele>426.9</ele>
      </trkpt>
      <trkpt lat="36.67153" lon="28.14212">
        <ele>426.9</ele>
      </trkpt>
      <trkpt lat="36.67161" lon="28.14218">
        <ele>428.4</ele>
      </trkpt>
      <trkpt lat="36.6717" lon="28.14229">
        <ele>429.6</ele>
      </trkpt>
      <trkpt lat="36.67171" lon="28.1423">
        <ele>430</ele>
      </trkpt>
      <trkpt lat="36.6718" lon="28.14237">
        <ele>432.8</ele>
      </trkpt>
      <trkpt lat="36.67188" lon="28.14248">
        <ele>434.3</ele>
      </trkpt>
      <trkpt lat="36.67192" lon="28.14252">
        <ele>435.5</ele>
      </trkpt>
      <trkpt lat="36.67194" lon="28.14254">
        <ele>435.7</ele>
      </trkpt>
      <trkpt lat="36.67196" lon="28.14257">
        <ele>436.2</ele>
      </trkpt>
      <trkpt lat="36.67199" lon="28.14264">
        <ele>436.1</ele>
      </trkpt>
      <trkpt lat="36.67201" lon="28.14267">
        <ele>436.4</ele>
      </trkpt>
      <trkpt lat="36.67209" lon="28.14277">
        <ele>437.5</ele>
      </trkpt>
      <trkpt lat="36.67216" lon="28.14285">
        <ele>438.6</ele>
      </trkpt>
      <trkpt lat="36.6722" lon="28.14291">
        <ele>439.1</ele>
      </trkpt>
      <trkpt lat="36.6722" lon="28.14291">
        <ele>439.4</ele>
      </trkpt>
      <trkpt lat="36.67223" lon="28.14293">
        <ele>439.9</ele>
      </trkpt>
      <trkpt lat="36.67229" lon="28.14303">
        <ele>440.1</ele>
      </trkpt>
      <trkpt lat="36.67235" lon="28.14311">
        <ele>440.6</ele>
      </trkpt>
      <trkpt lat="36.6724" lon="28.14319">
        <ele>440.6</ele>
      </trkpt>
      <trkpt lat="36.67243" lon="28.14324">
        <ele>440.8</ele>
      </trkpt>
      <trkpt lat="36.67244" lon="28.14324">
        <ele>441</ele>
      </trkpt>
      <trkpt lat="36.67248" lon="28.14325">
        <ele>442.7</ele>
      </trkpt>
      <trkpt lat="36.67249" lon="28.14326">
        <ele>442.8</ele>
      </trkpt>
      <trkpt lat="36.67249" lon="28.14326">
        <ele>442.9</ele>
      </trkpt>
      <trkpt lat="36.67251" lon="28.14332">
        <ele>442.3</ele>
      </trkpt>
      <trkpt lat="36.67258" lon="28.14342">
        <ele>443.1</ele>
      </trkpt>
      <trkpt lat="36.67262" lon="28.14352">
        <ele>442.9</ele>
      </trkpt>
      <trkpt lat="36.67267" lon="28.14361">
        <ele>443.8</ele>
      </trkpt>
      <trkpt lat="36.67273" lon="28.14374">
        <ele>443.6</ele>
      </trkpt>
      <trkpt lat="36.67276" lon="28.14377">
        <ele>444</ele>
      </trkpt>
      <trkpt lat="36.67278" lon="28.14386">
        <ele>443.1</ele>
      </trkpt>
      <trkpt lat="36.67281" lon="28.14391">
        <ele>443</ele>
      </trkpt>
      <trkpt lat="36.67284" lon="28.14395">
        <ele>443.9</ele>
      </trkpt>
      <trkpt lat="36.67291" lon="28.14399">
        <ele>446.5</ele>
      </trkpt>
      <trkpt lat="36.67296" lon="28.14404">
        <ele>448.3</ele>
      </trkpt>
      <trkpt lat="36.67297" lon="28.14405">
        <ele>448.4</ele>
      </trkpt>
      <trkpt lat="36.67306" lon="28.14411">
        <ele>451.7</ele>
      </trkpt>
      <trkpt lat="36.67309" lon="28.14416">
        <ele>451.7</ele>
      </trkpt>
      <trkpt lat="36.67313" lon="28.14428">
        <ele>449</ele>
      </trkpt>
      <trkpt lat="36.67318" lon="28.14439">
        <ele>448.3</ele>
      </trkpt>
      <trkpt lat="36.67324" lon="28.14454">
        <ele>445.5</ele>
      </trkpt>
      <trkpt lat="36.67332" lon="28.14474">
        <ele>442.4</ele>
      </trkpt>
      <trkpt lat="36.67335" lon="28.14478">
        <ele>441.9</ele>
      </trkpt>
      <trkpt lat="36.67336" lon="28.14476">
        <ele>442.8</ele>
      </trkpt>
      <trkpt lat="36.67337" lon="28.14479">
        <ele>442.6</ele>
      </trkpt>
      <trkpt lat="36.67344" lon="28.14485">
        <ele>442.7</ele>
      </trkpt>
      <trkpt lat="36.67351" lon="28.1449">
        <ele>443.5</ele>
      </trkpt>
      <trkpt lat="36.67356" lon="28.14496">
        <ele>442.9</ele>
      </trkpt>
      <trkpt lat="36.67363" lon="28.14504">
        <ele>442.7</ele>
      </trkpt>
      <trkpt lat="36.67369" lon="28.14507">
        <ele>444</ele>
      </trkpt>
      <trkpt lat="36.67374" lon="28.14517">
        <ele>443</ele>
      </trkpt>
      <trkpt lat="36.67382" lon="28.14522">
        <ele>444.3</ele>
      </trkpt>
      <trkpt lat="36.67388" lon="28.14529">
        <ele>444.3</ele>
      </trkpt>
      <trkpt lat="36.67391" lon="28.14537">
        <ele>443.1</ele>
      </trkpt>
      <trkpt lat="36.67394" lon="28.1454">
        <ele>443.2</ele>
      </trkpt>
      <trkpt lat="36.67398" lon="28.14543">
        <ele>444</ele>
      </trkpt>
      <trkpt lat="36.67402" lon="28.14548">
        <ele>443.7</ele>
      </trkpt>
      <trkpt lat="36.67411" lon="28.14554">
        <ele>445.5</ele>
      </trkpt>
      <trkpt lat="36.67416" lon="28.14561">
        <ele>445.5</ele>
      </trkpt>
      <trkpt lat="36.6742" lon="28.14572">
        <ele>442.4</ele>
      </trkpt>
      <trkpt lat="36.6742" lon="28.14573">
        <ele>441.9</ele>
      </trkpt>
      <trkpt lat="36.67419" lon="28.14577">
        <ele>440.9</ele>
      </trkpt>
      <trkpt lat="36.67413" lon="28.14583">
        <ele>437.8</ele>
      </trkpt>
      <trkpt lat="36.67411" lon="28.14589">
        <ele>435.2</ele>
      </trkpt>
      <trkpt lat="36.67411" lon="28.14589">
        <ele>435.3</ele>
      </trkpt>
      <trkpt lat="36.67412" lon="28.14594">
        <ele>434</ele>
      </trkpt>
      <trkpt lat="36.67415" lon="28.14593">
        <ele>435.4</ele>
      </trkpt>
      <trkpt lat="36.6742" lon="28.14603">
        <ele>433.5</ele>
      </trkpt>
      <trkpt lat="36.67424" lon="28.146">
        <ele>434</ele>
      </trkpt>
      <trkpt lat="36.67429" lon="28.14597">
        <ele>434.4</ele>
      </trkpt>
      <trkpt lat="36.67435" lon="28.14589">
        <ele>436.5</ele>
      </trkpt>
      <trkpt lat="36.67435" lon="28.14588">
        <ele>436.6</ele>
      </trkpt>
      <trkpt lat="36.67435" lon="28.14588">
        <ele>436.7</ele>
      </trkpt>
      <trkpt lat="36.67434" lon="28.14588">
        <ele>436.8</ele>
      </trkpt>
      <trkpt lat="36.67436" lon="28.1459">
        <ele>436.3</ele>
      </trkpt>
      <trkpt lat="36.67444" lon="28.14589">
        <ele>435.9</ele>
      </trkpt>
      <trkpt lat="36.6745" lon="28.14595">
        <ele>433.7</ele>
      </trkpt>
      <trkpt lat="36.67462" lon="28.14596">
        <ele>432.7</ele>
      </trkpt>
      <trkpt lat="36.67473" lon="28.14595">
        <ele>432.5</ele>
      </trkpt>
      <trkpt lat="36.67475" lon="28.14596">
        <ele>432</ele>
      </trkpt>
      <trkpt lat="36.67489" lon="28.14592">
        <ele>432.7</ele>
      </trkpt>
      <trkpt lat="36.67492" lon="28.14591">
        <ele>432.9</ele>
      </trkpt>
      <trkpt lat="36.67492" lon="28.14591">
        <ele>432.9</ele>
      </trkpt>
      <trkpt lat="36.67494" lon="28.14591">
        <ele>432.7</ele>
      </trkpt>
      <trkpt lat="36.67505" lon="28.14592">
        <ele>430.3</ele>
      </trkpt>
      <trkpt lat="36.67505" lon="28.14592">
        <ele>430.5</ele>
      </trkpt>
      <trkpt lat="36.67511" lon="28.14588">
        <ele>429.8</ele>
      </trkpt>
      <trkpt lat="36.67513" lon="28.14587">
        <ele>429.4</ele>
      </trkpt>
      <trkpt lat="36.67517" lon="28.14586">
        <ele>428.4</ele>
      </trkpt>
      <trkpt lat="36.6752" lon="28.14585">
        <ele>427.7</ele>
      </trkpt>
      <trkpt lat="36.67523" lon="28.14582">
        <ele>427.9</ele>
      </trkpt>
      <trkpt lat="36.67524" lon="28.14579">
        <ele>428.3</ele>
      </trkpt>
      <trkpt lat="36.67525" lon="28.14579">
        <ele>428.2</ele>
      </trkpt>
      <trkpt lat="36.67525" lon="28.14579">
        <ele>427.9</ele>
      </trkpt>
      <trkpt lat="36.67524" lon="28.14584">
        <ele>426.8</ele>
      </trkpt>
      <trkpt lat="36.6753" lon="28.14582">
        <ele>425.5</ele>
      </trkpt>
      <trkpt lat="36.67535" lon="28.14575">
        <ele>425.9</ele>
      </trkpt>
      <trkpt lat="36.67536" lon="28.1457">
        <ele>427</ele>
      </trkpt>
      <trkpt lat="36.67539" lon="28.1457">
        <ele>426.2</ele>
      </trkpt>
      <trkpt lat="36.67542" lon="28.14562">
        <ele>427.7</ele>
      </trkpt>
      <trkpt lat="36.67543" lon="28.14559">
        <ele>428.3</ele>
      </trkpt>
      <trkpt lat="36.67548" lon="28.14555">
        <ele>428.1</ele>
      </trkpt>
      <trkpt lat="36.67548" lon="28.14555">
        <ele>428</ele>
      </trkpt>
      <trkpt lat="36.67552" lon="28.14551">
        <ele>427.9</ele>
      </trkpt>
      <trkpt lat="36.67556" lon="28.14552">
        <ele>426.2</ele>
      </trkpt>
      <trkpt lat="36.67561" lon="28.14548">
        <ele>426</ele>
      </trkpt>
      <trkpt lat="36.67565" lon="28.14545">
        <ele>425.8</ele>
      </trkpt>
      <trkpt lat="36.67569" lon="28.1454">
        <ele>426.2</ele>
      </trkpt>
      <trkpt lat="36.67572" lon="28.14538">
        <ele>426</ele>
      </trkpt>
      <trkpt lat="36.67578" lon="28.14537">
        <ele>424.4</ele>
      </trkpt>
      <trkpt lat="36.67586" lon="28.14529">
        <ele>425.2</ele>
      </trkpt>
      <trkpt lat="36.67589" lon="28.1453">
        <ele>425</ele>
      </trkpt>
      <trkpt lat="36.67595" lon="28.14527">
        <ele>426.3</ele>
      </trkpt>
      <trkpt lat="36.67603" lon="28.14526">
        <ele>426.7</ele>
      </trkpt>
      <trkpt lat="36.67608" lon="28.14526">
        <ele>426.8</ele>
      </trkpt>
      <trkpt lat="36.67609" lon="28.14526">
        <ele>426.8</ele>
      </trkpt>
      <trkpt lat="36.67616" lon="28.14524">
        <ele>427.5</ele>
      </trkpt>
      <trkpt lat="36.67618" lon="28.14523">
        <ele>427.9</ele>
      </trkpt>
      <trkpt lat="36.67623" lon="28.14525">
        <ele>427.4</ele>
      </trkpt>
      <trkpt lat="36.67626" lon="28.14523">
        <ele>428.1</ele>
      </trkpt>
      <trkpt lat="36.6763" lon="28.14522">
        <ele>428.4</ele>
      </trkpt>
      <trkpt lat="36.67635" lon="28.14516">
        <ele>430.5</ele>
      </trkpt>
      <trkpt lat="36.67638" lon="28.14512">
        <ele>431.8</ele>
      </trkpt>
      <trkpt lat="36.67638" lon="28.14513">
        <ele>431.4</ele>
      </trkpt>
      <trkpt lat="36.6764" lon="28.1451">
        <ele>432.4</ele>
      </trkpt>
      <trkpt lat="36.67645" lon="28.14505">
        <ele>434.1</ele>
      </trkpt>
      <trkpt lat="36.67647" lon="28.14504">
        <ele>434.5</ele>
      </trkpt>
      <trkpt lat="36.67648" lon="28.14505">
        <ele>434.3</ele>
      </trkpt>
      <trkpt lat="36.67649" lon="28.14504">
        <ele>434.5</ele>
      </trkpt>
      <trkpt lat="36.67655" lon="28.14511">
        <ele>432.3</ele>
      </trkpt>
      <trkpt lat="36.67658" lon="28.14517">
        <ele>430.6</ele>
      </trkpt>
      <trkpt lat="36.67662" lon="28.1452">
        <ele>429.6</ele>
      </trkpt>
      <trkpt lat="36.67667" lon="28.14524">
        <ele>428.5</ele>
      </trkpt>
      <trkpt lat="36.67672" lon="28.1453">
        <ele>428.2</ele>
      </trkpt>
      <trkpt lat="36.67679" lon="28.14545">
        <ele>425.5</ele>
      </trkpt>
      <trkpt lat="36.67679" lon="28.14545">
        <ele>425.5</ele>
      </trkpt>
      <trkpt lat="36.6768" lon="28.14548">
        <ele>424.9</ele>
      </trkpt>
      <trkpt lat="36.6768" lon="28.14549">
        <ele>424.5</ele>
      </trkpt>
      <trkpt lat="36.6768" lon="28.1455">
        <ele>424.4</ele>
      </trkpt>
      <trkpt lat="36.67689" lon="28.1456">
        <ele>423.8</ele>
      </trkpt>
      <trkpt lat="36.67695" lon="28.14574">
        <ele>421.2</ele>
      </trkpt>
      <trkpt lat="36.677" lon="28.14587">
        <ele>419.3</ele>
      </trkpt>
      <trkpt lat="36.67701" lon="28.1459">
        <ele>419.1</ele>
      </trkpt>
      <trkpt lat="36.67702" lon="28.14596">
        <ele>418.2</ele>
      </trkpt>
      <trkpt lat="36.67703" lon="28.14608">
        <ele>416.6</ele>
      </trkpt>
      <trkpt lat="36.6771" lon="28.14616">
        <ele>417.1</ele>
      </trkpt>
      <trkpt lat="36.67715" lon="28.14631">
        <ele>415.6</ele>
      </trkpt>
      <trkpt lat="36.67721" lon="28.14649">
        <ele>413.8</ele>
      </trkpt>
      <trkpt lat="36.67724" lon="28.14663">
        <ele>411.8</ele>
      </trkpt>
      <trkpt lat="36.67726" lon="28.14668">
        <ele>411.2</ele>
      </trkpt>
      <trkpt lat="36.67734" lon="28.14676">
        <ele>411.5</ele>
      </trkpt>
      <trkpt lat="36.67745" lon="28.14688">
        <ele>411.3</ele>
      </trkpt>
      <trkpt lat="36.67748" lon="28.1469">
        <ele>411.6</ele>
      </trkpt>
      <trkpt lat="36.67748" lon="28.1469">
        <ele>411.6</ele>
      </trkpt>
      <trkpt lat="36.6775" lon="28.14689">
        <ele>412.1</ele>
      </trkpt>
      <trkpt lat="36.67757" lon="28.14691">
        <ele>412.5</ele>
      </trkpt>
      <trkpt lat="36.67757" lon="28.14692">
        <ele>412.4</ele>
      </trkpt>
      <trkpt lat="36.67766" lon="28.14688">
        <ele>414.2</ele>
      </trkpt>
      <trkpt lat="36.67769" lon="28.14688">
        <ele>414.7</ele>
      </trkpt>
      <trkpt lat="36.67772" lon="28.14688">
        <ele>415</ele>
      </trkpt>
      <trkpt lat="36.67778" lon="28.14691">
        <ele>414.9</ele>
      </trkpt>
      <trkpt lat="36.67778" lon="28.14692">
        <ele>414.8</ele>
      </trkpt>
      <trkpt lat="36.67778" lon="28.14692">
        <ele>414.8</ele>
      </trkpt>
      <trkpt lat="36.67785" lon="28.14687">
        <ele>416.7</ele>
      </trkpt>
      <trkpt lat="36.6779" lon="28.1469">
        <ele>416.7</ele>
      </trkpt>
      <trkpt lat="36.67795" lon="28.14691">
        <ele>417</ele>
      </trkpt>
      <trkpt lat="36.67802" lon="28.14692">
        <ele>417.5</ele>
      </trkpt>
      <trkpt lat="36.6781" lon="28.14697">
        <ele>416.9</ele>
      </trkpt>
      <trkpt lat="36.67814" lon="28.147">
        <ele>416.7</ele>
      </trkpt>
      <trkpt lat="36.67819" lon="28.14698">
        <ele>417.8</ele>
      </trkpt>
      <trkpt lat="36.67826" lon="28.14698">
        <ele>418.4</ele>
      </trkpt>
      <trkpt lat="36.67829" lon="28.14699">
        <ele>418.5</ele>
      </trkpt>
      <trkpt lat="36.67834" lon="28.14704">
        <ele>417.3</ele>
      </trkpt>
      <trkpt lat="36.67836" lon="28.14706">
        <ele>416.8</ele>
      </trkpt>
      <trkpt lat="36.6784" lon="28.14709">
        <ele>415.7</ele>
      </trkpt>
      <trkpt lat="36.6784" lon="28.1471">
        <ele>415.3</ele>
      </trkpt>
      <trkpt lat="36.67847" lon="28.1471">
        <ele>415.4</ele>
      </trkpt>
      <trkpt lat="36.6785" lon="28.14704">
        <ele>417.2</ele>
      </trkpt>
      <trkpt lat="36.67862" lon="28.14703">
        <ele>417.1</ele>
      </trkpt>
      <trkpt lat="36.6787" lon="28.14701">
        <ele>417.5</ele>
      </trkpt>
      <trkpt lat="36.67877" lon="28.14697">
        <ele>418.5</ele>
      </trkpt>
      <trkpt lat="36.67879" lon="28.14695">
        <ele>419</ele>
      </trkpt>
      <trkpt lat="36.67885" lon="28.14693">
        <ele>419.2</ele>
      </trkpt>
      <trkpt lat="36.67888" lon="28.14694">
        <ele>419</ele>
      </trkpt>
      <trkpt lat="36.67889" lon="28.14693">
        <ele>419.1</ele>
      </trkpt>
      <trkpt lat="36.67902" lon="28.14692">
        <ele>418.9</ele>
      </trkpt>
      <trkpt lat="36.67914" lon="28.14682">
        <ele>420.8</ele>
      </trkpt>
      <trkpt lat="36.67919" lon="28.14683">
        <ele>420.7</ele>
      </trkpt>
      <trkpt lat="36.67923" lon="28.14681">
        <ele>421.2</ele>
      </trkpt>
      <trkpt lat="36.67925" lon="28.14679">
        <ele>421.8</ele>
      </trkpt>
      <trkpt lat="36.67929" lon="28.14671">
        <ele>423.7</ele>
      </trkpt>
      <trkpt lat="36.67934" lon="28.14663">
        <ele>425.4</ele>
      </trkpt>
      <trkpt lat="36.67944" lon="28.14653">
        <ele>427.4</ele>
      </trkpt>
      <trkpt lat="36.67945" lon="28.1465">
        <ele>427.8</ele>
      </trkpt>
      <trkpt lat="36.67951" lon="28.14649">
        <ele>428</ele>
      </trkpt>
      <trkpt lat="36.67954" lon="28.14653">
        <ele>427.7</ele>
      </trkpt>
      <trkpt lat="36.67956" lon="28.14649">
        <ele>428.1</ele>
      </trkpt>
      <trkpt lat="36.67964" lon="28.14646">
        <ele>428.7</ele>
      </trkpt>
      <trkpt lat="36.67965" lon="28.14638">
        <ele>429.7</ele>
      </trkpt>
      <trkpt lat="36.67968" lon="28.1463">
        <ele>430.6</ele>
      </trkpt>
      <trkpt lat="36.67967" lon="28.14623">
        <ele>431.3</ele>
      </trkpt>
      <trkpt lat="36.67969" lon="28.14617">
        <ele>431.9</ele>
      </trkpt>
      <trkpt lat="36.6797" lon="28.14613">
        <ele>432.3</ele>
      </trkpt>
      <trkpt lat="36.67977" lon="28.14617">
        <ele>431.7</ele>
      </trkpt>
      <trkpt lat="36.67981" lon="28.14612">
        <ele>432</ele>
      </trkpt>
      <trkpt lat="36.67985" lon="28.14605">
        <ele>432.5</ele>
      </trkpt>
      <trkpt lat="36.67992" lon="28.14606">
        <ele>432</ele>
      </trkpt>
      <trkpt lat="36.67993" lon="28.14607">
        <ele>431.9</ele>
      </trkpt>
      <trkpt lat="36.68003" lon="28.14605">
        <ele>431.8</ele>
      </trkpt>
      <trkpt lat="36.68005" lon="28.14605">
        <ele>431.8</ele>
      </trkpt>
      <trkpt lat="36.6801" lon="28.14609">
        <ele>431.7</ele>
      </trkpt>
      <trkpt lat="36.68015" lon="28.14609">
        <ele>431.9</ele>
      </trkpt>
      <trkpt lat="36.68024" lon="28.14604">
        <ele>432.5</ele>
      </trkpt>
      <trkpt lat="36.68031" lon="28.14605">
        <ele>432.7</ele>
      </trkpt>
      <trkpt lat="36.68039" lon="28.14612">
        <ele>432.3</ele>
      </trkpt>
      <trkpt lat="36.68046" lon="28.14614">
        <ele>432.4</ele>
      </trkpt>
      <trkpt lat="36.68053" lon="28.14616">
        <ele>432.5</ele>
      </trkpt>
      <trkpt lat="36.68059" lon="28.14619">
        <ele>432.4</ele>
      </trkpt>
      <trkpt lat="36.68062" lon="28.14625">
        <ele>432</ele>
      </trkpt>
      <trkpt lat="36.68072" lon="28.14625">
        <ele>432.2</ele>
      </trkpt>
      <trkpt lat="36.68073" lon="28.14625">
        <ele>432.2</ele>
      </trkpt>
      <trkpt lat="36.68079" lon="28.1463">
        <ele>431.9</ele>
      </trkpt>
      <trkpt lat="36.68081" lon="28.14636">
        <ele>431.5</ele>
      </trkpt>
      <trkpt lat="36.68082" lon="28.14643">
        <ele>430.9</ele>
      </trkpt>
      <trkpt lat="36.68084" lon="28.1465">
        <ele>430.4</ele>
      </trkpt>
      <trkpt lat="36.68088" lon="28.14649">
        <ele>430.4</ele>
      </trkpt>
      <trkpt lat="36.68088" lon="28.14648">
        <ele>430.4</ele>
      </trkpt>
      <trkpt lat="36.68096" lon="28.1465">
        <ele>430</ele>
      </trkpt>
      <trkpt lat="36.68101" lon="28.14648">
        <ele>429.9</ele>
      </trkpt>
      <trkpt lat="36.68107" lon="28.14655">
        <ele>429</ele>
      </trkpt>
      <trkpt lat="36.68108" lon="28.14664">
        <ele>427.8</ele>
      </trkpt>
      <trkpt lat="36.68108" lon="28.14669">
        <ele>427.4</ele>
      </trkpt>
      <trkpt lat="36.68109" lon="28.14673">
        <ele>427.1</ele>
      </trkpt>
      <trkpt lat="36.68109" lon="28.14673">
        <ele>427.1</ele>
      </trkpt>
      <trkpt lat="36.68115" lon="28.14678">
        <ele>426.4</ele>
      </trkpt>
      <trkpt lat="36.68118" lon="28.1468">
        <ele>426.1</ele>
      </trkpt>
      <trkpt lat="36.6813" lon="28.14672">
        <ele>425.9</ele>
      </trkpt>
      <trkpt lat="36.68136" lon="28.14665">
        <ele>426</ele>
      </trkpt>
      <trkpt lat="36.68149" lon="28.14674">
        <ele>424.6</ele>
      </trkpt>
      <trkpt lat="36.6815" lon="28.14675">
        <ele>424.5</ele>
      </trkpt>
      <trkpt lat="36.68155" lon="28.14685">
        <ele>423.4</ele>
      </trkpt>
      <trkpt lat="36.68158" lon="28.14691">
        <ele>422.8</ele>
      </trkpt>
      <trkpt lat="36.68158" lon="28.14705">
        <ele>421.8</ele>
      </trkpt>
      <trkpt lat="36.68153" lon="28.14718">
        <ele>421.3</ele>
      </trkpt>
      <trkpt lat="36.68157" lon="28.14725">
        <ele>420.5</ele>
      </trkpt>
      <trkpt lat="36.68159" lon="28.14727">
        <ele>420.3</ele>
      </trkpt>
      <trkpt lat="36.68165" lon="28.14723">
        <ele>420.1</ele>
      </trkpt>
      <trkpt lat="36.68178" lon="28.14729">
        <ele>420.5</ele>
      </trkpt>
      <trkpt lat="36.68188" lon="28.1473">
        <ele>421.2</ele>
      </trkpt>
      <trkpt lat="36.68196" lon="28.14742">
        <ele>420.5</ele>
      </trkpt>
      <trkpt lat="36.68199" lon="28.14752">
        <ele>420</ele>
      </trkpt>
      <trkpt lat="36.68202" lon="28.14756">
        <ele>420.1</ele>
      </trkpt>
      <trkpt lat="36.68208" lon="28.14759">
        <ele>420.3</ele>
      </trkpt>
      <trkpt lat="36.6821" lon="28.14756">
        <ele>420.4</ele>
      </trkpt>
      <trkpt lat="36.68212" lon="28.14768">
        <ele>420.1</ele>
      </trkpt>
      <trkpt lat="36.68212" lon="28.14771">
        <ele>420</ele>
      </trkpt>
      <trkpt lat="36.6821" lon="28.14775">
        <ele>419.9</ele>
      </trkpt>
      <trkpt lat="36.68214" lon="28.14783">
        <ele>419.5</ele>
      </trkpt>
      <trkpt lat="36.68215" lon="28.1479">
        <ele>419.2</ele>
      </trkpt>
      <trkpt lat="36.68221" lon="28.14792">
        <ele>418.8</ele>
      </trkpt>
      <trkpt lat="36.68223" lon="28.14793">
        <ele>418.5</ele>
      </trkpt>
      <trkpt lat="36.68228" lon="28.14796">
        <ele>418</ele>
      </trkpt>
      <trkpt lat="36.68232" lon="28.14799">
        <ele>417.4</ele>
      </trkpt>
      <trkpt lat="36.68234" lon="28.14804">
        <ele>416.8</ele>
      </trkpt>
      <trkpt lat="36.68242" lon="28.14807">
        <ele>415.6</ele>
      </trkpt>
      <trkpt lat="36.68246" lon="28.14813">
        <ele>414.4</ele>
      </trkpt>
      <trkpt lat="36.6825" lon="28.14818">
        <ele>413.2</ele>
      </trkpt>
      <trkpt lat="36.68254" lon="28.14819">
        <ele>413.7</ele>
      </trkpt>
      <trkpt lat="36.6826" lon="28.14821">
        <ele>414.1</ele>
      </trkpt>
      <trkpt lat="36.68262" lon="28.14826">
        <ele>413.5</ele>
      </trkpt>
      <trkpt lat="36.68263" lon="28.14828">
        <ele>413.3</ele>
      </trkpt>
      <trkpt lat="36.68263" lon="28.14829">
        <ele>413.2</ele>
      </trkpt>
      <trkpt lat="36.68266" lon="28.14832">
        <ele>412.9</ele>
      </trkpt>
      <trkpt lat="36.68271" lon="28.14839">
        <ele>413.3</ele>
      </trkpt>
      <trkpt lat="36.68276" lon="28.14848">
        <ele>413.6</ele>
      </trkpt>
      <trkpt lat="36.68286" lon="28.14857">
        <ele>413.8</ele>
      </trkpt>
      <trkpt lat="36.68293" lon="28.14869">
        <ele>413.1</ele>
      </trkpt>
      <trkpt lat="36.68296" lon="28.14876">
        <ele>412.5</ele>
      </trkpt>
      <trkpt lat="36.68306" lon="28.14898">
        <ele>409.7</ele>
      </trkpt>
      <trkpt lat="36.68307" lon="28.14902">
        <ele>409.1</ele>
      </trkpt>
      <trkpt lat="36.6831" lon="28.14907">
        <ele>408.2</ele>
      </trkpt>
      <trkpt lat="36.68315" lon="28.14915">
        <ele>406.3</ele>
      </trkpt>
      <trkpt lat="36.68318" lon="28.14919">
        <ele>405.5</ele>
      </trkpt>
      <trkpt lat="36.68318" lon="28.14919">
        <ele>405.4</ele>
      </trkpt>
      <trkpt lat="36.68324" lon="28.14925">
        <ele>404.2</ele>
      </trkpt>
      <trkpt lat="36.68324" lon="28.14928">
        <ele>404.1</ele>
      </trkpt>
      <trkpt lat="36.68326" lon="28.14936">
        <ele>403.5</ele>
      </trkpt>
      <trkpt lat="36.68328" lon="28.14942">
        <ele>402.7</ele>
      </trkpt>
      <trkpt lat="36.68333" lon="28.14949">
        <ele>401.5</ele>
      </trkpt>
      <trkpt lat="36.68334" lon="28.14951">
        <ele>401.4</ele>
      </trkpt>
      <trkpt lat="36.68339" lon="28.14961">
        <ele>401.3</ele>
      </trkpt>
      <trkpt lat="36.68342" lon="28.14971">
        <ele>401</ele>
      </trkpt>
      <trkpt lat="36.68342" lon="28.14972">
        <ele>401</ele>
      </trkpt>
      <trkpt lat="36.68339" lon="28.14979">
        <ele>400.4</ele>
      </trkpt>
      <trkpt lat="36.68336" lon="28.14989">
        <ele>399.7</ele>
      </trkpt>
      <trkpt lat="36.68334" lon="28.14994">
        <ele>399.3</ele>
      </trkpt>
      <trkpt lat="36.68331" lon="28.15002">
        <ele>399.3</ele>
      </trkpt>
      <trkpt lat="36.68326" lon="28.1501">
        <ele>399.5</ele>
      </trkpt>
      <trkpt lat="36.68326" lon="28.15014">
        <ele>399.1</ele>
      </trkpt>
      <trkpt lat="36.68326" lon="28.15017">
        <ele>398.7</ele>
      </trkpt>
      <trkpt lat="36.68331" lon="28.15019">
        <ele>397.4</ele>
      </trkpt>
      <trkpt lat="36.68334" lon="28.15023">
        <ele>396.5</ele>
      </trkpt>
      <trkpt lat="36.68334" lon="28.15025">
        <ele>396.3</ele>
      </trkpt>
      <trkpt lat="36.68332" lon="28.15035">
        <ele>395.5</ele>
      </trkpt>
      <trkpt lat="36.68335" lon="28.15044">
        <ele>394.3</ele>
      </trkpt>
      <trkpt lat="36.68339" lon="28.15048">
        <ele>394</ele>
      </trkpt>
      <trkpt lat="36.68342" lon="28.15057">
        <ele>393</ele>
      </trkpt>
      <trkpt lat="36.68347" lon="28.15067">
        <ele>391.9</ele>
      </trkpt>
      <trkpt lat="36.6835" lon="28.15078">
        <ele>390.6</ele>
      </trkpt>
      <trkpt lat="36.68351" lon="28.15084">
        <ele>390</ele>
      </trkpt>
      <trkpt lat="36.68351" lon="28.15084">
        <ele>389.9</ele>
      </trkpt>
      <trkpt lat="36.68358" lon="28.15087">
        <ele>389.5</ele>
      </trkpt>
      <trkpt lat="36.68361" lon="28.15095">
        <ele>388.1</ele>
      </trkpt>
      <trkpt lat="36.68367" lon="28.15104">
        <ele>386.4</ele>
      </trkpt>
      <trkpt lat="36.68372" lon="28.15109">
        <ele>385.5</ele>
      </trkpt>
      <trkpt lat="36.68373" lon="28.15109">
        <ele>385.5</ele>
      </trkpt>
      <trkpt lat="36.68375" lon="28.15114">
        <ele>384.6</ele>
      </trkpt>
      <trkpt lat="36.68375" lon="28.15114">
        <ele>384.4</ele>
      </trkpt>
      <trkpt lat="36.68381" lon="28.15122">
        <ele>382.8</ele>
      </trkpt>
      <trkpt lat="36.68382" lon="28.15126">
        <ele>382.1</ele>
      </trkpt>
      <trkpt lat="36.68382" lon="28.15131">
        <ele>381.1</ele>
      </trkpt>
      <trkpt lat="36.68387" lon="28.15136">
        <ele>380</ele>
      </trkpt>
      <trkpt lat="36.68386" lon="28.1514">
        <ele>379.2</ele>
      </trkpt>
      <trkpt lat="36.6839" lon="28.15145">
        <ele>378.2</ele>
      </trkpt>
      <trkpt lat="36.68396" lon="28.15148">
        <ele>377.1</ele>
      </trkpt>
      <trkpt lat="36.684" lon="28.15157">
        <ele>375.1</ele>
      </trkpt>
      <trkpt lat="36.68403" lon="28.15167">
        <ele>373</ele>
      </trkpt>
      <trkpt lat="36.68406" lon="28.15171">
        <ele>371.9</ele>
      </trkpt>
      <trkpt lat="36.68406" lon="28.15183">
        <ele>369.4</ele>
      </trkpt>
      <trkpt lat="36.6841" lon="28.15189">
        <ele>367.8</ele>
      </trkpt>
      <trkpt lat="36.68411" lon="28.15192">
        <ele>367.3</ele>
      </trkpt>
      <trkpt lat="36.68413" lon="28.15191">
        <ele>367.3</ele>
      </trkpt>
      <trkpt lat="36.68414" lon="28.15187">
        <ele>367.9</ele>
      </trkpt>
      <trkpt lat="36.68414" lon="28.15185">
        <ele>368.5</ele>
      </trkpt>
      <trkpt lat="36.68419" lon="28.15179">
        <ele>368.6</ele>
      </trkpt>
      <trkpt lat="36.68422" lon="28.15175">
        <ele>368.4</ele>
      </trkpt>
      <trkpt lat="36.68427" lon="28.15167">
        <ele>368.7</ele>
      </trkpt>
      <trkpt lat="36.68436" lon="28.15162">
        <ele>366.6</ele>
      </trkpt>
      <trkpt lat="36.68445" lon="28.15159">
        <ele>364.3</ele>
      </trkpt>
      <trkpt lat="36.68445" lon="28.15157">
        <ele>364.6</ele>
      </trkpt>
      <trkpt lat="36.68449" lon="28.15148">
        <ele>364.9</ele>
      </trkpt>
      <trkpt lat="36.68457" lon="28.15144">
        <ele>362.7</ele>
      </trkpt>
      <trkpt lat="36.68464" lon="28.15134">
        <ele>361.9</ele>
      </trkpt>
      <trkpt lat="36.68471" lon="28.15129">
        <ele>360.1</ele>
      </trkpt>
      <trkpt lat="36.68472" lon="28.15127">
        <ele>360</ele>
      </trkpt>
      <trkpt lat="36.68478" lon="28.15128">
        <ele>357.9</ele>
      </trkpt>
      <trkpt lat="36.6848" lon="28.15132">
        <ele>356.3</ele>
      </trkpt>
      <trkpt lat="36.68483" lon="28.15133">
        <ele>355.3</ele>
      </trkpt>
      <trkpt lat="36.68482" lon="28.15131">
        <ele>356</ele>
      </trkpt>
      <trkpt lat="36.68479" lon="28.15128">
        <ele>357.2</ele>
      </trkpt>
      <trkpt lat="36.68482" lon="28.15126">
        <ele>356.6</ele>
      </trkpt>
      <trkpt lat="36.68483" lon="28.15122">
        <ele>357</ele>
      </trkpt>
      <trkpt lat="36.68483" lon="28.1512">
        <ele>356.8</ele>
      </trkpt>
      <trkpt lat="36.6848" lon="28.15112">
        <ele>359.5</ele>
      </trkpt>
      <trkpt lat="36.68479" lon="28.15108">
        <ele>360.5</ele>
      </trkpt>
      <trkpt lat="36.68479" lon="28.15104">
        <ele>361</ele>
      </trkpt>
      <trkpt lat="36.68481" lon="28.15108">
        <ele>359.6</ele>
      </trkpt>
      <trkpt lat="36.68486" lon="28.15104">
        <ele>358.2</ele>
      </trkpt>
      <trkpt lat="36.68486" lon="28.15101">
        <ele>358.6</ele>
      </trkpt>
      <trkpt lat="36.68487" lon="28.15095">
        <ele>359</ele>
      </trkpt>
      <trkpt lat="36.68488" lon="28.15093">
        <ele>358.6</ele>
      </trkpt>
      <trkpt lat="36.68492" lon="28.15091">
        <ele>357.4</ele>
      </trkpt>
      <trkpt lat="36.68496" lon="28.15087">
        <ele>356.1</ele>
      </trkpt>
      <trkpt lat="36.68496" lon="28.15085">
        <ele>356.4</ele>
      </trkpt>
      <trkpt lat="36.68499" lon="28.15082">
        <ele>355.5</ele>
      </trkpt>
      <trkpt lat="36.685" lon="28.15079">
        <ele>355.1</ele>
      </trkpt>
      <trkpt lat="36.68502" lon="28.15075">
        <ele>353.9</ele>
      </trkpt>
      <trkpt lat="36.68502" lon="28.1507">
        <ele>354.3</ele>
      </trkpt>
      <trkpt lat="36.68506" lon="28.15067">
        <ele>351.6</ele>
      </trkpt>
      <trkpt lat="36.68509" lon="28.15064">
        <ele>349.2</ele>
      </trkpt>
      <trkpt lat="36.68512" lon="28.15066">
        <ele>346.5</ele>
      </trkpt>
      <trkpt lat="36.68512" lon="28.15071">
        <ele>345.8</ele>
      </trkpt>
      <trkpt lat="36.68512" lon="28.1508">
        <ele>345.2</ele>
      </trkpt>
      <trkpt lat="36.68514" lon="28.15081">
        <ele>343.7</ele>
      </trkpt>
      <trkpt lat="36.68517" lon="28.15085">
        <ele>340.6</ele>
      </trkpt>
      <trkpt lat="36.68521" lon="28.15082">
        <ele>337.7</ele>
      </trkpt>
      <trkpt lat="36.68527" lon="28.15081">
        <ele>333.3</ele>
      </trkpt>
      <trkpt lat="36.68528" lon="28.15079">
        <ele>332.3</ele>
      </trkpt>
      <trkpt lat="36.68528" lon="28.15078">
        <ele>332</ele>
      </trkpt>
      <trkpt lat="36.68529" lon="28.15068">
        <ele>332.6</ele>
      </trkpt>
      <trkpt lat="36.6853" lon="28.15062">
        <ele>332.1</ele>
      </trkpt>
      <trkpt lat="36.68535" lon="28.15059">
        <ele>329</ele>
      </trkpt>
      <trkpt lat="36.68536" lon="28.15057">
        <ele>328.1</ele>
      </trkpt>
      <trkpt lat="36.68539" lon="28.15052">
        <ele>326.1</ele>
      </trkpt>
      <trkpt lat="36.68543" lon="28.15054">
        <ele>322.7</ele>
      </trkpt>
      <trkpt lat="36.68547" lon="28.15056">
        <ele>319.6</ele>
      </trkpt>
      <trkpt lat="36.68555" lon="28.15055">
        <ele>312.8</ele>
      </trkpt>
      <trkpt lat="36.68559" lon="28.15055">
        <ele>310.3</ele>
      </trkpt>
      <trkpt lat="36.68559" lon="28.15055">
        <ele>309.9</ele>
      </trkpt>
      <trkpt lat="36.68559" lon="28.15054">
        <ele>309.9</ele>
      </trkpt>
      <trkpt lat="36.68561" lon="28.15051">
        <ele>308.9</ele>
      </trkpt>
      <trkpt lat="36.68562" lon="28.1505">
        <ele>308.3</ele>
      </trkpt>
      <trkpt lat="36.6857" lon="28.15044">
        <ele>302.7</ele>
      </trkpt>
      <trkpt lat="36.68572" lon="28.15039">
        <ele>301.9</ele>
      </trkpt>
      <trkpt lat="36.6857" lon="28.15036">
        <ele>303.5</ele>
      </trkpt>
      <trkpt lat="36.68573" lon="28.15032">
        <ele>302</ele>
      </trkpt>
      <trkpt lat="36.68573" lon="28.15032">
        <ele>302</ele>
      </trkpt>
      <trkpt lat="36.68573" lon="28.15032">
        <ele>302</ele>
      </trkpt>
      <trkpt lat="36.68573" lon="28.15032">
        <ele>302</ele>
      </trkpt>
      <trkpt lat="36.68573" lon="28.15033">
        <ele>302.1</ele>
      </trkpt>
      <trkpt lat="36.68577" lon="28.15033">
        <ele>299</ele>
      </trkpt>
      <trkpt lat="36.68578" lon="28.15035">
        <ele>297.9</ele>
      </trkpt>
      <trkpt lat="36.68581" lon="28.15039">
        <ele>294.4</ele>
      </trkpt>
      <trkpt lat="36.68588" lon="28.15045">
        <ele>288.4</ele>
      </trkpt>
      <trkpt lat="36.68588" lon="28.15046">
        <ele>288</ele>
      </trkpt>
      <trkpt lat="36.68585" lon="28.15047">
        <ele>290</ele>
      </trkpt>
      <trkpt lat="36.68584" lon="28.1505">
        <ele>290.8</ele>
      </trkpt>
      <trkpt lat="36.68583" lon="28.15058">
        <ele>290.5</ele>
      </trkpt>
      <trkpt lat="36.68586" lon="28.15059">
        <ele>287.5</ele>
      </trkpt>
      <trkpt lat="36.68593" lon="28.15053">
        <ele>282.9</ele>
      </trkpt>
      <trkpt lat="36.68593" lon="28.15049">
        <ele>283.4</ele>
      </trkpt>
      <trkpt lat="36.68595" lon="28.15044">
        <ele>282.2</ele>
      </trkpt>
      <trkpt lat="36.68607" lon="28.15037">
        <ele>272.8</ele>
      </trkpt>
      <trkpt lat="36.68609" lon="28.15032">
        <ele>272.4</ele>
      </trkpt>
      <trkpt lat="36.68611" lon="28.15023">
        <ele>271.3</ele>
      </trkpt>
      <trkpt lat="36.68613" lon="28.15016">
        <ele>271.1</ele>
      </trkpt>
      <trkpt lat="36.68614" lon="28.15011">
        <ele>271</ele>
      </trkpt>
      <trkpt lat="36.68615" lon="28.15011">
        <ele>270.3</ele>
      </trkpt>
      <trkpt lat="36.68615" lon="28.15011">
        <ele>270</ele>
      </trkpt>
      <trkpt lat="36.68611" lon="28.15007">
        <ele>274.4</ele>
      </trkpt>
      <trkpt lat="36.68612" lon="28.15002">
        <ele>274</ele>
      </trkpt>
      <trkpt lat="36.68612" lon="28.14996">
        <ele>274.8</ele>
      </trkpt>
      <trkpt lat="36.68611" lon="28.14997">
        <ele>275.3</ele>
      </trkpt>
      <trkpt lat="36.68615" lon="28.14997">
        <ele>272.3</ele>
      </trkpt>
      <trkpt lat="36.68613" lon="28.14989">
        <ele>273.9</ele>
      </trkpt>
      <trkpt lat="36.68613" lon="28.14988">
        <ele>273.7</ele>
      </trkpt>
      <trkpt lat="36.68617" lon="28.14984">
        <ele>271</ele>
      </trkpt>
      <trkpt lat="36.68619" lon="28.14978">
        <ele>269.8</ele>
      </trkpt>
      <trkpt lat="36.6862" lon="28.14973">
        <ele>269.2</ele>
      </trkpt>
      <trkpt lat="36.68621" lon="28.14972">
        <ele>268.2</ele>
      </trkpt>
      <trkpt lat="36.68623" lon="28.14965">
        <ele>267</ele>
      </trkpt>
      <trkpt lat="36.68625" lon="28.14957">
        <ele>265.6</ele>
      </trkpt>
      <trkpt lat="36.68627" lon="28.14948">
        <ele>263.9</ele>
      </trkpt>
      <trkpt lat="36.68629" lon="28.14942">
        <ele>262.7</ele>
      </trkpt>
      <trkpt lat="36.68626" lon="28.14933">
        <ele>266.2</ele>
      </trkpt>
      <trkpt lat="36.68629" lon="28.14921">
        <ele>263.4</ele>
      </trkpt>
      <trkpt lat="36.68629" lon="28.14921">
        <ele>264.1</ele>
      </trkpt>
      <trkpt lat="36.68633" lon="28.1492">
        <ele>259.7</ele>
      </trkpt>
      <trkpt lat="36.68635" lon="28.14915">
        <ele>258.5</ele>
      </trkpt>
      <trkpt lat="36.68634" lon="28.14909">
        <ele>260.4</ele>
      </trkpt>
      <trkpt lat="36.68634" lon="28.14904">
        <ele>260.1</ele>
      </trkpt>
      <trkpt lat="36.68633" lon="28.14898">
        <ele>261.8</ele>
      </trkpt>
      <trkpt lat="36.68635" lon="28.14888">
        <ele>261.4</ele>
      </trkpt>
      <trkpt lat="36.68638" lon="28.14881">
        <ele>259.2</ele>
      </trkpt>
      <trkpt lat="36.6864" lon="28.14873">
        <ele>258.8</ele>
      </trkpt>
      <trkpt lat="36.68645" lon="28.14865">
        <ele>254.8</ele>
      </trkpt>
      <trkpt lat="36.68648" lon="28.14863">
        <ele>252.9</ele>
      </trkpt>
      <trkpt lat="36.68653" lon="28.14859">
        <ele>248.6</ele>
      </trkpt>
      <trkpt lat="36.68657" lon="28.14853">
        <ele>246.1</ele>
      </trkpt>
      <trkpt lat="36.68661" lon="28.14855">
        <ele>242.6</ele>
      </trkpt>
      <trkpt lat="36.68661" lon="28.1485">
        <ele>242.8</ele>
      </trkpt>
      <trkpt lat="36.68663" lon="28.14847">
        <ele>241.7</ele>
      </trkpt>
      <trkpt lat="36.68661" lon="28.1484">
        <ele>243.7</ele>
      </trkpt>
      <trkpt lat="36.68661" lon="28.14838">
        <ele>244</ele>
      </trkpt>
      <trkpt lat="36.68662" lon="28.14828">
        <ele>244.8</ele>
      </trkpt>
      <trkpt lat="36.68663" lon="28.14828">
        <ele>244.5</ele>
      </trkpt>
      <trkpt lat="36.68663" lon="28.14828">
        <ele>244.5</ele>
      </trkpt>
      <trkpt lat="36.68663" lon="28.14828">
        <ele>244.5</ele>
      </trkpt>
      <trkpt lat="36.68663" lon="28.14828">
        <ele>244.5</ele>
      </trkpt>
      <trkpt lat="36.68658" lon="28.14817">
        <ele>251.3</ele>
      </trkpt>
      <trkpt lat="36.68662" lon="28.14807">
        <ele>249.6</ele>
      </trkpt>
      <trkpt lat="36.68664" lon="28.1479">
        <ele>251</ele>
      </trkpt>
      <trkpt lat="36.68669" lon="28.14779">
        <ele>250.2</ele>
      </trkpt>
      <trkpt lat="36.68674" lon="28.14768">
        <ele>249.5</ele>
      </trkpt>
      <trkpt lat="36.68677" lon="28.14764">
        <ele>248.6</ele>
      </trkpt>
      <trkpt lat="36.68681" lon="28.14753">
        <ele>249.2</ele>
      </trkpt>
      <trkpt lat="36.68681" lon="28.14752">
        <ele>249.4</ele>
      </trkpt>
      <trkpt lat="36.68691" lon="28.1474">
        <ele>247</ele>
      </trkpt>
      <trkpt lat="36.68697" lon="28.14735">
        <ele>245</ele>
      </trkpt>
      <trkpt lat="36.68702" lon="28.14728">
        <ele>244.5</ele>
      </trkpt>
      <trkpt lat="36.6871" lon="28.14722">
        <ele>241.8</ele>
      </trkpt>
      <trkpt lat="36.68713" lon="28.14714">
        <ele>242</ele>
      </trkpt>
      <trkpt lat="36.68719" lon="28.14711">
        <ele>239.6</ele>
      </trkpt>
      <trkpt lat="36.68721" lon="28.14706">
        <ele>239.7</ele>
      </trkpt>
      <trkpt lat="36.68729" lon="28.14699">
        <ele>237.4</ele>
      </trkpt>
      <trkpt lat="36.68734" lon="28.14692">
        <ele>236.3</ele>
      </trkpt>
      <trkpt lat="36.6874" lon="28.14684">
        <ele>235.2</ele>
      </trkpt>
      <trkpt lat="36.68745" lon="28.14678">
        <ele>233.7</ele>
      </trkpt>
      <trkpt lat="36.68746" lon="28.14676">
        <ele>234.2</ele>
      </trkpt>
      <trkpt lat="36.68748" lon="28.14674">
        <ele>233.3</ele>
      </trkpt>
      <trkpt lat="36.68751" lon="28.14669">
        <ele>233.1</ele>
      </trkpt>
      <trkpt lat="36.68754" lon="28.14662">
        <ele>233.2</ele>
      </trkpt>
      <trkpt lat="36.6876" lon="28.1465">
        <ele>232.1</ele>
      </trkpt>
      <trkpt lat="36.68763" lon="28.14638">
        <ele>232.9</ele>
      </trkpt>
      <trkpt lat="36.68766" lon="28.14622">
        <ele>234.2</ele>
      </trkpt>
      <trkpt lat="36.68769" lon="28.14613">
        <ele>234.1</ele>
      </trkpt>
      <trkpt lat="36.68772" lon="28.14594">
        <ele>235.5</ele>
      </trkpt>
      <trkpt lat="36.68775" lon="28.14579">
        <ele>236</ele>
      </trkpt>
      <trkpt lat="36.68781" lon="28.14565">
        <ele>234.2</ele>
      </trkpt>
      <trkpt lat="36.68783" lon="28.14563">
        <ele>233.5</ele>
      </trkpt>
      <trkpt lat="36.68783" lon="28.14553">
        <ele>234.1</ele>
      </trkpt>
      <trkpt lat="36.68784" lon="28.14552">
        <ele>234</ele>
      </trkpt>
      <trkpt lat="36.68786" lon="28.14539">
        <ele>233.9</ele>
      </trkpt>
      <trkpt lat="36.68791" lon="28.14534">
        <ele>232.4</ele>
      </trkpt>
      <trkpt lat="36.68794" lon="28.14529">
        <ele>231</ele>
      </trkpt>
      <trkpt lat="36.68795" lon="28.14524">
        <ele>231.2</ele>
      </trkpt>
      <trkpt lat="36.68797" lon="28.14519">
        <ele>230.5</ele>
      </trkpt>
      <trkpt lat="36.68806" lon="28.14509">
        <ele>227.6</ele>
      </trkpt>
      <trkpt lat="36.68807" lon="28.14508">
        <ele>226.9</ele>
      </trkpt>
      <trkpt lat="36.6881" lon="28.14505">
        <ele>226.2</ele>
      </trkpt>
      <trkpt lat="36.6881" lon="28.14501">
        <ele>226.2</ele>
      </trkpt>
      <trkpt lat="36.68816" lon="28.14489">
        <ele>225.3</ele>
      </trkpt>
      <trkpt lat="36.68824" lon="28.14472">
        <ele>223.9</ele>
      </trkpt>
      <trkpt lat="36.68829" lon="28.14454">
        <ele>223.1</ele>
      </trkpt>
      <trkpt lat="36.68833" lon="28.14453">
        <ele>221.5</ele>
      </trkpt>
      <trkpt lat="36.68832" lon="28.14453">
        <ele>221.6</ele>
      </trkpt>
      <trkpt lat="36.68838" lon="28.14437">
        <ele>221.2</ele>
      </trkpt>
      <trkpt lat="36.6884" lon="28.14433">
        <ele>220.9</ele>
      </trkpt>
      <trkpt lat="36.68845" lon="28.14421">
        <ele>220.1</ele>
      </trkpt>
      <trkpt lat="36.68846" lon="28.14404">
        <ele>221.5</ele>
      </trkpt>
      <trkpt lat="36.68851" lon="28.14386">
        <ele>221.6</ele>
      </trkpt>
      <trkpt lat="36.68856" lon="28.14366">
        <ele>221.7</ele>
      </trkpt>
      <trkpt lat="36.68863" lon="28.14352">
        <ele>220.4</ele>
      </trkpt>
      <trkpt lat="36.68867" lon="28.14333">
        <ele>220.9</ele>
      </trkpt>
      <trkpt lat="36.68871" lon="28.14317">
        <ele>219.9</ele>
      </trkpt>
      <trkpt lat="36.68877" lon="28.14303">
        <ele>217.7</ele>
      </trkpt>
      <trkpt lat="36.68878" lon="28.14297">
        <ele>217.6</ele>
      </trkpt>
      <trkpt lat="36.68881" lon="28.14281">
        <ele>216.9</ele>
      </trkpt>
      <trkpt lat="36.68884" lon="28.14265">
        <ele>216.2</ele>
      </trkpt>
      <trkpt lat="36.68885" lon="28.14249">
        <ele>216.3</ele>
      </trkpt>
      <trkpt lat="36.68889" lon="28.1424">
        <ele>215.1</ele>
      </trkpt>
      <trkpt lat="36.68891" lon="28.14232">
        <ele>214.9</ele>
      </trkpt>
      <trkpt lat="36.68892" lon="28.14214">
        <ele>216.3</ele>
      </trkpt>
      <trkpt lat="36.68891" lon="28.14205">
        <ele>217.3</ele>
      </trkpt>
      <trkpt lat="36.68894" lon="28.14199">
        <ele>216.6</ele>
      </trkpt>
      <trkpt lat="36.68894" lon="28.14184">
        <ele>217.9</ele>
      </trkpt>
      <trkpt lat="36.68894" lon="28.14178">
        <ele>218.5</ele>
      </trkpt>
      <trkpt lat="36.68894" lon="28.14168">
        <ele>219.1</ele>
      </trkpt>
      <trkpt lat="36.68895" lon="28.1416">
        <ele>219.1</ele>
      </trkpt>
      <trkpt lat="36.68893" lon="28.1415">
        <ele>220.7</ele>
      </trkpt>
      <trkpt lat="36.68895" lon="28.14143">
        <ele>219.7</ele>
      </trkpt>
      <trkpt lat="36.689" lon="28.14126">
        <ele>218.2</ele>
      </trkpt>
      <trkpt lat="36.68902" lon="28.1411">
        <ele>217.8</ele>
      </trkpt>
      <trkpt lat="36.68906" lon="28.14094">
        <ele>216.2</ele>
      </trkpt>
      <trkpt lat="36.68909" lon="28.14081">
        <ele>215.1</ele>
      </trkpt>
      <trkpt lat="36.68916" lon="28.14066">
        <ele>213.7</ele>
      </trkpt>
      <trkpt lat="36.68918" lon="28.14045">
        <ele>215.8</ele>
      </trkpt>
      <trkpt lat="36.68923" lon="28.1403">
        <ele>217</ele>
      </trkpt>
      <trkpt lat="36.68932" lon="28.14015">
        <ele>217.3</ele>
      </trkpt>
      <trkpt lat="36.68937" lon="28.14001">
        <ele>218</ele>
      </trkpt>
      <trkpt lat="36.6894" lon="28.1399">
        <ele>219.9</ele>
      </trkpt>
      <trkpt lat="36.68941" lon="28.13977">
        <ele>222.6</ele>
      </trkpt>
      <trkpt lat="36.68942" lon="28.13976">
        <ele>222.8</ele>
      </trkpt>
      <trkpt lat="36.68945" lon="28.13965">
        <ele>224.6</ele>
      </trkpt>
      <trkpt lat="36.68945" lon="28.13961">
        <ele>225.3</ele>
      </trkpt>
      <trkpt lat="36.68951" lon="28.13955">
        <ele>225.3</ele>
      </trkpt>
      <trkpt lat="36.68954" lon="28.13938">
        <ele>228.3</ele>
      </trkpt>
      <trkpt lat="36.68955" lon="28.13933">
        <ele>229.1</ele>
      </trkpt>
      <trkpt lat="36.68956" lon="28.1393">
        <ele>229.3</ele>
      </trkpt>
      <trkpt lat="36.68964" lon="28.13916">
        <ele>229.7</ele>
      </trkpt>
      <trkpt lat="36.68975" lon="28.13906">
        <ele>228</ele>
      </trkpt>
      <trkpt lat="36.68977" lon="28.13899">
        <ele>228.6</ele>
      </trkpt>
      <trkpt lat="36.68978" lon="28.13899">
        <ele>228.1</ele>
      </trkpt>
      <trkpt lat="36.68984" lon="28.13895">
        <ele>226.8</ele>
      </trkpt>
      <trkpt lat="36.68992" lon="28.13887">
        <ele>224.9</ele>
      </trkpt>
      <trkpt lat="36.68996" lon="28.13885">
        <ele>223.9</ele>
      </trkpt>
      <trkpt lat="36.69001" lon="28.13876">
        <ele>223.5</ele>
      </trkpt>
      <trkpt lat="36.69008" lon="28.13859">
        <ele>226.3</ele>
      </trkpt>
      <trkpt lat="36.69006" lon="28.13847">
        <ele>227.3</ele>
      </trkpt>
      <trkpt lat="36.69008" lon="28.13833">
        <ele>229.1</ele>
      </trkpt>
      <trkpt lat="36.69006" lon="28.13813">
        <ele>231.4</ele>
      </trkpt>
      <trkpt lat="36.69008" lon="28.13802">
        <ele>232.9</ele>
      </trkpt>
      <trkpt lat="36.69008" lon="28.13799">
        <ele>233.2</ele>
      </trkpt>
      <trkpt lat="36.69008" lon="28.13795">
        <ele>233.8</ele>
      </trkpt>
      <trkpt lat="36.69009" lon="28.13788">
        <ele>234.7</ele>
      </trkpt>
      <trkpt lat="36.69008" lon="28.13783">
        <ele>235.3</ele>
      </trkpt>
      <trkpt lat="36.69007" lon="28.13774">
        <ele>236.3</ele>
      </trkpt>
      <trkpt lat="36.6901" lon="28.13764">
        <ele>237.7</ele>
      </trkpt>
      <trkpt lat="36.69013" lon="28.13763">
        <ele>238</ele>
      </trkpt>
      <trkpt lat="36.69016" lon="28.13757">
        <ele>238.7</ele>
      </trkpt>
      <trkpt lat="36.69018" lon="28.13755">
        <ele>239.1</ele>
      </trkpt>
      <trkpt lat="36.69021" lon="28.13746">
        <ele>240.5</ele>
      </trkpt>
      <trkpt lat="36.69024" lon="28.13738">
        <ele>241.9</ele>
      </trkpt>
      <trkpt lat="36.69024" lon="28.13738">
        <ele>241.9</ele>
      </trkpt>
      <trkpt lat="36.69024" lon="28.13745">
        <ele>240.8</ele>
      </trkpt>
      <trkpt lat="36.69029" lon="28.13741">
        <ele>241.4</ele>
      </trkpt>
      <trkpt lat="36.69031" lon="28.13735">
        <ele>242.2</ele>
      </trkpt>
      <trkpt lat="36.69035" lon="28.1373">
        <ele>242.8</ele>
      </trkpt>
      <trkpt lat="36.69039" lon="28.13722">
        <ele>243.6</ele>
      </trkpt>
      <trkpt lat="36.6904" lon="28.13721">
        <ele>243.6</ele>
      </trkpt>
      <trkpt lat="36.69052" lon="28.13719">
        <ele>242.9</ele>
      </trkpt>
      <trkpt lat="36.69066" lon="28.13715">
        <ele>241.9</ele>
      </trkpt>
      <trkpt lat="36.69078" lon="28.13707">
        <ele>240.6</ele>
      </trkpt>
      <trkpt lat="36.69093" lon="28.13705">
        <ele>240.4</ele>
      </trkpt>
      <trkpt lat="36.69096" lon="28.13706">
        <ele>240.5</ele>
      </trkpt>
      <trkpt lat="36.69101" lon="28.13709">
        <ele>240.9</ele>
      </trkpt>
      <trkpt lat="36.69114" lon="28.1371">
        <ele>241.5</ele>
      </trkpt>
      <trkpt lat="36.69116" lon="28.13715">
        <ele>241.6</ele>
      </trkpt>
      <trkpt lat="36.69119" lon="28.1372">
        <ele>241.7</ele>
      </trkpt>
      <trkpt lat="36.69133" lon="28.13721">
        <ele>242.1</ele>
      </trkpt>
      <trkpt lat="36.6914" lon="28.13724">
        <ele>242.2</ele>
      </trkpt>
      <trkpt lat="36.69141" lon="28.13726">
        <ele>242.2</ele>
      </trkpt>
      <trkpt lat="36.6914" lon="28.13725">
        <ele>242.2</ele>
      </trkpt>
      <trkpt lat="36.69138" lon="28.13724">
        <ele>242.1</ele>
      </trkpt>
      <trkpt lat="36.69138" lon="28.13723">
        <ele>242.2</ele>
      </trkpt>
      <trkpt lat="36.69152" lon="28.13733">
        <ele>242.1</ele>
      </trkpt>
      <trkpt lat="36.69152" lon="28.13733">
        <ele>242.1</ele>
      </trkpt>
      <trkpt lat="36.69168" lon="28.13742">
        <ele>241.8</ele>
      </trkpt>
      <trkpt lat="36.69183" lon="28.13748">
        <ele>244</ele>
      </trkpt>
      <trkpt lat="36.69198" lon="28.13757">
        <ele>245.2</ele>
      </trkpt>
      <trkpt lat="36.69215" lon="28.13765">
        <ele>245.9</ele>
      </trkpt>
      <trkpt lat="36.6923" lon="28.13774">
        <ele>246.2</ele>
      </trkpt>
      <trkpt lat="36.69244" lon="28.13785">
        <ele>245.5</ele>
      </trkpt>
      <trkpt lat="36.69254" lon="28.13793">
        <ele>245.3</ele>
      </trkpt>
      <trkpt lat="36.6927" lon="28.13806">
        <ele>246.1</ele>
      </trkpt>
      <trkpt lat="36.69286" lon="28.1382">
        <ele>246.4</ele>
      </trkpt>
      <trkpt lat="36.69302" lon="28.13834">
        <ele>246.6</ele>
      </trkpt>
      <trkpt lat="36.69315" lon="28.13851">
        <ele>245.1</ele>
      </trkpt>
      <trkpt lat="36.69326" lon="28.13868">
        <ele>243.1</ele>
      </trkpt>
      <trkpt lat="36.69327" lon="28.13869">
        <ele>243</ele>
      </trkpt>
      <trkpt lat="36.69328" lon="28.1387">
        <ele>243.1</ele>
      </trkpt>
      <trkpt lat="36.69349" lon="28.13879">
        <ele>247.6</ele>
      </trkpt>
      <trkpt lat="36.69363" lon="28.13888">
        <ele>251.1</ele>
      </trkpt>
      <trkpt lat="36.69372" lon="28.13907">
        <ele>250.9</ele>
      </trkpt>
      <trkpt lat="36.69372" lon="28.13932">
        <ele>245.7</ele>
      </trkpt>
      <trkpt lat="36.69378" lon="28.13957">
        <ele>243.3</ele>
      </trkpt>
      <trkpt lat="36.6939" lon="28.13978">
        <ele>245</ele>
      </trkpt>
      <trkpt lat="36.69404" lon="28.13992">
        <ele>249.2</ele>
      </trkpt>
      <trkpt lat="36.69415" lon="28.14008">
        <ele>251.8</ele>
      </trkpt>
      <trkpt lat="36.69424" lon="28.14028">
        <ele>253.5</ele>
      </trkpt>
      <trkpt lat="36.69435" lon="28.14046">
        <ele>257.6</ele>
      </trkpt>
      <trkpt lat="36.6944" lon="28.14061">
        <ele>259.9</ele>
      </trkpt>
      <trkpt lat="36.6944" lon="28.14061">
        <ele>259.9</ele>
      </trkpt>
      <trkpt lat="36.6944" lon="28.14061">
        <ele>259.9</ele>
      </trkpt>
      <trkpt lat="36.6944" lon="28.14061">
        <ele>259.9</ele>
      </trkpt>
      <trkpt lat="36.6944" lon="28.14061">
        <ele>259.9</ele>
      </trkpt>
      <trkpt lat="36.6944" lon="28.14061">
        <ele>259.9</ele>
      </trkpt>
      <trkpt lat="36.6944" lon="28.14061">
        <ele>259.9</ele>
      </trkpt>
      <trkpt lat="36.6944" lon="28.14061">
        <ele>259.9</ele>
      </trkpt>
      <trkpt lat="36.6944" lon="28.14061">
        <ele>259.9</ele>
      </trkpt>
      <trkpt lat="36.6944" lon="28.14061">
        <ele>259.9</ele>
      </trkpt>
      <trkpt lat="36.6944" lon="28.14061">
        <ele>259.9</ele>
      </trkpt>
      <trkpt lat="36.6944" lon="28.14061">
        <ele>259.9</ele>
      </trkpt>
      <trkpt lat="36.6944" lon="28.14061">
        <ele>259.9</ele>
      </trkpt>
      <trkpt lat="36.6944" lon="28.14061">
        <ele>259.9</ele>
      </trkpt>
      <trkpt lat="36.6944" lon="28.14061">
        <ele>259.9</ele>
      </trkpt>
      <trkpt lat="36.6944" lon="28.14061">
        <ele>259.9</ele>
      </trkpt>
      <trkpt lat="36.69453" lon="28.14109">
        <ele>265.6</ele>
      </trkpt>
      <trkpt lat="36.69453" lon="28.14109">
        <ele>265.6</ele>
      </trkpt>
      <trkpt lat="36.69453" lon="28.14109">
        <ele>265.6</ele>
      </trkpt>
      <trkpt lat="36.69453" lon="28.14109">
        <ele>265.6</ele>
      </trkpt>
      <trkpt lat="36.69453" lon="28.14109">
        <ele>265.6</ele>
      </trkpt>
      <trkpt lat="36.69453" lon="28.14109">
        <ele>265.6</ele>
      </trkpt>
      <trkpt lat="36.69453" lon="28.14109">
        <ele>265.6</ele>
      </trkpt>
      <trkpt lat="36.69453" lon="28.14109">
        <ele>265.6</ele>
      </trkpt>
      <trkpt lat="36.69453" lon="28.14109">
        <ele>265.6</ele>
      </trkpt>
      <trkpt lat="36.69453" lon="28.14109">
        <ele>265.6</ele>
      </trkpt>
      <trkpt lat="36.69453" lon="28.14109">
        <ele>265.6</ele>
      </trkpt>
      <trkpt lat="36.69453" lon="28.14109">
        <ele>265.6</ele>
      </trkpt>
      <trkpt lat="36.69453" lon="28.14109">
        <ele>265.6</ele>
      </trkpt>
      <trkpt lat="36.69453" lon="28.14109">
        <ele>265.6</ele>
      </trkpt>
      <trkpt lat="36.69453" lon="28.14109">
        <ele>265.6</ele>
      </trkpt>
      <trkpt lat="36.69453" lon="28.14109">
        <ele>265.6</ele>
      </trkpt>
      <trkpt lat="36.69453" lon="28.14109">
        <ele>265.6</ele>
      </trkpt>
      <trkpt lat="36.69453" lon="28.14109">
        <ele>265.6</ele>
      </trkpt>
      <trkpt lat="36.69453" lon="28.14109">
        <ele>265.6</ele>
      </trkpt>
      <trkpt lat="36.69453" lon="28.14109">
        <ele>265.6</ele>
      </trkpt>
      <trkpt lat="36.69453" lon="28.14109">
        <ele>265.6</ele>
      </trkpt>
      <trkpt lat="36.69453" lon="28.14109">
        <ele>265.6</ele>
      </trkpt>
      <trkpt lat="36.69453" lon="28.14109">
        <ele>265.6</ele>
      </trkpt>
      <trkpt lat="36.69453" lon="28.14109">
        <ele>265.6</ele>
      </trkpt>
      <trkpt lat="36.69453" lon="28.14109">
        <ele>265.6</ele>
      </trkpt>
      <trkpt lat="36.69453" lon="28.14109">
        <ele>265.6</ele>
      </trkpt>
      <trkpt lat="36.69453" lon="28.14109">
        <ele>265.6</ele>
      </trkpt>
      <trkpt lat="36.69453" lon="28.14109">
        <ele>265.6</ele>
      </trkpt>
      <trkpt lat="36.69453" lon="28.14109">
        <ele>265.6</ele>
      </trkpt>
      <trkpt lat="36.69453" lon="28.14109">
        <ele>265.6</ele>
      </trkpt>
      <trkpt lat="36.69453" lon="28.14109">
        <ele>265.6</ele>
      </trkpt>
      <trkpt lat="36.69453" lon="28.14109">
        <ele>265.6</ele>
      </trkpt>
      <trkpt lat="36.69453" lon="28.14109">
        <ele>265.6</ele>
      </trkpt>
      <trkpt lat="36.69453" lon="28.14109">
        <ele>265.6</ele>
      </trkpt>
      <trkpt lat="36.69453" lon="28.14109">
        <ele>265.6</ele>
      </trkpt>
      <trkpt lat="36.69453" lon="28.14109">
        <ele>265.6</ele>
      </trkpt>
      <trkpt lat="36.69453" lon="28.14109">
        <ele>265.6</ele>
      </trkpt>
      <trkpt lat="36.69453" lon="28.14109">
        <ele>265.6</ele>
      </trkpt>
      <trkpt lat="36.69454" lon="28.14114">
        <ele>266.2</ele>
      </trkpt>
      <trkpt lat="36.69458" lon="28.1416">
        <ele>265.7</ele>
      </trkpt>
      <trkpt lat="36.69457" lon="28.14241">
        <ele>257.9</ele>
      </trkpt>
      <trkpt lat="36.69436" lon="28.14362">
        <ele>249.4</ele>
      </trkpt>
      <trkpt lat="36.69434" lon="28.14391">
        <ele>246.5</ele>
      </trkpt>
      <trkpt lat="36.6944" lon="28.14429">
        <ele>243.5</ele>
      </trkpt>
      <trkpt lat="36.69444" lon="28.14438">
        <ele>242</ele>
      </trkpt>
      <trkpt lat="36.69468" lon="28.14454">
        <ele>245.9</ele>
      </trkpt>
      <trkpt lat="36.69522" lon="28.14473">
        <ele>256.3</ele>
      </trkpt>
      <trkpt lat="36.69534" lon="28.1448">
        <ele>256.2</ele>
      </trkpt>
      <trkpt lat="36.69577" lon="28.14504">
        <ele>255.7</ele>
      </trkpt>
      <trkpt lat="36.69594" lon="28.14515">
        <ele>255.8</ele>
      </trkpt>
      <trkpt lat="36.69601" lon="28.1452">
        <ele>255.8</ele>
      </trkpt>
      <trkpt lat="36.69627" lon="28.14531">
        <ele>258.6</ele>
      </trkpt>
      <trkpt lat="36.69652" lon="28.14532">
        <ele>264.5</ele>
      </trkpt>
      <trkpt lat="36.69687" lon="28.14519">
        <ele>271.7</ele>
      </trkpt>
      <trkpt lat="36.69712" lon="28.14497">
        <ele>276</ele>
      </trkpt>
      <trkpt lat="36.69729" lon="28.14487">
        <ele>279.5</ele>
      </trkpt>
      <trkpt lat="36.69752" lon="28.14484">
        <ele>280.7</ele>
      </trkpt>
      <trkpt lat="36.69786" lon="28.14495">
        <ele>287.2</ele>
      </trkpt>
      <trkpt lat="36.69808" lon="28.14529">
        <ele>289</ele>
      </trkpt>
      <trkpt lat="36.69809" lon="28.14542">
        <ele>288</ele>
      </trkpt>
      <trkpt lat="36.69816" lon="28.14607">
        <ele>285.2</ele>
      </trkpt>
      <trkpt lat="36.69833" lon="28.14641">
        <ele>288.2</ele>
      </trkpt>
      <trkpt lat="36.69835" lon="28.14667">
        <ele>288.6</ele>
      </trkpt>
      <trkpt lat="36.69806" lon="28.1469">
        <ele>292.6</ele>
      </trkpt>
      <trkpt lat="36.69796" lon="28.14695">
        <ele>292.9</ele>
      </trkpt>
      <trkpt lat="36.69711" lon="28.14745">
        <ele>288.7</ele>
      </trkpt>
      <trkpt lat="36.697" lon="28.14756">
        <ele>287.3</ele>
      </trkpt>
      <trkpt lat="36.69683" lon="28.14786">
        <ele>288.6</ele>
      </trkpt>
      <trkpt lat="36.69679" lon="28.14799">
        <ele>290.1</ele>
      </trkpt>
      <trkpt lat="36.6968" lon="28.14812">
        <ele>294</ele>
      </trkpt>
      <trkpt lat="36.69685" lon="28.1486">
        <ele>306</ele>
      </trkpt>
      <trkpt lat="36.69687" lon="28.14881">
        <ele>310.3</ele>
      </trkpt>
      <trkpt lat="36.69688" lon="28.14895">
        <ele>313.2</ele>
      </trkpt>
      <trkpt lat="36.69687" lon="28.14894">
        <ele>312.9</ele>
      </trkpt>
      <trkpt lat="36.69695" lon="28.14966">
        <ele>327.3</ele>
      </trkpt>
      <trkpt lat="36.69691" lon="28.14966">
        <ele>326</ele>
      </trkpt>
      <trkpt lat="36.6969" lon="28.1498">
        <ele>328.1</ele>
      </trkpt>
      <trkpt lat="36.69688" lon="28.14992">
        <ele>329.5</ele>
      </trkpt>
      <trkpt lat="36.6969" lon="28.15005">
        <ele>331.6</ele>
      </trkpt>
      <trkpt lat="36.69692" lon="28.15023">
        <ele>333</ele>
      </trkpt>
      <trkpt lat="36.69691" lon="28.15027">
        <ele>333.2</ele>
      </trkpt>
      <trkpt lat="36.69692" lon="28.15042">
        <ele>334.3</ele>
      </trkpt>
      <trkpt lat="36.6969" lon="28.15055">
        <ele>334.5</ele>
      </trkpt>
      <trkpt lat="36.69692" lon="28.15069">
        <ele>335.8</ele>
      </trkpt>
      <trkpt lat="36.69693" lon="28.15087">
        <ele>336.5</ele>
      </trkpt>
      <trkpt lat="36.69696" lon="28.15102">
        <ele>334.6</ele>
      </trkpt>
      <trkpt lat="36.69695" lon="28.15108">
        <ele>333.4</ele>
      </trkpt>
      <trkpt lat="36.69696" lon="28.1511">
        <ele>333.2</ele>
      </trkpt>
      <trkpt lat="36.69701" lon="28.15127">
        <ele>331.8</ele>
      </trkpt>
      <trkpt lat="36.69704" lon="28.15133">
        <ele>331.7</ele>
      </trkpt>
      <trkpt lat="36.69703" lon="28.15135">
        <ele>331</ele>
      </trkpt>
      <trkpt lat="36.6971" lon="28.15148">
        <ele>331.1</ele>
      </trkpt>
      <trkpt lat="36.69714" lon="28.15162">
        <ele>330.2</ele>
      </trkpt>
      <trkpt lat="36.6972" lon="28.15176">
        <ele>331</ele>
      </trkpt>
      <trkpt lat="36.69724" lon="28.15189">
        <ele>331.9</ele>
      </trkpt>
      <trkpt lat="36.69725" lon="28.15206">
        <ele>331.6</ele>
      </trkpt>
      <trkpt lat="36.69725" lon="28.1522">
        <ele>331.2</ele>
      </trkpt>
      <trkpt lat="36.69722" lon="28.15238">
        <ele>330</ele>
      </trkpt>
      <trkpt lat="36.69721" lon="28.15256">
        <ele>329.6</ele>
      </trkpt>
      <trkpt lat="36.6972" lon="28.15273">
        <ele>330.6</ele>
      </trkpt>
      <trkpt lat="36.69719" lon="28.15285">
        <ele>331.2</ele>
      </trkpt>
      <trkpt lat="36.69718" lon="28.153">
        <ele>332.1</ele>
      </trkpt>
      <trkpt lat="36.69719" lon="28.15312">
        <ele>333.1</ele>
      </trkpt>
      <trkpt lat="36.69719" lon="28.15318">
        <ele>333.5</ele>
      </trkpt>
      <trkpt lat="36.69718" lon="28.15331">
        <ele>334.4</ele>
      </trkpt>
      <trkpt lat="36.69719" lon="28.15341">
        <ele>334.6</ele>
      </trkpt>
      <trkpt lat="36.69719" lon="28.15352">
        <ele>334.5</ele>
      </trkpt>
      <trkpt lat="36.69717" lon="28.15369">
        <ele>334.2</ele>
      </trkpt>
      <trkpt lat="36.69718" lon="28.15378">
        <ele>334.3</ele>
      </trkpt>
      <trkpt lat="36.69719" lon="28.15392">
        <ele>334.3</ele>
      </trkpt>
      <trkpt lat="36.69717" lon="28.15399">
        <ele>334.1</ele>
      </trkpt>
      <trkpt lat="36.69718" lon="28.154">
        <ele>334.2</ele>
      </trkpt>
      <trkpt lat="36.69718" lon="28.15401">
        <ele>334.2</ele>
      </trkpt>
      <trkpt lat="36.6972" lon="28.15408">
        <ele>334.4</ele>
      </trkpt>
      <trkpt lat="36.69723" lon="28.15422">
        <ele>334.3</ele>
      </trkpt>
      <trkpt lat="36.69725" lon="28.15429">
        <ele>334.2</ele>
      </trkpt>
      <trkpt lat="36.69724" lon="28.15445">
        <ele>333</ele>
      </trkpt>
      <trkpt lat="36.69723" lon="28.15455">
        <ele>332.2</ele>
      </trkpt>
      <trkpt lat="36.69717" lon="28.15463">
        <ele>330.9</ele>
      </trkpt>
      <trkpt lat="36.69717" lon="28.15463">
        <ele>330.9</ele>
      </trkpt>
      <trkpt lat="36.69713" lon="28.15465">
        <ele>330.3</ele>
      </trkpt>
      <trkpt lat="36.69712" lon="28.15469">
        <ele>329.9</ele>
      </trkpt>
      <trkpt lat="36.69708" lon="28.15478">
        <ele>329</ele>
      </trkpt>
      <trkpt lat="36.69701" lon="28.15484">
        <ele>327.8</ele>
      </trkpt>
      <trkpt lat="36.69697" lon="28.15487">
        <ele>327.1</ele>
      </trkpt>
      <trkpt lat="36.69691" lon="28.15501">
        <ele>325.4</ele>
      </trkpt>
      <trkpt lat="36.69691" lon="28.15515">
        <ele>322.6</ele>
      </trkpt>
      <trkpt lat="36.69692" lon="28.15528">
        <ele>320.1</ele>
      </trkpt>
      <trkpt lat="36.69699" lon="28.15534">
        <ele>319.4</ele>
      </trkpt>
      <trkpt lat="36.697" lon="28.1554">
        <ele>318.2</ele>
      </trkpt>
      <trkpt lat="36.69699" lon="28.15549">
        <ele>316.3</ele>
      </trkpt>
      <trkpt lat="36.69699" lon="28.15554">
        <ele>315.2</ele>
      </trkpt>
      <trkpt lat="36.69696" lon="28.15565">
        <ele>312.9</ele>
      </trkpt>
      <trkpt lat="36.697" lon="28.15566">
        <ele>312.8</ele>
      </trkpt>
      <trkpt lat="36.69704" lon="28.1557">
        <ele>312.2</ele>
      </trkpt>
      <trkpt lat="36.69702" lon="28.15581">
        <ele>309.7</ele>
      </trkpt>
      <trkpt lat="36.69702" lon="28.15592">
        <ele>307.2</ele>
      </trkpt>
      <trkpt lat="36.69701" lon="28.15604">
        <ele>304.4</ele>
      </trkpt>
      <trkpt lat="36.69694" lon="28.15607">
        <ele>303.5</ele>
      </trkpt>
      <trkpt lat="36.69691" lon="28.15618">
        <ele>300.8</ele>
      </trkpt>
      <trkpt lat="36.69689" lon="28.15626">
        <ele>298.8</ele>
      </trkpt>
      <trkpt lat="36.69679" lon="28.1563">
        <ele>297.4</ele>
      </trkpt>
      <trkpt lat="36.69667" lon="28.1564">
        <ele>294.5</ele>
      </trkpt>
      <trkpt lat="36.69662" lon="28.15649">
        <ele>293.5</ele>
      </trkpt>
      <trkpt lat="36.69661" lon="28.15658">
        <ele>291.3</ele>
      </trkpt>
      <trkpt lat="36.69649" lon="28.15661">
        <ele>293.5</ele>
      </trkpt>
      <trkpt lat="36.69642" lon="28.1567">
        <ele>293.4</ele>
      </trkpt>
      <trkpt lat="36.69635" lon="28.1568">
        <ele>294.6</ele>
      </trkpt>
      <trkpt lat="36.69628" lon="28.15696">
        <ele>295.2</ele>
      </trkpt>
      <trkpt lat="36.6962" lon="28.15706">
        <ele>295.7</ele>
      </trkpt>
      <trkpt lat="36.69621" lon="28.15714">
        <ele>295.2</ele>
      </trkpt>
      <trkpt lat="36.69612" lon="28.15724">
        <ele>295.2</ele>
      </trkpt>
      <trkpt lat="36.69605" lon="28.15735">
        <ele>294.5</ele>
      </trkpt>
      <trkpt lat="36.69604" lon="28.15747">
        <ele>293.3</ele>
      </trkpt>
      <trkpt lat="36.69604" lon="28.15759">
        <ele>293.5</ele>
      </trkpt>
      <trkpt lat="36.6961" lon="28.15772">
        <ele>294.9</ele>
      </trkpt>
      <trkpt lat="36.6961" lon="28.15782">
        <ele>295.7</ele>
      </trkpt>
      <trkpt lat="36.69609" lon="28.15794">
        <ele>296.5</ele>
      </trkpt>
      <trkpt lat="36.696" lon="28.15799">
        <ele>295.2</ele>
      </trkpt>
      <trkpt lat="36.69592" lon="28.1581">
        <ele>293.6</ele>
      </trkpt>
      <trkpt lat="36.69586" lon="28.15815">
        <ele>292.2</ele>
      </trkpt>
      <trkpt lat="36.6958" lon="28.15819">
        <ele>290.4</ele>
      </trkpt>
      <trkpt lat="36.69568" lon="28.15822">
        <ele>287.2</ele>
      </trkpt>
      <trkpt lat="36.69562" lon="28.15834">
        <ele>284.7</ele>
      </trkpt>
      <trkpt lat="36.69554" lon="28.15844">
        <ele>284.4</ele>
      </trkpt>
      <trkpt lat="36.69544" lon="28.15853">
        <ele>282.5</ele>
      </trkpt>
      <trkpt lat="36.69542" lon="28.15864">
        <ele>283.7</ele>
      </trkpt>
      <trkpt lat="36.69539" lon="28.15872">
        <ele>284.2</ele>
      </trkpt>
      <trkpt lat="36.69536" lon="28.15884">
        <ele>284.7</ele>
      </trkpt>
      <trkpt lat="36.69533" lon="28.15894">
        <ele>284.9</ele>
      </trkpt>
      <trkpt lat="36.69535" lon="28.15902">
        <ele>287</ele>
      </trkpt>
      <trkpt lat="36.69531" lon="28.15909">
        <ele>286.1</ele>
      </trkpt>
      <trkpt lat="36.69529" lon="28.15916">
        <ele>286.6</ele>
      </trkpt>
      <trkpt lat="36.6953" lon="28.15925">
        <ele>287.9</ele>
      </trkpt>
      <trkpt lat="36.69528" lon="28.15929">
        <ele>287.8</ele>
      </trkpt>
      <trkpt lat="36.69528" lon="28.15941">
        <ele>289.2</ele>
      </trkpt>
      <trkpt lat="36.69521" lon="28.15952">
        <ele>287.7</ele>
      </trkpt>
      <trkpt lat="36.69517" lon="28.15967">
        <ele>288.1</ele>
      </trkpt>
      <trkpt lat="36.69514" lon="28.15973">
        <ele>287.9</ele>
      </trkpt>
      <trkpt lat="36.69514" lon="28.15974">
        <ele>288</ele>
      </trkpt>
      <trkpt lat="36.69513" lon="28.15986">
        <ele>289.4</ele>
      </trkpt>
      <trkpt lat="36.69513" lon="28.1599">
        <ele>290.1</ele>
      </trkpt>
      <trkpt lat="36.69516" lon="28.16001">
        <ele>292.7</ele>
      </trkpt>
      <trkpt lat="36.6952" lon="28.16">
        <ele>294</ele>
      </trkpt>
      <trkpt lat="36.69521" lon="28.15998">
        <ele>294.2</ele>
      </trkpt>
      <trkpt lat="36.69521" lon="28.16">
        <ele>294.7</ele>
      </trkpt>
      <trkpt lat="36.69521" lon="28.16009">
        <ele>294.3</ele>
      </trkpt>
      <trkpt lat="36.69522" lon="28.16015">
        <ele>294.6</ele>
      </trkpt>
      <trkpt lat="36.69522" lon="28.16018">
        <ele>294.5</ele>
      </trkpt>
      <trkpt lat="36.69519" lon="28.16024">
        <ele>293.5</ele>
      </trkpt>
      <trkpt lat="36.69521" lon="28.16025">
        <ele>294.1</ele>
      </trkpt>
      <trkpt lat="36.69523" lon="28.16036">
        <ele>294.7</ele>
      </trkpt>
      <trkpt lat="36.69518" lon="28.1605">
        <ele>292.8</ele>
      </trkpt>
      <trkpt lat="36.69516" lon="28.1606">
        <ele>292</ele>
      </trkpt>
      <trkpt lat="36.69517" lon="28.16073">
        <ele>292.3</ele>
      </trkpt>
      <trkpt lat="36.69525" lon="28.16087">
        <ele>294</ele>
      </trkpt>
      <trkpt lat="36.69532" lon="28.16097">
        <ele>294.9</ele>
      </trkpt>
      <trkpt lat="36.69538" lon="28.16112">
        <ele>294.4</ele>
      </trkpt>
      <trkpt lat="36.69545" lon="28.16122">
        <ele>294.8</ele>
      </trkpt>
      <trkpt lat="36.69551" lon="28.16134">
        <ele>294.2</ele>
      </trkpt>
      <trkpt lat="36.69559" lon="28.16142">
        <ele>294.1</ele>
      </trkpt>
      <trkpt lat="36.69566" lon="28.16153">
        <ele>293.3</ele>
      </trkpt>
      <trkpt lat="36.69566" lon="28.16155">
        <ele>292.9</ele>
      </trkpt>
      <trkpt lat="36.6957" lon="28.16172">
        <ele>291.2</ele>
      </trkpt>
      <trkpt lat="36.6957" lon="28.16188">
        <ele>291</ele>
      </trkpt>
      <trkpt lat="36.69564" lon="28.16204">
        <ele>290.2</ele>
      </trkpt>
      <trkpt lat="36.69564" lon="28.16218">
        <ele>290</ele>
      </trkpt>
      <trkpt lat="36.69564" lon="28.16229">
        <ele>289.9</ele>
      </trkpt>
      <trkpt lat="36.69564" lon="28.16241">
        <ele>289.7</ele>
      </trkpt>
      <trkpt lat="36.69565" lon="28.16252">
        <ele>289.8</ele>
      </trkpt>
      <trkpt lat="36.69566" lon="28.16265">
        <ele>290.3</ele>
      </trkpt>
      <trkpt lat="36.69566" lon="28.16272">
        <ele>290.5</ele>
      </trkpt>
      <trkpt lat="36.6956" lon="28.1628">
        <ele>290</ele>
      </trkpt>
      <trkpt lat="36.69555" lon="28.16296">
        <ele>289.7</ele>
      </trkpt>
      <trkpt lat="36.69549" lon="28.16304">
        <ele>289</ele>
      </trkpt>
      <trkpt lat="36.6954" lon="28.16312">
        <ele>287.8</ele>
      </trkpt>
      <trkpt lat="36.69535" lon="28.16317">
        <ele>287.1</ele>
      </trkpt>
      <trkpt lat="36.69541" lon="28.16326">
        <ele>288.3</ele>
      </trkpt>
      <trkpt lat="36.69543" lon="28.16338">
        <ele>289.1</ele>
      </trkpt>
      <trkpt lat="36.69543" lon="28.16349">
        <ele>290.1</ele>
      </trkpt>
      <trkpt lat="36.69542" lon="28.16362">
        <ele>291.2</ele>
      </trkpt>
      <trkpt lat="36.69539" lon="28.16368">
        <ele>291.5</ele>
      </trkpt>
      <trkpt lat="36.69534" lon="28.16379">
        <ele>291.7</ele>
      </trkpt>
      <trkpt lat="36.69528" lon="28.1639">
        <ele>291.9</ele>
      </trkpt>
      <trkpt lat="36.6953" lon="28.16391">
        <ele>292.4</ele>
      </trkpt>
      <trkpt lat="36.69531" lon="28.164">
        <ele>293.4</ele>
      </trkpt>
      <trkpt lat="36.69529" lon="28.16404">
        <ele>293.5</ele>
      </trkpt>
      <trkpt lat="36.69528" lon="28.1642">
        <ele>295</ele>
      </trkpt>
      <trkpt lat="36.69529" lon="28.16425">
        <ele>295.5</ele>
      </trkpt>
      <trkpt lat="36.69529" lon="28.16436">
        <ele>296.5</ele>
      </trkpt>
      <trkpt lat="36.69534" lon="28.16442">
        <ele>297.7</ele>
      </trkpt>
      <trkpt lat="36.69535" lon="28.16445">
        <ele>298.3</ele>
      </trkpt>
      <trkpt lat="36.69535" lon="28.16446">
        <ele>298.3</ele>
      </trkpt>
      <trkpt lat="36.69532" lon="28.16455">
        <ele>298.6</ele>
      </trkpt>
      <trkpt lat="36.6953" lon="28.16464">
        <ele>299.1</ele>
      </trkpt>
      <trkpt lat="36.69524" lon="28.16475">
        <ele>298.8</ele>
      </trkpt>
      <trkpt lat="36.69525" lon="28.16486">
        <ele>299.9</ele>
      </trkpt>
      <trkpt lat="36.69525" lon="28.16497">
        <ele>300.7</ele>
      </trkpt>
      <trkpt lat="36.69526" lon="28.16513">
        <ele>302.6</ele>
      </trkpt>
      <trkpt lat="36.69529" lon="28.16524">
        <ele>304.5</ele>
      </trkpt>
      <trkpt lat="36.69532" lon="28.16537">
        <ele>306.5</ele>
      </trkpt>
      <trkpt lat="36.69538" lon="28.16545">
        <ele>308.9</ele>
      </trkpt>
      <trkpt lat="36.69537" lon="28.16563">
        <ele>310.8</ele>
      </trkpt>
      <trkpt lat="36.69539" lon="28.16571">
        <ele>312</ele>
      </trkpt>
      <trkpt lat="36.69538" lon="28.16583">
        <ele>313.1</ele>
      </trkpt>
      <trkpt lat="36.6954" lon="28.16586">
        <ele>314</ele>
      </trkpt>
      <trkpt lat="36.69539" lon="28.16595">
        <ele>315</ele>
      </trkpt>
      <trkpt lat="36.69542" lon="28.16602">
        <ele>316.4</ele>
      </trkpt>
      <trkpt lat="36.69546" lon="28.16612">
        <ele>318.6</ele>
      </trkpt>
      <trkpt lat="36.69548" lon="28.16628">
        <ele>320.9</ele>
      </trkpt>
      <trkpt lat="36.69548" lon="28.16644">
        <ele>322.9</ele>
      </trkpt>
      <trkpt lat="36.69547" lon="28.16658">
        <ele>324.5</ele>
      </trkpt>
      <trkpt lat="36.69548" lon="28.16663">
        <ele>325.3</ele>
      </trkpt>
      <trkpt lat="36.69545" lon="28.16668">
        <ele>325.4</ele>
      </trkpt>
      <trkpt lat="36.69542" lon="28.16678">
        <ele>325.3</ele>
      </trkpt>
      <trkpt lat="36.69551" lon="28.16675">
        <ele>326.3</ele>
      </trkpt>
      <trkpt lat="36.69551" lon="28.16681">
        <ele>326.5</ele>
      </trkpt>
      <trkpt lat="36.69553" lon="28.16685">
        <ele>326.8</ele>
      </trkpt>
      <trkpt lat="36.69561" lon="28.16684">
        <ele>327.8</ele>
      </trkpt>
      <trkpt lat="36.69562" lon="28.16686">
        <ele>328</ele>
      </trkpt>
      <trkpt lat="36.6956" lon="28.16698">
        <ele>328</ele>
      </trkpt>
      <trkpt lat="36.69563" lon="28.16696">
        <ele>328.4</ele>
      </trkpt>
      <trkpt lat="36.69563" lon="28.16697">
        <ele>328.4</ele>
      </trkpt>
      <trkpt lat="36.69564" lon="28.16701">
        <ele>328.6</ele>
      </trkpt>
      <trkpt lat="36.69568" lon="28.16703">
        <ele>329.2</ele>
      </trkpt>
      <trkpt lat="36.69572" lon="28.16709">
        <ele>329.9</ele>
      </trkpt>
      <trkpt lat="36.69571" lon="28.16718">
        <ele>330.1</ele>
      </trkpt>
      <trkpt lat="36.69578" lon="28.16719">
        <ele>331.1</ele>
      </trkpt>
      <trkpt lat="36.69581" lon="28.16726">
        <ele>331.8</ele>
      </trkpt>
      <trkpt lat="36.69582" lon="28.16738">
        <ele>332.3</ele>
      </trkpt>
      <trkpt lat="36.69589" lon="28.16742">
        <ele>334.6</ele>
      </trkpt>
      <trkpt lat="36.69589" lon="28.16752">
        <ele>334.7</ele>
      </trkpt>
      <trkpt lat="36.69592" lon="28.16756">
        <ele>335.8</ele>
      </trkpt>
      <trkpt lat="36.696" lon="28.16767">
        <ele>337.9</ele>
      </trkpt>
      <trkpt lat="36.69605" lon="28.1678">
        <ele>339.2</ele>
      </trkpt>
      <trkpt lat="36.69606" lon="28.16788">
        <ele>339.3</ele>
      </trkpt>
      <trkpt lat="36.69607" lon="28.16791">
        <ele>339.5</ele>
      </trkpt>
      <trkpt lat="36.69614" lon="28.16799">
        <ele>341</ele>
      </trkpt>
      <trkpt lat="36.69624" lon="28.16811">
        <ele>342.7</ele>
      </trkpt>
      <trkpt lat="36.6963" lon="28.1682">
        <ele>343.8</ele>
      </trkpt>
      <trkpt lat="36.69631" lon="28.16821">
        <ele>343.8</ele>
      </trkpt>
      <trkpt lat="36.6963" lon="28.1682">
        <ele>343.8</ele>
      </trkpt>
      <trkpt lat="36.69633" lon="28.16824">
        <ele>344.2</ele>
      </trkpt>
      <trkpt lat="36.69647" lon="28.16836">
        <ele>346.2</ele>
      </trkpt>
      <trkpt lat="36.69658" lon="28.16847">
        <ele>348.1</ele>
      </trkpt>
      <trkpt lat="36.69671" lon="28.16857">
        <ele>349.7</ele>
      </trkpt>
      <trkpt lat="36.69672" lon="28.16858">
        <ele>349.9</ele>
      </trkpt>
      <trkpt lat="36.69672" lon="28.16858">
        <ele>349.9</ele>
      </trkpt>
      <trkpt lat="36.69672" lon="28.16858">
        <ele>349.9</ele>
      </trkpt>
      <trkpt lat="36.69671" lon="28.16858">
        <ele>349.8</ele>
      </trkpt>
      <trkpt lat="36.69672" lon="28.16859">
        <ele>349.8</ele>
      </trkpt>
      <trkpt lat="36.69672" lon="28.1686">
        <ele>349.8</ele>
      </trkpt>
      <trkpt lat="36.69672" lon="28.1686">
        <ele>349.8</ele>
      </trkpt>
      <trkpt lat="36.69673" lon="28.1686">
        <ele>349.9</ele>
      </trkpt>
      <trkpt lat="36.69676" lon="28.16859">
        <ele>350.5</ele>
      </trkpt>
      <trkpt lat="36.69685" lon="28.16866">
        <ele>351.3</ele>
      </trkpt>
      <trkpt lat="36.69699" lon="28.16872">
        <ele>352.8</ele>
      </trkpt>
      <trkpt lat="36.69712" lon="28.16874">
        <ele>354.3</ele>
      </trkpt>
      <trkpt lat="36.69726" lon="28.16876">
        <ele>355.8</ele>
      </trkpt>
      <trkpt lat="36.69738" lon="28.16879">
        <ele>357</ele>
      </trkpt>
      <trkpt lat="36.69749" lon="28.16887">
        <ele>357.1</ele>
      </trkpt>
      <trkpt lat="36.69762" lon="28.16886">
        <ele>359.5</ele>
      </trkpt>
      <trkpt lat="36.69773" lon="28.1689">
        <ele>361.1</ele>
      </trkpt>
      <trkpt lat="36.69785" lon="28.16892">
        <ele>363</ele>
      </trkpt>
      <trkpt lat="36.69798" lon="28.16899">
        <ele>364.6</ele>
      </trkpt>
      <trkpt lat="36.6981" lon="28.16904">
        <ele>366</ele>
      </trkpt>
      <trkpt lat="36.69819" lon="28.16914">
        <ele>366.6</ele>
      </trkpt>
      <trkpt lat="36.69829" lon="28.16924">
        <ele>367</ele>
      </trkpt>
      <trkpt lat="36.69836" lon="28.16935">
        <ele>367</ele>
      </trkpt>
      <trkpt lat="36.69842" lon="28.16947">
        <ele>366.8</ele>
      </trkpt>
      <trkpt lat="36.69848" lon="28.16956">
        <ele>367.1</ele>
      </trkpt>
      <trkpt lat="36.69851" lon="28.16966">
        <ele>366.4</ele>
      </trkpt>
      <trkpt lat="36.69856" lon="28.16975">
        <ele>366.4</ele>
      </trkpt>
      <trkpt lat="36.6986" lon="28.16986">
        <ele>365.8</ele>
      </trkpt>
      <trkpt lat="36.69864" lon="28.16992">
        <ele>365.9</ele>
      </trkpt>
      <trkpt lat="36.6987" lon="28.17">
        <ele>366.3</ele>
      </trkpt>
      <trkpt lat="36.69874" lon="28.17003">
        <ele>367.3</ele>
      </trkpt>
      <trkpt lat="36.69875" lon="28.17013">
        <ele>367.9</ele>
      </trkpt>
      <trkpt lat="36.69881" lon="28.17016">
        <ele>369.1</ele>
      </trkpt>
      <trkpt lat="36.69888" lon="28.17029">
        <ele>370.6</ele>
      </trkpt>
      <trkpt lat="36.69897" lon="28.17035">
        <ele>372.4</ele>
      </trkpt>
      <trkpt lat="36.69906" lon="28.17042">
        <ele>373.7</ele>
      </trkpt>
      <trkpt lat="36.69915" lon="28.1705">
        <ele>374.8</ele>
      </trkpt>
      <trkpt lat="36.69927" lon="28.17059">
        <ele>375.2</ele>
      </trkpt>
      <trkpt lat="36.69937" lon="28.17066">
        <ele>375.3</ele>
      </trkpt>
      <trkpt lat="36.69949" lon="28.17072">
        <ele>375.5</ele>
      </trkpt>
      <trkpt lat="36.69955" lon="28.17076">
        <ele>375.5</ele>
      </trkpt>
      <trkpt lat="36.69961" lon="28.17076">
        <ele>375.8</ele>
      </trkpt>
      <trkpt lat="36.69973" lon="28.17082">
        <ele>375.9</ele>
      </trkpt>
      <trkpt lat="36.69979" lon="28.17082">
        <ele>376.1</ele>
      </trkpt>
      <trkpt lat="36.69978" lon="28.17083">
        <ele>376</ele>
      </trkpt>
      <trkpt lat="36.69982" lon="28.17082">
        <ele>376.3</ele>
      </trkpt>
      <trkpt lat="36.69985" lon="28.17081">
        <ele>376.6</ele>
      </trkpt>
      <trkpt lat="36.69991" lon="28.17073">
        <ele>377.8</ele>
      </trkpt>
      <trkpt lat="36.69997" lon="28.17071">
        <ele>378.3</ele>
      </trkpt>
      <trkpt lat="36.70001" lon="28.17074">
        <ele>378.1</ele>
      </trkpt>
      <trkpt lat="36.70008" lon="28.17069">
        <ele>378.8</ele>
      </trkpt>
      <trkpt lat="36.7001" lon="28.17058">
        <ele>380.1</ele>
      </trkpt>
      <trkpt lat="36.70017" lon="28.17046">
        <ele>381.6</ele>
      </trkpt>
      <trkpt lat="36.70024" lon="28.17037">
        <ele>382.9</ele>
      </trkpt>
      <trkpt lat="36.70034" lon="28.17031">
        <ele>383.8</ele>
      </trkpt>
      <trkpt lat="36.70044" lon="28.17027">
        <ele>384.5</ele>
      </trkpt>
      <trkpt lat="36.70049" lon="28.17029">
        <ele>384.3</ele>
      </trkpt>
      <trkpt lat="36.7006" lon="28.17038">
        <ele>383.3</ele>
      </trkpt>
      <trkpt lat="36.70069" lon="28.17047">
        <ele>382.1</ele>
      </trkpt>
      <trkpt lat="36.70075" lon="28.1706">
        <ele>380.3</ele>
      </trkpt>
      <trkpt lat="36.70081" lon="28.17072">
        <ele>378.7</ele>
      </trkpt>
      <trkpt lat="36.70093" lon="28.17087">
        <ele>378</ele>
      </trkpt>
      <trkpt lat="36.70102" lon="28.17099">
        <ele>379</ele>
      </trkpt>
      <trkpt lat="36.70112" lon="28.17107">
        <ele>379.9</ele>
      </trkpt>
      <trkpt lat="36.70122" lon="28.17111">
        <ele>380.8</ele>
      </trkpt>
      <trkpt lat="36.70135" lon="28.17121">
        <ele>381.7</ele>
      </trkpt>
      <trkpt lat="36.70151" lon="28.17133">
        <ele>382.5</ele>
      </trkpt>
      <trkpt lat="36.70156" lon="28.17139">
        <ele>382.6</ele>
      </trkpt>
      <trkpt lat="36.70156" lon="28.17138">
        <ele>382.6</ele>
      </trkpt>
      <trkpt lat="36.70165" lon="28.17144">
        <ele>383</ele>
      </trkpt>
      <trkpt lat="36.70175" lon="28.17156">
        <ele>382.7</ele>
      </trkpt>
      <trkpt lat="36.70182" lon="28.17167">
        <ele>382.2</ele>
      </trkpt>
      <trkpt lat="36.70191" lon="28.17179">
        <ele>383</ele>
      </trkpt>
      <trkpt lat="36.70198" lon="28.17186">
        <ele>383.2</ele>
      </trkpt>
      <trkpt lat="36.70209" lon="28.17193">
        <ele>383.1</ele>
      </trkpt>
      <trkpt lat="36.70222" lon="28.172">
        <ele>382.7</ele>
      </trkpt>
      <trkpt lat="36.70234" lon="28.17203">
        <ele>382.1</ele>
      </trkpt>
      <trkpt lat="36.70244" lon="28.17202">
        <ele>381.6</ele>
      </trkpt>
      <trkpt lat="36.70255" lon="28.17198">
        <ele>381.6</ele>
      </trkpt>
      <trkpt lat="36.70263" lon="28.17197">
        <ele>381.9</ele>
      </trkpt>
      <trkpt lat="36.70274" lon="28.17199">
        <ele>382</ele>
      </trkpt>
      <trkpt lat="36.70286" lon="28.17202">
        <ele>381.9</ele>
      </trkpt>
      <trkpt lat="36.70296" lon="28.17213">
        <ele>380.7</ele>
      </trkpt>
      <trkpt lat="36.70305" lon="28.17222">
        <ele>379.3</ele>
      </trkpt>
      <trkpt lat="36.70314" lon="28.17232">
        <ele>377.5</ele>
      </trkpt>
      <trkpt lat="36.70321" lon="28.17243">
        <ele>375.2</ele>
      </trkpt>
      <trkpt lat="36.70334" lon="28.17247">
        <ele>373.5</ele>
      </trkpt>
      <trkpt lat="36.70347" lon="28.17249">
        <ele>372.5</ele>
      </trkpt>
      <trkpt lat="36.70354" lon="28.1725">
        <ele>372</ele>
      </trkpt>
      <trkpt lat="36.70365" lon="28.17246">
        <ele>372.4</ele>
      </trkpt>
      <trkpt lat="36.70369" lon="28.17243">
        <ele>372.9</ele>
      </trkpt>
      <trkpt lat="36.7037" lon="28.17242">
        <ele>372.9</ele>
      </trkpt>
      <trkpt lat="36.70375" lon="28.1724">
        <ele>373.3</ele>
      </trkpt>
      <trkpt lat="36.70387" lon="28.17241">
        <ele>372.5</ele>
      </trkpt>
      <trkpt lat="36.70397" lon="28.17241">
        <ele>371.9</ele>
      </trkpt>
      <trkpt lat="36.70408" lon="28.17237">
        <ele>372.3</ele>
      </trkpt>
      <trkpt lat="36.70419" lon="28.17239">
        <ele>371.4</ele>
      </trkpt>
      <trkpt lat="36.70432" lon="28.17244">
        <ele>369.3</ele>
      </trkpt>
      <trkpt lat="36.70441" lon="28.17246">
        <ele>368.2</ele>
      </trkpt>
      <trkpt lat="36.70452" lon="28.17248">
        <ele>367</ele>
      </trkpt>
      <trkpt lat="36.70463" lon="28.17247">
        <ele>366.4</ele>
      </trkpt>
      <trkpt lat="36.70474" lon="28.17254">
        <ele>365</ele>
      </trkpt>
      <trkpt lat="36.70484" lon="28.17254">
        <ele>364.3</ele>
      </trkpt>
      <trkpt lat="36.70486" lon="28.17255">
        <ele>364.2</ele>
      </trkpt>
      <trkpt lat="36.70494" lon="28.17256">
        <ele>363.7</ele>
      </trkpt>
      <trkpt lat="36.70506" lon="28.17258">
        <ele>361.5</ele>
      </trkpt>
      <trkpt lat="36.70515" lon="28.17261">
        <ele>358.6</ele>
      </trkpt>
      <trkpt lat="36.70521" lon="28.17266">
        <ele>357</ele>
      </trkpt>
      <trkpt lat="36.70527" lon="28.17272">
        <ele>355.8</ele>
      </trkpt>
      <trkpt lat="36.70537" lon="28.17271">
        <ele>352.4</ele>
      </trkpt>
      <trkpt lat="36.70543" lon="28.17263">
        <ele>349.6</ele>
      </trkpt>
      <trkpt lat="36.70544" lon="28.17254">
        <ele>348.3</ele>
      </trkpt>
      <trkpt lat="36.70551" lon="28.17254">
        <ele>345.9</ele>
      </trkpt>
      <trkpt lat="36.70552" lon="28.17246">
        <ele>346</ele>
      </trkpt>
      <trkpt lat="36.70557" lon="28.1724">
        <ele>345.8</ele>
      </trkpt>
      <trkpt lat="36.70564" lon="28.17246">
        <ele>341.5</ele>
      </trkpt>
      <trkpt lat="36.70569" lon="28.17251">
        <ele>339.2</ele>
      </trkpt>
      <trkpt lat="36.70564" lon="28.17241">
        <ele>343.1</ele>
      </trkpt>
      <trkpt lat="36.70563" lon="28.1723">
        <ele>346.1</ele>
      </trkpt>
      <trkpt lat="36.70572" lon="28.1723">
        <ele>343.2</ele>
      </trkpt>
      <trkpt lat="36.70573" lon="28.17226">
        <ele>344</ele>
      </trkpt>
      <trkpt lat="36.70575" lon="28.17221">
        <ele>344.4</ele>
      </trkpt>
      <trkpt lat="36.70582" lon="28.1721">
        <ele>345</ele>
      </trkpt>
      <trkpt lat="36.70582" lon="28.1721">
        <ele>345</ele>
      </trkpt>
      <trkpt lat="36.7058" lon="28.17222">
        <ele>342.7</ele>
      </trkpt>
      <trkpt lat="36.70582" lon="28.17245">
        <ele>335.8</ele>
      </trkpt>
      <trkpt lat="36.70583" lon="28.17252">
        <ele>334.5</ele>
      </trkpt>
      <trkpt lat="36.70586" lon="28.1728">
        <ele>338.3</ele>
      </trkpt>
      <trkpt lat="36.70591" lon="28.17299">
        <ele>339</ele>
      </trkpt>
      <trkpt lat="36.70597" lon="28.17315">
        <ele>337.9</ele>
      </trkpt>
      <trkpt lat="36.70605" lon="28.17327">
        <ele>334.8</ele>
      </trkpt>
      <trkpt lat="36.70607" lon="28.17339">
        <ele>336.4</ele>
      </trkpt>
      <trkpt lat="36.70616" lon="28.17347">
        <ele>333.5</ele>
      </trkpt>
      <trkpt lat="36.70629" lon="28.17361">
        <ele>330</ele>
      </trkpt>
      <trkpt lat="36.70641" lon="28.1737">
        <ele>325.9</ele>
      </trkpt>
      <trkpt lat="36.70653" lon="28.17385">
        <ele>323.6</ele>
      </trkpt>
      <trkpt lat="36.70663" lon="28.17399">
        <ele>323.4</ele>
      </trkpt>
      <trkpt lat="36.70673" lon="28.17414">
        <ele>324.3</ele>
      </trkpt>
      <trkpt lat="36.70687" lon="28.17431">
        <ele>320.2</ele>
      </trkpt>
      <trkpt lat="36.70699" lon="28.17443">
        <ele>316.7</ele>
      </trkpt>
      <trkpt lat="36.70708" lon="28.17459">
        <ele>315.1</ele>
      </trkpt>
      <trkpt lat="36.70715" lon="28.17473">
        <ele>314.6</ele>
      </trkpt>
      <trkpt lat="36.70723" lon="28.17494">
        <ele>315</ele>
      </trkpt>
      <trkpt lat="36.70735" lon="28.17514">
        <ele>313.5</ele>
      </trkpt>
      <trkpt lat="36.70743" lon="28.17526">
        <ele>311.6</ele>
      </trkpt>
      <trkpt lat="36.70752" lon="28.17533">
        <ele>308.8</ele>
      </trkpt>
      <trkpt lat="36.70762" lon="28.1754">
        <ele>306.4</ele>
      </trkpt>
      <trkpt lat="36.70774" lon="28.17545">
        <ele>302.2</ele>
      </trkpt>
      <trkpt lat="36.70781" lon="28.17553">
        <ele>300.9</ele>
      </trkpt>
      <trkpt lat="36.70788" lon="28.17557">
        <ele>298.6</ele>
      </trkpt>
      <trkpt lat="36.70796" lon="28.17564">
        <ele>296.2</ele>
      </trkpt>
      <trkpt lat="36.70802" lon="28.17564">
        <ele>293.7</ele>
      </trkpt>
      <trkpt lat="36.7081" lon="28.17567">
        <ele>290.3</ele>
      </trkpt>
      <trkpt lat="36.70819" lon="28.17573">
        <ele>287</ele>
      </trkpt>
      <trkpt lat="36.7083" lon="28.17583">
        <ele>283.7</ele>
      </trkpt>
      <trkpt lat="36.70841" lon="28.17594">
        <ele>282</ele>
      </trkpt>
      <trkpt lat="36.70848" lon="28.17603">
        <ele>282</ele>
      </trkpt>
      <trkpt lat="36.70858" lon="28.17613">
        <ele>281.1</ele>
      </trkpt>
      <trkpt lat="36.70867" lon="28.1762">
        <ele>279.9</ele>
      </trkpt>
      <trkpt lat="36.70878" lon="28.17629">
        <ele>278.1</ele>
      </trkpt>
      <trkpt lat="36.70888" lon="28.17638">
        <ele>276.8</ele>
      </trkpt>
      <trkpt lat="36.70901" lon="28.17653">
        <ele>275.6</ele>
      </trkpt>
      <trkpt lat="36.70912" lon="28.17661">
        <ele>273.6</ele>
      </trkpt>
      <trkpt lat="36.70922" lon="28.17668">
        <ele>272.1</ele>
      </trkpt>
      <trkpt lat="36.70934" lon="28.17674">
        <ele>270.4</ele>
      </trkpt>
      <trkpt lat="36.7094" lon="28.1767">
        <ele>268.2</ele>
      </trkpt>
      <trkpt lat="36.70948" lon="28.17666">
        <ele>265.7</ele>
      </trkpt>
      <trkpt lat="36.70959" lon="28.17667">
        <ele>263.4</ele>
      </trkpt>
      <trkpt lat="36.70966" lon="28.17686">
        <ele>264.9</ele>
      </trkpt>
      <trkpt lat="36.70959" lon="28.17693">
        <ele>267.7</ele>
      </trkpt>
      <trkpt lat="36.7097" lon="28.17699">
        <ele>266.1</ele>
      </trkpt>
      <trkpt lat="36.70974" lon="28.17705">
        <ele>266.3</ele>
      </trkpt>
      <trkpt lat="36.70985" lon="28.17723">
        <ele>266.5</ele>
      </trkpt>
      <trkpt lat="36.70995" lon="28.17734">
        <ele>265.6</ele>
      </trkpt>
      <trkpt lat="36.71007" lon="28.17743">
        <ele>265.1</ele>
      </trkpt>
      <trkpt lat="36.71018" lon="28.17751">
        <ele>265</ele>
      </trkpt>
      <trkpt lat="36.71026" lon="28.17761">
        <ele>264.7</ele>
      </trkpt>
      <trkpt lat="36.71028" lon="28.17762">
        <ele>264.3</ele>
      </trkpt>
      <trkpt lat="36.71037" lon="28.1776">
        <ele>263.1</ele>
      </trkpt>
      <trkpt lat="36.71048" lon="28.17763">
        <ele>261.7</ele>
      </trkpt>
      <trkpt lat="36.71053" lon="28.17766">
        <ele>261</ele>
      </trkpt>
      <trkpt lat="36.71064" lon="28.1776">
        <ele>259.5</ele>
      </trkpt>
      <trkpt lat="36.71071" lon="28.17756">
        <ele>258.5</ele>
      </trkpt>
      <trkpt lat="36.71076" lon="28.17741">
        <ele>256.5</ele>
      </trkpt>
      <trkpt lat="36.7108" lon="28.17725">
        <ele>253.7</ele>
      </trkpt>
      <trkpt lat="36.71085" lon="28.17715">
        <ele>251.7</ele>
      </trkpt>
      <trkpt lat="36.71091" lon="28.17699">
        <ele>248.4</ele>
      </trkpt>
      <trkpt lat="36.71109" lon="28.17687">
        <ele>244.3</ele>
      </trkpt>
      <trkpt lat="36.71124" lon="28.17684">
        <ele>241.9</ele>
      </trkpt>
      <trkpt lat="36.71141" lon="28.17683">
        <ele>239.6</ele>
      </trkpt>
      <trkpt lat="36.71153" lon="28.17697">
        <ele>238.4</ele>
      </trkpt>
      <trkpt lat="36.71156" lon="28.17703">
        <ele>238.2</ele>
      </trkpt>
      <trkpt lat="36.71153" lon="28.17724">
        <ele>239.3</ele>
      </trkpt>
      <trkpt lat="36.71158" lon="28.17726">
        <ele>238.4</ele>
      </trkpt>
      <trkpt lat="36.71165" lon="28.17717">
        <ele>236.9</ele>
      </trkpt>
      <trkpt lat="36.71166" lon="28.17716">
        <ele>236.8</ele>
      </trkpt>
      <trkpt lat="36.71181" lon="28.17708">
        <ele>234</ele>
      </trkpt>
      <trkpt lat="36.71185" lon="28.17706">
        <ele>233.4</ele>
      </trkpt>
      <trkpt lat="36.71184" lon="28.17707">
        <ele>233.5</ele>
      </trkpt>
      <trkpt lat="36.71184" lon="28.17706">
        <ele>233.5</ele>
      </trkpt>
      <trkpt lat="36.71186" lon="28.17704">
        <ele>233.1</ele>
      </trkpt>
      <trkpt lat="36.71189" lon="28.17703">
        <ele>232.7</ele>
      </trkpt>
      <trkpt lat="36.71191" lon="28.17701">
        <ele>232.3</ele>
      </trkpt>
      <trkpt lat="36.71194" lon="28.17698">
        <ele>231.9</ele>
      </trkpt>
      <trkpt lat="36.71196" lon="28.17695">
        <ele>231.5</ele>
      </trkpt>
      <trkpt lat="36.71199" lon="28.17692">
        <ele>231.1</ele>
      </trkpt>
      <trkpt lat="36.712" lon="28.1769">
        <ele>230.9</ele>
      </trkpt>
      <trkpt lat="36.71203" lon="28.17687">
        <ele>230.6</ele>
      </trkpt>
      <trkpt lat="36.71205" lon="28.17685">
        <ele>230.1</ele>
      </trkpt>
      <trkpt lat="36.71207" lon="28.17684">
        <ele>229.9</ele>
      </trkpt>
      <trkpt lat="36.7121" lon="28.17682">
        <ele>229.5</ele>
      </trkpt>
      <trkpt lat="36.71211" lon="28.1768">
        <ele>229.3</ele>
      </trkpt>
      <trkpt lat="36.71215" lon="28.17678">
        <ele>228.8</ele>
      </trkpt>
      <trkpt lat="36.71218" lon="28.17676">
        <ele>228.4</ele>
      </trkpt>
      <trkpt lat="36.71221" lon="28.17675">
        <ele>228</ele>
      </trkpt>
      <trkpt lat="36.71224" lon="28.17675">
        <ele>227.6</ele>
      </trkpt>
      <trkpt lat="36.71226" lon="28.17675">
        <ele>227.2</ele>
      </trkpt>
      <trkpt lat="36.71229" lon="28.17674">
        <ele>226.8</ele>
      </trkpt>
      <trkpt lat="36.71231" lon="28.17674">
        <ele>226.5</ele>
      </trkpt>
      <trkpt lat="36.71234" lon="28.17676">
        <ele>226</ele>
      </trkpt>
      <trkpt lat="36.71237" lon="28.17676">
        <ele>225.5</ele>
      </trkpt>
      <trkpt lat="36.71238" lon="28.17678">
        <ele>225.2</ele>
      </trkpt>
      <trkpt lat="36.7124" lon="28.1768">
        <ele>224.9</ele>
      </trkpt>
      <trkpt lat="36.71241" lon="28.17683">
        <ele>224.6</ele>
      </trkpt>
      <trkpt lat="36.71242" lon="28.17685">
        <ele>224.3</ele>
      </trkpt>
      <trkpt lat="36.71244" lon="28.17688">
        <ele>224</ele>
      </trkpt>
      <trkpt lat="36.71246" lon="28.17691">
        <ele>223.4</ele>
      </trkpt>
      <trkpt lat="36.71248" lon="28.17695">
        <ele>222.9</ele>
      </trkpt>
      <trkpt lat="36.71248" lon="28.17698">
        <ele>222.8</ele>
      </trkpt>
      <trkpt lat="36.7125" lon="28.17701">
        <ele>222.4</ele>
      </trkpt>
      <trkpt lat="36.71252" lon="28.17704">
        <ele>221.9</ele>
      </trkpt>
      <trkpt lat="36.71253" lon="28.17709">
        <ele>221.4</ele>
      </trkpt>
      <trkpt lat="36.71255" lon="28.17713">
        <ele>220.9</ele>
      </trkpt>
      <trkpt lat="36.71256" lon="28.17717">
        <ele>220.5</ele>
      </trkpt>
      <trkpt lat="36.71258" lon="28.17722">
        <ele>219.9</ele>
      </trkpt>
      <trkpt lat="36.71258" lon="28.17725">
        <ele>219.8</ele>
      </trkpt>
      <trkpt lat="36.71258" lon="28.17727">
        <ele>219.6</ele>
      </trkpt>
      <trkpt lat="36.71259" lon="28.17731">
        <ele>219.3</ele>
      </trkpt>
      <trkpt lat="36.71259" lon="28.17734">
        <ele>219.1</ele>
      </trkpt>
      <trkpt lat="36.7126" lon="28.17736">
        <ele>218.9</ele>
      </trkpt>
      <trkpt lat="36.7126" lon="28.1774">
        <ele>218.6</ele>
      </trkpt>
      <trkpt lat="36.71262" lon="28.17745">
        <ele>218.1</ele>
      </trkpt>
      <trkpt lat="36.71263" lon="28.17748">
        <ele>217.8</ele>
      </trkpt>
      <trkpt lat="36.71263" lon="28.17751">
        <ele>217.6</ele>
      </trkpt>
      <trkpt lat="36.71263" lon="28.17756">
        <ele>217.8</ele>
      </trkpt>
      <trkpt lat="36.71263" lon="28.17758">
        <ele>217.9</ele>
      </trkpt>
      <trkpt lat="36.71262" lon="28.17761">
        <ele>218.2</ele>
      </trkpt>
      <trkpt lat="36.7126" lon="28.17765">
        <ele>218.5</ele>
      </trkpt>
      <trkpt lat="36.7126" lon="28.17768">
        <ele>218.6</ele>
      </trkpt>
      <trkpt lat="36.7126" lon="28.17773">
        <ele>218.8</ele>
      </trkpt>
      <trkpt lat="36.7126" lon="28.17775">
        <ele>218.8</ele>
      </trkpt>
      <trkpt lat="36.7126" lon="28.1778">
        <ele>218.9</ele>
      </trkpt>
      <trkpt lat="36.7126" lon="28.17784">
        <ele>219</ele>
      </trkpt>
      <trkpt lat="36.7126" lon="28.17789">
        <ele>219.2</ele>
      </trkpt>
      <trkpt lat="36.7126" lon="28.17793">
        <ele>219.3</ele>
      </trkpt>
      <trkpt lat="36.7126" lon="28.17798">
        <ele>219.4</ele>
      </trkpt>
      <trkpt lat="36.7126" lon="28.17802">
        <ele>219.5</ele>
      </trkpt>
      <trkpt lat="36.71261" lon="28.17803">
        <ele>219.5</ele>
      </trkpt>
      <trkpt lat="36.71261" lon="28.17806">
        <ele>219.5</ele>
      </trkpt>
      <trkpt lat="36.71262" lon="28.17811">
        <ele>219.5</ele>
      </trkpt>
      <trkpt lat="36.71263" lon="28.17816">
        <ele>219.5</ele>
      </trkpt>
      <trkpt lat="36.71263" lon="28.17818">
        <ele>219.6</ele>
      </trkpt>
      <trkpt lat="36.71263" lon="28.17822">
        <ele>219.7</ele>
      </trkpt>
      <trkpt lat="36.71263" lon="28.1783">
        <ele>219.9</ele>
      </trkpt>
      <trkpt lat="36.71263" lon="28.17833">
        <ele>219.9</ele>
      </trkpt>
      <trkpt lat="36.71263" lon="28.17836">
        <ele>220.1</ele>
      </trkpt>
      <trkpt lat="36.71264" lon="28.1784">
        <ele>220.4</ele>
      </trkpt>
      <trkpt lat="36.71264" lon="28.17842">
        <ele>220.5</ele>
      </trkpt>
      <trkpt lat="36.71265" lon="28.17846">
        <ele>220.7</ele>
      </trkpt>
      <trkpt lat="36.71267" lon="28.17852">
        <ele>221</ele>
      </trkpt>
      <trkpt lat="36.71267" lon="28.17856">
        <ele>221.3</ele>
      </trkpt>
      <trkpt lat="36.71267" lon="28.17861">
        <ele>221.6</ele>
      </trkpt>
      <trkpt lat="36.7127" lon="28.17867">
        <ele>221.8</ele>
      </trkpt>
      <trkpt lat="36.71271" lon="28.17871">
        <ele>221.9</ele>
      </trkpt>
      <trkpt lat="36.71274" lon="28.17874">
        <ele>221.9</ele>
      </trkpt>
      <trkpt lat="36.71275" lon="28.17876">
        <ele>221.9</ele>
      </trkpt>
      <trkpt lat="36.71277" lon="28.17878">
        <ele>221.9</ele>
      </trkpt>
      <trkpt lat="36.7128" lon="28.17882">
        <ele>221.9</ele>
      </trkpt>
      <trkpt lat="36.71283" lon="28.17886">
        <ele>221.9</ele>
      </trkpt>
      <trkpt lat="36.71284" lon="28.17888">
        <ele>222</ele>
      </trkpt>
      <trkpt lat="36.71286" lon="28.1789">
        <ele>221.9</ele>
      </trkpt>
      <trkpt lat="36.7129" lon="28.17894">
        <ele>221.9</ele>
      </trkpt>
      <trkpt lat="36.71293" lon="28.17898">
        <ele>222</ele>
      </trkpt>
      <trkpt lat="36.71295" lon="28.17901">
        <ele>222</ele>
      </trkpt>
      <trkpt lat="36.71298" lon="28.17903">
        <ele>221.9</ele>
      </trkpt>
      <trkpt lat="36.71301" lon="28.17906">
        <ele>221.9</ele>
      </trkpt>
      <trkpt lat="36.71303" lon="28.17908">
        <ele>221.9</ele>
      </trkpt>
      <trkpt lat="36.71305" lon="28.17908">
        <ele>221.8</ele>
      </trkpt>
      <trkpt lat="36.71309" lon="28.17912">
        <ele>221.8</ele>
      </trkpt>
      <trkpt lat="36.71309" lon="28.17913">
        <ele>221.9</ele>
      </trkpt>
      <trkpt lat="36.7131" lon="28.17916">
        <ele>222.2</ele>
      </trkpt>
      <trkpt lat="36.71314" lon="28.17922">
        <ele>222.6</ele>
      </trkpt>
      <trkpt lat="36.71315" lon="28.17925">
        <ele>222.8</ele>
      </trkpt>
      <trkpt lat="36.71319" lon="28.17929">
        <ele>223</ele>
      </trkpt>
      <trkpt lat="36.7132" lon="28.17929">
        <ele>223</ele>
      </trkpt>
      <trkpt lat="36.71322" lon="28.17932">
        <ele>223.1</ele>
      </trkpt>
      <trkpt lat="36.71324" lon="28.17935">
        <ele>223.3</ele>
      </trkpt>
      <trkpt lat="36.71326" lon="28.17936">
        <ele>223.3</ele>
      </trkpt>
      <trkpt lat="36.71329" lon="28.17938">
        <ele>223.2</ele>
      </trkpt>
      <trkpt lat="36.71331" lon="28.1794">
        <ele>223.3</ele>
      </trkpt>
      <trkpt lat="36.71334" lon="28.17942">
        <ele>223.4</ele>
      </trkpt>
      <trkpt lat="36.71334" lon="28.17943">
        <ele>223.5</ele>
      </trkpt>
      <trkpt lat="36.71336" lon="28.17945">
        <ele>223.8</ele>
      </trkpt>
      <trkpt lat="36.7134" lon="28.17946">
        <ele>224.1</ele>
      </trkpt>
      <trkpt lat="36.71344" lon="28.17947">
        <ele>224.3</ele>
      </trkpt>
      <trkpt lat="36.71348" lon="28.17948">
        <ele>224.5</ele>
      </trkpt>
      <trkpt lat="36.71351" lon="28.17949">
        <ele>224.7</ele>
      </trkpt>
      <trkpt lat="36.71353" lon="28.17951">
        <ele>225</ele>
      </trkpt>
      <trkpt lat="36.71356" lon="28.17951">
        <ele>225.2</ele>
      </trkpt>
      <trkpt lat="36.71358" lon="28.17953">
        <ele>225.4</ele>
      </trkpt>
      <trkpt lat="36.71362" lon="28.17954">
        <ele>225.6</ele>
      </trkpt>
      <trkpt lat="36.71364" lon="28.17955">
        <ele>225.8</ele>
      </trkpt>
      <trkpt lat="36.71367" lon="28.17957">
        <ele>226.1</ele>
      </trkpt>
      <trkpt lat="36.71369" lon="28.17957">
        <ele>226.2</ele>
      </trkpt>
      <trkpt lat="36.71371" lon="28.17958">
        <ele>226.4</ele>
      </trkpt>
      <trkpt lat="36.71375" lon="28.17958">
        <ele>226.5</ele>
      </trkpt>
      <trkpt lat="36.71378" lon="28.17958">
        <ele>226.5</ele>
      </trkpt>
      <trkpt lat="36.71379" lon="28.17958">
        <ele>226.6</ele>
      </trkpt>
      <trkpt lat="36.71383" lon="28.17958">
        <ele>226.6</ele>
      </trkpt>
      <trkpt lat="36.71385" lon="28.17958">
        <ele>226.7</ele>
      </trkpt>
      <trkpt lat="36.71388" lon="28.17958">
        <ele>226.8</ele>
      </trkpt>
      <trkpt lat="36.71391" lon="28.17958">
        <ele>226.8</ele>
      </trkpt>
      <trkpt lat="36.71393" lon="28.17957">
        <ele>226.8</ele>
      </trkpt>
      <trkpt lat="36.71395" lon="28.17957">
        <ele>226.9</ele>
      </trkpt>
      <trkpt lat="36.71398" lon="28.17957">
        <ele>226.9</ele>
      </trkpt>
      <trkpt lat="36.71401" lon="28.17957">
        <ele>227</ele>
      </trkpt>
      <trkpt lat="36.71403" lon="28.17957">
        <ele>227</ele>
      </trkpt>
      <trkpt lat="36.71406" lon="28.17957">
        <ele>227.1</ele>
      </trkpt>
      <trkpt lat="36.71409" lon="28.17957">
        <ele>227.2</ele>
      </trkpt>
      <trkpt lat="36.71411" lon="28.17957">
        <ele>227.2</ele>
      </trkpt>
      <trkpt lat="36.71413" lon="28.17957">
        <ele>227.3</ele>
      </trkpt>
      <trkpt lat="36.71416" lon="28.17957">
        <ele>227.3</ele>
      </trkpt>
      <trkpt lat="36.71419" lon="28.17957">
        <ele>227.5</ele>
      </trkpt>
      <trkpt lat="36.71421" lon="28.17957">
        <ele>227.6</ele>
      </trkpt>
      <trkpt lat="36.71424" lon="28.17957">
        <ele>227.7</ele>
      </trkpt>
      <trkpt lat="36.71426" lon="28.17958">
        <ele>227.9</ele>
      </trkpt>
      <trkpt lat="36.71427" lon="28.17958">
        <ele>227.9</ele>
      </trkpt>
      <trkpt lat="36.71427" lon="28.17958">
        <ele>227.9</ele>
      </trkpt>
      <trkpt lat="36.71427" lon="28.17958">
        <ele>227.9</ele>
      </trkpt>
      <trkpt lat="36.71427" lon="28.17958">
        <ele>227.9</ele>
      </trkpt>
      <trkpt lat="36.71427" lon="28.17958">
        <ele>227.9</ele>
      </trkpt>
      <trkpt lat="36.71427" lon="28.17958">
        <ele>227.9</ele>
      </trkpt>
      <trkpt lat="36.71427" lon="28.17958">
        <ele>227.9</ele>
      </trkpt>
      <trkpt lat="36.71427" lon="28.17958">
        <ele>227.9</ele>
      </trkpt>
      <trkpt lat="36.71427" lon="28.17958">
        <ele>227.9</ele>
      </trkpt>
      <trkpt lat="36.71427" lon="28.17958">
        <ele>227.9</ele>
      </trkpt>
      <trkpt lat="36.71427" lon="28.17958">
        <ele>227.9</ele>
      </trkpt>
      <trkpt lat="36.71427" lon="28.17958">
        <ele>227.9</ele>
      </trkpt>
      <trkpt lat="36.71427" lon="28.17958">
        <ele>227.9</ele>
      </trkpt>
      <trkpt lat="36.71427" lon="28.17958">
        <ele>227.9</ele>
      </trkpt>
      <trkpt lat="36.71427" lon="28.17958">
        <ele>227.9</ele>
      </trkpt>
      <trkpt lat="36.71427" lon="28.17958">
        <ele>227.9</ele>
      </trkpt>
      <trkpt lat="36.71429" lon="28.17957">
        <ele>227.9</ele>
      </trkpt>
      <trkpt lat="36.71477" lon="28.17947">
        <ele>229</ele>
      </trkpt>
      <trkpt lat="36.71487" lon="28.17946">
        <ele>229.2</ele>
      </trkpt>
      <trkpt lat="36.71496" lon="28.17949">
        <ele>230</ele>
      </trkpt>
      <trkpt lat="36.71503" lon="28.17955">
        <ele>230.9</ele>
      </trkpt>
      <trkpt lat="36.715" lon="28.17957">
        <ele>231.3</ele>
      </trkpt>
      <trkpt lat="36.71498" lon="28.17961">
        <ele>231.7</ele>
      </trkpt>
      <trkpt lat="36.71498" lon="28.17969">
        <ele>232.8</ele>
      </trkpt>
      <trkpt lat="36.71502" lon="28.17979">
        <ele>234.1</ele>
      </trkpt>
      <trkpt lat="36.71505" lon="28.17987">
        <ele>235</ele>
      </trkpt>
      <trkpt lat="36.71506" lon="28.17991">
        <ele>235.4</ele>
      </trkpt>
      <trkpt lat="36.71511" lon="28.18005">
        <ele>236.7</ele>
      </trkpt>
      <trkpt lat="36.7152" lon="28.18021">
        <ele>237.7</ele>
      </trkpt>
      <trkpt lat="36.71522" lon="28.18025">
        <ele>238.1</ele>
      </trkpt>
      <trkpt lat="36.71523" lon="28.18037">
        <ele>239.3</ele>
      </trkpt>
      <trkpt lat="36.71525" lon="28.18043">
        <ele>239.8</ele>
      </trkpt>
      <trkpt lat="36.71525" lon="28.18045">
        <ele>240.1</ele>
      </trkpt>
      <trkpt lat="36.71528" lon="28.18058">
        <ele>241.5</ele>
      </trkpt>
      <trkpt lat="36.7153" lon="28.18067">
        <ele>242.5</ele>
      </trkpt>
      <trkpt lat="36.71531" lon="28.1807">
        <ele>242.8</ele>
      </trkpt>
      <trkpt lat="36.71535" lon="28.18079">
        <ele>243.9</ele>
      </trkpt>
      <trkpt lat="36.71537" lon="28.18087">
        <ele>244.9</ele>
      </trkpt>
      <trkpt lat="36.71534" lon="28.18091">
        <ele>245.4</ele>
      </trkpt>
      <trkpt lat="36.71533" lon="28.18096">
        <ele>246.1</ele>
      </trkpt>
      <trkpt lat="36.71533" lon="28.18097">
        <ele>246.3</ele>
      </trkpt>
      <trkpt lat="36.71529" lon="28.18108">
        <ele>247.7</ele>
      </trkpt>
      <trkpt lat="36.7153" lon="28.18111">
        <ele>248</ele>
      </trkpt>
      <trkpt lat="36.71528" lon="28.1812">
        <ele>249.2</ele>
      </trkpt>
      <trkpt lat="36.71527" lon="28.18128">
        <ele>250.2</ele>
      </trkpt>
      <trkpt lat="36.71523" lon="28.18141">
        <ele>251.8</ele>
      </trkpt>
      <trkpt lat="36.71519" lon="28.1815">
        <ele>253.1</ele>
      </trkpt>
      <trkpt lat="36.71521" lon="28.18156">
        <ele>253.8</ele>
      </trkpt>
      <trkpt lat="36.71524" lon="28.18165">
        <ele>255.1</ele>
      </trkpt>
      <trkpt lat="36.71524" lon="28.18168">
        <ele>255.5</ele>
      </trkpt>
      <trkpt lat="36.71524" lon="28.18174">
        <ele>256.2</ele>
      </trkpt>
      <trkpt lat="36.71524" lon="28.18181">
        <ele>257</ele>
      </trkpt>
      <trkpt lat="36.71524" lon="28.18191">
        <ele>258.2</ele>
      </trkpt>
      <trkpt lat="36.71525" lon="28.18194">
        <ele>258.5</ele>
      </trkpt>
      <trkpt lat="36.71526" lon="28.18199">
        <ele>259.2</ele>
      </trkpt>
      <trkpt lat="36.71529" lon="28.18208">
        <ele>260.3</ele>
      </trkpt>
      <trkpt lat="36.7153" lon="28.18211">
        <ele>260.7</ele>
      </trkpt>
      <trkpt lat="36.71529" lon="28.18218">
        <ele>261.5</ele>
      </trkpt>
      <trkpt lat="36.71526" lon="28.1823">
        <ele>262.8</ele>
      </trkpt>
      <trkpt lat="36.71522" lon="28.18246">
        <ele>264.6</ele>
      </trkpt>
      <trkpt lat="36.71522" lon="28.18255">
        <ele>265.5</ele>
      </trkpt>
      <trkpt lat="36.71521" lon="28.18268">
        <ele>266.8</ele>
      </trkpt>
      <trkpt lat="36.71521" lon="28.18269">
        <ele>266.9</ele>
      </trkpt>
      <trkpt lat="36.71521" lon="28.18268">
        <ele>266.9</ele>
      </trkpt>
      <trkpt lat="36.71521" lon="28.18278">
        <ele>267.9</ele>
      </trkpt>
      <trkpt lat="36.7152" lon="28.18288">
        <ele>268.9</ele>
      </trkpt>
      <trkpt lat="36.71522" lon="28.18295">
        <ele>269.6</ele>
      </trkpt>
      <trkpt lat="36.71521" lon="28.18303">
        <ele>270.4</ele>
      </trkpt>
      <trkpt lat="36.71519" lon="28.1831">
        <ele>271.2</ele>
      </trkpt>
      <trkpt lat="36.71513" lon="28.18316">
        <ele>272.2</ele>
      </trkpt>
      <trkpt lat="36.71512" lon="28.18328">
        <ele>273.6</ele>
      </trkpt>
      <trkpt lat="36.71512" lon="28.18341">
        <ele>275.6</ele>
      </trkpt>
      <trkpt lat="36.71513" lon="28.18346">
        <ele>276.5</ele>
      </trkpt>
      <trkpt lat="36.71514" lon="28.18362">
        <ele>279.2</ele>
      </trkpt>
      <trkpt lat="36.71515" lon="28.18375">
        <ele>281.4</ele>
      </trkpt>
      <trkpt lat="36.71515" lon="28.18386">
        <ele>283.5</ele>
      </trkpt>
      <trkpt lat="36.71515" lon="28.18387">
        <ele>283.7</ele>
      </trkpt>
      <trkpt lat="36.71516" lon="28.18399">
        <ele>285.8</ele>
      </trkpt>
      <trkpt lat="36.71516" lon="28.18412">
        <ele>288.2</ele>
      </trkpt>
      <trkpt lat="36.71515" lon="28.18418">
        <ele>289.4</ele>
      </trkpt>
      <trkpt lat="36.71515" lon="28.18432">
        <ele>292.3</ele>
      </trkpt>
      <trkpt lat="36.71515" lon="28.18433">
        <ele>292.4</ele>
      </trkpt>
      <trkpt lat="36.71519" lon="28.18437">
        <ele>293</ele>
      </trkpt>
      <trkpt lat="36.71528" lon="28.18432">
        <ele>291.5</ele>
      </trkpt>
      <trkpt lat="36.71533" lon="28.1843">
        <ele>290.9</ele>
      </trkpt>
      <trkpt lat="36.71535" lon="28.18435">
        <ele>292.1</ele>
      </trkpt>
      <trkpt lat="36.71534" lon="28.18445">
        <ele>294.2</ele>
      </trkpt>
      <trkpt lat="36.71535" lon="28.1845">
        <ele>295.5</ele>
      </trkpt>
      <trkpt lat="36.71541" lon="28.18457">
        <ele>296.9</ele>
      </trkpt>
      <trkpt lat="36.71536" lon="28.18466">
        <ele>299</ele>
      </trkpt>
      <trkpt lat="36.71535" lon="28.18476">
        <ele>301.2</ele>
      </trkpt>
      <trkpt lat="36.71536" lon="28.18488">
        <ele>303.9</ele>
      </trkpt>
      <trkpt lat="36.71532" lon="28.185">
        <ele>306.6</ele>
      </trkpt>
      <trkpt lat="36.71528" lon="28.18513">
        <ele>307.8</ele>
      </trkpt>
      <trkpt lat="36.71528" lon="28.18527">
        <ele>309.3</ele>
      </trkpt>
      <trkpt lat="36.71526" lon="28.18542">
        <ele>310.6</ele>
      </trkpt>
      <trkpt lat="36.7152" lon="28.18559">
        <ele>311.4</ele>
      </trkpt>
      <trkpt lat="36.71518" lon="28.18574">
        <ele>312.3</ele>
      </trkpt>
      <trkpt lat="36.7152" lon="28.18582">
        <ele>313.3</ele>
      </trkpt>
      <trkpt lat="36.71523" lon="28.18592">
        <ele>314.2</ele>
      </trkpt>
      <trkpt lat="36.71525" lon="28.18605">
        <ele>314.8</ele>
      </trkpt>
      <trkpt lat="36.71529" lon="28.18621">
        <ele>315.9</ele>
      </trkpt>
      <trkpt lat="36.71529" lon="28.18634">
        <ele>316.1</ele>
      </trkpt>
      <trkpt lat="36.71532" lon="28.18648">
        <ele>317.1</ele>
      </trkpt>
      <trkpt lat="36.71536" lon="28.18662">
        <ele>318.5</ele>
      </trkpt>
      <trkpt lat="36.71538" lon="28.1867">
        <ele>319.6</ele>
      </trkpt>
      <trkpt lat="36.71541" lon="28.18679">
        <ele>321.1</ele>
      </trkpt>
      <trkpt lat="36.71539" lon="28.18694">
        <ele>321.8</ele>
      </trkpt>
      <trkpt lat="36.71543" lon="28.18706">
        <ele>324</ele>
      </trkpt>
      <trkpt lat="36.71545" lon="28.18713">
        <ele>324.9</ele>
      </trkpt>
      <trkpt lat="36.71545" lon="28.18713">
        <ele>325</ele>
      </trkpt>
      <trkpt lat="36.71545" lon="28.18713">
        <ele>325</ele>
      </trkpt>
      <trkpt lat="36.71544" lon="28.18715">
        <ele>324.9</ele>
      </trkpt>
      <trkpt lat="36.71543" lon="28.18715">
        <ele>324.6</ele>
      </trkpt>
      <trkpt lat="36.71541" lon="28.18729">
        <ele>325.1</ele>
      </trkpt>
      <trkpt lat="36.71543" lon="28.18736">
        <ele>326.2</ele>
      </trkpt>
      <trkpt lat="36.71544" lon="28.18745">
        <ele>327.1</ele>
      </trkpt>
      <trkpt lat="36.71542" lon="28.18756">
        <ele>328</ele>
      </trkpt>
      <trkpt lat="36.71541" lon="28.18768">
        <ele>329.7</ele>
      </trkpt>
      <trkpt lat="36.71541" lon="28.18777">
        <ele>331.1</ele>
      </trkpt>
      <trkpt lat="36.71543" lon="28.18781">
        <ele>332.1</ele>
      </trkpt>
      <trkpt lat="36.71541" lon="28.18782">
        <ele>331.9</ele>
      </trkpt>
      <trkpt lat="36.71545" lon="28.18784">
        <ele>332.7</ele>
      </trkpt>
      <trkpt lat="36.71549" lon="28.18794">
        <ele>334.7</ele>
      </trkpt>
      <trkpt lat="36.71556" lon="28.18801">
        <ele>336.1</ele>
      </trkpt>
      <trkpt lat="36.71561" lon="28.18809">
        <ele>337.2</ele>
      </trkpt>
      <trkpt lat="36.71566" lon="28.1882">
        <ele>338.3</ele>
      </trkpt>
      <trkpt lat="36.71571" lon="28.1883">
        <ele>339.1</ele>
      </trkpt>
      <trkpt lat="36.71574" lon="28.18843">
        <ele>339.7</ele>
      </trkpt>
      <trkpt lat="36.71574" lon="28.18859">
        <ele>340.6</ele>
      </trkpt>
      <trkpt lat="36.71577" lon="28.18866">
        <ele>340.7</ele>
      </trkpt>
      <trkpt lat="36.71584" lon="28.18881">
        <ele>340.5</ele>
      </trkpt>
      <trkpt lat="36.71587" lon="28.18898">
        <ele>339.8</ele>
      </trkpt>
      <trkpt lat="36.71586" lon="28.1891">
        <ele>340.5</ele>
      </trkpt>
      <trkpt lat="36.71585" lon="28.18927">
        <ele>340.7</ele>
      </trkpt>
      <trkpt lat="36.71585" lon="28.18944">
        <ele>339.9</ele>
      </trkpt>
      <trkpt lat="36.71583" lon="28.18958">
        <ele>339.6</ele>
      </trkpt>
      <trkpt lat="36.7158" lon="28.18968">
        <ele>339.7</ele>
      </trkpt>
      <trkpt lat="36.71581" lon="28.1898">
        <ele>338.7</ele>
      </trkpt>
      <trkpt lat="36.71581" lon="28.18983">
        <ele>338.7</ele>
      </trkpt>
      <trkpt lat="36.71579" lon="28.18996">
        <ele>338.6</ele>
      </trkpt>
      <trkpt lat="36.71574" lon="28.19008">
        <ele>339.9</ele>
      </trkpt>
      <trkpt lat="36.71574" lon="28.19013">
        <ele>340.3</ele>
      </trkpt>
      <trkpt lat="36.71569" lon="28.19022">
        <ele>342</ele>
      </trkpt>
      <trkpt lat="36.71565" lon="28.19035">
        <ele>343.6</ele>
      </trkpt>
      <trkpt lat="36.71565" lon="28.19036">
        <ele>343.8</ele>
      </trkpt>
      <trkpt lat="36.71557" lon="28.19051">
        <ele>346.4</ele>
      </trkpt>
      <trkpt lat="36.71553" lon="28.19061">
        <ele>347.8</ele>
      </trkpt>
      <trkpt lat="36.71551" lon="28.19068">
        <ele>348.6</ele>
      </trkpt>
      <trkpt lat="36.71551" lon="28.19071">
        <ele>348.9</ele>
      </trkpt>
      <trkpt lat="36.7155" lon="28.19085">
        <ele>349.6</ele>
      </trkpt>
      <trkpt lat="36.71548" lon="28.19095">
        <ele>351.3</ele>
      </trkpt>
      <trkpt lat="36.7155" lon="28.19103">
        <ele>351.9</ele>
      </trkpt>
      <trkpt lat="36.71551" lon="28.19111">
        <ele>352.5</ele>
      </trkpt>
      <trkpt lat="36.71553" lon="28.19118">
        <ele>353.1</ele>
      </trkpt>
      <trkpt lat="36.71556" lon="28.19128">
        <ele>354</ele>
      </trkpt>
      <trkpt lat="36.71559" lon="28.19138">
        <ele>355</ele>
      </trkpt>
      <trkpt lat="36.71558" lon="28.19146">
        <ele>356.2</ele>
      </trkpt>
      <trkpt lat="36.71556" lon="28.19153">
        <ele>357.4</ele>
      </trkpt>
      <trkpt lat="36.71554" lon="28.19156">
        <ele>358.1</ele>
      </trkpt>
      <trkpt lat="36.71554" lon="28.19162">
        <ele>358.8</ele>
      </trkpt>
      <trkpt lat="36.71552" lon="28.19167">
        <ele>359.7</ele>
      </trkpt>
      <trkpt lat="36.71548" lon="28.19178">
        <ele>361.6</ele>
      </trkpt>
      <trkpt lat="36.71546" lon="28.19184">
        <ele>362.6</ele>
      </trkpt>
      <trkpt lat="36.71545" lon="28.19197">
        <ele>364.4</ele>
      </trkpt>
      <trkpt lat="36.71543" lon="28.19208">
        <ele>366.1</ele>
      </trkpt>
      <trkpt lat="36.71543" lon="28.19211">
        <ele>366.4</ele>
      </trkpt>
      <trkpt lat="36.71535" lon="28.19225">
        <ele>369</ele>
      </trkpt>
      <trkpt lat="36.71535" lon="28.19237">
        <ele>370.7</ele>
      </trkpt>
      <trkpt lat="36.71535" lon="28.19238">
        <ele>370.9</ele>
      </trkpt>
      <trkpt lat="36.71534" lon="28.19255">
        <ele>372.8</ele>
      </trkpt>
      <trkpt lat="36.71533" lon="28.19259">
        <ele>372.9</ele>
      </trkpt>
      <trkpt lat="36.71535" lon="28.19272">
        <ele>373.3</ele>
      </trkpt>
      <trkpt lat="36.71531" lon="28.19284">
        <ele>373.9</ele>
      </trkpt>
      <trkpt lat="36.71526" lon="28.19295">
        <ele>374.5</ele>
      </trkpt>
      <trkpt lat="36.71526" lon="28.19305">
        <ele>374.8</ele>
      </trkpt>
      <trkpt lat="36.71527" lon="28.19313">
        <ele>375</ele>
      </trkpt>
      <trkpt lat="36.71517" lon="28.1932">
        <ele>375.5</ele>
      </trkpt>
      <trkpt lat="36.71517" lon="28.19327">
        <ele>375.7</ele>
      </trkpt>
      <trkpt lat="36.71519" lon="28.19339">
        <ele>376.1</ele>
      </trkpt>
      <trkpt lat="36.71519" lon="28.19341">
        <ele>376.3</ele>
      </trkpt>
      <trkpt lat="36.71519" lon="28.19344">
        <ele>376.5</ele>
      </trkpt>
      <trkpt lat="36.7152" lon="28.19355">
        <ele>377.3</ele>
      </trkpt>
      <trkpt lat="36.71521" lon="28.19371">
        <ele>378.5</ele>
      </trkpt>
      <trkpt lat="36.7152" lon="28.19378">
        <ele>378.9</ele>
      </trkpt>
      <trkpt lat="36.7152" lon="28.19382">
        <ele>379.2</ele>
      </trkpt>
      <trkpt lat="36.71519" lon="28.19389">
        <ele>379.6</ele>
      </trkpt>
      <trkpt lat="36.71518" lon="28.19391">
        <ele>379.6</ele>
      </trkpt>
      <trkpt lat="36.71517" lon="28.194">
        <ele>380.1</ele>
      </trkpt>
      <trkpt lat="36.71514" lon="28.19414">
        <ele>380.7</ele>
      </trkpt>
      <trkpt lat="36.7151" lon="28.19426">
        <ele>379.5</ele>
      </trkpt>
      <trkpt lat="36.7151" lon="28.1943">
        <ele>379.4</ele>
      </trkpt>
      <trkpt lat="36.71509" lon="28.19436">
        <ele>378.6</ele>
      </trkpt>
      <trkpt lat="36.71508" lon="28.1944">
        <ele>378.2</ele>
      </trkpt>
      <trkpt lat="36.71506" lon="28.19446">
        <ele>377.3</ele>
      </trkpt>
      <trkpt lat="36.715" lon="28.19461">
        <ele>374.8</ele>
      </trkpt>
      <trkpt lat="36.71496" lon="28.19465">
        <ele>374.2</ele>
      </trkpt>
      <trkpt lat="36.71502" lon="28.1947">
        <ele>374.3</ele>
      </trkpt>
      <trkpt lat="36.71509" lon="28.19483">
        <ele>375</ele>
      </trkpt>
      <trkpt lat="36.71508" lon="28.19494">
        <ele>373.7</ele>
      </trkpt>
      <trkpt lat="36.71505" lon="28.19511">
        <ele>371.9</ele>
      </trkpt>
      <trkpt lat="36.71504" lon="28.19516">
        <ele>371.1</ele>
      </trkpt>
      <trkpt lat="36.71501" lon="28.19529">
        <ele>369.4</ele>
      </trkpt>
      <trkpt lat="36.71498" lon="28.19532">
        <ele>368.9</ele>
      </trkpt>
      <trkpt lat="36.71498" lon="28.1954">
        <ele>368.3</ele>
      </trkpt>
      <trkpt lat="36.71497" lon="28.19552">
        <ele>367.5</ele>
      </trkpt>
      <trkpt lat="36.71499" lon="28.19573">
        <ele>366.4</ele>
      </trkpt>
      <trkpt lat="36.71498" lon="28.19575">
        <ele>366.2</ele>
      </trkpt>
      <trkpt lat="36.71496" lon="28.19588">
        <ele>365.5</ele>
      </trkpt>
      <trkpt lat="36.71496" lon="28.19591">
        <ele>365.5</ele>
      </trkpt>
      <trkpt lat="36.71493" lon="28.19605">
        <ele>364.8</ele>
      </trkpt>
      <trkpt lat="36.7149" lon="28.19615">
        <ele>364.2</ele>
      </trkpt>
      <trkpt lat="36.71488" lon="28.19629">
        <ele>363.6</ele>
      </trkpt>
      <trkpt lat="36.71485" lon="28.19647">
        <ele>362.5</ele>
      </trkpt>
      <trkpt lat="36.71482" lon="28.19652">
        <ele>361.7</ele>
      </trkpt>
      <trkpt lat="36.7148" lon="28.19663">
        <ele>360.8</ele>
      </trkpt>
      <trkpt lat="36.71478" lon="28.19679">
        <ele>360.2</ele>
      </trkpt>
      <trkpt lat="36.71475" lon="28.1969">
        <ele>358.8</ele>
      </trkpt>
      <trkpt lat="36.71473" lon="28.19693">
        <ele>358.3</ele>
      </trkpt>
      <trkpt lat="36.71468" lon="28.19706">
        <ele>356.5</ele>
      </trkpt>
      <trkpt lat="36.71465" lon="28.19722">
        <ele>354.9</ele>
      </trkpt>
      <trkpt lat="36.71466" lon="28.19728">
        <ele>355.2</ele>
      </trkpt>
      <trkpt lat="36.71469" lon="28.19743">
        <ele>356.4</ele>
      </trkpt>
      <trkpt lat="36.71472" lon="28.19752">
        <ele>356.8</ele>
      </trkpt>
      <trkpt lat="36.71472" lon="28.19766">
        <ele>355.6</ele>
      </trkpt>
      <trkpt lat="36.71478" lon="28.1978">
        <ele>356.2</ele>
      </trkpt>
      <trkpt lat="36.71485" lon="28.19796">
        <ele>356.8</ele>
      </trkpt>
      <trkpt lat="36.71486" lon="28.19802">
        <ele>356.5</ele>
      </trkpt>
      <trkpt lat="36.71495" lon="28.19817">
        <ele>357.5</ele>
      </trkpt>
      <trkpt lat="36.71495" lon="28.1982">
        <ele>357.3</ele>
      </trkpt>
      <trkpt lat="36.71502" lon="28.1983">
        <ele>358</ele>
      </trkpt>
      <trkpt lat="36.71509" lon="28.19841">
        <ele>358.7</ele>
      </trkpt>
      <trkpt lat="36.7151" lon="28.19843">
        <ele>358.5</ele>
      </trkpt>
      <trkpt lat="36.71514" lon="28.19863">
        <ele>356.5</ele>
      </trkpt>
      <trkpt lat="36.71515" lon="28.19875">
        <ele>354.7</ele>
      </trkpt>
      <trkpt lat="36.71515" lon="28.1989">
        <ele>352.3</ele>
      </trkpt>
      <trkpt lat="36.71513" lon="28.19909">
        <ele>348.7</ele>
      </trkpt>
      <trkpt lat="36.71514" lon="28.19921">
        <ele>347.4</ele>
      </trkpt>
      <trkpt lat="36.71518" lon="28.19929">
        <ele>347.3</ele>
      </trkpt>
      <trkpt lat="36.71521" lon="28.19932">
        <ele>347.4</ele>
      </trkpt>
      <trkpt lat="36.71521" lon="28.19933">
        <ele>347.4</ele>
      </trkpt>
      <trkpt lat="36.71522" lon="28.1994">
        <ele>346.8</ele>
      </trkpt>
      <trkpt lat="36.71524" lon="28.19945">
        <ele>346.6</ele>
      </trkpt>
      <trkpt lat="36.71531" lon="28.19959">
        <ele>345.8</ele>
      </trkpt>
      <trkpt lat="36.71534" lon="28.19963">
        <ele>345.4</ele>
      </trkpt>
      <trkpt lat="36.71536" lon="28.19967">
        <ele>345.1</ele>
      </trkpt>
      <trkpt lat="36.71539" lon="28.19973">
        <ele>344.5</ele>
      </trkpt>
      <trkpt lat="36.71543" lon="28.19983">
        <ele>343.2</ele>
      </trkpt>
      <trkpt lat="36.71544" lon="28.19985">
        <ele>342.8</ele>
      </trkpt>
      <trkpt lat="36.71545" lon="28.19992">
        <ele>341.8</ele>
      </trkpt>
      <trkpt lat="36.71546" lon="28.19999">
        <ele>340.6</ele>
      </trkpt>
      <trkpt lat="36.7155" lon="28.20009">
        <ele>340</ele>
      </trkpt>
      <trkpt lat="36.71551" lon="28.20012">
        <ele>339.8</ele>
      </trkpt>
      <trkpt lat="36.71551" lon="28.2002">
        <ele>339.5</ele>
      </trkpt>
      <trkpt lat="36.7155" lon="28.20031">
        <ele>339</ele>
      </trkpt>
      <trkpt lat="36.71551" lon="28.20048">
        <ele>338.2</ele>
      </trkpt>
      <trkpt lat="36.7155" lon="28.2006">
        <ele>337.7</ele>
      </trkpt>
      <trkpt lat="36.71551" lon="28.20073">
        <ele>336.9</ele>
      </trkpt>
      <trkpt lat="36.71552" lon="28.20083">
        <ele>336.4</ele>
      </trkpt>
      <trkpt lat="36.71551" lon="28.20096">
        <ele>336</ele>
      </trkpt>
      <trkpt lat="36.71553" lon="28.20106">
        <ele>335.5</ele>
      </trkpt>
      <trkpt lat="36.71554" lon="28.20119">
        <ele>334.9</ele>
      </trkpt>
      <trkpt lat="36.71555" lon="28.20125">
        <ele>334.6</ele>
      </trkpt>
      <trkpt lat="36.71555" lon="28.20127">
        <ele>334.5</ele>
      </trkpt>
      <trkpt lat="36.71558" lon="28.20136">
        <ele>333.8</ele>
      </trkpt>
      <trkpt lat="36.71561" lon="28.20141">
        <ele>333.2</ele>
      </trkpt>
      <trkpt lat="36.71565" lon="28.20143">
        <ele>332.5</ele>
      </trkpt>
      <trkpt lat="36.71572" lon="28.2015">
        <ele>331.3</ele>
      </trkpt>
      <trkpt lat="36.71573" lon="28.20154">
        <ele>331</ele>
      </trkpt>
      <trkpt lat="36.71573" lon="28.20158">
        <ele>330.9</ele>
      </trkpt>
      <trkpt lat="36.71573" lon="28.20165">
        <ele>330.7</ele>
      </trkpt>
      <trkpt lat="36.7157" lon="28.20174">
        <ele>330.5</ele>
      </trkpt>
      <trkpt lat="36.71571" lon="28.20181">
        <ele>330</ele>
      </trkpt>
      <trkpt lat="36.71571" lon="28.20191">
        <ele>329.3</ele>
      </trkpt>
      <trkpt lat="36.71571" lon="28.20203">
        <ele>328.7</ele>
      </trkpt>
      <trkpt lat="36.71569" lon="28.2022">
        <ele>328</ele>
      </trkpt>
      <trkpt lat="36.71569" lon="28.20243">
        <ele>326.7</ele>
      </trkpt>
      <trkpt lat="36.71569" lon="28.2025">
        <ele>326.3</ele>
      </trkpt>
      <trkpt lat="36.71567" lon="28.2026">
        <ele>326</ele>
      </trkpt>
      <trkpt lat="36.71565" lon="28.20263">
        <ele>326.2</ele>
      </trkpt>
      <trkpt lat="36.71567" lon="28.20271">
        <ele>325.6</ele>
      </trkpt>
      <trkpt lat="36.71569" lon="28.20283">
        <ele>324.7</ele>
      </trkpt>
      <trkpt lat="36.71571" lon="28.20285">
        <ele>324.3</ele>
      </trkpt>
      <trkpt lat="36.71571" lon="28.203">
        <ele>323.6</ele>
      </trkpt>
      <trkpt lat="36.71576" lon="28.20312">
        <ele>322.1</ele>
      </trkpt>
      <trkpt lat="36.71587" lon="28.20329">
        <ele>321</ele>
      </trkpt>
      <trkpt lat="36.71597" lon="28.2035">
        <ele>321.2</ele>
      </trkpt>
      <trkpt lat="36.71596" lon="28.20352">
        <ele>320.9</ele>
      </trkpt>
      <trkpt lat="36.71595" lon="28.20362">
        <ele>319.7</ele>
      </trkpt>
      <trkpt lat="36.71593" lon="28.20374">
        <ele>317.9</ele>
      </trkpt>
      <trkpt lat="36.71592" lon="28.20389">
        <ele>316.3</ele>
      </trkpt>
      <trkpt lat="36.71593" lon="28.20401">
        <ele>315.3</ele>
      </trkpt>
      <trkpt lat="36.71598" lon="28.20412">
        <ele>315.1</ele>
      </trkpt>
      <trkpt lat="36.71602" lon="28.20419">
        <ele>314.3</ele>
      </trkpt>
      <trkpt lat="36.71607" lon="28.20425">
        <ele>312.6</ele>
      </trkpt>
      <trkpt lat="36.71613" lon="28.20435">
        <ele>309.1</ele>
      </trkpt>
      <trkpt lat="36.7162" lon="28.20448">
        <ele>304.4</ele>
      </trkpt>
      <trkpt lat="36.71622" lon="28.20451">
        <ele>303.1</ele>
      </trkpt>
      <trkpt lat="36.71624" lon="28.20457">
        <ele>300.8</ele>
      </trkpt>
      <trkpt lat="36.71627" lon="28.20467">
        <ele>297.1</ele>
      </trkpt>
      <trkpt lat="36.71633" lon="28.20474">
        <ele>294.5</ele>
      </trkpt>
      <trkpt lat="36.71641" lon="28.20478">
        <ele>293.8</ele>
      </trkpt>
      <trkpt lat="36.71646" lon="28.20483">
        <ele>291.9</ele>
      </trkpt>
      <trkpt lat="36.71651" lon="28.20488">
        <ele>290.3</ele>
      </trkpt>
      <trkpt lat="36.71652" lon="28.20486">
        <ele>291.1</ele>
      </trkpt>
      <trkpt lat="36.71649" lon="28.20488">
        <ele>289.8</ele>
      </trkpt>
      <trkpt lat="36.71649" lon="28.20488">
        <ele>289.8</ele>
      </trkpt>
      <trkpt lat="36.71647" lon="28.20489">
        <ele>289.1</ele>
      </trkpt>
      <trkpt lat="36.71646" lon="28.20491">
        <ele>288.1</ele>
      </trkpt>
      <trkpt lat="36.71644" lon="28.205">
        <ele>283.5</ele>
      </trkpt>
      <trkpt lat="36.71644" lon="28.20497">
        <ele>284.9</ele>
      </trkpt>
      <trkpt lat="36.71647" lon="28.20491">
        <ele>288.4</ele>
      </trkpt>
      <trkpt lat="36.71642" lon="28.2049">
        <ele>288.2</ele>
      </trkpt>
      <trkpt lat="36.71637" lon="28.20487">
        <ele>288.8</ele>
      </trkpt>
      <trkpt lat="36.7163" lon="28.20489">
        <ele>287.3</ele>
      </trkpt>
      <trkpt lat="36.71624" lon="28.20489">
        <ele>286.4</ele>
      </trkpt>
      <trkpt lat="36.71621" lon="28.20493">
        <ele>284.1</ele>
      </trkpt>
      <trkpt lat="36.71619" lon="28.20498">
        <ele>281.7</ele>
      </trkpt>
      <trkpt lat="36.7161" lon="28.205">
        <ele>280</ele>
      </trkpt>
      <trkpt lat="36.71605" lon="28.20506">
        <ele>277.4</ele>
      </trkpt>
      <trkpt lat="36.7161" lon="28.20513">
        <ele>275.9</ele>
      </trkpt>
      <trkpt lat="36.71613" lon="28.20522">
        <ele>273</ele>
      </trkpt>
      <trkpt lat="36.71616" lon="28.2053">
        <ele>271</ele>
      </trkpt>
      <trkpt lat="36.7162" lon="28.20535">
        <ele>269.6</ele>
      </trkpt>
      <trkpt lat="36.71627" lon="28.20539">
        <ele>268.9</ele>
      </trkpt>
      <trkpt lat="36.71632" lon="28.20545">
        <ele>267.1</ele>
      </trkpt>
      <trkpt lat="36.7164" lon="28.20548">
        <ele>266.7</ele>
      </trkpt>
      <trkpt lat="36.71643" lon="28.20549">
        <ele>266.4</ele>
      </trkpt>
      <trkpt lat="36.71645" lon="28.20548">
        <ele>266.9</ele>
      </trkpt>
      <trkpt lat="36.71644" lon="28.2055">
        <ele>266.2</ele>
      </trkpt>
      <trkpt lat="36.71647" lon="28.20553">
        <ele>265.2</ele>
      </trkpt>
      <trkpt lat="36.71642" lon="28.20562">
        <ele>261.9</ele>
      </trkpt>
      <trkpt lat="36.71639" lon="28.20572">
        <ele>258.3</ele>
      </trkpt>
      <trkpt lat="36.71635" lon="28.20577">
        <ele>256.5</ele>
      </trkpt>
      <trkpt lat="36.71632" lon="28.20578">
        <ele>256.1</ele>
      </trkpt>
      <trkpt lat="36.71635" lon="28.20581">
        <ele>254.9</ele>
      </trkpt>
      <trkpt lat="36.71639" lon="28.20582">
        <ele>254.8</ele>
      </trkpt>
      <trkpt lat="36.71644" lon="28.20582">
        <ele>254.9</ele>
      </trkpt>
      <trkpt lat="36.71658" lon="28.20582">
        <ele>255.4</ele>
      </trkpt>
      <trkpt lat="36.71658" lon="28.20586">
        <ele>254.2</ele>
      </trkpt>
      <trkpt lat="36.71656" lon="28.20589">
        <ele>253.4</ele>
      </trkpt>
      <trkpt lat="36.71657" lon="28.20587">
        <ele>253.7</ele>
      </trkpt>
      <trkpt lat="36.71656" lon="28.20588">
        <ele>253.6</ele>
      </trkpt>
      <trkpt lat="36.7166" lon="28.20587">
        <ele>253.9</ele>
      </trkpt>
      <trkpt lat="36.71679" lon="28.2058">
        <ele>256.1</ele>
      </trkpt>
      <trkpt lat="36.71732" lon="28.2058">
        <ele>254.9</ele>
      </trkpt>
      <trkpt lat="36.71738" lon="28.2058">
        <ele>254.8</ele>
      </trkpt>
      <trkpt lat="36.71752" lon="28.20578">
        <ele>255.6</ele>
      </trkpt>
      <trkpt lat="36.71772" lon="28.20578">
        <ele>257.2</ele>
      </trkpt>
      <trkpt lat="36.71777" lon="28.2058">
        <ele>256.7</ele>
      </trkpt>
      <trkpt lat="36.71822" lon="28.20596">
        <ele>254.2</ele>
      </trkpt>
      <trkpt lat="36.71842" lon="28.20604">
        <ele>254.4</ele>
      </trkpt>
      <trkpt lat="36.71854" lon="28.20624">
        <ele>250.2</ele>
      </trkpt>
      <trkpt lat="36.71863" lon="28.20649">
        <ele>242.8</ele>
      </trkpt>
      <trkpt lat="36.71885" lon="28.2067">
        <ele>241.1</ele>
      </trkpt>
      <trkpt lat="36.71944" lon="28.20703">
        <ele>244.8</ele>
      </trkpt>
      <trkpt lat="36.71949" lon="28.20707">
        <ele>244.7</ele>
      </trkpt>
      <trkpt lat="36.71967" lon="28.20731">
        <ele>240.5</ele>
      </trkpt>
      <trkpt lat="36.71995" lon="28.20737">
        <ele>243.7</ele>
      </trkpt>
      <trkpt lat="36.72009" lon="28.20739">
        <ele>246.2</ele>
      </trkpt>
      <trkpt lat="36.72054" lon="28.20762">
        <ele>252.6</ele>
      </trkpt>
      <trkpt lat="36.72062" lon="28.20766">
        <ele>253.8</ele>
      </trkpt>
      <trkpt lat="36.72083" lon="28.20794">
        <ele>253.9</ele>
      </trkpt>
      <trkpt lat="36.72077" lon="28.20816">
        <ele>247.9</ele>
      </trkpt>
      <trkpt lat="36.72068" lon="28.20829">
        <ele>242.6</ele>
      </trkpt>
      <trkpt lat="36.7205" lon="28.20844">
        <ele>237.9</ele>
      </trkpt>
      <trkpt lat="36.72042" lon="28.20859">
        <ele>236.5</ele>
      </trkpt>
      <trkpt lat="36.72023" lon="28.20915">
        <ele>234.1</ele>
      </trkpt>
      <trkpt lat="36.72019" lon="28.20928">
        <ele>233.7</ele>
      </trkpt>
      <trkpt lat="36.72017" lon="28.20935">
        <ele>233.8</ele>
      </trkpt>
      <trkpt lat="36.71997" lon="28.2098">
        <ele>231.2</ele>
      </trkpt>
      <trkpt lat="36.71993" lon="28.20987">
        <ele>230.3</ele>
      </trkpt>
      <trkpt lat="36.71986" lon="28.21026">
        <ele>228.9</ele>
      </trkpt>
      <trkpt lat="36.71987" lon="28.21057">
        <ele>228.7</ele>
      </trkpt>
      <trkpt lat="36.71996" lon="28.21077">
        <ele>230.2</ele>
      </trkpt>
      <trkpt lat="36.7202" lon="28.21083">
        <ele>235.3</ele>
      </trkpt>
      <trkpt lat="36.72043" lon="28.21089">
        <ele>239.8</ele>
      </trkpt>
      <trkpt lat="36.72036" lon="28.21112">
        <ele>236.4</ele>
      </trkpt>
      <trkpt lat="36.7203" lon="28.21141">
        <ele>232.7</ele>
      </trkpt>
      <trkpt lat="36.7202" lon="28.21164">
        <ele>228.5</ele>
      </trkpt>
      <trkpt lat="36.72016" lon="28.21201">
        <ele>224.1</ele>
      </trkpt>
      <trkpt lat="36.72035" lon="28.21227">
        <ele>226</ele>
      </trkpt>
      <trkpt lat="36.72054" lon="28.21246">
        <ele>229</ele>
      </trkpt>
      <trkpt lat="36.72056" lon="28.21271">
        <ele>228.2</ele>
      </trkpt>
      <trkpt lat="36.72039" lon="28.21284">
        <ele>223</ele>
      </trkpt>
      <trkpt lat="36.72032" lon="28.2129">
        <ele>220.6</ele>
      </trkpt>
      <trkpt lat="36.72027" lon="28.21316">
        <ele>217.5</ele>
      </trkpt>
      <trkpt lat="36.72037" lon="28.21326">
        <ele>219.9</ele>
      </trkpt>
      <trkpt lat="36.72055" lon="28.21343">
        <ele>224.9</ele>
      </trkpt>
      <trkpt lat="36.72067" lon="28.21355">
        <ele>228.9</ele>
      </trkpt>
      <trkpt lat="36.7208" lon="28.21368">
        <ele>233</ele>
      </trkpt>
      <trkpt lat="36.72082" lon="28.21386">
        <ele>233.5</ele>
      </trkpt>
      <trkpt lat="36.72085" lon="28.21406">
        <ele>234.5</ele>
      </trkpt>
      <trkpt lat="36.72097" lon="28.21431">
        <ele>235.8</ele>
      </trkpt>
      <trkpt lat="36.72115" lon="28.21507">
        <ele>232.5</ele>
      </trkpt>
      <trkpt lat="36.7213" lon="28.2154">
        <ele>235.8</ele>
      </trkpt>
      <trkpt lat="36.72152" lon="28.21559">
        <ele>237.9</ele>
      </trkpt>
      <trkpt lat="36.72157" lon="28.2158">
        <ele>237</ele>
      </trkpt>
      <trkpt lat="36.72168" lon="28.21595">
        <ele>236.3</ele>
      </trkpt>
      <trkpt lat="36.72169" lon="28.21596">
        <ele>236.3</ele>
      </trkpt>
      <trkpt lat="36.72177" lon="28.21609">
        <ele>235.7</ele>
      </trkpt>
      <trkpt lat="36.72186" lon="28.21604">
        <ele>236.3</ele>
      </trkpt>
      <trkpt lat="36.72198" lon="28.21601">
        <ele>236.8</ele>
      </trkpt>
      <trkpt lat="36.72216" lon="28.2159">
        <ele>237.9</ele>
      </trkpt>
      <trkpt lat="36.72232" lon="28.21577">
        <ele>239.8</ele>
      </trkpt>
      <trkpt lat="36.72247" lon="28.21565">
        <ele>243</ele>
      </trkpt>
      <trkpt lat="36.72247" lon="28.21562">
        <ele>243.7</ele>
      </trkpt>
      <trkpt lat="36.72252" lon="28.21567">
        <ele>242.5</ele>
      </trkpt>
      <trkpt lat="36.72253" lon="28.21578">
        <ele>240.1</ele>
      </trkpt>
      <trkpt lat="36.72262" lon="28.21601">
        <ele>237.5</ele>
      </trkpt>
      <trkpt lat="36.7227" lon="28.216">
        <ele>237.1</ele>
      </trkpt>
      <trkpt lat="36.72276" lon="28.21601">
        <ele>236.8</ele>
      </trkpt>
      <trkpt lat="36.7227" lon="28.21602">
        <ele>237.1</ele>
      </trkpt>
      <trkpt lat="36.72276" lon="28.21597">
        <ele>236.9</ele>
      </trkpt>
      <trkpt lat="36.72284" lon="28.21598">
        <ele>236.4</ele>
      </trkpt>
      <trkpt lat="36.72296" lon="28.21603">
        <ele>235.8</ele>
      </trkpt>
      <trkpt lat="36.72298" lon="28.21604">
        <ele>235.7</ele>
      </trkpt>
      <trkpt lat="36.72295" lon="28.21602">
        <ele>235.8</ele>
      </trkpt>
      <trkpt lat="36.72299" lon="28.2161">
        <ele>235.7</ele>
      </trkpt>
      <trkpt lat="36.72315" lon="28.21619">
        <ele>235.3</ele>
      </trkpt>
      <trkpt lat="36.72326" lon="28.21624">
        <ele>235.1</ele>
      </trkpt>
      <trkpt lat="36.72325" lon="28.21625">
        <ele>235.2</ele>
      </trkpt>
      <trkpt lat="36.72322" lon="28.21623">
        <ele>235.2</ele>
      </trkpt>
      <trkpt lat="36.7232" lon="28.21622">
        <ele>235.2</ele>
      </trkpt>
      <trkpt lat="36.72325" lon="28.21633">
        <ele>235.5</ele>
      </trkpt>
      <trkpt lat="36.72331" lon="28.21642">
        <ele>235.8</ele>
      </trkpt>
      <trkpt lat="36.72336" lon="28.21643">
        <ele>235.9</ele>
      </trkpt>
      <trkpt lat="36.72344" lon="28.21649">
        <ele>236.3</ele>
      </trkpt>
      <trkpt lat="36.7235" lon="28.21656">
        <ele>236.6</ele>
      </trkpt>
      <trkpt lat="36.72353" lon="28.21673">
        <ele>237.8</ele>
      </trkpt>
      <trkpt lat="36.72356" lon="28.21682">
        <ele>239</ele>
      </trkpt>
      <trkpt lat="36.72361" lon="28.21685">
        <ele>239.5</ele>
      </trkpt>
      <trkpt lat="36.72362" lon="28.21689">
        <ele>239.9</ele>
      </trkpt>
      <trkpt lat="36.72372" lon="28.21707">
        <ele>242.2</ele>
      </trkpt>
      <trkpt lat="36.72373" lon="28.21707">
        <ele>242.2</ele>
      </trkpt>
      <trkpt lat="36.72374" lon="28.2171">
        <ele>242.5</ele>
      </trkpt>
      <trkpt lat="36.72377" lon="28.21707">
        <ele>242.1</ele>
      </trkpt>
      <trkpt lat="36.72377" lon="28.21707">
        <ele>242.1</ele>
      </trkpt>
      <trkpt lat="36.72377" lon="28.21707">
        <ele>242</ele>
      </trkpt>
      <trkpt lat="36.72391" lon="28.21777">
        <ele>248.6</ele>
      </trkpt>
      <trkpt lat="36.72399" lon="28.21783">
        <ele>248.6</ele>
      </trkpt>
      <trkpt lat="36.72401" lon="28.21785">
        <ele>248.7</ele>
      </trkpt>
      <trkpt lat="36.724" lon="28.21804">
        <ele>249.8</ele>
      </trkpt>
      <trkpt lat="36.72402" lon="28.21814">
        <ele>250.4</ele>
      </trkpt>
      <trkpt lat="36.72402" lon="28.21814">
        <ele>250.4</ele>
      </trkpt>
      <trkpt lat="36.72394" lon="28.21818">
        <ele>250.9</ele>
      </trkpt>
      <trkpt lat="36.72389" lon="28.21831">
        <ele>251.8</ele>
      </trkpt>
      <trkpt lat="36.72389" lon="28.21837">
        <ele>252.1</ele>
      </trkpt>
      <trkpt lat="36.72392" lon="28.21844">
        <ele>252.3</ele>
      </trkpt>
      <trkpt lat="36.72394" lon="28.21847">
        <ele>252.4</ele>
      </trkpt>
      <trkpt lat="36.72396" lon="28.21858">
        <ele>252.8</ele>
      </trkpt>
      <trkpt lat="36.72395" lon="28.21865">
        <ele>253.2</ele>
      </trkpt>
      <trkpt lat="36.72394" lon="28.21877">
        <ele>253.7</ele>
      </trkpt>
      <trkpt lat="36.72394" lon="28.21877">
        <ele>253.7</ele>
      </trkpt>
      <trkpt lat="36.72394" lon="28.21887">
        <ele>254.2</ele>
      </trkpt>
      <trkpt lat="36.72394" lon="28.21892">
        <ele>254.4</ele>
      </trkpt>
      <trkpt lat="36.72395" lon="28.21902">
        <ele>254.8</ele>
      </trkpt>
      <trkpt lat="36.72392" lon="28.21908">
        <ele>255.1</ele>
      </trkpt>
      <trkpt lat="36.72388" lon="28.21925">
        <ele>256.4</ele>
      </trkpt>
      <trkpt lat="36.72384" lon="28.21936">
        <ele>257.9</ele>
      </trkpt>
      <trkpt lat="36.72384" lon="28.21937">
        <ele>258</ele>
      </trkpt>
      <trkpt lat="36.72386" lon="28.21941">
        <ele>258.6</ele>
      </trkpt>
      <trkpt lat="36.72383" lon="28.2195">
        <ele>259.8</ele>
      </trkpt>
      <trkpt lat="36.72388" lon="28.2196">
        <ele>261.2</ele>
      </trkpt>
      <trkpt lat="36.72388" lon="28.2196">
        <ele>261.3</ele>
      </trkpt>
      <trkpt lat="36.72387" lon="28.2196">
        <ele>261.2</ele>
      </trkpt>
      <trkpt lat="36.72385" lon="28.2195">
        <ele>259.9</ele>
      </trkpt>
      <trkpt lat="36.72385" lon="28.21949">
        <ele>259.7</ele>
      </trkpt>
      <trkpt lat="36.72385" lon="28.21943">
        <ele>258.8</ele>
      </trkpt>
      <trkpt lat="36.72386" lon="28.21945">
        <ele>259.2</ele>
      </trkpt>
      <trkpt lat="36.72386" lon="28.21946">
        <ele>259.2</ele>
      </trkpt>
      <trkpt lat="36.72383" lon="28.21946">
        <ele>259.3</ele>
      </trkpt>
      <trkpt lat="36.72382" lon="28.2195">
        <ele>259.9</ele>
      </trkpt>
      <trkpt lat="36.72387" lon="28.21961">
        <ele>261.4</ele>
      </trkpt>
      <trkpt lat="36.7239" lon="28.21968">
        <ele>262.3</ele>
      </trkpt>
      <trkpt lat="36.72391" lon="28.21973">
        <ele>263</ele>
      </trkpt>
      <trkpt lat="36.72392" lon="28.21978">
        <ele>263.6</ele>
      </trkpt>
      <trkpt lat="36.72392" lon="28.21985">
        <ele>264.5</ele>
      </trkpt>
      <trkpt lat="36.72393" lon="28.21995">
        <ele>265.9</ele>
      </trkpt>
      <trkpt lat="36.72395" lon="28.21998">
        <ele>266.2</ele>
      </trkpt>
      <trkpt lat="36.72395" lon="28.21998">
        <ele>266.3</ele>
      </trkpt>
      <trkpt lat="36.72397" lon="28.22006">
        <ele>267.3</ele>
      </trkpt>
      <trkpt lat="36.72393" lon="28.22018">
        <ele>269.1</ele>
      </trkpt>
      <trkpt lat="36.72393" lon="28.22016">
        <ele>268.8</ele>
      </trkpt>
      <trkpt lat="36.72393" lon="28.22017">
        <ele>269</ele>
      </trkpt>
      <trkpt lat="36.72396" lon="28.22027">
        <ele>270.3</ele>
      </trkpt>
      <trkpt lat="36.72396" lon="28.22028">
        <ele>270.5</ele>
      </trkpt>
      <trkpt lat="36.724" lon="28.22045">
        <ele>273</ele>
      </trkpt>
      <trkpt lat="36.72403" lon="28.22055">
        <ele>274.5</ele>
      </trkpt>
      <trkpt lat="36.72403" lon="28.22057">
        <ele>274.7</ele>
      </trkpt>
      <trkpt lat="36.72403" lon="28.22071">
        <ele>276.9</ele>
      </trkpt>
      <trkpt lat="36.72404" lon="28.22073">
        <ele>277.2</ele>
      </trkpt>
      <trkpt lat="36.72401" lon="28.22085">
        <ele>279</ele>
      </trkpt>
      <trkpt lat="36.72401" lon="28.22088">
        <ele>279.5</ele>
      </trkpt>
      <trkpt lat="36.72403" lon="28.22101">
        <ele>281.6</ele>
      </trkpt>
      <trkpt lat="36.72404" lon="28.22108">
        <ele>282.7</ele>
      </trkpt>
      <trkpt lat="36.72404" lon="28.22116">
        <ele>284.1</ele>
      </trkpt>
      <trkpt lat="36.72404" lon="28.2212">
        <ele>284.7</ele>
      </trkpt>
      <trkpt lat="36.72404" lon="28.22127">
        <ele>285.9</ele>
      </trkpt>
      <trkpt lat="36.72406" lon="28.22139">
        <ele>288</ele>
      </trkpt>
      <trkpt lat="36.72411" lon="28.22149">
        <ele>289.9</ele>
      </trkpt>
      <trkpt lat="36.72413" lon="28.22165">
        <ele>292.6</ele>
      </trkpt>
      <trkpt lat="36.72421" lon="28.22176">
        <ele>293.6</ele>
      </trkpt>
      <trkpt lat="36.72422" lon="28.22183">
        <ele>294.4</ele>
      </trkpt>
      <trkpt lat="36.72421" lon="28.22191">
        <ele>295.7</ele>
      </trkpt>
      <trkpt lat="36.72419" lon="28.22207">
        <ele>298.2</ele>
      </trkpt>
      <trkpt lat="36.72419" lon="28.22221">
        <ele>300.1</ele>
      </trkpt>
      <trkpt lat="36.72412" lon="28.22231">
        <ele>301.5</ele>
      </trkpt>
      <trkpt lat="36.7241" lon="28.22243">
        <ele>303.1</ele>
      </trkpt>
      <trkpt lat="36.72404" lon="28.22254">
        <ele>304.7</ele>
      </trkpt>
      <trkpt lat="36.724" lon="28.22268">
        <ele>306.9</ele>
      </trkpt>
      <trkpt lat="36.72393" lon="28.22277">
        <ele>308.4</ele>
      </trkpt>
      <trkpt lat="36.72388" lon="28.22296">
        <ele>311.3</ele>
      </trkpt>
      <trkpt lat="36.72387" lon="28.22304">
        <ele>312.5</ele>
      </trkpt>
      <trkpt lat="36.72391" lon="28.22316">
        <ele>314.3</ele>
      </trkpt>
      <trkpt lat="36.72392" lon="28.2232">
        <ele>314.9</ele>
      </trkpt>
      <trkpt lat="36.72395" lon="28.22329">
        <ele>316.3</ele>
      </trkpt>
      <trkpt lat="36.72394" lon="28.22337">
        <ele>317.7</ele>
      </trkpt>
      <trkpt lat="36.72393" lon="28.22338">
        <ele>317.8</ele>
      </trkpt>
      <trkpt lat="36.72394" lon="28.22337">
        <ele>317.7</ele>
      </trkpt>
      <trkpt lat="36.72394" lon="28.22337">
        <ele>317.7</ele>
      </trkpt>
      <trkpt lat="36.72393" lon="28.22338">
        <ele>317.8</ele>
      </trkpt>
      <trkpt lat="36.724" lon="28.22368">
        <ele>323.8</ele>
      </trkpt>
      <trkpt lat="36.724" lon="28.22372">
        <ele>324.6</ele>
      </trkpt>
      <trkpt lat="36.724" lon="28.22374">
        <ele>325</ele>
      </trkpt>
      <trkpt lat="36.72398" lon="28.22374">
        <ele>325</ele>
      </trkpt>
      <trkpt lat="36.72391" lon="28.22382">
        <ele>325.8</ele>
      </trkpt>
      <trkpt lat="36.7239" lon="28.2239">
        <ele>327.2</ele>
      </trkpt>
      <trkpt lat="36.7239" lon="28.22403">
        <ele>329.5</ele>
      </trkpt>
      <trkpt lat="36.7239" lon="28.22404">
        <ele>329.6</ele>
      </trkpt>
      <trkpt lat="36.72386" lon="28.2242">
        <ele>331.7</ele>
      </trkpt>
      <trkpt lat="36.72384" lon="28.2243">
        <ele>332.8</ele>
      </trkpt>
      <trkpt lat="36.72383" lon="28.22433">
        <ele>333</ele>
      </trkpt>
      <trkpt lat="36.72379" lon="28.22446">
        <ele>334.2</ele>
      </trkpt>
      <trkpt lat="36.72375" lon="28.22459">
        <ele>335.2</ele>
      </trkpt>
      <trkpt lat="36.72375" lon="28.22471">
        <ele>336.5</ele>
      </trkpt>
      <trkpt lat="36.72373" lon="28.22483">
        <ele>337.8</ele>
      </trkpt>
      <trkpt lat="36.72373" lon="28.22486">
        <ele>338.1</ele>
      </trkpt>
      <trkpt lat="36.72369" lon="28.225">
        <ele>338.7</ele>
      </trkpt>
      <trkpt lat="36.72369" lon="28.22506">
        <ele>339.1</ele>
      </trkpt>
      <trkpt lat="36.72364" lon="28.22519">
        <ele>338.8</ele>
      </trkpt>
      <trkpt lat="36.72361" lon="28.22532">
        <ele>338.7</ele>
      </trkpt>
      <trkpt lat="36.72358" lon="28.22538">
        <ele>338.4</ele>
      </trkpt>
      <trkpt lat="36.72359" lon="28.22543">
        <ele>338.8</ele>
      </trkpt>
      <trkpt lat="36.72357" lon="28.22555">
        <ele>339.1</ele>
      </trkpt>
      <trkpt lat="36.72357" lon="28.22571">
        <ele>340</ele>
      </trkpt>
      <trkpt lat="36.72359" lon="28.2258">
        <ele>341.5</ele>
      </trkpt>
      <trkpt lat="36.72359" lon="28.22593">
        <ele>342.1</ele>
      </trkpt>
      <trkpt lat="36.7236" lon="28.22606">
        <ele>343</ele>
      </trkpt>
      <trkpt lat="36.7236" lon="28.22624">
        <ele>343.9</ele>
      </trkpt>
      <trkpt lat="36.72361" lon="28.22635">
        <ele>344.4</ele>
      </trkpt>
      <trkpt lat="36.72365" lon="28.22646">
        <ele>346.1</ele>
      </trkpt>
      <trkpt lat="36.72365" lon="28.22647">
        <ele>346.2</ele>
      </trkpt>
      <trkpt lat="36.72368" lon="28.22658">
        <ele>347.6</ele>
      </trkpt>
      <trkpt lat="36.72371" lon="28.2267">
        <ele>349.2</ele>
      </trkpt>
      <trkpt lat="36.72372" lon="28.22681">
        <ele>351</ele>
      </trkpt>
      <trkpt lat="36.72373" lon="28.22684">
        <ele>351.5</ele>
      </trkpt>
      <trkpt lat="36.72373" lon="28.22688">
        <ele>352.1</ele>
      </trkpt>
      <trkpt lat="36.72374" lon="28.227">
        <ele>354</ele>
      </trkpt>
      <trkpt lat="36.7237" lon="28.22711">
        <ele>354.3</ele>
      </trkpt>
      <trkpt lat="36.72368" lon="28.22723">
        <ele>355.4</ele>
      </trkpt>
      <trkpt lat="36.72368" lon="28.22725">
        <ele>355.6</ele>
      </trkpt>
      <trkpt lat="36.7237" lon="28.22732">
        <ele>357.1</ele>
      </trkpt>
      <trkpt lat="36.72372" lon="28.22742">
        <ele>358.9</ele>
      </trkpt>
      <trkpt lat="36.72371" lon="28.22745">
        <ele>359.2</ele>
      </trkpt>
      <trkpt lat="36.72371" lon="28.22752">
        <ele>359.9</ele>
      </trkpt>
      <trkpt lat="36.72371" lon="28.22753">
        <ele>360</ele>
      </trkpt>
      <trkpt lat="36.72373" lon="28.22761">
        <ele>360.8</ele>
      </trkpt>
      <trkpt lat="36.72375" lon="28.22773">
        <ele>361.9</ele>
      </trkpt>
      <trkpt lat="36.72375" lon="28.22776">
        <ele>362</ele>
      </trkpt>
      <trkpt lat="36.72376" lon="28.22787">
        <ele>362.7</ele>
      </trkpt>
      <trkpt lat="36.72379" lon="28.22803">
        <ele>364.2</ele>
      </trkpt>
      <trkpt lat="36.7238" lon="28.22811">
        <ele>364.8</ele>
      </trkpt>
      <trkpt lat="36.72383" lon="28.22823">
        <ele>366.2</ele>
      </trkpt>
      <trkpt lat="36.72387" lon="28.22836">
        <ele>367.5</ele>
      </trkpt>
      <trkpt lat="36.72392" lon="28.22847">
        <ele>367.8</ele>
      </trkpt>
      <trkpt lat="36.72398" lon="28.22858">
        <ele>368.7</ele>
      </trkpt>
      <trkpt lat="36.72402" lon="28.22871">
        <ele>368.7</ele>
      </trkpt>
      <trkpt lat="36.72405" lon="28.22878">
        <ele>369.1</ele>
      </trkpt>
      <trkpt lat="36.72406" lon="28.2289">
        <ele>368.5</ele>
      </trkpt>
      <trkpt lat="36.72406" lon="28.22893">
        <ele>368.1</ele>
      </trkpt>
      <trkpt lat="36.72404" lon="28.22903">
        <ele>366.5</ele>
      </trkpt>
      <trkpt lat="36.72406" lon="28.22917">
        <ele>366.1</ele>
      </trkpt>
      <trkpt lat="36.72408" lon="28.22927">
        <ele>363.8</ele>
      </trkpt>
      <trkpt lat="36.72414" lon="28.22941">
        <ele>361.9</ele>
      </trkpt>
      <trkpt lat="36.72418" lon="28.22955">
        <ele>359.4</ele>
      </trkpt>
      <trkpt lat="36.72423" lon="28.22965">
        <ele>359</ele>
      </trkpt>
      <trkpt lat="36.72431" lon="28.22974">
        <ele>360.6</ele>
      </trkpt>
      <trkpt lat="36.72433" lon="28.2298">
        <ele>359.9</ele>
      </trkpt>
      <trkpt lat="36.72434" lon="28.22991">
        <ele>357.4</ele>
      </trkpt>
      <trkpt lat="36.72435" lon="28.22994">
        <ele>356.8</ele>
      </trkpt>
      <trkpt lat="36.72437" lon="28.23007">
        <ele>351.9</ele>
      </trkpt>
      <trkpt lat="36.72443" lon="28.23018">
        <ele>348.7</ele>
      </trkpt>
      <trkpt lat="36.72447" lon="28.23023">
        <ele>348.2</ele>
      </trkpt>
      <trkpt lat="36.72458" lon="28.23038">
        <ele>345.8</ele>
      </trkpt>
      <trkpt lat="36.7247" lon="28.23044">
        <ele>349.4</ele>
      </trkpt>
      <trkpt lat="36.72481" lon="28.23048">
        <ele>354</ele>
      </trkpt>
      <trkpt lat="36.72488" lon="28.23054">
        <ele>355.2</ele>
      </trkpt>
      <trkpt lat="36.72498" lon="28.23059">
        <ele>359.5</ele>
      </trkpt>
      <trkpt lat="36.72509" lon="28.23068">
        <ele>359.4</ele>
      </trkpt>
      <trkpt lat="36.72516" lon="28.2307">
        <ele>360.6</ele>
      </trkpt>
      <trkpt lat="36.72518" lon="28.23075">
        <ele>359.3</ele>
      </trkpt>
      <trkpt lat="36.72519" lon="28.23077">
        <ele>359</ele>
      </trkpt>
      <trkpt lat="36.72522" lon="28.23081">
        <ele>358.4</ele>
      </trkpt>
      <trkpt lat="36.72524" lon="28.23086">
        <ele>356</ele>
      </trkpt>
      <trkpt lat="36.72536" lon="28.23091">
        <ele>357.7</ele>
      </trkpt>
      <trkpt lat="36.72544" lon="28.23098">
        <ele>356.5</ele>
      </trkpt>
      <trkpt lat="36.72544" lon="28.23098">
        <ele>355.6</ele>
      </trkpt>
      <trkpt lat="36.72543" lon="28.231">
        <ele>354.5</ele>
      </trkpt>
      <trkpt lat="36.72542" lon="28.23099">
        <ele>354.5</ele>
      </trkpt>
      <trkpt lat="36.7255" lon="28.23097">
        <ele>359.6</ele>
      </trkpt>
      <trkpt lat="36.72552" lon="28.23096">
        <ele>361.1</ele>
      </trkpt>
      <trkpt lat="36.72557" lon="28.23098">
        <ele>361.8</ele>
      </trkpt>
      <trkpt lat="36.72574" lon="28.23132">
        <ele>349.6</ele>
      </trkpt>
      <trkpt lat="36.72575" lon="28.23131">
        <ele>350.2</ele>
      </trkpt>
      <trkpt lat="36.72577" lon="28.23129">
        <ele>352.4</ele>
      </trkpt>
      <trkpt lat="36.7258" lon="28.23133">
        <ele>351.7</ele>
      </trkpt>
      <trkpt lat="36.72589" lon="28.23147">
        <ele>346.9</ele>
      </trkpt>
      <trkpt lat="36.72591" lon="28.23152">
        <ele>344.7</ele>
      </trkpt>
      <trkpt lat="36.72596" lon="28.23164">
        <ele>339.2</ele>
      </trkpt>
      <trkpt lat="36.72598" lon="28.23175">
        <ele>334.3</ele>
      </trkpt>
      <trkpt lat="36.72604" lon="28.23179">
        <ele>333.2</ele>
      </trkpt>
      <trkpt lat="36.72614" lon="28.23184">
        <ele>333.6</ele>
      </trkpt>
      <trkpt lat="36.72621" lon="28.23186">
        <ele>334.3</ele>
      </trkpt>
      <trkpt lat="36.72631" lon="28.23185">
        <ele>337.4</ele>
      </trkpt>
      <trkpt lat="36.72637" lon="28.23186">
        <ele>338.6</ele>
      </trkpt>
      <trkpt lat="36.7264" lon="28.23187">
        <ele>338.5</ele>
      </trkpt>
      <trkpt lat="36.72645" lon="28.23194">
        <ele>336.7</ele>
      </trkpt>
      <trkpt lat="36.72655" lon="28.23204">
        <ele>335.3</ele>
      </trkpt>
      <trkpt lat="36.72664" lon="28.23211">
        <ele>334.7</ele>
      </trkpt>
      <trkpt lat="36.7267" lon="28.23211">
        <ele>335.5</ele>
      </trkpt>
      <trkpt lat="36.72672" lon="28.23213">
        <ele>334.8</ele>
      </trkpt>
      <trkpt lat="36.72684" lon="28.2322">
        <ele>333.1</ele>
      </trkpt>
      <trkpt lat="36.72697" lon="28.23215">
        <ele>336</ele>
      </trkpt>
      <trkpt lat="36.72703" lon="28.23214">
        <ele>336.5</ele>
      </trkpt>
      <trkpt lat="36.72704" lon="28.23215">
        <ele>336.5</ele>
      </trkpt>
      <trkpt lat="36.72716" lon="28.23219">
        <ele>336.1</ele>
      </trkpt>
      <trkpt lat="36.72718" lon="28.23221">
        <ele>335.9</ele>
      </trkpt>
      <trkpt lat="36.72728" lon="28.23217">
        <ele>337.7</ele>
      </trkpt>
      <trkpt lat="36.72729" lon="28.23218">
        <ele>337.6</ele>
      </trkpt>
      <trkpt lat="36.72731" lon="28.23232">
        <ele>334.2</ele>
      </trkpt>
      <trkpt lat="36.72725" lon="28.23242">
        <ele>330.8</ele>
      </trkpt>
      <trkpt lat="36.72724" lon="28.23243">
        <ele>330.4</ele>
      </trkpt>
      <trkpt lat="36.72719" lon="28.2326">
        <ele>328.1</ele>
      </trkpt>
      <trkpt lat="36.7272" lon="28.23271">
        <ele>328.5</ele>
      </trkpt>
      <trkpt lat="36.72721" lon="28.23275">
        <ele>328.7</ele>
      </trkpt>
      <trkpt lat="36.72724" lon="28.23288">
        <ele>329.6</ele>
      </trkpt>
      <trkpt lat="36.72735" lon="28.23293">
        <ele>331.5</ele>
      </trkpt>
      <trkpt lat="36.72741" lon="28.23306">
        <ele>332.8</ele>
      </trkpt>
      <trkpt lat="36.72745" lon="28.2332">
        <ele>333.8</ele>
      </trkpt>
      <trkpt lat="36.72746" lon="28.2333">
        <ele>334.3</ele>
      </trkpt>
      <trkpt lat="36.72746" lon="28.23334">
        <ele>334.4</ele>
      </trkpt>
      <trkpt lat="36.72742" lon="28.23351">
        <ele>335</ele>
      </trkpt>
      <trkpt lat="36.72737" lon="28.23367">
        <ele>335.5</ele>
      </trkpt>
      <trkpt lat="36.72736" lon="28.2338">
        <ele>336.2</ele>
      </trkpt>
      <trkpt lat="36.72741" lon="28.23389">
        <ele>337.6</ele>
      </trkpt>
      <trkpt lat="36.72743" lon="28.23398">
        <ele>338.7</ele>
      </trkpt>
      <trkpt lat="36.72744" lon="28.23399">
        <ele>338.9</ele>
      </trkpt>
      <trkpt lat="36.72747" lon="28.23409">
        <ele>340</ele>
      </trkpt>
      <trkpt lat="36.72755" lon="28.23424">
        <ele>343.3</ele>
      </trkpt>
      <trkpt lat="36.72755" lon="28.23426">
        <ele>343.5</ele>
      </trkpt>
      <trkpt lat="36.72754" lon="28.23445">
        <ele>344.6</ele>
      </trkpt>
      <trkpt lat="36.72755" lon="28.23452">
        <ele>345.3</ele>
      </trkpt>
      <trkpt lat="36.72755" lon="28.23451">
        <ele>345.2</ele>
      </trkpt>
      <trkpt lat="36.72754" lon="28.23454">
        <ele>345.1</ele>
      </trkpt>
      <trkpt lat="36.72754" lon="28.23454">
        <ele>345.1</ele>
      </trkpt>
      <trkpt lat="36.72753" lon="28.23471">
        <ele>346</ele>
      </trkpt>
      <trkpt lat="36.72755" lon="28.23478">
        <ele>347.3</ele>
      </trkpt>
      <trkpt lat="36.72757" lon="28.2349">
        <ele>349.1</ele>
      </trkpt>
      <trkpt lat="36.72756" lon="28.23502">
        <ele>349.7</ele>
      </trkpt>
      <trkpt lat="36.72757" lon="28.23503">
        <ele>349.9</ele>
      </trkpt>
      <trkpt lat="36.72752" lon="28.23517">
        <ele>348</ele>
      </trkpt>
      <trkpt lat="36.7275" lon="28.23533">
        <ele>347.6</ele>
      </trkpt>
      <trkpt lat="36.72748" lon="28.23543">
        <ele>347</ele>
      </trkpt>
      <trkpt lat="36.72748" lon="28.2356">
        <ele>347.1</ele>
      </trkpt>
      <trkpt lat="36.72747" lon="28.23574">
        <ele>346.8</ele>
      </trkpt>
      <trkpt lat="36.72746" lon="28.23589">
        <ele>346.3</ele>
      </trkpt>
      <trkpt lat="36.72746" lon="28.23608">
        <ele>344.8</ele>
      </trkpt>
      <trkpt lat="36.72749" lon="28.23617">
        <ele>344.9</ele>
      </trkpt>
      <trkpt lat="36.72747" lon="28.23624">
        <ele>343.8</ele>
      </trkpt>
      <trkpt lat="36.72746" lon="28.2364">
        <ele>342.1</ele>
      </trkpt>
      <trkpt lat="36.72749" lon="28.23652">
        <ele>341.9</ele>
      </trkpt>
      <trkpt lat="36.72757" lon="28.2367">
        <ele>342.7</ele>
      </trkpt>
      <trkpt lat="36.72759" lon="28.23673">
        <ele>343.1</ele>
      </trkpt>
      <trkpt lat="36.72765" lon="28.23693">
        <ele>342.2</ele>
      </trkpt>
      <trkpt lat="36.7277" lon="28.23698">
        <ele>342.8</ele>
      </trkpt>
      <trkpt lat="36.72775" lon="28.23704">
        <ele>343.1</ele>
      </trkpt>
      <trkpt lat="36.72778" lon="28.23716">
        <ele>341.6</ele>
      </trkpt>
      <trkpt lat="36.7278" lon="28.23728">
        <ele>340</ele>
      </trkpt>
      <trkpt lat="36.72788" lon="28.23744">
        <ele>338.2</ele>
      </trkpt>
      <trkpt lat="36.72788" lon="28.23748">
        <ele>337.6</ele>
      </trkpt>
      <trkpt lat="36.7279" lon="28.23756">
        <ele>336.4</ele>
      </trkpt>
      <trkpt lat="36.72795" lon="28.23766">
        <ele>335</ele>
      </trkpt>
      <trkpt lat="36.72797" lon="28.2377">
        <ele>334.3</ele>
      </trkpt>
      <trkpt lat="36.72803" lon="28.23774">
        <ele>333.7</ele>
      </trkpt>
      <trkpt lat="36.72804" lon="28.23774">
        <ele>333.8</ele>
      </trkpt>
      <trkpt lat="36.72811" lon="28.23776">
        <ele>333.6</ele>
      </trkpt>
      <trkpt lat="36.7282" lon="28.23778">
        <ele>333.3</ele>
      </trkpt>
      <trkpt lat="36.72832" lon="28.2378">
        <ele>333.1</ele>
      </trkpt>
      <trkpt lat="36.72842" lon="28.23777">
        <ele>332.1</ele>
      </trkpt>
      <trkpt lat="36.7285" lon="28.23779">
        <ele>330.2</ele>
      </trkpt>
      <trkpt lat="36.72859" lon="28.23775">
        <ele>329.3</ele>
      </trkpt>
      <trkpt lat="36.72861" lon="28.23779">
        <ele>327.8</ele>
      </trkpt>
      <trkpt lat="36.72872" lon="28.23779">
        <ele>325.4</ele>
      </trkpt>
      <trkpt lat="36.72884" lon="28.23779">
        <ele>323.2</ele>
      </trkpt>
      <trkpt lat="36.72894" lon="28.23775">
        <ele>322.4</ele>
      </trkpt>
      <trkpt lat="36.72902" lon="28.23771">
        <ele>322.3</ele>
      </trkpt>
      <trkpt lat="36.72902" lon="28.2377">
        <ele>322.3</ele>
      </trkpt>
      <trkpt lat="36.72905" lon="28.23766">
        <ele>323.2</ele>
      </trkpt>
      <trkpt lat="36.72909" lon="28.23767">
        <ele>322</ele>
      </trkpt>
      <trkpt lat="36.72914" lon="28.23769">
        <ele>320.5</ele>
      </trkpt>
      <trkpt lat="36.72919" lon="28.23766">
        <ele>320.5</ele>
      </trkpt>
      <trkpt lat="36.72925" lon="28.23768">
        <ele>319.2</ele>
      </trkpt>
      <trkpt lat="36.72927" lon="28.23769">
        <ele>318.5</ele>
      </trkpt>
      <trkpt lat="36.72929" lon="28.23776">
        <ele>316.1</ele>
      </trkpt>
      <trkpt lat="36.72933" lon="28.2378">
        <ele>314.1</ele>
      </trkpt>
      <trkpt lat="36.72938" lon="28.23782">
        <ele>312.8</ele>
      </trkpt>
      <trkpt lat="36.72942" lon="28.23784">
        <ele>311.8</ele>
      </trkpt>
      <trkpt lat="36.72955" lon="28.23786">
        <ele>309.4</ele>
      </trkpt>
      <trkpt lat="36.72966" lon="28.23782">
        <ele>309.1</ele>
      </trkpt>
      <trkpt lat="36.72967" lon="28.23779">
        <ele>310</ele>
      </trkpt>
      <trkpt lat="36.7298" lon="28.23781">
        <ele>307.7</ele>
      </trkpt>
      <trkpt lat="36.72981" lon="28.23777">
        <ele>308.7</ele>
      </trkpt>
      <trkpt lat="36.72984" lon="28.23772">
        <ele>309.8</ele>
      </trkpt>
      <trkpt lat="36.72989" lon="28.23769">
        <ele>310</ele>
      </trkpt>
      <trkpt lat="36.72997" lon="28.23767">
        <ele>309.4</ele>
      </trkpt>
      <trkpt lat="36.73011" lon="28.2377">
        <ele>306.4</ele>
      </trkpt>
      <trkpt lat="36.73015" lon="28.23777">
        <ele>303.9</ele>
      </trkpt>
      <trkpt lat="36.73025" lon="28.2377">
        <ele>304.2</ele>
      </trkpt>
      <trkpt lat="36.73032" lon="28.23777">
        <ele>301.2</ele>
      </trkpt>
      <trkpt lat="36.73036" lon="28.23786">
        <ele>297.8</ele>
      </trkpt>
      <trkpt lat="36.73045" lon="28.23789">
        <ele>295.4</ele>
      </trkpt>
      <trkpt lat="36.73059" lon="28.23784">
        <ele>294.8</ele>
      </trkpt>
      <trkpt lat="36.73065" lon="28.23781">
        <ele>294.7</ele>
      </trkpt>
      <trkpt lat="36.73069" lon="28.23784">
        <ele>293.3</ele>
      </trkpt>
      <trkpt lat="36.73075" lon="28.23782">
        <ele>292.8</ele>
      </trkpt>
      <trkpt lat="36.7308" lon="28.23778">
        <ele>293.3</ele>
      </trkpt>
      <trkpt lat="36.73082" lon="28.23777">
        <ele>293.1</ele>
      </trkpt>
      <trkpt lat="36.73088" lon="28.23778">
        <ele>293</ele>
      </trkpt>
      <trkpt lat="36.7309" lon="28.23779">
        <ele>293</ele>
      </trkpt>
      <trkpt lat="36.73102" lon="28.23778">
        <ele>294.5</ele>
      </trkpt>
      <trkpt lat="36.73113" lon="28.23777">
        <ele>295.8</ele>
      </trkpt>
      <trkpt lat="36.73121" lon="28.23777">
        <ele>297</ele>
      </trkpt>
      <trkpt lat="36.7313" lon="28.23781">
        <ele>296.6</ele>
      </trkpt>
      <trkpt lat="36.7314" lon="28.23783">
        <ele>296.7</ele>
      </trkpt>
      <trkpt lat="36.73145" lon="28.23797">
        <ele>292.7</ele>
      </trkpt>
      <trkpt lat="36.73152" lon="28.23798">
        <ele>292.9</ele>
      </trkpt>
      <trkpt lat="36.73157" lon="28.23802">
        <ele>292</ele>
      </trkpt>
      <trkpt lat="36.73169" lon="28.238">
        <ele>294</ele>
      </trkpt>
      <trkpt lat="36.7317" lon="28.238">
        <ele>294.2</ele>
      </trkpt>
      <trkpt lat="36.73174" lon="28.23811">
        <ele>291.5</ele>
      </trkpt>
      <trkpt lat="36.73184" lon="28.23817">
        <ele>291.8</ele>
      </trkpt>
      <trkpt lat="36.73195" lon="28.23813">
        <ele>296</ele>
      </trkpt>
      <trkpt lat="36.73196" lon="28.23813">
        <ele>296.3</ele>
      </trkpt>
      <trkpt lat="36.73204" lon="28.23817">
        <ele>297</ele>
      </trkpt>
      <trkpt lat="36.73213" lon="28.23819">
        <ele>298.5</ele>
      </trkpt>
      <trkpt lat="36.73219" lon="28.23827">
        <ele>297.4</ele>
      </trkpt>
      <trkpt lat="36.73226" lon="28.23834">
        <ele>296.8</ele>
      </trkpt>
      <trkpt lat="36.73231" lon="28.23838">
        <ele>296.8</ele>
      </trkpt>
      <trkpt lat="36.73236" lon="28.23847">
        <ele>296.1</ele>
      </trkpt>
      <trkpt lat="36.7324" lon="28.23855">
        <ele>294.8</ele>
      </trkpt>
      <trkpt lat="36.73245" lon="28.23867">
        <ele>293</ele>
      </trkpt>
      <trkpt lat="36.73249" lon="28.23879">
        <ele>291.4</ele>
      </trkpt>
      <trkpt lat="36.73257" lon="28.23891">
        <ele>291.6</ele>
      </trkpt>
      <trkpt lat="36.73262" lon="28.23907">
        <ele>289.9</ele>
      </trkpt>
      <trkpt lat="36.73262" lon="28.23908">
        <ele>289.4</ele>
      </trkpt>
      <trkpt lat="36.73254" lon="28.23905">
        <ele>286.8</ele>
      </trkpt>
      <trkpt lat="36.73251" lon="28.23905">
        <ele>285.3</ele>
      </trkpt>
      <trkpt lat="36.73244" lon="28.23913">
        <ele>281.1</ele>
      </trkpt>
      <trkpt lat="36.73242" lon="28.23927">
        <ele>278.2</ele>
      </trkpt>
      <trkpt lat="36.73239" lon="28.23933">
        <ele>276.6</ele>
      </trkpt>
      <trkpt lat="36.73238" lon="28.23941">
        <ele>275.4</ele>
      </trkpt>
      <trkpt lat="36.7324" lon="28.23944">
        <ele>275.7</ele>
      </trkpt>
      <trkpt lat="36.73244" lon="28.23946">
        <ele>276.8</ele>
      </trkpt>
      <trkpt lat="36.73245" lon="28.23953">
        <ele>276</ele>
      </trkpt>
      <trkpt lat="36.7325" lon="28.23963">
        <ele>276.6</ele>
      </trkpt>
      <trkpt lat="36.73257" lon="28.23962">
        <ele>279</ele>
      </trkpt>
      <trkpt lat="36.73264" lon="28.23967">
        <ele>280.6</ele>
      </trkpt>
      <trkpt lat="36.73268" lon="28.23965">
        <ele>282.5</ele>
      </trkpt>
      <trkpt lat="36.73266" lon="28.23957">
        <ele>282.8</ele>
      </trkpt>
      <trkpt lat="36.73271" lon="28.23961">
        <ele>284</ele>
      </trkpt>
      <trkpt lat="36.73283" lon="28.23974">
        <ele>285.8</ele>
      </trkpt>
      <trkpt lat="36.73289" lon="28.23993">
        <ele>283.8</ele>
      </trkpt>
      <trkpt lat="36.73287" lon="28.24">
        <ele>281.8</ele>
      </trkpt>
      <trkpt lat="36.73289" lon="28.24011">
        <ele>279.6</ele>
      </trkpt>
      <trkpt lat="36.73293" lon="28.24022">
        <ele>277.9</ele>
      </trkpt>
      <trkpt lat="36.73302" lon="28.24029">
        <ele>278.1</ele>
      </trkpt>
      <trkpt lat="36.73313" lon="28.24029">
        <ele>280.5</ele>
      </trkpt>
      <trkpt lat="36.73314" lon="28.24029">
        <ele>280.7</ele>
      </trkpt>
      <trkpt lat="36.73326" lon="28.24036">
        <ele>281.2</ele>
      </trkpt>
      <trkpt lat="36.73333" lon="28.24035">
        <ele>283.1</ele>
      </trkpt>
      <trkpt lat="36.73337" lon="28.24037">
        <ele>283.3</ele>
      </trkpt>
      <trkpt lat="36.73343" lon="28.24042">
        <ele>283</ele>
      </trkpt>
      <trkpt lat="36.73351" lon="28.24041">
        <ele>285.2</ele>
      </trkpt>
      <trkpt lat="36.73352" lon="28.24043">
        <ele>285</ele>
      </trkpt>
      <trkpt lat="36.73358" lon="28.24055">
        <ele>282.5</ele>
      </trkpt>
      <trkpt lat="36.73365" lon="28.2406">
        <ele>282.9</ele>
      </trkpt>
      <trkpt lat="36.73374" lon="28.24063">
        <ele>283.9</ele>
      </trkpt>
      <trkpt lat="36.73386" lon="28.24065">
        <ele>286</ele>
      </trkpt>
      <trkpt lat="36.734" lon="28.24067">
        <ele>289</ele>
      </trkpt>
      <trkpt lat="36.73401" lon="28.24067">
        <ele>289.2</ele>
      </trkpt>
      <trkpt lat="36.73415" lon="28.2407">
        <ele>291.5</ele>
      </trkpt>
      <trkpt lat="36.73416" lon="28.24075">
        <ele>290.4</ele>
      </trkpt>
      <trkpt lat="36.7342" lon="28.24078">
        <ele>290.3</ele>
      </trkpt>
      <trkpt lat="36.73429" lon="28.24083">
        <ele>291.3</ele>
      </trkpt>
      <trkpt lat="36.73435" lon="28.2408">
        <ele>293.7</ele>
      </trkpt>
      <trkpt lat="36.73445" lon="28.24084">
        <ele>295.1</ele>
      </trkpt>
      <trkpt lat="36.73458" lon="28.24081">
        <ele>299</ele>
      </trkpt>
      <trkpt lat="36.73465" lon="28.24075">
        <ele>302.1</ele>
      </trkpt>
      <trkpt lat="36.73474" lon="28.24081">
        <ele>302.7</ele>
      </trkpt>
      <trkpt lat="36.73478" lon="28.24078">
        <ele>304.4</ele>
      </trkpt>
      <trkpt lat="36.73478" lon="28.24087">
        <ele>303.4</ele>
      </trkpt>
      <trkpt lat="36.73463" lon="28.24105">
        <ele>298.1</ele>
      </trkpt>
      <trkpt lat="36.73465" lon="28.24114">
        <ele>298.1</ele>
      </trkpt>
      <trkpt lat="36.73461" lon="28.24126">
        <ele>295.7</ele>
      </trkpt>
      <trkpt lat="36.73462" lon="28.24127">
        <ele>295.8</ele>
      </trkpt>
      <trkpt lat="36.73462" lon="28.2414">
        <ele>295</ele>
      </trkpt>
      <trkpt lat="36.7346" lon="28.24148">
        <ele>293.6</ele>
      </trkpt>
      <trkpt lat="36.73462" lon="28.2416">
        <ele>293.2</ele>
      </trkpt>
      <trkpt lat="36.73456" lon="28.2417">
        <ele>289.4</ele>
      </trkpt>
      <trkpt lat="36.73457" lon="28.24185">
        <ele>289.2</ele>
      </trkpt>
      <trkpt lat="36.73458" lon="28.24189">
        <ele>289.4</ele>
      </trkpt>
      <trkpt lat="36.73454" lon="28.24196">
        <ele>287.2</ele>
      </trkpt>
      <trkpt lat="36.73459" lon="28.24208">
        <ele>289.1</ele>
      </trkpt>
      <trkpt lat="36.73465" lon="28.24227">
        <ele>290.7</ele>
      </trkpt>
      <trkpt lat="36.73463" lon="28.24236">
        <ele>289.6</ele>
      </trkpt>
      <trkpt lat="36.7346" lon="28.2425">
        <ele>286.8</ele>
      </trkpt>
      <trkpt lat="36.73456" lon="28.24262">
        <ele>286.2</ele>
      </trkpt>
      <trkpt lat="36.73451" lon="28.24275">
        <ele>284.9</ele>
      </trkpt>
      <trkpt lat="36.73445" lon="28.24284">
        <ele>283</ele>
      </trkpt>
      <trkpt lat="36.73435" lon="28.24299">
        <ele>278.9</ele>
      </trkpt>
      <trkpt lat="36.73426" lon="28.24305">
        <ele>274.5</ele>
      </trkpt>
      <trkpt lat="36.73425" lon="28.24312">
        <ele>274.3</ele>
      </trkpt>
      <trkpt lat="36.73425" lon="28.24324">
        <ele>276</ele>
      </trkpt>
      <trkpt lat="36.73429" lon="28.24336">
        <ele>279.1</ele>
      </trkpt>
      <trkpt lat="36.73439" lon="28.24351">
        <ele>282.8</ele>
      </trkpt>
      <trkpt lat="36.73443" lon="28.24359">
        <ele>284</ele>
      </trkpt>
      <trkpt lat="36.73443" lon="28.24377">
        <ele>282</ele>
      </trkpt>
      <trkpt lat="36.73445" lon="28.24387">
        <ele>281.7</ele>
      </trkpt>
      <trkpt lat="36.7345" lon="28.24405">
        <ele>282.8</ele>
      </trkpt>
      <trkpt lat="36.73453" lon="28.24412">
        <ele>284.3</ele>
      </trkpt>
      <trkpt lat="36.73456" lon="28.24423">
        <ele>285.7</ele>
      </trkpt>
      <trkpt lat="36.73457" lon="28.24439">
        <ele>283.9</ele>
      </trkpt>
      <trkpt lat="36.73457" lon="28.24444">
        <ele>283.6</ele>
      </trkpt>
      <trkpt lat="36.73453" lon="28.24458">
        <ele>278.4</ele>
      </trkpt>
      <trkpt lat="36.73453" lon="28.24463">
        <ele>277.2</ele>
      </trkpt>
      <trkpt lat="36.73451" lon="28.24478">
        <ele>274</ele>
      </trkpt>
      <trkpt lat="36.7345" lon="28.24494">
        <ele>270.1</ele>
      </trkpt>
      <trkpt lat="36.73452" lon="28.24501">
        <ele>271.1</ele>
      </trkpt>
      <trkpt lat="36.7345" lon="28.24516">
        <ele>268.3</ele>
      </trkpt>
      <trkpt lat="36.73446" lon="28.24533">
        <ele>262.7</ele>
      </trkpt>
      <trkpt lat="36.73448" lon="28.24545">
        <ele>263.3</ele>
      </trkpt>
      <trkpt lat="36.73449" lon="28.24548">
        <ele>263.7</ele>
      </trkpt>
      <trkpt lat="36.73454" lon="28.24555">
        <ele>266.6</ele>
      </trkpt>
      <trkpt lat="36.73456" lon="28.24559">
        <ele>268.3</ele>
      </trkpt>
      <trkpt lat="36.73462" lon="28.24579">
        <ele>270.1</ele>
      </trkpt>
      <trkpt lat="36.73462" lon="28.24578">
        <ele>270</ele>
      </trkpt>
      <trkpt lat="36.73458" lon="28.24586">
        <ele>266.1</ele>
      </trkpt>
      <trkpt lat="36.73456" lon="28.246">
        <ele>261.5</ele>
      </trkpt>
      <trkpt lat="36.73453" lon="28.24599">
        <ele>259.6</ele>
      </trkpt>
      <trkpt lat="36.73453" lon="28.24601">
        <ele>259.3</ele>
      </trkpt>
      <trkpt lat="36.73461" lon="28.24618">
        <ele>261.5</ele>
      </trkpt>
      <trkpt lat="36.73464" lon="28.24624">
        <ele>262.2</ele>
      </trkpt>
      <trkpt lat="36.73473" lon="28.24627">
        <ele>268.1</ele>
      </trkpt>
      <trkpt lat="36.73479" lon="28.24634">
        <ele>271.3</ele>
      </trkpt>
      <trkpt lat="36.73482" lon="28.24636">
        <ele>273.2</ele>
      </trkpt>
      <trkpt lat="36.73482" lon="28.24636">
        <ele>273.2</ele>
      </trkpt>
      <trkpt lat="36.73491" lon="28.24641">
        <ele>278.6</ele>
      </trkpt>
      <trkpt lat="36.73492" lon="28.24642">
        <ele>278.8</ele>
      </trkpt>
      <trkpt lat="36.73501" lon="28.24644">
        <ele>284.7</ele>
      </trkpt>
      <trkpt lat="36.73507" lon="28.24648">
        <ele>285.3</ele>
      </trkpt>
      <trkpt lat="36.73519" lon="28.24659">
        <ele>285.6</ele>
      </trkpt>
      <trkpt lat="36.73521" lon="28.2466">
        <ele>285.6</ele>
      </trkpt>
      <trkpt lat="36.73534" lon="28.24665">
        <ele>287.3</ele>
      </trkpt>
      <trkpt lat="36.73541" lon="28.2467">
        <ele>287.2</ele>
      </trkpt>
      <trkpt lat="36.73541" lon="28.2467">
        <ele>287.4</ele>
      </trkpt>
      <trkpt lat="36.73544" lon="28.24667">
        <ele>289</ele>
      </trkpt>
      <trkpt lat="36.73546" lon="28.24671">
        <ele>288.1</ele>
      </trkpt>
      <trkpt lat="36.73547" lon="28.24682">
        <ele>284.5</ele>
      </trkpt>
      <trkpt lat="36.73549" lon="28.24694">
        <ele>281.2</ele>
      </trkpt>
      <trkpt lat="36.73558" lon="28.247">
        <ele>281.2</ele>
      </trkpt>
      <trkpt lat="36.73564" lon="28.24715">
        <ele>277.9</ele>
      </trkpt>
      <trkpt lat="36.73567" lon="28.24717">
        <ele>277.8</ele>
      </trkpt>
      <trkpt lat="36.73568" lon="28.24719">
        <ele>277.3</ele>
      </trkpt>
      <trkpt lat="36.73568" lon="28.24725">
        <ele>275.4</ele>
      </trkpt>
      <trkpt lat="36.73569" lon="28.24739">
        <ele>271</ele>
      </trkpt>
      <trkpt lat="36.73569" lon="28.24751">
        <ele>267.3</ele>
      </trkpt>
      <trkpt lat="36.73571" lon="28.2475">
        <ele>268</ele>
      </trkpt>
      <trkpt lat="36.73573" lon="28.24754">
        <ele>267.6</ele>
      </trkpt>
      <trkpt lat="36.73572" lon="28.24753">
        <ele>267.5</ele>
      </trkpt>
      <trkpt lat="36.73572" lon="28.24751">
        <ele>267.8</ele>
      </trkpt>
      <trkpt lat="36.73573" lon="28.24754">
        <ele>267.5</ele>
      </trkpt>
      <trkpt lat="36.73569" lon="28.24759">
        <ele>265.5</ele>
      </trkpt>
      <trkpt lat="36.73569" lon="28.24768">
        <ele>263</ele>
      </trkpt>
      <trkpt lat="36.73568" lon="28.24777">
        <ele>260.7</ele>
      </trkpt>
      <trkpt lat="36.73567" lon="28.24776">
        <ele>260.4</ele>
      </trkpt>
      <trkpt lat="36.73568" lon="28.24776">
        <ele>260.8</ele>
      </trkpt>
      <trkpt lat="36.73569" lon="28.24781">
        <ele>259.8</ele>
      </trkpt>
      <trkpt lat="36.73567" lon="28.24789">
        <ele>257.2</ele>
      </trkpt>
      <trkpt lat="36.73566" lon="28.24793">
        <ele>255.7</ele>
      </trkpt>
      <trkpt lat="36.73565" lon="28.24799">
        <ele>254</ele>
      </trkpt>
      <trkpt lat="36.73565" lon="28.248">
        <ele>253.6</ele>
      </trkpt>
      <trkpt lat="36.73564" lon="28.24804">
        <ele>252.2</ele>
      </trkpt>
      <trkpt lat="36.73562" lon="28.2481">
        <ele>249.6</ele>
      </trkpt>
      <trkpt lat="36.73567" lon="28.24813">
        <ele>251.1</ele>
      </trkpt>
      <trkpt lat="36.73568" lon="28.24814">
        <ele>251.4</ele>
      </trkpt>
      <trkpt lat="36.73571" lon="28.24821">
        <ele>251.4</ele>
      </trkpt>
      <trkpt lat="36.73581" lon="28.24827">
        <ele>255.1</ele>
      </trkpt>
      <trkpt lat="36.73586" lon="28.2483">
        <ele>255.7</ele>
      </trkpt>
      <trkpt lat="36.73589" lon="28.24834">
        <ele>254.8</ele>
      </trkpt>
      <trkpt lat="36.73589" lon="28.24834">
        <ele>254.8</ele>
      </trkpt>
      <trkpt lat="36.7359" lon="28.24838">
        <ele>252.5</ele>
      </trkpt>
      <trkpt lat="36.73595" lon="28.24842">
        <ele>250</ele>
      </trkpt>
      <trkpt lat="36.73594" lon="28.24844">
        <ele>248.6</ele>
      </trkpt>
      <trkpt lat="36.73604" lon="28.24845">
        <ele>248.7</ele>
      </trkpt>
      <trkpt lat="36.73604" lon="28.24846">
        <ele>248</ele>
      </trkpt>
      <trkpt lat="36.73608" lon="28.24841">
        <ele>251</ele>
      </trkpt>
      <trkpt lat="36.73615" lon="28.24833">
        <ele>255.8</ele>
      </trkpt>
      <trkpt lat="36.73616" lon="28.24833">
        <ele>255.7</ele>
      </trkpt>
      <trkpt lat="36.73617" lon="28.24833">
        <ele>255.9</ele>
      </trkpt>
      <trkpt lat="36.7362" lon="28.24832">
        <ele>256.2</ele>
      </trkpt>
      <trkpt lat="36.73624" lon="28.2483">
        <ele>256.9</ele>
      </trkpt>
      <trkpt lat="36.73624" lon="28.24835">
        <ele>255.1</ele>
      </trkpt>
      <trkpt lat="36.73629" lon="28.2484">
        <ele>252.9</ele>
      </trkpt>
      <trkpt lat="36.73634" lon="28.24838">
        <ele>253.7</ele>
      </trkpt>
      <trkpt lat="36.73639" lon="28.24843">
        <ele>251.8</ele>
      </trkpt>
      <trkpt lat="36.7364" lon="28.24843">
        <ele>251.5</ele>
      </trkpt>
      <trkpt lat="36.73641" lon="28.24842">
        <ele>252.4</ele>
      </trkpt>
      <trkpt lat="36.73648" lon="28.24854">
        <ele>247.2</ele>
      </trkpt>
      <trkpt lat="36.7365" lon="28.2486">
        <ele>244.3</ele>
      </trkpt>
      <trkpt lat="36.73659" lon="28.24853">
        <ele>248.5</ele>
      </trkpt>
      <trkpt lat="36.73662" lon="28.24852">
        <ele>249.1</ele>
      </trkpt>
      <trkpt lat="36.73665" lon="28.24849">
        <ele>250.4</ele>
      </trkpt>
      <trkpt lat="36.73664" lon="28.2486">
        <ele>245.9</ele>
      </trkpt>
      <trkpt lat="36.73673" lon="28.24862">
        <ele>246.8</ele>
      </trkpt>
      <trkpt lat="36.73676" lon="28.24866">
        <ele>245.7</ele>
      </trkpt>
      <trkpt lat="36.73677" lon="28.24865">
        <ele>246.4</ele>
      </trkpt>
      <trkpt lat="36.73682" lon="28.24874">
        <ele>243.8</ele>
      </trkpt>
      <trkpt lat="36.73684" lon="28.24878">
        <ele>242.8</ele>
      </trkpt>
      <trkpt lat="36.73686" lon="28.24883">
        <ele>241.5</ele>
      </trkpt>
      <trkpt lat="36.73684" lon="28.24883">
        <ele>240.8</ele>
      </trkpt>
      <trkpt lat="36.73682" lon="28.24884">
        <ele>239.8</ele>
      </trkpt>
      <trkpt lat="36.73677" lon="28.24886">
        <ele>238.3</ele>
      </trkpt>
      <trkpt lat="36.73678" lon="28.24889">
        <ele>237</ele>
      </trkpt>
      <trkpt lat="36.73678" lon="28.24884">
        <ele>239</ele>
      </trkpt>
      <trkpt lat="36.73676" lon="28.24884">
        <ele>238.6</ele>
      </trkpt>
      <trkpt lat="36.73679" lon="28.24895">
        <ele>234.9</ele>
      </trkpt>
      <trkpt lat="36.73677" lon="28.24906">
        <ele>230</ele>
      </trkpt>
      <trkpt lat="36.73682" lon="28.24909">
        <ele>230.1</ele>
      </trkpt>
      <trkpt lat="36.73683" lon="28.24917">
        <ele>227.2</ele>
      </trkpt>
      <trkpt lat="36.73686" lon="28.24922">
        <ele>227</ele>
      </trkpt>
      <trkpt lat="36.73683" lon="28.24922">
        <ele>226</ele>
      </trkpt>
      <trkpt lat="36.73682" lon="28.24922">
        <ele>225.7</ele>
      </trkpt>
      <trkpt lat="36.73678" lon="28.2492">
        <ele>225.1</ele>
      </trkpt>
      <trkpt lat="36.73678" lon="28.24921">
        <ele>224.8</ele>
      </trkpt>
      <trkpt lat="36.73674" lon="28.2492">
        <ele>224.1</ele>
      </trkpt>
      <trkpt lat="36.73677" lon="28.24932">
        <ele>221.8</ele>
      </trkpt>
      <trkpt lat="36.73681" lon="28.24939">
        <ele>221.4</ele>
      </trkpt>
      <trkpt lat="36.73683" lon="28.24939">
        <ele>222</ele>
      </trkpt>
      <trkpt lat="36.73683" lon="28.24941">
        <ele>221.3</ele>
      </trkpt>
      <trkpt lat="36.73676" lon="28.24943">
        <ele>218.7</ele>
      </trkpt>
      <trkpt lat="36.73674" lon="28.24946">
        <ele>217.5</ele>
      </trkpt>
      <trkpt lat="36.73673" lon="28.24952">
        <ele>215.7</ele>
      </trkpt>
      <trkpt lat="36.73672" lon="28.24961">
        <ele>212.9</ele>
      </trkpt>
      <trkpt lat="36.7367" lon="28.24963">
        <ele>211.8</ele>
      </trkpt>
      <trkpt lat="36.73667" lon="28.24962">
        <ele>211.1</ele>
      </trkpt>
      <trkpt lat="36.73664" lon="28.24964">
        <ele>209.9</ele>
      </trkpt>
      <trkpt lat="36.73657" lon="28.24971">
        <ele>205.9</ele>
      </trkpt>
      <trkpt lat="36.73658" lon="28.24968">
        <ele>207</ele>
      </trkpt>
      <trkpt lat="36.73661" lon="28.24963">
        <ele>209.1</ele>
      </trkpt>
      <trkpt lat="36.73653" lon="28.24967">
        <ele>205.7</ele>
      </trkpt>
      <trkpt lat="36.73652" lon="28.24967">
        <ele>205.4</ele>
      </trkpt>
      <trkpt lat="36.73651" lon="28.24969">
        <ele>204.4</ele>
      </trkpt>
      <trkpt lat="36.7365" lon="28.24974">
        <ele>202.7</ele>
      </trkpt>
      <trkpt lat="36.73646" lon="28.24979">
        <ele>200.3</ele>
      </trkpt>
      <trkpt lat="36.73639" lon="28.24991">
        <ele>194.9</ele>
      </trkpt>
      <trkpt lat="36.73636" lon="28.25">
        <ele>191.5</ele>
      </trkpt>
      <trkpt lat="36.73637" lon="28.24996">
        <ele>192.7</ele>
      </trkpt>
      <trkpt lat="36.73641" lon="28.24986">
        <ele>196.9</ele>
      </trkpt>
      <trkpt lat="36.73641" lon="28.24988">
        <ele>196.4</ele>
      </trkpt>
      <trkpt lat="36.73636" lon="28.24996">
        <ele>192.6</ele>
      </trkpt>
      <trkpt lat="36.73637" lon="28.25005">
        <ele>191.9</ele>
      </trkpt>
      <trkpt lat="36.73632" lon="28.25004">
        <ele>190.4</ele>
      </trkpt>
      <trkpt lat="36.73632" lon="28.25006">
        <ele>190.7</ele>
      </trkpt>
      <trkpt lat="36.73627" lon="28.25015">
        <ele>189.5</ele>
      </trkpt>
      <trkpt lat="36.73626" lon="28.25015">
        <ele>189.1</ele>
      </trkpt>
      <trkpt lat="36.7362" lon="28.25015">
        <ele>187.3</ele>
      </trkpt>
      <trkpt lat="36.73613" lon="28.25017">
        <ele>185.3</ele>
      </trkpt>
      <trkpt lat="36.73602" lon="28.25023">
        <ele>181.9</ele>
      </trkpt>
      <trkpt lat="36.73596" lon="28.25027">
        <ele>180.3</ele>
      </trkpt>
      <trkpt lat="36.73595" lon="28.25029">
        <ele>179.9</ele>
      </trkpt>
      <trkpt lat="36.73595" lon="28.25028">
        <ele>180.2</ele>
      </trkpt>
      <trkpt lat="36.73595" lon="28.2503">
        <ele>180</ele>
      </trkpt>
      <trkpt lat="36.7359" lon="28.25038">
        <ele>178.9</ele>
      </trkpt>
      <trkpt lat="36.7359" lon="28.25036">
        <ele>178.7</ele>
      </trkpt>
      <trkpt lat="36.73579" lon="28.25041">
        <ele>175.6</ele>
      </trkpt>
      <trkpt lat="36.73574" lon="28.25045">
        <ele>174.2</ele>
      </trkpt>
      <trkpt lat="36.73568" lon="28.25052">
        <ele>173</ele>
      </trkpt>
      <trkpt lat="36.73567" lon="28.25053">
        <ele>172.9</ele>
      </trkpt>
      <trkpt lat="36.73567" lon="28.25057">
        <ele>173.2</ele>
      </trkpt>
      <trkpt lat="36.73568" lon="28.25067">
        <ele>173.9</ele>
      </trkpt>
      <trkpt lat="36.73568" lon="28.25062">
        <ele>173.7</ele>
      </trkpt>
      <trkpt lat="36.73568" lon="28.25062">
        <ele>173.6</ele>
      </trkpt>
      <trkpt lat="36.73562" lon="28.25068">
        <ele>172.3</ele>
      </trkpt>
      <trkpt lat="36.7356" lon="28.25071">
        <ele>172</ele>
      </trkpt>
      <trkpt lat="36.73553" lon="28.25071">
        <ele>170.1</ele>
      </trkpt>
      <trkpt lat="36.73541" lon="28.25078">
        <ele>167.5</ele>
      </trkpt>
      <trkpt lat="36.73533" lon="28.25087">
        <ele>166.4</ele>
      </trkpt>
      <trkpt lat="36.73522" lon="28.25092">
        <ele>164.5</ele>
      </trkpt>
      <trkpt lat="36.73512" lon="28.25096">
        <ele>162.1</ele>
      </trkpt>
      <trkpt lat="36.73502" lon="28.25109">
        <ele>161.4</ele>
      </trkpt>
      <trkpt lat="36.73503" lon="28.25108">
        <ele>161.5</ele>
      </trkpt>
      <trkpt lat="36.73493" lon="28.25113">
        <ele>160.6</ele>
      </trkpt>
      <trkpt lat="36.73478" lon="28.2512">
        <ele>159.8</ele>
      </trkpt>
      <trkpt lat="36.73477" lon="28.2512">
        <ele>159.7</ele>
      </trkpt>
      <trkpt lat="36.73469" lon="28.2512">
        <ele>158.7</ele>
      </trkpt>
      <trkpt lat="36.73462" lon="28.25131">
        <ele>158.6</ele>
      </trkpt>
      <trkpt lat="36.7346" lon="28.25134">
        <ele>158.3</ele>
      </trkpt>
      <trkpt lat="36.73457" lon="28.25136">
        <ele>158</ele>
      </trkpt>
      <trkpt lat="36.73455" lon="28.2514">
        <ele>157.8</ele>
      </trkpt>
      <trkpt lat="36.73452" lon="28.25156">
        <ele>157.7</ele>
      </trkpt>
      <trkpt lat="36.73452" lon="28.25161">
        <ele>157.9</ele>
      </trkpt>
      <trkpt lat="36.73452" lon="28.25164">
        <ele>157.9</ele>
      </trkpt>
      <trkpt lat="36.7345" lon="28.25181">
        <ele>157</ele>
      </trkpt>
      <trkpt lat="36.73449" lon="28.2519">
        <ele>156.3</ele>
      </trkpt>
      <trkpt lat="36.73449" lon="28.2519">
        <ele>156.1</ele>
      </trkpt>
      <trkpt lat="36.73447" lon="28.25191">
        <ele>155.7</ele>
      </trkpt>
      <trkpt lat="36.73448" lon="28.25199">
        <ele>155.7</ele>
      </trkpt>
      <trkpt lat="36.73446" lon="28.25203">
        <ele>154.6</ele>
      </trkpt>
      <trkpt lat="36.73447" lon="28.25213">
        <ele>154.5</ele>
      </trkpt>
      <trkpt lat="36.73447" lon="28.25222">
        <ele>154.1</ele>
      </trkpt>
      <trkpt lat="36.7345" lon="28.25231">
        <ele>154.8</ele>
      </trkpt>
      <trkpt lat="36.73453" lon="28.25241">
        <ele>155.8</ele>
      </trkpt>
      <trkpt lat="36.73453" lon="28.25256">
        <ele>155.6</ele>
      </trkpt>
      <trkpt lat="36.73453" lon="28.25272">
        <ele>155.6</ele>
      </trkpt>
      <trkpt lat="36.73453" lon="28.25275">
        <ele>155.6</ele>
      </trkpt>
      <trkpt lat="36.7345" lon="28.25283">
        <ele>154</ele>
      </trkpt>
      <trkpt lat="36.73452" lon="28.2529">
        <ele>155</ele>
      </trkpt>
      <trkpt lat="36.73453" lon="28.25292">
        <ele>155.4</ele>
      </trkpt>
      <trkpt lat="36.73454" lon="28.25299">
        <ele>156.4</ele>
      </trkpt>
      <trkpt lat="36.73456" lon="28.25303">
        <ele>157.6</ele>
      </trkpt>
      <trkpt lat="36.73456" lon="28.25312">
        <ele>157.4</ele>
      </trkpt>
      <trkpt lat="36.73454" lon="28.25314">
        <ele>156.4</ele>
      </trkpt>
      <trkpt lat="36.73452" lon="28.25321">
        <ele>155.5</ele>
      </trkpt>
      <trkpt lat="36.73448" lon="28.2533">
        <ele>152.4</ele>
      </trkpt>
      <trkpt lat="36.73445" lon="28.25335">
        <ele>151</ele>
      </trkpt>
      <trkpt lat="36.73445" lon="28.25351">
        <ele>153.7</ele>
      </trkpt>
      <trkpt lat="36.73443" lon="28.25363">
        <ele>153.5</ele>
      </trkpt>
      <trkpt lat="36.73443" lon="28.25371">
        <ele>155.1</ele>
      </trkpt>
      <trkpt lat="36.73443" lon="28.25378">
        <ele>156.1</ele>
      </trkpt>
      <trkpt lat="36.73442" lon="28.25383">
        <ele>155.7</ele>
      </trkpt>
      <trkpt lat="36.73439" lon="28.25393">
        <ele>155.2</ele>
      </trkpt>
      <trkpt lat="36.73436" lon="28.25404">
        <ele>154</ele>
      </trkpt>
      <trkpt lat="36.73434" lon="28.25411">
        <ele>153.3</ele>
      </trkpt>
      <trkpt lat="36.73429" lon="28.2542">
        <ele>149.3</ele>
      </trkpt>
      <trkpt lat="36.73425" lon="28.25429">
        <ele>146</ele>
      </trkpt>
      <trkpt lat="36.7342" lon="28.25442">
        <ele>142.1</ele>
      </trkpt>
      <trkpt lat="36.73422" lon="28.25448">
        <ele>143.6</ele>
      </trkpt>
      <trkpt lat="36.73417" lon="28.25462">
        <ele>139.1</ele>
      </trkpt>
      <trkpt lat="36.73412" lon="28.25479">
        <ele>136.5</ele>
      </trkpt>
      <trkpt lat="36.73414" lon="28.2549">
        <ele>137.8</ele>
      </trkpt>
      <trkpt lat="36.73412" lon="28.25502">
        <ele>136.4</ele>
      </trkpt>
      <trkpt lat="36.73413" lon="28.25512">
        <ele>136.9</ele>
      </trkpt>
      <trkpt lat="36.73416" lon="28.25521">
        <ele>138.6</ele>
      </trkpt>
      <trkpt lat="36.73413" lon="28.25531">
        <ele>136.7</ele>
      </trkpt>
      <trkpt lat="36.73412" lon="28.25533">
        <ele>136.2</ele>
      </trkpt>
      <trkpt lat="36.73411" lon="28.25543">
        <ele>135.8</ele>
      </trkpt>
      <trkpt lat="36.73412" lon="28.25557">
        <ele>136.2</ele>
      </trkpt>
      <trkpt lat="36.73413" lon="28.2557">
        <ele>136.2</ele>
      </trkpt>
      <trkpt lat="36.73415" lon="28.25584">
        <ele>137</ele>
      </trkpt>
      <trkpt lat="36.73417" lon="28.25595">
        <ele>138.7</ele>
      </trkpt>
      <trkpt lat="36.73418" lon="28.25609">
        <ele>139.3</ele>
      </trkpt>
      <trkpt lat="36.73419" lon="28.25617">
        <ele>140.3</ele>
      </trkpt>
      <trkpt lat="36.73419" lon="28.25621">
        <ele>140.2</ele>
      </trkpt>
      <trkpt lat="36.73419" lon="28.25635">
        <ele>140.4</ele>
      </trkpt>
      <trkpt lat="36.73419" lon="28.25637">
        <ele>140.3</ele>
      </trkpt>
      <trkpt lat="36.73417" lon="28.25647">
        <ele>139.7</ele>
      </trkpt>
      <trkpt lat="36.73418" lon="28.25653">
        <ele>140.1</ele>
      </trkpt>
      <trkpt lat="36.73416" lon="28.25659">
        <ele>139.3</ele>
      </trkpt>
      <trkpt lat="36.73413" lon="28.25671">
        <ele>137.5</ele>
      </trkpt>
      <trkpt lat="36.73413" lon="28.25681">
        <ele>136.3</ele>
      </trkpt>
      <trkpt lat="36.73418" lon="28.25685">
        <ele>138.2</ele>
      </trkpt>
      <trkpt lat="36.73423" lon="28.25696">
        <ele>139.6</ele>
      </trkpt>
      <trkpt lat="36.73425" lon="28.25707">
        <ele>139.1</ele>
      </trkpt>
      <trkpt lat="36.73429" lon="28.25717">
        <ele>140.2</ele>
      </trkpt>
      <trkpt lat="36.73432" lon="28.25725">
        <ele>141.2</ele>
      </trkpt>
      <trkpt lat="36.73435" lon="28.25735">
        <ele>141.6</ele>
      </trkpt>
      <trkpt lat="36.7344" lon="28.25739">
        <ele>143.8</ele>
      </trkpt>
      <trkpt lat="36.73441" lon="28.25741">
        <ele>144.4</ele>
      </trkpt>
      <trkpt lat="36.73441" lon="28.25747">
        <ele>143.9</ele>
      </trkpt>
      <trkpt lat="36.73443" lon="28.25749">
        <ele>144.3</ele>
      </trkpt>
      <trkpt lat="36.73447" lon="28.25759">
        <ele>144.1</ele>
      </trkpt>
      <trkpt lat="36.73449" lon="28.25763">
        <ele>143.6</ele>
      </trkpt>
      <trkpt lat="36.73449" lon="28.25767">
        <ele>142.8</ele>
      </trkpt>
      <trkpt lat="36.73449" lon="28.25775">
        <ele>140.3</ele>
      </trkpt>
      <trkpt lat="36.73447" lon="28.25787">
        <ele>135.1</ele>
      </trkpt>
      <trkpt lat="36.73445" lon="28.25796">
        <ele>131.4</ele>
      </trkpt>
      <trkpt lat="36.73445" lon="28.25798">
        <ele>130.5</ele>
      </trkpt>
      <trkpt lat="36.73446" lon="28.25803">
        <ele>129.4</ele>
      </trkpt>
      <trkpt lat="36.73448" lon="28.25814">
        <ele>127.2</ele>
      </trkpt>
      <trkpt lat="36.73445" lon="28.25817">
        <ele>124.7</ele>
      </trkpt>
      <trkpt lat="36.73445" lon="28.25823">
        <ele>122.9</ele>
      </trkpt>
      <trkpt lat="36.73446" lon="28.25832">
        <ele>120.2</ele>
      </trkpt>
      <trkpt lat="36.73445" lon="28.25837">
        <ele>119</ele>
      </trkpt>
      <trkpt lat="36.73444" lon="28.25842">
        <ele>117.5</ele>
      </trkpt>
      <trkpt lat="36.73445" lon="28.25843">
        <ele>117.3</ele>
      </trkpt>
      <trkpt lat="36.73446" lon="28.25852">
        <ele>116.4</ele>
      </trkpt>
      <trkpt lat="36.73444" lon="28.25851">
        <ele>115.7</ele>
      </trkpt>
      <trkpt lat="36.73449" lon="28.25851">
        <ele>118</ele>
      </trkpt>
      <trkpt lat="36.73451" lon="28.25855">
        <ele>118.3</ele>
      </trkpt>
      <trkpt lat="36.73454" lon="28.2586">
        <ele>118.3</ele>
      </trkpt>
      <trkpt lat="36.73451" lon="28.25864">
        <ele>116</ele>
      </trkpt>
      <trkpt lat="36.73443" lon="28.25863">
        <ele>112.3</ele>
      </trkpt>
      <trkpt lat="36.73443" lon="28.2587">
        <ele>111.1</ele>
      </trkpt>
      <trkpt lat="36.73448" lon="28.25878">
        <ele>111.8</ele>
      </trkpt>
      <trkpt lat="36.73455" lon="28.25883">
        <ele>114.3</ele>
      </trkpt>
      <trkpt lat="36.73459" lon="28.25891">
        <ele>114.5</ele>
      </trkpt>
      <trkpt lat="36.7346" lon="28.25901">
        <ele>112.7</ele>
      </trkpt>
      <trkpt lat="36.7346" lon="28.25909">
        <ele>110.8</ele>
      </trkpt>
      <trkpt lat="36.73461" lon="28.2592">
        <ele>109.4</ele>
      </trkpt>
      <trkpt lat="36.73455" lon="28.25926">
        <ele>105.8</ele>
      </trkpt>
      <trkpt lat="36.73456" lon="28.25937">
        <ele>104.9</ele>
      </trkpt>
      <trkpt lat="36.73457" lon="28.25946">
        <ele>104.3</ele>
      </trkpt>
      <trkpt lat="36.73458" lon="28.25956">
        <ele>103.8</ele>
      </trkpt>
      <trkpt lat="36.73452" lon="28.25967">
        <ele>99.7</ele>
      </trkpt>
      <trkpt lat="36.7345" lon="28.25979">
        <ele>97</ele>
      </trkpt>
      <trkpt lat="36.73449" lon="28.25994">
        <ele>95.1</ele>
      </trkpt>
      <trkpt lat="36.73447" lon="28.26006">
        <ele>92.5</ele>
      </trkpt>
      <trkpt lat="36.73443" lon="28.26019">
        <ele>89.4</ele>
      </trkpt>
      <trkpt lat="36.73442" lon="28.26024">
        <ele>88.3</ele>
      </trkpt>
      <trkpt lat="36.73443" lon="28.26031">
        <ele>88</ele>
      </trkpt>
      <trkpt lat="36.73445" lon="28.26039">
        <ele>88.1</ele>
      </trkpt>
      <trkpt lat="36.73444" lon="28.26045">
        <ele>87</ele>
      </trkpt>
      <trkpt lat="36.73442" lon="28.26051">
        <ele>85.4</ele>
      </trkpt>
      <trkpt lat="36.73439" lon="28.26057">
        <ele>83.6</ele>
      </trkpt>
      <trkpt lat="36.73442" lon="28.26069">
        <ele>83.5</ele>
      </trkpt>
      <trkpt lat="36.73443" lon="28.26075">
        <ele>83.3</ele>
      </trkpt>
      <trkpt lat="36.73442" lon="28.26086">
        <ele>82</ele>
      </trkpt>
      <trkpt lat="36.73447" lon="28.26095">
        <ele>82.8</ele>
      </trkpt>
      <trkpt lat="36.73448" lon="28.26099">
        <ele>82.7</ele>
      </trkpt>
      <trkpt lat="36.73447" lon="28.26103">
        <ele>81.6</ele>
      </trkpt>
      <trkpt lat="36.73446" lon="28.26114">
        <ele>79.1</ele>
      </trkpt>
      <trkpt lat="36.73447" lon="28.2612">
        <ele>78.7</ele>
      </trkpt>
      <trkpt lat="36.73445" lon="28.26122">
        <ele>77.4</ele>
      </trkpt>
      <trkpt lat="36.73444" lon="28.26132">
        <ele>75.6</ele>
      </trkpt>
      <trkpt lat="36.73446" lon="28.26145">
        <ele>74.6</ele>
      </trkpt>
      <trkpt lat="36.73448" lon="28.2616">
        <ele>73.3</ele>
      </trkpt>
      <trkpt lat="36.73449" lon="28.26172">
        <ele>71.6</ele>
      </trkpt>
      <trkpt lat="36.73453" lon="28.26182">
        <ele>71.5</ele>
      </trkpt>
      <trkpt lat="36.73455" lon="28.26194">
        <ele>69.6</ele>
      </trkpt>
      <trkpt lat="36.73455" lon="28.26205">
        <ele>66.9</ele>
      </trkpt>
      <trkpt lat="36.73461" lon="28.26215">
        <ele>67.3</ele>
      </trkpt>
      <trkpt lat="36.73465" lon="28.2622">
        <ele>68.2</ele>
      </trkpt>
      <trkpt lat="36.73468" lon="28.26231">
        <ele>66.8</ele>
      </trkpt>
      <trkpt lat="36.73472" lon="28.26234">
        <ele>67.7</ele>
      </trkpt>
      <trkpt lat="36.73472" lon="28.26238">
        <ele>66.7</ele>
      </trkpt>
      <trkpt lat="36.73473" lon="28.26237">
        <ele>67.3</ele>
      </trkpt>
      <trkpt lat="36.73472" lon="28.26245">
        <ele>64.9</ele>
      </trkpt>
      <trkpt lat="36.73469" lon="28.26251">
        <ele>62.3</ele>
      </trkpt>
      <trkpt lat="36.73464" lon="28.26256">
        <ele>59.6</ele>
      </trkpt>
      <trkpt lat="36.73458" lon="28.26266">
        <ele>56.1</ele>
      </trkpt>
      <trkpt lat="36.73466" lon="28.26276">
        <ele>57.8</ele>
      </trkpt>
      <trkpt lat="36.7347" lon="28.2628">
        <ele>58.7</ele>
      </trkpt>
      <trkpt lat="36.73468" lon="28.26284">
        <ele>57.6</ele>
      </trkpt>
      <trkpt lat="36.7347" lon="28.26289">
        <ele>57.8</ele>
      </trkpt>
      <trkpt lat="36.73473" lon="28.26293">
        <ele>58.1</ele>
      </trkpt>
      <trkpt lat="36.73471" lon="28.26303">
        <ele>56.3</ele>
      </trkpt>
      <trkpt lat="36.73473" lon="28.26313">
        <ele>55.5</ele>
      </trkpt>
      <trkpt lat="36.73472" lon="28.26327">
        <ele>53.6</ele>
      </trkpt>
      <trkpt lat="36.7348" lon="28.26339">
        <ele>55.2</ele>
      </trkpt>
      <trkpt lat="36.73483" lon="28.26344">
        <ele>56.3</ele>
      </trkpt>
      <trkpt lat="36.73484" lon="28.26345">
        <ele>56.8</ele>
      </trkpt>
      <trkpt lat="36.73486" lon="28.26348">
        <ele>57.4</ele>
      </trkpt>
      <trkpt lat="36.73488" lon="28.26359">
        <ele>58</ele>
      </trkpt>
      <trkpt lat="36.73491" lon="28.26372">
        <ele>59.1</ele>
      </trkpt>
      <trkpt lat="36.73489" lon="28.26382">
        <ele>58.6</ele>
      </trkpt>
      <trkpt lat="36.73489" lon="28.26382">
        <ele>58.5</ele>
      </trkpt>
      <trkpt lat="36.73489" lon="28.26387">
        <ele>58.7</ele>
      </trkpt>
      <trkpt lat="36.73483" lon="28.26404">
        <ele>56.9</ele>
      </trkpt>
      <trkpt lat="36.73483" lon="28.26409">
        <ele>56.9</ele>
      </trkpt>
      <trkpt lat="36.73485" lon="28.26418">
        <ele>57.6</ele>
      </trkpt>
      <trkpt lat="36.73489" lon="28.26429">
        <ele>59.9</ele>
      </trkpt>
      <trkpt lat="36.73487" lon="28.26442">
        <ele>61.1</ele>
      </trkpt>
      <trkpt lat="36.73488" lon="28.26451">
        <ele>62.1</ele>
      </trkpt>
      <trkpt lat="36.73485" lon="28.26465">
        <ele>63.2</ele>
      </trkpt>
      <trkpt lat="36.73489" lon="28.26474">
        <ele>65.2</ele>
      </trkpt>
      <trkpt lat="36.73492" lon="28.26482">
        <ele>66.8</ele>
      </trkpt>
      <trkpt lat="36.73494" lon="28.26493">
        <ele>68.7</ele>
      </trkpt>
      <trkpt lat="36.73489" lon="28.26502">
        <ele>68.8</ele>
      </trkpt>
      <trkpt lat="36.73486" lon="28.26516">
        <ele>71.4</ele>
      </trkpt>
      <trkpt lat="36.73481" lon="28.26524">
        <ele>72.1</ele>
      </trkpt>
      <trkpt lat="36.73477" lon="28.26529">
        <ele>72.4</ele>
      </trkpt>
      <trkpt lat="36.73477" lon="28.26534">
        <ele>73.6</ele>
      </trkpt>
      <trkpt lat="36.73466" lon="28.26548">
        <ele>74.2</ele>
      </trkpt>
      <trkpt lat="36.73459" lon="28.26555">
        <ele>74.3</ele>
      </trkpt>
      <trkpt lat="36.73451" lon="28.26562">
        <ele>73.7</ele>
      </trkpt>
      <trkpt lat="36.73449" lon="28.26563">
        <ele>73.8</ele>
      </trkpt>
      <trkpt lat="36.73442" lon="28.26568">
        <ele>73</ele>
      </trkpt>
      <trkpt lat="36.73436" lon="28.26575">
        <ele>73.2</ele>
      </trkpt>
      <trkpt lat="36.73433" lon="28.26582">
        <ele>74</ele>
      </trkpt>
      <trkpt lat="36.7343" lon="28.26587">
        <ele>74.4</ele>
      </trkpt>
      <trkpt lat="36.73428" lon="28.26596">
        <ele>75.7</ele>
      </trkpt>
      <trkpt lat="36.73429" lon="28.26605">
        <ele>78.2</ele>
      </trkpt>
      <trkpt lat="36.73427" lon="28.26615">
        <ele>79.7</ele>
      </trkpt>
      <trkpt lat="36.7343" lon="28.26624">
        <ele>82.9</ele>
      </trkpt>
      <trkpt lat="36.7343" lon="28.26628">
        <ele>83.5</ele>
      </trkpt>
      <trkpt lat="36.73428" lon="28.26637">
        <ele>85</ele>
      </trkpt>
      <trkpt lat="36.73434" lon="28.26641">
        <ele>88.3</ele>
      </trkpt>
      <trkpt lat="36.73438" lon="28.26649">
        <ele>91.5</ele>
      </trkpt>
      <trkpt lat="36.73441" lon="28.26662">
        <ele>95.8</ele>
      </trkpt>
      <trkpt lat="36.73441" lon="28.26669">
        <ele>97.4</ele>
      </trkpt>
      <trkpt lat="36.73441" lon="28.26675">
        <ele>98.4</ele>
      </trkpt>
      <trkpt lat="36.73438" lon="28.26679">
        <ele>98.2</ele>
      </trkpt>
      <trkpt lat="36.73437" lon="28.26682">
        <ele>98</ele>
      </trkpt>
      <trkpt lat="36.73439" lon="28.26685">
        <ele>99.2</ele>
      </trkpt>
      <trkpt lat="36.7344" lon="28.26688">
        <ele>100.2</ele>
      </trkpt>
      <trkpt lat="36.73437" lon="28.26688">
        <ele>99.3</ele>
      </trkpt>
      <trkpt lat="36.7344" lon="28.267">
        <ele>102.4</ele>
      </trkpt>
      <trkpt lat="36.73446" lon="28.26707">
        <ele>106.4</ele>
      </trkpt>
      <trkpt lat="36.7345" lon="28.26718">
        <ele>109.9</ele>
      </trkpt>
      <trkpt lat="36.73451" lon="28.26721">
        <ele>110.9</ele>
      </trkpt>
      <trkpt lat="36.73452" lon="28.26729">
        <ele>112.8</ele>
      </trkpt>
      <trkpt lat="36.73448" lon="28.26746">
        <ele>113.9</ele>
      </trkpt>
      <trkpt lat="36.7345" lon="28.26749">
        <ele>115.6</ele>
      </trkpt>
      <trkpt lat="36.73447" lon="28.26746">
        <ele>113.8</ele>
      </trkpt>
      <trkpt lat="36.73455" lon="28.26755">
        <ele>118.1</ele>
      </trkpt>
      <trkpt lat="36.73453" lon="28.26765">
        <ele>117.4</ele>
      </trkpt>
      <trkpt lat="36.73455" lon="28.26768">
        <ele>118.6</ele>
      </trkpt>
      <trkpt lat="36.73456" lon="28.26771">
        <ele>119</ele>
      </trkpt>
      <trkpt lat="36.73461" lon="28.26785">
        <ele>121</ele>
      </trkpt>
      <trkpt lat="36.7346" lon="28.26799">
        <ele>120.7</ele>
      </trkpt>
      <trkpt lat="36.73461" lon="28.26809">
        <ele>120.9</ele>
      </trkpt>
      <trkpt lat="36.73463" lon="28.26813">
        <ele>121.7</ele>
      </trkpt>
      <trkpt lat="36.73466" lon="28.2682">
        <ele>122.9</ele>
      </trkpt>
      <trkpt lat="36.73467" lon="28.26829">
        <ele>123</ele>
      </trkpt>
      <trkpt lat="36.73468" lon="28.26841">
        <ele>122.7</ele>
      </trkpt>
      <trkpt lat="36.73471" lon="28.26852">
        <ele>122.6</ele>
      </trkpt>
      <trkpt lat="36.73473" lon="28.26854">
        <ele>123.1</ele>
      </trkpt>
      <trkpt lat="36.73479" lon="28.26871">
        <ele>123.9</ele>
      </trkpt>
      <trkpt lat="36.73483" lon="28.26877">
        <ele>124.9</ele>
      </trkpt>
      <trkpt lat="36.7349" lon="28.26888">
        <ele>126.3</ele>
      </trkpt>
      <trkpt lat="36.73495" lon="28.269">
        <ele>127.4</ele>
      </trkpt>
      <trkpt lat="36.73496" lon="28.26901">
        <ele>127.8</ele>
      </trkpt>
      <trkpt lat="36.73502" lon="28.26913">
        <ele>129.1</ele>
      </trkpt>
      <trkpt lat="36.73502" lon="28.26914">
        <ele>128.9</ele>
      </trkpt>
      <trkpt lat="36.73506" lon="28.26929">
        <ele>128</ele>
      </trkpt>
      <trkpt lat="36.73507" lon="28.26941">
        <ele>126.1</ele>
      </trkpt>
      <trkpt lat="36.73508" lon="28.26961">
        <ele>122.6</ele>
      </trkpt>
      <trkpt lat="36.73511" lon="28.26968">
        <ele>122.2</ele>
      </trkpt>
      <trkpt lat="36.73512" lon="28.26986">
        <ele>119.1</ele>
      </trkpt>
      <trkpt lat="36.73519" lon="28.26997">
        <ele>119.3</ele>
      </trkpt>
      <trkpt lat="36.73527" lon="28.27006">
        <ele>120.2</ele>
      </trkpt>
      <trkpt lat="36.73529" lon="28.27008">
        <ele>120.5</ele>
      </trkpt>
      <trkpt lat="36.73541" lon="28.2702">
        <ele>121.8</ele>
      </trkpt>
      <trkpt lat="36.7355" lon="28.27034">
        <ele>121.7</ele>
      </trkpt>
      <trkpt lat="36.73559" lon="28.27043">
        <ele>122.8</ele>
      </trkpt>
      <trkpt lat="36.7357" lon="28.27054">
        <ele>124</ele>
      </trkpt>
      <trkpt lat="36.73578" lon="28.27064">
        <ele>124.7</ele>
      </trkpt>
      <trkpt lat="36.7358" lon="28.27073">
        <ele>123.1</ele>
      </trkpt>
      <trkpt lat="36.73588" lon="28.27084">
        <ele>123.3</ele>
      </trkpt>
      <trkpt lat="36.73597" lon="28.27093">
        <ele>124.2</ele>
      </trkpt>
      <trkpt lat="36.73607" lon="28.27101">
        <ele>125.6</ele>
      </trkpt>
      <trkpt lat="36.73614" lon="28.27112">
        <ele>125.4</ele>
      </trkpt>
      <trkpt lat="36.7362" lon="28.27119">
        <ele>126</ele>
      </trkpt>
      <trkpt lat="36.73625" lon="28.2713">
        <ele>125.3</ele>
      </trkpt>
      <trkpt lat="36.7363" lon="28.27136">
        <ele>125.6</ele>
      </trkpt>
      <trkpt lat="36.73637" lon="28.27149">
        <ele>125.3</ele>
      </trkpt>
      <trkpt lat="36.73638" lon="28.27147">
        <ele>125.8</ele>
      </trkpt>
      <trkpt lat="36.73638" lon="28.27151">
        <ele>125</ele>
      </trkpt>
      <trkpt lat="36.73641" lon="28.27161">
        <ele>123.9</ele>
      </trkpt>
      <trkpt lat="36.73648" lon="28.27181">
        <ele>121.8</ele>
      </trkpt>
      <trkpt lat="36.73651" lon="28.27183">
        <ele>122.3</ele>
      </trkpt>
      <trkpt lat="36.73653" lon="28.27192">
        <ele>121</ele>
      </trkpt>
      <trkpt lat="36.73657" lon="28.27197">
        <ele>120.9</ele>
      </trkpt>
      <trkpt lat="36.73666" lon="28.27208">
        <ele>120.3</ele>
      </trkpt>
      <trkpt lat="36.73675" lon="28.27219">
        <ele>121.3</ele>
      </trkpt>
      <trkpt lat="36.73682" lon="28.27228">
        <ele>121.9</ele>
      </trkpt>
      <trkpt lat="36.73686" lon="28.27231">
        <ele>123</ele>
      </trkpt>
      <trkpt lat="36.73695" lon="28.27233">
        <ele>125.8</ele>
      </trkpt>
      <trkpt lat="36.73705" lon="28.27238">
        <ele>128.6</ele>
      </trkpt>
      <trkpt lat="36.7371" lon="28.2724">
        <ele>130.3</ele>
      </trkpt>
      <trkpt lat="36.73718" lon="28.27243">
        <ele>132.7</ele>
      </trkpt>
      <trkpt lat="36.73729" lon="28.27247">
        <ele>136.3</ele>
      </trkpt>
      <trkpt lat="36.73734" lon="28.27256">
        <ele>135.9</ele>
      </trkpt>
      <trkpt lat="36.73736" lon="28.27271">
        <ele>133.5</ele>
      </trkpt>
      <trkpt lat="36.73737" lon="28.27277">
        <ele>132.3</ele>
      </trkpt>
      <trkpt lat="36.73745" lon="28.2728">
        <ele>134.9</ele>
      </trkpt>
      <trkpt lat="36.73757" lon="28.27289">
        <ele>137.7</ele>
      </trkpt>
      <trkpt lat="36.73771" lon="28.27293">
        <ele>142.6</ele>
      </trkpt>
      <trkpt lat="36.73781" lon="28.27302">
        <ele>144.8</ele>
      </trkpt>
      <trkpt lat="36.7379" lon="28.27312">
        <ele>146</ele>
      </trkpt>
      <trkpt lat="36.738" lon="28.27327">
        <ele>145.8</ele>
      </trkpt>
      <trkpt lat="36.73805" lon="28.27336">
        <ele>146</ele>
      </trkpt>
      <trkpt lat="36.73816" lon="28.27336">
        <ele>150.4</ele>
      </trkpt>
      <trkpt lat="36.73824" lon="28.27342">
        <ele>152.4</ele>
      </trkpt>
      <trkpt lat="36.73834" lon="28.27347">
        <ele>155</ele>
      </trkpt>
      <trkpt lat="36.73848" lon="28.27357">
        <ele>155.4</ele>
      </trkpt>
      <trkpt lat="36.73857" lon="28.27363">
        <ele>156.2</ele>
      </trkpt>
      <trkpt lat="36.73865" lon="28.27371">
        <ele>156.6</ele>
      </trkpt>
      <trkpt lat="36.73871" lon="28.27371">
        <ele>158</ele>
      </trkpt>
      <trkpt lat="36.73877" lon="28.27368">
        <ele>159.5</ele>
      </trkpt>
      <trkpt lat="36.7388" lon="28.27361">
        <ele>160.7</ele>
      </trkpt>
      <trkpt lat="36.73886" lon="28.27371">
        <ele>161.3</ele>
      </trkpt>
      <trkpt lat="36.73893" lon="28.27374">
        <ele>162.6</ele>
      </trkpt>
      <trkpt lat="36.73896" lon="28.27379">
        <ele>163.1</ele>
      </trkpt>
      <trkpt lat="36.73903" lon="28.2738">
        <ele>164.9</ele>
      </trkpt>
      <trkpt lat="36.73906" lon="28.2738">
        <ele>165.5</ele>
      </trkpt>
      <trkpt lat="36.7391" lon="28.27379">
        <ele>166.4</ele>
      </trkpt>
      <trkpt lat="36.73919" lon="28.27385">
        <ele>167.5</ele>
      </trkpt>
      <trkpt lat="36.73927" lon="28.27396">
        <ele>165.2</ele>
      </trkpt>
      <trkpt lat="36.73935" lon="28.27402">
        <ele>163</ele>
      </trkpt>
      <trkpt lat="36.73944" lon="28.2741">
        <ele>160.8</ele>
      </trkpt>
      <trkpt lat="36.73949" lon="28.27413">
        <ele>159.3</ele>
      </trkpt>
      <trkpt lat="36.73956" lon="28.27417">
        <ele>157.6</ele>
      </trkpt>
      <trkpt lat="36.73958" lon="28.27413">
        <ele>156.7</ele>
      </trkpt>
      <trkpt lat="36.73961" lon="28.27403">
        <ele>155</ele>
      </trkpt>
      <trkpt lat="36.73954" lon="28.27398">
        <ele>156.8</ele>
      </trkpt>
      <trkpt lat="36.73961" lon="28.27399">
        <ele>154.7</ele>
      </trkpt>
      <trkpt lat="36.7397" lon="28.27405">
        <ele>152.3</ele>
      </trkpt>
      <trkpt lat="36.73977" lon="28.27409">
        <ele>150.7</ele>
      </trkpt>
      <trkpt lat="36.73981" lon="28.27412">
        <ele>149.8</ele>
      </trkpt>
      <trkpt lat="36.73988" lon="28.2741">
        <ele>147.7</ele>
      </trkpt>
      <trkpt lat="36.73993" lon="28.27404">
        <ele>145.2</ele>
      </trkpt>
      <trkpt lat="36.74" lon="28.27413">
        <ele>144.5</ele>
      </trkpt>
      <trkpt lat="36.74002" lon="28.27411">
        <ele>143.1</ele>
      </trkpt>
      <trkpt lat="36.74002" lon="28.27405">
        <ele>142.3</ele>
      </trkpt>
      <trkpt lat="36.74009" lon="28.27412">
        <ele>140.4</ele>
      </trkpt>
      <trkpt lat="36.74018" lon="28.27417">
        <ele>136.8</ele>
      </trkpt>
      <trkpt lat="36.74018" lon="28.27417">
        <ele>136.7</ele>
      </trkpt>
      <trkpt lat="36.74023" lon="28.27416">
        <ele>134.5</ele>
      </trkpt>
      <trkpt lat="36.74031" lon="28.27422">
        <ele>131.8</ele>
      </trkpt>
      <trkpt lat="36.7403" lon="28.27417">
        <ele>131.2</ele>
      </trkpt>
      <trkpt lat="36.74034" lon="28.27423">
        <ele>130.4</ele>
      </trkpt>
      <trkpt lat="36.74038" lon="28.27421">
        <ele>128.4</ele>
      </trkpt>
      <trkpt lat="36.74045" lon="28.27424">
        <ele>125.4</ele>
      </trkpt>
      <trkpt lat="36.74056" lon="28.27428">
        <ele>121.1</ele>
      </trkpt>
      <trkpt lat="36.74065" lon="28.27427">
        <ele>116.5</ele>
      </trkpt>
      <trkpt lat="36.74066" lon="28.27414">
        <ele>114.8</ele>
      </trkpt>
      <trkpt lat="36.74061" lon="28.27409">
        <ele>116.2</ele>
      </trkpt>
      <trkpt lat="36.74065" lon="28.27395">
        <ele>112.5</ele>
      </trkpt>
      <trkpt lat="36.7407" lon="28.27397">
        <ele>110.5</ele>
      </trkpt>
      <trkpt lat="36.74078" lon="28.27397">
        <ele>106.9</ele>
      </trkpt>
      <trkpt lat="36.74079" lon="28.27394">
        <ele>105.9</ele>
      </trkpt>
      <trkpt lat="36.74088" lon="28.27394">
        <ele>102.2</ele>
      </trkpt>
      <trkpt lat="36.74094" lon="28.27398">
        <ele>100.3</ele>
      </trkpt>
      <trkpt lat="36.74094" lon="28.274">
        <ele>100.4</ele>
      </trkpt>
      <trkpt lat="36.74101" lon="28.27415">
        <ele>99.5</ele>
      </trkpt>
      <trkpt lat="36.74109" lon="28.27422">
        <ele>96.6</ele>
      </trkpt>
      <trkpt lat="36.74116" lon="28.27413">
        <ele>92.6</ele>
      </trkpt>
      <trkpt lat="36.7412" lon="28.27406">
        <ele>90.5</ele>
      </trkpt>
      <trkpt lat="36.74124" lon="28.27396">
        <ele>87.3</ele>
      </trkpt>
      <trkpt lat="36.74124" lon="28.27388">
        <ele>86.4</ele>
      </trkpt>
      <trkpt lat="36.74124" lon="28.2738">
        <ele>85.4</ele>
      </trkpt>
      <trkpt lat="36.74118" lon="28.27364">
        <ele>86</ele>
      </trkpt>
      <trkpt lat="36.74107" lon="28.27347">
        <ele>88.3</ele>
      </trkpt>
      <trkpt lat="36.74093" lon="28.27325">
        <ele>91.4</ele>
      </trkpt>
      <trkpt lat="36.74085" lon="28.27308">
        <ele>93.3</ele>
      </trkpt>
      <trkpt lat="36.74082" lon="28.27294">
        <ele>93.4</ele>
      </trkpt>
      <trkpt lat="36.7408" lon="28.27271">
        <ele>92.4</ele>
      </trkpt>
      <trkpt lat="36.74085" lon="28.27252">
        <ele>88.6</ele>
      </trkpt>
      <trkpt lat="36.74086" lon="28.27226">
        <ele>88.7</ele>
      </trkpt>
      <trkpt lat="36.74085" lon="28.27198">
        <ele>89.7</ele>
      </trkpt>
      <trkpt lat="36.74086" lon="28.27178">
        <ele>89.9</ele>
      </trkpt>
      <trkpt lat="36.74083" lon="28.27147">
        <ele>92.8</ele>
      </trkpt>
      <trkpt lat="36.74081" lon="28.27125">
        <ele>95.5</ele>
      </trkpt>
      <trkpt lat="36.74092" lon="28.27119">
        <ele>92.4</ele>
      </trkpt>
      <trkpt lat="36.74107" lon="28.27121">
        <ele>87.6</ele>
      </trkpt>
      <trkpt lat="36.74117" lon="28.2712">
        <ele>84.3</ele>
      </trkpt>
      <trkpt lat="36.74134" lon="28.27109">
        <ele>80</ele>
      </trkpt>
      <trkpt lat="36.74147" lon="28.27091">
        <ele>77.5</ele>
      </trkpt>
      <trkpt lat="36.74155" lon="28.27071">
        <ele>76.6</ele>
      </trkpt>
      <trkpt lat="36.74153" lon="28.27049">
        <ele>79.4</ele>
      </trkpt>
      <trkpt lat="36.74146" lon="28.27024">
        <ele>84.4</ele>
      </trkpt>
      <trkpt lat="36.74144" lon="28.27001">
        <ele>87.3</ele>
      </trkpt>
      <trkpt lat="36.74154" lon="28.26989">
        <ele>85.9</ele>
      </trkpt>
      <trkpt lat="36.74172" lon="28.26989">
        <ele>78.9</ele>
      </trkpt>
      <trkpt lat="36.74189" lon="28.26986">
        <ele>74.6</ele>
      </trkpt>
      <trkpt lat="36.74204" lon="28.26973">
        <ele>72.8</ele>
      </trkpt>
      <trkpt lat="36.74221" lon="28.26957">
        <ele>70.6</ele>
      </trkpt>
      <trkpt lat="36.74235" lon="28.26941">
        <ele>69.2</ele>
      </trkpt>
      <trkpt lat="36.7425" lon="28.26927">
        <ele>66.3</ele>
      </trkpt>
      <trkpt lat="36.74262" lon="28.26913">
        <ele>65</ele>
      </trkpt>
      <trkpt lat="36.74272" lon="28.26893">
        <ele>67.3</ele>
      </trkpt>
      <trkpt lat="36.74279" lon="28.26878">
        <ele>69.3</ele>
      </trkpt>
      <trkpt lat="36.7429" lon="28.26859">
        <ele>71.8</ele>
      </trkpt>
      <trkpt lat="36.74299" lon="28.26843">
        <ele>74.1</ele>
      </trkpt>
      <trkpt lat="36.74309" lon="28.26834">
        <ele>74.2</ele>
      </trkpt>
      <trkpt lat="36.74319" lon="28.26841">
        <ele>69.4</ele>
      </trkpt>
      <trkpt lat="36.74332" lon="28.26847">
        <ele>63.9</ele>
      </trkpt>
      <trkpt lat="36.74347" lon="28.26847">
        <ele>58.9</ele>
      </trkpt>
      <trkpt lat="36.74353" lon="28.26841">
        <ele>58.8</ele>
      </trkpt>
      <trkpt lat="36.7437" lon="28.26828">
        <ele>57.3</ele>
      </trkpt>
      <trkpt lat="36.74375" lon="28.26821">
        <ele>57.4</ele>
      </trkpt>
      <trkpt lat="36.74389" lon="28.26826">
        <ele>51.3</ele>
      </trkpt>
      <trkpt lat="36.74392" lon="28.26828">
        <ele>49.6</ele>
      </trkpt>
      <trkpt lat="36.74396" lon="28.2683">
        <ele>48</ele>
      </trkpt>
      <trkpt lat="36.74407" lon="28.26823">
        <ele>46</ele>
      </trkpt>
      <trkpt lat="36.74425" lon="28.26808">
        <ele>44.5</ele>
      </trkpt>
      <trkpt lat="36.74437" lon="28.26796">
        <ele>43.6</ele>
      </trkpt>
      <trkpt lat="36.74443" lon="28.26788">
        <ele>43.8</ele>
      </trkpt>
      <trkpt lat="36.74446" lon="28.26785">
        <ele>43.5</ele>
      </trkpt>
      <trkpt lat="36.74456" lon="28.26771">
        <ele>43.4</ele>
      </trkpt>
      <trkpt lat="36.74464" lon="28.26754">
        <ele>44</ele>
      </trkpt>
      <trkpt lat="36.74464" lon="28.26754">
        <ele>44</ele>
      </trkpt>
      <trkpt lat="36.74476" lon="28.26743">
        <ele>42.1</ele>
      </trkpt>
      <trkpt lat="36.74476" lon="28.26742">
        <ele>41.9</ele>
      </trkpt>
      <trkpt lat="36.74493" lon="28.26735">
        <ele>37.1</ele>
      </trkpt>
      <trkpt lat="36.74501" lon="28.26722">
        <ele>37.3</ele>
      </trkpt>
      <trkpt lat="36.74507" lon="28.26707">
        <ele>39.8</ele>
      </trkpt>
      <trkpt lat="36.74509" lon="28.26704">
        <ele>40.1</ele>
      </trkpt>
      <trkpt lat="36.74512" lon="28.26697">
        <ele>41.1</ele>
      </trkpt>
      <trkpt lat="36.74512" lon="28.26694">
        <ele>41.6</ele>
      </trkpt>
      <trkpt lat="36.74518" lon="28.26685">
        <ele>42.6</ele>
      </trkpt>
      <trkpt lat="36.74526" lon="28.26691">
        <ele>40.8</ele>
      </trkpt>
      <trkpt lat="36.74529" lon="28.26695">
        <ele>40</ele>
      </trkpt>
      <trkpt lat="36.74529" lon="28.26695">
        <ele>40</ele>
      </trkpt>
      <trkpt lat="36.7453" lon="28.26698">
        <ele>39.3</ele>
      </trkpt>
      <trkpt lat="36.74531" lon="28.26702">
        <ele>38.7</ele>
      </trkpt>
      <trkpt lat="36.74532" lon="28.26705">
        <ele>38.1</ele>
      </trkpt>
      <trkpt lat="36.74533" lon="28.26708">
        <ele>37.5</ele>
      </trkpt>
      <trkpt lat="36.74535" lon="28.26711">
        <ele>36.9</ele>
      </trkpt>
      <trkpt lat="36.74534" lon="28.26714">
        <ele>36.4</ele>
      </trkpt>
      <trkpt lat="36.74536" lon="28.26717">
        <ele>35.9</ele>
      </trkpt>
      <trkpt lat="36.74537" lon="28.2672">
        <ele>35.3</ele>
      </trkpt>
      <trkpt lat="36.74538" lon="28.26724">
        <ele>34.6</ele>
      </trkpt>
      <trkpt lat="36.74539" lon="28.26727">
        <ele>34</ele>
      </trkpt>
      <trkpt lat="36.74541" lon="28.26731">
        <ele>33.4</ele>
      </trkpt>
      <trkpt lat="36.74541" lon="28.26734">
        <ele>32.9</ele>
      </trkpt>
      <trkpt lat="36.74542" lon="28.26737">
        <ele>32.5</ele>
      </trkpt>
      <trkpt lat="36.74542" lon="28.26741">
        <ele>31.9</ele>
      </trkpt>
      <trkpt lat="36.74544" lon="28.26743">
        <ele>31.4</ele>
      </trkpt>
      <trkpt lat="36.74545" lon="28.26746">
        <ele>30.9</ele>
      </trkpt>
      <trkpt lat="36.74546" lon="28.2675">
        <ele>30.3</ele>
      </trkpt>
      <trkpt lat="36.74546" lon="28.26753">
        <ele>30</ele>
      </trkpt>
      <trkpt lat="36.74546" lon="28.26759">
        <ele>28.9</ele>
      </trkpt>
      <trkpt lat="36.74546" lon="28.26763">
        <ele>28.3</ele>
      </trkpt>
      <trkpt lat="36.74547" lon="28.26767">
        <ele>27.6</ele>
      </trkpt>
      <trkpt lat="36.74549" lon="28.26772">
        <ele>26.8</ele>
      </trkpt>
      <trkpt lat="36.74549" lon="28.26775">
        <ele>26.3</ele>
      </trkpt>
      <trkpt lat="36.74549" lon="28.26779">
        <ele>25.7</ele>
      </trkpt>
      <trkpt lat="36.74547" lon="28.26782">
        <ele>25.2</ele>
      </trkpt>
      <trkpt lat="36.74544" lon="28.26785">
        <ele>25</ele>
      </trkpt>
      <trkpt lat="36.74543" lon="28.26789">
        <ele>24.4</ele>
      </trkpt>
      <trkpt lat="36.74542" lon="28.26791">
        <ele>24</ele>
      </trkpt>
      <trkpt lat="36.74541" lon="28.26794">
        <ele>23.7</ele>
      </trkpt>
      <trkpt lat="36.74537" lon="28.26795">
        <ele>23.6</ele>
      </trkpt>
      <trkpt lat="36.74535" lon="28.26798">
        <ele>23.3</ele>
      </trkpt>
      <trkpt lat="36.74534" lon="28.268">
        <ele>23.1</ele>
      </trkpt>
      <trkpt lat="36.74532" lon="28.26802">
        <ele>22.8</ele>
      </trkpt>
      <trkpt lat="36.74528" lon="28.26804">
        <ele>22.5</ele>
      </trkpt>
      <trkpt lat="36.74527" lon="28.26808">
        <ele>22</ele>
      </trkpt>
      <trkpt lat="36.74526" lon="28.26811">
        <ele>21.6</ele>
      </trkpt>
      <trkpt lat="36.74526" lon="28.26814">
        <ele>21.1</ele>
      </trkpt>
      <trkpt lat="36.74524" lon="28.26818">
        <ele>20.6</ele>
      </trkpt>
      <trkpt lat="36.74521" lon="28.26819">
        <ele>20.5</ele>
      </trkpt>
      <trkpt lat="36.7452" lon="28.26823">
        <ele>19.9</ele>
      </trkpt>
      <trkpt lat="36.74519" lon="28.26826">
        <ele>19.5</ele>
      </trkpt>
      <trkpt lat="36.74518" lon="28.26829">
        <ele>19</ele>
      </trkpt>
      <trkpt lat="36.74516" lon="28.26832">
        <ele>18.6</ele>
      </trkpt>
      <trkpt lat="36.74515" lon="28.26836">
        <ele>18.1</ele>
      </trkpt>
      <trkpt lat="36.74514" lon="28.2684">
        <ele>17.8</ele>
      </trkpt>
      <trkpt lat="36.74512" lon="28.26842">
        <ele>17.6</ele>
      </trkpt>
      <trkpt lat="36.74512" lon="28.26845">
        <ele>17.3</ele>
      </trkpt>
      <trkpt lat="36.74512" lon="28.26849">
        <ele>17</ele>
      </trkpt>
      <trkpt lat="36.74511" lon="28.26853">
        <ele>16.5</ele>
      </trkpt>
      <trkpt lat="36.74511" lon="28.26856">
        <ele>16.2</ele>
      </trkpt>
      <trkpt lat="36.74511" lon="28.2686">
        <ele>15.8</ele>
      </trkpt>
      <trkpt lat="36.74511" lon="28.26864">
        <ele>15.4</ele>
      </trkpt>
      <trkpt lat="36.74511" lon="28.26867">
        <ele>15</ele>
      </trkpt>
      <trkpt lat="36.74511" lon="28.2687">
        <ele>14.7</ele>
      </trkpt>
      <trkpt lat="36.74511" lon="28.26875">
        <ele>14.2</ele>
      </trkpt>
      <trkpt lat="36.74511" lon="28.26879">
        <ele>13.8</ele>
      </trkpt>
      <trkpt lat="36.74512" lon="28.26882">
        <ele>13.4</ele>
      </trkpt>
      <trkpt lat="36.74513" lon="28.26887">
        <ele>12.8</ele>
      </trkpt>
      <trkpt lat="36.74514" lon="28.26891">
        <ele>12.4</ele>
      </trkpt>
      <trkpt lat="36.74515" lon="28.26895">
        <ele>11.9</ele>
      </trkpt>
      <trkpt lat="36.74517" lon="28.26897">
        <ele>11.6</ele>
      </trkpt>
      <trkpt lat="36.74518" lon="28.26902">
        <ele>11.2</ele>
      </trkpt>
      <trkpt lat="36.74519" lon="28.26904">
        <ele>10.8</ele>
      </trkpt>
      <trkpt lat="36.74521" lon="28.26908">
        <ele>10.4</ele>
      </trkpt>
      <trkpt lat="36.74523" lon="28.2691">
        <ele>10.1</ele>
      </trkpt>
      <trkpt lat="36.74525" lon="28.26914">
        <ele>9.7</ele>
      </trkpt>
      <trkpt lat="36.74527" lon="28.26916">
        <ele>9.4</ele>
      </trkpt>
      <trkpt lat="36.74528" lon="28.2692">
        <ele>9.1</ele>
      </trkpt>
      <trkpt lat="36.7453" lon="28.26923">
        <ele>8.9</ele>
      </trkpt>
      <trkpt lat="36.7453" lon="28.26925">
        <ele>8.7</ele>
      </trkpt>
      <trkpt lat="36.74532" lon="28.26931">
        <ele>8.3</ele>
      </trkpt>
      <trkpt lat="36.74533" lon="28.26934">
        <ele>8.1</ele>
      </trkpt>
      <trkpt lat="36.74535" lon="28.26937">
        <ele>7.8</ele>
      </trkpt>
      <trkpt lat="36.74537" lon="28.26942">
        <ele>7.5</ele>
      </trkpt>
      <trkpt lat="36.74539" lon="28.26944">
        <ele>7.3</ele>
      </trkpt>
      <trkpt lat="36.74542" lon="28.26947">
        <ele>7</ele>
      </trkpt>
      <trkpt lat="36.74544" lon="28.26949">
        <ele>6.8</ele>
      </trkpt>
      <trkpt lat="36.74546" lon="28.2695">
        <ele>6.7</ele>
      </trkpt>
      <trkpt lat="36.7455" lon="28.26952">
        <ele>6.5</ele>
      </trkpt>
      <trkpt lat="36.74552" lon="28.26954">
        <ele>6.2</ele>
      </trkpt>
      <trkpt lat="36.74555" lon="28.26956">
        <ele>6</ele>
      </trkpt>
      <trkpt lat="36.74557" lon="28.2696">
        <ele>5.7</ele>
      </trkpt>
      <trkpt lat="36.74559" lon="28.26963">
        <ele>5.4</ele>
      </trkpt>
      <trkpt lat="36.74561" lon="28.26965">
        <ele>5.2</ele>
      </trkpt>
      <trkpt lat="36.74564" lon="28.26969">
        <ele>4.9</ele>
      </trkpt>
      <trkpt lat="36.74565" lon="28.26972">
        <ele>4.6</ele>
      </trkpt>
      <trkpt lat="36.74567" lon="28.26976">
        <ele>4.3</ele>
      </trkpt>
      <trkpt lat="36.74568" lon="28.26979">
        <ele>4</ele>
      </trkpt>
      <trkpt lat="36.74571" lon="28.26982">
        <ele>3.7</ele>
      </trkpt>
      <trkpt lat="36.74573" lon="28.26985">
        <ele>3.4</ele>
      </trkpt>
      <trkpt lat="36.74575" lon="28.26988">
        <ele>3.1</ele>
      </trkpt>
      <trkpt lat="36.74576" lon="28.26992">
        <ele>2.8</ele>
      </trkpt>
      <trkpt lat="36.74578" lon="28.26994">
        <ele>2.6</ele>
      </trkpt>
      <trkpt lat="36.74579" lon="28.26996">
        <ele>2.4</ele>
      </trkpt>
      <trkpt lat="36.74583" lon="28.27002">
        <ele>2</ele>
      </trkpt>
      <trkpt lat="36.74584" lon="28.27005">
        <ele>2</ele>
      </trkpt>
      <trkpt lat="36.74586" lon="28.27009">
        <ele>2</ele>
      </trkpt>
      <trkpt lat="36.74588" lon="28.27011">
        <ele>2</ele>
      </trkpt>
      <trkpt lat="36.7459" lon="28.27014">
        <ele>2</ele>
      </trkpt>
      <trkpt lat="36.74592" lon="28.27016">
        <ele>2</ele>
      </trkpt>
      <trkpt lat="36.74594" lon="28.27019">
        <ele>2</ele>
      </trkpt>
      <trkpt lat="36.74596" lon="28.27021">
        <ele>2</ele>
      </trkpt>
      <trkpt lat="36.74598" lon="28.27024">
        <ele>2</ele>
      </trkpt>
      <trkpt lat="36.746" lon="28.27025">
        <ele>2</ele>
      </trkpt>
      <trkpt lat="36.74603" lon="28.27026">
        <ele>2</ele>
      </trkpt>
      <trkpt lat="36.74605" lon="28.27026">
        <ele>2</ele>
      </trkpt>
      <trkpt lat="36.74609" lon="28.27026">
        <ele>2</ele>
      </trkpt>
      <trkpt lat="36.74612" lon="28.27026">
        <ele>2</ele>
      </trkpt>
      <trkpt lat="36.74614" lon="28.27024">
        <ele>2</ele>
      </trkpt>
      <trkpt lat="36.74617" lon="28.27023">
        <ele>2</ele>
      </trkpt>
      <trkpt lat="36.74618" lon="28.27023">
        <ele>2</ele>
      </trkpt>
      <trkpt lat="36.74619" lon="28.27023">
        <ele>2</ele>
      </trkpt>
      <trkpt lat="36.7462" lon="28.27022">
        <ele>2</ele>
      </trkpt>
      <trkpt lat="36.74621" lon="28.27022">
        <ele>2</ele>
      </trkpt>
      <trkpt lat="36.74622" lon="28.27022">
        <ele>2</ele>
      </trkpt>
      <trkpt lat="36.74623" lon="28.27022">
        <ele>2</ele>
      </trkpt>
      <trkpt lat="36.74624" lon="28.27021">
        <ele>2</ele>
      </trkpt>
      <trkpt lat="36.74625" lon="28.27021">
        <ele>2</ele>
      </trkpt>
      <trkpt lat="36.74625" lon="28.27021">
        <ele>2</ele>
      </trkpt>
      <trkpt lat="36.7464" lon="28.27006">
        <ele>2</ele>
      </trkpt>
      <trkpt lat="36.74648" lon="28.26993">
        <ele>2.3</ele>
      </trkpt>
      <trkpt lat="36.74658" lon="28.26981">
        <ele>2.7</ele>
      </trkpt>
      <trkpt lat="36.74664" lon="28.26971">
        <ele>3.1</ele>
      </trkpt>
      <trkpt lat="36.74672" lon="28.26955">
        <ele>3.5</ele>
      </trkpt>
      <trkpt lat="36.74684" lon="28.26939">
        <ele>3.6</ele>
      </trkpt>
      <trkpt lat="36.74699" lon="28.2692">
        <ele>3.4</ele>
      </trkpt>
      <trkpt lat="36.74718" lon="28.26905">
        <ele>2.9</ele>
      </trkpt>
      <trkpt lat="36.7473" lon="28.26896">
        <ele>2.5</ele>
      </trkpt>
      <trkpt lat="36.74747" lon="28.26885">
        <ele>1.9</ele>
      </trkpt>
      <trkpt lat="36.74761" lon="28.26877">
        <ele>1.9</ele>
      </trkpt>
      <trkpt lat="36.74775" lon="28.26869">
        <ele>2.2</ele>
      </trkpt>
      <trkpt lat="36.7479" lon="28.26858">
        <ele>2.4</ele>
      </trkpt>
      <trkpt lat="36.74801" lon="28.26854">
        <ele>2.5</ele>
      </trkpt>
      <trkpt lat="36.7481" lon="28.26847">
        <ele>2.7</ele>
      </trkpt>
      <trkpt lat="36.74823" lon="28.26837">
        <ele>2.9</ele>
      </trkpt>
      <trkpt lat="36.74834" lon="28.26831">
        <ele>3.2</ele>
      </trkpt>
      <trkpt lat="36.74844" lon="28.26824">
        <ele>3.9</ele>
      </trkpt>
      <trkpt lat="36.74857" lon="28.26815">
        <ele>4.9</ele>
      </trkpt>
      <trkpt lat="36.7487" lon="28.26806">
        <ele>6</ele>
      </trkpt>
      <trkpt lat="36.74887" lon="28.26796">
        <ele>7.3</ele>
      </trkpt>
      <trkpt lat="36.74902" lon="28.26786">
        <ele>8.5</ele>
      </trkpt>
      <trkpt lat="36.74903" lon="28.26786">
        <ele>8.6</ele>
      </trkpt>
      <trkpt lat="36.74906" lon="28.26772">
        <ele>9.8</ele>
      </trkpt>
      <trkpt lat="36.74917" lon="28.26765">
        <ele>10.8</ele>
      </trkpt>
      <trkpt lat="36.74939" lon="28.26761">
        <ele>10</ele>
      </trkpt>
      <trkpt lat="36.74965" lon="28.26762">
        <ele>8.7</ele>
      </trkpt>
      <trkpt lat="36.74988" lon="28.26762">
        <ele>7.6</ele>
      </trkpt>
      <trkpt lat="36.74996" lon="28.26762">
        <ele>7.2</ele>
      </trkpt>
      <trkpt lat="36.75006" lon="28.26759">
        <ele>6.9</ele>
      </trkpt>
      <trkpt lat="36.75006" lon="28.26759">
        <ele>6.9</ele>
      </trkpt>
      <trkpt lat="36.75006" lon="28.26759">
        <ele>6.9</ele>
      </trkpt>
      <trkpt lat="36.75006" lon="28.26759">
        <ele>6.9</ele>
      </trkpt>
      <trkpt lat="36.75006" lon="28.26759">
        <ele>6.9</ele>
      </trkpt>
      <trkpt lat="36.75006" lon="28.26759">
        <ele>6.9</ele>
      </trkpt>
      <trkpt lat="36.75006" lon="28.26759">
        <ele>6.9</ele>
      </trkpt>
      <trkpt lat="36.75006" lon="28.26759">
        <ele>6.9</ele>
      </trkpt>
      <trkpt lat="36.75006" lon="28.26759">
        <ele>6.9</ele>
      </trkpt>
      <trkpt lat="36.75006" lon="28.26759">
        <ele>6.9</ele>
      </trkpt>
      <trkpt lat="36.75006" lon="28.26759">
        <ele>6.9</ele>
      </trkpt>
      <trkpt lat="36.75006" lon="28.26759">
        <ele>6.9</ele>
      </trkpt>
      <trkpt lat="36.75006" lon="28.26759">
        <ele>6.9</ele>
      </trkpt>
      <trkpt lat="36.75006" lon="28.26759">
        <ele>6.9</ele>
      </trkpt>
      <trkpt lat="36.75006" lon="28.26759">
        <ele>6.9</ele>
      </trkpt>
      <trkpt lat="36.75036" lon="28.26739">
        <ele>6.5</ele>
      </trkpt>
      <trkpt lat="36.75036" lon="28.26739">
        <ele>6.5</ele>
      </trkpt>
      <trkpt lat="36.75036" lon="28.26739">
        <ele>6.5</ele>
      </trkpt>
      <trkpt lat="36.75036" lon="28.26739">
        <ele>6.5</ele>
      </trkpt>
      <trkpt lat="36.75036" lon="28.26739">
        <ele>6.5</ele>
      </trkpt>
      <trkpt lat="36.75036" lon="28.26739">
        <ele>6.5</ele>
      </trkpt>
      <trkpt lat="36.75036" lon="28.26739">
        <ele>6.5</ele>
      </trkpt>
      <trkpt lat="36.75036" lon="28.26739">
        <ele>6.5</ele>
      </trkpt>
      <trkpt lat="36.75036" lon="28.26739">
        <ele>6.5</ele>
      </trkpt>
      <trkpt lat="36.75036" lon="28.26739">
        <ele>6.5</ele>
      </trkpt>
      <trkpt lat="36.75036" lon="28.26739">
        <ele>6.5</ele>
      </trkpt>
      <trkpt lat="36.75036" lon="28.26739">
        <ele>6.5</ele>
      </trkpt>
      <trkpt lat="36.75036" lon="28.26739">
        <ele>6.5</ele>
      </trkpt>
      <trkpt lat="36.75036" lon="28.26739">
        <ele>6.5</ele>
      </trkpt>
      <trkpt lat="36.75036" lon="28.26739">
        <ele>6.5</ele>
      </trkpt>
      <trkpt lat="36.75054" lon="28.26736">
        <ele>5.4</ele>
      </trkpt>
      <trkpt lat="36.75076" lon="28.26734">
        <ele>3.9</ele>
      </trkpt>
      <trkpt lat="36.75091" lon="28.26733">
        <ele>3.3</ele>
      </trkpt>
      <trkpt lat="36.75109" lon="28.26729">
        <ele>3.1</ele>
      </trkpt>
      <trkpt lat="36.75129" lon="28.26726">
        <ele>2.9</ele>
      </trkpt>
      <trkpt lat="36.7515" lon="28.26723">
        <ele>2.6</ele>
      </trkpt>
      <trkpt lat="36.75164" lon="28.26721">
        <ele>2.4</ele>
      </trkpt>
      <trkpt lat="36.75184" lon="28.2672">
        <ele>2.5</ele>
      </trkpt>
      <trkpt lat="36.75206" lon="28.2672">
        <ele>2.7</ele>
      </trkpt>
      <trkpt lat="36.75222" lon="28.26721">
        <ele>2.8</ele>
      </trkpt>
      <trkpt lat="36.7524" lon="28.26721">
        <ele>2.9</ele>
      </trkpt>
      <trkpt lat="36.75257" lon="28.2672">
        <ele>3.1</ele>
      </trkpt>
      <trkpt lat="36.75275" lon="28.2672">
        <ele>3.3</ele>
      </trkpt>
      <trkpt lat="36.75291" lon="28.26721">
        <ele>3.5</ele>
      </trkpt>
      <trkpt lat="36.75302" lon="28.26721">
        <ele>3.6</ele>
      </trkpt>
      <trkpt lat="36.75321" lon="28.26722">
        <ele>3.9</ele>
      </trkpt>
      <trkpt lat="36.75339" lon="28.26721">
        <ele>4</ele>
      </trkpt>
      <trkpt lat="36.75342" lon="28.26719">
        <ele>4</ele>
      </trkpt>
      <trkpt lat="36.75345" lon="28.26726">
        <ele>4</ele>
      </trkpt>
      <trkpt lat="36.75349" lon="28.26729">
        <ele>4</ele>
      </trkpt>
      <trkpt lat="36.75362" lon="28.26733">
        <ele>4.1</ele>
      </trkpt>
      <trkpt lat="36.75376" lon="28.26732">
        <ele>4.1</ele>
      </trkpt>
      <trkpt lat="36.75394" lon="28.26729">
        <ele>4.2</ele>
      </trkpt>
      <trkpt lat="36.75411" lon="28.26728">
        <ele>4.2</ele>
      </trkpt>
      <trkpt lat="36.75418" lon="28.26725">
        <ele>4.6</ele>
      </trkpt>
      <trkpt lat="36.75418" lon="28.26724">
        <ele>4.6</ele>
      </trkpt>
      <trkpt lat="36.75427" lon="28.26709">
        <ele>6.4</ele>
      </trkpt>
      <trkpt lat="36.75431" lon="28.26698">
        <ele>7.5</ele>
      </trkpt>
      <trkpt lat="36.75434" lon="28.26684">
        <ele>8.8</ele>
      </trkpt>
      <trkpt lat="36.75444" lon="28.26672">
        <ele>11.5</ele>
      </trkpt>
      <trkpt lat="36.75454" lon="28.26663">
        <ele>14.5</ele>
      </trkpt>
      <trkpt lat="36.75465" lon="28.26653">
        <ele>17.7</ele>
      </trkpt>
      <trkpt lat="36.75468" lon="28.26651">
        <ele>18.6</ele>
      </trkpt>
      <trkpt lat="36.75476" lon="28.26641">
        <ele>21.1</ele>
      </trkpt>
      <trkpt lat="36.75485" lon="28.26656">
        <ele>22.7</ele>
      </trkpt>
      <trkpt lat="36.75487" lon="28.26662">
        <ele>22.9</ele>
      </trkpt>
      <trkpt lat="36.7549" lon="28.26666">
        <ele>23.6</ele>
      </trkpt>
      <trkpt lat="36.75499" lon="28.26672">
        <ele>24.9</ele>
      </trkpt>
      <trkpt lat="36.75505" lon="28.26664">
        <ele>28.9</ele>
      </trkpt>
      <trkpt lat="36.75507" lon="28.26656">
        <ele>30.9</ele>
      </trkpt>
      <trkpt lat="36.75503" lon="28.26649">
        <ele>28.7</ele>
      </trkpt>
      <trkpt lat="36.75501" lon="28.26648">
        <ele>27.7</ele>
      </trkpt>
      <trkpt lat="36.75501" lon="28.26642">
        <ele>27.8</ele>
      </trkpt>
      <trkpt lat="36.75502" lon="28.26629">
        <ele>29.4</ele>
      </trkpt>
      <trkpt lat="36.75502" lon="28.26621">
        <ele>29.7</ele>
      </trkpt>
      <trkpt lat="36.75502" lon="28.2661">
        <ele>30.2</ele>
      </trkpt>
      <trkpt lat="36.75505" lon="28.26603">
        <ele>32.2</ele>
      </trkpt>
      <trkpt lat="36.75504" lon="28.26589">
        <ele>32.7</ele>
      </trkpt>
      <trkpt lat="36.75506" lon="28.26578">
        <ele>33.7</ele>
      </trkpt>
      <trkpt lat="36.7551" lon="28.26564">
        <ele>35.1</ele>
      </trkpt>
      <trkpt lat="36.75511" lon="28.26556">
        <ele>34.9</ele>
      </trkpt>
      <trkpt lat="36.75513" lon="28.26544">
        <ele>35.5</ele>
      </trkpt>
      <trkpt lat="36.75514" lon="28.26541">
        <ele>35.8</ele>
      </trkpt>
      <trkpt lat="36.75519" lon="28.26532">
        <ele>37.2</ele>
      </trkpt>
      <trkpt lat="36.75521" lon="28.26529">
        <ele>38</ele>
      </trkpt>
      <trkpt lat="36.75526" lon="28.26517">
        <ele>39.4</ele>
      </trkpt>
      <trkpt lat="36.75531" lon="28.26509">
        <ele>40.8</ele>
      </trkpt>
      <trkpt lat="36.75538" lon="28.265">
        <ele>43</ele>
      </trkpt>
      <trkpt lat="36.75542" lon="28.26499">
        <ele>44.8</ele>
      </trkpt>
      <trkpt lat="36.75547" lon="28.26492">
        <ele>47.6</ele>
      </trkpt>
      <trkpt lat="36.75551" lon="28.26494">
        <ele>49</ele>
      </trkpt>
      <trkpt lat="36.75553" lon="28.26496">
        <ele>49.5</ele>
      </trkpt>
      <trkpt lat="36.75558" lon="28.26497">
        <ele>51.2</ele>
      </trkpt>
      <trkpt lat="36.75561" lon="28.265">
        <ele>52.3</ele>
      </trkpt>
      <trkpt lat="36.75568" lon="28.26496">
        <ele>55.5</ele>
      </trkpt>
      <trkpt lat="36.75573" lon="28.26492">
        <ele>57.8</ele>
      </trkpt>
      <trkpt lat="36.75577" lon="28.26493">
        <ele>59.4</ele>
      </trkpt>
      <trkpt lat="36.75581" lon="28.26496">
        <ele>60.5</ele>
      </trkpt>
      <trkpt lat="36.75586" lon="28.26501">
        <ele>61</ele>
      </trkpt>
      <trkpt lat="36.7559" lon="28.265">
        <ele>60.9</ele>
      </trkpt>
      <trkpt lat="36.75596" lon="28.26489">
        <ele>62.1</ele>
      </trkpt>
      <trkpt lat="36.75603" lon="28.26488">
        <ele>62.1</ele>
      </trkpt>
      <trkpt lat="36.75604" lon="28.26486">
        <ele>62.3</ele>
      </trkpt>
      <trkpt lat="36.75614" lon="28.26489">
        <ele>61.7</ele>
      </trkpt>
      <trkpt lat="36.75617" lon="28.26488">
        <ele>61.8</ele>
      </trkpt>
      <trkpt lat="36.7562" lon="28.26496">
        <ele>60.6</ele>
      </trkpt>
      <trkpt lat="36.7562" lon="28.26497">
        <ele>60.6</ele>
      </trkpt>
      <trkpt lat="36.75621" lon="28.26497">
        <ele>60.6</ele>
      </trkpt>
      <trkpt lat="36.7562" lon="28.26496">
        <ele>60.7</ele>
      </trkpt>
      <trkpt lat="36.75618" lon="28.26484">
        <ele>62.3</ele>
      </trkpt>
      <trkpt lat="36.75617" lon="28.26484">
        <ele>62.4</ele>
      </trkpt>
      <trkpt lat="36.75618" lon="28.26478">
        <ele>63.2</ele>
      </trkpt>
      <trkpt lat="36.75618" lon="28.26477">
        <ele>63.3</ele>
      </trkpt>
      <trkpt lat="36.75618" lon="28.26476">
        <ele>63.4</ele>
      </trkpt>
      <trkpt lat="36.75617" lon="28.26477">
        <ele>63.3</ele>
      </trkpt>
      <trkpt lat="36.75624" lon="28.26475">
        <ele>63.5</ele>
      </trkpt>
      <trkpt lat="36.75624" lon="28.26475">
        <ele>63.5</ele>
      </trkpt>
      <trkpt lat="36.75628" lon="28.26467">
        <ele>64.5</ele>
      </trkpt>
      <trkpt lat="36.75626" lon="28.26452">
        <ele>66.6</ele>
      </trkpt>
      <trkpt lat="36.75625" lon="28.26449">
        <ele>67.1</ele>
      </trkpt>
      <trkpt lat="36.75624" lon="28.26439">
        <ele>68.5</ele>
      </trkpt>
      <trkpt lat="36.75625" lon="28.26433">
        <ele>69.3</ele>
      </trkpt>
      <trkpt lat="36.75628" lon="28.26423">
        <ele>70.6</ele>
      </trkpt>
      <trkpt lat="36.75623" lon="28.26414">
        <ele>72.2</ele>
      </trkpt>
      <trkpt lat="36.75614" lon="28.26406">
        <ele>74.6</ele>
      </trkpt>
      <trkpt lat="36.75609" lon="28.26403">
        <ele>75.4</ele>
      </trkpt>
      <trkpt lat="36.75608" lon="28.26402">
        <ele>75.5</ele>
      </trkpt>
      <trkpt lat="36.75601" lon="28.26398">
        <ele>76.4</ele>
      </trkpt>
      <trkpt lat="36.75606" lon="28.26404">
        <ele>74.9</ele>
      </trkpt>
      <trkpt lat="36.75607" lon="28.26403">
        <ele>75.4</ele>
      </trkpt>
      <trkpt lat="36.75608" lon="28.26405">
        <ele>74.7</ele>
      </trkpt>
      <trkpt lat="36.75611" lon="28.26402">
        <ele>75.6</ele>
      </trkpt>
      <trkpt lat="36.75601" lon="28.26398">
        <ele>76.4</ele>
      </trkpt>
      <trkpt lat="36.75596" lon="28.26395">
        <ele>77.2</ele>
      </trkpt>
      <trkpt lat="36.75592" lon="28.2639">
        <ele>78.3</ele>
      </trkpt>
      <trkpt lat="36.75589" lon="28.26382">
        <ele>80.6</ele>
      </trkpt>
      <trkpt lat="36.75586" lon="28.26372">
        <ele>83.1</ele>
      </trkpt>
      <trkpt lat="36.75582" lon="28.26366">
        <ele>83.7</ele>
      </trkpt>
      <trkpt lat="36.75578" lon="28.26354">
        <ele>84.8</ele>
      </trkpt>
      <trkpt lat="36.75578" lon="28.26343">
        <ele>87.4</ele>
      </trkpt>
      <trkpt lat="36.75578" lon="28.2633">
        <ele>90.2</ele>
      </trkpt>
      <trkpt lat="36.75576" lon="28.26319">
        <ele>90.8</ele>
      </trkpt>
      <trkpt lat="36.75574" lon="28.26309">
        <ele>90.9</ele>
      </trkpt>
      <trkpt lat="36.75572" lon="28.26292">
        <ele>92.6</ele>
      </trkpt>
      <trkpt lat="36.75572" lon="28.26281">
        <ele>94.1</ele>
      </trkpt>
      <trkpt lat="36.75572" lon="28.26264">
        <ele>96.2</ele>
      </trkpt>
      <trkpt lat="36.75572" lon="28.26247">
        <ele>98.7</ele>
      </trkpt>
      <trkpt lat="36.75572" lon="28.2624">
        <ele>100.2</ele>
      </trkpt>
      <trkpt lat="36.75573" lon="28.2623">
        <ele>102.2</ele>
      </trkpt>
      <trkpt lat="36.75575" lon="28.26226">
        <ele>104.1</ele>
      </trkpt>
      <trkpt lat="36.75577" lon="28.26213">
        <ele>107</ele>
      </trkpt>
      <trkpt lat="36.75577" lon="28.26198">
        <ele>109.6</ele>
      </trkpt>
      <trkpt lat="36.75578" lon="28.2619">
        <ele>111.2</ele>
      </trkpt>
      <trkpt lat="36.7558" lon="28.26178">
        <ele>114.5</ele>
      </trkpt>
      <trkpt lat="36.75583" lon="28.26167">
        <ele>117.7</ele>
      </trkpt>
      <trkpt lat="36.75585" lon="28.2616">
        <ele>121.4</ele>
      </trkpt>
      <trkpt lat="36.75582" lon="28.26144">
        <ele>126.3</ele>
      </trkpt>
      <trkpt lat="36.75581" lon="28.26134">
        <ele>130.2</ele>
      </trkpt>
      <trkpt lat="36.75577" lon="28.26122">
        <ele>132.7</ele>
      </trkpt>
      <trkpt lat="36.75571" lon="28.26111">
        <ele>133.8</ele>
      </trkpt>
      <trkpt lat="36.75565" lon="28.26097">
        <ele>136.1</ele>
      </trkpt>
      <trkpt lat="36.75564" lon="28.26089">
        <ele>138.5</ele>
      </trkpt>
      <trkpt lat="36.7556" lon="28.26075">
        <ele>142.1</ele>
      </trkpt>
      <trkpt lat="36.7556" lon="28.2607">
        <ele>144.4</ele>
      </trkpt>
      <trkpt lat="36.75558" lon="28.26073">
        <ele>141.9</ele>
      </trkpt>
      <trkpt lat="36.75556" lon="28.26066">
        <ele>143.9</ele>
      </trkpt>
      <trkpt lat="36.75553" lon="28.26061">
        <ele>144.7</ele>
      </trkpt>
      <trkpt lat="36.75547" lon="28.26056">
        <ele>143.2</ele>
      </trkpt>
      <trkpt lat="36.75538" lon="28.26049">
        <ele>140.9</ele>
      </trkpt>
      <trkpt lat="36.75529" lon="28.26044">
        <ele>138.2</ele>
      </trkpt>
      <trkpt lat="36.75524" lon="28.26037">
        <ele>138</ele>
      </trkpt>
      <trkpt lat="36.75515" lon="28.26026">
        <ele>137.7</ele>
      </trkpt>
      <trkpt lat="36.75506" lon="28.26018">
        <ele>136.3</ele>
      </trkpt>
      <trkpt lat="36.75504" lon="28.26018">
        <ele>135.5</ele>
      </trkpt>
      <trkpt lat="36.755" lon="28.26016">
        <ele>133.7</ele>
      </trkpt>
      <trkpt lat="36.75495" lon="28.2601">
        <ele>134.2</ele>
      </trkpt>
      <trkpt lat="36.75493" lon="28.26008">
        <ele>134.5</ele>
      </trkpt>
      <trkpt lat="36.75488" lon="28.25997">
        <ele>136.4</ele>
      </trkpt>
      <trkpt lat="36.75483" lon="28.25983">
        <ele>140.2</ele>
      </trkpt>
      <trkpt lat="36.75481" lon="28.25979">
        <ele>140.4</ele>
      </trkpt>
      <trkpt lat="36.75472" lon="28.25972">
        <ele>139.1</ele>
      </trkpt>
      <trkpt lat="36.75457" lon="28.25961">
        <ele>136.5</ele>
      </trkpt>
      <trkpt lat="36.75452" lon="28.25946">
        <ele>140</ele>
      </trkpt>
      <trkpt lat="36.75449" lon="28.25934">
        <ele>143.2</ele>
      </trkpt>
      <trkpt lat="36.75443" lon="28.25922">
        <ele>145.4</ele>
      </trkpt>
      <trkpt lat="36.75435" lon="28.25905">
        <ele>147.5</ele>
      </trkpt>
      <trkpt lat="36.7543" lon="28.25894">
        <ele>148.8</ele>
      </trkpt>
      <trkpt lat="36.75421" lon="28.25879">
        <ele>149.2</ele>
      </trkpt>
      <trkpt lat="36.75419" lon="28.25875">
        <ele>149.2</ele>
      </trkpt>
      <trkpt lat="36.75405" lon="28.25863">
        <ele>148.4</ele>
      </trkpt>
      <trkpt lat="36.75403" lon="28.25858">
        <ele>149.3</ele>
      </trkpt>
      <trkpt lat="36.75395" lon="28.25849">
        <ele>149.7</ele>
      </trkpt>
      <trkpt lat="36.75385" lon="28.25841">
        <ele>149</ele>
      </trkpt>
      <trkpt lat="36.75373" lon="28.25832">
        <ele>147.9</ele>
      </trkpt>
      <trkpt lat="36.75363" lon="28.25825">
        <ele>146.1</ele>
      </trkpt>
      <trkpt lat="36.75351" lon="28.25814">
        <ele>143.4</ele>
      </trkpt>
      <trkpt lat="36.75344" lon="28.25805">
        <ele>142</ele>
      </trkpt>
      <trkpt lat="36.75338" lon="28.25796">
        <ele>141.2</ele>
      </trkpt>
      <trkpt lat="36.75332" lon="28.25795">
        <ele>138.6</ele>
      </trkpt>
      <trkpt lat="36.75331" lon="28.25794">
        <ele>138.5</ele>
      </trkpt>
      <trkpt lat="36.75328" lon="28.25792">
        <ele>136.9</ele>
      </trkpt>
      <trkpt lat="36.75322" lon="28.25795">
        <ele>132.3</ele>
      </trkpt>
      <trkpt lat="36.75322" lon="28.25796">
        <ele>132.2</ele>
      </trkpt>
      <trkpt lat="36.75321" lon="28.25797">
        <ele>131.3</ele>
      </trkpt>
      <trkpt lat="36.7532" lon="28.25796">
        <ele>131.2</ele>
      </trkpt>
      <trkpt lat="36.75322" lon="28.25795">
        <ele>132.3</ele>
      </trkpt>
      <trkpt lat="36.75321" lon="28.25796">
        <ele>131.8</ele>
      </trkpt>
      <trkpt lat="36.75323" lon="28.25796">
        <ele>132.9</ele>
      </trkpt>
      <trkpt lat="36.75322" lon="28.25795">
        <ele>132.3</ele>
      </trkpt>
      <trkpt lat="36.7532" lon="28.25796">
        <ele>131.4</ele>
      </trkpt>
      <trkpt lat="36.75321" lon="28.25796">
        <ele>131.4</ele>
      </trkpt>
      <trkpt lat="36.75322" lon="28.25796">
        <ele>132.5</ele>
      </trkpt>
      <trkpt lat="36.75322" lon="28.25794">
        <ele>132.5</ele>
      </trkpt>
      <trkpt lat="36.75323" lon="28.25794">
        <ele>133</ele>
      </trkpt>
      <trkpt lat="36.75321" lon="28.25795">
        <ele>132</ele>
      </trkpt>
      <trkpt lat="36.75322" lon="28.25795">
        <ele>132.5</ele>
      </trkpt>
      <trkpt lat="36.75321" lon="28.25797">
        <ele>131.6</ele>
      </trkpt>
      <trkpt lat="36.7532" lon="28.25796">
        <ele>130.8</ele>
      </trkpt>
      <trkpt lat="36.75321" lon="28.25795">
        <ele>132</ele>
      </trkpt>
      <trkpt lat="36.75325" lon="28.25794">
        <ele>134.3</ele>
      </trkpt>
      <trkpt lat="36.75321" lon="28.25795">
        <ele>132.1</ele>
      </trkpt>
      <trkpt lat="36.75321" lon="28.25796">
        <ele>131.5</ele>
      </trkpt>
      <trkpt lat="36.75321" lon="28.25795">
        <ele>132.1</ele>
      </trkpt>
      <trkpt lat="36.75324" lon="28.25792">
        <ele>134.4</ele>
      </trkpt>
      <trkpt lat="36.75328" lon="28.25783">
        <ele>137.9</ele>
      </trkpt>
      <trkpt lat="36.7533" lon="28.25758">
        <ele>142.5</ele>
      </trkpt>
      <trkpt lat="36.75333" lon="28.25741">
        <ele>144.7</ele>
      </trkpt>
      <trkpt lat="36.75337" lon="28.25724">
        <ele>145.8</ele>
      </trkpt>
      <trkpt lat="36.75337" lon="28.25721">
        <ele>146</ele>
      </trkpt>
      <trkpt lat="36.75339" lon="28.25716">
        <ele>146.7</ele>
      </trkpt>
      <trkpt lat="36.7534" lon="28.25716">
        <ele>147.3</ele>
      </trkpt>
      <trkpt lat="36.75345" lon="28.25716">
        <ele>149.7</ele>
      </trkpt>
      <trkpt lat="36.75351" lon="28.25716">
        <ele>152.5</ele>
      </trkpt>
      <trkpt lat="36.75357" lon="28.25718">
        <ele>155</ele>
      </trkpt>
      <trkpt lat="36.75361" lon="28.25721">
        <ele>157</ele>
      </trkpt>
      <trkpt lat="36.75367" lon="28.25724">
        <ele>159.4</ele>
      </trkpt>
      <trkpt lat="36.75374" lon="28.25729">
        <ele>162.5</ele>
      </trkpt>
      <trkpt lat="36.75379" lon="28.25735">
        <ele>164.4</ele>
      </trkpt>
      <trkpt lat="36.75384" lon="28.25731">
        <ele>167</ele>
      </trkpt>
      <trkpt lat="36.75386" lon="28.25726">
        <ele>168.1</ele>
      </trkpt>
      <trkpt lat="36.75393" lon="28.2572">
        <ele>171.3</ele>
      </trkpt>
      <trkpt lat="36.75396" lon="28.25719">
        <ele>172.8</ele>
      </trkpt>
      <trkpt lat="36.75401" lon="28.25721">
        <ele>174.8</ele>
      </trkpt>
      <trkpt lat="36.75408" lon="28.25716">
        <ele>178.5</ele>
      </trkpt>
      <trkpt lat="36.75408" lon="28.25709">
        <ele>179</ele>
      </trkpt>
      <trkpt lat="36.75412" lon="28.257">
        <ele>181.3</ele>
      </trkpt>
      <trkpt lat="36.75418" lon="28.25699">
        <ele>184.3</ele>
      </trkpt>
      <trkpt lat="36.75424" lon="28.25693">
        <ele>188.5</ele>
      </trkpt>
      <trkpt lat="36.75429" lon="28.25686">
        <ele>192.1</ele>
      </trkpt>
      <trkpt lat="36.75433" lon="28.25673">
        <ele>195.7</ele>
      </trkpt>
      <trkpt lat="36.75438" lon="28.25671">
        <ele>198.8</ele>
      </trkpt>
      <trkpt lat="36.75441" lon="28.25671">
        <ele>200.7</ele>
      </trkpt>
      <trkpt lat="36.7545" lon="28.25671">
        <ele>205.8</ele>
      </trkpt>
      <trkpt lat="36.75452" lon="28.25664">
        <ele>208.2</ele>
      </trkpt>
      <trkpt lat="36.75455" lon="28.25666">
        <ele>209.5</ele>
      </trkpt>
      <trkpt lat="36.75461" lon="28.25665">
        <ele>213.4</ele>
      </trkpt>
      <trkpt lat="36.75467" lon="28.25666">
        <ele>217</ele>
      </trkpt>
      <trkpt lat="36.75472" lon="28.25659">
        <ele>221.3</ele>
      </trkpt>
      <trkpt lat="36.75476" lon="28.2565">
        <ele>225.2</ele>
      </trkpt>
      <trkpt lat="36.75483" lon="28.25644">
        <ele>230.6</ele>
      </trkpt>
      <trkpt lat="36.75488" lon="28.25647">
        <ele>232.7</ele>
      </trkpt>
      <trkpt lat="36.75492" lon="28.25652">
        <ele>234.4</ele>
      </trkpt>
      <trkpt lat="36.75498" lon="28.25654">
        <ele>238</ele>
      </trkpt>
      <trkpt lat="36.75503" lon="28.25657">
        <ele>240.4</ele>
      </trkpt>
      <trkpt lat="36.75508" lon="28.25661">
        <ele>242.4</ele>
      </trkpt>
      <trkpt lat="36.75513" lon="28.25667">
        <ele>244.4</ele>
      </trkpt>
      <trkpt lat="36.75518" lon="28.25674">
        <ele>247.1</ele>
      </trkpt>
      <trkpt lat="36.75524" lon="28.25674">
        <ele>250.8</ele>
      </trkpt>
      <trkpt lat="36.75525" lon="28.2567">
        <ele>251.2</ele>
      </trkpt>
      <trkpt lat="36.75527" lon="28.25669">
        <ele>252.5</ele>
      </trkpt>
      <trkpt lat="36.7553" lon="28.25664">
        <ele>254.7</ele>
      </trkpt>
      <trkpt lat="36.75529" lon="28.25664">
        <ele>254.5</ele>
      </trkpt>
      <trkpt lat="36.75532" lon="28.2566">
        <ele>256.6</ele>
      </trkpt>
      <trkpt lat="36.75531" lon="28.25656">
        <ele>257</ele>
      </trkpt>
      <trkpt lat="36.75533" lon="28.25655">
        <ele>257.9</ele>
      </trkpt>
      <trkpt lat="36.75535" lon="28.25652">
        <ele>259.7</ele>
      </trkpt>
      <trkpt lat="36.75535" lon="28.25651">
        <ele>259.7</ele>
      </trkpt>
      <trkpt lat="36.75542" lon="28.25651">
        <ele>263.9</ele>
      </trkpt>
      <trkpt lat="36.75545" lon="28.25647">
        <ele>266.1</ele>
      </trkpt>
      <trkpt lat="36.75547" lon="28.25646">
        <ele>267.3</ele>
      </trkpt>
      <trkpt lat="36.7555" lon="28.25648">
        <ele>268.9</ele>
      </trkpt>
      <trkpt lat="36.75557" lon="28.25645">
        <ele>273.6</ele>
      </trkpt>
      <trkpt lat="36.75563" lon="28.25639">
        <ele>277.4</ele>
      </trkpt>
      <trkpt lat="36.75564" lon="28.25638">
        <ele>278.1</ele>
      </trkpt>
      <trkpt lat="36.75564" lon="28.25631">
        <ele>279.4</ele>
      </trkpt>
      <trkpt lat="36.75561" lon="28.25623">
        <ele>278.6</ele>
      </trkpt>
      <trkpt lat="36.75561" lon="28.25622">
        <ele>278.7</ele>
      </trkpt>
      <trkpt lat="36.75558" lon="28.25613">
        <ele>278.3</ele>
      </trkpt>
      <trkpt lat="36.75561" lon="28.25606">
        <ele>280.6</ele>
      </trkpt>
      <trkpt lat="36.75562" lon="28.25604">
        <ele>281.5</ele>
      </trkpt>
      <trkpt lat="36.75564" lon="28.25602">
        <ele>283.2</ele>
      </trkpt>
      <trkpt lat="36.75568" lon="28.25601">
        <ele>285.6</ele>
      </trkpt>
      <trkpt lat="36.75571" lon="28.256">
        <ele>286.9</ele>
      </trkpt>
      <trkpt lat="36.75575" lon="28.25594">
        <ele>289.9</ele>
      </trkpt>
      <trkpt lat="36.75578" lon="28.25588">
        <ele>292.8</ele>
      </trkpt>
      <trkpt lat="36.75578" lon="28.25577">
        <ele>293.6</ele>
      </trkpt>
      <trkpt lat="36.75578" lon="28.25571">
        <ele>294.4</ele>
      </trkpt>
      <trkpt lat="36.75578" lon="28.25562">
        <ele>295.4</ele>
      </trkpt>
      <trkpt lat="36.75576" lon="28.25552">
        <ele>295.7</ele>
      </trkpt>
      <trkpt lat="36.7558" lon="28.25542">
        <ele>298.7</ele>
      </trkpt>
      <trkpt lat="36.75582" lon="28.25535">
        <ele>300.5</ele>
      </trkpt>
      <trkpt lat="36.75585" lon="28.25525">
        <ele>303</ele>
      </trkpt>
      <trkpt lat="36.75587" lon="28.25522">
        <ele>304</ele>
      </trkpt>
      <trkpt lat="36.75587" lon="28.25522">
        <ele>304.2</ele>
      </trkpt>
      <trkpt lat="36.75592" lon="28.25511">
        <ele>307</ele>
      </trkpt>
      <trkpt lat="36.75593" lon="28.25494">
        <ele>309.1</ele>
      </trkpt>
      <trkpt lat="36.75593" lon="28.25493">
        <ele>309.2</ele>
      </trkpt>
      <trkpt lat="36.756" lon="28.25482">
        <ele>312.2</ele>
      </trkpt>
      <trkpt lat="36.75604" lon="28.2547">
        <ele>314.2</ele>
      </trkpt>
      <trkpt lat="36.75605" lon="28.2546">
        <ele>315.3</ele>
      </trkpt>
      <trkpt lat="36.75606" lon="28.25452">
        <ele>316</ele>
      </trkpt>
      <trkpt lat="36.75608" lon="28.2545">
        <ele>316.6</ele>
      </trkpt>
      <trkpt lat="36.75611" lon="28.25444">
        <ele>317.5</ele>
      </trkpt>
      <trkpt lat="36.75611" lon="28.25443">
        <ele>317.7</ele>
      </trkpt>
      <trkpt lat="36.75612" lon="28.25434">
        <ele>318.4</ele>
      </trkpt>
      <trkpt lat="36.75615" lon="28.2543">
        <ele>319.1</ele>
      </trkpt>
      <trkpt lat="36.7562" lon="28.25422">
        <ele>320.5</ele>
      </trkpt>
      <trkpt lat="36.75623" lon="28.25417">
        <ele>321.1</ele>
      </trkpt>
      <trkpt lat="36.75624" lon="28.25415">
        <ele>321.4</ele>
      </trkpt>
      <trkpt lat="36.75631" lon="28.25407">
        <ele>322.9</ele>
      </trkpt>
      <trkpt lat="36.75634" lon="28.25403">
        <ele>323.4</ele>
      </trkpt>
      <trkpt lat="36.75636" lon="28.25405">
        <ele>323.6</ele>
      </trkpt>
      <trkpt lat="36.75641" lon="28.254">
        <ele>324.3</ele>
      </trkpt>
      <trkpt lat="36.75644" lon="28.25397">
        <ele>324.7</ele>
      </trkpt>
      <trkpt lat="36.75647" lon="28.25385">
        <ele>324.8</ele>
      </trkpt>
      <trkpt lat="36.75657" lon="28.25384">
        <ele>325.6</ele>
      </trkpt>
      <trkpt lat="36.75661" lon="28.25383">
        <ele>325.7</ele>
      </trkpt>
      <trkpt lat="36.75666" lon="28.25385">
        <ele>326.3</ele>
      </trkpt>
      <trkpt lat="36.75673" lon="28.25379">
        <ele>325.7</ele>
      </trkpt>
      <trkpt lat="36.75677" lon="28.25369">
        <ele>324.4</ele>
      </trkpt>
      <trkpt lat="36.7568" lon="28.25363">
        <ele>323.4</ele>
      </trkpt>
      <trkpt lat="36.7568" lon="28.25362">
        <ele>323.3</ele>
      </trkpt>
      <trkpt lat="36.75685" lon="28.25357">
        <ele>322.1</ele>
      </trkpt>
      <trkpt lat="36.75686" lon="28.25357">
        <ele>321.9</ele>
      </trkpt>
      <trkpt lat="36.75691" lon="28.25349">
        <ele>320.1</ele>
      </trkpt>
      <trkpt lat="36.75696" lon="28.25344">
        <ele>318.4</ele>
      </trkpt>
      <trkpt lat="36.75701" lon="28.25339">
        <ele>316.7</ele>
      </trkpt>
      <trkpt lat="36.75708" lon="28.25334">
        <ele>314.2</ele>
      </trkpt>
      <trkpt lat="36.75715" lon="28.2533">
        <ele>312.8</ele>
      </trkpt>
      <trkpt lat="36.75721" lon="28.25327">
        <ele>311.6</ele>
      </trkpt>
      <trkpt lat="36.75725" lon="28.25323">
        <ele>310.7</ele>
      </trkpt>
      <trkpt lat="36.75724" lon="28.25319">
        <ele>310.9</ele>
      </trkpt>
      <trkpt lat="36.75731" lon="28.25318">
        <ele>309.3</ele>
      </trkpt>
      <trkpt lat="36.75738" lon="28.25315">
        <ele>307.4</ele>
      </trkpt>
      <trkpt lat="36.75745" lon="28.25311">
        <ele>305.6</ele>
      </trkpt>
      <trkpt lat="36.75754" lon="28.25309">
        <ele>303.8</ele>
      </trkpt>
      <trkpt lat="36.75761" lon="28.25305">
        <ele>302.3</ele>
      </trkpt>
      <trkpt lat="36.75765" lon="28.25297">
        <ele>300.9</ele>
      </trkpt>
      <trkpt lat="36.75766" lon="28.25289">
        <ele>299.7</ele>
      </trkpt>
      <trkpt lat="36.75774" lon="28.25281">
        <ele>297.4</ele>
      </trkpt>
      <trkpt lat="36.75776" lon="28.2528">
        <ele>296.8</ele>
      </trkpt>
      <trkpt lat="36.75776" lon="28.25269">
        <ele>295.3</ele>
      </trkpt>
      <trkpt lat="36.7578" lon="28.25263">
        <ele>293.6</ele>
      </trkpt>
      <trkpt lat="36.75782" lon="28.25261">
        <ele>292.7</ele>
      </trkpt>
      <trkpt lat="36.75793" lon="28.25269">
        <ele>291.5</ele>
      </trkpt>
      <trkpt lat="36.75801" lon="28.25273">
        <ele>290.3</ele>
      </trkpt>
      <trkpt lat="36.75804" lon="28.25269">
        <ele>289</ele>
      </trkpt>
      <trkpt lat="36.7581" lon="28.25271">
        <ele>287.9</ele>
      </trkpt>
      <trkpt lat="36.75819" lon="28.25276">
        <ele>287</ele>
      </trkpt>
      <trkpt lat="36.75825" lon="28.25274">
        <ele>285.3</ele>
      </trkpt>
      <trkpt lat="36.75829" lon="28.2527">
        <ele>283.2</ele>
      </trkpt>
      <trkpt lat="36.75834" lon="28.25263">
        <ele>280</ele>
      </trkpt>
      <trkpt lat="36.75839" lon="28.25262">
        <ele>278.5</ele>
      </trkpt>
      <trkpt lat="36.75846" lon="28.25263">
        <ele>276.6</ele>
      </trkpt>
      <trkpt lat="36.75848" lon="28.25261">
        <ele>275.2</ele>
      </trkpt>
      <trkpt lat="36.75856" lon="28.25257">
        <ele>272</ele>
      </trkpt>
      <trkpt lat="36.75865" lon="28.25255">
        <ele>268.6</ele>
      </trkpt>
      <trkpt lat="36.75875" lon="28.25256">
        <ele>265.9</ele>
      </trkpt>
      <trkpt lat="36.75883" lon="28.25253">
        <ele>262.5</ele>
      </trkpt>
      <trkpt lat="36.75887" lon="28.25253">
        <ele>261.2</ele>
      </trkpt>
      <trkpt lat="36.75897" lon="28.25253">
        <ele>258</ele>
      </trkpt>
      <trkpt lat="36.75899" lon="28.25254">
        <ele>257.9</ele>
      </trkpt>
      <trkpt lat="36.75909" lon="28.2526">
        <ele>256.5</ele>
      </trkpt>
      <trkpt lat="36.75917" lon="28.25258">
        <ele>253.7</ele>
      </trkpt>
      <trkpt lat="36.75924" lon="28.25255">
        <ele>250.3</ele>
      </trkpt>
      <trkpt lat="36.75927" lon="28.25248">
        <ele>247.2</ele>
      </trkpt>
      <trkpt lat="36.75931" lon="28.25238">
        <ele>244.4</ele>
      </trkpt>
      <trkpt lat="36.75933" lon="28.25235">
        <ele>243.3</ele>
      </trkpt>
      <trkpt lat="36.75941" lon="28.25229">
        <ele>239.9</ele>
      </trkpt>
      <trkpt lat="36.75949" lon="28.25229">
        <ele>236.9</ele>
      </trkpt>
      <trkpt lat="36.75949" lon="28.25223">
        <ele>236</ele>
      </trkpt>
      <trkpt lat="36.75956" lon="28.25215">
        <ele>232.3</ele>
      </trkpt>
      <trkpt lat="36.75961" lon="28.25218">
        <ele>230.9</ele>
      </trkpt>
      <trkpt lat="36.75962" lon="28.25223">
        <ele>231.5</ele>
      </trkpt>
      <trkpt lat="36.75972" lon="28.25217">
        <ele>227</ele>
      </trkpt>
      <trkpt lat="36.75979" lon="28.25215">
        <ele>224.1</ele>
      </trkpt>
      <trkpt lat="36.75981" lon="28.25207">
        <ele>221.9</ele>
      </trkpt>
      <trkpt lat="36.75984" lon="28.25218">
        <ele>222.9</ele>
      </trkpt>
      <trkpt lat="36.75989" lon="28.25223">
        <ele>222.3</ele>
      </trkpt>
      <trkpt lat="36.75993" lon="28.25229">
        <ele>222.1</ele>
      </trkpt>
      <trkpt lat="36.75997" lon="28.25227">
        <ele>220.2</ele>
      </trkpt>
      <trkpt lat="36.76004" lon="28.25225">
        <ele>217.5</ele>
      </trkpt>
      <trkpt lat="36.76004" lon="28.25215">
        <ele>215.3</ele>
      </trkpt>
      <trkpt lat="36.76007" lon="28.2521">
        <ele>213</ele>
      </trkpt>
      <trkpt lat="36.76012" lon="28.25217">
        <ele>213</ele>
      </trkpt>
      <trkpt lat="36.76017" lon="28.25217">
        <ele>210.8</ele>
      </trkpt>
      <trkpt lat="36.76023" lon="28.25211">
        <ele>207.6</ele>
      </trkpt>
      <trkpt lat="36.76022" lon="28.2521">
        <ele>207.6</ele>
      </trkpt>
      <trkpt lat="36.76024" lon="28.25212">
        <ele>207.2</ele>
      </trkpt>
      <trkpt lat="36.76025" lon="28.25214">
        <ele>207.3</ele>
      </trkpt>
      <trkpt lat="36.76025" lon="28.25218">
        <ele>208</ele>
      </trkpt>
      <trkpt lat="36.76033" lon="28.25225">
        <ele>206.5</ele>
      </trkpt>
      <trkpt lat="36.76036" lon="28.25226">
        <ele>205.7</ele>
      </trkpt>
      <trkpt lat="36.76037" lon="28.25223">
        <ele>204.8</ele>
      </trkpt>
      <trkpt lat="36.76036" lon="28.25223">
        <ele>205.1</ele>
      </trkpt>
      <trkpt lat="36.76043" lon="28.2523">
        <ele>204</ele>
      </trkpt>
      <trkpt lat="36.76053" lon="28.25248">
        <ele>203.9</ele>
      </trkpt>
      <trkpt lat="36.76065" lon="28.25258">
        <ele>203.4</ele>
      </trkpt>
      <trkpt lat="36.76064" lon="28.25263">
        <ele>205.5</ele>
      </trkpt>
      <trkpt lat="36.76066" lon="28.25268">
        <ele>206.9</ele>
      </trkpt>
      <trkpt lat="36.76079" lon="28.25283">
        <ele>208</ele>
      </trkpt>
      <trkpt lat="36.76084" lon="28.25286">
        <ele>207.5</ele>
      </trkpt>
      <trkpt lat="36.76094" lon="28.25291">
        <ele>208.6</ele>
      </trkpt>
      <trkpt lat="36.76105" lon="28.25293">
        <ele>208.3</ele>
      </trkpt>
      <trkpt lat="36.76112" lon="28.25293">
        <ele>207.3</ele>
      </trkpt>
      <trkpt lat="36.76116" lon="28.25293">
        <ele>207.1</ele>
      </trkpt>
      <trkpt lat="36.7612" lon="28.25294">
        <ele>207.1</ele>
      </trkpt>
      <trkpt lat="36.76128" lon="28.25294">
        <ele>205.9</ele>
      </trkpt>
      <trkpt lat="36.76129" lon="28.25293">
        <ele>205.7</ele>
      </trkpt>
      <trkpt lat="36.76138" lon="28.2529">
        <ele>203.3</ele>
      </trkpt>
      <trkpt lat="36.76145" lon="28.25286">
        <ele>200.7</ele>
      </trkpt>
      <trkpt lat="36.76149" lon="28.25275">
        <ele>195.6</ele>
      </trkpt>
      <trkpt lat="36.76161" lon="28.25271">
        <ele>192.2</ele>
      </trkpt>
      <trkpt lat="36.76166" lon="28.2527">
        <ele>191.2</ele>
      </trkpt>
      <trkpt lat="36.76169" lon="28.25262">
        <ele>187.1</ele>
      </trkpt>
      <trkpt lat="36.76176" lon="28.2526">
        <ele>185.1</ele>
      </trkpt>
      <trkpt lat="36.76175" lon="28.25254">
        <ele>182.4</ele>
      </trkpt>
      <trkpt lat="36.76177" lon="28.25256">
        <ele>183.2</ele>
      </trkpt>
      <trkpt lat="36.76179" lon="28.25251">
        <ele>180.5</ele>
      </trkpt>
      <trkpt lat="36.76181" lon="28.25251">
        <ele>180.2</ele>
      </trkpt>
      <trkpt lat="36.76185" lon="28.25249">
        <ele>178.6</ele>
      </trkpt>
      <trkpt lat="36.76179" lon="28.25233">
        <ele>173.5</ele>
      </trkpt>
      <trkpt lat="36.76176" lon="28.2523">
        <ele>172.6</ele>
      </trkpt>
      <trkpt lat="36.76169" lon="28.25218">
        <ele>169.1</ele>
      </trkpt>
      <trkpt lat="36.76157" lon="28.25209">
        <ele>167.9</ele>
      </trkpt>
      <trkpt lat="36.7615" lon="28.252">
        <ele>166.1</ele>
      </trkpt>
      <trkpt lat="36.76149" lon="28.25192">
        <ele>163.8</ele>
      </trkpt>
      <trkpt lat="36.76146" lon="28.25189">
        <ele>163.4</ele>
      </trkpt>
      <trkpt lat="36.76139" lon="28.2518">
        <ele>162.6</ele>
      </trkpt>
      <trkpt lat="36.76135" lon="28.25175">
        <ele>161.9</ele>
      </trkpt>
      <trkpt lat="36.76131" lon="28.25169">
        <ele>161.3</ele>
      </trkpt>
      <trkpt lat="36.76132" lon="28.2516">
        <ele>159.1</ele>
      </trkpt>
      <trkpt lat="36.76131" lon="28.25154">
        <ele>158.1</ele>
      </trkpt>
      <trkpt lat="36.76129" lon="28.25147">
        <ele>157.4</ele>
      </trkpt>
      <trkpt lat="36.7613" lon="28.25135">
        <ele>154.7</ele>
      </trkpt>
      <trkpt lat="36.7613" lon="28.25132">
        <ele>154</ele>
      </trkpt>
      <trkpt lat="36.76125" lon="28.25122">
        <ele>153.7</ele>
      </trkpt>
      <trkpt lat="36.76125" lon="28.25113">
        <ele>152</ele>
      </trkpt>
      <trkpt lat="36.76123" lon="28.25106">
        <ele>151</ele>
      </trkpt>
      <trkpt lat="36.76121" lon="28.25102">
        <ele>150.8</ele>
      </trkpt>
      <trkpt lat="36.76117" lon="28.25095">
        <ele>150.7</ele>
      </trkpt>
      <trkpt lat="36.76118" lon="28.25085">
        <ele>148.4</ele>
      </trkpt>
      <trkpt lat="36.76122" lon="28.25076">
        <ele>147.3</ele>
      </trkpt>
      <trkpt lat="36.76132" lon="28.2507">
        <ele>144.6</ele>
      </trkpt>
      <trkpt lat="36.76136" lon="28.25067">
        <ele>143.5</ele>
      </trkpt>
      <trkpt lat="36.76142" lon="28.25067">
        <ele>141.6</ele>
      </trkpt>
      <trkpt lat="36.76146" lon="28.25065">
        <ele>140.5</ele>
      </trkpt>
      <trkpt lat="36.76142" lon="28.25055">
        <ele>142.3</ele>
      </trkpt>
      <trkpt lat="36.7615" lon="28.25046">
        <ele>140.3</ele>
      </trkpt>
      <trkpt lat="36.76158" lon="28.25036">
        <ele>138</ele>
      </trkpt>
      <trkpt lat="36.76162" lon="28.25033">
        <ele>137</ele>
      </trkpt>
      <trkpt lat="36.76167" lon="28.25036">
        <ele>135.3</ele>
      </trkpt>
      <trkpt lat="36.76175" lon="28.25034">
        <ele>133.1</ele>
      </trkpt>
      <trkpt lat="36.7618" lon="28.25028">
        <ele>131.9</ele>
      </trkpt>
      <trkpt lat="36.76189" lon="28.25024">
        <ele>129.6</ele>
      </trkpt>
      <trkpt lat="36.76195" lon="28.25019">
        <ele>128</ele>
      </trkpt>
      <trkpt lat="36.76203" lon="28.25009">
        <ele>125.7</ele>
      </trkpt>
      <trkpt lat="36.7621" lon="28.25006">
        <ele>123.5</ele>
      </trkpt>
      <trkpt lat="36.76216" lon="28.24998">
        <ele>122.1</ele>
      </trkpt>
      <trkpt lat="36.76225" lon="28.24999">
        <ele>118.8</ele>
      </trkpt>
      <trkpt lat="36.76232" lon="28.25001">
        <ele>116.6</ele>
      </trkpt>
      <trkpt lat="36.7624" lon="28.25">
        <ele>114</ele>
      </trkpt>
      <trkpt lat="36.76242" lon="28.24991">
        <ele>115.3</ele>
      </trkpt>
      <trkpt lat="36.76243" lon="28.24986">
        <ele>116.2</ele>
      </trkpt>
      <trkpt lat="36.76242" lon="28.24983">
        <ele>117.1</ele>
      </trkpt>
      <trkpt lat="36.76239" lon="28.2498">
        <ele>118.5</ele>
      </trkpt>
      <trkpt lat="36.76242" lon="28.24983">
        <ele>117.1</ele>
      </trkpt>
      <trkpt lat="36.7624" lon="28.24986">
        <ele>117</ele>
      </trkpt>
      <trkpt lat="36.76242" lon="28.24981">
        <ele>117.3</ele>
      </trkpt>
      <trkpt lat="36.76241" lon="28.24977">
        <ele>118.5</ele>
      </trkpt>
      <trkpt lat="36.76241" lon="28.24983">
        <ele>117.2</ele>
      </trkpt>
      <trkpt lat="36.76241" lon="28.24985">
        <ele>117</ele>
      </trkpt>
      <trkpt lat="36.76241" lon="28.24984">
        <ele>117.2</ele>
      </trkpt>
      <trkpt lat="36.76243" lon="28.24981">
        <ele>117.2</ele>
      </trkpt>
      <trkpt lat="36.76247" lon="28.24979">
        <ele>116.6</ele>
      </trkpt>
      <trkpt lat="36.76257" lon="28.24977">
        <ele>114.2</ele>
      </trkpt>
      <trkpt lat="36.76267" lon="28.24978">
        <ele>111.3</ele>
      </trkpt>
      <trkpt lat="36.76273" lon="28.2498">
        <ele>109.1</ele>
      </trkpt>
      <trkpt lat="36.76277" lon="28.24987">
        <ele>106.8</ele>
      </trkpt>
      <trkpt lat="36.76281" lon="28.2499">
        <ele>105.1</ele>
      </trkpt>
      <trkpt lat="36.76281" lon="28.24998">
        <ele>103.7</ele>
      </trkpt>
      <trkpt lat="36.76282" lon="28.25005">
        <ele>103.3</ele>
      </trkpt>
      <trkpt lat="36.76289" lon="28.25003">
        <ele>101.4</ele>
      </trkpt>
      <trkpt lat="36.76296" lon="28.25002">
        <ele>99.5</ele>
      </trkpt>
      <trkpt lat="36.76294" lon="28.25009">
        <ele>100.7</ele>
      </trkpt>
      <trkpt lat="36.76292" lon="28.25014">
        <ele>101.6</ele>
      </trkpt>
      <trkpt lat="36.76288" lon="28.2502">
        <ele>103.1</ele>
      </trkpt>
      <trkpt lat="36.7629" lon="28.25025">
        <ele>103.1</ele>
      </trkpt>
      <trkpt lat="36.76299" lon="28.25027">
        <ele>101.3</ele>
      </trkpt>
      <trkpt lat="36.76309" lon="28.25023">
        <ele>98.4</ele>
      </trkpt>
      <trkpt lat="36.76315" lon="28.25023">
        <ele>97</ele>
      </trkpt>
      <trkpt lat="36.7632" lon="28.25017">
        <ele>95.3</ele>
      </trkpt>
      <trkpt lat="36.76324" lon="28.25015">
        <ele>94.1</ele>
      </trkpt>
      <trkpt lat="36.7633" lon="28.25012">
        <ele>92.3</ele>
      </trkpt>
      <trkpt lat="36.76336" lon="28.25009">
        <ele>90.7</ele>
      </trkpt>
      <trkpt lat="36.76342" lon="28.25009">
        <ele>89.4</ele>
      </trkpt>
      <trkpt lat="36.76348" lon="28.25008">
        <ele>88.1</ele>
      </trkpt>
      <trkpt lat="36.76355" lon="28.25006">
        <ele>86.3</ele>
      </trkpt>
      <trkpt lat="36.76366" lon="28.25004">
        <ele>83.6</ele>
      </trkpt>
      <trkpt lat="36.76373" lon="28.25004">
        <ele>82.2</ele>
      </trkpt>
      <trkpt lat="36.76381" lon="28.24994">
        <ele>80</ele>
      </trkpt>
      <trkpt lat="36.76387" lon="28.24986">
        <ele>79</ele>
      </trkpt>
      <trkpt lat="36.76397" lon="28.24977">
        <ele>76.7</ele>
      </trkpt>
      <trkpt lat="36.76402" lon="28.2497">
        <ele>75.4</ele>
      </trkpt>
      <trkpt lat="36.76407" lon="28.24965">
        <ele>73.8</ele>
      </trkpt>
      <trkpt lat="36.76415" lon="28.2496">
        <ele>71.5</ele>
      </trkpt>
      <trkpt lat="36.76423" lon="28.24957">
        <ele>69.8</ele>
      </trkpt>
      <trkpt lat="36.76428" lon="28.24947">
        <ele>68.3</ele>
      </trkpt>
      <trkpt lat="36.7643" lon="28.2494">
        <ele>67.5</ele>
      </trkpt>
      <trkpt lat="36.76436" lon="28.24933">
        <ele>65.9</ele>
      </trkpt>
      <trkpt lat="36.76438" lon="28.24931">
        <ele>65.3</ele>
      </trkpt>
      <trkpt lat="36.76441" lon="28.24923">
        <ele>64</ele>
      </trkpt>
      <trkpt lat="36.76447" lon="28.24918">
        <ele>62</ele>
      </trkpt>
      <trkpt lat="36.76454" lon="28.24914">
        <ele>60.2</ele>
      </trkpt>
      <trkpt lat="36.76458" lon="28.24911">
        <ele>59.4</ele>
      </trkpt>
      <trkpt lat="36.7646" lon="28.24903">
        <ele>58.9</ele>
      </trkpt>
      <trkpt lat="36.76467" lon="28.24909">
        <ele>57.1</ele>
      </trkpt>
      <trkpt lat="36.76473" lon="28.24909">
        <ele>55.6</ele>
      </trkpt>
      <trkpt lat="36.76478" lon="28.24905">
        <ele>54.3</ele>
      </trkpt>
      <trkpt lat="36.76485" lon="28.24901">
        <ele>52.9</ele>
      </trkpt>
      <trkpt lat="36.76494" lon="28.24899">
        <ele>50.7</ele>
      </trkpt>
      <trkpt lat="36.76496" lon="28.24896">
        <ele>50.3</ele>
      </trkpt>
      <trkpt lat="36.76497" lon="28.24894">
        <ele>50.2</ele>
      </trkpt>
      <trkpt lat="36.76501" lon="28.24884">
        <ele>49.8</ele>
      </trkpt>
      <trkpt lat="36.76508" lon="28.24874">
        <ele>49.5</ele>
      </trkpt>
      <trkpt lat="36.76513" lon="28.2487">
        <ele>49.1</ele>
      </trkpt>
      <trkpt lat="36.76523" lon="28.24869">
        <ele>47.8</ele>
      </trkpt>
      <trkpt lat="36.76531" lon="28.24868">
        <ele>46.7</ele>
      </trkpt>
      <trkpt lat="36.7654" lon="28.24866">
        <ele>45.7</ele>
      </trkpt>
      <trkpt lat="36.7655" lon="28.24861">
        <ele>44.5</ele>
      </trkpt>
      <trkpt lat="36.76556" lon="28.24863">
        <ele>43.6</ele>
      </trkpt>
      <trkpt lat="36.76559" lon="28.24866">
        <ele>43.1</ele>
      </trkpt>
      <trkpt lat="36.7657" lon="28.24874">
        <ele>41.3</ele>
      </trkpt>
      <trkpt lat="36.76575" lon="28.24882">
        <ele>40.4</ele>
      </trkpt>
      <trkpt lat="36.76583" lon="28.24891">
        <ele>39</ele>
      </trkpt>
      <trkpt lat="36.76584" lon="28.24892">
        <ele>38.8</ele>
      </trkpt>
      <trkpt lat="36.76595" lon="28.24898">
        <ele>37.7</ele>
      </trkpt>
      <trkpt lat="36.76597" lon="28.249">
        <ele>37.6</ele>
      </trkpt>
      <trkpt lat="36.76599" lon="28.24901">
        <ele>37.4</ele>
      </trkpt>
      <trkpt lat="36.76601" lon="28.24904">
        <ele>37.1</ele>
      </trkpt>
      <trkpt lat="36.7661" lon="28.2491">
        <ele>36</ele>
      </trkpt>
      <trkpt lat="36.76615" lon="28.24909">
        <ele>35.7</ele>
      </trkpt>
      <trkpt lat="36.76624" lon="28.24904">
        <ele>35.2</ele>
      </trkpt>
      <trkpt lat="36.76633" lon="28.24897">
        <ele>34.8</ele>
      </trkpt>
      <trkpt lat="36.76641" lon="28.24895">
        <ele>34.3</ele>
      </trkpt>
      <trkpt lat="36.76653" lon="28.24889">
        <ele>33.7</ele>
      </trkpt>
      <trkpt lat="36.76664" lon="28.24884">
        <ele>33.2</ele>
      </trkpt>
      <trkpt lat="36.76667" lon="28.24883">
        <ele>33</ele>
      </trkpt>
      <trkpt lat="36.76678" lon="28.24879">
        <ele>32.1</ele>
      </trkpt>
      <trkpt lat="36.76682" lon="28.24877">
        <ele>31.7</ele>
      </trkpt>
      <trkpt lat="36.76693" lon="28.24862">
        <ele>31.2</ele>
      </trkpt>
      <trkpt lat="36.76703" lon="28.24857">
        <ele>30.1</ele>
      </trkpt>
      <trkpt lat="36.76719" lon="28.2486">
        <ele>28</ele>
      </trkpt>
      <trkpt lat="36.7672" lon="28.24861">
        <ele>27.9</ele>
      </trkpt>
      <trkpt lat="36.76722" lon="28.24862">
        <ele>27.7</ele>
      </trkpt>
      <trkpt lat="36.76723" lon="28.24865">
        <ele>27.6</ele>
      </trkpt>
      <trkpt lat="36.76723" lon="28.24867">
        <ele>27.5</ele>
      </trkpt>
      <trkpt lat="36.76723" lon="28.24873">
        <ele>27.4</ele>
      </trkpt>
      <trkpt lat="36.76728" lon="28.2487">
        <ele>26.9</ele>
      </trkpt>
      <trkpt lat="36.76747" lon="28.24862">
        <ele>24.8</ele>
      </trkpt>
      <trkpt lat="36.76748" lon="28.24862">
        <ele>24.6</ele>
      </trkpt>
      <trkpt lat="36.76752" lon="28.24861">
        <ele>24.2</ele>
      </trkpt>
      <trkpt lat="36.76764" lon="28.24857">
        <ele>23.5</ele>
      </trkpt>
      <trkpt lat="36.76769" lon="28.24855">
        <ele>23.1</ele>
      </trkpt>
      <trkpt lat="36.76771" lon="28.24855">
        <ele>23</ele>
      </trkpt>
      <trkpt lat="36.76773" lon="28.24854">
        <ele>22.9</ele>
      </trkpt>
      <trkpt lat="36.76774" lon="28.24853">
        <ele>22.7</ele>
      </trkpt>
      <trkpt lat="36.7678" lon="28.24852">
        <ele>22.4</ele>
      </trkpt>
      <trkpt lat="36.76782" lon="28.24852">
        <ele>22.2</ele>
      </trkpt>
      <trkpt lat="36.76783" lon="28.24851">
        <ele>22.1</ele>
      </trkpt>
      <trkpt lat="36.76791" lon="28.24849">
        <ele>21.5</ele>
      </trkpt>
      <trkpt lat="36.76801" lon="28.24846">
        <ele>20.6</ele>
      </trkpt>
      <trkpt lat="36.76813" lon="28.24842">
        <ele>19.5</ele>
      </trkpt>
      <trkpt lat="36.76824" lon="28.24839">
        <ele>18.4</ele>
      </trkpt>
      <trkpt lat="36.76825" lon="28.24839">
        <ele>18.3</ele>
      </trkpt>
      <trkpt lat="36.76826" lon="28.24839">
        <ele>18.1</ele>
      </trkpt>
      <trkpt lat="36.76828" lon="28.24838">
        <ele>17.9</ele>
      </trkpt>
      <trkpt lat="36.76829" lon="28.24837">
        <ele>17.7</ele>
      </trkpt>
      <trkpt lat="36.76834" lon="28.24834">
        <ele>17</ele>
      </trkpt>
      <trkpt lat="36.76838" lon="28.24832">
        <ele>16.7</ele>
      </trkpt>
      <trkpt lat="36.76846" lon="28.24828">
        <ele>16.2</ele>
      </trkpt>
      <trkpt lat="36.76862" lon="28.24822">
        <ele>15.2</ele>
      </trkpt>
      <trkpt lat="36.76874" lon="28.24814">
        <ele>14.3</ele>
      </trkpt>
      <trkpt lat="36.76876" lon="28.24813">
        <ele>14.2</ele>
      </trkpt>
      <trkpt lat="36.76877" lon="28.24813">
        <ele>14.1</ele>
      </trkpt>
      <trkpt lat="36.76885" lon="28.24812">
        <ele>13.6</ele>
      </trkpt>
      <trkpt lat="36.76887" lon="28.24812">
        <ele>13.5</ele>
      </trkpt>
      <trkpt lat="36.76889" lon="28.24813">
        <ele>13.4</ele>
      </trkpt>
      <trkpt lat="36.76889" lon="28.24812">
        <ele>13.4</ele>
      </trkpt>
      <trkpt lat="36.7689" lon="28.24811">
        <ele>13.3</ele>
      </trkpt>
      <trkpt lat="36.76895" lon="28.24811">
        <ele>13</ele>
      </trkpt>
      <trkpt lat="36.76901" lon="28.24804">
        <ele>12.6</ele>
      </trkpt>
      <trkpt lat="36.76931" lon="28.24753">
        <ele>10.4</ele>
      </trkpt>
      <trkpt lat="36.7695" lon="28.24737">
        <ele>9.3</ele>
      </trkpt>
      <trkpt lat="36.76999" lon="28.24717">
        <ele>6.3</ele>
      </trkpt>
      <trkpt lat="36.77006" lon="28.24714">
        <ele>6</ele>
      </trkpt>
      <trkpt lat="36.77042" lon="28.24703">
        <ele>5.1</ele>
      </trkpt>
      <trkpt lat="36.77072" lon="28.24689">
        <ele>4.4</ele>
      </trkpt>
      <trkpt lat="36.77111" lon="28.24673">
        <ele>4.1</ele>
      </trkpt>
      <trkpt lat="36.77147" lon="28.24658">
        <ele>4.1</ele>
      </trkpt>
      <trkpt lat="36.7718" lon="28.24624">
        <ele>4.4</ele>
      </trkpt>
      <trkpt lat="36.77216" lon="28.24602">
        <ele>4.3</ele>
      </trkpt>
      <trkpt lat="36.77248" lon="28.24597">
        <ele>4</ele>
      </trkpt>
      <trkpt lat="36.77318" lon="28.24604">
        <ele>5.2</ele>
      </trkpt>
      <trkpt lat="36.77318" lon="28.24604">
        <ele>5.2</ele>
      </trkpt>
      <trkpt lat="36.7733" lon="28.24603">
        <ele>5.4</ele>
      </trkpt>
      <trkpt lat="36.77349" lon="28.24599">
        <ele>5.7</ele>
      </trkpt>
      <trkpt lat="36.77399" lon="28.24605">
        <ele>6.7</ele>
      </trkpt>
      <trkpt lat="36.77479" lon="28.24614">
        <ele>11.4</ele>
      </trkpt>
      <trkpt lat="36.77541" lon="28.24611">
        <ele>19.4</ele>
      </trkpt>
      <trkpt lat="36.7755" lon="28.24608">
        <ele>21.2</ele>
      </trkpt>
      <trkpt lat="36.77575" lon="28.24614">
        <ele>24.4</ele>
      </trkpt>
      <trkpt lat="36.77626" lon="28.24662">
        <ele>24.7</ele>
      </trkpt>
      <trkpt lat="36.7763" lon="28.24667">
        <ele>24.8</ele>
      </trkpt>
      <trkpt lat="36.77644" lon="28.24668">
        <ele>26.6</ele>
      </trkpt>
      <trkpt lat="36.77663" lon="28.24676">
        <ele>28.3</ele>
      </trkpt>
      <trkpt lat="36.77675" lon="28.24683">
        <ele>29.1</ele>
      </trkpt>
      <trkpt lat="36.77691" lon="28.24676">
        <ele>31.6</ele>
      </trkpt>
      <trkpt lat="36.77693" lon="28.24675">
        <ele>32</ele>
      </trkpt>
      <trkpt lat="36.77696" lon="28.24676">
        <ele>32.2</ele>
      </trkpt>
      <trkpt lat="36.77696" lon="28.24676">
        <ele>32.3</ele>
      </trkpt>
      <trkpt lat="36.7769" lon="28.24667">
        <ele>32.5</ele>
      </trkpt>
      <trkpt lat="36.77683" lon="28.24651">
        <ele>33.2</ele>
      </trkpt>
      <trkpt lat="36.77674" lon="28.24637">
        <ele>33.6</ele>
      </trkpt>
      <trkpt lat="36.77667" lon="28.24617">
        <ele>34.8</ele>
      </trkpt>
      <trkpt lat="36.7766" lon="28.24602">
        <ele>35.5</ele>
      </trkpt>
      <trkpt lat="36.7766" lon="28.24602">
        <ele>35.5</ele>
      </trkpt>
      <trkpt lat="36.77664" lon="28.24601">
        <ele>36</ele>
      </trkpt>
      <trkpt lat="36.77674" lon="28.246">
        <ele>37.2</ele>
      </trkpt>
      <trkpt lat="36.77674" lon="28.24598">
        <ele>37.4</ele>
      </trkpt>
      <trkpt lat="36.7768" lon="28.24585">
        <ele>39.3</ele>
      </trkpt>
      <trkpt lat="36.77685" lon="28.24567">
        <ele>42.7</ele>
      </trkpt>
      <trkpt lat="36.77685" lon="28.24564">
        <ele>43.2</ele>
      </trkpt>
      <trkpt lat="36.77683" lon="28.24552">
        <ele>44.8</ele>
      </trkpt>
      <trkpt lat="36.77683" lon="28.24545">
        <ele>46</ele>
      </trkpt>
      <trkpt lat="36.77691" lon="28.24529">
        <ele>49.7</ele>
      </trkpt>
      <trkpt lat="36.77699" lon="28.24524">
        <ele>51.6</ele>
      </trkpt>
      <trkpt lat="36.777" lon="28.24521">
        <ele>52.2</ele>
      </trkpt>
      <trkpt lat="36.777" lon="28.24515">
        <ele>53.3</ele>
      </trkpt>
      <trkpt lat="36.777" lon="28.2451">
        <ele>54.2</ele>
      </trkpt>
      <trkpt lat="36.77704" lon="28.24497">
        <ele>56.9</ele>
      </trkpt>
      <trkpt lat="36.77707" lon="28.24477">
        <ele>62.3</ele>
      </trkpt>
      <trkpt lat="36.77707" lon="28.24473">
        <ele>63.3</ele>
      </trkpt>
      <trkpt lat="36.77713" lon="28.24472">
        <ele>64.4</ele>
      </trkpt>
      <trkpt lat="36.77719" lon="28.24477">
        <ele>64.1</ele>
      </trkpt>
      <trkpt lat="36.77723" lon="28.24477">
        <ele>64.6</ele>
      </trkpt>
      <trkpt lat="36.77725" lon="28.24477">
        <ele>65.2</ele>
      </trkpt>
      <trkpt lat="36.77735" lon="28.24477">
        <ele>66.5</ele>
      </trkpt>
      <trkpt lat="36.77734" lon="28.24478">
        <ele>66.2</ele>
      </trkpt>
      <trkpt lat="36.77736" lon="28.24477">
        <ele>66.6</ele>
      </trkpt>
      <trkpt lat="36.77737" lon="28.24459">
        <ele>71.3</ele>
      </trkpt>
      <trkpt lat="36.77738" lon="28.24458">
        <ele>71.8</ele>
      </trkpt>
      <trkpt lat="36.77739" lon="28.24457">
        <ele>72</ele>
      </trkpt>
      <trkpt lat="36.77738" lon="28.24448">
        <ele>74.3</ele>
      </trkpt>
      <trkpt lat="36.77737" lon="28.2444">
        <ele>76.2</ele>
      </trkpt>
      <trkpt lat="36.77737" lon="28.24433">
        <ele>77.8</ele>
      </trkpt>
      <trkpt lat="36.77732" lon="28.24425">
        <ele>79</ele>
      </trkpt>
      <trkpt lat="36.77732" lon="28.24422">
        <ele>79.6</ele>
      </trkpt>
      <trkpt lat="36.77733" lon="28.24421">
        <ele>80.1</ele>
      </trkpt>
      <trkpt lat="36.77736" lon="28.24414">
        <ele>82.3</ele>
      </trkpt>
      <trkpt lat="36.77735" lon="28.24407">
        <ele>83.7</ele>
      </trkpt>
      <trkpt lat="36.77741" lon="28.24406">
        <ele>84.9</ele>
      </trkpt>
      <trkpt lat="36.77743" lon="28.244">
        <ele>86.6</ele>
      </trkpt>
      <trkpt lat="36.77742" lon="28.24396">
        <ele>87.6</ele>
      </trkpt>
      <trkpt lat="36.77742" lon="28.24395">
        <ele>87.8</ele>
      </trkpt>
      <trkpt lat="36.77743" lon="28.24389">
        <ele>89.2</ele>
      </trkpt>
      <trkpt lat="36.77741" lon="28.24386">
        <ele>89.7</ele>
      </trkpt>
      <trkpt lat="36.77741" lon="28.24384">
        <ele>90.1</ele>
      </trkpt>
      <trkpt lat="36.77745" lon="28.24381">
        <ele>91.3</ele>
      </trkpt>
      <trkpt lat="36.77744" lon="28.24374">
        <ele>92.8</ele>
      </trkpt>
      <trkpt lat="36.77743" lon="28.24369">
        <ele>93.9</ele>
      </trkpt>
      <trkpt lat="36.77743" lon="28.24367">
        <ele>94.4</ele>
      </trkpt>
      <trkpt lat="36.7775" lon="28.24368">
        <ele>95.2</ele>
      </trkpt>
      <trkpt lat="36.77755" lon="28.24362">
        <ele>98.6</ele>
      </trkpt>
      <trkpt lat="36.77754" lon="28.2435">
        <ele>100.9</ele>
      </trkpt>
      <trkpt lat="36.77755" lon="28.24342">
        <ele>103.3</ele>
      </trkpt>
      <trkpt lat="36.77756" lon="28.2434">
        <ele>104.2</ele>
      </trkpt>
      <trkpt lat="36.77755" lon="28.24334">
        <ele>104.8</ele>
      </trkpt>
      <trkpt lat="36.77758" lon="28.24323">
        <ele>109.8</ele>
      </trkpt>
      <trkpt lat="36.77762" lon="28.24318">
        <ele>113.2</ele>
      </trkpt>
      <trkpt lat="36.77762" lon="28.24317">
        <ele>113.4</ele>
      </trkpt>
      <trkpt lat="36.77756" lon="28.24308">
        <ele>113.9</ele>
      </trkpt>
      <trkpt lat="36.77753" lon="28.24307">
        <ele>113.4</ele>
      </trkpt>
      <trkpt lat="36.77752" lon="28.24306">
        <ele>113.2</ele>
      </trkpt>
      <trkpt lat="36.77748" lon="28.24303">
        <ele>113.2</ele>
      </trkpt>
      <trkpt lat="36.77745" lon="28.24298">
        <ele>114.3</ele>
      </trkpt>
      <trkpt lat="36.77745" lon="28.2429">
        <ele>116.7</ele>
      </trkpt>
      <trkpt lat="36.77738" lon="28.24281">
        <ele>118.1</ele>
      </trkpt>
      <trkpt lat="36.77737" lon="28.24272">
        <ele>120.7</ele>
      </trkpt>
      <trkpt lat="36.77734" lon="28.24264">
        <ele>122.5</ele>
      </trkpt>
      <trkpt lat="36.77728" lon="28.24249">
        <ele>124.8</ele>
      </trkpt>
      <trkpt lat="36.77722" lon="28.24244">
        <ele>123.9</ele>
      </trkpt>
      <trkpt lat="36.77723" lon="28.24238">
        <ele>125.5</ele>
      </trkpt>
      <trkpt lat="36.77718" lon="28.24235">
        <ele>124.6</ele>
      </trkpt>
      <trkpt lat="36.77718" lon="28.24235">
        <ele>124.7</ele>
      </trkpt>
      <trkpt lat="36.77724" lon="28.24218">
        <ele>130.3</ele>
      </trkpt>
      <trkpt lat="36.7772" lon="28.24218">
        <ele>129</ele>
      </trkpt>
      <trkpt lat="36.7772" lon="28.2422">
        <ele>128.5</ele>
      </trkpt>
      <trkpt lat="36.77725" lon="28.24208">
        <ele>132.7</ele>
      </trkpt>
      <trkpt lat="36.77722" lon="28.24187">
        <ele>136.3</ele>
      </trkpt>
      <trkpt lat="36.77719" lon="28.24178">
        <ele>137.4</ele>
      </trkpt>
      <trkpt lat="36.77706" lon="28.24133">
        <ele>141.1</ele>
      </trkpt>
      <trkpt lat="36.77699" lon="28.24113">
        <ele>141.7</ele>
      </trkpt>
      <trkpt lat="36.77691" lon="28.24091">
        <ele>142.3</ele>
      </trkpt>
      <trkpt lat="36.77691" lon="28.24091">
        <ele>142.3</ele>
      </trkpt>
      <trkpt lat="36.77691" lon="28.24091">
        <ele>142.3</ele>
      </trkpt>
      <trkpt lat="36.77691" lon="28.24091">
        <ele>142.3</ele>
      </trkpt>
      <trkpt lat="36.77696" lon="28.24096">
        <ele>143.4</ele>
      </trkpt>
      <trkpt lat="36.77697" lon="28.24098">
        <ele>143.7</ele>
      </trkpt>
      <trkpt lat="36.77699" lon="28.241">
        <ele>143.9</ele>
      </trkpt>
      <trkpt lat="36.777" lon="28.24102">
        <ele>144.1</ele>
      </trkpt>
      <trkpt lat="36.77701" lon="28.24105">
        <ele>144.1</ele>
      </trkpt>
      <trkpt lat="36.77703" lon="28.24106">
        <ele>144.6</ele>
      </trkpt>
      <trkpt lat="36.77704" lon="28.24109">
        <ele>144.4</ele>
      </trkpt>
      <trkpt lat="36.77706" lon="28.24111">
        <ele>144.7</ele>
      </trkpt>
      <trkpt lat="36.77708" lon="28.24115">
        <ele>144.7</ele>
      </trkpt>
      <trkpt lat="36.77709" lon="28.24116">
        <ele>145</ele>
      </trkpt>
      <trkpt lat="36.77711" lon="28.24119">
        <ele>145</ele>
      </trkpt>
      <trkpt lat="36.77712" lon="28.24122">
        <ele>145.1</ele>
      </trkpt>
      <trkpt lat="36.77713" lon="28.24124">
        <ele>145</ele>
      </trkpt>
      <trkpt lat="36.77715" lon="28.24126">
        <ele>145.2</ele>
      </trkpt>
      <trkpt lat="36.77716" lon="28.24129">
        <ele>145.2</ele>
      </trkpt>
      <trkpt lat="36.77717" lon="28.24132">
        <ele>145.2</ele>
      </trkpt>
      <trkpt lat="36.77718" lon="28.24134">
        <ele>145.2</ele>
      </trkpt>
      <trkpt lat="36.77721" lon="28.24136">
        <ele>145.6</ele>
      </trkpt>
      <trkpt lat="36.77722" lon="28.24139">
        <ele>145.7</ele>
      </trkpt>
      <trkpt lat="36.77723" lon="28.24141">
        <ele>145.7</ele>
      </trkpt>
      <trkpt lat="36.77724" lon="28.24143">
        <ele>145.6</ele>
      </trkpt>
      <trkpt lat="36.77726" lon="28.24146">
        <ele>145.7</ele>
      </trkpt>
      <trkpt lat="36.77726" lon="28.24148">
        <ele>145.4</ele>
      </trkpt>
      <trkpt lat="36.77727" lon="28.24151">
        <ele>145.2</ele>
      </trkpt>
      <trkpt lat="36.77727" lon="28.24154">
        <ele>144.8</ele>
      </trkpt>
      <trkpt lat="36.77728" lon="28.24157">
        <ele>144.6</ele>
      </trkpt>
      <trkpt lat="36.77729" lon="28.24159">
        <ele>144.6</ele>
      </trkpt>
      <trkpt lat="36.77731" lon="28.24161">
        <ele>144.6</ele>
      </trkpt>
      <trkpt lat="36.77731" lon="28.24164">
        <ele>144.1</ele>
      </trkpt>
      <trkpt lat="36.77731" lon="28.24166">
        <ele>144</ele>
      </trkpt>
      <trkpt lat="36.77733" lon="28.24168">
        <ele>144</ele>
      </trkpt>
      <trkpt lat="36.77734" lon="28.24173">
        <ele>143.5</ele>
      </trkpt>
      <trkpt lat="36.77736" lon="28.24177">
        <ele>143.1</ele>
      </trkpt>
      <trkpt lat="36.77736" lon="28.24178">
        <ele>142.9</ele>
      </trkpt>
      <trkpt lat="36.77738" lon="28.24182">
        <ele>142.6</ele>
      </trkpt>
      <trkpt lat="36.77739" lon="28.24186">
        <ele>142.3</ele>
      </trkpt>
      <trkpt lat="36.7774" lon="28.24189">
        <ele>142</ele>
      </trkpt>
      <trkpt lat="36.77741" lon="28.24191">
        <ele>141.8</ele>
      </trkpt>
      <trkpt lat="36.77743" lon="28.24194">
        <ele>141.6</ele>
      </trkpt>
      <trkpt lat="36.77743" lon="28.24196">
        <ele>141.4</ele>
      </trkpt>
      <trkpt lat="36.77745" lon="28.24199">
        <ele>141.2</ele>
      </trkpt>
      <trkpt lat="36.77746" lon="28.24201">
        <ele>141.1</ele>
      </trkpt>
      <trkpt lat="36.77747" lon="28.24204">
        <ele>140.9</ele>
      </trkpt>
      <trkpt lat="36.77749" lon="28.24206">
        <ele>141.1</ele>
      </trkpt>
      <trkpt lat="36.7775" lon="28.24209">
        <ele>140.8</ele>
      </trkpt>
      <trkpt lat="36.77752" lon="28.24211">
        <ele>141.2</ele>
      </trkpt>
      <trkpt lat="36.77753" lon="28.24214">
        <ele>140.8</ele>
      </trkpt>
      <trkpt lat="36.77754" lon="28.24217">
        <ele>140.6</ele>
      </trkpt>
      <trkpt lat="36.77755" lon="28.24219">
        <ele>140.5</ele>
      </trkpt>
      <trkpt lat="36.77758" lon="28.24222">
        <ele>140.5</ele>
      </trkpt>
      <trkpt lat="36.77759" lon="28.24224">
        <ele>140.3</ele>
      </trkpt>
      <trkpt lat="36.77761" lon="28.24226">
        <ele>140.7</ele>
      </trkpt>
      <trkpt lat="36.77762" lon="28.24226">
        <ele>140.7</ele>
      </trkpt>
      <trkpt lat="36.77764" lon="28.24228">
        <ele>141.1</ele>
      </trkpt>
      <trkpt lat="36.77766" lon="28.24231">
        <ele>141.2</ele>
      </trkpt>
      <trkpt lat="36.77768" lon="28.24232">
        <ele>141.6</ele>
      </trkpt>
      <trkpt lat="36.77771" lon="28.24234">
        <ele>141.8</ele>
      </trkpt>
      <trkpt lat="36.77773" lon="28.24236">
        <ele>142</ele>
      </trkpt>
      <trkpt lat="36.77775" lon="28.24238">
        <ele>142.3</ele>
      </trkpt>
      <trkpt lat="36.77776" lon="28.2424">
        <ele>142.3</ele>
      </trkpt>
      <trkpt lat="36.77778" lon="28.24241">
        <ele>142.7</ele>
      </trkpt>
      <trkpt lat="36.7778" lon="28.24244">
        <ele>142.8</ele>
      </trkpt>
      <trkpt lat="36.77782" lon="28.24246">
        <ele>142.8</ele>
      </trkpt>
      <trkpt lat="36.77784" lon="28.24248">
        <ele>143.1</ele>
      </trkpt>
      <trkpt lat="36.77786" lon="28.2425">
        <ele>143.1</ele>
      </trkpt>
      <trkpt lat="36.77787" lon="28.24252">
        <ele>143.1</ele>
      </trkpt>
      <trkpt lat="36.77789" lon="28.24253">
        <ele>143.4</ele>
      </trkpt>
      <trkpt lat="36.77791" lon="28.24254">
        <ele>143.6</ele>
      </trkpt>
      <trkpt lat="36.77793" lon="28.24256">
        <ele>143.7</ele>
      </trkpt>
      <trkpt lat="36.77795" lon="28.24258">
        <ele>143.9</ele>
      </trkpt>
      <trkpt lat="36.77796" lon="28.2426">
        <ele>143.8</ele>
      </trkpt>
      <trkpt lat="36.77799" lon="28.24261">
        <ele>144.1</ele>
      </trkpt>
      <trkpt lat="36.778" lon="28.24261">
        <ele>144.3</ele>
      </trkpt>
      <trkpt lat="36.77801" lon="28.24265">
        <ele>143.7</ele>
      </trkpt>
      <trkpt lat="36.77803" lon="28.24268">
        <ele>143.4</ele>
      </trkpt>
      <trkpt lat="36.77804" lon="28.24271">
        <ele>143.2</ele>
      </trkpt>
      <trkpt lat="36.77806" lon="28.24273">
        <ele>143.2</ele>
      </trkpt>
      <trkpt lat="36.77808" lon="28.24276">
        <ele>143.2</ele>
      </trkpt>
      <trkpt lat="36.77809" lon="28.24277">
        <ele>143.3</ele>
      </trkpt>
      <trkpt lat="36.77811" lon="28.24279">
        <ele>143.5</ele>
      </trkpt>
      <trkpt lat="36.77813" lon="28.24281">
        <ele>143.5</ele>
      </trkpt>
      <trkpt lat="36.77814" lon="28.24283">
        <ele>143.6</ele>
      </trkpt>
      <trkpt lat="36.77815" lon="28.24285">
        <ele>143.6</ele>
      </trkpt>
      <trkpt lat="36.77818" lon="28.24287">
        <ele>143.8</ele>
      </trkpt>
      <trkpt lat="36.7782" lon="28.2429">
        <ele>143.9</ele>
      </trkpt>
      <trkpt lat="36.77822" lon="28.24292">
        <ele>144.2</ele>
      </trkpt>
      <trkpt lat="36.77823" lon="28.24293">
        <ele>144.4</ele>
      </trkpt>
      <trkpt lat="36.77825" lon="28.24295">
        <ele>144.7</ele>
      </trkpt>
      <trkpt lat="36.77827" lon="28.24297">
        <ele>144.7</ele>
      </trkpt>
      <trkpt lat="36.77829" lon="28.24299">
        <ele>145</ele>
      </trkpt>
      <trkpt lat="36.77831" lon="28.24302">
        <ele>145.2</ele>
      </trkpt>
      <trkpt lat="36.77833" lon="28.24304">
        <ele>145.6</ele>
      </trkpt>
      <trkpt lat="36.77836" lon="28.24307">
        <ele>145.4</ele>
      </trkpt>
      <trkpt lat="36.77838" lon="28.24309">
        <ele>145.3</ele>
      </trkpt>
      <trkpt lat="36.7784" lon="28.24312">
        <ele>145.1</ele>
      </trkpt>
      <trkpt lat="36.77842" lon="28.24314">
        <ele>144.7</ele>
      </trkpt>
      <trkpt lat="36.77844" lon="28.24316">
        <ele>144.7</ele>
      </trkpt>
      <trkpt lat="36.77846" lon="28.24318">
        <ele>144.5</ele>
      </trkpt>
      <trkpt lat="36.77847" lon="28.24319">
        <ele>144.5</ele>
      </trkpt>
      <trkpt lat="36.77849" lon="28.24322">
        <ele>144.3</ele>
      </trkpt>
      <trkpt lat="36.77851" lon="28.24323">
        <ele>144.2</ele>
      </trkpt>
      <trkpt lat="36.77853" lon="28.24326">
        <ele>143.9</ele>
      </trkpt>
      <trkpt lat="36.77854" lon="28.24328">
        <ele>143.6</ele>
      </trkpt>
      <trkpt lat="36.77856" lon="28.2433">
        <ele>143.4</ele>
      </trkpt>
      <trkpt lat="36.77857" lon="28.24333">
        <ele>143.1</ele>
      </trkpt>
      <trkpt lat="36.77859" lon="28.24334">
        <ele>143.1</ele>
      </trkpt>
      <trkpt lat="36.7786" lon="28.24336">
        <ele>143</ele>
      </trkpt>
      <trkpt lat="36.77862" lon="28.24337">
        <ele>143.1</ele>
      </trkpt>
      <trkpt lat="36.77864" lon="28.2434">
        <ele>143</ele>
      </trkpt>
      <trkpt lat="36.77866" lon="28.2434">
        <ele>143.2</ele>
      </trkpt>
      <trkpt lat="36.77868" lon="28.24341">
        <ele>143.5</ele>
      </trkpt>
      <trkpt lat="36.7787" lon="28.24342">
        <ele>143.7</ele>
      </trkpt>
      <trkpt lat="36.77873" lon="28.24342">
        <ele>144.1</ele>
      </trkpt>
      <trkpt lat="36.77875" lon="28.24342">
        <ele>144.4</ele>
      </trkpt>
      <trkpt lat="36.77877" lon="28.24343">
        <ele>144.7</ele>
      </trkpt>
      <trkpt lat="36.77879" lon="28.24344">
        <ele>144.9</ele>
      </trkpt>
      <trkpt lat="36.77882" lon="28.24346">
        <ele>144.9</ele>
      </trkpt>
      <trkpt lat="36.77884" lon="28.24346">
        <ele>145.3</ele>
      </trkpt>
      <trkpt lat="36.77886" lon="28.24349">
        <ele>145.2</ele>
      </trkpt>
      <trkpt lat="36.77888" lon="28.24349">
        <ele>145.5</ele>
      </trkpt>
      <trkpt lat="36.7789" lon="28.24351">
        <ele>145.6</ele>
      </trkpt>
      <trkpt lat="36.77892" lon="28.24353">
        <ele>145.6</ele>
      </trkpt>
      <trkpt lat="36.77894" lon="28.24354">
        <ele>145.8</ele>
      </trkpt>
      <trkpt lat="36.77895" lon="28.24356">
        <ele>145.7</ele>
      </trkpt>
      <trkpt lat="36.77897" lon="28.24358">
        <ele>145.9</ele>
      </trkpt>
      <trkpt lat="36.77899" lon="28.2436">
        <ele>146</ele>
      </trkpt>
      <trkpt lat="36.77901" lon="28.24362">
        <ele>146</ele>
      </trkpt>
      <trkpt lat="36.77902" lon="28.24363">
        <ele>146.1</ele>
      </trkpt>
      <trkpt lat="36.77904" lon="28.24366">
        <ele>146</ele>
      </trkpt>
      <trkpt lat="36.77905" lon="28.24367">
        <ele>146.2</ele>
      </trkpt>
      <trkpt lat="36.77907" lon="28.2437">
        <ele>146.1</ele>
      </trkpt>
      <trkpt lat="36.77908" lon="28.24372">
        <ele>146.1</ele>
      </trkpt>
      <trkpt lat="36.7791" lon="28.24374">
        <ele>146.1</ele>
      </trkpt>
      <trkpt lat="36.77912" lon="28.24376">
        <ele>146.2</ele>
      </trkpt>
      <trkpt lat="36.77914" lon="28.24378">
        <ele>146.5</ele>
      </trkpt>
      <trkpt lat="36.77916" lon="28.24381">
        <ele>146.6</ele>
      </trkpt>
      <trkpt lat="36.77917" lon="28.24383">
        <ele>146.5</ele>
      </trkpt>
      <trkpt lat="36.77919" lon="28.24385">
        <ele>146.2</ele>
      </trkpt>
      <trkpt lat="36.77921" lon="28.24387">
        <ele>146.1</ele>
      </trkpt>
      <trkpt lat="36.77923" lon="28.24389">
        <ele>145.8</ele>
      </trkpt>
      <trkpt lat="36.77925" lon="28.24389">
        <ele>145.8</ele>
      </trkpt>
      <trkpt lat="36.77927" lon="28.2439">
        <ele>145.7</ele>
      </trkpt>
      <trkpt lat="36.77929" lon="28.24391">
        <ele>145.7</ele>
      </trkpt>
      <trkpt lat="36.77931" lon="28.24391">
        <ele>145.6</ele>
      </trkpt>
      <trkpt lat="36.77933" lon="28.24391">
        <ele>145.7</ele>
      </trkpt>
      <trkpt lat="36.77936" lon="28.24392">
        <ele>145.6</ele>
      </trkpt>
      <trkpt lat="36.77938" lon="28.24392">
        <ele>145.7</ele>
      </trkpt>
      <trkpt lat="36.7794" lon="28.24392">
        <ele>145.6</ele>
      </trkpt>
      <trkpt lat="36.77942" lon="28.24392">
        <ele>145.6</ele>
      </trkpt>
      <trkpt lat="36.77945" lon="28.24392">
        <ele>145.7</ele>
      </trkpt>
      <trkpt lat="36.77947" lon="28.24392">
        <ele>145.7</ele>
      </trkpt>
      <trkpt lat="36.77949" lon="28.24392">
        <ele>145.8</ele>
      </trkpt>
      <trkpt lat="36.77952" lon="28.24392">
        <ele>145.8</ele>
      </trkpt>
      <trkpt lat="36.77953" lon="28.24392">
        <ele>145.8</ele>
      </trkpt>
      <trkpt lat="36.77959" lon="28.24391">
        <ele>146.2</ele>
      </trkpt>
      <trkpt lat="36.77961" lon="28.24391">
        <ele>146.2</ele>
      </trkpt>
      <trkpt lat="36.77963" lon="28.24392">
        <ele>146</ele>
      </trkpt>
      <trkpt lat="36.77965" lon="28.24395">
        <ele>145.6</ele>
      </trkpt>
      <trkpt lat="36.77967" lon="28.24396">
        <ele>145.4</ele>
      </trkpt>
      <trkpt lat="36.77969" lon="28.24397">
        <ele>145.1</ele>
      </trkpt>
      <trkpt lat="36.77971" lon="28.24398">
        <ele>145</ele>
      </trkpt>
      <trkpt lat="36.77972" lon="28.24398">
        <ele>145.1</ele>
      </trkpt>
      <trkpt lat="36.77975" lon="28.24398">
        <ele>145.1</ele>
      </trkpt>
      <trkpt lat="36.77977" lon="28.24398">
        <ele>145.1</ele>
      </trkpt>
      <trkpt lat="36.7798" lon="28.24398">
        <ele>145.1</ele>
      </trkpt>
      <trkpt lat="36.77983" lon="28.24398">
        <ele>145.1</ele>
      </trkpt>
      <trkpt lat="36.77985" lon="28.24398">
        <ele>145.2</ele>
      </trkpt>
      <trkpt lat="36.77988" lon="28.244">
        <ele>144.8</ele>
      </trkpt>
      <trkpt lat="36.77989" lon="28.244">
        <ele>144.8</ele>
      </trkpt>
      <trkpt lat="36.77993" lon="28.244">
        <ele>144.8</ele>
      </trkpt>
      <trkpt lat="36.77997" lon="28.244">
        <ele>144.8</ele>
      </trkpt>
      <trkpt lat="36.78001" lon="28.244">
        <ele>144.9</ele>
      </trkpt>
      <trkpt lat="36.78003" lon="28.244">
        <ele>145.2</ele>
      </trkpt>
      <trkpt lat="36.78005" lon="28.244">
        <ele>145.2</ele>
      </trkpt>
      <trkpt lat="36.78006" lon="28.24401">
        <ele>145.2</ele>
      </trkpt>
      <trkpt lat="36.78009" lon="28.24401">
        <ele>145.5</ele>
      </trkpt>
      <trkpt lat="36.78012" lon="28.24402">
        <ele>145.6</ele>
      </trkpt>
      <trkpt lat="36.78014" lon="28.24402">
        <ele>145.6</ele>
      </trkpt>
      <trkpt lat="36.78016" lon="28.24402">
        <ele>145.8</ele>
      </trkpt>
      <trkpt lat="36.78018" lon="28.24403">
        <ele>145.9</ele>
      </trkpt>
      <trkpt lat="36.7802" lon="28.24404">
        <ele>145.9</ele>
      </trkpt>
      <trkpt lat="36.78022" lon="28.24404">
        <ele>146</ele>
      </trkpt>
      <trkpt lat="36.78024" lon="28.24406">
        <ele>145.9</ele>
      </trkpt>
      <trkpt lat="36.78027" lon="28.24407">
        <ele>145.6</ele>
      </trkpt>
      <trkpt lat="36.78029" lon="28.24407">
        <ele>145.9</ele>
      </trkpt>
      <trkpt lat="36.78032" lon="28.24408">
        <ele>145.9</ele>
      </trkpt>
      <trkpt lat="36.78035" lon="28.24409">
        <ele>146</ele>
      </trkpt>
      <trkpt lat="36.78038" lon="28.24409">
        <ele>146.2</ele>
      </trkpt>
      <trkpt lat="36.78041" lon="28.24409">
        <ele>146.4</ele>
      </trkpt>
      <trkpt lat="36.78042" lon="28.2441">
        <ele>146.3</ele>
      </trkpt>
      <trkpt lat="36.78046" lon="28.24411">
        <ele>146.5</ele>
      </trkpt>
      <trkpt lat="36.78048" lon="28.24412">
        <ele>146.3</ele>
      </trkpt>
      <trkpt lat="36.7805" lon="28.24413">
        <ele>146.4</ele>
      </trkpt>
      <trkpt lat="36.78052" lon="28.24414">
        <ele>146</ele>
      </trkpt>
      <trkpt lat="36.78055" lon="28.24416">
        <ele>145.9</ele>
      </trkpt>
      <trkpt lat="36.78057" lon="28.24416">
        <ele>145.8</ele>
      </trkpt>
      <trkpt lat="36.78059" lon="28.24418">
        <ele>145.7</ele>
      </trkpt>
      <trkpt lat="36.78061" lon="28.2442">
        <ele>145.4</ele>
      </trkpt>
      <trkpt lat="36.78062" lon="28.24421">
        <ele>145.2</ele>
      </trkpt>
      <trkpt lat="36.78064" lon="28.24423">
        <ele>144.9</ele>
      </trkpt>
      <trkpt lat="36.78067" lon="28.24424">
        <ele>144.8</ele>
      </trkpt>
      <trkpt lat="36.78071" lon="28.24425">
        <ele>144.8</ele>
      </trkpt>
      <trkpt lat="36.78073" lon="28.24426">
        <ele>144.8</ele>
      </trkpt>
      <trkpt lat="36.78076" lon="28.24427">
        <ele>144.8</ele>
      </trkpt>
      <trkpt lat="36.78077" lon="28.24427">
        <ele>144.7</ele>
      </trkpt>
      <trkpt lat="36.78079" lon="28.24429">
        <ele>144.6</ele>
      </trkpt>
      <trkpt lat="36.78082" lon="28.2443">
        <ele>144.4</ele>
      </trkpt>
      <trkpt lat="36.78086" lon="28.24432">
        <ele>144.8</ele>
      </trkpt>
      <trkpt lat="36.78088" lon="28.24434">
        <ele>145.4</ele>
      </trkpt>
      <trkpt lat="36.78091" lon="28.24436">
        <ele>145.9</ele>
      </trkpt>
      <trkpt lat="36.78092" lon="28.24438">
        <ele>146.1</ele>
      </trkpt>
      <trkpt lat="36.78094" lon="28.2444">
        <ele>146.5</ele>
      </trkpt>
      <trkpt lat="36.78096" lon="28.24441">
        <ele>146.9</ele>
      </trkpt>
      <trkpt lat="36.78098" lon="28.24444">
        <ele>147.2</ele>
      </trkpt>
      <trkpt lat="36.78099" lon="28.24446">
        <ele>147.3</ele>
      </trkpt>
      <trkpt lat="36.78101" lon="28.24448">
        <ele>147.7</ele>
      </trkpt>
      <trkpt lat="36.78103" lon="28.24448">
        <ele>148.4</ele>
      </trkpt>
      <trkpt lat="36.78105" lon="28.2445">
        <ele>148.9</ele>
      </trkpt>
      <trkpt lat="36.78108" lon="28.2445">
        <ele>150.2</ele>
      </trkpt>
      <trkpt lat="36.7811" lon="28.2445">
        <ele>151.3</ele>
      </trkpt>
      <trkpt lat="36.78112" lon="28.24451">
        <ele>152.3</ele>
      </trkpt>
      <trkpt lat="36.78115" lon="28.24451">
        <ele>153.3</ele>
      </trkpt>
      <trkpt lat="36.78116" lon="28.24448">
        <ele>154.4</ele>
      </trkpt>
      <trkpt lat="36.78118" lon="28.24447">
        <ele>155.5</ele>
      </trkpt>
      <trkpt lat="36.78119" lon="28.24446">
        <ele>156.3</ele>
      </trkpt>
      <trkpt lat="36.78134" lon="28.24452">
        <ele>161.9</ele>
      </trkpt>
      <trkpt lat="36.78138" lon="28.24454">
        <ele>163.5</ele>
      </trkpt>
      <trkpt lat="36.78139" lon="28.24461">
        <ele>163</ele>
      </trkpt>
      <trkpt lat="36.78137" lon="28.24465">
        <ele>161.7</ele>
      </trkpt>
      <trkpt lat="36.78138" lon="28.24476">
        <ele>160.6</ele>
      </trkpt>
      <trkpt lat="36.78138" lon="28.2448">
        <ele>160.2</ele>
      </trkpt>
      <trkpt lat="36.78136" lon="28.24493">
        <ele>157.5</ele>
      </trkpt>
      <trkpt lat="36.78132" lon="28.24508">
        <ele>152.9</ele>
      </trkpt>
      <trkpt lat="36.78131" lon="28.24526">
        <ele>150.5</ele>
      </trkpt>
      <trkpt lat="36.78134" lon="28.24547">
        <ele>149.7</ele>
      </trkpt>
      <trkpt lat="36.78139" lon="28.24566">
        <ele>150.8</ele>
      </trkpt>
      <trkpt lat="36.78141" lon="28.24571">
        <ele>151.3</ele>
      </trkpt>
      <trkpt lat="36.78145" lon="28.24584">
        <ele>152.3</ele>
      </trkpt>
      <trkpt lat="36.78148" lon="28.24589">
        <ele>152.6</ele>
      </trkpt>
      <trkpt lat="36.78153" lon="28.24592">
        <ele>154.4</ele>
      </trkpt>
      <trkpt lat="36.78155" lon="28.24594">
        <ele>155.6</ele>
      </trkpt>
      <trkpt lat="36.78157" lon="28.24597">
        <ele>155.4</ele>
      </trkpt>
      <trkpt lat="36.78159" lon="28.24607">
        <ele>153.9</ele>
      </trkpt>
      <trkpt lat="36.78165" lon="28.24616">
        <ele>154.7</ele>
      </trkpt>
      <trkpt lat="36.78166" lon="28.24618">
        <ele>154.6</ele>
      </trkpt>
      <trkpt lat="36.78166" lon="28.24619">
        <ele>154.5</ele>
      </trkpt>
      <trkpt lat="36.78168" lon="28.24625">
        <ele>154.2</ele>
      </trkpt>
      <trkpt lat="36.7817" lon="28.24633">
        <ele>153.2</ele>
      </trkpt>
      <trkpt lat="36.78172" lon="28.2464">
        <ele>152.7</ele>
      </trkpt>
      <trkpt lat="36.78174" lon="28.24646">
        <ele>152.4</ele>
      </trkpt>
      <trkpt lat="36.78174" lon="28.24648">
        <ele>151.8</ele>
      </trkpt>
      <trkpt lat="36.78175" lon="28.24654">
        <ele>151.5</ele>
      </trkpt>
      <trkpt lat="36.78177" lon="28.24662">
        <ele>150.4</ele>
      </trkpt>
      <trkpt lat="36.78176" lon="28.24668">
        <ele>147.9</ele>
      </trkpt>
      <trkpt lat="36.78177" lon="28.24674">
        <ele>148.2</ele>
      </trkpt>
      <trkpt lat="36.78185" lon="28.2469">
        <ele>150.6</ele>
      </trkpt>
      <trkpt lat="36.78191" lon="28.247">
        <ele>153.4</ele>
      </trkpt>
      <trkpt lat="36.78192" lon="28.24702">
        <ele>153.6</ele>
      </trkpt>
      <trkpt lat="36.782" lon="28.24715">
        <ele>156.9</ele>
      </trkpt>
      <trkpt lat="36.78203" lon="28.24731">
        <ele>155.6</ele>
      </trkpt>
      <trkpt lat="36.78208" lon="28.24746">
        <ele>155.2</ele>
      </trkpt>
      <trkpt lat="36.7821" lon="28.24757">
        <ele>156.5</ele>
      </trkpt>
      <trkpt lat="36.78209" lon="28.24763">
        <ele>156.8</ele>
      </trkpt>
      <trkpt lat="36.78208" lon="28.24764">
        <ele>156.7</ele>
      </trkpt>
      <trkpt lat="36.78203" lon="28.24771">
        <ele>154.3</ele>
      </trkpt>
      <trkpt lat="36.78189" lon="28.24775">
        <ele>146.9</ele>
      </trkpt>
      <trkpt lat="36.78181" lon="28.2478">
        <ele>143.5</ele>
      </trkpt>
      <trkpt lat="36.78179" lon="28.24784">
        <ele>143.1</ele>
      </trkpt>
      <trkpt lat="36.78176" lon="28.24786">
        <ele>141.8</ele>
      </trkpt>
      <trkpt lat="36.78168" lon="28.24797">
        <ele>140.2</ele>
      </trkpt>
      <trkpt lat="36.78161" lon="28.24806">
        <ele>138.6</ele>
      </trkpt>
      <trkpt lat="36.78159" lon="28.24818">
        <ele>139.9</ele>
      </trkpt>
      <trkpt lat="36.78153" lon="28.24828">
        <ele>138.6</ele>
      </trkpt>
      <trkpt lat="36.7815" lon="28.24834">
        <ele>137.8</ele>
      </trkpt>
      <trkpt lat="36.78144" lon="28.24841">
        <ele>134.7</ele>
      </trkpt>
      <trkpt lat="36.78143" lon="28.24842">
        <ele>134.1</ele>
      </trkpt>
      <trkpt lat="36.78138" lon="28.24854">
        <ele>132.2</ele>
      </trkpt>
      <trkpt lat="36.78136" lon="28.24865">
        <ele>131.9</ele>
      </trkpt>
      <trkpt lat="36.78133" lon="28.24875">
        <ele>131.5</ele>
      </trkpt>
      <trkpt lat="36.78129" lon="28.24895">
        <ele>131.4</ele>
      </trkpt>
      <trkpt lat="36.78129" lon="28.24906">
        <ele>132.6</ele>
      </trkpt>
      <trkpt lat="36.78129" lon="28.24922">
        <ele>133.7</ele>
      </trkpt>
      <trkpt lat="36.78128" lon="28.24935">
        <ele>132.5</ele>
      </trkpt>
      <trkpt lat="36.78126" lon="28.24952">
        <ele>130.3</ele>
      </trkpt>
      <trkpt lat="36.78123" lon="28.24962">
        <ele>128.8</ele>
      </trkpt>
      <trkpt lat="36.78119" lon="28.24974">
        <ele>127</ele>
      </trkpt>
      <trkpt lat="36.78122" lon="28.24979">
        <ele>127.9</ele>
      </trkpt>
      <trkpt lat="36.78126" lon="28.2498">
        <ele>129.2</ele>
      </trkpt>
      <trkpt lat="36.7813" lon="28.24984">
        <ele>130.2</ele>
      </trkpt>
      <trkpt lat="36.78133" lon="28.24992">
        <ele>130.4</ele>
      </trkpt>
      <trkpt lat="36.78134" lon="28.24993">
        <ele>130.5</ele>
      </trkpt>
      <trkpt lat="36.78133" lon="28.24997">
        <ele>129.9</ele>
      </trkpt>
      <trkpt lat="36.78132" lon="28.25004">
        <ele>129.8</ele>
      </trkpt>
      <trkpt lat="36.78139" lon="28.25">
        <ele>131</ele>
      </trkpt>
      <trkpt lat="36.78141" lon="28.25004">
        <ele>131.6</ele>
      </trkpt>
      <trkpt lat="36.78143" lon="28.25016">
        <ele>132.8</ele>
      </trkpt>
      <trkpt lat="36.78144" lon="28.25017">
        <ele>132.9</ele>
      </trkpt>
      <trkpt lat="36.78145" lon="28.25019">
        <ele>133.2</ele>
      </trkpt>
      <trkpt lat="36.78151" lon="28.25021">
        <ele>134.1</ele>
      </trkpt>
      <trkpt lat="36.78157" lon="28.25026">
        <ele>135.1</ele>
      </trkpt>
      <trkpt lat="36.78156" lon="28.25025">
        <ele>135</ele>
      </trkpt>
      <trkpt lat="36.78163" lon="28.25026">
        <ele>135.8</ele>
      </trkpt>
      <trkpt lat="36.78162" lon="28.25021">
        <ele>135.9</ele>
      </trkpt>
      <trkpt lat="36.7817" lon="28.25011">
        <ele>136.8</ele>
      </trkpt>
      <trkpt lat="36.78177" lon="28.25003">
        <ele>137.3</ele>
      </trkpt>
      <trkpt lat="36.78187" lon="28.24999">
        <ele>138.4</ele>
      </trkpt>
      <trkpt lat="36.78195" lon="28.24983">
        <ele>144.5</ele>
      </trkpt>
      <trkpt lat="36.78198" lon="28.24979">
        <ele>146.2</ele>
      </trkpt>
      <trkpt lat="36.78202" lon="28.24971">
        <ele>149.9</ele>
      </trkpt>
      <trkpt lat="36.78203" lon="28.2497">
        <ele>150.5</ele>
      </trkpt>
      <trkpt lat="36.78208" lon="28.24964">
        <ele>153.7</ele>
      </trkpt>
      <trkpt lat="36.78213" lon="28.24955">
        <ele>158.4</ele>
      </trkpt>
      <trkpt lat="36.78223" lon="28.24943">
        <ele>165.8</ele>
      </trkpt>
      <trkpt lat="36.7823" lon="28.2493">
        <ele>174.5</ele>
      </trkpt>
      <trkpt lat="36.78234" lon="28.24918">
        <ele>181.5</ele>
      </trkpt>
      <trkpt lat="36.78241" lon="28.24903">
        <ele>184.3</ele>
      </trkpt>
      <trkpt lat="36.78242" lon="28.24902">
        <ele>184.6</ele>
      </trkpt>
      <trkpt lat="36.78243" lon="28.24896">
        <ele>185</ele>
      </trkpt>
      <trkpt lat="36.78243" lon="28.24892">
        <ele>184.8</ele>
      </trkpt>
      <trkpt lat="36.78243" lon="28.24887">
        <ele>185</ele>
      </trkpt>
      <trkpt lat="36.78247" lon="28.24878">
        <ele>186.3</ele>
      </trkpt>
      <trkpt lat="36.7825" lon="28.24869">
        <ele>187.3</ele>
      </trkpt>
      <trkpt lat="36.78251" lon="28.24868">
        <ele>187.8</ele>
      </trkpt>
      <trkpt lat="36.78251" lon="28.24866">
        <ele>187.7</ele>
      </trkpt>
      <trkpt lat="36.78254" lon="28.24859">
        <ele>188.8</ele>
      </trkpt>
      <trkpt lat="36.78257" lon="28.24853">
        <ele>190</ele>
      </trkpt>
      <trkpt lat="36.78258" lon="28.24852">
        <ele>190.3</ele>
      </trkpt>
      <trkpt lat="36.78265" lon="28.24848">
        <ele>193.4</ele>
      </trkpt>
      <trkpt lat="36.78271" lon="28.24845">
        <ele>196.4</ele>
      </trkpt>
      <trkpt lat="36.78276" lon="28.24839">
        <ele>198.8</ele>
      </trkpt>
      <trkpt lat="36.78278" lon="28.24835">
        <ele>200.5</ele>
      </trkpt>
      <trkpt lat="36.78286" lon="28.24832">
        <ele>204.3</ele>
      </trkpt>
      <trkpt lat="36.78292" lon="28.24834">
        <ele>207</ele>
      </trkpt>
      <trkpt lat="36.78299" lon="28.24834">
        <ele>210.3</ele>
      </trkpt>
      <trkpt lat="36.78305" lon="28.2484">
        <ele>212</ele>
      </trkpt>
      <trkpt lat="36.78305" lon="28.24843">
        <ele>211.9</ele>
      </trkpt>
      <trkpt lat="36.78304" lon="28.24843">
        <ele>211.3</ele>
      </trkpt>
      <trkpt lat="36.78312" lon="28.24844">
        <ele>214.7</ele>
      </trkpt>
      <trkpt lat="36.78324" lon="28.24845">
        <ele>220</ele>
      </trkpt>
      <trkpt lat="36.78326" lon="28.24844">
        <ele>220.9</ele>
      </trkpt>
      <trkpt lat="36.78331" lon="28.24843">
        <ele>223.2</ele>
      </trkpt>
      <trkpt lat="36.78333" lon="28.24842">
        <ele>224.5</ele>
      </trkpt>
      <trkpt lat="36.78339" lon="28.24848">
        <ele>225.4</ele>
      </trkpt>
      <trkpt lat="36.78338" lon="28.24841">
        <ele>227.1</ele>
      </trkpt>
      <trkpt lat="36.78347" lon="28.24844">
        <ele>229.7</ele>
      </trkpt>
      <trkpt lat="36.78353" lon="28.24848">
        <ele>231.5</ele>
      </trkpt>
      <trkpt lat="36.78366" lon="28.24848">
        <ele>237</ele>
      </trkpt>
      <trkpt lat="36.78375" lon="28.24849">
        <ele>240.6</ele>
      </trkpt>
      <trkpt lat="36.78382" lon="28.2485">
        <ele>243.6</ele>
      </trkpt>
      <trkpt lat="36.7839" lon="28.24845">
        <ele>248.1</ele>
      </trkpt>
      <trkpt lat="36.78402" lon="28.24843">
        <ele>254</ele>
      </trkpt>
      <trkpt lat="36.78402" lon="28.24842">
        <ele>254.2</ele>
      </trkpt>
      <trkpt lat="36.78393" lon="28.24838">
        <ele>251</ele>
      </trkpt>
      <trkpt lat="36.78389" lon="28.24825">
        <ele>249.8</ele>
      </trkpt>
      <trkpt lat="36.78397" lon="28.24817">
        <ele>252.6</ele>
      </trkpt>
      <trkpt lat="36.78404" lon="28.24817">
        <ele>255.4</ele>
      </trkpt>
      <trkpt lat="36.78407" lon="28.2481">
        <ele>256.1</ele>
      </trkpt>
      <trkpt lat="36.78411" lon="28.24801">
        <ele>257.1</ele>
      </trkpt>
      <trkpt lat="36.78423" lon="28.24803">
        <ele>261.1</ele>
      </trkpt>
      <trkpt lat="36.78431" lon="28.248">
        <ele>263.2</ele>
      </trkpt>
      <trkpt lat="36.78436" lon="28.24796">
        <ele>264.6</ele>
      </trkpt>
      <trkpt lat="36.78446" lon="28.24788">
        <ele>267.2</ele>
      </trkpt>
      <trkpt lat="36.78454" lon="28.24786">
        <ele>269.7</ele>
      </trkpt>
      <trkpt lat="36.78466" lon="28.24778">
        <ele>273.6</ele>
      </trkpt>
      <trkpt lat="36.78479" lon="28.24771">
        <ele>277.9</ele>
      </trkpt>
      <trkpt lat="36.78486" lon="28.24766">
        <ele>280.7</ele>
      </trkpt>
      <trkpt lat="36.78493" lon="28.24759">
        <ele>283.5</ele>
      </trkpt>
      <trkpt lat="36.785" lon="28.24752">
        <ele>286.8</ele>
      </trkpt>
      <trkpt lat="36.78501" lon="28.24752">
        <ele>286.9</ele>
      </trkpt>
      <trkpt lat="36.7851" lon="28.24748">
        <ele>288</ele>
      </trkpt>
      <trkpt lat="36.78518" lon="28.24742">
        <ele>289.5</ele>
      </trkpt>
      <trkpt lat="36.78528" lon="28.24739">
        <ele>290.6</ele>
      </trkpt>
      <trkpt lat="36.78537" lon="28.24736">
        <ele>291.8</ele>
      </trkpt>
      <trkpt lat="36.78533" lon="28.24737">
        <ele>291.3</ele>
      </trkpt>
      <trkpt lat="36.78533" lon="28.24737">
        <ele>291.4</ele>
      </trkpt>
      <trkpt lat="36.78534" lon="28.24736">
        <ele>291.6</ele>
      </trkpt>
      <trkpt lat="36.78543" lon="28.24735">
        <ele>292.4</ele>
      </trkpt>
      <trkpt lat="36.78551" lon="28.24736">
        <ele>292.7</ele>
      </trkpt>
      <trkpt lat="36.78559" lon="28.24735">
        <ele>293.5</ele>
      </trkpt>
      <trkpt lat="36.78571" lon="28.24737">
        <ele>293.9</ele>
      </trkpt>
      <trkpt lat="36.78585" lon="28.24737">
        <ele>294.4</ele>
      </trkpt>
      <trkpt lat="36.78591" lon="28.24737">
        <ele>293.3</ele>
      </trkpt>
      <trkpt lat="36.786" lon="28.24739">
        <ele>291.5</ele>
      </trkpt>
      <trkpt lat="36.78612" lon="28.24733">
        <ele>290.5</ele>
      </trkpt>
      <trkpt lat="36.78621" lon="28.24736">
        <ele>288.4</ele>
      </trkpt>
      <trkpt lat="36.78632" lon="28.24731">
        <ele>287.5</ele>
      </trkpt>
      <trkpt lat="36.78638" lon="28.24725">
        <ele>287.6</ele>
      </trkpt>
      <trkpt lat="36.78642" lon="28.24723">
        <ele>287.2</ele>
      </trkpt>
      <trkpt lat="36.78646" lon="28.2472">
        <ele>287.2</ele>
      </trkpt>
      <trkpt lat="36.78652" lon="28.2471">
        <ele>287.8</ele>
      </trkpt>
      <trkpt lat="36.78662" lon="28.24701">
        <ele>287.7</ele>
      </trkpt>
      <trkpt lat="36.78674" lon="28.24691">
        <ele>286.8</ele>
      </trkpt>
      <trkpt lat="36.78675" lon="28.2469">
        <ele>286.7</ele>
      </trkpt>
      <trkpt lat="36.78678" lon="28.24686">
        <ele>286.4</ele>
      </trkpt>
      <trkpt lat="36.78687" lon="28.24679">
        <ele>285.2</ele>
      </trkpt>
      <trkpt lat="36.78695" lon="28.2467">
        <ele>284</ele>
      </trkpt>
      <trkpt lat="36.78701" lon="28.24661">
        <ele>283.6</ele>
      </trkpt>
      <trkpt lat="36.78702" lon="28.2466">
        <ele>283.4</ele>
      </trkpt>
      <trkpt lat="36.78704" lon="28.24655">
        <ele>283.5</ele>
      </trkpt>
      <trkpt lat="36.78707" lon="28.24652">
        <ele>283</ele>
      </trkpt>
      <trkpt lat="36.78709" lon="28.2465">
        <ele>282.8</ele>
      </trkpt>
      <trkpt lat="36.7871" lon="28.24647">
        <ele>282.7</ele>
      </trkpt>
      <trkpt lat="36.78716" lon="28.24638">
        <ele>282.2</ele>
      </trkpt>
      <trkpt lat="36.7872" lon="28.24633">
        <ele>281.7</ele>
      </trkpt>
      <trkpt lat="36.78723" lon="28.24626">
        <ele>281.7</ele>
      </trkpt>
      <trkpt lat="36.78734" lon="28.24616">
        <ele>279.5</ele>
      </trkpt>
      <trkpt lat="36.78735" lon="28.24601">
        <ele>281.3</ele>
      </trkpt>
      <trkpt lat="36.78736" lon="28.24599">
        <ele>281.3</ele>
      </trkpt>
      <trkpt lat="36.78741" lon="28.24597">
        <ele>280.1</ele>
      </trkpt>
      <trkpt lat="36.78755" lon="28.24591">
        <ele>277</ele>
      </trkpt>
      <trkpt lat="36.78757" lon="28.24591">
        <ele>276.8</ele>
      </trkpt>
      <trkpt lat="36.78767" lon="28.24581">
        <ele>276.2</ele>
      </trkpt>
      <trkpt lat="36.78768" lon="28.24577">
        <ele>276.5</ele>
      </trkpt>
      <trkpt lat="36.78779" lon="28.24572">
        <ele>275.1</ele>
      </trkpt>
      <trkpt lat="36.78782" lon="28.24565">
        <ele>275.4</ele>
      </trkpt>
      <trkpt lat="36.78782" lon="28.2456">
        <ele>275.9</ele>
      </trkpt>
      <trkpt lat="36.78791" lon="28.24549">
        <ele>275.3</ele>
      </trkpt>
      <trkpt lat="36.788" lon="28.2454">
        <ele>274.1</ele>
      </trkpt>
      <trkpt lat="36.78811" lon="28.24538">
        <ele>271.5</ele>
      </trkpt>
      <trkpt lat="36.78817" lon="28.24539">
        <ele>269.9</ele>
      </trkpt>
      <trkpt lat="36.78827" lon="28.24532">
        <ele>267.9</ele>
      </trkpt>
      <trkpt lat="36.78834" lon="28.24526">
        <ele>266.1</ele>
      </trkpt>
      <trkpt lat="36.78843" lon="28.24517">
        <ele>264.3</ele>
      </trkpt>
      <trkpt lat="36.7885" lon="28.24506">
        <ele>263.1</ele>
      </trkpt>
      <trkpt lat="36.78854" lon="28.24498">
        <ele>262.6</ele>
      </trkpt>
      <trkpt lat="36.7886" lon="28.24488">
        <ele>262.3</ele>
      </trkpt>
      <trkpt lat="36.78861" lon="28.24488">
        <ele>262.2</ele>
      </trkpt>
      <trkpt lat="36.78869" lon="28.24481">
        <ele>260.7</ele>
      </trkpt>
      <trkpt lat="36.78877" lon="28.24458">
        <ele>261.3</ele>
      </trkpt>
      <trkpt lat="36.78881" lon="28.24449">
        <ele>261.1</ele>
      </trkpt>
      <trkpt lat="36.78895" lon="28.24448">
        <ele>256.3</ele>
      </trkpt>
      <trkpt lat="36.78907" lon="28.24438">
        <ele>253.1</ele>
      </trkpt>
      <trkpt lat="36.78914" lon="28.24424">
        <ele>251.5</ele>
      </trkpt>
      <trkpt lat="36.7892" lon="28.24422">
        <ele>249.9</ele>
      </trkpt>
      <trkpt lat="36.78929" lon="28.24423">
        <ele>247.2</ele>
      </trkpt>
      <trkpt lat="36.78934" lon="28.24413">
        <ele>247.6</ele>
      </trkpt>
      <trkpt lat="36.78933" lon="28.24411">
        <ele>248.2</ele>
      </trkpt>
      <trkpt lat="36.78932" lon="28.24399">
        <ele>251.7</ele>
      </trkpt>
      <trkpt lat="36.78939" lon="28.24394">
        <ele>251.3</ele>
      </trkpt>
      <trkpt lat="36.78947" lon="28.24391">
        <ele>249.9</ele>
      </trkpt>
      <trkpt lat="36.78956" lon="28.24389">
        <ele>248.2</ele>
      </trkpt>
      <trkpt lat="36.78964" lon="28.24387">
        <ele>246.7</ele>
      </trkpt>
      <trkpt lat="36.78965" lon="28.24386">
        <ele>246.7</ele>
      </trkpt>
      <trkpt lat="36.78973" lon="28.24385">
        <ele>245.1</ele>
      </trkpt>
      <trkpt lat="36.78982" lon="28.24387">
        <ele>242</ele>
      </trkpt>
      <trkpt lat="36.78992" lon="28.24388">
        <ele>239.5</ele>
      </trkpt>
      <trkpt lat="36.79001" lon="28.24385">
        <ele>237.9</ele>
      </trkpt>
      <trkpt lat="36.79006" lon="28.24383">
        <ele>236.4</ele>
      </trkpt>
      <trkpt lat="36.79012" lon="28.24381">
        <ele>234.8</ele>
      </trkpt>
      <trkpt lat="36.79018" lon="28.24377">
        <ele>233.7</ele>
      </trkpt>
      <trkpt lat="36.79023" lon="28.24371">
        <ele>233.6</ele>
      </trkpt>
      <trkpt lat="36.79027" lon="28.24366">
        <ele>233.8</ele>
      </trkpt>
      <trkpt lat="36.79032" lon="28.2436">
        <ele>233.9</ele>
      </trkpt>
      <trkpt lat="36.79033" lon="28.24361">
        <ele>233.4</ele>
      </trkpt>
      <trkpt lat="36.79038" lon="28.24362">
        <ele>231</ele>
      </trkpt>
      <trkpt lat="36.79041" lon="28.24366">
        <ele>228.5</ele>
      </trkpt>
      <trkpt lat="36.79046" lon="28.24359">
        <ele>229</ele>
      </trkpt>
      <trkpt lat="36.79051" lon="28.24361">
        <ele>226.6</ele>
      </trkpt>
      <trkpt lat="36.79056" lon="28.2435">
        <ele>228.8</ele>
      </trkpt>
      <trkpt lat="36.79059" lon="28.24349">
        <ele>228.2</ele>
      </trkpt>
      <trkpt lat="36.79067" lon="28.24347">
        <ele>225.9</ele>
      </trkpt>
      <trkpt lat="36.79075" lon="28.24341">
        <ele>226</ele>
      </trkpt>
      <trkpt lat="36.79079" lon="28.2434">
        <ele>225.1</ele>
      </trkpt>
      <trkpt lat="36.79085" lon="28.24339">
        <ele>223.4</ele>
      </trkpt>
      <trkpt lat="36.79097" lon="28.24338">
        <ele>221.7</ele>
      </trkpt>
      <trkpt lat="36.79101" lon="28.24335">
        <ele>222.3</ele>
      </trkpt>
      <trkpt lat="36.7911" lon="28.24333">
        <ele>221.8</ele>
      </trkpt>
      <trkpt lat="36.79116" lon="28.2433">
        <ele>222.3</ele>
      </trkpt>
      <trkpt lat="36.79123" lon="28.24326">
        <ele>223.4</ele>
      </trkpt>
      <trkpt lat="36.79131" lon="28.24323">
        <ele>224</ele>
      </trkpt>
      <trkpt lat="36.79138" lon="28.24319">
        <ele>225</ele>
      </trkpt>
      <trkpt lat="36.79144" lon="28.24318">
        <ele>225</ele>
      </trkpt>
      <trkpt lat="36.79146" lon="28.24319">
        <ele>223.6</ele>
      </trkpt>
      <trkpt lat="36.79158" lon="28.24321">
        <ele>220.8</ele>
      </trkpt>
      <trkpt lat="36.79159" lon="28.24321">
        <ele>220.7</ele>
      </trkpt>
      <trkpt lat="36.79168" lon="28.2432">
        <ele>219.7</ele>
      </trkpt>
      <trkpt lat="36.79175" lon="28.24312">
        <ele>223.8</ele>
      </trkpt>
      <trkpt lat="36.79181" lon="28.24309">
        <ele>225</ele>
      </trkpt>
      <trkpt lat="36.79189" lon="28.24304">
        <ele>228</ele>
      </trkpt>
      <trkpt lat="36.79195" lon="28.24303">
        <ele>227.7</ele>
      </trkpt>
      <trkpt lat="36.79206" lon="28.24302">
        <ele>227.6</ele>
      </trkpt>
      <trkpt lat="36.79211" lon="28.24301">
        <ele>227.9</ele>
      </trkpt>
      <trkpt lat="36.79221" lon="28.24297">
        <ele>229.6</ele>
      </trkpt>
      <trkpt lat="36.79241" lon="28.24296">
        <ele>228.8</ele>
      </trkpt>
      <trkpt lat="36.79244" lon="28.24296">
        <ele>228.8</ele>
      </trkpt>
      <trkpt lat="36.79245" lon="28.24295">
        <ele>229.3</ele>
      </trkpt>
      <trkpt lat="36.79254" lon="28.24294">
        <ele>230.6</ele>
      </trkpt>
      <trkpt lat="36.79261" lon="28.24292">
        <ele>233.9</ele>
      </trkpt>
      <trkpt lat="36.79267" lon="28.24289">
        <ele>237.7</ele>
      </trkpt>
      <trkpt lat="36.79272" lon="28.24288">
        <ele>239.3</ele>
      </trkpt>
      <trkpt lat="36.79281" lon="28.24287">
        <ele>242.3</ele>
      </trkpt>
      <trkpt lat="36.7929" lon="28.2429">
        <ele>243.1</ele>
      </trkpt>
      <trkpt lat="36.79297" lon="28.24287">
        <ele>246.7</ele>
      </trkpt>
      <trkpt lat="36.79307" lon="28.24292">
        <ele>246.9</ele>
      </trkpt>
      <trkpt lat="36.79317" lon="28.2429">
        <ele>250.9</ele>
      </trkpt>
      <trkpt lat="36.79323" lon="28.24289">
        <ele>253</ele>
      </trkpt>
      <trkpt lat="36.79329" lon="28.2429">
        <ele>253.9</ele>
      </trkpt>
      <trkpt lat="36.79336" lon="28.24287">
        <ele>257.6</ele>
      </trkpt>
      <trkpt lat="36.79343" lon="28.24286">
        <ele>260.8</ele>
      </trkpt>
      <trkpt lat="36.79348" lon="28.24284">
        <ele>263.4</ele>
      </trkpt>
      <trkpt lat="36.79347" lon="28.24282">
        <ele>264.1</ele>
      </trkpt>
      <trkpt lat="36.79351" lon="28.24284">
        <ele>264.5</ele>
      </trkpt>
      <trkpt lat="36.79353" lon="28.24278">
        <ele>267.8</ele>
      </trkpt>
      <trkpt lat="36.79349" lon="28.24275">
        <ele>268.1</ele>
      </trkpt>
      <trkpt lat="36.79347" lon="28.24269">
        <ele>270.4</ele>
      </trkpt>
      <trkpt lat="36.79352" lon="28.2427">
        <ele>271.7</ele>
      </trkpt>
      <trkpt lat="36.79359" lon="28.24272">
        <ele>272.8</ele>
      </trkpt>
      <trkpt lat="36.79367" lon="28.24276">
        <ele>273.8</ele>
      </trkpt>
      <trkpt lat="36.79371" lon="28.24277">
        <ele>274.4</ele>
      </trkpt>
      <trkpt lat="36.79374" lon="28.24273">
        <ele>276.9</ele>
      </trkpt>
      <trkpt lat="36.79372" lon="28.24272">
        <ele>277.1</ele>
      </trkpt>
      <trkpt lat="36.79372" lon="28.24264">
        <ele>280.6</ele>
      </trkpt>
      <trkpt lat="36.79377" lon="28.24265">
        <ele>281.3</ele>
      </trkpt>
      <trkpt lat="36.7938" lon="28.24267">
        <ele>281.4</ele>
      </trkpt>
      <trkpt lat="36.79385" lon="28.24267">
        <ele>283.2</ele>
      </trkpt>
      <trkpt lat="36.79385" lon="28.24262">
        <ele>285.3</ele>
      </trkpt>
      <trkpt lat="36.7939" lon="28.24259">
        <ele>288</ele>
      </trkpt>
      <trkpt lat="36.79391" lon="28.24258">
        <ele>288.5</ele>
      </trkpt>
      <trkpt lat="36.79393" lon="28.24263">
        <ele>287</ele>
      </trkpt>
      <trkpt lat="36.79398" lon="28.24267">
        <ele>287.1</ele>
      </trkpt>
      <trkpt lat="36.79396" lon="28.24275">
        <ele>283</ele>
      </trkpt>
      <trkpt lat="36.794" lon="28.24279">
        <ele>283</ele>
      </trkpt>
      <trkpt lat="36.79408" lon="28.24283">
        <ele>284.2</ele>
      </trkpt>
      <trkpt lat="36.79411" lon="28.24289">
        <ele>282.7</ele>
      </trkpt>
      <trkpt lat="36.79413" lon="28.24289">
        <ele>283.7</ele>
      </trkpt>
      <trkpt lat="36.79428" lon="28.24287">
        <ele>284.5</ele>
      </trkpt>
      <trkpt lat="36.79433" lon="28.24286">
        <ele>284.3</ele>
      </trkpt>
      <trkpt lat="36.79443" lon="28.24286">
        <ele>283.3</ele>
      </trkpt>
      <trkpt lat="36.79445" lon="28.24287">
        <ele>282.8</ele>
      </trkpt>
      <trkpt lat="36.7945" lon="28.2429">
        <ele>280.9</ele>
      </trkpt>
      <trkpt lat="36.79454" lon="28.24294">
        <ele>279</ele>
      </trkpt>
      <trkpt lat="36.79456" lon="28.243">
        <ele>276.1</ele>
      </trkpt>
      <trkpt lat="36.79454" lon="28.24308">
        <ele>272.7</ele>
      </trkpt>
      <trkpt lat="36.79453" lon="28.2431">
        <ele>272.2</ele>
      </trkpt>
      <trkpt lat="36.79454" lon="28.24315">
        <ele>269.7</ele>
      </trkpt>
      <trkpt lat="36.79462" lon="28.2431">
        <ele>270.8</ele>
      </trkpt>
      <trkpt lat="36.79462" lon="28.2431">
        <ele>270.8</ele>
      </trkpt>
      <trkpt lat="36.7947" lon="28.2431">
        <ele>269.7</ele>
      </trkpt>
      <trkpt lat="36.79472" lon="28.24308">
        <ele>270.1</ele>
      </trkpt>
      <trkpt lat="36.79476" lon="28.24315">
        <ele>266.3</ele>
      </trkpt>
      <trkpt lat="36.7948" lon="28.24319">
        <ele>264</ele>
      </trkpt>
      <trkpt lat="36.79482" lon="28.24316">
        <ele>264.7</ele>
      </trkpt>
      <trkpt lat="36.79485" lon="28.24312">
        <ele>266.1</ele>
      </trkpt>
      <trkpt lat="36.79491" lon="28.24307">
        <ele>267.9</ele>
      </trkpt>
      <trkpt lat="36.79498" lon="28.24305">
        <ele>268</ele>
      </trkpt>
      <trkpt lat="36.79503" lon="28.24299">
        <ele>269.2</ele>
      </trkpt>
      <trkpt lat="36.79505" lon="28.243">
        <ele>267.3</ele>
      </trkpt>
      <trkpt lat="36.79509" lon="28.24305">
        <ele>262.7</ele>
      </trkpt>
      <trkpt lat="36.79512" lon="28.24303">
        <ele>262.2</ele>
      </trkpt>
      <trkpt lat="36.79515" lon="28.24302">
        <ele>260.6</ele>
      </trkpt>
      <trkpt lat="36.79519" lon="28.24302">
        <ele>258.8</ele>
      </trkpt>
      <trkpt lat="36.79527" lon="28.24302">
        <ele>254.1</ele>
      </trkpt>
      <trkpt lat="36.79532" lon="28.24304">
        <ele>250.2</ele>
      </trkpt>
      <trkpt lat="36.79538" lon="28.24302">
        <ele>247.5</ele>
      </trkpt>
      <trkpt lat="36.79546" lon="28.24297">
        <ele>245.9</ele>
      </trkpt>
      <trkpt lat="36.7955" lon="28.243">
        <ele>241.8</ele>
      </trkpt>
      <trkpt lat="36.79558" lon="28.24301">
        <ele>236.7</ele>
      </trkpt>
      <trkpt lat="36.79563" lon="28.24303">
        <ele>233.1</ele>
      </trkpt>
      <trkpt lat="36.79571" lon="28.24306">
        <ele>227.6</ele>
      </trkpt>
      <trkpt lat="36.79582" lon="28.24307">
        <ele>221</ele>
      </trkpt>
      <trkpt lat="36.79585" lon="28.24309">
        <ele>218.8</ele>
      </trkpt>
      <trkpt lat="36.79595" lon="28.2431">
        <ele>216.2</ele>
      </trkpt>
      <trkpt lat="36.79604" lon="28.24312">
        <ele>213.6</ele>
      </trkpt>
      <trkpt lat="36.79609" lon="28.24311">
        <ele>213.1</ele>
      </trkpt>
      <trkpt lat="36.79614" lon="28.24313">
        <ele>211.7</ele>
      </trkpt>
      <trkpt lat="36.79621" lon="28.24312">
        <ele>210.7</ele>
      </trkpt>
      <trkpt lat="36.7962" lon="28.2431">
        <ele>211.1</ele>
      </trkpt>
      <trkpt lat="36.79623" lon="28.24307">
        <ele>210.9</ele>
      </trkpt>
      <trkpt lat="36.79629" lon="28.24305">
        <ele>209.4</ele>
      </trkpt>
      <trkpt lat="36.79635" lon="28.24302">
        <ele>208.2</ele>
      </trkpt>
      <trkpt lat="36.79636" lon="28.24298">
        <ele>207.6</ele>
      </trkpt>
      <trkpt lat="36.79638" lon="28.24295">
        <ele>207.1</ele>
      </trkpt>
      <trkpt lat="36.79641" lon="28.24291">
        <ele>205.7</ele>
      </trkpt>
      <trkpt lat="36.7964" lon="28.24287">
        <ele>205.7</ele>
      </trkpt>
      <trkpt lat="36.79646" lon="28.24283">
        <ele>202.6</ele>
      </trkpt>
      <trkpt lat="36.7965" lon="28.24287">
        <ele>201.5</ele>
      </trkpt>
      <trkpt lat="36.79653" lon="28.24291">
        <ele>201.1</ele>
      </trkpt>
      <trkpt lat="36.79656" lon="28.24294">
        <ele>200.4</ele>
      </trkpt>
      <trkpt lat="36.79659" lon="28.24294">
        <ele>199.6</ele>
      </trkpt>
      <trkpt lat="36.79661" lon="28.24291">
        <ele>198.2</ele>
      </trkpt>
      <trkpt lat="36.7966" lon="28.2429">
        <ele>198</ele>
      </trkpt>
      <trkpt lat="36.79658" lon="28.24279">
        <ele>196.3</ele>
      </trkpt>
      <trkpt lat="36.79659" lon="28.24276">
        <ele>195.2</ele>
      </trkpt>
      <trkpt lat="36.79661" lon="28.24274">
        <ele>193.7</ele>
      </trkpt>
      <trkpt lat="36.79657" lon="28.24264">
        <ele>193.6</ele>
      </trkpt>
      <trkpt lat="36.79658" lon="28.2426">
        <ele>191.7</ele>
      </trkpt>
      <trkpt lat="36.79666" lon="28.2426">
        <ele>187</ele>
      </trkpt>
      <trkpt lat="36.79668" lon="28.24262">
        <ele>185.7</ele>
      </trkpt>
      <trkpt lat="36.79668" lon="28.24265">
        <ele>187</ele>
      </trkpt>
      <trkpt lat="36.7967" lon="28.24269">
        <ele>187</ele>
      </trkpt>
      <trkpt lat="36.79673" lon="28.24272">
        <ele>186.1</ele>
      </trkpt>
      <trkpt lat="36.79674" lon="28.24271">
        <ele>185</ele>
      </trkpt>
      <trkpt lat="36.79674" lon="28.24272">
        <ele>185.4</ele>
      </trkpt>
      <trkpt lat="36.79673" lon="28.24262">
        <ele>183.1</ele>
      </trkpt>
      <trkpt lat="36.7967" lon="28.24251">
        <ele>181.3</ele>
      </trkpt>
      <trkpt lat="36.79672" lon="28.24247">
        <ele>178.5</ele>
      </trkpt>
      <trkpt lat="36.79675" lon="28.24246">
        <ele>176.6</ele>
      </trkpt>
      <trkpt lat="36.79671" lon="28.2424">
        <ele>177.4</ele>
      </trkpt>
      <trkpt lat="36.79672" lon="28.24236">
        <ele>176.1</ele>
      </trkpt>
      <trkpt lat="36.79675" lon="28.24238">
        <ele>174.5</ele>
      </trkpt>
      <trkpt lat="36.79677" lon="28.24238">
        <ele>173.4</ele>
      </trkpt>
      <trkpt lat="36.79676" lon="28.24234">
        <ele>172.8</ele>
      </trkpt>
      <trkpt lat="36.79675" lon="28.24227">
        <ele>171.8</ele>
      </trkpt>
      <trkpt lat="36.79684" lon="28.24233">
        <ele>167</ele>
      </trkpt>
      <trkpt lat="36.79684" lon="28.24227">
        <ele>165.8</ele>
      </trkpt>
      <trkpt lat="36.79684" lon="28.24222">
        <ele>164</ele>
      </trkpt>
      <trkpt lat="36.7968" lon="28.24212">
        <ele>164.4</ele>
      </trkpt>
      <trkpt lat="36.79679" lon="28.24203">
        <ele>162.9</ele>
      </trkpt>
      <trkpt lat="36.79682" lon="28.24199">
        <ele>159.9</ele>
      </trkpt>
      <trkpt lat="36.79685" lon="28.24191">
        <ele>156.1</ele>
      </trkpt>
      <trkpt lat="36.7968" lon="28.24183">
        <ele>157.2</ele>
      </trkpt>
      <trkpt lat="36.79681" lon="28.24174">
        <ele>154.2</ele>
      </trkpt>
      <trkpt lat="36.79684" lon="28.24171">
        <ele>151.5</ele>
      </trkpt>
      <trkpt lat="36.79684" lon="28.24162">
        <ele>150</ele>
      </trkpt>
      <trkpt lat="36.7968" lon="28.24151">
        <ele>151</ele>
      </trkpt>
      <trkpt lat="36.7968" lon="28.24147">
        <ele>150.9</ele>
      </trkpt>
      <trkpt lat="36.7968" lon="28.24135">
        <ele>149.3</ele>
      </trkpt>
      <trkpt lat="36.79679" lon="28.24122">
        <ele>148.1</ele>
      </trkpt>
      <trkpt lat="36.79681" lon="28.24118">
        <ele>146.6</ele>
      </trkpt>
      <trkpt lat="36.79681" lon="28.24109">
        <ele>145.1</ele>
      </trkpt>
      <trkpt lat="36.79682" lon="28.24102">
        <ele>143.3</ele>
      </trkpt>
      <trkpt lat="36.79681" lon="28.24094">
        <ele>143</ele>
      </trkpt>
      <trkpt lat="36.79683" lon="28.24087">
        <ele>140.9</ele>
      </trkpt>
      <trkpt lat="36.79685" lon="28.2408">
        <ele>139.5</ele>
      </trkpt>
      <trkpt lat="36.79687" lon="28.24071">
        <ele>139</ele>
      </trkpt>
      <trkpt lat="36.79689" lon="28.24065">
        <ele>137.8</ele>
      </trkpt>
      <trkpt lat="36.7969" lon="28.24062">
        <ele>137.4</ele>
      </trkpt>
      <trkpt lat="36.79692" lon="28.24045">
        <ele>137.9</ele>
      </trkpt>
      <trkpt lat="36.79692" lon="28.2403">
        <ele>139.1</ele>
      </trkpt>
      <trkpt lat="36.79691" lon="28.24017">
        <ele>140.5</ele>
      </trkpt>
      <trkpt lat="36.79694" lon="28.24005">
        <ele>140.1</ele>
      </trkpt>
      <trkpt lat="36.79698" lon="28.23997">
        <ele>139.1</ele>
      </trkpt>
      <trkpt lat="36.79697" lon="28.23987">
        <ele>139.2</ele>
      </trkpt>
      <trkpt lat="36.79696" lon="28.23981">
        <ele>139.6</ele>
      </trkpt>
      <trkpt lat="36.79691" lon="28.23975">
        <ele>141.5</ele>
      </trkpt>
      <trkpt lat="36.7969" lon="28.23973">
        <ele>142</ele>
      </trkpt>
      <trkpt lat="36.7969" lon="28.23944">
        <ele>141.7</ele>
      </trkpt>
      <trkpt lat="36.79687" lon="28.23942">
        <ele>142.7</ele>
      </trkpt>
      <trkpt lat="36.79686" lon="28.23933">
        <ele>143</ele>
      </trkpt>
      <trkpt lat="36.79686" lon="28.23931">
        <ele>142.8</ele>
      </trkpt>
      <trkpt lat="36.7968" lon="28.23922">
        <ele>144.7</ele>
      </trkpt>
      <trkpt lat="36.79681" lon="28.23916">
        <ele>144.4</ele>
      </trkpt>
      <trkpt lat="36.79681" lon="28.23916">
        <ele>144.1</ele>
      </trkpt>
      <trkpt lat="36.79686" lon="28.23909">
        <ele>141.2</ele>
      </trkpt>
      <trkpt lat="36.79693" lon="28.23902">
        <ele>137.2</ele>
      </trkpt>
      <trkpt lat="36.79696" lon="28.23894">
        <ele>134.4</ele>
      </trkpt>
      <trkpt lat="36.79702" lon="28.23889">
        <ele>130.9</ele>
      </trkpt>
      <trkpt lat="36.79706" lon="28.23881">
        <ele>127.3</ele>
      </trkpt>
      <trkpt lat="36.797" lon="28.23882">
        <ele>129.9</ele>
      </trkpt>
      <trkpt lat="36.79696" lon="28.23877">
        <ele>130.3</ele>
      </trkpt>
      <trkpt lat="36.79696" lon="28.2387">
        <ele>128.8</ele>
      </trkpt>
      <trkpt lat="36.79695" lon="28.23863">
        <ele>127.2</ele>
      </trkpt>
      <trkpt lat="36.79688" lon="28.23854">
        <ele>128.6</ele>
      </trkpt>
      <trkpt lat="36.79683" lon="28.2384">
        <ele>128.6</ele>
      </trkpt>
      <trkpt lat="36.79674" lon="28.23828">
        <ele>131.1</ele>
      </trkpt>
      <trkpt lat="36.79676" lon="28.2382">
        <ele>128.7</ele>
      </trkpt>
      <trkpt lat="36.79679" lon="28.23815">
        <ele>126.1</ele>
      </trkpt>
      <trkpt lat="36.79686" lon="28.23809">
        <ele>121.1</ele>
      </trkpt>
      <trkpt lat="36.79691" lon="28.23798">
        <ele>116.3</ele>
      </trkpt>
      <trkpt lat="36.7969" lon="28.23787">
        <ele>114.6</ele>
      </trkpt>
      <trkpt lat="36.79688" lon="28.23776">
        <ele>113.9</ele>
      </trkpt>
      <trkpt lat="36.79687" lon="28.23772">
        <ele>113.5</ele>
      </trkpt>
      <trkpt lat="36.79682" lon="28.23758">
        <ele>114.2</ele>
      </trkpt>
      <trkpt lat="36.79679" lon="28.23745">
        <ele>113.9</ele>
      </trkpt>
      <trkpt lat="36.79678" lon="28.23736">
        <ele>113</ele>
      </trkpt>
      <trkpt lat="36.79675" lon="28.23722">
        <ele>112.1</ele>
      </trkpt>
      <trkpt lat="36.79673" lon="28.2372">
        <ele>113</ele>
      </trkpt>
      <trkpt lat="36.79671" lon="28.23709">
        <ele>112.5</ele>
      </trkpt>
      <trkpt lat="36.79667" lon="28.23697">
        <ele>112.4</ele>
      </trkpt>
      <trkpt lat="36.79665" lon="28.23687">
        <ele>112.9</ele>
      </trkpt>
      <trkpt lat="36.79664" lon="28.23685">
        <ele>112.9</ele>
      </trkpt>
      <trkpt lat="36.79666" lon="28.23674">
        <ele>109.4</ele>
      </trkpt>
      <trkpt lat="36.79667" lon="28.23666">
        <ele>106.9</ele>
      </trkpt>
      <trkpt lat="36.79666" lon="28.23666">
        <ele>107</ele>
      </trkpt>
      <trkpt lat="36.79662" lon="28.23655">
        <ele>108.3</ele>
      </trkpt>
      <trkpt lat="36.79661" lon="28.23651">
        <ele>108.7</ele>
      </trkpt>
      <trkpt lat="36.7966" lon="28.23646">
        <ele>107.9</ele>
      </trkpt>
      <trkpt lat="36.79657" lon="28.23643">
        <ele>109.5</ele>
      </trkpt>
      <trkpt lat="36.79653" lon="28.23642">
        <ele>112.6</ele>
      </trkpt>
      <trkpt lat="36.79647" lon="28.23642">
        <ele>117.7</ele>
      </trkpt>
      <trkpt lat="36.79644" lon="28.23634">
        <ele>117.6</ele>
      </trkpt>
      <trkpt lat="36.79639" lon="28.23622">
        <ele>117.7</ele>
      </trkpt>
      <trkpt lat="36.79635" lon="28.23622">
        <ele>121.3</ele>
      </trkpt>
      <trkpt lat="36.79626" lon="28.23619">
        <ele>127.2</ele>
      </trkpt>
      <trkpt lat="36.79623" lon="28.2361">
        <ele>126.1</ele>
      </trkpt>
      <trkpt lat="36.79619" lon="28.23603">
        <ele>125.8</ele>
      </trkpt>
      <trkpt lat="36.79619" lon="28.23602">
        <ele>125.9</ele>
      </trkpt>
      <trkpt lat="36.79619" lon="28.23594">
        <ele>122.4</ele>
      </trkpt>
      <trkpt lat="36.79617" lon="28.2359">
        <ele>121.8</ele>
      </trkpt>
      <trkpt lat="36.79616" lon="28.23588">
        <ele>121.6</ele>
      </trkpt>
      <trkpt lat="36.79614" lon="28.23575">
        <ele>117.7</ele>
      </trkpt>
      <trkpt lat="36.79616" lon="28.23565">
        <ele>113</ele>
      </trkpt>
      <trkpt lat="36.79611" lon="28.23557">
        <ele>112.3</ele>
      </trkpt>
      <trkpt lat="36.79611" lon="28.23553">
        <ele>110.7</ele>
      </trkpt>
      <trkpt lat="36.79609" lon="28.23543">
        <ele>108.2</ele>
      </trkpt>
      <trkpt lat="36.79608" lon="28.23539">
        <ele>107</ele>
      </trkpt>
      <trkpt lat="36.79605" lon="28.23535">
        <ele>107.1</ele>
      </trkpt>
      <trkpt lat="36.79604" lon="28.23529">
        <ele>105.3</ele>
      </trkpt>
      <trkpt lat="36.79599" lon="28.23527">
        <ele>107.1</ele>
      </trkpt>
      <trkpt lat="36.79597" lon="28.23522">
        <ele>105.8</ele>
      </trkpt>
      <trkpt lat="36.79593" lon="28.2352">
        <ele>106.9</ele>
      </trkpt>
      <trkpt lat="36.79592" lon="28.23516">
        <ele>105.7</ele>
      </trkpt>
      <trkpt lat="36.79591" lon="28.23512">
        <ele>104.9</ele>
      </trkpt>
      <trkpt lat="36.79585" lon="28.23507">
        <ele>105.4</ele>
      </trkpt>
      <trkpt lat="36.79583" lon="28.23505">
        <ele>105.6</ele>
      </trkpt>
      <trkpt lat="36.79579" lon="28.23495">
        <ele>102.7</ele>
      </trkpt>
      <trkpt lat="36.79572" lon="28.23487">
        <ele>102.3</ele>
      </trkpt>
      <trkpt lat="36.79567" lon="28.23476">
        <ele>99.3</ele>
      </trkpt>
      <trkpt lat="36.79565" lon="28.23466">
        <ele>96.1</ele>
      </trkpt>
      <trkpt lat="36.79565" lon="28.23464">
        <ele>95.1</ele>
      </trkpt>
      <trkpt lat="36.79568" lon="28.2346">
        <ele>92.5</ele>
      </trkpt>
      <trkpt lat="36.79566" lon="28.23453">
        <ele>90.7</ele>
      </trkpt>
      <trkpt lat="36.79567" lon="28.23446">
        <ele>87.6</ele>
      </trkpt>
      <trkpt lat="36.79569" lon="28.2344">
        <ele>84.8</ele>
      </trkpt>
      <trkpt lat="36.79567" lon="28.23428">
        <ele>80.4</ele>
      </trkpt>
      <trkpt lat="36.79563" lon="28.2342">
        <ele>78</ele>
      </trkpt>
      <trkpt lat="36.79565" lon="28.23408">
        <ele>75.1</ele>
      </trkpt>
      <trkpt lat="36.79564" lon="28.23397">
        <ele>73.6</ele>
      </trkpt>
      <trkpt lat="36.79564" lon="28.23388">
        <ele>72.3</ele>
      </trkpt>
      <trkpt lat="36.79558" lon="28.23376">
        <ele>70.9</ele>
      </trkpt>
      <trkpt lat="36.79551" lon="28.23367">
        <ele>69.8</ele>
      </trkpt>
      <trkpt lat="36.7955" lon="28.23358">
        <ele>68.2</ele>
      </trkpt>
      <trkpt lat="36.7955" lon="28.23355">
        <ele>67.8</ele>
      </trkpt>
      <trkpt lat="36.79546" lon="28.23346">
        <ele>66</ele>
      </trkpt>
      <trkpt lat="36.79545" lon="28.23343">
        <ele>65.6</ele>
      </trkpt>
      <trkpt lat="36.79541" lon="28.23339">
        <ele>64.6</ele>
      </trkpt>
      <trkpt lat="36.79543" lon="28.23328">
        <ele>62.5</ele>
      </trkpt>
      <trkpt lat="36.79547" lon="28.23319">
        <ele>61.1</ele>
      </trkpt>
      <trkpt lat="36.79542" lon="28.23314">
        <ele>60.1</ele>
      </trkpt>
      <trkpt lat="36.79537" lon="28.23307">
        <ele>58.8</ele>
      </trkpt>
      <trkpt lat="36.79534" lon="28.23296">
        <ele>57</ele>
      </trkpt>
      <trkpt lat="36.79531" lon="28.23295">
        <ele>56.7</ele>
      </trkpt>
      <trkpt lat="36.79522" lon="28.23292">
        <ele>56.2</ele>
      </trkpt>
      <trkpt lat="36.79523" lon="28.23287">
        <ele>55.4</ele>
      </trkpt>
      <trkpt lat="36.79516" lon="28.23291">
        <ele>55.9</ele>
      </trkpt>
      <trkpt lat="36.79515" lon="28.2329">
        <ele>55.9</ele>
      </trkpt>
      <trkpt lat="36.79515" lon="28.23283">
        <ele>54.7</ele>
      </trkpt>
      <trkpt lat="36.79517" lon="28.23268">
        <ele>52.4</ele>
      </trkpt>
      <trkpt lat="36.79518" lon="28.23265">
        <ele>52</ele>
      </trkpt>
      <trkpt lat="36.79516" lon="28.23256">
        <ele>50.5</ele>
      </trkpt>
      <trkpt lat="36.79517" lon="28.23255">
        <ele>50.3</ele>
      </trkpt>
      <trkpt lat="36.79519" lon="28.23252">
        <ele>49.8</ele>
      </trkpt>
      <trkpt lat="36.7952" lon="28.23249">
        <ele>49.3</ele>
      </trkpt>
      <trkpt lat="36.79519" lon="28.23245">
        <ele>48.7</ele>
      </trkpt>
      <trkpt lat="36.79513" lon="28.23242">
        <ele>48.4</ele>
      </trkpt>
      <trkpt lat="36.7951" lon="28.23242">
        <ele>48.6</ele>
      </trkpt>
      <trkpt lat="36.79512" lon="28.23233">
        <ele>46.9</ele>
      </trkpt>
      <trkpt lat="36.79512" lon="28.23232">
        <ele>46.7</ele>
      </trkpt>
      <trkpt lat="36.79515" lon="28.23221">
        <ele>44.8</ele>
      </trkpt>
      <trkpt lat="36.79519" lon="28.2322">
        <ele>44.1</ele>
      </trkpt>
      <trkpt lat="36.79523" lon="28.23208">
        <ele>41.6</ele>
      </trkpt>
      <trkpt lat="36.79516" lon="28.23202">
        <ele>41.4</ele>
      </trkpt>
      <trkpt lat="36.79515" lon="28.23194">
        <ele>40.1</ele>
      </trkpt>
      <trkpt lat="36.79514" lon="28.23187">
        <ele>39.1</ele>
      </trkpt>
      <trkpt lat="36.79516" lon="28.2318">
        <ele>37.6</ele>
      </trkpt>
      <trkpt lat="36.79522" lon="28.2317">
        <ele>34.5</ele>
      </trkpt>
      <trkpt lat="36.79523" lon="28.23166">
        <ele>33.6</ele>
      </trkpt>
      <trkpt lat="36.79528" lon="28.23155">
        <ele>31.2</ele>
      </trkpt>
      <trkpt lat="36.79531" lon="28.23143">
        <ele>29.2</ele>
      </trkpt>
      <trkpt lat="36.7953" lon="28.23143">
        <ele>29.2</ele>
      </trkpt>
      <trkpt lat="36.79528" lon="28.23129">
        <ele>28.1</ele>
      </trkpt>
      <trkpt lat="36.79529" lon="28.23122">
        <ele>26.9</ele>
      </trkpt>
      <trkpt lat="36.7954" lon="28.23108">
        <ele>22.9</ele>
      </trkpt>
      <trkpt lat="36.79539" lon="28.23099">
        <ele>21.9</ele>
      </trkpt>
      <trkpt lat="36.7954" lon="28.23096">
        <ele>21.4</ele>
      </trkpt>
      <trkpt lat="36.7954" lon="28.23095">
        <ele>21.2</ele>
      </trkpt>
      <trkpt lat="36.79541" lon="28.23091">
        <ele>20.5</ele>
      </trkpt>
      <trkpt lat="36.7955" lon="28.2309">
        <ele>18.4</ele>
      </trkpt>
      <trkpt lat="36.79553" lon="28.2309">
        <ele>17.8</ele>
      </trkpt>
      <trkpt lat="36.79556" lon="28.23083">
        <ele>16.4</ele>
      </trkpt>
      <trkpt lat="36.79559" lon="28.23078">
        <ele>15.1</ele>
      </trkpt>
      <trkpt lat="36.79573" lon="28.23063">
        <ele>11.2</ele>
      </trkpt>
      <trkpt lat="36.7958" lon="28.23053">
        <ele>9.5</ele>
      </trkpt>
      <trkpt lat="36.7959" lon="28.23035">
        <ele>8</ele>
      </trkpt>
      <trkpt lat="36.79597" lon="28.23019">
        <ele>7.3</ele>
      </trkpt>
      <trkpt lat="36.79608" lon="28.23005">
        <ele>6.6</ele>
      </trkpt>
      <trkpt lat="36.79617" lon="28.2299">
        <ele>6.3</ele>
      </trkpt>
      <trkpt lat="36.79626" lon="28.22968">
        <ele>6.4</ele>
      </trkpt>
      <trkpt lat="36.7963" lon="28.22956">
        <ele>6.4</ele>
      </trkpt>
      <trkpt lat="36.79636" lon="28.22939">
        <ele>6.5</ele>
      </trkpt>
      <trkpt lat="36.79639" lon="28.22925">
        <ele>6.6</ele>
      </trkpt>
      <trkpt lat="36.79641" lon="28.22911">
        <ele>6.6</ele>
      </trkpt>
      <trkpt lat="36.79644" lon="28.22891">
        <ele>6.5</ele>
      </trkpt>
      <trkpt lat="36.79645" lon="28.22878">
        <ele>6.5</ele>
      </trkpt>
      <trkpt lat="36.79645" lon="28.22878">
        <ele>6.5</ele>
      </trkpt>
      <trkpt lat="36.79655" lon="28.2286">
        <ele>6.3</ele>
      </trkpt>
      <trkpt lat="36.79683" lon="28.22885">
        <ele>5.7</ele>
      </trkpt>
      <trkpt lat="36.79725" lon="28.22892">
        <ele>4.8</ele>
      </trkpt>
      <trkpt lat="36.79742" lon="28.22902">
        <ele>4.4</ele>
      </trkpt>
      <trkpt lat="36.79752" lon="28.22915">
        <ele>4</ele>
      </trkpt>
      <trkpt lat="36.79855" lon="28.22951">
        <ele>3.7</ele>
      </trkpt>
      <trkpt lat="36.79872" lon="28.22978">
        <ele>3.7</ele>
      </trkpt>
      <trkpt lat="36.79903" lon="28.23043">
        <ele>5.6</ele>
      </trkpt>
      <trkpt lat="36.7989" lon="28.23097">
        <ele>6.5</ele>
      </trkpt>
      <trkpt lat="36.79887" lon="28.23119">
        <ele>7.2</ele>
      </trkpt>
      <trkpt lat="36.79901" lon="28.23142">
        <ele>8.2</ele>
      </trkpt>
      <trkpt lat="36.79901" lon="28.23195">
        <ele>8.7</ele>
      </trkpt>
      <trkpt lat="36.7992" lon="28.23284">
        <ele>6.3</ele>
      </trkpt>
      <trkpt lat="36.79957" lon="28.23416">
        <ele>5.5</ele>
      </trkpt>
      <trkpt lat="36.7997" lon="28.23459">
        <ele>6.7</ele>
      </trkpt>
      <trkpt lat="36.79988" lon="28.23446">
        <ele>6.2</ele>
      </trkpt>
      <trkpt lat="36.80045" lon="28.23395">
        <ele>4.5</ele>
      </trkpt>
      <trkpt lat="36.80101" lon="28.23337">
        <ele>6.6</ele>
      </trkpt>
      <trkpt lat="36.80132" lon="28.2338">
        <ele>4.5</ele>
      </trkpt>
      <trkpt lat="36.80169" lon="28.23456">
        <ele>2.97</ele>
      </trkpt>
      <trkpt lat="36.80201" lon="28.23433">
        <ele>2.59</ele>
      </trkpt>
      <trkpt lat="36.8031" lon="28.2336">
        <ele>2.9</ele>
      </trkpt>
      <trkpt lat="36.80397" lon="28.23299">
        <ele>4.6</ele>
      </trkpt>
      <trkpt lat="36.8042" lon="28.23287">
        <ele>5.2</ele>
      </trkpt>
      <trkpt lat="36.80446" lon="28.23291">
        <ele>4.2</ele>
      </trkpt>
      <trkpt lat="36.8047" lon="28.23284">
        <ele>3.7</ele>
      </trkpt>
      <trkpt lat="36.80503" lon="28.23263">
        <ele>3</ele>
      </trkpt>
      <trkpt lat="36.80542" lon="28.23244">
        <ele>3.2</ele>
      </trkpt>
      <trkpt lat="36.80627" lon="28.23262">
        <ele>2.7</ele>
      </trkpt>
      <trkpt lat="36.80686" lon="28.23285">
        <ele>3.2</ele>
      </trkpt>
      <trkpt lat="36.80734" lon="28.23313">
        <ele>5.3</ele>
      </trkpt>
      <trkpt lat="36.80783" lon="28.23368">
        <ele>11.7</ele>
      </trkpt>
      <trkpt lat="36.80835" lon="28.23437">
        <ele>14.3</ele>
      </trkpt>
      <trkpt lat="36.80842" lon="28.23449">
        <ele>17.1</ele>
      </trkpt>
      <trkpt lat="36.80847" lon="28.23484">
        <ele>18.3</ele>
      </trkpt>
      <trkpt lat="36.80859" lon="28.23556">
        <ele>15.8</ele>
      </trkpt>
      <trkpt lat="36.80866" lon="28.23573">
        <ele>16</ele>
      </trkpt>
      <trkpt lat="36.80901" lon="28.2361">
        <ele>18.8</ele>
      </trkpt>
      <trkpt lat="36.80967" lon="28.23688">
        <ele>21.2</ele>
      </trkpt>
      <trkpt lat="36.8099" lon="28.23715">
        <ele>21.1</ele>
      </trkpt>
      <trkpt lat="36.81033" lon="28.23779">
        <ele>17.4</ele>
      </trkpt>
      <trkpt lat="36.81077" lon="28.23847">
        <ele>16</ele>
      </trkpt>
      <trkpt lat="36.81123" lon="28.23923">
        <ele>13.3</ele>
      </trkpt>
      <trkpt lat="36.81156" lon="28.23977">
        <ele>11.8</ele>
      </trkpt>
      <trkpt lat="36.81189" lon="28.2402">
        <ele>10.2</ele>
      </trkpt>
      <trkpt lat="36.81231" lon="28.24062">
        <ele>9.7</ele>
      </trkpt>
      <trkpt lat="36.81262" lon="28.24079">
        <ele>10</ele>
      </trkpt>
      <trkpt lat="36.81346" lon="28.24121">
        <ele>12.1</ele>
      </trkpt>
      <trkpt lat="36.81451" lon="28.24174">
        <ele>14.2</ele>
      </trkpt>
      <trkpt lat="36.81532" lon="28.24193">
        <ele>15.6</ele>
      </trkpt>
      <trkpt lat="36.8158" lon="28.24214">
        <ele>14.1</ele>
      </trkpt>
      <trkpt lat="36.81617" lon="28.2424">
        <ele>11.4</ele>
      </trkpt>
      <trkpt lat="36.81645" lon="28.24248">
        <ele>10.9</ele>
      </trkpt>
      <trkpt lat="36.81699" lon="28.24284">
        <ele>10.7</ele>
      </trkpt>
      <trkpt lat="36.81734" lon="28.24306">
        <ele>11.7</ele>
      </trkpt>
      <trkpt lat="36.81777" lon="28.24365">
        <ele>8.3</ele>
      </trkpt>
      <trkpt lat="36.81802" lon="28.24375">
        <ele>8.7</ele>
      </trkpt>
      <trkpt lat="36.81831" lon="28.24374">
        <ele>10.5</ele>
      </trkpt>
      <trkpt lat="36.819" lon="28.24363">
        <ele>12.9</ele>
      </trkpt>
      <trkpt lat="36.8194" lon="28.2436">
        <ele>12.7</ele>
      </trkpt>
      <trkpt lat="36.81969" lon="28.24351">
        <ele>13</ele>
      </trkpt>
      <trkpt lat="36.82007" lon="28.24332">
        <ele>14.3</ele>
      </trkpt>
      <trkpt lat="36.82038" lon="28.24325">
        <ele>15.6</ele>
      </trkpt>
      <trkpt lat="36.82112" lon="28.24322">
        <ele>15</ele>
      </trkpt>
      <trkpt lat="36.822" lon="28.24317">
        <ele>14.6</ele>
      </trkpt>
      <trkpt lat="36.82244" lon="28.24329">
        <ele>12.8</ele>
      </trkpt>
      <trkpt lat="36.82294" lon="28.24339">
        <ele>8.9</ele>
      </trkpt>
      <trkpt lat="36.82329" lon="28.24341">
        <ele>6.8</ele>
      </trkpt>
      <trkpt lat="36.82369" lon="28.24319">
        <ele>9.7</ele>
      </trkpt>
      <trkpt lat="36.82378" lon="28.24313">
        <ele>10.8</ele>
      </trkpt>
      <trkpt lat="36.82463" lon="28.24299">
        <ele>13.8</ele>
      </trkpt>
      <trkpt lat="36.82519" lon="28.24288">
        <ele>15.8</ele>
      </trkpt>
      <trkpt lat="36.82532" lon="28.2428">
        <ele>16.4</ele>
      </trkpt>
      <trkpt lat="36.82544" lon="28.24269">
        <ele>17.1</ele>
      </trkpt>
      <trkpt lat="36.82552" lon="28.24257">
        <ele>17.9</ele>
      </trkpt>
      <trkpt lat="36.82561" lon="28.24253">
        <ele>18.1</ele>
      </trkpt>
      <trkpt lat="36.82575" lon="28.24253">
        <ele>17.9</ele>
      </trkpt>
      <trkpt lat="36.82625" lon="28.24267">
        <ele>14.8</ele>
      </trkpt>
      <trkpt lat="36.82644" lon="28.24276">
        <ele>12.7</ele>
      </trkpt>
      <trkpt lat="36.82676" lon="28.24284">
        <ele>10</ele>
      </trkpt>
      <trkpt lat="36.82722" lon="28.24306">
        <ele>7.1</ele>
      </trkpt>
      <trkpt lat="36.82742" lon="28.24316">
        <ele>6.3</ele>
      </trkpt>
      <trkpt lat="36.82765" lon="28.24321">
        <ele>5.8</ele>
      </trkpt>
      <trkpt lat="36.82771" lon="28.24323">
        <ele>5.5</ele>
      </trkpt>
      <trkpt lat="36.82786" lon="28.24331">
        <ele>4.7</ele>
      </trkpt>
      <trkpt lat="36.82808" lon="28.24333">
        <ele>4.4</ele>
      </trkpt>
      <trkpt lat="36.82839" lon="28.24332">
        <ele>4.3</ele>
      </trkpt>
      <trkpt lat="36.82886" lon="28.24327">
        <ele>6.1</ele>
      </trkpt>
      <trkpt lat="36.82909" lon="28.24324">
        <ele>7</ele>
      </trkpt>
      <trkpt lat="36.82936" lon="28.24328">
        <ele>6.9</ele>
      </trkpt>
      <trkpt lat="36.83013" lon="28.24347">
        <ele>5.9</ele>
      </trkpt>
      <trkpt lat="36.83028" lon="28.24343">
        <ele>6.2</ele>
      </trkpt>
      <trkpt lat="36.8306" lon="28.24356">
        <ele>6.6</ele>
      </trkpt>
      <trkpt lat="36.83136" lon="28.24403">
        <ele>7.2</ele>
      </trkpt>
      <trkpt lat="36.83207" lon="28.24444">
        <ele>6.7</ele>
      </trkpt>
      <trkpt lat="36.83282" lon="28.24503">
        <ele>5.3</ele>
      </trkpt>
      <trkpt lat="36.83303" lon="28.24523">
        <ele>5.2</ele>
      </trkpt>
      <trkpt lat="36.83311" lon="28.24535">
        <ele>5.3</ele>
      </trkpt>
      <trkpt lat="36.83345" lon="28.24563">
        <ele>6.4</ele>
      </trkpt>
      <trkpt lat="36.83451" lon="28.24662">
        <ele>5.5</ele>
      </trkpt>
      <trkpt lat="36.83474" lon="28.24682">
        <ele>5.3</ele>
      </trkpt>
      <trkpt lat="36.83486" lon="28.24687">
        <ele>5.4</ele>
      </trkpt>
      <trkpt lat="36.83508" lon="28.24695">
        <ele>5.4</ele>
      </trkpt>
      <trkpt lat="36.83524" lon="28.24703">
        <ele>5.2</ele>
      </trkpt>
      <trkpt lat="36.83586" lon="28.24747">
        <ele>5.1</ele>
      </trkpt>
      <trkpt lat="36.83615" lon="28.24764">
        <ele>4.9</ele>
      </trkpt>
      <trkpt lat="36.83692" lon="28.24837">
        <ele>5.2</ele>
      </trkpt>
      <trkpt lat="36.83761" lon="28.2493">
        <ele>10.6</ele>
      </trkpt>
      <trkpt lat="36.83771" lon="28.24953">
        <ele>11</ele>
      </trkpt>
      <trkpt lat="36.83775" lon="28.24977">
        <ele>11.2</ele>
      </trkpt>
      <trkpt lat="36.83852" lon="28.25064">
        <ele>4.3</ele>
      </trkpt>
      <trkpt lat="36.83912" lon="28.25146">
        <ele>3.3</ele>
      </trkpt>
      <trkpt lat="36.83953" lon="28.25195">
        <ele>4.3</ele>
      </trkpt>
      <trkpt lat="36.83976" lon="28.25226">
        <ele>5.3</ele>
      </trkpt>
      <trkpt lat="36.8404" lon="28.2529">
        <ele>7.4</ele>
      </trkpt>
      <trkpt lat="36.84092" lon="28.25341">
        <ele>8.4</ele>
      </trkpt>
      <trkpt lat="36.84151" lon="28.25382">
        <ele>6</ele>
      </trkpt>
      <trkpt lat="36.84228" lon="28.25434">
        <ele>5.7</ele>
      </trkpt>
      <trkpt lat="36.8427" lon="28.25482">
        <ele>6.4</ele>
      </trkpt>
      <trkpt lat="36.84326" lon="28.25545">
        <ele>5.2</ele>
      </trkpt>
      <trkpt lat="36.84392" lon="28.2562">
        <ele>6.1</ele>
      </trkpt>
      <trkpt lat="36.84458" lon="28.25699">
        <ele>5.9</ele>
      </trkpt>
      <trkpt lat="36.8452" lon="28.25778">
        <ele>4.3</ele>
      </trkpt>
      <trkpt lat="36.84585" lon="28.25862">
        <ele>4</ele>
      </trkpt>
      <trkpt lat="36.84638" lon="28.25926">
        <ele>4.4</ele>
      </trkpt>
      <trkpt lat="36.84692" lon="28.25998">
        <ele>4.3</ele>
      </trkpt>
      <trkpt lat="36.84727" lon="28.26037">
        <ele>5.9</ele>
      </trkpt>
      <trkpt lat="36.84782" lon="28.26102">
        <ele>5.8</ele>
      </trkpt>
      <trkpt lat="36.8484" lon="28.2618">
        <ele>3.9</ele>
      </trkpt>
      <trkpt lat="36.8489" lon="28.26248">
        <ele>7.8</ele>
      </trkpt>
      <trkpt lat="36.84963" lon="28.26344">
        <ele>10.1</ele>
      </trkpt>
      <trkpt lat="36.85" lon="28.26387">
        <ele>10.7</ele>
      </trkpt>
      <trkpt lat="36.85055" lon="28.2646">
        <ele>9.7</ele>
      </trkpt>
      <trkpt lat="36.85086" lon="28.26502">
        <ele>10</ele>
      </trkpt>
      <trkpt lat="36.85135" lon="28.26575">
        <ele>10.5</ele>
      </trkpt>
      <trkpt lat="36.85191" lon="28.26671">
        <ele>6.4</ele>
      </trkpt>
      <trkpt lat="36.85235" lon="28.26743">
        <ele>5.5</ele>
      </trkpt>
      <trkpt lat="36.85266" lon="28.26798">
        <ele>6.3</ele>
      </trkpt>
      <trkpt lat="36.8528" lon="28.26843">
        <ele>6.4</ele>
      </trkpt>
      <trkpt lat="36.85296" lon="28.26905">
        <ele>5.3</ele>
      </trkpt>
      <trkpt lat="36.85303" lon="28.26971">
        <ele>5</ele>
      </trkpt>
      <trkpt lat="36.85315" lon="28.27084">
        <ele>5.1</ele>
      </trkpt>
      <trkpt lat="36.85318" lon="28.27094">
        <ele>5.7</ele>
      </trkpt>
      <trkpt lat="36.85294" lon="28.27139">
        <ele>5.8</ele>
      </trkpt>
      <trkpt lat="36.85237" lon="28.27207">
        <ele>4.5</ele>
      </trkpt>
      <trkpt lat="36.85136" lon="28.27332">
        <ele>6.2</ele>
      </trkpt>
      <trkpt lat="36.85095" lon="28.27334">
        <ele>5.3</ele>
      </trkpt>
      <trkpt lat="36.8503" lon="28.2736">
        <ele>4.3</ele>
      </trkpt>
      <trkpt lat="36.8499" lon="28.27413">
        <ele>5.8</ele>
      </trkpt>
      <trkpt lat="36.84974" lon="28.27436">
        <ele>5.8</ele>
      </trkpt>
      <trkpt lat="36.84993" lon="28.27467">
        <ele>5.4</ele>
      </trkpt>
      <trkpt lat="36.85015" lon="28.27478">
        <ele>6.1</ele>
      </trkpt>
      <trkpt lat="36.85063" lon="28.27563">
        <ele>4.6</ele>
      </trkpt>
      <trkpt lat="36.85134" lon="28.27579">
        <ele>4</ele>
      </trkpt>
      <trkpt lat="36.85201" lon="28.27577">
        <ele>4.8</ele>
      </trkpt>
      <trkpt lat="36.85236" lon="28.2758">
        <ele>5</ele>
      </trkpt>
      <trkpt lat="36.85253" lon="28.2759">
        <ele>4.9</ele>
      </trkpt>
      <trkpt lat="36.85284" lon="28.2766">
        <ele>4</ele>
      </trkpt>
      <trkpt lat="36.85355" lon="28.27817">
        <ele>5.1</ele>
      </trkpt>
      <trkpt lat="36.85389" lon="28.27836">
        <ele>5.7</ele>
      </trkpt>
      <trkpt lat="36.85374" lon="28.2792">
        <ele>5.5</ele>
      </trkpt>
      <trkpt lat="36.85382" lon="28.27935">
        <ele>5.8</ele>
      </trkpt>
      <trkpt lat="36.85367" lon="28.28004">
        <ele>6.7</ele>
      </trkpt>
      <trkpt lat="36.85355" lon="28.28058">
        <ele>9.1</ele>
      </trkpt>
      <trkpt lat="36.85343" lon="28.28081">
        <ele>7.9</ele>
      </trkpt>
      <trkpt lat="36.85343" lon="28.28111">
        <ele>16.4</ele>
      </trkpt>
      <trkpt lat="36.85218" lon="28.28183">
        <ele>19.2</ele>
      </trkpt>
      <trkpt lat="36.85179" lon="28.28196">
        <ele>20.2</ele>
      </trkpt>
      <trkpt lat="36.85117" lon="28.28187">
        <ele>14.1</ele>
      </trkpt>
      <trkpt lat="36.85053" lon="28.28179">
        <ele>8.7</ele>
      </trkpt>
      <trkpt lat="36.85012" lon="28.282">
        <ele>7.4</ele>
      </trkpt>
      <trkpt lat="36.8501" lon="28.28251">
        <ele>11.4</ele>
      </trkpt>
      <trkpt lat="36.85056" lon="28.28324">
        <ele>19.4</ele>
      </trkpt>
      <trkpt lat="36.85088" lon="28.28437">
        <ele>12.4</ele>
      </trkpt>
      <trkpt lat="36.85114" lon="28.28579">
        <ele>14.9</ele>
      </trkpt>
      <trkpt lat="36.85103" lon="28.28686">
        <ele>16.1</ele>
      </trkpt>
      <trkpt lat="36.85063" lon="28.28774">
        <ele>13.8</ele>
      </trkpt>
      <trkpt lat="36.84969" lon="28.28873">
        <ele>8.8</ele>
      </trkpt>
      <trkpt lat="36.84882" lon="28.28927">
        <ele>9.7</ele>
      </trkpt>
      <trkpt lat="36.84776" lon="28.28959">
        <ele>9.5</ele>
      </trkpt>
      <trkpt lat="36.84595" lon="28.28995">
        <ele>9.3</ele>
      </trkpt>
      <trkpt lat="36.84537" lon="28.28956">
        <ele>14.2</ele>
      </trkpt>
      <trkpt lat="36.84522" lon="28.28926">
        <ele>14</ele>
      </trkpt>
      <trkpt lat="36.84504" lon="28.28779">
        <ele>7.3</ele>
      </trkpt>
      <trkpt lat="36.84454" lon="28.2871">
        <ele>8.2</ele>
      </trkpt>
      <trkpt lat="36.84371" lon="28.28703">
        <ele>7.7</ele>
      </trkpt>
      <trkpt lat="36.84309" lon="28.28754">
        <ele>10.7</ele>
      </trkpt>
      <trkpt lat="36.84219" lon="28.28886">
        <ele>14.8</ele>
      </trkpt>
      <trkpt lat="36.84101" lon="28.29129">
        <ele>16.4</ele>
      </trkpt>
      <trkpt lat="36.83996" lon="28.29381">
        <ele>19.6</ele>
      </trkpt>
      <trkpt lat="36.83904" lon="28.29634">
        <ele>35.6</ele>
      </trkpt>
      <trkpt lat="36.83749" lon="28.29995">
        <ele>35.3</ele>
      </trkpt>
      <trkpt lat="36.83622" lon="28.30212">
        <ele>62.2</ele>
      </trkpt>
      <trkpt lat="36.83553" lon="28.3034">
        <ele>71.4</ele>
      </trkpt>
      <trkpt lat="36.83466" lon="28.30523">
        <ele>91</ele>
      </trkpt>
      <trkpt lat="36.83435" lon="28.3057">
        <ele>93.4</ele>
      </trkpt>
      <trkpt lat="36.83419" lon="28.30663">
        <ele>94.7</ele>
      </trkpt>
      <trkpt lat="36.8344" lon="28.30738">
        <ele>96.5</ele>
      </trkpt>
      <trkpt lat="36.83524" lon="28.30802">
        <ele>104.2</ele>
      </trkpt>
      <trkpt lat="36.8357" lon="28.30884">
        <ele>101.3</ele>
      </trkpt>
      <trkpt lat="36.83569" lon="28.30941">
        <ele>95.2</ele>
      </trkpt>
      <trkpt lat="36.83544" lon="28.31048">
        <ele>84</ele>
      </trkpt>
      <trkpt lat="36.83546" lon="28.31169">
        <ele>73.1</ele>
      </trkpt>
      <trkpt lat="36.83627" lon="28.31303">
        <ele>64.5</ele>
      </trkpt>
      <trkpt lat="36.83654" lon="28.31378">
        <ele>63.6</ele>
      </trkpt>
      <trkpt lat="36.83621" lon="28.31457">
        <ele>67.2</ele>
      </trkpt>
      <trkpt lat="36.83528" lon="28.31584">
        <ele>62.9</ele>
      </trkpt>
      <trkpt lat="36.83472" lon="28.31733">
        <ele>57.6</ele>
      </trkpt>
      <trkpt lat="36.83475" lon="28.31864">
        <ele>58.1</ele>
      </trkpt>
      <trkpt lat="36.83558" lon="28.32252">
        <ele>50.5</ele>
      </trkpt>
      <trkpt lat="36.83717" lon="28.32469">
        <ele>59.6</ele>
      </trkpt>
      <trkpt lat="36.83851" lon="28.32596">
        <ele>62.6</ele>
      </trkpt>
      <trkpt lat="36.8395" lon="28.32704">
        <ele>56.9</ele>
      </trkpt>
      <trkpt lat="36.84068" lon="28.32791">
        <ele>56.9</ele>
      </trkpt>
      <trkpt lat="36.84128" lon="28.32888">
        <ele>60.4</ele>
      </trkpt>
      <trkpt lat="36.8411" lon="28.32993">
        <ele>53</ele>
      </trkpt>
      <trkpt lat="36.8405" lon="28.33049">
        <ele>57.1</ele>
      </trkpt>
      <trkpt lat="36.83805" lon="28.33057">
        <ele>71.2</ele>
      </trkpt>
      <trkpt lat="36.83769" lon="28.33086">
        <ele>76.7</ele>
      </trkpt>
      <trkpt lat="36.83757" lon="28.33202">
        <ele>97.9</ele>
      </trkpt>
      <trkpt lat="36.83748" lon="28.33763">
        <ele>133.6</ele>
      </trkpt>
      <trkpt lat="36.83726" lon="28.34012">
        <ele>161.8</ele>
      </trkpt>
      <trkpt lat="36.83649" lon="28.34262">
        <ele>169.8</ele>
      </trkpt>
      <trkpt lat="36.83538" lon="28.34442">
        <ele>191.2</ele>
      </trkpt>
      <trkpt lat="36.83502" lon="28.34587">
        <ele>192.3</ele>
      </trkpt>
      <trkpt lat="36.83577" lon="28.34808">
        <ele>183</ele>
      </trkpt>
      <trkpt lat="36.83654" lon="28.35073">
        <ele>155.6</ele>
      </trkpt>
      <trkpt lat="36.83746" lon="28.35155">
        <ele>151.8</ele>
      </trkpt>
      <trkpt lat="36.83743" lon="28.35441">
        <ele>130</ele>
      </trkpt>
      <trkpt lat="36.83883" lon="28.35942">
        <ele>99.1</ele>
      </trkpt>
      <trkpt lat="36.83835" lon="28.36365">
        <ele>54.9</ele>
      </trkpt>
      <trkpt lat="36.83897" lon="28.36563">
        <ele>46</ele>
      </trkpt>
      <trkpt lat="36.83787" lon="28.36779">
        <ele>32.8</ele>
      </trkpt>
      <trkpt lat="36.83771" lon="28.37125">
        <ele>25</ele>
      </trkpt>
      <trkpt lat="36.8386" lon="28.37378">
        <ele>20.8</ele>
      </trkpt>
      <trkpt lat="36.83815" lon="28.37622">
        <ele>17.4</ele>
      </trkpt>
      <trkpt lat="36.83841" lon="28.37741">
        <ele>20</ele>
      </trkpt>
      <trkpt lat="36.83911" lon="28.37672">
        <ele>10.2</ele>
      </trkpt>
      <trkpt lat="36.84011" lon="28.37911">
        <ele>8.3</ele>
      </trkpt>
      <trkpt lat="36.84077" lon="28.37976">
        <ele>4.1</ele>
      </trkpt>
      <trkpt lat="36.84121" lon="28.37939">
        <ele>3.3</ele>
      </trkpt>
      <trkpt lat="36.84173" lon="28.37769">
        <ele>5.6</ele>
      </trkpt>
      <trkpt lat="36.84212" lon="28.37699">
        <ele>5</ele>
      </trkpt>
      <trkpt lat="36.8433" lon="28.3763">
        <ele>5.5</ele>
      </trkpt>
      <trkpt lat="36.84484" lon="28.37662">
        <ele>7.2</ele>
      </trkpt>
      <trkpt lat="36.84613" lon="28.37773">
        <ele>6</ele>
      </trkpt>
      <trkpt lat="36.84757" lon="28.37897">
        <ele>10.7</ele>
      </trkpt>
      <trkpt lat="36.84823" lon="28.38003">
        <ele>11.8</ele>
      </trkpt>
      <trkpt lat="36.84864" lon="28.38016">
        <ele>18.6</ele>
      </trkpt>
      <trkpt lat="36.84904" lon="28.38136">
        <ele>13.6</ele>
      </trkpt>
      <trkpt lat="36.85029" lon="28.3821">
        <ele>13.3</ele>
      </trkpt>
      <trkpt lat="36.85121" lon="28.38154">
        <ele>15</ele>
      </trkpt>
      <trkpt lat="36.85148" lon="28.38119">
        <ele>16.4</ele>
      </trkpt>
      <trkpt lat="36.85209" lon="28.38101">
        <ele>15</ele>
      </trkpt>
      <trkpt lat="36.8534" lon="28.38101">
        <ele>11.7</ele>
      </trkpt>
      <trkpt lat="36.85445" lon="28.38075">
        <ele>11.5</ele>
      </trkpt>
      <trkpt lat="36.85593" lon="28.38006">
        <ele>17.2</ele>
      </trkpt>
      <trkpt lat="36.85663" lon="28.37924">
        <ele>22.8</ele>
      </trkpt>
      <trkpt lat="36.85741" lon="28.37886">
        <ele>19.4</ele>
      </trkpt>
      <trkpt lat="36.85766" lon="28.37884">
        <ele>16.4</ele>
      </trkpt>
      <trkpt lat="36.85826" lon="28.38">
        <ele>10.7</ele>
      </trkpt>
      <trkpt lat="36.85845" lon="28.38062">
        <ele>12.2</ele>
      </trkpt>
      <trkpt lat="36.85798" lon="28.38145">
        <ele>18.3</ele>
      </trkpt>
      <trkpt lat="36.85738" lon="28.38225">
        <ele>13.4</ele>
      </trkpt>
      <trkpt lat="36.85692" lon="28.38311">
        <ele>12.9</ele>
      </trkpt>
      <trkpt lat="36.85643" lon="28.38429">
        <ele>10.1</ele>
      </trkpt>
      <trkpt lat="36.85514" lon="28.38577">
        <ele>7.4</ele>
      </trkpt>
      <trkpt lat="36.85485" lon="28.38592">
        <ele>9.4</ele>
      </trkpt>
      <trkpt lat="36.85408" lon="28.38595">
        <ele>9.8</ele>
      </trkpt>
      <trkpt lat="36.85372" lon="28.38616">
        <ele>11.2</ele>
      </trkpt>
      <trkpt lat="36.85353" lon="28.3866">
        <ele>14.1</ele>
      </trkpt>
      <trkpt lat="36.85361" lon="28.38765">
        <ele>19.9</ele>
      </trkpt>
      <trkpt lat="36.85326" lon="28.38924">
        <ele>17.9</ele>
      </trkpt>
      <trkpt lat="36.85311" lon="28.38966">
        <ele>16.8</ele>
      </trkpt>
      <trkpt lat="36.85331" lon="28.3915">
        <ele>23.5</ele>
      </trkpt>
      <trkpt lat="36.8545" lon="28.39369">
        <ele>39.4</ele>
      </trkpt>
      <trkpt lat="36.85511" lon="28.3937">
        <ele>46.5</ele>
      </trkpt>
      <trkpt lat="36.85636" lon="28.39464">
        <ele>33.7</ele>
      </trkpt>
      <trkpt lat="36.85706" lon="28.39494">
        <ele>31.2</ele>
      </trkpt>
      <trkpt lat="36.85838" lon="28.39524">
        <ele>29.5</ele>
      </trkpt>
      <trkpt lat="36.85893" lon="28.39514">
        <ele>26.7</ele>
      </trkpt>
      <trkpt lat="36.85944" lon="28.39494">
        <ele>31.1</ele>
      </trkpt>
      <trkpt lat="36.85971" lon="28.39496">
        <ele>32.8</ele>
      </trkpt>
      <trkpt lat="36.86033" lon="28.39574">
        <ele>21.1</ele>
      </trkpt>
      <trkpt lat="36.86064" lon="28.39579">
        <ele>20</ele>
      </trkpt>
      <trkpt lat="36.86095" lon="28.39561">
        <ele>21.7</ele>
      </trkpt>
      <trkpt lat="36.86118" lon="28.39535">
        <ele>24.7</ele>
      </trkpt>
      <trkpt lat="36.86194" lon="28.39526">
        <ele>23.4</ele>
      </trkpt>
      <trkpt lat="36.8627" lon="28.39537">
        <ele>21.2</ele>
      </trkpt>
      <trkpt lat="36.86296" lon="28.39571">
        <ele>15.5</ele>
      </trkpt>
      <trkpt lat="36.86298" lon="28.39716">
        <ele>15</ele>
      </trkpt>
      <trkpt lat="36.86302" lon="28.39855">
        <ele>18.6</ele>
      </trkpt>
      <trkpt lat="36.86354" lon="28.39928">
        <ele>22.1</ele>
      </trkpt>
      <trkpt lat="36.86407" lon="28.3998">
        <ele>21.9</ele>
      </trkpt>
      <trkpt lat="36.86519" lon="28.40047">
        <ele>21</ele>
      </trkpt>
      <trkpt lat="36.86677" lon="28.40214">
        <ele>10.1</ele>
      </trkpt>
      <trkpt lat="36.86965" lon="28.40452">
        <ele>15.3</ele>
      </trkpt>
      <trkpt lat="36.87049" lon="28.40486">
        <ele>21</ele>
      </trkpt>
      <trkpt lat="36.87127" lon="28.40502">
        <ele>30.3</ele>
      </trkpt>
      <trkpt lat="36.87155" lon="28.4055">
        <ele>27</ele>
      </trkpt>
      <trkpt lat="36.87236" lon="28.4083">
        <ele>14.7</ele>
      </trkpt>
      <trkpt lat="36.87403" lon="28.40998">
        <ele>20.6</ele>
      </trkpt>
      <trkpt lat="36.87455" lon="28.41023">
        <ele>24.1</ele>
      </trkpt>
      <trkpt lat="36.8758" lon="28.41187">
        <ele>26</ele>
      </trkpt>
      <trkpt lat="36.87593" lon="28.41242">
        <ele>25.4</ele>
      </trkpt>
      <trkpt lat="36.87706" lon="28.41408">
        <ele>37.4</ele>
      </trkpt>
      <trkpt lat="36.87708" lon="28.41567">
        <ele>39.3</ele>
      </trkpt>
      <trkpt lat="36.87741" lon="28.41604">
        <ele>40.3</ele>
      </trkpt>
      <trkpt lat="36.87809" lon="28.41645">
        <ele>43.3</ele>
      </trkpt>
      <trkpt lat="36.8782" lon="28.41705">
        <ele>47.9</ele>
      </trkpt>
      <trkpt lat="36.87859" lon="28.41744">
        <ele>52.7</ele>
      </trkpt>
      <trkpt lat="36.87908" lon="28.41767">
        <ele>56.6</ele>
      </trkpt>
      <trkpt lat="36.87923" lon="28.41818">
        <ele>61</ele>
      </trkpt>
      <trkpt lat="36.8791" lon="28.41843">
        <ele>61.5</ele>
      </trkpt>
      <trkpt lat="36.87879" lon="28.41818">
        <ele>61.5</ele>
      </trkpt>
      <trkpt lat="36.87827" lon="28.4179">
        <ele>59.9</ele>
      </trkpt>
      <trkpt lat="36.87651" lon="28.41749">
        <ele>72.1</ele>
      </trkpt>
      <trkpt lat="36.87522" lon="28.41668">
        <ele>77.8</ele>
      </trkpt>
      <trkpt lat="36.87483" lon="28.41668">
        <ele>85.7</ele>
      </trkpt>
      <trkpt lat="36.87472" lon="28.41687">
        <ele>91.5</ele>
      </trkpt>
      <trkpt lat="36.87629" lon="28.41926">
        <ele>110</ele>
      </trkpt>
      <trkpt lat="36.87669" lon="28.42022">
        <ele>124.2</ele>
      </trkpt>
      <trkpt lat="36.87737" lon="28.42124">
        <ele>136.9</ele>
      </trkpt>
      <trkpt lat="36.8782" lon="28.42186">
        <ele>136.7</ele>
      </trkpt>
      <trkpt lat="36.87816" lon="28.42284">
        <ele>155.6</ele>
      </trkpt>
      <trkpt lat="36.87884" lon="28.42455">
        <ele>179.1</ele>
      </trkpt>
      <trkpt lat="36.87919" lon="28.42487">
        <ele>183.5</ele>
      </trkpt>
      <trkpt lat="36.87976" lon="28.42452">
        <ele>177.5</ele>
      </trkpt>
      <trkpt lat="36.88009" lon="28.42461">
        <ele>180.3</ele>
      </trkpt>
      <trkpt lat="36.88092" lon="28.42558">
        <ele>195.5</ele>
      </trkpt>
      <trkpt lat="36.88118" lon="28.42609">
        <ele>197.4</ele>
      </trkpt>
      <trkpt lat="36.8811" lon="28.42652">
        <ele>191.6</ele>
      </trkpt>
      <trkpt lat="36.8807" lon="28.42682">
        <ele>190.6</ele>
      </trkpt>
      <trkpt lat="36.88029" lon="28.42751">
        <ele>179.8</ele>
      </trkpt>
      <trkpt lat="36.88026" lon="28.4285">
        <ele>170.1</ele>
      </trkpt>
      <trkpt lat="36.8802" lon="28.42937">
        <ele>161.1</ele>
      </trkpt>
      <trkpt lat="36.87988" lon="28.43092">
        <ele>153.4</ele>
      </trkpt>
      <trkpt lat="36.87995" lon="28.43147">
        <ele>147.4</ele>
      </trkpt>
      <trkpt lat="36.88014" lon="28.43239">
        <ele>133.8</ele>
      </trkpt>
      <trkpt lat="36.88001" lon="28.43308">
        <ele>133.1</ele>
      </trkpt>
      <trkpt lat="36.88018" lon="28.4345">
        <ele>120</ele>
      </trkpt>
      <trkpt lat="36.8806" lon="28.43535">
        <ele>101.5</ele>
      </trkpt>
      <trkpt lat="36.88031" lon="28.43627">
        <ele>113.1</ele>
      </trkpt>
      <trkpt lat="36.88084" lon="28.43717">
        <ele>85.4</ele>
      </trkpt>
      <trkpt lat="36.88075" lon="28.43797">
        <ele>92.3</ele>
      </trkpt>
      <trkpt lat="36.88099" lon="28.43809">
        <ele>78.5</ele>
      </trkpt>
      <trkpt lat="36.8815" lon="28.43515">
        <ele>63.4</ele>
      </trkpt>
      <trkpt lat="36.88172" lon="28.43517">
        <ele>56.8</ele>
      </trkpt>
      <trkpt lat="36.88178" lon="28.43596">
        <ele>51.4</ele>
      </trkpt>
      <trkpt lat="36.88195" lon="28.43709">
        <ele>44.7</ele>
      </trkpt>
      <trkpt lat="36.88189" lon="28.43874">
        <ele>35.7</ele>
      </trkpt>
      <trkpt lat="36.88201" lon="28.4397">
        <ele>26.6</ele>
      </trkpt>
      <trkpt lat="36.88132" lon="28.44123">
        <ele>23.6</ele>
      </trkpt>
      <trkpt lat="36.88124" lon="28.44195">
        <ele>15.7</ele>
      </trkpt>
      <trkpt lat="36.88205" lon="28.44227">
        <ele>8.9</ele>
      </trkpt>
      <trkpt lat="36.88251" lon="28.44256">
        <ele>8.7</ele>
      </trkpt>
      <trkpt lat="36.883" lon="28.4437">
        <ele>7.9</ele>
      </trkpt>
      <trkpt lat="36.88393" lon="28.445">
        <ele>16.8</ele>
      </trkpt>
      <trkpt lat="36.88438" lon="28.44589">
        <ele>18.8</ele>
      </trkpt>
      <trkpt lat="36.8843" lon="28.44764">
        <ele>14.4</ele>
      </trkpt>
      <trkpt lat="36.88426" lon="28.44868">
        <ele>15.9</ele>
      </trkpt>
      <trkpt lat="36.88397" lon="28.44956">
        <ele>12.7</ele>
      </trkpt>
      <trkpt lat="36.88395" lon="28.4504">
        <ele>17.6</ele>
      </trkpt>
      <trkpt lat="36.88346" lon="28.45109">
        <ele>12.8</ele>
      </trkpt>
      <trkpt lat="36.88336" lon="28.45185">
        <ele>12.3</ele>
      </trkpt>
      <trkpt lat="36.88369" lon="28.4536">
        <ele>12.7</ele>
      </trkpt>
      <trkpt lat="36.88438" lon="28.45471">
        <ele>10.5</ele>
      </trkpt>
      <trkpt lat="36.8849" lon="28.45521">
        <ele>11.1</ele>
      </trkpt>
      <trkpt lat="36.88511" lon="28.4558">
        <ele>11.8</ele>
      </trkpt>
      <trkpt lat="36.88585" lon="28.45641">
        <ele>14.9</ele>
      </trkpt>
      <trkpt lat="36.88638" lon="28.45621">
        <ele>20.6</ele>
      </trkpt>
      <trkpt lat="36.88678" lon="28.45621">
        <ele>19.9</ele>
      </trkpt>
      <trkpt lat="36.88725" lon="28.45717">
        <ele>6.5</ele>
      </trkpt>
      <trkpt lat="36.88774" lon="28.4584">
        <ele>9.6</ele>
      </trkpt>
      <trkpt lat="36.88788" lon="28.45981">
        <ele>7.4</ele>
      </trkpt>
      <trkpt lat="36.88743" lon="28.4625">
        <ele>13.5</ele>
      </trkpt>
      <trkpt lat="36.88676" lon="28.46305">
        <ele>20.1</ele>
      </trkpt>
      <trkpt lat="36.8855" lon="28.46342">
        <ele>16.8</ele>
      </trkpt>
      <trkpt lat="36.88457" lon="28.46384">
        <ele>21.1</ele>
      </trkpt>
      <trkpt lat="36.88388" lon="28.46374">
        <ele>23.8</ele>
      </trkpt>
      <trkpt lat="36.88377" lon="28.46313">
        <ele>15.8</ele>
      </trkpt>
      <trkpt lat="36.88316" lon="28.46296">
        <ele>17.2</ele>
      </trkpt>
      <trkpt lat="36.88229" lon="28.46247">
        <ele>11.4</ele>
      </trkpt>
      <trkpt lat="36.88113" lon="28.46262">
        <ele>17.3</ele>
      </trkpt>
      <trkpt lat="36.88038" lon="28.46248">
        <ele>11.2</ele>
      </trkpt>
      <trkpt lat="36.8792" lon="28.463">
        <ele>18.8</ele>
      </trkpt>
      <trkpt lat="36.87759" lon="28.46404">
        <ele>14.7</ele>
      </trkpt>
      <trkpt lat="36.87704" lon="28.4654">
        <ele>25.4</ele>
      </trkpt>
      <trkpt lat="36.87723" lon="28.46708">
        <ele>25.8</ele>
      </trkpt>
      <trkpt lat="36.87682" lon="28.46829">
        <ele>18</ele>
      </trkpt>
      <trkpt lat="36.87664" lon="28.46907">
        <ele>14.7</ele>
      </trkpt>
      <trkpt lat="36.87676" lon="28.46978">
        <ele>14.7</ele>
      </trkpt>
      <trkpt lat="36.87739" lon="28.47091">
        <ele>18.4</ele>
      </trkpt>
      <trkpt lat="36.87707" lon="28.47385">
        <ele>12.3</ele>
      </trkpt>
      <trkpt lat="36.8764" lon="28.4753">
        <ele>8.6</ele>
      </trkpt>
      <trkpt lat="36.87542" lon="28.47554">
        <ele>7.3</ele>
      </trkpt>
      <trkpt lat="36.87349" lon="28.47633">
        <ele>15.6</ele>
      </trkpt>
      <trkpt lat="36.87304" lon="28.47877">
        <ele>12</ele>
      </trkpt>
      <trkpt lat="36.87208" lon="28.48442">
        <ele>18.5</ele>
      </trkpt>
      <trkpt lat="36.87155" lon="28.48937">
        <ele>25.7</ele>
      </trkpt>
      <trkpt lat="36.87102" lon="28.49414">
        <ele>39.9</ele>
      </trkpt>
      <trkpt lat="36.87086" lon="28.49473">
        <ele>41.1</ele>
      </trkpt>
      <trkpt lat="36.8708" lon="28.49697">
        <ele>39.2</ele>
      </trkpt>
      <trkpt lat="36.86966" lon="28.49941">
        <ele>46.5</ele>
      </trkpt>
      <trkpt lat="36.86889" lon="28.50132">
        <ele>54.6</ele>
      </trkpt>
      <trkpt lat="36.86857" lon="28.50405">
        <ele>61.8</ele>
      </trkpt>
      <trkpt lat="36.86832" lon="28.50681">
        <ele>75.6</ele>
      </trkpt>
      <trkpt lat="36.86867" lon="28.50898">
        <ele>87.1</ele>
      </trkpt>
      <trkpt lat="36.86849" lon="28.51086">
        <ele>89.3</ele>
      </trkpt>
      <trkpt lat="36.86863" lon="28.51214">
        <ele>89.2</ele>
      </trkpt>
      <trkpt lat="36.86854" lon="28.51341">
        <ele>91.7</ele>
      </trkpt>
      <trkpt lat="36.86874" lon="28.51437">
        <ele>100.2</ele>
      </trkpt>
      <trkpt lat="36.86902" lon="28.51494">
        <ele>106.8</ele>
      </trkpt>
      <trkpt lat="36.8687" lon="28.51629">
        <ele>117.8</ele>
      </trkpt>
      <trkpt lat="36.86822" lon="28.51688">
        <ele>117.2</ele>
      </trkpt>
      <trkpt lat="36.86787" lon="28.5171">
        <ele>118.9</ele>
      </trkpt>
      <trkpt lat="36.86745" lon="28.51779">
        <ele>124.1</ele>
      </trkpt>
      <trkpt lat="36.86741" lon="28.51813">
        <ele>129.9</ele>
      </trkpt>
      <trkpt lat="36.86712" lon="28.51846">
        <ele>130</ele>
      </trkpt>
      <trkpt lat="36.86695" lon="28.51876">
        <ele>129.3</ele>
      </trkpt>
      <trkpt lat="36.8669" lon="28.51958">
        <ele>133.9</ele>
      </trkpt>
      <trkpt lat="36.86713" lon="28.52006">
        <ele>144.3</ele>
      </trkpt>
      <trkpt lat="36.86711" lon="28.52046">
        <ele>149.2</ele>
      </trkpt>
      <trkpt lat="36.86693" lon="28.52081">
        <ele>148.1</ele>
      </trkpt>
      <trkpt lat="36.86692" lon="28.52139">
        <ele>153.8</ele>
      </trkpt>
      <trkpt lat="36.86673" lon="28.52159">
        <ele>148.6</ele>
      </trkpt>
      <trkpt lat="36.86664" lon="28.52218">
        <ele>149.7</ele>
      </trkpt>
      <trkpt lat="36.86668" lon="28.52309">
        <ele>154.7</ele>
      </trkpt>
      <trkpt lat="36.86673" lon="28.52382">
        <ele>158</ele>
      </trkpt>
      <trkpt lat="36.86693" lon="28.52417">
        <ele>164.3</ele>
      </trkpt>
      <trkpt lat="36.8671" lon="28.52448">
        <ele>169.4</ele>
      </trkpt>
      <trkpt lat="36.8671" lon="28.52506">
        <ele>170.2</ele>
      </trkpt>
      <trkpt lat="36.86705" lon="28.52547">
        <ele>172.2</ele>
      </trkpt>
      <trkpt lat="36.86715" lon="28.52598">
        <ele>177.1</ele>
      </trkpt>
      <trkpt lat="36.86724" lon="28.52658">
        <ele>180.9</ele>
      </trkpt>
      <trkpt lat="36.86724" lon="28.52683">
        <ele>181.6</ele>
      </trkpt>
      <trkpt lat="36.8674" lon="28.52702">
        <ele>185.2</ele>
      </trkpt>
      <trkpt lat="36.86782" lon="28.52714">
        <ele>193.3</ele>
      </trkpt>
      <trkpt lat="36.86847" lon="28.52735">
        <ele>206.2</ele>
      </trkpt>
      <trkpt lat="36.86855" lon="28.52752">
        <ele>209</ele>
      </trkpt>
      <trkpt lat="36.86844" lon="28.52771">
        <ele>208.7</ele>
      </trkpt>
      <trkpt lat="36.868" lon="28.52782">
        <ele>202.2</ele>
      </trkpt>
      <trkpt lat="36.86774" lon="28.52808">
        <ele>201.5</ele>
      </trkpt>
      <trkpt lat="36.86798" lon="28.52905">
        <ele>214.4</ele>
      </trkpt>
      <trkpt lat="36.86766" lon="28.52969">
        <ele>212.2</ele>
      </trkpt>
      <trkpt lat="36.86769" lon="28.53034">
        <ele>216.2</ele>
      </trkpt>
      <trkpt lat="36.86792" lon="28.53061">
        <ele>224.6</ele>
      </trkpt>
      <trkpt lat="36.86826" lon="28.53169">
        <ele>241.8</ele>
      </trkpt>
      <trkpt lat="36.86812" lon="28.53184">
        <ele>242.3</ele>
      </trkpt>
      <trkpt lat="36.86774" lon="28.53189">
        <ele>234.6</ele>
      </trkpt>
      <trkpt lat="36.86753" lon="28.53244">
        <ele>240.7</ele>
      </trkpt>
      <trkpt lat="36.86757" lon="28.53278">
        <ele>247</ele>
      </trkpt>
      <trkpt lat="36.86744" lon="28.53301">
        <ele>245.1</ele>
      </trkpt>
      <trkpt lat="36.86726" lon="28.53326">
        <ele>240.2</ele>
      </trkpt>
      <trkpt lat="36.86728" lon="28.53371">
        <ele>243.8</ele>
      </trkpt>
      <trkpt lat="36.8674" lon="28.53416">
        <ele>250.4</ele>
      </trkpt>
      <trkpt lat="36.86733" lon="28.53444">
        <ele>249.2</ele>
      </trkpt>
      <trkpt lat="36.86742" lon="28.53493">
        <ele>252.9</ele>
      </trkpt>
      <trkpt lat="36.86751" lon="28.53554">
        <ele>255.8</ele>
      </trkpt>
      <trkpt lat="36.86783" lon="28.53619">
        <ele>272.2</ele>
      </trkpt>
      <trkpt lat="36.86784" lon="28.53729">
        <ele>278.5</ele>
      </trkpt>
      <trkpt lat="36.86788" lon="28.53742">
        <ele>279.9</ele>
      </trkpt>
      <trkpt lat="36.86773" lon="28.53756">
        <ele>278.3</ele>
      </trkpt>
      <trkpt lat="36.86736" lon="28.53756">
        <ele>272.7</ele>
      </trkpt>
      <trkpt lat="36.86718" lon="28.53806">
        <ele>278.8</ele>
      </trkpt>
      <trkpt lat="36.86705" lon="28.53812">
        <ele>278.4</ele>
      </trkpt>
      <trkpt lat="36.86654" lon="28.53818">
        <ele>273</ele>
      </trkpt>
      <trkpt lat="36.86639" lon="28.53853">
        <ele>273.5</ele>
      </trkpt>
      <trkpt lat="36.86639" lon="28.54004">
        <ele>288.7</ele>
      </trkpt>
      <trkpt lat="36.86654" lon="28.54058">
        <ele>298</ele>
      </trkpt>
      <trkpt lat="36.86657" lon="28.54127">
        <ele>306.8</ele>
      </trkpt>
      <trkpt lat="36.86607" lon="28.54245">
        <ele>310.6</ele>
      </trkpt>
      <trkpt lat="36.86583" lon="28.543">
        <ele>316</ele>
      </trkpt>
      <trkpt lat="36.86556" lon="28.54303">
        <ele>316.4</ele>
      </trkpt>
      <trkpt lat="36.86532" lon="28.54311">
        <ele>317.3</ele>
      </trkpt>
      <trkpt lat="36.86511" lon="28.54294">
        <ele>314.6</ele>
      </trkpt>
      <trkpt lat="36.86525" lon="28.54243">
        <ele>307.6</ele>
      </trkpt>
      <trkpt lat="36.86517" lon="28.54198">
        <ele>306.6</ele>
      </trkpt>
      <trkpt lat="36.86489" lon="28.54128">
        <ele>307.6</ele>
      </trkpt>
      <trkpt lat="36.86467" lon="28.54108">
        <ele>308.8</ele>
      </trkpt>
      <trkpt lat="36.86426" lon="28.54109">
        <ele>317.7</ele>
      </trkpt>
      <trkpt lat="36.86382" lon="28.54132">
        <ele>324.7</ele>
      </trkpt>
      <trkpt lat="36.86337" lon="28.54129">
        <ele>321.2</ele>
      </trkpt>
      <trkpt lat="36.86296" lon="28.54154">
        <ele>333.4</ele>
      </trkpt>
      <trkpt lat="36.86245" lon="28.54093">
        <ele>326.2</ele>
      </trkpt>
      <trkpt lat="36.86215" lon="28.54082">
        <ele>334</ele>
      </trkpt>
      <trkpt lat="36.86209" lon="28.5406">
        <ele>338.5</ele>
      </trkpt>
      <trkpt lat="36.86248" lon="28.53991">
        <ele>326.5</ele>
      </trkpt>
      <trkpt lat="36.86263" lon="28.53915">
        <ele>330.6</ele>
      </trkpt>
      <trkpt lat="36.86282" lon="28.53838">
        <ele>332.5</ele>
      </trkpt>
      <trkpt lat="36.86283" lon="28.53804">
        <ele>337.4</ele>
      </trkpt>
      <trkpt lat="36.86299" lon="28.53773">
        <ele>333.5</ele>
      </trkpt>
      <trkpt lat="36.86301" lon="28.53705">
        <ele>341.5</ele>
      </trkpt>
      <trkpt lat="36.86329" lon="28.5364">
        <ele>333.1</ele>
      </trkpt>
      <trkpt lat="36.86304" lon="28.53593">
        <ele>334.5</ele>
      </trkpt>
      <trkpt lat="36.86268" lon="28.53584">
        <ele>338.4</ele>
      </trkpt>
      <trkpt lat="36.86234" lon="28.53552">
        <ele>331.8</ele>
      </trkpt>
      <trkpt lat="36.86191" lon="28.53549">
        <ele>338.2</ele>
      </trkpt>
      <trkpt lat="36.86171" lon="28.53516">
        <ele>327.9</ele>
      </trkpt>
      <trkpt lat="36.86071" lon="28.53496">
        <ele>326.5</ele>
      </trkpt>
      <trkpt lat="36.86051" lon="28.53462">
        <ele>323.9</ele>
      </trkpt>
      <trkpt lat="36.86029" lon="28.53472">
        <ele>322.4</ele>
      </trkpt>
      <trkpt lat="36.86047" lon="28.53577">
        <ele>327.6</ele>
      </trkpt>
      <trkpt lat="36.86026" lon="28.53599">
        <ele>318.9</ele>
      </trkpt>
      <trkpt lat="36.85987" lon="28.53704">
        <ele>302.6</ele>
      </trkpt>
      <trkpt lat="36.86008" lon="28.53753">
        <ele>311.3</ele>
      </trkpt>
      <trkpt lat="36.85978" lon="28.538">
        <ele>294.7</ele>
      </trkpt>
      <trkpt lat="36.85988" lon="28.53854">
        <ele>296.9</ele>
      </trkpt>
      <trkpt lat="36.86008" lon="28.53902">
        <ele>307</ele>
      </trkpt>
      <trkpt lat="36.85954" lon="28.53958">
        <ele>278.9</ele>
      </trkpt>
      <trkpt lat="36.85968" lon="28.54018">
        <ele>287.1</ele>
      </trkpt>
      <trkpt lat="36.85961" lon="28.54083">
        <ele>284</ele>
      </trkpt>
      <trkpt lat="36.85919" lon="28.54116">
        <ele>265.1</ele>
      </trkpt>
      <trkpt lat="36.85923" lon="28.5417">
        <ele>271.4</ele>
      </trkpt>
      <trkpt lat="36.85902" lon="28.54248">
        <ele>275.1</ele>
      </trkpt>
      <trkpt lat="36.8587" lon="28.54253">
        <ele>277.2</ele>
      </trkpt>
      <trkpt lat="36.85825" lon="28.54179">
        <ele>253.9</ele>
      </trkpt>
      <trkpt lat="36.85794" lon="28.54097">
        <ele>240.9</ele>
      </trkpt>
      <trkpt lat="36.85768" lon="28.54081">
        <ele>238.6</ele>
      </trkpt>
      <trkpt lat="36.85728" lon="28.54095">
        <ele>234.5</ele>
      </trkpt>
      <trkpt lat="36.85632" lon="28.54238">
        <ele>227.2</ele>
      </trkpt>
      <trkpt lat="36.85597" lon="28.54282">
        <ele>218.8</ele>
      </trkpt>
      <trkpt lat="36.85554" lon="28.54327">
        <ele>208.7</ele>
      </trkpt>
      <trkpt lat="36.85552" lon="28.54412">
        <ele>202</ele>
      </trkpt>
      <trkpt lat="36.85566" lon="28.54511">
        <ele>204.6</ele>
      </trkpt>
      <trkpt lat="36.85511" lon="28.54595">
        <ele>198.1</ele>
      </trkpt>
      <trkpt lat="36.85418" lon="28.54661">
        <ele>185.6</ele>
      </trkpt>
      <trkpt lat="36.85316" lon="28.54787">
        <ele>173.5</ele>
      </trkpt>
      <trkpt lat="36.85259" lon="28.5479">
        <ele>165.2</ele>
      </trkpt>
      <trkpt lat="36.85223" lon="28.54742">
        <ele>156.2</ele>
      </trkpt>
      <trkpt lat="36.85216" lon="28.54705">
        <ele>154.5</ele>
      </trkpt>
      <trkpt lat="36.85209" lon="28.54671">
        <ele>153.2</ele>
      </trkpt>
      <trkpt lat="36.85188" lon="28.54623">
        <ele>147.2</ele>
      </trkpt>
      <trkpt lat="36.85173" lon="28.54592">
        <ele>144.4</ele>
      </trkpt>
      <trkpt lat="36.85149" lon="28.54562">
        <ele>141.6</ele>
      </trkpt>
      <trkpt lat="36.85119" lon="28.54538">
        <ele>139.6</ele>
      </trkpt>
      <trkpt lat="36.85046" lon="28.54512">
        <ele>135.4</ele>
      </trkpt>
      <trkpt lat="36.85008" lon="28.54507">
        <ele>132.6</ele>
      </trkpt>
      <trkpt lat="36.84952" lon="28.54512">
        <ele>121.2</ele>
      </trkpt>
      <trkpt lat="36.84889" lon="28.54555">
        <ele>113.3</ele>
      </trkpt>
      <trkpt lat="36.8486" lon="28.54636">
        <ele>107.6</ele>
      </trkpt>
      <trkpt lat="36.84877" lon="28.54753">
        <ele>99</ele>
      </trkpt>
      <trkpt lat="36.84883" lon="28.54778">
        <ele>100.3</ele>
      </trkpt>
      <trkpt lat="36.84873" lon="28.54804">
        <ele>98.5</ele>
      </trkpt>
      <trkpt lat="36.84856" lon="28.54803">
        <ele>95</ele>
      </trkpt>
      <trkpt lat="36.84736" lon="28.54903">
        <ele>78.4</ele>
      </trkpt>
      <trkpt lat="36.84685" lon="28.54903">
        <ele>69.1</ele>
      </trkpt>
      <trkpt lat="36.84646" lon="28.54934">
        <ele>64.4</ele>
      </trkpt>
      <trkpt lat="36.8462" lon="28.55029">
        <ele>62.4</ele>
      </trkpt>
      <trkpt lat="36.84566" lon="28.55118">
        <ele>54.2</ele>
      </trkpt>
      <trkpt lat="36.84499" lon="28.5516">
        <ele>47.5</ele>
      </trkpt>
      <trkpt lat="36.84474" lon="28.55177">
        <ele>45.5</ele>
      </trkpt>
      <trkpt lat="36.84447" lon="28.55217">
        <ele>43.4</ele>
      </trkpt>
      <trkpt lat="36.84386" lon="28.55202">
        <ele>37.7</ele>
      </trkpt>
      <trkpt lat="36.84316" lon="28.55136">
        <ele>31.8</ele>
      </trkpt>
      <trkpt lat="36.84236" lon="28.55098">
        <ele>32</ele>
      </trkpt>
      <trkpt lat="36.84147" lon="28.55019">
        <ele>30</ele>
      </trkpt>
      <trkpt lat="36.84079" lon="28.55026">
        <ele>29.2</ele>
      </trkpt>
      <trkpt lat="36.83924" lon="28.54987">
        <ele>22.9</ele>
      </trkpt>
      <trkpt lat="36.83701" lon="28.54969">
        <ele>16.8</ele>
      </trkpt>
      <trkpt lat="36.83625" lon="28.54963">
        <ele>14.3</ele>
      </trkpt>
      <trkpt lat="36.8354" lon="28.55">
        <ele>9.5</ele>
      </trkpt>
      <trkpt lat="36.83543" lon="28.55011">
        <ele>9.2</ele>
      </trkpt>
      <trkpt lat="36.8356" lon="28.55055">
        <ele>8.1</ele>
      </trkpt>
      <trkpt lat="36.83564" lon="28.55093">
        <ele>7.6</ele>
      </trkpt>
      <trkpt lat="36.83556" lon="28.55121">
        <ele>7.8</ele>
      </trkpt>
      <trkpt lat="36.8356" lon="28.55165">
        <ele>8.4</ele>
      </trkpt>
      <trkpt lat="36.83581" lon="28.5521">
        <ele>8</ele>
      </trkpt>
      <trkpt lat="36.83593" lon="28.55262">
        <ele>7.5</ele>
      </trkpt>
      <trkpt lat="36.83592" lon="28.55367">
        <ele>10</ele>
      </trkpt>
      <trkpt lat="36.836" lon="28.5545">
        <ele>12.2</ele>
      </trkpt>
      <trkpt lat="36.83601" lon="28.55482">
        <ele>13.1</ele>
      </trkpt>
      <trkpt lat="36.8358" lon="28.55508">
        <ele>13.1</ele>
      </trkpt>
      <trkpt lat="36.83553" lon="28.55561">
        <ele>13.2</ele>
      </trkpt>
      <trkpt lat="36.83543" lon="28.55593">
        <ele>13.3</ele>
      </trkpt>
      <trkpt lat="36.83544" lon="28.55597">
        <ele>13.4</ele>
      </trkpt>
      <trkpt lat="36.83545" lon="28.55627">
        <ele>14</ele>
      </trkpt>
      <trkpt lat="36.83535" lon="28.55705">
        <ele>14.2</ele>
      </trkpt>
      <trkpt lat="36.83524" lon="28.55729">
        <ele>13.9</ele>
      </trkpt>
      <trkpt lat="36.83502" lon="28.5573">
        <ele>13.1</ele>
      </trkpt>
      <trkpt lat="36.83489" lon="28.55721">
        <ele>12.5</ele>
      </trkpt>
      <trkpt lat="36.83475" lon="28.55719">
        <ele>11.8</ele>
      </trkpt>
      <trkpt lat="36.83456" lon="28.55748">
        <ele>10.9</ele>
      </trkpt>
      <trkpt lat="36.8344" lon="28.55777">
        <ele>12.4</ele>
      </trkpt>
      <trkpt lat="36.83409" lon="28.55798">
        <ele>13.8</ele>
      </trkpt>
      <trkpt lat="36.83369" lon="28.5581">
        <ele>12.7</ele>
      </trkpt>
      <trkpt lat="36.83317" lon="28.55825">
        <ele>10.6</ele>
      </trkpt>
      <trkpt lat="36.83317" lon="28.55847">
        <ele>15.8</ele>
      </trkpt>
      <trkpt lat="36.8329" lon="28.55871">
        <ele>17.6</ele>
      </trkpt>
      <trkpt lat="36.83263" lon="28.55886">
        <ele>14.9</ele>
      </trkpt>
      <trkpt lat="36.83251" lon="28.55909">
        <ele>15.3</ele>
      </trkpt>
      <trkpt lat="36.83252" lon="28.55915">
        <ele>16.3</ele>
      </trkpt>
      <trkpt lat="36.83253" lon="28.55918">
        <ele>17.2</ele>
      </trkpt>
      <trkpt lat="36.83251" lon="28.55921">
        <ele>17.9</ele>
      </trkpt>
      <trkpt lat="36.83239" lon="28.55942">
        <ele>22.9</ele>
      </trkpt>
      <trkpt lat="36.83213" lon="28.55975">
        <ele>30</ele>
      </trkpt>
      <trkpt lat="36.83189" lon="28.55995">
        <ele>32.9</ele>
      </trkpt>
      <trkpt lat="36.83177" lon="28.56004">
        <ele>33.9</ele>
      </trkpt>
      <trkpt lat="36.83173" lon="28.56009">
        <ele>35</ele>
      </trkpt>
      <trkpt lat="36.83148" lon="28.56002">
        <ele>32.3</ele>
      </trkpt>
      <trkpt lat="36.83122" lon="28.55985">
        <ele>27.5</ele>
      </trkpt>
      <trkpt lat="36.83118" lon="28.55982">
        <ele>26.8</ele>
      </trkpt>
      <trkpt lat="36.8311" lon="28.55981">
        <ele>26.5</ele>
      </trkpt>
      <trkpt lat="36.83109" lon="28.55982">
        <ele>27.1</ele>
      </trkpt>
      <trkpt lat="36.8309" lon="28.55985">
        <ele>28.6</ele>
      </trkpt>
      <trkpt lat="36.83071" lon="28.56001">
        <ele>35.9</ele>
      </trkpt>
      <trkpt lat="36.8305" lon="28.55998">
        <ele>37.3</ele>
      </trkpt>
      <trkpt lat="36.83041" lon="28.55979">
        <ele>31.1</ele>
      </trkpt>
      <trkpt lat="36.83036" lon="28.5597">
        <ele>28.2</ele>
      </trkpt>
      <trkpt lat="36.83016" lon="28.55953">
        <ele>23.6</ele>
      </trkpt>
      <trkpt lat="36.82991" lon="28.5595">
        <ele>22.3</ele>
      </trkpt>
      <trkpt lat="36.82966" lon="28.55972">
        <ele>27.1</ele>
      </trkpt>
      <trkpt lat="36.82965" lon="28.55992">
        <ele>34.1</ele>
      </trkpt>
      <trkpt lat="36.8295" lon="28.56021">
        <ele>43.3</ele>
      </trkpt>
      <trkpt lat="36.82922" lon="28.5604">
        <ele>46.1</ele>
      </trkpt>
      <trkpt lat="36.82864" lon="28.56055">
        <ele>38.5</ele>
      </trkpt>
      <trkpt lat="36.82813" lon="28.56061">
        <ele>27.4</ele>
      </trkpt>
      <trkpt lat="36.82797" lon="28.56076">
        <ele>26.1</ele>
      </trkpt>
      <trkpt lat="36.8278" lon="28.56113">
        <ele>22.5</ele>
      </trkpt>
      <trkpt lat="36.82778" lon="28.56142">
        <ele>23.2</ele>
      </trkpt>
      <trkpt lat="36.82789" lon="28.56186">
        <ele>27.7</ele>
      </trkpt>
      <trkpt lat="36.82816" lon="28.56222">
        <ele>33.9</ele>
      </trkpt>
      <trkpt lat="36.82822" lon="28.56227">
        <ele>35.2</ele>
      </trkpt>
      <trkpt lat="36.82834" lon="28.56263">
        <ele>35</ele>
      </trkpt>
      <trkpt lat="36.8283" lon="28.56304">
        <ele>32.7</ele>
      </trkpt>
      <trkpt lat="36.8282" lon="28.56354">
        <ele>30.6</ele>
      </trkpt>
      <trkpt lat="36.82802" lon="28.56399">
        <ele>28</ele>
      </trkpt>
      <trkpt lat="36.82839" lon="28.56496">
        <ele>44.3</ele>
      </trkpt>
      <trkpt lat="36.82828" lon="28.56509">
        <ele>37.9</ele>
      </trkpt>
      <trkpt lat="36.82813" lon="28.56528">
        <ele>32.7</ele>
      </trkpt>
      <trkpt lat="36.828" lon="28.56543">
        <ele>29</ele>
      </trkpt>
      <trkpt lat="36.82785" lon="28.56561">
        <ele>24.9</ele>
      </trkpt>
      <trkpt lat="36.82778" lon="28.56569">
        <ele>23.3</ele>
      </trkpt>
      <trkpt lat="36.82769" lon="28.56579">
        <ele>21.4</ele>
      </trkpt>
      <trkpt lat="36.82754" lon="28.56597">
        <ele>19.1</ele>
      </trkpt>
      <trkpt lat="36.82751" lon="28.56602">
        <ele>18.8</ele>
      </trkpt>
      <trkpt lat="36.82748" lon="28.56598">
        <ele>18.3</ele>
      </trkpt>
      <trkpt lat="36.82744" lon="28.5661">
        <ele>19.4</ele>
      </trkpt>
      <trkpt lat="36.82737" lon="28.56618">
        <ele>20.3</ele>
      </trkpt>
      <trkpt lat="36.82723" lon="28.56635">
        <ele>22.4</ele>
      </trkpt>
      <trkpt lat="36.82666" lon="28.56599">
        <ele>20.7</ele>
      </trkpt>
      <trkpt lat="36.82653" lon="28.5659">
        <ele>20.3</ele>
      </trkpt>
      <trkpt lat="36.82641" lon="28.5658">
        <ele>19.1</ele>
      </trkpt>
      <trkpt lat="36.82622" lon="28.56566">
        <ele>17.2</ele>
      </trkpt>
      <trkpt lat="36.82619" lon="28.56569">
        <ele>17.6</ele>
      </trkpt>
      <trkpt lat="36.82611" lon="28.56551">
        <ele>14.5</ele>
      </trkpt>
      <trkpt lat="36.8261" lon="28.56551">
        <ele>14.4</ele>
      </trkpt>
      <trkpt lat="36.82607" lon="28.5655">
        <ele>14.3</ele>
      </trkpt>
      <trkpt lat="36.82609" lon="28.5655">
        <ele>14.3</ele>
      </trkpt>
      <trkpt lat="36.82598" lon="28.56553">
        <ele>14.7</ele>
      </trkpt>
      <trkpt lat="36.82593" lon="28.56556">
        <ele>15.1</ele>
      </trkpt>
      <trkpt lat="36.8258" lon="28.5656">
        <ele>15.9</ele>
      </trkpt>
      <trkpt lat="36.82564" lon="28.56566">
        <ele>16.7</ele>
      </trkpt>
      <trkpt lat="36.82562" lon="28.56571">
        <ele>17.9</ele>
      </trkpt>
      <trkpt lat="36.82561" lon="28.56568">
        <ele>17.1</ele>
      </trkpt>
      <trkpt lat="36.82561" lon="28.56571">
        <ele>17.7</ele>
      </trkpt>
      <trkpt lat="36.82559" lon="28.56575">
        <ele>18.5</ele>
      </trkpt>
      <trkpt lat="36.82559" lon="28.56579">
        <ele>19.4</ele>
      </trkpt>
      <trkpt lat="36.82555" lon="28.56585">
        <ele>21</ele>
      </trkpt>
      <trkpt lat="36.82554" lon="28.56591">
        <ele>23</ele>
      </trkpt>
      <trkpt lat="36.82553" lon="28.56594">
        <ele>24</ele>
      </trkpt>
      <trkpt lat="36.82554" lon="28.56591">
        <ele>22.8</ele>
      </trkpt>
      <trkpt lat="36.82544" lon="28.56596">
        <ele>24.5</ele>
      </trkpt>
      <trkpt lat="36.82538" lon="28.56608">
        <ele>28.5</ele>
      </trkpt>
      <trkpt lat="36.82536" lon="28.56609">
        <ele>28.7</ele>
      </trkpt>
      <trkpt lat="36.82519" lon="28.56616">
        <ele>31.6</ele>
      </trkpt>
      <trkpt lat="36.82503" lon="28.56619">
        <ele>32.8</ele>
      </trkpt>
      <trkpt lat="36.82486" lon="28.56625">
        <ele>32.8</ele>
      </trkpt>
      <trkpt lat="36.82483" lon="28.56628">
        <ele>33.2</ele>
      </trkpt>
      <trkpt lat="36.82473" lon="28.5663">
        <ele>32.3</ele>
      </trkpt>
      <trkpt lat="36.82463" lon="28.56632">
        <ele>31.5</ele>
      </trkpt>
      <trkpt lat="36.82458" lon="28.56636">
        <ele>32</ele>
      </trkpt>
      <trkpt lat="36.82453" lon="28.56641">
        <ele>33.1</ele>
      </trkpt>
      <trkpt lat="36.82449" lon="28.56648">
        <ele>34.8</ele>
      </trkpt>
      <trkpt lat="36.82437" lon="28.56659">
        <ele>36.1</ele>
      </trkpt>
      <trkpt lat="36.82425" lon="28.56671">
        <ele>38.6</ele>
      </trkpt>
      <trkpt lat="36.82421" lon="28.5668">
        <ele>42</ele>
      </trkpt>
      <trkpt lat="36.82412" lon="28.5669">
        <ele>44.9</ele>
      </trkpt>
      <trkpt lat="36.82411" lon="28.56692">
        <ele>46</ele>
      </trkpt>
      <trkpt lat="36.82406" lon="28.56702">
        <ele>49.5</ele>
      </trkpt>
      <trkpt lat="36.82405" lon="28.56703">
        <ele>50.1</ele>
      </trkpt>
      <trkpt lat="36.824" lon="28.56715">
        <ele>54.5</ele>
      </trkpt>
      <trkpt lat="36.82398" lon="28.56724">
        <ele>57.9</ele>
      </trkpt>
      <trkpt lat="36.82392" lon="28.56728">
        <ele>58.4</ele>
      </trkpt>
      <trkpt lat="36.82392" lon="28.5673">
        <ele>59.3</ele>
      </trkpt>
      <trkpt lat="36.82389" lon="28.56734">
        <ele>60.5</ele>
      </trkpt>
      <trkpt lat="36.82385" lon="28.56739">
        <ele>62</ele>
      </trkpt>
      <trkpt lat="36.82384" lon="28.56743">
        <ele>63.5</ele>
      </trkpt>
      <trkpt lat="36.82376" lon="28.56755">
        <ele>67.5</ele>
      </trkpt>
      <trkpt lat="36.82373" lon="28.5676">
        <ele>69.2</ele>
      </trkpt>
      <trkpt lat="36.82363" lon="28.56774">
        <ele>73.8</ele>
      </trkpt>
      <trkpt lat="36.82358" lon="28.56782">
        <ele>76.1</ele>
      </trkpt>
      <trkpt lat="36.82358" lon="28.56788">
        <ele>78.7</ele>
      </trkpt>
      <trkpt lat="36.82353" lon="28.56791">
        <ele>78.8</ele>
      </trkpt>
      <trkpt lat="36.82348" lon="28.56795">
        <ele>78.7</ele>
      </trkpt>
      <trkpt lat="36.82341" lon="28.56805">
        <ele>80.4</ele>
      </trkpt>
      <trkpt lat="36.82335" lon="28.56813">
        <ele>81.3</ele>
      </trkpt>
      <trkpt lat="36.82335" lon="28.56817">
        <ele>83.1</ele>
      </trkpt>
      <trkpt lat="36.82332" lon="28.56828">
        <ele>87.1</ele>
      </trkpt>
      <trkpt lat="36.82326" lon="28.56838">
        <ele>92.6</ele>
      </trkpt>
      <trkpt lat="36.82317" lon="28.56844">
        <ele>97.5</ele>
      </trkpt>
      <trkpt lat="36.82316" lon="28.56845">
        <ele>98.2</ele>
      </trkpt>
      <trkpt lat="36.82312" lon="28.56851">
        <ele>102.1</ele>
      </trkpt>
      <trkpt lat="36.82301" lon="28.5685">
        <ele>102.2</ele>
      </trkpt>
      <trkpt lat="36.82294" lon="28.56832">
        <ele>93.6</ele>
      </trkpt>
      <trkpt lat="36.8229" lon="28.5682">
        <ele>88.9</ele>
      </trkpt>
      <trkpt lat="36.82288" lon="28.56816">
        <ele>87.5</ele>
      </trkpt>
      <trkpt lat="36.82281" lon="28.56804">
        <ele>83.2</ele>
      </trkpt>
      <trkpt lat="36.82279" lon="28.56798">
        <ele>80.9</ele>
      </trkpt>
      <trkpt lat="36.82276" lon="28.56797">
        <ele>80.8</ele>
      </trkpt>
      <trkpt lat="36.82274" lon="28.56798">
        <ele>81.5</ele>
      </trkpt>
      <trkpt lat="36.82271" lon="28.56801">
        <ele>83.2</ele>
      </trkpt>
      <trkpt lat="36.82271" lon="28.56803">
        <ele>84.1</ele>
      </trkpt>
      <trkpt lat="36.82272" lon="28.5681">
        <ele>86.8</ele>
      </trkpt>
      <trkpt lat="36.82265" lon="28.56809">
        <ele>87.3</ele>
      </trkpt>
      <trkpt lat="36.82261" lon="28.56809">
        <ele>88</ele>
      </trkpt>
      <trkpt lat="36.8226" lon="28.56808">
        <ele>87.5</ele>
      </trkpt>
      <trkpt lat="36.82266" lon="28.56823">
        <ele>93.2</ele>
      </trkpt>
      <trkpt lat="36.82266" lon="28.5682">
        <ele>92.1</ele>
      </trkpt>
      <trkpt lat="36.82263" lon="28.56823">
        <ele>93.6</ele>
      </trkpt>
      <trkpt lat="36.82259" lon="28.56821">
        <ele>93.3</ele>
      </trkpt>
      <trkpt lat="36.82255" lon="28.56821">
        <ele>93.9</ele>
      </trkpt>
      <trkpt lat="36.82249" lon="28.56823">
        <ele>95.6</ele>
      </trkpt>
      <trkpt lat="36.82245" lon="28.56824">
        <ele>96.8</ele>
      </trkpt>
      <trkpt lat="36.8224" lon="28.56821">
        <ele>96.7</ele>
      </trkpt>
      <trkpt lat="36.82244" lon="28.56822">
        <ele>96.5</ele>
      </trkpt>
      <trkpt lat="36.82239" lon="28.56825">
        <ele>98.7</ele>
      </trkpt>
      <trkpt lat="36.82238" lon="28.56827">
        <ele>99.7</ele>
      </trkpt>
      <trkpt lat="36.82235" lon="28.5683">
        <ele>101.6</ele>
      </trkpt>
      <trkpt lat="36.8224" lon="28.56836">
        <ele>102.8</ele>
      </trkpt>
      <trkpt lat="36.8224" lon="28.56836">
        <ele>102.9</ele>
      </trkpt>
      <trkpt lat="36.82234" lon="28.56838">
        <ele>104.9</ele>
      </trkpt>
      <trkpt lat="36.82228" lon="28.56838">
        <ele>106.2</ele>
      </trkpt>
      <trkpt lat="36.82228" lon="28.56839">
        <ele>106.5</ele>
      </trkpt>
      <trkpt lat="36.82231" lon="28.56841">
        <ele>106.9</ele>
      </trkpt>
      <trkpt lat="36.8224" lon="28.56845">
        <ele>107.1</ele>
      </trkpt>
      <trkpt lat="36.82239" lon="28.56846">
        <ele>107.6</ele>
      </trkpt>
      <trkpt lat="36.82232" lon="28.56849">
        <ele>110</ele>
      </trkpt>
      <trkpt lat="36.82231" lon="28.5685">
        <ele>110.7</ele>
      </trkpt>
      <trkpt lat="36.82231" lon="28.56851">
        <ele>111.2</ele>
      </trkpt>
      <trkpt lat="36.82226" lon="28.56855">
        <ele>113.4</ele>
      </trkpt>
      <trkpt lat="36.82224" lon="28.56854">
        <ele>113.3</ele>
      </trkpt>
      <trkpt lat="36.82224" lon="28.56859">
        <ele>115.4</ele>
      </trkpt>
      <trkpt lat="36.82216" lon="28.56863">
        <ele>118.5</ele>
      </trkpt>
      <trkpt lat="36.82209" lon="28.56866">
        <ele>120.6</ele>
      </trkpt>
      <trkpt lat="36.82202" lon="28.56875">
        <ele>125.2</ele>
      </trkpt>
      <trkpt lat="36.822" lon="28.56878">
        <ele>126.7</ele>
      </trkpt>
      <trkpt lat="36.82193" lon="28.56877">
        <ele>126.9</ele>
      </trkpt>
      <trkpt lat="36.82189" lon="28.56878">
        <ele>128</ele>
      </trkpt>
      <trkpt lat="36.82187" lon="28.56882">
        <ele>129.7</ele>
      </trkpt>
      <trkpt lat="36.82183" lon="28.5688">
        <ele>129.5</ele>
      </trkpt>
      <trkpt lat="36.82168" lon="28.56887">
        <ele>133.9</ele>
      </trkpt>
      <trkpt lat="36.82163" lon="28.56889">
        <ele>134.9</ele>
      </trkpt>
      <trkpt lat="36.82157" lon="28.56891">
        <ele>136.1</ele>
      </trkpt>
      <trkpt lat="36.82144" lon="28.56893">
        <ele>137.6</ele>
      </trkpt>
      <trkpt lat="36.82132" lon="28.56895">
        <ele>139</ele>
      </trkpt>
      <trkpt lat="36.82128" lon="28.56909">
        <ele>142.2</ele>
      </trkpt>
      <trkpt lat="36.82119" lon="28.56915">
        <ele>143.7</ele>
      </trkpt>
      <trkpt lat="36.82105" lon="28.56933">
        <ele>145.7</ele>
      </trkpt>
      <trkpt lat="36.82098" lon="28.56935">
        <ele>145.5</ele>
      </trkpt>
      <trkpt lat="36.82086" lon="28.56936">
        <ele>145.1</ele>
      </trkpt>
      <trkpt lat="36.82083" lon="28.56937">
        <ele>144.7</ele>
      </trkpt>
      <trkpt lat="36.82083" lon="28.56947">
        <ele>145.3</ele>
      </trkpt>
      <trkpt lat="36.82083" lon="28.56949">
        <ele>145.3</ele>
      </trkpt>
      <trkpt lat="36.82087" lon="28.56963">
        <ele>146.6</ele>
      </trkpt>
      <trkpt lat="36.82087" lon="28.56971">
        <ele>147.1</ele>
      </trkpt>
      <trkpt lat="36.82082" lon="28.56977">
        <ele>146.5</ele>
      </trkpt>
      <trkpt lat="36.82083" lon="28.56979">
        <ele>146.7</ele>
      </trkpt>
      <trkpt lat="36.82098" lon="28.56993">
        <ele>150.4</ele>
      </trkpt>
      <trkpt lat="36.82101" lon="28.56997">
        <ele>151.3</ele>
      </trkpt>
      <trkpt lat="36.82094" lon="28.57004">
        <ele>150.3</ele>
      </trkpt>
      <trkpt lat="36.82084" lon="28.57019">
        <ele>148.4</ele>
      </trkpt>
      <trkpt lat="36.82077" lon="28.57018">
        <ele>145.8</ele>
      </trkpt>
      <trkpt lat="36.82074" lon="28.57026">
        <ele>144.5</ele>
      </trkpt>
      <trkpt lat="36.8207" lon="28.57031">
        <ele>142.9</ele>
      </trkpt>
      <trkpt lat="36.82066" lon="28.57044">
        <ele>141.4</ele>
      </trkpt>
      <trkpt lat="36.82067" lon="28.57055">
        <ele>142.1</ele>
      </trkpt>
      <trkpt lat="36.82065" lon="28.57061">
        <ele>141.3</ele>
      </trkpt>
      <trkpt lat="36.82068" lon="28.57065">
        <ele>142.6</ele>
      </trkpt>
      <trkpt lat="36.82072" lon="28.57069">
        <ele>144.3</ele>
      </trkpt>
      <trkpt lat="36.82077" lon="28.57081">
        <ele>146.5</ele>
      </trkpt>
      <trkpt lat="36.82079" lon="28.5709">
        <ele>147.9</ele>
      </trkpt>
      <trkpt lat="36.82075" lon="28.57109">
        <ele>148.4</ele>
      </trkpt>
      <trkpt lat="36.82074" lon="28.57116">
        <ele>149</ele>
      </trkpt>
      <trkpt lat="36.82077" lon="28.57127">
        <ele>151.2</ele>
      </trkpt>
      <trkpt lat="36.82071" lon="28.57134">
        <ele>150.5</ele>
      </trkpt>
      <trkpt lat="36.82065" lon="28.57143">
        <ele>150.2</ele>
      </trkpt>
      <trkpt lat="36.82065" lon="28.57163">
        <ele>153</ele>
      </trkpt>
      <trkpt lat="36.82066" lon="28.5717">
        <ele>154.5</ele>
      </trkpt>
      <trkpt lat="36.82067" lon="28.57173">
        <ele>155.4</ele>
      </trkpt>
      <trkpt lat="36.82071" lon="28.57171">
        <ele>155.6</ele>
      </trkpt>
      <trkpt lat="36.82069" lon="28.57184">
        <ele>158.7</ele>
      </trkpt>
      <trkpt lat="36.82056" lon="28.57188">
        <ele>157</ele>
      </trkpt>
      <trkpt lat="36.82052" lon="28.57186">
        <ele>155.8</ele>
      </trkpt>
      <trkpt lat="36.82047" lon="28.57184">
        <ele>154.3</ele>
      </trkpt>
      <trkpt lat="36.82041" lon="28.57187">
        <ele>153.7</ele>
      </trkpt>
      <trkpt lat="36.82029" lon="28.5719">
        <ele>152.3</ele>
      </trkpt>
      <trkpt lat="36.82028" lon="28.57189">
        <ele>151.8</ele>
      </trkpt>
      <trkpt lat="36.82015" lon="28.57185">
        <ele>148.2</ele>
      </trkpt>
      <trkpt lat="36.82006" lon="28.57181">
        <ele>145.5</ele>
      </trkpt>
      <trkpt lat="36.82002" lon="28.57175">
        <ele>143.4</ele>
      </trkpt>
      <trkpt lat="36.81997" lon="28.57171">
        <ele>141.7</ele>
      </trkpt>
      <trkpt lat="36.81987" lon="28.57166">
        <ele>139.3</ele>
      </trkpt>
      <trkpt lat="36.81974" lon="28.57177">
        <ele>140</ele>
      </trkpt>
      <trkpt lat="36.8197" lon="28.57177">
        <ele>139.6</ele>
      </trkpt>
      <trkpt lat="36.81961" lon="28.57177">
        <ele>138.5</ele>
      </trkpt>
      <trkpt lat="36.8195" lon="28.57181">
        <ele>137.7</ele>
      </trkpt>
      <trkpt lat="36.81945" lon="28.57182">
        <ele>137.2</ele>
      </trkpt>
      <trkpt lat="36.81934" lon="28.57186">
        <ele>136.5</ele>
      </trkpt>
      <trkpt lat="36.81925" lon="28.57187">
        <ele>135.2</ele>
      </trkpt>
      <trkpt lat="36.81913" lon="28.57193">
        <ele>133.4</ele>
      </trkpt>
      <trkpt lat="36.81909" lon="28.57204">
        <ele>133.2</ele>
      </trkpt>
      <trkpt lat="36.81909" lon="28.57206">
        <ele>133.4</ele>
      </trkpt>
      <trkpt lat="36.81904" lon="28.57223">
        <ele>133.5</ele>
      </trkpt>
      <trkpt lat="36.81908" lon="28.5723">
        <ele>136.2</ele>
      </trkpt>
      <trkpt lat="36.81908" lon="28.57241">
        <ele>138.1</ele>
      </trkpt>
      <trkpt lat="36.81911" lon="28.57255">
        <ele>139.5</ele>
      </trkpt>
      <trkpt lat="36.81913" lon="28.57261">
        <ele>138.3</ele>
      </trkpt>
      <trkpt lat="36.81913" lon="28.57263">
        <ele>137.7</ele>
      </trkpt>
      <trkpt lat="36.81914" lon="28.5727">
        <ele>136.1</ele>
      </trkpt>
      <trkpt lat="36.81916" lon="28.57278">
        <ele>134.3</ele>
      </trkpt>
      <trkpt lat="36.81917" lon="28.5729">
        <ele>130.6</ele>
      </trkpt>
      <trkpt lat="36.8193" lon="28.57306">
        <ele>131.1</ele>
      </trkpt>
      <trkpt lat="36.8193" lon="28.57306">
        <ele>131</ele>
      </trkpt>
      <trkpt lat="36.81932" lon="28.57307">
        <ele>131.5</ele>
      </trkpt>
      <trkpt lat="36.81938" lon="28.57314">
        <ele>132.3</ele>
      </trkpt>
      <trkpt lat="36.8195" lon="28.57332">
        <ele>133.6</ele>
      </trkpt>
      <trkpt lat="36.81951" lon="28.57336">
        <ele>133.2</ele>
      </trkpt>
      <trkpt lat="36.81952" lon="28.57343">
        <ele>132.3</ele>
      </trkpt>
      <trkpt lat="36.81954" lon="28.57349">
        <ele>132.2</ele>
      </trkpt>
      <trkpt lat="36.81958" lon="28.57362">
        <ele>130.8</ele>
      </trkpt>
      <trkpt lat="36.81958" lon="28.57366">
        <ele>130.5</ele>
      </trkpt>
      <trkpt lat="36.81965" lon="28.57381">
        <ele>130.2</ele>
      </trkpt>
      <trkpt lat="36.81967" lon="28.57402">
        <ele>126.8</ele>
      </trkpt>
      <trkpt lat="36.81967" lon="28.57404">
        <ele>126.3</ele>
      </trkpt>
      <trkpt lat="36.81968" lon="28.57404">
        <ele>127.1</ele>
      </trkpt>
      <trkpt lat="36.8197" lon="28.57411">
        <ele>126.3</ele>
      </trkpt>
      <trkpt lat="36.81975" lon="28.57428">
        <ele>124.4</ele>
      </trkpt>
      <trkpt lat="36.81975" lon="28.57429">
        <ele>123.9</ele>
      </trkpt>
      <trkpt lat="36.8198" lon="28.57437">
        <ele>124</ele>
      </trkpt>
      <trkpt lat="36.81989" lon="28.57446">
        <ele>126.1</ele>
      </trkpt>
      <trkpt lat="36.81999" lon="28.57458">
        <ele>127.7</ele>
      </trkpt>
      <trkpt lat="36.82008" lon="28.57461">
        <ele>130.5</ele>
      </trkpt>
      <trkpt lat="36.8201" lon="28.57461">
        <ele>131.4</ele>
      </trkpt>
      <trkpt lat="36.82025" lon="28.57462">
        <ele>137.9</ele>
      </trkpt>
      <trkpt lat="36.8204" lon="28.57461">
        <ele>144.4</ele>
      </trkpt>
      <trkpt lat="36.82058" lon="28.57466">
        <ele>150.9</ele>
      </trkpt>
      <trkpt lat="36.82059" lon="28.57471">
        <ele>149.9</ele>
      </trkpt>
      <trkpt lat="36.82064" lon="28.57471">
        <ele>152</ele>
      </trkpt>
      <trkpt lat="36.82073" lon="28.57477">
        <ele>154.5</ele>
      </trkpt>
      <trkpt lat="36.82076" lon="28.57478">
        <ele>155.2</ele>
      </trkpt>
      <trkpt lat="36.8208" lon="28.57484">
        <ele>155.6</ele>
      </trkpt>
      <trkpt lat="36.82077" lon="28.57505">
        <ele>149.9</ele>
      </trkpt>
      <trkpt lat="36.82075" lon="28.57513">
        <ele>148.3</ele>
      </trkpt>
      <trkpt lat="36.82081" lon="28.57524">
        <ele>150.2</ele>
      </trkpt>
      <trkpt lat="36.82078" lon="28.57535">
        <ele>147.9</ele>
      </trkpt>
      <trkpt lat="36.82077" lon="28.5755">
        <ele>146.3</ele>
      </trkpt>
      <trkpt lat="36.82078" lon="28.57561">
        <ele>146.4</ele>
      </trkpt>
      <trkpt lat="36.82078" lon="28.57564">
        <ele>145.8</ele>
      </trkpt>
      <trkpt lat="36.82078" lon="28.57568">
        <ele>145.9</ele>
      </trkpt>
      <trkpt lat="36.82082" lon="28.57572">
        <ele>147.8</ele>
      </trkpt>
      <trkpt lat="36.82083" lon="28.57577">
        <ele>148.2</ele>
      </trkpt>
      <trkpt lat="36.82083" lon="28.57592">
        <ele>146.8</ele>
      </trkpt>
      <trkpt lat="36.82084" lon="28.57598">
        <ele>146.3</ele>
      </trkpt>
      <trkpt lat="36.82087" lon="28.5761">
        <ele>146.3</ele>
      </trkpt>
      <trkpt lat="36.82088" lon="28.57622">
        <ele>145.2</ele>
      </trkpt>
      <trkpt lat="36.82087" lon="28.57623">
        <ele>144.7</ele>
      </trkpt>
      <trkpt lat="36.82082" lon="28.57631">
        <ele>140.2</ele>
      </trkpt>
      <trkpt lat="36.82085" lon="28.57637">
        <ele>141.5</ele>
      </trkpt>
      <trkpt lat="36.82088" lon="28.57639">
        <ele>142.8</ele>
      </trkpt>
      <trkpt lat="36.82101" lon="28.57657">
        <ele>146.8</ele>
      </trkpt>
      <trkpt lat="36.82104" lon="28.5766">
        <ele>147.9</ele>
      </trkpt>
      <trkpt lat="36.82109" lon="28.57668">
        <ele>149.1</ele>
      </trkpt>
      <trkpt lat="36.82115" lon="28.57674">
        <ele>150.3</ele>
      </trkpt>
      <trkpt lat="36.82118" lon="28.57678">
        <ele>150.7</ele>
      </trkpt>
      <trkpt lat="36.82123" lon="28.57683">
        <ele>151.5</ele>
      </trkpt>
      <trkpt lat="36.82129" lon="28.5769">
        <ele>152.7</ele>
      </trkpt>
      <trkpt lat="36.82133" lon="28.57693">
        <ele>153.4</ele>
      </trkpt>
      <trkpt lat="36.82148" lon="28.57705">
        <ele>157.8</ele>
      </trkpt>
      <trkpt lat="36.82157" lon="28.57705">
        <ele>162.4</ele>
      </trkpt>
      <trkpt lat="36.82158" lon="28.57705">
        <ele>162.9</ele>
      </trkpt>
      <trkpt lat="36.82164" lon="28.5771">
        <ele>164.7</ele>
      </trkpt>
      <trkpt lat="36.82166" lon="28.57714">
        <ele>164.2</ele>
      </trkpt>
      <trkpt lat="36.82172" lon="28.57728">
        <ele>161.8</ele>
      </trkpt>
      <trkpt lat="36.82172" lon="28.5773">
        <ele>161.1</ele>
      </trkpt>
      <trkpt lat="36.82174" lon="28.57735">
        <ele>160</ele>
      </trkpt>
      <trkpt lat="36.82176" lon="28.5774">
        <ele>159.3</ele>
      </trkpt>
      <trkpt lat="36.82175" lon="28.57745">
        <ele>157.4</ele>
      </trkpt>
      <trkpt lat="36.82177" lon="28.57753">
        <ele>155.3</ele>
      </trkpt>
      <trkpt lat="36.82178" lon="28.57758">
        <ele>153.8</ele>
      </trkpt>
      <trkpt lat="36.82178" lon="28.5776">
        <ele>153.2</ele>
      </trkpt>
      <trkpt lat="36.82178" lon="28.57782">
        <ele>146</ele>
      </trkpt>
      <trkpt lat="36.82187" lon="28.57788">
        <ele>146.7</ele>
      </trkpt>
      <trkpt lat="36.82194" lon="28.57793">
        <ele>146.7</ele>
      </trkpt>
      <trkpt lat="36.82204" lon="28.57795">
        <ele>149</ele>
      </trkpt>
      <trkpt lat="36.82215" lon="28.57796">
        <ele>151.6</ele>
      </trkpt>
      <trkpt lat="36.82227" lon="28.57801">
        <ele>153</ele>
      </trkpt>
      <trkpt lat="36.8223" lon="28.57805">
        <ele>152.7</ele>
      </trkpt>
      <trkpt lat="36.82237" lon="28.5782">
        <ele>148.6</ele>
      </trkpt>
      <trkpt lat="36.82237" lon="28.57837">
        <ele>142.6</ele>
      </trkpt>
      <trkpt lat="36.82237" lon="28.57839">
        <ele>142</ele>
      </trkpt>
      <trkpt lat="36.82243" lon="28.57842">
        <ele>142.4</ele>
      </trkpt>
      <trkpt lat="36.82241" lon="28.57847">
        <ele>140.3</ele>
      </trkpt>
      <trkpt lat="36.82243" lon="28.57849">
        <ele>140.2</ele>
      </trkpt>
      <trkpt lat="36.82253" lon="28.57853">
        <ele>140.8</ele>
      </trkpt>
      <trkpt lat="36.82253" lon="28.57853">
        <ele>140.8</ele>
      </trkpt>
      <trkpt lat="36.82254" lon="28.57853">
        <ele>140.9</ele>
      </trkpt>
      <trkpt lat="36.82263" lon="28.57847">
        <ele>143.5</ele>
      </trkpt>
      <trkpt lat="36.82269" lon="28.57835">
        <ele>147.5</ele>
      </trkpt>
      <trkpt lat="36.82276" lon="28.57832">
        <ele>148.7</ele>
      </trkpt>
      <trkpt lat="36.82281" lon="28.57828">
        <ele>150.3</ele>
      </trkpt>
      <trkpt lat="36.82287" lon="28.57834">
        <ele>148.7</ele>
      </trkpt>
      <trkpt lat="36.82289" lon="28.57831">
        <ele>149.6</ele>
      </trkpt>
      <trkpt lat="36.82299" lon="28.57829">
        <ele>150.7</ele>
      </trkpt>
      <trkpt lat="36.82301" lon="28.5783">
        <ele>150.5</ele>
      </trkpt>
      <trkpt lat="36.82305" lon="28.57835">
        <ele>149.2</ele>
      </trkpt>
      <trkpt lat="36.82302" lon="28.57844">
        <ele>147.1</ele>
      </trkpt>
      <trkpt lat="36.82298" lon="28.57846">
        <ele>146.5</ele>
      </trkpt>
      <trkpt lat="36.82298" lon="28.57851">
        <ele>145.3</ele>
      </trkpt>
      <trkpt lat="36.82298" lon="28.57853">
        <ele>144.8</ele>
      </trkpt>
      <trkpt lat="36.82297" lon="28.57858">
        <ele>143.5</ele>
      </trkpt>
      <trkpt lat="36.82294" lon="28.57863">
        <ele>142.2</ele>
      </trkpt>
      <trkpt lat="36.82293" lon="28.57866">
        <ele>141.2</ele>
      </trkpt>
      <trkpt lat="36.82293" lon="28.57867">
        <ele>141.1</ele>
      </trkpt>
      <trkpt lat="36.82294" lon="28.57865">
        <ele>141.7</ele>
      </trkpt>
      <trkpt lat="36.82293" lon="28.57869">
        <ele>140.6</ele>
      </trkpt>
      <trkpt lat="36.82293" lon="28.57869">
        <ele>140.6</ele>
      </trkpt>
      <trkpt lat="36.82293" lon="28.57869">
        <ele>140.6</ele>
      </trkpt>
      <trkpt lat="36.82293" lon="28.57869">
        <ele>140.6</ele>
      </trkpt>
      <trkpt lat="36.82294" lon="28.57869">
        <ele>140.7</ele>
      </trkpt>
      <trkpt lat="36.82303" lon="28.57867">
        <ele>142.3</ele>
      </trkpt>
      <trkpt lat="36.82303" lon="28.57868">
        <ele>142.2</ele>
      </trkpt>
      <trkpt lat="36.82303" lon="28.57877">
        <ele>140.3</ele>
      </trkpt>
      <trkpt lat="36.82298" lon="28.57889">
        <ele>136.7</ele>
      </trkpt>
      <trkpt lat="36.82296" lon="28.57894">
        <ele>135.4</ele>
      </trkpt>
      <trkpt lat="36.823" lon="28.57902">
        <ele>134.2</ele>
      </trkpt>
      <trkpt lat="36.823" lon="28.57904">
        <ele>133.9</ele>
      </trkpt>
      <trkpt lat="36.823" lon="28.57904">
        <ele>133.8</ele>
      </trkpt>
      <trkpt lat="36.82298" lon="28.57919">
        <ele>130.4</ele>
      </trkpt>
      <trkpt lat="36.823" lon="28.57923">
        <ele>130.3</ele>
      </trkpt>
      <trkpt lat="36.82299" lon="28.57923">
        <ele>130.1</ele>
      </trkpt>
      <trkpt lat="36.82299" lon="28.57923">
        <ele>129.9</ele>
      </trkpt>
      <trkpt lat="36.82296" lon="28.57927">
        <ele>128.9</ele>
      </trkpt>
      <trkpt lat="36.82296" lon="28.57927">
        <ele>128.9</ele>
      </trkpt>
      <trkpt lat="36.82296" lon="28.57931">
        <ele>128.5</ele>
      </trkpt>
      <trkpt lat="36.82293" lon="28.57933">
        <ele>127.5</ele>
      </trkpt>
      <trkpt lat="36.82291" lon="28.57934">
        <ele>126.9</ele>
      </trkpt>
      <trkpt lat="36.82291" lon="28.57934">
        <ele>126.8</ele>
      </trkpt>
      <trkpt lat="36.82291" lon="28.57935">
        <ele>126.8</ele>
      </trkpt>
      <trkpt lat="36.82299" lon="28.57941">
        <ele>128</ele>
      </trkpt>
      <trkpt lat="36.823" lon="28.57942">
        <ele>128.2</ele>
      </trkpt>
      <trkpt lat="36.823" lon="28.57943">
        <ele>127.8</ele>
      </trkpt>
      <trkpt lat="36.82301" lon="28.57946">
        <ele>127.8</ele>
      </trkpt>
      <trkpt lat="36.82304" lon="28.57947">
        <ele>128.4</ele>
      </trkpt>
      <trkpt lat="36.82305" lon="28.57948">
        <ele>128.5</ele>
      </trkpt>
      <trkpt lat="36.8231" lon="28.57959">
        <ele>128.5</ele>
      </trkpt>
      <trkpt lat="36.82313" lon="28.57962">
        <ele>128.9</ele>
      </trkpt>
      <trkpt lat="36.82319" lon="28.57965">
        <ele>130</ele>
      </trkpt>
      <trkpt lat="36.82323" lon="28.57973">
        <ele>129.8</ele>
      </trkpt>
      <trkpt lat="36.82323" lon="28.57973">
        <ele>129.7</ele>
      </trkpt>
      <trkpt lat="36.82324" lon="28.57976">
        <ele>129.7</ele>
      </trkpt>
      <trkpt lat="36.82324" lon="28.57959">
        <ele>131.6</ele>
      </trkpt>
      <trkpt lat="36.82328" lon="28.57955">
        <ele>133.2</ele>
      </trkpt>
      <trkpt lat="36.82329" lon="28.57953">
        <ele>133.6</ele>
      </trkpt>
      <trkpt lat="36.82347" lon="28.57965">
        <ele>137.6</ele>
      </trkpt>
      <trkpt lat="36.82358" lon="28.57974">
        <ele>140.3</ele>
      </trkpt>
      <trkpt lat="36.82357" lon="28.57975">
        <ele>140.1</ele>
      </trkpt>
      <trkpt lat="36.82367" lon="28.57985">
        <ele>142</ele>
      </trkpt>
      <trkpt lat="36.82383" lon="28.57992">
        <ele>146.1</ele>
      </trkpt>
      <trkpt lat="36.82387" lon="28.57993">
        <ele>147.5</ele>
      </trkpt>
      <trkpt lat="36.82399" lon="28.57998">
        <ele>150.5</ele>
      </trkpt>
      <trkpt lat="36.82409" lon="28.58004">
        <ele>153.1</ele>
      </trkpt>
      <trkpt lat="36.82409" lon="28.58005">
        <ele>152.9</ele>
      </trkpt>
      <trkpt lat="36.8241" lon="28.58012">
        <ele>152.6</ele>
      </trkpt>
      <trkpt lat="36.82415" lon="28.58024">
        <ele>152.8</ele>
      </trkpt>
      <trkpt lat="36.82413" lon="28.58026">
        <ele>152</ele>
      </trkpt>
      <trkpt lat="36.82413" lon="28.58026">
        <ele>152.1</ele>
      </trkpt>
      <trkpt lat="36.82418" lon="28.58025">
        <ele>153.9</ele>
      </trkpt>
      <trkpt lat="36.8242" lon="28.58032">
        <ele>154.8</ele>
      </trkpt>
      <trkpt lat="36.82424" lon="28.58029">
        <ele>157.4</ele>
      </trkpt>
      <trkpt lat="36.82424" lon="28.58035">
        <ele>157</ele>
      </trkpt>
      <trkpt lat="36.82428" lon="28.58048">
        <ele>157.9</ele>
      </trkpt>
      <trkpt lat="36.82428" lon="28.58061">
        <ele>156.9</ele>
      </trkpt>
      <trkpt lat="36.82429" lon="28.58069">
        <ele>156.8</ele>
      </trkpt>
      <trkpt lat="36.82431" lon="28.58079">
        <ele>157.3</ele>
      </trkpt>
      <trkpt lat="36.8243" lon="28.58091">
        <ele>156.8</ele>
      </trkpt>
      <trkpt lat="36.82429" lon="28.581">
        <ele>157.6</ele>
      </trkpt>
      <trkpt lat="36.82427" lon="28.58107">
        <ele>156.9</ele>
      </trkpt>
      <trkpt lat="36.82425" lon="28.58111">
        <ele>156.6</ele>
      </trkpt>
      <trkpt lat="36.82424" lon="28.58113">
        <ele>156.3</ele>
      </trkpt>
      <trkpt lat="36.82428" lon="28.58127">
        <ele>160.6</ele>
      </trkpt>
      <trkpt lat="36.82431" lon="28.58129">
        <ele>161.9</ele>
      </trkpt>
      <trkpt lat="36.8244" lon="28.58133">
        <ele>166.5</ele>
      </trkpt>
      <trkpt lat="36.82443" lon="28.58134">
        <ele>167.9</ele>
      </trkpt>
      <trkpt lat="36.82443" lon="28.58135">
        <ele>168.2</ele>
      </trkpt>
      <trkpt lat="36.82448" lon="28.58133">
        <ele>170.2</ele>
      </trkpt>
      <trkpt lat="36.82448" lon="28.5814">
        <ele>170.6</ele>
      </trkpt>
      <trkpt lat="36.82448" lon="28.58142">
        <ele>170.6</ele>
      </trkpt>
      <trkpt lat="36.82452" lon="28.58152">
        <ele>172.6</ele>
      </trkpt>
      <trkpt lat="36.82452" lon="28.58153">
        <ele>172.7</ele>
      </trkpt>
      <trkpt lat="36.82451" lon="28.58156">
        <ele>172.3</ele>
      </trkpt>
      <trkpt lat="36.82443" lon="28.58157">
        <ele>169.4</ele>
      </trkpt>
      <trkpt lat="36.8244" lon="28.58156">
        <ele>168.3</ele>
      </trkpt>
      <trkpt lat="36.82441" lon="28.58154">
        <ele>168.7</ele>
      </trkpt>
      <trkpt lat="36.82434" lon="28.58151">
        <ele>165.5</ele>
      </trkpt>
      <trkpt lat="36.82416" lon="28.58149">
        <ele>158.5</ele>
      </trkpt>
      <trkpt lat="36.82416" lon="28.5815">
        <ele>158.7</ele>
      </trkpt>
      <trkpt lat="36.82412" lon="28.58152">
        <ele>158.2</ele>
      </trkpt>
      <trkpt lat="36.82408" lon="28.58152">
        <ele>157</ele>
      </trkpt>
      <trkpt lat="36.82401" lon="28.5816">
        <ele>156.7</ele>
      </trkpt>
      <trkpt lat="36.82396" lon="28.58171">
        <ele>157.6</ele>
      </trkpt>
      <trkpt lat="36.82396" lon="28.58174">
        <ele>158.3</ele>
      </trkpt>
      <trkpt lat="36.82396" lon="28.58174">
        <ele>158.4</ele>
      </trkpt>
      <trkpt lat="36.82396" lon="28.58174">
        <ele>158.4</ele>
      </trkpt>
      <trkpt lat="36.82396" lon="28.58174">
        <ele>158.2</ele>
      </trkpt>
      <trkpt lat="36.82396" lon="28.5818">
        <ele>159.8</ele>
      </trkpt>
      <trkpt lat="36.82404" lon="28.58192">
        <ele>164.5</ele>
      </trkpt>
      <trkpt lat="36.82407" lon="28.58196">
        <ele>166.2</ele>
      </trkpt>
      <trkpt lat="36.82406" lon="28.58195">
        <ele>165.7</ele>
      </trkpt>
      <trkpt lat="36.82401" lon="28.58202">
        <ele>166</ele>
      </trkpt>
      <trkpt lat="36.82401" lon="28.58203">
        <ele>166.2</ele>
      </trkpt>
      <trkpt lat="36.82402" lon="28.58203">
        <ele>166.3</ele>
      </trkpt>
      <trkpt lat="36.82402" lon="28.58203">
        <ele>166.3</ele>
      </trkpt>
      <trkpt lat="36.82406" lon="28.58207">
        <ele>168.3</ele>
      </trkpt>
      <trkpt lat="36.82406" lon="28.58207">
        <ele>168.4</ele>
      </trkpt>
      <trkpt lat="36.82406" lon="28.58207">
        <ele>168.3</ele>
      </trkpt>
      <trkpt lat="36.82406" lon="28.58207">
        <ele>168.3</ele>
      </trkpt>
      <trkpt lat="36.82405" lon="28.58211">
        <ele>168.8</ele>
      </trkpt>
      <trkpt lat="36.82401" lon="28.58215">
        <ele>168.8</ele>
      </trkpt>
      <trkpt lat="36.824" lon="28.58216">
        <ele>168.9</ele>
      </trkpt>
      <trkpt lat="36.82395" lon="28.58226">
        <ele>169.5</ele>
      </trkpt>
      <trkpt lat="36.82387" lon="28.58235">
        <ele>169.1</ele>
      </trkpt>
      <trkpt lat="36.82387" lon="28.58237">
        <ele>169.6</ele>
      </trkpt>
      <trkpt lat="36.82387" lon="28.58236">
        <ele>169.2</ele>
      </trkpt>
      <trkpt lat="36.82384" lon="28.58244">
        <ele>170.3</ele>
      </trkpt>
      <trkpt lat="36.82382" lon="28.58261">
        <ele>173.1</ele>
      </trkpt>
      <trkpt lat="36.82379" lon="28.58271">
        <ele>174</ele>
      </trkpt>
      <trkpt lat="36.82376" lon="28.58289">
        <ele>176.4</ele>
      </trkpt>
      <trkpt lat="36.82381" lon="28.58294">
        <ele>178.7</ele>
      </trkpt>
      <trkpt lat="36.82383" lon="28.58294">
        <ele>179.5</ele>
      </trkpt>
      <trkpt lat="36.82383" lon="28.58294">
        <ele>179.5</ele>
      </trkpt>
      <trkpt lat="36.82383" lon="28.58298">
        <ele>180.2</ele>
      </trkpt>
      <trkpt lat="36.82394" lon="28.58307">
        <ele>184.8</ele>
      </trkpt>
      <trkpt lat="36.82399" lon="28.58314">
        <ele>187.5</ele>
      </trkpt>
      <trkpt lat="36.82399" lon="28.58315">
        <ele>187.9</ele>
      </trkpt>
      <trkpt lat="36.824" lon="28.58318">
        <ele>188.4</ele>
      </trkpt>
      <trkpt lat="36.824" lon="28.58319">
        <ele>188.7</ele>
      </trkpt>
      <trkpt lat="36.824" lon="28.58331">
        <ele>191</ele>
      </trkpt>
      <trkpt lat="36.82394" lon="28.58348">
        <ele>192.2</ele>
      </trkpt>
      <trkpt lat="36.8239" lon="28.58351">
        <ele>192</ele>
      </trkpt>
      <trkpt lat="36.82386" lon="28.58356">
        <ele>191.7</ele>
      </trkpt>
      <trkpt lat="36.82384" lon="28.58369">
        <ele>193.1</ele>
      </trkpt>
      <trkpt lat="36.82382" lon="28.58373">
        <ele>193.3</ele>
      </trkpt>
      <trkpt lat="36.82374" lon="28.58387">
        <ele>193</ele>
      </trkpt>
      <trkpt lat="36.82376" lon="28.58387">
        <ele>193.9</ele>
      </trkpt>
      <trkpt lat="36.82369" lon="28.58395">
        <ele>193.1</ele>
      </trkpt>
      <trkpt lat="36.82362" lon="28.58409">
        <ele>192.6</ele>
      </trkpt>
      <trkpt lat="36.82356" lon="28.58416">
        <ele>191.6</ele>
      </trkpt>
      <trkpt lat="36.82352" lon="28.58418">
        <ele>190.7</ele>
      </trkpt>
      <trkpt lat="36.82345" lon="28.58423">
        <ele>189.7</ele>
      </trkpt>
      <trkpt lat="36.82341" lon="28.58423">
        <ele>188.4</ele>
      </trkpt>
      <trkpt lat="36.82341" lon="28.5843">
        <ele>190.2</ele>
      </trkpt>
      <trkpt lat="36.82335" lon="28.58434">
        <ele>189.3</ele>
      </trkpt>
      <trkpt lat="36.82331" lon="28.58439">
        <ele>189.4</ele>
      </trkpt>
      <trkpt lat="36.82327" lon="28.58445">
        <ele>189.7</ele>
      </trkpt>
      <trkpt lat="36.82324" lon="28.5845">
        <ele>190.4</ele>
      </trkpt>
      <trkpt lat="36.82324" lon="28.58452">
        <ele>191</ele>
      </trkpt>
      <trkpt lat="36.8232" lon="28.58457">
        <ele>191.1</ele>
      </trkpt>
      <trkpt lat="36.82317" lon="28.58458">
        <ele>190.7</ele>
      </trkpt>
      <trkpt lat="36.82318" lon="28.58458">
        <ele>191.1</ele>
      </trkpt>
      <trkpt lat="36.82311" lon="28.58461">
        <ele>189.9</ele>
      </trkpt>
      <trkpt lat="36.82296" lon="28.58467">
        <ele>187.9</ele>
      </trkpt>
      <trkpt lat="36.82296" lon="28.58466">
        <ele>187.8</ele>
      </trkpt>
      <trkpt lat="36.82305" lon="28.5846">
        <ele>188.3</ele>
      </trkpt>
      <trkpt lat="36.82302" lon="28.58465">
        <ele>188.7</ele>
      </trkpt>
      <trkpt lat="36.82301" lon="28.58465">
        <ele>188.9</ele>
      </trkpt>
      <trkpt lat="36.82299" lon="28.58475">
        <ele>190.8</ele>
      </trkpt>
      <trkpt lat="36.82295" lon="28.58482">
        <ele>191.6</ele>
      </trkpt>
      <trkpt lat="36.82294" lon="28.58484">
        <ele>192.1</ele>
      </trkpt>
      <trkpt lat="36.82296" lon="28.58486">
        <ele>193.2</ele>
      </trkpt>
      <trkpt lat="36.82293" lon="28.58494">
        <ele>194.5</ele>
      </trkpt>
      <trkpt lat="36.82289" lon="28.58498">
        <ele>194.6</ele>
      </trkpt>
      <trkpt lat="36.82288" lon="28.58508">
        <ele>197.1</ele>
      </trkpt>
      <trkpt lat="36.82281" lon="28.58517">
        <ele>197.5</ele>
      </trkpt>
      <trkpt lat="36.82278" lon="28.58522">
        <ele>198</ele>
      </trkpt>
      <trkpt lat="36.82276" lon="28.58526">
        <ele>198.5</ele>
      </trkpt>
      <trkpt lat="36.82272" lon="28.58528">
        <ele>198</ele>
      </trkpt>
      <trkpt lat="36.82264" lon="28.58535">
        <ele>197.3</ele>
      </trkpt>
      <trkpt lat="36.82257" lon="28.58542">
        <ele>196.7</ele>
      </trkpt>
      <trkpt lat="36.82256" lon="28.58544">
        <ele>196.8</ele>
      </trkpt>
      <trkpt lat="36.82254" lon="28.58549">
        <ele>197.3</ele>
      </trkpt>
      <trkpt lat="36.82251" lon="28.58552">
        <ele>196.8</ele>
      </trkpt>
      <trkpt lat="36.82252" lon="28.58555">
        <ele>197.8</ele>
      </trkpt>
      <trkpt lat="36.82254" lon="28.58571">
        <ele>201.7</ele>
      </trkpt>
      <trkpt lat="36.82244" lon="28.58587">
        <ele>201.2</ele>
      </trkpt>
      <trkpt lat="36.82244" lon="28.58586">
        <ele>201.1</ele>
      </trkpt>
      <trkpt lat="36.82245" lon="28.58592">
        <ele>201.8</ele>
      </trkpt>
      <trkpt lat="36.82239" lon="28.58607">
        <ele>200.9</ele>
      </trkpt>
      <trkpt lat="36.82231" lon="28.58625">
        <ele>199.4</ele>
      </trkpt>
      <trkpt lat="36.82228" lon="28.58648">
        <ele>200.2</ele>
      </trkpt>
      <trkpt lat="36.82229" lon="28.58653">
        <ele>200.9</ele>
      </trkpt>
      <trkpt lat="36.8223" lon="28.58667">
        <ele>202.6</ele>
      </trkpt>
      <trkpt lat="36.82229" lon="28.58686">
        <ele>202.9</ele>
      </trkpt>
      <trkpt lat="36.82229" lon="28.58704">
        <ele>203.2</ele>
      </trkpt>
      <trkpt lat="36.82232" lon="28.5872">
        <ele>204.8</ele>
      </trkpt>
      <trkpt lat="36.82232" lon="28.5872">
        <ele>204.8</ele>
      </trkpt>
      <trkpt lat="36.82231" lon="28.5873">
        <ele>204.9</ele>
      </trkpt>
      <trkpt lat="36.8223" lon="28.58749">
        <ele>205.1</ele>
      </trkpt>
      <trkpt lat="36.82232" lon="28.58754">
        <ele>205.8</ele>
      </trkpt>
      <trkpt lat="36.82227" lon="28.58769">
        <ele>204.5</ele>
      </trkpt>
      <trkpt lat="36.82227" lon="28.58775">
        <ele>204.9</ele>
      </trkpt>
      <trkpt lat="36.82227" lon="28.58789">
        <ele>205.3</ele>
      </trkpt>
      <trkpt lat="36.82226" lon="28.588">
        <ele>205.5</ele>
      </trkpt>
      <trkpt lat="36.82224" lon="28.58813">
        <ele>205.6</ele>
      </trkpt>
      <trkpt lat="36.82221" lon="28.58836">
        <ele>205.6</ele>
      </trkpt>
      <trkpt lat="36.82216" lon="28.58852">
        <ele>204.8</ele>
      </trkpt>
      <trkpt lat="36.82217" lon="28.58861">
        <ele>205</ele>
      </trkpt>
      <trkpt lat="36.82216" lon="28.58868">
        <ele>204.9</ele>
      </trkpt>
      <trkpt lat="36.82218" lon="28.58866">
        <ele>205.1</ele>
      </trkpt>
      <trkpt lat="36.82216" lon="28.58871">
        <ele>204.9</ele>
      </trkpt>
      <trkpt lat="36.8221" lon="28.5888">
        <ele>204.3</ele>
      </trkpt>
      <trkpt lat="36.82209" lon="28.58879">
        <ele>204.2</ele>
      </trkpt>
      <trkpt lat="36.8217" lon="28.58948">
        <ele>201.4</ele>
      </trkpt>
      <trkpt lat="36.82162" lon="28.58957">
        <ele>200</ele>
      </trkpt>
      <trkpt lat="36.82161" lon="28.58958">
        <ele>199.9</ele>
      </trkpt>
      <trkpt lat="36.82161" lon="28.58963">
        <ele>199.5</ele>
      </trkpt>
      <trkpt lat="36.82163" lon="28.58972">
        <ele>199</ele>
      </trkpt>
      <trkpt lat="36.82168" lon="28.58991">
        <ele>197.7</ele>
      </trkpt>
      <trkpt lat="36.82169" lon="28.58994">
        <ele>197.4</ele>
      </trkpt>
      <trkpt lat="36.82171" lon="28.58995">
        <ele>197.3</ele>
      </trkpt>
      <trkpt lat="36.82174" lon="28.59005">
        <ele>196.3</ele>
      </trkpt>
      <trkpt lat="36.82175" lon="28.59012">
        <ele>195.6</ele>
      </trkpt>
      <trkpt lat="36.82174" lon="28.59015">
        <ele>195.4</ele>
      </trkpt>
      <trkpt lat="36.82171" lon="28.59016">
        <ele>195.4</ele>
      </trkpt>
      <trkpt lat="36.8217" lon="28.59013">
        <ele>195.7</ele>
      </trkpt>
      <trkpt lat="36.82173" lon="28.59018">
        <ele>195.1</ele>
      </trkpt>
      <trkpt lat="36.82174" lon="28.5903">
        <ele>194.1</ele>
      </trkpt>
      <trkpt lat="36.82174" lon="28.5903">
        <ele>194</ele>
      </trkpt>
      <trkpt lat="36.82175" lon="28.59031">
        <ele>193.9</ele>
      </trkpt>
      <trkpt lat="36.82175" lon="28.59043">
        <ele>192.9</ele>
      </trkpt>
      <trkpt lat="36.82173" lon="28.59053">
        <ele>191.9</ele>
      </trkpt>
      <trkpt lat="36.82175" lon="28.59053">
        <ele>192</ele>
      </trkpt>
      <trkpt lat="36.82175" lon="28.59062">
        <ele>191.2</ele>
      </trkpt>
      <trkpt lat="36.82176" lon="28.59073">
        <ele>190.3</ele>
      </trkpt>
      <trkpt lat="36.82177" lon="28.59085">
        <ele>189.3</ele>
      </trkpt>
      <trkpt lat="36.82176" lon="28.59106">
        <ele>188</ele>
      </trkpt>
      <trkpt lat="36.82179" lon="28.59109">
        <ele>187.9</ele>
      </trkpt>
      <trkpt lat="36.82179" lon="28.5912">
        <ele>187.3</ele>
      </trkpt>
      <trkpt lat="36.82179" lon="28.59131">
        <ele>186.7</ele>
      </trkpt>
      <trkpt lat="36.82176" lon="28.59144">
        <ele>185.7</ele>
      </trkpt>
      <trkpt lat="36.82175" lon="28.59154">
        <ele>184.9</ele>
      </trkpt>
      <trkpt lat="36.82176" lon="28.5916">
        <ele>184.7</ele>
      </trkpt>
      <trkpt lat="36.82173" lon="28.59157">
        <ele>184.4</ele>
      </trkpt>
      <trkpt lat="36.82174" lon="28.59169">
        <ele>183.4</ele>
      </trkpt>
      <trkpt lat="36.82181" lon="28.59184">
        <ele>181.2</ele>
      </trkpt>
      <trkpt lat="36.82182" lon="28.59195">
        <ele>178.9</ele>
      </trkpt>
      <trkpt lat="36.82185" lon="28.59213">
        <ele>175.8</ele>
      </trkpt>
      <trkpt lat="36.82186" lon="28.59216">
        <ele>175.6</ele>
      </trkpt>
      <trkpt lat="36.82192" lon="28.59234">
        <ele>173.7</ele>
      </trkpt>
      <trkpt lat="36.82194" lon="28.59254">
        <ele>170.8</ele>
      </trkpt>
      <trkpt lat="36.82199" lon="28.59262">
        <ele>171.6</ele>
      </trkpt>
      <trkpt lat="36.82202" lon="28.59263">
        <ele>172.4</ele>
      </trkpt>
      <trkpt lat="36.82204" lon="28.59264">
        <ele>172.9</ele>
      </trkpt>
      <trkpt lat="36.82203" lon="28.59263">
        <ele>172.7</ele>
      </trkpt>
      <trkpt lat="36.82201" lon="28.59263">
        <ele>172.2</ele>
      </trkpt>
      <trkpt lat="36.82201" lon="28.59271">
        <ele>171.2</ele>
      </trkpt>
      <trkpt lat="36.82203" lon="28.59286">
        <ele>170.2</ele>
      </trkpt>
      <trkpt lat="36.82202" lon="28.59303">
        <ele>168</ele>
      </trkpt>
      <trkpt lat="36.82199" lon="28.5932">
        <ele>164.9</ele>
      </trkpt>
      <trkpt lat="36.822" lon="28.59331">
        <ele>164.2</ele>
      </trkpt>
      <trkpt lat="36.82202" lon="28.59339">
        <ele>164.4</ele>
      </trkpt>
      <trkpt lat="36.82198" lon="28.59344">
        <ele>162</ele>
      </trkpt>
      <trkpt lat="36.82202" lon="28.5935">
        <ele>163</ele>
      </trkpt>
      <trkpt lat="36.82206" lon="28.59365">
        <ele>163.5</ele>
      </trkpt>
      <trkpt lat="36.82201" lon="28.59381">
        <ele>159.6</ele>
      </trkpt>
      <trkpt lat="36.822" lon="28.59389">
        <ele>158.6</ele>
      </trkpt>
      <trkpt lat="36.82202" lon="28.59409">
        <ele>157.6</ele>
      </trkpt>
      <trkpt lat="36.82202" lon="28.59414">
        <ele>157</ele>
      </trkpt>
      <trkpt lat="36.82198" lon="28.59415">
        <ele>155.2</ele>
      </trkpt>
      <trkpt lat="36.82204" lon="28.59428">
        <ele>154.9</ele>
      </trkpt>
      <trkpt lat="36.82209" lon="28.59442">
        <ele>154.4</ele>
      </trkpt>
      <trkpt lat="36.82215" lon="28.59459">
        <ele>153.1</ele>
      </trkpt>
      <trkpt lat="36.82221" lon="28.59468">
        <ele>153.6</ele>
      </trkpt>
      <trkpt lat="36.82223" lon="28.59468">
        <ele>154.4</ele>
      </trkpt>
      <trkpt lat="36.82221" lon="28.59474">
        <ele>152.4</ele>
      </trkpt>
      <trkpt lat="36.82228" lon="28.5949">
        <ele>151.3</ele>
      </trkpt>
      <trkpt lat="36.82227" lon="28.59493">
        <ele>150.6</ele>
      </trkpt>
      <trkpt lat="36.82222" lon="28.595">
        <ele>147</ele>
      </trkpt>
      <trkpt lat="36.82219" lon="28.59512">
        <ele>143.8</ele>
      </trkpt>
      <trkpt lat="36.82222" lon="28.59516">
        <ele>144.7</ele>
      </trkpt>
      <trkpt lat="36.82227" lon="28.59523">
        <ele>145.4</ele>
      </trkpt>
      <trkpt lat="36.82228" lon="28.59529">
        <ele>145.2</ele>
      </trkpt>
      <trkpt lat="36.8223" lon="28.59543">
        <ele>143.8</ele>
      </trkpt>
      <trkpt lat="36.82229" lon="28.59549">
        <ele>142.4</ele>
      </trkpt>
      <trkpt lat="36.8223" lon="28.59565">
        <ele>140.4</ele>
      </trkpt>
      <trkpt lat="36.82232" lon="28.59584">
        <ele>138.6</ele>
      </trkpt>
      <trkpt lat="36.82232" lon="28.59606">
        <ele>133.8</ele>
      </trkpt>
      <trkpt lat="36.82232" lon="28.59616">
        <ele>131.8</ele>
      </trkpt>
      <trkpt lat="36.82232" lon="28.59621">
        <ele>130.7</ele>
      </trkpt>
      <trkpt lat="36.82246" lon="28.59632">
        <ele>132.6</ele>
      </trkpt>
      <trkpt lat="36.82248" lon="28.59644">
        <ele>130.5</ele>
      </trkpt>
      <trkpt lat="36.82256" lon="28.59665">
        <ele>127.2</ele>
      </trkpt>
      <trkpt lat="36.82251" lon="28.59679">
        <ele>124.7</ele>
      </trkpt>
      <trkpt lat="36.82258" lon="28.59696">
        <ele>123.3</ele>
      </trkpt>
      <trkpt lat="36.82268" lon="28.59712">
        <ele>122</ele>
      </trkpt>
      <trkpt lat="36.82277" lon="28.59721">
        <ele>121.4</ele>
      </trkpt>
      <trkpt lat="36.82282" lon="28.59731">
        <ele>120.1</ele>
      </trkpt>
      <trkpt lat="36.8229" lon="28.59745">
        <ele>118.2</ele>
      </trkpt>
      <trkpt lat="36.82298" lon="28.5976">
        <ele>116.3</ele>
      </trkpt>
      <trkpt lat="36.82307" lon="28.5977">
        <ele>115.3</ele>
      </trkpt>
      <trkpt lat="36.82314" lon="28.59778">
        <ele>114.5</ele>
      </trkpt>
      <trkpt lat="36.82322" lon="28.59789">
        <ele>113.7</ele>
      </trkpt>
      <trkpt lat="36.82326" lon="28.59797">
        <ele>112.9</ele>
      </trkpt>
      <trkpt lat="36.82327" lon="28.59798">
        <ele>112.8</ele>
      </trkpt>
      <trkpt lat="36.82337" lon="28.59798">
        <ele>112.9</ele>
      </trkpt>
      <trkpt lat="36.82352" lon="28.59796">
        <ele>112</ele>
      </trkpt>
      <trkpt lat="36.82358" lon="28.59792">
        <ele>112.4</ele>
      </trkpt>
      <trkpt lat="36.82371" lon="28.59782">
        <ele>113.2</ele>
      </trkpt>
      <trkpt lat="36.82372" lon="28.59781">
        <ele>113.4</ele>
      </trkpt>
      <trkpt lat="36.82381" lon="28.59774">
        <ele>114.3</ele>
      </trkpt>
      <trkpt lat="36.82393" lon="28.59768">
        <ele>115.2</ele>
      </trkpt>
      <trkpt lat="36.82403" lon="28.59763">
        <ele>116.1</ele>
      </trkpt>
      <trkpt lat="36.8242" lon="28.59765">
        <ele>115.3</ele>
      </trkpt>
      <trkpt lat="36.82427" lon="28.59766">
        <ele>115.3</ele>
      </trkpt>
      <trkpt lat="36.82441" lon="28.59767">
        <ele>115.4</ele>
      </trkpt>
      <trkpt lat="36.8245" lon="28.5977">
        <ele>114.8</ele>
      </trkpt>
      <trkpt lat="36.82457" lon="28.59761">
        <ele>117.3</ele>
      </trkpt>
      <trkpt lat="36.82461" lon="28.59754">
        <ele>119.1</ele>
      </trkpt>
      <trkpt lat="36.82472" lon="28.59756">
        <ele>118.9</ele>
      </trkpt>
      <trkpt lat="36.82471" lon="28.59769">
        <ele>115.8</ele>
      </trkpt>
      <trkpt lat="36.82475" lon="28.59781">
        <ele>112.7</ele>
      </trkpt>
      <trkpt lat="36.82487" lon="28.59789">
        <ele>111.3</ele>
      </trkpt>
      <trkpt lat="36.82488" lon="28.59796">
        <ele>109.6</ele>
      </trkpt>
      <trkpt lat="36.82502" lon="28.59802">
        <ele>108.9</ele>
      </trkpt>
      <trkpt lat="36.82507" lon="28.5982">
        <ele>105.4</ele>
      </trkpt>
      <trkpt lat="36.82513" lon="28.59829">
        <ele>104.3</ele>
      </trkpt>
      <trkpt lat="36.82516" lon="28.59841">
        <ele>102.1</ele>
      </trkpt>
      <trkpt lat="36.82536" lon="28.59837">
        <ele>106.3</ele>
      </trkpt>
      <trkpt lat="36.82558" lon="28.59833">
        <ele>110.9</ele>
      </trkpt>
      <trkpt lat="36.82579" lon="28.5984">
        <ele>113.4</ele>
      </trkpt>
      <trkpt lat="36.82579" lon="28.59864">
        <ele>109.6</ele>
      </trkpt>
      <trkpt lat="36.82573" lon="28.59873">
        <ele>107</ele>
      </trkpt>
      <trkpt lat="36.82571" lon="28.59889">
        <ele>104.1</ele>
      </trkpt>
      <trkpt lat="36.82569" lon="28.59904">
        <ele>101.2</ele>
      </trkpt>
      <trkpt lat="36.8257" lon="28.5992">
        <ele>99.3</ele>
      </trkpt>
      <trkpt lat="36.82567" lon="28.59928">
        <ele>98.4</ele>
      </trkpt>
      <trkpt lat="36.8257" lon="28.59947">
        <ele>98.6</ele>
      </trkpt>
      <trkpt lat="36.82574" lon="28.59956">
        <ele>99.8</ele>
      </trkpt>
      <trkpt lat="36.82567" lon="28.59963">
        <ele>97.2</ele>
      </trkpt>
      <trkpt lat="36.8256" lon="28.59979">
        <ele>94</ele>
      </trkpt>
      <trkpt lat="36.82556" lon="28.59994">
        <ele>91.5</ele>
      </trkpt>
      <trkpt lat="36.82548" lon="28.60012">
        <ele>87</ele>
      </trkpt>
      <trkpt lat="36.82544" lon="28.60023">
        <ele>84.5</ele>
      </trkpt>
      <trkpt lat="36.82543" lon="28.60039">
        <ele>83.2</ele>
      </trkpt>
      <trkpt lat="36.82542" lon="28.60052">
        <ele>82.2</ele>
      </trkpt>
      <trkpt lat="36.82544" lon="28.60069">
        <ele>81.8</ele>
      </trkpt>
      <trkpt lat="36.82545" lon="28.60086">
        <ele>81</ele>
      </trkpt>
      <trkpt lat="36.82544" lon="28.60099">
        <ele>79.5</ele>
      </trkpt>
      <trkpt lat="36.82539" lon="28.60115">
        <ele>75.9</ele>
      </trkpt>
      <trkpt lat="36.82545" lon="28.60126">
        <ele>77.1</ele>
      </trkpt>
      <trkpt lat="36.82555" lon="28.60138">
        <ele>79.1</ele>
      </trkpt>
      <trkpt lat="36.82553" lon="28.60158">
        <ele>76.1</ele>
      </trkpt>
      <trkpt lat="36.8255" lon="28.60166">
        <ele>74.5</ele>
      </trkpt>
      <trkpt lat="36.82556" lon="28.60178">
        <ele>74.7</ele>
      </trkpt>
      <trkpt lat="36.82563" lon="28.60193">
        <ele>75.1</ele>
      </trkpt>
      <trkpt lat="36.82567" lon="28.60204">
        <ele>74.6</ele>
      </trkpt>
      <trkpt lat="36.82566" lon="28.60214">
        <ele>73.2</ele>
      </trkpt>
      <trkpt lat="36.82578" lon="28.60226">
        <ele>74.2</ele>
      </trkpt>
      <trkpt lat="36.82574" lon="28.60234">
        <ele>72.5</ele>
      </trkpt>
      <trkpt lat="36.82575" lon="28.60253">
        <ele>70.1</ele>
      </trkpt>
      <trkpt lat="36.8258" lon="28.60269">
        <ele>70</ele>
      </trkpt>
      <trkpt lat="36.82588" lon="28.60286">
        <ele>70.8</ele>
      </trkpt>
      <trkpt lat="36.82589" lon="28.60288">
        <ele>70.9</ele>
      </trkpt>
      <trkpt lat="36.82587" lon="28.60301">
        <ele>69.2</ele>
      </trkpt>
      <trkpt lat="36.82585" lon="28.60298">
        <ele>69</ele>
      </trkpt>
      <trkpt lat="36.82585" lon="28.603">
        <ele>69</ele>
      </trkpt>
      <trkpt lat="36.82571" lon="28.60316">
        <ele>64.9</ele>
      </trkpt>
      <trkpt lat="36.82562" lon="28.60338">
        <ele>61.7</ele>
      </trkpt>
      <trkpt lat="36.82562" lon="28.60338">
        <ele>61.5</ele>
      </trkpt>
      <trkpt lat="36.82561" lon="28.60338">
        <ele>61.5</ele>
      </trkpt>
      <trkpt lat="36.82561" lon="28.60337">
        <ele>61.4</ele>
      </trkpt>
      <trkpt lat="36.8256" lon="28.60338">
        <ele>61.3</ele>
      </trkpt>
      <trkpt lat="36.82561" lon="28.60339">
        <ele>61.2</ele>
      </trkpt>
      <trkpt lat="36.8256" lon="28.60339">
        <ele>61.2</ele>
      </trkpt>
      <trkpt lat="36.82571" lon="28.60324">
        <ele>64.3</ele>
      </trkpt>
      <trkpt lat="36.82569" lon="28.60329">
        <ele>63.5</ele>
      </trkpt>
      <trkpt lat="36.82566" lon="28.60349">
        <ele>61.5</ele>
      </trkpt>
      <trkpt lat="36.82564" lon="28.6037">
        <ele>59.8</ele>
      </trkpt>
      <trkpt lat="36.8256" lon="28.60377">
        <ele>58.6</ele>
      </trkpt>
      <trkpt lat="36.82551" lon="28.60384">
        <ele>56.8</ele>
      </trkpt>
      <trkpt lat="36.82545" lon="28.60399">
        <ele>54.9</ele>
      </trkpt>
      <trkpt lat="36.82547" lon="28.60414">
        <ele>54.3</ele>
      </trkpt>
      <trkpt lat="36.8256" lon="28.60431">
        <ele>54.4</ele>
      </trkpt>
      <trkpt lat="36.82572" lon="28.60437">
        <ele>54.9</ele>
      </trkpt>
      <trkpt lat="36.82595" lon="28.60441">
        <ele>57.3</ele>
      </trkpt>
      <trkpt lat="36.82607" lon="28.60441">
        <ele>59.1</ele>
      </trkpt>
      <trkpt lat="36.8262" lon="28.60437">
        <ele>61.9</ele>
      </trkpt>
      <trkpt lat="36.82628" lon="28.60444">
        <ele>61.8</ele>
      </trkpt>
      <trkpt lat="36.82638" lon="28.60454">
        <ele>61.4</ele>
      </trkpt>
      <trkpt lat="36.82646" lon="28.60469">
        <ele>59.6</ele>
      </trkpt>
      <trkpt lat="36.82663" lon="28.60497">
        <ele>55.2</ele>
      </trkpt>
      <trkpt lat="36.82689" lon="28.60517">
        <ele>54</ele>
      </trkpt>
      <trkpt lat="36.8271" lon="28.60532">
        <ele>53.7</ele>
      </trkpt>
      <trkpt lat="36.82729" lon="28.60544">
        <ele>54.2</ele>
      </trkpt>
      <trkpt lat="36.82738" lon="28.60559">
        <ele>53.4</ele>
      </trkpt>
      <trkpt lat="36.82753" lon="28.606">
        <ele>49.8</ele>
      </trkpt>
      <trkpt lat="36.82765" lon="28.6063">
        <ele>46.3</ele>
      </trkpt>
      <trkpt lat="36.8277" lon="28.60656">
        <ele>42.8</ele>
      </trkpt>
      <trkpt lat="36.82779" lon="28.60686">
        <ele>39.8</ele>
      </trkpt>
      <trkpt lat="36.82767" lon="28.60705">
        <ele>37.8</ele>
      </trkpt>
      <trkpt lat="36.82747" lon="28.6072">
        <ele>36.3</ele>
      </trkpt>
      <trkpt lat="36.82726" lon="28.60739">
        <ele>32.1</ele>
      </trkpt>
      <trkpt lat="36.82707" lon="28.6075">
        <ele>28.7</ele>
      </trkpt>
      <trkpt lat="36.82696" lon="28.60768">
        <ele>25.2</ele>
      </trkpt>
      <trkpt lat="36.82696" lon="28.60783">
        <ele>23.5</ele>
      </trkpt>
      <trkpt lat="36.82702" lon="28.60795">
        <ele>22.7</ele>
      </trkpt>
      <trkpt lat="36.82707" lon="28.60809">
        <ele>21.4</ele>
      </trkpt>
      <trkpt lat="36.82701" lon="28.60814">
        <ele>20.3</ele>
      </trkpt>
      <trkpt lat="36.82689" lon="28.6081">
        <ele>19.8</ele>
      </trkpt>
      <trkpt lat="36.82674" lon="28.60806">
        <ele>18.9</ele>
      </trkpt>
      <trkpt lat="36.8268" lon="28.60824">
        <ele>17.7</ele>
      </trkpt>
      <trkpt lat="36.82692" lon="28.60847">
        <ele>16.8</ele>
      </trkpt>
      <trkpt lat="36.82703" lon="28.60873">
        <ele>15.9</ele>
      </trkpt>
      <trkpt lat="36.82701" lon="28.60894">
        <ele>14.7</ele>
      </trkpt>
      <trkpt lat="36.82702" lon="28.60915">
        <ele>13.5</ele>
      </trkpt>
      <trkpt lat="36.82702" lon="28.60944">
        <ele>13.2</ele>
      </trkpt>
      <trkpt lat="36.82707" lon="28.60965">
        <ele>13.2</ele>
      </trkpt>
      <trkpt lat="36.82702" lon="28.60986">
        <ele>12.9</ele>
      </trkpt>
      <trkpt lat="36.82699" lon="28.60999">
        <ele>12.8</ele>
      </trkpt>
      <trkpt lat="36.82695" lon="28.61017">
        <ele>12.4</ele>
      </trkpt>
      <trkpt lat="36.82692" lon="28.61032">
        <ele>12.1</ele>
      </trkpt>
      <trkpt lat="36.8269" lon="28.61048">
        <ele>11.8</ele>
      </trkpt>
      <trkpt lat="36.8269" lon="28.6107">
        <ele>11.5</ele>
      </trkpt>
      <trkpt lat="36.82692" lon="28.61092">
        <ele>11.1</ele>
      </trkpt>
      <trkpt lat="36.82696" lon="28.61123">
        <ele>10.5</ele>
      </trkpt>
      <trkpt lat="36.827" lon="28.61145">
        <ele>10.1</ele>
      </trkpt>
      <trkpt lat="36.82704" lon="28.61167">
        <ele>9.5</ele>
      </trkpt>
      <trkpt lat="36.82711" lon="28.6119">
        <ele>8.9</ele>
      </trkpt>
      <trkpt lat="36.82708" lon="28.61208">
        <ele>8.5</ele>
      </trkpt>
      <trkpt lat="36.82704" lon="28.61231">
        <ele>7.9</ele>
      </trkpt>
      <trkpt lat="36.82701" lon="28.61249">
        <ele>7.4</ele>
      </trkpt>
      <trkpt lat="36.8271" lon="28.61272">
        <ele>7.4</ele>
      </trkpt>
      <trkpt lat="36.82721" lon="28.61302">
        <ele>7.6</ele>
      </trkpt>
      <trkpt lat="36.82727" lon="28.61321">
        <ele>7.9</ele>
      </trkpt>
      <trkpt lat="36.82734" lon="28.61343">
        <ele>8.6</ele>
      </trkpt>
      <trkpt lat="36.82735" lon="28.61359">
        <ele>9.4</ele>
      </trkpt>
      <trkpt lat="36.82737" lon="28.61377">
        <ele>10.3</ele>
      </trkpt>
      <trkpt lat="36.82733" lon="28.61392">
        <ele>10.7</ele>
      </trkpt>
      <trkpt lat="36.82731" lon="28.61409">
        <ele>11.3</ele>
      </trkpt>
      <trkpt lat="36.82734" lon="28.61433">
        <ele>13</ele>
      </trkpt>
      <trkpt lat="36.82734" lon="28.61461">
        <ele>14.9</ele>
      </trkpt>
      <trkpt lat="36.82743" lon="28.61491">
        <ele>18.2</ele>
      </trkpt>
      <trkpt lat="36.82757" lon="28.6151">
        <ele>20.5</ele>
      </trkpt>
      <trkpt lat="36.82768" lon="28.61532">
        <ele>22.1</ele>
      </trkpt>
      <trkpt lat="36.8278" lon="28.61555">
        <ele>25</ele>
      </trkpt>
      <trkpt lat="36.82786" lon="28.61577">
        <ele>27.9</ele>
      </trkpt>
      <trkpt lat="36.82786" lon="28.616">
        <ele>31.7</ele>
      </trkpt>
      <trkpt lat="36.82779" lon="28.61622">
        <ele>34.3</ele>
      </trkpt>
      <trkpt lat="36.82774" lon="28.61644">
        <ele>37.4</ele>
      </trkpt>
      <trkpt lat="36.8277" lon="28.61663">
        <ele>39.8</ele>
      </trkpt>
      <trkpt lat="36.82764" lon="28.61683">
        <ele>39.7</ele>
      </trkpt>
      <trkpt lat="36.82759" lon="28.61704">
        <ele>39.7</ele>
      </trkpt>
      <trkpt lat="36.82756" lon="28.61728">
        <ele>40.3</ele>
      </trkpt>
      <trkpt lat="36.82751" lon="28.61749">
        <ele>40.3</ele>
      </trkpt>
      <trkpt lat="36.82747" lon="28.61765">
        <ele>37.1</ele>
      </trkpt>
      <trkpt lat="36.82747" lon="28.61773">
        <ele>35.7</ele>
      </trkpt>
      <trkpt lat="36.82755" lon="28.61776">
        <ele>36.9</ele>
      </trkpt>
      <trkpt lat="36.82759" lon="28.61784">
        <ele>36.8</ele>
      </trkpt>
      <trkpt lat="36.82768" lon="28.61803">
        <ele>36.1</ele>
      </trkpt>
      <trkpt lat="36.82777" lon="28.61832">
        <ele>33.9</ele>
      </trkpt>
      <trkpt lat="36.82785" lon="28.61859">
        <ele>35.2</ele>
      </trkpt>
      <trkpt lat="36.82791" lon="28.61881">
        <ele>36</ele>
      </trkpt>
      <trkpt lat="36.82774" lon="28.61914">
        <ele>30.1</ele>
      </trkpt>
      <trkpt lat="36.82773" lon="28.61926">
        <ele>30.1</ele>
      </trkpt>
      <trkpt lat="36.8277" lon="28.6196">
        <ele>30.8</ele>
      </trkpt>
      <trkpt lat="36.82767" lon="28.61993">
        <ele>31.5</ele>
      </trkpt>
      <trkpt lat="36.82765" lon="28.62016">
        <ele>32.1</ele>
      </trkpt>
      <trkpt lat="36.82759" lon="28.62033">
        <ele>32</ele>
      </trkpt>
      <trkpt lat="36.8275" lon="28.62059">
        <ele>32.3</ele>
      </trkpt>
      <trkpt lat="36.82743" lon="28.62083">
        <ele>32.8</ele>
      </trkpt>
      <trkpt lat="36.82727" lon="28.62108">
        <ele>30.6</ele>
      </trkpt>
      <trkpt lat="36.82716" lon="28.62128">
        <ele>29.8</ele>
      </trkpt>
      <trkpt lat="36.82714" lon="28.62137">
        <ele>29.8</ele>
      </trkpt>
      <trkpt lat="36.82714" lon="28.62137">
        <ele>29.8</ele>
      </trkpt>
      <trkpt lat="36.82713" lon="28.6216">
        <ele>30.6</ele>
      </trkpt>
      <trkpt lat="36.82704" lon="28.62174">
        <ele>29.3</ele>
      </trkpt>
      <trkpt lat="36.82695" lon="28.62186">
        <ele>27.3</ele>
      </trkpt>
      <trkpt lat="36.8268" lon="28.62201">
        <ele>25.1</ele>
      </trkpt>
      <trkpt lat="36.82671" lon="28.62208">
        <ele>24.1</ele>
      </trkpt>
      <trkpt lat="36.82663" lon="28.6222">
        <ele>23</ele>
      </trkpt>
      <trkpt lat="36.82648" lon="28.62235">
        <ele>22.5</ele>
      </trkpt>
      <trkpt lat="36.82636" lon="28.62249">
        <ele>22.7</ele>
      </trkpt>
      <trkpt lat="36.82627" lon="28.62269">
        <ele>21.3</ele>
      </trkpt>
      <trkpt lat="36.82622" lon="28.62291">
        <ele>19.7</ele>
      </trkpt>
      <trkpt lat="36.82626" lon="28.62317">
        <ele>16.5</ele>
      </trkpt>
      <trkpt lat="36.82617" lon="28.62328">
        <ele>17.2</ele>
      </trkpt>
      <trkpt lat="36.82615" lon="28.62359">
        <ele>17.8</ele>
      </trkpt>
      <trkpt lat="36.82626" lon="28.62385">
        <ele>15.8</ele>
      </trkpt>
      <trkpt lat="36.82639" lon="28.62407">
        <ele>12.9</ele>
      </trkpt>
      <trkpt lat="36.82643" lon="28.62422">
        <ele>12.2</ele>
      </trkpt>
      <trkpt lat="36.82653" lon="28.6246">
        <ele>11</ele>
      </trkpt>
      <trkpt lat="36.82662" lon="28.62484">
        <ele>8.6</ele>
      </trkpt>
      <trkpt lat="36.82671" lon="28.62516">
        <ele>9</ele>
      </trkpt>
      <trkpt lat="36.82678" lon="28.62544">
        <ele>12.2</ele>
      </trkpt>
      <trkpt lat="36.82683" lon="28.6257">
        <ele>15.4</ele>
      </trkpt>
      <trkpt lat="36.82688" lon="28.626">
        <ele>19.6</ele>
      </trkpt>
      <trkpt lat="36.8269" lon="28.62618">
        <ele>22.3</ele>
      </trkpt>
      <trkpt lat="36.82698" lon="28.62633">
        <ele>24.7</ele>
      </trkpt>
      <trkpt lat="36.82704" lon="28.62648">
        <ele>27</ele>
      </trkpt>
      <trkpt lat="36.82708" lon="28.62667">
        <ele>30</ele>
      </trkpt>
      <trkpt lat="36.82711" lon="28.62683">
        <ele>27</ele>
      </trkpt>
      <trkpt lat="36.82713" lon="28.62709">
        <ele>21.8</ele>
      </trkpt>
      <trkpt lat="36.82713" lon="28.62742">
        <ele>15.4</ele>
      </trkpt>
      <trkpt lat="36.82719" lon="28.62784">
        <ele>12.8</ele>
      </trkpt>
      <trkpt lat="36.82701" lon="28.62814">
        <ele>14.9</ele>
      </trkpt>
      <trkpt lat="36.82689" lon="28.62836">
        <ele>13.6</ele>
      </trkpt>
      <trkpt lat="36.82677" lon="28.62848">
        <ele>12</ele>
      </trkpt>
      <trkpt lat="36.82663" lon="28.62862">
        <ele>10.9</ele>
      </trkpt>
      <trkpt lat="36.82649" lon="28.62878">
        <ele>10.8</ele>
      </trkpt>
      <trkpt lat="36.82634" lon="28.62904">
        <ele>8.3</ele>
      </trkpt>
      <trkpt lat="36.82631" lon="28.62922">
        <ele>6.8</ele>
      </trkpt>
      <trkpt lat="36.8263" lon="28.62952">
        <ele>9.3</ele>
      </trkpt>
      <trkpt lat="36.82625" lon="28.62997">
        <ele>12.8</ele>
      </trkpt>
      <trkpt lat="36.8262" lon="28.63029">
        <ele>10.4</ele>
      </trkpt>
      <trkpt lat="36.82621" lon="28.63066">
        <ele>7</ele>
      </trkpt>
      <trkpt lat="36.82625" lon="28.63089">
        <ele>4.9</ele>
      </trkpt>
      <trkpt lat="36.82625" lon="28.63089">
        <ele>4.9</ele>
      </trkpt>
      <trkpt lat="36.82625" lon="28.63089">
        <ele>4.9</ele>
      </trkpt>
      <trkpt lat="36.82625" lon="28.63089">
        <ele>4.9</ele>
      </trkpt>
      <trkpt lat="36.82625" lon="28.63089">
        <ele>4.9</ele>
      </trkpt>
      <trkpt lat="36.82625" lon="28.63089">
        <ele>4.9</ele>
      </trkpt>
      <trkpt lat="36.82625" lon="28.63089">
        <ele>4.9</ele>
      </trkpt>
      <trkpt lat="36.82625" lon="28.63089">
        <ele>4.9</ele>
      </trkpt>
      <trkpt lat="36.82625" lon="28.63089">
        <ele>4.9</ele>
      </trkpt>
      <trkpt lat="36.82625" lon="28.63089">
        <ele>4.9</ele>
      </trkpt>
      <trkpt lat="36.82625" lon="28.63089">
        <ele>4.9</ele>
      </trkpt>
      <trkpt lat="36.82625" lon="28.63089">
        <ele>4.9</ele>
      </trkpt>
      <trkpt lat="36.82625" lon="28.63089">
        <ele>4.9</ele>
      </trkpt>
      <trkpt lat="36.82625" lon="28.63089">
        <ele>4.9</ele>
      </trkpt>
      <trkpt lat="36.82625" lon="28.63089">
        <ele>4.9</ele>
      </trkpt>
      <trkpt lat="36.82625" lon="28.63089">
        <ele>4.9</ele>
      </trkpt>
      <trkpt lat="36.82625" lon="28.63089">
        <ele>4.9</ele>
      </trkpt>
      <trkpt lat="36.82625" lon="28.63089">
        <ele>4.9</ele>
      </trkpt>
      <trkpt lat="36.82625" lon="28.63089">
        <ele>4.9</ele>
      </trkpt>
      <trkpt lat="36.82625" lon="28.63089">
        <ele>4.9</ele>
      </trkpt>
      <trkpt lat="36.82625" lon="28.63089">
        <ele>4.9</ele>
      </trkpt>
      <trkpt lat="36.82506" lon="28.63451">
        <ele>2.4</ele>
      </trkpt>
      <trkpt lat="36.82566" lon="28.63522">
        <ele>2.7</ele>
      </trkpt>
      <trkpt lat="36.82673" lon="28.63654">
        <ele>2</ele>
      </trkpt>
      <trkpt lat="36.82725" lon="28.63707">
        <ele>2</ele>
      </trkpt>
      <trkpt lat="36.82795" lon="28.6376">
        <ele>2.1</ele>
      </trkpt>
      <trkpt lat="36.82846" lon="28.6375">
        <ele>3</ele>
      </trkpt>
      <trkpt lat="36.82921" lon="28.63796">
        <ele>3.5</ele>
      </trkpt>
      <trkpt lat="36.82987" lon="28.63836">
        <ele>3.2</ele>
      </trkpt>
      <trkpt lat="36.83017" lon="28.63866">
        <ele>3.4</ele>
      </trkpt>
      <trkpt lat="36.83096" lon="28.63899">
        <ele>3.9</ele>
      </trkpt>
      <trkpt lat="36.83106" lon="28.6392">
        <ele>4.3</ele>
      </trkpt>
      <trkpt lat="36.8318" lon="28.63961">
        <ele>5.4</ele>
      </trkpt>
      <trkpt lat="36.83329" lon="28.6409">
        <ele>4.2</ele>
      </trkpt>
      <trkpt lat="36.8337" lon="28.64139">
        <ele>4.4</ele>
      </trkpt>
      <trkpt lat="36.83378" lon="28.64274">
        <ele>4.1</ele>
      </trkpt>
      <trkpt lat="36.83413" lon="28.64277">
        <ele>4.3</ele>
      </trkpt>
      <trkpt lat="36.8354" lon="28.64572">
        <ele>4.5</ele>
      </trkpt>
      <trkpt lat="36.83579" lon="28.64714">
        <ele>3.1</ele>
      </trkpt>
      <trkpt lat="36.83601" lon="28.64783">
        <ele>3.9</ele>
      </trkpt>
      <trkpt lat="36.83633" lon="28.65203">
        <ele>3.9</ele>
      </trkpt>
      <trkpt lat="36.83661" lon="28.65553">
        <ele>5.6</ele>
      </trkpt>
      <trkpt lat="36.8369" lon="28.6588">
        <ele>5.5</ele>
      </trkpt>
      <trkpt lat="36.83701" lon="28.66051">
        <ele>6.7</ele>
      </trkpt>
      <trkpt lat="36.83725" lon="28.66347">
        <ele>6.2</ele>
      </trkpt>
      <trkpt lat="36.83722" lon="28.66479">
        <ele>7.9</ele>
      </trkpt>
      <trkpt lat="36.83726" lon="28.66641">
        <ele>8.9</ele>
      </trkpt>
      <trkpt lat="36.83722" lon="28.66738">
        <ele>9</ele>
      </trkpt>
      <trkpt lat="36.83713" lon="28.67007">
        <ele>7.9</ele>
      </trkpt>
      <trkpt lat="36.83704" lon="28.67223">
        <ele>9.4</ele>
      </trkpt>
      <trkpt lat="36.83701" lon="28.67402">
        <ele>9</ele>
      </trkpt>
      <trkpt lat="36.83715" lon="28.67836">
        <ele>8.4</ele>
      </trkpt>
      <trkpt lat="36.83723" lon="28.68088">
        <ele>9</ele>
      </trkpt>
      <trkpt lat="36.83735" lon="28.68524">
        <ele>8.9</ele>
      </trkpt>
      <trkpt lat="36.83742" lon="28.68827">
        <ele>9.2</ele>
      </trkpt>
      <trkpt lat="36.83748" lon="28.69152">
        <ele>11</ele>
      </trkpt>
      <trkpt lat="36.83755" lon="28.69426">
        <ele>11.7</ele>
      </trkpt>
      <trkpt lat="36.83764" lon="28.6961">
        <ele>10.2</ele>
      </trkpt>
      <trkpt lat="36.83787" lon="28.69732">
        <ele>11.4</ele>
      </trkpt>
      <trkpt lat="36.83827" lon="28.69846">
        <ele>11</ele>
      </trkpt>
      <trkpt lat="36.83868" lon="28.69927">
        <ele>11.3</ele>
      </trkpt>
      <trkpt lat="36.83933" lon="28.70027">
        <ele>10.9</ele>
      </trkpt>
      <trkpt lat="36.84032" lon="28.70157">
        <ele>11</ele>
      </trkpt>
      <trkpt lat="36.84112" lon="28.70263">
        <ele>11.8</ele>
      </trkpt>
      <trkpt lat="36.84851" lon="28.71367">
        <ele>15.3</ele>
      </trkpt>
      <trkpt lat="36.8491" lon="28.71474">
        <ele>15.1</ele>
      </trkpt>
      <trkpt lat="36.8497" lon="28.71627">
        <ele>15.5</ele>
      </trkpt>
      <trkpt lat="36.85004" lon="28.71808">
        <ele>17.3</ele>
      </trkpt>
      <trkpt lat="36.85001" lon="28.72067">
        <ele>18.8</ele>
      </trkpt>
      <trkpt lat="36.84995" lon="28.72394">
        <ele>17.8</ele>
      </trkpt>
      <trkpt lat="36.84995" lon="28.72684">
        <ele>17.8</ele>
      </trkpt>
      <trkpt lat="36.85025" lon="28.72986">
        <ele>17.3</ele>
      </trkpt>
      <trkpt lat="36.8507" lon="28.73431">
        <ele>19</ele>
      </trkpt>
      <trkpt lat="36.8511" lon="28.73799">
        <ele>20.1</ele>
      </trkpt>
      <trkpt lat="36.85104" lon="28.73931">
        <ele>20.3</ele>
      </trkpt>
      <trkpt lat="36.85066" lon="28.74072">
        <ele>21.8</ele>
      </trkpt>
      <trkpt lat="36.84927" lon="28.74366">
        <ele>22.2</ele>
      </trkpt>
      <trkpt lat="36.84796" lon="28.74617">
        <ele>23.2</ele>
      </trkpt>
      <trkpt lat="36.84579" lon="28.75059">
        <ele>25.9</ele>
      </trkpt>
      <trkpt lat="36.84451" lon="28.75353">
        <ele>27.9</ele>
      </trkpt>
      <trkpt lat="36.84394" lon="28.75472">
        <ele>27.3</ele>
      </trkpt>
      <trkpt lat="36.84369" lon="28.75499">
        <ele>27.6</ele>
      </trkpt>
      <trkpt lat="36.84346" lon="28.75584">
        <ele>28.7</ele>
      </trkpt>
      <trkpt lat="36.84239" lon="28.75835">
        <ele>29</ele>
      </trkpt>
      <trkpt lat="36.84092" lon="28.76141">
        <ele>26.5</ele>
      </trkpt>
      <trkpt lat="36.83929" lon="28.76452">
        <ele>28.9</ele>
      </trkpt>
      <trkpt lat="36.83888" lon="28.76523">
        <ele>28.5</ele>
      </trkpt>
      <trkpt lat="36.83871" lon="28.76535">
        <ele>28.6</ele>
      </trkpt>
      <trkpt lat="36.83853" lon="28.76606">
        <ele>27.9</ele>
      </trkpt>
      <trkpt lat="36.83631" lon="28.76989">
        <ele>30.2</ele>
      </trkpt>
      <trkpt lat="36.83539" lon="28.77147">
        <ele>27.8</ele>
      </trkpt>
      <trkpt lat="36.83436" lon="28.77339">
        <ele>25.2</ele>
      </trkpt>
      <trkpt lat="36.83414" lon="28.77436">
        <ele>25.3</ele>
      </trkpt>
      <trkpt lat="36.83406" lon="28.77468">
        <ele>27.2</ele>
      </trkpt>
      <trkpt lat="36.83376" lon="28.77498">
        <ele>27</ele>
      </trkpt>
      <trkpt lat="36.83307" lon="28.77606">
        <ele>27</ele>
      </trkpt>
      <trkpt lat="36.83224" lon="28.77762">
        <ele>21.9</ele>
      </trkpt>
      <trkpt lat="36.8308" lon="28.78049">
        <ele>23.7</ele>
      </trkpt>
      <trkpt lat="36.82985" lon="28.78242">
        <ele>18.7</ele>
      </trkpt>
      <trkpt lat="36.82879" lon="28.78391">
        <ele>20</ele>
      </trkpt>
      <trkpt lat="36.8276" lon="28.78573">
        <ele>20</ele>
      </trkpt>
      <trkpt lat="36.82401" lon="28.79086">
        <ele>22.4</ele>
      </trkpt>
      <trkpt lat="36.82076" lon="28.79548">
        <ele>22.6</ele>
      </trkpt>
      <trkpt lat="36.81812" lon="28.79924">
        <ele>25.6</ele>
      </trkpt>
      <trkpt lat="36.81589" lon="28.80258">
        <ele>23.1</ele>
      </trkpt>
      <trkpt lat="36.81415" lon="28.80512">
        <ele>43</ele>
      </trkpt>
      <trkpt lat="36.81295" lon="28.80681">
        <ele>32.7</ele>
      </trkpt>
      <trkpt lat="36.81178" lon="28.80987">
        <ele>26.5</ele>
      </trkpt>
      <trkpt lat="36.81093" lon="28.81184">
        <ele>28</ele>
      </trkpt>
      <trkpt lat="36.80975" lon="28.81349">
        <ele>27.6</ele>
      </trkpt>
      <trkpt lat="36.80857" lon="28.81463">
        <ele>25.4</ele>
      </trkpt>
      <trkpt lat="36.80618" lon="28.81564">
        <ele>26.6</ele>
      </trkpt>
      <trkpt lat="36.80399" lon="28.81626">
        <ele>38.7</ele>
      </trkpt>
      <trkpt lat="36.80248" lon="28.8166">
        <ele>26.6</ele>
      </trkpt>
      <trkpt lat="36.80112" lon="28.81738">
        <ele>31.4</ele>
      </trkpt>
      <trkpt lat="36.79975" lon="28.81831">
        <ele>21.7</ele>
      </trkpt>
      <trkpt lat="36.7975" lon="28.82066">
        <ele>22.6</ele>
      </trkpt>
      <trkpt lat="36.79547" lon="28.82273">
        <ele>24.4</ele>
      </trkpt>
      <trkpt lat="36.7937" lon="28.82498">
        <ele>25.2</ele>
      </trkpt>
      <trkpt lat="36.79191" lon="28.829">
        <ele>16.3</ele>
      </trkpt>
      <trkpt lat="36.79108" lon="28.83064">
        <ele>17.8</ele>
      </trkpt>
      <trkpt lat="36.78957" lon="28.83221">
        <ele>17.7</ele>
      </trkpt>
      <trkpt lat="36.78438" lon="28.83596">
        <ele>15.9</ele>
      </trkpt>
      <trkpt lat="36.78058" lon="28.83876">
        <ele>27.1</ele>
      </trkpt>
      <trkpt lat="36.77907" lon="28.83973">
        <ele>45</ele>
      </trkpt>
      <trkpt lat="36.77635" lon="28.84318">
        <ele>67.7</ele>
      </trkpt>
      <trkpt lat="36.77314" lon="28.84706">
        <ele>98</ele>
      </trkpt>
      <trkpt lat="36.76983" lon="28.84986">
        <ele>128.4</ele>
      </trkpt>
      <trkpt lat="36.76706" lon="28.85508">
        <ele>140.3</ele>
      </trkpt>
      <trkpt lat="36.76502" lon="28.85909">
        <ele>169.6</ele>
      </trkpt>
      <trkpt lat="36.76332" lon="28.86316">
        <ele>181.4</ele>
      </trkpt>
      <trkpt lat="36.76293" lon="28.86479">
        <ele>189.4</ele>
      </trkpt>
      <trkpt lat="36.76162" lon="28.86643">
        <ele>187.9</ele>
      </trkpt>
      <trkpt lat="36.76059" lon="28.86856">
        <ele>205.5</ele>
      </trkpt>
      <trkpt lat="36.75996" lon="28.87159">
        <ele>213.4</ele>
      </trkpt>
      <trkpt lat="36.76025" lon="28.87487">
        <ele>210.2</ele>
      </trkpt>
      <trkpt lat="36.76066" lon="28.88144">
        <ele>190.3</ele>
      </trkpt>
      <trkpt lat="36.76095" lon="28.88788">
        <ele>234.2</ele>
      </trkpt>
      <trkpt lat="36.76144" lon="28.89243">
        <ele>334.9</ele>
      </trkpt>
      <trkpt lat="36.76212" lon="28.89607">
        <ele>264.2</ele>
      </trkpt>
      <trkpt lat="36.76339" lon="28.90074">
        <ele>165</ele>
      </trkpt>
      <trkpt lat="36.76368" lon="28.90354">
        <ele>161.1</ele>
      </trkpt>
      <trkpt lat="36.76343" lon="28.90675">
        <ele>139.3</ele>
      </trkpt>
      <trkpt lat="36.7636" lon="28.90896">
        <ele>123.8</ele>
      </trkpt>
      <trkpt lat="36.76506" lon="28.91138">
        <ele>107.9</ele>
      </trkpt>
      <trkpt lat="36.76544" lon="28.91296">
        <ele>114.5</ele>
      </trkpt>
      <trkpt lat="36.76326" lon="28.91994">
        <ele>66.6</ele>
      </trkpt>
      <trkpt lat="36.76197" lon="28.92384">
        <ele>45.6</ele>
      </trkpt>
      <trkpt lat="36.7607" lon="28.92681">
        <ele>35.5</ele>
      </trkpt>
      <trkpt lat="36.75939" lon="28.92997">
        <ele>28.9</ele>
      </trkpt>
      <trkpt lat="36.75895" lon="28.93252">
        <ele>27.3</ele>
      </trkpt>
      <trkpt lat="36.75856" lon="28.93331">
        <ele>15.9</ele>
      </trkpt>
      <trkpt lat="36.75846" lon="28.93473">
        <ele>15</ele>
      </trkpt>
      <trkpt lat="36.75893" lon="28.93642">
        <ele>11.9</ele>
      </trkpt>
      <trkpt lat="36.76231" lon="28.93926">
        <ele>22.5</ele>
      </trkpt>
      <trkpt lat="36.76315" lon="28.9415">
        <ele>17.4</ele>
      </trkpt>
      <trkpt lat="36.76281" lon="28.94436">
        <ele>9.2</ele>
      </trkpt>
      <trkpt lat="36.76179" lon="28.94742">
        <ele>15.1</ele>
      </trkpt>
      <trkpt lat="36.76166" lon="28.94784">
        <ele>15.9</ele>
      </trkpt>
      <trkpt lat="36.76037" lon="28.95184">
        <ele>22.6</ele>
      </trkpt>
      <trkpt lat="36.75867" lon="28.95828">
        <ele>34.8</ele>
      </trkpt>
      <trkpt lat="36.75784" lon="28.95916">
        <ele>42</ele>
      </trkpt>
      <trkpt lat="36.75685" lon="28.95897">
        <ele>53</ele>
      </trkpt>
      <trkpt lat="36.75633" lon="28.95828">
        <ele>64.6</ele>
      </trkpt>
      <trkpt lat="36.75596" lon="28.95604">
        <ele>68.4</ele>
      </trkpt>
      <trkpt lat="36.75557" lon="28.95536">
        <ele>74.1</ele>
      </trkpt>
      <trkpt lat="36.75482" lon="28.95545">
        <ele>83</ele>
      </trkpt>
      <trkpt lat="36.75427" lon="28.95701">
        <ele>100</ele>
      </trkpt>
      <trkpt lat="36.75346" lon="28.95805">
        <ele>110.7</ele>
      </trkpt>
      <trkpt lat="36.75281" lon="28.95902">
        <ele>128.3</ele>
      </trkpt>
      <trkpt lat="36.75239" lon="28.96172">
        <ele>113.8</ele>
      </trkpt>
      <trkpt lat="36.75153" lon="28.96283">
        <ele>97</ele>
      </trkpt>
      <trkpt lat="36.74784" lon="28.96453">
        <ele>58.4</ele>
      </trkpt>
      <trkpt lat="36.74698" lon="28.96427">
        <ele>56.5</ele>
      </trkpt>
      <trkpt lat="36.74633" lon="28.96347">
        <ele>46.5</ele>
      </trkpt>
      <trkpt lat="36.74544" lon="28.96207">
        <ele>43.7</ele>
      </trkpt>
      <trkpt lat="36.74459" lon="28.9614">
        <ele>45.5</ele>
      </trkpt>
      <trkpt lat="36.74319" lon="28.96138">
        <ele>37</ele>
      </trkpt>
      <trkpt lat="36.742" lon="28.96256">
        <ele>17.5</ele>
      </trkpt>
      <trkpt lat="36.7399" lon="28.96677">
        <ele>16.1</ele>
      </trkpt>
      <trkpt lat="36.73864" lon="28.97111">
        <ele>12.8</ele>
      </trkpt>
      <trkpt lat="36.73856" lon="28.97466">
        <ele>13.7</ele>
      </trkpt>
      <trkpt lat="36.73939" lon="28.97954">
        <ele>13.9</ele>
      </trkpt>
      <trkpt lat="36.74065" lon="28.985">
        <ele>30</ele>
      </trkpt>
      <trkpt lat="36.74179" lon="28.98899">
        <ele>25.3</ele>
      </trkpt>
      <trkpt lat="36.74378" lon="28.99276">
        <ele>31.1</ele>
      </trkpt>
      <trkpt lat="36.74631" lon="28.9968">
        <ele>49.4</ele>
      </trkpt>
      <trkpt lat="36.74731" lon="28.9986">
        <ele>45.7</ele>
      </trkpt>
      <trkpt lat="36.74745" lon="29.0017">
        <ele>56.5</ele>
      </trkpt>
      <trkpt lat="36.74747" lon="29.00463">
        <ele>60.7</ele>
      </trkpt>
      <trkpt lat="36.74689" lon="29.00626">
        <ele>65.7</ele>
      </trkpt>
      <trkpt lat="36.74562" lon="29.00782">
        <ele>77</ele>
      </trkpt>
      <trkpt lat="36.74517" lon="29.00931">
        <ele>81.7</ele>
      </trkpt>
      <trkpt lat="36.74538" lon="29.01076">
        <ele>85.6</ele>
      </trkpt>
      <trkpt lat="36.74629" lon="29.01209">
        <ele>96.6</ele>
      </trkpt>
      <trkpt lat="36.74631" lon="29.01372">
        <ele>109.2</ele>
      </trkpt>
      <trkpt lat="36.74574" lon="29.0178">
        <ele>126</ele>
      </trkpt>
      <trkpt lat="36.7454" lon="29.01952">
        <ele>136.2</ele>
      </trkpt>
      <trkpt lat="36.74485" lon="29.02016">
        <ele>142.9</ele>
      </trkpt>
      <trkpt lat="36.74328" lon="29.0208">
        <ele>163.8</ele>
      </trkpt>
      <trkpt lat="36.74128" lon="29.02119">
        <ele>160.4</ele>
      </trkpt>
      <trkpt lat="36.74037" lon="29.02084">
        <ele>156.7</ele>
      </trkpt>
      <trkpt lat="36.73972" lon="29.02037">
        <ele>152.8</ele>
      </trkpt>
      <trkpt lat="36.73885" lon="29.02047">
        <ele>146.6</ele>
      </trkpt>
      <trkpt lat="36.73808" lon="29.02141">
        <ele>138.4</ele>
      </trkpt>
      <trkpt lat="36.73715" lon="29.02252">
        <ele>121.9</ele>
      </trkpt>
      <trkpt lat="36.73619" lon="29.02301">
        <ele>112.9</ele>
      </trkpt>
      <trkpt lat="36.7351" lon="29.02291">
        <ele>114.6</ele>
      </trkpt>
      <trkpt lat="36.7337" lon="29.02302">
        <ele>99.4</ele>
      </trkpt>
      <trkpt lat="36.73248" lon="29.02374">
        <ele>90.4</ele>
      </trkpt>
      <trkpt lat="36.73007" lon="29.02555">
        <ele>62.8</ele>
      </trkpt>
      <trkpt lat="36.72873" lon="29.02633">
        <ele>50.8</ele>
      </trkpt>
      <trkpt lat="36.72504" lon="29.02662">
        <ele>31.7</ele>
      </trkpt>
      <trkpt lat="36.7238" lon="29.02725">
        <ele>28.2</ele>
      </trkpt>
      <trkpt lat="36.72266" lon="29.02888">
        <ele>26.6</ele>
      </trkpt>
      <trkpt lat="36.72172" lon="29.0295">
        <ele>24</ele>
      </trkpt>
      <trkpt lat="36.71988" lon="29.02975">
        <ele>45</ele>
      </trkpt>
      <trkpt lat="36.71648" lon="29.02981">
        <ele>76.2</ele>
      </trkpt>
      <trkpt lat="36.71535" lon="29.02914">
        <ele>76.1</ele>
      </trkpt>
      <trkpt lat="36.71482" lon="29.02914">
        <ele>87.3</ele>
      </trkpt>
      <trkpt lat="36.71426" lon="29.02951">
        <ele>98.7</ele>
      </trkpt>
      <trkpt lat="36.71392" lon="29.0304">
        <ele>92.5</ele>
      </trkpt>
      <trkpt lat="36.71372" lon="29.03247">
        <ele>93.7</ele>
      </trkpt>
      <trkpt lat="36.7139" lon="29.03338">
        <ele>85.9</ele>
      </trkpt>
      <trkpt lat="36.71505" lon="29.03513">
        <ele>92.5</ele>
      </trkpt>
      <trkpt lat="36.71529" lon="29.03587">
        <ele>83.2</ele>
      </trkpt>
      <trkpt lat="36.71503" lon="29.03695">
        <ele>89.2</ele>
      </trkpt>
      <trkpt lat="36.71378" lon="29.03872">
        <ele>111.7</ele>
      </trkpt>
      <trkpt lat="36.71304" lon="29.03953">
        <ele>109.8</ele>
      </trkpt>
      <trkpt lat="36.71174" lon="29.0404">
        <ele>115.4</ele>
      </trkpt>
      <trkpt lat="36.71032" lon="29.04089">
        <ele>104.8</ele>
      </trkpt>
      <trkpt lat="36.70885" lon="29.04108">
        <ele>86.3</ele>
      </trkpt>
      <trkpt lat="36.70754" lon="29.04117">
        <ele>68.9</ele>
      </trkpt>
      <trkpt lat="36.70693" lon="29.04172">
        <ele>57.9</ele>
      </trkpt>
      <trkpt lat="36.70645" lon="29.04283">
        <ele>46.5</ele>
      </trkpt>
      <trkpt lat="36.70669" lon="29.0443">
        <ele>45.2</ele>
      </trkpt>
      <trkpt lat="36.70749" lon="29.04684">
        <ele>22.3</ele>
      </trkpt>
      <trkpt lat="36.70674" lon="29.0508">
        <ele>15.4</ele>
      </trkpt>
      <trkpt lat="36.70561" lon="29.05402">
        <ele>19</ele>
      </trkpt>
      <trkpt lat="36.70318" lon="29.05719">
        <ele>13.7</ele>
      </trkpt>
      <trkpt lat="36.70099" lon="29.0591">
        <ele>12.1</ele>
      </trkpt>
      <trkpt lat="36.70002" lon="29.06064">
        <ele>19.6</ele>
      </trkpt>
      <trkpt lat="36.69978" lon="29.06374">
        <ele>17.2</ele>
      </trkpt>
      <trkpt lat="36.6989" lon="29.06666">
        <ele>8.6</ele>
      </trkpt>
      <trkpt lat="36.6921" lon="29.0794">
        <ele>8.2</ele>
      </trkpt>
      <trkpt lat="36.69099" lon="29.08362">
        <ele>5.4</ele>
      </trkpt>
      <trkpt lat="36.68913" lon="29.09322">
        <ele>5.8</ele>
      </trkpt>
      <trkpt lat="36.68836" lon="29.09656">
        <ele>15.6</ele>
      </trkpt>
      <trkpt lat="36.68713" lon="29.10344">
        <ele>8.2</ele>
      </trkpt>
      <trkpt lat="36.6862" lon="29.10801">
        <ele>27.5</ele>
      </trkpt>
      <trkpt lat="36.68362" lon="29.11466">
        <ele>23.3</ele>
      </trkpt>
      <trkpt lat="36.68084" lon="29.12098">
        <ele>22.4</ele>
      </trkpt>
      <trkpt lat="36.67653" lon="29.12918">
        <ele>48.7</ele>
      </trkpt>
      <trkpt lat="36.67433" lon="29.13135">
        <ele>39.6</ele>
      </trkpt>
      <trkpt lat="36.67238" lon="29.13106">
        <ele>30.3</ele>
      </trkpt>
      <trkpt lat="36.66645" lon="29.13165">
        <ele>18</ele>
      </trkpt>
      <trkpt lat="36.6621" lon="29.13211">
        <ele>18.5</ele>
      </trkpt>
      <trkpt lat="36.6576" lon="29.13226">
        <ele>17.7</ele>
      </trkpt>
      <trkpt lat="36.65368" lon="29.13203">
        <ele>12.6</ele>
      </trkpt>
      <trkpt lat="36.64669" lon="29.1317">
        <ele>8.2</ele>
      </trkpt>
      <trkpt lat="36.64079" lon="29.13154">
        <ele>8.9</ele>
      </trkpt>
      <trkpt lat="36.63439" lon="29.13129">
        <ele>11.4</ele>
      </trkpt>
      <trkpt lat="36.62886" lon="29.13201">
        <ele>11.9</ele>
      </trkpt>
      <trkpt lat="36.62204" lon="29.13272">
        <ele>10.4</ele>
      </trkpt>
      <trkpt lat="36.61925" lon="29.13314">
        <ele>14.1</ele>
      </trkpt>
      <trkpt lat="36.61937" lon="29.13609">
        <ele>13.5</ele>
      </trkpt>
      <trkpt lat="36.61808" lon="29.14335">
        <ele>32.8</ele>
      </trkpt>
      <trkpt lat="36.61787" lon="29.14694">
        <ele>47.1</ele>
      </trkpt>
      <trkpt lat="36.61692" lon="29.14824">
        <ele>60.1</ele>
      </trkpt>
      <trkpt lat="36.61506" lon="29.15045">
        <ele>80.3</ele>
      </trkpt>
      <trkpt lat="36.61292" lon="29.15043">
        <ele>103.4</ele>
      </trkpt>
      <trkpt lat="36.6116" lon="29.15058">
        <ele>114.2</ele>
      </trkpt>
      <trkpt lat="36.61019" lon="29.15178">
        <ele>140.7</ele>
      </trkpt>
      <trkpt lat="36.60944" lon="29.15178">
        <ele>150.7</ele>
      </trkpt>
      <trkpt lat="36.60796" lon="29.15132">
        <ele>172.5</ele>
      </trkpt>
      <trkpt lat="36.60529" lon="29.14998">
        <ele>191.7</ele>
      </trkpt>
      <trkpt lat="36.60433" lon="29.15031">
        <ele>203.8</ele>
      </trkpt>
      <trkpt lat="36.60313" lon="29.15162">
        <ele>228.9</ele>
      </trkpt>
      <trkpt lat="36.60127" lon="29.15191">
        <ele>236.2</ele>
      </trkpt>
      <trkpt lat="36.59986" lon="29.15296">
        <ele>255.1</ele>
      </trkpt>
      <trkpt lat="36.59912" lon="29.1531">
        <ele>268.8</ele>
      </trkpt>
      <trkpt lat="36.59766" lon="29.15198">
        <ele>285.5</ele>
      </trkpt>
      <trkpt lat="36.59526" lon="29.1524">
        <ele>314.7</ele>
      </trkpt>
      <trkpt lat="36.59361" lon="29.15244">
        <ele>342.8</ele>
      </trkpt>
      <trkpt lat="36.59196" lon="29.15225">
        <ele>344.1</ele>
      </trkpt>
      <trkpt lat="36.58934" lon="29.15468">
        <ele>352.1</ele>
      </trkpt>
      <trkpt lat="36.58549" lon="29.15662">
        <ele>365.6</ele>
      </trkpt>
      <trkpt lat="36.58268" lon="29.15519">
        <ele>351.2</ele>
      </trkpt>
      <trkpt lat="36.57835" lon="29.15297">
        <ele>343.8</ele>
      </trkpt>
      <trkpt lat="36.57661" lon="29.15088">
        <ele>343.5</ele>
      </trkpt>
      <trkpt lat="36.57409" lon="29.14913">
        <ele>345.7</ele>
      </trkpt>
      <trkpt lat="36.57214" lon="29.14569">
        <ele>339.6</ele>
      </trkpt>
      <trkpt lat="36.5713" lon="29.14289">
        <ele>329</ele>
      </trkpt>
      <trkpt lat="36.57031" lon="29.14046">
        <ele>318.7</ele>
      </trkpt>
      <trkpt lat="36.56877" lon="29.1405">
        <ele>322.1</ele>
      </trkpt>
      <trkpt lat="36.56757" lon="29.14069">
        <ele>318.4</ele>
      </trkpt>
      <trkpt lat="36.56682" lon="29.13964">
        <ele>311.5</ele>
      </trkpt>
      <trkpt lat="36.56676" lon="29.13942">
        <ele>309.5</ele>
      </trkpt>
      <trkpt lat="36.56676" lon="29.13942">
        <ele>309.5</ele>
      </trkpt>
      <trkpt lat="36.56676" lon="29.13942">
        <ele>309.5</ele>
      </trkpt>
      <trkpt lat="36.56676" lon="29.13942">
        <ele>309.5</ele>
      </trkpt>
      <trkpt lat="36.56676" lon="29.13942">
        <ele>309.5</ele>
      </trkpt>
      <trkpt lat="36.56666" lon="29.13904">
        <ele>306</ele>
      </trkpt>
      <trkpt lat="36.56653" lon="29.13835">
        <ele>305.6</ele>
      </trkpt>
      <trkpt lat="36.56649" lon="29.13802">
        <ele>302.7</ele>
      </trkpt>
      <trkpt lat="36.56648" lon="29.13783">
        <ele>301</ele>
      </trkpt>
      <trkpt lat="36.56647" lon="29.13763">
        <ele>299.3</ele>
      </trkpt>
      <trkpt lat="36.56638" lon="29.1376">
        <ele>298.1</ele>
      </trkpt>
      <trkpt lat="36.5663" lon="29.13752">
        <ele>296.6</ele>
      </trkpt>
      <trkpt lat="36.56619" lon="29.13751">
        <ele>295.6</ele>
      </trkpt>
      <trkpt lat="36.566" lon="29.13759">
        <ele>294.7</ele>
      </trkpt>
      <trkpt lat="36.56576" lon="29.13783">
        <ele>295.7</ele>
      </trkpt>
      <trkpt lat="36.56553" lon="29.13792">
        <ele>295.2</ele>
      </trkpt>
      <trkpt lat="36.56523" lon="29.13826">
        <ele>298.9</ele>
      </trkpt>
      <trkpt lat="36.56499" lon="29.13844">
        <ele>301.1</ele>
      </trkpt>
      <trkpt lat="36.56489" lon="29.13853">
        <ele>303</ele>
      </trkpt>
      <trkpt lat="36.56478" lon="29.13866">
        <ele>305.7</ele>
      </trkpt>
      <trkpt lat="36.56467" lon="29.13892">
        <ele>310.8</ele>
      </trkpt>
      <trkpt lat="36.56457" lon="29.13921">
        <ele>316.1</ele>
      </trkpt>
      <trkpt lat="36.56447" lon="29.13937">
        <ele>318.4</ele>
      </trkpt>
      <trkpt lat="36.56434" lon="29.1395">
        <ele>320.3</ele>
      </trkpt>
      <trkpt lat="36.56424" lon="29.13957">
        <ele>321.3</ele>
      </trkpt>
      <trkpt lat="36.56415" lon="29.13957">
        <ele>321.7</ele>
      </trkpt>
      <trkpt lat="36.56396" lon="29.13952">
        <ele>324.2</ele>
      </trkpt>
      <trkpt lat="36.56348" lon="29.1393">
        <ele>329</ele>
      </trkpt>
      <trkpt lat="36.56328" lon="29.1391">
        <ele>329</ele>
      </trkpt>
      <trkpt lat="36.56307" lon="29.13895">
        <ele>330.2</ele>
      </trkpt>
      <trkpt lat="36.56267" lon="29.1387">
        <ele>333.8</ele>
      </trkpt>
      <trkpt lat="36.5623" lon="29.13855">
        <ele>338.1</ele>
      </trkpt>
      <trkpt lat="36.56209" lon="29.13843">
        <ele>340.3</ele>
      </trkpt>
      <trkpt lat="36.56202" lon="29.13828">
        <ele>340.4</ele>
      </trkpt>
      <trkpt lat="36.56187" lon="29.13814">
        <ele>342.2</ele>
      </trkpt>
      <trkpt lat="36.5616" lon="29.13794">
        <ele>343.8</ele>
      </trkpt>
      <trkpt lat="36.56132" lon="29.13774">
        <ele>340.1</ele>
      </trkpt>
      <trkpt lat="36.56103" lon="29.13768">
        <ele>337.1</ele>
      </trkpt>
      <trkpt lat="36.56081" lon="29.13775">
        <ele>336.3</ele>
      </trkpt>
      <trkpt lat="36.56065" lon="29.13786">
        <ele>336</ele>
      </trkpt>
      <trkpt lat="36.56055" lon="29.13805">
        <ele>337.5</ele>
      </trkpt>
      <trkpt lat="36.56043" lon="29.13831">
        <ele>339.5</ele>
      </trkpt>
      <trkpt lat="36.56034" lon="29.13844">
        <ele>340.5</ele>
      </trkpt>
      <trkpt lat="36.56022" lon="29.1385">
        <ele>340.1</ele>
      </trkpt>
      <trkpt lat="36.55999" lon="29.1385">
        <ele>337.4</ele>
      </trkpt>
      <trkpt lat="36.55981" lon="29.13841">
        <ele>335.5</ele>
      </trkpt>
      <trkpt lat="36.5597" lon="29.13837">
        <ele>334.6</ele>
      </trkpt>
      <trkpt lat="36.55953" lon="29.13832">
        <ele>333.1</ele>
      </trkpt>
      <trkpt lat="36.55939" lon="29.13831">
        <ele>332.8</ele>
      </trkpt>
      <trkpt lat="36.55929" lon="29.13833">
        <ele>333.1</ele>
      </trkpt>
      <trkpt lat="36.55911" lon="29.1384">
        <ele>334.3</ele>
      </trkpt>
      <trkpt lat="36.55891" lon="29.1385">
        <ele>334.8</ele>
      </trkpt>
      <trkpt lat="36.5586" lon="29.13864">
        <ele>335.5</ele>
      </trkpt>
      <trkpt lat="36.5584" lon="29.1387">
        <ele>334.7</ele>
      </trkpt>
      <trkpt lat="36.55824" lon="29.13873">
        <ele>335.5</ele>
      </trkpt>
      <trkpt lat="36.55814" lon="29.13878">
        <ele>337.6</ele>
      </trkpt>
      <trkpt lat="36.55802" lon="29.13878">
        <ele>338.2</ele>
      </trkpt>
      <trkpt lat="36.55788" lon="29.13869">
        <ele>336.5</ele>
      </trkpt>
      <trkpt lat="36.55765" lon="29.13845">
        <ele>330.5</ele>
      </trkpt>
      <trkpt lat="36.55743" lon="29.13808">
        <ele>322.8</ele>
      </trkpt>
      <trkpt lat="36.55735" lon="29.13789">
        <ele>319.8</ele>
      </trkpt>
      <trkpt lat="36.55715" lon="29.13766">
        <ele>318.2</ele>
      </trkpt>
      <trkpt lat="36.55679" lon="29.1374">
        <ele>320.3</ele>
      </trkpt>
      <trkpt lat="36.55632" lon="29.13706">
        <ele>322</ele>
      </trkpt>
      <trkpt lat="36.55616" lon="29.13692">
        <ele>322</ele>
      </trkpt>
      <trkpt lat="36.55584" lon="29.13674">
        <ele>324.1</ele>
      </trkpt>
      <trkpt lat="36.55573" lon="29.13668">
        <ele>324.5</ele>
      </trkpt>
      <trkpt lat="36.55564" lon="29.13659">
        <ele>324.2</ele>
      </trkpt>
      <trkpt lat="36.55555" lon="29.13642">
        <ele>321.9</ele>
      </trkpt>
      <trkpt lat="36.55547" lon="29.1362">
        <ele>318</ele>
      </trkpt>
      <trkpt lat="36.55546" lon="29.13604">
        <ele>314.5</ele>
      </trkpt>
      <trkpt lat="36.55539" lon="29.13595">
        <ele>314.1</ele>
      </trkpt>
      <trkpt lat="36.55526" lon="29.1359">
        <ele>316.3</ele>
      </trkpt>
      <trkpt lat="36.55474" lon="29.13559">
        <ele>319</ele>
      </trkpt>
      <trkpt lat="36.55443" lon="29.13542">
        <ele>318.7</ele>
      </trkpt>
      <trkpt lat="36.55378" lon="29.13499">
        <ele>315.5</ele>
      </trkpt>
      <trkpt lat="36.55355" lon="29.13486">
        <ele>314.2</ele>
      </trkpt>
      <trkpt lat="36.5533" lon="29.13479">
        <ele>315.4</ele>
      </trkpt>
      <trkpt lat="36.55276" lon="29.13463">
        <ele>314.4</ele>
      </trkpt>
      <trkpt lat="36.55251" lon="29.13454">
        <ele>313.1</ele>
      </trkpt>
      <trkpt lat="36.55232" lon="29.13448">
        <ele>310.5</ele>
      </trkpt>
      <trkpt lat="36.55222" lon="29.13449">
        <ele>310.3</ele>
      </trkpt>
      <trkpt lat="36.55204" lon="29.13457">
        <ele>312.6</ele>
      </trkpt>
      <trkpt lat="36.55161" lon="29.13468">
        <ele>317.5</ele>
      </trkpt>
      <trkpt lat="36.55142" lon="29.13473">
        <ele>323.5</ele>
      </trkpt>
      <trkpt lat="36.55126" lon="29.13478">
        <ele>328.2</ele>
      </trkpt>
      <trkpt lat="36.5512" lon="29.13473">
        <ele>327.1</ele>
      </trkpt>
      <trkpt lat="36.55113" lon="29.13454">
        <ele>320.2</ele>
      </trkpt>
      <trkpt lat="36.55108" lon="29.13445">
        <ele>317.9</ele>
      </trkpt>
      <trkpt lat="36.55099" lon="29.13441">
        <ele>317.6</ele>
      </trkpt>
      <trkpt lat="36.55085" lon="29.13438">
        <ele>319.2</ele>
      </trkpt>
      <trkpt lat="36.5504" lon="29.13426">
        <ele>328.6</ele>
      </trkpt>
      <trkpt lat="36.54998" lon="29.13408">
        <ele>334.8</ele>
      </trkpt>
      <trkpt lat="36.54982" lon="29.13403">
        <ele>335.1</ele>
      </trkpt>
      <trkpt lat="36.54953" lon="29.13394">
        <ele>335.8</ele>
      </trkpt>
      <trkpt lat="36.54927" lon="29.13385">
        <ele>335.8</ele>
      </trkpt>
      <trkpt lat="36.54901" lon="29.13386">
        <ele>336.6</ele>
      </trkpt>
      <trkpt lat="36.54862" lon="29.13393">
        <ele>336.2</ele>
      </trkpt>
      <trkpt lat="36.54836" lon="29.134">
        <ele>336.3</ele>
      </trkpt>
      <trkpt lat="36.54827" lon="29.13403">
        <ele>335.7</ele>
      </trkpt>
      <trkpt lat="36.54809" lon="29.13409">
        <ele>333.4</ele>
      </trkpt>
      <trkpt lat="36.54771" lon="29.13416">
        <ele>326.8</ele>
      </trkpt>
      <trkpt lat="36.54748" lon="29.13424">
        <ele>337</ele>
      </trkpt>
      <trkpt lat="36.5472" lon="29.13435">
        <ele>367.7</ele>
      </trkpt>
      <trkpt lat="36.54699" lon="29.13447">
        <ele>392.3</ele>
      </trkpt>
      <trkpt lat="36.5469" lon="29.13447">
        <ele>394.2</ele>
      </trkpt>
      <trkpt lat="36.54674" lon="29.13439">
        <ele>391.8</ele>
      </trkpt>
      <trkpt lat="36.54657" lon="29.13431">
        <ele>386.1</ele>
      </trkpt>
      <trkpt lat="36.54642" lon="29.13428">
        <ele>381.8</ele>
      </trkpt>
      <trkpt lat="36.54623" lon="29.13426">
        <ele>377.9</ele>
      </trkpt>
      <trkpt lat="36.54612" lon="29.13425">
        <ele>376.3</ele>
      </trkpt>
      <trkpt lat="36.54602" lon="29.13417">
        <ele>368.3</ele>
      </trkpt>
      <trkpt lat="36.54596" lon="29.13408">
        <ele>362.9</ele>
      </trkpt>
      <trkpt lat="36.54592" lon="29.13396">
        <ele>356.3</ele>
      </trkpt>
      <trkpt lat="36.54588" lon="29.13392">
        <ele>354.2</ele>
      </trkpt>
      <trkpt lat="36.54581" lon="29.13389">
        <ele>353.4</ele>
      </trkpt>
      <trkpt lat="36.54571" lon="29.13388">
        <ele>353.5</ele>
      </trkpt>
      <trkpt lat="36.5454" lon="29.13388">
        <ele>355.1</ele>
      </trkpt>
      <trkpt lat="36.54521" lon="29.13387">
        <ele>356</ele>
      </trkpt>
      <trkpt lat="36.54506" lon="29.13389">
        <ele>357.8</ele>
      </trkpt>
      <trkpt lat="36.54501" lon="29.13392">
        <ele>359.8</ele>
      </trkpt>
      <trkpt lat="36.54487" lon="29.13401">
        <ele>367.6</ele>
      </trkpt>
      <trkpt lat="36.5448" lon="29.13408">
        <ele>373</ele>
      </trkpt>
      <trkpt lat="36.54473" lon="29.13419">
        <ele>380.1</ele>
      </trkpt>
      <trkpt lat="36.54465" lon="29.13444">
        <ele>397.4</ele>
      </trkpt>
      <trkpt lat="36.54452" lon="29.13465">
        <ele>413.3</ele>
      </trkpt>
      <trkpt lat="36.54442" lon="29.13464">
        <ele>414.4</ele>
      </trkpt>
      <trkpt lat="36.54426" lon="29.13446">
        <ele>406.3</ele>
      </trkpt>
      <trkpt lat="36.54407" lon="29.13421">
        <ele>396.1</ele>
      </trkpt>
      <trkpt lat="36.54386" lon="29.13406">
        <ele>392.5</ele>
      </trkpt>
      <trkpt lat="36.54372" lon="29.13396">
        <ele>390.3</ele>
      </trkpt>
      <trkpt lat="36.54365" lon="29.13391">
        <ele>389.2</ele>
      </trkpt>
      <trkpt lat="36.54343" lon="29.13392">
        <ele>395.2</ele>
      </trkpt>
      <trkpt lat="36.54331" lon="29.13397">
        <ele>400.3</ele>
      </trkpt>
      <trkpt lat="36.54313" lon="29.13411">
        <ele>410.9</ele>
      </trkpt>
      <trkpt lat="36.54302" lon="29.13416">
        <ele>415.5</ele>
      </trkpt>
      <trkpt lat="36.54297" lon="29.13417">
        <ele>416.7</ele>
      </trkpt>
      <trkpt lat="36.54289" lon="29.13416">
        <ele>417.5</ele>
      </trkpt>
      <trkpt lat="36.54284" lon="29.13412">
        <ele>415.8</ele>
      </trkpt>
      <trkpt lat="36.54277" lon="29.13401">
        <ele>411.1</ele>
      </trkpt>
      <trkpt lat="36.54267" lon="29.13394">
        <ele>408.7</ele>
      </trkpt>
      <trkpt lat="36.54254" lon="29.13398">
        <ele>412.9</ele>
      </trkpt>
      <trkpt lat="36.54233" lon="29.13398">
        <ele>415</ele>
      </trkpt>
      <trkpt lat="36.542" lon="29.13404">
        <ele>421.1</ele>
      </trkpt>
      <trkpt lat="36.54171" lon="29.13406">
        <ele>424.6</ele>
      </trkpt>
      <trkpt lat="36.54143" lon="29.13415">
        <ele>429.1</ele>
      </trkpt>
      <trkpt lat="36.54133" lon="29.13425">
        <ele>434.5</ele>
      </trkpt>
      <trkpt lat="36.54121" lon="29.13433">
        <ele>438</ele>
      </trkpt>
      <trkpt lat="36.5411" lon="29.13435">
        <ele>438.7</ele>
      </trkpt>
      <trkpt lat="36.54099" lon="29.13448">
        <ele>445.2</ele>
      </trkpt>
      <trkpt lat="36.54087" lon="29.13455">
        <ele>448.6</ele>
      </trkpt>
      <trkpt lat="36.54063" lon="29.1348">
        <ele>459.7</ele>
      </trkpt>
      <trkpt lat="36.54043" lon="29.13497">
        <ele>465.1</ele>
      </trkpt>
      <trkpt lat="36.54031" lon="29.13505">
        <ele>467.1</ele>
      </trkpt>
      <trkpt lat="36.54013" lon="29.13514">
        <ele>468.2</ele>
      </trkpt>
      <trkpt lat="36.53999" lon="29.13513">
        <ele>466</ele>
      </trkpt>
      <trkpt lat="36.53978" lon="29.13527">
        <ele>469.7</ele>
      </trkpt>
      <trkpt lat="36.5397" lon="29.13535">
        <ele>471.7</ele>
      </trkpt>
      <trkpt lat="36.53948" lon="29.13555">
        <ele>477.8</ele>
      </trkpt>
      <trkpt lat="36.53906" lon="29.13604">
        <ele>493.7</ele>
      </trkpt>
      <trkpt lat="36.53852" lon="29.13664">
        <ele>508.3</ele>
      </trkpt>
      <trkpt lat="36.53849" lon="29.13669">
        <ele>509.6</ele>
      </trkpt>
      <trkpt lat="36.53843" lon="29.13676">
        <ele>511.1</ele>
      </trkpt>
      <trkpt lat="36.53839" lon="29.13678">
        <ele>510.9</ele>
      </trkpt>
      <trkpt lat="36.53806" lon="29.13715">
        <ele>519.5</ele>
      </trkpt>
      <trkpt lat="36.538" lon="29.13728">
        <ele>523.8</ele>
      </trkpt>
      <trkpt lat="36.53793" lon="29.13742">
        <ele>528.5</ele>
      </trkpt>
      <trkpt lat="36.53787" lon="29.13758">
        <ele>533.2</ele>
      </trkpt>
      <trkpt lat="36.53784" lon="29.13774">
        <ele>538.1</ele>
      </trkpt>
      <trkpt lat="36.53773" lon="29.13783">
        <ele>539.2</ele>
      </trkpt>
      <trkpt lat="36.53768" lon="29.13788">
        <ele>539.9</ele>
      </trkpt>
      <trkpt lat="36.53763" lon="29.13796">
        <ele>542</ele>
      </trkpt>
      <trkpt lat="36.53745" lon="29.13815">
        <ele>545.8</ele>
      </trkpt>
      <trkpt lat="36.53721" lon="29.13833">
        <ele>551.1</ele>
      </trkpt>
      <trkpt lat="36.53681" lon="29.13876">
        <ele>563.2</ele>
      </trkpt>
      <trkpt lat="36.53665" lon="29.13907">
        <ele>572</ele>
      </trkpt>
      <trkpt lat="36.53651" lon="29.13924">
        <ele>577.4</ele>
      </trkpt>
      <trkpt lat="36.53641" lon="29.13943">
        <ele>583.4</ele>
      </trkpt>
      <trkpt lat="36.53635" lon="29.13945">
        <ele>584.2</ele>
      </trkpt>
      <trkpt lat="36.5362" lon="29.13957">
        <ele>588.1</ele>
      </trkpt>
      <trkpt lat="36.53609" lon="29.13962">
        <ele>589.9</ele>
      </trkpt>
      <trkpt lat="36.536" lon="29.13962">
        <ele>590.3</ele>
      </trkpt>
      <trkpt lat="36.53595" lon="29.1396">
        <ele>589.6</ele>
      </trkpt>
      <trkpt lat="36.53585" lon="29.13958">
        <ele>589.5</ele>
      </trkpt>
      <trkpt lat="36.53578" lon="29.13957">
        <ele>589.3</ele>
      </trkpt>
      <trkpt lat="36.53577" lon="29.1396">
        <ele>590.4</ele>
      </trkpt>
      <trkpt lat="36.53578" lon="29.13967">
        <ele>592.6</ele>
      </trkpt>
      <trkpt lat="36.53583" lon="29.13979">
        <ele>596.3</ele>
      </trkpt>
      <trkpt lat="36.53593" lon="29.14005">
        <ele>604</ele>
      </trkpt>
      <trkpt lat="36.53601" lon="29.14016">
        <ele>607.3</ele>
      </trkpt>
      <trkpt lat="36.53609" lon="29.14026">
        <ele>610</ele>
      </trkpt>
      <trkpt lat="36.53604" lon="29.14027">
        <ele>610.4</ele>
      </trkpt>
      <trkpt lat="36.5359" lon="29.14022">
        <ele>609.2</ele>
      </trkpt>
      <trkpt lat="36.53575" lon="29.14018">
        <ele>608.8</ele>
      </trkpt>
      <trkpt lat="36.53558" lon="29.14015">
        <ele>609.5</ele>
      </trkpt>
      <trkpt lat="36.53553" lon="29.14013">
        <ele>609.7</ele>
      </trkpt>
      <trkpt lat="36.53535" lon="29.14016">
        <ele>612</ele>
      </trkpt>
      <trkpt lat="36.53512" lon="29.14026">
        <ele>616</ele>
      </trkpt>
      <trkpt lat="36.53506" lon="29.14026">
        <ele>616.6</ele>
      </trkpt>
      <trkpt lat="36.53503" lon="29.14027">
        <ele>617</ele>
      </trkpt>
      <trkpt lat="36.535" lon="29.14038">
        <ele>619.1</ele>
      </trkpt>
      <trkpt lat="36.53499" lon="29.14039">
        <ele>619.3</ele>
      </trkpt>
      <trkpt lat="36.53496" lon="29.14045">
        <ele>619.8</ele>
      </trkpt>
      <trkpt lat="36.53479" lon="29.1407">
        <ele>622.4</ele>
      </trkpt>
      <trkpt lat="36.53465" lon="29.14092">
        <ele>626.2</ele>
      </trkpt>
      <trkpt lat="36.5346" lon="29.14101">
        <ele>628</ele>
      </trkpt>
      <trkpt lat="36.53457" lon="29.14114">
        <ele>631.2</ele>
      </trkpt>
      <trkpt lat="36.53451" lon="29.14137">
        <ele>637.2</ele>
      </trkpt>
      <trkpt lat="36.53451" lon="29.14152">
        <ele>641.6</ele>
      </trkpt>
      <trkpt lat="36.53453" lon="29.14163">
        <ele>644.8</ele>
      </trkpt>
      <trkpt lat="36.53458" lon="29.14175">
        <ele>648</ele>
      </trkpt>
      <trkpt lat="36.53459" lon="29.14186">
        <ele>650.7</ele>
      </trkpt>
      <trkpt lat="36.53467" lon="29.14195">
        <ele>652.5</ele>
      </trkpt>
      <trkpt lat="36.53472" lon="29.14201">
        <ele>653.7</ele>
      </trkpt>
      <trkpt lat="36.53472" lon="29.14208">
        <ele>655.2</ele>
      </trkpt>
      <trkpt lat="36.53467" lon="29.1421">
        <ele>656</ele>
      </trkpt>
      <trkpt lat="36.53452" lon="29.14207">
        <ele>656.5</ele>
      </trkpt>
      <trkpt lat="36.53431" lon="29.14205">
        <ele>657.3</ele>
      </trkpt>
      <trkpt lat="36.53414" lon="29.14199">
        <ele>657.5</ele>
      </trkpt>
      <trkpt lat="36.53395" lon="29.14191">
        <ele>662.6</ele>
      </trkpt>
      <trkpt lat="36.53386" lon="29.14187">
        <ele>664.7</ele>
      </trkpt>
      <trkpt lat="36.53381" lon="29.14186">
        <ele>666.4</ele>
      </trkpt>
      <trkpt lat="36.53366" lon="29.14182">
        <ele>670.7</ele>
      </trkpt>
      <trkpt lat="36.53356" lon="29.14174">
        <ele>671</ele>
      </trkpt>
      <trkpt lat="36.53347" lon="29.14168">
        <ele>671.5</ele>
      </trkpt>
      <trkpt lat="36.53333" lon="29.14164">
        <ele>674.3</ele>
      </trkpt>
      <trkpt lat="36.53322" lon="29.14152">
        <ele>671.3</ele>
      </trkpt>
      <trkpt lat="36.53317" lon="29.1415">
        <ele>671.9</ele>
      </trkpt>
      <trkpt lat="36.53309" lon="29.14152">
        <ele>675.7</ele>
      </trkpt>
      <trkpt lat="36.53299" lon="29.1414">
        <ele>671.9</ele>
      </trkpt>
      <trkpt lat="36.5329" lon="29.14141">
        <ele>675.6</ele>
      </trkpt>
      <trkpt lat="36.5329" lon="29.14146">
        <ele>678.8</ele>
      </trkpt>
      <trkpt lat="36.53296" lon="29.14153">
        <ele>680.6</ele>
      </trkpt>
      <trkpt lat="36.53296" lon="29.14157">
        <ele>683.3</ele>
      </trkpt>
      <trkpt lat="36.53289" lon="29.14156">
        <ele>684.7</ele>
      </trkpt>
      <trkpt lat="36.53286" lon="29.14151">
        <ele>683</ele>
      </trkpt>
      <trkpt lat="36.53277" lon="29.1415">
        <ele>685.6</ele>
      </trkpt>
      <trkpt lat="36.53266" lon="29.14151">
        <ele>689.8</ele>
      </trkpt>
      <trkpt lat="36.53241" lon="29.14143">
        <ele>694.6</ele>
      </trkpt>
      <trkpt lat="36.53225" lon="29.14137">
        <ele>697.4</ele>
      </trkpt>
      <trkpt lat="36.53204" lon="29.1412">
        <ele>697.4</ele>
      </trkpt>
      <trkpt lat="36.53197" lon="29.14113">
        <ele>696.6</ele>
      </trkpt>
      <trkpt lat="36.53175" lon="29.1411">
        <ele>705.3</ele>
      </trkpt>
      <trkpt lat="36.53157" lon="29.14103">
        <ele>708.4</ele>
      </trkpt>
      <trkpt lat="36.53146" lon="29.14098">
        <ele>709</ele>
      </trkpt>
      <trkpt lat="36.53132" lon="29.14097">
        <ele>713.3</ele>
      </trkpt>
      <trkpt lat="36.53126" lon="29.14093">
        <ele>713.7</ele>
      </trkpt>
      <trkpt lat="36.5312" lon="29.14091">
        <ele>714.7</ele>
      </trkpt>
      <trkpt lat="36.53119" lon="29.14094">
        <ele>716</ele>
      </trkpt>
      <trkpt lat="36.53123" lon="29.14097">
        <ele>715.7</ele>
      </trkpt>
      <trkpt lat="36.53122" lon="29.14102">
        <ele>717.9</ele>
      </trkpt>
      <trkpt lat="36.53121" lon="29.1411">
        <ele>721</ele>
      </trkpt>
      <trkpt lat="36.53125" lon="29.14121">
        <ele>723.4</ele>
      </trkpt>
      <trkpt lat="36.53132" lon="29.1413">
        <ele>725.5</ele>
      </trkpt>
      <trkpt lat="36.53136" lon="29.14135">
        <ele>726.4</ele>
      </trkpt>
      <trkpt lat="36.53139" lon="29.14136">
        <ele>726.4</ele>
      </trkpt>
      <trkpt lat="36.5314" lon="29.14139">
        <ele>727.4</ele>
      </trkpt>
      <trkpt lat="36.53127" lon="29.14142">
        <ele>730.7</ele>
      </trkpt>
      <trkpt lat="36.5312" lon="29.14149">
        <ele>733.9</ele>
      </trkpt>
      <trkpt lat="36.53117" lon="29.14154">
        <ele>735.8</ele>
      </trkpt>
      <trkpt lat="36.5311" lon="29.14155">
        <ele>737</ele>
      </trkpt>
      <trkpt lat="36.53105" lon="29.14158">
        <ele>738.2</ele>
      </trkpt>
      <trkpt lat="36.53102" lon="29.14165">
        <ele>740.4</ele>
      </trkpt>
      <trkpt lat="36.53091" lon="29.14179">
        <ele>743.4</ele>
      </trkpt>
      <trkpt lat="36.53084" lon="29.14185">
        <ele>744.2</ele>
      </trkpt>
      <trkpt lat="36.53077" lon="29.14194">
        <ele>744.7</ele>
      </trkpt>
      <trkpt lat="36.53068" lon="29.1421">
        <ele>745.4</ele>
      </trkpt>
      <trkpt lat="36.53049" lon="29.14236">
        <ele>744.6</ele>
      </trkpt>
      <trkpt lat="36.53035" lon="29.14255">
        <ele>743.7</ele>
      </trkpt>
      <trkpt lat="36.53032" lon="29.1426">
        <ele>743.9</ele>
      </trkpt>
      <trkpt lat="36.53019" lon="29.14285">
        <ele>744.9</ele>
      </trkpt>
      <trkpt lat="36.53009" lon="29.14317">
        <ele>746.6</ele>
      </trkpt>
      <trkpt lat="36.52996" lon="29.14365">
        <ele>745.5</ele>
      </trkpt>
      <trkpt lat="36.52987" lon="29.14383">
        <ele>743.2</ele>
      </trkpt>
      <trkpt lat="36.52986" lon="29.14384">
        <ele>743</ele>
      </trkpt>
      <trkpt lat="36.52981" lon="29.14394">
        <ele>741.8</ele>
      </trkpt>
      <trkpt lat="36.52961" lon="29.14425">
        <ele>738</ele>
      </trkpt>
      <trkpt lat="36.52956" lon="29.14445">
        <ele>739.7</ele>
      </trkpt>
      <trkpt lat="36.52931" lon="29.14498">
        <ele>744.6</ele>
      </trkpt>
      <trkpt lat="36.52929" lon="29.14515">
        <ele>747.7</ele>
      </trkpt>
      <trkpt lat="36.52926" lon="29.14523">
        <ele>749</ele>
      </trkpt>
      <trkpt lat="36.52921" lon="29.14528">
        <ele>749.2</ele>
      </trkpt>
      <trkpt lat="36.52917" lon="29.14529">
        <ele>748.9</ele>
      </trkpt>
      <trkpt lat="36.52904" lon="29.14538">
        <ele>746.8</ele>
      </trkpt>
      <trkpt lat="36.52891" lon="29.14566">
        <ele>750.9</ele>
      </trkpt>
      <trkpt lat="36.52883" lon="29.14579">
        <ele>753.4</ele>
      </trkpt>
      <trkpt lat="36.52866" lon="29.14628">
        <ele>759.6</ele>
      </trkpt>
      <trkpt lat="36.52857" lon="29.14662">
        <ele>763.4</ele>
      </trkpt>
      <trkpt lat="36.52846" lon="29.14694">
        <ele>767.6</ele>
      </trkpt>
      <trkpt lat="36.52823" lon="29.1473">
        <ele>771.1</ele>
      </trkpt>
      <trkpt lat="36.52801" lon="29.14779">
        <ele>778.1</ele>
      </trkpt>
      <trkpt lat="36.52782" lon="29.14818">
        <ele>783.1</ele>
      </trkpt>
      <trkpt lat="36.5278" lon="29.14822">
        <ele>783.4</ele>
      </trkpt>
      <trkpt lat="36.52775" lon="29.14831">
        <ele>784.2</ele>
      </trkpt>
      <trkpt lat="36.52766" lon="29.14835">
        <ele>783.3</ele>
      </trkpt>
      <trkpt lat="36.52747" lon="29.1484">
        <ele>781.4</ele>
      </trkpt>
      <trkpt lat="36.52727" lon="29.14852">
        <ele>783</ele>
      </trkpt>
      <trkpt lat="36.52715" lon="29.14865">
        <ele>785.3</ele>
      </trkpt>
      <trkpt lat="36.52704" lon="29.14873">
        <ele>786.6</ele>
      </trkpt>
      <trkpt lat="36.5268" lon="29.14896">
        <ele>790.8</ele>
      </trkpt>
      <trkpt lat="36.5266" lon="29.14911">
        <ele>793</ele>
      </trkpt>
      <trkpt lat="36.52625" lon="29.14953">
        <ele>794.8</ele>
      </trkpt>
      <trkpt lat="36.52602" lon="29.14991">
        <ele>797.1</ele>
      </trkpt>
      <trkpt lat="36.52589" lon="29.15019">
        <ele>801.1</ele>
      </trkpt>
      <trkpt lat="36.52587" lon="29.15023">
        <ele>801.9</ele>
      </trkpt>
      <trkpt lat="36.52571" lon="29.1504">
        <ele>803.7</ele>
      </trkpt>
      <trkpt lat="36.52552" lon="29.15044">
        <ele>801.9</ele>
      </trkpt>
      <trkpt lat="36.52543" lon="29.15047">
        <ele>801.1</ele>
      </trkpt>
      <trkpt lat="36.52538" lon="29.15055">
        <ele>801.8</ele>
      </trkpt>
      <trkpt lat="36.5253" lon="29.15073">
        <ele>804.2</ele>
      </trkpt>
      <trkpt lat="36.52522" lon="29.15083">
        <ele>804.8</ele>
      </trkpt>
      <trkpt lat="36.52514" lon="29.15088">
        <ele>804.2</ele>
      </trkpt>
      <trkpt lat="36.52504" lon="29.15088">
        <ele>802.3</ele>
      </trkpt>
      <trkpt lat="36.52498" lon="29.15091">
        <ele>801.5</ele>
      </trkpt>
      <trkpt lat="36.52477" lon="29.15109">
        <ele>799.9</ele>
      </trkpt>
      <trkpt lat="36.52447" lon="29.15136">
        <ele>796.3</ele>
      </trkpt>
      <trkpt lat="36.52435" lon="29.15149">
        <ele>794.9</ele>
      </trkpt>
      <trkpt lat="36.52418" lon="29.15188">
        <ele>792.4</ele>
      </trkpt>
      <trkpt lat="36.52411" lon="29.15272">
        <ele>789.8</ele>
      </trkpt>
      <trkpt lat="36.52415" lon="29.15289">
        <ele>789.8</ele>
      </trkpt>
      <trkpt lat="36.52414" lon="29.15329">
        <ele>787.7</ele>
      </trkpt>
      <trkpt lat="36.52418" lon="29.15364">
        <ele>786</ele>
      </trkpt>
      <trkpt lat="36.52416" lon="29.15389">
        <ele>783.9</ele>
      </trkpt>
      <trkpt lat="36.52401" lon="29.15425">
        <ele>776.1</ele>
      </trkpt>
      <trkpt lat="36.52397" lon="29.15436">
        <ele>772.7</ele>
      </trkpt>
      <trkpt lat="36.52399" lon="29.15451">
        <ele>769.5</ele>
      </trkpt>
      <trkpt lat="36.52409" lon="29.15471">
        <ele>766.3</ele>
      </trkpt>
      <trkpt lat="36.52421" lon="29.15477">
        <ele>766.9</ele>
      </trkpt>
      <trkpt lat="36.5243" lon="29.15484">
        <ele>766.1</ele>
      </trkpt>
      <trkpt lat="36.52442" lon="29.15483">
        <ele>768.1</ele>
      </trkpt>
      <trkpt lat="36.52455" lon="29.15491">
        <ele>767.8</ele>
      </trkpt>
      <trkpt lat="36.52461" lon="29.15494">
        <ele>767.9</ele>
      </trkpt>
      <trkpt lat="36.52464" lon="29.155">
        <ele>766.8</ele>
      </trkpt>
      <trkpt lat="36.52463" lon="29.15506">
        <ele>765.8</ele>
      </trkpt>
      <trkpt lat="36.52467" lon="29.15509">
        <ele>765.7</ele>
      </trkpt>
      <trkpt lat="36.52473" lon="29.15516">
        <ele>765.2</ele>
      </trkpt>
      <trkpt lat="36.52484" lon="29.15529">
        <ele>763.9</ele>
      </trkpt>
      <trkpt lat="36.5249" lon="29.15559">
        <ele>758.4</ele>
      </trkpt>
      <trkpt lat="36.52493" lon="29.1559">
        <ele>753.3</ele>
      </trkpt>
      <trkpt lat="36.52493" lon="29.15638">
        <ele>751</ele>
      </trkpt>
      <trkpt lat="36.52493" lon="29.1567">
        <ele>749.4</ele>
      </trkpt>
      <trkpt lat="36.52494" lon="29.15719">
        <ele>747.1</ele>
      </trkpt>
      <trkpt lat="36.52491" lon="29.15752">
        <ele>745.3</ele>
      </trkpt>
      <trkpt lat="36.52488" lon="29.15783">
        <ele>744.3</ele>
      </trkpt>
      <trkpt lat="36.52485" lon="29.15818">
        <ele>743.4</ele>
      </trkpt>
      <trkpt lat="36.52489" lon="29.15835">
        <ele>742.9</ele>
      </trkpt>
      <trkpt lat="36.52498" lon="29.15846">
        <ele>742.1</ele>
      </trkpt>
      <trkpt lat="36.52517" lon="29.15857">
        <ele>744.5</ele>
      </trkpt>
      <trkpt lat="36.52526" lon="29.15872">
        <ele>745.5</ele>
      </trkpt>
      <trkpt lat="36.52529" lon="29.15889">
        <ele>745.3</ele>
      </trkpt>
      <trkpt lat="36.52521" lon="29.1591">
        <ele>742.4</ele>
      </trkpt>
      <trkpt lat="36.52511" lon="29.15923">
        <ele>740</ele>
      </trkpt>
      <trkpt lat="36.52502" lon="29.15935">
        <ele>738.4</ele>
      </trkpt>
      <trkpt lat="36.52498" lon="29.15955">
        <ele>738.7</ele>
      </trkpt>
      <trkpt lat="36.52498" lon="29.15985">
        <ele>740.1</ele>
      </trkpt>
      <trkpt lat="36.52491" lon="29.16016">
        <ele>742</ele>
      </trkpt>
      <trkpt lat="36.52479" lon="29.16051">
        <ele>744.2</ele>
      </trkpt>
      <trkpt lat="36.52463" lon="29.16069">
        <ele>742.2</ele>
      </trkpt>
      <trkpt lat="36.52431" lon="29.16086">
        <ele>735.2</ele>
      </trkpt>
      <trkpt lat="36.52408" lon="29.16123">
        <ele>735.6</ele>
      </trkpt>
      <trkpt lat="36.52394" lon="29.16141">
        <ele>735</ele>
      </trkpt>
      <trkpt lat="36.52377" lon="29.16143">
        <ele>731.5</ele>
      </trkpt>
      <trkpt lat="36.52356" lon="29.1617">
        <ele>728.1</ele>
      </trkpt>
      <trkpt lat="36.52338" lon="29.16187">
        <ele>724.3</ele>
      </trkpt>
      <trkpt lat="36.52323" lon="29.16192">
        <ele>722.6</ele>
      </trkpt>
      <trkpt lat="36.52302" lon="29.16196">
        <ele>720.8</ele>
      </trkpt>
      <trkpt lat="36.5227" lon="29.16198">
        <ele>717.9</ele>
      </trkpt>
      <trkpt lat="36.5224" lon="29.1621">
        <ele>715.8</ele>
      </trkpt>
      <trkpt lat="36.5221" lon="29.1621">
        <ele>715.1</ele>
      </trkpt>
      <trkpt lat="36.52178" lon="29.16198">
        <ele>714</ele>
      </trkpt>
      <trkpt lat="36.52151" lon="29.16192">
        <ele>712.7</ele>
      </trkpt>
      <trkpt lat="36.52117" lon="29.16179">
        <ele>710.2</ele>
      </trkpt>
      <trkpt lat="36.52102" lon="29.16178">
        <ele>709.2</ele>
      </trkpt>
      <trkpt lat="36.52083" lon="29.16181">
        <ele>708.2</ele>
      </trkpt>
      <trkpt lat="36.52072" lon="29.16179">
        <ele>706.8</ele>
      </trkpt>
      <trkpt lat="36.52063" lon="29.16182">
        <ele>705.9</ele>
      </trkpt>
      <trkpt lat="36.52056" lon="29.16191">
        <ele>705.8</ele>
      </trkpt>
      <trkpt lat="36.52047" lon="29.16204">
        <ele>705.8</ele>
      </trkpt>
      <trkpt lat="36.52034" lon="29.16222">
        <ele>705.5</ele>
      </trkpt>
      <trkpt lat="36.52026" lon="29.16239">
        <ele>705.7</ele>
      </trkpt>
      <trkpt lat="36.52016" lon="29.16254">
        <ele>706.4</ele>
      </trkpt>
      <trkpt lat="36.52005" lon="29.16257">
        <ele>705.8</ele>
      </trkpt>
      <trkpt lat="36.51994" lon="29.16257">
        <ele>706.1</ele>
      </trkpt>
      <trkpt lat="36.51985" lon="29.16253">
        <ele>706.2</ele>
      </trkpt>
      <trkpt lat="36.51977" lon="29.16245">
        <ele>706</ele>
      </trkpt>
      <trkpt lat="36.51966" lon="29.16228">
        <ele>705.7</ele>
      </trkpt>
      <trkpt lat="36.51954" lon="29.16209">
        <ele>704.4</ele>
      </trkpt>
      <trkpt lat="36.5194" lon="29.16197">
        <ele>703.7</ele>
      </trkpt>
      <trkpt lat="36.51918" lon="29.16192">
        <ele>704.2</ele>
      </trkpt>
      <trkpt lat="36.51907" lon="29.16192">
        <ele>706.8</ele>
      </trkpt>
      <trkpt lat="36.51887" lon="29.16189">
        <ele>711.7</ele>
      </trkpt>
      <trkpt lat="36.5187" lon="29.16179">
        <ele>713.9</ele>
      </trkpt>
      <trkpt lat="36.51857" lon="29.16171">
        <ele>715.2</ele>
      </trkpt>
      <trkpt lat="36.51842" lon="29.16156">
        <ele>716</ele>
      </trkpt>
      <trkpt lat="36.51835" lon="29.16143">
        <ele>715.1</ele>
      </trkpt>
      <trkpt lat="36.51832" lon="29.16132">
        <ele>713.6</ele>
      </trkpt>
      <trkpt lat="36.51824" lon="29.16125">
        <ele>714.2</ele>
      </trkpt>
      <trkpt lat="36.51816" lon="29.16125">
        <ele>715.9</ele>
      </trkpt>
      <trkpt lat="36.5181" lon="29.16119">
        <ele>716.5</ele>
      </trkpt>
      <trkpt lat="36.51806" lon="29.16108">
        <ele>715.4</ele>
      </trkpt>
      <trkpt lat="36.51804" lon="29.16096">
        <ele>713.8</ele>
      </trkpt>
      <trkpt lat="36.518" lon="29.16079">
        <ele>711.7</ele>
      </trkpt>
      <trkpt lat="36.51794" lon="29.16069">
        <ele>711.7</ele>
      </trkpt>
      <trkpt lat="36.51778" lon="29.16062">
        <ele>714.3</ele>
      </trkpt>
      <trkpt lat="36.51756" lon="29.16057">
        <ele>719.2</ele>
      </trkpt>
      <trkpt lat="36.51731" lon="29.16056">
        <ele>722.8</ele>
      </trkpt>
      <trkpt lat="36.51709" lon="29.16065">
        <ele>726.3</ele>
      </trkpt>
      <trkpt lat="36.51688" lon="29.16072">
        <ele>729.2</ele>
      </trkpt>
      <trkpt lat="36.51673" lon="29.16075">
        <ele>730.9</ele>
      </trkpt>
      <trkpt lat="36.51662" lon="29.16074">
        <ele>733.1</ele>
      </trkpt>
      <trkpt lat="36.51655" lon="29.16063">
        <ele>734.8</ele>
      </trkpt>
      <trkpt lat="36.51655" lon="29.16035">
        <ele>733.1</ele>
      </trkpt>
      <trkpt lat="36.51658" lon="29.16012">
        <ele>730.7</ele>
      </trkpt>
      <trkpt lat="36.51659" lon="29.15994">
        <ele>728.7</ele>
      </trkpt>
      <trkpt lat="36.51659" lon="29.15962">
        <ele>724.3</ele>
      </trkpt>
      <trkpt lat="36.51652" lon="29.15939">
        <ele>723.5</ele>
      </trkpt>
      <trkpt lat="36.5164" lon="29.15928">
        <ele>726.6</ele>
      </trkpt>
      <trkpt lat="36.51648" lon="29.15912">
        <ele>721.4</ele>
      </trkpt>
      <trkpt lat="36.51615" lon="29.15817">
        <ele>725.2</ele>
      </trkpt>
      <trkpt lat="36.51596" lon="29.15773">
        <ele>732.5</ele>
      </trkpt>
      <trkpt lat="36.51592" lon="29.15728">
        <ele>735.7</ele>
      </trkpt>
      <trkpt lat="36.51587" lon="29.15688">
        <ele>742.9</ele>
      </trkpt>
      <trkpt lat="36.51574" lon="29.15624">
        <ele>754.8</ele>
      </trkpt>
      <trkpt lat="36.51572" lon="29.15584">
        <ele>760.6</ele>
      </trkpt>
      <trkpt lat="36.51569" lon="29.15572">
        <ele>762.3</ele>
      </trkpt>
      <trkpt lat="36.51564" lon="29.15572">
        <ele>763.6</ele>
      </trkpt>
      <trkpt lat="36.51564" lon="29.15556">
        <ele>764.2</ele>
      </trkpt>
      <trkpt lat="36.51561" lon="29.15529">
        <ele>765.9</ele>
      </trkpt>
      <trkpt lat="36.5156" lon="29.155">
        <ele>767.1</ele>
      </trkpt>
      <trkpt lat="36.51558" lon="29.15477">
        <ele>765.3</ele>
      </trkpt>
      <trkpt lat="36.51552" lon="29.15461">
        <ele>764.9</ele>
      </trkpt>
      <trkpt lat="36.51542" lon="29.15454">
        <ele>766.1</ele>
      </trkpt>
      <trkpt lat="36.51531" lon="29.15446">
        <ele>767.1</ele>
      </trkpt>
      <trkpt lat="36.51514" lon="29.15442">
        <ele>769.7</ele>
      </trkpt>
      <trkpt lat="36.51499" lon="29.15441">
        <ele>772.4</ele>
      </trkpt>
      <trkpt lat="36.51489" lon="29.15439">
        <ele>774.6</ele>
      </trkpt>
      <trkpt lat="36.51477" lon="29.15429">
        <ele>775.9</ele>
      </trkpt>
      <trkpt lat="36.51463" lon="29.15412">
        <ele>776.2</ele>
      </trkpt>
      <trkpt lat="36.51453" lon="29.15392">
        <ele>774.5</ele>
      </trkpt>
      <trkpt lat="36.51445" lon="29.1537">
        <ele>771.3</ele>
      </trkpt>
      <trkpt lat="36.51435" lon="29.15357">
        <ele>770</ele>
      </trkpt>
      <trkpt lat="36.51404" lon="29.1534">
        <ele>767.9</ele>
      </trkpt>
      <trkpt lat="36.51354" lon="29.15319">
        <ele>764.9</ele>
      </trkpt>
      <trkpt lat="36.51333" lon="29.15313">
        <ele>764.2</ele>
      </trkpt>
      <trkpt lat="36.51304" lon="29.15308">
        <ele>761.3</ele>
      </trkpt>
      <trkpt lat="36.51281" lon="29.15311">
        <ele>759.9</ele>
      </trkpt>
      <trkpt lat="36.5126" lon="29.15316">
        <ele>758.7</ele>
      </trkpt>
      <trkpt lat="36.51232" lon="29.15314">
        <ele>753.9</ele>
      </trkpt>
      <trkpt lat="36.51218" lon="29.15315">
        <ele>751.1</ele>
      </trkpt>
      <trkpt lat="36.51196" lon="29.1533">
        <ele>748.6</ele>
      </trkpt>
      <trkpt lat="36.51187" lon="29.15344">
        <ele>750</ele>
      </trkpt>
      <trkpt lat="36.51176" lon="29.15356">
        <ele>751.3</ele>
      </trkpt>
      <trkpt lat="36.51149" lon="29.15372">
        <ele>749.8</ele>
      </trkpt>
      <trkpt lat="36.51134" lon="29.15384">
        <ele>749.4</ele>
      </trkpt>
      <trkpt lat="36.51125" lon="29.15391">
        <ele>749.2</ele>
      </trkpt>
      <trkpt lat="36.5111" lon="29.15405">
        <ele>749</ele>
      </trkpt>
      <trkpt lat="36.51098" lon="29.15407">
        <ele>746.4</ele>
      </trkpt>
      <trkpt lat="36.51082" lon="29.15403">
        <ele>740.7</ele>
      </trkpt>
      <trkpt lat="36.51067" lon="29.15403">
        <ele>737.6</ele>
      </trkpt>
      <trkpt lat="36.51043" lon="29.15413">
        <ele>735.6</ele>
      </trkpt>
      <trkpt lat="36.51019" lon="29.15419">
        <ele>732.3</ele>
      </trkpt>
      <trkpt lat="36.50992" lon="29.15431">
        <ele>728.6</ele>
      </trkpt>
      <trkpt lat="36.50972" lon="29.15438">
        <ele>724.8</ele>
      </trkpt>
      <trkpt lat="36.5096" lon="29.15445">
        <ele>722.6</ele>
      </trkpt>
      <trkpt lat="36.50955" lon="29.15455">
        <ele>722.7</ele>
      </trkpt>
      <trkpt lat="36.50954" lon="29.15475">
        <ele>725</ele>
      </trkpt>
      <trkpt lat="36.50953" lon="29.1549">
        <ele>726.6</ele>
      </trkpt>
      <trkpt lat="36.50951" lon="29.155">
        <ele>727.2</ele>
      </trkpt>
      <trkpt lat="36.50937" lon="29.15524">
        <ele>725.1</ele>
      </trkpt>
      <trkpt lat="36.50918" lon="29.15553">
        <ele>721.2</ele>
      </trkpt>
      <trkpt lat="36.50909" lon="29.15572">
        <ele>720.5</ele>
      </trkpt>
      <trkpt lat="36.50903" lon="29.15591">
        <ele>720.4</ele>
      </trkpt>
      <trkpt lat="36.50896" lon="29.1561">
        <ele>720.1</ele>
      </trkpt>
      <trkpt lat="36.50888" lon="29.15622">
        <ele>719</ele>
      </trkpt>
      <trkpt lat="36.50867" lon="29.1564">
        <ele>715.3</ele>
      </trkpt>
      <trkpt lat="36.50862" lon="29.15644">
        <ele>714.2</ele>
      </trkpt>
      <trkpt lat="36.50857" lon="29.15654">
        <ele>713.6</ele>
      </trkpt>
      <trkpt lat="36.50848" lon="29.15678">
        <ele>714.7</ele>
      </trkpt>
      <trkpt lat="36.50845" lon="29.15687">
        <ele>715.6</ele>
      </trkpt>
      <trkpt lat="36.5084" lon="29.15694">
        <ele>715.9</ele>
      </trkpt>
      <trkpt lat="36.50832" lon="29.15701">
        <ele>715.6</ele>
      </trkpt>
      <trkpt lat="36.50826" lon="29.15709">
        <ele>716.1</ele>
      </trkpt>
      <trkpt lat="36.50817" lon="29.15725">
        <ele>717.2</ele>
      </trkpt>
      <trkpt lat="36.508" lon="29.15739">
        <ele>716</ele>
      </trkpt>
      <trkpt lat="36.50775" lon="29.15756">
        <ele>713.6</ele>
      </trkpt>
      <trkpt lat="36.50769" lon="29.15754">
        <ele>711.6</ele>
      </trkpt>
      <trkpt lat="36.50763" lon="29.1575">
        <ele>709.2</ele>
      </trkpt>
      <trkpt lat="36.50776" lon="29.15736">
        <ele>710</ele>
      </trkpt>
      <trkpt lat="36.50789" lon="29.15717">
        <ele>709.8</ele>
      </trkpt>
      <trkpt lat="36.50792" lon="29.15706">
        <ele>708.7</ele>
      </trkpt>
      <trkpt lat="36.50788" lon="29.15685">
        <ele>704.3</ele>
      </trkpt>
      <trkpt lat="36.50776" lon="29.15664">
        <ele>699.1</ele>
      </trkpt>
      <trkpt lat="36.50772" lon="29.15652">
        <ele>697.7</ele>
      </trkpt>
      <trkpt lat="36.50772" lon="29.15637">
        <ele>696.8</ele>
      </trkpt>
      <trkpt lat="36.50779" lon="29.15611">
        <ele>696.4</ele>
      </trkpt>
      <trkpt lat="36.5078" lon="29.15592">
        <ele>695.2</ele>
      </trkpt>
      <trkpt lat="36.50785" lon="29.15563">
        <ele>695.3</ele>
      </trkpt>
      <trkpt lat="36.50785" lon="29.15544">
        <ele>694.7</ele>
      </trkpt>
      <trkpt lat="36.50781" lon="29.15529">
        <ele>693.7</ele>
      </trkpt>
      <trkpt lat="36.50775" lon="29.15506">
        <ele>691.9</ele>
      </trkpt>
      <trkpt lat="36.50771" lon="29.15501">
        <ele>691.1</ele>
      </trkpt>
      <trkpt lat="36.50767" lon="29.15496">
        <ele>689.9</ele>
      </trkpt>
      <trkpt lat="36.50765" lon="29.15489">
        <ele>689.2</ele>
      </trkpt>
      <trkpt lat="36.50766" lon="29.15476">
        <ele>688.7</ele>
      </trkpt>
      <trkpt lat="36.50761" lon="29.15473">
        <ele>687.4</ele>
      </trkpt>
      <trkpt lat="36.50758" lon="29.15468">
        <ele>686.7</ele>
      </trkpt>
      <trkpt lat="36.50751" lon="29.15463">
        <ele>685</ele>
      </trkpt>
      <trkpt lat="36.50747" lon="29.15456">
        <ele>683.8</ele>
      </trkpt>
      <trkpt lat="36.50733" lon="29.15462">
        <ele>681.1</ele>
      </trkpt>
      <trkpt lat="36.50722" lon="29.15474">
        <ele>679.5</ele>
      </trkpt>
      <trkpt lat="36.50708" lon="29.15483">
        <ele>677.1</ele>
      </trkpt>
      <trkpt lat="36.50698" lon="29.15489">
        <ele>675.6</ele>
      </trkpt>
      <trkpt lat="36.50683" lon="29.15486">
        <ele>672.3</ele>
      </trkpt>
      <trkpt lat="36.5067" lon="29.15491">
        <ele>669.8</ele>
      </trkpt>
      <trkpt lat="36.50657" lon="29.15499">
        <ele>668.2</ele>
      </trkpt>
      <trkpt lat="36.50637" lon="29.15504">
        <ele>664.8</ele>
      </trkpt>
      <trkpt lat="36.50626" lon="29.15506">
        <ele>662.8</ele>
      </trkpt>
      <trkpt lat="36.5062" lon="29.1551">
        <ele>661.9</ele>
      </trkpt>
      <trkpt lat="36.50613" lon="29.15532">
        <ele>661.2</ele>
      </trkpt>
      <trkpt lat="36.50605" lon="29.15549">
        <ele>659.9</ele>
      </trkpt>
      <trkpt lat="36.50595" lon="29.1556">
        <ele>658.1</ele>
      </trkpt>
      <trkpt lat="36.5059" lon="29.15565">
        <ele>657.1</ele>
      </trkpt>
      <trkpt lat="36.5058" lon="29.15562">
        <ele>654.9</ele>
      </trkpt>
      <trkpt lat="36.50572" lon="29.15557">
        <ele>653</ele>
      </trkpt>
      <trkpt lat="36.50568" lon="29.15549">
        <ele>652.1</ele>
      </trkpt>
      <trkpt lat="36.50554" lon="29.15537">
        <ele>648.3</ele>
      </trkpt>
      <trkpt lat="36.5055" lon="29.15513">
        <ele>646.4</ele>
      </trkpt>
      <trkpt lat="36.50533" lon="29.15494">
        <ele>641.5</ele>
      </trkpt>
      <trkpt lat="36.50516" lon="29.15482">
        <ele>637.4</ele>
      </trkpt>
      <trkpt lat="36.50505" lon="29.15466">
        <ele>635.3</ele>
      </trkpt>
      <trkpt lat="36.50497" lon="29.1546">
        <ele>633.7</ele>
      </trkpt>
      <trkpt lat="36.50484" lon="29.15406">
        <ele>630.8</ele>
      </trkpt>
      <trkpt lat="36.50472" lon="29.15377">
        <ele>624.4</ele>
      </trkpt>
      <trkpt lat="36.50463" lon="29.15359">
        <ele>620</ele>
      </trkpt>
      <trkpt lat="36.50453" lon="29.15347">
        <ele>615.8</ele>
      </trkpt>
      <trkpt lat="36.5044" lon="29.15336">
        <ele>610.4</ele>
      </trkpt>
      <trkpt lat="36.50422" lon="29.15323">
        <ele>602.4</ele>
      </trkpt>
      <trkpt lat="36.5041" lon="29.15305">
        <ele>601.6</ele>
      </trkpt>
      <trkpt lat="36.50407" lon="29.15287">
        <ele>600.7</ele>
      </trkpt>
      <trkpt lat="36.50407" lon="29.15268">
        <ele>597.9</ele>
      </trkpt>
      <trkpt lat="36.50414" lon="29.15229">
        <ele>589.8</ele>
      </trkpt>
      <trkpt lat="36.50413" lon="29.15205">
        <ele>588</ele>
      </trkpt>
      <trkpt lat="36.50425" lon="29.15172">
        <ele>584.5</ele>
      </trkpt>
      <trkpt lat="36.50429" lon="29.15133">
        <ele>579.8</ele>
      </trkpt>
      <trkpt lat="36.50423" lon="29.15072">
        <ele>571.5</ele>
      </trkpt>
      <trkpt lat="36.50436" lon="29.15055">
        <ele>570.2</ele>
      </trkpt>
      <trkpt lat="36.50437" lon="29.15034">
        <ele>568</ele>
      </trkpt>
      <trkpt lat="36.50455" lon="29.15005">
        <ele>563.9</ele>
      </trkpt>
      <trkpt lat="36.50466" lon="29.14975">
        <ele>561.7</ele>
      </trkpt>
      <trkpt lat="36.50477" lon="29.14919">
        <ele>556.7</ele>
      </trkpt>
      <trkpt lat="36.50479" lon="29.14911">
        <ele>556.4</ele>
      </trkpt>
      <trkpt lat="36.50516" lon="29.14802">
        <ele>554.2</ele>
      </trkpt>
      <trkpt lat="36.50524" lon="29.14789">
        <ele>554</ele>
      </trkpt>
      <trkpt lat="36.50531" lon="29.14775">
        <ele>553.8</ele>
      </trkpt>
      <trkpt lat="36.50533" lon="29.14765">
        <ele>553.6</ele>
      </trkpt>
      <trkpt lat="36.5053" lon="29.14746">
        <ele>553.1</ele>
      </trkpt>
      <trkpt lat="36.50527" lon="29.14733">
        <ele>552</ele>
      </trkpt>
      <trkpt lat="36.50512" lon="29.14701">
        <ele>549.2</ele>
      </trkpt>
      <trkpt lat="36.50498" lon="29.14674">
        <ele>547</ele>
      </trkpt>
      <trkpt lat="36.50485" lon="29.1465">
        <ele>545.1</ele>
      </trkpt>
      <trkpt lat="36.50473" lon="29.14637">
        <ele>544.3</ele>
      </trkpt>
      <trkpt lat="36.50452" lon="29.14623">
        <ele>544.1</ele>
      </trkpt>
      <trkpt lat="36.50417" lon="29.14603">
        <ele>543.9</ele>
      </trkpt>
      <trkpt lat="36.50366" lon="29.14567">
        <ele>542.3</ele>
      </trkpt>
      <trkpt lat="36.50338" lon="29.14568">
        <ele>544.1</ele>
      </trkpt>
      <trkpt lat="36.50332" lon="29.14566">
        <ele>544.1</ele>
      </trkpt>
      <trkpt lat="36.50319" lon="29.14528">
        <ele>539.8</ele>
      </trkpt>
      <trkpt lat="36.50311" lon="29.145">
        <ele>536.5</ele>
      </trkpt>
      <trkpt lat="36.503" lon="29.14453">
        <ele>536</ele>
      </trkpt>
      <trkpt lat="36.50295" lon="29.14442">
        <ele>535.3</ele>
      </trkpt>
      <trkpt lat="36.50281" lon="29.1443">
        <ele>533.4</ele>
      </trkpt>
      <trkpt lat="36.50268" lon="29.14428">
        <ele>531.4</ele>
      </trkpt>
      <trkpt lat="36.5025" lon="29.14425">
        <ele>528.7</ele>
      </trkpt>
      <trkpt lat="36.50242" lon="29.14407">
        <ele>526.9</ele>
      </trkpt>
      <trkpt lat="36.50226" lon="29.14379">
        <ele>523.1</ele>
      </trkpt>
      <trkpt lat="36.50199" lon="29.14353">
        <ele>517</ele>
      </trkpt>
      <trkpt lat="36.50166" lon="29.1431">
        <ele>506.1</ele>
      </trkpt>
      <trkpt lat="36.50143" lon="29.14267">
        <ele>498.1</ele>
      </trkpt>
      <trkpt lat="36.5011" lon="29.14232">
        <ele>490.8</ele>
      </trkpt>
      <trkpt lat="36.50092" lon="29.14214">
        <ele>486.8</ele>
      </trkpt>
      <trkpt lat="36.50077" lon="29.14205">
        <ele>483.9</ele>
      </trkpt>
      <trkpt lat="36.50062" lon="29.14201">
        <ele>481.4</ele>
      </trkpt>
      <trkpt lat="36.50005" lon="29.14198">
        <ele>472.8</ele>
      </trkpt>
      <trkpt lat="36.49995" lon="29.14204">
        <ele>470.2</ele>
      </trkpt>
      <trkpt lat="36.49985" lon="29.14217">
        <ele>467.4</ele>
      </trkpt>
      <trkpt lat="36.49976" lon="29.14231">
        <ele>466</ele>
      </trkpt>
      <trkpt lat="36.49972" lon="29.14236">
        <ele>465</ele>
      </trkpt>
      <trkpt lat="36.49968" lon="29.14236">
        <ele>463.3</ele>
      </trkpt>
      <trkpt lat="36.49966" lon="29.14233">
        <ele>462.1</ele>
      </trkpt>
      <trkpt lat="36.49969" lon="29.14226">
        <ele>462</ele>
      </trkpt>
      <trkpt lat="36.49971" lon="29.14217">
        <ele>461.1</ele>
      </trkpt>
      <trkpt lat="36.4997" lon="29.14212">
        <ele>459.6</ele>
      </trkpt>
      <trkpt lat="36.49967" lon="29.1421">
        <ele>458.2</ele>
      </trkpt>
      <trkpt lat="36.49964" lon="29.14211">
        <ele>456.7</ele>
      </trkpt>
      <trkpt lat="36.4996" lon="29.14219">
        <ele>456.2</ele>
      </trkpt>
      <trkpt lat="36.49949" lon="29.14222">
        <ele>451.7</ele>
      </trkpt>
      <trkpt lat="36.49942" lon="29.14222">
        <ele>448.8</ele>
      </trkpt>
      <trkpt lat="36.49936" lon="29.14237">
        <ele>449.7</ele>
      </trkpt>
      <trkpt lat="36.49908" lon="29.14253">
        <ele>441.1</ele>
      </trkpt>
      <trkpt lat="36.49901" lon="29.14264">
        <ele>439.8</ele>
      </trkpt>
      <trkpt lat="36.49888" lon="29.14273">
        <ele>435.7</ele>
      </trkpt>
      <trkpt lat="36.49878" lon="29.14276">
        <ele>431.4</ele>
      </trkpt>
      <trkpt lat="36.49876" lon="29.14272">
        <ele>429.4</ele>
      </trkpt>
      <trkpt lat="36.49881" lon="29.14261">
        <ele>429.3</ele>
      </trkpt>
      <trkpt lat="36.4988" lon="29.14254">
        <ele>427.6</ele>
      </trkpt>
      <trkpt lat="36.49874" lon="29.14254">
        <ele>424.3</ele>
      </trkpt>
      <trkpt lat="36.49867" lon="29.14256">
        <ele>421.3</ele>
      </trkpt>
      <trkpt lat="36.49861" lon="29.14249">
        <ele>416.3</ele>
      </trkpt>
      <trkpt lat="36.49875" lon="29.14231">
        <ele>418.6</ele>
      </trkpt>
      <trkpt lat="36.49873" lon="29.14226">
        <ele>416</ele>
      </trkpt>
      <trkpt lat="36.49862" lon="29.14231">
        <ele>411.8</ele>
      </trkpt>
      <trkpt lat="36.49845" lon="29.14235">
        <ele>404.4</ele>
      </trkpt>
      <trkpt lat="36.4984" lon="29.14234">
        <ele>401.5</ele>
      </trkpt>
      <trkpt lat="36.49837" lon="29.14236">
        <ele>400.3</ele>
      </trkpt>
      <trkpt lat="36.49809" lon="29.14237">
        <ele>395.5</ele>
      </trkpt>
      <trkpt lat="36.49791" lon="29.14237">
        <ele>393.1</ele>
      </trkpt>
      <trkpt lat="36.49788" lon="29.1424">
        <ele>393.6</ele>
      </trkpt>
      <trkpt lat="36.49779" lon="29.14243">
        <ele>393.4</ele>
      </trkpt>
      <trkpt lat="36.4977" lon="29.14249">
        <ele>394.2</ele>
      </trkpt>
      <trkpt lat="36.49768" lon="29.14244">
        <ele>392.2</ele>
      </trkpt>
      <trkpt lat="36.49763" lon="29.14244">
        <ele>391.7</ele>
      </trkpt>
      <trkpt lat="36.49757" lon="29.1423">
        <ele>386</ele>
      </trkpt>
      <trkpt lat="36.49744" lon="29.14215">
        <ele>379.9</ele>
      </trkpt>
      <trkpt lat="36.49742" lon="29.14208">
        <ele>377.5</ele>
      </trkpt>
      <trkpt lat="36.4974" lon="29.1421">
        <ele>378.1</ele>
      </trkpt>
      <trkpt lat="36.49737" lon="29.14206">
        <ele>376.8</ele>
      </trkpt>
      <trkpt lat="36.49732" lon="29.14206">
        <ele>376.8</ele>
      </trkpt>
      <trkpt lat="36.49733" lon="29.14201">
        <ele>374.9</ele>
      </trkpt>
      <trkpt lat="36.49727" lon="29.14191">
        <ele>371.2</ele>
      </trkpt>
      <trkpt lat="36.49729" lon="29.1419">
        <ele>370.6</ele>
      </trkpt>
      <trkpt lat="36.49721" lon="29.1418">
        <ele>367</ele>
      </trkpt>
      <trkpt lat="36.49717" lon="29.14159">
        <ele>359.7</ele>
      </trkpt>
      <trkpt lat="36.49694" lon="29.1414">
        <ele>353.9</ele>
      </trkpt>
      <trkpt lat="36.4969" lon="29.14137">
        <ele>352.9</ele>
      </trkpt>
      <trkpt lat="36.49677" lon="29.14139">
        <ele>352.7</ele>
      </trkpt>
      <trkpt lat="36.49666" lon="29.14145">
        <ele>354.1</ele>
      </trkpt>
      <trkpt lat="36.49656" lon="29.14147">
        <ele>357.8</ele>
      </trkpt>
      <trkpt lat="36.49648" lon="29.14139">
        <ele>357.7</ele>
      </trkpt>
      <trkpt lat="36.49643" lon="29.14122">
        <ele>354.2</ele>
      </trkpt>
      <trkpt lat="36.49648" lon="29.141">
        <ele>346.5</ele>
      </trkpt>
      <trkpt lat="36.4965" lon="29.14073">
        <ele>338.4</ele>
      </trkpt>
      <trkpt lat="36.49647" lon="29.14054">
        <ele>334.6</ele>
      </trkpt>
      <trkpt lat="36.49639" lon="29.14046">
        <ele>334.6</ele>
      </trkpt>
      <trkpt lat="36.49622" lon="29.14037">
        <ele>336.7</ele>
      </trkpt>
      <trkpt lat="36.4962" lon="29.14032">
        <ele>336.1</ele>
      </trkpt>
      <trkpt lat="36.49625" lon="29.14025">
        <ele>333.4</ele>
      </trkpt>
      <trkpt lat="36.49634" lon="29.14018">
        <ele>329.5</ele>
      </trkpt>
      <trkpt lat="36.49648" lon="29.14015">
        <ele>325.3</ele>
      </trkpt>
      <trkpt lat="36.4964" lon="29.14015">
        <ele>327.1</ele>
      </trkpt>
      <trkpt lat="36.4963" lon="29.14012">
        <ele>329.1</ele>
      </trkpt>
      <trkpt lat="36.49618" lon="29.14">
        <ele>329.2</ele>
      </trkpt>
      <trkpt lat="36.49613" lon="29.13987">
        <ele>329.2</ele>
      </trkpt>
      <trkpt lat="36.49609" lon="29.13978">
        <ele>329.2</ele>
      </trkpt>
      <trkpt lat="36.49594" lon="29.13932">
        <ele>327.8</ele>
      </trkpt>
      <trkpt lat="36.4958" lon="29.13909">
        <ele>329.8</ele>
      </trkpt>
      <trkpt lat="36.49568" lon="29.13882">
        <ele>332.3</ele>
      </trkpt>
      <trkpt lat="36.49561" lon="29.13848">
        <ele>331.1</ele>
      </trkpt>
      <trkpt lat="36.49558" lon="29.13816">
        <ele>326</ele>
      </trkpt>
      <trkpt lat="36.4955" lon="29.13792">
        <ele>322.4</ele>
      </trkpt>
      <trkpt lat="36.49543" lon="29.13783">
        <ele>322.1</ele>
      </trkpt>
      <trkpt lat="36.49535" lon="29.13773">
        <ele>321.6</ele>
      </trkpt>
      <trkpt lat="36.49522" lon="29.13763">
        <ele>321.8</ele>
      </trkpt>
      <trkpt lat="36.49506" lon="29.13758">
        <ele>324.2</ele>
      </trkpt>
      <trkpt lat="36.49486" lon="29.13748">
        <ele>327</ele>
      </trkpt>
      <trkpt lat="36.49454" lon="29.13688">
        <ele>319.7</ele>
      </trkpt>
      <trkpt lat="36.49431" lon="29.13658">
        <ele>319.5</ele>
      </trkpt>
      <trkpt lat="36.49426" lon="29.13643">
        <ele>319.2</ele>
      </trkpt>
      <trkpt lat="36.49406" lon="29.13623">
        <ele>322.1</ele>
      </trkpt>
      <trkpt lat="36.49396" lon="29.13599">
        <ele>321.9</ele>
      </trkpt>
      <trkpt lat="36.49394" lon="29.13576">
        <ele>320.2</ele>
      </trkpt>
      <trkpt lat="36.49387" lon="29.13553">
        <ele>320.7</ele>
      </trkpt>
      <trkpt lat="36.49361" lon="29.13499">
        <ele>323.6</ele>
      </trkpt>
      <trkpt lat="36.49353" lon="29.13455">
        <ele>322.8</ele>
      </trkpt>
      <trkpt lat="36.49345" lon="29.13438">
        <ele>322.5</ele>
      </trkpt>
      <trkpt lat="36.49307" lon="29.13417">
        <ele>322.5</ele>
      </trkpt>
      <trkpt lat="36.49267" lon="29.13403">
        <ele>322.6</ele>
      </trkpt>
      <trkpt lat="36.4924" lon="29.13401">
        <ele>324.3</ele>
      </trkpt>
      <trkpt lat="36.49219" lon="29.13397">
        <ele>326.3</ele>
      </trkpt>
      <trkpt lat="36.49198" lon="29.13386">
        <ele>327.8</ele>
      </trkpt>
      <trkpt lat="36.49194" lon="29.13374">
        <ele>327.2</ele>
      </trkpt>
      <trkpt lat="36.49195" lon="29.13367">
        <ele>326.4</ele>
      </trkpt>
      <trkpt lat="36.49193" lon="29.13359">
        <ele>325.8</ele>
      </trkpt>
      <trkpt lat="36.49196" lon="29.13344">
        <ele>323.7</ele>
      </trkpt>
      <trkpt lat="36.49181" lon="29.13334">
        <ele>326.1</ele>
      </trkpt>
      <trkpt lat="36.4917" lon="29.13335">
        <ele>328.5</ele>
      </trkpt>
      <trkpt lat="36.49163" lon="29.13325">
        <ele>329.8</ele>
      </trkpt>
      <trkpt lat="36.49145" lon="29.13325">
        <ele>336.6</ele>
      </trkpt>
      <trkpt lat="36.49137" lon="29.13316">
        <ele>338.6</ele>
      </trkpt>
      <trkpt lat="36.49121" lon="29.13309">
        <ele>344.1</ele>
      </trkpt>
      <trkpt lat="36.49111" lon="29.13297">
        <ele>347</ele>
      </trkpt>
      <trkpt lat="36.49095" lon="29.13263">
        <ele>350.5</ele>
      </trkpt>
      <trkpt lat="36.49077" lon="29.13212">
        <ele>359.6</ele>
      </trkpt>
      <trkpt lat="36.49068" lon="29.1319">
        <ele>365.8</ele>
      </trkpt>
      <trkpt lat="36.49054" lon="29.1318">
        <ele>376.5</ele>
      </trkpt>
      <trkpt lat="36.49045" lon="29.13157">
        <ele>382</ele>
      </trkpt>
      <trkpt lat="36.48996" lon="29.13131">
        <ele>412.3</ele>
      </trkpt>
      <trkpt lat="36.48961" lon="29.13125">
        <ele>427.8</ele>
      </trkpt>
      <trkpt lat="36.48955" lon="29.13125">
        <ele>430.2</ele>
      </trkpt>
      <trkpt lat="36.4895" lon="29.13131">
        <ele>433.3</ele>
      </trkpt>
      <trkpt lat="36.4893" lon="29.13116">
        <ele>440.1</ele>
      </trkpt>
      <trkpt lat="36.48922" lon="29.13115">
        <ele>443.8</ele>
      </trkpt>
      <trkpt lat="36.48916" lon="29.13126">
        <ele>448</ele>
      </trkpt>
      <trkpt lat="36.48907" lon="29.13128">
        <ele>451.5</ele>
      </trkpt>
      <trkpt lat="36.48884" lon="29.13118">
        <ele>457.8</ele>
      </trkpt>
      <trkpt lat="36.48881" lon="29.13102">
        <ele>455.5</ele>
      </trkpt>
      <trkpt lat="36.48869" lon="29.13084">
        <ele>455.6</ele>
      </trkpt>
      <trkpt lat="36.4887" lon="29.13069">
        <ele>455.2</ele>
      </trkpt>
      <trkpt lat="36.48872" lon="29.13055">
        <ele>455.1</ele>
      </trkpt>
      <trkpt lat="36.48867" lon="29.13047">
        <ele>456.3</ele>
      </trkpt>
      <trkpt lat="36.48859" lon="29.13044">
        <ele>458</ele>
      </trkpt>
      <trkpt lat="36.48839" lon="29.13049">
        <ele>462.3</ele>
      </trkpt>
      <trkpt lat="36.48821" lon="29.1306">
        <ele>464.9</ele>
      </trkpt>
      <trkpt lat="36.4881" lon="29.13059">
        <ele>465.3</ele>
      </trkpt>
      <trkpt lat="36.48805" lon="29.13051">
        <ele>464.5</ele>
      </trkpt>
      <trkpt lat="36.48799" lon="29.13042">
        <ele>463.3</ele>
      </trkpt>
      <trkpt lat="36.48782" lon="29.13031">
        <ele>461.2</ele>
      </trkpt>
      <trkpt lat="36.48741" lon="29.13021">
        <ele>458.9</ele>
      </trkpt>
      <trkpt lat="36.48709" lon="29.13019">
        <ele>461.9</ele>
      </trkpt>
      <trkpt lat="36.4867" lon="29.13003">
        <ele>459.1</ele>
      </trkpt>
      <trkpt lat="36.48645" lon="29.12994">
        <ele>459.7</ele>
      </trkpt>
      <trkpt lat="36.48603" lon="29.12955">
        <ele>449.9</ele>
      </trkpt>
      <trkpt lat="36.48552" lon="29.12926">
        <ele>444.6</ele>
      </trkpt>
      <trkpt lat="36.48519" lon="29.1289">
        <ele>440.8</ele>
      </trkpt>
      <trkpt lat="36.48501" lon="29.12871">
        <ele>440.6</ele>
      </trkpt>
      <trkpt lat="36.48478" lon="29.12866">
        <ele>436.8</ele>
      </trkpt>
      <trkpt lat="36.4844" lon="29.12875">
        <ele>433.6</ele>
      </trkpt>
      <trkpt lat="36.48406" lon="29.12887">
        <ele>432.2</ele>
      </trkpt>
      <trkpt lat="36.48353" lon="29.12878">
        <ele>424.2</ele>
      </trkpt>
      <trkpt lat="36.48326" lon="29.12882">
        <ele>421.4</ele>
      </trkpt>
      <trkpt lat="36.4831" lon="29.12889">
        <ele>419.9</ele>
      </trkpt>
      <trkpt lat="36.48293" lon="29.12878">
        <ele>411.6</ele>
      </trkpt>
      <trkpt lat="36.4827" lon="29.12877">
        <ele>405.4</ele>
      </trkpt>
      <trkpt lat="36.48251" lon="29.12885">
        <ele>403.8</ele>
      </trkpt>
      <trkpt lat="36.48232" lon="29.12896">
        <ele>404.4</ele>
      </trkpt>
      <trkpt lat="36.4821" lon="29.12894">
        <ele>398.9</ele>
      </trkpt>
      <trkpt lat="36.48175" lon="29.12897">
        <ele>392.7</ele>
      </trkpt>
      <trkpt lat="36.48144" lon="29.12911">
        <ele>389.4</ele>
      </trkpt>
      <trkpt lat="36.48094" lon="29.12913">
        <ele>376.6</ele>
      </trkpt>
      <trkpt lat="36.48065" lon="29.1293">
        <ele>377.3</ele>
      </trkpt>
      <trkpt lat="36.48044" lon="29.12958">
        <ele>383.9</ele>
      </trkpt>
      <trkpt lat="36.48023" lon="29.1297">
        <ele>384</ele>
      </trkpt>
      <trkpt lat="36.48005" lon="29.12975">
        <ele>381.9</ele>
      </trkpt>
      <trkpt lat="36.47991" lon="29.12974">
        <ele>384.5</ele>
      </trkpt>
      <trkpt lat="36.47978" lon="29.12951">
        <ele>383.9</ele>
      </trkpt>
      <trkpt lat="36.47971" lon="29.12928">
        <ele>380.6</ele>
      </trkpt>
      <trkpt lat="36.47946" lon="29.12904">
        <ele>388.9</ele>
      </trkpt>
      <trkpt lat="36.47932" lon="29.12882">
        <ele>392.8</ele>
      </trkpt>
      <trkpt lat="36.47938" lon="29.12839">
        <ele>381</ele>
      </trkpt>
      <trkpt lat="36.47937" lon="29.12799">
        <ele>374</ele>
      </trkpt>
      <trkpt lat="36.47913" lon="29.12771">
        <ele>381.7</ele>
      </trkpt>
      <trkpt lat="36.47896" lon="29.12759">
        <ele>390.8</ele>
      </trkpt>
      <trkpt lat="36.4789" lon="29.12736">
        <ele>389.4</ele>
      </trkpt>
      <trkpt lat="36.4788" lon="29.1272">
        <ele>392.4</ele>
      </trkpt>
      <trkpt lat="36.47879" lon="29.12691">
        <ele>386.4</ele>
      </trkpt>
      <trkpt lat="36.47864" lon="29.12674">
        <ele>391.7</ele>
      </trkpt>
      <trkpt lat="36.47842" lon="29.12666">
        <ele>402.2</ele>
      </trkpt>
      <trkpt lat="36.47839" lon="29.12632">
        <ele>399.5</ele>
      </trkpt>
      <trkpt lat="36.47816" lon="29.12592">
        <ele>405.3</ele>
      </trkpt>
      <trkpt lat="36.47805" lon="29.1255">
        <ele>405</ele>
      </trkpt>
      <trkpt lat="36.47792" lon="29.12516">
        <ele>404.1</ele>
      </trkpt>
      <trkpt lat="36.47767" lon="29.12491">
        <ele>405.8</ele>
      </trkpt>
      <trkpt lat="36.47752" lon="29.12475">
        <ele>407.5</ele>
      </trkpt>
      <trkpt lat="36.4775" lon="29.1246">
        <ele>406.6</ele>
      </trkpt>
      <trkpt lat="36.47757" lon="29.12442">
        <ele>403.8</ele>
      </trkpt>
      <trkpt lat="36.47753" lon="29.12411">
        <ele>401.5</ele>
      </trkpt>
      <trkpt lat="36.47731" lon="29.12384">
        <ele>401.9</ele>
      </trkpt>
      <trkpt lat="36.47712" lon="29.12376">
        <ele>405.1</ele>
      </trkpt>
      <trkpt lat="36.47685" lon="29.12378">
        <ele>411.5</ele>
      </trkpt>
      <trkpt lat="36.47665" lon="29.12376">
        <ele>416.1</ele>
      </trkpt>
      <trkpt lat="36.47654" lon="29.12355">
        <ele>416.5</ele>
      </trkpt>
      <trkpt lat="36.47662" lon="29.12318">
        <ele>412</ele>
      </trkpt>
      <trkpt lat="36.47679" lon="29.12281">
        <ele>408.4</ele>
      </trkpt>
      <trkpt lat="36.47689" lon="29.122">
        <ele>401.4</ele>
      </trkpt>
      <trkpt lat="36.47686" lon="29.12164">
        <ele>399.9</ele>
      </trkpt>
      <trkpt lat="36.47672" lon="29.12131">
        <ele>401.2</ele>
      </trkpt>
      <trkpt lat="36.47647" lon="29.12113">
        <ele>401.7</ele>
      </trkpt>
      <trkpt lat="36.47629" lon="29.1211">
        <ele>402.1</ele>
      </trkpt>
      <trkpt lat="36.47589" lon="29.12137">
        <ele>408</ele>
      </trkpt>
      <trkpt lat="36.47534" lon="29.12173">
        <ele>409.7</ele>
      </trkpt>
      <trkpt lat="36.47488" lon="29.12215">
        <ele>412.9</ele>
      </trkpt>
      <trkpt lat="36.47445" lon="29.12265">
        <ele>413.9</ele>
      </trkpt>
      <trkpt lat="36.4744" lon="29.12268">
        <ele>413.1</ele>
      </trkpt>
      <trkpt lat="36.47421" lon="29.12262">
        <ele>410.8</ele>
      </trkpt>
      <trkpt lat="36.47398" lon="29.1226">
        <ele>409</ele>
      </trkpt>
      <trkpt lat="36.47351" lon="29.12281">
        <ele>404.1</ele>
      </trkpt>
      <trkpt lat="36.47306" lon="29.12303">
        <ele>396.9</ele>
      </trkpt>
      <trkpt lat="36.47284" lon="29.12316">
        <ele>394.1</ele>
      </trkpt>
      <trkpt lat="36.47262" lon="29.12338">
        <ele>392.7</ele>
      </trkpt>
      <trkpt lat="36.47252" lon="29.12351">
        <ele>391.1</ele>
      </trkpt>
      <trkpt lat="36.47244" lon="29.12349">
        <ele>389.7</ele>
      </trkpt>
      <trkpt lat="36.47243" lon="29.1231">
        <ele>387.4</ele>
      </trkpt>
      <trkpt lat="36.47248" lon="29.1228">
        <ele>384.6</ele>
      </trkpt>
      <trkpt lat="36.4713" lon="29.12284">
        <ele>361.1</ele>
      </trkpt>
      <trkpt lat="36.47097" lon="29.1227">
        <ele>354.6</ele>
      </trkpt>
      <trkpt lat="36.47066" lon="29.12293">
        <ele>345.4</ele>
      </trkpt>
      <trkpt lat="36.47047" lon="29.12333">
        <ele>336.9</ele>
      </trkpt>
      <trkpt lat="36.4703" lon="29.12355">
        <ele>326.7</ele>
      </trkpt>
      <trkpt lat="36.47002" lon="29.12382">
        <ele>310.8</ele>
      </trkpt>
      <trkpt lat="36.4699" lon="29.12376">
        <ele>306.7</ele>
      </trkpt>
      <trkpt lat="36.46983" lon="29.12356">
        <ele>305.8</ele>
      </trkpt>
      <trkpt lat="36.46972" lon="29.12368">
        <ele>299.7</ele>
      </trkpt>
      <trkpt lat="36.46962" lon="29.12386">
        <ele>294.1</ele>
      </trkpt>
      <trkpt lat="36.46948" lon="29.12393">
        <ele>287.7</ele>
      </trkpt>
      <trkpt lat="36.46936" lon="29.12395">
        <ele>282.6</ele>
      </trkpt>
      <trkpt lat="36.46926" lon="29.12388">
        <ele>278.9</ele>
      </trkpt>
      <trkpt lat="36.46921" lon="29.12364">
        <ele>277.8</ele>
      </trkpt>
      <trkpt lat="36.46913" lon="29.12346">
        <ele>275.5</ele>
      </trkpt>
      <trkpt lat="36.46899" lon="29.12337">
        <ele>272.3</ele>
      </trkpt>
      <trkpt lat="36.46872" lon="29.1233">
        <ele>265.9</ele>
      </trkpt>
      <trkpt lat="36.46851" lon="29.12333">
        <ele>260.5</ele>
      </trkpt>
      <trkpt lat="36.46837" lon="29.12346">
        <ele>256.3</ele>
      </trkpt>
      <trkpt lat="36.46833" lon="29.12361">
        <ele>254.2</ele>
      </trkpt>
      <trkpt lat="36.46833" lon="29.12361">
        <ele>254.2</ele>
      </trkpt>
      <trkpt lat="36.46954" lon="29.14506">
      </trkpt>
      <trkpt lat="36.46994" lon="29.14501">
      </trkpt>
      <trkpt lat="36.47027" lon="29.14502">
        <ele>432</ele>
      </trkpt>
      <trkpt lat="36.47049" lon="29.14478">
      </trkpt>
      <trkpt lat="36.47061" lon="29.14433">
      </trkpt>
      <trkpt lat="36.4713" lon="29.14458">
        <ele>376</ele>
      </trkpt>
      <trkpt lat="36.47174" lon="29.14528">
        <ele>384.7</ele>
      </trkpt>
      <trkpt lat="36.47242" lon="29.14544">
        <ele>373.9</ele>
      </trkpt>
      <trkpt lat="36.47254" lon="29.14564">
        <ele>376.7</ele>
      </trkpt>
      <trkpt lat="36.47269" lon="29.14566">
        <ele>377.9</ele>
      </trkpt>
      <trkpt lat="36.47283" lon="29.14521">
        <ele>373.1</ele>
      </trkpt>
      <trkpt lat="36.47264" lon="29.14494">
        <ele>365.6</ele>
      </trkpt>
      <trkpt lat="36.47262" lon="29.14394">
        <ele>362.2</ele>
      </trkpt>
      <trkpt lat="36.47278" lon="29.14304">
        <ele>371.6</ele>
      </trkpt>
      <trkpt lat="36.4727" lon="29.14273">
        <ele>372.9</ele>
      </trkpt>
      <trkpt lat="36.47249" lon="29.14266">
        <ele>364.8</ele>
      </trkpt>
      <trkpt lat="36.47215" lon="29.14219">
        <ele>363.6</ele>
      </trkpt>
      <trkpt lat="36.47177" lon="29.14206">
        <ele>343.1</ele>
      </trkpt>
      <trkpt lat="36.47144" lon="29.14025">
        <ele>338.4</ele>
      </trkpt>
      <trkpt lat="36.47146" lon="29.1392">
        <ele>370</ele>
      </trkpt>
      <trkpt lat="36.4712" lon="29.13898">
        <ele>359.3</ele>
      </trkpt>
      <trkpt lat="36.47078" lon="29.13875">
        <ele>340.2</ele>
      </trkpt>
      <trkpt lat="36.47064" lon="29.13855">
        <ele>338.8</ele>
      </trkpt>
      <trkpt lat="36.47081" lon="29.1383">
        <ele>352.5</ele>
      </trkpt>
      <trkpt lat="36.47084" lon="29.13771">
        <ele>368.5</ele>
      </trkpt>
      <trkpt lat="36.47068" lon="29.13744">
        <ele>367.5</ele>
      </trkpt>
      <trkpt lat="36.47044" lon="29.13718">
        <ele>366.7</ele>
      </trkpt>
      <trkpt lat="36.46978" lon="29.13688">
        <ele>342.2</ele>
      </trkpt>
      <trkpt lat="36.46958" lon="29.13649">
        <ele>346</ele>
      </trkpt>
      <trkpt lat="36.4695" lon="29.13606">
        <ele>357.2</ele>
      </trkpt>
      <trkpt lat="36.46941" lon="29.13582">
        <ele>360.2</ele>
      </trkpt>
      <trkpt lat="36.46916" lon="29.13557">
        <ele>356.6</ele>
      </trkpt>
      <trkpt lat="36.46912" lon="29.13521">
        <ele>371.7</ele>
      </trkpt>
      <trkpt lat="36.46897" lon="29.13504">
        <ele>373.1</ele>
      </trkpt>
      <trkpt lat="36.46857" lon="29.13507">
        <ele>353</ele>
      </trkpt>
      <trkpt lat="36.46814" lon="29.13472">
        <ele>349.3</ele>
      </trkpt>
      <trkpt lat="36.46804" lon="29.13432">
        <ele>369.6</ele>
      </trkpt>
      <trkpt lat="36.46824" lon="29.13368">
        <ele>369.2</ele>
      </trkpt>
      <trkpt lat="36.46803" lon="29.13288">
        <ele>336.5</ele>
      </trkpt>
      <trkpt lat="36.46831" lon="29.13275">
        <ele>351.8</ele>
      </trkpt>
      <trkpt lat="36.4687" lon="29.13282">
        <ele>374.4</ele>
      </trkpt>
      <trkpt lat="36.46937" lon="29.13204">
        <ele>373.8</ele>
      </trkpt>
      <trkpt lat="36.46953" lon="29.13174">
        <ele>372.7</ele>
      </trkpt>
      <trkpt lat="36.46983" lon="29.13112">
        <ele>376.8</ele>
      </trkpt>
      <trkpt lat="36.46972" lon="29.13041">
        <ele>347.7</ele>
      </trkpt>
      <trkpt lat="36.46998" lon="29.12987">
        <ele>344.8</ele>
      </trkpt>
      <trkpt lat="36.47035" lon="29.12963">
        <ele>358.4</ele>
      </trkpt>
      <trkpt lat="36.47053" lon="29.12929">
        <ele>356.4</ele>
      </trkpt>
      <trkpt lat="36.47051" lon="29.12916">
        <ele>350.2</ele>
      </trkpt>
      <trkpt lat="36.47048" lon="29.129">
        <ele>344.1</ele>
      </trkpt>
      <trkpt lat="36.47052" lon="29.1287">
        <ele>338.9</ele>
      </trkpt>
      <trkpt lat="36.47052" lon="29.12818">
        <ele>327</ele>
      </trkpt>
      <trkpt lat="36.4704" lon="29.12802">
        <ele>318.5</ele>
      </trkpt>
      <trkpt lat="36.47031" lon="29.12785">
        <ele>311.1</ele>
      </trkpt>
      <trkpt lat="36.47028" lon="29.1277">
        <ele>307.1</ele>
      </trkpt>
      <trkpt lat="36.47029" lon="29.12755">
        <ele>305.7</ele>
      </trkpt>
      <trkpt lat="36.47032" lon="29.12732">
        <ele>303.5</ele>
      </trkpt>
      <trkpt lat="36.47048" lon="29.12682">
        <ele>303.1</ele>
      </trkpt>
      <trkpt lat="36.47059" lon="29.12657">
        <ele>302.4</ele>
      </trkpt>
      <trkpt lat="36.47085" lon="29.12624">
        <ele>302</ele>
      </trkpt>
      <trkpt lat="36.47103" lon="29.12598">
        <ele>302.4</ele>
      </trkpt>
      <trkpt lat="36.47106" lon="29.12584">
        <ele>299.6</ele>
      </trkpt>
      <trkpt lat="36.47106" lon="29.1257">
        <ele>301.1</ele>
      </trkpt>
      <trkpt lat="36.471" lon="29.1255">
        <ele>300.6</ele>
      </trkpt>
      <trkpt lat="36.47091" lon="29.12534">
        <ele>298.5</ele>
      </trkpt>
      <trkpt lat="36.47075" lon="29.12525">
        <ele>293.5</ele>
      </trkpt>
      <trkpt lat="36.47057" lon="29.12524">
        <ele>287.9</ele>
      </trkpt>
      <trkpt lat="36.47032" lon="29.12524">
        <ele>280.3</ele>
      </trkpt>
      <trkpt lat="36.47004" lon="29.12515">
        <ele>272.9</ele>
      </trkpt>
      <trkpt lat="36.46978" lon="29.12515">
        <ele>265.7</ele>
      </trkpt>
      <trkpt lat="36.46966" lon="29.12512">
        <ele>262.9</ele>
      </trkpt>
      <trkpt lat="36.46956" lon="29.12505">
        <ele>261.6</ele>
      </trkpt>
      <trkpt lat="36.46938" lon="29.12487">
        <ele>261.5</ele>
      </trkpt>
      <trkpt lat="36.46918" lon="29.1247">
        <ele>260.4</ele>
      </trkpt>
      <trkpt lat="36.46907" lon="29.12462">
        <ele>259.9</ele>
      </trkpt>
      <trkpt lat="36.46895" lon="29.12457">
        <ele>258.3</ele>
      </trkpt>
      <trkpt lat="36.46886" lon="29.12454">
        <ele>257</ele>
      </trkpt>
      <trkpt lat="36.46873" lon="29.12451">
        <ele>254.7</ele>
      </trkpt>
      <trkpt lat="36.46866" lon="29.12447">
        <ele>253.6</ele>
      </trkpt>
      <trkpt lat="36.46862" lon="29.12438">
        <ele>254.5</ele>
      </trkpt>
      <trkpt lat="36.46858" lon="29.1242">
        <ele>257.2</ele>
      </trkpt>
      <trkpt lat="36.4685" lon="29.1238">
        <ele>257.7</ele>
      </trkpt>
      <trkpt lat="36.46846" lon="29.12365">
        <ele>257.4</ele>
      </trkpt>
      <trkpt lat="36.46842" lon="29.12362">
        <ele>256.6</ele>
      </trkpt>
      <trkpt lat="36.46833" lon="29.12361">
        <ele>254.2</ele>
      </trkpt>
      <trkpt lat="36.4683" lon="29.12368">
        <ele>253.1</ele>
      </trkpt>
      <trkpt lat="36.46826" lon="29.12376">
        <ele>251.8</ele>
      </trkpt>
      <trkpt lat="36.46819" lon="29.12381">
        <ele>249.9</ele>
      </trkpt>
      <trkpt lat="36.46812" lon="29.12382">
        <ele>248.5</ele>
      </trkpt>
      <trkpt lat="36.46804" lon="29.12379">
        <ele>246.7</ele>
      </trkpt>
      <trkpt lat="36.46791" lon="29.12372">
        <ele>244.3</ele>
      </trkpt>
      <trkpt lat="36.46775" lon="29.12366">
        <ele>240.9</ele>
      </trkpt>
      <trkpt lat="36.46765" lon="29.1236">
        <ele>239.1</ele>
      </trkpt>
      <trkpt lat="36.46761" lon="29.12353">
        <ele>238.5</ele>
      </trkpt>
      <trkpt lat="36.46752" lon="29.12339">
        <ele>237.1</ele>
      </trkpt>
      <trkpt lat="36.46744" lon="29.12328">
        <ele>234.9</ele>
      </trkpt>
      <trkpt lat="36.4675" lon="29.12354">
        <ele>235.8</ele>
      </trkpt>
      <trkpt lat="36.46754" lon="29.1238">
        <ele>235.6</ele>
      </trkpt>
      <trkpt lat="36.46736" lon="29.12364">
        <ele>231.3</ele>
      </trkpt>
      <trkpt lat="36.46728" lon="29.12354">
        <ele>229</ele>
      </trkpt>
      <trkpt lat="36.46717" lon="29.12343">
        <ele>226.2</ele>
      </trkpt>
      <trkpt lat="36.46704" lon="29.12311">
        <ele>221.9</ele>
      </trkpt>
      <trkpt lat="36.46697" lon="29.12297">
        <ele>219.3</ele>
      </trkpt>
      <trkpt lat="36.46688" lon="29.12284">
        <ele>216.4</ele>
      </trkpt>
      <trkpt lat="36.46676" lon="29.1228">
        <ele>212.9</ele>
      </trkpt>
      <trkpt lat="36.46665" lon="29.12266">
        <ele>209.6</ele>
      </trkpt>
      <trkpt lat="36.46644" lon="29.12254">
        <ele>203.8</ele>
      </trkpt>
      <trkpt lat="36.46623" lon="29.12234">
        <ele>197.7</ele>
      </trkpt>
      <trkpt lat="36.46611" lon="29.12219">
        <ele>194.3</ele>
      </trkpt>
      <trkpt lat="36.46606" lon="29.12203">
        <ele>193</ele>
      </trkpt>
      <trkpt lat="36.46604" lon="29.12199">
        <ele>192.8</ele>
      </trkpt>
      <trkpt lat="36.46594" lon="29.12182">
        <ele>190.7</ele>
      </trkpt>
      <trkpt lat="36.46563" lon="29.12183">
        <ele>181.7</ele>
      </trkpt>
      <trkpt lat="36.46557" lon="29.12198">
        <ele>179.3</ele>
      </trkpt>
      <trkpt lat="36.46546" lon="29.12206">
        <ele>175</ele>
      </trkpt>
      <trkpt lat="36.46539" lon="29.12208">
        <ele>172.5</ele>
      </trkpt>
      <trkpt lat="36.46534" lon="29.12206">
        <ele>170.8</ele>
      </trkpt>
      <trkpt lat="36.46522" lon="29.12195">
        <ele>167.6</ele>
      </trkpt>
      <trkpt lat="36.46516" lon="29.12192">
        <ele>165.4</ele>
      </trkpt>
      <trkpt lat="36.46507" lon="29.12207">
        <ele>161.4</ele>
      </trkpt>
      <trkpt lat="36.46496" lon="29.1222">
        <ele>155.9</ele>
      </trkpt>
      <trkpt lat="36.46491" lon="29.12233">
        <ele>152.6</ele>
      </trkpt>
      <trkpt lat="36.46489" lon="29.12242">
        <ele>150.5</ele>
      </trkpt>
      <trkpt lat="36.46485" lon="29.1225">
        <ele>147.9</ele>
      </trkpt>
      <trkpt lat="36.46482" lon="29.12253">
        <ele>146.1</ele>
      </trkpt>
      <trkpt lat="36.46476" lon="29.12254">
        <ele>143</ele>
      </trkpt>
      <trkpt lat="36.46465" lon="29.1225">
        <ele>137.7</ele>
      </trkpt>
      <trkpt lat="36.46461" lon="29.12228">
        <ele>137.1</ele>
      </trkpt>
      <trkpt lat="36.46451" lon="29.12211">
        <ele>132.4</ele>
      </trkpt>
      <trkpt lat="36.46438" lon="29.12198">
        <ele>126.4</ele>
      </trkpt>
      <trkpt lat="36.46431" lon="29.12185">
        <ele>123.6</ele>
      </trkpt>
      <trkpt lat="36.46426" lon="29.12177">
        <ele>121.5</ele>
      </trkpt>
      <trkpt lat="36.46423" lon="29.12173">
        <ele>119.8</ele>
      </trkpt>
      <trkpt lat="36.46424" lon="29.1218">
        <ele>120.4</ele>
      </trkpt>
      <trkpt lat="36.46428" lon="29.12185">
        <ele>121.8</ele>
      </trkpt>
      <trkpt lat="36.46427" lon="29.12195">
        <ele>121</ele>
      </trkpt>
      <trkpt lat="36.46424" lon="29.12199">
        <ele>118.7</ele>
      </trkpt>
      <trkpt lat="36.46415" lon="29.12194">
        <ele>114.1</ele>
      </trkpt>
      <trkpt lat="36.4641" lon="29.12198">
        <ele>111.1</ele>
      </trkpt>
      <trkpt lat="36.46413" lon="29.12204">
        <ele>112.4</ele>
      </trkpt>
      <trkpt lat="36.46417" lon="29.12205">
        <ele>114.7</ele>
      </trkpt>
      <trkpt lat="36.46418" lon="29.12211">
        <ele>115.2</ele>
      </trkpt>
      <trkpt lat="36.46416" lon="29.12216">
        <ele>113.6</ele>
      </trkpt>
      <trkpt lat="36.46413" lon="29.12211">
        <ele>112.1</ele>
      </trkpt>
      <trkpt lat="36.46398" lon="29.12209">
        <ele>103.5</ele>
      </trkpt>
      <trkpt lat="36.46405" lon="29.12218">
        <ele>107.3</ele>
      </trkpt>
      <trkpt lat="36.46413" lon="29.12239">
        <ele>110.4</ele>
      </trkpt>
      <trkpt lat="36.46417" lon="29.12255">
        <ele>111.8</ele>
      </trkpt>
      <trkpt lat="36.46415" lon="29.12266">
        <ele>109.5</ele>
      </trkpt>
      <trkpt lat="36.46412" lon="29.12277">
        <ele>107.1</ele>
      </trkpt>
      <trkpt lat="36.46403" lon="29.12296">
        <ele>100.6</ele>
      </trkpt>
      <trkpt lat="36.46395" lon="29.12308">
        <ele>96.2</ele>
      </trkpt>
      <trkpt lat="36.46386" lon="29.12314">
        <ele>91.3</ele>
      </trkpt>
      <trkpt lat="36.46383" lon="29.12318">
        <ele>89.4</ele>
      </trkpt>
      <trkpt lat="36.46379" lon="29.12315">
        <ele>88</ele>
      </trkpt>
      <trkpt lat="36.46374" lon="29.12318">
        <ele>85.3</ele>
      </trkpt>
      <trkpt lat="36.46368" lon="29.1232">
        <ele>82.3</ele>
      </trkpt>
      <trkpt lat="36.46362" lon="29.12314">
        <ele>79.7</ele>
      </trkpt>
      <trkpt lat="36.46355" lon="29.12321">
        <ele>76.5</ele>
      </trkpt>
      <trkpt lat="36.46346" lon="29.12321">
        <ele>72.2</ele>
      </trkpt>
      <trkpt lat="36.46337" lon="29.12318">
        <ele>68</ele>
      </trkpt>
      <trkpt lat="36.46332" lon="29.12319">
        <ele>65.4</ele>
      </trkpt>
      <trkpt lat="36.4633" lon="29.12321">
        <ele>64</ele>
      </trkpt>
      <trkpt lat="36.46335" lon="29.12329">
        <ele>66.7</ele>
      </trkpt>
      <trkpt lat="36.46357" lon="29.12346">
        <ele>75.2</ele>
      </trkpt>
      <trkpt lat="36.46357" lon="29.12359">
        <ele>73.6</ele>
      </trkpt>
      <trkpt lat="36.46348" lon="29.12381">
        <ele>66.5</ele>
      </trkpt>
      <trkpt lat="36.46344" lon="29.12407">
        <ele>61.3</ele>
      </trkpt>
      <trkpt lat="36.46346" lon="29.12426">
        <ele>60.3</ele>
      </trkpt>
      <trkpt lat="36.46342" lon="29.12428">
        <ele>58.4</ele>
      </trkpt>
      <trkpt lat="36.46333" lon="29.12427">
        <ele>54.3</ele>
      </trkpt>
      <trkpt lat="36.46328" lon="29.1243">
        <ele>52.2</ele>
      </trkpt>
      <trkpt lat="36.46323" lon="29.12431">
        <ele>49.9</ele>
      </trkpt>
      <trkpt lat="36.4632" lon="29.12434">
        <ele>48.8</ele>
      </trkpt>
      <trkpt lat="36.46291" lon="29.12433">
        <ele>37.3</ele>
      </trkpt>
      <trkpt lat="36.46288" lon="29.12434">
        <ele>36.1</ele>
      </trkpt>
      <trkpt lat="36.46251" lon="29.12439">
        <ele>21.5</ele>
      </trkpt>
      <trkpt lat="36.46235" lon="29.1244">
        <ele>17.7</ele>
      </trkpt>
      <trkpt lat="36.46221" lon="29.12444">
        <ele>14.9</ele>
      </trkpt>
      <trkpt lat="36.46209" lon="29.12458">
        <ele>12.9</ele>
      </trkpt>
      <trkpt lat="36.46204" lon="29.12475">
        <ele>12.4</ele>
      </trkpt>
      <trkpt lat="36.462" lon="29.12482">
        <ele>12</ele>
      </trkpt>
      <trkpt lat="36.46199" lon="29.12488">
        <ele>12.1</ele>
      </trkpt>
      <trkpt lat="36.46196" lon="29.12491">
        <ele>11.6</ele>
      </trkpt>
      <trkpt lat="36.46189" lon="29.12491">
        <ele>10.3</ele>
      </trkpt>
      <trkpt lat="36.46184" lon="29.12489">
        <ele>9.4</ele>
      </trkpt>
      <trkpt lat="36.46176" lon="29.12497">
        <ele>8.4</ele>
      </trkpt>
      <trkpt lat="36.46168" lon="29.12505">
        <ele>7.5</ele>
      </trkpt>
      <trkpt lat="36.46161" lon="29.1251">
        <ele>7.2</ele>
      </trkpt>
      <trkpt lat="36.46155" lon="29.12519">
        <ele>7.6</ele>
      </trkpt>
      <trkpt lat="36.46151" lon="29.12527">
        <ele>8.1</ele>
      </trkpt>
      <trkpt lat="36.46148" lon="29.12538">
        <ele>9</ele>
      </trkpt>
      <trkpt lat="36.46143" lon="29.12541">
        <ele>9.2</ele>
      </trkpt>
      <trkpt lat="36.4614" lon="29.12534">
        <ele>8.4</ele>
      </trkpt>
      <trkpt lat="36.4613" lon="29.12535">
        <ele>8.3</ele>
      </trkpt>
      <trkpt lat="36.46104" lon="29.12553">
        <ele>10.5</ele>
      </trkpt>
      <trkpt lat="36.46086" lon="29.12565">
        <ele>12.7</ele>
      </trkpt>
      <trkpt lat="36.46077" lon="29.12577">
        <ele>16.2</ele>
      </trkpt>
      <trkpt lat="36.4607" lon="29.12584">
        <ele>19.4</ele>
      </trkpt>
      <trkpt lat="36.46068" lon="29.12589">
        <ele>20.4</ele>
      </trkpt>
      <trkpt lat="36.46075" lon="29.12593">
        <ele>19.3</ele>
      </trkpt>
      <trkpt lat="36.46083" lon="29.12605">
        <ele>18.9</ele>
      </trkpt>
      <trkpt lat="36.4609" lon="29.12675">
        <ele>26.7</ele>
      </trkpt>
      <trkpt lat="36.46105" lon="29.12707">
        <ele>26.4</ele>
      </trkpt>
      <trkpt lat="36.46126" lon="29.12733">
        <ele>24.5</ele>
      </trkpt>
      <trkpt lat="36.46131" lon="29.12762">
        <ele>24.9</ele>
      </trkpt>
      <trkpt lat="36.46153" lon="29.12802">
        <ele>22.8</ele>
      </trkpt>
      <trkpt lat="36.46174" lon="29.12835">
        <ele>20.9</ele>
      </trkpt>
      <trkpt lat="36.46192" lon="29.12882">
        <ele>31</ele>
      </trkpt>
      <trkpt lat="36.46222" lon="29.1292">
        <ele>34.4</ele>
      </trkpt>
      <trkpt lat="36.46244" lon="29.12933">
        <ele>34</ele>
      </trkpt>
      <trkpt lat="36.4625" lon="29.12957">
        <ele>37.3</ele>
      </trkpt>
      <trkpt lat="36.46248" lon="29.12971">
        <ele>40.2</ele>
      </trkpt>
      <trkpt lat="36.46252" lon="29.12984">
        <ele>42.7</ele>
      </trkpt>
      <trkpt lat="36.46249" lon="29.12999">
        <ele>45.1</ele>
      </trkpt>
      <trkpt lat="36.46247" lon="29.13023">
        <ele>45.9</ele>
      </trkpt>
      <trkpt lat="36.46248" lon="29.13041">
        <ele>45.7</ele>
      </trkpt>
      <trkpt lat="36.46259" lon="29.13053">
        <ele>47.1</ele>
      </trkpt>
      <trkpt lat="36.46276" lon="29.13081">
        <ele>51</ele>
      </trkpt>
      <trkpt lat="36.46291" lon="29.13108">
        <ele>54.2</ele>
      </trkpt>
      <trkpt lat="36.463" lon="29.1313">
        <ele>55.1</ele>
      </trkpt>
      <trkpt lat="36.46318" lon="29.13156">
        <ele>54.8</ele>
      </trkpt>
      <trkpt lat="36.46327" lon="29.13173">
        <ele>54.6</ele>
      </trkpt>
      <trkpt lat="36.46336" lon="29.13194">
        <ele>57.3</ele>
      </trkpt>
      <trkpt lat="36.4633" lon="29.13229">
        <ele>59.8</ele>
      </trkpt>
      <trkpt lat="36.46354" lon="29.1326">
        <ele>67.9</ele>
      </trkpt>
      <trkpt lat="36.46367" lon="29.13293">
        <ele>73.6</ele>
      </trkpt>
      <trkpt lat="36.46366" lon="29.13318">
        <ele>75.6</ele>
      </trkpt>
      <trkpt lat="36.46387" lon="29.13366">
        <ele>80.5</ele>
      </trkpt>
      <trkpt lat="36.46402" lon="29.13389">
        <ele>80.7</ele>
      </trkpt>
      <trkpt lat="36.46402" lon="29.1342">
        <ele>82.8</ele>
      </trkpt>
      <trkpt lat="36.46418" lon="29.13454">
        <ele>85.2</ele>
      </trkpt>
      <trkpt lat="36.46433" lon="29.13507">
        <ele>95.9</ele>
      </trkpt>
      <trkpt lat="36.46436" lon="29.13538">
        <ele>102.1</ele>
      </trkpt>
      <trkpt lat="36.46443" lon="29.13556">
        <ele>105.6</ele>
      </trkpt>
      <trkpt lat="36.4645" lon="29.13588">
        <ele>110.7</ele>
      </trkpt>
      <trkpt lat="36.46449" lon="29.13616">
        <ele>113.6</ele>
      </trkpt>
      <trkpt lat="36.46456" lon="29.1363">
        <ele>114.4</ele>
      </trkpt>
      <trkpt lat="36.46468" lon="29.13633">
        <ele>113.5</ele>
      </trkpt>
      <trkpt lat="36.46449" lon="29.1365">
        <ele>117.2</ele>
      </trkpt>
      <trkpt lat="36.46438" lon="29.13675">
        <ele>122.4</ele>
      </trkpt>
      <trkpt lat="36.46443" lon="29.13699">
        <ele>126.4</ele>
      </trkpt>
      <trkpt lat="36.46435" lon="29.1371">
        <ele>129.7</ele>
      </trkpt>
      <trkpt lat="36.46428" lon="29.13734">
        <ele>134.9</ele>
      </trkpt>
      <trkpt lat="36.46402" lon="29.13747">
        <ele>143.2</ele>
      </trkpt>
      <trkpt lat="36.46403" lon="29.13714">
        <ele>137.7</ele>
      </trkpt>
      <trkpt lat="36.46392" lon="29.13705">
        <ele>140.8</ele>
      </trkpt>
      <trkpt lat="36.46391" lon="29.13723">
        <ele>143.5</ele>
      </trkpt>
      <trkpt lat="36.46381" lon="29.1375">
        <ele>150.3</ele>
      </trkpt>
      <trkpt lat="36.46391" lon="29.13764">
        <ele>150.7</ele>
      </trkpt>
      <trkpt lat="36.46404" lon="29.13786">
        <ele>152.8</ele>
      </trkpt>
      <trkpt lat="36.46398" lon="29.13802">
        <ele>158.8</ele>
      </trkpt>
      <trkpt lat="36.46392" lon="29.13807">
        <ele>161.5</ele>
      </trkpt>
      <trkpt lat="36.46398" lon="29.13825">
        <ele>164.8</ele>
      </trkpt>
      <trkpt lat="36.4641" lon="29.13833">
        <ele>164.3</ele>
      </trkpt>
      <trkpt lat="36.46424" lon="29.1383">
        <ele>162.8</ele>
      </trkpt>
      <trkpt lat="36.46435" lon="29.13818">
        <ele>160.4</ele>
      </trkpt>
      <trkpt lat="36.46449" lon="29.13786">
        <ele>149.7</ele>
      </trkpt>
      <trkpt lat="36.46461" lon="29.13771">
        <ele>143.7</ele>
      </trkpt>
      <trkpt lat="36.46472" lon="29.13789">
        <ele>151</ele>
      </trkpt>
      <trkpt lat="36.46471" lon="29.13801">
        <ele>156.3</ele>
      </trkpt>
      <trkpt lat="36.46473" lon="29.13824">
        <ele>166.2</ele>
      </trkpt>
      <trkpt lat="36.46489" lon="29.13826">
        <ele>169.2</ele>
      </trkpt>
      <trkpt lat="36.4649" lon="29.13835">
        <ele>173.2</ele>
      </trkpt>
      <trkpt lat="36.46485" lon="29.13842">
        <ele>175.3</ele>
      </trkpt>
      <trkpt lat="36.46504" lon="29.13863">
        <ele>185</ele>
      </trkpt>
      <trkpt lat="36.46506" lon="29.13875">
        <ele>189.6</ele>
      </trkpt>
      <trkpt lat="36.46495" lon="29.13882">
        <ele>191.3</ele>
      </trkpt>
      <trkpt lat="36.46486" lon="29.13883">
        <ele>190</ele>
      </trkpt>
      <trkpt lat="36.46491" lon="29.13899">
        <ele>196.8</ele>
      </trkpt>
      <trkpt lat="36.46507" lon="29.13909">
        <ele>202.7</ele>
      </trkpt>
      <trkpt lat="36.46516" lon="29.13923">
        <ele>209.3</ele>
      </trkpt>
      <trkpt lat="36.4652" lon="29.13939">
        <ele>216.6</ele>
      </trkpt>
      <trkpt lat="36.46497" lon="29.13936">
        <ele>211.9</ele>
      </trkpt>
      <trkpt lat="36.46501" lon="29.1395">
        <ele>218.1</ele>
      </trkpt>
      <trkpt lat="36.46494" lon="29.13955">
        <ele>218.3</ele>
      </trkpt>
      <trkpt lat="36.465" lon="29.13973">
        <ele>226.4</ele>
      </trkpt>
      <trkpt lat="36.46507" lon="29.13973">
        <ele>228</ele>
      </trkpt>
      <trkpt lat="36.46527" lon="29.13972">
        <ele>231.9</ele>
      </trkpt>
      <trkpt lat="36.46545" lon="29.13985">
        <ele>241.1</ele>
      </trkpt>
      <trkpt lat="36.46556" lon="29.13991">
        <ele>247.1</ele>
      </trkpt>
      <trkpt lat="36.46574" lon="29.13984">
        <ele>247.5</ele>
      </trkpt>
      <trkpt lat="36.4659" lon="29.13982">
        <ele>246.6</ele>
      </trkpt>
      <trkpt lat="36.46606" lon="29.13976">
        <ele>237.8</ele>
      </trkpt>
      <trkpt lat="36.4662" lon="29.1398">
        <ele>235.3</ele>
      </trkpt>
      <trkpt lat="36.4663" lon="29.13989">
        <ele>236.3</ele>
      </trkpt>
      <trkpt lat="36.46634" lon="29.14009">
        <ele>245.2</ele>
      </trkpt>
      <trkpt lat="36.46647" lon="29.14032">
        <ele>253.7</ele>
      </trkpt>
      <trkpt lat="36.46667" lon="29.14055">
        <ele>257.2</ele>
      </trkpt>
      <trkpt lat="36.46694" lon="29.14106">
        <ele>270</ele>
      </trkpt>
      <trkpt lat="36.46714" lon="29.14136">
        <ele>275.1</ele>
      </trkpt>
      <trkpt lat="36.46736" lon="29.14143">
        <ele>267</ele>
      </trkpt>
      <trkpt lat="36.46765" lon="29.14181">
        <ele>277.6</ele>
      </trkpt>
      <trkpt lat="36.46805" lon="29.14205">
        <ele>282.7</ele>
      </trkpt>
      <trkpt lat="36.46837" lon="29.14209">
        <ele>279.2</ele>
      </trkpt>
      <trkpt lat="36.46875" lon="29.14218">
        <ele>277.1</ele>
      </trkpt>
      <trkpt lat="36.46885" lon="29.1424">
        <ele>282.4</ele>
      </trkpt>
      <trkpt lat="36.46873" lon="29.14249">
        <ele>286.3</ele>
      </trkpt>
      <trkpt lat="36.46872" lon="29.14253">
        <ele>287.4</ele>
      </trkpt>
      <trkpt lat="36.46887" lon="29.14253">
        <ele>285.5</ele>
      </trkpt>
      <trkpt lat="36.46881" lon="29.14277">
        <ele>290</ele>
      </trkpt>
      <trkpt lat="36.46883" lon="29.14307">
        <ele>294.3</ele>
      </trkpt>
      <trkpt lat="36.46877" lon="29.14334">
        <ele>300.6</ele>
      </trkpt>
      <trkpt lat="36.46873" lon="29.14353">
        <ele>306.9</ele>
      </trkpt>
      <trkpt lat="36.46885" lon="29.14381">
        <ele>312.7</ele>
      </trkpt>
      <trkpt lat="36.46894" lon="29.14402">
        <ele>318.8</ele>
      </trkpt>
      <trkpt lat="36.46906" lon="29.14424">
        <ele>327.9</ele>
      </trkpt>
      <trkpt lat="36.46933" lon="29.14422">
      </trkpt>
      <trkpt lat="36.46955" lon="29.14424">
      </trkpt>
      <trkpt lat="36.46969" lon="29.14441">
      </trkpt>
      <trkpt lat="36.46979" lon="29.14457">
      </trkpt>
      <trkpt lat="36.46982" lon="29.14465">
      </trkpt>
      <trkpt lat="36.46958" lon="29.14462">
      </trkpt>
      <trkpt lat="36.46952" lon="29.14476">
      </trkpt>
      <trkpt lat="36.46938" lon="29.14477">
      </trkpt>
      <trkpt lat="36.46932" lon="29.14485">
      </trkpt>
      <trkpt lat="36.46951" lon="29.14497">
      </trkpt>
      <trkpt lat="36.46954" lon="29.14506">
      </trkpt>
      <trkpt lat="36.46919" lon="29.14536">
      </trkpt>
      <trkpt lat="36.46903" lon="29.14586">
      </trkpt>
      <trkpt lat="36.46903" lon="29.14621">
      </trkpt>
      <trkpt lat="36.46892" lon="29.14625">
      </trkpt>
      <trkpt lat="36.46878" lon="29.14624">
      </trkpt>
      <trkpt lat="36.46851" lon="29.14639">
      </trkpt>
      <trkpt lat="36.46855" lon="29.14658">
      </trkpt>
      <trkpt lat="36.46834" lon="29.14659">
      </trkpt>
      <trkpt lat="36.46808" lon="29.14649">
        <ele>463.5</ele>
      </trkpt>
      <trkpt lat="36.46786" lon="29.14617">
        <ele>453.5</ele>
      </trkpt>
      <trkpt lat="36.46792" lon="29.14603">
        <ele>449.1</ele>
      </trkpt>
      <trkpt lat="36.46782" lon="29.14601">
        <ele>448.6</ele>
      </trkpt>
      <trkpt lat="36.46783" lon="29.14587">
        <ele>444.1</ele>
      </trkpt>
      <trkpt lat="36.4677" lon="29.1457">
        <ele>437.3</ele>
      </trkpt>
      <trkpt lat="36.46752" lon="29.1456">
        <ele>436</ele>
      </trkpt>
      <trkpt lat="36.46731" lon="29.14531">
        <ele>439.9</ele>
      </trkpt>
      <trkpt lat="36.46723" lon="29.14513">
        <ele>440.6</ele>
      </trkpt>
      <trkpt lat="36.46723" lon="29.14486">
        <ele>433.8</ele>
      </trkpt>
      <trkpt lat="36.46716" lon="29.14466">
        <ele>433.7</ele>
      </trkpt>
      <trkpt lat="36.46716" lon="29.14438">
        <ele>425.8</ele>
      </trkpt>
      <trkpt lat="36.46723" lon="29.14421">
        <ele>416.2</ele>
      </trkpt>
      <trkpt lat="36.46723" lon="29.14375">
        <ele>395.3</ele>
      </trkpt>
      <trkpt lat="36.46708" lon="29.14365">
        <ele>401.2</ele>
      </trkpt>
      <trkpt lat="36.46695" lon="29.14364">
        <ele>411</ele>
      </trkpt>
      <trkpt lat="36.46683" lon="29.14355">
        <ele>415.6</ele>
      </trkpt>
      <trkpt lat="36.46677" lon="29.14369">
        <ele>426.6</ele>
      </trkpt>
      <trkpt lat="36.4666" lon="29.14383">
        <ele>442.1</ele>
      </trkpt>
      <trkpt lat="36.46631" lon="29.1438">
        <ele>445.3</ele>
      </trkpt>
      <trkpt lat="36.46612" lon="29.14356">
        <ele>441.7</ele>
      </trkpt>
      <trkpt lat="36.46591" lon="29.14351">
        <ele>446</ele>
      </trkpt>
      <trkpt lat="36.46573" lon="29.14378">
        <ele>449.9</ele>
      </trkpt>
      <trkpt lat="36.46561" lon="29.14412">
        <ele>453.4</ele>
      </trkpt>
      <trkpt lat="36.4654" lon="29.14434">
        <ele>460</ele>
      </trkpt>
      <trkpt lat="36.46517" lon="29.14455">
        <ele>469.9</ele>
      </trkpt>
      <trkpt lat="36.46498" lon="29.14487">
        <ele>441.4</ele>
      </trkpt>
      <trkpt lat="36.4646" lon="29.14501">
      </trkpt>
      <trkpt lat="36.46432" lon="29.14493">
        <ele>458.16</ele>
      </trkpt>
      <trkpt lat="36.46404" lon="29.1448">
        <ele>497</ele>
      </trkpt>
      <trkpt lat="36.46382" lon="29.14461">
        <ele>491.2</ele>
      </trkpt>
      <trkpt lat="36.46368" lon="29.14419">
        <ele>478.3</ele>
      </trkpt>
      <trkpt lat="36.46344" lon="29.14389">
        <ele>471.8</ele>
      </trkpt>
      <trkpt lat="36.46335" lon="29.14382">
        <ele>470.6</ele>
      </trkpt>
      <trkpt lat="36.46325" lon="29.14388">
        <ele>472.6</ele>
      </trkpt>
      <trkpt lat="36.46327" lon="29.14412">
        <ele>484.9</ele>
      </trkpt>
      <trkpt lat="36.46319" lon="29.14436">
        <ele>491</ele>
      </trkpt>
      <trkpt lat="36.46301" lon="29.14462">
        <ele>498.1</ele>
      </trkpt>
      <trkpt lat="36.4629" lon="29.14476">
        <ele>503.9</ele>
      </trkpt>
      <trkpt lat="36.46276" lon="29.14482">
        <ele>507.6</ele>
      </trkpt>
      <trkpt lat="36.4622" lon="29.14482">
        <ele>515.7</ele>
      </trkpt>
      <trkpt lat="36.4616" lon="29.14483">
        <ele>526.6</ele>
      </trkpt>
      <trkpt lat="36.46109" lon="29.14456">
        <ele>518.4</ele>
      </trkpt>
      <trkpt lat="36.46063" lon="29.14433">
        <ele>521.8</ele>
      </trkpt>
      <trkpt lat="36.46027" lon="29.14427">
        <ele>531.1</ele>
      </trkpt>
      <trkpt lat="36.45986" lon="29.14404">
        <ele>540.1</ele>
      </trkpt>
      <trkpt lat="36.45941" lon="29.14407">
        <ele>557.8</ele>
      </trkpt>
      <trkpt lat="36.459" lon="29.1439">
        <ele>562.4</ele>
      </trkpt>
      <trkpt lat="36.45877" lon="29.1439">
        <ele>562.1</ele>
      </trkpt>
      <trkpt lat="36.45841" lon="29.14421">
        <ele>573.1</ele>
      </trkpt>
      <trkpt lat="36.45814" lon="29.14445">
        <ele>588</ele>
      </trkpt>
      <trkpt lat="36.45799" lon="29.14467">
        <ele>601</ele>
      </trkpt>
      <trkpt lat="36.45769" lon="29.14482">
        <ele>611.4</ele>
      </trkpt>
      <trkpt lat="36.45732" lon="29.14493">
        <ele>623.6</ele>
      </trkpt>
      <trkpt lat="36.45691" lon="29.14502">
        <ele>639.1</ele>
      </trkpt>
      <trkpt lat="36.45686" lon="29.14476">
        <ele>631.2</ele>
      </trkpt>
      <trkpt lat="36.45685" lon="29.14444">
        <ele>620.4</ele>
      </trkpt>
      <trkpt lat="36.45636" lon="29.14398">
        <ele>630</ele>
      </trkpt>
      <trkpt lat="36.45597" lon="29.14384">
        <ele>645.8</ele>
      </trkpt>
      <trkpt lat="36.45551" lon="29.1431">
        <ele>655.7</ele>
      </trkpt>
      <trkpt lat="36.45499" lon="29.1424">
        <ele>673</ele>
      </trkpt>
      <trkpt lat="36.4547" lon="29.14209">
        <ele>683.7</ele>
      </trkpt>
      <trkpt lat="36.45424" lon="29.14195">
        <ele>691.3</ele>
      </trkpt>
      <trkpt lat="36.45366" lon="29.142">
        <ele>693.2</ele>
      </trkpt>
      <trkpt lat="36.45326" lon="29.14225">
        <ele>699.7</ele>
      </trkpt>
      <trkpt lat="36.45284" lon="29.14258">
        <ele>704.4</ele>
      </trkpt>
      <trkpt lat="36.45246" lon="29.14275">
        <ele>707.6</ele>
      </trkpt>
      <trkpt lat="36.45208" lon="29.14255">
        <ele>718</ele>
      </trkpt>
      <trkpt lat="36.45189" lon="29.14234">
        <ele>721.2</ele>
      </trkpt>
      <trkpt lat="36.4516" lon="29.14225">
        <ele>728.5</ele>
      </trkpt>
      <trkpt lat="36.45071" lon="29.14216">
        <ele>740.6</ele>
      </trkpt>
      <trkpt lat="36.45003" lon="29.14224">
        <ele>753.8</ele>
      </trkpt>
      <trkpt lat="36.44964" lon="29.14215">
        <ele>753.6</ele>
      </trkpt>
      <trkpt lat="36.4495" lon="29.14212">
        <ele>753.4</ele>
      </trkpt>
      <trkpt lat="36.44922" lon="29.1421">
        <ele>754.2</ele>
      </trkpt>
      <trkpt lat="36.44913" lon="29.14212">
        <ele>754.1</ele>
      </trkpt>
      <trkpt lat="36.44907" lon="29.14213">
        <ele>752.6</ele>
      </trkpt>
      <trkpt lat="36.4489" lon="29.14211">
        <ele>748.1</ele>
      </trkpt>
      <trkpt lat="36.44864" lon="29.14218">
        <ele>743.2</ele>
      </trkpt>
      <trkpt lat="36.44848" lon="29.14222">
        <ele>740.1</ele>
      </trkpt>
      <trkpt lat="36.44833" lon="29.1423">
        <ele>737.4</ele>
      </trkpt>
      <trkpt lat="36.44822" lon="29.14237">
        <ele>734.1</ele>
      </trkpt>
      <trkpt lat="36.44819" lon="29.14251">
        <ele>734.9</ele>
      </trkpt>
      <trkpt lat="36.44816" lon="29.14259">
        <ele>733.6</ele>
      </trkpt>
      <trkpt lat="36.44812" lon="29.14267">
        <ele>732</ele>
      </trkpt>
      <trkpt lat="36.44811" lon="29.14275">
        <ele>731.7</ele>
      </trkpt>
      <trkpt lat="36.44812" lon="29.14294">
        <ele>732.2</ele>
      </trkpt>
      <trkpt lat="36.44814" lon="29.1431">
        <ele>732.8</ele>
      </trkpt>
      <trkpt lat="36.44813" lon="29.14315">
        <ele>732.4</ele>
      </trkpt>
      <trkpt lat="36.44803" lon="29.14299">
        <ele>728.4</ele>
      </trkpt>
      <trkpt lat="36.44799" lon="29.14287">
        <ele>726.7</ele>
      </trkpt>
      <trkpt lat="36.44795" lon="29.14279">
        <ele>725.1</ele>
      </trkpt>
      <trkpt lat="36.44783" lon="29.14269">
        <ele>720</ele>
      </trkpt>
      <trkpt lat="36.44777" lon="29.14258">
        <ele>716.8</ele>
      </trkpt>
      <trkpt lat="36.44776" lon="29.14246">
        <ele>715.7</ele>
      </trkpt>
      <trkpt lat="36.44779" lon="29.1423">
        <ele>714.9</ele>
      </trkpt>
      <trkpt lat="36.44785" lon="29.142">
        <ele>712.9</ele>
      </trkpt>
      <trkpt lat="36.44787" lon="29.14179">
        <ele>710.9</ele>
      </trkpt>
      <trkpt lat="36.44789" lon="29.14152">
        <ele>709.3</ele>
      </trkpt>
      <trkpt lat="36.44789" lon="29.14132">
        <ele>708</ele>
      </trkpt>
      <trkpt lat="36.44787" lon="29.14117">
        <ele>706.5</ele>
      </trkpt>
      <trkpt lat="36.44784" lon="29.14096">
        <ele>704.1</ele>
      </trkpt>
      <trkpt lat="36.44781" lon="29.14087">
        <ele>702.3</ele>
      </trkpt>
      <trkpt lat="36.44778" lon="29.14085">
        <ele>700.7</ele>
      </trkpt>
      <trkpt lat="36.44773" lon="29.14085">
        <ele>698.8</ele>
      </trkpt>
      <trkpt lat="36.44769" lon="29.14091">
        <ele>697.2</ele>
      </trkpt>
      <trkpt lat="36.44767" lon="29.14102">
        <ele>696.9</ele>
      </trkpt>
      <trkpt lat="36.44764" lon="29.14115">
        <ele>696.4</ele>
      </trkpt>
      <trkpt lat="36.44756" lon="29.14133">
        <ele>694.8</ele>
      </trkpt>
      <trkpt lat="36.44747" lon="29.14152">
        <ele>692.6</ele>
      </trkpt>
      <trkpt lat="36.44731" lon="29.14184">
        <ele>689.5</ele>
      </trkpt>
      <trkpt lat="36.44718" lon="29.14204">
        <ele>687.3</ele>
      </trkpt>
      <trkpt lat="36.44708" lon="29.14223">
        <ele>686.2</ele>
      </trkpt>
      <trkpt lat="36.44683" lon="29.14254">
        <ele>681.8</ele>
      </trkpt>
      <trkpt lat="36.44649" lon="29.14294">
        <ele>672.8</ele>
      </trkpt>
      <trkpt lat="36.44638" lon="29.14306">
        <ele>669</ele>
      </trkpt>
      <trkpt lat="36.44635" lon="29.14311">
        <ele>668.3</ele>
      </trkpt>
      <trkpt lat="36.44634" lon="29.14317">
        <ele>667.8</ele>
      </trkpt>
      <trkpt lat="36.44634" lon="29.1433">
        <ele>667.7</ele>
      </trkpt>
      <trkpt lat="36.44633" lon="29.14349">
        <ele>668.5</ele>
      </trkpt>
      <trkpt lat="36.44631" lon="29.14362">
        <ele>668.3</ele>
      </trkpt>
      <trkpt lat="36.44629" lon="29.14363">
        <ele>667.4</ele>
      </trkpt>
      <trkpt lat="36.44627" lon="29.14357">
        <ele>666.1</ele>
      </trkpt>
      <trkpt lat="36.44623" lon="29.14342">
        <ele>663.8</ele>
      </trkpt>
      <trkpt lat="36.44621" lon="29.14334">
        <ele>662.5</ele>
      </trkpt>
      <trkpt lat="36.44616" lon="29.14314">
        <ele>660.8</ele>
      </trkpt>
      <trkpt lat="36.44612" lon="29.14303">
        <ele>659.5</ele>
      </trkpt>
      <trkpt lat="36.44608" lon="29.14296">
        <ele>658.2</ele>
      </trkpt>
      <trkpt lat="36.44603" lon="29.14292">
        <ele>656.9</ele>
      </trkpt>
      <trkpt lat="36.44597" lon="29.14289">
        <ele>655</ele>
      </trkpt>
      <trkpt lat="36.44592" lon="29.14289">
        <ele>653.3</ele>
      </trkpt>
      <trkpt lat="36.44586" lon="29.14288">
        <ele>651.3</ele>
      </trkpt>
      <trkpt lat="36.44578" lon="29.14282">
        <ele>648.5</ele>
      </trkpt>
      <trkpt lat="36.44571" lon="29.14277">
        <ele>646</ele>
      </trkpt>
      <trkpt lat="36.44556" lon="29.14264">
        <ele>641.3</ele>
      </trkpt>
      <trkpt lat="36.4455" lon="29.14256">
        <ele>639.9</ele>
      </trkpt>
      <trkpt lat="36.44546" lon="29.14247">
        <ele>639.1</ele>
      </trkpt>
      <trkpt lat="36.44542" lon="29.1423">
        <ele>636.3</ele>
      </trkpt>
      <trkpt lat="36.44537" lon="29.14201">
        <ele>633.1</ele>
      </trkpt>
      <trkpt lat="36.44537" lon="29.14192">
        <ele>632.5</ele>
      </trkpt>
      <trkpt lat="36.4454" lon="29.14186">
        <ele>632.9</ele>
      </trkpt>
      <trkpt lat="36.44544" lon="29.1418">
        <ele>633.5</ele>
      </trkpt>
      <trkpt lat="36.44549" lon="29.14176">
        <ele>634.2</ele>
      </trkpt>
      <trkpt lat="36.44558" lon="29.14174">
        <ele>635.8</ele>
      </trkpt>
      <trkpt lat="36.4456" lon="29.1417">
        <ele>635.9</ele>
      </trkpt>
      <trkpt lat="36.44565" lon="29.14167">
        <ele>636.5</ele>
      </trkpt>
      <trkpt lat="36.44568" lon="29.14163">
        <ele>635.6</ele>
      </trkpt>
      <trkpt lat="36.44565" lon="29.14153">
        <ele>632.1</ele>
      </trkpt>
      <trkpt lat="36.44553" lon="29.14156">
        <ele>630.6</ele>
      </trkpt>
      <trkpt lat="36.44546" lon="29.14162">
        <ele>631.2</ele>
      </trkpt>
      <trkpt lat="36.44542" lon="29.14161">
        <ele>630.3</ele>
      </trkpt>
      <trkpt lat="36.4454" lon="29.14158">
        <ele>628.8</ele>
      </trkpt>
      <trkpt lat="36.44546" lon="29.14149">
        <ele>627.3</ele>
      </trkpt>
      <trkpt lat="36.44555" lon="29.14145">
        <ele>627.8</ele>
      </trkpt>
      <trkpt lat="36.44566" lon="29.14127">
        <ele>624</ele>
      </trkpt>
      <trkpt lat="36.4457" lon="29.14118">
        <ele>621.9</ele>
      </trkpt>
      <trkpt lat="36.44571" lon="29.1411">
        <ele>619.6</ele>
      </trkpt>
      <trkpt lat="36.4457" lon="29.14097">
        <ele>615</ele>
      </trkpt>
      <trkpt lat="36.44562" lon="29.141">
        <ele>614.8</ele>
      </trkpt>
      <trkpt lat="36.44558" lon="29.14098">
        <ele>613.4</ele>
      </trkpt>
      <trkpt lat="36.44562" lon="29.14089">
        <ele>611</ele>
      </trkpt>
      <trkpt lat="36.44568" lon="29.14079">
        <ele>610.39</ele>
      </trkpt>
      <trkpt lat="36.4457" lon="29.14074">
        <ele>610.83</ele>
      </trkpt>
      <trkpt lat="36.44567" lon="29.14066">
        <ele>610.32</ele>
      </trkpt>
      <trkpt lat="36.44561" lon="29.14067">
        <ele>609.26</ele>
      </trkpt>
      <trkpt lat="36.44553" lon="29.14068">
        <ele>607.92</ele>
      </trkpt>
      <trkpt lat="36.44539" lon="29.14067">
        <ele>605.48</ele>
      </trkpt>
      <trkpt lat="36.44526" lon="29.14065">
        <ele>603.44</ele>
      </trkpt>
      <trkpt lat="36.44525" lon="29.14054">
        <ele>603.13</ele>
      </trkpt>
      <trkpt lat="36.4453" lon="29.14042">
        <ele>604.06</ele>
      </trkpt>
      <trkpt lat="36.44518" lon="29.1403">
        <ele>602.06</ele>
      </trkpt>
      <trkpt lat="36.44502" lon="29.14019">
        <ele>599.29</ele>
      </trkpt>
      <trkpt lat="36.44475" lon="29.14014">
        <ele>595.12</ele>
      </trkpt>
      <trkpt lat="36.44456" lon="29.14022">
        <ele>592.09</ele>
      </trkpt>
      <trkpt lat="36.44448" lon="29.14031">
        <ele>590.92</ele>
      </trkpt>
      <trkpt lat="36.44418" lon="29.14029">
        <ele>586.24</ele>
      </trkpt>
      <trkpt lat="36.4441" lon="29.14029">
        <ele>586</ele>
      </trkpt>
      <trkpt lat="36.44399" lon="29.1404">
        <ele>586</ele>
      </trkpt>
      <trkpt lat="36.4437" lon="29.1406">
        <ele>586</ele>
      </trkpt>
      <trkpt lat="36.44362" lon="29.14072">
        <ele>586</ele>
      </trkpt>
      <trkpt lat="36.44358" lon="29.14075">
        <ele>586</ele>
      </trkpt>
      <trkpt lat="36.44357" lon="29.1408">
        <ele>586</ele>
      </trkpt>
      <trkpt lat="36.44347" lon="29.14086">
        <ele>584.9</ele>
      </trkpt>
      <trkpt lat="36.44342" lon="29.14093">
        <ele>581.1</ele>
      </trkpt>
      <trkpt lat="36.44344" lon="29.14108">
        <ele>574.1</ele>
      </trkpt>
      <trkpt lat="36.4434" lon="29.14121">
        <ele>567.4</ele>
      </trkpt>
      <trkpt lat="36.44339" lon="29.14135">
        <ele>560.2</ele>
      </trkpt>
      <trkpt lat="36.44337" lon="29.1416">
        <ele>547</ele>
      </trkpt>
      <trkpt lat="36.4432" lon="29.1419">
        <ele>532.5</ele>
      </trkpt>
      <trkpt lat="36.44316" lon="29.14211">
        <ele>523</ele>
      </trkpt>
      <trkpt lat="36.44311" lon="29.14223">
        <ele>516.1</ele>
      </trkpt>
      <trkpt lat="36.44308" lon="29.14244">
        <ele>504.5</ele>
      </trkpt>
      <trkpt lat="36.44303" lon="29.14253">
        <ele>498.3</ele>
      </trkpt>
      <trkpt lat="36.44303" lon="29.14264">
        <ele>497.4</ele>
      </trkpt>
      <trkpt lat="36.44309" lon="29.14282">
        <ele>497.8</ele>
      </trkpt>
      <trkpt lat="36.44313" lon="29.14314">
        <ele>494.6</ele>
      </trkpt>
      <trkpt lat="36.44316" lon="29.1434">
        <ele>494.8</ele>
      </trkpt>
      <trkpt lat="36.44315" lon="29.14358">
        <ele>501.6</ele>
      </trkpt>
      <trkpt lat="36.44316" lon="29.14365">
        <ele>504.7</ele>
      </trkpt>
      <trkpt lat="36.44317" lon="29.14372">
        <ele>507.6</ele>
      </trkpt>
      <trkpt lat="36.44323" lon="29.14385">
        <ele>513.9</ele>
      </trkpt>
      <trkpt lat="36.44325" lon="29.14389">
        <ele>515.9</ele>
      </trkpt>
      <trkpt lat="36.44323" lon="29.14394">
        <ele>517.7</ele>
      </trkpt>
      <trkpt lat="36.44315" lon="29.14401">
        <ele>518.7</ele>
      </trkpt>
      <trkpt lat="36.44308" lon="29.14404">
        <ele>518.7</ele>
      </trkpt>
      <trkpt lat="36.44296" lon="29.14413">
        <ele>520.8</ele>
      </trkpt>
      <trkpt lat="36.44284" lon="29.14415">
        <ele>519.5</ele>
      </trkpt>
      <trkpt lat="36.44261" lon="29.14409">
        <ele>513.2</ele>
      </trkpt>
      <trkpt lat="36.44255" lon="29.14398">
        <ele>506.6</ele>
      </trkpt>
      <trkpt lat="36.44244" lon="29.1439">
        <ele>501.3</ele>
      </trkpt>
      <trkpt lat="36.44228" lon="29.14382">
        <ele>496.1</ele>
      </trkpt>
      <trkpt lat="36.44219" lon="29.14383">
        <ele>495.6</ele>
      </trkpt>
      <trkpt lat="36.44204" lon="29.1439">
        <ele>498.5</ele>
      </trkpt>
      <trkpt lat="36.44192" lon="29.14405">
        <ele>507.3</ele>
      </trkpt>
      <trkpt lat="36.44174" lon="29.14422">
        <ele>516.7</ele>
      </trkpt>
      <trkpt lat="36.44162" lon="29.14418">
        <ele>513.7</ele>
      </trkpt>
      <trkpt lat="36.44148" lon="29.14426">
        <ele>515.2</ele>
      </trkpt>
      <trkpt lat="36.44127" lon="29.14422">
        <ele>509.7</ele>
      </trkpt>
      <trkpt lat="36.44104" lon="29.14414">
        <ele>501.7</ele>
      </trkpt>
      <trkpt lat="36.44103" lon="29.14408">
        <ele>498.6</ele>
      </trkpt>
      <trkpt lat="36.44102" lon="29.14401">
        <ele>494.5</ele>
      </trkpt>
      <trkpt lat="36.44098" lon="29.14395">
        <ele>490.4</ele>
      </trkpt>
      <trkpt lat="36.44087" lon="29.14392">
        <ele>487.3</ele>
      </trkpt>
      <trkpt lat="36.44065" lon="29.1442">
        <ele>494.5</ele>
      </trkpt>
      <trkpt lat="36.44028" lon="29.14437">
        <ele>488.6</ele>
      </trkpt>
      <trkpt lat="36.44004" lon="29.14463">
        <ele>490.4</ele>
      </trkpt>
      <trkpt lat="36.43967" lon="29.14473">
        <ele>490.2</ele>
      </trkpt>
      <trkpt lat="36.43937" lon="29.14495">
        <ele>496.8</ele>
      </trkpt>
      <trkpt lat="36.43919" lon="29.14503">
        <ele>498.7</ele>
      </trkpt>
      <trkpt lat="36.43905" lon="29.14487">
        <ele>500</ele>
      </trkpt>
      <trkpt lat="36.43896" lon="29.14455">
        <ele>492.9</ele>
      </trkpt>
      <trkpt lat="36.43868" lon="29.14421">
        <ele>499</ele>
      </trkpt>
      <trkpt lat="36.43851" lon="29.14408">
        <ele>508.3</ele>
      </trkpt>
      <trkpt lat="36.43841" lon="29.14366">
        <ele>505.3</ele>
      </trkpt>
      <trkpt lat="36.43833" lon="29.1435">
        <ele>503</ele>
      </trkpt>
      <trkpt lat="36.43837" lon="29.14325">
        <ele>497.7</ele>
      </trkpt>
      <trkpt lat="36.4382" lon="29.14301">
        <ele>500.9</ele>
      </trkpt>
      <trkpt lat="36.43812" lon="29.14276">
        <ele>501.2</ele>
      </trkpt>
      <trkpt lat="36.43813" lon="29.1425">
        <ele>498.4</ele>
      </trkpt>
      <trkpt lat="36.43788" lon="29.14209">
        <ele>499.8</ele>
      </trkpt>
      <trkpt lat="36.43782" lon="29.14188">
        <ele>498.7</ele>
      </trkpt>
      <trkpt lat="36.43771" lon="29.1417">
        <ele>497.4</ele>
      </trkpt>
      <trkpt lat="36.43763" lon="29.1417">
        <ele>497.4</ele>
      </trkpt>
      <trkpt lat="36.43732" lon="29.14164">
        <ele>497.9</ele>
      </trkpt>
      <trkpt lat="36.43722" lon="29.14164">
        <ele>498.3</ele>
      </trkpt>
      <trkpt lat="36.43711" lon="29.14153">
        <ele>497.5</ele>
      </trkpt>
      <trkpt lat="36.43701" lon="29.14165">
        <ele>499.7</ele>
      </trkpt>
      <trkpt lat="36.4369" lon="29.14159">
        <ele>499.2</ele>
      </trkpt>
      <trkpt lat="36.43681" lon="29.14152">
        <ele>498.1</ele>
      </trkpt>
      <trkpt lat="36.43675" lon="29.14144">
        <ele>496.5</ele>
      </trkpt>
      <trkpt lat="36.4366" lon="29.1413">
        <ele>492.3</ele>
      </trkpt>
      <trkpt lat="36.43647" lon="29.14126">
        <ele>490.1</ele>
      </trkpt>
      <trkpt lat="36.43653" lon="29.14104">
        <ele>485.1</ele>
      </trkpt>
      <trkpt lat="36.43663" lon="29.14088">
        <ele>482.8</ele>
      </trkpt>
      <trkpt lat="36.43684" lon="29.14075">
        <ele>481.3</ele>
      </trkpt>
      <trkpt lat="36.43695" lon="29.14063">
        <ele>478</ele>
      </trkpt>
      <trkpt lat="36.43695" lon="29.14056">
        <ele>475.3</ele>
      </trkpt>
      <trkpt lat="36.43672" lon="29.14051">
        <ele>473.5</ele>
      </trkpt>
      <trkpt lat="36.43645" lon="29.14034">
        <ele>465.6</ele>
      </trkpt>
      <trkpt lat="36.43642" lon="29.14023">
        <ele>462</ele>
      </trkpt>
      <trkpt lat="36.43646" lon="29.14004">
        <ele>457.6</ele>
      </trkpt>
      <trkpt lat="36.43639" lon="29.14">
        <ele>455.4</ele>
      </trkpt>
      <trkpt lat="36.43634" lon="29.1401">
        <ele>457.3</ele>
      </trkpt>
      <trkpt lat="36.43588" lon="29.14025">
        <ele>453.9</ele>
      </trkpt>
      <trkpt lat="36.43553" lon="29.14041">
        <ele>452.1</ele>
      </trkpt>
      <trkpt lat="36.4353" lon="29.14047">
        <ele>449.3</ele>
      </trkpt>
      <trkpt lat="36.43499" lon="29.14064">
        <ele>446.8</ele>
      </trkpt>
      <trkpt lat="36.43469" lon="29.14084">
        <ele>433.8</ele>
      </trkpt>
      <trkpt lat="36.43455" lon="29.14117">
        <ele>433.6</ele>
      </trkpt>
      <trkpt lat="36.4345" lon="29.14145">
        <ele>437.3</ele>
      </trkpt>
      <trkpt lat="36.43449" lon="29.14174">
        <ele>442.6</ele>
      </trkpt>
      <trkpt lat="36.43455" lon="29.14204">
        <ele>449.4</ele>
      </trkpt>
      <trkpt lat="36.43448" lon="29.14219">
        <ele>448</ele>
      </trkpt>
      <trkpt lat="36.43428" lon="29.14242">
        <ele>442</ele>
      </trkpt>
      <trkpt lat="36.43399" lon="29.14321">
        <ele>446.8</ele>
      </trkpt>
      <trkpt lat="36.43348" lon="29.14383">
        <ele>445.2</ele>
      </trkpt>
      <trkpt lat="36.43313" lon="29.14438">
        <ele>449</ele>
      </trkpt>
      <trkpt lat="36.43304" lon="29.14468">
        <ele>452.5</ele>
      </trkpt>
      <trkpt lat="36.4329" lon="29.14472">
        <ele>451.6</ele>
      </trkpt>
      <trkpt lat="36.43273" lon="29.14474">
        <ele>450.2</ele>
      </trkpt>
      <trkpt lat="36.43225" lon="29.14468">
        <ele>446.3</ele>
      </trkpt>
      <trkpt lat="36.43184" lon="29.14467">
        <ele>445.1</ele>
      </trkpt>
      <trkpt lat="36.43146" lon="29.14489">
        <ele>444.4</ele>
      </trkpt>
      <trkpt lat="36.43097" lon="29.14523">
        <ele>442.6</ele>
      </trkpt>
      <trkpt lat="36.43079" lon="29.14529">
        <ele>441.8</ele>
      </trkpt>
      <trkpt lat="36.43066" lon="29.14534">
        <ele>441.3</ele>
      </trkpt>
      <trkpt lat="36.43004" lon="29.1457">
        <ele>440.1</ele>
      </trkpt>
      <trkpt lat="36.42941" lon="29.14615">
        <ele>436.6</ele>
      </trkpt>
      <trkpt lat="36.42941" lon="29.14544">
        <ele>434.5</ele>
      </trkpt>
      <trkpt lat="36.42922" lon="29.14505">
        <ele>433.9</ele>
      </trkpt>
      <trkpt lat="36.42879" lon="29.14484">
        <ele>441.9</ele>
      </trkpt>
      <trkpt lat="36.42833" lon="29.1449">
        <ele>445.6</ele>
      </trkpt>
      <trkpt lat="36.4279" lon="29.1449">
        <ele>446</ele>
      </trkpt>
      <trkpt lat="36.42729" lon="29.14463">
        <ele>458</ele>
      </trkpt>
      <trkpt lat="36.42646" lon="29.14405">
        <ele>476.7</ele>
      </trkpt>
      <trkpt lat="36.42578" lon="29.14356">
        <ele>479.1</ele>
      </trkpt>
      <trkpt lat="36.42543" lon="29.14342">
        <ele>480.1</ele>
      </trkpt>
      <trkpt lat="36.42506" lon="29.14346">
        <ele>483.9</ele>
      </trkpt>
      <trkpt lat="36.42473" lon="29.14325">
        <ele>480.5</ele>
      </trkpt>
      <trkpt lat="36.42447" lon="29.14335">
        <ele>489.9</ele>
      </trkpt>
      <trkpt lat="36.42406" lon="29.14339">
        <ele>495.6</ele>
      </trkpt>
      <trkpt lat="36.42369" lon="29.14337">
        <ele>495.5</ele>
      </trkpt>
      <trkpt lat="36.42314" lon="29.14362">
        <ele>502.2</ele>
      </trkpt>
      <trkpt lat="36.42247" lon="29.14384">
        <ele>506.2</ele>
      </trkpt>
      <trkpt lat="36.42198" lon="29.14449">
        <ele>516.9</ele>
      </trkpt>
      <trkpt lat="36.42156" lon="29.14519">
        <ele>515.4</ele>
      </trkpt>
      <trkpt lat="36.42117" lon="29.14546">
        <ele>520.7</ele>
      </trkpt>
      <trkpt lat="36.42078" lon="29.14558">
        <ele>527.2</ele>
      </trkpt>
      <trkpt lat="36.42067" lon="29.14583">
        <ele>526.3</ele>
      </trkpt>
      <trkpt lat="36.4207" lon="29.14615">
        <ele>530.9</ele>
      </trkpt>
      <trkpt lat="36.4205" lon="29.14614">
        <ele>534.8</ele>
      </trkpt>
      <trkpt lat="36.42023" lon="29.14621">
        <ele>541.7</ele>
      </trkpt>
      <trkpt lat="36.41986" lon="29.14611">
        <ele>546.9</ele>
      </trkpt>
      <trkpt lat="36.41939" lon="29.14599">
        <ele>557.4</ele>
      </trkpt>
      <trkpt lat="36.419" lon="29.14588">
        <ele>564.3</ele>
      </trkpt>
      <trkpt lat="36.41844" lon="29.14576">
        <ele>574.9</ele>
      </trkpt>
      <trkpt lat="36.41764" lon="29.14562">
        <ele>579.2</ele>
      </trkpt>
      <trkpt lat="36.41737" lon="29.14575">
        <ele>581.4</ele>
      </trkpt>
      <trkpt lat="36.41714" lon="29.14566">
        <ele>583.8</ele>
      </trkpt>
      <trkpt lat="36.41697" lon="29.14586">
        <ele>586.8</ele>
      </trkpt>
      <trkpt lat="36.41661" lon="29.14609">
        <ele>594.3</ele>
      </trkpt>
      <trkpt lat="36.41627" lon="29.14607">
        <ele>602.4</ele>
      </trkpt>
      <trkpt lat="36.41596" lon="29.14678">
        <ele>612.2</ele>
      </trkpt>
      <trkpt lat="36.41563" lon="29.14686">
        <ele>619.8</ele>
      </trkpt>
      <trkpt lat="36.41541" lon="29.14674">
        <ele>625.7</ele>
      </trkpt>
      <trkpt lat="36.41431" lon="29.14689">
        <ele>647.9</ele>
      </trkpt>
      <trkpt lat="36.41375" lon="29.14654">
        <ele>655</ele>
      </trkpt>
      <trkpt lat="36.41335" lon="29.14664">
        <ele>655.9</ele>
      </trkpt>
      <trkpt lat="36.41294" lon="29.14655">
        <ele>655.4</ele>
      </trkpt>
      <trkpt lat="36.41273" lon="29.14657">
        <ele>655.3</ele>
      </trkpt>
      <trkpt lat="36.41244" lon="29.14651">
        <ele>654.6</ele>
      </trkpt>
      <trkpt lat="36.41202" lon="29.14668">
        <ele>657.2</ele>
      </trkpt>
      <trkpt lat="36.41177" lon="29.14638">
        <ele>654</ele>
      </trkpt>
      <trkpt lat="36.4115" lon="29.14617">
        <ele>653.8</ele>
      </trkpt>
      <trkpt lat="36.41144" lon="29.14605">
        <ele>652.6</ele>
      </trkpt>
      <trkpt lat="36.41122" lon="29.14572">
        <ele>649.6</ele>
      </trkpt>
      <trkpt lat="36.41103" lon="29.14551">
        <ele>647.4</ele>
      </trkpt>
      <trkpt lat="36.41081" lon="29.14529">
        <ele>644.6</ele>
      </trkpt>
      <trkpt lat="36.41072" lon="29.1452">
        <ele>641.7</ele>
      </trkpt>
      <trkpt lat="36.41064" lon="29.14515">
        <ele>639.4</ele>
      </trkpt>
      <trkpt lat="36.41062" lon="29.14497">
        <ele>635.3</ele>
      </trkpt>
      <trkpt lat="36.41035" lon="29.14481">
        <ele>629.8</ele>
      </trkpt>
      <trkpt lat="36.41013" lon="29.14494">
        <ele>627.6</ele>
      </trkpt>
      <trkpt lat="36.41001" lon="29.14522">
        <ele>633.1</ele>
      </trkpt>
      <trkpt lat="36.40991" lon="29.14533">
        <ele>637.1</ele>
      </trkpt>
      <trkpt lat="36.4099" lon="29.14534">
        <ele>637.5</ele>
      </trkpt>
      <trkpt lat="36.40981" lon="29.14541">
        <ele>640.1</ele>
      </trkpt>
      <trkpt lat="36.40972" lon="29.14536">
        <ele>639.8</ele>
      </trkpt>
      <trkpt lat="36.40967" lon="29.14528">
        <ele>638.4</ele>
      </trkpt>
      <trkpt lat="36.40961" lon="29.14501">
        <ele>632.7</ele>
      </trkpt>
      <trkpt lat="36.40954" lon="29.1448">
        <ele>631.4</ele>
      </trkpt>
      <trkpt lat="36.40944" lon="29.14459">
        <ele>630.1</ele>
      </trkpt>
      <trkpt lat="36.40935" lon="29.14441">
        <ele>628.7</ele>
      </trkpt>
      <trkpt lat="36.40931" lon="29.14426">
        <ele>627.1</ele>
      </trkpt>
      <trkpt lat="36.40915" lon="29.14389">
        <ele>621.8</ele>
      </trkpt>
      <trkpt lat="36.40897" lon="29.14361">
        <ele>620.2</ele>
      </trkpt>
      <trkpt lat="36.40873" lon="29.1433">
        <ele>618.7</ele>
      </trkpt>
      <trkpt lat="36.40822" lon="29.14292">
        <ele>620.9</ele>
      </trkpt>
      <trkpt lat="36.40798" lon="29.14263">
        <ele>616.6</ele>
      </trkpt>
      <trkpt lat="36.40757" lon="29.14235">
        <ele>615</ele>
      </trkpt>
      <trkpt lat="36.40724" lon="29.1422">
        <ele>617</ele>
      </trkpt>
      <trkpt lat="36.40719" lon="29.14218">
        <ele>617.2</ele>
      </trkpt>
      <trkpt lat="36.40698" lon="29.14206">
        <ele>617.5</ele>
      </trkpt>
      <trkpt lat="36.40661" lon="29.14167">
        <ele>613.6</ele>
      </trkpt>
      <trkpt lat="36.40603" lon="29.14142">
        <ele>618.4</ele>
      </trkpt>
      <trkpt lat="36.40432" lon="29.14087">
        <ele>623.7</ele>
      </trkpt>
      <trkpt lat="36.40409" lon="29.14068">
        <ele>625.1</ele>
      </trkpt>
      <trkpt lat="36.40391" lon="29.14041">
        <ele>627</ele>
      </trkpt>
      <trkpt lat="36.40354" lon="29.13984">
        <ele>628.7</ele>
      </trkpt>
      <trkpt lat="36.40315" lon="29.13939">
        <ele>630</ele>
      </trkpt>
      <trkpt lat="36.40291" lon="29.13914">
        <ele>630.5</ele>
      </trkpt>
      <trkpt lat="36.40282" lon="29.13905">
        <ele>630.7</ele>
      </trkpt>
      <trkpt lat="36.4026" lon="29.13892">
        <ele>631.1</ele>
      </trkpt>
      <trkpt lat="36.40243" lon="29.13878">
        <ele>631.3</ele>
      </trkpt>
      <trkpt lat="36.40231" lon="29.13864">
        <ele>631.6</ele>
      </trkpt>
      <trkpt lat="36.40211" lon="29.13812">
        <ele>631.3</ele>
      </trkpt>
      <trkpt lat="36.40184" lon="29.13754">
        <ele>630.7</ele>
      </trkpt>
      <trkpt lat="36.40161" lon="29.13692">
        <ele>630.9</ele>
      </trkpt>
      <trkpt lat="36.40156" lon="29.13681">
        <ele>630.8</ele>
      </trkpt>
      <trkpt lat="36.40152" lon="29.13677">
        <ele>630.7</ele>
      </trkpt>
      <trkpt lat="36.40146" lon="29.13677">
        <ele>630.6</ele>
      </trkpt>
      <trkpt lat="36.40118" lon="29.13681">
        <ele>630.2</ele>
      </trkpt>
      <trkpt lat="36.40098" lon="29.13689">
        <ele>630.2</ele>
      </trkpt>
      <trkpt lat="36.40087" lon="29.13693">
        <ele>630.3</ele>
      </trkpt>
      <trkpt lat="36.40051" lon="29.13655">
        <ele>623.7</ele>
      </trkpt>
      <trkpt lat="36.4005" lon="29.13644">
        <ele>622.5</ele>
      </trkpt>
      <trkpt lat="36.40043" lon="29.13633">
        <ele>620.6</ele>
      </trkpt>
      <trkpt lat="36.40023" lon="29.13612">
        <ele>616.6</ele>
      </trkpt>
      <trkpt lat="36.40017" lon="29.13603">
        <ele>615.1</ele>
      </trkpt>
      <trkpt lat="36.40004" lon="29.13601">
        <ele>613.7</ele>
      </trkpt>
      <trkpt lat="36.39996" lon="29.13602">
        <ele>612.7</ele>
      </trkpt>
      <trkpt lat="36.3999" lon="29.13608">
        <ele>612.3</ele>
      </trkpt>
      <trkpt lat="36.39984" lon="29.13608">
        <ele>611.3</ele>
      </trkpt>
      <trkpt lat="36.39982" lon="29.13606">
        <ele>610.8</ele>
      </trkpt>
      <trkpt lat="36.39971" lon="29.13606">
        <ele>609.3</ele>
      </trkpt>
      <trkpt lat="36.39964" lon="29.13604">
        <ele>608.1</ele>
      </trkpt>
      <trkpt lat="36.39954" lon="29.13596">
        <ele>606.1</ele>
      </trkpt>
      <trkpt lat="36.39939" lon="29.1359">
        <ele>603.6</ele>
      </trkpt>
      <trkpt lat="36.3993" lon="29.13587">
        <ele>602.1</ele>
      </trkpt>
      <trkpt lat="36.39925" lon="29.13601">
        <ele>602</ele>
      </trkpt>
      <trkpt lat="36.39921" lon="29.13614">
        <ele>602.2</ele>
      </trkpt>
      <trkpt lat="36.39925" lon="29.13632">
        <ele>603.6</ele>
      </trkpt>
      <trkpt lat="36.39925" lon="29.13643">
        <ele>604.2</ele>
      </trkpt>
      <trkpt lat="36.39922" lon="29.13649">
        <ele>603.9</ele>
      </trkpt>
      <trkpt lat="36.39916" lon="29.13652">
        <ele>603.1</ele>
      </trkpt>
      <trkpt lat="36.39899" lon="29.13651">
        <ele>600.7</ele>
      </trkpt>
      <trkpt lat="36.39881" lon="29.13651">
        <ele>598</ele>
      </trkpt>
      <trkpt lat="36.3985" lon="29.13656">
        <ele>593.8</ele>
      </trkpt>
      <trkpt lat="36.39834" lon="29.13659">
        <ele>591.6</ele>
      </trkpt>
      <trkpt lat="36.39808" lon="29.13675">
        <ele>586.6</ele>
      </trkpt>
      <trkpt lat="36.39792" lon="29.13693">
        <ele>583.8</ele>
      </trkpt>
      <trkpt lat="36.39781" lon="29.13712">
        <ele>582.1</ele>
      </trkpt>
      <trkpt lat="36.39767" lon="29.13743">
        <ele>579.6</ele>
      </trkpt>
      <trkpt lat="36.39753" lon="29.13781">
        <ele>576.4</ele>
      </trkpt>
      <trkpt lat="36.39739" lon="29.13809">
        <ele>573.3</ele>
      </trkpt>
      <trkpt lat="36.39716" lon="29.13845">
        <ele>568.9</ele>
      </trkpt>
      <trkpt lat="36.39705" lon="29.13862">
        <ele>567.5</ele>
      </trkpt>
      <trkpt lat="36.39693" lon="29.1389">
        <ele>566.7</ele>
      </trkpt>
      <trkpt lat="36.39687" lon="29.13895">
        <ele>566</ele>
      </trkpt>
      <trkpt lat="36.3966" lon="29.13899">
        <ele>561.2</ele>
      </trkpt>
      <trkpt lat="36.3964" lon="29.13909">
        <ele>560</ele>
      </trkpt>
      <trkpt lat="36.39614" lon="29.13932">
        <ele>559.1</ele>
      </trkpt>
      <trkpt lat="36.39601" lon="29.13946">
        <ele>559.1</ele>
      </trkpt>
      <trkpt lat="36.3959" lon="29.13951">
        <ele>558.2</ele>
      </trkpt>
      <trkpt lat="36.39572" lon="29.13956">
        <ele>557.1</ele>
      </trkpt>
      <trkpt lat="36.39544" lon="29.13968">
        <ele>556.3</ele>
      </trkpt>
      <trkpt lat="36.39523" lon="29.13978">
        <ele>555.6</ele>
      </trkpt>
      <trkpt lat="36.39507" lon="29.13979">
        <ele>554.5</ele>
      </trkpt>
      <trkpt lat="36.39481" lon="29.13969">
        <ele>552.1</ele>
      </trkpt>
      <trkpt lat="36.3946" lon="29.13958">
        <ele>549.6</ele>
      </trkpt>
      <trkpt lat="36.39442" lon="29.13949">
        <ele>547.1</ele>
      </trkpt>
      <trkpt lat="36.39419" lon="29.13949">
        <ele>544.9</ele>
      </trkpt>
      <trkpt lat="36.39401" lon="29.13957">
        <ele>543.8</ele>
      </trkpt>
      <trkpt lat="36.3938" lon="29.13965">
        <ele>542.2</ele>
      </trkpt>
      <trkpt lat="36.39367" lon="29.13972">
        <ele>541.3</ele>
      </trkpt>
      <trkpt lat="36.39339" lon="29.13976">
        <ele>538.1</ele>
      </trkpt>
      <trkpt lat="36.39319" lon="29.13975">
        <ele>537.8</ele>
      </trkpt>
      <trkpt lat="36.39305" lon="29.13977">
        <ele>538.5</ele>
      </trkpt>
      <trkpt lat="36.39295" lon="29.13982">
        <ele>539.7</ele>
      </trkpt>
      <trkpt lat="36.39285" lon="29.13974">
        <ele>538.7</ele>
      </trkpt>
      <trkpt lat="36.39276" lon="29.1396">
        <ele>536.1</ele>
      </trkpt>
      <trkpt lat="36.39265" lon="29.13947">
        <ele>533.5</ele>
      </trkpt>
      <trkpt lat="36.39226" lon="29.13938">
        <ele>534.8</ele>
      </trkpt>
      <trkpt lat="36.39197" lon="29.13932">
        <ele>537.3</ele>
      </trkpt>
      <trkpt lat="36.39158" lon="29.13925">
        <ele>539.6</ele>
      </trkpt>
      <trkpt lat="36.39141" lon="29.1392">
        <ele>538.6</ele>
      </trkpt>
      <trkpt lat="36.39119" lon="29.13899">
        <ele>532.9</ele>
      </trkpt>
      <trkpt lat="36.39111" lon="29.13892">
        <ele>531.1</ele>
      </trkpt>
      <trkpt lat="36.39103" lon="29.13894">
        <ele>531.9</ele>
      </trkpt>
      <trkpt lat="36.39058" lon="29.13965">
        <ele>547.1</ele>
      </trkpt>
      <trkpt lat="36.39049" lon="29.13978">
        <ele>548.8</ele>
      </trkpt>
      <trkpt lat="36.3899" lon="29.14043">
        <ele>554.5</ele>
      </trkpt>
      <trkpt lat="36.38978" lon="29.14062">
        <ele>556.7</ele>
      </trkpt>
      <trkpt lat="36.38979" lon="29.14071">
        <ele>557.2</ele>
      </trkpt>
      <trkpt lat="36.38989" lon="29.14069">
        <ele>556.8</ele>
      </trkpt>
      <trkpt lat="36.39001" lon="29.14071">
        <ele>556.7</ele>
      </trkpt>
      <trkpt lat="36.39006" lon="29.1408">
        <ele>558.3</ele>
      </trkpt>
      <trkpt lat="36.38997" lon="29.14094">
        <ele>560.4</ele>
      </trkpt>
      <trkpt lat="36.38981" lon="29.14103">
        <ele>562</ele>
      </trkpt>
      <trkpt lat="36.38959" lon="29.14109">
        <ele>562.7</ele>
      </trkpt>
      <trkpt lat="36.3893" lon="29.14105">
        <ele>561.6</ele>
      </trkpt>
      <trkpt lat="36.38905" lon="29.14112">
        <ele>562.3</ele>
      </trkpt>
      <trkpt lat="36.38877" lon="29.14125">
        <ele>563.5</ele>
      </trkpt>
      <trkpt lat="36.38855" lon="29.14132">
        <ele>563.6</ele>
      </trkpt>
      <trkpt lat="36.38836" lon="29.14147">
        <ele>564</ele>
      </trkpt>
      <trkpt lat="36.38818" lon="29.14125">
        <ele>561.3</ele>
      </trkpt>
      <trkpt lat="36.38789" lon="29.14115">
        <ele>558.7</ele>
      </trkpt>
      <trkpt lat="36.38763" lon="29.14123">
        <ele>557.3</ele>
      </trkpt>
      <trkpt lat="36.38737" lon="29.14138">
        <ele>556.2</ele>
      </trkpt>
      <trkpt lat="36.3871" lon="29.14146">
        <ele>554.6</ele>
      </trkpt>
      <trkpt lat="36.38694" lon="29.14147">
        <ele>553.5</ele>
      </trkpt>
      <trkpt lat="36.38675" lon="29.14142">
        <ele>551.6</ele>
      </trkpt>
      <trkpt lat="36.38662" lon="29.14159">
        <ele>549.9</ele>
      </trkpt>
      <trkpt lat="36.38646" lon="29.14184">
        <ele>542.7</ele>
      </trkpt>
      <trkpt lat="36.38633" lon="29.14201">
        <ele>536.6</ele>
      </trkpt>
      <trkpt lat="36.38634" lon="29.14227">
        <ele>536.2</ele>
      </trkpt>
      <trkpt lat="36.38631" lon="29.1424">
        <ele>534.6</ele>
      </trkpt>
      <trkpt lat="36.38631" lon="29.14249">
        <ele>534.5</ele>
      </trkpt>
      <trkpt lat="36.38633" lon="29.14257">
        <ele>533.7</ele>
      </trkpt>
      <trkpt lat="36.3863" lon="29.14266">
        <ele>530.8</ele>
      </trkpt>
      <trkpt lat="36.38631" lon="29.14269">
        <ele>530.5</ele>
      </trkpt>
      <trkpt lat="36.3863" lon="29.14276">
        <ele>528.5</ele>
      </trkpt>
      <trkpt lat="36.38631" lon="29.14281">
        <ele>528.1</ele>
      </trkpt>
      <trkpt lat="36.38633" lon="29.14287">
        <ele>527.5</ele>
      </trkpt>
      <trkpt lat="36.38633" lon="29.14293">
        <ele>526.3</ele>
      </trkpt>
      <trkpt lat="36.38635" lon="29.14303">
        <ele>525.2</ele>
      </trkpt>
      <trkpt lat="36.38633" lon="29.14309">
        <ele>523</ele>
      </trkpt>
      <trkpt lat="36.38633" lon="29.14315">
        <ele>521.7</ele>
      </trkpt>
      <trkpt lat="36.38634" lon="29.14318">
        <ele>521.8</ele>
      </trkpt>
      <trkpt lat="36.38635" lon="29.14325">
        <ele>520.7</ele>
      </trkpt>
      <trkpt lat="36.3864" lon="29.14334">
        <ele>521.2</ele>
      </trkpt>
      <trkpt lat="36.38642" lon="29.14347">
        <ele>517.7</ele>
      </trkpt>
      <trkpt lat="36.38642" lon="29.14358">
        <ele>514.6</ele>
      </trkpt>
      <trkpt lat="36.3864" lon="29.14364">
        <ele>511.6</ele>
      </trkpt>
      <trkpt lat="36.38639" lon="29.14375">
        <ele>507.9</ele>
      </trkpt>
      <trkpt lat="36.38638" lon="29.14393">
        <ele>501.9</ele>
      </trkpt>
      <trkpt lat="36.38639" lon="29.14407">
        <ele>498.3</ele>
      </trkpt>
      <trkpt lat="36.38641" lon="29.14437">
        <ele>490.7</ele>
      </trkpt>
      <trkpt lat="36.38643" lon="29.14448">
        <ele>488.9</ele>
      </trkpt>
      <trkpt lat="36.38646" lon="29.14457">
        <ele>488.3</ele>
      </trkpt>
      <trkpt lat="36.38646" lon="29.14466">
        <ele>485.8</ele>
      </trkpt>
      <trkpt lat="36.38649" lon="29.14481">
        <ele>483.3</ele>
      </trkpt>
      <trkpt lat="36.38652" lon="29.14497">
        <ele>480.9</ele>
      </trkpt>
      <trkpt lat="36.38647" lon="29.14517">
        <ele>473.1</ele>
      </trkpt>
      <trkpt lat="36.38651" lon="29.14525">
        <ele>473</ele>
      </trkpt>
      <trkpt lat="36.38652" lon="29.14534">
        <ele>471.2</ele>
      </trkpt>
      <trkpt lat="36.38662" lon="29.14558">
        <ele>469.7</ele>
      </trkpt>
      <trkpt lat="36.38673" lon="29.14583">
        <ele>468.9</ele>
      </trkpt>
      <trkpt lat="36.38669" lon="29.14616">
        <ele>461.5</ele>
      </trkpt>
      <trkpt lat="36.38675" lon="29.14635">
        <ele>462.3</ele>
      </trkpt>
      <trkpt lat="36.38685" lon="29.14661">
        <ele>463.7</ele>
      </trkpt>
      <trkpt lat="36.3869" lon="29.14675">
        <ele>466.9</ele>
      </trkpt>
      <trkpt lat="36.38689" lon="29.14682">
        <ele>467.1</ele>
      </trkpt>
      <trkpt lat="36.38668" lon="29.14707">
        <ele>460.4</ele>
      </trkpt>
      <trkpt lat="36.38647" lon="29.14732">
        <ele>454.3</ele>
      </trkpt>
      <trkpt lat="36.38636" lon="29.14754">
        <ele>451.6</ele>
      </trkpt>
      <trkpt lat="36.38633" lon="29.14782">
        <ele>454.7</ele>
      </trkpt>
      <trkpt lat="36.38613" lon="29.14793">
        <ele>446</ele>
      </trkpt>
      <trkpt lat="36.38601" lon="29.14811">
        <ele>442.6</ele>
      </trkpt>
      <trkpt lat="36.38592" lon="29.14852">
        <ele>440.9</ele>
      </trkpt>
      <trkpt lat="36.3859" lon="29.14884">
        <ele>439.8</ele>
      </trkpt>
      <trkpt lat="36.38594" lon="29.14907">
        <ele>442.2</ele>
      </trkpt>
      <trkpt lat="36.38615" lon="29.14924">
        <ele>448.8</ele>
      </trkpt>
      <trkpt lat="36.38673" lon="29.14956">
        <ele>463.9</ele>
      </trkpt>
      <trkpt lat="36.38697" lon="29.14977">
        <ele>470.2</ele>
      </trkpt>
      <trkpt lat="36.38699" lon="29.15004">
        <ele>463.4</ele>
      </trkpt>
      <trkpt lat="36.38716" lon="29.15017">
        <ele>471.2</ele>
      </trkpt>
      <trkpt lat="36.38724" lon="29.1504">
        <ele>471.9</ele>
      </trkpt>
      <trkpt lat="36.38717" lon="29.15067">
        <ele>461.2</ele>
      </trkpt>
      <trkpt lat="36.38713" lon="29.15102">
        <ele>453.1</ele>
      </trkpt>
      <trkpt lat="36.38718" lon="29.15129">
        <ele>454.2</ele>
      </trkpt>
      <trkpt lat="36.3873" lon="29.15154">
        <ele>459.8</ele>
      </trkpt>
      <trkpt lat="36.38744" lon="29.15175">
        <ele>467</ele>
      </trkpt>
      <trkpt lat="36.38753" lon="29.15233">
        <ele>463.9</ele>
      </trkpt>
      <trkpt lat="36.38752" lon="29.15259">
        <ele>459</ele>
      </trkpt>
      <trkpt lat="36.38769" lon="29.15294">
        <ele>462</ele>
      </trkpt>
      <trkpt lat="36.3877" lon="29.15342">
        <ele>451.8</ele>
      </trkpt>
      <trkpt lat="36.38784" lon="29.15366">
        <ele>451.2</ele>
      </trkpt>
      <trkpt lat="36.38814" lon="29.15396">
        <ele>456.7</ele>
      </trkpt>
      <trkpt lat="36.38845" lon="29.15439">
        <ele>458.8</ele>
      </trkpt>
      <trkpt lat="36.3885" lon="29.15469">
        <ele>453.1</ele>
      </trkpt>
      <trkpt lat="36.38861" lon="29.155">
        <ele>450</ele>
      </trkpt>
      <trkpt lat="36.38887" lon="29.15522">
        <ele>459.6</ele>
      </trkpt>
      <trkpt lat="36.38922" lon="29.15545">
        <ele>470.1</ele>
      </trkpt>
      <trkpt lat="36.3893" lon="29.1556">
        <ele>471.1</ele>
      </trkpt>
      <trkpt lat="36.38937" lon="29.15589">
        <ele>469.7</ele>
      </trkpt>
      <trkpt lat="36.38932" lon="29.15609">
        <ele>469.7</ele>
      </trkpt>
      <trkpt lat="36.38914" lon="29.15619">
        <ele>464.5</ele>
      </trkpt>
      <trkpt lat="36.38891" lon="29.15625">
        <ele>462.9</ele>
      </trkpt>
      <trkpt lat="36.3888" lon="29.15626">
        <ele>461.8</ele>
      </trkpt>
      <trkpt lat="36.3887" lon="29.15629">
        <ele>461.6</ele>
      </trkpt>
      <trkpt lat="36.3886" lon="29.15635">
        <ele>462.9</ele>
      </trkpt>
      <trkpt lat="36.3885" lon="29.15638">
        <ele>463.4</ele>
      </trkpt>
      <trkpt lat="36.38831" lon="29.1564">
        <ele>462.5</ele>
      </trkpt>
      <trkpt lat="36.38817" lon="29.15647">
        <ele>463</ele>
      </trkpt>
      <trkpt lat="36.38812" lon="29.15652">
        <ele>464.5</ele>
      </trkpt>
      <trkpt lat="36.38806" lon="29.15661">
        <ele>467.7</ele>
      </trkpt>
      <trkpt lat="36.388" lon="29.15679">
        <ele>476.7</ele>
      </trkpt>
      <trkpt lat="36.38789" lon="29.1573">
        <ele>505.2</ele>
      </trkpt>
      <trkpt lat="36.38778" lon="29.15749">
        <ele>514.2</ele>
      </trkpt>
      <trkpt lat="36.38767" lon="29.15759">
        <ele>518.2</ele>
      </trkpt>
      <trkpt lat="36.38762" lon="29.15762">
        <ele>518.8</ele>
      </trkpt>
      <trkpt lat="36.38755" lon="29.15763">
        <ele>518.3</ele>
      </trkpt>
      <trkpt lat="36.38744" lon="29.15758">
        <ele>515.3</ele>
      </trkpt>
      <trkpt lat="36.38727" lon="29.15745">
        <ele>509</ele>
      </trkpt>
      <trkpt lat="36.3871" lon="29.15735">
        <ele>504.6</ele>
      </trkpt>
      <trkpt lat="36.38659" lon="29.15727">
        <ele>503.3</ele>
      </trkpt>
      <trkpt lat="36.38635" lon="29.15733">
        <ele>506.4</ele>
      </trkpt>
      <trkpt lat="36.38607" lon="29.15727">
        <ele>503.3</ele>
      </trkpt>
      <trkpt lat="36.38584" lon="29.15732">
        <ele>505.7</ele>
      </trkpt>
      <trkpt lat="36.38565" lon="29.15731">
        <ele>507.5</ele>
      </trkpt>
      <trkpt lat="36.38539" lon="29.15735">
        <ele>512.2</ele>
      </trkpt>
      <trkpt lat="36.38505" lon="29.15745">
        <ele>521</ele>
      </trkpt>
      <trkpt lat="36.38479" lon="29.15749">
        <ele>527.5</ele>
      </trkpt>
      <trkpt lat="36.38472" lon="29.15748">
        <ele>528.4</ele>
      </trkpt>
      <trkpt lat="36.38464" lon="29.15745">
        <ele>528.4</ele>
      </trkpt>
      <trkpt lat="36.38445" lon="29.15731">
        <ele>525.6</ele>
      </trkpt>
      <trkpt lat="36.38418" lon="29.15717">
        <ele>524.8</ele>
      </trkpt>
      <trkpt lat="36.38388" lon="29.15704">
        <ele>517</ele>
      </trkpt>
      <trkpt lat="36.38374" lon="29.15704">
        <ele>515.7</ele>
      </trkpt>
      <trkpt lat="36.38345" lon="29.15725">
        <ele>520.9</ele>
      </trkpt>
      <trkpt lat="36.38313" lon="29.15756">
        <ele>525.5</ele>
      </trkpt>
      <trkpt lat="36.3829" lon="29.15789">
        <ele>530.1</ele>
      </trkpt>
      <trkpt lat="36.38278" lon="29.15817">
        <ele>535.5</ele>
      </trkpt>
      <trkpt lat="36.38246" lon="29.15852">
        <ele>536.7</ele>
      </trkpt>
      <trkpt lat="36.38226" lon="29.15869">
        <ele>539.5</ele>
      </trkpt>
      <trkpt lat="36.38211" lon="29.15882">
        <ele>541.5</ele>
      </trkpt>
      <trkpt lat="36.38203" lon="29.159">
        <ele>546.8</ele>
      </trkpt>
      <trkpt lat="36.38193" lon="29.15944">
        <ele>551</ele>
      </trkpt>
      <trkpt lat="36.38181" lon="29.1596">
        <ele>547.9</ele>
      </trkpt>
      <trkpt lat="36.38201" lon="29.15997">
        <ele>552.3</ele>
      </trkpt>
      <trkpt lat="36.38237" lon="29.16037">
        <ele>562</ele>
      </trkpt>
      <trkpt lat="36.38242" lon="29.16052">
        <ele>563.1</ele>
      </trkpt>
      <trkpt lat="36.38221" lon="29.16058">
        <ele>556.3</ele>
      </trkpt>
      <trkpt lat="36.3819" lon="29.16114">
        <ele>553.7</ele>
      </trkpt>
      <trkpt lat="36.38176" lon="29.16158">
        <ele>559.3</ele>
      </trkpt>
      <trkpt lat="36.38166" lon="29.16204">
        <ele>563.2</ele>
      </trkpt>
      <trkpt lat="36.38156" lon="29.16232">
        <ele>563.8</ele>
      </trkpt>
      <trkpt lat="36.3815" lon="29.16247">
        <ele>563.6</ele>
      </trkpt>
      <trkpt lat="36.3814" lon="29.16292">
        <ele>566.9</ele>
      </trkpt>
      <trkpt lat="36.38144" lon="29.16308">
        <ele>571.6</ele>
      </trkpt>
      <trkpt lat="36.38137" lon="29.16351">
        <ele>573.6</ele>
      </trkpt>
      <trkpt lat="36.38139" lon="29.16403">
        <ele>577.6</ele>
      </trkpt>
      <trkpt lat="36.38151" lon="29.16442">
        <ele>585.1</ele>
      </trkpt>
      <trkpt lat="36.38158" lon="29.16529">
        <ele>591.1</ele>
      </trkpt>
      <trkpt lat="36.38165" lon="29.16572">
        <ele>593.5</ele>
      </trkpt>
      <trkpt lat="36.38192" lon="29.16612">
        <ele>603.8</ele>
      </trkpt>
      <trkpt lat="36.38206" lon="29.16636">
        <ele>606.6</ele>
      </trkpt>
      <trkpt lat="36.38207" lon="29.16646">
        <ele>605.7</ele>
      </trkpt>
      <trkpt lat="36.38245" lon="29.16674">
        <ele>613.4</ele>
      </trkpt>
      <trkpt lat="36.38261" lon="29.16692">
        <ele>617.8</ele>
      </trkpt>
      <trkpt lat="36.38282" lon="29.16707">
        <ele>624.2</ele>
      </trkpt>
      <trkpt lat="36.38307" lon="29.16717">
        <ele>632.6</ele>
      </trkpt>
      <trkpt lat="36.38307" lon="29.16731">
        <ele>631.3</ele>
      </trkpt>
      <trkpt lat="36.38297" lon="29.16736">
        <ele>627.1</ele>
      </trkpt>
      <trkpt lat="36.38292" lon="29.16755">
        <ele>624.9</ele>
      </trkpt>
      <trkpt lat="36.38292" lon="29.16775">
        <ele>628.8</ele>
      </trkpt>
      <trkpt lat="36.38288" lon="29.16794">
        <ele>630.6</ele>
      </trkpt>
      <trkpt lat="36.38289" lon="29.16829">
        <ele>637.4</ele>
      </trkpt>
      <trkpt lat="36.38286" lon="29.16852">
        <ele>639.9</ele>
      </trkpt>
      <trkpt lat="36.38289" lon="29.16864">
        <ele>643.2</ele>
      </trkpt>
      <trkpt lat="36.38287" lon="29.1688">
        <ele>644.5</ele>
      </trkpt>
      <trkpt lat="36.38289" lon="29.16892">
        <ele>647.1</ele>
      </trkpt>
      <trkpt lat="36.38285" lon="29.16897">
        <ele>646.2</ele>
      </trkpt>
      <trkpt lat="36.38286" lon="29.1692">
        <ele>649.8</ele>
      </trkpt>
      <trkpt lat="36.38293" lon="29.16936">
        <ele>654.5</ele>
      </trkpt>
      <trkpt lat="36.3829" lon="29.1696">
        <ele>655.8</ele>
      </trkpt>
      <trkpt lat="36.38286" lon="29.16968">
        <ele>654.9</ele>
      </trkpt>
      <trkpt lat="36.38285" lon="29.16997">
        <ele>657.3</ele>
      </trkpt>
      <trkpt lat="36.38284" lon="29.17017">
        <ele>659.5</ele>
      </trkpt>
      <trkpt lat="36.38284" lon="29.17035">
        <ele>661.4</ele>
      </trkpt>
      <trkpt lat="36.38281" lon="29.17051">
        <ele>662</ele>
      </trkpt>
      <trkpt lat="36.38281" lon="29.17077">
        <ele>665.1</ele>
      </trkpt>
      <trkpt lat="36.38285" lon="29.17087">
        <ele>666.9</ele>
      </trkpt>
      <trkpt lat="36.38281" lon="29.17105">
        <ele>665.8</ele>
      </trkpt>
      <trkpt lat="36.38273" lon="29.17106">
        <ele>663.8</ele>
      </trkpt>
      <trkpt lat="36.38242" lon="29.17118">
        <ele>658.6</ele>
      </trkpt>
      <trkpt lat="36.38222" lon="29.17121">
        <ele>659</ele>
      </trkpt>
      <trkpt lat="36.38203" lon="29.17118">
        <ele>659.4</ele>
      </trkpt>
      <trkpt lat="36.38186" lon="29.17121">
        <ele>659.7</ele>
      </trkpt>
      <trkpt lat="36.38172" lon="29.17126">
        <ele>659.9</ele>
      </trkpt>
      <trkpt lat="36.38146" lon="29.1714">
        <ele>663.3</ele>
      </trkpt>
      <trkpt lat="36.38134" lon="29.17145">
        <ele>665.4</ele>
      </trkpt>
      <trkpt lat="36.38118" lon="29.17145">
        <ele>668.2</ele>
      </trkpt>
      <trkpt lat="36.38106" lon="29.17144">
        <ele>670.3</ele>
      </trkpt>
      <trkpt lat="36.38092" lon="29.17147">
        <ele>672.7</ele>
      </trkpt>
      <trkpt lat="36.38066" lon="29.17171">
        <ele>676.7</ele>
      </trkpt>
      <trkpt lat="36.38046" lon="29.17195">
        <ele>678.6</ele>
      </trkpt>
      <trkpt lat="36.3802" lon="29.17229">
        <ele>681</ele>
      </trkpt>
      <trkpt lat="36.3799" lon="29.17255">
        <ele>685.1</ele>
      </trkpt>
      <trkpt lat="36.37973" lon="29.1726">
        <ele>687.2</ele>
      </trkpt>
      <trkpt lat="36.3794" lon="29.17248">
        <ele>696.9</ele>
      </trkpt>
      <trkpt lat="36.37918" lon="29.17249">
        <ele>700.9</ele>
      </trkpt>
      <trkpt lat="36.37892" lon="29.17253">
        <ele>705.4</ele>
      </trkpt>
      <trkpt lat="36.37877" lon="29.17259">
        <ele>707.2</ele>
      </trkpt>
      <trkpt lat="36.37866" lon="29.17275">
        <ele>705.9</ele>
      </trkpt>
      <trkpt lat="36.37853" lon="29.17301">
        <ele>702.5</ele>
      </trkpt>
      <trkpt lat="36.37837" lon="29.17323">
        <ele>700.7</ele>
      </trkpt>
      <trkpt lat="36.37825" lon="29.17335">
        <ele>699</ele>
      </trkpt>
      <trkpt lat="36.37809" lon="29.1734">
        <ele>697.9</ele>
      </trkpt>
      <trkpt lat="36.37759" lon="29.17341">
        <ele>699.6</ele>
      </trkpt>
      <trkpt lat="36.37738" lon="29.1734">
        <ele>699.9</ele>
      </trkpt>
      <trkpt lat="36.37717" lon="29.17345">
        <ele>698.4</ele>
      </trkpt>
      <trkpt lat="36.37695" lon="29.17347">
        <ele>697.5</ele>
      </trkpt>
      <trkpt lat="36.37661" lon="29.17347">
        <ele>696.3</ele>
      </trkpt>
      <trkpt lat="36.37631" lon="29.17348">
        <ele>692.1</ele>
      </trkpt>
      <trkpt lat="36.37515" lon="29.17328">
        <ele>683.4</ele>
      </trkpt>
      <trkpt lat="36.37458" lon="29.17288">
        <ele>683.8</ele>
      </trkpt>
      <trkpt lat="36.37418" lon="29.1729">
        <ele>679.5</ele>
      </trkpt>
      <trkpt lat="36.37336" lon="29.1736">
        <ele>671.3</ele>
      </trkpt>
      <trkpt lat="36.37334" lon="29.17378">
        <ele>670.9</ele>
      </trkpt>
      <trkpt lat="36.37349" lon="29.17409">
        <ele>668.8</ele>
      </trkpt>
      <trkpt lat="36.37348" lon="29.17445">
        <ele>672.3</ele>
      </trkpt>
      <trkpt lat="36.37355" lon="29.17463">
        <ele>673.5</ele>
      </trkpt>
      <trkpt lat="36.37391" lon="29.17487">
        <ele>669</ele>
      </trkpt>
      <trkpt lat="36.37414" lon="29.17511">
        <ele>664.7</ele>
      </trkpt>
      <trkpt lat="36.37442" lon="29.17528">
        <ele>654.9</ele>
      </trkpt>
      <trkpt lat="36.37449" lon="29.17542">
        <ele>651.8</ele>
      </trkpt>
      <trkpt lat="36.37453" lon="29.17581">
        <ele>648.3</ele>
      </trkpt>
      <trkpt lat="36.37454" lon="29.17615">
        <ele>639.5</ele>
      </trkpt>
      <trkpt lat="36.37449" lon="29.17627">
        <ele>637.7</ele>
      </trkpt>
      <trkpt lat="36.37408" lon="29.17653">
        <ele>640.3</ele>
      </trkpt>
      <trkpt lat="36.37319" lon="29.17682">
        <ele>638.7</ele>
      </trkpt>
      <trkpt lat="36.37254" lon="29.17706">
        <ele>631.8</ele>
      </trkpt>
      <trkpt lat="36.37201" lon="29.17731">
        <ele>622.7</ele>
      </trkpt>
      <trkpt lat="36.37144" lon="29.17749">
        <ele>621.1</ele>
      </trkpt>
      <trkpt lat="36.37091" lon="29.17764">
        <ele>625.4</ele>
      </trkpt>
      <trkpt lat="36.37074" lon="29.17771">
        <ele>627</ele>
      </trkpt>
      <trkpt lat="36.37046" lon="29.178">
        <ele>622.8</ele>
      </trkpt>
      <trkpt lat="36.3702" lon="29.17815">
        <ele>623.9</ele>
      </trkpt>
      <trkpt lat="36.3698" lon="29.17828">
        <ele>628.7</ele>
      </trkpt>
      <trkpt lat="36.36946" lon="29.17833">
        <ele>634.8</ele>
      </trkpt>
      <trkpt lat="36.36933" lon="29.17832">
        <ele>638.5</ele>
      </trkpt>
      <trkpt lat="36.36921" lon="29.17835">
        <ele>640.2</ele>
      </trkpt>
      <trkpt lat="36.36903" lon="29.17847">
        <ele>641.8</ele>
      </trkpt>
      <trkpt lat="36.36889" lon="29.17864">
        <ele>640.6</ele>
      </trkpt>
      <trkpt lat="36.36862" lon="29.17918">
        <ele>629.6</ele>
      </trkpt>
      <trkpt lat="36.36839" lon="29.17938">
        <ele>631.5</ele>
      </trkpt>
      <trkpt lat="36.36802" lon="29.17957">
        <ele>628.5</ele>
      </trkpt>
      <trkpt lat="36.36767" lon="29.17956">
        <ele>632</ele>
      </trkpt>
      <trkpt lat="36.36727" lon="29.17944">
        <ele>641.3</ele>
      </trkpt>
      <trkpt lat="36.36708" lon="29.17937">
        <ele>646.2</ele>
      </trkpt>
      <trkpt lat="36.3669" lon="29.17937">
        <ele>647.8</ele>
      </trkpt>
      <trkpt lat="36.36679" lon="29.17944">
        <ele>645.5</ele>
      </trkpt>
      <trkpt lat="36.36668" lon="29.17962">
        <ele>638.1</ele>
      </trkpt>
      <trkpt lat="36.36632" lon="29.18008">
        <ele>631.6</ele>
      </trkpt>
      <trkpt lat="36.36607" lon="29.18043">
        <ele>627</ele>
      </trkpt>
      <trkpt lat="36.36574" lon="29.18068">
        <ele>627.6</ele>
      </trkpt>
      <trkpt lat="36.36551" lon="29.1808">
        <ele>629.4</ele>
      </trkpt>
      <trkpt lat="36.36506" lon="29.18105">
        <ele>631</ele>
      </trkpt>
      <trkpt lat="36.36487" lon="29.18112">
        <ele>628.4</ele>
      </trkpt>
      <trkpt lat="36.36459" lon="29.18109">
        <ele>628.8</ele>
      </trkpt>
      <trkpt lat="36.36429" lon="29.181">
        <ele>631.4</ele>
      </trkpt>
      <trkpt lat="36.36413" lon="29.18095">
        <ele>633.1</ele>
      </trkpt>
      <trkpt lat="36.36387" lon="29.18073">
        <ele>640.6</ele>
      </trkpt>
      <trkpt lat="36.36374" lon="29.1807">
        <ele>640.1</ele>
      </trkpt>
      <trkpt lat="36.36329" lon="29.18066">
        <ele>635.8</ele>
      </trkpt>
      <trkpt lat="36.36306" lon="29.18072">
        <ele>634.9</ele>
      </trkpt>
      <trkpt lat="36.36289" lon="29.18086">
        <ele>633.4</ele>
      </trkpt>
      <trkpt lat="36.36269" lon="29.1811">
        <ele>633.2</ele>
      </trkpt>
      <trkpt lat="36.36232" lon="29.1815">
        <ele>635.4</ele>
      </trkpt>
      <trkpt lat="36.36185" lon="29.18263">
        <ele>636.5</ele>
      </trkpt>
      <trkpt lat="36.36152" lon="29.18303">
        <ele>643.8</ele>
      </trkpt>
      <trkpt lat="36.36143" lon="29.18359">
        <ele>646</ele>
      </trkpt>
      <trkpt lat="36.36115" lon="29.18434">
        <ele>645.5</ele>
      </trkpt>
      <trkpt lat="36.36093" lon="29.18452">
        <ele>647.7</ele>
      </trkpt>
      <trkpt lat="36.36075" lon="29.18466">
        <ele>648.8</ele>
      </trkpt>
      <trkpt lat="36.36074" lon="29.18468">
        <ele>648.8</ele>
      </trkpt>
      <trkpt lat="36.36023" lon="29.18491">
        <ele>651.7</ele>
      </trkpt>
      <trkpt lat="36.3594" lon="29.18509">
        <ele>657.9</ele>
      </trkpt>
      <trkpt lat="36.35837" lon="29.18572">
        <ele>659.9</ele>
      </trkpt>
      <trkpt lat="36.35747" lon="29.18643">
        <ele>668.5</ele>
      </trkpt>
      <trkpt lat="36.35708" lon="29.18676">
        <ele>658.7</ele>
      </trkpt>
      <trkpt lat="36.35675" lon="29.18682">
        <ele>653</ele>
      </trkpt>
      <trkpt lat="36.35655" lon="29.18668">
        <ele>644.6</ele>
      </trkpt>
      <trkpt lat="36.35629" lon="29.18662">
        <ele>631.2</ele>
      </trkpt>
      <trkpt lat="36.35632" lon="29.18626">
        <ele>629.9</ele>
      </trkpt>
      <trkpt lat="36.35612" lon="29.18608">
        <ele>616.7</ele>
      </trkpt>
      <trkpt lat="36.35576" lon="29.18626">
        <ele>598</ele>
      </trkpt>
      <trkpt lat="36.35558" lon="29.18621">
        <ele>586.4</ele>
      </trkpt>
      <trkpt lat="36.35533" lon="29.18632">
        <ele>575.1</ele>
      </trkpt>
      <trkpt lat="36.35507" lon="29.18623">
        <ele>557.7</ele>
      </trkpt>
      <trkpt lat="36.35526" lon="29.18597">
        <ele>561.3</ele>
      </trkpt>
      <trkpt lat="36.35519" lon="29.18556">
        <ele>553</ele>
      </trkpt>
      <trkpt lat="36.3549" lon="29.18558">
        <ele>533.7</ele>
      </trkpt>
      <trkpt lat="36.35453" lon="29.18581">
        <ele>511.5</ele>
      </trkpt>
      <trkpt lat="36.35441" lon="29.18615">
        <ele>515.3</ele>
      </trkpt>
      <trkpt lat="36.35393" lon="29.18644">
        <ele>501.9</ele>
      </trkpt>
      <trkpt lat="36.35323" lon="29.18657">
        <ele>477.5</ele>
      </trkpt>
      <trkpt lat="36.35253" lon="29.18654">
        <ele>451.5</ele>
      </trkpt>
      <trkpt lat="36.35213" lon="29.18658">
        <ele>439.6</ele>
      </trkpt>
      <trkpt lat="36.3517" lon="29.1868">
        <ele>434.8</ele>
      </trkpt>
      <trkpt lat="36.35142" lon="29.18706">
        <ele>443.1</ele>
      </trkpt>
      <trkpt lat="36.35091" lon="29.18688">
        <ele>427.6</ele>
      </trkpt>
      <trkpt lat="36.35058" lon="29.18678">
        <ele>417.9</ele>
      </trkpt>
      <trkpt lat="36.35038" lon="29.18678">
        <ele>416.1</ele>
      </trkpt>
      <trkpt lat="36.35022" lon="29.18672">
        <ele>411.6</ele>
      </trkpt>
      <trkpt lat="36.34944" lon="29.18657">
        <ele>388</ele>
      </trkpt>
      <trkpt lat="36.34902" lon="29.18651">
        <ele>374.5</ele>
      </trkpt>
      <trkpt lat="36.3486" lon="29.18656">
        <ele>362.6</ele>
      </trkpt>
      <trkpt lat="36.34823" lon="29.1868">
        <ele>354.6</ele>
      </trkpt>
      <trkpt lat="36.34783" lon="29.18692">
        <ele>336.3</ele>
      </trkpt>
      <trkpt lat="36.34738" lon="29.18715">
        <ele>319.2</ele>
      </trkpt>
      <trkpt lat="36.34707" lon="29.1874">
        <ele>308.3</ele>
      </trkpt>
      <trkpt lat="36.34689" lon="29.18781">
        <ele>310.7</ele>
      </trkpt>
      <trkpt lat="36.34663" lon="29.18813">
        <ele>305.6</ele>
      </trkpt>
      <trkpt lat="36.34633" lon="29.18823">
        <ele>292.6</ele>
      </trkpt>
      <trkpt lat="36.3461" lon="29.18861">
        <ele>289.2</ele>
      </trkpt>
      <trkpt lat="36.34561" lon="29.18902">
        <ele>272.7</ele>
      </trkpt>
      <trkpt lat="36.34507" lon="29.18949">
        <ele>250.7</ele>
      </trkpt>
      <trkpt lat="36.34492" lon="29.19024">
        <ele>251.3</ele>
      </trkpt>
      <trkpt lat="36.34502" lon="29.19037">
        <ele>258.8</ele>
      </trkpt>
      <trkpt lat="36.34515" lon="29.19046">
        <ele>267.1</ele>
      </trkpt>
      <trkpt lat="36.34506" lon="29.19066">
        <ele>265.8</ele>
      </trkpt>
      <trkpt lat="36.34487" lon="29.19058">
        <ele>255</ele>
      </trkpt>
      <trkpt lat="36.34458" lon="29.19059">
        <ele>241.6</ele>
      </trkpt>
      <trkpt lat="36.34432" lon="29.1908">
        <ele>234.3</ele>
      </trkpt>
      <trkpt lat="36.34397" lon="29.19142">
        <ele>239</ele>
      </trkpt>
      <trkpt lat="36.34312" lon="29.19234">
        <ele>221.2</ele>
      </trkpt>
      <trkpt lat="36.34277" lon="29.19269">
        <ele>215.5</ele>
      </trkpt>
      <trkpt lat="36.34215" lon="29.19194">
        <ele>187.6</ele>
      </trkpt>
      <trkpt lat="36.34174" lon="29.19204">
        <ele>178.6</ele>
      </trkpt>
      <trkpt lat="36.34151" lon="29.19261">
        <ele>177.8</ele>
      </trkpt>
      <trkpt lat="36.34134" lon="29.19302">
        <ele>179.2</ele>
      </trkpt>
      <trkpt lat="36.34126" lon="29.1932">
        <ele>179.5</ele>
      </trkpt>
      <trkpt lat="36.34116" lon="29.19332">
        <ele>178.6</ele>
      </trkpt>
      <trkpt lat="36.34094" lon="29.19361">
        <ele>172.9</ele>
      </trkpt>
      <trkpt lat="36.34082" lon="29.19372">
        <ele>169.3</ele>
      </trkpt>
      <trkpt lat="36.34073" lon="29.19375">
        <ele>166.2</ele>
      </trkpt>
      <trkpt lat="36.34085" lon="29.19396">
        <ele>168.6</ele>
      </trkpt>
      <trkpt lat="36.34095" lon="29.19428">
        <ele>169.7</ele>
      </trkpt>
      <trkpt lat="36.34087" lon="29.19448">
        <ele>164.4</ele>
      </trkpt>
      <trkpt lat="36.34085" lon="29.19473">
        <ele>161</ele>
      </trkpt>
      <trkpt lat="36.34076" lon="29.19509">
        <ele>153.9</ele>
      </trkpt>
      <trkpt lat="36.34057" lon="29.19553">
        <ele>144.7</ele>
      </trkpt>
      <trkpt lat="36.34042" lon="29.19593">
        <ele>138.3</ele>
      </trkpt>
      <trkpt lat="36.34053" lon="29.19648">
        <ele>138.6</ele>
      </trkpt>
      <trkpt lat="36.34041" lon="29.19697">
        <ele>136</ele>
      </trkpt>
      <trkpt lat="36.34019" lon="29.19722">
        <ele>133.6</ele>
      </trkpt>
      <trkpt lat="36.33995" lon="29.19783">
        <ele>132.7</ele>
      </trkpt>
      <trkpt lat="36.33981" lon="29.19821">
        <ele>132.5</ele>
      </trkpt>
      <trkpt lat="36.33977" lon="29.19861">
        <ele>133.2</ele>
      </trkpt>
      <trkpt lat="36.33963" lon="29.19895">
        <ele>132.5</ele>
      </trkpt>
      <trkpt lat="36.33956" lon="29.19923">
        <ele>132.8</ele>
      </trkpt>
      <trkpt lat="36.33948" lon="29.19931">
        <ele>132.6</ele>
      </trkpt>
      <trkpt lat="36.33926" lon="29.19933">
        <ele>130.3</ele>
      </trkpt>
      <trkpt lat="36.33897" lon="29.19947">
        <ele>127.8</ele>
      </trkpt>
      <trkpt lat="36.33864" lon="29.19971">
        <ele>125</ele>
      </trkpt>
      <trkpt lat="36.33812" lon="29.20024">
        <ele>121.1</ele>
      </trkpt>
      <trkpt lat="36.33761" lon="29.20008">
        <ele>116</ele>
      </trkpt>
      <trkpt lat="36.33714" lon="29.20016">
        <ele>110</ele>
      </trkpt>
      <trkpt lat="36.33659" lon="29.20007">
        <ele>101.5</ele>
      </trkpt>
      <trkpt lat="36.33659" lon="29.1999">
        <ele>101.2</ele>
      </trkpt>
      <trkpt lat="36.33634" lon="29.19993">
        <ele>95</ele>
      </trkpt>
      <trkpt lat="36.33614" lon="29.20042">
        <ele>91.4</ele>
      </trkpt>
      <trkpt lat="36.33601" lon="29.20076">
        <ele>89.3</ele>
      </trkpt>
      <trkpt lat="36.33591" lon="29.20122">
        <ele>86.1</ele>
      </trkpt>
      <trkpt lat="36.3358" lon="29.20165">
        <ele>81.6</ele>
      </trkpt>
      <trkpt lat="36.33578" lon="29.20196">
        <ele>79.2</ele>
      </trkpt>
      <trkpt lat="36.3358" lon="29.20222">
        <ele>78.6</ele>
      </trkpt>
      <trkpt lat="36.3359" lon="29.20273">
        <ele>79.2</ele>
      </trkpt>
      <trkpt lat="36.33587" lon="29.20307">
        <ele>77.2</ele>
      </trkpt>
      <trkpt lat="36.33584" lon="29.20335">
        <ele>75.1</ele>
      </trkpt>
      <trkpt lat="36.33579" lon="29.20349">
        <ele>74.9</ele>
      </trkpt>
      <trkpt lat="36.33556" lon="29.20404">
        <ele>73.8</ele>
      </trkpt>
      <trkpt lat="36.33548" lon="29.20407">
        <ele>72.3</ele>
      </trkpt>
      <trkpt lat="36.33529" lon="29.20408">
        <ele>68.2</ele>
      </trkpt>
      <trkpt lat="36.33506" lon="29.20403">
        <ele>62.3</ele>
      </trkpt>
      <trkpt lat="36.33497" lon="29.204">
        <ele>59.8</ele>
      </trkpt>
      <trkpt lat="36.33478" lon="29.20407">
        <ele>57.2</ele>
      </trkpt>
      <trkpt lat="36.33472" lon="29.20405">
        <ele>55.6</ele>
      </trkpt>
      <trkpt lat="36.33463" lon="29.20407">
        <ele>54.2</ele>
      </trkpt>
      <trkpt lat="36.33451" lon="29.20418">
        <ele>53.1</ele>
      </trkpt>
      <trkpt lat="36.33443" lon="29.20418">
        <ele>51.6</ele>
      </trkpt>
      <trkpt lat="36.33431" lon="29.20421">
        <ele>49.5</ele>
      </trkpt>
      <trkpt lat="36.33419" lon="29.20442">
        <ele>49.7</ele>
      </trkpt>
      <trkpt lat="36.33399" lon="29.20446">
        <ele>47.2</ele>
      </trkpt>
      <trkpt lat="36.3338" lon="29.20493">
        <ele>50.3</ele>
      </trkpt>
      <trkpt lat="36.3338" lon="29.20509">
        <ele>52.4</ele>
      </trkpt>
      <trkpt lat="36.33378" lon="29.20529">
        <ele>54.6</ele>
      </trkpt>
      <trkpt lat="36.33359" lon="29.20532">
        <ele>52.6</ele>
      </trkpt>
      <trkpt lat="36.33346" lon="29.20553">
        <ele>53.8</ele>
      </trkpt>
      <trkpt lat="36.33322" lon="29.20571">
        <ele>54.3</ele>
      </trkpt>
      <trkpt lat="36.33298" lon="29.20583">
        <ele>54.1</ele>
      </trkpt>
      <trkpt lat="36.33277" lon="29.20593">
        <ele>53.3</ele>
      </trkpt>
      <trkpt lat="36.33263" lon="29.206">
        <ele>52.9</ele>
      </trkpt>
      <trkpt lat="36.33247" lon="29.20602">
        <ele>52.7</ele>
      </trkpt>
      <trkpt lat="36.33223" lon="29.20625">
        <ele>60.4</ele>
      </trkpt>
      <trkpt lat="36.33213" lon="29.20615">
        <ele>60.3</ele>
      </trkpt>
      <trkpt lat="36.33201" lon="29.20611">
        <ele>61.4</ele>
      </trkpt>
      <trkpt lat="36.33191" lon="29.20618">
        <ele>64.9</ele>
      </trkpt>
      <trkpt lat="36.33187" lon="29.20635">
        <ele>70.3</ele>
      </trkpt>
      <trkpt lat="36.33185" lon="29.2065">
        <ele>74.8</ele>
      </trkpt>
      <trkpt lat="36.33179" lon="29.20653">
        <ele>77.3</ele>
      </trkpt>
      <trkpt lat="36.33165" lon="29.20652">
        <ele>80.4</ele>
      </trkpt>
      <trkpt lat="36.33147" lon="29.20652">
        <ele>81.4</ele>
      </trkpt>
      <trkpt lat="36.33144" lon="29.20655">
        <ele>82.6</ele>
      </trkpt>
      <trkpt lat="36.33164" lon="29.20677">
        <ele>88.4</ele>
      </trkpt>
      <trkpt lat="36.33192" lon="29.20692">
        <ele>85.5</ele>
      </trkpt>
      <trkpt lat="36.33204" lon="29.20701">
        <ele>84.9</ele>
      </trkpt>
      <trkpt lat="36.33233" lon="29.20755">
        <ele>94.2</ele>
      </trkpt>
      <trkpt lat="36.3325" lon="29.20786">
        <ele>103.5</ele>
      </trkpt>
      <trkpt lat="36.33263" lon="29.208">
        <ele>106.8</ele>
      </trkpt>
      <trkpt lat="36.33282" lon="29.20805">
        <ele>103.9</ele>
      </trkpt>
      <trkpt lat="36.33299" lon="29.20803">
        <ele>98.9</ele>
      </trkpt>
      <trkpt lat="36.3333" lon="29.2078">
        <ele>85</ele>
      </trkpt>
      <trkpt lat="36.33336" lon="29.20774">
        <ele>83.6</ele>
      </trkpt>
      <trkpt lat="36.33344" lon="29.20773">
        <ele>84.4</ele>
      </trkpt>
      <trkpt lat="36.33389" lon="29.20745">
        <ele>86</ele>
      </trkpt>
      <trkpt lat="36.33403" lon="29.20752">
        <ele>89.1</ele>
      </trkpt>
      <trkpt lat="36.3341" lon="29.20762">
        <ele>91.2</ele>
      </trkpt>
      <trkpt lat="36.33425" lon="29.20793">
        <ele>94.7</ele>
      </trkpt>
      <trkpt lat="36.33438" lon="29.20834">
        <ele>98.3</ele>
      </trkpt>
      <trkpt lat="36.3344" lon="29.20841">
        <ele>99.3</ele>
      </trkpt>
      <trkpt lat="36.33448" lon="29.20854">
        <ele>101</ele>
      </trkpt>
      <trkpt lat="36.33475" lon="29.20881">
        <ele>104.2</ele>
      </trkpt>
      <trkpt lat="36.33486" lon="29.20903">
        <ele>107.2</ele>
      </trkpt>
      <trkpt lat="36.33505" lon="29.20929">
        <ele>111.1</ele>
      </trkpt>
      <trkpt lat="36.33514" lon="29.20969">
        <ele>117.3</ele>
      </trkpt>
      <trkpt lat="36.33527" lon="29.21021">
        <ele>124.6</ele>
      </trkpt>
      <trkpt lat="36.33544" lon="29.21047">
        <ele>127</ele>
      </trkpt>
      <trkpt lat="36.33564" lon="29.21048">
        <ele>126</ele>
      </trkpt>
      <trkpt lat="36.33575" lon="29.21034">
        <ele>124.4</ele>
      </trkpt>
      <trkpt lat="36.33599" lon="29.21012">
        <ele>123.3</ele>
      </trkpt>
      <trkpt lat="36.33619" lon="29.20995">
        <ele>122.2</ele>
      </trkpt>
      <trkpt lat="36.33631" lon="29.2099">
        <ele>121.8</ele>
      </trkpt>
      <trkpt lat="36.33642" lon="29.21002">
        <ele>123.7</ele>
      </trkpt>
      <trkpt lat="36.33654" lon="29.21016">
        <ele>125.6</ele>
      </trkpt>
      <trkpt lat="36.33669" lon="29.21035">
        <ele>128.9</ele>
      </trkpt>
      <trkpt lat="36.3368" lon="29.21042">
        <ele>131.3</ele>
      </trkpt>
      <trkpt lat="36.33689" lon="29.21039">
        <ele>132</ele>
      </trkpt>
      <trkpt lat="36.33701" lon="29.21021">
        <ele>130.4</ele>
      </trkpt>
      <trkpt lat="36.33717" lon="29.20999">
        <ele>128.1</ele>
      </trkpt>
      <trkpt lat="36.33731" lon="29.20974">
        <ele>126.1</ele>
      </trkpt>
      <trkpt lat="36.33742" lon="29.20957">
        <ele>125.1</ele>
      </trkpt>
      <trkpt lat="36.33755" lon="29.20947">
        <ele>126.4</ele>
      </trkpt>
      <trkpt lat="36.33764" lon="29.20935">
        <ele>128.2</ele>
      </trkpt>
      <trkpt lat="36.33771" lon="29.20931">
        <ele>130.6</ele>
      </trkpt>
      <trkpt lat="36.33775" lon="29.20943">
        <ele>133.4</ele>
      </trkpt>
      <trkpt lat="36.33771" lon="29.20957">
        <ele>133.7</ele>
      </trkpt>
      <trkpt lat="36.33764" lon="29.20967">
        <ele>132.1</ele>
      </trkpt>
      <trkpt lat="36.33757" lon="29.20971">
        <ele>130</ele>
      </trkpt>
      <trkpt lat="36.33744" lon="29.20981">
        <ele>128.1</ele>
      </trkpt>
      <trkpt lat="36.33736" lon="29.20997">
        <ele>129.5</ele>
      </trkpt>
      <trkpt lat="36.33734" lon="29.21009">
        <ele>131.4</ele>
      </trkpt>
      <trkpt lat="36.33729" lon="29.21028">
        <ele>134.8</ele>
      </trkpt>
      <trkpt lat="36.33726" lon="29.21044">
        <ele>137.7</ele>
      </trkpt>
      <trkpt lat="36.3372" lon="29.21069">
        <ele>141.9</ele>
      </trkpt>
      <trkpt lat="36.33713" lon="29.21108">
        <ele>145.8</ele>
      </trkpt>
      <trkpt lat="36.33705" lon="29.2112">
        <ele>145.3</ele>
      </trkpt>
      <trkpt lat="36.33693" lon="29.21129">
        <ele>143.8</ele>
      </trkpt>
      <trkpt lat="36.3369" lon="29.21146">
        <ele>144.6</ele>
      </trkpt>
      <trkpt lat="36.33694" lon="29.21157">
        <ele>146.4</ele>
      </trkpt>
      <trkpt lat="36.33714" lon="29.21196">
        <ele>154.6</ele>
      </trkpt>
      <trkpt lat="36.33716" lon="29.2121">
        <ele>156.4</ele>
      </trkpt>
      <trkpt lat="36.33712" lon="29.21225">
        <ele>157</ele>
      </trkpt>
      <trkpt lat="36.3371" lon="29.21239">
        <ele>157.8</ele>
      </trkpt>
      <trkpt lat="36.33706" lon="29.21259">
        <ele>159.3</ele>
      </trkpt>
      <trkpt lat="36.33707" lon="29.21275">
        <ele>162.4</ele>
      </trkpt>
      <trkpt lat="36.33708" lon="29.21295">
        <ele>166.1</ele>
      </trkpt>
      <trkpt lat="36.33704" lon="29.21328">
        <ele>170.5</ele>
      </trkpt>
      <trkpt lat="36.337" lon="29.21352">
        <ele>172.9</ele>
      </trkpt>
      <trkpt lat="36.33701" lon="29.21398">
        <ele>179.7</ele>
      </trkpt>
      <trkpt lat="36.33697" lon="29.21408">
        <ele>180</ele>
      </trkpt>
      <trkpt lat="36.33686" lon="29.21416">
        <ele>178.2</ele>
      </trkpt>
      <trkpt lat="36.33669" lon="29.21434">
        <ele>175.4</ele>
      </trkpt>
      <trkpt lat="36.33664" lon="29.21442">
        <ele>175.6</ele>
      </trkpt>
      <trkpt lat="36.33653" lon="29.21451">
        <ele>175.8</ele>
      </trkpt>
      <trkpt lat="36.33648" lon="29.21464">
        <ele>177.1</ele>
      </trkpt>
      <trkpt lat="36.33643" lon="29.21486">
        <ele>179.5</ele>
      </trkpt>
      <trkpt lat="36.33645" lon="29.2151">
        <ele>182.1</ele>
      </trkpt>
      <trkpt lat="36.33643" lon="29.21527">
        <ele>183.8</ele>
      </trkpt>
      <trkpt lat="36.33644" lon="29.21551">
        <ele>186.1</ele>
      </trkpt>
      <trkpt lat="36.33644" lon="29.2158">
        <ele>188.9</ele>
      </trkpt>
      <trkpt lat="36.33643" lon="29.21587">
        <ele>189.7</ele>
      </trkpt>
      <trkpt lat="36.33637" lon="29.21594">
        <ele>190.4</ele>
      </trkpt>
      <trkpt lat="36.33631" lon="29.21614">
        <ele>192.6</ele>
      </trkpt>
      <trkpt lat="36.33631" lon="29.21627">
        <ele>194</ele>
      </trkpt>
      <trkpt lat="36.3364" lon="29.21645">
        <ele>195.2</ele>
      </trkpt>
      <trkpt lat="36.33654" lon="29.21656">
        <ele>195.1</ele>
      </trkpt>
      <trkpt lat="36.33664" lon="29.21679">
        <ele>198.1</ele>
      </trkpt>
      <trkpt lat="36.33668" lon="29.2169">
        <ele>200.5</ele>
      </trkpt>
      <trkpt lat="36.33671" lon="29.21698">
        <ele>202.6</ele>
      </trkpt>
      <trkpt lat="36.33678" lon="29.21711">
        <ele>206</ele>
      </trkpt>
      <trkpt lat="36.33685" lon="29.21722">
        <ele>208.7</ele>
      </trkpt>
      <trkpt lat="36.33693" lon="29.21741">
        <ele>212.5</ele>
      </trkpt>
      <trkpt lat="36.33697" lon="29.21765">
        <ele>216</ele>
      </trkpt>
      <trkpt lat="36.3371" lon="29.21783">
        <ele>217.9</ele>
      </trkpt>
      <trkpt lat="36.33723" lon="29.21796">
        <ele>218.6</ele>
      </trkpt>
      <trkpt lat="36.33727" lon="29.21811">
        <ele>219.7</ele>
      </trkpt>
      <trkpt lat="36.33725" lon="29.21828">
        <ele>221.5</ele>
      </trkpt>
      <trkpt lat="36.33725" lon="29.21842">
        <ele>223.6</ele>
      </trkpt>
      <trkpt lat="36.33736" lon="29.21864">
        <ele>226.6</ele>
      </trkpt>
      <trkpt lat="36.33738" lon="29.21879">
        <ele>229.4</ele>
      </trkpt>
      <trkpt lat="36.33732" lon="29.21896">
        <ele>233.2</ele>
      </trkpt>
      <trkpt lat="36.33721" lon="29.21911">
        <ele>236.7</ele>
      </trkpt>
      <trkpt lat="36.33712" lon="29.21919">
        <ele>238.7</ele>
      </trkpt>
      <trkpt lat="36.3371" lon="29.2193">
        <ele>240.7</ele>
      </trkpt>
      <trkpt lat="36.33717" lon="29.21954">
        <ele>244.3</ele>
      </trkpt>
      <trkpt lat="36.33712" lon="29.2197">
        <ele>247.4</ele>
      </trkpt>
      <trkpt lat="36.33714" lon="29.2202">
        <ele>254.6</ele>
      </trkpt>
      <trkpt lat="36.3371" lon="29.22037">
        <ele>256.9</ele>
      </trkpt>
      <trkpt lat="36.33704" lon="29.22059">
        <ele>259.7</ele>
      </trkpt>
      <trkpt lat="36.33705" lon="29.22074">
        <ele>261.5</ele>
      </trkpt>
      <trkpt lat="36.33715" lon="29.22087">
        <ele>262.7</ele>
      </trkpt>
      <trkpt lat="36.33734" lon="29.22097">
        <ele>263.3</ele>
      </trkpt>
      <trkpt lat="36.33752" lon="29.22101">
        <ele>263.4</ele>
      </trkpt>
      <trkpt lat="36.33765" lon="29.22097">
        <ele>264.7</ele>
      </trkpt>
      <trkpt lat="36.33773" lon="29.22089">
        <ele>264.9</ele>
      </trkpt>
      <trkpt lat="36.33784" lon="29.22091">
        <ele>266.6</ele>
      </trkpt>
      <trkpt lat="36.33793" lon="29.22106">
        <ele>269.2</ele>
      </trkpt>
      <trkpt lat="36.33799" lon="29.22126">
        <ele>271.6</ele>
      </trkpt>
      <trkpt lat="36.33797" lon="29.22153">
        <ele>273.7</ele>
      </trkpt>
      <trkpt lat="36.33794" lon="29.22172">
        <ele>274.2</ele>
      </trkpt>
      <trkpt lat="36.3379" lon="29.22179">
        <ele>273.3</ele>
      </trkpt>
      <trkpt lat="36.33761" lon="29.22189">
        <ele>270.2</ele>
      </trkpt>
      <trkpt lat="36.33729" lon="29.22198">
        <ele>269.9</ele>
      </trkpt>
      <trkpt lat="36.33721" lon="29.22211">
        <ele>269.2</ele>
      </trkpt>
      <trkpt lat="36.33714" lon="29.2224">
        <ele>267.1</ele>
      </trkpt>
      <trkpt lat="36.33704" lon="29.22275">
        <ele>262.8</ele>
      </trkpt>
      <trkpt lat="36.33693" lon="29.22314">
        <ele>257.3</ele>
      </trkpt>
      <trkpt lat="36.33689" lon="29.22343">
        <ele>252.9</ele>
      </trkpt>
      <trkpt lat="36.33675" lon="29.22368">
        <ele>248.8</ele>
      </trkpt>
      <trkpt lat="36.33667" lon="29.22371">
        <ele>248.2</ele>
      </trkpt>
      <trkpt lat="36.3365" lon="29.22383">
        <ele>243.5</ele>
      </trkpt>
      <trkpt lat="36.33642" lon="29.224">
        <ele>239.8</ele>
      </trkpt>
      <trkpt lat="36.33641" lon="29.22417">
        <ele>237.2</ele>
      </trkpt>
      <trkpt lat="36.33659" lon="29.22474">
        <ele>229.9</ele>
      </trkpt>
      <trkpt lat="36.33668" lon="29.22517">
        <ele>223.1</ele>
      </trkpt>
      <trkpt lat="36.33668" lon="29.22548">
        <ele>217.5</ele>
      </trkpt>
      <trkpt lat="36.33674" lon="29.22574">
        <ele>213.2</ele>
      </trkpt>
      <trkpt lat="36.33686" lon="29.22603">
        <ele>208.9</ele>
      </trkpt>
      <trkpt lat="36.33703" lon="29.22632">
        <ele>205.2</ele>
      </trkpt>
      <trkpt lat="36.33717" lon="29.22669">
        <ele>199.9</ele>
      </trkpt>
      <trkpt lat="36.33721" lon="29.22737">
        <ele>189.6</ele>
      </trkpt>
      <trkpt lat="36.33721" lon="29.22822">
        <ele>174.2</ele>
      </trkpt>
      <trkpt lat="36.33725" lon="29.2284">
        <ele>171.8</ele>
      </trkpt>
      <trkpt lat="36.33741" lon="29.22883">
        <ele>167</ele>
      </trkpt>
      <trkpt lat="36.33768" lon="29.2294">
        <ele>158.6</ele>
      </trkpt>
      <trkpt lat="36.3378" lon="29.22986">
        <ele>151.1</ele>
      </trkpt>
      <trkpt lat="36.33783" lon="29.23026">
        <ele>144.9</ele>
      </trkpt>
      <trkpt lat="36.33787" lon="29.23101">
        <ele>134</ele>
      </trkpt>
      <trkpt lat="36.3378" lon="29.23176">
        <ele>127.9</ele>
      </trkpt>
      <trkpt lat="36.33765" lon="29.23217">
        <ele>126.7</ele>
      </trkpt>
      <trkpt lat="36.33757" lon="29.23263">
        <ele>123.5</ele>
      </trkpt>
      <trkpt lat="36.33748" lon="29.23289">
        <ele>120.9</ele>
      </trkpt>
      <trkpt lat="36.33728" lon="29.23271">
        <ele>113.6</ele>
      </trkpt>
      <trkpt lat="36.33712" lon="29.23243">
        <ele>110.6</ele>
      </trkpt>
      <trkpt lat="36.33676" lon="29.23203">
        <ele>103.9</ele>
      </trkpt>
      <trkpt lat="36.33664" lon="29.23183">
        <ele>103.5</ele>
      </trkpt>
      <trkpt lat="36.33659" lon="29.23165">
        <ele>103.8</ele>
      </trkpt>
      <trkpt lat="36.33649" lon="29.23136">
        <ele>99.5</ele>
      </trkpt>
      <trkpt lat="36.33641" lon="29.23102">
        <ele>97.9</ele>
      </trkpt>
      <trkpt lat="36.33627" lon="29.23066">
        <ele>92.8</ele>
      </trkpt>
      <trkpt lat="36.33605" lon="29.2303">
        <ele>83.5</ele>
      </trkpt>
      <trkpt lat="36.3358" lon="29.22995">
        <ele>72.4</ele>
      </trkpt>
      <trkpt lat="36.3355" lon="29.22964">
        <ele>70.5</ele>
      </trkpt>
      <trkpt lat="36.33531" lon="29.22954">
        <ele>65.3</ele>
      </trkpt>
      <trkpt lat="36.33493" lon="29.22945">
        <ele>51.6</ele>
      </trkpt>
      <trkpt lat="36.33464" lon="29.22908">
        <ele>54.8</ele>
      </trkpt>
      <trkpt lat="36.33424" lon="29.22863">
        <ele>51.3</ele>
      </trkpt>
      <trkpt lat="36.33389" lon="29.22834">
        <ele>45.4</ele>
      </trkpt>
      <trkpt lat="36.33372" lon="29.22801">
        <ele>44.7</ele>
      </trkpt>
      <trkpt lat="36.33341" lon="29.22782">
        <ele>34.5</ele>
      </trkpt>
      <trkpt lat="36.33362" lon="29.22851">
        <ele>33.3</ele>
      </trkpt>
      <trkpt lat="36.33393" lon="29.22929">
        <ele>27.7</ele>
      </trkpt>
      <trkpt lat="36.33432" lon="29.22999">
        <ele>16.8</ele>
      </trkpt>
      <trkpt lat="36.33402" lon="29.23003">
        <ele>14.1</ele>
      </trkpt>
      <trkpt lat="36.33395" lon="29.23014">
        <ele>14.3</ele>
      </trkpt>
      <trkpt lat="36.33403" lon="29.23086">
        <ele>10</ele>
      </trkpt>
      <trkpt lat="36.33398" lon="29.2314">
        <ele>9.4</ele>
      </trkpt>
      <trkpt lat="36.3336" lon="29.23275">
        <ele>6</ele>
      </trkpt>
      <trkpt lat="36.33335" lon="29.23298">
        <ele>5.7</ele>
      </trkpt>
      <trkpt lat="36.33301" lon="29.23283">
        <ele>6.7</ele>
      </trkpt>
      <trkpt lat="36.33262" lon="29.23259">
        <ele>7.7</ele>
      </trkpt>
      <trkpt lat="36.33245" lon="29.2317">
        <ele>16.7</ele>
      </trkpt>
      <trkpt lat="36.33218" lon="29.22952">
        <ele>23.8</ele>
      </trkpt>
      <trkpt lat="36.33193" lon="29.22902">
        <ele>20.2</ele>
      </trkpt>
      <trkpt lat="36.33183" lon="29.22812">
        <ele>20.2</ele>
      </trkpt>
      <trkpt lat="36.33149" lon="29.22769">
        <ele>16.3</ele>
      </trkpt>
      <trkpt lat="36.33114" lon="29.22672">
        <ele>14.2</ele>
      </trkpt>
      <trkpt lat="36.33106" lon="29.22671">
        <ele>12.8</ele>
      </trkpt>
      <trkpt lat="36.33087" lon="29.22666">
        <ele>9.8</ele>
      </trkpt>
      <trkpt lat="36.33064" lon="29.22649">
        <ele>9.9</ele>
      </trkpt>
      <trkpt lat="36.3302" lon="29.22615">
        <ele>9.8</ele>
      </trkpt>
      <trkpt lat="36.33008" lon="29.22613">
        <ele>8.5</ele>
      </trkpt>
      <trkpt lat="36.32997" lon="29.22614">
        <ele>7</ele>
      </trkpt>
      <trkpt lat="36.32978" lon="29.22628">
        <ele>4.6</ele>
      </trkpt>
      <trkpt lat="36.32958" lon="29.22661">
        <ele>1.8</ele>
      </trkpt>
      <trkpt lat="36.32948" lon="29.22701">
        <ele>1.4</ele>
      </trkpt>
      <trkpt lat="36.32949" lon="29.22708">
        <ele>1.3</ele>
      </trkpt>
      <trkpt lat="36.3295" lon="29.22714">
        <ele>1.3</ele>
      </trkpt>
      <trkpt lat="36.32946" lon="29.22716">
        <ele>1.3</ele>
      </trkpt>
      <trkpt lat="36.32933" lon="29.22734">
        <ele>1.2</ele>
      </trkpt>
      <trkpt lat="36.32931" lon="29.22737">
        <ele>1.1</ele>
      </trkpt>
      <trkpt lat="36.3293" lon="29.22743">
        <ele>1.1</ele>
      </trkpt>
      <trkpt lat="36.32912" lon="29.22726">
        <ele>2</ele>
      </trkpt>
      <trkpt lat="36.32899" lon="29.22808">
        <ele>1.6</ele>
      </trkpt>
      <trkpt lat="36.32897" lon="29.22886">
        <ele>2</ele>
      </trkpt>
      <trkpt lat="36.32898" lon="29.22939">
        <ele>1.9</ele>
      </trkpt>
      <trkpt lat="36.32897" lon="29.2298">
        <ele>1.3</ele>
      </trkpt>
      <trkpt lat="36.32887" lon="29.23024">
        <ele>1.2</ele>
      </trkpt>
      <trkpt lat="36.32893" lon="29.23067">
        <ele>1.6</ele>
      </trkpt>
      <trkpt lat="36.32901" lon="29.23121">
        <ele>1.4</ele>
      </trkpt>
      <trkpt lat="36.32926" lon="29.23179">
        <ele>1.3</ele>
      </trkpt>
      <trkpt lat="36.32919" lon="29.23194">
        <ele>1.6</ele>
      </trkpt>
      <trkpt lat="36.32912" lon="29.23224">
        <ele>2.3</ele>
      </trkpt>
      <trkpt lat="36.32908" lon="29.23256">
        <ele>2.8</ele>
      </trkpt>
      <trkpt lat="36.32906" lon="29.23321">
        <ele>2.9</ele>
      </trkpt>
      <trkpt lat="36.32892" lon="29.23454">
        <ele>3</ele>
      </trkpt>
      <trkpt lat="36.32873" lon="29.23558">
        <ele>3</ele>
      </trkpt>
      <trkpt lat="36.32868" lon="29.23621">
        <ele>2.5</ele>
      </trkpt>
      <trkpt lat="36.32859" lon="29.23672">
        <ele>1.9</ele>
      </trkpt>
      <trkpt lat="36.32849" lon="29.23706">
        <ele>1.5</ele>
      </trkpt>
      <trkpt lat="36.32833" lon="29.23754">
        <ele>1.1</ele>
      </trkpt>
      <trkpt lat="36.32809" lon="29.23813">
        <ele>2.5</ele>
      </trkpt>
      <trkpt lat="36.32772" lon="29.2388">
        <ele>2.9</ele>
      </trkpt>
      <trkpt lat="36.32734" lon="29.23941">
        <ele>2.9</ele>
      </trkpt>
      <trkpt lat="36.32713" lon="29.23994">
        <ele>3</ele>
      </trkpt>
      <trkpt lat="36.32702" lon="29.24036">
        <ele>3</ele>
      </trkpt>
      <trkpt lat="36.32685" lon="29.24122">
        <ele>3.8</ele>
      </trkpt>
      <trkpt lat="36.32675" lon="29.242">
        <ele>4.5</ele>
      </trkpt>
      <trkpt lat="36.32663" lon="29.2427">
        <ele>5.2</ele>
      </trkpt>
      <trkpt lat="36.32651" lon="29.24317">
        <ele>5.3</ele>
      </trkpt>
      <trkpt lat="36.3264" lon="29.24438">
        <ele>4.1</ele>
      </trkpt>
      <trkpt lat="36.32635" lon="29.24487">
        <ele>3.4</ele>
      </trkpt>
      <trkpt lat="36.32635" lon="29.2455">
        <ele>4.8</ele>
      </trkpt>
      <trkpt lat="36.32632" lon="29.24606">
        <ele>5.4</ele>
      </trkpt>
      <trkpt lat="36.32636" lon="29.24666">
        <ele>4.6</ele>
      </trkpt>
      <trkpt lat="36.32641" lon="29.24714">
        <ele>4.9</ele>
      </trkpt>
      <trkpt lat="36.32643" lon="29.24794">
        <ele>3.9</ele>
      </trkpt>
      <trkpt lat="36.32636" lon="29.24842">
        <ele>3</ele>
      </trkpt>
      <trkpt lat="36.32628" lon="29.2491">
        <ele>3</ele>
      </trkpt>
      <trkpt lat="36.32623" lon="29.24987">
        <ele>4.3</ele>
      </trkpt>
      <trkpt lat="36.32613" lon="29.25043">
        <ele>4.8</ele>
      </trkpt>
      <trkpt lat="36.32601" lon="29.25089">
        <ele>5</ele>
      </trkpt>
      <trkpt lat="36.32597" lon="29.25121">
        <ele>4.9</ele>
      </trkpt>
      <trkpt lat="36.32595" lon="29.25197">
        <ele>4.2</ele>
      </trkpt>
      <trkpt lat="36.32589" lon="29.25243">
        <ele>3.2</ele>
      </trkpt>
      <trkpt lat="36.32571" lon="29.25319">
        <ele>4</ele>
      </trkpt>
      <trkpt lat="36.32567" lon="29.25362">
        <ele>4.1</ele>
      </trkpt>
      <trkpt lat="36.32561" lon="29.25416">
        <ele>4</ele>
      </trkpt>
      <trkpt lat="36.32566" lon="29.25532">
        <ele>5.9</ele>
      </trkpt>
      <trkpt lat="36.3258" lon="29.25586">
        <ele>6</ele>
      </trkpt>
      <trkpt lat="36.32568" lon="29.2563">
        <ele>6.5</ele>
      </trkpt>
      <trkpt lat="36.32536" lon="29.25704">
        <ele>6.4</ele>
      </trkpt>
      <trkpt lat="36.32527" lon="29.25727">
        <ele>6.3</ele>
      </trkpt>
      <trkpt lat="36.32516" lon="29.25779">
        <ele>6.6</ele>
      </trkpt>
      <trkpt lat="36.32496" lon="29.2582">
        <ele>6.8</ele>
      </trkpt>
      <trkpt lat="36.32479" lon="29.25856">
        <ele>6.4</ele>
      </trkpt>
      <trkpt lat="36.32477" lon="29.2587">
        <ele>6.2</ele>
      </trkpt>
      <trkpt lat="36.32482" lon="29.25895">
        <ele>6.2</ele>
      </trkpt>
      <trkpt lat="36.32493" lon="29.25917">
        <ele>6</ele>
      </trkpt>
      <trkpt lat="36.3252" lon="29.25957">
        <ele>8.4</ele>
      </trkpt>
      <trkpt lat="36.32524" lon="29.2597">
        <ele>8.9</ele>
      </trkpt>
      <trkpt lat="36.32521" lon="29.25994">
        <ele>9.4</ele>
      </trkpt>
      <trkpt lat="36.32482" lon="29.26082">
        <ele>9</ele>
      </trkpt>
      <trkpt lat="36.32447" lon="29.26149">
        <ele>8.2</ele>
      </trkpt>
      <trkpt lat="36.3242" lon="29.26185">
        <ele>8.2</ele>
      </trkpt>
      <trkpt lat="36.32344" lon="29.26283">
        <ele>10</ele>
      </trkpt>
      <trkpt lat="36.32303" lon="29.26326">
        <ele>10</ele>
      </trkpt>
      <trkpt lat="36.32262" lon="29.2638">
        <ele>11.6</ele>
      </trkpt>
      <trkpt lat="36.32248" lon="29.26429">
        <ele>12.8</ele>
      </trkpt>
      <trkpt lat="36.3226" lon="29.26466">
        <ele>12.3</ele>
      </trkpt>
      <trkpt lat="36.32269" lon="29.26501">
        <ele>11.8</ele>
      </trkpt>
      <trkpt lat="36.32244" lon="29.26553">
        <ele>10.7</ele>
      </trkpt>
      <trkpt lat="36.32148" lon="29.26671">
        <ele>10.2</ele>
      </trkpt>
      <trkpt lat="36.31989" lon="29.26835">
        <ele>9</ele>
      </trkpt>
      <trkpt lat="36.31958" lon="29.26873">
        <ele>8.8</ele>
      </trkpt>
      <trkpt lat="36.3194" lon="29.26946">
        <ele>8.2</ele>
      </trkpt>
      <trkpt lat="36.31926" lon="29.27027">
        <ele>7.7</ele>
      </trkpt>
      <trkpt lat="36.31883" lon="29.27068">
        <ele>7.2</ele>
      </trkpt>
      <trkpt lat="36.31848" lon="29.27119">
        <ele>7.1</ele>
      </trkpt>
      <trkpt lat="36.31823" lon="29.27188">
        <ele>7.3</ele>
      </trkpt>
      <trkpt lat="36.31778" lon="29.27284">
        <ele>7.1</ele>
      </trkpt>
      <trkpt lat="36.3172" lon="29.27374">
        <ele>6.6</ele>
      </trkpt>
      <trkpt lat="36.3164" lon="29.2746">
        <ele>8.2</ele>
      </trkpt>
      <trkpt lat="36.31599" lon="29.27547">
        <ele>9.3</ele>
      </trkpt>
      <trkpt lat="36.31569" lon="29.27615">
        <ele>9.1</ele>
      </trkpt>
      <trkpt lat="36.31527" lon="29.2762">
        <ele>8.4</ele>
      </trkpt>
      <trkpt lat="36.31479" lon="29.27612">
        <ele>8.7</ele>
      </trkpt>
      <trkpt lat="36.31381" lon="29.27588">
        <ele>8.3</ele>
      </trkpt>
      <trkpt lat="36.31356" lon="29.27658">
        <ele>7.1</ele>
      </trkpt>
      <trkpt lat="36.3132" lon="29.27717">
        <ele>6.3</ele>
      </trkpt>
      <trkpt lat="36.31305" lon="29.27782">
        <ele>5.1</ele>
      </trkpt>
      <trkpt lat="36.31326" lon="29.27825">
        <ele>3.5</ele>
      </trkpt>
      <trkpt lat="36.31418" lon="29.2792">
        <ele>5.1</ele>
      </trkpt>
      <trkpt lat="36.31589" lon="29.28102">
        <ele>5.4</ele>
      </trkpt>
      <trkpt lat="36.31725" lon="29.28243">
        <ele>10.5</ele>
      </trkpt>
      <trkpt lat="36.31735" lon="29.28253">
        <ele>10.4</ele>
      </trkpt>
      <trkpt lat="36.31821" lon="29.28326">
        <ele>11.7</ele>
      </trkpt>
      <trkpt lat="36.31902" lon="29.28357">
        <ele>10.4</ele>
      </trkpt>
      <trkpt lat="36.3198" lon="29.2839">
        <ele>7.2</ele>
      </trkpt>
      <trkpt lat="36.32079" lon="29.28376">
        <ele>4.6</ele>
      </trkpt>
      <trkpt lat="36.32144" lon="29.28365">
        <ele>4.8</ele>
      </trkpt>
      <trkpt lat="36.32218" lon="29.28366">
        <ele>4.4</ele>
      </trkpt>
      <trkpt lat="36.32289" lon="29.28365">
        <ele>3.7</ele>
      </trkpt>
      <trkpt lat="36.32371" lon="29.28354">
        <ele>4</ele>
      </trkpt>
      <trkpt lat="36.32369" lon="29.28417">
        <ele>4.4</ele>
      </trkpt>
      <trkpt lat="36.32616" lon="29.28485">
        <ele>4.9</ele>
      </trkpt>
      <trkpt lat="36.32731" lon="29.28556">
        <ele>6.1</ele>
      </trkpt>
      <trkpt lat="36.32756" lon="29.28547">
        <ele>6</ele>
      </trkpt>
      <trkpt lat="36.32863" lon="29.28469">
        <ele>5.6</ele>
      </trkpt>
      <trkpt lat="36.32883" lon="29.28454">
        <ele>5.5</ele>
      </trkpt>
      <trkpt lat="36.3289" lon="29.28466">
        <ele>5.6</ele>
      </trkpt>
      <trkpt lat="36.32872" lon="29.28622">
        <ele>5.7</ele>
      </trkpt>
      <trkpt lat="36.32879" lon="29.2865">
        <ele>6.2</ele>
      </trkpt>
      <trkpt lat="36.32925" lon="29.28684">
        <ele>6.4</ele>
      </trkpt>
      <trkpt lat="36.32935" lon="29.28702">
        <ele>5.9</ele>
      </trkpt>
      <trkpt lat="36.33021" lon="29.28744">
        <ele>5.2</ele>
      </trkpt>
      <trkpt lat="36.33044" lon="29.28762">
        <ele>5.5</ele>
      </trkpt>
      <trkpt lat="36.33054" lon="29.28772">
        <ele>5.6</ele>
      </trkpt>
      <trkpt lat="36.33101" lon="29.28797">
        <ele>6</ele>
      </trkpt>
      <trkpt lat="36.33204" lon="29.28883">
        <ele>7.7</ele>
      </trkpt>
      <trkpt lat="36.33232" lon="29.28899">
        <ele>7.7</ele>
      </trkpt>
      <trkpt lat="36.33243" lon="29.28906">
        <ele>7.8</ele>
      </trkpt>
      <trkpt lat="36.33291" lon="29.28923">
        <ele>7.5</ele>
      </trkpt>
      <trkpt lat="36.33296" lon="29.28995">
        <ele>7.4</ele>
      </trkpt>
      <trkpt lat="36.33336" lon="29.29077">
        <ele>8.8</ele>
      </trkpt>
      <trkpt lat="36.33359" lon="29.29158">
        <ele>8.1</ele>
      </trkpt>
      <trkpt lat="36.33365" lon="29.29323">
        <ele>9.2</ele>
      </trkpt>
      <trkpt lat="36.33408" lon="29.29338">
        <ele>8.2</ele>
      </trkpt>
      <trkpt lat="36.33479" lon="29.29349">
        <ele>6.5</ele>
      </trkpt>
      <trkpt lat="36.33562" lon="29.29365">
        <ele>7.8</ele>
      </trkpt>
      <trkpt lat="36.33603" lon="29.29386">
        <ele>8.6</ele>
      </trkpt>
      <trkpt lat="36.33607" lon="29.29412">
        <ele>8.9</ele>
      </trkpt>
      <trkpt lat="36.33609" lon="29.2944">
        <ele>8.9</ele>
      </trkpt>
      <trkpt lat="36.3364" lon="29.2946">
        <ele>9.2</ele>
      </trkpt>
      <trkpt lat="36.33697" lon="29.2948">
        <ele>9.5</ele>
      </trkpt>
      <trkpt lat="36.3375" lon="29.29495">
        <ele>9</ele>
      </trkpt>
      <trkpt lat="36.33722" lon="29.29584">
        <ele>8.3</ele>
      </trkpt>
      <trkpt lat="36.33702" lon="29.29682">
        <ele>9.7</ele>
      </trkpt>
      <trkpt lat="36.33689" lon="29.29712">
        <ele>9.9</ele>
      </trkpt>
      <trkpt lat="36.33652" lon="29.29777">
        <ele>10.1</ele>
      </trkpt>
      <trkpt lat="36.33628" lon="29.29835">
        <ele>10</ele>
      </trkpt>
      <trkpt lat="36.3362" lon="29.29907">
        <ele>11.4</ele>
      </trkpt>
      <trkpt lat="36.33618" lon="29.29947">
        <ele>11.2</ele>
      </trkpt>
      <trkpt lat="36.33625" lon="29.3001">
        <ele>10.6</ele>
      </trkpt>
      <trkpt lat="36.33619" lon="29.30061">
        <ele>11.3</ele>
      </trkpt>
      <trkpt lat="36.33623" lon="29.30078">
        <ele>11.5</ele>
      </trkpt>
      <trkpt lat="36.33636" lon="29.30136">
        <ele>11.4</ele>
      </trkpt>
      <trkpt lat="36.33643" lon="29.30204">
        <ele>11.6</ele>
      </trkpt>
      <trkpt lat="36.33661" lon="29.30286">
        <ele>12.4</ele>
      </trkpt>
      <trkpt lat="36.33663" lon="29.30364">
        <ele>13</ele>
      </trkpt>
      <trkpt lat="36.33675" lon="29.30453">
        <ele>13</ele>
      </trkpt>
      <trkpt lat="36.33679" lon="29.30483">
        <ele>13.1</ele>
      </trkpt>
      <trkpt lat="36.33689" lon="29.30543">
        <ele>13.3</ele>
      </trkpt>
      <trkpt lat="36.33713" lon="29.30613">
        <ele>13.7</ele>
      </trkpt>
      <trkpt lat="36.33745" lon="29.30714">
        <ele>13.4</ele>
      </trkpt>
      <trkpt lat="36.33807" lon="29.30837">
        <ele>14.7</ele>
      </trkpt>
      <trkpt lat="36.33835" lon="29.30902">
        <ele>16.7</ele>
      </trkpt>
      <trkpt lat="36.33871" lon="29.30958">
        <ele>17</ele>
      </trkpt>
      <trkpt lat="36.33948" lon="29.31068">
        <ele>16</ele>
      </trkpt>
      <trkpt lat="36.33985" lon="29.3113">
        <ele>14.2</ele>
      </trkpt>
      <trkpt lat="36.34001" lon="29.31132">
        <ele>14.3</ele>
      </trkpt>
      <trkpt lat="36.3403" lon="29.31131">
        <ele>15</ele>
      </trkpt>
      <trkpt lat="36.34156" lon="29.31138">
        <ele>18.9</ele>
      </trkpt>
      <trkpt lat="36.34175" lon="29.31134">
        <ele>20.4</ele>
      </trkpt>
      <trkpt lat="36.34226" lon="29.31106">
        <ele>25</ele>
      </trkpt>
      <trkpt lat="36.3424" lon="29.31103">
        <ele>25.3</ele>
      </trkpt>
      <trkpt lat="36.34268" lon="29.3111">
        <ele>25.2</ele>
      </trkpt>
      <trkpt lat="36.34312" lon="29.31131">
        <ele>23.8</ele>
      </trkpt>
      <trkpt lat="36.34349" lon="29.31152">
        <ele>21.5</ele>
      </trkpt>
      <trkpt lat="36.34379" lon="29.31164">
        <ele>20.7</ele>
      </trkpt>
      <trkpt lat="36.34411" lon="29.31171">
        <ele>21.2</ele>
      </trkpt>
      <trkpt lat="36.34473" lon="29.31161">
        <ele>21.4</ele>
      </trkpt>
      <trkpt lat="36.34523" lon="29.31143">
        <ele>21.2</ele>
      </trkpt>
      <trkpt lat="36.3454" lon="29.31149">
        <ele>20</ele>
      </trkpt>
      <trkpt lat="36.34549" lon="29.31185">
        <ele>17.8</ele>
      </trkpt>
      <trkpt lat="36.34557" lon="29.3124">
        <ele>16.6</ele>
      </trkpt>
      <trkpt lat="36.34589" lon="29.31334">
        <ele>14</ele>
      </trkpt>
      <trkpt lat="36.34639" lon="29.31408">
        <ele>14.6</ele>
      </trkpt>
      <trkpt lat="36.34705" lon="29.31472">
        <ele>14.8</ele>
      </trkpt>
      <trkpt lat="36.34949" lon="29.31688">
        <ele>15.5</ele>
      </trkpt>
      <trkpt lat="36.35081" lon="29.31709">
        <ele>18</ele>
      </trkpt>
      <trkpt lat="36.3517" lon="29.31703">
        <ele>17.2</ele>
      </trkpt>
      <trkpt lat="36.35245" lon="29.31666">
        <ele>18.9</ele>
      </trkpt>
      <trkpt lat="36.35418" lon="29.31512">
        <ele>19</ele>
      </trkpt>
      <trkpt lat="36.35474" lon="29.31504">
        <ele>20.3</ele>
      </trkpt>
      <trkpt lat="36.35493" lon="29.31496">
        <ele>21.1</ele>
      </trkpt>
      <trkpt lat="36.3552" lon="29.3148">
        <ele>22.8</ele>
      </trkpt>
      <trkpt lat="36.35564" lon="29.3144">
        <ele>27.2</ele>
      </trkpt>
      <trkpt lat="36.35577" lon="29.31434">
        <ele>28.2</ele>
      </trkpt>
      <trkpt lat="36.35591" lon="29.31431">
        <ele>29.1</ele>
      </trkpt>
      <trkpt lat="36.35602" lon="29.31438">
        <ele>28.9</ele>
      </trkpt>
      <trkpt lat="36.35567" lon="29.31542">
        <ele>21</ele>
      </trkpt>
      <trkpt lat="36.35529" lon="29.31638">
        <ele>23.5</ele>
      </trkpt>
      <trkpt lat="36.3551" lon="29.31697">
        <ele>25.6</ele>
      </trkpt>
      <trkpt lat="36.3549" lon="29.31744">
        <ele>25.9</ele>
      </trkpt>
      <trkpt lat="36.35448" lon="29.31809">
        <ele>22.8</ele>
      </trkpt>
      <trkpt lat="36.35447" lon="29.3182">
        <ele>22.7</ele>
      </trkpt>
      <trkpt lat="36.3545" lon="29.31904">
        <ele>22.5</ele>
      </trkpt>
      <trkpt lat="36.3544" lon="29.31947">
        <ele>23.1</ele>
      </trkpt>
      <trkpt lat="36.35423" lon="29.31992">
        <ele>22.9</ele>
      </trkpt>
      <trkpt lat="36.3542" lon="29.32023">
        <ele>24.6</ele>
      </trkpt>
      <trkpt lat="36.35469" lon="29.31978">
        <ele>30.6</ele>
      </trkpt>
      <trkpt lat="36.35499" lon="29.31959">
        <ele>34</ele>
      </trkpt>
      <trkpt lat="36.35516" lon="29.31949">
        <ele>35</ele>
      </trkpt>
      <trkpt lat="36.35591" lon="29.3191">
        <ele>44.6</ele>
      </trkpt>
      <trkpt lat="36.35601" lon="29.31902">
        <ele>46.3</ele>
      </trkpt>
      <trkpt lat="36.3562" lon="29.31884">
        <ele>49.2</ele>
      </trkpt>
      <trkpt lat="36.35632" lon="29.31878">
        <ele>50.5</ele>
      </trkpt>
      <trkpt lat="36.35647" lon="29.31874">
        <ele>51.8</ele>
      </trkpt>
      <trkpt lat="36.35669" lon="29.31873">
        <ele>53.8</ele>
      </trkpt>
      <trkpt lat="36.35685" lon="29.31879">
        <ele>55.7</ele>
      </trkpt>
      <trkpt lat="36.35708" lon="29.31886">
        <ele>59</ele>
      </trkpt>
      <trkpt lat="36.35724" lon="29.31885">
        <ele>60.9</ele>
      </trkpt>
      <trkpt lat="36.35741" lon="29.3188">
        <ele>62.6</ele>
      </trkpt>
      <trkpt lat="36.35788" lon="29.31862">
        <ele>67.3</ele>
      </trkpt>
      <trkpt lat="36.35809" lon="29.3185">
        <ele>68.1</ele>
      </trkpt>
      <trkpt lat="36.35836" lon="29.31834">
        <ele>67.6</ele>
      </trkpt>
      <trkpt lat="36.35866" lon="29.31815">
        <ele>65.4</ele>
      </trkpt>
      <trkpt lat="36.3589" lon="29.31806">
        <ele>65.3</ele>
      </trkpt>
      <trkpt lat="36.35899" lon="29.31803">
        <ele>65.3</ele>
      </trkpt>
      <trkpt lat="36.35916" lon="29.3179">
        <ele>62.1</ele>
      </trkpt>
      <trkpt lat="36.35932" lon="29.31785">
        <ele>61.4</ele>
      </trkpt>
      <trkpt lat="36.35982" lon="29.31772">
        <ele>61.7</ele>
      </trkpt>
      <trkpt lat="36.36013" lon="29.31768">
        <ele>62.8</ele>
      </trkpt>
      <trkpt lat="36.36024" lon="29.31768">
        <ele>63</ele>
      </trkpt>
      <trkpt lat="36.36077" lon="29.3177">
        <ele>64</ele>
      </trkpt>
      <trkpt lat="36.36102" lon="29.31773">
        <ele>62.9</ele>
      </trkpt>
      <trkpt lat="36.36119" lon="29.3178">
        <ele>62.6</ele>
      </trkpt>
      <trkpt lat="36.36135" lon="29.31806">
        <ele>66.2</ele>
      </trkpt>
      <trkpt lat="36.36157" lon="29.31856">
        <ele>72.4</ele>
      </trkpt>
      <trkpt lat="36.36176" lon="29.31913">
        <ele>75</ele>
      </trkpt>
      <trkpt lat="36.3618" lon="29.31933">
        <ele>75.2</ele>
      </trkpt>
      <trkpt lat="36.36181" lon="29.31974">
        <ele>76.3</ele>
      </trkpt>
      <trkpt lat="36.36185" lon="29.32002">
        <ele>76.7</ele>
      </trkpt>
      <trkpt lat="36.3619" lon="29.32028">
        <ele>76.8</ele>
      </trkpt>
      <trkpt lat="36.36193" lon="29.32042">
        <ele>77</ele>
      </trkpt>
      <trkpt lat="36.36195" lon="29.32054">
        <ele>77.2</ele>
      </trkpt>
      <trkpt lat="36.36192" lon="29.32074">
        <ele>78.1</ele>
      </trkpt>
      <trkpt lat="36.36189" lon="29.32092">
        <ele>78.4</ele>
      </trkpt>
      <trkpt lat="36.3617" lon="29.32138">
        <ele>78.5</ele>
      </trkpt>
      <trkpt lat="36.36141" lon="29.32195">
        <ele>78.5</ele>
      </trkpt>
      <trkpt lat="36.36119" lon="29.32247">
        <ele>78.4</ele>
      </trkpt>
      <trkpt lat="36.36117" lon="29.32253">
        <ele>78.4</ele>
      </trkpt>
      <trkpt lat="36.36097" lon="29.32308">
        <ele>79</ele>
      </trkpt>
      <trkpt lat="36.3608" lon="29.32374">
        <ele>80.5</ele>
      </trkpt>
      <trkpt lat="36.36077" lon="29.32385">
        <ele>80.8</ele>
      </trkpt>
      <trkpt lat="36.3607" lon="29.32411">
        <ele>81.7</ele>
      </trkpt>
      <trkpt lat="36.36061" lon="29.32469">
        <ele>83</ele>
      </trkpt>
      <trkpt lat="36.36058" lon="29.32496">
        <ele>83.8</ele>
      </trkpt>
      <trkpt lat="36.36056" lon="29.32558">
        <ele>85.1</ele>
      </trkpt>
      <trkpt lat="36.36052" lon="29.32625">
        <ele>85.6</ele>
      </trkpt>
      <trkpt lat="36.36049" lon="29.32703">
        <ele>84.4</ele>
      </trkpt>
      <trkpt lat="36.3604" lon="29.32804">
        <ele>82.2</ele>
      </trkpt>
      <trkpt lat="36.36035" lon="29.32849">
        <ele>81.1</ele>
      </trkpt>
      <trkpt lat="36.36033" lon="29.32881">
        <ele>80.4</ele>
      </trkpt>
      <trkpt lat="36.36035" lon="29.32903">
        <ele>80</ele>
      </trkpt>
      <trkpt lat="36.36042" lon="29.32924">
        <ele>79.6</ele>
      </trkpt>
      <trkpt lat="36.36053" lon="29.32956">
        <ele>77.8</ele>
      </trkpt>
      <trkpt lat="36.36067" lon="29.33016">
        <ele>72</ele>
      </trkpt>
      <trkpt lat="36.36071" lon="29.33032">
        <ele>70.4</ele>
      </trkpt>
      <trkpt lat="36.36075" lon="29.33056">
        <ele>68.1</ele>
      </trkpt>
      <trkpt lat="36.36072" lon="29.33074">
        <ele>66.8</ele>
      </trkpt>
      <trkpt lat="36.36067" lon="29.33088">
        <ele>66.4</ele>
      </trkpt>
      <trkpt lat="36.36054" lon="29.33107">
        <ele>67</ele>
      </trkpt>
      <trkpt lat="36.36043" lon="29.33131">
        <ele>67.1</ele>
      </trkpt>
      <trkpt lat="36.36022" lon="29.33171">
        <ele>68</ele>
      </trkpt>
      <trkpt lat="36.36003" lon="29.33218">
        <ele>71</ele>
      </trkpt>
      <trkpt lat="36.3599" lon="29.33243">
        <ele>72.1</ele>
      </trkpt>
      <trkpt lat="36.35967" lon="29.33393">
        <ele>75.6</ele>
      </trkpt>
      <trkpt lat="36.35954" lon="29.33478">
        <ele>76.3</ele>
      </trkpt>
      <trkpt lat="36.3594" lon="29.33591">
        <ele>77.3</ele>
      </trkpt>
      <trkpt lat="36.35936" lon="29.33621">
        <ele>76.4</ele>
      </trkpt>
      <trkpt lat="36.35915" lon="29.33781">
        <ele>76</ele>
      </trkpt>
      <trkpt lat="36.35872" lon="29.34068">
        <ele>79.9</ele>
      </trkpt>
      <trkpt lat="36.35825" lon="29.34375">
        <ele>80.3</ele>
      </trkpt>
      <trkpt lat="36.35818" lon="29.34522">
        <ele>77</ele>
      </trkpt>
      <trkpt lat="36.35846" lon="29.34632">
        <ele>79.1</ele>
      </trkpt>
      <trkpt lat="36.35908" lon="29.34815">
        <ele>83.4</ele>
      </trkpt>
      <trkpt lat="36.35957" lon="29.34958">
        <ele>83.1</ele>
      </trkpt>
      <trkpt lat="36.36012" lon="29.35029">
        <ele>85.8</ele>
      </trkpt>
      <trkpt lat="36.36219" lon="29.35145">
        <ele>97.2</ele>
      </trkpt>
      <trkpt lat="36.36309" lon="29.3522">
        <ele>101.3</ele>
      </trkpt>
      <trkpt lat="36.36372" lon="29.35274">
        <ele>106.4</ele>
      </trkpt>
      <trkpt lat="36.36355" lon="29.35293">
        <ele>105.8</ele>
      </trkpt>
      <trkpt lat="36.3632" lon="29.35307">
        <ele>105.1</ele>
      </trkpt>
      <trkpt lat="36.36305" lon="29.35352">
        <ele>107.3</ele>
      </trkpt>
      <trkpt lat="36.36255" lon="29.35419">
        <ele>110.2</ele>
      </trkpt>
      <trkpt lat="36.36227" lon="29.35485">
        <ele>113.8</ele>
      </trkpt>
      <trkpt lat="36.36208" lon="29.35536">
        <ele>117.2</ele>
      </trkpt>
      <trkpt lat="36.36136" lon="29.35583">
        <ele>119.4</ele>
      </trkpt>
      <trkpt lat="36.36103" lon="29.35642">
        <ele>122.2</ele>
      </trkpt>
      <trkpt lat="36.36071" lon="29.35676">
        <ele>123.2</ele>
      </trkpt>
      <trkpt lat="36.36045" lon="29.35701">
        <ele>124.4</ele>
      </trkpt>
      <trkpt lat="36.3602" lon="29.35709">
        <ele>123.7</ele>
      </trkpt>
      <trkpt lat="36.35962" lon="29.35716">
        <ele>122.9</ele>
      </trkpt>
      <trkpt lat="36.35944" lon="29.35724">
        <ele>123.7</ele>
      </trkpt>
      <trkpt lat="36.35851" lon="29.35752">
        <ele>121.3</ele>
      </trkpt>
      <trkpt lat="36.35831" lon="29.35769">
        <ele>120.4</ele>
      </trkpt>
      <trkpt lat="36.35784" lon="29.35787">
        <ele>117.4</ele>
      </trkpt>
      <trkpt lat="36.35701" lon="29.35811">
        <ele>116</ele>
      </trkpt>
      <trkpt lat="36.35678" lon="29.35848">
        <ele>118.9</ele>
      </trkpt>
      <trkpt lat="36.35672" lon="29.35875">
        <ele>122</ele>
      </trkpt>
      <trkpt lat="36.35654" lon="29.35889">
        <ele>122.6</ele>
      </trkpt>
      <trkpt lat="36.35666" lon="29.35965">
        <ele>135</ele>
      </trkpt>
      <trkpt lat="36.35605" lon="29.35989">
        <ele>134.7</ele>
      </trkpt>
      <trkpt lat="36.35581" lon="29.36021">
        <ele>138.3</ele>
      </trkpt>
      <trkpt lat="36.3553" lon="29.36112">
        <ele>138.9</ele>
      </trkpt>
      <trkpt lat="36.35483" lon="29.3624">
        <ele>143.6</ele>
      </trkpt>
      <trkpt lat="36.35394" lon="29.36454">
        <ele>142.1</ele>
      </trkpt>
      <trkpt lat="36.35408" lon="29.36531">
        <ele>154.1</ele>
      </trkpt>
      <trkpt lat="36.35442" lon="29.36609">
        <ele>163.9</ele>
      </trkpt>
      <trkpt lat="36.35418" lon="29.36789">
        <ele>166.5</ele>
      </trkpt>
      <trkpt lat="36.3537" lon="29.36888">
        <ele>163.1</ele>
      </trkpt>
      <trkpt lat="36.35173" lon="29.36973">
        <ele>158.1</ele>
      </trkpt>
      <trkpt lat="36.35099" lon="29.37128">
        <ele>164.2</ele>
      </trkpt>
      <trkpt lat="36.35099" lon="29.37354">
        <ele>174</ele>
      </trkpt>
      <trkpt lat="36.3511" lon="29.37371">
        <ele>183.3</ele>
      </trkpt>
      <trkpt lat="36.35085" lon="29.37406">
        <ele>179.8</ele>
      </trkpt>
      <trkpt lat="36.35055" lon="29.37428">
        <ele>174.6</ele>
      </trkpt>
      <trkpt lat="36.34973" lon="29.37639">
        <ele>178.4</ele>
      </trkpt>
      <trkpt lat="36.34976" lon="29.37811">
        <ele>185.9</ele>
      </trkpt>
      <trkpt lat="36.35016" lon="29.37898">
        <ele>207</ele>
      </trkpt>
      <trkpt lat="36.34962" lon="29.37911">
        <ele>184.2</ele>
      </trkpt>
      <trkpt lat="36.3492" lon="29.37953">
        <ele>181</ele>
      </trkpt>
      <trkpt lat="36.34894" lon="29.37991">
        <ele>183.8</ele>
      </trkpt>
      <trkpt lat="36.34889" lon="29.38055">
        <ele>191</ele>
      </trkpt>
      <trkpt lat="36.34869" lon="29.38319">
        <ele>198.5</ele>
      </trkpt>
      <trkpt lat="36.34855" lon="29.38454">
        <ele>200.5</ele>
      </trkpt>
      <trkpt lat="36.34846" lon="29.38484">
        <ele>200.2</ele>
      </trkpt>
      <trkpt lat="36.34823" lon="29.38516">
        <ele>198.5</ele>
      </trkpt>
      <trkpt lat="36.34814" lon="29.38491">
        <ele>195.1</ele>
      </trkpt>
      <trkpt lat="36.34771" lon="29.38541">
        <ele>195.3</ele>
      </trkpt>
      <trkpt lat="36.34748" lon="29.38581">
        <ele>196.6</ele>
      </trkpt>
      <trkpt lat="36.34663" lon="29.38664">
        <ele>195.4</ele>
      </trkpt>
      <trkpt lat="36.34647" lon="29.38699">
        <ele>196.4</ele>
      </trkpt>
      <trkpt lat="36.34632" lon="29.38745">
        <ele>198</ele>
      </trkpt>
      <trkpt lat="36.34612" lon="29.38781">
        <ele>198.1</ele>
      </trkpt>
      <trkpt lat="36.34605" lon="29.38833">
        <ele>201.1</ele>
      </trkpt>
      <trkpt lat="36.3459" lon="29.38879">
        <ele>200.1</ele>
      </trkpt>
      <trkpt lat="36.34589" lon="29.38976">
        <ele>202.2</ele>
      </trkpt>
      <trkpt lat="36.34585" lon="29.39022">
        <ele>201.4</ele>
      </trkpt>
      <trkpt lat="36.34606" lon="29.39058">
        <ele>203</ele>
      </trkpt>
      <trkpt lat="36.34607" lon="29.39074">
        <ele>202.7</ele>
      </trkpt>
      <trkpt lat="36.34626" lon="29.39095">
        <ele>204.8</ele>
      </trkpt>
      <trkpt lat="36.34647" lon="29.39104">
        <ele>207.9</ele>
      </trkpt>
      <trkpt lat="36.34675" lon="29.39099">
        <ele>212.8</ele>
      </trkpt>
      <trkpt lat="36.34691" lon="29.39133">
        <ele>217.1</ele>
      </trkpt>
      <trkpt lat="36.34646" lon="29.39248">
        <ele>214.7</ele>
      </trkpt>
      <trkpt lat="36.34621" lon="29.39306">
        <ele>214.5</ele>
      </trkpt>
      <trkpt lat="36.34587" lon="29.39359">
        <ele>205.4</ele>
      </trkpt>
      <trkpt lat="36.34576" lon="29.3939">
        <ele>206.4</ele>
      </trkpt>
      <trkpt lat="36.34576" lon="29.39424">
        <ele>212.2</ele>
      </trkpt>
      <trkpt lat="36.34581" lon="29.39458">
        <ele>222.9</ele>
      </trkpt>
      <trkpt lat="36.34555" lon="29.39465">
        <ele>219.5</ele>
      </trkpt>
      <trkpt lat="36.34476" lon="29.39477">
        <ele>206.9</ele>
      </trkpt>
      <trkpt lat="36.3445" lon="29.39489">
        <ele>204.9</ele>
      </trkpt>
      <trkpt lat="36.34428" lon="29.39507">
        <ele>205.4</ele>
      </trkpt>
      <trkpt lat="36.34346" lon="29.39599">
        <ele>213.9</ele>
      </trkpt>
      <trkpt lat="36.34327" lon="29.39622">
        <ele>216.3</ele>
      </trkpt>
      <trkpt lat="36.34247" lon="29.39704">
        <ele>219.6</ele>
      </trkpt>
      <trkpt lat="36.34231" lon="29.39731">
        <ele>223.3</ele>
      </trkpt>
      <trkpt lat="36.34208" lon="29.39746">
        <ele>222.3</ele>
      </trkpt>
      <trkpt lat="36.34195" lon="29.39773">
        <ele>224.2</ele>
      </trkpt>
      <trkpt lat="36.34177" lon="29.39799">
        <ele>223.7</ele>
      </trkpt>
      <trkpt lat="36.34175" lon="29.39832">
        <ele>227.6</ele>
      </trkpt>
      <trkpt lat="36.34175" lon="29.39865">
        <ele>236.1</ele>
      </trkpt>
      <trkpt lat="36.34184" lon="29.39897">
        <ele>246.2</ele>
      </trkpt>
      <trkpt lat="36.34231" lon="29.39941">
        <ele>258.1</ele>
      </trkpt>
      <trkpt lat="36.34235" lon="29.39987">
        <ele>255</ele>
      </trkpt>
      <trkpt lat="36.34252" lon="29.40046">
        <ele>255.5</ele>
      </trkpt>
      <trkpt lat="36.34277" lon="29.40063">
        <ele>265.9</ele>
      </trkpt>
      <trkpt lat="36.34281" lon="29.401">
        <ele>268.8</ele>
      </trkpt>
      <trkpt lat="36.34258" lon="29.40103">
        <ele>264.9</ele>
      </trkpt>
      <trkpt lat="36.34222" lon="29.40093">
        <ele>272.9</ele>
      </trkpt>
      <trkpt lat="36.34202" lon="29.4004">
        <ele>268.1</ele>
      </trkpt>
      <trkpt lat="36.34176" lon="29.40007">
        <ele>264.1</ele>
      </trkpt>
      <trkpt lat="36.34153" lon="29.39965">
        <ele>261</ele>
      </trkpt>
      <trkpt lat="36.34111" lon="29.3995">
        <ele>269.7</ele>
      </trkpt>
      <trkpt lat="36.34059" lon="29.39941">
        <ele>282.9</ele>
      </trkpt>
      <trkpt lat="36.34039" lon="29.39954">
        <ele>294.4</ele>
      </trkpt>
      <trkpt lat="36.34052" lon="29.39983">
        <ele>299.4</ele>
      </trkpt>
      <trkpt lat="36.34042" lon="29.4001">
        <ele>312.3</ele>
      </trkpt>
      <trkpt lat="36.33991" lon="29.39999">
        <ele>326.2</ele>
      </trkpt>
      <trkpt lat="36.33964" lon="29.39998">
        <ele>334</ele>
      </trkpt>
      <trkpt lat="36.33911" lon="29.39977">
        <ele>344.8</ele>
      </trkpt>
      <trkpt lat="36.33845" lon="29.39918">
        <ele>348.6</ele>
      </trkpt>
      <trkpt lat="36.33821" lon="29.39903">
        <ele>348</ele>
      </trkpt>
      <trkpt lat="36.3377" lon="29.39924">
        <ele>352.8</ele>
      </trkpt>
      <trkpt lat="36.33749" lon="29.39941">
        <ele>355.3</ele>
      </trkpt>
      <trkpt lat="36.33695" lon="29.3994">
        <ele>349.6</ele>
      </trkpt>
      <trkpt lat="36.33615" lon="29.39945">
        <ele>335.2</ele>
      </trkpt>
      <trkpt lat="36.33588" lon="29.3994">
        <ele>327.5</ele>
      </trkpt>
      <trkpt lat="36.33508" lon="29.39925">
        <ele>308.2</ele>
      </trkpt>
      <trkpt lat="36.33464" lon="29.3989">
        <ele>294.7</ele>
      </trkpt>
      <trkpt lat="36.33438" lon="29.39882">
        <ele>288.5</ele>
      </trkpt>
      <trkpt lat="36.33421" lon="29.39908">
        <ele>288</ele>
      </trkpt>
      <trkpt lat="36.33418" lon="29.39937">
        <ele>289.8</ele>
      </trkpt>
      <trkpt lat="36.33419" lon="29.39968">
        <ele>292.4</ele>
      </trkpt>
      <trkpt lat="36.33422" lon="29.40003">
        <ele>296.4</ele>
      </trkpt>
      <trkpt lat="36.33395" lon="29.40068">
        <ele>302.1</ele>
      </trkpt>
      <trkpt lat="36.33369" lon="29.40069">
        <ele>293.6</ele>
      </trkpt>
      <trkpt lat="36.33345" lon="29.40084">
        <ele>289</ele>
      </trkpt>
      <trkpt lat="36.3331" lon="29.40136">
        <ele>297</ele>
      </trkpt>
      <trkpt lat="36.33286" lon="29.40151">
        <ele>296.3</ele>
      </trkpt>
      <trkpt lat="36.33225" lon="29.40195">
        <ele>308.8</ele>
      </trkpt>
      <trkpt lat="36.33184" lon="29.40242">
        <ele>330.3</ele>
      </trkpt>
      <trkpt lat="36.33158" lon="29.40253">
        <ele>334.8</ele>
      </trkpt>
      <trkpt lat="36.33131" lon="29.40257">
        <ele>339.6</ele>
      </trkpt>
      <trkpt lat="36.33104" lon="29.40251">
        <ele>339.4</ele>
      </trkpt>
      <trkpt lat="36.33077" lon="29.40253">
        <ele>343.4</ele>
      </trkpt>
      <trkpt lat="36.3305" lon="29.40263">
        <ele>351.1</ele>
      </trkpt>
      <trkpt lat="36.33029" lon="29.40241">
        <ele>345.4</ele>
      </trkpt>
      <trkpt lat="36.33004" lon="29.40228">
        <ele>344.2</ele>
      </trkpt>
      <trkpt lat="36.32928" lon="29.40263">
        <ele>359</ele>
      </trkpt>
      <trkpt lat="36.32878" lon="29.40254">
        <ele>351.5</ele>
      </trkpt>
      <trkpt lat="36.32792" lon="29.40258">
        <ele>341.8</ele>
      </trkpt>
      <trkpt lat="36.32765" lon="29.40264">
        <ele>339.6</ele>
      </trkpt>
      <trkpt lat="36.3274" lon="29.40277">
        <ele>340.2</ele>
      </trkpt>
      <trkpt lat="36.32686" lon="29.40282">
        <ele>335.2</ele>
      </trkpt>
      <trkpt lat="36.32659" lon="29.40291">
        <ele>334.7</ele>
      </trkpt>
      <trkpt lat="36.32635" lon="29.40307">
        <ele>337</ele>
      </trkpt>
      <trkpt lat="36.32617" lon="29.40307">
        <ele>335.5</ele>
      </trkpt>
      <trkpt lat="36.32564" lon="29.40308">
        <ele>331.9</ele>
      </trkpt>
      <trkpt lat="36.32528" lon="29.4033">
        <ele>334.3</ele>
      </trkpt>
      <trkpt lat="36.325" lon="29.4034">
        <ele>334.7</ele>
      </trkpt>
      <trkpt lat="36.32475" lon="29.40352">
        <ele>335.7</ele>
      </trkpt>
      <trkpt lat="36.32456" lon="29.40371">
        <ele>338.7</ele>
      </trkpt>
      <trkpt lat="36.32432" lon="29.40391">
        <ele>341.2</ele>
      </trkpt>
      <trkpt lat="36.32413" lon="29.40415">
        <ele>345.3</ele>
      </trkpt>
      <trkpt lat="36.32391" lon="29.40436">
        <ele>349.1</ele>
      </trkpt>
      <trkpt lat="36.32335" lon="29.40466">
        <ele>351.7</ele>
      </trkpt>
      <trkpt lat="36.32314" lon="29.40475">
        <ele>353.2</ele>
      </trkpt>
      <trkpt lat="36.32266" lon="29.40499">
        <ele>357</ele>
      </trkpt>
      <trkpt lat="36.32242" lon="29.40506">
        <ele>357.7</ele>
      </trkpt>
      <trkpt lat="36.32195" lon="29.40518">
        <ele>361.1</ele>
      </trkpt>
      <trkpt lat="36.32166" lon="29.40501">
        <ele>358.2</ele>
      </trkpt>
      <trkpt lat="36.3214" lon="29.40503">
        <ele>358.9</ele>
      </trkpt>
      <trkpt lat="36.32112" lon="29.40467">
        <ele>352.8</ele>
      </trkpt>
      <trkpt lat="36.32084" lon="29.40467">
        <ele>353.5</ele>
      </trkpt>
      <trkpt lat="36.32056" lon="29.40463">
        <ele>352.7</ele>
      </trkpt>
      <trkpt lat="36.32026" lon="29.40462">
        <ele>352.5</ele>
      </trkpt>
      <trkpt lat="36.32002" lon="29.40458">
        <ele>352</ele>
      </trkpt>
      <trkpt lat="36.31982" lon="29.4043">
        <ele>348.3</ele>
      </trkpt>
      <trkpt lat="36.31962" lon="29.40408">
        <ele>345.3</ele>
      </trkpt>
      <trkpt lat="36.31926" lon="29.40392">
        <ele>342.5</ele>
      </trkpt>
      <trkpt lat="36.31918" lon="29.40382">
        <ele>340.8</ele>
      </trkpt>
      <trkpt lat="36.31908" lon="29.40331">
        <ele>334.7</ele>
      </trkpt>
      <trkpt lat="36.31896" lon="29.40305">
        <ele>332.9</ele>
      </trkpt>
      <trkpt lat="36.31871" lon="29.40275">
        <ele>330.5</ele>
      </trkpt>
      <trkpt lat="36.31867" lon="29.40256">
        <ele>329.2</ele>
      </trkpt>
      <trkpt lat="36.31867" lon="29.40219">
        <ele>325.3</ele>
      </trkpt>
      <trkpt lat="36.31858" lon="29.40174">
        <ele>320.2</ele>
      </trkpt>
      <trkpt lat="36.31834" lon="29.40109">
        <ele>314.1</ele>
      </trkpt>
      <trkpt lat="36.31833" lon="29.40087">
        <ele>312.3</ele>
      </trkpt>
      <trkpt lat="36.31826" lon="29.40069">
        <ele>310.1</ele>
      </trkpt>
      <trkpt lat="36.31814" lon="29.40059">
        <ele>308.3</ele>
      </trkpt>
      <trkpt lat="36.31807" lon="29.40075">
        <ele>309.6</ele>
      </trkpt>
      <trkpt lat="36.31781" lon="29.40102">
        <ele>310.9</ele>
      </trkpt>
      <trkpt lat="36.31768" lon="29.40145">
        <ele>315.6</ele>
      </trkpt>
      <trkpt lat="36.31742" lon="29.40159">
        <ele>316.7</ele>
      </trkpt>
      <trkpt lat="36.31697" lon="29.402">
        <ele>319</ele>
      </trkpt>
      <trkpt lat="36.31677" lon="29.40235">
        <ele>321.2</ele>
      </trkpt>
      <trkpt lat="36.31634" lon="29.40273">
        <ele>321.5</ele>
      </trkpt>
      <trkpt lat="36.31594" lon="29.40325">
        <ele>324.7</ele>
      </trkpt>
      <trkpt lat="36.31543" lon="29.40363">
        <ele>332.1</ele>
      </trkpt>
      <trkpt lat="36.31458" lon="29.40373">
        <ele>338.3</ele>
      </trkpt>
      <trkpt lat="36.31398" lon="29.40375">
        <ele>343.4</ele>
      </trkpt>
      <trkpt lat="36.31346" lon="29.4038">
        <ele>348</ele>
      </trkpt>
      <trkpt lat="36.31295" lon="29.40368">
        <ele>348.6</ele>
      </trkpt>
      <trkpt lat="36.31258" lon="29.40371">
        <ele>354.1</ele>
      </trkpt>
      <trkpt lat="36.31174" lon="29.40399">
        <ele>365.6</ele>
      </trkpt>
      <trkpt lat="36.31121" lon="29.4042">
        <ele>373.8</ele>
      </trkpt>
      <trkpt lat="36.31076" lon="29.4045">
        <ele>381.5</ele>
      </trkpt>
      <trkpt lat="36.31029" lon="29.40485">
        <ele>386</ele>
      </trkpt>
      <trkpt lat="36.309" lon="29.40485">
        <ele>389.9</ele>
      </trkpt>
      <trkpt lat="36.30871" lon="29.40497">
        <ele>390.8</ele>
      </trkpt>
      <trkpt lat="36.3085" lon="29.40512">
        <ele>393.2</ele>
      </trkpt>
      <trkpt lat="36.30843" lon="29.40534">
        <ele>397.4</ele>
      </trkpt>
      <trkpt lat="36.30837" lon="29.40553">
        <ele>401.1</ele>
      </trkpt>
      <trkpt lat="36.30827" lon="29.40568">
        <ele>403.1</ele>
      </trkpt>
      <trkpt lat="36.3081" lon="29.40582">
        <ele>403.5</ele>
      </trkpt>
      <trkpt lat="36.30788" lon="29.40594">
        <ele>402.8</ele>
      </trkpt>
      <trkpt lat="36.30782" lon="29.40608">
        <ele>404.6</ele>
      </trkpt>
      <trkpt lat="36.30783" lon="29.40635">
        <ele>409.3</ele>
      </trkpt>
      <trkpt lat="36.30784" lon="29.40674">
        <ele>416.5</ele>
      </trkpt>
      <trkpt lat="36.30788" lon="29.40704">
        <ele>422</ele>
      </trkpt>
      <trkpt lat="36.30784" lon="29.40715">
        <ele>423.5</ele>
      </trkpt>
      <trkpt lat="36.30775" lon="29.40722">
        <ele>424.3</ele>
      </trkpt>
      <trkpt lat="36.30761" lon="29.40731">
        <ele>425.3</ele>
      </trkpt>
      <trkpt lat="36.3073" lon="29.40729">
        <ele>427.3</ele>
      </trkpt>
      <trkpt lat="36.30713" lon="29.40724">
        <ele>428.4</ele>
      </trkpt>
      <trkpt lat="36.30702" lon="29.40713">
        <ele>426.9</ele>
      </trkpt>
      <trkpt lat="36.30663" lon="29.407">
        <ele>427.4</ele>
      </trkpt>
      <trkpt lat="36.30647" lon="29.40682">
        <ele>422.8</ele>
      </trkpt>
      <trkpt lat="36.30593" lon="29.40659">
        <ele>419.1</ele>
      </trkpt>
      <trkpt lat="36.30564" lon="29.40658">
        <ele>417.1</ele>
      </trkpt>
      <trkpt lat="36.30514" lon="29.40663">
        <ele>412.3</ele>
      </trkpt>
      <trkpt lat="36.30494" lon="29.40676">
        <ele>411.7</ele>
      </trkpt>
      <trkpt lat="36.30467" lon="29.40686">
        <ele>409.4</ele>
      </trkpt>
      <trkpt lat="36.3045" lon="29.40695">
        <ele>408.7</ele>
      </trkpt>
      <trkpt lat="36.30434" lon="29.40696">
        <ele>406.7</ele>
      </trkpt>
      <trkpt lat="36.30424" lon="29.40708">
        <ele>407.8</ele>
      </trkpt>
      <trkpt lat="36.30392" lon="29.40717">
        <ele>403.9</ele>
      </trkpt>
      <trkpt lat="36.30379" lon="29.40721">
        <ele>402</ele>
      </trkpt>
      <trkpt lat="36.30338" lon="29.40764">
        <ele>402.2</ele>
      </trkpt>
      <trkpt lat="36.30266" lon="29.40807">
        <ele>404</ele>
      </trkpt>
      <trkpt lat="36.30224" lon="29.40837">
        <ele>407.2</ele>
      </trkpt>
      <trkpt lat="36.30179" lon="29.40857">
        <ele>407.6</ele>
      </trkpt>
      <trkpt lat="36.30111" lon="29.40899">
        <ele>409.6</ele>
      </trkpt>
      <trkpt lat="36.30088" lon="29.40897">
        <ele>404.2</ele>
      </trkpt>
      <trkpt lat="36.30073" lon="29.40912">
        <ele>405.9</ele>
      </trkpt>
      <trkpt lat="36.30067" lon="29.40934">
        <ele>408.7</ele>
      </trkpt>
      <trkpt lat="36.30057" lon="29.4099">
        <ele>414.9</ele>
      </trkpt>
      <trkpt lat="36.3005" lon="29.41004">
        <ele>414.7</ele>
      </trkpt>
      <trkpt lat="36.30027" lon="29.41">
        <ele>409.7</ele>
      </trkpt>
      <trkpt lat="36.30003" lon="29.4102">
        <ele>403.8</ele>
      </trkpt>
      <trkpt lat="36.30003" lon="29.41034">
        <ele>403</ele>
      </trkpt>
      <trkpt lat="36.30011" lon="29.41073">
        <ele>403</ele>
      </trkpt>
      <trkpt lat="36.30014" lon="29.41082">
        <ele>403.4</ele>
      </trkpt>
      <trkpt lat="36.30031" lon="29.41101">
        <ele>406.8</ele>
      </trkpt>
      <trkpt lat="36.30005" lon="29.41176">
        <ele>398.1</ele>
      </trkpt>
      <trkpt lat="36.29985" lon="29.41223">
        <ele>393.5</ele>
      </trkpt>
      <trkpt lat="36.29976" lon="29.4123">
        <ele>391.5</ele>
      </trkpt>
      <trkpt lat="36.29952" lon="29.41234">
        <ele>385.8</ele>
      </trkpt>
      <trkpt lat="36.29945" lon="29.4126">
        <ele>382.6</ele>
      </trkpt>
      <trkpt lat="36.29901" lon="29.4128">
        <ele>370.1</ele>
      </trkpt>
      <trkpt lat="36.29897" lon="29.41299">
        <ele>367.1</ele>
      </trkpt>
      <trkpt lat="36.29876" lon="29.41314">
        <ele>361.2</ele>
      </trkpt>
      <trkpt lat="36.29863" lon="29.41322">
        <ele>357.8</ele>
      </trkpt>
      <trkpt lat="36.2985" lon="29.41346">
        <ele>353.9</ele>
      </trkpt>
      <trkpt lat="36.29825" lon="29.41323">
        <ele>350.2</ele>
      </trkpt>
      <trkpt lat="36.29774" lon="29.41305">
        <ele>340</ele>
      </trkpt>
      <trkpt lat="36.29748" lon="29.41334">
        <ele>332.2</ele>
      </trkpt>
      <trkpt lat="36.29722" lon="29.41346">
        <ele>324.3</ele>
      </trkpt>
      <trkpt lat="36.29701" lon="29.41343">
        <ele>318.9</ele>
      </trkpt>
      <trkpt lat="36.29681" lon="29.41325">
        <ele>314.4</ele>
      </trkpt>
      <trkpt lat="36.29665" lon="29.41305">
        <ele>311.6</ele>
      </trkpt>
      <trkpt lat="36.29635" lon="29.41275">
        <ele>306.9</ele>
      </trkpt>
      <trkpt lat="36.29607" lon="29.41256">
        <ele>304.1</ele>
      </trkpt>
      <trkpt lat="36.29591" lon="29.41237">
        <ele>302.4</ele>
      </trkpt>
      <trkpt lat="36.29565" lon="29.41251">
        <ele>297.6</ele>
      </trkpt>
      <trkpt lat="36.29538" lon="29.41269">
        <ele>288.2</ele>
      </trkpt>
      <trkpt lat="36.29503" lon="29.41283">
        <ele>278.2</ele>
      </trkpt>
      <trkpt lat="36.29475" lon="29.41306">
        <ele>268.3</ele>
      </trkpt>
      <trkpt lat="36.29458" lon="29.41304">
        <ele>267.2</ele>
      </trkpt>
      <trkpt lat="36.29443" lon="29.41311">
        <ele>264.2</ele>
      </trkpt>
      <trkpt lat="36.29433" lon="29.41328">
        <ele>260.7</ele>
      </trkpt>
      <trkpt lat="36.29421" lon="29.41342">
        <ele>258.6</ele>
      </trkpt>
      <trkpt lat="36.29414" lon="29.41357">
        <ele>256.9</ele>
      </trkpt>
      <trkpt lat="36.29401" lon="29.41374">
        <ele>254.3</ele>
      </trkpt>
      <trkpt lat="36.29398" lon="29.41392">
        <ele>253.2</ele>
      </trkpt>
      <trkpt lat="36.29394" lon="29.41403">
        <ele>252.5</ele>
      </trkpt>
      <trkpt lat="36.29387" lon="29.41413">
        <ele>251.7</ele>
      </trkpt>
      <trkpt lat="36.29368" lon="29.41408">
        <ele>250.7</ele>
      </trkpt>
      <trkpt lat="36.29349" lon="29.41403">
        <ele>249.4</ele>
      </trkpt>
      <trkpt lat="36.29323" lon="29.41402">
        <ele>249.6</ele>
      </trkpt>
      <trkpt lat="36.2931" lon="29.41387">
        <ele>249.3</ele>
      </trkpt>
      <trkpt lat="36.29298" lon="29.41386">
        <ele>250.2</ele>
      </trkpt>
      <trkpt lat="36.29293" lon="29.41381">
        <ele>249.6</ele>
      </trkpt>
      <trkpt lat="36.29287" lon="29.41356">
        <ele>244.8</ele>
      </trkpt>
      <trkpt lat="36.29276" lon="29.41344">
        <ele>241.5</ele>
      </trkpt>
      <trkpt lat="36.29276" lon="29.41332">
        <ele>238.7</ele>
      </trkpt>
      <trkpt lat="36.29264" lon="29.41319">
        <ele>236.1</ele>
      </trkpt>
      <trkpt lat="36.29259" lon="29.41294">
        <ele>232.9</ele>
      </trkpt>
      <trkpt lat="36.29256" lon="29.41289">
        <ele>231.7</ele>
      </trkpt>
      <trkpt lat="36.29252" lon="29.41295">
        <ele>231.6</ele>
      </trkpt>
      <trkpt lat="36.29247" lon="29.41294">
        <ele>231.5</ele>
      </trkpt>
      <trkpt lat="36.29243" lon="29.41284">
        <ele>230.5</ele>
      </trkpt>
      <trkpt lat="36.29232" lon="29.41241">
        <ele>226.2</ele>
      </trkpt>
      <trkpt lat="36.29216" lon="29.41234">
        <ele>226.2</ele>
      </trkpt>
      <trkpt lat="36.29197" lon="29.41233">
        <ele>226</ele>
      </trkpt>
      <trkpt lat="36.29184" lon="29.41244">
        <ele>226.5</ele>
      </trkpt>
      <trkpt lat="36.29183" lon="29.41261">
        <ele>229.4</ele>
      </trkpt>
      <trkpt lat="36.2918" lon="29.41276">
        <ele>232.8</ele>
      </trkpt>
      <trkpt lat="36.29169" lon="29.41285">
        <ele>235.7</ele>
      </trkpt>
      <trkpt lat="36.29165" lon="29.41301">
        <ele>240.4</ele>
      </trkpt>
      <trkpt lat="36.2916" lon="29.4131">
        <ele>244</ele>
      </trkpt>
      <trkpt lat="36.29164" lon="29.41333">
        <ele>248.7</ele>
      </trkpt>
      <trkpt lat="36.29174" lon="29.41355">
        <ele>255.7</ele>
      </trkpt>
      <trkpt lat="36.29171" lon="29.4137">
        <ele>262.3</ele>
      </trkpt>
      <trkpt lat="36.29161" lon="29.41372">
        <ele>265.6</ele>
      </trkpt>
      <trkpt lat="36.29146" lon="29.41388">
        <ele>277</ele>
      </trkpt>
      <trkpt lat="36.29127" lon="29.41399">
        <ele>287.1</ele>
      </trkpt>
      <trkpt lat="36.29123" lon="29.41407">
        <ele>291.8</ele>
      </trkpt>
      <trkpt lat="36.29116" lon="29.41402">
        <ele>291.7</ele>
      </trkpt>
      <trkpt lat="36.29109" lon="29.41402">
        <ele>294.1</ele>
      </trkpt>
      <trkpt lat="36.29108" lon="29.41411">
        <ele>298.3</ele>
      </trkpt>
      <trkpt lat="36.29114" lon="29.41423">
        <ele>301.8</ele>
      </trkpt>
      <trkpt lat="36.29113" lon="29.41427">
        <ele>304.4</ele>
      </trkpt>
      <trkpt lat="36.29106" lon="29.41425">
        <ele>305.1</ele>
      </trkpt>
      <trkpt lat="36.29103" lon="29.41434">
        <ele>310.9</ele>
      </trkpt>
      <trkpt lat="36.291" lon="29.41433">
        <ele>311.7</ele>
      </trkpt>
      <trkpt lat="36.29099" lon="29.41427">
        <ele>308.7</ele>
      </trkpt>
      <trkpt lat="36.29095" lon="29.41408">
        <ele>300.7</ele>
      </trkpt>
      <trkpt lat="36.29058" lon="29.41385">
        <ele>303</ele>
      </trkpt>
      <trkpt lat="36.29041" lon="29.41379">
        <ele>305.9</ele>
      </trkpt>
      <trkpt lat="36.29018" lon="29.41377">
        <ele>312.3</ele>
      </trkpt>
      <trkpt lat="36.29" lon="29.4138">
        <ele>318.7</ele>
      </trkpt>
      <trkpt lat="36.28996" lon="29.41378">
        <ele>319.2</ele>
      </trkpt>
      <trkpt lat="36.28989" lon="29.4138">
        <ele>321.5</ele>
      </trkpt>
      <trkpt lat="36.28978" lon="29.41378">
        <ele>323.2</ele>
      </trkpt>
      <trkpt lat="36.28961" lon="29.41385">
        <ele>328.7</ele>
      </trkpt>
      <trkpt lat="36.28947" lon="29.414">
        <ele>334.8</ele>
      </trkpt>
      <trkpt lat="36.28922" lon="29.41396">
        <ele>339</ele>
      </trkpt>
      <trkpt lat="36.28898" lon="29.41384">
        <ele>343.7</ele>
      </trkpt>
      <trkpt lat="36.28889" lon="29.41368">
        <ele>344.8</ele>
      </trkpt>
      <trkpt lat="36.28884" lon="29.41345">
        <ele>344.5</ele>
      </trkpt>
      <trkpt lat="36.28889" lon="29.41325">
        <ele>341.7</ele>
      </trkpt>
      <trkpt lat="36.28898" lon="29.41309">
        <ele>338.5</ele>
      </trkpt>
      <trkpt lat="36.28903" lon="29.41293">
        <ele>336.6</ele>
      </trkpt>
      <trkpt lat="36.28917" lon="29.41271">
        <ele>330.7</ele>
      </trkpt>
      <trkpt lat="36.28927" lon="29.41245">
        <ele>324.4</ele>
      </trkpt>
      <trkpt lat="36.28933" lon="29.41224">
        <ele>318.2</ele>
      </trkpt>
      <trkpt lat="36.28922" lon="29.41205">
        <ele>320.9</ele>
      </trkpt>
      <trkpt lat="36.28905" lon="29.41187">
        <ele>324</ele>
      </trkpt>
      <trkpt lat="36.28898" lon="29.41186">
        <ele>325.9</ele>
      </trkpt>
      <trkpt lat="36.2889" lon="29.41167">
        <ele>324.3</ele>
      </trkpt>
      <trkpt lat="36.28831" lon="29.41112">
        <ele>311</ele>
      </trkpt>
      <trkpt lat="36.28813" lon="29.41106">
        <ele>310.6</ele>
      </trkpt>
      <trkpt lat="36.28786" lon="29.411">
        <ele>311</ele>
      </trkpt>
      <trkpt lat="36.28746" lon="29.41074">
        <ele>303.1</ele>
      </trkpt>
      <trkpt lat="36.28722" lon="29.4108">
        <ele>302.4</ele>
      </trkpt>
      <trkpt lat="36.28676" lon="29.4111">
        <ele>309.2</ele>
      </trkpt>
      <trkpt lat="36.28629" lon="29.41127">
        <ele>306.6</ele>
      </trkpt>
      <trkpt lat="36.28616" lon="29.41139">
        <ele>309.8</ele>
      </trkpt>
      <trkpt lat="36.28573" lon="29.41162">
        <ele>313.2</ele>
      </trkpt>
      <trkpt lat="36.28553" lon="29.4116">
        <ele>310.2</ele>
      </trkpt>
      <trkpt lat="36.28507" lon="29.41178">
        <ele>313</ele>
      </trkpt>
      <trkpt lat="36.28482" lon="29.41157">
        <ele>300.8</ele>
      </trkpt>
      <trkpt lat="36.2847" lon="29.41149">
        <ele>296.5</ele>
      </trkpt>
      <trkpt lat="36.28432" lon="29.41145">
        <ele>291.8</ele>
      </trkpt>
      <trkpt lat="36.28393" lon="29.41147">
        <ele>289.7</ele>
      </trkpt>
      <trkpt lat="36.2836" lon="29.41149">
        <ele>287.7</ele>
      </trkpt>
      <trkpt lat="36.28334" lon="29.41161">
        <ele>288.8</ele>
      </trkpt>
      <trkpt lat="36.28313" lon="29.4116">
        <ele>287.9</ele>
      </trkpt>
      <trkpt lat="36.28284" lon="29.41165">
        <ele>287.9</ele>
      </trkpt>
      <trkpt lat="36.28242" lon="29.41164">
        <ele>286.7</ele>
      </trkpt>
      <trkpt lat="36.28214" lon="29.41158">
        <ele>286.5</ele>
      </trkpt>
      <trkpt lat="36.28151" lon="29.41128">
        <ele>284</ele>
      </trkpt>
      <trkpt lat="36.28123" lon="29.41098">
        <ele>282</ele>
      </trkpt>
      <trkpt lat="36.28107" lon="29.41076">
        <ele>280.4</ele>
      </trkpt>
      <trkpt lat="36.28105" lon="29.41049">
        <ele>276.6</ele>
      </trkpt>
      <trkpt lat="36.28103" lon="29.41025">
        <ele>273</ele>
      </trkpt>
      <trkpt lat="36.28107" lon="29.41">
        <ele>269.3</ele>
      </trkpt>
      <trkpt lat="36.28133" lon="29.40978">
        <ele>267.8</ele>
      </trkpt>
      <trkpt lat="36.28149" lon="29.40945">
        <ele>265.8</ele>
      </trkpt>
      <trkpt lat="36.28161" lon="29.40928">
        <ele>265.3</ele>
      </trkpt>
      <trkpt lat="36.28181" lon="29.40898">
        <ele>262.1</ele>
      </trkpt>
      <trkpt lat="36.28178" lon="29.40862">
        <ele>256.6</ele>
      </trkpt>
      <trkpt lat="36.28159" lon="29.40859">
        <ele>256</ele>
      </trkpt>
      <trkpt lat="36.28151" lon="29.40852">
        <ele>254.9</ele>
      </trkpt>
      <trkpt lat="36.28138" lon="29.40818">
        <ele>251.3</ele>
      </trkpt>
      <trkpt lat="36.28084" lon="29.40825">
        <ele>253.2</ele>
      </trkpt>
      <trkpt lat="36.28111" lon="29.4077">
        <ele>247.5</ele>
      </trkpt>
      <trkpt lat="36.28116" lon="29.4075">
        <ele>245.6</ele>
      </trkpt>
      <trkpt lat="36.28119" lon="29.40738">
        <ele>244.8</ele>
      </trkpt>
      <trkpt lat="36.28092" lon="29.40744">
        <ele>245.6</ele>
      </trkpt>
      <trkpt lat="36.2807" lon="29.40746">
        <ele>245.7</ele>
      </trkpt>
      <trkpt lat="36.28057" lon="29.40748">
        <ele>245.6</ele>
      </trkpt>
      <trkpt lat="36.28034" lon="29.40744">
        <ele>245.2</ele>
      </trkpt>
      <trkpt lat="36.28023" lon="29.40738">
        <ele>244.9</ele>
      </trkpt>
      <trkpt lat="36.28018" lon="29.40733">
        <ele>244.7</ele>
      </trkpt>
      <trkpt lat="36.2801" lon="29.40724">
        <ele>244.4</ele>
      </trkpt>
      <trkpt lat="36.27994" lon="29.407">
        <ele>243.7</ele>
      </trkpt>
      <trkpt lat="36.2798" lon="29.40679">
        <ele>243.1</ele>
      </trkpt>
      <trkpt lat="36.27965" lon="29.40651">
        <ele>241.5</ele>
      </trkpt>
      <trkpt lat="36.27946" lon="29.40639">
        <ele>241.1</ele>
      </trkpt>
      <trkpt lat="36.27916" lon="29.40586">
        <ele>241.1</ele>
      </trkpt>
      <trkpt lat="36.27903" lon="29.40578">
        <ele>242.8</ele>
      </trkpt>
      <trkpt lat="36.27885" lon="29.40551">
        <ele>244.4</ele>
      </trkpt>
      <trkpt lat="36.27872" lon="29.40506">
        <ele>244.7</ele>
      </trkpt>
      <trkpt lat="36.27868" lon="29.40483">
        <ele>241.8</ele>
      </trkpt>
      <trkpt lat="36.27858" lon="29.40467">
        <ele>240.4</ele>
      </trkpt>
      <trkpt lat="36.2782" lon="29.4044">
        <ele>242.2</ele>
      </trkpt>
      <trkpt lat="36.27797" lon="29.40422">
        <ele>243.4</ele>
      </trkpt>
      <trkpt lat="36.27773" lon="29.40403">
        <ele>244.3</ele>
      </trkpt>
      <trkpt lat="36.27758" lon="29.40388">
        <ele>244.1</ele>
      </trkpt>
      <trkpt lat="36.27732" lon="29.40344">
        <ele>240.4</ele>
      </trkpt>
      <trkpt lat="36.27716" lon="29.40324">
        <ele>240.9</ele>
      </trkpt>
      <trkpt lat="36.27705" lon="29.40302">
        <ele>241.1</ele>
      </trkpt>
      <trkpt lat="36.27705" lon="29.40264">
        <ele>236.6</ele>
      </trkpt>
      <trkpt lat="36.27712" lon="29.40243">
        <ele>232.9</ele>
      </trkpt>
      <trkpt lat="36.27717" lon="29.40202">
        <ele>230.4</ele>
      </trkpt>
      <trkpt lat="36.27712" lon="29.40159">
        <ele>230.5</ele>
      </trkpt>
      <trkpt lat="36.27706" lon="29.40138">
        <ele>232.7</ele>
      </trkpt>
      <trkpt lat="36.27697" lon="29.40129">
        <ele>235.5</ele>
      </trkpt>
      <trkpt lat="36.27681" lon="29.40111">
        <ele>240.8</ele>
      </trkpt>
      <trkpt lat="36.27672" lon="29.40052">
        <ele>241.4</ele>
      </trkpt>
      <trkpt lat="36.27656" lon="29.40005">
        <ele>241.9</ele>
      </trkpt>
      <trkpt lat="36.27635" lon="29.39971">
        <ele>244.2</ele>
      </trkpt>
      <trkpt lat="36.27612" lon="29.39913">
        <ele>241.9</ele>
      </trkpt>
      <trkpt lat="36.27573" lon="29.39845">
        <ele>240.6</ele>
      </trkpt>
      <trkpt lat="36.27531" lon="29.39785">
        <ele>240.6</ele>
      </trkpt>
      <trkpt lat="36.27488" lon="29.39748">
        <ele>241.9</ele>
      </trkpt>
      <trkpt lat="36.27434" lon="29.39712">
        <ele>241.4</ele>
      </trkpt>
      <trkpt lat="36.27364" lon="29.39674">
        <ele>240.2</ele>
      </trkpt>
      <trkpt lat="36.27302" lon="29.39652">
        <ele>242.6</ele>
      </trkpt>
      <trkpt lat="36.27273" lon="29.39634">
        <ele>243.7</ele>
      </trkpt>
      <trkpt lat="36.27253" lon="29.39615">
        <ele>243.8</ele>
      </trkpt>
      <trkpt lat="36.27247" lon="29.39595">
        <ele>241.7</ele>
      </trkpt>
      <trkpt lat="36.27247" lon="29.39571">
        <ele>239.5</ele>
      </trkpt>
      <trkpt lat="36.27242" lon="29.39538">
        <ele>237.7</ele>
      </trkpt>
      <trkpt lat="36.27233" lon="29.39486">
        <ele>236.4</ele>
      </trkpt>
      <trkpt lat="36.27227" lon="29.39467">
        <ele>237.4</ele>
      </trkpt>
      <trkpt lat="36.27226" lon="29.39454">
        <ele>237.8</ele>
      </trkpt>
      <trkpt lat="36.27225" lon="29.3945">
        <ele>238</ele>
      </trkpt>
      <trkpt lat="36.27224" lon="29.39448">
        <ele>238.1</ele>
      </trkpt>
      <trkpt lat="36.2722" lon="29.39444">
        <ele>238.3</ele>
      </trkpt>
      <trkpt lat="36.2722" lon="29.39442">
        <ele>238.4</ele>
      </trkpt>
      <trkpt lat="36.27217" lon="29.39439">
        <ele>238.6</ele>
      </trkpt>
      <trkpt lat="36.27218" lon="29.39437">
        <ele>238.6</ele>
      </trkpt>
      <trkpt lat="36.27219" lon="29.39435">
        <ele>238.6</ele>
      </trkpt>
      <trkpt lat="36.27222" lon="29.39433">
        <ele>238.6</ele>
      </trkpt>
      <trkpt lat="36.27226" lon="29.3943">
        <ele>238.5</ele>
      </trkpt>
      <trkpt lat="36.27228" lon="29.39425">
        <ele>238.6</ele>
      </trkpt>
      <trkpt lat="36.2723" lon="29.39421">
        <ele>238.6</ele>
      </trkpt>
      <trkpt lat="36.27238" lon="29.39416">
        <ele>238.5</ele>
      </trkpt>
      <trkpt lat="36.27247" lon="29.39413">
        <ele>238.6</ele>
      </trkpt>
      <trkpt lat="36.27253" lon="29.39411">
        <ele>238.6</ele>
      </trkpt>
      <trkpt lat="36.27269" lon="29.39405">
        <ele>238.7</ele>
      </trkpt>
      <trkpt lat="36.27297" lon="29.39394">
        <ele>238.9</ele>
      </trkpt>
      <trkpt lat="36.27325" lon="29.39384">
        <ele>239.1</ele>
      </trkpt>
      <trkpt lat="36.2734" lon="29.39381">
        <ele>238.8</ele>
      </trkpt>
      <trkpt lat="36.27361" lon="29.39376">
        <ele>238.6</ele>
      </trkpt>
      <trkpt lat="36.27381" lon="29.39369">
        <ele>239.1</ele>
      </trkpt>
      <trkpt lat="36.27386" lon="29.39364">
        <ele>239.7</ele>
      </trkpt>
      <trkpt lat="36.27388" lon="29.39359">
        <ele>240.4</ele>
      </trkpt>
      <trkpt lat="36.27394" lon="29.39348">
        <ele>242.1</ele>
      </trkpt>
      <trkpt lat="36.27397" lon="29.39333">
        <ele>244.5</ele>
      </trkpt>
      <trkpt lat="36.27398" lon="29.39323">
        <ele>244.9</ele>
      </trkpt>
      <trkpt lat="36.27401" lon="29.39316">
        <ele>245</ele>
      </trkpt>
      <trkpt lat="36.27404" lon="29.3931">
        <ele>245.1</ele>
      </trkpt>
      <trkpt lat="36.27409" lon="29.39303">
        <ele>245.1</ele>
      </trkpt>
      <trkpt lat="36.27414" lon="29.39299">
        <ele>245</ele>
      </trkpt>
      <trkpt lat="36.27415" lon="29.39297">
        <ele>245</ele>
      </trkpt>
      <trkpt lat="36.2742" lon="29.39292">
        <ele>244.6</ele>
      </trkpt>
      <trkpt lat="36.27425" lon="29.39289">
        <ele>244.1</ele>
      </trkpt>
      <trkpt lat="36.27436" lon="29.39283">
        <ele>243</ele>
      </trkpt>
      <trkpt lat="36.27441" lon="29.39282">
        <ele>242.5</ele>
      </trkpt>
      <trkpt lat="36.27446" lon="29.39279">
        <ele>242</ele>
      </trkpt>
      <trkpt lat="36.27452" lon="29.39277">
        <ele>241.4</ele>
      </trkpt>
      <trkpt lat="36.27457" lon="29.39276">
        <ele>240.8</ele>
      </trkpt>
      <trkpt lat="36.27462" lon="29.39276">
        <ele>240.3</ele>
      </trkpt>
      <trkpt lat="36.27463" lon="29.39276">
        <ele>240.1</ele>
      </trkpt>
      <trkpt lat="36.27466" lon="29.39277">
        <ele>239.8</ele>
      </trkpt>
      <trkpt lat="36.2747" lon="29.39277">
        <ele>239.4</ele>
      </trkpt>
      <trkpt lat="36.27475" lon="29.39276">
        <ele>238.9</ele>
      </trkpt>
      <trkpt lat="36.27479" lon="29.39273">
        <ele>238.5</ele>
      </trkpt>
      <trkpt lat="36.27479" lon="29.39269">
        <ele>238.6</ele>
      </trkpt>
      <trkpt lat="36.27479" lon="29.39266">
        <ele>238.7</ele>
      </trkpt>
      <trkpt lat="36.27482" lon="29.39258">
        <ele>238.7</ele>
      </trkpt>
      <trkpt lat="36.27482" lon="29.39253">
        <ele>238.8</ele>
      </trkpt>
      <trkpt lat="36.27484" lon="29.39248">
        <ele>239.1</ele>
      </trkpt>
      <trkpt lat="36.27488" lon="29.39241">
        <ele>240.1</ele>
      </trkpt>
      <trkpt lat="36.27491" lon="29.39236">
        <ele>240.9</ele>
      </trkpt>
      <trkpt lat="36.27496" lon="29.39233">
        <ele>240.9</ele>
      </trkpt>
      <trkpt lat="36.27502" lon="29.39228">
        <ele>240.9</ele>
      </trkpt>
      <trkpt lat="36.27509" lon="29.3922">
        <ele>240.9</ele>
      </trkpt>
      <trkpt lat="36.27511" lon="29.39216">
        <ele>241.2</ele>
      </trkpt>
      <trkpt lat="36.27514" lon="29.39211">
        <ele>241.5</ele>
      </trkpt>
      <trkpt lat="36.27521" lon="29.39205">
        <ele>241.1</ele>
      </trkpt>
      <trkpt lat="36.27527" lon="29.39202">
        <ele>240.4</ele>
      </trkpt>
      <trkpt lat="36.2753" lon="29.39199">
        <ele>240.1</ele>
      </trkpt>
      <trkpt lat="36.27533" lon="29.39195">
        <ele>240.3</ele>
      </trkpt>
      <trkpt lat="36.27552" lon="29.39169">
        <ele>241</ele>
      </trkpt>
      <trkpt lat="36.27572" lon="29.39148">
        <ele>240.1</ele>
      </trkpt>
      <trkpt lat="36.27583" lon="29.39135">
        <ele>239.4</ele>
      </trkpt>
      <trkpt lat="36.27606" lon="29.39097">
        <ele>237.8</ele>
      </trkpt>
      <trkpt lat="36.27619" lon="29.39066">
        <ele>235.7</ele>
      </trkpt>
      <trkpt lat="36.27622" lon="29.39046">
        <ele>233.9</ele>
      </trkpt>
      <trkpt lat="36.27615" lon="29.39028">
        <ele>235.9</ele>
      </trkpt>
      <trkpt lat="36.27597" lon="29.39004">
        <ele>241.9</ele>
      </trkpt>
      <trkpt lat="36.27582" lon="29.38969">
        <ele>247.6</ele>
      </trkpt>
      <trkpt lat="36.27577" lon="29.38945">
        <ele>249.2</ele>
      </trkpt>
      <trkpt lat="36.27586" lon="29.38927">
        <ele>246.3</ele>
      </trkpt>
      <trkpt lat="36.27595" lon="29.38918">
        <ele>243.7</ele>
      </trkpt>
      <trkpt lat="36.27608" lon="29.38907">
        <ele>242</ele>
      </trkpt>
      <trkpt lat="36.27644" lon="29.38868">
        <ele>238.9</ele>
      </trkpt>
      <trkpt lat="36.27674" lon="29.38839">
        <ele>235.3</ele>
      </trkpt>
      <trkpt lat="36.27688" lon="29.38831">
        <ele>233.1</ele>
      </trkpt>
      <trkpt lat="36.27697" lon="29.38823">
        <ele>232.3</ele>
      </trkpt>
      <trkpt lat="36.27701" lon="29.38822">
        <ele>231.4</ele>
      </trkpt>
      <trkpt lat="36.27706" lon="29.38814">
        <ele>231.3</ele>
      </trkpt>
      <trkpt lat="36.27725" lon="29.38792">
        <ele>229.7</ele>
      </trkpt>
      <trkpt lat="36.2774" lon="29.38768">
        <ele>228.6</ele>
      </trkpt>
      <trkpt lat="36.27744" lon="29.38745">
        <ele>229.1</ele>
      </trkpt>
      <trkpt lat="36.27741" lon="29.38726">
        <ele>227.6</ele>
      </trkpt>
      <trkpt lat="36.2774" lon="29.38722">
        <ele>227.2</ele>
      </trkpt>
      <trkpt lat="36.27731" lon="29.38699">
        <ele>226.9</ele>
      </trkpt>
      <trkpt lat="36.27722" lon="29.38683">
        <ele>227.6</ele>
      </trkpt>
      <trkpt lat="36.27707" lon="29.38668">
        <ele>230.2</ele>
      </trkpt>
      <trkpt lat="36.27701" lon="29.38656">
        <ele>229.5</ele>
      </trkpt>
      <trkpt lat="36.27693" lon="29.38647">
        <ele>230.1</ele>
      </trkpt>
      <trkpt lat="36.27674" lon="29.38616">
        <ele>230.2</ele>
      </trkpt>
      <trkpt lat="36.27643" lon="29.38577">
        <ele>230.7</ele>
      </trkpt>
      <trkpt lat="36.27613" lon="29.38548">
        <ele>229</ele>
      </trkpt>
      <trkpt lat="36.27596" lon="29.38526">
        <ele>226.1</ele>
      </trkpt>
      <trkpt lat="36.27588" lon="29.38516">
        <ele>224.5</ele>
      </trkpt>
      <trkpt lat="36.27577" lon="29.38511">
        <ele>225.4</ele>
      </trkpt>
      <trkpt lat="36.27558" lon="29.38507">
        <ele>229.2</ele>
      </trkpt>
      <trkpt lat="36.27545" lon="29.385">
        <ele>229.9</ele>
      </trkpt>
      <trkpt lat="36.27534" lon="29.38495">
        <ele>231.4</ele>
      </trkpt>
      <trkpt lat="36.27524" lon="29.38491">
        <ele>232.6</ele>
      </trkpt>
      <trkpt lat="36.2752" lon="29.38485">
        <ele>231.4</ele>
      </trkpt>
      <trkpt lat="36.27518" lon="29.38479">
        <ele>230.1</ele>
      </trkpt>
      <trkpt lat="36.27507" lon="29.38469">
        <ele>229.6</ele>
      </trkpt>
      <trkpt lat="36.275" lon="29.38465">
        <ele>230</ele>
      </trkpt>
      <trkpt lat="36.27485" lon="29.38457">
        <ele>231.5</ele>
      </trkpt>
      <trkpt lat="36.27474" lon="29.3845">
        <ele>232.4</ele>
      </trkpt>
      <trkpt lat="36.27463" lon="29.38439">
        <ele>232.8</ele>
      </trkpt>
      <trkpt lat="36.27454" lon="29.38432">
        <ele>233.4</ele>
      </trkpt>
      <trkpt lat="36.27444" lon="29.38427">
        <ele>235.2</ele>
      </trkpt>
      <trkpt lat="36.27438" lon="29.38421">
        <ele>235.8</ele>
      </trkpt>
      <trkpt lat="36.27435" lon="29.38413">
        <ele>234.9</ele>
      </trkpt>
      <trkpt lat="36.27432" lon="29.38388">
        <ele>230.3</ele>
      </trkpt>
      <trkpt lat="36.27431" lon="29.38383">
        <ele>229.5</ele>
      </trkpt>
      <trkpt lat="36.27426" lon="29.38376">
        <ele>229.8</ele>
      </trkpt>
      <trkpt lat="36.27422" lon="29.38365">
        <ele>228.4</ele>
      </trkpt>
      <trkpt lat="36.27416" lon="29.38343">
        <ele>225.5</ele>
      </trkpt>
      <trkpt lat="36.27391" lon="29.38299">
        <ele>226.6</ele>
      </trkpt>
      <trkpt lat="36.27372" lon="29.38267">
        <ele>226.3</ele>
      </trkpt>
      <trkpt lat="36.27367" lon="29.38262">
        <ele>226.4</ele>
      </trkpt>
      <trkpt lat="36.27348" lon="29.38242">
        <ele>226.5</ele>
      </trkpt>
      <trkpt lat="36.27334" lon="29.38229">
        <ele>226.1</ele>
      </trkpt>
      <trkpt lat="36.27316" lon="29.38214">
        <ele>226.8</ele>
      </trkpt>
      <trkpt lat="36.27303" lon="29.38202">
        <ele>227.3</ele>
      </trkpt>
      <trkpt lat="36.27296" lon="29.38199">
        <ele>228.4</ele>
      </trkpt>
      <trkpt lat="36.27287" lon="29.38192">
        <ele>229</ele>
      </trkpt>
      <trkpt lat="36.27272" lon="29.38187">
        <ele>231.8</ele>
      </trkpt>
      <trkpt lat="36.27261" lon="29.38184">
        <ele>234.5</ele>
      </trkpt>
      <trkpt lat="36.27247" lon="29.38172">
        <ele>235</ele>
      </trkpt>
      <trkpt lat="36.27242" lon="29.38162">
        <ele>234.5</ele>
      </trkpt>
      <trkpt lat="36.27244" lon="29.38153">
        <ele>232.3</ele>
      </trkpt>
      <trkpt lat="36.27246" lon="29.38137">
        <ele>228.5</ele>
      </trkpt>
      <trkpt lat="36.27247" lon="29.38115">
        <ele>223.8</ele>
      </trkpt>
      <trkpt lat="36.27245" lon="29.38106">
        <ele>222.9</ele>
      </trkpt>
      <trkpt lat="36.27238" lon="29.38095">
        <ele>223.7</ele>
      </trkpt>
      <trkpt lat="36.27235" lon="29.38085">
        <ele>223.3</ele>
      </trkpt>
      <trkpt lat="36.27227" lon="29.38075">
        <ele>223.3</ele>
      </trkpt>
      <trkpt lat="36.27215" lon="29.38066">
        <ele>224.9</ele>
      </trkpt>
      <trkpt lat="36.2721" lon="29.38067">
        <ele>227.2</ele>
      </trkpt>
      <trkpt lat="36.27202" lon="29.38054">
        <ele>226.1</ele>
      </trkpt>
      <trkpt lat="36.2719" lon="29.38043">
        <ele>227</ele>
      </trkpt>
      <trkpt lat="36.27185" lon="29.38034">
        <ele>225.7</ele>
      </trkpt>
      <trkpt lat="36.27177" lon="29.38026">
        <ele>226</ele>
      </trkpt>
      <trkpt lat="36.27172" lon="29.38021">
        <ele>226.2</ele>
      </trkpt>
      <trkpt lat="36.27143" lon="29.37994">
        <ele>231.1</ele>
      </trkpt>
      <trkpt lat="36.27125" lon="29.37976">
        <ele>237</ele>
      </trkpt>
      <trkpt lat="36.27117" lon="29.37961">
        <ele>238.5</ele>
      </trkpt>
      <trkpt lat="36.27115" lon="29.37945">
        <ele>237.4</ele>
      </trkpt>
      <trkpt lat="36.27115" lon="29.37925">
        <ele>234.7</ele>
      </trkpt>
      <trkpt lat="36.27119" lon="29.37907">
        <ele>230.8</ele>
      </trkpt>
      <trkpt lat="36.27121" lon="29.37894">
        <ele>229.9</ele>
      </trkpt>
      <trkpt lat="36.27124" lon="29.37872">
        <ele>227.8</ele>
      </trkpt>
      <trkpt lat="36.27126" lon="29.37862">
        <ele>226.9</ele>
      </trkpt>
      <trkpt lat="36.27129" lon="29.37848">
        <ele>225.7</ele>
      </trkpt>
      <trkpt lat="36.27134" lon="29.37833">
        <ele>223.5</ele>
      </trkpt>
      <trkpt lat="36.27135" lon="29.37826">
        <ele>222.4</ele>
      </trkpt>
      <trkpt lat="36.27141" lon="29.3781">
        <ele>219.3</ele>
      </trkpt>
      <trkpt lat="36.27142" lon="29.37792">
        <ele>217.6</ele>
      </trkpt>
      <trkpt lat="36.27137" lon="29.37777">
        <ele>217.9</ele>
      </trkpt>
      <trkpt lat="36.27132" lon="29.37767">
        <ele>218.6</ele>
      </trkpt>
      <trkpt lat="36.27114" lon="29.37749">
        <ele>220.7</ele>
      </trkpt>
      <trkpt lat="36.27103" lon="29.3774">
        <ele>221.1</ele>
      </trkpt>
      <trkpt lat="36.27073" lon="29.37729">
        <ele>225.4</ele>
      </trkpt>
      <trkpt lat="36.27057" lon="29.37726">
        <ele>228.4</ele>
      </trkpt>
      <trkpt lat="36.2703" lon="29.37709">
        <ele>231.3</ele>
      </trkpt>
      <trkpt lat="36.27002" lon="29.37676">
        <ele>231.5</ele>
      </trkpt>
      <trkpt lat="36.26968" lon="29.37538">
        <ele>225.7</ele>
      </trkpt>
      <trkpt lat="36.26946" lon="29.37438">
        <ele>227.1</ele>
      </trkpt>
      <trkpt lat="36.26948" lon="29.37373">
        <ele>218.9</ele>
      </trkpt>
      <trkpt lat="36.26946" lon="29.37361">
        <ele>217.9</ele>
      </trkpt>
      <trkpt lat="36.26941" lon="29.37349">
        <ele>218.1</ele>
      </trkpt>
      <trkpt lat="36.26931" lon="29.37328">
        <ele>218.3</ele>
      </trkpt>
      <trkpt lat="36.26909" lon="29.37313">
        <ele>220.1</ele>
      </trkpt>
      <trkpt lat="36.26878" lon="29.37296">
        <ele>220.8</ele>
      </trkpt>
      <trkpt lat="36.26869" lon="29.37286">
        <ele>219.9</ele>
      </trkpt>
      <trkpt lat="36.26858" lon="29.37274">
        <ele>219.3</ele>
      </trkpt>
      <trkpt lat="36.26855" lon="29.37266">
        <ele>218.3</ele>
      </trkpt>
      <trkpt lat="36.26833" lon="29.37228">
        <ele>213.4</ele>
      </trkpt>
      <trkpt lat="36.26819" lon="29.37215">
        <ele>209.6</ele>
      </trkpt>
      <trkpt lat="36.26811" lon="29.37211">
        <ele>208.7</ele>
      </trkpt>
      <trkpt lat="36.26797" lon="29.37205">
        <ele>207.7</ele>
      </trkpt>
      <trkpt lat="36.26783" lon="29.37196">
        <ele>206.8</ele>
      </trkpt>
      <trkpt lat="36.26775" lon="29.37191">
        <ele>206.5</ele>
      </trkpt>
      <trkpt lat="36.26764" lon="29.37186">
        <ele>206.9</ele>
      </trkpt>
      <trkpt lat="36.26758" lon="29.37184">
        <ele>207.3</ele>
      </trkpt>
      <trkpt lat="36.26751" lon="29.37176">
        <ele>207.5</ele>
      </trkpt>
      <trkpt lat="36.26745" lon="29.37172">
        <ele>205.9</ele>
      </trkpt>
      <trkpt lat="36.26737" lon="29.37176">
        <ele>203.8</ele>
      </trkpt>
      <trkpt lat="36.26733" lon="29.37176">
        <ele>202.6</ele>
      </trkpt>
      <trkpt lat="36.26731" lon="29.37173">
        <ele>201.9</ele>
      </trkpt>
      <trkpt lat="36.26728" lon="29.37166">
        <ele>201.1</ele>
      </trkpt>
      <trkpt lat="36.26727" lon="29.37158">
        <ele>200.4</ele>
      </trkpt>
      <trkpt lat="36.26727" lon="29.3715">
        <ele>199.9</ele>
      </trkpt>
      <trkpt lat="36.2673" lon="29.37135">
        <ele>199.4</ele>
      </trkpt>
      <trkpt lat="36.2673" lon="29.37125">
        <ele>198.7</ele>
      </trkpt>
      <trkpt lat="36.26726" lon="29.37117">
        <ele>197.8</ele>
      </trkpt>
      <trkpt lat="36.26727" lon="29.37108">
        <ele>197.3</ele>
      </trkpt>
      <trkpt lat="36.26729" lon="29.37102">
        <ele>197</ele>
      </trkpt>
      <trkpt lat="36.26734" lon="29.37098">
        <ele>196.8</ele>
      </trkpt>
      <trkpt lat="36.26737" lon="29.37095">
        <ele>196.6</ele>
      </trkpt>
      <trkpt lat="36.26738" lon="29.37088">
        <ele>195.9</ele>
      </trkpt>
      <trkpt lat="36.26736" lon="29.37081">
        <ele>194.9</ele>
      </trkpt>
      <trkpt lat="36.26729" lon="29.37064">
        <ele>191.5</ele>
      </trkpt>
      <trkpt lat="36.26719" lon="29.37045">
        <ele>188.9</ele>
      </trkpt>
      <trkpt lat="36.26706" lon="29.37024">
        <ele>187.4</ele>
      </trkpt>
      <trkpt lat="36.26692" lon="29.37004">
        <ele>187.9</ele>
      </trkpt>
      <trkpt lat="36.26686" lon="29.36995">
        <ele>188.1</ele>
      </trkpt>
      <trkpt lat="36.2667" lon="29.36971">
        <ele>189.1</ele>
      </trkpt>
      <trkpt lat="36.26656" lon="29.36942">
        <ele>183.9</ele>
      </trkpt>
      <trkpt lat="36.26652" lon="29.36929">
        <ele>181.5</ele>
      </trkpt>
      <trkpt lat="36.26652" lon="29.36919">
        <ele>180.5</ele>
      </trkpt>
      <trkpt lat="36.26655" lon="29.36908">
        <ele>180.5</ele>
      </trkpt>
      <trkpt lat="36.26655" lon="29.36898">
        <ele>179.8</ele>
      </trkpt>
      <trkpt lat="36.26656" lon="29.36889">
        <ele>179.5</ele>
      </trkpt>
      <trkpt lat="36.26659" lon="29.36871">
        <ele>178.9</ele>
      </trkpt>
      <trkpt lat="36.26664" lon="29.36852">
        <ele>178.6</ele>
      </trkpt>
      <trkpt lat="36.26666" lon="29.36844">
        <ele>178.6</ele>
      </trkpt>
      <trkpt lat="36.26667" lon="29.36841">
        <ele>178.5</ele>
      </trkpt>
      <trkpt lat="36.26668" lon="29.36834">
        <ele>177.3</ele>
      </trkpt>
      <trkpt lat="36.26667" lon="29.36824">
        <ele>176.4</ele>
      </trkpt>
      <trkpt lat="36.26664" lon="29.36797">
        <ele>172.1</ele>
      </trkpt>
      <trkpt lat="36.2666" lon="29.36778">
        <ele>168.6</ele>
      </trkpt>
      <trkpt lat="36.26657" lon="29.36767">
        <ele>166.7</ele>
      </trkpt>
      <trkpt lat="36.26655" lon="29.36751">
        <ele>164.1</ele>
      </trkpt>
      <trkpt lat="36.26653" lon="29.36745">
        <ele>162.8</ele>
      </trkpt>
      <trkpt lat="36.26655" lon="29.36742">
        <ele>162.3</ele>
      </trkpt>
      <trkpt lat="36.26657" lon="29.36743">
        <ele>162.6</ele>
      </trkpt>
      <trkpt lat="36.26659" lon="29.36741">
        <ele>162.5</ele>
      </trkpt>
      <trkpt lat="36.26657" lon="29.36737">
        <ele>161.5</ele>
      </trkpt>
      <trkpt lat="36.26655" lon="29.36732">
        <ele>160.4</ele>
      </trkpt>
      <trkpt lat="36.26654" lon="29.36728">
        <ele>159.3</ele>
      </trkpt>
      <trkpt lat="36.2665" lon="29.36723">
        <ele>158.1</ele>
      </trkpt>
      <trkpt lat="36.26644" lon="29.36721">
        <ele>157.3</ele>
      </trkpt>
      <trkpt lat="36.26643" lon="29.36714">
        <ele>155.8</ele>
      </trkpt>
      <trkpt lat="36.26644" lon="29.36711">
        <ele>155.3</ele>
      </trkpt>
      <trkpt lat="36.26647" lon="29.36709">
        <ele>155.1</ele>
      </trkpt>
      <trkpt lat="36.26652" lon="29.36707">
        <ele>155</ele>
      </trkpt>
      <trkpt lat="36.26654" lon="29.36704">
        <ele>154.3</ele>
      </trkpt>
      <trkpt lat="36.26652" lon="29.36698">
        <ele>153</ele>
      </trkpt>
      <trkpt lat="36.26648" lon="29.36695">
        <ele>152.2</ele>
      </trkpt>
      <trkpt lat="36.26643" lon="29.36693">
        <ele>151.6</ele>
      </trkpt>
      <trkpt lat="36.26639" lon="29.36691">
        <ele>151</ele>
      </trkpt>
      <trkpt lat="36.26632" lon="29.36686">
        <ele>149.8</ele>
      </trkpt>
      <trkpt lat="36.26626" lon="29.36678">
        <ele>148.1</ele>
      </trkpt>
      <trkpt lat="36.2662" lon="29.36675">
        <ele>147.5</ele>
      </trkpt>
      <trkpt lat="36.26611" lon="29.36673">
        <ele>146.8</ele>
      </trkpt>
      <trkpt lat="36.26609" lon="29.36673">
        <ele>146.7</ele>
      </trkpt>
      <trkpt lat="36.26608" lon="29.36672">
        <ele>146.5</ele>
      </trkpt>
      <trkpt lat="36.26604" lon="29.36669">
        <ele>145.9</ele>
      </trkpt>
      <trkpt lat="36.26598" lon="29.36666">
        <ele>145.2</ele>
      </trkpt>
      <trkpt lat="36.26587" lon="29.36664">
        <ele>144.6</ele>
      </trkpt>
      <trkpt lat="36.26579" lon="29.36679">
        <ele>146.4</ele>
      </trkpt>
      <trkpt lat="36.2656" lon="29.36661">
        <ele>143.3</ele>
      </trkpt>
      <trkpt lat="36.26558" lon="29.36659">
        <ele>143.1</ele>
      </trkpt>
      <trkpt lat="36.26554" lon="29.36656">
        <ele>142.7</ele>
      </trkpt>
      <trkpt lat="36.26549" lon="29.36655">
        <ele>142.5</ele>
      </trkpt>
      <trkpt lat="36.26545" lon="29.36653">
        <ele>142.3</ele>
      </trkpt>
      <trkpt lat="36.2654" lon="29.36648">
        <ele>142</ele>
      </trkpt>
      <trkpt lat="36.26536" lon="29.36643">
        <ele>141.8</ele>
      </trkpt>
      <trkpt lat="36.26535" lon="29.36638">
        <ele>141.6</ele>
      </trkpt>
      <trkpt lat="36.26526" lon="29.36629">
        <ele>141.7</ele>
      </trkpt>
      <trkpt lat="36.26517" lon="29.36623">
        <ele>142.1</ele>
      </trkpt>
      <trkpt lat="36.26506" lon="29.36615">
        <ele>143</ele>
      </trkpt>
      <trkpt lat="36.26503" lon="29.36612">
        <ele>143.4</ele>
      </trkpt>
      <trkpt lat="36.26499" lon="29.36613">
        <ele>143.6</ele>
      </trkpt>
      <trkpt lat="36.26496" lon="29.36614">
        <ele>143.6</ele>
      </trkpt>
      <trkpt lat="36.26493" lon="29.36612">
        <ele>143.8</ele>
      </trkpt>
      <trkpt lat="36.2649" lon="29.36611">
        <ele>144.1</ele>
      </trkpt>
      <trkpt lat="36.26489" lon="29.36608">
        <ele>144.3</ele>
      </trkpt>
      <trkpt lat="36.26487" lon="29.36604">
        <ele>144.9</ele>
      </trkpt>
      <trkpt lat="36.26485" lon="29.366">
        <ele>145.3</ele>
      </trkpt>
      <trkpt lat="36.26479" lon="29.36599">
        <ele>145.9</ele>
      </trkpt>
      <trkpt lat="36.26473" lon="29.36602">
        <ele>146.1</ele>
      </trkpt>
      <trkpt lat="36.26469" lon="29.36601">
        <ele>146.5</ele>
      </trkpt>
      <trkpt lat="36.26466" lon="29.36596">
        <ele>147.7</ele>
      </trkpt>
      <trkpt lat="36.26464" lon="29.36592">
        <ele>148.6</ele>
      </trkpt>
      <trkpt lat="36.26465" lon="29.36585">
        <ele>149.8</ele>
      </trkpt>
      <trkpt lat="36.26465" lon="29.36583">
        <ele>150</ele>
      </trkpt>
      <trkpt lat="36.26462" lon="29.36581">
        <ele>150.3</ele>
      </trkpt>
      <trkpt lat="36.2645" lon="29.36575">
        <ele>151.8</ele>
      </trkpt>
      <trkpt lat="36.26441" lon="29.36571">
        <ele>152.9</ele>
      </trkpt>
      <trkpt lat="36.26433" lon="29.36567">
        <ele>154.1</ele>
      </trkpt>
      <trkpt lat="36.26427" lon="29.3656">
        <ele>154.9</ele>
      </trkpt>
      <trkpt lat="36.26421" lon="29.36553">
        <ele>155.8</ele>
      </trkpt>
      <trkpt lat="36.26416" lon="29.36545">
        <ele>156.5</ele>
      </trkpt>
      <trkpt lat="36.2641" lon="29.36535">
        <ele>156.4</ele>
      </trkpt>
      <trkpt lat="36.26403" lon="29.36524">
        <ele>156.9</ele>
      </trkpt>
      <trkpt lat="36.26389" lon="29.36507">
        <ele>159.2</ele>
      </trkpt>
      <trkpt lat="36.2638" lon="29.36487">
        <ele>160.4</ele>
      </trkpt>
      <trkpt lat="36.26365" lon="29.3645">
        <ele>161.2</ele>
      </trkpt>
      <trkpt lat="36.26348" lon="29.36372">
        <ele>166.2</ele>
      </trkpt>
      <trkpt lat="36.26351" lon="29.36352">
        <ele>166.2</ele>
      </trkpt>
      <trkpt lat="36.26357" lon="29.36345">
        <ele>165.1</ele>
      </trkpt>
      <trkpt lat="36.26357" lon="29.36335">
        <ele>165.3</ele>
      </trkpt>
      <trkpt lat="36.26356" lon="29.36326">
        <ele>166.8</ele>
      </trkpt>
      <trkpt lat="36.2638" lon="29.36268">
        <ele>169.8</ele>
      </trkpt>
      <trkpt lat="36.26393" lon="29.36251">
        <ele>169.1</ele>
      </trkpt>
      <trkpt lat="36.26439" lon="29.36224">
        <ele>167.2</ele>
      </trkpt>
      <trkpt lat="36.26454" lon="29.36221">
        <ele>166.2</ele>
      </trkpt>
      <trkpt lat="36.26463" lon="29.36216">
        <ele>166.5</ele>
      </trkpt>
      <trkpt lat="36.26469" lon="29.36206">
        <ele>168.6</ele>
      </trkpt>
      <trkpt lat="36.26472" lon="29.36203">
        <ele>169.2</ele>
      </trkpt>
      <trkpt lat="36.26497" lon="29.362">
        <ele>167.4</ele>
      </trkpt>
      <trkpt lat="36.26522" lon="29.36203">
        <ele>163.8</ele>
      </trkpt>
      <trkpt lat="36.26542" lon="29.36209">
        <ele>160.2</ele>
      </trkpt>
      <trkpt lat="36.2655" lon="29.36208">
        <ele>159.5</ele>
      </trkpt>
      <trkpt lat="36.26558" lon="29.36205">
        <ele>159.7</ele>
      </trkpt>
      <trkpt lat="36.26569" lon="29.36208">
        <ele>157.4</ele>
      </trkpt>
      <trkpt lat="36.26578" lon="29.36209">
        <ele>156.3</ele>
      </trkpt>
      <trkpt lat="36.26582" lon="29.36206">
        <ele>156.8</ele>
      </trkpt>
      <trkpt lat="36.2659" lon="29.36203">
        <ele>155.6</ele>
      </trkpt>
      <trkpt lat="36.26601" lon="29.36193">
        <ele>155.3</ele>
      </trkpt>
      <trkpt lat="36.26605" lon="29.36184">
        <ele>156.7</ele>
      </trkpt>
      <trkpt lat="36.2661" lon="29.36175">
        <ele>157.6</ele>
      </trkpt>
      <trkpt lat="36.26614" lon="29.36166">
        <ele>158.9</ele>
      </trkpt>
      <trkpt lat="36.26615" lon="29.36154">
        <ele>162.6</ele>
      </trkpt>
      <trkpt lat="36.26614" lon="29.36138">
        <ele>168.5</ele>
      </trkpt>
      <trkpt lat="36.26614" lon="29.36129">
        <ele>171.8</ele>
      </trkpt>
      <trkpt lat="36.26615" lon="29.36113">
        <ele>177</ele>
      </trkpt>
      <trkpt lat="36.26616" lon="29.36105">
        <ele>179.4</ele>
      </trkpt>
      <trkpt lat="36.26619" lon="29.36099">
        <ele>180.9</ele>
      </trkpt>
      <trkpt lat="36.26624" lon="29.36097">
        <ele>180.5</ele>
      </trkpt>
      <trkpt lat="36.26628" lon="29.36098">
        <ele>179.4</ele>
      </trkpt>
      <trkpt lat="36.26633" lon="29.361">
        <ele>177.8</ele>
      </trkpt>
      <trkpt lat="36.26639" lon="29.361">
        <ele>176.2</ele>
      </trkpt>
      <trkpt lat="36.26649" lon="29.36102">
        <ele>173.4</ele>
      </trkpt>
      <trkpt lat="36.26653" lon="29.36102">
        <ele>172.2</ele>
      </trkpt>
      <trkpt lat="36.26664" lon="29.36106">
        <ele>167.9</ele>
      </trkpt>
      <trkpt lat="36.26671" lon="29.36109">
        <ele>165.3</ele>
      </trkpt>
      <trkpt lat="36.26673" lon="29.36109">
        <ele>164.6</ele>
      </trkpt>
      <trkpt lat="36.2668" lon="29.36107">
        <ele>164.1</ele>
      </trkpt>
      <trkpt lat="36.26686" lon="29.36106">
        <ele>163.5</ele>
      </trkpt>
      <trkpt lat="36.26699" lon="29.36103">
        <ele>162</ele>
      </trkpt>
      <trkpt lat="36.26704" lon="29.36102">
        <ele>161.2</ele>
      </trkpt>
      <trkpt lat="36.26708" lon="29.36102">
        <ele>160.6</ele>
      </trkpt>
      <trkpt lat="36.26715" lon="29.36099">
        <ele>160.6</ele>
      </trkpt>
      <trkpt lat="36.26739" lon="29.36085">
        <ele>161.8</ele>
      </trkpt>
      <trkpt lat="36.26754" lon="29.36075">
        <ele>161.6</ele>
      </trkpt>
      <trkpt lat="36.26758" lon="29.36072">
        <ele>161</ele>
      </trkpt>
      <trkpt lat="36.26762" lon="29.36066">
        <ele>161.6</ele>
      </trkpt>
      <trkpt lat="36.26772" lon="29.36055">
        <ele>161.8</ele>
      </trkpt>
      <trkpt lat="36.26776" lon="29.36053">
        <ele>160.9</ele>
      </trkpt>
      <trkpt lat="36.26792" lon="29.36035">
        <ele>161.1</ele>
      </trkpt>
      <trkpt lat="36.26793" lon="29.36032">
        <ele>161.9</ele>
      </trkpt>
      <trkpt lat="36.26801" lon="29.36024">
        <ele>162.1</ele>
      </trkpt>
      <trkpt lat="36.26805" lon="29.36017">
        <ele>163.1</ele>
      </trkpt>
      <trkpt lat="36.26807" lon="29.36016">
        <ele>162.9</ele>
      </trkpt>
      <trkpt lat="36.26817" lon="29.36005">
        <ele>163.1</ele>
      </trkpt>
      <trkpt lat="36.26819" lon="29.36001">
        <ele>163.8</ele>
      </trkpt>
      <trkpt lat="36.26825" lon="29.35996">
        <ele>163.3</ele>
      </trkpt>
      <trkpt lat="36.26838" lon="29.35988">
        <ele>161.8</ele>
      </trkpt>
      <trkpt lat="36.2685" lon="29.3598">
        <ele>161.4</ele>
      </trkpt>
      <trkpt lat="36.26861" lon="29.35971">
        <ele>161.7</ele>
      </trkpt>
      <trkpt lat="36.26872" lon="29.35956">
        <ele>163.6</ele>
      </trkpt>
      <trkpt lat="36.26882" lon="29.35939">
        <ele>166.1</ele>
      </trkpt>
      <trkpt lat="36.2689" lon="29.35929">
        <ele>167.3</ele>
      </trkpt>
      <trkpt lat="36.26902" lon="29.35915">
        <ele>168.2</ele>
      </trkpt>
      <trkpt lat="36.26921" lon="29.35906">
        <ele>165.2</ele>
      </trkpt>
      <trkpt lat="36.26933" lon="29.35901">
        <ele>163</ele>
      </trkpt>
      <trkpt lat="36.26943" lon="29.35895">
        <ele>161.4</ele>
      </trkpt>
      <trkpt lat="36.26957" lon="29.35884">
        <ele>159.4</ele>
      </trkpt>
      <trkpt lat="36.26976" lon="29.35871">
        <ele>156.1</ele>
      </trkpt>
      <trkpt lat="36.2698" lon="29.35864">
        <ele>156.1</ele>
      </trkpt>
      <trkpt lat="36.26982" lon="29.35859">
        <ele>156.6</ele>
      </trkpt>
      <trkpt lat="36.26983" lon="29.35858">
        <ele>156.5</ele>
      </trkpt>
      <trkpt lat="36.26986" lon="29.35854">
        <ele>156.1</ele>
      </trkpt>
      <trkpt lat="36.26989" lon="29.35849">
        <ele>156.2</ele>
      </trkpt>
      <trkpt lat="36.2699" lon="29.35845">
        <ele>156.6</ele>
      </trkpt>
      <trkpt lat="36.2699" lon="29.35836">
        <ele>157.8</ele>
      </trkpt>
      <trkpt lat="36.26992" lon="29.35819">
        <ele>157</ele>
      </trkpt>
      <trkpt lat="36.26994" lon="29.35808">
        <ele>156</ele>
      </trkpt>
      <trkpt lat="36.26993" lon="29.35799">
        <ele>155.9</ele>
      </trkpt>
      <trkpt lat="36.2699" lon="29.35793">
        <ele>156.6</ele>
      </trkpt>
      <trkpt lat="36.26985" lon="29.35787">
        <ele>158.5</ele>
      </trkpt>
      <trkpt lat="36.26982" lon="29.35781">
        <ele>159.4</ele>
      </trkpt>
      <trkpt lat="36.26981" lon="29.35773">
        <ele>159.4</ele>
      </trkpt>
      <trkpt lat="36.26983" lon="29.35763">
        <ele>158.4</ele>
      </trkpt>
      <trkpt lat="36.26984" lon="29.35751">
        <ele>157.7</ele>
      </trkpt>
      <trkpt lat="36.26985" lon="29.35745">
        <ele>157.5</ele>
      </trkpt>
      <trkpt lat="36.26985" lon="29.35739">
        <ele>157.4</ele>
      </trkpt>
      <trkpt lat="36.26987" lon="29.35739">
        <ele>156.7</ele>
      </trkpt>
      <trkpt lat="36.26989" lon="29.35739">
        <ele>155.7</ele>
      </trkpt>
      <trkpt lat="36.26979" lon="29.35726">
        <ele>160.4</ele>
      </trkpt>
      <trkpt lat="36.26977" lon="29.35725">
        <ele>161.2</ele>
      </trkpt>
      <trkpt lat="36.26974" lon="29.35722">
        <ele>162.5</ele>
      </trkpt>
      <trkpt lat="36.26967" lon="29.35716">
        <ele>165</ele>
      </trkpt>
      <trkpt lat="36.26961" lon="29.35712">
        <ele>167.4</ele>
      </trkpt>
      <trkpt lat="36.26953" lon="29.35707">
        <ele>170.3</ele>
      </trkpt>
      <trkpt lat="36.26953" lon="29.35703">
        <ele>170.6</ele>
      </trkpt>
      <trkpt lat="36.26953" lon="29.35697">
        <ele>170.5</ele>
      </trkpt>
      <trkpt lat="36.26956" lon="29.35694">
        <ele>169.7</ele>
      </trkpt>
      <trkpt lat="36.26957" lon="29.3569">
        <ele>169.2</ele>
      </trkpt>
      <trkpt lat="36.26956" lon="29.35683">
        <ele>169.7</ele>
      </trkpt>
      <trkpt lat="36.26955" lon="29.35675">
        <ele>170</ele>
      </trkpt>
      <trkpt lat="36.26958" lon="29.35666">
        <ele>169</ele>
      </trkpt>
      <trkpt lat="36.26957" lon="29.35656">
        <ele>170.5</ele>
      </trkpt>
      <trkpt lat="36.26959" lon="29.35648">
        <ele>170.9</ele>
      </trkpt>
      <trkpt lat="36.26956" lon="29.35642">
        <ele>172.2</ele>
      </trkpt>
      <trkpt lat="36.26954" lon="29.35641">
        <ele>173</ele>
      </trkpt>
      <trkpt lat="36.26946" lon="29.35637">
        <ele>175.5</ele>
      </trkpt>
      <trkpt lat="36.26943" lon="29.35634">
        <ele>176.6</ele>
      </trkpt>
      <trkpt lat="36.26944" lon="29.35627">
        <ele>176.9</ele>
      </trkpt>
      <trkpt lat="36.26941" lon="29.35621">
        <ele>178.3</ele>
      </trkpt>
      <trkpt lat="36.26935" lon="29.35613">
        <ele>180.5</ele>
      </trkpt>
      <trkpt lat="36.26932" lon="29.35608">
        <ele>181.3</ele>
      </trkpt>
      <trkpt lat="36.26928" lon="29.356">
        <ele>182.9</ele>
      </trkpt>
      <trkpt lat="36.26926" lon="29.35594">
        <ele>183.5</ele>
      </trkpt>
      <trkpt lat="36.26926" lon="29.35585">
        <ele>184.1</ele>
      </trkpt>
      <trkpt lat="36.26927" lon="29.35575">
        <ele>184.6</ele>
      </trkpt>
      <trkpt lat="36.26926" lon="29.35564">
        <ele>185.6</ele>
      </trkpt>
      <trkpt lat="36.26915" lon="29.35551">
        <ele>188.7</ele>
      </trkpt>
      <trkpt lat="36.2691" lon="29.35537">
        <ele>191.1</ele>
      </trkpt>
      <trkpt lat="36.26907" lon="29.35529">
        <ele>192.2</ele>
      </trkpt>
      <trkpt lat="36.26905" lon="29.35524">
        <ele>192.9</ele>
      </trkpt>
      <trkpt lat="36.26901" lon="29.35522">
        <ele>194</ele>
      </trkpt>
      <trkpt lat="36.26896" lon="29.35521">
        <ele>195.1</ele>
      </trkpt>
      <trkpt lat="36.26887" lon="29.35518">
        <ele>197</ele>
      </trkpt>
      <trkpt lat="36.2688" lon="29.35512">
        <ele>198.4</ele>
      </trkpt>
      <trkpt lat="36.26872" lon="29.35506">
        <ele>199.7</ele>
      </trkpt>
      <trkpt lat="36.26861" lon="29.35502">
        <ele>201.4</ele>
      </trkpt>
      <trkpt lat="36.26844" lon="29.35495">
        <ele>204.9</ele>
      </trkpt>
      <trkpt lat="36.2684" lon="29.35484">
        <ele>206.8</ele>
      </trkpt>
      <trkpt lat="36.26835" lon="29.35472">
        <ele>208.8</ele>
      </trkpt>
      <trkpt lat="36.2683" lon="29.3546">
        <ele>211.2</ele>
      </trkpt>
      <trkpt lat="36.26831" lon="29.35452">
        <ele>211.7</ele>
      </trkpt>
      <trkpt lat="36.26858" lon="29.35449">
        <ele>209.8</ele>
      </trkpt>
      <trkpt lat="36.26877" lon="29.35458">
        <ele>206.7</ele>
      </trkpt>
      <trkpt lat="36.26891" lon="29.35468">
        <ele>203.2</ele>
      </trkpt>
      <trkpt lat="36.26897" lon="29.35471">
        <ele>202.1</ele>
      </trkpt>
      <trkpt lat="36.26954" lon="29.35458">
        <ele>198.1</ele>
      </trkpt>
      <trkpt lat="36.26961" lon="29.35455">
        <ele>198.2</ele>
      </trkpt>
      <trkpt lat="36.2697" lon="29.35455">
        <ele>196.9</ele>
      </trkpt>
      <trkpt lat="36.2698" lon="29.3545">
        <ele>197.1</ele>
      </trkpt>
      <trkpt lat="36.26993" lon="29.35447">
        <ele>196.2</ele>
      </trkpt>
      <trkpt lat="36.27002" lon="29.35442">
        <ele>196.6</ele>
      </trkpt>
      <trkpt lat="36.2701" lon="29.35442">
        <ele>196.6</ele>
      </trkpt>
      <trkpt lat="36.27041" lon="29.35446">
        <ele>194.8</ele>
      </trkpt>
      <trkpt lat="36.27059" lon="29.35451">
        <ele>193.1</ele>
      </trkpt>
      <trkpt lat="36.27073" lon="29.35451">
        <ele>192.6</ele>
      </trkpt>
      <trkpt lat="36.27086" lon="29.35456">
        <ele>191</ele>
      </trkpt>
      <trkpt lat="36.27097" lon="29.3546">
        <ele>189.6</ele>
      </trkpt>
      <trkpt lat="36.27106" lon="29.35468">
        <ele>186.9</ele>
      </trkpt>
      <trkpt lat="36.27114" lon="29.35475">
        <ele>184.9</ele>
      </trkpt>
      <trkpt lat="36.27123" lon="29.35477">
        <ele>184.1</ele>
      </trkpt>
      <trkpt lat="36.27131" lon="29.35479">
        <ele>183.3</ele>
      </trkpt>
      <trkpt lat="36.27141" lon="29.3548">
        <ele>182.6</ele>
      </trkpt>
      <trkpt lat="36.27153" lon="29.3548">
        <ele>182.2</ele>
      </trkpt>
      <trkpt lat="36.27163" lon="29.35476">
        <ele>182.8</ele>
      </trkpt>
      <trkpt lat="36.27173" lon="29.35473">
        <ele>183.4</ele>
      </trkpt>
      <trkpt lat="36.27183" lon="29.35466">
        <ele>184.9</ele>
      </trkpt>
      <trkpt lat="36.27197" lon="29.35457">
        <ele>186.3</ele>
      </trkpt>
      <trkpt lat="36.27202" lon="29.35455">
        <ele>186.7</ele>
      </trkpt>
      <trkpt lat="36.27206" lon="29.35452">
        <ele>187.1</ele>
      </trkpt>
      <trkpt lat="36.27212" lon="29.35452">
        <ele>186.9</ele>
      </trkpt>
      <trkpt lat="36.27216" lon="29.35454">
        <ele>186.3</ele>
      </trkpt>
      <trkpt lat="36.2722" lon="29.35458">
        <ele>185.5</ele>
      </trkpt>
      <trkpt lat="36.27225" lon="29.3546">
        <ele>184.9</ele>
      </trkpt>
      <trkpt lat="36.2723" lon="29.3546">
        <ele>184.9</ele>
      </trkpt>
      <trkpt lat="36.27233" lon="29.35459">
        <ele>184.8</ele>
      </trkpt>
      <trkpt lat="36.27239" lon="29.35454">
        <ele>185.5</ele>
      </trkpt>
      <trkpt lat="36.27253" lon="29.35446">
        <ele>186.1</ele>
      </trkpt>
      <trkpt lat="36.27283" lon="29.35431">
        <ele>184.8</ele>
      </trkpt>
      <trkpt lat="36.27313" lon="29.35408">
        <ele>184.4</ele>
      </trkpt>
      <trkpt lat="36.27319" lon="29.35407">
        <ele>183.8</ele>
      </trkpt>
      <trkpt lat="36.27334" lon="29.35405">
        <ele>182.3</ele>
      </trkpt>
      <trkpt lat="36.27343" lon="29.354">
        <ele>181.7</ele>
      </trkpt>
      <trkpt lat="36.27355" lon="29.35389">
        <ele>182</ele>
      </trkpt>
      <trkpt lat="36.27363" lon="29.35376">
        <ele>183.1</ele>
      </trkpt>
      <trkpt lat="36.27367" lon="29.35361">
        <ele>185.1</ele>
      </trkpt>
      <trkpt lat="36.27369" lon="29.35355">
        <ele>185.8</ele>
      </trkpt>
      <trkpt lat="36.27381" lon="29.35343">
        <ele>186.1</ele>
      </trkpt>
      <trkpt lat="36.27393" lon="29.35331">
        <ele>186.1</ele>
      </trkpt>
      <trkpt lat="36.27415" lon="29.35303">
        <ele>186.7</ele>
      </trkpt>
      <trkpt lat="36.2742" lon="29.353">
        <ele>186.8</ele>
      </trkpt>
      <trkpt lat="36.27424" lon="29.35298">
        <ele>186.9</ele>
      </trkpt>
      <trkpt lat="36.27431" lon="29.35297">
        <ele>186.9</ele>
      </trkpt>
      <trkpt lat="36.27442" lon="29.35294">
        <ele>186.6</ele>
      </trkpt>
      <trkpt lat="36.27457" lon="29.35289">
        <ele>186.3</ele>
      </trkpt>
      <trkpt lat="36.27469" lon="29.35284">
        <ele>186</ele>
      </trkpt>
      <trkpt lat="36.27478" lon="29.35284">
        <ele>185.4</ele>
      </trkpt>
      <trkpt lat="36.27487" lon="29.35284">
        <ele>184.7</ele>
      </trkpt>
      <trkpt lat="36.27494" lon="29.35282">
        <ele>184.3</ele>
      </trkpt>
      <trkpt lat="36.27505" lon="29.35279">
        <ele>184.1</ele>
      </trkpt>
      <trkpt lat="36.27517" lon="29.35275">
        <ele>184.4</ele>
      </trkpt>
      <trkpt lat="36.27524" lon="29.35275">
        <ele>184.6</ele>
      </trkpt>
      <trkpt lat="36.27532" lon="29.35276">
        <ele>184.7</ele>
      </trkpt>
      <trkpt lat="36.27539" lon="29.35275">
        <ele>184.9</ele>
      </trkpt>
      <trkpt lat="36.27541" lon="29.35271">
        <ele>185.1</ele>
      </trkpt>
      <trkpt lat="36.27544" lon="29.35252">
        <ele>186</ele>
      </trkpt>
      <trkpt lat="36.27546" lon="29.35245">
        <ele>186.1</ele>
      </trkpt>
      <trkpt lat="36.27549" lon="29.35239">
        <ele>186.1</ele>
      </trkpt>
      <trkpt lat="36.27551" lon="29.35234">
        <ele>186.1</ele>
      </trkpt>
      <trkpt lat="36.27553" lon="29.35222">
        <ele>185.9</ele>
      </trkpt>
      <trkpt lat="36.27557" lon="29.35207">
        <ele>185.6</ele>
      </trkpt>
      <trkpt lat="36.2756" lon="29.35201">
        <ele>185.3</ele>
      </trkpt>
      <trkpt lat="36.27562" lon="29.352">
        <ele>185.2</ele>
      </trkpt>
      <trkpt lat="36.27572" lon="29.35195">
        <ele>184.4</ele>
      </trkpt>
      <trkpt lat="36.27582" lon="29.35192">
        <ele>183.6</ele>
      </trkpt>
      <trkpt lat="36.27586" lon="29.35191">
        <ele>183.4</ele>
      </trkpt>
      <trkpt lat="36.27589" lon="29.35188">
        <ele>183.2</ele>
      </trkpt>
      <trkpt lat="36.27602" lon="29.35177">
        <ele>182.2</ele>
      </trkpt>
      <trkpt lat="36.27611" lon="29.35166">
        <ele>181.4</ele>
      </trkpt>
      <trkpt lat="36.27616" lon="29.35163">
        <ele>181.4</ele>
      </trkpt>
      <trkpt lat="36.2762" lon="29.35162">
        <ele>181.3</ele>
      </trkpt>
      <trkpt lat="36.27626" lon="29.35164">
        <ele>181.1</ele>
      </trkpt>
      <trkpt lat="36.27634" lon="29.35168">
        <ele>180.9</ele>
      </trkpt>
      <trkpt lat="36.27638" lon="29.35167">
        <ele>180.7</ele>
      </trkpt>
      <trkpt lat="36.27645" lon="29.35162">
        <ele>180.6</ele>
      </trkpt>
      <trkpt lat="36.27673" lon="29.35134">
        <ele>179.5</ele>
      </trkpt>
      <trkpt lat="36.27679" lon="29.35126">
        <ele>178.9</ele>
      </trkpt>
      <trkpt lat="36.27682" lon="29.35115">
        <ele>178.4</ele>
      </trkpt>
      <trkpt lat="36.27685" lon="29.35094">
        <ele>177.4</ele>
      </trkpt>
      <trkpt lat="36.27687" lon="29.35089">
        <ele>177</ele>
      </trkpt>
      <trkpt lat="36.27696" lon="29.35083">
        <ele>175.6</ele>
      </trkpt>
      <trkpt lat="36.27699" lon="29.35078">
        <ele>175.4</ele>
      </trkpt>
      <trkpt lat="36.27708" lon="29.35061">
        <ele>176</ele>
      </trkpt>
      <trkpt lat="36.27715" lon="29.3505">
        <ele>176.3</ele>
      </trkpt>
      <trkpt lat="36.27729" lon="29.35033">
        <ele>176.4</ele>
      </trkpt>
      <trkpt lat="36.27734" lon="29.35028">
        <ele>176.4</ele>
      </trkpt>
      <trkpt lat="36.2774" lon="29.35026">
        <ele>175.9</ele>
      </trkpt>
      <trkpt lat="36.27759" lon="29.35024">
        <ele>173.1</ele>
      </trkpt>
      <trkpt lat="36.27768" lon="29.35018">
        <ele>172.1</ele>
      </trkpt>
      <trkpt lat="36.2778" lon="29.35013">
        <ele>170.3</ele>
      </trkpt>
      <trkpt lat="36.27805" lon="29.35">
        <ele>166.7</ele>
      </trkpt>
      <trkpt lat="36.27812" lon="29.34994">
        <ele>166.3</ele>
      </trkpt>
      <trkpt lat="36.27819" lon="29.34984">
        <ele>165.9</ele>
      </trkpt>
      <trkpt lat="36.27828" lon="29.34969">
        <ele>165.4</ele>
      </trkpt>
      <trkpt lat="36.27833" lon="29.3495">
        <ele>165.9</ele>
      </trkpt>
      <trkpt lat="36.27835" lon="29.34941">
        <ele>166</ele>
      </trkpt>
      <trkpt lat="36.27837" lon="29.34934">
        <ele>165.8</ele>
      </trkpt>
      <trkpt lat="36.2784" lon="29.34925">
        <ele>165.5</ele>
      </trkpt>
      <trkpt lat="36.27844" lon="29.34917">
        <ele>164.8</ele>
      </trkpt>
      <trkpt lat="36.27847" lon="29.34911">
        <ele>163.8</ele>
      </trkpt>
      <trkpt lat="36.27856" lon="29.349">
        <ele>160.9</ele>
      </trkpt>
      <trkpt lat="36.2786" lon="29.34895">
        <ele>159.5</ele>
      </trkpt>
      <trkpt lat="36.27861" lon="29.34892">
        <ele>159.2</ele>
      </trkpt>
      <trkpt lat="36.27861" lon="29.34885">
        <ele>159.5</ele>
      </trkpt>
      <trkpt lat="36.2786" lon="29.34872">
        <ele>160.6</ele>
      </trkpt>
      <trkpt lat="36.2786" lon="29.34865">
        <ele>161.2</ele>
      </trkpt>
      <trkpt lat="36.27857" lon="29.3485">
        <ele>163.1</ele>
      </trkpt>
      <trkpt lat="36.27855" lon="29.34839">
        <ele>164.8</ele>
      </trkpt>
      <trkpt lat="36.2785" lon="29.34808">
        <ele>166.2</ele>
      </trkpt>
      <trkpt lat="36.27847" lon="29.34794">
        <ele>166.8</ele>
      </trkpt>
      <trkpt lat="36.27844" lon="29.34785">
        <ele>167.4</ele>
      </trkpt>
      <trkpt lat="36.2784" lon="29.34774">
        <ele>167.9</ele>
      </trkpt>
      <trkpt lat="36.27837" lon="29.34758">
        <ele>167.7</ele>
      </trkpt>
      <trkpt lat="36.27836" lon="29.34752">
        <ele>167.4</ele>
      </trkpt>
      <trkpt lat="36.27836" lon="29.34742">
        <ele>167</ele>
      </trkpt>
      <trkpt lat="36.27836" lon="29.34737">
        <ele>166.8</ele>
      </trkpt>
      <trkpt lat="36.27836" lon="29.34722">
        <ele>166.4</ele>
      </trkpt>
      <trkpt lat="36.27837" lon="29.34708">
        <ele>165.8</ele>
      </trkpt>
      <trkpt lat="36.27837" lon="29.34697">
        <ele>165.4</ele>
      </trkpt>
      <trkpt lat="36.27835" lon="29.3466">
        <ele>164</ele>
      </trkpt>
      <trkpt lat="36.27842" lon="29.34595">
        <ele>156.9</ele>
      </trkpt>
      <trkpt lat="36.27835" lon="29.34577">
        <ele>155.8</ele>
      </trkpt>
      <trkpt lat="36.27832" lon="29.34565">
        <ele>155.7</ele>
      </trkpt>
      <trkpt lat="36.27832" lon="29.34554">
        <ele>155.3</ele>
      </trkpt>
      <trkpt lat="36.27834" lon="29.34546">
        <ele>154.6</ele>
      </trkpt>
      <trkpt lat="36.27836" lon="29.34542">
        <ele>154.6</ele>
      </trkpt>
      <trkpt lat="36.27838" lon="29.34535">
        <ele>154.4</ele>
      </trkpt>
      <trkpt lat="36.27839" lon="29.34527">
        <ele>154.2</ele>
      </trkpt>
      <trkpt lat="36.27839" lon="29.34522">
        <ele>154</ele>
      </trkpt>
      <trkpt lat="36.27834" lon="29.34503">
        <ele>153.2</ele>
      </trkpt>
      <trkpt lat="36.27821" lon="29.34457">
        <ele>155.1</ele>
      </trkpt>
      <trkpt lat="36.27792" lon="29.34398">
        <ele>158.7</ele>
      </trkpt>
      <trkpt lat="36.27793" lon="29.34378">
        <ele>160.5</ele>
      </trkpt>
      <trkpt lat="36.27823" lon="29.34307">
        <ele>165.4</ele>
      </trkpt>
      <trkpt lat="36.2784" lon="29.34266">
        <ele>167.8</ele>
      </trkpt>
      <trkpt lat="36.27841" lon="29.34235">
        <ele>170.2</ele>
      </trkpt>
      <trkpt lat="36.27826" lon="29.34161">
        <ele>175.8</ele>
      </trkpt>
      <trkpt lat="36.27809" lon="29.34135">
        <ele>177.9</ele>
      </trkpt>
      <trkpt lat="36.27814" lon="29.34096">
        <ele>179.2</ele>
      </trkpt>
      <trkpt lat="36.27837" lon="29.34031">
        <ele>177.4</ele>
      </trkpt>
      <trkpt lat="36.27836" lon="29.33997">
        <ele>175.9</ele>
      </trkpt>
      <trkpt lat="36.27759" lon="29.33883">
        <ele>165.3</ele>
      </trkpt>
      <trkpt lat="36.27723" lon="29.33875">
        <ele>168.7</ele>
      </trkpt>
      <trkpt lat="36.27692" lon="29.33835">
        <ele>169</ele>
      </trkpt>
      <trkpt lat="36.27695" lon="29.33748">
        <ele>163.7</ele>
      </trkpt>
      <trkpt lat="36.27709" lon="29.33687">
        <ele>163.4</ele>
      </trkpt>
      <trkpt lat="36.27739" lon="29.33647">
        <ele>159.1</ele>
      </trkpt>
      <trkpt lat="36.2779" lon="29.33604">
        <ele>155.6</ele>
      </trkpt>
      <trkpt lat="36.27926" lon="29.33577">
        <ele>144.8</ele>
      </trkpt>
      <trkpt lat="36.27963" lon="29.33565">
        <ele>141.6</ele>
      </trkpt>
      <trkpt lat="36.27983" lon="29.33526">
        <ele>139</ele>
      </trkpt>
      <trkpt lat="36.27973" lon="29.33417">
        <ele>139.3</ele>
      </trkpt>
      <trkpt lat="36.27987" lon="29.33331">
        <ele>140.5</ele>
      </trkpt>
      <trkpt lat="36.28023" lon="29.33246">
        <ele>129.6</ele>
      </trkpt>
      <trkpt lat="36.28025" lon="29.33211">
        <ele>125.3</ele>
      </trkpt>
      <trkpt lat="36.27995" lon="29.33163">
        <ele>128.1</ele>
      </trkpt>
      <trkpt lat="36.27978" lon="29.3315">
        <ele>124.7</ele>
      </trkpt>
      <trkpt lat="36.27944" lon="29.33145">
        <ele>126.9</ele>
      </trkpt>
      <trkpt lat="36.27796" lon="29.33184">
        <ele>149.4</ele>
      </trkpt>
      <trkpt lat="36.27803" lon="29.33147">
        <ele>145.1</ele>
      </trkpt>
      <trkpt lat="36.2774" lon="29.32939">
        <ele>144.5</ele>
      </trkpt>
      <trkpt lat="36.27702" lon="29.32891">
        <ele>140.4</ele>
      </trkpt>
      <trkpt lat="36.27648" lon="29.32854">
        <ele>136.9</ele>
      </trkpt>
      <trkpt lat="36.27585" lon="29.32833">
        <ele>139.8</ele>
      </trkpt>
      <trkpt lat="36.27617" lon="29.32779">
        <ele>131.8</ele>
      </trkpt>
      <trkpt lat="36.2763" lon="29.32694">
        <ele>125.5</ele>
      </trkpt>
      <trkpt lat="36.27588" lon="29.32574">
        <ele>122.5</ele>
      </trkpt>
      <trkpt lat="36.27512" lon="29.32522">
        <ele>122.5</ele>
      </trkpt>
      <trkpt lat="36.27445" lon="29.32503">
        <ele>122.6</ele>
      </trkpt>
      <trkpt lat="36.27407" lon="29.32536">
        <ele>123.4</ele>
      </trkpt>
      <trkpt lat="36.27348" lon="29.32559">
        <ele>113.6</ele>
      </trkpt>
      <trkpt lat="36.27298" lon="29.32617">
        <ele>116.1</ele>
      </trkpt>
      <trkpt lat="36.27246" lon="29.32648">
        <ele>112.7</ele>
      </trkpt>
      <trkpt lat="36.27208" lon="29.32654">
        <ele>109.2</ele>
      </trkpt>
      <trkpt lat="36.27164" lon="29.3264">
        <ele>102.3</ele>
      </trkpt>
      <trkpt lat="36.27148" lon="29.32615">
        <ele>99.5</ele>
      </trkpt>
      <trkpt lat="36.27127" lon="29.32619">
        <ele>99.1</ele>
      </trkpt>
      <trkpt lat="36.27076" lon="29.32651">
        <ele>97.5</ele>
      </trkpt>
      <trkpt lat="36.27076" lon="29.32668">
        <ele>97.5</ele>
      </trkpt>
      <trkpt lat="36.27058" lon="29.32669">
        <ele>98.4</ele>
      </trkpt>
      <trkpt lat="36.27044" lon="29.3264">
        <ele>98.8</ele>
      </trkpt>
      <trkpt lat="36.27015" lon="29.32607">
        <ele>99.2</ele>
      </trkpt>
      <trkpt lat="36.26941" lon="29.32557">
        <ele>99.5</ele>
      </trkpt>
      <trkpt lat="36.26941" lon="29.32557">
        <ele>99.5</ele>
      </trkpt>
      <trkpt lat="36.26578" lon="29.31872">
        <ele>13.2</ele>
      </trkpt>
      <trkpt lat="36.26583" lon="29.3189">
        <ele>13.3</ele>
      </trkpt>
      <trkpt lat="36.26637" lon="29.31997">
        <ele>25.4</ele>
      </trkpt>
      <trkpt lat="36.26745" lon="29.32028">
        <ele>50.5</ele>
      </trkpt>
      <trkpt lat="36.26843" lon="29.32069">
        <ele>65.6</ele>
      </trkpt>
      <trkpt lat="36.26872" lon="29.32212">
        <ele>79.6</ele>
      </trkpt>
      <trkpt lat="36.26899" lon="29.32218">
        <ele>80.7</ele>
      </trkpt>
      <trkpt lat="36.269" lon="29.32237">
        <ele>81.2</ele>
      </trkpt>
      <trkpt lat="36.26901" lon="29.32302">
        <ele>88</ele>
      </trkpt>
      <trkpt lat="36.2692" lon="29.32346">
        <ele>92.5</ele>
      </trkpt>
      <trkpt lat="36.26938" lon="29.32351">
        <ele>92.9</ele>
      </trkpt>
      <trkpt lat="36.26958" lon="29.32378">
        <ele>96.4</ele>
      </trkpt>
      <trkpt lat="36.26963" lon="29.32464">
        <ele>101.3</ele>
      </trkpt>
      <trkpt lat="36.26946" lon="29.32511">
        <ele>100.5</ele>
      </trkpt>
      <trkpt lat="36.26941" lon="29.32557">
        <ele>99.5</ele>
      </trkpt>
      <trkpt lat="36.26947" lon="29.32622">
        <ele>99.3</ele>
      </trkpt>
      <trkpt lat="36.26831" lon="29.32898">
        <ele>118.1</ele>
      </trkpt>
      <trkpt lat="36.26874" lon="29.32935">
        <ele>124.5</ele>
      </trkpt>
      <trkpt lat="36.26904" lon="29.3298">
        <ele>130.7</ele>
      </trkpt>
      <trkpt lat="36.26836" lon="29.33011">
        <ele>138.1</ele>
      </trkpt>
      <trkpt lat="36.26772" lon="29.33034">
        <ele>143.2</ele>
      </trkpt>
      <trkpt lat="36.26605" lon="29.3306">
        <ele>154.1</ele>
      </trkpt>
      <trkpt lat="36.26526" lon="29.33044">
        <ele>157.2</ele>
      </trkpt>
      <trkpt lat="36.26488" lon="29.3307">
        <ele>166</ele>
      </trkpt>
      <trkpt lat="36.26451" lon="29.3312">
        <ele>173.8</ele>
      </trkpt>
      <trkpt lat="36.26392" lon="29.33111">
        <ele>174.7</ele>
      </trkpt>
      <trkpt lat="36.26362" lon="29.33145">
        <ele>179.7</ele>
      </trkpt>
      <trkpt lat="36.26341" lon="29.33153">
        <ele>181.4</ele>
      </trkpt>
      <trkpt lat="36.2621" lon="29.33132">
        <ele>194.1</ele>
      </trkpt>
      <trkpt lat="36.26076" lon="29.33121">
        <ele>201.1</ele>
      </trkpt>
      <trkpt lat="36.2598" lon="29.33173">
        <ele>210.5</ele>
      </trkpt>
      <trkpt lat="36.25944" lon="29.33177">
        <ele>211.6</ele>
      </trkpt>
      <trkpt lat="36.25899" lon="29.33134">
        <ele>208.8</ele>
      </trkpt>
      <trkpt lat="36.25878" lon="29.33075">
        <ele>206.1</ele>
      </trkpt>
      <trkpt lat="36.25855" lon="29.3305">
        <ele>207.8</ele>
      </trkpt>
      <trkpt lat="36.25751" lon="29.33035">
        <ele>216.9</ele>
      </trkpt>
      <trkpt lat="36.25693" lon="29.3304">
        <ele>222.4</ele>
      </trkpt>
      <trkpt lat="36.25682" lon="29.33041">
        <ele>223.5</ele>
      </trkpt>
      <trkpt lat="36.25619" lon="29.33034">
        <ele>225.9</ele>
      </trkpt>
      <trkpt lat="36.25549" lon="29.33036">
        <ele>228.1</ele>
      </trkpt>
      <trkpt lat="36.25503" lon="29.33032">
        <ele>227.4</ele>
      </trkpt>
      <trkpt lat="36.25456" lon="29.33007">
        <ele>223.9</ele>
      </trkpt>
      <trkpt lat="36.25444" lon="29.33006">
        <ele>223.1</ele>
      </trkpt>
      <trkpt lat="36.25433" lon="29.33023">
        <ele>220.3</ele>
      </trkpt>
      <trkpt lat="36.25437" lon="29.33047">
        <ele>218.2</ele>
      </trkpt>
      <trkpt lat="36.25453" lon="29.33065">
        <ele>219.2</ele>
      </trkpt>
      <trkpt lat="36.25483" lon="29.33082">
        <ele>224.3</ele>
      </trkpt>
      <trkpt lat="36.25498" lon="29.33104">
        <ele>223.2</ele>
      </trkpt>
      <trkpt lat="36.2551" lon="29.33147">
        <ele>218.1</ele>
      </trkpt>
      <trkpt lat="36.25509" lon="29.33159">
        <ele>215.5</ele>
      </trkpt>
      <trkpt lat="36.25481" lon="29.33122">
        <ele>215.1</ele>
      </trkpt>
      <trkpt lat="36.25465" lon="29.33118">
        <ele>212</ele>
      </trkpt>
      <trkpt lat="36.25416" lon="29.33131">
        <ele>195.5</ele>
      </trkpt>
      <trkpt lat="36.25399" lon="29.33113">
        <ele>193.3</ele>
      </trkpt>
      <trkpt lat="36.25364" lon="29.33098">
        <ele>182.2</ele>
      </trkpt>
      <trkpt lat="36.25351" lon="29.33064">
        <ele>183.6</ele>
      </trkpt>
      <trkpt lat="36.25319" lon="29.33032">
        <ele>176.9</ele>
      </trkpt>
      <trkpt lat="36.25323" lon="29.33067">
        <ele>171</ele>
      </trkpt>
      <trkpt lat="36.25316" lon="29.33084">
        <ele>165.1</ele>
      </trkpt>
      <trkpt lat="36.25298" lon="29.33056">
        <ele>163.5</ele>
      </trkpt>
      <trkpt lat="36.25251" lon="29.33027">
        <ele>151.7</ele>
      </trkpt>
      <trkpt lat="36.25205" lon="29.33021">
        <ele>136.7</ele>
      </trkpt>
      <trkpt lat="36.25163" lon="29.32945">
        <ele>132.3</ele>
      </trkpt>
      <trkpt lat="36.25144" lon="29.32926">
        <ele>126.4</ele>
      </trkpt>
      <trkpt lat="36.25137" lon="29.32945">
        <ele>121.8</ele>
      </trkpt>
      <trkpt lat="36.25123" lon="29.33004">
        <ele>111.2</ele>
      </trkpt>
      <trkpt lat="36.25124" lon="29.33047">
        <ele>104</ele>
      </trkpt>
      <trkpt lat="36.25069" lon="29.32991">
        <ele>94.5</ele>
      </trkpt>
      <trkpt lat="36.25055" lon="29.32951">
        <ele>92.8</ele>
      </trkpt>
      <trkpt lat="36.25024" lon="29.32982">
        <ele>85.6</ele>
      </trkpt>
      <trkpt lat="36.25016" lon="29.3299">
        <ele>83.9</ele>
      </trkpt>
      <trkpt lat="36.24978" lon="29.33073">
        <ele>68.3</ele>
      </trkpt>
      <trkpt lat="36.2498" lon="29.33087">
        <ele>67</ele>
      </trkpt>
      <trkpt lat="36.24975" lon="29.33106">
        <ele>62.9</ele>
      </trkpt>
      <trkpt lat="36.24978" lon="29.33123">
        <ele>61.1</ele>
      </trkpt>
      <trkpt lat="36.24977" lon="29.33147">
        <ele>57.1</ele>
      </trkpt>
      <trkpt lat="36.24987" lon="29.33169">
        <ele>55.6</ele>
      </trkpt>
      <trkpt lat="36.25024" lon="29.33205">
        <ele>58.7</ele>
      </trkpt>
      <trkpt lat="36.25033" lon="29.33229">
        <ele>58.1</ele>
      </trkpt>
      <trkpt lat="36.25007" lon="29.3325">
        <ele>53.7</ele>
      </trkpt>
      <trkpt lat="36.24982" lon="29.33254">
        <ele>52.7</ele>
      </trkpt>
      <trkpt lat="36.24971" lon="29.33268">
        <ele>54.3</ele>
      </trkpt>
      <trkpt lat="36.2494" lon="29.33283">
        <ele>54.9</ele>
      </trkpt>
      <trkpt lat="36.24927" lon="29.333">
        <ele>56.8</ele>
      </trkpt>
      <trkpt lat="36.24905" lon="29.33313">
        <ele>57.6</ele>
      </trkpt>
      <trkpt lat="36.24895" lon="29.33338">
        <ele>60.8</ele>
      </trkpt>
      <trkpt lat="36.24884" lon="29.33338">
        <ele>60.3</ele>
      </trkpt>
      <trkpt lat="36.24866" lon="29.33323">
        <ele>57.5</ele>
      </trkpt>
      <trkpt lat="36.24841" lon="29.33329">
        <ele>57.5</ele>
      </trkpt>
      <trkpt lat="36.24827" lon="29.33348">
        <ele>59</ele>
      </trkpt>
      <trkpt lat="36.24797" lon="29.33364">
        <ele>59.2</ele>
      </trkpt>
      <trkpt lat="36.24791" lon="29.33374">
        <ele>60.1</ele>
      </trkpt>
      <trkpt lat="36.24741" lon="29.33394">
        <ele>61.2</ele>
      </trkpt>
      <trkpt lat="36.24738" lon="29.33424">
        <ele>64.4</ele>
      </trkpt>
      <trkpt lat="36.24701" lon="29.33465">
        <ele>65.3</ele>
      </trkpt>
      <trkpt lat="36.24679" lon="29.33472">
        <ele>65.1</ele>
      </trkpt>
      <trkpt lat="36.2465" lon="29.33472">
        <ele>64.9</ele>
      </trkpt>
      <trkpt lat="36.24614" lon="29.33475">
        <ele>64.9</ele>
      </trkpt>
      <trkpt lat="36.24609" lon="29.3348">
        <ele>65.2</ele>
      </trkpt>
      <trkpt lat="36.24592" lon="29.33493">
        <ele>66.3</ele>
      </trkpt>
      <trkpt lat="36.24571" lon="29.33512">
        <ele>65.2</ele>
      </trkpt>
      <trkpt lat="36.24557" lon="29.33526">
        <ele>63.3</ele>
      </trkpt>
      <trkpt lat="36.24554" lon="29.33533">
        <ele>62.9</ele>
      </trkpt>
      <trkpt lat="36.24552" lon="29.33542">
        <ele>62.8</ele>
      </trkpt>
      <trkpt lat="36.2455" lon="29.33589">
        <ele>63.7</ele>
      </trkpt>
      <trkpt lat="36.24547" lon="29.33601">
        <ele>64.1</ele>
      </trkpt>
      <trkpt lat="36.24538" lon="29.33604">
        <ele>63.2</ele>
      </trkpt>
      <trkpt lat="36.24532" lon="29.3361">
        <ele>62.6</ele>
      </trkpt>
      <trkpt lat="36.2453" lon="29.33614">
        <ele>62.5</ele>
      </trkpt>
      <trkpt lat="36.24535" lon="29.33631">
        <ele>64</ele>
      </trkpt>
      <trkpt lat="36.24542" lon="29.33659">
        <ele>66.7</ele>
      </trkpt>
      <trkpt lat="36.24548" lon="29.33675">
        <ele>68.8</ele>
      </trkpt>
      <trkpt lat="36.24546" lon="29.33686">
        <ele>69.2</ele>
      </trkpt>
      <trkpt lat="36.2454" lon="29.33697">
        <ele>68.9</ele>
      </trkpt>
      <trkpt lat="36.24526" lon="29.33688">
        <ele>65.8</ele>
      </trkpt>
      <trkpt lat="36.24517" lon="29.33688">
        <ele>64.3</ele>
      </trkpt>
      <trkpt lat="36.24506" lon="29.33702">
        <ele>63.8</ele>
      </trkpt>
      <trkpt lat="36.24497" lon="29.33698">
        <ele>62</ele>
      </trkpt>
      <trkpt lat="36.24488" lon="29.33703">
        <ele>61.8</ele>
      </trkpt>
      <trkpt lat="36.24475" lon="29.33705">
        <ele>60.8</ele>
      </trkpt>
      <trkpt lat="36.24464" lon="29.33712">
        <ele>61.1</ele>
      </trkpt>
      <trkpt lat="36.24454" lon="29.33708">
        <ele>59.6</ele>
      </trkpt>
      <trkpt lat="36.24436" lon="29.33727">
        <ele>62.9</ele>
      </trkpt>
      <trkpt lat="36.24428" lon="29.33729">
        <ele>63.2</ele>
      </trkpt>
      <trkpt lat="36.24417" lon="29.33742">
        <ele>66.7</ele>
      </trkpt>
      <trkpt lat="36.24413" lon="29.33754">
        <ele>68.1</ele>
      </trkpt>
      <trkpt lat="36.24409" lon="29.33773">
        <ele>68.6</ele>
      </trkpt>
      <trkpt lat="36.24402" lon="29.33793">
        <ele>68.8</ele>
      </trkpt>
      <trkpt lat="36.24398" lon="29.33825">
        <ele>71.3</ele>
      </trkpt>
      <trkpt lat="36.24391" lon="29.3384">
        <ele>71.2</ele>
      </trkpt>
      <trkpt lat="36.24377" lon="29.33846">
        <ele>69.5</ele>
      </trkpt>
      <trkpt lat="36.24376" lon="29.33854">
        <ele>69.9</ele>
      </trkpt>
      <trkpt lat="36.24379" lon="29.33887">
        <ele>72</ele>
      </trkpt>
      <trkpt lat="36.24385" lon="29.33907">
        <ele>73.4</ele>
      </trkpt>
      <trkpt lat="36.24409" lon="29.33948">
        <ele>74.6</ele>
      </trkpt>
      <trkpt lat="36.24417" lon="29.3396">
        <ele>74.5</ele>
      </trkpt>
      <trkpt lat="36.24437" lon="29.3402">
        <ele>73.9</ele>
      </trkpt>
      <trkpt lat="36.24444" lon="29.34046">
        <ele>73.8</ele>
      </trkpt>
      <trkpt lat="36.24462" lon="29.34071">
        <ele>74.2</ele>
      </trkpt>
      <trkpt lat="36.24474" lon="29.34063">
        <ele>74.7</ele>
      </trkpt>
      <trkpt lat="36.24493" lon="29.34058">
        <ele>75.4</ele>
      </trkpt>
      <trkpt lat="36.2451" lon="29.34057">
        <ele>76.3</ele>
      </trkpt>
      <trkpt lat="36.2452" lon="29.34059">
        <ele>77</ele>
      </trkpt>
      <trkpt lat="36.24536" lon="29.34069">
        <ele>78.2</ele>
      </trkpt>
      <trkpt lat="36.24564" lon="29.34088">
        <ele>81.1</ele>
      </trkpt>
      <trkpt lat="36.24577" lon="29.34092">
        <ele>82.4</ele>
      </trkpt>
      <trkpt lat="36.24586" lon="29.34096">
        <ele>83.9</ele>
      </trkpt>
      <trkpt lat="36.24587" lon="29.34102">
        <ele>84.7</ele>
      </trkpt>
      <trkpt lat="36.24586" lon="29.34114">
        <ele>85.4</ele>
      </trkpt>
      <trkpt lat="36.24589" lon="29.34134">
        <ele>88.2</ele>
      </trkpt>
      <trkpt lat="36.24592" lon="29.34147">
        <ele>90.1</ele>
      </trkpt>
      <trkpt lat="36.2459" lon="29.34178">
        <ele>93.5</ele>
      </trkpt>
      <trkpt lat="36.24582" lon="29.34193">
        <ele>94.7</ele>
      </trkpt>
      <trkpt lat="36.24578" lon="29.3421">
        <ele>97.3</ele>
      </trkpt>
      <trkpt lat="36.24578" lon="29.3423">
        <ele>100.9</ele>
      </trkpt>
      <trkpt lat="36.24575" lon="29.34253">
        <ele>104.6</ele>
      </trkpt>
      <trkpt lat="36.24574" lon="29.34272">
        <ele>107.8</ele>
      </trkpt>
      <trkpt lat="36.24572" lon="29.34303">
        <ele>112.9</ele>
      </trkpt>
      <trkpt lat="36.24566" lon="29.34336">
        <ele>118.2</ele>
      </trkpt>
      <trkpt lat="36.24563" lon="29.34386">
        <ele>129.6</ele>
      </trkpt>
      <trkpt lat="36.24561" lon="29.34404">
        <ele>133.8</ele>
      </trkpt>
      <trkpt lat="36.24568" lon="29.34411">
        <ele>135.5</ele>
      </trkpt>
      <trkpt lat="36.2457" lon="29.34417">
        <ele>137</ele>
      </trkpt>
      <trkpt lat="36.24572" lon="29.3443">
        <ele>139.6</ele>
      </trkpt>
      <trkpt lat="36.24574" lon="29.34437">
        <ele>141.1</ele>
      </trkpt>
      <trkpt lat="36.24584" lon="29.34453">
        <ele>144</ele>
      </trkpt>
      <trkpt lat="36.24596" lon="29.3447">
        <ele>147.4</ele>
      </trkpt>
      <trkpt lat="36.24608" lon="29.3448">
        <ele>149.3</ele>
      </trkpt>
      <trkpt lat="36.24621" lon="29.34492">
        <ele>151.9</ele>
      </trkpt>
      <trkpt lat="36.24636" lon="29.34503">
        <ele>154.3</ele>
      </trkpt>
      <trkpt lat="36.24651" lon="29.34506">
        <ele>155.4</ele>
      </trkpt>
      <trkpt lat="36.24665" lon="29.34506">
        <ele>155.7</ele>
      </trkpt>
      <trkpt lat="36.24683" lon="29.34503">
        <ele>159.2</ele>
      </trkpt>
      <trkpt lat="36.24699" lon="29.34495">
        <ele>160.7</ele>
      </trkpt>
      <trkpt lat="36.24691" lon="29.34512">
        <ele>163.8</ele>
      </trkpt>
      <trkpt lat="36.24668" lon="29.3454">
        <ele>165.5</ele>
      </trkpt>
      <trkpt lat="36.24649" lon="29.34559">
        <ele>168.3</ele>
      </trkpt>
      <trkpt lat="36.24616" lon="29.34607">
        <ele>173.3</ele>
      </trkpt>
      <trkpt lat="36.24593" lon="29.34638">
        <ele>172.9</ele>
      </trkpt>
      <trkpt lat="36.24576" lon="29.34693">
        <ele>174</ele>
      </trkpt>
      <trkpt lat="36.24567" lon="29.34735">
        <ele>173.2</ele>
      </trkpt>
      <trkpt lat="36.24557" lon="29.34839">
        <ele>174.3</ele>
      </trkpt>
      <trkpt lat="36.24549" lon="29.34893">
        <ele>172.8</ele>
      </trkpt>
      <trkpt lat="36.24544" lon="29.34922">
        <ele>172.3</ele>
      </trkpt>
      <trkpt lat="36.24531" lon="29.34955">
        <ele>171.7</ele>
      </trkpt>
      <trkpt lat="36.24512" lon="29.34987">
        <ele>169.7</ele>
      </trkpt>
      <trkpt lat="36.24475" lon="29.3501">
        <ele>167.1</ele>
      </trkpt>
      <trkpt lat="36.24447" lon="29.3504">
        <ele>168.6</ele>
      </trkpt>
      <trkpt lat="36.24412" lon="29.35059">
        <ele>165.4</ele>
      </trkpt>
      <trkpt lat="36.24395" lon="29.35077">
        <ele>165.6</ele>
      </trkpt>
      <trkpt lat="36.24337" lon="29.35129">
        <ele>161.4</ele>
      </trkpt>
      <trkpt lat="36.24311" lon="29.35136">
        <ele>160.3</ele>
      </trkpt>
      <trkpt lat="36.24257" lon="29.35119">
        <ele>159.6</ele>
      </trkpt>
      <trkpt lat="36.24243" lon="29.35105">
        <ele>161.4</ele>
      </trkpt>
      <trkpt lat="36.24209" lon="29.35093">
        <ele>165.7</ele>
      </trkpt>
      <trkpt lat="36.24167" lon="29.35104">
        <ele>167.4</ele>
      </trkpt>
      <trkpt lat="36.24122" lon="29.35138">
        <ele>168.8</ele>
      </trkpt>
      <trkpt lat="36.24097" lon="29.35179">
        <ele>166.8</ele>
      </trkpt>
      <trkpt lat="36.24078" lon="29.3519">
        <ele>168.5</ele>
      </trkpt>
      <trkpt lat="36.2406" lon="29.35209">
        <ele>168.7</ele>
      </trkpt>
      <trkpt lat="36.24013" lon="29.3523">
        <ele>171</ele>
      </trkpt>
      <trkpt lat="36.23985" lon="29.35243">
        <ele>168.8</ele>
      </trkpt>
      <trkpt lat="36.23954" lon="29.35232">
        <ele>165.7</ele>
      </trkpt>
      <trkpt lat="36.2389" lon="29.35313">
        <ele>149</ele>
      </trkpt>
      <trkpt lat="36.23866" lon="29.35299">
        <ele>144.1</ele>
      </trkpt>
      <trkpt lat="36.23853" lon="29.35234">
        <ele>145.1</ele>
      </trkpt>
      <trkpt lat="36.23845" lon="29.35232">
        <ele>143.2</ele>
      </trkpt>
      <trkpt lat="36.23808" lon="29.35246">
        <ele>132.4</ele>
      </trkpt>
      <trkpt lat="36.23786" lon="29.35288">
        <ele>125.5</ele>
      </trkpt>
      <trkpt lat="36.23767" lon="29.35317">
        <ele>121.1</ele>
      </trkpt>
      <trkpt lat="36.23759" lon="29.35369">
        <ele>120.2</ele>
      </trkpt>
      <trkpt lat="36.23756" lon="29.35427">
        <ele>121.4</ele>
      </trkpt>
      <trkpt lat="36.23736" lon="29.35447">
        <ele>120.2</ele>
      </trkpt>
      <trkpt lat="36.23719" lon="29.3547">
        <ele>120.7</ele>
      </trkpt>
      <trkpt lat="36.23703" lon="29.35471">
        <ele>118.6</ele>
      </trkpt>
      <trkpt lat="36.23693" lon="29.35486">
        <ele>119.3</ele>
      </trkpt>
      <trkpt lat="36.23673" lon="29.35495">
        <ele>118</ele>
      </trkpt>
      <trkpt lat="36.23644" lon="29.35521">
        <ele>112.9</ele>
      </trkpt>
      <trkpt lat="36.23593" lon="29.35519">
        <ele>103.2</ele>
      </trkpt>
      <trkpt lat="36.23566" lon="29.35479">
        <ele>99.2</ele>
      </trkpt>
      <trkpt lat="36.23572" lon="29.35441">
        <ele>97.7</ele>
      </trkpt>
      <trkpt lat="36.23561" lon="29.35436">
        <ele>96.1</ele>
      </trkpt>
      <trkpt lat="36.23518" lon="29.35474">
        <ele>90.9</ele>
      </trkpt>
      <trkpt lat="36.2349" lon="29.35525">
        <ele>79.2</ele>
      </trkpt>
      <trkpt lat="36.23471" lon="29.35525">
        <ele>75.7</ele>
      </trkpt>
      <trkpt lat="36.23451" lon="29.35517">
        <ele>73.5</ele>
      </trkpt>
      <trkpt lat="36.23432" lon="29.35452">
        <ele>74</ele>
      </trkpt>
      <trkpt lat="36.23408" lon="29.35403">
        <ele>70.8</ele>
      </trkpt>
      <trkpt lat="36.23396" lon="29.35403">
        <ele>69.4</ele>
      </trkpt>
      <trkpt lat="36.23366" lon="29.35442">
        <ele>66.2</ele>
      </trkpt>
      <trkpt lat="36.23346" lon="29.35522">
        <ele>61.1</ele>
      </trkpt>
      <trkpt lat="36.23352" lon="29.35547">
        <ele>58.5</ele>
      </trkpt>
      <trkpt lat="36.23345" lon="29.35581">
        <ele>54.1</ele>
      </trkpt>
      <trkpt lat="36.23351" lon="29.35588">
        <ele>53.4</ele>
      </trkpt>
      <trkpt lat="36.23366" lon="29.35591">
        <ele>53.8</ele>
      </trkpt>
      <trkpt lat="36.23373" lon="29.35602">
        <ele>52.6</ele>
      </trkpt>
      <trkpt lat="36.2337" lon="29.3566">
        <ele>43.9</ele>
      </trkpt>
      <trkpt lat="36.23328" lon="29.35708">
        <ele>37</ele>
      </trkpt>
      <trkpt lat="36.23327" lon="29.35737">
        <ele>33.5</ele>
      </trkpt>
      <trkpt lat="36.23353" lon="29.35748">
        <ele>32.7</ele>
      </trkpt>
      <trkpt lat="36.23362" lon="29.35776">
        <ele>31.2</ele>
      </trkpt>
      <trkpt lat="36.23359" lon="29.35796">
        <ele>29.8</ele>
      </trkpt>
      <trkpt lat="36.23366" lon="29.35823">
        <ele>28.7</ele>
      </trkpt>
      <trkpt lat="36.2338" lon="29.35862">
        <ele>26.1</ele>
      </trkpt>
      <trkpt lat="36.23373" lon="29.35956">
        <ele>16.6</ele>
      </trkpt>
      <trkpt lat="36.23378" lon="29.35988">
        <ele>15.5</ele>
      </trkpt>
      <trkpt lat="36.23403" lon="29.36015">
        <ele>17.4</ele>
      </trkpt>
      <trkpt lat="36.23415" lon="29.36037">
        <ele>18.8</ele>
      </trkpt>
      <trkpt lat="36.2342" lon="29.36056">
        <ele>19.3</ele>
      </trkpt>
      <trkpt lat="36.23437" lon="29.36066">
        <ele>20.8</ele>
      </trkpt>
      <trkpt lat="36.23448" lon="29.36084">
        <ele>21.6</ele>
      </trkpt>
      <trkpt lat="36.23485" lon="29.36085">
        <ele>24.8</ele>
      </trkpt>
      <trkpt lat="36.23494" lon="29.361">
        <ele>25.7</ele>
      </trkpt>
      <trkpt lat="36.23501" lon="29.36138">
        <ele>26.9</ele>
      </trkpt>
      <trkpt lat="36.23517" lon="29.36175">
        <ele>30.6</ele>
      </trkpt>
      <trkpt lat="36.23515" lon="29.36201">
        <ele>29.8</ele>
      </trkpt>
      <trkpt lat="36.23524" lon="29.36222">
        <ele>30.9</ele>
      </trkpt>
      <trkpt lat="36.23561" lon="29.36269">
        <ele>32.6</ele>
      </trkpt>
      <trkpt lat="36.23606" lon="29.36307">
        <ele>32.6</ele>
      </trkpt>
      <trkpt lat="36.23645" lon="29.36385">
        <ele>30.1</ele>
      </trkpt>
      <trkpt lat="36.2368" lon="29.36414">
        <ele>34.2</ele>
      </trkpt>
      <trkpt lat="36.23691" lon="29.36441">
        <ele>34.4</ele>
      </trkpt>
      <trkpt lat="36.23698" lon="29.36478">
        <ele>33.1</ele>
      </trkpt>
      <trkpt lat="36.2369" lon="29.36511">
        <ele>28.2</ele>
      </trkpt>
      <trkpt lat="36.23708" lon="29.36532">
        <ele>31.3</ele>
      </trkpt>
      <trkpt lat="36.2372" lon="29.36541">
        <ele>33.9</ele>
      </trkpt>
      <trkpt lat="36.23723" lon="29.36556">
        <ele>33.5</ele>
      </trkpt>
      <trkpt lat="36.23709" lon="29.36581">
        <ele>27.4</ele>
      </trkpt>
      <trkpt lat="36.23705" lon="29.36609">
        <ele>25.7</ele>
      </trkpt>
      <trkpt lat="36.23717" lon="29.36636">
        <ele>29.4</ele>
      </trkpt>
      <trkpt lat="36.23708" lon="29.36679">
        <ele>24.3</ele>
      </trkpt>
      <trkpt lat="36.23709" lon="29.36689">
        <ele>23.2</ele>
      </trkpt>
      <trkpt lat="36.23767" lon="29.36731">
        <ele>27.8</ele>
      </trkpt>
      <trkpt lat="36.23789" lon="29.3676">
        <ele>28</ele>
      </trkpt>
      <trkpt lat="36.23813" lon="29.36788">
        <ele>27.7</ele>
      </trkpt>
      <trkpt lat="36.23823" lon="29.36809">
        <ele>24</ele>
      </trkpt>
      <trkpt lat="36.23845" lon="29.36837">
        <ele>18.7</ele>
      </trkpt>
      <trkpt lat="36.23877" lon="29.3683">
        <ele>23.6</ele>
      </trkpt>
      <trkpt lat="36.23998" lon="29.36799">
        <ele>39.9</ele>
      </trkpt>
      <trkpt lat="36.24059" lon="29.36814">
        <ele>39.2</ele>
      </trkpt>
      <trkpt lat="36.24111" lon="29.36838">
        <ele>34.3</ele>
      </trkpt>
      <trkpt lat="36.24152" lon="29.36831">
        <ele>39.1</ele>
      </trkpt>
      <trkpt lat="36.2427" lon="29.36844">
        <ele>39.9</ele>
      </trkpt>
      <trkpt lat="36.24288" lon="29.36804">
        <ele>51.8</ele>
      </trkpt>
      <trkpt lat="36.2432" lon="29.36807">
        <ele>49.9</ele>
      </trkpt>
      <trkpt lat="36.2435" lon="29.36855">
        <ele>40.5</ele>
      </trkpt>
      <trkpt lat="36.24403" lon="29.36871">
        <ele>44.9</ele>
      </trkpt>
      <trkpt lat="36.24426" lon="29.36883">
        <ele>45.6</ele>
      </trkpt>
      <trkpt lat="36.24466" lon="29.36871">
        <ele>51.4</ele>
      </trkpt>
      <trkpt lat="36.24534" lon="29.3692">
        <ele>52.1</ele>
      </trkpt>
      <trkpt lat="36.24598" lon="29.36975">
        <ele>47.7</ele>
      </trkpt>
      <trkpt lat="36.24625" lon="29.36978">
        <ele>50.5</ele>
      </trkpt>
      <trkpt lat="36.24648" lon="29.36987">
        <ele>51.5</ele>
      </trkpt>
      <trkpt lat="36.24659" lon="29.36995">
        <ele>51.6</ele>
      </trkpt>
      <trkpt lat="36.24698" lon="29.36999">
        <ele>54.4</ele>
      </trkpt>
      <trkpt lat="36.2471" lon="29.36994">
        <ele>56.1</ele>
      </trkpt>
      <trkpt lat="36.24714" lon="29.36983">
        <ele>58</ele>
      </trkpt>
      <trkpt lat="36.24699" lon="29.36927">
        <ele>65.4</ele>
      </trkpt>
      <trkpt lat="36.24682" lon="29.36893">
        <ele>70.4</ele>
      </trkpt>
      <trkpt lat="36.24697" lon="29.36883">
        <ele>73.6</ele>
      </trkpt>
      <trkpt lat="36.24731" lon="29.36871">
        <ele>79.2</ele>
      </trkpt>
      <trkpt lat="36.24766" lon="29.3686">
        <ele>84.4</ele>
      </trkpt>
      <trkpt lat="36.24767" lon="29.36855">
        <ele>85.7</ele>
      </trkpt>
      <trkpt lat="36.24747" lon="29.36843">
        <ele>87.3</ele>
      </trkpt>
      <trkpt lat="36.24728" lon="29.36813">
        <ele>91.3</ele>
      </trkpt>
      <trkpt lat="36.24725" lon="29.36801">
        <ele>93.4</ele>
      </trkpt>
      <trkpt lat="36.2473" lon="29.36798">
        <ele>94.8</ele>
      </trkpt>
      <trkpt lat="36.2476" lon="29.36819">
        <ele>94.2</ele>
      </trkpt>
      <trkpt lat="36.24785" lon="29.3682">
        <ele>96.1</ele>
      </trkpt>
      <trkpt lat="36.24841" lon="29.36818">
        <ele>100.5</ele>
      </trkpt>
      <trkpt lat="36.24935" lon="29.36793">
        <ele>110.1</ele>
      </trkpt>
      <trkpt lat="36.25022" lon="29.36782">
        <ele>114.1</ele>
      </trkpt>
      <trkpt lat="36.25069" lon="29.36789">
        <ele>115.1</ele>
      </trkpt>
      <trkpt lat="36.25127" lon="29.36763">
        <ele>118</ele>
      </trkpt>
      <trkpt lat="36.25169" lon="29.36738">
        <ele>121.9</ele>
      </trkpt>
      <trkpt lat="36.25195" lon="29.36731">
        <ele>122.9</ele>
      </trkpt>
      <trkpt lat="36.25244" lon="29.36726">
        <ele>122.6</ele>
      </trkpt>
      <trkpt lat="36.25323" lon="29.36729">
        <ele>125.2</ele>
      </trkpt>
      <trkpt lat="36.25368" lon="29.36745">
        <ele>124</ele>
      </trkpt>
      <trkpt lat="36.25398" lon="29.36744">
        <ele>124.8</ele>
      </trkpt>
      <trkpt lat="36.25419" lon="29.36716">
        <ele>126.6</ele>
      </trkpt>
      <trkpt lat="36.25457" lon="29.36624">
        <ele>130.6</ele>
      </trkpt>
      <trkpt lat="36.25488" lon="29.36592">
        <ele>131.3</ele>
      </trkpt>
      <trkpt lat="36.25556" lon="29.36563">
        <ele>134.3</ele>
      </trkpt>
      <trkpt lat="36.25622" lon="29.36553">
        <ele>129.4</ele>
      </trkpt>
      <trkpt lat="36.25647" lon="29.36544">
        <ele>128.1</ele>
      </trkpt>
      <trkpt lat="36.25683" lon="29.36493">
        <ele>134.7</ele>
      </trkpt>
      <trkpt lat="36.2577" lon="29.36391">
        <ele>139.1</ele>
      </trkpt>
      <trkpt lat="36.25828" lon="29.36293">
        <ele>151.9</ele>
      </trkpt>
      <trkpt lat="36.25858" lon="29.36269">
        <ele>157.5</ele>
      </trkpt>
      <trkpt lat="36.25873" lon="29.36266">
        <ele>159</ele>
      </trkpt>
      <trkpt lat="36.25876" lon="29.36266">
        <ele>158.8</ele>
      </trkpt>
      <trkpt lat="36.25876" lon="29.36278">
        <ele>155.4</ele>
      </trkpt>
      <trkpt lat="36.25882" lon="29.3629">
        <ele>152.2</ele>
      </trkpt>
      <trkpt lat="36.2589" lon="29.36314">
        <ele>145.5</ele>
      </trkpt>
      <trkpt lat="36.25893" lon="29.36325">
        <ele>142.3</ele>
      </trkpt>
      <trkpt lat="36.25894" lon="29.36339">
        <ele>138.1</ele>
      </trkpt>
      <trkpt lat="36.259" lon="29.36347">
        <ele>135.9</ele>
      </trkpt>
      <trkpt lat="36.25914" lon="29.36362">
        <ele>132.1</ele>
      </trkpt>
      <trkpt lat="36.25932" lon="29.36372">
        <ele>130.2</ele>
      </trkpt>
      <trkpt lat="36.25939" lon="29.36375">
        <ele>129.7</ele>
      </trkpt>
      <trkpt lat="36.25952" lon="29.36387">
        <ele>127</ele>
      </trkpt>
      <trkpt lat="36.25962" lon="29.36394">
        <ele>125.6</ele>
      </trkpt>
      <trkpt lat="36.25979" lon="29.36396">
        <ele>126</ele>
      </trkpt>
      <trkpt lat="36.2599" lon="29.36397">
        <ele>126.3</ele>
      </trkpt>
      <trkpt lat="36.26007" lon="29.3641">
        <ele>123.8</ele>
      </trkpt>
      <trkpt lat="36.26016" lon="29.36418">
        <ele>123.1</ele>
      </trkpt>
      <trkpt lat="36.26027" lon="29.3642">
        <ele>124</ele>
      </trkpt>
      <trkpt lat="36.26054" lon="29.36435">
        <ele>123.7</ele>
      </trkpt>
      <trkpt lat="36.2606" lon="29.36459">
        <ele>118.4</ele>
      </trkpt>
      <trkpt lat="36.2606" lon="29.36461">
        <ele>117.8</ele>
      </trkpt>
      <trkpt lat="36.26062" lon="29.3647">
        <ele>116</ele>
      </trkpt>
      <trkpt lat="36.26066" lon="29.36477">
        <ele>114.5</ele>
      </trkpt>
      <trkpt lat="36.26071" lon="29.36484">
        <ele>113.8</ele>
      </trkpt>
      <trkpt lat="36.26084" lon="29.36502">
        <ele>111.2</ele>
      </trkpt>
      <trkpt lat="36.26089" lon="29.3651">
        <ele>108.6</ele>
      </trkpt>
      <trkpt lat="36.26089" lon="29.36515">
        <ele>106.8</ele>
      </trkpt>
      <trkpt lat="36.26086" lon="29.3652">
        <ele>104.7</ele>
      </trkpt>
      <trkpt lat="36.26086" lon="29.36527">
        <ele>102.1</ele>
      </trkpt>
      <trkpt lat="36.2609" lon="29.36532">
        <ele>100.8</ele>
      </trkpt>
      <trkpt lat="36.26094" lon="29.36533">
        <ele>100.4</ele>
      </trkpt>
      <trkpt lat="36.26098" lon="29.36537">
        <ele>99.7</ele>
      </trkpt>
      <trkpt lat="36.26098" lon="29.36541">
        <ele>97.9</ele>
      </trkpt>
      <trkpt lat="36.26096" lon="29.3655">
        <ele>94.6</ele>
      </trkpt>
      <trkpt lat="36.26098" lon="29.36555">
        <ele>92.9</ele>
      </trkpt>
      <trkpt lat="36.26095" lon="29.36564">
        <ele>89.3</ele>
      </trkpt>
      <trkpt lat="36.26096" lon="29.36569">
        <ele>87.5</ele>
      </trkpt>
      <trkpt lat="36.26104" lon="29.36578">
        <ele>84.8</ele>
      </trkpt>
      <trkpt lat="36.26109" lon="29.36585">
        <ele>83</ele>
      </trkpt>
      <trkpt lat="36.26115" lon="29.36586">
        <ele>82.8</ele>
      </trkpt>
      <trkpt lat="36.26126" lon="29.3659">
        <ele>82.4</ele>
      </trkpt>
      <trkpt lat="36.26132" lon="29.36592">
        <ele>81.7</ele>
      </trkpt>
      <trkpt lat="36.2614" lon="29.36596">
        <ele>80.7</ele>
      </trkpt>
      <trkpt lat="36.26147" lon="29.36597">
        <ele>81</ele>
      </trkpt>
      <trkpt lat="36.26152" lon="29.36597">
        <ele>81.5</ele>
      </trkpt>
      <trkpt lat="36.26161" lon="29.36601">
        <ele>80.4</ele>
      </trkpt>
      <trkpt lat="36.26167" lon="29.36603">
        <ele>80</ele>
      </trkpt>
      <trkpt lat="36.26178" lon="29.36604">
        <ele>82.7</ele>
      </trkpt>
      <trkpt lat="36.26187" lon="29.36603">
        <ele>85.5</ele>
      </trkpt>
      <trkpt lat="36.26194" lon="29.36603">
        <ele>87.3</ele>
      </trkpt>
      <trkpt lat="36.26202" lon="29.36604">
        <ele>89.1</ele>
      </trkpt>
      <trkpt lat="36.26209" lon="29.36606">
        <ele>90.4</ele>
      </trkpt>
      <trkpt lat="36.26215" lon="29.36609">
        <ele>90.4</ele>
      </trkpt>
      <trkpt lat="36.26224" lon="29.36605">
        <ele>94.3</ele>
      </trkpt>
      <trkpt lat="36.26231" lon="29.36604">
        <ele>96.9</ele>
      </trkpt>
      <trkpt lat="36.26239" lon="29.36605">
        <ele>98.7</ele>
      </trkpt>
      <trkpt lat="36.26242" lon="29.36608">
        <ele>98</ele>
      </trkpt>
      <trkpt lat="36.2625" lon="29.36616">
        <ele>96.4</ele>
      </trkpt>
      <trkpt lat="36.26258" lon="29.36618">
        <ele>98.2</ele>
      </trkpt>
      <trkpt lat="36.26267" lon="29.36621">
        <ele>99.6</ele>
      </trkpt>
      <trkpt lat="36.26282" lon="29.36627">
        <ele>101.9</ele>
      </trkpt>
      <trkpt lat="36.2629" lon="29.36628">
        <ele>104.1</ele>
      </trkpt>
      <trkpt lat="36.26297" lon="29.36628">
        <ele>106.6</ele>
      </trkpt>
      <trkpt lat="36.26305" lon="29.36628">
        <ele>109.2</ele>
      </trkpt>
      <trkpt lat="36.2631" lon="29.36629">
        <ele>110.1</ele>
      </trkpt>
      <trkpt lat="36.26314" lon="29.3663">
        <ele>110.9</ele>
      </trkpt>
      <trkpt lat="36.26315" lon="29.36633">
        <ele>110</ele>
      </trkpt>
      <trkpt lat="36.26319" lon="29.36635">
        <ele>110.1</ele>
      </trkpt>
      <trkpt lat="36.26323" lon="29.36634">
        <ele>111.8</ele>
      </trkpt>
      <trkpt lat="36.26326" lon="29.36634">
        <ele>112.7</ele>
      </trkpt>
      <trkpt lat="36.26329" lon="29.36636">
        <ele>112.8</ele>
      </trkpt>
      <trkpt lat="36.26334" lon="29.36637">
        <ele>113.9</ele>
      </trkpt>
      <trkpt lat="36.26338" lon="29.36638">
        <ele>114.4</ele>
      </trkpt>
      <trkpt lat="36.26343" lon="29.36637">
        <ele>116.5</ele>
      </trkpt>
      <trkpt lat="36.26348" lon="29.36636">
        <ele>118.4</ele>
      </trkpt>
      <trkpt lat="36.2635" lon="29.36639">
        <ele>117.7</ele>
      </trkpt>
      <trkpt lat="36.26353" lon="29.36639">
        <ele>118.5</ele>
      </trkpt>
      <trkpt lat="36.26357" lon="29.36639">
        <ele>119.3</ele>
      </trkpt>
      <trkpt lat="36.26359" lon="29.36643">
        <ele>118.2</ele>
      </trkpt>
      <trkpt lat="36.26367" lon="29.36646">
        <ele>119.1</ele>
      </trkpt>
      <trkpt lat="36.26374" lon="29.36648">
        <ele>120.3</ele>
      </trkpt>
      <trkpt lat="36.26381" lon="29.36651">
        <ele>121.3</ele>
      </trkpt>
      <trkpt lat="36.2639" lon="29.36651">
        <ele>124.1</ele>
      </trkpt>
      <trkpt lat="36.26399" lon="29.36649">
        <ele>127.2</ele>
      </trkpt>
      <trkpt lat="36.26408" lon="29.36647">
        <ele>130.9</ele>
      </trkpt>
      <trkpt lat="36.26417" lon="29.36647">
        <ele>133.3</ele>
      </trkpt>
      <trkpt lat="36.26423" lon="29.36647">
        <ele>133.8</ele>
      </trkpt>
      <trkpt lat="36.26429" lon="29.36655">
        <ele>132</ele>
      </trkpt>
      <trkpt lat="36.26435" lon="29.36659">
        <ele>131.4</ele>
      </trkpt>
      <trkpt lat="36.26443" lon="29.36663">
        <ele>131.8</ele>
      </trkpt>
      <trkpt lat="36.26449" lon="29.36663">
        <ele>132.7</ele>
      </trkpt>
      <trkpt lat="36.26458" lon="29.36665">
        <ele>133.8</ele>
      </trkpt>
      <trkpt lat="36.26465" lon="29.36664">
        <ele>135.1</ele>
      </trkpt>
      <trkpt lat="36.26473" lon="29.36666">
        <ele>136.3</ele>
      </trkpt>
      <trkpt lat="36.2648" lon="29.36664">
        <ele>137.7</ele>
      </trkpt>
      <trkpt lat="36.26487" lon="29.36667">
        <ele>138.7</ele>
      </trkpt>
      <trkpt lat="36.26494" lon="29.36667">
        <ele>140</ele>
      </trkpt>
      <trkpt lat="36.26499" lon="29.36665">
        <ele>141</ele>
      </trkpt>
      <trkpt lat="36.26509" lon="29.36664">
        <ele>141.5</ele>
      </trkpt>
      <trkpt lat="36.26516" lon="29.36666">
        <ele>141.8</ele>
      </trkpt>
      <trkpt lat="36.26521" lon="29.36669">
        <ele>141.7</ele>
      </trkpt>
      <trkpt lat="36.26522" lon="29.36676">
        <ele>140.9</ele>
      </trkpt>
      <trkpt lat="36.26526" lon="29.36682">
        <ele>140.6</ele>
      </trkpt>
      <trkpt lat="36.2653" lon="29.36696">
        <ele>139.9</ele>
      </trkpt>
      <trkpt lat="36.26537" lon="29.36712">
        <ele>140.3</ele>
      </trkpt>
      <trkpt lat="36.26539" lon="29.36717">
        <ele>140.4</ele>
      </trkpt>
      <trkpt lat="36.26541" lon="29.36726">
        <ele>140.7</ele>
      </trkpt>
      <trkpt lat="36.2654" lon="29.36729">
        <ele>140</ele>
      </trkpt>
      <trkpt lat="36.26539" lon="29.36742">
        <ele>139.4</ele>
      </trkpt>
      <trkpt lat="36.26534" lon="29.36747">
        <ele>136.9</ele>
      </trkpt>
      <trkpt lat="36.26532" lon="29.3675">
        <ele>135.9</ele>
      </trkpt>
      <trkpt lat="36.26533" lon="29.36754">
        <ele>136.1</ele>
      </trkpt>
      <trkpt lat="36.26529" lon="29.36765">
        <ele>134.1</ele>
      </trkpt>
      <trkpt lat="36.26529" lon="29.36776">
        <ele>133.5</ele>
      </trkpt>
      <trkpt lat="36.26528" lon="29.36791">
        <ele>132.5</ele>
      </trkpt>
      <trkpt lat="36.26527" lon="29.36797">
        <ele>131.9</ele>
      </trkpt>
      <trkpt lat="36.26529" lon="29.36802">
        <ele>132.5</ele>
      </trkpt>
      <trkpt lat="36.26528" lon="29.36811">
        <ele>131.7</ele>
      </trkpt>
      <trkpt lat="36.26523" lon="29.36818">
        <ele>128.5</ele>
      </trkpt>
      <trkpt lat="36.26523" lon="29.36833">
        <ele>127.8</ele>
      </trkpt>
      <trkpt lat="36.26522" lon="29.3685">
        <ele>127.5</ele>
      </trkpt>
      <trkpt lat="36.26522" lon="29.36862">
        <ele>127.4</ele>
      </trkpt>
      <trkpt lat="36.2652" lon="29.36875">
        <ele>126.2</ele>
      </trkpt>
      <trkpt lat="36.26519" lon="29.3688">
        <ele>125.3</ele>
      </trkpt>
      <trkpt lat="36.26516" lon="29.36886">
        <ele>123.9</ele>
      </trkpt>
      <trkpt lat="36.26515" lon="29.36896">
        <ele>122.6</ele>
      </trkpt>
      <trkpt lat="36.26511" lon="29.36909">
        <ele>120</ele>
      </trkpt>
      <trkpt lat="36.2651" lon="29.3692">
        <ele>119.1</ele>
      </trkpt>
      <trkpt lat="36.26508" lon="29.36926">
        <ele>117.8</ele>
      </trkpt>
      <trkpt lat="36.26508" lon="29.36933">
        <ele>117.1</ele>
      </trkpt>
      <trkpt lat="36.26504" lon="29.36938">
        <ele>114.6</ele>
      </trkpt>
      <trkpt lat="36.26503" lon="29.36946">
        <ele>113.4</ele>
      </trkpt>
      <trkpt lat="36.26502" lon="29.36958">
        <ele>111.7</ele>
      </trkpt>
      <trkpt lat="36.265" lon="29.36975">
        <ele>109.2</ele>
      </trkpt>
      <trkpt lat="36.265" lon="29.36987">
        <ele>108.9</ele>
      </trkpt>
      <trkpt lat="36.26503" lon="29.37001">
        <ele>110</ele>
      </trkpt>
      <trkpt lat="36.26509" lon="29.37015">
        <ele>111.7</ele>
      </trkpt>
      <trkpt lat="36.26512" lon="29.37026">
        <ele>111.5</ele>
      </trkpt>
      <trkpt lat="36.26514" lon="29.37038">
        <ele>111.2</ele>
      </trkpt>
      <trkpt lat="36.26515" lon="29.3704">
        <ele>111.7</ele>
      </trkpt>
      <trkpt lat="36.26516" lon="29.37043">
        <ele>111.9</ele>
      </trkpt>
      <trkpt lat="36.26518" lon="29.3705">
        <ele>112.3</ele>
      </trkpt>
      <trkpt lat="36.26515" lon="29.37059">
        <ele>108.7</ele>
      </trkpt>
      <trkpt lat="36.26513" lon="29.37071">
        <ele>105.2</ele>
      </trkpt>
      <trkpt lat="36.26514" lon="29.37075">
        <ele>105.1</ele>
      </trkpt>
      <trkpt lat="36.26515" lon="29.37087">
        <ele>104</ele>
      </trkpt>
      <trkpt lat="36.26514" lon="29.37107">
        <ele>99.4</ele>
      </trkpt>
      <trkpt lat="36.26512" lon="29.37125">
        <ele>94.3</ele>
      </trkpt>
      <trkpt lat="36.26512" lon="29.37174">
        <ele>85.8</ele>
      </trkpt>
      <trkpt lat="36.26516" lon="29.37187">
        <ele>86.3</ele>
      </trkpt>
      <trkpt lat="36.26517" lon="29.37194">
        <ele>85.7</ele>
      </trkpt>
      <trkpt lat="36.26522" lon="29.37214">
        <ele>85</ele>
      </trkpt>
      <trkpt lat="36.26518" lon="29.37225">
        <ele>80.9</ele>
      </trkpt>
      <trkpt lat="36.26522" lon="29.37232">
        <ele>82.1</ele>
      </trkpt>
      <trkpt lat="36.26523" lon="29.37235">
        <ele>82.1</ele>
      </trkpt>
      <trkpt lat="36.2652" lon="29.37239">
        <ele>79.7</ele>
      </trkpt>
      <trkpt lat="36.26518" lon="29.37241">
        <ele>78.2</ele>
      </trkpt>
      <trkpt lat="36.26518" lon="29.37244">
        <ele>77.4</ele>
      </trkpt>
      <trkpt lat="36.26518" lon="29.37245">
        <ele>77.3</ele>
      </trkpt>
      <trkpt lat="36.26517" lon="29.37252">
        <ele>75.7</ele>
      </trkpt>
      <trkpt lat="36.26516" lon="29.37253">
        <ele>75.4</ele>
      </trkpt>
      <trkpt lat="36.26514" lon="29.37259">
        <ele>74.2</ele>
      </trkpt>
      <trkpt lat="36.26521" lon="29.3728">
        <ele>77.5</ele>
      </trkpt>
      <trkpt lat="36.26519" lon="29.373">
        <ele>76.2</ele>
      </trkpt>
      <trkpt lat="36.26514" lon="29.373">
        <ele>73.7</ele>
      </trkpt>
      <trkpt lat="36.26492" lon="29.373">
        <ele>64.8</ele>
      </trkpt>
      <trkpt lat="36.26478" lon="29.37293">
        <ele>60.8</ele>
      </trkpt>
      <trkpt lat="36.2647" lon="29.37296">
        <ele>58.6</ele>
      </trkpt>
      <trkpt lat="36.26467" lon="29.37302">
        <ele>58.1</ele>
      </trkpt>
      <trkpt lat="36.26462" lon="29.37314">
        <ele>57.9</ele>
      </trkpt>
      <trkpt lat="36.26454" lon="29.37321">
        <ele>56.8</ele>
      </trkpt>
      <trkpt lat="36.26448" lon="29.37336">
        <ele>57.2</ele>
      </trkpt>
      <trkpt lat="36.26445" lon="29.37342">
        <ele>58.1</ele>
      </trkpt>
      <trkpt lat="36.26442" lon="29.37346">
        <ele>58.6</ele>
      </trkpt>
      <trkpt lat="36.26437" lon="29.37341">
        <ele>56.1</ele>
      </trkpt>
      <trkpt lat="36.26432" lon="29.37341">
        <ele>55.2</ele>
      </trkpt>
      <trkpt lat="36.26422" lon="29.37349">
        <ele>54.6</ele>
      </trkpt>
      <trkpt lat="36.2642" lon="29.37358">
        <ele>56.4</ele>
      </trkpt>
      <trkpt lat="36.26408" lon="29.37361">
        <ele>55.2</ele>
      </trkpt>
      <trkpt lat="36.26393" lon="29.37368">
        <ele>54.6</ele>
      </trkpt>
      <trkpt lat="36.26382" lon="29.37381">
        <ele>55.7</ele>
      </trkpt>
      <trkpt lat="36.26373" lon="29.37385">
        <ele>55.4</ele>
      </trkpt>
      <trkpt lat="36.26365" lon="29.37385">
        <ele>54.2</ele>
      </trkpt>
      <trkpt lat="36.2635" lon="29.37396">
        <ele>54.3</ele>
      </trkpt>
      <trkpt lat="36.26336" lon="29.37404">
        <ele>53.7</ele>
      </trkpt>
      <trkpt lat="36.26323" lon="29.3742">
        <ele>53.6</ele>
      </trkpt>
      <trkpt lat="36.26313" lon="29.37437">
        <ele>53.4</ele>
      </trkpt>
      <trkpt lat="36.263" lon="29.3746">
        <ele>52.9</ele>
      </trkpt>
      <trkpt lat="36.26293" lon="29.37472">
        <ele>52.6</ele>
      </trkpt>
      <trkpt lat="36.26284" lon="29.37481">
        <ele>51</ele>
      </trkpt>
      <trkpt lat="36.26276" lon="29.37501">
        <ele>51</ele>
      </trkpt>
      <trkpt lat="36.26274" lon="29.37515">
        <ele>48</ele>
      </trkpt>
      <trkpt lat="36.26271" lon="29.37547">
        <ele>42</ele>
      </trkpt>
      <trkpt lat="36.2627" lon="29.37558">
        <ele>39.8</ele>
      </trkpt>
      <trkpt lat="36.26271" lon="29.37582">
        <ele>36.3</ele>
      </trkpt>
      <trkpt lat="36.26279" lon="29.37599">
        <ele>38.5</ele>
      </trkpt>
      <trkpt lat="36.26281" lon="29.37602">
        <ele>39.2</ele>
      </trkpt>
      <trkpt lat="36.26285" lon="29.37606">
        <ele>40.3</ele>
      </trkpt>
      <trkpt lat="36.26289" lon="29.37612">
        <ele>41.9</ele>
      </trkpt>
      <trkpt lat="36.26294" lon="29.37618">
        <ele>43.9</ele>
      </trkpt>
      <trkpt lat="36.26297" lon="29.37621">
        <ele>45</ele>
      </trkpt>
      <trkpt lat="36.26302" lon="29.37626">
        <ele>46.7</ele>
      </trkpt>
      <trkpt lat="36.26305" lon="29.3763">
        <ele>47.9</ele>
      </trkpt>
      <trkpt lat="36.26309" lon="29.37628">
        <ele>50</ele>
      </trkpt>
      <trkpt lat="36.26315" lon="29.37631">
        <ele>52.3</ele>
      </trkpt>
      <trkpt lat="36.26318" lon="29.37638">
        <ele>53.6</ele>
      </trkpt>
      <trkpt lat="36.2632" lon="29.37643">
        <ele>54.2</ele>
      </trkpt>
      <trkpt lat="36.2632" lon="29.37649">
        <ele>53.9</ele>
      </trkpt>
      <trkpt lat="36.2632" lon="29.37655">
        <ele>53.3</ele>
      </trkpt>
      <trkpt lat="36.26321" lon="29.37663">
        <ele>53.5</ele>
      </trkpt>
      <trkpt lat="36.2632" lon="29.37666">
        <ele>53</ele>
      </trkpt>
      <trkpt lat="36.26316" lon="29.3767">
        <ele>51.7</ele>
      </trkpt>
      <trkpt lat="36.26311" lon="29.37671">
        <ele>50.1</ele>
      </trkpt>
      <trkpt lat="36.26302" lon="29.37673">
        <ele>46.1</ele>
      </trkpt>
      <trkpt lat="36.26296" lon="29.37677">
        <ele>44.3</ele>
      </trkpt>
      <trkpt lat="36.26287" lon="29.37686">
        <ele>42.6</ele>
      </trkpt>
      <trkpt lat="36.26282" lon="29.37688">
        <ele>41</ele>
      </trkpt>
      <trkpt lat="36.26278" lon="29.37692">
        <ele>40.3</ele>
      </trkpt>
      <trkpt lat="36.26272" lon="29.37704">
        <ele>40</ele>
      </trkpt>
      <trkpt lat="36.26268" lon="29.37713">
        <ele>40.3</ele>
      </trkpt>
      <trkpt lat="36.26261" lon="29.37733">
        <ele>41.4</ele>
      </trkpt>
      <trkpt lat="36.2626" lon="29.37767">
        <ele>49</ele>
      </trkpt>
      <trkpt lat="36.26256" lon="29.37782">
        <ele>50.1</ele>
      </trkpt>
      <trkpt lat="36.26251" lon="29.37805">
        <ele>52.9</ele>
      </trkpt>
      <trkpt lat="36.26241" lon="29.37859">
        <ele>56.4</ele>
      </trkpt>
      <trkpt lat="36.2624" lon="29.37875">
        <ele>57.1</ele>
      </trkpt>
      <trkpt lat="36.2624" lon="29.37879">
        <ele>57.5</ele>
      </trkpt>
      <trkpt lat="36.26246" lon="29.37886">
        <ele>61.2</ele>
      </trkpt>
      <trkpt lat="36.26246" lon="29.37923">
        <ele>64</ele>
      </trkpt>
      <trkpt lat="36.26248" lon="29.37944">
        <ele>65.4</ele>
      </trkpt>
      <trkpt lat="36.26235" lon="29.37997">
        <ele>58.8</ele>
      </trkpt>
      <trkpt lat="36.26239" lon="29.38079">
        <ele>66.7</ele>
      </trkpt>
      <trkpt lat="36.26236" lon="29.38175">
        <ele>64.7</ele>
      </trkpt>
      <trkpt lat="36.26237" lon="29.38178">
        <ele>66.1</ele>
      </trkpt>
      <trkpt lat="36.26235" lon="29.38203">
        <ele>67.1</ele>
      </trkpt>
      <trkpt lat="36.26234" lon="29.38238">
        <ele>70</ele>
      </trkpt>
      <trkpt lat="36.26236" lon="29.38277">
        <ele>72.3</ele>
      </trkpt>
      <trkpt lat="36.26228" lon="29.38321">
        <ele>66.3</ele>
      </trkpt>
      <trkpt lat="36.26223" lon="29.38363">
        <ele>61.8</ele>
      </trkpt>
      <trkpt lat="36.26225" lon="29.38375">
        <ele>62.2</ele>
      </trkpt>
      <trkpt lat="36.26227" lon="29.38379">
        <ele>63.2</ele>
      </trkpt>
      <trkpt lat="36.26232" lon="29.38385">
        <ele>66.2</ele>
      </trkpt>
      <trkpt lat="36.26236" lon="29.38393">
        <ele>67.8</ele>
      </trkpt>
      <trkpt lat="36.26237" lon="29.38405">
        <ele>67.7</ele>
      </trkpt>
      <trkpt lat="36.26237" lon="29.38412">
        <ele>67.8</ele>
      </trkpt>
      <trkpt lat="36.2624" lon="29.38421">
        <ele>68.9</ele>
      </trkpt>
      <trkpt lat="36.26242" lon="29.38428">
        <ele>69.8</ele>
      </trkpt>
      <trkpt lat="36.26246" lon="29.38435">
        <ele>71.5</ele>
      </trkpt>
      <trkpt lat="36.26252" lon="29.38447">
        <ele>74.8</ele>
      </trkpt>
      <trkpt lat="36.26258" lon="29.38455">
        <ele>78.4</ele>
      </trkpt>
      <trkpt lat="36.26261" lon="29.38462">
        <ele>79.5</ele>
      </trkpt>
      <trkpt lat="36.26265" lon="29.38473">
        <ele>81.4</ele>
      </trkpt>
      <trkpt lat="36.26268" lon="29.38478">
        <ele>83.1</ele>
      </trkpt>
      <trkpt lat="36.2627" lon="29.38483">
        <ele>83.9</ele>
      </trkpt>
      <trkpt lat="36.26272" lon="29.38494">
        <ele>84</ele>
      </trkpt>
      <trkpt lat="36.26271" lon="29.38514">
        <ele>82.5</ele>
      </trkpt>
      <trkpt lat="36.26273" lon="29.38527">
        <ele>82.9</ele>
      </trkpt>
      <trkpt lat="36.26274" lon="29.38533">
        <ele>82.9</ele>
      </trkpt>
      <trkpt lat="36.26272" lon="29.3854">
        <ele>81.4</ele>
      </trkpt>
      <trkpt lat="36.26267" lon="29.38551">
        <ele>78.5</ele>
      </trkpt>
      <trkpt lat="36.26264" lon="29.38561">
        <ele>76.9</ele>
      </trkpt>
      <trkpt lat="36.26264" lon="29.38565">
        <ele>76.5</ele>
      </trkpt>
      <trkpt lat="36.26264" lon="29.38576">
        <ele>76.4</ele>
      </trkpt>
      <trkpt lat="36.26265" lon="29.38591">
        <ele>75.9</ele>
      </trkpt>
      <trkpt lat="36.26266" lon="29.38596">
        <ele>75.6</ele>
      </trkpt>
      <trkpt lat="36.26267" lon="29.38623">
        <ele>73.3</ele>
      </trkpt>
      <trkpt lat="36.26269" lon="29.38639">
        <ele>72.2</ele>
      </trkpt>
      <trkpt lat="36.26274" lon="29.38658">
        <ele>71.3</ele>
      </trkpt>
      <trkpt lat="36.26276" lon="29.38671">
        <ele>70.1</ele>
      </trkpt>
      <trkpt lat="36.2628" lon="29.38682">
        <ele>68.9</ele>
      </trkpt>
      <trkpt lat="36.26286" lon="29.38689">
        <ele>68.7</ele>
      </trkpt>
      <trkpt lat="36.26293" lon="29.38697">
        <ele>68.5</ele>
      </trkpt>
      <trkpt lat="36.26314" lon="29.38707">
        <ele>70.4</ele>
      </trkpt>
      <trkpt lat="36.26338" lon="29.38699">
        <ele>76.5</ele>
      </trkpt>
      <trkpt lat="36.26369" lon="29.38697">
        <ele>76.4</ele>
      </trkpt>
      <trkpt lat="36.264" lon="29.38689">
        <ele>78</ele>
      </trkpt>
      <trkpt lat="36.26427" lon="29.38682">
        <ele>79.3</ele>
      </trkpt>
      <trkpt lat="36.26456" lon="29.38671">
        <ele>80.2</ele>
      </trkpt>
      <trkpt lat="36.26488" lon="29.38661">
        <ele>79.7</ele>
      </trkpt>
      <trkpt lat="36.26505" lon="29.38657">
        <ele>79.3</ele>
      </trkpt>
      <trkpt lat="36.26515" lon="29.38649">
        <ele>81.2</ele>
      </trkpt>
      <trkpt lat="36.26527" lon="29.38654">
        <ele>79.7</ele>
      </trkpt>
      <trkpt lat="36.2652" lon="29.38681">
        <ele>72.4</ele>
      </trkpt>
      <trkpt lat="36.26527" lon="29.38692">
        <ele>69.5</ele>
      </trkpt>
      <trkpt lat="36.26531" lon="29.38713">
        <ele>63.6</ele>
      </trkpt>
      <trkpt lat="36.2652" lon="29.38744">
        <ele>53.7</ele>
      </trkpt>
      <trkpt lat="36.26515" lon="29.3877">
        <ele>48</ele>
      </trkpt>
      <trkpt lat="36.26507" lon="29.38787">
        <ele>43.7</ele>
      </trkpt>
      <trkpt lat="36.26512" lon="29.38803">
        <ele>42.2</ele>
      </trkpt>
      <trkpt lat="36.26522" lon="29.388">
        <ele>44.7</ele>
      </trkpt>
      <trkpt lat="36.26534" lon="29.38804">
        <ele>46.7</ele>
      </trkpt>
      <trkpt lat="36.2654" lon="29.38815">
        <ele>46.7</ele>
      </trkpt>
      <trkpt lat="36.26568" lon="29.38969">
        <ele>41.5</ele>
      </trkpt>
      <trkpt lat="36.26579" lon="29.39089">
        <ele>35.3</ele>
      </trkpt>
      <trkpt lat="36.2659" lon="29.39148">
        <ele>32.7</ele>
      </trkpt>
      <trkpt lat="36.26593" lon="29.39157">
        <ele>32.4</ele>
      </trkpt>
      <trkpt lat="36.26596" lon="29.3917">
        <ele>32.1</ele>
      </trkpt>
      <trkpt lat="36.2661" lon="29.39183">
        <ele>34.4</ele>
      </trkpt>
      <trkpt lat="36.26639" lon="29.39188">
        <ele>40</ele>
      </trkpt>
      <trkpt lat="36.26642" lon="29.39195">
        <ele>40.7</ele>
      </trkpt>
      <trkpt lat="36.26641" lon="29.39206">
        <ele>40.8</ele>
      </trkpt>
      <trkpt lat="36.26626" lon="29.39248">
        <ele>38.2</ele>
      </trkpt>
      <trkpt lat="36.26618" lon="29.39295">
        <ele>42.3</ele>
      </trkpt>
      <trkpt lat="36.26609" lon="29.3934">
        <ele>46.7</ele>
      </trkpt>
      <trkpt lat="36.26603" lon="29.39363">
        <ele>48.2</ele>
      </trkpt>
      <trkpt lat="36.26579" lon="29.39446">
        <ele>49.4</ele>
      </trkpt>
      <trkpt lat="36.26579" lon="29.39455">
        <ele>49.6</ele>
      </trkpt>
      <trkpt lat="36.26586" lon="29.39511">
        <ele>51.4</ele>
      </trkpt>
      <trkpt lat="36.26587" lon="29.3952">
        <ele>51.4</ele>
      </trkpt>
      <trkpt lat="36.26595" lon="29.39539">
        <ele>53.1</ele>
      </trkpt>
      <trkpt lat="36.26611" lon="29.39577">
        <ele>57</ele>
      </trkpt>
      <trkpt lat="36.26625" lon="29.39606">
        <ele>61.5</ele>
      </trkpt>
      <trkpt lat="36.26629" lon="29.39616">
        <ele>62.9</ele>
      </trkpt>
      <trkpt lat="36.26629" lon="29.39639">
        <ele>62.9</ele>
      </trkpt>
      <trkpt lat="36.26621" lon="29.39653">
        <ele>61.1</ele>
      </trkpt>
      <trkpt lat="36.26568" lon="29.3969">
        <ele>55.7</ele>
      </trkpt>
      <trkpt lat="36.26475" lon="29.39757">
        <ele>48.4</ele>
      </trkpt>
      <trkpt lat="36.26494" lon="29.39773">
        <ele>54.5</ele>
      </trkpt>
      <trkpt lat="36.265" lon="29.39777">
        <ele>56.2</ele>
      </trkpt>
      <trkpt lat="36.26513" lon="29.39785">
        <ele>59.6</ele>
      </trkpt>
      <trkpt lat="36.26531" lon="29.39798">
        <ele>64.8</ele>
      </trkpt>
      <trkpt lat="36.26561" lon="29.39815">
        <ele>73</ele>
      </trkpt>
      <trkpt lat="36.2657" lon="29.39822">
        <ele>75.8</ele>
      </trkpt>
      <trkpt lat="36.26625" lon="29.39853">
        <ele>92.1</ele>
      </trkpt>
      <trkpt lat="36.2658" lon="29.39921">
        <ele>83.4</ele>
      </trkpt>
      <trkpt lat="36.26553" lon="29.39966">
        <ele>79</ele>
      </trkpt>
      <trkpt lat="36.26559" lon="29.39989">
        <ele>81</ele>
      </trkpt>
      <trkpt lat="36.26573" lon="29.40042">
        <ele>84.3</ele>
      </trkpt>
      <trkpt lat="36.26581" lon="29.40068">
        <ele>85.6</ele>
      </trkpt>
      <trkpt lat="36.26582" lon="29.40073">
        <ele>85.8</ele>
      </trkpt>
      <trkpt lat="36.2659" lon="29.40101">
        <ele>87.6</ele>
      </trkpt>
      <trkpt lat="36.26596" lon="29.40138">
        <ele>88.6</ele>
      </trkpt>
      <trkpt lat="36.26599" lon="29.40158">
        <ele>89.1</ele>
      </trkpt>
      <trkpt lat="36.26605" lon="29.40196">
        <ele>91.1</ele>
      </trkpt>
      <trkpt lat="36.26607" lon="29.40204">
        <ele>91.6</ele>
      </trkpt>
      <trkpt lat="36.26607" lon="29.40209">
        <ele>91.7</ele>
      </trkpt>
      <trkpt lat="36.26607" lon="29.40249">
        <ele>92.6</ele>
      </trkpt>
      <trkpt lat="36.26598" lon="29.4029">
        <ele>93.8</ele>
      </trkpt>
      <trkpt lat="36.26595" lon="29.40302">
        <ele>94.1</ele>
      </trkpt>
      <trkpt lat="36.26587" lon="29.40333">
        <ele>94.8</ele>
      </trkpt>
      <trkpt lat="36.26581" lon="29.40354">
        <ele>95.1</ele>
      </trkpt>
      <trkpt lat="36.26585" lon="29.40387">
        <ele>97.5</ele>
      </trkpt>
      <trkpt lat="36.26589" lon="29.40423">
        <ele>99.7</ele>
      </trkpt>
      <trkpt lat="36.2659" lon="29.40428">
        <ele>99.6</ele>
      </trkpt>
      <trkpt lat="36.26568" lon="29.40483">
        <ele>94.4</ele>
      </trkpt>
      <trkpt lat="36.26552" lon="29.40507">
        <ele>91.5</ele>
      </trkpt>
      <trkpt lat="36.26539" lon="29.40527">
        <ele>88.3</ele>
      </trkpt>
      <trkpt lat="36.26531" lon="29.40539">
        <ele>86.3</ele>
      </trkpt>
      <trkpt lat="36.26532" lon="29.40584">
        <ele>81.5</ele>
      </trkpt>
      <trkpt lat="36.26533" lon="29.40634">
        <ele>76.3</ele>
      </trkpt>
      <trkpt lat="36.2653" lon="29.40656">
        <ele>74</ele>
      </trkpt>
      <trkpt lat="36.26527" lon="29.40669">
        <ele>72.5</ele>
      </trkpt>
      <trkpt lat="36.26522" lon="29.40685">
        <ele>71.6</ele>
      </trkpt>
      <trkpt lat="36.26507" lon="29.4074">
        <ele>68.7</ele>
      </trkpt>
      <trkpt lat="36.26512" lon="29.40778">
        <ele>66.9</ele>
      </trkpt>
      <trkpt lat="36.26516" lon="29.40807">
        <ele>65.4</ele>
      </trkpt>
      <trkpt lat="36.26523" lon="29.40869">
        <ele>65</ele>
      </trkpt>
      <trkpt lat="36.26533" lon="29.40937">
        <ele>66.6</ele>
      </trkpt>
      <trkpt lat="36.26552" lon="29.41035">
        <ele>67.4</ele>
      </trkpt>
      <trkpt lat="36.26553" lon="29.41039">
        <ele>67.4</ele>
      </trkpt>
      <trkpt lat="36.2656" lon="29.41078">
        <ele>67.7</ele>
      </trkpt>
      <trkpt lat="36.26567" lon="29.4112">
        <ele>64.9</ele>
      </trkpt>
      <trkpt lat="36.2657" lon="29.41133">
        <ele>63.9</ele>
      </trkpt>
      <trkpt lat="36.26581" lon="29.4119">
        <ele>60.3</ele>
      </trkpt>
      <trkpt lat="36.26584" lon="29.41211">
        <ele>59.4</ele>
      </trkpt>
      <trkpt lat="36.26592" lon="29.41251">
        <ele>57.4</ele>
      </trkpt>
      <trkpt lat="36.26601" lon="29.41324">
        <ele>52.6</ele>
      </trkpt>
      <trkpt lat="36.26612" lon="29.41378">
        <ele>53.9</ele>
      </trkpt>
      <trkpt lat="36.26617" lon="29.41374">
        <ele>54.5</ele>
      </trkpt>
      <trkpt lat="36.26621" lon="29.41376">
        <ele>55.1</ele>
      </trkpt>
      <trkpt lat="36.26624" lon="29.4138">
        <ele>55.4</ele>
      </trkpt>
      <trkpt lat="36.26622" lon="29.41388">
        <ele>55.4</ele>
      </trkpt>
      <trkpt lat="36.26617" lon="29.4139">
        <ele>54.9</ele>
      </trkpt>
      <trkpt lat="36.26613" lon="29.41388">
        <ele>54.3</ele>
      </trkpt>
      <trkpt lat="36.26598" lon="29.41404">
        <ele>52.7</ele>
      </trkpt>
      <trkpt lat="36.26582" lon="29.4142">
        <ele>50.9</ele>
      </trkpt>
      <trkpt lat="36.26559" lon="29.41455">
        <ele>49</ele>
      </trkpt>
      <trkpt lat="36.2655" lon="29.41455">
        <ele>47.6</ele>
      </trkpt>
      <trkpt lat="36.26547" lon="29.41465">
        <ele>47.6</ele>
      </trkpt>
      <trkpt lat="36.26552" lon="29.41473">
        <ele>49</ele>
      </trkpt>
      <trkpt lat="36.26554" lon="29.41501">
        <ele>50.8</ele>
      </trkpt>
      <trkpt lat="36.26549" lon="29.41521">
        <ele>52.5</ele>
      </trkpt>
      <trkpt lat="36.26516" lon="29.41569">
        <ele>54.6</ele>
      </trkpt>
      <trkpt lat="36.26505" lon="29.41586">
        <ele>55.9</ele>
      </trkpt>
      <trkpt lat="36.26495" lon="29.41604">
        <ele>57.2</ele>
      </trkpt>
      <trkpt lat="36.26483" lon="29.41629">
        <ele>58.8</ele>
      </trkpt>
      <trkpt lat="36.26476" lon="29.41643">
        <ele>59.6</ele>
      </trkpt>
      <trkpt lat="36.26459" lon="29.41684">
        <ele>62.3</ele>
      </trkpt>
      <trkpt lat="36.26425" lon="29.41755">
        <ele>66.7</ele>
      </trkpt>
      <trkpt lat="36.26425" lon="29.41778">
        <ele>75.2</ele>
      </trkpt>
      <trkpt lat="36.2643" lon="29.4179">
        <ele>80.6</ele>
      </trkpt>
      <trkpt lat="36.26382" lon="29.41818">
        <ele>81.5</ele>
      </trkpt>
      <trkpt lat="36.26363" lon="29.41826">
        <ele>80.5</ele>
      </trkpt>
      <trkpt lat="36.26337" lon="29.41831">
        <ele>77</ele>
      </trkpt>
      <trkpt lat="36.2627" lon="29.41832">
        <ele>77.2</ele>
      </trkpt>
      <trkpt lat="36.26231" lon="29.41837">
        <ele>79.2</ele>
      </trkpt>
      <trkpt lat="36.26183" lon="29.41847">
        <ele>82</ele>
      </trkpt>
      <trkpt lat="36.26136" lon="29.41859">
        <ele>84.6</ele>
      </trkpt>
      <trkpt lat="36.26045" lon="29.41889">
        <ele>88.4</ele>
      </trkpt>
      <trkpt lat="36.25929" lon="29.41935">
        <ele>88.6</ele>
      </trkpt>
      <trkpt lat="36.25903" lon="29.41945">
        <ele>88.3</ele>
      </trkpt>
      <trkpt lat="36.25871" lon="29.41954">
        <ele>86.6</ele>
      </trkpt>
      <trkpt lat="36.25825" lon="29.41964">
        <ele>83.1</ele>
      </trkpt>
      <trkpt lat="36.25776" lon="29.41972">
        <ele>84.1</ele>
      </trkpt>
      <trkpt lat="36.25735" lon="29.41976">
        <ele>85.4</ele>
      </trkpt>
      <trkpt lat="36.25689" lon="29.41977">
        <ele>86.7</ele>
      </trkpt>
      <trkpt lat="36.25642" lon="29.4198">
        <ele>89.8</ele>
      </trkpt>
      <trkpt lat="36.25593" lon="29.41981">
        <ele>92.1</ele>
      </trkpt>
      <trkpt lat="36.25565" lon="29.41985">
        <ele>92.3</ele>
      </trkpt>
      <trkpt lat="36.2553" lon="29.4199">
        <ele>91.5</ele>
      </trkpt>
      <trkpt lat="36.25504" lon="29.41997">
        <ele>91.3</ele>
      </trkpt>
      <trkpt lat="36.2547" lon="29.4201">
        <ele>93</ele>
      </trkpt>
      <trkpt lat="36.25449" lon="29.42021">
        <ele>94.4</ele>
      </trkpt>
      <trkpt lat="36.25417" lon="29.42038">
        <ele>95.6</ele>
      </trkpt>
      <trkpt lat="36.25374" lon="29.42074">
        <ele>99.4</ele>
      </trkpt>
      <trkpt lat="36.25292" lon="29.42148">
        <ele>105.4</ele>
      </trkpt>
      <trkpt lat="36.25165" lon="29.42267">
        <ele>106.5</ele>
      </trkpt>
      <trkpt lat="36.25128" lon="29.42296">
        <ele>110.9</ele>
      </trkpt>
      <trkpt lat="36.25087" lon="29.42328">
        <ele>110.1</ele>
      </trkpt>
      <trkpt lat="36.2503" lon="29.42372">
        <ele>116.9</ele>
      </trkpt>
      <trkpt lat="36.24988" lon="29.42408">
        <ele>115.6</ele>
      </trkpt>
      <trkpt lat="36.24943" lon="29.42451">
        <ele>120</ele>
      </trkpt>
      <trkpt lat="36.24871" lon="29.42528">
        <ele>119.8</ele>
      </trkpt>
      <trkpt lat="36.24838" lon="29.42563">
        <ele>120.6</ele>
      </trkpt>
      <trkpt lat="36.24804" lon="29.42596">
        <ele>120</ele>
      </trkpt>
      <trkpt lat="36.24785" lon="29.4261">
        <ele>121.1</ele>
      </trkpt>
      <trkpt lat="36.24801" lon="29.42654">
        <ele>127.4</ele>
      </trkpt>
      <trkpt lat="36.24828" lon="29.42712">
        <ele>134.7</ele>
      </trkpt>
      <trkpt lat="36.24855" lon="29.42754">
        <ele>147.5</ele>
      </trkpt>
      <trkpt lat="36.24866" lon="29.42753">
        <ele>150</ele>
      </trkpt>
      <trkpt lat="36.24862" lon="29.4277">
        <ele>154</ele>
      </trkpt>
      <trkpt lat="36.24859" lon="29.42777">
        <ele>155.3</ele>
      </trkpt>
      <trkpt lat="36.24854" lon="29.42796">
        <ele>159.4</ele>
      </trkpt>
      <trkpt lat="36.24847" lon="29.42806">
        <ele>160.4</ele>
      </trkpt>
      <trkpt lat="36.24842" lon="29.42815">
        <ele>162.4</ele>
      </trkpt>
      <trkpt lat="36.24838" lon="29.42824">
        <ele>164.1</ele>
      </trkpt>
      <trkpt lat="36.24806" lon="29.42849">
        <ele>173.4</ele>
      </trkpt>
      <trkpt lat="36.2482" lon="29.42866">
        <ele>177.8</ele>
      </trkpt>
      <trkpt lat="36.24834" lon="29.4287">
        <ele>178.4</ele>
      </trkpt>
      <trkpt lat="36.24851" lon="29.42869">
        <ele>181.1</ele>
      </trkpt>
      <trkpt lat="36.2486" lon="29.42886">
        <ele>187.9</ele>
      </trkpt>
      <trkpt lat="36.24863" lon="29.42902">
        <ele>193.3</ele>
      </trkpt>
      <trkpt lat="36.24867" lon="29.42921">
        <ele>199.3</ele>
      </trkpt>
      <trkpt lat="36.24868" lon="29.42939">
        <ele>203.1</ele>
      </trkpt>
      <trkpt lat="36.2486" lon="29.42959">
        <ele>206.5</ele>
      </trkpt>
      <trkpt lat="36.24848" lon="29.4299">
        <ele>212.1</ele>
      </trkpt>
      <trkpt lat="36.24872" lon="29.42996">
        <ele>215.4</ele>
      </trkpt>
      <trkpt lat="36.24861" lon="29.43021">
        <ele>219.4</ele>
      </trkpt>
      <trkpt lat="36.24858" lon="29.43053">
        <ele>225.6</ele>
      </trkpt>
      <trkpt lat="36.24888" lon="29.43078">
        <ele>229</ele>
      </trkpt>
      <trkpt lat="36.24894" lon="29.43105">
        <ele>232.3</ele>
      </trkpt>
      <trkpt lat="36.24915" lon="29.43179">
        <ele>236.9</ele>
      </trkpt>
      <trkpt lat="36.24933" lon="29.43223">
        <ele>242.9</ele>
      </trkpt>
      <trkpt lat="36.24938" lon="29.43266">
        <ele>250.1</ele>
      </trkpt>
      <trkpt lat="36.24944" lon="29.43274">
        <ele>250.9</ele>
      </trkpt>
      <trkpt lat="36.24937" lon="29.43281">
        <ele>252.7</ele>
      </trkpt>
      <trkpt lat="36.24943" lon="29.43292">
        <ele>253.9</ele>
      </trkpt>
      <trkpt lat="36.2493" lon="29.43304">
        <ele>257</ele>
      </trkpt>
      <trkpt lat="36.24946" lon="29.43306">
        <ele>256.2</ele>
      </trkpt>
      <trkpt lat="36.24943" lon="29.43315">
        <ele>257.9</ele>
      </trkpt>
      <trkpt lat="36.24948" lon="29.43321">
        <ele>258.6</ele>
      </trkpt>
      <trkpt lat="36.24945" lon="29.4333">
        <ele>260.3</ele>
      </trkpt>
      <trkpt lat="36.24963" lon="29.43338">
        <ele>261.2</ele>
      </trkpt>
      <trkpt lat="36.24985" lon="29.43343">
        <ele>261.5</ele>
      </trkpt>
      <trkpt lat="36.24994" lon="29.43348">
        <ele>262.2</ele>
      </trkpt>
      <trkpt lat="36.24996" lon="29.43356">
        <ele>263.9</ele>
      </trkpt>
      <trkpt lat="36.24993" lon="29.43363">
        <ele>265.4</ele>
      </trkpt>
      <trkpt lat="36.24973" lon="29.43375">
        <ele>267.9</ele>
      </trkpt>
      <trkpt lat="36.24953" lon="29.43396">
        <ele>271.7</ele>
      </trkpt>
      <trkpt lat="36.24939" lon="29.43404">
        <ele>272.8</ele>
      </trkpt>
      <trkpt lat="36.24932" lon="29.43429">
        <ele>275.8</ele>
      </trkpt>
      <trkpt lat="36.24973" lon="29.43414">
        <ele>275.4</ele>
      </trkpt>
      <trkpt lat="36.24999" lon="29.43408">
        <ele>275</ele>
      </trkpt>
      <trkpt lat="36.25017" lon="29.43412">
        <ele>276.7</ele>
      </trkpt>
      <trkpt lat="36.25033" lon="29.43427">
        <ele>279.4</ele>
      </trkpt>
      <trkpt lat="36.25043" lon="29.43436">
        <ele>280.5</ele>
      </trkpt>
      <trkpt lat="36.25049" lon="29.43464">
        <ele>283.3</ele>
      </trkpt>
      <trkpt lat="36.25073" lon="29.43463">
        <ele>282.9</ele>
      </trkpt>
      <trkpt lat="36.25117" lon="29.43446">
        <ele>279.6</ele>
      </trkpt>
      <trkpt lat="36.2515" lon="29.43481">
        <ele>278.2</ele>
      </trkpt>
      <trkpt lat="36.25151" lon="29.43498">
        <ele>278.4</ele>
      </trkpt>
      <trkpt lat="36.25143" lon="29.4353">
        <ele>278.8</ele>
      </trkpt>
      <trkpt lat="36.25115" lon="29.43581">
        <ele>277.5</ele>
      </trkpt>
      <trkpt lat="36.25103" lon="29.43581">
        <ele>277.4</ele>
      </trkpt>
      <trkpt lat="36.2509" lon="29.43593">
        <ele>276.8</ele>
      </trkpt>
      <trkpt lat="36.25077" lon="29.43594">
        <ele>276.7</ele>
      </trkpt>
      <trkpt lat="36.2506" lon="29.43592">
        <ele>276.9</ele>
      </trkpt>
      <trkpt lat="36.2505" lon="29.436">
        <ele>276.5</ele>
      </trkpt>
      <trkpt lat="36.25025" lon="29.43601">
        <ele>276.6</ele>
      </trkpt>
      <trkpt lat="36.25011" lon="29.43602">
        <ele>276.6</ele>
      </trkpt>
      <trkpt lat="36.25001" lon="29.43605">
        <ele>276.4</ele>
      </trkpt>
      <trkpt lat="36.25011" lon="29.4363">
        <ele>274.8</ele>
      </trkpt>
      <trkpt lat="36.2504" lon="29.43681">
        <ele>274</ele>
      </trkpt>
      <trkpt lat="36.25072" lon="29.43722">
        <ele>279.7</ele>
      </trkpt>
      <trkpt lat="36.25078" lon="29.43747">
        <ele>283.1</ele>
      </trkpt>
      <trkpt lat="36.25079" lon="29.43787">
        <ele>289.6</ele>
      </trkpt>
      <trkpt lat="36.25072" lon="29.43806">
        <ele>291.7</ele>
      </trkpt>
      <trkpt lat="36.25102" lon="29.43794">
        <ele>296.3</ele>
      </trkpt>
      <trkpt lat="36.25139" lon="29.43771">
        <ele>301.1</ele>
      </trkpt>
      <trkpt lat="36.25249" lon="29.43698">
        <ele>321.8</ele>
      </trkpt>
      <trkpt lat="36.25274" lon="29.43672">
        <ele>323.6</ele>
      </trkpt>
      <trkpt lat="36.25305" lon="29.43628">
        <ele>329.8</ele>
      </trkpt>
      <trkpt lat="36.25349" lon="29.43595">
        <ele>339.8</ele>
      </trkpt>
      <trkpt lat="36.25381" lon="29.43575">
        <ele>343.4</ele>
      </trkpt>
      <trkpt lat="36.25421" lon="29.43551">
        <ele>349.5</ele>
      </trkpt>
      <trkpt lat="36.25444" lon="29.43539">
        <ele>349.9</ele>
      </trkpt>
      <trkpt lat="36.25478" lon="29.4354">
        <ele>350.5</ele>
      </trkpt>
      <trkpt lat="36.25504" lon="29.43525">
        <ele>349</ele>
      </trkpt>
      <trkpt lat="36.25516" lon="29.4354">
        <ele>351.6</ele>
      </trkpt>
      <trkpt lat="36.25562" lon="29.4355">
        <ele>355.8</ele>
      </trkpt>
      <trkpt lat="36.25587" lon="29.43561">
        <ele>360.3</ele>
      </trkpt>
      <trkpt lat="36.2563" lon="29.43568">
        <ele>372</ele>
      </trkpt>
      <trkpt lat="36.25662" lon="29.43567">
        <ele>379.3</ele>
      </trkpt>
      <trkpt lat="36.25695" lon="29.43558">
        <ele>384.9</ele>
      </trkpt>
      <trkpt lat="36.25723" lon="29.43556">
        <ele>391.4</ele>
      </trkpt>
      <trkpt lat="36.25753" lon="29.43546">
        <ele>395.5</ele>
      </trkpt>
      <trkpt lat="36.25776" lon="29.43549">
        <ele>400.7</ele>
      </trkpt>
      <trkpt lat="36.2582" lon="29.43549">
        <ele>409.2</ele>
      </trkpt>
      <trkpt lat="36.25849" lon="29.43549">
        <ele>415.9</ele>
      </trkpt>
      <trkpt lat="36.25865" lon="29.43539">
        <ele>415.8</ele>
      </trkpt>
      <trkpt lat="36.25893" lon="29.43538">
        <ele>422.6</ele>
      </trkpt>
      <trkpt lat="36.25917" lon="29.43528">
        <ele>424.8</ele>
      </trkpt>
      <trkpt lat="36.25952" lon="29.43525">
        <ele>438.5</ele>
      </trkpt>
      <trkpt lat="36.25908" lon="29.43596">
        <ele>451.9</ele>
      </trkpt>
      <trkpt lat="36.25892" lon="29.43603">
        <ele>450.9</ele>
      </trkpt>
      <trkpt lat="36.25867" lon="29.43629">
        <ele>455</ele>
      </trkpt>
      <trkpt lat="36.25853" lon="29.43647">
        <ele>458.2</ele>
      </trkpt>
      <trkpt lat="36.25811" lon="29.43703">
        <ele>471.5</ele>
      </trkpt>
      <trkpt lat="36.25782" lon="29.43744">
        <ele>484</ele>
      </trkpt>
      <trkpt lat="36.25793" lon="29.43745">
        <ele>486.6</ele>
      </trkpt>
      <trkpt lat="36.25814" lon="29.43741">
        <ele>489.9</ele>
      </trkpt>
      <trkpt lat="36.25837" lon="29.43723">
        <ele>487.7</ele>
      </trkpt>
      <trkpt lat="36.25885" lon="29.43713">
        <ele>501.1</ele>
      </trkpt>
      <trkpt lat="36.25903" lon="29.43696">
        <ele>499.3</ele>
      </trkpt>
      <trkpt lat="36.25908" lon="29.437">
        <ele>503.1</ele>
      </trkpt>
      <trkpt lat="36.25901" lon="29.43716">
        <ele>509.1</ele>
      </trkpt>
      <trkpt lat="36.2589" lon="29.4373">
        <ele>511.8</ele>
      </trkpt>
      <trkpt lat="36.25877" lon="29.43744">
        <ele>514.1</ele>
      </trkpt>
      <trkpt lat="36.25882" lon="29.43748">
        <ele>517.7</ele>
      </trkpt>
      <trkpt lat="36.25899" lon="29.43743">
        <ele>522.3</ele>
      </trkpt>
      <trkpt lat="36.25923" lon="29.43731">
        <ele>526.2</ele>
      </trkpt>
      <trkpt lat="36.25938" lon="29.43714">
        <ele>523.5</ele>
      </trkpt>
      <trkpt lat="36.25967" lon="29.43691">
        <ele>525.2</ele>
      </trkpt>
      <trkpt lat="36.26008" lon="29.43685">
        <ele>541</ele>
      </trkpt>
      <trkpt lat="36.26035" lon="29.43693">
        <ele>556.4</ele>
      </trkpt>
      <trkpt lat="36.26069" lon="29.43678">
        <ele>564</ele>
      </trkpt>
      <trkpt lat="36.26103" lon="29.43634">
        <ele>562.3</ele>
      </trkpt>
      <trkpt lat="36.26114" lon="29.43605">
        <ele>557.2</ele>
      </trkpt>
      <trkpt lat="36.26129" lon="29.43584">
        <ele>557.5</ele>
      </trkpt>
      <trkpt lat="36.26169" lon="29.43589">
        <ele>575.8</ele>
      </trkpt>
      <trkpt lat="36.2621" lon="29.43599">
        <ele>583</ele>
      </trkpt>
      <trkpt lat="36.26233" lon="29.43594">
        <ele>583.8</ele>
      </trkpt>
      <trkpt lat="36.26252" lon="29.43589">
        <ele>584.1</ele>
      </trkpt>
      <trkpt lat="36.26295" lon="29.43564">
        <ele>588.1</ele>
      </trkpt>
      <trkpt lat="36.26343" lon="29.43543">
        <ele>595.8</ele>
      </trkpt>
      <trkpt lat="36.2637" lon="29.43539">
        <ele>600.5</ele>
      </trkpt>
      <trkpt lat="36.26392" lon="29.43531">
        <ele>603.9</ele>
      </trkpt>
      <trkpt lat="36.26431" lon="29.43535">
        <ele>611.4</ele>
      </trkpt>
      <trkpt lat="36.26458" lon="29.43532">
        <ele>614.2</ele>
      </trkpt>
      <trkpt lat="36.26483" lon="29.43532">
        <ele>617.4</ele>
      </trkpt>
      <trkpt lat="36.26497" lon="29.43535">
        <ele>619.4</ele>
      </trkpt>
      <trkpt lat="36.26503" lon="29.43549">
        <ele>621.7</ele>
      </trkpt>
      <trkpt lat="36.26528" lon="29.43554">
        <ele>626.9</ele>
      </trkpt>
      <trkpt lat="36.26563" lon="29.43548">
        <ele>632.4</ele>
      </trkpt>
      <trkpt lat="36.26591" lon="29.43535">
        <ele>634.7</ele>
      </trkpt>
      <trkpt lat="36.26606" lon="29.43531">
        <ele>637</ele>
      </trkpt>
      <trkpt lat="36.26619" lon="29.43533">
        <ele>640.7</ele>
      </trkpt>
      <trkpt lat="36.26621" lon="29.43544">
        <ele>644.3</ele>
      </trkpt>
      <trkpt lat="36.26617" lon="29.43565">
        <ele>648.9</ele>
      </trkpt>
      <trkpt lat="36.26605" lon="29.43577">
        <ele>648.8</ele>
      </trkpt>
      <trkpt lat="36.26597" lon="29.43595">
        <ele>652.2</ele>
      </trkpt>
      <trkpt lat="36.26588" lon="29.43605">
        <ele>652.9</ele>
      </trkpt>
      <trkpt lat="36.26542" lon="29.43683">
        <ele>666.8</ele>
      </trkpt>
      <trkpt lat="36.26568" lon="29.43684">
        <ele>674.6</ele>
      </trkpt>
      <trkpt lat="36.26597" lon="29.4368">
        <ele>681.1</ele>
      </trkpt>
      <trkpt lat="36.26621" lon="29.43672">
        <ele>685.1</ele>
      </trkpt>
      <trkpt lat="36.26661" lon="29.43677">
        <ele>696.8</ele>
      </trkpt>
      <trkpt lat="36.2668" lon="29.43675">
        <ele>701</ele>
      </trkpt>
      <trkpt lat="36.26697" lon="29.43666">
        <ele>702.9</ele>
      </trkpt>
      <trkpt lat="36.26704" lon="29.43668">
        <ele>705.3</ele>
      </trkpt>
      <trkpt lat="36.26704" lon="29.43674">
        <ele>707.1</ele>
      </trkpt>
      <trkpt lat="36.26696" lon="29.43693">
        <ele>710.7</ele>
      </trkpt>
      <trkpt lat="36.26671" lon="29.43724">
        <ele>714.1</ele>
      </trkpt>
      <trkpt lat="36.26649" lon="29.43757">
        <ele>718.4</ele>
      </trkpt>
      <trkpt lat="36.26642" lon="29.43776">
        <ele>722.3</ele>
      </trkpt>
      <trkpt lat="36.26623" lon="29.43796">
        <ele>724</ele>
      </trkpt>
      <trkpt lat="36.26618" lon="29.43813">
        <ele>728</ele>
      </trkpt>
      <trkpt lat="36.26625" lon="29.43816">
        <ele>731.2</ele>
      </trkpt>
      <trkpt lat="36.26641" lon="29.43813">
        <ele>734.5</ele>
      </trkpt>
      <trkpt lat="36.26668" lon="29.43798">
        <ele>736.8</ele>
      </trkpt>
      <trkpt lat="36.2668" lon="29.43787">
        <ele>736.2</ele>
      </trkpt>
      <trkpt lat="36.26707" lon="29.43782">
        <ele>741.2</ele>
      </trkpt>
      <trkpt lat="36.26751" lon="29.43765">
        <ele>746</ele>
      </trkpt>
      <trkpt lat="36.26791" lon="29.43757">
        <ele>756.8</ele>
      </trkpt>
      <trkpt lat="36.26867" lon="29.4373">
        <ele>772.9</ele>
      </trkpt>
      <trkpt lat="36.26891" lon="29.43713">
        <ele>776.4</ele>
      </trkpt>
      <trkpt lat="36.2692" lon="29.43689">
        <ele>781.7</ele>
      </trkpt>
      <trkpt lat="36.26937" lon="29.43673">
        <ele>783.2</ele>
      </trkpt>
      <trkpt lat="36.26954" lon="29.43648">
        <ele>786.4</ele>
      </trkpt>
      <trkpt lat="36.26964" lon="29.4364">
        <ele>789</ele>
      </trkpt>
      <trkpt lat="36.26977" lon="29.43643">
        <ele>792.9</ele>
      </trkpt>
      <trkpt lat="36.26993" lon="29.43654">
        <ele>796.5</ele>
      </trkpt>
      <trkpt lat="36.27009" lon="29.43671">
        <ele>798.7</ele>
      </trkpt>
      <trkpt lat="36.27014" lon="29.43687">
        <ele>799.7</ele>
      </trkpt>
      <trkpt lat="36.27011" lon="29.437">
        <ele>799.4</ele>
      </trkpt>
      <trkpt lat="36.26997" lon="29.4373">
        <ele>798.1</ele>
      </trkpt>
      <trkpt lat="36.26992" lon="29.43746">
        <ele>797.9</ele>
      </trkpt>
      <trkpt lat="36.27005" lon="29.43789">
        <ele>800.1</ele>
      </trkpt>
      <trkpt lat="36.27009" lon="29.43809">
        <ele>800.6</ele>
      </trkpt>
      <trkpt lat="36.27018" lon="29.43851">
        <ele>801.4</ele>
      </trkpt>
      <trkpt lat="36.27036" lon="29.43886">
        <ele>801.3</ele>
      </trkpt>
      <trkpt lat="36.27056" lon="29.43918">
        <ele>800</ele>
      </trkpt>
      <trkpt lat="36.27086" lon="29.43972">
        <ele>797.7</ele>
      </trkpt>
      <trkpt lat="36.271" lon="29.4401">
        <ele>795.5</ele>
      </trkpt>
      <trkpt lat="36.27108" lon="29.44041">
        <ele>794.4</ele>
      </trkpt>
      <trkpt lat="36.27142" lon="29.44097">
        <ele>790.9</ele>
      </trkpt>
      <trkpt lat="36.27171" lon="29.4412">
        <ele>788.2</ele>
      </trkpt>
      <trkpt lat="36.27201" lon="29.44159">
        <ele>787.3</ele>
      </trkpt>
      <trkpt lat="36.27224" lon="29.44182">
        <ele>786.1</ele>
      </trkpt>
      <trkpt lat="36.27239" lon="29.44207">
        <ele>784.8</ele>
      </trkpt>
      <trkpt lat="36.27248" lon="29.44217">
        <ele>783.9</ele>
      </trkpt>
      <trkpt lat="36.27267" lon="29.44228">
        <ele>784.4</ele>
      </trkpt>
      <trkpt lat="36.27282" lon="29.44248">
        <ele>783.9</ele>
      </trkpt>
      <trkpt lat="36.27334" lon="29.44343">
        <ele>779.9</ele>
      </trkpt>
      <trkpt lat="36.27349" lon="29.44362">
        <ele>781.9</ele>
      </trkpt>
      <trkpt lat="36.27366" lon="29.44374">
        <ele>782.4</ele>
      </trkpt>
      <trkpt lat="36.27388" lon="29.44405">
        <ele>781.4</ele>
      </trkpt>
      <trkpt lat="36.27403" lon="29.44414">
        <ele>779.7</ele>
      </trkpt>
      <trkpt lat="36.27406" lon="29.44432">
        <ele>778.7</ele>
      </trkpt>
      <trkpt lat="36.27431" lon="29.44456">
        <ele>777.9</ele>
      </trkpt>
      <trkpt lat="36.27452" lon="29.44497">
        <ele>775.9</ele>
      </trkpt>
      <trkpt lat="36.2746" lon="29.44524">
        <ele>774.4</ele>
      </trkpt>
      <trkpt lat="36.27464" lon="29.44543">
        <ele>772.8</ele>
      </trkpt>
      <trkpt lat="36.2748" lon="29.4457">
        <ele>768</ele>
      </trkpt>
      <trkpt lat="36.27494" lon="29.44602">
        <ele>761.3</ele>
      </trkpt>
      <trkpt lat="36.27517" lon="29.44673">
        <ele>757.5</ele>
      </trkpt>
      <trkpt lat="36.27539" lon="29.44743">
        <ele>748.7</ele>
      </trkpt>
      <trkpt lat="36.27545" lon="29.44772">
        <ele>744.7</ele>
      </trkpt>
      <trkpt lat="36.27543" lon="29.44806">
        <ele>739.6</ele>
      </trkpt>
      <trkpt lat="36.27536" lon="29.44836">
        <ele>735.4</ele>
      </trkpt>
      <trkpt lat="36.27535" lon="29.44943">
        <ele>736</ele>
      </trkpt>
      <trkpt lat="36.2753" lon="29.45022">
        <ele>737.1</ele>
      </trkpt>
      <trkpt lat="36.27531" lon="29.45053">
        <ele>736.9</ele>
      </trkpt>
      <trkpt lat="36.27542" lon="29.45078">
        <ele>737</ele>
      </trkpt>
      <trkpt lat="36.27565" lon="29.45101">
        <ele>737.3</ele>
      </trkpt>
      <trkpt lat="36.27573" lon="29.45117">
        <ele>737.4</ele>
      </trkpt>
      <trkpt lat="36.27572" lon="29.45154">
        <ele>736.9</ele>
      </trkpt>
      <trkpt lat="36.27561" lon="29.45371">
        <ele>737.1</ele>
      </trkpt>
      <trkpt lat="36.27555" lon="29.45495">
        <ele>735.8</ele>
      </trkpt>
      <trkpt lat="36.27568" lon="29.45695">
        <ele>736.8</ele>
      </trkpt>
      <trkpt lat="36.27578" lon="29.45763">
        <ele>736.1</ele>
      </trkpt>
      <trkpt lat="36.27567" lon="29.45818">
        <ele>736.2</ele>
      </trkpt>
      <trkpt lat="36.27569" lon="29.45901">
        <ele>737.4</ele>
      </trkpt>
      <trkpt lat="36.2756" lon="29.4595">
        <ele>738.2</ele>
      </trkpt>
      <trkpt lat="36.27559" lon="29.46013">
        <ele>739.2</ele>
      </trkpt>
      <trkpt lat="36.2755" lon="29.4606">
        <ele>738.6</ele>
      </trkpt>
      <trkpt lat="36.27549" lon="29.46087">
        <ele>738.4</ele>
      </trkpt>
      <trkpt lat="36.27561" lon="29.46108">
        <ele>738.3</ele>
      </trkpt>
      <trkpt lat="36.27566" lon="29.4613">
        <ele>738.2</ele>
      </trkpt>
      <trkpt lat="36.2756" lon="29.46189">
        <ele>739</ele>
      </trkpt>
      <trkpt lat="36.27547" lon="29.46223">
        <ele>740.2</ele>
      </trkpt>
      <trkpt lat="36.27527" lon="29.46257">
        <ele>740.9</ele>
      </trkpt>
      <trkpt lat="36.27515" lon="29.46259">
        <ele>740.9</ele>
      </trkpt>
      <trkpt lat="36.27477" lon="29.46258">
        <ele>740.3</ele>
      </trkpt>
      <trkpt lat="36.27442" lon="29.46251">
        <ele>739.6</ele>
      </trkpt>
      <trkpt lat="36.27428" lon="29.46236">
        <ele>739.1</ele>
      </trkpt>
      <trkpt lat="36.27401" lon="29.46225">
        <ele>738.7</ele>
      </trkpt>
      <trkpt lat="36.27372" lon="29.46223">
        <ele>738.7</ele>
      </trkpt>
      <trkpt lat="36.27321" lon="29.46222">
        <ele>738.5</ele>
      </trkpt>
      <trkpt lat="36.27289" lon="29.46212">
        <ele>738</ele>
      </trkpt>
      <trkpt lat="36.27259" lon="29.46205">
        <ele>737.6</ele>
      </trkpt>
      <trkpt lat="36.2721" lon="29.46206">
        <ele>738.2</ele>
      </trkpt>
      <trkpt lat="36.27188" lon="29.46211">
        <ele>738.6</ele>
      </trkpt>
      <trkpt lat="36.27179" lon="29.46267">
        <ele>739</ele>
      </trkpt>
      <trkpt lat="36.27169" lon="29.46343">
        <ele>739.7</ele>
      </trkpt>
      <trkpt lat="36.27092" lon="29.4637">
        <ele>738.9</ele>
      </trkpt>
      <trkpt lat="36.27084" lon="29.46379">
        <ele>739.1</ele>
      </trkpt>
      <trkpt lat="36.27069" lon="29.46425">
        <ele>743.9</ele>
      </trkpt>
      <trkpt lat="36.27031" lon="29.46429">
        <ele>748.7</ele>
      </trkpt>
      <trkpt lat="36.26994" lon="29.46408">
        <ele>745.5</ele>
      </trkpt>
      <trkpt lat="36.26889" lon="29.46382">
        <ele>749.4</ele>
      </trkpt>
      <trkpt lat="36.26853" lon="29.46366">
        <ele>750.9</ele>
      </trkpt>
      <trkpt lat="36.26837" lon="29.46381">
        <ele>756.6</ele>
      </trkpt>
      <trkpt lat="36.26831" lon="29.46392">
        <ele>760.8</ele>
      </trkpt>
      <trkpt lat="36.26845" lon="29.4643">
        <ele>769.9</ele>
      </trkpt>
      <trkpt lat="36.26789" lon="29.4646">
        <ele>797.9</ele>
      </trkpt>
      <trkpt lat="36.26764" lon="29.46507">
        <ele>815</ele>
      </trkpt>
      <trkpt lat="36.26728" lon="29.46543">
        <ele>830.4</ele>
      </trkpt>
      <trkpt lat="36.26691" lon="29.46557">
        <ele>838.8</ele>
      </trkpt>
      <trkpt lat="36.26661" lon="29.4657">
        <ele>844.4</ele>
      </trkpt>
      <trkpt lat="36.26632" lon="29.4657">
        <ele>851.8</ele>
      </trkpt>
      <trkpt lat="36.26625" lon="29.46563">
        <ele>854</ele>
      </trkpt>
      <trkpt lat="36.26615" lon="29.46574">
        <ele>856.2</ele>
      </trkpt>
      <trkpt lat="36.26604" lon="29.46578">
        <ele>858.5</ele>
      </trkpt>
      <trkpt lat="36.26596" lon="29.46572">
        <ele>861</ele>
      </trkpt>
      <trkpt lat="36.26591" lon="29.46558">
        <ele>863.9</ele>
      </trkpt>
      <trkpt lat="36.26591" lon="29.46547">
        <ele>865.2</ele>
      </trkpt>
      <trkpt lat="36.26599" lon="29.46526">
        <ele>864.8</ele>
      </trkpt>
      <trkpt lat="36.26619" lon="29.46485">
        <ele>862.2</ele>
      </trkpt>
      <trkpt lat="36.26613" lon="29.46481">
        <ele>865.2</ele>
      </trkpt>
      <trkpt lat="36.26603" lon="29.46487">
        <ele>868.2</ele>
      </trkpt>
      <trkpt lat="36.26582" lon="29.4651">
        <ele>872.1</ele>
      </trkpt>
      <trkpt lat="36.2656" lon="29.46527">
        <ele>875.6</ele>
      </trkpt>
      <trkpt lat="36.26538" lon="29.46538">
        <ele>879.3</ele>
      </trkpt>
      <trkpt lat="36.26511" lon="29.46553">
        <ele>883.7</ele>
      </trkpt>
      <trkpt lat="36.26496" lon="29.46555">
        <ele>886.5</ele>
      </trkpt>
      <trkpt lat="36.26468" lon="29.46545">
        <ele>890.6</ele>
      </trkpt>
      <trkpt lat="36.26437" lon="29.4654">
        <ele>894.3</ele>
      </trkpt>
      <trkpt lat="36.26402" lon="29.46532">
        <ele>895.7</ele>
      </trkpt>
      <trkpt lat="36.26373" lon="29.46522">
        <ele>893</ele>
      </trkpt>
      <trkpt lat="36.26362" lon="29.46515">
        <ele>892.2</ele>
      </trkpt>
      <trkpt lat="36.26299" lon="29.46411">
        <ele>910.1</ele>
      </trkpt>
      <trkpt lat="36.26281" lon="29.46396">
        <ele>908.6</ele>
      </trkpt>
      <trkpt lat="36.26265" lon="29.46379">
        <ele>908.1</ele>
      </trkpt>
      <trkpt lat="36.26243" lon="29.46354">
        <ele>906.8</ele>
      </trkpt>
      <trkpt lat="36.26223" lon="29.46318">
        <ele>906.3</ele>
      </trkpt>
      <trkpt lat="36.26218" lon="29.463">
        <ele>906</ele>
      </trkpt>
      <trkpt lat="36.26221" lon="29.46272">
        <ele>909.8</ele>
      </trkpt>
      <trkpt lat="36.26235" lon="29.46208">
        <ele>916.8</ele>
      </trkpt>
      <trkpt lat="36.26238" lon="29.46184">
        <ele>917.6</ele>
      </trkpt>
      <trkpt lat="36.26233" lon="29.46159">
        <ele>915.8</ele>
      </trkpt>
      <trkpt lat="36.26235" lon="29.46132">
        <ele>916.2</ele>
      </trkpt>
      <trkpt lat="36.26236" lon="29.46087">
        <ele>915.9</ele>
      </trkpt>
      <trkpt lat="36.26243" lon="29.46028">
        <ele>915.4</ele>
      </trkpt>
      <trkpt lat="36.2623" lon="29.46021">
        <ele>914.4</ele>
      </trkpt>
      <trkpt lat="36.26225" lon="29.46011">
        <ele>914.4</ele>
      </trkpt>
      <trkpt lat="36.26216" lon="29.46011">
        <ele>914.2</ele>
      </trkpt>
      <trkpt lat="36.26211" lon="29.46021">
        <ele>913.4</ele>
      </trkpt>
      <trkpt lat="36.26202" lon="29.46024">
        <ele>912.6</ele>
      </trkpt>
      <trkpt lat="36.26204" lon="29.46032">
        <ele>912</ele>
      </trkpt>
      <trkpt lat="36.26191" lon="29.46063">
        <ele>906</ele>
      </trkpt>
      <trkpt lat="36.2618" lon="29.4607">
        <ele>902.3</ele>
      </trkpt>
      <trkpt lat="36.26167" lon="29.46086">
        <ele>895.9</ele>
      </trkpt>
      <trkpt lat="36.26154" lon="29.46109">
        <ele>894.7</ele>
      </trkpt>
      <trkpt lat="36.26138" lon="29.46146">
        <ele>890.7</ele>
      </trkpt>
      <trkpt lat="36.26136" lon="29.46154">
        <ele>889.7</ele>
      </trkpt>
      <trkpt lat="36.26137" lon="29.46163">
        <ele>888.9</ele>
      </trkpt>
      <trkpt lat="36.26145" lon="29.46172">
        <ele>889.1</ele>
      </trkpt>
      <trkpt lat="36.26156" lon="29.46207">
        <ele>889.4</ele>
      </trkpt>
      <trkpt lat="36.26152" lon="29.46213">
        <ele>888.5</ele>
      </trkpt>
      <trkpt lat="36.26157" lon="29.46222">
        <ele>889.3</ele>
      </trkpt>
      <trkpt lat="36.26144" lon="29.46257">
        <ele>884.1</ele>
      </trkpt>
      <trkpt lat="36.26137" lon="29.46324">
        <ele>870.9</ele>
      </trkpt>
      <trkpt lat="36.2614" lon="29.4634">
        <ele>868.8</ele>
      </trkpt>
      <trkpt lat="36.26146" lon="29.46356">
        <ele>866.1</ele>
      </trkpt>
      <trkpt lat="36.26151" lon="29.46397">
        <ele>854.1</ele>
      </trkpt>
      <trkpt lat="36.26169" lon="29.46422">
        <ele>853.1</ele>
      </trkpt>
      <trkpt lat="36.26169" lon="29.46438">
        <ele>847.7</ele>
      </trkpt>
      <trkpt lat="36.26176" lon="29.46453">
        <ele>845.1</ele>
      </trkpt>
      <trkpt lat="36.26188" lon="29.4646">
        <ele>847.5</ele>
      </trkpt>
      <trkpt lat="36.26197" lon="29.46478">
        <ele>845.3</ele>
      </trkpt>
      <trkpt lat="36.26194" lon="29.46498">
        <ele>836.6</ele>
      </trkpt>
      <trkpt lat="36.26186" lon="29.46513">
        <ele>831.4</ele>
      </trkpt>
      <trkpt lat="36.26174" lon="29.46525">
        <ele>825.2</ele>
      </trkpt>
      <trkpt lat="36.26166" lon="29.46538">
        <ele>821.1</ele>
      </trkpt>
      <trkpt lat="36.26155" lon="29.46547">
        <ele>816.7</ele>
      </trkpt>
      <trkpt lat="36.26151" lon="29.46575">
        <ele>813.1</ele>
      </trkpt>
      <trkpt lat="36.26139" lon="29.466">
        <ele>806.8</ele>
      </trkpt>
      <trkpt lat="36.26133" lon="29.46605">
        <ele>804.2</ele>
      </trkpt>
      <trkpt lat="36.26118" lon="29.46635">
        <ele>796.3</ele>
      </trkpt>
      <trkpt lat="36.26109" lon="29.46631">
        <ele>792.8</ele>
      </trkpt>
      <trkpt lat="36.26106" lon="29.46623">
        <ele>792.6</ele>
      </trkpt>
      <trkpt lat="36.26095" lon="29.46625">
        <ele>788.1</ele>
      </trkpt>
      <trkpt lat="36.2609" lon="29.46628">
        <ele>785.8</ele>
      </trkpt>
      <trkpt lat="36.26087" lon="29.46617">
        <ele>785.8</ele>
      </trkpt>
      <trkpt lat="36.26076" lon="29.4661">
        <ele>782.7</ele>
      </trkpt>
      <trkpt lat="36.26069" lon="29.46602">
        <ele>781.3</ele>
      </trkpt>
      <trkpt lat="36.26072" lon="29.46591">
        <ele>783.8</ele>
      </trkpt>
      <trkpt lat="36.26068" lon="29.4659">
        <ele>782.7</ele>
      </trkpt>
      <trkpt lat="36.26063" lon="29.46597">
        <ele>780.3</ele>
      </trkpt>
      <trkpt lat="36.26058" lon="29.46592">
        <ele>779.2</ele>
      </trkpt>
      <trkpt lat="36.26055" lon="29.46585">
        <ele>779.6</ele>
      </trkpt>
      <trkpt lat="36.26046" lon="29.46579">
        <ele>778</ele>
      </trkpt>
      <trkpt lat="36.26031" lon="29.46577">
        <ele>774.1</ele>
      </trkpt>
      <trkpt lat="36.26031" lon="29.46589">
        <ele>771.8</ele>
      </trkpt>
      <trkpt lat="36.26036" lon="29.466">
        <ele>771.2</ele>
      </trkpt>
      <trkpt lat="36.26037" lon="29.46613">
        <ele>768.7</ele>
      </trkpt>
      <trkpt lat="36.26032" lon="29.46631">
        <ele>763.4</ele>
      </trkpt>
      <trkpt lat="36.26027" lon="29.46629">
        <ele>761.8</ele>
      </trkpt>
      <trkpt lat="36.26023" lon="29.46644">
        <ele>757.2</ele>
      </trkpt>
      <trkpt lat="36.26025" lon="29.46652">
        <ele>756.4</ele>
      </trkpt>
      <trkpt lat="36.26009" lon="29.46645">
        <ele>751.4</ele>
      </trkpt>
      <trkpt lat="36.26005" lon="29.46649">
        <ele>748.9</ele>
      </trkpt>
      <trkpt lat="36.25992" lon="29.46645">
        <ele>746.3</ele>
      </trkpt>
      <trkpt lat="36.25984" lon="29.46651">
        <ele>743.4</ele>
      </trkpt>
      <trkpt lat="36.25955" lon="29.46634">
        <ele>743.3</ele>
      </trkpt>
      <trkpt lat="36.25937" lon="29.46638">
        <ele>738.9</ele>
      </trkpt>
      <trkpt lat="36.25918" lon="29.46637">
        <ele>736.2</ele>
      </trkpt>
      <trkpt lat="36.25899" lon="29.46627">
        <ele>737.7</ele>
      </trkpt>
      <trkpt lat="36.25892" lon="29.46639">
        <ele>732.7</ele>
      </trkpt>
      <trkpt lat="36.25899" lon="29.46646">
        <ele>730.8</ele>
      </trkpt>
      <trkpt lat="36.25914" lon="29.4665">
        <ele>731.4</ele>
      </trkpt>
      <trkpt lat="36.25933" lon="29.46652">
        <ele>733.9</ele>
      </trkpt>
      <trkpt lat="36.25942" lon="29.46665">
        <ele>731.3</ele>
      </trkpt>
      <trkpt lat="36.25943" lon="29.46681">
        <ele>727.4</ele>
      </trkpt>
      <trkpt lat="36.25938" lon="29.46691">
        <ele>723.9</ele>
      </trkpt>
      <trkpt lat="36.25929" lon="29.46692">
        <ele>721.8</ele>
      </trkpt>
      <trkpt lat="36.25926" lon="29.46705">
        <ele>717.9</ele>
      </trkpt>
      <trkpt lat="36.25922" lon="29.46713">
        <ele>714.8</ele>
      </trkpt>
      <trkpt lat="36.25907" lon="29.46719">
        <ele>711.2</ele>
      </trkpt>
      <trkpt lat="36.25897" lon="29.46722">
        <ele>709.2</ele>
      </trkpt>
      <trkpt lat="36.25893" lon="29.46741">
        <ele>704</ele>
      </trkpt>
      <trkpt lat="36.25886" lon="29.46751">
        <ele>701</ele>
      </trkpt>
      <trkpt lat="36.2587" lon="29.46741">
        <ele>701.8</ele>
      </trkpt>
      <trkpt lat="36.25854" lon="29.46734">
        <ele>701.7</ele>
      </trkpt>
      <trkpt lat="36.25831" lon="29.46734">
        <ele>699.6</ele>
      </trkpt>
      <trkpt lat="36.25807" lon="29.46735">
        <ele>699.3</ele>
      </trkpt>
      <trkpt lat="36.25781" lon="29.46739">
        <ele>698.2</ele>
      </trkpt>
      <trkpt lat="36.25747" lon="29.46755">
        <ele>695.3</ele>
      </trkpt>
      <trkpt lat="36.2575" lon="29.46765">
        <ele>694.3</ele>
      </trkpt>
      <trkpt lat="36.25709" lon="29.46794">
        <ele>696.7</ele>
      </trkpt>
      <trkpt lat="36.25722" lon="29.46822">
        <ele>693.1</ele>
      </trkpt>
      <trkpt lat="36.25728" lon="29.46847">
        <ele>691.5</ele>
      </trkpt>
      <trkpt lat="36.25725" lon="29.46869">
        <ele>691.2</ele>
      </trkpt>
      <trkpt lat="36.25725" lon="29.46888">
        <ele>690.8</ele>
      </trkpt>
      <trkpt lat="36.25722" lon="29.46901">
        <ele>690.7</ele>
      </trkpt>
      <trkpt lat="36.25718" lon="29.46914">
        <ele>690.5</ele>
      </trkpt>
      <trkpt lat="36.2572" lon="29.46934">
        <ele>690.4</ele>
      </trkpt>
      <trkpt lat="36.25727" lon="29.46938">
        <ele>690.4</ele>
      </trkpt>
      <trkpt lat="36.25734" lon="29.46942">
        <ele>690.4</ele>
      </trkpt>
      <trkpt lat="36.25733" lon="29.47001">
        <ele>690.9</ele>
      </trkpt>
      <trkpt lat="36.25742" lon="29.47008">
        <ele>691.4</ele>
      </trkpt>
      <trkpt lat="36.25765" lon="29.47009">
        <ele>691.8</ele>
      </trkpt>
      <trkpt lat="36.25766" lon="29.47035">
        <ele>693</ele>
      </trkpt>
      <trkpt lat="36.25766" lon="29.4707">
        <ele>694.6</ele>
      </trkpt>
      <trkpt lat="36.25774" lon="29.47086">
        <ele>695.2</ele>
      </trkpt>
      <trkpt lat="36.25783" lon="29.47119">
        <ele>699.9</ele>
      </trkpt>
      <trkpt lat="36.25789" lon="29.47146">
        <ele>703.7</ele>
      </trkpt>
      <trkpt lat="36.25787" lon="29.47162">
        <ele>706.3</ele>
      </trkpt>
      <trkpt lat="36.25778" lon="29.47174">
        <ele>710.4</ele>
      </trkpt>
      <trkpt lat="36.25773" lon="29.47183">
        <ele>713.8</ele>
      </trkpt>
      <trkpt lat="36.25781" lon="29.47189">
        <ele>714.6</ele>
      </trkpt>
      <trkpt lat="36.25778" lon="29.47198">
        <ele>717.6</ele>
      </trkpt>
      <trkpt lat="36.25785" lon="29.47202">
        <ele>717.9</ele>
      </trkpt>
      <trkpt lat="36.25787" lon="29.47209">
        <ele>719.4</ele>
      </trkpt>
      <trkpt lat="36.25781" lon="29.47218">
        <ele>723.3</ele>
      </trkpt>
      <trkpt lat="36.25773" lon="29.47213">
        <ele>723</ele>
      </trkpt>
      <trkpt lat="36.25768" lon="29.47214">
        <ele>724.3</ele>
      </trkpt>
      <trkpt lat="36.25767" lon="29.4722">
        <ele>726.3</ele>
      </trkpt>
      <trkpt lat="36.25785" lon="29.47232">
        <ele>726.8</ele>
      </trkpt>
      <trkpt lat="36.25784" lon="29.47237">
        <ele>728.3</ele>
      </trkpt>
      <trkpt lat="36.25791" lon="29.47243">
        <ele>728.7</ele>
      </trkpt>
      <trkpt lat="36.25792" lon="29.4725">
        <ele>730.6</ele>
      </trkpt>
      <trkpt lat="36.2579" lon="29.47256">
        <ele>732.5</ele>
      </trkpt>
      <trkpt lat="36.25781" lon="29.47262">
        <ele>735.8</ele>
      </trkpt>
      <trkpt lat="36.25773" lon="29.4726">
        <ele>737.3</ele>
      </trkpt>
      <trkpt lat="36.25755" lon="29.4726">
        <ele>741.4</ele>
      </trkpt>
      <trkpt lat="36.25738" lon="29.47257">
        <ele>744</ele>
      </trkpt>
      <trkpt lat="36.25725" lon="29.47259">
        <ele>746.5</ele>
      </trkpt>
      <trkpt lat="36.25718" lon="29.47261">
        <ele>748.2</ele>
      </trkpt>
      <trkpt lat="36.25714" lon="29.47267">
        <ele>750.1</ele>
      </trkpt>
      <trkpt lat="36.25711" lon="29.47275">
        <ele>752.5</ele>
      </trkpt>
      <trkpt lat="36.25705" lon="29.47289">
        <ele>756.4</ele>
      </trkpt>
      <trkpt lat="36.25709" lon="29.47295">
        <ele>757</ele>
      </trkpt>
      <trkpt lat="36.25702" lon="29.47309">
        <ele>761.1</ele>
      </trkpt>
      <trkpt lat="36.25698" lon="29.47311">
        <ele>762</ele>
      </trkpt>
      <trkpt lat="36.25692" lon="29.47316">
        <ele>763.8</ele>
      </trkpt>
      <trkpt lat="36.25678" lon="29.47334">
        <ele>768.8</ele>
      </trkpt>
      <trkpt lat="36.25674" lon="29.47343">
        <ele>769.6</ele>
      </trkpt>
      <trkpt lat="36.25704" lon="29.47371">
        <ele>768.3</ele>
      </trkpt>
      <trkpt lat="36.2572" lon="29.47388">
        <ele>768.3</ele>
      </trkpt>
      <trkpt lat="36.25747" lon="29.47423">
        <ele>769.7</ele>
      </trkpt>
      <trkpt lat="36.25767" lon="29.47447">
        <ele>770.2</ele>
      </trkpt>
      <trkpt lat="36.25788" lon="29.47466">
        <ele>770.9</ele>
      </trkpt>
      <trkpt lat="36.25839" lon="29.47508">
        <ele>774</ele>
      </trkpt>
      <trkpt lat="36.25924" lon="29.47615">
        <ele>777.7</ele>
      </trkpt>
      <trkpt lat="36.25948" lon="29.47657">
        <ele>776.3</ele>
      </trkpt>
      <trkpt lat="36.25981" lon="29.47744">
        <ele>778</ele>
      </trkpt>
      <trkpt lat="36.25989" lon="29.47796">
        <ele>784.3</ele>
      </trkpt>
      <trkpt lat="36.25996" lon="29.47797">
        <ele>783.7</ele>
      </trkpt>
      <trkpt lat="36.26005" lon="29.47802">
        <ele>782.9</ele>
      </trkpt>
      <trkpt lat="36.26051" lon="29.4785">
        <ele>777.1</ele>
      </trkpt>
      <trkpt lat="36.26067" lon="29.47868">
        <ele>774.8</ele>
      </trkpt>
      <trkpt lat="36.26079" lon="29.47895">
        <ele>774.6</ele>
      </trkpt>
      <trkpt lat="36.26091" lon="29.47919">
        <ele>774.7</ele>
      </trkpt>
      <trkpt lat="36.26094" lon="29.47937">
        <ele>775.6</ele>
      </trkpt>
      <trkpt lat="36.26092" lon="29.47962">
        <ele>777.7</ele>
      </trkpt>
      <trkpt lat="36.26092" lon="29.47983">
        <ele>779.3</ele>
      </trkpt>
      <trkpt lat="36.26098" lon="29.47998">
        <ele>779.5</ele>
      </trkpt>
      <trkpt lat="36.26108" lon="29.48008">
        <ele>779.3</ele>
      </trkpt>
      <trkpt lat="36.26119" lon="29.48016">
        <ele>778.6</ele>
      </trkpt>
      <trkpt lat="36.26125" lon="29.48033">
        <ele>779.8</ele>
      </trkpt>
      <trkpt lat="36.26129" lon="29.48051">
        <ele>781.5</ele>
      </trkpt>
      <trkpt lat="36.26136" lon="29.48061">
        <ele>781.5</ele>
      </trkpt>
      <trkpt lat="36.26141" lon="29.48073">
        <ele>782.1</ele>
      </trkpt>
      <trkpt lat="36.26135" lon="29.48087">
        <ele>785.1</ele>
      </trkpt>
      <trkpt lat="36.26135" lon="29.48093">
        <ele>786.4</ele>
      </trkpt>
      <trkpt lat="36.26129" lon="29.48097">
        <ele>788.6</ele>
      </trkpt>
      <trkpt lat="36.26122" lon="29.48101">
        <ele>790.9</ele>
      </trkpt>
      <trkpt lat="36.26122" lon="29.48112">
        <ele>793.4</ele>
      </trkpt>
      <trkpt lat="36.26122" lon="29.48118">
        <ele>794.9</ele>
      </trkpt>
      <trkpt lat="36.26111" lon="29.48119">
        <ele>798</ele>
      </trkpt>
      <trkpt lat="36.26106" lon="29.48118">
        <ele>799.1</ele>
      </trkpt>
      <trkpt lat="36.26097" lon="29.48118">
        <ele>801.4</ele>
      </trkpt>
      <trkpt lat="36.2609" lon="29.48113">
        <ele>802.1</ele>
      </trkpt>
      <trkpt lat="36.26081" lon="29.48117">
        <ele>805.1</ele>
      </trkpt>
      <trkpt lat="36.26068" lon="29.4812">
        <ele>808.5</ele>
      </trkpt>
      <trkpt lat="36.26053" lon="29.48119">
        <ele>811.1</ele>
      </trkpt>
      <trkpt lat="36.26041" lon="29.48118">
        <ele>812.9</ele>
      </trkpt>
      <trkpt lat="36.26025" lon="29.48126">
        <ele>818.5</ele>
      </trkpt>
      <trkpt lat="36.26008" lon="29.48127">
        <ele>822.2</ele>
      </trkpt>
      <trkpt lat="36.26002" lon="29.48127">
        <ele>823.3</ele>
      </trkpt>
      <trkpt lat="36.25992" lon="29.4813">
        <ele>825.6</ele>
      </trkpt>
      <trkpt lat="36.25982" lon="29.48132">
        <ele>827.1</ele>
      </trkpt>
      <trkpt lat="36.2597" lon="29.48143">
        <ele>831.9</ele>
      </trkpt>
      <trkpt lat="36.2596" lon="29.48145">
        <ele>833</ele>
      </trkpt>
      <trkpt lat="36.25955" lon="29.48152">
        <ele>835.7</ele>
      </trkpt>
      <trkpt lat="36.25941" lon="29.48159">
        <ele>838.7</ele>
      </trkpt>
      <trkpt lat="36.25927" lon="29.48163">
        <ele>840.5</ele>
      </trkpt>
      <trkpt lat="36.25909" lon="29.48174">
        <ele>845.1</ele>
      </trkpt>
      <trkpt lat="36.259" lon="29.4818">
        <ele>847.7</ele>
      </trkpt>
      <trkpt lat="36.25894" lon="29.48186">
        <ele>850</ele>
      </trkpt>
      <trkpt lat="36.25883" lon="29.4819">
        <ele>851.4</ele>
      </trkpt>
      <trkpt lat="36.25877" lon="29.48196">
        <ele>853.2</ele>
      </trkpt>
      <trkpt lat="36.25868" lon="29.48201">
        <ele>854.6</ele>
      </trkpt>
      <trkpt lat="36.25864" lon="29.48204">
        <ele>855.3</ele>
      </trkpt>
      <trkpt lat="36.25854" lon="29.48209">
        <ele>856.2</ele>
      </trkpt>
      <trkpt lat="36.25822" lon="29.48241">
        <ele>863.4</ele>
      </trkpt>
      <trkpt lat="36.25803" lon="29.48264">
        <ele>868.2</ele>
      </trkpt>
      <trkpt lat="36.25797" lon="29.48276">
        <ele>870.2</ele>
      </trkpt>
      <trkpt lat="36.25789" lon="29.48292">
        <ele>872.3</ele>
      </trkpt>
      <trkpt lat="36.25784" lon="29.48303">
        <ele>873.2</ele>
      </trkpt>
      <trkpt lat="36.25771" lon="29.48322">
        <ele>873.2</ele>
      </trkpt>
      <trkpt lat="36.25757" lon="29.48332">
        <ele>870.6</ele>
      </trkpt>
      <trkpt lat="36.25744" lon="29.48362">
        <ele>876.1</ele>
      </trkpt>
      <trkpt lat="36.25737" lon="29.48381">
        <ele>880.7</ele>
      </trkpt>
      <trkpt lat="36.2573" lon="29.48397">
        <ele>884.3</ele>
      </trkpt>
      <trkpt lat="36.25722" lon="29.48411">
        <ele>887.1</ele>
      </trkpt>
      <trkpt lat="36.25713" lon="29.48419">
        <ele>888.6</ele>
      </trkpt>
      <trkpt lat="36.25705" lon="29.48425">
        <ele>889.5</ele>
      </trkpt>
      <trkpt lat="36.25697" lon="29.4842">
        <ele>889.2</ele>
      </trkpt>
      <trkpt lat="36.25698" lon="29.48406">
        <ele>887.7</ele>
      </trkpt>
      <trkpt lat="36.25695" lon="29.48385">
        <ele>885.9</ele>
      </trkpt>
      <trkpt lat="36.2569" lon="29.48378">
        <ele>885.7</ele>
      </trkpt>
      <trkpt lat="36.25682" lon="29.48385">
        <ele>887.2</ele>
      </trkpt>
      <trkpt lat="36.25678" lon="29.48404">
        <ele>888.8</ele>
      </trkpt>
      <trkpt lat="36.25672" lon="29.48414">
        <ele>889.7</ele>
      </trkpt>
      <trkpt lat="36.25665" lon="29.48423">
        <ele>890.9</ele>
      </trkpt>
      <trkpt lat="36.25656" lon="29.48432">
        <ele>894.1</ele>
      </trkpt>
      <trkpt lat="36.25654" lon="29.48458">
        <ele>897.1</ele>
      </trkpt>
      <trkpt lat="36.25651" lon="29.48473">
        <ele>899.5</ele>
      </trkpt>
      <trkpt lat="36.25657" lon="29.48497">
        <ele>899.4</ele>
      </trkpt>
      <trkpt lat="36.25679" lon="29.48546">
        <ele>901.9</ele>
      </trkpt>
      <trkpt lat="36.25688" lon="29.48583">
        <ele>905.4</ele>
      </trkpt>
      <trkpt lat="36.25697" lon="29.48617">
        <ele>905.5</ele>
      </trkpt>
      <trkpt lat="36.25722" lon="29.48696">
        <ele>903.1</ele>
      </trkpt>
      <trkpt lat="36.2571" lon="29.48693">
        <ele>904.9</ele>
      </trkpt>
      <trkpt lat="36.25705" lon="29.48694">
        <ele>905.7</ele>
      </trkpt>
      <trkpt lat="36.25698" lon="29.48696">
        <ele>906.9</ele>
      </trkpt>
      <trkpt lat="36.25696" lon="29.48686">
        <ele>907</ele>
      </trkpt>
      <trkpt lat="36.2569" lon="29.48691">
        <ele>908</ele>
      </trkpt>
      <trkpt lat="36.2568" lon="29.4869">
        <ele>909.7</ele>
      </trkpt>
      <trkpt lat="36.2568" lon="29.48687">
        <ele>909.6</ele>
      </trkpt>
      <trkpt lat="36.25672" lon="29.4867">
        <ele>911</ele>
      </trkpt>
      <trkpt lat="36.25668" lon="29.48659">
        <ele>911.3</ele>
      </trkpt>
      <trkpt lat="36.25665" lon="29.48655">
        <ele>911.7</ele>
      </trkpt>
      <trkpt lat="36.25662" lon="29.48649">
        <ele>911.9</ele>
      </trkpt>
      <trkpt lat="36.2566" lon="29.48649">
        <ele>912.4</ele>
      </trkpt>
      <trkpt lat="36.25653" lon="29.48647">
        <ele>913.8</ele>
      </trkpt>
      <trkpt lat="36.25647" lon="29.48645">
        <ele>915.1</ele>
      </trkpt>
      <trkpt lat="36.25641" lon="29.48646">
        <ele>916.3</ele>
      </trkpt>
      <trkpt lat="36.25636" lon="29.48643">
        <ele>917.4</ele>
      </trkpt>
      <trkpt lat="36.25615" lon="29.48619">
        <ele>922.8</ele>
      </trkpt>
      <trkpt lat="36.25603" lon="29.48608">
        <ele>926.5</ele>
      </trkpt>
      <trkpt lat="36.25594" lon="29.486">
        <ele>929.6</ele>
      </trkpt>
      <trkpt lat="36.25588" lon="29.48595">
        <ele>931.6</ele>
      </trkpt>
      <trkpt lat="36.25584" lon="29.48594">
        <ele>932.8</ele>
      </trkpt>
      <trkpt lat="36.25579" lon="29.48591">
        <ele>934.4</ele>
      </trkpt>
      <trkpt lat="36.25571" lon="29.48581">
        <ele>936.9</ele>
      </trkpt>
      <trkpt lat="36.25567" lon="29.48582">
        <ele>937.9</ele>
      </trkpt>
      <trkpt lat="36.25559" lon="29.48571">
        <ele>939.2</ele>
      </trkpt>
      <trkpt lat="36.25555" lon="29.48563">
        <ele>939.9</ele>
      </trkpt>
      <trkpt lat="36.25546" lon="29.4856">
        <ele>942.2</ele>
      </trkpt>
      <trkpt lat="36.25536" lon="29.48569">
        <ele>945</ele>
      </trkpt>
      <trkpt lat="36.25534" lon="29.48563">
        <ele>945.3</ele>
      </trkpt>
      <trkpt lat="36.25532" lon="29.48564">
        <ele>946</ele>
      </trkpt>
      <trkpt lat="36.25528" lon="29.48566">
        <ele>946.9</ele>
      </trkpt>
      <trkpt lat="36.2552" lon="29.48558">
        <ele>949</ele>
      </trkpt>
      <trkpt lat="36.25509" lon="29.48562">
        <ele>951.8</ele>
      </trkpt>
      <trkpt lat="36.25503" lon="29.48563">
        <ele>953.4</ele>
      </trkpt>
      <trkpt lat="36.25496" lon="29.48567">
        <ele>955.4</ele>
      </trkpt>
      <trkpt lat="36.25491" lon="29.48571">
        <ele>956.7</ele>
      </trkpt>
      <trkpt lat="36.25481" lon="29.48577">
        <ele>959.8</ele>
      </trkpt>
      <trkpt lat="36.25469" lon="29.48577">
        <ele>963.4</ele>
      </trkpt>
      <trkpt lat="36.2546" lon="29.48587">
        <ele>965.9</ele>
      </trkpt>
      <trkpt lat="36.25458" lon="29.48589">
        <ele>966.5</ele>
      </trkpt>
      <trkpt lat="36.2545" lon="29.48586">
        <ele>969</ele>
      </trkpt>
      <trkpt lat="36.25446" lon="29.48597">
        <ele>969.9</ele>
      </trkpt>
      <trkpt lat="36.25437" lon="29.4859">
        <ele>972.6</ele>
      </trkpt>
      <trkpt lat="36.2543" lon="29.48597">
        <ele>974.6</ele>
      </trkpt>
      <trkpt lat="36.25427" lon="29.48611">
        <ele>974.8</ele>
      </trkpt>
      <trkpt lat="36.25423" lon="29.48619">
        <ele>975.5</ele>
      </trkpt>
      <trkpt lat="36.25418" lon="29.48621">
        <ele>976.7</ele>
      </trkpt>
      <trkpt lat="36.25414" lon="29.48629">
        <ele>976.7</ele>
      </trkpt>
      <trkpt lat="36.25413" lon="29.48635">
        <ele>976.3</ele>
      </trkpt>
      <trkpt lat="36.25407" lon="29.48645">
        <ele>975.4</ele>
      </trkpt>
      <trkpt lat="36.25407" lon="29.48653">
        <ele>974.9</ele>
      </trkpt>
      <trkpt lat="36.25398" lon="29.48668">
        <ele>973.2</ele>
      </trkpt>
      <trkpt lat="36.25393" lon="29.4868">
        <ele>971.4</ele>
      </trkpt>
      <trkpt lat="36.25386" lon="29.48687">
        <ele>969.9</ele>
      </trkpt>
      <trkpt lat="36.25379" lon="29.48692">
        <ele>968.6</ele>
      </trkpt>
      <trkpt lat="36.25378" lon="29.48701">
        <ele>967.3</ele>
      </trkpt>
      <trkpt lat="36.25378" lon="29.48703">
        <ele>967</ele>
      </trkpt>
      <trkpt lat="36.25384" lon="29.48703">
        <ele>967.8</ele>
      </trkpt>
      <trkpt lat="36.25385" lon="29.48706">
        <ele>967.5</ele>
      </trkpt>
      <trkpt lat="36.25379" lon="29.4871">
        <ele>966.2</ele>
      </trkpt>
      <trkpt lat="36.25374" lon="29.48719">
        <ele>964.4</ele>
      </trkpt>
      <trkpt lat="36.25369" lon="29.48722">
        <ele>963.4</ele>
      </trkpt>
      <trkpt lat="36.25367" lon="29.48729">
        <ele>962.1</ele>
      </trkpt>
      <trkpt lat="36.2536" lon="29.48732">
        <ele>960.8</ele>
      </trkpt>
      <trkpt lat="36.25361" lon="29.48736">
        <ele>960.4</ele>
      </trkpt>
      <trkpt lat="36.25356" lon="29.48741">
        <ele>959</ele>
      </trkpt>
      <trkpt lat="36.25353" lon="29.4874">
        <ele>958.5</ele>
      </trkpt>
      <trkpt lat="36.25346" lon="29.48729">
        <ele>959.3</ele>
      </trkpt>
      <trkpt lat="36.25343" lon="29.4873">
        <ele>958.6</ele>
      </trkpt>
      <trkpt lat="36.25333" lon="29.48727">
        <ele>957.8</ele>
      </trkpt>
      <trkpt lat="36.25323" lon="29.48744">
        <ele>951.5</ele>
      </trkpt>
      <trkpt lat="36.25324" lon="29.48747">
        <ele>951.4</ele>
      </trkpt>
      <trkpt lat="36.2532" lon="29.48755">
        <ele>949</ele>
      </trkpt>
      <trkpt lat="36.2532" lon="29.48761">
        <ele>948.4</ele>
      </trkpt>
      <trkpt lat="36.25315" lon="29.48763">
        <ele>946.5</ele>
      </trkpt>
      <trkpt lat="36.2531" lon="29.48748">
        <ele>946.1</ele>
      </trkpt>
      <trkpt lat="36.25307" lon="29.48766">
        <ele>943.6</ele>
      </trkpt>
      <trkpt lat="36.25301" lon="29.48767">
        <ele>941.7</ele>
      </trkpt>
      <trkpt lat="36.25294" lon="29.48776">
        <ele>938.7</ele>
      </trkpt>
      <trkpt lat="36.25287" lon="29.48779">
        <ele>936.3</ele>
      </trkpt>
      <trkpt lat="36.25284" lon="29.48778">
        <ele>935.2</ele>
      </trkpt>
      <trkpt lat="36.25278" lon="29.48786">
        <ele>932.9</ele>
      </trkpt>
      <trkpt lat="36.25276" lon="29.48794">
        <ele>932.1</ele>
      </trkpt>
      <trkpt lat="36.25269" lon="29.48786">
        <ele>930</ele>
      </trkpt>
      <trkpt lat="36.25265" lon="29.48776">
        <ele>929.3</ele>
      </trkpt>
      <trkpt lat="36.25256" lon="29.48763">
        <ele>926.8</ele>
      </trkpt>
      <trkpt lat="36.25255" lon="29.48755">
        <ele>926.5</ele>
      </trkpt>
      <trkpt lat="36.2525" lon="29.48753">
        <ele>924.9</ele>
      </trkpt>
      <trkpt lat="36.25245" lon="29.48752">
        <ele>924.2</ele>
      </trkpt>
      <trkpt lat="36.2524" lon="29.48748">
        <ele>923.8</ele>
      </trkpt>
      <trkpt lat="36.25234" lon="29.48736">
        <ele>923.8</ele>
      </trkpt>
      <trkpt lat="36.25227" lon="29.4873">
        <ele>923.3</ele>
      </trkpt>
      <trkpt lat="36.25225" lon="29.48706">
        <ele>924.7</ele>
      </trkpt>
      <trkpt lat="36.25218" lon="29.48698">
        <ele>923.8</ele>
      </trkpt>
      <trkpt lat="36.25206" lon="29.4869">
        <ele>921.7</ele>
      </trkpt>
      <trkpt lat="36.25194" lon="29.48682">
        <ele>919.3</ele>
      </trkpt>
      <trkpt lat="36.25177" lon="29.48675">
        <ele>915.6</ele>
      </trkpt>
      <trkpt lat="36.25169" lon="29.4866">
        <ele>913.4</ele>
      </trkpt>
      <trkpt lat="36.25166" lon="29.48654">
        <ele>912.2</ele>
      </trkpt>
      <trkpt lat="36.25163" lon="29.48643">
        <ele>911.2</ele>
      </trkpt>
      <trkpt lat="36.25161" lon="29.48624">
        <ele>909.9</ele>
      </trkpt>
      <trkpt lat="36.25156" lon="29.4861">
        <ele>908.3</ele>
      </trkpt>
      <trkpt lat="36.25148" lon="29.48598">
        <ele>906.2</ele>
      </trkpt>
      <trkpt lat="36.25149" lon="29.48585">
        <ele>905.9</ele>
      </trkpt>
      <trkpt lat="36.25145" lon="29.48569">
        <ele>904.5</ele>
      </trkpt>
      <trkpt lat="36.25146" lon="29.48551">
        <ele>903.9</ele>
      </trkpt>
      <trkpt lat="36.25147" lon="29.48537">
        <ele>903.5</ele>
      </trkpt>
      <trkpt lat="36.25141" lon="29.48524">
        <ele>901.9</ele>
      </trkpt>
      <trkpt lat="36.25133" lon="29.48493">
        <ele>899.8</ele>
      </trkpt>
      <trkpt lat="36.25132" lon="29.4847">
        <ele>899.7</ele>
      </trkpt>
      <trkpt lat="36.25125" lon="29.48459">
        <ele>898.4</ele>
      </trkpt>
      <trkpt lat="36.25121" lon="29.48434">
        <ele>897.9</ele>
      </trkpt>
      <trkpt lat="36.25119" lon="29.48413">
        <ele>897.4</ele>
      </trkpt>
      <trkpt lat="36.25115" lon="29.48398">
        <ele>896.5</ele>
      </trkpt>
      <trkpt lat="36.2511" lon="29.48377">
        <ele>894.8</ele>
      </trkpt>
      <trkpt lat="36.25102" lon="29.48356">
        <ele>892.2</ele>
      </trkpt>
      <trkpt lat="36.25103" lon="29.48322">
        <ele>891.4</ele>
      </trkpt>
      <trkpt lat="36.25102" lon="29.48306">
        <ele>891</ele>
      </trkpt>
      <trkpt lat="36.251" lon="29.48303">
        <ele>890.4</ele>
      </trkpt>
      <trkpt lat="36.25101" lon="29.48295">
        <ele>890.8</ele>
      </trkpt>
      <trkpt lat="36.25096" lon="29.48287">
        <ele>888.8</ele>
      </trkpt>
      <trkpt lat="36.25098" lon="29.48248">
        <ele>889.4</ele>
      </trkpt>
      <trkpt lat="36.25098" lon="29.48228">
        <ele>889.4</ele>
      </trkpt>
      <trkpt lat="36.25097" lon="29.48212">
        <ele>889.5</ele>
      </trkpt>
      <trkpt lat="36.25089" lon="29.48215">
        <ele>886.2</ele>
      </trkpt>
      <trkpt lat="36.25082" lon="29.48217">
        <ele>883.9</ele>
      </trkpt>
      <trkpt lat="36.25076" lon="29.48214">
        <ele>883.3</ele>
      </trkpt>
      <trkpt lat="36.25071" lon="29.48205">
        <ele>882.8</ele>
      </trkpt>
      <trkpt lat="36.25065" lon="29.48191">
        <ele>882.1</ele>
      </trkpt>
      <trkpt lat="36.25072" lon="29.4817">
        <ele>882.8</ele>
      </trkpt>
      <trkpt lat="36.25071" lon="29.48152">
        <ele>883.4</ele>
      </trkpt>
      <trkpt lat="36.25051" lon="29.48107">
        <ele>882.7</ele>
      </trkpt>
      <trkpt lat="36.25048" lon="29.4809">
        <ele>882.8</ele>
      </trkpt>
      <trkpt lat="36.25044" lon="29.48088">
        <ele>882.2</ele>
      </trkpt>
      <trkpt lat="36.25038" lon="29.48077">
        <ele>881.2</ele>
      </trkpt>
      <trkpt lat="36.25041" lon="29.48067">
        <ele>881.2</ele>
      </trkpt>
      <trkpt lat="36.25033" lon="29.4805">
        <ele>879.5</ele>
      </trkpt>
      <trkpt lat="36.25035" lon="29.48036">
        <ele>879.3</ele>
      </trkpt>
      <trkpt lat="36.25032" lon="29.48025">
        <ele>878.6</ele>
      </trkpt>
      <trkpt lat="36.2502" lon="29.48008">
        <ele>877.3</ele>
      </trkpt>
      <trkpt lat="36.25016" lon="29.4799">
        <ele>876.1</ele>
      </trkpt>
      <trkpt lat="36.25019" lon="29.47968">
        <ele>874.4</ele>
      </trkpt>
      <trkpt lat="36.24994" lon="29.47967">
        <ele>875.4</ele>
      </trkpt>
      <trkpt lat="36.24974" lon="29.47956">
        <ele>877.8</ele>
      </trkpt>
      <trkpt lat="36.24948" lon="29.47934">
        <ele>879.8</ele>
      </trkpt>
      <trkpt lat="36.24921" lon="29.47891">
        <ele>879</ele>
      </trkpt>
      <trkpt lat="36.24895" lon="29.47867">
        <ele>884.4</ele>
      </trkpt>
      <trkpt lat="36.24878" lon="29.47834">
        <ele>885.2</ele>
      </trkpt>
      <trkpt lat="36.24853" lon="29.47765">
        <ele>881.1</ele>
      </trkpt>
      <trkpt lat="36.24841" lon="29.47737">
        <ele>880.2</ele>
      </trkpt>
      <trkpt lat="36.24829" lon="29.47708">
        <ele>881.9</ele>
      </trkpt>
      <trkpt lat="36.24807" lon="29.47658">
        <ele>888.4</ele>
      </trkpt>
      <trkpt lat="36.24788" lon="29.47627">
        <ele>894.5</ele>
      </trkpt>
      <trkpt lat="36.24772" lon="29.47581">
        <ele>897.2</ele>
      </trkpt>
      <trkpt lat="36.24743" lon="29.47524">
        <ele>902.2</ele>
      </trkpt>
      <trkpt lat="36.24725" lon="29.47463">
        <ele>900.4</ele>
      </trkpt>
      <trkpt lat="36.24687" lon="29.47393">
        <ele>903</ele>
      </trkpt>
      <trkpt lat="36.24664" lon="29.47367">
        <ele>905.7</ele>
      </trkpt>
      <trkpt lat="36.24646" lon="29.47325">
        <ele>903.9</ele>
      </trkpt>
      <trkpt lat="36.24631" lon="29.47304">
        <ele>904.3</ele>
      </trkpt>
      <trkpt lat="36.24617" lon="29.47287">
        <ele>904.1</ele>
      </trkpt>
      <trkpt lat="36.24601" lon="29.47277">
        <ele>905.1</ele>
      </trkpt>
      <trkpt lat="36.24579" lon="29.47262">
        <ele>904.9</ele>
      </trkpt>
      <trkpt lat="36.24562" lon="29.47259">
        <ele>906.5</ele>
      </trkpt>
      <trkpt lat="36.24509" lon="29.47257">
        <ele>913.8</ele>
      </trkpt>
      <trkpt lat="36.24481" lon="29.47257">
        <ele>917.3</ele>
      </trkpt>
      <trkpt lat="36.24457" lon="29.47255">
        <ele>919.3</ele>
      </trkpt>
      <trkpt lat="36.24427" lon="29.47254">
        <ele>922.1</ele>
      </trkpt>
      <trkpt lat="36.24407" lon="29.47259">
        <ele>923.6</ele>
      </trkpt>
      <trkpt lat="36.24389" lon="29.47267">
        <ele>923.9</ele>
      </trkpt>
      <trkpt lat="36.24366" lon="29.4729">
        <ele>927.7</ele>
      </trkpt>
      <trkpt lat="36.24336" lon="29.47324">
        <ele>933.6</ele>
      </trkpt>
      <trkpt lat="36.24319" lon="29.47353">
        <ele>938.4</ele>
      </trkpt>
      <trkpt lat="36.24301" lon="29.47397">
        <ele>946.6</ele>
      </trkpt>
      <trkpt lat="36.24292" lon="29.47418">
        <ele>950.3</ele>
      </trkpt>
      <trkpt lat="36.24287" lon="29.47441">
        <ele>953.3</ele>
      </trkpt>
      <trkpt lat="36.24281" lon="29.47465">
        <ele>956.3</ele>
      </trkpt>
      <trkpt lat="36.24265" lon="29.47478">
        <ele>956</ele>
      </trkpt>
      <trkpt lat="36.24249" lon="29.4748">
        <ele>954.2</ele>
      </trkpt>
      <trkpt lat="36.24234" lon="29.47478">
        <ele>953.6</ele>
      </trkpt>
      <trkpt lat="36.2422" lon="29.47479">
        <ele>953.7</ele>
      </trkpt>
      <trkpt lat="36.24205" lon="29.47483">
        <ele>954.1</ele>
      </trkpt>
      <trkpt lat="36.24192" lon="29.47497">
        <ele>955.5</ele>
      </trkpt>
      <trkpt lat="36.24185" lon="29.4751">
        <ele>956.2</ele>
      </trkpt>
      <trkpt lat="36.24177" lon="29.47526">
        <ele>956.8</ele>
      </trkpt>
      <trkpt lat="36.24155" lon="29.47547">
        <ele>955.8</ele>
      </trkpt>
      <trkpt lat="36.24099" lon="29.47579">
        <ele>952.7</ele>
      </trkpt>
      <trkpt lat="36.24076" lon="29.47589">
        <ele>952.2</ele>
      </trkpt>
      <trkpt lat="36.24061" lon="29.47602">
        <ele>953</ele>
      </trkpt>
      <trkpt lat="36.24052" lon="29.47613">
        <ele>954.1</ele>
      </trkpt>
      <trkpt lat="36.2401" lon="29.47619">
        <ele>955</ele>
      </trkpt>
      <trkpt lat="36.23983" lon="29.4762">
        <ele>956.9</ele>
      </trkpt>
      <trkpt lat="36.23971" lon="29.47619">
        <ele>957.9</ele>
      </trkpt>
      <trkpt lat="36.23963" lon="29.47613">
        <ele>957.8</ele>
      </trkpt>
      <trkpt lat="36.2395" lon="29.47603">
        <ele>957.5</ele>
      </trkpt>
      <trkpt lat="36.23936" lon="29.47581">
        <ele>955.4</ele>
      </trkpt>
      <trkpt lat="36.23931" lon="29.47566">
        <ele>953.4</ele>
      </trkpt>
      <trkpt lat="36.23921" lon="29.4755">
        <ele>951.5</ele>
      </trkpt>
      <trkpt lat="36.239" lon="29.47551">
        <ele>952.5</ele>
      </trkpt>
      <trkpt lat="36.23883" lon="29.47551">
        <ele>952.7</ele>
      </trkpt>
      <trkpt lat="36.23853" lon="29.47534">
        <ele>950.9</ele>
      </trkpt>
      <trkpt lat="36.23828" lon="29.47549">
        <ele>954</ele>
      </trkpt>
      <trkpt lat="36.23815" lon="29.47555">
        <ele>956.2</ele>
      </trkpt>
      <trkpt lat="36.23797" lon="29.47548">
        <ele>957.2</ele>
      </trkpt>
      <trkpt lat="36.23788" lon="29.47539">
        <ele>956.6</ele>
      </trkpt>
      <trkpt lat="36.23771" lon="29.47512">
        <ele>953.5</ele>
      </trkpt>
      <trkpt lat="36.23753" lon="29.47492">
        <ele>951.4</ele>
      </trkpt>
      <trkpt lat="36.23745" lon="29.47486">
        <ele>950.3</ele>
      </trkpt>
      <trkpt lat="36.23727" lon="29.47487">
        <ele>949.4</ele>
      </trkpt>
      <trkpt lat="36.2371" lon="29.47498">
        <ele>950.6</ele>
      </trkpt>
      <trkpt lat="36.23673" lon="29.47527">
        <ele>954.2</ele>
      </trkpt>
      <trkpt lat="36.23659" lon="29.4754">
        <ele>953.8</ele>
      </trkpt>
      <trkpt lat="36.23652" lon="29.47554">
        <ele>953.8</ele>
      </trkpt>
      <trkpt lat="36.23645" lon="29.47583">
        <ele>956.7</ele>
      </trkpt>
      <trkpt lat="36.23626" lon="29.47642">
        <ele>956.7</ele>
      </trkpt>
      <trkpt lat="36.23615" lon="29.4768">
        <ele>956.6</ele>
      </trkpt>
      <trkpt lat="36.23618" lon="29.47714">
        <ele>956.5</ele>
      </trkpt>
      <trkpt lat="36.23625" lon="29.47735">
        <ele>957.4</ele>
      </trkpt>
      <trkpt lat="36.23625" lon="29.4775">
        <ele>956.9</ele>
      </trkpt>
      <trkpt lat="36.23608" lon="29.47763">
        <ele>951.9</ele>
      </trkpt>
      <trkpt lat="36.23595" lon="29.47785">
        <ele>945.2</ele>
      </trkpt>
      <trkpt lat="36.23568" lon="29.47833">
        <ele>932.7</ele>
      </trkpt>
      <trkpt lat="36.23549" lon="29.47849">
        <ele>930.6</ele>
      </trkpt>
      <trkpt lat="36.23524" lon="29.47896">
        <ele>923.8</ele>
      </trkpt>
      <trkpt lat="36.23513" lon="29.47911">
        <ele>921</ele>
      </trkpt>
      <trkpt lat="36.23516" lon="29.47941">
        <ele>922.4</ele>
      </trkpt>
      <trkpt lat="36.23519" lon="29.4799">
        <ele>926.3</ele>
      </trkpt>
      <trkpt lat="36.23529" lon="29.48066">
        <ele>933.9</ele>
      </trkpt>
      <trkpt lat="36.23528" lon="29.48108">
        <ele>938</ele>
      </trkpt>
      <trkpt lat="36.23526" lon="29.48168">
        <ele>943.7</ele>
      </trkpt>
      <trkpt lat="36.23519" lon="29.48217">
        <ele>944.6</ele>
      </trkpt>
      <trkpt lat="36.23507" lon="29.48295">
        <ele>943</ele>
      </trkpt>
      <trkpt lat="36.23509" lon="29.48342">
        <ele>943.2</ele>
      </trkpt>
      <trkpt lat="36.23518" lon="29.48375">
        <ele>945.2</ele>
      </trkpt>
      <trkpt lat="36.23527" lon="29.48401">
        <ele>947.3</ele>
      </trkpt>
      <trkpt lat="36.23528" lon="29.48424">
        <ele>948.1</ele>
      </trkpt>
      <trkpt lat="36.2351" lon="29.48497">
        <ele>948.2</ele>
      </trkpt>
      <trkpt lat="36.23515" lon="29.48516">
        <ele>950.3</ele>
      </trkpt>
      <trkpt lat="36.23508" lon="29.48562">
        <ele>949.8</ele>
      </trkpt>
      <trkpt lat="36.23509" lon="29.48594">
        <ele>951</ele>
      </trkpt>
      <trkpt lat="36.23505" lon="29.48667">
        <ele>953.2</ele>
      </trkpt>
      <trkpt lat="36.23496" lon="29.4872">
        <ele>950.7</ele>
      </trkpt>
      <trkpt lat="36.23508" lon="29.48749">
        <ele>949.7</ele>
      </trkpt>
      <trkpt lat="36.23512" lon="29.48782">
        <ele>947.2</ele>
      </trkpt>
      <trkpt lat="36.23528" lon="29.48811">
        <ele>941.8</ele>
      </trkpt>
      <trkpt lat="36.23543" lon="29.48804">
        <ele>939</ele>
      </trkpt>
      <trkpt lat="36.23548" lon="29.48802">
        <ele>938.3</ele>
      </trkpt>
      <trkpt lat="36.23553" lon="29.48797">
        <ele>937.7</ele>
      </trkpt>
      <trkpt lat="36.23559" lon="29.4881">
        <ele>934.9</ele>
      </trkpt>
      <trkpt lat="36.23564" lon="29.48811">
        <ele>933.6</ele>
      </trkpt>
      <trkpt lat="36.23573" lon="29.48802">
        <ele>932.8</ele>
      </trkpt>
      <trkpt lat="36.23588" lon="29.48796">
        <ele>930.7</ele>
      </trkpt>
      <trkpt lat="36.23589" lon="29.4879">
        <ele>931.4</ele>
      </trkpt>
      <trkpt lat="36.23594" lon="29.48788">
        <ele>930.9</ele>
      </trkpt>
      <trkpt lat="36.23597" lon="29.48796">
        <ele>929.5</ele>
      </trkpt>
      <trkpt lat="36.23603" lon="29.48801">
        <ele>928.2</ele>
      </trkpt>
      <trkpt lat="36.23609" lon="29.488">
        <ele>927.5</ele>
      </trkpt>
      <trkpt lat="36.23612" lon="29.48802">
        <ele>926.7</ele>
      </trkpt>
      <trkpt lat="36.23617" lon="29.48827">
        <ele>923.8</ele>
      </trkpt>
      <trkpt lat="36.23622" lon="29.4884">
        <ele>921.7</ele>
      </trkpt>
      <trkpt lat="36.23638" lon="29.48851">
        <ele>918.8</ele>
      </trkpt>
      <trkpt lat="36.23646" lon="29.48862">
        <ele>916.9</ele>
      </trkpt>
      <trkpt lat="36.23654" lon="29.4888">
        <ele>914.2</ele>
      </trkpt>
      <trkpt lat="36.23669" lon="29.4892">
        <ele>910.1</ele>
      </trkpt>
      <trkpt lat="36.23693" lon="29.48966">
        <ele>909</ele>
      </trkpt>
      <trkpt lat="36.23709" lon="29.4899">
        <ele>908.4</ele>
      </trkpt>
      <trkpt lat="36.23724" lon="29.49003">
        <ele>908.8</ele>
      </trkpt>
      <trkpt lat="36.23742" lon="29.49013">
        <ele>909.7</ele>
      </trkpt>
      <trkpt lat="36.23755" lon="29.49039">
        <ele>906.2</ele>
      </trkpt>
      <trkpt lat="36.23765" lon="29.4904">
        <ele>905.2</ele>
      </trkpt>
      <trkpt lat="36.23778" lon="29.49037">
        <ele>904.6</ele>
      </trkpt>
      <trkpt lat="36.23789" lon="29.49028">
        <ele>905</ele>
      </trkpt>
      <trkpt lat="36.23814" lon="29.49011">
        <ele>905.3</ele>
      </trkpt>
      <trkpt lat="36.23835" lon="29.48999">
        <ele>905.3</ele>
      </trkpt>
      <trkpt lat="36.23859" lon="29.48981">
        <ele>909.3</ele>
      </trkpt>
      <trkpt lat="36.23871" lon="29.4898">
        <ele>909.2</ele>
      </trkpt>
      <trkpt lat="36.23887" lon="29.48991">
        <ele>906.2</ele>
      </trkpt>
      <trkpt lat="36.2393" lon="29.4903">
        <ele>903.7</ele>
      </trkpt>
      <trkpt lat="36.2394" lon="29.49047">
        <ele>903.8</ele>
      </trkpt>
      <trkpt lat="36.23967" lon="29.49094">
        <ele>903.1</ele>
      </trkpt>
      <trkpt lat="36.23997" lon="29.49129">
        <ele>904.5</ele>
      </trkpt>
      <trkpt lat="36.2399" lon="29.49147">
        <ele>901.1</ele>
      </trkpt>
      <trkpt lat="36.23992" lon="29.49157">
        <ele>900.2</ele>
      </trkpt>
      <trkpt lat="36.24006" lon="29.49176">
        <ele>901.5</ele>
      </trkpt>
      <trkpt lat="36.24023" lon="29.49193">
        <ele>906.2</ele>
      </trkpt>
      <trkpt lat="36.24035" lon="29.49201">
        <ele>909.3</ele>
      </trkpt>
      <trkpt lat="36.24044" lon="29.49211">
        <ele>911.6</ele>
      </trkpt>
      <trkpt lat="36.24053" lon="29.49232">
        <ele>913.3</ele>
      </trkpt>
      <trkpt lat="36.24054" lon="29.4927">
        <ele>918.7</ele>
      </trkpt>
      <trkpt lat="36.24046" lon="29.49314">
        <ele>926.5</ele>
      </trkpt>
      <trkpt lat="36.24037" lon="29.49334">
        <ele>926.6</ele>
      </trkpt>
      <trkpt lat="36.24021" lon="29.49345">
        <ele>919.1</ele>
      </trkpt>
      <trkpt lat="36.2402" lon="29.49357">
        <ele>921.2</ele>
      </trkpt>
      <trkpt lat="36.24014" lon="29.49382">
        <ele>922.3</ele>
      </trkpt>
      <trkpt lat="36.24" lon="29.49401">
        <ele>917.4</ele>
      </trkpt>
      <trkpt lat="36.23991" lon="29.49427">
        <ele>917.8</ele>
      </trkpt>
      <trkpt lat="36.23982" lon="29.49476">
        <ele>918.4</ele>
      </trkpt>
      <trkpt lat="36.23975" lon="29.4953">
        <ele>919.8</ele>
      </trkpt>
      <trkpt lat="36.23972" lon="29.49568">
        <ele>921.3</ele>
      </trkpt>
      <trkpt lat="36.23971" lon="29.49606">
        <ele>922.6</ele>
      </trkpt>
      <trkpt lat="36.23968" lon="29.49644">
        <ele>922.8</ele>
      </trkpt>
      <trkpt lat="36.23967" lon="29.49703">
        <ele>923.4</ele>
      </trkpt>
      <trkpt lat="36.23964" lon="29.4973">
        <ele>922.5</ele>
      </trkpt>
      <trkpt lat="36.23971" lon="29.4977">
        <ele>926.7</ele>
      </trkpt>
      <trkpt lat="36.23977" lon="29.49818">
        <ele>931.4</ele>
      </trkpt>
      <trkpt lat="36.23981" lon="29.49853">
        <ele>934.7</ele>
      </trkpt>
      <trkpt lat="36.23991" lon="29.49866">
        <ele>938.8</ele>
      </trkpt>
      <trkpt lat="36.24014" lon="29.49915">
        <ele>951</ele>
      </trkpt>
      <trkpt lat="36.2402" lon="29.49948">
        <ele>955.4</ele>
      </trkpt>
      <trkpt lat="36.24021" lon="29.50009">
        <ele>958.6</ele>
      </trkpt>
      <trkpt lat="36.24021" lon="29.50087">
        <ele>964.9</ele>
      </trkpt>
      <trkpt lat="36.24015" lon="29.50113">
        <ele>965.2</ele>
      </trkpt>
      <trkpt lat="36.24003" lon="29.50137">
        <ele>964.4</ele>
      </trkpt>
      <trkpt lat="36.2399" lon="29.5016">
        <ele>963.9</ele>
      </trkpt>
      <trkpt lat="36.23985" lon="29.50184">
        <ele>964</ele>
      </trkpt>
      <trkpt lat="36.23979" lon="29.50199">
        <ele>963.3</ele>
      </trkpt>
      <trkpt lat="36.23966" lon="29.50217">
        <ele>960.7</ele>
      </trkpt>
      <trkpt lat="36.23948" lon="29.50229">
        <ele>956.6</ele>
      </trkpt>
      <trkpt lat="36.23941" lon="29.50263">
        <ele>954.4</ele>
      </trkpt>
      <trkpt lat="36.23943" lon="29.50283">
        <ele>954.7</ele>
      </trkpt>
      <trkpt lat="36.23939" lon="29.50308">
        <ele>953.4</ele>
      </trkpt>
      <trkpt lat="36.23928" lon="29.50336">
        <ele>949.6</ele>
      </trkpt>
      <trkpt lat="36.2393" lon="29.50369">
        <ele>949.7</ele>
      </trkpt>
      <trkpt lat="36.23927" lon="29.50428">
        <ele>946.9</ele>
      </trkpt>
      <trkpt lat="36.23934" lon="29.5046">
        <ele>945.9</ele>
      </trkpt>
      <trkpt lat="36.23936" lon="29.50491">
        <ele>943.6</ele>
      </trkpt>
      <trkpt lat="36.23946" lon="29.50525">
        <ele>941.4</ele>
      </trkpt>
      <trkpt lat="36.23941" lon="29.50546">
        <ele>937.9</ele>
      </trkpt>
      <trkpt lat="36.23933" lon="29.50567">
        <ele>934.1</ele>
      </trkpt>
      <trkpt lat="36.23934" lon="29.50582">
        <ele>932.5</ele>
      </trkpt>
      <trkpt lat="36.23951" lon="29.50606">
        <ele>933.9</ele>
      </trkpt>
      <trkpt lat="36.23943" lon="29.50642">
        <ele>932.1</ele>
      </trkpt>
      <trkpt lat="36.23915" lon="29.50665">
        <ele>929.1</ele>
      </trkpt>
      <trkpt lat="36.23901" lon="29.50678">
        <ele>929.5</ele>
      </trkpt>
      <trkpt lat="36.23888" lon="29.50705">
        <ele>929.4</ele>
      </trkpt>
      <trkpt lat="36.23872" lon="29.50739">
        <ele>928.2</ele>
      </trkpt>
      <trkpt lat="36.23871" lon="29.50776">
        <ele>927.2</ele>
      </trkpt>
      <trkpt lat="36.23872" lon="29.50802">
        <ele>926.5</ele>
      </trkpt>
      <trkpt lat="36.2386" lon="29.50837">
        <ele>925</ele>
      </trkpt>
      <trkpt lat="36.23855" lon="29.50857">
        <ele>924.8</ele>
      </trkpt>
      <trkpt lat="36.23858" lon="29.50912">
        <ele>925.5</ele>
      </trkpt>
      <trkpt lat="36.23869" lon="29.50944">
        <ele>925.2</ele>
      </trkpt>
      <trkpt lat="36.23863" lon="29.50967">
        <ele>924</ele>
      </trkpt>
      <trkpt lat="36.23859" lon="29.50992">
        <ele>922.8</ele>
      </trkpt>
      <trkpt lat="36.23867" lon="29.51015">
        <ele>923.4</ele>
      </trkpt>
      <trkpt lat="36.23865" lon="29.5107">
        <ele>923.6</ele>
      </trkpt>
      <trkpt lat="36.23851" lon="29.51125">
        <ele>922.9</ele>
      </trkpt>
      <trkpt lat="36.23843" lon="29.51152">
        <ele>922.6</ele>
      </trkpt>
      <trkpt lat="36.23845" lon="29.5119">
        <ele>923</ele>
      </trkpt>
      <trkpt lat="36.23854" lon="29.5121">
        <ele>924</ele>
      </trkpt>
      <trkpt lat="36.23846" lon="29.51292">
        <ele>924.1</ele>
      </trkpt>
      <trkpt lat="36.23843" lon="29.51312">
        <ele>924.4</ele>
      </trkpt>
      <trkpt lat="36.23835" lon="29.51332">
        <ele>924.2</ele>
      </trkpt>
      <trkpt lat="36.23825" lon="29.51346">
        <ele>923.8</ele>
      </trkpt>
      <trkpt lat="36.2381" lon="29.51359">
        <ele>923.5</ele>
      </trkpt>
      <trkpt lat="36.23794" lon="29.5137">
        <ele>923.3</ele>
      </trkpt>
      <trkpt lat="36.23783" lon="29.51378">
        <ele>923.1</ele>
      </trkpt>
      <trkpt lat="36.2378" lon="29.51396">
        <ele>923.2</ele>
      </trkpt>
      <trkpt lat="36.23774" lon="29.51406">
        <ele>923.2</ele>
      </trkpt>
      <trkpt lat="36.23761" lon="29.51417">
        <ele>923.1</ele>
      </trkpt>
      <trkpt lat="36.23762" lon="29.51429">
        <ele>923.4</ele>
      </trkpt>
      <trkpt lat="36.23767" lon="29.51441">
        <ele>923.8</ele>
      </trkpt>
      <trkpt lat="36.23773" lon="29.51458">
        <ele>924.3</ele>
      </trkpt>
      <trkpt lat="36.23775" lon="29.51492">
        <ele>925.1</ele>
      </trkpt>
      <trkpt lat="36.23773" lon="29.51512">
        <ele>925.3</ele>
      </trkpt>
      <trkpt lat="36.23779" lon="29.51526">
        <ele>925.6</ele>
      </trkpt>
      <trkpt lat="36.23777" lon="29.51553">
        <ele>925.7</ele>
      </trkpt>
      <trkpt lat="36.23772" lon="29.51563">
        <ele>925.5</ele>
      </trkpt>
      <trkpt lat="36.23778" lon="29.51607">
        <ele>925.4</ele>
      </trkpt>
      <trkpt lat="36.23772" lon="29.51615">
        <ele>924.6</ele>
      </trkpt>
      <trkpt lat="36.23781" lon="29.51664">
        <ele>924</ele>
      </trkpt>
      <trkpt lat="36.23781" lon="29.51684">
        <ele>923.3</ele>
      </trkpt>
      <trkpt lat="36.23793" lon="29.51708">
        <ele>923.4</ele>
      </trkpt>
      <trkpt lat="36.23804" lon="29.51743">
        <ele>922.3</ele>
      </trkpt>
      <trkpt lat="36.23801" lon="29.51753">
        <ele>921.7</ele>
      </trkpt>
      <trkpt lat="36.23813" lon="29.51775">
        <ele>921.5</ele>
      </trkpt>
      <trkpt lat="36.23818" lon="29.51824">
        <ele>920</ele>
      </trkpt>
      <trkpt lat="36.23829" lon="29.51876">
        <ele>917.9</ele>
      </trkpt>
      <trkpt lat="36.23831" lon="29.51898">
        <ele>916.9</ele>
      </trkpt>
      <trkpt lat="36.23834" lon="29.51939">
        <ele>916.6</ele>
      </trkpt>
      <trkpt lat="36.23849" lon="29.51961">
        <ele>919.4</ele>
      </trkpt>
      <trkpt lat="36.23852" lon="29.51997">
        <ele>920.1</ele>
      </trkpt>
      <trkpt lat="36.2385" lon="29.52052">
        <ele>920.6</ele>
      </trkpt>
      <trkpt lat="36.23852" lon="29.52077">
        <ele>921</ele>
      </trkpt>
      <trkpt lat="36.23855" lon="29.52098">
        <ele>921.7</ele>
      </trkpt>
      <trkpt lat="36.23875" lon="29.5213">
        <ele>923.1</ele>
      </trkpt>
      <trkpt lat="36.23874" lon="29.52147">
        <ele>923.3</ele>
      </trkpt>
      <trkpt lat="36.23906" lon="29.52183">
        <ele>923.4</ele>
      </trkpt>
      <trkpt lat="36.2395" lon="29.52249">
        <ele>922.7</ele>
      </trkpt>
      <trkpt lat="36.23977" lon="29.52266">
        <ele>921.7</ele>
      </trkpt>
      <trkpt lat="36.23994" lon="29.5229">
        <ele>919.5</ele>
      </trkpt>
      <trkpt lat="36.24015" lon="29.52338">
        <ele>917.3</ele>
      </trkpt>
      <trkpt lat="36.24036" lon="29.52368">
        <ele>918.6</ele>
      </trkpt>
      <trkpt lat="36.2406" lon="29.52411">
        <ele>918.2</ele>
      </trkpt>
      <trkpt lat="36.24085" lon="29.52468">
        <ele>917.5</ele>
      </trkpt>
      <trkpt lat="36.24094" lon="29.52493">
        <ele>917.7</ele>
      </trkpt>
      <trkpt lat="36.2411" lon="29.52521">
        <ele>918.1</ele>
      </trkpt>
      <trkpt lat="36.24166" lon="29.52578">
        <ele>916.3</ele>
      </trkpt>
      <trkpt lat="36.24182" lon="29.52589">
        <ele>917.6</ele>
      </trkpt>
      <trkpt lat="36.24196" lon="29.52605">
        <ele>918</ele>
      </trkpt>
      <trkpt lat="36.24202" lon="29.52619">
        <ele>917.5</ele>
      </trkpt>
      <trkpt lat="36.24237" lon="29.52652">
        <ele>916.4</ele>
      </trkpt>
      <trkpt lat="36.24253" lon="29.52665">
        <ele>915.6</ele>
      </trkpt>
      <trkpt lat="36.24277" lon="29.52702">
        <ele>917.1</ele>
      </trkpt>
      <trkpt lat="36.24283" lon="29.52716">
        <ele>916.9</ele>
      </trkpt>
      <trkpt lat="36.24286" lon="29.52728">
        <ele>916.5</ele>
      </trkpt>
      <trkpt lat="36.24281" lon="29.52741">
        <ele>915.4</ele>
      </trkpt>
      <trkpt lat="36.24283" lon="29.52755">
        <ele>914.9</ele>
      </trkpt>
      <trkpt lat="36.24289" lon="29.52764">
        <ele>915.2</ele>
      </trkpt>
      <trkpt lat="36.24299" lon="29.52774">
        <ele>915.7</ele>
      </trkpt>
      <trkpt lat="36.24306" lon="29.52785">
        <ele>915.9</ele>
      </trkpt>
      <trkpt lat="36.24302" lon="29.52806">
        <ele>915.5</ele>
      </trkpt>
      <trkpt lat="36.24298" lon="29.52833">
        <ele>914.9</ele>
      </trkpt>
      <trkpt lat="36.24298" lon="29.5285">
        <ele>915</ele>
      </trkpt>
      <trkpt lat="36.24297" lon="29.529">
        <ele>915.4</ele>
      </trkpt>
      <trkpt lat="36.24303" lon="29.52919">
        <ele>916.1</ele>
      </trkpt>
      <trkpt lat="36.243" lon="29.52973">
        <ele>915.7</ele>
      </trkpt>
      <trkpt lat="36.24287" lon="29.53014">
        <ele>913.7</ele>
      </trkpt>
      <trkpt lat="36.24285" lon="29.53038">
        <ele>913</ele>
      </trkpt>
      <trkpt lat="36.24273" lon="29.53067">
        <ele>910.5</ele>
      </trkpt>
      <trkpt lat="36.24265" lon="29.53092">
        <ele>908.6</ele>
      </trkpt>
      <trkpt lat="36.24265" lon="29.53131">
        <ele>908.4</ele>
      </trkpt>
      <trkpt lat="36.24268" lon="29.53156">
        <ele>908.6</ele>
      </trkpt>
      <trkpt lat="36.24274" lon="29.53165">
        <ele>909.4</ele>
      </trkpt>
      <trkpt lat="36.24268" lon="29.5318">
        <ele>909.5</ele>
      </trkpt>
      <trkpt lat="36.24257" lon="29.5319">
        <ele>909</ele>
      </trkpt>
      <trkpt lat="36.24238" lon="29.53208">
        <ele>908</ele>
      </trkpt>
      <trkpt lat="36.24229" lon="29.53227">
        <ele>908.1</ele>
      </trkpt>
      <trkpt lat="36.24208" lon="29.53246">
        <ele>906.2</ele>
      </trkpt>
      <trkpt lat="36.242" lon="29.53264">
        <ele>905.6</ele>
      </trkpt>
      <trkpt lat="36.24201" lon="29.53281">
        <ele>906.4</ele>
      </trkpt>
      <trkpt lat="36.24192" lon="29.53308">
        <ele>905.3</ele>
      </trkpt>
      <trkpt lat="36.24178" lon="29.53323">
        <ele>902.5</ele>
      </trkpt>
      <trkpt lat="36.2417" lon="29.53347">
        <ele>900.2</ele>
      </trkpt>
      <trkpt lat="36.24181" lon="29.53373">
        <ele>902.3</ele>
      </trkpt>
      <trkpt lat="36.24181" lon="29.53382">
        <ele>901.8</ele>
      </trkpt>
      <trkpt lat="36.24171" lon="29.53387">
        <ele>898.7</ele>
      </trkpt>
      <trkpt lat="36.24155" lon="29.53418">
        <ele>893.5</ele>
      </trkpt>
      <trkpt lat="36.24131" lon="29.53456">
        <ele>888.9</ele>
      </trkpt>
      <trkpt lat="36.24128" lon="29.53467">
        <ele>888.6</ele>
      </trkpt>
      <trkpt lat="36.2412" lon="29.53476">
        <ele>887.7</ele>
      </trkpt>
      <trkpt lat="36.24109" lon="29.53483">
        <ele>886.4</ele>
      </trkpt>
      <trkpt lat="36.24079" lon="29.53529">
        <ele>884</ele>
      </trkpt>
      <trkpt lat="36.24078" lon="29.53546">
        <ele>884.2</ele>
      </trkpt>
      <trkpt lat="36.24073" lon="29.53552">
        <ele>884</ele>
      </trkpt>
      <trkpt lat="36.24061" lon="29.53581">
        <ele>883.9</ele>
      </trkpt>
      <trkpt lat="36.24065" lon="29.53624">
        <ele>887.3</ele>
      </trkpt>
      <trkpt lat="36.24052" lon="29.53644">
        <ele>887.7</ele>
      </trkpt>
      <trkpt lat="36.24044" lon="29.53651">
        <ele>887.3</ele>
      </trkpt>
      <trkpt lat="36.24034" lon="29.53667">
        <ele>887.1</ele>
      </trkpt>
      <trkpt lat="36.24015" lon="29.53678">
        <ele>884.8</ele>
      </trkpt>
      <trkpt lat="36.23996" lon="29.53691">
        <ele>881.3</ele>
      </trkpt>
      <trkpt lat="36.23983" lon="29.53692">
        <ele>878.2</ele>
      </trkpt>
      <trkpt lat="36.23979" lon="29.53686">
        <ele>877.5</ele>
      </trkpt>
      <trkpt lat="36.23974" lon="29.53701">
        <ele>875.3</ele>
      </trkpt>
      <trkpt lat="36.23969" lon="29.53694">
        <ele>874.3</ele>
      </trkpt>
      <trkpt lat="36.23966" lon="29.537">
        <ele>873.2</ele>
      </trkpt>
      <trkpt lat="36.23951" lon="29.53695">
        <ele>869.8</ele>
      </trkpt>
      <trkpt lat="36.23946" lon="29.53704">
        <ele>867.3</ele>
      </trkpt>
      <trkpt lat="36.23942" lon="29.53722">
        <ele>863.7</ele>
      </trkpt>
      <trkpt lat="36.23954" lon="29.53736">
        <ele>866</ele>
      </trkpt>
      <trkpt lat="36.23963" lon="29.53759">
        <ele>865.5</ele>
      </trkpt>
      <trkpt lat="36.23973" lon="29.53776">
        <ele>864.9</ele>
      </trkpt>
      <trkpt lat="36.23983" lon="29.53786">
        <ele>865.6</ele>
      </trkpt>
      <trkpt lat="36.24013" lon="29.53859">
        <ele>858.2</ele>
      </trkpt>
      <trkpt lat="36.24027" lon="29.53887">
        <ele>857.7</ele>
      </trkpt>
      <trkpt lat="36.24034" lon="29.53925">
        <ele>852.3</ele>
      </trkpt>
      <trkpt lat="36.24035" lon="29.53939">
        <ele>850.5</ele>
      </trkpt>
      <trkpt lat="36.24022" lon="29.53966">
        <ele>843.7</ele>
      </trkpt>
      <trkpt lat="36.24017" lon="29.53987">
        <ele>840.3</ele>
      </trkpt>
      <trkpt lat="36.23994" lon="29.54031">
        <ele>836.5</ele>
      </trkpt>
      <trkpt lat="36.24007" lon="29.54052">
        <ele>838.1</ele>
      </trkpt>
      <trkpt lat="36.2401" lon="29.54068">
        <ele>838.7</ele>
      </trkpt>
      <trkpt lat="36.24003" lon="29.54093">
        <ele>838.2</ele>
      </trkpt>
      <trkpt lat="36.24002" lon="29.54119">
        <ele>837.8</ele>
      </trkpt>
      <trkpt lat="36.24001" lon="29.54144">
        <ele>837.3</ele>
      </trkpt>
      <trkpt lat="36.24007" lon="29.54159">
        <ele>837.8</ele>
      </trkpt>
      <trkpt lat="36.24051" lon="29.54204">
        <ele>841.9</ele>
      </trkpt>
      <trkpt lat="36.2407" lon="29.54228">
        <ele>842.8</ele>
      </trkpt>
      <trkpt lat="36.24113" lon="29.54265">
        <ele>844.3</ele>
      </trkpt>
      <trkpt lat="36.24099" lon="29.54267">
        <ele>843.6</ele>
      </trkpt>
      <trkpt lat="36.24072" lon="29.54285">
        <ele>842.1</ele>
      </trkpt>
      <trkpt lat="36.24043" lon="29.5432">
        <ele>841</ele>
      </trkpt>
      <trkpt lat="36.23989" lon="29.54396">
        <ele>843.6</ele>
      </trkpt>
      <trkpt lat="36.23955" lon="29.54441">
        <ele>849.7</ele>
      </trkpt>
      <trkpt lat="36.23941" lon="29.54461">
        <ele>852.7</ele>
      </trkpt>
      <trkpt lat="36.23937" lon="29.54473">
        <ele>854.3</ele>
      </trkpt>
      <trkpt lat="36.23935" lon="29.54478">
        <ele>854.9</ele>
      </trkpt>
      <trkpt lat="36.23935" lon="29.54495">
        <ele>856.7</ele>
      </trkpt>
      <trkpt lat="36.2394" lon="29.54514">
        <ele>859.2</ele>
      </trkpt>
      <trkpt lat="36.23946" lon="29.54527">
        <ele>860.9</ele>
      </trkpt>
      <trkpt lat="36.23951" lon="29.54543">
        <ele>863.1</ele>
      </trkpt>
      <trkpt lat="36.2395" lon="29.5456">
        <ele>866.2</ele>
      </trkpt>
      <trkpt lat="36.2394" lon="29.54569">
        <ele>869.1</ele>
      </trkpt>
      <trkpt lat="36.23961" lon="29.54581">
        <ele>868.3</ele>
      </trkpt>
      <trkpt lat="36.23983" lon="29.54593">
        <ele>868.1</ele>
      </trkpt>
      <trkpt lat="36.24007" lon="29.54604">
        <ele>867.1</ele>
      </trkpt>
      <trkpt lat="36.24036" lon="29.54614">
        <ele>863.7</ele>
      </trkpt>
      <trkpt lat="36.24061" lon="29.54618">
        <ele>859.4</ele>
      </trkpt>
      <trkpt lat="36.24092" lon="29.54618">
        <ele>853.7</ele>
      </trkpt>
      <trkpt lat="36.24126" lon="29.54631">
        <ele>851.2</ele>
      </trkpt>
      <trkpt lat="36.24138" lon="29.54663">
        <ele>853.4</ele>
      </trkpt>
      <trkpt lat="36.24171" lon="29.54694">
        <ele>855.1</ele>
      </trkpt>
      <trkpt lat="36.24179" lon="29.5471">
        <ele>857.9</ele>
      </trkpt>
      <trkpt lat="36.24224" lon="29.54754">
        <ele>861.2</ele>
      </trkpt>
      <trkpt lat="36.24269" lon="29.54781">
        <ele>861.9</ele>
      </trkpt>
      <trkpt lat="36.24295" lon="29.54794">
        <ele>861.2</ele>
      </trkpt>
      <trkpt lat="36.24319" lon="29.54817">
        <ele>862.1</ele>
      </trkpt>
      <trkpt lat="36.24357" lon="29.54849">
        <ele>861.3</ele>
      </trkpt>
      <trkpt lat="36.24385" lon="29.54873">
        <ele>860.5</ele>
      </trkpt>
      <trkpt lat="36.24417" lon="29.54896">
        <ele>858.8</ele>
      </trkpt>
      <trkpt lat="36.24438" lon="29.54921">
        <ele>859.3</ele>
      </trkpt>
      <trkpt lat="36.24469" lon="29.54948">
        <ele>858.1</ele>
      </trkpt>
      <trkpt lat="36.24495" lon="29.54971">
        <ele>856.5</ele>
      </trkpt>
      <trkpt lat="36.24529" lon="29.5501">
        <ele>857.9</ele>
      </trkpt>
      <trkpt lat="36.24567" lon="29.55058">
        <ele>858.5</ele>
      </trkpt>
      <trkpt lat="36.24579" lon="29.55083">
        <ele>859</ele>
      </trkpt>
      <trkpt lat="36.24606" lon="29.55115">
        <ele>860.1</ele>
      </trkpt>
      <trkpt lat="36.24643" lon="29.55167">
        <ele>862</ele>
      </trkpt>
      <trkpt lat="36.24656" lon="29.55177">
        <ele>861.4</ele>
      </trkpt>
      <trkpt lat="36.24677" lon="29.55189">
        <ele>859.7</ele>
      </trkpt>
      <trkpt lat="36.24704" lon="29.55219">
        <ele>860.2</ele>
      </trkpt>
      <trkpt lat="36.24743" lon="29.55269">
        <ele>861.1</ele>
      </trkpt>
      <trkpt lat="36.24773" lon="29.55305">
        <ele>862.9</ele>
      </trkpt>
      <trkpt lat="36.24807" lon="29.55324">
        <ele>859.5</ele>
      </trkpt>
      <trkpt lat="36.24835" lon="29.55337">
        <ele>855.4</ele>
      </trkpt>
      <trkpt lat="36.24844" lon="29.55347">
        <ele>855.8</ele>
      </trkpt>
      <trkpt lat="36.24854" lon="29.55374">
        <ele>858.8</ele>
      </trkpt>
      <trkpt lat="36.24865" lon="29.55402">
        <ele>861.7</ele>
      </trkpt>
      <trkpt lat="36.24875" lon="29.55414">
        <ele>862.5</ele>
      </trkpt>
      <trkpt lat="36.24892" lon="29.55421">
        <ele>862</ele>
      </trkpt>
      <trkpt lat="36.24914" lon="29.55421">
        <ele>859.7</ele>
      </trkpt>
      <trkpt lat="36.24931" lon="29.55432">
        <ele>859</ele>
      </trkpt>
      <trkpt lat="36.24966" lon="29.55461">
        <ele>857.8</ele>
      </trkpt>
      <trkpt lat="36.24997" lon="29.55442">
        <ele>851.8</ele>
      </trkpt>
      <trkpt lat="36.25022" lon="29.55428">
        <ele>847.7</ele>
      </trkpt>
      <trkpt lat="36.25036" lon="29.55462">
        <ele>849.3</ele>
      </trkpt>
      <trkpt lat="36.25083" lon="29.55519">
        <ele>850.7</ele>
      </trkpt>
      <trkpt lat="36.2516" lon="29.55569">
        <ele>844.2</ele>
      </trkpt>
      <trkpt lat="36.25188" lon="29.55593">
        <ele>843.3</ele>
      </trkpt>
      <trkpt lat="36.25245" lon="29.55655">
        <ele>845.1</ele>
      </trkpt>
      <trkpt lat="36.25271" lon="29.55682">
        <ele>846.1</ele>
      </trkpt>
      <trkpt lat="36.25327" lon="29.55739">
        <ele>844.3</ele>
      </trkpt>
      <trkpt lat="36.2534" lon="29.55761">
        <ele>845.4</ele>
      </trkpt>
      <trkpt lat="36.2537" lon="29.55783">
        <ele>844.4</ele>
      </trkpt>
      <trkpt lat="36.25399" lon="29.55806">
        <ele>842.9</ele>
      </trkpt>
      <trkpt lat="36.25428" lon="29.55832">
        <ele>842.5</ele>
      </trkpt>
      <trkpt lat="36.25472" lon="29.55851">
        <ele>841.9</ele>
      </trkpt>
      <trkpt lat="36.25506" lon="29.55856">
        <ele>839.2</ele>
      </trkpt>
      <trkpt lat="36.25535" lon="29.55873">
        <ele>839.7</ele>
      </trkpt>
      <trkpt lat="36.25557" lon="29.55875">
        <ele>837.4</ele>
      </trkpt>
      <trkpt lat="36.25576" lon="29.55888">
        <ele>837</ele>
      </trkpt>
      <trkpt lat="36.25596" lon="29.55902">
        <ele>835.3</ele>
      </trkpt>
      <trkpt lat="36.25617" lon="29.5592">
        <ele>833.7</ele>
      </trkpt>
      <trkpt lat="36.25638" lon="29.55933">
        <ele>831.1</ele>
      </trkpt>
      <trkpt lat="36.25649" lon="29.55963">
        <ele>831.9</ele>
      </trkpt>
      <trkpt lat="36.2567" lon="29.55996">
        <ele>828.9</ele>
      </trkpt>
      <trkpt lat="36.2568" lon="29.56035">
        <ele>828.2</ele>
      </trkpt>
      <trkpt lat="36.25689" lon="29.56064">
        <ele>827.1</ele>
      </trkpt>
      <trkpt lat="36.25694" lon="29.56093">
        <ele>828</ele>
      </trkpt>
      <trkpt lat="36.25712" lon="29.56129">
        <ele>829.4</ele>
      </trkpt>
      <trkpt lat="36.25742" lon="29.5614">
        <ele>823.2</ele>
      </trkpt>
      <trkpt lat="36.2576" lon="29.56148">
        <ele>820.4</ele>
      </trkpt>
      <trkpt lat="36.25782" lon="29.56148">
        <ele>815.9</ele>
      </trkpt>
      <trkpt lat="36.25795" lon="29.56158">
        <ele>813.8</ele>
      </trkpt>
      <trkpt lat="36.25809" lon="29.56196">
        <ele>815.7</ele>
      </trkpt>
      <trkpt lat="36.25836" lon="29.56228">
        <ele>813.1</ele>
      </trkpt>
      <trkpt lat="36.25861" lon="29.56296">
        <ele>818.3</ele>
      </trkpt>
      <trkpt lat="36.25884" lon="29.56349">
        <ele>815.8</ele>
      </trkpt>
      <trkpt lat="36.25912" lon="29.56371">
        <ele>809.1</ele>
      </trkpt>
      <trkpt lat="36.25928" lon="29.56407">
        <ele>810.3</ele>
      </trkpt>
      <trkpt lat="36.2594" lon="29.56441">
        <ele>812.8</ele>
      </trkpt>
      <trkpt lat="36.25951" lon="29.56497">
        <ele>816</ele>
      </trkpt>
      <trkpt lat="36.25975" lon="29.56543">
        <ele>813.7</ele>
      </trkpt>
      <trkpt lat="36.26001" lon="29.56578">
        <ele>808.8</ele>
      </trkpt>
      <trkpt lat="36.26014" lon="29.56617">
        <ele>811.2</ele>
      </trkpt>
      <trkpt lat="36.26032" lon="29.5661">
        <ele>811.2</ele>
      </trkpt>
      <trkpt lat="36.26047" lon="29.56652">
        <ele>808.7</ele>
      </trkpt>
      <trkpt lat="36.26103" lon="29.56748">
        <ele>802.8</ele>
      </trkpt>
      <trkpt lat="36.26125" lon="29.56779">
        <ele>804.2</ele>
      </trkpt>
      <trkpt lat="36.26138" lon="29.56787">
        <ele>803.1</ele>
      </trkpt>
      <trkpt lat="36.26162" lon="29.56799">
        <ele>799.3</ele>
      </trkpt>
      <trkpt lat="36.2618" lon="29.56822">
        <ele>799</ele>
      </trkpt>
      <trkpt lat="36.2619" lon="29.56855">
        <ele>799.7</ele>
      </trkpt>
      <trkpt lat="36.26194" lon="29.56906">
        <ele>800.6</ele>
      </trkpt>
      <trkpt lat="36.262" lon="29.56964">
        <ele>799.7</ele>
      </trkpt>
      <trkpt lat="36.26224" lon="29.57024">
        <ele>796.5</ele>
      </trkpt>
      <trkpt lat="36.26254" lon="29.57076">
        <ele>791.3</ele>
      </trkpt>
      <trkpt lat="36.26295" lon="29.57134">
        <ele>790.8</ele>
      </trkpt>
      <trkpt lat="36.26334" lon="29.57169">
        <ele>783.2</ele>
      </trkpt>
      <trkpt lat="36.26367" lon="29.57214">
        <ele>788</ele>
      </trkpt>
      <trkpt lat="36.264" lon="29.5727">
        <ele>785.5</ele>
      </trkpt>
      <trkpt lat="36.26411" lon="29.57293">
        <ele>784.6</ele>
      </trkpt>
      <trkpt lat="36.2641" lon="29.57328">
        <ele>783.6</ele>
      </trkpt>
      <trkpt lat="36.26406" lon="29.57365">
        <ele>782.1</ele>
      </trkpt>
      <trkpt lat="36.26408" lon="29.5741">
        <ele>779.7</ele>
      </trkpt>
      <trkpt lat="36.26412" lon="29.57443">
        <ele>775.7</ele>
      </trkpt>
      <trkpt lat="36.26424" lon="29.57491">
        <ele>770.9</ele>
      </trkpt>
      <trkpt lat="36.26457" lon="29.57588">
        <ele>771.5</ele>
      </trkpt>
      <trkpt lat="36.26465" lon="29.57656">
        <ele>767.8</ele>
      </trkpt>
      <trkpt lat="36.26464" lon="29.57702">
        <ele>765.7</ele>
      </trkpt>
      <trkpt lat="36.26467" lon="29.5773">
        <ele>764.9</ele>
      </trkpt>
      <trkpt lat="36.26462" lon="29.57764">
        <ele>763.2</ele>
      </trkpt>
      <trkpt lat="36.2646" lon="29.57792">
        <ele>762</ele>
      </trkpt>
      <trkpt lat="36.26462" lon="29.57822">
        <ele>760.9</ele>
      </trkpt>
      <trkpt lat="36.2647" lon="29.57842">
        <ele>759.6</ele>
      </trkpt>
      <trkpt lat="36.26483" lon="29.5786">
        <ele>757</ele>
      </trkpt>
      <trkpt lat="36.26495" lon="29.57874">
        <ele>753.8</ele>
      </trkpt>
      <trkpt lat="36.265" lon="29.57884">
        <ele>751.5</ele>
      </trkpt>
      <trkpt lat="36.26496" lon="29.57893">
        <ele>750.6</ele>
      </trkpt>
      <trkpt lat="36.26486" lon="29.57894">
        <ele>752.2</ele>
      </trkpt>
      <trkpt lat="36.26472" lon="29.57892">
        <ele>755</ele>
      </trkpt>
      <trkpt lat="36.26458" lon="29.57885">
        <ele>757.7</ele>
      </trkpt>
      <trkpt lat="36.26445" lon="29.57872">
        <ele>759.9</ele>
      </trkpt>
      <trkpt lat="36.2644" lon="29.57852">
        <ele>760.7</ele>
      </trkpt>
      <trkpt lat="36.26429" lon="29.57844">
        <ele>761.2</ele>
      </trkpt>
      <trkpt lat="36.26422" lon="29.57854">
        <ele>761.9</ele>
      </trkpt>
      <trkpt lat="36.26421" lon="29.57872">
        <ele>762.8</ele>
      </trkpt>
      <trkpt lat="36.26426" lon="29.57889">
        <ele>762.9</ele>
      </trkpt>
      <trkpt lat="36.26435" lon="29.57911">
        <ele>761.6</ele>
      </trkpt>
      <trkpt lat="36.26448" lon="29.57929">
        <ele>758.5</ele>
      </trkpt>
      <trkpt lat="36.26469" lon="29.57953">
        <ele>753.1</ele>
      </trkpt>
      <trkpt lat="36.26493" lon="29.57968">
        <ele>747.1</ele>
      </trkpt>
      <trkpt lat="36.26508" lon="29.57983">
        <ele>746.1</ele>
      </trkpt>
      <trkpt lat="36.26521" lon="29.58001">
        <ele>746.5</ele>
      </trkpt>
      <trkpt lat="36.26528" lon="29.58034">
        <ele>746.2</ele>
      </trkpt>
      <trkpt lat="36.26537" lon="29.5809">
        <ele>743.1</ele>
      </trkpt>
      <trkpt lat="36.2655" lon="29.58165">
        <ele>734.6</ele>
      </trkpt>
      <trkpt lat="36.26553" lon="29.58206">
        <ele>729.5</ele>
      </trkpt>
      <trkpt lat="36.26553" lon="29.58249">
        <ele>724.9</ele>
      </trkpt>
      <trkpt lat="36.2655" lon="29.58269">
        <ele>723.7</ele>
      </trkpt>
      <trkpt lat="36.26553" lon="29.58294">
        <ele>721.1</ele>
      </trkpt>
      <trkpt lat="36.26566" lon="29.58329">
        <ele>715.6</ele>
      </trkpt>
      <trkpt lat="36.2658" lon="29.58349">
        <ele>713.8</ele>
      </trkpt>
      <trkpt lat="36.26594" lon="29.58371">
        <ele>712.8</ele>
      </trkpt>
      <trkpt lat="36.26599" lon="29.58394">
        <ele>713.1</ele>
      </trkpt>
      <trkpt lat="36.26604" lon="29.5843">
        <ele>713.7</ele>
      </trkpt>
      <trkpt lat="36.26633" lon="29.58491">
        <ele>710.2</ele>
      </trkpt>
      <trkpt lat="36.26645" lon="29.5851">
        <ele>707.4</ele>
      </trkpt>
      <trkpt lat="36.26654" lon="29.58539">
        <ele>704.8</ele>
      </trkpt>
      <trkpt lat="36.26657" lon="29.58561">
        <ele>703.9</ele>
      </trkpt>
      <trkpt lat="36.2665" lon="29.58587">
        <ele>706.2</ele>
      </trkpt>
      <trkpt lat="36.26649" lon="29.58605">
        <ele>707.2</ele>
      </trkpt>
      <trkpt lat="36.26653" lon="29.58618">
        <ele>706.5</ele>
      </trkpt>
      <trkpt lat="36.26664" lon="29.58638">
        <ele>703.4</ele>
      </trkpt>
      <trkpt lat="36.26681" lon="29.5866">
        <ele>700.3</ele>
      </trkpt>
      <trkpt lat="36.26699" lon="29.58684">
        <ele>698.5</ele>
      </trkpt>
      <trkpt lat="36.26713" lon="29.58707">
        <ele>696.7</ele>
      </trkpt>
      <trkpt lat="36.2672" lon="29.58728">
        <ele>695.4</ele>
      </trkpt>
      <trkpt lat="36.26741" lon="29.58755">
        <ele>688.3</ele>
      </trkpt>
      <trkpt lat="36.2675" lon="29.58772">
        <ele>684.8</ele>
      </trkpt>
      <trkpt lat="36.26756" lon="29.58792">
        <ele>684.6</ele>
      </trkpt>
      <trkpt lat="36.26749" lon="29.58912">
        <ele>682.6</ele>
      </trkpt>
      <trkpt lat="36.26757" lon="29.58948">
        <ele>680.2</ele>
      </trkpt>
      <trkpt lat="36.26772" lon="29.58973">
        <ele>676</ele>
      </trkpt>
      <trkpt lat="36.26777" lon="29.58996">
        <ele>673.9</ele>
      </trkpt>
      <trkpt lat="36.26776" lon="29.59017">
        <ele>674.3</ele>
      </trkpt>
      <trkpt lat="36.26781" lon="29.59038">
        <ele>673.3</ele>
      </trkpt>
      <trkpt lat="36.26778" lon="29.59057">
        <ele>674.9</ele>
      </trkpt>
      <trkpt lat="36.26773" lon="29.59077">
        <ele>677</ele>
      </trkpt>
      <trkpt lat="36.26793" lon="29.59109">
        <ele>674.2</ele>
      </trkpt>
      <trkpt lat="36.26818" lon="29.59147">
        <ele>669.8</ele>
      </trkpt>
      <trkpt lat="36.26831" lon="29.5917">
        <ele>667.6</ele>
      </trkpt>
      <trkpt lat="36.2685" lon="29.59208">
        <ele>668.4</ele>
      </trkpt>
      <trkpt lat="36.2688" lon="29.59234">
        <ele>663.1</ele>
      </trkpt>
      <trkpt lat="36.269" lon="29.59252">
        <ele>658.7</ele>
      </trkpt>
      <trkpt lat="36.26909" lon="29.5927">
        <ele>659.7</ele>
      </trkpt>
      <trkpt lat="36.26924" lon="29.59287">
        <ele>659.5</ele>
      </trkpt>
      <trkpt lat="36.26944" lon="29.59311">
        <ele>658.7</ele>
      </trkpt>
      <trkpt lat="36.26949" lon="29.59334">
        <ele>661</ele>
      </trkpt>
      <trkpt lat="36.26959" lon="29.59361">
        <ele>662.2</ele>
      </trkpt>
      <trkpt lat="36.26979" lon="29.59384">
        <ele>658.4</ele>
      </trkpt>
      <trkpt lat="36.26997" lon="29.59401">
        <ele>654.2</ele>
      </trkpt>
      <trkpt lat="36.27015" lon="29.59424">
        <ele>652.3</ele>
      </trkpt>
      <trkpt lat="36.27043" lon="29.59443">
        <ele>647.5</ele>
      </trkpt>
      <trkpt lat="36.27066" lon="29.59478">
        <ele>644.5</ele>
      </trkpt>
      <trkpt lat="36.27097" lon="29.59515">
        <ele>640.5</ele>
      </trkpt>
      <trkpt lat="36.2714" lon="29.59571">
        <ele>634</ele>
      </trkpt>
      <trkpt lat="36.27156" lon="29.59598">
        <ele>630.9</ele>
      </trkpt>
      <trkpt lat="36.27174" lon="29.5962">
        <ele>629.9</ele>
      </trkpt>
      <trkpt lat="36.27186" lon="29.59632">
        <ele>631</ele>
      </trkpt>
      <trkpt lat="36.27196" lon="29.5965">
        <ele>630.9</ele>
      </trkpt>
      <trkpt lat="36.27206" lon="29.5967">
        <ele>629.9</ele>
      </trkpt>
      <trkpt lat="36.27218" lon="29.59702">
        <ele>628.1</ele>
      </trkpt>
      <trkpt lat="36.27235" lon="29.59727">
        <ele>624.3</ele>
      </trkpt>
      <trkpt lat="36.27262" lon="29.59748">
        <ele>621.5</ele>
      </trkpt>
      <trkpt lat="36.27307" lon="29.59775">
        <ele>626.1</ele>
      </trkpt>
      <trkpt lat="36.27353" lon="29.59827">
        <ele>625.2</ele>
      </trkpt>
      <trkpt lat="36.27382" lon="29.59852">
        <ele>630.5</ele>
      </trkpt>
      <trkpt lat="36.27424" lon="29.59885">
        <ele>628.9</ele>
      </trkpt>
      <trkpt lat="36.27443" lon="29.5991">
        <ele>627.7</ele>
      </trkpt>
      <trkpt lat="36.27464" lon="29.59931">
        <ele>631.9</ele>
      </trkpt>
      <trkpt lat="36.27478" lon="29.5995">
        <ele>632.8</ele>
      </trkpt>
      <trkpt lat="36.27489" lon="29.59978">
        <ele>628</ele>
      </trkpt>
      <trkpt lat="36.27505" lon="29.60042">
        <ele>619.3</ele>
      </trkpt>
      <trkpt lat="36.27522" lon="29.60101">
        <ele>618.1</ele>
      </trkpt>
      <trkpt lat="36.2754" lon="29.60156">
        <ele>614.2</ele>
      </trkpt>
      <trkpt lat="36.27574" lon="29.60224">
        <ele>612.3</ele>
      </trkpt>
      <trkpt lat="36.27607" lon="29.60289">
        <ele>611.1</ele>
      </trkpt>
      <trkpt lat="36.27622" lon="29.6031">
        <ele>610.7</ele>
      </trkpt>
      <trkpt lat="36.2764" lon="29.60325">
        <ele>609.5</ele>
      </trkpt>
      <trkpt lat="36.2766" lon="29.60338">
        <ele>607.8</ele>
      </trkpt>
      <trkpt lat="36.27673" lon="29.60355">
        <ele>604.7</ele>
      </trkpt>
      <trkpt lat="36.27693" lon="29.60395">
        <ele>596.2</ele>
      </trkpt>
      <trkpt lat="36.27705" lon="29.60425">
        <ele>591.2</ele>
      </trkpt>
      <trkpt lat="36.27715" lon="29.6044">
        <ele>591.1</ele>
      </trkpt>
      <trkpt lat="36.27729" lon="29.60452">
        <ele>590.1</ele>
      </trkpt>
      <trkpt lat="36.27743" lon="29.60453">
        <ele>589</ele>
      </trkpt>
      <trkpt lat="36.27765" lon="29.6045">
        <ele>585.8</ele>
      </trkpt>
      <trkpt lat="36.27798" lon="29.60452">
        <ele>579.4</ele>
      </trkpt>
      <trkpt lat="36.27836" lon="29.60445">
        <ele>573.1</ele>
      </trkpt>
      <trkpt lat="36.27848" lon="29.60443">
        <ele>572.4</ele>
      </trkpt>
      <trkpt lat="36.27877" lon="29.60439">
        <ele>570.7</ele>
      </trkpt>
      <trkpt lat="36.27894" lon="29.60442">
        <ele>569.3</ele>
      </trkpt>
      <trkpt lat="36.27923" lon="29.60466">
        <ele>567</ele>
      </trkpt>
      <trkpt lat="36.27947" lon="29.6049">
        <ele>567</ele>
      </trkpt>
      <trkpt lat="36.27959" lon="29.60508">
        <ele>566.8</ele>
      </trkpt>
      <trkpt lat="36.27973" lon="29.60531">
        <ele>566.5</ele>
      </trkpt>
      <trkpt lat="36.27989" lon="29.60542">
        <ele>566.3</ele>
      </trkpt>
      <trkpt lat="36.28013" lon="29.60543">
        <ele>566.8</ele>
      </trkpt>
      <trkpt lat="36.28051" lon="29.60545">
        <ele>567.5</ele>
      </trkpt>
      <trkpt lat="36.28077" lon="29.60551">
        <ele>567.8</ele>
      </trkpt>
      <trkpt lat="36.28094" lon="29.60563">
        <ele>566.8</ele>
      </trkpt>
      <trkpt lat="36.28111" lon="29.6059">
        <ele>565.4</ele>
      </trkpt>
      <trkpt lat="36.2812" lon="29.60598">
        <ele>565</ele>
      </trkpt>
      <trkpt lat="36.28131" lon="29.60599">
        <ele>564.8</ele>
      </trkpt>
      <trkpt lat="36.28132" lon="29.60609">
        <ele>564.4</ele>
      </trkpt>
      <trkpt lat="36.28133" lon="29.60614">
        <ele>564.2</ele>
      </trkpt>
      <trkpt lat="36.28132" lon="29.6062">
        <ele>563.9</ele>
      </trkpt>
      <trkpt lat="36.28128" lon="29.60645">
        <ele>562.9</ele>
      </trkpt>
      <trkpt lat="36.28124" lon="29.60669">
        <ele>562</ele>
      </trkpt>
      <trkpt lat="36.28098" lon="29.60723">
        <ele>563.1</ele>
      </trkpt>
      <trkpt lat="36.28076" lon="29.6076">
        <ele>564.1</ele>
      </trkpt>
      <trkpt lat="36.28052" lon="29.60791">
        <ele>564.7</ele>
      </trkpt>
      <trkpt lat="36.28038" lon="29.60825">
        <ele>565.5</ele>
      </trkpt>
      <trkpt lat="36.28019" lon="29.60834">
        <ele>566.3</ele>
      </trkpt>
      <trkpt lat="36.28019" lon="29.60895">
        <ele>568.2</ele>
      </trkpt>
      <trkpt lat="36.28004" lon="29.60907">
        <ele>570.7</ele>
      </trkpt>
      <trkpt lat="36.28005" lon="29.60939">
        <ele>573.8</ele>
      </trkpt>
      <trkpt lat="36.27964" lon="29.61035">
        <ele>598.7</ele>
      </trkpt>
      <trkpt lat="36.27943" lon="29.61089">
        <ele>610.7</ele>
      </trkpt>
      <trkpt lat="36.27945" lon="29.6116">
        <ele>617.5</ele>
      </trkpt>
      <trkpt lat="36.27947" lon="29.61208">
        <ele>622.2</ele>
      </trkpt>
      <trkpt lat="36.27932" lon="29.61236">
        <ele>631.8</ele>
      </trkpt>
      <trkpt lat="36.27943" lon="29.61286">
        <ele>630.3</ele>
      </trkpt>
      <trkpt lat="36.27928" lon="29.61337">
        <ele>637.2</ele>
      </trkpt>
      <trkpt lat="36.27925" lon="29.61362">
        <ele>644.7</ele>
      </trkpt>
      <trkpt lat="36.27936" lon="29.61376">
        <ele>644.8</ele>
      </trkpt>
      <trkpt lat="36.2795" lon="29.61394">
        <ele>645</ele>
      </trkpt>
      <trkpt lat="36.27952" lon="29.61434">
        <ele>653.1</ele>
      </trkpt>
      <trkpt lat="36.27967" lon="29.61476">
        <ele>654.2</ele>
      </trkpt>
      <trkpt lat="36.27973" lon="29.61526">
        <ele>660.4</ele>
      </trkpt>
      <trkpt lat="36.27987" lon="29.61586">
        <ele>662.9</ele>
      </trkpt>
      <trkpt lat="36.27985" lon="29.61611">
        <ele>668.5</ele>
      </trkpt>
      <trkpt lat="36.27984" lon="29.61635">
        <ele>673</ele>
      </trkpt>
      <trkpt lat="36.27975" lon="29.61675">
        <ele>685.2</ele>
      </trkpt>
      <trkpt lat="36.27954" lon="29.61701">
        <ele>704.1</ele>
      </trkpt>
      <trkpt lat="36.27961" lon="29.61733">
        <ele>703.7</ele>
      </trkpt>
      <trkpt lat="36.27978" lon="29.61761">
        <ele>696.3</ele>
      </trkpt>
      <trkpt lat="36.27981" lon="29.61788">
        <ele>699.4</ele>
      </trkpt>
      <trkpt lat="36.2798" lon="29.61814">
        <ele>705.5</ele>
      </trkpt>
      <trkpt lat="36.27977" lon="29.61852">
        <ele>714</ele>
      </trkpt>
      <trkpt lat="36.27984" lon="29.61887">
        <ele>712.7</ele>
      </trkpt>
      <trkpt lat="36.27984" lon="29.61912">
        <ele>715.6</ele>
      </trkpt>
      <trkpt lat="36.27963" lon="29.61935">
        <ele>731.1</ele>
      </trkpt>
      <trkpt lat="36.2794" lon="29.61951">
        <ele>746.7</ele>
      </trkpt>
      <trkpt lat="36.2793" lon="29.61958">
        <ele>754</ele>
      </trkpt>
      <trkpt lat="36.2792" lon="29.61965">
        <ele>760.7</ele>
      </trkpt>
      <trkpt lat="36.27918" lon="29.61977">
        <ele>762</ele>
      </trkpt>
      <trkpt lat="36.27924" lon="29.62004">
        <ele>758.3</ele>
      </trkpt>
      <trkpt lat="36.27926" lon="29.6203">
        <ele>760.2</ele>
      </trkpt>
      <trkpt lat="36.27921" lon="29.62069">
        <ele>768.3</ele>
      </trkpt>
      <trkpt lat="36.27911" lon="29.62081">
        <ele>775.5</ele>
      </trkpt>
      <trkpt lat="36.27909" lon="29.62102">
        <ele>782.5</ele>
      </trkpt>
      <trkpt lat="36.27927" lon="29.62127">
        <ele>778.7</ele>
      </trkpt>
      <trkpt lat="36.27943" lon="29.62143">
        <ele>773.6</ele>
      </trkpt>
      <trkpt lat="36.27957" lon="29.6217">
        <ele>773.1</ele>
      </trkpt>
      <trkpt lat="36.27967" lon="29.62187">
        <ele>770.7</ele>
      </trkpt>
      <trkpt lat="36.27968" lon="29.62218">
        <ele>775.7</ele>
      </trkpt>
      <trkpt lat="36.27962" lon="29.62247">
        <ele>785.8</ele>
      </trkpt>
      <trkpt lat="36.2796" lon="29.6228">
        <ele>793.1</ele>
      </trkpt>
      <trkpt lat="36.27951" lon="29.62316">
        <ele>805.4</ele>
      </trkpt>
      <trkpt lat="36.27947" lon="29.62344">
        <ele>811.7</ele>
      </trkpt>
      <trkpt lat="36.27939" lon="29.62371">
        <ele>819.9</ele>
      </trkpt>
      <trkpt lat="36.27937" lon="29.62405">
        <ele>824</ele>
      </trkpt>
      <trkpt lat="36.27933" lon="29.62417">
        <ele>828</ele>
      </trkpt>
      <trkpt lat="36.27929" lon="29.62411">
        <ele>830.5</ele>
      </trkpt>
      <trkpt lat="36.27926" lon="29.6239">
        <ele>831.3</ele>
      </trkpt>
      <trkpt lat="36.27922" lon="29.6237">
        <ele>832.8</ele>
      </trkpt>
      <trkpt lat="36.27913" lon="29.62361">
        <ele>837.6</ele>
      </trkpt>
      <trkpt lat="36.27913" lon="29.62386">
        <ele>839.3</ele>
      </trkpt>
      <trkpt lat="36.27914" lon="29.62408">
        <ele>840.4</ele>
      </trkpt>
      <trkpt lat="36.2791" lon="29.62428">
        <ele>841.4</ele>
      </trkpt>
      <trkpt lat="36.27906" lon="29.62449">
        <ele>839.7</ele>
      </trkpt>
      <trkpt lat="36.27892" lon="29.62467">
        <ele>842.5</ele>
      </trkpt>
      <trkpt lat="36.27877" lon="29.62465">
        <ele>848.2</ele>
      </trkpt>
      <trkpt lat="36.27852" lon="29.62474">
        <ele>855.5</ele>
      </trkpt>
      <trkpt lat="36.27832" lon="29.62482">
        <ele>861.2</ele>
      </trkpt>
      <trkpt lat="36.27816" lon="29.62483">
        <ele>865.6</ele>
      </trkpt>
      <trkpt lat="36.2781" lon="29.62494">
        <ele>865.3</ele>
      </trkpt>
      <trkpt lat="36.27813" lon="29.62511">
        <ele>862.8</ele>
      </trkpt>
      <trkpt lat="36.27817" lon="29.62538">
        <ele>860.2</ele>
      </trkpt>
      <trkpt lat="36.2781" lon="29.62569">
        <ele>860.9</ele>
      </trkpt>
      <trkpt lat="36.27771" lon="29.62588">
        <ele>873.6</ele>
      </trkpt>
      <trkpt lat="36.27769" lon="29.62596">
        <ele>874.4</ele>
      </trkpt>
      <trkpt lat="36.27761" lon="29.62605">
        <ele>877.2</ele>
      </trkpt>
      <trkpt lat="36.27755" lon="29.62645">
        <ele>879.3</ele>
      </trkpt>
      <trkpt lat="36.27737" lon="29.62667">
        <ele>884.3</ele>
      </trkpt>
      <trkpt lat="36.27722" lon="29.62684">
        <ele>887</ele>
      </trkpt>
      <trkpt lat="36.27715" lon="29.62717">
        <ele>887.2</ele>
      </trkpt>
      <trkpt lat="36.27699" lon="29.6276">
        <ele>889</ele>
      </trkpt>
      <trkpt lat="36.27691" lon="29.62788">
        <ele>888.4</ele>
      </trkpt>
      <trkpt lat="36.27678" lon="29.62806">
        <ele>891.2</ele>
      </trkpt>
      <trkpt lat="36.27664" lon="29.62815">
        <ele>895</ele>
      </trkpt>
      <trkpt lat="36.27648" lon="29.62824">
        <ele>897</ele>
      </trkpt>
      <trkpt lat="36.27633" lon="29.62835">
        <ele>898.5</ele>
      </trkpt>
      <trkpt lat="36.27612" lon="29.62862">
        <ele>899.2</ele>
      </trkpt>
      <trkpt lat="36.27554" lon="29.62875">
        <ele>906.6</ele>
      </trkpt>
      <trkpt lat="36.2753" lon="29.62908">
        <ele>904.6</ele>
      </trkpt>
      <trkpt lat="36.2748" lon="29.62892">
        <ele>911.3</ele>
      </trkpt>
      <trkpt lat="36.27455" lon="29.62889">
        <ele>912.8</ele>
      </trkpt>
      <trkpt lat="36.27419" lon="29.62894">
        <ele>912.8</ele>
      </trkpt>
      <trkpt lat="36.27412" lon="29.62889">
        <ele>913.7</ele>
      </trkpt>
      <trkpt lat="36.27394" lon="29.62877">
        <ele>916.3</ele>
      </trkpt>
      <trkpt lat="36.27365" lon="29.62869">
        <ele>917.1</ele>
      </trkpt>
      <trkpt lat="36.27348" lon="29.62877">
        <ele>914.6</ele>
      </trkpt>
      <trkpt lat="36.27309" lon="29.6286">
        <ele>915.4</ele>
      </trkpt>
      <trkpt lat="36.27291" lon="29.62853">
        <ele>915</ele>
      </trkpt>
      <trkpt lat="36.27268" lon="29.62851">
        <ele>913.2</ele>
      </trkpt>
      <trkpt lat="36.27255" lon="29.62844">
        <ele>913.5</ele>
      </trkpt>
      <trkpt lat="36.27249" lon="29.62835">
        <ele>914.4</ele>
      </trkpt>
      <trkpt lat="36.27231" lon="29.62791">
        <ele>918.7</ele>
      </trkpt>
      <trkpt lat="36.2722" lon="29.62771">
        <ele>920.4</ele>
      </trkpt>
      <trkpt lat="36.27207" lon="29.62747">
        <ele>922.8</ele>
      </trkpt>
      <trkpt lat="36.27201" lon="29.62734">
        <ele>923.9</ele>
      </trkpt>
      <trkpt lat="36.27194" lon="29.62726">
        <ele>924.4</ele>
      </trkpt>
      <trkpt lat="36.27186" lon="29.62729">
        <ele>923.2</ele>
      </trkpt>
      <trkpt lat="36.27181" lon="29.62738">
        <ele>921.7</ele>
      </trkpt>
      <trkpt lat="36.27178" lon="29.62751">
        <ele>919.7</ele>
      </trkpt>
      <trkpt lat="36.27172" lon="29.62761">
        <ele>917.6</ele>
      </trkpt>
      <trkpt lat="36.27166" lon="29.6277">
        <ele>915.7</ele>
      </trkpt>
      <trkpt lat="36.27157" lon="29.62767">
        <ele>917.2</ele>
      </trkpt>
      <trkpt lat="36.27144" lon="29.62763">
        <ele>919.5</ele>
      </trkpt>
      <trkpt lat="36.27121" lon="29.62762">
        <ele>922.3</ele>
      </trkpt>
      <trkpt lat="36.27108" lon="29.62759">
        <ele>924.4</ele>
      </trkpt>
      <trkpt lat="36.27093" lon="29.62746">
        <ele>928.2</ele>
      </trkpt>
      <trkpt lat="36.27079" lon="29.62741">
        <ele>930.3</ele>
      </trkpt>
      <trkpt lat="36.27056" lon="29.62741">
        <ele>931.3</ele>
      </trkpt>
      <trkpt lat="36.27036" lon="29.62739">
        <ele>932.4</ele>
      </trkpt>
      <trkpt lat="36.26994" lon="29.62747">
        <ele>931.9</ele>
      </trkpt>
      <trkpt lat="36.2698" lon="29.62735">
        <ele>932.3</ele>
      </trkpt>
      <trkpt lat="36.26957" lon="29.62714">
        <ele>933</ele>
      </trkpt>
      <trkpt lat="36.26946" lon="29.62686">
        <ele>936.5</ele>
      </trkpt>
      <trkpt lat="36.26933" lon="29.6267">
        <ele>937.6</ele>
      </trkpt>
      <trkpt lat="36.26918" lon="29.62651">
        <ele>939.3</ele>
      </trkpt>
      <trkpt lat="36.26906" lon="29.62648">
        <ele>939.6</ele>
      </trkpt>
      <trkpt lat="36.26899" lon="29.62633">
        <ele>942.3</ele>
      </trkpt>
      <trkpt lat="36.26891" lon="29.62629">
        <ele>943</ele>
      </trkpt>
      <trkpt lat="36.26893" lon="29.62617">
        <ele>945.5</ele>
      </trkpt>
      <trkpt lat="36.2688" lon="29.62609">
        <ele>947</ele>
      </trkpt>
      <trkpt lat="36.26861" lon="29.62611">
        <ele>946.3</ele>
      </trkpt>
      <trkpt lat="36.26847" lon="29.62621">
        <ele>943.7</ele>
      </trkpt>
      <trkpt lat="36.26817" lon="29.62624">
        <ele>944.2</ele>
      </trkpt>
      <trkpt lat="36.26792" lon="29.62634">
        <ele>944.6</ele>
      </trkpt>
      <trkpt lat="36.26734" lon="29.62654">
        <ele>946.7</ele>
      </trkpt>
      <trkpt lat="36.26694" lon="29.62664">
        <ele>950</ele>
      </trkpt>
      <trkpt lat="36.26656" lon="29.62674">
        <ele>953.5</ele>
      </trkpt>
      <trkpt lat="36.26635" lon="29.62692">
        <ele>953.4</ele>
      </trkpt>
      <trkpt lat="36.26627" lon="29.62703">
        <ele>952.5</ele>
      </trkpt>
      <trkpt lat="36.26617" lon="29.62708">
        <ele>953.1</ele>
      </trkpt>
      <trkpt lat="36.26611" lon="29.62719">
        <ele>951.6</ele>
      </trkpt>
      <trkpt lat="36.26597" lon="29.62716">
        <ele>954.6</ele>
      </trkpt>
      <trkpt lat="36.26588" lon="29.62722">
        <ele>954.7</ele>
      </trkpt>
      <trkpt lat="36.26577" lon="29.62723">
        <ele>955.4</ele>
      </trkpt>
      <trkpt lat="36.26566" lon="29.6272">
        <ele>956.4</ele>
      </trkpt>
      <trkpt lat="36.26529" lon="29.62693">
        <ele>964.1</ele>
      </trkpt>
      <trkpt lat="36.26517" lon="29.62687">
        <ele>966.3</ele>
      </trkpt>
      <trkpt lat="36.265" lon="29.62682">
        <ele>968.2</ele>
      </trkpt>
      <trkpt lat="36.26467" lon="29.62706">
        <ele>965.2</ele>
      </trkpt>
      <trkpt lat="36.26449" lon="29.62723">
        <ele>963.3</ele>
      </trkpt>
      <trkpt lat="36.26437" lon="29.62719">
        <ele>965.3</ele>
      </trkpt>
      <trkpt lat="36.26428" lon="29.62721">
        <ele>965.8</ele>
      </trkpt>
      <trkpt lat="36.26407" lon="29.62723">
        <ele>967.1</ele>
      </trkpt>
      <trkpt lat="36.26397" lon="29.62729">
        <ele>966.5</ele>
      </trkpt>
      <trkpt lat="36.2638" lon="29.62734">
        <ele>966.5</ele>
      </trkpt>
      <trkpt lat="36.26367" lon="29.62732">
        <ele>967.5</ele>
      </trkpt>
      <trkpt lat="36.26353" lon="29.62727">
        <ele>969.3</ele>
      </trkpt>
      <trkpt lat="36.26341" lon="29.62725">
        <ele>970.3</ele>
      </trkpt>
      <trkpt lat="36.26331" lon="29.62726">
        <ele>970.6</ele>
      </trkpt>
      <trkpt lat="36.26306" lon="29.62727">
        <ele>969.9</ele>
      </trkpt>
      <trkpt lat="36.26286" lon="29.62717">
        <ele>971.6</ele>
      </trkpt>
      <trkpt lat="36.26262" lon="29.62705">
        <ele>973.8</ele>
      </trkpt>
      <trkpt lat="36.26246" lon="29.62683">
        <ele>978.2</ele>
      </trkpt>
      <trkpt lat="36.26233" lon="29.62679">
        <ele>978.3</ele>
      </trkpt>
      <trkpt lat="36.26223" lon="29.62667">
        <ele>980.3</ele>
      </trkpt>
      <trkpt lat="36.26217" lon="29.62646">
        <ele>983.6</ele>
      </trkpt>
      <trkpt lat="36.26214" lon="29.62624">
        <ele>987.2</ele>
      </trkpt>
      <trkpt lat="36.26205" lon="29.62618">
        <ele>987.9</ele>
      </trkpt>
      <trkpt lat="36.26184" lon="29.62588">
        <ele>992.1</ele>
      </trkpt>
      <trkpt lat="36.26159" lon="29.62584">
        <ele>992.2</ele>
      </trkpt>
      <trkpt lat="36.26132" lon="29.626">
        <ele>990.5</ele>
      </trkpt>
      <trkpt lat="36.26123" lon="29.62623">
        <ele>986.6</ele>
      </trkpt>
      <trkpt lat="36.26108" lon="29.62633">
        <ele>985.5</ele>
      </trkpt>
      <trkpt lat="36.26091" lon="29.62635">
        <ele>985.7</ele>
      </trkpt>
      <trkpt lat="36.26078" lon="29.62624">
        <ele>988.2</ele>
      </trkpt>
      <trkpt lat="36.26063" lon="29.62609">
        <ele>991.2</ele>
      </trkpt>
      <trkpt lat="36.26058" lon="29.626">
        <ele>992.9</ele>
      </trkpt>
      <trkpt lat="36.2606" lon="29.6258">
        <ele>996.5</ele>
      </trkpt>
      <trkpt lat="36.26045" lon="29.62562">
        <ele>999.3</ele>
      </trkpt>
      <trkpt lat="36.2604" lon="29.6255">
        <ele>1001</ele>
      </trkpt>
      <trkpt lat="36.26023" lon="29.6254">
        <ele>1002.4</ele>
      </trkpt>
      <trkpt lat="36.25998" lon="29.62518">
        <ele>1005.1</ele>
      </trkpt>
      <trkpt lat="36.25995" lon="29.62481">
        <ele>1010.4</ele>
      </trkpt>
      <trkpt lat="36.25963" lon="29.62463">
        <ele>1009.8</ele>
      </trkpt>
      <trkpt lat="36.25946" lon="29.62444">
        <ele>1011.6</ele>
      </trkpt>
      <trkpt lat="36.25914" lon="29.62425">
        <ele>1012</ele>
      </trkpt>
      <trkpt lat="36.25899" lon="29.62403">
        <ele>1014.3</ele>
      </trkpt>
      <trkpt lat="36.25886" lon="29.62382">
        <ele>1017.3</ele>
      </trkpt>
      <trkpt lat="36.25863" lon="29.62349">
        <ele>1021.7</ele>
      </trkpt>
      <trkpt lat="36.25827" lon="29.62343">
        <ele>1018.2</ele>
      </trkpt>
      <trkpt lat="36.25789" lon="29.62324">
        <ele>1019.3</ele>
      </trkpt>
      <trkpt lat="36.25762" lon="29.62314">
        <ele>1018.8</ele>
      </trkpt>
      <trkpt lat="36.25727" lon="29.62272">
        <ele>1024.4</ele>
      </trkpt>
      <trkpt lat="36.25703" lon="29.62257">
        <ele>1024.9</ele>
      </trkpt>
      <trkpt lat="36.25661" lon="29.62249">
        <ele>1021.6</ele>
      </trkpt>
      <trkpt lat="36.2565" lon="29.6224">
        <ele>1021.4</ele>
      </trkpt>
      <trkpt lat="36.256" lon="29.62224">
        <ele>1017.7</ele>
      </trkpt>
      <trkpt lat="36.25573" lon="29.62205">
        <ele>1017.8</ele>
      </trkpt>
      <trkpt lat="36.2556" lon="29.62195">
        <ele>1018.6</ele>
      </trkpt>
      <trkpt lat="36.25536" lon="29.62193">
        <ele>1018.3</ele>
      </trkpt>
      <trkpt lat="36.25522" lon="29.62182">
        <ele>1018.8</ele>
      </trkpt>
      <trkpt lat="36.25517" lon="29.62155">
        <ele>1018.7</ele>
      </trkpt>
      <trkpt lat="36.25534" lon="29.62135">
        <ele>1018.2</ele>
      </trkpt>
      <trkpt lat="36.2555" lon="29.62124">
        <ele>1018.5</ele>
      </trkpt>
      <trkpt lat="36.25573" lon="29.62121">
        <ele>1019.7</ele>
      </trkpt>
      <trkpt lat="36.25594" lon="29.62086">
        <ele>1021.5</ele>
      </trkpt>
      <trkpt lat="36.25595" lon="29.62059">
        <ele>1022.1</ele>
      </trkpt>
      <trkpt lat="36.2558" lon="29.62042">
        <ele>1019.3</ele>
      </trkpt>
      <trkpt lat="36.25549" lon="29.62051">
        <ele>1017.3</ele>
      </trkpt>
      <trkpt lat="36.25515" lon="29.62061">
        <ele>1014.7</ele>
      </trkpt>
      <trkpt lat="36.25499" lon="29.62065">
        <ele>1013.3</ele>
      </trkpt>
      <trkpt lat="36.25476" lon="29.62066">
        <ele>1013.1</ele>
      </trkpt>
      <trkpt lat="36.25452" lon="29.62059">
        <ele>1013.8</ele>
      </trkpt>
      <trkpt lat="36.25436" lon="29.62061">
        <ele>1013.5</ele>
      </trkpt>
      <trkpt lat="36.25426" lon="29.62072">
        <ele>1011.9</ele>
      </trkpt>
      <trkpt lat="36.25417" lon="29.62086">
        <ele>1010.2</ele>
      </trkpt>
      <trkpt lat="36.25397" lon="29.62098">
        <ele>1011.8</ele>
      </trkpt>
      <trkpt lat="36.25372" lon="29.62107">
        <ele>1012.6</ele>
      </trkpt>
      <trkpt lat="36.25358" lon="29.6211">
        <ele>1012.8</ele>
      </trkpt>
      <trkpt lat="36.25341" lon="29.62127">
        <ele>1011.5</ele>
      </trkpt>
      <trkpt lat="36.25328" lon="29.62151">
        <ele>1010.2</ele>
      </trkpt>
      <trkpt lat="36.25314" lon="29.62174">
        <ele>1010.7</ele>
      </trkpt>
      <trkpt lat="36.25297" lon="29.62186">
        <ele>1012.8</ele>
      </trkpt>
      <trkpt lat="36.25285" lon="29.6221">
        <ele>1011</ele>
      </trkpt>
      <trkpt lat="36.25266" lon="29.62235">
        <ele>1008.7</ele>
      </trkpt>
      <trkpt lat="36.25239" lon="29.62266">
        <ele>1006.9</ele>
      </trkpt>
      <trkpt lat="36.25227" lon="29.62286">
        <ele>1006.5</ele>
      </trkpt>
      <trkpt lat="36.25223" lon="29.62313">
        <ele>1001.9</ele>
      </trkpt>
      <trkpt lat="36.25212" lon="29.62358">
        <ele>995.8</ele>
      </trkpt>
      <trkpt lat="36.25182" lon="29.6239">
        <ele>997.2</ele>
      </trkpt>
      <trkpt lat="36.25156" lon="29.62409">
        <ele>998.4</ele>
      </trkpt>
      <trkpt lat="36.25131" lon="29.6242">
        <ele>1000.1</ele>
      </trkpt>
      <trkpt lat="36.25111" lon="29.62444">
        <ele>1000.9</ele>
      </trkpt>
      <trkpt lat="36.25111" lon="29.62489">
        <ele>994.8</ele>
      </trkpt>
      <trkpt lat="36.25097" lon="29.62532">
        <ele>994.2</ele>
      </trkpt>
      <trkpt lat="36.25076" lon="29.62572">
        <ele>994.8</ele>
      </trkpt>
      <trkpt lat="36.25061" lon="29.626">
        <ele>995.1</ele>
      </trkpt>
      <trkpt lat="36.25053" lon="29.62628">
        <ele>993.6</ele>
      </trkpt>
      <trkpt lat="36.2504" lon="29.62647">
        <ele>994.1</ele>
      </trkpt>
      <trkpt lat="36.25016" lon="29.62678">
        <ele>996.2</ele>
      </trkpt>
      <trkpt lat="36.24999" lon="29.62716">
        <ele>998.4</ele>
      </trkpt>
      <trkpt lat="36.24995" lon="29.62752">
        <ele>997.9</ele>
      </trkpt>
      <trkpt lat="36.24989" lon="29.62775">
        <ele>997.3</ele>
      </trkpt>
      <trkpt lat="36.24982" lon="29.62787">
        <ele>997.9</ele>
      </trkpt>
      <trkpt lat="36.24972" lon="29.62804">
        <ele>999</ele>
      </trkpt>
      <trkpt lat="36.24957" lon="29.62834">
        <ele>1000.3</ele>
      </trkpt>
      <trkpt lat="36.24943" lon="29.62871">
        <ele>1000.5</ele>
      </trkpt>
      <trkpt lat="36.24953" lon="29.62891">
        <ele>995.7</ele>
      </trkpt>
      <trkpt lat="36.24959" lon="29.62908">
        <ele>992.1</ele>
      </trkpt>
      <trkpt lat="36.24961" lon="29.62924">
        <ele>989</ele>
      </trkpt>
      <trkpt lat="36.24958" lon="29.62945">
        <ele>985.2</ele>
      </trkpt>
      <trkpt lat="36.24952" lon="29.62961">
        <ele>983.7</ele>
      </trkpt>
      <trkpt lat="36.24935" lon="29.63002">
        <ele>982.3</ele>
      </trkpt>
      <trkpt lat="36.24913" lon="29.63055">
        <ele>976.3</ele>
      </trkpt>
      <trkpt lat="36.24889" lon="29.63102">
        <ele>975.3</ele>
      </trkpt>
      <trkpt lat="36.24874" lon="29.63142">
        <ele>974.1</ele>
      </trkpt>
      <trkpt lat="36.24864" lon="29.63193">
        <ele>968.7</ele>
      </trkpt>
      <trkpt lat="36.24853" lon="29.63233">
        <ele>967.2</ele>
      </trkpt>
      <trkpt lat="36.24857" lon="29.63248">
        <ele>961.1</ele>
      </trkpt>
      <trkpt lat="36.24859" lon="29.63266">
        <ele>955.8</ele>
      </trkpt>
      <trkpt lat="36.24855" lon="29.63283">
        <ele>954.6</ele>
      </trkpt>
      <trkpt lat="36.24844" lon="29.63306">
        <ele>957.2</ele>
      </trkpt>
      <trkpt lat="36.24839" lon="29.63326">
        <ele>955.6</ele>
      </trkpt>
      <trkpt lat="36.2484" lon="29.63348">
        <ele>951.6</ele>
      </trkpt>
      <trkpt lat="36.24847" lon="29.63377">
        <ele>943.3</ele>
      </trkpt>
      <trkpt lat="36.24848" lon="29.63406">
        <ele>938.7</ele>
      </trkpt>
      <trkpt lat="36.2486" lon="29.63418">
        <ele>929.6</ele>
      </trkpt>
      <trkpt lat="36.24872" lon="29.63435">
        <ele>923.7</ele>
      </trkpt>
      <trkpt lat="36.24888" lon="29.63467">
        <ele>917.3</ele>
      </trkpt>
      <trkpt lat="36.24902" lon="29.63527">
        <ele>917.3</ele>
      </trkpt>
      <trkpt lat="36.24907" lon="29.63567">
        <ele>920.9</ele>
      </trkpt>
      <trkpt lat="36.24904" lon="29.63584">
        <ele>924.9</ele>
      </trkpt>
      <trkpt lat="36.24888" lon="29.63613">
        <ele>931.5</ele>
      </trkpt>
      <trkpt lat="36.24884" lon="29.63649">
        <ele>933.6</ele>
      </trkpt>
      <trkpt lat="36.24892" lon="29.63698">
        <ele>928.4</ele>
      </trkpt>
      <trkpt lat="36.24896" lon="29.63738">
        <ele>921.6</ele>
      </trkpt>
      <trkpt lat="36.24887" lon="29.63792">
        <ele>917.8</ele>
      </trkpt>
      <trkpt lat="36.24871" lon="29.63828">
        <ele>919.1</ele>
      </trkpt>
      <trkpt lat="36.24854" lon="29.63854">
        <ele>919.5</ele>
      </trkpt>
      <trkpt lat="36.24819" lon="29.63893">
        <ele>918.4</ele>
      </trkpt>
      <trkpt lat="36.24774" lon="29.63972">
        <ele>909.1</ele>
      </trkpt>
      <trkpt lat="36.24749" lon="29.64015">
        <ele>904.2</ele>
      </trkpt>
      <trkpt lat="36.24733" lon="29.64049">
        <ele>903.7</ele>
      </trkpt>
      <trkpt lat="36.24731" lon="29.64062">
        <ele>902.3</ele>
      </trkpt>
      <trkpt lat="36.24733" lon="29.64074">
        <ele>900.3</ele>
      </trkpt>
      <trkpt lat="36.24737" lon="29.64081">
        <ele>898.3</ele>
      </trkpt>
      <trkpt lat="36.24745" lon="29.64088">
        <ele>896.1</ele>
      </trkpt>
      <trkpt lat="36.24752" lon="29.64087">
        <ele>894.9</ele>
      </trkpt>
      <trkpt lat="36.24752" lon="29.64101">
        <ele>894.8</ele>
      </trkpt>
      <trkpt lat="36.2474" lon="29.64125">
        <ele>896.7</ele>
      </trkpt>
      <trkpt lat="36.24725" lon="29.64149">
        <ele>898.3</ele>
      </trkpt>
      <trkpt lat="36.24706" lon="29.64169">
        <ele>899.6</ele>
      </trkpt>
      <trkpt lat="36.24656" lon="29.64239">
        <ele>902.1</ele>
      </trkpt>
      <trkpt lat="36.24643" lon="29.64254">
        <ele>903.6</ele>
      </trkpt>
      <trkpt lat="36.24634" lon="29.64265">
        <ele>904.6</ele>
      </trkpt>
      <trkpt lat="36.2461" lon="29.64287">
        <ele>907</ele>
      </trkpt>
      <trkpt lat="36.2458" lon="29.64322">
        <ele>908.8</ele>
      </trkpt>
      <trkpt lat="36.24572" lon="29.64363">
        <ele>905.9</ele>
      </trkpt>
      <trkpt lat="36.24575" lon="29.64385">
        <ele>901.5</ele>
      </trkpt>
      <trkpt lat="36.24575" lon="29.64406">
        <ele>898.4</ele>
      </trkpt>
      <trkpt lat="36.24568" lon="29.64425">
        <ele>897.7</ele>
      </trkpt>
      <trkpt lat="36.24554" lon="29.64446">
        <ele>898.5</ele>
      </trkpt>
      <trkpt lat="36.24544" lon="29.64475">
        <ele>897.1</ele>
      </trkpt>
      <trkpt lat="36.24527" lon="29.64546">
        <ele>892.1</ele>
      </trkpt>
      <trkpt lat="36.24519" lon="29.64583">
        <ele>889.1</ele>
      </trkpt>
      <trkpt lat="36.24491" lon="29.64612">
        <ele>893</ele>
      </trkpt>
      <trkpt lat="36.24488" lon="29.64645">
        <ele>887.9</ele>
      </trkpt>
      <trkpt lat="36.24467" lon="29.64658">
        <ele>891.5</ele>
      </trkpt>
      <trkpt lat="36.24454" lon="29.64682">
        <ele>887.5</ele>
      </trkpt>
      <trkpt lat="36.24432" lon="29.64698">
        <ele>888</ele>
      </trkpt>
      <trkpt lat="36.24422" lon="29.64702">
        <ele>889.9</ele>
      </trkpt>
      <trkpt lat="36.24417" lon="29.64715">
        <ele>887.3</ele>
      </trkpt>
      <trkpt lat="36.24416" lon="29.64728">
        <ele>883.5</ele>
      </trkpt>
      <trkpt lat="36.24424" lon="29.64717">
        <ele>884</ele>
      </trkpt>
      <trkpt lat="36.24431" lon="29.64719">
        <ele>881.2</ele>
      </trkpt>
      <trkpt lat="36.24432" lon="29.64728">
        <ele>877.7</ele>
      </trkpt>
      <trkpt lat="36.24442" lon="29.64723">
        <ele>876.3</ele>
      </trkpt>
      <trkpt lat="36.24454" lon="29.64717">
        <ele>874.2</ele>
      </trkpt>
      <trkpt lat="36.2446" lon="29.64717">
        <ele>872.2</ele>
      </trkpt>
      <trkpt lat="36.24463" lon="29.64726">
        <ele>867.4</ele>
      </trkpt>
      <trkpt lat="36.24459" lon="29.64759">
        <ele>857.4</ele>
      </trkpt>
      <trkpt lat="36.24451" lon="29.64792">
        <ele>852.7</ele>
      </trkpt>
      <trkpt lat="36.24431" lon="29.64838">
        <ele>850.8</ele>
      </trkpt>
      <trkpt lat="36.24414" lon="29.64884">
        <ele>848.3</ele>
      </trkpt>
      <trkpt lat="36.24411" lon="29.6492">
        <ele>841.8</ele>
      </trkpt>
      <trkpt lat="36.24405" lon="29.64938">
        <ele>839.6</ele>
      </trkpt>
      <trkpt lat="36.2439" lon="29.64949">
        <ele>841.5</ele>
      </trkpt>
      <trkpt lat="36.24386" lon="29.6499">
        <ele>834.9</ele>
      </trkpt>
      <trkpt lat="36.24372" lon="29.65032">
        <ele>831.7</ele>
      </trkpt>
      <trkpt lat="36.24359" lon="29.6512">
        <ele>821.9</ele>
      </trkpt>
      <trkpt lat="36.24346" lon="29.65174">
        <ele>817.8</ele>
      </trkpt>
      <trkpt lat="36.24319" lon="29.65266">
        <ele>815</ele>
      </trkpt>
      <trkpt lat="36.2432" lon="29.65338">
        <ele>811.7</ele>
      </trkpt>
      <trkpt lat="36.2431" lon="29.65378">
        <ele>811</ele>
      </trkpt>
      <trkpt lat="36.24288" lon="29.65427">
        <ele>812.1</ele>
      </trkpt>
      <trkpt lat="36.24261" lon="29.65459">
        <ele>816.3</ele>
      </trkpt>
      <trkpt lat="36.24255" lon="29.65494">
        <ele>815.8</ele>
      </trkpt>
      <trkpt lat="36.24257" lon="29.65562">
        <ele>817.6</ele>
      </trkpt>
      <trkpt lat="36.24262" lon="29.65598">
        <ele>815.2</ele>
      </trkpt>
      <trkpt lat="36.24257" lon="29.65624">
        <ele>815.4</ele>
      </trkpt>
      <trkpt lat="36.24221" lon="29.65668">
        <ele>813.5</ele>
      </trkpt>
      <trkpt lat="36.2421" lon="29.65688">
        <ele>812.2</ele>
      </trkpt>
      <trkpt lat="36.24211" lon="29.65707">
        <ele>811.8</ele>
      </trkpt>
      <trkpt lat="36.24218" lon="29.65732">
        <ele>811</ele>
      </trkpt>
      <trkpt lat="36.24217" lon="29.65757">
        <ele>811.3</ele>
      </trkpt>
      <trkpt lat="36.24221" lon="29.65783">
        <ele>814.1</ele>
      </trkpt>
      <trkpt lat="36.24227" lon="29.65802">
        <ele>815.8</ele>
      </trkpt>
      <trkpt lat="36.24226" lon="29.65828">
        <ele>818.9</ele>
      </trkpt>
      <trkpt lat="36.24226" lon="29.65854">
        <ele>822.1</ele>
      </trkpt>
      <trkpt lat="36.24218" lon="29.6585">
        <ele>822.5</ele>
      </trkpt>
      <trkpt lat="36.24214" lon="29.6588">
        <ele>826.4</ele>
      </trkpt>
      <trkpt lat="36.24202" lon="29.65879">
        <ele>827.2</ele>
      </trkpt>
      <trkpt lat="36.242" lon="29.65898">
        <ele>829.5</ele>
      </trkpt>
      <trkpt lat="36.24205" lon="29.65922">
        <ele>832.1</ele>
      </trkpt>
      <trkpt lat="36.24195" lon="29.65948">
        <ele>837.1</ele>
      </trkpt>
      <trkpt lat="36.24198" lon="29.65965">
        <ele>839.9</ele>
      </trkpt>
      <trkpt lat="36.24215" lon="29.65982">
        <ele>842.8</ele>
      </trkpt>
      <trkpt lat="36.24222" lon="29.66013">
        <ele>848</ele>
      </trkpt>
      <trkpt lat="36.24221" lon="29.66033">
        <ele>850.4</ele>
      </trkpt>
      <trkpt lat="36.24234" lon="29.66057">
        <ele>854.1</ele>
      </trkpt>
      <trkpt lat="36.24244" lon="29.66087">
        <ele>858.7</ele>
      </trkpt>
      <trkpt lat="36.24243" lon="29.66116">
        <ele>860.6</ele>
      </trkpt>
      <trkpt lat="36.24236" lon="29.66141">
        <ele>861.3</ele>
      </trkpt>
      <trkpt lat="36.2425" lon="29.66168">
        <ele>864.7</ele>
      </trkpt>
      <trkpt lat="36.24255" lon="29.66192">
        <ele>860.7</ele>
      </trkpt>
      <trkpt lat="36.24282" lon="29.66222">
        <ele>846.1</ele>
      </trkpt>
      <trkpt lat="36.24284" lon="29.66245">
        <ele>845</ele>
      </trkpt>
      <trkpt lat="36.24276" lon="29.66259">
        <ele>847.6</ele>
      </trkpt>
      <trkpt lat="36.24264" lon="29.6625">
        <ele>853</ele>
      </trkpt>
      <trkpt lat="36.24256" lon="29.66239">
        <ele>857.1</ele>
      </trkpt>
      <trkpt lat="36.24246" lon="29.66243">
        <ele>858.7</ele>
      </trkpt>
      <trkpt lat="36.24233" lon="29.66245">
        <ele>855.8</ele>
      </trkpt>
      <trkpt lat="36.24238" lon="29.6627">
        <ele>853.5</ele>
      </trkpt>
      <trkpt lat="36.2425" lon="29.66299">
        <ele>852.5</ele>
      </trkpt>
      <trkpt lat="36.24254" lon="29.66324">
        <ele>848.4</ele>
      </trkpt>
      <trkpt lat="36.24263" lon="29.66353">
        <ele>842.3</ele>
      </trkpt>
      <trkpt lat="36.24262" lon="29.66378">
        <ele>838.2</ele>
      </trkpt>
      <trkpt lat="36.24266" lon="29.66419">
        <ele>831.8</ele>
      </trkpt>
      <trkpt lat="36.24283" lon="29.66454">
        <ele>826.7</ele>
      </trkpt>
      <trkpt lat="36.24294" lon="29.66468">
        <ele>826.7</ele>
      </trkpt>
      <trkpt lat="36.24303" lon="29.66471">
        <ele>828.7</ele>
      </trkpt>
      <trkpt lat="36.2431" lon="29.66473">
        <ele>830.2</ele>
      </trkpt>
      <trkpt lat="36.24313" lon="29.66479">
        <ele>830.3</ele>
      </trkpt>
      <trkpt lat="36.24323" lon="29.66479">
        <ele>833.1</ele>
      </trkpt>
      <trkpt lat="36.24325" lon="29.66485">
        <ele>833</ele>
      </trkpt>
      <trkpt lat="36.24316" lon="29.66488">
        <ele>829.8</ele>
      </trkpt>
      <trkpt lat="36.24314" lon="29.665">
        <ele>827.1</ele>
      </trkpt>
      <trkpt lat="36.24317" lon="29.66522">
        <ele>822</ele>
      </trkpt>
      <trkpt lat="36.24315" lon="29.66533">
        <ele>817.8</ele>
      </trkpt>
      <trkpt lat="36.24317" lon="29.66542">
        <ele>816.2</ele>
      </trkpt>
      <trkpt lat="36.24323" lon="29.66554">
        <ele>814.8</ele>
      </trkpt>
      <trkpt lat="36.24328" lon="29.66565">
        <ele>813.2</ele>
      </trkpt>
      <trkpt lat="36.24327" lon="29.66576">
        <ele>809.7</ele>
      </trkpt>
      <trkpt lat="36.2434" lon="29.66593">
        <ele>810.1</ele>
      </trkpt>
      <trkpt lat="36.2436" lon="29.66623">
        <ele>809.7</ele>
      </trkpt>
      <trkpt lat="36.24371" lon="29.66632">
        <ele>811.7</ele>
      </trkpt>
      <trkpt lat="36.24374" lon="29.6664">
        <ele>811.3</ele>
      </trkpt>
      <trkpt lat="36.24377" lon="29.66667">
        <ele>806.1</ele>
      </trkpt>
      <trkpt lat="36.24377" lon="29.66687">
        <ele>800.5</ele>
      </trkpt>
      <trkpt lat="36.24385" lon="29.66711">
        <ele>797.2</ele>
      </trkpt>
      <trkpt lat="36.24388" lon="29.66729">
        <ele>793.5</ele>
      </trkpt>
      <trkpt lat="36.24391" lon="29.66747">
        <ele>789.8</ele>
      </trkpt>
      <trkpt lat="36.24384" lon="29.66766">
        <ele>782.1</ele>
      </trkpt>
      <trkpt lat="36.24384" lon="29.66785">
        <ele>777.7</ele>
      </trkpt>
      <trkpt lat="36.24379" lon="29.66798">
        <ele>773</ele>
      </trkpt>
      <trkpt lat="36.24391" lon="29.66831">
        <ele>769.5</ele>
      </trkpt>
      <trkpt lat="36.24391" lon="29.66842">
        <ele>767.4</ele>
      </trkpt>
      <trkpt lat="36.24387" lon="29.66863">
        <ele>761.9</ele>
      </trkpt>
      <trkpt lat="36.24391" lon="29.66874">
        <ele>761.3</ele>
      </trkpt>
      <trkpt lat="36.24392" lon="29.66885">
        <ele>759.5</ele>
      </trkpt>
      <trkpt lat="36.24397" lon="29.66894">
        <ele>759.3</ele>
      </trkpt>
      <trkpt lat="36.24397" lon="29.66905">
        <ele>757.1</ele>
      </trkpt>
      <trkpt lat="36.24404" lon="29.6693">
        <ele>754.7</ele>
      </trkpt>
      <trkpt lat="36.24405" lon="29.66966">
        <ele>748.6</ele>
      </trkpt>
      <trkpt lat="36.24409" lon="29.66988">
        <ele>745.9</ele>
      </trkpt>
      <trkpt lat="36.24415" lon="29.67">
        <ele>745.5</ele>
      </trkpt>
      <trkpt lat="36.24417" lon="29.67016">
        <ele>742.8</ele>
      </trkpt>
      <trkpt lat="36.24436" lon="29.67062">
        <ele>741.6</ele>
      </trkpt>
      <trkpt lat="36.24446" lon="29.67084">
        <ele>741.9</ele>
      </trkpt>
      <trkpt lat="36.24451" lon="29.67103">
        <ele>742.4</ele>
      </trkpt>
      <trkpt lat="36.24452" lon="29.6712">
        <ele>740.8</ele>
      </trkpt>
      <trkpt lat="36.24456" lon="29.67141">
        <ele>740.3</ele>
      </trkpt>
      <trkpt lat="36.24456" lon="29.67159">
        <ele>738.5</ele>
      </trkpt>
      <trkpt lat="36.24462" lon="29.6717">
        <ele>739.5</ele>
      </trkpt>
      <trkpt lat="36.24465" lon="29.67189">
        <ele>739.7</ele>
      </trkpt>
      <trkpt lat="36.24467" lon="29.67209">
        <ele>739</ele>
      </trkpt>
      <trkpt lat="36.24469" lon="29.67223">
        <ele>738.7</ele>
      </trkpt>
      <trkpt lat="36.24468" lon="29.67234">
        <ele>737.8</ele>
      </trkpt>
      <trkpt lat="36.24466" lon="29.67243">
        <ele>736.5</ele>
      </trkpt>
      <trkpt lat="36.24459" lon="29.67249">
        <ele>734.3</ele>
      </trkpt>
      <trkpt lat="36.24454" lon="29.67253">
        <ele>732.8</ele>
      </trkpt>
      <trkpt lat="36.24449" lon="29.67249">
        <ele>731.6</ele>
      </trkpt>
      <trkpt lat="36.24444" lon="29.67242">
        <ele>730.4</ele>
      </trkpt>
      <trkpt lat="36.24436" lon="29.67237">
        <ele>728.4</ele>
      </trkpt>
      <trkpt lat="36.24428" lon="29.67238">
        <ele>726.1</ele>
      </trkpt>
      <trkpt lat="36.24416" lon="29.67238">
        <ele>722.6</ele>
      </trkpt>
      <trkpt lat="36.24404" lon="29.67241">
        <ele>719.5</ele>
      </trkpt>
      <trkpt lat="36.24395" lon="29.67239">
        <ele>717.2</ele>
      </trkpt>
      <trkpt lat="36.24384" lon="29.67224">
        <ele>714.5</ele>
      </trkpt>
      <trkpt lat="36.24379" lon="29.67211">
        <ele>713.1</ele>
      </trkpt>
      <trkpt lat="36.24377" lon="29.67203">
        <ele>712.7</ele>
      </trkpt>
      <trkpt lat="36.24371" lon="29.67191">
        <ele>711.4</ele>
      </trkpt>
      <trkpt lat="36.24367" lon="29.67187">
        <ele>710.5</ele>
      </trkpt>
      <trkpt lat="36.24365" lon="29.67192">
        <ele>709.8</ele>
      </trkpt>
      <trkpt lat="36.24359" lon="29.67208">
        <ele>708.4</ele>
      </trkpt>
      <trkpt lat="36.24354" lon="29.67227">
        <ele>706.8</ele>
      </trkpt>
      <trkpt lat="36.24347" lon="29.67234">
        <ele>705</ele>
      </trkpt>
      <trkpt lat="36.24341" lon="29.67236">
        <ele>703.2</ele>
      </trkpt>
      <trkpt lat="36.24335" lon="29.67229">
        <ele>702</ele>
      </trkpt>
      <trkpt lat="36.24327" lon="29.67216">
        <ele>699.6</ele>
      </trkpt>
      <trkpt lat="36.24321" lon="29.67199">
        <ele>698.2</ele>
      </trkpt>
      <trkpt lat="36.24315" lon="29.67194">
        <ele>696.2</ele>
      </trkpt>
      <trkpt lat="36.2431" lon="29.6718">
        <ele>695.3</ele>
      </trkpt>
      <trkpt lat="36.24305" lon="29.6718">
        <ele>693.6</ele>
      </trkpt>
      <trkpt lat="36.24298" lon="29.67187">
        <ele>691.2</ele>
      </trkpt>
      <trkpt lat="36.24288" lon="29.67206">
        <ele>687</ele>
      </trkpt>
      <trkpt lat="36.24282" lon="29.67221">
        <ele>684</ele>
      </trkpt>
      <trkpt lat="36.24275" lon="29.67236">
        <ele>680.7</ele>
      </trkpt>
      <trkpt lat="36.24268" lon="29.67252">
        <ele>677.3</ele>
      </trkpt>
      <trkpt lat="36.24267" lon="29.67261">
        <ele>676.4</ele>
      </trkpt>
      <trkpt lat="36.24264" lon="29.6726">
        <ele>675.4</ele>
      </trkpt>
      <trkpt lat="36.24262" lon="29.67251">
        <ele>675.2</ele>
      </trkpt>
      <trkpt lat="36.24259" lon="29.67255">
        <ele>673.8</ele>
      </trkpt>
      <trkpt lat="36.24256" lon="29.67267">
        <ele>671.8</ele>
      </trkpt>
      <trkpt lat="36.24243" lon="29.67312">
        <ele>663.7</ele>
      </trkpt>
      <trkpt lat="36.24239" lon="29.67329">
        <ele>660.6</ele>
      </trkpt>
      <trkpt lat="36.24224" lon="29.6731">
        <ele>655.8</ele>
      </trkpt>
      <trkpt lat="36.24221" lon="29.67301">
        <ele>655.1</ele>
      </trkpt>
      <trkpt lat="36.24217" lon="29.67304">
        <ele>653.3</ele>
      </trkpt>
      <trkpt lat="36.24216" lon="29.67318">
        <ele>651.8</ele>
      </trkpt>
      <trkpt lat="36.24212" lon="29.67317">
        <ele>649.9</ele>
      </trkpt>
      <trkpt lat="36.24205" lon="29.67302">
        <ele>648.6</ele>
      </trkpt>
      <trkpt lat="36.24196" lon="29.67282">
        <ele>646.6</ele>
      </trkpt>
      <trkpt lat="36.24192" lon="29.67281">
        <ele>645</ele>
      </trkpt>
      <trkpt lat="36.24189" lon="29.67295">
        <ele>642.4</ele>
      </trkpt>
      <trkpt lat="36.24189" lon="29.67317">
        <ele>640.1</ele>
      </trkpt>
      <trkpt lat="36.24186" lon="29.67335">
        <ele>637.1</ele>
      </trkpt>
      <trkpt lat="36.24182" lon="29.67341">
        <ele>634.6</ele>
      </trkpt>
      <trkpt lat="36.24176" lon="29.6734">
        <ele>632</ele>
      </trkpt>
      <trkpt lat="36.24168" lon="29.67333">
        <ele>629.8</ele>
      </trkpt>
      <trkpt lat="36.24158" lon="29.67312">
        <ele>628.1</ele>
      </trkpt>
      <trkpt lat="36.2415" lon="29.67292">
        <ele>627.3</ele>
      </trkpt>
      <trkpt lat="36.24137" lon="29.67282">
        <ele>623.6</ele>
      </trkpt>
      <trkpt lat="36.24121" lon="29.6725">
        <ele>620.8</ele>
      </trkpt>
      <trkpt lat="36.2411" lon="29.67227">
        <ele>618.2</ele>
      </trkpt>
      <trkpt lat="36.24103" lon="29.67185">
        <ele>618.1</ele>
      </trkpt>
      <trkpt lat="36.24098" lon="29.67149">
        <ele>618</ele>
      </trkpt>
      <trkpt lat="36.2409" lon="29.67106">
        <ele>615.9</ele>
      </trkpt>
      <trkpt lat="36.24079" lon="29.67084">
        <ele>611.9</ele>
      </trkpt>
      <trkpt lat="36.24063" lon="29.67067">
        <ele>606.7</ele>
      </trkpt>
      <trkpt lat="36.24052" lon="29.67061">
        <ele>602.6</ele>
      </trkpt>
      <trkpt lat="36.24049" lon="29.67046">
        <ele>602.4</ele>
      </trkpt>
      <trkpt lat="36.24047" lon="29.6703">
        <ele>603.5</ele>
      </trkpt>
      <trkpt lat="36.24041" lon="29.67012">
        <ele>602.5</ele>
      </trkpt>
      <trkpt lat="36.24034" lon="29.67005">
        <ele>600.5</ele>
      </trkpt>
      <trkpt lat="36.24029" lon="29.67006">
        <ele>598.4</ele>
      </trkpt>
      <trkpt lat="36.24022" lon="29.67017">
        <ele>594.6</ele>
      </trkpt>
      <trkpt lat="36.2401" lon="29.67046">
        <ele>586.7</ele>
      </trkpt>
      <trkpt lat="36.24009" lon="29.67061">
        <ele>584.5</ele>
      </trkpt>
      <trkpt lat="36.24014" lon="29.67079">
        <ele>584.6</ele>
      </trkpt>
      <trkpt lat="36.24016" lon="29.67102">
        <ele>583.7</ele>
      </trkpt>
      <trkpt lat="36.2401" lon="29.67114">
        <ele>580.6</ele>
      </trkpt>
      <trkpt lat="36.24006" lon="29.67104">
        <ele>579.4</ele>
      </trkpt>
      <trkpt lat="36.24002" lon="29.67085">
        <ele>578.6</ele>
      </trkpt>
      <trkpt lat="36.23996" lon="29.67069">
        <ele>578.6</ele>
      </trkpt>
      <trkpt lat="36.23988" lon="29.67056">
        <ele>578.3</ele>
      </trkpt>
      <trkpt lat="36.23978" lon="29.67041">
        <ele>577.7</ele>
      </trkpt>
      <trkpt lat="36.23964" lon="29.67025">
        <ele>576.6</ele>
      </trkpt>
      <trkpt lat="36.2395" lon="29.67003">
        <ele>576.3</ele>
      </trkpt>
      <trkpt lat="36.23931" lon="29.66968">
        <ele>575.7</ele>
      </trkpt>
      <trkpt lat="36.23918" lon="29.66947">
        <ele>574.9</ele>
      </trkpt>
      <trkpt lat="36.23909" lon="29.66936">
        <ele>575</ele>
      </trkpt>
      <trkpt lat="36.23902" lon="29.6693">
        <ele>574.8</ele>
      </trkpt>
      <trkpt lat="36.23886" lon="29.66926">
        <ele>573.4</ele>
      </trkpt>
      <trkpt lat="36.23869" lon="29.66924">
        <ele>571.6</ele>
      </trkpt>
      <trkpt lat="36.23844" lon="29.66925">
        <ele>568.6</ele>
      </trkpt>
      <trkpt lat="36.2383" lon="29.66925">
        <ele>566.9</ele>
      </trkpt>
      <trkpt lat="36.23815" lon="29.6692">
        <ele>565.1</ele>
      </trkpt>
      <trkpt lat="36.23808" lon="29.66917">
        <ele>564.3</ele>
      </trkpt>
      <trkpt lat="36.23792" lon="29.66919">
        <ele>561.9</ele>
      </trkpt>
      <trkpt lat="36.23771" lon="29.66912">
        <ele>559.3</ele>
      </trkpt>
      <trkpt lat="36.23754" lon="29.66904">
        <ele>557.7</ele>
      </trkpt>
      <trkpt lat="36.23732" lon="29.66879">
        <ele>555.1</ele>
      </trkpt>
      <trkpt lat="36.23712" lon="29.66865">
        <ele>551.5</ele>
      </trkpt>
      <trkpt lat="36.23705" lon="29.66863">
        <ele>549.9</ele>
      </trkpt>
      <trkpt lat="36.23687" lon="29.66861">
        <ele>545.9</ele>
      </trkpt>
      <trkpt lat="36.23674" lon="29.66853">
        <ele>543</ele>
      </trkpt>
      <trkpt lat="36.23656" lon="29.66844">
        <ele>539.1</ele>
      </trkpt>
      <trkpt lat="36.23609" lon="29.66818">
        <ele>528.1</ele>
      </trkpt>
      <trkpt lat="36.23589" lon="29.66805">
        <ele>522.2</ele>
      </trkpt>
      <trkpt lat="36.23581" lon="29.66804">
        <ele>520.1</ele>
      </trkpt>
      <trkpt lat="36.23574" lon="29.66807">
        <ele>518.9</ele>
      </trkpt>
      <trkpt lat="36.23562" lon="29.66818">
        <ele>517.5</ele>
      </trkpt>
      <trkpt lat="36.23548" lon="29.66821">
        <ele>515</ele>
      </trkpt>
      <trkpt lat="36.2353" lon="29.66826">
        <ele>512.4</ele>
      </trkpt>
      <trkpt lat="36.23512" lon="29.66836">
        <ele>510.2</ele>
      </trkpt>
      <trkpt lat="36.23486" lon="29.66847">
        <ele>505.1</ele>
      </trkpt>
      <trkpt lat="36.23471" lon="29.66851">
        <ele>501.3</ele>
      </trkpt>
      <trkpt lat="36.23469" lon="29.66839">
        <ele>500.3</ele>
      </trkpt>
      <trkpt lat="36.23471" lon="29.66827">
        <ele>499.6</ele>
      </trkpt>
      <trkpt lat="36.23478" lon="29.66803">
        <ele>498.6</ele>
      </trkpt>
      <trkpt lat="36.23477" lon="29.6678">
        <ele>495.6</ele>
      </trkpt>
      <trkpt lat="36.23472" lon="29.66779">
        <ele>494.2</ele>
      </trkpt>
      <trkpt lat="36.23472" lon="29.66763">
        <ele>492.3</ele>
      </trkpt>
      <trkpt lat="36.23474" lon="29.66737">
        <ele>490.1</ele>
      </trkpt>
      <trkpt lat="36.23472" lon="29.66712">
        <ele>487.4</ele>
      </trkpt>
      <trkpt lat="36.23483" lon="29.66697">
        <ele>488.4</ele>
      </trkpt>
      <trkpt lat="36.23491" lon="29.66689">
        <ele>489.5</ele>
      </trkpt>
      <trkpt lat="36.23501" lon="29.66675">
        <ele>490.3</ele>
      </trkpt>
      <trkpt lat="36.23509" lon="29.6666">
        <ele>491.3</ele>
      </trkpt>
      <trkpt lat="36.23515" lon="29.66638">
        <ele>492.1</ele>
      </trkpt>
      <trkpt lat="36.23523" lon="29.66607">
        <ele>493.2</ele>
      </trkpt>
      <trkpt lat="36.23529" lon="29.66576">
        <ele>494.1</ele>
      </trkpt>
      <trkpt lat="36.23534" lon="29.66515">
        <ele>490</ele>
      </trkpt>
      <trkpt lat="36.23543" lon="29.66475">
        <ele>488.8</ele>
      </trkpt>
      <trkpt lat="36.23559" lon="29.66424">
        <ele>487</ele>
      </trkpt>
      <trkpt lat="36.23581" lon="29.6637">
        <ele>488.1</ele>
      </trkpt>
      <trkpt lat="36.23593" lon="29.66318">
        <ele>488.9</ele>
      </trkpt>
      <trkpt lat="36.23599" lon="29.66278">
        <ele>490.9</ele>
      </trkpt>
      <trkpt lat="36.23598" lon="29.66253">
        <ele>490.6</ele>
      </trkpt>
      <trkpt lat="36.23589" lon="29.66218">
        <ele>489.7</ele>
      </trkpt>
      <trkpt lat="36.23579" lon="29.66173">
        <ele>489.6</ele>
      </trkpt>
      <trkpt lat="36.23562" lon="29.6612">
        <ele>489</ele>
      </trkpt>
      <trkpt lat="36.23556" lon="29.66119">
        <ele>487.8</ele>
      </trkpt>
      <trkpt lat="36.23551" lon="29.66113">
        <ele>487.2</ele>
      </trkpt>
      <trkpt lat="36.23539" lon="29.6611">
        <ele>485</ele>
      </trkpt>
      <trkpt lat="36.23504" lon="29.66049">
        <ele>482.7</ele>
      </trkpt>
      <trkpt lat="36.23477" lon="29.66056">
        <ele>478.5</ele>
      </trkpt>
      <trkpt lat="36.23466" lon="29.66067">
        <ele>476.3</ele>
      </trkpt>
      <trkpt lat="36.23448" lon="29.6609">
        <ele>472.6</ele>
      </trkpt>
      <trkpt lat="36.23425" lon="29.66099">
        <ele>468.5</ele>
      </trkpt>
      <trkpt lat="36.23405" lon="29.66095">
        <ele>466.2</ele>
      </trkpt>
      <trkpt lat="36.23388" lon="29.66082">
        <ele>464.9</ele>
      </trkpt>
      <trkpt lat="36.23377" lon="29.66062">
        <ele>463.9</ele>
      </trkpt>
      <trkpt lat="36.23369" lon="29.6603">
        <ele>463.7</ele>
      </trkpt>
      <trkpt lat="36.23362" lon="29.66026">
        <ele>462.8</ele>
      </trkpt>
      <trkpt lat="36.23353" lon="29.66028">
        <ele>461.3</ele>
      </trkpt>
      <trkpt lat="36.23334" lon="29.66042">
        <ele>458.1</ele>
      </trkpt>
      <trkpt lat="36.23316" lon="29.66046">
        <ele>456.4</ele>
      </trkpt>
      <trkpt lat="36.23295" lon="29.6605">
        <ele>454.5</ele>
      </trkpt>
      <trkpt lat="36.23266" lon="29.66046">
        <ele>452.2</ele>
      </trkpt>
      <trkpt lat="36.23248" lon="29.66046">
        <ele>450.7</ele>
      </trkpt>
      <trkpt lat="36.23223" lon="29.66052">
        <ele>449.3</ele>
      </trkpt>
      <trkpt lat="36.23185" lon="29.66048">
        <ele>447.7</ele>
      </trkpt>
      <trkpt lat="36.23162" lon="29.6606">
        <ele>446.4</ele>
      </trkpt>
      <trkpt lat="36.23146" lon="29.66081">
        <ele>445.5</ele>
      </trkpt>
      <trkpt lat="36.2313" lon="29.66096">
        <ele>445.2</ele>
      </trkpt>
      <trkpt lat="36.23113" lon="29.6613">
        <ele>445.1</ele>
      </trkpt>
      <trkpt lat="36.23092" lon="29.66143">
        <ele>444.8</ele>
      </trkpt>
      <trkpt lat="36.23071" lon="29.66155">
        <ele>444.6</ele>
      </trkpt>
      <trkpt lat="36.23053" lon="29.66164">
        <ele>444.3</ele>
      </trkpt>
      <trkpt lat="36.2304" lon="29.66162">
        <ele>443.9</ele>
      </trkpt>
      <trkpt lat="36.23013" lon="29.66138">
        <ele>443.3</ele>
      </trkpt>
      <trkpt lat="36.22994" lon="29.66123">
        <ele>443</ele>
      </trkpt>
      <trkpt lat="36.22985" lon="29.66125">
        <ele>443</ele>
      </trkpt>
      <trkpt lat="36.22977" lon="29.66128">
        <ele>443</ele>
      </trkpt>
      <trkpt lat="36.22966" lon="29.66125">
        <ele>443</ele>
      </trkpt>
      <trkpt lat="36.22934" lon="29.66104">
        <ele>443</ele>
      </trkpt>
      <trkpt lat="36.22922" lon="29.66101">
        <ele>443</ele>
      </trkpt>
      <trkpt lat="36.22872" lon="29.66058">
        <ele>444.9</ele>
      </trkpt>
      <trkpt lat="36.2286" lon="29.66052">
        <ele>445.3</ele>
      </trkpt>
      <trkpt lat="36.22814" lon="29.6602">
        <ele>445.6</ele>
      </trkpt>
      <trkpt lat="36.228" lon="29.66008">
        <ele>445.3</ele>
      </trkpt>
      <trkpt lat="36.22791" lon="29.65984">
        <ele>444.7</ele>
      </trkpt>
      <trkpt lat="36.22754" lon="29.65944">
        <ele>443.4</ele>
      </trkpt>
      <trkpt lat="36.22729" lon="29.65925">
        <ele>444.5</ele>
      </trkpt>
      <trkpt lat="36.22708" lon="29.65903">
        <ele>446</ele>
      </trkpt>
      <trkpt lat="36.22698" lon="29.65894">
        <ele>446.6</ele>
      </trkpt>
      <trkpt lat="36.22691" lon="29.65873">
        <ele>446.6</ele>
      </trkpt>
      <trkpt lat="36.22656" lon="29.65814">
        <ele>446</ele>
      </trkpt>
      <trkpt lat="36.22647" lon="29.65809">
        <ele>446.2</ele>
      </trkpt>
      <trkpt lat="36.22604" lon="29.65817">
        <ele>447.5</ele>
      </trkpt>
      <trkpt lat="36.22569" lon="29.65821">
        <ele>449.2</ele>
      </trkpt>
      <trkpt lat="36.22545" lon="29.65808">
        <ele>450.1</ele>
      </trkpt>
      <trkpt lat="36.2252" lon="29.65783">
        <ele>450.1</ele>
      </trkpt>
      <trkpt lat="36.22506" lon="29.65765">
        <ele>449.7</ele>
      </trkpt>
      <trkpt lat="36.22473" lon="29.65768">
        <ele>450.6</ele>
      </trkpt>
      <trkpt lat="36.22437" lon="29.65771">
        <ele>451.1</ele>
      </trkpt>
      <trkpt lat="36.2241" lon="29.65769">
        <ele>451.4</ele>
      </trkpt>
      <trkpt lat="36.22391" lon="29.6576">
        <ele>451.7</ele>
      </trkpt>
      <trkpt lat="36.22366" lon="29.65717">
        <ele>456.5</ele>
      </trkpt>
      <trkpt lat="36.22342" lon="29.65692">
        <ele>460.2</ele>
      </trkpt>
      <trkpt lat="36.22309" lon="29.65704">
        <ele>461.8</ele>
      </trkpt>
      <trkpt lat="36.22275" lon="29.65738">
        <ele>464</ele>
      </trkpt>
      <trkpt lat="36.22257" lon="29.65761">
        <ele>466.9</ele>
      </trkpt>
      <trkpt lat="36.22232" lon="29.65759">
        <ele>469.7</ele>
      </trkpt>
      <trkpt lat="36.22172" lon="29.65706">
        <ele>474.2</ele>
      </trkpt>
      <trkpt lat="36.22113" lon="29.65666">
        <ele>476.3</ele>
      </trkpt>
      <trkpt lat="36.22057" lon="29.65627">
        <ele>477.8</ele>
      </trkpt>
      <trkpt lat="36.22007" lon="29.65582">
        <ele>478.1</ele>
      </trkpt>
      <trkpt lat="36.21907" lon="29.65505">
        <ele>479</ele>
      </trkpt>
      <trkpt lat="36.21857" lon="29.65458">
        <ele>479.1</ele>
      </trkpt>
      <trkpt lat="36.21809" lon="29.65414">
        <ele>476.3</ele>
      </trkpt>
      <trkpt lat="36.21785" lon="29.65338">
        <ele>475.8</ele>
      </trkpt>
      <trkpt lat="36.21755" lon="29.65284">
        <ele>472.3</ele>
      </trkpt>
      <trkpt lat="36.21703" lon="29.65192">
        <ele>468</ele>
      </trkpt>
      <trkpt lat="36.21613" lon="29.65034">
        <ele>466.9</ele>
      </trkpt>
      <trkpt lat="36.2156" lon="29.64998">
        <ele>466.4</ele>
      </trkpt>
      <trkpt lat="36.21543" lon="29.64996">
        <ele>466</ele>
      </trkpt>
      <trkpt lat="36.21525" lon="29.64983">
        <ele>465.4</ele>
      </trkpt>
      <trkpt lat="36.21516" lon="29.64967">
        <ele>465</ele>
      </trkpt>
      <trkpt lat="36.21466" lon="29.64904">
        <ele>464.2</ele>
      </trkpt>
      <trkpt lat="36.21428" lon="29.64857">
        <ele>464.7</ele>
      </trkpt>
      <trkpt lat="36.2139" lon="29.64827">
        <ele>464.6</ele>
      </trkpt>
      <trkpt lat="36.21378" lon="29.64813">
        <ele>464.3</ele>
      </trkpt>
      <trkpt lat="36.21368" lon="29.64788">
        <ele>463.8</ele>
      </trkpt>
      <trkpt lat="36.2136" lon="29.64752">
        <ele>463</ele>
      </trkpt>
      <trkpt lat="36.21328" lon="29.64724">
        <ele>462.5</ele>
      </trkpt>
      <trkpt lat="36.21221" lon="29.64642">
        <ele>461.2</ele>
      </trkpt>
      <trkpt lat="36.21142" lon="29.64584">
        <ele>461.7</ele>
      </trkpt>
      <trkpt lat="36.21097" lon="29.64569">
        <ele>461.4</ele>
      </trkpt>
      <trkpt lat="36.21066" lon="29.64549">
        <ele>461.4</ele>
      </trkpt>
      <trkpt lat="36.21013" lon="29.64539">
        <ele>461.6</ele>
      </trkpt>
      <trkpt lat="36.20991" lon="29.64536">
        <ele>462.2</ele>
      </trkpt>
      <trkpt lat="36.20978" lon="29.64564">
        <ele>462.3</ele>
      </trkpt>
      <trkpt lat="36.2096" lon="29.64565">
        <ele>463.6</ele>
      </trkpt>
      <trkpt lat="36.20939" lon="29.64558">
        <ele>465.2</ele>
      </trkpt>
      <trkpt lat="36.20928" lon="29.64545">
        <ele>465.9</ele>
      </trkpt>
      <trkpt lat="36.20883" lon="29.64542">
        <ele>461.2</ele>
      </trkpt>
      <trkpt lat="36.20856" lon="29.64552">
        <ele>459.3</ele>
      </trkpt>
      <trkpt lat="36.20859" lon="29.64566">
        <ele>462.5</ele>
      </trkpt>
      <trkpt lat="36.20851" lon="29.64577">
        <ele>464.7</ele>
      </trkpt>
      <trkpt lat="36.20846" lon="29.64585">
        <ele>466.6</ele>
      </trkpt>
      <trkpt lat="36.20839" lon="29.64591">
        <ele>468.9</ele>
      </trkpt>
      <trkpt lat="36.20834" lon="29.64588">
        <ele>467.8</ele>
      </trkpt>
      <trkpt lat="36.20843" lon="29.64569">
        <ele>462.4</ele>
      </trkpt>
      <trkpt lat="36.20843" lon="29.64564">
        <ele>460.8</ele>
      </trkpt>
      <trkpt lat="36.20839" lon="29.6456">
        <ele>459.6</ele>
      </trkpt>
      <trkpt lat="36.20832" lon="29.64571">
        <ele>461.7</ele>
      </trkpt>
      <trkpt lat="36.20815" lon="29.64592">
        <ele>463.9</ele>
      </trkpt>
      <trkpt lat="36.20806" lon="29.646">
        <ele>465.1</ele>
      </trkpt>
      <trkpt lat="36.20803" lon="29.64601">
        <ele>464.7</ele>
      </trkpt>
      <trkpt lat="36.20801" lon="29.64599">
        <ele>463.1</ele>
      </trkpt>
      <trkpt lat="36.20803" lon="29.64593">
        <ele>460.8</ele>
      </trkpt>
      <trkpt lat="36.20801" lon="29.64591">
        <ele>459.2</ele>
      </trkpt>
      <trkpt lat="36.20796" lon="29.64594">
        <ele>459.3</ele>
      </trkpt>
      <trkpt lat="36.20794" lon="29.64594">
        <ele>458.4</ele>
      </trkpt>
      <trkpt lat="36.20794" lon="29.6459">
        <ele>456.6</ele>
      </trkpt>
      <trkpt lat="36.20798" lon="29.64588">
        <ele>456.7</ele>
      </trkpt>
      <trkpt lat="36.208" lon="29.64582">
        <ele>454.5</ele>
      </trkpt>
      <trkpt lat="36.20795" lon="29.64582">
        <ele>452.6</ele>
      </trkpt>
      <trkpt lat="36.20794" lon="29.64579">
        <ele>451</ele>
      </trkpt>
      <trkpt lat="36.20801" lon="29.64573">
        <ele>451.4</ele>
      </trkpt>
      <trkpt lat="36.20803" lon="29.64568">
        <ele>449.7</ele>
      </trkpt>
      <trkpt lat="36.20802" lon="29.64563">
        <ele>447.5</ele>
      </trkpt>
      <trkpt lat="36.20796" lon="29.6456">
        <ele>444.3</ele>
      </trkpt>
      <trkpt lat="36.20787" lon="29.64554">
        <ele>438.1</ele>
      </trkpt>
      <trkpt lat="36.2078" lon="29.64557">
        <ele>436.3</ele>
      </trkpt>
      <trkpt lat="36.20772" lon="29.64562">
        <ele>435.5</ele>
      </trkpt>
      <trkpt lat="36.20762" lon="29.64567">
        <ele>434</ele>
      </trkpt>
      <trkpt lat="36.20766" lon="29.6455">
        <ele>427.5</ele>
      </trkpt>
      <trkpt lat="36.20772" lon="29.64538">
        <ele>423.9</ele>
      </trkpt>
      <trkpt lat="36.20779" lon="29.64525">
        <ele>421.2</ele>
      </trkpt>
      <trkpt lat="36.20783" lon="29.64502">
        <ele>413.1</ele>
      </trkpt>
      <trkpt lat="36.20789" lon="29.64481">
        <ele>407.9</ele>
      </trkpt>
      <trkpt lat="36.20767" lon="29.64497">
        <ele>402.5</ele>
      </trkpt>
      <trkpt lat="36.20763" lon="29.64498">
        <ele>400.5</ele>
      </trkpt>
      <trkpt lat="36.20768" lon="29.64484">
        <ele>396.6</ele>
      </trkpt>
      <trkpt lat="36.20754" lon="29.64487">
        <ele>390.4</ele>
      </trkpt>
      <trkpt lat="36.2073" lon="29.64499">
        <ele>381.3</ele>
      </trkpt>
      <trkpt lat="36.20711" lon="29.64512">
        <ele>375.1</ele>
      </trkpt>
      <trkpt lat="36.20689" lon="29.64525">
        <ele>367</ele>
      </trkpt>
      <trkpt lat="36.20671" lon="29.64541">
        <ele>361.8</ele>
      </trkpt>
      <trkpt lat="36.20654" lon="29.64558">
        <ele>357.9</ele>
      </trkpt>
      <trkpt lat="36.2064" lon="29.64566">
        <ele>352.9</ele>
      </trkpt>
      <trkpt lat="36.20634" lon="29.64574">
        <ele>352</ele>
      </trkpt>
      <trkpt lat="36.20633" lon="29.64572">
        <ele>350.5</ele>
      </trkpt>
      <trkpt lat="36.20637" lon="29.64563">
        <ele>349.4</ele>
      </trkpt>
      <trkpt lat="36.20634" lon="29.64563">
        <ele>347.8</ele>
      </trkpt>
      <trkpt lat="36.20629" lon="29.64567">
        <ele>346.4</ele>
      </trkpt>
      <trkpt lat="36.20625" lon="29.64569">
        <ele>344.6</ele>
      </trkpt>
      <trkpt lat="36.20626" lon="29.64562">
        <ele>342.2</ele>
      </trkpt>
      <trkpt lat="36.20628" lon="29.64553">
        <ele>340.1</ele>
      </trkpt>
      <trkpt lat="36.20636" lon="29.64531">
        <ele>335.9</ele>
      </trkpt>
      <trkpt lat="36.20632" lon="29.6453">
        <ele>333.1</ele>
      </trkpt>
      <trkpt lat="36.20627" lon="29.64532">
        <ele>330.6</ele>
      </trkpt>
      <trkpt lat="36.20618" lon="29.64542">
        <ele>329.6</ele>
      </trkpt>
      <trkpt lat="36.20601" lon="29.64558">
        <ele>325.1</ele>
      </trkpt>
      <trkpt lat="36.20596" lon="29.64566">
        <ele>325.7</ele>
      </trkpt>
      <trkpt lat="36.20593" lon="29.64564">
        <ele>323.2</ele>
      </trkpt>
      <trkpt lat="36.20595" lon="29.6456">
        <ele>322.4</ele>
      </trkpt>
      <trkpt lat="36.20594" lon="29.64555">
        <ele>319.5</ele>
      </trkpt>
      <trkpt lat="36.2059" lon="29.64556">
        <ele>318</ele>
      </trkpt>
      <trkpt lat="36.20587" lon="29.64561">
        <ele>317.9</ele>
      </trkpt>
      <trkpt lat="36.20584" lon="29.64559">
        <ele>315.5</ele>
      </trkpt>
      <trkpt lat="36.20589" lon="29.64548">
        <ele>314.1</ele>
      </trkpt>
      <trkpt lat="36.20593" lon="29.64535">
        <ele>311.3</ele>
      </trkpt>
      <trkpt lat="36.20594" lon="29.64528">
        <ele>308.7</ele>
      </trkpt>
      <trkpt lat="36.2059" lon="29.6453">
        <ele>307.2</ele>
      </trkpt>
      <trkpt lat="36.20586" lon="29.64533">
        <ele>306</ele>
      </trkpt>
      <trkpt lat="36.20583" lon="29.64531">
        <ele>303.2</ele>
      </trkpt>
      <trkpt lat="36.20585" lon="29.64522">
        <ele>301.2</ele>
      </trkpt>
      <trkpt lat="36.20584" lon="29.64512">
        <ele>296.4</ele>
      </trkpt>
      <trkpt lat="36.20594" lon="29.64501">
        <ele>297.6</ele>
      </trkpt>
      <trkpt lat="36.20588" lon="29.645">
        <ele>294</ele>
      </trkpt>
      <trkpt lat="36.20584" lon="29.64502">
        <ele>292</ele>
      </trkpt>
      <trkpt lat="36.20576" lon="29.64513">
        <ele>292.2</ele>
      </trkpt>
      <trkpt lat="36.20571" lon="29.64515">
        <ele>290.2</ele>
      </trkpt>
      <trkpt lat="36.20567" lon="29.64513">
        <ele>287.5</ele>
      </trkpt>
      <trkpt lat="36.20565" lon="29.64508">
        <ele>284.9</ele>
      </trkpt>
      <trkpt lat="36.20571" lon="29.64495">
        <ele>283.1</ele>
      </trkpt>
      <trkpt lat="36.20577" lon="29.64466">
        <ele>276</ele>
      </trkpt>
      <trkpt lat="36.20586" lon="29.64452">
        <ele>275.6</ele>
      </trkpt>
      <trkpt lat="36.20586" lon="29.64442">
        <ele>272.4</ele>
      </trkpt>
      <trkpt lat="36.20589" lon="29.64428">
        <ele>268.9</ele>
      </trkpt>
      <trkpt lat="36.20583" lon="29.64433">
        <ele>267.2</ele>
      </trkpt>
      <trkpt lat="36.20578" lon="29.6444">
        <ele>267.5</ele>
      </trkpt>
      <trkpt lat="36.20578" lon="29.64434">
        <ele>265.5</ele>
      </trkpt>
      <trkpt lat="36.20573" lon="29.6444">
        <ele>264.7</ele>
      </trkpt>
      <trkpt lat="36.20575" lon="29.64431">
        <ele>262.8</ele>
      </trkpt>
      <trkpt lat="36.2057" lon="29.64435">
        <ele>261.5</ele>
      </trkpt>
      <trkpt lat="36.20561" lon="29.64444">
        <ele>260.3</ele>
      </trkpt>
      <trkpt lat="36.2056" lon="29.64435">
        <ele>257.1</ele>
      </trkpt>
      <trkpt lat="36.20578" lon="29.64396">
        <ele>251</ele>
      </trkpt>
      <trkpt lat="36.20593" lon="29.64364">
        <ele>246.1</ele>
      </trkpt>
      <trkpt lat="36.2061" lon="29.64339">
        <ele>245.1</ele>
      </trkpt>
      <trkpt lat="36.20622" lon="29.64318">
        <ele>242.4</ele>
      </trkpt>
      <trkpt lat="36.20638" lon="29.64299">
        <ele>242.7</ele>
      </trkpt>
      <trkpt lat="36.20642" lon="29.64289">
        <ele>241</ele>
      </trkpt>
      <trkpt lat="36.20644" lon="29.64281">
        <ele>238.1</ele>
      </trkpt>
      <trkpt lat="36.20638" lon="29.64281">
        <ele>235.8</ele>
      </trkpt>
      <trkpt lat="36.20631" lon="29.64285">
        <ele>233.9</ele>
      </trkpt>
      <trkpt lat="36.2063" lon="29.64279">
        <ele>231.1</ele>
      </trkpt>
      <trkpt lat="36.20636" lon="29.64272">
        <ele>231</ele>
      </trkpt>
      <trkpt lat="36.20642" lon="29.6426">
        <ele>228.6</ele>
      </trkpt>
      <trkpt lat="36.20644" lon="29.6425">
        <ele>226</ele>
      </trkpt>
      <trkpt lat="36.20642" lon="29.64248">
        <ele>224.3</ele>
      </trkpt>
      <trkpt lat="36.20636" lon="29.64253">
        <ele>223.2</ele>
      </trkpt>
      <trkpt lat="36.20619" lon="29.6426">
        <ele>218.4</ele>
      </trkpt>
      <trkpt lat="36.20611" lon="29.64259">
        <ele>214.6</ele>
      </trkpt>
      <trkpt lat="36.20606" lon="29.64261">
        <ele>213.5</ele>
      </trkpt>
      <trkpt lat="36.20593" lon="29.64266">
        <ele>209</ele>
      </trkpt>
      <trkpt lat="36.2057" lon="29.64274">
        <ele>201.2</ele>
      </trkpt>
      <trkpt lat="36.2056" lon="29.64279">
        <ele>198.6</ele>
      </trkpt>
      <trkpt lat="36.20528" lon="29.64286">
        <ele>186.7</ele>
      </trkpt>
      <trkpt lat="36.20518" lon="29.64293">
        <ele>184.6</ele>
      </trkpt>
      <trkpt lat="36.20516" lon="29.64297">
        <ele>185.2</ele>
      </trkpt>
      <trkpt lat="36.20514" lon="29.64295">
        <ele>183.4</ele>
      </trkpt>
      <trkpt lat="36.20513" lon="29.64287">
        <ele>180.3</ele>
      </trkpt>
      <trkpt lat="36.20509" lon="29.64286">
        <ele>178.3</ele>
      </trkpt>
      <trkpt lat="36.20495" lon="29.64297">
        <ele>175.9</ele>
      </trkpt>
      <trkpt lat="36.20488" lon="29.643">
        <ele>174.2</ele>
      </trkpt>
      <trkpt lat="36.20483" lon="29.64301">
        <ele>173</ele>
      </trkpt>
      <trkpt lat="36.20476" lon="29.64309">
        <ele>172.8</ele>
      </trkpt>
      <trkpt lat="36.20473" lon="29.6431">
        <ele>172</ele>
      </trkpt>
      <trkpt lat="36.2047" lon="29.64303">
        <ele>168.3</ele>
      </trkpt>
      <trkpt lat="36.20475" lon="29.64286">
        <ele>164.4</ele>
      </trkpt>
      <trkpt lat="36.20478" lon="29.64264">
        <ele>157.7</ele>
      </trkpt>
      <trkpt lat="36.20482" lon="29.64225">
        <ele>145.1</ele>
      </trkpt>
      <trkpt lat="36.2049" lon="29.64186">
        <ele>133.3</ele>
      </trkpt>
      <trkpt lat="36.20492" lon="29.64172">
        <ele>128.7</ele>
      </trkpt>
      <trkpt lat="36.20504" lon="29.64149">
        <ele>125.9</ele>
      </trkpt>
      <trkpt lat="36.2052" lon="29.64124">
        <ele>125.3</ele>
      </trkpt>
      <trkpt lat="36.20538" lon="29.64098">
        <ele>124.8</ele>
      </trkpt>
      <trkpt lat="36.20544" lon="29.6409">
        <ele>125.1</ele>
      </trkpt>
      <trkpt lat="36.20552" lon="29.6409">
        <ele>127.9</ele>
      </trkpt>
      <trkpt lat="36.20556" lon="29.64078">
        <ele>126.7</ele>
      </trkpt>
      <trkpt lat="36.20553" lon="29.64064">
        <ele>123.9</ele>
      </trkpt>
      <trkpt lat="36.20545" lon="29.64072">
        <ele>122.1</ele>
      </trkpt>
      <trkpt lat="36.2054" lon="29.64076">
        <ele>120.7</ele>
      </trkpt>
      <trkpt lat="36.20533" lon="29.64075">
        <ele>118.1</ele>
      </trkpt>
      <trkpt lat="36.20526" lon="29.64071">
        <ele>114.9</ele>
      </trkpt>
      <trkpt lat="36.20511" lon="29.64073">
        <ele>110</ele>
      </trkpt>
      <trkpt lat="36.20477" lon="29.6411">
        <ele>107.4</ele>
      </trkpt>
      <trkpt lat="36.20441" lon="29.64144">
        <ele>105.3</ele>
      </trkpt>
      <trkpt lat="36.20412" lon="29.64167">
        <ele>102.8</ele>
      </trkpt>
      <trkpt lat="36.20382" lon="29.64196">
        <ele>102.3</ele>
      </trkpt>
      <trkpt lat="36.20356" lon="29.64222">
        <ele>102.6</ele>
      </trkpt>
      <trkpt lat="36.20349" lon="29.64228">
        <ele>102.4</ele>
      </trkpt>
      <trkpt lat="36.20342" lon="29.64226">
        <ele>99.7</ele>
      </trkpt>
      <trkpt lat="36.20341" lon="29.64218">
        <ele>96.9</ele>
      </trkpt>
      <trkpt lat="36.20351" lon="29.64204">
        <ele>95.2</ele>
      </trkpt>
      <trkpt lat="36.20363" lon="29.64189">
        <ele>94.2</ele>
      </trkpt>
      <trkpt lat="36.2038" lon="29.64167">
        <ele>92.7</ele>
      </trkpt>
      <trkpt lat="36.20409" lon="29.64122">
        <ele>89.4</ele>
      </trkpt>
      <trkpt lat="36.20422" lon="29.64098">
        <ele>86.9</ele>
      </trkpt>
      <trkpt lat="36.20434" lon="29.64085">
        <ele>87.1</ele>
      </trkpt>
      <trkpt lat="36.20442" lon="29.64075">
        <ele>87.8</ele>
      </trkpt>
      <trkpt lat="36.20448" lon="29.64064">
        <ele>88</ele>
      </trkpt>
      <trkpt lat="36.20448" lon="29.64057">
        <ele>86.8</ele>
      </trkpt>
      <trkpt lat="36.20445" lon="29.64052">
        <ele>85.2</ele>
      </trkpt>
      <trkpt lat="36.20438" lon="29.64052">
        <ele>83</ele>
      </trkpt>
      <trkpt lat="36.20429" lon="29.64057">
        <ele>80.9</ele>
      </trkpt>
      <trkpt lat="36.20422" lon="29.64066">
        <ele>80</ele>
      </trkpt>
      <trkpt lat="36.2041" lon="29.64081">
        <ele>79.1</ele>
      </trkpt>
      <trkpt lat="36.20399" lon="29.64098">
        <ele>80.6</ele>
      </trkpt>
      <trkpt lat="36.20388" lon="29.64116">
        <ele>82.2</ele>
      </trkpt>
      <trkpt lat="36.2038" lon="29.64121">
        <ele>81.2</ele>
      </trkpt>
      <trkpt lat="36.20373" lon="29.6412">
        <ele>79.3</ele>
      </trkpt>
      <trkpt lat="36.20369" lon="29.64112">
        <ele>76.2</ele>
      </trkpt>
      <trkpt lat="36.20372" lon="29.64103">
        <ele>74.9</ele>
      </trkpt>
      <trkpt lat="36.20376" lon="29.64091">
        <ele>73.1</ele>
      </trkpt>
      <trkpt lat="36.20383" lon="29.64081">
        <ele>72.6</ele>
      </trkpt>
      <trkpt lat="36.20396" lon="29.6406">
        <ele>72.9</ele>
      </trkpt>
      <trkpt lat="36.20408" lon="29.64043">
        <ele>73.3</ele>
      </trkpt>
      <trkpt lat="36.20428" lon="29.64016">
        <ele>74.6</ele>
      </trkpt>
      <trkpt lat="36.20437" lon="29.63998">
        <ele>74.3</ele>
      </trkpt>
      <trkpt lat="36.20443" lon="29.63987">
        <ele>74.6</ele>
      </trkpt>
      <trkpt lat="36.20446" lon="29.63975">
        <ele>74.1</ele>
      </trkpt>
      <trkpt lat="36.20453" lon="29.63944">
        <ele>72.3</ele>
      </trkpt>
      <trkpt lat="36.20463" lon="29.63874">
        <ele>66.5</ele>
      </trkpt>
      <trkpt lat="36.20475" lon="29.63799">
        <ele>61.9</ele>
      </trkpt>
      <trkpt lat="36.20477" lon="29.63789">
        <ele>61.9</ele>
      </trkpt>
      <trkpt lat="36.20432" lon="29.63781">
        <ele>49.9</ele>
      </trkpt>
      <trkpt lat="36.204" lon="29.63776">
        <ele>42.7</ele>
      </trkpt>
      <trkpt lat="36.20383" lon="29.63774">
        <ele>39.6</ele>
      </trkpt>
      <trkpt lat="36.20374" lon="29.6378">
        <ele>38.5</ele>
      </trkpt>
      <trkpt lat="36.20356" lon="29.63786">
        <ele>35.8</ele>
      </trkpt>
      <trkpt lat="36.20322" lon="29.63789">
        <ele>31.1</ele>
      </trkpt>
      <trkpt lat="36.20302" lon="29.63793">
        <ele>29.4</ele>
      </trkpt>
      <trkpt lat="36.203" lon="29.63795">
        <ele>29.4</ele>
      </trkpt>
      <trkpt lat="36.20299" lon="29.63797">
        <ele>29.4</ele>
      </trkpt>
      <trkpt lat="36.20297" lon="29.63798">
        <ele>29.2</ele>
      </trkpt>
      <trkpt lat="36.20294" lon="29.63797">
        <ele>29</ele>
      </trkpt>
      <trkpt lat="36.20293" lon="29.63796">
        <ele>28.7</ele>
      </trkpt>
      <trkpt lat="36.20247" lon="29.63816">
        <ele>25.6</ele>
      </trkpt>
      <trkpt lat="36.20238" lon="29.63815">
        <ele>25.1</ele>
      </trkpt>
      <trkpt lat="36.2022" lon="29.63824">
        <ele>24.8</ele>
      </trkpt>
      <trkpt lat="36.20202" lon="29.6384">
        <ele>24.2</ele>
      </trkpt>
      <trkpt lat="36.20193" lon="29.63843">
        <ele>23.6</ele>
      </trkpt>
      <trkpt lat="36.20192" lon="29.63846">
        <ele>23.6</ele>
      </trkpt>
      <trkpt lat="36.2019" lon="29.63848">
        <ele>23.4</ele>
      </trkpt>
      <trkpt lat="36.20187" lon="29.6385">
        <ele>23.2</ele>
      </trkpt>
      <trkpt lat="36.20184" lon="29.6385">
        <ele>23</ele>
      </trkpt>
      <trkpt lat="36.20173" lon="29.63857">
        <ele>22.2</ele>
      </trkpt>
      <trkpt lat="36.20162" lon="29.63859">
        <ele>21.5</ele>
      </trkpt>
      <trkpt lat="36.20134" lon="29.63869">
        <ele>20.4</ele>
      </trkpt>
      <trkpt lat="36.20115" lon="29.63877">
        <ele>19.6</ele>
      </trkpt>
      <trkpt lat="36.20081" lon="29.6389">
        <ele>17.8</ele>
      </trkpt>
      <trkpt lat="36.20054" lon="29.63905">
        <ele>15.8</ele>
      </trkpt>
      <trkpt lat="36.20018" lon="29.63926">
        <ele>12.7</ele>
      </trkpt>
      <trkpt lat="36.1999" lon="29.63955">
        <ele>10</ele>
      </trkpt>
      <trkpt lat="36.19971" lon="29.63973">
        <ele>8.6</ele>
      </trkpt>
      <trkpt lat="36.1997" lon="29.63974">
        <ele>8.5</ele>
      </trkpt>
      <trkpt lat="36.19964" lon="29.63978">
        <ele>8.1</ele>
      </trkpt>
      <trkpt lat="36.19957" lon="29.6398">
        <ele>7.8</ele>
      </trkpt>
      <trkpt lat="36.1995" lon="29.63978">
        <ele>7.8</ele>
      </trkpt>
      <trkpt lat="36.19952" lon="29.63998">
        <ele>6.4</ele>
      </trkpt>
      <trkpt lat="36.19953" lon="29.64005">
        <ele>6.2</ele>
      </trkpt>
      <trkpt lat="36.19954" lon="29.6404">
        <ele>6</ele>
      </trkpt>
      <trkpt lat="36.19953" lon="29.64046">
        <ele>5.9</ele>
      </trkpt>
      <trkpt lat="36.19949" lon="29.64065">
        <ele>5.5</ele>
      </trkpt>
      <trkpt lat="36.19944" lon="29.64108">
        <ele>6.2</ele>
      </trkpt>
      <trkpt lat="36.19943" lon="29.64131">
        <ele>7.4</ele>
      </trkpt>
      <trkpt lat="36.19925" lon="29.64145">
        <ele>7.1</ele>
      </trkpt>
      <trkpt lat="36.19923" lon="29.64147">
        <ele>7.1</ele>
      </trkpt>
      <trkpt lat="36.19899" lon="29.6417">
        <ele>7.2</ele>
      </trkpt>
      <trkpt lat="36.19891" lon="29.64182">
        <ele>8.1</ele>
      </trkpt>
      <trkpt lat="36.19881" lon="29.6419">
        <ele>8.4</ele>
      </trkpt>
      <trkpt lat="36.19872" lon="29.64206">
        <ele>9.6</ele>
      </trkpt>
      <trkpt lat="36.19853" lon="29.64235">
        <ele>11.5</ele>
      </trkpt>
      <trkpt lat="36.1983" lon="29.64273">
        <ele>14.5</ele>
      </trkpt>
      <trkpt lat="36.19828" lon="29.64279">
        <ele>14.9</ele>
      </trkpt>
      <trkpt lat="36.19825" lon="29.64284">
        <ele>15.4</ele>
      </trkpt>
      <trkpt lat="36.19806" lon="29.6434">
        <ele>19.2</ele>
      </trkpt>
      <trkpt lat="36.19805" lon="29.64345">
        <ele>19.2</ele>
      </trkpt>
      <trkpt lat="36.19802" lon="29.64369">
        <ele>19.4</ele>
      </trkpt>
      <trkpt lat="36.19798" lon="29.64381">
        <ele>19.2</ele>
      </trkpt>
      <trkpt lat="36.19794" lon="29.64399">
        <ele>19</ele>
      </trkpt>
      <trkpt lat="36.19788" lon="29.64405">
        <ele>18.3</ele>
      </trkpt>
      <trkpt lat="36.19781" lon="29.64413">
        <ele>17.4</ele>
      </trkpt>
      <trkpt lat="36.19767" lon="29.64426">
        <ele>17.2</ele>
      </trkpt>
      <trkpt lat="36.19733" lon="29.64454">
        <ele>17.1</ele>
      </trkpt>
      <trkpt lat="36.19721" lon="29.64464">
        <ele>16.8</ele>
      </trkpt>
      <trkpt lat="36.19711" lon="29.64476">
        <ele>16.6</ele>
      </trkpt>
      <trkpt lat="36.19703" lon="29.64488">
        <ele>16.5</ele>
      </trkpt>
      <trkpt lat="36.19695" lon="29.64498">
        <ele>15.9</ele>
      </trkpt>
      <trkpt lat="36.19678" lon="29.64524">
        <ele>16.2</ele>
      </trkpt>
      <trkpt lat="36.19641" lon="29.6457">
        <ele>15.7</ele>
      </trkpt>
      <trkpt lat="36.19603" lon="29.64613">
        <ele>16.3</ele>
      </trkpt>
      <trkpt lat="36.19582" lon="29.64646">
        <ele>16.6</ele>
      </trkpt>
      <trkpt lat="36.1955" lon="29.64672">
        <ele>19.2</ele>
      </trkpt>
      <trkpt lat="36.19533" lon="29.64681">
        <ele>20.2</ele>
      </trkpt>
      <trkpt lat="36.19525" lon="29.64685">
        <ele>20.6</ele>
      </trkpt>
      <trkpt lat="36.19507" lon="29.64691">
        <ele>20.6</ele>
      </trkpt>
      <trkpt lat="36.19489" lon="29.64699">
        <ele>21.4</ele>
      </trkpt>
      <trkpt lat="36.19478" lon="29.64709">
        <ele>23</ele>
      </trkpt>
      <trkpt lat="36.19466" lon="29.64728">
        <ele>25.8</ele>
      </trkpt>
      <trkpt lat="36.19455" lon="29.64741">
        <ele>27.6</ele>
      </trkpt>
      <trkpt lat="36.19446" lon="29.64774">
        <ele>33.4</ele>
      </trkpt>
      <trkpt lat="36.19443" lon="29.64789">
        <ele>36.2</ele>
      </trkpt>
      <trkpt lat="36.19442" lon="29.648">
        <ele>38.5</ele>
      </trkpt>
      <trkpt lat="36.19431" lon="29.64824">
        <ele>42.4</ele>
      </trkpt>
      <trkpt lat="36.19418" lon="29.64839">
        <ele>44.1</ele>
      </trkpt>
      <trkpt lat="36.19391" lon="29.6486">
        <ele>45.1</ele>
      </trkpt>
      <trkpt lat="36.19339" lon="29.64911">
        <ele>44.4</ele>
      </trkpt>
      <trkpt lat="36.19316" lon="29.64928">
        <ele>38.9</ele>
      </trkpt>
      <trkpt lat="36.19302" lon="29.64943">
        <ele>35.4</ele>
      </trkpt>
      <trkpt lat="36.19295" lon="29.64959">
        <ele>34.2</ele>
      </trkpt>
      <trkpt lat="36.19293" lon="29.64984">
        <ele>36</ele>
      </trkpt>
      <trkpt lat="36.19292" lon="29.65001">
        <ele>37.1</ele>
      </trkpt>
      <trkpt lat="36.19287" lon="29.65005">
        <ele>36.2</ele>
      </trkpt>
      <trkpt lat="36.19269" lon="29.65013">
        <ele>30.6</ele>
      </trkpt>
      <trkpt lat="36.19254" lon="29.65029">
        <ele>27.6</ele>
      </trkpt>
      <trkpt lat="36.1924" lon="29.65045">
        <ele>27</ele>
      </trkpt>
      <trkpt lat="36.19229" lon="29.65061">
        <ele>26.7</ele>
      </trkpt>
      <trkpt lat="36.19226" lon="29.65068">
        <ele>27.1</ele>
      </trkpt>
      <trkpt lat="36.19224" lon="29.65075">
        <ele>27.7</ele>
      </trkpt>
      <trkpt lat="36.19224" lon="29.65082">
        <ele>28.6</ele>
      </trkpt>
      <trkpt lat="36.19227" lon="29.65124">
        <ele>29.5</ele>
      </trkpt>
      <trkpt lat="36.19223" lon="29.65144">
        <ele>28.4</ele>
      </trkpt>
      <trkpt lat="36.1922" lon="29.65162">
        <ele>27.4</ele>
      </trkpt>
      <trkpt lat="36.1922" lon="29.65179">
        <ele>28.4</ele>
      </trkpt>
      <trkpt lat="36.19223" lon="29.65199">
        <ele>31.2</ele>
      </trkpt>
      <trkpt lat="36.19223" lon="29.65218">
        <ele>32.8</ele>
      </trkpt>
      <trkpt lat="36.19217" lon="29.65237">
        <ele>32.2</ele>
      </trkpt>
      <trkpt lat="36.19206" lon="29.65247">
        <ele>28.4</ele>
      </trkpt>
      <trkpt lat="36.19196" lon="29.65254">
        <ele>24.5</ele>
      </trkpt>
      <trkpt lat="36.19179" lon="29.65262">
        <ele>17.7</ele>
      </trkpt>
      <trkpt lat="36.1917" lon="29.65266">
        <ele>13.8</ele>
      </trkpt>
      <trkpt lat="36.19163" lon="29.65268">
        <ele>13</ele>
      </trkpt>
      <trkpt lat="36.19162" lon="29.65269">
        <ele>13.2</ele>
      </trkpt>
      <trkpt lat="36.19144" lon="29.6529">
        <ele>16.2</ele>
      </trkpt>
      <trkpt lat="36.19121" lon="29.65324">
        <ele>17.2</ele>
      </trkpt>
      <trkpt lat="36.19106" lon="29.65343">
        <ele>17.1</ele>
      </trkpt>
      <trkpt lat="36.19096" lon="29.65348">
        <ele>16.8</ele>
      </trkpt>
      <trkpt lat="36.19083" lon="29.65354">
        <ele>15.8</ele>
      </trkpt>
      <trkpt lat="36.19074" lon="29.65359">
        <ele>17.9</ele>
      </trkpt>
      <trkpt lat="36.19065" lon="29.65374">
        <ele>20.1</ele>
      </trkpt>
      <trkpt lat="36.1906" lon="29.65389">
        <ele>21.4</ele>
      </trkpt>
      <trkpt lat="36.19059" lon="29.65407">
        <ele>21.4</ele>
      </trkpt>
      <trkpt lat="36.19063" lon="29.65435">
        <ele>21.3</ele>
      </trkpt>
      <trkpt lat="36.19064" lon="29.65458">
        <ele>22.2</ele>
      </trkpt>
      <trkpt lat="36.1906" lon="29.65484">
        <ele>24</ele>
      </trkpt>
      <trkpt lat="36.19054" lon="29.65508">
        <ele>25.8</ele>
      </trkpt>
      <trkpt lat="36.19042" lon="29.65532">
        <ele>27.8</ele>
      </trkpt>
      <trkpt lat="36.19029" lon="29.65546">
        <ele>29.2</ele>
      </trkpt>
      <trkpt lat="36.19006" lon="29.65561">
        <ele>30.7</ele>
      </trkpt>
      <trkpt lat="36.18993" lon="29.65487">
        <ele>35.2</ele>
      </trkpt>
      <trkpt lat="36.18957" lon="29.65474">
        <ele>39.2</ele>
      </trkpt>
      <trkpt lat="36.18927" lon="29.65463">
        <ele>42.7</ele>
      </trkpt>
      <trkpt lat="36.18916" lon="29.65455">
        <ele>44.2</ele>
      </trkpt>
      <trkpt lat="36.18857" lon="29.654">
        <ele>47</ele>
      </trkpt>
      <trkpt lat="36.18852" lon="29.65389">
        <ele>47.3</ele>
      </trkpt>
      <trkpt lat="36.18851" lon="29.65379">
        <ele>47.4</ele>
      </trkpt>
      <trkpt lat="36.18842" lon="29.6536">
        <ele>47.7</ele>
      </trkpt>
      <trkpt lat="36.18833" lon="29.65349">
        <ele>47.8</ele>
      </trkpt>
      <trkpt lat="36.18821" lon="29.65337">
        <ele>47.6</ele>
      </trkpt>
      <trkpt lat="36.18802" lon="29.65325">
        <ele>47.7</ele>
      </trkpt>
      <trkpt lat="36.18796" lon="29.65314">
        <ele>48.4</ele>
      </trkpt>
      <trkpt lat="36.18758" lon="29.65297">
        <ele>48.4</ele>
      </trkpt>
      <trkpt lat="36.18729" lon="29.65284">
        <ele>47.7</ele>
      </trkpt>
      <trkpt lat="36.18702" lon="29.65271">
        <ele>45.8</ele>
      </trkpt>
      <trkpt lat="36.18676" lon="29.65252">
        <ele>42.4</ele>
      </trkpt>
      <trkpt lat="36.18659" lon="29.65246">
        <ele>41.2</ele>
      </trkpt>
      <trkpt lat="36.18633" lon="29.65246">
        <ele>41.3</ele>
      </trkpt>
      <trkpt lat="36.186" lon="29.65234">
        <ele>40.4</ele>
      </trkpt>
      <trkpt lat="36.18577" lon="29.6522">
        <ele>38.3</ele>
      </trkpt>
      <trkpt lat="36.18564" lon="29.65211">
        <ele>37</ele>
      </trkpt>
      <trkpt lat="36.18546" lon="29.65213">
        <ele>37.1</ele>
      </trkpt>
      <trkpt lat="36.18499" lon="29.65215">
        <ele>36.8</ele>
      </trkpt>
      <trkpt lat="36.18469" lon="29.65223">
        <ele>37.1</ele>
      </trkpt>
      <trkpt lat="36.18448" lon="29.65235">
        <ele>38.1</ele>
      </trkpt>
      <trkpt lat="36.18425" lon="29.65245">
        <ele>38.6</ele>
      </trkpt>
      <trkpt lat="36.18405" lon="29.65259">
        <ele>40.7</ele>
      </trkpt>
      <trkpt lat="36.18379" lon="29.65272">
        <ele>43.2</ele>
      </trkpt>
      <trkpt lat="36.18358" lon="29.65278">
        <ele>44.4</ele>
      </trkpt>
      <trkpt lat="36.18343" lon="29.65285">
        <ele>45.6</ele>
      </trkpt>
      <trkpt lat="36.18318" lon="29.65291">
        <ele>46.5</ele>
      </trkpt>
      <trkpt lat="36.18308" lon="29.65321">
        <ele>49.7</ele>
      </trkpt>
      <trkpt lat="36.18296" lon="29.65344">
        <ele>53</ele>
      </trkpt>
      <trkpt lat="36.18277" lon="29.65353">
        <ele>54.5</ele>
      </trkpt>
      <trkpt lat="36.1826" lon="29.65387">
        <ele>59.9</ele>
      </trkpt>
      <trkpt lat="36.18244" lon="29.65397">
        <ele>60.8</ele>
      </trkpt>
      <trkpt lat="36.18233" lon="29.65397">
        <ele>60.5</ele>
      </trkpt>
      <trkpt lat="36.18228" lon="29.65391">
        <ele>59.5</ele>
      </trkpt>
      <trkpt lat="36.18201" lon="29.65393">
        <ele>59</ele>
      </trkpt>
      <trkpt lat="36.18151" lon="29.65413">
        <ele>60</ele>
      </trkpt>
      <trkpt lat="36.1813" lon="29.65415">
        <ele>59.5</ele>
      </trkpt>
      <trkpt lat="36.18114" lon="29.65413">
        <ele>58.7</ele>
      </trkpt>
      <trkpt lat="36.18101" lon="29.65405">
        <ele>57.6</ele>
      </trkpt>
      <trkpt lat="36.18099" lon="29.65402">
        <ele>57.2</ele>
      </trkpt>
      <trkpt lat="36.18099" lon="29.65402">
        <ele>57.2</ele>
      </trkpt>
      <trkpt lat="36.16906" lon="29.65245">
        <ele>45.9</ele>
      </trkpt>
      <trkpt lat="36.16911" lon="29.65226">
        <ele>44.7</ele>
      </trkpt>
      <trkpt lat="36.16935" lon="29.65201">
        <ele>45</ele>
      </trkpt>
      <trkpt lat="36.16971" lon="29.6518">
        <ele>43.9</ele>
      </trkpt>
      <trkpt lat="36.17028" lon="29.65137">
        <ele>43.6</ele>
      </trkpt>
      <trkpt lat="36.17037" lon="29.65144">
        <ele>43.7</ele>
      </trkpt>
      <trkpt lat="36.1707" lon="29.65138">
        <ele>44.4</ele>
      </trkpt>
      <trkpt lat="36.1709" lon="29.65131">
        <ele>44.4</ele>
      </trkpt>
      <trkpt lat="36.17136" lon="29.65111">
        <ele>41.5</ele>
      </trkpt>
      <trkpt lat="36.17166" lon="29.65104">
        <ele>38.6</ele>
      </trkpt>
      <trkpt lat="36.17201" lon="29.65086">
        <ele>28.3</ele>
      </trkpt>
      <trkpt lat="36.17212" lon="29.65073">
        <ele>24.1</ele>
      </trkpt>
      <trkpt lat="36.17233" lon="29.65047">
        <ele>17.5</ele>
      </trkpt>
      <trkpt lat="36.17246" lon="29.65037">
        <ele>13.8</ele>
      </trkpt>
      <trkpt lat="36.17291" lon="29.64936">
        <ele>6.1</ele>
      </trkpt>
      <trkpt lat="36.17268" lon="29.64922">
        <ele>8.9</ele>
      </trkpt>
      <trkpt lat="36.17275" lon="29.64916">
        <ele>8.3</ele>
      </trkpt>
      <trkpt lat="36.17284" lon="29.64916">
        <ele>7.3</ele>
      </trkpt>
      <trkpt lat="36.17293" lon="29.64926">
        <ele>6.1</ele>
      </trkpt>
      <trkpt lat="36.17291" lon="29.64936">
        <ele>6.1</ele>
      </trkpt>
      <trkpt lat="36.17295" lon="29.64945">
        <ele>5.5</ele>
      </trkpt>
      <trkpt lat="36.17282" lon="29.64955">
        <ele>6.4</ele>
      </trkpt>
      <trkpt lat="36.17267" lon="29.64956">
        <ele>7.4</ele>
      </trkpt>
      <trkpt lat="36.17257" lon="29.64959">
        <ele>8</ele>
      </trkpt>
      <trkpt lat="36.17253" lon="29.64959">
        <ele>8.2</ele>
      </trkpt>
      <trkpt lat="36.1725" lon="29.64964">
        <ele>8.2</ele>
      </trkpt>
      <trkpt lat="36.17246" lon="29.64969">
        <ele>8.5</ele>
      </trkpt>
      <trkpt lat="36.17244" lon="29.64973">
        <ele>8.8</ele>
      </trkpt>
      <trkpt lat="36.17241" lon="29.64994">
        <ele>8.3</ele>
      </trkpt>
      <trkpt lat="36.17243" lon="29.65015">
        <ele>10.1</ele>
      </trkpt>
      <trkpt lat="36.17246" lon="29.65037">
        <ele>13.8</ele>
      </trkpt>
      <trkpt lat="36.17246" lon="29.65048">
        <ele>15.6</ele>
      </trkpt>
      <trkpt lat="36.17256" lon="29.65053">
        <ele>16</ele>
      </trkpt>
      <trkpt lat="36.17265" lon="29.6506">
        <ele>17.2</ele>
      </trkpt>
      <trkpt lat="36.17273" lon="29.65059">
        <ele>16.8</ele>
      </trkpt>
      <trkpt lat="36.17284" lon="29.65059">
        <ele>16.3</ele>
      </trkpt>
      <trkpt lat="36.17309" lon="29.65068">
        <ele>17.4</ele>
      </trkpt>
      <trkpt lat="36.17346" lon="29.65088">
        <ele>22.8</ele>
      </trkpt>
      <trkpt lat="36.1736" lon="29.65113">
        <ele>35.1</ele>
      </trkpt>
      <trkpt lat="36.17379" lon="29.65126">
        <ele>39.9</ele>
      </trkpt>
      <trkpt lat="36.17386" lon="29.65131">
        <ele>41.4</ele>
      </trkpt>
      <trkpt lat="36.17418" lon="29.65133">
        <ele>39.3</ele>
      </trkpt>
      <trkpt lat="36.17431" lon="29.65138">
        <ele>39.5</ele>
      </trkpt>
      <trkpt lat="36.17448" lon="29.65138">
        <ele>37</ele>
      </trkpt>
      <trkpt lat="36.17465" lon="29.65143">
        <ele>36.1</ele>
      </trkpt>
      <trkpt lat="36.17489" lon="29.65155">
        <ele>36.4</ele>
      </trkpt>
      <trkpt lat="36.17501" lon="29.65163">
        <ele>37</ele>
      </trkpt>
      <trkpt lat="36.17522" lon="29.65168">
        <ele>35.9</ele>
      </trkpt>
      <trkpt lat="36.17539" lon="29.65168">
        <ele>34.2</ele>
      </trkpt>
      <trkpt lat="36.17548" lon="29.65176">
        <ele>34.6</ele>
      </trkpt>
      <trkpt lat="36.1756" lon="29.65177">
        <ele>33.5</ele>
      </trkpt>
      <trkpt lat="36.17569" lon="29.6519">
        <ele>34.9</ele>
      </trkpt>
      <trkpt lat="36.17579" lon="29.65211">
        <ele>37.6</ele>
      </trkpt>
      <trkpt lat="36.17598" lon="29.65213">
        <ele>36.9</ele>
      </trkpt>
      <trkpt lat="36.17614" lon="29.65217">
        <ele>37.1</ele>
      </trkpt>
      <trkpt lat="36.17636" lon="29.65212">
        <ele>35.7</ele>
      </trkpt>
      <trkpt lat="36.17655" lon="29.65218">
        <ele>36.2</ele>
      </trkpt>
      <trkpt lat="36.17667" lon="29.65221">
        <ele>36.2</ele>
      </trkpt>
      <trkpt lat="36.17685" lon="29.65227">
        <ele>36.9</ele>
      </trkpt>
      <trkpt lat="36.17722" lon="29.65224">
        <ele>36.1</ele>
      </trkpt>
      <trkpt lat="36.17771" lon="29.65222">
        <ele>35.6</ele>
      </trkpt>
      <trkpt lat="36.17793" lon="29.65218">
        <ele>34.8</ele>
      </trkpt>
      <trkpt lat="36.1781" lon="29.65213">
        <ele>33.9</ele>
      </trkpt>
      <trkpt lat="36.17849" lon="29.65231">
        <ele>37.1</ele>
      </trkpt>
      <trkpt lat="36.17875" lon="29.65239">
        <ele>38.6</ele>
      </trkpt>
      <trkpt lat="36.17894" lon="29.65239">
        <ele>38.4</ele>
      </trkpt>
      <trkpt lat="36.17931" lon="29.65237">
        <ele>38</ele>
      </trkpt>
      <trkpt lat="36.17954" lon="29.65234">
        <ele>37.7</ele>
      </trkpt>
      <trkpt lat="36.17972" lon="29.65231">
        <ele>37.1</ele>
      </trkpt>
      <trkpt lat="36.18017" lon="29.65232">
        <ele>37.9</ele>
      </trkpt>
      <trkpt lat="36.1803" lon="29.65235">
        <ele>38.6</ele>
      </trkpt>
      <trkpt lat="36.18037" lon="29.65246">
        <ele>41.1</ele>
      </trkpt>
      <trkpt lat="36.18039" lon="29.6526">
        <ele>43.1</ele>
      </trkpt>
      <trkpt lat="36.18036" lon="29.65272">
        <ele>44.5</ele>
      </trkpt>
      <trkpt lat="36.18032" lon="29.65296">
        <ele>47.3</ele>
      </trkpt>
      <trkpt lat="36.18035" lon="29.65322">
        <ele>50.3</ele>
      </trkpt>
      <trkpt lat="36.18052" lon="29.65332">
        <ele>51.2</ele>
      </trkpt>
      <trkpt lat="36.18064" lon="29.65351">
        <ele>52.9</ele>
      </trkpt>
      <trkpt lat="36.18069" lon="29.65366">
        <ele>54.1</ele>
      </trkpt>
      <trkpt lat="36.18084" lon="29.65391">
        <ele>55.8</ele>
      </trkpt>
      <trkpt lat="36.18099" lon="29.65402">
        <ele>57.2</ele>
      </trkpt>
      <trkpt lat="36.18088" lon="29.65403">
        <ele>57</ele>
      </trkpt>
      <trkpt lat="36.1808" lon="29.65411">
        <ele>57.7</ele>
      </trkpt>
      <trkpt lat="36.1808" lon="29.65418">
        <ele>58.5</ele>
      </trkpt>
      <trkpt lat="36.18085" lon="29.65425">
        <ele>59.6</ele>
      </trkpt>
      <trkpt lat="36.18092" lon="29.65425">
        <ele>60</ele>
      </trkpt>
      <trkpt lat="36.18094" lon="29.6543">
        <ele>61.1</ele>
      </trkpt>
      <trkpt lat="36.1809" lon="29.65439">
        <ele>62.6</ele>
      </trkpt>
      <trkpt lat="36.18082" lon="29.65448">
        <ele>64</ele>
      </trkpt>
      <trkpt lat="36.18076" lon="29.65466">
        <ele>67.6</ele>
      </trkpt>
      <trkpt lat="36.18082" lon="29.65472">
        <ele>68.5</ele>
      </trkpt>
      <trkpt lat="36.18095" lon="29.65474">
        <ele>69.9</ele>
      </trkpt>
      <trkpt lat="36.18101" lon="29.6548">
        <ele>71.4</ele>
      </trkpt>
      <trkpt lat="36.18096" lon="29.6549">
        <ele>73.1</ele>
      </trkpt>
      <trkpt lat="36.18085" lon="29.65499">
        <ele>74</ele>
      </trkpt>
      <trkpt lat="36.18072" lon="29.65518">
        <ele>75.1</ele>
      </trkpt>
      <trkpt lat="36.18069" lon="29.65535">
        <ele>76.3</ele>
      </trkpt>
      <trkpt lat="36.18055" lon="29.65544">
        <ele>76.8</ele>
      </trkpt>
      <trkpt lat="36.18045" lon="29.65555">
        <ele>77.5</ele>
      </trkpt>
      <trkpt lat="36.18033" lon="29.65557">
        <ele>77.5</ele>
      </trkpt>
      <trkpt lat="36.18027" lon="29.65564">
        <ele>77.9</ele>
      </trkpt>
      <trkpt lat="36.18018" lon="29.6558">
        <ele>79</ele>
      </trkpt>
      <trkpt lat="36.18009" lon="29.6559">
        <ele>79.6</ele>
      </trkpt>
      <trkpt lat="36.18" lon="29.65594">
        <ele>80</ele>
      </trkpt>
      <trkpt lat="36.17975" lon="29.65598">
        <ele>83.3</ele>
      </trkpt>
      <trkpt lat="36.17952" lon="29.65604">
        <ele>86.7</ele>
      </trkpt>
      <trkpt lat="36.17933" lon="29.65603">
        <ele>88.7</ele>
      </trkpt>
      <trkpt lat="36.17925" lon="29.65599">
        <ele>89.1</ele>
      </trkpt>
      <trkpt lat="36.1792" lon="29.65601">
        <ele>90</ele>
      </trkpt>
      <trkpt lat="36.17907" lon="29.65595">
        <ele>89.7</ele>
      </trkpt>
      <trkpt lat="36.17898" lon="29.65595">
        <ele>90.2</ele>
      </trkpt>
      <trkpt lat="36.17877" lon="29.65583">
        <ele>88.9</ele>
      </trkpt>
      <trkpt lat="36.17873" lon="29.65573">
        <ele>88.6</ele>
      </trkpt>
      <trkpt lat="36.17864" lon="29.6557">
        <ele>88.8</ele>
      </trkpt>
      <trkpt lat="36.17854" lon="29.6557">
        <ele>89.3</ele>
      </trkpt>
      <trkpt lat="36.17844" lon="29.65559">
        <ele>89.1</ele>
      </trkpt>
      <trkpt lat="36.17825" lon="29.6556">
        <ele>89.9</ele>
      </trkpt>
      <trkpt lat="36.17817" lon="29.65554">
        <ele>89.8</ele>
      </trkpt>
      <trkpt lat="36.17805" lon="29.65557">
        <ele>90.4</ele>
      </trkpt>
      <trkpt lat="36.17792" lon="29.65552">
        <ele>90.4</ele>
      </trkpt>
      <trkpt lat="36.17778" lon="29.65549">
        <ele>90.5</ele>
      </trkpt>
      <trkpt lat="36.17765" lon="29.65557">
        <ele>91.7</ele>
      </trkpt>
      <trkpt lat="36.17754" lon="29.65549">
        <ele>91.2</ele>
      </trkpt>
      <trkpt lat="36.17742" lon="29.65546">
        <ele>90.9</ele>
      </trkpt>
      <trkpt lat="36.17728" lon="29.65545">
        <ele>90.7</ele>
      </trkpt>
      <trkpt lat="36.17719" lon="29.65542">
        <ele>90.1</ele>
      </trkpt>
      <trkpt lat="36.17724" lon="29.65523">
        <ele>87.6</ele>
      </trkpt>
      <trkpt lat="36.17714" lon="29.65507">
        <ele>84.9</ele>
      </trkpt>
      <trkpt lat="36.17699" lon="29.65506">
        <ele>83.9</ele>
      </trkpt>
      <trkpt lat="36.17682" lon="29.6551">
        <ele>83.7</ele>
      </trkpt>
      <trkpt lat="36.17673" lon="29.65506">
        <ele>82.5</ele>
      </trkpt>
      <trkpt lat="36.17667" lon="29.655">
        <ele>80.9</ele>
      </trkpt>
      <trkpt lat="36.17657" lon="29.65492">
        <ele>79.2</ele>
      </trkpt>
      <trkpt lat="36.17635" lon="29.65485">
        <ele>76.9</ele>
      </trkpt>
      <trkpt lat="36.17622" lon="29.65487">
        <ele>76.3</ele>
      </trkpt>
      <trkpt lat="36.17602" lon="29.6548">
        <ele>74.1</ele>
      </trkpt>
      <trkpt lat="36.17593" lon="29.65482">
        <ele>73.8</ele>
      </trkpt>
      <trkpt lat="36.17588" lon="29.65488">
        <ele>74.3</ele>
      </trkpt>
      <trkpt lat="36.1758" lon="29.65484">
        <ele>73.8</ele>
      </trkpt>
      <trkpt lat="36.17572" lon="29.65477">
        <ele>73.1</ele>
      </trkpt>
      <trkpt lat="36.17559" lon="29.65477">
        <ele>74.2</ele>
      </trkpt>
      <trkpt lat="36.17544" lon="29.6547">
        <ele>73.7</ele>
      </trkpt>
      <trkpt lat="36.1753" lon="29.65468">
        <ele>74.2</ele>
      </trkpt>
      <trkpt lat="36.17516" lon="29.65464">
        <ele>74</ele>
      </trkpt>
      <trkpt lat="36.17501" lon="29.65464">
        <ele>74.9</ele>
      </trkpt>
      <trkpt lat="36.17489" lon="29.6546">
        <ele>75</ele>
      </trkpt>
      <trkpt lat="36.17481" lon="29.6546">
        <ele>75.9</ele>
      </trkpt>
      <trkpt lat="36.17463" lon="29.65455">
        <ele>76.6</ele>
      </trkpt>
      <trkpt lat="36.1743" lon="29.65455">
        <ele>79.8</ele>
      </trkpt>
      <trkpt lat="36.17416" lon="29.65455">
        <ele>81.4</ele>
      </trkpt>
      <trkpt lat="36.17403" lon="29.65454">
        <ele>82.4</ele>
      </trkpt>
      <trkpt lat="36.1738" lon="29.65452">
        <ele>84.9</ele>
      </trkpt>
      <trkpt lat="36.17366" lon="29.65454">
        <ele>86.9</ele>
      </trkpt>
      <trkpt lat="36.17354" lon="29.65447">
        <ele>87</ele>
      </trkpt>
      <trkpt lat="36.17344" lon="29.65453">
        <ele>89.3</ele>
      </trkpt>
      <trkpt lat="36.17335" lon="29.65451">
        <ele>90</ele>
      </trkpt>
      <trkpt lat="36.17319" lon="29.65458">
        <ele>92.1</ele>
      </trkpt>
      <trkpt lat="36.17309" lon="29.65455">
        <ele>92.1</ele>
      </trkpt>
      <trkpt lat="36.17287" lon="29.65458">
        <ele>93.7</ele>
      </trkpt>
      <trkpt lat="36.17278" lon="29.65464">
        <ele>94.7</ele>
      </trkpt>
      <trkpt lat="36.17261" lon="29.6546">
        <ele>95.1</ele>
      </trkpt>
      <trkpt lat="36.17246" lon="29.65462">
        <ele>95.5</ele>
      </trkpt>
      <trkpt lat="36.17236" lon="29.65453">
        <ele>94.5</ele>
      </trkpt>
      <trkpt lat="36.17208" lon="29.65449">
        <ele>93</ele>
      </trkpt>
      <trkpt lat="36.17193" lon="29.65441">
        <ele>92</ele>
      </trkpt>
      <trkpt lat="36.17169" lon="29.65442">
        <ele>91</ele>
      </trkpt>
      <trkpt lat="36.17135" lon="29.65435">
        <ele>89.2</ele>
      </trkpt>
      <trkpt lat="36.17097" lon="29.65432">
        <ele>87.3</ele>
      </trkpt>
      <trkpt lat="36.17051" lon="29.65409">
        <ele>85.2</ele>
      </trkpt>
      <trkpt lat="36.17031" lon="29.65414">
        <ele>84.2</ele>
      </trkpt>
      <trkpt lat="36.17018" lon="29.65408">
        <ele>83.8</ele>
      </trkpt>
      <trkpt lat="36.16982" lon="29.65376">
        <ele>81.8</ele>
      </trkpt>
      <trkpt lat="36.16958" lon="29.65368">
        <ele>79.3</ele>
      </trkpt>
      <trkpt lat="36.16939" lon="29.65358">
        <ele>76.2</ele>
      </trkpt>
      <trkpt lat="36.16899" lon="29.65342">
        <ele>68.7</ele>
      </trkpt>
      <trkpt lat="36.16894" lon="29.65333">
        <ele>65.9</ele>
      </trkpt>
      <trkpt lat="36.16895" lon="29.65328">
        <ele>64.8</ele>
      </trkpt>
      <trkpt lat="36.16899" lon="29.65325">
        <ele>64.7</ele>
      </trkpt>
      <trkpt lat="36.16905" lon="29.65329">
        <ele>66.3</ele>
      </trkpt>
      <trkpt lat="36.16907" lon="29.65327">
        <ele>66.2</ele>
      </trkpt>
      <trkpt lat="36.16905" lon="29.65324">
        <ele>65.1</ele>
      </trkpt>
      <trkpt lat="36.16911" lon="29.65322">
        <ele>65.2</ele>
      </trkpt>
      <trkpt lat="36.16904" lon="29.65318">
        <ele>63.5</ele>
      </trkpt>
      <trkpt lat="36.16903" lon="29.65313">
        <ele>62.1</ele>
      </trkpt>
      <trkpt lat="36.16907" lon="29.65308">
        <ele>61.2</ele>
      </trkpt>
      <trkpt lat="36.169" lon="29.65305">
        <ele>59.7</ele>
      </trkpt>
      <trkpt lat="36.16898" lon="29.653">
        <ele>58.2</ele>
      </trkpt>
      <trkpt lat="36.16904" lon="29.65296">
        <ele>57.9</ele>
      </trkpt>
      <trkpt lat="36.16915" lon="29.65259">
        <ele>49.2</ele>
      </trkpt>
      <trkpt lat="36.16906" lon="29.65245">
        <ele>45.9</ele>
      </trkpt>
      <trkpt lat="36.16897" lon="29.65265">
        <ele>49.4</ele>
      </trkpt>
      <trkpt lat="36.16861" lon="29.6529">
        <ele>52</ele>
      </trkpt>
      <trkpt lat="36.16847" lon="29.65312">
        <ele>55.1</ele>
      </trkpt>
      <trkpt lat="36.16826" lon="29.65329">
        <ele>56.5</ele>
      </trkpt>
      <trkpt lat="36.16784" lon="29.65339">
        <ele>55.8</ele>
      </trkpt>
      <trkpt lat="36.16765" lon="29.65329">
        <ele>51</ele>
      </trkpt>
      <trkpt lat="36.16751" lon="29.65331">
        <ele>49.9</ele>
      </trkpt>
      <trkpt lat="36.16724" lon="29.65346">
        <ele>56.4</ele>
      </trkpt>
      <trkpt lat="36.16687" lon="29.65354">
        <ele>60.5</ele>
      </trkpt>
      <trkpt lat="36.16678" lon="29.65352">
        <ele>60.4</ele>
      </trkpt>
      <trkpt lat="36.16666" lon="29.65334">
        <ele>55.2</ele>
      </trkpt>
      <trkpt lat="36.1665" lon="29.65315">
        <ele>57.1</ele>
      </trkpt>
      <trkpt lat="36.16639" lon="29.6531">
        <ele>58.2</ele>
      </trkpt>
      <trkpt lat="36.16626" lon="29.65315">
        <ele>59.2</ele>
      </trkpt>
      <trkpt lat="36.16618" lon="29.65328">
        <ele>59.8</ele>
      </trkpt>
      <trkpt lat="36.16604" lon="29.65336">
        <ele>61.6</ele>
      </trkpt>
      <trkpt lat="36.16591" lon="29.6536">
        <ele>66.7</ele>
      </trkpt>
      <trkpt lat="36.16573" lon="29.65361">
        <ele>67.5</ele>
      </trkpt>
      <trkpt lat="36.16556" lon="29.65348">
        <ele>66.5</ele>
      </trkpt>
      <trkpt lat="36.16535" lon="29.65347">
        <ele>67.3</ele>
      </trkpt>
      <trkpt lat="36.16524" lon="29.65355">
        <ele>68.3</ele>
      </trkpt>
      <trkpt lat="36.16503" lon="29.65361">
        <ele>68.9</ele>
      </trkpt>
      <trkpt lat="36.16498" lon="29.65361">
        <ele>69.1</ele>
      </trkpt>
      <trkpt lat="36.16479" lon="29.65363">
        <ele>70.5</ele>
      </trkpt>
      <trkpt lat="36.16461" lon="29.6537">
        <ele>71.7</ele>
      </trkpt>
      <trkpt lat="36.16447" lon="29.65385">
        <ele>72.3</ele>
      </trkpt>
      <trkpt lat="36.16433" lon="29.65403">
        <ele>72.6</ele>
      </trkpt>
      <trkpt lat="36.16412" lon="29.654">
        <ele>73.6</ele>
      </trkpt>
      <trkpt lat="36.16403" lon="29.65407">
        <ele>73.5</ele>
      </trkpt>
      <trkpt lat="36.16384" lon="29.65407">
        <ele>73.6</ele>
      </trkpt>
      <trkpt lat="36.16364" lon="29.65411">
        <ele>73.8</ele>
      </trkpt>
      <trkpt lat="36.16353" lon="29.65413">
        <ele>73.8</ele>
      </trkpt>
      <trkpt lat="36.1633" lon="29.65429">
        <ele>74.1</ele>
      </trkpt>
      <trkpt lat="36.1632" lon="29.65445">
        <ele>73.8</ele>
      </trkpt>
      <trkpt lat="36.16318" lon="29.65457">
        <ele>74.2</ele>
      </trkpt>
      <trkpt lat="36.16307" lon="29.65469">
        <ele>73.6</ele>
      </trkpt>
      <trkpt lat="36.16288" lon="29.65465">
        <ele>71.3</ele>
      </trkpt>
      <trkpt lat="36.16264" lon="29.65481">
        <ele>69.9</ele>
      </trkpt>
      <trkpt lat="36.16247" lon="29.65498">
        <ele>69.4</ele>
      </trkpt>
      <trkpt lat="36.1623" lon="29.65519">
        <ele>70.6</ele>
      </trkpt>
      <trkpt lat="36.16215" lon="29.65532">
        <ele>70.4</ele>
      </trkpt>
      <trkpt lat="36.16199" lon="29.65541">
        <ele>68.9</ele>
      </trkpt>
      <trkpt lat="36.16187" lon="29.65549">
        <ele>67.9</ele>
      </trkpt>
      <trkpt lat="36.16173" lon="29.65552">
        <ele>65.4</ele>
      </trkpt>
      <trkpt lat="36.16151" lon="29.65553">
        <ele>62.2</ele>
      </trkpt>
      <trkpt lat="36.16137" lon="29.65573">
        <ele>62.5</ele>
      </trkpt>
      <trkpt lat="36.16127" lon="29.65587">
        <ele>62.9</ele>
      </trkpt>
      <trkpt lat="36.16112" lon="29.65589">
        <ele>61</ele>
      </trkpt>
      <trkpt lat="36.16099" lon="29.65582">
        <ele>58.1</ele>
      </trkpt>
      <trkpt lat="36.16089" lon="29.65584">
        <ele>56.9</ele>
      </trkpt>
      <trkpt lat="36.16065" lon="29.65566">
        <ele>53.6</ele>
      </trkpt>
      <trkpt lat="36.1606" lon="29.65545">
        <ele>51.4</ele>
      </trkpt>
      <trkpt lat="36.16057" lon="29.65517">
        <ele>48.4</ele>
      </trkpt>
      <trkpt lat="36.1605" lon="29.65505">
        <ele>46.8</ele>
      </trkpt>
      <trkpt lat="36.1605" lon="29.65492">
        <ele>45.8</ele>
      </trkpt>
      <trkpt lat="36.16052" lon="29.65453">
        <ele>43</ele>
      </trkpt>
      <trkpt lat="36.16044" lon="29.65432">
        <ele>41.2</ele>
      </trkpt>
      <trkpt lat="36.16032" lon="29.65405">
        <ele>39.1</ele>
      </trkpt>
      <trkpt lat="36.16014" lon="29.6538">
        <ele>37.2</ele>
      </trkpt>
      <trkpt lat="36.1599" lon="29.65361">
        <ele>36.1</ele>
      </trkpt>
      <trkpt lat="36.15941" lon="29.65323">
        <ele>37.2</ele>
      </trkpt>
      <trkpt lat="36.15918" lon="29.65303">
        <ele>39</ele>
      </trkpt>
      <trkpt lat="36.15898" lon="29.65298">
        <ele>39.4</ele>
      </trkpt>
      <trkpt lat="36.15883" lon="29.65303">
        <ele>39.5</ele>
      </trkpt>
      <trkpt lat="36.15869" lon="29.65303">
        <ele>39.6</ele>
      </trkpt>
      <trkpt lat="36.15853" lon="29.653">
        <ele>39.7</ele>
      </trkpt>
      <trkpt lat="36.15841" lon="29.65304">
        <ele>40.1</ele>
      </trkpt>
      <trkpt lat="36.15819" lon="29.65317">
        <ele>38.7</ele>
      </trkpt>
      <trkpt lat="36.158" lon="29.65341">
        <ele>38</ele>
      </trkpt>
      <trkpt lat="36.15779" lon="29.65348">
        <ele>35.7</ele>
      </trkpt>
      <trkpt lat="36.15758" lon="29.65347">
        <ele>32.4</ele>
      </trkpt>
      <trkpt lat="36.15748" lon="29.65343">
        <ele>29.9</ele>
      </trkpt>
      <trkpt lat="36.15721" lon="29.65361">
        <ele>29.7</ele>
      </trkpt>
      <trkpt lat="36.15688" lon="29.65372">
        <ele>27.1</ele>
      </trkpt>
      <trkpt lat="36.15682" lon="29.6538">
        <ele>28.4</ele>
      </trkpt>
      <trkpt lat="36.15672" lon="29.65382">
        <ele>27.3</ele>
      </trkpt>
      <trkpt lat="36.15657" lon="29.65386">
        <ele>25.2</ele>
      </trkpt>
      <trkpt lat="36.15651" lon="29.65397">
        <ele>26.4</ele>
      </trkpt>
      <trkpt lat="36.15644" lon="29.65404">
        <ele>25.9</ele>
      </trkpt>
      <trkpt lat="36.15631" lon="29.65419">
        <ele>25.4</ele>
      </trkpt>
      <trkpt lat="36.15618" lon="29.65426">
        <ele>22</ele>
      </trkpt>
      <trkpt lat="36.15607" lon="29.65439">
        <ele>20.5</ele>
      </trkpt>
      <trkpt lat="36.15608" lon="29.65445">
        <ele>21.7</ele>
      </trkpt>
      <trkpt lat="36.15604" lon="29.65446">
        <ele>20.3</ele>
      </trkpt>
      <trkpt lat="36.15599" lon="29.65451">
        <ele>19.2</ele>
      </trkpt>
      <trkpt lat="36.15592" lon="29.65455">
        <ele>17.6</ele>
      </trkpt>
      <trkpt lat="36.15591" lon="29.65463">
        <ele>18</ele>
      </trkpt>
      <trkpt lat="36.15594" lon="29.65469">
        <ele>20</ele>
      </trkpt>
      <trkpt lat="36.15586" lon="29.65472">
        <ele>17.4</ele>
      </trkpt>
      <trkpt lat="36.15581" lon="29.65478">
        <ele>17.1</ele>
      </trkpt>
      <trkpt lat="36.15576" lon="29.65489">
        <ele>17.7</ele>
      </trkpt>
      <trkpt lat="36.15567" lon="29.65494">
        <ele>16.9</ele>
      </trkpt>
      <trkpt lat="36.15554" lon="29.65506">
        <ele>17.1</ele>
      </trkpt>
      <trkpt lat="36.15545" lon="29.65518">
        <ele>18.6</ele>
      </trkpt>
      <trkpt lat="36.15535" lon="29.65533">
        <ele>19.6</ele>
      </trkpt>
      <trkpt lat="36.1553" lon="29.65544">
        <ele>20.6</ele>
      </trkpt>
      <trkpt lat="36.15519" lon="29.65569">
        <ele>22</ele>
      </trkpt>
      <trkpt lat="36.15496" lon="29.65592">
        <ele>18.8</ele>
      </trkpt>
      <trkpt lat="36.15487" lon="29.65594">
        <ele>17.8</ele>
      </trkpt>
      <trkpt lat="36.15479" lon="29.65596">
        <ele>16.6</ele>
      </trkpt>
      <trkpt lat="36.15458" lon="29.65631">
        <ele>17.1</ele>
      </trkpt>
      <trkpt lat="36.15441" lon="29.65657">
        <ele>15.5</ele>
      </trkpt>
      <trkpt lat="36.15426" lon="29.65666">
        <ele>11.7</ele>
      </trkpt>
      <trkpt lat="36.15396" lon="29.65699">
        <ele>13.1</ele>
      </trkpt>
      <trkpt lat="36.15386" lon="29.65713">
        <ele>13.9</ele>
      </trkpt>
      <trkpt lat="36.15376" lon="29.65733">
        <ele>14.8</ele>
      </trkpt>
      <trkpt lat="36.15365" lon="29.6575">
        <ele>14.7</ele>
      </trkpt>
      <trkpt lat="36.15361" lon="29.65772">
        <ele>16.5</ele>
      </trkpt>
      <trkpt lat="36.15362" lon="29.6578">
        <ele>17.7</ele>
      </trkpt>
      <trkpt lat="36.15364" lon="29.65788">
        <ele>19.3</ele>
      </trkpt>
      <trkpt lat="36.15364" lon="29.65813">
        <ele>22.7</ele>
      </trkpt>
      <trkpt lat="36.1537" lon="29.65822">
        <ele>25.8</ele>
      </trkpt>
      <trkpt lat="36.15367" lon="29.65842">
        <ele>28.1</ele>
      </trkpt>
      <trkpt lat="36.15365" lon="29.65863">
        <ele>30.7</ele>
      </trkpt>
      <trkpt lat="36.15362" lon="29.65895">
        <ele>34.7</ele>
      </trkpt>
      <trkpt lat="36.15359" lon="29.65925">
        <ele>37.6</ele>
      </trkpt>
      <trkpt lat="36.1536" lon="29.65949">
        <ele>40.5</ele>
      </trkpt>
      <trkpt lat="36.15363" lon="29.6596">
        <ele>42.8</ele>
      </trkpt>
      <trkpt lat="36.15371" lon="29.65969">
        <ele>47.1</ele>
      </trkpt>
      <trkpt lat="36.15374" lon="29.65978">
        <ele>49.1</ele>
      </trkpt>
      <trkpt lat="36.15372" lon="29.65995">
        <ele>49.9</ele>
      </trkpt>
      <trkpt lat="36.15374" lon="29.66012">
        <ele>52.1</ele>
      </trkpt>
      <trkpt lat="36.1538" lon="29.66028">
        <ele>55.4</ele>
      </trkpt>
      <trkpt lat="36.15375" lon="29.66058">
        <ele>56</ele>
      </trkpt>
      <trkpt lat="36.15383" lon="29.6609">
        <ele>60.6</ele>
      </trkpt>
      <trkpt lat="36.15387" lon="29.66123">
        <ele>64.3</ele>
      </trkpt>
      <trkpt lat="36.15393" lon="29.66144">
        <ele>67.6</ele>
      </trkpt>
      <trkpt lat="36.15389" lon="29.66165">
        <ele>68.2</ele>
      </trkpt>
      <trkpt lat="36.15385" lon="29.66172">
        <ele>67.8</ele>
      </trkpt>
      <trkpt lat="36.1538" lon="29.6619">
        <ele>68.4</ele>
      </trkpt>
      <trkpt lat="36.15373" lon="29.66229">
        <ele>70.6</ele>
      </trkpt>
      <trkpt lat="36.15376" lon="29.66236">
        <ele>71.8</ele>
      </trkpt>
      <trkpt lat="36.15382" lon="29.66238">
        <ele>73.1</ele>
      </trkpt>
      <trkpt lat="36.15387" lon="29.66258">
        <ele>76</ele>
      </trkpt>
      <trkpt lat="36.15387" lon="29.66276">
        <ele>78.7</ele>
      </trkpt>
      <trkpt lat="36.15396" lon="29.66285">
        <ele>81.3</ele>
      </trkpt>
      <trkpt lat="36.15409" lon="29.66291">
        <ele>83.9</ele>
      </trkpt>
      <trkpt lat="36.15414" lon="29.66303">
        <ele>86</ele>
      </trkpt>
      <trkpt lat="36.15416" lon="29.66323">
        <ele>88.6</ele>
      </trkpt>
      <trkpt lat="36.15408" lon="29.66388">
        <ele>97</ele>
      </trkpt>
      <trkpt lat="36.15392" lon="29.66421">
        <ele>100.4</ele>
      </trkpt>
      <trkpt lat="36.15367" lon="29.66453">
        <ele>101.1</ele>
      </trkpt>
      <trkpt lat="36.15359" lon="29.66474">
        <ele>102.1</ele>
      </trkpt>
      <trkpt lat="36.15356" lon="29.66506">
        <ele>104.1</ele>
      </trkpt>
      <trkpt lat="36.15356" lon="29.66527">
        <ele>104.8</ele>
      </trkpt>
      <trkpt lat="36.15352" lon="29.66543">
        <ele>104.4</ele>
      </trkpt>
      <trkpt lat="36.15343" lon="29.66568">
        <ele>103.1</ele>
      </trkpt>
      <trkpt lat="36.15336" lon="29.66594">
        <ele>100.9</ele>
      </trkpt>
      <trkpt lat="36.15324" lon="29.66613">
        <ele>97.8</ele>
      </trkpt>
      <trkpt lat="36.15322" lon="29.66633">
        <ele>95.4</ele>
      </trkpt>
      <trkpt lat="36.15309" lon="29.66661">
        <ele>88.7</ele>
      </trkpt>
      <trkpt lat="36.15317" lon="29.66683">
        <ele>87</ele>
      </trkpt>
      <trkpt lat="36.15323" lon="29.66717">
        <ele>82.5</ele>
      </trkpt>
      <trkpt lat="36.15335" lon="29.66751">
        <ele>81.7</ele>
      </trkpt>
      <trkpt lat="36.15327" lon="29.66789">
        <ele>73.4</ele>
      </trkpt>
      <trkpt lat="36.15322" lon="29.66806">
        <ele>68.5</ele>
      </trkpt>
      <trkpt lat="36.1531" lon="29.66811">
        <ele>61.9</ele>
      </trkpt>
      <trkpt lat="36.15299" lon="29.66827">
        <ele>54.2</ele>
      </trkpt>
      <trkpt lat="36.15286" lon="29.66847">
        <ele>45.4</ele>
      </trkpt>
      <trkpt lat="36.15288" lon="29.66854">
        <ele>46</ele>
      </trkpt>
      <trkpt lat="36.15287" lon="29.66862">
        <ele>44.8</ele>
      </trkpt>
      <trkpt lat="36.15287" lon="29.66891">
        <ele>42</ele>
      </trkpt>
      <trkpt lat="36.15298" lon="29.66936">
        <ele>44.1</ele>
      </trkpt>
      <trkpt lat="36.15299" lon="29.66965">
        <ele>40.9</ele>
      </trkpt>
      <trkpt lat="36.15315" lon="29.67002">
        <ele>46.1</ele>
      </trkpt>
      <trkpt lat="36.15321" lon="29.67049">
        <ele>46.8</ele>
      </trkpt>
      <trkpt lat="36.15323" lon="29.67052">
        <ele>47.7</ele>
      </trkpt>
      <trkpt lat="36.15323" lon="29.67052">
        <ele>47.7</ele>
      </trkpt>
      <trkpt lat="36.1533" lon="29.67087">
        <ele>49.2</ele>
      </trkpt>
      <trkpt lat="36.15334" lon="29.67148">
        <ele>50.6</ele>
      </trkpt>
      <trkpt lat="36.15331" lon="29.67178">
        <ele>49.2</ele>
      </trkpt>
      <trkpt lat="36.15338" lon="29.67212">
        <ele>54</ele>
      </trkpt>
      <trkpt lat="36.15337" lon="29.67238">
        <ele>53.8</ele>
      </trkpt>
      <trkpt lat="36.15338" lon="29.67254">
        <ele>54.8</ele>
      </trkpt>
      <trkpt lat="36.15341" lon="29.67298">
        <ele>54.8</ele>
      </trkpt>
      <trkpt lat="36.15336" lon="29.67326">
        <ele>50.4</ele>
      </trkpt>
      <trkpt lat="36.15341" lon="29.67381">
        <ele>51.6</ele>
      </trkpt>
      <trkpt lat="36.15346" lon="29.67387">
        <ele>54.3</ele>
      </trkpt>
      <trkpt lat="36.15346" lon="29.67426">
        <ele>51.7</ele>
      </trkpt>
      <trkpt lat="36.15349" lon="29.67436">
        <ele>52.5</ele>
      </trkpt>
      <trkpt lat="36.15355" lon="29.67472">
        <ele>53</ele>
      </trkpt>
      <trkpt lat="36.1536" lon="29.67488">
        <ele>54.2</ele>
      </trkpt>
      <trkpt lat="36.15364" lon="29.67552">
        <ele>48.3</ele>
      </trkpt>
      <trkpt lat="36.15368" lon="29.67583">
        <ele>46.6</ele>
      </trkpt>
      <trkpt lat="36.15364" lon="29.6759">
        <ele>42.7</ele>
      </trkpt>
      <trkpt lat="36.15362" lon="29.67639">
        <ele>33</ele>
      </trkpt>
      <trkpt lat="36.15364" lon="29.67676">
        <ele>28.1</ele>
      </trkpt>
      <trkpt lat="36.1536" lon="29.67683">
        <ele>25.9</ele>
      </trkpt>
      <trkpt lat="36.15369" lon="29.67741">
        <ele>22.5</ele>
      </trkpt>
      <trkpt lat="36.15365" lon="29.67767">
        <ele>17.8</ele>
      </trkpt>
      <trkpt lat="36.15366" lon="29.67798">
        <ele>14.2</ele>
      </trkpt>
      <trkpt lat="36.15374" lon="29.67819">
        <ele>13.3</ele>
      </trkpt>
      <trkpt lat="36.15378" lon="29.67827">
        <ele>13.2</ele>
      </trkpt>
      <trkpt lat="36.15384" lon="29.67836">
        <ele>13.2</ele>
      </trkpt>
      <trkpt lat="36.15403" lon="29.67861">
        <ele>14.2</ele>
      </trkpt>
      <trkpt lat="36.15401" lon="29.67874">
        <ele>12.5</ele>
      </trkpt>
      <trkpt lat="36.15411" lon="29.67883">
        <ele>12.4</ele>
      </trkpt>
      <trkpt lat="36.15425" lon="29.67898">
        <ele>13.4</ele>
      </trkpt>
      <trkpt lat="36.15433" lon="29.67914">
        <ele>13.5</ele>
      </trkpt>
      <trkpt lat="36.15437" lon="29.67928">
        <ele>14.9</ele>
      </trkpt>
      <trkpt lat="36.15432" lon="29.67943">
        <ele>14.4</ele>
      </trkpt>
      <trkpt lat="36.15442" lon="29.67975">
        <ele>18.3</ele>
      </trkpt>
      <trkpt lat="36.15437" lon="29.67995">
        <ele>19</ele>
      </trkpt>
      <trkpt lat="36.15449" lon="29.68032">
        <ele>24.5</ele>
      </trkpt>
      <trkpt lat="36.15451" lon="29.68042">
        <ele>25.8</ele>
      </trkpt>
      <trkpt lat="36.15451" lon="29.68057">
        <ele>27.9</ele>
      </trkpt>
      <trkpt lat="36.1545" lon="29.68083">
        <ele>31.6</ele>
      </trkpt>
      <trkpt lat="36.15444" lon="29.68098">
        <ele>33.5</ele>
      </trkpt>
      <trkpt lat="36.15444" lon="29.68124">
        <ele>35.9</ele>
      </trkpt>
      <trkpt lat="36.1543" lon="29.68144">
        <ele>39.2</ele>
      </trkpt>
      <trkpt lat="36.15423" lon="29.68165">
        <ele>42.2</ele>
      </trkpt>
      <trkpt lat="36.15411" lon="29.68188">
        <ele>44.9</ele>
      </trkpt>
      <trkpt lat="36.15401" lon="29.68212">
        <ele>48.7</ele>
      </trkpt>
      <trkpt lat="36.15391" lon="29.68259">
        <ele>53</ele>
      </trkpt>
      <trkpt lat="36.15375" lon="29.68309">
        <ele>59.9</ele>
      </trkpt>
      <trkpt lat="36.15379" lon="29.68355">
        <ele>61.1</ele>
      </trkpt>
      <trkpt lat="36.15379" lon="29.68395">
        <ele>64.5</ele>
      </trkpt>
      <trkpt lat="36.15372" lon="29.68427">
        <ele>67.5</ele>
      </trkpt>
      <trkpt lat="36.15352" lon="29.68474">
        <ele>68.1</ele>
      </trkpt>
      <trkpt lat="36.15326" lon="29.68512">
        <ele>67</ele>
      </trkpt>
      <trkpt lat="36.15312" lon="29.68536">
        <ele>67.8</ele>
      </trkpt>
      <trkpt lat="36.1529" lon="29.68563">
        <ele>67.2</ele>
      </trkpt>
      <trkpt lat="36.15268" lon="29.68572">
        <ele>67</ele>
      </trkpt>
      <trkpt lat="36.15247" lon="29.68575">
        <ele>67.4</ele>
      </trkpt>
      <trkpt lat="36.15225" lon="29.68591">
        <ele>68.7</ele>
      </trkpt>
      <trkpt lat="36.15212" lon="29.68604">
        <ele>70.3</ele>
      </trkpt>
      <trkpt lat="36.15206" lon="29.68619">
        <ele>70.8</ele>
      </trkpt>
      <trkpt lat="36.15201" lon="29.68644">
        <ele>70.9</ele>
      </trkpt>
      <trkpt lat="36.15187" lon="29.6868">
        <ele>71.9</ele>
      </trkpt>
      <trkpt lat="36.1517" lon="29.68707">
        <ele>72.4</ele>
      </trkpt>
      <trkpt lat="36.15148" lon="29.68726">
        <ele>75.5</ele>
      </trkpt>
      <trkpt lat="36.15133" lon="29.68749">
        <ele>77.5</ele>
      </trkpt>
      <trkpt lat="36.15127" lon="29.68793">
        <ele>83.5</ele>
      </trkpt>
      <trkpt lat="36.15141" lon="29.68861">
        <ele>89.4</ele>
      </trkpt>
      <trkpt lat="36.15161" lon="29.68923">
        <ele>97.1</ele>
      </trkpt>
      <trkpt lat="36.15165" lon="29.6895">
        <ele>101.3</ele>
      </trkpt>
      <trkpt lat="36.15177" lon="29.68969">
        <ele>104.6</ele>
      </trkpt>
      <trkpt lat="36.15186" lon="29.68984">
        <ele>108</ele>
      </trkpt>
      <trkpt lat="36.15176" lon="29.68998">
        <ele>110.8</ele>
      </trkpt>
      <trkpt lat="36.15155" lon="29.6901">
        <ele>113.8</ele>
      </trkpt>
      <trkpt lat="36.15145" lon="29.69023">
        <ele>116.1</ele>
      </trkpt>
      <trkpt lat="36.15145" lon="29.69038">
        <ele>117</ele>
      </trkpt>
      <trkpt lat="36.15153" lon="29.69055">
        <ele>117.6</ele>
      </trkpt>
      <trkpt lat="36.15147" lon="29.69069">
        <ele>118.8</ele>
      </trkpt>
      <trkpt lat="36.15137" lon="29.69084">
        <ele>119.6</ele>
      </trkpt>
      <trkpt lat="36.1513" lon="29.69096">
        <ele>119.3</ele>
      </trkpt>
      <trkpt lat="36.15127" lon="29.69107">
        <ele>118.9</ele>
      </trkpt>
      <trkpt lat="36.15118" lon="29.69146">
        <ele>116.9</ele>
      </trkpt>
      <trkpt lat="36.15127" lon="29.69164">
        <ele>117.4</ele>
      </trkpt>
      <trkpt lat="36.15132" lon="29.69181">
        <ele>115.9</ele>
      </trkpt>
      <trkpt lat="36.15128" lon="29.69197">
        <ele>113.2</ele>
      </trkpt>
      <trkpt lat="36.15116" lon="29.69218">
        <ele>108</ele>
      </trkpt>
      <trkpt lat="36.1509" lon="29.69211">
        <ele>104.2</ele>
      </trkpt>
      <trkpt lat="36.1507" lon="29.69228">
        <ele>98.4</ele>
      </trkpt>
      <trkpt lat="36.15052" lon="29.69254">
        <ele>89.5</ele>
      </trkpt>
      <trkpt lat="36.15059" lon="29.69264">
        <ele>86.8</ele>
      </trkpt>
      <trkpt lat="36.15055" lon="29.69274">
        <ele>82</ele>
      </trkpt>
      <trkpt lat="36.15037" lon="29.69281">
        <ele>76.6</ele>
      </trkpt>
      <trkpt lat="36.15031" lon="29.69302">
        <ele>67.2</ele>
      </trkpt>
      <trkpt lat="36.15028" lon="29.69322">
        <ele>58.6</ele>
      </trkpt>
      <trkpt lat="36.15019" lon="29.69352">
        <ele>48.5</ele>
      </trkpt>
      <trkpt lat="36.15022" lon="29.6938">
        <ele>42</ele>
      </trkpt>
      <trkpt lat="36.1504" lon="29.69398">
        <ele>39.6</ele>
      </trkpt>
      <trkpt lat="36.15056" lon="29.69421">
        <ele>35.8</ele>
      </trkpt>
      <trkpt lat="36.15066" lon="29.69448">
        <ele>32.3</ele>
      </trkpt>
      <trkpt lat="36.15065" lon="29.69487">
        <ele>26.2</ele>
      </trkpt>
      <trkpt lat="36.15073" lon="29.69509">
        <ele>24</ele>
      </trkpt>
      <trkpt lat="36.15044" lon="29.6956">
        <ele>20.5</ele>
      </trkpt>
      <trkpt lat="36.15038" lon="29.69599">
        <ele>19.8</ele>
      </trkpt>
      <trkpt lat="36.15039" lon="29.69654">
        <ele>21.1</ele>
      </trkpt>
      <trkpt lat="36.15023" lon="29.69719">
        <ele>22.3</ele>
      </trkpt>
      <trkpt lat="36.14993" lon="29.69803">
        <ele>21.8</ele>
      </trkpt>
      <trkpt lat="36.14967" lon="29.69816">
        <ele>20.7</ele>
      </trkpt>
      <trkpt lat="36.14936" lon="29.6988">
        <ele>20.5</ele>
      </trkpt>
      <trkpt lat="36.14928" lon="29.69899">
        <ele>20.8</ele>
      </trkpt>
      <trkpt lat="36.14921" lon="29.69899">
        <ele>20.5</ele>
      </trkpt>
      <trkpt lat="36.14905" lon="29.69923">
        <ele>21.7</ele>
      </trkpt>
      <trkpt lat="36.14896" lon="29.69961">
        <ele>20.2</ele>
      </trkpt>
      <trkpt lat="36.14893" lon="29.69998">
        <ele>17.9</ele>
      </trkpt>
      <trkpt lat="36.14876" lon="29.70031">
        <ele>15.1</ele>
      </trkpt>
      <trkpt lat="36.14873" lon="29.70047">
        <ele>14</ele>
      </trkpt>
      <trkpt lat="36.14885" lon="29.70056">
        <ele>15.6</ele>
      </trkpt>
      <trkpt lat="36.14902" lon="29.70064">
        <ele>18.2</ele>
      </trkpt>
      <trkpt lat="36.14917" lon="29.70072">
        <ele>21</ele>
      </trkpt>
      <trkpt lat="36.14914" lon="29.70102">
        <ele>20.9</ele>
      </trkpt>
      <trkpt lat="36.14917" lon="29.70121">
        <ele>22</ele>
      </trkpt>
      <trkpt lat="36.14914" lon="29.7015">
        <ele>22</ele>
      </trkpt>
      <trkpt lat="36.14912" lon="29.7017">
        <ele>22</ele>
      </trkpt>
      <trkpt lat="36.14928" lon="29.70179">
        <ele>26</ele>
      </trkpt>
      <trkpt lat="36.14938" lon="29.70195">
        <ele>28.3</ele>
      </trkpt>
      <trkpt lat="36.14948" lon="29.70217">
        <ele>29.9</ele>
      </trkpt>
      <trkpt lat="36.14949" lon="29.70241">
        <ele>28.9</ele>
      </trkpt>
      <trkpt lat="36.14947" lon="29.70263">
        <ele>28.2</ele>
      </trkpt>
      <trkpt lat="36.1494" lon="29.7028">
        <ele>27.4</ele>
      </trkpt>
      <trkpt lat="36.14931" lon="29.70297">
        <ele>25.8</ele>
      </trkpt>
      <trkpt lat="36.14919" lon="29.70308">
        <ele>23.5</ele>
      </trkpt>
      <trkpt lat="36.14911" lon="29.70326">
        <ele>23</ele>
      </trkpt>
      <trkpt lat="36.14911" lon="29.70341">
        <ele>24.2</ele>
      </trkpt>
      <trkpt lat="36.1492" lon="29.70358">
        <ele>28.2</ele>
      </trkpt>
      <trkpt lat="36.14916" lon="29.70369">
        <ele>28.9</ele>
      </trkpt>
      <trkpt lat="36.14893" lon="29.70388">
        <ele>27.6</ele>
      </trkpt>
      <trkpt lat="36.14873" lon="29.70409">
        <ele>26.2</ele>
      </trkpt>
      <trkpt lat="36.14857" lon="29.70433">
        <ele>25.1</ele>
      </trkpt>
      <trkpt lat="36.14845" lon="29.70442">
        <ele>22.7</ele>
      </trkpt>
      <trkpt lat="36.14845" lon="29.70457">
        <ele>23.4</ele>
      </trkpt>
      <trkpt lat="36.14846" lon="29.7048">
        <ele>25</ele>
      </trkpt>
      <trkpt lat="36.14853" lon="29.705">
        <ele>28.4</ele>
      </trkpt>
      <trkpt lat="36.14866" lon="29.70523">
        <ele>32.5</ele>
      </trkpt>
      <trkpt lat="36.14871" lon="29.70544">
        <ele>33.8</ele>
      </trkpt>
      <trkpt lat="36.14869" lon="29.70567">
        <ele>32.6</ele>
      </trkpt>
      <trkpt lat="36.14877" lon="29.70592">
        <ele>35.4</ele>
      </trkpt>
      <trkpt lat="36.14891" lon="29.70615">
        <ele>41.1</ele>
      </trkpt>
      <trkpt lat="36.14906" lon="29.70631">
        <ele>48.1</ele>
      </trkpt>
      <trkpt lat="36.14917" lon="29.70654">
        <ele>53.1</ele>
      </trkpt>
      <trkpt lat="36.14948" lon="29.7069">
        <ele>56.1</ele>
      </trkpt>
      <trkpt lat="36.14979" lon="29.7072">
        <ele>60.4</ele>
      </trkpt>
      <trkpt lat="36.15003" lon="29.70731">
        <ele>66.5</ele>
      </trkpt>
      <trkpt lat="36.15021" lon="29.70766">
        <ele>66.7</ele>
      </trkpt>
      <trkpt lat="36.15032" lon="29.70787">
        <ele>66.4</ele>
      </trkpt>
      <trkpt lat="36.15032" lon="29.70821">
        <ele>60.2</ele>
      </trkpt>
      <trkpt lat="36.15046" lon="29.70894">
        <ele>52.9</ele>
      </trkpt>
      <trkpt lat="36.15048" lon="29.70913">
        <ele>50.1</ele>
      </trkpt>
      <trkpt lat="36.15059" lon="29.70915">
        <ele>53.4</ele>
      </trkpt>
      <trkpt lat="36.15077" lon="29.70962">
        <ele>52.6</ele>
      </trkpt>
      <trkpt lat="36.15099" lon="29.7101">
        <ele>48.6</ele>
      </trkpt>
      <trkpt lat="36.15088" lon="29.71018">
        <ele>45.8</ele>
      </trkpt>
      <trkpt lat="36.15108" lon="29.71052">
        <ele>40.9</ele>
      </trkpt>
      <trkpt lat="36.15097" lon="29.71063">
        <ele>37.5</ele>
      </trkpt>
      <trkpt lat="36.15105" lon="29.71077">
        <ele>35.5</ele>
      </trkpt>
      <trkpt lat="36.1512" lon="29.71081">
        <ele>35.9</ele>
      </trkpt>
      <trkpt lat="36.15142" lon="29.71099">
        <ele>34.9</ele>
      </trkpt>
      <trkpt lat="36.15141" lon="29.71109">
        <ele>33.2</ele>
      </trkpt>
      <trkpt lat="36.15158" lon="29.71124">
        <ele>32.6</ele>
      </trkpt>
      <trkpt lat="36.15171" lon="29.71153">
        <ele>29.2</ele>
      </trkpt>
      <trkpt lat="36.15184" lon="29.71178">
        <ele>26.2</ele>
      </trkpt>
      <trkpt lat="36.15195" lon="29.71181">
        <ele>26.2</ele>
      </trkpt>
      <trkpt lat="36.15206" lon="29.71216">
        <ele>22.2</ele>
      </trkpt>
      <trkpt lat="36.15214" lon="29.71232">
        <ele>20.5</ele>
      </trkpt>
      <trkpt lat="36.15232" lon="29.71244">
        <ele>19.9</ele>
      </trkpt>
      <trkpt lat="36.15238" lon="29.7125">
        <ele>19.5</ele>
      </trkpt>
      <trkpt lat="36.1525" lon="29.71247">
        <ele>20.3</ele>
      </trkpt>
      <trkpt lat="36.15269" lon="29.71262">
        <ele>18.9</ele>
      </trkpt>
      <trkpt lat="36.15269" lon="29.71274">
        <ele>16.4</ele>
      </trkpt>
      <trkpt lat="36.15274" lon="29.7128">
        <ele>15.4</ele>
      </trkpt>
      <trkpt lat="36.15287" lon="29.7128">
        <ele>16.2</ele>
      </trkpt>
      <trkpt lat="36.153" lon="29.71267">
        <ele>19.6</ele>
      </trkpt>
      <trkpt lat="36.15323" lon="29.71271">
        <ele>19.9</ele>
      </trkpt>
      <trkpt lat="36.15347" lon="29.713">
        <ele>14.2</ele>
      </trkpt>
      <trkpt lat="36.1539" lon="29.71304">
        <ele>13.1</ele>
      </trkpt>
      <trkpt lat="36.1542" lon="29.71304">
        <ele>12.5</ele>
      </trkpt>
      <trkpt lat="36.15446" lon="29.71296">
        <ele>12.5</ele>
      </trkpt>
      <trkpt lat="36.15456" lon="29.71291">
        <ele>12.9</ele>
      </trkpt>
      <trkpt lat="36.15476" lon="29.71288">
        <ele>11.8</ele>
      </trkpt>
      <trkpt lat="36.15489" lon="29.71299">
        <ele>8.6</ele>
      </trkpt>
      <trkpt lat="36.15512" lon="29.71288">
        <ele>8.9</ele>
      </trkpt>
      <trkpt lat="36.15529" lon="29.71287">
        <ele>8</ele>
      </trkpt>
      <trkpt lat="36.15535" lon="29.713">
        <ele>6.1</ele>
      </trkpt>
      <trkpt lat="36.15555" lon="29.71297">
        <ele>5.6</ele>
      </trkpt>
      <trkpt lat="36.15557" lon="29.71285">
        <ele>6.6</ele>
      </trkpt>
      <trkpt lat="36.15567" lon="29.71283">
        <ele>6.1</ele>
      </trkpt>
      <trkpt lat="36.15576" lon="29.71274">
        <ele>6.1</ele>
      </trkpt>
      <trkpt lat="36.15587" lon="29.71277">
        <ele>5.4</ele>
      </trkpt>
      <trkpt lat="36.15595" lon="29.71286">
        <ele>4.9</ele>
      </trkpt>
      <trkpt lat="36.15613" lon="29.71288">
        <ele>4.9</ele>
      </trkpt>
      <trkpt lat="36.15628" lon="29.71289">
        <ele>4.9</ele>
      </trkpt>
      <trkpt lat="36.15675" lon="29.71289">
        <ele>6.3</ele>
      </trkpt>
      <trkpt lat="36.15698" lon="29.71296">
        <ele>9</ele>
      </trkpt>
      <trkpt lat="36.15715" lon="29.71318">
        <ele>10</ele>
      </trkpt>
      <trkpt lat="36.15739" lon="29.71325">
        <ele>13</ele>
      </trkpt>
      <trkpt lat="36.15755" lon="29.71364">
        <ele>14.2</ele>
      </trkpt>
      <trkpt lat="36.15771" lon="29.7139">
        <ele>18.6</ele>
      </trkpt>
      <trkpt lat="36.15784" lon="29.71432">
        <ele>19.4</ele>
      </trkpt>
      <trkpt lat="36.15825" lon="29.71474">
        <ele>24.4</ele>
      </trkpt>
      <trkpt lat="36.15834" lon="29.71495">
        <ele>22.1</ele>
      </trkpt>
      <trkpt lat="36.15846" lon="29.71548">
        <ele>19</ele>
      </trkpt>
      <trkpt lat="36.15858" lon="29.71571">
        <ele>20.2</ele>
      </trkpt>
      <trkpt lat="36.15868" lon="29.71579">
        <ele>22.7</ele>
      </trkpt>
      <trkpt lat="36.15881" lon="29.71613">
        <ele>20.5</ele>
      </trkpt>
      <trkpt lat="36.15915" lon="29.71655">
        <ele>19.1</ele>
      </trkpt>
      <trkpt lat="36.15937" lon="29.7167">
        <ele>21.2</ele>
      </trkpt>
      <trkpt lat="36.16001" lon="29.71725">
        <ele>20.6</ele>
      </trkpt>
      <trkpt lat="36.16019" lon="29.71715">
        <ele>26.4</ele>
      </trkpt>
      <trkpt lat="36.16043" lon="29.71712">
        <ele>31.2</ele>
      </trkpt>
      <trkpt lat="36.16061" lon="29.71725">
        <ele>29.7</ele>
      </trkpt>
      <trkpt lat="36.16078" lon="29.71729">
        <ele>31.1</ele>
      </trkpt>
      <trkpt lat="36.16104" lon="29.71755">
        <ele>26.3</ele>
      </trkpt>
      <trkpt lat="36.16099" lon="29.71765">
        <ele>23.7</ele>
      </trkpt>
      <trkpt lat="36.16106" lon="29.71782">
        <ele>20.3</ele>
      </trkpt>
      <trkpt lat="36.16118" lon="29.71779">
        <ele>21.7</ele>
      </trkpt>
      <trkpt lat="36.16136" lon="29.71791">
        <ele>20.2</ele>
      </trkpt>
      <trkpt lat="36.16156" lon="29.71819">
        <ele>14.7</ele>
      </trkpt>
      <trkpt lat="36.16202" lon="29.71852">
        <ele>14.9</ele>
      </trkpt>
      <trkpt lat="36.1622" lon="29.71892">
        <ele>10.5</ele>
      </trkpt>
      <trkpt lat="36.16241" lon="29.71917">
        <ele>8.1</ele>
      </trkpt>
      <trkpt lat="36.16298" lon="29.71926">
        <ele>13.5</ele>
      </trkpt>
      <trkpt lat="36.16328" lon="29.71979">
        <ele>9.5</ele>
      </trkpt>
      <trkpt lat="36.16344" lon="29.72002">
        <ele>9</ele>
      </trkpt>
      <trkpt lat="36.16351" lon="29.72037">
        <ele>9</ele>
      </trkpt>
      <trkpt lat="36.16362" lon="29.72068">
        <ele>9.8</ele>
      </trkpt>
      <trkpt lat="36.16373" lon="29.72119">
        <ele>10.5</ele>
      </trkpt>
      <trkpt lat="36.16376" lon="29.72154">
        <ele>10.3</ele>
      </trkpt>
      <trkpt lat="36.164" lon="29.72244">
        <ele>11.4</ele>
      </trkpt>
      <trkpt lat="36.16415" lon="29.72298">
        <ele>11</ele>
      </trkpt>
      <trkpt lat="36.16417" lon="29.72383">
        <ele>8.8</ele>
      </trkpt>
      <trkpt lat="36.16413" lon="29.72461">
        <ele>7.7</ele>
      </trkpt>
      <trkpt lat="36.16424" lon="29.72513">
        <ele>9.5</ele>
      </trkpt>
      <trkpt lat="36.16432" lon="29.7253">
        <ele>11.3</ele>
      </trkpt>
      <trkpt lat="36.16444" lon="29.72588">
        <ele>15.1</ele>
      </trkpt>
      <trkpt lat="36.16448" lon="29.72632">
        <ele>18.6</ele>
      </trkpt>
      <trkpt lat="36.16445" lon="29.72648">
        <ele>18.6</ele>
      </trkpt>
      <trkpt lat="36.16496" lon="29.72633">
        <ele>29.9</ele>
      </trkpt>
      <trkpt lat="36.16526" lon="29.72619">
        <ele>34.7</ele>
      </trkpt>
      <trkpt lat="36.16597" lon="29.72603">
        <ele>44.9</ele>
      </trkpt>
      <trkpt lat="36.16621" lon="29.726">
        <ele>47.5</ele>
      </trkpt>
      <trkpt lat="36.16672" lon="29.72612">
        <ele>56.6</ele>
      </trkpt>
      <trkpt lat="36.16676" lon="29.72625">
        <ele>59.7</ele>
      </trkpt>
      <trkpt lat="36.16732" lon="29.7265">
        <ele>66.7</ele>
      </trkpt>
      <trkpt lat="36.16764" lon="29.72687">
        <ele>73.1</ele>
      </trkpt>
      <trkpt lat="36.16787" lon="29.72711">
        <ele>77.8</ele>
      </trkpt>
      <trkpt lat="36.16792" lon="29.72721">
        <ele>79.1</ele>
      </trkpt>
      <trkpt lat="36.16801" lon="29.7273">
        <ele>80.5</ele>
      </trkpt>
      <trkpt lat="36.16805" lon="29.7279">
        <ele>83.3</ele>
      </trkpt>
      <trkpt lat="36.16789" lon="29.7281">
        <ele>82.8</ele>
      </trkpt>
      <trkpt lat="36.16787" lon="29.72833">
        <ele>83.2</ele>
      </trkpt>
      <trkpt lat="36.16803" lon="29.72883">
        <ele>85.2</ele>
      </trkpt>
      <trkpt lat="36.16815" lon="29.72937">
        <ele>89</ele>
      </trkpt>
      <trkpt lat="36.16837" lon="29.7294">
        <ele>92.8</ele>
      </trkpt>
      <trkpt lat="36.16868" lon="29.72969">
        <ele>99.4</ele>
      </trkpt>
      <trkpt lat="36.169" lon="29.72987">
        <ele>105.5</ele>
      </trkpt>
      <trkpt lat="36.1695" lon="29.73071">
        <ele>121.5</ele>
      </trkpt>
      <trkpt lat="36.16964" lon="29.73076">
        <ele>123.5</ele>
      </trkpt>
      <trkpt lat="36.16982" lon="29.73078">
        <ele>125.7</ele>
      </trkpt>
      <trkpt lat="36.16988" lon="29.73091">
        <ele>127.2</ele>
      </trkpt>
      <trkpt lat="36.16987" lon="29.73103">
        <ele>128</ele>
      </trkpt>
      <trkpt lat="36.17028" lon="29.73167">
        <ele>138.4</ele>
      </trkpt>
      <trkpt lat="36.17036" lon="29.73176">
        <ele>140.7</ele>
      </trkpt>
      <trkpt lat="36.17087" lon="29.73236">
        <ele>150.6</ele>
      </trkpt>
      <trkpt lat="36.17101" lon="29.73264">
        <ele>153.3</ele>
      </trkpt>
      <trkpt lat="36.17114" lon="29.73278">
        <ele>155.3</ele>
      </trkpt>
      <trkpt lat="36.17118" lon="29.73247">
        <ele>157.1</ele>
      </trkpt>
      <trkpt lat="36.17117" lon="29.7321">
        <ele>157.5</ele>
      </trkpt>
      <trkpt lat="36.17139" lon="29.73103">
        <ele>164</ele>
      </trkpt>
      <trkpt lat="36.17146" lon="29.73098">
        <ele>166.4</ele>
      </trkpt>
      <trkpt lat="36.17176" lon="29.73176">
        <ele>174.7</ele>
      </trkpt>
      <trkpt lat="36.17215" lon="29.73252">
        <ele>181.9</ele>
      </trkpt>
      <trkpt lat="36.17281" lon="29.73314">
        <ele>193.8</ele>
      </trkpt>
      <trkpt lat="36.17296" lon="29.73318">
        <ele>198.1</ele>
      </trkpt>
      <trkpt lat="36.17335" lon="29.7336">
        <ele>205.1</ele>
      </trkpt>
      <trkpt lat="36.17382" lon="29.7341">
        <ele>211.5</ele>
      </trkpt>
      <trkpt lat="36.17398" lon="29.73428">
        <ele>213.6</ele>
      </trkpt>
      <trkpt lat="36.17449" lon="29.73488">
        <ele>220.5</ele>
      </trkpt>
      <trkpt lat="36.1746" lon="29.73497">
        <ele>222.4</ele>
      </trkpt>
      <trkpt lat="36.1748" lon="29.73523">
        <ele>225.8</ele>
      </trkpt>
      <trkpt lat="36.17493" lon="29.73549">
        <ele>227.1</ele>
      </trkpt>
      <trkpt lat="36.17536" lon="29.73597">
        <ele>236.1</ele>
      </trkpt>
      <trkpt lat="36.17564" lon="29.73615">
        <ele>242.8</ele>
      </trkpt>
      <trkpt lat="36.17594" lon="29.73668">
        <ele>246.5</ele>
      </trkpt>
      <trkpt lat="36.1762" lon="29.73715">
        <ele>255.5</ele>
      </trkpt>
      <trkpt lat="36.17639" lon="29.73712">
        <ele>260.8</ele>
      </trkpt>
      <trkpt lat="36.1765" lon="29.73724">
        <ele>263.9</ele>
      </trkpt>
      <trkpt lat="36.17656" lon="29.73715">
        <ele>265.5</ele>
      </trkpt>
      <trkpt lat="36.17671" lon="29.73724">
        <ele>269.8</ele>
      </trkpt>
      <trkpt lat="36.17683" lon="29.73758">
        <ele>274.7</ele>
      </trkpt>
      <trkpt lat="36.17686" lon="29.73804">
        <ele>279.2</ele>
      </trkpt>
      <trkpt lat="36.1767" lon="29.73843">
        <ele>278.2</ele>
      </trkpt>
      <trkpt lat="36.17696" lon="29.73884">
        <ele>287.3</ele>
      </trkpt>
      <trkpt lat="36.17725" lon="29.73897">
        <ele>291.1</ele>
      </trkpt>
      <trkpt lat="36.17733" lon="29.73917">
        <ele>291.2</ele>
      </trkpt>
      <trkpt lat="36.17737" lon="29.7394">
        <ele>289.3</ele>
      </trkpt>
      <trkpt lat="36.17735" lon="29.73966">
        <ele>286.9</ele>
      </trkpt>
      <trkpt lat="36.17723" lon="29.73993">
        <ele>285.2</ele>
      </trkpt>
      <trkpt lat="36.17717" lon="29.74078">
        <ele>278.4</ele>
      </trkpt>
      <trkpt lat="36.17714" lon="29.74116">
        <ele>276.4</ele>
      </trkpt>
      <trkpt lat="36.1773" lon="29.74165">
        <ele>273.6</ele>
      </trkpt>
      <trkpt lat="36.17838" lon="29.7425">
        <ele>275.3</ele>
      </trkpt>
      <trkpt lat="36.17919" lon="29.74332">
        <ele>279.2</ele>
      </trkpt>
      <trkpt lat="36.17964" lon="29.74369">
        <ele>280.3</ele>
      </trkpt>
      <trkpt lat="36.18124" lon="29.74577">
        <ele>291.4</ele>
      </trkpt>
      <trkpt lat="36.18157" lon="29.74649">
        <ele>289.4</ele>
      </trkpt>
      <trkpt lat="36.18211" lon="29.74717">
        <ele>290.5</ele>
      </trkpt>
      <trkpt lat="36.18312" lon="29.7479">
        <ele>294.1</ele>
      </trkpt>
      <trkpt lat="36.18328" lon="29.74805">
        <ele>293.4</ele>
      </trkpt>
      <trkpt lat="36.18382" lon="29.74861">
        <ele>294.6</ele>
      </trkpt>
      <trkpt lat="36.1842" lon="29.74896">
        <ele>293.7</ele>
      </trkpt>
      <trkpt lat="36.18455" lon="29.74923">
        <ele>293</ele>
      </trkpt>
      <trkpt lat="36.18471" lon="29.74933">
        <ele>294</ele>
      </trkpt>
      <trkpt lat="36.18563" lon="29.74956">
        <ele>294.6</ele>
      </trkpt>
      <trkpt lat="36.18607" lon="29.74963">
        <ele>294.1</ele>
      </trkpt>
      <trkpt lat="36.18647" lon="29.74977">
        <ele>293.2</ele>
      </trkpt>
      <trkpt lat="36.18715" lon="29.75009">
        <ele>293.7</ele>
      </trkpt>
      <trkpt lat="36.18738" lon="29.7502">
        <ele>295</ele>
      </trkpt>
      <trkpt lat="36.1876" lon="29.75038">
        <ele>296.3</ele>
      </trkpt>
      <trkpt lat="36.18873" lon="29.75097">
        <ele>297.1</ele>
      </trkpt>
      <trkpt lat="36.18901" lon="29.75112">
        <ele>297.5</ele>
      </trkpt>
      <trkpt lat="36.18918" lon="29.75126">
        <ele>298</ele>
      </trkpt>
      <trkpt lat="36.18998" lon="29.75215">
        <ele>298.5</ele>
      </trkpt>
      <trkpt lat="36.19027" lon="29.75249">
        <ele>298.7</ele>
      </trkpt>
      <trkpt lat="36.19062" lon="29.753">
        <ele>298.1</ele>
      </trkpt>
      <trkpt lat="36.19085" lon="29.75327">
        <ele>296.9</ele>
      </trkpt>
      <trkpt lat="36.19061" lon="29.75339">
        <ele>299</ele>
      </trkpt>
      <trkpt lat="36.19044" lon="29.7535">
        <ele>300.8</ele>
      </trkpt>
      <trkpt lat="36.19006" lon="29.7542">
        <ele>306.5</ele>
      </trkpt>
      <trkpt lat="36.18992" lon="29.75431">
        <ele>308</ele>
      </trkpt>
      <trkpt lat="36.18981" lon="29.75441">
        <ele>309.1</ele>
      </trkpt>
      <trkpt lat="36.18965" lon="29.75447">
        <ele>310.8</ele>
      </trkpt>
      <trkpt lat="36.18952" lon="29.75462">
        <ele>312.2</ele>
      </trkpt>
      <trkpt lat="36.18943" lon="29.75473">
        <ele>313.2</ele>
      </trkpt>
      <trkpt lat="36.18935" lon="29.7548">
        <ele>314</ele>
      </trkpt>
      <trkpt lat="36.18922" lon="29.7548">
        <ele>315.2</ele>
      </trkpt>
      <trkpt lat="36.18901" lon="29.7549">
        <ele>318.8</ele>
      </trkpt>
      <trkpt lat="36.18883" lon="29.75494">
        <ele>322.3</ele>
      </trkpt>
      <trkpt lat="36.18873" lon="29.755">
        <ele>324.3</ele>
      </trkpt>
      <trkpt lat="36.18866" lon="29.7551">
        <ele>325.3</ele>
      </trkpt>
      <trkpt lat="36.18862" lon="29.75529">
        <ele>325.6</ele>
      </trkpt>
      <trkpt lat="36.18856" lon="29.75547">
        <ele>326</ele>
      </trkpt>
      <trkpt lat="36.1884" lon="29.75582">
        <ele>327.9</ele>
      </trkpt>
      <trkpt lat="36.1883" lon="29.75602">
        <ele>329</ele>
      </trkpt>
      <trkpt lat="36.18816" lon="29.75617">
        <ele>332.2</ele>
      </trkpt>
      <trkpt lat="36.18796" lon="29.75652">
        <ele>335.2</ele>
      </trkpt>
      <trkpt lat="36.1877" lon="29.75692">
        <ele>336.4</ele>
      </trkpt>
      <trkpt lat="36.18732" lon="29.75744">
        <ele>337.7</ele>
      </trkpt>
      <trkpt lat="36.18704" lon="29.75783">
        <ele>336.6</ele>
      </trkpt>
      <trkpt lat="36.18689" lon="29.758">
        <ele>336.1</ele>
      </trkpt>
      <trkpt lat="36.18674" lon="29.7582">
        <ele>334.7</ele>
      </trkpt>
      <trkpt lat="36.18653" lon="29.75839">
        <ele>334.5</ele>
      </trkpt>
      <trkpt lat="36.18627" lon="29.75854">
        <ele>336.2</ele>
      </trkpt>
      <trkpt lat="36.18603" lon="29.75862">
        <ele>338.4</ele>
      </trkpt>
      <trkpt lat="36.18584" lon="29.75868">
        <ele>340.1</ele>
      </trkpt>
      <trkpt lat="36.18564" lon="29.75876">
        <ele>339.6</ele>
      </trkpt>
      <trkpt lat="36.18544" lon="29.75878">
        <ele>340.7</ele>
      </trkpt>
      <trkpt lat="36.18516" lon="29.75875">
        <ele>343.3</ele>
      </trkpt>
      <trkpt lat="36.18489" lon="29.75879">
        <ele>342.6</ele>
      </trkpt>
      <trkpt lat="36.18471" lon="29.75889">
        <ele>339.5</ele>
      </trkpt>
      <trkpt lat="36.18469" lon="29.75905">
        <ele>337.6</ele>
      </trkpt>
      <trkpt lat="36.18468" lon="29.75916">
        <ele>336.4</ele>
      </trkpt>
      <trkpt lat="36.18472" lon="29.75933">
        <ele>337.1</ele>
      </trkpt>
      <trkpt lat="36.18469" lon="29.75955">
        <ele>338.1</ele>
      </trkpt>
      <trkpt lat="36.18474" lon="29.75983">
        <ele>339.5</ele>
      </trkpt>
      <trkpt lat="36.18467" lon="29.75999">
        <ele>340.1</ele>
      </trkpt>
      <trkpt lat="36.18459" lon="29.7607">
        <ele>338.9</ele>
      </trkpt>
      <trkpt lat="36.18453" lon="29.76098">
        <ele>337.7</ele>
      </trkpt>
      <trkpt lat="36.18451" lon="29.76124">
        <ele>337.5</ele>
      </trkpt>
      <trkpt lat="36.18453" lon="29.76149">
        <ele>337.8</ele>
      </trkpt>
      <trkpt lat="36.18421" lon="29.76212">
        <ele>332.3</ele>
      </trkpt>
      <trkpt lat="36.18413" lon="29.76241">
        <ele>331.7</ele>
      </trkpt>
      <trkpt lat="36.18416" lon="29.76299">
        <ele>332.7</ele>
      </trkpt>
      <trkpt lat="36.18418" lon="29.76345">
        <ele>333.1</ele>
      </trkpt>
      <trkpt lat="36.18418" lon="29.76403">
        <ele>330.1</ele>
      </trkpt>
      <trkpt lat="36.18403" lon="29.76468">
        <ele>325.8</ele>
      </trkpt>
      <trkpt lat="36.18403" lon="29.76501">
        <ele>325.4</ele>
      </trkpt>
      <trkpt lat="36.18428" lon="29.76577">
        <ele>331.1</ele>
      </trkpt>
      <trkpt lat="36.18422" lon="29.76615">
        <ele>329.6</ele>
      </trkpt>
      <trkpt lat="36.1844" lon="29.76639">
        <ele>333.2</ele>
      </trkpt>
      <trkpt lat="36.18448" lon="29.76659">
        <ele>334.2</ele>
      </trkpt>
      <trkpt lat="36.1846" lon="29.76686">
        <ele>336.3</ele>
      </trkpt>
      <trkpt lat="36.18474" lon="29.767">
        <ele>338.2</ele>
      </trkpt>
      <trkpt lat="36.18485" lon="29.7673">
        <ele>339.4</ele>
      </trkpt>
      <trkpt lat="36.185" lon="29.76765">
        <ele>340.3</ele>
      </trkpt>
      <trkpt lat="36.18513" lon="29.76774">
        <ele>342.9</ele>
      </trkpt>
      <trkpt lat="36.18539" lon="29.76785">
        <ele>347.1</ele>
      </trkpt>
      <trkpt lat="36.18554" lon="29.76791">
        <ele>349.1</ele>
      </trkpt>
      <trkpt lat="36.18559" lon="29.76807">
        <ele>348.6</ele>
      </trkpt>
      <trkpt lat="36.18567" lon="29.76843">
        <ele>346.7</ele>
      </trkpt>
      <trkpt lat="36.1858" lon="29.76856">
        <ele>347.3</ele>
      </trkpt>
      <trkpt lat="36.18581" lon="29.7688">
        <ele>346.8</ele>
      </trkpt>
      <trkpt lat="36.18579" lon="29.76892">
        <ele>346.5</ele>
      </trkpt>
      <trkpt lat="36.18585" lon="29.76902">
        <ele>346.5</ele>
      </trkpt>
      <trkpt lat="36.18595" lon="29.76905">
        <ele>347.5</ele>
      </trkpt>
      <trkpt lat="36.18597" lon="29.76926">
        <ele>347.5</ele>
      </trkpt>
      <trkpt lat="36.18592" lon="29.7695">
        <ele>348.1</ele>
      </trkpt>
      <trkpt lat="36.1859" lon="29.76965">
        <ele>348.6</ele>
      </trkpt>
      <trkpt lat="36.18591" lon="29.76979">
        <ele>349.2</ele>
      </trkpt>
      <trkpt lat="36.18596" lon="29.77001">
        <ele>350.3</ele>
      </trkpt>
      <trkpt lat="36.18594" lon="29.77014">
        <ele>352.4</ele>
      </trkpt>
      <trkpt lat="36.18588" lon="29.77022">
        <ele>353.9</ele>
      </trkpt>
      <trkpt lat="36.18576" lon="29.7703">
        <ele>356.1</ele>
      </trkpt>
      <trkpt lat="36.18568" lon="29.77032">
        <ele>357.1</ele>
      </trkpt>
      <trkpt lat="36.18555" lon="29.77041">
        <ele>360</ele>
      </trkpt>
      <trkpt lat="36.18502" lon="29.77001">
        <ele>358</ele>
      </trkpt>
      <trkpt lat="36.18487" lon="29.76994">
        <ele>357.5</ele>
      </trkpt>
      <trkpt lat="36.18465" lon="29.76995">
        <ele>358.1</ele>
      </trkpt>
      <trkpt lat="36.18439" lon="29.77003">
        <ele>359.8</ele>
      </trkpt>
      <trkpt lat="36.18417" lon="29.77013">
        <ele>361.2</ele>
      </trkpt>
      <trkpt lat="36.18401" lon="29.7703">
        <ele>361.9</ele>
      </trkpt>
      <trkpt lat="36.18384" lon="29.77025">
        <ele>360.4</ele>
      </trkpt>
      <trkpt lat="36.18368" lon="29.77023">
        <ele>359.2</ele>
      </trkpt>
      <trkpt lat="36.18352" lon="29.77018">
        <ele>357.9</ele>
      </trkpt>
      <trkpt lat="36.18329" lon="29.77036">
        <ele>357.5</ele>
      </trkpt>
      <trkpt lat="36.18298" lon="29.77055">
        <ele>357</ele>
      </trkpt>
      <trkpt lat="36.18264" lon="29.77064">
        <ele>355.8</ele>
      </trkpt>
      <trkpt lat="36.18181" lon="29.77125">
        <ele>354.5</ele>
      </trkpt>
      <trkpt lat="36.18166" lon="29.77136">
        <ele>354</ele>
      </trkpt>
      <trkpt lat="36.18141" lon="29.77152">
        <ele>353.9</ele>
      </trkpt>
      <trkpt lat="36.18116" lon="29.77181">
        <ele>354.4</ele>
      </trkpt>
      <trkpt lat="36.18102" lon="29.77191">
        <ele>354.6</ele>
      </trkpt>
      <trkpt lat="36.18083" lon="29.77197">
        <ele>354.7</ele>
      </trkpt>
      <trkpt lat="36.18061" lon="29.77198">
        <ele>357.2</ele>
      </trkpt>
      <trkpt lat="36.18039" lon="29.77207">
        <ele>359.3</ele>
      </trkpt>
      <trkpt lat="36.18005" lon="29.77215">
        <ele>362.1</ele>
      </trkpt>
      <trkpt lat="36.17985" lon="29.77232">
        <ele>363.5</ele>
      </trkpt>
      <trkpt lat="36.17968" lon="29.7724">
        <ele>365.2</ele>
      </trkpt>
      <trkpt lat="36.17948" lon="29.77242">
        <ele>367.9</ele>
      </trkpt>
      <trkpt lat="36.17926" lon="29.77239">
        <ele>371.2</ele>
      </trkpt>
      <trkpt lat="36.17907" lon="29.77231">
        <ele>373.4</ele>
      </trkpt>
      <trkpt lat="36.17883" lon="29.77221">
        <ele>373.7</ele>
      </trkpt>
      <trkpt lat="36.17871" lon="29.77221">
        <ele>373.1</ele>
      </trkpt>
      <trkpt lat="36.17853" lon="29.77221">
        <ele>372.2</ele>
      </trkpt>
      <trkpt lat="36.17846" lon="29.77213">
        <ele>372.1</ele>
      </trkpt>
      <trkpt lat="36.17812" lon="29.77209">
        <ele>367.8</ele>
      </trkpt>
      <trkpt lat="36.1779" lon="29.77211">
        <ele>364.2</ele>
      </trkpt>
      <trkpt lat="36.17772" lon="29.77224">
        <ele>361.1</ele>
      </trkpt>
      <trkpt lat="36.1775" lon="29.77249">
        <ele>357</ele>
      </trkpt>
      <trkpt lat="36.17734" lon="29.77259">
        <ele>353.5</ele>
      </trkpt>
      <trkpt lat="36.17723" lon="29.77274">
        <ele>351.1</ele>
      </trkpt>
      <trkpt lat="36.17708" lon="29.77277">
        <ele>347.8</ele>
      </trkpt>
      <trkpt lat="36.17702" lon="29.77274">
        <ele>346.5</ele>
      </trkpt>
      <trkpt lat="36.17678" lon="29.77262">
        <ele>341.8</ele>
      </trkpt>
      <trkpt lat="36.17662" lon="29.77238">
        <ele>339.7</ele>
      </trkpt>
      <trkpt lat="36.17645" lon="29.77218">
        <ele>337.8</ele>
      </trkpt>
      <trkpt lat="36.17622" lon="29.77247">
        <ele>330.6</ele>
      </trkpt>
      <trkpt lat="36.17608" lon="29.77281">
        <ele>325.6</ele>
      </trkpt>
      <trkpt lat="36.17596" lon="29.773">
        <ele>321.9</ele>
      </trkpt>
      <trkpt lat="36.17597" lon="29.77319">
        <ele>321</ele>
      </trkpt>
      <trkpt lat="36.17601" lon="29.77334">
        <ele>321.3</ele>
      </trkpt>
      <trkpt lat="36.17594" lon="29.77337">
        <ele>319.5</ele>
      </trkpt>
      <trkpt lat="36.17588" lon="29.77349">
        <ele>317.9</ele>
      </trkpt>
      <trkpt lat="36.17588" lon="29.7736">
        <ele>317.5</ele>
      </trkpt>
      <trkpt lat="36.17583" lon="29.77356">
        <ele>316.4</ele>
      </trkpt>
      <trkpt lat="36.17584" lon="29.77347">
        <ele>316.7</ele>
      </trkpt>
      <trkpt lat="36.1758" lon="29.77349">
        <ele>316.1</ele>
      </trkpt>
      <trkpt lat="36.17575" lon="29.77358">
        <ele>315.3</ele>
      </trkpt>
      <trkpt lat="36.17565" lon="29.77361">
        <ele>313.8</ele>
      </trkpt>
      <trkpt lat="36.17555" lon="29.77368">
        <ele>312.2</ele>
      </trkpt>
      <trkpt lat="36.17546" lon="29.77373">
        <ele>310.9</ele>
      </trkpt>
      <trkpt lat="36.17534" lon="29.77377">
        <ele>309.2</ele>
      </trkpt>
      <trkpt lat="36.17531" lon="29.77383">
        <ele>308.5</ele>
      </trkpt>
      <trkpt lat="36.17523" lon="29.77385">
        <ele>307.3</ele>
      </trkpt>
      <trkpt lat="36.17509" lon="29.77383">
        <ele>305.4</ele>
      </trkpt>
      <trkpt lat="36.17497" lon="29.77385">
        <ele>303.8</ele>
      </trkpt>
      <trkpt lat="36.17488" lon="29.77394">
        <ele>302.6</ele>
      </trkpt>
      <trkpt lat="36.17472" lon="29.77396">
        <ele>300.9</ele>
      </trkpt>
      <trkpt lat="36.17461" lon="29.77402">
        <ele>299.7</ele>
      </trkpt>
      <trkpt lat="36.17451" lon="29.77404">
        <ele>298.7</ele>
      </trkpt>
      <trkpt lat="36.17443" lon="29.77411">
        <ele>297.7</ele>
      </trkpt>
      <trkpt lat="36.17435" lon="29.77411">
        <ele>296.9</ele>
      </trkpt>
      <trkpt lat="36.17414" lon="29.77415">
        <ele>294.8</ele>
      </trkpt>
      <trkpt lat="36.17403" lon="29.77422">
        <ele>293.8</ele>
      </trkpt>
      <trkpt lat="36.17391" lon="29.77428">
        <ele>292.8</ele>
      </trkpt>
      <trkpt lat="36.17381" lon="29.77447">
        <ele>292.2</ele>
      </trkpt>
      <trkpt lat="36.17374" lon="29.77468">
        <ele>291.8</ele>
      </trkpt>
      <trkpt lat="36.17373" lon="29.77496">
        <ele>292.1</ele>
      </trkpt>
      <trkpt lat="36.17367" lon="29.77504">
        <ele>290.9</ele>
      </trkpt>
      <trkpt lat="36.1737" lon="29.77517">
        <ele>289.8</ele>
      </trkpt>
      <trkpt lat="36.17373" lon="29.77529">
        <ele>289.2</ele>
      </trkpt>
      <trkpt lat="36.17378" lon="29.77547">
        <ele>288.3</ele>
      </trkpt>
      <trkpt lat="36.17369" lon="29.77556">
        <ele>285.7</ele>
      </trkpt>
      <trkpt lat="36.17368" lon="29.77564">
        <ele>284.7</ele>
      </trkpt>
      <trkpt lat="36.17371" lon="29.77581">
        <ele>283.4</ele>
      </trkpt>
      <trkpt lat="36.17369" lon="29.77599">
        <ele>279.9</ele>
      </trkpt>
      <trkpt lat="36.17372" lon="29.77612">
        <ele>278.1</ele>
      </trkpt>
      <trkpt lat="36.17374" lon="29.77619">
        <ele>277.1</ele>
      </trkpt>
      <trkpt lat="36.17368" lon="29.77627">
        <ele>274.7</ele>
      </trkpt>
      <trkpt lat="36.17356" lon="29.77631">
        <ele>272</ele>
      </trkpt>
      <trkpt lat="36.17344" lon="29.77639">
        <ele>268.9</ele>
      </trkpt>
      <trkpt lat="36.17341" lon="29.77644">
        <ele>267.7</ele>
      </trkpt>
      <trkpt lat="36.17343" lon="29.77652">
        <ele>266.7</ele>
      </trkpt>
      <trkpt lat="36.1734" lon="29.77655">
        <ele>265.8</ele>
      </trkpt>
      <trkpt lat="36.17336" lon="29.77651">
        <ele>265.9</ele>
      </trkpt>
      <trkpt lat="36.17334" lon="29.77657">
        <ele>264.5</ele>
      </trkpt>
      <trkpt lat="36.17332" lon="29.77667">
        <ele>262.9</ele>
      </trkpt>
      <trkpt lat="36.17334" lon="29.77672">
        <ele>262.7</ele>
      </trkpt>
      <trkpt lat="36.17334" lon="29.77675">
        <ele>262.3</ele>
      </trkpt>
      <trkpt lat="36.17329" lon="29.77676">
        <ele>262</ele>
      </trkpt>
      <trkpt lat="36.17326" lon="29.77682">
        <ele>261.3</ele>
      </trkpt>
      <trkpt lat="36.17329" lon="29.77693">
        <ele>260.6</ele>
      </trkpt>
      <trkpt lat="36.17336" lon="29.77696">
        <ele>260.8</ele>
      </trkpt>
      <trkpt lat="36.17336" lon="29.77714">
        <ele>259.3</ele>
      </trkpt>
      <trkpt lat="36.17341" lon="29.7772">
        <ele>259.2</ele>
      </trkpt>
      <trkpt lat="36.1734" lon="29.77736">
        <ele>257.7</ele>
      </trkpt>
      <trkpt lat="36.17336" lon="29.77752">
        <ele>256.1</ele>
      </trkpt>
      <trkpt lat="36.1734" lon="29.77773">
        <ele>255.5</ele>
      </trkpt>
      <trkpt lat="36.17336" lon="29.77782">
        <ele>255</ele>
      </trkpt>
      <trkpt lat="36.17335" lon="29.77795">
        <ele>254.4</ele>
      </trkpt>
      <trkpt lat="36.17336" lon="29.77811">
        <ele>253.8</ele>
      </trkpt>
      <trkpt lat="36.17329" lon="29.77823">
        <ele>253.3</ele>
      </trkpt>
      <trkpt lat="36.17329" lon="29.77835">
        <ele>252.8</ele>
      </trkpt>
      <trkpt lat="36.17326" lon="29.77837">
        <ele>252.6</ele>
      </trkpt>
      <trkpt lat="36.17323" lon="29.77848">
        <ele>251.6</ele>
      </trkpt>
      <trkpt lat="36.17314" lon="29.7785">
        <ele>251.3</ele>
      </trkpt>
      <trkpt lat="36.17307" lon="29.77864">
        <ele>250</ele>
      </trkpt>
      <trkpt lat="36.17291" lon="29.77887">
        <ele>247.7</ele>
      </trkpt>
      <trkpt lat="36.17276" lon="29.77907">
        <ele>245.6</ele>
      </trkpt>
      <trkpt lat="36.17266" lon="29.77912">
        <ele>244.9</ele>
      </trkpt>
      <trkpt lat="36.17267" lon="29.77922">
        <ele>244.1</ele>
      </trkpt>
      <trkpt lat="36.17262" lon="29.77933">
        <ele>243.4</ele>
      </trkpt>
      <trkpt lat="36.17263" lon="29.77946">
        <ele>242.7</ele>
      </trkpt>
      <trkpt lat="36.17264" lon="29.77957">
        <ele>242.2</ele>
      </trkpt>
      <trkpt lat="36.17269" lon="29.7797">
        <ele>241.7</ele>
      </trkpt>
      <trkpt lat="36.17269" lon="29.77977">
        <ele>241.3</ele>
      </trkpt>
      <trkpt lat="36.17234" lon="29.77992">
        <ele>237.5</ele>
      </trkpt>
      <trkpt lat="36.172" lon="29.77993">
        <ele>233.4</ele>
      </trkpt>
      <trkpt lat="36.17178" lon="29.78017">
        <ele>229.6</ele>
      </trkpt>
      <trkpt lat="36.1713" lon="29.78042">
        <ele>220.6</ele>
      </trkpt>
      <trkpt lat="36.17113" lon="29.78067">
        <ele>215.1</ele>
      </trkpt>
      <trkpt lat="36.17103" lon="29.78097">
        <ele>209.4</ele>
      </trkpt>
      <trkpt lat="36.17111" lon="29.78117">
        <ele>208.3</ele>
      </trkpt>
      <trkpt lat="36.17113" lon="29.78144">
        <ele>204.8</ele>
      </trkpt>
      <trkpt lat="36.17133" lon="29.7818">
        <ele>203.3</ele>
      </trkpt>
      <trkpt lat="36.1712" lon="29.78198">
        <ele>198.2</ele>
      </trkpt>
      <trkpt lat="36.17143" lon="29.78274">
        <ele>189.4</ele>
      </trkpt>
      <trkpt lat="36.17127" lon="29.78287">
        <ele>185.6</ele>
      </trkpt>
      <trkpt lat="36.17115" lon="29.78333">
        <ele>178.2</ele>
      </trkpt>
      <trkpt lat="36.17098" lon="29.7836">
        <ele>174.1</ele>
      </trkpt>
      <trkpt lat="36.17096" lon="29.78421">
        <ele>166.2</ele>
      </trkpt>
      <trkpt lat="36.17081" lon="29.78439">
        <ele>163.3</ele>
      </trkpt>
      <trkpt lat="36.17059" lon="29.78438">
        <ele>163.7</ele>
      </trkpt>
      <trkpt lat="36.17054" lon="29.78487">
        <ele>155.8</ele>
      </trkpt>
      <trkpt lat="36.17037" lon="29.78515">
        <ele>150.5</ele>
      </trkpt>
      <trkpt lat="36.17019" lon="29.7853">
        <ele>147.6</ele>
      </trkpt>
      <trkpt lat="36.17008" lon="29.78567">
        <ele>139.4</ele>
      </trkpt>
      <trkpt lat="36.17007" lon="29.78584">
        <ele>135.5</ele>
      </trkpt>
      <trkpt lat="36.16979" lon="29.786">
        <ele>131.5</ele>
      </trkpt>
      <trkpt lat="36.16917" lon="29.78591">
        <ele>132.1</ele>
      </trkpt>
      <trkpt lat="36.16899" lon="29.78585">
        <ele>130.7</ele>
      </trkpt>
      <trkpt lat="36.16879" lon="29.7856">
        <ele>131.1</ele>
      </trkpt>
      <trkpt lat="36.16846" lon="29.78536">
        <ele>127.4</ele>
      </trkpt>
      <trkpt lat="36.16828" lon="29.78537">
        <ele>123.9</ele>
      </trkpt>
      <trkpt lat="36.16808" lon="29.7851">
        <ele>124.2</ele>
      </trkpt>
      <trkpt lat="36.1678" lon="29.78509">
        <ele>121</ele>
      </trkpt>
      <trkpt lat="36.1675" lon="29.78514">
        <ele>117.5</ele>
      </trkpt>
      <trkpt lat="36.16725" lon="29.78506">
        <ele>116.1</ele>
      </trkpt>
      <trkpt lat="36.16699" lon="29.7851">
        <ele>114.2</ele>
      </trkpt>
      <trkpt lat="36.16665" lon="29.78503">
        <ele>111.8</ele>
      </trkpt>
      <trkpt lat="36.1665" lon="29.78489">
        <ele>110.4</ele>
      </trkpt>
      <trkpt lat="36.16629" lon="29.78482">
        <ele>108.4</ele>
      </trkpt>
      <trkpt lat="36.16617" lon="29.78475">
        <ele>107.2</ele>
      </trkpt>
      <trkpt lat="36.16578" lon="29.78461">
        <ele>103.6</ele>
      </trkpt>
      <trkpt lat="36.16568" lon="29.78455">
        <ele>102.7</ele>
      </trkpt>
      <trkpt lat="36.16534" lon="29.78446">
        <ele>99.8</ele>
      </trkpt>
      <trkpt lat="36.16515" lon="29.78438">
        <ele>98.2</ele>
      </trkpt>
      <trkpt lat="36.165" lon="29.78437">
        <ele>97</ele>
      </trkpt>
      <trkpt lat="36.16484" lon="29.78434">
        <ele>95.1</ele>
      </trkpt>
      <trkpt lat="36.16476" lon="29.78428">
        <ele>94.2</ele>
      </trkpt>
      <trkpt lat="36.16461" lon="29.78428">
        <ele>92.3</ele>
      </trkpt>
      <trkpt lat="36.16445" lon="29.78427">
        <ele>90.3</ele>
      </trkpt>
      <trkpt lat="36.16422" lon="29.78439">
        <ele>87.6</ele>
      </trkpt>
      <trkpt lat="36.16393" lon="29.78433">
        <ele>85.9</ele>
      </trkpt>
      <trkpt lat="36.16372" lon="29.78419">
        <ele>84.9</ele>
      </trkpt>
      <trkpt lat="36.16354" lon="29.78396">
        <ele>84</ele>
      </trkpt>
      <trkpt lat="36.16334" lon="29.78397">
        <ele>83</ele>
      </trkpt>
      <trkpt lat="36.16308" lon="29.78391">
        <ele>83.3</ele>
      </trkpt>
      <trkpt lat="36.16297" lon="29.78387">
        <ele>83.2</ele>
      </trkpt>
      <trkpt lat="36.1628" lon="29.7837">
        <ele>82.4</ele>
      </trkpt>
      <trkpt lat="36.16256" lon="29.78311">
        <ele>78.3</ele>
      </trkpt>
      <trkpt lat="36.16252" lon="29.78297">
        <ele>77.4</ele>
      </trkpt>
      <trkpt lat="36.16241" lon="29.78257">
        <ele>74.8</ele>
      </trkpt>
      <trkpt lat="36.16229" lon="29.78237">
        <ele>73.7</ele>
      </trkpt>
      <trkpt lat="36.16219" lon="29.78235">
        <ele>73</ele>
      </trkpt>
      <trkpt lat="36.16214" lon="29.78226">
        <ele>72.6</ele>
      </trkpt>
      <trkpt lat="36.16191" lon="29.78218">
        <ele>70.9</ele>
      </trkpt>
      <trkpt lat="36.16178" lon="29.78218">
        <ele>70</ele>
      </trkpt>
      <trkpt lat="36.16122" lon="29.78226">
        <ele>65.8</ele>
      </trkpt>
      <trkpt lat="36.16076" lon="29.78263">
        <ele>62</ele>
      </trkpt>
      <trkpt lat="36.16052" lon="29.78274">
        <ele>58.6</ele>
      </trkpt>
      <trkpt lat="36.16013" lon="29.78282">
        <ele>52.4</ele>
      </trkpt>
      <trkpt lat="36.15993" lon="29.78316">
        <ele>47.1</ele>
      </trkpt>
      <trkpt lat="36.15979" lon="29.78393">
        <ele>37.3</ele>
      </trkpt>
      <trkpt lat="36.15991" lon="29.78442">
        <ele>35.5</ele>
      </trkpt>
      <trkpt lat="36.15983" lon="29.78446">
        <ele>32.6</ele>
      </trkpt>
      <trkpt lat="36.15971" lon="29.7842">
        <ele>32.5</ele>
      </trkpt>
      <trkpt lat="36.15955" lon="29.78419">
        <ele>27.7</ele>
      </trkpt>
      <trkpt lat="36.15953" lon="29.78478">
        <ele>19.8</ele>
      </trkpt>
      <trkpt lat="36.15941" lon="29.78489">
        <ele>14.9</ele>
      </trkpt>
      <trkpt lat="36.15944" lon="29.78529">
        <ele>12</ele>
      </trkpt>
      <trkpt lat="36.15933" lon="29.78566">
        <ele>6.3</ele>
      </trkpt>
      <trkpt lat="36.15934" lon="29.78604">
        <ele>5.1</ele>
      </trkpt>
      <trkpt lat="36.15935" lon="29.78636">
        <ele>5.1</ele>
      </trkpt>
      <trkpt lat="36.15943" lon="29.78644">
        <ele>6.3</ele>
      </trkpt>
      <trkpt lat="36.15949" lon="29.787">
        <ele>6.9</ele>
      </trkpt>
      <trkpt lat="36.15946" lon="29.78713">
        <ele>6.4</ele>
      </trkpt>
      <trkpt lat="36.15946" lon="29.78723">
        <ele>6.3</ele>
      </trkpt>
      <trkpt lat="36.15955" lon="29.78767">
        <ele>9.3</ele>
      </trkpt>
      <trkpt lat="36.15944" lon="29.78805">
        <ele>11.9</ele>
      </trkpt>
      <trkpt lat="36.15944" lon="29.78807">
        <ele>12.1</ele>
      </trkpt>
      <trkpt lat="36.15953" lon="29.78809">
        <ele>12.8</ele>
      </trkpt>
      <trkpt lat="36.15957" lon="29.78827">
        <ele>14.5</ele>
      </trkpt>
      <trkpt lat="36.15953" lon="29.7887">
        <ele>11.4</ele>
      </trkpt>
      <trkpt lat="36.15961" lon="29.789">
        <ele>9.3</ele>
      </trkpt>
      <trkpt lat="36.15957" lon="29.78931">
        <ele>7.3</ele>
      </trkpt>
      <trkpt lat="36.15962" lon="29.78962">
        <ele>7.6</ele>
      </trkpt>
      <trkpt lat="36.15957" lon="29.78978">
        <ele>7</ele>
      </trkpt>
      <trkpt lat="36.15959" lon="29.79006">
        <ele>6.9</ele>
      </trkpt>
      <trkpt lat="36.15972" lon="29.79028">
        <ele>7.1</ele>
      </trkpt>
      <trkpt lat="36.15994" lon="29.79073">
        <ele>5.6</ele>
      </trkpt>
      <trkpt lat="36.16" lon="29.79094">
        <ele>5.1</ele>
      </trkpt>
      <trkpt lat="36.1601" lon="29.7911">
        <ele>6.5</ele>
      </trkpt>
      <trkpt lat="36.16019" lon="29.7915">
        <ele>7.3</ele>
      </trkpt>
      <trkpt lat="36.16079" lon="29.79313">
        <ele>6.9</ele>
      </trkpt>
      <trkpt lat="36.16097" lon="29.79371">
        <ele>7.4</ele>
      </trkpt>
      <trkpt lat="36.16142" lon="29.79495">
        <ele>8.3</ele>
      </trkpt>
      <trkpt lat="36.16185" lon="29.79612">
        <ele>6.5</ele>
      </trkpt>
      <trkpt lat="36.16236" lon="29.79673">
        <ele>6</ele>
      </trkpt>
      <trkpt lat="36.16248" lon="29.7969">
        <ele>6</ele>
      </trkpt>
      <trkpt lat="36.16261" lon="29.79708">
        <ele>6.7</ele>
      </trkpt>
      <trkpt lat="36.1629" lon="29.7973">
        <ele>8.3</ele>
      </trkpt>
      <trkpt lat="36.16307" lon="29.79743">
        <ele>8.9</ele>
      </trkpt>
      <trkpt lat="36.16322" lon="29.7976">
        <ele>9.5</ele>
      </trkpt>
      <trkpt lat="36.16341" lon="29.79787">
        <ele>10.8</ele>
      </trkpt>
      <trkpt lat="36.16353" lon="29.79808">
        <ele>11.8</ele>
      </trkpt>
      <trkpt lat="36.16371" lon="29.79844">
        <ele>12.9</ele>
      </trkpt>
      <trkpt lat="36.16391" lon="29.79894">
        <ele>12.6</ele>
      </trkpt>
      <trkpt lat="36.16392" lon="29.7991">
        <ele>12</ele>
      </trkpt>
      <trkpt lat="36.16404" lon="29.79934">
        <ele>11.1</ele>
      </trkpt>
      <trkpt lat="36.16405" lon="29.79956">
        <ele>9.3</ele>
      </trkpt>
      <trkpt lat="36.16396" lon="29.79978">
        <ele>7.4</ele>
      </trkpt>
      <trkpt lat="36.16394" lon="29.79992">
        <ele>6.3</ele>
      </trkpt>
      <trkpt lat="36.16393" lon="29.80033">
        <ele>4.4</ele>
      </trkpt>
      <trkpt lat="36.16399" lon="29.8004">
        <ele>4.1</ele>
      </trkpt>
      <trkpt lat="36.16406" lon="29.80044">
        <ele>3.9</ele>
      </trkpt>
      <trkpt lat="36.16427" lon="29.80039">
        <ele>4</ele>
      </trkpt>
      <trkpt lat="36.16456" lon="29.80027">
        <ele>3.9</ele>
      </trkpt>
      <trkpt lat="36.1647" lon="29.80015">
        <ele>4.1</ele>
      </trkpt>
      <trkpt lat="36.1649" lon="29.80011">
        <ele>3.8</ele>
      </trkpt>
      <trkpt lat="36.16511" lon="29.79974">
        <ele>7.3</ele>
      </trkpt>
      <trkpt lat="36.16507" lon="29.79919">
        <ele>11.3</ele>
      </trkpt>
      <trkpt lat="36.16521" lon="29.79842">
        <ele>15.2</ele>
      </trkpt>
      <trkpt lat="36.16555" lon="29.79807">
        <ele>16.8</ele>
      </trkpt>
      <trkpt lat="36.16605" lon="29.79771">
        <ele>19.9</ele>
      </trkpt>
      <trkpt lat="36.16669" lon="29.79767">
        <ele>25.9</ele>
      </trkpt>
      <trkpt lat="36.16735" lon="29.79802">
        <ele>38.8</ele>
      </trkpt>
      <trkpt lat="36.16795" lon="29.79851">
        <ele>50</ele>
      </trkpt>
      <trkpt lat="36.16858" lon="29.79946">
        <ele>61.8</ele>
      </trkpt>
      <trkpt lat="36.16913" lon="29.80009">
        <ele>69.4</ele>
      </trkpt>
      <trkpt lat="36.16961" lon="29.80018">
        <ele>72.4</ele>
      </trkpt>
      <trkpt lat="36.17028" lon="29.8003">
        <ele>77</ele>
      </trkpt>
      <trkpt lat="36.17065" lon="29.80076">
        <ele>78.5</ele>
      </trkpt>
      <trkpt lat="36.17282" lon="29.80243">
        <ele>79.4</ele>
      </trkpt>
      <trkpt lat="36.17344" lon="29.80304">
        <ele>77.2</ele>
      </trkpt>
      <trkpt lat="36.17472" lon="29.80426">
        <ele>72.8</ele>
      </trkpt>
      <trkpt lat="36.17565" lon="29.80491">
        <ele>73.7</ele>
      </trkpt>
      <trkpt lat="36.17671" lon="29.80603">
        <ele>73</ele>
      </trkpt>
      <trkpt lat="36.17776" lon="29.80732">
        <ele>72.4</ele>
      </trkpt>
      <trkpt lat="36.1788" lon="29.80901">
        <ele>72.1</ele>
      </trkpt>
      <trkpt lat="36.17907" lon="29.80947">
        <ele>71.1</ele>
      </trkpt>
      <trkpt lat="36.17989" lon="29.81006">
        <ele>73</ele>
      </trkpt>
      <trkpt lat="36.18055" lon="29.81105">
        <ele>73.3</ele>
      </trkpt>
      <trkpt lat="36.18128" lon="29.81255">
        <ele>71.1</ele>
      </trkpt>
      <trkpt lat="36.18167" lon="29.81385">
        <ele>69.7</ele>
      </trkpt>
      <trkpt lat="36.18205" lon="29.81611">
        <ele>65.5</ele>
      </trkpt>
      <trkpt lat="36.18292" lon="29.81685">
        <ele>56.8</ele>
      </trkpt>
      <trkpt lat="36.1833" lon="29.81772">
        <ele>43.2</ele>
      </trkpt>
      <trkpt lat="36.18368" lon="29.81906">
        <ele>37.6</ele>
      </trkpt>
      <trkpt lat="36.18456" lon="29.82054">
        <ele>35</ele>
      </trkpt>
      <trkpt lat="36.18516" lon="29.82273">
        <ele>31.4</ele>
      </trkpt>
      <trkpt lat="36.18555" lon="29.82385">
        <ele>33.1</ele>
      </trkpt>
      <trkpt lat="36.18565" lon="29.82415">
        <ele>31.1</ele>
      </trkpt>
      <trkpt lat="36.1858" lon="29.82473">
        <ele>26.1</ele>
      </trkpt>
      <trkpt lat="36.18612" lon="29.82533">
        <ele>21</ele>
      </trkpt>
      <trkpt lat="36.18617" lon="29.82543">
        <ele>20.2</ele>
      </trkpt>
      <trkpt lat="36.18652" lon="29.82603">
        <ele>13.1</ele>
      </trkpt>
      <trkpt lat="36.18686" lon="29.82662">
        <ele>9.3</ele>
      </trkpt>
      <trkpt lat="36.1874" lon="29.82677">
        <ele>9</ele>
      </trkpt>
      <trkpt lat="36.18777" lon="29.827">
        <ele>13.4</ele>
      </trkpt>
      <trkpt lat="36.18845" lon="29.82752">
        <ele>9.9</ele>
      </trkpt>
      <trkpt lat="36.18887" lon="29.82792">
        <ele>14.4</ele>
      </trkpt>
      <trkpt lat="36.18887" lon="29.82851">
        <ele>11.1</ele>
      </trkpt>
      <trkpt lat="36.18899" lon="29.82896">
        <ele>10.1</ele>
      </trkpt>
      <trkpt lat="36.18921" lon="29.82915">
        <ele>12.8</ele>
      </trkpt>
      <trkpt lat="36.18928" lon="29.82976">
        <ele>15</ele>
      </trkpt>
      <trkpt lat="36.18967" lon="29.83128">
        <ele>15.6</ele>
      </trkpt>
      <trkpt lat="36.18973" lon="29.83136">
        <ele>15.5</ele>
      </trkpt>
      <trkpt lat="36.18999" lon="29.8317">
        <ele>12.5</ele>
      </trkpt>
      <trkpt lat="36.19037" lon="29.83195">
        <ele>19.2</ele>
      </trkpt>
      <trkpt lat="36.19103" lon="29.83309">
        <ele>15.6</ele>
      </trkpt>
      <trkpt lat="36.1917" lon="29.83433">
        <ele>16.5</ele>
      </trkpt>
      <trkpt lat="36.19186" lon="29.83509">
        <ele>10.5</ele>
      </trkpt>
      <trkpt lat="36.19221" lon="29.83584">
        <ele>8.2</ele>
      </trkpt>
      <trkpt lat="36.19274" lon="29.83632">
        <ele>9.1</ele>
      </trkpt>
      <trkpt lat="36.19285" lon="29.83658">
        <ele>7.9</ele>
      </trkpt>
      <trkpt lat="36.19305" lon="29.83702">
        <ele>6.5</ele>
      </trkpt>
      <trkpt lat="36.19302" lon="29.83753">
        <ele>4.4</ele>
      </trkpt>
      <trkpt lat="36.19335" lon="29.83769">
        <ele>5.2</ele>
      </trkpt>
      <trkpt lat="36.19359" lon="29.83822">
        <ele>4.1</ele>
      </trkpt>
      <trkpt lat="36.19383" lon="29.83833">
        <ele>5</ele>
      </trkpt>
      <trkpt lat="36.19408" lon="29.83823">
        <ele>7.1</ele>
      </trkpt>
      <trkpt lat="36.1942" lon="29.83846">
        <ele>6.3</ele>
      </trkpt>
      <trkpt lat="36.19501" lon="29.83924">
        <ele>7.8</ele>
      </trkpt>
      <trkpt lat="36.19536" lon="29.83998">
        <ele>9.7</ele>
      </trkpt>
      <trkpt lat="36.19568" lon="29.84045">
        <ele>13.1</ele>
      </trkpt>
      <trkpt lat="36.19569" lon="29.84081">
        <ele>12</ele>
      </trkpt>
      <trkpt lat="36.19591" lon="29.84092">
        <ele>14.6</ele>
      </trkpt>
      <trkpt lat="36.19616" lon="29.84139">
        <ele>15.7</ele>
      </trkpt>
      <trkpt lat="36.19618" lon="29.84206">
        <ele>13.1</ele>
      </trkpt>
      <trkpt lat="36.19619" lon="29.84268">
        <ele>10.9</ele>
      </trkpt>
      <trkpt lat="36.19647" lon="29.84328">
        <ele>10.7</ele>
      </trkpt>
      <trkpt lat="36.19641" lon="29.84342">
        <ele>9.5</ele>
      </trkpt>
      <trkpt lat="36.1963" lon="29.84347">
        <ele>8.4</ele>
      </trkpt>
      <trkpt lat="36.19633" lon="29.84357">
        <ele>8.4</ele>
      </trkpt>
      <trkpt lat="36.19623" lon="29.8439">
        <ele>6.3</ele>
      </trkpt>
      <trkpt lat="36.19634" lon="29.84417">
        <ele>6.2</ele>
      </trkpt>
      <trkpt lat="36.19648" lon="29.84433">
        <ele>7</ele>
      </trkpt>
      <trkpt lat="36.19651" lon="29.84459">
        <ele>6.8</ele>
      </trkpt>
      <trkpt lat="36.19655" lon="29.84475">
        <ele>6.7</ele>
      </trkpt>
      <trkpt lat="36.19655" lon="29.84498">
        <ele>6.2</ele>
      </trkpt>
      <trkpt lat="36.19659" lon="29.8451">
        <ele>6.6</ele>
      </trkpt>
      <trkpt lat="36.19665" lon="29.84534">
        <ele>7.7</ele>
      </trkpt>
      <trkpt lat="36.19676" lon="29.84563">
        <ele>9</ele>
      </trkpt>
      <trkpt lat="36.19683" lon="29.84577">
        <ele>9.7</ele>
      </trkpt>
      <trkpt lat="36.19684" lon="29.846">
        <ele>8.7</ele>
      </trkpt>
      <trkpt lat="36.19693" lon="29.84625">
        <ele>7.4</ele>
      </trkpt>
      <trkpt lat="36.19691" lon="29.84629">
        <ele>7</ele>
      </trkpt>
      <trkpt lat="36.19698" lon="29.84656">
        <ele>5.6</ele>
      </trkpt>
      <trkpt lat="36.19719" lon="29.84651">
        <ele>7.1</ele>
      </trkpt>
      <trkpt lat="36.19721" lon="29.84673">
        <ele>6.1</ele>
      </trkpt>
      <trkpt lat="36.19722" lon="29.84696">
        <ele>5.5</ele>
      </trkpt>
      <trkpt lat="36.19737" lon="29.84744">
        <ele>4.2</ele>
      </trkpt>
      <trkpt lat="36.19739" lon="29.84771">
        <ele>4.5</ele>
      </trkpt>
      <trkpt lat="36.19729" lon="29.84784">
        <ele>4.8</ele>
      </trkpt>
      <trkpt lat="36.19732" lon="29.84805">
        <ele>5.3</ele>
      </trkpt>
      <trkpt lat="36.19751" lon="29.84805">
        <ele>5.3</ele>
      </trkpt>
      <trkpt lat="36.19779" lon="29.84806">
        <ele>6.5</ele>
      </trkpt>
      <trkpt lat="36.19789" lon="29.84807">
        <ele>6.9</ele>
      </trkpt>
      <trkpt lat="36.19795" lon="29.84808">
        <ele>7.1</ele>
      </trkpt>
      <trkpt lat="36.19801" lon="29.8481">
        <ele>7.4</ele>
      </trkpt>
      <trkpt lat="36.19807" lon="29.84817">
        <ele>7.5</ele>
      </trkpt>
      <trkpt lat="36.19798" lon="29.84846">
        <ele>7.8</ele>
      </trkpt>
      <trkpt lat="36.19789" lon="29.8487">
        <ele>8.6</ele>
      </trkpt>
      <trkpt lat="36.19779" lon="29.84891">
        <ele>8.7</ele>
      </trkpt>
      <trkpt lat="36.19778" lon="29.8491">
        <ele>9.1</ele>
      </trkpt>
      <trkpt lat="36.19781" lon="29.84959">
        <ele>12</ele>
      </trkpt>
      <trkpt lat="36.19782" lon="29.8497">
        <ele>12.7</ele>
      </trkpt>
      <trkpt lat="36.19793" lon="29.84988">
        <ele>14.5</ele>
      </trkpt>
      <trkpt lat="36.19809" lon="29.85006">
        <ele>16.5</ele>
      </trkpt>
      <trkpt lat="36.19819" lon="29.85022">
        <ele>17.9</ele>
      </trkpt>
      <trkpt lat="36.19828" lon="29.85039">
        <ele>19.1</ele>
      </trkpt>
      <trkpt lat="36.19832" lon="29.85047">
        <ele>19.6</ele>
      </trkpt>
      <trkpt lat="36.19836" lon="29.85063">
        <ele>20.7</ele>
      </trkpt>
      <trkpt lat="36.19832" lon="29.85074">
        <ele>20.6</ele>
      </trkpt>
      <trkpt lat="36.19823" lon="29.8509">
        <ele>20.6</ele>
      </trkpt>
      <trkpt lat="36.19818" lon="29.851">
        <ele>20.5</ele>
      </trkpt>
      <trkpt lat="36.19819" lon="29.85113">
        <ele>20.5</ele>
      </trkpt>
      <trkpt lat="36.19817" lon="29.8513">
        <ele>20.4</ele>
      </trkpt>
      <trkpt lat="36.19814" lon="29.85147">
        <ele>20.2</ele>
      </trkpt>
      <trkpt lat="36.19816" lon="29.85157">
        <ele>20.4</ele>
      </trkpt>
      <trkpt lat="36.1983" lon="29.85182">
        <ele>21.8</ele>
      </trkpt>
      <trkpt lat="36.19845" lon="29.85228">
        <ele>25.7</ele>
      </trkpt>
      <trkpt lat="36.19851" lon="29.8526">
        <ele>28</ele>
      </trkpt>
      <trkpt lat="36.1985" lon="29.85307">
        <ele>29.2</ele>
      </trkpt>
      <trkpt lat="36.1985" lon="29.85343">
        <ele>29.6</ele>
      </trkpt>
      <trkpt lat="36.19847" lon="29.85364">
        <ele>28.7</ele>
      </trkpt>
      <trkpt lat="36.19847" lon="29.85384">
        <ele>28.4</ele>
      </trkpt>
      <trkpt lat="36.19851" lon="29.85395">
        <ele>29.5</ele>
      </trkpt>
      <trkpt lat="36.19865" lon="29.85414">
        <ele>33.1</ele>
      </trkpt>
      <trkpt lat="36.19881" lon="29.85435">
        <ele>36.1</ele>
      </trkpt>
      <trkpt lat="36.19885" lon="29.85451">
        <ele>36.1</ele>
      </trkpt>
      <trkpt lat="36.19878" lon="29.85466">
        <ele>33.9</ele>
      </trkpt>
      <trkpt lat="36.1987" lon="29.85496">
        <ele>31.6</ele>
      </trkpt>
      <trkpt lat="36.19873" lon="29.85523">
        <ele>33.5</ele>
      </trkpt>
      <trkpt lat="36.19866" lon="29.85543">
        <ele>34.2</ele>
      </trkpt>
      <trkpt lat="36.19863" lon="29.85565">
        <ele>35.6</ele>
      </trkpt>
      <trkpt lat="36.19863" lon="29.85611">
        <ele>37</ele>
      </trkpt>
      <trkpt lat="36.19857" lon="29.8564">
        <ele>35.8</ele>
      </trkpt>
      <trkpt lat="36.19846" lon="29.85678">
        <ele>34</ele>
      </trkpt>
      <trkpt lat="36.19842" lon="29.85692">
        <ele>33.9</ele>
      </trkpt>
      <trkpt lat="36.19852" lon="29.85714">
        <ele>37.3</ele>
      </trkpt>
      <trkpt lat="36.19857" lon="29.85729">
        <ele>39.5</ele>
      </trkpt>
      <trkpt lat="36.19856" lon="29.85743">
        <ele>40</ele>
      </trkpt>
      <trkpt lat="36.19848" lon="29.85763">
        <ele>39.5</ele>
      </trkpt>
      <trkpt lat="36.19845" lon="29.85792">
        <ele>41.5</ele>
      </trkpt>
      <trkpt lat="36.19846" lon="29.85823">
        <ele>44.8</ele>
      </trkpt>
      <trkpt lat="36.19852" lon="29.85835">
        <ele>46.8</ele>
      </trkpt>
      <trkpt lat="36.19861" lon="29.85848">
        <ele>47.5</ele>
      </trkpt>
      <trkpt lat="36.19866" lon="29.85857">
        <ele>47.4</ele>
      </trkpt>
      <trkpt lat="36.19864" lon="29.85865">
        <ele>46.3</ele>
      </trkpt>
      <trkpt lat="36.19857" lon="29.85873">
        <ele>44.1</ele>
      </trkpt>
      <trkpt lat="36.1984" lon="29.85881">
        <ele>40.2</ele>
      </trkpt>
      <trkpt lat="36.19832" lon="29.8589">
        <ele>37.9</ele>
      </trkpt>
      <trkpt lat="36.19825" lon="29.85901">
        <ele>36</ele>
      </trkpt>
      <trkpt lat="36.19812" lon="29.85921">
        <ele>32.9</ele>
      </trkpt>
      <trkpt lat="36.19805" lon="29.85939">
        <ele>30.8</ele>
      </trkpt>
      <trkpt lat="36.19777" lon="29.85953">
        <ele>25.7</ele>
      </trkpt>
      <trkpt lat="36.19773" lon="29.85994">
        <ele>21.7</ele>
      </trkpt>
      <trkpt lat="36.19783" lon="29.8609">
        <ele>23</ele>
      </trkpt>
      <trkpt lat="36.19785" lon="29.86145">
        <ele>22.3</ele>
      </trkpt>
      <trkpt lat="36.1978" lon="29.86201">
        <ele>19</ele>
      </trkpt>
      <trkpt lat="36.19759" lon="29.86271">
        <ele>12.3</ele>
      </trkpt>
      <trkpt lat="36.19757" lon="29.86293">
        <ele>11.3</ele>
      </trkpt>
      <trkpt lat="36.19759" lon="29.86314">
        <ele>11.2</ele>
      </trkpt>
      <trkpt lat="36.19756" lon="29.86328">
        <ele>10.4</ele>
      </trkpt>
      <trkpt lat="36.19749" lon="29.86341">
        <ele>9.2</ele>
      </trkpt>
      <trkpt lat="36.19719" lon="29.86362">
        <ele>7.2</ele>
      </trkpt>
      <trkpt lat="36.19708" lon="29.86375">
        <ele>6.5</ele>
      </trkpt>
      <trkpt lat="36.19702" lon="29.86404">
        <ele>6.5</ele>
      </trkpt>
      <trkpt lat="36.19672" lon="29.86437">
        <ele>3.9</ele>
      </trkpt>
      <trkpt lat="36.19641" lon="29.86455">
        <ele>2.9</ele>
      </trkpt>
      <trkpt lat="36.19635" lon="29.86458">
        <ele>2.7</ele>
      </trkpt>
      <trkpt lat="36.19606" lon="29.8647">
        <ele>2</ele>
      </trkpt>
      <trkpt lat="36.19576" lon="29.86483">
        <ele>1.2</ele>
      </trkpt>
      <trkpt lat="36.19571" lon="29.86485">
        <ele>1.2</ele>
      </trkpt>
      <trkpt lat="36.19561" lon="29.86488">
        <ele>1.2</ele>
      </trkpt>
      <trkpt lat="36.1956" lon="29.86488">
        <ele>1.2</ele>
      </trkpt>
      <trkpt lat="36.19471" lon="29.86518">
        <ele>2.5</ele>
      </trkpt>
      <trkpt lat="36.19425" lon="29.86532">
        <ele>3.1</ele>
      </trkpt>
      <trkpt lat="36.19428" lon="29.86539">
        <ele>3.3</ele>
      </trkpt>
      <trkpt lat="36.19448" lon="29.86585">
        <ele>4.6</ele>
      </trkpt>
      <trkpt lat="36.1945" lon="29.8659">
        <ele>4.5</ele>
      </trkpt>
      <trkpt lat="36.19463" lon="29.86627">
        <ele>4</ele>
      </trkpt>
      <trkpt lat="36.19473" lon="29.86655">
        <ele>3.8</ele>
      </trkpt>
      <trkpt lat="36.19488" lon="29.86695">
        <ele>3.9</ele>
      </trkpt>
      <trkpt lat="36.19511" lon="29.86765">
        <ele>4</ele>
      </trkpt>
      <trkpt lat="36.19518" lon="29.86837">
        <ele>4.3</ele>
      </trkpt>
      <trkpt lat="36.1953" lon="29.86862">
        <ele>4.8</ele>
      </trkpt>
      <trkpt lat="36.19544" lon="29.86884">
        <ele>5.1</ele>
      </trkpt>
      <trkpt lat="36.19545" lon="29.86885">
        <ele>5.1</ele>
      </trkpt>
      <trkpt lat="36.19598" lon="29.86939">
        <ele>5.9</ele>
      </trkpt>
      <trkpt lat="36.19601" lon="29.86942">
        <ele>6</ele>
      </trkpt>
      <trkpt lat="36.19605" lon="29.86946">
        <ele>6.1</ele>
      </trkpt>
      <trkpt lat="36.1963" lon="29.86969">
        <ele>6.5</ele>
      </trkpt>
      <trkpt lat="36.19632" lon="29.86971">
        <ele>6.5</ele>
      </trkpt>
      <trkpt lat="36.19658" lon="29.87014">
        <ele>6.6</ele>
      </trkpt>
      <trkpt lat="36.19678" lon="29.87044">
        <ele>7.4</ele>
      </trkpt>
      <trkpt lat="36.19684" lon="29.8706">
        <ele>7.5</ele>
      </trkpt>
      <trkpt lat="36.19702" lon="29.87109">
        <ele>8.5</ele>
      </trkpt>
      <trkpt lat="36.1971" lon="29.87138">
        <ele>9</ele>
      </trkpt>
      <trkpt lat="36.19713" lon="29.87153">
        <ele>9.1</ele>
      </trkpt>
      <trkpt lat="36.19735" lon="29.87187">
        <ele>7.8</ele>
      </trkpt>
      <trkpt lat="36.19736" lon="29.87198">
        <ele>8.1</ele>
      </trkpt>
      <trkpt lat="36.19806" lon="29.8733">
        <ele>10.5</ele>
      </trkpt>
      <trkpt lat="36.19806" lon="29.8733">
        <ele>10.5</ele>
      </trkpt>
      <trkpt lat="36.19598" lon="29.86939">
        <ele>5.9</ele>
      </trkpt>
      <trkpt lat="36.19606" lon="29.86945">
        <ele>6.1</ele>
      </trkpt>
      <trkpt lat="36.19629" lon="29.86961">
        <ele>6.5</ele>
      </trkpt>
      <trkpt lat="36.19669" lon="29.87011">
        <ele>6.4</ele>
      </trkpt>
      <trkpt lat="36.19688" lon="29.87048">
        <ele>8</ele>
      </trkpt>
      <trkpt lat="36.19709" lon="29.87102">
        <ele>8</ele>
      </trkpt>
      <trkpt lat="36.19722" lon="29.87152">
        <ele>8.2</ele>
      </trkpt>
      <trkpt lat="36.19745" lon="29.87195">
        <ele>6.7</ele>
      </trkpt>
      <trkpt lat="36.19759" lon="29.87211">
        <ele>6.7</ele>
      </trkpt>
      <trkpt lat="36.1977" lon="29.87242">
        <ele>7.6</ele>
      </trkpt>
      <trkpt lat="36.19793" lon="29.87276">
        <ele>8.7</ele>
      </trkpt>
      <trkpt lat="36.19827" lon="29.87307">
        <ele>8.6</ele>
      </trkpt>
      <trkpt lat="36.19828" lon="29.8733">
        <ele>9.2</ele>
      </trkpt>
      <trkpt lat="36.19838" lon="29.87365">
        <ele>10.7</ele>
      </trkpt>
      <trkpt lat="36.19855" lon="29.87379">
        <ele>11.9</ele>
      </trkpt>
      <trkpt lat="36.1986" lon="29.87398">
        <ele>12.7</ele>
      </trkpt>
      <trkpt lat="36.19894" lon="29.87411">
        <ele>13.7</ele>
      </trkpt>
      <trkpt lat="36.19909" lon="29.87426">
        <ele>14</ele>
      </trkpt>
      <trkpt lat="36.19931" lon="29.87422">
        <ele>15.2</ele>
      </trkpt>
      <trkpt lat="36.19947" lon="29.87441">
        <ele>15.9</ele>
      </trkpt>
      <trkpt lat="36.19969" lon="29.87475">
        <ele>15.8</ele>
      </trkpt>
      <trkpt lat="36.2" lon="29.87558">
        <ele>15.7</ele>
      </trkpt>
      <trkpt lat="36.20018" lon="29.87596">
        <ele>17.7</ele>
      </trkpt>
      <trkpt lat="36.20024" lon="29.87624">
        <ele>19.9</ele>
      </trkpt>
      <trkpt lat="36.20024" lon="29.87675">
        <ele>23.4</ele>
      </trkpt>
      <trkpt lat="36.20019" lon="29.87776">
        <ele>27.7</ele>
      </trkpt>
      <trkpt lat="36.2003" lon="29.87839">
        <ele>29.3</ele>
      </trkpt>
      <trkpt lat="36.20031" lon="29.87885">
        <ele>29.4</ele>
      </trkpt>
      <trkpt lat="36.20041" lon="29.87938">
        <ele>27.5</ele>
      </trkpt>
      <trkpt lat="36.20041" lon="29.87967">
        <ele>25.4</ele>
      </trkpt>
      <trkpt lat="36.20052" lon="29.8804">
        <ele>18.7</ele>
      </trkpt>
      <trkpt lat="36.20074" lon="29.88093">
        <ele>13.3</ele>
      </trkpt>
      <trkpt lat="36.20084" lon="29.8811">
        <ele>12.7</ele>
      </trkpt>
      <trkpt lat="36.20096" lon="29.88128">
        <ele>13.5</ele>
      </trkpt>
      <trkpt lat="36.20106" lon="29.88162">
        <ele>14</ele>
      </trkpt>
      <trkpt lat="36.20131" lon="29.88226">
        <ele>16.3</ele>
      </trkpt>
      <trkpt lat="36.20144" lon="29.88324">
        <ele>15.8</ele>
      </trkpt>
      <trkpt lat="36.20138" lon="29.88362">
        <ele>15.1</ele>
      </trkpt>
      <trkpt lat="36.20145" lon="29.8842">
        <ele>15.5</ele>
      </trkpt>
      <trkpt lat="36.20157" lon="29.88452">
        <ele>14.9</ele>
      </trkpt>
      <trkpt lat="36.20171" lon="29.88472">
        <ele>14</ele>
      </trkpt>
      <trkpt lat="36.20237" lon="29.88548">
        <ele>11.7</ele>
      </trkpt>
      <trkpt lat="36.20243" lon="29.88554">
        <ele>11.5</ele>
      </trkpt>
      <trkpt lat="36.20272" lon="29.88581">
        <ele>12.3</ele>
      </trkpt>
      <trkpt lat="36.20313" lon="29.88605">
        <ele>15.4</ele>
      </trkpt>
      <trkpt lat="36.20325" lon="29.88616">
        <ele>15.9</ele>
      </trkpt>
      <trkpt lat="36.20337" lon="29.88636">
        <ele>16.5</ele>
      </trkpt>
      <trkpt lat="36.20345" lon="29.88659">
        <ele>17</ele>
      </trkpt>
      <trkpt lat="36.20361" lon="29.88687">
        <ele>18.2</ele>
      </trkpt>
      <trkpt lat="36.20376" lon="29.88711">
        <ele>18.2</ele>
      </trkpt>
      <trkpt lat="36.20401" lon="29.88738">
        <ele>15.6</ele>
      </trkpt>
      <trkpt lat="36.20428" lon="29.88777">
        <ele>13.4</ele>
      </trkpt>
      <trkpt lat="36.20455" lon="29.88848">
        <ele>12.6</ele>
      </trkpt>
      <trkpt lat="36.20471" lon="29.88913">
        <ele>10.2</ele>
      </trkpt>
      <trkpt lat="36.20479" lon="29.88973">
        <ele>7.9</ele>
      </trkpt>
      <trkpt lat="36.20521" lon="29.89069">
        <ele>6.8</ele>
      </trkpt>
      <trkpt lat="36.20555" lon="29.8913">
        <ele>9.5</ele>
      </trkpt>
      <trkpt lat="36.20572" lon="29.89153">
        <ele>9.5</ele>
      </trkpt>
      <trkpt lat="36.20589" lon="29.89193">
        <ele>8.2</ele>
      </trkpt>
      <trkpt lat="36.20602" lon="29.89233">
        <ele>7.6</ele>
      </trkpt>
      <trkpt lat="36.2066" lon="29.89305">
        <ele>8.6</ele>
      </trkpt>
      <trkpt lat="36.20704" lon="29.89336">
        <ele>6</ele>
      </trkpt>
      <trkpt lat="36.20823" lon="29.89232">
        <ele>13.5</ele>
      </trkpt>
      <trkpt lat="36.20983" lon="29.89078">
        <ele>15.3</ele>
      </trkpt>
      <trkpt lat="36.21031" lon="29.89009">
        <ele>14.3</ele>
      </trkpt>
      <trkpt lat="36.21047" lon="29.88962">
        <ele>21.1</ele>
      </trkpt>
      <trkpt lat="36.2106" lon="29.88927">
        <ele>24.7</ele>
      </trkpt>
      <trkpt lat="36.2109" lon="29.88905">
        <ele>20.1</ele>
      </trkpt>
      <trkpt lat="36.21114" lon="29.8885">
        <ele>24.6</ele>
      </trkpt>
      <trkpt lat="36.21168" lon="29.88822">
        <ele>18.3</ele>
      </trkpt>
      <trkpt lat="36.21218" lon="29.88788">
        <ele>18.4</ele>
      </trkpt>
      <trkpt lat="36.21243" lon="29.88773">
        <ele>14.9</ele>
      </trkpt>
      <trkpt lat="36.2126" lon="29.88755">
        <ele>14</ele>
      </trkpt>
      <trkpt lat="36.21271" lon="29.88762">
        <ele>13</ele>
      </trkpt>
      <trkpt lat="36.21279" lon="29.88791">
        <ele>11.4</ele>
      </trkpt>
      <trkpt lat="36.21281" lon="29.88824">
        <ele>9.9</ele>
      </trkpt>
      <trkpt lat="36.2127" lon="29.8884">
        <ele>9.2</ele>
      </trkpt>
      <trkpt lat="36.21276" lon="29.88843">
        <ele>9.7</ele>
      </trkpt>
      <trkpt lat="36.21297" lon="29.88851">
        <ele>11.5</ele>
      </trkpt>
      <trkpt lat="36.21316" lon="29.88853">
        <ele>13.1</ele>
      </trkpt>
      <trkpt lat="36.21334" lon="29.88867">
        <ele>16.1</ele>
      </trkpt>
      <trkpt lat="36.21442" lon="29.88949">
        <ele>28.6</ele>
      </trkpt>
      <trkpt lat="36.21497" lon="29.89021">
        <ele>35.6</ele>
      </trkpt>
      <trkpt lat="36.21504" lon="29.89051">
        <ele>39.4</ele>
      </trkpt>
      <trkpt lat="36.21534" lon="29.8908">
        <ele>43.5</ele>
      </trkpt>
      <trkpt lat="36.2158" lon="29.89096">
        <ele>45.9</ele>
      </trkpt>
      <trkpt lat="36.21617" lon="29.89147">
        <ele>46.6</ele>
      </trkpt>
      <trkpt lat="36.21624" lon="29.89191">
        <ele>48.6</ele>
      </trkpt>
      <trkpt lat="36.21665" lon="29.89274">
        <ele>44</ele>
      </trkpt>
      <trkpt lat="36.21692" lon="29.89375">
        <ele>45.5</ele>
      </trkpt>
      <trkpt lat="36.21719" lon="29.89411">
        <ele>41.3</ele>
      </trkpt>
      <trkpt lat="36.21749" lon="29.89437">
        <ele>34.5</ele>
      </trkpt>
      <trkpt lat="36.21797" lon="29.89519">
        <ele>32.8</ele>
      </trkpt>
      <trkpt lat="36.21857" lon="29.89556">
        <ele>30.6</ele>
      </trkpt>
      <trkpt lat="36.21883" lon="29.89585">
        <ele>30.6</ele>
      </trkpt>
      <trkpt lat="36.21914" lon="29.89641">
        <ele>31.1</ele>
      </trkpt>
      <trkpt lat="36.21937" lon="29.8971">
        <ele>32.7</ele>
      </trkpt>
      <trkpt lat="36.22034" lon="29.89762">
        <ele>32.8</ele>
      </trkpt>
      <trkpt lat="36.22062" lon="29.89776">
        <ele>31.8</ele>
      </trkpt>
      <trkpt lat="36.22105" lon="29.89794">
        <ele>29.6</ele>
      </trkpt>
      <trkpt lat="36.22143" lon="29.89816">
        <ele>27.5</ele>
      </trkpt>
      <trkpt lat="36.22181" lon="29.89838">
        <ele>28.1</ele>
      </trkpt>
      <trkpt lat="36.22204" lon="29.89846">
        <ele>31.2</ele>
      </trkpt>
      <trkpt lat="36.22235" lon="29.89848">
        <ele>35.9</ele>
      </trkpt>
      <trkpt lat="36.22251" lon="29.89834">
        <ele>40.2</ele>
      </trkpt>
      <trkpt lat="36.22264" lon="29.89839">
        <ele>44</ele>
      </trkpt>
      <trkpt lat="36.22269" lon="29.89851">
        <ele>44.2</ele>
      </trkpt>
      <trkpt lat="36.2228" lon="29.89837">
        <ele>49.5</ele>
      </trkpt>
      <trkpt lat="36.2228" lon="29.89818">
        <ele>50.6</ele>
      </trkpt>
      <trkpt lat="36.22283" lon="29.89795">
        <ele>52</ele>
      </trkpt>
      <trkpt lat="36.22302" lon="29.89779">
        <ele>57.6</ele>
      </trkpt>
      <trkpt lat="36.22326" lon="29.89763">
        <ele>63.5</ele>
      </trkpt>
      <trkpt lat="36.22368" lon="29.89745">
        <ele>69.3</ele>
      </trkpt>
      <trkpt lat="36.22389" lon="29.8972">
        <ele>70.6</ele>
      </trkpt>
      <trkpt lat="36.22408" lon="29.89702">
        <ele>72.3</ele>
      </trkpt>
      <trkpt lat="36.22437" lon="29.89709">
        <ele>75.2</ele>
      </trkpt>
      <trkpt lat="36.22455" lon="29.89719">
        <ele>76.6</ele>
      </trkpt>
      <trkpt lat="36.22461" lon="29.89746">
        <ele>77.5</ele>
      </trkpt>
      <trkpt lat="36.22472" lon="29.89766">
        <ele>78.7</ele>
      </trkpt>
      <trkpt lat="36.22477" lon="29.89785">
        <ele>79.6</ele>
      </trkpt>
      <trkpt lat="36.22507" lon="29.89795">
        <ele>80.3</ele>
      </trkpt>
      <trkpt lat="36.22549" lon="29.89798">
        <ele>81.8</ele>
      </trkpt>
      <trkpt lat="36.22549" lon="29.89798">
        <ele>81.8</ele>
      </trkpt>
      <trkpt lat="36.22799" lon="29.90198">
        <ele>72.9</ele>
      </trkpt>
      <trkpt lat="36.2279" lon="29.90144">
        <ele>76.5</ele>
      </trkpt>
      <trkpt lat="36.22784" lon="29.90128">
        <ele>76.8</ele>
      </trkpt>
      <trkpt lat="36.22773" lon="29.90096">
        <ele>77.5</ele>
      </trkpt>
      <trkpt lat="36.2275" lon="29.90046">
        <ele>77.3</ele>
      </trkpt>
      <trkpt lat="36.22712" lon="29.90014">
        <ele>80.3</ele>
      </trkpt>
      <trkpt lat="36.22701" lon="29.89968">
        <ele>81.7</ele>
      </trkpt>
      <trkpt lat="36.22661" lon="29.89903">
        <ele>82.9</ele>
      </trkpt>
      <trkpt lat="36.22549" lon="29.89798">
        <ele>81.8</ele>
      </trkpt>
      <trkpt lat="36.22566" lon="29.89764">
        <ele>82.2</ele>
      </trkpt>
      <trkpt lat="36.22605" lon="29.89763">
        <ele>84.1</ele>
      </trkpt>
      <trkpt lat="36.22647" lon="29.89771">
        <ele>85.7</ele>
      </trkpt>
      <trkpt lat="36.227" lon="29.89783">
        <ele>87.9</ele>
      </trkpt>
      <trkpt lat="36.22729" lon="29.89784">
        <ele>89.6</ele>
      </trkpt>
      <trkpt lat="36.22755" lon="29.89763">
        <ele>93.5</ele>
      </trkpt>
      <trkpt lat="36.22762" lon="29.89755">
        <ele>94.6</ele>
      </trkpt>
      <trkpt lat="36.22773" lon="29.89713">
        <ele>101.5</ele>
      </trkpt>
      <trkpt lat="36.22843" lon="29.89673">
        <ele>108.6</ele>
      </trkpt>
      <trkpt lat="36.22882" lon="29.89661">
        <ele>116.3</ele>
      </trkpt>
      <trkpt lat="36.22895" lon="29.89677">
        <ele>116.8</ele>
      </trkpt>
      <trkpt lat="36.22905" lon="29.8972">
        <ele>115.3</ele>
      </trkpt>
      <trkpt lat="36.22908" lon="29.89754">
        <ele>113.5</ele>
      </trkpt>
      <trkpt lat="36.22917" lon="29.89797">
        <ele>111.5</ele>
      </trkpt>
      <trkpt lat="36.22918" lon="29.89816">
        <ele>109.9</ele>
      </trkpt>
      <trkpt lat="36.22924" lon="29.89873">
        <ele>107.7</ele>
      </trkpt>
      <trkpt lat="36.2292" lon="29.89917">
        <ele>104.7</ele>
      </trkpt>
      <trkpt lat="36.2291" lon="29.89953">
        <ele>103.3</ele>
      </trkpt>
      <trkpt lat="36.22873" lon="29.89996">
        <ele>95.4</ele>
      </trkpt>
      <trkpt lat="36.22863" lon="29.90036">
        <ele>92.2</ele>
      </trkpt>
      <trkpt lat="36.22854" lon="29.90082">
        <ele>88.8</ele>
      </trkpt>
      <trkpt lat="36.22847" lon="29.90099">
        <ele>86.4</ele>
      </trkpt>
      <trkpt lat="36.22828" lon="29.90159">
        <ele>79.8</ele>
      </trkpt>
      <trkpt lat="36.22826" lon="29.90182">
        <ele>77.4</ele>
      </trkpt>
      <trkpt lat="36.22831" lon="29.90215">
        <ele>74</ele>
      </trkpt>
      <trkpt lat="36.22835" lon="29.90284">
        <ele>65.8</ele>
      </trkpt>
      <trkpt lat="36.22848" lon="29.90322">
        <ele>64.5</ele>
      </trkpt>
      <trkpt lat="36.22844" lon="29.90373">
        <ele>58.8</ele>
      </trkpt>
      <trkpt lat="36.22859" lon="29.90456">
        <ele>58.1</ele>
      </trkpt>
      <trkpt lat="36.22863" lon="29.90547">
        <ele>54.2</ele>
      </trkpt>
      <trkpt lat="36.22866" lon="29.90634">
        <ele>49.4</ele>
      </trkpt>
      <trkpt lat="36.22892" lon="29.90744">
        <ele>46.2</ele>
      </trkpt>
      <trkpt lat="36.22917" lon="29.90817">
        <ele>45.1</ele>
      </trkpt>
      <trkpt lat="36.22937" lon="29.9086">
        <ele>45.4</ele>
      </trkpt>
      <trkpt lat="36.22971" lon="29.90924">
        <ele>45.9</ele>
      </trkpt>
      <trkpt lat="36.2298" lon="29.90977">
        <ele>44.5</ele>
      </trkpt>
      <trkpt lat="36.23001" lon="29.91047">
        <ele>43.5</ele>
      </trkpt>
      <trkpt lat="36.23003" lon="29.91145">
        <ele>43.7</ele>
      </trkpt>
      <trkpt lat="36.23003" lon="29.91195">
        <ele>45.1</ele>
      </trkpt>
      <trkpt lat="36.23008" lon="29.91279">
        <ele>47.3</ele>
      </trkpt>
      <trkpt lat="36.23027" lon="29.91366">
        <ele>50.3</ele>
      </trkpt>
      <trkpt lat="36.23059" lon="29.91475">
        <ele>56.6</ele>
      </trkpt>
      <trkpt lat="36.23066" lon="29.91562">
        <ele>57.5</ele>
      </trkpt>
      <trkpt lat="36.23066" lon="29.91608">
        <ele>57.5</ele>
      </trkpt>
      <trkpt lat="36.23079" lon="29.91721">
        <ele>58.6</ele>
      </trkpt>
      <trkpt lat="36.23092" lon="29.9178">
        <ele>58.2</ele>
      </trkpt>
      <trkpt lat="36.23096" lon="29.91831">
        <ele>56.4</ele>
      </trkpt>
      <trkpt lat="36.23104" lon="29.91921">
        <ele>58.1</ele>
      </trkpt>
      <trkpt lat="36.23135" lon="29.91988">
        <ele>61.5</ele>
      </trkpt>
      <trkpt lat="36.23157" lon="29.92036">
        <ele>63</ele>
      </trkpt>
      <trkpt lat="36.23178" lon="29.92047">
        <ele>62.1</ele>
      </trkpt>
      <trkpt lat="36.23198" lon="29.92049">
        <ele>58.3</ele>
      </trkpt>
      <trkpt lat="36.23222" lon="29.92024">
        <ele>57.2</ele>
      </trkpt>
      <trkpt lat="36.23243" lon="29.92025">
        <ele>53.9</ele>
      </trkpt>
      <trkpt lat="36.23247" lon="29.92041">
        <ele>50.7</ele>
      </trkpt>
      <trkpt lat="36.23244" lon="29.92104">
        <ele>41.4</ele>
      </trkpt>
      <trkpt lat="36.23254" lon="29.9213">
        <ele>34.7</ele>
      </trkpt>
      <trkpt lat="36.23275" lon="29.9214">
        <ele>27.7</ele>
      </trkpt>
      <trkpt lat="36.23295" lon="29.92137">
        <ele>22.6</ele>
      </trkpt>
      <trkpt lat="36.23317" lon="29.92166">
        <ele>14</ele>
      </trkpt>
      <trkpt lat="36.23353" lon="29.92176">
        <ele>8</ele>
      </trkpt>
      <trkpt lat="36.2339" lon="29.92188">
        <ele>6</ele>
      </trkpt>
      <trkpt lat="36.23413" lon="29.92207">
        <ele>5.9</ele>
      </trkpt>
      <trkpt lat="36.23419" lon="29.9222">
        <ele>7</ele>
      </trkpt>
      <trkpt lat="36.23426" lon="29.92237">
        <ele>9.6</ele>
      </trkpt>
      <trkpt lat="36.23436" lon="29.92295">
        <ele>17.4</ele>
      </trkpt>
      <trkpt lat="36.23415" lon="29.92352">
        <ele>18.2</ele>
      </trkpt>
      <trkpt lat="36.23383" lon="29.92404">
        <ele>19.7</ele>
      </trkpt>
      <trkpt lat="36.23374" lon="29.92441">
        <ele>20.1</ele>
      </trkpt>
      <trkpt lat="36.2338" lon="29.92524">
        <ele>26.3</ele>
      </trkpt>
      <trkpt lat="36.23385" lon="29.92578">
        <ele>26.6</ele>
      </trkpt>
      <trkpt lat="36.23398" lon="29.92626">
        <ele>26.1</ele>
      </trkpt>
      <trkpt lat="36.23406" lon="29.92653">
        <ele>25.3</ele>
      </trkpt>
      <trkpt lat="36.23413" lon="29.92676">
        <ele>25.6</ele>
      </trkpt>
      <trkpt lat="36.23409" lon="29.92718">
        <ele>25.9</ele>
      </trkpt>
      <trkpt lat="36.2338" lon="29.92779">
        <ele>24.4</ele>
      </trkpt>
      <trkpt lat="36.23354" lon="29.92852">
        <ele>24.9</ele>
      </trkpt>
      <trkpt lat="36.23347" lon="29.92891">
        <ele>23.7</ele>
      </trkpt>
      <trkpt lat="36.23348" lon="29.92921">
        <ele>24.8</ele>
      </trkpt>
      <trkpt lat="36.23349" lon="29.9295">
        <ele>21.9</ele>
      </trkpt>
      <trkpt lat="36.23356" lon="29.92974">
        <ele>21.6</ele>
      </trkpt>
      <trkpt lat="36.23366" lon="29.9299">
        <ele>23</ele>
      </trkpt>
      <trkpt lat="36.23368" lon="29.93007">
        <ele>23.9</ele>
      </trkpt>
      <trkpt lat="36.23359" lon="29.93024">
        <ele>24.5</ele>
      </trkpt>
      <trkpt lat="36.23337" lon="29.93049">
        <ele>22.4</ele>
      </trkpt>
      <trkpt lat="36.2331" lon="29.93086">
        <ele>23.4</ele>
      </trkpt>
      <trkpt lat="36.23289" lon="29.93114">
        <ele>24.5</ele>
      </trkpt>
      <trkpt lat="36.23261" lon="29.93158">
        <ele>24.6</ele>
      </trkpt>
      <trkpt lat="36.23238" lon="29.93202">
        <ele>27.1</ele>
      </trkpt>
      <trkpt lat="36.23213" lon="29.93259">
        <ele>28.7</ele>
      </trkpt>
      <trkpt lat="36.23205" lon="29.93295">
        <ele>29.7</ele>
      </trkpt>
      <trkpt lat="36.23201" lon="29.9333">
        <ele>31.8</ele>
      </trkpt>
      <trkpt lat="36.23187" lon="29.93394">
        <ele>29.4</ele>
      </trkpt>
      <trkpt lat="36.2317" lon="29.93458">
        <ele>25.9</ele>
      </trkpt>
      <trkpt lat="36.23152" lon="29.93515">
        <ele>24.2</ele>
      </trkpt>
      <trkpt lat="36.2314" lon="29.93563">
        <ele>26</ele>
      </trkpt>
      <trkpt lat="36.23094" lon="29.93632">
        <ele>21.6</ele>
      </trkpt>
      <trkpt lat="36.23063" lon="29.9369">
        <ele>19.3</ele>
      </trkpt>
      <trkpt lat="36.23045" lon="29.93742">
        <ele>18.9</ele>
      </trkpt>
      <trkpt lat="36.23047" lon="29.93799">
        <ele>20.6</ele>
      </trkpt>
      <trkpt lat="36.23041" lon="29.93881">
        <ele>15</ele>
      </trkpt>
      <trkpt lat="36.23033" lon="29.93909">
        <ele>11.8</ele>
      </trkpt>
      <trkpt lat="36.23057" lon="29.93918">
        <ele>10.9</ele>
      </trkpt>
      <trkpt lat="36.23069" lon="29.93937">
        <ele>9.7</ele>
      </trkpt>
      <trkpt lat="36.23069" lon="29.93951">
        <ele>8.7</ele>
      </trkpt>
      <trkpt lat="36.23062" lon="29.93959">
        <ele>8.1</ele>
      </trkpt>
      <trkpt lat="36.22999" lon="29.9402">
        <ele>2.97</ele>
      </trkpt>
      <trkpt lat="36.22919" lon="29.9413">
        <ele>1</ele>
      </trkpt>
      <trkpt lat="36.22819" lon="29.9429">
      </trkpt>
      <trkpt lat="36.22687" lon="29.94407">
      </trkpt>
      <trkpt lat="36.22605" lon="29.94467">
        <ele>5</ele>
      </trkpt>
      <trkpt lat="36.22596" lon="29.94506">
        <ele>4.9</ele>
      </trkpt>
      <trkpt lat="36.22576" lon="29.94543">
        <ele>4.4</ele>
      </trkpt>
      <trkpt lat="36.2257" lon="29.94571">
        <ele>4</ele>
      </trkpt>
      <trkpt lat="36.22569" lon="29.94575">
        <ele>3.9</ele>
      </trkpt>
      <trkpt lat="36.22555" lon="29.94592">
        <ele>3.7</ele>
      </trkpt>
      <trkpt lat="36.22548" lon="29.94596">
        <ele>3.6</ele>
      </trkpt>
      <trkpt lat="36.22549" lon="29.94619">
        <ele>3.8</ele>
      </trkpt>
      <trkpt lat="36.22548" lon="29.9464">
        <ele>3.9</ele>
      </trkpt>
      <trkpt lat="36.22541" lon="29.9469">
        <ele>3.5</ele>
      </trkpt>
      <trkpt lat="36.22536" lon="29.94718">
        <ele>2.8</ele>
      </trkpt>
      <trkpt lat="36.22542" lon="29.94743">
        <ele>2.2</ele>
      </trkpt>
      <trkpt lat="36.22549" lon="29.94774">
        <ele>2.2</ele>
      </trkpt>
      <trkpt lat="36.22593" lon="29.94925">
        <ele>2.8</ele>
      </trkpt>
      <trkpt lat="36.22604" lon="29.94952">
        <ele>2.5</ele>
      </trkpt>
      <trkpt lat="36.2262" lon="29.94979">
        <ele>2.1</ele>
      </trkpt>
      <trkpt lat="36.22658" lon="29.95034">
        <ele>1.8</ele>
      </trkpt>
      <trkpt lat="36.2268" lon="29.95066">
        <ele>1.8</ele>
      </trkpt>
      <trkpt lat="36.22698" lon="29.95092">
        <ele>1.9</ele>
      </trkpt>
      <trkpt lat="36.22737" lon="29.95167">
        <ele>1</ele>
      </trkpt>
      <trkpt lat="36.22752" lon="29.95214">
        <ele>1</ele>
      </trkpt>
      <trkpt lat="36.22772" lon="29.9528">
        <ele>1</ele>
      </trkpt>
      <trkpt lat="36.22788" lon="29.95319">
        <ele>1</ele>
      </trkpt>
      <trkpt lat="36.22832" lon="29.95393">
        <ele>1</ele>
      </trkpt>
      <trkpt lat="36.22889" lon="29.95491">
        <ele>1.3</ele>
      </trkpt>
      <trkpt lat="36.22941" lon="29.9559">
        <ele>4.7</ele>
      </trkpt>
      <trkpt lat="36.2298" lon="29.95692">
        <ele>2</ele>
      </trkpt>
      <trkpt lat="36.23055" lon="29.95844">
        <ele>1.35</ele>
      </trkpt>
      <trkpt lat="36.23124" lon="29.95982">
        <ele>1</ele>
      </trkpt>
      <trkpt lat="36.23139" lon="29.96018">
        <ele>2</ele>
      </trkpt>
      <trkpt lat="36.23178" lon="29.9611">
        <ele>2</ele>
      </trkpt>
      <trkpt lat="36.23241" lon="29.96264">
        <ele>3</ele>
      </trkpt>
      <trkpt lat="36.23314" lon="29.96462">
        <ele>3.8</ele>
      </trkpt>
      <trkpt lat="36.23376" lon="29.96612">
        <ele>4.1</ele>
      </trkpt>
      <trkpt lat="36.23397" lon="29.96665">
        <ele>4.1</ele>
      </trkpt>
      <trkpt lat="36.23441" lon="29.96748">
        <ele>4.9</ele>
      </trkpt>
      <trkpt lat="36.23483" lon="29.9682">
        <ele>4.3</ele>
      </trkpt>
      <trkpt lat="36.23502" lon="29.96857">
        <ele>3.7</ele>
      </trkpt>
      <trkpt lat="36.23575" lon="29.9698">
        <ele>4.1</ele>
      </trkpt>
      <trkpt lat="36.23631" lon="29.97078">
        <ele>3.6</ele>
      </trkpt>
      <trkpt lat="36.23646" lon="29.97107">
        <ele>3.5</ele>
      </trkpt>
      <trkpt lat="36.23661" lon="29.97141">
        <ele>3.2</ele>
      </trkpt>
      <trkpt lat="36.23675" lon="29.97183">
        <ele>3.5</ele>
      </trkpt>
      <trkpt lat="36.23683" lon="29.97211">
        <ele>4.1</ele>
      </trkpt>
      <trkpt lat="36.2369" lon="29.97247">
        <ele>4.7</ele>
      </trkpt>
      <trkpt lat="36.23735" lon="29.97506">
        <ele>5.7</ele>
      </trkpt>
      <trkpt lat="36.23774" lon="29.97732">
        <ele>4.2</ele>
      </trkpt>
      <trkpt lat="36.23803" lon="29.97909">
        <ele>5.9</ele>
      </trkpt>
      <trkpt lat="36.23813" lon="29.97971">
        <ele>6.6</ele>
      </trkpt>
      <trkpt lat="36.23815" lon="29.97983">
        <ele>6.7</ele>
      </trkpt>
      <trkpt lat="36.23823" lon="29.98032">
        <ele>7</ele>
      </trkpt>
      <trkpt lat="36.2383" lon="29.98075">
        <ele>7</ele>
      </trkpt>
      <trkpt lat="36.23846" lon="29.98172">
        <ele>7.6</ele>
      </trkpt>
      <trkpt lat="36.23899" lon="29.98476">
        <ele>7.5</ele>
      </trkpt>
      <trkpt lat="36.23908" lon="29.9854">
        <ele>7.8</ele>
      </trkpt>
      <trkpt lat="36.2391" lon="29.98592">
        <ele>7.7</ele>
      </trkpt>
      <trkpt lat="36.23911" lon="29.98621">
        <ele>7.1</ele>
      </trkpt>
      <trkpt lat="36.23923" lon="29.9862">
        <ele>7.1</ele>
      </trkpt>
      <trkpt lat="36.2394" lon="29.98618">
        <ele>7.2</ele>
      </trkpt>
      <trkpt lat="36.23955" lon="29.98617">
        <ele>7.2</ele>
      </trkpt>
      <trkpt lat="36.24029" lon="29.98606">
        <ele>7.6</ele>
      </trkpt>
      <trkpt lat="36.24095" lon="29.98595">
        <ele>7.9</ele>
      </trkpt>
      <trkpt lat="36.24193" lon="29.98578">
        <ele>8.3</ele>
      </trkpt>
      <trkpt lat="36.2431" lon="29.98564">
        <ele>9.3</ele>
      </trkpt>
      <trkpt lat="36.24331" lon="29.98562">
        <ele>9.5</ele>
      </trkpt>
      <trkpt lat="36.24353" lon="29.98559">
        <ele>9.5</ele>
      </trkpt>
      <trkpt lat="36.24357" lon="29.98595">
        <ele>10.1</ele>
      </trkpt>
      <trkpt lat="36.24363" lon="29.98697">
        <ele>11.1</ele>
      </trkpt>
      <trkpt lat="36.24367" lon="29.98773">
        <ele>11.8</ele>
      </trkpt>
      <trkpt lat="36.24409" lon="29.98771">
        <ele>12.4</ele>
      </trkpt>
      <trkpt lat="36.2442" lon="29.98773">
        <ele>12.5</ele>
      </trkpt>
      <trkpt lat="36.24424" lon="29.98772">
        <ele>12.4</ele>
      </trkpt>
      <trkpt lat="36.24442" lon="29.98765">
        <ele>11.9</ele>
      </trkpt>
      <trkpt lat="36.24444" lon="29.98764">
        <ele>11.8</ele>
      </trkpt>
      <trkpt lat="36.24446" lon="29.98763">
        <ele>11.8</ele>
      </trkpt>
      <trkpt lat="36.2445" lon="29.98754">
        <ele>11.6</ele>
      </trkpt>
      <trkpt lat="36.24455" lon="29.98748">
        <ele>11.5</ele>
      </trkpt>
      <trkpt lat="36.24465" lon="29.98739">
        <ele>11.3</ele>
      </trkpt>
      <trkpt lat="36.24477" lon="29.98727">
        <ele>11</ele>
      </trkpt>
      <trkpt lat="36.24543" lon="29.98721">
        <ele>11.5</ele>
      </trkpt>
      <trkpt lat="36.24582" lon="29.98715">
        <ele>12.1</ele>
      </trkpt>
      <trkpt lat="36.2463" lon="29.98708">
        <ele>12.3</ele>
      </trkpt>
      <trkpt lat="36.24702" lon="29.98702">
        <ele>12.4</ele>
      </trkpt>
      <trkpt lat="36.24755" lon="29.98698">
        <ele>12.2</ele>
      </trkpt>
      <trkpt lat="36.24778" lon="29.98697">
        <ele>12.1</ele>
      </trkpt>
      <trkpt lat="36.24812" lon="29.98703">
        <ele>11.7</ele>
      </trkpt>
      <trkpt lat="36.24839" lon="29.98708">
        <ele>11.6</ele>
      </trkpt>
      <trkpt lat="36.24848" lon="29.9871">
        <ele>11.7</ele>
      </trkpt>
      <trkpt lat="36.249" lon="29.98722">
        <ele>12.4</ele>
      </trkpt>
      <trkpt lat="36.24908" lon="29.98724">
        <ele>12.5</ele>
      </trkpt>
      <trkpt lat="36.24926" lon="29.9873">
        <ele>13.1</ele>
      </trkpt>
      <trkpt lat="36.25061" lon="29.98769">
        <ele>15</ele>
      </trkpt>
      <trkpt lat="36.25118" lon="29.98785">
        <ele>13.3</ele>
      </trkpt>
      <trkpt lat="36.25132" lon="29.98788">
        <ele>12.9</ele>
      </trkpt>
      <trkpt lat="36.25209" lon="29.98803">
        <ele>12.5</ele>
      </trkpt>
      <trkpt lat="36.25251" lon="29.98816">
        <ele>13</ele>
      </trkpt>
      <trkpt lat="36.25397" lon="29.98871">
        <ele>13.6</ele>
      </trkpt>
      <trkpt lat="36.25427" lon="29.98881">
        <ele>13.9</ele>
      </trkpt>
      <trkpt lat="36.25436" lon="29.98885">
        <ele>13.9</ele>
      </trkpt>
      <trkpt lat="36.25515" lon="29.98912">
        <ele>13.6</ele>
      </trkpt>
      <trkpt lat="36.25617" lon="29.98961">
        <ele>15.9</ele>
      </trkpt>
      <trkpt lat="36.25631" lon="29.98965">
        <ele>16</ele>
      </trkpt>
      <trkpt lat="36.25647" lon="29.98964">
        <ele>16.2</ele>
      </trkpt>
      <trkpt lat="36.25662" lon="29.98957">
        <ele>16.5</ele>
      </trkpt>
      <trkpt lat="36.25705" lon="29.9894">
        <ele>16.7</ele>
      </trkpt>
      <trkpt lat="36.25751" lon="29.98922">
        <ele>16.9</ele>
      </trkpt>
      <trkpt lat="36.25778" lon="29.98914">
        <ele>17.3</ele>
      </trkpt>
      <trkpt lat="36.25824" lon="29.98882">
        <ele>17.6</ele>
      </trkpt>
      <trkpt lat="36.25832" lon="29.98883">
        <ele>17.6</ele>
      </trkpt>
      <trkpt lat="36.25851" lon="29.98891">
        <ele>17.5</ele>
      </trkpt>
      <trkpt lat="36.25879" lon="29.98911">
        <ele>17</ele>
      </trkpt>
      <trkpt lat="36.25901" lon="29.98935">
        <ele>16.3</ele>
      </trkpt>
      <trkpt lat="36.25918" lon="29.98949">
        <ele>16</ele>
      </trkpt>
      <trkpt lat="36.25941" lon="29.98969">
        <ele>16</ele>
      </trkpt>
      <trkpt lat="36.25961" lon="29.98989">
        <ele>16</ele>
      </trkpt>
      <trkpt lat="36.25983" lon="29.98998">
        <ele>16</ele>
      </trkpt>
      <trkpt lat="36.25992" lon="29.99003">
        <ele>16.1</ele>
      </trkpt>
      <trkpt lat="36.26036" lon="29.99033">
        <ele>17.2</ele>
      </trkpt>
      <trkpt lat="36.26059" lon="29.99041">
        <ele>17.7</ele>
      </trkpt>
      <trkpt lat="36.26079" lon="29.99048">
        <ele>18.1</ele>
      </trkpt>
      <trkpt lat="36.26103" lon="29.99054">
        <ele>18.3</ele>
      </trkpt>
      <trkpt lat="36.26122" lon="29.99055">
        <ele>18.3</ele>
      </trkpt>
      <trkpt lat="36.26143" lon="29.99067">
        <ele>18.6</ele>
      </trkpt>
      <trkpt lat="36.26152" lon="29.99073">
        <ele>18.7</ele>
      </trkpt>
      <trkpt lat="36.2617" lon="29.99085">
        <ele>19</ele>
      </trkpt>
      <trkpt lat="36.26207" lon="29.99109">
        <ele>18.7</ele>
      </trkpt>
      <trkpt lat="36.26306" lon="29.99137">
        <ele>18.6</ele>
      </trkpt>
      <trkpt lat="36.26339" lon="29.99141">
        <ele>18.7</ele>
      </trkpt>
      <trkpt lat="36.26378" lon="29.99141">
        <ele>19</ele>
      </trkpt>
      <trkpt lat="36.26425" lon="29.99138">
        <ele>19.5</ele>
      </trkpt>
      <trkpt lat="36.26475" lon="29.99142">
        <ele>20.5</ele>
      </trkpt>
      <trkpt lat="36.26515" lon="29.99138">
        <ele>21.3</ele>
      </trkpt>
      <trkpt lat="36.26536" lon="29.99139">
        <ele>21.7</ele>
      </trkpt>
      <trkpt lat="36.26572" lon="29.99149">
        <ele>22.6</ele>
      </trkpt>
      <trkpt lat="36.26608" lon="29.99145">
        <ele>21.7</ele>
      </trkpt>
      <trkpt lat="36.26631" lon="29.99148">
        <ele>20.7</ele>
      </trkpt>
      <trkpt lat="36.26645" lon="29.99155">
        <ele>20.1</ele>
      </trkpt>
      <trkpt lat="36.26656" lon="29.9916">
        <ele>19.6</ele>
      </trkpt>
      <trkpt lat="36.26666" lon="29.99166">
        <ele>19</ele>
      </trkpt>
      <trkpt lat="36.26731" lon="29.99213">
        <ele>20.2</ele>
      </trkpt>
      <trkpt lat="36.26738" lon="29.99218">
        <ele>20.4</ele>
      </trkpt>
      <trkpt lat="36.2676" lon="29.99173">
        <ele>20.4</ele>
      </trkpt>
      <trkpt lat="36.26789" lon="29.99134">
        <ele>21</ele>
      </trkpt>
      <trkpt lat="36.26831" lon="29.99085">
        <ele>21</ele>
      </trkpt>
      <trkpt lat="36.26862" lon="29.99054">
        <ele>21.1</ele>
      </trkpt>
      <trkpt lat="36.26935" lon="29.99007">
        <ele>21.7</ele>
      </trkpt>
      <trkpt lat="36.27003" lon="29.9895">
        <ele>22.8</ele>
      </trkpt>
      <trkpt lat="36.2704" lon="29.98916">
        <ele>23.5</ele>
      </trkpt>
      <trkpt lat="36.27053" lon="29.98898">
        <ele>23.3</ele>
      </trkpt>
      <trkpt lat="36.27072" lon="29.98861">
        <ele>23</ele>
      </trkpt>
      <trkpt lat="36.27089" lon="29.98828">
        <ele>23.2</ele>
      </trkpt>
      <trkpt lat="36.27102" lon="29.98787">
        <ele>23.4</ele>
      </trkpt>
      <trkpt lat="36.27113" lon="29.98751">
        <ele>23.4</ele>
      </trkpt>
      <trkpt lat="36.27128" lon="29.98724">
        <ele>23.7</ele>
      </trkpt>
      <trkpt lat="36.27147" lon="29.98699">
        <ele>24.2</ele>
      </trkpt>
      <trkpt lat="36.27174" lon="29.98666">
        <ele>25.3</ele>
      </trkpt>
      <trkpt lat="36.27212" lon="29.9861">
        <ele>24.9</ele>
      </trkpt>
      <trkpt lat="36.27243" lon="29.98563">
        <ele>24.6</ele>
      </trkpt>
      <trkpt lat="36.27265" lon="29.98537">
        <ele>24.7</ele>
      </trkpt>
      <trkpt lat="36.27295" lon="29.9851">
        <ele>24.3</ele>
      </trkpt>
      <trkpt lat="36.27308" lon="29.98483">
        <ele>23.9</ele>
      </trkpt>
      <trkpt lat="36.27328" lon="29.98432">
        <ele>23.9</ele>
      </trkpt>
      <trkpt lat="36.27368" lon="29.98334">
        <ele>23.8</ele>
      </trkpt>
      <trkpt lat="36.2739" lon="29.98264">
        <ele>24.9</ele>
      </trkpt>
      <trkpt lat="36.27424" lon="29.98168">
        <ele>25.8</ele>
      </trkpt>
      <trkpt lat="36.27457" lon="29.98087">
        <ele>24.5</ele>
      </trkpt>
      <trkpt lat="36.27477" lon="29.98048">
        <ele>24.9</ele>
      </trkpt>
      <trkpt lat="36.27515" lon="29.97934">
        <ele>25.8</ele>
      </trkpt>
      <trkpt lat="36.27535" lon="29.97877">
        <ele>26.2</ele>
      </trkpt>
      <trkpt lat="36.27566" lon="29.97776">
        <ele>28.4</ele>
      </trkpt>
      <trkpt lat="36.27571" lon="29.97755">
        <ele>28.8</ele>
      </trkpt>
      <trkpt lat="36.27579" lon="29.9774">
        <ele>28.7</ele>
      </trkpt>
      <trkpt lat="36.27601" lon="29.9771">
        <ele>27.7</ele>
      </trkpt>
      <trkpt lat="36.27636" lon="29.97659">
        <ele>27</ele>
      </trkpt>
      <trkpt lat="36.27666" lon="29.97635">
        <ele>27.4</ele>
      </trkpt>
      <trkpt lat="36.27691" lon="29.97601">
        <ele>28.3</ele>
      </trkpt>
      <trkpt lat="36.27725" lon="29.9755">
        <ele>29.4</ele>
      </trkpt>
      <trkpt lat="36.27746" lon="29.97519">
        <ele>29.9</ele>
      </trkpt>
      <trkpt lat="36.27763" lon="29.97507">
        <ele>30.1</ele>
      </trkpt>
      <trkpt lat="36.2779" lon="29.97493">
        <ele>30.4</ele>
      </trkpt>
      <trkpt lat="36.27815" lon="29.97486">
        <ele>30.7</ele>
      </trkpt>
      <trkpt lat="36.27843" lon="29.97475">
        <ele>31</ele>
      </trkpt>
      <trkpt lat="36.2786" lon="29.97465">
        <ele>31.1</ele>
      </trkpt>
      <trkpt lat="36.27929" lon="29.97399">
        <ele>31.8</ele>
      </trkpt>
      <trkpt lat="36.27954" lon="29.9738">
        <ele>31.8</ele>
      </trkpt>
      <trkpt lat="36.27983" lon="29.97365">
        <ele>31.9</ele>
      </trkpt>
      <trkpt lat="36.28015" lon="29.97354">
        <ele>32</ele>
      </trkpt>
      <trkpt lat="36.28022" lon="29.97351">
        <ele>32</ele>
      </trkpt>
      <trkpt lat="36.28038" lon="29.9734">
        <ele>32</ele>
      </trkpt>
      <trkpt lat="36.28059" lon="29.97323">
        <ele>31.9</ele>
      </trkpt>
      <trkpt lat="36.28095" lon="29.97279">
        <ele>31.4</ele>
      </trkpt>
      <trkpt lat="36.28124" lon="29.97247">
        <ele>31</ele>
      </trkpt>
      <trkpt lat="36.28151" lon="29.9722">
        <ele>31</ele>
      </trkpt>
      <trkpt lat="36.28169" lon="29.97208">
        <ele>31.1</ele>
      </trkpt>
      <trkpt lat="36.28199" lon="29.97195">
        <ele>31.6</ele>
      </trkpt>
      <trkpt lat="36.28258" lon="29.97172">
        <ele>32.1</ele>
      </trkpt>
      <trkpt lat="36.28292" lon="29.97155">
        <ele>31.9</ele>
      </trkpt>
      <trkpt lat="36.28314" lon="29.97141">
        <ele>31.7</ele>
      </trkpt>
      <trkpt lat="36.28346" lon="29.9712">
        <ele>31.5</ele>
      </trkpt>
      <trkpt lat="36.28356" lon="29.97112">
        <ele>31.4</ele>
      </trkpt>
      <trkpt lat="36.28364" lon="29.97106">
        <ele>31.4</ele>
      </trkpt>
      <trkpt lat="36.28399" lon="29.97061">
        <ele>32.1</ele>
      </trkpt>
      <trkpt lat="36.28427" lon="29.97032">
        <ele>32.9</ele>
      </trkpt>
      <trkpt lat="36.2846" lon="29.97002">
        <ele>32.5</ele>
      </trkpt>
      <trkpt lat="36.28499" lon="29.96966">
        <ele>30.4</ele>
      </trkpt>
      <trkpt lat="36.2852" lon="29.96943">
        <ele>32.2</ele>
      </trkpt>
      <trkpt lat="36.28548" lon="29.96895">
        <ele>32.6</ele>
      </trkpt>
      <trkpt lat="36.28592" lon="29.96924">
        <ele>40.6</ele>
      </trkpt>
      <trkpt lat="36.28595" lon="29.96931">
        <ele>43.5</ele>
      </trkpt>
      <trkpt lat="36.28587" lon="29.96976">
        <ele>50.6</ele>
      </trkpt>
      <trkpt lat="36.2858" lon="29.96992">
        <ele>50.4</ele>
      </trkpt>
      <trkpt lat="36.28564" lon="29.97006">
        <ele>50</ele>
      </trkpt>
      <trkpt lat="36.28557" lon="29.9704">
        <ele>57.3</ele>
      </trkpt>
      <trkpt lat="36.28555" lon="29.97055">
        <ele>60.5</ele>
      </trkpt>
      <trkpt lat="36.28559" lon="29.97061">
        <ele>63.8</ele>
      </trkpt>
      <trkpt lat="36.2857" lon="29.97062">
        <ele>69.1</ele>
      </trkpt>
      <trkpt lat="36.2858" lon="29.97051">
        <ele>70</ele>
      </trkpt>
      <trkpt lat="36.28589" lon="29.9704">
        <ele>71.4</ele>
      </trkpt>
      <trkpt lat="36.28602" lon="29.97025">
        <ele>76.4</ele>
      </trkpt>
      <trkpt lat="36.28606" lon="29.97027">
        <ele>80</ele>
      </trkpt>
      <trkpt lat="36.28607" lon="29.97036">
        <ele>84.4</ele>
      </trkpt>
      <trkpt lat="36.28602" lon="29.97053">
        <ele>87.7</ele>
      </trkpt>
      <trkpt lat="36.28598" lon="29.97092">
        <ele>100.9</ele>
      </trkpt>
      <trkpt lat="36.28586" lon="29.97109">
        <ele>101.7</ele>
      </trkpt>
      <trkpt lat="36.28576" lon="29.97123">
        <ele>103.8</ele>
      </trkpt>
      <trkpt lat="36.28582" lon="29.97128">
        <ele>110.2</ele>
      </trkpt>
      <trkpt lat="36.28591" lon="29.97128">
        <ele>117</ele>
      </trkpt>
      <trkpt lat="36.28597" lon="29.97128">
        <ele>120.9</ele>
      </trkpt>
      <trkpt lat="36.28598" lon="29.97135">
        <ele>125.4</ele>
      </trkpt>
      <trkpt lat="36.28592" lon="29.97141">
        <ele>125.2</ele>
      </trkpt>
      <trkpt lat="36.28586" lon="29.97144">
        <ele>122.8</ele>
      </trkpt>
      <trkpt lat="36.28576" lon="29.97138">
        <ele>112.8</ele>
      </trkpt>
      <trkpt lat="36.2856" lon="29.97135">
        <ele>100.8</ele>
      </trkpt>
      <trkpt lat="36.28547" lon="29.97145">
        <ele>98.3</ele>
      </trkpt>
      <trkpt lat="36.28528" lon="29.9717">
        <ele>99.1</ele>
      </trkpt>
      <trkpt lat="36.28522" lon="29.97191">
        <ele>98.4</ele>
      </trkpt>
      <trkpt lat="36.28518" lon="29.97206">
        <ele>98.9</ele>
      </trkpt>
      <trkpt lat="36.28527" lon="29.97205">
        <ele>105</ele>
      </trkpt>
      <trkpt lat="36.28544" lon="29.97198">
        <ele>116.5</ele>
      </trkpt>
      <trkpt lat="36.28559" lon="29.97195">
        <ele>126.5</ele>
      </trkpt>
      <trkpt lat="36.28577" lon="29.97189">
        <ele>138</ele>
      </trkpt>
      <trkpt lat="36.28583" lon="29.97185">
        <ele>141.4</ele>
      </trkpt>
      <trkpt lat="36.28587" lon="29.97192">
        <ele>145.4</ele>
      </trkpt>
      <trkpt lat="36.28581" lon="29.97208">
        <ele>146.3</ele>
      </trkpt>
      <trkpt lat="36.2857" lon="29.97233">
        <ele>145.5</ele>
      </trkpt>
      <trkpt lat="36.28569" lon="29.97242">
        <ele>146.6</ele>
      </trkpt>
      <trkpt lat="36.28576" lon="29.97245">
        <ele>153.5</ele>
      </trkpt>
      <trkpt lat="36.28585" lon="29.9724">
        <ele>158.7</ele>
      </trkpt>
      <trkpt lat="36.28594" lon="29.97237">
        <ele>163</ele>
      </trkpt>
      <trkpt lat="36.28598" lon="29.97245">
        <ele>167.4</ele>
      </trkpt>
      <trkpt lat="36.28596" lon="29.9725">
        <ele>167.7</ele>
      </trkpt>
      <trkpt lat="36.28586" lon="29.97262">
        <ele>164.8</ele>
      </trkpt>
      <trkpt lat="36.28568" lon="29.97287">
        <ele>156.2</ele>
      </trkpt>
      <trkpt lat="36.28558" lon="29.97297">
        <ele>149.3</ele>
      </trkpt>
      <trkpt lat="36.2855" lon="29.97311">
        <ele>145.7</ele>
      </trkpt>
      <trkpt lat="36.28556" lon="29.97323">
        <ele>153.3</ele>
      </trkpt>
      <trkpt lat="36.28561" lon="29.97328">
        <ele>158.5</ele>
      </trkpt>
      <trkpt lat="36.28569" lon="29.97328">
        <ele>165.7</ele>
      </trkpt>
      <trkpt lat="36.28582" lon="29.97327">
        <ele>176.5</ele>
      </trkpt>
      <trkpt lat="36.2859" lon="29.97327">
        <ele>179.7</ele>
      </trkpt>
      <trkpt lat="36.28604" lon="29.97326">
        <ele>184.2</ele>
      </trkpt>
      <trkpt lat="36.28614" lon="29.97322">
        <ele>186.6</ele>
      </trkpt>
      <trkpt lat="36.28624" lon="29.97325">
        <ele>190.2</ele>
      </trkpt>
      <trkpt lat="36.28638" lon="29.97337">
        <ele>194.7</ele>
      </trkpt>
      <trkpt lat="36.28654" lon="29.97364">
        <ele>195.6</ele>
      </trkpt>
      <trkpt lat="36.28679" lon="29.97399">
        <ele>198.6</ele>
      </trkpt>
      <trkpt lat="36.2869" lon="29.97406">
        <ele>201</ele>
      </trkpt>
      <trkpt lat="36.28693" lon="29.97399">
        <ele>202.7</ele>
      </trkpt>
      <trkpt lat="36.28697" lon="29.97397">
        <ele>204.2</ele>
      </trkpt>
      <trkpt lat="36.28702" lon="29.97402">
        <ele>204.8</ele>
      </trkpt>
      <trkpt lat="36.28711" lon="29.97407">
        <ele>206.7</ele>
      </trkpt>
      <trkpt lat="36.28719" lon="29.97411">
        <ele>208.4</ele>
      </trkpt>
      <trkpt lat="36.28731" lon="29.97423">
        <ele>209.8</ele>
      </trkpt>
      <trkpt lat="36.28745" lon="29.9743">
        <ele>213</ele>
      </trkpt>
      <trkpt lat="36.2876" lon="29.97428">
        <ele>217.7</ele>
      </trkpt>
      <trkpt lat="36.28775" lon="29.97433">
        <ele>221.5</ele>
      </trkpt>
      <trkpt lat="36.28786" lon="29.97418">
        <ele>226.2</ele>
      </trkpt>
      <trkpt lat="36.28789" lon="29.97396">
        <ele>230.8</ele>
      </trkpt>
      <trkpt lat="36.2879" lon="29.97387">
        <ele>232.7</ele>
      </trkpt>
      <trkpt lat="36.2882" lon="29.97377">
        <ele>243.5</ele>
      </trkpt>
      <trkpt lat="36.28827" lon="29.97375">
        <ele>246.1</ele>
      </trkpt>
      <trkpt lat="36.28839" lon="29.97377">
        <ele>249.2</ele>
      </trkpt>
      <trkpt lat="36.28838" lon="29.97369">
        <ele>250.3</ele>
      </trkpt>
      <trkpt lat="36.28828" lon="29.97339">
        <ele>253</ele>
      </trkpt>
      <trkpt lat="36.28829" lon="29.97336">
        <ele>254.1</ele>
      </trkpt>
      <trkpt lat="36.28835" lon="29.97339">
        <ele>255.2</ele>
      </trkpt>
      <trkpt lat="36.28843" lon="29.97347">
        <ele>255.9</ele>
      </trkpt>
      <trkpt lat="36.28855" lon="29.97356">
        <ele>257.6</ele>
      </trkpt>
      <trkpt lat="36.28863" lon="29.97359">
        <ele>259.2</ele>
      </trkpt>
      <trkpt lat="36.28869" lon="29.97351">
        <ele>262.4</ele>
      </trkpt>
      <trkpt lat="36.28881" lon="29.97353">
        <ele>265.3</ele>
      </trkpt>
      <trkpt lat="36.28893" lon="29.97352">
        <ele>268.8</ele>
      </trkpt>
      <trkpt lat="36.28899" lon="29.97349">
        <ele>271.2</ele>
      </trkpt>
      <trkpt lat="36.28909" lon="29.97343">
        <ele>275.5</ele>
      </trkpt>
      <trkpt lat="36.28921" lon="29.97348">
        <ele>277.9</ele>
      </trkpt>
      <trkpt lat="36.28938" lon="29.97355">
        <ele>281.2</ele>
      </trkpt>
      <trkpt lat="36.2895" lon="29.97365">
        <ele>282.1</ele>
      </trkpt>
      <trkpt lat="36.28959" lon="29.97373">
        <ele>282.5</ele>
      </trkpt>
      <trkpt lat="36.28975" lon="29.97375">
        <ele>287</ele>
      </trkpt>
      <trkpt lat="36.28994" lon="29.97377">
        <ele>292</ele>
      </trkpt>
      <trkpt lat="36.29005" lon="29.97377">
        <ele>296.2</ele>
      </trkpt>
      <trkpt lat="36.29014" lon="29.97373">
        <ele>301.4</ele>
      </trkpt>
      <trkpt lat="36.29007" lon="29.97367">
        <ele>300.2</ele>
      </trkpt>
      <trkpt lat="36.28998" lon="29.97355">
        <ele>300</ele>
      </trkpt>
      <trkpt lat="36.2899" lon="29.97346">
        <ele>300</ele>
      </trkpt>
      <trkpt lat="36.28983" lon="29.97335">
        <ele>300.8</ele>
      </trkpt>
      <trkpt lat="36.28987" lon="29.97331">
        <ele>303.9</ele>
      </trkpt>
      <trkpt lat="36.29001" lon="29.97335">
        <ele>306.7</ele>
      </trkpt>
      <trkpt lat="36.29021" lon="29.97341">
        <ele>312.8</ele>
      </trkpt>
      <trkpt lat="36.2904" lon="29.97351">
        <ele>317.8</ele>
      </trkpt>
      <trkpt lat="36.29058" lon="29.97359">
        <ele>323.6</ele>
      </trkpt>
      <trkpt lat="36.29068" lon="29.9737">
        <ele>326</ele>
      </trkpt>
      <trkpt lat="36.29071" lon="29.97386">
        <ele>324.6</ele>
      </trkpt>
      <trkpt lat="36.2907" lon="29.9741">
        <ele>319.8</ele>
      </trkpt>
      <trkpt lat="36.29068" lon="29.97436">
        <ele>314.6</ele>
      </trkpt>
      <trkpt lat="36.29072" lon="29.9746">
        <ele>312.3</ele>
      </trkpt>
      <trkpt lat="36.2908" lon="29.9747">
        <ele>314.5</ele>
      </trkpt>
      <trkpt lat="36.29086" lon="29.97479">
        <ele>316.3</ele>
      </trkpt>
      <trkpt lat="36.29096" lon="29.97487">
        <ele>320.7</ele>
      </trkpt>
      <trkpt lat="36.29104" lon="29.97491">
        <ele>325</ele>
      </trkpt>
      <trkpt lat="36.29109" lon="29.97502">
        <ele>325.2</ele>
      </trkpt>
      <trkpt lat="36.29113" lon="29.97506">
        <ele>325.7</ele>
      </trkpt>
      <trkpt lat="36.29116" lon="29.97505">
        <ele>327.9</ele>
      </trkpt>
      <trkpt lat="36.29116" lon="29.97493">
        <ele>331.3</ele>
      </trkpt>
      <trkpt lat="36.29112" lon="29.9748">
        <ele>331.9</ele>
      </trkpt>
      <trkpt lat="36.29115" lon="29.97476">
        <ele>334.2</ele>
      </trkpt>
      <trkpt lat="36.29118" lon="29.97479">
        <ele>335.6</ele>
      </trkpt>
      <trkpt lat="36.29122" lon="29.97488">
        <ele>336.2</ele>
      </trkpt>
      <trkpt lat="36.2913" lon="29.97505">
        <ele>335.6</ele>
      </trkpt>
      <trkpt lat="36.29129" lon="29.97487">
        <ele>340.5</ele>
      </trkpt>
      <trkpt lat="36.29141" lon="29.97503">
        <ele>342.9</ele>
      </trkpt>
      <trkpt lat="36.29142" lon="29.97484">
        <ele>348.8</ele>
      </trkpt>
      <trkpt lat="36.29151" lon="29.9749">
        <ele>352.9</ele>
      </trkpt>
      <trkpt lat="36.29163" lon="29.97505">
        <ele>354.5</ele>
      </trkpt>
      <trkpt lat="36.29171" lon="29.97515">
        <ele>350.9</ele>
      </trkpt>
      <trkpt lat="36.29179" lon="29.97519">
        <ele>350.5</ele>
      </trkpt>
      <trkpt lat="36.29192" lon="29.97519">
        <ele>354</ele>
      </trkpt>
      <trkpt lat="36.29209" lon="29.97523">
        <ele>355.3</ele>
      </trkpt>
      <trkpt lat="36.29212" lon="29.97518">
        <ele>359.3</ele>
      </trkpt>
      <trkpt lat="36.29206" lon="29.97501">
        <ele>369.5</ele>
      </trkpt>
      <trkpt lat="36.29214" lon="29.975">
        <ele>372.5</ele>
      </trkpt>
      <trkpt lat="36.29228" lon="29.97499">
        <ele>376.7</ele>
      </trkpt>
      <trkpt lat="36.29246" lon="29.97497">
        <ele>382.3</ele>
      </trkpt>
      <trkpt lat="36.29262" lon="29.97495">
        <ele>382.1</ele>
      </trkpt>
      <trkpt lat="36.29275" lon="29.97492">
        <ele>381.1</ele>
      </trkpt>
      <trkpt lat="36.29285" lon="29.9749">
        <ele>380.8</ele>
      </trkpt>
      <trkpt lat="36.29299" lon="29.97479">
        <ele>384.2</ele>
      </trkpt>
      <trkpt lat="36.29306" lon="29.97473">
        <ele>386.6</ele>
      </trkpt>
      <trkpt lat="36.29317" lon="29.97457">
        <ele>394.7</ele>
      </trkpt>
      <trkpt lat="36.29323" lon="29.97444">
        <ele>401.8</ele>
      </trkpt>
      <trkpt lat="36.29328" lon="29.97433">
        <ele>408.3</ele>
      </trkpt>
      <trkpt lat="36.29342" lon="29.9741">
        <ele>419</ele>
      </trkpt>
      <trkpt lat="36.29354" lon="29.97397">
        <ele>423.1</ele>
      </trkpt>
      <trkpt lat="36.29375" lon="29.9738">
        <ele>429.6</ele>
      </trkpt>
      <trkpt lat="36.29395" lon="29.9737">
        <ele>433</ele>
      </trkpt>
      <trkpt lat="36.2943" lon="29.97356">
        <ele>439.1</ele>
      </trkpt>
      <trkpt lat="36.29456" lon="29.97349">
        <ele>440.8</ele>
      </trkpt>
      <trkpt lat="36.29485" lon="29.97349">
        <ele>436.9</ele>
      </trkpt>
      <trkpt lat="36.29526" lon="29.97342">
        <ele>443.4</ele>
      </trkpt>
      <trkpt lat="36.29562" lon="29.97346">
        <ele>449.5</ele>
      </trkpt>
      <trkpt lat="36.29582" lon="29.97352">
        <ele>451.6</ele>
      </trkpt>
      <trkpt lat="36.296" lon="29.97367">
        <ele>453.3</ele>
      </trkpt>
      <trkpt lat="36.29608" lon="29.97371">
        <ele>454.8</ele>
      </trkpt>
      <trkpt lat="36.29625" lon="29.97374">
        <ele>459.8</ele>
      </trkpt>
      <trkpt lat="36.29643" lon="29.97377">
        <ele>465.5</ele>
      </trkpt>
      <trkpt lat="36.29664" lon="29.97371">
        <ele>474.8</ele>
      </trkpt>
      <trkpt lat="36.29682" lon="29.97368">
        <ele>482.2</ele>
      </trkpt>
      <trkpt lat="36.297" lon="29.97361">
        <ele>490.4</ele>
      </trkpt>
      <trkpt lat="36.29735" lon="29.97356">
        <ele>502.9</ele>
      </trkpt>
      <trkpt lat="36.29759" lon="29.97356">
        <ele>509.6</ele>
      </trkpt>
      <trkpt lat="36.29777" lon="29.97362">
        <ele>512</ele>
      </trkpt>
      <trkpt lat="36.298" lon="29.97362">
        <ele>516.7</ele>
      </trkpt>
      <trkpt lat="36.29831" lon="29.97358">
        <ele>522.9</ele>
      </trkpt>
      <trkpt lat="36.29852" lon="29.97362">
        <ele>527.6</ele>
      </trkpt>
      <trkpt lat="36.29866" lon="29.97359">
        <ele>530.9</ele>
      </trkpt>
      <trkpt lat="36.29876" lon="29.9735">
        <ele>532.4</ele>
      </trkpt>
      <trkpt lat="36.29893" lon="29.97331">
        <ele>534.1</ele>
      </trkpt>
      <trkpt lat="36.29905" lon="29.97316">
        <ele>541.2</ele>
      </trkpt>
      <trkpt lat="36.29914" lon="29.97317">
        <ele>542.1</ele>
      </trkpt>
      <trkpt lat="36.29932" lon="29.97308">
        <ele>547.8</ele>
      </trkpt>
      <trkpt lat="36.29959" lon="29.97306">
        <ele>552.9</ele>
      </trkpt>
      <trkpt lat="36.29979" lon="29.97299">
        <ele>557.9</ele>
      </trkpt>
      <trkpt lat="36.30013" lon="29.97284">
        <ele>566.5</ele>
      </trkpt>
      <trkpt lat="36.30029" lon="29.97282">
        <ele>569.6</ele>
      </trkpt>
      <trkpt lat="36.30058" lon="29.97282">
        <ele>574.7</ele>
      </trkpt>
      <trkpt lat="36.30075" lon="29.97292">
        <ele>575.9</ele>
      </trkpt>
      <trkpt lat="36.30096" lon="29.9729">
        <ele>581.6</ele>
      </trkpt>
      <trkpt lat="36.30111" lon="29.97281">
        <ele>587.8</ele>
      </trkpt>
      <trkpt lat="36.3013" lon="29.97253">
        <ele>598.5</ele>
      </trkpt>
      <trkpt lat="36.30143" lon="29.97265">
        <ele>600.2</ele>
      </trkpt>
      <trkpt lat="36.30151" lon="29.97288">
        <ele>598.8</ele>
      </trkpt>
      <trkpt lat="36.3016" lon="29.97301">
        <ele>599.5</ele>
      </trkpt>
      <trkpt lat="36.30179" lon="29.97327">
        <ele>602.5</ele>
      </trkpt>
      <trkpt lat="36.30206" lon="29.97347">
        <ele>612.7</ele>
      </trkpt>
      <trkpt lat="36.30235" lon="29.97373">
        <ele>620.7</ele>
      </trkpt>
      <trkpt lat="36.30253" lon="29.97396">
        <ele>622.4</ele>
      </trkpt>
      <trkpt lat="36.3027" lon="29.97426">
        <ele>626.7</ele>
      </trkpt>
      <trkpt lat="36.30287" lon="29.97449">
        <ele>635.1</ele>
      </trkpt>
      <trkpt lat="36.303" lon="29.97462">
        <ele>639</ele>
      </trkpt>
      <trkpt lat="36.30315" lon="29.97479">
        <ele>641.6</ele>
      </trkpt>
      <trkpt lat="36.30337" lon="29.97489">
        <ele>642.8</ele>
      </trkpt>
      <trkpt lat="36.30367" lon="29.97493">
        <ele>644.7</ele>
      </trkpt>
      <trkpt lat="36.30416" lon="29.97485">
        <ele>649.8</ele>
      </trkpt>
      <trkpt lat="36.30439" lon="29.97484">
        <ele>651.3</ele>
      </trkpt>
      <trkpt lat="36.30473" lon="29.9748">
        <ele>653.9</ele>
      </trkpt>
      <trkpt lat="36.30499" lon="29.97477">
        <ele>655.8</ele>
      </trkpt>
      <trkpt lat="36.30523" lon="29.97463">
        <ele>656.7</ele>
      </trkpt>
      <trkpt lat="36.30549" lon="29.97441">
        <ele>657.4</ele>
      </trkpt>
      <trkpt lat="36.30565" lon="29.97432">
        <ele>656.7</ele>
      </trkpt>
      <trkpt lat="36.30582" lon="29.97428">
        <ele>655.3</ele>
      </trkpt>
      <trkpt lat="36.30597" lon="29.97428">
        <ele>654.5</ele>
      </trkpt>
      <trkpt lat="36.30615" lon="29.97425">
        <ele>653.8</ele>
      </trkpt>
      <trkpt lat="36.30627" lon="29.97406">
        <ele>653.2</ele>
      </trkpt>
      <trkpt lat="36.30634" lon="29.97428">
        <ele>652.6</ele>
      </trkpt>
      <trkpt lat="36.3064" lon="29.9746">
        <ele>651.6</ele>
      </trkpt>
      <trkpt lat="36.30648" lon="29.97483">
        <ele>651.1</ele>
      </trkpt>
      <trkpt lat="36.30658" lon="29.97495">
        <ele>650.9</ele>
      </trkpt>
      <trkpt lat="36.30672" lon="29.97497">
        <ele>651.1</ele>
      </trkpt>
      <trkpt lat="36.30682" lon="29.97491">
        <ele>651.1</ele>
      </trkpt>
      <trkpt lat="36.30691" lon="29.97484">
        <ele>651.1</ele>
      </trkpt>
      <trkpt lat="36.307" lon="29.97485">
        <ele>651.1</ele>
      </trkpt>
      <trkpt lat="36.30722" lon="29.97492">
        <ele>651.4</ele>
      </trkpt>
      <trkpt lat="36.30778" lon="29.97513">
        <ele>653.6</ele>
      </trkpt>
      <trkpt lat="36.30849" lon="29.97533">
        <ele>657.7</ele>
      </trkpt>
      <trkpt lat="36.3089" lon="29.97544">
        <ele>661.2</ele>
      </trkpt>
      <trkpt lat="36.30928" lon="29.97564">
        <ele>664.9</ele>
      </trkpt>
      <trkpt lat="36.30967" lon="29.97571">
        <ele>670.5</ele>
      </trkpt>
      <trkpt lat="36.30987" lon="29.97572">
        <ele>673.5</ele>
      </trkpt>
      <trkpt lat="36.31006" lon="29.97572">
        <ele>676.8</ele>
      </trkpt>
      <trkpt lat="36.31029" lon="29.97564">
        <ele>682.2</ele>
      </trkpt>
      <trkpt lat="36.31039" lon="29.97574">
        <ele>684.1</ele>
      </trkpt>
      <trkpt lat="36.31071" lon="29.97585">
        <ele>691.7</ele>
      </trkpt>
      <trkpt lat="36.31128" lon="29.97583">
        <ele>703.1</ele>
      </trkpt>
      <trkpt lat="36.31184" lon="29.97587">
        <ele>716.3</ele>
      </trkpt>
      <trkpt lat="36.31215" lon="29.97587">
        <ele>723.5</ele>
      </trkpt>
      <trkpt lat="36.31247" lon="29.97576">
        <ele>727.8</ele>
      </trkpt>
      <trkpt lat="36.31278" lon="29.97571">
        <ele>732.8</ele>
      </trkpt>
      <trkpt lat="36.31318" lon="29.97578">
        <ele>739.9</ele>
      </trkpt>
      <trkpt lat="36.31334" lon="29.97586">
        <ele>744.6</ele>
      </trkpt>
      <trkpt lat="36.31358" lon="29.97591">
        <ele>747.7</ele>
      </trkpt>
      <trkpt lat="36.31357" lon="29.97604">
        <ele>754.9</ele>
      </trkpt>
      <trkpt lat="36.31351" lon="29.97617">
        <ele>761.4</ele>
      </trkpt>
      <trkpt lat="36.31369" lon="29.97631">
        <ele>769.5</ele>
      </trkpt>
      <trkpt lat="36.31376" lon="29.97631">
        <ele>769.7</ele>
      </trkpt>
      <trkpt lat="36.3139" lon="29.97634">
        <ele>771.1</ele>
      </trkpt>
      <trkpt lat="36.31407" lon="29.97631">
        <ele>769.8</ele>
      </trkpt>
      <trkpt lat="36.31425" lon="29.97632">
        <ele>770.1</ele>
      </trkpt>
      <trkpt lat="36.31443" lon="29.97642">
        <ele>773.6</ele>
      </trkpt>
      <trkpt lat="36.31456" lon="29.97646">
        <ele>773.8</ele>
      </trkpt>
      <trkpt lat="36.31488" lon="29.97689">
        <ele>787.7</ele>
      </trkpt>
      <trkpt lat="36.31484" lon="29.97698">
        <ele>793</ele>
      </trkpt>
      <trkpt lat="36.31497" lon="29.97718">
        <ele>799.2</ele>
      </trkpt>
      <trkpt lat="36.31532" lon="29.97746">
        <ele>807.9</ele>
      </trkpt>
      <trkpt lat="36.31539" lon="29.97765">
        <ele>816.6</ele>
      </trkpt>
      <trkpt lat="36.31552" lon="29.97775">
        <ele>821</ele>
      </trkpt>
      <trkpt lat="36.31607" lon="29.97765">
        <ele>816.6</ele>
      </trkpt>
      <trkpt lat="36.31669" lon="29.97751">
        <ele>819.6</ele>
      </trkpt>
      <trkpt lat="36.31704" lon="29.97757">
        <ele>826.7</ele>
      </trkpt>
      <trkpt lat="36.3175" lon="29.97771">
        <ele>838.5</ele>
      </trkpt>
      <trkpt lat="36.31844" lon="29.97754">
        <ele>844.5</ele>
      </trkpt>
      <trkpt lat="36.31863" lon="29.97757">
        <ele>849</ele>
      </trkpt>
      <trkpt lat="36.319" lon="29.9778">
        <ele>861.8</ele>
      </trkpt>
      <trkpt lat="36.3194" lon="29.97782">
        <ele>870.7</ele>
      </trkpt>
      <trkpt lat="36.31967" lon="29.97812">
        <ele>879</ele>
      </trkpt>
      <trkpt lat="36.32" lon="29.97852">
        <ele>884.1</ele>
      </trkpt>
      <trkpt lat="36.32026" lon="29.97874">
        <ele>888.3</ele>
      </trkpt>
      <trkpt lat="36.3205" lon="29.97888">
        <ele>890.6</ele>
      </trkpt>
      <trkpt lat="36.32069" lon="29.97906">
        <ele>891.7</ele>
      </trkpt>
      <trkpt lat="36.32088" lon="29.97922">
        <ele>893.4</ele>
      </trkpt>
      <trkpt lat="36.32108" lon="29.97931">
        <ele>895.5</ele>
      </trkpt>
      <trkpt lat="36.32138" lon="29.97947">
        <ele>898.5</ele>
      </trkpt>
      <trkpt lat="36.32196" lon="29.98002">
        <ele>905.3</ele>
      </trkpt>
      <trkpt lat="36.32214" lon="29.98013">
        <ele>904.4</ele>
      </trkpt>
      <trkpt lat="36.32232" lon="29.98014">
        <ele>902.9</ele>
      </trkpt>
      <trkpt lat="36.32243" lon="29.98013">
        <ele>902.1</ele>
      </trkpt>
      <trkpt lat="36.32255" lon="29.98025">
        <ele>900.9</ele>
      </trkpt>
      <trkpt lat="36.32269" lon="29.98034">
        <ele>899.5</ele>
      </trkpt>
      <trkpt lat="36.32286" lon="29.9803">
        <ele>898.9</ele>
      </trkpt>
      <trkpt lat="36.32303" lon="29.98023">
        <ele>899</ele>
      </trkpt>
      <trkpt lat="36.32385" lon="29.98034">
        <ele>893.5</ele>
      </trkpt>
      <trkpt lat="36.32453" lon="29.98038">
        <ele>886.9</ele>
      </trkpt>
      <trkpt lat="36.32467" lon="29.98029">
        <ele>888.2</ele>
      </trkpt>
      <trkpt lat="36.32535" lon="29.98028">
        <ele>886</ele>
      </trkpt>
      <trkpt lat="36.3252" lon="29.9805">
        <ele>878.2</ele>
      </trkpt>
      <trkpt lat="36.32535" lon="29.98057">
        <ele>876</ele>
      </trkpt>
      <trkpt lat="36.32519" lon="29.98077">
        <ele>869.1</ele>
      </trkpt>
      <trkpt lat="36.32535" lon="29.98076">
        <ele>869.1</ele>
      </trkpt>
      <trkpt lat="36.32564" lon="29.9808">
        <ele>867.6</ele>
      </trkpt>
      <trkpt lat="36.32587" lon="29.98087">
        <ele>865.6</ele>
      </trkpt>
      <trkpt lat="36.3261" lon="29.981">
        <ele>865.3</ele>
      </trkpt>
      <trkpt lat="36.32623" lon="29.98096">
        <ele>866.6</ele>
      </trkpt>
      <trkpt lat="36.32636" lon="29.98102">
        <ele>866.9</ele>
      </trkpt>
      <trkpt lat="36.32636" lon="29.98132">
        <ele>864.4</ele>
      </trkpt>
      <trkpt lat="36.32637" lon="29.98165">
        <ele>861.7</ele>
      </trkpt>
      <trkpt lat="36.32648" lon="29.98176">
        <ele>862.9</ele>
      </trkpt>
      <trkpt lat="36.32651" lon="29.98195">
        <ele>862</ele>
      </trkpt>
      <trkpt lat="36.32655" lon="29.98213">
        <ele>861.1</ele>
      </trkpt>
      <trkpt lat="36.32649" lon="29.98243">
        <ele>857.8</ele>
      </trkpt>
      <trkpt lat="36.32655" lon="29.98263">
        <ele>856.3</ele>
      </trkpt>
      <trkpt lat="36.32671" lon="29.98296">
        <ele>855</ele>
      </trkpt>
      <trkpt lat="36.32662" lon="29.98334">
        <ele>847.3</ele>
      </trkpt>
      <trkpt lat="36.32652" lon="29.98376">
        <ele>839.4</ele>
      </trkpt>
      <trkpt lat="36.32653" lon="29.98396">
        <ele>836.5</ele>
      </trkpt>
      <trkpt lat="36.3265" lon="29.98406">
        <ele>834.6</ele>
      </trkpt>
      <trkpt lat="36.32642" lon="29.98407">
        <ele>833.5</ele>
      </trkpt>
      <trkpt lat="36.32602" lon="29.98458">
        <ele>824.1</ele>
      </trkpt>
      <trkpt lat="36.32597" lon="29.9849">
        <ele>821.4</ele>
      </trkpt>
      <trkpt lat="36.32602" lon="29.98527">
        <ele>825.6</ele>
      </trkpt>
      <trkpt lat="36.32603" lon="29.98601">
        <ele>839.9</ele>
      </trkpt>
      <trkpt lat="36.32594" lon="29.98629">
        <ele>849.2</ele>
      </trkpt>
      <trkpt lat="36.32589" lon="29.98678">
        <ele>863.8</ele>
      </trkpt>
      <trkpt lat="36.32575" lon="29.98727">
        <ele>882.2</ele>
      </trkpt>
      <trkpt lat="36.32577" lon="29.98771">
        <ele>893.4</ele>
      </trkpt>
      <trkpt lat="36.32585" lon="29.98798">
        <ele>898.3</ele>
      </trkpt>
      <trkpt lat="36.32567" lon="29.98892">
        <ele>921</ele>
      </trkpt>
      <trkpt lat="36.32573" lon="29.98928">
        <ele>921.7</ele>
      </trkpt>
      <trkpt lat="36.32567" lon="29.98952">
        <ele>923.8</ele>
      </trkpt>
      <trkpt lat="36.32551" lon="29.98997">
        <ele>930.2</ele>
      </trkpt>
      <trkpt lat="36.32556" lon="29.99041">
        <ele>929.9</ele>
      </trkpt>
      <trkpt lat="36.32554" lon="29.99101">
        <ele>934.4</ele>
      </trkpt>
      <trkpt lat="36.32552" lon="29.99205">
        <ele>945.3</ele>
      </trkpt>
      <trkpt lat="36.3256" lon="29.9926">
        <ele>945.2</ele>
      </trkpt>
      <trkpt lat="36.32573" lon="29.99295">
        <ele>938.9</ele>
      </trkpt>
      <trkpt lat="36.32581" lon="29.99314">
        <ele>935.3</ele>
      </trkpt>
      <trkpt lat="36.32577" lon="29.99324">
        <ele>936.7</ele>
      </trkpt>
      <trkpt lat="36.32631" lon="29.99403">
        <ele>916.9</ele>
      </trkpt>
      <trkpt lat="36.32638" lon="29.9943">
        <ele>907.9</ele>
      </trkpt>
      <trkpt lat="36.32684" lon="29.99478">
        <ele>896.2</ele>
      </trkpt>
      <trkpt lat="36.32769" lon="29.99559">
        <ele>890.5</ele>
      </trkpt>
      <trkpt lat="36.32794" lon="29.99589">
        <ele>885.9</ele>
      </trkpt>
      <trkpt lat="36.32816" lon="29.99606">
        <ele>888.5</ele>
      </trkpt>
      <trkpt lat="36.32835" lon="29.99618">
        <ele>892</ele>
      </trkpt>
      <trkpt lat="36.32842" lon="29.99632">
        <ele>891.4</ele>
      </trkpt>
      <trkpt lat="36.3284" lon="29.99651">
        <ele>884.6</ele>
      </trkpt>
      <trkpt lat="36.32833" lon="29.9967">
        <ele>875.2</ele>
      </trkpt>
      <trkpt lat="36.32841" lon="29.99704">
        <ele>873</ele>
      </trkpt>
      <trkpt lat="36.32856" lon="29.9973">
        <ele>875.6</ele>
      </trkpt>
      <trkpt lat="36.32859" lon="29.99781">
        <ele>864.4</ele>
      </trkpt>
      <trkpt lat="36.32865" lon="29.99821">
        <ele>856.9</ele>
      </trkpt>
      <trkpt lat="36.32879" lon="29.99865">
        <ele>853.8</ele>
      </trkpt>
      <trkpt lat="36.32894" lon="29.99938">
        <ele>842.8</ele>
      </trkpt>
      <trkpt lat="36.32918" lon="29.99985">
        <ele>836.9</ele>
      </trkpt>
      <trkpt lat="36.32941" lon="30.00017">
        <ele>839.5</ele>
      </trkpt>
      <trkpt lat="36.32962" lon="30.00046">
        <ele>841.6</ele>
      </trkpt>
      <trkpt lat="36.32976" lon="30.00162">
        <ele>824.3</ele>
      </trkpt>
      <trkpt lat="36.32971" lon="30.00193">
        <ele>823.1</ele>
      </trkpt>
      <trkpt lat="36.33123" lon="30.0038">
        <ele>845.4</ele>
      </trkpt>
      <trkpt lat="36.33257" lon="30.00481">
        <ele>861.2</ele>
      </trkpt>
      <trkpt lat="36.3332" lon="30.00505">
        <ele>872.7</ele>
      </trkpt>
      <trkpt lat="36.33345" lon="30.00512">
        <ele>878.4</ele>
      </trkpt>
      <trkpt lat="36.33355" lon="30.00536">
        <ele>881</ele>
      </trkpt>
      <trkpt lat="36.33386" lon="30.00567">
        <ele>887.2</ele>
      </trkpt>
      <trkpt lat="36.33414" lon="30.00602">
        <ele>891.6</ele>
      </trkpt>
      <trkpt lat="36.33456" lon="30.00644">
        <ele>898.9</ele>
      </trkpt>
      <trkpt lat="36.33483" lon="30.00674">
        <ele>901.1</ele>
      </trkpt>
      <trkpt lat="36.33498" lon="30.00701">
        <ele>903.3</ele>
      </trkpt>
      <trkpt lat="36.33532" lon="30.00711">
        <ele>911.7</ele>
      </trkpt>
      <trkpt lat="36.33799" lon="30.00963">
        <ele>957.8</ele>
      </trkpt>
      <trkpt lat="36.33861" lon="30.01006">
        <ele>970.7</ele>
      </trkpt>
      <trkpt lat="36.3387" lon="30.0099">
        <ele>973.9</ele>
      </trkpt>
      <trkpt lat="36.33879" lon="30.00984">
        <ele>976.8</ele>
      </trkpt>
      <trkpt lat="36.33887" lon="30.0099">
        <ele>978.2</ele>
      </trkpt>
      <trkpt lat="36.33901" lon="30.0101">
        <ele>980.5</ele>
      </trkpt>
      <trkpt lat="36.33913" lon="30.01014">
        <ele>983.3</ele>
      </trkpt>
      <trkpt lat="36.33931" lon="30.01008">
        <ele>987.9</ele>
      </trkpt>
      <trkpt lat="36.33936" lon="30.01001">
        <ele>989.6</ele>
      </trkpt>
      <trkpt lat="36.33943" lon="30.00997">
        <ele>991.6</ele>
      </trkpt>
      <trkpt lat="36.33958" lon="30.01005">
        <ele>994.7</ele>
      </trkpt>
      <trkpt lat="36.33988" lon="30.00983">
        <ele>1004.3</ele>
      </trkpt>
      <trkpt lat="36.34006" lon="30.00989">
        <ele>1008.6</ele>
      </trkpt>
      <trkpt lat="36.34024" lon="30.01008">
        <ele>1012.4</ele>
      </trkpt>
      <trkpt lat="36.34037" lon="30.01001">
        <ele>1016.9</ele>
      </trkpt>
      <trkpt lat="36.34128" lon="30.01028">
        <ele>1043.6</ele>
      </trkpt>
      <trkpt lat="36.3417" lon="30.0105">
        <ele>1054.6</ele>
      </trkpt>
      <trkpt lat="36.34194" lon="30.01071">
        <ele>1058.7</ele>
      </trkpt>
      <trkpt lat="36.34243" lon="30.01079">
        <ele>1071.5</ele>
      </trkpt>
      <trkpt lat="36.34294" lon="30.01136">
        <ele>1084.1</ele>
      </trkpt>
      <trkpt lat="36.34349" lon="30.01238">
        <ele>1094.7</ele>
      </trkpt>
      <trkpt lat="36.344" lon="30.01258">
        <ele>1109.4</ele>
      </trkpt>
      <trkpt lat="36.34428" lon="30.01256">
        <ele>1119.1</ele>
      </trkpt>
      <trkpt lat="36.34438" lon="30.01232">
        <ele>1125.1</ele>
      </trkpt>
      <trkpt lat="36.34539" lon="30.01189">
        <ele>1171.3</ele>
      </trkpt>
      <trkpt lat="36.34573" lon="30.01198">
        <ele>1185.2</ele>
      </trkpt>
      <trkpt lat="36.34599" lon="30.01142">
        <ele>1206.6</ele>
      </trkpt>
      <trkpt lat="36.34609" lon="30.0115">
        <ele>1210.3</ele>
      </trkpt>
      <trkpt lat="36.34625" lon="30.01127">
        <ele>1221.8</ele>
      </trkpt>
      <trkpt lat="36.3464" lon="30.01138">
        <ele>1227.5</ele>
      </trkpt>
      <trkpt lat="36.34654" lon="30.01098">
        <ele>1240.5</ele>
      </trkpt>
      <trkpt lat="36.34676" lon="30.01118">
        <ele>1248.1</ele>
      </trkpt>
      <trkpt lat="36.34685" lon="30.01102">
        <ele>1255.5</ele>
      </trkpt>
      <trkpt lat="36.34698" lon="30.01111">
        <ele>1260.7</ele>
      </trkpt>
      <trkpt lat="36.3472" lon="30.01044">
        <ele>1284.5</ele>
      </trkpt>
      <trkpt lat="36.34784" lon="30.01121">
        <ele>1304.9</ele>
      </trkpt>
      <trkpt lat="36.34817" lon="30.01047">
        <ele>1339.4</ele>
      </trkpt>
      <trkpt lat="36.34873" lon="30.01117">
        <ele>1357</ele>
      </trkpt>
      <trkpt lat="36.34932" lon="30.01144">
        <ele>1386.1</ele>
      </trkpt>
      <trkpt lat="36.34985" lon="30.01219">
        <ele>1400.3</ele>
      </trkpt>
      <trkpt lat="36.35069" lon="30.01246">
        <ele>1434.4</ele>
      </trkpt>
      <trkpt lat="36.35104" lon="30.01282">
        <ele>1442.7</ele>
      </trkpt>
      <trkpt lat="36.35155" lon="30.0134">
        <ele>1459.2</ele>
      </trkpt>
      <trkpt lat="36.35178" lon="30.01397">
        <ele>1475</ele>
      </trkpt>
      <trkpt lat="36.35174" lon="30.0145">
        <ele>1473</ele>
      </trkpt>
      <trkpt lat="36.35198" lon="30.01407">
        <ele>1488.6</ele>
      </trkpt>
      <trkpt lat="36.35225" lon="30.01328">
        <ele>1508.9</ele>
      </trkpt>
      <trkpt lat="36.35242" lon="30.01341">
        <ele>1520.4</ele>
      </trkpt>
      <trkpt lat="36.35265" lon="30.01336">
        <ele>1540.1</ele>
      </trkpt>
      <trkpt lat="36.35271" lon="30.01392">
        <ele>1538.2</ele>
      </trkpt>
      <trkpt lat="36.35285" lon="30.01432">
        <ele>1539</ele>
      </trkpt>
      <trkpt lat="36.35312" lon="30.01461">
        <ele>1545.6</ele>
      </trkpt>
      <trkpt lat="36.35365" lon="30.01475">
        <ele>1565.2</ele>
      </trkpt>
      <trkpt lat="36.35417" lon="30.01483">
        <ele>1581.7</ele>
      </trkpt>
      <trkpt lat="36.35458" lon="30.01515">
        <ele>1590.3</ele>
      </trkpt>
      <trkpt lat="36.35494" lon="30.01585">
        <ele>1591.1</ele>
      </trkpt>
      <trkpt lat="36.35503" lon="30.01587">
        <ele>1596.4</ele>
      </trkpt>
      <trkpt lat="36.35501" lon="30.01624">
        <ele>1588.4</ele>
      </trkpt>
      <trkpt lat="36.35512" lon="30.0166">
        <ele>1586.5</ele>
      </trkpt>
      <trkpt lat="36.35545" lon="30.01667">
        <ele>1596.9</ele>
      </trkpt>
      <trkpt lat="36.35683" lon="30.01695">
        <ele>1617</ele>
      </trkpt>
      <trkpt lat="36.35733" lon="30.01696">
        <ele>1625.6</ele>
      </trkpt>
      <trkpt lat="36.35827" lon="30.01767">
        <ele>1627.8</ele>
      </trkpt>
      <trkpt lat="36.35882" lon="30.018">
        <ele>1638.8</ele>
      </trkpt>
      <trkpt lat="36.35904" lon="30.01829">
        <ele>1636.3</ele>
      </trkpt>
      <trkpt lat="36.35939" lon="30.01872">
        <ele>1635.4</ele>
      </trkpt>
      <trkpt lat="36.35979" lon="30.01897">
        <ele>1645.4</ele>
      </trkpt>
      <trkpt lat="36.36034" lon="30.01939">
        <ele>1653.8</ele>
      </trkpt>
      <trkpt lat="36.36089" lon="30.01958">
        <ele>1664</ele>
      </trkpt>
      <trkpt lat="36.36198" lon="30.01983">
        <ele>1676.6</ele>
      </trkpt>
      <trkpt lat="36.36234" lon="30.02009">
        <ele>1678.7</ele>
      </trkpt>
      <trkpt lat="36.36265" lon="30.02041">
        <ele>1679.3</ele>
      </trkpt>
      <trkpt lat="36.36288" lon="30.02057">
        <ele>1681.1</ele>
      </trkpt>
      <trkpt lat="36.36307" lon="30.02093">
        <ele>1682</ele>
      </trkpt>
      <trkpt lat="36.36333" lon="30.02108">
        <ele>1688.5</ele>
      </trkpt>
      <trkpt lat="36.36341" lon="30.02123">
        <ele>1689.9</ele>
      </trkpt>
      <trkpt lat="36.36337" lon="30.02142">
        <ele>1689.1</ele>
      </trkpt>
      <trkpt lat="36.36324" lon="30.02166">
        <ele>1683.7</ele>
      </trkpt>
      <trkpt lat="36.36316" lon="30.02207">
        <ele>1683.1</ele>
      </trkpt>
      <trkpt lat="36.36292" lon="30.02279">
        <ele>1680.5</ele>
      </trkpt>
      <trkpt lat="36.36264" lon="30.02322">
        <ele>1678.1</ele>
      </trkpt>
      <trkpt lat="36.36254" lon="30.02367">
        <ele>1675.9</ele>
      </trkpt>
      <trkpt lat="36.36247" lon="30.02438">
        <ele>1669.2</ele>
      </trkpt>
      <trkpt lat="36.36252" lon="30.02562">
        <ele>1655.2</ele>
      </trkpt>
      <trkpt lat="36.36247" lon="30.02649">
        <ele>1645</ele>
      </trkpt>
      <trkpt lat="36.36227" lon="30.02731">
        <ele>1631.8</ele>
      </trkpt>
      <trkpt lat="36.36218" lon="30.0278">
        <ele>1625</ele>
      </trkpt>
      <trkpt lat="36.36204" lon="30.02834">
        <ele>1617.5</ele>
      </trkpt>
      <trkpt lat="36.36191" lon="30.0287">
        <ele>1610.9</ele>
      </trkpt>
      <trkpt lat="36.36172" lon="30.02896">
        <ele>1606.4</ele>
      </trkpt>
      <trkpt lat="36.36154" lon="30.02908">
        <ele>1604.6</ele>
      </trkpt>
      <trkpt lat="36.36154" lon="30.02939">
        <ele>1605.5</ele>
      </trkpt>
      <trkpt lat="36.36083" lon="30.0298">
        <ele>1609.8</ele>
      </trkpt>
      <trkpt lat="36.36065" lon="30.03044">
        <ele>1616.8</ele>
      </trkpt>
      <trkpt lat="36.36053" lon="30.03101">
        <ele>1624</ele>
      </trkpt>
      <trkpt lat="36.3602" lon="30.03145">
        <ele>1629.4</ele>
      </trkpt>
      <trkpt lat="36.36024" lon="30.03162">
        <ele>1632.2</ele>
      </trkpt>
      <trkpt lat="36.35995" lon="30.03212">
        <ele>1643.5</ele>
      </trkpt>
      <trkpt lat="36.36005" lon="30.03262">
        <ele>1655.4</ele>
      </trkpt>
      <trkpt lat="36.36047" lon="30.03317">
        <ele>1661.4</ele>
      </trkpt>
      <trkpt lat="36.36004" lon="30.03334">
        <ele>1672.5</ele>
      </trkpt>
      <trkpt lat="36.3597" lon="30.03369">
        <ele>1681.4</ele>
      </trkpt>
      <trkpt lat="36.35917" lon="30.03462">
        <ele>1704.7</ele>
      </trkpt>
      <trkpt lat="36.35905" lon="30.03467">
        <ele>1703.4</ele>
      </trkpt>
      <trkpt lat="36.35857" lon="30.03565">
        <ele>1708.3</ele>
      </trkpt>
      <trkpt lat="36.35856" lon="30.03604">
        <ele>1709.6</ele>
      </trkpt>
      <trkpt lat="36.35852" lon="30.03671">
        <ele>1709.1</ele>
      </trkpt>
      <trkpt lat="36.35838" lon="30.03712">
        <ele>1711.6</ele>
      </trkpt>
      <trkpt lat="36.35818" lon="30.03757">
        <ele>1714.1</ele>
      </trkpt>
      <trkpt lat="36.35797" lon="30.03773">
        <ele>1714.2</ele>
      </trkpt>
      <trkpt lat="36.35791" lon="30.03796">
        <ele>1717.2</ele>
      </trkpt>
      <trkpt lat="36.358" lon="30.03817">
        <ele>1721.8</ele>
      </trkpt>
      <trkpt lat="36.35764" lon="30.03912">
        <ele>1739.8</ele>
      </trkpt>
      <trkpt lat="36.35724" lon="30.03965">
        <ele>1746.7</ele>
      </trkpt>
      <trkpt lat="36.35631" lon="30.04059">
        <ele>1755.9</ele>
      </trkpt>
      <trkpt lat="36.3555" lon="30.04097">
        <ele>1754.1</ele>
      </trkpt>
      <trkpt lat="36.35468" lon="30.04097">
        <ele>1737.9</ele>
      </trkpt>
      <trkpt lat="36.35453" lon="30.04147">
        <ele>1746.6</ele>
      </trkpt>
      <trkpt lat="36.35484" lon="30.04275">
        <ele>1767.4</ele>
      </trkpt>
      <trkpt lat="36.35466" lon="30.0431">
        <ele>1769.1</ele>
      </trkpt>
      <trkpt lat="36.35415" lon="30.0434">
        <ele>1762</ele>
      </trkpt>
      <trkpt lat="36.35375" lon="30.0442">
        <ele>1765.5</ele>
      </trkpt>
      <trkpt lat="36.35352" lon="30.04504">
        <ele>1764.9</ele>
      </trkpt>
      <trkpt lat="36.35361" lon="30.04576">
        <ele>1766</ele>
      </trkpt>
      <trkpt lat="36.35389" lon="30.04611">
        <ele>1771.4</ele>
      </trkpt>
      <trkpt lat="36.35395" lon="30.04663">
        <ele>1766.1</ele>
      </trkpt>
      <trkpt lat="36.35418" lon="30.04718">
        <ele>1763.1</ele>
      </trkpt>
      <trkpt lat="36.35452" lon="30.04778">
        <ele>1763</ele>
      </trkpt>
      <trkpt lat="36.35443" lon="30.04805">
        <ele>1760.4</ele>
      </trkpt>
      <trkpt lat="36.35367" lon="30.04837">
        <ele>1742.4</ele>
      </trkpt>
      <trkpt lat="36.35222" lon="30.04876">
        <ele>1748.7</ele>
      </trkpt>
      <trkpt lat="36.35184" lon="30.04861">
        <ele>1742.8</ele>
      </trkpt>
      <trkpt lat="36.35057" lon="30.04879">
        <ele>1744.1</ele>
      </trkpt>
      <trkpt lat="36.35018" lon="30.0487">
        <ele>1738.1</ele>
      </trkpt>
      <trkpt lat="36.35008" lon="30.04905">
        <ele>1741.8</ele>
      </trkpt>
      <trkpt lat="36.34939" lon="30.04966">
        <ele>1735.6</ele>
      </trkpt>
      <trkpt lat="36.34834" lon="30.05012">
        <ele>1725.8</ele>
      </trkpt>
      <trkpt lat="36.34697" lon="30.05021">
        <ele>1721.4</ele>
      </trkpt>
      <trkpt lat="36.34597" lon="30.05029">
        <ele>1713.3</ele>
      </trkpt>
      <trkpt lat="36.34545" lon="30.05093">
        <ele>1705.4</ele>
      </trkpt>
      <trkpt lat="36.34505" lon="30.05213">
        <ele>1696.3</ele>
      </trkpt>
      <trkpt lat="36.34456" lon="30.0529">
        <ele>1686</ele>
      </trkpt>
      <trkpt lat="36.34286" lon="30.05351">
        <ele>1674</ele>
      </trkpt>
      <trkpt lat="36.34206" lon="30.05395">
        <ele>1660.7</ele>
      </trkpt>
      <trkpt lat="36.34193" lon="30.0547">
        <ele>1658.3</ele>
      </trkpt>
      <trkpt lat="36.34214" lon="30.05546">
        <ele>1652.9</ele>
      </trkpt>
      <trkpt lat="36.34184" lon="30.05559">
        <ele>1651.8</ele>
      </trkpt>
      <trkpt lat="36.34084" lon="30.05556">
        <ele>1658.9</ele>
      </trkpt>
      <trkpt lat="36.34073" lon="30.05555">
        <ele>1657.9</ele>
      </trkpt>
      <trkpt lat="36.33993" lon="30.05599">
        <ele>1643.8</ele>
      </trkpt>
      <trkpt lat="36.33845" lon="30.05592">
        <ele>1628.7</ele>
      </trkpt>
      <trkpt lat="36.33823" lon="30.05591">
        <ele>1628.7</ele>
      </trkpt>
      <trkpt lat="36.33799" lon="30.05584">
        <ele>1631.6</ele>
      </trkpt>
      <trkpt lat="36.33784" lon="30.05587">
        <ele>1631.5</ele>
      </trkpt>
      <trkpt lat="36.33748" lon="30.05559">
        <ele>1631.3</ele>
      </trkpt>
      <trkpt lat="36.33703" lon="30.05534">
        <ele>1630.4</ele>
      </trkpt>
      <trkpt lat="36.33696" lon="30.05556">
        <ele>1632.8</ele>
      </trkpt>
      <trkpt lat="36.33682" lon="30.05562">
        <ele>1633.9</ele>
      </trkpt>
      <trkpt lat="36.33668" lon="30.05599">
        <ele>1636.7</ele>
      </trkpt>
      <trkpt lat="36.33637" lon="30.0562">
        <ele>1631.9</ele>
      </trkpt>
      <trkpt lat="36.33551" lon="30.05732">
        <ele>1625.8</ele>
      </trkpt>
      <trkpt lat="36.33502" lon="30.05759">
        <ele>1631.6</ele>
      </trkpt>
      <trkpt lat="36.33427" lon="30.05743">
        <ele>1649.1</ele>
      </trkpt>
      <trkpt lat="36.33415" lon="30.05719">
        <ele>1648.9</ele>
      </trkpt>
      <trkpt lat="36.33348" lon="30.05765">
        <ele>1650.3</ele>
      </trkpt>
      <trkpt lat="36.33259" lon="30.05791">
        <ele>1641.9</ele>
      </trkpt>
      <trkpt lat="36.33169" lon="30.05847">
        <ele>1636.6</ele>
      </trkpt>
      <trkpt lat="36.33089" lon="30.05875">
        <ele>1617.1</ele>
      </trkpt>
      <trkpt lat="36.33066" lon="30.05893">
        <ele>1611.8</ele>
      </trkpt>
      <trkpt lat="36.3306" lon="30.05926">
        <ele>1609.9</ele>
      </trkpt>
      <trkpt lat="36.33091" lon="30.05997">
        <ele>1607.8</ele>
      </trkpt>
      <trkpt lat="36.33076" lon="30.06018">
        <ele>1601.1</ele>
      </trkpt>
      <trkpt lat="36.33084" lon="30.06061">
        <ele>1595.2</ele>
      </trkpt>
      <trkpt lat="36.33067" lon="30.06091">
        <ele>1585.1</ele>
      </trkpt>
      <trkpt lat="36.33036" lon="30.06121">
        <ele>1573.9</ele>
      </trkpt>
      <trkpt lat="36.32989" lon="30.06114">
        <ele>1567.2</ele>
      </trkpt>
      <trkpt lat="36.3291" lon="30.06084">
        <ele>1539.4</ele>
      </trkpt>
      <trkpt lat="36.3288" lon="30.06083">
        <ele>1527.9</ele>
      </trkpt>
      <trkpt lat="36.32848" lon="30.06105">
        <ele>1516.9</ele>
      </trkpt>
      <trkpt lat="36.32815" lon="30.06101">
        <ele>1505.8</ele>
      </trkpt>
      <trkpt lat="36.32783" lon="30.06088">
        <ele>1496.2</ele>
      </trkpt>
      <trkpt lat="36.32763" lon="30.06056">
        <ele>1495.4</ele>
      </trkpt>
      <trkpt lat="36.3274" lon="30.06037">
        <ele>1493.6</ele>
      </trkpt>
      <trkpt lat="36.32704" lon="30.06039">
        <ele>1487.3</ele>
      </trkpt>
      <trkpt lat="36.32664" lon="30.06041">
        <ele>1480.8</ele>
      </trkpt>
      <trkpt lat="36.32644" lon="30.06065">
        <ele>1478.1</ele>
      </trkpt>
      <trkpt lat="36.32615" lon="30.06084">
        <ele>1475.3</ele>
      </trkpt>
      <trkpt lat="36.32589" lon="30.06118">
        <ele>1472.7</ele>
      </trkpt>
      <trkpt lat="36.32513" lon="30.06212">
        <ele>1470.1</ele>
      </trkpt>
      <trkpt lat="36.32487" lon="30.06225">
        <ele>1470.9</ele>
      </trkpt>
      <trkpt lat="36.32454" lon="30.06243">
        <ele>1470.4</ele>
      </trkpt>
      <trkpt lat="36.32426" lon="30.06275">
        <ele>1471.9</ele>
      </trkpt>
      <trkpt lat="36.32408" lon="30.06288">
        <ele>1471.9</ele>
      </trkpt>
      <trkpt lat="36.32378" lon="30.0629">
        <ele>1469.4</ele>
      </trkpt>
      <trkpt lat="36.32334" lon="30.06296">
        <ele>1465.9</ele>
      </trkpt>
      <trkpt lat="36.32305" lon="30.06295">
        <ele>1464.3</ele>
      </trkpt>
      <trkpt lat="36.32242" lon="30.06345">
        <ele>1459.2</ele>
      </trkpt>
      <trkpt lat="36.32213" lon="30.06381">
        <ele>1458.1</ele>
      </trkpt>
      <trkpt lat="36.32174" lon="30.06436">
        <ele>1454</ele>
      </trkpt>
      <trkpt lat="36.32141" lon="30.06494">
        <ele>1454.6</ele>
      </trkpt>
      <trkpt lat="36.32066" lon="30.06553">
        <ele>1449.3</ele>
      </trkpt>
      <trkpt lat="36.31948" lon="30.06572">
        <ele>1432.2</ele>
      </trkpt>
      <trkpt lat="36.31753" lon="30.06589">
        <ele>1400.2</ele>
      </trkpt>
      <trkpt lat="36.31625" lon="30.06586">
        <ele>1389.1</ele>
      </trkpt>
      <trkpt lat="36.3144" lon="30.06568">
        <ele>1367.2</ele>
      </trkpt>
      <trkpt lat="36.31422" lon="30.06583">
        <ele>1369.9</ele>
      </trkpt>
      <trkpt lat="36.31389" lon="30.06589">
        <ele>1363.9</ele>
      </trkpt>
      <trkpt lat="36.3119" lon="30.06666">
        <ele>1331.5</ele>
      </trkpt>
      <trkpt lat="36.31166" lon="30.06656">
        <ele>1321.9</ele>
      </trkpt>
      <trkpt lat="36.31131" lon="30.06665">
        <ele>1312.8</ele>
      </trkpt>
      <trkpt lat="36.31126" lon="30.06676">
        <ele>1311</ele>
      </trkpt>
      <trkpt lat="36.31133" lon="30.06691">
        <ele>1311.8</ele>
      </trkpt>
      <trkpt lat="36.31148" lon="30.06696">
        <ele>1316.3</ele>
      </trkpt>
      <trkpt lat="36.31159" lon="30.06723">
        <ele>1317.9</ele>
      </trkpt>
      <trkpt lat="36.31129" lon="30.06819">
        <ele>1315.4</ele>
      </trkpt>
      <trkpt lat="36.31021" lon="30.06857">
        <ele>1294</ele>
      </trkpt>
      <trkpt lat="36.30998" lon="30.06878">
        <ele>1291.9</ele>
      </trkpt>
      <trkpt lat="36.30956" lon="30.0695">
        <ele>1290.6</ele>
      </trkpt>
      <trkpt lat="36.30904" lon="30.0704">
        <ele>1277.1</ele>
      </trkpt>
      <trkpt lat="36.30909" lon="30.07107">
        <ele>1281.2</ele>
      </trkpt>
      <trkpt lat="36.30908" lon="30.07149">
        <ele>1284.1</ele>
      </trkpt>
      <trkpt lat="36.30895" lon="30.07185">
        <ele>1282.3</ele>
      </trkpt>
      <trkpt lat="36.30855" lon="30.07229">
        <ele>1274.6</ele>
      </trkpt>
      <trkpt lat="36.3082" lon="30.07287">
        <ele>1269.2</ele>
      </trkpt>
      <trkpt lat="36.30763" lon="30.07322">
        <ele>1261.4</ele>
      </trkpt>
      <trkpt lat="36.3076" lon="30.07339">
        <ele>1261.6</ele>
      </trkpt>
      <trkpt lat="36.30767" lon="30.07345">
        <ele>1261.6</ele>
      </trkpt>
      <trkpt lat="36.30777" lon="30.0735">
        <ele>1262.2</ele>
      </trkpt>
      <trkpt lat="36.30779" lon="30.07361">
        <ele>1260.4</ele>
      </trkpt>
      <trkpt lat="36.30772" lon="30.07378">
        <ele>1256.7</ele>
      </trkpt>
      <trkpt lat="36.3079" lon="30.07426">
        <ele>1250.3</ele>
      </trkpt>
      <trkpt lat="36.30795" lon="30.07436">
        <ele>1249.7</ele>
      </trkpt>
      <trkpt lat="36.30791" lon="30.0745">
        <ele>1247.6</ele>
      </trkpt>
      <trkpt lat="36.30791" lon="30.07464">
        <ele>1246</ele>
      </trkpt>
      <trkpt lat="36.30766" lon="30.0748">
        <ele>1239.1</ele>
      </trkpt>
      <trkpt lat="36.30742" lon="30.07517">
        <ele>1230.8</ele>
      </trkpt>
      <trkpt lat="36.30733" lon="30.07547">
        <ele>1227.7</ele>
      </trkpt>
      <trkpt lat="36.30723" lon="30.07572">
        <ele>1223.4</ele>
      </trkpt>
      <trkpt lat="36.30706" lon="30.07616">
        <ele>1216.7</ele>
      </trkpt>
      <trkpt lat="36.30689" lon="30.07623">
        <ele>1211.2</ele>
      </trkpt>
      <trkpt lat="36.3065" lon="30.07642">
        <ele>1199.9</ele>
      </trkpt>
      <trkpt lat="36.30623" lon="30.07663">
        <ele>1191.6</ele>
      </trkpt>
      <trkpt lat="36.30616" lon="30.07667">
        <ele>1189.5</ele>
      </trkpt>
      <trkpt lat="36.30603" lon="30.07669">
        <ele>1186.8</ele>
      </trkpt>
      <trkpt lat="36.30555" lon="30.07693">
        <ele>1177.7</ele>
      </trkpt>
      <trkpt lat="36.30543" lon="30.07696">
        <ele>1175</ele>
      </trkpt>
      <trkpt lat="36.30514" lon="30.07688">
        <ele>1167.6</ele>
      </trkpt>
      <trkpt lat="36.30476" lon="30.07694">
        <ele>1161</ele>
      </trkpt>
      <trkpt lat="36.30457" lon="30.07706">
        <ele>1157.3</ele>
      </trkpt>
      <trkpt lat="36.30427" lon="30.07718">
        <ele>1150.1</ele>
      </trkpt>
      <trkpt lat="36.30368" lon="30.07729">
        <ele>1139.1</ele>
      </trkpt>
      <trkpt lat="36.30357" lon="30.07731">
        <ele>1136.8</ele>
      </trkpt>
      <trkpt lat="36.30351" lon="30.07733">
        <ele>1135.8</ele>
      </trkpt>
      <trkpt lat="36.30326" lon="30.07732">
        <ele>1132.4</ele>
      </trkpt>
      <trkpt lat="36.30305" lon="30.07738">
        <ele>1128.3</ele>
      </trkpt>
      <trkpt lat="36.30293" lon="30.07736">
        <ele>1126.9</ele>
      </trkpt>
      <trkpt lat="36.30262" lon="30.07708">
        <ele>1129.2</ele>
      </trkpt>
      <trkpt lat="36.30222" lon="30.07695">
        <ele>1129.3</ele>
      </trkpt>
      <trkpt lat="36.30217" lon="30.07681">
        <ele>1131.8</ele>
      </trkpt>
      <trkpt lat="36.30234" lon="30.07628">
        <ele>1134.3</ele>
      </trkpt>
      <trkpt lat="36.30265" lon="30.07544">
        <ele>1131.5</ele>
      </trkpt>
      <trkpt lat="36.30234" lon="30.07506">
        <ele>1116.6</ele>
      </trkpt>
      <trkpt lat="36.30203" lon="30.07492">
        <ele>1107.1</ele>
      </trkpt>
      <trkpt lat="36.30198" lon="30.0747">
        <ele>1101.5</ele>
      </trkpt>
      <trkpt lat="36.30174" lon="30.07443">
        <ele>1087.6</ele>
      </trkpt>
      <trkpt lat="36.30034" lon="30.07364">
        <ele>1043.5</ele>
      </trkpt>
      <trkpt lat="36.30003" lon="30.07386">
        <ele>1038</ele>
      </trkpt>
      <trkpt lat="36.29932" lon="30.07448">
        <ele>1029</ele>
      </trkpt>
      <trkpt lat="36.29886" lon="30.07516">
        <ele>1019.7</ele>
      </trkpt>
      <trkpt lat="36.29853" lon="30.07541">
        <ele>1013.8</ele>
      </trkpt>
      <trkpt lat="36.29812" lon="30.07573">
        <ele>1002.3</ele>
      </trkpt>
      <trkpt lat="36.29749" lon="30.07606">
        <ele>990</ele>
      </trkpt>
      <trkpt lat="36.29711" lon="30.07613">
        <ele>981.6</ele>
      </trkpt>
      <trkpt lat="36.29693" lon="30.07603">
        <ele>976.6</ele>
      </trkpt>
      <trkpt lat="36.29648" lon="30.07639">
        <ele>965.4</ele>
      </trkpt>
      <trkpt lat="36.29633" lon="30.07648">
        <ele>961.2</ele>
      </trkpt>
      <trkpt lat="36.29604" lon="30.07642">
        <ele>955.2</ele>
      </trkpt>
      <trkpt lat="36.29548" lon="30.07682">
        <ele>938.9</ele>
      </trkpt>
      <trkpt lat="36.29505" lon="30.07659">
        <ele>930.8</ele>
      </trkpt>
      <trkpt lat="36.29479" lon="30.0765">
        <ele>928.1</ele>
      </trkpt>
      <trkpt lat="36.29465" lon="30.0766">
        <ele>924.1</ele>
      </trkpt>
      <trkpt lat="36.29437" lon="30.07652">
        <ele>920.9</ele>
      </trkpt>
      <trkpt lat="36.29411" lon="30.07636">
        <ele>918.1</ele>
      </trkpt>
      <trkpt lat="36.2939" lon="30.07631">
        <ele>915.4</ele>
      </trkpt>
      <trkpt lat="36.29374" lon="30.07624">
        <ele>913</ele>
      </trkpt>
      <trkpt lat="36.29352" lon="30.07616">
        <ele>909.1</ele>
      </trkpt>
      <trkpt lat="36.29332" lon="30.0761">
        <ele>904.9</ele>
      </trkpt>
      <trkpt lat="36.2932" lon="30.07594">
        <ele>901.2</ele>
      </trkpt>
      <trkpt lat="36.29303" lon="30.0756">
        <ele>898.4</ele>
      </trkpt>
      <trkpt lat="36.2929" lon="30.07549">
        <ele>896.4</ele>
      </trkpt>
      <trkpt lat="36.29272" lon="30.07536">
        <ele>892.7</ele>
      </trkpt>
      <trkpt lat="36.29254" lon="30.07514">
        <ele>889.4</ele>
      </trkpt>
      <trkpt lat="36.29235" lon="30.07489">
        <ele>885.8</ele>
      </trkpt>
      <trkpt lat="36.29219" lon="30.07471">
        <ele>881.7</ele>
      </trkpt>
      <trkpt lat="36.29211" lon="30.07465">
        <ele>879.8</ele>
      </trkpt>
      <trkpt lat="36.29173" lon="30.07475">
        <ele>874.4</ele>
      </trkpt>
      <trkpt lat="36.29147" lon="30.07475">
        <ele>871.9</ele>
      </trkpt>
      <trkpt lat="36.2912" lon="30.07498">
        <ele>874</ele>
      </trkpt>
      <trkpt lat="36.29103" lon="30.07505">
        <ele>872.9</ele>
      </trkpt>
      <trkpt lat="36.29085" lon="30.07514">
        <ele>870.7</ele>
      </trkpt>
      <trkpt lat="36.29105" lon="30.07526">
        <ele>869.4</ele>
      </trkpt>
      <trkpt lat="36.29093" lon="30.07545">
        <ele>865.9</ele>
      </trkpt>
      <trkpt lat="36.29115" lon="30.07541">
        <ele>867.4</ele>
      </trkpt>
      <trkpt lat="36.29129" lon="30.07532">
        <ele>869.5</ele>
      </trkpt>
      <trkpt lat="36.2914" lon="30.07539">
        <ele>868.7</ele>
      </trkpt>
      <trkpt lat="36.29155" lon="30.07537">
        <ele>869.8</ele>
      </trkpt>
      <trkpt lat="36.29171" lon="30.07542">
        <ele>870.3</ele>
      </trkpt>
      <trkpt lat="36.29174" lon="30.07553">
        <ele>869.3</ele>
      </trkpt>
      <trkpt lat="36.29162" lon="30.07566">
        <ele>865.4</ele>
      </trkpt>
      <trkpt lat="36.2914" lon="30.07585">
        <ele>861.6</ele>
      </trkpt>
      <trkpt lat="36.29123" lon="30.07614">
        <ele>856.5</ele>
      </trkpt>
      <trkpt lat="36.29121" lon="30.07631">
        <ele>853.6</ele>
      </trkpt>
      <trkpt lat="36.29127" lon="30.07681">
        <ele>848</ele>
      </trkpt>
      <trkpt lat="36.2914" lon="30.07737">
        <ele>846</ele>
      </trkpt>
      <trkpt lat="36.29167" lon="30.07794">
        <ele>850.8</ele>
      </trkpt>
      <trkpt lat="36.29183" lon="30.07851">
        <ele>844.1</ele>
      </trkpt>
      <trkpt lat="36.29201" lon="30.07899">
        <ele>836.2</ele>
      </trkpt>
      <trkpt lat="36.29237" lon="30.07947">
        <ele>840.1</ele>
      </trkpt>
      <trkpt lat="36.29277" lon="30.0799">
        <ele>843.3</ele>
      </trkpt>
      <trkpt lat="36.29271" lon="30.07995">
        <ele>839.7</ele>
      </trkpt>
      <trkpt lat="36.29263" lon="30.07989">
        <ele>838.6</ele>
      </trkpt>
      <trkpt lat="36.2925" lon="30.07996">
        <ele>832.3</ele>
      </trkpt>
      <trkpt lat="36.29246" lon="30.08006">
        <ele>831.1</ele>
      </trkpt>
      <trkpt lat="36.29232" lon="30.08019">
        <ele>828.8</ele>
      </trkpt>
      <trkpt lat="36.29211" lon="30.08025">
        <ele>820.9</ele>
      </trkpt>
      <trkpt lat="36.29204" lon="30.08036">
        <ele>821.2</ele>
      </trkpt>
      <trkpt lat="36.29177" lon="30.08053">
        <ele>814.8</ele>
      </trkpt>
      <trkpt lat="36.29152" lon="30.08084">
        <ele>814.4</ele>
      </trkpt>
      <trkpt lat="36.29099" lon="30.08142">
        <ele>821</ele>
      </trkpt>
      <trkpt lat="36.29058" lon="30.08204">
        <ele>832.2</ele>
      </trkpt>
      <trkpt lat="36.2904" lon="30.08225">
        <ele>833.9</ele>
      </trkpt>
      <trkpt lat="36.2901" lon="30.08259">
        <ele>837.6</ele>
      </trkpt>
      <trkpt lat="36.28995" lon="30.08264">
        <ele>833.1</ele>
      </trkpt>
      <trkpt lat="36.28971" lon="30.08296">
        <ele>835.1</ele>
      </trkpt>
      <trkpt lat="36.28945" lon="30.08321">
        <ele>833.3</ele>
      </trkpt>
      <trkpt lat="36.28941" lon="30.08334">
        <ele>835.3</ele>
      </trkpt>
      <trkpt lat="36.28941" lon="30.08352">
        <ele>838.8</ele>
      </trkpt>
      <trkpt lat="36.28928" lon="30.08383">
        <ele>838.2</ele>
      </trkpt>
      <trkpt lat="36.28888" lon="30.08435">
        <ele>831.8</ele>
      </trkpt>
      <trkpt lat="36.28868" lon="30.08467">
        <ele>831.8</ele>
      </trkpt>
      <trkpt lat="36.28816" lon="30.08546">
        <ele>828.6</ele>
      </trkpt>
      <trkpt lat="36.2882" lon="30.08571">
        <ele>832.4</ele>
      </trkpt>
      <trkpt lat="36.28794" lon="30.08616">
        <ele>831.7</ele>
      </trkpt>
      <trkpt lat="36.28794" lon="30.08641">
        <ele>831.4</ele>
      </trkpt>
      <trkpt lat="36.2879" lon="30.08665">
        <ele>831</ele>
      </trkpt>
      <trkpt lat="36.28787" lon="30.08692">
        <ele>830.1</ele>
      </trkpt>
      <trkpt lat="36.28803" lon="30.08767">
        <ele>828.6</ele>
      </trkpt>
      <trkpt lat="36.28805" lon="30.08796">
        <ele>828.1</ele>
      </trkpt>
      <trkpt lat="36.28801" lon="30.08824">
        <ele>827.5</ele>
      </trkpt>
      <trkpt lat="36.28792" lon="30.0885">
        <ele>827.8</ele>
      </trkpt>
      <trkpt lat="36.28791" lon="30.0888">
        <ele>828.4</ele>
      </trkpt>
      <trkpt lat="36.2878" lon="30.08902">
        <ele>829</ele>
      </trkpt>
      <trkpt lat="36.28779" lon="30.08908">
        <ele>829.1</ele>
      </trkpt>
      <trkpt lat="36.28777" lon="30.08919">
        <ele>829.2</ele>
      </trkpt>
      <trkpt lat="36.28727" lon="30.0897">
        <ele>826.6</ele>
      </trkpt>
      <trkpt lat="36.28689" lon="30.08994">
        <ele>826.9</ele>
      </trkpt>
      <trkpt lat="36.28663" lon="30.08995">
        <ele>828.6</ele>
      </trkpt>
      <trkpt lat="36.28628" lon="30.08974">
        <ele>829.8</ele>
      </trkpt>
      <trkpt lat="36.28597" lon="30.08965">
        <ele>829.1</ele>
      </trkpt>
      <trkpt lat="36.28594" lon="30.08976">
        <ele>827.8</ele>
      </trkpt>
      <trkpt lat="36.28594" lon="30.09006">
        <ele>825.9</ele>
      </trkpt>
      <trkpt lat="36.28597" lon="30.09047">
        <ele>829.1</ele>
      </trkpt>
      <trkpt lat="36.28612" lon="30.09152">
        <ele>831</ele>
      </trkpt>
      <trkpt lat="36.28603" lon="30.09208">
        <ele>829.5</ele>
      </trkpt>
      <trkpt lat="36.28607" lon="30.09242">
        <ele>827.6</ele>
      </trkpt>
      <trkpt lat="36.28652" lon="30.0931">
        <ele>828.4</ele>
      </trkpt>
      <trkpt lat="36.28665" lon="30.09342">
        <ele>826.8</ele>
      </trkpt>
      <trkpt lat="36.2869" lon="30.09397">
        <ele>819.2</ele>
      </trkpt>
      <trkpt lat="36.28682" lon="30.0945">
        <ele>815.8</ele>
      </trkpt>
      <trkpt lat="36.28653" lon="30.0955">
        <ele>810.9</ele>
      </trkpt>
      <trkpt lat="36.28643" lon="30.09603">
        <ele>807.2</ele>
      </trkpt>
      <trkpt lat="36.28667" lon="30.09662">
        <ele>803.2</ele>
      </trkpt>
      <trkpt lat="36.28683" lon="30.09698">
        <ele>798.7</ele>
      </trkpt>
      <trkpt lat="36.28707" lon="30.09772">
        <ele>790.5</ele>
      </trkpt>
      <trkpt lat="36.28712" lon="30.09804">
        <ele>785.5</ele>
      </trkpt>
      <trkpt lat="36.2869" lon="30.09898">
        <ele>775</ele>
      </trkpt>
      <trkpt lat="36.28673" lon="30.09931">
        <ele>771.7</ele>
      </trkpt>
      <trkpt lat="36.2867" lon="30.09946">
        <ele>768.6</ele>
      </trkpt>
      <trkpt lat="36.28678" lon="30.09961">
        <ele>764.1</ele>
      </trkpt>
      <trkpt lat="36.28699" lon="30.09964">
        <ele>761.2</ele>
      </trkpt>
      <trkpt lat="36.28723" lon="30.09977">
        <ele>756.7</ele>
      </trkpt>
      <trkpt lat="36.28742" lon="30.10004">
        <ele>752</ele>
      </trkpt>
      <trkpt lat="36.28745" lon="30.10048">
        <ele>748.6</ele>
      </trkpt>
      <trkpt lat="36.28737" lon="30.1009">
        <ele>745.1</ele>
      </trkpt>
      <trkpt lat="36.28732" lon="30.10119">
        <ele>741.9</ele>
      </trkpt>
      <trkpt lat="36.28739" lon="30.10145">
        <ele>738.6</ele>
      </trkpt>
      <trkpt lat="36.28758" lon="30.10164">
        <ele>735.8</ele>
      </trkpt>
      <trkpt lat="36.2878" lon="30.10176">
        <ele>735.6</ele>
      </trkpt>
      <trkpt lat="36.28791" lon="30.10192">
        <ele>734.3</ele>
      </trkpt>
      <trkpt lat="36.28799" lon="30.10214">
        <ele>732.1</ele>
      </trkpt>
      <trkpt lat="36.28818" lon="30.10257">
        <ele>728</ele>
      </trkpt>
      <trkpt lat="36.28837" lon="30.10265">
        <ele>726.6</ele>
      </trkpt>
      <trkpt lat="36.28855" lon="30.10261">
        <ele>722.6</ele>
      </trkpt>
      <trkpt lat="36.28875" lon="30.10239">
        <ele>719.3</ele>
      </trkpt>
      <trkpt lat="36.28888" lon="30.10212">
        <ele>717.6</ele>
      </trkpt>
      <trkpt lat="36.289" lon="30.10176">
        <ele>716.2</ele>
      </trkpt>
      <trkpt lat="36.28907" lon="30.10143">
        <ele>716.2</ele>
      </trkpt>
      <trkpt lat="36.28914" lon="30.10109">
        <ele>716.1</ele>
      </trkpt>
      <trkpt lat="36.28918" lon="30.10082">
        <ele>717.2</ele>
      </trkpt>
      <trkpt lat="36.28927" lon="30.10061">
        <ele>720.1</ele>
      </trkpt>
      <trkpt lat="36.28941" lon="30.10045">
        <ele>722.7</ele>
      </trkpt>
      <trkpt lat="36.28948" lon="30.10021">
        <ele>726.2</ele>
      </trkpt>
      <trkpt lat="36.28951" lon="30.10015">
        <ele>727.1</ele>
      </trkpt>
      <trkpt lat="36.28958" lon="30.10014">
        <ele>727.5</ele>
      </trkpt>
      <trkpt lat="36.28965" lon="30.10021">
        <ele>726.7</ele>
      </trkpt>
      <trkpt lat="36.28968" lon="30.10042">
        <ele>723.6</ele>
      </trkpt>
      <trkpt lat="36.28967" lon="30.1006">
        <ele>721</ele>
      </trkpt>
      <trkpt lat="36.28958" lon="30.10086">
        <ele>717.1</ele>
      </trkpt>
      <trkpt lat="36.28964" lon="30.10121">
        <ele>711.4</ele>
      </trkpt>
      <trkpt lat="36.28986" lon="30.10195">
        <ele>695.6</ele>
      </trkpt>
      <trkpt lat="36.29011" lon="30.10257">
        <ele>686.6</ele>
      </trkpt>
      <trkpt lat="36.29031" lon="30.10347">
        <ele>682.7</ele>
      </trkpt>
      <trkpt lat="36.29066" lon="30.10494">
        <ele>663.5</ele>
      </trkpt>
      <trkpt lat="36.29123" lon="30.10655">
        <ele>642.9</ele>
      </trkpt>
      <trkpt lat="36.29258" lon="30.10912">
        <ele>613</ele>
      </trkpt>
      <trkpt lat="36.29267" lon="30.10957">
        <ele>605.7</ele>
      </trkpt>
      <trkpt lat="36.29271" lon="30.10998">
        <ele>598.9</ele>
      </trkpt>
      <trkpt lat="36.29263" lon="30.1102">
        <ele>600.6</ele>
      </trkpt>
      <trkpt lat="36.2925" lon="30.11059">
        <ele>605.5</ele>
      </trkpt>
      <trkpt lat="36.29231" lon="30.11092">
        <ele>601.7</ele>
      </trkpt>
      <trkpt lat="36.29212" lon="30.11135">
        <ele>601.5</ele>
      </trkpt>
      <trkpt lat="36.29204" lon="30.11124">
        <ele>597.3</ele>
      </trkpt>
      <trkpt lat="36.2919" lon="30.11132">
        <ele>593.7</ele>
      </trkpt>
      <trkpt lat="36.29162" lon="30.11161">
        <ele>588.4</ele>
      </trkpt>
      <trkpt lat="36.29136" lon="30.11189">
        <ele>580.4</ele>
      </trkpt>
      <trkpt lat="36.29098" lon="30.11218">
        <ele>565.5</ele>
      </trkpt>
      <trkpt lat="36.29071" lon="30.11242">
        <ele>556.5</ele>
      </trkpt>
      <trkpt lat="36.29029" lon="30.11295">
        <ele>549.3</ele>
      </trkpt>
      <trkpt lat="36.28994" lon="30.11319">
        <ele>537.9</ele>
      </trkpt>
      <trkpt lat="36.28954" lon="30.11356">
        <ele>525.3</ele>
      </trkpt>
      <trkpt lat="36.28932" lon="30.11387">
        <ele>516.6</ele>
      </trkpt>
      <trkpt lat="36.28922" lon="30.11422">
        <ele>511.6</ele>
      </trkpt>
      <trkpt lat="36.28922" lon="30.11434">
        <ele>512.6</ele>
      </trkpt>
      <trkpt lat="36.2891" lon="30.11472">
        <ele>507.8</ele>
      </trkpt>
      <trkpt lat="36.28896" lon="30.115">
        <ele>501.3</ele>
      </trkpt>
      <trkpt lat="36.28894" lon="30.11497">
        <ele>499.9</ele>
      </trkpt>
      <trkpt lat="36.28896" lon="30.11481">
        <ele>501.6</ele>
      </trkpt>
      <trkpt lat="36.28898" lon="30.11465">
        <ele>502.5</ele>
      </trkpt>
      <trkpt lat="36.28894" lon="30.11448">
        <ele>501.5</ele>
      </trkpt>
      <trkpt lat="36.28888" lon="30.11432">
        <ele>500.1</ele>
      </trkpt>
      <trkpt lat="36.28877" lon="30.11415">
        <ele>498.1</ele>
      </trkpt>
      <trkpt lat="36.2887" lon="30.11416">
        <ele>496.3</ele>
      </trkpt>
      <trkpt lat="36.28858" lon="30.11438">
        <ele>490.1</ele>
      </trkpt>
      <trkpt lat="36.28853" lon="30.11454">
        <ele>485.9</ele>
      </trkpt>
      <trkpt lat="36.28853" lon="30.11484">
        <ele>481</ele>
      </trkpt>
      <trkpt lat="36.28849" lon="30.11511">
        <ele>475.1</ele>
      </trkpt>
      <trkpt lat="36.28841" lon="30.11537">
        <ele>467.9</ele>
      </trkpt>
      <trkpt lat="36.28834" lon="30.11566">
        <ele>459.7</ele>
      </trkpt>
      <trkpt lat="36.28825" lon="30.11584">
        <ele>459.7</ele>
      </trkpt>
      <trkpt lat="36.28808" lon="30.116">
        <ele>462.9</ele>
      </trkpt>
      <trkpt lat="36.28803" lon="30.1162">
        <ele>460.9</ele>
      </trkpt>
      <trkpt lat="36.28803" lon="30.11644">
        <ele>457.1</ele>
      </trkpt>
      <trkpt lat="36.28809" lon="30.1165">
        <ele>455.6</ele>
      </trkpt>
      <trkpt lat="36.28814" lon="30.11666">
        <ele>453.3</ele>
      </trkpt>
      <trkpt lat="36.28808" lon="30.11691">
        <ele>451</ele>
      </trkpt>
      <trkpt lat="36.28794" lon="30.11702">
        <ele>448.2</ele>
      </trkpt>
      <trkpt lat="36.28784" lon="30.11716">
        <ele>444.5</ele>
      </trkpt>
      <trkpt lat="36.28775" lon="30.11737">
        <ele>438.4</ele>
      </trkpt>
      <trkpt lat="36.28741" lon="30.11838">
        <ele>415.3</ele>
      </trkpt>
      <trkpt lat="36.28728" lon="30.11871">
        <ele>413.3</ele>
      </trkpt>
      <trkpt lat="36.287" lon="30.11931">
        <ele>398.4</ele>
      </trkpt>
      <trkpt lat="36.28684" lon="30.11964">
        <ele>388.5</ele>
      </trkpt>
      <trkpt lat="36.28665" lon="30.12001">
        <ele>374.2</ele>
      </trkpt>
      <trkpt lat="36.28639" lon="30.12098">
        <ele>367.7</ele>
      </trkpt>
      <trkpt lat="36.28624" lon="30.12141">
        <ele>358.8</ele>
      </trkpt>
      <trkpt lat="36.28621" lon="30.12195">
        <ele>351.5</ele>
      </trkpt>
      <trkpt lat="36.28606" lon="30.1224">
        <ele>342.2</ele>
      </trkpt>
      <trkpt lat="36.28585" lon="30.12287">
        <ele>338.2</ele>
      </trkpt>
      <trkpt lat="36.28564" lon="30.12313">
        <ele>335.2</ele>
      </trkpt>
      <trkpt lat="36.28525" lon="30.1235">
        <ele>326.2</ele>
      </trkpt>
      <trkpt lat="36.28497" lon="30.12365">
        <ele>320.5</ele>
      </trkpt>
      <trkpt lat="36.28464" lon="30.12384">
        <ele>316.5</ele>
      </trkpt>
      <trkpt lat="36.28438" lon="30.12397">
        <ele>309.6</ele>
      </trkpt>
      <trkpt lat="36.28403" lon="30.12423">
        <ele>300.2</ele>
      </trkpt>
      <trkpt lat="36.28364" lon="30.12455">
        <ele>292.6</ele>
      </trkpt>
      <trkpt lat="36.28339" lon="30.12476">
        <ele>284.2</ele>
      </trkpt>
      <trkpt lat="36.28307" lon="30.12496">
        <ele>272.7</ele>
      </trkpt>
      <trkpt lat="36.28296" lon="30.12516">
        <ele>270.2</ele>
      </trkpt>
      <trkpt lat="36.28279" lon="30.12538">
        <ele>263.4</ele>
      </trkpt>
      <trkpt lat="36.28262" lon="30.1257">
        <ele>255.8</ele>
      </trkpt>
      <trkpt lat="36.28247" lon="30.12612">
        <ele>247.5</ele>
      </trkpt>
      <trkpt lat="36.28239" lon="30.12657">
        <ele>245.3</ele>
      </trkpt>
      <trkpt lat="36.28237" lon="30.12688">
        <ele>239.5</ele>
      </trkpt>
      <trkpt lat="36.28238" lon="30.12718">
        <ele>232.8</ele>
      </trkpt>
      <trkpt lat="36.28255" lon="30.1274">
        <ele>230</ele>
      </trkpt>
      <trkpt lat="36.2827" lon="30.12747">
        <ele>236</ele>
      </trkpt>
      <trkpt lat="36.28269" lon="30.12781">
        <ele>226.5</ele>
      </trkpt>
      <trkpt lat="36.28279" lon="30.12807">
        <ele>223.6</ele>
      </trkpt>
      <trkpt lat="36.28295" lon="30.12834">
        <ele>223.2</ele>
      </trkpt>
      <trkpt lat="36.28313" lon="30.1286">
        <ele>225.3</ele>
      </trkpt>
      <trkpt lat="36.28336" lon="30.12891">
        <ele>228.1</ele>
      </trkpt>
      <trkpt lat="36.28341" lon="30.12919">
        <ele>224.4</ele>
      </trkpt>
      <trkpt lat="36.2835" lon="30.12958">
        <ele>223.3</ele>
      </trkpt>
      <trkpt lat="36.28346" lon="30.12983">
        <ele>215.7</ele>
      </trkpt>
      <trkpt lat="36.28339" lon="30.13029">
        <ele>204.3</ele>
      </trkpt>
      <trkpt lat="36.28333" lon="30.13065">
        <ele>197.2</ele>
      </trkpt>
      <trkpt lat="36.28326" lon="30.13104">
        <ele>190.9</ele>
      </trkpt>
      <trkpt lat="36.28318" lon="30.13133">
        <ele>184.5</ele>
      </trkpt>
      <trkpt lat="36.28309" lon="30.13166">
        <ele>176.7</ele>
      </trkpt>
      <trkpt lat="36.28302" lon="30.13203">
        <ele>169.6</ele>
      </trkpt>
      <trkpt lat="36.28301" lon="30.1323">
        <ele>166.4</ele>
      </trkpt>
      <trkpt lat="36.28311" lon="30.1327">
        <ele>165.7</ele>
      </trkpt>
      <trkpt lat="36.28329" lon="30.1331">
        <ele>167.7</ele>
      </trkpt>
      <trkpt lat="36.2836" lon="30.13359">
        <ele>162.5</ele>
      </trkpt>
      <trkpt lat="36.28368" lon="30.13368">
        <ele>160.7</ele>
      </trkpt>
      <trkpt lat="36.2839" lon="30.13355">
        <ele>165.4</ele>
      </trkpt>
      <trkpt lat="36.28418" lon="30.13349">
        <ele>169.7</ele>
      </trkpt>
      <trkpt lat="36.28443" lon="30.13338">
        <ele>179.1</ele>
      </trkpt>
      <trkpt lat="36.28454" lon="30.13329">
        <ele>184.7</ele>
      </trkpt>
      <trkpt lat="36.28446" lon="30.13365">
        <ele>171.8</ele>
      </trkpt>
      <trkpt lat="36.28443" lon="30.13419">
        <ele>154.6</ele>
      </trkpt>
      <trkpt lat="36.28446" lon="30.1345">
        <ele>146.2</ele>
      </trkpt>
      <trkpt lat="36.28447" lon="30.13469">
        <ele>140.6</ele>
      </trkpt>
      <trkpt lat="36.2845" lon="30.13525">
        <ele>127</ele>
      </trkpt>
      <trkpt lat="36.28446" lon="30.13566">
        <ele>118.4</ele>
      </trkpt>
      <trkpt lat="36.28454" lon="30.13577">
        <ele>117.4</ele>
      </trkpt>
      <trkpt lat="36.28467" lon="30.13581">
        <ele>118</ele>
      </trkpt>
      <trkpt lat="36.28488" lon="30.13569">
        <ele>123</ele>
      </trkpt>
      <trkpt lat="36.2852" lon="30.13566">
        <ele>123.6</ele>
      </trkpt>
      <trkpt lat="36.28545" lon="30.13564">
        <ele>122</ele>
      </trkpt>
      <trkpt lat="36.28567" lon="30.13561">
        <ele>121</ele>
      </trkpt>
      <trkpt lat="36.28584" lon="30.13561">
        <ele>119.8</ele>
      </trkpt>
      <trkpt lat="36.28612" lon="30.13569">
        <ele>116.4</ele>
      </trkpt>
      <trkpt lat="36.28637" lon="30.13579">
        <ele>112.6</ele>
      </trkpt>
      <trkpt lat="36.28668" lon="30.13602">
        <ele>107.4</ele>
      </trkpt>
      <trkpt lat="36.28694" lon="30.13621">
        <ele>108.2</ele>
      </trkpt>
      <trkpt lat="36.28704" lon="30.13631">
        <ele>108.3</ele>
      </trkpt>
      <trkpt lat="36.28714" lon="30.13643">
        <ele>108.2</ele>
      </trkpt>
      <trkpt lat="36.28737" lon="30.13642">
        <ele>111.7</ele>
      </trkpt>
      <trkpt lat="36.2876" lon="30.13646">
        <ele>114.2</ele>
      </trkpt>
      <trkpt lat="36.28802" lon="30.13661">
        <ele>116.1</ele>
      </trkpt>
      <trkpt lat="36.28804" lon="30.13662">
        <ele>116.2</ele>
      </trkpt>
      <trkpt lat="36.28845" lon="30.13678">
        <ele>118.8</ele>
      </trkpt>
      <trkpt lat="36.28857" lon="30.13679">
        <ele>119.4</ele>
      </trkpt>
      <trkpt lat="36.28868" lon="30.13706">
        <ele>119.8</ele>
      </trkpt>
      <trkpt lat="36.28885" lon="30.13729">
        <ele>120</ele>
      </trkpt>
      <trkpt lat="36.289" lon="30.13729">
        <ele>120.4</ele>
      </trkpt>
      <trkpt lat="36.28973" lon="30.13723">
        <ele>118.5</ele>
      </trkpt>
      <trkpt lat="36.28991" lon="30.13723">
        <ele>117.7</ele>
      </trkpt>
      <trkpt lat="36.29055" lon="30.13726">
        <ele>113.5</ele>
      </trkpt>
      <trkpt lat="36.29097" lon="30.13722">
        <ele>110.7</ele>
      </trkpt>
      <trkpt lat="36.29134" lon="30.1373">
        <ele>105.1</ele>
      </trkpt>
      <trkpt lat="36.2916" lon="30.13739">
        <ele>99.3</ele>
      </trkpt>
      <trkpt lat="36.29192" lon="30.13758">
        <ele>94.6</ele>
      </trkpt>
      <trkpt lat="36.29273" lon="30.13832">
        <ele>79.4</ele>
      </trkpt>
      <trkpt lat="36.29305" lon="30.13863">
        <ele>78</ele>
      </trkpt>
      <trkpt lat="36.29349" lon="30.13906">
        <ele>70.3</ele>
      </trkpt>
      <trkpt lat="36.29383" lon="30.13932">
        <ele>66.9</ele>
      </trkpt>
      <trkpt lat="36.29403" lon="30.1395">
        <ele>63.4</ele>
      </trkpt>
      <trkpt lat="36.29446" lon="30.13989">
        <ele>57.9</ele>
      </trkpt>
      <trkpt lat="36.29464" lon="30.14">
        <ele>57.4</ele>
      </trkpt>
      <trkpt lat="36.29482" lon="30.14009">
        <ele>57.4</ele>
      </trkpt>
      <trkpt lat="36.29483" lon="30.1402">
        <ele>55.9</ele>
      </trkpt>
      <trkpt lat="36.29488" lon="30.14095">
        <ele>46.2</ele>
      </trkpt>
      <trkpt lat="36.29487" lon="30.14175">
        <ele>38.5</ele>
      </trkpt>
      <trkpt lat="36.29491" lon="30.14196">
        <ele>36.5</ele>
      </trkpt>
      <trkpt lat="36.29501" lon="30.14227">
        <ele>33.6</ele>
      </trkpt>
      <trkpt lat="36.29503" lon="30.14227">
        <ele>33.8</ele>
      </trkpt>
      <trkpt lat="36.29504" lon="30.14228">
        <ele>34</ele>
      </trkpt>
      <trkpt lat="36.29505" lon="30.14229">
        <ele>34</ele>
      </trkpt>
      <trkpt lat="36.29507" lon="30.1423">
        <ele>34</ele>
      </trkpt>
      <trkpt lat="36.29507" lon="30.14232">
        <ele>33.8</ele>
      </trkpt>
      <trkpt lat="36.29508" lon="30.14235">
        <ele>33.6</ele>
      </trkpt>
      <trkpt lat="36.29507" lon="30.14237">
        <ele>33.2</ele>
      </trkpt>
      <trkpt lat="36.29506" lon="30.1424">
        <ele>32.8</ele>
      </trkpt>
      <trkpt lat="36.29504" lon="30.14241">
        <ele>32.4</ele>
      </trkpt>
      <trkpt lat="36.29502" lon="30.14242">
        <ele>32.1</ele>
      </trkpt>
      <trkpt lat="36.2951" lon="30.14265">
        <ele>30.7</ele>
      </trkpt>
      <trkpt lat="36.29532" lon="30.14351">
        <ele>23.6</ele>
      </trkpt>
      <trkpt lat="36.29552" lon="30.14406">
        <ele>17.6</ele>
      </trkpt>
      <trkpt lat="36.29553" lon="30.14411">
        <ele>17.1</ele>
      </trkpt>
      <trkpt lat="36.29575" lon="30.14471">
        <ele>11.6</ele>
      </trkpt>
      <trkpt lat="36.29587" lon="30.14501">
        <ele>8.9</ele>
      </trkpt>
      <trkpt lat="36.29598" lon="30.14529">
        <ele>7.8</ele>
      </trkpt>
      <trkpt lat="36.29605" lon="30.14549">
        <ele>7.1</ele>
      </trkpt>
      <trkpt lat="36.29611" lon="30.1458">
        <ele>6.1</ele>
      </trkpt>
      <trkpt lat="36.29611" lon="30.1458">
        <ele>6.1</ele>
      </trkpt>
      <trkpt lat="36.29592" lon="30.14581">
        <ele>6.1</ele>
      </trkpt>
      <trkpt lat="36.29556" lon="30.14585">
        <ele>6.6</ele>
      </trkpt>
      <trkpt lat="36.29547" lon="30.14601">
        <ele>6.7</ele>
      </trkpt>
      <trkpt lat="36.29547" lon="30.1462">
        <ele>6.4</ele>
      </trkpt>
      <trkpt lat="36.29553" lon="30.14645">
        <ele>6</ele>
      </trkpt>
      <trkpt lat="36.29596" lon="30.14624">
        <ele>5.4</ele>
      </trkpt>
      <trkpt lat="36.2967" lon="30.14613">
        <ele>5.2</ele>
      </trkpt>
      <trkpt lat="36.29739" lon="30.14613">
        <ele>2.1</ele>
      </trkpt>
      <trkpt lat="36.29815" lon="30.14645">
        <ele>3.4</ele>
      </trkpt>
      <trkpt lat="36.29978" lon="30.14731">
        <ele>4.7</ele>
      </trkpt>
      <trkpt lat="36.30032" lon="30.1477">
        <ele>5.1</ele>
      </trkpt>
      <trkpt lat="36.30108" lon="30.14845">
        <ele>4.4</ele>
      </trkpt>
      <trkpt lat="36.30151" lon="30.14913">
        <ele>2.9</ele>
      </trkpt>
      <trkpt lat="36.30241" lon="30.15077">
        <ele>4.2</ele>
      </trkpt>
      <trkpt lat="36.30385" lon="30.15345">
        <ele>3.9</ele>
      </trkpt>
      <trkpt lat="36.30523" lon="30.15609">
        <ele>3</ele>
      </trkpt>
      <trkpt lat="36.30668" lon="30.15885">
        <ele>4.8</ele>
      </trkpt>
      <trkpt lat="36.30783" lon="30.161">
        <ele>5.2</ele>
      </trkpt>
      <trkpt lat="36.30902" lon="30.16312">
        <ele>3.2</ele>
      </trkpt>
      <trkpt lat="36.30963" lon="30.16448">
        <ele>3.3</ele>
      </trkpt>
      <trkpt lat="36.30999" lon="30.1653">
        <ele>1.7</ele>
      </trkpt>
      <trkpt lat="36.3105" lon="30.16674">
        <ele>2.3</ele>
      </trkpt>
      <trkpt lat="36.31081" lon="30.16767">
        <ele>4</ele>
      </trkpt>
      <trkpt lat="36.31134" lon="30.16979">
        <ele>5</ele>
      </trkpt>
      <trkpt lat="36.31171" lon="30.17125">
        <ele>2</ele>
      </trkpt>
      <trkpt lat="36.31298" lon="30.17637">
        <ele>3.3</ele>
      </trkpt>
      <trkpt lat="36.31373" lon="30.17932">
        <ele>1</ele>
      </trkpt>
      <trkpt lat="36.31398" lon="30.18033">
        <ele>1</ele>
      </trkpt>
      <trkpt lat="36.31475" lon="30.1835">
        <ele>1</ele>
      </trkpt>
      <trkpt lat="36.3151" lon="30.18521">
        <ele>1.2</ele>
      </trkpt>
      <trkpt lat="36.31536" lon="30.18659">
        <ele>1.5</ele>
      </trkpt>
      <trkpt lat="36.31556" lon="30.18826">
        <ele>1.9</ele>
      </trkpt>
      <trkpt lat="36.31559" lon="30.19004">
        <ele>2.4</ele>
      </trkpt>
      <trkpt lat="36.31559" lon="30.19132">
        <ele>1.9</ele>
      </trkpt>
      <trkpt lat="36.31562" lon="30.19329">
        <ele>1</ele>
      </trkpt>
      <trkpt lat="36.31567" lon="30.19495">
        <ele>1.1</ele>
      </trkpt>
      <trkpt lat="36.31568" lon="30.19655">
        <ele>1</ele>
      </trkpt>
      <trkpt lat="36.31569" lon="30.19926">
        <ele>4.7</ele>
      </trkpt>
      <trkpt lat="36.31571" lon="30.20213">
        <ele>2.4</ele>
      </trkpt>
      <trkpt lat="36.31572" lon="30.20429">
        <ele>3.6</ele>
      </trkpt>
      <trkpt lat="36.31575" lon="30.20684">
        <ele>3.4</ele>
      </trkpt>
      <trkpt lat="36.3158" lon="30.20842">
        <ele>2.2</ele>
      </trkpt>
      <trkpt lat="36.31571" lon="30.20955">
        <ele>2.9</ele>
      </trkpt>
      <trkpt lat="36.3156" lon="30.21058">
        <ele>1.7</ele>
      </trkpt>
      <trkpt lat="36.31549" lon="30.2118">
        <ele>2.3</ele>
      </trkpt>
      <trkpt lat="36.31534" lon="30.21367">
        <ele>2.5</ele>
      </trkpt>
      <trkpt lat="36.31523" lon="30.21518">
        <ele>1.7</ele>
      </trkpt>
      <trkpt lat="36.31486" lon="30.2194">
        <ele>2.4</ele>
      </trkpt>
      <trkpt lat="36.31473" lon="30.22085">
        <ele>3</ele>
      </trkpt>
      <trkpt lat="36.31462" lon="30.22285">
        <ele>3.4</ele>
      </trkpt>
      <trkpt lat="36.31466" lon="30.22463">
        <ele>2.8</ele>
      </trkpt>
      <trkpt lat="36.31504" lon="30.22648">
        <ele>1.5</ele>
      </trkpt>
      <trkpt lat="36.31535" lon="30.22766">
        <ele>2.7</ele>
      </trkpt>
      <trkpt lat="36.31603" lon="30.22936">
        <ele>1.8</ele>
      </trkpt>
      <trkpt lat="36.31649" lon="30.23078">
        <ele>2.9</ele>
      </trkpt>
      <trkpt lat="36.31685" lon="30.23247">
        <ele>3.3</ele>
      </trkpt>
      <trkpt lat="36.31696" lon="30.23339">
        <ele>3</ele>
      </trkpt>
      <trkpt lat="36.31696" lon="30.23488">
        <ele>2.1</ele>
      </trkpt>
      <trkpt lat="36.31665" lon="30.24226">
        <ele>1</ele>
      </trkpt>
      <trkpt lat="36.31644" lon="30.24826">
      </trkpt>
      <trkpt lat="36.31655" lon="30.25575">
      </trkpt>
      <trkpt lat="36.31658" lon="30.2571">
      </trkpt>
      <trkpt lat="36.3168" lon="30.25915">
      </trkpt>
      <trkpt lat="36.31713" lon="30.26097">
        <ele>1</ele>
      </trkpt>
      <trkpt lat="36.31806" lon="30.26508">
      </trkpt>
      <trkpt lat="36.31946" lon="30.27129">
        <ele>2.4</ele>
      </trkpt>
      <trkpt lat="36.31992" lon="30.27307">
        <ele>2.7</ele>
      </trkpt>
      <trkpt lat="36.3201" lon="30.27361">
        <ele>2.3</ele>
      </trkpt>
      <trkpt lat="36.31971" lon="30.27394">
        <ele>3</ele>
      </trkpt>
      <trkpt lat="36.31944" lon="30.27608">
        <ele>1</ele>
      </trkpt>
      <trkpt lat="36.31896" lon="30.2835">
        <ele>2.6</ele>
      </trkpt>
      <trkpt lat="36.31882" lon="30.28543">
        <ele>3.4</ele>
      </trkpt>
      <trkpt lat="36.31741" lon="30.29171">
        <ele>2.9</ele>
      </trkpt>
      <trkpt lat="36.31712" lon="30.29215">
        <ele>1.8</ele>
      </trkpt>
      <trkpt lat="36.3166" lon="30.29223">
        <ele>1.6</ele>
      </trkpt>
      <trkpt lat="36.31643" lon="30.29241">
        <ele>1.2</ele>
      </trkpt>
      <trkpt lat="36.31647" lon="30.29295">
        <ele>1</ele>
      </trkpt>
      <trkpt lat="36.31699" lon="30.29431">
        <ele>1</ele>
      </trkpt>
      <trkpt lat="36.31697" lon="30.29453">
        <ele>1</ele>
      </trkpt>
      <trkpt lat="36.31697" lon="30.29453">
        <ele>1</ele>
      </trkpt>
      <trkpt lat="36.31697" lon="30.29453">
        <ele>1</ele>
      </trkpt>
      <trkpt lat="36.31697" lon="30.29453">
        <ele>1</ele>
      </trkpt>
      <trkpt lat="36.31689" lon="30.29482">
        <ele>1</ele>
      </trkpt>
      <trkpt lat="36.3166" lon="30.29634">
        <ele>1</ele>
      </trkpt>
      <trkpt lat="36.3164" lon="30.29739">
      </trkpt>
      <trkpt lat="36.31627" lon="30.29836">
        <ele>1</ele>
      </trkpt>
      <trkpt lat="36.31533" lon="30.30087">
        <ele>2.6</ele>
      </trkpt>
      <trkpt lat="36.3153" lon="30.30094">
        <ele>2.5</ele>
      </trkpt>
      <trkpt lat="36.31385" lon="30.30374">
        <ele>1.7</ele>
      </trkpt>
      <trkpt lat="36.31379" lon="30.30385">
        <ele>1.7</ele>
      </trkpt>
      <trkpt lat="36.31367" lon="30.30453">
        <ele>1.6</ele>
      </trkpt>
      <trkpt lat="36.31364" lon="30.30517">
        <ele>1.5</ele>
      </trkpt>
      <trkpt lat="36.31358" lon="30.30559">
        <ele>1.2</ele>
      </trkpt>
      <trkpt lat="36.31344" lon="30.30596">
        <ele>1</ele>
      </trkpt>
      <trkpt lat="36.31293" lon="30.30704">
        <ele>1</ele>
      </trkpt>
      <trkpt lat="36.31228" lon="30.30863">
        <ele>3.4</ele>
      </trkpt>
      <trkpt lat="36.31218" lon="30.30913">
        <ele>4</ele>
      </trkpt>
      <trkpt lat="36.31212" lon="30.30957">
        <ele>3.2</ele>
      </trkpt>
      <trkpt lat="36.31217" lon="30.3101">
        <ele>2.2</ele>
      </trkpt>
      <trkpt lat="36.3122" lon="30.31034">
        <ele>2</ele>
      </trkpt>
      <trkpt lat="36.31233" lon="30.31103">
        <ele>2</ele>
      </trkpt>
      <trkpt lat="36.31241" lon="30.31177">
        <ele>1</ele>
      </trkpt>
      <trkpt lat="36.31261" lon="30.31226">
        <ele>1</ele>
      </trkpt>
      <trkpt lat="36.31304" lon="30.31306">
        <ele>1</ele>
      </trkpt>
      <trkpt lat="36.31303" lon="30.31364">
        <ele>1.2</ele>
      </trkpt>
      <trkpt lat="36.31301" lon="30.31417">
        <ele>1.6</ele>
      </trkpt>
      <trkpt lat="36.31286" lon="30.31497">
        <ele>1</ele>
      </trkpt>
      <trkpt lat="36.31245" lon="30.31635">
        <ele>1</ele>
      </trkpt>
      <trkpt lat="36.31217" lon="30.31702">
        <ele>1.4</ele>
      </trkpt>
      <trkpt lat="36.31171" lon="30.3178">
        <ele>2.4</ele>
      </trkpt>
      <trkpt lat="36.31029" lon="30.32017">
        <ele>2</ele>
      </trkpt>
      <trkpt lat="36.30991" lon="30.32069">
        <ele>2</ele>
      </trkpt>
      <trkpt lat="36.30963" lon="30.32102">
        <ele>2.3</ele>
      </trkpt>
      <trkpt lat="36.3093" lon="30.32144">
        <ele>3.3</ele>
      </trkpt>
      <trkpt lat="36.30904" lon="30.32191">
        <ele>3.7</ele>
      </trkpt>
      <trkpt lat="36.3087" lon="30.32259">
        <ele>2.9</ele>
      </trkpt>
      <trkpt lat="36.30828" lon="30.32332">
        <ele>2.9</ele>
      </trkpt>
      <trkpt lat="36.30778" lon="30.32402">
        <ele>2.9</ele>
      </trkpt>
      <trkpt lat="36.30732" lon="30.32472">
        <ele>2.9</ele>
      </trkpt>
      <trkpt lat="36.30688" lon="30.32544">
        <ele>3</ele>
      </trkpt>
      <trkpt lat="36.30622" lon="30.32653">
        <ele>1.5</ele>
      </trkpt>
      <trkpt lat="36.30612" lon="30.32669">
        <ele>1.4</ele>
      </trkpt>
      <trkpt lat="36.30607" lon="30.32678">
        <ele>1.5</ele>
      </trkpt>
      <trkpt lat="36.30586" lon="30.32722">
        <ele>2.3</ele>
      </trkpt>
      <trkpt lat="36.30549" lon="30.32773">
        <ele>3.7</ele>
      </trkpt>
      <trkpt lat="36.30553" lon="30.32791">
        <ele>3.9</ele>
      </trkpt>
      <trkpt lat="36.3055" lon="30.32815">
        <ele>4.2</ele>
      </trkpt>
      <trkpt lat="36.3053" lon="30.32848">
        <ele>4.6</ele>
      </trkpt>
      <trkpt lat="36.30375" lon="30.33122">
        <ele>4.9</ele>
      </trkpt>
      <trkpt lat="36.3009" lon="30.33548">
        <ele>1.1</ele>
      </trkpt>
      <trkpt lat="36.30075" lon="30.33563">
        <ele>1.1</ele>
      </trkpt>
      <trkpt lat="36.30062" lon="30.33567">
        <ele>1.3</ele>
      </trkpt>
      <trkpt lat="36.30018" lon="30.33543">
        <ele>2.2</ele>
      </trkpt>
      <trkpt lat="36.30009" lon="30.33543">
        <ele>2.3</ele>
      </trkpt>
      <trkpt lat="36.29996" lon="30.33554">
        <ele>2.6</ele>
      </trkpt>
      <trkpt lat="36.29821" lon="30.33835">
        <ele>5.6</ele>
      </trkpt>
      <trkpt lat="36.29697" lon="30.3408">
        <ele>2.3</ele>
      </trkpt>
      <trkpt lat="36.29679" lon="30.34103">
        <ele>2.3</ele>
      </trkpt>
      <trkpt lat="36.29649" lon="30.34132">
        <ele>2.2</ele>
      </trkpt>
      <trkpt lat="36.29616" lon="30.34153">
        <ele>2.5</ele>
      </trkpt>
      <trkpt lat="36.29589" lon="30.3416">
        <ele>2.9</ele>
      </trkpt>
      <trkpt lat="36.29576" lon="30.34155">
        <ele>3.1</ele>
      </trkpt>
      <trkpt lat="36.29556" lon="30.34146">
        <ele>3.3</ele>
      </trkpt>
      <trkpt lat="36.29541" lon="30.34136">
        <ele>3.8</ele>
      </trkpt>
      <trkpt lat="36.29501" lon="30.34101">
        <ele>6.7</ele>
      </trkpt>
      <trkpt lat="36.2949" lon="30.34101">
        <ele>7.5</ele>
      </trkpt>
      <trkpt lat="36.2948" lon="30.34106">
        <ele>7.8</ele>
      </trkpt>
      <trkpt lat="36.29283" lon="30.34314">
        <ele>8</ele>
      </trkpt>
      <trkpt lat="36.29151" lon="30.34474">
        <ele>6.9</ele>
      </trkpt>
      <trkpt lat="36.29121" lon="30.3449">
        <ele>5.8</ele>
      </trkpt>
      <trkpt lat="36.29098" lon="30.34504">
        <ele>5.1</ele>
      </trkpt>
      <trkpt lat="36.29078" lon="30.34498">
        <ele>5</ele>
      </trkpt>
      <trkpt lat="36.29045" lon="30.34485">
        <ele>5.2</ele>
      </trkpt>
      <trkpt lat="36.2902" lon="30.34469">
        <ele>5.2</ele>
      </trkpt>
      <trkpt lat="36.28997" lon="30.34456">
        <ele>5</ele>
      </trkpt>
      <trkpt lat="36.28969" lon="30.34445">
        <ele>5.1</ele>
      </trkpt>
      <trkpt lat="36.28938" lon="30.34434">
        <ele>5.2</ele>
      </trkpt>
      <trkpt lat="36.28899" lon="30.34417">
        <ele>5</ele>
      </trkpt>
      <trkpt lat="36.28834" lon="30.34397">
        <ele>5</ele>
      </trkpt>
      <trkpt lat="36.28751" lon="30.34354">
        <ele>4.8</ele>
      </trkpt>
      <trkpt lat="36.28637" lon="30.34515">
        <ele>4</ele>
      </trkpt>
      <trkpt lat="36.28576" lon="30.34603">
        <ele>2.1</ele>
      </trkpt>
      <trkpt lat="36.28568" lon="30.34637">
        <ele>3.6</ele>
      </trkpt>
      <trkpt lat="36.28459" lon="30.34776">
        <ele>3.5</ele>
      </trkpt>
      <trkpt lat="36.28387" lon="30.34894">
        <ele>5</ele>
      </trkpt>
      <trkpt lat="36.28325" lon="30.35001">
        <ele>6.4</ele>
      </trkpt>
      <trkpt lat="36.28324" lon="30.35018">
        <ele>6</ele>
      </trkpt>
      <trkpt lat="36.28273" lon="30.35108">
        <ele>5.3</ele>
      </trkpt>
      <trkpt lat="36.28283" lon="30.35116">
        <ele>5.3</ele>
      </trkpt>
      <trkpt lat="36.2829" lon="30.35133">
        <ele>5.3</ele>
      </trkpt>
      <trkpt lat="36.28305" lon="30.35154">
        <ele>5</ele>
      </trkpt>
      <trkpt lat="36.28311" lon="30.35161">
        <ele>4.8</ele>
      </trkpt>
      <trkpt lat="36.28293" lon="30.35191">
        <ele>5.2</ele>
      </trkpt>
      <trkpt lat="36.28251" lon="30.35257">
        <ele>4.3</ele>
      </trkpt>
      <trkpt lat="36.28199" lon="30.35341">
        <ele>5.8</ele>
      </trkpt>
      <trkpt lat="36.28172" lon="30.35375">
        <ele>6</ele>
      </trkpt>
      <trkpt lat="36.2814" lon="30.35407">
        <ele>6.1</ele>
      </trkpt>
      <trkpt lat="36.28094" lon="30.35454">
        <ele>5.6</ele>
      </trkpt>
      <trkpt lat="36.28055" lon="30.35499">
        <ele>5.3</ele>
      </trkpt>
      <trkpt lat="36.28015" lon="30.35556">
        <ele>5.5</ele>
      </trkpt>
      <trkpt lat="36.27983" lon="30.35596">
        <ele>5.1</ele>
      </trkpt>
      <trkpt lat="36.27964" lon="30.35629">
        <ele>5</ele>
      </trkpt>
      <trkpt lat="36.27941" lon="30.3568">
        <ele>6</ele>
      </trkpt>
      <trkpt lat="36.27909" lon="30.35742">
        <ele>5.6</ele>
      </trkpt>
      <trkpt lat="36.27876" lon="30.35795">
        <ele>5.1</ele>
      </trkpt>
      <trkpt lat="36.27856" lon="30.3582">
        <ele>5.5</ele>
      </trkpt>
      <trkpt lat="36.27833" lon="30.35845">
        <ele>7.4</ele>
      </trkpt>
      <trkpt lat="36.27809" lon="30.35866">
        <ele>9.1</ele>
      </trkpt>
      <trkpt lat="36.2779" lon="30.35881">
        <ele>9.6</ele>
      </trkpt>
      <trkpt lat="36.27768" lon="30.35897">
        <ele>9.5</ele>
      </trkpt>
      <trkpt lat="36.27749" lon="30.35912">
        <ele>8.7</ele>
      </trkpt>
      <trkpt lat="36.27727" lon="30.35935">
        <ele>9.8</ele>
      </trkpt>
      <trkpt lat="36.27709" lon="30.35964">
        <ele>11.5</ele>
      </trkpt>
      <trkpt lat="36.27672" lon="30.36015">
        <ele>12</ele>
      </trkpt>
      <trkpt lat="36.27655" lon="30.36044">
        <ele>13.7</ele>
      </trkpt>
      <trkpt lat="36.27649" lon="30.36062">
        <ele>14.8</ele>
      </trkpt>
      <trkpt lat="36.27648" lon="30.36078">
        <ele>16.7</ele>
      </trkpt>
      <trkpt lat="36.2765" lon="30.36102">
        <ele>20.9</ele>
      </trkpt>
      <trkpt lat="36.27652" lon="30.36118">
        <ele>24.4</ele>
      </trkpt>
      <trkpt lat="36.2765" lon="30.36136">
        <ele>27.1</ele>
      </trkpt>
      <trkpt lat="36.27643" lon="30.3616">
        <ele>29.4</ele>
      </trkpt>
      <trkpt lat="36.27633" lon="30.3618">
        <ele>29.8</ele>
      </trkpt>
      <trkpt lat="36.27597" lon="30.36241">
        <ele>30.8</ele>
      </trkpt>
      <trkpt lat="36.27583" lon="30.36274">
        <ele>34.3</ele>
      </trkpt>
      <trkpt lat="36.27552" lon="30.36394">
        <ele>49.1</ele>
      </trkpt>
      <trkpt lat="36.27543" lon="30.36415">
        <ele>50.1</ele>
      </trkpt>
      <trkpt lat="36.2752" lon="30.36443">
        <ele>49.2</ele>
      </trkpt>
      <trkpt lat="36.27491" lon="30.36503">
        <ele>52.7</ele>
      </trkpt>
      <trkpt lat="36.27478" lon="30.36523">
        <ele>52.9</ele>
      </trkpt>
      <trkpt lat="36.27462" lon="30.3654">
        <ele>51.3</ele>
      </trkpt>
      <trkpt lat="36.27445" lon="30.36556">
        <ele>48.4</ele>
      </trkpt>
      <trkpt lat="36.27425" lon="30.36573">
        <ele>44.4</ele>
      </trkpt>
      <trkpt lat="36.27411" lon="30.36597">
        <ele>43.2</ele>
      </trkpt>
      <trkpt lat="36.27389" lon="30.36644">
        <ele>41.1</ele>
      </trkpt>
      <trkpt lat="36.27377" lon="30.36681">
        <ele>39.2</ele>
      </trkpt>
      <trkpt lat="36.27367" lon="30.36727">
        <ele>37.3</ele>
      </trkpt>
      <trkpt lat="36.27364" lon="30.36762">
        <ele>37.9</ele>
      </trkpt>
      <trkpt lat="36.27359" lon="30.3679">
        <ele>37.5</ele>
      </trkpt>
      <trkpt lat="36.27349" lon="30.36825">
        <ele>35.4</ele>
      </trkpt>
      <trkpt lat="36.27335" lon="30.36859">
        <ele>35.3</ele>
      </trkpt>
      <trkpt lat="36.27323" lon="30.36883">
        <ele>37.4</ele>
      </trkpt>
      <trkpt lat="36.2731" lon="30.36902">
        <ele>38.5</ele>
      </trkpt>
      <trkpt lat="36.27289" lon="30.3693">
        <ele>39.6</ele>
      </trkpt>
      <trkpt lat="36.27261" lon="30.36963">
        <ele>39.5</ele>
      </trkpt>
      <trkpt lat="36.27237" lon="30.36997">
        <ele>41</ele>
      </trkpt>
      <trkpt lat="36.2721" lon="30.37045">
        <ele>39.6</ele>
      </trkpt>
      <trkpt lat="36.27205" lon="30.37059">
        <ele>38.9</ele>
      </trkpt>
      <trkpt lat="36.27202" lon="30.37073">
        <ele>38.6</ele>
      </trkpt>
      <trkpt lat="36.27203" lon="30.37087">
        <ele>38.6</ele>
      </trkpt>
      <trkpt lat="36.27206" lon="30.37097">
        <ele>38.1</ele>
      </trkpt>
      <trkpt lat="36.2722" lon="30.37112">
        <ele>38.6</ele>
      </trkpt>
      <trkpt lat="36.27239" lon="30.37131">
        <ele>37.5</ele>
      </trkpt>
      <trkpt lat="36.27263" lon="30.37148">
        <ele>39.6</ele>
      </trkpt>
      <trkpt lat="36.27288" lon="30.37169">
        <ele>45.6</ele>
      </trkpt>
      <trkpt lat="36.27303" lon="30.37185">
        <ele>48.4</ele>
      </trkpt>
      <trkpt lat="36.27311" lon="30.37197">
        <ele>48.5</ele>
      </trkpt>
      <trkpt lat="36.27336" lon="30.37251">
        <ele>43.8</ele>
      </trkpt>
      <trkpt lat="36.2734" lon="30.37271">
        <ele>45.8</ele>
      </trkpt>
      <trkpt lat="36.27342" lon="30.37297">
        <ele>45.5</ele>
      </trkpt>
      <trkpt lat="36.27342" lon="30.3733">
        <ele>43.1</ele>
      </trkpt>
      <trkpt lat="36.27352" lon="30.3738">
        <ele>43.9</ele>
      </trkpt>
      <trkpt lat="36.27362" lon="30.37435">
        <ele>42.6</ele>
      </trkpt>
      <trkpt lat="36.2736" lon="30.37462">
        <ele>39.3</ele>
      </trkpt>
      <trkpt lat="36.27353" lon="30.37509">
        <ele>33</ele>
      </trkpt>
      <trkpt lat="36.27347" lon="30.37542">
        <ele>29.9</ele>
      </trkpt>
      <trkpt lat="36.27347" lon="30.37559">
        <ele>29.5</ele>
      </trkpt>
      <trkpt lat="36.27353" lon="30.3758">
        <ele>30.6</ele>
      </trkpt>
      <trkpt lat="36.2737" lon="30.37627">
        <ele>33.6</ele>
      </trkpt>
      <trkpt lat="36.27377" lon="30.37676">
        <ele>33.7</ele>
      </trkpt>
      <trkpt lat="36.27379" lon="30.37744">
        <ele>32.1</ele>
      </trkpt>
      <trkpt lat="36.27385" lon="30.37788">
        <ele>32</ele>
      </trkpt>
      <trkpt lat="36.27387" lon="30.37814">
        <ele>31.7</ele>
      </trkpt>
      <trkpt lat="36.27391" lon="30.37835">
        <ele>31.7</ele>
      </trkpt>
      <trkpt lat="36.27401" lon="30.3785">
        <ele>31</ele>
      </trkpt>
      <trkpt lat="36.27422" lon="30.37865">
        <ele>32.4</ele>
      </trkpt>
      <trkpt lat="36.2744" lon="30.37872">
        <ele>34.2</ele>
      </trkpt>
      <trkpt lat="36.27455" lon="30.37874">
        <ele>36.4</ele>
      </trkpt>
      <trkpt lat="36.27472" lon="30.37866">
        <ele>41.2</ele>
      </trkpt>
      <trkpt lat="36.27487" lon="30.37862">
        <ele>44.9</ele>
      </trkpt>
      <trkpt lat="36.27499" lon="30.37866">
        <ele>46.2</ele>
      </trkpt>
      <trkpt lat="36.27513" lon="30.3788">
        <ele>46.8</ele>
      </trkpt>
      <trkpt lat="36.2752" lon="30.37909">
        <ele>42.7</ele>
      </trkpt>
      <trkpt lat="36.27524" lon="30.37937">
        <ele>37.7</ele>
      </trkpt>
      <trkpt lat="36.27528" lon="30.37963">
        <ele>33.6</ele>
      </trkpt>
      <trkpt lat="36.27536" lon="30.37974">
        <ele>33.5</ele>
      </trkpt>
      <trkpt lat="36.27549" lon="30.3798">
        <ele>35.5</ele>
      </trkpt>
      <trkpt lat="36.27572" lon="30.37981">
        <ele>41.6</ele>
      </trkpt>
      <trkpt lat="36.27601" lon="30.37988">
        <ele>43.5</ele>
      </trkpt>
      <trkpt lat="36.27615" lon="30.3799">
        <ele>43.5</ele>
      </trkpt>
      <trkpt lat="36.27627" lon="30.37986">
        <ele>44.4</ele>
      </trkpt>
      <trkpt lat="36.27636" lon="30.3797">
        <ele>47.9</ele>
      </trkpt>
      <trkpt lat="36.27651" lon="30.37947">
        <ele>53</ele>
      </trkpt>
      <trkpt lat="36.27668" lon="30.37939">
        <ele>55.2</ele>
      </trkpt>
      <trkpt lat="36.27695" lon="30.37943">
        <ele>54.2</ele>
      </trkpt>
      <trkpt lat="36.27719" lon="30.37947">
        <ele>53.1</ele>
      </trkpt>
      <trkpt lat="36.27737" lon="30.37956">
        <ele>51.1</ele>
      </trkpt>
      <trkpt lat="36.27757" lon="30.37991">
        <ele>44.3</ele>
      </trkpt>
      <trkpt lat="36.27772" lon="30.38017">
        <ele>44.2</ele>
      </trkpt>
      <trkpt lat="36.27788" lon="30.38039">
        <ele>46.3</ele>
      </trkpt>
      <trkpt lat="36.27802" lon="30.3805">
        <ele>48.9</ele>
      </trkpt>
      <trkpt lat="36.27815" lon="30.38055">
        <ele>51.5</ele>
      </trkpt>
      <trkpt lat="36.27822" lon="30.38065">
        <ele>52.7</ele>
      </trkpt>
      <trkpt lat="36.2782" lon="30.38077">
        <ele>52.1</ele>
      </trkpt>
      <trkpt lat="36.27814" lon="30.38089">
        <ele>52.2</ele>
      </trkpt>
      <trkpt lat="36.27801" lon="30.381">
        <ele>51.5</ele>
      </trkpt>
      <trkpt lat="36.27782" lon="30.38122">
        <ele>51.1</ele>
      </trkpt>
      <trkpt lat="36.2775" lon="30.3815">
        <ele>46.3</ele>
      </trkpt>
      <trkpt lat="36.27709" lon="30.3818">
        <ele>36.5</ele>
      </trkpt>
      <trkpt lat="36.27698" lon="30.38191">
        <ele>35</ele>
      </trkpt>
      <trkpt lat="36.27685" lon="30.38215">
        <ele>35.6</ele>
      </trkpt>
      <trkpt lat="36.27681" lon="30.38243">
        <ele>40.2</ele>
      </trkpt>
      <trkpt lat="36.27676" lon="30.38265">
        <ele>44</ele>
      </trkpt>
      <trkpt lat="36.27661" lon="30.38279">
        <ele>42.8</ele>
      </trkpt>
      <trkpt lat="36.27643" lon="30.38288">
        <ele>40.4</ele>
      </trkpt>
      <trkpt lat="36.27613" lon="30.38299">
        <ele>34.9</ele>
      </trkpt>
      <trkpt lat="36.27573" lon="30.38321">
        <ele>31.1</ele>
      </trkpt>
      <trkpt lat="36.27553" lon="30.3834">
        <ele>30.6</ele>
      </trkpt>
      <trkpt lat="36.27526" lon="30.38382">
        <ele>29.1</ele>
      </trkpt>
      <trkpt lat="36.2748" lon="30.38473">
        <ele>26.6</ele>
      </trkpt>
      <trkpt lat="36.27455" lon="30.38523">
        <ele>23.2</ele>
      </trkpt>
      <trkpt lat="36.27445" lon="30.38553">
        <ele>21.6</ele>
      </trkpt>
      <trkpt lat="36.27436" lon="30.3859">
        <ele>19.2</ele>
      </trkpt>
      <trkpt lat="36.27441" lon="30.38618">
        <ele>18.1</ele>
      </trkpt>
      <trkpt lat="36.27448" lon="30.38648">
        <ele>16.6</ele>
      </trkpt>
      <trkpt lat="36.27458" lon="30.38671">
        <ele>15.6</ele>
      </trkpt>
      <trkpt lat="36.2747" lon="30.38692">
        <ele>13.9</ele>
      </trkpt>
      <trkpt lat="36.27489" lon="30.38714">
        <ele>11.3</ele>
      </trkpt>
      <trkpt lat="36.27511" lon="30.38727">
        <ele>9.6</ele>
      </trkpt>
      <trkpt lat="36.27529" lon="30.38733">
        <ele>9.8</ele>
      </trkpt>
      <trkpt lat="36.27559" lon="30.38734">
        <ele>12.3</ele>
      </trkpt>
      <trkpt lat="36.27551" lon="30.38742">
        <ele>8.8</ele>
      </trkpt>
      <trkpt lat="36.27547" lon="30.38752">
        <ele>5.98</ele>
      </trkpt>
      <trkpt lat="36.27551" lon="30.38754">
        <ele>6.25</ele>
      </trkpt>
      <trkpt lat="36.27557" lon="30.3875">
        <ele>6.9</ele>
      </trkpt>
      <trkpt lat="36.27578" lon="30.38746">
        <ele>10</ele>
      </trkpt>
      <trkpt lat="36.27614" lon="30.38739">
        <ele>10.9</ele>
      </trkpt>
      <trkpt lat="36.27655" lon="30.38723">
        <ele>14.2</ele>
      </trkpt>
      <trkpt lat="36.27705" lon="30.38732">
        <ele>9.4</ele>
      </trkpt>
      <trkpt lat="36.27723" lon="30.38718">
        <ele>13.6</ele>
      </trkpt>
      <trkpt lat="36.27745" lon="30.38714">
        <ele>14</ele>
      </trkpt>
      <trkpt lat="36.27773" lon="30.38714">
        <ele>13.9</ele>
      </trkpt>
      <trkpt lat="36.27787" lon="30.38716">
        <ele>13.3</ele>
      </trkpt>
      <trkpt lat="36.27803" lon="30.38724">
        <ele>11.2</ele>
      </trkpt>
      <trkpt lat="36.27833" lon="30.3876">
        <ele>4.6</ele>
      </trkpt>
      <trkpt lat="36.27848" lon="30.38785">
        <ele>5.4</ele>
      </trkpt>
      <trkpt lat="36.27859" lon="30.38809">
        <ele>5.7</ele>
      </trkpt>
      <trkpt lat="36.27868" lon="30.3882">
        <ele>6.3</ele>
      </trkpt>
      <trkpt lat="36.27877" lon="30.38824">
        <ele>7.1</ele>
      </trkpt>
      <trkpt lat="36.2789" lon="30.38824">
        <ele>8.4</ele>
      </trkpt>
      <trkpt lat="36.27901" lon="30.3883">
        <ele>9.4</ele>
      </trkpt>
      <trkpt lat="36.27908" lon="30.38846">
        <ele>10.8</ele>
      </trkpt>
      <trkpt lat="36.27914" lon="30.38855">
        <ele>12</ele>
      </trkpt>
      <trkpt lat="36.27928" lon="30.38864">
        <ele>15.1</ele>
      </trkpt>
      <trkpt lat="36.27916" lon="30.38897">
        <ele>14.7</ele>
      </trkpt>
      <trkpt lat="36.2791" lon="30.38918">
        <ele>15</ele>
      </trkpt>
      <trkpt lat="36.27912" lon="30.38939">
        <ele>15.2</ele>
      </trkpt>
      <trkpt lat="36.2792" lon="30.38995">
        <ele>16.7</ele>
      </trkpt>
      <trkpt lat="36.27939" lon="30.39088">
        <ele>17</ele>
      </trkpt>
      <trkpt lat="36.27959" lon="30.3916">
        <ele>16.1</ele>
      </trkpt>
      <trkpt lat="36.27972" lon="30.39192">
        <ele>16.9</ele>
      </trkpt>
      <trkpt lat="36.27994" lon="30.39221">
        <ele>19.1</ele>
      </trkpt>
      <trkpt lat="36.28003" lon="30.39244">
        <ele>19.1</ele>
      </trkpt>
      <trkpt lat="36.28048" lon="30.39288">
        <ele>23.1</ele>
      </trkpt>
      <trkpt lat="36.28059" lon="30.39305">
        <ele>22.6</ele>
      </trkpt>
      <trkpt lat="36.28069" lon="30.3933">
        <ele>20.6</ele>
      </trkpt>
      <trkpt lat="36.28072" lon="30.39352">
        <ele>20.6</ele>
      </trkpt>
      <trkpt lat="36.28073" lon="30.39388">
        <ele>21.1</ele>
      </trkpt>
      <trkpt lat="36.28079" lon="30.39414">
        <ele>21.2</ele>
      </trkpt>
      <trkpt lat="36.28085" lon="30.39426">
        <ele>22.5</ele>
      </trkpt>
      <trkpt lat="36.28113" lon="30.3946">
        <ele>29.5</ele>
      </trkpt>
      <trkpt lat="36.28124" lon="30.3947">
        <ele>31</ele>
      </trkpt>
      <trkpt lat="36.28127" lon="30.39481">
        <ele>31.8</ele>
      </trkpt>
      <trkpt lat="36.28126" lon="30.39491">
        <ele>32.4</ele>
      </trkpt>
      <trkpt lat="36.28118" lon="30.39498">
        <ele>32.9</ele>
      </trkpt>
      <trkpt lat="36.28109" lon="30.39498">
        <ele>32.8</ele>
      </trkpt>
      <trkpt lat="36.28071" lon="30.39498">
        <ele>36</ele>
      </trkpt>
      <trkpt lat="36.28053" lon="30.39496">
        <ele>40.5</ele>
      </trkpt>
      <trkpt lat="36.28028" lon="30.39491">
        <ele>45.5</ele>
      </trkpt>
      <trkpt lat="36.28013" lon="30.39481">
        <ele>46.1</ele>
      </trkpt>
      <trkpt lat="36.27998" lon="30.39469">
        <ele>44.9</ele>
      </trkpt>
      <trkpt lat="36.27982" lon="30.39453">
        <ele>41.7</ele>
      </trkpt>
      <trkpt lat="36.27968" lon="30.39445">
        <ele>40.8</ele>
      </trkpt>
      <trkpt lat="36.27952" lon="30.39442">
        <ele>41.8</ele>
      </trkpt>
      <trkpt lat="36.27932" lon="30.39443">
        <ele>45.5</ele>
      </trkpt>
      <trkpt lat="36.27849" lon="30.39456">
        <ele>50.2</ele>
      </trkpt>
      <trkpt lat="36.27818" lon="30.39463">
        <ele>49.7</ele>
      </trkpt>
      <trkpt lat="36.27772" lon="30.39484">
        <ele>51.2</ele>
      </trkpt>
      <trkpt lat="36.27747" lon="30.39497">
        <ele>52.3</ele>
      </trkpt>
      <trkpt lat="36.27733" lon="30.3951">
        <ele>52</ele>
      </trkpt>
      <trkpt lat="36.27726" lon="30.39524">
        <ele>54.7</ele>
      </trkpt>
      <trkpt lat="36.27717" lon="30.39537">
        <ele>55.9</ele>
      </trkpt>
      <trkpt lat="36.27707" lon="30.39545">
        <ele>54.2</ele>
      </trkpt>
      <trkpt lat="36.27693" lon="30.39554">
        <ele>50.6</ele>
      </trkpt>
      <trkpt lat="36.27685" lon="30.39565">
        <ele>51.1</ele>
      </trkpt>
      <trkpt lat="36.27677" lon="30.39593">
        <ele>56.4</ele>
      </trkpt>
      <trkpt lat="36.2767" lon="30.39612">
        <ele>58.3</ele>
      </trkpt>
      <trkpt lat="36.27641" lon="30.39655">
        <ele>59.4</ele>
      </trkpt>
      <trkpt lat="36.27612" lon="30.39726">
        <ele>59.1</ele>
      </trkpt>
      <trkpt lat="36.27584" lon="30.39803">
        <ele>58.4</ele>
      </trkpt>
      <trkpt lat="36.27577" lon="30.39818">
        <ele>58.9</ele>
      </trkpt>
      <trkpt lat="36.27546" lon="30.39854">
        <ele>57.6</ele>
      </trkpt>
      <trkpt lat="36.27525" lon="30.39882">
        <ele>55.5</ele>
      </trkpt>
      <trkpt lat="36.27515" lon="30.39901">
        <ele>54.3</ele>
      </trkpt>
      <trkpt lat="36.27498" lon="30.39952">
        <ele>48.6</ele>
      </trkpt>
      <trkpt lat="36.27493" lon="30.39975">
        <ele>45.9</ele>
      </trkpt>
      <trkpt lat="36.27491" lon="30.39984">
        <ele>44.8</ele>
      </trkpt>
      <trkpt lat="36.27489" lon="30.40014">
        <ele>43.4</ele>
      </trkpt>
      <trkpt lat="36.27482" lon="30.40053">
        <ele>40.3</ele>
      </trkpt>
      <trkpt lat="36.27479" lon="30.40077">
        <ele>39.2</ele>
      </trkpt>
      <trkpt lat="36.27483" lon="30.40106">
        <ele>39.4</ele>
      </trkpt>
      <trkpt lat="36.2749" lon="30.40139">
        <ele>40.1</ele>
      </trkpt>
      <trkpt lat="36.27512" lon="30.40193">
        <ele>41.8</ele>
      </trkpt>
      <trkpt lat="36.27547" lon="30.40268">
        <ele>42.7</ele>
      </trkpt>
      <trkpt lat="36.27549" lon="30.40302">
        <ele>38.8</ele>
      </trkpt>
      <trkpt lat="36.2755" lon="30.40324">
        <ele>36.1</ele>
      </trkpt>
      <trkpt lat="36.27554" lon="30.40345">
        <ele>33.3</ele>
      </trkpt>
      <trkpt lat="36.27565" lon="30.40364">
        <ele>31.2</ele>
      </trkpt>
      <trkpt lat="36.27619" lon="30.40421">
        <ele>27.4</ele>
      </trkpt>
      <trkpt lat="36.27637" lon="30.40437">
        <ele>29.3</ele>
      </trkpt>
      <trkpt lat="36.27648" lon="30.40454">
        <ele>29.9</ele>
      </trkpt>
      <trkpt lat="36.27648" lon="30.40476">
        <ele>26.9</ele>
      </trkpt>
      <trkpt lat="36.27647" lon="30.40494">
        <ele>24.1</ele>
      </trkpt>
      <trkpt lat="36.27656" lon="30.40518">
        <ele>22.9</ele>
      </trkpt>
      <trkpt lat="36.27685" lon="30.40555">
        <ele>23.2</ele>
      </trkpt>
      <trkpt lat="36.27782" lon="30.4063">
        <ele>22.7</ele>
      </trkpt>
      <trkpt lat="36.27825" lon="30.40653">
        <ele>19.2</ele>
      </trkpt>
      <trkpt lat="36.27838" lon="30.40673">
        <ele>14.7</ele>
      </trkpt>
      <trkpt lat="36.27842" lon="30.40692">
        <ele>12.9</ele>
      </trkpt>
      <trkpt lat="36.27845" lon="30.40706">
        <ele>11.5</ele>
      </trkpt>
      <trkpt lat="36.27832" lon="30.40726">
        <ele>8.5</ele>
      </trkpt>
      <trkpt lat="36.27804" lon="30.40807">
        <ele>6.4</ele>
      </trkpt>
      <trkpt lat="36.27784" lon="30.40793">
        <ele>6.2</ele>
      </trkpt>
      <trkpt lat="36.27743" lon="30.40776">
        <ele>5.8</ele>
      </trkpt>
      <trkpt lat="36.27664" lon="30.40759">
        <ele>4</ele>
      </trkpt>
      <trkpt lat="36.27548" lon="30.40738">
        <ele>2.9</ele>
      </trkpt>
      <trkpt lat="36.27541" lon="30.4076">
        <ele>2.9</ele>
      </trkpt>
      <trkpt lat="36.27522" lon="30.40804">
        <ele>2.2</ele>
      </trkpt>
      <trkpt lat="36.27494" lon="30.40868">
        <ele>2.5</ele>
      </trkpt>
      <trkpt lat="36.27463" lon="30.40941">
        <ele>4.2</ele>
      </trkpt>
      <trkpt lat="36.27446" lon="30.40967">
        <ele>4.8</ele>
      </trkpt>
      <trkpt lat="36.27417" lon="30.41009">
        <ele>7.4</ele>
      </trkpt>
      <trkpt lat="36.27387" lon="30.41043">
        <ele>12.2</ele>
      </trkpt>
      <trkpt lat="36.27371" lon="30.41057">
        <ele>14.1</ele>
      </trkpt>
      <trkpt lat="36.27348" lon="30.41056">
        <ele>13.6</ele>
      </trkpt>
      <trkpt lat="36.27331" lon="30.41059">
        <ele>13.8</ele>
      </trkpt>
      <trkpt lat="36.27317" lon="30.41069">
        <ele>14.7</ele>
      </trkpt>
      <trkpt lat="36.27297" lon="30.411">
        <ele>18.2</ele>
      </trkpt>
      <trkpt lat="36.27246" lon="30.41121">
        <ele>18.5</ele>
      </trkpt>
      <trkpt lat="36.27202" lon="30.4113">
        <ele>16.8</ele>
      </trkpt>
      <trkpt lat="36.27169" lon="30.41145">
        <ele>16.9</ele>
      </trkpt>
      <trkpt lat="36.27115" lon="30.41193">
        <ele>17.5</ele>
      </trkpt>
      <trkpt lat="36.27071" lon="30.41272">
        <ele>24.7</ele>
      </trkpt>
      <trkpt lat="36.27034" lon="30.41303">
        <ele>24.6</ele>
      </trkpt>
      <trkpt lat="36.27013" lon="30.41327">
        <ele>26.4</ele>
      </trkpt>
      <trkpt lat="36.26994" lon="30.41347">
        <ele>26.3</ele>
      </trkpt>
      <trkpt lat="36.26966" lon="30.41374">
        <ele>24.8</ele>
      </trkpt>
      <trkpt lat="36.26953" lon="30.41381">
        <ele>23.7</ele>
      </trkpt>
      <trkpt lat="36.26906" lon="30.41427">
        <ele>22.5</ele>
      </trkpt>
      <trkpt lat="36.26892" lon="30.41452">
        <ele>23.3</ele>
      </trkpt>
      <trkpt lat="36.26899" lon="30.41469">
        <ele>24.6</ele>
      </trkpt>
      <trkpt lat="36.26898" lon="30.41483">
        <ele>25.5</ele>
      </trkpt>
      <trkpt lat="36.26882" lon="30.41489">
        <ele>26.2</ele>
      </trkpt>
      <trkpt lat="36.26866" lon="30.41505">
        <ele>28.2</ele>
      </trkpt>
      <trkpt lat="36.26849" lon="30.41504">
        <ele>28.8</ele>
      </trkpt>
      <trkpt lat="36.26819" lon="30.41482">
        <ele>26.2</ele>
      </trkpt>
      <trkpt lat="36.26797" lon="30.41479">
        <ele>25.9</ele>
      </trkpt>
      <trkpt lat="36.2676" lon="30.41503">
        <ele>32.1</ele>
      </trkpt>
      <trkpt lat="36.26741" lon="30.41511">
        <ele>33.9</ele>
      </trkpt>
      <trkpt lat="36.26698" lon="30.41515">
        <ele>34.5</ele>
      </trkpt>
      <trkpt lat="36.26656" lon="30.4153">
        <ele>36.5</ele>
      </trkpt>
      <trkpt lat="36.26609" lon="30.41507">
        <ele>32.2</ele>
      </trkpt>
      <trkpt lat="36.26563" lon="30.41504">
        <ele>31.6</ele>
      </trkpt>
      <trkpt lat="36.2653" lon="30.41515">
        <ele>32.8</ele>
      </trkpt>
      <trkpt lat="36.26483" lon="30.41496">
        <ele>32.1</ele>
      </trkpt>
      <trkpt lat="36.2642" lon="30.41477">
        <ele>33.1</ele>
      </trkpt>
      <trkpt lat="36.26399" lon="30.41482">
        <ele>35.2</ele>
      </trkpt>
      <trkpt lat="36.26373" lon="30.41501">
        <ele>39.2</ele>
      </trkpt>
      <trkpt lat="36.26358" lon="30.41499">
        <ele>39.8</ele>
      </trkpt>
      <trkpt lat="36.2634" lon="30.4148">
        <ele>38.7</ele>
      </trkpt>
      <trkpt lat="36.26315" lon="30.41483">
        <ele>42.1</ele>
      </trkpt>
      <trkpt lat="36.26292" lon="30.41497">
        <ele>46.6</ele>
      </trkpt>
      <trkpt lat="36.26282" lon="30.4147">
        <ele>45.5</ele>
      </trkpt>
      <trkpt lat="36.26281" lon="30.41453">
        <ele>44</ele>
      </trkpt>
      <trkpt lat="36.26282" lon="30.41446">
        <ele>43.2</ele>
      </trkpt>
      <trkpt lat="36.26322" lon="30.41413">
        <ele>34</ele>
      </trkpt>
      <trkpt lat="36.2633" lon="30.41395">
        <ele>30.4</ele>
      </trkpt>
      <trkpt lat="36.26312" lon="30.41334">
        <ele>24.2</ele>
      </trkpt>
      <trkpt lat="36.26311" lon="30.41313">
        <ele>19.9</ele>
      </trkpt>
      <trkpt lat="36.26305" lon="30.41301">
        <ele>18.4</ele>
      </trkpt>
      <trkpt lat="36.26288" lon="30.41304">
        <ele>21.3</ele>
      </trkpt>
      <trkpt lat="36.26271" lon="30.41299">
        <ele>22.6</ele>
      </trkpt>
      <trkpt lat="36.26267" lon="30.41292">
        <ele>21.6</ele>
      </trkpt>
      <trkpt lat="36.26248" lon="30.41307">
        <ele>27.5</ele>
      </trkpt>
      <trkpt lat="36.26249" lon="30.41292">
        <ele>24.3</ele>
      </trkpt>
      <trkpt lat="36.2624" lon="30.4127">
        <ele>20.5</ele>
      </trkpt>
      <trkpt lat="36.26218" lon="30.41268">
        <ele>22.1</ele>
      </trkpt>
      <trkpt lat="36.26185" lon="30.41242">
        <ele>20.5</ele>
      </trkpt>
      <trkpt lat="36.26152" lon="30.41231">
        <ele>22.1</ele>
      </trkpt>
      <trkpt lat="36.26121" lon="30.41231">
        <ele>26</ele>
      </trkpt>
      <trkpt lat="36.26116" lon="30.41221">
        <ele>24.5</ele>
      </trkpt>
      <trkpt lat="36.26105" lon="30.4122">
        <ele>25.5</ele>
      </trkpt>
      <trkpt lat="36.26101" lon="30.41211">
        <ele>24</ele>
      </trkpt>
      <trkpt lat="36.26073" lon="30.41203">
        <ele>25.6</ele>
      </trkpt>
      <trkpt lat="36.26059" lon="30.41174">
        <ele>20.7</ele>
      </trkpt>
      <trkpt lat="36.26051" lon="30.4117">
        <ele>20.9</ele>
      </trkpt>
      <trkpt lat="36.26043" lon="30.41156">
        <ele>19.2</ele>
      </trkpt>
      <trkpt lat="36.26035" lon="30.41153">
        <ele>19.6</ele>
      </trkpt>
      <trkpt lat="36.26025" lon="30.41136">
        <ele>17.2</ele>
      </trkpt>
      <trkpt lat="36.25991" lon="30.41102">
        <ele>13.2</ele>
      </trkpt>
      <trkpt lat="36.25985" lon="30.41104">
        <ele>14.5</ele>
      </trkpt>
      <trkpt lat="36.25966" lon="30.41094">
        <ele>14.4</ele>
      </trkpt>
      <trkpt lat="36.25948" lon="30.41107">
        <ele>19.5</ele>
      </trkpt>
      <trkpt lat="36.25936" lon="30.4111">
        <ele>21.4</ele>
      </trkpt>
      <trkpt lat="36.25931" lon="30.41105">
        <ele>21</ele>
      </trkpt>
      <trkpt lat="36.25932" lon="30.41081">
        <ele>15.7</ele>
      </trkpt>
      <trkpt lat="36.25928" lon="30.41075">
        <ele>15.2</ele>
      </trkpt>
      <trkpt lat="36.25913" lon="30.41079">
        <ele>18.2</ele>
      </trkpt>
      <trkpt lat="36.25897" lon="30.4107">
        <ele>20.5</ele>
      </trkpt>
      <trkpt lat="36.25883" lon="30.4107">
        <ele>24</ele>
      </trkpt>
      <trkpt lat="36.2588" lon="30.41057">
        <ele>22</ele>
      </trkpt>
      <trkpt lat="36.25816" lon="30.41026">
        <ele>24.4</ele>
      </trkpt>
      <trkpt lat="36.25802" lon="30.41014">
        <ele>20.8</ele>
      </trkpt>
      <trkpt lat="36.25784" lon="30.41016">
        <ele>21</ele>
      </trkpt>
      <trkpt lat="36.2576" lon="30.40992">
        <ele>13.9</ele>
      </trkpt>
      <trkpt lat="36.25735" lon="30.40984">
        <ele>12.1</ele>
      </trkpt>
      <trkpt lat="36.25729" lon="30.40979">
        <ele>11.1</ele>
      </trkpt>
      <trkpt lat="36.25703" lon="30.40974">
        <ele>10</ele>
      </trkpt>
      <trkpt lat="36.25689" lon="30.40982">
        <ele>11</ele>
      </trkpt>
      <trkpt lat="36.25612" lon="30.40986">
        <ele>16.9</ele>
      </trkpt>
      <trkpt lat="36.2554" lon="30.40948">
        <ele>17.7</ele>
      </trkpt>
      <trkpt lat="36.25503" lon="30.40925">
        <ele>18.3</ele>
      </trkpt>
      <trkpt lat="36.25487" lon="30.40893">
        <ele>21</ele>
      </trkpt>
      <trkpt lat="36.25466" lon="30.40866">
        <ele>27.6</ele>
      </trkpt>
      <trkpt lat="36.25461" lon="30.40836">
        <ele>27.1</ele>
      </trkpt>
      <trkpt lat="36.25467" lon="30.40757">
        <ele>30.5</ele>
      </trkpt>
      <trkpt lat="36.25478" lon="30.40739">
        <ele>27.2</ele>
      </trkpt>
      <trkpt lat="36.25505" lon="30.40718">
        <ele>19.7</ele>
      </trkpt>
      <trkpt lat="36.25507" lon="30.40699">
        <ele>17.2</ele>
      </trkpt>
      <trkpt lat="36.25495" lon="30.40667">
        <ele>14.1</ele>
      </trkpt>
      <trkpt lat="36.25472" lon="30.40668">
        <ele>18.8</ele>
      </trkpt>
      <trkpt lat="36.25464" lon="30.4066">
        <ele>21.2</ele>
      </trkpt>
      <trkpt lat="36.25454" lon="30.40659">
        <ele>23.2</ele>
      </trkpt>
      <trkpt lat="36.25454" lon="30.40655">
        <ele>23.5</ele>
      </trkpt>
      <trkpt lat="36.25435" lon="30.40655">
        <ele>26.7</ele>
      </trkpt>
      <trkpt lat="36.25414" lon="30.40652">
        <ele>29.9</ele>
      </trkpt>
      <trkpt lat="36.25401" lon="30.40647">
        <ele>29.4</ele>
      </trkpt>
      <trkpt lat="36.25389" lon="30.40644">
        <ele>29</ele>
      </trkpt>
      <trkpt lat="36.25384" lon="30.4064">
        <ele>28.8</ele>
      </trkpt>
      <trkpt lat="36.25376" lon="30.4064">
        <ele>28.5</ele>
      </trkpt>
      <trkpt lat="36.25368" lon="30.4065">
        <ele>28.2</ele>
      </trkpt>
      <trkpt lat="36.25354" lon="30.40661">
        <ele>27.7</ele>
      </trkpt>
      <trkpt lat="36.25352" lon="30.40676">
        <ele>29.3</ele>
      </trkpt>
      <trkpt lat="36.25325" lon="30.40692">
        <ele>31.7</ele>
      </trkpt>
      <trkpt lat="36.25319" lon="30.40702">
        <ele>33.5</ele>
      </trkpt>
      <trkpt lat="36.25308" lon="30.40706">
        <ele>34</ele>
      </trkpt>
      <trkpt lat="36.25261" lon="30.40743">
        <ele>39.1</ele>
      </trkpt>
      <trkpt lat="36.25253" lon="30.40742">
        <ele>38.8</ele>
      </trkpt>
      <trkpt lat="36.25239" lon="30.40751">
        <ele>41.2</ele>
      </trkpt>
      <trkpt lat="36.25233" lon="30.40751">
        <ele>41.8</ele>
      </trkpt>
      <trkpt lat="36.25216" lon="30.40754">
        <ele>43.9</ele>
      </trkpt>
      <trkpt lat="36.25201" lon="30.40748">
        <ele>43.9</ele>
      </trkpt>
      <trkpt lat="36.25194" lon="30.40753">
        <ele>45.5</ele>
      </trkpt>
      <trkpt lat="36.25172" lon="30.40732">
        <ele>44.3</ele>
      </trkpt>
      <trkpt lat="36.25151" lon="30.40712">
        <ele>43.4</ele>
      </trkpt>
      <trkpt lat="36.25107" lon="30.40683">
        <ele>44</ele>
      </trkpt>
      <trkpt lat="36.25048" lon="30.40653">
        <ele>46.2</ele>
      </trkpt>
      <trkpt lat="36.24857" lon="30.40568">
        <ele>57</ele>
      </trkpt>
      <trkpt lat="36.24775" lon="30.40538">
        <ele>56.7</ele>
      </trkpt>
      <trkpt lat="36.24747" lon="30.40533">
        <ele>56</ele>
      </trkpt>
      <trkpt lat="36.24717" lon="30.40542">
        <ele>53.8</ele>
      </trkpt>
      <trkpt lat="36.24654" lon="30.40562">
        <ele>50.7</ele>
      </trkpt>
      <trkpt lat="36.2463" lon="30.40583">
        <ele>50.7</ele>
      </trkpt>
      <trkpt lat="36.24603" lon="30.40602">
        <ele>52.6</ele>
      </trkpt>
      <trkpt lat="36.24576" lon="30.40602">
        <ele>52.7</ele>
      </trkpt>
      <trkpt lat="36.24535" lon="30.4059">
        <ele>54</ele>
      </trkpt>
      <trkpt lat="36.24504" lon="30.40581">
        <ele>55.4</ele>
      </trkpt>
      <trkpt lat="36.24478" lon="30.4059">
        <ele>56.1</ele>
      </trkpt>
      <trkpt lat="36.24461" lon="30.406">
        <ele>56.6</ele>
      </trkpt>
      <trkpt lat="36.24428" lon="30.40627">
        <ele>59</ele>
      </trkpt>
      <trkpt lat="36.24403" lon="30.40639">
        <ele>58.9</ele>
      </trkpt>
      <trkpt lat="36.24392" lon="30.40637">
        <ele>57.4</ele>
      </trkpt>
      <trkpt lat="36.24378" lon="30.40642">
        <ele>56.9</ele>
      </trkpt>
      <trkpt lat="36.24354" lon="30.40673">
        <ele>62.5</ele>
      </trkpt>
      <trkpt lat="36.243" lon="30.40744">
        <ele>75.8</ele>
      </trkpt>
      <trkpt lat="36.24254" lon="30.40773">
        <ele>80.1</ele>
      </trkpt>
      <trkpt lat="36.24212" lon="30.40782">
        <ele>74.9</ele>
      </trkpt>
      <trkpt lat="36.24123" lon="30.40831">
        <ele>92.7</ele>
      </trkpt>
      <trkpt lat="36.24019" lon="30.40854">
        <ele>103.2</ele>
      </trkpt>
      <trkpt lat="36.23922" lon="30.40842">
        <ele>100.6</ele>
      </trkpt>
      <trkpt lat="36.23891" lon="30.40849">
        <ele>97.6</ele>
      </trkpt>
      <trkpt lat="36.23856" lon="30.40878">
        <ele>106.3</ele>
      </trkpt>
      <trkpt lat="36.23785" lon="30.4089">
        <ele>101.4</ele>
      </trkpt>
      <trkpt lat="36.23703" lon="30.40883">
        <ele>100.4</ele>
      </trkpt>
      <trkpt lat="36.23625" lon="30.40846">
        <ele>103.3</ele>
      </trkpt>
      <trkpt lat="36.23604" lon="30.40837">
        <ele>107.3</ele>
      </trkpt>
      <trkpt lat="36.23584" lon="30.40818">
        <ele>105.9</ele>
      </trkpt>
      <trkpt lat="36.23576" lon="30.40797">
        <ele>95.7</ele>
      </trkpt>
      <trkpt lat="36.23562" lon="30.40753">
        <ele>74.8</ele>
      </trkpt>
      <trkpt lat="36.23545" lon="30.40737">
        <ele>73.7</ele>
      </trkpt>
      <trkpt lat="36.2353" lon="30.40734">
        <ele>76.9</ele>
      </trkpt>
      <trkpt lat="36.23504" lon="30.40734">
        <ele>84.3</ele>
      </trkpt>
      <trkpt lat="36.23457" lon="30.40722">
        <ele>87.9</ele>
      </trkpt>
      <trkpt lat="36.23456" lon="30.40671">
        <ele>68.5</ele>
      </trkpt>
      <trkpt lat="36.23374" lon="30.40645">
        <ele>68.2</ele>
      </trkpt>
      <trkpt lat="36.23263" lon="30.40656">
        <ele>72.7</ele>
      </trkpt>
      <trkpt lat="36.23218" lon="30.40641">
        <ele>68.4</ele>
      </trkpt>
      <trkpt lat="36.23152" lon="30.40633">
        <ele>64.4</ele>
      </trkpt>
      <trkpt lat="36.23087" lon="30.40627">
        <ele>58.3</ele>
      </trkpt>
      <trkpt lat="36.23056" lon="30.40628">
        <ele>58.4</ele>
      </trkpt>
      <trkpt lat="36.23027" lon="30.40626">
        <ele>57.3</ele>
      </trkpt>
      <trkpt lat="36.2292" lon="30.40649">
        <ele>67.3</ele>
      </trkpt>
      <trkpt lat="36.22707" lon="30.40619">
        <ele>73.4</ele>
      </trkpt>
      <trkpt lat="36.22652" lon="30.40617">
        <ele>80.8</ele>
      </trkpt>
      <trkpt lat="36.22586" lon="30.40602">
        <ele>85.1</ele>
      </trkpt>
      <trkpt lat="36.22521" lon="30.40605">
        <ele>92.6</ele>
      </trkpt>
      <trkpt lat="36.22499" lon="30.40611">
        <ele>97.4</ele>
      </trkpt>
      <trkpt lat="36.2245" lon="30.40604">
        <ele>93.3</ele>
      </trkpt>
      <trkpt lat="36.22384" lon="30.4062">
        <ele>99.7</ele>
      </trkpt>
      <trkpt lat="36.22343" lon="30.40614">
        <ele>95.1</ele>
      </trkpt>
      <trkpt lat="36.22293" lon="30.40621">
        <ele>96.5</ele>
      </trkpt>
      <trkpt lat="36.2228" lon="30.40618">
        <ele>94.5</ele>
      </trkpt>
      <trkpt lat="36.22246" lon="30.40628">
        <ele>98.4</ele>
      </trkpt>
      <trkpt lat="36.22201" lon="30.40649">
        <ele>108.5</ele>
      </trkpt>
      <trkpt lat="36.22176" lon="30.40649">
        <ele>108.3</ele>
      </trkpt>
      <trkpt lat="36.22138" lon="30.4066">
        <ele>115.5</ele>
      </trkpt>
      <trkpt lat="36.22067" lon="30.40661">
        <ele>120.8</ele>
      </trkpt>
      <trkpt lat="36.22004" lon="30.40681">
        <ele>130.7</ele>
      </trkpt>
      <trkpt lat="36.21899" lon="30.40738">
        <ele>143.1</ele>
      </trkpt>
      <trkpt lat="36.21809" lon="30.40823">
        <ele>154.8</ele>
      </trkpt>
      <trkpt lat="36.21782" lon="30.40859">
        <ele>158.3</ele>
      </trkpt>
      <trkpt lat="36.21772" lon="30.40879">
        <ele>160.1</ele>
      </trkpt>
      <trkpt lat="36.21764" lon="30.40898">
        <ele>161.9</ele>
      </trkpt>
      <trkpt lat="36.21769" lon="30.40909">
        <ele>165.7</ele>
      </trkpt>
      <trkpt lat="36.21792" lon="30.40897">
        <ele>169.9</ele>
      </trkpt>
      <trkpt lat="36.21812" lon="30.40894">
        <ele>175.1</ele>
      </trkpt>
      <trkpt lat="36.21864" lon="30.40873">
        <ele>183.7</ele>
      </trkpt>
      <trkpt lat="36.21905" lon="30.40866">
        <ele>192.4</ele>
      </trkpt>
      <trkpt lat="36.21927" lon="30.40864">
        <ele>197</ele>
      </trkpt>
      <trkpt lat="36.21939" lon="30.4086">
        <ele>198.3</ele>
      </trkpt>
      <trkpt lat="36.21947" lon="30.40864">
        <ele>201.5</ele>
      </trkpt>
      <trkpt lat="36.21935" lon="30.40924">
        <ele>220.3</ele>
      </trkpt>
      <trkpt lat="36.21931" lon="30.40943">
        <ele>220.1</ele>
      </trkpt>
      <trkpt lat="36.21927" lon="30.40961">
        <ele>219.9</ele>
      </trkpt>
      <trkpt lat="36.21933" lon="30.40966">
        <ele>221.8</ele>
      </trkpt>
      <trkpt lat="36.21939" lon="30.40967">
        <ele>223.6</ele>
      </trkpt>
      <trkpt lat="36.21952" lon="30.40965">
        <ele>227.2</ele>
      </trkpt>
      <trkpt lat="36.21965" lon="30.40977">
        <ele>231.6</ele>
      </trkpt>
      <trkpt lat="36.21975" lon="30.40967">
        <ele>233.5</ele>
      </trkpt>
      <trkpt lat="36.21993" lon="30.40975">
        <ele>239.1</ele>
      </trkpt>
      <trkpt lat="36.21993" lon="30.40986">
        <ele>240</ele>
      </trkpt>
      <trkpt lat="36.22007" lon="30.40976">
        <ele>243.3</ele>
      </trkpt>
      <trkpt lat="36.22015" lon="30.40981">
        <ele>246.3</ele>
      </trkpt>
      <trkpt lat="36.22028" lon="30.40973">
        <ele>249.6</ele>
      </trkpt>
      <trkpt lat="36.22031" lon="30.4098">
        <ele>251.5</ele>
      </trkpt>
      <trkpt lat="36.22042" lon="30.40979">
        <ele>254.7</ele>
      </trkpt>
      <trkpt lat="36.22057" lon="30.40989">
        <ele>261.1</ele>
      </trkpt>
      <trkpt lat="36.22078" lon="30.40991">
        <ele>268.3</ele>
      </trkpt>
      <trkpt lat="36.22104" lon="30.40987">
        <ele>275.5</ele>
      </trkpt>
      <trkpt lat="36.22131" lon="30.40992">
        <ele>284.8</ele>
      </trkpt>
      <trkpt lat="36.22153" lon="30.41003">
        <ele>293.3</ele>
      </trkpt>
      <trkpt lat="36.22161" lon="30.41004">
        <ele>295.4</ele>
      </trkpt>
      <trkpt lat="36.22182" lon="30.41008">
        <ele>302.2</ele>
      </trkpt>
      <trkpt lat="36.22192" lon="30.41002">
        <ele>306.7</ele>
      </trkpt>
      <trkpt lat="36.22209" lon="30.41009">
        <ele>311.2</ele>
      </trkpt>
      <trkpt lat="36.22229" lon="30.41024">
        <ele>315.1</ele>
      </trkpt>
      <trkpt lat="36.22259" lon="30.41047">
        <ele>320.2</ele>
      </trkpt>
      <trkpt lat="36.22284" lon="30.41065">
        <ele>327.7</ele>
      </trkpt>
      <trkpt lat="36.22303" lon="30.41075">
        <ele>334.6</ele>
      </trkpt>
      <trkpt lat="36.22318" lon="30.4109">
        <ele>339.5</ele>
      </trkpt>
      <trkpt lat="36.22341" lon="30.41095">
        <ele>348.9</ele>
      </trkpt>
      <trkpt lat="36.22341" lon="30.41103">
        <ele>347.9</ele>
      </trkpt>
      <trkpt lat="36.22356" lon="30.41107">
        <ele>353.1</ele>
      </trkpt>
      <trkpt lat="36.22359" lon="30.41124">
        <ele>352</ele>
      </trkpt>
      <trkpt lat="36.22366" lon="30.41136">
        <ele>353.2</ele>
      </trkpt>
      <trkpt lat="36.22373" lon="30.41135">
        <ele>356.4</ele>
      </trkpt>
      <trkpt lat="36.22394" lon="30.41157">
        <ele>363.4</ele>
      </trkpt>
      <trkpt lat="36.22403" lon="30.41175">
        <ele>365.1</ele>
      </trkpt>
      <trkpt lat="36.22424" lon="30.41192">
        <ele>370.7</ele>
      </trkpt>
      <trkpt lat="36.22428" lon="30.4119">
        <ele>372.6</ele>
      </trkpt>
      <trkpt lat="36.22434" lon="30.41201">
        <ele>372.5</ele>
      </trkpt>
      <trkpt lat="36.22442" lon="30.41202">
        <ele>375.3</ele>
      </trkpt>
      <trkpt lat="36.22448" lon="30.41196">
        <ele>378.4</ele>
      </trkpt>
      <trkpt lat="36.22453" lon="30.41196">
        <ele>380.4</ele>
      </trkpt>
      <trkpt lat="36.22461" lon="30.41196">
        <ele>383</ele>
      </trkpt>
      <trkpt lat="36.22479" lon="30.41203">
        <ele>388.1</ele>
      </trkpt>
      <trkpt lat="36.22487" lon="30.41199">
        <ele>391.9</ele>
      </trkpt>
      <trkpt lat="36.22503" lon="30.41198">
        <ele>396.9</ele>
      </trkpt>
      <trkpt lat="36.22515" lon="30.41196">
        <ele>398.8</ele>
      </trkpt>
      <trkpt lat="36.22555" lon="30.41229">
        <ele>401.3</ele>
      </trkpt>
      <trkpt lat="36.22572" lon="30.41244">
        <ele>403.1</ele>
      </trkpt>
      <trkpt lat="36.22589" lon="30.41245">
        <ele>405.7</ele>
      </trkpt>
      <trkpt lat="36.226" lon="30.41248">
        <ele>406.5</ele>
      </trkpt>
      <trkpt lat="36.22603" lon="30.41245">
        <ele>406.8</ele>
      </trkpt>
      <trkpt lat="36.2261" lon="30.4125">
        <ele>407.6</ele>
      </trkpt>
      <trkpt lat="36.22613" lon="30.41256">
        <ele>406.3</ele>
      </trkpt>
      <trkpt lat="36.22626" lon="30.4126">
        <ele>407.2</ele>
      </trkpt>
      <trkpt lat="36.22646" lon="30.41254">
        <ele>410.5</ele>
      </trkpt>
      <trkpt lat="36.22654" lon="30.4125">
        <ele>411.7</ele>
      </trkpt>
      <trkpt lat="36.22662" lon="30.41252">
        <ele>412.3</ele>
      </trkpt>
      <trkpt lat="36.22669" lon="30.41258">
        <ele>412.2</ele>
      </trkpt>
      <trkpt lat="36.22676" lon="30.41273">
        <ele>410.9</ele>
      </trkpt>
      <trkpt lat="36.22678" lon="30.41297">
        <ele>409.3</ele>
      </trkpt>
      <trkpt lat="36.22682" lon="30.41321">
        <ele>408.2</ele>
      </trkpt>
      <trkpt lat="36.22678" lon="30.41332">
        <ele>406.8</ele>
      </trkpt>
      <trkpt lat="36.2268" lon="30.41347">
        <ele>402.2</ele>
      </trkpt>
      <trkpt lat="36.22686" lon="30.41357">
        <ele>400.2</ele>
      </trkpt>
      <trkpt lat="36.22713" lon="30.41383">
        <ele>398.6</ele>
      </trkpt>
      <trkpt lat="36.22719" lon="30.41393">
        <ele>397.7</ele>
      </trkpt>
      <trkpt lat="36.22717" lon="30.41402">
        <ele>394.6</ele>
      </trkpt>
      <trkpt lat="36.22736" lon="30.41418">
        <ele>396.9</ele>
      </trkpt>
      <trkpt lat="36.22745" lon="30.41425">
        <ele>397.9</ele>
      </trkpt>
      <trkpt lat="36.22751" lon="30.41438">
        <ele>396.5</ele>
      </trkpt>
      <trkpt lat="36.22757" lon="30.41454">
        <ele>394.3</ele>
      </trkpt>
      <trkpt lat="36.22774" lon="30.41475">
        <ele>395.1</ele>
      </trkpt>
      <trkpt lat="36.22781" lon="30.41477">
        <ele>397.2</ele>
      </trkpt>
      <trkpt lat="36.22818" lon="30.41511">
        <ele>401.6</ele>
      </trkpt>
      <trkpt lat="36.22839" lon="30.41528">
        <ele>403.4</ele>
      </trkpt>
      <trkpt lat="36.22865" lon="30.4155">
        <ele>403.1</ele>
      </trkpt>
      <trkpt lat="36.22877" lon="30.41563">
        <ele>401.5</ele>
      </trkpt>
      <trkpt lat="36.22891" lon="30.41574">
        <ele>401.2</ele>
      </trkpt>
      <trkpt lat="36.22898" lon="30.41567">
        <ele>405.4</ele>
      </trkpt>
      <trkpt lat="36.22905" lon="30.41566">
        <ele>407.4</ele>
      </trkpt>
      <trkpt lat="36.22927" lon="30.41584">
        <ele>405.7</ele>
      </trkpt>
      <trkpt lat="36.22956" lon="30.41594">
        <ele>407.3</ele>
      </trkpt>
      <trkpt lat="36.22987" lon="30.41615">
        <ele>405.2</ele>
      </trkpt>
      <trkpt lat="36.22996" lon="30.41637">
        <ele>398.8</ele>
      </trkpt>
      <trkpt lat="36.23014" lon="30.41658">
        <ele>392.4</ele>
      </trkpt>
      <trkpt lat="36.23015" lon="30.41675">
        <ele>385.2</ele>
      </trkpt>
      <trkpt lat="36.23022" lon="30.41682">
        <ele>382</ele>
      </trkpt>
      <trkpt lat="36.23027" lon="30.41694">
        <ele>376.1</ele>
      </trkpt>
      <trkpt lat="36.23043" lon="30.41698">
        <ele>374.6</ele>
      </trkpt>
      <trkpt lat="36.23052" lon="30.41694">
        <ele>377.1</ele>
      </trkpt>
      <trkpt lat="36.23063" lon="30.41698">
        <ele>375.5</ele>
      </trkpt>
      <trkpt lat="36.23068" lon="30.41709">
        <ele>370.7</ele>
      </trkpt>
      <trkpt lat="36.23083" lon="30.4171">
        <ele>371.2</ele>
      </trkpt>
      <trkpt lat="36.23095" lon="30.4172">
        <ele>365.1</ele>
      </trkpt>
      <trkpt lat="36.23108" lon="30.41723">
        <ele>362.1</ele>
      </trkpt>
      <trkpt lat="36.23106" lon="30.4173">
        <ele>359.8</ele>
      </trkpt>
      <trkpt lat="36.23122" lon="30.41738">
        <ele>355.7</ele>
      </trkpt>
      <trkpt lat="36.23134" lon="30.41733">
        <ele>356.2</ele>
      </trkpt>
      <trkpt lat="36.23145" lon="30.4173">
        <ele>355.8</ele>
      </trkpt>
      <trkpt lat="36.23175" lon="30.41737">
        <ele>348.3</ele>
      </trkpt>
      <trkpt lat="36.23193" lon="30.41743">
        <ele>336.6</ele>
      </trkpt>
      <trkpt lat="36.23201" lon="30.4175">
        <ele>328.1</ele>
      </trkpt>
      <trkpt lat="36.23205" lon="30.41744">
        <ele>328.8</ele>
      </trkpt>
      <trkpt lat="36.23216" lon="30.41745">
        <ele>321.2</ele>
      </trkpt>
      <trkpt lat="36.23219" lon="30.41757">
        <ele>313.4</ele>
      </trkpt>
      <trkpt lat="36.23226" lon="30.41749">
        <ele>312.2</ele>
      </trkpt>
      <trkpt lat="36.23236" lon="30.41747">
        <ele>307.9</ele>
      </trkpt>
      <trkpt lat="36.23251" lon="30.41755">
        <ele>294.9</ele>
      </trkpt>
      <trkpt lat="36.23267" lon="30.4178">
        <ele>288.6</ele>
      </trkpt>
      <trkpt lat="36.23276" lon="30.41794">
        <ele>284.7</ele>
      </trkpt>
      <trkpt lat="36.23289" lon="30.41793">
        <ele>284.8</ele>
      </trkpt>
      <trkpt lat="36.23298" lon="30.41811">
        <ele>279.5</ele>
      </trkpt>
      <trkpt lat="36.23317" lon="30.41829">
        <ele>273.3</ele>
      </trkpt>
      <trkpt lat="36.23338" lon="30.41848">
        <ele>267.1</ele>
      </trkpt>
      <trkpt lat="36.23364" lon="30.41859">
        <ele>267.4</ele>
      </trkpt>
      <trkpt lat="36.23383" lon="30.41878">
        <ele>264.8</ele>
      </trkpt>
      <trkpt lat="36.23401" lon="30.41899">
        <ele>261.7</ele>
      </trkpt>
      <trkpt lat="36.23408" lon="30.41925">
        <ele>256.7</ele>
      </trkpt>
      <trkpt lat="36.23415" lon="30.41957">
        <ele>251.5</ele>
      </trkpt>
      <trkpt lat="36.23438" lon="30.41981">
        <ele>249.5</ele>
      </trkpt>
      <trkpt lat="36.23468" lon="30.42003">
        <ele>247.4</ele>
      </trkpt>
      <trkpt lat="36.23483" lon="30.42011">
        <ele>246.9</ele>
      </trkpt>
      <trkpt lat="36.23545" lon="30.42028">
        <ele>250.4</ele>
      </trkpt>
      <trkpt lat="36.2355" lon="30.42039">
        <ele>248</ele>
      </trkpt>
      <trkpt lat="36.23561" lon="30.42046">
        <ele>246.9</ele>
      </trkpt>
      <trkpt lat="36.23572" lon="30.42064">
        <ele>242.3</ele>
      </trkpt>
      <trkpt lat="36.23589" lon="30.42084">
        <ele>238.6</ele>
      </trkpt>
      <trkpt lat="36.23609" lon="30.4212">
        <ele>239.1</ele>
      </trkpt>
      <trkpt lat="36.2363" lon="30.42149">
        <ele>239.2</ele>
      </trkpt>
      <trkpt lat="36.23644" lon="30.42174">
        <ele>236.8</ele>
      </trkpt>
      <trkpt lat="36.23692" lon="30.42221">
        <ele>235.1</ele>
      </trkpt>
      <trkpt lat="36.23727" lon="30.42242">
        <ele>236.1</ele>
      </trkpt>
      <trkpt lat="36.23749" lon="30.42273">
        <ele>233.4</ele>
      </trkpt>
      <trkpt lat="36.23784" lon="30.42301">
        <ele>232.7</ele>
      </trkpt>
      <trkpt lat="36.23821" lon="30.42322">
        <ele>233.1</ele>
      </trkpt>
      <trkpt lat="36.23827" lon="30.42336">
        <ele>230.9</ele>
      </trkpt>
      <trkpt lat="36.23845" lon="30.4236">
        <ele>229.6</ele>
      </trkpt>
      <trkpt lat="36.23869" lon="30.42367">
        <ele>230.1</ele>
      </trkpt>
      <trkpt lat="36.2388" lon="30.42382">
        <ele>227.5</ele>
      </trkpt>
      <trkpt lat="36.239" lon="30.424">
        <ele>223.8</ele>
      </trkpt>
      <trkpt lat="36.23925" lon="30.42412">
        <ele>221</ele>
      </trkpt>
      <trkpt lat="36.23947" lon="30.42417">
        <ele>221.5</ele>
      </trkpt>
      <trkpt lat="36.23973" lon="30.42433">
        <ele>221</ele>
      </trkpt>
      <trkpt lat="36.24012" lon="30.42454">
        <ele>219.9</ele>
      </trkpt>
      <trkpt lat="36.24041" lon="30.42492">
        <ele>215.6</ele>
      </trkpt>
      <trkpt lat="36.2406" lon="30.42522">
        <ele>212.9</ele>
      </trkpt>
      <trkpt lat="36.2407" lon="30.42562">
        <ele>207.1</ele>
      </trkpt>
      <trkpt lat="36.24071" lon="30.42563">
        <ele>207.1</ele>
      </trkpt>
      <trkpt lat="36.24076" lon="30.4259">
        <ele>202.8</ele>
      </trkpt>
      <trkpt lat="36.24085" lon="30.42619">
        <ele>199.2</ele>
      </trkpt>
      <trkpt lat="36.24076" lon="30.42643">
        <ele>195.3</ele>
      </trkpt>
      <trkpt lat="36.24067" lon="30.42653">
        <ele>193.7</ele>
      </trkpt>
      <trkpt lat="36.2406" lon="30.42671">
        <ele>191.2</ele>
      </trkpt>
      <trkpt lat="36.24061" lon="30.42675">
        <ele>190.8</ele>
      </trkpt>
      <trkpt lat="36.24066" lon="30.42683">
        <ele>189.8</ele>
      </trkpt>
      <trkpt lat="36.24077" lon="30.42677">
        <ele>190.7</ele>
      </trkpt>
      <trkpt lat="36.24093" lon="30.42676">
        <ele>191.9</ele>
      </trkpt>
      <trkpt lat="36.24107" lon="30.42681">
        <ele>192.7</ele>
      </trkpt>
      <trkpt lat="36.24123" lon="30.42681">
        <ele>194.4</ele>
      </trkpt>
      <trkpt lat="36.24137" lon="30.42684">
        <ele>195.4</ele>
      </trkpt>
      <trkpt lat="36.24157" lon="30.42695">
        <ele>196.6</ele>
      </trkpt>
      <trkpt lat="36.24175" lon="30.42707">
        <ele>199</ele>
      </trkpt>
      <trkpt lat="36.24184" lon="30.42719">
        <ele>200.6</ele>
      </trkpt>
      <trkpt lat="36.24204" lon="30.4276">
        <ele>201.7</ele>
      </trkpt>
      <trkpt lat="36.24207" lon="30.42778">
        <ele>200.1</ele>
      </trkpt>
      <trkpt lat="36.24227" lon="30.42799">
        <ele>202.5</ele>
      </trkpt>
      <trkpt lat="36.24234" lon="30.42828">
        <ele>200.1</ele>
      </trkpt>
      <trkpt lat="36.24255" lon="30.4285">
        <ele>200.1</ele>
      </trkpt>
      <trkpt lat="36.24266" lon="30.4287">
        <ele>198.2</ele>
      </trkpt>
      <trkpt lat="36.24275" lon="30.42876">
        <ele>200</ele>
      </trkpt>
      <trkpt lat="36.24282" lon="30.4289">
        <ele>198.7</ele>
      </trkpt>
      <trkpt lat="36.24293" lon="30.42888">
        <ele>203.3</ele>
      </trkpt>
      <trkpt lat="36.24309" lon="30.42903">
        <ele>205.4</ele>
      </trkpt>
      <trkpt lat="36.2432" lon="30.42931">
        <ele>204.8</ele>
      </trkpt>
      <trkpt lat="36.24322" lon="30.42941">
        <ele>204.2</ele>
      </trkpt>
      <trkpt lat="36.24333" lon="30.42968">
        <ele>205.9</ele>
      </trkpt>
      <trkpt lat="36.24326" lon="30.42987">
        <ele>201.6</ele>
      </trkpt>
      <trkpt lat="36.24333" lon="30.4302">
        <ele>200.5</ele>
      </trkpt>
      <trkpt lat="36.24347" lon="30.43033">
        <ele>205.5</ele>
      </trkpt>
      <trkpt lat="36.24346" lon="30.43049">
        <ele>202.8</ele>
      </trkpt>
      <trkpt lat="36.2435" lon="30.43054">
        <ele>203.9</ele>
      </trkpt>
      <trkpt lat="36.24359" lon="30.43052">
        <ele>208.3</ele>
      </trkpt>
      <trkpt lat="36.24368" lon="30.43059">
        <ele>211.2</ele>
      </trkpt>
      <trkpt lat="36.24377" lon="30.43079">
        <ele>212.1</ele>
      </trkpt>
      <trkpt lat="36.24398" lon="30.43093">
        <ele>216.6</ele>
      </trkpt>
      <trkpt lat="36.24403" lon="30.43112">
        <ele>211.9</ele>
      </trkpt>
      <trkpt lat="36.24413" lon="30.43123">
        <ele>211.7</ele>
      </trkpt>
      <trkpt lat="36.24444" lon="30.43125">
        <ele>225.6</ele>
      </trkpt>
      <trkpt lat="36.2445" lon="30.43151">
        <ele>219.5</ele>
      </trkpt>
      <trkpt lat="36.24456" lon="30.43146">
        <ele>224.1</ele>
      </trkpt>
      <trkpt lat="36.24465" lon="30.43162">
        <ele>222.7</ele>
      </trkpt>
      <trkpt lat="36.24485" lon="30.43165">
        <ele>232.2</ele>
      </trkpt>
      <trkpt lat="36.24496" lon="30.43189">
        <ele>227.5</ele>
      </trkpt>
      <trkpt lat="36.24512" lon="30.4319">
        <ele>235.6</ele>
      </trkpt>
      <trkpt lat="36.24513" lon="30.43205">
        <ele>229.6</ele>
      </trkpt>
      <trkpt lat="36.24508" lon="30.43233">
        <ele>214.9</ele>
      </trkpt>
      <trkpt lat="36.24515" lon="30.43248">
        <ele>211.7</ele>
      </trkpt>
      <trkpt lat="36.24531" lon="30.43253">
        <ele>217.9</ele>
      </trkpt>
      <trkpt lat="36.24533" lon="30.43264">
        <ele>217.1</ele>
      </trkpt>
      <trkpt lat="36.24559" lon="30.4328">
        <ele>225</ele>
      </trkpt>
      <trkpt lat="36.24574" lon="30.4328">
        <ele>231.4</ele>
      </trkpt>
      <trkpt lat="36.24585" lon="30.43276">
        <ele>237.1</ele>
      </trkpt>
      <trkpt lat="36.24586" lon="30.43284">
        <ele>235.6</ele>
      </trkpt>
      <trkpt lat="36.24582" lon="30.43286">
        <ele>233.5</ele>
      </trkpt>
      <trkpt lat="36.24592" lon="30.43313">
        <ele>230.8</ele>
      </trkpt>
      <trkpt lat="36.24607" lon="30.43327">
        <ele>232.9</ele>
      </trkpt>
      <trkpt lat="36.24608" lon="30.43346">
        <ele>230.8</ele>
      </trkpt>
      <trkpt lat="36.2461" lon="30.4336">
        <ele>230.4</ele>
      </trkpt>
      <trkpt lat="36.24616" lon="30.43371">
        <ele>231.7</ele>
      </trkpt>
      <trkpt lat="36.24637" lon="30.4339">
        <ele>237</ele>
      </trkpt>
      <trkpt lat="36.24641" lon="30.43407">
        <ele>236.3</ele>
      </trkpt>
      <trkpt lat="36.24662" lon="30.43412">
        <ele>242.1</ele>
      </trkpt>
      <trkpt lat="36.24668" lon="30.43425">
        <ele>241.3</ele>
      </trkpt>
      <trkpt lat="36.2469" lon="30.43436">
        <ele>242.9</ele>
      </trkpt>
      <trkpt lat="36.24696" lon="30.43447">
        <ele>241.5</ele>
      </trkpt>
      <trkpt lat="36.2471" lon="30.43444">
        <ele>244.9</ele>
      </trkpt>
      <trkpt lat="36.24729" lon="30.43441">
        <ele>249.2</ele>
      </trkpt>
      <trkpt lat="36.24741" lon="30.43452">
        <ele>248.7</ele>
      </trkpt>
      <trkpt lat="36.24766" lon="30.4346">
        <ele>251.1</ele>
      </trkpt>
      <trkpt lat="36.24791" lon="30.4347">
        <ele>252</ele>
      </trkpt>
      <trkpt lat="36.24796" lon="30.43483">
        <ele>248.5</ele>
      </trkpt>
      <trkpt lat="36.24817" lon="30.43495">
        <ele>247.1</ele>
      </trkpt>
      <trkpt lat="36.24827" lon="30.43505">
        <ele>244.9</ele>
      </trkpt>
      <trkpt lat="36.2484" lon="30.43518">
        <ele>243.7</ele>
      </trkpt>
      <trkpt lat="36.24844" lon="30.43535">
        <ele>239.8</ele>
      </trkpt>
      <trkpt lat="36.24853" lon="30.43536">
        <ele>242.2</ele>
      </trkpt>
      <trkpt lat="36.24866" lon="30.43553">
        <ele>241.5</ele>
      </trkpt>
      <trkpt lat="36.24869" lon="30.43568">
        <ele>238.2</ele>
      </trkpt>
      <trkpt lat="36.24883" lon="30.43587">
        <ele>237.8</ele>
      </trkpt>
      <trkpt lat="36.24909" lon="30.4359">
        <ele>245.5</ele>
      </trkpt>
      <trkpt lat="36.24915" lon="30.43597">
        <ele>246.6</ele>
      </trkpt>
      <trkpt lat="36.24915" lon="30.43631">
        <ele>241.8</ele>
      </trkpt>
      <trkpt lat="36.24917" lon="30.43672">
        <ele>236.1</ele>
      </trkpt>
      <trkpt lat="36.24919" lon="30.43684">
        <ele>233.4</ele>
      </trkpt>
      <trkpt lat="36.24925" lon="30.43695">
        <ele>232.9</ele>
      </trkpt>
      <trkpt lat="36.24937" lon="30.43709">
        <ele>234.8</ele>
      </trkpt>
      <trkpt lat="36.24947" lon="30.4374">
        <ele>232</ele>
      </trkpt>
      <trkpt lat="36.24942" lon="30.43758">
        <ele>224.9</ele>
      </trkpt>
      <trkpt lat="36.24944" lon="30.43783">
        <ele>223</ele>
      </trkpt>
      <trkpt lat="36.24929" lon="30.438">
        <ele>212.8</ele>
      </trkpt>
      <trkpt lat="36.24932" lon="30.43826">
        <ele>211.3</ele>
      </trkpt>
      <trkpt lat="36.24975" lon="30.4389">
        <ele>218.9</ele>
      </trkpt>
      <trkpt lat="36.25" lon="30.43899">
        <ele>227.6</ele>
      </trkpt>
      <trkpt lat="36.25012" lon="30.43911">
        <ele>226</ele>
      </trkpt>
      <trkpt lat="36.25032" lon="30.43914">
        <ele>227.5</ele>
      </trkpt>
      <trkpt lat="36.25062" lon="30.43938">
        <ele>224.3</ele>
      </trkpt>
      <trkpt lat="36.25071" lon="30.43957">
        <ele>219.1</ele>
      </trkpt>
      <trkpt lat="36.25073" lon="30.43968">
        <ele>215.7</ele>
      </trkpt>
      <trkpt lat="36.2509" lon="30.43978">
        <ele>210.7</ele>
      </trkpt>
      <trkpt lat="36.25097" lon="30.43986">
        <ele>206</ele>
      </trkpt>
      <trkpt lat="36.25096" lon="30.43994">
        <ele>203.6</ele>
      </trkpt>
      <trkpt lat="36.2508" lon="30.44014">
        <ele>200.1</ele>
      </trkpt>
      <trkpt lat="36.25065" lon="30.44031">
        <ele>194.1</ele>
      </trkpt>
      <trkpt lat="36.25069" lon="30.44036">
        <ele>192.4</ele>
      </trkpt>
      <trkpt lat="36.25083" lon="30.44034">
        <ele>192.5</ele>
      </trkpt>
      <trkpt lat="36.25095" lon="30.44034">
        <ele>188.7</ele>
      </trkpt>
      <trkpt lat="36.2511" lon="30.44044">
        <ele>180.5</ele>
      </trkpt>
      <trkpt lat="36.25117" lon="30.44048">
        <ele>176.7</ele>
      </trkpt>
      <trkpt lat="36.25126" lon="30.44048">
        <ele>173.7</ele>
      </trkpt>
      <trkpt lat="36.25139" lon="30.44051">
        <ele>168.2</ele>
      </trkpt>
      <trkpt lat="36.25151" lon="30.44057">
        <ele>162.1</ele>
      </trkpt>
      <trkpt lat="36.25167" lon="30.44054">
        <ele>158.2</ele>
      </trkpt>
      <trkpt lat="36.25174" lon="30.44049">
        <ele>159.9</ele>
      </trkpt>
      <trkpt lat="36.25184" lon="30.4405">
        <ele>158.8</ele>
      </trkpt>
      <trkpt lat="36.25197" lon="30.44046">
        <ele>159.2</ele>
      </trkpt>
      <trkpt lat="36.25193" lon="30.44057">
        <ele>155.1</ele>
      </trkpt>
      <trkpt lat="36.2519" lon="30.44061">
        <ele>153.9</ele>
      </trkpt>
      <trkpt lat="36.25185" lon="30.44061">
        <ele>154.2</ele>
      </trkpt>
      <trkpt lat="36.25185" lon="30.44063">
        <ele>153.4</ele>
      </trkpt>
      <trkpt lat="36.25188" lon="30.44064">
        <ele>152.8</ele>
      </trkpt>
      <trkpt lat="36.25196" lon="30.44064">
        <ele>152.4</ele>
      </trkpt>
      <trkpt lat="36.25202" lon="30.44062">
        <ele>152.5</ele>
      </trkpt>
      <trkpt lat="36.25206" lon="30.4406">
        <ele>153.2</ele>
      </trkpt>
      <trkpt lat="36.25225" lon="30.44045">
        <ele>157.3</ele>
      </trkpt>
      <trkpt lat="36.25228" lon="30.44053">
        <ele>154.4</ele>
      </trkpt>
      <trkpt lat="36.25222" lon="30.4406">
        <ele>152.1</ele>
      </trkpt>
      <trkpt lat="36.25214" lon="30.44062">
        <ele>151.8</ele>
      </trkpt>
      <trkpt lat="36.25216" lon="30.44067">
        <ele>149.7</ele>
      </trkpt>
      <trkpt lat="36.25225" lon="30.44076">
        <ele>146</ele>
      </trkpt>
      <trkpt lat="36.25233" lon="30.44083">
        <ele>142.9</ele>
      </trkpt>
      <trkpt lat="36.25234" lon="30.44088">
        <ele>142</ele>
      </trkpt>
      <trkpt lat="36.25233" lon="30.441">
        <ele>139.8</ele>
      </trkpt>
      <trkpt lat="36.25237" lon="30.44099">
        <ele>139.9</ele>
      </trkpt>
      <trkpt lat="36.25238" lon="30.44086">
        <ele>142.1</ele>
      </trkpt>
      <trkpt lat="36.25244" lon="30.4408">
        <ele>143.5</ele>
      </trkpt>
      <trkpt lat="36.25248" lon="30.44076">
        <ele>144.7</ele>
      </trkpt>
      <trkpt lat="36.25245" lon="30.44092">
        <ele>140.8</ele>
      </trkpt>
      <trkpt lat="36.25242" lon="30.44112">
        <ele>137.5</ele>
      </trkpt>
      <trkpt lat="36.25232" lon="30.44122">
        <ele>135.6</ele>
      </trkpt>
      <trkpt lat="36.25226" lon="30.44135">
        <ele>133</ele>
      </trkpt>
      <trkpt lat="36.25218" lon="30.44156">
        <ele>128.1</ele>
      </trkpt>
      <trkpt lat="36.2521" lon="30.44164">
        <ele>125.7</ele>
      </trkpt>
      <trkpt lat="36.25212" lon="30.44176">
        <ele>123.7</ele>
      </trkpt>
      <trkpt lat="36.25207" lon="30.44193">
        <ele>120.1</ele>
      </trkpt>
      <trkpt lat="36.25211" lon="30.44197">
        <ele>120.2</ele>
      </trkpt>
      <trkpt lat="36.25207" lon="30.44207">
        <ele>117.6</ele>
      </trkpt>
      <trkpt lat="36.25216" lon="30.44219">
        <ele>117.6</ele>
      </trkpt>
      <trkpt lat="36.25218" lon="30.44242">
        <ele>114.6</ele>
      </trkpt>
      <trkpt lat="36.25216" lon="30.44259">
        <ele>111.9</ele>
      </trkpt>
      <trkpt lat="36.25207" lon="30.44294">
        <ele>105.4</ele>
      </trkpt>
      <trkpt lat="36.25223" lon="30.44315">
        <ele>108.2</ele>
      </trkpt>
      <trkpt lat="36.25238" lon="30.44332">
        <ele>110.7</ele>
      </trkpt>
      <trkpt lat="36.25263" lon="30.44369">
        <ele>111.3</ele>
      </trkpt>
      <trkpt lat="36.25263" lon="30.44384">
        <ele>108.5</ele>
      </trkpt>
      <trkpt lat="36.25283" lon="30.4442">
        <ele>106.3</ele>
      </trkpt>
      <trkpt lat="36.25306" lon="30.44439">
        <ele>107.5</ele>
      </trkpt>
      <trkpt lat="36.25313" lon="30.44467">
        <ele>100.5</ele>
      </trkpt>
      <trkpt lat="36.25327" lon="30.4448">
        <ele>99.9</ele>
      </trkpt>
      <trkpt lat="36.25338" lon="30.44483">
        <ele>101.9</ele>
      </trkpt>
      <trkpt lat="36.25354" lon="30.44491">
        <ele>103.7</ele>
      </trkpt>
      <trkpt lat="36.25371" lon="30.44497">
        <ele>105.9</ele>
      </trkpt>
      <trkpt lat="36.25381" lon="30.44498">
        <ele>108.1</ele>
      </trkpt>
      <trkpt lat="36.25387" lon="30.44517">
        <ele>105</ele>
      </trkpt>
      <trkpt lat="36.25391" lon="30.44535">
        <ele>102</ele>
      </trkpt>
      <trkpt lat="36.25428" lon="30.44567">
        <ele>104.7</ele>
      </trkpt>
      <trkpt lat="36.25445" lon="30.44594">
        <ele>103.2</ele>
      </trkpt>
      <trkpt lat="36.25459" lon="30.44591">
        <ele>106.9</ele>
      </trkpt>
      <trkpt lat="36.25474" lon="30.44607">
        <ele>107.2</ele>
      </trkpt>
      <trkpt lat="36.25492" lon="30.44616">
        <ele>109.3</ele>
      </trkpt>
      <trkpt lat="36.25553" lon="30.44618">
        <ele>122.3</ele>
      </trkpt>
      <trkpt lat="36.25577" lon="30.44618">
        <ele>127.6</ele>
      </trkpt>
      <trkpt lat="36.25586" lon="30.44622">
        <ele>128.5</ele>
      </trkpt>
      <trkpt lat="36.25602" lon="30.44635">
        <ele>128.2</ele>
      </trkpt>
      <trkpt lat="36.2563" lon="30.44653">
        <ele>128.4</ele>
      </trkpt>
      <trkpt lat="36.25646" lon="30.44656">
        <ele>130.8</ele>
      </trkpt>
      <trkpt lat="36.25675" lon="30.44668">
        <ele>132.7</ele>
      </trkpt>
      <trkpt lat="36.25689" lon="30.44662">
        <ele>138</ele>
      </trkpt>
      <trkpt lat="36.25698" lon="30.44671">
        <ele>137.7</ele>
      </trkpt>
      <trkpt lat="36.25712" lon="30.44669">
        <ele>141.5</ele>
      </trkpt>
      <trkpt lat="36.25716" lon="30.4466">
        <ele>145.4</ele>
      </trkpt>
      <trkpt lat="36.25761" lon="30.4465">
        <ele>160.8</ele>
      </trkpt>
      <trkpt lat="36.25774" lon="30.44653">
        <ele>163</ele>
      </trkpt>
      <trkpt lat="36.2579" lon="30.44642">
        <ele>171.5</ele>
      </trkpt>
      <trkpt lat="36.25811" lon="30.44649">
        <ele>174.7</ele>
      </trkpt>
      <trkpt lat="36.25824" lon="30.44659">
        <ele>175</ele>
      </trkpt>
      <trkpt lat="36.25857" lon="30.44654">
        <ele>184.6</ele>
      </trkpt>
      <trkpt lat="36.25881" lon="30.44679">
        <ele>182.4</ele>
      </trkpt>
      <trkpt lat="36.25907" lon="30.4471">
        <ele>181.3</ele>
      </trkpt>
      <trkpt lat="36.25931" lon="30.44715">
        <ele>185.2</ele>
      </trkpt>
      <trkpt lat="36.25943" lon="30.44723">
        <ele>185.8</ele>
      </trkpt>
      <trkpt lat="36.25957" lon="30.44726">
        <ele>187.5</ele>
      </trkpt>
      <trkpt lat="36.25973" lon="30.44719">
        <ele>192.1</ele>
      </trkpt>
      <trkpt lat="36.25991" lon="30.44722">
        <ele>194.7</ele>
      </trkpt>
      <trkpt lat="36.26009" lon="30.44703">
        <ele>202.8</ele>
      </trkpt>
      <trkpt lat="36.26028" lon="30.44703">
        <ele>205.7</ele>
      </trkpt>
      <trkpt lat="36.26049" lon="30.44691">
        <ele>212.6</ele>
      </trkpt>
      <trkpt lat="36.26058" lon="30.4468">
        <ele>217.4</ele>
      </trkpt>
      <trkpt lat="36.26064" lon="30.44657">
        <ele>230.3</ele>
      </trkpt>
      <trkpt lat="36.26082" lon="30.44644">
        <ele>244.7</ele>
      </trkpt>
      <trkpt lat="36.26105" lon="30.44639">
        <ele>263.5</ele>
      </trkpt>
      <trkpt lat="36.26122" lon="30.44643">
        <ele>271.5</ele>
      </trkpt>
      <trkpt lat="36.26138" lon="30.44661">
        <ele>266.4</ele>
      </trkpt>
      <trkpt lat="36.26164" lon="30.44666">
        <ele>278.8</ele>
      </trkpt>
      <trkpt lat="36.26182" lon="30.44695">
        <ele>274.6</ele>
      </trkpt>
      <trkpt lat="36.26214" lon="30.44719">
        <ele>280.9</ele>
      </trkpt>
      <trkpt lat="36.26216" lon="30.44735">
        <ele>270.9</ele>
      </trkpt>
      <trkpt lat="36.26238" lon="30.4475">
        <ele>271.7</ele>
      </trkpt>
      <trkpt lat="36.26253" lon="30.44735">
        <ele>294.2</ele>
      </trkpt>
      <trkpt lat="36.26303" lon="30.4477">
        <ele>300.3</ele>
      </trkpt>
      <trkpt lat="36.26306" lon="30.44789">
        <ele>291.7</ele>
      </trkpt>
      <trkpt lat="36.26333" lon="30.44805">
        <ele>295.7</ele>
      </trkpt>
      <trkpt lat="36.26357" lon="30.44817">
        <ele>297.9</ele>
      </trkpt>
      <trkpt lat="36.26372" lon="30.44814">
        <ele>305.3</ele>
      </trkpt>
      <trkpt lat="36.26413" lon="30.44825">
        <ele>315.1</ele>
      </trkpt>
      <trkpt lat="36.26458" lon="30.44849">
        <ele>321.7</ele>
      </trkpt>
      <trkpt lat="36.26484" lon="30.44867">
        <ele>324.9</ele>
      </trkpt>
      <trkpt lat="36.26504" lon="30.44875">
        <ele>328.1</ele>
      </trkpt>
      <trkpt lat="36.26519" lon="30.44875">
        <ele>330.1</ele>
      </trkpt>
      <trkpt lat="36.26563" lon="30.44868">
        <ele>337.6</ele>
      </trkpt>
      <trkpt lat="36.26589" lon="30.44849">
        <ele>345.7</ele>
      </trkpt>
      <trkpt lat="36.26617" lon="30.44844">
        <ele>347.8</ele>
      </trkpt>
      <trkpt lat="36.26647" lon="30.44851">
        <ele>346.5</ele>
      </trkpt>
      <trkpt lat="36.26704" lon="30.44849">
        <ele>352.9</ele>
      </trkpt>
      <trkpt lat="36.26757" lon="30.44873">
        <ele>353.9</ele>
      </trkpt>
      <trkpt lat="36.26782" lon="30.44869">
        <ele>361.1</ele>
      </trkpt>
      <trkpt lat="36.26802" lon="30.44879">
        <ele>363.1</ele>
      </trkpt>
      <trkpt lat="36.26818" lon="30.44887">
        <ele>364.8</ele>
      </trkpt>
      <trkpt lat="36.26842" lon="30.44902">
        <ele>365.3</ele>
      </trkpt>
      <trkpt lat="36.26862" lon="30.44903">
        <ele>367.3</ele>
      </trkpt>
      <trkpt lat="36.26886" lon="30.44898">
        <ele>372.5</ele>
      </trkpt>
      <trkpt lat="36.2692" lon="30.44907">
        <ele>372.5</ele>
      </trkpt>
      <trkpt lat="36.26942" lon="30.44901">
        <ele>372.9</ele>
      </trkpt>
      <trkpt lat="36.26959" lon="30.44889">
        <ele>376.1</ele>
      </trkpt>
      <trkpt lat="36.26988" lon="30.44862">
        <ele>386.6</ele>
      </trkpt>
      <trkpt lat="36.27027" lon="30.44865">
        <ele>384.4</ele>
      </trkpt>
      <trkpt lat="36.27073" lon="30.44852">
        <ele>390.4</ele>
      </trkpt>
      <trkpt lat="36.27098" lon="30.44845">
        <ele>393.9</ele>
      </trkpt>
      <trkpt lat="36.27126" lon="30.44849">
        <ele>392.1</ele>
      </trkpt>
      <trkpt lat="36.27148" lon="30.44841">
        <ele>396.3</ele>
      </trkpt>
      <trkpt lat="36.27193" lon="30.44841">
        <ele>396</ele>
      </trkpt>
      <trkpt lat="36.27238" lon="30.44827">
        <ele>399.5</ele>
      </trkpt>
      <trkpt lat="36.27283" lon="30.44788">
        <ele>403.1</ele>
      </trkpt>
      <trkpt lat="36.27297" lon="30.44785">
        <ele>400.3</ele>
      </trkpt>
      <trkpt lat="36.27314" lon="30.44763">
        <ele>398</ele>
      </trkpt>
      <trkpt lat="36.27333" lon="30.44747">
        <ele>393.9</ele>
      </trkpt>
      <trkpt lat="36.27335" lon="30.44735">
        <ele>401.2</ele>
      </trkpt>
      <trkpt lat="36.2734" lon="30.44736">
        <ele>398.5</ele>
      </trkpt>
      <trkpt lat="36.27341" lon="30.44751">
        <ele>389.1</ele>
      </trkpt>
      <trkpt lat="36.27355" lon="30.44753">
        <ele>383.3</ele>
      </trkpt>
      <trkpt lat="36.27361" lon="30.44743">
        <ele>385.6</ele>
      </trkpt>
      <trkpt lat="36.27371" lon="30.44762">
        <ele>376.1</ele>
      </trkpt>
      <trkpt lat="36.27381" lon="30.44775">
        <ele>371.7</ele>
      </trkpt>
      <trkpt lat="36.2739" lon="30.44766">
        <ele>368.2</ele>
      </trkpt>
      <trkpt lat="36.27404" lon="30.44768">
        <ele>361.9</ele>
      </trkpt>
      <trkpt lat="36.27411" lon="30.44748">
        <ele>361.8</ele>
      </trkpt>
      <trkpt lat="36.27428" lon="30.44748">
        <ele>357.4</ele>
      </trkpt>
      <trkpt lat="36.2744" lon="30.44753">
        <ele>353.4</ele>
      </trkpt>
      <trkpt lat="36.27454" lon="30.44768">
        <ele>348.2</ele>
      </trkpt>
      <trkpt lat="36.27485" lon="30.44798">
        <ele>333.3</ele>
      </trkpt>
      <trkpt lat="36.27494" lon="30.44788">
        <ele>333.3</ele>
      </trkpt>
      <trkpt lat="36.27535" lon="30.4479">
        <ele>322.5</ele>
      </trkpt>
      <trkpt lat="36.27549" lon="30.44807">
        <ele>313.5</ele>
      </trkpt>
      <trkpt lat="36.27571" lon="30.44803">
        <ele>309.2</ele>
      </trkpt>
      <trkpt lat="36.27584" lon="30.44794">
        <ele>309.3</ele>
      </trkpt>
      <trkpt lat="36.27593" lon="30.44787">
        <ele>309.4</ele>
      </trkpt>
      <trkpt lat="36.27629" lon="30.44792">
        <ele>300.4</ele>
      </trkpt>
      <trkpt lat="36.27637" lon="30.44798">
        <ele>296.7</ele>
      </trkpt>
      <trkpt lat="36.27635" lon="30.44819">
        <ele>290.2</ele>
      </trkpt>
      <trkpt lat="36.27658" lon="30.44807">
        <ele>289.2</ele>
      </trkpt>
      <trkpt lat="36.27703" lon="30.44823">
        <ele>280.8</ele>
      </trkpt>
      <trkpt lat="36.27723" lon="30.44852">
        <ele>271.9</ele>
      </trkpt>
      <trkpt lat="36.2774" lon="30.44867">
        <ele>266.4</ele>
      </trkpt>
      <trkpt lat="36.27767" lon="30.44873">
        <ele>264.7</ele>
      </trkpt>
      <trkpt lat="36.27794" lon="30.44878">
        <ele>265.4</ele>
      </trkpt>
      <trkpt lat="36.27809" lon="30.44876">
        <ele>267</ele>
      </trkpt>
      <trkpt lat="36.27845" lon="30.44892">
        <ele>266</ele>
      </trkpt>
      <trkpt lat="36.2786" lon="30.44901">
        <ele>265.7</ele>
      </trkpt>
      <trkpt lat="36.27861" lon="30.44927">
        <ele>257.6</ele>
      </trkpt>
      <trkpt lat="36.27867" lon="30.44951">
        <ele>249.5</ele>
      </trkpt>
      <trkpt lat="36.27887" lon="30.44971">
        <ele>244.3</ele>
      </trkpt>
      <trkpt lat="36.27904" lon="30.44981">
        <ele>241.7</ele>
      </trkpt>
      <trkpt lat="36.27918" lon="30.4498">
        <ele>243.3</ele>
      </trkpt>
      <trkpt lat="36.27938" lon="30.44965">
        <ele>249.1</ele>
      </trkpt>
      <trkpt lat="36.27959" lon="30.44972">
        <ele>246.1</ele>
      </trkpt>
      <trkpt lat="36.27975" lon="30.44988">
        <ele>239</ele>
      </trkpt>
      <trkpt lat="36.27985" lon="30.45018">
        <ele>227.3</ele>
      </trkpt>
      <trkpt lat="36.28007" lon="30.45023">
        <ele>223.4</ele>
      </trkpt>
      <trkpt lat="36.28026" lon="30.45018">
        <ele>222.1</ele>
      </trkpt>
      <trkpt lat="36.28042" lon="30.45023">
        <ele>217.3</ele>
      </trkpt>
      <trkpt lat="36.28046" lon="30.45041">
        <ele>210.8</ele>
      </trkpt>
      <trkpt lat="36.28054" lon="30.45044">
        <ele>209</ele>
      </trkpt>
      <trkpt lat="36.28062" lon="30.4502">
        <ele>214.8</ele>
      </trkpt>
      <trkpt lat="36.2808" lon="30.45006">
        <ele>215.1</ele>
      </trkpt>
      <trkpt lat="36.28112" lon="30.45013">
        <ele>211.7</ele>
      </trkpt>
      <trkpt lat="36.28133" lon="30.4503">
        <ele>206.5</ele>
      </trkpt>
      <trkpt lat="36.28153" lon="30.45056">
        <ele>198.9</ele>
      </trkpt>
      <trkpt lat="36.28166" lon="30.45072">
        <ele>193.9</ele>
      </trkpt>
      <trkpt lat="36.28158" lon="30.45089">
        <ele>190.2</ele>
      </trkpt>
      <trkpt lat="36.28162" lon="30.45097">
        <ele>188</ele>
      </trkpt>
      <trkpt lat="36.28158" lon="30.4511">
        <ele>185.2</ele>
      </trkpt>
      <trkpt lat="36.28154" lon="30.45126">
        <ele>181.3</ele>
      </trkpt>
      <trkpt lat="36.28169" lon="30.45143">
        <ele>177.3</ele>
      </trkpt>
      <trkpt lat="36.282" lon="30.45159">
        <ele>171.2</ele>
      </trkpt>
      <trkpt lat="36.28199" lon="30.45175">
        <ele>167.5</ele>
      </trkpt>
      <trkpt lat="36.28212" lon="30.45189">
        <ele>163.7</ele>
      </trkpt>
      <trkpt lat="36.28209" lon="30.45225">
        <ele>156.7</ele>
      </trkpt>
      <trkpt lat="36.2823" lon="30.45221">
        <ele>156</ele>
      </trkpt>
      <trkpt lat="36.28244" lon="30.45233">
        <ele>152.6</ele>
      </trkpt>
      <trkpt lat="36.28256" lon="30.45262">
        <ele>145.1</ele>
      </trkpt>
      <trkpt lat="36.28275" lon="30.45273">
        <ele>140.6</ele>
      </trkpt>
      <trkpt lat="36.28288" lon="30.45287">
        <ele>136.5</ele>
      </trkpt>
      <trkpt lat="36.28293" lon="30.453">
        <ele>133.3</ele>
      </trkpt>
      <trkpt lat="36.28296" lon="30.45315">
        <ele>130.2</ele>
      </trkpt>
      <trkpt lat="36.28307" lon="30.45325">
        <ele>127.9</ele>
      </trkpt>
      <trkpt lat="36.28322" lon="30.45316">
        <ele>129</ele>
      </trkpt>
      <trkpt lat="36.28338" lon="30.45314">
        <ele>128.8</ele>
      </trkpt>
      <trkpt lat="36.28347" lon="30.45305">
        <ele>129.8</ele>
      </trkpt>
      <trkpt lat="36.28365" lon="30.45284">
        <ele>132.2</ele>
      </trkpt>
      <trkpt lat="36.2838" lon="30.45283">
        <ele>131.6</ele>
      </trkpt>
      <trkpt lat="36.28402" lon="30.45288">
        <ele>129.7</ele>
      </trkpt>
      <trkpt lat="36.28412" lon="30.45279">
        <ele>130.7</ele>
      </trkpt>
      <trkpt lat="36.28425" lon="30.45274">
        <ele>130.2</ele>
      </trkpt>
      <trkpt lat="36.28462" lon="30.45278">
        <ele>125.1</ele>
      </trkpt>
      <trkpt lat="36.2848" lon="30.4527">
        <ele>123.6</ele>
      </trkpt>
      <trkpt lat="36.28497" lon="30.45256">
        <ele>122.9</ele>
      </trkpt>
      <trkpt lat="36.28515" lon="30.45257">
        <ele>122.2</ele>
      </trkpt>
      <trkpt lat="36.2854" lon="30.45275">
        <ele>119.4</ele>
      </trkpt>
      <trkpt lat="36.2858" lon="30.45304">
        <ele>112.9</ele>
      </trkpt>
      <trkpt lat="36.2859" lon="30.45327">
        <ele>108.1</ele>
      </trkpt>
      <trkpt lat="36.28602" lon="30.45356">
        <ele>103.5</ele>
      </trkpt>
      <trkpt lat="36.28618" lon="30.45376">
        <ele>100.4</ele>
      </trkpt>
      <trkpt lat="36.28637" lon="30.45392">
        <ele>97.9</ele>
      </trkpt>
      <trkpt lat="36.2867" lon="30.45423">
        <ele>92.6</ele>
      </trkpt>
      <trkpt lat="36.28694" lon="30.4544">
        <ele>88</ele>
      </trkpt>
      <trkpt lat="36.28738" lon="30.45473">
        <ele>80.8</ele>
      </trkpt>
      <trkpt lat="36.28765" lon="30.4549">
        <ele>76.4</ele>
      </trkpt>
      <trkpt lat="36.28799" lon="30.45509">
        <ele>70.2</ele>
      </trkpt>
      <trkpt lat="36.28822" lon="30.45516">
        <ele>66.9</ele>
      </trkpt>
      <trkpt lat="36.28842" lon="30.45532">
        <ele>63.6</ele>
      </trkpt>
      <trkpt lat="36.28896" lon="30.4559">
        <ele>54.3</ele>
      </trkpt>
      <trkpt lat="36.2894" lon="30.45662">
        <ele>52.5</ele>
      </trkpt>
      <trkpt lat="36.28958" lon="30.45677">
        <ele>51.6</ele>
      </trkpt>
      <trkpt lat="36.28976" lon="30.45681">
        <ele>50.5</ele>
      </trkpt>
      <trkpt lat="36.28994" lon="30.45696">
        <ele>49.7</ele>
      </trkpt>
      <trkpt lat="36.29017" lon="30.45735">
        <ele>47.9</ele>
      </trkpt>
      <trkpt lat="36.29029" lon="30.45751">
        <ele>46.2</ele>
      </trkpt>
      <trkpt lat="36.29041" lon="30.4576">
        <ele>44.6</ele>
      </trkpt>
      <trkpt lat="36.29056" lon="30.45798">
        <ele>43.2</ele>
      </trkpt>
      <trkpt lat="36.2906" lon="30.45832">
        <ele>43.2</ele>
      </trkpt>
      <trkpt lat="36.29121" lon="30.45947">
        <ele>36.7</ele>
      </trkpt>
      <trkpt lat="36.29144" lon="30.45985">
        <ele>33.5</ele>
      </trkpt>
      <trkpt lat="36.29159" lon="30.46006">
        <ele>31.5</ele>
      </trkpt>
      <trkpt lat="36.29169" lon="30.46023">
        <ele>29.8</ele>
      </trkpt>
      <trkpt lat="36.29179" lon="30.46023">
        <ele>29.7</ele>
      </trkpt>
      <trkpt lat="36.29228" lon="30.46003">
        <ele>30.1</ele>
      </trkpt>
      <trkpt lat="36.29242" lon="30.46001">
        <ele>30</ele>
      </trkpt>
      <trkpt lat="36.29241" lon="30.46006">
        <ele>29.7</ele>
      </trkpt>
      <trkpt lat="36.2925" lon="30.46016">
        <ele>28.9</ele>
      </trkpt>
      <trkpt lat="36.29277" lon="30.46074">
        <ele>27.7</ele>
      </trkpt>
      <trkpt lat="36.29313" lon="30.46125">
        <ele>26.3</ele>
      </trkpt>
      <trkpt lat="36.29351" lon="30.46202">
        <ele>22.2</ele>
      </trkpt>
      <trkpt lat="36.29428" lon="30.46296">
        <ele>18.6</ele>
      </trkpt>
      <trkpt lat="36.29476" lon="30.46331">
        <ele>16.5</ele>
      </trkpt>
      <trkpt lat="36.29578" lon="30.46373">
        <ele>16.1</ele>
      </trkpt>
      <trkpt lat="36.2961" lon="30.46414">
        <ele>11</ele>
      </trkpt>
      <trkpt lat="36.29626" lon="30.46419">
        <ele>10.4</ele>
      </trkpt>
      <trkpt lat="36.29678" lon="30.4642">
        <ele>10.2</ele>
      </trkpt>
      <trkpt lat="36.2973" lon="30.4644">
        <ele>10.5</ele>
      </trkpt>
      <trkpt lat="36.29792" lon="30.46434">
        <ele>13.4</ele>
      </trkpt>
      <trkpt lat="36.29824" lon="30.46437">
        <ele>14.2</ele>
      </trkpt>
      <trkpt lat="36.29853" lon="30.46448">
        <ele>15.3</ele>
      </trkpt>
      <trkpt lat="36.29901" lon="30.46488">
        <ele>11.1</ele>
      </trkpt>
      <trkpt lat="36.29941" lon="30.46511">
        <ele>10.1</ele>
      </trkpt>
      <trkpt lat="36.29972" lon="30.46511">
        <ele>12.4</ele>
      </trkpt>
      <trkpt lat="36.30005" lon="30.46519">
        <ele>13.8</ele>
      </trkpt>
      <trkpt lat="36.30063" lon="30.46517">
        <ele>17.4</ele>
      </trkpt>
      <trkpt lat="36.30091" lon="30.4652">
        <ele>19</ele>
      </trkpt>
      <trkpt lat="36.30136" lon="30.46535">
        <ele>20</ele>
      </trkpt>
      <trkpt lat="36.30171" lon="30.46554">
        <ele>17.5</ele>
      </trkpt>
      <trkpt lat="36.30205" lon="30.46579">
        <ele>10.6</ele>
      </trkpt>
      <trkpt lat="36.30226" lon="30.46602">
        <ele>7.9</ele>
      </trkpt>
      <trkpt lat="36.30266" lon="30.46582">
        <ele>7.9</ele>
      </trkpt>
      <trkpt lat="36.30331" lon="30.46566">
        <ele>3.1</ele>
      </trkpt>
      <trkpt lat="36.30393" lon="30.4654">
        <ele>3</ele>
      </trkpt>
      <trkpt lat="36.30492" lon="30.46506">
        <ele>3</ele>
      </trkpt>
      <trkpt lat="36.3054" lon="30.46498">
        <ele>2.6</ele>
      </trkpt>
      <trkpt lat="36.30639" lon="30.46486">
        <ele>2.5</ele>
      </trkpt>
      <trkpt lat="36.30755" lon="30.46484">
        <ele>1.2</ele>
      </trkpt>
      <trkpt lat="36.308" lon="30.46473">
        <ele>1.3</ele>
      </trkpt>
      <trkpt lat="36.30817" lon="30.46468">
        <ele>1.4</ele>
      </trkpt>
      <trkpt lat="36.30884" lon="30.46466">
        <ele>1.2</ele>
      </trkpt>
      <trkpt lat="36.30957" lon="30.46466">
        <ele>2.6</ele>
      </trkpt>
      <trkpt lat="36.30967" lon="30.46463">
        <ele>2.6</ele>
      </trkpt>
      <trkpt lat="36.30995" lon="30.46461">
        <ele>2.9</ele>
      </trkpt>
      <trkpt lat="36.31019" lon="30.46426">
        <ele>3.2</ele>
      </trkpt>
      <trkpt lat="36.31053" lon="30.46399">
        <ele>4.1</ele>
      </trkpt>
      <trkpt lat="36.31114" lon="30.46346">
        <ele>6.3</ele>
      </trkpt>
      <trkpt lat="36.31151" lon="30.46311">
        <ele>6.6</ele>
      </trkpt>
      <trkpt lat="36.3122" lon="30.46241">
        <ele>5.9</ele>
      </trkpt>
      <trkpt lat="36.31245" lon="30.4622">
        <ele>5.7</ele>
      </trkpt>
      <trkpt lat="36.31275" lon="30.46193">
        <ele>6.9</ele>
      </trkpt>
      <trkpt lat="36.31299" lon="30.46179">
        <ele>6.8</ele>
      </trkpt>
      <trkpt lat="36.3138" lon="30.46154">
        <ele>7.1</ele>
      </trkpt>
      <trkpt lat="36.31444" lon="30.46125">
        <ele>7.3</ele>
      </trkpt>
      <trkpt lat="36.31461" lon="30.46114">
        <ele>6.9</ele>
      </trkpt>
      <trkpt lat="36.31447" lon="30.46135">
        <ele>7.3</ele>
      </trkpt>
      <trkpt lat="36.31432" lon="30.46166">
        <ele>7.6</ele>
      </trkpt>
      <trkpt lat="36.31472" lon="30.46201">
        <ele>9.2</ele>
      </trkpt>
      <trkpt lat="36.31522" lon="30.46302">
        <ele>11.7</ele>
      </trkpt>
      <trkpt lat="36.31539" lon="30.46321">
        <ele>11.3</ele>
      </trkpt>
      <trkpt lat="36.31557" lon="30.46333">
        <ele>9.8</ele>
      </trkpt>
      <trkpt lat="36.31596" lon="30.4634">
        <ele>7.2</ele>
      </trkpt>
      <trkpt lat="36.31633" lon="30.46343">
        <ele>7</ele>
      </trkpt>
      <trkpt lat="36.31716" lon="30.46349">
        <ele>8.3</ele>
      </trkpt>
      <trkpt lat="36.31752" lon="30.46363">
        <ele>10.9</ele>
      </trkpt>
      <trkpt lat="36.31761" lon="30.46366">
        <ele>11.3</ele>
      </trkpt>
      <trkpt lat="36.31785" lon="30.46363">
        <ele>11</ele>
      </trkpt>
      <trkpt lat="36.31804" lon="30.46354">
        <ele>10.2</ele>
      </trkpt>
      <trkpt lat="36.31828" lon="30.46333">
        <ele>8.9</ele>
      </trkpt>
      <trkpt lat="36.31854" lon="30.4631">
        <ele>8.9</ele>
      </trkpt>
      <trkpt lat="36.31883" lon="30.46267">
        <ele>8.3</ele>
      </trkpt>
      <trkpt lat="36.31899" lon="30.46237">
        <ele>8.4</ele>
      </trkpt>
      <trkpt lat="36.31924" lon="30.46181">
        <ele>10.5</ele>
      </trkpt>
      <trkpt lat="36.31944" lon="30.46152">
        <ele>10.7</ele>
      </trkpt>
      <trkpt lat="36.3197" lon="30.46128">
        <ele>10.7</ele>
      </trkpt>
      <trkpt lat="36.31994" lon="30.46114">
        <ele>10.7</ele>
      </trkpt>
      <trkpt lat="36.32033" lon="30.46096">
        <ele>10.6</ele>
      </trkpt>
      <trkpt lat="36.32098" lon="30.46073">
        <ele>10.4</ele>
      </trkpt>
      <trkpt lat="36.32113" lon="30.46063">
        <ele>10.8</ele>
      </trkpt>
      <trkpt lat="36.32123" lon="30.46049">
        <ele>11.1</ele>
      </trkpt>
      <trkpt lat="36.32143" lon="30.46045">
        <ele>11.3</ele>
      </trkpt>
      <trkpt lat="36.32162" lon="30.46036">
        <ele>11.5</ele>
      </trkpt>
      <trkpt lat="36.32187" lon="30.4602">
        <ele>12.1</ele>
      </trkpt>
      <trkpt lat="36.32197" lon="30.46019">
        <ele>12.3</ele>
      </trkpt>
      <trkpt lat="36.32215" lon="30.46019">
        <ele>12.6</ele>
      </trkpt>
      <trkpt lat="36.3223" lon="30.46029">
        <ele>12.9</ele>
      </trkpt>
      <trkpt lat="36.32252" lon="30.46052">
        <ele>13.7</ele>
      </trkpt>
      <trkpt lat="36.32319" lon="30.46042">
        <ele>14.7</ele>
      </trkpt>
      <trkpt lat="36.32329" lon="30.46047">
        <ele>14.9</ele>
      </trkpt>
      <trkpt lat="36.32442" lon="30.46195">
        <ele>16.3</ele>
      </trkpt>
      <trkpt lat="36.32473" lon="30.46208">
        <ele>17.3</ele>
      </trkpt>
      <trkpt lat="36.32501" lon="30.46214">
        <ele>18.2</ele>
      </trkpt>
      <trkpt lat="36.32514" lon="30.46226">
        <ele>18.8</ele>
      </trkpt>
      <trkpt lat="36.3252" lon="30.46254">
        <ele>19.6</ele>
      </trkpt>
      <trkpt lat="36.32536" lon="30.4628">
        <ele>20.8</ele>
      </trkpt>
      <trkpt lat="36.32551" lon="30.46301">
        <ele>21.7</ele>
      </trkpt>
      <trkpt lat="36.32557" lon="30.46314">
        <ele>22.2</ele>
      </trkpt>
      <trkpt lat="36.3257" lon="30.46324">
        <ele>22.6</ele>
      </trkpt>
      <trkpt lat="36.32591" lon="30.46341">
        <ele>23.4</ele>
      </trkpt>
      <trkpt lat="36.32615" lon="30.46357">
        <ele>24.4</ele>
      </trkpt>
      <trkpt lat="36.32626" lon="30.4637">
        <ele>24.9</ele>
      </trkpt>
      <trkpt lat="36.32642" lon="30.4638">
        <ele>25.3</ele>
      </trkpt>
      <trkpt lat="36.32654" lon="30.46381">
        <ele>25.4</ele>
      </trkpt>
      <trkpt lat="36.32663" lon="30.46375">
        <ele>25.5</ele>
      </trkpt>
      <trkpt lat="36.32677" lon="30.4639">
        <ele>26</ele>
      </trkpt>
      <trkpt lat="36.32686" lon="30.464">
        <ele>26.6</ele>
      </trkpt>
      <trkpt lat="36.32695" lon="30.46413">
        <ele>27.2</ele>
      </trkpt>
      <trkpt lat="36.32713" lon="30.46419">
        <ele>28.3</ele>
      </trkpt>
      <trkpt lat="36.32753" lon="30.46434">
        <ele>31</ele>
      </trkpt>
      <trkpt lat="36.32768" lon="30.46437">
        <ele>33.1</ele>
      </trkpt>
      <trkpt lat="36.32778" lon="30.46445">
        <ele>34.5</ele>
      </trkpt>
      <trkpt lat="36.3279" lon="30.4645">
        <ele>35.9</ele>
      </trkpt>
      <trkpt lat="36.32816" lon="30.46466">
        <ele>38.3</ele>
      </trkpt>
      <trkpt lat="36.32818" lon="30.46477">
        <ele>38</ele>
      </trkpt>
      <trkpt lat="36.32817" lon="30.46482">
        <ele>37.8</ele>
      </trkpt>
      <trkpt lat="36.32821" lon="30.46494">
        <ele>37.6</ele>
      </trkpt>
      <trkpt lat="36.3282" lon="30.46503">
        <ele>37.8</ele>
      </trkpt>
      <trkpt lat="36.32831" lon="30.46511">
        <ele>39.8</ele>
      </trkpt>
      <trkpt lat="36.32835" lon="30.46514">
        <ele>40.8</ele>
      </trkpt>
      <trkpt lat="36.32844" lon="30.46513">
        <ele>41.6</ele>
      </trkpt>
      <trkpt lat="36.32868" lon="30.46516">
        <ele>45</ele>
      </trkpt>
      <trkpt lat="36.32873" lon="30.46514">
        <ele>45.3</ele>
      </trkpt>
      <trkpt lat="36.32879" lon="30.46516">
        <ele>46.3</ele>
      </trkpt>
      <trkpt lat="36.32883" lon="30.46523">
        <ele>47.7</ele>
      </trkpt>
      <trkpt lat="36.32895" lon="30.46523">
        <ele>48.9</ele>
      </trkpt>
      <trkpt lat="36.32909" lon="30.46533">
        <ele>51.7</ele>
      </trkpt>
      <trkpt lat="36.32926" lon="30.4655">
        <ele>55.4</ele>
      </trkpt>
      <trkpt lat="36.3294" lon="30.4656">
        <ele>57.5</ele>
      </trkpt>
      <trkpt lat="36.32952" lon="30.46562">
        <ele>58.7</ele>
      </trkpt>
      <trkpt lat="36.32964" lon="30.46558">
        <ele>59.7</ele>
      </trkpt>
      <trkpt lat="36.32977" lon="30.46566">
        <ele>60.7</ele>
      </trkpt>
      <trkpt lat="36.32989" lon="30.46565">
        <ele>61.7</ele>
      </trkpt>
      <trkpt lat="36.33001" lon="30.46575">
        <ele>61.8</ele>
      </trkpt>
      <trkpt lat="36.33003" lon="30.46589">
        <ele>62.7</ele>
      </trkpt>
      <trkpt lat="36.33001" lon="30.46603">
        <ele>65.7</ele>
      </trkpt>
      <trkpt lat="36.33006" lon="30.46608">
        <ele>67.4</ele>
      </trkpt>
      <trkpt lat="36.33019" lon="30.46611">
        <ele>68.7</ele>
      </trkpt>
      <trkpt lat="36.33028" lon="30.46615">
        <ele>70.1</ele>
      </trkpt>
      <trkpt lat="36.33043" lon="30.46623">
        <ele>72.4</ele>
      </trkpt>
      <trkpt lat="36.33054" lon="30.46632">
        <ele>74.6</ele>
      </trkpt>
      <trkpt lat="36.33053" lon="30.46644">
        <ele>76.7</ele>
      </trkpt>
      <trkpt lat="36.33054" lon="30.46653">
        <ele>78.4</ele>
      </trkpt>
      <trkpt lat="36.33062" lon="30.46657">
        <ele>79.3</ele>
      </trkpt>
      <trkpt lat="36.33075" lon="30.4667">
        <ele>82</ele>
      </trkpt>
      <trkpt lat="36.33084" lon="30.46673">
        <ele>83</ele>
      </trkpt>
      <trkpt lat="36.33098" lon="30.46681">
        <ele>86.1</ele>
      </trkpt>
      <trkpt lat="36.33104" lon="30.46689">
        <ele>89.2</ele>
      </trkpt>
      <trkpt lat="36.33119" lon="30.46698">
        <ele>94.2</ele>
      </trkpt>
      <trkpt lat="36.33129" lon="30.467">
        <ele>95.7</ele>
      </trkpt>
      <trkpt lat="36.33136" lon="30.46698">
        <ele>95.6</ele>
      </trkpt>
      <trkpt lat="36.33146" lon="30.46699">
        <ele>96.9</ele>
      </trkpt>
      <trkpt lat="36.33154" lon="30.46711">
        <ele>103.9</ele>
      </trkpt>
      <trkpt lat="36.33163" lon="30.46708">
        <ele>103.3</ele>
      </trkpt>
      <trkpt lat="36.33178" lon="30.46708">
        <ele>106.7</ele>
      </trkpt>
      <trkpt lat="36.33188" lon="30.467">
        <ele>105.2</ele>
      </trkpt>
      <trkpt lat="36.33201" lon="30.46704">
        <ele>110.5</ele>
      </trkpt>
      <trkpt lat="36.33215" lon="30.46703">
        <ele>114</ele>
      </trkpt>
      <trkpt lat="36.33228" lon="30.46701">
        <ele>115.9</ele>
      </trkpt>
      <trkpt lat="36.33237" lon="30.46694">
        <ele>112.6</ele>
      </trkpt>
      <trkpt lat="36.33251" lon="30.46686">
        <ele>110.1</ele>
      </trkpt>
      <trkpt lat="36.33267" lon="30.46699">
        <ele>120.3</ele>
      </trkpt>
      <trkpt lat="36.33286" lon="30.46705">
        <ele>124.6</ele>
      </trkpt>
      <trkpt lat="36.33292" lon="30.46696">
        <ele>118.9</ele>
      </trkpt>
      <trkpt lat="36.33313" lon="30.46687">
        <ele>114.5</ele>
      </trkpt>
      <trkpt lat="36.33325" lon="30.46681">
        <ele>111.8</ele>
      </trkpt>
      <trkpt lat="36.33342" lon="30.46693">
        <ele>119.2</ele>
      </trkpt>
      <trkpt lat="36.33357" lon="30.46704">
        <ele>124.3</ele>
      </trkpt>
      <trkpt lat="36.33388" lon="30.46708">
        <ele>125.7</ele>
      </trkpt>
      <trkpt lat="36.33407" lon="30.46709">
        <ele>125.6</ele>
      </trkpt>
      <trkpt lat="36.33414" lon="30.46702">
        <ele>122.8</ele>
      </trkpt>
      <trkpt lat="36.33424" lon="30.46702">
        <ele>123.3</ele>
      </trkpt>
      <trkpt lat="36.33431" lon="30.46709">
        <ele>125.9</ele>
      </trkpt>
      <trkpt lat="36.33443" lon="30.46711">
        <ele>127.3</ele>
      </trkpt>
      <trkpt lat="36.33466" lon="30.46705">
        <ele>126.2</ele>
      </trkpt>
      <trkpt lat="36.33481" lon="30.46702">
        <ele>125.9</ele>
      </trkpt>
      <trkpt lat="36.33506" lon="30.46702">
        <ele>127.4</ele>
      </trkpt>
      <trkpt lat="36.33523" lon="30.46701">
        <ele>128.9</ele>
      </trkpt>
      <trkpt lat="36.33538" lon="30.46698">
        <ele>129.6</ele>
      </trkpt>
      <trkpt lat="36.33551" lon="30.46702">
        <ele>132.4</ele>
      </trkpt>
      <trkpt lat="36.33565" lon="30.46701">
        <ele>133.7</ele>
      </trkpt>
      <trkpt lat="36.33579" lon="30.46711">
        <ele>138.2</ele>
      </trkpt>
      <trkpt lat="36.33589" lon="30.46717">
        <ele>140.8</ele>
      </trkpt>
      <trkpt lat="36.33601" lon="30.46721">
        <ele>142.2</ele>
      </trkpt>
      <trkpt lat="36.33611" lon="30.46718">
        <ele>141.6</ele>
      </trkpt>
      <trkpt lat="36.33625" lon="30.46723">
        <ele>143.7</ele>
      </trkpt>
      <trkpt lat="36.33635" lon="30.46731">
        <ele>146.2</ele>
      </trkpt>
      <trkpt lat="36.33645" lon="30.4672">
        <ele>143.2</ele>
      </trkpt>
      <trkpt lat="36.33659" lon="30.46712">
        <ele>141.3</ele>
      </trkpt>
      <trkpt lat="36.33665" lon="30.46698">
        <ele>137.3</ele>
      </trkpt>
      <trkpt lat="36.33675" lon="30.46694">
        <ele>136.5</ele>
      </trkpt>
      <trkpt lat="36.33686" lon="30.46694">
        <ele>137.4</ele>
      </trkpt>
      <trkpt lat="36.33695" lon="30.46701">
        <ele>140.1</ele>
      </trkpt>
      <trkpt lat="36.33699" lon="30.4672">
        <ele>146.3</ele>
      </trkpt>
      <trkpt lat="36.33726" lon="30.46698">
        <ele>140.8</ele>
      </trkpt>
      <trkpt lat="36.33772" lon="30.46669">
        <ele>133.2</ele>
      </trkpt>
      <trkpt lat="36.33804" lon="30.46648">
        <ele>133.1</ele>
      </trkpt>
      <trkpt lat="36.33808" lon="30.46666">
        <ele>134.5</ele>
      </trkpt>
      <trkpt lat="36.33804" lon="30.46684">
        <ele>140.9</ele>
      </trkpt>
      <trkpt lat="36.33812" lon="30.4669">
        <ele>143.6</ele>
      </trkpt>
      <trkpt lat="36.33811" lon="30.46695">
        <ele>145.7</ele>
      </trkpt>
      <trkpt lat="36.33823" lon="30.46698">
        <ele>147.5</ele>
      </trkpt>
      <trkpt lat="36.33817" lon="30.46706">
        <ele>150.3</ele>
      </trkpt>
      <trkpt lat="36.33791" lon="30.46747">
        <ele>163.6</ele>
      </trkpt>
      <trkpt lat="36.33779" lon="30.46753">
        <ele>164.8</ele>
      </trkpt>
      <trkpt lat="36.33773" lon="30.46758">
        <ele>165.7</ele>
      </trkpt>
      <trkpt lat="36.33779" lon="30.46761">
        <ele>167.7</ele>
      </trkpt>
      <trkpt lat="36.33777" lon="30.46769">
        <ele>170</ele>
      </trkpt>
      <trkpt lat="36.33783" lon="30.46774">
        <ele>172.7</ele>
      </trkpt>
      <trkpt lat="36.33792" lon="30.46791">
        <ele>179.9</ele>
      </trkpt>
      <trkpt lat="36.33807" lon="30.46796">
        <ele>183.8</ele>
      </trkpt>
      <trkpt lat="36.33803" lon="30.46815">
        <ele>190.2</ele>
      </trkpt>
      <trkpt lat="36.33796" lon="30.46828">
        <ele>193.7</ele>
      </trkpt>
      <trkpt lat="36.33798" lon="30.46835">
        <ele>196.7</ele>
      </trkpt>
      <trkpt lat="36.33814" lon="30.4683">
        <ele>198.1</ele>
      </trkpt>
      <trkpt lat="36.33823" lon="30.46834">
        <ele>201.2</ele>
      </trkpt>
      <trkpt lat="36.33832" lon="30.46845">
        <ele>204.9</ele>
      </trkpt>
      <trkpt lat="36.33838" lon="30.46856">
        <ele>205.6</ele>
      </trkpt>
      <trkpt lat="36.33848" lon="30.4688">
        <ele>206.6</ele>
      </trkpt>
      <trkpt lat="36.33848" lon="30.46891">
        <ele>208.1</ele>
      </trkpt>
      <trkpt lat="36.33847" lon="30.46917">
        <ele>213.1</ele>
      </trkpt>
      <trkpt lat="36.33853" lon="30.46936">
        <ele>215.9</ele>
      </trkpt>
      <trkpt lat="36.33857" lon="30.46945">
        <ele>216.5</ele>
      </trkpt>
      <trkpt lat="36.33865" lon="30.46952">
        <ele>215</ele>
      </trkpt>
      <trkpt lat="36.33864" lon="30.46969">
        <ele>219.6</ele>
      </trkpt>
      <trkpt lat="36.33864" lon="30.46976">
        <ele>221.2</ele>
      </trkpt>
      <trkpt lat="36.33868" lon="30.46995">
        <ele>223.7</ele>
      </trkpt>
      <trkpt lat="36.33873" lon="30.47011">
        <ele>226.3</ele>
      </trkpt>
      <trkpt lat="36.3388" lon="30.47037">
        <ele>230.7</ele>
      </trkpt>
      <trkpt lat="36.33884" lon="30.47054">
        <ele>234.7</ele>
      </trkpt>
      <trkpt lat="36.33889" lon="30.47066">
        <ele>235.8</ele>
      </trkpt>
      <trkpt lat="36.33898" lon="30.47083">
        <ele>237.3</ele>
      </trkpt>
      <trkpt lat="36.33908" lon="30.47101">
        <ele>238.6</ele>
      </trkpt>
      <trkpt lat="36.33929" lon="30.47119">
        <ele>238.8</ele>
      </trkpt>
      <trkpt lat="36.33938" lon="30.47127">
        <ele>240.6</ele>
      </trkpt>
      <trkpt lat="36.33955" lon="30.4713">
        <ele>240</ele>
      </trkpt>
      <trkpt lat="36.33976" lon="30.47125">
        <ele>235.9</ele>
      </trkpt>
      <trkpt lat="36.33992" lon="30.47131">
        <ele>236.5</ele>
      </trkpt>
      <trkpt lat="36.34015" lon="30.47139">
        <ele>239.7</ele>
      </trkpt>
      <trkpt lat="36.34029" lon="30.47146">
        <ele>242.6</ele>
      </trkpt>
      <trkpt lat="36.34043" lon="30.47151">
        <ele>244.4</ele>
      </trkpt>
      <trkpt lat="36.34056" lon="30.47151">
        <ele>244.7</ele>
      </trkpt>
      <trkpt lat="36.3407" lon="30.47154">
        <ele>245.7</ele>
      </trkpt>
      <trkpt lat="36.34077" lon="30.47162">
        <ele>247.2</ele>
      </trkpt>
      <trkpt lat="36.34079" lon="30.47171">
        <ele>249.9</ele>
      </trkpt>
      <trkpt lat="36.34079" lon="30.47177">
        <ele>252.2</ele>
      </trkpt>
      <trkpt lat="36.34069" lon="30.47186">
        <ele>256.2</ele>
      </trkpt>
      <trkpt lat="36.34063" lon="30.47193">
        <ele>259.1</ele>
      </trkpt>
      <trkpt lat="36.34062" lon="30.47197">
        <ele>260.6</ele>
      </trkpt>
      <trkpt lat="36.34072" lon="30.47206">
        <ele>264.2</ele>
      </trkpt>
      <trkpt lat="36.34112" lon="30.47215">
        <ele>269.1</ele>
      </trkpt>
      <trkpt lat="36.34113" lon="30.47232">
        <ele>274.7</ele>
      </trkpt>
      <trkpt lat="36.34115" lon="30.47238">
        <ele>276.8</ele>
      </trkpt>
      <trkpt lat="36.34129" lon="30.47238">
        <ele>276.6</ele>
      </trkpt>
      <trkpt lat="36.34141" lon="30.47242">
        <ele>277.8</ele>
      </trkpt>
      <trkpt lat="36.34161" lon="30.47249">
        <ele>279</ele>
      </trkpt>
      <trkpt lat="36.34168" lon="30.47256">
        <ele>281</ele>
      </trkpt>
      <trkpt lat="36.34177" lon="30.47269">
        <ele>286</ele>
      </trkpt>
      <trkpt lat="36.34186" lon="30.47287">
        <ele>291.3</ele>
      </trkpt>
      <trkpt lat="36.34195" lon="30.47305">
        <ele>295.6</ele>
      </trkpt>
      <trkpt lat="36.34203" lon="30.47312">
        <ele>297</ele>
      </trkpt>
      <trkpt lat="36.34212" lon="30.47319">
        <ele>297.7</ele>
      </trkpt>
      <trkpt lat="36.34229" lon="30.47332">
        <ele>298.2</ele>
      </trkpt>
      <trkpt lat="36.34237" lon="30.47337">
        <ele>299.3</ele>
      </trkpt>
      <trkpt lat="36.34251" lon="30.47345">
        <ele>302.4</ele>
      </trkpt>
      <trkpt lat="36.3426" lon="30.47358">
        <ele>310</ele>
      </trkpt>
      <trkpt lat="36.34289" lon="30.47358">
        <ele>312.9</ele>
      </trkpt>
      <trkpt lat="36.3431" lon="30.47368">
        <ele>317.5</ele>
      </trkpt>
      <trkpt lat="36.34344" lon="30.47395">
        <ele>323.3</ele>
      </trkpt>
      <trkpt lat="36.34359" lon="30.47392">
        <ele>323.1</ele>
      </trkpt>
      <trkpt lat="36.34368" lon="30.47404">
        <ele>323</ele>
      </trkpt>
      <trkpt lat="36.34396" lon="30.4741">
        <ele>320.6</ele>
      </trkpt>
      <trkpt lat="36.34411" lon="30.47419">
        <ele>318.3</ele>
      </trkpt>
      <trkpt lat="36.34462" lon="30.47434">
        <ele>332</ele>
      </trkpt>
      <trkpt lat="36.34475" lon="30.47444">
        <ele>335.3</ele>
      </trkpt>
      <trkpt lat="36.34504" lon="30.47447">
        <ele>341.4</ele>
      </trkpt>
      <trkpt lat="36.34517" lon="30.47466">
        <ele>343.7</ele>
      </trkpt>
      <trkpt lat="36.3452" lon="30.47482">
        <ele>342.3</ele>
      </trkpt>
      <trkpt lat="36.34537" lon="30.47472">
        <ele>348.7</ele>
      </trkpt>
      <trkpt lat="36.34542" lon="30.4748">
        <ele>348.2</ele>
      </trkpt>
      <trkpt lat="36.34542" lon="30.47487">
        <ele>346.6</ele>
      </trkpt>
      <trkpt lat="36.34558" lon="30.47518">
        <ele>348.2</ele>
      </trkpt>
      <trkpt lat="36.3458" lon="30.47526">
        <ele>351.6</ele>
      </trkpt>
      <trkpt lat="36.34599" lon="30.47528">
        <ele>356.5</ele>
      </trkpt>
      <trkpt lat="36.3462" lon="30.47535">
        <ele>362.2</ele>
      </trkpt>
      <trkpt lat="36.34639" lon="30.47539">
        <ele>367.2</ele>
      </trkpt>
      <trkpt lat="36.3467" lon="30.47553">
        <ele>372.5</ele>
      </trkpt>
      <trkpt lat="36.34688" lon="30.47563">
        <ele>374.1</ele>
      </trkpt>
      <trkpt lat="36.34705" lon="30.47581">
        <ele>373.2</ele>
      </trkpt>
      <trkpt lat="36.34727" lon="30.47583">
        <ele>376.2</ele>
      </trkpt>
      <trkpt lat="36.34739" lon="30.47587">
        <ele>378.6</ele>
      </trkpt>
      <trkpt lat="36.3474" lon="30.4758">
        <ele>379.4</ele>
      </trkpt>
      <trkpt lat="36.34751" lon="30.4759">
        <ele>380.9</ele>
      </trkpt>
      <trkpt lat="36.34753" lon="30.47599">
        <ele>382.4</ele>
      </trkpt>
      <trkpt lat="36.3477" lon="30.47582">
        <ele>385.8</ele>
      </trkpt>
      <trkpt lat="36.34785" lon="30.47581">
        <ele>390.1</ele>
      </trkpt>
      <trkpt lat="36.34796" lon="30.47597">
        <ele>392.3</ele>
      </trkpt>
      <trkpt lat="36.34821" lon="30.47609">
        <ele>397.9</ele>
      </trkpt>
      <trkpt lat="36.34833" lon="30.47608">
        <ele>400.4</ele>
      </trkpt>
      <trkpt lat="36.34845" lon="30.47611">
        <ele>403.3</ele>
      </trkpt>
      <trkpt lat="36.3485" lon="30.47604">
        <ele>404.9</ele>
      </trkpt>
      <trkpt lat="36.34857" lon="30.47599">
        <ele>407.2</ele>
      </trkpt>
      <trkpt lat="36.34868" lon="30.47593">
        <ele>410.4</ele>
      </trkpt>
      <trkpt lat="36.34888" lon="30.47596">
        <ele>415.3</ele>
      </trkpt>
      <trkpt lat="36.3491" lon="30.47602">
        <ele>420.1</ele>
      </trkpt>
      <trkpt lat="36.34942" lon="30.47603">
        <ele>427.1</ele>
      </trkpt>
      <trkpt lat="36.34981" lon="30.47607">
        <ele>434.9</ele>
      </trkpt>
      <trkpt lat="36.35014" lon="30.47613">
        <ele>441.2</ele>
      </trkpt>
      <trkpt lat="36.35023" lon="30.47605">
        <ele>444.7</ele>
      </trkpt>
      <trkpt lat="36.3503" lon="30.47616">
        <ele>444.3</ele>
      </trkpt>
      <trkpt lat="36.35036" lon="30.47626">
        <ele>443.9</ele>
      </trkpt>
      <trkpt lat="36.3503" lon="30.47634">
        <ele>441.2</ele>
      </trkpt>
      <trkpt lat="36.35033" lon="30.47648">
        <ele>439</ele>
      </trkpt>
      <trkpt lat="36.35028" lon="30.4766">
        <ele>435.8</ele>
      </trkpt>
      <trkpt lat="36.35027" lon="30.47673">
        <ele>435.9</ele>
      </trkpt>
      <trkpt lat="36.35035" lon="30.47677">
        <ele>438.2</ele>
      </trkpt>
      <trkpt lat="36.35046" lon="30.47683">
        <ele>441.8</ele>
      </trkpt>
      <trkpt lat="36.35059" lon="30.47679">
        <ele>443.6</ele>
      </trkpt>
      <trkpt lat="36.35063" lon="30.47668">
        <ele>442</ele>
      </trkpt>
      <trkpt lat="36.3507" lon="30.47661">
        <ele>444.3</ele>
      </trkpt>
      <trkpt lat="36.3508" lon="30.47662">
        <ele>446.1</ele>
      </trkpt>
      <trkpt lat="36.35087" lon="30.47675">
        <ele>449</ele>
      </trkpt>
      <trkpt lat="36.35096" lon="30.47676">
        <ele>452.5</ele>
      </trkpt>
      <trkpt lat="36.351" lon="30.47665">
        <ele>452.5</ele>
      </trkpt>
      <trkpt lat="36.3511" lon="30.47659">
        <ele>457.2</ele>
      </trkpt>
      <trkpt lat="36.35121" lon="30.47671">
        <ele>461</ele>
      </trkpt>
      <trkpt lat="36.35125" lon="30.47684">
        <ele>464.5</ele>
      </trkpt>
      <trkpt lat="36.35131" lon="30.47675">
        <ele>465.1</ele>
      </trkpt>
      <trkpt lat="36.35138" lon="30.4768">
        <ele>468.5</ele>
      </trkpt>
      <trkpt lat="36.35139" lon="30.477">
        <ele>472.7</ele>
      </trkpt>
      <trkpt lat="36.35147" lon="30.47716">
        <ele>478</ele>
      </trkpt>
      <trkpt lat="36.35147" lon="30.47729">
        <ele>480.4</ele>
      </trkpt>
      <trkpt lat="36.35147" lon="30.47745">
        <ele>483</ele>
      </trkpt>
      <trkpt lat="36.3516" lon="30.47746">
        <ele>487.3</ele>
      </trkpt>
      <trkpt lat="36.35172" lon="30.47753">
        <ele>491.5</ele>
      </trkpt>
      <trkpt lat="36.35178" lon="30.47748">
        <ele>492.3</ele>
      </trkpt>
      <trkpt lat="36.35198" lon="30.47762">
        <ele>498.5</ele>
      </trkpt>
      <trkpt lat="36.35194" lon="30.47776">
        <ele>499.4</ele>
      </trkpt>
      <trkpt lat="36.352" lon="30.4778">
        <ele>501.1</ele>
      </trkpt>
      <trkpt lat="36.35218" lon="30.47765">
        <ele>503.5</ele>
      </trkpt>
      <trkpt lat="36.35223" lon="30.4777">
        <ele>505.2</ele>
      </trkpt>
      <trkpt lat="36.35239" lon="30.47758">
        <ele>507.6</ele>
      </trkpt>
      <trkpt lat="36.35248" lon="30.47769">
        <ele>510.9</ele>
      </trkpt>
      <trkpt lat="36.35253" lon="30.47769">
        <ele>512.2</ele>
      </trkpt>
      <trkpt lat="36.35263" lon="30.47749">
        <ele>512.4</ele>
      </trkpt>
      <trkpt lat="36.35277" lon="30.47744">
        <ele>516</ele>
      </trkpt>
      <trkpt lat="36.35293" lon="30.47746">
        <ele>520.3</ele>
      </trkpt>
      <trkpt lat="36.35313" lon="30.47759">
        <ele>526.6</ele>
      </trkpt>
      <trkpt lat="36.3533" lon="30.47772">
        <ele>532.7</ele>
      </trkpt>
      <trkpt lat="36.35342" lon="30.4777">
        <ele>535.9</ele>
      </trkpt>
      <trkpt lat="36.35344" lon="30.47787">
        <ele>538.6</ele>
      </trkpt>
      <trkpt lat="36.3535" lon="30.47789">
        <ele>540.6</ele>
      </trkpt>
      <trkpt lat="36.35364" lon="30.47784">
        <ele>543.9</ele>
      </trkpt>
      <trkpt lat="36.35374" lon="30.4779">
        <ele>547.7</ele>
      </trkpt>
      <trkpt lat="36.35383" lon="30.47802">
        <ele>551.9</ele>
      </trkpt>
      <trkpt lat="36.35395" lon="30.47801">
        <ele>555.5</ele>
      </trkpt>
      <trkpt lat="36.35405" lon="30.47809">
        <ele>559.6</ele>
      </trkpt>
      <trkpt lat="36.35408" lon="30.47806">
        <ele>560.2</ele>
      </trkpt>
      <trkpt lat="36.35412" lon="30.47795">
        <ele>559.6</ele>
      </trkpt>
      <trkpt lat="36.3543" lon="30.47797">
        <ele>566</ele>
      </trkpt>
      <trkpt lat="36.35433" lon="30.47811">
        <ele>569.1</ele>
      </trkpt>
      <trkpt lat="36.35442" lon="30.47819">
        <ele>573.6</ele>
      </trkpt>
      <trkpt lat="36.35443" lon="30.47833">
        <ele>576.1</ele>
      </trkpt>
      <trkpt lat="36.35456" lon="30.47827">
        <ele>579.7</ele>
      </trkpt>
      <trkpt lat="36.35463" lon="30.47826">
        <ele>582</ele>
      </trkpt>
      <trkpt lat="36.35472" lon="30.47833">
        <ele>586.1</ele>
      </trkpt>
      <trkpt lat="36.35479" lon="30.47833">
        <ele>588.5</ele>
      </trkpt>
      <trkpt lat="36.35485" lon="30.47821">
        <ele>588.5</ele>
      </trkpt>
      <trkpt lat="36.35489" lon="30.47815">
        <ele>589.2</ele>
      </trkpt>
      <trkpt lat="36.35506" lon="30.4781">
        <ele>594</ele>
      </trkpt>
      <trkpt lat="36.35517" lon="30.47791">
        <ele>594.4</ele>
      </trkpt>
      <trkpt lat="36.35541" lon="30.47791">
        <ele>602.4</ele>
      </trkpt>
      <trkpt lat="36.35554" lon="30.47787">
        <ele>605.9</ele>
      </trkpt>
      <trkpt lat="36.35574" lon="30.4777">
        <ele>609.5</ele>
      </trkpt>
      <trkpt lat="36.35584" lon="30.47756">
        <ele>610.3</ele>
      </trkpt>
      <trkpt lat="36.35597" lon="30.47746">
        <ele>615</ele>
      </trkpt>
      <trkpt lat="36.35605" lon="30.4773">
        <ele>619.1</ele>
      </trkpt>
      <trkpt lat="36.35616" lon="30.47731">
        <ele>623.4</ele>
      </trkpt>
      <trkpt lat="36.35626" lon="30.47735">
        <ele>626.7</ele>
      </trkpt>
      <trkpt lat="36.35637" lon="30.4773">
        <ele>631.4</ele>
      </trkpt>
      <trkpt lat="36.35645" lon="30.47713">
        <ele>634.5</ele>
      </trkpt>
      <trkpt lat="36.35644" lon="30.47704">
        <ele>634.1</ele>
      </trkpt>
      <trkpt lat="36.35644" lon="30.477">
        <ele>634.3</ele>
      </trkpt>
      <trkpt lat="36.35645" lon="30.47688">
        <ele>634.7</ele>
      </trkpt>
      <trkpt lat="36.3565" lon="30.47672">
        <ele>636.2</ele>
      </trkpt>
      <trkpt lat="36.35655" lon="30.47617">
        <ele>641.2</ele>
      </trkpt>
      <trkpt lat="36.35675" lon="30.47598">
        <ele>648.4</ele>
      </trkpt>
      <trkpt lat="36.35681" lon="30.47569">
        <ele>651.6</ele>
      </trkpt>
      <trkpt lat="36.35678" lon="30.47537">
        <ele>652.5</ele>
      </trkpt>
      <trkpt lat="36.35685" lon="30.47524">
        <ele>655.4</ele>
      </trkpt>
      <trkpt lat="36.35699" lon="30.47504">
        <ele>660.7</ele>
      </trkpt>
      <trkpt lat="36.35708" lon="30.47486">
        <ele>664.4</ele>
      </trkpt>
      <trkpt lat="36.35718" lon="30.4746">
        <ele>668.2</ele>
      </trkpt>
      <trkpt lat="36.35723" lon="30.47441">
        <ele>670.1</ele>
      </trkpt>
      <trkpt lat="36.35725" lon="30.47414">
        <ele>671.2</ele>
      </trkpt>
      <trkpt lat="36.35733" lon="30.47391">
        <ele>670.7</ele>
      </trkpt>
      <trkpt lat="36.35738" lon="30.47374">
        <ele>669.7</ele>
      </trkpt>
      <trkpt lat="36.35794" lon="30.47341">
        <ele>669.7</ele>
      </trkpt>
      <trkpt lat="36.3581" lon="30.47335">
        <ele>669.3</ele>
      </trkpt>
      <trkpt lat="36.35821" lon="30.47331">
        <ele>668.4</ele>
      </trkpt>
      <trkpt lat="36.35831" lon="30.47331">
        <ele>668.8</ele>
      </trkpt>
      <trkpt lat="36.35834" lon="30.47331">
        <ele>668.8</ele>
      </trkpt>
      <trkpt lat="36.35847" lon="30.47339">
        <ele>668.5</ele>
      </trkpt>
      <trkpt lat="36.35864" lon="30.4736">
        <ele>670.8</ele>
      </trkpt>
      <trkpt lat="36.35885" lon="30.47374">
        <ele>670.7</ele>
      </trkpt>
      <trkpt lat="36.35899" lon="30.4738">
        <ele>669.8</ele>
      </trkpt>
      <trkpt lat="36.35925" lon="30.47386">
        <ele>668.8</ele>
      </trkpt>
      <trkpt lat="36.35941" lon="30.47393">
        <ele>671.6</ele>
      </trkpt>
      <trkpt lat="36.35953" lon="30.47394">
        <ele>672.1</ele>
      </trkpt>
      <trkpt lat="36.35973" lon="30.47392">
        <ele>671.4</ele>
      </trkpt>
      <trkpt lat="36.36013" lon="30.47369">
        <ele>662.6</ele>
      </trkpt>
      <trkpt lat="36.36072" lon="30.47372">
        <ele>664.4</ele>
      </trkpt>
      <trkpt lat="36.36109" lon="30.47361">
        <ele>664.4</ele>
      </trkpt>
      <trkpt lat="36.36132" lon="30.47365">
        <ele>668.8</ele>
      </trkpt>
      <trkpt lat="36.36142" lon="30.4736">
        <ele>668.3</ele>
      </trkpt>
      <trkpt lat="36.36182" lon="30.47325">
        <ele>663.1</ele>
      </trkpt>
      <trkpt lat="36.36194" lon="30.47294">
        <ele>657.5</ele>
      </trkpt>
      <trkpt lat="36.36198" lon="30.47288">
        <ele>656.7</ele>
      </trkpt>
      <trkpt lat="36.36203" lon="30.47286">
        <ele>657.4</ele>
      </trkpt>
      <trkpt lat="36.36212" lon="30.47289">
        <ele>660.1</ele>
      </trkpt>
      <trkpt lat="36.36223" lon="30.47291">
        <ele>662.8</ele>
      </trkpt>
      <trkpt lat="36.36248" lon="30.47293">
        <ele>668.3</ele>
      </trkpt>
      <trkpt lat="36.36272" lon="30.47294">
        <ele>671</ele>
      </trkpt>
      <trkpt lat="36.36298" lon="30.47293">
        <ele>672.9</ele>
      </trkpt>
      <trkpt lat="36.36309" lon="30.47295">
        <ele>674.3</ele>
      </trkpt>
      <trkpt lat="36.36326" lon="30.47303">
        <ele>677.6</ele>
      </trkpt>
      <trkpt lat="36.36338" lon="30.47305">
        <ele>679.6</ele>
      </trkpt>
      <trkpt lat="36.36343" lon="30.4731">
        <ele>682</ele>
      </trkpt>
      <trkpt lat="36.36356" lon="30.47335">
        <ele>690.8</ele>
      </trkpt>
      <trkpt lat="36.36362" lon="30.47347">
        <ele>694.6</ele>
      </trkpt>
      <trkpt lat="36.36374" lon="30.47353">
        <ele>698.5</ele>
      </trkpt>
      <trkpt lat="36.36382" lon="30.47348">
        <ele>699.4</ele>
      </trkpt>
      <trkpt lat="36.36389" lon="30.47354">
        <ele>702</ele>
      </trkpt>
      <trkpt lat="36.36382" lon="30.47397">
        <ele>708.6</ele>
      </trkpt>
      <trkpt lat="36.36376" lon="30.47436">
        <ele>714.4</ele>
      </trkpt>
      <trkpt lat="36.36379" lon="30.47456">
        <ele>717.5</ele>
      </trkpt>
      <trkpt lat="36.36371" lon="30.47492">
        <ele>722.9</ele>
      </trkpt>
      <trkpt lat="36.36367" lon="30.47514">
        <ele>725.1</ele>
      </trkpt>
      <trkpt lat="36.36372" lon="30.47544">
        <ele>726</ele>
      </trkpt>
      <trkpt lat="36.36376" lon="30.4755">
        <ele>725.7</ele>
      </trkpt>
      <trkpt lat="36.36384" lon="30.47587">
        <ele>724.9</ele>
      </trkpt>
      <trkpt lat="36.36393" lon="30.47608">
        <ele>721.5</ele>
      </trkpt>
      <trkpt lat="36.36405" lon="30.47615">
        <ele>717.9</ele>
      </trkpt>
      <trkpt lat="36.36411" lon="30.47628">
        <ele>715</ele>
      </trkpt>
      <trkpt lat="36.36416" lon="30.47645">
        <ele>711.4</ele>
      </trkpt>
      <trkpt lat="36.36421" lon="30.47663">
        <ele>709</ele>
      </trkpt>
      <trkpt lat="36.36416" lon="30.47673">
        <ele>707.8</ele>
      </trkpt>
      <trkpt lat="36.36411" lon="30.47679">
        <ele>708.2</ele>
      </trkpt>
      <trkpt lat="36.36408" lon="30.47709">
        <ele>701.8</ele>
      </trkpt>
      <trkpt lat="36.36404" lon="30.47723">
        <ele>700.3</ele>
      </trkpt>
      <trkpt lat="36.364" lon="30.47744">
        <ele>696.8</ele>
      </trkpt>
      <trkpt lat="36.36389" lon="30.47754">
        <ele>697.7</ele>
      </trkpt>
      <trkpt lat="36.36375" lon="30.47782">
        <ele>690.8</ele>
      </trkpt>
      <trkpt lat="36.36367" lon="30.478">
        <ele>685.4</ele>
      </trkpt>
      <trkpt lat="36.36351" lon="30.47815">
        <ele>683.8</ele>
      </trkpt>
      <trkpt lat="36.36332" lon="30.47826">
        <ele>683.8</ele>
      </trkpt>
      <trkpt lat="36.36328" lon="30.47841">
        <ele>680.7</ele>
      </trkpt>
      <trkpt lat="36.3632" lon="30.47847">
        <ele>682.2</ele>
      </trkpt>
      <trkpt lat="36.36312" lon="30.47857">
        <ele>683.1</ele>
      </trkpt>
      <trkpt lat="36.36305" lon="30.47864">
        <ele>683.8</ele>
      </trkpt>
      <trkpt lat="36.36301" lon="30.47873">
        <ele>683.6</ele>
      </trkpt>
      <trkpt lat="36.36296" lon="30.47885">
        <ele>682.9</ele>
      </trkpt>
      <trkpt lat="36.36304" lon="30.47892">
        <ele>680.6</ele>
      </trkpt>
      <trkpt lat="36.36309" lon="30.47897">
        <ele>679.1</ele>
      </trkpt>
      <trkpt lat="36.36325" lon="30.479">
        <ele>675.9</ele>
      </trkpt>
      <trkpt lat="36.36336" lon="30.47913">
        <ele>672.7</ele>
      </trkpt>
      <trkpt lat="36.36358" lon="30.47926">
        <ele>667.1</ele>
      </trkpt>
      <trkpt lat="36.36364" lon="30.47938">
        <ele>666.7</ele>
      </trkpt>
      <trkpt lat="36.36375" lon="30.47943">
        <ele>664.3</ele>
      </trkpt>
      <trkpt lat="36.36382" lon="30.47959">
        <ele>664.2</ele>
      </trkpt>
      <trkpt lat="36.36384" lon="30.47974">
        <ele>665.2</ele>
      </trkpt>
      <trkpt lat="36.36385" lon="30.47989">
        <ele>666.5</ele>
      </trkpt>
      <trkpt lat="36.36385" lon="30.47996">
        <ele>667.1</ele>
      </trkpt>
      <trkpt lat="36.36397" lon="30.48003">
        <ele>665.6</ele>
      </trkpt>
      <trkpt lat="36.36408" lon="30.48013">
        <ele>665.3</ele>
      </trkpt>
      <trkpt lat="36.36431" lon="30.48015">
        <ele>663.3</ele>
      </trkpt>
      <trkpt lat="36.3644" lon="30.48013">
        <ele>662.6</ele>
      </trkpt>
      <trkpt lat="36.36445" lon="30.48022">
        <ele>663.8</ele>
      </trkpt>
      <trkpt lat="36.3645" lon="30.48024">
        <ele>663.9</ele>
      </trkpt>
      <trkpt lat="36.36457" lon="30.48018">
        <ele>662.7</ele>
      </trkpt>
      <trkpt lat="36.36478" lon="30.48025">
        <ele>662.4</ele>
      </trkpt>
      <trkpt lat="36.3649" lon="30.48028">
        <ele>662</ele>
      </trkpt>
      <trkpt lat="36.36504" lon="30.48025">
        <ele>660.3</ele>
      </trkpt>
      <trkpt lat="36.36514" lon="30.48021">
        <ele>657.8</ele>
      </trkpt>
      <trkpt lat="36.36526" lon="30.48018">
        <ele>654.8</ele>
      </trkpt>
      <trkpt lat="36.36529" lon="30.48014">
        <ele>654</ele>
      </trkpt>
      <trkpt lat="36.36534" lon="30.48013">
        <ele>652.7</ele>
      </trkpt>
      <trkpt lat="36.36542" lon="30.48018">
        <ele>651.6</ele>
      </trkpt>
      <trkpt lat="36.36549" lon="30.48015">
        <ele>649.8</ele>
      </trkpt>
      <trkpt lat="36.36566" lon="30.48007">
        <ele>645.4</ele>
      </trkpt>
      <trkpt lat="36.36575" lon="30.4801">
        <ele>643.7</ele>
      </trkpt>
      <trkpt lat="36.36591" lon="30.48017">
        <ele>641.6</ele>
      </trkpt>
      <trkpt lat="36.36602" lon="30.48034">
        <ele>641.9</ele>
      </trkpt>
      <trkpt lat="36.36619" lon="30.48035">
        <ele>640</ele>
      </trkpt>
      <trkpt lat="36.3663" lon="30.48043">
        <ele>639.6</ele>
      </trkpt>
      <trkpt lat="36.36641" lon="30.48056">
        <ele>639.9</ele>
      </trkpt>
      <trkpt lat="36.36651" lon="30.48072">
        <ele>640.9</ele>
      </trkpt>
      <trkpt lat="36.36662" lon="30.48076">
        <ele>640.4</ele>
      </trkpt>
      <trkpt lat="36.36674" lon="30.48081">
        <ele>639</ele>
      </trkpt>
      <trkpt lat="36.36687" lon="30.48075">
        <ele>635.1</ele>
      </trkpt>
      <trkpt lat="36.36695" lon="30.48059">
        <ele>631.2</ele>
      </trkpt>
      <trkpt lat="36.367" lon="30.48054">
        <ele>629.4</ele>
      </trkpt>
      <trkpt lat="36.36712" lon="30.48057">
        <ele>627.2</ele>
      </trkpt>
      <trkpt lat="36.36723" lon="30.4806">
        <ele>624.9</ele>
      </trkpt>
      <trkpt lat="36.36729" lon="30.48069">
        <ele>624.8</ele>
      </trkpt>
      <trkpt lat="36.36737" lon="30.48072">
        <ele>623.4</ele>
      </trkpt>
      <trkpt lat="36.3674" lon="30.48075">
        <ele>623.1</ele>
      </trkpt>
      <trkpt lat="36.36738" lon="30.48085">
        <ele>624.9</ele>
      </trkpt>
      <trkpt lat="36.36743" lon="30.4809">
        <ele>624.2</ele>
      </trkpt>
      <trkpt lat="36.36747" lon="30.4809">
        <ele>623.2</ele>
      </trkpt>
      <trkpt lat="36.36752" lon="30.48085">
        <ele>621.9</ele>
      </trkpt>
      <trkpt lat="36.36757" lon="30.48084">
        <ele>621.1</ele>
      </trkpt>
      <trkpt lat="36.36761" lon="30.48094">
        <ele>621.4</ele>
      </trkpt>
      <trkpt lat="36.36775" lon="30.48101">
        <ele>620.2</ele>
      </trkpt>
      <trkpt lat="36.3679" lon="30.48109">
        <ele>619</ele>
      </trkpt>
      <trkpt lat="36.36799" lon="30.48112">
        <ele>618.2</ele>
      </trkpt>
      <trkpt lat="36.36811" lon="30.4811">
        <ele>616.5</ele>
      </trkpt>
      <trkpt lat="36.3683" lon="30.48117">
        <ele>615</ele>
      </trkpt>
      <trkpt lat="36.36843" lon="30.48114">
        <ele>613</ele>
      </trkpt>
      <trkpt lat="36.36853" lon="30.48119">
        <ele>612</ele>
      </trkpt>
      <trkpt lat="36.36863" lon="30.48132">
        <ele>611</ele>
      </trkpt>
      <trkpt lat="36.36865" lon="30.48142">
        <ele>611.1</ele>
      </trkpt>
      <trkpt lat="36.36859" lon="30.48153">
        <ele>612.8</ele>
      </trkpt>
      <trkpt lat="36.36861" lon="30.48169">
        <ele>613.8</ele>
      </trkpt>
      <trkpt lat="36.36869" lon="30.48176">
        <ele>614</ele>
      </trkpt>
      <trkpt lat="36.36886" lon="30.48178">
        <ele>611</ele>
      </trkpt>
      <trkpt lat="36.36894" lon="30.48172">
        <ele>606.8</ele>
      </trkpt>
      <trkpt lat="36.369" lon="30.48172">
        <ele>605.4</ele>
      </trkpt>
      <trkpt lat="36.36909" lon="30.48174">
        <ele>603.9</ele>
      </trkpt>
      <trkpt lat="36.3692" lon="30.48184">
        <ele>604.9</ele>
      </trkpt>
      <trkpt lat="36.36928" lon="30.48185">
        <ele>602.7</ele>
      </trkpt>
      <trkpt lat="36.36936" lon="30.48196">
        <ele>604.4</ele>
      </trkpt>
      <trkpt lat="36.36944" lon="30.48196">
        <ele>601.6</ele>
      </trkpt>
      <trkpt lat="36.36955" lon="30.482">
        <ele>599.5</ele>
      </trkpt>
      <trkpt lat="36.36964" lon="30.48192">
        <ele>593.3</ele>
      </trkpt>
      <trkpt lat="36.3697" lon="30.48193">
        <ele>591.5</ele>
      </trkpt>
      <trkpt lat="36.36978" lon="30.48191">
        <ele>588</ele>
      </trkpt>
      <trkpt lat="36.3698" lon="30.48181">
        <ele>583.7</ele>
      </trkpt>
      <trkpt lat="36.36984" lon="30.48173">
        <ele>579.8</ele>
      </trkpt>
      <trkpt lat="36.36987" lon="30.48166">
        <ele>576.4</ele>
      </trkpt>
      <trkpt lat="36.37002" lon="30.48164">
        <ele>571.9</ele>
      </trkpt>
      <trkpt lat="36.37016" lon="30.4817">
        <ele>569.3</ele>
      </trkpt>
      <trkpt lat="36.37026" lon="30.48175">
        <ele>568.4</ele>
      </trkpt>
      <trkpt lat="36.37031" lon="30.48172">
        <ele>566</ele>
      </trkpt>
      <trkpt lat="36.37035" lon="30.48169">
        <ele>563.9</ele>
      </trkpt>
      <trkpt lat="36.37043" lon="30.48163">
        <ele>561.6</ele>
      </trkpt>
      <trkpt lat="36.37051" lon="30.48163">
        <ele>559.5</ele>
      </trkpt>
      <trkpt lat="36.37064" lon="30.48158">
        <ele>556.5</ele>
      </trkpt>
      <trkpt lat="36.3707" lon="30.48155">
        <ele>555.1</ele>
      </trkpt>
      <trkpt lat="36.37079" lon="30.48154">
        <ele>552.7</ele>
      </trkpt>
      <trkpt lat="36.37083" lon="30.48149">
        <ele>552</ele>
      </trkpt>
      <trkpt lat="36.37104" lon="30.48147">
        <ele>545.3</ele>
      </trkpt>
      <trkpt lat="36.37115" lon="30.48142">
        <ele>541.2</ele>
      </trkpt>
      <trkpt lat="36.37126" lon="30.48149">
        <ele>538.3</ele>
      </trkpt>
      <trkpt lat="36.3714" lon="30.48145">
        <ele>533</ele>
      </trkpt>
      <trkpt lat="36.37151" lon="30.48142">
        <ele>528.8</ele>
      </trkpt>
      <trkpt lat="36.37156" lon="30.48134">
        <ele>524.8</ele>
      </trkpt>
      <trkpt lat="36.37158" lon="30.48125">
        <ele>522</ele>
      </trkpt>
      <trkpt lat="36.37163" lon="30.4812">
        <ele>518.8</ele>
      </trkpt>
      <trkpt lat="36.37168" lon="30.48118">
        <ele>516</ele>
      </trkpt>
      <trkpt lat="36.37177" lon="30.4811">
        <ele>511.1</ele>
      </trkpt>
      <trkpt lat="36.37185" lon="30.48114">
        <ele>509.5</ele>
      </trkpt>
      <trkpt lat="36.37191" lon="30.48108">
        <ele>505.6</ele>
      </trkpt>
      <trkpt lat="36.37199" lon="30.48106">
        <ele>502.3</ele>
      </trkpt>
      <trkpt lat="36.37201" lon="30.48097">
        <ele>498.7</ele>
      </trkpt>
      <trkpt lat="36.37211" lon="30.48091">
        <ele>493.1</ele>
      </trkpt>
      <trkpt lat="36.37217" lon="30.48093">
        <ele>491.7</ele>
      </trkpt>
      <trkpt lat="36.37224" lon="30.48087">
        <ele>486.9</ele>
      </trkpt>
      <trkpt lat="36.37234" lon="30.4808">
        <ele>483</ele>
      </trkpt>
      <trkpt lat="36.37249" lon="30.48073">
        <ele>479.1</ele>
      </trkpt>
      <trkpt lat="36.37274" lon="30.48075">
        <ele>471.7</ele>
      </trkpt>
      <trkpt lat="36.37279" lon="30.48085">
        <ele>468.5</ele>
      </trkpt>
      <trkpt lat="36.37281" lon="30.48101">
        <ele>474</ele>
      </trkpt>
      <trkpt lat="36.37286" lon="30.48106">
        <ele>474.5</ele>
      </trkpt>
      <trkpt lat="36.37295" lon="30.481">
        <ele>469.5</ele>
      </trkpt>
      <trkpt lat="36.37305" lon="30.48099">
        <ele>466.3</ele>
      </trkpt>
      <trkpt lat="36.37314" lon="30.48095">
        <ele>462.2</ele>
      </trkpt>
      <trkpt lat="36.37326" lon="30.48094">
        <ele>458.9</ele>
      </trkpt>
      <trkpt lat="36.37333" lon="30.48105">
        <ele>460.6</ele>
      </trkpt>
      <trkpt lat="36.37355" lon="30.48106">
        <ele>451.9</ele>
      </trkpt>
      <trkpt lat="36.37359" lon="30.48093">
        <ele>446.6</ele>
      </trkpt>
      <trkpt lat="36.37376" lon="30.4809">
        <ele>438.8</ele>
      </trkpt>
      <trkpt lat="36.37384" lon="30.48075">
        <ele>435.3</ele>
      </trkpt>
      <trkpt lat="36.37397" lon="30.48075">
        <ele>430.4</ele>
      </trkpt>
      <trkpt lat="36.37403" lon="30.48084">
        <ele>426.3</ele>
      </trkpt>
      <trkpt lat="36.37413" lon="30.48081">
        <ele>423</ele>
      </trkpt>
      <trkpt lat="36.37425" lon="30.48083">
        <ele>418.9</ele>
      </trkpt>
      <trkpt lat="36.37444" lon="30.48087">
        <ele>415</ele>
      </trkpt>
      <trkpt lat="36.37451" lon="30.48071">
        <ele>413.9</ele>
      </trkpt>
      <trkpt lat="36.37466" lon="30.48066">
        <ele>410.4</ele>
      </trkpt>
      <trkpt lat="36.37483" lon="30.48062">
        <ele>405.7</ele>
      </trkpt>
      <trkpt lat="36.37488" lon="30.48054">
        <ele>405.1</ele>
      </trkpt>
      <trkpt lat="36.37493" lon="30.48061">
        <ele>402.9</ele>
      </trkpt>
      <trkpt lat="36.375" lon="30.4806">
        <ele>400.9</ele>
      </trkpt>
      <trkpt lat="36.37496" lon="30.48054">
        <ele>402.8</ele>
      </trkpt>
      <trkpt lat="36.37506" lon="30.48044">
        <ele>400.5</ele>
      </trkpt>
      <trkpt lat="36.37516" lon="30.4804">
        <ele>397.8</ele>
      </trkpt>
      <trkpt lat="36.37524" lon="30.48037">
        <ele>395.1</ele>
      </trkpt>
      <trkpt lat="36.37533" lon="30.48038">
        <ele>392.4</ele>
      </trkpt>
      <trkpt lat="36.37539" lon="30.4804">
        <ele>390.6</ele>
      </trkpt>
      <trkpt lat="36.37547" lon="30.48033">
        <ele>387.4</ele>
      </trkpt>
      <trkpt lat="36.37553" lon="30.48026">
        <ele>384.8</ele>
      </trkpt>
      <trkpt lat="36.37565" lon="30.4802">
        <ele>380</ele>
      </trkpt>
      <trkpt lat="36.37574" lon="30.48016">
        <ele>375.9</ele>
      </trkpt>
      <trkpt lat="36.37581" lon="30.48">
        <ele>370.1</ele>
      </trkpt>
      <trkpt lat="36.37591" lon="30.4801">
        <ele>368.8</ele>
      </trkpt>
      <trkpt lat="36.37593" lon="30.47989">
        <ele>368.9</ele>
      </trkpt>
      <trkpt lat="36.37604" lon="30.47978">
        <ele>367.6</ele>
      </trkpt>
      <trkpt lat="36.37613" lon="30.47982">
        <ele>363.7</ele>
      </trkpt>
      <trkpt lat="36.37625" lon="30.47978">
        <ele>359.9</ele>
      </trkpt>
      <trkpt lat="36.37631" lon="30.47985">
        <ele>356.7</ele>
      </trkpt>
      <trkpt lat="36.37634" lon="30.4798">
        <ele>356.3</ele>
      </trkpt>
      <trkpt lat="36.37648" lon="30.47979">
        <ele>351.2</ele>
      </trkpt>
      <trkpt lat="36.37645" lon="30.47973">
        <ele>352.8</ele>
      </trkpt>
      <trkpt lat="36.37662" lon="30.4797">
        <ele>346.2</ele>
      </trkpt>
      <trkpt lat="36.37674" lon="30.47976">
        <ele>342.4</ele>
      </trkpt>
      <trkpt lat="36.3768" lon="30.4798">
        <ele>341.2</ele>
      </trkpt>
      <trkpt lat="36.37688" lon="30.47973">
        <ele>339.3</ele>
      </trkpt>
      <trkpt lat="36.37678" lon="30.47965">
        <ele>341.7</ele>
      </trkpt>
      <trkpt lat="36.37682" lon="30.47957">
        <ele>340.6</ele>
      </trkpt>
      <trkpt lat="36.37697" lon="30.47954">
        <ele>335.9</ele>
      </trkpt>
      <trkpt lat="36.37701" lon="30.47947">
        <ele>334.1</ele>
      </trkpt>
      <trkpt lat="36.37712" lon="30.47952">
        <ele>331.3</ele>
      </trkpt>
      <trkpt lat="36.37717" lon="30.47942">
        <ele>328.2</ele>
      </trkpt>
      <trkpt lat="36.37737" lon="30.47912">
        <ele>316</ele>
      </trkpt>
      <trkpt lat="36.3775" lon="30.47911">
        <ele>310.2</ele>
      </trkpt>
      <trkpt lat="36.3776" lon="30.47892">
        <ele>309.7</ele>
      </trkpt>
      <trkpt lat="36.37767" lon="30.47887">
        <ele>308.5</ele>
      </trkpt>
      <trkpt lat="36.37796" lon="30.47801">
        <ele>296.4</ele>
      </trkpt>
      <trkpt lat="36.37832" lon="30.47766">
        <ele>279.1</ele>
      </trkpt>
      <trkpt lat="36.37844" lon="30.47729">
        <ele>277.2</ele>
      </trkpt>
      <trkpt lat="36.37849" lon="30.47723">
        <ele>275.7</ele>
      </trkpt>
      <trkpt lat="36.37864" lon="30.4773">
        <ele>267.5</ele>
      </trkpt>
      <trkpt lat="36.37877" lon="30.47728">
        <ele>261.6</ele>
      </trkpt>
      <trkpt lat="36.37899" lon="30.47738">
        <ele>250.2</ele>
      </trkpt>
      <trkpt lat="36.37932" lon="30.47727">
        <ele>241</ele>
      </trkpt>
      <trkpt lat="36.37962" lon="30.47667">
        <ele>227.7</ele>
      </trkpt>
      <trkpt lat="36.37974" lon="30.47655">
        <ele>224.6</ele>
      </trkpt>
      <trkpt lat="36.37983" lon="30.47642">
        <ele>222.4</ele>
      </trkpt>
      <trkpt lat="36.38013" lon="30.47645">
        <ele>215.1</ele>
      </trkpt>
      <trkpt lat="36.38035" lon="30.47636">
        <ele>212.9</ele>
      </trkpt>
      <trkpt lat="36.38055" lon="30.4761">
        <ele>205.2</ele>
      </trkpt>
      <trkpt lat="36.3811" lon="30.47576">
        <ele>189</ele>
      </trkpt>
      <trkpt lat="36.38153" lon="30.47558">
        <ele>184.1</ele>
      </trkpt>
      <trkpt lat="36.38189" lon="30.47515">
        <ele>175.7</ele>
      </trkpt>
      <trkpt lat="36.3823" lon="30.47478">
        <ele>169.7</ele>
      </trkpt>
      <trkpt lat="36.38289" lon="30.47447">
        <ele>166</ele>
      </trkpt>
      <trkpt lat="36.38393" lon="30.47369">
        <ele>156.9</ele>
      </trkpt>
      <trkpt lat="36.38468" lon="30.47341">
        <ele>146.4</ele>
      </trkpt>
      <trkpt lat="36.38563" lon="30.47338">
        <ele>142.3</ele>
      </trkpt>
      <trkpt lat="36.38649" lon="30.47306">
        <ele>138.3</ele>
      </trkpt>
      <trkpt lat="36.38669" lon="30.47304">
        <ele>138.3</ele>
      </trkpt>
      <trkpt lat="36.38699" lon="30.47315">
        <ele>142.4</ele>
      </trkpt>
      <trkpt lat="36.38726" lon="30.47326">
        <ele>147</ele>
      </trkpt>
      <trkpt lat="36.3877" lon="30.47313">
        <ele>141</ele>
      </trkpt>
      <trkpt lat="36.3879" lon="30.47299">
        <ele>133.9</ele>
      </trkpt>
      <trkpt lat="36.38803" lon="30.47299">
        <ele>133.4</ele>
      </trkpt>
      <trkpt lat="36.3881" lon="30.47309">
        <ele>137.9</ele>
      </trkpt>
      <trkpt lat="36.38837" lon="30.47312">
        <ele>137.5</ele>
      </trkpt>
      <trkpt lat="36.38879" lon="30.47306">
        <ele>121.7</ele>
      </trkpt>
      <trkpt lat="36.38922" lon="30.47313">
        <ele>111.5</ele>
      </trkpt>
      <trkpt lat="36.38962" lon="30.47303">
        <ele>95</ele>
      </trkpt>
      <trkpt lat="36.38971" lon="30.47311">
        <ele>95.7</ele>
      </trkpt>
      <trkpt lat="36.38975" lon="30.47317">
        <ele>97.5</ele>
      </trkpt>
      <trkpt lat="36.38987" lon="30.4732">
        <ele>95.4</ele>
      </trkpt>
      <trkpt lat="36.38991" lon="30.47316">
        <ele>92.5</ele>
      </trkpt>
      <trkpt lat="36.39004" lon="30.47313">
        <ele>88.4</ele>
      </trkpt>
      <trkpt lat="36.39023" lon="30.47306">
        <ele>86.6</ele>
      </trkpt>
      <trkpt lat="36.39045" lon="30.47311">
        <ele>90.5</ele>
      </trkpt>
      <trkpt lat="36.3906" lon="30.47302">
        <ele>87.8</ele>
      </trkpt>
      <trkpt lat="36.39086" lon="30.47283">
        <ele>82.7</ele>
      </trkpt>
      <trkpt lat="36.39094" lon="30.47278">
        <ele>81.8</ele>
      </trkpt>
      <trkpt lat="36.39108" lon="30.47261">
        <ele>77.6</ele>
      </trkpt>
      <trkpt lat="36.39113" lon="30.47255">
        <ele>76.1</ele>
      </trkpt>
      <trkpt lat="36.39146" lon="30.47233">
        <ele>70.7</ele>
      </trkpt>
      <trkpt lat="36.39173" lon="30.47232">
        <ele>73</ele>
      </trkpt>
      <trkpt lat="36.39201" lon="30.47223">
        <ele>66.8</ele>
      </trkpt>
      <trkpt lat="36.3921" lon="30.47224">
        <ele>66.4</ele>
      </trkpt>
      <trkpt lat="36.39236" lon="30.47211">
        <ele>58.4</ele>
      </trkpt>
      <trkpt lat="36.39247" lon="30.4721">
        <ele>57.6</ele>
      </trkpt>
      <trkpt lat="36.39255" lon="30.47206">
        <ele>53.8</ele>
      </trkpt>
      <trkpt lat="36.39258" lon="30.47202">
        <ele>51.4</ele>
      </trkpt>
      <trkpt lat="36.39255" lon="30.47188">
        <ele>45.1</ele>
      </trkpt>
      <trkpt lat="36.39256" lon="30.47181">
        <ele>41.8</ele>
      </trkpt>
      <trkpt lat="36.39251" lon="30.47173">
        <ele>38.8</ele>
      </trkpt>
      <trkpt lat="36.39249" lon="30.47161">
        <ele>34.3</ele>
      </trkpt>
      <trkpt lat="36.39257" lon="30.4716">
        <ele>32.4</ele>
      </trkpt>
      <trkpt lat="36.39263" lon="30.47156">
        <ele>29.9</ele>
      </trkpt>
      <trkpt lat="36.3927" lon="30.47151">
        <ele>26.9</ele>
      </trkpt>
      <trkpt lat="36.39276" lon="30.4715">
        <ele>25.3</ele>
      </trkpt>
      <trkpt lat="36.39282" lon="30.47151">
        <ele>24.4</ele>
      </trkpt>
      <trkpt lat="36.39288" lon="30.4715">
        <ele>23.2</ele>
      </trkpt>
      <trkpt lat="36.39293" lon="30.4715">
        <ele>22.2</ele>
      </trkpt>
      <trkpt lat="36.393" lon="30.47149">
        <ele>20.6</ele>
      </trkpt>
      <trkpt lat="36.39315" lon="30.47125">
        <ele>13.9</ele>
      </trkpt>
      <trkpt lat="36.39322" lon="30.47119">
        <ele>12.1</ele>
      </trkpt>
      <trkpt lat="36.39341" lon="30.47115">
        <ele>10.1</ele>
      </trkpt>
      <trkpt lat="36.39373" lon="30.47128">
        <ele>9.5</ele>
      </trkpt>
      <trkpt lat="36.39389" lon="30.47069">
        <ele>8</ele>
      </trkpt>
      <trkpt lat="36.39413" lon="30.47079">
        <ele>7.3</ele>
      </trkpt>
      <trkpt lat="36.3943" lon="30.47093">
        <ele>7.3</ele>
      </trkpt>
      <trkpt lat="36.3945" lon="30.47113">
        <ele>7.8</ele>
      </trkpt>
      <trkpt lat="36.39466" lon="30.47129">
        <ele>8.2</ele>
      </trkpt>
      <trkpt lat="36.39471" lon="30.47134">
        <ele>8.3</ele>
      </trkpt>
      <trkpt lat="36.39477" lon="30.4714">
        <ele>8.5</ele>
      </trkpt>
      <trkpt lat="36.39499" lon="30.47161">
        <ele>9</ele>
      </trkpt>
      <trkpt lat="36.39525" lon="30.47196">
        <ele>9.4</ele>
      </trkpt>
      <trkpt lat="36.39529" lon="30.47202">
        <ele>9.4</ele>
      </trkpt>
      <trkpt lat="36.39542" lon="30.47222">
        <ele>9.3</ele>
      </trkpt>
      <trkpt lat="36.39553" lon="30.4724">
        <ele>9</ele>
      </trkpt>
      <trkpt lat="36.39565" lon="30.47257">
        <ele>8.6</ele>
      </trkpt>
      <trkpt lat="36.39569" lon="30.47262">
        <ele>8.4</ele>
      </trkpt>
      <trkpt lat="36.39578" lon="30.47277">
        <ele>7.7</ele>
      </trkpt>
      <trkpt lat="36.39585" lon="30.47299">
        <ele>7</ele>
      </trkpt>
      <trkpt lat="36.39589" lon="30.47311">
        <ele>7</ele>
      </trkpt>
      <trkpt lat="36.39596" lon="30.47335">
        <ele>7.2</ele>
      </trkpt>
      <trkpt lat="36.39607" lon="30.47358">
        <ele>7.3</ele>
      </trkpt>
      <trkpt lat="36.39615" lon="30.47373">
        <ele>7.4</ele>
      </trkpt>
      <trkpt lat="36.39617" lon="30.47378">
        <ele>7.4</ele>
      </trkpt>
      <trkpt lat="36.3964" lon="30.47438">
        <ele>8.8</ele>
      </trkpt>
      <trkpt lat="36.39643" lon="30.47443">
        <ele>9.1</ele>
      </trkpt>
      <trkpt lat="36.39644" lon="30.47446">
        <ele>9.4</ele>
      </trkpt>
      <trkpt lat="36.39653" lon="30.47503">
        <ele>13</ele>
      </trkpt>
      <trkpt lat="36.39649" lon="30.47549">
        <ele>13.1</ele>
      </trkpt>
      <trkpt lat="36.39652" lon="30.47579">
        <ele>13.6</ele>
      </trkpt>
      <trkpt lat="36.39652" lon="30.47598">
        <ele>11.9</ele>
      </trkpt>
      <trkpt lat="36.39655" lon="30.47612">
        <ele>10.6</ele>
      </trkpt>
      <trkpt lat="36.39699" lon="30.476">
        <ele>11.8</ele>
      </trkpt>
      <trkpt lat="36.39743" lon="30.47593">
        <ele>11.2</ele>
      </trkpt>
      <trkpt lat="36.39821" lon="30.47582">
        <ele>10.9</ele>
      </trkpt>
      <trkpt lat="36.39884" lon="30.47586">
        <ele>10.3</ele>
      </trkpt>
      <trkpt lat="36.39904" lon="30.47593">
        <ele>9.7</ele>
      </trkpt>
      <trkpt lat="36.39949" lon="30.47598">
        <ele>10.2</ele>
      </trkpt>
      <trkpt lat="36.39986" lon="30.47605">
        <ele>10.5</ele>
      </trkpt>
      <trkpt lat="36.39992" lon="30.47607">
        <ele>10.5</ele>
      </trkpt>
      <trkpt lat="36.40004" lon="30.47615">
        <ele>9.9</ele>
      </trkpt>
      <trkpt lat="36.40055" lon="30.47619">
        <ele>9.1</ele>
      </trkpt>
      <trkpt lat="36.40082" lon="30.47613">
        <ele>9.3</ele>
      </trkpt>
      <trkpt lat="36.4009" lon="30.47602">
        <ele>9.5</ele>
      </trkpt>
      <trkpt lat="36.40096" lon="30.47585">
        <ele>10</ele>
      </trkpt>
      <trkpt lat="36.40108" lon="30.47567">
        <ele>13.9</ele>
      </trkpt>
      <trkpt lat="36.40129" lon="30.47528">
        <ele>20.4</ele>
      </trkpt>
      <trkpt lat="36.40138" lon="30.47499">
        <ele>24.4</ele>
      </trkpt>
      <trkpt lat="36.40152" lon="30.47484">
        <ele>24.7</ele>
      </trkpt>
      <trkpt lat="36.40173" lon="30.47478">
        <ele>19.9</ele>
      </trkpt>
      <trkpt lat="36.40189" lon="30.47461">
        <ele>20.8</ele>
      </trkpt>
      <trkpt lat="36.40198" lon="30.47448">
        <ele>21.1</ele>
      </trkpt>
      <trkpt lat="36.40207" lon="30.47438">
        <ele>20.2</ele>
      </trkpt>
      <trkpt lat="36.40221" lon="30.47423">
        <ele>18.1</ele>
      </trkpt>
      <trkpt lat="36.40261" lon="30.47387">
        <ele>9.6</ele>
      </trkpt>
      <trkpt lat="36.40278" lon="30.47374">
        <ele>9</ele>
      </trkpt>
      <trkpt lat="36.40301" lon="30.47364">
        <ele>7.8</ele>
      </trkpt>
      <trkpt lat="36.40323" lon="30.47356">
        <ele>6.3</ele>
      </trkpt>
      <trkpt lat="36.40375" lon="30.47334">
        <ele>5.5</ele>
      </trkpt>
      <trkpt lat="36.40394" lon="30.47327">
        <ele>5.7</ele>
      </trkpt>
      <trkpt lat="36.40405" lon="30.4734">
        <ele>6</ele>
      </trkpt>
      <trkpt lat="36.40418" lon="30.47358">
        <ele>6.4</ele>
      </trkpt>
      <trkpt lat="36.40431" lon="30.47376">
        <ele>7.6</ele>
      </trkpt>
      <trkpt lat="36.40443" lon="30.47394">
        <ele>8.3</ele>
      </trkpt>
      <trkpt lat="36.40449" lon="30.474">
        <ele>8.5</ele>
      </trkpt>
      <trkpt lat="36.40458" lon="30.47404">
        <ele>8.9</ele>
      </trkpt>
      <trkpt lat="36.40472" lon="30.47408">
        <ele>9.4</ele>
      </trkpt>
      <trkpt lat="36.4049" lon="30.47414">
        <ele>9.8</ele>
      </trkpt>
      <trkpt lat="36.40502" lon="30.47417">
        <ele>10.2</ele>
      </trkpt>
      <trkpt lat="36.40522" lon="30.47422">
        <ele>12</ele>
      </trkpt>
      <trkpt lat="36.40544" lon="30.47429">
        <ele>13.4</ele>
      </trkpt>
      <trkpt lat="36.40585" lon="30.4745">
        <ele>13</ele>
      </trkpt>
      <trkpt lat="36.40605" lon="30.47458">
        <ele>12.3</ele>
      </trkpt>
      <trkpt lat="36.40647" lon="30.4746">
        <ele>13.3</ele>
      </trkpt>
      <trkpt lat="36.40682" lon="30.47458">
        <ele>13.8</ele>
      </trkpt>
      <trkpt lat="36.40703" lon="30.47458">
        <ele>12.7</ele>
      </trkpt>
      <trkpt lat="36.40712" lon="30.47459">
        <ele>11.9</ele>
      </trkpt>
      <trkpt lat="36.4072" lon="30.47462">
        <ele>11</ele>
      </trkpt>
      <trkpt lat="36.40729" lon="30.47463">
        <ele>10.3</ele>
      </trkpt>
      <trkpt lat="36.40744" lon="30.47459">
        <ele>10.2</ele>
      </trkpt>
      <trkpt lat="36.40749" lon="30.47458">
        <ele>10.1</ele>
      </trkpt>
      <trkpt lat="36.40761" lon="30.47456">
        <ele>9.9</ele>
      </trkpt>
      <trkpt lat="36.40775" lon="30.47453">
        <ele>9.7</ele>
      </trkpt>
      <trkpt lat="36.40792" lon="30.4745">
        <ele>9.2</ele>
      </trkpt>
      <trkpt lat="36.40809" lon="30.47452">
        <ele>8.3</ele>
      </trkpt>
      <trkpt lat="36.40829" lon="30.47458">
        <ele>7.2</ele>
      </trkpt>
      <trkpt lat="36.4086" lon="30.47461">
        <ele>7.9</ele>
      </trkpt>
      <trkpt lat="36.4088" lon="30.4746">
        <ele>8.8</ele>
      </trkpt>
      <trkpt lat="36.40888" lon="30.47457">
        <ele>9.4</ele>
      </trkpt>
      <trkpt lat="36.40897" lon="30.4745">
        <ele>10.7</ele>
      </trkpt>
      <trkpt lat="36.40906" lon="30.47445">
        <ele>11.7</ele>
      </trkpt>
      <trkpt lat="36.40929" lon="30.4744">
        <ele>13.1</ele>
      </trkpt>
      <trkpt lat="36.40939" lon="30.4744">
        <ele>13.2</ele>
      </trkpt>
      <trkpt lat="36.40948" lon="30.4744">
        <ele>13.3</ele>
      </trkpt>
      <trkpt lat="36.40969" lon="30.47445">
        <ele>12.9</ele>
      </trkpt>
      <trkpt lat="36.40985" lon="30.47452">
        <ele>12.1</ele>
      </trkpt>
      <trkpt lat="36.41003" lon="30.47468">
        <ele>10.1</ele>
      </trkpt>
      <trkpt lat="36.41026" lon="30.47479">
        <ele>7.9</ele>
      </trkpt>
      <trkpt lat="36.41045" lon="30.47485">
        <ele>6.7</ele>
      </trkpt>
      <trkpt lat="36.41068" lon="30.47482">
        <ele>6.2</ele>
      </trkpt>
      <trkpt lat="36.41108" lon="30.47465">
        <ele>6.2</ele>
      </trkpt>
      <trkpt lat="36.41154" lon="30.47446">
        <ele>6.9</ele>
      </trkpt>
      <trkpt lat="36.41183" lon="30.47436">
        <ele>6.6</ele>
      </trkpt>
      <trkpt lat="36.4119" lon="30.47434">
        <ele>6.4</ele>
      </trkpt>
      <trkpt lat="36.41198" lon="30.47422">
        <ele>6.4</ele>
      </trkpt>
      <trkpt lat="36.41206" lon="30.47401">
        <ele>7.8</ele>
      </trkpt>
      <trkpt lat="36.41218" lon="30.47388">
        <ele>8.3</ele>
      </trkpt>
      <trkpt lat="36.41246" lon="30.47367">
        <ele>6.8</ele>
      </trkpt>
      <trkpt lat="36.4127" lon="30.47335">
        <ele>6.5</ele>
      </trkpt>
      <trkpt lat="36.41298" lon="30.47298">
        <ele>11.9</ele>
      </trkpt>
      <trkpt lat="36.41327" lon="30.47276">
        <ele>11.3</ele>
      </trkpt>
      <trkpt lat="36.41346" lon="30.47268">
        <ele>10.8</ele>
      </trkpt>
      <trkpt lat="36.41367" lon="30.47265">
        <ele>10.2</ele>
      </trkpt>
      <trkpt lat="36.4138" lon="30.47257">
        <ele>10.4</ele>
      </trkpt>
      <trkpt lat="36.41392" lon="30.47248">
        <ele>11.1</ele>
      </trkpt>
      <trkpt lat="36.41411" lon="30.47231">
        <ele>15.2</ele>
      </trkpt>
      <trkpt lat="36.41423" lon="30.47221">
        <ele>16.9</ele>
      </trkpt>
      <trkpt lat="36.41452" lon="30.47203">
        <ele>18.4</ele>
      </trkpt>
      <trkpt lat="36.41518" lon="30.47171">
        <ele>16.6</ele>
      </trkpt>
      <trkpt lat="36.41602" lon="30.47126">
        <ele>22</ele>
      </trkpt>
      <trkpt lat="36.41727" lon="30.47059">
        <ele>21.2</ele>
      </trkpt>
      <trkpt lat="36.41756" lon="30.47053">
        <ele>18.5</ele>
      </trkpt>
      <trkpt lat="36.41784" lon="30.47027">
        <ele>18.7</ele>
      </trkpt>
      <trkpt lat="36.41804" lon="30.46996">
        <ele>19.4</ele>
      </trkpt>
      <trkpt lat="36.41818" lon="30.46961">
        <ele>23.9</ele>
      </trkpt>
      <trkpt lat="36.41843" lon="30.46929">
        <ele>24.8</ele>
      </trkpt>
      <trkpt lat="36.41864" lon="30.46909">
        <ele>25.4</ele>
      </trkpt>
      <trkpt lat="36.41891" lon="30.4688">
        <ele>27.1</ele>
      </trkpt>
      <trkpt lat="36.41913" lon="30.46863">
        <ele>24.3</ele>
      </trkpt>
      <trkpt lat="36.41936" lon="30.46839">
        <ele>26.2</ele>
      </trkpt>
      <trkpt lat="36.41956" lon="30.4683">
        <ele>26.5</ele>
      </trkpt>
      <trkpt lat="36.41999" lon="30.46827">
        <ele>23.9</ele>
      </trkpt>
      <trkpt lat="36.42017" lon="30.4683">
        <ele>27.3</ele>
      </trkpt>
      <trkpt lat="36.42026" lon="30.46841">
        <ele>27.7</ele>
      </trkpt>
      <trkpt lat="36.42031" lon="30.46856">
        <ele>26.2</ele>
      </trkpt>
      <trkpt lat="36.42031" lon="30.46879">
        <ele>21.6</ele>
      </trkpt>
      <trkpt lat="36.42031" lon="30.46901">
        <ele>17.2</ele>
      </trkpt>
      <trkpt lat="36.42039" lon="30.46921">
        <ele>15</ele>
      </trkpt>
      <trkpt lat="36.42059" lon="30.46941">
        <ele>15.1</ele>
      </trkpt>
      <trkpt lat="36.42077" lon="30.46956">
        <ele>14.4</ele>
      </trkpt>
      <trkpt lat="36.421" lon="30.46961">
        <ele>17.6</ele>
      </trkpt>
      <trkpt lat="36.4212" lon="30.46976">
        <ele>17.4</ele>
      </trkpt>
      <trkpt lat="36.42161" lon="30.47">
        <ele>15.4</ele>
      </trkpt>
      <trkpt lat="36.42199" lon="30.47029">
        <ele>11.6</ele>
      </trkpt>
      <trkpt lat="36.42248" lon="30.47054">
        <ele>8.5</ele>
      </trkpt>
      <trkpt lat="36.42262" lon="30.47057">
        <ele>7.9</ele>
      </trkpt>
      <trkpt lat="36.42262" lon="30.47057">
        <ele>7.9</ele>
      </trkpt>
      <trkpt lat="36.42262" lon="30.47057">
        <ele>7.9</ele>
      </trkpt>
      <trkpt lat="36.42399" lon="30.47024">
        <ele>6.6</ele>
      </trkpt>
      <trkpt lat="36.42428" lon="30.47019">
        <ele>7</ele>
      </trkpt>
      <trkpt lat="36.42461" lon="30.47018">
        <ele>7.6</ele>
      </trkpt>
      <trkpt lat="36.42493" lon="30.47017">
        <ele>8.1</ele>
      </trkpt>
      <trkpt lat="36.42506" lon="30.47005">
        <ele>9.1</ele>
      </trkpt>
      <trkpt lat="36.42526" lon="30.46979">
        <ele>12</ele>
      </trkpt>
      <trkpt lat="36.42562" lon="30.46953">
        <ele>14.4</ele>
      </trkpt>
      <trkpt lat="36.42585" lon="30.46927">
        <ele>12.8</ele>
      </trkpt>
      <trkpt lat="36.42606" lon="30.4689">
        <ele>13.3</ele>
      </trkpt>
      <trkpt lat="36.42636" lon="30.46831">
        <ele>13.2</ele>
      </trkpt>
      <trkpt lat="36.42655" lon="30.46795">
        <ele>13.8</ele>
      </trkpt>
      <trkpt lat="36.42691" lon="30.46743">
        <ele>12.9</ele>
      </trkpt>
      <trkpt lat="36.42694" lon="30.46738">
        <ele>13.3</ele>
      </trkpt>
      <trkpt lat="36.42714" lon="30.46709">
        <ele>15.1</ele>
      </trkpt>
      <trkpt lat="36.4274" lon="30.46681">
        <ele>15.2</ele>
      </trkpt>
      <trkpt lat="36.42753" lon="30.46658">
        <ele>16</ele>
      </trkpt>
      <trkpt lat="36.42767" lon="30.46642">
        <ele>17.7</ele>
      </trkpt>
      <trkpt lat="36.42786" lon="30.46632">
        <ele>18.3</ele>
      </trkpt>
      <trkpt lat="36.42812" lon="30.46612">
        <ele>18</ele>
      </trkpt>
      <trkpt lat="36.42832" lon="30.46603">
        <ele>16.8</ele>
      </trkpt>
      <trkpt lat="36.42854" lon="30.4658">
        <ele>18.4</ele>
      </trkpt>
      <trkpt lat="36.42868" lon="30.46554">
        <ele>20.8</ele>
      </trkpt>
      <trkpt lat="36.42881" lon="30.46545">
        <ele>21.7</ele>
      </trkpt>
      <trkpt lat="36.42908" lon="30.46526">
        <ele>22.2</ele>
      </trkpt>
      <trkpt lat="36.42928" lon="30.46513">
        <ele>21.7</ele>
      </trkpt>
      <trkpt lat="36.42947" lon="30.465">
        <ele>21</ele>
      </trkpt>
      <trkpt lat="36.42955" lon="30.46495">
        <ele>21.5</ele>
      </trkpt>
      <trkpt lat="36.42962" lon="30.46485">
        <ele>22.4</ele>
      </trkpt>
      <trkpt lat="36.42962" lon="30.46477">
        <ele>23.2</ele>
      </trkpt>
      <trkpt lat="36.42954" lon="30.46471">
        <ele>24.1</ele>
      </trkpt>
      <trkpt lat="36.42933" lon="30.46439">
        <ele>29.7</ele>
      </trkpt>
      <trkpt lat="36.42927" lon="30.46419">
        <ele>33.2</ele>
      </trkpt>
      <trkpt lat="36.42931" lon="30.46409">
        <ele>34.3</ele>
      </trkpt>
      <trkpt lat="36.42932" lon="30.46392">
        <ele>36.7</ele>
      </trkpt>
      <trkpt lat="36.42953" lon="30.46372">
        <ele>35.8</ele>
      </trkpt>
      <trkpt lat="36.42962" lon="30.46362">
        <ele>35.3</ele>
      </trkpt>
      <trkpt lat="36.42967" lon="30.46334">
        <ele>37.5</ele>
      </trkpt>
      <trkpt lat="36.42967" lon="30.46302">
        <ele>41.4</ele>
      </trkpt>
      <trkpt lat="36.42959" lon="30.46274">
        <ele>46.7</ele>
      </trkpt>
      <trkpt lat="36.42966" lon="30.46226">
        <ele>52.4</ele>
      </trkpt>
      <trkpt lat="36.42971" lon="30.46206">
        <ele>55</ele>
      </trkpt>
      <trkpt lat="36.42983" lon="30.46178">
        <ele>57.5</ele>
      </trkpt>
      <trkpt lat="36.42996" lon="30.46156">
        <ele>59.4</ele>
      </trkpt>
      <trkpt lat="36.42987" lon="30.46139">
        <ele>65.2</ele>
      </trkpt>
      <trkpt lat="36.42989" lon="30.46115">
        <ele>70.5</ele>
      </trkpt>
      <trkpt lat="36.43004" lon="30.46108">
        <ele>68.5</ele>
      </trkpt>
      <trkpt lat="36.43001" lon="30.46099">
        <ele>71.1</ele>
      </trkpt>
      <trkpt lat="36.43005" lon="30.46074">
        <ele>76.2</ele>
      </trkpt>
      <trkpt lat="36.43008" lon="30.46046">
        <ele>82.9</ele>
      </trkpt>
      <trkpt lat="36.43009" lon="30.46021">
        <ele>89.4</ele>
      </trkpt>
      <trkpt lat="36.43012" lon="30.45998">
        <ele>94.5</ele>
      </trkpt>
      <trkpt lat="36.43021" lon="30.45978">
        <ele>96.4</ele>
      </trkpt>
      <trkpt lat="36.43027" lon="30.45961">
        <ele>98.5</ele>
      </trkpt>
      <trkpt lat="36.43023" lon="30.45932">
        <ele>107.6</ele>
      </trkpt>
      <trkpt lat="36.43025" lon="30.45911">
        <ele>112.1</ele>
      </trkpt>
      <trkpt lat="36.43019" lon="30.45889">
        <ele>121.6</ele>
      </trkpt>
      <trkpt lat="36.43015" lon="30.45876">
        <ele>127.6</ele>
      </trkpt>
      <trkpt lat="36.43025" lon="30.45862">
        <ele>127.7</ele>
      </trkpt>
      <trkpt lat="36.43036" lon="30.45831">
        <ele>132.9</ele>
      </trkpt>
      <trkpt lat="36.43048" lon="30.45805">
        <ele>135.5</ele>
      </trkpt>
      <trkpt lat="36.43061" lon="30.45791">
        <ele>134.3</ele>
      </trkpt>
      <trkpt lat="36.43073" lon="30.45767">
        <ele>135.6</ele>
      </trkpt>
      <trkpt lat="36.43086" lon="30.45739">
        <ele>138.1</ele>
      </trkpt>
      <trkpt lat="36.4309" lon="30.45711">
        <ele>144.1</ele>
      </trkpt>
      <trkpt lat="36.43107" lon="30.45669">
        <ele>152.3</ele>
      </trkpt>
      <trkpt lat="36.43124" lon="30.45637">
        <ele>158.5</ele>
      </trkpt>
      <trkpt lat="36.43136" lon="30.45613">
        <ele>163.4</ele>
      </trkpt>
      <trkpt lat="36.4315" lon="30.45593">
        <ele>167.8</ele>
      </trkpt>
      <trkpt lat="36.43167" lon="30.45576">
        <ele>172.6</ele>
      </trkpt>
      <trkpt lat="36.43183" lon="30.45558">
        <ele>183.2</ele>
      </trkpt>
      <trkpt lat="36.43188" lon="30.45536">
        <ele>190.6</ele>
      </trkpt>
      <trkpt lat="36.43199" lon="30.45519">
        <ele>196.9</ele>
      </trkpt>
      <trkpt lat="36.43218" lon="30.45502">
        <ele>202.3</ele>
      </trkpt>
      <trkpt lat="36.43238" lon="30.4549">
        <ele>207.2</ele>
      </trkpt>
      <trkpt lat="36.4325" lon="30.4549">
        <ele>207.8</ele>
      </trkpt>
      <trkpt lat="36.43254" lon="30.4548">
        <ele>211.7</ele>
      </trkpt>
      <trkpt lat="36.43258" lon="30.45479">
        <ele>213.2</ele>
      </trkpt>
      <trkpt lat="36.43271" lon="30.45485">
        <ele>215.8</ele>
      </trkpt>
      <trkpt lat="36.43292" lon="30.45478">
        <ele>223.9</ele>
      </trkpt>
      <trkpt lat="36.43301" lon="30.45471">
        <ele>228.3</ele>
      </trkpt>
      <trkpt lat="36.433" lon="30.45458">
        <ele>230.4</ele>
      </trkpt>
      <trkpt lat="36.43304" lon="30.45452">
        <ele>232.5</ele>
      </trkpt>
      <trkpt lat="36.43318" lon="30.45452">
        <ele>236.2</ele>
      </trkpt>
      <trkpt lat="36.43324" lon="30.45444">
        <ele>238.9</ele>
      </trkpt>
      <trkpt lat="36.4333" lon="30.45442">
        <ele>240.8</ele>
      </trkpt>
      <trkpt lat="36.43335" lon="30.45444">
        <ele>241.8</ele>
      </trkpt>
      <trkpt lat="36.43338" lon="30.45442">
        <ele>243</ele>
      </trkpt>
      <trkpt lat="36.4334" lon="30.45435">
        <ele>244.6</ele>
      </trkpt>
      <trkpt lat="36.43349" lon="30.45434">
        <ele>247.4</ele>
      </trkpt>
      <trkpt lat="36.43354" lon="30.45444">
        <ele>247.1</ele>
      </trkpt>
      <trkpt lat="36.43352" lon="30.45472">
        <ele>241.6</ele>
      </trkpt>
      <trkpt lat="36.43357" lon="30.45485">
        <ele>240.1</ele>
      </trkpt>
      <trkpt lat="36.43362" lon="30.45495">
        <ele>239.1</ele>
      </trkpt>
      <trkpt lat="36.43379" lon="30.45486">
        <ele>243.9</ele>
      </trkpt>
      <trkpt lat="36.43393" lon="30.45464">
        <ele>252.2</ele>
      </trkpt>
      <trkpt lat="36.43395" lon="30.45443">
        <ele>258.4</ele>
      </trkpt>
      <trkpt lat="36.43414" lon="30.45418">
        <ele>271.9</ele>
      </trkpt>
      <trkpt lat="36.43425" lon="30.45376">
        <ele>289</ele>
      </trkpt>
      <trkpt lat="36.43442" lon="30.45355">
        <ele>299.6</ele>
      </trkpt>
      <trkpt lat="36.43507" lon="30.45335">
        <ele>318.7</ele>
      </trkpt>
      <trkpt lat="36.43608" lon="30.45278">
        <ele>334.5</ele>
      </trkpt>
      <trkpt lat="36.43644" lon="30.45196">
        <ele>329.5</ele>
      </trkpt>
      <trkpt lat="36.43683" lon="30.45139">
        <ele>314.7</ele>
      </trkpt>
      <trkpt lat="36.43702" lon="30.45096">
        <ele>306.8</ele>
      </trkpt>
      <trkpt lat="36.43703" lon="30.45035">
        <ele>306.3</ele>
      </trkpt>
      <trkpt lat="36.43729" lon="30.4495">
        <ele>297</ele>
      </trkpt>
      <trkpt lat="36.43745" lon="30.44896">
        <ele>289.5</ele>
      </trkpt>
      <trkpt lat="36.43776" lon="30.44854">
        <ele>274</ele>
      </trkpt>
      <trkpt lat="36.43817" lon="30.44811">
        <ele>251.4</ele>
      </trkpt>
      <trkpt lat="36.43832" lon="30.44764">
        <ele>245</ele>
      </trkpt>
      <trkpt lat="36.4386" lon="30.44729">
        <ele>233</ele>
      </trkpt>
      <trkpt lat="36.43879" lon="30.44664">
        <ele>223.6</ele>
      </trkpt>
      <trkpt lat="36.43895" lon="30.44631">
        <ele>217.4</ele>
      </trkpt>
      <trkpt lat="36.43923" lon="30.44604">
        <ele>204.2</ele>
      </trkpt>
      <trkpt lat="36.43951" lon="30.44544">
        <ele>197.3</ele>
      </trkpt>
      <trkpt lat="36.43963" lon="30.44503">
        <ele>196</ele>
      </trkpt>
      <trkpt lat="36.43967" lon="30.44476">
        <ele>192.7</ele>
      </trkpt>
      <trkpt lat="36.43971" lon="30.44415">
        <ele>187.3</ele>
      </trkpt>
      <trkpt lat="36.4396" lon="30.44365">
        <ele>180.8</ele>
      </trkpt>
      <trkpt lat="36.43953" lon="30.44332">
        <ele>175.7</ele>
      </trkpt>
      <trkpt lat="36.43934" lon="30.44297">
        <ele>165.8</ele>
      </trkpt>
      <trkpt lat="36.43922" lon="30.44251">
        <ele>149.7</ele>
      </trkpt>
      <trkpt lat="36.43912" lon="30.4423">
        <ele>148.2</ele>
      </trkpt>
      <trkpt lat="36.43906" lon="30.44221">
        <ele>148.4</ele>
      </trkpt>
      <trkpt lat="36.43888" lon="30.4419">
        <ele>147.2</ele>
      </trkpt>
      <trkpt lat="36.43892" lon="30.44164">
        <ele>143.1</ele>
      </trkpt>
      <trkpt lat="36.43891" lon="30.44159">
        <ele>144.2</ele>
      </trkpt>
      <trkpt lat="36.43885" lon="30.44136">
        <ele>149</ele>
      </trkpt>
      <trkpt lat="36.43928" lon="30.44122">
        <ele>150.1</ele>
      </trkpt>
      <trkpt lat="36.43983" lon="30.44074">
        <ele>156.2</ele>
      </trkpt>
      <trkpt lat="36.43997" lon="30.44072">
        <ele>155.9</ele>
      </trkpt>
      <trkpt lat="36.44024" lon="30.44054">
        <ele>162.7</ele>
      </trkpt>
      <trkpt lat="36.44062" lon="30.44005">
        <ele>171.2</ele>
      </trkpt>
      <trkpt lat="36.4409" lon="30.43986">
        <ele>172.6</ele>
      </trkpt>
      <trkpt lat="36.44119" lon="30.4398">
        <ele>172.3</ele>
      </trkpt>
      <trkpt lat="36.44158" lon="30.4399">
        <ele>165.7</ele>
      </trkpt>
      <trkpt lat="36.44184" lon="30.43991">
        <ele>164.7</ele>
      </trkpt>
      <trkpt lat="36.4422" lon="30.43981">
        <ele>167.3</ele>
      </trkpt>
      <trkpt lat="36.44242" lon="30.43972">
        <ele>169.5</ele>
      </trkpt>
      <trkpt lat="36.44274" lon="30.43965">
        <ele>171.6</ele>
      </trkpt>
      <trkpt lat="36.4435" lon="30.43945">
        <ele>174.2</ele>
      </trkpt>
      <trkpt lat="36.44393" lon="30.43928">
        <ele>175.8</ele>
      </trkpt>
      <trkpt lat="36.44406" lon="30.43912">
        <ele>177.3</ele>
      </trkpt>
      <trkpt lat="36.44409" lon="30.43893">
        <ele>183.1</ele>
      </trkpt>
      <trkpt lat="36.44416" lon="30.43855">
        <ele>193.8</ele>
      </trkpt>
      <trkpt lat="36.44422" lon="30.43838">
        <ele>198.7</ele>
      </trkpt>
      <trkpt lat="36.44424" lon="30.43825">
        <ele>201</ele>
      </trkpt>
      <trkpt lat="36.44436" lon="30.43811">
        <ele>202.8</ele>
      </trkpt>
      <trkpt lat="36.44483" lon="30.43813">
        <ele>201.4</ele>
      </trkpt>
      <trkpt lat="36.44529" lon="30.43803">
        <ele>198</ele>
      </trkpt>
      <trkpt lat="36.44553" lon="30.43773">
        <ele>197.8</ele>
      </trkpt>
      <trkpt lat="36.44575" lon="30.43722">
        <ele>199.5</ele>
      </trkpt>
      <trkpt lat="36.44648" lon="30.43639">
        <ele>202.9</ele>
      </trkpt>
      <trkpt lat="36.44649" lon="30.43623">
        <ele>206.3</ele>
      </trkpt>
      <trkpt lat="36.44657" lon="30.43605">
        <ele>209.4</ele>
      </trkpt>
      <trkpt lat="36.44733" lon="30.43592">
        <ele>201.9</ele>
      </trkpt>
      <trkpt lat="36.44767" lon="30.43557">
        <ele>206.8</ele>
      </trkpt>
      <trkpt lat="36.44791" lon="30.4355">
        <ele>206.8</ele>
      </trkpt>
      <trkpt lat="36.44821" lon="30.43555">
        <ele>203.8</ele>
      </trkpt>
      <trkpt lat="36.44845" lon="30.43549">
        <ele>203.4</ele>
      </trkpt>
      <trkpt lat="36.4486" lon="30.43525">
        <ele>207.5</ele>
      </trkpt>
      <trkpt lat="36.44872" lon="30.43498">
        <ele>212.2</ele>
      </trkpt>
      <trkpt lat="36.44895" lon="30.43478">
        <ele>214.5</ele>
      </trkpt>
      <trkpt lat="36.44902" lon="30.43465">
        <ele>216.9</ele>
      </trkpt>
      <trkpt lat="36.44909" lon="30.43451">
        <ele>219.6</ele>
      </trkpt>
      <trkpt lat="36.44919" lon="30.43442">
        <ele>221</ele>
      </trkpt>
      <trkpt lat="36.44948" lon="30.43441">
        <ele>219.8</ele>
      </trkpt>
      <trkpt lat="36.44975" lon="30.43422">
        <ele>221.9</ele>
      </trkpt>
      <trkpt lat="36.44995" lon="30.4339">
        <ele>223.6</ele>
      </trkpt>
      <trkpt lat="36.44995" lon="30.43367">
        <ele>225.7</ele>
      </trkpt>
      <trkpt lat="36.44964" lon="30.4334">
        <ele>230.8</ele>
      </trkpt>
      <trkpt lat="36.44949" lon="30.43303">
        <ele>235.6</ele>
      </trkpt>
      <trkpt lat="36.44928" lon="30.43289">
        <ele>238.7</ele>
      </trkpt>
      <trkpt lat="36.4491" lon="30.43261">
        <ele>243.7</ele>
      </trkpt>
      <trkpt lat="36.44897" lon="30.43215">
        <ele>255.3</ele>
      </trkpt>
      <trkpt lat="36.44886" lon="30.43226">
        <ele>255.3</ele>
      </trkpt>
      <trkpt lat="36.4488" lon="30.43238">
        <ele>254.5</ele>
      </trkpt>
      <trkpt lat="36.44873" lon="30.43253">
        <ele>253.6</ele>
      </trkpt>
      <trkpt lat="36.4486" lon="30.43267">
        <ele>254.5</ele>
      </trkpt>
      <trkpt lat="36.44845" lon="30.43269">
        <ele>257.5</ele>
      </trkpt>
      <trkpt lat="36.44817" lon="30.43283">
        <ele>262.9</ele>
      </trkpt>
      <trkpt lat="36.4479" lon="30.43302">
        <ele>268.9</ele>
      </trkpt>
      <trkpt lat="36.44768" lon="30.43321">
        <ele>273.5</ele>
      </trkpt>
      <trkpt lat="36.4476" lon="30.43324">
        <ele>275.9</ele>
      </trkpt>
      <trkpt lat="36.44754" lon="30.43319">
        <ele>278.8</ele>
      </trkpt>
      <trkpt lat="36.44755" lon="30.43308">
        <ele>280.3</ele>
      </trkpt>
      <trkpt lat="36.44776" lon="30.4326">
        <ele>281</ele>
      </trkpt>
      <trkpt lat="36.44795" lon="30.43228">
        <ele>278.9</ele>
      </trkpt>
      <trkpt lat="36.44813" lon="30.43175">
        <ele>279.8</ele>
      </trkpt>
      <trkpt lat="36.44825" lon="30.43149">
        <ele>280.5</ele>
      </trkpt>
      <trkpt lat="36.44824" lon="30.43144">
        <ele>281.5</ele>
      </trkpt>
      <trkpt lat="36.44842" lon="30.43116">
        <ele>281.4</ele>
      </trkpt>
      <trkpt lat="36.4492" lon="30.4307">
        <ele>277.4</ele>
      </trkpt>
      <trkpt lat="36.44971" lon="30.43061">
        <ele>274.7</ele>
      </trkpt>
      <trkpt lat="36.44998" lon="30.4308">
        <ele>268.8</ele>
      </trkpt>
      <trkpt lat="36.45045" lon="30.4307">
        <ele>270.9</ele>
      </trkpt>
      <trkpt lat="36.45084" lon="30.4311">
        <ele>265.6</ele>
      </trkpt>
      <trkpt lat="36.45103" lon="30.43115">
        <ele>265.4</ele>
      </trkpt>
      <trkpt lat="36.4515" lon="30.43106">
        <ele>268.6</ele>
      </trkpt>
      <trkpt lat="36.45152" lon="30.43058">
        <ele>277</ele>
      </trkpt>
      <trkpt lat="36.45164" lon="30.43003">
        <ele>288.2</ele>
      </trkpt>
      <trkpt lat="36.45168" lon="30.42987">
        <ele>291.5</ele>
      </trkpt>
      <trkpt lat="36.45172" lon="30.42972">
        <ele>294.6</ele>
      </trkpt>
      <trkpt lat="36.45211" lon="30.42993">
        <ele>294</ele>
      </trkpt>
      <trkpt lat="36.45239" lon="30.42992">
        <ele>296.5</ele>
      </trkpt>
      <trkpt lat="36.45245" lon="30.42987">
        <ele>298</ele>
      </trkpt>
      <trkpt lat="36.45239" lon="30.42963">
        <ele>301.8</ele>
      </trkpt>
      <trkpt lat="36.45242" lon="30.42944">
        <ele>305.4</ele>
      </trkpt>
      <trkpt lat="36.4527" lon="30.42955">
        <ele>305.2</ele>
      </trkpt>
      <trkpt lat="36.453" lon="30.42947">
        <ele>308.1</ele>
      </trkpt>
      <trkpt lat="36.45311" lon="30.42964">
        <ele>305.9</ele>
      </trkpt>
      <trkpt lat="36.45328" lon="30.42975">
        <ele>304.8</ele>
      </trkpt>
      <trkpt lat="36.4535" lon="30.42981">
        <ele>303.2</ele>
      </trkpt>
      <trkpt lat="36.45363" lon="30.42974">
        <ele>303.5</ele>
      </trkpt>
      <trkpt lat="36.45369" lon="30.42966">
        <ele>304.6</ele>
      </trkpt>
      <trkpt lat="36.4538" lon="30.4296">
        <ele>304.8</ele>
      </trkpt>
      <trkpt lat="36.45402" lon="30.42959">
        <ele>303.9</ele>
      </trkpt>
      <trkpt lat="36.45435" lon="30.42927">
        <ele>307.2</ele>
      </trkpt>
      <trkpt lat="36.45462" lon="30.42906">
        <ele>309.3</ele>
      </trkpt>
      <trkpt lat="36.45511" lon="30.42884">
        <ele>312.1</ele>
      </trkpt>
      <trkpt lat="36.45547" lon="30.42859">
        <ele>318.8</ele>
      </trkpt>
      <trkpt lat="36.45521" lon="30.42816">
        <ele>326.9</ele>
      </trkpt>
      <trkpt lat="36.45412" lon="30.42848">
        <ele>322.8</ele>
      </trkpt>
      <trkpt lat="36.45411" lon="30.42843">
        <ele>323.8</ele>
      </trkpt>
      <trkpt lat="36.45409" lon="30.42838">
        <ele>324.9</ele>
      </trkpt>
      <trkpt lat="36.45419" lon="30.42811">
        <ele>330.5</ele>
      </trkpt>
      <trkpt lat="36.45428" lon="30.4279">
        <ele>335.4</ele>
      </trkpt>
      <trkpt lat="36.45433" lon="30.42778">
        <ele>338</ele>
      </trkpt>
      <trkpt lat="36.45432" lon="30.42757">
        <ele>343.3</ele>
      </trkpt>
      <trkpt lat="36.45434" lon="30.42745">
        <ele>346.1</ele>
      </trkpt>
      <trkpt lat="36.45445" lon="30.42725">
        <ele>349.4</ele>
      </trkpt>
      <trkpt lat="36.45462" lon="30.42702">
        <ele>352.6</ele>
      </trkpt>
      <trkpt lat="36.45504" lon="30.42691">
        <ele>351.7</ele>
      </trkpt>
      <trkpt lat="36.45522" lon="30.42689">
        <ele>352.8</ele>
      </trkpt>
      <trkpt lat="36.45538" lon="30.42696">
        <ele>352.1</ele>
      </trkpt>
      <trkpt lat="36.45553" lon="30.42705">
        <ele>351</ele>
      </trkpt>
      <trkpt lat="36.45568" lon="30.42707">
        <ele>351.2</ele>
      </trkpt>
      <trkpt lat="36.45604" lon="30.42696">
        <ele>352.3</ele>
      </trkpt>
      <trkpt lat="36.45616" lon="30.42684">
        <ele>353.5</ele>
      </trkpt>
      <trkpt lat="36.45635" lon="30.42659">
        <ele>357.3</ele>
      </trkpt>
      <trkpt lat="36.45671" lon="30.4263">
        <ele>362.8</ele>
      </trkpt>
      <trkpt lat="36.45697" lon="30.42594">
        <ele>369.8</ele>
      </trkpt>
      <trkpt lat="36.45711" lon="30.42586">
        <ele>370.6</ele>
      </trkpt>
      <trkpt lat="36.45743" lon="30.42567">
        <ele>372.2</ele>
      </trkpt>
      <trkpt lat="36.45776" lon="30.42551">
        <ele>376.1</ele>
      </trkpt>
      <trkpt lat="36.45794" lon="30.42545">
        <ele>378</ele>
      </trkpt>
      <trkpt lat="36.45855" lon="30.4254">
        <ele>380.5</ele>
      </trkpt>
      <trkpt lat="36.45882" lon="30.42528">
        <ele>383.7</ele>
      </trkpt>
      <trkpt lat="36.45922" lon="30.42497">
        <ele>392</ele>
      </trkpt>
      <trkpt lat="36.45935" lon="30.42494">
        <ele>394.7</ele>
      </trkpt>
      <trkpt lat="36.45952" lon="30.42504">
        <ele>392.9</ele>
      </trkpt>
      <trkpt lat="36.45962" lon="30.42502">
        <ele>394.5</ele>
      </trkpt>
      <trkpt lat="36.45965" lon="30.42491">
        <ele>398.5</ele>
      </trkpt>
      <trkpt lat="36.45954" lon="30.42473">
        <ele>404.3</ele>
      </trkpt>
      <trkpt lat="36.45938" lon="30.42466">
        <ele>406.5</ele>
      </trkpt>
      <trkpt lat="36.4593" lon="30.42457">
        <ele>410</ele>
      </trkpt>
      <trkpt lat="36.45932" lon="30.42447">
        <ele>414.1</ele>
      </trkpt>
      <trkpt lat="36.4594" lon="30.42443">
        <ele>416.2</ele>
      </trkpt>
      <trkpt lat="36.45969" lon="30.42447">
        <ele>414.6</ele>
      </trkpt>
      <trkpt lat="36.46018" lon="30.42462">
        <ele>410.9</ele>
      </trkpt>
      <trkpt lat="36.46036" lon="30.42465">
        <ele>410.8</ele>
      </trkpt>
      <trkpt lat="36.46053" lon="30.42457">
        <ele>413.4</ele>
      </trkpt>
      <trkpt lat="36.46067" lon="30.42447">
        <ele>416.4</ele>
      </trkpt>
      <trkpt lat="36.4613" lon="30.42402">
        <ele>424.3</ele>
      </trkpt>
      <trkpt lat="36.4623" lon="30.42381">
        <ele>426.4</ele>
      </trkpt>
      <trkpt lat="36.46273" lon="30.42365">
        <ele>432.4</ele>
      </trkpt>
      <trkpt lat="36.46287" lon="30.42361">
        <ele>434.4</ele>
      </trkpt>
      <trkpt lat="36.46313" lon="30.42363">
        <ele>434.9</ele>
      </trkpt>
      <trkpt lat="36.46338" lon="30.42362">
        <ele>436.9</ele>
      </trkpt>
      <trkpt lat="36.46351" lon="30.42367">
        <ele>437</ele>
      </trkpt>
      <trkpt lat="36.46377" lon="30.42378">
        <ele>437.3</ele>
      </trkpt>
      <trkpt lat="36.46407" lon="30.42397">
        <ele>436</ele>
      </trkpt>
      <trkpt lat="36.46424" lon="30.42404">
        <ele>435.7</ele>
      </trkpt>
      <trkpt lat="36.46436" lon="30.42407">
        <ele>435.9</ele>
      </trkpt>
      <trkpt lat="36.46452" lon="30.42407">
        <ele>436.9</ele>
      </trkpt>
      <trkpt lat="36.4647" lon="30.42403">
        <ele>439.2</ele>
      </trkpt>
      <trkpt lat="36.46481" lon="30.42404">
        <ele>439.6</ele>
      </trkpt>
      <trkpt lat="36.46498" lon="30.42409">
        <ele>439.6</ele>
      </trkpt>
      <trkpt lat="36.4651" lon="30.42409">
        <ele>438.6</ele>
      </trkpt>
      <trkpt lat="36.4652" lon="30.42405">
        <ele>438.5</ele>
      </trkpt>
      <trkpt lat="36.46531" lon="30.42397">
        <ele>439.2</ele>
      </trkpt>
      <trkpt lat="36.46534" lon="30.42387">
        <ele>441.3</ele>
      </trkpt>
      <trkpt lat="36.46542" lon="30.42376">
        <ele>443</ele>
      </trkpt>
      <trkpt lat="36.46564" lon="30.42356">
        <ele>445.5</ele>
      </trkpt>
      <trkpt lat="36.46577" lon="30.42344">
        <ele>447</ele>
      </trkpt>
      <trkpt lat="36.46587" lon="30.42338">
        <ele>447.8</ele>
      </trkpt>
      <trkpt lat="36.46604" lon="30.42321">
        <ele>451.8</ele>
      </trkpt>
      <trkpt lat="36.46622" lon="30.42308">
        <ele>454.6</ele>
      </trkpt>
      <trkpt lat="36.46659" lon="30.42287">
        <ele>457.3</ele>
      </trkpt>
      <trkpt lat="36.46694" lon="30.42271">
        <ele>458.6</ele>
      </trkpt>
      <trkpt lat="36.46711" lon="30.42261">
        <ele>459.7</ele>
      </trkpt>
      <trkpt lat="36.46724" lon="30.42244">
        <ele>463.7</ele>
      </trkpt>
      <trkpt lat="36.46734" lon="30.42233">
        <ele>466.9</ele>
      </trkpt>
      <trkpt lat="36.46751" lon="30.42231">
        <ele>465.8</ele>
      </trkpt>
      <trkpt lat="36.46775" lon="30.4223">
        <ele>467.6</ele>
      </trkpt>
      <trkpt lat="36.46808" lon="30.42226">
        <ele>470.9</ele>
      </trkpt>
      <trkpt lat="36.46857" lon="30.42223">
        <ele>475.1</ele>
      </trkpt>
      <trkpt lat="36.46874" lon="30.42226">
        <ele>475.4</ele>
      </trkpt>
      <trkpt lat="36.46887" lon="30.42234">
        <ele>474.4</ele>
      </trkpt>
      <trkpt lat="36.469" lon="30.42242">
        <ele>473.5</ele>
      </trkpt>
      <trkpt lat="36.46911" lon="30.42242">
        <ele>474.2</ele>
      </trkpt>
      <trkpt lat="36.46925" lon="30.42234">
        <ele>477.6</ele>
      </trkpt>
      <trkpt lat="36.4694" lon="30.42231">
        <ele>480.1</ele>
      </trkpt>
      <trkpt lat="36.46958" lon="30.42235">
        <ele>481.7</ele>
      </trkpt>
      <trkpt lat="36.46979" lon="30.42243">
        <ele>482.7</ele>
      </trkpt>
      <trkpt lat="36.46994" lon="30.42245">
        <ele>484.3</ele>
      </trkpt>
      <trkpt lat="36.47007" lon="30.42248">
        <ele>484</ele>
      </trkpt>
      <trkpt lat="36.47018" lon="30.42247">
        <ele>483.3</ele>
      </trkpt>
      <trkpt lat="36.47028" lon="30.42242">
        <ele>483.8</ele>
      </trkpt>
      <trkpt lat="36.47036" lon="30.42233">
        <ele>485</ele>
      </trkpt>
      <trkpt lat="36.47046" lon="30.42217">
        <ele>487.6</ele>
      </trkpt>
      <trkpt lat="36.47061" lon="30.422">
        <ele>490</ele>
      </trkpt>
      <trkpt lat="36.4708" lon="30.42184">
        <ele>491.7</ele>
      </trkpt>
      <trkpt lat="36.47094" lon="30.42167">
        <ele>493</ele>
      </trkpt>
      <trkpt lat="36.47111" lon="30.42129">
        <ele>498.1</ele>
      </trkpt>
      <trkpt lat="36.47142" lon="30.42098">
        <ele>498.4</ele>
      </trkpt>
      <trkpt lat="36.47157" lon="30.42067">
        <ele>505.3</ele>
      </trkpt>
      <trkpt lat="36.47167" lon="30.42048">
        <ele>511.2</ele>
      </trkpt>
      <trkpt lat="36.47188" lon="30.42034">
        <ele>512.8</ele>
      </trkpt>
      <trkpt lat="36.47217" lon="30.4202">
        <ele>511.7</ele>
      </trkpt>
      <trkpt lat="36.47241" lon="30.41994">
        <ele>515.8</ele>
      </trkpt>
      <trkpt lat="36.47304" lon="30.41953">
        <ele>526.5</ele>
      </trkpt>
      <trkpt lat="36.47326" lon="30.41951">
        <ele>523.3</ele>
      </trkpt>
      <trkpt lat="36.47352" lon="30.4196">
        <ele>519.4</ele>
      </trkpt>
      <trkpt lat="36.47373" lon="30.41954">
        <ele>522.3</ele>
      </trkpt>
      <trkpt lat="36.47401" lon="30.41937">
        <ele>527.6</ele>
      </trkpt>
      <trkpt lat="36.47439" lon="30.41929">
        <ele>529.4</ele>
      </trkpt>
      <trkpt lat="36.47493" lon="30.4189">
        <ele>534.1</ele>
      </trkpt>
      <trkpt lat="36.4751" lon="30.41868">
        <ele>535.6</ele>
      </trkpt>
      <trkpt lat="36.47522" lon="30.41831">
        <ele>539.1</ele>
      </trkpt>
      <trkpt lat="36.47556" lon="30.41801">
        <ele>544.9</ele>
      </trkpt>
      <trkpt lat="36.47594" lon="30.41784">
        <ele>546.9</ele>
      </trkpt>
      <trkpt lat="36.47608" lon="30.41772">
        <ele>550.7</ele>
      </trkpt>
      <trkpt lat="36.47619" lon="30.41768">
        <ele>552.3</ele>
      </trkpt>
      <trkpt lat="36.47626" lon="30.41772">
        <ele>552.1</ele>
      </trkpt>
      <trkpt lat="36.47632" lon="30.41783">
        <ele>550.6</ele>
      </trkpt>
      <trkpt lat="36.4764" lon="30.41791">
        <ele>549.8</ele>
      </trkpt>
      <trkpt lat="36.47642" lon="30.41803">
        <ele>548.2</ele>
      </trkpt>
      <trkpt lat="36.47642" lon="30.41843">
        <ele>541.9</ele>
      </trkpt>
      <trkpt lat="36.47648" lon="30.41861">
        <ele>540.4</ele>
      </trkpt>
      <trkpt lat="36.47684" lon="30.41881">
        <ele>542</ele>
      </trkpt>
      <trkpt lat="36.47702" lon="30.41897">
        <ele>541.6</ele>
      </trkpt>
      <trkpt lat="36.47738" lon="30.41921">
        <ele>541.1</ele>
      </trkpt>
      <trkpt lat="36.47754" lon="30.4194">
        <ele>538.1</ele>
      </trkpt>
      <trkpt lat="36.47771" lon="30.41944">
        <ele>535.5</ele>
      </trkpt>
      <trkpt lat="36.47781" lon="30.41947">
        <ele>533.9</ele>
      </trkpt>
      <trkpt lat="36.47789" lon="30.41952">
        <ele>532.2</ele>
      </trkpt>
      <trkpt lat="36.47797" lon="30.41961">
        <ele>530.2</ele>
      </trkpt>
      <trkpt lat="36.47798" lon="30.41966">
        <ele>529.3</ele>
      </trkpt>
      <trkpt lat="36.478" lon="30.4198">
        <ele>527</ele>
      </trkpt>
      <trkpt lat="36.47804" lon="30.41979">
        <ele>526.8</ele>
      </trkpt>
      <trkpt lat="36.4781" lon="30.41971">
        <ele>527.5</ele>
      </trkpt>
      <trkpt lat="36.47815" lon="30.41963">
        <ele>528.1</ele>
      </trkpt>
      <trkpt lat="36.4782" lon="30.41948">
        <ele>529.6</ele>
      </trkpt>
      <trkpt lat="36.4782" lon="30.41939">
        <ele>530.9</ele>
      </trkpt>
      <trkpt lat="36.47816" lon="30.4192">
        <ele>533.8</ele>
      </trkpt>
      <trkpt lat="36.47805" lon="30.41905">
        <ele>538</ele>
      </trkpt>
      <trkpt lat="36.47805" lon="30.41903">
        <ele>538.3</ele>
      </trkpt>
      <trkpt lat="36.47806" lon="30.41901">
        <ele>538.5</ele>
      </trkpt>
      <trkpt lat="36.47812" lon="30.41902">
        <ele>537.7</ele>
      </trkpt>
      <trkpt lat="36.47818" lon="30.41904">
        <ele>536.5</ele>
      </trkpt>
      <trkpt lat="36.4783" lon="30.41904">
        <ele>534.9</ele>
      </trkpt>
      <trkpt lat="36.47832" lon="30.41909">
        <ele>533.6</ele>
      </trkpt>
      <trkpt lat="36.47836" lon="30.41912">
        <ele>533.2</ele>
      </trkpt>
      <trkpt lat="36.47853" lon="30.41915">
        <ele>534.2</ele>
      </trkpt>
      <trkpt lat="36.47863" lon="30.41909">
        <ele>536.4</ele>
      </trkpt>
      <trkpt lat="36.4787" lon="30.41909">
        <ele>537.1</ele>
      </trkpt>
      <trkpt lat="36.47875" lon="30.41912">
        <ele>537</ele>
      </trkpt>
      <trkpt lat="36.47884" lon="30.41927">
        <ele>535.5</ele>
      </trkpt>
      <trkpt lat="36.4791" lon="30.41962">
        <ele>533.9</ele>
      </trkpt>
      <trkpt lat="36.47931" lon="30.41977">
        <ele>536.6</ele>
      </trkpt>
      <trkpt lat="36.47939" lon="30.41979">
        <ele>538.5</ele>
      </trkpt>
      <trkpt lat="36.4795" lon="30.41975">
        <ele>541.6</ele>
      </trkpt>
      <trkpt lat="36.47975" lon="30.41974">
        <ele>548.6</ele>
      </trkpt>
      <trkpt lat="36.47983" lon="30.41971">
        <ele>551.3</ele>
      </trkpt>
      <trkpt lat="36.47988" lon="30.41971">
        <ele>552.6</ele>
      </trkpt>
      <trkpt lat="36.47995" lon="30.41968">
        <ele>555.1</ele>
      </trkpt>
      <trkpt lat="36.48003" lon="30.4198">
        <ele>555</ele>
      </trkpt>
      <trkpt lat="36.48009" lon="30.41983">
        <ele>556.9</ele>
      </trkpt>
      <trkpt lat="36.48018" lon="30.41984">
        <ele>560.2</ele>
      </trkpt>
      <trkpt lat="36.48031" lon="30.41985">
        <ele>564.6</ele>
      </trkpt>
      <trkpt lat="36.48042" lon="30.41988">
        <ele>568.5</ele>
      </trkpt>
      <trkpt lat="36.4807" lon="30.41999">
        <ele>578.7</ele>
      </trkpt>
      <trkpt lat="36.48064" lon="30.41948">
        <ele>580</ele>
      </trkpt>
      <trkpt lat="36.48064" lon="30.41925">
        <ele>581.7</ele>
      </trkpt>
      <trkpt lat="36.48068" lon="30.41906">
        <ele>585.3</ele>
      </trkpt>
      <trkpt lat="36.48075" lon="30.41877">
        <ele>591.9</ele>
      </trkpt>
      <trkpt lat="36.48058" lon="30.41867">
        <ele>590.4</ele>
      </trkpt>
      <trkpt lat="36.4805" lon="30.41854">
        <ele>591.4</ele>
      </trkpt>
      <trkpt lat="36.48047" lon="30.41847">
        <ele>592.1</ele>
      </trkpt>
      <trkpt lat="36.48056" lon="30.41834">
        <ele>596.3</ele>
      </trkpt>
      <trkpt lat="36.48077" lon="30.41841">
        <ele>598.7</ele>
      </trkpt>
      <trkpt lat="36.48092" lon="30.41835">
        <ele>602.6</ele>
      </trkpt>
      <trkpt lat="36.48118" lon="30.41815">
        <ele>613.5</ele>
      </trkpt>
      <trkpt lat="36.48126" lon="30.41814">
        <ele>615.5</ele>
      </trkpt>
      <trkpt lat="36.48139" lon="30.41817">
        <ele>617</ele>
      </trkpt>
      <trkpt lat="36.48147" lon="30.41813">
        <ele>619.9</ele>
      </trkpt>
      <trkpt lat="36.48153" lon="30.41808">
        <ele>622</ele>
      </trkpt>
      <trkpt lat="36.48154" lon="30.41803">
        <ele>623.4</ele>
      </trkpt>
      <trkpt lat="36.48148" lon="30.41794">
        <ele>624.4</ele>
      </trkpt>
      <trkpt lat="36.48133" lon="30.41798">
        <ele>620.9</ele>
      </trkpt>
      <trkpt lat="36.48129" lon="30.41795">
        <ele>621.1</ele>
      </trkpt>
      <trkpt lat="36.48129" lon="30.41789">
        <ele>622.6</ele>
      </trkpt>
      <trkpt lat="36.48132" lon="30.41784">
        <ele>624.4</ele>
      </trkpt>
      <trkpt lat="36.48146" lon="30.41781">
        <ele>627.2</ele>
      </trkpt>
      <trkpt lat="36.48156" lon="30.4177">
        <ele>631.4</ele>
      </trkpt>
      <trkpt lat="36.48176" lon="30.41758">
        <ele>637.1</ele>
      </trkpt>
      <trkpt lat="36.48184" lon="30.41747">
        <ele>640.9</ele>
      </trkpt>
      <trkpt lat="36.48193" lon="30.41733">
        <ele>648.2</ele>
      </trkpt>
      <trkpt lat="36.48215" lon="30.41722">
        <ele>654.1</ele>
      </trkpt>
      <trkpt lat="36.48236" lon="30.41712">
        <ele>658.2</ele>
      </trkpt>
      <trkpt lat="36.48246" lon="30.41721">
        <ele>656.4</ele>
      </trkpt>
      <trkpt lat="36.48251" lon="30.41733">
        <ele>654.3</ele>
      </trkpt>
      <trkpt lat="36.48248" lon="30.41774">
        <ele>652.4</ele>
      </trkpt>
      <trkpt lat="36.48249" lon="30.41789">
        <ele>654.3</ele>
      </trkpt>
      <trkpt lat="36.48258" lon="30.41814">
        <ele>660.2</ele>
      </trkpt>
      <trkpt lat="36.48262" lon="30.41834">
        <ele>663.5</ele>
      </trkpt>
      <trkpt lat="36.48261" lon="30.41855">
        <ele>668.1</ele>
      </trkpt>
      <trkpt lat="36.48266" lon="30.41862">
        <ele>670.8</ele>
      </trkpt>
      <trkpt lat="36.48271" lon="30.41862">
        <ele>672</ele>
      </trkpt>
      <trkpt lat="36.48274" lon="30.41855">
        <ele>671.3</ele>
      </trkpt>
      <trkpt lat="36.48272" lon="30.41831">
        <ele>666</ele>
      </trkpt>
      <trkpt lat="36.48274" lon="30.41802">
        <ele>664</ele>
      </trkpt>
      <trkpt lat="36.48278" lon="30.41793">
        <ele>664.6</ele>
      </trkpt>
      <trkpt lat="36.48283" lon="30.41791">
        <ele>666.3</ele>
      </trkpt>
      <trkpt lat="36.48285" lon="30.41794">
        <ele>667.3</ele>
      </trkpt>
      <trkpt lat="36.48289" lon="30.41807">
        <ele>669.5</ele>
      </trkpt>
      <trkpt lat="36.48292" lon="30.41822">
        <ele>671.4</ele>
      </trkpt>
      <trkpt lat="36.48301" lon="30.41832">
        <ele>674.4</ele>
      </trkpt>
      <trkpt lat="36.48308" lon="30.4183">
        <ele>676.6</ele>
      </trkpt>
      <trkpt lat="36.48318" lon="30.41818">
        <ele>678.9</ele>
      </trkpt>
      <trkpt lat="36.48324" lon="30.41803">
        <ele>680.7</ele>
      </trkpt>
      <trkpt lat="36.48329" lon="30.41803">
        <ele>682.2</ele>
      </trkpt>
      <trkpt lat="36.48336" lon="30.41814">
        <ele>684.7</ele>
      </trkpt>
      <trkpt lat="36.48345" lon="30.41834">
        <ele>688</ele>
      </trkpt>
      <trkpt lat="36.48345" lon="30.4185">
        <ele>689.4</ele>
      </trkpt>
      <trkpt lat="36.48346" lon="30.41873">
        <ele>691.7</ele>
      </trkpt>
      <trkpt lat="36.48369" lon="30.41899">
        <ele>698.6</ele>
      </trkpt>
      <trkpt lat="36.48375" lon="30.41917">
        <ele>700.6</ele>
      </trkpt>
      <trkpt lat="36.48373" lon="30.41931">
        <ele>702.3</ele>
      </trkpt>
      <trkpt lat="36.48382" lon="30.4194">
        <ele>705</ele>
      </trkpt>
      <trkpt lat="36.48399" lon="30.41936">
        <ele>707</ele>
      </trkpt>
      <trkpt lat="36.48409" lon="30.41942">
        <ele>709.2</ele>
      </trkpt>
      <trkpt lat="36.48417" lon="30.41962">
        <ele>712.4</ele>
      </trkpt>
      <trkpt lat="36.48443" lon="30.41987">
        <ele>718.2</ele>
      </trkpt>
      <trkpt lat="36.48463" lon="30.42014">
        <ele>720.2</ele>
      </trkpt>
      <trkpt lat="36.48483" lon="30.42023">
        <ele>721.2</ele>
      </trkpt>
      <trkpt lat="36.48522" lon="30.42076">
        <ele>719.2</ele>
      </trkpt>
      <trkpt lat="36.48538" lon="30.42097">
        <ele>716.3</ele>
      </trkpt>
      <trkpt lat="36.48585" lon="30.42136">
        <ele>705</ele>
      </trkpt>
      <trkpt lat="36.48672" lon="30.42188">
        <ele>699.4</ele>
      </trkpt>
      <trkpt lat="36.48718" lon="30.42211">
        <ele>695.9</ele>
      </trkpt>
      <trkpt lat="36.48758" lon="30.42187">
        <ele>706.9</ele>
      </trkpt>
      <trkpt lat="36.48792" lon="30.42154">
        <ele>718.4</ele>
      </trkpt>
      <trkpt lat="36.48818" lon="30.42138">
        <ele>723.9</ele>
      </trkpt>
      <trkpt lat="36.48852" lon="30.42144">
        <ele>723.1</ele>
      </trkpt>
      <trkpt lat="36.48875" lon="30.42156">
        <ele>721.1</ele>
      </trkpt>
      <trkpt lat="36.48898" lon="30.42159">
        <ele>722</ele>
      </trkpt>
      <trkpt lat="36.48919" lon="30.4215">
        <ele>727.8</ele>
      </trkpt>
      <trkpt lat="36.48938" lon="30.42152">
        <ele>732.5</ele>
      </trkpt>
      <trkpt lat="36.48947" lon="30.4217">
        <ele>730.2</ele>
      </trkpt>
      <trkpt lat="36.48926" lon="30.42228">
        <ele>719.4</ele>
      </trkpt>
      <trkpt lat="36.48884" lon="30.42306">
        <ele>707.2</ele>
      </trkpt>
      <trkpt lat="36.48879" lon="30.42332">
        <ele>705.5</ele>
      </trkpt>
      <trkpt lat="36.48862" lon="30.42352">
        <ele>700.9</ele>
      </trkpt>
      <trkpt lat="36.4884" lon="30.42404">
        <ele>698.1</ele>
      </trkpt>
      <trkpt lat="36.48827" lon="30.42426">
        <ele>693.9</ele>
      </trkpt>
      <trkpt lat="36.48823" lon="30.42451">
        <ele>694.1</ele>
      </trkpt>
      <trkpt lat="36.48823" lon="30.42469">
        <ele>696.3</ele>
      </trkpt>
      <trkpt lat="36.48815" lon="30.42499">
        <ele>695.7</ele>
      </trkpt>
      <trkpt lat="36.48815" lon="30.42532">
        <ele>692.5</ele>
      </trkpt>
      <trkpt lat="36.48821" lon="30.42552">
        <ele>692.8</ele>
      </trkpt>
      <trkpt lat="36.48828" lon="30.42562">
        <ele>694.7</ele>
      </trkpt>
      <trkpt lat="36.48844" lon="30.42575">
        <ele>701.7</ele>
      </trkpt>
      <trkpt lat="36.48853" lon="30.42588">
        <ele>706</ele>
      </trkpt>
      <trkpt lat="36.48857" lon="30.42613">
        <ele>706.6</ele>
      </trkpt>
      <trkpt lat="36.48854" lon="30.42646">
        <ele>703.5</ele>
      </trkpt>
      <trkpt lat="36.48848" lon="30.42664">
        <ele>699.3</ele>
      </trkpt>
      <trkpt lat="36.48852" lon="30.42685">
        <ele>700.6</ele>
      </trkpt>
      <trkpt lat="36.48857" lon="30.42701">
        <ele>701.8</ele>
      </trkpt>
      <trkpt lat="36.48868" lon="30.42719">
        <ele>704.4</ele>
      </trkpt>
      <trkpt lat="36.48877" lon="30.42729">
        <ele>705.9</ele>
      </trkpt>
      <trkpt lat="36.48901" lon="30.42739">
        <ele>710.9</ele>
      </trkpt>
      <trkpt lat="36.48909" lon="30.4276">
        <ele>706.9</ele>
      </trkpt>
      <trkpt lat="36.48926" lon="30.42761">
        <ele>713.4</ele>
      </trkpt>
      <trkpt lat="36.48944" lon="30.42772">
        <ele>718.1</ele>
      </trkpt>
      <trkpt lat="36.48966" lon="30.42797">
        <ele>718.9</ele>
      </trkpt>
      <trkpt lat="36.48974" lon="30.42827">
        <ele>709.7</ele>
      </trkpt>
      <trkpt lat="36.48995" lon="30.42839">
        <ele>713.4</ele>
      </trkpt>
      <trkpt lat="36.4902" lon="30.42855">
        <ele>719.4</ele>
      </trkpt>
      <trkpt lat="36.49039" lon="30.42885">
        <ele>716.2</ele>
      </trkpt>
      <trkpt lat="36.49051" lon="30.42909">
        <ele>711.4</ele>
      </trkpt>
      <trkpt lat="36.49053" lon="30.42939">
        <ele>704.6</ele>
      </trkpt>
      <trkpt lat="36.49069" lon="30.42992">
        <ele>700.5</ele>
      </trkpt>
      <trkpt lat="36.49065" lon="30.43032">
        <ele>692.8</ele>
      </trkpt>
      <trkpt lat="36.49072" lon="30.43061">
        <ele>691.5</ele>
      </trkpt>
      <trkpt lat="36.49086" lon="30.4307">
        <ele>695</ele>
      </trkpt>
      <trkpt lat="36.49103" lon="30.43086">
        <ele>698.7</ele>
      </trkpt>
      <trkpt lat="36.49126" lon="30.43111">
        <ele>699.1</ele>
      </trkpt>
      <trkpt lat="36.49141" lon="30.43122">
        <ele>699.3</ele>
      </trkpt>
      <trkpt lat="36.49153" lon="30.43114">
        <ele>705.5</ele>
      </trkpt>
      <trkpt lat="36.49179" lon="30.43098">
        <ele>715.9</ele>
      </trkpt>
      <trkpt lat="36.49196" lon="30.43081">
        <ele>723.4</ele>
      </trkpt>
      <trkpt lat="36.49224" lon="30.43075">
        <ele>726.2</ele>
      </trkpt>
      <trkpt lat="36.49245" lon="30.43087">
        <ele>719.3</ele>
      </trkpt>
      <trkpt lat="36.49248" lon="30.43095">
        <ele>715.8</ele>
      </trkpt>
      <trkpt lat="36.49236" lon="30.43105">
        <ele>711.6</ele>
      </trkpt>
      <trkpt lat="36.49242" lon="30.43113">
        <ele>707.9</ele>
      </trkpt>
      <trkpt lat="36.49274" lon="30.43101">
        <ele>714.3</ele>
      </trkpt>
      <trkpt lat="36.49325" lon="30.43125">
        <ele>706.9</ele>
      </trkpt>
      <trkpt lat="36.49382" lon="30.43132">
        <ele>707.5</ele>
      </trkpt>
      <trkpt lat="36.4945" lon="30.43159">
        <ele>706.2</ele>
      </trkpt>
      <trkpt lat="36.49465" lon="30.43177">
        <ele>704</ele>
      </trkpt>
      <trkpt lat="36.49507" lon="30.43169">
        <ele>713</ele>
      </trkpt>
      <trkpt lat="36.49526" lon="30.43175">
        <ele>716.5</ele>
      </trkpt>
      <trkpt lat="36.49563" lon="30.43224">
        <ele>713.8</ele>
      </trkpt>
      <trkpt lat="36.49573" lon="30.4325">
        <ele>710.2</ele>
      </trkpt>
      <trkpt lat="36.4961" lon="30.43253">
        <ele>714.9</ele>
      </trkpt>
      <trkpt lat="36.49645" lon="30.4324">
        <ele>721.2</ele>
      </trkpt>
      <trkpt lat="36.49674" lon="30.43247">
        <ele>721.4</ele>
      </trkpt>
      <trkpt lat="36.49714" lon="30.43239">
        <ele>721.3</ele>
      </trkpt>
      <trkpt lat="36.49763" lon="30.43183">
        <ele>733.2</ele>
      </trkpt>
      <trkpt lat="36.49798" lon="30.43147">
        <ele>739.9</ele>
      </trkpt>
      <trkpt lat="36.49834" lon="30.43141">
        <ele>739</ele>
      </trkpt>
      <trkpt lat="36.49878" lon="30.43073">
        <ele>748.2</ele>
      </trkpt>
      <trkpt lat="36.49899" lon="30.43059">
        <ele>749.5</ele>
      </trkpt>
      <trkpt lat="36.4993" lon="30.43065">
        <ele>749</ele>
      </trkpt>
      <trkpt lat="36.49953" lon="30.43071">
        <ele>750.5</ele>
      </trkpt>
      <trkpt lat="36.49971" lon="30.43063">
        <ele>753.4</ele>
      </trkpt>
      <trkpt lat="36.49997" lon="30.43036">
        <ele>759.4</ele>
      </trkpt>
      <trkpt lat="36.50029" lon="30.42998">
        <ele>763.8</ele>
      </trkpt>
      <trkpt lat="36.5005" lon="30.42968">
        <ele>766.6</ele>
      </trkpt>
      <trkpt lat="36.50075" lon="30.42904">
        <ele>772.7</ele>
      </trkpt>
      <trkpt lat="36.50091" lon="30.42859">
        <ele>777.8</ele>
      </trkpt>
      <trkpt lat="36.5012" lon="30.42827">
        <ele>782</ele>
      </trkpt>
      <trkpt lat="36.50158" lon="30.42818">
        <ele>783.3</ele>
      </trkpt>
      <trkpt lat="36.50194" lon="30.42797">
        <ele>789</ele>
      </trkpt>
      <trkpt lat="36.50229" lon="30.42788">
        <ele>791.1</ele>
      </trkpt>
      <trkpt lat="36.50265" lon="30.42783">
        <ele>792</ele>
      </trkpt>
      <trkpt lat="36.50293" lon="30.42771">
        <ele>793.9</ele>
      </trkpt>
      <trkpt lat="36.50319" lon="30.42765">
        <ele>794.6</ele>
      </trkpt>
      <trkpt lat="36.50351" lon="30.42752">
        <ele>796.1</ele>
      </trkpt>
      <trkpt lat="36.50385" lon="30.42728">
        <ele>799.7</ele>
      </trkpt>
      <trkpt lat="36.50399" lon="30.42694">
        <ele>804</ele>
      </trkpt>
      <trkpt lat="36.50401" lon="30.42666">
        <ele>807.7</ele>
      </trkpt>
      <trkpt lat="36.50402" lon="30.42625">
        <ele>813.7</ele>
      </trkpt>
      <trkpt lat="36.50408" lon="30.42584">
        <ele>819.4</ele>
      </trkpt>
      <trkpt lat="36.50414" lon="30.42555">
        <ele>823.9</ele>
      </trkpt>
      <trkpt lat="36.50414" lon="30.42531">
        <ele>828</ele>
      </trkpt>
      <trkpt lat="36.50408" lon="30.42504">
        <ele>832.6</ele>
      </trkpt>
      <trkpt lat="36.50394" lon="30.42475">
        <ele>837.3</ele>
      </trkpt>
      <trkpt lat="36.50395" lon="30.42458">
        <ele>839.8</ele>
      </trkpt>
      <trkpt lat="36.50405" lon="30.42432">
        <ele>842.8</ele>
      </trkpt>
      <trkpt lat="36.50409" lon="30.42423">
        <ele>843.7</ele>
      </trkpt>
      <trkpt lat="36.50415" lon="30.42411">
        <ele>844.9</ele>
      </trkpt>
      <trkpt lat="36.50419" lon="30.42406">
        <ele>845.6</ele>
      </trkpt>
      <trkpt lat="36.50424" lon="30.42398">
        <ele>847.2</ele>
      </trkpt>
      <trkpt lat="36.50431" lon="30.42398">
        <ele>847.9</ele>
      </trkpt>
      <trkpt lat="36.50435" lon="30.42397">
        <ele>848.4</ele>
      </trkpt>
      <trkpt lat="36.50442" lon="30.42401">
        <ele>848.5</ele>
      </trkpt>
      <trkpt lat="36.50445" lon="30.4241">
        <ele>847.6</ele>
      </trkpt>
      <trkpt lat="36.50451" lon="30.42416">
        <ele>847.3</ele>
      </trkpt>
      <trkpt lat="36.50458" lon="30.42417">
        <ele>847.9</ele>
      </trkpt>
      <trkpt lat="36.50462" lon="30.42411">
        <ele>849.1</ele>
      </trkpt>
      <trkpt lat="36.50461" lon="30.42401">
        <ele>850.5</ele>
      </trkpt>
      <trkpt lat="36.50461" lon="30.42389">
        <ele>852</ele>
      </trkpt>
      <trkpt lat="36.50459" lon="30.42381">
        <ele>853</ele>
      </trkpt>
      <trkpt lat="36.50458" lon="30.42365">
        <ele>855.1</ele>
      </trkpt>
      <trkpt lat="36.50457" lon="30.42349">
        <ele>857.1</ele>
      </trkpt>
      <trkpt lat="36.50459" lon="30.42343">
        <ele>858.2</ele>
      </trkpt>
      <trkpt lat="36.50464" lon="30.42338">
        <ele>859.4</ele>
      </trkpt>
      <trkpt lat="36.50467" lon="30.42338">
        <ele>859.8</ele>
      </trkpt>
      <trkpt lat="36.5048" lon="30.42352">
        <ele>859.2</ele>
      </trkpt>
      <trkpt lat="36.5049" lon="30.42365">
        <ele>858.4</ele>
      </trkpt>
      <trkpt lat="36.50501" lon="30.42375">
        <ele>858.1</ele>
      </trkpt>
      <trkpt lat="36.50517" lon="30.42382">
        <ele>858.8</ele>
      </trkpt>
      <trkpt lat="36.50532" lon="30.42382">
        <ele>860.3</ele>
      </trkpt>
      <trkpt lat="36.5054" lon="30.42373">
        <ele>862.7</ele>
      </trkpt>
      <trkpt lat="36.5054" lon="30.42351">
        <ele>866.3</ele>
      </trkpt>
      <trkpt lat="36.50534" lon="30.42331">
        <ele>868.9</ele>
      </trkpt>
      <trkpt lat="36.50529" lon="30.42309">
        <ele>871.9</ele>
      </trkpt>
      <trkpt lat="36.50523" lon="30.4227">
        <ele>877.4</ele>
      </trkpt>
      <trkpt lat="36.50524" lon="30.4225">
        <ele>880.8</ele>
      </trkpt>
      <trkpt lat="36.5053" lon="30.42233">
        <ele>883.1</ele>
      </trkpt>
      <trkpt lat="36.50543" lon="30.42209">
        <ele>887.2</ele>
      </trkpt>
      <trkpt lat="36.50565" lon="30.42177">
        <ele>893.8</ele>
      </trkpt>
      <trkpt lat="36.50571" lon="30.42146">
        <ele>898.7</ele>
      </trkpt>
      <trkpt lat="36.50572" lon="30.42141">
        <ele>899.7</ele>
      </trkpt>
      <trkpt lat="36.50581" lon="30.42122">
        <ele>904</ele>
      </trkpt>
      <trkpt lat="36.50592" lon="30.42113">
        <ele>906.6</ele>
      </trkpt>
      <trkpt lat="36.50616" lon="30.42109">
        <ele>909.4</ele>
      </trkpt>
      <trkpt lat="36.50651" lon="30.42098">
        <ele>914.7</ele>
      </trkpt>
      <trkpt lat="36.50674" lon="30.42074">
        <ele>921.8</ele>
      </trkpt>
      <trkpt lat="36.50679" lon="30.42072">
        <ele>923.2</ele>
      </trkpt>
      <trkpt lat="36.50696" lon="30.42066">
        <ele>927.2</ele>
      </trkpt>
      <trkpt lat="36.50714" lon="30.42061">
        <ele>931.1</ele>
      </trkpt>
      <trkpt lat="36.50726" lon="30.42055">
        <ele>934</ele>
      </trkpt>
      <trkpt lat="36.50741" lon="30.42055">
        <ele>936.5</ele>
      </trkpt>
      <trkpt lat="36.50748" lon="30.42062">
        <ele>936.9</ele>
      </trkpt>
      <trkpt lat="36.50754" lon="30.42065">
        <ele>938</ele>
      </trkpt>
      <trkpt lat="36.50759" lon="30.42062">
        <ele>940</ele>
      </trkpt>
      <trkpt lat="36.50759" lon="30.42051">
        <ele>941.4</ele>
      </trkpt>
      <trkpt lat="36.50758" lon="30.42026">
        <ele>943.7</ele>
      </trkpt>
      <trkpt lat="36.50758" lon="30.42013">
        <ele>945.6</ele>
      </trkpt>
      <trkpt lat="36.50761" lon="30.42008">
        <ele>946.8</ele>
      </trkpt>
      <trkpt lat="36.50765" lon="30.42004">
        <ele>948.9</ele>
      </trkpt>
      <trkpt lat="36.50771" lon="30.42006">
        <ele>950.7</ele>
      </trkpt>
      <trkpt lat="36.50774" lon="30.42016">
        <ele>950.5</ele>
      </trkpt>
      <trkpt lat="36.50777" lon="30.42038">
        <ele>948.6</ele>
      </trkpt>
      <trkpt lat="36.5078" lon="30.42051">
        <ele>947.9</ele>
      </trkpt>
      <trkpt lat="36.5079" lon="30.42084">
        <ele>945.8</ele>
      </trkpt>
      <trkpt lat="36.508" lon="30.42108">
        <ele>944</ele>
      </trkpt>
      <trkpt lat="36.50821" lon="30.4212">
        <ele>947.6</ele>
      </trkpt>
      <trkpt lat="36.50838" lon="30.42115">
        <ele>952.4</ele>
      </trkpt>
      <trkpt lat="36.50852" lon="30.421">
        <ele>956.7</ele>
      </trkpt>
      <trkpt lat="36.50882" lon="30.42075">
        <ele>963.8</ele>
      </trkpt>
      <trkpt lat="36.50897" lon="30.4207">
        <ele>966.5</ele>
      </trkpt>
      <trkpt lat="36.50955" lon="30.42033">
        <ele>976.7</ele>
      </trkpt>
      <trkpt lat="36.50978" lon="30.42022">
        <ele>979.4</ele>
      </trkpt>
      <trkpt lat="36.51028" lon="30.42013">
        <ele>983.6</ele>
      </trkpt>
      <trkpt lat="36.51079" lon="30.42013">
        <ele>987.7</ele>
      </trkpt>
      <trkpt lat="36.51119" lon="30.42003">
        <ele>988.3</ele>
      </trkpt>
      <trkpt lat="36.51143" lon="30.4199">
        <ele>988.8</ele>
      </trkpt>
      <trkpt lat="36.5121" lon="30.41935">
        <ele>994.6</ele>
      </trkpt>
      <trkpt lat="36.51234" lon="30.41925">
        <ele>995.8</ele>
      </trkpt>
      <trkpt lat="36.51255" lon="30.41926">
        <ele>996.3</ele>
      </trkpt>
      <trkpt lat="36.51275" lon="30.41925">
        <ele>999.7</ele>
      </trkpt>
      <trkpt lat="36.51301" lon="30.4193">
        <ele>1003.2</ele>
      </trkpt>
      <trkpt lat="36.51346" lon="30.41937">
        <ele>1010.6</ele>
      </trkpt>
      <trkpt lat="36.51372" lon="30.41937">
        <ele>1017.2</ele>
      </trkpt>
      <trkpt lat="36.5141" lon="30.41932">
        <ele>1028.6</ele>
      </trkpt>
      <trkpt lat="36.51436" lon="30.41927">
        <ele>1036.2</ele>
      </trkpt>
      <trkpt lat="36.51473" lon="30.41927">
        <ele>1044.5</ele>
      </trkpt>
      <trkpt lat="36.51487" lon="30.4192">
        <ele>1049.4</ele>
      </trkpt>
      <trkpt lat="36.51507" lon="30.41924">
        <ele>1052.9</ele>
      </trkpt>
      <trkpt lat="36.51534" lon="30.4192">
        <ele>1060.1</ele>
      </trkpt>
      <trkpt lat="36.51555" lon="30.41923">
        <ele>1064.2</ele>
      </trkpt>
      <trkpt lat="36.51622" lon="30.41921">
        <ele>1077.7</ele>
      </trkpt>
      <trkpt lat="36.51633" lon="30.41915">
        <ele>1080.7</ele>
      </trkpt>
      <trkpt lat="36.51653" lon="30.41923">
        <ele>1083</ele>
      </trkpt>
      <trkpt lat="36.51683" lon="30.41941">
        <ele>1087.6</ele>
      </trkpt>
      <trkpt lat="36.51697" lon="30.41947">
        <ele>1091</ele>
      </trkpt>
      <trkpt lat="36.51764" lon="30.42028">
        <ele>1106.1</ele>
      </trkpt>
      <trkpt lat="36.51791" lon="30.42078">
        <ele>1112.3</ele>
      </trkpt>
      <trkpt lat="36.51827" lon="30.42079">
        <ele>1119.9</ele>
      </trkpt>
      <trkpt lat="36.51884" lon="30.421">
        <ele>1128.7</ele>
      </trkpt>
      <trkpt lat="36.5191" lon="30.42092">
        <ele>1133.9</ele>
      </trkpt>
      <trkpt lat="36.51933" lon="30.42103">
        <ele>1137</ele>
      </trkpt>
      <trkpt lat="36.51964" lon="30.42108">
        <ele>1142.7</ele>
      </trkpt>
      <trkpt lat="36.51996" lon="30.42117">
        <ele>1147.8</ele>
      </trkpt>
      <trkpt lat="36.52028" lon="30.42106">
        <ele>1155</ele>
      </trkpt>
      <trkpt lat="36.52061" lon="30.42103">
        <ele>1161.1</ele>
      </trkpt>
      <trkpt lat="36.52089" lon="30.42109">
        <ele>1165.5</ele>
      </trkpt>
      <trkpt lat="36.52118" lon="30.42119">
        <ele>1169.1</ele>
      </trkpt>
      <trkpt lat="36.52157" lon="30.42103">
        <ele>1177.5</ele>
      </trkpt>
      <trkpt lat="36.52194" lon="30.42105">
        <ele>1183.5</ele>
      </trkpt>
      <trkpt lat="36.52225" lon="30.42113">
        <ele>1187.7</ele>
      </trkpt>
      <trkpt lat="36.52252" lon="30.42109">
        <ele>1193.1</ele>
      </trkpt>
      <trkpt lat="36.52262" lon="30.42115">
        <ele>1196</ele>
      </trkpt>
      <trkpt lat="36.52282" lon="30.42147">
        <ele>1197.3</ele>
      </trkpt>
      <trkpt lat="36.52317" lon="30.42165">
        <ele>1203.8</ele>
      </trkpt>
      <trkpt lat="36.52349" lon="30.42177">
        <ele>1208.8</ele>
      </trkpt>
      <trkpt lat="36.52373" lon="30.42195">
        <ele>1209.2</ele>
      </trkpt>
      <trkpt lat="36.52407" lon="30.42227">
        <ele>1206.3</ele>
      </trkpt>
      <trkpt lat="36.52431" lon="30.42256">
        <ele>1203.3</ele>
      </trkpt>
      <trkpt lat="36.5245" lon="30.42267">
        <ele>1207.1</ele>
      </trkpt>
      <trkpt lat="36.52458" lon="30.4227">
        <ele>1208.8</ele>
      </trkpt>
      <trkpt lat="36.52465" lon="30.42269">
        <ele>1210.8</ele>
      </trkpt>
      <trkpt lat="36.52471" lon="30.42276">
        <ele>1211.4</ele>
      </trkpt>
      <trkpt lat="36.52471" lon="30.42292">
        <ele>1209.5</ele>
      </trkpt>
      <trkpt lat="36.52481" lon="30.4231">
        <ele>1209.5</ele>
      </trkpt>
      <trkpt lat="36.52494" lon="30.42306">
        <ele>1213.4</ele>
      </trkpt>
      <trkpt lat="36.525" lon="30.42305">
        <ele>1215.2</ele>
      </trkpt>
      <trkpt lat="36.52502" lon="30.4229">
        <ele>1217.8</ele>
      </trkpt>
      <trkpt lat="36.52517" lon="30.42289">
        <ele>1222.1</ele>
      </trkpt>
      <trkpt lat="36.52535" lon="30.42304">
        <ele>1225</ele>
      </trkpt>
      <trkpt lat="36.52586" lon="30.42297">
        <ele>1240.4</ele>
      </trkpt>
      <trkpt lat="36.52621" lon="30.42318">
        <ele>1248.8</ele>
      </trkpt>
      <trkpt lat="36.52621" lon="30.42321">
        <ele>1248.1</ele>
      </trkpt>
      <trkpt lat="36.5262" lon="30.42323">
        <ele>1247.8</ele>
      </trkpt>
      <trkpt lat="36.5263" lon="30.42325">
        <ele>1250.4</ele>
      </trkpt>
      <trkpt lat="36.52646" lon="30.4232">
        <ele>1255.9</ele>
      </trkpt>
      <trkpt lat="36.52653" lon="30.42322">
        <ele>1257.7</ele>
      </trkpt>
      <trkpt lat="36.52665" lon="30.42327">
        <ele>1260.6</ele>
      </trkpt>
      <trkpt lat="36.52674" lon="30.4234">
        <ele>1262</ele>
      </trkpt>
      <trkpt lat="36.52686" lon="30.4233">
        <ele>1267.3</ele>
      </trkpt>
      <trkpt lat="36.52696" lon="30.42314">
        <ele>1273.2</ele>
      </trkpt>
      <trkpt lat="36.52696" lon="30.42311">
        <ele>1274</ele>
      </trkpt>
      <trkpt lat="36.52697" lon="30.42309">
        <ele>1274.4</ele>
      </trkpt>
      <trkpt lat="36.52695" lon="30.42292">
        <ele>1276.6</ele>
      </trkpt>
      <trkpt lat="36.52702" lon="30.42282">
        <ele>1280.9</ele>
      </trkpt>
      <trkpt lat="36.52711" lon="30.42284">
        <ele>1284</ele>
      </trkpt>
      <trkpt lat="36.52726" lon="30.42257">
        <ele>1294.8</ele>
      </trkpt>
      <trkpt lat="36.52729" lon="30.42225">
        <ele>1304.3</ele>
      </trkpt>
      <trkpt lat="36.52712" lon="30.42202">
        <ele>1303.6</ele>
      </trkpt>
      <trkpt lat="36.52701" lon="30.42198">
        <ele>1300.2</ele>
      </trkpt>
      <trkpt lat="36.52695" lon="30.42191">
        <ele>1299.7</ele>
      </trkpt>
      <trkpt lat="36.52688" lon="30.42187">
        <ele>1297.7</ele>
      </trkpt>
      <trkpt lat="36.52687" lon="30.42179">
        <ele>1299.7</ele>
      </trkpt>
      <trkpt lat="36.52697" lon="30.42176">
        <ele>1304.7</ele>
      </trkpt>
      <trkpt lat="36.52704" lon="30.42178">
        <ele>1306.7</ele>
      </trkpt>
      <trkpt lat="36.52711" lon="30.42172">
        <ele>1311.1</ele>
      </trkpt>
      <trkpt lat="36.52722" lon="30.42164">
        <ele>1317.2</ele>
      </trkpt>
      <trkpt lat="36.52725" lon="30.42151">
        <ele>1321.3</ele>
      </trkpt>
      <trkpt lat="36.52736" lon="30.42146">
        <ele>1326.6</ele>
      </trkpt>
      <trkpt lat="36.52747" lon="30.42141">
        <ele>1331.6</ele>
      </trkpt>
      <trkpt lat="36.52758" lon="30.42145">
        <ele>1334.8</ele>
      </trkpt>
      <trkpt lat="36.52773" lon="30.4215">
        <ele>1339</ele>
      </trkpt>
      <trkpt lat="36.52781" lon="30.42145">
        <ele>1342.9</ele>
      </trkpt>
      <trkpt lat="36.52781" lon="30.42136">
        <ele>1344.8</ele>
      </trkpt>
      <trkpt lat="36.52793" lon="30.42125">
        <ele>1351.9</ele>
      </trkpt>
      <trkpt lat="36.52809" lon="30.4213">
        <ele>1356.5</ele>
      </trkpt>
      <trkpt lat="36.52823" lon="30.4214">
        <ele>1359.4</ele>
      </trkpt>
      <trkpt lat="36.52843" lon="30.42143">
        <ele>1365.7</ele>
      </trkpt>
      <trkpt lat="36.52864" lon="30.42151">
        <ele>1371.2</ele>
      </trkpt>
      <trkpt lat="36.52883" lon="30.42146">
        <ele>1379.3</ele>
      </trkpt>
      <trkpt lat="36.52893" lon="30.42147">
        <ele>1382.8</ele>
      </trkpt>
      <trkpt lat="36.52904" lon="30.42136">
        <ele>1389.8</ele>
      </trkpt>
      <trkpt lat="36.52931" lon="30.4214">
        <ele>1398.6</ele>
      </trkpt>
      <trkpt lat="36.52939" lon="30.42152">
        <ele>1398.2</ele>
      </trkpt>
      <trkpt lat="36.52951" lon="30.42159">
        <ele>1400.8</ele>
      </trkpt>
      <trkpt lat="36.5296" lon="30.42156">
        <ele>1405.1</ele>
      </trkpt>
      <trkpt lat="36.52976" lon="30.42166">
        <ele>1408.3</ele>
      </trkpt>
      <trkpt lat="36.5299" lon="30.42181">
        <ele>1411.7</ele>
      </trkpt>
      <trkpt lat="36.52998" lon="30.42192">
        <ele>1413.1</ele>
      </trkpt>
      <trkpt lat="36.53003" lon="30.42215">
        <ele>1412.2</ele>
      </trkpt>
      <trkpt lat="36.53012" lon="30.42213">
        <ele>1414.7</ele>
      </trkpt>
      <trkpt lat="36.5302" lon="30.42227">
        <ele>1415.1</ele>
      </trkpt>
      <trkpt lat="36.53026" lon="30.42225">
        <ele>1416.9</ele>
      </trkpt>
      <trkpt lat="36.53029" lon="30.42214">
        <ele>1419.5</ele>
      </trkpt>
      <trkpt lat="36.53026" lon="30.42205">
        <ele>1419.7</ele>
      </trkpt>
      <trkpt lat="36.53027" lon="30.42195">
        <ele>1421.5</ele>
      </trkpt>
      <trkpt lat="36.53037" lon="30.42193">
        <ele>1424.6</ele>
      </trkpt>
      <trkpt lat="36.53051" lon="30.42189">
        <ele>1429.3</ele>
      </trkpt>
      <trkpt lat="36.53064" lon="30.4219">
        <ele>1433.1</ele>
      </trkpt>
      <trkpt lat="36.53075" lon="30.42191">
        <ele>1436.1</ele>
      </trkpt>
      <trkpt lat="36.53096" lon="30.42202">
        <ele>1440.7</ele>
      </trkpt>
      <trkpt lat="36.53102" lon="30.42207">
        <ele>1441.6</ele>
      </trkpt>
      <trkpt lat="36.53123" lon="30.42205">
        <ele>1448.9</ele>
      </trkpt>
      <trkpt lat="36.53136" lon="30.4221">
        <ele>1451.9</ele>
      </trkpt>
      <trkpt lat="36.53145" lon="30.42211">
        <ele>1454.6</ele>
      </trkpt>
      <trkpt lat="36.53154" lon="30.4221">
        <ele>1457.6</ele>
      </trkpt>
      <trkpt lat="36.53156" lon="30.42208">
        <ele>1458.7</ele>
      </trkpt>
      <trkpt lat="36.53157" lon="30.42203">
        <ele>1460.1</ele>
      </trkpt>
      <trkpt lat="36.5316" lon="30.42198">
        <ele>1462.2</ele>
      </trkpt>
      <trkpt lat="36.53171" lon="30.422">
        <ele>1465.8</ele>
      </trkpt>
      <trkpt lat="36.5317" lon="30.42195">
        <ele>1466.2</ele>
      </trkpt>
      <trkpt lat="36.53161" lon="30.42193">
        <ele>1463.9</ele>
      </trkpt>
      <trkpt lat="36.53156" lon="30.42188">
        <ele>1463.4</ele>
      </trkpt>
      <trkpt lat="36.53152" lon="30.42169">
        <ele>1466.3</ele>
      </trkpt>
      <trkpt lat="36.53149" lon="30.42152">
        <ele>1471</ele>
      </trkpt>
      <trkpt lat="36.53155" lon="30.42139">
        <ele>1477.5</ele>
      </trkpt>
      <trkpt lat="36.53147" lon="30.42138">
        <ele>1475</ele>
      </trkpt>
      <trkpt lat="36.5315" lon="30.42121">
        <ele>1481.8</ele>
      </trkpt>
      <trkpt lat="36.53143" lon="30.42105">
        <ele>1484.8</ele>
      </trkpt>
      <trkpt lat="36.53137" lon="30.42091">
        <ele>1487.4</ele>
      </trkpt>
      <trkpt lat="36.53141" lon="30.42086">
        <ele>1490.4</ele>
      </trkpt>
      <trkpt lat="36.53145" lon="30.42084">
        <ele>1492.8</ele>
      </trkpt>
      <trkpt lat="36.53142" lon="30.4207">
        <ele>1493.5</ele>
      </trkpt>
      <trkpt lat="36.53157" lon="30.42069">
        <ele>1498.8</ele>
      </trkpt>
      <trkpt lat="36.5316" lon="30.42062">
        <ele>1500.6</ele>
      </trkpt>
      <trkpt lat="36.5317" lon="30.42062">
        <ele>1504.1</ele>
      </trkpt>
      <trkpt lat="36.53182" lon="30.42055">
        <ele>1509.2</ele>
      </trkpt>
      <trkpt lat="36.53191" lon="30.42043">
        <ele>1513.5</ele>
      </trkpt>
      <trkpt lat="36.53195" lon="30.42029">
        <ele>1516.8</ele>
      </trkpt>
      <trkpt lat="36.53194" lon="30.42018">
        <ele>1517.4</ele>
      </trkpt>
      <trkpt lat="36.53191" lon="30.42007">
        <ele>1517.7</ele>
      </trkpt>
      <trkpt lat="36.53198" lon="30.42">
        <ele>1521</ele>
      </trkpt>
      <trkpt lat="36.532" lon="30.4199">
        <ele>1525.8</ele>
      </trkpt>
      <trkpt lat="36.53207" lon="30.41977">
        <ele>1533.1</ele>
      </trkpt>
      <trkpt lat="36.53215" lon="30.41973">
        <ele>1537.5</ele>
      </trkpt>
      <trkpt lat="36.53225" lon="30.41966">
        <ele>1543.7</ele>
      </trkpt>
      <trkpt lat="36.53227" lon="30.41959">
        <ele>1546.9</ele>
      </trkpt>
      <trkpt lat="36.53232" lon="30.41962">
        <ele>1547.6</ele>
      </trkpt>
      <trkpt lat="36.5324" lon="30.41973">
        <ele>1546.7</ele>
      </trkpt>
      <trkpt lat="36.53246" lon="30.41969">
        <ele>1550.2</ele>
      </trkpt>
      <trkpt lat="36.53253" lon="30.41969">
        <ele>1552.4</ele>
      </trkpt>
      <trkpt lat="36.53256" lon="30.41981">
        <ele>1549</ele>
      </trkpt>
      <trkpt lat="36.53262" lon="30.41987">
        <ele>1548.8</ele>
      </trkpt>
      <trkpt lat="36.53267" lon="30.4198">
        <ele>1552.5</ele>
      </trkpt>
      <trkpt lat="36.53275" lon="30.41978">
        <ele>1555.5</ele>
      </trkpt>
      <trkpt lat="36.53285" lon="30.41971">
        <ele>1560.8</ele>
      </trkpt>
      <trkpt lat="36.53297" lon="30.41981">
        <ele>1561.2</ele>
      </trkpt>
      <trkpt lat="36.533" lon="30.41995">
        <ele>1557.6</ele>
      </trkpt>
      <trkpt lat="36.53308" lon="30.42002">
        <ele>1558.1</ele>
      </trkpt>
      <trkpt lat="36.53331" lon="30.42017">
        <ele>1563.8</ele>
      </trkpt>
      <trkpt lat="36.53338" lon="30.4202">
        <ele>1565.7</ele>
      </trkpt>
      <trkpt lat="36.53345" lon="30.42018">
        <ele>1567.9</ele>
      </trkpt>
      <trkpt lat="36.53349" lon="30.42009">
        <ele>1570</ele>
      </trkpt>
      <trkpt lat="36.53356" lon="30.42004">
        <ele>1572.4</ele>
      </trkpt>
      <trkpt lat="36.53366" lon="30.42002">
        <ele>1575.5</ele>
      </trkpt>
      <trkpt lat="36.53374" lon="30.42005">
        <ele>1577.9</ele>
      </trkpt>
      <trkpt lat="36.53384" lon="30.4201">
        <ele>1580.5</ele>
      </trkpt>
      <trkpt lat="36.53396" lon="30.42004">
        <ele>1584.3</ele>
      </trkpt>
      <trkpt lat="36.53403" lon="30.42011">
        <ele>1586</ele>
      </trkpt>
      <trkpt lat="36.53412" lon="30.4201">
        <ele>1588.9</ele>
      </trkpt>
      <trkpt lat="36.53416" lon="30.42017">
        <ele>1589.4</ele>
      </trkpt>
      <trkpt lat="36.53425" lon="30.42026">
        <ele>1593.1</ele>
      </trkpt>
      <trkpt lat="36.53445" lon="30.42024">
        <ele>1602.9</ele>
      </trkpt>
      <trkpt lat="36.53446" lon="30.42013">
        <ele>1605.5</ele>
      </trkpt>
      <trkpt lat="36.53455" lon="30.42007">
        <ele>1611</ele>
      </trkpt>
      <trkpt lat="36.5346" lon="30.41991">
        <ele>1618.1</ele>
      </trkpt>
      <trkpt lat="36.53461" lon="30.41979">
        <ele>1623.3</ele>
      </trkpt>
      <trkpt lat="36.53461" lon="30.41967">
        <ele>1627.4</ele>
      </trkpt>
      <trkpt lat="36.53462" lon="30.41959">
        <ele>1631</ele>
      </trkpt>
      <trkpt lat="36.53468" lon="30.41953">
        <ele>1636.3</ele>
      </trkpt>
      <trkpt lat="36.53465" lon="30.41946">
        <ele>1637.1</ele>
      </trkpt>
      <trkpt lat="36.53457" lon="30.41943">
        <ele>1633.9</ele>
      </trkpt>
      <trkpt lat="36.53456" lon="30.41951">
        <ele>1630.1</ele>
      </trkpt>
      <trkpt lat="36.5345" lon="30.41949">
        <ele>1627.2</ele>
      </trkpt>
      <trkpt lat="36.53442" lon="30.41926">
        <ele>1631</ele>
      </trkpt>
      <trkpt lat="36.53438" lon="30.41909">
        <ele>1636.6</ele>
      </trkpt>
      <trkpt lat="36.5344" lon="30.41892">
        <ele>1647.5</ele>
      </trkpt>
      <trkpt lat="36.53445" lon="30.41891">
        <ele>1650.6</ele>
      </trkpt>
      <trkpt lat="36.53451" lon="30.41894">
        <ele>1651.6</ele>
      </trkpt>
      <trkpt lat="36.53457" lon="30.41899">
        <ele>1652.3</ele>
      </trkpt>
      <trkpt lat="36.53457" lon="30.41891">
        <ele>1656.2</ele>
      </trkpt>
      <trkpt lat="36.53455" lon="30.41879">
        <ele>1661.8</ele>
      </trkpt>
      <trkpt lat="36.5346" lon="30.41876">
        <ele>1665.7</ele>
      </trkpt>
      <trkpt lat="36.53459" lon="30.41867">
        <ele>1669.2</ele>
      </trkpt>
      <trkpt lat="36.53464" lon="30.41858">
        <ele>1675.8</ele>
      </trkpt>
      <trkpt lat="36.53461" lon="30.41845">
        <ele>1681.4</ele>
      </trkpt>
      <trkpt lat="36.53466" lon="30.4184">
        <ele>1685.4</ele>
      </trkpt>
      <trkpt lat="36.53472" lon="30.41842">
        <ele>1686.3</ele>
      </trkpt>
      <trkpt lat="36.53477" lon="30.41822">
        <ele>1696.3</ele>
      </trkpt>
      <trkpt lat="36.53482" lon="30.41826">
        <ele>1695.7</ele>
      </trkpt>
      <trkpt lat="36.53485" lon="30.4182">
        <ele>1698.9</ele>
      </trkpt>
      <trkpt lat="36.53494" lon="30.41827">
        <ele>1698.6</ele>
      </trkpt>
      <trkpt lat="36.53501" lon="30.41823">
        <ele>1701.8</ele>
      </trkpt>
      <trkpt lat="36.53499" lon="30.41834">
        <ele>1697.6</ele>
      </trkpt>
      <trkpt lat="36.53503" lon="30.41835">
        <ele>1698.4</ele>
      </trkpt>
      <trkpt lat="36.53506" lon="30.41825">
        <ele>1702.7</ele>
      </trkpt>
      <trkpt lat="36.53503" lon="30.41818">
        <ele>1704.2</ele>
      </trkpt>
      <trkpt lat="36.53511" lon="30.41816">
        <ele>1706.7</ele>
      </trkpt>
      <trkpt lat="36.5352" lon="30.41814">
        <ele>1709.7</ele>
      </trkpt>
      <trkpt lat="36.5353" lon="30.41808">
        <ele>1713.6</ele>
      </trkpt>
      <trkpt lat="36.53537" lon="30.41814">
        <ele>1713.9</ele>
      </trkpt>
      <trkpt lat="36.53543" lon="30.41815">
        <ele>1715.1</ele>
      </trkpt>
      <trkpt lat="36.53547" lon="30.41812">
        <ele>1716.9</ele>
      </trkpt>
      <trkpt lat="36.53545" lon="30.41795">
        <ele>1719.2</ele>
      </trkpt>
      <trkpt lat="36.53549" lon="30.41785">
        <ele>1721.6</ele>
      </trkpt>
      <trkpt lat="36.53557" lon="30.41779">
        <ele>1723.6</ele>
      </trkpt>
      <trkpt lat="36.53563" lon="30.4177">
        <ele>1725.3</ele>
      </trkpt>
      <trkpt lat="36.53575" lon="30.41762">
        <ele>1727</ele>
      </trkpt>
      <trkpt lat="36.53584" lon="30.41751">
        <ele>1728.1</ele>
      </trkpt>
      <trkpt lat="36.5359" lon="30.41738">
        <ele>1732</ele>
      </trkpt>
      <trkpt lat="36.53594" lon="30.41729">
        <ele>1734.5</ele>
      </trkpt>
      <trkpt lat="36.53595" lon="30.41717">
        <ele>1736.8</ele>
      </trkpt>
      <trkpt lat="36.536" lon="30.41714">
        <ele>1738.4</ele>
      </trkpt>
      <trkpt lat="36.53615" lon="30.41719">
        <ele>1740.9</ele>
      </trkpt>
      <trkpt lat="36.53633" lon="30.41723">
        <ele>1744.3</ele>
      </trkpt>
      <trkpt lat="36.53641" lon="30.41721">
        <ele>1746.5</ele>
      </trkpt>
      <trkpt lat="36.5365" lon="30.41726">
        <ele>1747.8</ele>
      </trkpt>
      <trkpt lat="36.53662" lon="30.4173">
        <ele>1750</ele>
      </trkpt>
      <trkpt lat="36.53671" lon="30.41733">
        <ele>1751.8</ele>
      </trkpt>
      <trkpt lat="36.53687" lon="30.41727">
        <ele>1755.3</ele>
      </trkpt>
      <trkpt lat="36.5369" lon="30.41728">
        <ele>1755.7</ele>
      </trkpt>
      <trkpt lat="36.53689" lon="30.41732">
        <ele>1755.2</ele>
      </trkpt>
      <trkpt lat="36.5369" lon="30.41735">
        <ele>1755.3</ele>
      </trkpt>
      <trkpt lat="36.53693" lon="30.4173">
        <ele>1756.1</ele>
      </trkpt>
      <trkpt lat="36.53698" lon="30.41727">
        <ele>1757.4</ele>
      </trkpt>
      <trkpt lat="36.537" lon="30.41724">
        <ele>1757.9</ele>
      </trkpt>
      <trkpt lat="36.53706" lon="30.41723">
        <ele>1758.9</ele>
      </trkpt>
      <trkpt lat="36.53709" lon="30.41726">
        <ele>1759.3</ele>
      </trkpt>
      <trkpt lat="36.53715" lon="30.41724">
        <ele>1760.6</ele>
      </trkpt>
      <trkpt lat="36.53723" lon="30.4172">
        <ele>1762.3</ele>
      </trkpt>
      <trkpt lat="36.53731" lon="30.41715">
        <ele>1763.7</ele>
      </trkpt>
      <trkpt lat="36.53737" lon="30.41714">
        <ele>1764.7</ele>
      </trkpt>
      <trkpt lat="36.53745" lon="30.41707">
        <ele>1766.2</ele>
      </trkpt>
      <trkpt lat="36.53748" lon="30.41703">
        <ele>1766.7</ele>
      </trkpt>
      <trkpt lat="36.53756" lon="30.41705">
        <ele>1768.2</ele>
      </trkpt>
      <trkpt lat="36.53759" lon="30.41708">
        <ele>1768.9</ele>
      </trkpt>
      <trkpt lat="36.53767" lon="30.41712">
        <ele>1770.8</ele>
      </trkpt>
      <trkpt lat="36.53771" lon="30.4171">
        <ele>1771.5</ele>
      </trkpt>
      <trkpt lat="36.53778" lon="30.41714">
        <ele>1773.1</ele>
      </trkpt>
      <trkpt lat="36.53783" lon="30.41716">
        <ele>1774.4</ele>
      </trkpt>
      <trkpt lat="36.53787" lon="30.41704">
        <ele>1774.7</ele>
      </trkpt>
      <trkpt lat="36.53785" lon="30.41697">
        <ele>1774</ele>
      </trkpt>
      <trkpt lat="36.53782" lon="30.41692">
        <ele>1773.3</ele>
      </trkpt>
      <trkpt lat="36.5378" lon="30.41687">
        <ele>1772.7</ele>
      </trkpt>
      <trkpt lat="36.53781" lon="30.41682">
        <ele>1772.8</ele>
      </trkpt>
      <trkpt lat="36.53783" lon="30.41678">
        <ele>1772.9</ele>
      </trkpt>
      <trkpt lat="36.53786" lon="30.41675">
        <ele>1773.4</ele>
      </trkpt>
      <trkpt lat="36.53791" lon="30.41673">
        <ele>1774.2</ele>
      </trkpt>
      <trkpt lat="36.53796" lon="30.41674">
        <ele>1775</ele>
      </trkpt>
      <trkpt lat="36.53801" lon="30.41678">
        <ele>1776.3</ele>
      </trkpt>
      <trkpt lat="36.53805" lon="30.41683">
        <ele>1777.2</ele>
      </trkpt>
      <trkpt lat="36.53808" lon="30.41682">
        <ele>1777.7</ele>
      </trkpt>
      <trkpt lat="36.53808" lon="30.41679">
        <ele>1777.5</ele>
      </trkpt>
      <trkpt lat="36.53811" lon="30.41678">
        <ele>1777.9</ele>
      </trkpt>
      <trkpt lat="36.53813" lon="30.41677">
        <ele>1778.4</ele>
      </trkpt>
      <trkpt lat="36.53819" lon="30.41675">
        <ele>1779.2</ele>
      </trkpt>
      <trkpt lat="36.53824" lon="30.41679">
        <ele>1780.4</ele>
      </trkpt>
      <trkpt lat="36.53833" lon="30.41684">
        <ele>1782.6</ele>
      </trkpt>
      <trkpt lat="36.53839" lon="30.41689">
        <ele>1784.3</ele>
      </trkpt>
      <trkpt lat="36.53843" lon="30.41692">
        <ele>1785.7</ele>
      </trkpt>
      <trkpt lat="36.53847" lon="30.4169">
        <ele>1786.5</ele>
      </trkpt>
      <trkpt lat="36.5385" lon="30.41681">
        <ele>1786.1</ele>
      </trkpt>
      <trkpt lat="36.53862" lon="30.41689">
        <ele>1789.6</ele>
      </trkpt>
      <trkpt lat="36.5387" lon="30.41702">
        <ele>1792.8</ele>
      </trkpt>
      <trkpt lat="36.53877" lon="30.41706">
        <ele>1794.7</ele>
      </trkpt>
      <trkpt lat="36.53886" lon="30.41713">
        <ele>1797.4</ele>
      </trkpt>
      <trkpt lat="36.53889" lon="30.41707">
        <ele>1797.5</ele>
      </trkpt>
      <trkpt lat="36.53891" lon="30.41707">
        <ele>1798</ele>
      </trkpt>
      <trkpt lat="36.53893" lon="30.417">
        <ele>1797.9</ele>
      </trkpt>
      <trkpt lat="36.53896" lon="30.41698">
        <ele>1798.4</ele>
      </trkpt>
      <trkpt lat="36.539" lon="30.41701">
        <ele>1799.6</ele>
      </trkpt>
      <trkpt lat="36.53905" lon="30.41704">
        <ele>1800.9</ele>
      </trkpt>
      <trkpt lat="36.53907" lon="30.41706">
        <ele>1801.5</ele>
      </trkpt>
      <trkpt lat="36.53905" lon="30.41711">
        <ele>1801.6</ele>
      </trkpt>
      <trkpt lat="36.53914" lon="30.41714">
        <ele>1804</ele>
      </trkpt>
      <trkpt lat="36.53925" lon="30.41719">
        <ele>1805.5</ele>
      </trkpt>
      <trkpt lat="36.5393" lon="30.41716">
        <ele>1805.5</ele>
      </trkpt>
      <trkpt lat="36.53941" lon="30.41716">
        <ele>1806.1</ele>
      </trkpt>
      <trkpt lat="36.53945" lon="30.41719">
        <ele>1806.6</ele>
      </trkpt>
      <trkpt lat="36.53949" lon="30.41718">
        <ele>1806.7</ele>
      </trkpt>
      <trkpt lat="36.53957" lon="30.41708">
        <ele>1806.1</ele>
      </trkpt>
      <trkpt lat="36.53967" lon="30.41705">
        <ele>1806.3</ele>
      </trkpt>
      <trkpt lat="36.53976" lon="30.41702">
        <ele>1806.4</ele>
      </trkpt>
      <trkpt lat="36.53985" lon="30.41702">
        <ele>1806.9</ele>
      </trkpt>
      <trkpt lat="36.53994" lon="30.41707">
        <ele>1808</ele>
      </trkpt>
      <trkpt lat="36.54004" lon="30.41708">
        <ele>1808.1</ele>
      </trkpt>
      <trkpt lat="36.54019" lon="30.41694">
        <ele>1804.6</ele>
      </trkpt>
      <trkpt lat="36.5412" lon="30.41683">
        <ele>1794.7</ele>
      </trkpt>
      <trkpt lat="36.5413" lon="30.41664">
        <ele>1790.3</ele>
      </trkpt>
      <trkpt lat="36.54135" lon="30.4164">
        <ele>1783.9</ele>
      </trkpt>
      <trkpt lat="36.54145" lon="30.41638">
        <ele>1782.8</ele>
      </trkpt>
      <trkpt lat="36.54167" lon="30.4165">
        <ele>1785.7</ele>
      </trkpt>
      <trkpt lat="36.54186" lon="30.41638">
        <ele>1782</ele>
      </trkpt>
      <trkpt lat="36.54216" lon="30.41596">
        <ele>1769.2</ele>
      </trkpt>
      <trkpt lat="36.54276" lon="30.41562">
        <ele>1759.7</ele>
      </trkpt>
      <trkpt lat="36.54287" lon="30.41546">
        <ele>1755.5</ele>
      </trkpt>
      <trkpt lat="36.54292" lon="30.41529">
        <ele>1752.2</ele>
      </trkpt>
      <trkpt lat="36.54291" lon="30.41497">
        <ele>1746.7</ele>
      </trkpt>
      <trkpt lat="36.54295" lon="30.41488">
        <ele>1746.1</ele>
      </trkpt>
      <trkpt lat="36.54304" lon="30.41483">
        <ele>1746.4</ele>
      </trkpt>
      <trkpt lat="36.54321" lon="30.41463">
        <ele>1746.4</ele>
      </trkpt>
      <trkpt lat="36.54326" lon="30.41446">
        <ele>1745.9</ele>
      </trkpt>
      <trkpt lat="36.54327" lon="30.41437">
        <ele>1745.4</ele>
      </trkpt>
      <trkpt lat="36.54329" lon="30.41432">
        <ele>1745.3</ele>
      </trkpt>
      <trkpt lat="36.54339" lon="30.41425">
        <ele>1744.4</ele>
      </trkpt>
      <trkpt lat="36.5435" lon="30.41438">
        <ele>1742.7</ele>
      </trkpt>
      <trkpt lat="36.54363" lon="30.41462">
        <ele>1740.1</ele>
      </trkpt>
      <trkpt lat="36.54368" lon="30.41482">
        <ele>1738.8</ele>
      </trkpt>
      <trkpt lat="36.54367" lon="30.41498">
        <ele>1739.2</ele>
      </trkpt>
      <trkpt lat="36.54361" lon="30.41511">
        <ele>1742</ele>
      </trkpt>
      <trkpt lat="36.54351" lon="30.4152">
        <ele>1746.1</ele>
      </trkpt>
      <trkpt lat="36.54342" lon="30.41536">
        <ele>1750.2</ele>
      </trkpt>
      <trkpt lat="36.54338" lon="30.41552">
        <ele>1752.6</ele>
      </trkpt>
      <trkpt lat="36.5434" lon="30.41563">
        <ele>1752.7</ele>
      </trkpt>
      <trkpt lat="36.54344" lon="30.41565">
        <ele>1751.9</ele>
      </trkpt>
      <trkpt lat="36.54348" lon="30.41557">
        <ele>1750.2</ele>
      </trkpt>
      <trkpt lat="36.54352" lon="30.41547">
        <ele>1748.1</ele>
      </trkpt>
      <trkpt lat="36.54361" lon="30.41538">
        <ele>1744.7</ele>
      </trkpt>
      <trkpt lat="36.54377" lon="30.41533">
        <ele>1739.4</ele>
      </trkpt>
      <trkpt lat="36.5439" lon="30.41526">
        <ele>1734.7</ele>
      </trkpt>
      <trkpt lat="36.54394" lon="30.41511">
        <ele>1731.7</ele>
      </trkpt>
      <trkpt lat="36.54399" lon="30.41479">
        <ele>1729.7</ele>
      </trkpt>
      <trkpt lat="36.54404" lon="30.41474">
        <ele>1728.9</ele>
      </trkpt>
      <trkpt lat="36.54413" lon="30.41474">
        <ele>1726.2</ele>
      </trkpt>
      <trkpt lat="36.54424" lon="30.41476">
        <ele>1723.4</ele>
      </trkpt>
      <trkpt lat="36.54436" lon="30.41474">
        <ele>1720.9</ele>
      </trkpt>
      <trkpt lat="36.54458" lon="30.41459">
        <ele>1716.7</ele>
      </trkpt>
      <trkpt lat="36.54473" lon="30.41451">
        <ele>1713.1</ele>
      </trkpt>
      <trkpt lat="36.54483" lon="30.41452">
        <ele>1710.7</ele>
      </trkpt>
      <trkpt lat="36.54493" lon="30.41449">
        <ele>1708.1</ele>
      </trkpt>
      <trkpt lat="36.54497" lon="30.41441">
        <ele>1707.1</ele>
      </trkpt>
      <trkpt lat="36.54496" lon="30.41424">
        <ele>1707.2</ele>
      </trkpt>
      <trkpt lat="36.54498" lon="30.4141">
        <ele>1707.6</ele>
      </trkpt>
      <trkpt lat="36.54502" lon="30.41405">
        <ele>1707</ele>
      </trkpt>
      <trkpt lat="36.54511" lon="30.41403">
        <ele>1705.2</ele>
      </trkpt>
      <trkpt lat="36.54533" lon="30.41404">
        <ele>1700</ele>
      </trkpt>
      <trkpt lat="36.54542" lon="30.41403">
        <ele>1697.9</ele>
      </trkpt>
      <trkpt lat="36.54549" lon="30.41396">
        <ele>1696.5</ele>
      </trkpt>
      <trkpt lat="36.54552" lon="30.41386">
        <ele>1696</ele>
      </trkpt>
      <trkpt lat="36.54549" lon="30.41358">
        <ele>1697.4</ele>
      </trkpt>
      <trkpt lat="36.54554" lon="30.41343">
        <ele>1696.1</ele>
      </trkpt>
      <trkpt lat="36.54558" lon="30.41332">
        <ele>1694.6</ele>
      </trkpt>
      <trkpt lat="36.54568" lon="30.41323">
        <ele>1690.9</ele>
      </trkpt>
      <trkpt lat="36.54579" lon="30.41319">
        <ele>1686.4</ele>
      </trkpt>
      <trkpt lat="36.54584" lon="30.41315">
        <ele>1684.5</ele>
      </trkpt>
      <trkpt lat="36.54585" lon="30.41306">
        <ele>1684</ele>
      </trkpt>
      <trkpt lat="36.54597" lon="30.41299">
        <ele>1681</ele>
      </trkpt>
      <trkpt lat="36.54611" lon="30.41274">
        <ele>1675.2</ele>
      </trkpt>
      <trkpt lat="36.54621" lon="30.41253">
        <ele>1669.5</ele>
      </trkpt>
      <trkpt lat="36.54617" lon="30.41242">
        <ele>1669.1</ele>
      </trkpt>
      <trkpt lat="36.54627" lon="30.41203">
        <ele>1657.2</ele>
      </trkpt>
      <trkpt lat="36.54617" lon="30.41136">
        <ele>1651.6</ele>
      </trkpt>
      <trkpt lat="36.54622" lon="30.41103">
        <ele>1644</ele>
      </trkpt>
      <trkpt lat="36.54618" lon="30.41084">
        <ele>1643.5</ele>
      </trkpt>
      <trkpt lat="36.54617" lon="30.41075">
        <ele>1643.5</ele>
      </trkpt>
      <trkpt lat="36.54623" lon="30.41056">
        <ele>1638.9</ele>
      </trkpt>
      <trkpt lat="36.54629" lon="30.41033">
        <ele>1635</ele>
      </trkpt>
      <trkpt lat="36.54654" lon="30.40992">
        <ele>1622.7</ele>
      </trkpt>
      <trkpt lat="36.54665" lon="30.4102">
        <ele>1617.2</ele>
      </trkpt>
      <trkpt lat="36.54674" lon="30.41039">
        <ele>1613.9</ele>
      </trkpt>
      <trkpt lat="36.54683" lon="30.41049">
        <ele>1611</ele>
      </trkpt>
      <trkpt lat="36.54691" lon="30.4105">
        <ele>1608.5</ele>
      </trkpt>
      <trkpt lat="36.54706" lon="30.41065">
        <ele>1604.3</ele>
      </trkpt>
      <trkpt lat="36.54713" lon="30.41075">
        <ele>1602.7</ele>
      </trkpt>
      <trkpt lat="36.54722" lon="30.41076">
        <ele>1600.2</ele>
      </trkpt>
      <trkpt lat="36.54732" lon="30.41064">
        <ele>1597</ele>
      </trkpt>
      <trkpt lat="36.54734" lon="30.41051">
        <ele>1595.7</ele>
      </trkpt>
      <trkpt lat="36.54744" lon="30.41082">
        <ele>1594.5</ele>
      </trkpt>
      <trkpt lat="36.54758" lon="30.41096">
        <ele>1593.6</ele>
      </trkpt>
      <trkpt lat="36.54777" lon="30.4111">
        <ele>1593.1</ele>
      </trkpt>
      <trkpt lat="36.54798" lon="30.41121">
        <ele>1591.9</ele>
      </trkpt>
      <trkpt lat="36.54835" lon="30.41133">
        <ele>1589.2</ele>
      </trkpt>
      <trkpt lat="36.54892" lon="30.4118">
        <ele>1591.5</ele>
      </trkpt>
      <trkpt lat="36.5493" lon="30.41215">
        <ele>1593.8</ele>
      </trkpt>
      <trkpt lat="36.5495" lon="30.4124">
        <ele>1595</ele>
      </trkpt>
      <trkpt lat="36.54964" lon="30.41256">
        <ele>1594.7</ele>
      </trkpt>
      <trkpt lat="36.54972" lon="30.41269">
        <ele>1593.6</ele>
      </trkpt>
      <trkpt lat="36.54973" lon="30.41277">
        <ele>1593</ele>
      </trkpt>
      <trkpt lat="36.54965" lon="30.41282">
        <ele>1593.4</ele>
      </trkpt>
      <trkpt lat="36.54958" lon="30.41297">
        <ele>1593.7</ele>
      </trkpt>
      <trkpt lat="36.54958" lon="30.41316">
        <ele>1593</ele>
      </trkpt>
      <trkpt lat="36.54954" lon="30.41337">
        <ele>1593.7</ele>
      </trkpt>
      <trkpt lat="36.54953" lon="30.41356">
        <ele>1594.3</ele>
      </trkpt>
      <trkpt lat="36.54957" lon="30.41366">
        <ele>1593.3</ele>
      </trkpt>
      <trkpt lat="36.54963" lon="30.41377">
        <ele>1591.7</ele>
      </trkpt>
      <trkpt lat="36.54958" lon="30.41385">
        <ele>1593.2</ele>
      </trkpt>
      <trkpt lat="36.54966" lon="30.41405">
        <ele>1590.7</ele>
      </trkpt>
      <trkpt lat="36.5497" lon="30.41422">
        <ele>1588</ele>
      </trkpt>
      <trkpt lat="36.54977" lon="30.41428">
        <ele>1583.8</ele>
      </trkpt>
      <trkpt lat="36.54983" lon="30.41429">
        <ele>1581</ele>
      </trkpt>
      <trkpt lat="36.54986" lon="30.41435">
        <ele>1578.2</ele>
      </trkpt>
      <trkpt lat="36.54987" lon="30.41443">
        <ele>1576</ele>
      </trkpt>
      <trkpt lat="36.54982" lon="30.41449">
        <ele>1576.3</ele>
      </trkpt>
      <trkpt lat="36.54975" lon="30.41453">
        <ele>1578.9</ele>
      </trkpt>
      <trkpt lat="36.54964" lon="30.41466">
        <ele>1581.1</ele>
      </trkpt>
      <trkpt lat="36.54957" lon="30.41474">
        <ele>1582.7</ele>
      </trkpt>
      <trkpt lat="36.54958" lon="30.41483">
        <ele>1580.4</ele>
      </trkpt>
      <trkpt lat="36.54969" lon="30.41477">
        <ele>1576</ele>
      </trkpt>
      <trkpt lat="36.5497" lon="30.41494">
        <ele>1571.4</ele>
      </trkpt>
      <trkpt lat="36.5497" lon="30.41522">
        <ele>1568.3</ele>
      </trkpt>
      <trkpt lat="36.54968" lon="30.41547">
        <ele>1567.2</ele>
      </trkpt>
      <trkpt lat="36.54972" lon="30.41558">
        <ele>1562.8</ele>
      </trkpt>
      <trkpt lat="36.54972" lon="30.41566">
        <ele>1562.2</ele>
      </trkpt>
      <trkpt lat="36.54974" lon="30.41575">
        <ele>1559.7</ele>
      </trkpt>
      <trkpt lat="36.54976" lon="30.41577">
        <ele>1557.3</ele>
      </trkpt>
      <trkpt lat="36.5498" lon="30.4157">
        <ele>1555.2</ele>
      </trkpt>
      <trkpt lat="36.54983" lon="30.41562">
        <ele>1554.4</ele>
      </trkpt>
      <trkpt lat="36.54986" lon="30.41549">
        <ele>1554</ele>
      </trkpt>
      <trkpt lat="36.54993" lon="30.41538">
        <ele>1550.7</ele>
      </trkpt>
      <trkpt lat="36.55007" lon="30.41531">
        <ele>1545.1</ele>
      </trkpt>
      <trkpt lat="36.55016" lon="30.41532">
        <ele>1542.3</ele>
      </trkpt>
      <trkpt lat="36.55022" lon="30.41538">
        <ele>1539.1</ele>
      </trkpt>
      <trkpt lat="36.55019" lon="30.41549">
        <ele>1537.8</ele>
      </trkpt>
      <trkpt lat="36.5502" lon="30.41554">
        <ele>1536.4</ele>
      </trkpt>
      <trkpt lat="36.55031" lon="30.41558">
        <ele>1531.8</ele>
      </trkpt>
      <trkpt lat="36.55035" lon="30.4155">
        <ele>1532.4</ele>
      </trkpt>
      <trkpt lat="36.55044" lon="30.41548">
        <ele>1530.4</ele>
      </trkpt>
      <trkpt lat="36.55053" lon="30.4155">
        <ele>1526.6</ele>
      </trkpt>
      <trkpt lat="36.55049" lon="30.41565">
        <ele>1524</ele>
      </trkpt>
      <trkpt lat="36.55049" lon="30.41577">
        <ele>1520.3</ele>
      </trkpt>
      <trkpt lat="36.55047" lon="30.41583">
        <ele>1519.9</ele>
      </trkpt>
      <trkpt lat="36.55061" lon="30.4159">
        <ele>1512.9</ele>
      </trkpt>
      <trkpt lat="36.55063" lon="30.41598">
        <ele>1510.4</ele>
      </trkpt>
      <trkpt lat="36.55079" lon="30.41591">
        <ele>1505.7</ele>
      </trkpt>
      <trkpt lat="36.55089" lon="30.416">
        <ele>1500.2</ele>
      </trkpt>
      <trkpt lat="36.55109" lon="30.41621">
        <ele>1489</ele>
      </trkpt>
      <trkpt lat="36.55107" lon="30.4163">
        <ele>1487.3</ele>
      </trkpt>
      <trkpt lat="36.55104" lon="30.4164">
        <ele>1485.2</ele>
      </trkpt>
      <trkpt lat="36.55105" lon="30.41651">
        <ele>1481.8</ele>
      </trkpt>
      <trkpt lat="36.55113" lon="30.41661">
        <ele>1476.4</ele>
      </trkpt>
      <trkpt lat="36.55114" lon="30.41669">
        <ele>1474.6</ele>
      </trkpt>
      <trkpt lat="36.55123" lon="30.41676">
        <ele>1470.2</ele>
      </trkpt>
      <trkpt lat="36.55137" lon="30.41675">
        <ele>1465.9</ele>
      </trkpt>
      <trkpt lat="36.55144" lon="30.41683">
        <ele>1462.4</ele>
      </trkpt>
      <trkpt lat="36.55161" lon="30.4169">
        <ele>1455.7</ele>
      </trkpt>
      <trkpt lat="36.55175" lon="30.41693">
        <ele>1451.2</ele>
      </trkpt>
      <trkpt lat="36.55181" lon="30.4169">
        <ele>1449.8</ele>
      </trkpt>
      <trkpt lat="36.55194" lon="30.41687">
        <ele>1447</ele>
      </trkpt>
      <trkpt lat="36.55205" lon="30.41689">
        <ele>1443.8</ele>
      </trkpt>
      <trkpt lat="36.55218" lon="30.4168">
        <ele>1441.6</ele>
      </trkpt>
      <trkpt lat="36.55225" lon="30.41684">
        <ele>1439.3</ele>
      </trkpt>
      <trkpt lat="36.55233" lon="30.41676">
        <ele>1438.1</ele>
      </trkpt>
      <trkpt lat="36.5525" lon="30.41682">
        <ele>1433</ele>
      </trkpt>
      <trkpt lat="36.55265" lon="30.4168">
        <ele>1429.3</ele>
      </trkpt>
      <trkpt lat="36.55281" lon="30.41677">
        <ele>1425.5</ele>
      </trkpt>
      <trkpt lat="36.553" lon="30.41677">
        <ele>1420.8</ele>
      </trkpt>
      <trkpt lat="36.55304" lon="30.4168">
        <ele>1419.3</ele>
      </trkpt>
      <trkpt lat="36.55326" lon="30.41666">
        <ele>1416</ele>
      </trkpt>
      <trkpt lat="36.55337" lon="30.41653">
        <ele>1419.7</ele>
      </trkpt>
      <trkpt lat="36.55374" lon="30.41648">
        <ele>1415.9</ele>
      </trkpt>
      <trkpt lat="36.55406" lon="30.41652">
        <ele>1409.2</ele>
      </trkpt>
      <trkpt lat="36.55417" lon="30.41658">
        <ele>1405.7</ele>
      </trkpt>
      <trkpt lat="36.55425" lon="30.41664">
        <ele>1402</ele>
      </trkpt>
      <trkpt lat="36.55442" lon="30.41627">
        <ele>1408.1</ele>
      </trkpt>
      <trkpt lat="36.55463" lon="30.41624">
        <ele>1402.7</ele>
      </trkpt>
      <trkpt lat="36.55475" lon="30.41613">
        <ele>1401.5</ele>
      </trkpt>
      <trkpt lat="36.55514" lon="30.41619">
        <ele>1388.7</ele>
      </trkpt>
      <trkpt lat="36.55538" lon="30.41617">
        <ele>1382.8</ele>
      </trkpt>
      <trkpt lat="36.5558" lon="30.41601">
        <ele>1374.5</ele>
      </trkpt>
      <trkpt lat="36.55618" lon="30.41594">
        <ele>1367.5</ele>
      </trkpt>
      <trkpt lat="36.55635" lon="30.41571">
        <ele>1369.6</ele>
      </trkpt>
      <trkpt lat="36.55654" lon="30.41561">
        <ele>1368.4</ele>
      </trkpt>
      <trkpt lat="36.5567" lon="30.41522">
        <ele>1375.7</ele>
      </trkpt>
      <trkpt lat="36.55685" lon="30.41499">
        <ele>1379.9</ele>
      </trkpt>
      <trkpt lat="36.55705" lon="30.41503">
        <ele>1376.2</ele>
      </trkpt>
      <trkpt lat="36.55747" lon="30.4147">
        <ele>1380.1</ele>
      </trkpt>
      <trkpt lat="36.55774" lon="30.41466">
        <ele>1375.9</ele>
      </trkpt>
      <trkpt lat="36.5579" lon="30.41455">
        <ele>1375.7</ele>
      </trkpt>
      <trkpt lat="36.5582" lon="30.41463">
        <ele>1367.3</ele>
      </trkpt>
      <trkpt lat="36.55879" lon="30.41453">
        <ele>1352.8</ele>
      </trkpt>
      <trkpt lat="36.55917" lon="30.41452">
        <ele>1341.7</ele>
      </trkpt>
      <trkpt lat="36.55952" lon="30.41438">
        <ele>1334.5</ele>
      </trkpt>
      <trkpt lat="36.55975" lon="30.41444">
        <ele>1325.1</ele>
      </trkpt>
      <trkpt lat="36.55998" lon="30.41435">
        <ele>1320.9</ele>
      </trkpt>
      <trkpt lat="36.56012" lon="30.41459">
        <ele>1308.6</ele>
      </trkpt>
      <trkpt lat="36.56022" lon="30.41488">
        <ele>1295.6</ele>
      </trkpt>
      <trkpt lat="36.56035" lon="30.415">
        <ele>1288.4</ele>
      </trkpt>
      <trkpt lat="36.56045" lon="30.41518">
        <ele>1278</ele>
      </trkpt>
      <trkpt lat="36.56061" lon="30.41541">
        <ele>1264.8</ele>
      </trkpt>
      <trkpt lat="36.56084" lon="30.41557">
        <ele>1254.3</ele>
      </trkpt>
      <trkpt lat="36.56092" lon="30.41558">
        <ele>1252.8</ele>
      </trkpt>
      <trkpt lat="36.56115" lon="30.41571">
        <ele>1246.3</ele>
      </trkpt>
      <trkpt lat="36.56131" lon="30.41581">
        <ele>1242.1</ele>
      </trkpt>
      <trkpt lat="36.56147" lon="30.416">
        <ele>1234.3</ele>
      </trkpt>
      <trkpt lat="36.56165" lon="30.41621">
        <ele>1225.6</ele>
      </trkpt>
      <trkpt lat="36.56177" lon="30.41629">
        <ele>1221.5</ele>
      </trkpt>
      <trkpt lat="36.56184" lon="30.41642">
        <ele>1216</ele>
      </trkpt>
      <trkpt lat="36.56202" lon="30.41639">
        <ele>1215.7</ele>
      </trkpt>
      <trkpt lat="36.56227" lon="30.4165">
        <ele>1209.9</ele>
      </trkpt>
      <trkpt lat="36.56235" lon="30.41649">
        <ele>1209.6</ele>
      </trkpt>
      <trkpt lat="36.56236" lon="30.41634">
        <ele>1214.5</ele>
      </trkpt>
      <trkpt lat="36.56239" lon="30.41632">
        <ele>1214.9</ele>
      </trkpt>
      <trkpt lat="36.56244" lon="30.41628">
        <ele>1215.6</ele>
      </trkpt>
      <trkpt lat="36.56266" lon="30.41626">
        <ele>1215</ele>
      </trkpt>
      <trkpt lat="36.563" lon="30.41629">
        <ele>1212.9</ele>
      </trkpt>
      <trkpt lat="36.56319" lon="30.41635">
        <ele>1209.5</ele>
      </trkpt>
      <trkpt lat="36.56343" lon="30.41643">
        <ele>1205.1</ele>
      </trkpt>
      <trkpt lat="36.56353" lon="30.41659">
        <ele>1198.1</ele>
      </trkpt>
      <trkpt lat="36.56364" lon="30.41663">
        <ele>1196.1</ele>
      </trkpt>
      <trkpt lat="36.56383" lon="30.41674">
        <ele>1191.2</ele>
      </trkpt>
      <trkpt lat="36.56397" lon="30.41685">
        <ele>1186.4</ele>
      </trkpt>
      <trkpt lat="36.56415" lon="30.41695">
        <ele>1181.8</ele>
      </trkpt>
      <trkpt lat="36.56437" lon="30.41711">
        <ele>1173.8</ele>
      </trkpt>
      <trkpt lat="36.56438" lon="30.4173">
        <ele>1165.8</ele>
      </trkpt>
      <trkpt lat="36.56443" lon="30.41755">
        <ele>1155.9</ele>
      </trkpt>
      <trkpt lat="36.56453" lon="30.41765">
        <ele>1152.8</ele>
      </trkpt>
      <trkpt lat="36.56466" lon="30.41771">
        <ele>1150.9</ele>
      </trkpt>
      <trkpt lat="36.56483" lon="30.41776">
        <ele>1149.7</ele>
      </trkpt>
      <trkpt lat="36.56493" lon="30.41774">
        <ele>1150.3</ele>
      </trkpt>
      <trkpt lat="36.56497" lon="30.41744">
        <ele>1158.2</ele>
      </trkpt>
      <trkpt lat="36.56514" lon="30.4171">
        <ele>1166.1</ele>
      </trkpt>
      <trkpt lat="36.56535" lon="30.41689">
        <ele>1166.5</ele>
      </trkpt>
      <trkpt lat="36.56564" lon="30.41676">
        <ele>1161</ele>
      </trkpt>
      <trkpt lat="36.56579" lon="30.41656">
        <ele>1162.9</ele>
      </trkpt>
      <trkpt lat="36.56595" lon="30.41643">
        <ele>1164.4</ele>
      </trkpt>
      <trkpt lat="36.56624" lon="30.41587">
        <ele>1173.4</ele>
      </trkpt>
      <trkpt lat="36.56648" lon="30.41575">
        <ele>1166.8</ele>
      </trkpt>
      <trkpt lat="36.56673" lon="30.4157">
        <ele>1158</ele>
      </trkpt>
      <trkpt lat="36.56685" lon="30.4155">
        <ele>1161.1</ele>
      </trkpt>
      <trkpt lat="36.56692" lon="30.41515">
        <ele>1170</ele>
      </trkpt>
      <trkpt lat="36.56732" lon="30.41484">
        <ele>1160.2</ele>
      </trkpt>
      <trkpt lat="36.56742" lon="30.41461">
        <ele>1158.4</ele>
      </trkpt>
      <trkpt lat="36.56735" lon="30.41435">
        <ele>1164.7</ele>
      </trkpt>
      <trkpt lat="36.56719" lon="30.41408">
        <ele>1175.5</ele>
      </trkpt>
      <trkpt lat="36.56721" lon="30.41384">
        <ele>1175.2</ele>
      </trkpt>
      <trkpt lat="36.56732" lon="30.41347">
        <ele>1170.2</ele>
      </trkpt>
      <trkpt lat="36.56743" lon="30.41325">
        <ele>1166.1</ele>
      </trkpt>
      <trkpt lat="36.56734" lon="30.41309">
        <ele>1172.6</ele>
      </trkpt>
      <trkpt lat="36.56728" lon="30.41285">
        <ele>1178.6</ele>
      </trkpt>
      <trkpt lat="36.56729" lon="30.4127">
        <ele>1180.3</ele>
      </trkpt>
      <trkpt lat="36.56729" lon="30.41257">
        <ele>1182</ele>
      </trkpt>
      <trkpt lat="36.56742" lon="30.41251">
        <ele>1177.6</ele>
      </trkpt>
      <trkpt lat="36.56748" lon="30.41228">
        <ele>1181.7</ele>
      </trkpt>
      <trkpt lat="36.56767" lon="30.41228">
        <ele>1176.3</ele>
      </trkpt>
      <trkpt lat="36.56778" lon="30.41238">
        <ele>1169.9</ele>
      </trkpt>
      <trkpt lat="36.56793" lon="30.41233">
        <ele>1167.5</ele>
      </trkpt>
      <trkpt lat="36.5681" lon="30.41194">
        <ele>1176.4</ele>
      </trkpt>
      <trkpt lat="36.56809" lon="30.41168">
        <ele>1185.4</ele>
      </trkpt>
      <trkpt lat="36.56822" lon="30.4116">
        <ele>1185.3</ele>
      </trkpt>
      <trkpt lat="36.56838" lon="30.41167">
        <ele>1179.4</ele>
      </trkpt>
      <trkpt lat="36.56863" lon="30.41181">
        <ele>1172</ele>
      </trkpt>
      <trkpt lat="36.56881" lon="30.41189">
        <ele>1167.4</ele>
      </trkpt>
      <trkpt lat="36.56901" lon="30.41188">
        <ele>1165.9</ele>
      </trkpt>
      <trkpt lat="36.56926" lon="30.41175">
        <ele>1167.2</ele>
      </trkpt>
      <trkpt lat="36.56944" lon="30.4116">
        <ele>1170.1</ele>
      </trkpt>
      <trkpt lat="36.56968" lon="30.41164">
        <ele>1165.8</ele>
      </trkpt>
      <trkpt lat="36.56991" lon="30.4117">
        <ele>1161.3</ele>
      </trkpt>
      <trkpt lat="36.57031" lon="30.41193">
        <ele>1161</ele>
      </trkpt>
      <trkpt lat="36.57041" lon="30.41208">
        <ele>1159.5</ele>
      </trkpt>
      <trkpt lat="36.57045" lon="30.41225">
        <ele>1156.5</ele>
      </trkpt>
      <trkpt lat="36.57047" lon="30.41239">
        <ele>1153.7</ele>
      </trkpt>
      <trkpt lat="36.57053" lon="30.41265">
        <ele>1149.7</ele>
      </trkpt>
      <trkpt lat="36.57066" lon="30.41295">
        <ele>1146.7</ele>
      </trkpt>
      <trkpt lat="36.57084" lon="30.41322">
        <ele>1145.8</ele>
      </trkpt>
      <trkpt lat="36.57101" lon="30.413">
        <ele>1149.3</ele>
      </trkpt>
      <trkpt lat="36.57122" lon="30.4129">
        <ele>1151.2</ele>
      </trkpt>
      <trkpt lat="36.57137" lon="30.41295">
        <ele>1150.5</ele>
      </trkpt>
      <trkpt lat="36.57127" lon="30.41302">
        <ele>1149.1</ele>
      </trkpt>
      <trkpt lat="36.57121" lon="30.41306">
        <ele>1148.3</ele>
      </trkpt>
      <trkpt lat="36.5712" lon="30.41312">
        <ele>1147.2</ele>
      </trkpt>
      <trkpt lat="36.57124" lon="30.41319">
        <ele>1145.7</ele>
      </trkpt>
      <trkpt lat="36.57121" lon="30.41325">
        <ele>1144.7</ele>
      </trkpt>
      <trkpt lat="36.57121" lon="30.41337">
        <ele>1142.5</ele>
      </trkpt>
      <trkpt lat="36.57123" lon="30.41349">
        <ele>1140</ele>
      </trkpt>
      <trkpt lat="36.57122" lon="30.41357">
        <ele>1138.5</ele>
      </trkpt>
      <trkpt lat="36.57122" lon="30.41364">
        <ele>1137.2</ele>
      </trkpt>
      <trkpt lat="36.57117" lon="30.41379">
        <ele>1134.4</ele>
      </trkpt>
      <trkpt lat="36.57115" lon="30.4139">
        <ele>1132.2</ele>
      </trkpt>
      <trkpt lat="36.5711" lon="30.41402">
        <ele>1129.9</ele>
      </trkpt>
      <trkpt lat="36.57106" lon="30.41413">
        <ele>1127.7</ele>
      </trkpt>
      <trkpt lat="36.57095" lon="30.41416">
        <ele>1127.1</ele>
      </trkpt>
      <trkpt lat="36.57085" lon="30.41414">
        <ele>1127.5</ele>
      </trkpt>
      <trkpt lat="36.57081" lon="30.41427">
        <ele>1124.2</ele>
      </trkpt>
      <trkpt lat="36.57082" lon="30.41445">
        <ele>1120.2</ele>
      </trkpt>
      <trkpt lat="36.57081" lon="30.41464">
        <ele>1115.6</ele>
      </trkpt>
      <trkpt lat="36.57073" lon="30.41458">
        <ele>1114.8</ele>
      </trkpt>
      <trkpt lat="36.57064" lon="30.4146">
        <ele>1112.3</ele>
      </trkpt>
      <trkpt lat="36.57061" lon="30.41462">
        <ele>1111</ele>
      </trkpt>
      <trkpt lat="36.57068" lon="30.41471">
        <ele>1110.6</ele>
      </trkpt>
      <trkpt lat="36.57069" lon="30.41479">
        <ele>1109.1</ele>
      </trkpt>
      <trkpt lat="36.57065" lon="30.41483">
        <ele>1107.3</ele>
      </trkpt>
      <trkpt lat="36.57055" lon="30.41479">
        <ele>1105.7</ele>
      </trkpt>
      <trkpt lat="36.57049" lon="30.41481">
        <ele>1103.8</ele>
      </trkpt>
      <trkpt lat="36.57047" lon="30.41487">
        <ele>1101.7</ele>
      </trkpt>
      <trkpt lat="36.57052" lon="30.41502">
        <ele>1099.5</ele>
      </trkpt>
      <trkpt lat="36.57049" lon="30.41506">
        <ele>1097.9</ele>
      </trkpt>
      <trkpt lat="36.57051" lon="30.4151">
        <ele>1097.3</ele>
      </trkpt>
      <trkpt lat="36.57048" lon="30.41518">
        <ele>1094.6</ele>
      </trkpt>
      <trkpt lat="36.57029" lon="30.41531">
        <ele>1086.8</ele>
      </trkpt>
      <trkpt lat="36.57042" lon="30.41547">
        <ele>1086</ele>
      </trkpt>
      <trkpt lat="36.57051" lon="30.41556">
        <ele>1085.7</ele>
      </trkpt>
      <trkpt lat="36.57032" lon="30.41554">
        <ele>1082.1</ele>
      </trkpt>
      <trkpt lat="36.57028" lon="30.41561">
        <ele>1079.7</ele>
      </trkpt>
      <trkpt lat="36.57029" lon="30.41572">
        <ele>1077.3</ele>
      </trkpt>
      <trkpt lat="36.57038" lon="30.41567">
        <ele>1080.2</ele>
      </trkpt>
      <trkpt lat="36.57042" lon="30.4157">
        <ele>1080.3</ele>
      </trkpt>
      <trkpt lat="36.57042" lon="30.41582">
        <ele>1077.4</ele>
      </trkpt>
      <trkpt lat="36.57052" lon="30.41598">
        <ele>1074.8</ele>
      </trkpt>
      <trkpt lat="36.57051" lon="30.41604">
        <ele>1072.6</ele>
      </trkpt>
      <trkpt lat="36.57044" lon="30.41603">
        <ele>1071.5</ele>
      </trkpt>
      <trkpt lat="36.57043" lon="30.41623">
        <ele>1065.6</ele>
      </trkpt>
      <trkpt lat="36.57046" lon="30.41635">
        <ele>1062.9</ele>
      </trkpt>
      <trkpt lat="36.57057" lon="30.41653">
        <ele>1058.5</ele>
      </trkpt>
      <trkpt lat="36.57062" lon="30.41671">
        <ele>1053.6</ele>
      </trkpt>
      <trkpt lat="36.57066" lon="30.41688">
        <ele>1048.8</ele>
      </trkpt>
      <trkpt lat="36.5708" lon="30.417">
        <ele>1045.4</ele>
      </trkpt>
      <trkpt lat="36.57081" lon="30.41714">
        <ele>1040.8</ele>
      </trkpt>
      <trkpt lat="36.57087" lon="30.41718">
        <ele>1038.9</ele>
      </trkpt>
      <trkpt lat="36.57089" lon="30.41733">
        <ele>1033.2</ele>
      </trkpt>
      <trkpt lat="36.57083" lon="30.4174">
        <ele>1031.7</ele>
      </trkpt>
      <trkpt lat="36.57088" lon="30.41754">
        <ele>1026.7</ele>
      </trkpt>
      <trkpt lat="36.57097" lon="30.41762">
        <ele>1024.2</ele>
      </trkpt>
      <trkpt lat="36.57105" lon="30.41773">
        <ele>1021.2</ele>
      </trkpt>
      <trkpt lat="36.57113" lon="30.41779">
        <ele>1018.8</ele>
      </trkpt>
      <trkpt lat="36.57116" lon="30.41791">
        <ele>1016.1</ele>
      </trkpt>
      <trkpt lat="36.57127" lon="30.41803">
        <ele>1011.9</ele>
      </trkpt>
      <trkpt lat="36.57119" lon="30.41801">
        <ele>1013.6</ele>
      </trkpt>
      <trkpt lat="36.57124" lon="30.41809">
        <ele>1011.3</ele>
      </trkpt>
      <trkpt lat="36.57121" lon="30.41819">
        <ele>1009.7</ele>
      </trkpt>
      <trkpt lat="36.57124" lon="30.41828">
        <ele>1007.3</ele>
      </trkpt>
      <trkpt lat="36.57135" lon="30.41837">
        <ele>1003.4</ele>
      </trkpt>
      <trkpt lat="36.57158" lon="30.41852">
        <ele>995.9</ele>
      </trkpt>
      <trkpt lat="36.57162" lon="30.4186">
        <ele>993.2</ele>
      </trkpt>
      <trkpt lat="36.57178" lon="30.41855">
        <ele>993.4</ele>
      </trkpt>
      <trkpt lat="36.5718" lon="30.41864">
        <ele>991.3</ele>
      </trkpt>
      <trkpt lat="36.57179" lon="30.41878">
        <ele>988.3</ele>
      </trkpt>
      <trkpt lat="36.5719" lon="30.41907">
        <ele>981.9</ele>
      </trkpt>
      <trkpt lat="36.572" lon="30.41923">
        <ele>978.1</ele>
      </trkpt>
      <trkpt lat="36.57208" lon="30.41921">
        <ele>978.4</ele>
      </trkpt>
      <trkpt lat="36.57218" lon="30.41922">
        <ele>978.1</ele>
      </trkpt>
      <trkpt lat="36.57236" lon="30.4193">
        <ele>976</ele>
      </trkpt>
      <trkpt lat="36.57249" lon="30.41953">
        <ele>970.3</ele>
      </trkpt>
      <trkpt lat="36.57256" lon="30.41963">
        <ele>968.1</ele>
      </trkpt>
      <trkpt lat="36.57267" lon="30.41975">
        <ele>965.7</ele>
      </trkpt>
      <trkpt lat="36.57275" lon="30.41977">
        <ele>965.8</ele>
      </trkpt>
      <trkpt lat="36.57283" lon="30.41988">
        <ele>963.8</ele>
      </trkpt>
      <trkpt lat="36.57283" lon="30.42009">
        <ele>959.8</ele>
      </trkpt>
      <trkpt lat="36.57281" lon="30.42041">
        <ele>954.2</ele>
      </trkpt>
      <trkpt lat="36.57282" lon="30.42082">
        <ele>947.5</ele>
      </trkpt>
      <trkpt lat="36.57288" lon="30.421">
        <ele>945.3</ele>
      </trkpt>
      <trkpt lat="36.57303" lon="30.42115">
        <ele>944.4</ele>
      </trkpt>
      <trkpt lat="36.57322" lon="30.42129">
        <ele>943.7</ele>
      </trkpt>
      <trkpt lat="36.57337" lon="30.42136">
        <ele>942.9</ele>
      </trkpt>
      <trkpt lat="36.57353" lon="30.4214">
        <ele>940.9</ele>
      </trkpt>
      <trkpt lat="36.57379" lon="30.42137">
        <ele>939.8</ele>
      </trkpt>
      <trkpt lat="36.57392" lon="30.42135">
        <ele>939.2</ele>
      </trkpt>
      <trkpt lat="36.57418" lon="30.42132">
        <ele>938.1</ele>
      </trkpt>
      <trkpt lat="36.57441" lon="30.42138">
        <ele>934.4</ele>
      </trkpt>
      <trkpt lat="36.5746" lon="30.42146">
        <ele>930.8</ele>
      </trkpt>
      <trkpt lat="36.57475" lon="30.42161">
        <ele>926</ele>
      </trkpt>
      <trkpt lat="36.57484" lon="30.42177">
        <ele>921.7</ele>
      </trkpt>
      <trkpt lat="36.57489" lon="30.42192">
        <ele>918.1</ele>
      </trkpt>
      <trkpt lat="36.57488" lon="30.42204">
        <ele>915.7</ele>
      </trkpt>
      <trkpt lat="36.57479" lon="30.42217">
        <ele>914.3</ele>
      </trkpt>
      <trkpt lat="36.57468" lon="30.42222">
        <ele>914.5</ele>
      </trkpt>
      <trkpt lat="36.57464" lon="30.4223">
        <ele>913.4</ele>
      </trkpt>
      <trkpt lat="36.57476" lon="30.42239">
        <ele>910.2</ele>
      </trkpt>
      <trkpt lat="36.57488" lon="30.42245">
        <ele>907.5</ele>
      </trkpt>
      <trkpt lat="36.57496" lon="30.42252">
        <ele>905.1</ele>
      </trkpt>
      <trkpt lat="36.57518" lon="30.42281">
        <ele>901.6</ele>
      </trkpt>
      <trkpt lat="36.57531" lon="30.42292">
        <ele>901.3</ele>
      </trkpt>
      <trkpt lat="36.57539" lon="30.42301">
        <ele>900.7</ele>
      </trkpt>
      <trkpt lat="36.57544" lon="30.42322">
        <ele>898</ele>
      </trkpt>
      <trkpt lat="36.57557" lon="30.42349">
        <ele>895.3</ele>
      </trkpt>
      <trkpt lat="36.57575" lon="30.42369">
        <ele>894.7</ele>
      </trkpt>
      <trkpt lat="36.57583" lon="30.42374">
        <ele>895.1</ele>
      </trkpt>
      <trkpt lat="36.57591" lon="30.42376">
        <ele>895.4</ele>
      </trkpt>
      <trkpt lat="36.57618" lon="30.42367">
        <ele>898.7</ele>
      </trkpt>
      <trkpt lat="36.5763" lon="30.42366">
        <ele>899.7</ele>
      </trkpt>
      <trkpt lat="36.57647" lon="30.4237">
        <ele>900.3</ele>
      </trkpt>
      <trkpt lat="36.57663" lon="30.4236">
        <ele>903.3</ele>
      </trkpt>
      <trkpt lat="36.57677" lon="30.42344">
        <ele>906</ele>
      </trkpt>
      <trkpt lat="36.57686" lon="30.42334">
        <ele>907.4</ele>
      </trkpt>
      <trkpt lat="36.57719" lon="30.42311">
        <ele>911.7</ele>
      </trkpt>
      <trkpt lat="36.57729" lon="30.42299">
        <ele>914.5</ele>
      </trkpt>
      <trkpt lat="36.57735" lon="30.42294">
        <ele>915.5</ele>
      </trkpt>
      <trkpt lat="36.57747" lon="30.42291">
        <ele>916.3</ele>
      </trkpt>
      <trkpt lat="36.57749" lon="30.4229">
        <ele>916.5</ele>
      </trkpt>
      <trkpt lat="36.5775" lon="30.42289">
        <ele>916.8</ele>
      </trkpt>
      <trkpt lat="36.57761" lon="30.42281">
        <ele>919.4</ele>
      </trkpt>
      <trkpt lat="36.57779" lon="30.4228">
        <ele>920.8</ele>
      </trkpt>
      <trkpt lat="36.57794" lon="30.4229">
        <ele>919.3</ele>
      </trkpt>
      <trkpt lat="36.578" lon="30.42301">
        <ele>916.9</ele>
      </trkpt>
      <trkpt lat="36.57806" lon="30.42306">
        <ele>915.9</ele>
      </trkpt>
      <trkpt lat="36.57816" lon="30.42304">
        <ele>916.9</ele>
      </trkpt>
      <trkpt lat="36.57827" lon="30.42298">
        <ele>919.4</ele>
      </trkpt>
      <trkpt lat="36.57836" lon="30.42295">
        <ele>921</ele>
      </trkpt>
      <trkpt lat="36.57857" lon="30.42296">
        <ele>923.8</ele>
      </trkpt>
      <trkpt lat="36.57891" lon="30.42302">
        <ele>926.9</ele>
      </trkpt>
      <trkpt lat="36.579" lon="30.42306">
        <ele>926.8</ele>
      </trkpt>
      <trkpt lat="36.57931" lon="30.42316">
        <ele>928.6</ele>
      </trkpt>
      <trkpt lat="36.57954" lon="30.42318">
        <ele>931.3</ele>
      </trkpt>
      <trkpt lat="36.5797" lon="30.42307">
        <ele>936.1</ele>
      </trkpt>
      <trkpt lat="36.58004" lon="30.42295">
        <ele>943.7</ele>
      </trkpt>
      <trkpt lat="36.58014" lon="30.42295">
        <ele>946.1</ele>
      </trkpt>
      <trkpt lat="36.58018" lon="30.42302">
        <ele>945.4</ele>
      </trkpt>
      <trkpt lat="36.58016" lon="30.42314">
        <ele>942.2</ele>
      </trkpt>
      <trkpt lat="36.58017" lon="30.42337">
        <ele>936.7</ele>
      </trkpt>
      <trkpt lat="36.58007" lon="30.42348">
        <ele>931.4</ele>
      </trkpt>
      <trkpt lat="36.58008" lon="30.42356">
        <ele>929.6</ele>
      </trkpt>
      <trkpt lat="36.58014" lon="30.42367">
        <ele>927.9</ele>
      </trkpt>
      <trkpt lat="36.58012" lon="30.42391">
        <ele>920.9</ele>
      </trkpt>
      <trkpt lat="36.58014" lon="30.42406">
        <ele>917.5</ele>
      </trkpt>
      <trkpt lat="36.5804" lon="30.42448">
        <ele>914.1</ele>
      </trkpt>
      <trkpt lat="36.58082" lon="30.425">
        <ele>911.9</ele>
      </trkpt>
      <trkpt lat="36.58191" lon="30.42574">
        <ele>904.5</ele>
      </trkpt>
      <trkpt lat="36.58214" lon="30.42583">
        <ele>903.5</ele>
      </trkpt>
      <trkpt lat="36.58241" lon="30.42591">
        <ele>902.9</ele>
      </trkpt>
      <trkpt lat="36.58262" lon="30.42595">
        <ele>900.7</ele>
      </trkpt>
      <trkpt lat="36.58285" lon="30.42589">
        <ele>900.1</ele>
      </trkpt>
      <trkpt lat="36.5831" lon="30.42576">
        <ele>901.6</ele>
      </trkpt>
      <trkpt lat="36.58325" lon="30.42564">
        <ele>904.7</ele>
      </trkpt>
      <trkpt lat="36.58341" lon="30.4256">
        <ele>904.3</ele>
      </trkpt>
      <trkpt lat="36.58387" lon="30.42564">
        <ele>896.7</ele>
      </trkpt>
      <trkpt lat="36.58401" lon="30.42563">
        <ele>895.2</ele>
      </trkpt>
      <trkpt lat="36.58419" lon="30.42548">
        <ele>898.9</ele>
      </trkpt>
      <trkpt lat="36.58436" lon="30.42541">
        <ele>899.1</ele>
      </trkpt>
      <trkpt lat="36.58466" lon="30.42535">
        <ele>897.7</ele>
      </trkpt>
      <trkpt lat="36.58487" lon="30.4253">
        <ele>896.7</ele>
      </trkpt>
      <trkpt lat="36.58515" lon="30.42514">
        <ele>899.9</ele>
      </trkpt>
      <trkpt lat="36.58531" lon="30.42493">
        <ele>905.9</ele>
      </trkpt>
      <trkpt lat="36.58544" lon="30.42474">
        <ele>910.9</ele>
      </trkpt>
      <trkpt lat="36.58552" lon="30.42468">
        <ele>912.3</ele>
      </trkpt>
      <trkpt lat="36.5856" lon="30.42468">
        <ele>911.4</ele>
      </trkpt>
      <trkpt lat="36.58567" lon="30.42488">
        <ele>904.9</ele>
      </trkpt>
      <trkpt lat="36.58588" lon="30.42522">
        <ele>893.9</ele>
      </trkpt>
      <trkpt lat="36.58612" lon="30.42529">
        <ele>897.3</ele>
      </trkpt>
      <trkpt lat="36.58634" lon="30.4254">
        <ele>898.5</ele>
      </trkpt>
      <trkpt lat="36.58644" lon="30.42556">
        <ele>895.1</ele>
      </trkpt>
      <trkpt lat="36.58658" lon="30.42563">
        <ele>895.3</ele>
      </trkpt>
      <trkpt lat="36.58694" lon="30.42557">
        <ele>904.5</ele>
      </trkpt>
      <trkpt lat="36.58731" lon="30.42562">
        <ele>909.8</ele>
      </trkpt>
      <trkpt lat="36.58742" lon="30.42555">
        <ele>914.5</ele>
      </trkpt>
      <trkpt lat="36.58755" lon="30.4256">
        <ele>914.9</ele>
      </trkpt>
      <trkpt lat="36.58789" lon="30.42582">
        <ele>914.2</ele>
      </trkpt>
      <trkpt lat="36.58803" lon="30.42602">
        <ele>911.3</ele>
      </trkpt>
      <trkpt lat="36.58832" lon="30.42618">
        <ele>913.3</ele>
      </trkpt>
      <trkpt lat="36.58861" lon="30.42627">
        <ele>915.7</ele>
      </trkpt>
      <trkpt lat="36.58913" lon="30.42642">
        <ele>919.1</ele>
      </trkpt>
      <trkpt lat="36.58934" lon="30.4264">
        <ele>922</ele>
      </trkpt>
      <trkpt lat="36.59007" lon="30.42663">
        <ele>921.9</ele>
      </trkpt>
      <trkpt lat="36.59042" lon="30.42675">
        <ele>923.1</ele>
      </trkpt>
      <trkpt lat="36.59092" lon="30.42676">
        <ele>928.4</ele>
      </trkpt>
      <trkpt lat="36.59131" lon="30.42688">
        <ele>927.5</ele>
      </trkpt>
      <trkpt lat="36.59156" lon="30.42684">
        <ele>930.8</ele>
      </trkpt>
      <trkpt lat="36.5926" lon="30.42642">
        <ele>933</ele>
      </trkpt>
      <trkpt lat="36.59289" lon="30.42605">
        <ele>935.8</ele>
      </trkpt>
      <trkpt lat="36.59307" lon="30.42594">
        <ele>935.5</ele>
      </trkpt>
      <trkpt lat="36.5933" lon="30.42586">
        <ele>933.8</ele>
      </trkpt>
      <trkpt lat="36.59353" lon="30.42582">
        <ele>927.9</ele>
      </trkpt>
      <trkpt lat="36.59371" lon="30.42571">
        <ele>925.1</ele>
      </trkpt>
      <trkpt lat="36.59385" lon="30.42546">
        <ele>926.5</ele>
      </trkpt>
      <trkpt lat="36.59403" lon="30.42518">
        <ele>926.6</ele>
      </trkpt>
      <trkpt lat="36.59404" lon="30.42504">
        <ele>929.4</ele>
      </trkpt>
      <trkpt lat="36.59389" lon="30.42447">
        <ele>941.3</ele>
      </trkpt>
      <trkpt lat="36.59398" lon="30.42411">
        <ele>940.8</ele>
      </trkpt>
      <trkpt lat="36.59407" lon="30.42395">
        <ele>940.2</ele>
      </trkpt>
      <trkpt lat="36.59474" lon="30.42329">
        <ele>942</ele>
      </trkpt>
      <trkpt lat="36.59485" lon="30.4232">
        <ele>942.8</ele>
      </trkpt>
      <trkpt lat="36.59529" lon="30.42312">
        <ele>940.7</ele>
      </trkpt>
      <trkpt lat="36.59589" lon="30.42278">
        <ele>943.5</ele>
      </trkpt>
      <trkpt lat="36.59606" lon="30.4227">
        <ele>942.6</ele>
      </trkpt>
      <trkpt lat="36.59631" lon="30.42266">
        <ele>939.6</ele>
      </trkpt>
      <trkpt lat="36.59652" lon="30.42267">
        <ele>935.8</ele>
      </trkpt>
      <trkpt lat="36.59682" lon="30.42274">
        <ele>927.7</ele>
      </trkpt>
      <trkpt lat="36.59692" lon="30.42271">
        <ele>926.5</ele>
      </trkpt>
      <trkpt lat="36.59696" lon="30.4226">
        <ele>928.8</ele>
      </trkpt>
      <trkpt lat="36.59695" lon="30.42198">
        <ele>938.3</ele>
      </trkpt>
      <trkpt lat="36.59696" lon="30.42177">
        <ele>940.5</ele>
      </trkpt>
      <trkpt lat="36.59701" lon="30.42168">
        <ele>940.7</ele>
      </trkpt>
      <trkpt lat="36.59714" lon="30.42162">
        <ele>939.6</ele>
      </trkpt>
      <trkpt lat="36.59737" lon="30.42153">
        <ele>938.3</ele>
      </trkpt>
      <trkpt lat="36.59757" lon="30.4215">
        <ele>936.8</ele>
      </trkpt>
      <trkpt lat="36.59778" lon="30.4215">
        <ele>936.8</ele>
      </trkpt>
      <trkpt lat="36.59799" lon="30.42151">
        <ele>936.5</ele>
      </trkpt>
      <trkpt lat="36.59812" lon="30.42154">
        <ele>935.5</ele>
      </trkpt>
      <trkpt lat="36.59821" lon="30.42159">
        <ele>934.2</ele>
      </trkpt>
      <trkpt lat="36.5983" lon="30.42174">
        <ele>930.7</ele>
      </trkpt>
      <trkpt lat="36.59839" lon="30.42188">
        <ele>928</ele>
      </trkpt>
      <trkpt lat="36.59847" lon="30.4219">
        <ele>927.1</ele>
      </trkpt>
      <trkpt lat="36.5986" lon="30.42184">
        <ele>927.7</ele>
      </trkpt>
      <trkpt lat="36.59874" lon="30.42168">
        <ele>930.2</ele>
      </trkpt>
      <trkpt lat="36.59898" lon="30.42166">
        <ele>929.8</ele>
      </trkpt>
      <trkpt lat="36.59907" lon="30.42154">
        <ele>931.3</ele>
      </trkpt>
      <trkpt lat="36.5992" lon="30.42124">
        <ele>935.2</ele>
      </trkpt>
      <trkpt lat="36.59936" lon="30.42095">
        <ele>939.8</ele>
      </trkpt>
      <trkpt lat="36.59947" lon="30.42083">
        <ele>941.9</ele>
      </trkpt>
      <trkpt lat="36.59953" lon="30.42081">
        <ele>942.6</ele>
      </trkpt>
      <trkpt lat="36.59961" lon="30.42087">
        <ele>941.5</ele>
      </trkpt>
      <trkpt lat="36.59972" lon="30.42103">
        <ele>939.3</ele>
      </trkpt>
      <trkpt lat="36.59983" lon="30.42118">
        <ele>937.3</ele>
      </trkpt>
      <trkpt lat="36.59991" lon="30.42124">
        <ele>936.4</ele>
      </trkpt>
      <trkpt lat="36.59997" lon="30.42129">
        <ele>935.8</ele>
      </trkpt>
      <trkpt lat="36.60007" lon="30.42159">
        <ele>932.3</ele>
      </trkpt>
      <trkpt lat="36.60018" lon="30.42179">
        <ele>930.3</ele>
      </trkpt>
      <trkpt lat="36.60045" lon="30.42213">
        <ele>927.3</ele>
      </trkpt>
      <trkpt lat="36.60059" lon="30.42241">
        <ele>923.6</ele>
      </trkpt>
      <trkpt lat="36.60072" lon="30.42243">
        <ele>925.5</ele>
      </trkpt>
      <trkpt lat="36.60083" lon="30.42253">
        <ele>924.8</ele>
      </trkpt>
      <trkpt lat="36.60094" lon="30.42278">
        <ele>918.8</ele>
      </trkpt>
      <trkpt lat="36.6011" lon="30.42293">
        <ele>917.6</ele>
      </trkpt>
      <trkpt lat="36.60123" lon="30.42315">
        <ele>914.7</ele>
      </trkpt>
      <trkpt lat="36.60134" lon="30.42336">
        <ele>912.1</ele>
      </trkpt>
      <trkpt lat="36.6014" lon="30.42363">
        <ele>906.8</ele>
      </trkpt>
      <trkpt lat="36.60149" lon="30.42376">
        <ele>906.3</ele>
      </trkpt>
      <trkpt lat="36.60162" lon="30.42395">
        <ele>905.1</ele>
      </trkpt>
      <trkpt lat="36.60176" lon="30.42401">
        <ele>904.8</ele>
      </trkpt>
      <trkpt lat="36.60194" lon="30.42404">
        <ele>903.6</ele>
      </trkpt>
      <trkpt lat="36.6021" lon="30.42397">
        <ele>904.8</ele>
      </trkpt>
      <trkpt lat="36.6023" lon="30.42394">
        <ele>904.9</ele>
      </trkpt>
      <trkpt lat="36.60258" lon="30.42398">
        <ele>903.5</ele>
      </trkpt>
      <trkpt lat="36.60273" lon="30.42406">
        <ele>901.5</ele>
      </trkpt>
      <trkpt lat="36.60299" lon="30.42418">
        <ele>898</ele>
      </trkpt>
      <trkpt lat="36.60313" lon="30.42416">
        <ele>898.5</ele>
      </trkpt>
      <trkpt lat="36.6034" lon="30.42426">
        <ele>897.4</ele>
      </trkpt>
      <trkpt lat="36.60351" lon="30.42436">
        <ele>897.5</ele>
      </trkpt>
      <trkpt lat="36.60362" lon="30.42446">
        <ele>897.7</ele>
      </trkpt>
      <trkpt lat="36.60373" lon="30.42478">
        <ele>894.4</ele>
      </trkpt>
      <trkpt lat="36.60372" lon="30.42511">
        <ele>888.8</ele>
      </trkpt>
      <trkpt lat="36.6038" lon="30.42538">
        <ele>887.5</ele>
      </trkpt>
      <trkpt lat="36.60379" lon="30.42564">
        <ele>884.1</ele>
      </trkpt>
      <trkpt lat="36.60371" lon="30.42578">
        <ele>880.8</ele>
      </trkpt>
      <trkpt lat="36.60372" lon="30.42592">
        <ele>878.9</ele>
      </trkpt>
      <trkpt lat="36.60384" lon="30.42605">
        <ele>879.3</ele>
      </trkpt>
      <trkpt lat="36.60404" lon="30.42618">
        <ele>881.8</ele>
      </trkpt>
      <trkpt lat="36.60429" lon="30.42626">
        <ele>887</ele>
      </trkpt>
      <trkpt lat="36.6044" lon="30.42642">
        <ele>887.9</ele>
      </trkpt>
      <trkpt lat="36.60443" lon="30.4268">
        <ele>881.2</ele>
      </trkpt>
      <trkpt lat="36.60453" lon="30.42704">
        <ele>878.1</ele>
      </trkpt>
      <trkpt lat="36.60464" lon="30.42743">
        <ele>870.6</ele>
      </trkpt>
      <trkpt lat="36.60465" lon="30.42765">
        <ele>866.9</ele>
      </trkpt>
      <trkpt lat="36.60485" lon="30.42784">
        <ele>869.1</ele>
      </trkpt>
      <trkpt lat="36.60488" lon="30.42808">
        <ele>865.9</ele>
      </trkpt>
      <trkpt lat="36.60512" lon="30.42815">
        <ele>871.1</ele>
      </trkpt>
      <trkpt lat="36.6052" lon="30.42851">
        <ele>867.6</ele>
      </trkpt>
      <trkpt lat="36.60518" lon="30.4292">
        <ele>856.8</ele>
      </trkpt>
      <trkpt lat="36.6051" lon="30.42946">
        <ele>853.6</ele>
      </trkpt>
      <trkpt lat="36.60492" lon="30.4297">
        <ele>847.5</ele>
      </trkpt>
      <trkpt lat="36.6048" lon="30.42983">
        <ele>843.9</ele>
      </trkpt>
      <trkpt lat="36.6049" lon="30.43015">
        <ele>845.1</ele>
      </trkpt>
      <trkpt lat="36.60503" lon="30.43037">
        <ele>847.9</ele>
      </trkpt>
      <trkpt lat="36.60513" lon="30.4305">
        <ele>851.3</ele>
      </trkpt>
      <trkpt lat="36.60527" lon="30.43065">
        <ele>856.6</ele>
      </trkpt>
      <trkpt lat="36.60532" lon="30.4309">
        <ele>857.5</ele>
      </trkpt>
      <trkpt lat="36.60518" lon="30.43102">
        <ele>851.5</ele>
      </trkpt>
      <trkpt lat="36.60508" lon="30.43118">
        <ele>847</ele>
      </trkpt>
      <trkpt lat="36.6049" lon="30.43125">
        <ele>840.4</ele>
      </trkpt>
      <trkpt lat="36.60477" lon="30.43142">
        <ele>835.5</ele>
      </trkpt>
      <trkpt lat="36.60472" lon="30.43162">
        <ele>833.5</ele>
      </trkpt>
      <trkpt lat="36.60467" lon="30.43188">
        <ele>830.7</ele>
      </trkpt>
      <trkpt lat="36.6048" lon="30.43224">
        <ele>834.2</ele>
      </trkpt>
      <trkpt lat="36.60486" lon="30.4325">
        <ele>835.6</ele>
      </trkpt>
      <trkpt lat="36.60495" lon="30.43276">
        <ele>838.9</ele>
      </trkpt>
      <trkpt lat="36.605" lon="30.43301">
        <ele>840.2</ele>
      </trkpt>
      <trkpt lat="36.60496" lon="30.4332">
        <ele>838.4</ele>
      </trkpt>
      <trkpt lat="36.60486" lon="30.43338">
        <ele>833.4</ele>
      </trkpt>
      <trkpt lat="36.60486" lon="30.43361">
        <ele>830</ele>
      </trkpt>
      <trkpt lat="36.60498" lon="30.43398">
        <ele>829.7</ele>
      </trkpt>
      <trkpt lat="36.60517" lon="30.43421">
        <ele>831.3</ele>
      </trkpt>
      <trkpt lat="36.60531" lon="30.43448">
        <ele>828.4</ele>
      </trkpt>
      <trkpt lat="36.60556" lon="30.4346">
        <ele>832.8</ele>
      </trkpt>
      <trkpt lat="36.60566" lon="30.4347">
        <ele>833.7</ele>
      </trkpt>
      <trkpt lat="36.60572" lon="30.43483">
        <ele>832.7</ele>
      </trkpt>
      <trkpt lat="36.60566" lon="30.43501">
        <ele>827.3</ele>
      </trkpt>
      <trkpt lat="36.60569" lon="30.43517">
        <ele>825.8</ele>
      </trkpt>
      <trkpt lat="36.60572" lon="30.43547">
        <ele>822.2</ele>
      </trkpt>
      <trkpt lat="36.60581" lon="30.43561">
        <ele>823.3</ele>
      </trkpt>
      <trkpt lat="36.60579" lon="30.43601">
        <ele>817.6</ele>
      </trkpt>
      <trkpt lat="36.60585" lon="30.43614">
        <ele>818</ele>
      </trkpt>
      <trkpt lat="36.60594" lon="30.43624">
        <ele>818.5</ele>
      </trkpt>
      <trkpt lat="36.60615" lon="30.43639">
        <ele>820.6</ele>
      </trkpt>
      <trkpt lat="36.60638" lon="30.43698">
        <ele>818</ele>
      </trkpt>
      <trkpt lat="36.60688" lon="30.43758">
        <ele>814.7</ele>
      </trkpt>
      <trkpt lat="36.60706" lon="30.43793">
        <ele>811.5</ele>
      </trkpt>
      <trkpt lat="36.60729" lon="30.43788">
        <ele>812.5</ele>
      </trkpt>
      <trkpt lat="36.60771" lon="30.43794">
        <ele>811.8</ele>
      </trkpt>
      <trkpt lat="36.60808" lon="30.43791">
        <ele>811.2</ele>
      </trkpt>
      <trkpt lat="36.60839" lon="30.43781">
        <ele>811.2</ele>
      </trkpt>
      <trkpt lat="36.60849" lon="30.43774">
        <ele>810.9</ele>
      </trkpt>
      <trkpt lat="36.60863" lon="30.43776">
        <ele>809.2</ele>
      </trkpt>
      <trkpt lat="36.60871" lon="30.43791">
        <ele>806.7</ele>
      </trkpt>
      <trkpt lat="36.60894" lon="30.43802">
        <ele>803.1</ele>
      </trkpt>
      <trkpt lat="36.60917" lon="30.43791">
        <ele>802</ele>
      </trkpt>
      <trkpt lat="36.60941" lon="30.43778">
        <ele>798.6</ele>
      </trkpt>
      <trkpt lat="36.6095" lon="30.43778">
        <ele>796.8</ele>
      </trkpt>
      <trkpt lat="36.60969" lon="30.43751">
        <ele>794.4</ele>
      </trkpt>
      <trkpt lat="36.60984" lon="30.43717">
        <ele>794.3</ele>
      </trkpt>
      <trkpt lat="36.60994" lon="30.43705">
        <ele>792.4</ele>
      </trkpt>
      <trkpt lat="36.61001" lon="30.43678">
        <ele>792.9</ele>
      </trkpt>
      <trkpt lat="36.61002" lon="30.43673">
        <ele>793</ele>
      </trkpt>
      <trkpt lat="36.61005" lon="30.43669">
        <ele>792.7</ele>
      </trkpt>
      <trkpt lat="36.61008" lon="30.4367">
        <ele>791.8</ele>
      </trkpt>
      <trkpt lat="36.61013" lon="30.43683">
        <ele>789.6</ele>
      </trkpt>
      <trkpt lat="36.61015" lon="30.43706">
        <ele>786.8</ele>
      </trkpt>
      <trkpt lat="36.61027" lon="30.43729">
        <ele>781.5</ele>
      </trkpt>
      <trkpt lat="36.61052" lon="30.43747">
        <ele>772.4</ele>
      </trkpt>
      <trkpt lat="36.61066" lon="30.43768">
        <ele>766.8</ele>
      </trkpt>
      <trkpt lat="36.61069" lon="30.43781">
        <ele>765.2</ele>
      </trkpt>
      <trkpt lat="36.61068" lon="30.43794">
        <ele>764.6</ele>
      </trkpt>
      <trkpt lat="36.61064" lon="30.43814">
        <ele>764.6</ele>
      </trkpt>
      <trkpt lat="36.61066" lon="30.43828">
        <ele>763</ele>
      </trkpt>
      <trkpt lat="36.61075" lon="30.43843">
        <ele>759.8</ele>
      </trkpt>
      <trkpt lat="36.61087" lon="30.43855">
        <ele>756.2</ele>
      </trkpt>
      <trkpt lat="36.61097" lon="30.43873">
        <ele>753.7</ele>
      </trkpt>
      <trkpt lat="36.611" lon="30.43882">
        <ele>753</ele>
      </trkpt>
      <trkpt lat="36.6111" lon="30.43887">
        <ele>750.3</ele>
      </trkpt>
      <trkpt lat="36.61115" lon="30.43886">
        <ele>749.1</ele>
      </trkpt>
      <trkpt lat="36.61117" lon="30.43874">
        <ele>748.9</ele>
      </trkpt>
      <trkpt lat="36.61119" lon="30.43858">
        <ele>748.9</ele>
      </trkpt>
      <trkpt lat="36.61128" lon="30.43852">
        <ele>747.2</ele>
      </trkpt>
      <trkpt lat="36.61136" lon="30.43873">
        <ele>744.4</ele>
      </trkpt>
      <trkpt lat="36.61152" lon="30.43881">
        <ele>740.1</ele>
      </trkpt>
      <trkpt lat="36.61162" lon="30.4389">
        <ele>737.1</ele>
      </trkpt>
      <trkpt lat="36.6117" lon="30.43895">
        <ele>735.3</ele>
      </trkpt>
      <trkpt lat="36.61181" lon="30.43902">
        <ele>734</ele>
      </trkpt>
      <trkpt lat="36.61189" lon="30.43909">
        <ele>732.8</ele>
      </trkpt>
      <trkpt lat="36.61191" lon="30.43919">
        <ele>731.9</ele>
      </trkpt>
      <trkpt lat="36.61194" lon="30.43932">
        <ele>731.7</ele>
      </trkpt>
      <trkpt lat="36.61198" lon="30.43953">
        <ele>731.2</ele>
      </trkpt>
      <trkpt lat="36.61213" lon="30.43977">
        <ele>729.2</ele>
      </trkpt>
      <trkpt lat="36.61229" lon="30.43991">
        <ele>726.6</ele>
      </trkpt>
      <trkpt lat="36.61248" lon="30.44005">
        <ele>723.7</ele>
      </trkpt>
      <trkpt lat="36.61263" lon="30.44013">
        <ele>724.2</ele>
      </trkpt>
      <trkpt lat="36.61286" lon="30.44019">
        <ele>724.5</ele>
      </trkpt>
      <trkpt lat="36.61292" lon="30.44019">
        <ele>724.5</ele>
      </trkpt>
      <trkpt lat="36.61294" lon="30.4402">
        <ele>724.4</ele>
      </trkpt>
      <trkpt lat="36.61303" lon="30.44037">
        <ele>722.9</ele>
      </trkpt>
      <trkpt lat="36.61318" lon="30.44061">
        <ele>718.8</ele>
      </trkpt>
      <trkpt lat="36.61332" lon="30.44081">
        <ele>713.7</ele>
      </trkpt>
      <trkpt lat="36.6134" lon="30.44097">
        <ele>712.8</ele>
      </trkpt>
      <trkpt lat="36.61361" lon="30.44108">
        <ele>711.4</ele>
      </trkpt>
      <trkpt lat="36.61393" lon="30.44125">
        <ele>708.8</ele>
      </trkpt>
      <trkpt lat="36.61406" lon="30.44131">
        <ele>707.6</ele>
      </trkpt>
      <trkpt lat="36.61423" lon="30.44141">
        <ele>706.6</ele>
      </trkpt>
      <trkpt lat="36.61428" lon="30.44165">
        <ele>705.3</ele>
      </trkpt>
      <trkpt lat="36.61439" lon="30.44185">
        <ele>704.7</ele>
      </trkpt>
      <trkpt lat="36.61464" lon="30.44239">
        <ele>701.8</ele>
      </trkpt>
      <trkpt lat="36.61474" lon="30.44257">
        <ele>700.2</ele>
      </trkpt>
      <trkpt lat="36.61476" lon="30.44277">
        <ele>699.2</ele>
      </trkpt>
      <trkpt lat="36.61471" lon="30.44294">
        <ele>698.6</ele>
      </trkpt>
      <trkpt lat="36.61478" lon="30.44312">
        <ele>697.5</ele>
      </trkpt>
      <trkpt lat="36.61476" lon="30.44328">
        <ele>696.8</ele>
      </trkpt>
      <trkpt lat="36.61469" lon="30.44349">
        <ele>695.3</ele>
      </trkpt>
      <trkpt lat="36.61464" lon="30.44375">
        <ele>693.1</ele>
      </trkpt>
      <trkpt lat="36.61455" lon="30.4441">
        <ele>690.2</ele>
      </trkpt>
      <trkpt lat="36.61455" lon="30.44434">
        <ele>688.4</ele>
      </trkpt>
      <trkpt lat="36.61455" lon="30.44453">
        <ele>687.1</ele>
      </trkpt>
      <trkpt lat="36.61454" lon="30.44492">
        <ele>684.5</ele>
      </trkpt>
      <trkpt lat="36.61462" lon="30.44503">
        <ele>683.9</ele>
      </trkpt>
      <trkpt lat="36.61469" lon="30.44517">
        <ele>683.6</ele>
      </trkpt>
      <trkpt lat="36.61474" lon="30.44532">
        <ele>683.3</ele>
      </trkpt>
      <trkpt lat="36.61481" lon="30.44546">
        <ele>683.1</ele>
      </trkpt>
      <trkpt lat="36.61479" lon="30.44562">
        <ele>682.7</ele>
      </trkpt>
      <trkpt lat="36.61472" lon="30.44564">
        <ele>682.5</ele>
      </trkpt>
      <trkpt lat="36.61451" lon="30.44583">
        <ele>681.2</ele>
      </trkpt>
      <trkpt lat="36.61443" lon="30.44596">
        <ele>681.2</ele>
      </trkpt>
      <trkpt lat="36.61432" lon="30.44622">
        <ele>681</ele>
      </trkpt>
      <trkpt lat="36.61423" lon="30.44644">
        <ele>680.5</ele>
      </trkpt>
      <trkpt lat="36.61413" lon="30.44684">
        <ele>680</ele>
      </trkpt>
      <trkpt lat="36.61408" lon="30.44711">
        <ele>680</ele>
      </trkpt>
      <trkpt lat="36.61402" lon="30.44762">
        <ele>679.8</ele>
      </trkpt>
      <trkpt lat="36.614" lon="30.4481">
        <ele>679.1</ele>
      </trkpt>
      <trkpt lat="36.61402" lon="30.44838">
        <ele>678.7</ele>
      </trkpt>
      <trkpt lat="36.61411" lon="30.44916">
        <ele>675.7</ele>
      </trkpt>
      <trkpt lat="36.61418" lon="30.44972">
        <ele>673.6</ele>
      </trkpt>
      <trkpt lat="36.61422" lon="30.45007">
        <ele>673.5</ele>
      </trkpt>
      <trkpt lat="36.61427" lon="30.45037">
        <ele>673.4</ele>
      </trkpt>
      <trkpt lat="36.61429" lon="30.45074">
        <ele>672.3</ele>
      </trkpt>
      <trkpt lat="36.61428" lon="30.45107">
        <ele>671.6</ele>
      </trkpt>
      <trkpt lat="36.61424" lon="30.45135">
        <ele>670.8</ele>
      </trkpt>
      <trkpt lat="36.61423" lon="30.45162">
        <ele>670.7</ele>
      </trkpt>
      <trkpt lat="36.61422" lon="30.4518">
        <ele>670.8</ele>
      </trkpt>
      <trkpt lat="36.61428" lon="30.45193">
        <ele>671.3</ele>
      </trkpt>
      <trkpt lat="36.61439" lon="30.45206">
        <ele>671.6</ele>
      </trkpt>
      <trkpt lat="36.61455" lon="30.45221">
        <ele>671.1</ele>
      </trkpt>
      <trkpt lat="36.61475" lon="30.45233">
        <ele>669.7</ele>
      </trkpt>
      <trkpt lat="36.61528" lon="30.45271">
        <ele>664.1</ele>
      </trkpt>
      <trkpt lat="36.6156" lon="30.45307">
        <ele>660.8</ele>
      </trkpt>
      <trkpt lat="36.61564" lon="30.45326">
        <ele>658.4</ele>
      </trkpt>
      <trkpt lat="36.61591" lon="30.45367">
        <ele>654.8</ele>
      </trkpt>
      <trkpt lat="36.61643" lon="30.45392">
        <ele>651.7</ele>
      </trkpt>
      <trkpt lat="36.61674" lon="30.45406">
        <ele>648.6</ele>
      </trkpt>
      <trkpt lat="36.61698" lon="30.45413">
        <ele>645.8</ele>
      </trkpt>
      <trkpt lat="36.61729" lon="30.45405">
        <ele>645.5</ele>
      </trkpt>
      <trkpt lat="36.61776" lon="30.45381">
        <ele>645.6</ele>
      </trkpt>
      <trkpt lat="36.61786" lon="30.45379">
        <ele>644.7</ele>
      </trkpt>
      <trkpt lat="36.61797" lon="30.45385">
        <ele>642.9</ele>
      </trkpt>
      <trkpt lat="36.61801" lon="30.45403">
        <ele>640.9</ele>
      </trkpt>
      <trkpt lat="36.61793" lon="30.45412">
        <ele>640.4</ele>
      </trkpt>
      <trkpt lat="36.61774" lon="30.4543">
        <ele>641.3</ele>
      </trkpt>
      <trkpt lat="36.61754" lon="30.45444">
        <ele>641.4</ele>
      </trkpt>
      <trkpt lat="36.61716" lon="30.45469">
        <ele>641</ele>
      </trkpt>
      <trkpt lat="36.61757" lon="30.45486">
        <ele>641.1</ele>
      </trkpt>
      <trkpt lat="36.61758" lon="30.45487">
        <ele>641.3</ele>
      </trkpt>
      <trkpt lat="36.61781" lon="30.45474">
        <ele>643.5</ele>
      </trkpt>
      <trkpt lat="36.61805" lon="30.45466">
        <ele>644.7</ele>
      </trkpt>
      <trkpt lat="36.61828" lon="30.45463">
        <ele>646</ele>
      </trkpt>
      <trkpt lat="36.61844" lon="30.45461">
        <ele>648.1</ele>
      </trkpt>
      <trkpt lat="36.61863" lon="30.45456">
        <ele>651</ele>
      </trkpt>
      <trkpt lat="36.61877" lon="30.45451">
        <ele>652.6</ele>
      </trkpt>
      <trkpt lat="36.61897" lon="30.45446">
        <ele>655.2</ele>
      </trkpt>
      <trkpt lat="36.6191" lon="30.45438">
        <ele>656</ele>
      </trkpt>
      <trkpt lat="36.61923" lon="30.45429">
        <ele>655.9</ele>
      </trkpt>
      <trkpt lat="36.6193" lon="30.45429">
        <ele>657.1</ele>
      </trkpt>
      <trkpt lat="36.61934" lon="30.45432">
        <ele>658.7</ele>
      </trkpt>
      <trkpt lat="36.61956" lon="30.45433">
        <ele>662.8</ele>
      </trkpt>
      <trkpt lat="36.6199" lon="30.45435">
        <ele>669</ele>
      </trkpt>
      <trkpt lat="36.62007" lon="30.45434">
        <ele>672.2</ele>
      </trkpt>
      <trkpt lat="36.62012" lon="30.45431">
        <ele>672.3</ele>
      </trkpt>
      <trkpt lat="36.62016" lon="30.45426">
        <ele>671.8</ele>
      </trkpt>
      <trkpt lat="36.62017" lon="30.4542">
        <ele>670.2</ele>
      </trkpt>
      <trkpt lat="36.62015" lon="30.45404">
        <ele>667.7</ele>
      </trkpt>
      <trkpt lat="36.62015" lon="30.45393">
        <ele>667.1</ele>
      </trkpt>
      <trkpt lat="36.62021" lon="30.45385">
        <ele>668</ele>
      </trkpt>
      <trkpt lat="36.62042" lon="30.45375">
        <ele>672.1</ele>
      </trkpt>
      <trkpt lat="36.62059" lon="30.45359">
        <ele>674.8</ele>
      </trkpt>
      <trkpt lat="36.62073" lon="30.45348">
        <ele>676.8</ele>
      </trkpt>
      <trkpt lat="36.62088" lon="30.4533">
        <ele>679.1</ele>
      </trkpt>
      <trkpt lat="36.62104" lon="30.45304">
        <ele>681.4</ele>
      </trkpt>
      <trkpt lat="36.6213" lon="30.45295">
        <ele>686</ele>
      </trkpt>
      <trkpt lat="36.62161" lon="30.45289">
        <ele>691.9</ele>
      </trkpt>
      <trkpt lat="36.62184" lon="30.45284">
        <ele>695.3</ele>
      </trkpt>
      <trkpt lat="36.62212" lon="30.45269">
        <ele>697.1</ele>
      </trkpt>
      <trkpt lat="36.62229" lon="30.45266">
        <ele>698.9</ele>
      </trkpt>
      <trkpt lat="36.62307" lon="30.45259">
        <ele>709.6</ele>
      </trkpt>
      <trkpt lat="36.62354" lon="30.45257">
        <ele>714.5</ele>
      </trkpt>
      <trkpt lat="36.6239" lon="30.45263">
        <ele>718.6</ele>
      </trkpt>
      <trkpt lat="36.62417" lon="30.45275">
        <ele>724.5</ele>
      </trkpt>
      <trkpt lat="36.62441" lon="30.45292">
        <ele>733.8</ele>
      </trkpt>
      <trkpt lat="36.62463" lon="30.45302">
        <ele>739.5</ele>
      </trkpt>
      <trkpt lat="36.62492" lon="30.45301">
        <ele>742.2</ele>
      </trkpt>
      <trkpt lat="36.625" lon="30.45278">
        <ele>734.3</ele>
      </trkpt>
      <trkpt lat="36.62524" lon="30.45267">
        <ele>735.3</ele>
      </trkpt>
      <trkpt lat="36.62555" lon="30.45247">
        <ele>734.5</ele>
      </trkpt>
      <trkpt lat="36.62582" lon="30.45241">
        <ele>737.8</ele>
      </trkpt>
      <trkpt lat="36.6263" lon="30.45242">
        <ele>745.4</ele>
      </trkpt>
      <trkpt lat="36.62658" lon="30.4524">
        <ele>748.9</ele>
      </trkpt>
      <trkpt lat="36.6268" lon="30.45225">
        <ele>748.3</ele>
      </trkpt>
      <trkpt lat="36.62698" lon="30.45227">
        <ele>752.4</ele>
      </trkpt>
      <trkpt lat="36.62761" lon="30.45223">
        <ele>763.2</ele>
      </trkpt>
      <trkpt lat="36.62769" lon="30.45233">
        <ele>766.9</ele>
      </trkpt>
      <trkpt lat="36.62778" lon="30.45225">
        <ele>766.4</ele>
      </trkpt>
      <trkpt lat="36.6279" lon="30.4522">
        <ele>767</ele>
      </trkpt>
      <trkpt lat="36.62805" lon="30.45216">
        <ele>768.5</ele>
      </trkpt>
      <trkpt lat="36.62814" lon="30.45217">
        <ele>770</ele>
      </trkpt>
      <trkpt lat="36.62808" lon="30.45237">
        <ele>774</ele>
      </trkpt>
      <trkpt lat="36.62828" lon="30.45234">
        <ele>776.2</ele>
      </trkpt>
      <trkpt lat="36.62829" lon="30.45225">
        <ele>774.4</ele>
      </trkpt>
      <trkpt lat="36.62852" lon="30.45236">
        <ele>780.5</ele>
      </trkpt>
      <trkpt lat="36.62868" lon="30.45228">
        <ele>781.1</ele>
      </trkpt>
      <trkpt lat="36.62879" lon="30.4523">
        <ele>783.3</ele>
      </trkpt>
      <trkpt lat="36.62893" lon="30.45222">
        <ele>783.1</ele>
      </trkpt>
      <trkpt lat="36.62908" lon="30.45221">
        <ele>784.9</ele>
      </trkpt>
      <trkpt lat="36.62918" lon="30.45228">
        <ele>788.6</ele>
      </trkpt>
      <trkpt lat="36.62926" lon="30.4524">
        <ele>792.4</ele>
      </trkpt>
      <trkpt lat="36.62946" lon="30.45245">
        <ele>794.6</ele>
      </trkpt>
      <trkpt lat="36.6296" lon="30.45244">
        <ele>794.9</ele>
      </trkpt>
      <trkpt lat="36.62973" lon="30.45235">
        <ele>792.7</ele>
      </trkpt>
      <trkpt lat="36.63001" lon="30.45219">
        <ele>789.6</ele>
      </trkpt>
      <trkpt lat="36.6304" lon="30.45224">
        <ele>797</ele>
      </trkpt>
      <trkpt lat="36.63062" lon="30.45231">
        <ele>802.1</ele>
      </trkpt>
      <trkpt lat="36.63075" lon="30.45231">
        <ele>804.1</ele>
      </trkpt>
      <trkpt lat="36.63089" lon="30.45225">
        <ele>805.9</ele>
      </trkpt>
      <trkpt lat="36.63102" lon="30.45219">
        <ele>809.2</ele>
      </trkpt>
      <trkpt lat="36.63117" lon="30.45211">
        <ele>813.2</ele>
      </trkpt>
      <trkpt lat="36.63134" lon="30.45181">
        <ele>814.5</ele>
      </trkpt>
      <trkpt lat="36.63154" lon="30.45159">
        <ele>819.7</ele>
      </trkpt>
      <trkpt lat="36.63158" lon="30.45141">
        <ele>820</ele>
      </trkpt>
      <trkpt lat="36.63172" lon="30.45108">
        <ele>823.6</ele>
      </trkpt>
      <trkpt lat="36.63182" lon="30.45093">
        <ele>828.1</ele>
      </trkpt>
      <trkpt lat="36.63189" lon="30.45075">
        <ele>831.5</ele>
      </trkpt>
      <trkpt lat="36.63206" lon="30.45014">
        <ele>840.5</ele>
      </trkpt>
      <trkpt lat="36.63215" lon="30.44972">
        <ele>847.8</ele>
      </trkpt>
      <trkpt lat="36.63224" lon="30.44916">
        <ele>856.7</ele>
      </trkpt>
      <trkpt lat="36.63226" lon="30.44837">
        <ele>868.8</ele>
      </trkpt>
      <trkpt lat="36.63225" lon="30.44772">
        <ele>880.2</ele>
      </trkpt>
      <trkpt lat="36.63216" lon="30.44689">
        <ele>891.4</ele>
      </trkpt>
      <trkpt lat="36.63219" lon="30.44656">
        <ele>898.5</ele>
      </trkpt>
      <trkpt lat="36.63257" lon="30.44574">
        <ele>919.4</ele>
      </trkpt>
      <trkpt lat="36.6326" lon="30.4455">
        <ele>921.6</ele>
      </trkpt>
      <trkpt lat="36.63253" lon="30.44513">
        <ele>920.6</ele>
      </trkpt>
      <trkpt lat="36.63256" lon="30.44506">
        <ele>922.1</ele>
      </trkpt>
      <trkpt lat="36.63264" lon="30.44523">
        <ele>924.3</ele>
      </trkpt>
      <trkpt lat="36.63269" lon="30.44538">
        <ele>925.5</ele>
      </trkpt>
      <trkpt lat="36.63267" lon="30.44564">
        <ele>923.9</ele>
      </trkpt>
      <trkpt lat="36.63262" lon="30.44601">
        <ele>920.6</ele>
      </trkpt>
      <trkpt lat="36.63259" lon="30.44632">
        <ele>918.8</ele>
      </trkpt>
      <trkpt lat="36.6326" lon="30.44649">
        <ele>919.1</ele>
      </trkpt>
      <trkpt lat="36.63263" lon="30.44663">
        <ele>920.5</ele>
      </trkpt>
      <trkpt lat="36.63266" lon="30.4467">
        <ele>921.9</ele>
      </trkpt>
      <trkpt lat="36.63271" lon="30.4467">
        <ele>924.4</ele>
      </trkpt>
      <trkpt lat="36.63275" lon="30.44663">
        <ele>927.1</ele>
      </trkpt>
      <trkpt lat="36.63296" lon="30.44704">
        <ele>933.2</ele>
      </trkpt>
      <trkpt lat="36.63327" lon="30.44742">
        <ele>945.2</ele>
      </trkpt>
      <trkpt lat="36.63333" lon="30.44743">
        <ele>948.7</ele>
      </trkpt>
      <trkpt lat="36.63336" lon="30.44739">
        <ele>950.5</ele>
      </trkpt>
      <trkpt lat="36.63331" lon="30.44702">
        <ele>954.2</ele>
      </trkpt>
      <trkpt lat="36.63332" lon="30.44696">
        <ele>955.7</ele>
      </trkpt>
      <trkpt lat="36.6334" lon="30.44693">
        <ele>958.6</ele>
      </trkpt>
      <trkpt lat="36.63351" lon="30.44699">
        <ele>960.6</ele>
      </trkpt>
      <trkpt lat="36.63357" lon="30.44712">
        <ele>960.4</ele>
      </trkpt>
      <trkpt lat="36.63417" lon="30.44733">
        <ele>973.8</ele>
      </trkpt>
      <trkpt lat="36.63465" lon="30.44722">
        <ele>969.6</ele>
      </trkpt>
      <trkpt lat="36.6348" lon="30.4471">
        <ele>968.1</ele>
      </trkpt>
      <trkpt lat="36.63517" lon="30.44696">
        <ele>963.6</ele>
      </trkpt>
      <trkpt lat="36.63543" lon="30.44718">
        <ele>959.8</ele>
      </trkpt>
      <trkpt lat="36.63537" lon="30.44741">
        <ele>959.7</ele>
      </trkpt>
      <trkpt lat="36.63534" lon="30.44768">
        <ele>961.9</ele>
      </trkpt>
      <trkpt lat="36.63538" lon="30.44789">
        <ele>963.2</ele>
      </trkpt>
      <trkpt lat="36.63554" lon="30.44822">
        <ele>960.9</ele>
      </trkpt>
      <trkpt lat="36.63567" lon="30.44844">
        <ele>958.8</ele>
      </trkpt>
      <trkpt lat="36.63579" lon="30.44868">
        <ele>959.3</ele>
      </trkpt>
      <trkpt lat="36.63579" lon="30.44891">
        <ele>964.5</ele>
      </trkpt>
      <trkpt lat="36.63588" lon="30.44898">
        <ele>964.6</ele>
      </trkpt>
      <trkpt lat="36.63609" lon="30.449">
        <ele>964.2</ele>
      </trkpt>
      <trkpt lat="36.63623" lon="30.44896">
        <ele>962.7</ele>
      </trkpt>
      <trkpt lat="36.63637" lon="30.44889">
        <ele>960.7</ele>
      </trkpt>
      <trkpt lat="36.63647" lon="30.44884">
        <ele>959.3</ele>
      </trkpt>
      <trkpt lat="36.63659" lon="30.44872">
        <ele>956.6</ele>
      </trkpt>
      <trkpt lat="36.63671" lon="30.44858">
        <ele>953.6</ele>
      </trkpt>
      <trkpt lat="36.63685" lon="30.4485">
        <ele>951.9</ele>
      </trkpt>
      <trkpt lat="36.63705" lon="30.44848">
        <ele>951.3</ele>
      </trkpt>
      <trkpt lat="36.63717" lon="30.44849">
        <ele>951.1</ele>
      </trkpt>
      <trkpt lat="36.63734" lon="30.44859">
        <ele>952.2</ele>
      </trkpt>
      <trkpt lat="36.63748" lon="30.44869">
        <ele>952.9</ele>
      </trkpt>
      <trkpt lat="36.63764" lon="30.44871">
        <ele>951.3</ele>
      </trkpt>
      <trkpt lat="36.63788" lon="30.44868">
        <ele>948.2</ele>
      </trkpt>
      <trkpt lat="36.6381" lon="30.44866">
        <ele>945.6</ele>
      </trkpt>
      <trkpt lat="36.63844" lon="30.44848">
        <ele>945.7</ele>
      </trkpt>
      <trkpt lat="36.6385" lon="30.44849">
        <ele>947.1</ele>
      </trkpt>
      <trkpt lat="36.63857" lon="30.44856">
        <ele>948.3</ele>
      </trkpt>
      <trkpt lat="36.63861" lon="30.44864">
        <ele>948.9</ele>
      </trkpt>
      <trkpt lat="36.63845" lon="30.44928">
        <ele>943.5</ele>
      </trkpt>
      <trkpt lat="36.63842" lon="30.44945">
        <ele>942.8</ele>
      </trkpt>
      <trkpt lat="36.6385" lon="30.44953">
        <ele>944.1</ele>
      </trkpt>
      <trkpt lat="36.63899" lon="30.45088">
        <ele>942.6</ele>
      </trkpt>
      <trkpt lat="36.63904" lon="30.45112">
        <ele>937.3</ele>
      </trkpt>
      <trkpt lat="36.63981" lon="30.45168">
        <ele>935</ele>
      </trkpt>
      <trkpt lat="36.64008" lon="30.45188">
        <ele>934.2</ele>
      </trkpt>
      <trkpt lat="36.6403" lon="30.4521">
        <ele>933</ele>
      </trkpt>
      <trkpt lat="36.64062" lon="30.45244">
        <ele>933.3</ele>
      </trkpt>
      <trkpt lat="36.64076" lon="30.45252">
        <ele>935.3</ele>
      </trkpt>
      <trkpt lat="36.6409" lon="30.4526">
        <ele>934</ele>
      </trkpt>
      <trkpt lat="36.64112" lon="30.45249">
        <ele>936.8</ele>
      </trkpt>
      <trkpt lat="36.64128" lon="30.45243">
        <ele>937.2</ele>
      </trkpt>
      <trkpt lat="36.64148" lon="30.4525">
        <ele>934.8</ele>
      </trkpt>
      <trkpt lat="36.64166" lon="30.45244">
        <ele>935.1</ele>
      </trkpt>
      <trkpt lat="36.64186" lon="30.45234">
        <ele>933.1</ele>
      </trkpt>
      <trkpt lat="36.64203" lon="30.45223">
        <ele>931.3</ele>
      </trkpt>
      <trkpt lat="36.64204" lon="30.45199">
        <ele>934.9</ele>
      </trkpt>
      <trkpt lat="36.64222" lon="30.45195">
        <ele>931.6</ele>
      </trkpt>
      <trkpt lat="36.64237" lon="30.4517">
        <ele>931.6</ele>
      </trkpt>
      <trkpt lat="36.64235" lon="30.45131">
        <ele>933.4</ele>
      </trkpt>
      <trkpt lat="36.64252" lon="30.45125">
        <ele>928.5</ele>
      </trkpt>
      <trkpt lat="36.64266" lon="30.45119">
        <ele>924.1</ele>
      </trkpt>
      <trkpt lat="36.64268" lon="30.45107">
        <ele>923.1</ele>
      </trkpt>
      <trkpt lat="36.64292" lon="30.45098">
        <ele>914.9</ele>
      </trkpt>
      <trkpt lat="36.64299" lon="30.45088">
        <ele>911.8</ele>
      </trkpt>
      <trkpt lat="36.64329" lon="30.45075">
        <ele>903</ele>
      </trkpt>
      <trkpt lat="36.64356" lon="30.45082">
        <ele>892.3</ele>
      </trkpt>
      <trkpt lat="36.64371" lon="30.45077">
        <ele>889.4</ele>
      </trkpt>
      <trkpt lat="36.64381" lon="30.45087">
        <ele>884.5</ele>
      </trkpt>
      <trkpt lat="36.6439" lon="30.45084">
        <ele>881.5</ele>
      </trkpt>
      <trkpt lat="36.64407" lon="30.45091">
        <ele>876.7</ele>
      </trkpt>
      <trkpt lat="36.64425" lon="30.45085">
        <ele>870.6</ele>
      </trkpt>
      <trkpt lat="36.64448" lon="30.4509">
        <ele>863.5</ele>
      </trkpt>
      <trkpt lat="36.64463" lon="30.45087">
        <ele>858.7</ele>
      </trkpt>
      <trkpt lat="36.64479" lon="30.45101">
        <ele>854.3</ele>
      </trkpt>
      <trkpt lat="36.64491" lon="30.45102">
        <ele>850.4</ele>
      </trkpt>
      <trkpt lat="36.64506" lon="30.45092">
        <ele>845.2</ele>
      </trkpt>
      <trkpt lat="36.64506" lon="30.45092">
        <ele>845.2</ele>
      </trkpt>
      <trkpt lat="36.64506" lon="30.45092">
        <ele>845.2</ele>
      </trkpt>
      <trkpt lat="36.64506" lon="30.45092">
        <ele>845.2</ele>
      </trkpt>
      <trkpt lat="36.6455" lon="30.45135">
        <ele>828.9</ele>
      </trkpt>
      <trkpt lat="36.64561" lon="30.45115">
        <ele>826.2</ele>
      </trkpt>
      <trkpt lat="36.64572" lon="30.45077">
        <ele>825.9</ele>
      </trkpt>
      <trkpt lat="36.64506" lon="30.45092">
        <ele>845.2</ele>
      </trkpt>
      <trkpt lat="36.64572" lon="30.45077">
        <ele>825.9</ele>
      </trkpt>
      <trkpt lat="36.6459" lon="30.45065">
        <ele>823.5</ele>
      </trkpt>
      <trkpt lat="36.64601" lon="30.45053">
        <ele>823.9</ele>
      </trkpt>
      <trkpt lat="36.64605" lon="30.45033">
        <ele>827.4</ele>
      </trkpt>
      <trkpt lat="36.64614" lon="30.45019">
        <ele>828.3</ele>
      </trkpt>
      <trkpt lat="36.64658" lon="30.45003">
        <ele>823.2</ele>
      </trkpt>
      <trkpt lat="36.64667" lon="30.45">
        <ele>821.9</ele>
      </trkpt>
      <trkpt lat="36.64672" lon="30.45001">
        <ele>821.4</ele>
      </trkpt>
      <trkpt lat="36.6469" lon="30.45013">
        <ele>818</ele>
      </trkpt>
      <trkpt lat="36.64697" lon="30.4501">
        <ele>817.9</ele>
      </trkpt>
      <trkpt lat="36.6472" lon="30.45018">
        <ele>814.9</ele>
      </trkpt>
      <trkpt lat="36.64741" lon="30.45018">
        <ele>813.5</ele>
      </trkpt>
      <trkpt lat="36.64766" lon="30.45">
        <ele>813.9</ele>
      </trkpt>
      <trkpt lat="36.6478" lon="30.44997">
        <ele>812.8</ele>
      </trkpt>
      <trkpt lat="36.64791" lon="30.44991">
        <ele>812.3</ele>
      </trkpt>
      <trkpt lat="36.64811" lon="30.44964">
        <ele>814.4</ele>
      </trkpt>
      <trkpt lat="36.64812" lon="30.44944">
        <ele>818</ele>
      </trkpt>
      <trkpt lat="36.64804" lon="30.4493">
        <ele>821.8</ele>
      </trkpt>
      <trkpt lat="36.64803" lon="30.4492">
        <ele>824</ele>
      </trkpt>
      <trkpt lat="36.64808" lon="30.44912">
        <ele>824.6</ele>
      </trkpt>
      <trkpt lat="36.64834" lon="30.44897">
        <ele>822.6</ele>
      </trkpt>
      <trkpt lat="36.64842" lon="30.44884">
        <ele>824.7</ele>
      </trkpt>
      <trkpt lat="36.64853" lon="30.44876">
        <ele>825.8</ele>
      </trkpt>
      <trkpt lat="36.64863" lon="30.44859">
        <ele>828.5</ele>
      </trkpt>
      <trkpt lat="36.64879" lon="30.44852">
        <ele>829.3</ele>
      </trkpt>
      <trkpt lat="36.64892" lon="30.44826">
        <ele>833.7</ele>
      </trkpt>
      <trkpt lat="36.64899" lon="30.44821">
        <ele>834.5</ele>
      </trkpt>
      <trkpt lat="36.64907" lon="30.44818">
        <ele>834.8</ele>
      </trkpt>
      <trkpt lat="36.64913" lon="30.44829">
        <ele>832.1</ele>
      </trkpt>
      <trkpt lat="36.64915" lon="30.44852">
        <ele>828.1</ele>
      </trkpt>
      <trkpt lat="36.64922" lon="30.4486">
        <ele>828.4</ele>
      </trkpt>
      <trkpt lat="36.64933" lon="30.44866">
        <ele>830.4</ele>
      </trkpt>
      <trkpt lat="36.64947" lon="30.44871">
        <ele>833.7</ele>
      </trkpt>
      <trkpt lat="36.64953" lon="30.44862">
        <ele>836.7</ele>
      </trkpt>
      <trkpt lat="36.64944" lon="30.44844">
        <ele>837.4</ele>
      </trkpt>
      <trkpt lat="36.64937" lon="30.44811">
        <ele>841.6</ele>
      </trkpt>
      <trkpt lat="36.64942" lon="30.44772">
        <ele>850.6</ele>
      </trkpt>
      <trkpt lat="36.64948" lon="30.4476">
        <ele>854.6</ele>
      </trkpt>
      <trkpt lat="36.64958" lon="30.44761">
        <ele>857.3</ele>
      </trkpt>
      <trkpt lat="36.65017" lon="30.4483">
        <ele>860.5</ele>
      </trkpt>
      <trkpt lat="36.65038" lon="30.44839">
        <ele>863.2</ele>
      </trkpt>
      <trkpt lat="36.65067" lon="30.44835">
        <ele>870.9</ele>
      </trkpt>
      <trkpt lat="36.65091" lon="30.44855">
        <ele>869.4</ele>
      </trkpt>
      <trkpt lat="36.65118" lon="30.44854">
        <ele>873.1</ele>
      </trkpt>
      <trkpt lat="36.65129" lon="30.44866">
        <ele>871.1</ele>
      </trkpt>
      <trkpt lat="36.65144" lon="30.44863">
        <ele>874</ele>
      </trkpt>
      <trkpt lat="36.65158" lon="30.44855">
        <ele>877.7</ele>
      </trkpt>
      <trkpt lat="36.65176" lon="30.44836">
        <ele>884.5</ele>
      </trkpt>
      <trkpt lat="36.65192" lon="30.44827">
        <ele>888.7</ele>
      </trkpt>
      <trkpt lat="36.652" lon="30.44831">
        <ele>888.5</ele>
      </trkpt>
      <trkpt lat="36.65205" lon="30.44862">
        <ele>883.6</ele>
      </trkpt>
      <trkpt lat="36.65216" lon="30.44876">
        <ele>883.4</ele>
      </trkpt>
      <trkpt lat="36.65244" lon="30.44874">
        <ele>888.9</ele>
      </trkpt>
      <trkpt lat="36.65248" lon="30.44878">
        <ele>889.2</ele>
      </trkpt>
      <trkpt lat="36.65245" lon="30.44899">
        <ele>886.6</ele>
      </trkpt>
      <trkpt lat="36.65254" lon="30.4493">
        <ele>885.5</ele>
      </trkpt>
      <trkpt lat="36.65267" lon="30.44971">
        <ele>884.4</ele>
      </trkpt>
      <trkpt lat="36.65297" lon="30.44991">
        <ele>890.6</ele>
      </trkpt>
      <trkpt lat="36.65301" lon="30.44998">
        <ele>890.7</ele>
      </trkpt>
      <trkpt lat="36.65297" lon="30.45016">
        <ele>890</ele>
      </trkpt>
      <trkpt lat="36.65276" lon="30.45065">
        <ele>884.3</ele>
      </trkpt>
      <trkpt lat="36.65253" lon="30.4508">
        <ele>877</ele>
      </trkpt>
      <trkpt lat="36.65248" lon="30.4509">
        <ele>874.1</ele>
      </trkpt>
      <trkpt lat="36.6525" lon="30.45106">
        <ele>872.1</ele>
      </trkpt>
      <trkpt lat="36.65272" lon="30.4514">
        <ele>874.9</ele>
      </trkpt>
      <trkpt lat="36.65285" lon="30.45159">
        <ele>877.7</ele>
      </trkpt>
      <trkpt lat="36.65291" lon="30.45174">
        <ele>879</ele>
      </trkpt>
      <trkpt lat="36.65308" lon="30.45199">
        <ele>884.5</ele>
      </trkpt>
      <trkpt lat="36.65307" lon="30.45218">
        <ele>882.7</ele>
      </trkpt>
      <trkpt lat="36.65302" lon="30.45247">
        <ele>879.1</ele>
      </trkpt>
      <trkpt lat="36.65306" lon="30.45261">
        <ele>879.8</ele>
      </trkpt>
      <trkpt lat="36.65322" lon="30.45266">
        <ele>884.4</ele>
      </trkpt>
      <trkpt lat="36.65336" lon="30.45258">
        <ele>888.7</ele>
      </trkpt>
      <trkpt lat="36.65343" lon="30.4525">
        <ele>890.9</ele>
      </trkpt>
      <trkpt lat="36.65358" lon="30.45251">
        <ele>894.1</ele>
      </trkpt>
      <trkpt lat="36.65366" lon="30.45263">
        <ele>894.6</ele>
      </trkpt>
      <trkpt lat="36.65365" lon="30.45272">
        <ele>893.8</ele>
      </trkpt>
      <trkpt lat="36.65365" lon="30.4528">
        <ele>893.1</ele>
      </trkpt>
      <trkpt lat="36.65362" lon="30.45289">
        <ele>891.7</ele>
      </trkpt>
      <trkpt lat="36.65371" lon="30.45298">
        <ele>892.9</ele>
      </trkpt>
      <trkpt lat="36.65384" lon="30.45294">
        <ele>896</ele>
      </trkpt>
      <trkpt lat="36.65398" lon="30.45287">
        <ele>899.4</ele>
      </trkpt>
      <trkpt lat="36.6546" lon="30.45258">
        <ele>909.4</ele>
      </trkpt>
      <trkpt lat="36.65479" lon="30.45261">
        <ele>911.1</ele>
      </trkpt>
      <trkpt lat="36.65496" lon="30.4527">
        <ele>912.9</ele>
      </trkpt>
      <trkpt lat="36.65498" lon="30.45278">
        <ele>913.1</ele>
      </trkpt>
      <trkpt lat="36.65495" lon="30.45288">
        <ele>912.8</ele>
      </trkpt>
      <trkpt lat="36.65505" lon="30.45297">
        <ele>914.5</ele>
      </trkpt>
      <trkpt lat="36.6552" lon="30.45301">
        <ele>917.7</ele>
      </trkpt>
      <trkpt lat="36.65527" lon="30.45308">
        <ele>919.2</ele>
      </trkpt>
      <trkpt lat="36.65539" lon="30.45336">
        <ele>922.6</ele>
      </trkpt>
      <trkpt lat="36.65551" lon="30.4534">
        <ele>925.7</ele>
      </trkpt>
      <trkpt lat="36.65562" lon="30.45349">
        <ele>928.6</ele>
      </trkpt>
      <trkpt lat="36.65568" lon="30.4536">
        <ele>930.8</ele>
      </trkpt>
      <trkpt lat="36.65575" lon="30.45362">
        <ele>932.5</ele>
      </trkpt>
      <trkpt lat="36.65583" lon="30.45351">
        <ele>933.5</ele>
      </trkpt>
      <trkpt lat="36.65591" lon="30.45347">
        <ele>935.1</ele>
      </trkpt>
      <trkpt lat="36.65608" lon="30.45348">
        <ele>940.1</ele>
      </trkpt>
      <trkpt lat="36.65616" lon="30.45351">
        <ele>942.5</ele>
      </trkpt>
      <trkpt lat="36.65623" lon="30.45342">
        <ele>943.7</ele>
      </trkpt>
      <trkpt lat="36.65629" lon="30.45338">
        <ele>945.1</ele>
      </trkpt>
      <trkpt lat="36.65639" lon="30.45329">
        <ele>947.2</ele>
      </trkpt>
      <trkpt lat="36.65654" lon="30.45321">
        <ele>951.3</ele>
      </trkpt>
      <trkpt lat="36.65679" lon="30.45327">
        <ele>957.1</ele>
      </trkpt>
      <trkpt lat="36.65708" lon="30.45327">
        <ele>962.4</ele>
      </trkpt>
      <trkpt lat="36.65749" lon="30.45341">
        <ele>969.9</ele>
      </trkpt>
      <trkpt lat="36.65756" lon="30.45353">
        <ele>971.2</ele>
      </trkpt>
      <trkpt lat="36.65758" lon="30.45356">
        <ele>971.5</ele>
      </trkpt>
      <trkpt lat="36.65763" lon="30.45363">
        <ele>972.5</ele>
      </trkpt>
      <trkpt lat="36.6577" lon="30.45365">
        <ele>973.5</ele>
      </trkpt>
      <trkpt lat="36.65783" lon="30.45358">
        <ele>975</ele>
      </trkpt>
      <trkpt lat="36.65791" lon="30.45348">
        <ele>975.6</ele>
      </trkpt>
      <trkpt lat="36.65796" lon="30.45337">
        <ele>975.7</ele>
      </trkpt>
      <trkpt lat="36.65806" lon="30.45329">
        <ele>976.6</ele>
      </trkpt>
      <trkpt lat="36.6583" lon="30.45315">
        <ele>978.6</ele>
      </trkpt>
      <trkpt lat="36.65843" lon="30.45313">
        <ele>978.9</ele>
      </trkpt>
      <trkpt lat="36.65871" lon="30.45297">
        <ele>978</ele>
      </trkpt>
      <trkpt lat="36.65901" lon="30.45296">
        <ele>977.9</ele>
      </trkpt>
      <trkpt lat="36.65917" lon="30.45285">
        <ele>976.8</ele>
      </trkpt>
      <trkpt lat="36.65926" lon="30.45277">
        <ele>975.5</ele>
      </trkpt>
      <trkpt lat="36.65947" lon="30.45292">
        <ele>976.4</ele>
      </trkpt>
      <trkpt lat="36.65962" lon="30.4529">
        <ele>975.6</ele>
      </trkpt>
      <trkpt lat="36.65975" lon="30.45273">
        <ele>973</ele>
      </trkpt>
      <trkpt lat="36.65997" lon="30.45266">
        <ele>971.2</ele>
      </trkpt>
      <trkpt lat="36.66015" lon="30.45276">
        <ele>968.9</ele>
      </trkpt>
      <trkpt lat="36.66052" lon="30.45268">
        <ele>960.3</ele>
      </trkpt>
      <trkpt lat="36.66064" lon="30.45272">
        <ele>957.7</ele>
      </trkpt>
      <trkpt lat="36.66075" lon="30.45278">
        <ele>955.1</ele>
      </trkpt>
      <trkpt lat="36.66087" lon="30.45284">
        <ele>951.3</ele>
      </trkpt>
      <trkpt lat="36.6612" lon="30.45294">
        <ele>940.6</ele>
      </trkpt>
      <trkpt lat="36.66181" lon="30.45296">
        <ele>922.4</ele>
      </trkpt>
      <trkpt lat="36.66201" lon="30.45293">
        <ele>917.5</ele>
      </trkpt>
      <trkpt lat="36.66211" lon="30.45289">
        <ele>915.4</ele>
      </trkpt>
      <trkpt lat="36.66219" lon="30.45278">
        <ele>914.4</ele>
      </trkpt>
      <trkpt lat="36.66231" lon="30.45261">
        <ele>913.3</ele>
      </trkpt>
      <trkpt lat="36.6623" lon="30.45242">
        <ele>916.8</ele>
      </trkpt>
      <trkpt lat="36.6624" lon="30.45235">
        <ele>916.2</ele>
      </trkpt>
      <trkpt lat="36.66257" lon="30.4523">
        <ele>914.5</ele>
      </trkpt>
      <trkpt lat="36.66276" lon="30.45224">
        <ele>914.1</ele>
      </trkpt>
      <trkpt lat="36.66293" lon="30.4523">
        <ele>910.9</ele>
      </trkpt>
      <trkpt lat="36.66306" lon="30.45246">
        <ele>905.1</ele>
      </trkpt>
      <trkpt lat="36.66333" lon="30.45269">
        <ele>896.2</ele>
      </trkpt>
      <trkpt lat="36.66338" lon="30.45283">
        <ele>892.5</ele>
      </trkpt>
      <trkpt lat="36.66354" lon="30.45286">
        <ele>891.5</ele>
      </trkpt>
      <trkpt lat="36.66371" lon="30.45305">
        <ele>886.3</ele>
      </trkpt>
      <trkpt lat="36.66393" lon="30.45315">
        <ele>883.2</ele>
      </trkpt>
      <trkpt lat="36.664" lon="30.4531">
        <ele>884.2</ele>
      </trkpt>
      <trkpt lat="36.6641" lon="30.45312">
        <ele>883.6</ele>
      </trkpt>
      <trkpt lat="36.66413" lon="30.45321">
        <ele>881.3</ele>
      </trkpt>
      <trkpt lat="36.66407" lon="30.4534">
        <ele>877</ele>
      </trkpt>
      <trkpt lat="36.66414" lon="30.45358">
        <ele>873.2</ele>
      </trkpt>
      <trkpt lat="36.6644" lon="30.45373">
        <ele>870.3</ele>
      </trkpt>
      <trkpt lat="36.66444" lon="30.45367">
        <ele>871.8</ele>
      </trkpt>
      <trkpt lat="36.66463" lon="30.45352">
        <ele>875.5</ele>
      </trkpt>
      <trkpt lat="36.6648" lon="30.4534">
        <ele>878.9</ele>
      </trkpt>
      <trkpt lat="36.66486" lon="30.45336">
        <ele>880</ele>
      </trkpt>
      <trkpt lat="36.66495" lon="30.45336">
        <ele>880.3</ele>
      </trkpt>
      <trkpt lat="36.66514" lon="30.45341">
        <ele>879.3</ele>
      </trkpt>
      <trkpt lat="36.66531" lon="30.45353">
        <ele>876.2</ele>
      </trkpt>
      <trkpt lat="36.66552" lon="30.45363">
        <ele>874</ele>
      </trkpt>
      <trkpt lat="36.66568" lon="30.45384">
        <ele>868.7</ele>
      </trkpt>
      <trkpt lat="36.66591" lon="30.45388">
        <ele>867.8</ele>
      </trkpt>
      <trkpt lat="36.66602" lon="30.45384">
        <ele>868.7</ele>
      </trkpt>
      <trkpt lat="36.6662" lon="30.45394">
        <ele>866.4</ele>
      </trkpt>
      <trkpt lat="36.66635" lon="30.45391">
        <ele>867</ele>
      </trkpt>
      <trkpt lat="36.66645" lon="30.4539">
        <ele>867.3</ele>
      </trkpt>
      <trkpt lat="36.66655" lon="30.45401">
        <ele>864.9</ele>
      </trkpt>
      <trkpt lat="36.66661" lon="30.45416">
        <ele>862.1</ele>
      </trkpt>
      <trkpt lat="36.66661" lon="30.45425">
        <ele>860.3</ele>
      </trkpt>
      <trkpt lat="36.66661" lon="30.45436">
        <ele>858</ele>
      </trkpt>
      <trkpt lat="36.66664" lon="30.45443">
        <ele>856.6</ele>
      </trkpt>
      <trkpt lat="36.66673" lon="30.45449">
        <ele>855.7</ele>
      </trkpt>
      <trkpt lat="36.66684" lon="30.45457">
        <ele>854.5</ele>
      </trkpt>
      <trkpt lat="36.6671" lon="30.45467">
        <ele>853.8</ele>
      </trkpt>
      <trkpt lat="36.66728" lon="30.45476">
        <ele>853.2</ele>
      </trkpt>
      <trkpt lat="36.66741" lon="30.45504">
        <ele>849.9</ele>
      </trkpt>
      <trkpt lat="36.66747" lon="30.45531">
        <ele>847.8</ele>
      </trkpt>
      <trkpt lat="36.66746" lon="30.45542">
        <ele>846.6</ele>
      </trkpt>
      <trkpt lat="36.66748" lon="30.45546">
        <ele>846.5</ele>
      </trkpt>
      <trkpt lat="36.66778" lon="30.45569">
        <ele>844.5</ele>
      </trkpt>
      <trkpt lat="36.66793" lon="30.45582">
        <ele>843.6</ele>
      </trkpt>
      <trkpt lat="36.66833" lon="30.45583">
        <ele>844</ele>
      </trkpt>
      <trkpt lat="36.66837" lon="30.45582">
        <ele>843.6</ele>
      </trkpt>
      <trkpt lat="36.66834" lon="30.45554">
        <ele>845.7</ele>
      </trkpt>
      <trkpt lat="36.66842" lon="30.45547">
        <ele>844.8</ele>
      </trkpt>
      <trkpt lat="36.66849" lon="30.45543">
        <ele>843.8</ele>
      </trkpt>
      <trkpt lat="36.66853" lon="30.45537">
        <ele>843.4</ele>
      </trkpt>
      <trkpt lat="36.66859" lon="30.45514">
        <ele>843.4</ele>
      </trkpt>
      <trkpt lat="36.66871" lon="30.45492">
        <ele>842.5</ele>
      </trkpt>
      <trkpt lat="36.66887" lon="30.45447">
        <ele>844.6</ele>
      </trkpt>
      <trkpt lat="36.66902" lon="30.4542">
        <ele>845.6</ele>
      </trkpt>
      <trkpt lat="36.66905" lon="30.45417">
        <ele>845.5</ele>
      </trkpt>
      <trkpt lat="36.66914" lon="30.45413">
        <ele>845.1</ele>
      </trkpt>
      <trkpt lat="36.66927" lon="30.4541">
        <ele>844.9</ele>
      </trkpt>
      <trkpt lat="36.66939" lon="30.45409">
        <ele>844.6</ele>
      </trkpt>
      <trkpt lat="36.6695" lon="30.45414">
        <ele>843</ele>
      </trkpt>
      <trkpt lat="36.66963" lon="30.45422">
        <ele>841</ele>
      </trkpt>
      <trkpt lat="36.66974" lon="30.45435">
        <ele>838.4</ele>
      </trkpt>
      <trkpt lat="36.66979" lon="30.45448">
        <ele>836</ele>
      </trkpt>
      <trkpt lat="36.6698" lon="30.45462">
        <ele>833.7</ele>
      </trkpt>
      <trkpt lat="36.66985" lon="30.45466">
        <ele>832.8</ele>
      </trkpt>
      <trkpt lat="36.6699" lon="30.45468">
        <ele>832.1</ele>
      </trkpt>
      <trkpt lat="36.67003" lon="30.45475">
        <ele>830.1</ele>
      </trkpt>
      <trkpt lat="36.67005" lon="30.45482">
        <ele>828.8</ele>
      </trkpt>
      <trkpt lat="36.67014" lon="30.455">
        <ele>825.7</ele>
      </trkpt>
      <trkpt lat="36.67013" lon="30.45521">
        <ele>822</ele>
      </trkpt>
      <trkpt lat="36.6701" lon="30.45531">
        <ele>820.5</ele>
      </trkpt>
      <trkpt lat="36.67003" lon="30.45536">
        <ele>820.3</ele>
      </trkpt>
      <trkpt lat="36.67003" lon="30.45546">
        <ele>818.6</ele>
      </trkpt>
      <trkpt lat="36.67018" lon="30.45553">
        <ele>816</ele>
      </trkpt>
      <trkpt lat="36.67018" lon="30.45564">
        <ele>814.1</ele>
      </trkpt>
      <trkpt lat="36.67038" lon="30.45579">
        <ele>808.8</ele>
      </trkpt>
      <trkpt lat="36.67076" lon="30.45593">
        <ele>798.9</ele>
      </trkpt>
      <trkpt lat="36.67124" lon="30.45591">
        <ele>791.7</ele>
      </trkpt>
      <trkpt lat="36.67148" lon="30.45594">
        <ele>786.4</ele>
      </trkpt>
      <trkpt lat="36.67154" lon="30.45619">
        <ele>776.9</ele>
      </trkpt>
      <trkpt lat="36.6715" lon="30.45634">
        <ele>771.9</ele>
      </trkpt>
      <trkpt lat="36.67146" lon="30.45644">
        <ele>768.9</ele>
      </trkpt>
      <trkpt lat="36.67191" lon="30.45657">
        <ele>754</ele>
      </trkpt>
      <trkpt lat="36.67225" lon="30.45633">
        <ele>749.6</ele>
      </trkpt>
      <trkpt lat="36.67225" lon="30.45653">
        <ele>744</ele>
      </trkpt>
      <trkpt lat="36.6722" lon="30.45669">
        <ele>741.2</ele>
      </trkpt>
      <trkpt lat="36.67227" lon="30.45688">
        <ele>735.7</ele>
      </trkpt>
      <trkpt lat="36.67235" lon="30.45706">
        <ele>730.6</ele>
      </trkpt>
      <trkpt lat="36.67236" lon="30.45726">
        <ele>727.1</ele>
      </trkpt>
      <trkpt lat="36.67233" lon="30.45748">
        <ele>724.2</ele>
      </trkpt>
      <trkpt lat="36.67231" lon="30.45823">
        <ele>716.1</ele>
      </trkpt>
      <trkpt lat="36.67256" lon="30.45846">
        <ele>711.6</ele>
      </trkpt>
      <trkpt lat="36.67267" lon="30.45883">
        <ele>708.6</ele>
      </trkpt>
      <trkpt lat="36.67296" lon="30.45922">
        <ele>707.2</ele>
      </trkpt>
      <trkpt lat="36.67301" lon="30.45943">
        <ele>704.6</ele>
      </trkpt>
      <trkpt lat="36.67312" lon="30.4598">
        <ele>699.9</ele>
      </trkpt>
      <trkpt lat="36.67341" lon="30.4598">
        <ele>704.4</ele>
      </trkpt>
      <trkpt lat="36.67352" lon="30.45995">
        <ele>704.4</ele>
      </trkpt>
      <trkpt lat="36.67366" lon="30.45994">
        <ele>708</ele>
      </trkpt>
      <trkpt lat="36.67375" lon="30.46005">
        <ele>708.4</ele>
      </trkpt>
      <trkpt lat="36.67432" lon="30.4599">
        <ele>723.7</ele>
      </trkpt>
      <trkpt lat="36.67451" lon="30.45993">
        <ele>726.6</ele>
      </trkpt>
      <trkpt lat="36.67455" lon="30.46032">
        <ele>725.4</ele>
      </trkpt>
      <trkpt lat="36.67437" lon="30.46074">
        <ele>720.7</ele>
      </trkpt>
      <trkpt lat="36.67407" lon="30.46116">
        <ele>710.4</ele>
      </trkpt>
      <trkpt lat="36.67404" lon="30.46165">
        <ele>706.2</ele>
      </trkpt>
      <trkpt lat="36.67406" lon="30.46202">
        <ele>705.2</ele>
      </trkpt>
      <trkpt lat="36.67425" lon="30.4625">
        <ele>706.6</ele>
      </trkpt>
      <trkpt lat="36.67429" lon="30.46279">
        <ele>704.1</ele>
      </trkpt>
      <trkpt lat="36.67429" lon="30.46297">
        <ele>702.2</ele>
      </trkpt>
      <trkpt lat="36.67432" lon="30.46307">
        <ele>701.4</ele>
      </trkpt>
      <trkpt lat="36.67436" lon="30.46312">
        <ele>701.1</ele>
      </trkpt>
      <trkpt lat="36.67506" lon="30.46347">
        <ele>696.7</ele>
      </trkpt>
      <trkpt lat="36.67516" lon="30.46356">
        <ele>694.5</ele>
      </trkpt>
      <trkpt lat="36.67533" lon="30.46367">
        <ele>691.6</ele>
      </trkpt>
      <trkpt lat="36.67606" lon="30.46366">
        <ele>692.3</ele>
      </trkpt>
      <trkpt lat="36.67643" lon="30.46355">
        <ele>694.3</ele>
      </trkpt>
      <trkpt lat="36.67659" lon="30.46371">
        <ele>690.8</ele>
      </trkpt>
      <trkpt lat="36.67689" lon="30.46409">
        <ele>686.5</ele>
      </trkpt>
      <trkpt lat="36.67705" lon="30.46419">
        <ele>686.4</ele>
      </trkpt>
      <trkpt lat="36.6775" lon="30.46424">
        <ele>690.6</ele>
      </trkpt>
      <trkpt lat="36.67777" lon="30.46429">
        <ele>691.6</ele>
      </trkpt>
      <trkpt lat="36.67811" lon="30.46423">
        <ele>695.9</ele>
      </trkpt>
      <trkpt lat="36.67852" lon="30.46439">
        <ele>699.6</ele>
      </trkpt>
      <trkpt lat="36.67851" lon="30.46469">
        <ele>693.9</ele>
      </trkpt>
      <trkpt lat="36.67824" lon="30.46531">
        <ele>681.1</ele>
      </trkpt>
      <trkpt lat="36.67808" lon="30.46546">
        <ele>676.6</ele>
      </trkpt>
      <trkpt lat="36.67788" lon="30.46599">
        <ele>668</ele>
      </trkpt>
      <trkpt lat="36.67775" lon="30.4662">
        <ele>663.1</ele>
      </trkpt>
      <trkpt lat="36.67769" lon="30.46652">
        <ele>660.4</ele>
      </trkpt>
      <trkpt lat="36.67766" lon="30.46673">
        <ele>657.5</ele>
      </trkpt>
      <trkpt lat="36.67785" lon="30.46705">
        <ele>654.2</ele>
      </trkpt>
      <trkpt lat="36.67807" lon="30.4672">
        <ele>656.3</ele>
      </trkpt>
      <trkpt lat="36.67825" lon="30.46721">
        <ele>660.5</ele>
      </trkpt>
      <trkpt lat="36.67848" lon="30.46742">
        <ele>657.4</ele>
      </trkpt>
      <trkpt lat="36.67851" lon="30.46782">
        <ele>647.8</ele>
      </trkpt>
      <trkpt lat="36.67858" lon="30.46787">
        <ele>646.8</ele>
      </trkpt>
      <trkpt lat="36.67867" lon="30.46788">
        <ele>646.7</ele>
      </trkpt>
      <trkpt lat="36.67885" lon="30.46777">
        <ele>649.3</ele>
      </trkpt>
      <trkpt lat="36.67902" lon="30.4676">
        <ele>653.4</ele>
      </trkpt>
      <trkpt lat="36.67916" lon="30.46746">
        <ele>657.2</ele>
      </trkpt>
      <trkpt lat="36.67929" lon="30.46741">
        <ele>660.7</ele>
      </trkpt>
      <trkpt lat="36.67942" lon="30.46738">
        <ele>663.3</ele>
      </trkpt>
      <trkpt lat="36.67952" lon="30.4675">
        <ele>661.9</ele>
      </trkpt>
      <trkpt lat="36.67948" lon="30.46767">
        <ele>658.2</ele>
      </trkpt>
      <trkpt lat="36.67944" lon="30.46772">
        <ele>656.6</ele>
      </trkpt>
      <trkpt lat="36.67952" lon="30.46787">
        <ele>655.8</ele>
      </trkpt>
      <trkpt lat="36.67959" lon="30.46793">
        <ele>656.3</ele>
      </trkpt>
      <trkpt lat="36.67965" lon="30.46813">
        <ele>655.2</ele>
      </trkpt>
      <trkpt lat="36.67957" lon="30.46838">
        <ele>649.6</ele>
      </trkpt>
      <trkpt lat="36.6795" lon="30.46892">
        <ele>646.7</ele>
      </trkpt>
      <trkpt lat="36.67928" lon="30.46923">
        <ele>638.3</ele>
      </trkpt>
      <trkpt lat="36.67926" lon="30.46954">
        <ele>637.8</ele>
      </trkpt>
      <trkpt lat="36.6792" lon="30.46969">
        <ele>635.7</ele>
      </trkpt>
      <trkpt lat="36.67897" lon="30.46956">
        <ele>629.2</ele>
      </trkpt>
      <trkpt lat="36.67888" lon="30.46966">
        <ele>626.9</ele>
      </trkpt>
      <trkpt lat="36.67885" lon="30.4698">
        <ele>626.2</ele>
      </trkpt>
      <trkpt lat="36.67871" lon="30.46986">
        <ele>622.3</ele>
      </trkpt>
      <trkpt lat="36.67852" lon="30.46973">
        <ele>617.4</ele>
      </trkpt>
      <trkpt lat="36.67844" lon="30.46976">
        <ele>615.1</ele>
      </trkpt>
      <trkpt lat="36.67854" lon="30.47022">
        <ele>618</ele>
      </trkpt>
      <trkpt lat="36.67844" lon="30.47038">
        <ele>615.3</ele>
      </trkpt>
      <trkpt lat="36.67772" lon="30.47035">
        <ele>596.8</ele>
      </trkpt>
      <trkpt lat="36.67759" lon="30.47035">
        <ele>593.5</ele>
      </trkpt>
      <trkpt lat="36.67755" lon="30.47047">
        <ele>592.8</ele>
      </trkpt>
      <trkpt lat="36.67776" lon="30.47075">
        <ele>599.1</ele>
      </trkpt>
      <trkpt lat="36.67774" lon="30.47113">
        <ele>597.7</ele>
      </trkpt>
      <trkpt lat="36.67756" lon="30.47176">
        <ele>590.2</ele>
      </trkpt>
      <trkpt lat="36.67751" lon="30.47241">
        <ele>584.1</ele>
      </trkpt>
      <trkpt lat="36.67743" lon="30.47294">
        <ele>575.4</ele>
      </trkpt>
      <trkpt lat="36.67736" lon="30.47305">
        <ele>571.8</ele>
      </trkpt>
      <trkpt lat="36.67724" lon="30.47298">
        <ele>568.9</ele>
      </trkpt>
      <trkpt lat="36.67694" lon="30.47323">
        <ele>556.9</ele>
      </trkpt>
      <trkpt lat="36.67682" lon="30.47336">
        <ele>552.4</ele>
      </trkpt>
      <trkpt lat="36.67669" lon="30.47349">
        <ele>547.2</ele>
      </trkpt>
      <trkpt lat="36.67659" lon="30.47357">
        <ele>544</ele>
      </trkpt>
      <trkpt lat="36.67655" lon="30.47365">
        <ele>542.2</ele>
      </trkpt>
      <trkpt lat="36.67654" lon="30.47396">
        <ele>538.7</ele>
      </trkpt>
      <trkpt lat="36.67653" lon="30.47416">
        <ele>536.3</ele>
      </trkpt>
      <trkpt lat="36.67657" lon="30.47428">
        <ele>536.3</ele>
      </trkpt>
      <trkpt lat="36.67646" lon="30.47439">
        <ele>531.8</ele>
      </trkpt>
      <trkpt lat="36.67638" lon="30.47455">
        <ele>527.9</ele>
      </trkpt>
      <trkpt lat="36.67632" lon="30.47483">
        <ele>523.1</ele>
      </trkpt>
      <trkpt lat="36.67636" lon="30.47499">
        <ele>522.9</ele>
      </trkpt>
      <trkpt lat="36.67645" lon="30.47506">
        <ele>525.4</ele>
      </trkpt>
      <trkpt lat="36.67655" lon="30.47515">
        <ele>528.3</ele>
      </trkpt>
      <trkpt lat="36.67645" lon="30.47526">
        <ele>523.8</ele>
      </trkpt>
      <trkpt lat="36.67638" lon="30.47531">
        <ele>521</ele>
      </trkpt>
      <trkpt lat="36.67632" lon="30.47533">
        <ele>518.6</ele>
      </trkpt>
      <trkpt lat="36.67622" lon="30.47542">
        <ele>514</ele>
      </trkpt>
      <trkpt lat="36.67611" lon="30.47549">
        <ele>509</ele>
      </trkpt>
      <trkpt lat="36.67649" lon="30.47576">
        <ele>522</ele>
      </trkpt>
      <trkpt lat="36.67636" lon="30.4759">
        <ele>515.8</ele>
      </trkpt>
      <trkpt lat="36.67626" lon="30.47607">
        <ele>510</ele>
      </trkpt>
      <trkpt lat="36.67623" lon="30.47632">
        <ele>506.6</ele>
      </trkpt>
      <trkpt lat="36.67639" lon="30.47644">
        <ele>513.6</ele>
      </trkpt>
      <trkpt lat="36.67619" lon="30.4767">
        <ele>501.7</ele>
      </trkpt>
      <trkpt lat="36.67602" lon="30.47691">
        <ele>490.8</ele>
      </trkpt>
      <trkpt lat="36.67602" lon="30.47714">
        <ele>488.5</ele>
      </trkpt>
      <trkpt lat="36.67604" lon="30.47725">
        <ele>488.6</ele>
      </trkpt>
      <trkpt lat="36.67605" lon="30.47742">
        <ele>487.7</ele>
      </trkpt>
      <trkpt lat="36.67609" lon="30.47758">
        <ele>487.4</ele>
      </trkpt>
      <trkpt lat="36.67609" lon="30.47793">
        <ele>479.6</ele>
      </trkpt>
      <trkpt lat="36.67619" lon="30.47804">
        <ele>482.6</ele>
      </trkpt>
      <trkpt lat="36.67621" lon="30.47831">
        <ele>477.5</ele>
      </trkpt>
      <trkpt lat="36.67605" lon="30.47866">
        <ele>466.6</ele>
      </trkpt>
      <trkpt lat="36.67591" lon="30.47916">
        <ele>455.7</ele>
      </trkpt>
      <trkpt lat="36.676" lon="30.47953">
        <ele>456.3</ele>
      </trkpt>
      <trkpt lat="36.67593" lon="30.47984">
        <ele>450.8</ele>
      </trkpt>
      <trkpt lat="36.67597" lon="30.48019">
        <ele>445.5</ele>
      </trkpt>
      <trkpt lat="36.67585" lon="30.48041">
        <ele>434.6</ele>
      </trkpt>
      <trkpt lat="36.67591" lon="30.48062">
        <ele>430.4</ele>
      </trkpt>
      <trkpt lat="36.67588" lon="30.48074">
        <ele>425.9</ele>
      </trkpt>
      <trkpt lat="36.67598" lon="30.48093">
        <ele>425.3</ele>
      </trkpt>
      <trkpt lat="36.676" lon="30.48107">
        <ele>423.4</ele>
      </trkpt>
      <trkpt lat="36.67609" lon="30.48138">
        <ele>420.8</ele>
      </trkpt>
      <trkpt lat="36.67621" lon="30.48159">
        <ele>420.8</ele>
      </trkpt>
      <trkpt lat="36.67633" lon="30.48173">
        <ele>421.7</ele>
      </trkpt>
      <trkpt lat="36.67648" lon="30.48178">
        <ele>425.5</ele>
      </trkpt>
      <trkpt lat="36.67665" lon="30.48179">
        <ele>430.7</ele>
      </trkpt>
      <trkpt lat="36.67675" lon="30.48189">
        <ele>432</ele>
      </trkpt>
      <trkpt lat="36.67687" lon="30.48212">
        <ele>430.6</ele>
      </trkpt>
      <trkpt lat="36.67693" lon="30.48234">
        <ele>427.8</ele>
      </trkpt>
      <trkpt lat="36.67691" lon="30.48247">
        <ele>424.2</ele>
      </trkpt>
      <trkpt lat="36.67698" lon="30.48264">
        <ele>422.8</ele>
      </trkpt>
      <trkpt lat="36.67707" lon="30.48291">
        <ele>419.6</ele>
      </trkpt>
      <trkpt lat="36.67712" lon="30.48322">
        <ele>414.3</ele>
      </trkpt>
      <trkpt lat="36.67716" lon="30.48335">
        <ele>413.2</ele>
      </trkpt>
      <trkpt lat="36.67723" lon="30.48345">
        <ele>414.7</ele>
      </trkpt>
      <trkpt lat="36.67731" lon="30.48354">
        <ele>416.4</ele>
      </trkpt>
      <trkpt lat="36.67743" lon="30.48368">
        <ele>418.7</ele>
      </trkpt>
      <trkpt lat="36.67745" lon="30.48388">
        <ele>416.4</ele>
      </trkpt>
      <trkpt lat="36.67747" lon="30.48408">
        <ele>413.4</ele>
      </trkpt>
      <trkpt lat="36.67743" lon="30.48427">
        <ele>408.8</ele>
      </trkpt>
      <trkpt lat="36.67742" lon="30.48441">
        <ele>405.8</ele>
      </trkpt>
      <trkpt lat="36.67733" lon="30.48507">
        <ele>392.2</ele>
      </trkpt>
      <trkpt lat="36.6773" lon="30.48536">
        <ele>384.7</ele>
      </trkpt>
      <trkpt lat="36.67718" lon="30.48564">
        <ele>378.2</ele>
      </trkpt>
      <trkpt lat="36.67692" lon="30.48603">
        <ele>379.9</ele>
      </trkpt>
      <trkpt lat="36.67696" lon="30.48608">
        <ele>379.8</ele>
      </trkpt>
      <trkpt lat="36.67696" lon="30.48608">
        <ele>380</ele>
      </trkpt>
      <trkpt lat="36.67703" lon="30.48611">
        <ele>378.9</ele>
      </trkpt>
      <trkpt lat="36.67714" lon="30.48609">
        <ele>376</ele>
      </trkpt>
      <trkpt lat="36.67727" lon="30.48602">
        <ele>373.3</ele>
      </trkpt>
      <trkpt lat="36.67732" lon="30.48606">
        <ele>372.3</ele>
      </trkpt>
      <trkpt lat="36.6774" lon="30.48603">
        <ele>370.8</ele>
      </trkpt>
      <trkpt lat="36.67757" lon="30.48607">
        <ele>369.7</ele>
      </trkpt>
      <trkpt lat="36.67773" lon="30.48605">
        <ele>373.4</ele>
      </trkpt>
      <trkpt lat="36.67787" lon="30.48615">
        <ele>373.4</ele>
      </trkpt>
      <trkpt lat="36.67809" lon="30.48643">
        <ele>368.1</ele>
      </trkpt>
      <trkpt lat="36.67824" lon="30.48651">
        <ele>366.4</ele>
      </trkpt>
      <trkpt lat="36.67826" lon="30.48672">
        <ele>361</ele>
      </trkpt>
      <trkpt lat="36.67831" lon="30.48692">
        <ele>361.4</ele>
      </trkpt>
      <trkpt lat="36.67822" lon="30.4871">
        <ele>362.4</ele>
      </trkpt>
      <trkpt lat="36.67815" lon="30.4872">
        <ele>363.6</ele>
      </trkpt>
      <trkpt lat="36.67811" lon="30.48757">
        <ele>366.5</ele>
      </trkpt>
      <trkpt lat="36.67803" lon="30.48795">
        <ele>372.3</ele>
      </trkpt>
      <trkpt lat="36.67803" lon="30.4881">
        <ele>374</ele>
      </trkpt>
      <trkpt lat="36.6781" lon="30.4882">
        <ele>371.2</ele>
      </trkpt>
      <trkpt lat="36.67826" lon="30.48856">
        <ele>357</ele>
      </trkpt>
      <trkpt lat="36.67838" lon="30.48887">
        <ele>346.8</ele>
      </trkpt>
      <trkpt lat="36.67835" lon="30.4892">
        <ele>338.3</ele>
      </trkpt>
      <trkpt lat="36.67832" lon="30.48936">
        <ele>338.7</ele>
      </trkpt>
      <trkpt lat="36.67846" lon="30.4898">
        <ele>334.9</ele>
      </trkpt>
      <trkpt lat="36.67859" lon="30.48998">
        <ele>330.2</ele>
      </trkpt>
      <trkpt lat="36.67874" lon="30.49039">
        <ele>329.3</ele>
      </trkpt>
      <trkpt lat="36.67897" lon="30.49063">
        <ele>323.3</ele>
      </trkpt>
      <trkpt lat="36.67892" lon="30.49081">
        <ele>326</ele>
      </trkpt>
      <trkpt lat="36.67884" lon="30.49103">
        <ele>328.9</ele>
      </trkpt>
      <trkpt lat="36.67824" lon="30.49191">
        <ele>347</ele>
      </trkpt>
      <trkpt lat="36.67817" lon="30.49211">
        <ele>348.5</ele>
      </trkpt>
      <trkpt lat="36.6782" lon="30.4924">
        <ele>344.7</ele>
      </trkpt>
      <trkpt lat="36.67809" lon="30.49285">
        <ele>339.6</ele>
      </trkpt>
      <trkpt lat="36.67791" lon="30.49317">
        <ele>336.1</ele>
      </trkpt>
      <trkpt lat="36.67773" lon="30.49343">
        <ele>332.5</ele>
      </trkpt>
      <trkpt lat="36.67752" lon="30.49357">
        <ele>331.6</ele>
      </trkpt>
      <trkpt lat="36.67724" lon="30.49396">
        <ele>318.1</ele>
      </trkpt>
      <trkpt lat="36.67723" lon="30.49411">
        <ele>312.6</ele>
      </trkpt>
      <trkpt lat="36.67721" lon="30.49428">
        <ele>308.4</ele>
      </trkpt>
      <trkpt lat="36.67705" lon="30.49444">
        <ele>304.7</ele>
      </trkpt>
      <trkpt lat="36.67688" lon="30.49445">
        <ele>304.3</ele>
      </trkpt>
      <trkpt lat="36.67654" lon="30.49448">
        <ele>305.1</ele>
      </trkpt>
      <trkpt lat="36.67631" lon="30.49463">
        <ele>304.9</ele>
      </trkpt>
      <trkpt lat="36.67609" lon="30.49472">
        <ele>305.6</ele>
      </trkpt>
      <trkpt lat="36.67584" lon="30.49481">
        <ele>306.7</ele>
      </trkpt>
      <trkpt lat="36.67575" lon="30.49497">
        <ele>304</ele>
      </trkpt>
      <trkpt lat="36.67576" lon="30.49506">
        <ele>304.5</ele>
      </trkpt>
      <trkpt lat="36.67574" lon="30.49513">
        <ele>306.2</ele>
      </trkpt>
      <trkpt lat="36.67563" lon="30.49515">
        <ele>307.8</ele>
      </trkpt>
      <trkpt lat="36.67571" lon="30.49528">
        <ele>309.3</ele>
      </trkpt>
      <trkpt lat="36.67574" lon="30.4954">
        <ele>311.7</ele>
      </trkpt>
      <trkpt lat="36.67575" lon="30.49554">
        <ele>314.5</ele>
      </trkpt>
      <trkpt lat="36.67573" lon="30.4957">
        <ele>317.7</ele>
      </trkpt>
      <trkpt lat="36.6757" lon="30.49572">
        <ele>318</ele>
      </trkpt>
      <trkpt lat="36.67572" lon="30.49585">
        <ele>320.6</ele>
      </trkpt>
      <trkpt lat="36.67568" lon="30.49597">
        <ele>323.1</ele>
      </trkpt>
      <trkpt lat="36.67574" lon="30.49607">
        <ele>325.6</ele>
      </trkpt>
      <trkpt lat="36.67582" lon="30.49627">
        <ele>330.4</ele>
      </trkpt>
      <trkpt lat="36.6758" lon="30.49646">
        <ele>334.3</ele>
      </trkpt>
      <trkpt lat="36.67594" lon="30.49648">
        <ele>333.6</ele>
      </trkpt>
      <trkpt lat="36.67594" lon="30.49657">
        <ele>335.4</ele>
      </trkpt>
      <trkpt lat="36.67604" lon="30.49662">
        <ele>335.5</ele>
      </trkpt>
      <trkpt lat="36.67605" lon="30.49682">
        <ele>339.4</ele>
      </trkpt>
      <trkpt lat="36.67589" lon="30.49711">
        <ele>347.1</ele>
      </trkpt>
      <trkpt lat="36.67571" lon="30.49716">
        <ele>349.2</ele>
      </trkpt>
      <trkpt lat="36.67548" lon="30.49724">
        <ele>351.8</ele>
      </trkpt>
      <trkpt lat="36.67555" lon="30.49742">
        <ele>355.8</ele>
      </trkpt>
      <trkpt lat="36.67555" lon="30.49748">
        <ele>357.1</ele>
      </trkpt>
      <trkpt lat="36.67549" lon="30.49746">
        <ele>357.1</ele>
      </trkpt>
      <trkpt lat="36.67527" lon="30.49736">
        <ele>355.5</ele>
      </trkpt>
      <trkpt lat="36.6751" lon="30.49734">
        <ele>355.9</ele>
      </trkpt>
      <trkpt lat="36.67497" lon="30.49739">
        <ele>357.9</ele>
      </trkpt>
      <trkpt lat="36.67501" lon="30.49751">
        <ele>361.1</ele>
      </trkpt>
      <trkpt lat="36.67507" lon="30.49761">
        <ele>363.6</ele>
      </trkpt>
      <trkpt lat="36.67504" lon="30.49773">
        <ele>367.2</ele>
      </trkpt>
      <trkpt lat="36.67484" lon="30.49779">
        <ele>370.2</ele>
      </trkpt>
      <trkpt lat="36.67469" lon="30.4978">
        <ele>371.4</ele>
      </trkpt>
      <trkpt lat="36.67464" lon="30.49792">
        <ele>376</ele>
      </trkpt>
      <trkpt lat="36.67457" lon="30.498">
        <ele>379.2</ele>
      </trkpt>
      <trkpt lat="36.67458" lon="30.49816">
        <ele>384.5</ele>
      </trkpt>
      <trkpt lat="36.67467" lon="30.49819">
        <ele>384.8</ele>
      </trkpt>
      <trkpt lat="36.67495" lon="30.4982">
        <ele>381.7</ele>
      </trkpt>
      <trkpt lat="36.67548" lon="30.4983">
        <ele>375.7</ele>
      </trkpt>
      <trkpt lat="36.67554" lon="30.49837">
        <ele>375.9</ele>
      </trkpt>
      <trkpt lat="36.67549" lon="30.49846">
        <ele>378.3</ele>
      </trkpt>
      <trkpt lat="36.67531" lon="30.49851">
        <ele>383</ele>
      </trkpt>
      <trkpt lat="36.67517" lon="30.49869">
        <ele>390.4</ele>
      </trkpt>
      <trkpt lat="36.67508" lon="30.49877">
        <ele>394.8</ele>
      </trkpt>
      <trkpt lat="36.67499" lon="30.49885">
        <ele>399.4</ele>
      </trkpt>
      <trkpt lat="36.67493" lon="30.49868">
        <ele>395.8</ele>
      </trkpt>
      <trkpt lat="36.6749" lon="30.49869">
        <ele>396.6</ele>
      </trkpt>
      <trkpt lat="36.67485" lon="30.49884">
        <ele>402.1</ele>
      </trkpt>
      <trkpt lat="36.6749" lon="30.49906">
        <ele>407.4</ele>
      </trkpt>
      <trkpt lat="36.67491" lon="30.49921">
        <ele>410.9</ele>
      </trkpt>
      <trkpt lat="36.67496" lon="30.49934">
        <ele>410.6</ele>
      </trkpt>
      <trkpt lat="36.67498" lon="30.49943">
        <ele>410.9</ele>
      </trkpt>
      <trkpt lat="36.67489" lon="30.49952">
        <ele>414.7</ele>
      </trkpt>
      <trkpt lat="36.67483" lon="30.49958">
        <ele>417.4</ele>
      </trkpt>
      <trkpt lat="36.67474" lon="30.49973">
        <ele>422.3</ele>
      </trkpt>
      <trkpt lat="36.67476" lon="30.49983">
        <ele>423</ele>
      </trkpt>
      <trkpt lat="36.67472" lon="30.49992">
        <ele>425.8</ele>
      </trkpt>
      <trkpt lat="36.67465" lon="30.49995">
        <ele>428.9</ele>
      </trkpt>
      <trkpt lat="36.67459" lon="30.49987">
        <ele>429.9</ele>
      </trkpt>
      <trkpt lat="36.67452" lon="30.49969">
        <ele>429.8</ele>
      </trkpt>
      <trkpt lat="36.67441" lon="30.49962">
        <ele>432.6</ele>
      </trkpt>
      <trkpt lat="36.67416" lon="30.49964">
        <ele>441.6</ele>
      </trkpt>
      <trkpt lat="36.67392" lon="30.49988">
        <ele>450.5</ele>
      </trkpt>
      <trkpt lat="36.67368" lon="30.50004">
        <ele>457.8</ele>
      </trkpt>
      <trkpt lat="36.67372" lon="30.50009">
        <ele>458.6</ele>
      </trkpt>
      <trkpt lat="36.6739" lon="30.50021">
        <ele>458.3</ele>
      </trkpt>
      <trkpt lat="36.67405" lon="30.50031">
        <ele>457.5</ele>
      </trkpt>
      <trkpt lat="36.67416" lon="30.50057">
        <ele>459.7</ele>
      </trkpt>
      <trkpt lat="36.67414" lon="30.50096">
        <ele>467.2</ele>
      </trkpt>
      <trkpt lat="36.6741" lon="30.50121">
        <ele>473.6</ele>
      </trkpt>
      <trkpt lat="36.67404" lon="30.50134">
        <ele>478.7</ele>
      </trkpt>
      <trkpt lat="36.67403" lon="30.5015">
        <ele>482.7</ele>
      </trkpt>
      <trkpt lat="36.67394" lon="30.50146">
        <ele>485</ele>
      </trkpt>
      <trkpt lat="36.67389" lon="30.50131">
        <ele>483.5</ele>
      </trkpt>
      <trkpt lat="36.67386" lon="30.50121">
        <ele>481.9</ele>
      </trkpt>
      <trkpt lat="36.67384" lon="30.50111">
        <ele>479.6</ele>
      </trkpt>
      <trkpt lat="36.67379" lon="30.50093">
        <ele>476.2</ele>
      </trkpt>
      <trkpt lat="36.67374" lon="30.50088">
        <ele>476.2</ele>
      </trkpt>
      <trkpt lat="36.67369" lon="30.50089">
        <ele>477.7</ele>
      </trkpt>
      <trkpt lat="36.6737" lon="30.50098">
        <ele>480.2</ele>
      </trkpt>
      <trkpt lat="36.6737" lon="30.50105">
        <ele>482.3</ele>
      </trkpt>
      <trkpt lat="36.67367" lon="30.50108">
        <ele>484.1</ele>
      </trkpt>
      <trkpt lat="36.67355" lon="30.50105">
        <ele>486.8</ele>
      </trkpt>
      <trkpt lat="36.67346" lon="30.50106">
        <ele>490.1</ele>
      </trkpt>
      <trkpt lat="36.6734" lon="30.50114">
        <ele>495</ele>
      </trkpt>
      <trkpt lat="36.67332" lon="30.50129">
        <ele>503.3</ele>
      </trkpt>
      <trkpt lat="36.67324" lon="30.5014">
        <ele>509.3</ele>
      </trkpt>
      <trkpt lat="36.67307" lon="30.50143">
        <ele>513.9</ele>
      </trkpt>
      <trkpt lat="36.67296" lon="30.50142">
        <ele>516.1</ele>
      </trkpt>
      <trkpt lat="36.67279" lon="30.5015">
        <ele>521.9</ele>
      </trkpt>
      <trkpt lat="36.67263" lon="30.50154">
        <ele>526.6</ele>
      </trkpt>
      <trkpt lat="36.6724" lon="30.50154">
        <ele>531.6</ele>
      </trkpt>
      <trkpt lat="36.67222" lon="30.50149">
        <ele>534.8</ele>
      </trkpt>
      <trkpt lat="36.67207" lon="30.50145">
        <ele>537.5</ele>
      </trkpt>
      <trkpt lat="36.67189" lon="30.50154">
        <ele>545.1</ele>
      </trkpt>
      <trkpt lat="36.67171" lon="30.50143">
        <ele>546.2</ele>
      </trkpt>
      <trkpt lat="36.67159" lon="30.50139">
        <ele>548.3</ele>
      </trkpt>
      <trkpt lat="36.67145" lon="30.50137">
        <ele>551.9</ele>
      </trkpt>
      <trkpt lat="36.67136" lon="30.50137">
        <ele>554.5</ele>
      </trkpt>
      <trkpt lat="36.67126" lon="30.50136">
        <ele>556.9</ele>
      </trkpt>
      <trkpt lat="36.67116" lon="30.50133">
        <ele>559.3</ele>
      </trkpt>
      <trkpt lat="36.67105" lon="30.50119">
        <ele>556.8</ele>
      </trkpt>
      <trkpt lat="36.67093" lon="30.50118">
        <ele>560</ele>
      </trkpt>
      <trkpt lat="36.67085" lon="30.50119">
        <ele>562.6</ele>
      </trkpt>
      <trkpt lat="36.67083" lon="30.50126">
        <ele>565.7</ele>
      </trkpt>
      <trkpt lat="36.67088" lon="30.50137">
        <ele>568.8</ele>
      </trkpt>
      <trkpt lat="36.67087" lon="30.50147">
        <ele>573</ele>
      </trkpt>
      <trkpt lat="36.67084" lon="30.50153">
        <ele>576.5</ele>
      </trkpt>
      <trkpt lat="36.6707" lon="30.50157">
        <ele>579.1</ele>
      </trkpt>
      <trkpt lat="36.67062" lon="30.50164">
        <ele>582.3</ele>
      </trkpt>
      <trkpt lat="36.67048" lon="30.50162">
        <ele>582.7</ele>
      </trkpt>
      <trkpt lat="36.67035" lon="30.50164">
        <ele>584.6</ele>
      </trkpt>
      <trkpt lat="36.67014" lon="30.50169">
        <ele>588.2</ele>
      </trkpt>
      <trkpt lat="36.6701" lon="30.50178">
        <ele>592.2</ele>
      </trkpt>
      <trkpt lat="36.67016" lon="30.50193">
        <ele>599</ele>
      </trkpt>
      <trkpt lat="36.67028" lon="30.50207">
        <ele>604.2</ele>
      </trkpt>
      <trkpt lat="36.67041" lon="30.50218">
        <ele>608.6</ele>
      </trkpt>
      <trkpt lat="36.67054" lon="30.50223">
        <ele>609.6</ele>
      </trkpt>
      <trkpt lat="36.67073" lon="30.5023">
        <ele>611.7</ele>
      </trkpt>
      <trkpt lat="36.67092" lon="30.5024">
        <ele>612.3</ele>
      </trkpt>
      <trkpt lat="36.67118" lon="30.50252">
        <ele>608.7</ele>
      </trkpt>
      <trkpt lat="36.67134" lon="30.5027">
        <ele>613.4</ele>
      </trkpt>
      <trkpt lat="36.67153" lon="30.5029">
        <ele>617.9</ele>
      </trkpt>
      <trkpt lat="36.67163" lon="30.5029">
        <ele>614.8</ele>
      </trkpt>
      <trkpt lat="36.67173" lon="30.50283">
        <ele>608.9</ele>
      </trkpt>
      <trkpt lat="36.67184" lon="30.50279">
        <ele>604.8</ele>
      </trkpt>
      <trkpt lat="36.67196" lon="30.50284">
        <ele>606.3</ele>
      </trkpt>
      <trkpt lat="36.67208" lon="30.50296">
        <ele>612.2</ele>
      </trkpt>
      <trkpt lat="36.67215" lon="30.50306">
        <ele>617.1</ele>
      </trkpt>
      <trkpt lat="36.67232" lon="30.50315">
        <ele>621</ele>
      </trkpt>
      <trkpt lat="36.67247" lon="30.50318">
        <ele>621.2</ele>
      </trkpt>
      <trkpt lat="36.67262" lon="30.50314">
        <ele>613.2</ele>
      </trkpt>
      <trkpt lat="36.67273" lon="30.50314">
        <ele>607.6</ele>
      </trkpt>
      <trkpt lat="36.67289" lon="30.50316">
        <ele>601</ele>
      </trkpt>
      <trkpt lat="36.67297" lon="30.50318">
        <ele>598.4</ele>
      </trkpt>
      <trkpt lat="36.673" lon="30.5033">
        <ele>602.6</ele>
      </trkpt>
      <trkpt lat="36.67293" lon="30.50354">
        <ele>615.1</ele>
      </trkpt>
      <trkpt lat="36.67298" lon="30.50375">
        <ele>620.2</ele>
      </trkpt>
      <trkpt lat="36.67312" lon="30.50391">
        <ele>618.3</ele>
      </trkpt>
      <trkpt lat="36.67313" lon="30.50415">
        <ele>626.6</ele>
      </trkpt>
      <trkpt lat="36.67318" lon="30.50442">
        <ele>635</ele>
      </trkpt>
      <trkpt lat="36.67318" lon="30.50458">
        <ele>642.2</ele>
      </trkpt>
      <trkpt lat="36.67321" lon="30.5047">
        <ele>645.9</ele>
      </trkpt>
      <trkpt lat="36.67327" lon="30.5048">
        <ele>647.9</ele>
      </trkpt>
      <trkpt lat="36.67327" lon="30.50484">
        <ele>649.9</ele>
      </trkpt>
      <trkpt lat="36.67321" lon="30.50486">
        <ele>652.8</ele>
      </trkpt>
      <trkpt lat="36.67308" lon="30.50484">
        <ele>656.9</ele>
      </trkpt>
      <trkpt lat="36.67307" lon="30.50487">
        <ele>658.5</ele>
      </trkpt>
      <trkpt lat="36.67308" lon="30.50492">
        <ele>660.1</ele>
      </trkpt>
      <trkpt lat="36.67319" lon="30.50507">
        <ele>663.7</ele>
      </trkpt>
      <trkpt lat="36.67332" lon="30.50513">
        <ele>663.3</ele>
      </trkpt>
      <trkpt lat="36.67341" lon="30.50509">
        <ele>659.5</ele>
      </trkpt>
      <trkpt lat="36.67347" lon="30.50509">
        <ele>658.7</ele>
      </trkpt>
      <trkpt lat="36.67354" lon="30.50506">
        <ele>656.5</ele>
      </trkpt>
      <trkpt lat="36.67365" lon="30.50509">
        <ele>656.6</ele>
      </trkpt>
      <trkpt lat="36.67374" lon="30.50512">
        <ele>657.7</ele>
      </trkpt>
      <trkpt lat="36.67385" lon="30.50509">
        <ele>654.7</ele>
      </trkpt>
      <trkpt lat="36.67396" lon="30.50519">
        <ele>658.7</ele>
      </trkpt>
      <trkpt lat="36.67408" lon="30.50523">
        <ele>659.4</ele>
      </trkpt>
      <trkpt lat="36.67422" lon="30.50526">
        <ele>658.1</ele>
      </trkpt>
      <trkpt lat="36.67436" lon="30.50528">
        <ele>656.3</ele>
      </trkpt>
      <trkpt lat="36.67439" lon="30.50531">
        <ele>656.9</ele>
      </trkpt>
      <trkpt lat="36.67439" lon="30.50544">
        <ele>662.9</ele>
      </trkpt>
      <trkpt lat="36.67438" lon="30.50564">
        <ele>672.8</ele>
      </trkpt>
      <trkpt lat="36.67436" lon="30.50579">
        <ele>680.7</ele>
      </trkpt>
      <trkpt lat="36.67437" lon="30.50587">
        <ele>683.2</ele>
      </trkpt>
      <trkpt lat="36.67438" lon="30.5059">
        <ele>684</ele>
      </trkpt>
      <trkpt lat="36.67435" lon="30.50593">
        <ele>685.8</ele>
      </trkpt>
      <trkpt lat="36.67429" lon="30.50588">
        <ele>686.9</ele>
      </trkpt>
      <trkpt lat="36.67426" lon="30.50591">
        <ele>689</ele>
      </trkpt>
      <trkpt lat="36.67429" lon="30.50597">
        <ele>689.6</ele>
      </trkpt>
      <trkpt lat="36.67435" lon="30.50606">
        <ele>689.7</ele>
      </trkpt>
      <trkpt lat="36.67442" lon="30.50614">
        <ele>689.2</ele>
      </trkpt>
      <trkpt lat="36.67441" lon="30.50617">
        <ele>690.3</ele>
      </trkpt>
      <trkpt lat="36.67438" lon="30.50617">
        <ele>692</ele>
      </trkpt>
      <trkpt lat="36.67433" lon="30.50617">
        <ele>694.2</ele>
      </trkpt>
      <trkpt lat="36.67428" lon="30.50613">
        <ele>695.3</ele>
      </trkpt>
      <trkpt lat="36.67415" lon="30.50608">
        <ele>698.9</ele>
      </trkpt>
      <trkpt lat="36.67411" lon="30.50606">
        <ele>698.8</ele>
      </trkpt>
      <trkpt lat="36.67406" lon="30.50607">
        <ele>700.2</ele>
      </trkpt>
      <trkpt lat="36.67397" lon="30.50611">
        <ele>702.9</ele>
      </trkpt>
      <trkpt lat="36.67391" lon="30.50612">
        <ele>704.3</ele>
      </trkpt>
      <trkpt lat="36.67387" lon="30.50615">
        <ele>706</ele>
      </trkpt>
      <trkpt lat="36.67373" lon="30.50613">
        <ele>707.7</ele>
      </trkpt>
      <trkpt lat="36.6737" lon="30.50604">
        <ele>705.4</ele>
      </trkpt>
      <trkpt lat="36.67365" lon="30.50601">
        <ele>705.3</ele>
      </trkpt>
      <trkpt lat="36.67359" lon="30.50601">
        <ele>706.6</ele>
      </trkpt>
      <trkpt lat="36.67351" lon="30.50612">
        <ele>711.3</ele>
      </trkpt>
      <trkpt lat="36.67351" lon="30.50622">
        <ele>714.3</ele>
      </trkpt>
      <trkpt lat="36.6736" lon="30.50631">
        <ele>715.6</ele>
      </trkpt>
      <trkpt lat="36.67371" lon="30.50637">
        <ele>715.8</ele>
      </trkpt>
      <trkpt lat="36.6738" lon="30.50641">
        <ele>715.6</ele>
      </trkpt>
      <trkpt lat="36.67377" lon="30.50646">
        <ele>717.7</ele>
      </trkpt>
      <trkpt lat="36.67366" lon="30.50649">
        <ele>720.3</ele>
      </trkpt>
      <trkpt lat="36.67362" lon="30.50655">
        <ele>722.6</ele>
      </trkpt>
      <trkpt lat="36.67344" lon="30.50669">
        <ele>728</ele>
      </trkpt>
      <trkpt lat="36.67311" lon="30.50681">
        <ele>726.6</ele>
      </trkpt>
      <trkpt lat="36.67308" lon="30.50689">
        <ele>724.1</ele>
      </trkpt>
      <trkpt lat="36.67323" lon="30.50702">
        <ele>718.4</ele>
      </trkpt>
      <trkpt lat="36.67346" lon="30.50717">
        <ele>712.6</ele>
      </trkpt>
      <trkpt lat="36.6737" lon="30.50739">
        <ele>707.6</ele>
      </trkpt>
      <trkpt lat="36.67391" lon="30.50761">
        <ele>702.5</ele>
      </trkpt>
      <trkpt lat="36.67394" lon="30.50773">
        <ele>697.8</ele>
      </trkpt>
      <trkpt lat="36.67388" lon="30.50776">
        <ele>695.5</ele>
      </trkpt>
      <trkpt lat="36.67383" lon="30.50777">
        <ele>694.4</ele>
      </trkpt>
      <trkpt lat="36.67367" lon="30.50771">
        <ele>695</ele>
      </trkpt>
      <trkpt lat="36.67355" lon="30.50767">
        <ele>695</ele>
      </trkpt>
      <trkpt lat="36.67354" lon="30.50775">
        <ele>691.3</ele>
      </trkpt>
      <trkpt lat="36.67359" lon="30.50781">
        <ele>689.3</ele>
      </trkpt>
      <trkpt lat="36.67358" lon="30.50786">
        <ele>686.8</ele>
      </trkpt>
      <trkpt lat="36.6734" lon="30.50781">
        <ele>686.5</ele>
      </trkpt>
      <trkpt lat="36.67323" lon="30.50773">
        <ele>690</ele>
      </trkpt>
      <trkpt lat="36.67295" lon="30.50786">
        <ele>685.3</ele>
      </trkpt>
      <trkpt lat="36.67289" lon="30.50801">
        <ele>678</ele>
      </trkpt>
      <trkpt lat="36.67255" lon="30.50819">
        <ele>670.7</ele>
      </trkpt>
      <trkpt lat="36.67233" lon="30.50827">
        <ele>672.3</ele>
      </trkpt>
      <trkpt lat="36.67227" lon="30.50842">
        <ele>669.3</ele>
      </trkpt>
      <trkpt lat="36.67216" lon="30.50866">
        <ele>668.2</ele>
      </trkpt>
      <trkpt lat="36.6721" lon="30.50889">
        <ele>665.9</ele>
      </trkpt>
      <trkpt lat="36.67232" lon="30.5091">
        <ele>652.3</ele>
      </trkpt>
      <trkpt lat="36.67239" lon="30.5091">
        <ele>648.7</ele>
      </trkpt>
      <trkpt lat="36.67253" lon="30.50906">
        <ele>644.2</ele>
      </trkpt>
      <trkpt lat="36.67265" lon="30.50917">
        <ele>637.2</ele>
      </trkpt>
      <trkpt lat="36.67275" lon="30.50919">
        <ele>634.6</ele>
      </trkpt>
      <trkpt lat="36.67277" lon="30.50932">
        <ele>636.8</ele>
      </trkpt>
      <trkpt lat="36.67283" lon="30.50938">
        <ele>635.5</ele>
      </trkpt>
      <trkpt lat="36.67292" lon="30.50953">
        <ele>633.5</ele>
      </trkpt>
      <trkpt lat="36.67297" lon="30.50956">
        <ele>631.7</ele>
      </trkpt>
      <trkpt lat="36.67299" lon="30.50941">
        <ele>628.8</ele>
      </trkpt>
      <trkpt lat="36.67313" lon="30.50899">
        <ele>629.7</ele>
      </trkpt>
      <trkpt lat="36.67339" lon="30.50906">
        <ele>620.8</ele>
      </trkpt>
      <trkpt lat="36.67344" lon="30.50922">
        <ele>614</ele>
      </trkpt>
      <trkpt lat="36.67338" lon="30.50942">
        <ele>611.3</ele>
      </trkpt>
      <trkpt lat="36.67343" lon="30.50981">
        <ele>603.3</ele>
      </trkpt>
      <trkpt lat="36.67352" lon="30.50979">
        <ele>599.4</ele>
      </trkpt>
      <trkpt lat="36.67391" lon="30.50995">
        <ele>572</ele>
      </trkpt>
      <trkpt lat="36.67412" lon="30.51">
        <ele>555.2</ele>
      </trkpt>
      <trkpt lat="36.67425" lon="30.51007">
        <ele>548.8</ele>
      </trkpt>
      <trkpt lat="36.67437" lon="30.51018">
        <ele>543.2</ele>
      </trkpt>
      <trkpt lat="36.67443" lon="30.51022">
        <ele>540.6</ele>
      </trkpt>
      <trkpt lat="36.67448" lon="30.51024">
        <ele>538.6</ele>
      </trkpt>
      <trkpt lat="36.67459" lon="30.51028">
        <ele>534.5</ele>
      </trkpt>
      <trkpt lat="36.67466" lon="30.51031">
        <ele>531.2</ele>
      </trkpt>
      <trkpt lat="36.67472" lon="30.51036">
        <ele>527.5</ele>
      </trkpt>
      <trkpt lat="36.67471" lon="30.51041">
        <ele>525</ele>
      </trkpt>
      <trkpt lat="36.67467" lon="30.51049">
        <ele>522.6</ele>
      </trkpt>
      <trkpt lat="36.67464" lon="30.51055">
        <ele>521.3</ele>
      </trkpt>
      <trkpt lat="36.67458" lon="30.51063">
        <ele>520</ele>
      </trkpt>
      <trkpt lat="36.6746" lon="30.51068">
        <ele>516.9</ele>
      </trkpt>
      <trkpt lat="36.67472" lon="30.51073">
        <ele>510.1</ele>
      </trkpt>
      <trkpt lat="36.67485" lon="30.51069">
        <ele>506.7</ele>
      </trkpt>
      <trkpt lat="36.67494" lon="30.5107">
        <ele>502.1</ele>
      </trkpt>
      <trkpt lat="36.67487" lon="30.51086">
        <ele>497.5</ele>
      </trkpt>
      <trkpt lat="36.67483" lon="30.51091">
        <ele>497.7</ele>
      </trkpt>
      <trkpt lat="36.67479" lon="30.51092">
        <ele>499.7</ele>
      </trkpt>
      <trkpt lat="36.67475" lon="30.511">
        <ele>499.1</ele>
      </trkpt>
      <trkpt lat="36.6747" lon="30.51101">
        <ele>501.1</ele>
      </trkpt>
      <trkpt lat="36.6747" lon="30.51108">
        <ele>499.3</ele>
      </trkpt>
      <trkpt lat="36.67473" lon="30.51112">
        <ele>496.8</ele>
      </trkpt>
      <trkpt lat="36.67474" lon="30.51115">
        <ele>495.3</ele>
      </trkpt>
      <trkpt lat="36.67477" lon="30.51116">
        <ele>493.7</ele>
      </trkpt>
      <trkpt lat="36.67478" lon="30.51119">
        <ele>492.6</ele>
      </trkpt>
      <trkpt lat="36.6748" lon="30.51122">
        <ele>490.4</ele>
      </trkpt>
      <trkpt lat="36.67483" lon="30.51128">
        <ele>487</ele>
      </trkpt>
      <trkpt lat="36.67483" lon="30.51134">
        <ele>485.8</ele>
      </trkpt>
      <trkpt lat="36.67484" lon="30.51139">
        <ele>483.8</ele>
      </trkpt>
      <trkpt lat="36.67483" lon="30.51148">
        <ele>481.7</ele>
      </trkpt>
      <trkpt lat="36.67481" lon="30.51155">
        <ele>480.7</ele>
      </trkpt>
      <trkpt lat="36.67475" lon="30.51166">
        <ele>481</ele>
      </trkpt>
      <trkpt lat="36.67467" lon="30.51175">
        <ele>482</ele>
      </trkpt>
      <trkpt lat="36.67455" lon="30.51185">
        <ele>485.1</ele>
      </trkpt>
      <trkpt lat="36.67452" lon="30.51195">
        <ele>483.2</ele>
      </trkpt>
      <trkpt lat="36.67455" lon="30.51203">
        <ele>478.8</ele>
      </trkpt>
      <trkpt lat="36.67451" lon="30.51208">
        <ele>478.7</ele>
      </trkpt>
      <trkpt lat="36.67455" lon="30.51216">
        <ele>474.5</ele>
      </trkpt>
      <trkpt lat="36.67455" lon="30.51225">
        <ele>471.3</ele>
      </trkpt>
      <trkpt lat="36.67458" lon="30.51231">
        <ele>467.8</ele>
      </trkpt>
      <trkpt lat="36.67463" lon="30.51239">
        <ele>463.4</ele>
      </trkpt>
      <trkpt lat="36.67462" lon="30.51245">
        <ele>461.8</ele>
      </trkpt>
      <trkpt lat="36.67461" lon="30.51248">
        <ele>461.1</ele>
      </trkpt>
      <trkpt lat="36.67462" lon="30.5125">
        <ele>460.4</ele>
      </trkpt>
      <trkpt lat="36.67461" lon="30.51255">
        <ele>459.1</ele>
      </trkpt>
      <trkpt lat="36.67462" lon="30.51258">
        <ele>457.8</ele>
      </trkpt>
      <trkpt lat="36.6746" lon="30.51263">
        <ele>456.7</ele>
      </trkpt>
      <trkpt lat="36.67461" lon="30.51267">
        <ele>455.5</ele>
      </trkpt>
      <trkpt lat="36.67461" lon="30.51277">
        <ele>452.2</ele>
      </trkpt>
      <trkpt lat="36.67463" lon="30.51284">
        <ele>449.3</ele>
      </trkpt>
      <trkpt lat="36.67465" lon="30.51298">
        <ele>444.2</ele>
      </trkpt>
      <trkpt lat="36.67465" lon="30.51315">
        <ele>438.9</ele>
      </trkpt>
      <trkpt lat="36.67458" lon="30.51337">
        <ele>434.7</ele>
      </trkpt>
      <trkpt lat="36.67458" lon="30.51355">
        <ele>428.4</ele>
      </trkpt>
      <trkpt lat="36.67452" lon="30.5136">
        <ele>428.7</ele>
      </trkpt>
      <trkpt lat="36.67453" lon="30.51373">
        <ele>424.1</ele>
      </trkpt>
      <trkpt lat="36.67448" lon="30.51382">
        <ele>422.5</ele>
      </trkpt>
      <trkpt lat="36.67442" lon="30.51398">
        <ele>418.2</ele>
      </trkpt>
      <trkpt lat="36.67436" lon="30.51414">
        <ele>413.5</ele>
      </trkpt>
      <trkpt lat="36.67425" lon="30.51423">
        <ele>412.8</ele>
      </trkpt>
      <trkpt lat="36.67405" lon="30.51427">
        <ele>416.9</ele>
      </trkpt>
      <trkpt lat="36.6739" lon="30.51437">
        <ele>419.2</ele>
      </trkpt>
      <trkpt lat="36.6738" lon="30.51446">
        <ele>420.4</ele>
      </trkpt>
      <trkpt lat="36.67373" lon="30.51448">
        <ele>422.1</ele>
      </trkpt>
      <trkpt lat="36.67369" lon="30.51453">
        <ele>422.5</ele>
      </trkpt>
      <trkpt lat="36.67367" lon="30.51459">
        <ele>421.3</ele>
      </trkpt>
      <trkpt lat="36.67369" lon="30.51468">
        <ele>418.7</ele>
      </trkpt>
      <trkpt lat="36.67367" lon="30.51472">
        <ele>418</ele>
      </trkpt>
      <trkpt lat="36.67364" lon="30.51479">
        <ele>417.4</ele>
      </trkpt>
      <trkpt lat="36.67363" lon="30.51486">
        <ele>416.2</ele>
      </trkpt>
      <trkpt lat="36.67357" lon="30.51498">
        <ele>415.3</ele>
      </trkpt>
      <trkpt lat="36.67349" lon="30.51511">
        <ele>417.3</ele>
      </trkpt>
      <trkpt lat="36.67351" lon="30.51519">
        <ele>415.8</ele>
      </trkpt>
      <trkpt lat="36.67347" lon="30.51529">
        <ele>416.9</ele>
      </trkpt>
      <trkpt lat="36.67344" lon="30.51534">
        <ele>417.8</ele>
      </trkpt>
      <trkpt lat="36.67346" lon="30.51544">
        <ele>416.4</ele>
      </trkpt>
      <trkpt lat="36.67343" lon="30.51557">
        <ele>417.1</ele>
      </trkpt>
      <trkpt lat="36.67345" lon="30.5157">
        <ele>415.7</ele>
      </trkpt>
      <trkpt lat="36.67343" lon="30.51578">
        <ele>416.3</ele>
      </trkpt>
      <trkpt lat="36.67345" lon="30.51587">
        <ele>413.9</ele>
      </trkpt>
      <trkpt lat="36.6734" lon="30.51601">
        <ele>414.5</ele>
      </trkpt>
      <trkpt lat="36.67337" lon="30.51612">
        <ele>414.4</ele>
      </trkpt>
      <trkpt lat="36.67336" lon="30.51622">
        <ele>413.4</ele>
      </trkpt>
      <trkpt lat="36.67335" lon="30.5164">
        <ele>410.7</ele>
      </trkpt>
      <trkpt lat="36.67335" lon="30.51657">
        <ele>408</ele>
      </trkpt>
      <trkpt lat="36.67336" lon="30.51682">
        <ele>402.8</ele>
      </trkpt>
      <trkpt lat="36.67339" lon="30.51691">
        <ele>399.7</ele>
      </trkpt>
      <trkpt lat="36.67349" lon="30.51711">
        <ele>391.8</ele>
      </trkpt>
      <trkpt lat="36.67352" lon="30.5172">
        <ele>389</ele>
      </trkpt>
      <trkpt lat="36.67351" lon="30.51729">
        <ele>388.5</ele>
      </trkpt>
      <trkpt lat="36.67345" lon="30.51731">
        <ele>390.9</ele>
      </trkpt>
      <trkpt lat="36.67343" lon="30.51736">
        <ele>391.1</ele>
      </trkpt>
      <trkpt lat="36.67347" lon="30.51742">
        <ele>388.7</ele>
      </trkpt>
      <trkpt lat="36.67353" lon="30.51746">
        <ele>385.7</ele>
      </trkpt>
      <trkpt lat="36.67356" lon="30.51751">
        <ele>383.6</ele>
      </trkpt>
      <trkpt lat="36.67358" lon="30.51757">
        <ele>380.2</ele>
      </trkpt>
      <trkpt lat="36.67361" lon="30.51769">
        <ele>374.9</ele>
      </trkpt>
      <trkpt lat="36.67358" lon="30.51773">
        <ele>374.3</ele>
      </trkpt>
      <trkpt lat="36.67357" lon="30.5177">
        <ele>375.6</ele>
      </trkpt>
      <trkpt lat="36.67355" lon="30.51771">
        <ele>375.9</ele>
      </trkpt>
      <trkpt lat="36.67353" lon="30.51771">
        <ele>376.3</ele>
      </trkpt>
      <trkpt lat="36.67351" lon="30.51773">
        <ele>376.5</ele>
      </trkpt>
      <trkpt lat="36.67348" lon="30.51775">
        <ele>376.5</ele>
      </trkpt>
      <trkpt lat="36.67344" lon="30.51776">
        <ele>377</ele>
      </trkpt>
      <trkpt lat="36.67333" lon="30.51783">
        <ele>376.8</ele>
      </trkpt>
      <trkpt lat="36.67321" lon="30.51787">
        <ele>379.1</ele>
      </trkpt>
      <trkpt lat="36.67307" lon="30.51789">
        <ele>382.7</ele>
      </trkpt>
      <trkpt lat="36.67297" lon="30.51802">
        <ele>379.2</ele>
      </trkpt>
      <trkpt lat="36.6729" lon="30.51813">
        <ele>375.9</ele>
      </trkpt>
      <trkpt lat="36.67279" lon="30.51826">
        <ele>372.5</ele>
      </trkpt>
      <trkpt lat="36.6727" lon="30.5184">
        <ele>367.6</ele>
      </trkpt>
      <trkpt lat="36.67266" lon="30.51844">
        <ele>367.2</ele>
      </trkpt>
      <trkpt lat="36.67251" lon="30.51846">
        <ele>370.8</ele>
      </trkpt>
      <trkpt lat="36.67236" lon="30.51854">
        <ele>371.9</ele>
      </trkpt>
      <trkpt lat="36.6723" lon="30.51856">
        <ele>373.1</ele>
      </trkpt>
      <trkpt lat="36.67219" lon="30.51854">
        <ele>378</ele>
      </trkpt>
      <trkpt lat="36.67204" lon="30.51859">
        <ele>380.6</ele>
      </trkpt>
      <trkpt lat="36.67198" lon="30.51865">
        <ele>379.7</ele>
      </trkpt>
      <trkpt lat="36.67189" lon="30.51884">
        <ele>374.4</ele>
      </trkpt>
      <trkpt lat="36.67178" lon="30.51901">
        <ele>370.7</ele>
      </trkpt>
      <trkpt lat="36.67179" lon="30.51906">
        <ele>368.1</ele>
      </trkpt>
      <trkpt lat="36.67173" lon="30.51911">
        <ele>368.3</ele>
      </trkpt>
      <trkpt lat="36.67172" lon="30.51922">
        <ele>365</ele>
      </trkpt>
      <trkpt lat="36.67173" lon="30.51933">
        <ele>362.5</ele>
      </trkpt>
      <trkpt lat="36.67173" lon="30.51944">
        <ele>360.7</ele>
      </trkpt>
      <trkpt lat="36.67173" lon="30.51953">
        <ele>358.9</ele>
      </trkpt>
      <trkpt lat="36.67169" lon="30.51959">
        <ele>359.1</ele>
      </trkpt>
      <trkpt lat="36.6716" lon="30.51966">
        <ele>361.3</ele>
      </trkpt>
      <trkpt lat="36.6716" lon="30.51978">
        <ele>358.8</ele>
      </trkpt>
      <trkpt lat="36.6716" lon="30.51986">
        <ele>357.4</ele>
      </trkpt>
      <trkpt lat="36.67164" lon="30.51997">
        <ele>353.6</ele>
      </trkpt>
      <trkpt lat="36.67172" lon="30.51991">
        <ele>351.8</ele>
      </trkpt>
      <trkpt lat="36.67177" lon="30.51991">
        <ele>349.9</ele>
      </trkpt>
      <trkpt lat="36.67181" lon="30.51995">
        <ele>347.6</ele>
      </trkpt>
      <trkpt lat="36.67184" lon="30.51997">
        <ele>346.3</ele>
      </trkpt>
      <trkpt lat="36.67186" lon="30.51997">
        <ele>345.5</ele>
      </trkpt>
      <trkpt lat="36.67188" lon="30.52">
        <ele>343.9</ele>
      </trkpt>
      <trkpt lat="36.67189" lon="30.5201">
        <ele>344.9</ele>
      </trkpt>
      <trkpt lat="36.67189" lon="30.52016">
        <ele>345.6</ele>
      </trkpt>
      <trkpt lat="36.67189" lon="30.52023">
        <ele>346.2</ele>
      </trkpt>
      <trkpt lat="36.6719" lon="30.52028">
        <ele>346.5</ele>
      </trkpt>
      <trkpt lat="36.67191" lon="30.52039">
        <ele>347.4</ele>
      </trkpt>
      <trkpt lat="36.67193" lon="30.52053">
        <ele>348.3</ele>
      </trkpt>
      <trkpt lat="36.67194" lon="30.52063">
        <ele>349.1</ele>
      </trkpt>
      <trkpt lat="36.67194" lon="30.52068">
        <ele>349.9</ele>
      </trkpt>
      <trkpt lat="36.67196" lon="30.52076">
        <ele>349.8</ele>
      </trkpt>
      <trkpt lat="36.67202" lon="30.52081">
        <ele>348.5</ele>
      </trkpt>
      <trkpt lat="36.67214" lon="30.52086">
        <ele>345.5</ele>
      </trkpt>
      <trkpt lat="36.67221" lon="30.52086">
        <ele>343.2</ele>
      </trkpt>
      <trkpt lat="36.67229" lon="30.52088">
        <ele>341.3</ele>
      </trkpt>
      <trkpt lat="36.67237" lon="30.52091">
        <ele>340</ele>
      </trkpt>
      <trkpt lat="36.67243" lon="30.52095">
        <ele>340</ele>
      </trkpt>
      <trkpt lat="36.67246" lon="30.52096">
        <ele>339.2</ele>
      </trkpt>
      <trkpt lat="36.6725" lon="30.52095">
        <ele>337.9</ele>
      </trkpt>
      <trkpt lat="36.67255" lon="30.52093">
        <ele>336.5</ele>
      </trkpt>
      <trkpt lat="36.67257" lon="30.52093">
        <ele>336.1</ele>
      </trkpt>
      <trkpt lat="36.67261" lon="30.52093">
        <ele>335.7</ele>
      </trkpt>
      <trkpt lat="36.67269" lon="30.52093">
        <ele>335.1</ele>
      </trkpt>
      <trkpt lat="36.67279" lon="30.52095">
        <ele>335.2</ele>
      </trkpt>
      <trkpt lat="36.67295" lon="30.52099">
        <ele>335.9</ele>
      </trkpt>
      <trkpt lat="36.6731" lon="30.52101">
        <ele>335.5</ele>
      </trkpt>
      <trkpt lat="36.67314" lon="30.521">
        <ele>334.9</ele>
      </trkpt>
      <trkpt lat="36.67319" lon="30.52101">
        <ele>334.9</ele>
      </trkpt>
      <trkpt lat="36.67325" lon="30.52103">
        <ele>335.7</ele>
      </trkpt>
      <trkpt lat="36.67333" lon="30.52112">
        <ele>339.2</ele>
      </trkpt>
      <trkpt lat="36.67343" lon="30.52119">
        <ele>340.6</ele>
      </trkpt>
      <trkpt lat="36.67348" lon="30.52123">
        <ele>341.2</ele>
      </trkpt>
      <trkpt lat="36.67353" lon="30.52126">
        <ele>341.6</ele>
      </trkpt>
      <trkpt lat="36.67358" lon="30.52127">
        <ele>341.1</ele>
      </trkpt>
      <trkpt lat="36.6737" lon="30.52127">
        <ele>337.6</ele>
      </trkpt>
      <trkpt lat="36.67383" lon="30.52129">
        <ele>335.5</ele>
      </trkpt>
      <trkpt lat="36.67396" lon="30.52134">
        <ele>335.2</ele>
      </trkpt>
      <trkpt lat="36.67402" lon="30.52136">
        <ele>335</ele>
      </trkpt>
      <trkpt lat="36.67408" lon="30.52137">
        <ele>334.5</ele>
      </trkpt>
      <trkpt lat="36.67412" lon="30.52137">
        <ele>333.4</ele>
      </trkpt>
      <trkpt lat="36.67422" lon="30.52135">
        <ele>329</ele>
      </trkpt>
      <trkpt lat="36.6743" lon="30.52134">
        <ele>325.7</ele>
      </trkpt>
      <trkpt lat="36.67437" lon="30.52136">
        <ele>324.2</ele>
      </trkpt>
      <trkpt lat="36.67443" lon="30.5214">
        <ele>324</ele>
      </trkpt>
      <trkpt lat="36.6745" lon="30.52148">
        <ele>325.4</ele>
      </trkpt>
      <trkpt lat="36.67461" lon="30.52162">
        <ele>327.6</ele>
      </trkpt>
      <trkpt lat="36.67464" lon="30.52172">
        <ele>328</ele>
      </trkpt>
      <trkpt lat="36.67465" lon="30.52179">
        <ele>327.3</ele>
      </trkpt>
      <trkpt lat="36.67468" lon="30.52184">
        <ele>325.6</ele>
      </trkpt>
      <trkpt lat="36.67469" lon="30.52186">
        <ele>325</ele>
      </trkpt>
      <trkpt lat="36.67469" lon="30.5219">
        <ele>324.4</ele>
      </trkpt>
      <trkpt lat="36.67468" lon="30.52193">
        <ele>324.8</ele>
      </trkpt>
      <trkpt lat="36.67468" lon="30.52196">
        <ele>324.7</ele>
      </trkpt>
      <trkpt lat="36.67469" lon="30.52198">
        <ele>323.9</ele>
      </trkpt>
      <trkpt lat="36.67471" lon="30.52199">
        <ele>322.8</ele>
      </trkpt>
      <trkpt lat="36.67474" lon="30.52199">
        <ele>321.3</ele>
      </trkpt>
      <trkpt lat="36.67477" lon="30.52197">
        <ele>320.4</ele>
      </trkpt>
      <trkpt lat="36.6748" lon="30.52193">
        <ele>319</ele>
      </trkpt>
      <trkpt lat="36.67493" lon="30.52188">
        <ele>313.4</ele>
      </trkpt>
      <trkpt lat="36.67501" lon="30.52184">
        <ele>310.3</ele>
      </trkpt>
      <trkpt lat="36.67509" lon="30.52182">
        <ele>308.5</ele>
      </trkpt>
      <trkpt lat="36.67521" lon="30.52183">
        <ele>305.9</ele>
      </trkpt>
      <trkpt lat="36.67529" lon="30.52182">
        <ele>304.2</ele>
      </trkpt>
      <trkpt lat="36.67536" lon="30.52181">
        <ele>302.8</ele>
      </trkpt>
      <trkpt lat="36.67541" lon="30.52179">
        <ele>302</ele>
      </trkpt>
      <trkpt lat="36.67548" lon="30.52176">
        <ele>301</ele>
      </trkpt>
      <trkpt lat="36.67554" lon="30.52174">
        <ele>300.3</ele>
      </trkpt>
      <trkpt lat="36.67559" lon="30.52175">
        <ele>299.2</ele>
      </trkpt>
      <trkpt lat="36.67566" lon="30.52175">
        <ele>297.6</ele>
      </trkpt>
      <trkpt lat="36.67572" lon="30.52179">
        <ele>295.5</ele>
      </trkpt>
      <trkpt lat="36.67578" lon="30.52183">
        <ele>293.4</ele>
      </trkpt>
      <trkpt lat="36.67579" lon="30.52187">
        <ele>292</ele>
      </trkpt>
      <trkpt lat="36.6758" lon="30.5219">
        <ele>291.2</ele>
      </trkpt>
      <trkpt lat="36.67582" lon="30.52192">
        <ele>290.3</ele>
      </trkpt>
      <trkpt lat="36.67585" lon="30.52193">
        <ele>289.5</ele>
      </trkpt>
      <trkpt lat="36.6759" lon="30.52195">
        <ele>288.3</ele>
      </trkpt>
      <trkpt lat="36.67592" lon="30.52196">
        <ele>287.8</ele>
      </trkpt>
      <trkpt lat="36.67593" lon="30.52197">
        <ele>287.3</ele>
      </trkpt>
      <trkpt lat="36.67592" lon="30.52199">
        <ele>286.9</ele>
      </trkpt>
      <trkpt lat="36.67591" lon="30.52201">
        <ele>286.7</ele>
      </trkpt>
      <trkpt lat="36.67585" lon="30.52205">
        <ele>286.5</ele>
      </trkpt>
      <trkpt lat="36.67581" lon="30.52209">
        <ele>286.7</ele>
      </trkpt>
      <trkpt lat="36.67574" lon="30.52216">
        <ele>286.8</ele>
      </trkpt>
      <trkpt lat="36.67565" lon="30.52221">
        <ele>288.2</ele>
      </trkpt>
      <trkpt lat="36.67555" lon="30.52229">
        <ele>289.6</ele>
      </trkpt>
      <trkpt lat="36.67544" lon="30.52242">
        <ele>290.6</ele>
      </trkpt>
      <trkpt lat="36.67531" lon="30.52256">
        <ele>291.8</ele>
      </trkpt>
      <trkpt lat="36.67522" lon="30.52275">
        <ele>289.9</ele>
      </trkpt>
      <trkpt lat="36.67517" lon="30.52293">
        <ele>286.9</ele>
      </trkpt>
      <trkpt lat="36.67515" lon="30.52304">
        <ele>284.9</ele>
      </trkpt>
      <trkpt lat="36.67515" lon="30.5231">
        <ele>283.2</ele>
      </trkpt>
      <trkpt lat="36.6752" lon="30.52315">
        <ele>279.8</ele>
      </trkpt>
      <trkpt lat="36.67525" lon="30.52318">
        <ele>277.4</ele>
      </trkpt>
      <trkpt lat="36.67528" lon="30.52319">
        <ele>275.7</ele>
      </trkpt>
      <trkpt lat="36.6753" lon="30.52323">
        <ele>273.7</ele>
      </trkpt>
      <trkpt lat="36.67534" lon="30.52337">
        <ele>269.6</ele>
      </trkpt>
      <trkpt lat="36.67536" lon="30.52363">
        <ele>268.4</ele>
      </trkpt>
      <trkpt lat="36.67537" lon="30.5237">
        <ele>267.5</ele>
      </trkpt>
      <trkpt lat="36.6754" lon="30.52376">
        <ele>266.5</ele>
      </trkpt>
      <trkpt lat="36.67543" lon="30.52386">
        <ele>264.6</ele>
      </trkpt>
      <trkpt lat="36.67553" lon="30.52396">
        <ele>259.7</ele>
      </trkpt>
      <trkpt lat="36.67558" lon="30.52402">
        <ele>256.7</ele>
      </trkpt>
      <trkpt lat="36.67563" lon="30.5241">
        <ele>253.7</ele>
      </trkpt>
      <trkpt lat="36.67569" lon="30.52428">
        <ele>249.8</ele>
      </trkpt>
      <trkpt lat="36.67575" lon="30.52435">
        <ele>246</ele>
      </trkpt>
      <trkpt lat="36.67577" lon="30.5244">
        <ele>244.8</ele>
      </trkpt>
      <trkpt lat="36.67579" lon="30.52447">
        <ele>243.4</ele>
      </trkpt>
      <trkpt lat="36.67575" lon="30.52449">
        <ele>245.1</ele>
      </trkpt>
      <trkpt lat="36.67576" lon="30.5246">
        <ele>244.2</ele>
      </trkpt>
      <trkpt lat="36.67571" lon="30.52461">
        <ele>246.8</ele>
      </trkpt>
      <trkpt lat="36.67569" lon="30.52467">
        <ele>247.4</ele>
      </trkpt>
      <trkpt lat="36.67577" lon="30.52463">
        <ele>243.4</ele>
      </trkpt>
      <trkpt lat="36.67579" lon="30.52468">
        <ele>241.8</ele>
      </trkpt>
      <trkpt lat="36.67575" lon="30.52471">
        <ele>243.7</ele>
      </trkpt>
      <trkpt lat="36.67568" lon="30.52476">
        <ele>247.8</ele>
      </trkpt>
      <trkpt lat="36.67573" lon="30.5248">
        <ele>244.7</ele>
      </trkpt>
      <trkpt lat="36.67578" lon="30.52473">
        <ele>242.1</ele>
      </trkpt>
      <trkpt lat="36.67582" lon="30.52478">
        <ele>239.6</ele>
      </trkpt>
      <trkpt lat="36.67581" lon="30.52484">
        <ele>239.7</ele>
      </trkpt>
      <trkpt lat="36.67584" lon="30.52492">
        <ele>237.5</ele>
      </trkpt>
      <trkpt lat="36.67586" lon="30.52496">
        <ele>236.5</ele>
      </trkpt>
      <trkpt lat="36.67588" lon="30.52498">
        <ele>235.5</ele>
      </trkpt>
      <trkpt lat="36.67589" lon="30.52499">
        <ele>235</ele>
      </trkpt>
      <trkpt lat="36.67592" lon="30.525">
        <ele>233.8</ele>
      </trkpt>
      <trkpt lat="36.67595" lon="30.52501">
        <ele>232.6</ele>
      </trkpt>
      <trkpt lat="36.67598" lon="30.52511">
        <ele>232.6</ele>
      </trkpt>
      <trkpt lat="36.67601" lon="30.52516">
        <ele>232.5</ele>
      </trkpt>
      <trkpt lat="36.67603" lon="30.52522">
        <ele>232.6</ele>
      </trkpt>
      <trkpt lat="36.67604" lon="30.52525">
        <ele>232.6</ele>
      </trkpt>
      <trkpt lat="36.67606" lon="30.52527">
        <ele>232.3</ele>
      </trkpt>
      <trkpt lat="36.6761" lon="30.52527">
        <ele>231.5</ele>
      </trkpt>
      <trkpt lat="36.67614" lon="30.52526">
        <ele>230.1</ele>
      </trkpt>
      <trkpt lat="36.67618" lon="30.52524">
        <ele>228.4</ele>
      </trkpt>
      <trkpt lat="36.67629" lon="30.5252">
        <ele>224.1</ele>
      </trkpt>
      <trkpt lat="36.6764" lon="30.52516">
        <ele>219.5</ele>
      </trkpt>
      <trkpt lat="36.67652" lon="30.52518">
        <ele>216.3</ele>
      </trkpt>
      <trkpt lat="36.67663" lon="30.52524">
        <ele>214.9</ele>
      </trkpt>
      <trkpt lat="36.67672" lon="30.52525">
        <ele>213.3</ele>
      </trkpt>
      <trkpt lat="36.67686" lon="30.52527">
        <ele>211.1</ele>
      </trkpt>
      <trkpt lat="36.67695" lon="30.52525">
        <ele>208.5</ele>
      </trkpt>
      <trkpt lat="36.67703" lon="30.52522">
        <ele>206.1</ele>
      </trkpt>
      <trkpt lat="36.6771" lon="30.52518">
        <ele>203.6</ele>
      </trkpt>
      <trkpt lat="36.67713" lon="30.5252">
        <ele>203.5</ele>
      </trkpt>
      <trkpt lat="36.67721" lon="30.5252">
        <ele>202.2</ele>
      </trkpt>
      <trkpt lat="36.67729" lon="30.5252">
        <ele>200.6</ele>
      </trkpt>
      <trkpt lat="36.67735" lon="30.52519">
        <ele>199</ele>
      </trkpt>
      <trkpt lat="36.6774" lon="30.52521">
        <ele>198.6</ele>
      </trkpt>
      <trkpt lat="36.67746" lon="30.52521">
        <ele>197.4</ele>
      </trkpt>
      <trkpt lat="36.67753" lon="30.52524">
        <ele>196</ele>
      </trkpt>
      <trkpt lat="36.67759" lon="30.52528">
        <ele>194.5</ele>
      </trkpt>
      <trkpt lat="36.67764" lon="30.52532">
        <ele>193</ele>
      </trkpt>
      <trkpt lat="36.67772" lon="30.52535">
        <ele>190.2</ele>
      </trkpt>
      <trkpt lat="36.67777" lon="30.5254">
        <ele>188.8</ele>
      </trkpt>
      <trkpt lat="36.67783" lon="30.52544">
        <ele>187.1</ele>
      </trkpt>
      <trkpt lat="36.67787" lon="30.5255">
        <ele>186.8</ele>
      </trkpt>
      <trkpt lat="36.67791" lon="30.52551">
        <ele>185.3</ele>
      </trkpt>
      <trkpt lat="36.67796" lon="30.52547">
        <ele>182.2</ele>
      </trkpt>
      <trkpt lat="36.67797" lon="30.52552">
        <ele>182.9</ele>
      </trkpt>
      <trkpt lat="36.67793" lon="30.5256">
        <ele>186.3</ele>
      </trkpt>
      <trkpt lat="36.67798" lon="30.52563">
        <ele>184.8</ele>
      </trkpt>
      <trkpt lat="36.67803" lon="30.52556">
        <ele>181.3</ele>
      </trkpt>
      <trkpt lat="36.67804" lon="30.52558">
        <ele>180.9</ele>
      </trkpt>
      <trkpt lat="36.6781" lon="30.52563">
        <ele>179.4</ele>
      </trkpt>
      <trkpt lat="36.67814" lon="30.52567">
        <ele>178.6</ele>
      </trkpt>
      <trkpt lat="36.6782" lon="30.52571">
        <ele>177</ele>
      </trkpt>
      <trkpt lat="36.67826" lon="30.52572">
        <ele>174.8</ele>
      </trkpt>
      <trkpt lat="36.67833" lon="30.52577">
        <ele>172.7</ele>
      </trkpt>
      <trkpt lat="36.6784" lon="30.52582">
        <ele>170.7</ele>
      </trkpt>
      <trkpt lat="36.67847" lon="30.52586">
        <ele>168.2</ele>
      </trkpt>
      <trkpt lat="36.67853" lon="30.52589">
        <ele>166.7</ele>
      </trkpt>
      <trkpt lat="36.67859" lon="30.52594">
        <ele>165</ele>
      </trkpt>
      <trkpt lat="36.6787" lon="30.52598">
        <ele>160.9</ele>
      </trkpt>
      <trkpt lat="36.67877" lon="30.52602">
        <ele>158.4</ele>
      </trkpt>
      <trkpt lat="36.6788" lon="30.52603">
        <ele>157</ele>
      </trkpt>
      <trkpt lat="36.67886" lon="30.52608">
        <ele>155.3</ele>
      </trkpt>
      <trkpt lat="36.67891" lon="30.52612">
        <ele>153.8</ele>
      </trkpt>
      <trkpt lat="36.67897" lon="30.52619">
        <ele>152.3</ele>
      </trkpt>
      <trkpt lat="36.67902" lon="30.52628">
        <ele>152</ele>
      </trkpt>
      <trkpt lat="36.67906" lon="30.52643">
        <ele>153.4</ele>
      </trkpt>
      <trkpt lat="36.67915" lon="30.52661">
        <ele>152.8</ele>
      </trkpt>
      <trkpt lat="36.67919" lon="30.52678">
        <ele>154.9</ele>
      </trkpt>
      <trkpt lat="36.67921" lon="30.52694">
        <ele>157.7</ele>
      </trkpt>
      <trkpt lat="36.67925" lon="30.52705">
        <ele>158.6</ele>
      </trkpt>
      <trkpt lat="36.67928" lon="30.52707">
        <ele>157.7</ele>
      </trkpt>
      <trkpt lat="36.67934" lon="30.5271">
        <ele>156.1</ele>
      </trkpt>
      <trkpt lat="36.67938" lon="30.52714">
        <ele>155.3</ele>
      </trkpt>
      <trkpt lat="36.67946" lon="30.52718">
        <ele>152.6</ele>
      </trkpt>
      <trkpt lat="36.67951" lon="30.52724">
        <ele>151.2</ele>
      </trkpt>
      <trkpt lat="36.67957" lon="30.52726">
        <ele>149.2</ele>
      </trkpt>
      <trkpt lat="36.67959" lon="30.52727">
        <ele>148.6</ele>
      </trkpt>
      <trkpt lat="36.6796" lon="30.5273">
        <ele>148.8</ele>
      </trkpt>
      <trkpt lat="36.67966" lon="30.52735">
        <ele>147</ele>
      </trkpt>
      <trkpt lat="36.67975" lon="30.52746">
        <ele>145.1</ele>
      </trkpt>
      <trkpt lat="36.67979" lon="30.52751">
        <ele>144.1</ele>
      </trkpt>
      <trkpt lat="36.67982" lon="30.52752">
        <ele>142.9</ele>
      </trkpt>
      <trkpt lat="36.67991" lon="30.52753">
        <ele>139</ele>
      </trkpt>
      <trkpt lat="36.68005" lon="30.52768">
        <ele>135.5</ele>
      </trkpt>
      <trkpt lat="36.68019" lon="30.52786">
        <ele>132.6</ele>
      </trkpt>
      <trkpt lat="36.68023" lon="30.528">
        <ele>133.4</ele>
      </trkpt>
      <trkpt lat="36.68028" lon="30.52807">
        <ele>133.1</ele>
      </trkpt>
      <trkpt lat="36.68035" lon="30.52814">
        <ele>131.2</ele>
      </trkpt>
      <trkpt lat="36.68047" lon="30.5282">
        <ele>126.8</ele>
      </trkpt>
      <trkpt lat="36.6806" lon="30.52837">
        <ele>125.6</ele>
      </trkpt>
      <trkpt lat="36.68077" lon="30.52854">
        <ele>125.2</ele>
      </trkpt>
      <trkpt lat="36.68095" lon="30.52855">
        <ele>119.5</ele>
      </trkpt>
      <trkpt lat="36.68109" lon="30.52855">
        <ele>115.8</ele>
      </trkpt>
      <trkpt lat="36.68117" lon="30.52854">
        <ele>113</ele>
      </trkpt>
      <trkpt lat="36.68131" lon="30.52856">
        <ele>110</ele>
      </trkpt>
      <trkpt lat="36.68142" lon="30.52858">
        <ele>107.7</ele>
      </trkpt>
      <trkpt lat="36.68151" lon="30.52859">
        <ele>106</ele>
      </trkpt>
      <trkpt lat="36.68164" lon="30.52863">
        <ele>104</ele>
      </trkpt>
      <trkpt lat="36.68183" lon="30.52872">
        <ele>102.4</ele>
      </trkpt>
      <trkpt lat="36.68204" lon="30.52871">
        <ele>95.7</ele>
      </trkpt>
      <trkpt lat="36.68224" lon="30.52864">
        <ele>88</ele>
      </trkpt>
      <trkpt lat="36.68232" lon="30.5286">
        <ele>84.9</ele>
      </trkpt>
      <trkpt lat="36.68239" lon="30.52862">
        <ele>83.4</ele>
      </trkpt>
      <trkpt lat="36.68248" lon="30.52858">
        <ele>80.2</ele>
      </trkpt>
      <trkpt lat="36.68254" lon="30.52863">
        <ele>80</ele>
      </trkpt>
      <trkpt lat="36.68267" lon="30.52872">
        <ele>80</ele>
      </trkpt>
      <trkpt lat="36.68279" lon="30.52885">
        <ele>80.3</ele>
      </trkpt>
      <trkpt lat="36.68271" lon="30.52896">
        <ele>83.5</ele>
      </trkpt>
      <trkpt lat="36.68268" lon="30.5292">
        <ele>87.3</ele>
      </trkpt>
      <trkpt lat="36.68269" lon="30.52934">
        <ele>86.6</ele>
      </trkpt>
      <trkpt lat="36.68272" lon="30.52947">
        <ele>85.7</ele>
      </trkpt>
      <trkpt lat="36.68269" lon="30.5296">
        <ele>85.7</ele>
      </trkpt>
      <trkpt lat="36.68261" lon="30.52978">
        <ele>85.7</ele>
      </trkpt>
      <trkpt lat="36.68259" lon="30.53013">
        <ele>82.4</ele>
      </trkpt>
      <trkpt lat="36.68255" lon="30.53042">
        <ele>76.7</ele>
      </trkpt>
      <trkpt lat="36.68241" lon="30.53072">
        <ele>77</ele>
      </trkpt>
      <trkpt lat="36.68239" lon="30.53084">
        <ele>76.7</ele>
      </trkpt>
      <trkpt lat="36.68227" lon="30.5311">
        <ele>82.7</ele>
      </trkpt>
      <trkpt lat="36.68227" lon="30.53114">
        <ele>81.9</ele>
      </trkpt>
      <trkpt lat="36.68227" lon="30.53117">
        <ele>81</ele>
      </trkpt>
      <trkpt lat="36.68216" lon="30.53124">
        <ele>88.2</ele>
      </trkpt>
      <trkpt lat="36.68206" lon="30.53139">
        <ele>90.2</ele>
      </trkpt>
      <trkpt lat="36.68196" lon="30.53162">
        <ele>87.6</ele>
      </trkpt>
      <trkpt lat="36.68188" lon="30.53191">
        <ele>82.8</ele>
      </trkpt>
      <trkpt lat="36.6818" lon="30.53215">
        <ele>78.1</ele>
      </trkpt>
      <trkpt lat="36.68176" lon="30.53229">
        <ele>74.3</ele>
      </trkpt>
      <trkpt lat="36.68173" lon="30.53244">
        <ele>69.9</ele>
      </trkpt>
      <trkpt lat="36.68175" lon="30.53253">
        <ele>67.2</ele>
      </trkpt>
      <trkpt lat="36.6818" lon="30.53264">
        <ele>65.6</ele>
      </trkpt>
      <trkpt lat="36.68186" lon="30.53267">
        <ele>65.1</ele>
      </trkpt>
      <trkpt lat="36.68191" lon="30.53269">
        <ele>64.9</ele>
      </trkpt>
      <trkpt lat="36.68194" lon="30.5327">
        <ele>64.8</ele>
      </trkpt>
      <trkpt lat="36.68194" lon="30.53287">
        <ele>63.1</ele>
      </trkpt>
      <trkpt lat="36.68221" lon="30.53288">
        <ele>63.9</ele>
      </trkpt>
      <trkpt lat="36.68224" lon="30.53317">
        <ele>63.1</ele>
      </trkpt>
      <trkpt lat="36.68229" lon="30.53327">
        <ele>63.4</ele>
      </trkpt>
      <trkpt lat="36.68229" lon="30.53317">
        <ele>63.5</ele>
      </trkpt>
      <trkpt lat="36.68232" lon="30.53256">
        <ele>64.8</ele>
      </trkpt>
      <trkpt lat="36.68238" lon="30.53219">
        <ele>65.3</ele>
      </trkpt>
      <trkpt lat="36.68245" lon="30.53198">
        <ele>63.8</ele>
      </trkpt>
      <trkpt lat="36.68254" lon="30.53148">
        <ele>64.6</ele>
      </trkpt>
      <trkpt lat="36.68262" lon="30.53131">
        <ele>69.9</ele>
      </trkpt>
      <trkpt lat="36.68268" lon="30.53116">
        <ele>74</ele>
      </trkpt>
      <trkpt lat="36.68272" lon="30.53103">
        <ele>76.6</ele>
      </trkpt>
      <trkpt lat="36.68273" lon="30.53093">
        <ele>77.7</ele>
      </trkpt>
      <trkpt lat="36.68276" lon="30.53085">
        <ele>79.6</ele>
      </trkpt>
      <trkpt lat="36.68286" lon="30.53076">
        <ele>84.7</ele>
      </trkpt>
      <trkpt lat="36.6829" lon="30.53067">
        <ele>86.5</ele>
      </trkpt>
      <trkpt lat="36.68296" lon="30.5305">
        <ele>87.6</ele>
      </trkpt>
      <trkpt lat="36.68299" lon="30.53026">
        <ele>86</ele>
      </trkpt>
      <trkpt lat="36.68312" lon="30.52991">
        <ele>82.3</ele>
      </trkpt>
      <trkpt lat="36.68319" lon="30.52981">
        <ele>81.2</ele>
      </trkpt>
      <trkpt lat="36.68325" lon="30.52966">
        <ele>79.6</ele>
      </trkpt>
      <trkpt lat="36.68324" lon="30.52925">
        <ele>76.6</ele>
      </trkpt>
      <trkpt lat="36.68326" lon="30.52901">
        <ele>74.2</ele>
      </trkpt>
      <trkpt lat="36.68327" lon="30.52882">
        <ele>72.4</ele>
      </trkpt>
      <trkpt lat="36.68331" lon="30.52835">
        <ele>68.4</ele>
      </trkpt>
      <trkpt lat="36.68334" lon="30.52807">
        <ele>71.4</ele>
      </trkpt>
      <trkpt lat="36.68332" lon="30.5279">
        <ele>73.4</ele>
      </trkpt>
      <trkpt lat="36.6833" lon="30.52783">
        <ele>74.4</ele>
      </trkpt>
      <trkpt lat="36.68345" lon="30.52771">
        <ele>78.3</ele>
      </trkpt>
      <trkpt lat="36.68347" lon="30.52768">
        <ele>78.9</ele>
      </trkpt>
      <trkpt lat="36.68356" lon="30.52752">
        <ele>81</ele>
      </trkpt>
      <trkpt lat="36.6837" lon="30.52735">
        <ele>86.5</ele>
      </trkpt>
      <trkpt lat="36.68372" lon="30.52708">
        <ele>93</ele>
      </trkpt>
      <trkpt lat="36.6838" lon="30.52688">
        <ele>96.3</ele>
      </trkpt>
      <trkpt lat="36.68423" lon="30.52653">
        <ele>96.3</ele>
      </trkpt>
      <trkpt lat="36.68429" lon="30.52634">
        <ele>104.1</ele>
      </trkpt>
      <trkpt lat="36.68438" lon="30.52624">
        <ele>107.8</ele>
      </trkpt>
      <trkpt lat="36.68449" lon="30.52634">
        <ele>103.9</ele>
      </trkpt>
      <trkpt lat="36.68491" lon="30.52627">
        <ele>105.2</ele>
      </trkpt>
      <trkpt lat="36.68507" lon="30.52634">
        <ele>104.1</ele>
      </trkpt>
      <trkpt lat="36.68527" lon="30.5263">
        <ele>107.4</ele>
      </trkpt>
      <trkpt lat="36.68554" lon="30.52618">
        <ele>111.6</ele>
      </trkpt>
      <trkpt lat="36.68566" lon="30.52616">
        <ele>112.5</ele>
      </trkpt>
      <trkpt lat="36.68572" lon="30.52624">
        <ele>112.8</ele>
      </trkpt>
      <trkpt lat="36.68577" lon="30.52631">
        <ele>113.4</ele>
      </trkpt>
      <trkpt lat="36.6861" lon="30.52622">
        <ele>118.6</ele>
      </trkpt>
      <trkpt lat="36.68656" lon="30.52608">
        <ele>123</ele>
      </trkpt>
      <trkpt lat="36.68687" lon="30.52598">
        <ele>123.1</ele>
      </trkpt>
      <trkpt lat="36.68701" lon="30.52602">
        <ele>125.9</ele>
      </trkpt>
      <trkpt lat="36.68721" lon="30.52597">
        <ele>126</ele>
      </trkpt>
      <trkpt lat="36.68743" lon="30.52607">
        <ele>131.8</ele>
      </trkpt>
      <trkpt lat="36.68786" lon="30.52596">
        <ele>131.3</ele>
      </trkpt>
      <trkpt lat="36.68814" lon="30.52604">
        <ele>136.4</ele>
      </trkpt>
      <trkpt lat="36.68831" lon="30.52618">
        <ele>142</ele>
      </trkpt>
      <trkpt lat="36.68857" lon="30.52622">
        <ele>144.6</ele>
      </trkpt>
      <trkpt lat="36.68883" lon="30.52627">
        <ele>146.5</ele>
      </trkpt>
      <trkpt lat="36.68912" lon="30.52622">
        <ele>147.9</ele>
      </trkpt>
      <trkpt lat="36.68921" lon="30.52632">
        <ele>148</ele>
      </trkpt>
      <trkpt lat="36.68935" lon="30.52638">
        <ele>149.6</ele>
      </trkpt>
      <trkpt lat="36.6899" lon="30.52633">
        <ele>157.9</ele>
      </trkpt>
      <trkpt lat="36.69005" lon="30.52619">
        <ele>161.6</ele>
      </trkpt>
      <trkpt lat="36.69026" lon="30.52616">
        <ele>165.9</ele>
      </trkpt>
      <trkpt lat="36.69042" lon="30.52618">
        <ele>169.7</ele>
      </trkpt>
      <trkpt lat="36.69044" lon="30.52613">
        <ele>168.8</ele>
      </trkpt>
      <trkpt lat="36.69042" lon="30.52598">
        <ele>165.6</ele>
      </trkpt>
      <trkpt lat="36.6905" lon="30.52576">
        <ele>163.5</ele>
      </trkpt>
      <trkpt lat="36.69073" lon="30.5254">
        <ele>164.6</ele>
      </trkpt>
      <trkpt lat="36.69124" lon="30.52533">
        <ele>164.4</ele>
      </trkpt>
      <trkpt lat="36.69156" lon="30.52508">
        <ele>161.7</ele>
      </trkpt>
      <trkpt lat="36.69255" lon="30.52478">
        <ele>169.4</ele>
      </trkpt>
      <trkpt lat="36.6933" lon="30.52405">
        <ele>174</ele>
      </trkpt>
      <trkpt lat="36.69379" lon="30.5236">
        <ele>188.4</ele>
      </trkpt>
      <trkpt lat="36.69404" lon="30.52358">
        <ele>187.5</ele>
      </trkpt>
      <trkpt lat="36.69408" lon="30.52353">
        <ele>188.6</ele>
      </trkpt>
      <trkpt lat="36.69417" lon="30.52349">
        <ele>188.9</ele>
      </trkpt>
      <trkpt lat="36.69422" lon="30.52354">
        <ele>188.3</ele>
      </trkpt>
      <trkpt lat="36.6944" lon="30.52353">
        <ele>191.1</ele>
      </trkpt>
      <trkpt lat="36.69451" lon="30.5235">
        <ele>193.3</ele>
      </trkpt>
      <trkpt lat="36.69453" lon="30.52366">
        <ele>190.2</ele>
      </trkpt>
      <trkpt lat="36.69459" lon="30.52377">
        <ele>188.7</ele>
      </trkpt>
      <trkpt lat="36.69479" lon="30.52381">
        <ele>191.3</ele>
      </trkpt>
      <trkpt lat="36.69506" lon="30.52393">
        <ele>193.2</ele>
      </trkpt>
      <trkpt lat="36.69531" lon="30.52372">
        <ele>197.1</ele>
      </trkpt>
      <trkpt lat="36.69539" lon="30.52379">
        <ele>196.5</ele>
      </trkpt>
      <trkpt lat="36.69556" lon="30.52376">
        <ele>197.2</ele>
      </trkpt>
      <trkpt lat="36.69573" lon="30.52356">
        <ele>198.9</ele>
      </trkpt>
      <trkpt lat="36.69586" lon="30.52351">
        <ele>199.2</ele>
      </trkpt>
      <trkpt lat="36.69594" lon="30.52331">
        <ele>200.9</ele>
      </trkpt>
      <trkpt lat="36.69611" lon="30.52317">
        <ele>206</ele>
      </trkpt>
      <trkpt lat="36.6963" lon="30.52309">
        <ele>209</ele>
      </trkpt>
      <trkpt lat="36.69644" lon="30.52313">
        <ele>207.8</ele>
      </trkpt>
      <trkpt lat="36.69663" lon="30.52307">
        <ele>210.6</ele>
      </trkpt>
      <trkpt lat="36.69677" lon="30.52298">
        <ele>214</ele>
      </trkpt>
      <trkpt lat="36.69693" lon="30.52289">
        <ele>217.2</ele>
      </trkpt>
      <trkpt lat="36.69706" lon="30.5227">
        <ele>222.9</ele>
      </trkpt>
      <trkpt lat="36.69723" lon="30.52262">
        <ele>224.6</ele>
      </trkpt>
      <trkpt lat="36.69731" lon="30.52251">
        <ele>227</ele>
      </trkpt>
      <trkpt lat="36.69742" lon="30.52245">
        <ele>228.7</ele>
      </trkpt>
      <trkpt lat="36.69766" lon="30.52245">
        <ele>229.3</ele>
      </trkpt>
      <trkpt lat="36.69783" lon="30.52239">
        <ele>233.4</ele>
      </trkpt>
      <trkpt lat="36.69782" lon="30.52233">
        <ele>236.2</ele>
      </trkpt>
      <trkpt lat="36.69774" lon="30.52228">
        <ele>237.7</ele>
      </trkpt>
      <trkpt lat="36.69767" lon="30.52221">
        <ele>240</ele>
      </trkpt>
      <trkpt lat="36.69787" lon="30.52222">
        <ele>241.4</ele>
      </trkpt>
      <trkpt lat="36.69798" lon="30.52218">
        <ele>243.7</ele>
      </trkpt>
      <trkpt lat="36.69851" lon="30.52208">
        <ele>252.5</ele>
      </trkpt>
      <trkpt lat="36.69887" lon="30.52217">
        <ele>252.3</ele>
      </trkpt>
      <trkpt lat="36.69912" lon="30.52217">
        <ele>254.7</ele>
      </trkpt>
      <trkpt lat="36.69929" lon="30.52205">
        <ele>262.1</ele>
      </trkpt>
      <trkpt lat="36.69955" lon="30.52212">
        <ele>266.2</ele>
      </trkpt>
      <trkpt lat="36.70006" lon="30.52228">
        <ele>274.7</ele>
      </trkpt>
      <trkpt lat="36.70027" lon="30.52224">
        <ele>278.6</ele>
      </trkpt>
      <trkpt lat="36.70039" lon="30.52239">
        <ele>276.7</ele>
      </trkpt>
      <trkpt lat="36.70056" lon="30.52241">
        <ele>278.6</ele>
      </trkpt>
      <trkpt lat="36.70064" lon="30.52233">
        <ele>281.7</ele>
      </trkpt>
      <trkpt lat="36.70058" lon="30.52224">
        <ele>283.2</ele>
      </trkpt>
      <trkpt lat="36.70059" lon="30.52214">
        <ele>285.7</ele>
      </trkpt>
      <trkpt lat="36.70076" lon="30.52212">
        <ele>289</ele>
      </trkpt>
      <trkpt lat="36.70092" lon="30.522">
        <ele>294</ele>
      </trkpt>
      <trkpt lat="36.70095" lon="30.52193">
        <ele>296</ele>
      </trkpt>
      <trkpt lat="36.70082" lon="30.52186">
        <ele>296.6</ele>
      </trkpt>
      <trkpt lat="36.70077" lon="30.52177">
        <ele>298.2</ele>
      </trkpt>
      <trkpt lat="36.70081" lon="30.52162">
        <ele>304.1</ele>
      </trkpt>
      <trkpt lat="36.70067" lon="30.5214">
        <ele>313</ele>
      </trkpt>
      <trkpt lat="36.70067" lon="30.52135">
        <ele>316</ele>
      </trkpt>
      <trkpt lat="36.70077" lon="30.52128">
        <ele>321.4</ele>
      </trkpt>
      <trkpt lat="36.7008" lon="30.52114">
        <ele>328.7</ele>
      </trkpt>
      <trkpt lat="36.70122" lon="30.52101">
        <ele>335.8</ele>
      </trkpt>
      <trkpt lat="36.70133" lon="30.52103">
        <ele>334.9</ele>
      </trkpt>
      <trkpt lat="36.70147" lon="30.52074">
        <ele>347</ele>
      </trkpt>
      <trkpt lat="36.70151" lon="30.52063">
        <ele>351.2</ele>
      </trkpt>
      <trkpt lat="36.70163" lon="30.52066">
        <ele>349.3</ele>
      </trkpt>
      <trkpt lat="36.70183" lon="30.52065">
        <ele>346.4</ele>
      </trkpt>
      <trkpt lat="36.70202" lon="30.52022">
        <ele>359</ele>
      </trkpt>
      <trkpt lat="36.70231" lon="30.52">
        <ele>363.7</ele>
      </trkpt>
      <trkpt lat="36.70245" lon="30.51975">
        <ele>372.3</ele>
      </trkpt>
      <trkpt lat="36.7029" lon="30.51986">
        <ele>364.6</ele>
      </trkpt>
      <trkpt lat="36.70311" lon="30.51965">
        <ele>375.2</ele>
      </trkpt>
      <trkpt lat="36.70353" lon="30.51945">
        <ele>387.4</ele>
      </trkpt>
      <trkpt lat="36.70404" lon="30.5195">
        <ele>386.3</ele>
      </trkpt>
      <trkpt lat="36.70435" lon="30.51975">
        <ele>380.2</ele>
      </trkpt>
      <trkpt lat="36.70453" lon="30.51985">
        <ele>379.5</ele>
      </trkpt>
      <trkpt lat="36.70455" lon="30.51973">
        <ele>384.2</ele>
      </trkpt>
      <trkpt lat="36.70462" lon="30.51962">
        <ele>389.4</ele>
      </trkpt>
      <trkpt lat="36.70496" lon="30.51925">
        <ele>406.7</ele>
      </trkpt>
      <trkpt lat="36.70535" lon="30.51926">
        <ele>414.8</ele>
      </trkpt>
      <trkpt lat="36.70565" lon="30.51911">
        <ele>428.4</ele>
      </trkpt>
      <trkpt lat="36.70607" lon="30.51912">
        <ele>435.7</ele>
      </trkpt>
      <trkpt lat="36.70656" lon="30.51916">
        <ele>441.5</ele>
      </trkpt>
      <trkpt lat="36.70701" lon="30.5195">
        <ele>437.5</ele>
      </trkpt>
      <trkpt lat="36.70742" lon="30.51952">
        <ele>442.4</ele>
      </trkpt>
      <trkpt lat="36.70785" lon="30.5192">
        <ele>454.8</ele>
      </trkpt>
      <trkpt lat="36.70814" lon="30.51927">
        <ele>456.6</ele>
      </trkpt>
      <trkpt lat="36.7083" lon="30.51939">
        <ele>456.9</ele>
      </trkpt>
      <trkpt lat="36.70839" lon="30.51951">
        <ele>455.9</ele>
      </trkpt>
      <trkpt lat="36.70835" lon="30.51971">
        <ele>453.5</ele>
      </trkpt>
      <trkpt lat="36.70845" lon="30.51994">
        <ele>450.6</ele>
      </trkpt>
      <trkpt lat="36.70876" lon="30.52011">
        <ele>448.7</ele>
      </trkpt>
      <trkpt lat="36.70912" lon="30.52001">
        <ele>449</ele>
      </trkpt>
      <trkpt lat="36.70933" lon="30.51982">
        <ele>453.5</ele>
      </trkpt>
      <trkpt lat="36.70944" lon="30.51959">
        <ele>459</ele>
      </trkpt>
      <trkpt lat="36.70956" lon="30.51954">
        <ele>462</ele>
      </trkpt>
      <trkpt lat="36.70964" lon="30.51939">
        <ele>466.5</ele>
      </trkpt>
      <trkpt lat="36.70966" lon="30.51908">
        <ele>473.7</ele>
      </trkpt>
      <trkpt lat="36.7097" lon="30.51896">
        <ele>477.6</ele>
      </trkpt>
      <trkpt lat="36.70979" lon="30.51897">
        <ele>479.5</ele>
      </trkpt>
      <trkpt lat="36.70995" lon="30.51918">
        <ele>478.4</ele>
      </trkpt>
      <trkpt lat="36.71008" lon="30.51916">
        <ele>483.3</ele>
      </trkpt>
      <trkpt lat="36.71014" lon="30.5191">
        <ele>486.9</ele>
      </trkpt>
      <trkpt lat="36.71016" lon="30.51889">
        <ele>492.6</ele>
      </trkpt>
      <trkpt lat="36.71012" lon="30.51878">
        <ele>494.1</ele>
      </trkpt>
      <trkpt lat="36.7102" lon="30.51857">
        <ele>502.1</ele>
      </trkpt>
      <trkpt lat="36.71015" lon="30.51822">
        <ele>508.1</ele>
      </trkpt>
      <trkpt lat="36.71035" lon="30.51817">
        <ele>516.8</ele>
      </trkpt>
      <trkpt lat="36.71048" lon="30.5181">
        <ele>522.6</ele>
      </trkpt>
      <trkpt lat="36.7104" lon="30.51782">
        <ele>523.4</ele>
      </trkpt>
      <trkpt lat="36.71042" lon="30.51763">
        <ele>526.9</ele>
      </trkpt>
      <trkpt lat="36.7105" lon="30.51745">
        <ele>531.7</ele>
      </trkpt>
      <trkpt lat="36.71083" lon="30.51732">
        <ele>543.4</ele>
      </trkpt>
      <trkpt lat="36.71093" lon="30.51738">
        <ele>547.2</ele>
      </trkpt>
      <trkpt lat="36.711" lon="30.51767">
        <ele>547.1</ele>
      </trkpt>
      <trkpt lat="36.71107" lon="30.51796">
        <ele>544.6</ele>
      </trkpt>
      <trkpt lat="36.71111" lon="30.51827">
        <ele>539.8</ele>
      </trkpt>
      <trkpt lat="36.71121" lon="30.51841">
        <ele>537.6</ele>
      </trkpt>
      <trkpt lat="36.71129" lon="30.5184">
        <ele>539.2</ele>
      </trkpt>
      <trkpt lat="36.71137" lon="30.51835">
        <ele>542.5</ele>
      </trkpt>
      <trkpt lat="36.71133" lon="30.51819">
        <ele>545.9</ele>
      </trkpt>
      <trkpt lat="36.71141" lon="30.51807">
        <ele>551.1</ele>
      </trkpt>
      <trkpt lat="36.71157" lon="30.51792">
        <ele>559.4</ele>
      </trkpt>
      <trkpt lat="36.71163" lon="30.51782">
        <ele>564.5</ele>
      </trkpt>
      <trkpt lat="36.71167" lon="30.51767">
        <ele>571</ele>
      </trkpt>
      <trkpt lat="36.71177" lon="30.51758">
        <ele>574.9</ele>
      </trkpt>
      <trkpt lat="36.71177" lon="30.51747">
        <ele>578.3</ele>
      </trkpt>
      <trkpt lat="36.71182" lon="30.51732">
        <ele>581</ele>
      </trkpt>
      <trkpt lat="36.71193" lon="30.51719">
        <ele>585.1</ele>
      </trkpt>
      <trkpt lat="36.71222" lon="30.51716">
        <ele>591.9</ele>
      </trkpt>
      <trkpt lat="36.71257" lon="30.51707">
        <ele>601.5</ele>
      </trkpt>
      <trkpt lat="36.71285" lon="30.51693">
        <ele>608.9</ele>
      </trkpt>
      <trkpt lat="36.71298" lon="30.51682">
        <ele>615.3</ele>
      </trkpt>
      <trkpt lat="36.71326" lon="30.51671">
        <ele>623.9</ele>
      </trkpt>
      <trkpt lat="36.71343" lon="30.51657">
        <ele>631</ele>
      </trkpt>
      <trkpt lat="36.71371" lon="30.51644">
        <ele>637</ele>
      </trkpt>
      <trkpt lat="36.71387" lon="30.51641">
        <ele>639.2</ele>
      </trkpt>
      <trkpt lat="36.71424" lon="30.51634">
        <ele>644.7</ele>
      </trkpt>
      <trkpt lat="36.71452" lon="30.51642">
        <ele>645.5</ele>
      </trkpt>
      <trkpt lat="36.71494" lon="30.51652">
        <ele>648.8</ele>
      </trkpt>
      <trkpt lat="36.71512" lon="30.5164">
        <ele>657.4</ele>
      </trkpt>
      <trkpt lat="36.71536" lon="30.51657">
        <ele>657.8</ele>
      </trkpt>
      <trkpt lat="36.71566" lon="30.51709">
        <ele>646.3</ele>
      </trkpt>
      <trkpt lat="36.71585" lon="30.51714">
        <ele>650</ele>
      </trkpt>
      <trkpt lat="36.71601" lon="30.51714">
        <ele>653.8</ele>
      </trkpt>
      <trkpt lat="36.71629" lon="30.51727">
        <ele>656.2</ele>
      </trkpt>
      <trkpt lat="36.71644" lon="30.51734">
        <ele>657.4</ele>
      </trkpt>
      <trkpt lat="36.71647" lon="30.51741">
        <ele>655.8</ele>
      </trkpt>
      <trkpt lat="36.71664" lon="30.5174">
        <ele>660.5</ele>
      </trkpt>
      <trkpt lat="36.71681" lon="30.5173">
        <ele>665.6</ele>
      </trkpt>
      <trkpt lat="36.71702" lon="30.51698">
        <ele>673.5</ele>
      </trkpt>
      <trkpt lat="36.7171" lon="30.51682">
        <ele>675.6</ele>
      </trkpt>
      <trkpt lat="36.71737" lon="30.5165">
        <ele>677.6</ele>
      </trkpt>
      <trkpt lat="36.71748" lon="30.51631">
        <ele>680.8</ele>
      </trkpt>
      <trkpt lat="36.71771" lon="30.51617">
        <ele>684.8</ele>
      </trkpt>
      <trkpt lat="36.7181" lon="30.51617">
        <ele>686.1</ele>
      </trkpt>
      <trkpt lat="36.71858" lon="30.51614">
        <ele>689.3</ele>
      </trkpt>
      <trkpt lat="36.71875" lon="30.51616">
        <ele>691</ele>
      </trkpt>
      <trkpt lat="36.71915" lon="30.51603">
        <ele>695.1</ele>
      </trkpt>
      <trkpt lat="36.71929" lon="30.51589">
        <ele>695.9</ele>
      </trkpt>
      <trkpt lat="36.71946" lon="30.51592">
        <ele>697.3</ele>
      </trkpt>
      <trkpt lat="36.71973" lon="30.51569">
        <ele>701.5</ele>
      </trkpt>
      <trkpt lat="36.71997" lon="30.51571">
        <ele>702.6</ele>
      </trkpt>
      <trkpt lat="36.72027" lon="30.51558">
        <ele>709.1</ele>
      </trkpt>
      <trkpt lat="36.72057" lon="30.51559">
        <ele>713</ele>
      </trkpt>
      <trkpt lat="36.72066" lon="30.5157">
        <ele>712.4</ele>
      </trkpt>
      <trkpt lat="36.7209" lon="30.51564">
        <ele>717</ele>
      </trkpt>
      <trkpt lat="36.72119" lon="30.5157">
        <ele>722</ele>
      </trkpt>
      <trkpt lat="36.72131" lon="30.51558">
        <ele>724.1</ele>
      </trkpt>
      <trkpt lat="36.72168" lon="30.51551">
        <ele>729</ele>
      </trkpt>
      <trkpt lat="36.72202" lon="30.5154">
        <ele>733.5</ele>
      </trkpt>
      <trkpt lat="36.72235" lon="30.51533">
        <ele>738.2</ele>
      </trkpt>
      <trkpt lat="36.72275" lon="30.51532">
        <ele>746.1</ele>
      </trkpt>
      <trkpt lat="36.7233" lon="30.51502">
        <ele>749.2</ele>
      </trkpt>
      <trkpt lat="36.72385" lon="30.51484">
        <ele>758.2</ele>
      </trkpt>
      <trkpt lat="36.72427" lon="30.51472">
        <ele>765.3</ele>
      </trkpt>
      <trkpt lat="36.72446" lon="30.51459">
        <ele>769.4</ele>
      </trkpt>
      <trkpt lat="36.7246" lon="30.51462">
        <ele>774.1</ele>
      </trkpt>
      <trkpt lat="36.72484" lon="30.51455">
        <ele>778.7</ele>
      </trkpt>
      <trkpt lat="36.72491" lon="30.51445">
        <ele>777.1</ele>
      </trkpt>
      <trkpt lat="36.72506" lon="30.51441">
        <ele>780.2</ele>
      </trkpt>
      <trkpt lat="36.72518" lon="30.51443">
        <ele>785.8</ele>
      </trkpt>
      <trkpt lat="36.72529" lon="30.51439">
        <ele>789</ele>
      </trkpt>
      <trkpt lat="36.72538" lon="30.51423">
        <ele>786</ele>
      </trkpt>
      <trkpt lat="36.72552" lon="30.51405">
        <ele>788.4</ele>
      </trkpt>
      <trkpt lat="36.72569" lon="30.51396">
        <ele>793.2</ele>
      </trkpt>
      <trkpt lat="36.72591" lon="30.51372">
        <ele>795.2</ele>
      </trkpt>
      <trkpt lat="36.72606" lon="30.51338">
        <ele>792</ele>
      </trkpt>
      <trkpt lat="36.72617" lon="30.51329">
        <ele>794.6</ele>
      </trkpt>
      <trkpt lat="36.72636" lon="30.51327">
        <ele>799.8</ele>
      </trkpt>
      <trkpt lat="36.72648" lon="30.51319">
        <ele>803.2</ele>
      </trkpt>
      <trkpt lat="36.7267" lon="30.51327">
        <ele>809</ele>
      </trkpt>
      <trkpt lat="36.72683" lon="30.51336">
        <ele>814.5</ele>
      </trkpt>
      <trkpt lat="36.72718" lon="30.51341">
        <ele>828.5</ele>
      </trkpt>
      <trkpt lat="36.72748" lon="30.51333">
        <ele>837.4</ele>
      </trkpt>
      <trkpt lat="36.72759" lon="30.51335">
        <ele>841.5</ele>
      </trkpt>
      <trkpt lat="36.7277" lon="30.51333">
        <ele>845</ele>
      </trkpt>
      <trkpt lat="36.72781" lon="30.51337">
        <ele>850</ele>
      </trkpt>
      <trkpt lat="36.72795" lon="30.51333">
        <ele>853.6</ele>
      </trkpt>
      <trkpt lat="36.72812" lon="30.51312">
        <ele>856.2</ele>
      </trkpt>
      <trkpt lat="36.72819" lon="30.51305">
        <ele>857.3</ele>
      </trkpt>
      <trkpt lat="36.72821" lon="30.51283">
        <ele>854.6</ele>
      </trkpt>
      <trkpt lat="36.72829" lon="30.51282">
        <ele>857</ele>
      </trkpt>
      <trkpt lat="36.72836" lon="30.51292">
        <ele>860.9</ele>
      </trkpt>
      <trkpt lat="36.72847" lon="30.51287">
        <ele>863.9</ele>
      </trkpt>
      <trkpt lat="36.72856" lon="30.51271">
        <ele>864.5</ele>
      </trkpt>
      <trkpt lat="36.72865" lon="30.51261">
        <ele>866</ele>
      </trkpt>
      <trkpt lat="36.72882" lon="30.51263">
        <ele>872.2</ele>
      </trkpt>
      <trkpt lat="36.72886" lon="30.51274">
        <ele>875.5</ele>
      </trkpt>
      <trkpt lat="36.72899" lon="30.51286">
        <ele>881.8</ele>
      </trkpt>
      <trkpt lat="36.72909" lon="30.51287">
        <ele>885.1</ele>
      </trkpt>
      <trkpt lat="36.72926" lon="30.51254">
        <ele>887.1</ele>
      </trkpt>
      <trkpt lat="36.72942" lon="30.51247">
        <ele>893.1</ele>
      </trkpt>
      <trkpt lat="36.72951" lon="30.51216">
        <ele>899.6</ele>
      </trkpt>
      <trkpt lat="36.72956" lon="30.51209">
        <ele>901.7</ele>
      </trkpt>
      <trkpt lat="36.72971" lon="30.51214">
        <ele>906</ele>
      </trkpt>
      <trkpt lat="36.72981" lon="30.51204">
        <ele>909.3</ele>
      </trkpt>
      <trkpt lat="36.72998" lon="30.51194">
        <ele>914.3</ele>
      </trkpt>
      <trkpt lat="36.73002" lon="30.51208">
        <ele>915.9</ele>
      </trkpt>
      <trkpt lat="36.73017" lon="30.51206">
        <ele>921.4</ele>
      </trkpt>
      <trkpt lat="36.73029" lon="30.51203">
        <ele>926.2</ele>
      </trkpt>
      <trkpt lat="36.73033" lon="30.51196">
        <ele>927.4</ele>
      </trkpt>
      <trkpt lat="36.73043" lon="30.51194">
        <ele>931.4</ele>
      </trkpt>
      <trkpt lat="36.73061" lon="30.51182">
        <ele>937.8</ele>
      </trkpt>
      <trkpt lat="36.73081" lon="30.51183">
        <ele>944.9</ele>
      </trkpt>
      <trkpt lat="36.7309" lon="30.51173">
        <ele>947.8</ele>
      </trkpt>
      <trkpt lat="36.73091" lon="30.51148">
        <ele>949.5</ele>
      </trkpt>
      <trkpt lat="36.73102" lon="30.51126">
        <ele>954.9</ele>
      </trkpt>
      <trkpt lat="36.73104" lon="30.51109">
        <ele>956.9</ele>
      </trkpt>
      <trkpt lat="36.73108" lon="30.51098">
        <ele>959.1</ele>
      </trkpt>
      <trkpt lat="36.73119" lon="30.51091">
        <ele>962.6</ele>
      </trkpt>
      <trkpt lat="36.73133" lon="30.51095">
        <ele>966</ele>
      </trkpt>
      <trkpt lat="36.73146" lon="30.51081">
        <ele>969.9</ele>
      </trkpt>
      <trkpt lat="36.73153" lon="30.51059">
        <ele>972.9</ele>
      </trkpt>
      <trkpt lat="36.73157" lon="30.51046">
        <ele>974.3</ele>
      </trkpt>
      <trkpt lat="36.73169" lon="30.51036">
        <ele>976.7</ele>
      </trkpt>
      <trkpt lat="36.73175" lon="30.51018">
        <ele>978.3</ele>
      </trkpt>
      <trkpt lat="36.73195" lon="30.51012">
        <ele>982.6</ele>
      </trkpt>
      <trkpt lat="36.73203" lon="30.51014">
        <ele>984.2</ele>
      </trkpt>
      <trkpt lat="36.73209" lon="30.51006">
        <ele>985.3</ele>
      </trkpt>
      <trkpt lat="36.73222" lon="30.5101">
        <ele>988</ele>
      </trkpt>
      <trkpt lat="36.73241" lon="30.51019">
        <ele>992.5</ele>
      </trkpt>
      <trkpt lat="36.73273" lon="30.5102">
        <ele>998.2</ele>
      </trkpt>
      <trkpt lat="36.7333" lon="30.51016">
        <ele>1007</ele>
      </trkpt>
      <trkpt lat="36.73342" lon="30.51013">
        <ele>1009</ele>
      </trkpt>
      <trkpt lat="36.73353" lon="30.51007">
        <ele>1010.2</ele>
      </trkpt>
      <trkpt lat="36.7336" lon="30.51002">
        <ele>1010.7</ele>
      </trkpt>
      <trkpt lat="36.73367" lon="30.51005">
        <ele>1012.8</ele>
      </trkpt>
      <trkpt lat="36.73378" lon="30.5103">
        <ele>1020.7</ele>
      </trkpt>
      <trkpt lat="36.73385" lon="30.51033">
        <ele>1023.1</ele>
      </trkpt>
      <trkpt lat="36.73405" lon="30.51023">
        <ele>1025.3</ele>
      </trkpt>
      <trkpt lat="36.73453" lon="30.5101">
        <ele>1034.8</ele>
      </trkpt>
      <trkpt lat="36.73475" lon="30.50997">
        <ele>1038</ele>
      </trkpt>
      <trkpt lat="36.73506" lon="30.50983">
        <ele>1045.2</ele>
      </trkpt>
      <trkpt lat="36.73535" lon="30.50956">
        <ele>1047.8</ele>
      </trkpt>
      <trkpt lat="36.73552" lon="30.50932">
        <ele>1047.2</ele>
      </trkpt>
      <trkpt lat="36.7356" lon="30.50925">
        <ele>1047.1</ele>
      </trkpt>
      <trkpt lat="36.73564" lon="30.50915">
        <ele>1046.7</ele>
      </trkpt>
      <trkpt lat="36.7357" lon="30.50906">
        <ele>1049.2</ele>
      </trkpt>
      <trkpt lat="36.73578" lon="30.50899">
        <ele>1051.4</ele>
      </trkpt>
      <trkpt lat="36.73583" lon="30.50885">
        <ele>1054.9</ele>
      </trkpt>
      <trkpt lat="36.73593" lon="30.50865">
        <ele>1058.4</ele>
      </trkpt>
      <trkpt lat="36.73611" lon="30.5086">
        <ele>1058.2</ele>
      </trkpt>
      <trkpt lat="36.73624" lon="30.50849">
        <ele>1059.7</ele>
      </trkpt>
      <trkpt lat="36.73661" lon="30.50851">
        <ele>1056.3</ele>
      </trkpt>
      <trkpt lat="36.73688" lon="30.50841">
        <ele>1057.2</ele>
      </trkpt>
      <trkpt lat="36.73709" lon="30.50842">
        <ele>1055.7</ele>
      </trkpt>
      <trkpt lat="36.73715" lon="30.50839">
        <ele>1056.3</ele>
      </trkpt>
      <trkpt lat="36.73738" lon="30.50839">
        <ele>1055.1</ele>
      </trkpt>
      <trkpt lat="36.7375" lon="30.50828">
        <ele>1057.9</ele>
      </trkpt>
      <trkpt lat="36.7376" lon="30.50822">
        <ele>1059.8</ele>
      </trkpt>
      <trkpt lat="36.73769" lon="30.50825">
        <ele>1058.3</ele>
      </trkpt>
      <trkpt lat="36.7379" lon="30.5084">
        <ele>1052.1</ele>
      </trkpt>
      <trkpt lat="36.73835" lon="30.50831">
        <ele>1052.8</ele>
      </trkpt>
      <trkpt lat="36.73851" lon="30.50817">
        <ele>1056.3</ele>
      </trkpt>
      <trkpt lat="36.73871" lon="30.50805">
        <ele>1058.4</ele>
      </trkpt>
      <trkpt lat="36.7391" lon="30.50803">
        <ele>1055.7</ele>
      </trkpt>
      <trkpt lat="36.7393" lon="30.50796">
        <ele>1056.2</ele>
      </trkpt>
      <trkpt lat="36.73944" lon="30.50783">
        <ele>1059.1</ele>
      </trkpt>
      <trkpt lat="36.73953" lon="30.50779">
        <ele>1059.4</ele>
      </trkpt>
      <trkpt lat="36.73958" lon="30.50782">
        <ele>1058.4</ele>
      </trkpt>
      <trkpt lat="36.73963" lon="30.50788">
        <ele>1056.7</ele>
      </trkpt>
      <trkpt lat="36.73983" lon="30.50797">
        <ele>1053.6</ele>
      </trkpt>
      <trkpt lat="36.74002" lon="30.5081">
        <ele>1049.4</ele>
      </trkpt>
      <trkpt lat="36.74017" lon="30.50794">
        <ele>1050.9</ele>
      </trkpt>
      <trkpt lat="36.74024" lon="30.50783">
        <ele>1052.4</ele>
      </trkpt>
      <trkpt lat="36.74037" lon="30.50772">
        <ele>1052.9</ele>
      </trkpt>
      <trkpt lat="36.74087" lon="30.50684">
        <ele>1062.4</ele>
      </trkpt>
      <trkpt lat="36.74093" lon="30.50682">
        <ele>1060.8</ele>
      </trkpt>
      <trkpt lat="36.74105" lon="30.50665">
        <ele>1060.3</ele>
      </trkpt>
      <trkpt lat="36.74111" lon="30.5064">
        <ele>1062.3</ele>
      </trkpt>
      <trkpt lat="36.74123" lon="30.50631">
        <ele>1059.4</ele>
      </trkpt>
      <trkpt lat="36.74122" lon="30.50613">
        <ele>1062.3</ele>
      </trkpt>
      <trkpt lat="36.74151" lon="30.50551">
        <ele>1061.3</ele>
      </trkpt>
      <trkpt lat="36.74156" lon="30.50532">
        <ele>1063.6</ele>
      </trkpt>
      <trkpt lat="36.74168" lon="30.50523">
        <ele>1061.3</ele>
      </trkpt>
      <trkpt lat="36.742" lon="30.50461">
        <ele>1065.7</ele>
      </trkpt>
      <trkpt lat="36.74207" lon="30.50446">
        <ele>1066.4</ele>
      </trkpt>
      <trkpt lat="36.74215" lon="30.50446">
        <ele>1064.3</ele>
      </trkpt>
      <trkpt lat="36.74228" lon="30.50448">
        <ele>1060.1</ele>
      </trkpt>
      <trkpt lat="36.74239" lon="30.50425">
        <ele>1060.7</ele>
      </trkpt>
      <trkpt lat="36.74274" lon="30.50358">
        <ele>1076.2</ele>
      </trkpt>
      <trkpt lat="36.74317" lon="30.50329">
        <ele>1076</ele>
      </trkpt>
      <trkpt lat="36.74339" lon="30.50332">
        <ele>1068.1</ele>
      </trkpt>
      <trkpt lat="36.74348" lon="30.50329">
        <ele>1067</ele>
      </trkpt>
      <trkpt lat="36.74354" lon="30.50317">
        <ele>1071.5</ele>
      </trkpt>
      <trkpt lat="36.74354" lon="30.50312">
        <ele>1074.4</ele>
      </trkpt>
      <trkpt lat="36.74347" lon="30.50311">
        <ele>1076.7</ele>
      </trkpt>
      <trkpt lat="36.74346" lon="30.50305">
        <ele>1080.1</ele>
      </trkpt>
      <trkpt lat="36.74351" lon="30.50299">
        <ele>1081.9</ele>
      </trkpt>
      <trkpt lat="36.74363" lon="30.50285">
        <ele>1085.9</ele>
      </trkpt>
      <trkpt lat="36.74396" lon="30.5026">
        <ele>1091.2</ele>
      </trkpt>
      <trkpt lat="36.74398" lon="30.50248">
        <ele>1097</ele>
      </trkpt>
      <trkpt lat="36.74408" lon="30.50236">
        <ele>1100</ele>
      </trkpt>
      <trkpt lat="36.74409" lon="30.50231">
        <ele>1101.9</ele>
      </trkpt>
      <trkpt lat="36.74407" lon="30.50223">
        <ele>1105.7</ele>
      </trkpt>
      <trkpt lat="36.74407" lon="30.50219">
        <ele>1107.3</ele>
      </trkpt>
      <trkpt lat="36.74402" lon="30.50208">
        <ele>1113.1</ele>
      </trkpt>
      <trkpt lat="36.74392" lon="30.50213">
        <ele>1113.3</ele>
      </trkpt>
      <trkpt lat="36.74389" lon="30.50212">
        <ele>1114.8</ele>
      </trkpt>
      <trkpt lat="36.74388" lon="30.5021">
        <ele>1116</ele>
      </trkpt>
      <trkpt lat="36.74396" lon="30.50194">
        <ele>1120.9</ele>
      </trkpt>
      <trkpt lat="36.74398" lon="30.50181">
        <ele>1125.7</ele>
      </trkpt>
      <trkpt lat="36.74406" lon="30.50174">
        <ele>1127</ele>
      </trkpt>
      <trkpt lat="36.74404" lon="30.50169">
        <ele>1129.5</ele>
      </trkpt>
      <trkpt lat="36.74399" lon="30.50161">
        <ele>1134.8</ele>
      </trkpt>
      <trkpt lat="36.74398" lon="30.50149">
        <ele>1141</ele>
      </trkpt>
      <trkpt lat="36.74412" lon="30.50133">
        <ele>1144.8</ele>
      </trkpt>
      <trkpt lat="36.74405" lon="30.50124">
        <ele>1152</ele>
      </trkpt>
      <trkpt lat="36.74413" lon="30.50105">
        <ele>1158.9</ele>
      </trkpt>
      <trkpt lat="36.74428" lon="30.50089">
        <ele>1165.7</ele>
      </trkpt>
      <trkpt lat="36.74435" lon="30.50072">
        <ele>1176.2</ele>
      </trkpt>
      <trkpt lat="36.74437" lon="30.50055">
        <ele>1187.2</ele>
      </trkpt>
      <trkpt lat="36.74442" lon="30.50046">
        <ele>1193.7</ele>
      </trkpt>
      <trkpt lat="36.74441" lon="30.50041">
        <ele>1196.7</ele>
      </trkpt>
      <trkpt lat="36.74428" lon="30.50032">
        <ele>1199.7</ele>
      </trkpt>
      <trkpt lat="36.74415" lon="30.50035">
        <ele>1196.6</ele>
      </trkpt>
      <trkpt lat="36.74409" lon="30.50024">
        <ele>1205.1</ele>
      </trkpt>
      <trkpt lat="36.74412" lon="30.50013">
        <ele>1210.7</ele>
      </trkpt>
      <trkpt lat="36.74415" lon="30.50011">
        <ele>1210.6</ele>
      </trkpt>
      <trkpt lat="36.74423" lon="30.50009">
        <ele>1212.5</ele>
      </trkpt>
      <trkpt lat="36.74425" lon="30.50004">
        <ele>1215.7</ele>
      </trkpt>
      <trkpt lat="36.74419" lon="30.49998">
        <ele>1217.4</ele>
      </trkpt>
      <trkpt lat="36.74421" lon="30.49992">
        <ele>1220.7</ele>
      </trkpt>
      <trkpt lat="36.74428" lon="30.49987">
        <ele>1225.2</ele>
      </trkpt>
      <trkpt lat="36.74436" lon="30.49984">
        <ele>1228.8</ele>
      </trkpt>
      <trkpt lat="36.74432" lon="30.49977">
        <ele>1230.8</ele>
      </trkpt>
      <trkpt lat="36.74412" lon="30.49969">
        <ele>1231.4</ele>
      </trkpt>
      <trkpt lat="36.74394" lon="30.49963">
        <ele>1240.2</ele>
      </trkpt>
      <trkpt lat="36.74377" lon="30.49962">
        <ele>1246.1</ele>
      </trkpt>
      <trkpt lat="36.74386" lon="30.49941">
        <ele>1250.9</ele>
      </trkpt>
      <trkpt lat="36.74394" lon="30.49933">
        <ele>1251.6</ele>
      </trkpt>
      <trkpt lat="36.74407" lon="30.49933">
        <ele>1248.4</ele>
      </trkpt>
      <trkpt lat="36.74417" lon="30.4993">
        <ele>1247.1</ele>
      </trkpt>
      <trkpt lat="36.74426" lon="30.49924">
        <ele>1253</ele>
      </trkpt>
      <trkpt lat="36.74434" lon="30.49912">
        <ele>1261.8</ele>
      </trkpt>
      <trkpt lat="36.74428" lon="30.49899">
        <ele>1267.5</ele>
      </trkpt>
      <trkpt lat="36.74427" lon="30.49887">
        <ele>1275</ele>
      </trkpt>
      <trkpt lat="36.74425" lon="30.49881">
        <ele>1278</ele>
      </trkpt>
      <trkpt lat="36.74409" lon="30.49878">
        <ele>1278.9</ele>
      </trkpt>
      <trkpt lat="36.74407" lon="30.49874">
        <ele>1281.2</ele>
      </trkpt>
      <trkpt lat="36.74411" lon="30.49869">
        <ele>1284.2</ele>
      </trkpt>
      <trkpt lat="36.74411" lon="30.4986">
        <ele>1289.6</ele>
      </trkpt>
      <trkpt lat="36.74404" lon="30.49856">
        <ele>1292.7</ele>
      </trkpt>
      <trkpt lat="36.74399" lon="30.49847">
        <ele>1298.6</ele>
      </trkpt>
      <trkpt lat="36.74405" lon="30.49841">
        <ele>1301.8</ele>
      </trkpt>
      <trkpt lat="36.74402" lon="30.49836">
        <ele>1305</ele>
      </trkpt>
      <trkpt lat="36.74382" lon="30.49835">
        <ele>1306.8</ele>
      </trkpt>
      <trkpt lat="36.7438" lon="30.49831">
        <ele>1309.2</ele>
      </trkpt>
      <trkpt lat="36.74383" lon="30.4982">
        <ele>1315.3</ele>
      </trkpt>
      <trkpt lat="36.74383" lon="30.49802">
        <ele>1325.5</ele>
      </trkpt>
      <trkpt lat="36.74387" lon="30.49797">
        <ele>1327.6</ele>
      </trkpt>
      <trkpt lat="36.74386" lon="30.49789">
        <ele>1332.1</ele>
      </trkpt>
      <trkpt lat="36.74388" lon="30.49782">
        <ele>1335.7</ele>
      </trkpt>
      <trkpt lat="36.74395" lon="30.49781">
        <ele>1335.9</ele>
      </trkpt>
      <trkpt lat="36.74404" lon="30.49783">
        <ele>1333.5</ele>
      </trkpt>
      <trkpt lat="36.74409" lon="30.49781">
        <ele>1333.9</ele>
      </trkpt>
      <trkpt lat="36.74411" lon="30.49779">
        <ele>1335.1</ele>
      </trkpt>
      <trkpt lat="36.74408" lon="30.49775">
        <ele>1337.5</ele>
      </trkpt>
      <trkpt lat="36.74393" lon="30.49766">
        <ele>1344.1</ele>
      </trkpt>
      <trkpt lat="36.74372" lon="30.4976">
        <ele>1350.8</ele>
      </trkpt>
      <trkpt lat="36.74363" lon="30.49765">
        <ele>1349.5</ele>
      </trkpt>
      <trkpt lat="36.74362" lon="30.49763">
        <ele>1350.7</ele>
      </trkpt>
      <trkpt lat="36.74372" lon="30.49742">
        <ele>1359.3</ele>
      </trkpt>
      <trkpt lat="36.74387" lon="30.49734">
        <ele>1358.9</ele>
      </trkpt>
      <trkpt lat="36.74401" lon="30.49728">
        <ele>1357.2</ele>
      </trkpt>
      <trkpt lat="36.74415" lon="30.49728">
        <ele>1353.6</ele>
      </trkpt>
      <trkpt lat="36.74417" lon="30.49725">
        <ele>1353.9</ele>
      </trkpt>
      <trkpt lat="36.74415" lon="30.4972">
        <ele>1355.4</ele>
      </trkpt>
      <trkpt lat="36.74417" lon="30.49718">
        <ele>1354.9</ele>
      </trkpt>
      <trkpt lat="36.74425" lon="30.49722">
        <ele>1350.3</ele>
      </trkpt>
      <trkpt lat="36.74429" lon="30.49716">
        <ele>1349.3</ele>
      </trkpt>
      <trkpt lat="36.74443" lon="30.49702">
        <ele>1343.6</ele>
      </trkpt>
      <trkpt lat="36.74442" lon="30.49683">
        <ele>1345.4</ele>
      </trkpt>
      <trkpt lat="36.74446" lon="30.49659">
        <ele>1341.9</ele>
      </trkpt>
      <trkpt lat="36.74445" lon="30.49638">
        <ele>1339.1</ele>
      </trkpt>
      <trkpt lat="36.74423" lon="30.49592">
        <ele>1347.2</ele>
      </trkpt>
      <trkpt lat="36.74429" lon="30.49566">
        <ele>1336.9</ele>
      </trkpt>
      <trkpt lat="36.74435" lon="30.49562">
        <ele>1331.6</ele>
      </trkpt>
      <trkpt lat="36.74438" lon="30.49548">
        <ele>1326.3</ele>
      </trkpt>
      <trkpt lat="36.7442" lon="30.49531">
        <ele>1335</ele>
      </trkpt>
      <trkpt lat="36.74399" lon="30.49519">
        <ele>1346.4</ele>
      </trkpt>
      <trkpt lat="36.74388" lon="30.49507">
        <ele>1350.5</ele>
      </trkpt>
      <trkpt lat="36.74373" lon="30.49485">
        <ele>1354.6</ele>
      </trkpt>
      <trkpt lat="36.74355" lon="30.4947">
        <ele>1362.5</ele>
      </trkpt>
      <trkpt lat="36.74338" lon="30.49428">
        <ele>1360.3</ele>
      </trkpt>
      <trkpt lat="36.74321" lon="30.49411">
        <ele>1369.3</ele>
      </trkpt>
      <trkpt lat="36.74313" lon="30.49382">
        <ele>1374.9</ele>
      </trkpt>
      <trkpt lat="36.74307" lon="30.4937">
        <ele>1378.8</ele>
      </trkpt>
      <trkpt lat="36.74307" lon="30.4936">
        <ele>1378.7</ele>
      </trkpt>
      <trkpt lat="36.74313" lon="30.49342">
        <ele>1374.6</ele>
      </trkpt>
      <trkpt lat="36.74314" lon="30.4931">
        <ele>1375.3</ele>
      </trkpt>
      <trkpt lat="36.74329" lon="30.49277">
        <ele>1371.1</ele>
      </trkpt>
      <trkpt lat="36.74324" lon="30.49253">
        <ele>1375</ele>
      </trkpt>
      <trkpt lat="36.74303" lon="30.49236">
        <ele>1383.5</ele>
      </trkpt>
      <trkpt lat="36.74288" lon="30.49214">
        <ele>1389.4</ele>
      </trkpt>
      <trkpt lat="36.74286" lon="30.4918">
        <ele>1391.3</ele>
      </trkpt>
      <trkpt lat="36.74299" lon="30.49147">
        <ele>1388.2</ele>
      </trkpt>
      <trkpt lat="36.74299" lon="30.49117">
        <ele>1388.4</ele>
      </trkpt>
      <trkpt lat="36.74285" lon="30.4907">
        <ele>1392.2</ele>
      </trkpt>
      <trkpt lat="36.74268" lon="30.49052">
        <ele>1396.1</ele>
      </trkpt>
      <trkpt lat="36.74262" lon="30.4903">
        <ele>1395.5</ele>
      </trkpt>
      <trkpt lat="36.74256" lon="30.49003">
        <ele>1394.8</ele>
      </trkpt>
      <trkpt lat="36.74246" lon="30.4898">
        <ele>1396.9</ele>
      </trkpt>
      <trkpt lat="36.74247" lon="30.48933">
        <ele>1391.2</ele>
      </trkpt>
      <trkpt lat="36.7425" lon="30.48906">
        <ele>1390.4</ele>
      </trkpt>
      <trkpt lat="36.74241" lon="30.48899">
        <ele>1395.8</ele>
      </trkpt>
      <trkpt lat="36.74232" lon="30.48898">
        <ele>1400.3</ele>
      </trkpt>
      <trkpt lat="36.7423" lon="30.48892">
        <ele>1402</ele>
      </trkpt>
      <trkpt lat="36.74231" lon="30.48877">
        <ele>1403.8</ele>
      </trkpt>
      <trkpt lat="36.74244" lon="30.48855">
        <ele>1402.8</ele>
      </trkpt>
      <trkpt lat="36.74253" lon="30.48853">
        <ele>1400.3</ele>
      </trkpt>
      <trkpt lat="36.74271" lon="30.4885">
        <ele>1397.4</ele>
      </trkpt>
      <trkpt lat="36.74287" lon="30.48833">
        <ele>1398</ele>
      </trkpt>
      <trkpt lat="36.74287" lon="30.48813">
        <ele>1402.6</ele>
      </trkpt>
      <trkpt lat="36.74297" lon="30.48787">
        <ele>1407.3</ele>
      </trkpt>
      <trkpt lat="36.74316" lon="30.48767">
        <ele>1409.4</ele>
      </trkpt>
      <trkpt lat="36.74337" lon="30.48738">
        <ele>1411.7</ele>
      </trkpt>
      <trkpt lat="36.74343" lon="30.48718">
        <ele>1413.3</ele>
      </trkpt>
      <trkpt lat="36.7435" lon="30.48671">
        <ele>1418.2</ele>
      </trkpt>
      <trkpt lat="36.74348" lon="30.4864">
        <ele>1423.4</ele>
      </trkpt>
      <trkpt lat="36.74344" lon="30.48621">
        <ele>1426.7</ele>
      </trkpt>
      <trkpt lat="36.74347" lon="30.48613">
        <ele>1427.8</ele>
      </trkpt>
      <trkpt lat="36.74359" lon="30.48605">
        <ele>1428</ele>
      </trkpt>
      <trkpt lat="36.7439" lon="30.48549">
        <ele>1436.2</ele>
      </trkpt>
      <trkpt lat="36.744" lon="30.48518">
        <ele>1441.1</ele>
      </trkpt>
      <trkpt lat="36.74405" lon="30.48503">
        <ele>1443.2</ele>
      </trkpt>
      <trkpt lat="36.74404" lon="30.48471">
        <ele>1451.8</ele>
      </trkpt>
      <trkpt lat="36.74405" lon="30.48451">
        <ele>1456.8</ele>
      </trkpt>
      <trkpt lat="36.74401" lon="30.48431">
        <ele>1463.1</ele>
      </trkpt>
      <trkpt lat="36.74388" lon="30.48428">
        <ele>1467.6</ele>
      </trkpt>
      <trkpt lat="36.74395" lon="30.48404">
        <ele>1472.8</ele>
      </trkpt>
      <trkpt lat="36.74393" lon="30.48395">
        <ele>1476</ele>
      </trkpt>
      <trkpt lat="36.74397" lon="30.48382">
        <ele>1479.4</ele>
      </trkpt>
      <trkpt lat="36.74402" lon="30.48368">
        <ele>1482.6</ele>
      </trkpt>
      <trkpt lat="36.74413" lon="30.48366">
        <ele>1480.9</ele>
      </trkpt>
      <trkpt lat="36.74429" lon="30.48366">
        <ele>1481.4</ele>
      </trkpt>
      <trkpt lat="36.74451" lon="30.48377">
        <ele>1479.9</ele>
      </trkpt>
      <trkpt lat="36.74468" lon="30.48393">
        <ele>1475.7</ele>
      </trkpt>
      <trkpt lat="36.7449" lon="30.484">
        <ele>1474.7</ele>
      </trkpt>
      <trkpt lat="36.74501" lon="30.48411">
        <ele>1471.4</ele>
      </trkpt>
      <trkpt lat="36.74515" lon="30.48417">
        <ele>1471.2</ele>
      </trkpt>
      <trkpt lat="36.74541" lon="30.48413">
        <ele>1475.8</ele>
      </trkpt>
      <trkpt lat="36.74555" lon="30.48419">
        <ele>1476.4</ele>
      </trkpt>
      <trkpt lat="36.74587" lon="30.48409">
        <ele>1482.2</ele>
      </trkpt>
      <trkpt lat="36.74601" lon="30.48403">
        <ele>1483.7</ele>
      </trkpt>
      <trkpt lat="36.74635" lon="30.4838">
        <ele>1484.5</ele>
      </trkpt>
      <trkpt lat="36.74601" lon="30.48403">
        <ele>1483.7</ele>
      </trkpt>
      <trkpt lat="36.74601" lon="30.48403">
        <ele>1483.7</ele>
      </trkpt>
      <trkpt lat="36.74611" lon="30.48452">
        <ele>1482.5</ele>
      </trkpt>
      <trkpt lat="36.74612" lon="30.48482">
        <ele>1481.4</ele>
      </trkpt>
      <trkpt lat="36.74651" lon="30.48537">
        <ele>1485.6</ele>
      </trkpt>
      <trkpt lat="36.74663" lon="30.48576">
        <ele>1477.6</ele>
      </trkpt>
      <trkpt lat="36.74753" lon="30.48663">
        <ele>1472.4</ele>
      </trkpt>
      <trkpt lat="36.74774" lon="30.48664">
        <ele>1470.5</ele>
      </trkpt>
      <trkpt lat="36.74826" lon="30.48643">
        <ele>1475.6</ele>
      </trkpt>
      <trkpt lat="36.74903" lon="30.48635">
        <ele>1467.5</ele>
      </trkpt>
      <trkpt lat="36.74955" lon="30.48665">
        <ele>1453.9</ele>
      </trkpt>
      <trkpt lat="36.74965" lon="30.48675">
        <ele>1451</ele>
      </trkpt>
      <trkpt lat="36.74974" lon="30.4869">
        <ele>1448</ele>
      </trkpt>
      <trkpt lat="36.74984" lon="30.48699">
        <ele>1446.5</ele>
      </trkpt>
      <trkpt lat="36.75028" lon="30.48725">
        <ele>1437</ele>
      </trkpt>
      <trkpt lat="36.75061" lon="30.48773">
        <ele>1428.3</ele>
      </trkpt>
      <trkpt lat="36.75073" lon="30.48822">
        <ele>1424.1</ele>
      </trkpt>
      <trkpt lat="36.75082" lon="30.48838">
        <ele>1422.6</ele>
      </trkpt>
      <trkpt lat="36.75105" lon="30.48853">
        <ele>1414.7</ele>
      </trkpt>
      <trkpt lat="36.75116" lon="30.48855">
        <ele>1412.7</ele>
      </trkpt>
      <trkpt lat="36.75156" lon="30.48855">
        <ele>1406.7</ele>
      </trkpt>
      <trkpt lat="36.75166" lon="30.48859">
        <ele>1405.3</ele>
      </trkpt>
      <trkpt lat="36.75179" lon="30.48869">
        <ele>1403.9</ele>
      </trkpt>
      <trkpt lat="36.75188" lon="30.48869">
        <ele>1402.6</ele>
      </trkpt>
      <trkpt lat="36.75203" lon="30.48866">
        <ele>1399.6</ele>
      </trkpt>
      <trkpt lat="36.7521" lon="30.48871">
        <ele>1399.5</ele>
      </trkpt>
      <trkpt lat="36.75238" lon="30.48915">
        <ele>1410</ele>
      </trkpt>
      <trkpt lat="36.75239" lon="30.48926">
        <ele>1409.5</ele>
      </trkpt>
      <trkpt lat="36.75237" lon="30.48933">
        <ele>1408.5</ele>
      </trkpt>
      <trkpt lat="36.75237" lon="30.48938">
        <ele>1407.7</ele>
      </trkpt>
      <trkpt lat="36.7524" lon="30.48941">
        <ele>1407.7</ele>
      </trkpt>
      <trkpt lat="36.75251" lon="30.48941">
        <ele>1408.6</ele>
      </trkpt>
      <trkpt lat="36.75258" lon="30.48945">
        <ele>1408.3</ele>
      </trkpt>
      <trkpt lat="36.75292" lon="30.48967">
        <ele>1408.7</ele>
      </trkpt>
      <trkpt lat="36.75307" lon="30.48971">
        <ele>1409.9</ele>
      </trkpt>
      <trkpt lat="36.75344" lon="30.48973">
        <ele>1412.4</ele>
      </trkpt>
      <trkpt lat="36.75376" lon="30.48984">
        <ele>1415.8</ele>
      </trkpt>
      <trkpt lat="36.75387" lon="30.48982">
        <ele>1416</ele>
      </trkpt>
      <trkpt lat="36.75412" lon="30.4897">
        <ele>1413.5</ele>
      </trkpt>
      <trkpt lat="36.75424" lon="30.48971">
        <ele>1413.3</ele>
      </trkpt>
      <trkpt lat="36.75441" lon="30.48991">
        <ele>1419.3</ele>
      </trkpt>
      <trkpt lat="36.75449" lon="30.48997">
        <ele>1421.1</ele>
      </trkpt>
      <trkpt lat="36.75467" lon="30.49004">
        <ele>1421.5</ele>
      </trkpt>
      <trkpt lat="36.75478" lon="30.49016">
        <ele>1421.1</ele>
      </trkpt>
      <trkpt lat="36.75487" lon="30.49024">
        <ele>1421.4</ele>
      </trkpt>
      <trkpt lat="36.75522" lon="30.49041">
        <ele>1422.6</ele>
      </trkpt>
      <trkpt lat="36.75554" lon="30.4905">
        <ele>1425.1</ele>
      </trkpt>
      <trkpt lat="36.75592" lon="30.4904">
        <ele>1419.1</ele>
      </trkpt>
      <trkpt lat="36.75607" lon="30.49045">
        <ele>1418.4</ele>
      </trkpt>
      <trkpt lat="36.75651" lon="30.49069">
        <ele>1419.5</ele>
      </trkpt>
      <trkpt lat="36.75658" lon="30.49077">
        <ele>1421.4</ele>
      </trkpt>
      <trkpt lat="36.75665" lon="30.49094">
        <ele>1428.3</ele>
      </trkpt>
      <trkpt lat="36.75672" lon="30.49099">
        <ele>1428.9</ele>
      </trkpt>
      <trkpt lat="36.75759" lon="30.49135">
        <ele>1416.7</ele>
      </trkpt>
      <trkpt lat="36.75826" lon="30.4917">
        <ele>1414.1</ele>
      </trkpt>
      <trkpt lat="36.75907" lon="30.49222">
        <ele>1409.8</ele>
      </trkpt>
      <trkpt lat="36.75948" lon="30.49244">
        <ele>1411.5</ele>
      </trkpt>
      <trkpt lat="36.75961" lon="30.49245">
        <ele>1410.2</ele>
      </trkpt>
      <trkpt lat="36.7606" lon="30.49232">
        <ele>1397.1</ele>
      </trkpt>
      <trkpt lat="36.76073" lon="30.49233">
        <ele>1397.9</ele>
      </trkpt>
      <trkpt lat="36.76115" lon="30.49253">
        <ele>1407.3</ele>
      </trkpt>
      <trkpt lat="36.76129" lon="30.49255">
        <ele>1408.1</ele>
      </trkpt>
      <trkpt lat="36.76207" lon="30.49255">
        <ele>1405.7</ele>
      </trkpt>
      <trkpt lat="36.76286" lon="30.49244">
        <ele>1396.6</ele>
      </trkpt>
      <trkpt lat="36.76307" lon="30.49242">
        <ele>1393.9</ele>
      </trkpt>
      <trkpt lat="36.76352" lon="30.49305">
        <ele>1400.1</ele>
      </trkpt>
      <trkpt lat="36.76416" lon="30.49359">
        <ele>1394.5</ele>
      </trkpt>
      <trkpt lat="36.76643" lon="30.49748">
        <ele>1377.8</ele>
      </trkpt>
      <trkpt lat="36.76649" lon="30.49785">
        <ele>1382.9</ele>
      </trkpt>
      <trkpt lat="36.76659" lon="30.49803">
        <ele>1383.2</ele>
      </trkpt>
      <trkpt lat="36.7673" lon="30.49834">
        <ele>1382.1</ele>
      </trkpt>
      <trkpt lat="36.76769" lon="30.49824">
        <ele>1376.8</ele>
      </trkpt>
      <trkpt lat="36.76791" lon="30.49802">
        <ele>1369.7</ele>
      </trkpt>
      <trkpt lat="36.76812" lon="30.49797">
        <ele>1368.1</ele>
      </trkpt>
      <trkpt lat="36.76918" lon="30.49804">
        <ele>1355.6</ele>
      </trkpt>
      <trkpt lat="36.7694" lon="30.49818">
        <ele>1353.3</ele>
      </trkpt>
      <trkpt lat="36.76975" lon="30.49859">
        <ele>1355.7</ele>
      </trkpt>
      <trkpt lat="36.77037" lon="30.49892">
        <ele>1350.7</ele>
      </trkpt>
      <trkpt lat="36.77054" lon="30.49894">
        <ele>1347.2</ele>
      </trkpt>
      <trkpt lat="36.77083" lon="30.4989">
        <ele>1338.6</ele>
      </trkpt>
      <trkpt lat="36.77102" lon="30.49899">
        <ele>1335.6</ele>
      </trkpt>
      <trkpt lat="36.77125" lon="30.49913">
        <ele>1332.1</ele>
      </trkpt>
      <trkpt lat="36.77158" lon="30.49921">
        <ele>1323.6</ele>
      </trkpt>
      <trkpt lat="36.77198" lon="30.49964">
        <ele>1320.5</ele>
      </trkpt>
      <trkpt lat="36.77213" lon="30.4999">
        <ele>1321.7</ele>
      </trkpt>
      <trkpt lat="36.77237" lon="30.50105">
        <ele>1326.9</ele>
      </trkpt>
      <trkpt lat="36.77246" lon="30.50123">
        <ele>1327.9</ele>
      </trkpt>
      <trkpt lat="36.77323" lon="30.50167">
        <ele>1326.7</ele>
      </trkpt>
      <trkpt lat="36.77353" lon="30.50169">
        <ele>1324.4</ele>
      </trkpt>
      <trkpt lat="36.77369" lon="30.50154">
        <ele>1321.9</ele>
      </trkpt>
      <trkpt lat="36.77378" lon="30.50128">
        <ele>1318.9</ele>
      </trkpt>
      <trkpt lat="36.77415" lon="30.50116">
        <ele>1319.9</ele>
      </trkpt>
      <trkpt lat="36.77436" lon="30.50124">
        <ele>1319.8</ele>
      </trkpt>
      <trkpt lat="36.77449" lon="30.50117">
        <ele>1319.7</ele>
      </trkpt>
      <trkpt lat="36.77492" lon="30.50088">
        <ele>1319.9</ele>
      </trkpt>
      <trkpt lat="36.77508" lon="30.50088">
        <ele>1319.8</ele>
      </trkpt>
      <trkpt lat="36.77526" lon="30.50097">
        <ele>1318.8</ele>
      </trkpt>
      <trkpt lat="36.77545" lon="30.50093">
        <ele>1318.6</ele>
      </trkpt>
      <trkpt lat="36.7759" lon="30.50116">
        <ele>1312.4</ele>
      </trkpt>
      <trkpt lat="36.77624" lon="30.50154">
        <ele>1304.2</ele>
      </trkpt>
      <trkpt lat="36.77663" lon="30.50164">
        <ele>1302.7</ele>
      </trkpt>
      <trkpt lat="36.77681" lon="30.5016">
        <ele>1302.8</ele>
      </trkpt>
      <trkpt lat="36.77715" lon="30.50145">
        <ele>1305.1</ele>
      </trkpt>
      <trkpt lat="36.77732" lon="30.50143">
        <ele>1304.9</ele>
      </trkpt>
      <trkpt lat="36.77762" lon="30.50149">
        <ele>1302.3</ele>
      </trkpt>
      <trkpt lat="36.77792" lon="30.50166">
        <ele>1298.7</ele>
      </trkpt>
      <trkpt lat="36.77846" lon="30.50154">
        <ele>1301.3</ele>
      </trkpt>
      <trkpt lat="36.77893" lon="30.50195">
        <ele>1286.2</ele>
      </trkpt>
      <trkpt lat="36.7796" lon="30.50255">
        <ele>1265.3</ele>
      </trkpt>
      <trkpt lat="36.78031" lon="30.50309">
        <ele>1247.9</ele>
      </trkpt>
      <trkpt lat="36.78113" lon="30.503">
        <ele>1224.7</ele>
      </trkpt>
      <trkpt lat="36.78264" lon="30.50272">
        <ele>1190.7</ele>
      </trkpt>
      <trkpt lat="36.78303" lon="30.50253">
        <ele>1182.3</ele>
      </trkpt>
      <trkpt lat="36.78406" lon="30.50193">
        <ele>1174.2</ele>
      </trkpt>
      <trkpt lat="36.7847" lon="30.50156">
        <ele>1158.5</ele>
      </trkpt>
      <trkpt lat="36.78527" lon="30.50151">
        <ele>1133.3</ele>
      </trkpt>
      <trkpt lat="36.7855" lon="30.50129">
        <ele>1128.2</ele>
      </trkpt>
      <trkpt lat="36.78576" lon="30.50099">
        <ele>1124.4</ele>
      </trkpt>
      <trkpt lat="36.78576" lon="30.5006">
        <ele>1125.2</ele>
      </trkpt>
      <trkpt lat="36.78529" lon="30.50027">
        <ele>1137.4</ele>
      </trkpt>
      <trkpt lat="36.78512" lon="30.49998">
        <ele>1137.8</ele>
      </trkpt>
      <trkpt lat="36.78498" lon="30.49975">
        <ele>1135.8</ele>
      </trkpt>
      <trkpt lat="36.78462" lon="30.4992">
        <ele>1130.5</ele>
      </trkpt>
      <trkpt lat="36.78401" lon="30.49906">
        <ele>1141.3</ele>
      </trkpt>
      <trkpt lat="36.78341" lon="30.49899">
        <ele>1148.4</ele>
      </trkpt>
      <trkpt lat="36.78304" lon="30.49882">
        <ele>1154.2</ele>
      </trkpt>
      <trkpt lat="36.7828" lon="30.49845">
        <ele>1153.6</ele>
      </trkpt>
      <trkpt lat="36.7828" lon="30.49782">
        <ele>1151.6</ele>
      </trkpt>
      <trkpt lat="36.78265" lon="30.49744">
        <ele>1156.5</ele>
      </trkpt>
      <trkpt lat="36.78265" lon="30.49712">
        <ele>1157.8</ele>
      </trkpt>
      <trkpt lat="36.78266" lon="30.49661">
        <ele>1160</ele>
      </trkpt>
      <trkpt lat="36.78275" lon="30.49611">
        <ele>1163.8</ele>
      </trkpt>
      <trkpt lat="36.78297" lon="30.49577">
        <ele>1164.9</ele>
      </trkpt>
      <trkpt lat="36.78324" lon="30.49578">
        <ele>1159.5</ele>
      </trkpt>
      <trkpt lat="36.78339" lon="30.49542">
        <ele>1168.7</ele>
      </trkpt>
      <trkpt lat="36.78381" lon="30.49513">
        <ele>1168.1</ele>
      </trkpt>
      <trkpt lat="36.78423" lon="30.49485">
        <ele>1162.8</ele>
      </trkpt>
      <trkpt lat="36.78435" lon="30.49424">
        <ele>1171.4</ele>
      </trkpt>
      <trkpt lat="36.78445" lon="30.49399">
        <ele>1172</ele>
      </trkpt>
      <trkpt lat="36.78462" lon="30.49372">
        <ele>1170.5</ele>
      </trkpt>
      <trkpt lat="36.78482" lon="30.49328">
        <ele>1171.8</ele>
      </trkpt>
      <trkpt lat="36.78529" lon="30.49255">
        <ele>1170</ele>
      </trkpt>
      <trkpt lat="36.78535" lon="30.49236">
        <ele>1168.3</ele>
      </trkpt>
      <trkpt lat="36.7853" lon="30.49219">
        <ele>1167.1</ele>
      </trkpt>
      <trkpt lat="36.78487" lon="30.49185">
        <ele>1164.9</ele>
      </trkpt>
      <trkpt lat="36.78464" lon="30.49156">
        <ele>1160.3</ele>
      </trkpt>
      <trkpt lat="36.78446" lon="30.49136">
        <ele>1156.4</ele>
      </trkpt>
      <trkpt lat="36.78405" lon="30.49113">
        <ele>1154.5</ele>
      </trkpt>
      <trkpt lat="36.78382" lon="30.49101">
        <ele>1155.4</ele>
      </trkpt>
      <trkpt lat="36.78372" lon="30.49082">
        <ele>1152.8</ele>
      </trkpt>
      <trkpt lat="36.78367" lon="30.49022">
        <ele>1140.5</ele>
      </trkpt>
      <trkpt lat="36.78363" lon="30.49006">
        <ele>1138</ele>
      </trkpt>
      <trkpt lat="36.78347" lon="30.48978">
        <ele>1134.6</ele>
      </trkpt>
      <trkpt lat="36.7833" lon="30.48958">
        <ele>1133.8</ele>
      </trkpt>
      <trkpt lat="36.78292" lon="30.48929">
        <ele>1129.8</ele>
      </trkpt>
      <trkpt lat="36.78258" lon="30.48917">
        <ele>1130.1</ele>
      </trkpt>
      <trkpt lat="36.78237" lon="30.48896">
        <ele>1128.2</ele>
      </trkpt>
      <trkpt lat="36.7822" lon="30.48874">
        <ele>1125.9</ele>
      </trkpt>
      <trkpt lat="36.78189" lon="30.48828">
        <ele>1121.7</ele>
      </trkpt>
      <trkpt lat="36.78173" lon="30.48791">
        <ele>1118</ele>
      </trkpt>
      <trkpt lat="36.78177" lon="30.48749">
        <ele>1108.8</ele>
      </trkpt>
      <trkpt lat="36.78174" lon="30.48733">
        <ele>1106.9</ele>
      </trkpt>
      <trkpt lat="36.78161" lon="30.48711">
        <ele>1104.9</ele>
      </trkpt>
      <trkpt lat="36.78145" lon="30.48704">
        <ele>1103.9</ele>
      </trkpt>
      <trkpt lat="36.78063" lon="30.48706">
        <ele>1101.6</ele>
      </trkpt>
      <trkpt lat="36.7804" lon="30.48697">
        <ele>1096.3</ele>
      </trkpt>
      <trkpt lat="36.78011" lon="30.48707">
        <ele>1094.4</ele>
      </trkpt>
      <trkpt lat="36.77987" lon="30.48727">
        <ele>1093.5</ele>
      </trkpt>
      <trkpt lat="36.77953" lon="30.48729">
        <ele>1084.9</ele>
      </trkpt>
      <trkpt lat="36.77927" lon="30.4874">
        <ele>1080.2</ele>
      </trkpt>
      <trkpt lat="36.77875" lon="30.48789">
        <ele>1072.2</ele>
      </trkpt>
      <trkpt lat="36.77842" lon="30.48846">
        <ele>1068.9</ele>
      </trkpt>
      <trkpt lat="36.77798" lon="30.48902">
        <ele>1064.4</ele>
      </trkpt>
      <trkpt lat="36.77778" lon="30.48939">
        <ele>1064.9</ele>
      </trkpt>
      <trkpt lat="36.77761" lon="30.48953">
        <ele>1061.5</ele>
      </trkpt>
      <trkpt lat="36.7775" lon="30.48983">
        <ele>1063.5</ele>
      </trkpt>
      <trkpt lat="36.77736" lon="30.48989">
        <ele>1060.3</ele>
      </trkpt>
      <trkpt lat="36.77719" lon="30.48976">
        <ele>1052.8</ele>
      </trkpt>
      <trkpt lat="36.77704" lon="30.4897">
        <ele>1047.2</ele>
      </trkpt>
      <trkpt lat="36.77676" lon="30.48989">
        <ele>1042</ele>
      </trkpt>
      <trkpt lat="36.77661" lon="30.49014">
        <ele>1043</ele>
      </trkpt>
      <trkpt lat="36.77643" lon="30.49063">
        <ele>1049.9</ele>
      </trkpt>
      <trkpt lat="36.77635" lon="30.49083">
        <ele>1051.9</ele>
      </trkpt>
      <trkpt lat="36.77615" lon="30.49092">
        <ele>1046.9</ele>
      </trkpt>
      <trkpt lat="36.77592" lon="30.49115">
        <ele>1044.5</ele>
      </trkpt>
      <trkpt lat="36.77582" lon="30.4913">
        <ele>1045.4</ele>
      </trkpt>
      <trkpt lat="36.77554" lon="30.49154">
        <ele>1048.8</ele>
      </trkpt>
      <trkpt lat="36.77547" lon="30.49144">
        <ele>1045.7</ele>
      </trkpt>
      <trkpt lat="36.77549" lon="30.49129">
        <ele>1042.5</ele>
      </trkpt>
      <trkpt lat="36.77588" lon="30.49102">
        <ele>1038.9</ele>
      </trkpt>
      <trkpt lat="36.77608" lon="30.49082">
        <ele>1041.2</ele>
      </trkpt>
      <trkpt lat="36.77617" lon="30.49066">
        <ele>1041.3</ele>
      </trkpt>
      <trkpt lat="36.77616" lon="30.49034">
        <ele>1033.8</ele>
      </trkpt>
      <trkpt lat="36.77613" lon="30.48972">
        <ele>1022.9</ele>
      </trkpt>
      <trkpt lat="36.77609" lon="30.48928">
        <ele>1017.9</ele>
      </trkpt>
      <trkpt lat="36.77588" lon="30.48829">
        <ele>1010.3</ele>
      </trkpt>
      <trkpt lat="36.77592" lon="30.48795">
        <ele>1008.5</ele>
      </trkpt>
      <trkpt lat="36.77629" lon="30.48734">
        <ele>1006.8</ele>
      </trkpt>
      <trkpt lat="36.77668" lon="30.48694">
        <ele>1003.7</ele>
      </trkpt>
      <trkpt lat="36.777" lon="30.48655">
        <ele>1002.9</ele>
      </trkpt>
      <trkpt lat="36.77706" lon="30.48625">
        <ele>1002.3</ele>
      </trkpt>
      <trkpt lat="36.77704" lon="30.4858">
        <ele>1000.6</ele>
      </trkpt>
      <trkpt lat="36.77714" lon="30.48524">
        <ele>998.7</ele>
      </trkpt>
      <trkpt lat="36.77724" lon="30.48497">
        <ele>998</ele>
      </trkpt>
      <trkpt lat="36.77722" lon="30.48468">
        <ele>996.7</ele>
      </trkpt>
      <trkpt lat="36.77712" lon="30.48443">
        <ele>995</ele>
      </trkpt>
      <trkpt lat="36.7767" lon="30.4841">
        <ele>989.2</ele>
      </trkpt>
      <trkpt lat="36.77662" lon="30.48386">
        <ele>987.1</ele>
      </trkpt>
      <trkpt lat="36.77666" lon="30.48351">
        <ele>979.9</ele>
      </trkpt>
      <trkpt lat="36.77696" lon="30.48297">
        <ele>972.8</ele>
      </trkpt>
      <trkpt lat="36.77712" lon="30.48281">
        <ele>970.9</ele>
      </trkpt>
      <trkpt lat="36.7773" lon="30.48273">
        <ele>970.5</ele>
      </trkpt>
      <trkpt lat="36.77744" lon="30.48268">
        <ele>970.3</ele>
      </trkpt>
      <trkpt lat="36.77756" lon="30.48242">
        <ele>965.7</ele>
      </trkpt>
      <trkpt lat="36.77774" lon="30.48216">
        <ele>960.8</ele>
      </trkpt>
      <trkpt lat="36.7779" lon="30.48208">
        <ele>959.8</ele>
      </trkpt>
      <trkpt lat="36.77824" lon="30.48201">
        <ele>959.9</ele>
      </trkpt>
      <trkpt lat="36.77885" lon="30.48191">
        <ele>959.9</ele>
      </trkpt>
      <trkpt lat="36.77898" lon="30.48167">
        <ele>954.1</ele>
      </trkpt>
      <trkpt lat="36.77901" lon="30.4814">
        <ele>951.3</ele>
      </trkpt>
      <trkpt lat="36.779" lon="30.48114">
        <ele>948.2</ele>
      </trkpt>
      <trkpt lat="36.77898" lon="30.48074">
        <ele>944.6</ele>
      </trkpt>
      <trkpt lat="36.7791" lon="30.48019">
        <ele>941.5</ele>
      </trkpt>
      <trkpt lat="36.77911" lon="30.47987">
        <ele>940.1</ele>
      </trkpt>
      <trkpt lat="36.77908" lon="30.47964">
        <ele>939.6</ele>
      </trkpt>
      <trkpt lat="36.77894" lon="30.47943">
        <ele>939.3</ele>
      </trkpt>
      <trkpt lat="36.77868" lon="30.47911">
        <ele>938.3</ele>
      </trkpt>
      <trkpt lat="36.77818" lon="30.47884">
        <ele>937.5</ele>
      </trkpt>
      <trkpt lat="36.77761" lon="30.47868">
        <ele>934.1</ele>
      </trkpt>
      <trkpt lat="36.77734" lon="30.47854">
        <ele>929.8</ele>
      </trkpt>
      <trkpt lat="36.77671" lon="30.47796">
        <ele>919.8</ele>
      </trkpt>
      <trkpt lat="36.77651" lon="30.47771">
        <ele>916</ele>
      </trkpt>
      <trkpt lat="36.77619" lon="30.47717">
        <ele>906.8</ele>
      </trkpt>
      <trkpt lat="36.77614" lon="30.47686">
        <ele>905.3</ele>
      </trkpt>
      <trkpt lat="36.7763" lon="30.47641">
        <ele>907.1</ele>
      </trkpt>
      <trkpt lat="36.77632" lon="30.47601">
        <ele>903.2</ele>
      </trkpt>
      <trkpt lat="36.77626" lon="30.47578">
        <ele>899.4</ele>
      </trkpt>
      <trkpt lat="36.77614" lon="30.47579">
        <ele>897.2</ele>
      </trkpt>
      <trkpt lat="36.77569" lon="30.47625">
        <ele>891.5</ele>
      </trkpt>
      <trkpt lat="36.77559" lon="30.47665">
        <ele>892.2</ele>
      </trkpt>
      <trkpt lat="36.77568" lon="30.47747">
        <ele>892.8</ele>
      </trkpt>
      <trkpt lat="36.77577" lon="30.47819">
        <ele>889.2</ele>
      </trkpt>
      <trkpt lat="36.77566" lon="30.4784">
        <ele>891.7</ele>
      </trkpt>
      <trkpt lat="36.77553" lon="30.47835">
        <ele>893.8</ele>
      </trkpt>
      <trkpt lat="36.77532" lon="30.47785">
        <ele>893.2</ele>
      </trkpt>
      <trkpt lat="36.77506" lon="30.47757">
        <ele>888.9</ele>
      </trkpt>
      <trkpt lat="36.7749" lon="30.4771">
        <ele>886.6</ele>
      </trkpt>
      <trkpt lat="36.77482" lon="30.47627">
        <ele>880.9</ele>
      </trkpt>
      <trkpt lat="36.77482" lon="30.47578">
        <ele>876</ele>
      </trkpt>
      <trkpt lat="36.77475" lon="30.47552">
        <ele>874.3</ele>
      </trkpt>
      <trkpt lat="36.77454" lon="30.47514">
        <ele>871.2</ele>
      </trkpt>
      <trkpt lat="36.77443" lon="30.4748">
        <ele>866.5</ele>
      </trkpt>
      <trkpt lat="36.77446" lon="30.47436">
        <ele>860.5</ele>
      </trkpt>
      <trkpt lat="36.77453" lon="30.47366">
        <ele>856</ele>
      </trkpt>
      <trkpt lat="36.77447" lon="30.47307">
        <ele>853.3</ele>
      </trkpt>
      <trkpt lat="36.77442" lon="30.47202">
        <ele>847.2</ele>
      </trkpt>
      <trkpt lat="36.77449" lon="30.47138">
        <ele>843.8</ele>
      </trkpt>
      <trkpt lat="36.77486" lon="30.46959">
        <ele>838.1</ele>
      </trkpt>
      <trkpt lat="36.77498" lon="30.46893">
        <ele>832.8</ele>
      </trkpt>
      <trkpt lat="36.77507" lon="30.46883">
        <ele>833.1</ele>
      </trkpt>
      <trkpt lat="36.77552" lon="30.46869">
        <ele>838</ele>
      </trkpt>
      <trkpt lat="36.77574" lon="30.46836">
        <ele>834</ele>
      </trkpt>
      <trkpt lat="36.77594" lon="30.46794">
        <ele>831.9</ele>
      </trkpt>
      <trkpt lat="36.776" lon="30.46775">
        <ele>830.7</ele>
      </trkpt>
      <trkpt lat="36.77601" lon="30.46764">
        <ele>829.3</ele>
      </trkpt>
      <trkpt lat="36.77597" lon="30.46759">
        <ele>827.6</ele>
      </trkpt>
      <trkpt lat="36.77577" lon="30.46779">
        <ele>826.9</ele>
      </trkpt>
      <trkpt lat="36.77577" lon="30.46779">
        <ele>826.9</ele>
      </trkpt>
      <trkpt lat="36.77575" lon="30.46763">
        <ele>824.9</ele>
      </trkpt>
      <trkpt lat="36.77568" lon="30.46748">
        <ele>823.2</ele>
      </trkpt>
      <trkpt lat="36.77549" lon="30.46728">
        <ele>820.5</ele>
      </trkpt>
      <trkpt lat="36.77523" lon="30.46715">
        <ele>819.7</ele>
      </trkpt>
      <trkpt lat="36.775" lon="30.46694">
        <ele>818</ele>
      </trkpt>
      <trkpt lat="36.77492" lon="30.46679">
        <ele>817.6</ele>
      </trkpt>
      <trkpt lat="36.77486" lon="30.46631">
        <ele>812.5</ele>
      </trkpt>
      <trkpt lat="36.77474" lon="30.46596">
        <ele>810.6</ele>
      </trkpt>
      <trkpt lat="36.77462" lon="30.46577">
        <ele>812</ele>
      </trkpt>
      <trkpt lat="36.77446" lon="30.46569">
        <ele>816.8</ele>
      </trkpt>
      <trkpt lat="36.77434" lon="30.46541">
        <ele>820.4</ele>
      </trkpt>
      <trkpt lat="36.7743" lon="30.46478">
        <ele>822.6</ele>
      </trkpt>
      <trkpt lat="36.77434" lon="30.46408">
        <ele>822.9</ele>
      </trkpt>
      <trkpt lat="36.77438" lon="30.46377">
        <ele>818.8</ele>
      </trkpt>
      <trkpt lat="36.77431" lon="30.46332">
        <ele>819.4</ele>
      </trkpt>
      <trkpt lat="36.77407" lon="30.46283">
        <ele>819.2</ele>
      </trkpt>
      <trkpt lat="36.77374" lon="30.46231">
        <ele>821.6</ele>
      </trkpt>
      <trkpt lat="36.77357" lon="30.46152">
        <ele>818.1</ele>
      </trkpt>
      <trkpt lat="36.77347" lon="30.46095">
        <ele>817.5</ele>
      </trkpt>
      <trkpt lat="36.77337" lon="30.45926">
        <ele>804.9</ele>
      </trkpt>
      <trkpt lat="36.7734" lon="30.45905">
        <ele>802.4</ele>
      </trkpt>
      <trkpt lat="36.77337" lon="30.45856">
        <ele>798.4</ele>
      </trkpt>
      <trkpt lat="36.77337" lon="30.4582">
        <ele>795.8</ele>
      </trkpt>
      <trkpt lat="36.77329" lon="30.45793">
        <ele>796</ele>
      </trkpt>
      <trkpt lat="36.77319" lon="30.45774">
        <ele>797</ele>
      </trkpt>
      <trkpt lat="36.77314" lon="30.45746">
        <ele>796.4</ele>
      </trkpt>
      <trkpt lat="36.77317" lon="30.45736">
        <ele>795.5</ele>
      </trkpt>
      <trkpt lat="36.77324" lon="30.4573">
        <ele>794.1</ele>
      </trkpt>
      <trkpt lat="36.77343" lon="30.45741">
        <ele>791</ele>
      </trkpt>
      <trkpt lat="36.77356" lon="30.45748">
        <ele>788.9</ele>
      </trkpt>
      <trkpt lat="36.77365" lon="30.45745">
        <ele>787.2</ele>
      </trkpt>
      <trkpt lat="36.77374" lon="30.45729">
        <ele>785.4</ele>
      </trkpt>
      <trkpt lat="36.77374" lon="30.45699">
        <ele>785</ele>
      </trkpt>
      <trkpt lat="36.77382" lon="30.45675">
        <ele>783.6</ele>
      </trkpt>
      <trkpt lat="36.77401" lon="30.45655">
        <ele>780.9</ele>
      </trkpt>
      <trkpt lat="36.77423" lon="30.45633">
        <ele>779</ele>
      </trkpt>
      <trkpt lat="36.77436" lon="30.45614">
        <ele>779.7</ele>
      </trkpt>
      <trkpt lat="36.77437" lon="30.45602">
        <ele>779.8</ele>
      </trkpt>
      <trkpt lat="36.77438" lon="30.4559">
        <ele>779.8</ele>
      </trkpt>
      <trkpt lat="36.77438" lon="30.45558">
        <ele>779.4</ele>
      </trkpt>
      <trkpt lat="36.77446" lon="30.45527">
        <ele>779.3</ele>
      </trkpt>
      <trkpt lat="36.77462" lon="30.45497">
        <ele>779</ele>
      </trkpt>
      <trkpt lat="36.77472" lon="30.45478">
        <ele>777.9</ele>
      </trkpt>
      <trkpt lat="36.77485" lon="30.45458">
        <ele>775.4</ele>
      </trkpt>
      <trkpt lat="36.77496" lon="30.45432">
        <ele>770.9</ele>
      </trkpt>
      <trkpt lat="36.77513" lon="30.45413">
        <ele>768.1</ele>
      </trkpt>
      <trkpt lat="36.77527" lon="30.45403">
        <ele>767.4</ele>
      </trkpt>
      <trkpt lat="36.77533" lon="30.45392">
        <ele>765.9</ele>
      </trkpt>
      <trkpt lat="36.77545" lon="30.45362">
        <ele>761.9</ele>
      </trkpt>
      <trkpt lat="36.7755" lon="30.45351">
        <ele>760.3</ele>
      </trkpt>
      <trkpt lat="36.77555" lon="30.45343">
        <ele>759.1</ele>
      </trkpt>
      <trkpt lat="36.77558" lon="30.45335">
        <ele>757.9</ele>
      </trkpt>
      <trkpt lat="36.77562" lon="30.45322">
        <ele>756.5</ele>
      </trkpt>
      <trkpt lat="36.77571" lon="30.45296">
        <ele>753.9</ele>
      </trkpt>
      <trkpt lat="36.77588" lon="30.45266">
        <ele>750.9</ele>
      </trkpt>
      <trkpt lat="36.77593" lon="30.45252">
        <ele>748.9</ele>
      </trkpt>
      <trkpt lat="36.77594" lon="30.45238">
        <ele>746.5</ele>
      </trkpt>
      <trkpt lat="36.77594" lon="30.45218">
        <ele>742.8</ele>
      </trkpt>
      <trkpt lat="36.77588" lon="30.45186">
        <ele>738</ele>
      </trkpt>
      <trkpt lat="36.77579" lon="30.45169">
        <ele>735.3</ele>
      </trkpt>
      <trkpt lat="36.77567" lon="30.45164">
        <ele>734.1</ele>
      </trkpt>
      <trkpt lat="36.77558" lon="30.45139">
        <ele>730</ele>
      </trkpt>
      <trkpt lat="36.77551" lon="30.45122">
        <ele>727.4</ele>
      </trkpt>
      <trkpt lat="36.77539" lon="30.45113">
        <ele>726.3</ele>
      </trkpt>
      <trkpt lat="36.77515" lon="30.45125">
        <ele>728.3</ele>
      </trkpt>
      <trkpt lat="36.77505" lon="30.4513">
        <ele>729</ele>
      </trkpt>
      <trkpt lat="36.77499" lon="30.45129">
        <ele>729.3</ele>
      </trkpt>
      <trkpt lat="36.77497" lon="30.45109">
        <ele>727.7</ele>
      </trkpt>
      <trkpt lat="36.77504" lon="30.45089">
        <ele>724.4</ele>
      </trkpt>
      <trkpt lat="36.77504" lon="30.45058">
        <ele>721.8</ele>
      </trkpt>
      <trkpt lat="36.77495" lon="30.4502">
        <ele>719.9</ele>
      </trkpt>
      <trkpt lat="36.77474" lon="30.44972">
        <ele>722.6</ele>
      </trkpt>
      <trkpt lat="36.77465" lon="30.44916">
        <ele>721.4</ele>
      </trkpt>
      <trkpt lat="36.77451" lon="30.44869">
        <ele>718.7</ele>
      </trkpt>
      <trkpt lat="36.77429" lon="30.44809">
        <ele>714.3</ele>
      </trkpt>
      <trkpt lat="36.77409" lon="30.44766">
        <ele>712.9</ele>
      </trkpt>
      <trkpt lat="36.77388" lon="30.44729">
        <ele>713.7</ele>
      </trkpt>
      <trkpt lat="36.77359" lon="30.44675">
        <ele>709.8</ele>
      </trkpt>
      <trkpt lat="36.77337" lon="30.44609">
        <ele>697.4</ele>
      </trkpt>
      <trkpt lat="36.77321" lon="30.4454">
        <ele>689.4</ele>
      </trkpt>
      <trkpt lat="36.77307" lon="30.44476">
        <ele>679.3</ele>
      </trkpt>
      <trkpt lat="36.773" lon="30.44463">
        <ele>676.3</ele>
      </trkpt>
      <trkpt lat="36.77287" lon="30.44456">
        <ele>674.6</ele>
      </trkpt>
      <trkpt lat="36.7727" lon="30.44458">
        <ele>675.6</ele>
      </trkpt>
      <trkpt lat="36.77244" lon="30.44468">
        <ele>680.4</ele>
      </trkpt>
      <trkpt lat="36.77227" lon="30.44477">
        <ele>685.4</ele>
      </trkpt>
      <trkpt lat="36.77176" lon="30.4448">
        <ele>688.6</ele>
      </trkpt>
      <trkpt lat="36.77102" lon="30.44479">
        <ele>690.9</ele>
      </trkpt>
      <trkpt lat="36.77069" lon="30.4448">
        <ele>692.2</ele>
      </trkpt>
      <trkpt lat="36.77052" lon="30.44485">
        <ele>693.8</ele>
      </trkpt>
      <trkpt lat="36.77041" lon="30.44478">
        <ele>691.9</ele>
      </trkpt>
      <trkpt lat="36.77033" lon="30.44455">
        <ele>686.3</ele>
      </trkpt>
      <trkpt lat="36.77019" lon="30.44422">
        <ele>679.7</ele>
      </trkpt>
      <trkpt lat="36.76991" lon="30.44383">
        <ele>677.9</ele>
      </trkpt>
      <trkpt lat="36.76976" lon="30.44338">
        <ele>674.4</ele>
      </trkpt>
      <trkpt lat="36.76973" lon="30.44321">
        <ele>672.1</ele>
      </trkpt>
      <trkpt lat="36.76959" lon="30.44302">
        <ele>671.9</ele>
      </trkpt>
      <trkpt lat="36.76953" lon="30.44287">
        <ele>670.3</ele>
      </trkpt>
      <trkpt lat="36.76955" lon="30.44285">
        <ele>669.6</ele>
      </trkpt>
      <trkpt lat="36.76959" lon="30.44285">
        <ele>668.6</ele>
      </trkpt>
      <trkpt lat="36.76979" lon="30.44309">
        <ele>668.6</ele>
      </trkpt>
      <trkpt lat="36.77007" lon="30.44332">
        <ele>666.4</ele>
      </trkpt>
      <trkpt lat="36.77011" lon="30.4434">
        <ele>667</ele>
      </trkpt>
      <trkpt lat="36.7702" lon="30.44341">
        <ele>665.5</ele>
      </trkpt>
      <trkpt lat="36.77039" lon="30.44331">
        <ele>660.2</ele>
      </trkpt>
      <trkpt lat="36.77056" lon="30.44324">
        <ele>656.2</ele>
      </trkpt>
      <trkpt lat="36.77075" lon="30.44323">
        <ele>652.5</ele>
      </trkpt>
      <trkpt lat="36.77094" lon="30.4433">
        <ele>649.9</ele>
      </trkpt>
      <trkpt lat="36.7711" lon="30.44331">
        <ele>647.4</ele>
      </trkpt>
      <trkpt lat="36.77126" lon="30.4432">
        <ele>644.1</ele>
      </trkpt>
      <trkpt lat="36.77142" lon="30.4432">
        <ele>641.5</ele>
      </trkpt>
      <trkpt lat="36.77163" lon="30.44309">
        <ele>637.7</ele>
      </trkpt>
      <trkpt lat="36.77191" lon="30.44289">
        <ele>635.2</ele>
      </trkpt>
      <trkpt lat="36.77203" lon="30.44283">
        <ele>634.4</ele>
      </trkpt>
      <trkpt lat="36.77245" lon="30.44282">
        <ele>632.4</ele>
      </trkpt>
      <trkpt lat="36.77282" lon="30.44276">
        <ele>632.3</ele>
      </trkpt>
      <trkpt lat="36.77296" lon="30.44267">
        <ele>631.3</ele>
      </trkpt>
      <trkpt lat="36.77315" lon="30.44263">
        <ele>630.6</ele>
      </trkpt>
      <trkpt lat="36.77333" lon="30.44267">
        <ele>631</ele>
      </trkpt>
      <trkpt lat="36.77355" lon="30.44273">
        <ele>629.9</ele>
      </trkpt>
      <trkpt lat="36.77383" lon="30.44278">
        <ele>628.3</ele>
      </trkpt>
      <trkpt lat="36.77422" lon="30.44256">
        <ele>617.6</ele>
      </trkpt>
      <trkpt lat="36.77441" lon="30.44237">
        <ele>608.7</ele>
      </trkpt>
      <trkpt lat="36.77455" lon="30.44231">
        <ele>603.6</ele>
      </trkpt>
      <trkpt lat="36.77472" lon="30.44234">
        <ele>600.3</ele>
      </trkpt>
      <trkpt lat="36.7749" lon="30.44241">
        <ele>597.8</ele>
      </trkpt>
      <trkpt lat="36.77518" lon="30.44246">
        <ele>590.2</ele>
      </trkpt>
      <trkpt lat="36.77523" lon="30.44241">
        <ele>587.1</ele>
      </trkpt>
      <trkpt lat="36.77534" lon="30.44242">
        <ele>583.3</ele>
      </trkpt>
      <trkpt lat="36.77548" lon="30.4425">
        <ele>580.9</ele>
      </trkpt>
      <trkpt lat="36.77561" lon="30.44262">
        <ele>579.7</ele>
      </trkpt>
      <trkpt lat="36.77577" lon="30.44288">
        <ele>580.3</ele>
      </trkpt>
      <trkpt lat="36.77603" lon="30.44319">
        <ele>577.6</ele>
      </trkpt>
      <trkpt lat="36.77618" lon="30.4433">
        <ele>574.5</ele>
      </trkpt>
      <trkpt lat="36.7764" lon="30.44333">
        <ele>566.4</ele>
      </trkpt>
      <trkpt lat="36.77654" lon="30.44339">
        <ele>562.7</ele>
      </trkpt>
      <trkpt lat="36.77661" lon="30.44348">
        <ele>562.9</ele>
      </trkpt>
      <trkpt lat="36.77684" lon="30.44395">
        <ele>566</ele>
      </trkpt>
      <trkpt lat="36.77701" lon="30.44408">
        <ele>561</ele>
      </trkpt>
      <trkpt lat="36.77722" lon="30.44429">
        <ele>556.4</ele>
      </trkpt>
      <trkpt lat="36.77737" lon="30.44447">
        <ele>554.5</ele>
      </trkpt>
      <trkpt lat="36.77747" lon="30.44453">
        <ele>550.5</ele>
      </trkpt>
      <trkpt lat="36.77757" lon="30.44449">
        <ele>543.4</ele>
      </trkpt>
      <trkpt lat="36.77762" lon="30.44444">
        <ele>539</ele>
      </trkpt>
      <trkpt lat="36.77762" lon="30.44439">
        <ele>537.2</ele>
      </trkpt>
      <trkpt lat="36.7776" lon="30.44433">
        <ele>536</ele>
      </trkpt>
      <trkpt lat="36.77749" lon="30.44422">
        <ele>538.2</ele>
      </trkpt>
      <trkpt lat="36.7773" lon="30.444">
        <ele>543.2</ele>
      </trkpt>
      <trkpt lat="36.77717" lon="30.4436">
        <ele>540.3</ele>
      </trkpt>
      <trkpt lat="36.77701" lon="30.44296">
        <ele>531.8</ele>
      </trkpt>
      <trkpt lat="36.77678" lon="30.44243">
        <ele>528.6</ele>
      </trkpt>
      <trkpt lat="36.77665" lon="30.44226">
        <ele>528.2</ele>
      </trkpt>
      <trkpt lat="36.77658" lon="30.44209">
        <ele>525.6</ele>
      </trkpt>
      <trkpt lat="36.77651" lon="30.44201">
        <ele>525.8</ele>
      </trkpt>
      <trkpt lat="36.77655" lon="30.4419">
        <ele>521.1</ele>
      </trkpt>
      <trkpt lat="36.77665" lon="30.44186">
        <ele>516.1</ele>
      </trkpt>
      <trkpt lat="36.77683" lon="30.44186">
        <ele>513.1</ele>
      </trkpt>
      <trkpt lat="36.77708" lon="30.4419">
        <ele>509.3</ele>
      </trkpt>
      <trkpt lat="36.77733" lon="30.44238">
        <ele>506.8</ele>
      </trkpt>
      <trkpt lat="36.77762" lon="30.44282">
        <ele>505.5</ele>
      </trkpt>
      <trkpt lat="36.77816" lon="30.44372">
        <ele>496.9</ele>
      </trkpt>
      <trkpt lat="36.77823" lon="30.4438">
        <ele>494.2</ele>
      </trkpt>
      <trkpt lat="36.77829" lon="30.44391">
        <ele>492.4</ele>
      </trkpt>
      <trkpt lat="36.77835" lon="30.44385">
        <ele>489.8</ele>
      </trkpt>
      <trkpt lat="36.77837" lon="30.44382">
        <ele>489.4</ele>
      </trkpt>
      <trkpt lat="36.77838" lon="30.44379">
        <ele>489</ele>
      </trkpt>
      <trkpt lat="36.7784" lon="30.44369">
        <ele>488.2</ele>
      </trkpt>
      <trkpt lat="36.77847" lon="30.4436">
        <ele>487.4</ele>
      </trkpt>
      <trkpt lat="36.77851" lon="30.44356">
        <ele>487.2</ele>
      </trkpt>
      <trkpt lat="36.77863" lon="30.4435">
        <ele>487.2</ele>
      </trkpt>
      <trkpt lat="36.77887" lon="30.4435">
        <ele>487.7</ele>
      </trkpt>
      <trkpt lat="36.77899" lon="30.44333">
        <ele>489.9</ele>
      </trkpt>
      <trkpt lat="36.77896" lon="30.44304">
        <ele>497.4</ele>
      </trkpt>
      <trkpt lat="36.77886" lon="30.44285">
        <ele>501.2</ele>
      </trkpt>
      <trkpt lat="36.7788" lon="30.4428">
        <ele>501.8</ele>
      </trkpt>
      <trkpt lat="36.77879" lon="30.44276">
        <ele>502.6</ele>
      </trkpt>
      <trkpt lat="36.77885" lon="30.44267">
        <ele>505.7</ele>
      </trkpt>
      <trkpt lat="36.77893" lon="30.44253">
        <ele>510.5</ele>
      </trkpt>
      <trkpt lat="36.77892" lon="30.44246">
        <ele>512.7</ele>
      </trkpt>
      <trkpt lat="36.77896" lon="30.44229">
        <ele>520</ele>
      </trkpt>
      <trkpt lat="36.779" lon="30.44216">
        <ele>526</ele>
      </trkpt>
      <trkpt lat="36.77898" lon="30.44196">
        <ele>533.8</ele>
      </trkpt>
      <trkpt lat="36.77895" lon="30.44191">
        <ele>534.9</ele>
      </trkpt>
      <trkpt lat="36.77895" lon="30.44173">
        <ele>542.2</ele>
      </trkpt>
      <trkpt lat="36.77893" lon="30.44168">
        <ele>543.7</ele>
      </trkpt>
      <trkpt lat="36.77902" lon="30.44154">
        <ele>549.9</ele>
      </trkpt>
      <trkpt lat="36.77909" lon="30.44149">
        <ele>553</ele>
      </trkpt>
      <trkpt lat="36.77909" lon="30.44146">
        <ele>553.6</ele>
      </trkpt>
      <trkpt lat="36.77902" lon="30.44144">
        <ele>553</ele>
      </trkpt>
      <trkpt lat="36.77901" lon="30.44142">
        <ele>553.2</ele>
      </trkpt>
      <trkpt lat="36.77914" lon="30.44136">
        <ele>557.6</ele>
      </trkpt>
      <trkpt lat="36.77926" lon="30.44138">
        <ele>555.4</ele>
      </trkpt>
      <trkpt lat="36.77934" lon="30.44128">
        <ele>556.3</ele>
      </trkpt>
      <trkpt lat="36.7795" lon="30.44109">
        <ele>557.7</ele>
      </trkpt>
      <trkpt lat="36.77955" lon="30.44092">
        <ele>561.3</ele>
      </trkpt>
      <trkpt lat="36.77964" lon="30.44087">
        <ele>560.7</ele>
      </trkpt>
      <trkpt lat="36.77965" lon="30.44079">
        <ele>562</ele>
      </trkpt>
      <trkpt lat="36.77966" lon="30.44066">
        <ele>564</ele>
      </trkpt>
      <trkpt lat="36.77972" lon="30.44044">
        <ele>567</ele>
      </trkpt>
      <trkpt lat="36.77975" lon="30.44027">
        <ele>569.7</ele>
      </trkpt>
      <trkpt lat="36.77978" lon="30.44013">
        <ele>572.3</ele>
      </trkpt>
      <trkpt lat="36.77985" lon="30.43977">
        <ele>578.6</ele>
      </trkpt>
      <trkpt lat="36.77997" lon="30.4394">
        <ele>584.7</ele>
      </trkpt>
      <trkpt lat="36.78014" lon="30.43897">
        <ele>588.6</ele>
      </trkpt>
      <trkpt lat="36.78031" lon="30.43873">
        <ele>587.3</ele>
      </trkpt>
      <trkpt lat="36.78048" lon="30.43841">
        <ele>586.5</ele>
      </trkpt>
      <trkpt lat="36.78062" lon="30.43814">
        <ele>587.3</ele>
      </trkpt>
      <trkpt lat="36.78066" lon="30.43796">
        <ele>590.9</ele>
      </trkpt>
      <trkpt lat="36.78081" lon="30.43779">
        <ele>590.6</ele>
      </trkpt>
      <trkpt lat="36.78095" lon="30.43763">
        <ele>592.5</ele>
      </trkpt>
      <trkpt lat="36.78115" lon="30.43749">
        <ele>592</ele>
      </trkpt>
      <trkpt lat="36.78116" lon="30.43748">
        <ele>591.9</ele>
      </trkpt>
      <trkpt lat="36.78119" lon="30.43743">
        <ele>592.8</ele>
      </trkpt>
      <trkpt lat="36.78119" lon="30.43735">
        <ele>595.1</ele>
      </trkpt>
      <trkpt lat="36.78122" lon="30.43731">
        <ele>595.3</ele>
      </trkpt>
      <trkpt lat="36.7813" lon="30.43731">
        <ele>593.4</ele>
      </trkpt>
      <trkpt lat="36.78144" lon="30.43723">
        <ele>591.6</ele>
      </trkpt>
      <trkpt lat="36.78149" lon="30.43722">
        <ele>590.7</ele>
      </trkpt>
      <trkpt lat="36.78154" lon="30.43728">
        <ele>588.1</ele>
      </trkpt>
      <trkpt lat="36.78169" lon="30.43729">
        <ele>584.5</ele>
      </trkpt>
      <trkpt lat="36.78177" lon="30.43732">
        <ele>583.3</ele>
      </trkpt>
      <trkpt lat="36.78185" lon="30.43734">
        <ele>582.5</ele>
      </trkpt>
      <trkpt lat="36.78191" lon="30.43733">
        <ele>582.2</ele>
      </trkpt>
      <trkpt lat="36.78198" lon="30.43731">
        <ele>582.2</ele>
      </trkpt>
      <trkpt lat="36.78203" lon="30.43735">
        <ele>581.3</ele>
      </trkpt>
      <trkpt lat="36.78208" lon="30.43739">
        <ele>580.4</ele>
      </trkpt>
      <trkpt lat="36.78213" lon="30.43741">
        <ele>579.9</ele>
      </trkpt>
      <trkpt lat="36.78218" lon="30.43742">
        <ele>579.5</ele>
      </trkpt>
      <trkpt lat="36.78223" lon="30.4374">
        <ele>579.6</ele>
      </trkpt>
      <trkpt lat="36.78235" lon="30.43747">
        <ele>578</ele>
      </trkpt>
      <trkpt lat="36.78244" lon="30.43757">
        <ele>577.8</ele>
      </trkpt>
      <trkpt lat="36.78246" lon="30.43772">
        <ele>579.3</ele>
      </trkpt>
      <trkpt lat="36.78243" lon="30.43784">
        <ele>580.2</ele>
      </trkpt>
      <trkpt lat="36.78236" lon="30.43793">
        <ele>580.5</ele>
      </trkpt>
      <trkpt lat="36.78233" lon="30.438">
        <ele>580.7</ele>
      </trkpt>
      <trkpt lat="36.78235" lon="30.43805">
        <ele>581.2</ele>
      </trkpt>
      <trkpt lat="36.78228" lon="30.43815">
        <ele>580.8</ele>
      </trkpt>
      <trkpt lat="36.78217" lon="30.43822">
        <ele>579.5</ele>
      </trkpt>
      <trkpt lat="36.78198" lon="30.43844">
        <ele>576</ele>
      </trkpt>
      <trkpt lat="36.78198" lon="30.43856">
        <ele>576</ele>
      </trkpt>
      <trkpt lat="36.78199" lon="30.43875">
        <ele>576.3</ele>
      </trkpt>
      <trkpt lat="36.78193" lon="30.43887">
        <ele>575.3</ele>
      </trkpt>
      <trkpt lat="36.78187" lon="30.43902">
        <ele>574</ele>
      </trkpt>
      <trkpt lat="36.78188" lon="30.43917">
        <ele>574.4</ele>
      </trkpt>
      <trkpt lat="36.78195" lon="30.43931">
        <ele>576.2</ele>
      </trkpt>
      <trkpt lat="36.78204" lon="30.43947">
        <ele>578.4</ele>
      </trkpt>
      <trkpt lat="36.78215" lon="30.43944">
        <ele>580.5</ele>
      </trkpt>
      <trkpt lat="36.78226" lon="30.43937">
        <ele>582.5</ele>
      </trkpt>
      <trkpt lat="36.78244" lon="30.43927">
        <ele>585.8</ele>
      </trkpt>
      <trkpt lat="36.78256" lon="30.43918">
        <ele>588.1</ele>
      </trkpt>
      <trkpt lat="36.78266" lon="30.43903">
        <ele>589.9</ele>
      </trkpt>
      <trkpt lat="36.78273" lon="30.43896">
        <ele>591.2</ele>
      </trkpt>
      <trkpt lat="36.78285" lon="30.43889">
        <ele>593.3</ele>
      </trkpt>
      <trkpt lat="36.78293" lon="30.43912">
        <ele>595.1</ele>
      </trkpt>
      <trkpt lat="36.783" lon="30.43908">
        <ele>596.5</ele>
      </trkpt>
      <trkpt lat="36.78303" lon="30.43925">
        <ele>597.3</ele>
      </trkpt>
      <trkpt lat="36.78326" lon="30.43951">
        <ele>601.6</ele>
      </trkpt>
      <trkpt lat="36.78339" lon="30.43968">
        <ele>604.6</ele>
      </trkpt>
      <trkpt lat="36.78352" lon="30.4399">
        <ele>608.3</ele>
      </trkpt>
      <trkpt lat="36.78365" lon="30.44013">
        <ele>612.3</ele>
      </trkpt>
      <trkpt lat="36.78378" lon="30.44023">
        <ele>615.9</ele>
      </trkpt>
      <trkpt lat="36.78388" lon="30.44022">
        <ele>618.7</ele>
      </trkpt>
      <trkpt lat="36.78394" lon="30.44015">
        <ele>620.3</ele>
      </trkpt>
      <trkpt lat="36.78396" lon="30.44001">
        <ele>621</ele>
      </trkpt>
      <trkpt lat="36.78399" lon="30.43991">
        <ele>622</ele>
      </trkpt>
      <trkpt lat="36.7842" lon="30.43967">
        <ele>628.8</ele>
      </trkpt>
      <trkpt lat="36.78421" lon="30.43925">
        <ele>629.5</ele>
      </trkpt>
      <trkpt lat="36.78425" lon="30.43897">
        <ele>630.5</ele>
      </trkpt>
      <trkpt lat="36.78431" lon="30.43884">
        <ele>632.5</ele>
      </trkpt>
      <trkpt lat="36.78438" lon="30.4387">
        <ele>635.1</ele>
      </trkpt>
      <trkpt lat="36.78449" lon="30.43855">
        <ele>639.6</ele>
      </trkpt>
      <trkpt lat="36.78459" lon="30.43844">
        <ele>644.4</ele>
      </trkpt>
      <trkpt lat="36.78468" lon="30.43858">
        <ele>647.8</ele>
      </trkpt>
      <trkpt lat="36.78484" lon="30.43879">
        <ele>653.3</ele>
      </trkpt>
      <trkpt lat="36.7849" lon="30.43902">
        <ele>653.7</ele>
      </trkpt>
      <trkpt lat="36.78491" lon="30.43924">
        <ele>653.2</ele>
      </trkpt>
      <trkpt lat="36.78493" lon="30.43953">
        <ele>655</ele>
      </trkpt>
      <trkpt lat="36.78507" lon="30.43962">
        <ele>660.5</ele>
      </trkpt>
      <trkpt lat="36.7852" lon="30.43979">
        <ele>665.1</ele>
      </trkpt>
      <trkpt lat="36.78507" lon="30.43997">
        <ele>661.9</ele>
      </trkpt>
      <trkpt lat="36.78501" lon="30.44019">
        <ele>659</ele>
      </trkpt>
      <trkpt lat="36.78513" lon="30.44027">
        <ele>661.3</ele>
      </trkpt>
      <trkpt lat="36.7853" lon="30.44036">
        <ele>664.5</ele>
      </trkpt>
      <trkpt lat="36.78551" lon="30.44044">
        <ele>668.4</ele>
      </trkpt>
      <trkpt lat="36.78573" lon="30.4406">
        <ele>670.7</ele>
      </trkpt>
      <trkpt lat="36.78592" lon="30.4407">
        <ele>671.8</ele>
      </trkpt>
      <trkpt lat="36.78603" lon="30.44058">
        <ele>674.8</ele>
      </trkpt>
      <trkpt lat="36.78616" lon="30.44048">
        <ele>677.7</ele>
      </trkpt>
      <trkpt lat="36.78642" lon="30.44037">
        <ele>682.3</ele>
      </trkpt>
      <trkpt lat="36.78659" lon="30.44017">
        <ele>688.2</ele>
      </trkpt>
      <trkpt lat="36.78679" lon="30.43995">
        <ele>697.1</ele>
      </trkpt>
      <trkpt lat="36.78694" lon="30.43993">
        <ele>700.6</ele>
      </trkpt>
      <trkpt lat="36.78706" lon="30.43996">
        <ele>702.6</ele>
      </trkpt>
      <trkpt lat="36.78733" lon="30.44023">
        <ele>705.4</ele>
      </trkpt>
      <trkpt lat="36.78752" lon="30.44066">
        <ele>706.5</ele>
      </trkpt>
      <trkpt lat="36.78753" lon="30.44085">
        <ele>705.5</ele>
      </trkpt>
      <trkpt lat="36.78762" lon="30.44099">
        <ele>709.3</ele>
      </trkpt>
      <trkpt lat="36.78772" lon="30.44102">
        <ele>714.5</ele>
      </trkpt>
      <trkpt lat="36.78781" lon="30.44091">
        <ele>719.6</ele>
      </trkpt>
      <trkpt lat="36.78782" lon="30.44071">
        <ele>721.5</ele>
      </trkpt>
      <trkpt lat="36.78775" lon="30.44029">
        <ele>721.3</ele>
      </trkpt>
      <trkpt lat="36.78776" lon="30.44006">
        <ele>723.4</ele>
      </trkpt>
      <trkpt lat="36.78779" lon="30.43981">
        <ele>727</ele>
      </trkpt>
      <trkpt lat="36.78785" lon="30.43955">
        <ele>731.7</ele>
      </trkpt>
      <trkpt lat="36.78793" lon="30.43946">
        <ele>735.4</ele>
      </trkpt>
      <trkpt lat="36.78799" lon="30.43945">
        <ele>737.4</ele>
      </trkpt>
      <trkpt lat="36.78806" lon="30.43945">
        <ele>739.9</ele>
      </trkpt>
      <trkpt lat="36.78815" lon="30.43957">
        <ele>742.8</ele>
      </trkpt>
      <trkpt lat="36.7882" lon="30.43997">
        <ele>743.9</ele>
      </trkpt>
      <trkpt lat="36.78835" lon="30.44047">
        <ele>748.8</ele>
      </trkpt>
      <trkpt lat="36.78852" lon="30.44083">
        <ele>752.9</ele>
      </trkpt>
      <trkpt lat="36.78855" lon="30.44096">
        <ele>753</ele>
      </trkpt>
      <trkpt lat="36.78859" lon="30.44111">
        <ele>753.6</ele>
      </trkpt>
      <trkpt lat="36.78871" lon="30.44116">
        <ele>756.5</ele>
      </trkpt>
      <trkpt lat="36.7888" lon="30.44111">
        <ele>759.1</ele>
      </trkpt>
      <trkpt lat="36.78891" lon="30.44095">
        <ele>763.9</ele>
      </trkpt>
      <trkpt lat="36.78893" lon="30.44074">
        <ele>765.4</ele>
      </trkpt>
      <trkpt lat="36.78889" lon="30.44038">
        <ele>763.6</ele>
      </trkpt>
      <trkpt lat="36.78892" lon="30.44025">
        <ele>764</ele>
      </trkpt>
      <trkpt lat="36.78901" lon="30.44018">
        <ele>766</ele>
      </trkpt>
      <trkpt lat="36.78916" lon="30.44024">
        <ele>769.9</ele>
      </trkpt>
      <trkpt lat="36.7894" lon="30.44031">
        <ele>771.9</ele>
      </trkpt>
      <trkpt lat="36.7896" lon="30.44024">
        <ele>772.6</ele>
      </trkpt>
      <trkpt lat="36.78989" lon="30.44011">
        <ele>772.8</ele>
      </trkpt>
      <trkpt lat="36.79009" lon="30.44011">
        <ele>773.6</ele>
      </trkpt>
      <trkpt lat="36.79024" lon="30.44012">
        <ele>774.3</ele>
      </trkpt>
      <trkpt lat="36.79038" lon="30.44008">
        <ele>774.3</ele>
      </trkpt>
      <trkpt lat="36.79048" lon="30.43998">
        <ele>773.5</ele>
      </trkpt>
      <trkpt lat="36.79072" lon="30.43974">
        <ele>771.7</ele>
      </trkpt>
      <trkpt lat="36.79099" lon="30.43966">
        <ele>772.8</ele>
      </trkpt>
      <trkpt lat="36.79107" lon="30.43957">
        <ele>772.8</ele>
      </trkpt>
      <trkpt lat="36.79111" lon="30.43938">
        <ele>771.4</ele>
      </trkpt>
      <trkpt lat="36.79137" lon="30.43926">
        <ele>774.2</ele>
      </trkpt>
      <trkpt lat="36.79147" lon="30.43917">
        <ele>775</ele>
      </trkpt>
      <trkpt lat="36.79155" lon="30.43914">
        <ele>776.1</ele>
      </trkpt>
      <trkpt lat="36.79168" lon="30.43914">
        <ele>777.9</ele>
      </trkpt>
      <trkpt lat="36.79184" lon="30.43907">
        <ele>778</ele>
      </trkpt>
      <trkpt lat="36.79192" lon="30.4389">
        <ele>777.8</ele>
      </trkpt>
      <trkpt lat="36.7923" lon="30.43849">
        <ele>780.4</ele>
      </trkpt>
      <trkpt lat="36.79249" lon="30.43849">
        <ele>782.3</ele>
      </trkpt>
      <trkpt lat="36.79269" lon="30.43841">
        <ele>786.4</ele>
      </trkpt>
      <trkpt lat="36.79263" lon="30.43831">
        <ele>786</ele>
      </trkpt>
      <trkpt lat="36.79271" lon="30.43823">
        <ele>788.4</ele>
      </trkpt>
      <trkpt lat="36.79286" lon="30.43815">
        <ele>792.7</ele>
      </trkpt>
      <trkpt lat="36.79306" lon="30.43812">
        <ele>798</ele>
      </trkpt>
      <trkpt lat="36.79336" lon="30.43822">
        <ele>804.4</ele>
      </trkpt>
      <trkpt lat="36.79353" lon="30.43837">
        <ele>809.7</ele>
      </trkpt>
      <trkpt lat="36.79369" lon="30.43873">
        <ele>807.9</ele>
      </trkpt>
      <trkpt lat="36.79411" lon="30.43927">
        <ele>808.7</ele>
      </trkpt>
      <trkpt lat="36.79523" lon="30.44006">
        <ele>826.1</ele>
      </trkpt>
      <trkpt lat="36.79586" lon="30.44052">
        <ele>836.2</ele>
      </trkpt>
      <trkpt lat="36.79646" lon="30.44087">
        <ele>852.3</ele>
      </trkpt>
      <trkpt lat="36.79674" lon="30.44102">
        <ele>861.5</ele>
      </trkpt>
      <trkpt lat="36.79687" lon="30.44125">
        <ele>859.9</ele>
      </trkpt>
      <trkpt lat="36.79737" lon="30.44187">
        <ele>859.9</ele>
      </trkpt>
      <trkpt lat="36.79794" lon="30.442">
        <ele>878.4</ele>
      </trkpt>
      <trkpt lat="36.79821" lon="30.44206">
        <ele>886.4</ele>
      </trkpt>
      <trkpt lat="36.79845" lon="30.44206">
        <ele>894.6</ele>
      </trkpt>
      <trkpt lat="36.7987" lon="30.44218">
        <ele>897.9</ele>
      </trkpt>
      <trkpt lat="36.79961" lon="30.4423">
        <ele>920.6</ele>
      </trkpt>
      <trkpt lat="36.80057" lon="30.4426">
        <ele>939.8</ele>
      </trkpt>
      <trkpt lat="36.80093" lon="30.44262">
        <ele>950.7</ele>
      </trkpt>
      <trkpt lat="36.80104" lon="30.44271">
        <ele>948.8</ele>
      </trkpt>
      <trkpt lat="36.80149" lon="30.44259">
        <ele>962.3</ele>
      </trkpt>
      <trkpt lat="36.80196" lon="30.44243">
        <ele>972.9</ele>
      </trkpt>
      <trkpt lat="36.80166" lon="30.44216">
        <ele>983.1</ele>
      </trkpt>
      <trkpt lat="36.80139" lon="30.44205">
        <ele>984.5</ele>
      </trkpt>
      <trkpt lat="36.80108" lon="30.44202">
        <ele>982</ele>
      </trkpt>
      <trkpt lat="36.80103" lon="30.44195">
        <ele>984.9</ele>
      </trkpt>
      <trkpt lat="36.80109" lon="30.44188">
        <ele>988.8</ele>
      </trkpt>
      <trkpt lat="36.8014" lon="30.44176">
        <ele>997.6</ele>
      </trkpt>
      <trkpt lat="36.80175" lon="30.44162">
        <ele>1006.6</ele>
      </trkpt>
      <trkpt lat="36.80223" lon="30.44147">
        <ele>1015</ele>
      </trkpt>
      <trkpt lat="36.80305" lon="30.44144">
        <ele>1022.6</ele>
      </trkpt>
      <trkpt lat="36.80336" lon="30.44142">
        <ele>1026.4</ele>
      </trkpt>
      <trkpt lat="36.80389" lon="30.44134">
        <ele>1033.7</ele>
      </trkpt>
      <trkpt lat="36.80406" lon="30.44129">
        <ele>1037.4</ele>
      </trkpt>
      <trkpt lat="36.80433" lon="30.44123">
        <ele>1042.3</ele>
      </trkpt>
      <trkpt lat="36.80486" lon="30.44113">
        <ele>1051.4</ele>
      </trkpt>
      <trkpt lat="36.80516" lon="30.44106">
        <ele>1057</ele>
      </trkpt>
      <trkpt lat="36.80536" lon="30.44103">
        <ele>1060</ele>
      </trkpt>
      <trkpt lat="36.80576" lon="30.44092">
        <ele>1068.6</ele>
      </trkpt>
      <trkpt lat="36.80595" lon="30.4409">
        <ele>1074.5</ele>
      </trkpt>
      <trkpt lat="36.80622" lon="30.44093">
        <ele>1082.9</ele>
      </trkpt>
      <trkpt lat="36.80633" lon="30.44098">
        <ele>1084.9</ele>
      </trkpt>
      <trkpt lat="36.80644" lon="30.4411">
        <ele>1084.2</ele>
      </trkpt>
      <trkpt lat="36.80653" lon="30.44121">
        <ele>1083.8</ele>
      </trkpt>
      <trkpt lat="36.80661" lon="30.44133">
        <ele>1082.4</ele>
      </trkpt>
      <trkpt lat="36.80668" lon="30.44129">
        <ele>1086.8</ele>
      </trkpt>
      <trkpt lat="36.80678" lon="30.44137">
        <ele>1087.9</ele>
      </trkpt>
      <trkpt lat="36.8069" lon="30.44141">
        <ele>1091.8</ele>
      </trkpt>
      <trkpt lat="36.80704" lon="30.44148">
        <ele>1095.6</ele>
      </trkpt>
      <trkpt lat="36.80724" lon="30.44164">
        <ele>1099.6</ele>
      </trkpt>
      <trkpt lat="36.8073" lon="30.44168">
        <ele>1101.4</ele>
      </trkpt>
      <trkpt lat="36.80751" lon="30.44171">
        <ele>1110.9</ele>
      </trkpt>
      <trkpt lat="36.80753" lon="30.4418">
        <ele>1110.5</ele>
      </trkpt>
      <trkpt lat="36.80762" lon="30.44182">
        <ele>1109.9</ele>
      </trkpt>
      <trkpt lat="36.80764" lon="30.44174">
        <ele>1110</ele>
      </trkpt>
      <trkpt lat="36.80775" lon="30.44176">
        <ele>1109.3</ele>
      </trkpt>
      <trkpt lat="36.80792" lon="30.44179">
        <ele>1108</ele>
      </trkpt>
      <trkpt lat="36.80802" lon="30.44184">
        <ele>1106.9</ele>
      </trkpt>
      <trkpt lat="36.80817" lon="30.44193">
        <ele>1104.9</ele>
      </trkpt>
      <trkpt lat="36.80829" lon="30.44189">
        <ele>1104.5</ele>
      </trkpt>
      <trkpt lat="36.8084" lon="30.44192">
        <ele>1102.2</ele>
      </trkpt>
      <trkpt lat="36.80854" lon="30.44186">
        <ele>1100.3</ele>
      </trkpt>
      <trkpt lat="36.80865" lon="30.44186">
        <ele>1098.2</ele>
      </trkpt>
      <trkpt lat="36.80872" lon="30.4418">
        <ele>1098.1</ele>
      </trkpt>
      <trkpt lat="36.80876" lon="30.44175">
        <ele>1098.7</ele>
      </trkpt>
      <trkpt lat="36.80886" lon="30.44176">
        <ele>1096.7</ele>
      </trkpt>
      <trkpt lat="36.80895" lon="30.44175">
        <ele>1095.7</ele>
      </trkpt>
      <trkpt lat="36.80903" lon="30.44176">
        <ele>1093.8</ele>
      </trkpt>
      <trkpt lat="36.80917" lon="30.4418">
        <ele>1089.9</ele>
      </trkpt>
      <trkpt lat="36.80931" lon="30.44198">
        <ele>1079.9</ele>
      </trkpt>
      <trkpt lat="36.80946" lon="30.44206">
        <ele>1072.8</ele>
      </trkpt>
      <trkpt lat="36.80956" lon="30.44212">
        <ele>1068.3</ele>
      </trkpt>
      <trkpt lat="36.8097" lon="30.44206">
        <ele>1067</ele>
      </trkpt>
      <trkpt lat="36.80991" lon="30.442">
        <ele>1064.3</ele>
      </trkpt>
      <trkpt lat="36.80996" lon="30.44202">
        <ele>1062.1</ele>
      </trkpt>
      <trkpt lat="36.81003" lon="30.44207">
        <ele>1058</ele>
      </trkpt>
      <trkpt lat="36.81007" lon="30.44213">
        <ele>1053.9</ele>
      </trkpt>
      <trkpt lat="36.81012" lon="30.44221">
        <ele>1048.6</ele>
      </trkpt>
      <trkpt lat="36.81019" lon="30.44225">
        <ele>1044.5</ele>
      </trkpt>
      <trkpt lat="36.81027" lon="30.4423">
        <ele>1039.2</ele>
      </trkpt>
      <trkpt lat="36.81043" lon="30.44236">
        <ele>1030.8</ele>
      </trkpt>
      <trkpt lat="36.81048" lon="30.44233">
        <ele>1030.1</ele>
      </trkpt>
      <trkpt lat="36.81054" lon="30.44234">
        <ele>1027.8</ele>
      </trkpt>
      <trkpt lat="36.8106" lon="30.44237">
        <ele>1024.2</ele>
      </trkpt>
      <trkpt lat="36.8106" lon="30.44241">
        <ele>1022.3</ele>
      </trkpt>
      <trkpt lat="36.81058" lon="30.44246">
        <ele>1021</ele>
      </trkpt>
      <trkpt lat="36.81054" lon="30.44254">
        <ele>1019</ele>
      </trkpt>
      <trkpt lat="36.81055" lon="30.44257">
        <ele>1017.1</ele>
      </trkpt>
      <trkpt lat="36.81059" lon="30.44259">
        <ele>1015.2</ele>
      </trkpt>
      <trkpt lat="36.81067" lon="30.44254">
        <ele>1014.2</ele>
      </trkpt>
      <trkpt lat="36.81075" lon="30.44252">
        <ele>1012.1</ele>
      </trkpt>
      <trkpt lat="36.81094" lon="30.44257">
        <ele>1001.9</ele>
      </trkpt>
      <trkpt lat="36.81103" lon="30.44257">
        <ele>998.3</ele>
      </trkpt>
      <trkpt lat="36.81121" lon="30.44239">
        <ele>998.3</ele>
      </trkpt>
      <trkpt lat="36.81127" lon="30.44244">
        <ele>993.3</ele>
      </trkpt>
      <trkpt lat="36.81134" lon="30.44242">
        <ele>991.1</ele>
      </trkpt>
      <trkpt lat="36.8115" lon="30.44247">
        <ele>980.8</ele>
      </trkpt>
      <trkpt lat="36.81155" lon="30.44242">
        <ele>981.9</ele>
      </trkpt>
      <trkpt lat="36.81176" lon="30.44258">
        <ele>964.5</ele>
      </trkpt>
      <trkpt lat="36.81191" lon="30.44286">
        <ele>945.9</ele>
      </trkpt>
      <trkpt lat="36.81203" lon="30.443">
        <ele>934.6</ele>
      </trkpt>
      <trkpt lat="36.81217" lon="30.44289">
        <ele>933.4</ele>
      </trkpt>
      <trkpt lat="36.81232" lon="30.44268">
        <ele>936.1</ele>
      </trkpt>
      <trkpt lat="36.81256" lon="30.44252">
        <ele>935.1</ele>
      </trkpt>
      <trkpt lat="36.81265" lon="30.44251">
        <ele>935.8</ele>
      </trkpt>
      <trkpt lat="36.81293" lon="30.44266">
        <ele>929.9</ele>
      </trkpt>
      <trkpt lat="36.81312" lon="30.44271">
        <ele>928.3</ele>
      </trkpt>
      <trkpt lat="36.81317" lon="30.4428">
        <ele>924.7</ele>
      </trkpt>
      <trkpt lat="36.8133" lon="30.44286">
        <ele>923</ele>
      </trkpt>
      <trkpt lat="36.81332" lon="30.44296">
        <ele>919.5</ele>
      </trkpt>
      <trkpt lat="36.81353" lon="30.44315">
        <ele>915.3</ele>
      </trkpt>
      <trkpt lat="36.81378" lon="30.44341">
        <ele>913.9</ele>
      </trkpt>
      <trkpt lat="36.81402" lon="30.4435">
        <ele>919.1</ele>
      </trkpt>
      <trkpt lat="36.81406" lon="30.44357">
        <ele>920.5</ele>
      </trkpt>
      <trkpt lat="36.8141" lon="30.44363">
        <ele>921.8</ele>
      </trkpt>
      <trkpt lat="36.81406" lon="30.44394">
        <ele>924.2</ele>
      </trkpt>
      <trkpt lat="36.81397" lon="30.44413">
        <ele>923.6</ele>
      </trkpt>
      <trkpt lat="36.814" lon="30.44451">
        <ele>937.7</ele>
      </trkpt>
      <trkpt lat="36.81383" lon="30.445">
        <ele>952.3</ele>
      </trkpt>
      <trkpt lat="36.81386" lon="30.44522">
        <ele>958.4</ele>
      </trkpt>
      <trkpt lat="36.81378" lon="30.44537">
        <ele>959.6</ele>
      </trkpt>
      <trkpt lat="36.81355" lon="30.44551">
        <ele>957</ele>
      </trkpt>
      <trkpt lat="36.81354" lon="30.44573">
        <ele>961.7</ele>
      </trkpt>
      <trkpt lat="36.81356" lon="30.44591">
        <ele>964.6</ele>
      </trkpt>
      <trkpt lat="36.81361" lon="30.44611">
        <ele>965.5</ele>
      </trkpt>
      <trkpt lat="36.81366" lon="30.44621">
        <ele>967.1</ele>
      </trkpt>
      <trkpt lat="36.81379" lon="30.44618">
        <ele>971.8</ele>
      </trkpt>
      <trkpt lat="36.81389" lon="30.44603">
        <ele>974.2</ele>
      </trkpt>
      <trkpt lat="36.81397" lon="30.4461">
        <ele>977.1</ele>
      </trkpt>
      <trkpt lat="36.81402" lon="30.44603">
        <ele>978.3</ele>
      </trkpt>
      <trkpt lat="36.81414" lon="30.44598">
        <ele>981.3</ele>
      </trkpt>
      <trkpt lat="36.81428" lon="30.44599">
        <ele>985.4</ele>
      </trkpt>
      <trkpt lat="36.81455" lon="30.44599">
        <ele>993.9</ele>
      </trkpt>
      <trkpt lat="36.81495" lon="30.44591">
        <ele>1004.2</ele>
      </trkpt>
      <trkpt lat="36.81513" lon="30.44588">
        <ele>1008.6</ele>
      </trkpt>
      <trkpt lat="36.81552" lon="30.44569">
        <ele>1017.2</ele>
      </trkpt>
      <trkpt lat="36.81584" lon="30.44548">
        <ele>1025.6</ele>
      </trkpt>
      <trkpt lat="36.81592" lon="30.44537">
        <ele>1026.8</ele>
      </trkpt>
      <trkpt lat="36.81606" lon="30.44512">
        <ele>1028.5</ele>
      </trkpt>
      <trkpt lat="36.81648" lon="30.44481">
        <ele>1036.8</ele>
      </trkpt>
      <trkpt lat="36.81661" lon="30.44464">
        <ele>1038.8</ele>
      </trkpt>
      <trkpt lat="36.81682" lon="30.44459">
        <ele>1043.4</ele>
      </trkpt>
      <trkpt lat="36.81695" lon="30.44476">
        <ele>1047.5</ele>
      </trkpt>
      <trkpt lat="36.81732" lon="30.44494">
        <ele>1056.7</ele>
      </trkpt>
      <trkpt lat="36.81742" lon="30.44492">
        <ele>1058.7</ele>
      </trkpt>
      <trkpt lat="36.8177" lon="30.44479">
        <ele>1062.8</ele>
      </trkpt>
      <trkpt lat="36.81786" lon="30.4448">
        <ele>1065.3</ele>
      </trkpt>
      <trkpt lat="36.81795" lon="30.4446">
        <ele>1064.4</ele>
      </trkpt>
      <trkpt lat="36.81808" lon="30.44453">
        <ele>1065</ele>
      </trkpt>
      <trkpt lat="36.81818" lon="30.44476">
        <ele>1069.8</ele>
      </trkpt>
      <trkpt lat="36.81822" lon="30.44501">
        <ele>1074.2</ele>
      </trkpt>
      <trkpt lat="36.81816" lon="30.44522">
        <ele>1076.1</ele>
      </trkpt>
      <trkpt lat="36.81815" lon="30.44536">
        <ele>1077.5</ele>
      </trkpt>
      <trkpt lat="36.81815" lon="30.44545">
        <ele>1079.1</ele>
      </trkpt>
      <trkpt lat="36.81818" lon="30.44549">
        <ele>1080.3</ele>
      </trkpt>
      <trkpt lat="36.81832" lon="30.44554">
        <ele>1084.7</ele>
      </trkpt>
      <trkpt lat="36.81845" lon="30.44556">
        <ele>1086.8</ele>
      </trkpt>
      <trkpt lat="36.81875" lon="30.44572">
        <ele>1094</ele>
      </trkpt>
      <trkpt lat="36.81885" lon="30.44576">
        <ele>1096.3</ele>
      </trkpt>
      <trkpt lat="36.81896" lon="30.44585">
        <ele>1100.1</ele>
      </trkpt>
      <trkpt lat="36.81921" lon="30.44586">
        <ele>1104</ele>
      </trkpt>
      <trkpt lat="36.81942" lon="30.44583">
        <ele>1104.5</ele>
      </trkpt>
      <trkpt lat="36.81965" lon="30.44578">
        <ele>1104.5</ele>
      </trkpt>
      <trkpt lat="36.81989" lon="30.44574">
        <ele>1105.2</ele>
      </trkpt>
      <trkpt lat="36.82001" lon="30.44577">
        <ele>1106.6</ele>
      </trkpt>
      <trkpt lat="36.82014" lon="30.44598">
        <ele>1110.4</ele>
      </trkpt>
      <trkpt lat="36.82018" lon="30.44612">
        <ele>1113.3</ele>
      </trkpt>
      <trkpt lat="36.82027" lon="30.44641">
        <ele>1118.6</ele>
      </trkpt>
      <trkpt lat="36.82031" lon="30.44653">
        <ele>1120.8</ele>
      </trkpt>
      <trkpt lat="36.8207" lon="30.44688">
        <ele>1124.9</ele>
      </trkpt>
      <trkpt lat="36.82089" lon="30.44711">
        <ele>1129.7</ele>
      </trkpt>
      <trkpt lat="36.82114" lon="30.44732">
        <ele>1137.3</ele>
      </trkpt>
      <trkpt lat="36.82136" lon="30.44741">
        <ele>1142</ele>
      </trkpt>
      <trkpt lat="36.8214" lon="30.44751">
        <ele>1145.4</ele>
      </trkpt>
      <trkpt lat="36.82143" lon="30.44759">
        <ele>1147.5</ele>
      </trkpt>
      <trkpt lat="36.82158" lon="30.44762">
        <ele>1150</ele>
      </trkpt>
      <trkpt lat="36.8218" lon="30.44742">
        <ele>1147.3</ele>
      </trkpt>
      <trkpt lat="36.82199" lon="30.44734">
        <ele>1147.3</ele>
      </trkpt>
      <trkpt lat="36.82214" lon="30.44731">
        <ele>1148.5</ele>
      </trkpt>
      <trkpt lat="36.82228" lon="30.44732">
        <ele>1150.8</ele>
      </trkpt>
      <trkpt lat="36.82259" lon="30.44715">
        <ele>1151.5</ele>
      </trkpt>
      <trkpt lat="36.82264" lon="30.44708">
        <ele>1150.9</ele>
      </trkpt>
      <trkpt lat="36.82272" lon="30.44704">
        <ele>1151.4</ele>
      </trkpt>
      <trkpt lat="36.82287" lon="30.44697">
        <ele>1152.5</ele>
      </trkpt>
      <trkpt lat="36.82306" lon="30.44685">
        <ele>1154</ele>
      </trkpt>
      <trkpt lat="36.82317" lon="30.44686">
        <ele>1156.4</ele>
      </trkpt>
      <trkpt lat="36.8233" lon="30.4469">
        <ele>1159.5</ele>
      </trkpt>
      <trkpt lat="36.82355" lon="30.44684">
        <ele>1161.8</ele>
      </trkpt>
      <trkpt lat="36.82381" lon="30.44682">
        <ele>1164.6</ele>
      </trkpt>
      <trkpt lat="36.82397" lon="30.44674">
        <ele>1165.6</ele>
      </trkpt>
      <trkpt lat="36.82409" lon="30.44655">
        <ele>1165.8</ele>
      </trkpt>
      <trkpt lat="36.82429" lon="30.44644">
        <ele>1168.5</ele>
      </trkpt>
      <trkpt lat="36.82443" lon="30.44631">
        <ele>1170.1</ele>
      </trkpt>
      <trkpt lat="36.82458" lon="30.44626">
        <ele>1172</ele>
      </trkpt>
      <trkpt lat="36.82463" lon="30.44612">
        <ele>1171.6</ele>
      </trkpt>
      <trkpt lat="36.8249" lon="30.44596">
        <ele>1173.4</ele>
      </trkpt>
      <trkpt lat="36.82497" lon="30.44582">
        <ele>1172.7</ele>
      </trkpt>
      <trkpt lat="36.82514" lon="30.4458">
        <ele>1175.7</ele>
      </trkpt>
      <trkpt lat="36.82536" lon="30.44583">
        <ele>1179.8</ele>
      </trkpt>
      <trkpt lat="36.82556" lon="30.44579">
        <ele>1183.9</ele>
      </trkpt>
      <trkpt lat="36.82567" lon="30.44556">
        <ele>1186.9</ele>
      </trkpt>
      <trkpt lat="36.82578" lon="30.44544">
        <ele>1189.7</ele>
      </trkpt>
      <trkpt lat="36.82591" lon="30.44549">
        <ele>1191.6</ele>
      </trkpt>
      <trkpt lat="36.82622" lon="30.44547">
        <ele>1195.2</ele>
      </trkpt>
      <trkpt lat="36.82631" lon="30.44539">
        <ele>1196.5</ele>
      </trkpt>
      <trkpt lat="36.82667" lon="30.4452">
        <ele>1200.8</ele>
      </trkpt>
      <trkpt lat="36.82685" lon="30.44519">
        <ele>1202.6</ele>
      </trkpt>
      <trkpt lat="36.827" lon="30.44527">
        <ele>1204.3</ele>
      </trkpt>
      <trkpt lat="36.82717" lon="30.44532">
        <ele>1206.5</ele>
      </trkpt>
      <trkpt lat="36.82727" lon="30.44538">
        <ele>1208.2</ele>
      </trkpt>
      <trkpt lat="36.82741" lon="30.44545">
        <ele>1210.6</ele>
      </trkpt>
      <trkpt lat="36.82747" lon="30.44559">
        <ele>1212.9</ele>
      </trkpt>
      <trkpt lat="36.82768" lon="30.44577">
        <ele>1218.2</ele>
      </trkpt>
      <trkpt lat="36.82778" lon="30.44579">
        <ele>1220.2</ele>
      </trkpt>
      <trkpt lat="36.82821" lon="30.44595">
        <ele>1229.2</ele>
      </trkpt>
      <trkpt lat="36.82856" lon="30.44617">
        <ele>1236.8</ele>
      </trkpt>
      <trkpt lat="36.82868" lon="30.44634">
        <ele>1240.6</ele>
      </trkpt>
      <trkpt lat="36.82895" lon="30.44643">
        <ele>1245.6</ele>
      </trkpt>
      <trkpt lat="36.8292" lon="30.44656">
        <ele>1250.8</ele>
      </trkpt>
      <trkpt lat="36.82949" lon="30.44674">
        <ele>1255.8</ele>
      </trkpt>
      <trkpt lat="36.82976" lon="30.44703">
        <ele>1264.7</ele>
      </trkpt>
      <trkpt lat="36.83006" lon="30.44717">
        <ele>1270.7</ele>
      </trkpt>
      <trkpt lat="36.83038" lon="30.4474">
        <ele>1276</ele>
      </trkpt>
      <trkpt lat="36.83069" lon="30.44752">
        <ele>1277</ele>
      </trkpt>
      <trkpt lat="36.83083" lon="30.4475">
        <ele>1276</ele>
      </trkpt>
      <trkpt lat="36.83087" lon="30.44749">
        <ele>1276.5</ele>
      </trkpt>
      <trkpt lat="36.83115" lon="30.44762">
        <ele>1284.1</ele>
      </trkpt>
      <trkpt lat="36.83147" lon="30.44763">
        <ele>1288.8</ele>
      </trkpt>
      <trkpt lat="36.83175" lon="30.44762">
        <ele>1292.4</ele>
      </trkpt>
      <trkpt lat="36.83228" lon="30.44744">
        <ele>1296</ele>
      </trkpt>
      <trkpt lat="36.8324" lon="30.44747">
        <ele>1297.7</ele>
      </trkpt>
      <trkpt lat="36.83256" lon="30.44747">
        <ele>1300.2</ele>
      </trkpt>
      <trkpt lat="36.83283" lon="30.44738">
        <ele>1305.8</ele>
      </trkpt>
      <trkpt lat="36.83284" lon="30.44731">
        <ele>1305.8</ele>
      </trkpt>
      <trkpt lat="36.83291" lon="30.44718">
        <ele>1306.5</ele>
      </trkpt>
      <trkpt lat="36.83304" lon="30.4471">
        <ele>1308.3</ele>
      </trkpt>
      <trkpt lat="36.83315" lon="30.44703">
        <ele>1309.7</ele>
      </trkpt>
      <trkpt lat="36.83329" lon="30.44689">
        <ele>1310.5</ele>
      </trkpt>
      <trkpt lat="36.83339" lon="30.44678">
        <ele>1310.7</ele>
      </trkpt>
      <trkpt lat="36.83344" lon="30.44669">
        <ele>1310.3</ele>
      </trkpt>
      <trkpt lat="36.83346" lon="30.44657">
        <ele>1312.4</ele>
      </trkpt>
      <trkpt lat="36.83342" lon="30.4465">
        <ele>1313.5</ele>
      </trkpt>
      <trkpt lat="36.83343" lon="30.44646">
        <ele>1314.4</ele>
      </trkpt>
      <trkpt lat="36.83352" lon="30.44647">
        <ele>1315</ele>
      </trkpt>
      <trkpt lat="36.83369" lon="30.44642">
        <ele>1317.1</ele>
      </trkpt>
      <trkpt lat="36.83385" lon="30.44616">
        <ele>1321.9</ele>
      </trkpt>
      <trkpt lat="36.83396" lon="30.44605">
        <ele>1323.7</ele>
      </trkpt>
      <trkpt lat="36.83417" lon="30.44593">
        <ele>1325</ele>
      </trkpt>
      <trkpt lat="36.8344" lon="30.44569">
        <ele>1330.8</ele>
      </trkpt>
      <trkpt lat="36.8345" lon="30.44559">
        <ele>1333.4</ele>
      </trkpt>
      <trkpt lat="36.83465" lon="30.44551">
        <ele>1335.7</ele>
      </trkpt>
      <trkpt lat="36.83488" lon="30.44545">
        <ele>1338</ele>
      </trkpt>
      <trkpt lat="36.83507" lon="30.44544">
        <ele>1339.8</ele>
      </trkpt>
      <trkpt lat="36.83516" lon="30.44544">
        <ele>1341.2</ele>
      </trkpt>
      <trkpt lat="36.83535" lon="30.4454">
        <ele>1344.7</ele>
      </trkpt>
      <trkpt lat="36.83551" lon="30.44543">
        <ele>1346.8</ele>
      </trkpt>
      <trkpt lat="36.83566" lon="30.44555">
        <ele>1348.2</ele>
      </trkpt>
      <trkpt lat="36.83582" lon="30.44583">
        <ele>1348.7</ele>
      </trkpt>
      <trkpt lat="36.83603" lon="30.44601">
        <ele>1352</ele>
      </trkpt>
      <trkpt lat="36.8361" lon="30.44607">
        <ele>1353.1</ele>
      </trkpt>
      <trkpt lat="36.83619" lon="30.44614">
        <ele>1354.6</ele>
      </trkpt>
      <trkpt lat="36.83639" lon="30.44615">
        <ele>1358.7</ele>
      </trkpt>
      <trkpt lat="36.83652" lon="30.44616">
        <ele>1361.2</ele>
      </trkpt>
      <trkpt lat="36.8367" lon="30.44621">
        <ele>1364.9</ele>
      </trkpt>
      <trkpt lat="36.83683" lon="30.44627">
        <ele>1367.1</ele>
      </trkpt>
      <trkpt lat="36.83699" lon="30.44643">
        <ele>1369.7</ele>
      </trkpt>
      <trkpt lat="36.83706" lon="30.44651">
        <ele>1370.7</ele>
      </trkpt>
      <trkpt lat="36.83717" lon="30.44666">
        <ele>1372</ele>
      </trkpt>
      <trkpt lat="36.83711" lon="30.44674">
        <ele>1372.5</ele>
      </trkpt>
      <trkpt lat="36.83692" lon="30.4469">
        <ele>1372.3</ele>
      </trkpt>
      <trkpt lat="36.83683" lon="30.44704">
        <ele>1373.4</ele>
      </trkpt>
      <trkpt lat="36.83676" lon="30.44719">
        <ele>1374.9</ele>
      </trkpt>
      <trkpt lat="36.83673" lon="30.44734">
        <ele>1377.2</ele>
      </trkpt>
      <trkpt lat="36.83677" lon="30.44744">
        <ele>1380.2</ele>
      </trkpt>
      <trkpt lat="36.83677" lon="30.44758">
        <ele>1382.5</ele>
      </trkpt>
      <trkpt lat="36.83689" lon="30.44794">
        <ele>1390.7</ele>
      </trkpt>
      <trkpt lat="36.83697" lon="30.44804">
        <ele>1393.4</ele>
      </trkpt>
      <trkpt lat="36.83702" lon="30.44826">
        <ele>1397.1</ele>
      </trkpt>
      <trkpt lat="36.83708" lon="30.44832">
        <ele>1398.8</ele>
      </trkpt>
      <trkpt lat="36.83717" lon="30.44841">
        <ele>1400.1</ele>
      </trkpt>
      <trkpt lat="36.83695" lon="30.44853">
        <ele>1398.7</ele>
      </trkpt>
      <trkpt lat="36.83671" lon="30.44881">
        <ele>1400.8</ele>
      </trkpt>
      <trkpt lat="36.83675" lon="30.44912">
        <ele>1404.6</ele>
      </trkpt>
      <trkpt lat="36.83713" lon="30.44938">
        <ele>1402.3</ele>
      </trkpt>
      <trkpt lat="36.8376" lon="30.44967">
        <ele>1394.7</ele>
      </trkpt>
      <trkpt lat="36.8378" lon="30.45004">
        <ele>1389.5</ele>
      </trkpt>
      <trkpt lat="36.83816" lon="30.45014">
        <ele>1381.8</ele>
      </trkpt>
      <trkpt lat="36.83854" lon="30.45024">
        <ele>1373.3</ele>
      </trkpt>
      <trkpt lat="36.83879" lon="30.45054">
        <ele>1367.5</ele>
      </trkpt>
      <trkpt lat="36.83903" lon="30.45016">
        <ele>1362.2</ele>
      </trkpt>
      <trkpt lat="36.83925" lon="30.4503">
        <ele>1358.2</ele>
      </trkpt>
      <trkpt lat="36.83945" lon="30.45043">
        <ele>1356</ele>
      </trkpt>
      <trkpt lat="36.83948" lon="30.45055">
        <ele>1354.5</ele>
      </trkpt>
      <trkpt lat="36.83963" lon="30.45066">
        <ele>1351.7</ele>
      </trkpt>
      <trkpt lat="36.83974" lon="30.45078">
        <ele>1348.6</ele>
      </trkpt>
      <trkpt lat="36.8399" lon="30.45089">
        <ele>1345</ele>
      </trkpt>
      <trkpt lat="36.84001" lon="30.45118">
        <ele>1340.5</ele>
      </trkpt>
      <trkpt lat="36.83993" lon="30.45156">
        <ele>1338.8</ele>
      </trkpt>
      <trkpt lat="36.8399" lon="30.45182">
        <ele>1339.5</ele>
      </trkpt>
      <trkpt lat="36.83999" lon="30.45209">
        <ele>1338</ele>
      </trkpt>
      <trkpt lat="36.84026" lon="30.45213">
        <ele>1330.8</ele>
      </trkpt>
      <trkpt lat="36.84041" lon="30.45213">
        <ele>1326.9</ele>
      </trkpt>
      <trkpt lat="36.8406" lon="30.4522">
        <ele>1322</ele>
      </trkpt>
      <trkpt lat="36.84082" lon="30.45223">
        <ele>1316.4</ele>
      </trkpt>
      <trkpt lat="36.84111" lon="30.45224">
        <ele>1310.1</ele>
      </trkpt>
      <trkpt lat="36.84149" lon="30.45224">
        <ele>1302</ele>
      </trkpt>
      <trkpt lat="36.84187" lon="30.45232">
        <ele>1293.8</ele>
      </trkpt>
      <trkpt lat="36.84204" lon="30.45225">
        <ele>1289.4</ele>
      </trkpt>
      <trkpt lat="36.84237" lon="30.45236">
        <ele>1281.9</ele>
      </trkpt>
      <trkpt lat="36.84264" lon="30.45237">
        <ele>1275.7</ele>
      </trkpt>
      <trkpt lat="36.84288" lon="30.4525">
        <ele>1269.9</ele>
      </trkpt>
      <trkpt lat="36.84307" lon="30.45258">
        <ele>1265.1</ele>
      </trkpt>
      <trkpt lat="36.84322" lon="30.45253">
        <ele>1261.5</ele>
      </trkpt>
      <trkpt lat="36.84335" lon="30.45264">
        <ele>1257.9</ele>
      </trkpt>
      <trkpt lat="36.84351" lon="30.45274">
        <ele>1254.2</ele>
      </trkpt>
      <trkpt lat="36.84355" lon="30.45289">
        <ele>1252.8</ele>
      </trkpt>
      <trkpt lat="36.84365" lon="30.4529">
        <ele>1251.1</ele>
      </trkpt>
      <trkpt lat="36.84378" lon="30.45285">
        <ele>1248.9</ele>
      </trkpt>
      <trkpt lat="36.84383" lon="30.45294">
        <ele>1247.8</ele>
      </trkpt>
      <trkpt lat="36.84385" lon="30.45305">
        <ele>1247.2</ele>
      </trkpt>
      <trkpt lat="36.84381" lon="30.45314">
        <ele>1247.6</ele>
      </trkpt>
      <trkpt lat="36.84369" lon="30.45314">
        <ele>1249.5</ele>
      </trkpt>
      <trkpt lat="36.84352" lon="30.45309">
        <ele>1252.5</ele>
      </trkpt>
      <trkpt lat="36.8433" lon="30.45304">
        <ele>1256.6</ele>
      </trkpt>
      <trkpt lat="36.84323" lon="30.45305">
        <ele>1258.8</ele>
      </trkpt>
      <trkpt lat="36.84322" lon="30.45314">
        <ele>1258.7</ele>
      </trkpt>
      <trkpt lat="36.84327" lon="30.45322">
        <ele>1256.6</ele>
      </trkpt>
      <trkpt lat="36.84335" lon="30.45346">
        <ele>1253.5</ele>
      </trkpt>
      <trkpt lat="36.84347" lon="30.45391">
        <ele>1250.8</ele>
      </trkpt>
      <trkpt lat="36.84348" lon="30.45413">
        <ele>1250.1</ele>
      </trkpt>
      <trkpt lat="36.84353" lon="30.45436">
        <ele>1250.1</ele>
      </trkpt>
      <trkpt lat="36.84368" lon="30.45452">
        <ele>1247.7</ele>
      </trkpt>
      <trkpt lat="36.84375" lon="30.45475">
        <ele>1246.2</ele>
      </trkpt>
      <trkpt lat="36.84385" lon="30.45495">
        <ele>1243.4</ele>
      </trkpt>
      <trkpt lat="36.84387" lon="30.45512">
        <ele>1242.6</ele>
      </trkpt>
      <trkpt lat="36.84399" lon="30.45535">
        <ele>1237.7</ele>
      </trkpt>
      <trkpt lat="36.84397" lon="30.45546">
        <ele>1238.2</ele>
      </trkpt>
      <trkpt lat="36.84406" lon="30.45555">
        <ele>1234</ele>
      </trkpt>
      <trkpt lat="36.84413" lon="30.45566">
        <ele>1230.1</ele>
      </trkpt>
      <trkpt lat="36.84423" lon="30.45575">
        <ele>1226.7</ele>
      </trkpt>
      <trkpt lat="36.84425" lon="30.45595">
        <ele>1226.6</ele>
      </trkpt>
      <trkpt lat="36.84426" lon="30.45607">
        <ele>1227.6</ele>
      </trkpt>
      <trkpt lat="36.84427" lon="30.45612">
        <ele>1227.7</ele>
      </trkpt>
      <trkpt lat="36.84442" lon="30.45615">
        <ele>1223.2</ele>
      </trkpt>
      <trkpt lat="36.8445" lon="30.4563">
        <ele>1220.7</ele>
      </trkpt>
      <trkpt lat="36.84464" lon="30.45639">
        <ele>1214.6</ele>
      </trkpt>
      <trkpt lat="36.84486" lon="30.45648">
        <ele>1203.7</ele>
      </trkpt>
      <trkpt lat="36.84497" lon="30.45655">
        <ele>1197.4</ele>
      </trkpt>
      <trkpt lat="36.84512" lon="30.45659">
        <ele>1191.7</ele>
      </trkpt>
      <trkpt lat="36.84523" lon="30.45657">
        <ele>1189.5</ele>
      </trkpt>
      <trkpt lat="36.84544" lon="30.45659">
        <ele>1183.7</ele>
      </trkpt>
      <trkpt lat="36.84551" lon="30.45657">
        <ele>1182.4</ele>
      </trkpt>
      <trkpt lat="36.84562" lon="30.45669">
        <ele>1177.4</ele>
      </trkpt>
      <trkpt lat="36.84565" lon="30.45684">
        <ele>1177</ele>
      </trkpt>
      <trkpt lat="36.84568" lon="30.45699">
        <ele>1176.2</ele>
      </trkpt>
      <trkpt lat="36.84579" lon="30.45711">
        <ele>1172.3</ele>
      </trkpt>
      <trkpt lat="36.8459" lon="30.45718">
        <ele>1168.8</ele>
      </trkpt>
      <trkpt lat="36.84603" lon="30.45721">
        <ele>1165.3</ele>
      </trkpt>
      <trkpt lat="36.84614" lon="30.45725">
        <ele>1162.2</ele>
      </trkpt>
      <trkpt lat="36.84626" lon="30.4573">
        <ele>1158.9</ele>
      </trkpt>
      <trkpt lat="36.84637" lon="30.45736">
        <ele>1156</ele>
      </trkpt>
      <trkpt lat="36.84649" lon="30.45723">
        <ele>1152.7</ele>
      </trkpt>
      <trkpt lat="36.84677" lon="30.45709">
        <ele>1145.7</ele>
      </trkpt>
      <trkpt lat="36.84696" lon="30.45712">
        <ele>1141.7</ele>
      </trkpt>
      <trkpt lat="36.84717" lon="30.45724">
        <ele>1137.4</ele>
      </trkpt>
      <trkpt lat="36.84735" lon="30.45735">
        <ele>1133.4</ele>
      </trkpt>
      <trkpt lat="36.84751" lon="30.45756">
        <ele>1130.3</ele>
      </trkpt>
      <trkpt lat="36.84781" lon="30.45792">
        <ele>1128.6</ele>
      </trkpt>
      <trkpt lat="36.84805" lon="30.45805">
        <ele>1125.6</ele>
      </trkpt>
      <trkpt lat="36.84828" lon="30.45837">
        <ele>1121.6</ele>
      </trkpt>
      <trkpt lat="36.84843" lon="30.45841">
        <ele>1118.7</ele>
      </trkpt>
      <trkpt lat="36.84841" lon="30.45859">
        <ele>1116.9</ele>
      </trkpt>
      <trkpt lat="36.84838" lon="30.45868">
        <ele>1116.6</ele>
      </trkpt>
      <trkpt lat="36.84847" lon="30.45879">
        <ele>1113.2</ele>
      </trkpt>
      <trkpt lat="36.84848" lon="30.45909">
        <ele>1109.2</ele>
      </trkpt>
      <trkpt lat="36.84845" lon="30.45922">
        <ele>1107.9</ele>
      </trkpt>
      <trkpt lat="36.84832" lon="30.4596">
        <ele>1103.5</ele>
      </trkpt>
      <trkpt lat="36.84823" lon="30.46023">
        <ele>1095.2</ele>
      </trkpt>
      <trkpt lat="36.84828" lon="30.46069">
        <ele>1083.7</ele>
      </trkpt>
      <trkpt lat="36.84863" lon="30.46049">
        <ele>1069.7</ele>
      </trkpt>
      <trkpt lat="36.84876" lon="30.46037">
        <ele>1066.4</ele>
      </trkpt>
      <trkpt lat="36.84879" lon="30.46026">
        <ele>1067.3</ele>
      </trkpt>
      <trkpt lat="36.84883" lon="30.46023">
        <ele>1066.4</ele>
      </trkpt>
      <trkpt lat="36.84887" lon="30.46034">
        <ele>1062.3</ele>
      </trkpt>
      <trkpt lat="36.84888" lon="30.46062">
        <ele>1056.1</ele>
      </trkpt>
      <trkpt lat="36.84884" lon="30.46091">
        <ele>1052.7</ele>
      </trkpt>
      <trkpt lat="36.84891" lon="30.46101">
        <ele>1048.5</ele>
      </trkpt>
      <trkpt lat="36.84892" lon="30.4611">
        <ele>1047.5</ele>
      </trkpt>
      <trkpt lat="36.84923" lon="30.46104">
        <ele>1034.2</ele>
      </trkpt>
      <trkpt lat="36.84924" lon="30.46121">
        <ele>1032.1</ele>
      </trkpt>
      <trkpt lat="36.84917" lon="30.46148">
        <ele>1031.3</ele>
      </trkpt>
      <trkpt lat="36.84924" lon="30.46147">
        <ele>1028.9</ele>
      </trkpt>
      <trkpt lat="36.84939" lon="30.46141">
        <ele>1024.5</ele>
      </trkpt>
      <trkpt lat="36.84954" lon="30.46137">
        <ele>1020</ele>
      </trkpt>
      <trkpt lat="36.84965" lon="30.46123">
        <ele>1018.1</ele>
      </trkpt>
      <trkpt lat="36.84964" lon="30.46101">
        <ele>1020.8</ele>
      </trkpt>
      <trkpt lat="36.84969" lon="30.46086">
        <ele>1021.1</ele>
      </trkpt>
      <trkpt lat="36.84976" lon="30.4607">
        <ele>1023.3</ele>
      </trkpt>
      <trkpt lat="36.84982" lon="30.46068">
        <ele>1022.5</ele>
      </trkpt>
      <trkpt lat="36.84985" lon="30.4608">
        <ele>1017.3</ele>
      </trkpt>
      <trkpt lat="36.84982" lon="30.46095">
        <ele>1015.8</ele>
      </trkpt>
      <trkpt lat="36.85033" lon="30.46135">
        <ele>996.4</ele>
      </trkpt>
      <trkpt lat="36.85054" lon="30.46157">
        <ele>985.4</ele>
      </trkpt>
      <trkpt lat="36.85076" lon="30.46187">
        <ele>972.4</ele>
      </trkpt>
      <trkpt lat="36.85079" lon="30.46208">
        <ele>967.7</ele>
      </trkpt>
      <trkpt lat="36.85096" lon="30.46237">
        <ele>959.8</ele>
      </trkpt>
      <trkpt lat="36.85102" lon="30.4625">
        <ele>956.3</ele>
      </trkpt>
      <trkpt lat="36.8512" lon="30.46259">
        <ele>953.1</ele>
      </trkpt>
      <trkpt lat="36.85133" lon="30.46275">
        <ele>949.3</ele>
      </trkpt>
      <trkpt lat="36.8514" lon="30.46282">
        <ele>946.9</ele>
      </trkpt>
      <trkpt lat="36.85156" lon="30.46295">
        <ele>941.6</ele>
      </trkpt>
      <trkpt lat="36.85162" lon="30.46296">
        <ele>939.9</ele>
      </trkpt>
      <trkpt lat="36.85174" lon="30.46298">
        <ele>938.4</ele>
      </trkpt>
      <trkpt lat="36.8518" lon="30.46301">
        <ele>937.7</ele>
      </trkpt>
      <trkpt lat="36.85189" lon="30.46321">
        <ele>933</ele>
      </trkpt>
      <trkpt lat="36.85195" lon="30.46338">
        <ele>929.2</ele>
      </trkpt>
      <trkpt lat="36.85189" lon="30.46363">
        <ele>928.4</ele>
      </trkpt>
      <trkpt lat="36.85189" lon="30.46393">
        <ele>926.7</ele>
      </trkpt>
      <trkpt lat="36.85197" lon="30.46416">
        <ele>923.1</ele>
      </trkpt>
      <trkpt lat="36.85222" lon="30.46441">
        <ele>915.5</ele>
      </trkpt>
      <trkpt lat="36.85233" lon="30.46469">
        <ele>912.6</ele>
      </trkpt>
      <trkpt lat="36.85245" lon="30.46488">
        <ele>908.6</ele>
      </trkpt>
      <trkpt lat="36.85245" lon="30.46519">
        <ele>910.3</ele>
      </trkpt>
      <trkpt lat="36.85251" lon="30.46533">
        <ele>909</ele>
      </trkpt>
      <trkpt lat="36.85259" lon="30.46556">
        <ele>908.1</ele>
      </trkpt>
      <trkpt lat="36.85285" lon="30.46591">
        <ele>902.3</ele>
      </trkpt>
      <trkpt lat="36.85314" lon="30.4663">
        <ele>900.5</ele>
      </trkpt>
      <trkpt lat="36.85347" lon="30.46652">
        <ele>896.6</ele>
      </trkpt>
      <trkpt lat="36.85366" lon="30.46661">
        <ele>894.6</ele>
      </trkpt>
      <trkpt lat="36.85383" lon="30.46662">
        <ele>891.1</ele>
      </trkpt>
      <trkpt lat="36.85407" lon="30.46649">
        <ele>882.5</ele>
      </trkpt>
      <trkpt lat="36.85425" lon="30.46659">
        <ele>879.9</ele>
      </trkpt>
      <trkpt lat="36.85433" lon="30.46676">
        <ele>879.4</ele>
      </trkpt>
      <trkpt lat="36.85456" lon="30.467">
        <ele>873.4</ele>
      </trkpt>
      <trkpt lat="36.85466" lon="30.4672">
        <ele>872.3</ele>
      </trkpt>
      <trkpt lat="36.85466" lon="30.46735">
        <ele>874.5</ele>
      </trkpt>
      <trkpt lat="36.85456" lon="30.46765">
        <ele>881.2</ele>
      </trkpt>
      <trkpt lat="36.85468" lon="30.46833">
        <ele>883.9</ele>
      </trkpt>
      <trkpt lat="36.85487" lon="30.46854">
        <ele>877.4</ele>
      </trkpt>
      <trkpt lat="36.85494" lon="30.46867">
        <ele>874.8</ele>
      </trkpt>
      <trkpt lat="36.85501" lon="30.46897">
        <ele>872.1</ele>
      </trkpt>
      <trkpt lat="36.855" lon="30.46973">
        <ele>866.8</ele>
      </trkpt>
      <trkpt lat="36.85489" lon="30.46994">
        <ele>869.8</ele>
      </trkpt>
      <trkpt lat="36.85488" lon="30.47017">
        <ele>870.2</ele>
      </trkpt>
      <trkpt lat="36.85497" lon="30.4704">
        <ele>866</ele>
      </trkpt>
      <trkpt lat="36.85514" lon="30.47066">
        <ele>860.8</ele>
      </trkpt>
      <trkpt lat="36.85537" lon="30.4714">
        <ele>854.5</ele>
      </trkpt>
      <trkpt lat="36.85548" lon="30.47222">
        <ele>846.7</ele>
      </trkpt>
      <trkpt lat="36.85546" lon="30.47252">
        <ele>845</ele>
      </trkpt>
      <trkpt lat="36.85559" lon="30.47283">
        <ele>838.2</ele>
      </trkpt>
      <trkpt lat="36.85562" lon="30.47305">
        <ele>835.9</ele>
      </trkpt>
      <trkpt lat="36.85547" lon="30.47372">
        <ele>838.3</ele>
      </trkpt>
      <trkpt lat="36.85549" lon="30.47395">
        <ele>834.7</ele>
      </trkpt>
      <trkpt lat="36.85543" lon="30.47432">
        <ele>834.4</ele>
      </trkpt>
      <trkpt lat="36.85546" lon="30.47462">
        <ele>832.8</ele>
      </trkpt>
      <trkpt lat="36.85555" lon="30.47476">
        <ele>829.8</ele>
      </trkpt>
      <trkpt lat="36.8557" lon="30.4748">
        <ele>825.5</ele>
      </trkpt>
      <trkpt lat="36.85595" lon="30.47467">
        <ele>819</ele>
      </trkpt>
      <trkpt lat="36.85621" lon="30.47441">
        <ele>813.2</ele>
      </trkpt>
      <trkpt lat="36.8565" lon="30.47436">
        <ele>808.3</ele>
      </trkpt>
      <trkpt lat="36.85679" lon="30.47445">
        <ele>803.9</ele>
      </trkpt>
      <trkpt lat="36.85696" lon="30.47444">
        <ele>799.7</ele>
      </trkpt>
      <trkpt lat="36.85709" lon="30.47429">
        <ele>796.2</ele>
      </trkpt>
      <trkpt lat="36.85717" lon="30.47386">
        <ele>795.2</ele>
      </trkpt>
      <trkpt lat="36.85718" lon="30.47313">
        <ele>797.3</ele>
      </trkpt>
      <trkpt lat="36.85719" lon="30.47243">
        <ele>800.7</ele>
      </trkpt>
      <trkpt lat="36.85725" lon="30.47183">
        <ele>805.1</ele>
      </trkpt>
      <trkpt lat="36.85735" lon="30.47153">
        <ele>805.6</ele>
      </trkpt>
      <trkpt lat="36.85743" lon="30.47143">
        <ele>805</ele>
      </trkpt>
      <trkpt lat="36.85762" lon="30.47133">
        <ele>803.5</ele>
      </trkpt>
      <trkpt lat="36.85774" lon="30.47123">
        <ele>803.7</ele>
      </trkpt>
      <trkpt lat="36.85788" lon="30.4711">
        <ele>804</ele>
      </trkpt>
      <trkpt lat="36.85864" lon="30.47063">
        <ele>804</ele>
      </trkpt>
      <trkpt lat="36.8587" lon="30.47059">
        <ele>804</ele>
      </trkpt>
      <trkpt lat="36.85923" lon="30.47018">
        <ele>804.1</ele>
      </trkpt>
      <trkpt lat="36.85939" lon="30.46998">
        <ele>803.4</ele>
      </trkpt>
      <trkpt lat="36.85948" lon="30.46968">
        <ele>799.6</ele>
      </trkpt>
      <trkpt lat="36.85946" lon="30.46947">
        <ele>798.7</ele>
      </trkpt>
      <trkpt lat="36.85935" lon="30.46941">
        <ele>799.9</ele>
      </trkpt>
      <trkpt lat="36.85899" lon="30.46936">
        <ele>807.1</ele>
      </trkpt>
      <trkpt lat="36.85883" lon="30.46921">
        <ele>810.5</ele>
      </trkpt>
      <trkpt lat="36.85855" lon="30.46872">
        <ele>805.1</ele>
      </trkpt>
      <trkpt lat="36.85823" lon="30.46833">
        <ele>801.9</ele>
      </trkpt>
      <trkpt lat="36.8579" lon="30.46801">
        <ele>804.3</ele>
      </trkpt>
      <trkpt lat="36.85766" lon="30.46772">
        <ele>804.6</ele>
      </trkpt>
      <trkpt lat="36.85754" lon="30.46737">
        <ele>801.3</ele>
      </trkpt>
      <trkpt lat="36.85755" lon="30.46713">
        <ele>798.2</ele>
      </trkpt>
      <trkpt lat="36.85759" lon="30.46694">
        <ele>795.2</ele>
      </trkpt>
      <trkpt lat="36.85757" lon="30.46663">
        <ele>791.8</ele>
      </trkpt>
      <trkpt lat="36.85746" lon="30.46632">
        <ele>789.3</ele>
      </trkpt>
      <trkpt lat="36.85726" lon="30.46617">
        <ele>791.8</ele>
      </trkpt>
      <trkpt lat="36.85699" lon="30.46612">
        <ele>797.6</ele>
      </trkpt>
      <trkpt lat="36.85692" lon="30.4661">
        <ele>799.1</ele>
      </trkpt>
      <trkpt lat="36.85688" lon="30.46603">
        <ele>799.1</ele>
      </trkpt>
      <trkpt lat="36.85692" lon="30.46595">
        <ele>797.1</ele>
      </trkpt>
      <trkpt lat="36.85721" lon="30.46605">
        <ele>791.1</ele>
      </trkpt>
      <trkpt lat="36.85753" lon="30.46604">
        <ele>782.9</ele>
      </trkpt>
      <trkpt lat="36.85776" lon="30.46616">
        <ele>780.2</ele>
      </trkpt>
      <trkpt lat="36.85795" lon="30.46634">
        <ele>778.8</ele>
      </trkpt>
      <trkpt lat="36.85838" lon="30.46646">
        <ele>770.9</ele>
      </trkpt>
      <trkpt lat="36.85858" lon="30.46653">
        <ele>767.8</ele>
      </trkpt>
      <trkpt lat="36.85876" lon="30.4667">
        <ele>765.5</ele>
      </trkpt>
      <trkpt lat="36.85882" lon="30.46702">
        <ele>766.6</ele>
      </trkpt>
      <trkpt lat="36.85876" lon="30.4674">
        <ele>770.5</ele>
      </trkpt>
      <trkpt lat="36.85889" lon="30.4676">
        <ele>770.1</ele>
      </trkpt>
      <trkpt lat="36.85908" lon="30.46751">
        <ele>764</ele>
      </trkpt>
      <trkpt lat="36.85922" lon="30.46652">
        <ele>754.9</ele>
      </trkpt>
      <trkpt lat="36.85921" lon="30.4658">
        <ele>750.3</ele>
      </trkpt>
      <trkpt lat="36.85902" lon="30.46544">
        <ele>753.6</ele>
      </trkpt>
      <trkpt lat="36.85951" lon="30.46554">
        <ele>745.6</ele>
      </trkpt>
      <trkpt lat="36.85982" lon="30.46582">
        <ele>740.2</ele>
      </trkpt>
      <trkpt lat="36.86" lon="30.46622">
        <ele>738.4</ele>
      </trkpt>
      <trkpt lat="36.86041" lon="30.46659">
        <ele>731.8</ele>
      </trkpt>
      <trkpt lat="36.86095" lon="30.46678">
        <ele>723.1</ele>
      </trkpt>
      <trkpt lat="36.861" lon="30.46702">
        <ele>725.5</ele>
      </trkpt>
      <trkpt lat="36.8614" lon="30.46755">
        <ele>718.4</ele>
      </trkpt>
      <trkpt lat="36.86155" lon="30.4679">
        <ele>718.6</ele>
      </trkpt>
      <trkpt lat="36.86174" lon="30.46809">
        <ele>714.5</ele>
      </trkpt>
      <trkpt lat="36.86181" lon="30.46833">
        <ele>715.9</ele>
      </trkpt>
      <trkpt lat="36.86176" lon="30.4686">
        <ele>722.5</ele>
      </trkpt>
      <trkpt lat="36.8618" lon="30.46882">
        <ele>725</ele>
      </trkpt>
      <trkpt lat="36.86197" lon="30.46908">
        <ele>721.7</ele>
      </trkpt>
      <trkpt lat="36.8622" lon="30.46973">
        <ele>716.5</ele>
      </trkpt>
      <trkpt lat="36.86229" lon="30.47001">
        <ele>714.4</ele>
      </trkpt>
      <trkpt lat="36.86282" lon="30.47094">
        <ele>703.8</ele>
      </trkpt>
      <trkpt lat="36.86326" lon="30.47144">
        <ele>689.9</ele>
      </trkpt>
      <trkpt lat="36.86346" lon="30.472">
        <ele>683.6</ele>
      </trkpt>
      <trkpt lat="36.86355" lon="30.47235">
        <ele>682.1</ele>
      </trkpt>
      <trkpt lat="36.86384" lon="30.47317">
        <ele>675.3</ele>
      </trkpt>
      <trkpt lat="36.86399" lon="30.47337">
        <ele>670.8</ele>
      </trkpt>
      <trkpt lat="36.86402" lon="30.47346">
        <ele>669.7</ele>
      </trkpt>
      <trkpt lat="36.86426" lon="30.47442">
        <ele>662.7</ele>
      </trkpt>
      <trkpt lat="36.86446" lon="30.47478">
        <ele>661.9</ele>
      </trkpt>
      <trkpt lat="36.86486" lon="30.47537">
        <ele>658.7</ele>
      </trkpt>
      <trkpt lat="36.8649" lon="30.47546">
        <ele>658.4</ele>
      </trkpt>
      <trkpt lat="36.86494" lon="30.47569">
        <ele>658.3</ele>
      </trkpt>
      <trkpt lat="36.86487" lon="30.47612">
        <ele>656.1</ele>
      </trkpt>
      <trkpt lat="36.86465" lon="30.47661">
        <ele>652.3</ele>
      </trkpt>
      <trkpt lat="36.86451" lon="30.47685">
        <ele>650.1</ele>
      </trkpt>
      <trkpt lat="36.86407" lon="30.47717">
        <ele>650</ele>
      </trkpt>
      <trkpt lat="36.86405" lon="30.4773">
        <ele>648.7</ele>
      </trkpt>
      <trkpt lat="36.86421" lon="30.47761">
        <ele>643.4</ele>
      </trkpt>
      <trkpt lat="36.86415" lon="30.47776">
        <ele>642.4</ele>
      </trkpt>
      <trkpt lat="36.86405" lon="30.47792">
        <ele>641.9</ele>
      </trkpt>
      <trkpt lat="36.86407" lon="30.47798">
        <ele>640.9</ele>
      </trkpt>
      <trkpt lat="36.86415" lon="30.47806">
        <ele>639.3</ele>
      </trkpt>
      <trkpt lat="36.8644" lon="30.47805">
        <ele>636.4</ele>
      </trkpt>
      <trkpt lat="36.86463" lon="30.47817">
        <ele>632.4</ele>
      </trkpt>
      <trkpt lat="36.86473" lon="30.47833">
        <ele>629.3</ele>
      </trkpt>
      <trkpt lat="36.86473" lon="30.47854">
        <ele>627.8</ele>
      </trkpt>
      <trkpt lat="36.86467" lon="30.47879">
        <ele>626.7</ele>
      </trkpt>
      <trkpt lat="36.86458" lon="30.47924">
        <ele>624.3</ele>
      </trkpt>
      <trkpt lat="36.86452" lon="30.47937">
        <ele>623.6</ele>
      </trkpt>
      <trkpt lat="36.86426" lon="30.47955">
        <ele>624.4</ele>
      </trkpt>
      <trkpt lat="36.86408" lon="30.47988">
        <ele>623.6</ele>
      </trkpt>
      <trkpt lat="36.86397" lon="30.48021">
        <ele>625.1</ele>
      </trkpt>
      <trkpt lat="36.864" lon="30.48038">
        <ele>624.4</ele>
      </trkpt>
      <trkpt lat="36.8642" lon="30.48056">
        <ele>619.6</ele>
      </trkpt>
      <trkpt lat="36.86443" lon="30.48073">
        <ele>616.7</ele>
      </trkpt>
      <trkpt lat="36.86465" lon="30.48078">
        <ele>613.8</ele>
      </trkpt>
      <trkpt lat="36.86506" lon="30.48048">
        <ele>609.5</ele>
      </trkpt>
      <trkpt lat="36.86533" lon="30.48052">
        <ele>604.2</ele>
      </trkpt>
      <trkpt lat="36.86544" lon="30.48073">
        <ele>600.7</ele>
      </trkpt>
      <trkpt lat="36.8655" lon="30.48087">
        <ele>598.6</ele>
      </trkpt>
      <trkpt lat="36.8656" lon="30.48089">
        <ele>596.3</ele>
      </trkpt>
      <trkpt lat="36.86575" lon="30.48107">
        <ele>591.7</ele>
      </trkpt>
      <trkpt lat="36.86635" lon="30.4812">
        <ele>570.4</ele>
      </trkpt>
      <trkpt lat="36.86661" lon="30.48116">
        <ele>561.6</ele>
      </trkpt>
      <trkpt lat="36.86711" lon="30.48128">
        <ele>541.9</ele>
      </trkpt>
      <trkpt lat="36.86764" lon="30.48132">
        <ele>522.1</ele>
      </trkpt>
      <trkpt lat="36.868" lon="30.48138">
        <ele>510</ele>
      </trkpt>
      <trkpt lat="36.86816" lon="30.48156">
        <ele>503.8</ele>
      </trkpt>
      <trkpt lat="36.86826" lon="30.48156">
        <ele>500.8</ele>
      </trkpt>
      <trkpt lat="36.86836" lon="30.48145">
        <ele>498.3</ele>
      </trkpt>
      <trkpt lat="36.8685" lon="30.48146">
        <ele>494.8</ele>
      </trkpt>
      <trkpt lat="36.8686" lon="30.48141">
        <ele>492.8</ele>
      </trkpt>
      <trkpt lat="36.86867" lon="30.48145">
        <ele>490.7</ele>
      </trkpt>
      <trkpt lat="36.86871" lon="30.48162">
        <ele>488.8</ele>
      </trkpt>
      <trkpt lat="36.86868" lon="30.48193">
        <ele>486</ele>
      </trkpt>
      <trkpt lat="36.86849" lon="30.48247">
        <ele>483.9</ele>
      </trkpt>
      <trkpt lat="36.86832" lon="30.48263">
        <ele>484.4</ele>
      </trkpt>
      <trkpt lat="36.86798" lon="30.48281">
        <ele>489.4</ele>
      </trkpt>
      <trkpt lat="36.86782" lon="30.48342">
        <ele>479.7</ele>
      </trkpt>
      <trkpt lat="36.86772" lon="30.48405">
        <ele>468.4</ele>
      </trkpt>
      <trkpt lat="36.86745" lon="30.48451">
        <ele>465</ele>
      </trkpt>
      <trkpt lat="36.86756" lon="30.48468">
        <ele>458.7</ele>
      </trkpt>
      <trkpt lat="36.86765" lon="30.48475">
        <ele>455.5</ele>
      </trkpt>
      <trkpt lat="36.86781" lon="30.48459">
        <ele>455.5</ele>
      </trkpt>
      <trkpt lat="36.86803" lon="30.48442">
        <ele>453.7</ele>
      </trkpt>
      <trkpt lat="36.86815" lon="30.48387">
        <ele>461.8</ele>
      </trkpt>
      <trkpt lat="36.8683" lon="30.48369">
        <ele>461.5</ele>
      </trkpt>
      <trkpt lat="36.86853" lon="30.48362">
        <ele>458.6</ele>
      </trkpt>
      <trkpt lat="36.86881" lon="30.48366">
        <ele>452.6</ele>
      </trkpt>
      <trkpt lat="36.86903" lon="30.48369">
        <ele>448.2</ele>
      </trkpt>
      <trkpt lat="36.86925" lon="30.48362">
        <ele>445.5</ele>
      </trkpt>
      <trkpt lat="36.86933" lon="30.4835">
        <ele>446</ele>
      </trkpt>
      <trkpt lat="36.8694" lon="30.48335">
        <ele>447.3</ele>
      </trkpt>
      <trkpt lat="36.86959" lon="30.4831">
        <ele>447.5</ele>
      </trkpt>
      <trkpt lat="36.86973" lon="30.48307">
        <ele>444.8</ele>
      </trkpt>
      <trkpt lat="36.86987" lon="30.48297">
        <ele>442.8</ele>
      </trkpt>
      <trkpt lat="36.8702" lon="30.48237">
        <ele>439.6</ele>
      </trkpt>
      <trkpt lat="36.87039" lon="30.48218">
        <ele>434.9</ele>
      </trkpt>
      <trkpt lat="36.87068" lon="30.48204">
        <ele>426.2</ele>
      </trkpt>
      <trkpt lat="36.87076" lon="30.48205">
        <ele>423.2</ele>
      </trkpt>
      <trkpt lat="36.87091" lon="30.48219">
        <ele>418.7</ele>
      </trkpt>
      <trkpt lat="36.87096" lon="30.48221">
        <ele>417.8</ele>
      </trkpt>
      <trkpt lat="36.87101" lon="30.4822">
        <ele>417</ele>
      </trkpt>
      <trkpt lat="36.87148" lon="30.48168">
        <ele>411.3</ele>
      </trkpt>
      <trkpt lat="36.8716" lon="30.48152">
        <ele>411.1</ele>
      </trkpt>
      <trkpt lat="36.87162" lon="30.48136">
        <ele>412.8</ele>
      </trkpt>
      <trkpt lat="36.8716" lon="30.48123">
        <ele>414.9</ele>
      </trkpt>
      <trkpt lat="36.87166" lon="30.48115">
        <ele>415</ele>
      </trkpt>
      <trkpt lat="36.87174" lon="30.48113">
        <ele>413.6</ele>
      </trkpt>
      <trkpt lat="36.87186" lon="30.48118">
        <ele>410.6</ele>
      </trkpt>
      <trkpt lat="36.8719" lon="30.48113">
        <ele>410.5</ele>
      </trkpt>
      <trkpt lat="36.87191" lon="30.48104">
        <ele>411.6</ele>
      </trkpt>
      <trkpt lat="36.87194" lon="30.48102">
        <ele>411.3</ele>
      </trkpt>
      <trkpt lat="36.87206" lon="30.48103">
        <ele>408.8</ele>
      </trkpt>
      <trkpt lat="36.87211" lon="30.48112">
        <ele>406.5</ele>
      </trkpt>
      <trkpt lat="36.87218" lon="30.48117">
        <ele>404.4</ele>
      </trkpt>
      <trkpt lat="36.87226" lon="30.48118">
        <ele>402.8</ele>
      </trkpt>
      <trkpt lat="36.87233" lon="30.48115">
        <ele>401.7</ele>
      </trkpt>
      <trkpt lat="36.87241" lon="30.48107">
        <ele>401.3</ele>
      </trkpt>
      <trkpt lat="36.87255" lon="30.48107">
        <ele>399.8</ele>
      </trkpt>
      <trkpt lat="36.8726" lon="30.4811">
        <ele>399.6</ele>
      </trkpt>
      <trkpt lat="36.87267" lon="30.4812">
        <ele>398.5</ele>
      </trkpt>
      <trkpt lat="36.87272" lon="30.48125">
        <ele>397.9</ele>
      </trkpt>
      <trkpt lat="36.87276" lon="30.48153">
        <ele>394.2</ele>
      </trkpt>
      <trkpt lat="36.87301" lon="30.48197">
        <ele>391</ele>
      </trkpt>
      <trkpt lat="36.87328" lon="30.48245">
        <ele>387.4</ele>
      </trkpt>
      <trkpt lat="36.8736" lon="30.48262">
        <ele>391.4</ele>
      </trkpt>
      <trkpt lat="36.87373" lon="30.48265">
        <ele>393.3</ele>
      </trkpt>
      <trkpt lat="36.87376" lon="30.48267">
        <ele>393.7</ele>
      </trkpt>
      <trkpt lat="36.87384" lon="30.48273">
        <ele>394.8</ele>
      </trkpt>
      <trkpt lat="36.8739" lon="30.48278">
        <ele>395.6</ele>
      </trkpt>
      <trkpt lat="36.87408" lon="30.48293">
        <ele>397.5</ele>
      </trkpt>
      <trkpt lat="36.87417" lon="30.48305">
        <ele>398.1</ele>
      </trkpt>
      <trkpt lat="36.87423" lon="30.48327">
        <ele>399.6</ele>
      </trkpt>
      <trkpt lat="36.87424" lon="30.48337">
        <ele>399.6</ele>
      </trkpt>
      <trkpt lat="36.87425" lon="30.48349">
        <ele>399.7</ele>
      </trkpt>
      <trkpt lat="36.87422" lon="30.48439">
        <ele>398.5</ele>
      </trkpt>
      <trkpt lat="36.87418" lon="30.48463">
        <ele>398.7</ele>
      </trkpt>
      <trkpt lat="36.87399" lon="30.48508">
        <ele>397.2</ele>
      </trkpt>
      <trkpt lat="36.87387" lon="30.48529">
        <ele>395.6</ele>
      </trkpt>
      <trkpt lat="36.87368" lon="30.48563">
        <ele>393</ele>
      </trkpt>
      <trkpt lat="36.87362" lon="30.48579">
        <ele>392.2</ele>
      </trkpt>
      <trkpt lat="36.8736" lon="30.48591">
        <ele>391.6</ele>
      </trkpt>
      <trkpt lat="36.8736" lon="30.48618">
        <ele>390</ele>
      </trkpt>
      <trkpt lat="36.87364" lon="30.48632">
        <ele>389.9</ele>
      </trkpt>
      <trkpt lat="36.87369" lon="30.48639">
        <ele>390.2</ele>
      </trkpt>
      <trkpt lat="36.87387" lon="30.48648">
        <ele>392.3</ele>
      </trkpt>
      <trkpt lat="36.87405" lon="30.48649">
        <ele>394.8</ele>
      </trkpt>
      <trkpt lat="36.87437" lon="30.48635">
        <ele>399.1</ele>
      </trkpt>
      <trkpt lat="36.87455" lon="30.48634">
        <ele>400.1</ele>
      </trkpt>
      <trkpt lat="36.87471" lon="30.48638">
        <ele>400.3</ele>
      </trkpt>
      <trkpt lat="36.87495" lon="30.48644">
        <ele>401</ele>
      </trkpt>
      <trkpt lat="36.87523" lon="30.48658">
        <ele>400.4</ele>
      </trkpt>
      <trkpt lat="36.87534" lon="30.48661">
        <ele>400.4</ele>
      </trkpt>
      <trkpt lat="36.87545" lon="30.48657">
        <ele>401.2</ele>
      </trkpt>
      <trkpt lat="36.8757" lon="30.48644">
        <ele>403.5</ele>
      </trkpt>
      <trkpt lat="36.87588" lon="30.48639">
        <ele>404.9</ele>
      </trkpt>
      <trkpt lat="36.87608" lon="30.48643">
        <ele>405.7</ele>
      </trkpt>
      <trkpt lat="36.87625" lon="30.4865">
        <ele>405.5</ele>
      </trkpt>
      <trkpt lat="36.87639" lon="30.48647">
        <ele>407</ele>
      </trkpt>
      <trkpt lat="36.87649" lon="30.48635">
        <ele>410.2</ele>
      </trkpt>
      <trkpt lat="36.87656" lon="30.48617">
        <ele>414.8</ele>
      </trkpt>
      <trkpt lat="36.8766" lon="30.48597">
        <ele>419.9</ele>
      </trkpt>
      <trkpt lat="36.87663" lon="30.48589">
        <ele>422</ele>
      </trkpt>
      <trkpt lat="36.87666" lon="30.48586">
        <ele>423.2</ele>
      </trkpt>
      <trkpt lat="36.87669" lon="30.48589">
        <ele>423.7</ele>
      </trkpt>
      <trkpt lat="36.87673" lon="30.48602">
        <ele>422.4</ele>
      </trkpt>
      <trkpt lat="36.87682" lon="30.48615">
        <ele>423.2</ele>
      </trkpt>
      <trkpt lat="36.87688" lon="30.48616">
        <ele>425.4</ele>
      </trkpt>
      <trkpt lat="36.87698" lon="30.48611">
        <ele>430.7</ele>
      </trkpt>
      <trkpt lat="36.87698" lon="30.48611">
        <ele>430.7</ele>
      </trkpt>
      <trkpt lat="36.87727" lon="30.48681">
        <ele>429.6</ele>
      </trkpt>
      <trkpt lat="36.87714" lon="30.48825">
        <ele>407.3</ele>
      </trkpt>
      <trkpt lat="36.87746" lon="30.49058">
        <ele>401.7</ele>
      </trkpt>
      <trkpt lat="36.87717" lon="30.49118">
        <ele>393</ele>
      </trkpt>
      <trkpt lat="36.87644" lon="30.49178">
        <ele>372.7</ele>
      </trkpt>
      <trkpt lat="36.87602" lon="30.49294">
        <ele>371.1</ele>
      </trkpt>
      <trkpt lat="36.8764" lon="30.49538">
        <ele>365.4</ele>
      </trkpt>
      <trkpt lat="36.87621" lon="30.49622">
        <ele>356.7</ele>
      </trkpt>
      <trkpt lat="36.87589" lon="30.49826">
        <ele>340</ele>
      </trkpt>
      <trkpt lat="36.87615" lon="30.49881">
        <ele>339.9</ele>
      </trkpt>
      <trkpt lat="36.87617" lon="30.49928">
        <ele>332.3</ele>
      </trkpt>
      <trkpt lat="36.8761" lon="30.49973">
        <ele>322.5</ele>
      </trkpt>
      <trkpt lat="36.87638" lon="30.50036">
        <ele>324.1</ele>
      </trkpt>
      <trkpt lat="36.87631" lon="30.50129">
        <ele>313</ele>
      </trkpt>
      <trkpt lat="36.87616" lon="30.50201">
        <ele>300.3</ele>
      </trkpt>
      <trkpt lat="36.87663" lon="30.50425">
        <ele>299.5</ele>
      </trkpt>
      <trkpt lat="36.87678" lon="30.5051">
        <ele>289.9</ele>
      </trkpt>
      <trkpt lat="36.87735" lon="30.50563">
        <ele>288.4</ele>
      </trkpt>
      <trkpt lat="36.87731" lon="30.50611">
        <ele>280.4</ele>
      </trkpt>
      <trkpt lat="36.87687" lon="30.50833">
        <ele>250.5</ele>
      </trkpt>
      <trkpt lat="36.8768" lon="30.50929">
        <ele>251.1</ele>
      </trkpt>
      <trkpt lat="36.87654" lon="30.51019">
        <ele>235.6</ele>
      </trkpt>
      <trkpt lat="36.87668" lon="30.51078">
        <ele>234.1</ele>
      </trkpt>
      <trkpt lat="36.87794" lon="30.51206">
        <ele>230.6</ele>
      </trkpt>
      <trkpt lat="36.87821" lon="30.51262">
        <ele>226.1</ele>
      </trkpt>
      <trkpt lat="36.8781" lon="30.51312">
        <ele>221.9</ele>
      </trkpt>
      <trkpt lat="36.87761" lon="30.51386">
        <ele>214.4</ele>
      </trkpt>
      <trkpt lat="36.8772" lon="30.51426">
        <ele>212.1</ele>
      </trkpt>
      <trkpt lat="36.87699" lon="30.51452">
        <ele>210.1</ele>
      </trkpt>
      <trkpt lat="36.87677" lon="30.51471">
        <ele>207.4</ele>
      </trkpt>
      <trkpt lat="36.87643" lon="30.51561">
        <ele>197.5</ele>
      </trkpt>
      <trkpt lat="36.87647" lon="30.51597">
        <ele>194.5</ele>
      </trkpt>
      <trkpt lat="36.8766" lon="30.51616">
        <ele>194.4</ele>
      </trkpt>
      <trkpt lat="36.87652" lon="30.51634">
        <ele>191.1</ele>
      </trkpt>
      <trkpt lat="36.87643" lon="30.51634">
        <ele>189.5</ele>
      </trkpt>
      <trkpt lat="36.8762" lon="30.51626">
        <ele>186.5</ele>
      </trkpt>
      <trkpt lat="36.87563" lon="30.51573">
        <ele>186.5</ele>
      </trkpt>
      <trkpt lat="36.8755" lon="30.51573">
        <ele>185.4</ele>
      </trkpt>
      <trkpt lat="36.87548" lon="30.51586">
        <ele>183.9</ele>
      </trkpt>
      <trkpt lat="36.87573" lon="30.51658">
        <ele>174.4</ele>
      </trkpt>
      <trkpt lat="36.87568" lon="30.51677">
        <ele>171.3</ele>
      </trkpt>
      <trkpt lat="36.8755" lon="30.51682">
        <ele>169</ele>
      </trkpt>
      <trkpt lat="36.87513" lon="30.51678">
        <ele>165.8</ele>
      </trkpt>
      <trkpt lat="36.87485" lon="30.51667">
        <ele>163.2</ele>
      </trkpt>
      <trkpt lat="36.87476" lon="30.51668">
        <ele>161.5</ele>
      </trkpt>
      <trkpt lat="36.87477" lon="30.5169">
        <ele>159.6</ele>
      </trkpt>
      <trkpt lat="36.87504" lon="30.51765">
        <ele>154.4</ele>
      </trkpt>
      <trkpt lat="36.87505" lon="30.51792">
        <ele>151</ele>
      </trkpt>
      <trkpt lat="36.87452" lon="30.51815">
        <ele>143.7</ele>
      </trkpt>
      <trkpt lat="36.874" lon="30.51782">
        <ele>142.8</ele>
      </trkpt>
      <trkpt lat="36.87377" lon="30.51761">
        <ele>141.8</ele>
      </trkpt>
      <trkpt lat="36.87356" lon="30.51769">
        <ele>138.8</ele>
      </trkpt>
      <trkpt lat="36.87344" lon="30.51799">
        <ele>135.7</ele>
      </trkpt>
      <trkpt lat="36.87304" lon="30.51858">
        <ele>129.1</ele>
      </trkpt>
      <trkpt lat="36.87273" lon="30.51878">
        <ele>125.5</ele>
      </trkpt>
      <trkpt lat="36.87253" lon="30.51867">
        <ele>124.1</ele>
      </trkpt>
      <trkpt lat="36.87241" lon="30.51839">
        <ele>123.9</ele>
      </trkpt>
      <trkpt lat="36.87225" lon="30.51796">
        <ele>124</ele>
      </trkpt>
      <trkpt lat="36.87209" lon="30.51792">
        <ele>122.8</ele>
      </trkpt>
      <trkpt lat="36.87161" lon="30.5186">
        <ele>115.5</ele>
      </trkpt>
      <trkpt lat="36.87134" lon="30.519">
        <ele>114.9</ele>
      </trkpt>
      <trkpt lat="36.87118" lon="30.51939">
        <ele>113.6</ele>
      </trkpt>
      <trkpt lat="36.87092" lon="30.52038">
        <ele>110.5</ele>
      </trkpt>
      <trkpt lat="36.8708" lon="30.52141">
        <ele>108.4</ele>
      </trkpt>
      <trkpt lat="36.87043" lon="30.52199">
        <ele>107.4</ele>
      </trkpt>
      <trkpt lat="36.87007" lon="30.52228">
        <ele>106.6</ele>
      </trkpt>
      <trkpt lat="36.86981" lon="30.52243">
        <ele>107.4</ele>
      </trkpt>
      <trkpt lat="36.86948" lon="30.52294">
        <ele>107</ele>
      </trkpt>
      <trkpt lat="36.86941" lon="30.52323">
        <ele>105.5</ele>
      </trkpt>
      <trkpt lat="36.86943" lon="30.52379">
        <ele>103.9</ele>
      </trkpt>
      <trkpt lat="36.86928" lon="30.52405">
        <ele>103.3</ele>
      </trkpt>
      <trkpt lat="36.86855" lon="30.52498">
        <ele>101.8</ele>
      </trkpt>
      <trkpt lat="36.8683" lon="30.52562">
        <ele>99.8</ele>
      </trkpt>
      <trkpt lat="36.86794" lon="30.52619">
        <ele>98.6</ele>
      </trkpt>
      <trkpt lat="36.86752" lon="30.5268">
        <ele>96.9</ele>
      </trkpt>
      <trkpt lat="36.86674" lon="30.52807">
        <ele>95.5</ele>
      </trkpt>
      <trkpt lat="36.86611" lon="30.52832">
        <ele>93</ele>
      </trkpt>
      <trkpt lat="36.86523" lon="30.52879">
        <ele>91.6</ele>
      </trkpt>
      <trkpt lat="36.86443" lon="30.52957">
        <ele>89.9</ele>
      </trkpt>
      <trkpt lat="36.86312" lon="30.53094">
        <ele>88.2</ele>
      </trkpt>
      <trkpt lat="36.86103" lon="30.53362">
        <ele>81.6</ele>
      </trkpt>
      <trkpt lat="36.86082" lon="30.534">
        <ele>80.4</ele>
      </trkpt>
      <trkpt lat="36.86091" lon="30.53438">
        <ele>79.9</ele>
      </trkpt>
      <trkpt lat="36.86183" lon="30.53525">
        <ele>83.4</ele>
      </trkpt>
      <trkpt lat="36.86188" lon="30.53559">
        <ele>83.5</ele>
      </trkpt>
      <trkpt lat="36.86159" lon="30.53617">
        <ele>79.1</ele>
      </trkpt>
      <trkpt lat="36.86119" lon="30.53698">
        <ele>75.7</ele>
      </trkpt>
      <trkpt lat="36.86097" lon="30.53718">
        <ele>75.4</ele>
      </trkpt>
      <trkpt lat="36.86045" lon="30.53744">
        <ele>75</ele>
      </trkpt>
      <trkpt lat="36.86023" lon="30.53789">
        <ele>74.7</ele>
      </trkpt>
      <trkpt lat="36.85998" lon="30.53825">
        <ele>74.1</ele>
      </trkpt>
      <trkpt lat="36.85993" lon="30.53872">
        <ele>74.3</ele>
      </trkpt>
      <trkpt lat="36.85996" lon="30.53895">
        <ele>74.6</ele>
      </trkpt>
      <trkpt lat="36.85986" lon="30.53901">
        <ele>74.4</ele>
      </trkpt>
      <trkpt lat="36.86" lon="30.53999">
        <ele>73</ele>
      </trkpt>
      <trkpt lat="36.86052" lon="30.54251">
        <ele>69.5</ele>
      </trkpt>
      <trkpt lat="36.86086" lon="30.54483">
        <ele>66.2</ele>
      </trkpt>
      <trkpt lat="36.86101" lon="30.54741">
        <ele>66.7</ele>
      </trkpt>
      <trkpt lat="36.86107" lon="30.54804">
        <ele>66.4</ele>
      </trkpt>
      <trkpt lat="36.86101" lon="30.54887">
        <ele>64.9</ele>
      </trkpt>
      <trkpt lat="36.86096" lon="30.55062">
        <ele>63.7</ele>
      </trkpt>
      <trkpt lat="36.86086" lon="30.5515">
        <ele>64.7</ele>
      </trkpt>
      <trkpt lat="36.86079" lon="30.55303">
        <ele>63.6</ele>
      </trkpt>
      <trkpt lat="36.86067" lon="30.554">
        <ele>62</ele>
      </trkpt>
      <trkpt lat="36.86065" lon="30.5545">
        <ele>61.3</ele>
      </trkpt>
      <trkpt lat="36.86061" lon="30.55576">
        <ele>60.3</ele>
      </trkpt>
      <trkpt lat="36.86067" lon="30.55624">
        <ele>59.9</ele>
      </trkpt>
      <trkpt lat="36.86077" lon="30.55654">
        <ele>59.4</ele>
      </trkpt>
      <trkpt lat="36.86092" lon="30.55775">
        <ele>55.7</ele>
      </trkpt>
      <trkpt lat="36.86109" lon="30.55828">
        <ele>55.3</ele>
      </trkpt>
      <trkpt lat="36.86153" lon="30.56062">
        <ele>51.7</ele>
      </trkpt>
      <trkpt lat="36.86226" lon="30.56421">
        <ele>49.8</ele>
      </trkpt>
      <trkpt lat="36.8629" lon="30.56748">
        <ele>47</ele>
      </trkpt>
      <trkpt lat="36.86351" lon="30.57019">
        <ele>45.2</ele>
      </trkpt>
      <trkpt lat="36.86371" lon="30.57135">
        <ele>41.8</ele>
      </trkpt>
      <trkpt lat="36.86394" lon="30.5729">
        <ele>38.9</ele>
      </trkpt>
      <trkpt lat="36.86408" lon="30.57377">
        <ele>37.7</ele>
      </trkpt>
      <trkpt lat="36.86441" lon="30.57549">
        <ele>35.1</ele>
      </trkpt>
      <trkpt lat="36.86496" lon="30.57823">
        <ele>33.8</ele>
      </trkpt>
      <trkpt lat="36.86513" lon="30.57918">
        <ele>32.6</ele>
      </trkpt>
      <trkpt lat="36.86587" lon="30.58272">
        <ele>30.8</ele>
      </trkpt>
      <trkpt lat="36.86624" lon="30.5852">
        <ele>29.3</ele>
      </trkpt>
      <trkpt lat="36.8667" lon="30.58781">
        <ele>27</ele>
      </trkpt>
      <trkpt lat="36.86673" lon="30.5892">
        <ele>28.9</ele>
      </trkpt>
      <trkpt lat="36.86647" lon="30.58943">
        <ele>27.8</ele>
      </trkpt>
      <trkpt lat="36.86477" lon="30.58998">
        <ele>25.8</ele>
      </trkpt>
      <trkpt lat="36.86509" lon="30.59125">
        <ele>27.6</ele>
      </trkpt>
      <trkpt lat="36.86561" lon="30.59326">
        <ele>28.8</ele>
      </trkpt>
      <trkpt lat="36.86534" lon="30.59386">
        <ele>27.6</ele>
      </trkpt>
      <trkpt lat="36.86393" lon="30.59611">
        <ele>26</ele>
      </trkpt>
      <trkpt lat="36.86334" lon="30.5973">
        <ele>23.2</ele>
      </trkpt>
      <trkpt lat="36.86302" lon="30.59744">
        <ele>24.3</ele>
      </trkpt>
      <trkpt lat="36.86275" lon="30.59773">
        <ele>23.8</ele>
      </trkpt>
      <trkpt lat="36.86267" lon="30.59784">
        <ele>23.5</ele>
      </trkpt>
      <trkpt lat="36.86255" lon="30.59856">
        <ele>20.8</ele>
      </trkpt>
      <trkpt lat="36.86212" lon="30.599">
        <ele>20</ele>
      </trkpt>
      <trkpt lat="36.86237" lon="30.60068">
        <ele>26.2</ele>
      </trkpt>
      <trkpt lat="36.86228" lon="30.60113">
        <ele>25.9</ele>
      </trkpt>
      <trkpt lat="36.862" lon="30.60158">
        <ele>23.6</ele>
      </trkpt>
      <trkpt lat="36.86076" lon="30.60338">
        <ele>13.8</ele>
      </trkpt>
      <trkpt lat="36.85901" lon="30.60586">
        <ele>13.1</ele>
      </trkpt>
      <trkpt lat="36.85728" lon="30.60839">
        <ele>12</ele>
      </trkpt>
      <trkpt lat="36.85507" lon="30.61155">
        <ele>12.2</ele>
      </trkpt>
      <trkpt lat="36.85225" lon="30.61559">
        <ele>5.5</ele>
      </trkpt>
      <trkpt lat="36.8518" lon="30.61616">
        <ele>4</ele>
      </trkpt>
      <trkpt lat="36.85159" lon="30.61634">
        <ele>3.9</ele>
      </trkpt>
      <trkpt lat="36.84742" lon="30.6116">
        <ele>4.4</ele>
      </trkpt>
      <trkpt lat="36.84727" lon="30.6118">
        <ele>4.7</ele>
      </trkpt>
      <trkpt lat="36.84769" lon="30.61755">
        <ele>8.7</ele>
      </trkpt>
      <trkpt lat="36.84697" lon="30.61779">
        <ele>7</ele>
      </trkpt>
      <trkpt lat="36.84579" lon="30.61678">
        <ele>5.9</ele>
      </trkpt>
      <trkpt lat="36.84579" lon="30.61678">
        <ele>5.9</ele>
      </trkpt>
      <trkpt lat="36.84579" lon="30.61678">
        <ele>5.9</ele>
      </trkpt>
      <trkpt lat="36.84579" lon="30.61678">
        <ele>5.9</ele>
      </trkpt>
      <trkpt lat="36.84579" lon="30.61678">
        <ele>5.9</ele>
      </trkpt>
      <trkpt lat="36.84579" lon="30.61678">
        <ele>5.9</ele>
      </trkpt>
      <trkpt lat="36.84579" lon="30.61678">
        <ele>5.9</ele>
      </trkpt>
      <trkpt lat="36.84579" lon="30.61678">
        <ele>5.9</ele>
      </trkpt>
      <trkpt lat="34.67499" lon="33.04066">
        <ele>9.8</ele>
      </trkpt>
      <trkpt lat="32.81013" lon="35.02283">
      </trkpt>
    </trkseg>
  </trk>
  <trk>
    <name><![CDATA[Itinéraire Bis ]]></name>
    <desc><![CDATA[Knidos Feneri/Lighthouse]]></desc>
    <extensions>
      <line xmlns="http://www.topografix.com/GPX/gpx_style/0/2">
        <color>ffee00</color>
        <width>1</width>
      </line>
    </extensions>
    <trkseg>
      <trkpt lat="36.68595" lon="27.3737">
        <ele>1.69</ele>
      </trkpt>
      <trkpt lat="36.68595" lon="27.3737">
        <ele>1.69</ele>
      </trkpt>
      <trkpt lat="36.68595" lon="27.3737">
        <ele>1.69</ele>
      </trkpt>
      <trkpt lat="36.68595" lon="27.3737">
        <ele>1.69</ele>
      </trkpt>
      <trkpt lat="36.68595" lon="27.3737">
        <ele>1.69</ele>
      </trkpt>
      <trkpt lat="36.68595" lon="27.3737">
        <ele>1.69</ele>
      </trkpt>
      <trkpt lat="36.68595" lon="27.3737">
        <ele>1.69</ele>
      </trkpt>
      <trkpt lat="36.68595" lon="27.3737">
        <ele>1.69</ele>
      </trkpt>
      <trkpt lat="36.68595" lon="27.3737">
        <ele>1.69</ele>
      </trkpt>
      <trkpt lat="36.68595" lon="27.3737">
        <ele>1.69</ele>
      </trkpt>
      <trkpt lat="36.68595" lon="27.3737">
        <ele>1.69</ele>
      </trkpt>
      <trkpt lat="36.68595" lon="27.3737">
        <ele>1.69</ele>
      </trkpt>
      <trkpt lat="36.68595" lon="27.3737">
        <ele>1.69</ele>
      </trkpt>
      <trkpt lat="36.68595" lon="27.3737">
        <ele>1.69</ele>
      </trkpt>
      <trkpt lat="36.68595" lon="27.3737">
        <ele>1.69</ele>
      </trkpt>
      <trkpt lat="36.68595" lon="27.3737">
        <ele>1.69</ele>
      </trkpt>
      <trkpt lat="36.68595" lon="27.3737">
        <ele>1.69</ele>
      </trkpt>
      <trkpt lat="36.68595" lon="27.3737">
        <ele>1.69</ele>
      </trkpt>
      <trkpt lat="36.68595" lon="27.3737">
        <ele>1.69</ele>
      </trkpt>
      <trkpt lat="36.68595" lon="27.3737">
        <ele>1.69</ele>
      </trkpt>
      <trkpt lat="36.68595" lon="27.3737">
        <ele>1.69</ele>
      </trkpt>
      <trkpt lat="36.68595" lon="27.3737">
        <ele>1.69</ele>
      </trkpt>
      <trkpt lat="36.68595" lon="27.3737">
        <ele>1.69</ele>
      </trkpt>
      <trkpt lat="36.68595" lon="27.3737">
        <ele>1.69</ele>
      </trkpt>
      <trkpt lat="36.68595" lon="27.3737">
        <ele>1.69</ele>
      </trkpt>
      <trkpt lat="36.68595" lon="27.3737">
        <ele>1.69</ele>
      </trkpt>
      <trkpt lat="36.68595" lon="27.3737">
        <ele>1.69</ele>
      </trkpt>
      <trkpt lat="36.68595" lon="27.3737">
        <ele>1.69</ele>
      </trkpt>
      <trkpt lat="36.68595" lon="27.3737">
        <ele>1.69</ele>
      </trkpt>
      <trkpt lat="36.68595" lon="27.3737">
        <ele>1.69</ele>
      </trkpt>
      <trkpt lat="36.68595" lon="27.3737">
        <ele>1.69</ele>
      </trkpt>
      <trkpt lat="36.68595" lon="27.3737">
        <ele>1.69</ele>
      </trkpt>
      <trkpt lat="36.68595" lon="27.3737">
        <ele>1.69</ele>
      </trkpt>
      <trkpt lat="36.68595" lon="27.3737">
        <ele>1.69</ele>
      </trkpt>
      <trkpt lat="36.68595" lon="27.3737">
        <ele>1.69</ele>
      </trkpt>
      <trkpt lat="36.68595" lon="27.3737">
        <ele>1.69</ele>
      </trkpt>
      <trkpt lat="36.68595" lon="27.3737">
        <ele>1.69</ele>
      </trkpt>
      <trkpt lat="36.68595" lon="27.3737">
        <ele>1.69</ele>
      </trkpt>
      <trkpt lat="36.68595" lon="27.3737">
        <ele>1.69</ele>
      </trkpt>
      <trkpt lat="36.68595" lon="27.3737">
        <ele>1.69</ele>
      </trkpt>
      <trkpt lat="36.68595" lon="27.3737">
        <ele>1.69</ele>
      </trkpt>
      <trkpt lat="36.68595" lon="27.3737">
        <ele>1.69</ele>
      </trkpt>
      <trkpt lat="36.68595" lon="27.3737">
        <ele>1.69</ele>
      </trkpt>
      <trkpt lat="36.68595" lon="27.3737">
        <ele>1.69</ele>
      </trkpt>
      <trkpt lat="36.68595" lon="27.3737">
        <ele>1.69</ele>
      </trkpt>
      <trkpt lat="36.68595" lon="27.3737">
        <ele>1.69</ele>
      </trkpt>
      <trkpt lat="36.68595" lon="27.3737">
        <ele>1.69</ele>
      </trkpt>
      <trkpt lat="36.68595" lon="27.3737">
        <ele>1.69</ele>
      </trkpt>
      <trkpt lat="36.68595" lon="27.3737">
        <ele>1.69</ele>
      </trkpt>
      <trkpt lat="36.68595" lon="27.3737">
        <ele>1.69</ele>
      </trkpt>
      <trkpt lat="36.68595" lon="27.3737">
        <ele>1.69</ele>
      </trkpt>
      <trkpt lat="36.68595" lon="27.3737">
        <ele>1.69</ele>
      </trkpt>
      <trkpt lat="36.68595" lon="27.3737">
        <ele>1.69</ele>
      </trkpt>
      <trkpt lat="36.68595" lon="27.3737">
        <ele>1.69</ele>
      </trkpt>
      <trkpt lat="36.68595" lon="27.3737">
        <ele>1.69</ele>
      </trkpt>
      <trkpt lat="36.68595" lon="27.3737">
        <ele>1.69</ele>
      </trkpt>
      <trkpt lat="36.68595" lon="27.3737">
        <ele>1.69</ele>
      </trkpt>
      <trkpt lat="36.68595" lon="27.3737">
        <ele>1.69</ele>
      </trkpt>
      <trkpt lat="36.68595" lon="27.3737">
        <ele>1.69</ele>
      </trkpt>
      <trkpt lat="36.68595" lon="27.3737">
        <ele>1.69</ele>
      </trkpt>
      <trkpt lat="36.68595" lon="27.3737">
        <ele>1.69</ele>
      </trkpt>
      <trkpt lat="36.68595" lon="27.3737">
        <ele>1.69</ele>
      </trkpt>
      <trkpt lat="36.68595" lon="27.3737">
        <ele>1.69</ele>
      </trkpt>
      <trkpt lat="36.68595" lon="27.3737">
        <ele>1.69</ele>
      </trkpt>
      <trkpt lat="36.68595" lon="27.3737">
        <ele>1.69</ele>
      </trkpt>
      <trkpt lat="36.68595" lon="27.3737">
        <ele>1.69</ele>
      </trkpt>
      <trkpt lat="36.68595" lon="27.3737">
        <ele>1.69</ele>
      </trkpt>
      <trkpt lat="36.68595" lon="27.3737">
        <ele>1.69</ele>
      </trkpt>
      <trkpt lat="36.68595" lon="27.3737">
        <ele>1.69</ele>
      </trkpt>
      <trkpt lat="36.68595" lon="27.3737">
        <ele>1.69</ele>
      </trkpt>
      <trkpt lat="36.68595" lon="27.3737">
        <ele>1.69</ele>
      </trkpt>
      <trkpt lat="36.68595" lon="27.3737">
        <ele>1.69</ele>
      </trkpt>
      <trkpt lat="36.68595" lon="27.3737">
        <ele>1.69</ele>
      </trkpt>
      <trkpt lat="36.68591" lon="27.37367">
        <ele>1.79</ele>
      </trkpt>
      <trkpt lat="36.6859" lon="27.37365">
        <ele>1.86</ele>
      </trkpt>
      <trkpt lat="36.68585" lon="27.3736">
        <ele>2.024</ele>
      </trkpt>
      <trkpt lat="36.68577" lon="27.37351">
        <ele>2.356</ele>
      </trkpt>
      <trkpt lat="36.68574" lon="27.37349">
        <ele>2.449</ele>
      </trkpt>
      <trkpt lat="36.68571" lon="27.37341">
        <ele>2.742</ele>
      </trkpt>
      <trkpt lat="36.68571" lon="27.3734">
        <ele>2.754</ele>
      </trkpt>
      <trkpt lat="36.68565" lon="27.37336">
        <ele>2.917</ele>
      </trkpt>
      <trkpt lat="36.68557" lon="27.37331">
        <ele>3</ele>
      </trkpt>
      <trkpt lat="36.68551" lon="27.37328">
        <ele>2.525</ele>
      </trkpt>
      <trkpt lat="36.68549" lon="27.37326">
        <ele>2.342</ele>
      </trkpt>
      <trkpt lat="36.68544" lon="27.37321">
        <ele>1.913</ele>
      </trkpt>
      <trkpt lat="36.68537" lon="27.37314">
        <ele>1.481</ele>
      </trkpt>
      <trkpt lat="36.68531" lon="27.37305">
        <ele>1.206</ele>
      </trkpt>
      <trkpt lat="36.68525" lon="27.37298">
        <ele>0.93</ele>
      </trkpt>
      <trkpt lat="36.68521" lon="27.37288">
        <ele>0.909</ele>
      </trkpt>
      <trkpt lat="36.68521" lon="27.37285">
        <ele>0.938</ele>
      </trkpt>
      <trkpt lat="36.68521" lon="27.37275">
        <ele>1</ele>
      </trkpt>
      <trkpt lat="36.68523" lon="27.37267">
        <ele>1</ele>
      </trkpt>
      <trkpt lat="36.68526" lon="27.37256">
        <ele>1</ele>
      </trkpt>
      <trkpt lat="36.6853" lon="27.37242">
        <ele>1.792</ele>
      </trkpt>
      <trkpt lat="36.68532" lon="27.37237">
        <ele>2.123</ele>
      </trkpt>
      <trkpt lat="36.68535" lon="27.37226">
        <ele>2.753</ele>
      </trkpt>
      <trkpt lat="36.68537" lon="27.37218">
        <ele>2.882</ele>
      </trkpt>
      <trkpt lat="36.68541" lon="27.37209">
        <ele>2.613</ele>
      </trkpt>
      <trkpt lat="36.68545" lon="27.37197">
        <ele>2.244</ele>
      </trkpt>
      <trkpt lat="36.68546" lon="27.37194">
        <ele>2.119</ele>
      </trkpt>
      <trkpt lat="36.68547" lon="27.37184">
        <ele>2.572</ele>
      </trkpt>
      <trkpt lat="36.6855" lon="27.37179">
        <ele>1.876</ele>
      </trkpt>
      <trkpt lat="36.68556" lon="27.37173">
        <ele>6.4</ele>
      </trkpt>
      <trkpt lat="36.68557" lon="27.37163">
        <ele>1.06</ele>
      </trkpt>
      <trkpt lat="36.68554" lon="27.3716">
        <ele>2.354</ele>
      </trkpt>
      <trkpt lat="36.68553" lon="27.37161">
        <ele>2.85</ele>
      </trkpt>
      <trkpt lat="36.68553" lon="27.37155">
        <ele>4.283</ele>
      </trkpt>
      <trkpt lat="36.68555" lon="27.37144">
        <ele>6.687</ele>
      </trkpt>
      <trkpt lat="36.68555" lon="27.37141">
        <ele>7.322</ele>
      </trkpt>
      <trkpt lat="36.68555" lon="27.37139">
        <ele>8.204</ele>
      </trkpt>
      <trkpt lat="36.68557" lon="27.37132">
        <ele>8.89</ele>
      </trkpt>
      <trkpt lat="36.68557" lon="27.37125">
        <ele>10.139</ele>
      </trkpt>
      <trkpt lat="36.68559" lon="27.37121">
        <ele>10.341</ele>
      </trkpt>
      <trkpt lat="36.68561" lon="27.3712">
        <ele>10.092</ele>
      </trkpt>
      <trkpt lat="36.68561" lon="27.3712">
        <ele>10.092</ele>
      </trkpt>
      <trkpt lat="36.6856" lon="27.37117">
        <ele>10.864</ele>
      </trkpt>
      <trkpt lat="36.68562" lon="27.37113">
        <ele>11.295</ele>
      </trkpt>
      <trkpt lat="36.68561" lon="27.37108">
        <ele>12.536</ele>
      </trkpt>
      <trkpt lat="36.68562" lon="27.37103">
        <ele>13.272</ele>
      </trkpt>
      <trkpt lat="36.68565" lon="27.37095">
        <ele>14.15</ele>
      </trkpt>
      <trkpt lat="36.68569" lon="27.37088">
        <ele>14.246</ele>
      </trkpt>
      <trkpt lat="36.68569" lon="27.37083">
        <ele>15.189</ele>
      </trkpt>
      <trkpt lat="36.6857" lon="27.37082">
        <ele>15.213</ele>
      </trkpt>
      <trkpt lat="36.68574" lon="27.3707">
        <ele>16.218</ele>
      </trkpt>
      <trkpt lat="36.68573" lon="27.37068">
        <ele>17.325</ele>
      </trkpt>
      <trkpt lat="36.68573" lon="27.37063">
        <ele>18.32</ele>
      </trkpt>
      <trkpt lat="36.68571" lon="27.37062">
        <ele>18.967</ele>
      </trkpt>
      <trkpt lat="36.68568" lon="27.37055">
        <ele>21.556</ele>
      </trkpt>
      <trkpt lat="36.68568" lon="27.37051">
        <ele>22.671</ele>
      </trkpt>
      <trkpt lat="36.68569" lon="27.37044">
        <ele>24.015</ele>
      </trkpt>
      <trkpt lat="36.68569" lon="27.37042">
        <ele>24.243</ele>
      </trkpt>
      <trkpt lat="36.68569" lon="27.37037">
        <ele>25.501</ele>
      </trkpt>
      <trkpt lat="36.68569" lon="27.37034">
        <ele>26.291</ele>
      </trkpt>
      <trkpt lat="36.68569" lon="27.37024">
        <ele>28.563</ele>
      </trkpt>
      <trkpt lat="36.68567" lon="27.37016">
        <ele>30.979</ele>
      </trkpt>
      <trkpt lat="36.68569" lon="27.37008">
        <ele>31.92</ele>
      </trkpt>
      <trkpt lat="36.68568" lon="27.37">
        <ele>34.041</ele>
      </trkpt>
      <trkpt lat="36.68565" lon="27.36989">
        <ele>36.616</ele>
      </trkpt>
      <trkpt lat="36.68565" lon="27.36978">
        <ele>37.849</ele>
      </trkpt>
      <trkpt lat="36.68567" lon="27.36972">
        <ele>37.596</ele>
      </trkpt>
      <trkpt lat="36.68567" lon="27.36967">
        <ele>37.598</ele>
      </trkpt>
      <trkpt lat="36.68567" lon="27.36965">
        <ele>37.789</ele>
      </trkpt>
      <trkpt lat="36.68567" lon="27.36957">
        <ele>38.359</ele>
      </trkpt>
      <trkpt lat="36.68567" lon="27.36951">
        <ele>38.871</ele>
      </trkpt>
      <trkpt lat="36.68566" lon="27.3695">
        <ele>38.993</ele>
      </trkpt>
      <trkpt lat="36.68569" lon="27.36943">
        <ele>38.377</ele>
      </trkpt>
      <trkpt lat="36.68571" lon="27.36937">
        <ele>38.788</ele>
      </trkpt>
      <trkpt lat="36.68571" lon="27.36935">
        <ele>39.101</ele>
      </trkpt>
      <trkpt lat="36.68572" lon="27.36927">
        <ele>40.535</ele>
      </trkpt>
      <trkpt lat="36.68573" lon="27.36921">
        <ele>41.213</ele>
      </trkpt>
      <trkpt lat="36.68574" lon="27.36918">
        <ele>41.199</ele>
      </trkpt>
      <trkpt lat="36.68575" lon="27.36915">
        <ele>41.548</ele>
      </trkpt>
      <trkpt lat="36.68576" lon="27.36907">
        <ele>42.044</ele>
      </trkpt>
      <trkpt lat="36.68577" lon="27.36904">
        <ele>42.138</ele>
      </trkpt>
      <trkpt lat="36.68575" lon="27.36901">
        <ele>43.096</ele>
      </trkpt>
      <trkpt lat="36.68575" lon="27.36897">
        <ele>43.924</ele>
      </trkpt>
      <trkpt lat="36.68574" lon="27.36895">
        <ele>44.225</ele>
      </trkpt>
      <trkpt lat="36.68574" lon="27.36888">
        <ele>45.07</ele>
      </trkpt>
      <trkpt lat="36.68572" lon="27.36882">
        <ele>46.004</ele>
      </trkpt>
      <trkpt lat="36.68574" lon="27.36879">
        <ele>45.265</ele>
      </trkpt>
      <trkpt lat="36.68573" lon="27.3688">
        <ele>45.432</ele>
      </trkpt>
      <trkpt lat="36.68572" lon="27.36875">
        <ele>45.852</ele>
      </trkpt>
      <trkpt lat="36.68569" lon="27.36872">
        <ele>47.366</ele>
      </trkpt>
      <trkpt lat="36.68568" lon="27.36871">
        <ele>47.529</ele>
      </trkpt>
      <trkpt lat="36.68566" lon="27.36866">
        <ele>48.55</ele>
      </trkpt>
      <trkpt lat="36.68561" lon="27.36856">
        <ele>49.634</ele>
      </trkpt>
      <trkpt lat="36.6856" lon="27.36853">
        <ele>49.763</ele>
      </trkpt>
      <trkpt lat="36.68559" lon="27.36847">
        <ele>49.439</ele>
      </trkpt>
      <trkpt lat="36.68559" lon="27.36843">
        <ele>48.758</ele>
      </trkpt>
      <trkpt lat="36.68556" lon="27.36834">
        <ele>48.84</ele>
      </trkpt>
      <trkpt lat="36.68557" lon="27.36832">
        <ele>48.316</ele>
      </trkpt>
      <trkpt lat="36.68558" lon="27.36824">
        <ele>46.856</ele>
      </trkpt>
      <trkpt lat="36.68553" lon="27.36819">
        <ele>49.411</ele>
      </trkpt>
      <trkpt lat="36.68553" lon="27.36813">
        <ele>49.123</ele>
      </trkpt>
      <trkpt lat="36.6855" lon="27.36806">
        <ele>50.041</ele>
      </trkpt>
      <trkpt lat="36.68549" lon="27.36796">
        <ele>51.631</ele>
      </trkpt>
      <trkpt lat="36.68548" lon="27.3679">
        <ele>52.862</ele>
      </trkpt>
      <trkpt lat="36.68549" lon="27.36786">
        <ele>53.188</ele>
      </trkpt>
      <trkpt lat="36.68548" lon="27.36778">
        <ele>54.963</ele>
      </trkpt>
      <trkpt lat="36.68548" lon="27.36775">
        <ele>55.129</ele>
      </trkpt>
      <trkpt lat="36.68548" lon="27.36771">
        <ele>55.495</ele>
      </trkpt>
      <trkpt lat="36.6855" lon="27.36766">
        <ele>54.771</ele>
      </trkpt>
      <trkpt lat="36.68548" lon="27.3676">
        <ele>57.577</ele>
      </trkpt>
      <trkpt lat="36.68548" lon="27.36756">
        <ele>58.01</ele>
      </trkpt>
      <trkpt lat="36.68546" lon="27.36752">
        <ele>60.991</ele>
      </trkpt>
      <trkpt lat="36.68547" lon="27.3675">
        <ele>60.43</ele>
      </trkpt>
      <trkpt lat="36.68546" lon="27.36744">
        <ele>61.647</ele>
      </trkpt>
      <trkpt lat="36.68546" lon="27.36737">
        <ele>62.512</ele>
      </trkpt>
      <trkpt lat="36.68547" lon="27.36736">
        <ele>62.173</ele>
      </trkpt>
      <trkpt lat="36.68549" lon="27.36727">
        <ele>61.555</ele>
      </trkpt>
      <trkpt lat="36.68553" lon="27.3672">
        <ele>59.225</ele>
      </trkpt>
      <trkpt lat="36.68555" lon="27.36715">
        <ele>58.472</ele>
      </trkpt>
      <trkpt lat="36.68556" lon="27.36712">
        <ele>58.018</ele>
      </trkpt>
      <trkpt lat="36.68557" lon="27.36707">
        <ele>57.599</ele>
      </trkpt>
      <trkpt lat="36.68558" lon="27.36706">
        <ele>57.521</ele>
      </trkpt>
      <trkpt lat="36.68558" lon="27.36704">
        <ele>57.434</ele>
      </trkpt>
      <trkpt lat="36.68559" lon="27.36701">
        <ele>57.071</ele>
      </trkpt>
      <trkpt lat="36.68562" lon="27.3669">
        <ele>56.287</ele>
      </trkpt>
      <trkpt lat="36.68562" lon="27.36685">
        <ele>56.548</ele>
      </trkpt>
      <trkpt lat="36.68561" lon="27.36676">
        <ele>56.751</ele>
      </trkpt>
      <trkpt lat="36.68561" lon="27.36668">
        <ele>57.098</ele>
      </trkpt>
      <trkpt lat="36.68562" lon="27.36665">
        <ele>56.589</ele>
      </trkpt>
      <trkpt lat="36.68561" lon="27.36661">
        <ele>57.25</ele>
      </trkpt>
      <trkpt lat="36.68562" lon="27.36656">
        <ele>56.942</ele>
      </trkpt>
      <trkpt lat="36.68563" lon="27.3665">
        <ele>57.177</ele>
      </trkpt>
      <trkpt lat="36.68564" lon="27.36645">
        <ele>56.887</ele>
      </trkpt>
      <trkpt lat="36.68566" lon="27.3664">
        <ele>56.154</ele>
      </trkpt>
      <trkpt lat="36.68569" lon="27.36634">
        <ele>55.114</ele>
      </trkpt>
      <trkpt lat="36.68572" lon="27.36628">
        <ele>54.219</ele>
      </trkpt>
      <trkpt lat="36.68574" lon="27.36621">
        <ele>53.497</ele>
      </trkpt>
      <trkpt lat="36.68576" lon="27.36613">
        <ele>53.328</ele>
      </trkpt>
      <trkpt lat="36.68579" lon="27.36608">
        <ele>51.931</ele>
      </trkpt>
      <trkpt lat="36.6858" lon="27.366">
        <ele>51.22</ele>
      </trkpt>
      <trkpt lat="36.68584" lon="27.36593">
        <ele>49.397</ele>
      </trkpt>
      <trkpt lat="36.68584" lon="27.36592">
        <ele>49.263</ele>
      </trkpt>
      <trkpt lat="36.68587" lon="27.36589">
        <ele>48.16</ele>
      </trkpt>
      <trkpt lat="36.68588" lon="27.36584">
        <ele>47.996</ele>
      </trkpt>
      <trkpt lat="36.6859" lon="27.3658">
        <ele>46.867</ele>
      </trkpt>
      <trkpt lat="36.68594" lon="27.36573">
        <ele>45.53</ele>
      </trkpt>
      <trkpt lat="36.68595" lon="27.36564">
        <ele>45.655</ele>
      </trkpt>
      <trkpt lat="36.68596" lon="27.36558">
        <ele>45.87</ele>
      </trkpt>
      <trkpt lat="36.68597" lon="27.36556">
        <ele>45.757</ele>
      </trkpt>
      <trkpt lat="36.68598" lon="27.36551">
        <ele>44.91</ele>
      </trkpt>
      <trkpt lat="36.68598" lon="27.36548">
        <ele>44.81</ele>
      </trkpt>
      <trkpt lat="36.68599" lon="27.36544">
        <ele>44.404</ele>
      </trkpt>
      <trkpt lat="36.686" lon="27.36537">
        <ele>43.744</ele>
      </trkpt>
      <trkpt lat="36.68604" lon="27.36528">
        <ele>42.03</ele>
      </trkpt>
      <trkpt lat="36.68604" lon="27.36517">
        <ele>41.898</ele>
      </trkpt>
      <trkpt lat="36.68604" lon="27.36515">
        <ele>41.765</ele>
      </trkpt>
      <trkpt lat="36.68604" lon="27.36512">
        <ele>41.871</ele>
      </trkpt>
      <trkpt lat="36.68605" lon="27.36507">
        <ele>41.47</ele>
      </trkpt>
      <trkpt lat="36.68605" lon="27.36507">
        <ele>41.323</ele>
      </trkpt>
      <trkpt lat="36.68607" lon="27.36503">
        <ele>40.792</ele>
      </trkpt>
      <trkpt lat="36.68608" lon="27.36496">
        <ele>40.157</ele>
      </trkpt>
      <trkpt lat="36.68609" lon="27.3649">
        <ele>40.228</ele>
      </trkpt>
      <trkpt lat="36.6861" lon="27.36482">
        <ele>40.071</ele>
      </trkpt>
      <trkpt lat="36.68609" lon="27.36471">
        <ele>40.428</ele>
      </trkpt>
      <trkpt lat="36.68609" lon="27.36466">
        <ele>40.552</ele>
      </trkpt>
      <trkpt lat="36.68609" lon="27.36461">
        <ele>40.468</ele>
      </trkpt>
      <trkpt lat="36.68613" lon="27.36453">
        <ele>39.852</ele>
      </trkpt>
      <trkpt lat="36.68616" lon="27.36448">
        <ele>39.704</ele>
      </trkpt>
      <trkpt lat="36.68616" lon="27.36447">
        <ele>39.752</ele>
      </trkpt>
      <trkpt lat="36.6862" lon="27.36437">
        <ele>40.21</ele>
      </trkpt>
      <trkpt lat="36.68624" lon="27.36433">
        <ele>40.624</ele>
      </trkpt>
      <trkpt lat="36.68632" lon="27.36427">
        <ele>42.065</ele>
      </trkpt>
      <trkpt lat="36.68635" lon="27.36426">
        <ele>42.656</ele>
      </trkpt>
      <trkpt lat="36.68638" lon="27.36423">
        <ele>43.499</ele>
      </trkpt>
      <trkpt lat="36.68643" lon="27.36416">
        <ele>45.239</ele>
      </trkpt>
      <trkpt lat="36.68651" lon="27.36416">
        <ele>45.557</ele>
      </trkpt>
      <trkpt lat="36.68653" lon="27.36414">
        <ele>45.931</ele>
      </trkpt>
      <trkpt lat="36.68657" lon="27.3641">
        <ele>46.897</ele>
      </trkpt>
      <trkpt lat="36.68659" lon="27.36409">
        <ele>47.329</ele>
      </trkpt>
      <trkpt lat="36.68664" lon="27.36407">
        <ele>48.27</ele>
      </trkpt>
      <trkpt lat="36.68668" lon="27.36403">
        <ele>49.4</ele>
      </trkpt>
      <trkpt lat="36.68673" lon="27.36396">
        <ele>50.609</ele>
      </trkpt>
      <trkpt lat="36.68672" lon="27.36394">
        <ele>51.295</ele>
      </trkpt>
      <trkpt lat="36.68672" lon="27.36392">
        <ele>51.712</ele>
      </trkpt>
      <trkpt lat="36.68673" lon="27.3639">
        <ele>51.934</ele>
      </trkpt>
      <trkpt lat="36.68675" lon="27.36388">
        <ele>52.176</ele>
      </trkpt>
      <trkpt lat="36.68675" lon="27.36383">
        <ele>52.294</ele>
      </trkpt>
      <trkpt lat="36.68677" lon="27.36379">
        <ele>52.247</ele>
      </trkpt>
      <trkpt lat="36.68679" lon="27.36375">
        <ele>52.179</ele>
      </trkpt>
      <trkpt lat="36.68677" lon="27.3637">
        <ele>52.614</ele>
      </trkpt>
      <trkpt lat="36.68673" lon="27.36368">
        <ele>53.093</ele>
      </trkpt>
      <trkpt lat="36.68669" lon="27.36365">
        <ele>53.643</ele>
      </trkpt>
      <trkpt lat="36.6867" lon="27.36361">
        <ele>53.317</ele>
      </trkpt>
      <trkpt lat="36.68676" lon="27.36358">
        <ele>51.304</ele>
      </trkpt>
      <trkpt lat="36.6868" lon="27.36358">
        <ele>51.238</ele>
      </trkpt>
      <trkpt lat="36.6868" lon="27.36358">
        <ele>51.238</ele>
      </trkpt>
    </trkseg>
  </trk>
  <trk>
    <name><![CDATA[Itinéraire Bis]]></name>
    <desc><![CDATA[Latmos Summit / Zirve]]></desc>
    <extensions>
      <line xmlns="http://www.topografix.com/GPX/gpx_style/0/2">
        <color>ffee00</color>
        <width>1</width>
      </line>
    </extensions>
    <trkseg>
      <trkpt lat="37.54058" lon="27.59028">
        <ele>737.9</ele>
      </trkpt>
      <trkpt lat="37.54058" lon="27.59028">
        <ele>737.9</ele>
      </trkpt>
      <trkpt lat="37.54058" lon="27.59028">
        <ele>737.9</ele>
      </trkpt>
      <trkpt lat="37.54058" lon="27.59028">
        <ele>737.9</ele>
      </trkpt>
      <trkpt lat="37.54058" lon="27.59028">
        <ele>737.9</ele>
      </trkpt>
      <trkpt lat="37.54058" lon="27.59028">
        <ele>737.9</ele>
      </trkpt>
      <trkpt lat="37.54058" lon="27.59028">
        <ele>737.9</ele>
      </trkpt>
      <trkpt lat="37.54058" lon="27.59028">
        <ele>737.9</ele>
      </trkpt>
      <trkpt lat="37.54058" lon="27.59028">
        <ele>737.9</ele>
      </trkpt>
      <trkpt lat="37.54058" lon="27.59028">
        <ele>737.9</ele>
      </trkpt>
      <trkpt lat="37.54058" lon="27.59028">
        <ele>737.9</ele>
      </trkpt>
      <trkpt lat="37.54058" lon="27.59028">
        <ele>737.9</ele>
      </trkpt>
      <trkpt lat="37.54058" lon="27.59028">
        <ele>737.9</ele>
      </trkpt>
      <trkpt lat="37.54058" lon="27.59028">
        <ele>737.9</ele>
      </trkpt>
      <trkpt lat="37.54058" lon="27.59028">
        <ele>737.9</ele>
      </trkpt>
      <trkpt lat="37.54058" lon="27.59028">
        <ele>737.9</ele>
      </trkpt>
      <trkpt lat="37.54058" lon="27.59028">
        <ele>737.9</ele>
      </trkpt>
      <trkpt lat="37.54058" lon="27.59028">
        <ele>737.9</ele>
      </trkpt>
      <trkpt lat="37.54058" lon="27.59028">
        <ele>737.9</ele>
      </trkpt>
      <trkpt lat="37.54058" lon="27.59028">
        <ele>737.9</ele>
      </trkpt>
      <trkpt lat="37.54058" lon="27.59028">
        <ele>737.9</ele>
      </trkpt>
      <trkpt lat="37.54058" lon="27.59028">
        <ele>737.9</ele>
      </trkpt>
      <trkpt lat="37.54058" lon="27.59028">
        <ele>737.9</ele>
      </trkpt>
      <trkpt lat="37.54058" lon="27.59028">
        <ele>737.9</ele>
      </trkpt>
      <trkpt lat="37.54058" lon="27.59028">
        <ele>737.9</ele>
      </trkpt>
      <trkpt lat="37.54058" lon="27.59028">
        <ele>737.9</ele>
      </trkpt>
      <trkpt lat="37.54058" lon="27.59028">
        <ele>737.9</ele>
      </trkpt>
      <trkpt lat="37.54058" lon="27.59028">
        <ele>737.9</ele>
      </trkpt>
      <trkpt lat="37.54058" lon="27.59028">
        <ele>737.9</ele>
      </trkpt>
      <trkpt lat="37.54058" lon="27.59028">
        <ele>737.9</ele>
      </trkpt>
      <trkpt lat="37.54058" lon="27.59028">
        <ele>737.9</ele>
      </trkpt>
      <trkpt lat="37.54058" lon="27.59028">
        <ele>737.9</ele>
      </trkpt>
      <trkpt lat="37.54058" lon="27.59028">
        <ele>737.9</ele>
      </trkpt>
      <trkpt lat="37.54058" lon="27.59028">
        <ele>737.9</ele>
      </trkpt>
      <trkpt lat="37.54058" lon="27.59028">
        <ele>737.9</ele>
      </trkpt>
      <trkpt lat="37.54058" lon="27.59028">
        <ele>737.9</ele>
      </trkpt>
      <trkpt lat="37.54058" lon="27.59028">
        <ele>737.9</ele>
      </trkpt>
      <trkpt lat="37.54058" lon="27.59028">
        <ele>737.9</ele>
      </trkpt>
      <trkpt lat="37.54058" lon="27.59028">
        <ele>737.9</ele>
      </trkpt>
      <trkpt lat="37.54058" lon="27.59028">
        <ele>737.9</ele>
      </trkpt>
      <trkpt lat="37.54058" lon="27.59028">
        <ele>737.9</ele>
      </trkpt>
      <trkpt lat="37.54058" lon="27.59028">
        <ele>737.9</ele>
      </trkpt>
      <trkpt lat="37.54058" lon="27.59028">
        <ele>737.9</ele>
      </trkpt>
      <trkpt lat="37.54058" lon="27.59028">
        <ele>737.9</ele>
      </trkpt>
      <trkpt lat="37.54058" lon="27.59028">
        <ele>737.9</ele>
      </trkpt>
      <trkpt lat="37.54058" lon="27.59028">
        <ele>737.9</ele>
      </trkpt>
      <trkpt lat="37.54058" lon="27.59028">
        <ele>737.9</ele>
      </trkpt>
      <trkpt lat="37.54058" lon="27.59028">
        <ele>737.9</ele>
      </trkpt>
      <trkpt lat="37.54058" lon="27.59028">
        <ele>737.9</ele>
      </trkpt>
      <trkpt lat="37.54058" lon="27.59028">
        <ele>737.9</ele>
      </trkpt>
      <trkpt lat="37.54058" lon="27.59028">
        <ele>737.9</ele>
      </trkpt>
      <trkpt lat="37.54058" lon="27.59028">
        <ele>737.9</ele>
      </trkpt>
      <trkpt lat="37.54058" lon="27.59028">
        <ele>737.9</ele>
      </trkpt>
      <trkpt lat="37.54058" lon="27.59028">
        <ele>737.9</ele>
      </trkpt>
      <trkpt lat="37.54058" lon="27.59028">
        <ele>737.9</ele>
      </trkpt>
      <trkpt lat="37.54058" lon="27.59028">
        <ele>737.9</ele>
      </trkpt>
      <trkpt lat="37.54058" lon="27.59028">
        <ele>737.9</ele>
      </trkpt>
      <trkpt lat="37.54058" lon="27.59028">
        <ele>737.9</ele>
      </trkpt>
      <trkpt lat="37.54058" lon="27.59028">
        <ele>737.9</ele>
      </trkpt>
      <trkpt lat="37.54058" lon="27.59028">
        <ele>737.9</ele>
      </trkpt>
      <trkpt lat="37.54058" lon="27.59028">
        <ele>737.9</ele>
      </trkpt>
      <trkpt lat="37.54058" lon="27.59028">
        <ele>737.9</ele>
      </trkpt>
      <trkpt lat="37.54058" lon="27.59028">
        <ele>737.9</ele>
      </trkpt>
      <trkpt lat="37.54058" lon="27.59028">
        <ele>737.9</ele>
      </trkpt>
      <trkpt lat="37.54058" lon="27.59028">
        <ele>737.9</ele>
      </trkpt>
      <trkpt lat="37.54058" lon="27.59028">
        <ele>737.9</ele>
      </trkpt>
      <trkpt lat="37.54058" lon="27.59028">
        <ele>737.9</ele>
      </trkpt>
      <trkpt lat="37.54058" lon="27.59028">
        <ele>737.9</ele>
      </trkpt>
      <trkpt lat="37.54058" lon="27.59028">
        <ele>737.9</ele>
      </trkpt>
      <trkpt lat="37.54058" lon="27.59028">
        <ele>737.9</ele>
      </trkpt>
      <trkpt lat="37.54058" lon="27.59028">
        <ele>737.9</ele>
      </trkpt>
      <trkpt lat="37.54058" lon="27.59028">
        <ele>737.9</ele>
      </trkpt>
      <trkpt lat="37.54058" lon="27.59028">
        <ele>737.9</ele>
      </trkpt>
      <trkpt lat="37.54046" lon="27.59">
        <ele>736.6</ele>
      </trkpt>
      <trkpt lat="37.54037" lon="27.59007">
        <ele>739.2</ele>
      </trkpt>
      <trkpt lat="37.54028" lon="27.59002">
        <ele>740.3</ele>
      </trkpt>
      <trkpt lat="37.54009" lon="27.58976">
        <ele>739.8</ele>
      </trkpt>
      <trkpt lat="37.54011" lon="27.58951">
        <ele>735.6</ele>
      </trkpt>
      <trkpt lat="37.54005" lon="27.58938">
        <ele>734.8</ele>
      </trkpt>
      <trkpt lat="37.54001" lon="27.58891">
        <ele>731</ele>
      </trkpt>
      <trkpt lat="37.53995" lon="27.58889">
        <ele>731.9</ele>
      </trkpt>
      <trkpt lat="37.53991" lon="27.58889">
        <ele>732.6</ele>
      </trkpt>
      <trkpt lat="37.5399" lon="27.58889">
        <ele>732.7</ele>
      </trkpt>
      <trkpt lat="37.53985" lon="27.58882">
        <ele>732.9</ele>
      </trkpt>
      <trkpt lat="37.53974" lon="27.5887">
        <ele>733.4</ele>
      </trkpt>
      <trkpt lat="37.53962" lon="27.58864">
        <ele>734.5</ele>
      </trkpt>
      <trkpt lat="37.53948" lon="27.58861">
        <ele>736.2</ele>
      </trkpt>
      <trkpt lat="37.53944" lon="27.58857">
        <ele>736.1</ele>
      </trkpt>
      <trkpt lat="37.53945" lon="27.58856">
        <ele>735.8</ele>
      </trkpt>
      <trkpt lat="37.53938" lon="27.58847">
        <ele>735.5</ele>
      </trkpt>
      <trkpt lat="37.53931" lon="27.58845">
        <ele>736.1</ele>
      </trkpt>
      <trkpt lat="37.53924" lon="27.5884">
        <ele>736.2</ele>
      </trkpt>
      <trkpt lat="37.53924" lon="27.5884">
        <ele>736.1</ele>
      </trkpt>
      <trkpt lat="37.53916" lon="27.58836">
        <ele>736.6</ele>
      </trkpt>
      <trkpt lat="37.53914" lon="27.58836">
        <ele>736.8</ele>
      </trkpt>
      <trkpt lat="37.53912" lon="27.58833">
        <ele>736.9</ele>
      </trkpt>
      <trkpt lat="37.53905" lon="27.58824">
        <ele>737.1</ele>
      </trkpt>
      <trkpt lat="37.53902" lon="27.58824">
        <ele>737.8</ele>
      </trkpt>
      <trkpt lat="37.53895" lon="27.58818">
        <ele>738.3</ele>
      </trkpt>
      <trkpt lat="37.5389" lon="27.58808">
        <ele>737.9</ele>
      </trkpt>
      <trkpt lat="37.53889" lon="27.58805">
        <ele>737.7</ele>
      </trkpt>
      <trkpt lat="37.53885" lon="27.58793">
        <ele>736.8</ele>
      </trkpt>
      <trkpt lat="37.53885" lon="27.58793">
        <ele>736.8</ele>
      </trkpt>
      <trkpt lat="37.5388" lon="27.58793">
        <ele>737.8</ele>
      </trkpt>
      <trkpt lat="37.53875" lon="27.58792">
        <ele>738.6</ele>
      </trkpt>
      <trkpt lat="37.53868" lon="27.58796">
        <ele>740.3</ele>
      </trkpt>
      <trkpt lat="37.53862" lon="27.58801">
        <ele>742.1</ele>
      </trkpt>
      <trkpt lat="37.53861" lon="27.5881">
        <ele>743.5</ele>
      </trkpt>
      <trkpt lat="37.53859" lon="27.5882">
        <ele>745.2</ele>
      </trkpt>
      <trkpt lat="37.53859" lon="27.58829">
        <ele>746.5</ele>
      </trkpt>
      <trkpt lat="37.53856" lon="27.58835">
        <ele>747.9</ele>
      </trkpt>
      <trkpt lat="37.53843" lon="27.5883">
        <ele>749.7</ele>
      </trkpt>
      <trkpt lat="37.53834" lon="27.58825">
        <ele>750.7</ele>
      </trkpt>
      <trkpt lat="37.5383" lon="27.58827">
        <ele>751.7</ele>
      </trkpt>
      <trkpt lat="37.5383" lon="27.58827">
        <ele>751.7</ele>
      </trkpt>
      <trkpt lat="37.53828" lon="27.58839">
        <ele>753.7</ele>
      </trkpt>
      <trkpt lat="37.53824" lon="27.58844">
        <ele>755.2</ele>
      </trkpt>
      <trkpt lat="37.53824" lon="27.58845">
        <ele>755.3</ele>
      </trkpt>
      <trkpt lat="37.53817" lon="27.58856">
        <ele>757.9</ele>
      </trkpt>
      <trkpt lat="37.53817" lon="27.58863">
        <ele>759</ele>
      </trkpt>
      <trkpt lat="37.53817" lon="27.58872">
        <ele>760.5</ele>
      </trkpt>
      <trkpt lat="37.53816" lon="27.58879">
        <ele>761.6</ele>
      </trkpt>
      <trkpt lat="37.53815" lon="27.58886">
        <ele>762.8</ele>
      </trkpt>
      <trkpt lat="37.53811" lon="27.58893">
        <ele>764.5</ele>
      </trkpt>
      <trkpt lat="37.53806" lon="27.58895">
        <ele>765.8</ele>
      </trkpt>
      <trkpt lat="37.53806" lon="27.58896">
        <ele>765.9</ele>
      </trkpt>
      <trkpt lat="37.53807" lon="27.58903">
        <ele>766.8</ele>
      </trkpt>
      <trkpt lat="37.53805" lon="27.58908">
        <ele>767.8</ele>
      </trkpt>
      <trkpt lat="37.53805" lon="27.58913">
        <ele>768.5</ele>
      </trkpt>
      <trkpt lat="37.53796" lon="27.5891">
        <ele>769.7</ele>
      </trkpt>
      <trkpt lat="37.53791" lon="27.58917">
        <ele>771.8</ele>
      </trkpt>
      <trkpt lat="37.53791" lon="27.5892">
        <ele>772.5</ele>
      </trkpt>
      <trkpt lat="37.5379" lon="27.58919">
        <ele>772.4</ele>
      </trkpt>
      <trkpt lat="37.53789" lon="27.58921">
        <ele>773.1</ele>
      </trkpt>
      <trkpt lat="37.53791" lon="27.58925">
        <ele>773.7</ele>
      </trkpt>
      <trkpt lat="37.53787" lon="27.5892">
        <ele>773.3</ele>
      </trkpt>
      <trkpt lat="37.53785" lon="27.58916">
        <ele>772.6</ele>
      </trkpt>
      <trkpt lat="37.53781" lon="27.58908">
        <ele>772.3</ele>
      </trkpt>
      <trkpt lat="37.53778" lon="27.58913">
        <ele>773.3</ele>
      </trkpt>
      <trkpt lat="37.53773" lon="27.58917">
        <ele>774.8</ele>
      </trkpt>
      <trkpt lat="37.53773" lon="27.58917">
        <ele>774.8</ele>
      </trkpt>
      <trkpt lat="37.53778" lon="27.58913">
        <ele>773.3</ele>
      </trkpt>
      <trkpt lat="37.53781" lon="27.58908">
        <ele>772.3</ele>
      </trkpt>
      <trkpt lat="37.53785" lon="27.58916">
        <ele>772.6</ele>
      </trkpt>
      <trkpt lat="37.53787" lon="27.5892">
        <ele>773.3</ele>
      </trkpt>
      <trkpt lat="37.53791" lon="27.58925">
        <ele>773.7</ele>
      </trkpt>
      <trkpt lat="37.53789" lon="27.58921">
        <ele>773.1</ele>
      </trkpt>
      <trkpt lat="37.5379" lon="27.58919">
        <ele>772.4</ele>
      </trkpt>
      <trkpt lat="37.53791" lon="27.5892">
        <ele>772.5</ele>
      </trkpt>
      <trkpt lat="37.53791" lon="27.58917">
        <ele>771.8</ele>
      </trkpt>
      <trkpt lat="37.53796" lon="27.5891">
        <ele>769.7</ele>
      </trkpt>
      <trkpt lat="37.53805" lon="27.58913">
        <ele>768.5</ele>
      </trkpt>
      <trkpt lat="37.53805" lon="27.58908">
        <ele>767.8</ele>
      </trkpt>
      <trkpt lat="37.53807" lon="27.58903">
        <ele>766.8</ele>
      </trkpt>
      <trkpt lat="37.53806" lon="27.58896">
        <ele>765.9</ele>
      </trkpt>
      <trkpt lat="37.53806" lon="27.58895">
        <ele>765.8</ele>
      </trkpt>
      <trkpt lat="37.53811" lon="27.58893">
        <ele>764.5</ele>
      </trkpt>
      <trkpt lat="37.53815" lon="27.58886">
        <ele>762.8</ele>
      </trkpt>
      <trkpt lat="37.53816" lon="27.58879">
        <ele>761.6</ele>
      </trkpt>
      <trkpt lat="37.53817" lon="27.58872">
        <ele>760.5</ele>
      </trkpt>
      <trkpt lat="37.53817" lon="27.58863">
        <ele>759</ele>
      </trkpt>
      <trkpt lat="37.53817" lon="27.58856">
        <ele>757.9</ele>
      </trkpt>
      <trkpt lat="37.53824" lon="27.58845">
        <ele>755.3</ele>
      </trkpt>
      <trkpt lat="37.53824" lon="27.58844">
        <ele>755.2</ele>
      </trkpt>
      <trkpt lat="37.53828" lon="27.58839">
        <ele>753.7</ele>
      </trkpt>
      <trkpt lat="37.5383" lon="27.58827">
        <ele>751.7</ele>
      </trkpt>
      <trkpt lat="37.5383" lon="27.58827">
        <ele>751.7</ele>
      </trkpt>
      <trkpt lat="37.53824" lon="27.58825">
        <ele>752.3</ele>
      </trkpt>
      <trkpt lat="37.53817" lon="27.58818">
        <ele>752.8</ele>
      </trkpt>
      <trkpt lat="37.5381" lon="27.58814">
        <ele>753.6</ele>
      </trkpt>
      <trkpt lat="37.53802" lon="27.58806">
        <ele>754.2</ele>
      </trkpt>
      <trkpt lat="37.53799" lon="27.58797">
        <ele>754</ele>
      </trkpt>
      <trkpt lat="37.53798" lon="27.58794">
        <ele>753.9</ele>
      </trkpt>
      <trkpt lat="37.53793" lon="27.5878">
        <ele>753.5</ele>
      </trkpt>
      <trkpt lat="37.53792" lon="27.5878">
        <ele>753.7</ele>
      </trkpt>
      <trkpt lat="37.53789" lon="27.58775">
        <ele>754</ele>
      </trkpt>
      <trkpt lat="37.53789" lon="27.58773">
        <ele>753.8</ele>
      </trkpt>
      <trkpt lat="37.53788" lon="27.58769">
        <ele>753.7</ele>
      </trkpt>
      <trkpt lat="37.53785" lon="27.58768">
        <ele>754.3</ele>
      </trkpt>
      <trkpt lat="37.53785" lon="27.58768">
        <ele>754.3</ele>
      </trkpt>
      <trkpt lat="37.53785" lon="27.58768">
        <ele>754.3</ele>
      </trkpt>
      <trkpt lat="37.53788" lon="27.58769">
        <ele>753.7</ele>
      </trkpt>
      <trkpt lat="37.53784" lon="27.58778">
        <ele>755.6</ele>
      </trkpt>
      <trkpt lat="37.53783" lon="27.58791">
        <ele>756.8</ele>
      </trkpt>
      <trkpt lat="37.53783" lon="27.58797">
        <ele>757.4</ele>
      </trkpt>
      <trkpt lat="37.53774" lon="27.588">
        <ele>759.5</ele>
      </trkpt>
      <trkpt lat="37.53772" lon="27.58799">
        <ele>759.8</ele>
      </trkpt>
      <trkpt lat="37.53764" lon="27.58797">
        <ele>761.3</ele>
      </trkpt>
      <trkpt lat="37.53757" lon="27.58795">
        <ele>762.8</ele>
      </trkpt>
      <trkpt lat="37.5375" lon="27.58794">
        <ele>764.1</ele>
      </trkpt>
      <trkpt lat="37.53749" lon="27.58794">
        <ele>764.7</ele>
      </trkpt>
      <trkpt lat="37.53741" lon="27.58796">
        <ele>767.9</ele>
      </trkpt>
      <trkpt lat="37.53739" lon="27.58795">
        <ele>768.7</ele>
      </trkpt>
      <trkpt lat="37.53735" lon="27.58797">
        <ele>770.8</ele>
      </trkpt>
      <trkpt lat="37.53728" lon="27.58798">
        <ele>773.4</ele>
      </trkpt>
      <trkpt lat="37.53719" lon="27.58796">
        <ele>777.4</ele>
      </trkpt>
      <trkpt lat="37.53717" lon="27.58794">
        <ele>778.1</ele>
      </trkpt>
      <trkpt lat="37.53714" lon="27.58792">
        <ele>779.3</ele>
      </trkpt>
      <trkpt lat="37.5371" lon="27.58794">
        <ele>781.2</ele>
      </trkpt>
      <trkpt lat="37.53705" lon="27.58794">
        <ele>783.4</ele>
      </trkpt>
      <trkpt lat="37.53704" lon="27.58795">
        <ele>783.8</ele>
      </trkpt>
      <trkpt lat="37.53702" lon="27.58801">
        <ele>784.6</ele>
      </trkpt>
      <trkpt lat="37.53697" lon="27.58803">
        <ele>786.7</ele>
      </trkpt>
      <trkpt lat="37.53692" lon="27.58807">
        <ele>789.1</ele>
      </trkpt>
      <trkpt lat="37.53691" lon="27.58812">
        <ele>789.7</ele>
      </trkpt>
      <trkpt lat="37.53686" lon="27.58811">
        <ele>791.8</ele>
      </trkpt>
      <trkpt lat="37.53686" lon="27.58813">
        <ele>791.8</ele>
      </trkpt>
      <trkpt lat="37.53682" lon="27.58819">
        <ele>793.6</ele>
      </trkpt>
      <trkpt lat="37.53681" lon="27.58819">
        <ele>794</ele>
      </trkpt>
      <trkpt lat="37.53676" lon="27.58821">
        <ele>795.9</ele>
      </trkpt>
      <trkpt lat="37.53671" lon="27.58821">
        <ele>798.1</ele>
      </trkpt>
      <trkpt lat="37.53668" lon="27.58808">
        <ele>799</ele>
      </trkpt>
      <trkpt lat="37.5366" lon="27.58814">
        <ele>803.2</ele>
      </trkpt>
      <trkpt lat="37.53658" lon="27.58814">
        <ele>804.1</ele>
      </trkpt>
      <trkpt lat="37.53649" lon="27.58814">
        <ele>808</ele>
      </trkpt>
      <trkpt lat="37.5365" lon="27.58814">
        <ele>807.5</ele>
      </trkpt>
      <trkpt lat="37.5365" lon="27.58826">
        <ele>807.6</ele>
      </trkpt>
      <trkpt lat="37.53647" lon="27.58826">
        <ele>808.8</ele>
      </trkpt>
      <trkpt lat="37.53635" lon="27.58833">
        <ele>813.8</ele>
      </trkpt>
      <trkpt lat="37.53631" lon="27.58835">
        <ele>815.4</ele>
      </trkpt>
      <trkpt lat="37.53629" lon="27.58837">
        <ele>816.5</ele>
      </trkpt>
      <trkpt lat="37.53625" lon="27.58847">
        <ele>818.5</ele>
      </trkpt>
      <trkpt lat="37.53619" lon="27.58846">
        <ele>821.3</ele>
      </trkpt>
      <trkpt lat="37.53611" lon="27.58842">
        <ele>824.3</ele>
      </trkpt>
      <trkpt lat="37.53612" lon="27.58834">
        <ele>823.5</ele>
      </trkpt>
      <trkpt lat="37.53606" lon="27.58836">
        <ele>826.2</ele>
      </trkpt>
      <trkpt lat="37.53598" lon="27.58838">
        <ele>829.6</ele>
      </trkpt>
      <trkpt lat="37.53587" lon="27.58843">
        <ele>834.4</ele>
      </trkpt>
      <trkpt lat="37.5358" lon="27.5884">
        <ele>837</ele>
      </trkpt>
      <trkpt lat="37.53577" lon="27.58837">
        <ele>838.1</ele>
      </trkpt>
      <trkpt lat="37.53573" lon="27.58836">
        <ele>839.5</ele>
      </trkpt>
      <trkpt lat="37.53566" lon="27.58836">
        <ele>841.7</ele>
      </trkpt>
      <trkpt lat="37.53551" lon="27.58845">
        <ele>847.2</ele>
      </trkpt>
      <trkpt lat="37.53545" lon="27.58847">
        <ele>849.3</ele>
      </trkpt>
      <trkpt lat="37.53539" lon="27.58845">
        <ele>851</ele>
      </trkpt>
      <trkpt lat="37.53533" lon="27.58843">
        <ele>853</ele>
      </trkpt>
      <trkpt lat="37.53534" lon="27.58853">
        <ele>853.6</ele>
      </trkpt>
      <trkpt lat="37.53534" lon="27.58867">
        <ele>854.7</ele>
      </trkpt>
      <trkpt lat="37.53533" lon="27.58869">
        <ele>855.4</ele>
      </trkpt>
      <trkpt lat="37.53524" lon="27.58884">
        <ele>860.2</ele>
      </trkpt>
      <trkpt lat="37.53523" lon="27.58886">
        <ele>860.8</ele>
      </trkpt>
      <trkpt lat="37.53514" lon="27.58886">
        <ele>864.7</ele>
      </trkpt>
      <trkpt lat="37.53511" lon="27.58887">
        <ele>866</ele>
      </trkpt>
      <trkpt lat="37.5351" lon="27.58887">
        <ele>866.4</ele>
      </trkpt>
      <trkpt lat="37.53509" lon="27.58896">
        <ele>867.8</ele>
      </trkpt>
      <trkpt lat="37.53511" lon="27.5891">
        <ele>869</ele>
      </trkpt>
      <trkpt lat="37.53504" lon="27.58912">
        <ele>872.4</ele>
      </trkpt>
      <trkpt lat="37.53495" lon="27.58929">
        <ele>880.6</ele>
      </trkpt>
      <trkpt lat="37.53498" lon="27.58918">
        <ele>876.4</ele>
      </trkpt>
      <trkpt lat="37.53492" lon="27.58902">
        <ele>877.4</ele>
      </trkpt>
      <trkpt lat="37.53489" lon="27.58888">
        <ele>876.6</ele>
      </trkpt>
      <trkpt lat="37.5349" lon="27.58874">
        <ele>873.6</ele>
      </trkpt>
      <trkpt lat="37.53485" lon="27.58865">
        <ele>874.6</ele>
      </trkpt>
      <trkpt lat="37.53475" lon="27.58858">
        <ele>877.5</ele>
      </trkpt>
      <trkpt lat="37.53468" lon="27.58856">
        <ele>880.2</ele>
      </trkpt>
      <trkpt lat="37.53457" lon="27.58847">
        <ele>882.9</ele>
      </trkpt>
      <trkpt lat="37.53443" lon="27.58835">
        <ele>886.1</ele>
      </trkpt>
      <trkpt lat="37.53432" lon="27.58833">
        <ele>890.1</ele>
      </trkpt>
      <trkpt lat="37.53425" lon="27.58831">
        <ele>892.5</ele>
      </trkpt>
      <trkpt lat="37.53424" lon="27.58831">
        <ele>892.8</ele>
      </trkpt>
      <trkpt lat="37.53425" lon="27.58831">
        <ele>892.7</ele>
      </trkpt>
      <trkpt lat="37.53426" lon="27.58827">
        <ele>891.7</ele>
      </trkpt>
      <trkpt lat="37.53418" lon="27.5882">
        <ele>894.3</ele>
      </trkpt>
      <trkpt lat="37.53411" lon="27.58811">
        <ele>896.4</ele>
      </trkpt>
      <trkpt lat="37.53407" lon="27.58809">
        <ele>897.7</ele>
      </trkpt>
      <trkpt lat="37.53407" lon="27.58796">
        <ele>896.2</ele>
      </trkpt>
      <trkpt lat="37.534" lon="27.58794">
        <ele>898.8</ele>
      </trkpt>
      <trkpt lat="37.53397" lon="27.58795">
        <ele>900.1</ele>
      </trkpt>
      <trkpt lat="37.53395" lon="27.58797">
        <ele>901.5</ele>
      </trkpt>
      <trkpt lat="37.53392" lon="27.58796">
        <ele>902.1</ele>
      </trkpt>
      <trkpt lat="37.5339" lon="27.58795">
        <ele>902.8</ele>
      </trkpt>
      <trkpt lat="37.53384" lon="27.58793">
        <ele>905.2</ele>
      </trkpt>
      <trkpt lat="37.53378" lon="27.58791">
        <ele>907.1</ele>
      </trkpt>
      <trkpt lat="37.53378" lon="27.58796">
        <ele>907.9</ele>
      </trkpt>
      <trkpt lat="37.53379" lon="27.58796">
        <ele>907.8</ele>
      </trkpt>
      <trkpt lat="37.53378" lon="27.58802">
        <ele>909.2</ele>
      </trkpt>
      <trkpt lat="37.53377" lon="27.58803">
        <ele>909.7</ele>
      </trkpt>
      <trkpt lat="37.5337" lon="27.58805">
        <ele>913.2</ele>
      </trkpt>
      <trkpt lat="37.5336" lon="27.58801">
        <ele>916.4</ele>
      </trkpt>
      <trkpt lat="37.53359" lon="27.58801">
        <ele>916.9</ele>
      </trkpt>
      <trkpt lat="37.53358" lon="27.58809">
        <ele>919.2</ele>
      </trkpt>
      <trkpt lat="37.53354" lon="27.58808">
        <ele>920.9</ele>
      </trkpt>
      <trkpt lat="37.53345" lon="27.58808">
        <ele>924.6</ele>
      </trkpt>
      <trkpt lat="37.53342" lon="27.58808">
        <ele>926</ele>
      </trkpt>
      <trkpt lat="37.53339" lon="27.58809">
        <ele>927.5</ele>
      </trkpt>
      <trkpt lat="37.53334" lon="27.58814">
        <ele>931.1</ele>
      </trkpt>
      <trkpt lat="37.53332" lon="27.58813">
        <ele>931.5</ele>
      </trkpt>
      <trkpt lat="37.53329" lon="27.58811">
        <ele>931.9</ele>
      </trkpt>
      <trkpt lat="37.53324" lon="27.58809">
        <ele>932.6</ele>
      </trkpt>
      <trkpt lat="37.53328" lon="27.58815">
        <ele>933.4</ele>
      </trkpt>
      <trkpt lat="37.53324" lon="27.58817">
        <ele>935.3</ele>
      </trkpt>
      <trkpt lat="37.53323" lon="27.58817">
        <ele>935.6</ele>
      </trkpt>
      <trkpt lat="37.53318" lon="27.58822">
        <ele>938.5</ele>
      </trkpt>
      <trkpt lat="37.53315" lon="27.58828">
        <ele>940.9</ele>
      </trkpt>
      <trkpt lat="37.53315" lon="27.58828">
        <ele>941.2</ele>
      </trkpt>
      <trkpt lat="37.53315" lon="27.58831">
        <ele>941.9</ele>
      </trkpt>
      <trkpt lat="37.5331" lon="27.58819">
        <ele>939.7</ele>
      </trkpt>
      <trkpt lat="37.53308" lon="27.58818">
        <ele>939.9</ele>
      </trkpt>
      <trkpt lat="37.53299" lon="27.58812">
        <ele>940.5</ele>
      </trkpt>
      <trkpt lat="37.53286" lon="27.5881">
        <ele>943</ele>
      </trkpt>
      <trkpt lat="37.53285" lon="27.5881">
        <ele>943.3</ele>
      </trkpt>
      <trkpt lat="37.53277" lon="27.58802">
        <ele>943.1</ele>
      </trkpt>
      <trkpt lat="37.53275" lon="27.58802">
        <ele>943.3</ele>
      </trkpt>
      <trkpt lat="37.53266" lon="27.58798">
        <ele>944.7</ele>
      </trkpt>
      <trkpt lat="37.53253" lon="27.58794">
        <ele>946.9</ele>
      </trkpt>
      <trkpt lat="37.53243" lon="27.58797">
        <ele>947.2</ele>
      </trkpt>
      <trkpt lat="37.5324" lon="27.58796">
        <ele>946</ele>
      </trkpt>
      <trkpt lat="37.53231" lon="27.58798">
        <ele>944.7</ele>
      </trkpt>
      <trkpt lat="37.53219" lon="27.58801">
        <ele>943.1</ele>
      </trkpt>
      <trkpt lat="37.53213" lon="27.588">
        <ele>941.4</ele>
      </trkpt>
      <trkpt lat="37.53211" lon="27.58801">
        <ele>941.4</ele>
      </trkpt>
      <trkpt lat="37.53206" lon="27.588">
        <ele>939.8</ele>
      </trkpt>
      <trkpt lat="37.53197" lon="27.58809">
        <ele>940.4</ele>
      </trkpt>
      <trkpt lat="37.53193" lon="27.58816">
        <ele>942</ele>
      </trkpt>
      <trkpt lat="37.53183" lon="27.58823">
        <ele>941.5</ele>
      </trkpt>
      <trkpt lat="37.53179" lon="27.58825">
        <ele>941.4</ele>
      </trkpt>
      <trkpt lat="37.53179" lon="27.58827">
        <ele>941.8</ele>
      </trkpt>
      <trkpt lat="37.53181" lon="27.58828">
        <ele>942.8</ele>
      </trkpt>
      <trkpt lat="37.53178" lon="27.58827">
        <ele>941.7</ele>
      </trkpt>
      <trkpt lat="37.53175" lon="27.58828">
        <ele>941.2</ele>
      </trkpt>
      <trkpt lat="37.53171" lon="27.58827">
        <ele>940.1</ele>
      </trkpt>
      <trkpt lat="37.53164" lon="27.58823">
        <ele>937.7</ele>
      </trkpt>
      <trkpt lat="37.53157" lon="27.58825">
        <ele>937.5</ele>
      </trkpt>
      <trkpt lat="37.5315" lon="27.58826">
        <ele>936.8</ele>
      </trkpt>
      <trkpt lat="37.53141" lon="27.58828">
        <ele>936.4</ele>
      </trkpt>
      <trkpt lat="37.53134" lon="27.58831">
        <ele>936.6</ele>
      </trkpt>
      <trkpt lat="37.53128" lon="27.58836">
        <ele>938</ele>
      </trkpt>
      <trkpt lat="37.53119" lon="27.58839">
        <ele>938.2</ele>
      </trkpt>
      <trkpt lat="37.53115" lon="27.5884">
        <ele>938.1</ele>
      </trkpt>
      <trkpt lat="37.53109" lon="27.58844">
        <ele>938.8</ele>
      </trkpt>
      <trkpt lat="37.53102" lon="27.58844">
        <ele>938</ele>
      </trkpt>
      <trkpt lat="37.53092" lon="27.58846">
        <ele>937.4</ele>
      </trkpt>
      <trkpt lat="37.53084" lon="27.58849">
        <ele>937.4</ele>
      </trkpt>
      <trkpt lat="37.53078" lon="27.58848">
        <ele>937.1</ele>
      </trkpt>
      <trkpt lat="37.53073" lon="27.58846">
        <ele>937</ele>
      </trkpt>
      <trkpt lat="37.53058" lon="27.58843">
        <ele>937.5</ele>
      </trkpt>
      <trkpt lat="37.53052" lon="27.58843">
        <ele>937.9</ele>
      </trkpt>
      <trkpt lat="37.53042" lon="27.58843">
        <ele>938.8</ele>
      </trkpt>
      <trkpt lat="37.53028" lon="27.58844">
        <ele>940.1</ele>
      </trkpt>
      <trkpt lat="37.53024" lon="27.58839">
        <ele>940.1</ele>
      </trkpt>
      <trkpt lat="37.53019" lon="27.58839">
        <ele>940.7</ele>
      </trkpt>
      <trkpt lat="37.5301" lon="27.58841">
        <ele>941.6</ele>
      </trkpt>
      <trkpt lat="37.53001" lon="27.58836">
        <ele>942.7</ele>
      </trkpt>
      <trkpt lat="37.52993" lon="27.58832">
        <ele>943.6</ele>
      </trkpt>
      <trkpt lat="37.52988" lon="27.58823">
        <ele>942.9</ele>
      </trkpt>
      <trkpt lat="37.52984" lon="27.58826">
        <ele>943.9</ele>
      </trkpt>
      <trkpt lat="37.52978" lon="27.58822">
        <ele>944.3</ele>
      </trkpt>
      <trkpt lat="37.52977" lon="27.58821">
        <ele>944.4</ele>
      </trkpt>
      <trkpt lat="37.52976" lon="27.58819">
        <ele>944.3</ele>
      </trkpt>
      <trkpt lat="37.52971" lon="27.58815">
        <ele>944.6</ele>
      </trkpt>
      <trkpt lat="37.52961" lon="27.58815">
        <ele>946.5</ele>
      </trkpt>
      <trkpt lat="37.52954" lon="27.5881">
        <ele>947.6</ele>
      </trkpt>
      <trkpt lat="37.52957" lon="27.58815">
        <ele>947.4</ele>
      </trkpt>
      <trkpt lat="37.5295" lon="27.58805">
        <ele>948.1</ele>
      </trkpt>
      <trkpt lat="37.5295" lon="27.58804">
        <ele>948.2</ele>
      </trkpt>
      <trkpt lat="37.5295" lon="27.58803">
        <ele>948</ele>
      </trkpt>
      <trkpt lat="37.5295" lon="27.58795">
        <ele>947.7</ele>
      </trkpt>
      <trkpt lat="37.52945" lon="27.58789">
        <ele>948.6</ele>
      </trkpt>
      <trkpt lat="37.52943" lon="27.58787">
        <ele>949</ele>
      </trkpt>
      <trkpt lat="37.5294" lon="27.58783">
        <ele>949.9</ele>
      </trkpt>
      <trkpt lat="37.52932" lon="27.58776">
        <ele>952.2</ele>
      </trkpt>
      <trkpt lat="37.52925" lon="27.58771">
        <ele>954.2</ele>
      </trkpt>
      <trkpt lat="37.52924" lon="27.58771">
        <ele>954.7</ele>
      </trkpt>
      <trkpt lat="37.52923" lon="27.5877">
        <ele>954.9</ele>
      </trkpt>
      <trkpt lat="37.52922" lon="27.58768">
        <ele>955.5</ele>
      </trkpt>
      <trkpt lat="37.52917" lon="27.58767">
        <ele>957.1</ele>
      </trkpt>
      <trkpt lat="37.52905" lon="27.58766">
        <ele>959.2</ele>
      </trkpt>
      <trkpt lat="37.52894" lon="27.58762">
        <ele>961.4</ele>
      </trkpt>
      <trkpt lat="37.52882" lon="27.58756">
        <ele>964.1</ele>
      </trkpt>
      <trkpt lat="37.52874" lon="27.58751">
        <ele>966.1</ele>
      </trkpt>
      <trkpt lat="37.52867" lon="27.58747">
        <ele>967.1</ele>
      </trkpt>
      <trkpt lat="37.5286" lon="27.58745">
        <ele>968.2</ele>
      </trkpt>
      <trkpt lat="37.52846" lon="27.58743">
        <ele>970.8</ele>
      </trkpt>
      <trkpt lat="37.5284" lon="27.58736">
        <ele>971.6</ele>
      </trkpt>
      <trkpt lat="37.52826" lon="27.58731">
        <ele>975.1</ele>
      </trkpt>
      <trkpt lat="37.52813" lon="27.5873">
        <ele>978.9</ele>
      </trkpt>
      <trkpt lat="37.52812" lon="27.5873">
        <ele>979.1</ele>
      </trkpt>
      <trkpt lat="37.52803" lon="27.58728">
        <ele>981.7</ele>
      </trkpt>
      <trkpt lat="37.52798" lon="27.58732">
        <ele>983.2</ele>
      </trkpt>
      <trkpt lat="37.52791" lon="27.58732">
        <ele>985.4</ele>
      </trkpt>
      <trkpt lat="37.52788" lon="27.58732">
        <ele>986.3</ele>
      </trkpt>
      <trkpt lat="37.52784" lon="27.58735">
        <ele>987.2</ele>
      </trkpt>
      <trkpt lat="37.52784" lon="27.58729">
        <ele>987.6</ele>
      </trkpt>
      <trkpt lat="37.52778" lon="27.58721">
        <ele>989.5</ele>
      </trkpt>
      <trkpt lat="37.52776" lon="27.58718">
        <ele>990.1</ele>
      </trkpt>
      <trkpt lat="37.5277" lon="27.58726">
        <ele>991.6</ele>
      </trkpt>
      <trkpt lat="37.52765" lon="27.58728">
        <ele>993</ele>
      </trkpt>
      <trkpt lat="37.52758" lon="27.58736">
        <ele>994.6</ele>
      </trkpt>
      <trkpt lat="37.52745" lon="27.58736">
        <ele>998.8</ele>
      </trkpt>
      <trkpt lat="37.52744" lon="27.58737">
        <ele>999.1</ele>
      </trkpt>
      <trkpt lat="37.52751" lon="27.58728">
        <ele>997.3</ele>
      </trkpt>
      <trkpt lat="37.52744" lon="27.58715">
        <ele>1000.6</ele>
      </trkpt>
      <trkpt lat="37.52735" lon="27.58718">
        <ele>1003.5</ele>
      </trkpt>
      <trkpt lat="37.52729" lon="27.58716">
        <ele>1005.6</ele>
      </trkpt>
      <trkpt lat="37.52724" lon="27.58715">
        <ele>1007.5</ele>
      </trkpt>
      <trkpt lat="37.52718" lon="27.5871">
        <ele>1010</ele>
      </trkpt>
      <trkpt lat="37.52716" lon="27.58707">
        <ele>1010.6</ele>
      </trkpt>
      <trkpt lat="37.52708" lon="27.58704">
        <ele>1013.6</ele>
      </trkpt>
      <trkpt lat="37.52708" lon="27.58694">
        <ele>1014.4</ele>
      </trkpt>
      <trkpt lat="37.52707" lon="27.58685">
        <ele>1015.3</ele>
      </trkpt>
      <trkpt lat="37.52701" lon="27.58675">
        <ele>1017.8</ele>
      </trkpt>
      <trkpt lat="37.52691" lon="27.58667">
        <ele>1021.9</ele>
      </trkpt>
      <trkpt lat="37.52686" lon="27.58661">
        <ele>1023.8</ele>
      </trkpt>
      <trkpt lat="37.52686" lon="27.58659">
        <ele>1024</ele>
      </trkpt>
      <trkpt lat="37.52674" lon="27.58653">
        <ele>1028.2</ele>
      </trkpt>
      <trkpt lat="37.5267" lon="27.58645">
        <ele>1030.1</ele>
      </trkpt>
      <trkpt lat="37.52664" lon="27.58649">
        <ele>1032.1</ele>
      </trkpt>
      <trkpt lat="37.52659" lon="27.58643">
        <ele>1034.4</ele>
      </trkpt>
      <trkpt lat="37.52654" lon="27.58639">
        <ele>1036.5</ele>
      </trkpt>
      <trkpt lat="37.52645" lon="27.58636">
        <ele>1039.9</ele>
      </trkpt>
      <trkpt lat="37.52637" lon="27.58634">
        <ele>1043.2</ele>
      </trkpt>
      <trkpt lat="37.52633" lon="27.58629">
        <ele>1044.4</ele>
      </trkpt>
      <trkpt lat="37.5263" lon="27.58631">
        <ele>1045.6</ele>
      </trkpt>
      <trkpt lat="37.52627" lon="27.58622">
        <ele>1046.8</ele>
      </trkpt>
      <trkpt lat="37.52621" lon="27.58616">
        <ele>1048.8</ele>
      </trkpt>
      <trkpt lat="37.52612" lon="27.58606">
        <ele>1051.6</ele>
      </trkpt>
      <trkpt lat="37.52607" lon="27.58599">
        <ele>1052.6</ele>
      </trkpt>
      <trkpt lat="37.52604" lon="27.5859">
        <ele>1053.2</ele>
      </trkpt>
      <trkpt lat="37.52601" lon="27.58586">
        <ele>1054</ele>
      </trkpt>
      <trkpt lat="37.52591" lon="27.58576">
        <ele>1055.4</ele>
      </trkpt>
      <trkpt lat="37.52586" lon="27.58571">
        <ele>1055.9</ele>
      </trkpt>
      <trkpt lat="37.52576" lon="27.58561">
        <ele>1057.5</ele>
      </trkpt>
      <trkpt lat="37.52566" lon="27.58561">
        <ele>1060.9</ele>
      </trkpt>
      <trkpt lat="37.5256" lon="27.5856">
        <ele>1062.9</ele>
      </trkpt>
      <trkpt lat="37.52557" lon="27.5856">
        <ele>1063.6</ele>
      </trkpt>
      <trkpt lat="37.52548" lon="27.58555">
        <ele>1066.1</ele>
      </trkpt>
      <trkpt lat="37.52541" lon="27.58555">
        <ele>1068.1</ele>
      </trkpt>
      <trkpt lat="37.52533" lon="27.58549">
        <ele>1070.1</ele>
      </trkpt>
      <trkpt lat="37.52527" lon="27.58547">
        <ele>1071.7</ele>
      </trkpt>
      <trkpt lat="37.52521" lon="27.58547">
        <ele>1073.8</ele>
      </trkpt>
      <trkpt lat="37.52516" lon="27.5855">
        <ele>1075.9</ele>
      </trkpt>
      <trkpt lat="37.5251" lon="27.58549">
        <ele>1077.8</ele>
      </trkpt>
      <trkpt lat="37.52511" lon="27.58546">
        <ele>1077.1</ele>
      </trkpt>
      <trkpt lat="37.52501" lon="27.58541">
        <ele>1079.6</ele>
      </trkpt>
      <trkpt lat="37.52496" lon="27.5854">
        <ele>1081.1</ele>
      </trkpt>
      <trkpt lat="37.5249" lon="27.58547">
        <ele>1084.2</ele>
      </trkpt>
      <trkpt lat="37.52483" lon="27.58546">
        <ele>1086.1</ele>
      </trkpt>
      <trkpt lat="37.52474" lon="27.58543">
        <ele>1088.6</ele>
      </trkpt>
      <trkpt lat="37.52468" lon="27.5854">
        <ele>1090.4</ele>
      </trkpt>
      <trkpt lat="37.52461" lon="27.58534">
        <ele>1091.8</ele>
      </trkpt>
      <trkpt lat="37.52454" lon="27.58523">
        <ele>1092.3</ele>
      </trkpt>
      <trkpt lat="37.52446" lon="27.58517">
        <ele>1094.2</ele>
      </trkpt>
      <trkpt lat="37.5244" lon="27.58508">
        <ele>1094.9</ele>
      </trkpt>
      <trkpt lat="37.52434" lon="27.58507">
        <ele>1096.9</ele>
      </trkpt>
      <trkpt lat="37.52426" lon="27.58504">
        <ele>1099.4</ele>
      </trkpt>
      <trkpt lat="37.5242" lon="27.585">
        <ele>1100.7</ele>
      </trkpt>
      <trkpt lat="37.52418" lon="27.585">
        <ele>1101.5</ele>
      </trkpt>
      <trkpt lat="37.52411" lon="27.58502">
        <ele>1104.3</ele>
      </trkpt>
      <trkpt lat="37.52409" lon="27.58501">
        <ele>1104.6</ele>
      </trkpt>
      <trkpt lat="37.52408" lon="27.58502">
        <ele>1105.3</ele>
      </trkpt>
      <trkpt lat="37.52406" lon="27.58504">
        <ele>1106.1</ele>
      </trkpt>
      <trkpt lat="37.52402" lon="27.58502">
        <ele>1107</ele>
      </trkpt>
      <trkpt lat="37.52393" lon="27.58499">
        <ele>1110</ele>
      </trkpt>
      <trkpt lat="37.52391" lon="27.58492">
        <ele>1109.4</ele>
      </trkpt>
      <trkpt lat="37.52383" lon="27.58487">
        <ele>1111.7</ele>
      </trkpt>
      <trkpt lat="37.52377" lon="27.58479">
        <ele>1112.8</ele>
      </trkpt>
      <trkpt lat="37.52369" lon="27.58477">
        <ele>1115.3</ele>
      </trkpt>
      <trkpt lat="37.52361" lon="27.58484">
        <ele>1118.9</ele>
      </trkpt>
      <trkpt lat="37.52351" lon="27.58482">
        <ele>1122.3</ele>
      </trkpt>
      <trkpt lat="37.5234" lon="27.58485">
        <ele>1126.7</ele>
      </trkpt>
      <trkpt lat="37.52333" lon="27.58482">
        <ele>1128.8</ele>
      </trkpt>
      <trkpt lat="37.52326" lon="27.58483">
        <ele>1130.6</ele>
      </trkpt>
      <trkpt lat="37.5232" lon="27.58476">
        <ele>1131.9</ele>
      </trkpt>
      <trkpt lat="37.52314" lon="27.58474">
        <ele>1133.5</ele>
      </trkpt>
      <trkpt lat="37.52313" lon="27.58475">
        <ele>1133.8</ele>
      </trkpt>
      <trkpt lat="37.52308" lon="27.58482">
        <ele>1135.4</ele>
      </trkpt>
      <trkpt lat="37.52302" lon="27.58488">
        <ele>1137.5</ele>
      </trkpt>
      <trkpt lat="37.52296" lon="27.58494">
        <ele>1139.2</ele>
      </trkpt>
      <trkpt lat="37.52296" lon="27.58495">
        <ele>1139.3</ele>
      </trkpt>
      <trkpt lat="37.52292" lon="27.58499">
        <ele>1140.3</ele>
      </trkpt>
      <trkpt lat="37.52288" lon="27.58508">
        <ele>1141.2</ele>
      </trkpt>
      <trkpt lat="37.52287" lon="27.58509">
        <ele>1141.5</ele>
      </trkpt>
      <trkpt lat="37.52278" lon="27.58509">
        <ele>1143.6</ele>
      </trkpt>
      <trkpt lat="37.52277" lon="27.58511">
        <ele>1143.8</ele>
      </trkpt>
      <trkpt lat="37.52272" lon="27.5852">
        <ele>1144.6</ele>
      </trkpt>
      <trkpt lat="37.52264" lon="27.58524">
        <ele>1146.4</ele>
      </trkpt>
      <trkpt lat="37.52254" lon="27.58523">
        <ele>1148.6</ele>
      </trkpt>
      <trkpt lat="37.52248" lon="27.58522">
        <ele>1150.1</ele>
      </trkpt>
      <trkpt lat="37.52245" lon="27.58523">
        <ele>1150.7</ele>
      </trkpt>
      <trkpt lat="37.52245" lon="27.58535">
        <ele>1150</ele>
      </trkpt>
      <trkpt lat="37.52245" lon="27.5854">
        <ele>1149.7</ele>
      </trkpt>
      <trkpt lat="37.52243" lon="27.58553">
        <ele>1149.5</ele>
      </trkpt>
      <trkpt lat="37.52238" lon="27.58558">
        <ele>1150.3</ele>
      </trkpt>
      <trkpt lat="37.52231" lon="27.58571">
        <ele>1151</ele>
      </trkpt>
      <trkpt lat="37.52226" lon="27.58581">
        <ele>1151.3</ele>
      </trkpt>
      <trkpt lat="37.52223" lon="27.58592">
        <ele>1151.4</ele>
      </trkpt>
      <trkpt lat="37.52216" lon="27.58603">
        <ele>1152.2</ele>
      </trkpt>
      <trkpt lat="37.52214" lon="27.58603">
        <ele>1152.6</ele>
      </trkpt>
      <trkpt lat="37.52204" lon="27.58601">
        <ele>1154.6</ele>
      </trkpt>
      <trkpt lat="37.52205" lon="27.58602">
        <ele>1154.4</ele>
      </trkpt>
      <trkpt lat="37.52203" lon="27.58602">
        <ele>1154.7</ele>
      </trkpt>
      <trkpt lat="37.52194" lon="27.58603">
        <ele>1156.4</ele>
      </trkpt>
      <trkpt lat="37.52191" lon="27.58608">
        <ele>1156.5</ele>
      </trkpt>
      <trkpt lat="37.52191" lon="27.58614">
        <ele>1155.9</ele>
      </trkpt>
      <trkpt lat="37.52188" lon="27.58618">
        <ele>1156.2</ele>
      </trkpt>
      <trkpt lat="37.52187" lon="27.58618">
        <ele>1156.3</ele>
      </trkpt>
      <trkpt lat="37.52177" lon="27.58615">
        <ele>1158.4</ele>
      </trkpt>
      <trkpt lat="37.52178" lon="27.58614">
        <ele>1158.3</ele>
      </trkpt>
      <trkpt lat="37.52175" lon="27.58613">
        <ele>1158.8</ele>
      </trkpt>
      <trkpt lat="37.52172" lon="27.58612">
        <ele>1159.7</ele>
      </trkpt>
      <trkpt lat="37.52171" lon="27.58613">
        <ele>1159.7</ele>
      </trkpt>
      <trkpt lat="37.52161" lon="27.58615">
        <ele>1160.8</ele>
      </trkpt>
      <trkpt lat="37.52159" lon="27.58615">
        <ele>1160.8</ele>
      </trkpt>
      <trkpt lat="37.5215" lon="27.58617">
        <ele>1161.4</ele>
      </trkpt>
      <trkpt lat="37.52148" lon="27.58615">
        <ele>1161.8</ele>
      </trkpt>
      <trkpt lat="37.52141" lon="27.5861">
        <ele>1163.3</ele>
      </trkpt>
      <trkpt lat="37.5213" lon="27.58602">
        <ele>1165.7</ele>
      </trkpt>
      <trkpt lat="37.52118" lon="27.58596">
        <ele>1168.1</ele>
      </trkpt>
      <trkpt lat="37.52109" lon="27.58592">
        <ele>1170</ele>
      </trkpt>
      <trkpt lat="37.52096" lon="27.58586">
        <ele>1172.8</ele>
      </trkpt>
      <trkpt lat="37.52086" lon="27.58591">
        <ele>1173</ele>
      </trkpt>
      <trkpt lat="37.52076" lon="27.58596">
        <ele>1173.8</ele>
      </trkpt>
      <trkpt lat="37.5206" lon="27.58604">
        <ele>1175.5</ele>
      </trkpt>
      <trkpt lat="37.52047" lon="27.5861">
        <ele>1177</ele>
      </trkpt>
      <trkpt lat="37.52044" lon="27.58613">
        <ele>1177.2</ele>
      </trkpt>
      <trkpt lat="37.52039" lon="27.58616">
        <ele>1177.7</ele>
      </trkpt>
      <trkpt lat="37.52037" lon="27.58613">
        <ele>1178.7</ele>
      </trkpt>
      <trkpt lat="37.52037" lon="27.58609">
        <ele>1179.5</ele>
      </trkpt>
      <trkpt lat="37.52037" lon="27.5861">
        <ele>1179.4</ele>
      </trkpt>
      <trkpt lat="37.52036" lon="27.58605">
        <ele>1180.5</ele>
      </trkpt>
      <trkpt lat="37.52034" lon="27.586">
        <ele>1182.3</ele>
      </trkpt>
      <trkpt lat="37.52026" lon="27.58596">
        <ele>1184.8</ele>
      </trkpt>
      <trkpt lat="37.52026" lon="27.58595">
        <ele>1185</ele>
      </trkpt>
      <trkpt lat="37.52027" lon="27.58595">
        <ele>1184.8</ele>
      </trkpt>
      <trkpt lat="37.52026" lon="27.58593">
        <ele>1185.5</ele>
      </trkpt>
      <trkpt lat="37.52022" lon="27.58585">
        <ele>1187.9</ele>
      </trkpt>
      <trkpt lat="37.52022" lon="27.58585">
        <ele>1188</ele>
      </trkpt>
      <trkpt lat="37.52015" lon="27.5858">
        <ele>1190.4</ele>
      </trkpt>
      <trkpt lat="37.52012" lon="27.58579">
        <ele>1191.2</ele>
      </trkpt>
      <trkpt lat="37.52011" lon="27.58578">
        <ele>1191.4</ele>
      </trkpt>
      <trkpt lat="37.52003" lon="27.5858">
        <ele>1192.8</ele>
      </trkpt>
      <trkpt lat="37.52" lon="27.5858">
        <ele>1193.7</ele>
      </trkpt>
      <trkpt lat="37.51994" lon="27.58582">
        <ele>1195.9</ele>
      </trkpt>
      <trkpt lat="37.51992" lon="27.58583">
        <ele>1196.6</ele>
      </trkpt>
      <trkpt lat="37.51985" lon="27.58591">
        <ele>1198.4</ele>
      </trkpt>
      <trkpt lat="37.51982" lon="27.58594">
        <ele>1198.8</ele>
      </trkpt>
      <trkpt lat="37.51978" lon="27.58603">
        <ele>1199.1</ele>
      </trkpt>
      <trkpt lat="37.51979" lon="27.58613">
        <ele>1197</ele>
      </trkpt>
      <trkpt lat="37.51986" lon="27.58613">
        <ele>1193.7</ele>
      </trkpt>
      <trkpt lat="37.51982" lon="27.58612">
        <ele>1195.7</ele>
      </trkpt>
      <trkpt lat="37.51982" lon="27.58618">
        <ele>1194.7</ele>
      </trkpt>
      <trkpt lat="37.51977" lon="27.58623">
        <ele>1196.3</ele>
      </trkpt>
      <trkpt lat="37.51972" lon="27.5863">
        <ele>1198</ele>
      </trkpt>
      <trkpt lat="37.51971" lon="27.58632">
        <ele>1198</ele>
      </trkpt>
      <trkpt lat="37.51971" lon="27.58639">
        <ele>1196.8</ele>
      </trkpt>
      <trkpt lat="37.51972" lon="27.58638">
        <ele>1196.5</ele>
      </trkpt>
      <trkpt lat="37.51974" lon="27.58638">
        <ele>1195.6</ele>
      </trkpt>
      <trkpt lat="37.51975" lon="27.58641">
        <ele>1194.4</ele>
      </trkpt>
      <trkpt lat="37.51979" lon="27.58646">
        <ele>1191.7</ele>
      </trkpt>
      <trkpt lat="37.51974" lon="27.58655">
        <ele>1192.6</ele>
      </trkpt>
      <trkpt lat="37.51974" lon="27.58657">
        <ele>1192.4</ele>
      </trkpt>
      <trkpt lat="37.51975" lon="27.5866">
        <ele>1191.6</ele>
      </trkpt>
      <trkpt lat="37.51975" lon="27.58669">
        <ele>1190</ele>
      </trkpt>
      <trkpt lat="37.51972" lon="27.58675">
        <ele>1190.4</ele>
      </trkpt>
      <trkpt lat="37.51966" lon="27.58675">
        <ele>1193.8</ele>
      </trkpt>
      <trkpt lat="37.5196" lon="27.58681">
        <ele>1196.1</ele>
      </trkpt>
      <trkpt lat="37.51959" lon="27.58689">
        <ele>1195.1</ele>
      </trkpt>
      <trkpt lat="37.51957" lon="27.58692">
        <ele>1195.8</ele>
      </trkpt>
      <trkpt lat="37.51952" lon="27.587">
        <ele>1196.6</ele>
      </trkpt>
      <trkpt lat="37.5195" lon="27.58706">
        <ele>1196.5</ele>
      </trkpt>
      <trkpt lat="37.51947" lon="27.58707">
        <ele>1197.8</ele>
      </trkpt>
      <trkpt lat="37.51947" lon="27.5871">
        <ele>1197</ele>
      </trkpt>
      <trkpt lat="37.5194" lon="27.58724">
        <ele>1197.7</ele>
      </trkpt>
      <trkpt lat="37.51938" lon="27.58733">
        <ele>1196.4</ele>
      </trkpt>
      <trkpt lat="37.51933" lon="27.58738">
        <ele>1197.8</ele>
      </trkpt>
      <trkpt lat="37.51924" lon="27.58744">
        <ele>1201.2</ele>
      </trkpt>
      <trkpt lat="37.51923" lon="27.58752">
        <ele>1199.2</ele>
      </trkpt>
      <trkpt lat="37.51916" lon="27.58752">
        <ele>1202.7</ele>
      </trkpt>
      <trkpt lat="37.51909" lon="27.58749">
        <ele>1206.7</ele>
      </trkpt>
      <trkpt lat="37.51901" lon="27.58753">
        <ele>1209</ele>
      </trkpt>
      <trkpt lat="37.51895" lon="27.58762">
        <ele>1208.6</ele>
      </trkpt>
      <trkpt lat="37.51888" lon="27.58765">
        <ele>1210.9</ele>
      </trkpt>
      <trkpt lat="37.51887" lon="27.5877">
        <ele>1209.5</ele>
      </trkpt>
      <trkpt lat="37.51883" lon="27.58779">
        <ele>1209.1</ele>
      </trkpt>
      <trkpt lat="37.51882" lon="27.58781">
        <ele>1209</ele>
      </trkpt>
      <trkpt lat="37.51879" lon="27.58783">
        <ele>1209.6</ele>
      </trkpt>
      <trkpt lat="37.51873" lon="27.58785">
        <ele>1211.7</ele>
      </trkpt>
      <trkpt lat="37.51868" lon="27.5879">
        <ele>1212.3</ele>
      </trkpt>
      <trkpt lat="37.51861" lon="27.58802">
        <ele>1212.2</ele>
      </trkpt>
      <trkpt lat="37.5186" lon="27.58803">
        <ele>1212</ele>
      </trkpt>
      <trkpt lat="37.51853" lon="27.58813">
        <ele>1212.4</ele>
      </trkpt>
      <trkpt lat="37.51852" lon="27.5882">
        <ele>1211</ele>
      </trkpt>
      <trkpt lat="37.5185" lon="27.58824">
        <ele>1211.2</ele>
      </trkpt>
      <trkpt lat="37.51845" lon="27.58825">
        <ele>1213.1</ele>
      </trkpt>
      <trkpt lat="37.51843" lon="27.58825">
        <ele>1213.9</ele>
      </trkpt>
      <trkpt lat="37.51838" lon="27.58831">
        <ele>1214.6</ele>
      </trkpt>
      <trkpt lat="37.51834" lon="27.58832">
        <ele>1216.2</ele>
      </trkpt>
      <trkpt lat="37.51834" lon="27.58832">
        <ele>1216.1</ele>
      </trkpt>
      <trkpt lat="37.51832" lon="27.58833">
        <ele>1217.2</ele>
      </trkpt>
      <trkpt lat="37.51827" lon="27.58837">
        <ele>1220.4</ele>
      </trkpt>
      <trkpt lat="37.51827" lon="27.58836">
        <ele>1220.8</ele>
      </trkpt>
      <trkpt lat="37.51824" lon="27.58836">
        <ele>1222.8</ele>
      </trkpt>
      <trkpt lat="37.51819" lon="27.58843">
        <ele>1225.7</ele>
      </trkpt>
      <trkpt lat="37.51812" lon="27.58847">
        <ele>1230.4</ele>
      </trkpt>
      <trkpt lat="37.51808" lon="27.58858">
        <ele>1230.8</ele>
      </trkpt>
      <trkpt lat="37.51802" lon="27.58863">
        <ele>1234.6</ele>
      </trkpt>
      <trkpt lat="37.51802" lon="27.58869">
        <ele>1234</ele>
      </trkpt>
      <trkpt lat="37.51798" lon="27.58868">
        <ele>1236.9</ele>
      </trkpt>
      <trkpt lat="37.51795" lon="27.58865">
        <ele>1240.4</ele>
      </trkpt>
      <trkpt lat="37.51791" lon="27.58868">
        <ele>1242.8</ele>
      </trkpt>
      <trkpt lat="37.5179" lon="27.58864">
        <ele>1244.6</ele>
      </trkpt>
      <trkpt lat="37.51786" lon="27.58868">
        <ele>1247.1</ele>
      </trkpt>
      <trkpt lat="37.51773" lon="27.58878">
        <ele>1255.7</ele>
      </trkpt>
      <trkpt lat="37.5177" lon="27.58886">
        <ele>1256.2</ele>
      </trkpt>
      <trkpt lat="37.5177" lon="27.58892">
        <ele>1255.4</ele>
      </trkpt>
      <trkpt lat="37.51765" lon="27.58899">
        <ele>1258.2</ele>
      </trkpt>
      <trkpt lat="37.51766" lon="27.58905">
        <ele>1256</ele>
      </trkpt>
      <trkpt lat="37.51765" lon="27.58912">
        <ele>1255.1</ele>
      </trkpt>
      <trkpt lat="37.51764" lon="27.58913">
        <ele>1256.3</ele>
      </trkpt>
      <trkpt lat="37.51761" lon="27.58916">
        <ele>1258.2</ele>
      </trkpt>
      <trkpt lat="37.51757" lon="27.5892">
        <ele>1260.2</ele>
      </trkpt>
      <trkpt lat="37.51751" lon="27.58926">
        <ele>1264.7</ele>
      </trkpt>
      <trkpt lat="37.5175" lon="27.58927">
        <ele>1265.3</ele>
      </trkpt>
      <trkpt lat="37.51749" lon="27.58927">
        <ele>1266</ele>
      </trkpt>
      <trkpt lat="37.51744" lon="27.58924">
        <ele>1270.3</ele>
      </trkpt>
      <trkpt lat="37.51737" lon="27.58923">
        <ele>1275.7</ele>
      </trkpt>
      <trkpt lat="37.51736" lon="27.5892">
        <ele>1277.4</ele>
      </trkpt>
      <trkpt lat="37.51738" lon="27.58917">
        <ele>1276.9</ele>
      </trkpt>
      <trkpt lat="37.51735" lon="27.58913">
        <ele>1279.4</ele>
      </trkpt>
      <trkpt lat="37.51736" lon="27.58913">
        <ele>1278.9</ele>
      </trkpt>
      <trkpt lat="37.51732" lon="27.58918">
        <ele>1281.1</ele>
      </trkpt>
      <trkpt lat="37.51732" lon="27.58918">
        <ele>1281.3</ele>
      </trkpt>
      <trkpt lat="37.51731" lon="27.58915">
        <ele>1282.6</ele>
      </trkpt>
      <trkpt lat="37.51729" lon="27.58912">
        <ele>1284.4</ele>
      </trkpt>
      <trkpt lat="37.51725" lon="27.58909">
        <ele>1287.7</ele>
      </trkpt>
      <trkpt lat="37.51722" lon="27.58906">
        <ele>1290.4</ele>
      </trkpt>
      <trkpt lat="37.5172" lon="27.58908">
        <ele>1291.6</ele>
      </trkpt>
      <trkpt lat="37.5169" lon="27.58916">
        <ele>1314.7</ele>
      </trkpt>
      <trkpt lat="37.51687" lon="27.58922">
        <ele>1315.5</ele>
      </trkpt>
      <trkpt lat="37.5168" lon="27.58915">
        <ele>1322.4</ele>
      </trkpt>
      <trkpt lat="37.51678" lon="27.58909">
        <ele>1324.1</ele>
      </trkpt>
      <trkpt lat="37.51672" lon="27.58909">
        <ele>1329</ele>
      </trkpt>
      <trkpt lat="37.51668" lon="27.58907">
        <ele>1331.7</ele>
      </trkpt>
      <trkpt lat="37.51668" lon="27.58907">
        <ele>1331.9</ele>
      </trkpt>
      <trkpt lat="37.51668" lon="27.58907">
        <ele>1332</ele>
      </trkpt>
      <trkpt lat="37.51668" lon="27.589">
        <ele>1332</ele>
      </trkpt>
      <trkpt lat="37.51665" lon="27.58898">
        <ele>1332.2</ele>
      </trkpt>
      <trkpt lat="37.51665" lon="27.58898">
        <ele>1332.1</ele>
      </trkpt>
      <trkpt lat="37.51662" lon="27.58897">
        <ele>1331.6</ele>
      </trkpt>
      <trkpt lat="37.51656" lon="27.58894">
        <ele>1330.4</ele>
      </trkpt>
      <trkpt lat="37.51656" lon="27.58894">
        <ele>1330.3</ele>
      </trkpt>
      <trkpt lat="37.51657" lon="27.58888">
        <ele>1330.1</ele>
      </trkpt>
      <trkpt lat="37.51659" lon="27.58879">
        <ele>1330</ele>
      </trkpt>
      <trkpt lat="37.5166" lon="27.58877">
        <ele>1330.2</ele>
      </trkpt>
      <trkpt lat="37.51663" lon="27.58865">
        <ele>1330.6</ele>
      </trkpt>
      <trkpt lat="37.51658" lon="27.58861">
        <ele>1328.8</ele>
      </trkpt>
      <trkpt lat="37.51664" lon="27.58856">
        <ele>1330.4</ele>
      </trkpt>
      <trkpt lat="37.51671" lon="27.58851">
        <ele>1328.5</ele>
      </trkpt>
      <trkpt lat="37.51672" lon="27.58845">
        <ele>1328</ele>
      </trkpt>
      <trkpt lat="37.51673" lon="27.58837">
        <ele>1327.4</ele>
      </trkpt>
      <trkpt lat="37.51673" lon="27.58836">
        <ele>1327.2</ele>
      </trkpt>
      <trkpt lat="37.51676" lon="27.58836">
        <ele>1325.9</ele>
      </trkpt>
      <trkpt lat="37.51681" lon="27.58835">
        <ele>1322.8</ele>
      </trkpt>
      <trkpt lat="37.51681" lon="27.58832">
        <ele>1321.6</ele>
      </trkpt>
      <trkpt lat="37.51685" lon="27.58837">
        <ele>1320.4</ele>
      </trkpt>
      <trkpt lat="37.51687" lon="27.58843">
        <ele>1319</ele>
      </trkpt>
      <trkpt lat="37.51689" lon="27.58842">
        <ele>1317.7</ele>
      </trkpt>
      <trkpt lat="37.5169" lon="27.58842">
        <ele>1317.4</ele>
      </trkpt>
      <trkpt lat="37.5169" lon="27.58841">
        <ele>1317</ele>
      </trkpt>
      <trkpt lat="37.5169" lon="27.5884">
        <ele>1317.1</ele>
      </trkpt>
      <trkpt lat="37.51692" lon="27.5884">
        <ele>1316.3</ele>
      </trkpt>
      <trkpt lat="37.51692" lon="27.5884">
        <ele>1316.1</ele>
      </trkpt>
      <trkpt lat="37.51693" lon="27.58837">
        <ele>1315.8</ele>
      </trkpt>
      <trkpt lat="37.51693" lon="27.58834">
        <ele>1316</ele>
      </trkpt>
      <trkpt lat="37.51698" lon="27.58838">
        <ele>1312.4</ele>
      </trkpt>
      <trkpt lat="37.51701" lon="27.58838">
        <ele>1310.8</ele>
      </trkpt>
      <trkpt lat="37.517" lon="27.58831">
        <ele>1310.3</ele>
      </trkpt>
      <trkpt lat="37.51698" lon="27.58823">
        <ele>1308</ele>
      </trkpt>
      <trkpt lat="37.51697" lon="27.58822">
        <ele>1307.8</ele>
      </trkpt>
      <trkpt lat="37.51693" lon="27.58815">
        <ele>1305.6</ele>
      </trkpt>
    </trkseg>
  </trk>
</gpx>